Date	Time	Direct	Global	Diffuse	WindSpeed	WindDirection	AmbientTemperature	Humidity	Rain	Pressure	PT100Direct	PT100Global	PT100Diffuse	TriggerBarometer	Fuse1	Fuse2	Fuse3	Fuse4	Fuse5	Fuse6	Fuse7	Fuse9	UPS	OvervoltageProtection	Lnet	Tb	Ld
[dd.mm.yyyy]	[hh:mm:ss]	[W/m2]	[W/m2]	[W/m2]	[m/s]	[Grad]	[GradCelsius]	[%]	[mm/d]	[hPa]	[GradCelsius]	[GradCelsius]	[GradCelsius]	[0/1]	[0=Error,1=OK]	[0=Error,1=OK]	[0=Error,1=OK]	[0=Error,1=OK]	[0=Error,1=OK]	[0=Error,1=OK]	[0=Error,1=OK]	[0=Error,1=OK]	[0=Error,1=OK]	[0=Error,1=OK]	 [W/m2]	[K]]	 [W/m2]
15.01.2021	00:00:00	0	0	2,372734	2,535	53,3664	-0,45	78,601	3,5	1007,8	5,8	7,9	7,7	1	1	1	1	1	1	1	1	1	0	1	-61,099366	273,160713	254,587133	0
15.01.2021	00:00:01	0	0	2,711696	2,55375	55,926	-0,45	78,615	3,5	1007,7	5,8	8	7,7	1	1	1	1	1	1	1	1	1	0	1	-63,495419	273,187734	252,31601	0
15.01.2021	00:00:02	0	0	4,067544	2,47425	46,2348	-0,458	78,599	0	1007,56	5,8	7,9	7,7	1	1	1	1	1	1	1	1	1	0	1	-59,126145	273,192004	256,70503	0
15.01.2021	00:00:03	0	0	5,084431	2,29725	53,478	-0,45	78,613	0	1007,56	5,8	8	7,7	1	1	1	1	1	1	1	1	1	0	1	-62,86117	273,271886	253,339566	0
15.01.2021	00:00:04	0	0	2,598709	2,1645	63,8712	-0,453	78,615	0	1007,42	5,8	7,9	7,7	1	1	1	1	1	1	1	1	1	0	1	-61,804087	273,200547	254,066595	0
15.01.2021	00:00:05	0	0	2,937671	2,08425	63,1836	-0,458	78,628	0	1007,62	5,8	8	7,7	1	1	1	1	1	1	1	1	1	0	1	-69,626498	273,352102	246,94567	0
15.01.2021	00:00:06	0	0	4,406506	2,34375	31,7808	-0,46	78,617	0	1007,54	5,8	7,9	7,7	1	1	1	1	1	1	1	1	1	0	1	-63,284003	273,304791	253,069058	0
15.01.2021	00:00:07	0	0	5,084431	2,49375	47,3688	-0,454	78,637	0	1007,72	5,8	7,9	7,7	1	1	1	1	1	1	1	1	1	0	1	-62,86117	273,199123	253,002926	0
15.01.2021	00:00:08	0	0	4,745468	2,415	41,9436	-0,46	78,63	0	1007,46	5,8	7,9	7,7	1	1	1	1	1	1	1	1	1	0	1	-62,86117	273,33345	253,624605	0
15.01.2021	00:00:09	0	0	2,71168	2,2845	39,1752	-0,46	78,648	0	1007,5	5,8	7,9	7,8	1	1	1	1	1	1	1	1	1	0	1	-63,918252	273,289047	252,361918	0
15.01.2021	00:00:10	0	0	3,502587	2,52675	58,482	-0,458	78,652	0	1007,9	5,8	7,9	7,8	1	1	1	1	1	1	1	1	1	0	1	-57,64623	273,192004	258,184945	0
15.01.2021	00:00:11	0	0	5,649333	3,06975	52,5132	-0,453	78,662	0	1007,8	5,8	8	7,8	1	1	1	1	1	1	1	1	1	0	1	-59,267089	273,247601	256,821261	0
15.01.2021	00:00:12	0	0	4,971443	3,465	44,3952	-0,458	78,676	0	1007,36	5,8	7,9	7,7	1	1	1	1	1	1	1	1	1	0	1	-62,438337	273,334885	254,054079	0
15.01.2021	00:00:13	0	0	3,276633	3,61425	36,6228	-0,458	78,685	0	1007,66	5,8	7,9	7,7	1	1	1	1	1	1	1	1	1	0	1	-60,535588	273,309087	255,837364	0
15.01.2021	00:00:14	0	0	2,598693	3,5265	23,994	-0,454	78,7	0	1007,64	5,8	7,9	7,8	1	1	1	1	1	1	1	1	1	0	1	-60,606061	273,330583	255,866432	0
15.01.2021	00:00:15	0	0	3,276613	3,3195	31,0284	-0,451	78,723	0	1007,72	5,8	7,9	7,8	1	1	1	1	1	1	1	1	1	0	1	-58,773784	273,266169	257,400492	0
15.01.2021	00:00:16	0	0	4,745468	3,033	38,4228	-0,453	78,728	0	1007,78	5,8	7,9	7,7	1	1	1	1	1	1	1	1	1	0	1	-63,072586	273,183465	252,719103	0
15.01.2021	00:00:17	0	0	4,293493	3,05775	38,4048	-0,456	78,748	0	1007,52	5,8	7,9	7,8	1	1	1	1	1	1	1	1	1	0	1	-60,112755	273,223347	255,863382	0
15.01.2021	00:00:18	0	0	4,858427	3,08175	40,6152	-0,454	78,763	0	1007,62	5,8	7,9	7,8	1	1	1	1	1	1	1	1	1	0	1	-57,998591	273,365025	258,633447	0
15.01.2021	00:00:19	0	0	3,163646	3,153	58,482	-0,454	78,766	0	1007,92	5,8	7,9	7,7	1	1	1	1	1	1	1	1	1	0	1	-59,760395	273,323415	256,678903	0
15.01.2021	00:00:20	0	0	2,485707	3,2145	57,744	-0,452	78,774	0	1007,66	5,8	7,9	7,8	1	1	1	1	1	1	1	1	1	0	1	-63,354475	273,186311	252,450374	0
15.01.2021	00:00:21	0	0	2,824667	2,991	65,484	-0,459	78,776	0	1007,6	5,8	8	7,8	1	1	1	1	1	1	1	1	1	0	1	-61,099366	273,286186	255,167559	0
15.01.2021	00:00:22	0	0	3,615573	3,03525	56,2932	-0,447	78,781	0	1007,68	5,8	7,9	7,8	1	1	1	1	1	1	1	1	1	0	1	-57,928118	273,177775	257,837259	0
15.01.2021	00:00:23	0	0	2,824684	3,423	56,6532	-0,449	78,79	0	1007,72	5,8	7,9	7,7	1	1	1	1	1	1	1	1	1	0	1	-59,760395	273,250457	256,341169	0
15.01.2021	00:00:24	0	0	3,502608	3,678	59,868	-0,447	78,796	0	1007,68	5,8	7,9	7,7	1	1	1	1	1	1	1	1	1	0	1	-59,408034	273,183465	256,383656	0
15.01.2021	00:00:25	0	0	2,937671	3,86475	52,9128	-0,452	78,796	0	1007,78	5,8	7,9	7,7	1	1	1	1	1	1	1	1	1	0	1	-62,297393	273,243319	253,771143	0
15.01.2021	00:00:26	0	0	2,711696	3,84975	35,874	-0,456	78,793	0	1007,76	5,8	7,9	7,7	1	1	1	1	1	1	1	1	1	0	1	-63,706836	273,33345	252,778939	0
15.01.2021	00:00:27	0	0	4,519467	3,585	35,8668	-0,446	78,789	0	1007,7	5,8	8	7,8	1	1	1	1	1	1	1	1	1	0	1	-67,019027	273,314817	249,380456	0
15.01.2021	00:00:28	0	0	2,598709	3,46575	47,0088	-0,453	78,782	0	1007,66	5,8	7,9	7,7	1	1	1	1	1	1	1	1	1	0	1	-62,579281	273,350666	253,986237	0
15.01.2021	00:00:29	0	0	3,615573	3,42225	52,8876	-0,45	78,777	0	1007,72	5,8	8	7,8	1	1	1	1	1	1	1	1	1	0	1	-62,649753	273,329149	253,816099	0
15.01.2021	00:00:30	0	0	2,937653	3,3525	55,9476	-0,447	78,787	0	1007,82	5,8	8	7,8	1	1	1	1	1	1	1	1	1	0	1	-63,636364	273,300496	252,69681	0
15.01.2021	00:00:31	0	0	4,745468	3,462	64,2564	-0,443	78,804	0	1007,84	5,8	7,9	7,7	1	1	1	1	1	1	1	1	1	0	1	-62,790698	273,357844	253,808072	0
15.01.2021	00:00:32	0	0	2,824684	3,42225	75,9636	-0,451	78,8	0	1007,8	5,8	7,9	7,7	1	1	1	1	1	1	1	1	1	0	1	-63,636364	273,256169	252,491633	0
15.01.2021	00:00:33	0	0	2,598693	3,22425	69,1668	-0,45	78,801	0	1007,7	5,8	7,9	7,8	1	1	1	1	1	1	1	1	1	0	1	-59,408034	273,350666	257,157484	0
15.01.2021	00:00:34	0	0	2,824667	3,25425	70,8588	-0,45	78,807	0	1007,74	5,8	7,9	7,8	1	1	1	1	1	1	1	1	1	0	1	-60,747005	273,26474	255,420658	0
15.01.2021	00:00:35	0	0	4,74544	3,26925	78,2856	-0,446	78,806	0	1007,8	5,8	7,9	7,8	1	1	1	1	1	1	1	1	1	0	1	-61,592671	273,362152	255,026058	0
15.01.2021	00:00:36	0	0	4,293493	3,07125	56,7036	-0,449	78,799	0	1007,72	5,8	7,9	7,8	1	1	1	1	1	1	1	1	1	0	1	-63,143058	273,291909	253,150359	0
15.01.2021	00:00:37	0	0	4,180507	2,931	58,878	-0,449	78,796	0	1007,64	5,8	7,9	7,8	1	1	1	1	1	1	1	1	1	0	1	-60,394644	273,179197	255,377311	0
15.01.2021	00:00:38	0	0	5,53638	2,99625	78,228	-0,447	78,807	0	1007,52	5,8	7,9	7,7	1	1	1	1	1	1	1	1	1	0	1	-58,844257	273,269027	257,343248	0
15.01.2021	00:00:39	0	0	3,3896	2,89875	71,622	-0,451	78,802	0	1007,54	5,8	7,9	7,8	1	1	1	1	1	1	1	1	1	0	1	-63,918252	273,350666	252,647266	0
15.01.2021	00:00:40	0	0	3,84157	2,96925	74,1672	-0,443	78,803	0	1007,7	5,8	7,9	7,7	1	1	1	1	1	1	1	1	1	0	1	-59,548978	273,254741	256,572409	0
15.01.2021	00:00:41	0	0	3,38962	2,8755	57,7404	-0,447	78,797	0	1007,6	5,8	7,9	7,7	1	1	1	1	1	1	1	1	1	0	1	-64,341085	273,192004	251,49009	0
15.01.2021	00:00:42	0	0	3,615595	2,7015	62,4312	-0,448	78,777	0	1007,66	5,8	7,9	7,7	1	1	1	1	1	1	1	1	1	0	1	-58,562368	273,332016	257,916765	0
15.01.2021	00:00:43	0	0	4,971413	3,021	71,6076	-0,445	78,771	0	1007,66	5,8	7,9	7,8	1	1	1	1	1	1	1	1	1	0	1	-59,830867	273,299065	256,49568	0
15.01.2021	00:00:44	0	0	4,180507	3,32625	64,242	-0,448	78,769	0	1007,62	5,8	7,9	7,8	1	1	1	1	1	1	1	1	1	0	1	-60,958421	273,356409	255,633697	0
15.01.2021	00:00:45	0	0	4,745468	3,35325	62,4204	-0,451	78,759	0	1007,64	5,8	7,9	7,7	1	1	1	1	1	1	1	1	1	0	1	-63,777308	273,266169	252,396969	0
15.01.2021	00:00:46	0	0	4,180507	3,189	60,9444	-0,447	78,774	0	1007,76	5,8	7,9	7,8	1	1	1	1	1	1	1	1	1	0	1	-61,310782	273,199123	254,553314	0
15.01.2021	00:00:47	0	0	3,72856	2,871	50,7024	-0,445	78,804	0	1007,68	5,8	8	7,8	1	1	1	1	1	1	1	1	1	0	1	-67,44186	273,347796	249,110361	0
15.01.2021	00:00:48	0	0	4,519494	2,64	52,8984	-0,443	78,766	0	1007,76	5,8	7,9	7,7	1	1	1	1	1	1	1	1	1	0	1	-64,200141	273,241891	251,861791	0
15.01.2021	00:00:49	0	0	3,615595	2,535	42,6168	-0,445	78,759	0	1007,74	5,8	8	7,7	1	1	1	1	1	1	1	1	1	0	1	-58,773784	273,189157	257,044227	0
15.01.2021	00:00:50	0	0	4,632453	2,73525	52,164	-0,447	78,73	0	1007,66	5,8	7,9	7,8	1	1	1	1	1	1	1	1	1	0	1	-63,706836	273,306223	252,652855	0
15.01.2021	00:00:51	0	0	3,38962	2,739	66,2328	-0,442	78,74	0	1007,66	5,8	8	7,7	1	1	1	1	1	1	1	1	1	0	1	-62,508809	273,176352	253,249992	0
15.01.2021	00:00:52	0	0	3,841547	2,86575	63,8568	-0,446	78,736	0	1007,84	5,8	7,9	7,8	1	1	1	1	1	1	1	1	1	0	1	-62,015504	273,294771	254,291163	0
15.01.2021	00:00:53	0	0	3,163646	3,3225	58,878	-0,451	78,735	0	1007,64	5,8	8	7,7	1	1	1	1	1	1	1	1	1	0	1	-61,24031	273,207669	254,66331	0
15.01.2021	00:00:54	0	0	5,0844	3,486	71,2404	-0,445	78,735	0	1007,86	5,8	7,9	7,8	1	1	1	1	1	1	1	1	1	0	1	-62,931642	273,284755	253,328661	0
15.01.2021	00:00:55	0	0	2,598709	3,606	79,1244	-0,44	78,74	0	1007,72	5,8	7,9	7,7	1	1	1	1	1	1	1	1	1	0	1	-61,099366	273,353537	255,479451	0
15.01.2021	00:00:56	0	0	2,824667	3,6555	86,022	-0,45	78,74	0	1007,7	5,8	7,9	7,8	1	1	1	1	1	1	1	1	1	0	1	-63,354475	273,263311	252,806576	0
15.01.2021	00:00:57	0	0	2,824667	3,50475	89,3124	-0,445	78,744	0	1007,74	5,8	8	7,8	1	1	1	1	1	1	1	1	1	0	1	-62,015504	273,349231	254,543365	0
15.01.2021	00:00:58	0	0	3,954533	3,31725	77,9652	-0,445	78,756	0	1007,62	5,8	8	7,8	1	1	1	1	1	1	1	1	1	0	1	-61,381254	273,327715	255,077958	0
15.01.2021	00:00:59	0	0	4,74544	3,255	89,676	-0,443	78,753	0	1007,74	5,8	7,9	7,8	1	1	1	1	1	1	1	1	1	0	1	-61,733615	273,26474	254,434048	0
15.01.2021	00:01:00	0	0	3,728582	2,88075	92,646	-0,441	78,757	0	1007,64	5,8	8	7,7	1	1	1	1	1	1	1	1	1	0	1	-59,408034	273,203396	256,475822	0
15.01.2021	00:01:01	0	0	3,276613	2,5665	62,4132	-0,444	78,758	0	1007,74	5,8	7,9	7,8	1	1	1	1	1	1	1	1	1	0	1	-59,408034	273,203396	256,475822	0
15.01.2021	00:01:02	0	0	3,276613	2,5665	62,4132	-0,444	78,758	0	1007,74	5,8	7,9	7,8	1	1	1	1	1	1	1	1	1	0	1	-58,421424	273,172086	257,317652	0
15.01.2021	00:01:03	0	0	2,937653	2,463	92,9628	-0,447	78,741	0	1007,54	5,8	7,9	7,8	1	1	1	1	1	1	1	1	1	0	1	-65,398168	273,287616	250,875379	0
15.01.2021	00:01:04	0	0	3,163627	2,445	49,5864	-0,441	78,739	0	1007,74	5,8	7,9	7,8	1	1	1	1	1	1	1	1	1	0	1	-63,213531	273,347796	253,338691	0
15.01.2021	00:01:05	0	0	3,163646	2,74725	77,9868	-0,449	78,726	0	1007,62	5,8	8	7,7	1	1	1	1	1	1	1	1	1	0	1	-61,733615	273,176352	254,025186	0
15.01.2021	00:01:06	0	0	5,0844	2,99475	72,072	-0,442	78,729	0	1007,78	5,8	7,9	7,8	1	1	1	1	1	1	1	1	1	0	1	-59,126145	273,241891	256,935787	0
15.01.2021	00:01:07	0	0	3,615573	3,18375	64,2348	-0,445	78,721	0	1007,72	5,8	8	7,8	1	1	1	1	1	1	1	1	1	0	1	-57,998591	273,182042	257,78652	0
15.01.2021	00:01:08	0	0	4,180507	3,08925	64,6416	-0,439	78,715	0	1007,78	5,8	7,9	7,8	1	1	1	1	1	1	1	1	1	0	1	-62,085976	273,280465	254,154466	0
15.01.2021	00:01:09	0	0	4,858427	2,93625	66,2436	-0,444	78,715	0	1007,72	5,8	7,9	7,8	1	1	1	1	1	1	1	1	1	0	1	-64,552502	273,349231	252,006368	0
15.01.2021	00:01:10	0	0	2,598709	2,76675	65,826	-0,444	78,69	0	1007,54	5,8	7,9	7,7	1	1	1	1	1	1	1	1	1	0	1	-66,314306	273,186311	249,490543	0
15.01.2021	00:01:11	0	0	2,824684	2,56875	57,0672	-0,444	78,681	0	1007,6	5,8	7,9	7,7	1	1	1	1	1	1	1	1	1	0	1	-56,730092	273,284755	259,530212	0
15.01.2021	00:01:12	0	0	3,3896	2,2605	71,6148	-0,445	78,675	0	1007,72	5,8	7,9	7,8	1	1	1	1	1	1	1	1	1	0	1	-61,451727	273,352102	255,120441	0
15.01.2021	00:01:13	0	0	4,519467	1,97925	51,4332	-0,443	78,685	0	1007,76	5,8	8	7,8	1	1	1	1	1	1	1	1	1	0	1	-58,421424	273,200547	257,449258	0
15.01.2021	00:01:14	0	0	2,372734	2,094	66,2436	-0,445	78,669	0	1007,62	5,8	7,9	7,7	1	1	1	1	1	1	1	1	1	0	1	-66,384778	273,320549	250,041245	0
15.01.2021	00:01:15	0	0	4,74544	2,25075	63,8856	-0,442	78,672	0	1007,76	5,8	8	7,8	1	1	1	1	1	1	1	1	1	0	1	-62,649753	273,311952	253,736463	0
15.01.2021	00:01:16	0	0	2,711696	2,53425	60,5664	-0,44	78,646	0	1007,7	5,8	7,9	7,7	1	1	1	1	1	1	1	1	1	0	1	-64,763918	273,286186	251,503007	0
15.01.2021	00:01:17	0	0	5,197387	2,9925	65,4624	-0,438	78,649	0	1007,74	5,8	7,9	7,8	1	1	1	1	1	1	1	1	1	0	1	-62,438337	273,160713	253,248162	0
15.01.2021	00:01:18	0	0	4,632453	3,111	60,246	-0,445	78,636	0	1007,56	5,8	8,1	7,8	1	1	1	1	1	1	1	1	1	0	1	-65,045807	273,279035	251,188016	0
15.01.2021	00:01:19	0	0	4,180507	3,30225	63,8604	-0,446	78,624	0	1007,68	5,8	8	7,8	1	1	1	1	1	1	1	1	1	0	1	-60,887949	273,176352	254,870852	0
15.01.2021	00:01:20	0	0	2,824684	3,3345	67,6836	-0,449	78,613	0	1007,42	5,8	8	7,7	1	1	1	1	1	1	1	1	1	0	1	-56,730092	273,234757	259,298831	0
15.01.2021	00:01:21	0	0	5,0844	3,372	69,8652	-0,448	78,595	0	1007,68	5,8	8	7,8	1	1	1	1	1	1	1	1	1	0	1	-57,928118	273,152188	257,718973	0
15.01.2021	00:01:22	0	0	2,824684	3,462	70,866	-0,442	78,58	0	1007,6	5,8	8	7,7	1	1	1	1	1	1	1	1	1	0	1	-57,505285	273,17493	258,24694	0
15.01.2021	00:01:23	0	0	4,74544	3,405	73,44	-0,444	78,578	0	1007,76	5,8	8	7,8	1	1	1	1	1	1	1	1	1	0	1	-61,87456	273,220495	254,088388	0
15.01.2021	00:01:24	0	0	4,858456	3,3345	67,3128	-0,443	78,588	0	1007,74	5,8	7,9	7,7	1	1	1	1	1	1	1	1	1	0	1	-62,931642	273,147927	252,695754	0
15.01.2021	00:01:25	0	0	4,293493	3,24075	58,9752	-0,445	78,587	0	1007,56	5,8	7,9	7,8	1	1	1	1	1	1	1	1	1	0	1	-63,213531	273,287616	253,060017	0
15.01.2021	00:01:26	0	0	3,841547	3,069	73,7892	-0,448	78,595	0	1007,6	5,8	8	7,8	1	1	1	1	1	1	1	1	1	0	1	-60,817477	273,159292	254,862453	0
15.01.2021	00:01:27	0	0	4,74544	3,1935	64,6308	-0,438	78,618	0	1007,66	5,8	8	7,8	1	1	1	1	1	1	1	1	1	0	1	-61,945032	273,329149	254,52082	0
15.01.2021	00:01:28	0	0	3,163646	3,28875	68,1048	-0,437	78,627	0	1007,5	5,8	7,9	7,7	1	1	1	1	1	1	1	1	1	0	1	-65,821001	273,251884	250,28717	0
15.01.2021	00:01:29	0	0	4,519494	3,38175	75,6324	-0,444	78,646	0	1007,78	5,8	8	7,7	1	1	1	1	1	1	1	1	1	0	1	-62,438337	273,320549	253,987687	0
15.01.2021	00:01:30	0	0	5,084431	3,2955	69,156	-0,447	78,656	0	1007,76	5,8	8	7,7	1	1	1	1	1	1	1	1	1	0	1	-61,381254	273,274745	254,832714	0
15.01.2021	00:01:31	0	0	2,259747	3,2715	73,782	-0,438	78,677	0	1007,6	5,8	8	7,7	1	1	1	1	1	1	1	1	1	0	1	-62,790698	273,303359	253,555733	0
15.01.2021	00:01:32	0	0	3,615573	3,15375	70,8372	-0,44	78,701	0	1007,7	5,8	8	7,8	1	1	1	1	1	1	1	1	1	0	1	-60,747005	273,344926	255,791922	0
15.01.2021	00:01:33	0	0	2,598709	2,93475	68,4108	-0,447	78,712	0	1007,5	5,8	7,9	7,7	1	1	1	1	1	1	1	1	1	0	1	-62,22692	273,246173	253,854825	0
15.01.2021	00:01:34	0	0	3,72856	2,85225	55,5552	-0,438	78,724	0	1007,76	5,8	7,9	7,8	1	1	1	1	1	1	1	1	1	0	1	-63,636364	273,347796	252,915858	0
15.01.2021	00:01:35	0	0	4,06752	2,7855	56,6496	-0,443	78,737	0	1007,48	5,8	7,9	7,8	1	1	1	1	1	1	1	1	1	0	1	-60,887949	273,199123	254,976147	0
15.01.2021	00:01:36	0	0	4,745468	2,61975	59,1876	-0,441	78,724	0	1007,6	5,8	8	7,7	1	1	1	1	1	1	1	1	1	0	1	-62,86117	273,166398	252,851613	0
15.01.2021	00:01:37	0	0	2,71168	2,61525	66,924	-0,44	78,749	0	1007,48	5,8	8	7,8	1	1	1	1	1	1	1	1	1	0	1	-64,975335	273,33345	251,51044	0
15.01.2021	00:01:38	0	0	2,937653	2,547	62,0496	-0,446	78,757	0	1007,64	5,8	8	7,8	1	1	1	1	1	1	1	1	1	0	1	-61,310782	273,250457	254,790781	0
15.01.2021	00:01:39	0	0	3,05064	2,4735	64,2096	-0,445	78,756	0	1007,42	5,8	8	7,8	1	1	1	1	1	1	1	1	1	0	1	-62,156448	273,329149	254,309404	0
15.01.2021	00:01:40	0	0	2,711696	2,526	63,1872	-0,441	78,741	0	1007,72	5,8	8	7,7	1	1	1	1	1	1	1	1	1	0	1	-63,84778	273,334885	252,644636	0
15.01.2021	00:01:41	0	0	2,937671	2,55075	57,7368	-0,442	78,73	0	1007,64	5,8	8	7,7	1	1	1	1	1	1	1	1	1	0	1	-61,87456	273,250457	254,227004	0
15.01.2021	00:01:42	0	0	3,615595	2,574	64,6164	-0,445	78,734	0	1007,52	5,8	7,9	7,7	1	1	1	1	1	1	1	1	1	0	1	-62,579281	273,334885	253,913135	0
15.01.2021	00:01:43	0	0	4,40648	2,53725	54,9108	-0,442	78,723	0	1007,64	5,8	8	7,8	1	1	1	1	1	1	1	1	1	0	1	-62,579281	273,170664	253,15322	0
15.01.2021	00:01:44	0	0	4,745468	2,4	54,4608	-0,44	78,72	0	1007,58	5,8	8	7,7	1	1	1	1	1	1	1	1	1	0	1	-62,297393	273,281895	253,949669	0
15.01.2021	00:01:45	0	0	2,598693	2,3595	58,4928	-0,438	78,712	0	1007,52	5,8	8	7,8	1	1	1	1	1	1	1	1	1	0	1	-68,07611	273,155029	247,584115	0
15.01.2021	00:01:46	0	0	4,74544	2,2155	52,5132	-0,438	78,699	0	1007,7	5,8	8	7,8	1	1	1	1	1	1	1	1	1	0	1	-64,763918	273,251884	251,344252	0
15.01.2021	00:01:47	0	0	4,745468	2,2905	58,2048	-0,441	78,674	0	1007,78	5,8	8	7,7	1	1	1	1	1	1	1	1	1	0	1	-61,663143	273,152188	253,983948	0
15.01.2021	00:01:48	0	0	4,858427	2,32875	66,5496	-0,441	78,664	0	1007,86	5,8	7,9	7,8	1	1	1	1	1	1	1	1	1	0	1	-62,86117	273,214794	253,075404	0
15.01.2021	00:01:49	0	0	2,937653	2,29875	62,0568	-0,439	78,655	0	1007,92	5,7	8	7,8	1	1	1	1	1	1	1	1	1	0	1	-64,059197	273,323415	252,380101	0
15.01.2021	00:01:50	0	0	3,05064	2,2815	65,0772	-0,447	78,631	0	1007,56	5,7	8	7,8	1	1	1	1	1	1	1	1	1	0	1	-65,045807	273,184888	250,752462	0
15.01.2021	00:01:51	0	0	4,632481	2,355	54,8136	-0,44	78,618	0	1007,64	5,8	8	7,7	1	1	1	1	1	1	1	1	1	0	1	-62,86117	273,320549	253,564854	0
15.01.2021	00:01:52	0	0	2,71168	2,409	50,6844	-0,44	78,611	0	1007,42	5,8	8	7,8	1	1	1	1	1	1	1	1	1	0	1	-61,24031	273,241891	254,821622	0
15.01.2021	00:01:53	0	0	2,485707	2,43225	58,1004	-0,44	78,58	0	1007,66	5,8	8	7,8	1	1	1	1	1	1	1	1	1	0	1	-62,790698	273,330583	253,681794	0
15.01.2021	00:01:54	0	0	4,745468	2,45925	37,422	-0,437	78,575	0	1007,9	5,8	8	7,7	1	1	1	1	1	1	1	1	1	0	1	-62,931642	273,284755	253,328661	0
15.01.2021	00:01:55	0	0	3,502587	2,72625	53,3628	-0,442	78,547	0	1007,58	5,7	8	7,8	1	1	1	1	1	1	1	1	1	0	1	-62,085976	273,147927	253,54142	0
15.01.2021	00:01:56	0	0	4,858456	2,88525	57,4272	-0,449	78,537	0	1007,64	5,8	8	7,7	1	1	1	1	1	1	1	1	1	0	1	-64,270613	273,29334	252,029429	0
15.01.2021	00:01:57	0	0	3,05064	2,77575	41,472	-0,44	78,52	0	1007,72	5,8	8	7,8	1	1	1	1	1	1	1	1	1	0	1	-62,297393	273,251884	253,810778	0
15.01.2021	00:01:58	0	0	2,37272	2,48475	74,9124	-0,442	78,507	0	1007,66	5,8	8	7,8	1	1	1	1	1	1	1	1	1	0	1	-63,495419	273,137988	252,08604	0
15.01.2021	00:01:59	0	0	4,293519	2,28075	63,1728	-0,448	78,499	0	1007,56	5,8	8	7,7	1	1	1	1	1	1	1	1	1	0	1	-61,733615	273,214794	254,202959	0
15.01.2021	00:02:00	0	0	3,502587	2,25075	50,6916	-0,436	78,498	0	1007,76	5,7	8	7,8	1	1	1	1	1	1	1	1	1	0	1	-60,817477	273,139407	254,770543	0
15.01.2021	00:02:01	0	0	3,954557	2,29725	57,0528	-0,448	78,496	0	1007,44	5,7	8	7,7	1	1	1	1	1	1	1	1	1	0	1	-60,535588	273,164977	255,170622	0
15.01.2021	00:02:02	0	0	3,954557	2,29725	57,0528	-0,448	78,496	0	1007,44	5,7	8	7,7	1	1	1	1	1	1	1	1	1	0	1	-60,535588	273,164977	255,170622	0
15.01.2021	00:02:03	0	0	2,598693	2,22825	55,566	-0,447	78,488	0	1007,82	5,7	8	7,8	1	1	1	1	1	1	1	1	1	0	1	-65,46864	273,281895	250,778422	0
15.01.2021	00:02:04	0	0	3,841547	2,17725	70,2072	-0,448	78,482	0	1007,64	5,7	8	7,8	1	1	1	1	1	1	1	1	1	0	1	-59,901339	273,163555	255,798301	0
15.01.2021	00:02:05	0	0	4,745468	2,139	71,982	-0,443	78,498	0	1007,8	5,8	8	7,7	1	1	1	1	1	1	1	1	1	0	1	-59,196617	273,247601	256,891733	0
15.01.2021	00:02:06	0	0	2,711696	2,121	63,504	-0,445	78,493	0	1007,8	5,8	8	7,7	1	1	1	1	1	1	1	1	1	0	1	-62,579281	273,130891	252,969384	0
15.01.2021	00:02:07	0	0	2,711696	2,2035	77,2128	-0,445	78,484	0	1007,74	5,8	8	7,7	1	1	1	1	1	1	1	1	1	0	1	-63,143058	273,179197	252,628896	0
15.01.2021	00:02:08	0	0	4,971413	2,36025	62,424	-0,448	78,468	0	1007,88	5,7	8	7,8	1	1	1	1	1	1	1	1	1	0	1	-63,354475	273,283325	252,899207	0
15.01.2021	00:02:09	0	0	4,632453	2,5125	75,3732	-0,448	78,479	0	1007,76	5,8	8	7,8	1	1	1	1	1	1	1	1	1	0	1	-60,2537	273,307655	256,112621	0
15.01.2021	00:02:10	0	0	3,050658	2,40675	61,326	-0,446	78,484	0	1007,7	5,7	8	7,7	1	1	1	1	1	1	1	1	1	0	1	-61,945032	273,246173	254,136713	0
15.01.2021	00:02:11	0	0	2,937671	2,46675	68,0184	-0,446	78,463	0	1007,68	5,8	8	7,7	1	1	1	1	1	1	1	1	1	0	1	-65,045807	273,300496	251,287367	0
15.01.2021	00:02:12	0	0	5,53638	2,64975	73,0692	-0,451	78,467	0	1007,78	5,8	8	7,7	1	1	1	1	1	1	1	1	1	0	1	-63,777308	273,270457	252,416812	0
15.01.2021	00:02:13	0	0	3,276633	2,90775	68,4072	-0,447	78,459	0	1007,6	5,7	8	7,7	1	1	1	1	1	1	1	1	1	0	1	-62,438337	273,241891	253,623595	0
15.01.2021	00:02:14	0	0	4,406506	2,97375	71,5932	-0,446	78,464	0	1007,7	5,7	8	7,7	1	1	1	1	1	1	1	1	1	0	1	-60,324172	273,290478	255,962621	0
15.01.2021	00:02:15	0	0	4,632481	2,8875	70,6104	-0,452	78,448	0	1007,52	5,7	8	7,7	1	1	1	1	1	1	1	1	1	0	1	-62,790698	273,186311	253,014151	0
15.01.2021	00:02:16	0	0	3,615595	2,7375	70,3116	-0,448	78,466	0	1007,72	5,7	8	7,7	1	1	1	1	1	1	1	1	1	0	1	-60,606061	273,296202	255,707232	0
15.01.2021	00:02:17	0	0	4,519494	2,65125	71,622	-0,456	78,453	0	1007,64	5,7	8	7,7	1	1	1	1	1	1	1	1	1	0	1	-63,84778	273,287616	252,425767	0
15.01.2021	00:02:18	0	0	4,74544	2,63175	67,284	-0,448	78,444	0	1007,68	5,7	8	7,8	1	1	1	1	1	1	1	1	1	0	1	-63,706836	273,187734	252,104594	0
15.01.2021	00:02:19	0	0	2,711696	2,54025	69,2568	-0,446	78,424	0	1007,76	5,8	8	7,7	1	1	1	1	1	1	1	1	1	0	1	-60,112755	273,115289	255,363815	0
15.01.2021	00:02:20	0	0	4,406506	2,4825	69,1668	-0,454	78,412	0	1007,58	5,8	8	7,7	1	1	1	1	1	1	1	1	1	0	1	-63,213531	273,231904	252,802192	0
15.01.2021	00:02:21	0	0	4,745468	2,3445	64,6308	-0,451	78,406	0	1007,56	5,8	8	7,7	1	1	1	1	1	1	1	1	1	0	1	-63,706836	273,300496	252,626338	0
15.01.2021	00:02:22	0	0	3,050658	2,39475	62,4132	-0,456	78,395	0	1007,58	5,7	8	7,7	1	1	1	1	1	1	1	1	1	0	1	-64,129669	273,119543	251,366557	0
15.01.2021	00:02:23	0	0	3,163646	2,38275	61,4268	-0,45	78,401	0	1007,74	5,8	8	7,7	1	1	1	1	1	1	1	1	1	0	1	-60,465116	273,23333	255,557206	0
15.01.2021	00:02:24	0	0	3,84157	2,24025	54,4968	-0,452	78,385	0	1007,84	5,8	8	7,7	1	1	1	1	1	1	1	1	1	0	1	-64,693446	273,106784	250,743829	0
15.01.2021	00:02:25	0	0	2,711696	2,18925	66,9168	-0,453	78,387	0	1007,66	5,8	8	7,7	1	1	1	1	1	1	1	1	1	0	1	-59,548978	273,128054	255,986574	0
15.01.2021	00:02:26	0	0	3,502608	2,2545	65,844	-0,453	78,385	0	1007,8	5,7	8	7,7	1	1	1	1	1	1	1	1	1	0	1	-59,408034	273,128054	256,127518	0
15.01.2021	00:02:27	0	0	3,728582	2,24025	67,7808	-0,453	78,372	0	1007,76	5,7	8	7,7	1	1	1	1	1	1	1	1	1	0	1	-62,508809	273,140827	253,085772	0
15.01.2021	00:02:28	0	0	4,180532	2,2665	58,5072	-0,456	78,377	0	1007,66	5,8	8	7,7	1	1	1	1	1	1	1	1	1	0	1	-59,337562	273,236183	256,697961	0
15.01.2021	00:02:29	0	0	2,598709	2,3355	61,3152	-0,449	78,36	0	1007,78	5,8	8	7,7	1	1	1	1	1	1	1	1	1	0	1	-63,143058	273,281895	253,104003	0
15.01.2021	00:02:30	0	0	2,485707	2,39625	66,546	-0,457	78,348	0	1007,7	5,8	8	7,8	1	1	1	1	1	1	1	1	1	0	1	-60,676533	273,240464	255,378796	0
15.01.2021	00:02:31	0	0	2,937671	2,412	57,4344	-0,457	78,335	0	1007,78	5,8	8	7,7	1	1	1	1	1	1	1	1	1	0	1	-62,720226	273,283325	253,533457	0
15.01.2021	00:02:32	0	0	4,632481	2,319	61,2936	-0,454	78,327	0	1007,68	5,8	8	7,7	1	1	1	1	1	1	1	1	1	0	1	-57,575758	273,182042	258,209353	0
15.01.2021	00:02:33	0	0	2,711696	2,298	54,1188	-0,457	78,319	0	1007,66	5,8	8	7,7	1	1	1	1	1	1	1	1	1	0	1	-59,267089	273,276175	256,953497	0
15.01.2021	00:02:34	0	0	2,598709	2,25675	63,1872	-0,453	78,308	0	1007,72	5,8	8	7,7	1	1	1	1	1	1	1	1	1	0	1	-60,324172	273,267598	255,856718	0
15.01.2021	00:02:35	0	0	3,163646	2,247	60,9624	-0,464	78,287	0	1007,62	5,7	8	7,7	1	1	1	1	1	1	1	1	1	0	1	-56,659619	273,221921	259,309923	0
15.01.2021	00:02:36	0	0	3,050658	2,2335	59,4972	-0,455	78,288	0	1007,72	5,7	8	7,7	1	1	1	1	1	1	1	1	1	0	1	-61,87456	273,096866	253,516899	0
15.01.2021	00:02:37	0	0	2,598709	2,23425	56,6604	-0,458	78,276	0	1007,56	5,8	7,8	7,7	1	1	1	1	1	1	1	1	1	0	1	-61,169838	273,240464	254,885491	0
15.01.2021	00:02:38	0	0	4,745468	2,28	55,638	-0,464	78,272	0	1007,74	5,8	8	7,7	1	1	1	1	1	1	1	1	1	0	1	-63,84778	273,289047	252,43239	0
15.01.2021	00:02:39	0	0	4,293519	2,298	52,4988	-0,456	78,268	0	1007,7	5,8	8	7,7	1	1	1	1	1	1	1	1	1	0	1	-64,129669	273,129473	251,412439	0
15.01.2021	00:02:40	0	0	2,711696	2,23125	46,9872	-0,468	78,254	0	1007,62	5,8	8	7,7	1	1	1	1	1	1	1	1	1	0	1	-62,86117	273,227625	253,134757	0
15.01.2021	00:02:41	0	0	5,310405	2,12025	45,8712	-0,464	78,242	0	1007,78	5,8	8	7,7	1	1	1	1	1	1	1	1	1	0	1	-63,213531	273,286186	253,053394	0
15.01.2021	00:02:42	0	0	4,745468	2,0145	43,6752	-0,459	78,249	0	1007,68	5,8	8	7,7	1	1	1	1	1	1	1	1	1	0	1	-60,887949	273,229051	255,114576	0
15.01.2021	00:02:43	0	0	4,180532	1,91025	48,834	-0,467	78,244	0	1007,66	5,8	8	7,7	1	1	1	1	1	1	1	1	1	0	1	-63,213531	273,267598	252,96736	0
15.01.2021	00:02:44	0	0	3,276633	1,83975	57,0348	-0,467	78,232	0	1007,78	5,8	8	7,7	1	1	1	1	1	1	1	1	1	0	1	-62,649753	273,162134	253,043316	0
15.01.2021	00:02:45	0	0	2,485722	1,77975	60,2208	-0,461	78,236	0	1007,62	5,8	8	7,7	1	1	1	1	1	1	1	1	1	0	1	-63,284003	273,270457	252,910117	0
15.01.2021	00:02:46	0	0	3,050658	1,68975	62,406	-0,463	78,239	0	1007,7	5,8	8	7,7	1	1	1	1	1	1	1	1	1	0	1	-62,367865	273,150767	253,272661	0
15.01.2021	00:02:47	0	0	4,971443	1,686	61,6968	-0,469	78,228	0	1007,66	5,8	8	7,7	1	1	1	1	1	1	1	1	1	0	1	-60,465116	273,253312	255,649662	0
15.01.2021	00:02:48	0	0	3,84157	1,725	56,7396	-0,463	78,241	0	1007,78	5,8	8	7,7	1	1	1	1	1	1	1	1	1	0	1	-62,085976	273,279035	254,147847	0
15.01.2021	00:02:49	0	0	3,38962	1,77225	53,3592	-0,476	78,229	0	1007,72	5,8	8	7,7	1	1	1	1	1	1	1	1	1	0	1	-62,720226	273,152188	252,926866	0
15.01.2021	00:02:50	0	0	2,824684	1,8855	56,6532	-0,468	78,243	0	1007,7	5,8	8	7,7	1	1	1	1	1	1	1	1	1	0	1	-62,508809	273,098283	252,889193	0
15.01.2021	00:02:51	0	0	3,728582	2,046	52,1352	-0,477	78,217	0	1007,62	5,8	8	7,7	1	1	1	1	1	1	1	1	1	0	1	-63,284003	273,231904	252,73172	0
15.01.2021	00:02:52	0	0	4,406506	2,11275	49,1976	-0,473	78,226	0	1007,56	5,8	8	7,7	1	1	1	1	1	1	1	1	1	0	1	-59,901339	273,209094	256,008871	0
15.01.2021	00:02:53	0	0	3,276633	2,1075	55,2492	-0,477	78,229	0	1007,76	5,8	8	7,7	1	1	1	1	1	1	1	1	1	0	1	-60,676533	273,102533	254,741103	0
15.01.2021	00:02:54	0	0	2,485722	2,05575	53,7444	-0,477	78,22	0	1007,52	5,8	8	7,7	1	1	1	1	1	1	1	1	1	0	1	-56,377731	273,130891	259,170934	0
15.01.2021	00:02:55	0	0	3,276633	2,07525	54,1008	-0,468	78,222	0	1007,64	5,8	8	7,7	1	1	1	1	1	1	1	1	1	0	1	-57,787174	273,241891	258,274758	0
15.01.2021	00:02:56	0	0	5,0844	2,076	54,468	-0,476	78,226	0	1007,72	5,8	8	7,8	1	1	1	1	1	1	1	1	1	0	1	-61,099366	273,112454	254,364104	0
15.01.2021	00:02:57	0	0	4,745468	2,1195	51,4368	-0,473	78,222	0	1007,76	5,8	8	7,7	1	1	1	1	1	1	1	1	1	0	1	-64,622974	273,106784	250,814301	0
15.01.2021	00:02:58	0	0	2,937671	2,19675	50,6916	-0,471	78,227	0	1007,82	5,8	8	7,7	1	1	1	1	1	1	1	1	1	0	1	-62,790698	273,077046	252,509212	0
15.01.2021	00:02:59	0	0	4,858456	2,18475	46,2204	-0,478	78,224	0	1007,74	5,8	8	7,7	1	1	1	1	1	1	1	1	1	0	1	-59,055673	273,163555	256,643967	0
15.01.2021	00:03:00	0	0	2,824684	2,298	52,8912	-0,48	78,23	0	1007,64	5,8	8	7,7	1	1	1	1	1	1	1	1	1	0	1	-61,87456	273,177775	253,890818	0
15.01.2021	00:03:01	0	0	2,824684	2,298	52,8912	-0,48	78,23	0	1007,64	5,8	8	7,7	1	1	1	1	1	1	1	1	1	0	1	-61,87456	273,177775	253,890818	0
15.01.2021	00:03:02	0	0	2,711696	2,376	70,2288	-0,485	78,248	0	1007,56	5,8	8	7,7	1	1	1	1	1	1	1	1	1	0	1	-64,270613	273,096866	251,120845	0
15.01.2021	00:03:03	0	0	2,711696	2,478	59,0796	-0,478	78,252	0	1007,72	5,8	7,8	7,7	1	1	1	1	1	1	1	1	1	0	1	-62,085976	273,23761	253,956148	0
15.01.2021	00:03:04	0	0	2,824684	2,59425	51,462	-0,484	78,255	0	1007,78	5,8	7,8	7,7	1	1	1	1	1	1	1	1	1	0	1	-65,398168	273,207669	250,505453	0
15.01.2021	00:03:05	0	0	4,632481	2,62725	60,9264	-0,485	78,264	0	1007,68	5,8	7,8	7,7	1	1	1	1	1	1	1	1	1	0	1	-66,45525	273,081292	248,864267	0
15.01.2021	00:03:06	0	0	4,519494	2,511	39,5532	-0,482	78,279	0	1007,72	5,8	8	7,7	1	1	1	1	1	1	1	1	1	0	1	-64,693446	273,12238	250,815886	0
15.01.2021	00:03:07	0	0	4,406506	2,42775	48,5064	-0,479	78,286	0	1007,8	5,8	8	7,7	1	1	1	1	1	1	1	1	1	0	1	-63,495419	273,092618	251,876412	0
15.01.2021	00:03:08	0	0	2,711696	2,397	47,3652	-0,485	78,292	0	1007,74	5,8	7,8	7,7	1	1	1	1	1	1	1	1	1	0	1	-61,733615	273,126635	253,795381	0
15.01.2021	00:03:09	0	0	3,615595	2,45325	43,6752	-0,478	78,305	0	1007,76	5,8	7,8	7,7	1	1	1	1	1	1	1	1	1	0	1	-63,354475	273,247601	252,733876	0
15.01.2021	00:03:10	0	0	4,858456	2,37075	45,1692	-0,483	78,283	0	1007,7	5,8	7,8	7,7	1	1	1	1	1	1	1	1	1	0	1	-63,143058	273,203396	252,740797	0
15.01.2021	00:03:11	0	0	3,163646	2,36775	38,0772	-0,488	78,302	0	1007,68	5,8	7,8	7,7	1	1	1	1	1	1	1	1	1	0	1	-62,367865	273,091201	252,997425	0
15.01.2021	00:03:12	0	0	4,745468	2,421	64,62	-0,493	78,309	0	1007,66	5,8	7,8	7,7	1	1	1	1	1	1	1	1	1	0	1	-63,918252	273,164977	251,787959	0
15.01.2021	00:03:13	0	0	2,937671	2,34375	60,228	-0,486	78,302	0	1007,78	5,8	7,8	7,7	1	1	1	1	1	1	1	1	1	0	1	-63,84778	273,250457	252,253783	0
15.01.2021	00:03:14	0	0	3,276633	2,23125	60,5592	-0,486	78,313	0	1007,76	5,8	8	7,7	1	1	1	1	1	1	1	1	1	0	1	-62,579281	273,118125	252,910392	0
15.01.2021	00:03:15	0	0	3,615595	2,274	55,9332	-0,484	78,313	0	1007,76	5,8	7,8	7,7	1	1	1	1	1	1	1	1	1	0	1	-57,575758	273,115289	257,900813	0
15.01.2021	00:03:16	0	0	3,050658	2,421	54,8172	-0,484	78,312	0	1007,76	5,8	7,8	7,7	1	1	1	1	1	1	1	1	1	0	1	-67,371388	273,266169	248,802888	0
15.01.2021	00:03:17	0	0	4,858456	2,508	42,894	-0,49	78,31	0	1007,66	5,8	7,8	7,7	1	1	1	1	1	1	1	1	1	0	1	-64,904863	273,145086	250,709405	0
15.01.2021	00:03:18	0	0	3,954557	2,4975	73,062	-0,492	78,31	0	1007,74	5,8	7,9	7,7	1	1	1	1	1	1	1	1	1	0	1	-65,116279	273,069973	250,150963	0
15.01.2021	00:03:19	0	0	4,067544	2,44725	54,4752	-0,491	78,327	0	1007,74	5,8	7,9	7,7	1	1	1	1	1	1	1	1	1	0	1	-60,2537	273,210519	255,6631	0
15.01.2021	00:03:20	0	0	2,598709	2,3955	69,84	-0,494	78,313	0	1007,7	5,8	8	7,7	1	1	1	1	1	1	1	1	1	0	1	-66,737139	273,186311	249,06771	0
15.01.2021	00:03:21	0	0	3,615595	2,4165	63,486	-0,491	78,328	0	1007,8	5,7	7,9	7,7	1	1	1	1	1	1	1	1	1	0	1	-59,408034	273,246173	256,673711	0
15.01.2021	00:03:22	0	0	4,858427	2,36325	66,5568	-0,491	78,34	0	1007,84	5,8	7,8	7,8	1	1	1	1	1	1	1	1	1	0	1	-65,186751	273,130891	250,361914	0
15.01.2021	00:03:23	0	0	4,632481	2,313	67,284	-0,498	78,342	0	1007,5	5,9	8	7,7	1	1	1	1	1	1	1	1	1	0	1	-62,790698	273,223347	253,18544	0
15.01.2021	00:03:24	0	0	4,519494	2,18625	61,2792	-0,497	78,357	0	1007,68	5,8	7,8	7,7	1	1	1	1	1	1	1	1	1	0	1	-63,424947	273,213369	252,505035	0
15.01.2021	00:03:25	0	0	4,406506	2,094	59,0976	-0,495	78,362	0	1007,74	5,8	7,8	7,7	1	1	1	1	1	1	1	1	1	0	1	-65,46864	273,125216	250,053801	0
15.01.2021	00:03:26	0	0	2,937671	2,0115	60,5628	-0,498	78,355	0	1007,74	5,9	7,8	7,7	1	1	1	1	1	1	1	1	1	0	1	-59,971811	273,074217	255,31503	0
15.01.2021	00:03:27	0	0	2,824684	1,98225	52,8876	-0,492	78,373	0	1007,7	5,8	7,8	7,7	1	1	1	1	1	1	1	1	1	0	1	-60,958421	273,078461	254,348024	0
15.01.2021	00:03:28	0	0	3,163646	2,1075	58,4892	-0,498	78,377	0	1007,7	5,8	8	7,7	1	1	1	1	1	1	1	1	1	0	1	-62,367865	273,16782	253,35149	0
15.01.2021	00:03:29	0	0	2,598709	2,4075	69,2064	-0,499	78,373	0	1007,76	5,8	7,9	7,7	1	1	1	1	1	1	1	1	1	0	1	-61,733615	273,247601	254,354735	0
15.01.2021	00:03:30	0	0	2,485722	2,64225	65,0988	-0,495	78,383	0	1007,58	5,8	7,9	7,7	1	1	1	1	1	1	1	1	1	0	1	-60,2537	273,084123	255,078893	0
15.01.2021	00:03:31	0	0	3,163627	2,87775	58,482	-0,502	78,397	0	1007,66	5,8	7,9	7,8	1	1	1	1	1	1	1	1	1	0	1	-57,857646	273,112454	257,605823	0
15.01.2021	00:03:32	0	0	2,598709	2,92275	63,5148	-0,499	78,416	0	1007,78	5,8	7,9	7,7	1	1	1	1	1	1	1	1	1	0	1	-61,733615	273,05442	253,461808	0
15.01.2021	00:03:33	0	0	2,711696	2,9565	63,1764	-0,498	78,425	0	1007,62	5,8	8	7,7	1	1	1	1	1	1	1	1	1	0	1	-60,042283	273,0997	255,362263	0
15.01.2021	00:03:34	0	0	2,711696	3,01575	59,4792	-0,509	78,437	0	1007,8	5,8	7,9	7,7	1	1	1	1	1	1	1	1	1	0	1	-62,367865	273,170664	253,364637	0
15.01.2021	00:03:35	0	0	4,971443	2,82375	59,1012	-0,5	78,447	0	1007,68	5,8	7,9	7,7	1	1	1	1	1	1	1	1	1	0	1	-63,002114	273,240464	253,053215	0
15.01.2021	00:03:36	0	0	3,615595	2,5935	69,4656	-0,502	78,457	0	1007,68	5,8	7,9	7,7	1	1	1	1	1	1	1	1	1	0	1	-66,45525	273,193428	249,382508	0
15.01.2021	00:03:37	0	0	2,485722	2,4885	84,8124	-0,5	78,46	0	1007,6	5,9	7,9	7,7	1	1	1	1	1	1	1	1	1	0	1	-63,354475	273,223347	252,621663	0
15.01.2021	00:03:38	0	0	4,971413	2,39475	82,9908	-0,506	78,475	0	1007,6	5,8	7,8	7,8	1	1	1	1	1	1	1	1	1	0	1	-63,636364	273,229051	252,366161	0
15.01.2021	00:03:39	0	0	4,293493	2,316	66,9132	-0,497	78,457	0	1007,6	5,7	7,9	7,8	1	1	1	1	1	1	1	1	1	0	1	-66,102889	273,179197	249,669066	0
15.01.2021	00:03:40	0	0	3,3896	2,3055	70,614	-0,502	78,468	0	1007,84	5,8	7,9	7,8	1	1	1	1	1	1	1	1	1	0	1	-66,878083	273,227625	249,117844	0
15.01.2021	00:03:41	0	0	2,824667	2,21325	63,864	-0,503	78,463	0	1007,84	5,8	7,9	7,8	1	1	1	1	1	1	1	1	1	0	1	-61,310782	273,13231	254,244441	0
15.01.2021	00:03:42	0	0	2,598709	2,088	65,4696	-0,508	78,464	0	1007,4	5,8	7,9	7,7	1	1	1	1	1	1	1	1	1	0	1	-61,733615	273,211944	254,189776	0
15.01.2021	00:03:43	0	0	2,711696	1,905	62,8128	-0,507	78,451	0	1007,9	5,9	7,9	7,7	1	1	1	1	1	1	1	1	1	0	1	-60,958421	273,227625	255,037506	0
15.01.2021	00:03:44	0	0	4,293493	1,84275	68,4072	-0,506	78,456	0	1007,66	5,9	7,9	7,8	1	1	1	1	1	1	1	1	1	0	1	-63,213531	273,163555	252,486109	0
15.01.2021	00:03:45	0	0	3,615595	1,83525	58,4964	-0,504	78,444	0	1007,64	5,8	7,9	7,7	1	1	1	1	1	1	1	1	1	0	1	-63,284003	273,224773	252,698731	0
15.01.2021	00:03:46	0	0	2,937653	1,79475	62,802	-0,503	78,447	0	1007,78	5,7	7,9	7,8	1	1	1	1	1	1	1	1	1	0	1	-61,804087	273,062902	253,430501	0
15.01.2021	00:03:47	0	0	4,293519	1,83675	51,7608	-0,505	78,46	0	1007,88	5,7	7,9	7,7	1	1	1	1	1	1	1	1	1	0	1	-58,421424	273,077046	256,878486	0
15.01.2021	00:03:48	0	0	2,598693	1,8675	59,508	-0,506	78,45	0	1007,72	5,8	7,9	7,8	1	1	1	1	1	1	1	1	1	0	1	-61,945032	273,036056	253,165606	0
15.01.2021	00:03:49	0	0	3,3896	1,8015	52,1244	-0,507	78,466	0	1007,76	5,7	7,9	7,8	1	1	1	1	1	1	1	1	1	0	1	-59,548978	273,069973	255,718263	0
15.01.2021	00:03:50	0	0	4,519467	1,7475	54,1152	-0,512	78,469	0	1007,76	5,8	7,9	7,8	1	1	1	1	1	1	1	1	1	0	1	-66,525722	273,17493	249,226503	0
15.01.2021	00:03:51	0	0	3,163627	1,71225	61,3152	-0,511	78,479	0	1007,7	5,7	7,9	7,8	1	1	1	1	1	1	1	1	1	0	1	-60,394644	273,230477	255,614479	0
15.01.2021	00:03:52	0	0	3,163627	1,7685	59,868	-0,511	78,471	0	1007,7	5,8	7,9	7,8	1	1	1	1	1	1	1	1	1	0	1	-63,777308	273,152188	251,869784	0
15.01.2021	00:03:53	0	0	4,74544	1,854	59,1084	-0,505	78,472	0	1007,68	5,8	7,9	7,8	1	1	1	1	1	1	1	1	1	0	1	-63,354475	273,028997	251,723579	0
15.01.2021	00:03:54	0	0	2,824684	1,83225	58,1112	-0,512	78,494	0	1007,68	5,7	7,9	7,7	1	1	1	1	1	1	1	1	1	0	1	-64,975335	273,201971	250,901934	0
15.01.2021	00:03:55	0	0	3,502587	1,899	64,638	-0,51	78,487	0	1007,78	5,8	7,9	7,8	1	1	1	1	1	1	1	1	1	0	1	-62,085976	273,147927	253,54142	0
15.01.2021	00:03:56	0	0	4,971413	1,88475	63,8784	-0,508	78,503	0	1007,7	5,8	7,9	7,8	1	1	1	1	1	1	1	1	1	0	1	-62,86117	273,145086	252,753098	0
15.01.2021	00:03:57	0	0	2,824684	1,86375	54,8028	-0,513	78,51	0	1007,76	5,8	7,9	7,7	1	1	1	1	1	1	1	1	1	0	1	-62,508809	273,201971	253,368459	0
15.01.2021	00:03:58	0	0	4,06752	1,95075	60,9264	-0,51	78,519	0	1007,66	5,8	7,9	7,8	1	1	1	1	1	1	1	1	1	0	1	-59,689922	273,183465	256,101767	0
15.01.2021	00:03:59	0	0	3,615595	1,92375	46,5948	-0,514	78,517	0	1007,68	5,8	7,9	7,7	1	1	1	1	1	1	1	1	1	0	1	-65,116279	273,136568	250,45862	0
15.01.2021	00:04:00	0	0	4,971413	1,8885	37,3284	-0,519	78,523	0	1007,62	5,8	7,9	7,8	1	1	1	1	1	1	1	1	1	0	1	-61,099366	273,153608	254,554292	0
15.01.2021	00:04:01	0	0	4,971413	1,8885	37,3284	-0,519	78,523	0	1007,62	5,8	7,9	7,8	1	1	1	1	1	1	1	1	1	0	1	-61,099366	273,153608	254,554292	0
15.01.2021	00:04:02	0	0	2,71168	1,7895	40,6368	-0,514	78,545	0	1007,68	5,8	7,9	7,8	1	1	1	1	1	1	1	1	1	0	1	-62,085976	273,152188	253,561115	0
15.01.2021	00:04:03	0	0	4,971413	1,67775	69,4764	-0,518	78,558	0	1007,7	5,8	7,9	7,8	1	1	1	1	1	1	1	1	1	0	1	-63,565891	273,196275	252,285034	0
15.01.2021	00:04:04	0	0	5,197449	1,632	69,4656	-0,515	78,56	0	1007,76	5,8	7,9	7,6	1	1	1	1	1	1	1	1	1	0	1	-63,988724	273,150767	251,651801	0
15.01.2021	00:04:05	0	0	4,519494	1,785	75,6324	-0,512	78,563	0	1007,68	5,8	7,9	7,7	1	1	1	1	1	1	1	1	1	0	1	-63,636364	273,09545	251,748552	0
15.01.2021	00:04:06	0	0	4,971413	1,896	66,2328	-0,516	78,575	0	1007,48	5,8	7,9	7,8	1	1	1	1	1	1	1	1	1	0	1	-60,2537	273,16782	255,465655	0
15.01.2021	00:04:07	0	0	2,485707	1,99275	66,9384	-0,516	78,563	0	1007,66	5,8	7,9	7,8	1	1	1	1	1	1	1	1	1	0	1	-62,015504	273,021941	253,029981	0
15.01.2021	00:04:08	0	0	4,632453	2,00475	59,508	-0,514	78,558	0	1007,58	5,8	7,9	7,8	1	1	1	1	1	1	1	1	1	0	1	-61,522199	273,106784	253,915077	0
15.01.2021	00:04:09	0	0	4,06752	2,0415	63,1764	-0,511	78,577	0	1007,68	5,8	7,9	7,8	1	1	1	1	1	1	1	1	1	0	1	-59,689922	273,194851	256,154419	0
15.01.2021	00:04:10	0	0	3,84157	1,995	69,1704	-0,512	78,576	0	1007,64	5,8	7,9	7,7	1	1	1	1	1	1	1	1	1	0	1	-59,689922	273,163555	256,009717	0
15.01.2021	00:04:11	0	0	4,180532	1,82175	69,1524	-0,517	78,597	0	1007,78	5,8	7,9	7,7	1	1	1	1	1	1	1	1	1	0	1	-62,085976	273,08837	253,266233	0
15.01.2021	00:04:12	0	0	4,180507	1,7295	77,2056	-0,522	78,592	0	1007,72	5,8	7,9	7,8	1	1	1	1	1	1	1	1	1	0	1	-63,002114	273,200547	252,868568	0
15.01.2021	00:04:13	0	0	3,050658	1,84575	72,306	-0,521	78,58	0	1007,76	5,8	7,9	7,7	1	1	1	1	1	1	1	1	1	0	1	-64,83439	273,016298	250,18505	0
15.01.2021	00:04:14	0	0	3,163646	1,98225	70,6212	-0,521	78,581	0	1007,66	5,8	7,9	7,7	1	1	1	1	1	1	1	1	1	0	1	-62,579281	273,085538	252,75985	0
15.01.2021	00:04:15	0	0	3,050658	2,055	72,6804	-0,522	78,571	0	1007,6	5,8	7,9	7,7	1	1	1	1	1	1	1	1	1	0	1	-63,636364	273,182042	252,148747	0
15.01.2021	00:04:16	0	0	2,711696	2,031	80,91	-0,522	78,564	0	1007,7	5,8	7,9	7,7	1	1	1	1	1	1	1	1	1	0	1	-62,579281	273,184888	253,218988	0
15.01.2021	00:04:17	0	0	3,05064	1,989	75,2472	-0,522	78,563	0	1007,66	5,8	7,9	7,8	1	1	1	1	1	1	1	1	1	0	1	-59,126145	273,128054	256,409407	0
15.01.2021	00:04:18	0	0	3,276613	2,052	79,0272	-0,515	78,556	0	1007,78	5,8	7,9	7,8	1	1	1	1	1	1	1	1	1	0	1	-64,411557	273,18062	251,366975	0
15.01.2021	00:04:19	0	0	3,502608	2,07075	82,9872	-0,524	78,532	0	1007,78	5,8	7,9	7,7	1	1	1	1	1	1	1	1	1	0	1	-60,112755	273,062902	255,121833	0
15.01.2021	00:04:20	0	0	3,276613	2,00175	69,8652	-0,524	78,53	0	1007,72	5,8	7,9	7,8	1	1	1	1	1	1	1	1	1	0	1	-59,337562	273,196275	256,513364	0
15.01.2021	00:04:21	0	0	4,632481	1,92075	71,2512	-0,522	78,522	0	1007,74	5,8	7,9	7,7	1	1	1	1	1	1	1	1	1	0	1	-59,478506	273,040292	255,651689	0
15.01.2021	00:04:22	0	0	2,937671	1,98375	76,374	-0,528	78,513	0	1007,7	5,8	7,9	7,7	1	1	1	1	1	1	1	1	1	0	1	-59,61945	273,160713	256,067049	0
15.01.2021	00:04:23	0	0	3,502608	2,10225	75,2184	-0,522	78,502	0	1007,7	5,8	7,9	7,7	1	1	1	1	1	1	1	1	1	0	1	-60,394644	272,996561	254,533712	0
15.01.2021	00:04:24	0	0	2,485722	2,14275	69,246	-0,523	78,509	0	1007,74	5,8	7,9	7,7	1	1	1	1	1	1	1	1	1	0	1	-59,901339	273,089786	255,45741	0
15.01.2021	00:04:25	0	0	2,711696	2,2455	73,4328	-0,523	78,492	0	1007,68	5,8	7,9	7,7	1	1	1	1	1	1	1	1	1	0	1	-60,817477	273,169242	254,908451	0
15.01.2021	00:04:26	0	0	4,293493	2,27175	77,1876	-0,531	78,473	0	1007,7	5,8	7,9	7,8	1	1	1	1	1	1	1	1	1	0	1	-60,887949	273,146506	254,732882	0
15.01.2021	00:04:27	0	0	2,824684	2,22	73,7712	-0,525	78,474	0	1007,62	5,8	7,9	7,7	1	1	1	1	1	1	1	1	1	0	1	-59,337562	273,086954	256,008108	0
15.01.2021	00:04:28	0	0	4,971443	2,151	70,614	-0,525	78,46	0	1007,56	5,8	7,9	7,7	1	1	1	1	1	1	1	1	1	0	1	-57,857646	273,177775	257,907732	0
15.01.2021	00:04:29	0	0	2,711696	2,1225	70,2252	-0,526	78,446	0	1007,66	5,8	7,9	7,7	1	1	1	1	1	1	1	1	1	0	1	-69,69697	273,040292	245,433225	0
15.01.2021	00:04:30	0	0	3,615595	2,12475	71,6148	-0,522	78,434	0	1007,66	5,8	8	7,7	1	1	1	1	1	1	1	1	1	0	1	-62,297393	273,061488	252,930667	0
15.01.2021	00:04:31	0	0	4,067544	2,1735	75,9924	-0,526	78,413	0	1007,76	5,8	7,9	7,7	1	1	1	1	1	1	1	1	1	0	1	-57,928118	273,173508	257,817532	0
15.01.2021	00:04:32	0	0	4,519494	2,41725	81,9612	-0,529	78,396	0	1007,56	5,8	7,9	7,7	1	1	1	1	1	1	1	1	1	0	1	-63,072586	273,146506	252,548245	0
15.01.2021	00:04:33	0	0	3,841547	2,469	74,9196	-0,534	78,395	0	1007,72	5,8	7,9	7,8	1	1	1	1	1	1	1	1	1	0	1	-59,971811	273,125216	255,550629	0
15.01.2021	00:04:34	0	0	4,519494	2,3565	75,6324	-0,529	78,381	0	1007,6	5,8	8	7,7	1	1	1	1	1	1	1	1	1	0	1	-61,733615	273,163555	253,966024	0
15.01.2021	00:04:35	0	0	2,937671	2,211	70,8516	-0,536	78,358	0	1007,7	5,8	7,9	7,7	1	1	1	1	1	1	1	1	1	0	1	-60,817477	273,139407	254,770543	0
15.01.2021	00:04:36	0	0	4,293519	2,12025	68,04	-0,53	78,381	0	1007,74	5,8	7,9	7,7	1	1	1	1	1	1	1	1	1	0	1	-61,099366	273,159292	254,580564	0
15.01.2021	00:04:37	0	0	4,406506	2,1015	69,4728	-0,534	78,39	0	1007,68	5,8	7,9	7,7	1	1	1	1	1	1	1	1	1	0	1	-62,508809	273,173508	253,236841	0
15.01.2021	00:04:38	0	0	4,632481	2,034	71,6184	-0,534	78,392	0	1007,5	5,8	8	7,7	1	1	1	1	1	1	1	1	1	0	1	-61,24031	273,155029	254,419915	0
15.01.2021	00:04:39	0	0	2,598709	2,088	79,434	-0,533	78,421	0	1007,76	5,8	7,9	7,7	1	1	1	1	1	1	1	1	1	0	1	-64,48203	273,05018	250,693819	0
15.01.2021	00:04:40	0	0	4,971443	2,1795	63,8748	-0,535	78,436	0	1007,74	5,8	7,9	7,7	1	1	1	1	1	1	1	1	1	0	1	-62,22692	272,993743	252,688433	0
15.01.2021	00:04:41	0	0	4,519494	2,22225	61,6752	-0,538	78,446	0	1007,74	5,8	7,8	7,7	1	1	1	1	1	1	1	1	1	0	1	-66,525722	273,02053	248,51325	0
15.01.2021	00:04:42	0	0	5,649367	2,253	59,49	-0,537	78,469	0	1007,72	5,8	7,8	7,7	1	1	1	1	1	1	1	1	1	0	1	-60,324172	273,12238	255,18516	0
15.01.2021	00:04:43	0	0	4,180532	2,29575	70,8588	-0,532	78,502	0	1007,78	5,8	7,9	7,7	1	1	1	1	1	1	1	1	1	0	1	-63,424947	273,044529	251,72481	0
15.01.2021	00:04:44	0	0	3,954557	2,3505	69,1812	-0,544	78,519	0	1007,68	5,8	7,9	7,7	1	1	1	1	1	1	1	1	1	0	1	-61,945032	273,007837	253,035358	0
15.01.2021	00:04:45	0	0	3,276633	2,2965	62,4456	-0,542	78,552	0	1007,62	5,8	7,9	7,7	1	1	1	1	1	1	1	1	1	0	1	-60,324172	273,105367	255,106556	0
15.01.2021	00:04:46	0	0	2,824684	2,42475	74,9448	-0,537	78,563	0	1007,66	5,8	7,8	7,7	1	1	1	1	1	1	1	1	1	0	1	-61,804087	273,014888	253,208843	0
15.01.2021	00:04:47	0	0	3,502608	2,421	63,8856	-0,537	78,585	0	1007,64	5,8	7,9	7,7	1	1	1	1	1	1	1	1	1	0	1	-59,61945	273,16782	256,099905	0
15.01.2021	00:04:48	0	0	2,824684	2,2455	74,5488	-0,544	78,605	0	1007,58	5,8	7,8	7,7	1	1	1	1	1	1	1	1	1	0	1	-64,341085	273,140827	251,253496	0
15.01.2021	00:04:49	0	0	2,711696	2,265	70,632	-0,537	78,64	0	1007,74	5,6	7,9	7,7	1	1	1	1	1	1	1	1	1	0	1	-60,2537	273,017709	254,772251	0
15.01.2021	00:04:50	0	0	2,485722	2,3715	73,4292	-0,541	78,647	0	1007,7	5,8	8	7,7	1	1	1	1	1	1	1	1	1	0	1	-60,958421	273,021941	254,087063	0
15.01.2021	00:04:51	0	0	4,067544	2,52075	71,208	-0,544	78,678	0	1007,8	5,8	7,8	7,7	1	1	1	1	1	1	1	1	1	0	1	-63,424947	273,040292	251,705248	0
15.01.2021	00:04:52	0	0	4,632481	2,5695	66,9204	-0,542	78,742	0	1007,68	5,8	7,9	7,7	1	1	1	1	1	1	1	1	1	0	1	-60,324172	273,109619	255,126199	0
15.01.2021	00:04:53	0	0	3,728582	2,595	78,2928	-0,543	78,738	0	1007,76	5,8	7,9	7,7	1	1	1	1	1	1	1	1	1	0	1	-61,592671	273,170664	254,13983	0
15.01.2021	00:04:54	0	0	2,711696	2,85825	60,642	-0,542	78,754	0	1007,74	5,8	7,8	7,7	1	1	1	1	1	1	1	1	1	0	1	-62,085976	273,176352	253,672825	0
15.01.2021	00:04:55	0	0	3,954557	3,0585	57,0384	-0,535	78,794	0	1007,78	5,8	8	7,7	1	1	1	1	1	1	1	1	1	0	1	-63,213531	273,115289	252,263039	0
15.01.2021	00:04:56	0	0	2,937671	2,949	72	-0,539	78,811	0	1007,9	5,8	8	7,7	1	1	1	1	1	1	1	1	1	0	1	-62,86117	273,009247	252,125727	0
15.01.2021	00:04:57	0	0	5,310405	2,8455	76,0032	-0,546	78,842	0	1007,64	5,8	8	7,7	1	1	1	1	1	1	1	1	1	0	1	-62,22692	273,149347	253,40704	0
15.01.2021	00:04:58	0	0	3,728582	2,92275	80,172	-0,543	78,876	0	1007,7	5,8	8	7,7	1	1	1	1	1	1	1	1	1	0	1	-61,663143	273,145086	253,951125	0
15.01.2021	00:04:59	0	0	4,293519	3,0405	65,4588	-0,542	78,869	0	1007,7	5,8	8	7,7	1	1	1	1	1	1	1	1	1	0	1	-63,143058	273,002198	251,81131	0
15.01.2021	00:05:00	0	0	4,971443	2,78775	62,4384	-0,544	78,891	0	1007,76	5,8	7,8	7,7	1	1	1	1	1	1	1	1	1	0	1	-57,998591	273,002198	256,955778	0
15.01.2021	00:05:01	0	0	3,050658	2,87775	71,5968	-0,542	78,897	0	1007,72	5,8	8	7,7	1	1	1	1	1	1	1	1	1	0	1	-59,689922	273,172086	256,049153	0
15.01.2021	00:05:02	0	0	3,050658	2,87775	71,5968	-0,542	78,897	0	1007,72	5,8	8	7,7	1	1	1	1	1	1	1	1	1	0	1	-59,689922	273,172086	256,049153	0
15.01.2021	00:05:03	0	0	2,937671	2,793	55,9296	-0,54	78,897	0	1007,64	5,8	8	7,7	1	1	1	1	1	1	1	1	1	0	1	-61,804087	273,064316	253,43703	0
15.01.2021	00:05:04	0	0	2,711696	2,8995	67,6656	-0,538	78,91	0	1007,76	5,8	7,8	7,7	1	1	1	1	1	1	1	1	1	0	1	-58,562368	273,170664	257,170134	0
15.01.2021	00:05:05	0	0	4,971443	2,8875	57,4272	-0,542	78,916	0	1007,66	5,8	8	7,7	1	1	1	1	1	1	1	1	1	0	1	-63,706836	273,159292	251,973094	0
15.01.2021	00:05:06	0	0	4,745468	2,8965	73,7748	-0,548	78,911	0	1007,72	5,8	7,8	7,7	1	1	1	1	1	1	1	1	1	0	1	-61,310782	273,060074	253,910749	0
15.01.2021	00:05:07	0	0	3,163646	2,87325	85,194	-0,542	78,928	0	1007,74	5,8	7,8	7,7	1	1	1	1	1	1	1	1	1	0	1	-61,169838	273,15645	254,496955	0
15.01.2021	00:05:08	0	0	4,971443	2,9205	70,596	-0,542	78,949	0	1007,72	5,8	7,8	7,7	1	1	1	1	1	1	1	1	1	0	1	-62,931642	273,17493	252,820583	0
15.01.2021	00:05:09	0	0	2,598709	3,0555	69,4692	-0,552	78,933	0	1007,84	5,8	7,8	7,7	1	1	1	1	1	1	1	1	1	0	1	-59,689922	273,05018	255,485926	0
15.01.2021	00:05:10	0	0	3,163646	3,063	75,9996	-0,549	78,939	0	1007,8	5,8	7,8	7,7	1	1	1	1	1	1	1	1	1	0	1	-64,48203	273,159292	251,1979	0
15.01.2021	00:05:11	0	0	3,38962	2,871	80,8776	-0,544	78,92	0	1007,78	5,8	7,8	7,7	1	1	1	1	1	1	1	1	1	0	1	-58,773784	273,000789	256,17408	0
15.01.2021	00:05:12	0	0	4,632481	2,7795	66,9276	-0,547	78,938	0	1007,76	5,8	7,8	7,7	1	1	1	1	1	1	1	1	1	0	1	-64,622974	273,002198	250,331395	0
15.01.2021	00:05:13	0	0	4,067544	2,6835	79,0308	-0,545	78,919	0	1007,68	5,6	7,8	7,7	1	1	1	1	1	1	1	1	1	0	1	-63,706836	273,16782	252,012519	0
15.01.2021	00:05:14	0	0	5,084431	2,9325	79,4088	-0,544	78,94	0	1007,7	5,8	7,8	7,7	1	1	1	1	1	1	1	1	1	0	1	-60,606061	273,13373	254,955721	0
15.01.2021	00:05:15	0	0	3,615595	3,17775	87,3648	-0,544	78,936	0	1007,5	5,8	7,8	7,7	1	1	1	1	1	1	1	1	1	0	1	-64,622974	272,996561	250,305382	0
15.01.2021	00:05:16	0	0	3,954557	3,3615	78,6996	-0,544	78,945	0	1007,5	5,8	7,8	7,7	1	1	1	1	1	1	1	1	1	0	1	-64,059197	273,012067	250,940716	0
15.01.2021	00:05:17	0	0	4,858456	3,495	76,356	-0,542	78,948	0	1007,68	5,6	7,8	7,7	1	1	1	1	1	1	1	1	1	0	1	-62,015504	273,092618	253,356327	0
15.01.2021	00:05:18	0	0	3,050658	3,17625	60,9372	-0,549	78,958	0	1007,56	5,8	8	7,7	1	1	1	1	1	1	1	1	1	0	1	-60,676533	273,164977	255,029678	0
15.01.2021	00:05:19	0	0	3,728582	2,8635	79,0308	-0,551	78,956	0	1007,66	5,8	7,8	7,7	1	1	1	1	1	1	1	1	1	0	1	-62,790698	273,149347	252,843263	0
15.01.2021	00:05:20	0	0	5,197418	2,62275	74,556	-0,552	78,952	0	1007,76	5,6	7,8	7,7	1	1	1	1	1	1	1	1	1	0	1	-63,706836	273,082707	251,619219	0
15.01.2021	00:05:21	0	0	2,14676	2,53725	89,7048	-0,543	78,951	0	1007,6	5,6	7,8	7,7	1	1	1	1	1	1	1	1	1	0	1	-62,297393	273,155029	253,362832	0
15.01.2021	00:05:22	0	0	3,276633	2,47125	76,3812	-0,547	78,955	0	1007,64	5,8	7,8	7,7	1	1	1	1	1	1	1	1	1	0	1	-66,525722	273,145086	249,088546	0
15.01.2021	00:05:23	0	0	5,310405	2,34675	84,8016	-0,545	78,964	0	1007,72	5,8	7,8	7,7	1	1	1	1	1	1	1	1	1	0	1	-62,156448	273,03888	252,967227	0
15.01.2021	00:05:24	0	0	4,632481	2,139	71,9784	-0,552	78,954	0	1007,72	5,8	7,8	7,7	1	1	1	1	1	1	1	1	1	0	1	-61,87456	272,982476	252,988806	0
15.01.2021	00:05:25	0	0	4,858456	1,9935	71,6004	-0,547	78,95	0	1007,56	5,6	7,8	7,7	1	1	1	1	1	1	1	1	1	0	1	-60,324172	273,075631	254,969203	0
15.01.2021	00:05:26	0	0	4,180532	1,92225	75,5892	-0,549	78,952	0	1007,68	5,8	7,8	7,7	1	1	1	1	1	1	1	1	1	0	1	-56,236786	273,152188	259,410305	0
15.01.2021	00:05:27	0	0	2,485722	1,9965	80,1468	-0,547	78,943	0	1007,68	5,6	7,8	7,7	1	1	1	1	1	1	1	1	1	0	1	-61,028894	272,978252	253,814986	0
15.01.2021	00:05:28	0	0	3,38962	2,184	72,6588	-0,546	78,932	0	1007,74	5,6	7,8	7,7	1	1	1	1	1	1	1	1	1	0	1	-64,48203	273,096866	250,909429	0
15.01.2021	00:05:29	0	0	3,84157	2,2305	69,1632	-0,548	78,923	0	1007,74	5,6	7,8	7,7	1	1	1	1	1	1	1	1	1	0	1	-60,2537	273,013478	254,752721	0
15.01.2021	00:05:30	0	0	4,406506	2,187	61,2864	-0,549	78,901	0	1007,82	5,6	7,8	7,7	1	1	1	1	1	1	1	1	1	0	1	-60,394644	272,982476	254,468721	0
15.01.2021	00:05:31	0	0	4,293519	2,06325	63,8784	-0,551	78,9	0	1007,42	5,6	7,8	7,7	1	1	1	1	1	1	1	1	1	0	1	-65,750529	273,106784	249,686747	0
15.01.2021	00:05:32	0	0	3,163646	1,8885	62,4348	-0,551	78,901	0	1007,94	5,6	7,8	7,7	1	1	1	1	1	1	1	1	1	0	1	-65,045807	273,105367	250,384921	0
15.01.2021	00:05:33	0	0	2,598709	1,7625	76,3668	-0,555	78,903	0	1007,72	5,8	7,8	7,7	1	1	1	1	1	1	1	1	1	0	1	-60,887949	273,15645	254,778843	0
15.01.2021	00:05:34	0	0	4,632481	1,72575	56,6748	-0,557	78,879	0	1007,42	5,6	7,8	7,7	1	1	1	1	1	1	1	1	1	0	1	-66,666667	273,089786	248,692082	0
15.01.2021	00:05:35	0	0	2,598709	1,668	39,8772	-0,552	78,886	0	1007,6	5,6	7,8	7,7	1	1	1	1	1	1	1	1	1	0	1	-60,535588	273,0997	254,868957	0
15.01.2021	00:05:36	0	0	2,711696	1,51725	48,1176	-0,556	78,873	0	1007,68	5,6	7,8	7,7	1	1	1	1	1	1	1	1	1	0	1	-61,381254	273,149347	254,252706	0
15.01.2021	00:05:37	0	0	3,38962	1,5195	29,1348	-0,557	78,878	0	1007,8	5,6	7,8	7,7	1	1	1	1	1	1	1	1	1	0	1	-62,649753	272,972622	252,168153	0
15.01.2021	00:05:38	0	0	3,728582	1,5915	52,1352	-0,549	78,884	0	1007,58	5,6	7,8	7,7	1	1	1	1	1	1	1	1	1	0	1	-61,733615	273,12238	253,775717	0
15.01.2021	00:05:39	0	0	3,728605	1,56525	64,62	-0,553	78,882	0	1007,76	5,6	7,8	7,6	1	1	1	1	1	1	1	1	1	0	1	-58,773784	273,012067	256,226128	0
15.01.2021	00:05:40	0	0	4,632481	1,49475	44,802	-0,557	78,881	0	1007,72	5,6	7,8	7,7	1	1	1	1	1	1	1	1	1	0	1	-62,438337	273,05866	252,776666	0
15.01.2021	00:05:41	0	0	3,615595	1,485	54,6012	-0,551	78,865	0	1007,7	5,6	7,8	7,7	1	1	1	1	1	1	1	1	1	0	1	-60,324172	272,978252	254,519708	0
15.01.2021	00:05:42	0	0	4,406506	1,45575	60,552	-0,558	78,847	0	1007,7	5,8	7,8	7,7	1	1	1	1	1	1	1	1	1	0	1	-61,592671	273,030409	253,491899	0
15.01.2021	00:05:43	0	0	4,632509	1,43925	52,1496	-0,553	78,856	0	1007,6	5,6	7,8	7,6	1	1	1	1	1	1	1	1	1	0	1	-61,733615	273,014888	253,279315	0
15.01.2021	00:05:44	0	0	4,406506	1,46475	71,244	-0,555	78,846	0	1007,84	5,6	7,8	7,7	1	1	1	1	1	1	1	1	1	0	1	-63,284003	273,145086	252,330265	0
15.01.2021	00:05:45	0	0	2,824684	1,50825	70,6464	-0,554	78,834	0	1007,56	5,6	7,8	7,7	1	1	1	1	1	1	1	1	1	0	1	-62,297393	272,965587	252,488061	0
15.01.2021	00:05:46	0	0	2,598709	1,617	62,4168	-0,554	78,835	0	1007,56	5,6	7,8	7,7	1	1	1	1	1	1	1	1	1	0	1	-64,059197	273,086954	251,286473	0
15.01.2021	00:05:47	0	0	3,276633	1,66725	66,528	-0,555	78,836	0	1007,7	5,6	7,8	7,7	1	1	1	1	1	1	1	1	1	0	1	-63,424947	272,978252	251,418933	0
15.01.2021	00:05:48	0	0	4,293545	1,7355	67,2948	-0,558	78,813	0	1007,6	5,6	7,8	7,6	1	1	1	1	1	1	1	1	1	0	1	-63,777308	273,120961	251,72547	0
15.01.2021	00:05:49	0	0	4,406506	1,79325	70,8768	-0,553	78,818	0	1007,7	5,6	7,8	7,7	1	1	1	1	1	1	1	1	1	0	1	-63,495419	273,102533	251,922217	0
15.01.2021	00:05:50	0	0	4,745468	1,785	69,4764	-0,553	78,822	0	1007,72	5,6	7,8	7,7	1	1	1	1	1	1	1	1	1	0	1	-60,112755	273,143666	255,49495	0
15.01.2021	00:05:51	0	0	4,180532	1,7745	77,5584	-0,558	78,808	0	1007,64	5,6	7,8	7,7	1	1	1	1	1	1	1	1	1	0	1	-63,777308	273,10395	251,646874	0
15.01.2021	00:05:52	0	0	2,824701	1,81125	73,0548	-0,564	78,804	0	1007,78	5,6	7,8	7,6	1	1	1	1	1	1	1	1	1	0	1	-61,804087	273,120961	253,698691	0
15.01.2021	00:05:53	0	0	3,841593	1,94775	73,044	-0,557	78,82	0	1007,78	5,6	7,8	7,6	1	1	1	1	1	1	1	1	1	0	1	-60,817477	273,128054	254,718075	0
15.01.2021	00:05:54	0	0	4,745497	2,01525	62,4168	-0,56	78,813	0	1007,74	5,6	7,8	7,6	1	1	1	1	1	1	1	1	1	0	1	-60,394644	273,06573	254,853004	0
15.01.2021	00:05:55	0	0	5,084461	1,96875	56,6568	-0,565	78,812	0	1007,68	5,6	7,8	7,6	1	1	1	1	1	1	1	1	1	0	1	-62,790698	272,97403	252,033701	0
15.01.2021	00:05:56	0	0	2,372748	1,998	55,5588	-0,569	78,808	0	1007,68	5,6	7,8	7,6	1	1	1	1	1	1	1	1	1	0	1	-60,887949	272,982476	253,975416	0
15.01.2021	00:05:57	0	0	3,163646	2,0565	60,5592	-0,558	78,826	0	1007,56	5,6	7,8	7,7	1	1	1	1	1	1	1	1	1	0	1	-57,998591	273,024763	257,05992	0
15.01.2021	00:05:58	0	0	4,519494	1,96575	57,438	-0,563	78,81	0	1007,68	5,6	7,8	7,7	1	1	1	1	1	1	1	1	1	0	1	-58,844257	273,125216	256,678184	0
15.01.2021	00:05:59	0	0	3,84157	1,9305	59,8536	-0,561	78,813	0	1007,86	5,6	7,8	7,7	1	1	1	1	1	1	1	1	1	0	1	-60,747005	273,033232	254,350597	0
15.01.2021	00:06:00	0	0	2,937671	1,911	57,7332	-0,562	78,786	0	1007,66	5,6	7,8	7,7	1	1	1	1	1	1	1	1	1	0	1	-65,186751	273,116707	250,29637	0
15.01.2021	00:06:01	0	0	3,954581	2,103	62,0352	-0,565	78,774	0	1007,6	5,6	7,8	7,6	1	1	1	1	1	1	1	1	1	0	1	-65,186751	273,116707	250,29637	0
15.01.2021	00:06:02	0	0	3,954581	2,103	62,0352	-0,565	78,774	0	1007,6	5,6	7,8	7,6	1	1	1	1	1	1	1	1	1	0	1	-64,270613	273,055833	250,931336	0
15.01.2021	00:06:03	0	0	4,293545	2,2995	68,3928	-0,561	78,765	0	1007,7	5,6	7,8	7,6	1	1	1	1	1	1	1	1	1	0	1	-65,116279	272,966994	249,675664	0
15.01.2021	00:06:04	0	0	5,084461	2,41425	69,5376	-0,563	78,773	0	1007,72	5,6	7,8	7,6	1	1	1	1	1	1	1	1	1	0	1	-59,408034	273,13231	256,147189	0
15.01.2021	00:06:05	0	0	4,180532	2,328	62,0352	-0,568	78,784	0	1007,78	5,6	7,8	7,7	1	1	1	1	1	1	1	1	1	0	1	-60,958421	273,071387	254,315353	0
15.01.2021	00:06:06	0	0	3,502629	2,202	73,7424	-0,568	78,783	0	1007,82	5,6	7,8	7,6	1	1	1	1	1	1	1	1	1	0	1	-61,522199	273,109619	253,928173	0
15.01.2021	00:06:07	0	0	4,858485	2,15325	63,5004	-0,565	78,785	0	1007,58	5,6	7,8	7,6	1	1	1	1	1	1	1	1	1	0	1	-60,958421	273,125216	254,564019	0
15.01.2021	00:06:08	0	0	3,050677	2,12475	67,2696	-0,567	78,771	0	1007,7	5,6	7,8	7,6	1	1	1	1	1	1	1	1	1	0	1	-58,562368	272,985292	256,313991	0
15.01.2021	00:06:09	0	0	2,937689	2,15475	76,374	-0,578	78,771	0	1007,74	5,6	7,9	7,6	1	1	1	1	1	1	1	1	1	0	1	-66,032417	273,13373	249,529364	0
15.01.2021	00:06:10	0	0	5,197418	2,17725	78,6744	-0,569	78,787	0	1007,68	5,6	7,8	7,7	1	1	1	1	1	1	1	1	1	0	1	-63,354475	272,961367	251,411513	0
15.01.2021	00:06:11	0	0	3,163627	2,1135	71,6184	-0,566	78,788	0	1007,66	5,6	7,8	7,8	1	1	1	1	1	1	1	1	1	0	1	-64,763918	273,03182	250,327167	0
15.01.2021	00:06:12	0	0	3,954581	2,00625	70,218	-0,567	78,8	0	1007,78	5,6	7,8	7,6	1	1	1	1	1	1	1	1	1	0	1	-57,857646	272,982476	257,005719	0
15.01.2021	00:06:13	0	0	3,050658	1,98525	62,802	-0,568	78,819	0	1007,66	5,6	7,8	7,7	1	1	1	1	1	1	1	1	1	0	1	-63,002114	272,968401	251,796319	0
15.01.2021	00:06:14	0	0	2,033784	1,9635	69,8544	-0,563	78,823	0	1007,74	5,6	7,8	7,6	1	1	1	1	1	1	1	1	1	0	1	-62,790698	272,992335	252,118155	0
15.01.2021	00:06:15	0	0	4,745497	1,97625	67,284	-0,567	78,822	0	1007,72	5,6	7,9	7,6	1	1	1	1	1	1	1	1	1	0	1	-60,887949	273,149347	254,746011	0
15.01.2021	00:06:16	0	0	3,050677	1,95975	69,138	-0,574	78,835	0	1007,76	5,6	7,8	7,6	1	1	1	1	1	1	1	1	1	0	1	-63,354475	273,005018	251,612903	0
15.01.2021	00:06:17	0	0	2,937671	1,9065	64,6416	-0,57	78,858	0	1007,88	5,6	7,8	7,7	1	1	1	1	1	1	1	1	1	0	1	-57,928118	273,13231	257,627105	0
15.01.2021	00:06:18	0	0	3,841593	1,89825	68,7744	-0,574	78,867	0	1007,76	5,6	7,8	7,6	1	1	1	1	1	1	1	1	1	0	1	-61,522199	273,102533	253,895437	0
15.01.2021	00:06:19	0	0	4,519521	1,98675	69,1632	-0,57	78,873	0	1007,56	5,6	7,8	7,6	1	1	1	1	1	1	1	1	1	0	1	-61,733615	273,120961	253,769163	0
15.01.2021	00:06:20	0	0	3,276653	2,00475	69,1632	-0,572	78,862	0	1007,74	5,6	7,9	7,6	1	1	1	1	1	1	1	1	1	0	1	-58,985201	272,982476	255,878165	0
15.01.2021	00:06:21	0	0	3,050677	1,947	80,5212	-0,571	78,862	0	1007,62	5,6	7,8	7,6	1	1	1	1	1	1	1	1	1	0	1	-60,2537	272,957148	254,492829	0
15.01.2021	00:06:22	0	0	4,745468	1,92075	82,3572	-0,572	78,873	0	1007,7	5,6	7,8	7,7	1	1	1	1	1	1	1	1	1	0	1	-61,381254	272,971215	253,43016	0
15.01.2021	00:06:23	0	0	4,519521	1,91025	86,9832	-0,574	78,846	0	1007,74	5,7	7,9	7,6	1	1	1	1	1	1	1	1	1	0	1	-59,901339	273,047355	255,261463	0
15.01.2021	00:06:24	0	0	2,598725	1,9485	79,7652	-0,578	78,853	0	1007,72	5,6	7,7	7,6	1	1	1	1	1	1	1	1	1	0	1	-66,45525	273,010657	248,538154	0
15.01.2021	00:06:25	0	0	3,841593	2,00925	74,2824	-0,573	78,864	0	1007,68	5,6	7,9	7,6	1	1	1	1	1	1	1	1	1	0	1	-61,663143	273,115289	253,813427	0
15.01.2021	00:06:26	0	0	5,084461	2,001	84,4128	-0,575	78,85	0	1007,68	5,6	7,9	7,6	1	1	1	1	1	1	1	1	1	0	1	-60,465116	273,023352	254,586881	0
15.01.2021	00:06:27	0	0	2,937671	2,01375	81,216	-0,571	78,859	0	1007,8	5,7	7,8	7,7	1	1	1	1	1	1	1	1	1	0	1	-62,085976	273,119543	253,410249	0
15.01.2021	00:06:28	0	0	4,632481	2,142	96,3	-0,575	78,847	0	1007,6	5,6	7,8	7,7	1	1	1	1	1	1	1	1	1	0	1	-59,337562	273,126635	256,191434	0
15.01.2021	00:06:29	0	0	2,937689	2,14575	69,1704	-0,57	78,856	0	1007,68	5,6	7,9	7,6	1	1	1	1	1	1	1	1	1	0	1	-58,562368	273,021941	256,483117	0
15.01.2021	00:06:30	0	0	4,971473	2,1915	97,3368	-0,58	78,856	0	1007,7	5,7	7,9	7,6	1	1	1	1	1	1	1	1	1	0	1	-62,931642	273,068558	252,329068	0
15.01.2021	00:06:31	0	0	4,067569	2,31	80,1792	-0,576	78,85	0	1007,64	5,7	7,9	7,6	1	1	1	1	1	1	1	1	1	0	1	-57,152925	272,951525	257,567665	0
15.01.2021	00:06:32	0	0	4,519494	2,38575	102,924	-0,578	78,853	0	1007,68	5,7	7,8	7,7	1	1	1	1	1	1	1	1	1	0	1	-66,243834	273,08837	249,108375	0
15.01.2021	00:06:33	0	0	3,84157	2,22225	90,864	-0,58	78,855	0	1007,72	5,7	7,9	7,7	1	1	1	1	1	1	1	1	1	0	1	-60,887949	273,125216	254,634491	0
15.01.2021	00:06:34	0	0	4,180557	1,9725	52,8876	-0,579	78,832	0	1007,66	5,6	7,9	7,6	1	1	1	1	1	1	1	1	1	0	1	-65,257223	273,023352	249,794774	0
15.01.2021	00:06:35	0	0	5,197418	1,94025	55,5444	-0,576	78,843	0	1007,78	5,6	7,9	7,7	1	1	1	1	1	1	1	1	1	0	1	-62,297393	272,957148	252,449136	0
15.01.2021	00:06:36	0	0	3,728582	1,89225	42,6024	-0,578	78,842	0	1007,64	5,6	7,9	7,7	1	1	1	1	1	1	1	1	1	0	1	-63,84778	273,078461	251,458665	0
15.01.2021	00:06:37	0	0	4,858485	1,9845	63,9072	-0,581	78,834	0	1007,76	5,6	7,8	7,6	1	1	1	1	1	1	1	1	1	0	1	-62,720226	273,060074	252,501305	0
15.01.2021	00:06:38	0	0	4,180532	2,13975	57,024	-0,581	78,831	0	1007,74	5,6	7,9	7,7	1	1	1	1	1	1	1	1	1	0	1	-61,451727	273,125216	254,070714	0
15.01.2021	00:06:39	0	0	3,38962	2,14575	42,6024	-0,583	78,841	0	1007,74	5,7	7,8	7,7	1	1	1	1	1	1	1	1	1	0	1	-59,337562	273,044529	255,812196	0
15.01.2021	00:06:40	0	0	4,067544	2,08125	42,9336	-0,585	78,832	0	1007,78	5,6	7,8	7,7	1	1	1	1	1	1	1	1	1	0	1	-59,830867	273,111036	255,626053	0
15.01.2021	00:06:41	0	0	2,485722	1,89675	47,3652	-0,578	78,853	0	1007,76	5,7	7,9	7,7	1	1	1	1	1	1	1	1	1	0	1	-63,072586	272,950119	251,64152	0
15.01.2021	00:06:42	0	0	4,067544	1,776	44,3952	-0,586	78,833	0	1007,64	5,7	7,9	7,7	1	1	1	1	1	1	1	1	1	0	1	-63,565891	273,051594	251,616481	0
15.01.2021	00:06:43	0	0	3,84157	1,749	48,8304	-0,584	78,846	0	1007,72	5,7	7,8	7,7	1	1	1	1	1	1	1	1	1	0	1	-60,958421	273,109619	254,49195	0
15.01.2021	00:06:44	0	0	2,824684	1,7985	39,1896	-0,586	78,848	0	1007,72	5,7	7,9	7,7	1	1	1	1	1	1	1	1	1	0	1	-59,337562	272,961367	255,428427	0
15.01.2021	00:06:45	0	0	4,632509	1,851	45,1548	-0,583	78,856	0	1007,72	5,7	7,9	7,6	1	1	1	1	1	1	1	1	1	0	1	-60,887949	273,069973	254,379292	0
15.01.2021	00:06:46	0	0	3,615595	1,89075	51,444	-0,583	78,85	0	1007,76	5,7	7,9	7,7	1	1	1	1	1	1	1	1	1	0	1	-58,844257	272,992335	256,064596	0
15.01.2021	00:06:47	0	0	3,84157	2,0235	51,1632	-0,586	78,859	0	1007,74	5,5	7,8	7,7	1	1	1	1	1	1	1	1	1	0	1	-69,415081	273,123798	246,100805	0
15.01.2021	00:06:48	0	0	2,824684	2,16	55,1844	-0,587	78,866	0	1007,86	5,7	7,8	7,7	1	1	1	1	1	1	1	1	1	0	1	-61,310782	272,971215	253,500633	0
15.01.2021	00:06:49	0	0	4,745468	2,427	58,8744	-0,588	78,879	0	1007,68	5,7	7,9	7,7	1	1	1	1	1	1	1	1	1	0	1	-61,592671	272,976845	253,244715	0
15.01.2021	00:06:50	0	0	4,406506	2,59275	54,1368	-0,591	78,876	0	1007,78	5,6	7,8	7,7	1	1	1	1	1	1	1	1	1	0	1	-63,706836	272,961367	251,059152	0
15.01.2021	00:06:51	0	0	2,598709	2,67	48,492	-0,59	78,896	0	1007,52	5,7	7,9	7,7	1	1	1	1	1	1	1	1	1	0	1	-58,773784	273,094034	256,604588	0
15.01.2021	00:06:52	0	0	2,824684	2,595	48,1284	-0,592	78,924	0	1007,9	5,7	7,8	7,7	1	1	1	1	1	1	1	1	1	0	1	-63,988724	273,068558	251,271985	0
15.01.2021	00:06:53	0	0	3,84157	2,44575	49,2048	-0,59	78,93	0	1007,78	5,7	7,9	7,7	1	1	1	1	1	1	1	1	1	0	1	-64,341085	273,126635	251,187911	0
15.01.2021	00:06:54	0	0	2,937671	2,403	55,9368	-0,59	78,914	0	1007,66	5,6	7,8	7,7	1	1	1	1	1	1	1	1	1	0	1	-59,055673	273,006427	255,918211	0
15.01.2021	00:06:55	0	0	4,632481	2,33625	54,8064	-0,592	78,933	0	1007,68	5,7	7,8	7,7	1	1	1	1	1	1	1	1	1	0	1	-64,200141	273,10395	251,224041	0
15.01.2021	00:06:56	0	0	3,615595	2,22675	58,4964	-0,59	78,971	0	1007,72	5,7	7,8	7,7	1	1	1	1	1	1	1	1	1	0	1	-62,367865	273,123798	253,148021	0
15.01.2021	00:06:57	0	0	4,293519	2,13	44,3916	-0,594	78,959	0	1007,64	5,6	7,8	7,7	1	1	1	1	1	1	1	1	1	0	1	-61,028894	273,074217	254,257947	0
15.01.2021	00:06:58	0	0	4,406506	2,12175	54,8028	-0,59	78,969	0	1007,68	5,6	7,8	7,7	1	1	1	1	1	1	1	1	1	0	1	-62,367865	272,948713	252,339759	0
15.01.2021	00:06:59	0	0	4,745468	2,325	49,572	-0,59	78,991	0	1007,6	5,7	7,9	7,7	1	1	1	1	1	1	1	1	1	0	1	-59,408034	273,084123	255,924559	0
15.01.2021	00:07:00	0	0	3,050658	2,67975	28,7208	-0,593	78,981	0	1007,76	5,7	7,8	7,7	1	1	1	1	1	1	1	1	1	0	1	-60,394644	273,08837	254,957565	0
15.01.2021	00:07:01	0	0	3,050658	2,67975	28,7208	-0,593	78,981	0	1007,76	5,7	7,8	7,7	1	1	1	1	1	1	1	1	1	0	1	-60,394644	273,08837	254,957565	0
15.01.2021	00:07:02	0	0	2,824684	2,66775	54,504	-0,593	78,979	0	1007,62	5,7	7,8	7,7	1	1	1	1	1	1	1	1	1	0	1	-60,394644	273,045942	254,761635	0
15.01.2021	00:07:03	0	0	2,824684	2,568	58,5	-0,593	78,981	0	1007,74	5,7	7,8	7,7	1	1	1	1	1	1	1	1	1	0	1	-56,800564	272,95293	257,92651	0
15.01.2021	00:07:04	0	0	5,084431	2,60775	85,5504	-0,591	78,991	0	1007,7	5,7	7,8	7,7	1	1	1	1	1	1	1	1	1	0	1	-63,777308	273,123798	251,738578	0
15.01.2021	00:07:05	0	0	3,050658	2,60775	75,6216	-0,597	78,994	0	1007,68	5,7	7,8	7,7	1	1	1	1	1	1	1	1	1	0	1	-65,961945	272,95293	248,765129	0
15.01.2021	00:07:06	0	0	3,84157	2,688	62,4204	-0,597	79,003	0	1007,68	5,7	7,8	7,7	1	1	1	1	1	1	1	1	1	0	1	-60,747005	273,092618	254,624826	0
15.01.2021	00:07:07	0	0	4,067544	2,8605	50,292	-0,593	79,012	0	1007,94	5,6	7,9	7,7	1	1	1	1	1	1	1	1	1	0	1	-62,438337	273,013478	252,568084	0
15.01.2021	00:07:08	0	0	4,406506	3,08025	48,6324	-0,603	78,996	0	1007,62	5,6	7,8	7,7	1	1	1	1	1	1	1	1	1	0	1	-58,280479	272,941687	256,39474	0
15.01.2021	00:07:09	0	0	3,38962	3,306	61,3008	-0,595	79,011	0	1007,74	5,6	7,9	7,7	1	1	1	1	1	1	1	1	1	0	1	-62,015504	273,08837	253,336705	0
15.01.2021	00:07:10	0	0	2,598709	3,19425	57,7224	-0,602	79,015	0	1007,62	5,7	7,8	7,7	1	1	1	1	1	1	1	1	1	0	1	-60,183228	272,950119	254,530879	0
15.01.2021	00:07:11	0	0	3,276633	3,0315	50,292	-0,598	79,034	0	1007,52	5,7	7,8	7,7	1	1	1	1	1	1	1	1	1	0	1	-63,354475	272,966994	251,437468	0
15.01.2021	00:07:12	0	0	5,084431	3,01425	68,4252	-0,602	79,05	0	1007,8	5,6	7,8	7,7	1	1	1	1	1	1	1	1	1	0	1	-63,143058	273,021941	251,902426	0
15.01.2021	00:07:13	0	0	4,067544	3,2865	88,6032	-0,6	79,082	0	1007,74	5,7	7,8	7,7	1	1	1	1	1	1	1	1	1	0	1	-63,565891	272,958555	251,187123	0
15.01.2021	00:07:14	0	0	3,276633	3,16425	86,67	-0,598	79,09	0	1007,8	5,6	7,8	7,7	1	1	1	1	1	1	1	1	1	0	1	-67,371388	272,965587	247,414065	0
15.01.2021	00:07:15	0	0	2,824684	2,9625	94,4316	-0,595	79,116	0	1007,54	5,6	7,8	7,7	1	1	1	1	1	1	1	1	1	0	1	-61,945032	272,940282	252,723709	0
15.01.2021	00:07:16	0	0	2,937671	2,81925	93,4308	-0,598	79,134	0	1007,7	5,7	7,8	7,7	1	1	1	1	1	1	1	1	1	0	1	-65,750529	272,938877	248,911733	0
15.01.2021	00:07:17	0	0	4,067544	2,6895	72,6768	-0,594	79,166	0	1007,76	5,6	7,8	7,7	1	1	1	1	1	1	1	1	1	0	1	-63,002114	273,060074	252,219417	0
15.01.2021	00:07:18	0	0	2,824684	2,65275	58,1184	-0,6	79,169	0	1007,7	5,6	7,9	7,7	1	1	1	1	1	1	1	1	1	0	1	-62,508809	273,118125	252,980864	0
15.01.2021	00:07:19	0	0	4,632481	2,70975	68,0976	-0,595	79,183	0	1007,7	5,6	7,8	7,7	1	1	1	1	1	1	1	1	1	0	1	-62,579281	272,992335	252,329572	0
15.01.2021	00:07:20	0	0	2,598709	2,973	61,308	-0,603	79,177	0	1007,72	5,6	7,8	7,7	1	1	1	1	1	1	1	1	1	0	1	-62,720226	272,938877	251,942036	0
15.01.2021	00:07:21	0	0	3,050658	3,0195	69,4404	-0,598	79,174	0	1007,84	5,6	7,8	7,7	1	1	1	1	1	1	1	1	1	0	1	-64,763918	272,981068	250,092951	0
15.01.2021	00:07:22	0	0	4,858485	2,874	65,1096	-0,599	79,154	0	1007,62	5,6	7,8	7,6	1	1	1	1	1	1	1	1	1	0	1	-65,961945	272,996561	248,966411	0
15.01.2021	00:07:23	0	0	2,824684	2,6295	79,758	-0,597	79,141	0	1007,64	5,6	7,8	7,7	1	1	1	1	1	1	1	1	1	0	1	-61,945032	273,128054	253,59052	0
15.01.2021	00:07:24	0	0	3,954557	2,56275	81,216	-0,598	79,133	0	1007,76	5,6	7,8	7,7	1	1	1	1	1	1	1	1	1	0	1	-67,723749	273,112454	247,73972	0
15.01.2021	00:07:25	0	0	4,519494	2,64675	71,9892	-0,595	79,138	0	1007,78	5,6	7,8	7,7	1	1	1	1	1	1	1	1	1	0	1	-60,394644	273,078461	254,911801	0
15.01.2021	00:07:26	0	0	2,598709	2,67	87,7176	-0,599	79,146	0	1007,82	5,7	7,8	7,7	1	1	1	1	1	1	1	1	1	0	1	-61,87456	273,112454	253,58891	0
15.01.2021	00:07:27	0	0	2,824684	2,93625	77,2056	-0,605	79,147	0	1007,62	5,6	7,8	7,7	1	1	1	1	1	1	1	1	1	0	1	-60,606061	272,969808	254,198863	0
15.01.2021	00:07:28	0	0	5,310405	3,255	82,35	-0,601	79,152	0	1007,76	5,6	7,8	7,7	1	1	1	1	1	1	1	1	1	0	1	-60,676533	273,010657	254,316872	0
15.01.2021	00:07:29	0	0	4,632481	3,30825	69,1668	-0,6	79,167	0	1007,56	5,6	7,8	7,7	1	1	1	1	1	1	1	1	1	0	1	-68,639887	272,933259	245,996466	0
15.01.2021	00:07:30	0	0	3,050658	3,35025	62,5104	-0,6	79,178	0	1007,76	5,6	7,8	7,7	1	1	1	1	1	1	1	1	1	0	1	-62,720226	272,962774	252,05225	0
15.01.2021	00:07:31	0	0	4,180532	3,35925	66,546	-0,598	79,192	0	1007,64	5,6	7,8	7,7	1	1	1	1	1	1	1	1	1	0	1	-60,747005	272,955742	253,993038	0
15.01.2021	00:07:32	0	0	4,745468	3,35175	63,8784	-0,597	79,202	0	1007,78	5,6	7,8	7,7	1	1	1	1	1	1	1	1	1	0	1	-63,284003	272,945902	251,410658	0
15.01.2021	00:07:33	0	0	2,824684	3,3255	75,2328	-0,605	79,218	0	1007,68	5,6	7,8	7,7	1	1	1	1	1	1	1	1	1	0	1	-63,565891	273,006427	251,407992	0
15.01.2021	00:07:34	0	0	4,067569	3,2835	73,7856	-0,604	79,235	0	1007,76	5,6	7,8	7,6	1	1	1	1	1	1	1	1	1	0	1	-65,539112	273,061488	249,688947	0
15.01.2021	00:07:35	0	0	2,711696	3,35025	75,6252	-0,598	79,256	0	1007,82	5,6	7,8	7,7	1	1	1	1	1	1	1	1	1	0	1	-60,958421	272,933259	253,677932	0
15.01.2021	00:07:36	0	0	3,615595	3,50325	70,8732	-0,605	79,283	0	1007,7	5,6	7,8	7,7	1	1	1	1	1	1	1	1	1	0	1	-64,059197	272,962774	250,713279	0
15.01.2021	00:07:37	0	0	3,163646	3,432	67,6872	-0,6	79,316	0	1007,7	5,6	7,8	7,7	1	1	1	1	1	1	1	1	1	0	1	-61,945032	273,113871	253,524988	0
15.01.2021	00:07:38	0	0	3,050677	3,2235	68,0688	-0,604	79,334	0	1007,76	5,7	7,8	7,6	1	1	1	1	1	1	1	1	1	0	1	-62,579281	272,954336	252,154277	0
15.01.2021	00:07:39	0	0	3,728582	3,087	58,122	-0,602	79,349	0	1007,78	5,6	7,8	7,7	1	1	1	1	1	1	1	1	1	0	1	-61,733615	273,021941	253,31187	0
15.01.2021	00:07:40	0	0	3,050658	3,117	70,6392	-0,599	79,364	0	1007,8	5,6	7,8	7,7	1	1	1	1	1	1	1	1	1	0	1	-60,887949	272,933259	253,748404	0
15.01.2021	00:07:41	0	0	3,163646	3,0615	59,0976	-0,599	79,393	0	1007,66	5,7	7,8	7,7	1	1	1	1	1	1	1	1	1	0	1	-64,270613	273,10395	251,153569	0
15.01.2021	00:07:42	0	0	3,954557	2,77275	58,8852	-0,603	79,407	0	1007,7	5,6	7,8	7,7	1	1	1	1	1	1	1	1	1	0	1	-66,596195	273,024763	248,462316	0
15.01.2021	00:07:43	0	0	4,858456	2,4375	60,5484	-0,602	79,429	0	1007,7	5,6	7,8	7,7	1	1	1	1	1	1	1	1	1	0	1	-57,998591	272,951525	256,721999	0
15.01.2021	00:07:44	0	0	3,38962	2,1885	69,4728	-0,601	79,427	0	1007,74	5,6	7,8	7,7	1	1	1	1	1	1	1	1	1	0	1	-61,522199	273,102533	253,895437	0
15.01.2021	00:07:45	0	0	3,954581	2,29575	56,7648	-0,594	79,447	0	1007,66	5,6	7,8	7,6	1	1	1	1	1	1	1	1	1	0	1	-63,636364	273,060074	251,585167	0
15.01.2021	00:07:46	0	0	2,372734	2,3235	61,704	-0,599	79,441	0	1007,72	5,6	7,8	7,7	1	1	1	1	1	1	1	1	1	0	1	-62,790698	273,119543	252,705528	0
15.01.2021	00:07:47	0	0	4,858456	2,31975	63,8784	-0,591	79,442	0	1007,8	5,6	7,8	7,7	1	1	1	1	1	1	1	1	1	0	1	-70,824524	273,086954	244,521145	0
15.01.2021	00:07:48	0	0	2,937671	2,47125	65,466	-0,595	79,44	0	1007,84	5,6	7,8	7,7	1	1	1	1	1	1	1	1	1	0	1	-65,821001	273,040292	249,309194	0
15.01.2021	00:07:49	0	0	5,310405	2,484	54,108	-0,592	79,432	0	1007,74	5,6	7,8	7,7	1	1	1	1	1	1	1	1	1	0	1	-65,045807	273,074217	250,241034	0
15.01.2021	00:07:50	0	0	2,711696	2,46975	50,3172	-0,598	79,414	0	1007,76	5,6	7,8	7,7	1	1	1	1	1	1	1	1	1	0	1	-62,438337	273,0997	252,966209	0
15.01.2021	00:07:51	0	0	2,711696	2,50875	51,4152	-0,596	79,423	0	1007,72	5,6	7,8	7,7	1	1	1	1	1	1	1	1	1	0	1	-63,424947	273,047355	251,737855	0
15.01.2021	00:07:52	0	0	3,276633	2,484	56,6712	-0,599	79,419	0	1007,76	5,6	7,8	7,7	1	1	1	1	1	1	1	1	1	0	1	-64,763918	273,0997	250,640628	0
15.01.2021	00:07:53	0	0	3,728605	2,3205	40,6152	-0,597	79,398	0	1007,64	5,6	7,8	7,6	1	1	1	1	1	1	1	1	1	0	1	-64,904863	273,105367	250,525866	0
15.01.2021	00:07:54	0	0	4,406533	2,346	46,962	-0,598	79,395	0	1007,76	5,6	7,8	7,6	1	1	1	1	1	1	1	1	1	0	1	-61,522199	273,096866	253,869259	0
15.01.2021	00:07:55	0	0	3,954581	2,4885	57,7332	-0,596	79,379	0	1007,8	5,6	7,8	7,6	1	1	1	1	1	1	1	1	1	0	1	-61,804087	272,944497	252,884092	0
15.01.2021	00:07:56	0	0	3,615617	2,544	53,838	-0,604	79,347	0	1007,64	5,6	7,8	7,6	1	1	1	1	1	1	1	1	1	0	1	-66,243834	273,096866	249,147624	0
15.01.2021	00:07:57	0	0	4,293545	2,679	48,51	-0,593	79,358	0	1007,66	5,6	7,8	7,6	1	1	1	1	1	1	1	1	1	0	1	-63,354475	273,003608	251,606398	0
15.01.2021	00:07:58	0	0	4,293545	2,62125	54,4788	-0,596	79,351	0	1007,7	5,6	7,8	7,6	1	1	1	1	1	1	1	1	1	0	1	-64,83439	272,93045	249,789012	0
15.01.2021	00:07:59	0	0	3,615617	2,793	54,4572	-0,598	79,326	0	1007,72	5,6	7,8	7,6	1	1	1	1	1	1	1	1	1	0	1	-59,760395	273,116707	255,722727	0
15.01.2021	00:08:00	0	0	3,276653	2,82	52,506	-0,594	79,324	0	1007,7	5,6	7,8	7,6	1	1	1	1	1	1	1	1	1	0	1	-64,48203	273,113871	250,98799	0
15.01.2021	00:08:01	0	0	3,276653	2,82	52,506	-0,594	79,324	0	1007,7	5,6	7,8	7,6	1	1	1	1	1	1	1	1	1	0	1	-64,48203	273,113871	250,98799	0
15.01.2021	00:08:02	0	0	3,050677	2,54925	44,0316	-0,595	79,31	0	1007,74	5,6	7,8	7,6	1	1	1	1	1	1	1	1	1	0	1	-62,156448	272,948713	252,551176	0
15.01.2021	00:08:03	0	0	2,937689	2,385	42,9264	-0,6	79,313	0	1007,74	5,6	7,8	7,6	1	1	1	1	1	1	1	1	1	0	1	-60,817477	273,030409	254,267092	0
15.01.2021	00:08:04	0	0	3,163665	2,361	35,0892	-0,594	79,314	0	1007,68	5,6	7,8	7,6	1	1	1	1	1	1	1	1	1	0	1	-60,042283	273,115289	255,434287	0
15.01.2021	00:08:05	0	0	3,728605	2,3505	46,5948	-0,595	79,305	0	1007,9	5,6	7,8	7,6	1	1	1	1	1	1	1	1	1	0	1	-64,411557	273,072802	250,86875	0
15.01.2021	00:08:06	0	0	2,485736	2,29125	40,2516	-0,595	79,306	0	1007,7	5,6	7,8	7,6	1	1	1	1	1	1	1	1	1	0	1	-66,666667	273,102533	248,750969	0
15.01.2021	00:08:07	0	0	2,146772	2,19225	73,4544	-0,597	79,3	0	1007,72	5,6	7,8	7,6	1	1	1	1	1	1	1	1	1	0	1	-61,310782	272,938877	253,35148	0
15.01.2021	00:08:08	0	0	3,615617	2,124	58,0968	-0,598	79,292	0	1007,74	5,6	7,8	7,6	1	1	1	1	1	1	1	1	1	0	1	-64,763918	272,972622	250,053988	0
15.01.2021	00:08:09	0	0	3,389641	2,112	79,0416	-0,593	79,302	0	1007,66	5,6	7,8	7,6	1	1	1	1	1	1	1	1	1	0	1	-63,072586	273,05442	252,122837	0
15.01.2021	00:08:10	0	0	3,050677	2,06175	87,75	-0,596	79,311	0	1007,74	5,6	7,8	7,6	1	1	1	1	1	1	1	1	1	0	1	-62,931642	273,101116	252,479449	0
15.01.2021	00:08:11	0	0	4,745497	1,88775	72,684	-0,597	79,308	0	1007,6	5,6	7,8	7,6	1	1	1	1	1	1	1	1	1	0	1	-64,059197	273,067144	251,194982	0
15.01.2021	00:08:12	0	0	2,711713	1,83525	76,842	-0,597	79,311	0	1007,8	5,6	7,8	7,6	1	1	1	1	1	1	1	1	1	0	1	-60,112755	273,078461	255,19369	0
15.01.2021	00:08:13	0	0	4,971473	1,7625	78,2712	-0,596	79,307	0	1007,74	5,6	7,8	7,6	1	1	1	1	1	1	1	1	1	0	1	-61,945032	272,936068	252,704275	0
15.01.2021	00:08:14	0	0	4,180557	1,67025	72,2808	-0,59	79,303	0	1007,74	5,6	7,8	7,6	1	1	1	1	1	1	1	1	1	0	1	-62,297393	273,040292	252,832802	0
15.01.2021	00:08:15	0	0	3,050677	1,65525	69,8436	-0,595	79,298	0	1007,74	5,6	7,8	7,6	1	1	1	1	1	1	1	1	1	0	1	-58,562368	272,985292	256,313991	0
15.01.2021	00:08:16	0	0	2,598725	1,78575	65,0988	-0,592	79,307	0	1007,76	5,6	7,8	7,6	1	1	1	1	1	1	1	1	1	0	1	-60,676533	273,0997	254,728013	0
15.01.2021	00:08:17	0	0	4,406533	2,15775	59,4828	-0,592	79,308	0	1007,7	5,6	7,8	7,6	1	1	1	1	1	1	1	1	1	0	1	-57,998591	272,934663	256,644239	0
15.01.2021	00:08:18	0	0	2,598725	2,4765	54,7956	-0,594	79,315	0	1007,68	5,6	7,8	7,6	1	1	1	1	1	1	1	1	1	0	1	-66,173362	273,057247	249,035114	0
15.01.2021	00:08:19	0	0	3,502629	2,568	54,0936	-0,6	79,321	0	1007,68	5,6	7,8	7,6	1	1	1	1	1	1	1	1	1	0	1	-64,48203	273,089786	250,87672	0
15.01.2021	00:08:20	0	0	3,050677	2,61525	54,4968	-0,594	79,316	0	1007,84	5,6	7,8	7,6	1	1	1	1	1	1	1	1	1	0	1	-60,535588	272,916413	254,023095	0
15.01.2021	00:08:21	0	0	3,841593	2,75775	60,9408	-0,595	79,34	0	1007,78	5,6	7,8	7,6	1	1	1	1	1	1	1	1	1	0	1	-62,86117	273,01912	252,171291	0
15.01.2021	00:08:22	0	0	4,180557	2,7	58,4856	-0,59	79,34	0	1007,74	5,6	7,8	7,6	1	1	1	1	1	1	1	1	1	0	1	-64,904863	273,10395	250,519319	0
15.01.2021	00:08:23	0	0	3,163665	2,74125	50,2956	-0,593	79,342	0	1007,66	5,6	7,8	7,6	1	1	1	1	1	1	1	1	1	0	1	-67,794221	272,983884	247,075641	0
15.01.2021	00:08:24	0	0	4,519521	2,7015	34,0344	-0,592	79,341	0	1007,68	5,6	7,8	7,6	1	1	1	1	1	1	1	1	1	0	1	-60,747005	272,992335	254,161848	0
15.01.2021	00:08:25	0	0	3,163665	2,50275	38,4156	-0,593	79,346	0	1007,78	5,6	7,8	7,6	1	1	1	1	1	1	1	1	1	0	1	-61,945032	272,913607	252,600714	0
15.01.2021	00:08:26	0	0	2,711713	2,27925	38,4084	-0,595	79,332	0	1007,78	5,6	7,8	7,6	1	1	1	1	1	1	1	1	1	0	1	-61,804087	272,955742	252,935955	0
15.01.2021	00:08:27	0	0	2,598725	2,13525	46,2204	-0,577	79,342	0	1007,92	5,6	7,8	7,6	1	1	1	1	1	1	1	1	1	0	1	-61,099366	272,981068	253,757504	0
15.01.2021	00:08:28	0	0	2,598725	2,03625	32,9112	-0,594	79,316	0	1007,68	5,6	7,7	7,6	1	1	1	1	1	1	1	1	1	0	1	-65,680056	272,913607	248,86569	0
15.01.2021	00:08:29	0	0	3,389641	1,923	54,8784	-0,591	79,335	0	1007,7	5,6	7,8	7,6	1	1	1	1	1	1	1	1	1	0	1	-62,508809	272,978252	252,335071	0
15.01.2021	00:08:30	0	0	3,389641	1,76625	31,032	-0,595	79,319	0	1007,74	5,6	7,8	7,6	1	1	1	1	1	1	1	1	1	0	1	-63,636364	273,034644	251,467756	0
15.01.2021	00:08:31	0	0	3,050677	1,683	36,5436	-0,591	79,316	0	1007,94	5,6	7,8	7,6	1	1	1	1	1	1	1	1	1	0	1	-61,945032	272,917816	252,620121	0
15.01.2021	00:08:32	0	0	4,858485	1,64025	44,4096	-0,594	79,313	0	1007,4	5,6	7,7	7,6	1	1	1	1	1	1	1	1	1	0	1	-64,270613	273,067144	250,983565	0
15.01.2021	00:08:33	0	0	4,745497	1,608	43,6824	-0,593	79,331	0	1007,72	5,6	7,8	7,6	1	1	1	1	1	1	1	1	1	0	1	-65,821001	273,023352	249,230997	0
15.01.2021	00:08:34	0	0	4,971473	1,58175	61,3188	-0,592	79,328	0	1007,7	5,6	7,8	7,6	1	1	1	1	1	1	1	1	1	0	1	-62,649753	273,081292	252,669764	0
15.01.2021	00:08:35	0	0	3,276653	1,557	41,4684	-0,594	79,32	0	1007,38	5,6	7,8	7,6	1	1	1	1	1	1	1	1	1	0	1	-63,84778	273,045942	251,308499	0
15.01.2021	00:08:36	0	0	3,389641	1,61475	42,2316	-0,587	79,306	0	1007,76	5,6	7,8	7,6	1	1	1	1	1	1	1	1	1	0	1	-63,284003	273,081292	252,035515	0
15.01.2021	00:08:37	0	0	3,954581	1,6185	70,5924	-0,594	79,31	0	1007,78	5,6	7,8	7,6	1	1	1	1	1	1	1	1	1	0	1	-58,139535	273,079877	257,173446	0
15.01.2021	00:08:38	0	0	4,858485	1,53375	76,86	-0,597	79,299	0	1007,52	5,6	7,8	7,6	1	1	1	1	1	1	1	1	1	0	1	-57,857646	272,945902	256,837014	0
15.01.2021	00:08:39	0	0	2,824701	1,45425	68,094	-0,595	79,3	0	1007,6	5,6	7,8	7,6	1	1	1	1	1	1	1	1	1	0	1	-65,398168	273,028997	249,679886	0
15.01.2021	00:08:40	0	0	4,632509	1,392	65,0988	-0,59	79,316	0	1007,56	5,6	7,8	7,6	1	1	1	1	1	1	1	1	1	0	1	-58,985201	273,081292	256,334317	0
15.01.2021	00:08:41	0	0	4,180557	1,401	66,9384	-0,595	79,302	0	1007,52	5,6	7,8	7,6	1	1	1	1	1	1	1	1	1	0	1	-67,864693	273,036056	247,245944	0
15.01.2021	00:08:42	0	0	5,197449	1,45575	86,6772	-0,594	79,283	0	1007,54	5,6	7,7	7,6	1	1	1	1	1	1	1	1	1	0	1	-58,985201	272,962774	255,787275	0
15.01.2021	00:08:43	0	0	2,598725	1,46175	56,646	-0,595	79,292	0	1007,68	5,6	7,8	7,6	1	1	1	1	1	1	1	1	1	0	1	-65,46864	273,08837	249,883569	0
15.01.2021	00:08:44	0	0	4,858485	1,521	66,2436	-0,589	79,283	0	1007,48	5,6	7,7	7,6	1	1	1	1	1	1	1	1	1	0	1	-61,099366	272,902386	253,394655	0
15.01.2021	00:08:45	0	0	4,632509	1,545	75,2256	-0,594	79,292	0	1007,82	5,6	7,7	7,6	1	1	1	1	1	1	1	1	1	0	1	-60,676533	272,971215	254,134882	0
15.01.2021	00:08:46	0	0	2,598725	1,5375	39,6612	-0,591	79,272	0	1007,94	5,6	7,7	7,6	1	1	1	1	1	1	1	1	1	0	1	-61,522199	273,075631	253,771176	0
15.01.2021	00:08:47	0	0	3,050677	1,5225	41,454	-0,592	79,258	0	1007,76	5,6	7,8	7,6	1	1	1	1	1	1	1	1	1	0	1	-62,367865	272,898181	252,106769	0
15.01.2021	00:08:48	0	0	2,25976	1,64475	77,9508	-0,595	79,254	0	1007,72	5,6	7,7	7,6	1	1	1	1	1	1	1	1	1	0	1	-60,676533	272,96418	254,102432	0
15.01.2021	00:08:49	0	0	3,050677	1,71825	65,8404	-0,59	79,254	0	1007,54	5,6	7,7	7,6	1	1	1	1	1	1	1	1	1	0	1	-63,84778	272,933259	250,788573	0
15.01.2021	00:08:50	0	0	2,937689	1,66275	75,2472	-0,594	79,227	0	1007,62	5,6	7,8	7,6	1	1	1	1	1	1	1	1	1	0	1	-61,028894	273,05866	254,186109	0
15.01.2021	00:08:51	0	0	3,050677	1,68225	68,8428	-0,594	79,229	0	1007,94	5,5	7,8	7,6	1	1	1	1	1	1	1	1	1	0	1	-63,565891	272,917816	250,999261	0
15.01.2021	00:08:52	0	0	2,485736	1,68975	74,52	-0,594	79,223	0	1007,9	5,6	7,8	7,6	1	1	1	1	1	1	1	1	1	0	1	-63,213531	272,886969	251,209428	0
15.01.2021	00:08:53	0	0	2,824701	1,701	70,6068	-0,594	79,215	0	1007,6	5,6	7,7	7,6	1	1	1	1	1	1	1	1	1	0	1	-63,284003	273,068558	251,976707	0
15.01.2021	00:08:54	0	0	3,841593	1,71375	67,2732	-0,596	79,183	0	1008,06	5,6	7,7	7,6	1	1	1	1	1	1	1	1	1	0	1	-61,733615	272,933259	252,902738	0
15.01.2021	00:08:55	0	0	4,519521	1,72125	60,552	-0,593	79,163	0	1007,6	5,6	7,8	7,6	1	1	1	1	1	1	1	1	1	0	1	-62,015504	272,983884	252,854358	0
15.01.2021	00:08:56	0	0	2,937689	1,7745	76,7952	-0,592	79,138	0	1007,72	5,6	7,7	7,6	1	1	1	1	1	1	1	1	1	0	1	-64,341085	273,05442	250,854338	0
15.01.2021	00:08:57	0	0	3,841593	1,8765	70,8408	-0,597	79,109	0	1007,84	5,5	7,8	7,6	1	1	1	1	1	1	1	1	1	0	1	-65,961945	272,899582	248,51915	0
15.01.2021	00:08:58	0	0	2,824701	1,93875	44,8848	-0,592	79,077	0	1007,46	5,6	7,7	7,6	1	1	1	1	1	1	1	1	1	0	1	-63,988724	272,907996	250,531154	0
15.01.2021	00:08:59	0	0	3,841593	1,94625	68,778	-0,594	79,067	0	1007,86	5,6	7,7	7,6	1	1	1	1	1	1	1	1	1	0	1	-60,394644	272,934663	254,248186	0
15.01.2021	00:09:00	0	0	3,050677	2,17725	71,5932	-0,596	79,033	0	1007,78	5,6	7,7	7,6	1	1	1	1	1	1	1	1	1	0	1	-64,693446	273,057247	250,51503	0
15.01.2021	00:09:01	0	0	3,050677	2,17725	71,5932	-0,596	79,033	0	1007,78	5,6	7,7	7,6	1	1	1	1	1	1	1	1	1	0	1	-64,693446	273,057247	250,51503	0
15.01.2021	00:09:02	0	0	3,502629	2,13675	71,5788	-0,603	79,008	0	1007,66	5,6	7,7	7,6	1	1	1	1	1	1	1	1	1	0	1	-62,931642	272,902386	251,562379	0
15.01.2021	00:09:03	0	0	2,485736	2,13975	69,8616	-0,595	78,993	0	1007,64	5,6	7,7	7,6	1	1	1	1	1	1	1	1	1	0	1	-64,059197	273,005018	250,908181	0
15.01.2021	00:09:04	0	0	4,293545	2,1705	68,4108	-0,599	78,993	0	1007,42	5,6	7,7	7,6	1	1	1	1	1	1	1	1	1	0	1	-63,284003	273,05442	251,91142	0
15.01.2021	00:09:05	0	0	3,163665	2,4525	65,8224	-0,602	79,022	0	1007,76	5,5	7,7	7,6	1	1	1	1	1	1	1	1	1	0	1	-57,223397	272,989517	257,672457	0
15.01.2021	00:09:06	0	0	3,163665	2,4525	65,8224	-0,602	79,022	0	1007,76	5,5	7,7	7,6	1	1	1	1	1	1	1	1	1	0	1	-57,223397	272,989517	257,672457	0
15.01.2021	00:09:07	0	0	3,276653	2,5845	69,8544	-0,596	79,041	0	1007,66	5,6	7,7	7,6	1	1	1	1	1	1	1	1	1	0	1	-60,958421	273,057247	254,250054	0
15.01.2021	00:09:08	0	0	3,954581	2,493	70,2216	-0,599	79,042	0	1007,74	5,6	7,7	7,6	1	1	1	1	1	1	1	1	1	0	1	-63,84778	273,041704	251,288935	0
15.01.2021	00:09:09	0	0	3,502629	2,4615	62,0496	-0,599	79,053	0	1007,68	5,5	7,7	7,6	1	1	1	1	1	1	1	1	1	0	1	-65,257223	272,972622	249,560683	0
15.01.2021	00:09:10	0	0	2,937689	2,436	79,0488	-0,601	79,052	0	1007,66	5,5	7,8	7,6	1	1	1	1	1	1	1	1	1	0	1	-63,706836	273,047355	251,455966	0
15.01.2021	00:09:11	0	0	2,824701	2,6685	71,9964	-0,598	79,072	0	1007,78	5,5	7,7	7,6	1	1	1	1	1	1	1	1	1	0	1	-63,354475	273,045942	251,801804	0
15.01.2021	00:09:12	0	0	3,954581	2,916	70,6284	-0,605	79,064	0	1007,7	5,5	7,7	7,6	1	1	1	1	1	1	1	1	1	0	1	-65,257223	272,965587	249,52823	0
15.01.2021	00:09:13	0	0	2,485736	2,95275	66,9276	-0,603	79,081	0	1007,68	5,5	7,7	7,6	1	1	1	1	1	1	1	1	1	0	1	-62,579281	273,005018	252,388097	0
15.01.2021	00:09:14	0	0	3,728605	3,00225	98,7984	-0,598	79,067	0	1007,72	5,5	7,7	7,6	1	1	1	1	1	1	1	1	1	0	1	-63,424947	273,044529	251,72481	0
15.01.2021	00:09:15	0	0	5,197449	3,0765	105,8616	-0,604	79,061	0	1007,66	5,5	7,7	7,6	1	1	1	1	1	1	1	1	1	0	1	-62,579281	273,012067	252,420631	0
15.01.2021	00:09:16	0	0	2,25976	2,8515	103,7016	-0,603	79,076	0	1007,78	5,6	7,7	7,6	1	1	1	1	1	1	1	1	1	0	1	-62,085976	272,903789	252,414508	0
15.01.2021	00:09:17	0	0	5,084461	2,71125	94,1148	-0,6	79,082	0	1007,76	5,5	7,7	7,6	1	1	1	1	1	1	1	1	1	0	1	-63,777308	273,047355	251,385494	0
15.01.2021	00:09:18	0	0	2,824701	2,5305	88,9524	-0,601	79,084	0	1007,82	5,5	7,7	7,6	1	1	1	1	1	1	1	1	1	0	1	-67,582805	272,858969	246,711127	0
15.01.2021	00:09:19	0	0	5,310437	2,32875	73,782	-0,607	79,08	0	1007,56	5,5	7,7	7,6	1	1	1	1	1	1	1	1	1	0	1	-64,763918	272,933259	249,872435	0
15.01.2021	00:09:20	0	0	3,841593	2,238	60,9444	-0,607	79,077	0	1007,68	5,5	7,7	7,6	1	1	1	1	1	1	1	1	1	0	1	-62,790698	272,871564	251,561268	0
15.01.2021	00:09:21	0	0	2,824701	2,28075	64,242	-0,606	79,093	0	1007,84	5,5	7,7	7,6	1	1	1	1	1	1	1	1	1	0	1	-64,975335	272,995152	249,94652	0
15.01.2021	00:09:22	0	0	3,615617	2,59275	85,1724	-0,603	79,111	0	1007,76	5,5	7,7	7,6	1	1	1	1	1	1	1	1	1	0	1	-61,733615	272,88837	252,695801	0
15.01.2021	00:09:23	0	0	2,598725	2,88975	94,8456	-0,599	79,098	0	1007,72	5,5	7,7	7,6	1	1	1	1	1	1	1	1	1	0	1	-63,072586	273,03888	252,051089	0
15.01.2021	00:09:24	0	0	2,711713	3,23325	64,6272	-0,61	79,086	0	1007,8	5,5	7,7	7,6	1	1	1	1	1	1	1	1	1	0	1	-63,072586	272,898181	251,402047	0
15.01.2021	00:09:25	0	0	3,389641	3,63525	55,1808	-0,589	79,069	0	1007,64	5,5	7,7	7,6	1	1	1	1	1	1	1	1	1	0	1	-62,720226	272,941687	251,954994	0
15.01.2021	00:09:26	0	0	2,485736	3,80325	84,4308	-0,605	79,059	0	1007,82	5,5	7,7	7,6	1	1	1	1	1	1	1	1	1	0	1	-59,548978	272,868765	254,790087	0
15.01.2021	00:09:27	0	0	3,502629	3,4515	58,8636	-0,61	79,038	0	1007,72	5,5	7,7	7,6	1	1	1	1	1	1	1	1	1	0	1	-67,230444	272,872964	247,127972	0
15.01.2021	00:09:28	0	0	5,197418	3,192	64,6236	-0,611	79,035	0	1007,76	5,5	7,7	7,7	1	1	1	1	1	1	1	1	1	0	1	-62,156448	272,943092	252,525251	0
15.01.2021	00:09:29	0	0	5,084461	3,18675	55,9476	-0,605	79,025	0	1007,74	5,5	7,7	7,6	1	1	1	1	1	1	1	1	1	0	1	-65,46864	272,997971	249,466218	0
15.01.2021	00:09:30	0	0	3,276653	3,183	45,5364	-0,604	79,008	0	1007,86	5,5	7,7	7,6	1	1	1	1	1	1	1	1	1	0	1	-62,22692	273,041704	252,909795	0
15.01.2021	00:09:31	0	0	3,954581	3,17175	51,7392	-0,604	79,002	0	1007,76	5,5	7,8	7,6	1	1	1	1	1	1	1	1	1	0	1	-60,183228	272,957148	254,563301	0
15.01.2021	00:09:32	0	0	3,389641	3,132	60,948	-0,606	79,013	0	1007,76	5,5	7,7	7,6	1	1	1	1	1	1	1	1	1	0	1	-57,364341	273,007837	257,616049	0
15.01.2021	00:09:33	0	0	2,485736	3,01575	66,5316	-0,615	79,006	0	1007,7	5,5	7,7	7,6	1	1	1	1	1	1	1	1	1	0	1	-62,86117	273,037468	252,255986	0
15.01.2021	00:09:34	0	0	4,180557	2,8275	36,7164	-0,614	78,996	0	1007,8	5,5	7,7	7,6	1	1	1	1	1	1	1	1	1	0	1	-61,522199	272,906593	252,991215	0
15.01.2021	00:09:35	0	0	4,745525	2,9625	44,0388	-0,614	78,977	0	1007,64	5,5	7,7	7,5	1	1	1	1	1	1	1	1	1	0	1	-62,508809	272,950119	252,205298	0
15.01.2021	00:09:36	0	0	4,745468	3,16725	63,5004	-0,613	79,001	0	1007,78	5,6	7,7	7,7	1	1	1	1	1	1	1	1	1	0	1	-62,367865	272,854773	251,906732	0
15.01.2021	00:09:37	0	0	4,971503	3,01575	40,2552	-0,618	78,992	0	1007,64	5,6	7,8	7,5	1	1	1	1	1	1	1	1	1	0	1	-65,609584	273,007837	249,370806	0
15.01.2021	00:09:38	0	0	5,197418	2,82075	59,4936	-0,618	78,98	0	1007,64	5,6	7,8	7,7	1	1	1	1	1	1	1	1	1	0	1	-59,267089	272,993743	255,648264	0
15.01.2021	00:09:39	0	0	4,406506	2,57025	73,4472	-0,618	79	0	1007,7	5,6	7,7	7,7	1	1	1	1	1	1	1	1	1	0	1	-66,45525	273,01912	248,577211	0
15.01.2021	00:09:40	0	0	2,824701	2,30925	16,8696	-0,616	79,008	0	1007,78	5,6	7,8	7,6	1	1	1	1	1	1	1	1	1	0	1	-66,525722	273,01912	248,506739	0
15.01.2021	00:09:41	0	0	4,745525	2,2305	51,1344	-0,617	79,025	0	1007,78	5,5	7,8	7,5	1	1	1	1	1	1	1	1	1	0	1	-60,183228	273,010657	254,810177	0
15.01.2021	00:09:42	0	0	3,841593	2,1705	74,5416	-0,619	79,028	0	1007,66	5,5	7,7	7,6	1	1	1	1	1	1	1	1	1	0	1	-65,680056	272,93045	248,943346	0
15.01.2021	00:09:43	0	0	2,598725	2,2815	55,1844	-0,619	79,023	0	1007,76	5,6	7,8	7,6	1	1	1	1	1	1	1	1	1	0	1	-63,777308	272,854773	250,497289	0
15.01.2021	00:09:44	0	0	4,519548	2,4885	66,5316	-0,623	79,028	0	1007,68	5,6	7,8	7,5	1	1	1	1	1	1	1	1	1	0	1	-61,169838	273,03182	253,921248	0
15.01.2021	00:09:45	0	0	4,971503	2,49225	100,35	-0,623	79,04	0	1007,68	5,6	7,8	7,5	1	1	1	1	1	1	1	1	1	0	1	-65,821001	272,961367	248,944987	0
15.01.2021	00:09:46	0	0	2,937689	2,38725	86,6664	-0,626	79,031	0	1007,8	5,5	7,8	7,6	1	1	1	1	1	1	1	1	1	0	1	-64,552502	272,976845	250,284884	0
15.01.2021	00:09:47	0	0	3,728627	2,295	81,2016	-0,623	79,055	0	1007,72	5,6	7,8	7,5	1	1	1	1	1	1	1	1	1	0	1	-62,579281	272,851976	251,682429	0
15.01.2021	00:09:48	0	0	2,824684	2,26725	71,9964	-0,623	79,044	0	1007,8	5,6	7,7	7,7	1	1	1	1	1	1	1	1	1	0	1	-61,522199	272,879965	252,868482	0
15.01.2021	00:09:49	0	0	3,728605	2,26125	48,816	-0,627	79,06	0	1007,7	5,6	7,8	7,6	1	1	1	1	1	1	1	1	1	0	1	-61,310782	272,983884	253,55908	0
15.01.2021	00:09:50	0	0	3,050677	2,40825	70,8156	-0,616	79,091	0	1007,8	5,6	7,8	7,6	1	1	1	1	1	1	1	1	1	0	1	-60,042283	273,027586	255,029256	0
15.01.2021	00:09:51	0	0	4,067544	2,49975	73,4292	-0,621	79,071	0	1007,66	5,6	7,8	7,7	1	1	1	1	1	1	1	1	1	0	1	-63,072586	272,882766	251,331003	0
15.01.2021	00:09:52	0	0	4,858485	2,56725	74,9088	-0,621	79,084	0	1007,74	5,6	7,8	7,6	1	1	1	1	1	1	1	1	1	0	1	-63,284003	272,945902	251,410658	0
15.01.2021	00:09:53	0	0	4,293571	2,64375	74,5236	-0,62	79,084	0	1007,7	5,6	7,8	7,5	1	1	1	1	1	1	1	1	1	0	1	-63,565891	273,028997	251,512162	0
15.01.2021	00:09:54	0	0	3,38962	2,622	56,2788	-0,625	79,075	0	1007,66	5,6	7,7	7,7	1	1	1	1	1	1	1	1	1	0	1	-66,878083	272,995152	248,043771	0
15.01.2021	00:09:55	0	0	4,519521	2,45325	61,2936	-0,623	79,083	0	1007,78	5,6	7,8	7,6	1	1	1	1	1	1	1	1	1	0	1	-67,935166	272,920623	246,642927	0
15.01.2021	00:09:56	0	0	3,276653	2,26875	65,0736	-0,622	79,049	0	1007,78	5,6	7,8	7,6	1	1	1	1	1	1	1	1	1	0	1	-63,565891	273,010657	251,427513	0
15.01.2021	00:09:57	0	0	3,502629	2,07525	75,6072	-0,62	79,048	0	1007,78	5,6	7,8	7,6	1	1	1	1	1	1	1	1	1	0	1	-63,988724	273,028997	251,08933	0
15.01.2021	00:09:58	0	0	4,632509	2,05275	81,9684	-0,624	79,035	0	1007,8	5,6	7,8	7,6	1	1	1	1	1	1	1	1	1	0	1	-62,508809	272,971215	252,302606	0
15.01.2021	00:09:59	0	0	3,50265	2,40825	82,9692	-0,622	79,006	0	1007,78	5,6	7,8	7,5	1	1	1	1	1	1	1	1	1	0	1	-61,522199	272,906593	252,991215	0
15.01.2021	00:10:00	0	0	2,937689	2,78775	66,906	-0,631	78,977	0	1007,68	5,6	7,8	7,6	1	1	1	1	1	1	1	1	1	0	1	-67,582805	272,922027	247,001759	0
15.01.2021	00:10:01	0	0	2,485736	2,7075	74,9232	-0,626	78,975	0	1007,82	5,6	7,8	7,6	1	1	1	1	1	1	1	1	1	0	1	-62,508809	273,007837	252,471581	0
15.01.2021	00:10:02	0	0	2,485736	2,7075	74,9232	-0,626	78,975	0	1007,82	5,6	7,8	7,6	1	1	1	1	1	1	1	1	1	0	1	-62,508809	273,007837	252,471581	0
15.01.2021	00:10:03	0	0	3,276653	2,58075	72,3852	-0,623	78,97	0	1007,8	5,6	7,8	7,6	1	1	1	1	1	1	1	1	1	0	1	-57,998591	272,849179	256,250235	0
15.01.2021	00:10:04	0	0	4,519521	2,48775	68,76	-0,63	78,945	0	1007,68	5,6	7,8	7,6	1	1	1	1	1	1	1	1	1	0	1	-62,085976	272,85757	252,20151	0
15.01.2021	00:10:05	0	0	3,728605	2,3175	43,3044	-0,628	78,939	0	1007,72	5,6	7,8	7,6	1	1	1	1	1	1	1	1	1	0	1	-66,807611	272,891173	247,634721	0
15.01.2021	00:10:06	0	0	3,615595	2,37075	54,09	-0,635	78,937	0	1007,68	5,6	7,8	7,7	1	1	1	1	1	1	1	1	1	0	1	-63,213531	272,868765	251,125534	0
15.01.2021	00:10:07	0	0	3,615617	2,51175	60,228	-0,63	78,931	0	1007,8	5,6	7,8	7,6	1	1	1	1	1	1	1	1	1	0	1	-68,780832	272,922027	245,803732	0
15.01.2021	00:10:08	0	0	3,728605	2,43975	51,048	-0,634	78,918	0	1007,68	5,6	7,8	7,6	1	1	1	1	1	1	1	1	1	0	1	-61,87456	272,981068	252,98231	0
15.01.2021	00:10:09	0	0	4,067569	2,292	53,3556	-0,63	78,911	0	1007,64	5,6	7,8	7,6	1	1	1	1	1	1	1	1	1	0	1	-62,156448	273,028997	252,921606	0
15.01.2021	00:10:10	0	0	2,711713	2,1015	68,7636	-0,631	78,893	0	1007,7	5,6	7,8	7,6	1	1	1	1	1	1	1	1	1	0	1	-59,126145	272,899582	255,35495	0
15.01.2021	00:10:11	0	0	3,050677	2,01075	64,6416	-0,632	78,9	0	1007,76	5,6	7,8	7,6	1	1	1	1	1	1	1	1	1	0	1	-63,636364	272,962774	251,136112	0
15.01.2021	00:10:12	0	0	3,954581	1,91625	60,9372	-0,636	78,893	0	1007,82	5,6	7,8	7,6	1	1	1	1	1	1	1	1	1	0	1	-61,099366	272,892574	253,349426	0
15.01.2021	00:10:13	0	0	2,824701	1,81125	68,4144	-0,631	78,884	0	1007,8	5,6	7,8	7,6	1	1	1	1	1	1	1	1	1	0	1	-62,790698	273,043117	252,352538	0
15.01.2021	00:10:14	0	0	3,163665	1,75725	63,1656	-0,633	78,891	0	1007,7	5,6	7,8	7,6	1	1	1	1	1	1	1	1	1	0	1	-64,059197	272,954336	250,674361	0
15.01.2021	00:10:15	0	0	4,745497	1,70025	57,7548	-0,631	78,902	0	1007,72	5,6	7,8	7,6	1	1	1	1	1	1	1	1	1	0	1	-64,693446	273,014888	250,319484	0
15.01.2021	00:10:16	0	0	4,745497	1,66425	57,7368	-0,633	78,895	0	1007,86	5,6	7,8	7,6	1	1	1	1	1	1	1	1	1	0	1	-63,284003	272,895377	251,177708	0
15.01.2021	00:10:17	0	0	4,067569	1,63425	69,8508	-0,635	78,924	0	1007,9	5,6	7,7	7,6	1	1	1	1	1	1	1	1	1	0	1	-60,958421	272,933259	253,677932	0
15.01.2021	00:10:18	0	0	3,841593	1,791	82,3428	-0,635	78,933	0	1007,78	5,6	7,8	7,6	1	1	1	1	1	1	1	1	1	0	1	-65,116279	273,003608	249,844594	0
15.01.2021	00:10:19	0	0	3,502629	1,93275	62,7948	-0,643	78,942	0	1007,8	5,6	7,7	7,6	1	1	1	1	1	1	1	1	1	0	1	-61,028894	273,05018	254,146955	0
15.01.2021	00:10:20	0	0	3,502629	1,99875	74,178	-0,64	78,933	0	1007,7	5,6	7,8	7,6	1	1	1	1	1	1	1	1	1	0	1	-57,152925	272,88837	257,276491	0
15.01.2021	00:10:21	0	0	3,163665	2,067	69,9588	-0,645	78,938	0	1007,68	5,6	7,8	7,6	1	1	1	1	1	1	1	1	1	0	1	-59,760395	273,030409	255,324175	0
15.01.2021	00:10:22	0	0	3,050677	2,04975	57,438	-0,636	78,954	0	1007,54	5,6	7,8	7,6	1	1	1	1	1	1	1	1	1	0	1	-64,200141	273,027586	250,871398	0
15.01.2021	00:10:23	0	0	2,824701	2,028	68,4144	-0,646	78,946	0	1007,62	5,6	7,8	7,6	1	1	1	1	1	1	1	1	1	0	1	-67,44186	272,886969	246,981098	0
15.01.2021	00:10:24	0	0	4,745497	2,15025	70,6104	-0,642	78,95	0	1007,88	5,6	7,8	7,6	1	1	1	1	1	1	1	1	1	0	1	-65,891473	272,929046	248,725455	0
15.01.2021	00:10:25	0	0	4,519521	2,24925	59,8572	-0,645	78,955	0	1007,4	5,6	7,8	7,6	1	1	1	1	1	1	1	1	1	0	1	-61,522199	273,01912	253,510263	0
15.01.2021	00:10:26	0	0	3,728605	2,40675	55,1844	-0,648	78,968	0	1007,88	5,6	7,8	7,6	1	1	1	1	1	1	1	1	1	0	1	-59,408034	273,036056	255,702604	0
15.01.2021	00:10:27	0	0	3,615617	2,38425	33,2748	-0,638	78,991	0	1007,8	5,6	7,8	7,6	1	1	1	1	1	1	1	1	1	0	1	-61,733615	272,986701	253,149241	0
15.01.2021	00:10:28	0	0	3,615617	2,21925	38,808	-0,644	78,984	0	1007,7	5,6	7,8	7,6	1	1	1	1	1	1	1	1	1	0	1	-64,48203	273,047355	250,680772	0
15.01.2021	00:10:29	0	0	4,293545	1,98825	43,668	-0,645	78,984	0	1007,72	5,6	7,8	7,6	1	1	1	1	1	1	1	1	1	0	1	-64,411557	272,996561	250,516799	0
15.01.2021	00:10:30	0	0	2,598725	1,98975	59,5044	-0,649	78,986	0	1007,66	5,6	7,8	7,6	1	1	1	1	1	1	1	1	1	0	1	-63,284003	273,000789	251,663862	0
15.01.2021	00:10:31	0	0	3,276653	2,055	56,2788	-0,643	79,011	0	1007,84	5,6	7,8	7,6	1	1	1	1	1	1	1	1	1	0	1	-64,129669	272,85757	250,157817	0
15.01.2021	00:10:32	0	0	2,485736	2,1345	54,8928	-0,647	79,034	0	1007,52	5,6	7,8	7,6	1	1	1	1	1	1	1	1	1	0	1	-62,649753	272,981068	252,207116	0
15.01.2021	00:10:33	0	0	4,406533	2,11425	52,5132	-0,645	79,04	0	1007,86	5,6	7,8	7,6	1	1	1	1	1	1	1	1	1	0	1	-62,367865	273,024763	252,690646	0
15.01.2021	00:10:34	0	0	4,632509	2,2335	73,4364	-0,647	79,06	0	1007,74	5,6	7,8	7,6	1	1	1	1	1	1	1	1	1	0	1	-62,156448	273,027586	252,915091	0
15.01.2021	00:10:35	0	0	4,632509	2,31075	62,784	-0,648	79,052	0	1007,54	5,6	7,8	7,6	1	1	1	1	1	1	1	1	1	0	1	-65,46864	272,947308	249,232502	0
15.01.2021	00:10:36	0	0	3,954581	2,33175	68,7852	-0,653	79,057	0	1007,74	5,6	7,8	7,6	1	1	1	1	1	1	1	1	1	0	1	-64,552502	272,868765	249,786563	0
15.01.2021	00:10:37	0	0	4,971473	2,35575	55,9296	-0,647	79,076	0	1007,98	5,6	7,8	7,6	1	1	1	1	1	1	1	1	1	0	1	-59,830867	273,040292	255,299328	0
15.01.2021	00:10:38	0	0	4,858485	2,3445	53,3484	-0,647	79,086	0	1007,82	5,4	7,8	7,6	1	1	1	1	1	1	1	1	1	0	1	-64,552502	272,940282	250,116239	0
15.01.2021	00:10:39	0	0	4,858485	2,26125	59,8644	-0,648	79,107	0	1007,72	5,4	7,8	7,6	1	1	1	1	1	1	1	1	1	0	1	-64,552502	272,877164	249,825271	0
15.01.2021	00:10:40	0	0	4,293545	2,18925	67,2876	-0,651	79,117	0	1007,66	5,6	7,7	7,6	1	1	1	1	1	1	1	1	1	0	1	-61,945032	273,03888	253,178643	0
15.01.2021	00:10:41	0	0	2,485736	2,06925	58,4784	-0,65	79,127	0	1007,78	5,6	7,8	7,6	1	1	1	1	1	1	1	1	1	0	1	-64,059197	272,898181	250,415437	0
15.01.2021	00:10:42	0	0	2,372748	1,99425	57,7368	-0,651	79,124	0	1007,64	5,6	7,8	7,6	1	1	1	1	1	1	1	1	1	0	1	-58,985201	272,91922	255,586421	0
15.01.2021	00:10:43	0	0	4,971473	1,9875	46,3104	-0,651	79,109	0	1007,7	5,6	7,8	7,6	1	1	1	1	1	1	1	1	1	0	1	-65,680056	273,033232	249,417546	0
15.01.2021	00:10:44	0	0	4,519521	2,18025	57,0348	-0,651	79,126	0	1007,78	5,6	7,8	7,6	1	1	1	1	1	1	1	1	1	0	1	-65,609584	272,879965	248,781096	0
15.01.2021	00:10:45	0	0	2,598725	2,4525	57,4308	-0,647	79,124	0	1007,9	5,6	7,7	7,6	1	1	1	1	1	1	1	1	1	0	1	-63,918252	272,975437	250,91264	0
15.01.2021	00:10:46	0	0	2,711713	2,535	50,6952	-0,653	79,113	0	1007,8	5,6	7,8	7,6	1	1	1	1	1	1	1	1	1	0	1	-62,367865	272,865965	251,958302	0
15.01.2021	00:10:47	0	0	4,858485	2,74725	44,7732	-0,651	79,109	0	1007,66	5,4	7,8	7,6	1	1	1	1	1	1	1	1	1	0	1	-64,552502	273,028997	250,525552	0
15.01.2021	00:10:48	0	0	4,745497	2,87475	58,0932	-0,649	79,099	0	1007,8	5,6	7,7	7,6	1	1	1	1	1	1	1	1	1	0	1	-61,804087	272,951525	252,916502	0
15.01.2021	00:10:49	0	0	4,632509	3,0165	55,548	-0,647	79,09	0	1007,72	5,6	7,8	7,6	1	1	1	1	1	1	1	1	1	0	1	-61,310782	272,971215	253,500633	0
15.01.2021	00:10:50	0	0	2,598725	2,943	53,73	-0,652	79,098	0	1007,76	5,6	7,8	7,6	1	1	1	1	1	1	1	1	1	0	1	-64,83439	273,026174	250,230634	0
15.01.2021	00:10:51	0	0	3,502629	3,0045	62,4348	-0,652	79,084	0	1007,64	5,6	7,8	7,6	1	1	1	1	1	1	1	1	1	0	1	-64,270613	272,936068	250,378693	0
15.01.2021	00:10:52	0	0	4,745497	3,372	47,3904	-0,65	79,083	0	1007,78	5,4	7,8	7,6	1	1	1	1	1	1	1	1	1	0	1	-64,763918	272,863167	249,549353	0
15.01.2021	00:10:53	0	0	4,406533	3,82275	45,54	-0,653	79,088	0	1007,72	5,4	7,7	7,6	1	1	1	1	1	1	1	1	1	0	1	-61,87456	273,028997	253,203494	0
15.01.2021	00:10:54	0	0	2,598725	3,83775	58,4928	-0,658	79,107	0	1007,7	5,6	7,8	7,6	1	1	1	1	1	1	1	1	1	0	1	-63,424947	272,889771	251,010927	0
15.01.2021	00:10:55	0	0	3,163665	3,6555	56,6784	-0,657	79,13	0	1007,78	5,4	7,7	7,6	1	1	1	1	1	1	1	1	1	0	1	-67,44186	272,936068	247,207446	0
15.01.2021	00:10:56	0	0	5,084461	3,38925	77,58	-0,66	79,157	0	1007,66	5,6	7,7	7,6	1	1	1	1	1	1	1	1	1	0	1	-62,438337	273,040292	252,691858	0
15.01.2021	00:10:57	0	0	4,519521	3,2865	63,8568	-0,655	79,16	0	1007,72	5,6	7,7	7,6	1	1	1	1	1	1	1	1	1	0	1	-62,156448	272,877164	252,221325	0
15.01.2021	00:10:58	0	0	3,841593	3,3075	71,2512	-0,657	79,168	0	1007,74	5,6	7,7	7,6	1	1	1	1	1	1	1	1	1	0	1	-64,48203	272,938877	250,180232	0
15.01.2021	00:10:59	0	0	4,632509	3,2055	80,9028	-0,657	79,184	0	1007,64	5,4	7,7	7,6	1	1	1	1	1	1	1	1	1	0	1	-63,918252	272,990926	250,984101	0
15.01.2021	00:11:00	0	0	4,745497	3,00825	75,2112	-0,658	79,252	0	1007,68	5,6	7,7	7,6	1	1	1	1	1	1	1	1	1	0	1	-59,196617	273,027586	255,874922	0
15.01.2021	00:11:01	0	0	3,841593	2,75325	67,2768	-0,657	79,278	0	1007,76	5,4	7,8	7,6	1	1	1	1	1	1	1	1	1	0	1	-63,424947	272,917816	251,140205	0
15.01.2021	00:11:02	0	0	3,841593	2,75325	67,2768	-0,657	79,278	0	1007,76	5,4	7,8	7,6	1	1	1	1	1	1	1	1	1	0	1	-63,424947	272,917816	251,140205	0
15.01.2021	00:11:03	0	0	4,632509	2,5545	49,9716	-0,658	79,312	0	1007,72	5,6	7,7	7,6	1	1	1	1	1	1	1	1	1	0	1	-62,508809	272,870164	251,836706	0
15.01.2021	00:11:04	0	0	4,180557	2,658	74,9412	-0,656	79,349	0	1007,78	5,4	7,7	7,6	1	1	1	1	1	1	1	1	1	0	1	-61,028894	273,002198	253,925475	0
15.01.2021	00:11:05	0	0	3,389641	2,7495	66,9276	-0,657	79,374	0	1007,82	5,6	7,7	7,6	1	1	1	1	1	1	1	1	1	0	1	-59,408034	272,913607	255,137712	0
15.01.2021	00:11:06	0	0	4,632509	2,6505	44,3988	-0,655	79,407	0	1007,76	5,4	7,7	7,6	1	1	1	1	1	1	1	1	1	0	1	-59,408034	272,865965	254,918133	0
15.01.2021	00:11:07	0	0	2,937689	2,61975	49,5576	-0,654	79,418	0	1007,72	5,4	7,8	7,6	1	1	1	1	1	1	1	1	1	0	1	-61,87456	272,943092	252,80714	0
15.01.2021	00:11:08	0	0	2,598725	2,61975	55,1844	-0,653	79,437	0	1007,6	5,4	7,7	7,6	1	1	1	1	1	1	1	1	1	0	1	-64,904863	272,899582	249,576233	0
15.01.2021	00:11:09	0	0	3,502629	2,487	38,9016	-0,656	79,447	0	1007,88	5,6	7,7	7,6	1	1	1	1	1	1	1	1	1	0	1	-67,582805	272,878565	246,801422	0
15.01.2021	00:11:10	0	0	3,954581	2,37	37,314	-0,654	79,456	0	1007,84	5,6	7,7	7,6	1	1	1	1	1	1	1	1	1	0	1	-67,512333	272,978252	247,331547	0
15.01.2021	00:11:11	0	0	3,389641	2,322	40,6008	-0,653	79,473	0	1007,74	5,6	7,7	7,6	1	1	1	1	1	1	1	1	1	0	1	-59,901339	272,872964	254,457077	0
15.01.2021	00:11:12	0	0	5,423425	2,41725	43,3044	-0,652	79,478	0	1007,76	5,6	7,7	7,6	1	1	1	1	1	1	1	1	1	0	1	-62,015504	273,045942	253,140775	0
15.01.2021	00:11:13	0	0	3,050677	2,52	47,0124	-0,66	79,48	0	1007,74	5,6	7,7	7,6	1	1	1	1	1	1	1	1	1	0	1	-63,354475	272,995152	251,567379	0
15.01.2021	00:11:14	0	0	2,824701	2,4885	39,5388	-0,657	79,531	0	1007,9	5,6	7,8	7,6	1	1	1	1	1	1	1	1	1	0	1	-64,622974	272,886969	249,799984	0
15.01.2021	00:11:15	0	0	4,406533	2,41725	39,1536	-0,655	79,537	0	1007,7	5,6	7,8	7,6	1	1	1	1	1	1	1	1	1	0	1	-60,958421	272,879965	253,432259	0
15.01.2021	00:11:16	0	0	2,485736	2,50575	35,0676	-0,653	79,532	0	1007,78	5,6	7,7	7,6	1	1	1	1	1	1	1	1	1	0	1	-61,381254	272,97403	253,443145	0
15.01.2021	00:11:17	0	0	3,276653	2,556	35,8776	-0,654	79,554	0	1007,7	5,6	7,7	7,6	1	1	1	1	1	1	1	1	1	0	1	-67,159972	272,945902	247,534689	0
15.01.2021	00:11:18	0	0	3,615617	2,77575	37,3176	-0,653	79,569	0	1007,72	5,4	7,8	7,6	1	1	1	1	1	1	1	1	1	0	1	-62,156448	272,91922	252,415174	0
15.01.2021	00:11:19	0	0	2,937689	2,7915	31,4208	-0,647	79,578	0	1007,92	5,4	7,8	7,6	1	1	1	1	1	1	1	1	1	0	1	-60,112755	272,938877	254,549507	0
15.01.2021	00:11:20	0	0	4,858485	2,643	33,264	-0,654	79,592	0	1007,82	5,6	7,8	7,6	1	1	1	1	1	1	1	1	1	0	1	-63,213531	273,061488	252,014529	0
15.01.2021	00:11:21	0	0	2,711713	2,66175	34,3332	-0,653	79,587	0	1007,78	5,6	7,7	7,6	1	1	1	1	1	1	1	1	1	0	1	-59,267089	273,006427	255,706794	0
15.01.2021	00:11:22	0	0	2,598725	2,58675	20,646	-0,648	79,59	0	1007,76	5,4	7,8	7,6	1	1	1	1	1	1	1	1	1	0	1	-64,48203	273,021941	250,563455	0
15.01.2021	00:11:23	0	0	3,841593	2,38875	66,9312	-0,649	79,589	0	1007,78	5,6	7,7	7,6	1	1	1	1	1	1	1	1	1	0	1	-61,945032	272,878565	252,439195	0
15.01.2021	00:11:24	0	0	4,406533	2,322	37,6884	-0,646	79,591	0	1007,74	5,4	7,7	7,6	1	1	1	1	1	1	1	1	1	0	1	-63,284003	272,962774	251,488473	0
15.01.2021	00:11:25	0	0	4,971473	2,66625	38,0772	-0,649	79,601	0	1007,8	5,6	7,7	7,6	1	1	1	1	1	1	1	1	1	0	1	-64,129669	273,068558	251,131041	0
15.01.2021	00:11:26	0	0	2,937689	2,946	46,602	-0,648	79,603	0	1007,8	5,4	7,7	7,6	1	1	1	1	1	1	1	1	1	0	1	-61,804087	272,91501	252,748127	0
15.01.2021	00:11:27	0	0	2,598725	3,0195	42,5988	-0,646	79,605	0	1007,74	5,6	7,7	7,6	1	1	1	1	1	1	1	1	1	0	1	-63,988724	272,966994	250,803218	0
15.01.2021	00:11:28	0	0	3,954581	2,994	42,912	-0,644	79,596	0	1007,72	5,4	7,7	7,6	1	1	1	1	1	1	1	1	1	0	1	-60,324172	272,902386	254,169849	0
15.01.2021	00:11:29	0	0	3,841593	3,17475	39,1752	-0,645	79,599	0	1007,62	5,6	7,7	7,6	1	1	1	1	1	1	1	1	1	0	1	-61,310782	272,941687	253,364437	0
15.01.2021	00:11:30	0	0	2,824701	3,26025	46,3356	-0,647	79,595	0	1007,7	5,6	7,7	7,6	1	1	1	1	1	1	1	1	1	0	1	-64,552502	272,900984	249,935056	0
15.01.2021	00:11:31	0	0	4,632509	3,22275	39,6288	-0,644	79,613	0	1007,82	5,6	7,7	7,6	1	1	1	1	1	1	1	1	1	0	1	-62,508809	273,023352	252,543188	0
15.01.2021	00:11:32	0	0	4,293545	3,29325	44,7948	-0,645	79,605	0	1007,74	5,6	7,7	7,6	1	1	1	1	1	1	1	1	1	0	1	-64,341085	273,023352	250,710912	0
15.01.2021	00:11:33	0	0	2,937689	3,525	51,4332	-0,644	79,634	0	1007,64	5,6	7,7	7,6	1	1	1	1	1	1	1	1	1	0	1	-64,904863	273,067144	250,349316	0
15.01.2021	00:11:34	0	0	4,745497	3,37425	52,9272	-0,645	79,664	0	1007,72	5,6	7,7	7,6	1	1	1	1	1	1	1	1	1	0	1	-61,028894	272,936068	253,620413	0
15.01.2021	00:11:35	0	0	5,084461	3,13875	42,912	-0,644	79,623	0	1007,84	5,6	7,7	7,6	1	1	1	1	1	1	1	1	1	0	1	-63,072586	273,06573	252,175061	0
15.01.2021	00:11:36	0	0	3,389641	3,29625	47,3724	-0,644	79,644	0	1007,84	5,6	7,7	7,6	1	1	1	1	1	1	1	1	1	0	1	-63,636364	273,03888	251,487312	0
15.01.2021	00:11:37	0	0	4,067569	3,3765	43,686	-0,652	79,639	0	1007,72	5,6	7,7	7,6	1	1	1	1	1	1	1	1	1	0	1	-63,284003	272,945902	251,410658	0
15.01.2021	00:11:38	0	0	3,276653	3,4485	54,0936	-0,641	79,649	0	1007,78	5,6	7,7	7,6	1	1	1	1	1	1	1	1	1	0	1	-64,763918	272,909398	249,762426	0
15.01.2021	00:11:39	0	0	2,824701	3,46425	70,6176	-0,644	79,656	0	1007,78	5,6	7,7	7,6	1	1	1	1	1	1	1	1	1	0	1	-62,085976	273,013478	252,920445	0
15.01.2021	00:11:40	0	0	3,276653	3,0945	54,7848	-0,648	79,654	0	1007,74	5,6	7,8	7,6	1	1	1	1	1	1	1	1	1	0	1	-61,028894	272,92343	253,562142	0
15.01.2021	00:11:41	0	0	3,276653	3,08475	48,1284	-0,643	79,656	0	1007,78	5,6	7,7	7,6	1	1	1	1	1	1	1	1	1	0	1	-64,83439	273,068558	250,426319	0
15.01.2021	00:11:42	0	0	4,519575	3,20175	32,1588	-0,643	79,654	0	1007,8	5,6	7,7	7,4	1	1	1	1	1	1	1	1	1	0	1	-64,48203	272,951525	250,23856	0
15.01.2021	00:11:43	0	0	3,728605	2,98725	36,6192	-0,646	79,653	0	1007,94	5,6	7,8	7,6	1	1	1	1	1	1	1	1	1	0	1	-65,680056	272,912204	248,859222	0
15.01.2021	00:11:44	0	0	4,745497	2,8695	27,6696	-0,641	79,635	0	1007,78	5,6	7,7	7,6	1	1	1	1	1	1	1	1	1	0	1	-64,059197	273,033232	251,038406	0
15.01.2021	00:11:45	0	0	2,824701	2,7405	39,5532	-0,645	79,636	0	1007,8	5,6	7,7	7,6	1	1	1	1	1	1	1	1	1	0	1	-66,243834	272,913607	248,301912	0
15.01.2021	00:11:46	0	0	4,519521	2,6835	41,0112	-0,639	79,636	0	1007,84	5,6	7,7	7,6	1	1	1	1	1	1	1	1	1	0	1	-61,945032	273,086954	253,400638	0
15.01.2021	00:11:47	0	0	3,615617	2,6565	28,7244	-0,638	79,635	0	1007,86	5,6	7,7	7,6	1	1	1	1	1	1	1	1	1	0	1	-69,344609	273,007837	245,635781	0
15.01.2021	00:11:48	0	0	2,598725	2,40675	18,1008	-0,635	79,628	0	1007,76	5,6	7,7	7,6	1	1	1	1	1	1	1	1	1	0	1	-64,552502	272,902386	249,941519	0
15.01.2021	00:11:49	0	0	4,858485	2,2425	40,248	-0,637	79,62	0	1007,98	5,6	7,7	7,6	1	1	1	1	1	1	1	1	1	0	1	-59,61945	272,924834	254,978058	0
15.01.2021	00:11:50	0	0	4,745497	2,28075	39,168	-0,638	79,63	0	1007,92	5,6	7,8	7,6	1	1	1	1	1	1	1	1	1	0	1	-64,763918	273,014888	250,249012	0
15.01.2021	00:11:51	0	0	2,372748	2,331	29,1024	-0,64	79,62	0	1007,9	5,4	7,7	7,6	1	1	1	1	1	1	1	1	1	0	1	-62,22692	272,940282	252,44182	0
15.01.2021	00:11:52	0	0	4,519521	2,42775	28,7388	-0,64	79,629	0	1007,78	5,4	7,7	7,6	1	1	1	1	1	1	1	1	1	0	1	-62,156448	272,910801	252,376363	0
15.01.2021	00:11:53	0	0	4,632509	2,553	38,0556	-0,638	79,636	0	1007,82	5,4	7,7	7,6	1	1	1	1	1	1	1	1	1	0	1	-67,582805	272,965587	247,202648	0
15.01.2021	00:11:54	0	0	4,745497	2,88075	32,8896	-0,634	79,628	0	1007,9	5,6	7,7	7,6	1	1	1	1	1	1	1	1	1	0	1	-64,270613	272,912204	250,268665	0
15.01.2021	00:11:55	0	0	4,745497	3,15225	43,2864	-0,634	79,615	0	1007,82	5,6	7,7	7,6	1	1	1	1	1	1	1	1	1	0	1	-65,821001	273,045942	249,335278	0
15.01.2021	00:11:56	0	0	4,745525	3,3585	55,1988	-0,632	79,621	0	1007,82	5,6	7,7	7,5	1	1	1	1	1	1	1	1	1	0	1	-63,84778	273,02053	251,191193	0
15.01.2021	00:11:57	0	0	3,954581	3,303	47,7396	-0,635	79,603	0	1007,94	5,6	7,7	7,6	1	1	1	1	1	1	1	1	1	0	1	-61,87456	272,903789	252,625925	0
15.01.2021	00:11:58	0	0	4,858485	3,74475	47,7504	-0,637	79,607	0	1007,88	5,6	7,7	7,6	1	1	1	1	1	1	1	1	1	0	1	-62,86117	272,982476	252,002196	0
15.01.2021	00:11:59	0	0	2,598725	4,2165	48,1212	-0,633	79,61	0	1007,96	5,6	7,7	7,6	1	1	1	1	1	1	1	1	1	0	1	-63,988724	273,085538	251,350406	0
15.01.2021	00:12:00	0	0	4,180557	3,98175	44,4024	-0,637	79,594	0	1007,7	5,6	7,7	7,6	1	1	1	1	1	1	1	1	1	0	1	-67,512333	272,988109	247,377022	0
15.01.2021	00:12:01	0	0	4,858485	4,03275	52,5312	-0,63	79,603	0	1007,78	5,6	7,7	7,6	1	1	1	1	1	1	1	1	1	0	1	-64,83439	273,081292	250,485127	0
15.01.2021	00:12:02	0	0	4,858485	4,03275	52,5312	-0,63	79,603	0	1007,78	5,6	7,7	7,6	1	1	1	1	1	1	1	1	1	0	1	-64,83439	273,081292	250,485127	0
15.01.2021	00:12:03	0	0	2,146772	3,948	44,4024	-0,631	79,595	0	1007,54	5,6	7,7	7,6	1	1	1	1	1	1	1	1	1	0	1	-69,344609	272,91501	245,207605	0
15.01.2021	00:12:04	0	0	3,163665	3,73125	52,8876	-0,631	79,581	0	1007,86	5,4	7,8	7,6	1	1	1	1	1	1	1	1	1	0	1	-64,693446	273,060074	250,528085	0
15.01.2021	00:12:05	0	0	3,728605	3,4425	46,9836	-0,63	79,586	0	1007,7	5,6	7,7	7,6	1	1	1	1	1	1	1	1	1	0	1	-62,367865	273,051594	252,814508	0
15.01.2021	00:12:06	0	0	4,745497	3,1965	45,5292	-0,633	79,61	0	1007,68	5,6	7,7	7,6	1	1	1	1	1	1	1	1	1	0	1	-65,609584	273,021941	249,435901	0
15.01.2021	00:12:07	0	0	2,937724	3,2685	46,5984	-0,632	79,611	0	1007,56	5,6	7,7	7,4	1	1	1	1	1	1	1	1	1	0	1	-61,310782	272,903789	253,189702	0
15.01.2021	00:12:08	0	0	3,615617	3,66675	44,406	-0,627	79,63	0	1007,86	5,6	7,7	7,6	1	1	1	1	1	1	1	1	1	0	1	-62,790698	272,99938	252,150663	0
15.01.2021	00:12:09	0	0	4,180557	3,927	50,6988	-0,624	79,641	0	1007,78	5,6	7,7	7,6	1	1	1	1	1	1	1	1	1	0	1	-68,217054	272,910801	246,315757	0
15.01.2021	00:12:10	0	0	2,598725	3,85575	48,5064	-0,627	79,663	0	1007,88	5,6	7,7	7,6	1	1	1	1	1	1	1	1	1	0	1	-64,341085	273,036056	250,769552	0
15.01.2021	00:12:11	0	0	2,598725	3,59175	46,2276	-0,629	79,677	0	1007,82	5,6	7,7	7,6	1	1	1	1	1	1	1	1	1	0	1	-67,935166	273,069973	247,332076	0
15.01.2021	00:12:12	0	0	4,406533	3,29025	52,1388	-0,625	79,698	0	1007,74	5,6	7,7	7,6	1	1	1	1	1	1	1	1	1	0	1	-64,83439	272,907996	249,685488	0
15.01.2021	00:12:13	0	0	2,824701	3,28275	43,2972	-0,626	79,706	0	1007,8	5,6	7,7	7,6	1	1	1	1	1	1	1	1	1	0	1	-67,512333	273,077046	247,787577	0
15.01.2021	00:12:14	0	0	4,067569	3,1755	53,3376	-0,63	79,714	0	1007,56	5,6	7,7	7,6	1	1	1	1	1	1	1	1	1	0	1	-64,411557	273,017709	250,614393	0
15.01.2021	00:12:15	0	0	4,745497	3,2415	55,9224	-0,622	79,742	0	1007,6	5,6	7,7	7,6	1	1	1	1	1	1	1	1	1	0	1	-62,22692	273,034644	252,877199	0
15.01.2021	00:12:16	0	0	4,745497	3,252	56,6604	-0,621	79,761	0	1007,86	5,6	7,7	7,6	1	1	1	1	1	1	1	1	1	0	1	-59,61945	272,905191	254,887498	0
15.01.2021	00:12:17	0	0	4,858485	3,15975	65,4732	-0,626	79,754	0	1007,72	5,6	7,7	7,6	1	1	1	1	1	1	1	1	1	0	1	-63,918252	272,97966	250,932122	0
15.01.2021	00:12:18	0	0	4,745497	3,04275	53,7264	-0,622	79,765	0	1007,68	5,6	7,7	7,6	1	1	1	1	1	1	1	1	1	0	1	-62,085976	273,06573	253,161672	0
15.01.2021	00:12:19	0	0	4,632509	3,0495	71,9748	-0,619	79,775	0	1007,94	5,6	7,7	7,6	1	1	1	1	1	1	1	1	1	0	1	-61,310782	272,906593	253,202631	0
15.01.2021	00:12:20	0	0	4,971473	3,10575	67,6692	-0,622	79,759	0	1007,72	5,4	7,7	7,6	1	1	1	1	1	1	1	1	1	0	1	-59,267089	272,975437	255,563803	0
15.01.2021	00:12:21	0	0	3,728605	3,087	63,1944	-0,615	79,755	0	1007,7	5,4	7,7	7,6	1	1	1	1	1	1	1	1	1	0	1	-66,45525	273,078461	248,851195	0
15.01.2021	00:12:22	0	0	2,598725	3,01425	62,0352	-0,624	79,76	0	1007,82	5,6	7,7	7,6	1	1	1	1	1	1	1	1	1	0	1	-68,992248	272,913607	245,553498	0
15.01.2021	00:12:23	0	0	4,180557	2,83725	82,9872	-0,616	79,757	0	1007,96	5,4	7,7	7,6	1	1	1	1	1	1	1	1	1	0	1	-62,297393	272,972622	252,520514	0
15.01.2021	00:12:24	0	0	3,841593	2,58825	57,7332	-0,622	79,763	0	1007,72	5,6	7,7	7,6	1	1	1	1	1	1	1	1	1	0	1	-63,918252	273,085538	251,420878	0
15.01.2021	00:12:25	0	0	3,163665	2,391	55,6488	-0,616	79,769	0	1007,86	5,6	7,7	7,6	1	1	1	1	1	1	1	1	1	0	1	-60,958421	272,916413	253,600262	0
15.01.2021	00:12:26	0	0	3,502629	2,41875	58,95	-0,614	79,748	0	1007,92	5,6	7,7	7,6	1	1	1	1	1	1	1	1	1	0	1	-61,733615	273,016298	253,285825	0
15.01.2021	00:12:27	0	0	3,502629	2,412	62,046	-0,617	79,739	0	1008	5,6	7,7	7,6	1	1	1	1	1	1	1	1	1	0	1	-64,059197	272,910801	250,473615	0
15.01.2021	00:12:28	0	0	4,067569	2,3865	48,8088	-0,621	79,705	0	1007,74	5,4	7,7	7,6	1	1	1	1	1	1	1	1	1	0	1	-58,844257	272,969808	255,960667	0
15.01.2021	00:12:29	0	0	4,971473	2,2395	64,2456	-0,62	79,716	0	1007,6	5,6	7,7	7,6	1	1	1	1	1	1	1	1	1	0	1	-61,522199	273,078461	253,784246	0
15.01.2021	00:12:30	0	0	4,406533	2,112	67,3056	-0,611	79,687	0	1007,66	5,6	7,7	7,6	1	1	1	1	1	1	1	1	1	0	1	-63,495419	273,044529	251,654338	0
15.01.2021	00:12:31	0	0	4,745497	2,223	66,528	-0,609	79,681	0	1008	5,6	7,7	7,6	1	1	1	1	1	1	1	1	1	0	1	-67,230444	273,014888	247,782486	0
15.01.2021	00:12:32	0	0	2,372763	2,54625	73,4292	-0,61	79,669	0	1007,76	5,5	7,8	7,5	1	1	1	1	1	1	1	1	1	0	1	-64,975335	273,092618	250,396496	0
15.01.2021	00:12:33	0	0	3,954581	3,1515	74,9016	-0,613	79,647	0	1007,78	5,6	7,7	7,6	1	1	1	1	1	1	1	1	1	0	1	-63,495419	272,95293	251,231654	0
15.01.2021	00:12:34	0	0	4,971503	3,366	73,4544	-0,616	79,645	0	1007,74	5,6	7,7	7,5	1	1	1	1	1	1	1	1	1	0	1	-58,139535	272,898181	256,335098	0
15.01.2021	00:12:35	0	0	2,937689	3,288	84,42	-0,609	79,627	0	1007,86	5,5	7,7	7,6	1	1	1	1	1	1	1	1	1	0	1	-62,297393	272,931854	252,332485	0
15.01.2021	00:12:36	0	0	2,824718	3,03375	65,8296	-0,607	79,608	0	1007,7	5,4	7,7	7,5	1	1	1	1	1	1	1	1	1	0	1	-62,720226	273,012067	252,279687	0
15.01.2021	00:12:37	0	0	4,293545	2,76225	52,5276	-0,609	79,58	0	1007,84	5,6	7,7	7,6	1	1	1	1	1	1	1	1	1	0	1	-63,777308	272,88837	250,652108	0
15.01.2021	00:12:38	0	0	2,485736	2,577	46,2384	-0,612	79,548	0	1007,7	5,4	7,7	7,6	1	1	1	1	1	1	1	1	1	0	1	-66,384778	273,030409	248,699792	0
15.01.2021	00:12:39	0	0	3,502629	2,5695	47,7504	-0,606	79,535	0	1007,8	5,5	7,7	7,6	1	1	1	1	1	1	1	1	1	0	1	-63,284003	273,067144	251,970176	0
15.01.2021	00:12:40	0	0	4,180557	2,60175	63,1728	-0,608	79,507	0	1007,64	5,6	7,7	7,6	1	1	1	1	1	1	1	1	1	0	1	-61,169838	273,055833	254,032111	0
15.01.2021	00:12:41	0	0	4,519521	2,79	54,1044	-0,607	79,503	0	1007,86	5,6	7,7	7,6	1	1	1	1	1	1	1	1	1	0	1	-63,565891	273,030409	251,518678	0
15.01.2021	00:12:42	0	0	2,598725	2,97525	82,602	-0,603	79,49	0	1007,82	5,6	7,7	7,6	1	1	1	1	1	1	1	1	1	0	1	-62,579281	273,081292	252,740236	0
15.01.2021	00:12:43	0	0	5,197449	2,84025	78,0012	-0,608	79,494	0	1007,82	5,4	7,7	7,6	1	1	1	1	1	1	1	1	1	0	1	-61,099366	273,062902	254,135222	0
15.01.2021	00:12:44	0	0	2,259774	2,6715	79,4268	-0,607	79,512	0	1007,92	5,4	7,7	7,5	1	1	1	1	1	1	1	1	1	0	1	-61,87456	273,023352	253,177438	0
15.01.2021	00:12:45	0	0	4,519521	2,727	74,1456	-0,605	79,527	0	1007,78	5,6	7,7	7,6	1	1	1	1	1	1	1	1	1	0	1	-64,763918	272,906593	249,749495	0
15.01.2021	00:12:46	0	0	5,423425	2,85525	48,1176	-0,605	79,536	0	1007,94	5,6	7,7	7,6	1	1	1	1	1	1	1	1	1	0	1	-66,173362	273,05866	249,041641	0
15.01.2021	00:12:47	0	0	4,858485	2,898	72,2988	-0,606	79,532	0	1007,86	5,4	7,7	7,6	1	1	1	1	1	1	1	1	1	0	1	-63,072586	273,060074	252,148944	0
15.01.2021	00:12:48	0	0	3,276653	2,76	46,9908	-0,604	79,507	0	1007,56	5,4	7,7	7,6	1	1	1	1	1	1	1	1	1	0	1	-59,760395	272,91922	254,811228	0
15.01.2021	00:12:49	0	0	4,858514	2,814	86,2992	-0,605	79,509	0	1007,82	5,6	7,7	7,5	1	1	1	1	1	1	1	1	1	0	1	-66,948555	273,03888	248,17512	0
15.01.2021	00:12:50	0	0	2,711713	2,7615	80,91	-0,6	79,489	0	1007,82	5,5	7,8	7,6	1	1	1	1	1	1	1	1	1	0	1	-60,183228	272,920623	254,394865	0
15.01.2021	00:12:51	0	0	2,485736	2,60175	70,2396	-0,607	79,474	0	1007,94	5,4	7,7	7,6	1	1	1	1	1	1	1	1	1	0	1	-61,87456	273,05018	253,301289	0
15.01.2021	00:12:52	0	0	4,632509	2,62425	74,9268	-0,607	79,45	0	1007,8	5,6	7,7	7,6	1	1	1	1	1	1	1	1	1	0	1	-65,680056	272,958555	249,072958	0
15.01.2021	00:12:53	0	0	3,841593	2,83425	61,686	-0,608	79,42	0	1007,78	5,6	7,7	7,6	1	1	1	1	1	1	1	1	1	0	1	-65,045807	272,907996	249,474072	0
15.01.2021	00:12:54	0	0	3,389641	3,05325	71,9748	-0,608	79,422	0	1007,9	5,6	7,7	7,6	1	1	1	1	1	1	1	1	1	0	1	-61,381254	272,981068	253,475615	0
15.01.2021	00:12:55	0	0	4,406533	3,4425	59,5008	-0,608	79,424	0	1007,82	5,6	7,7	7,6	1	1	1	1	1	1	1	1	1	0	1	-66,102889	273,101116	249,308201	0
15.01.2021	00:12:56	0	0	2,824701	3,65475	62,0424	-0,604	79,425	0	1007,82	5,6	7,7	7,6	1	1	1	1	1	1	1	1	1	0	1	-62,931642	273,061488	252,296417	0
15.01.2021	00:12:57	0	0	2,711713	3,73125	73,764	-0,604	79,424	0	1007,76	5,4	7,7	7,6	1	1	1	1	1	1	1	1	1	0	1	-62,085976	273,074217	253,200865	0
15.01.2021	00:12:58	0	0	3,276653	3,64575	71,2044	-0,609	79,42	0	1007,8	5,4	7,8	7,6	1	1	1	1	1	1	1	1	1	0	1	-61,945032	273,094034	253,433341	0
15.01.2021	00:12:59	0	0	2,937689	3,42	51,426	-0,608	79,44	0	1007,82	5,6	7,7	7,6	1	1	1	1	1	1	1	1	1	0	1	-63,84778	273,03888	251,275895	0
15.01.2021	00:13:00	0	0	3,841593	3,49125	63,468	-0,607	79,426	0	1007,84	5,4	7,7	7,6	1	1	1	1	1	1	1	1	1	0	1	-63,706836	272,941687	250,968384	0
15.01.2021	00:13:01	0	0	3,615638	3,645	63,8532	-0,602	79,419	0	1007,88	5,6	7,7	7,5	1	1	1	1	1	1	1	1	1	0	1	-63,777308	273,028997	251,300746	0
15.01.2021	00:13:02	0	0	3,615638	3,645	63,8532	-0,602	79,419	0	1007,88	5,6	7,7	7,5	1	1	1	1	1	1	1	1	1	0	1	-63,777308	273,028997	251,300746	0
15.01.2021	00:13:03	0	0	2,937689	3,8115	69,1668	-0,607	79,402	0	1007,86	5,6	7,7	7,6	1	1	1	1	1	1	1	1	1	0	1	-62,720226	273,096866	252,671233	0
15.01.2021	00:13:04	0	0	3,954581	4,0095	65,0952	-0,605	79,39	0	1007,9	5,6	7,7	7,6	1	1	1	1	1	1	1	1	1	0	1	-63,002114	273,112454	252,461355	0
15.01.2021	00:13:05	0	0	5,084461	4,11675	67,6656	-0,606	79,379	0	1007,78	5,6	7,7	7,6	1	1	1	1	1	1	1	1	1	0	1	-68,357999	273,012067	246,641914	0
15.01.2021	00:13:06	0	0	3,276653	4,20825	71,2368	-0,603	79,371	0	1007,82	5,6	7,7	7,6	1	1	1	1	1	1	1	1	1	0	1	-61,945032	272,941687	252,730188	0
15.01.2021	00:13:07	0	0	2,937689	4,1955	63,8928	-0,608	79,389	0	1007,96	5,5	7,7	7,6	1	1	1	1	1	1	1	1	1	0	1	-63,565891	273,053007	251,623006	0
15.01.2021	00:13:08	0	0	3,954581	4,077	62,4168	-0,609	79,377	0	1007,72	5,4	7,7	7,6	1	1	1	1	1	1	1	1	1	0	1	-63,565891	273,112454	251,897578	0
15.01.2021	00:13:09	0	0	4,406533	4,01775	63,8784	-0,603	79,373	0	1007,76	5,4	7,7	7,6	1	1	1	1	1	1	1	1	1	0	1	-65,257223	273,05018	249,918625	0
15.01.2021	00:13:10	0	0	3,615617	4,07175	60,2676	-0,608	79,381	0	1007,84	5,6	7,7	7,6	1	1	1	1	1	1	1	1	1	0	1	-68,287526	273,12238	247,221805	0
15.01.2021	00:13:11	0	0	4,632537	4,19625	58,8744	-0,604	79,367	0	1007,8	5,6	7,7	7,5	1	1	1	1	1	1	1	1	1	0	1	-66,878083	273,068558	248,382627	0
15.01.2021	00:13:12	0	0	4,858514	4,31925	63,198	-0,604	79,363	0	1007,86	5,6	7,7	7,5	1	1	1	1	1	1	1	1	1	0	1	-63,424947	272,982476	251,438418	0
15.01.2021	00:13:13	0	0	4,745497	4,14525	56,3076	-0,609	79,376	0	1007,68	5,5	7,7	7,6	1	1	1	1	1	1	1	1	1	0	1	-64,270613	272,950119	250,443494	0
15.01.2021	00:13:14	0	0	4,067569	4,03275	57,7332	-0,607	79,411	0	1007,92	5,6	7,7	7,6	1	1	1	1	1	1	1	1	1	0	1	-66,525722	273,017709	248,500228	0
15.01.2021	00:13:15	0	0	4,971473	4,02525	79,7544	-0,605	79,422	0	1007,84	5,6	7,7	7,6	1	1	1	1	1	1	1	1	1	0	1	-60,2537	273,123798	255,262186	0
15.01.2021	00:13:16	0	0	2,711713	3,9735	70,2288	-0,604	79,438	0	1007,7	5,4	7,7	7,6	1	1	1	1	1	1	1	1	1	0	1	-63,284003	273,12238	252,225329	0
15.01.2021	00:13:17	0	0	3,389641	3,87375	53,3592	-0,599	79,481	0	1007,82	5,6	7,7	7,6	1	1	1	1	1	1	1	1	1	0	1	-64,622974	273,037468	250,494182	0
15.01.2021	00:13:18	0	0	2,485736	3,81225	58,8564	-0,605	79,513	0	1007,78	5,6	7,7	7,6	1	1	1	1	1	1	1	1	1	0	1	-64,200141	273,129473	251,341967	0
15.01.2021	00:13:19	0	0	3,163665	3,73425	58,8672	-0,601	79,533	0	1007,94	5,6	7,7	7,6	1	1	1	1	1	1	1	1	1	0	1	-65,961945	273,023352	249,090052	0
15.01.2021	00:13:20	0	0	4,858485	3,5625	47,3796	-0,597	79,559	0	1007,84	5,6	7,7	7,6	1	1	1	1	1	1	1	1	1	0	1	-61,381254	272,957148	253,365274	0
15.01.2021	00:13:21	0	0	4,632509	3,24975	50,2956	-0,596	79,574	0	1007,8	5,6	7,7	7,6	1	1	1	1	1	1	1	1	1	0	1	-67,159972	272,971215	247,651443	0
15.01.2021	00:13:22	0	0	3,276653	3,051	52,1316	-0,598	79,603	0	1007,82	5,6	7,7	7,6	1	1	1	1	1	1	1	1	1	0	1	-72,30444	273,034644	242,79968	0
15.01.2021	00:13:23	0	0	4,632509	2,97225	62,8128	-0,595	79,625	0	1007,86	5,6	7,7	7,6	1	1	1	1	1	1	1	1	1	0	1	-64,552502	273,119543	250,943724	0
15.01.2021	00:13:24	0	0	5,310437	2,74875	65,0952	-0,593	79,653	0	1007,88	5,6	7,7	7,6	1	1	1	1	1	1	1	1	1	0	1	-66,666667	273,135149	248,901673	0
15.01.2021	00:13:25	0	0	2,598725	2,7705	65,8656	-0,595	79,67	0	1007,94	5,6	7,7	7,6	1	1	1	1	1	1	1	1	1	0	1	-64,200141	273,045942	250,956138	0
15.01.2021	00:13:26	0	0	4,632509	2,78175	69,8472	-0,597	79,666	0	1007,76	5,6	7,7	7,6	1	1	1	1	1	1	1	1	1	0	1	-66,384778	273,135149	249,183562	0
15.01.2021	00:13:27	0	0	2,598725	2,87925	75,2364	-0,594	79,688	0	1007,82	5,6	7,7	7,6	1	1	1	1	1	1	1	1	1	0	1	-63,777308	272,993743	251,138045	0
15.01.2021	00:13:28	0	0	4,519548	2,97975	71,6148	-0,596	79,682	0	1007,72	5,6	7,7	7,5	1	1	1	1	1	1	1	1	1	0	1	-68,780832	273,143666	246,826874	0
15.01.2021	00:13:29	0	0	2,824734	3,015	65,088	-0,59	79,698	0	1007,9	5,6	7,7	7,4	1	1	1	1	1	1	1	1	1	0	1	-65,750529	272,976845	249,086857	0
15.01.2021	00:13:30	0	0	3,728605	2,99475	77,5512	-0,593	79,697	0	1007,76	5,6	7,7	7,6	1	1	1	1	1	1	1	1	1	0	1	-65,46864	273,021941	249,576845	0
15.01.2021	00:13:31	0	0	3,954581	2,9025	70,614	-0,586	79,71	0	1007,94	5,6	7,7	7,6	1	1	1	1	1	1	1	1	1	0	1	-62,579281	272,975437	252,251611	0
15.01.2021	00:13:32	0	0	4,406533	2,85225	59,8644	-0,588	79,681	0	1007,54	5,6	7,7	7,6	1	1	1	1	1	1	1	1	1	0	1	-64,693446	273,009247	250,293451	0
15.01.2021	00:13:33	0	0	2,824701	3,38025	73,4436	-0,587	79,7	0	1007,84	5,6	7,7	7,6	1	1	1	1	1	1	1	1	1	0	1	-71,740662	273,084123	243,59193	0
15.01.2021	00:13:34	0	0	2,711729	3,678	50,6916	-0,587	79,675	0	1007,7	5,6	7,7	7,5	1	1	1	1	1	1	1	1	1	0	1	-61,028894	273,145086	254,585374	0
15.01.2021	00:13:35	0	0	3,389641	3,927	45,5184	-0,591	79,67	0	1007,92	5,6	7,7	7,6	1	1	1	1	1	1	1	1	1	0	1	-64,552502	273,026174	250,512523	0
15.01.2021	00:13:36	0	0	2,824718	4,27125	45,1656	-0,585	79,67	0	1007,6	5,6	7,7	7,5	1	1	1	1	1	1	1	1	1	0	1	-63,84778	273,137988	251,733679	0
15.01.2021	00:13:37	0	0	4,632509	4,515	45,5436	-0,584	79,647	0	1007,92	5,6	7,7	7,6	1	1	1	1	1	1	1	1	1	0	1	-64,904863	272,972622	249,913044	0
15.01.2021	00:13:38	0	0	2,824701	4,39125	62,0424	-0,584	79,63	0	1007,72	5,6	7,7	7,6	1	1	1	1	1	1	1	1	1	0	1	-63,636364	273,094034	251,742009	0
15.01.2021	00:13:39	0	0	3,502629	4,2675	68,4144	-0,587	79,623	0	1007,92	5,6	7,7	7,6	1	1	1	1	1	1	1	1	1	0	1	-62,156448	272,996561	252,771908	0
15.01.2021	00:13:40	0	0	3,389641	4,13625	66,528	-0,585	79,601	0	1007,7	5,6	7,7	7,6	1	1	1	1	1	1	1	1	1	0	1	-61,310782	273,013478	253,695639	0
15.01.2021	00:13:41	0	0	3,050677	4,23	80,154	-0,58	79,58	0	1007,9	5,6	7,7	7,6	1	1	1	1	1	1	1	1	1	0	1	-62,367865	273,098283	253,030137	0
15.01.2021	00:13:42	0	0	2,824701	3,987	77,5836	-0,576	79,571	0	1007,88	5,6	7,7	7,6	1	1	1	1	1	1	1	1	1	0	1	-63,918252	272,978252	250,925627	0
15.01.2021	00:13:43	0	0	2,598725	3,73125	49,3056	-0,584	79,551	0	1008	5,6	7,7	7,6	1	1	1	1	1	1	1	1	1	0	1	-65,750529	273,026174	249,314496	0
15.01.2021	00:13:44	0	0	3,615617	3,49275	75,978	-0,582	79,549	0	1007,74	5,6	7,7	7,6	1	1	1	1	1	1	1	1	1	0	1	-62,367865	273,111036	253,089055	0
15.01.2021	00:13:45	0	0	2,598725	3,84375	69,156	-0,581	79,536	0	1007,7	5,6	7,7	7,6	1	1	1	1	1	1	1	1	1	0	1	-66,525722	273,162134	249,167347	0
15.01.2021	00:13:46	0	0	2,598725	4,047	56,3076	-0,579	79,528	0	1008,12	5,6	7,7	7,6	1	1	1	1	1	1	1	1	1	0	1	-61,310782	273,047355	253,852019	0
15.01.2021	00:13:47	0	0	2,937689	4,101	61,6932	-0,578	79,516	0	1008,06	5,6	7,7	7,6	1	1	1	1	1	1	1	1	1	0	1	-63,84778	272,99938	251,093581	0
15.01.2021	00:13:48	0	0	4,632509	4,1025	65,0916	-0,582	79,506	0	1007,92	5,6	7,8	7,6	1	1	1	1	1	1	1	1	1	0	1	-67,371388	273,091201	247,993901	0
15.01.2021	00:13:49	0	0	3,615617	4,26675	60,552	-0,577	79,477	0	1007,66	5,6	7,7	7,6	1	1	1	1	1	1	1	1	1	0	1	-66,807611	273,162134	248,885458	0
15.01.2021	00:13:50	0	0	2,598725	3,99975	53,3628	-0,575	79,46	0	1007,82	5,6	7,7	7,6	1	1	1	1	1	1	1	1	1	0	1	-63,002114	273,000789	251,94575	0
15.01.2021	00:13:51	0	0	3,954581	3,84825	58,8852	-0,578	79,445	0	1007,56	5,6	7,7	7,6	1	1	1	1	1	1	1	1	1	0	1	-65,045807	273,094034	250,332566	0
15.01.2021	00:13:52	0	0	3,841593	4,15725	59,094	-0,574	79,418	0	1007,68	5,6	7,7	7,6	1	1	1	1	1	1	1	1	1	0	1	-62,367865	272,99938	252,573496	0
15.01.2021	00:13:53	0	0	2,824701	4,056	60,5736	-0,578	79,433	0	1007,7	5,6	7,7	7,6	1	1	1	1	1	1	1	1	1	0	1	-63,213531	273,105367	252,217198	0
15.01.2021	00:13:54	0	0	4,406533	3,894	68,4072	-0,58	79,43	0	1007,76	5,6	7,7	7,6	1	1	1	1	1	1	1	1	1	0	1	-67,512333	273,157871	248,161028	0
15.01.2021	00:13:55	0	0	3,050677	3,79875	74,8944	-0,58	79,434	0	1007,94	5,6	7,7	7,6	1	1	1	1	1	1	1	1	1	0	1	-60,747005	273,05442	254,448418	0
15.01.2021	00:13:56	0	0	2,485736	3,6165	69,8436	-0,579	79,42	0	1007,82	5,6	7,7	7,6	1	1	1	1	1	1	1	1	1	0	1	-60,747005	273,139407	254,841015	0
15.01.2021	00:13:57	0	0	4,632509	3,738	79,5024	-0,581	79,421	0	1007,66	5,6	7,8	7,6	1	1	1	1	1	1	1	1	1	0	1	-66,314306	273,005018	248,653072	0
15.01.2021	00:13:58	0	0	3,050677	3,74475	73,44	-0,572	79,414	0	1007,76	5,6	7,8	7,6	1	1	1	1	1	1	1	1	1	0	1	-64,411557	273,064316	250,82956	0
15.01.2021	00:13:59	0	0	3,163665	3,69075	76,8348	-0,576	79,405	0	1007,78	5,6	7,7	7,6	1	1	1	1	1	1	1	1	1	0	1	-69,978858	273,16782	245,740497	0
15.01.2021	00:14:00	0	0	2,824701	3,98025	74,196	-0,569	79,401	0	1007,66	5,6	7,7	7,6	1	1	1	1	1	1	1	1	1	0	1	-61,945032	273,05866	253,269971	0
15.01.2021	00:14:01	0	0	4,406533	4,1565	81,9576	-0,571	79,458	0	1008,04	5,6	7,7	7,6	1	1	1	1	1	1	1	1	1	0	1	-60,535588	273,014888	254,477342	0
15.01.2021	00:14:02	0	0	4,406533	4,1565	81,9576	-0,571	79,458	0	1008,04	5,6	7,7	7,6	1	1	1	1	1	1	1	1	1	0	1	-60,535588	273,014888	254,477342	0
15.01.2021	00:14:03	0	0	4,632509	4,14525	70,8444	-0,569	79,401	0	1007,84	5,6	7,7	7,6	1	1	1	1	1	1	1	1	1	0	1	-65,891473	273,150767	249,749053	0
15.01.2021	00:14:04	0	0	4,632509	3,97125	69,1704	-0,574	79,392	0	1007,68	5,6	7,7	7,6	1	1	1	1	1	1	1	1	1	0	1	-63,777308	273,074217	251,509533	0
15.01.2021	00:14:05	0	0	4,745497	3,687	51,4332	-0,574	79,397	0	1007,8	5,6	7,8	7,6	1	1	1	1	1	1	1	1	1	0	1	-62,649753	273,013478	252,356668	0
15.01.2021	00:14:06	0	0	2,598725	3,348	47,7612	-0,555	79,382	0	1007,94	5,6	7,7	7,6	1	1	1	1	1	1	1	1	1	0	1	-63,143058	273,096866	252,2484	0
15.01.2021	00:14:07	0	0	3,728605	3,23925	61,308	-0,567	79,372	0	1007,76	5,6	7,7	7,6	1	1	1	1	1	1	1	1	1	0	1	-68,569415	273,193428	247,268343	0
15.01.2021	00:14:08	0	0	4,632509	3,285	61,2936	-0,569	79,36	0	1007,82	5,6	7,8	7,6	1	1	1	1	1	1	1	1	1	0	1	-63,918252	273,187734	251,893177	0
15.01.2021	00:14:09	0	0	2,937689	3,723	66,222	-0,564	79,356	0	1007,8	5,6	7,7	7,6	1	1	1	1	1	1	1	1	1	0	1	-68,005638	273,145086	247,60863	0
15.01.2021	00:14:10	0	0	2,372748	4,041	67,6692	-0,567	79,345	0	1007,88	5,6	7,7	7,6	1	1	1	1	1	1	1	1	1	0	1	-63,284003	273,013478	251,722418	0
15.01.2021	00:14:11	0	0	2,937689	3,91875	61,2972	-0,567	79,326	0	1007,8	5,6	7,7	7,6	1	1	1	1	1	1	1	1	1	0	1	-65,821001	273,060074	249,40053	0
15.01.2021	00:14:12	0	0	4,519521	3,79875	64,3176	-0,562	79,323	0	1007,62	5,6	7,7	7,6	1	1	1	1	1	1	1	1	1	0	1	-65,821001	273,06573	249,426647	0
15.01.2021	00:14:13	0	0	3,615617	3,60075	70,2216	-0,563	79,323	0	1007,8	5,6	7,7	7,6	1	1	1	1	1	1	1	1	1	0	1	-61,945032	273,034644	253,159088	0
15.01.2021	00:14:14	0	0	2,824701	3,6255	75,2292	-0,56	79,318	0	1007,74	5,6	7,8	7,6	1	1	1	1	1	1	1	1	1	0	1	-63,143058	273,053007	252,045839	0
15.01.2021	00:14:15	0	0	4,632509	3,41925	78,2964	-0,564	79,308	0	1007,9	5,6	7,8	7,6	1	1	1	1	1	1	1	1	1	0	1	-64,270613	273,06573	250,977035	0
15.01.2021	00:14:16	0	0	2,937689	3,26625	74,9196	-0,565	79,296	0	1007,8	5,6	7,7	7,6	1	1	1	1	1	1	1	1	1	0	1	-67,512333	273,02053	247,52664	0
15.01.2021	00:14:17	0	0	3,163665	3,10125	65,8296	-0,564	79,286	0	1007,82	5,6	7,7	7,6	1	1	1	1	1	1	1	1	1	0	1	-67,794221	273,115289	247,682349	0
15.01.2021	00:14:18	0	0	4,519521	3,114	61,3116	-0,562	79,274	0	1007,88	5,6	7,7	7,6	1	1	1	1	1	1	1	1	1	0	1	-63,002114	273,028997	252,07594	0
15.01.2021	00:14:19	0	0	3,050677	3,05775	57,7332	-0,56	79,251	0	1007,72	5,6	7,7	7,6	1	1	1	1	1	1	1	1	1	0	1	-63,002114	273,036056	252,108523	0
15.01.2021	00:14:20	0	0	3,841593	2,988	61,7076	-0,558	79,248	0	1007,8	5,6	7,8	7,6	1	1	1	1	1	1	1	1	1	0	1	-60,887949	273,098283	254,510052	0
15.01.2021	00:14:21	0	0	4,406533	2,9115	63,504	-0,56	79,233	0	1007,9	5,6	7,7	7,6	1	1	1	1	1	1	1	1	1	0	1	-66,384778	273,216219	249,558388	0
15.01.2021	00:14:22	0	0	2,937689	3,081	56,2788	-0,566	79,227	0	1007,78	5,7	7,7	7,6	1	1	1	1	1	1	1	1	1	0	1	-63,424947	273,067144	251,829231	0
15.01.2021	00:14:23	0	0	4,632509	3,21525	40,266	-0,559	79,235	0	1007,88	5,6	7,7	7,6	1	1	1	1	1	1	1	1	1	0	1	-62,720226	273,069973	252,547016	0
15.01.2021	00:14:24	0	0	4,745497	3,42075	50,3208	-0,559	79,233	0	1007,74	5,6	7,8	7,6	1	1	1	1	1	1	1	1	1	0	1	-67,864693	273,211944	248,058697	0
15.01.2021	00:14:25	0	0	3,502629	3,531	40,2552	-0,557	79,21	0	1007,86	5,7	7,8	7,6	1	1	1	1	1	1	1	1	1	0	1	-64,83439	273,072802	250,445917	0
15.01.2021	00:14:26	0	0	3,841593	3,36975	42,9084	-0,556	79,222	0	1007,88	5,7	7,8	7,6	1	1	1	1	1	1	1	1	1	0	1	-66,102889	273,082707	249,223165	0
15.01.2021	00:14:27	0	0	3,841593	3,048	29,1384	-0,553	79,222	0	1007,86	5,6	7,8	7,6	1	1	1	1	1	1	1	1	1	0	1	-66,173362	273,033232	248,924241	0
15.01.2021	00:14:28	0	0	4,293545	2,6445	40,2408	-0,551	79,219	0	1007,9	5,6	7,8	7,6	1	1	1	1	1	1	1	1	1	0	1	-61,028894	273,186311	254,775956	0
15.01.2021	00:14:29	0	0	4,180557	2,4135	38,0664	-0,555	79,224	0	1007,86	5,6	7,8	7,6	1	1	1	1	1	1	1	1	1	0	1	-61,381254	273,176352	254,377547	0
15.01.2021	00:14:30	0	0	4,293545	2,55375	32,5188	-0,554	79,22	0	1007,72	5,6	7,7	7,6	1	1	1	1	1	1	1	1	1	0	1	-65,045807	273,051594	250,136566	0
15.01.2021	00:14:31	0	0	4,858485	2,69175	75,6108	-0,551	79,221	0	1007,74	5,6	7,8	7,6	1	1	1	1	1	1	1	1	1	0	1	-64,129669	273,101116	251,281422	0
15.01.2021	00:14:32	0	0	4,519521	2,736	50,6952	-0,553	79,201	0	1007,92	5,6	7,8	7,6	1	1	1	1	1	1	1	1	1	0	1	-62,22692	273,045942	252,929359	0
15.01.2021	00:14:33	0	0	4,519521	2,67375	75,6252	-0,552	79,19	0	1007,9	5,6	7,8	7,6	1	1	1	1	1	1	1	1	1	0	1	-67,935166	273,0997	247,46938	0
15.01.2021	00:14:34	0	0	4,745497	2,48325	46,2276	-0,553	79,185	0	1007,8	5,6	7,8	7,6	1	1	1	1	1	1	1	1	1	0	1	-64,552502	273,213369	251,37748	0
15.01.2021	00:14:35	0	0	2,598725	2,34	60,9444	-0,546	79,235	0	1007,86	5,7	7,8	7,6	1	1	1	1	1	1	1	1	1	0	1	-63,002114	273,146506	252,618717	0
15.01.2021	00:14:36	0	0	2,598725	2,4675	53,7372	-0,55	79,174	0	1007,94	5,5	7,8	7,6	1	1	1	1	1	1	1	1	1	0	1	-66,596195	273,231904	249,419528	0
15.01.2021	00:14:37	0	0	4,632509	2,583	52,2324	-0,551	79,174	0	1007,86	5,6	7,8	7,6	1	1	1	1	1	1	1	1	1	0	1	-63,002114	273,183465	252,789576	0
15.01.2021	00:14:38	0	0	3,389641	2,71875	41,8392	-0,547	79,161	0	1007,86	5,7	7,8	7,6	1	1	1	1	1	1	1	1	1	0	1	-65,46864	273,217644	250,481119	0
15.01.2021	00:14:39	0	0	4,067569	2,93775	53,7192	-0,551	79,146	0	1007,82	5,6	7,8	7,6	1	1	1	1	1	1	1	1	1	0	1	-68,498943	273,102533	246,918693	0
15.01.2021	00:14:40	0	0	2,824701	3,00225	72,666	-0,555	79,125	0	1007,78	5,6	7,8	7,6	1	1	1	1	1	1	1	1	1	0	1	-64,83439	273,089786	250,524359	0
15.01.2021	00:14:41	0	0	4,632509	3,03375	90,0432	-0,549	79,126	0	1007,82	5,7	7,8	7,6	1	1	1	1	1	1	1	1	1	0	1	-66,102889	273,220495	249,860058	0
15.01.2021	00:14:42	0	0	2,824701	3,18	60,9444	-0,547	79,126	0	1007,92	5,7	7,8	7,6	1	1	1	1	1	1	1	1	1	0	1	-59,126145	273,162134	256,566924	0
15.01.2021	00:14:43	0	0	4,406533	3,38325	75,9924	-0,545	79,117	0	1007,84	5,6	7,8	7,6	1	1	1	1	1	1	1	1	1	0	1	-61,592671	273,071387	253,681103	0
15.01.2021	00:14:44	0	0	3,050677	3,168	50,6844	-0,551	79,095	0	1007,76	5,7	7,8	7,6	1	1	1	1	1	1	1	1	1	0	1	-64,270613	273,089786	251,088136	0
15.01.2021	00:14:45	0	0	2,711713	2,85375	60,9156	-0,552	79,089	0	1007,88	5,5	7,8	7,6	1	1	1	1	1	1	1	1	1	0	1	-64,270613	273,08837	251,081596	0
15.01.2021	00:14:46	0	0	5,197449	2,67675	54,1152	-0,548	79,076	0	1007,96	5,7	7,8	7,6	1	1	1	1	1	1	1	1	1	0	1	-59,61945	273,040292	255,510744	0
15.01.2021	00:14:47	0	0	4,406533	2,6115	69,1452	-0,547	79,053	0	1007,94	5,6	7,8	7,6	1	1	1	1	1	1	1	1	1	0	1	-69,274137	273,125216	246,248304	0
15.01.2021	00:14:48	0	0	4,632509	2,592	61,4016	-0,551	79,058	0	1007,9	5,7	7,7	7,6	1	1	1	1	1	1	1	1	1	0	1	-65,257223	273,043117	249,886012	0
15.01.2021	00:14:49	0	0	2,937689	2,55075	66,5388	-0,549	79,047	0	1007,84	5,6	7,8	7,6	1	1	1	1	1	1	1	1	1	0	1	-65,327696	273,071387	249,946079	0
15.01.2021	00:14:50	0	0	2,711713	2,58525	62,424	-0,548	79,041	0	1007,86	5,6	7,8	7,6	1	1	1	1	1	1	1	1	1	0	1	-68,498943	273,160713	247,187556	0
15.01.2021	00:14:51	0	0	4,293545	2,7135	59,8788	-0,544	79,022	0	1007,96	5,6	7,8	7,6	1	1	1	1	1	1	1	1	1	0	1	-62,649753	273,224773	253,33298	0
15.01.2021	00:14:52	0	0	3,954581	2,748	57,7188	-0,542	79,021	0	1007,82	5,7	7,8	7,6	1	1	1	1	1	1	1	1	1	0	1	-68,780832	273,177775	246,984546	0
15.01.2021	00:14:53	0	0	3,841593	2,77875	57,0384	-0,543	79,001	0	1007,88	5,7	7,8	7,6	1	1	1	1	1	1	1	1	1	0	1	-60,394644	273,173508	255,351006	0
15.01.2021	00:14:54	0	0	3,050677	2,81175	55,1736	-0,54	79,001	0	1007,8	5,6	7,8	7,6	1	1	1	1	1	1	1	1	1	0	1	-66,737139	273,044529	248,412618	0
15.01.2021	00:14:55	0	0	2,824701	2,91525	57,7332	-0,547	78,977	0	1007,82	5,6	7,8	7,6	1	1	1	1	1	1	1	1	1	0	1	-66,807611	273,101116	248,60348	0
15.01.2021	00:14:56	0	0	3,954581	3,0495	55,5444	-0,544	78,962	0	1007,74	5,6	7,8	7,6	1	1	1	1	1	1	1	1	1	0	1	-66,102889	273,082707	249,223165	0
15.01.2021	00:14:57	0	0	3,841593	3,135	59,8608	-0,54	78,953	0	1007,78	5,6	7,8	7,6	1	1	1	1	1	1	1	1	1	0	1	-68,357999	273,211944	247,565392	0
15.01.2021	00:14:58	0	0	3,841593	3,126	54,486	-0,541	78,944	0	1007,96	5,6	7,8	7,6	1	1	1	1	1	1	1	1	1	0	1	-65,609584	273,105367	249,821144	0
15.01.2021	00:14:59	0	0	3,728605	2,973	55,1988	-0,542	78,94	0	1007,82	5,7	7,8	7,6	1	1	1	1	1	1	1	1	1	0	1	-63,354475	273,223347	252,621663	0
15.01.2021	00:15:00	0	0	2,598725	2,919	71,5968	-0,541	78,892	0	1008,04	5,7	7,7	7,6	1	1	1	1	1	1	1	1	1	0	1	-65,46864	273,043117	249,674596	0
15.01.2021	00:15:01	0	0	4,180557	2,9595	66,8952	-0,541	78,905	0	1007,9	5,6	7,8	7,6	1	1	1	1	1	1	1	1	1	0	1	-65,045807	273,149347	250,588153	0
15.01.2021	00:15:02	0	0	4,180557	2,9595	66,8952	-0,541	78,905	0	1007,9	5,6	7,8	7,6	1	1	1	1	1	1	1	1	1	0	1	-65,045807	273,149347	250,588153	0
15.01.2021	00:15:03	0	0	3,389641	2,89425	71,6688	-0,541	78,894	0	1007,82	5,6	7,8	7,6	1	1	1	1	1	1	1	1	1	0	1	-64,622974	273,05442	250,572449	0
15.01.2021	00:15:04	0	0	4,858485	2,7915	70,218	-0,54	78,879	0	1007,86	5,7	7,8	7,6	1	1	1	1	1	1	1	1	1	0	1	-64,622974	273,194851	251,221368	0
15.01.2021	00:15:05	0	0	5,084461	2,61225	68,76	-0,544	78,848	0	1007,78	5,6	7,8	7,6	1	1	1	1	1	1	1	1	1	0	1	-63,777308	273,169242	251,94862	0
15.01.2021	00:15:06	0	0	3,615617	2,53575	66,528	-0,54	78,846	0	1008,02	5,7	7,8	7,6	1	1	1	1	1	1	1	1	1	0	1	-64,622974	273,230477	251,38615	0
15.01.2021	00:15:07	0	0	2,937689	2,50125	61,6896	-0,542	78,831	0	1007,92	5,7	7,7	7,6	1	1	1	1	1	1	1	1	1	0	1	-59,901339	273,115289	255,575231	0
15.01.2021	00:15:08	0	0	2,372748	2,601	63,4968	-0,542	78,836	0	1007,76	5,7	7,8	7,6	1	1	1	1	1	1	1	1	1	0	1	-66,737139	273,23761	249,304986	0
15.01.2021	00:15:09	0	0	4,519521	2,766	51,4332	-0,543	78,825	0	1007,88	5,7	7,8	7,6	1	1	1	1	1	1	1	1	1	0	1	-66,948555	273,206245	248,948476	0
15.01.2021	00:15:10	0	0	5,084461	3,02325	53,73	-0,543	78,798	0	1007,76	5,6	7,8	7,6	1	1	1	1	1	1	1	1	1	0	1	-60,112755	273,086954	255,232914	0
15.01.2021	00:15:11	0	0	4,519521	2,8395	51,4476	-0,539	78,798	0	1007,84	5,6	7,8	7,6	1	1	1	1	1	1	1	1	1	0	1	-66,525722	273,220495	249,437225	0
15.01.2021	00:15:12	0	0	3,728605	2,649	47,3652	-0,548	78,782	0	1007,8	5,7	7,8	7,6	1	1	1	1	1	1	1	1	1	0	1	-66,173362	273,128054	249,36219	0
15.01.2021	00:15:13	0	0	3,841593	2,80125	49,572	-0,55	78,786	0	1007,82	5,7	7,8	7,6	1	1	1	1	1	1	1	1	1	0	1	-64,48203	273,217644	251,46773	0
15.01.2021	00:15:14	0	0	2,598725	2,8875	55,9332	-0,544	78,791	0	1007,8	5,7	7,8	7,6	1	1	1	1	1	1	1	1	1	0	1	-65,186751	273,071387	250,087023	0
15.01.2021	00:15:15	0	0	2,711713	3,0675	59,1012	-0,545	78,792	0	1007,64	5,6	7,8	7,6	1	1	1	1	1	1	1	1	1	0	1	-66,384778	273,113871	249,085241	0
15.01.2021	00:15:16	0	0	4,180557	3,3495	57,3912	-0,539	78,788	0	1007,78	5,7	7,8	7,6	1	1	1	1	1	1	1	1	1	0	1	-68,851304	273,220495	247,111644	0
15.01.2021	00:15:17	0	0	2,598725	3,62325	58,8816	-0,543	78,778	0	1007,9	5,5	7,8	7,6	1	1	1	1	1	1	1	1	1	0	1	-61,733615	273,146506	253,887216	0
15.01.2021	00:15:18	0	0	4,293545	3,816	60,5628	-0,544	78,779	0	1007,88	5,7	7,8	7,6	1	1	1	1	1	1	1	1	1	0	1	-65,327696	273,047355	249,835106	0
15.01.2021	00:15:19	0	0	2,824701	3,972	54,8208	-0,545	78,754	0	1007,9	5,7	7,8	7,6	1	1	1	1	1	1	1	1	1	0	1	-63,636364	273,08837	251,715845	0
15.01.2021	00:15:20	0	0	4,632509	4,017	62,7912	-0,549	78,753	0	1007,86	5,6	7,8	7,6	1	1	1	1	1	1	1	1	1	0	1	-60,183228	273,217644	255,766532	0
15.01.2021	00:15:21	0	0	4,745497	4,02075	59,0904	-0,542	78,766	0	1007,82	5,6	7,8	7,6	1	1	1	1	1	1	1	1	1	0	1	-62,790698	273,169242	252,93523	0
15.01.2021	00:15:22	0	0	4,406533	3,89025	63,162	-0,546	78,759	0	1007,88	5,6	7,8	7,6	1	1	1	1	1	1	1	1	1	0	1	-62,22692	273,155029	253,433305	0
15.01.2021	00:15:23	0	0	3,954581	3,705	65,0808	-0,548	78,752	0	1007,88	5,6	7,8	7,6	1	1	1	1	1	1	1	1	1	0	1	-61,804087	273,057247	253,404388	0
15.01.2021	00:15:24	0	0	3,728605	3,51075	75,2364	-0,543	78,749	0	1007,74	5,6	7,8	7,6	1	1	1	1	1	1	1	1	1	0	1	-68,005638	273,173508	247,740012	0
15.01.2021	00:15:25	0	0	2,598725	3,57075	67,0104	-0,545	78,751	0	1007,82	5,7	7,8	7,6	1	1	1	1	1	1	1	1	1	0	1	-62,438337	273,221921	253,531205	0
15.01.2021	00:15:26	0	0	3,615617	3,53325	58,4784	-0,548	78,718	0	1007,8	5,6	7,8	7,6	1	1	1	1	1	1	1	1	1	0	1	-67,44186	273,089786	247,916889	0
15.01.2021	00:15:27	0	0	3,389641	3,51975	70,6068	-0,547	78,735	0	1007,96	5,7	7,8	7,6	1	1	1	1	1	1	1	1	1	0	1	-64,059197	273,123798	251,456689	0
15.01.2021	00:15:28	0	0	3,615617	3,48075	64,6236	-0,548	78,732	0	1007,88	5,5	7,8	7,6	1	1	1	1	1	1	1	1	1	0	1	-68,569415	273,051594	246,612958	0
15.01.2021	00:15:29	0	0	3,841593	3,45675	73,0512	-0,545	78,725	0	1007,74	5,6	7,8	7,6	1	1	1	1	1	1	1	1	1	0	1	-61,87456	273,098283	253,523442	0
15.01.2021	00:15:30	0	0	4,519521	3,44325	77,5728	-0,552	78,729	0	1008,02	5,6	7,8	7,6	1	1	1	1	1	1	1	1	1	0	1	-66,525722	273,043117	248,617513	0
15.01.2021	00:15:31	0	0	4,406533	3,5745	71,5932	-0,551	78,731	0	1007,8	5,7	7,8	7,6	1	1	1	1	1	1	1	1	1	0	1	-63,213531	273,086954	252,132139	0
15.01.2021	00:15:32	0	0	2,937689	3,7005	71,5968	-0,548	78,761	0	1007,84	5,6	7,8	7,6	1	1	1	1	1	1	1	1	1	0	1	-63,424947	273,033232	251,672655	0
15.01.2021	00:15:33	0	0	2,711713	3,4275	77,22	-0,547	78,768	0	1007,78	5,7	7,8	7,6	1	1	1	1	1	1	1	1	1	0	1	-65,891473	273,113871	249,578547	0
15.01.2021	00:15:34	0	0	3,276653	3,0135	26,5284	-0,555	78,763	0	1007,8	5,7	7,8	7,6	1	1	1	1	1	1	1	1	1	0	1	-63,495419	273,196275	252,355507	0
15.01.2021	00:15:35	0	0	4,745497	2,9835	46,5948	-0,547	78,759	0	1007,9	5,7	7,8	7,6	1	1	1	1	1	1	1	1	1	0	1	-65,750529	273,189157	250,067482	0
15.01.2021	00:15:36	0	0	4,858485	2,805	41,0004	-0,554	78,793	0	1007,78	5,7	7,8	7,6	1	1	1	1	1	1	1	1	1	0	1	-66,596195	273,157871	249,077166	0
15.01.2021	00:15:37	0	0	2,824701	2,77875	36,936	-0,548	78,808	0	1007,8	5,6	7,8	7,6	1	1	1	1	1	1	1	1	1	0	1	-68,217054	273,224773	247,765679	0
15.01.2021	00:15:38	0	0	3,502629	2,64375	46,2348	-0,549	78,813	0	1007,66	5,6	7,8	7,6	1	1	1	1	1	1	1	1	1	0	1	-66,666667	273,163555	249,032973	0
15.01.2021	00:15:39	0	0	4,745497	2,58375	38,4228	-0,546	78,821	0	1007,58	5,7	7,8	7,6	1	1	1	1	1	1	1	1	1	0	1	-68,992248	273,221921	246,977294	0
15.01.2021	00:15:40	0	0	2,598725	2,5485	47,3832	-0,544	78,843	0	1007,8	5,6	7,8	7,6	1	1	1	1	1	1	1	1	1	0	1	-65,539112	273,143666	250,068593	0
15.01.2021	00:15:41	0	0	3,954581	2,55375	45,5364	-0,542	78,871	0	1007,9	5,7	7,8	7,6	1	1	1	1	1	1	1	1	1	0	1	-70,190275	273,229051	245,81225	0
15.01.2021	00:15:42	0	0	3,050677	2,54025	36,6192	-0,545	78,862	0	1007,94	5,7	7,8	7,6	1	1	1	1	1	1	1	1	1	0	1	-67,512333	273,184888	248,285936	0
15.01.2021	00:15:43	0	0	3,389641	2,565	56,2824	-0,551	78,862	0	1007,76	5,6	7,8	7,6	1	1	1	1	1	1	1	1	1	0	1	-63,424947	273,05866	251,790056	0
15.01.2021	00:15:44	0	0	3,728605	2,66925	55,944	-0,543	78,882	0	1007,9	5,6	7,8	7,6	1	1	1	1	1	1	1	1	1	0	1	-63,143058	273,081292	252,176459	0
15.01.2021	00:15:45	0	0	3,050677	3,05475	53,334	-0,544	78,894	0	1007,98	5,5	7,8	7,6	1	1	1	1	1	1	1	1	1	0	1	-66,102889	273,085538	249,236241	0
15.01.2021	00:15:46	0	0	4,406533	3,16575	52,4988	-0,551	78,874	0	1007,8	5,7	7,8	7,6	1	1	1	1	1	1	1	1	1	0	1	-68,780832	273,224773	247,201902	0
15.01.2021	00:15:47	0	0	3,050677	3,189	47,736	-0,543	78,893	0	1007,86	5,6	7,8	7,6	1	1	1	1	1	1	1	1	1	0	1	-63,565891	273,173508	252,179759	0
15.01.2021	00:15:48	0	0	3,389641	3,291	50,292	-0,548	78,89	0	1007,7	5,7	7,8	7,6	1	1	1	1	1	1	1	1	1	0	1	-69,415081	273,230477	246,594042	0
15.01.2021	00:15:49	0	0	2,372748	3,11925	51,0732	-0,547	78,885	0	1007,9	5,6	7,8	7,6	1	1	1	1	1	1	1	1	1	0	1	-66,45525	273,108201	248,988573	0
15.01.2021	00:15:50	0	0	4,067569	2,92575	47,7468	-0,545	78,885	0	1007,68	5,6	7,8	7,6	1	1	1	1	1	1	1	1	1	0	1	-64,48203	273,214794	251,454544	0
15.01.2021	00:15:51	0	0	4,858485	2,72475	47,3796	-0,543	78,89	0	1007,72	5,7	7,8	7,6	1	1	1	1	1	1	1	1	1	0	1	-68,428471	273,177775	247,336907	0
15.01.2021	00:15:52	0	0	3,050677	2,60475	37,2924	-0,541	78,883	0	1007,92	5,6	7,8	7,6	1	1	1	1	1	1	1	1	1	0	1	-62,438337	273,05866	252,776666	0
15.01.2021	00:15:53	0	0	5,197449	2,57025	38,7864	-0,536	78,888	0	1008,08	5,7	7,8	7,6	1	1	1	1	1	1	1	1	1	0	1	-65,398168	273,160713	250,288331	0
15.01.2021	00:15:54	0	0	2,711713	2,9145	42,9048	-0,541	78,877	0	1007,82	5,6	7,8	7,6	1	1	1	1	1	1	1	1	1	0	1	-67,159972	273,053007	248,028926	0
15.01.2021	00:15:55	0	0	4,067569	2,9775	56,682	-0,543	78,888	0	1007,82	5,7	7,8	7,6	1	1	1	1	1	1	1	1	1	0	1	-64,622974	273,074217	250,663867	0
15.01.2021	00:15:56	0	0	2,598725	2,86275	32,1624	-0,548	78,879	0	1007,94	5,7	7,8	7,6	1	1	1	1	1	1	1	1	1	0	1	-64,83439	273,062902	250,400198	0
15.01.2021	00:15:57	0	0	3,163665	2,95125	58,5072	-0,537	78,889	0	1007,82	5,6	7,8	7,6	1	1	1	1	1	1	1	1	1	0	1	-63,002114	273,040292	252,128081	0
15.01.2021	00:15:58	0	0	3,841593	2,89575	28,4508	-0,539	78,878	0	1007,8	5,6	7,8	7,6	1	1	1	1	1	1	1	1	1	0	1	-64,693446	273,160713	250,993053	0
15.01.2021	00:15:59	0	0	2,485736	2,84475	26,9208	-0,542	78,87	0	1007,7	5,6	7,8	7,6	1	1	1	1	1	1	1	1	1	0	1	-63,565891	273,040292	251,564303	0
15.01.2021	00:16:00	0	0	3,615617	3,64275	48,1428	-0,546	78,872	0	1007,8	5,6	7,8	7,6	1	1	1	1	1	1	1	1	1	0	1	-67,0895	273,21907	248,866853	0
15.01.2021	00:16:01	0	0	4,745497	3,51075	34,794	-0,544	78,851	0	1007,78	5,7	7,8	7,6	1	1	1	1	1	1	1	1	1	0	1	-65,821001	273,108201	249,622822	0
15.01.2021	00:16:02	0	0	4,745497	3,51075	34,794	-0,544	78,851	0	1007,78	5,7	7,8	7,6	1	1	1	1	1	1	1	1	1	0	1	-65,821001	273,108201	249,622822	0
15.01.2021	00:16:03	0	0	2,824701	3,21	32,8968	-0,539	78,863	0	1007,78	5,6	7,8	7,6	1	1	1	1	1	1	1	1	1	0	1	-63,072586	273,040292	252,057608	0
15.01.2021	00:16:04	0	0	4,745497	3,22125	47,7468	-0,543	78,869	0	1007,74	5,6	7,8	7,6	1	1	1	1	1	1	1	1	1	0	1	-62,297393	273,147927	253,330003	0
15.01.2021	00:16:05	0	0	2,937689	3,102	33,6492	-0,546	78,869	0	1007,74	5,7	7,8	7,6	1	1	1	1	1	1	1	1	1	0	1	-64,270613	273,211944	251,652778	0
15.01.2021	00:16:06	0	0	2,711713	2,84325	22,176	-0,538	78,87	0	1007,8	5,6	7,8	7,6	1	1	1	1	1	1	1	1	1	0	1	-66,737139	273,186311	249,06771	0
15.01.2021	00:16:07	0	0	3,502629	2,8875	35,8812	-0,537	78,862	0	1007,86	5,6	7,8	7,6	1	1	1	1	1	1	1	1	1	0	1	-66,525722	273,186311	249,279127	0
15.01.2021	00:16:08	0	0	2,598725	2,9865	9,3888	-0,544	78,852	0	1007,86	5,7	7,8	7,6	1	1	1	1	1	1	1	1	1	0	1	-68,498943	273,026174	246,566082	0
15.01.2021	00:16:09	0	0	3,954581	3,03225	37,3212	-0,539	78,856	0	1007,86	5,7	7,8	7,6	1	1	1	1	1	1	1	1	1	0	1	-64,552502	273,101116	250,858589	0
15.01.2021	00:16:10	0	0	3,502629	3,2085	22,4748	-0,542	78,865	0	1007,88	5,6	7,8	7,6	1	1	1	1	1	1	1	1	1	0	1	-61,381254	273,206245	254,515777	0
15.01.2021	00:16:11	0	0	4,632509	3,5175	43,2684	-0,546	78,855	0	1007,64	5,7	7,8	7,6	1	1	1	1	1	1	1	1	1	0	1	-65,891473	273,186311	249,913376	0
15.01.2021	00:16:12	0	0	4,971473	3,95175	43,2972	-0,542	78,871	0	1007,86	5,6	7,8	7,6	1	1	1	1	1	1	1	1	1	0	1	-62,367865	273,057247	252,840611	0
15.01.2021	00:16:13	0	0	3,163665	3,92325	36,2484	-0,544	78,867	0	1007,84	5,7	7,8	7,6	1	1	1	1	1	1	1	1	1	0	1	-67,230444	273,201971	248,646824	0
15.01.2021	00:16:14	0	0	4,180557	3,57525	46,2348	-0,55	78,855	0	1007,76	5,6	7,8	7,6	1	1	1	1	1	1	1	1	1	0	1	-67,44186	273,194851	248,402481	0
15.01.2021	00:16:15	0	0	2,824701	3,22275	55,1808	-0,545	78,84	0	1007,7	5,7	7,8	7,6	1	1	1	1	1	1	1	1	1	0	1	-64,975335	273,173508	250,770315	0
15.01.2021	00:16:16	0	0	3,163665	3,09075	109,584	-0,543	78,843	0	1007,76	5,6	7,8	7,6	1	1	1	1	1	1	1	1	1	0	1	-62,931642	273,055833	252,270307	0
15.01.2021	00:16:17	0	0	3,615617	3,0405	62,442	-0,547	78,834	0	1007,9	5,6	7,8	7,6	1	1	1	1	1	1	1	1	1	0	1	-66,737139	273,196275	249,113787	0
15.01.2021	00:16:18	0	0	3,954581	3,21675	62,784	-0,542	78,815	0	1007,96	5,6	7,8	7,6	1	1	1	1	1	1	1	1	1	0	1	-64,552502	273,041704	250,584213	0
15.01.2021	00:16:19	0	0	2,937689	3,15675	64,2384	-0,541	78,817	0	1007,9	5,6	7,8	7,6	1	1	1	1	1	1	1	1	1	0	1	-68,992248	273,211944	246,931143	0
15.01.2021	00:16:20	0	0	4,067569	3,3225	69,2568	-0,54	78,803	0	1007,84	5,7	7,8	7,6	1	1	1	1	1	1	1	1	1	0	1	-63,988724	273,163555	251,710915	0
15.01.2021	00:16:21	0	0	4,293545	3,594	69,84	-0,538	78,799	0	1007,74	5,6	7,8	7,6	1	1	1	1	1	1	1	1	1	0	1	-68,710359	273,182042	247,074751	0
15.01.2021	00:16:22	0	0	3,841593	3,56325	73,4544	-0,543	78,821	0	1007,78	5,6	7,8	7,6	1	1	1	1	1	1	1	1	1	0	1	-66,314306	273,105367	249,116422	0
15.01.2021	00:16:23	0	0	2,485736	3,3765	63,5724	-0,544	78,824	0	1007,82	5,6	7,8	7,6	1	1	1	1	1	1	1	1	1	0	1	-64,341085	273,036056	250,769552	0
15.01.2021	00:16:24	0	0	2,711713	3,1455	66,9852	-0,54	78,846	0	1007,74	5,6	7,8	7,6	1	1	1	1	1	1	1	1	1	0	1	-66,878083	273,155029	248,782142	0
15.01.2021	00:16:25	0	0	2,598725	3,13275	66,9204	-0,54	78,865	0	1007,9	5,6	7,8	7,6	1	1	1	1	1	1	1	1	1	0	1	-63,424947	273,044529	251,72481	0
15.01.2021	00:16:26	0	0	4,745497	3,2775	58,4676	-0,538	78,877	0	1007,72	5,7	7,8	7,6	1	1	1	1	1	1	1	1	1	0	1	-63,072586	273,119543	252,423639	0
15.01.2021	00:16:27	0	0	3,615617	3,396	46,9872	-0,538	78,873	0	1007,76	5,6	7,8	7,6	1	1	1	1	1	1	1	1	1	0	1	-66,948555	273,220495	249,014392	0
15.01.2021	00:16:28	0	0	4,632509	3,50775	45,234	-0,538	78,897	0	1007,86	5,6	7,8	7,6	1	1	1	1	1	1	1	1	1	0	1	-70,824524	273,142247	244,776618	0
15.01.2021	00:16:29	0	0	2,824701	3,3795	38,8008	-0,537	78,909	0	1007,84	5,7	7,8	7,6	1	1	1	1	1	1	1	1	1	0	1	-65,045807	273,077046	250,254103	0
15.01.2021	00:16:30	0	0	2,485736	3,12825	35,8596	-0,545	78,923	0	1007,88	5,6	7,8	7,6	1	1	1	1	1	1	1	1	1	0	1	-61,733615	273,061488	253,494444	0
15.01.2021	00:16:31	0	0	4,293545	3,13875	43,0344	-0,544	78,934	0	1007,68	5,6	7,8	7,6	1	1	1	1	1	1	1	1	1	0	1	-63,495419	273,075631	251,797956	0
15.01.2021	00:16:32	0	0	3,841593	3,15075	51,0516	-0,537	78,948	0	1007,94	5,6	7,8	7,6	1	1	1	1	1	1	1	1	1	0	1	-64,83439	273,089786	250,524359	0
15.01.2021	00:16:33	0	0	3,163665	3,009	48,8088	-0,535	78,958	0	1007,84	5,6	7,8	7,6	1	1	1	1	1	1	1	1	1	0	1	-65,821001	273,227625	250,174927	0
15.01.2021	00:16:34	0	0	2,598725	2,79	46,5912	-0,541	78,973	0	1007,68	5,6	7,8	7,6	1	1	1	1	1	1	1	1	1	0	1	-68,07611	273,106784	247,361165	0
15.01.2021	00:16:35	0	0	2,485736	2,649	57,1356	-0,541	78,964	0	1007,8	5,7	7,8	7,6	1	1	1	1	1	1	1	1	1	0	1	-65,539112	273,220495	250,423835	0
15.01.2021	00:16:36	0	0	3,502629	2,5065	49,1796	-0,537	78,957	0	1007,82	5,6	7,8	7,6	1	1	1	1	1	1	1	1	1	0	1	-69,274137	273,194851	246,570205	0
15.01.2021	00:16:37	0	0	3,728605	2,48325	43,6752	-0,534	78,954	0	1007,88	5,6	7,8	7,6	1	1	1	1	1	1	1	1	1	0	1	-64,763918	273,214794	251,172656	0
15.01.2021	00:16:38	0	0	5,310437	2,5185	55,9404	-0,535	78,92	0	1007,84	5,6	7,8	7,6	1	1	1	1	1	1	1	1	1	0	1	-68,780832	273,172086	246,958244	0
15.01.2021	00:16:39	0	0	3,389641	2,7885	52,8912	-0,534	78,897	0	1007,92	5,6	7,8	7,6	1	1	1	1	1	1	1	1	1	0	1	-64,622974	273,05442	250,572449	0
15.01.2021	00:16:40	0	0	2,485736	3,0555	60,5628	-0,537	78,872	0	1007,86	5,6	7,8	7,6	1	1	1	1	1	1	1	1	1	0	1	-63,777308	273,0997	251,627238	0
15.01.2021	00:16:41	0	0	2,711713	2,97075	48,1176	-0,542	78,862	0	1007,64	5,6	7,8	7,6	1	1	1	1	1	1	1	1	1	0	1	-62,015504	273,244746	254,059636	0
15.01.2021	00:16:42	0	0	4,406533	2,856	36,6156	-0,532	78,851	0	1007,76	5,7	7,8	7,6	1	1	1	1	1	1	1	1	1	0	1	-67,864693	273,226199	248,124637	0
15.01.2021	00:16:43	0	0	3,954581	2,8005	42,5916	-0,537	78,829	0	1007,88	5,7	7,8	7,6	1	1	1	1	1	1	1	1	1	0	1	-61,451727	273,193428	254,386032	0
15.01.2021	00:16:44	0	0	3,954581	2,66475	51,4404	-0,527	78,819	0	1007,9	5,7	7,8	7,6	1	1	1	1	1	1	1	1	1	0	1	-65,680056	273,217644	250,269703	0
15.01.2021	00:16:45	0	0	4,971473	2,676	50,6952	-0,532	78,793	0	1007,8	5,7	7,8	7,6	1	1	1	1	1	1	1	1	1	0	1	-66,45525	273,203396	249,428605	0
15.01.2021	00:16:46	0	0	4,632509	2,937	65,4804	-0,528	78,839	0	1007,86	5,7	7,8	7,6	1	1	1	1	1	1	1	1	1	0	1	-70,190275	273,21907	245,766078	0
15.01.2021	00:16:47	0	0	2,937689	2,916	67,6656	-0,535	78,765	0	1007,86	5,6	7,8	7,6	1	1	1	1	1	1	1	1	1	0	1	-66,384778	273,234757	249,644144	0
15.01.2021	00:16:48	0	0	2,711713	2,82075	65,8548	-0,53	78,779	0	1007,74	5,6	7,8	7,6	1	1	1	1	1	1	1	1	1	0	1	-64,270613	273,260454	251,877214	0
15.01.2021	00:16:49	0	0	3,050677	2,637	62,1252	-0,539	78,752	0	1007,84	5,6	7,8	7,6	1	1	1	1	1	1	1	1	1	0	1	-69,556025	273,246173	246,52572	0
15.01.2021	00:16:50	0	0	4,971473	2,27475	42,2388	-0,535	78,759	0	1007,7	5,6	7,8	7,6	1	1	1	1	1	1	1	1	1	0	1	-65,327696	273,23333	250,694627	0
15.01.2021	00:16:51	0	0	4,406533	2,2065	26,91	-0,529	78,748	0	1007,88	5,7	7,8	7,6	1	1	1	1	1	1	1	1	1	0	1	-64,48203	273,196275	251,368896	0
15.01.2021	00:16:52	0	0	4,632509	2,37075	36,936	-0,533	78,747	0	1007,7	5,7	7,8	7,6	1	1	1	1	1	1	1	1	1	0	1	-62,508809	273,240464	253,54652	0
15.01.2021	00:16:53	0	0	3,954581	2,373	35,5788	-0,535	78,738	0	1007,64	5,6	7,8	7,6	1	1	1	1	1	1	1	1	1	0	1	-66,948555	273,128054	248,586996	0
15.01.2021	00:16:54	0	0	2,598725	2,385	27,6732	-0,538	78,736	0	1007,84	5,7	7,8	7,6	1	1	1	1	1	1	1	1	1	0	1	-70,401691	273,249029	245,693265	0
15.01.2021	00:16:55	0	0	2,485736	2,20275	20,6424	-0,53	78,744	0	1007,92	5,5	7,8	7,6	1	1	1	1	1	1	1	1	1	0	1	-64,83439	273,189157	250,983621	0
15.01.2021	00:16:56	0	0	4,406533	2,18625	31,7736	-0,531	78,71	0	1007,88	5,6	7,8	7,6	1	1	1	1	1	1	1	1	1	0	1	-63,495419	273,257597	252,639187	0
15.01.2021	00:16:57	0	0	3,163665	2,406	42,318	-0,537	78,72	0	1007,86	5,7	7,8	7,6	1	1	1	1	1	1	1	1	1	0	1	-66,737139	273,199123	249,126957	0
15.01.2021	00:16:58	0	0	3,841593	2,634	36,2304	-0,535	78,717	0	1007,84	5,7	7,8	7,6	1	1	1	1	1	1	1	1	1	0	1	-67,582805	273,072802	247,697502	0
15.01.2021	00:16:59	0	0	3,163665	2,8275	35,1	-0,533	78,721	0	1007,82	5,6	7,8	7,6	1	1	1	1	1	1	1	1	1	0	1	-66,666667	273,164977	249,039544	0
15.01.2021	00:17:00	0	0	4,745497	2,922	32,1624	-0,53	78,712	0	1007,76	5,7	7,8	7,6	1	1	1	1	1	1	1	1	1	0	1	-63,495419	273,241891	252,566513	0
15.01.2021	00:17:01	0	0	4,180557	2,9175	43,6536	-0,531	78,713	0	1007,78	5,6	7,8	7,6	1	1	1	1	1	1	1	1	1	0	1	-63,213531	273,091201	252,151759	0
15.01.2021	00:17:02	0	0	4,180557	2,9175	43,6536	-0,531	78,713	0	1007,78	5,6	7,8	7,6	1	1	1	1	1	1	1	1	1	0	1	-63,213531	273,091201	252,151759	0
15.01.2021	00:17:03	0	0	3,389641	2,73075	55,9152	-0,536	78,705	0	1007,92	5,7	7,8	7,6	1	1	1	1	1	1	1	1	1	0	1	-69,485553	273,223347	246,490584	0
15.01.2021	00:17:04	0	0	3,050658	2,45475	52,1352	-0,54	78,698	0	1007,58	5,7	7,8	7,7	1	1	1	1	1	1	1	1	1	0	1	-63,777308	273,113871	251,692712	0
15.01.2021	00:17:05	0	0	2,711713	2,23275	48,8052	-0,532	78,702	0	1007,7	5,7	7,8	7,6	1	1	1	1	1	1	1	1	1	0	1	-62,156448	273,072802	253,123859	0
15.01.2021	00:17:06	0	0	3,163665	2,13675	27,6876	-0,532	78,692	0	1007,82	5,7	7,8	7,6	1	1	1	1	1	1	1	1	1	0	1	-63,354475	273,184888	252,443794	0
15.01.2021	00:17:07	0	0	3,841593	2,03175	29,1096	-0,535	78,706	0	1007,86	5,7	7,8	7,6	1	1	1	1	1	1	1	1	1	0	1	-66,525722	273,226199	249,463608	0
15.01.2021	00:17:08	0	0	4,067569	2,03175	31,8708	-0,533	78,701	0	1007,7	5,6	7,8	7,6	1	1	1	1	1	1	1	1	1	0	1	-64,129669	273,186311	251,67518	0
15.01.2021	00:17:09	0	0	3,954581	2,35575	31,0104	-0,527	78,701	0	1008	5,7	7,8	7,6	1	1	1	1	1	1	1	1	1	0	1	-64,552502	273,068558	250,708208	0
15.01.2021	00:17:10	0	0	4,632509	2,75925	38,79	-0,534	78,694	0	1008,14	5,7	7,8	7,6	1	1	1	1	1	1	1	1	1	0	1	-64,693446	273,206245	251,203585	0
15.01.2021	00:17:11	0	0	4,858485	3,04725	46,9944	-0,526	78,687	0	1007,86	5,7	7,8	7,6	1	1	1	1	1	1	1	1	1	0	1	-65,680056	273,091201	249,685233	0
15.01.2021	00:17:12	0	0	4,293545	3,012	43,6824	-0,53	78,669	0	1007,84	5,6	7,8	7,6	1	1	1	1	1	1	1	1	1	0	1	-68,217054	273,247601	247,871296	0
15.01.2021	00:17:13	0	0	4,067569	2,781	13,572	-0,533	78,683	0	1007,48	5,7	7,8	7,6	1	1	1	1	1	1	1	1	1	0	1	-65,961945	273,160713	249,724554	0
15.01.2021	00:17:14	0	0	4,745497	2,77125	41,8608	-0,531	78,673	0	1007,82	5,6	7,8	7,6	1	1	1	1	1	1	1	1	1	0	1	-66,384778	273,077046	248,915132	0
15.01.2021	00:17:15	0	0	3,163665	3,015	37,3248	-0,532	78,664	0	1007,86	5,7	7,8	7,6	1	1	1	1	1	1	1	1	1	0	1	-61,099366	273,183465	254,692324	0
15.01.2021	00:17:16	0	0	4,632509	3,3	44,028	-0,535	78,664	0	1007,78	5,7	7,8	7,6	1	1	1	1	1	1	1	1	1	0	1	-68,639887	273,229051	247,362638	0
15.01.2021	00:17:17	0	0	5,423425	3,294	39,1716	-0,532	78,66	0	1007,78	5,7	7,8	7,6	1	1	1	1	1	1	1	1	1	0	1	-63,072586	273,213369	252,857396	0
15.01.2021	00:17:18	0	0	3,163665	3,18975	43,3224	-0,53	78,647	0	1007,66	5,6	7,8	7,6	1	1	1	1	1	1	1	1	1	0	1	-65,680056	273,067144	249,574122	0
15.01.2021	00:17:19	0	0	2,372748	2,9355	56,6568	-0,54	78,651	0	1007,78	5,7	7,8	7,6	1	1	1	1	1	1	1	1	1	0	1	-66,102889	273,079877	249,210092	0
15.01.2021	00:17:20	0	0	4,745468	2,955	65,4516	-0,532	78,647	0	1007,66	5,7	7,8	7,7	1	1	1	1	1	1	1	1	1	0	1	-65,961945	273,197699	249,895566	0
15.01.2021	00:17:21	0	0	5,423425	2,91375	44,0532	-0,532	78,614	0	1007,88	5,7	7,8	7,6	1	1	1	1	1	1	1	1	1	0	1	-68,357999	273,227625	247,637929	0
15.01.2021	00:17:22	0	0	3,050677	2,877	45,522	-0,532	78,619	0	1008,02	5,7	7,8	7,6	1	1	1	1	1	1	1	1	1	0	1	-64,341085	273,094034	251,037288	0
15.01.2021	00:17:23	0	0	3,163665	2,742	57,042	-0,53	78,609	0	1008	5,6	7,8	7,6	1	1	1	1	1	1	1	1	1	0	1	-69,415081	273,060074	245,80645	0
15.01.2021	00:17:24	0	0	4,632509	2,796	41,832	-0,533	78,586	0	1007,68	5,6	7,8	7,6	1	1	1	1	1	1	1	1	1	0	1	-65,961945	273,118125	249,527728	0
15.01.2021	00:17:25	0	0	2,824684	2,91675	38,7972	-0,531	78,578	0	1007,8	5,7	7,8	7,7	1	1	1	1	1	1	1	1	1	0	1	-65,045807	273,045942	250,110472	0
15.01.2021	00:17:26	0	0	2,824701	3,0165	42,9192	-0,532	78,589	0	1007,74	5,7	7,8	7,6	1	1	1	1	1	1	1	1	1	0	1	-64,904863	273,164977	250,801348	0
15.01.2021	00:17:27	0	0	4,858456	3,0645	50,6628	-0,538	78,573	0	1007,66	5,7	7,8	7,7	1	1	1	1	1	1	1	1	1	0	1	-66,243834	273,051594	248,938539	0
15.01.2021	00:17:28	0	0	3,050677	3,18075	42,228	-0,536	78,555	0	1007,78	5,6	7,8	7,6	1	1	1	1	1	1	1	1	1	0	1	-68,992248	273,194851	246,852094	0
15.01.2021	00:17:29	0	0	3,954581	3,20475	50,2992	-0,535	78,554	0	1007,9	5,6	7,8	7,6	1	1	1	1	1	1	1	1	1	0	1	-63,424947	273,250457	252,676616	0
15.01.2021	00:17:30	0	0	4,632509	3,1515	47,0808	-0,528	78,547	0	1008,2	5,6	7,8	7,6	1	1	1	1	1	1	1	1	1	0	1	-65,46864	273,17493	250,283586	0
15.01.2021	00:17:31	0	0	3,615595	3,1305	48,8376	-0,533	78,535	0	1007,72	5,7	7,8	7,7	1	1	1	1	1	1	1	1	1	0	1	-68,780832	273,053007	246,408066	0
15.01.2021	00:17:32	0	0	3,502629	2,96175	48,8232	-0,537	78,518	0	1007,72	5,7	7,8	7,6	1	1	1	1	1	1	1	1	1	0	1	-68,428471	273,170664	247,304031	0
15.01.2021	00:17:33	0	0	4,519521	2,937	57,4128	-0,538	78,506	0	1007,94	5,7	7,8	7,6	1	1	1	1	1	1	1	1	1	0	1	-70,260747	273,053007	244,928151	0
15.01.2021	00:17:34	0	0	4,519521	2,865	52,4952	-0,533	78,496	0	1007,74	5,7	7,8	7,6	1	1	1	1	1	1	1	1	1	0	1	-65,891473	273,119543	249,604752	0
15.01.2021	00:17:35	0	0	4,971443	2,6415	40,2588	-0,539	78,487	0	1007,78	5,7	7,8	7,7	1	1	1	1	1	1	1	1	1	0	1	-62,438337	273,206245	253,458695	0
15.01.2021	00:17:36	0	0	3,276653	2,415	45,5472	-0,544	78,471	0	1007,54	5,6	7,8	7,6	1	1	1	1	1	1	1	1	1	0	1	-68,992248	273,164977	246,713963	0
15.01.2021	00:17:37	0	0	4,745468	2,3685	42,9228	-0,532	78,474	0	1008,04	5,5	7,8	7,7	1	1	1	1	1	1	1	1	1	0	1	-64,48203	273,217644	251,46773	0
15.01.2021	00:17:38	0	0	4,406506	2,4675	43,2936	-0,541	78,457	0	1007,52	5,7	7,8	7,7	1	1	1	1	1	1	1	1	1	0	1	-66,032417	273,072802	249,24789	0
15.01.2021	00:17:39	0	0	3,728605	2,5125	60,9336	-0,536	78,442	0	1007,68	5,7	7,8	7,6	1	1	1	1	1	1	1	1	1	0	1	-69,203665	273,05866	246,011338	0
15.01.2021	00:17:40	0	0	4,632509	2,4075	51,7428	-0,537	78,434	0	1007,88	5,6	7,8	7,6	1	1	1	1	1	1	1	1	1	0	1	-64,552502	273,145086	251,061766	0
15.01.2021	00:17:41	0	0	3,728605	2,3235	62,28	-0,541	78,43	0	1007,76	5,7	7,8	7,6	1	1	1	1	1	1	1	1	1	0	1	-65,539112	273,216219	250,404054	0
15.01.2021	00:17:42	0	0	4,745497	2,29725	49,5684	-0,538	78,416	0	1007,94	5,6	7,8	7,6	1	1	1	1	1	1	1	1	1	0	1	-66,878083	273,120961	248,624695	0
15.01.2021	00:17:43	0	0	4,745497	2,28525	61,3044	-0,537	78,419	0	1007,82	5,6	7,8	7,6	1	1	1	1	1	1	1	1	1	0	1	-67,512333	273,220495	248,450615	0
15.01.2021	00:17:44	0	0	4,632509	2,16075	54,7992	-0,549	78,382	0	1007,72	5,7	7,8	7,6	1	1	1	1	1	1	1	1	1	0	1	-67,019027	273,17493	248,733198	0
15.01.2021	00:17:45	0	0	4,745497	2,07075	63,18	-0,536	78,369	0	1007,92	5,7	7,8	7,6	1	1	1	1	1	1	1	1	1	0	1	-64,270613	273,213369	251,659369	0
15.01.2021	00:17:46	0	0	5,536413	2,097	48,834	-0,539	78,363	0	1007,82	5,6	7,8	7,6	1	1	1	1	1	1	1	1	1	0	1	-64,270613	273,20482	251,61983	0
15.01.2021	00:17:47	0	0	3,728605	2,02725	52,884	-0,528	78,349	0	1007,88	5,7	7,8	7,6	1	1	1	1	1	1	1	1	1	0	1	-67,159972	273,192004	248,671203	0
15.01.2021	00:17:48	0	0	3,728605	2,0055	56,3652	-0,545	78,32	0	1007,84	5,7	7,8	7,6	1	1	1	1	1	1	1	1	1	0	1	-64,83439	273,03888	250,289285	0
15.01.2021	00:17:49	0	0	4,971473	1,96575	63,4788	-0,54	78,325	0	1007,78	5,6	7,8	7,6	1	1	1	1	1	1	1	1	1	0	1	-60,817477	273,137988	254,763982	0
15.01.2021	00:17:50	0	0	3,163665	1,848	64,2672	-0,541	78,322	0	1007,84	5,7	7,8	7,6	1	1	1	1	1	1	1	1	1	0	1	-64,059197	273,033232	251,038406	0
15.01.2021	00:17:51	0	0	3,954557	1,7745	40,2516	-0,546	78,303	0	1007,7	5,6	7,8	7,7	1	1	1	1	1	1	1	1	1	0	1	-66,173362	273,224773	249,809372	0
15.01.2021	00:17:52	0	0	4,180557	1,80675	50,6916	-0,549	78,31	0	1007,78	5,6	7,8	7,6	1	1	1	1	1	1	1	1	1	0	1	-64,83439	273,184888	250,963879	0
15.01.2021	00:17:53	0	0	2,711713	1,902	53,3376	-0,541	78,315	0	1007,68	5,6	7,8	7,6	1	1	1	1	1	1	1	1	1	0	1	-64,763918	273,024763	250,294592	0
15.01.2021	00:17:54	0	0	4,632509	1,85775	57,0564	-0,538	78,322	0	1007,92	5,7	7,8	7,6	1	1	1	1	1	1	1	1	1	0	1	-65,961945	273,094034	249,416428	0
15.01.2021	00:17:55	0	0	2,711713	1,82775	70,8732	-0,542	78,329	0	1007,72	5,6	7,8	7,6	1	1	1	1	1	1	1	1	1	0	1	-64,059197	273,033232	251,038406	0
15.01.2021	00:17:56	0	0	4,858485	1,77675	63,5076	-0,545	78,311	0	1007,76	5,7	7,8	7,6	1	1	1	1	1	1	1	1	1	0	1	-65,539112	273,094034	249,839261	0
15.01.2021	00:17:57	0	0	2,372748	1,71	58,1184	-0,545	78,303	0	1007,84	5,6	7,8	7,6	1	1	1	1	1	1	1	1	1	0	1	-67,300916	273,040292	247,829279	0
15.01.2021	00:17:58	0	0	2,824701	1,74675	71,2296	-0,546	78,32	0	1007,86	5,6	7,8	7,6	1	1	1	1	1	1	1	1	1	0	1	-66,384778	273,150767	249,255748	0
15.01.2021	00:17:59	0	0	3,841593	1,7925	57,528	-0,545	78,299	0	1007,86	5,7	7,8	7,6	1	1	1	1	1	1	1	1	1	0	1	-63,495419	273,203396	252,388436	0
15.01.2021	00:18:00	0	0	3,954581	2,15775	58,8744	-0,547	78,296	0	1007,8	5,6	7,8	7,6	1	1	1	1	1	1	1	1	1	0	1	-65,961945	273,20482	249,928498	0
15.01.2021	00:18:01	0	0	4,745497	2,43	62,046	-0,546	78,292	0	1007,84	5,6	7,8	7,6	1	1	1	1	1	1	1	1	1	0	1	-62,649753	273,027586	252,421786	0
15.01.2021	00:18:02	0	0	4,745497	2,43	62,046	-0,546	78,292	0	1007,84	5,6	7,8	7,6	1	1	1	1	1	1	1	1	1	0	1	-62,649753	273,027586	252,421786	0
15.01.2021	00:18:03	0	0	2,937689	2,838	48,8304	-0,546	78,274	0	1007,9	5,7	7,8	7,6	1	1	1	1	1	1	1	1	1	0	1	-64,341085	273,139407	251,246935	0
15.01.2021	00:18:04	0	0	4,858485	2,862	52,4952	-0,557	78,26	0	1007,76	5,7	7,8	7,6	1	1	1	1	1	1	1	1	1	0	1	-68,921776	273,023352	246,130222	0
15.01.2021	00:18:05	0	0	3,050677	2,84475	50,6916	-0,555	78,258	0	1007,68	5,6	7,8	7,6	1	1	1	1	1	1	1	1	1	0	1	-58,914729	273,078461	256,391716	0
15.01.2021	00:18:06	0	0	3,38962	2,895	53,7516	-0,553	78,248	0	1007,8	5,6	7,8	7,7	1	1	1	1	1	1	1	1	1	0	1	-64,411557	273,209094	251,498653	0
15.01.2021	00:18:07	0	0	4,519521	2,85675	55,2888	-0,555	78,228	0	1007,84	5,6	7,8	7,6	1	1	1	1	1	1	1	1	1	0	1	-65,46864	273,067144	249,785539	0
15.01.2021	00:18:08	0	0	3,163665	2,688	73,0548	-0,55	78,226	0	1007,86	5,6	7,8	7,6	1	1	1	1	1	1	1	1	1	0	1	-64,129669	273,05442	251,065754	0
15.01.2021	00:18:09	0	0	3,728605	2,5095	72,3132	-0,552	78,213	0	1007,92	5,6	7,8	7,6	1	1	1	1	1	1	1	1	1	0	1	-72,022551	273,182042	243,76256	0
15.01.2021	00:18:10	0	0	4,067569	2,40825	76,3776	-0,553	78,207	0	1007,72	5,6	7,8	7,6	1	1	1	1	1	1	1	1	1	0	1	-67,0895	273,115289	248,38707	0
15.01.2021	00:18:11	0	0	4,745468	2,37075	73,0476	-0,553	78,215	0	1007,98	5,6	7,8	7,7	1	1	1	1	1	1	1	1	1	0	1	-67,935166	273,030409	247,149404	0
15.01.2021	00:18:12	0	0	3,163665	2,5305	67,6656	-0,556	78,216	0	1007,82	5,6	7,8	7,6	1	1	1	1	1	1	1	1	1	0	1	-64,622974	273,051594	250,559399	0
15.01.2021	00:18:13	0	0	4,519494	3,1125	59,5044	-0,551	78,221	0	1007,78	5,6	7,8	7,7	1	1	1	1	1	1	1	1	1	0	1	-66,243834	273,199123	249,620262	0
15.01.2021	00:18:14	0	0	2,824684	3,609	68,4	-0,561	78,197	0	1007,8	5,6	7,8	7,7	1	1	1	1	1	1	1	1	1	0	1	-65,46864	273,06573	249,779008	0
15.01.2021	00:18:15	0	0	3,389641	3,9015	60,2568	-0,554	78,184	0	1007,84	5,6	7,8	7,6	1	1	1	1	1	1	1	1	1	0	1	-62,22692	273,196275	253,624006	0
15.01.2021	00:18:16	0	0	3,276653	3,933	69,1344	-0,559	78,17	0	1007,88	5,6	7,8	7,6	1	1	1	1	1	1	1	1	1	0	1	-63,918252	273,194851	251,926089	0
15.01.2021	00:18:17	0	0	4,858485	3,897	71,2188	-0,559	78,157	0	1007,84	5,6	7,8	7,6	1	1	1	1	1	1	1	1	1	0	1	-68,07611	273,147927	247,551286	0
15.01.2021	00:18:18	0	0	4,745497	3,72675	62,4348	-0,56	78,148	0	1007,9	5,6	7,8	7,6	1	1	1	1	1	1	1	1	1	0	1	-59,901339	273,037468	255,215817	0
15.01.2021	00:18:19	0	0	4,858485	3,62025	65,8584	-0,562	78,12	0	1007,92	5,6	7,8	7,6	1	1	1	1	1	1	1	1	1	0	1	-60,535588	273,190581	255,289004	0
15.01.2021	00:18:20	0	0	2,937689	3,67425	59,8644	-0,57	78,12	0	1007,7	5,6	7,8	7,6	1	1	1	1	1	1	1	1	1	0	1	-63,354475	273,16782	252,36488	0
15.01.2021	00:18:21	0	0	2,937689	3,82575	63,882	-0,564	78,13	0	1007,88	5,6	7,8	7,6	1	1	1	1	1	1	1	1	1	0	1	-66,525722	273,028997	248,552332	0
15.01.2021	00:18:22	0	0	4,858485	3,83625	66,5136	-0,567	78,144	0	1007,74	5,6	7,8	7,6	1	1	1	1	1	1	1	1	1	0	1	-63,988724	273,06573	251,258923	0
15.01.2021	00:18:23	0	0	2,824701	3,68625	62,0316	-0,563	78,195	0	1007,78	5,6	7,8	7,6	1	1	1	1	1	1	1	1	1	0	1	-67,864693	273,01912	247,167768	0
15.01.2021	00:18:24	0	0	4,180557	3,6345	65,4516	-0,56	78,241	0	1007,96	5,6	7,8	7,6	1	1	1	1	1	1	1	1	1	0	1	-63,777308	273,146506	251,843524	0
15.01.2021	00:18:25	0	0	2,146772	3,6585	60,2568	-0,566	78,27	0	1007,76	5,6	7,8	7,6	1	1	1	1	1	1	1	1	1	0	1	-64,411557	273,179197	251,360398	0
15.01.2021	00:18:26	0	0	4,745468	3,56475	58,4928	-0,567	78,305	0	1007,78	5,6	7,8	7,7	1	1	1	1	1	1	1	1	1	0	1	-66,102889	273,118125	249,386784	0
15.01.2021	00:18:27	0	0	2,937689	3,246	72,306	-0,565	78,311	0	1007,76	5,6	7,8	7,6	1	1	1	1	1	1	1	1	1	0	1	-66,807611	273,024763	248,2509	0
15.01.2021	00:18:28	0	0	2,598725	3,0675	44,0604	-0,57	78,359	0	1007,74	5,6	7,8	7,6	1	1	1	1	1	1	1	1	1	0	1	-61,733615	273,033232	253,363987	0
15.01.2021	00:18:29	0	0	3,728605	3,0765	60,2352	-0,567	78,38	0	1007,8	5,6	7,8	7,6	1	1	1	1	1	1	1	1	1	0	1	-64,622974	273,09545	250,761941	0
15.01.2021	00:18:30	0	0	4,745497	3,30825	58,1364	-0,561	78,42	0	1007,82	5,6	7,8	7,6	1	1	1	1	1	1	1	1	1	0	1	-61,451727	273,207669	254,451894	0
15.01.2021	00:18:31	0	0	2,146772	3,39225	50,2992	-0,561	78,449	0	1007,72	5,6	7,8	7,6	1	1	1	1	1	1	1	1	1	0	1	-65,186751	273,111036	250,270169	0
15.01.2021	00:18:32	0	0	2,711713	3,363	42,9048	-0,563	78,461	0	1007,92	5,6	7,8	7,6	1	1	1	1	1	1	1	1	1	0	1	-67,300916	273,199123	248,56318	0
15.01.2021	00:18:33	0	0	2,14676	3,22425	46,98	-0,566	78,483	0	1007,82	5,6	7,8	7,7	1	1	1	1	1	1	1	1	1	0	1	-68,146582	273,119543	247,349643	0
15.01.2021	00:18:34	0	0	3,163665	2,979	58,122	-0,57	78,495	0	1007,82	5,6	7,8	7,6	1	1	1	1	1	1	1	1	1	0	1	-65,116279	273,043117	250,026957	0
15.01.2021	00:18:35	0	0	5,197449	2,83875	56,6604	-0,568	78,512	0	1007,8	5,6	7,8	7,6	1	1	1	1	1	1	1	1	1	0	1	-68,428471	273,118125	247,061202	0
15.01.2021	00:18:36	0	0	4,293545	2,76525	51,7644	-0,564	78,536	0	1007,92	5,6	7,8	7,6	1	1	1	1	1	1	1	1	1	0	1	-68,921776	273,190581	246,902817	0
15.01.2021	00:18:37	0	0	4,067569	2,94525	52,5024	-0,566	78,546	0	1007,8	5,6	7,8	7,6	1	1	1	1	1	1	1	1	1	0	1	-64,270613	273,197699	251,586898	0
15.01.2021	00:18:38	0	0	3,389641	3,1035	51,0552	-0,568	78,542	0	1007,84	5,6	7,8	7,6	1	1	1	1	1	1	1	1	1	0	1	-66,666667	273,163555	249,032973	0
15.01.2021	00:18:39	0	0	2,598725	3,1785	48,924	-0,565	78,563	0	1007,8	5,6	7,8	7,6	1	1	1	1	1	1	1	1	1	0	1	-65,186751	273,209094	250,723459	0
15.01.2021	00:18:40	0	0	2,711696	3,35925	57,0492	-0,569	78,562	0	1007,88	5,6	7,8	7,7	1	1	1	1	1	1	1	1	1	0	1	-63,284003	273,149347	252,349958	0
15.01.2021	00:18:41	0	0	4,180532	3,26625	71,244	-0,57	78,553	0	1007,9	5,6	7,8	7,7	1	1	1	1	1	1	1	1	1	0	1	-64,693446	273,206245	251,203585	0
15.01.2021	00:18:42	0	0	2,485736	3,102	63,882	-0,563	78,554	0	1007,84	5,6	7,8	7,6	1	1	1	1	1	1	1	1	1	0	1	-69,133192	273,217644	246,816567	0
15.01.2021	00:18:43	0	0	3,389641	3,08325	62,0244	-0,566	78,559	0	1008	5,6	7,8	7,6	1	1	1	1	1	1	1	1	1	0	1	-62,438337	273,15645	253,228456	0
15.01.2021	00:18:44	0	0	4,519521	2,8845	70,218	-0,573	78,556	0	1007,82	5,6	7,8	7,6	1	1	1	1	1	1	1	1	1	0	1	-62,438337	273,221921	253,531205	0
15.01.2021	00:18:45	0	0	3,276653	2,8275	44,0532	-0,566	78,561	0	1007,68	5,6	7,8	7,6	1	1	1	1	1	1	1	1	1	0	1	-63,424947	273,128054	252,110605	0
15.01.2021	00:18:46	0	0	4,745497	2,77425	57,1284	-0,565	78,547	0	1007,8	5,6	7,8	7,6	1	1	1	1	1	1	1	1	1	0	1	-69,203665	273,064316	246,037453	0
15.01.2021	00:18:47	0	0	3,502629	2,619	35,8632	-0,566	78,549	0	1007,74	5,6	7,8	7,6	1	1	1	1	1	1	1	1	1	0	1	-67,159972	273,03182	247,931114	0
15.01.2021	00:18:48	0	0	2,937689	2,7015	44,0532	-0,574	78,542	0	1007,74	5,6	7,8	7,6	1	1	1	1	1	1	1	1	1	0	1	-67,230444	273,16782	248,488911	0
15.01.2021	00:18:49	0	0	4,632509	2,8755	40,2516	-0,577	78,539	0	1007,76	5,7	7,8	7,6	1	1	1	1	1	1	1	1	1	0	1	-63,354475	273,048768	251,81485	0
15.01.2021	00:18:50	0	0	2,937689	2,8665	52,506	-0,57	78,538	0	1007,54	5,7	7,8	7,6	1	1	1	1	1	1	1	1	1	0	1	-65,398168	273,166398	250,314615	0
15.01.2021	00:18:51	0	0	2,824701	2,66475	55,944	-0,566	78,547	0	1008	5,6	7,8	7,6	1	1	1	1	1	1	1	1	1	0	1	-69,06272	273,223347	246,913417	0
15.01.2021	00:18:52	0	0	3,615617	2,58675	78,2676	-0,569	78,54	0	1007,9	5,6	7,8	7,6	1	1	1	1	1	1	1	1	1	0	1	-69,203665	273,187734	246,607765	0
15.01.2021	00:18:53	0	0	4,519521	2,5245	39,546	-0,567	78,546	0	1008,08	5,6	7,8	7,6	1	1	1	1	1	1	1	1	1	0	1	-66,737139	273,118125	248,752534	0
15.01.2021	00:18:54	0	0	2,598725	2,3745	57,4308	-0,57	78,56	0	1007,66	5,6	7,8	7,6	1	1	1	1	1	1	1	1	1	0	1	-65,46864	273,055833	249,733309	0
15.01.2021	00:18:55	0	0	4,519521	2,2755	56,2896	-0,577	78,536	0	1007,82	5,7	7,8	7,6	1	1	1	1	1	1	1	1	1	0	1	-65,46864	273,111036	249,98828	0
15.01.2021	00:18:56	0	0	2,711713	2,36625	35,874	-0,571	78,539	0	1007,64	5,7	7,8	7,6	1	1	1	1	1	1	1	1	1	0	1	-63,777308	273,048768	251,392017	0
15.01.2021	00:18:57	0	0	3,502608	2,74875	70,2288	-0,569	78,556	0	1007,68	5,6	7,8	7,7	1	1	1	1	1	1	1	1	1	0	1	-66,807611	273,08837	248,544598	0
15.01.2021	00:18:58	0	0	3,050677	2,85525	58,8852	-0,575	78,553	0	1007,72	5,6	7,8	7,6	1	1	1	1	1	1	1	1	1	0	1	-65,116279	273,211944	250,807112	0
15.01.2021	00:18:59	0	0	2,711713	2,8215	41,8248	-0,57	78,574	0	1007,68	5,6	7,8	7,6	1	1	1	1	1	1	1	1	1	0	1	-64,48203	273,108201	250,961793	0
15.01.2021	00:19:00	0	0	2,937689	2,53725	46,2492	-0,569	78,587	0	1008,06	5,6	7,8	7,6	1	1	1	1	1	1	1	1	1	0	1	-69,837914	273,160713	245,848585	0
15.01.2021	00:19:01	0	0	3,841593	2,6475	64,638	-0,569	78,592	0	1008,08	5,6	7,8	7,6	1	1	1	1	1	1	1	1	1	0	1	-68,639887	273,067144	246,614291	0
15.01.2021	00:19:02	0	0	3,841593	2,6475	64,638	-0,569	78,592	0	1008,08	5,6	7,8	7,6	1	1	1	1	1	1	1	1	1	0	1	-68,639887	273,067144	246,614291	0
15.01.2021	00:19:03	0	0	4,519494	2,5005	81,2196	-0,576	78,589	0	1007,8	5,7	7,8	7,7	1	1	1	1	1	1	1	1	1	0	1	-63,777308	273,216219	252,165858	0
15.01.2021	00:19:04	0	0	4,971473	2,40975	72,3024	-0,574	78,577	0	1007,72	5,7	7,8	7,6	1	1	1	1	1	1	1	1	1	0	1	-64,975335	273,109619	250,475037	0
15.01.2021	00:19:05	0	0	3,050677	2,49225	75,978	-0,578	78,606	0	1007,7	5,6	7,8	7,6	1	1	1	1	1	1	1	1	1	0	1	-65,750529	273,234757	250,278394	0
15.01.2021	00:19:06	0	0	5,084461	2,4825	69,84	-0,578	78,601	0	1007,68	5,6	7,8	7,6	1	1	1	1	1	1	1	1	1	0	1	-69,06272	273,196275	246,788206	0
15.01.2021	00:19:07	0	0	5,084461	2,5845	55,1916	-0,568	78,62	0	1007,92	5,7	7,8	7,6	1	1	1	1	1	1	1	1	1	0	1	-66,102889	273,209094	249,807321	0
15.01.2021	00:19:08	0	0	4,745497	2,5245	48,1284	-0,576	78,621	0	1007,84	5,7	7,8	7,6	1	1	1	1	1	1	1	1	1	0	1	-66,948555	273,193428	248,889203	0
15.01.2021	00:19:09	0	0	4,067544	2,49075	54,4932	-0,575	78,624	0	1007,86	5,7	7,8	7,7	1	1	1	1	1	1	1	1	1	0	1	-66,173362	273,164977	249,532849	0
15.01.2021	00:19:10	0	0	5,310437	2,27775	57,7656	-0,566	78,617	0	1007,82	5,7	7,8	7,6	1	1	1	1	1	1	1	1	1	0	1	-65,257223	273,043117	249,886012	0
15.01.2021	00:19:11	0	0	3,163665	2,301	65,088	-0,567	78,629	0	1007,62	5,6	7,8	7,6	1	1	1	1	1	1	1	1	1	0	1	-62,438337	273,08837	252,913872	0
15.01.2021	00:19:12	0	0	3,615617	2,478	51,7464	-0,569	78,635	0	1008,02	5,6	7,8	7,6	1	1	1	1	1	1	1	1	1	0	1	-65,821001	273,21907	250,135352	0
15.01.2021	00:19:13	0	0	3,050677	2,508	50,3136	-0,576	78,635	0	1007,9	5,6	7,8	7,6	1	1	1	1	1	1	1	1	1	0	1	-61,87456	273,064316	253,366558	0
15.01.2021	00:19:14	0	0	4,519521	2,3235	43,6788	-0,571	78,633	0	1007,86	5,6	7,8	7,6	1	1	1	1	1	1	1	1	1	0	1	-66,102889	273,094034	249,275483	0
15.01.2021	00:19:15	0	0	2,598725	2,17875	70,8336	-0,568	78,627	0	1007,78	5,6	7,8	7,6	1	1	1	1	1	1	1	1	1	0	1	-62,367865	273,060074	252,853666	0
15.01.2021	00:19:16	0	0	4,971473	2,067	51,0732	-0,575	78,631	0	1007,6	5,6	7,8	7,6	1	1	1	1	1	1	1	1	1	0	1	-67,0895	273,082707	248,236555	0
15.01.2021	00:19:17	0	0	3,163665	2,043	66,2292	-0,573	78,637	0	1007,7	5,6	7,8	7,6	1	1	1	1	1	1	1	1	1	0	1	-63,284003	273,041704	251,852712	0
15.01.2021	00:19:18	0	0	5,084461	2,061	54,792	-0,571	78,635	0	1007,94	5,6	7,8	7,6	1	1	1	1	1	1	1	1	1	0	1	-66,173362	273,145086	249,440907	0
15.01.2021	00:19:19	0	0	2,711713	2,1855	44,4276	-0,572	78,63	0	1007,78	5,6	7,8	7,6	1	1	1	1	1	1	1	1	1	0	1	-69,415081	273,210519	246,501719	0
15.01.2021	00:19:20	0	0	5,310437	2,26425	49,2264	-0,577	78,622	0	1007,64	5,7	7,8	7,6	1	1	1	1	1	1	1	1	1	0	1	-65,045807	273,129473	250,496301	0
15.01.2021	00:19:21	0	0	2,372748	2,26575	41,8464	-0,57	78,639	0	1008,12	5,7	7,8	7,6	1	1	1	1	1	1	1	1	1	0	1	-65,961945	273,197699	249,895566	0
15.01.2021	00:19:22	0	0	4,858485	2,2275	44,0388	-0,574	78,626	0	1007,7	5,6	7,8	7,6	1	1	1	1	1	1	1	1	1	0	1	-64,975335	273,170664	250,757167	0
15.01.2021	00:19:23	0	0	3,841593	2,14575	52,902	-0,574	78,634	0	1007,88	5,6	7,8	7,6	1	1	1	1	1	1	1	1	1	0	1	-66,525722	273,146506	249,095109	0
15.01.2021	00:19:24	0	0	2,485736	2,142	49,2192	-0,576	78,627	0	1007,82	5,7	7,8	7,6	1	1	1	1	1	1	1	1	1	0	1	-68,005638	273,201971	247,871631	0
15.01.2021	00:19:25	0	0	4,519521	2,23575	43,6716	-0,575	78,617	0	1007,74	5,6	7,8	7,6	1	1	1	1	1	1	1	1	1	0	1	-65,186751	273,06573	250,060897	0
15.01.2021	00:19:26	0	0	4,745497	2,37975	65,466	-0,574	78,62	0	1008,04	5,6	7,8	7,6	1	1	1	1	1	1	1	1	1	0	1	-66,525722	273,201971	249,351546	0
15.01.2021	00:19:27	0	0	2,824701	2,3745	45,1656	-0,572	78,614	0	1007,86	5,6	7,8	7,6	1	1	1	1	1	1	1	1	1	0	1	-64,622974	273,126635	250,906022	0
15.01.2021	00:19:28	0	0	2,937689	2,397	59,8536	-0,578	78,614	0	1007,78	5,6	7,8	7,6	1	1	1	1	1	1	1	1	1	0	1	-62,931642	273,196275	252,919284	0
15.01.2021	00:19:29	0	0	4,067569	2,55	58,8708	-0,575	78,598	0	1007,82	5,6	7,8	7,6	1	1	1	1	1	1	1	1	1	0	1	-68,357999	273,13231	247,197224	0
15.01.2021	00:19:30	0	0	4,067569	2,90025	55,5516	-0,569	78,613	0	1007,92	5,6	7,8	7,6	1	1	1	1	1	1	1	1	1	0	1	-67,019027	273,027586	248,052511	0
15.01.2021	00:19:31	0	0	3,163665	3,20475	47,7684	-0,571	78,608	0	1007,68	5,6	7,8	7,6	1	1	1	1	1	1	1	1	1	0	1	-69,767442	273,021941	245,278043	0
15.01.2021	00:19:32	0	0	4,858485	3,49425	44,406	-0,578	78,619	0	1007,68	5,6	7,8	7,6	1	1	1	1	1	1	1	1	1	0	1	-66,737139	273,153608	248,916519	0
15.01.2021	00:19:33	0	0	4,632509	3,74475	41,0112	-0,576	78,626	0	1007,94	5,6	7,8	7,6	1	1	1	1	1	1	1	1	1	0	1	-63,284003	273,028997	251,794051	0
15.01.2021	00:19:34	0	0	4,632509	3,7245	45,8388	-0,576	78,627	0	1007,86	5,6	7,8	7,6	1	1	1	1	1	1	1	1	1	0	1	-63,706836	273,162134	251,986233	0
15.01.2021	00:19:35	0	0	2,598725	3,5325	44,7804	-0,578	78,637	0	1007,68	5,6	7,8	7,6	1	1	1	1	1	1	1	1	1	0	1	-66,596195	273,069973	248,671047	0
15.01.2021	00:19:36	0	0	4,519521	3,3645	33,2568	-0,574	78,632	0	1007,84	5,6	7,8	7,6	1	1	1	1	1	1	1	1	1	0	1	-65,539112	273,170664	250,193389	0
15.01.2021	00:19:37	0	0	4,632509	3,087	38,4156	-0,576	78,633	0	1007,94	5,6	7,8	7,6	1	1	1	1	1	1	1	1	1	0	1	-63,777308	273,062902	251,45728	0
15.01.2021	00:19:38	0	0	2,824701	2,72475	33,2856	-0,578	78,639	0	1007,94	5,6	7,8	7,6	1	1	1	1	1	1	1	1	1	0	1	-65,46864	273,013478	249,537781	0
15.01.2021	00:19:39	0	0	4,406533	2,601	35,4888	-0,576	78,634	0	1008,02	5,6	7,8	7,6	1	1	1	1	1	1	1	1	1	0	1	-63,777308	273,060074	251,444223	0
15.01.2021	00:19:40	0	0	3,050677	2,68275	43,2828	-0,575	78,629	0	1007,88	5,6	7,8	7,6	1	1	1	1	1	1	1	1	1	0	1	-65,680056	273,05018	249,495792	0
15.01.2021	00:19:41	0	0	3,954581	2,89725	45,8532	-0,57	78,63	0	1007,9	5,6	7,8	7,6	1	1	1	1	1	1	1	1	1	0	1	-58,703312	273,120961	256,799466	0
15.01.2021	00:19:42	0	0	3,954581	3,11775	54,4788	-0,578	78,627	0	1007,78	5,6	7,8	7,6	1	1	1	1	1	1	1	1	1	0	1	-64,83439	273,186311	250,970459	0
15.01.2021	00:19:43	0	0	3,841593	3,018	63,504	-0,579	78,617	0	1007,9	5,6	7,8	7,6	1	1	1	1	1	1	1	1	1	0	1	-61,522199	273,043117	253,621037	0
15.01.2021	00:19:44	0	0	2,937689	2,75325	39,8772	-0,575	78,623	0	1007,84	5,6	7,8	7,6	1	1	1	1	1	1	1	1	1	0	1	-60,535588	273,16782	255,183766	0
15.01.2021	00:19:45	0	0	2,937689	2,57625	51,0516	-0,582	78,612	0	1007,84	5,6	7,8	7,6	1	1	1	1	1	1	1	1	1	0	1	-63,002114	273,023352	252,049883	0
15.01.2021	00:19:46	0	0	3,728605	2,6085	36,9396	-0,574	78,612	0	1007,86	5,6	7,8	7,6	1	1	1	1	1	1	1	1	1	0	1	-63,354475	273,064316	251,886643	0
15.01.2021	00:19:47	0	0	3,050677	2,72775	44,064	-0,578	78,605	0	1007,68	5,6	7,8	7,6	1	1	1	1	1	1	1	1	1	0	1	-63,002114	273,006427	251,97177	0
15.01.2021	00:19:48	0	0	3,728605	2,91075	48,5208	-0,582	78,583	0	1007,78	5,6	7,8	7,6	1	1	1	1	1	1	1	1	1	0	1	-62,156448	273,111036	253,300472	0
15.01.2021	00:19:49	0	0	5,084461	2,8785	56,286	-0,576	78,604	0	1007,8	5,7	7,8	7,6	1	1	1	1	1	1	1	1	1	0	1	-62,720226	273,002198	252,234143	0
15.01.2021	00:19:50	0	0	2,711713	2,937	65,8404	-0,581	78,601	0	1007,94	5,6	7,8	7,6	1	1	1	1	1	1	1	1	1	0	1	-66,102889	273,125216	249,419551	0
15.01.2021	00:19:51	0	0	2,146772	2,85225	55,9296	-0,581	78,573	0	1007,86	5,6	7,8	7,6	1	1	1	1	1	1	1	1	1	0	1	-60,465116	272,990926	254,437237	0
15.01.2021	00:19:52	0	0	4,293545	2,8905	50,3064	-0,578	78,583	0	1007,8	5,6	7,7	7,6	1	1	1	1	1	1	1	1	1	0	1	-67,159972	273,164977	248,546239	0
15.01.2021	00:19:53	0	0	3,728582	2,98575	49,302	-0,582	78,572	0	1007,82	5,6	7,8	7,7	1	1	1	1	1	1	1	1	1	0	1	-68,639887	273,10395	246,784295	0
15.01.2021	00:19:54	0	0	4,519521	3,147	46,62	-0,577	78,567	0	1007,66	5,6	7,8	7,6	1	1	1	1	1	1	1	1	1	0	1	-69,415081	272,996561	245,513275	0
15.01.2021	00:19:55	0	0	4,858485	3,171	52,1244	-0,58	78,568	0	1007,76	5,6	7,8	7,6	1	1	1	1	1	1	1	1	1	0	1	-64,341085	273,045942	250,815194	0
15.01.2021	00:19:56	0	0	4,293545	3,07425	43,668	-0,577	78,567	0	1007,82	5,6	7,8	7,6	1	1	1	1	1	1	1	1	1	0	1	-59,901339	273,16782	255,818016	0
15.01.2021	00:19:57	0	0	5,084461	3,02625	42,9228	-0,58	78,572	0	1007,9	5,6	7,8	7,6	1	1	1	1	1	1	1	1	1	0	1	-67,159972	273,128054	248,37558	0
15.01.2021	00:19:58	0	0	4,858485	3,0825	57,7296	-0,576	78,572	0	1007,9	5,6	7,7	7,6	1	1	1	1	1	1	1	1	1	0	1	-65,327696	273,157871	250,345665	0
15.01.2021	00:19:59	0	0	5,197449	2,874	53,7372	-0,582	78,549	0	1007,78	5,6	7,8	7,6	1	1	1	1	1	1	1	1	1	0	1	-66,032417	273,079877	249,280564	0
15.01.2021	00:20:00	0	0	4,067569	2,88375	47,7504	-0,578	78,564	0	1008	5,6	7,7	7,6	1	1	1	1	1	1	1	1	1	0	1	-65,116279	273,128054	250,419273	0
15.01.2021	00:20:01	0	0	4,745497	2,979	46,242	-0,577	78,554	0	1007,76	5,6	7,8	7,6	1	1	1	1	1	1	1	1	1	0	1	-65,116279	273,128054	250,419273	0
15.01.2021	00:20:02	0	0	4,745497	2,979	46,242	-0,577	78,554	0	1007,76	5,6	7,8	7,6	1	1	1	1	1	1	1	1	1	0	1	-66,878083	273,13373	248,683698	0
15.01.2021	00:20:03	0	0	4,180557	3,054	61,2828	-0,581	78,551	0	1007,82	5,6	7,8	7,6	1	1	1	1	1	1	1	1	1	0	1	-63,002114	272,997971	251,932744	0
15.01.2021	00:20:04	0	0	3,050677	3,12225	55,6416	-0,58	78,543	0	1007,9	5,6	7,8	7,6	1	1	1	1	1	1	1	1	1	0	1	-65,116279	273,06573	250,131369	0
15.01.2021	00:20:05	0	0	4,519521	3,08475	60,2352	-0,584	78,512	0	1007,62	5,6	7,8	7,6	1	1	1	1	1	1	1	1	1	0	1	-66,384778	273,15645	249,282015	0
15.01.2021	00:20:06	0	0	3,276653	3,219	57,4164	-0,585	78,526	0	1007,8	5,6	7,7	7,6	1	1	1	1	1	1	1	1	1	0	1	-68,780832	273,000789	246,167033	0
15.01.2021	00:20:07	0	0	4,745497	3,249	69,1668	-0,58	78,514	0	1007,8	5,6	7,8	7,6	1	1	1	1	1	1	1	1	1	0	1	-62,22692	273,142247	253,374222	0
15.01.2021	00:20:08	0	0	4,180557	3,56175	64,6164	-0,581	78,514	0	1007,94	5,6	7,8	7,6	1	1	1	1	1	1	1	1	1	0	1	-65,186751	273,152188	250,46034	0
15.01.2021	00:20:09	0	0	4,632509	3,69	62,784	-0,588	78,499	0	1007,84	5,6	7,8	7,6	1	1	1	1	1	1	1	1	1	0	1	-61,663143	273,15645	254,00365	0
15.01.2021	00:20:10	0	0	2,25976	3,8745	70,6176	-0,588	78,495	0	1007,86	5,6	7,8	7,6	1	1	1	1	1	1	1	1	1	0	1	-64,129669	272,99938	250,811692	0
15.01.2021	00:20:11	0	0	4,406533	3,9735	68,4	-0,586	78,48	0	1007,92	5,6	7,8	7,6	1	1	1	1	1	1	1	1	1	0	1	-66,243834	273,0997	249,160712	0
15.01.2021	00:20:12	0	0	2,711713	3,97425	59,8716	-0,587	78,497	0	1007,9	5,6	7,8	7,6	1	1	1	1	1	1	1	1	1	0	1	-68,569415	273,15645	247,097378	0
15.01.2021	00:20:13	0	0	3,163665	3,858	63,1728	-0,587	78,489	0	1007,92	5,6	7,8	7,6	1	1	1	1	1	1	1	1	1	0	1	-61,87456	273,074217	253,412281	0
15.01.2021	00:20:14	0	0	4,293545	3,8265	61,7004	-0,591	78,499	0	1007,86	5,6	7,7	7,6	1	1	1	1	1	1	1	1	1	0	1	-68,005638	273,140827	247,588943	0
15.01.2021	00:20:15	0	0	4,406533	3,80325	56,2536	-0,587	78,503	0	1007,82	5,6	7,7	7,6	1	1	1	1	1	1	1	1	1	0	1	-65,891473	273,041704	249,245242	0
15.01.2021	00:20:16	0	0	4,632509	3,84825	63,1836	-0,588	78,527	0	1007,88	5,6	7,7	7,6	1	1	1	1	1	1	1	1	1	0	1	-66,525722	272,986701	248,357134	0
15.01.2021	00:20:17	0	0	3,954581	3,76725	59,8536	-0,592	78,549	0	1007,78	5,6	7,7	7,6	1	1	1	1	1	1	1	1	1	0	1	-63,636364	273,123798	251,879522	0
15.01.2021	00:20:18	0	0	3,728605	3,744	63,9504	-0,584	78,593	0	1007,9	5,6	7,8	7,6	1	1	1	1	1	1	1	1	1	0	1	-63,988724	273,143666	251,618981	0
15.01.2021	00:20:19	0	0	3,276653	3,68625	71,2188	-0,586	78,636	0	1007,8	5,6	7,8	7,6	1	1	1	1	1	1	1	1	1	0	1	-62,297393	273,079877	253,015589	0
15.01.2021	00:20:20	0	0	2,598725	3,69975	65,8584	-0,585	78,674	0	1007,96	5,6	7,8	7,6	1	1	1	1	1	1	1	1	1	0	1	-67,159972	272,982476	247,703394	0
15.01.2021	00:20:21	0	0	3,276653	3,522	54,4608	-0,595	78,69	0	1007,74	5,6	7,8	7,6	1	1	1	1	1	1	1	1	1	0	1	-65,821001	273,111036	249,635919	0
15.01.2021	00:20:22	0	0	4,745497	3,39	60,6456	-0,585	78,734	0	1007,94	5,6	7,8	7,6	1	1	1	1	1	1	1	1	1	0	1	-62,579281	273,16782	253,140074	0
15.01.2021	00:20:23	0	0	4,067569	3,1365	60,9552	-0,587	78,78	0	1007,74	5,6	7,8	7,6	1	1	1	1	1	1	1	1	1	0	1	-63,002114	273,075631	252,291261	0
15.01.2021	00:20:24	0	0	4,406533	3,26775	62,8164	-0,589	78,766	0	1007,96	5,6	7,7	7,6	1	1	1	1	1	1	1	1	1	0	1	-63,424947	272,976845	251,412438	0
15.01.2021	00:20:25	0	0	4,519521	3,74325	49,968	-0,586	78,791	0	1007,88	5,6	7,8	7,6	1	1	1	1	1	1	1	1	1	0	1	-63,002114	273,098283	252,395888	0
15.01.2021	00:20:26	0	0	2,937689	4,0365	43,3044	-0,579	78,834	0	1007,64	5,6	7,7	7,6	1	1	1	1	1	1	1	1	1	0	1	-65,46864	273,172086	250,270436	0
15.01.2021	00:20:27	0	0	4,406533	3,948	57,42	-0,588	78,854	0	1008,06	5,6	7,7	7,6	1	1	1	1	1	1	1	1	1	0	1	-67,230444	273,068558	248,030266	0
15.01.2021	00:20:28	0	0	3,502629	3,7725	47,3688	-0,583	78,879	0	1007,88	5,6	7,7	7,6	1	1	1	1	1	1	1	1	1	0	1	-66,878083	273,172086	248,860992	0
15.01.2021	00:20:29	0	0	3,841593	3,8205	44,7912	-0,584	78,907	0	1007,84	5,6	7,7	7,6	1	1	1	1	1	1	1	1	1	0	1	-68,851304	273,007837	246,129086	0
15.01.2021	00:20:30	0	0	5,084461	3,7935	48,5136	-0,582	78,926	0	1007,72	5,6	7,7	7,6	1	1	1	1	1	1	1	1	1	0	1	-66,948555	273,112454	248,514914	0
15.01.2021	00:20:31	0	0	4,293545	3,94575	55,9224	-0,584	78,953	0	1007,96	5,6	7,7	7,6	1	1	1	1	1	1	1	1	1	0	1	-65,891473	272,997971	249,043385	0
15.01.2021	00:20:32	0	0	2,937689	3,8115	51,7536	-0,587	78,974	0	1007,74	5,6	7,7	7,6	1	1	1	1	1	1	1	1	1	0	1	-65,891473	273,053007	249,297425	0
15.01.2021	00:20:33	0	0	4,858485	3,45825	57,726	-0,584	78,983	0	1008,02	5,6	7,8	7,6	1	1	1	1	1	1	1	1	1	0	1	-62,508809	273,163555	253,190831	0
15.01.2021	00:20:34	0	0	3,841593	3,16875	76,3848	-0,582	79,004	0	1007,76	5,6	7,7	7,6	1	1	1	1	1	1	1	1	1	0	1	-67,935166	273,074217	247,351675	0
15.01.2021	00:20:35	0	0	3,728605	2,97	78,2928	-0,59	79,008	0	1007,7	5,6	7,7	7,6	1	1	1	1	1	1	1	1	1	0	1	-66,173362	273,176352	249,58544	0
15.01.2021	00:20:36	0	0	3,502629	2,94675	59,8212	-0,581	79,019	0	1007,98	5,6	7,8	7,6	1	1	1	1	1	1	1	1	1	0	1	-69,626498	273,120961	245,876281	0
15.01.2021	00:20:37	0	0	3,841593	2,826	66,9996	-0,583	79,004	0	1007,86	5,6	7,7	7,6	1	1	1	1	1	1	1	1	1	0	1	-69,203665	273,182042	246,581446	0
15.01.2021	00:20:38	0	0	4,858485	2,75175	61,686	-0,581	79,046	0	1008,04	5,6	7,7	7,6	1	1	1	1	1	1	1	1	1	0	1	-65,609584	273,023352	249,442413	0
15.01.2021	00:20:39	0	0	2,824701	2,65725	62,4276	-0,58	79,022	0	1007,88	5,6	7,7	7,6	1	1	1	1	1	1	1	1	1	0	1	-66,525722	273,17493	249,226503	0
15.01.2021	00:20:40	0	0	2,937689	2,5245	77,2308	-0,58	79,006	0	1007,9	5,6	7,7	7,6	1	1	1	1	1	1	1	1	1	0	1	-70,401691	273,16782	245,317664	0
15.01.2021	00:20:41	0	0	2,937689	2,34975	68,7744	-0,58	78,991	0	1007,72	5,6	7,7	7,6	1	1	1	1	1	1	1	1	1	0	1	-65,609584	273,146506	250,011247	0
15.01.2021	00:20:42	0	0	2,824701	2,307	67,6728	-0,581	78,997	0	1007,64	5,6	7,7	7,6	1	1	1	1	1	1	1	1	1	0	1	-64,270613	273,172086	251,468462	0
15.01.2021	00:20:43	0	0	2,711713	2,3715	65,8548	-0,578	78,98	0	1007,76	5,6	7,7	7,6	1	1	1	1	1	1	1	1	1	0	1	-64,059197	273,007837	250,921193	0
15.01.2021	00:20:44	0	0	3,728605	2,27625	66,5532	-0,577	78,966	0	1007,8	5,6	7,7	7,6	1	1	1	1	1	1	1	1	1	0	1	-63,424947	273,159292	252,254983	0
15.01.2021	00:20:45	0	0	2,824701	2,163	51,7644	-0,574	78,961	0	1007,78	5,6	7,7	7,6	1	1	1	1	1	1	1	1	1	0	1	-63,988724	273,061488	251,239335	0
15.01.2021	00:20:46	0	0	4,293545	2,09175	52,1496	-0,576	78,955	0	1007,9	5,6	7,7	7,6	1	1	1	1	1	1	1	1	1	0	1	-68,780832	273,007837	246,199559	0
15.01.2021	00:20:47	0	0	2,937689	2,0895	39,8556	-0,577	78,94	0	1007,78	5,6	7,7	7,6	1	1	1	1	1	1	1	1	1	0	1	-70,190275	273,142247	245,410868	0
15.01.2021	00:20:48	0	0	2,937689	2,202	49,5756	-0,574	78,955	0	1008,02	5,6	7,8	7,6	1	1	1	1	1	1	1	1	1	0	1	-65,891473	273,006427	249,082411	0
15.01.2021	00:20:49	0	0	3,276653	2,3835	47,376	-0,581	78,941	0	1007,94	5,6	7,7	7,6	1	1	1	1	1	1	1	1	1	0	1	-64,763918	273,120961	250,73886	0
15.01.2021	00:20:50	0	0	4,745497	2,4975	54,4716	-0,581	78,945	0	1007,8	5,6	7,7	7,6	1	1	1	1	1	1	1	1	1	0	1	-65,821001	273,182042	249,96411	0
15.01.2021	00:20:51	0	0	2,937689	2,5335	73,782	-0,577	78,935	0	1007,86	5,6	7,7	7,6	1	1	1	1	1	1	1	1	1	0	1	-64,975335	273,023352	250,076663	0
15.01.2021	00:20:52	0	0	2,598725	2,5245	70,2108	-0,58	78,93	0	1007,48	5,6	7,8	7,6	1	1	1	1	1	1	1	1	1	0	1	-64,059197	273,137988	251,522263	0
15.01.2021	00:20:53	0	0	4,406533	2,50875	63,4896	-0,579	78,933	0	1007,8	5,6	7,7	7,6	1	1	1	1	1	1	1	1	1	0	1	-66,384778	273,179197	249,387177	0
15.01.2021	00:20:54	0	0	4,632509	2,62575	65,088	-0,57	78,931	0	1007,84	5,6	7,8	7,6	1	1	1	1	1	1	1	1	1	0	1	-68,428471	273,071387	246,845303	0
15.01.2021	00:20:55	0	0	4,745497	2,70075	57,1428	-0,566	78,989	0	1007,96	5,6	7,7	7,6	1	1	1	1	1	1	1	1	1	0	1	-66,384778	273,016298	248,634662	0
15.01.2021	00:20:56	0	0	3,728605	2,736	56,286	-0,57	78,929	0	1007,84	5,6	7,7	7,6	1	1	1	1	1	1	1	1	1	0	1	-64,83439	273,096866	250,557068	0
15.01.2021	00:20:57	0	0	4,745497	2,838	56,2716	-0,572	78,918	0	1007,86	5,6	7,8	7,6	1	1	1	1	1	1	1	1	1	0	1	-63,84778	273,182042	251,937331	0
15.01.2021	00:20:58	0	0	3,728605	3,16875	54,7884	-0,572	78,904	0	1007,84	5,6	7,8	7,6	1	1	1	1	1	1	1	1	1	0	1	-64,552502	273,03182	250,538584	0
15.01.2021	00:20:59	0	0	4,632509	3,55125	52,8984	-0,568	78,901	0	1007,9	5,6	7,7	7,6	1	1	1	1	1	1	1	1	1	0	1	-68,639887	273,147927	246,987508	0
15.01.2021	00:21:00	0	0	4,067569	4,167	51,0624	-0,572	78,868	0	1007,78	5,6	7,8	7,6	1	1	1	1	1	1	1	1	1	0	1	-65,539112	273,13231	250,016111	0
15.01.2021	00:21:01	0	0	4,406533	4,5585	55,0548	-0,567	78,853	0	1007,82	5,6	7,7	7,6	1	1	1	1	1	1	1	1	1	0	1	-61,310782	272,997971	253,624076	0
15.01.2021	00:21:02	0	0	4,406533	4,5585	55,0548	-0,567	78,853	0	1007,82	5,6	7,7	7,6	1	1	1	1	1	1	1	1	1	0	1	-61,310782	272,997971	253,624076	0
15.01.2021	00:21:03	0	0	3,615617	4,83675	59,8536	-0,567	78,86	0	1007,8	5,6	7,7	7,6	1	1	1	1	1	1	1	1	1	0	1	-63,706836	273,094034	251,671537	0
15.01.2021	00:21:04	0	0	4,858485	5,001	50,6988	-0,567	78,85	0	1007,9	5,6	7,7	7,6	1	1	1	1	1	1	1	1	1	0	1	-59,830867	273,009247	255,15603	0
15.01.2021	00:21:05	0	0	3,389641	4,76775	39,5424	-0,573	78,84	0	1007,88	5,6	7,8	7,6	1	1	1	1	1	1	1	1	1	0	1	-63,072586	273,135149	252,495754	0
15.01.2021	00:21:06	0	0	3,389641	4,3455	37,0296	-0,567	78,851	0	1007,92	5,6	7,8	7,6	1	1	1	1	1	1	1	1	1	0	1	-66,807611	273,166398	248,905172	0
15.01.2021	00:21:07	0	0	4,067569	4,21425	42,228	-0,567	78,877	0	1007,86	5,6	7,7	7,6	1	1	1	1	1	1	1	1	1	0	1	-61,87456	273,092618	253,497271	0
15.01.2021	00:21:08	0	0	2,485736	4,23975	49,968	-0,563	78,885	0	1007,8	5,6	7,7	7,6	1	1	1	1	1	1	1	1	1	0	1	-63,424947	273,177775	252,340431	0
15.01.2021	00:21:09	0	0	4,519521	4,30275	61,3008	-0,563	78,89	0	1007,74	5,6	7,7	7,6	1	1	1	1	1	1	1	1	1	0	1	-64,975335	273,053007	250,213563	0
15.01.2021	00:21:10	0	0	4,632509	4,11525	58,9788	-0,564	78,881	0	1007,78	5,6	7,7	7,6	1	1	1	1	1	1	1	1	1	0	1	-62,649753	273,16782	253,069602	0
15.01.2021	00:21:11	0	0	4,858485	4,20675	43,29	-0,561	78,893	0	1007,82	5,6	7,7	7,6	1	1	1	1	1	1	1	1	1	0	1	-68,005638	273,036056	247,105	0
15.01.2021	00:21:12	0	0	2,937689	4,2225	63,864	-0,564	78,873	0	1007,7	5,6	7,7	7,6	1	1	1	1	1	1	1	1	1	0	1	-64,83439	273,010657	250,159014	0
15.01.2021	00:21:13	0	0	3,615617	4,2165	51,4584	-0,564	78,883	0	1007,8	5,6	7,7	7,6	1	1	1	1	1	1	1	1	1	0	1	-65,609584	273,147927	250,017811	0
15.01.2021	00:21:14	0	0	3,276653	3,9555	71,9964	-0,562	78,889	0	1007,68	5,6	7,7	7,6	1	1	1	1	1	1	1	1	1	0	1	-65,821001	273,201971	250,056268	0
15.01.2021	00:21:15	0	0	2,711713	3,6885	29,1024	-0,562	78,896	0	1007,84	5,6	7,8	7,6	1	1	1	1	1	1	1	1	1	0	1	-66,525722	273,043117	248,617513	0
15.01.2021	00:21:16	0	0	4,858485	3,621	54,1224	-0,558	78,903	0	1007,96	5,6	7,7	7,6	1	1	1	1	1	1	1	1	1	0	1	-64,622974	273,157871	251,050387	0
15.01.2021	00:21:17	0	0	3,728605	3,5595	55,206	-0,563	78,894	0	1007,92	5,6	7,7	7,6	1	1	1	1	1	1	1	1	1	0	1	-68,217054	273,199123	247,647042	0
15.01.2021	00:21:18	0	0	2,711713	3,54525	49,5648	-0,56	78,893	0	1007,78	5,6	7,7	7,6	1	1	1	1	1	1	1	1	1	0	1	-68,146582	273,096866	247,244876	0
15.01.2021	00:21:19	0	0	5,084461	3,6135	72,6732	-0,556	78,899	0	1007,86	5,6	7,7	7,6	1	1	1	1	1	1	1	1	1	0	1	-64,341085	273,02053	250,697887	0
15.01.2021	00:21:20	0	0	5,084461	3,408	45,864	-0,565	78,868	0	1007,78	5,6	7,7	7,6	1	1	1	1	1	1	1	1	1	0	1	-67,794221	273,163555	247,905418	0
15.01.2021	00:21:21	0	0	3,276653	3,231	47,7468	-0,556	78,868	0	1007,92	5,6	7,7	7,6	1	1	1	1	1	1	1	1	1	0	1	-68,498943	273,028997	246,579111	0
15.01.2021	00:21:22	0	0	3,050677	3,1425	51,7536	-0,559	78,867	0	1007,9	5,6	7,8	7,6	1	1	1	1	1	1	1	1	1	0	1	-67,864693	273,040292	247,265501	0
15.01.2021	00:21:23	0	0	4,406533	3,081	50,688	-0,557	78,879	0	1007,92	5,6	7,7	7,6	1	1	1	1	1	1	1	1	1	0	1	-65,46864	273,153608	250,185018	0
15.01.2021	00:21:24	0	0	4,971473	3,3825	64,602	-0,556	78,895	0	1007,86	5,6	7,8	7,6	1	1	1	1	1	1	1	1	1	0	1	-64,622974	273,213369	251,307008	0
15.01.2021	00:21:25	0	0	4,971473	3,33375	73,1232	-0,554	78,884	0	1007,78	5,6	7,7	7,6	1	1	1	1	1	1	1	1	1	0	1	-69,274137	273,091201	246,091153	0
15.01.2021	00:21:26	0	0	5,084461	3,1245	55,1844	-0,554	78,899	0	1007,88	5,6	7,7	7,6	1	1	1	1	1	1	1	1	1	0	1	-69,344609	273,199123	246,519487	0
15.01.2021	00:21:27	0	0	3,163665	2,9685	58,0896	-0,554	78,919	0	1007,72	5,6	7,7	7,6	1	1	1	1	1	1	1	1	1	0	1	-66,878083	273,160713	248,808416	0
15.01.2021	00:21:28	0	0	2,598725	3,036	45,5472	-0,552	78,932	0	1007,96	5,6	7,7	7,6	1	1	1	1	1	1	1	1	1	0	1	-70,331219	273,041704	244,805496	0
15.01.2021	00:21:29	0	0	3,163665	3,21525	50,3028	-0,55	78,936	0	1007,76	5,6	7,7	7,6	1	1	1	1	1	1	1	1	1	0	1	-68,217054	273,069973	247,050187	0
15.01.2021	00:21:30	0	0	4,632509	3,396	48,5028	-0,555	78,943	0	1007,8	5,6	7,7	7,6	1	1	1	1	1	1	1	1	1	0	1	-65,609584	273,206245	250,287447	0
15.01.2021	00:21:31	0	0	3,050677	3,47325	54,4896	-0,552	78,932	0	1007,84	5,6	7,7	7,6	1	1	1	1	1	1	1	1	1	0	1	-67,371388	273,027586	247,700151	0
15.01.2021	00:21:32	0	0	2,824701	3,702	54,1224	-0,548	78,952	0	1007,64	5,6	7,8	7,6	1	1	1	1	1	1	1	1	1	0	1	-66,45525	273,176352	249,303551	0
15.01.2021	00:21:33	0	0	2,598725	3,68925	58,8456	-0,55	78,96	0	1007,96	5,6	7,7	7,6	1	1	1	1	1	1	1	1	1	0	1	-68,992248	273,086954	246,353422	0
15.01.2021	00:21:34	0	0	2,711713	3,363	32,8896	-0,551	78,962	0	1007,8	5,6	7,7	7,6	1	1	1	1	1	1	1	1	1	0	1	-69,978858	273,216219	245,964308	0
15.01.2021	00:21:35	0	0	4,180557	3,13875	47,7468	-0,551	78,959	0	1007,98	5,6	7,8	7,6	1	1	1	1	1	1	1	1	1	0	1	-68,921776	273,150767	246,71875	0
15.01.2021	00:21:36	0	0	3,276653	2,9595	47,0664	-0,555	78,961	0	1007,7	5,6	7,7	7,6	1	1	1	1	1	1	1	1	1	0	1	-67,512333	273,193428	248,325426	0
15.01.2021	00:21:37	0	0	4,632509	2,72775	55,9296	-0,544	78,956	0	1007,94	5,6	7,7	7,6	1	1	1	1	1	1	1	1	1	0	1	-68,005638	273,20482	247,884806	0
15.01.2021	00:21:38	0	0	3,954581	2,67525	59,508	-0,545	78,947	0	1007,8	5,6	7,7	7,6	1	1	1	1	1	1	1	1	1	0	1	-64,83439	273,153608	250,819268	0
15.01.2021	00:21:39	0	0	4,858485	2,84325	43,3908	-0,539	78,939	0	1007,84	5,6	7,8	7,6	1	1	1	1	1	1	1	1	1	0	1	-64,622974	273,207669	251,280647	0
15.01.2021	00:21:40	0	0	4,180557	3,24525	50,67	-0,543	78,94	0	1007,8	5,6	7,8	7,6	1	1	1	1	1	1	1	1	1	0	1	-62,720226	273,098283	252,677776	0
15.01.2021	00:21:41	0	0	4,745497	3,6225	49,5648	-0,543	78,93	0	1007,88	5,6	7,8	7,6	1	1	1	1	1	1	1	1	1	0	1	-64,341085	273,043117	250,802151	0
15.01.2021	00:21:42	0	0	4,293545	3,63	59,4936	-0,54	78,911	0	1007,86	5,6	7,8	7,6	1	1	1	1	1	1	1	1	1	0	1	-67,230444	273,105367	248,200284	0
15.01.2021	00:21:43	0	0	2,711713	3,6945	51,444	-0,538	78,919	0	1007,86	5,6	7,8	7,6	1	1	1	1	1	1	1	1	1	0	1	-69,415081	273,220495	246,547866	0
15.01.2021	00:21:44	0	0	2,937689	3,894	44,0532	-0,547	78,89	0	1007,66	5,6	7,7	7,6	1	1	1	1	1	1	1	1	1	0	1	-67,159972	273,064316	248,081146	0
15.01.2021	00:21:45	0	0	4,632509	4,224	42,9084	-0,543	78,905	0	1007,92	5,6	7,7	7,6	1	1	1	1	1	1	1	1	1	0	1	-66,102889	273,166398	249,609893	0
15.01.2021	00:21:46	0	0	5,423393	4,2525	54,8136	-0,547	78,872	0	1007,74	5,6	7,8	7,7	1	1	1	1	1	1	1	1	1	0	1	-68,780832	273,199123	247,083264	0
15.01.2021	00:21:47	0	0	4,180557	4,137	55,5408	-0,538	78,859	0	1007,94	5,6	7,8	7,6	1	1	1	1	1	1	1	1	1	0	1	-65,46864	273,082707	249,857415	0
15.01.2021	00:21:48	0	0	5,310437	3,64875	47,3796	-0,536	78,855	0	1007,88	5,6	7,7	7,6	1	1	1	1	1	1	1	1	1	0	1	-69,837914	273,10395	245,586268	0
15.01.2021	00:21:49	0	0	2,485736	3,25275	70,8624	-0,536	78,845	0	1007,94	5,6	7,7	7,6	1	1	1	1	1	1	1	1	1	0	1	-61,733615	273,043117	253,409621	0
15.01.2021	00:21:50	0	0	4,971473	2,8725	56,6568	-0,536	78,837	0	1007,74	5,6	7,7	7,6	1	1	1	1	1	1	1	1	1	0	1	-66,596195	273,140827	248,998387	0
15.01.2021	00:21:51	0	0	2,711713	2,7555	59,8644	-0,539	78,826	0	1007,8	5,6	7,8	7,6	1	1	1	1	1	1	1	1	1	0	1	-67,019027	273,223347	248,95711	0
15.01.2021	00:21:52	0	0	4,632509	2,835	58,1184	-0,539	78,827	0	1007,84	5,6	7,7	7,6	1	1	1	1	1	1	1	1	1	0	1	-62,579281	273,047355	252,583521	0
15.01.2021	00:21:53	0	0	4,858485	2,86125	70,2144	-0,542	78,817	0	1007,82	5,6	7,7	7,6	1	1	1	1	1	1	1	1	1	0	1	-67,019027	273,149347	248,614933	0
15.01.2021	00:21:54	0	0	2,485736	2,8035	63,5184	-0,532	78,818	0	1007,84	5,6	7,7	7,6	1	1	1	1	1	1	1	1	1	0	1	-70,049331	273,043117	245,093905	0
15.01.2021	00:21:55	0	0	3,163665	2,64075	68,0148	-0,535	78,822	0	1007,84	5,6	7,8	7,6	1	1	1	1	1	1	1	1	1	0	1	-69,203665	273,074217	246,083176	0
15.01.2021	00:21:56	0	0	4,293519	2,406	62,0532	-0,533	78,804	0	1007,8	5,6	7,7	7,7	1	1	1	1	1	1	1	1	1	0	1	-68,357999	273,209094	247,552211	0
15.01.2021	00:21:57	0	0	3,050677	2,25975	75,996	-0,529	78,809	0	1007,88	5,6	7,7	7,6	1	1	1	1	1	1	1	1	1	0	1	-67,512333	273,206245	248,384699	0
15.01.2021	00:21:58	0	0	3,502629	2,15475	61,7832	-0,534	78,805	0	1007,94	5,6	7,8	7,6	1	1	1	1	1	1	1	1	1	0	1	-68,921776	273,217644	247,027983	0
15.01.2021	00:21:59	0	0	4,519521	2,10975	65,4768	-0,536	78,778	0	1007,8	5,6	7,9	7,6	1	1	1	1	1	1	1	1	1	0	1	-74,559549	273,189157	241,258462	0
15.01.2021	00:22:00	0	0	2,711713	2,30475	57,0528	-0,535	78,779	0	1007,74	5,6	7,7	7,6	1	1	1	1	1	1	1	1	1	0	1	-67,794221	273,217644	248,155538	0
15.01.2021	00:22:01	0	0	2,711713	2,30475	57,0528	-0,535	78,779	0	1007,74	5,6	7,7	7,6	1	1	1	1	1	1	1	1	1	0	1	-67,794221	273,217644	248,155538	0
15.01.2021	00:22:02	0	0	3,728605	2,3595	61,3944	-0,53	78,762	0	1007,84	5,6	7,8	7,6	1	1	1	1	1	1	1	1	1	0	1	-67,371388	273,143666	248,236317	0
15.01.2021	00:22:03	0	0	4,519521	2,502	57,4236	-0,532	78,741	0	1007,8	5,6	7,8	7,6	1	1	1	1	1	1	1	1	1	0	1	-63,918252	273,05442	251,277171	0
15.01.2021	00:22:04	0	0	2,598725	2,736	45,8352	-0,53	78,732	0	1007,88	5,6	7,7	7,6	1	1	1	1	1	1	1	1	1	0	1	-68,851304	273,094034	246,527069	0
15.01.2021	00:22:05	0	0	4,971473	3,093	62,1144	-0,531	78,723	0	1007,84	5,6	7,7	7,6	1	1	1	1	1	1	1	1	1	0	1	-63,354475	273,085538	251,984656	0
15.01.2021	00:22:06	0	0	4,745497	3,26325	59,4864	-0,526	78,7	0	1008,1	5,6	7,7	7,6	1	1	1	1	1	1	1	1	1	0	1	-62,508809	273,034644	252,595311	0
15.01.2021	00:22:07	0	0	4,632509	3,28575	58,1364	-0,527	78,696	0	1007,7	5,6	7,7	7,6	1	1	1	1	1	1	1	1	1	0	1	-65,821001	273,115289	249,655569	0
15.01.2021	00:22:08	0	0	2,711713	3,19575	52,9128	-0,526	78,657	0	1007,68	5,6	7,8	7,6	1	1	1	1	1	1	1	1	1	0	1	-64,693446	273,21907	251,262907	0
15.01.2021	00:22:09	0	0	4,406533	3,08625	46,9908	-0,526	78,658	0	1007,9	5,6	7,7	7,6	1	1	1	1	1	1	1	1	1	0	1	-63,354475	273,085538	251,984656	0
15.01.2021	00:22:10	0	0	3,502629	3,0315	53,7408	-0,525	78,631	0	1007,84	5,6	7,7	7,6	1	1	1	1	1	1	1	1	1	0	1	-66,878083	273,206245	249,018948	0
15.01.2021	00:22:11	0	0	2,485736	2,95725	49,9572	-0,525	78,613	0	1007,92	5,6	7,8	7,6	1	1	1	1	1	1	1	1	1	0	1	-61,099366	273,072802	254,180941	0
15.01.2021	00:22:12	0	0	4,858485	2,78475	42,93	-0,528	78,581	0	1007,98	5,6	7,7	7,6	1	1	1	1	1	1	1	1	1	0	1	-64,48203	273,10395	250,942152	0
15.01.2021	00:22:13	0	0	3,841593	2,85075	46,584	-0,522	78,586	0	1007,92	5,6	7,7	7,6	1	1	1	1	1	1	1	1	1	0	1	-66,45525	273,216219	249,487916	0
15.01.2021	00:22:14	0	0	4,971473	2,96475	47,394	-0,521	78,568	0	1007,68	5,6	7,7	7,6	1	1	1	1	1	1	1	1	1	0	1	-64,059197	273,139407	251,528823	0
15.01.2021	00:22:15	0	0	4,745497	3,12825	49,5828	-0,53	78,554	0	1007,86	5,6	7,7	7,6	1	1	1	1	1	1	1	1	1	0	1	-62,156448	273,03888	252,967227	0
15.01.2021	00:22:16	0	0	4,745497	3,429	47,3616	-0,523	78,552	0	1007,7	5,6	7,8	7,6	1	1	1	1	1	1	1	1	1	0	1	-62,720226	273,120961	252,782553	0
15.01.2021	00:22:17	0	0	3,389641	3,42375	54,8208	-0,522	78,533	0	1007,66	5,6	7,7	7,6	1	1	1	1	1	1	1	1	1	0	1	-67,230444	273,040292	247,899751	0
15.01.2021	00:22:18	0	0	2,824701	3,4455	59,112	-0,523	78,524	0	1007,78	5,6	7,8	7,6	1	1	1	1	1	1	1	1	1	0	1	-64,693446	273,183465	251,098244	0
15.01.2021	00:22:19	0	0	2,937689	3,561	58,8708	-0,523	78,524	0	1007,92	5,6	7,7	7,6	1	1	1	1	1	1	1	1	1	0	1	-67,653277	273,20482	248,237166	0
15.01.2021	00:22:20	0	0	3,389641	3,8895	58,4712	-0,52	78,507	0	1007,92	5,6	7,8	7,6	1	1	1	1	1	1	1	1	1	0	1	-67,300916	273,047355	247,861886	0
15.01.2021	00:22:21	0	0	4,180557	4,041	57,4236	-0,52	78,488	0	1007,56	5,6	7,8	7,6	1	1	1	1	1	1	1	1	1	0	1	-71,388302	273,091201	243,976988	0
15.01.2021	00:22:22	0	0	3,954581	3,9885	44,0604	-0,526	78,512	0	1007,8	5,6	7,8	7,6	1	1	1	1	1	1	1	1	1	0	1	-68,921776	273,213369	247,008206	0
15.01.2021	00:22:23	0	0	4,632509	3,92625	40,6152	-0,523	78,489	0	1007,84	5,6	7,8	7,6	1	1	1	1	1	1	1	1	1	0	1	-64,763918	273,157871	250,909443	0
15.01.2021	00:22:24	0	0	4,971473	3,9375	46,6056	-0,518	78,501	0	1007,58	5,6	7,8	7,6	1	1	1	1	1	1	1	1	1	0	1	-68,498943	273,206245	247,398089	0
15.01.2021	00:22:25	0	0	3,502629	3,66075	43,308	-0,53	78,491	0	1007,78	5,6	7,7	7,6	1	1	1	1	1	1	1	1	1	0	1	-64,904863	273,170664	250,827639	0
15.01.2021	00:22:26	0	0	2,824701	3,23175	40,6368	-0,521	78,492	0	1007,98	5,6	7,7	7,6	1	1	1	1	1	1	1	1	1	0	1	-66,525722	273,03888	248,597953	0
15.01.2021	00:22:27	0	0	2,824701	3,32775	47,466	-0,523	78,497	0	1007,64	5,6	7,7	7,6	1	1	1	1	1	1	1	1	1	0	1	-67,371388	273,044529	247,778369	0
15.01.2021	00:22:28	0	0	2,711713	3,6315	47,3796	-0,524	78,487	0	1007,74	5,6	7,7	7,6	1	1	1	1	1	1	1	1	1	0	1	-66,173362	273,071387	249,100413	0
15.01.2021	00:22:29	0	0	4,519521	3,9375	46,998	-0,52	78,473	0	1007,84	5,6	7,7	7,6	1	1	1	1	1	1	1	1	1	0	1	-73,009161	273,026174	242,055863	0
15.01.2021	00:22:30	0	0	4,293545	4,1445	57,0204	-0,519	78,483	0	1007,9	5,6	7,7	7,6	1	1	1	1	1	1	1	1	1	0	1	-66,525722	273,064316	248,715395	0
15.01.2021	00:22:31	0	0	5,084461	4,011	50,3244	-0,518	78,474	0	1008,02	5,6	7,8	7,6	1	1	1	1	1	1	1	1	1	0	1	-67,723749	273,077046	247,576161	0
15.01.2021	00:22:32	0	0	2,372748	3,846	41,0184	-0,521	78,494	0	1007,7	5,6	7,7	7,6	1	1	1	1	1	1	1	1	1	0	1	-61,099366	273,05442	254,096057	0
15.01.2021	00:22:33	0	0	4,632509	3,8265	38,4264	-0,513	78,483	0	1008,02	5,6	7,7	7,6	1	1	1	1	1	1	1	1	1	0	1	-65,46864	273,079877	249,844341	0
15.01.2021	00:22:34	0	0	3,050658	3,8115	45,8676	-0,523	78,491	0	1007,68	5,6	7,7	7,7	1	1	1	1	1	1	1	1	1	0	1	-74,348132	273,193428	241,489626	0
15.01.2021	00:22:35	0	0	3,050677	3,693	54,468	-0,518	78,463	0	1008,14	5,6	7,8	7,6	1	1	1	1	1	1	1	1	1	0	1	-67,864693	273,17493	247,887532	0
15.01.2021	00:22:36	0	0	4,180582	3,33	45,8424	-0,523	78,46	0	1007,72	5,6	7,7	7,5	1	1	1	1	1	1	1	1	1	0	1	-65,891473	273,193428	249,946285	0
15.01.2021	00:22:37	0	0	3,615617	3,21525	44,7732	-0,522	78,474	0	1007,86	5,6	7,7	7,6	1	1	1	1	1	1	1	1	1	0	1	-65,891473	273,069973	249,375769	0
15.01.2021	00:22:38	0	0	3,389641	3,24225	50,0544	-0,517	78,469	0	1007,88	5,6	7,8	7,6	1	1	1	1	1	1	1	1	1	0	1	-70,119803	273,197699	245,737708	0
15.01.2021	00:22:39	0	0	4,745497	3,27225	60,552	-0,517	78,459	0	1007,78	5,6	7,7	7,6	1	1	1	1	1	1	1	1	1	0	1	-67,300916	273,140827	248,293665	0
15.01.2021	00:22:40	0	0	3,389641	3,3075	64,638	-0,515	78,459	0	1008,1	5,6	7,7	7,6	1	1	1	1	1	1	1	1	1	0	1	-66,948555	273,201971	248,928713	0
15.01.2021	00:22:41	0	0	2,937689	3,291	53,3484	-0,52	78,441	0	1007,66	5,6	7,8	7,6	1	1	1	1	1	1	1	1	1	0	1	-64,904863	273,051594	250,27751	0
15.01.2021	00:22:42	0	0	2,824701	3,41925	57,1788	-0,514	78,445	0	1007,92	5,6	7,7	7,6	1	1	1	1	1	1	1	1	1	0	1	-69,837914	273,192004	245,993261	0
15.01.2021	00:22:43	0	0	2,25976	3,63075	67,302	-0,515	78,435	0	1007,98	5,6	7,7	7,6	1	1	1	1	1	1	1	1	1	0	1	-67,44186	273,135149	248,126479	0
15.01.2021	00:22:44	0	0	4,745497	3,54525	69,4836	-0,518	78,427	0	1007,76	5,6	7,8	7,6	1	1	1	1	1	1	1	1	1	0	1	-66,102889	273,01912	248,929572	0
15.01.2021	00:22:45	0	0	4,180557	3,29775	55,9296	-0,513	78,415	0	1007,82	5,6	7,7	7,6	1	1	1	1	1	1	1	1	1	0	1	-66,384778	273,164977	249,321433	0
15.01.2021	00:22:46	0	0	5,197418	3,189	54,486	-0,518	78,391	0	1007,62	5,6	7,8	7,7	1	1	1	1	1	1	1	1	1	0	1	-65,045807	273,18062	250,732726	0
15.01.2021	00:22:47	0	0	4,971473	3,08925	42,9012	-0,511	78,397	0	1007,82	5,6	7,7	7,6	1	1	1	1	1	1	1	1	1	0	1	-66,173362	273,189157	249,644649	0
15.01.2021	00:22:48	0	0	4,745497	2,9865	34,3512	-0,518	78,406	0	1007,68	5,6	7,7	7,6	1	1	1	1	1	1	1	1	1	0	1	-65,891473	273,176352	249,867329	0
15.01.2021	00:22:49	0	0	5,084461	2,973	55,9404	-0,517	78,403	0	1007,96	5,6	7,7	7,6	1	1	1	1	1	1	1	1	1	0	1	-66,737139	273,199123	249,126957	0
15.01.2021	00:22:50	0	0	2,598725	2,9355	54,1044	-0,521	78,392	0	1007,96	5,6	7,7	7,6	1	1	1	1	1	1	1	1	1	0	1	-70,68358	273,16782	245,035775	0
15.01.2021	00:22:51	0	0	4,745497	2,71125	51,4476	-0,517	78,373	0	1007,92	5,6	7,7	7,6	1	1	1	1	1	1	1	1	1	0	1	-68,498943	273,190581	247,32565	0
15.01.2021	00:22:52	0	0	3,38962	2,67075	45,8712	-0,517	78,369	0	1007,76	5,6	7,7	7,7	1	1	1	1	1	1	1	1	1	0	1	-69,06272	273,06573	246,184928	0
15.01.2021	00:22:53	0	0	2,485736	2,70675	41,5656	-0,515	78,372	0	1007,96	5,6	7,8	7,6	1	1	1	1	1	1	1	1	1	0	1	-64,83439	273,026174	250,230634	0
15.01.2021	00:22:54	0	0	2,711713	2,74125	58,5	-0,511	78,375	0	1007,86	5,6	7,7	7,6	1	1	1	1	1	1	1	1	1	0	1	-65,891473	273,119543	249,604752	0
15.01.2021	00:22:55	0	0	3,389641	2,51775	32,4972	-0,52	78,355	0	1007,88	5,6	7,7	7,6	1	1	1	1	1	1	1	1	1	0	1	-73,995772	273,199123	241,868324	0
15.01.2021	00:22:56	0	0	4,293545	2,4735	55,5552	-0,518	78,343	0	1007,8	5,6	7,7	7,6	1	1	1	1	1	1	1	1	1	0	1	-68,357999	273,160713	247,3285	0
15.01.2021	00:22:57	0	0	3,389641	2,5185	49,2012	-0,514	78,349	0	1007,74	5,6	7,8	7,6	1	1	1	1	1	1	1	1	1	0	1	-67,0895	273,045942	248,066779	0
15.01.2021	00:22:58	0	0	4,971473	2,52	52,8912	-0,516	78,319	0	1007,68	5,6	7,8	7,6	1	1	1	1	1	1	1	1	1	0	1	-70,049331	273,135149	245,519009	0
15.01.2021	00:22:59	0	0	3,050658	2,6805	50,3172	-0,514	78,331	0	1007,88	5,6	7,8	7,7	1	1	1	1	1	1	1	1	1	0	1	-67,512333	273,034644	247,591787	0
15.01.2021	00:23:00	0	0	3,954557	2,72475	47,754	-0,515	78,303	0	1007,76	5,6	7,7	7,7	1	1	1	1	1	1	1	1	1	0	1	-67,935166	273,02053	247,103807	0
15.01.2021	00:23:01	0	0	3,502608	2,7105	44,3916	-0,518	78,303	0	1007,86	5,6	7,8	7,7	1	1	1	1	1	1	1	1	1	0	1	-68,992248	273,044529	246,157509	0
15.01.2021	00:23:02	0	0	3,502608	2,7105	44,3916	-0,518	78,303	0	1007,86	5,6	7,8	7,7	1	1	1	1	1	1	1	1	1	0	1	-68,992248	273,044529	246,157509	0
15.01.2021	00:23:03	0	0	4,180557	2,75625	47,3724	-0,515	78,282	0	1007,76	5,6	7,7	7,6	1	1	1	1	1	1	1	1	1	0	1	-64,763918	273,13231	250,791305	0
15.01.2021	00:23:04	0	0	4,293545	2,9535	39,8736	-0,517	78,283	0	1007,88	5,6	7,7	7,6	1	1	1	1	1	1	1	1	1	0	1	-70,260747	273,199123	245,603349	0
15.01.2021	00:23:05	0	0	4,632509	3,0105	39,1896	-0,522	78,277	0	1007,9	5,6	7,7	7,6	1	1	1	1	1	1	1	1	1	0	1	-68,005638	273,125216	247,516803	0
15.01.2021	00:23:06	0	0	3,389641	3,05625	41,8428	-0,517	78,263	0	1008	5,6	7,7	7,6	1	1	1	1	1	1	1	1	1	0	1	-68,851304	273,190581	246,973289	0
15.01.2021	00:23:07	0	0	4,519521	3,168	41,0004	-0,514	78,263	0	1007,98	5,6	7,7	7,6	1	1	1	1	1	1	1	1	1	0	1	-66,807611	273,012067	248,192301	0
15.01.2021	00:23:08	0	0	3,954581	3,24	42,5988	-0,518	78,269	0	1007,84	5,6	7,7	7,6	1	1	1	1	1	1	1	1	1	0	1	-66,807611	273,03182	248,283475	0
15.01.2021	00:23:09	0	0	5,084461	3,1275	44,4024	-0,518	78,258	0	1008	5,6	7,8	7,6	1	1	1	1	1	1	1	1	1	0	1	-65,750529	273,106784	249,686747	0
15.01.2021	00:23:10	0	0	5,197449	3,0015	45,5328	-0,521	78,259	0	1007,88	5,6	7,7	7,6	1	1	1	1	1	1	1	1	1	0	1	-65,891473	273,010657	249,101932	0
15.01.2021	00:23:11	0	0	2,937689	2,9535	57,0384	-0,512	78,262	0	1007,92	5,6	7,7	7,6	1	1	1	1	1	1	1	1	1	0	1	-66,314306	273,021941	248,731179	0
15.01.2021	00:23:12	0	0	2,824701	2,868	54,4896	-0,515	78,267	0	1007,88	5,6	7,7	7,6	1	1	1	1	1	1	1	1	1	0	1	-70,401691	273,012067	244,598221	0
15.01.2021	00:23:13	0	0	4,632481	2,7825	63,4896	-0,516	78,271	0	1007,9	5,6	7,7	7,7	1	1	1	1	1	1	1	1	1	0	1	-71,740662	273,055833	243,461287	0
15.01.2021	00:23:14	0	0	4,180557	2,8215	61,308	-0,515	78,275	0	1007,74	5,6	7,7	7,6	1	1	1	1	1	1	1	1	1	0	1	-67,44186	273,192004	248,389315	0
15.01.2021	00:23:15	0	0	4,293519	2,87775	52,8732	-0,514	78,28	0	1007,84	5,6	7,8	7,7	1	1	1	1	1	1	1	1	1	0	1	-68,146582	273,036056	246,964056	0
15.01.2021	00:23:16	0	0	4,293545	2,982	49,5828	-0,513	78,28	0	1007,9	5,6	7,7	7,6	1	1	1	1	1	1	1	1	1	0	1	-67,0895	273,061488	248,13856	0
15.01.2021	00:23:17	0	0	4,406506	3,189	48,8232	-0,516	78,28	0	1007,76	5,6	7,7	7,7	1	1	1	1	1	1	1	1	1	0	1	-74,348132	273,186311	241,456717	0
15.01.2021	00:23:18	0	0	2,25976	3,3675	65,1564	-0,514	78,283	0	1008	5,6	7,8	7,6	1	1	1	1	1	1	1	1	1	0	1	-66,525722	273,169242	249,200206	0
15.01.2021	00:23:19	0	0	4,971473	3,38325	71,6148	-0,516	78,269	0	1007,76	5,6	7,8	7,6	1	1	1	1	1	1	1	1	1	0	1	-67,582805	273,150767	248,057721	0
15.01.2021	00:23:20	0	0	4,632509	3,26025	57,0492	-0,516	78,303	0	1007,82	5,6	7,7	7,6	1	1	1	1	1	1	1	1	1	0	1	-66,525722	273,130891	249,022943	0
15.01.2021	00:23:21	0	0	4,745468	3,19275	63,1764	-0,517	78,302	0	1007,86	5,6	7,8	7,7	1	1	1	1	1	1	1	1	1	0	1	-69,133192	273,01912	245,899269	0
15.01.2021	00:23:22	0	0	2,824701	3,01125	79,7832	-0,515	78,308	0	1007,78	5,6	7,7	7,6	1	1	1	1	1	1	1	1	1	0	1	-67,0895	273,101116	248,321591	0
15.01.2021	00:23:23	0	0	3,841593	2,616	80,514	-0,517	78,305	0	1007,9	5,6	7,7	7,6	1	1	1	1	1	1	1	1	1	0	1	-73,361522	273,186311	242,443327	0
15.01.2021	00:23:24	0	0	3,163646	2,223	77,9688	-0,514	78,311	0	1007,76	5,6	7,7	7,7	1	1	1	1	1	1	1	1	1	0	1	-70,613108	273,02053	244,425865	0
15.01.2021	00:23:25	0	0	2,372748	2,07825	47,3796	-0,518	78,317	0	1007,92	5,6	7,7	7,6	1	1	1	1	1	1	1	1	1	0	1	-67,794221	273,068558	247,466488	0
15.01.2021	00:23:26	0	0	4,293519	2,23875	47,0088	-0,514	78,32	0	1007,98	5,6	7,7	7,7	1	1	1	1	1	1	1	1	1	0	1	-69,485553	273,173508	246,260097	0
15.01.2021	00:23:27	0	0	2,937689	2,322	42,6168	-0,523	78,3	0	1007,84	5,6	7,7	7,6	1	1	1	1	1	1	1	1	1	0	1	-66,243834	273,096866	249,147624	0
15.01.2021	00:23:28	0	0	4,632509	2,2035	54,4932	-0,516	78,311	0	1007,92	5,6	7,8	7,6	1	1	1	1	1	1	1	1	1	0	1	-61,169838	273,006427	253,804046	0
15.01.2021	00:23:29	0	0	4,519521	2,10825	54,4896	-0,521	78,299	0	1007,8	5,6	7,7	7,6	1	1	1	1	1	1	1	1	1	0	1	-65,891473	273,034644	249,212647	0
15.01.2021	00:23:30	0	0	4,971473	1,9425	45,936	-0,519	78,294	0	1007,92	5,6	7,7	7,6	1	1	1	1	1	1	1	1	1	0	1	-66,737139	273,177775	249,028239	0
15.01.2021	00:23:31	0	0	4,745468	1,935	40,266	-0,516	78,282	0	1007,84	5,6	7,7	7,7	1	1	1	1	1	1	1	1	1	0	1	-70,331219	273,155029	245,329006	0
15.01.2021	00:23:32	0	0	4,519521	2,076	49,5864	-0,518	78,284	0	1007,86	5,6	7,7	7,6	1	1	1	1	1	1	1	1	1	0	1	-68,569415	273,130891	246,97925	0
15.01.2021	00:23:33	0	0	3,615617	2,3235	41,4684	-0,518	78,28	0	1007,84	5,6	7,7	7,6	1	1	1	1	1	1	1	1	1	0	1	-71,317829	273,177775	244,447548	0
15.01.2021	00:23:34	0	0	2,824701	2,556	51,7428	-0,518	78,282	0	1007,8	5,6	7,8	7,6	1	1	1	1	1	1	1	1	1	0	1	-66,948555	273,084123	248,384037	0
15.01.2021	00:23:35	0	0	2,824684	2,6205	50,3388	-0,516	78,295	0	1007,84	5,6	7,8	7,7	1	1	1	1	1	1	1	1	1	0	1	-67,864693	273,010657	247,128711	0
15.01.2021	00:23:36	0	0	4,632509	2,703	57,0384	-0,52	78,273	0	1007,9	5,6	7,7	7,6	1	1	1	1	1	1	1	1	1	0	1	-69,274137	273,118125	246,215536	0
15.01.2021	00:23:37	0	0	2,598709	2,86425	55,206	-0,515	78,26	0	1007,88	5,6	7,7	7,7	1	1	1	1	1	1	1	1	1	0	1	-68,005638	273,005018	246,96174	0
15.01.2021	00:23:38	0	0	3,050658	3,19875	52,5024	-0,518	78,275	0	1007,88	5,6	7,7	7,7	1	1	1	1	1	1	1	1	1	0	1	-65,257223	273,061488	249,970836	0
15.01.2021	00:23:39	0	0	3,163665	3,72075	51,0696	-0,517	78,259	0	1007,86	5,6	7,7	7,6	1	1	1	1	1	1	1	1	1	0	1	-66,45525	273,173508	249,2904	0
15.01.2021	00:23:40	0	0	3,615595	4,28325	49,5756	-0,515	78,264	0	1008	5,6	7,7	7,7	1	1	1	1	1	1	1	1	1	0	1	-63,918252	273,101116	251,492838	0
15.01.2021	00:23:41	0	0	3,502608	4,56	55,1808	-0,518	78,239	0	1007,84	5,6	7,7	7,7	1	1	1	1	1	1	1	1	1	0	1	-66,596195	273,010657	248,39721	0
15.01.2021	00:23:42	0	0	2,937671	4,73175	54,8028	-0,519	78,238	0	1007,94	5,5	7,7	7,7	1	1	1	1	1	1	1	1	1	0	1	-73,572939	273,136568	242,001961	0
15.01.2021	00:23:43	0	0	2,824684	4,94925	54,0936	-0,518	78,227	0	1007,86	5,6	7,7	7,7	1	1	1	1	1	1	1	1	1	0	1	-70,472163	273,027586	244,599375	0
15.01.2021	00:23:44	0	0	4,745468	5,27775	56,6568	-0,516	78,234	0	1007,94	5,6	7,8	7,7	1	1	1	1	1	1	1	1	1	0	1	-67,019027	273,002198	247,935341	0
15.01.2021	00:23:45	0	0	4,971443	5,505	54,81	-0,517	78,236	0	1007,88	5,6	7,7	7,7	1	1	1	1	1	1	1	1	1	0	1	-65,680056	273,084123	249,652536	0
15.01.2021	00:23:46	0	0	4,067544	5,41275	52,1316	-0,522	78,234	0	1007,88	5,6	7,7	7,7	1	1	1	1	1	1	1	1	1	0	1	-65,680056	273,179197	250,091899	0
15.01.2021	00:23:47	0	0	4,745497	5,1705	55,9332	-0,521	78,226	0	1007,92	5,6	7,7	7,6	1	1	1	1	1	1	1	1	1	0	1	-64,763918	273,060074	250,457613	0
15.01.2021	00:23:48	0	0	4,745497	5,16675	44,3736	-0,518	78,238	0	1007,78	5,6	7,7	7,6	1	1	1	1	1	1	1	1	1	0	1	-65,46864	272,990926	249,433713	0
15.01.2021	00:23:49	0	0	2,711696	4,91025	51,7464	-0,521	78,243	0	1007,74	5,6	7,8	7,7	1	1	1	1	1	1	1	1	1	0	1	-70,68358	273,120961	244,819198	0
15.01.2021	00:23:50	0	0	2,711696	4,626	65,1096	-0,517	78,246	0	1008	5,6	7,8	7,7	1	1	1	1	1	1	1	1	1	0	1	-65,609584	273,177775	250,155794	0
15.01.2021	00:23:51	0	0	2,598725	4,72425	63,4896	-0,518	78,234	0	1007,78	5,6	7,8	7,6	1	1	1	1	1	1	1	1	1	0	1	-68,357999	273,108201	247,085824	0
15.01.2021	00:23:52	0	0	2,598709	4,734	62,7912	-0,513	78,252	0	1008,06	5,6	7,7	7,7	1	1	1	1	1	1	1	1	1	0	1	-65,116279	273,16782	250,603076	0
15.01.2021	00:23:53	0	0	4,406533	4,5975	57,4308	-0,518	78,243	0	1007,66	5,6	7,7	7,6	1	1	1	1	1	1	1	1	1	0	1	-65,961945	273,085538	249,377186	0
15.01.2021	00:23:54	0	0	4,971443	4,497	55,5444	-0,519	78,234	0	1007,9	5,6	7,7	7,7	1	1	1	1	1	1	1	1	1	0	1	-64,270613	273,16782	251,448742	0
15.01.2021	00:23:55	0	0	2,711713	4,479	54,5436	-0,521	78,251	0	1007,92	5,6	7,8	7,6	1	1	1	1	1	1	1	1	1	0	1	-70,190275	273,016298	244,829165	0
15.01.2021	00:23:56	0	0	2,59874	4,4565	58,4856	-0,52	78,246	0	1008,08	5,6	7,7	7,5	1	1	1	1	1	1	1	1	1	0	1	-65,116279	273,120961	250,386499	0
15.01.2021	00:23:57	0	0	4,293545	4,488	53,3592	-0,522	78,265	0	1007,92	5,6	7,7	7,6	1	1	1	1	1	1	1	1	1	0	1	-64,270613	272,997971	250,664245	0
15.01.2021	00:23:58	0	0	2,937689	4,2735	58,4712	-0,52	78,24	0	1007,92	5,6	7,8	7,6	1	1	1	1	1	1	1	1	1	0	1	-69,133192	273,023352	245,918805	0
15.01.2021	00:23:59	0	0	2,711696	4,3725	63,8532	-0,522	78,25	0	1007,9	5,6	7,8	7,7	1	1	1	1	1	1	1	1	1	0	1	-67,159972	273,170664	248,57253	0
15.01.2021	00:24:00	0	0	2,711696	4,245	54,81	-0,523	78,243	0	1007,76	5,6	7,7	7,7	1	1	1	1	1	1	1	1	1	0	1	-66,384778	273,173508	249,360872	0
15.01.2021	00:24:01	0	0	2,937671	4,29525	51,444	-0,515	78,256	0	1008,1	5,6	7,9	7,7	1	1	1	1	1	1	1	1	1	0	1	-68,357999	273,102533	247,059637	0
15.01.2021	00:24:02	0	0	2,937671	4,29525	51,444	-0,515	78,256	0	1008,1	5,6	7,9	7,7	1	1	1	1	1	1	1	1	1	0	1	-68,357999	273,102533	247,059637	0
15.01.2021	00:24:03	0	0	5,197449	4,1955	54,5976	-0,523	78,257	0	1007,72	5,6	7,7	7,6	1	1	1	1	1	1	1	1	1	0	1	-67,44186	272,989517	247,453993	0
15.01.2021	00:24:04	0	0	3,050677	4,08675	69,8688	-0,521	78,254	0	1007,96	5,6	7,7	7,6	1	1	1	1	1	1	1	1	1	0	1	-66,948555	273,118125	248,541118	0
15.01.2021	00:24:05	0	0	3,163646	4,0425	62,8236	-0,516	78,285	0	1007,88	5,5	7,7	7,7	1	1	1	1	1	1	1	1	1	0	1	-69,837914	273,17493	245,914311	0
15.01.2021	00:24:06	0	0	4,971443	3,8835	54,2016	-0,519	78,312	0	1007,94	5,5	7,8	7,7	1	1	1	1	1	1	1	1	1	0	1	-63,424947	273,125216	252,097493	0
15.01.2021	00:24:07	0	0	3,163665	3,93675	50,6808	-0,518	78,33	0	1008	5,6	7,7	7,6	1	1	1	1	1	1	1	1	1	0	1	-68,005638	273,179197	247,766317	0
15.01.2021	00:24:08	0	0	4,632509	3,9525	57,4236	-0,522	78,341	0	1007,96	5,6	7,7	7,6	1	1	1	1	1	1	1	1	1	0	1	-69,344609	273,0997	246,059937	0
15.01.2021	00:24:09	0	0	2,598709	3,80775	52,5132	-0,521	78,359	0	1008,06	5,6	7,8	7,7	1	1	1	1	1	1	1	1	1	0	1	-68,851304	273,182042	246,933807	0
15.01.2021	00:24:10	0	0	4,858456	3,88275	49,212	-0,527	78,375	0	1008,08	5,6	7,8	7,7	1	1	1	1	1	1	1	1	1	0	1	-68,287526	273,057247	246,920949	0
15.01.2021	00:24:11	0	0	4,971473	3,8385	58,8816	-0,519	78,4	0	1007,78	5,6	7,8	7,6	1	1	1	1	1	1	1	1	1	0	1	-61,733615	273,184888	254,064654	0
15.01.2021	00:24:12	0	0	2,824684	3,861	73,7748	-0,519	78,415	0	1007,86	5,6	7,7	7,7	1	1	1	1	1	1	1	1	1	0	1	-67,653277	273,123798	247,862609	0
15.01.2021	00:24:13	0	0	4,293545	3,804	64,2528	-0,519	78,425	0	1008,04	5,6	7,7	7,6	1	1	1	1	1	1	1	1	1	0	1	-66,737139	273,01912	248,295322	0
15.01.2021	00:24:14	0	0	3,38962	3,792	69,1632	-0,519	78,442	0	1008,02	5,6	7,8	7,7	1	1	1	1	1	1	1	1	1	0	1	-68,005638	273,053007	247,18326	0
15.01.2021	00:24:15	0	0	3,163665	3,798	60,5592	-0,517	78,461	0	1008,1	5,6	7,7	7,6	1	1	1	1	1	1	1	1	1	0	1	-70,401691	273,199123	245,462405	0
15.01.2021	00:24:16	0	0	4,180532	3,82275	43,308	-0,52	78,463	0	1007,86	5,6	7,7	7,7	1	1	1	1	1	1	1	1	1	0	1	-67,44186	273,061488	247,786199	0
15.01.2021	00:24:17	0	0	2,711713	3,675	54,1188	-0,522	78,458	0	1007,82	5,6	7,7	7,6	1	1	1	1	1	1	1	1	1	0	1	-68,217054	273,145086	247,397214	0
15.01.2021	00:24:18	0	0	3,163646	3,42825	62,4168	-0,517	78,44	0	1007,84	5,6	7,7	7,7	1	1	1	1	1	1	1	1	1	0	1	-64,693446	273,203396	251,190409	0
15.01.2021	00:24:19	0	0	2,824684	3,18225	50,3136	-0,51	78,442	0	1007,8	5,6	7,7	7,7	1	1	1	1	1	1	1	1	1	0	1	-69,203665	273,128054	246,331887	0
15.01.2021	00:24:20	0	0	3,615595	3,19125	53,7408	-0,512	78,455	0	1008,02	5,6	7,7	7,7	1	1	1	1	1	1	1	1	1	0	1	-69,626498	273,027586	245,445041	0
15.01.2021	00:24:21	0	0	4,745497	3,2415	55,5624	-0,513	78,431	0	1008,14	5,6	7,8	7,6	1	1	1	1	1	1	1	1	1	0	1	-66,596195	273,09545	248,788721	0
15.01.2021	00:24:22	0	0	5,197418	3,20325	49,5936	-0,511	78,453	0	1008,06	5,6	7,7	7,7	1	1	1	1	1	1	1	1	1	0	1	-68,357999	273,213369	247,571983	0
15.01.2021	00:24:23	0	0	4,745497	3,22725	53,3556	-0,513	78,448	0	1007,96	5,6	7,8	7,6	1	1	1	1	1	1	1	1	1	0	1	-65,680056	273,155029	249,980169	0
15.01.2021	00:24:24	0	0	5,310437	3,14025	35,8704	-0,514	78,454	0	1007,88	5,6	7,8	7,6	1	1	1	1	1	1	1	1	1	0	1	-65,186751	273,053007	250,002146	0
15.01.2021	00:24:25	0	0	3,84157	3,156	54,8028	-0,51	78,439	0	1007,86	5,6	7,8	7,7	1	1	1	1	1	1	1	1	1	0	1	-65,821001	273,183465	249,970689	0
15.01.2021	00:24:26	0	0	5,310405	3,12525	57,744	-0,512	78,44	0	1007,84	5,6	7,8	7,7	1	1	1	1	1	1	1	1	1	0	1	-65,539112	273,084123	249,79348	0
15.01.2021	00:24:27	0	0	3,954557	3,0705	74,1672	-0,511	78,422	0	1007,94	5,6	7,7	7,7	1	1	1	1	1	1	1	1	1	0	1	-63,002114	273,13231	252,553109	0
15.01.2021	00:24:28	0	0	3,38962	2,89425	75,2652	-0,508	78,398	0	1007,82	5,6	7,7	7,7	1	1	1	1	1	1	1	1	1	0	1	-64,693446	273,226199	251,295884	0
15.01.2021	00:24:29	0	0	4,180532	2,83125	70,866	-0,511	78,386	0	1007,92	5,6	7,8	7,7	1	1	1	1	1	1	1	1	1	0	1	-65,327696	273,129473	250,214413	0
15.01.2021	00:24:30	0	0	3,615595	2,7945	61,3008	-0,514	78,383	0	1007,8	5,6	7,8	7,7	1	1	1	1	1	1	1	1	1	0	1	-67,300916	273,05442	247,894507	0
15.01.2021	00:24:31	0	0	3,38962	2,826	72,0072	-0,515	78,393	0	1007,9	5,6	7,7	7,7	1	1	1	1	1	1	1	1	1	0	1	-65,398168	273,15645	250,268625	0
15.01.2021	00:24:32	0	0	2,598709	2,682	68,1048	-0,501	78,455	0	1008	5,6	7,8	7,7	1	1	1	1	1	1	1	1	1	0	1	-67,512333	273,05018	247,663516	0
15.01.2021	00:24:33	0	0	5,197418	2,60625	69,1596	-0,51	78,383	0	1007,96	5,6	7,7	7,7	1	1	1	1	1	1	1	1	1	0	1	-71,529246	273,129473	244,012862	0
15.01.2021	00:24:34	0	0	4,971443	2,67675	55,1772	-0,513	78,385	0	1007,82	5,6	7,7	7,7	1	1	1	1	1	1	1	1	1	0	1	-65,680056	273,229051	250,322469	0
15.01.2021	00:24:35	0	0	2,598709	2,6715	59,8644	-0,507	78,387	0	1007,9	5,6	7,7	7,7	1	1	1	1	1	1	1	1	1	0	1	-66,807611	273,101116	248,60348	0
15.01.2021	00:24:36	0	0	4,519521	2,59275	55,9512	-0,512	78,369	0	1007,92	5,6	7,8	7,6	1	1	1	1	1	1	1	1	1	0	1	-64,904863	273,183465	250,886827	0
15.01.2021	00:24:37	0	0	2,598709	2,66325	54,108	-0,507	78,371	0	1007,82	5,6	7,7	7,7	1	1	1	1	1	1	1	1	1	0	1	-69,767442	273,243319	246,301094	0
15.01.2021	00:24:38	0	0	4,632537	2,7885	57,726	-0,507	78,362	0	1007,9	5,6	7,7	7,5	1	1	1	1	1	1	1	1	1	0	1	-66,314306	273,106784	249,122969	0
15.01.2021	00:24:39	0	0	4,180532	2,61675	57,0312	-0,504	78,356	0	1007,96	5,6	7,8	7,7	1	1	1	1	1	1	1	1	1	0	1	-63,354475	273,23761	252,687649	0
15.01.2021	00:24:40	0	0	3,728582	2,48175	62,7912	-0,512	78,338	0	1007,92	5,6	7,8	7,7	1	1	1	1	1	1	1	1	1	0	1	-63,84778	273,102533	251,569856	0
15.01.2021	00:24:41	0	0	3,615595	2,44875	64,2456	-0,507	78,34	0	1008,02	5,6	7,7	7,7	1	1	1	1	1	1	1	1	1	0	1	-62,508809	273,23333	253,513513	0
15.01.2021	00:24:42	0	0	3,050658	2,394	72,2988	-0,504	78,313	0	1007,84	5,6	7,7	7,7	1	1	1	1	1	1	1	1	1	0	1	-63,777308	273,230477	252,231816	0
15.01.2021	00:24:43	0	0	4,067544	2,27325	60,5628	-0,501	78,312	0	1007,98	5,6	7,8	7,7	1	1	1	1	1	1	1	1	1	0	1	-66,948555	273,243319	249,11998	0
15.01.2021	00:24:44	0	0	2,937671	2,2725	59,1048	-0,504	78,297	0	1007,9	5,6	7,7	7,7	1	1	1	1	1	1	1	1	1	0	1	-65,398168	273,062902	249,83642	0
15.01.2021	00:24:45	0	0	3,163646	2,41425	59,8572	-0,505	78,278	0	1007,82	5,6	7,7	7,7	1	1	1	1	1	1	1	1	1	0	1	-64,622974	273,203396	251,260882	0
15.01.2021	00:24:46	0	0	4,406506	2,47275	69,1452	-0,505	78,265	0	1007,84	5,6	7,8	7,7	1	1	1	1	1	1	1	1	1	0	1	-67,864693	273,224773	248,11804	0
15.01.2021	00:24:47	0	0	4,745468	2,30775	57,726	-0,504	78,252	0	1007,92	5,6	7,8	7,7	1	1	1	1	1	1	1	1	1	0	1	-67,794221	273,13373	247,76756	0
15.01.2021	00:24:48	0	0	4,858456	2,1555	68,3856	-0,501	78,247	0	1008,02	5,6	7,8	7,7	1	1	1	1	1	1	1	1	1	0	1	-65,750529	273,057247	249,457947	0
15.01.2021	00:24:49	0	0	3,84157	2,067	64,2564	-0,503	78,235	0	1008,08	5,6	7,7	7,7	1	1	1	1	1	1	1	1	1	0	1	-67,653277	273,125216	247,869164	0
15.01.2021	00:24:50	0	0	2,824684	2,12025	60,5736	-0,501	78,214	0	1007,88	5,6	7,9	7,7	1	1	1	1	1	1	1	1	1	0	1	-64,059197	273,069973	251,208045	0
15.01.2021	00:24:51	0	0	3,84157	2,244	57,0204	-0,499	78,22	0	1008	5,6	7,8	7,7	1	1	1	1	1	1	1	1	1	0	1	-69,556025	273,210519	246,360775	0
15.01.2021	00:24:52	0	0	4,519494	2,31	52,506	-0,507	78,187	0	1007,86	5,6	7,8	7,7	1	1	1	1	1	1	1	1	1	0	1	-70,613108	273,119543	244,883118	0
15.01.2021	00:24:53	0	0	4,745468	2,3865	49,2156	-0,504	78,181	0	1007,88	5,6	7,8	7,7	1	1	1	1	1	1	1	1	1	0	1	-68,07611	273,250457	248,025453	0
15.01.2021	00:24:54	0	0	4,858456	2,4525	48,1212	-0,501	78,176	0	1007,76	5,6	7,7	7,7	1	1	1	1	1	1	1	1	1	0	1	-65,398168	273,184888	250,400101	0
15.01.2021	00:24:55	0	0	2,824684	2,43975	55,9476	-0,491	78,168	0	1007,84	5,6	7,8	7,7	1	1	1	1	1	1	1	1	1	0	1	-64,622974	273,23333	251,399348	0
15.01.2021	00:24:56	0	0	3,615595	2,39925	35,4888	-0,502	78,142	0	1007,96	5,6	7,7	7,7	1	1	1	1	1	1	1	1	1	0	1	-66,878083	273,091201	248,487207	0
15.01.2021	00:24:57	0	0	4,067544	2,35275	33,2604	-0,498	78,132	0	1007,88	5,6	7,7	7,7	1	1	1	1	1	1	1	1	1	0	1	-67,159972	273,075631	248,133403	0
15.01.2021	00:24:58	0	0	3,050658	2,376	41,5584	-0,501	78,125	0	1008,02	5,6	7,8	7,7	1	1	1	1	1	1	1	1	1	0	1	-61,804087	273,210519	254,112713	0
15.01.2021	00:24:59	0	0	3,954557	2,29875	49,9608	-0,494	78,118	0	1007,96	5,6	7,7	7,7	1	1	1	1	1	1	1	1	1	0	1	-68,217054	273,211944	247,706336	0
15.01.2021	00:25:00	0	0	3,276633	2,4795	65,0736	-0,504	78,09	0	1007,86	5,6	7,7	7,7	1	1	1	1	1	1	1	1	1	0	1	-67,582805	273,17493	248,169421	0
15.01.2021	00:25:01	0	0	2,824701	2,595	73,8	-0,5	78,078	0	1007,94	5,6	7,7	7,6	1	1	1	1	1	1	1	1	1	0	1	-65,680056	273,05866	249,534947	0
15.01.2021	00:25:02	0	0	2,824701	2,595	73,8	-0,5	78,078	0	1007,94	5,6	7,7	7,6	1	1	1	1	1	1	1	1	1	0	1	-65,680056	273,05866	249,534947	0
15.01.2021	00:25:03	0	0	4,971473	2,52675	62,0424	-0,503	78,057	0	1007,9	5,6	7,7	7,6	1	1	1	1	1	1	1	1	1	0	1	-69,626498	273,17493	246,125728	0
15.01.2021	00:25:04	0	0	3,389641	2,38275	68,7852	-0,502	78,04	0	1007,98	5,6	7,7	7,6	1	1	1	1	1	1	1	1	1	0	1	-66,737139	273,23761	249,304986	0
15.01.2021	00:25:05	0	0	4,971443	2,418	63,5724	-0,5	78,003	0	1007,92	5,6	7,7	7,7	1	1	1	1	1	1	1	1	1	0	1	-67,653277	273,207669	248,250344	0
15.01.2021	00:25:06	0	0	5,084431	2,3505	59,4684	-0,506	77,977	0	1007,9	5,6	7,8	7,7	1	1	1	1	1	1	1	1	1	0	1	-67,371388	273,145086	248,24288	0
15.01.2021	00:25:07	0	0	4,406533	2,24025	66,5352	-0,498	77,978	0	1007,86	5,6	7,8	7,6	1	1	1	1	1	1	1	1	1	0	1	-64,129669	273,078461	251,176776	0
15.01.2021	00:25:08	0	0	2,937671	2,22	54,8136	-0,497	77,946	0	1007,88	5,6	7,8	7,7	1	1	1	1	1	1	1	1	1	0	1	-65,46864	273,16782	250,250715	0
15.01.2021	00:25:09	0	0	3,615595	2,2035	55,5588	-0,499	77,941	0	1007,86	5,6	7,9	7,7	1	1	1	1	1	1	1	1	1	0	1	-66,525722	273,06573	248,721925	0
15.01.2021	00:25:10	0	0	4,858456	2,27325	65,8512	-0,503	77,916	0	1007,86	5,6	7,7	7,7	1	1	1	1	1	1	1	1	1	0	1	-67,512333	273,126635	248,016663	0
15.01.2021	00:25:11	0	0	5,423393	2,4015	67,6692	-0,503	77,907	0	1007,86	5,6	7,8	7,7	1	1	1	1	1	1	1	1	1	0	1	-67,300916	273,229051	248,701609	0
15.01.2021	00:25:12	0	0	2,937671	2,64825	69,1704	-0,503	77,91	0	1007,92	5,6	7,8	7,7	1	1	1	1	1	1	1	1	1	0	1	-66,102889	273,234757	249,926033	0
15.01.2021	00:25:13	0	0	5,310437	2,7345	66,2436	-0,505	77,887	0	1007,86	5,6	7,7	7,6	1	1	1	1	1	1	1	1	1	0	1	-68,780832	273,172086	246,958244	0
15.01.2021	00:25:14	0	0	3,276653	2,85375	76,8168	-0,504	77,887	0	1007,9	5,6	7,8	7,6	1	1	1	1	1	1	1	1	1	0	1	-65,750529	273,062902	249,48406	0
15.01.2021	00:25:15	0	0	5,649367	3,00225	86,9688	-0,502	77,879	0	1008	5,6	7,7	7,7	1	1	1	1	1	1	1	1	1	0	1	-66,596195	273,106784	248,841081	0
15.01.2021	00:25:16	0	0	4,858485	3,36975	81,6084	-0,508	77,861	0	1007,76	5,6	7,8	7,6	1	1	1	1	1	1	1	1	1	0	1	-69,274137	273,078461	246,032308	0
15.01.2021	00:25:17	0	0	3,050677	3,52725	72,3096	-0,501	77,87	0	1007,86	5,6	7,7	7,6	1	1	1	1	1	1	1	1	1	0	1	-64,552502	273,170664	251,18	0
15.01.2021	00:25:18	0	0	4,745468	3,975	51,444	-0,505	77,863	0	1007,98	5,6	7,8	7,7	1	1	1	1	1	1	1	1	1	0	1	-67,653277	273,069973	247,613965	0
15.01.2021	00:25:19	0	0	4,406506	3,624	68,3928	-0,5	77,889	0	1007,78	5,6	7,8	7,7	1	1	1	1	1	1	1	1	1	0	1	-67,019027	273,116707	248,464094	0
15.01.2021	00:25:20	0	0	5,084431	3,05775	47,7504	-0,502	77,911	0	1008,02	5,6	7,8	7,7	1	1	1	1	1	1	1	1	1	0	1	-62,790698	273,246173	253,291047	0
15.01.2021	00:25:21	0	0	2,824684	2,85675	53,73	-0,501	77,932	0	1007,94	5,6	7,7	7,7	1	1	1	1	1	1	1	1	1	0	1	-68,992248	273,16782	246,727107	0
15.01.2021	00:25:22	0	0	4,745468	2,92875	58,122	-0,51	77,955	0	1007,84	5,6	7,8	7,7	1	1	1	1	1	1	1	1	1	0	1	-64,904863	273,057247	250,303613	0
15.01.2021	00:25:23	0	0	3,841593	3,14925	51,1848	-0,497	77,983	0	1007,94	5,6	7,8	7,6	1	1	1	1	1	1	1	1	1	0	1	-67,300916	273,106784	248,136359	0
15.01.2021	00:25:24	0	0	3,050658	3,16575	49,5756	-0,505	77,98	0	1008	5,6	7,7	7,7	1	1	1	1	1	1	1	1	1	0	1	-69,06272	273,068558	246,19799	0
15.01.2021	00:25:25	0	0	4,519494	3,2355	45,1548	-0,509	77,963	0	1007,9	5,6	7,8	7,7	1	1	1	1	1	1	1	1	1	0	1	-66,737139	273,119543	248,759087	0
15.01.2021	00:25:26	0	0	4,632509	3,5415	46,9908	-0,504	77,986	0	1008	5,6	7,8	7,6	1	1	1	1	1	1	1	1	1	0	1	-67,44186	273,23761	248,600264	0
15.01.2021	00:25:27	0	0	3,276633	3,75375	50,0832	-0,507	77,978	0	1007,82	5,6	7,8	7,7	1	1	1	1	1	1	1	1	1	0	1	-67,794221	273,118125	247,695452	0
15.01.2021	00:25:28	0	0	3,615595	3,90825	47,7612	-0,505	77,977	0	1007,96	5,6	7,7	7,7	1	1	1	1	1	1	1	1	1	0	1	-71,881607	273,229051	244,120918	0
15.01.2021	00:25:29	0	0	2,598725	3,93375	51,0444	-0,5	77,975	0	1007,98	5,6	7,7	7,6	1	1	1	1	1	1	1	1	1	0	1	-64,270613	273,16782	251,448742	0
15.01.2021	00:25:30	0	0	4,745468	3,93675	49,5792	-0,499	77,99	0	1007,94	5,6	7,8	7,7	1	1	1	1	1	1	1	1	1	0	1	-67,371388	273,060074	247,850143	0
15.01.2021	00:25:31	0	0	4,632481	3,78225	53,3628	-0,503	77,99	0	1007,9	5,6	7,7	7,7	1	1	1	1	1	1	1	1	1	0	1	-61,945032	273,13231	253,610191	0
15.01.2021	00:25:32	0	0	3,615638	3,67125	47,376	-0,505	77,992	0	1007,98	5,6	7,8	7,5	1	1	1	1	1	1	1	1	1	0	1	-67,0895	273,05866	248,125503	0
15.01.2021	00:25:33	0	0	3,050677	3,52125	46,2168	-0,504	77,994	0	1007,88	5,6	7,8	7,6	1	1	1	1	1	1	1	1	1	0	1	-67,159972	273,10395	248,26421	0
15.01.2021	00:25:34	0	0	3,163646	3,45975	47,3652	-0,506	78	0	1007,96	5,6	7,7	7,7	1	1	1	1	1	1	1	1	1	0	1	-69,69697	273,10395	245,727212	0
15.01.2021	00:25:35	0	0	3,389641	3,37125	46,6092	-0,507	78,013	0	1008,16	5,6	7,8	7,6	1	1	1	1	1	1	1	1	1	0	1	-68,992248	273,15645	246,674545	0
15.01.2021	00:25:36	0	0	3,615595	3,207	43,2972	-0,504	78,032	0	1007,9	5,6	7,8	7,7	1	1	1	1	1	1	1	1	1	0	1	-67,582805	273,236183	248,452718	0
15.01.2021	00:25:37	0	0	2,937671	3,12525	42,2064	-0,507	78,063	0	1007,78	5,6	7,7	7,7	1	1	1	1	1	1	1	1	1	0	1	-68,287526	273,074217	246,999314	0
15.01.2021	00:25:38	0	0	4,745468	2,934	30,3408	-0,506	78,11	0	1008,02	5,6	7,7	7,7	1	1	1	1	1	1	1	1	1	0	1	-69,69697	273,115289	245,7796	0
15.01.2021	00:25:39	0	0	2,937671	2,772	27,6588	-0,5	78,159	0	1008,02	5,6	7,8	7,7	1	1	1	1	1	1	1	1	1	0	1	-63,284003	273,072802	251,996304	0
15.01.2021	00:25:40	0	0	4,293519	2,652	27,972	-0,509	78,182	0	1007,88	5,6	7,8	7,7	1	1	1	1	1	1	1	1	1	0	1	-64,622974	273,096866	250,768484	0
15.01.2021	00:25:41	0	0	2,937671	2,652	45,5472	-0,514	78,219	0	1007,82	5,6	7,8	7,7	1	1	1	1	1	1	1	1	1	0	1	-68,780832	273,069973	246,48641	0
15.01.2021	00:25:42	0	0	3,276633	2,8725	50,3712	-0,504	78,274	0	1007,98	5,6	7,8	7,7	1	1	1	1	1	1	1	1	1	0	1	-63,495419	273,177775	252,269959	0
15.01.2021	00:25:43	0	0	5,084431	3,2625	53,3592	-0,501	78,281	0	1007,82	5,6	7,7	7,7	1	1	1	1	1	1	1	1	1	0	1	-66,032417	273,246173	250,049328	0
15.01.2021	00:25:44	0	0	4,406533	3,74025	56,268	-0,501	78,309	0	1007,96	5,6	7,8	7,6	1	1	1	1	1	1	1	1	1	0	1	-64,270613	273,17493	251,481612	0
15.01.2021	00:25:45	0	0	3,050677	3,63225	39,8628	-0,503	78,344	0	1007,88	5,6	7,7	7,6	1	1	1	1	1	1	1	1	1	0	1	-65,398168	273,078461	249,908277	0
15.01.2021	00:25:46	0	0	3,728582	3,50175	74,5128	-0,499	78,347	0	1008,06	5,6	7,7	7,7	1	1	1	1	1	1	1	1	1	0	1	-63,143058	273,102533	252,274577	0
15.01.2021	00:25:47	0	0	2,824684	3,171	62,0424	-0,506	78,355	0	1008,06	5,6	7,7	7,7	1	1	1	1	1	1	1	1	1	0	1	-69,133192	273,077046	246,166717	0
15.01.2021	00:25:48	0	0	5,197418	3,28425	54,7812	-0,498	78,358	0	1007,56	5,6	7,7	7,7	1	1	1	1	1	1	1	1	1	0	1	-68,217054	273,173508	247,528596	0
15.01.2021	00:25:49	0	0	2,937671	3,42825	47,376	-0,496	78,374	0	1007,86	5,6	7,8	7,7	1	1	1	1	1	1	1	1	1	0	1	-72,797745	273,236183	243,237778	0
15.01.2021	00:25:50	0	0	3,050677	3,2415	47,358	-0,497	78,35	0	1007,64	5,6	7,7	7,6	1	1	1	1	1	1	1	1	1	0	1	-65,821001	273,247601	250,26735	0
15.01.2021	00:25:51	0	0	3,050658	2,97225	47,3724	-0,498	78,369	0	1007,88	5,6	7,7	7,7	1	1	1	1	1	1	1	1	1	0	1	-66,102889	273,172086	249,636186	0
15.01.2021	00:25:52	0	0	2,485722	2,955	57,0492	-0,496	78,38	0	1007,76	5,6	7,9	7,7	1	1	1	1	1	1	1	1	1	0	1	-67,300916	273,240464	248,754413	0
15.01.2021	00:25:53	0	0	2,598709	3,02625	54,1044	-0,503	78,357	0	1007,9	5,6	7,7	7,7	1	1	1	1	1	1	1	1	1	0	1	-66,807611	273,13373	248,75417	0
15.01.2021	00:25:54	0	0	3,050658	3,0495	54,1224	-0,496	78,372	0	1007,82	5,6	7,7	7,7	1	1	1	1	1	1	1	1	1	0	1	-63,213531	273,111036	252,243389	0
15.01.2021	00:25:55	0	0	4,632481	3,1005	59,9292	-0,494	78,374	0	1007,98	5,6	7,8	7,7	1	1	1	1	1	1	1	1	1	0	1	-65,609584	273,112454	249,853885	0
15.01.2021	00:25:56	0	0	4,858456	2,9985	66,312	-0,495	78,365	0	1008,02	5,6	7,8	7,7	1	1	1	1	1	1	1	1	1	0	1	-65,257223	273,216219	250,685943	0
15.01.2021	00:25:57	0	0	3,728582	2,96325	60,5484	-0,5	78,356	0	1007,92	5,6	7,9	7,7	1	1	1	1	1	1	1	1	1	0	1	-67,371388	273,201971	248,50588	0
15.01.2021	00:25:58	0	0	2,372734	3,048	60,5556	-0,492	78,355	0	1008,1	5,6	7,7	7,7	1	1	1	1	1	1	1	1	1	0	1	-67,864693	273,08837	247,487516	0
15.01.2021	00:25:59	0	0	2,485722	3,01875	57,744	-0,498	78,331	0	1007,94	5,6	7,7	7,7	1	1	1	1	1	1	1	1	1	0	1	-67,0895	273,200547	248,781182	0
15.01.2021	00:26:00	0	0	2,598709	2,86425	43,2936	-0,489	78,332	0	1007,92	5,6	7,8	7,7	1	1	1	1	1	1	1	1	1	0	1	-61,733615	273,136568	253,841284	0
15.01.2021	00:26:01	0	0	2,598709	2,86425	43,2936	-0,489	78,332	0	1007,92	5,6	7,8	7,7	1	1	1	1	1	1	1	1	1	0	1	-61,733615	273,136568	253,841284	0
15.01.2021	00:26:02	0	0	3,728605	2,91675	45,8676	-0,487	78,328	0	1008,06	5,6	7,7	7,6	1	1	1	1	1	1	1	1	1	0	1	-69,133192	273,243319	246,935343	0
15.01.2021	00:26:03	0	0	4,971473	2,895	46,9836	-0,495	78,329	0	1007,96	5,6	7,7	7,6	1	1	1	1	1	1	1	1	1	0	1	-72,656801	273,221921	243,312742	0
15.01.2021	00:26:04	0	0	3,050658	3,07875	52,506	-0,488	78,328	0	1008,2	5,6	7,9	7,7	1	1	1	1	1	1	1	1	1	0	1	-71,529246	273,147927	244,09815	0
15.01.2021	00:26:05	0	0	3,502629	3,22125	52,1424	-0,489	78,313	0	1007,84	5,6	7,8	7,6	1	1	1	1	1	1	1	1	1	0	1	-67,371388	273,243319	248,697147	0
15.01.2021	00:26:06	0	0	3,050677	3,26625	58,4928	-0,492	78,306	0	1007,94	5,6	7,8	7,6	1	1	1	1	1	1	1	1	1	0	1	-65,46864	273,152188	250,178452	0
15.01.2021	00:26:07	0	0	3,050658	3,1185	62,4276	-0,49	78,299	0	1007,92	5,6	7,7	7,7	1	1	1	1	1	1	1	1	1	0	1	-69,415081	273,085538	245,92405	0
15.01.2021	00:26:08	0	0	4,519494	2,95425	63,8604	-0,483	78,278	0	1008,02	5,6	7,8	7,7	1	1	1	1	1	1	1	1	1	0	1	-66,596195	273,220495	249,366753	0
15.01.2021	00:26:09	0	0	4,632481	2,8245	53,7588	-0,488	78,265	0	1007,86	5,6	7,7	7,7	1	1	1	1	1	1	1	1	1	0	1	-67,723749	273,08837	247,62846	0
15.01.2021	00:26:10	0	0	2,59874	2,68725	47,3724	-0,489	78,257	0	1007,86	5,6	7,9	7,5	1	1	1	1	1	1	1	1	1	0	1	-63,636364	273,096866	251,755095	0
15.01.2021	00:26:11	0	0	4,745468	2,76675	54,4896	-0,484	78,241	0	1007,84	5,6	7,7	7,7	1	1	1	1	1	1	1	1	1	0	1	-71,529246	273,130891	244,019419	0
15.01.2021	00:26:12	0	0	2,711696	2,83725	52,1352	-0,486	78,241	0	1007,92	5,6	7,7	7,7	1	1	1	1	1	1	1	1	1	0	1	-67,159972	273,253312	248,954807	0
15.01.2021	00:26:13	0	0	4,293545	2,952	44,0424	-0,487	78,237	0	1007,88	5,6	7,7	7,6	1	1	1	1	1	1	1	1	1	0	1	-68,639887	273,176352	247,118914	0
15.01.2021	00:26:14	0	0	4,406506	2,9625	55,17	-0,481	78,219	0	1007,96	5,6	7,7	7,7	1	1	1	1	1	1	1	1	1	0	1	-67,582805	273,236183	248,452718	0
15.01.2021	00:26:15	0	0	4,745468	2,92875	52,5132	-0,481	78,22	0	1007,9	5,6	7,7	7,7	1	1	1	1	1	1	1	1	1	0	1	-72,30444	273,155029	243,355785	0
15.01.2021	00:26:16	0	0	2,485736	2,94075	53,7372	-0,485	78,221	0	1007,84	5,6	7,9	7,6	1	1	1	1	1	1	1	1	1	0	1	-68,146582	273,074217	247,140259	0
15.01.2021	00:26:17	0	0	2,711696	2,712	19,5444	-0,48	78,23	0	1007,98	5,6	7,9	7,7	1	1	1	1	1	1	1	1	1	0	1	-62,297393	273,136568	253,277507	0
15.01.2021	00:26:18	0	0	4,745468	2,4555	34,7112	-0,481	78,203	0	1007,92	5,6	7,7	7,7	1	1	1	1	1	1	1	1	1	0	1	-64,83439	273,247601	251,25396	0
15.01.2021	00:26:19	0	0	4,293519	2,3175	31,0248	-0,483	78,216	0	1008,04	5,6	7,7	7,7	1	1	1	1	1	1	1	1	1	0	1	-65,539112	273,23761	250,503012	0
15.01.2021	00:26:20	0	0	4,745497	2,31	31,788	-0,48	78,223	0	1007,92	5,6	7,8	7,6	1	1	1	1	1	1	1	1	1	0	1	-70,401691	273,239037	245,647035	0
15.01.2021	00:26:21	0	0	3,954557	2,51475	38,0664	-0,478	78,225	0	1007,82	5,6	7,8	7,7	1	1	1	1	1	1	1	1	1	0	1	-75,264271	273,20482	240,626173	0
15.01.2021	00:26:22	0	0	3,050658	2,8605	52,5888	-0,479	78,218	0	1008	5,6	7,8	7,7	1	1	1	1	1	1	1	1	1	0	1	-66,173362	273,223347	249,802776	0
15.01.2021	00:26:23	0	0	2,937689	3,048	27,666	-0,482	78,233	0	1007,98	5,6	7,7	7,6	1	1	1	1	1	1	1	1	1	0	1	-69,837914	273,249029	246,257043	0
15.01.2021	00:26:24	0	0	4,632481	3,16575	51,7392	-0,484	78,224	0	1007,9	5,6	7,8	7,7	1	1	1	1	1	1	1	1	1	0	1	-64,693446	273,16782	251,025909	0
15.01.2021	00:26:25	0	0	2,937689	3,6915	46,2384	-0,477	78,234	0	1008,04	5,6	7,8	7,6	1	1	1	1	1	1	1	1	1	0	1	-69,978858	273,240464	246,076471	0
15.01.2021	00:26:26	0	0	4,971473	4,01475	42,6024	-0,479	78,217	0	1007,82	5,6	7,7	7,6	1	1	1	1	1	1	1	1	1	0	1	-69,06272	273,135149	246,50562	0
15.01.2021	00:26:27	0	0	5,423393	3,87975	46,224	-0,481	78,204	0	1007,94	5,6	7,7	7,7	1	1	1	1	1	1	1	1	1	0	1	-65,891473	273,227625	250,104454	0
15.01.2021	00:26:28	0	0	5,084461	3,79125	46,2312	-0,477	78,213	0	1008,02	5,6	7,7	7,6	1	1	1	1	1	1	1	1	1	0	1	-65,045807	273,098283	250,352195	0
15.01.2021	00:26:29	0	0	2,824701	3,696	44,3844	-0,475	78,225	0	1007,8	5,6	7,8	7,6	1	1	1	1	1	1	1	1	1	0	1	-69,485553	273,111036	245,971367	0
15.01.2021	00:26:30	0	0	4,293519	3,61875	54,4788	-0,478	78,203	0	1007,84	5,6	7,9	7,7	1	1	1	1	1	1	1	1	1	0	1	-67,44186	273,17493	248,310365	0
15.01.2021	00:26:31	0	0	2,14676	3,52125	58,482	-0,477	78,2	0	1007,82	5,6	7,7	7,7	1	1	1	1	1	1	1	1	1	0	1	-70,190275	273,072802	245,090032	0
15.01.2021	00:26:32	0	0	2,937671	3,33525	61,686	-0,476	78,211	0	1007,8	5,6	7,9	7,7	1	1	1	1	1	1	1	1	1	0	1	-67,864693	273,192004	247,966482	0
15.01.2021	00:26:33	0	0	5,423425	3,1365	56,0088	-0,478	78,211	0	1007,9	5,6	7,8	7,6	1	1	1	1	1	1	1	1	1	0	1	-65,539112	273,241891	250,52282	0
15.01.2021	00:26:34	0	0	5,084431	3,10875	62,7948	-0,475	78,203	0	1007,88	5,6	7,8	7,7	1	1	1	1	1	1	1	1	1	0	1	-64,693446	273,203396	251,190409	0
15.01.2021	00:26:35	0	0	4,293545	3,102	64,6164	-0,474	78,204	0	1007,76	5,6	7,8	7,6	1	1	1	1	1	1	1	1	1	0	1	-63,143058	273,246173	252,938687	0
15.01.2021	00:26:36	0	0	3,163665	3,09	59,4936	-0,468	78,207	0	1008	5,6	7,9	7,6	1	1	1	1	1	1	1	1	1	0	1	-62,508809	273,108201	252,935014	0
15.01.2021	00:26:37	0	0	2,937671	3,30375	62,8704	-0,468	78,2	0	1007,94	5,6	7,7	7,7	1	1	1	1	1	1	1	1	1	0	1	-72,30444	273,257597	243,830166	0
15.01.2021	00:26:38	0	0	3,841593	3,40725	66,8952	-0,475	78,208	0	1007,92	5,6	7,8	7,6	1	1	1	1	1	1	1	1	1	0	1	-66,948555	273,183465	248,843134	0
15.01.2021	00:26:39	0	0	3,954557	3,44175	57,744	-0,467	78,212	0	1007,98	5,6	7,8	7,7	1	1	1	1	1	1	1	1	1	0	1	-62,790698	273,253312	253,324081	0
15.01.2021	00:26:40	0	0	2,824684	3,315	58,1184	-0,469	78,204	0	1007,92	5,6	7,9	7,7	1	1	1	1	1	1	1	1	1	0	1	-70,260747	273,116707	245,222374	0
15.01.2021	00:26:41	0	0	3,276633	3,06675	63,2016	-0,472	78,203	0	1007,84	5,6	7,8	7,7	1	1	1	1	1	1	1	1	1	0	1	-66,878083	273,20482	249,01236	0
15.01.2021	00:26:42	0	0	3,050658	3,01125	63,4752	-0,467	78,205	0	1008,08	5,6	7,8	7,7	1	1	1	1	1	1	1	1	1	0	1	-65,891473	273,082707	249,434582	0
15.01.2021	00:26:43	0	0	2,937671	2,838	62,046	-0,459	78,211	0	1008,08	5,6	7,7	7,7	1	1	1	1	1	1	1	1	1	0	1	-63,424947	273,243319	252,643589	0
15.01.2021	00:26:44	0	0	4,519494	2,97975	62,4024	-0,47	78,2	0	1007,94	5,6	7,8	7,7	1	1	1	1	1	1	1	1	1	0	1	-64,975335	273,109619	250,475037	0
15.01.2021	00:26:45	0	0	2,711696	3,22125	59,4756	-0,469	78,206	0	1007,98	5,6	7,7	7,7	1	1	1	1	1	1	1	1	1	0	1	-65,045807	273,207669	250,857814	0
15.01.2021	00:26:46	0	0	4,180532	3,44025	61,3152	-0,466	78,19	0	1007,96	5,6	7,7	7,7	1	1	1	1	1	1	1	1	1	0	1	-66,45525	273,06573	248,792398	0
15.01.2021	00:26:47	0	0	2,824701	3,48225	60,9336	-0,467	78,193	0	1007,98	5,6	7,7	7,6	1	1	1	1	1	1	1	1	1	0	1	-72,656801	273,126635	242,872195	0
15.01.2021	00:26:48	0	0	4,632481	3,453	49,2084	-0,458	78,177	0	1008,02	5,6	7,9	7,7	1	1	1	1	1	1	1	1	1	0	1	-65,891473	273,226199	250,097857	0
15.01.2021	00:26:49	0	0	3,502608	3,73875	54,1044	-0,46	78,154	0	1007,98	5,6	7,7	7,7	1	1	1	1	1	1	1	1	1	0	1	-67,371388	273,146506	248,249443	0
15.01.2021	00:26:50	0	0	4,519521	3,90975	50,6916	-0,465	78,132	0	1007,98	5,6	7,8	7,6	1	1	1	1	1	1	1	1	1	0	1	-69,69697	273,241891	246,364962	0
15.01.2021	00:26:51	0	0	3,728605	3,9615	51,0696	-0,458	78,094	0	1007,96	5,6	7,8	7,6	1	1	1	1	1	1	1	1	1	0	1	-66,102889	273,236183	249,932634	0
15.01.2021	00:26:52	0	0	2,824684	3,99525	55,944	-0,459	78,058	0	1007,96	5,6	7,7	7,7	1	1	1	1	1	1	1	1	1	0	1	-72,022551	273,184888	243,775718	0
15.01.2021	00:26:53	0	0	3,389641	4,21275	46,2384	-0,456	78,051	0	1007,98	5,6	7,9	7,6	1	1	1	1	1	1	1	1	1	0	1	-68,921776	273,247601	247,166575	0
15.01.2021	00:26:54	0	0	4,632481	4,2435	55,206	-0,463	78,029	0	1007,94	5,6	7,8	7,7	1	1	1	1	1	1	1	1	1	0	1	-69,274137	273,190581	246,550456	0
15.01.2021	00:26:55	0	0	3,389641	4,6965	51,0768	-0,46	78,003	0	1007,74	5,6	7,7	7,6	1	1	1	1	1	1	1	1	1	0	1	-66,948555	273,231904	249,067167	0
15.01.2021	00:26:56	0	0	3,502629	4,878	50,3028	-0,455	78,024	0	1007,9	5,6	7,8	7,6	1	1	1	1	1	1	1	1	1	0	1	-70,049331	273,137988	245,532129	0
15.01.2021	00:26:57	0	0	3,841593	4,467	65,4948	-0,459	77,97	0	1007,92	5,6	7,7	7,6	1	1	1	1	1	1	1	1	1	0	1	-70,401691	273,253312	245,713087	0
15.01.2021	00:26:58	0	0	3,728582	4,44	59,4936	-0,458	77,954	0	1008,02	5,7	7,8	7,7	1	1	1	1	1	1	1	1	1	0	1	-68,357999	273,136568	247,216901	0
15.01.2021	00:26:59	0	0	2,937689	4,4625	66,2148	-0,46	77,953	0	1007,96	5,6	7,7	7,6	1	1	1	1	1	1	1	1	1	0	1	-67,512333	273,193428	248,325426	0
15.01.2021	00:27:00	0	0	3,728582	4,74675	57,0348	-0,464	77,95	0	1007,96	5,6	7,8	7,7	1	1	1	1	1	1	1	1	1	0	1	-69,06272	273,125216	246,45972	0
15.01.2021	00:27:01	0	0	4,745468	4,84125	57,0384	-0,465	77,957	0	1007,9	5,6	7,8	7,7	1	1	1	1	1	1	1	1	1	0	1	-70,894996	273,254741	245,226391	0
15.01.2021	00:27:02	0	0	4,745468	4,84125	57,0384	-0,465	77,957	0	1007,9	5,6	7,8	7,7	1	1	1	1	1	1	1	1	1	0	1	-70,894996	273,254741	245,226391	0
15.01.2021	00:27:03	0	0	4,745468	4,782	56,9484	-0,462	77,959	0	1007,92	5,6	7,7	7,7	1	1	1	1	1	1	1	1	1	0	1	-74,630021	273,145086	240,984247	0
15.01.2021	00:27:04	0	0	2,598709	4,47975	58,5072	-0,458	77,987	0	1008	5,6	7,9	7,7	1	1	1	1	1	1	1	1	1	0	1	-67,935166	273,259025	248,206051	0
15.01.2021	00:27:05	0	0	4,745468	4,05375	49,572	-0,456	77,979	0	1007,92	5,6	7,8	7,7	1	1	1	1	1	1	1	1	1	0	1	-64,411557	273,136568	251,163342	0
15.01.2021	00:27:06	0	0	2,598709	3,71325	41,8392	-0,455	78	0	1007,98	5,6	7,7	7,7	1	1	1	1	1	1	1	1	1	0	1	-68,146582	273,094034	247,231791	0
15.01.2021	00:27:07	0	0	3,84157	3,87375	61,6788	-0,458	78,008	0	1007,88	5,6	7,8	7,7	1	1	1	1	1	1	1	1	1	0	1	-66,243834	273,260454	249,903993	0
15.01.2021	00:27:08	0	0	5,423393	3,99375	47,3616	-0,454	78,012	0	1008,02	5,6	7,8	7,7	1	1	1	1	1	1	1	1	1	0	1	-66,314306	273,16782	249,405049	0
15.01.2021	00:27:09	0	0	3,050658	4,14525	45,5256	-0,453	78,03	0	1008	5,6	7,7	7,7	1	1	1	1	1	1	1	1	1	0	1	-68,569415	273,101116	246,841675	0
15.01.2021	00:27:10	0	0	3,728582	4,12875	56,6748	-0,451	78,034	0	1008	5,6	7,7	7,7	1	1	1	1	1	1	1	1	1	0	1	-73,150106	273,273316	243,057246	0
15.01.2021	00:27:11	0	0	5,197418	4,18425	54,8136	-0,455	78,042	0	1007,98	5,6	7,8	7,7	1	1	1	1	1	1	1	1	1	0	1	-69,978858	273,170664	245,753643	0
15.01.2021	00:27:12	0	0	2,824684	4,1865	60,2316	-0,453	78,029	0	1007,98	5,7	7,9	7,7	1	1	1	1	1	1	1	1	1	0	1	-67,300916	273,108201	248,142907	0
15.01.2021	00:27:13	0	0	4,067544	4,2375	60,3576	-0,455	78,037	0	1007,94	5,6	7,8	7,7	1	1	1	1	1	1	1	1	1	0	1	-70,401691	273,213369	245,528291	0
15.01.2021	00:27:14	0	0	4,971443	4,28175	58,1184	-0,451	78,017	0	1007,88	5,6	7,7	7,7	1	1	1	1	1	1	1	1	1	0	1	-71,529246	273,280465	244,711196	0
15.01.2021	00:27:15	0	0	2,598725	4,16475	39,1644	-0,452	78,033	0	1007,84	5,6	7,8	7,6	1	1	1	1	1	1	1	1	1	0	1	-69,837914	273,139407	245,750106	0
15.01.2021	00:27:16	0	0	4,632481	4,077	42,2208	-0,447	78,025	0	1008,04	5,6	7,7	7,7	1	1	1	1	1	1	1	1	1	0	1	-63,495419	273,231904	252,520303	0
15.01.2021	00:27:17	0	0	3,615617	3,9735	41,4612	-0,448	78,047	0	1007,9	5,7	7,7	7,6	1	1	1	1	1	1	1	1	1	0	1	-68,569415	273,101116	246,841675	0
15.01.2021	00:27:18	0	0	4,745468	3,89025	39,1788	-0,448	78,054	0	1007,94	5,7	7,7	7,7	1	1	1	1	1	1	1	1	1	0	1	-67,723749	273,277605	248,503455	0
15.01.2021	00:27:19	0	0	5,084431	3,72675	51,0588	-0,451	78,063	0	1007,92	5,6	7,8	7,7	1	1	1	1	1	1	1	1	1	0	1	-68,498943	273,16782	247,220412	0
15.01.2021	00:27:20	0	0	2,824684	3,42825	53,3556	-0,45	78,068	0	1007,78	5,6	7,8	7,7	1	1	1	1	1	1	1	1	1	0	1	-70,190275	273,284755	246,070028	0
15.01.2021	00:27:21	0	0	4,971443	3,20175	46,3284	-0,445	78,075	0	1008,1	5,7	7,8	7,7	1	1	1	1	1	1	1	1	1	0	1	-69,978858	273,240464	246,076471	0
15.01.2021	00:27:22	0	0	3,050658	3,02325	63,1512	-0,449	78,08	0	1008,2	5,6	7,8	7,7	1	1	1	1	1	1	1	1	1	0	1	-66,243834	273,270457	249,950286	0
15.01.2021	00:27:23	0	0	5,084461	2,991	62,0244	-0,448	78,07	0	1007,74	5,7	7,8	7,6	1	1	1	1	1	1	1	1	1	0	1	-71,035941	273,263311	245,12511	0
15.01.2021	00:27:24	0	0	4,519494	2,8875	58,1976	-0,445	78,057	0	1007,78	5,6	7,9	7,7	1	1	1	1	1	1	1	1	1	0	1	-65,680056	273,256169	250,44794	0
15.01.2021	00:27:25	0	0	3,276633	2,877	59,1048	-0,442	78,075	0	1007,84	5,6	7,8	7,7	1	1	1	1	1	1	1	1	1	0	1	-66,878083	273,150767	248,762442	0
15.01.2021	00:27:26	0	0	3,389641	2,8725	60,9408	-0,442	78,068	0	1008,04	5,7	7,8	7,6	1	1	1	1	1	1	1	1	1	0	1	-67,230444	273,253312	248,884335	0
15.01.2021	00:27:27	0	0	3,163646	2,68875	52,8948	-0,441	78,041	0	1007,88	5,6	7,9	7,7	1	1	1	1	1	1	1	1	1	0	1	-67,864693	273,113871	247,605326	0
15.01.2021	00:27:28	0	0	5,084431	2,53125	62,406	-0,438	78,025	0	1007,88	5,7	7,8	7,7	1	1	1	1	1	1	1	1	1	0	1	-69,415081	273,23333	246,607241	0
15.01.2021	00:27:29	0	0	3,276653	2,6115	60,5592	-0,442	78,012	0	1007,92	5,7	7,8	7,6	1	1	1	1	1	1	1	1	1	0	1	-67,44186	273,149347	248,1921	0
15.01.2021	00:27:30	0	0	2,824684	2,91675	72,6768	-0,434	77,999	0	1008,02	5,7	7,8	7,7	1	1	1	1	1	1	1	1	1	0	1	-67,230444	273,249029	248,864513	0
15.01.2021	00:27:31	0	0	4,293519	2,9655	63,4824	-0,442	77,973	0	1008,04	5,7	7,8	7,7	1	1	1	1	1	1	1	1	1	0	1	-66,384778	273,137988	249,196681	0
15.01.2021	00:27:32	0	0	5,084431	2,83275	60,2244	-0,438	77,941	0	1008,06	5,7	7,8	7,7	1	1	1	1	1	1	1	1	1	0	1	-65,539112	273,196275	250,311814	0
15.01.2021	00:27:33	0	0	3,841593	2,76825	61,3224	-0,438	77,929	0	1008,02	5,7	7,7	7,6	1	1	1	1	1	1	1	1	1	0	1	-68,07611	273,294771	248,230557	0
15.01.2021	00:27:34	0	0	4,858456	2,6445	55,5588	-0,439	77,911	0	1007,86	5,7	7,8	7,7	1	1	1	1	1	1	1	1	1	0	1	-68,639887	273,263311	247,521163	0
15.01.2021	00:27:35	0	0	3,954581	2,4915	57,0348	-0,442	77,88	0	1008,1	5,7	7,9	7,6	1	1	1	1	1	1	1	1	1	0	1	-69,203665	273,294771	247,103003	0
15.01.2021	00:27:36	0	0	4,745468	2,58225	67,6656	-0,436	77,849	0	1007,94	5,7	7,8	7,7	1	1	1	1	1	1	1	1	1	0	1	-68,780832	273,247601	247,307519	0
15.01.2021	00:27:37	0	0	3,163665	2,685	64,2492	-0,441	77,843	0	1007,82	5,7	7,7	7,6	1	1	1	1	1	1	1	1	1	0	1	-66,314306	273,120961	249,188472	0
15.01.2021	00:27:38	0	0	2,711713	2,724	50,3244	-0,436	77,824	0	1008,12	5,7	7,8	7,6	1	1	1	1	1	1	1	1	1	0	1	-68,992248	273,17493	246,759977	0
15.01.2021	00:27:39	0	0	5,084431	2,697	59,4864	-0,436	77,803	0	1008,12	5,7	7,7	7,7	1	1	1	1	1	1	1	1	1	0	1	-68,498943	273,309087	247,874009	0
15.01.2021	00:27:40	0	0	2,937671	2,67225	59,1192	-0,436	77,781	0	1007,9	5,7	7,8	7,7	1	1	1	1	1	1	1	1	1	0	1	-64,341085	273,196275	251,509841	0
15.01.2021	00:27:41	0	0	3,841593	2,715	54,504	-0,444	77,771	0	1007,82	5,6	7,8	7,6	1	1	1	1	1	1	1	1	1	0	1	-68,710359	273,297633	247,60956	0
15.01.2021	00:27:42	0	0	3,841593	2,7495	55,9512	-0,438	77,738	0	1007,88	5,7	7,8	7,6	1	1	1	1	1	1	1	1	1	0	1	-69,908386	273,206245	245,988645	0
15.01.2021	00:27:43	0	0	2,937671	2,9595	58,9644	-0,435	77,705	0	1007,84	5,7	7,8	7,7	1	1	1	1	1	1	1	1	1	0	1	-72,022551	273,29334	244,277491	0
15.01.2021	00:27:44	0	0	3,276653	2,96325	64,2456	-0,436	77,685	0	1007,84	5,7	7,8	7,6	1	1	1	1	1	1	1	1	1	0	1	-73,150106	273,256169	242,97789	0
15.01.2021	00:27:45	0	0	3,38962	2,83575	64,2708	-0,434	77,696	0	1008,04	5,7	7,9	7,7	1	1	1	1	1	1	1	1	1	0	1	-66,525722	273,13373	249,036059	0
15.01.2021	00:27:46	0	0	4,180557	2,68275	51,0696	-0,435	77,665	0	1007,9	5,7	7,8	7,6	1	1	1	1	1	1	1	1	1	0	1	-68,287526	273,194851	247,556815	0
15.01.2021	00:27:47	0	0	3,841593	2,52825	55,5624	-0,434	77,631	0	1008,02	5,7	7,7	7,6	1	1	1	1	1	1	1	1	1	0	1	-68,498943	273,12238	247,010389	0
15.01.2021	00:27:48	0	0	3,050658	2,421	59,1264	-0,431	77,626	0	1007,82	5,7	7,8	7,7	1	1	1	1	1	1	1	1	1	0	1	-66,737139	273,234757	249,291783	0
15.01.2021	00:27:49	0	0	3,84157	2,4075	45,5508	-0,437	77,601	0	1007,84	5,7	7,8	7,7	1	1	1	1	1	1	1	1	1	0	1	-66,45525	273,287616	249,818297	0
15.01.2021	00:27:50	0	0	4,971473	2,3955	49,95	-0,432	77,599	0	1008,04	5,7	7,7	7,6	1	1	1	1	1	1	1	1	1	0	1	-70,965469	273,253312	245,14931	0
15.01.2021	00:27:51	0	0	4,971443	2,52075	49,2156	-0,433	77,592	0	1008	5,7	7,8	7,7	1	1	1	1	1	1	1	1	1	0	1	-71,529246	273,12238	243,980086	0
15.01.2021	00:27:52	0	0	4,745468	2,7945	39,8844	-0,436	77,578	0	1007,96	5,7	7,8	7,7	1	1	1	1	1	1	1	1	1	0	1	-63,918252	273,173508	251,827398	0
15.01.2021	00:27:53	0	0	2,824701	3,31575	61,0308	-0,429	77,579	0	1008	5,7	7,8	7,6	1	1	1	1	1	1	1	1	1	0	1	-69,485553	273,112454	245,977916	0
15.01.2021	00:27:54	0	0	4,745468	3,78	58,8708	-0,434	77,57	0	1008	5,6	7,8	7,7	1	1	1	1	1	1	1	1	1	0	1	-66,525722	273,123798	248,990164	0
15.01.2021	00:27:55	0	0	4,180557	4,07325	53,748	-0,433	77,573	0	1007,82	5,7	7,8	7,6	1	1	1	1	1	1	1	1	1	0	1	-67,371388	273,261883	248,78305	0
15.01.2021	00:27:56	0	0	4,858456	4,14825	51,0732	-0,433	77,563	0	1007,96	5,7	7,8	7,7	1	1	1	1	1	1	1	1	1	0	1	-64,200141	273,129473	251,341967	0
15.01.2021	00:27:57	0	0	2,372748	4,392	49,59	-0,432	77,568	0	1008	5,7	7,8	7,6	1	1	1	1	1	1	1	1	1	0	1	-70,049331	273,162134	245,643739	0
15.01.2021	00:27:58	0	0	4,406533	4,464	50,3136	-0,431	77,569	0	1007,8	5,7	7,8	7,6	1	1	1	1	1	1	1	1	1	0	1	-71,176885	273,26474	244,990778	0
15.01.2021	00:27:59	0	0	4,632509	4,4895	54,5004	-0,431	77,565	0	1007,92	5,7	7,8	7,6	1	1	1	1	1	1	1	1	1	0	1	-69,908386	273,254741	246,213001	0
15.01.2021	00:28:00	0	0	2,937689	3,97275	42,912	-0,43	77,577	0	1007,74	5,7	7,8	7,6	1	1	1	1	1	1	1	1	1	0	1	-69,978858	273,230477	246,030265	0
15.01.2021	00:28:01	0	0	2,937689	3,65325	57,0564	-0,432	77,574	0	1007,96	5,7	7,8	7,6	1	1	1	1	1	1	1	1	1	0	1	-71,67019	273,289047	244,60998	0
15.01.2021	00:28:02	0	0	2,937689	3,65325	57,0564	-0,432	77,574	0	1007,96	5,7	7,8	7,6	1	1	1	1	1	1	1	1	1	0	1	-71,67019	273,289047	244,60998	0
15.01.2021	00:28:03	0	0	4,293519	3,4635	58,8672	-0,439	77,575	0	1007,8	5,7	7,8	7,7	1	1	1	1	1	1	1	1	1	0	1	-68,287526	273,236183	247,747997	0
15.01.2021	00:28:04	0	0	4,406506	3,393	57,7548	-0,435	77,582	0	1007,76	5,7	7,8	7,7	1	1	1	1	1	1	1	1	1	0	1	-66,666667	273,136568	248,908233	0
15.01.2021	00:28:05	0	0	4,858485	3,306	40,2588	-0,43	77,574	0	1007,82	5,7	7,8	7,6	1	1	1	1	1	1	1	1	1	0	1	-65,398168	273,231904	250,617555	0
15.01.2021	00:28:06	0	0	4,971473	3,56325	51,7644	-0,43	77,561	0	1007,92	5,7	7,8	7,6	1	1	1	1	1	1	1	1	1	0	1	-73,643411	273,299065	242,683136	0
15.01.2021	00:28:07	0	0	4,745468	3,645	51,4656	-0,428	77,576	0	1008	5,7	7,8	7,7	1	1	1	1	1	1	1	1	1	0	1	-66,525722	273,17493	249,226503	0
15.01.2021	00:28:08	0	0	2,937689	3,91725	68,778	-0,432	77,584	0	1007,9	5,7	7,8	7,6	1	1	1	1	1	1	1	1	1	0	1	-64,200141	273,153608	251,453517	0
15.01.2021	00:28:09	0	0	2,711713	3,8745	65,4876	-0,433	77,603	0	1007,88	5,6	7,7	7,6	1	1	1	1	1	1	1	1	1	0	1	-63,213531	273,301928	253,126272	0
15.01.2021	00:28:10	0	0	2,937689	3,73275	79,4016	-0,436	77,597	0	1007,98	5,7	7,8	7,6	1	1	1	1	1	1	1	1	1	0	1	-73,995772	273,159292	241,684158	0
15.01.2021	00:28:11	0	0	4,067544	3,582	72,6732	-0,432	77,596	0	1007,88	5,7	7,8	7,7	1	1	1	1	1	1	1	1	1	0	1	-71,952079	273,135149	243,616261	0
15.01.2021	00:28:12	0	0	2,937689	3,43725	49,95	-0,433	77,629	0	1007,94	5,7	7,8	7,6	1	1	1	1	1	1	1	1	1	0	1	-62,22692	273,169242	253,499007	0
15.01.2021	00:28:13	0	0	3,841593	3,17775	72,3024	-0,439	77,624	0	1007,86	5,7	7,8	7,6	1	1	1	1	1	1	1	1	1	0	1	-75,334743	273,143666	240,272962	0
15.01.2021	00:28:14	0	0	3,276653	3,0645	63,4968	-0,43	77,636	0	1007,98	5,7	7,8	7,6	1	1	1	1	1	1	1	1	1	0	1	-67,371388	273,15645	248,295404	0
15.01.2021	00:28:15	0	0	3,954581	3,15	62,802	-0,435	77,641	0	1007,98	5,7	7,8	7,6	1	1	1	1	1	1	1	1	1	0	1	-69,133192	273,136568	246,441707	0
15.01.2021	00:28:16	0	0	2,937671	3,0615	54,8352	-0,432	77,634	0	1007,98	5,7	7,8	7,7	1	1	1	1	1	1	1	1	1	0	1	-62,508809	273,135149	253,059531	0
15.01.2021	00:28:17	0	0	2,937671	2,97	48,8124	-0,432	77,619	0	1007,78	5,7	7,8	7,7	1	1	1	1	1	1	1	1	1	0	1	-73,150106	273,176352	242,608696	0
15.01.2021	00:28:18	0	0	4,971443	2,95725	47,754	-0,435	77,607	0	1007,98	5,7	7,9	7,7	1	1	1	1	1	1	1	1	1	0	1	-65,680056	273,31052	250,699528	0
15.01.2021	00:28:19	0	0	4,632481	3,153	54,8604	-0,439	77,586	0	1007,82	5,7	7,8	7,7	1	1	1	1	1	1	1	1	1	0	1	-65,609584	273,217644	250,340175	0
15.01.2021	00:28:20	0	0	2,824701	3,23475	62,0568	-0,435	77,577	0	1007,94	5,7	7,8	7,6	1	1	1	1	1	1	1	1	1	0	1	-66,666667	273,300496	249,666507	0
15.01.2021	00:28:21	0	0	3,728582	3,375	60,9516	-0,43	77,589	0	1007,88	5,7	7,8	7,7	1	1	1	1	1	1	1	1	1	0	1	-65,821001	273,152188	249,826091	0
15.01.2021	00:28:22	0	0	2,598725	3,537	49,5792	-0,432	77,581	0	1007,98	5,7	7,8	7,6	1	1	1	1	1	1	1	1	1	0	1	-65,46864	273,216219	250,474526	0
15.01.2021	00:28:23	0	0	4,406533	3,3825	57,5244	-0,428	77,602	0	1008,06	5,7	7,8	7,6	1	1	1	1	1	1	1	1	1	0	1	-66,948555	273,31052	249,431029	0
15.01.2021	00:28:24	0	0	3,38962	3,36375	49,5792	-0,432	77,584	0	1008,02	5,7	7,8	7,7	1	1	1	1	1	1	1	1	1	0	1	-69,485553	273,250457	246,61601	0
15.01.2021	00:28:25	0	0	4,519521	3,1965	41,85	-0,435	77,61	0	1007,82	5,7	7,8	7,6	1	1	1	1	1	1	1	1	1	0	1	-68,569415	273,13373	246,992366	0
15.01.2021	00:28:26	0	0	4,971473	2,904	34,3224	-0,426	77,611	0	1007,84	5,7	7,8	7,6	1	1	1	1	1	1	1	1	1	0	1	-68,146582	273,266169	248,027694	0
15.01.2021	00:28:27	0	0	4,632509	2,796	33,9804	-0,434	77,613	0	1007,84	5,7	7,8	7,6	1	1	1	1	1	1	1	1	1	0	1	-72,727273	273,294771	243,579395	0
15.01.2021	00:28:28	0	0	2,824684	2,80125	26,5212	-0,436	77,628	0	1007,86	5,7	7,8	7,7	1	1	1	1	1	1	1	1	1	0	1	-63,424947	273,196275	252,425979	0
15.01.2021	00:28:29	0	0	3,276653	2,9655	40,6332	-0,425	77,646	0	1008	5,7	7,8	7,6	1	1	1	1	1	1	1	1	1	0	1	-65,045807	273,297633	251,274113	0
15.01.2021	00:28:30	0	0	2,259747	3,2145	40,734	-0,431	77,664	0	1007,92	5,7	7,8	7,7	1	1	1	1	1	1	1	1	1	0	1	-67,300916	273,160713	248,385583	0
15.01.2021	00:28:31	0	0	2,711713	3,53475	36,6336	-0,43	77,665	0	1007,8	5,7	7,8	7,6	1	1	1	1	1	1	1	1	1	0	1	-66,807611	273,270457	249,386509	0
15.01.2021	00:28:32	0	0	3,389641	3,49275	55,1844	-0,433	77,662	0	1007,98	5,7	7,8	7,6	1	1	1	1	1	1	1	1	1	0	1	-67,582805	273,286186	248,68412	0
15.01.2021	00:28:33	0	0	2,598725	3,4695	61,7112	-0,431	77,658	0	1007,8	5,7	7,8	7,6	1	1	1	1	1	1	1	1	1	0	1	-68,005638	273,294771	248,301029	0
15.01.2021	00:28:34	0	0	3,954557	3,33825	44,4024	-0,427	77,667	0	1007,86	5,7	7,8	7,7	1	1	1	1	1	1	1	1	1	0	1	-70,260747	273,307655	246,105574	0
15.01.2021	00:28:35	0	0	2,824701	3,11475	68,76	-0,43	77,649	0	1007,74	5,7	7,8	7,6	1	1	1	1	1	1	1	1	1	0	1	-69,485553	273,276175	246,735033	0
15.01.2021	00:28:36	0	0	4,971443	2,77425	63,504	-0,427	77,632	0	1007,94	5,7	7,8	7,7	1	1	1	1	1	1	1	1	1	0	1	-67,794221	273,284755	248,466082	0
15.01.2021	00:28:37	0	0	3,841593	2,71425	63,882	-0,43	77,608	0	1007,94	5,7	7,8	7,6	1	1	1	1	1	1	1	1	1	0	1	-77,378436	273,17493	238,37379	0
15.01.2021	00:28:38	0	0	4,519521	2,70225	61,3188	-0,433	77,597	0	1007,96	5,7	7,8	7,6	1	1	1	1	1	1	1	1	1	0	1	-68,780832	273,214794	247,155742	0
15.01.2021	00:28:39	0	0	3,841593	2,72025	59,5908	-0,432	77,576	0	1007,94	5,7	7,8	7,6	1	1	1	1	1	1	1	1	1	0	1	-69,133192	273,301928	247,20661	0
15.01.2021	00:28:40	0	0	2,711713	2,68125	65,1096	-0,423	77,573	0	1007,9	5,7	7,8	7,6	1	1	1	1	1	1	1	1	1	0	1	-66,173362	273,274745	250,040607	0
15.01.2021	00:28:41	0	0	4,632509	2,52525	55,9332	-0,422	77,572	0	1008,04	5,7	7,8	7,6	1	1	1	1	1	1	1	1	1	0	1	-65,821001	273,330583	250,651491	0
15.01.2021	00:28:42	0	0	2,711713	2,50125	56,2968	-0,431	77,556	0	1007,98	5,7	7,8	7,6	1	1	1	1	1	1	1	1	1	0	1	-65,961945	273,324848	250,48399	0
15.01.2021	00:28:43	0	0	3,954581	2,41425	44,7732	-0,428	77,539	0	1008,04	5,7	7,8	7,6	1	1	1	1	1	1	1	1	1	0	1	-67,0895	273,220495	248,873448	0
15.01.2021	00:28:44	0	0	4,745497	2,31	43,29	-0,43	77,531	0	1007,94	5,7	7,8	7,6	1	1	1	1	1	1	1	1	1	0	1	-72,093023	273,321982	244,339637	0
15.01.2021	00:28:45	0	0	3,163646	2,43225	50,3028	-0,426	77,521	0	1007,96	5,7	7,8	7,7	1	1	1	1	1	1	1	1	1	0	1	-66,666667	273,256169	249,46133	0
15.01.2021	00:28:46	0	0	4,519521	2,5485	55,5624	-0,426	77,524	0	1008	5,7	7,8	7,6	1	1	1	1	1	1	1	1	1	0	1	-70,824524	273,147927	244,802871	0
15.01.2021	00:28:47	0	0	2,937689	2,55825	57,0348	-0,431	77,507	0	1007,7	5,7	7,8	7,6	1	1	1	1	1	1	1	1	1	0	1	-66,878083	273,184888	248,920186	0
15.01.2021	00:28:48	0	0	4,745497	2,49375	50,3064	-0,43	77,515	0	1007,86	5,7	7,8	7,6	1	1	1	1	1	1	1	1	1	0	1	-69,556025	273,160713	246,130474	0
15.01.2021	00:28:49	0	0	4,406533	2,5065	57,4308	-0,434	77,493	0	1007,82	5,7	7,8	7,6	1	1	1	1	1	1	1	1	1	0	1	-64,693446	273,332016	251,785687	0
15.01.2021	00:28:50	0	0	4,858485	2,60775	52,8912	-0,428	77,486	0	1007,88	5,7	7,8	7,6	1	1	1	1	1	1	1	1	1	0	1	-65,116279	273,201971	250,760989	0
15.01.2021	00:28:51	0	0	3,954581	2,6895	44,046	-0,427	77,492	0	1007,98	5,7	7,8	7,6	1	1	1	1	1	1	1	1	1	0	1	-70,472163	273,15645	245,194629	0
15.01.2021	00:28:52	0	0	2,937689	2,739	51,0552	-0,43	77,475	0	1007,96	5,7	7,8	7,6	1	1	1	1	1	1	1	1	1	0	1	-69,626498	273,189157	246,191513	0
15.01.2021	00:28:53	0	0	4,406533	2,5935	46,5948	-0,426	77,474	0	1007,88	5,7	7,8	7,6	1	1	1	1	1	1	1	1	1	0	1	-65,116279	273,319116	251,303108	0
15.01.2021	00:28:54	0	0	2,711713	2,535	48,8196	-0,431	77,465	0	1007,86	5,7	7,8	7,6	1	1	1	1	1	1	1	1	1	0	1	-67,230444	273,290478	249,056349	0
15.01.2021	00:28:55	0	0	4,519521	2,52075	44,3988	-0,425	77,469	0	1007,86	5,7	7,8	7,6	1	1	1	1	1	1	1	1	1	0	1	-70,965469	273,327715	245,493744	0
15.01.2021	00:28:56	0	0	2,598725	2,418	50,6772	-0,424	77,453	0	1007,88	5,7	7,8	7,6	1	1	1	1	1	1	1	1	1	0	1	-68,780832	273,213369	247,14915	0
15.01.2021	00:28:57	0	0	4,406533	2,37675	60,2388	-0,43	77,448	0	1008	5,7	7,8	7,6	1	1	1	1	1	1	1	1	1	0	1	-71,247357	273,31625	245,15876	0
15.01.2021	00:28:58	0	0	3,050677	2,4015	51,0768	-0,428	77,434	0	1007,82	5,7	7,8	7,6	1	1	1	1	1	1	1	1	1	0	1	-64,904863	273,206245	250,992169	0
15.01.2021	00:28:59	0	0	3,389641	2,38125	43,6464	-0,428	77,417	0	1008,02	5,7	7,8	7,6	1	1	1	1	1	1	1	1	1	0	1	-66,525722	273,300496	249,807452	0
15.01.2021	00:29:00	0	0	2,485736	2,37225	38,8044	-0,435	77,384	0	1007,96	5,7	7,8	7,6	1	1	1	1	1	1	1	1	1	0	1	-71,106413	273,321982	245,326247	0
15.01.2021	00:29:01	0	0	3,954581	2,337	38,8152	-0,429	77,393	0	1007,72	5,7	7,8	7,6	1	1	1	1	1	1	1	1	1	0	1	-69,626498	273,294771	246,68017	0
15.01.2021	00:29:02	0	0	3,954581	2,337	38,8152	-0,429	77,393	0	1007,72	5,7	7,8	7,6	1	1	1	1	1	1	1	1	1	0	1	-69,626498	273,294771	246,68017	0
15.01.2021	00:29:03	0	0	3,389641	2,4645	31,0356	-0,425	77,385	0	1007,94	5,7	7,8	7,6	1	1	1	1	1	1	1	1	1	0	1	-68,428471	273,18062	247,350062	0
15.01.2021	00:29:04	0	0	4,858485	2,721	39,186	-0,43	77,383	0	1007,9	5,7	7,8	7,6	1	1	1	1	1	1	1	1	1	0	1	-73,150106	273,314817	243,249377	0
15.01.2021	00:29:05	0	0	5,084461	2,835	54,4968	-0,427	77,368	0	1008,08	5,7	7,8	7,6	1	1	1	1	1	1	1	1	1	0	1	-66,102889	273,286186	250,164036	0
15.01.2021	00:29:06	0	0	4,406533	2,775	54,8136	-0,429	77,362	0	1008	5,7	7,8	7,6	1	1	1	1	1	1	1	1	1	0	1	-72,30444	273,157871	243,368921	0
15.01.2021	00:29:07	0	0	2,485736	2,604	62,0424	-0,434	77,349	0	1008	5,7	7,8	7,6	1	1	1	1	1	1	1	1	1	0	1	-68,005638	273,17493	247,746588	0
15.01.2021	00:29:08	0	0	2,824701	2,5365	43,3044	-0,432	77,334	0	1008,02	5,7	7,8	7,6	1	1	1	1	1	1	1	1	1	0	1	-70,331219	273,172086	245,407856	0
15.01.2021	00:29:09	0	0	2,25976	2,58	64,6488	-0,427	77,322	0	1007,9	5,7	7,8	7,6	1	1	1	1	1	1	1	1	1	0	1	-69,133192	273,306223	247,226498	0
15.01.2021	00:29:10	0	0	4,632481	2,634	58,4856	-0,432	77,305	0	1008,06	5,7	7,8	7,7	1	1	1	1	1	1	1	1	1	0	1	-70,542636	273,251884	245,565535	0
15.01.2021	00:29:11	0	0	4,745497	2,70075	69,2604	-0,432	77,294	0	1008,02	5,7	7,8	7,6	1	1	1	1	1	1	1	1	1	0	1	-71,106413	273,313385	245,286436	0
15.01.2021	00:29:12	0	0	3,050677	2,5785	31,0212	-0,431	77,284	0	1008,14	5,7	7,8	7,6	1	1	1	1	1	1	1	1	1	0	1	-70,965469	273,182042	244,819642	0
15.01.2021	00:29:13	0	0	4,632509	2,8425	44,4024	-0,431	77,269	0	1008,16	5,7	7,8	7,6	1	1	1	1	1	1	1	1	1	0	1	-70,68358	273,126635	244,845416	0
15.01.2021	00:29:14	0	0	3,728605	3,123	49,2048	-0,437	77,261	0	1007,88	5,7	7,8	7,6	1	1	1	1	1	1	1	1	1	0	1	-71,317829	273,277605	244,909375	0
15.01.2021	00:29:15	0	0	3,615617	3,16725	57,4128	-0,436	77,261	0	1008,16	5,7	7,8	7,6	1	1	1	1	1	1	1	1	1	0	1	-65,750529	273,244746	250,324612	0
15.01.2021	00:29:16	0	0	4,971473	2,946	44,0424	-0,43	77,259	0	1007,84	5,7	7,8	7,6	1	1	1	1	1	1	1	1	1	0	1	-65,257223	273,307655	251,109098	0
15.01.2021	00:29:17	0	0	3,728605	2,94525	45,1584	-0,436	77,234	0	1008,02	5,7	7,8	7,6	1	1	1	1	1	1	1	1	1	0	1	-69,837914	273,13231	245,717309	0
15.01.2021	00:29:18	0	0	3,163665	3,0855	47,3796	-0,441	77,248	0	1007,8	5,7	7,8	7,6	1	1	1	1	1	1	1	1	1	0	1	-66,173362	273,150767	249,467164	0
15.01.2021	00:29:19	0	0	5,197449	2,919	49,0932	-0,44	77,241	0	1007,76	5,7	7,8	7,6	1	1	1	1	1	1	1	1	1	0	1	-68,287526	273,301928	248,052276	0
15.01.2021	00:29:20	0	0	4,067569	2,9175	45,5076	-0,43	77,249	0	1007,96	5,7	7,8	7,6	1	1	1	1	1	1	1	1	1	0	1	-66,948555	273,163555	248,751084	0
15.01.2021	00:29:21	0	0	4,519521	2,92725	49,9608	-0,433	77,274	0	1008,08	5,7	7,8	7,6	1	1	1	1	1	1	1	1	1	0	1	-69,767442	273,290478	246,519352	0
15.01.2021	00:29:22	0	0	2,485736	3,00225	44,7984	-0,435	77,302	0	1007,84	5,7	7,8	7,6	1	1	1	1	1	1	1	1	1	0	1	-72,797745	273,296202	243,515548	0
15.01.2021	00:29:23	0	0	2,598725	3,0165	65,0988	-0,436	77,323	0	1007,9	5,7	7,8	7,6	1	1	1	1	1	1	1	1	1	0	1	-71,035941	273,213369	244,894041	0
15.01.2021	00:29:24	0	0	4,858485	2,96625	36,6228	-0,444	77,347	0	1007,92	5,7	7,8	7,6	1	1	1	1	1	1	1	1	1	0	1	-67,0895	273,291909	249,203918	0
15.01.2021	00:29:25	0	0	3,163665	3,02775	62,4168	-0,435	77,366	0	1008,02	5,7	7,8	7,6	1	1	1	1	1	1	1	1	1	0	1	-68,710359	273,152188	246,936732	0
15.01.2021	00:29:26	0	0	2,711713	2,67225	49,5684	-0,436	77,374	0	1007,84	5,7	7,8	7,6	1	1	1	1	1	1	1	1	1	0	1	-65,257223	273,21907	250,69913	0
15.01.2021	00:29:27	0	0	4,745468	2,3985	56,6784	-0,438	77,419	0	1007,98	5,7	7,8	7,7	1	1	1	1	1	1	1	1	1	0	1	-70,824524	273,304791	245,528536	0
15.01.2021	00:29:28	0	0	4,971473	2,241	37,6848	-0,431	77,437	0	1007,86	5,7	7,8	7,6	1	1	1	1	1	1	1	1	1	0	1	-69,626498	273,257597	246,508108	0
15.01.2021	00:29:29	0	0	2,824701	2,00175	74,1528	-0,435	77,451	0	1007,74	5,7	7,8	7,6	1	1	1	1	1	1	1	1	1	0	1	-69,344609	273,303359	247,001822	0
15.01.2021	00:29:30	0	0	4,858456	1,971	68,778	-0,434	77,491	0	1007,82	5,7	7,8	7,7	1	1	1	1	1	1	1	1	1	0	1	-71,317829	273,244746	244,757311	0
15.01.2021	00:29:31	0	0	4,406533	2,18325	58,4964	-0,435	77,504	0	1008,06	5,7	7,8	7,6	1	1	1	1	1	1	1	1	1	0	1	-69,556025	273,289047	246,724145	0
15.01.2021	00:29:32	0	0	3,389641	2,595	74,5272	-0,43	77,517	0	1007,7	5,7	7,8	7,6	1	1	1	1	1	1	1	1	1	0	1	-64,200141	273,170664	251,53236	0
15.01.2021	00:29:33	0	0	4,180557	2,92575	59,8536	-0,432	77,522	0	1008,08	5,7	7,8	7,6	1	1	1	1	1	1	1	1	1	0	1	-69,485553	273,229051	246,516972	0
15.01.2021	00:29:34	0	0	4,293545	3,42525	66,9168	-0,44	77,527	0	1007,92	5,7	7,8	7,6	1	1	1	1	1	1	1	1	1	0	1	-66,314306	273,13373	249,247475	0
15.01.2021	00:29:35	0	0	3,728605	3,672	74,1852	-0,44	77,517	0	1007,92	5,7	7,8	7,6	1	1	1	1	1	1	1	1	1	0	1	-68,357999	273,164977	247,348212	0
15.01.2021	00:29:36	0	0	3,050677	3,633	81,9648	-0,436	77,517	0	1008	5,7	7,8	7,6	1	1	1	1	1	1	1	1	1	0	1	-67,019027	273,192004	248,812148	0
15.01.2021	00:29:37	0	0	2,937689	3,42375	80,1468	-0,435	77,488	0	1007,82	5,7	7,8	7,6	1	1	1	1	1	1	1	1	1	0	1	-70,824524	273,300496	245,50865	0
15.01.2021	00:29:38	0	0	4,858485	3,37275	84,0312	-0,445	77,488	0	1007,94	5,7	7,8	7,6	1	1	1	1	1	1	1	1	1	0	1	-64,904863	273,297633	251,415057	0
15.01.2021	00:29:39	0	0	3,050677	3,5505	76,8168	-0,444	77,46	0	1007,94	5,7	7,8	7,6	1	1	1	1	1	1	1	1	1	0	1	-66,807611	273,243319	249,260925	0
15.01.2021	00:29:40	0	0	2,25976	3,7635	92,6676	-0,436	77,465	0	1007,9	5,7	7,8	7,6	1	1	1	1	1	1	1	1	1	0	1	-75,546159	273,306223	240,813531	0
15.01.2021	00:29:41	0	0	4,180557	4,086	84,8088	-0,441	77,425	0	1007,94	5,7	7,8	7,6	1	1	1	1	1	1	1	1	1	0	1	-64,200141	273,224773	251,782593	0
15.01.2021	00:29:42	0	0	4,067569	4,13925	84,4632	-0,442	77,431	0	1007,84	5,7	7,8	7,6	1	1	1	1	1	1	1	1	1	0	1	-66,878083	273,311952	249,508133	0
15.01.2021	00:29:43	0	0	3,050677	3,96675	78,6492	-0,438	77,408	0	1007,72	5,7	7,8	7,6	1	1	1	1	1	1	1	1	1	0	1	-71,035941	273,246173	245,045804	0
15.01.2021	00:29:44	0	0	5,197449	3,5385	90,7956	-0,44	77,408	0	1007,88	5,7	7,8	7,6	1	1	1	1	1	1	1	1	1	0	1	-69,978858	273,303359	246,367573	0
15.01.2021	00:29:45	0	0	2,711713	3,22875	95,1552	-0,434	77,443	0	1008,04	5,7	7,8	7,6	1	1	1	1	1	1	1	1	1	0	1	-67,935166	273,244746	248,139974	0
15.01.2021	00:29:46	0	0	2,598725	2,934	88,1172	-0,443	77,438	0	1007,86	5,7	7,8	7,6	1	1	1	1	1	1	1	1	1	0	1	-66,314306	273,309087	250,058646	0
15.01.2021	00:29:47	0	0	3,615617	2,62875	70,2324	-0,436	77,428	0	1008,08	5,7	7,8	7,6	1	1	1	1	1	1	1	1	1	0	1	-65,961945	273,197699	249,895566	0
15.01.2021	00:29:48	0	0	4,519521	2,562	80,5356	-0,436	77,441	0	1007,78	5,7	7,8	7,6	1	1	1	1	1	1	1	1	1	0	1	-67,0895	273,136568	248,4854	0
15.01.2021	00:29:49	0	0	3,050677	2,52	72,3024	-0,436	77,449	0	1007,98	5,7	7,8	7,6	1	1	1	1	1	1	1	1	1	0	1	-64,693446	273,149347	250,940514	0
15.01.2021	00:29:50	0	0	5,084431	2,559	85,5288	-0,439	77,438	0	1007,9	5,7	7,8	7,7	1	1	1	1	1	1	1	1	1	0	1	-63,706836	273,192004	252,124339	0
15.01.2021	00:29:51	0	0	3,841593	2,58525	61,2972	-0,436	77,446	0	1007,92	5,7	7,8	7,6	1	1	1	1	1	1	1	1	1	0	1	-70,542636	273,299065	245,783911	0
15.01.2021	00:29:52	0	0	2,937689	2,5935	81,3024	-0,438	77,437	0	1007,94	5,7	7,8	7,6	1	1	1	1	1	1	1	1	1	0	1	-69,485553	273,261883	246,668885	0
15.01.2021	00:29:53	0	0	4,632509	2,47725	74,9268	-0,437	77,413	0	1007,82	5,7	7,8	7,6	1	1	1	1	1	1	1	1	1	0	1	-68,780832	273,294771	247,525836	0
15.01.2021	00:29:54	0	0	4,971473	2,319	63,4932	-0,43	77,414	0	1007,92	5,7	7,8	7,6	1	1	1	1	1	1	1	1	1	0	1	-73,572939	273,190581	242,251654	0
15.01.2021	00:29:55	0	0	4,519521	2,20125	36,2304	-0,434	77,399	0	1008,02	5,7	7,8	7,6	1	1	1	1	1	1	1	1	1	0	1	-72,586328	273,291909	243,707089	0
15.01.2021	00:29:56	0	0	4,519521	2,2575	69,858	-0,442	77,395	0	1007,98	5,7	7,8	7,6	1	1	1	1	1	1	1	1	1	0	1	-72,515856	273,267598	243,665034	0
15.01.2021	00:29:57	0	0	3,276653	2,373	57,7404	-0,437	77,385	0	1007,92	5,7	7,8	7,6	1	1	1	1	1	1	1	1	1	0	1	-66,45525	273,243319	249,613286	0
15.01.2021	00:29:58	0	0	4,067569	2,5635	56,6748	-0,435	77,366	0	1007,96	5,7	7,8	7,6	1	1	1	1	1	1	1	1	1	0	1	-66,948555	273,129473	248,593553	0
15.01.2021	00:29:59	0	0	4,858485	2,86425	49,9464	-0,434	77,344	0	1007,9	5,7	7,8	7,6	1	1	1	1	1	1	1	1	1	0	1	-62,156448	273,236183	253,879075	0
15.01.2021	00:30:00	0	0	4,067569	2,8365	64,6632	-0,437	77,327	0	1008	5,7	7,8	7,6	1	1	1	1	1	1	1	1	1	0	1	-73,502467	273,266169	242,67181	0
15.01.2021	00:30:01	0	0	3,163665	2,739	49,6836	-0,418	77,317	0	1008,16	5,7	7,8	7,6	1	1	1	1	1	1	1	1	1	0	1	-68,146582	273,12238	247,36275	0
15.01.2021	00:30:02	0	0	3,163665	2,739	49,6836	-0,418	77,317	0	1008,16	5,7	7,8	7,6	1	1	1	1	1	1	1	1	1	0	1	-68,146582	273,12238	247,36275	0
15.01.2021	00:30:03	0	0	2,598725	2,6235	41,094	-0,439	77,278	0	1008,1	5,7	7,8	7,6	1	1	1	1	1	1	1	1	1	0	1	-65,680056	273,297633	250,639863	0
15.01.2021	00:30:04	0	0	3,163665	2,5395	58,5072	-0,441	77,258	0	1007,92	5,7	7,8	7,6	1	1	1	1	1	1	1	1	1	0	1	-68,569415	273,291909	247,724002	0
15.01.2021	00:30:05	0	0	3,276653	2,47875	63,8532	-0,445	77,266	0	1007,92	5,7	7,8	7,6	1	1	1	1	1	1	1	1	1	0	1	-68,287526	273,286186	247,979399	0
15.01.2021	00:30:06	0	0	4,406533	2,37825	66,9168	-0,445	77,243	0	1007,78	5,7	7,8	7,6	1	1	1	1	1	1	1	1	1	0	1	-70,613108	273,216219	245,330059	0
15.01.2021	00:30:07	0	0	4,745497	2,52825	60,5448	-0,435	77,239	0	1007,96	5,7	7,8	7,6	1	1	1	1	1	1	1	1	1	0	1	-69,203665	273,301928	247,136138	0
15.01.2021	00:30:08	0	0	4,858485	2,5395	51,4368	-0,44	77,239	0	1008,1	5,7	7,8	7,6	1	1	1	1	1	1	1	1	1	0	1	-71,388302	273,16782	244,331053	0
15.01.2021	00:30:09	0	0	2,937689	2,58825	59,5224	-0,438	77,227	0	1007,92	5,7	7,8	7,6	1	1	1	1	1	1	1	1	1	0	1	-65,257223	273,152188	250,389868	0
15.01.2021	00:30:10	0	0	3,050677	2,7	50,3964	-0,438	77,222	0	1007,92	5,7	7,8	7,6	1	1	1	1	1	1	1	1	1	0	1	-70,331219	273,115289	245,145351	0
15.01.2021	00:30:11	0	0	3,954581	2,82975	53,352	-0,439	77,205	0	1007,98	5,7	7,8	7,6	1	1	1	1	1	1	1	1	1	0	1	-70,190275	273,20482	245,700168	0
15.01.2021	00:30:12	0	0	2,485722	2,89575	59,4972	-0,438	77,194	0	1007,96	5,7	7,8	7,7	1	1	1	1	1	1	1	1	1	0	1	-72,868217	273,304791	243,484843	0
15.01.2021	00:30:13	0	0	5,084461	3,03075	67,6944	-0,438	77,187	0	1007,9	5,7	7,8	7,6	1	1	1	1	1	1	1	1	1	0	1	-71,035941	273,261883	245,118498	0
15.01.2021	00:30:14	0	0	3,050677	3,02025	69,498	-0,44	77,177	0	1007,9	5,7	7,8	7,6	1	1	1	1	1	1	1	1	1	0	1	-62,86117	273,256169	253,266826	0
15.01.2021	00:30:15	0	0	2,937689	3,018	60,246	-0,438	77,194	0	1007,86	5,7	7,8	7,6	1	1	1	1	1	1	1	1	1	0	1	-67,582805	273,111036	247,874115	0
15.01.2021	00:30:16	0	0	4,632509	2,84475	54,7884	-0,44	77,181	0	1007,88	5,7	7,8	7,6	1	1	1	1	1	1	1	1	1	0	1	-69,837914	273,289047	246,442256	0
15.01.2021	00:30:17	0	0	4,971473	2,685	44,7876	-0,442	77,187	0	1008,12	5,7	7,8	7,6	1	1	1	1	1	1	1	1	1	0	1	-66,807611	273,280465	249,432831	0
15.01.2021	00:30:18	0	0	4,971443	2,637	45,846	-0,446	77,167	0	1007,92	5,7	7,8	7,7	1	1	1	1	1	1	1	1	1	0	1	-70,894996	273,17493	244,857229	0
15.01.2021	00:30:19	0	0	4,293519	2,57025	49,5756	-0,445	77,176	0	1007,84	5,7	7,8	7,7	1	1	1	1	1	1	1	1	1	0	1	-65,46864	273,304791	250,884421	0
15.01.2021	00:30:20	0	0	4,519494	2,55	46,6128	-0,445	77,168	0	1007,8	5,7	7,8	7,7	1	1	1	1	1	1	1	1	1	0	1	-69,203665	273,157871	246,469696	0
15.01.2021	00:30:21	0	0	4,180532	2,46825	51,0588	-0,437	77,182	0	1007,94	5,7	7,8	7,7	1	1	1	1	1	1	1	1	1	0	1	-65,821001	273,296202	250,492292	0
15.01.2021	00:30:22	0	0	4,519521	2,73975	44,0532	-0,44	77,181	0	1008	5,7	7,8	7,6	1	1	1	1	1	1	1	1	1	0	1	-68,287526	273,177775	247,477851	0
15.01.2021	00:30:23	0	0	4,406506	2,97825	43,2972	-0,447	77,196	0	1007,84	5,7	7,8	7,7	1	1	1	1	1	1	1	1	1	0	1	-67,159972	273,12238	248,34936	0
15.01.2021	00:30:24	0	0	3,841593	2,95125	50,6808	-0,449	77,188	0	1007,86	5,7	7,8	7,6	1	1	1	1	1	1	1	1	1	0	1	-65,116279	273,256169	251,011717	0
15.01.2021	00:30:25	0	0	3,276653	2,8575	38,4084	-0,447	77,216	0	1007,98	5,7	7,8	7,6	1	1	1	1	1	1	1	1	1	0	1	-66,314306	273,296202	249,998987	0
15.01.2021	00:30:26	0	0	5,084461	2,868	31,7736	-0,445	77,198	0	1007,98	5,7	7,8	7,6	1	1	1	1	1	1	1	1	1	0	1	-67,019027	273,186311	248,785822	0
15.01.2021	00:30:27	0	0	5,084461	2,9955	36,2412	-0,453	77,206	0	1007,88	5,7	7,8	7,6	1	1	1	1	1	1	1	1	1	0	1	-69,69697	273,289047	246,5832	0
15.01.2021	00:30:28	0	0	3,728605	3,2415	43,6536	-0,452	77,194	0	1007,92	5,7	7,8	7,6	1	1	1	1	1	1	1	1	1	0	1	-67,512333	273,142247	248,08881	0
15.01.2021	00:30:29	0	0	2,937689	3,1725	34,7148	-0,454	77,205	0	1007,9	5,7	7,8	7,6	1	1	1	1	1	1	1	1	1	0	1	-68,217054	273,182042	247,568057	0
15.01.2021	00:30:30	0	0	4,180557	3,135	40,248	-0,449	77,212	0	1007,92	5,7	7,8	7,6	1	1	1	1	1	1	1	1	1	0	1	-70,542636	273,296202	245,770657	0
15.01.2021	00:30:31	0	0	3,615595	3,3795	54,4716	-0,452	77,213	0	1007,92	5,7	7,8	7,7	1	1	1	1	1	1	1	1	1	0	1	-64,270613	273,140827	251,323968	0
15.01.2021	00:30:32	0	0	5,084461	3,96675	52,1244	-0,445	77,221	0	1007,84	5,7	7,8	7,6	1	1	1	1	1	1	1	1	1	0	1	-65,609584	273,187734	250,201846	0
15.01.2021	00:30:33	0	0	2,937689	4,3755	62,4168	-0,448	77,217	0	1008,06	5,7	7,8	7,6	1	1	1	1	1	1	1	1	1	0	1	-66,102889	273,297633	250,21703	0
15.01.2021	00:30:34	0	0	4,858485	4,94025	64,2312	-0,45	77,212	0	1008	5,7	7,8	7,6	1	1	1	1	1	1	1	1	1	0	1	-68,569415	273,244746	247,505725	0
15.01.2021	00:30:35	0	0	2,937689	5,637	72,6732	-0,453	77,214	0	1007,92	5,7	7,8	7,6	1	1	1	1	1	1	1	1	1	0	1	-68,992248	273,217644	246,957511	0
15.01.2021	00:30:36	0	0	3,502629	5,59275	56,7756	-0,45	77,205	0	1008,1	5,7	7,8	7,6	1	1	1	1	1	1	1	1	1	0	1	-66,525722	273,294771	249,780945	0
15.01.2021	00:30:37	0	0	4,180557	5,49375	63,1692	-0,45	77,194	0	1008	5,7	7,8	7,6	1	1	1	1	1	1	1	1	1	0	1	-63,777308	273,169242	251,94862	0
15.01.2021	00:30:38	0	0	4,180557	5,2755	62,046	-0,451	77,197	0	1007,98	5,7	7,8	7,6	1	1	1	1	1	1	1	1	1	0	1	-69,133192	273,281895	247,113869	0
15.01.2021	00:30:39	0	0	2,485736	4,965	35,1072	-0,452	77,19	0	1007,86	5,6	7,8	7,6	1	1	1	1	1	1	1	1	1	0	1	-68,217054	273,115289	247,259516	0
15.01.2021	00:30:40	0	0	4,406533	4,52625	29,9628	-0,451	77,174	0	1007,94	5,7	7,8	7,6	1	1	1	1	1	1	1	1	1	0	1	-69,978858	273,118125	245,510815	0
15.01.2021	00:30:41	0	0	3,389641	4,14	61,308	-0,46	77,176	0	1007,76	5,7	7,8	7,6	1	1	1	1	1	1	1	1	1	0	1	-66,948555	273,190581	248,876037	0
15.01.2021	00:30:42	0	0	4,293545	3,6675	73,044	-0,453	77,186	0	1007,86	5,6	7,8	7,6	1	1	1	1	1	1	1	1	1	0	1	-72,656801	273,118125	242,832872	0
15.01.2021	00:30:43	0	0	3,728605	3,61875	62,802	-0,46	77,172	0	1007,74	5,7	7,8	7,6	1	1	1	1	1	1	1	1	1	0	1	-63,213531	273,13373	252,34825	0
15.01.2021	00:30:44	0	0	4,858485	3,31875	60,57	-0,458	77,181	0	1008,02	5,6	7,8	7,6	1	1	1	1	1	1	1	1	1	0	1	-71,67019	273,125216	243,85225	0
15.01.2021	00:30:45	0	0	2,598725	2,92575	54,108	-0,457	77,179	0	1008,16	5,7	7,8	7,6	1	1	1	1	1	1	1	1	1	0	1	-69,767442	273,271886	246,433294	0
15.01.2021	00:30:46	0	0	3,954581	2,9895	36,6408	-0,458	77,187	0	1008,02	5,7	7,8	7,6	1	1	1	1	1	1	1	1	1	0	1	-73,009161	273,227625	242,986766	0
15.01.2021	00:30:47	0	0	3,389641	3,5295	53,7408	-0,456	77,183	0	1008,18	5,7	7,8	7,6	1	1	1	1	1	1	1	1	1	0	1	-67,864693	273,105367	247,566035	0
15.01.2021	00:30:48	0	0	3,163665	3,8625	69,1632	-0,463	77,197	0	1008	5,7	7,8	7,6	1	1	1	1	1	1	1	1	1	0	1	-66,314306	273,224773	249,668428	0
15.01.2021	00:30:49	0	0	4,067569	3,83025	66,5316	-0,468	77,187	0	1007,76	5,7	7,8	7,6	1	1	1	1	1	1	1	1	1	0	1	-68,07611	273,267598	248,10478	0
15.01.2021	00:30:50	0	0	5,084461	3,831	71,9856	-0,456	77,206	0	1007,84	5,7	7,8	7,6	1	1	1	1	1	1	1	1	1	0	1	-69,978858	273,216219	245,964308	0
15.01.2021	00:30:51	0	0	2,824701	3,66525	58,1256	-0,462	77,2	0	1008,16	5,7	7,8	7,6	1	1	1	1	1	1	1	1	1	0	1	-67,512333	273,115289	247,964237	0
15.01.2021	00:30:52	0	0	4,971473	3,5295	46,5984	-0,463	77,207	0	1007,88	5,7	7,8	7,6	1	1	1	1	1	1	1	1	1	0	1	-71,106413	273,256169	245,021583	0
15.01.2021	00:30:53	0	0	2,711713	3,73125	65,8584	-0,462	77,204	0	1008,04	5,7	7,8	7,6	1	1	1	1	1	1	1	1	1	0	1	-70,68358	273,246173	245,398165	0
15.01.2021	00:30:54	0	0	3,954581	3,92625	57,8232	-0,464	77,211	0	1008,02	5,7	7,8	7,6	1	1	1	1	1	1	1	1	1	0	1	-63,918252	273,281895	252,32881	0
15.01.2021	00:30:55	0	0	3,163665	4,5825	58,8672	-0,461	77,225	0	1008,14	5,7	7,8	7,6	1	1	1	1	1	1	1	1	1	0	1	-70,401691	273,142247	245,199451	0
15.01.2021	00:30:56	0	0	4,858485	4,63275	56,2968	-0,469	77,237	0	1008	5,7	7,8	7,6	1	1	1	1	1	1	1	1	1	0	1	-63,777308	273,112454	251,686162	0
15.01.2021	00:30:57	0	0	3,954581	4,59675	54,0864	-0,461	77,242	0	1007,84	5,7	7,8	7,6	1	1	1	1	1	1	1	1	1	0	1	-71,247357	273,231904	244,768365	0
15.01.2021	00:30:58	0	0	3,841593	4,308	59,5008	-0,461	77,267	0	1008,12	5,7	7,8	7,6	1	1	1	1	1	1	1	1	1	0	1	-66,314306	273,221921	249,655236	0
15.01.2021	00:30:59	0	0	3,84157	4,0875	51,0804	-0,466	77,278	0	1007,98	5,7	7,8	7,7	1	1	1	1	1	1	1	1	1	0	1	-66,878083	273,280465	249,362359	0
15.01.2021	00:31:00	0	0	3,615617	4,5765	56,6712	-0,467	77,313	0	1008	5,7	7,8	7,6	1	1	1	1	1	1	1	1	1	0	1	-65,045807	273,253312	251,068972	0
15.01.2021	00:31:01	0	0	4,519521	4,58325	55,5588	-0,464	77,317	0	1008,1	5,7	7,8	7,6	1	1	1	1	1	1	1	1	1	0	1	-67,44186	273,276175	248,778726	0
15.01.2021	00:31:02	0	0	4,519521	4,58325	55,5588	-0,464	77,317	0	1008,1	5,7	7,8	7,6	1	1	1	1	1	1	1	1	1	0	1	-67,44186	273,276175	248,778726	0
15.01.2021	00:31:03	0	0	4,858485	4,67175	59,886	-0,462	77,343	0	1007,96	5,7	7,8	7,6	1	1	1	1	1	1	1	1	1	0	1	-70,894996	273,213369	245,034986	0
15.01.2021	00:31:04	0	0	2,937689	4,61025	67,68	-0,463	77,345	0	1008,1	5,6	7,8	7,6	1	1	1	1	1	1	1	1	1	0	1	-68,569415	273,102533	246,848221	0
15.01.2021	00:31:05	0	0	4,067569	4,284	68,778	-0,466	77,353	0	1008,06	5,7	7,8	7,6	1	1	1	1	1	1	1	1	1	0	1	-70,754052	273,267598	245,426838	0
15.01.2021	00:31:06	0	0	3,276633	4,29525	62,4384	-0,46	77,369	0	1007,88	5,7	7,8	7,7	1	1	1	1	1	1	1	1	1	0	1	-68,005638	273,223347	247,9705	0
15.01.2021	00:31:07	0	0	4,519521	4,53675	60,9408	-0,46	77,369	0	1007,9	5,7	7,8	7,6	1	1	1	1	1	1	1	1	1	0	1	-70,542636	273,287616	245,730912	0
15.01.2021	00:31:08	0	0	5,084461	4,52625	52,8876	-0,465	77,376	0	1007,82	5,7	7,8	7,6	1	1	1	1	1	1	1	1	1	0	1	-66,807611	273,23761	249,234513	0
15.01.2021	00:31:09	0	0	3,502629	4,63875	48,8304	-0,465	77,372	0	1008,08	5,7	7,8	7,6	1	1	1	1	1	1	1	1	1	0	1	-66,314306	273,101116	249,096785	0
15.01.2021	00:31:10	0	0	4,745497	4,701	54,81	-0,469	77,378	0	1007,98	5,7	7,8	7,6	1	1	1	1	1	1	1	1	1	0	1	-70,049331	273,249029	246,045626	0
15.01.2021	00:31:11	0	0	3,502629	4,60875	59,8608	-0,467	77,369	0	1007,98	5,7	7,8	7,6	1	1	1	1	1	1	1	1	1	0	1	-68,005638	273,115289	247,470932	0
15.01.2021	00:31:12	0	0	4,519494	4,5705	62,7768	-0,465	77,379	0	1007,96	5,7	7,8	7,7	1	1	1	1	1	1	1	1	1	0	1	-74,207188	273,283325	242,046494	0
15.01.2021	00:31:13	0	0	4,519521	4,81875	58,5144	-0,466	77,377	0	1007,94	5,7	7,9	7,6	1	1	1	1	1	1	1	1	1	0	1	-69,203665	273,263311	246,957386	0
15.01.2021	00:31:14	0	0	2,598725	4,8495	55,9368	-0,467	77,415	0	1008,22	5,7	7,8	7,6	1	1	1	1	1	1	1	1	1	0	1	-66,45525	273,137988	249,126209	0
15.01.2021	00:31:15	0	0	4,971473	4,692	60,2496	-0,461	77,407	0	1008,06	5,7	7,8	7,6	1	1	1	1	1	1	1	1	1	0	1	-67,371388	273,163555	248,328251	0
15.01.2021	00:31:16	0	0	3,502629	4,77525	52,1316	-0,465	77,408	0	1008	5,6	7,8	7,6	1	1	1	1	1	1	1	1	1	0	1	-65,539112	273,29334	250,76093	0
15.01.2021	00:31:17	0	0	4,632509	4,86	47,7576	-0,47	77,403	0	1007,86	5,7	7,8	7,6	1	1	1	1	1	1	1	1	1	0	1	-68,921776	273,266169	247,252501	0
15.01.2021	00:31:18	0	0	3,502629	5,118	54,8028	-0,464	77,414	0	1008,08	5,7	7,8	7,6	1	1	1	1	1	1	1	1	1	0	1	-66,525722	273,176352	249,233079	0
15.01.2021	00:31:19	0	0	3,502608	5,2545	50,3172	-0,466	77,425	0	1007,86	5,7	7,8	7,7	1	1	1	1	1	1	1	1	1	0	1	-69,837914	273,115289	245,638656	0
15.01.2021	00:31:20	0	0	4,632481	5,24925	48,1284	-0,469	77,461	0	1007,92	5,7	7,8	7,7	1	1	1	1	1	1	1	1	1	0	1	-69,69697	273,229051	246,305555	0
15.01.2021	00:31:21	0	0	2,711713	5,1525	54,1152	-0,467	77,487	0	1007,98	5,7	7,8	7,6	1	1	1	1	1	1	1	1	1	0	1	-70,331219	273,277605	245,895985	0
15.01.2021	00:31:22	0	0	2,711713	4,84575	53,3628	-0,461	77,503	0	1007,94	5,7	7,8	7,6	1	1	1	1	1	1	1	1	1	0	1	-65,327696	273,279035	250,906127	0
15.01.2021	00:31:23	0	0	5,084461	4,383	48,5064	-0,466	77,525	0	1008,02	5,7	7,8	7,6	1	1	1	1	1	1	1	1	1	0	1	-72,797745	273,217644	243,152014	0
15.01.2021	00:31:24	0	0	4,519521	4,128	48,5028	-0,464	77,551	0	1008	5,7	7,8	7,6	1	1	1	1	1	1	1	1	1	0	1	-68,569415	273,137988	247,012044	0
15.01.2021	00:31:25	0	0	2,711713	3,89325	52,0956	-0,46	77,574	0	1007,98	5,7	7,8	7,6	1	1	1	1	1	1	1	1	1	0	1	-68,569415	273,125216	246,953026	0
15.01.2021	00:31:26	0	0	4,406533	3,71325	59,0796	-0,462	77,582	0	1008,02	5,7	7,8	7,6	1	1	1	1	1	1	1	1	1	0	1	-70,472163	273,229051	245,530362	0
15.01.2021	00:31:27	0	0	2,937689	3,66375	60,246	-0,466	77,659	0	1008	5,7	7,8	7,6	1	1	1	1	1	1	1	1	1	0	1	-74,348132	273,287616	241,925415	0
15.01.2021	00:31:28	0	0	4,519521	3,6435	68,0292	-0,461	77,605	0	1007,88	5,7	7,8	7,6	1	1	1	1	1	1	1	1	1	0	1	-69,133192	273,307655	247,233129	0
15.01.2021	00:31:29	0	0	2,598725	3,56325	63,8712	-0,466	77,622	0	1007,9	5,7	7,8	7,6	1	1	1	1	1	1	1	1	1	0	1	-69,626498	273,177775	246,13888	0
15.01.2021	00:31:30	0	0	3,163665	3,5385	76,0284	-0,461	77,627	0	1008,08	5,7	7,8	7,6	1	1	1	1	1	1	1	1	1	0	1	-68,569415	273,112454	246,894054	0
15.01.2021	00:31:31	0	0	4,745497	3,39525	69,8508	-0,462	77,617	0	1007,98	5,7	7,8	7,6	1	1	1	1	1	1	1	1	1	0	1	-68,428471	273,142247	247,172672	0
15.01.2021	00:31:32	0	0	3,841593	3,20775	69,858	-0,464	77,62	0	1007,76	5,7	7,9	7,6	1	1	1	1	1	1	1	1	1	0	1	-67,794221	273,249029	248,300735	0
15.01.2021	00:31:33	0	0	2,937689	3,07425	65,1024	-0,465	77,617	0	1008,02	5,7	7,8	7,6	1	1	1	1	1	1	1	1	1	0	1	-72,163495	273,128054	243,372056	0
15.01.2021	00:31:34	0	0	3,954581	2,9505	49,9608	-0,463	77,611	0	1008	5,7	7,8	7,6	1	1	1	1	1	1	1	1	1	0	1	-71,811135	273,276175	244,409452	0
15.01.2021	00:31:35	0	0	5,197418	2,88675	53,3556	-0,459	77,622	0	1008,04	5,7	7,8	7,7	1	1	1	1	1	1	1	1	1	0	1	-65,46864	273,251884	250,639531	0
15.01.2021	00:31:36	0	0	3,276653	3,03675	51,4548	-0,463	77,618	0	1007,94	5,7	7,8	7,6	1	1	1	1	1	1	1	1	1	0	1	-75,193798	273,31052	241,185786	0
15.01.2021	00:31:37	0	0	4,745497	3,2355	54,4788	-0,458	77,594	0	1008	5,7	7,8	7,6	1	1	1	1	1	1	1	1	1	0	1	-67,371388	273,23761	248,670736	0
15.01.2021	00:31:38	0	0	4,745497	3,2745	56,2824	-0,456	77,607	0	1008,02	5,7	7,8	7,6	1	1	1	1	1	1	1	1	1	0	1	-67,230444	273,306223	249,129246	0
15.01.2021	00:31:39	0	0	3,276653	3,366	63,8388	-0,457	77,592	0	1007,96	5,7	7,8	7,6	1	1	1	1	1	1	1	1	1	0	1	-71,317829	273,13231	244,237393	0
15.01.2021	00:31:40	0	0	3,841593	3,48225	58,4856	-0,464	77,585	0	1008,04	5,7	7,8	7,6	1	1	1	1	1	1	1	1	1	0	1	-66,525722	273,196275	249,325204	0
15.01.2021	00:31:41	0	0	5,197449	3,52425	60,5736	-0,457	77,579	0	1007,98	5,7	7,8	7,6	1	1	1	1	1	1	1	1	1	0	1	-68,287526	273,135149	247,280814	0
15.01.2021	00:31:42	0	0	3,276653	3,28275	54,8892	-0,457	77,576	0	1007,96	5,7	7,8	7,6	1	1	1	1	1	1	1	1	1	0	1	-66,032417	273,251884	250,075754	0
15.01.2021	00:31:43	0	0	4,180557	3,20625	51,0768	-0,459	77,567	0	1007,88	5,7	7,8	7,6	1	1	1	1	1	1	1	1	1	0	1	-74,559549	273,130891	240,989116	0
15.01.2021	00:31:44	0	0	4,519521	3,252	52,884	-0,458	77,554	0	1007,8	5,7	7,8	7,6	1	1	1	1	1	1	1	1	1	0	1	-70,119803	273,281895	246,127259	0
15.01.2021	00:31:45	0	0	3,615617	3,7125	55,5336	-0,456	77,543	0	1007,96	5,7	7,8	7,6	1	1	1	1	1	1	1	1	1	0	1	-71,881607	273,240464	244,173722	0
15.01.2021	00:31:46	0	0	4,293545	3,72825	57,7404	-0,463	77,54	0	1007,96	5,7	7,8	7,6	1	1	1	1	1	1	1	1	1	0	1	-66,525722	273,306223	249,833968	0
15.01.2021	00:31:47	0	0	2,485736	3,588	45,8532	-0,453	77,529	0	1007,98	5,7	7,9	7,6	1	1	1	1	1	1	1	1	1	0	1	-67,935166	273,213369	247,994816	0
15.01.2021	00:31:48	0	0	3,728605	3,50475	51,75	-0,461	77,517	0	1008	5,7	7,8	7,6	1	1	1	1	1	1	1	1	1	0	1	-75,687104	273,303359	240,659327	0
15.01.2021	00:31:49	0	0	2,372748	3,72525	45,5472	-0,462	77,497	0	1008,08	5,7	7,8	7,6	1	1	1	1	1	1	1	1	1	0	1	-68,498943	273,15645	247,16785	0
15.01.2021	00:31:50	0	0	4,406533	3,94125	51,4404	-0,456	77,514	0	1007,92	5,7	7,8	7,6	1	1	1	1	1	1	1	1	1	0	1	-69,274137	273,250457	246,827427	0
15.01.2021	00:31:51	0	0	3,841593	3,86925	45,162	-0,452	77,499	0	1008	5,7	7,8	7,6	1	1	1	1	1	1	1	1	1	0	1	-66,666667	273,306223	249,693024	0
15.01.2021	00:31:52	0	0	4,519521	3,795	41,8464	-0,455	77,496	0	1007,92	5,7	7,8	7,6	1	1	1	1	1	1	1	1	1	0	1	-67,653277	273,227625	248,34265	0
15.01.2021	00:31:53	0	0	4,180557	3,684	37,3212	-0,459	77,483	0	1007,98	5,7	7,8	7,6	1	1	1	1	1	1	1	1	1	0	1	-67,864693	273,137988	247,716766	0
15.01.2021	00:31:54	0	0	5,310437	3,7305	40,2624	-0,455	77,497	0	1007,92	5,7	7,9	7,6	1	1	1	1	1	1	1	1	1	0	1	-70,049331	273,200547	245,821351	0
15.01.2021	00:31:55	0	0	3,502629	3,4935	36,6084	-0,457	77,477	0	1007,94	5,7	7,9	7,6	1	1	1	1	1	1	1	1	1	0	1	-68,710359	273,123798	246,805527	0
15.01.2021	00:31:56	0	0	3,728605	3,32625	43,6752	-0,455	77,474	0	1008,06	5,7	7,8	7,6	1	1	1	1	1	1	1	1	1	0	1	-71,317829	273,123798	244,198056	0
15.01.2021	00:31:57	0	0	3,050677	3,1545	47,7576	-0,455	77,466	0	1007,94	5,7	7,8	7,6	1	1	1	1	1	1	1	1	1	0	1	-66,102889	273,236183	249,932634	0
15.01.2021	00:31:58	0	0	2,824701	2,98875	49,2264	-0,452	77,472	0	1008,04	5,7	7,8	7,6	1	1	1	1	1	1	1	1	1	0	1	-65,539112	273,137988	250,042347	0
15.01.2021	00:31:59	0	0	3,163665	2,91975	42,5952	-0,455	77,462	0	1007,78	5,7	7,8	7,6	1	1	1	1	1	1	1	1	1	0	1	-68,287526	273,241891	247,774406	0
15.01.2021	00:32:00	0	0	2,937689	2,97	46,6128	-0,451	77,471	0	1008,04	5,7	7,8	7,6	1	1	1	1	1	1	1	1	1	0	1	-67,230444	273,143666	248,377261	0
15.01.2021	00:32:01	0	0	3,615617	3,1155	50,6916	-0,46	77,46	0	1007,84	5,6	7,8	7,6	1	1	1	1	1	1	1	1	1	0	1	-64,200141	273,170664	251,53236	0
15.01.2021	00:32:02	0	0	3,615617	3,1155	50,6916	-0,46	77,46	0	1007,84	5,6	7,8	7,6	1	1	1	1	1	1	1	1	1	0	1	-64,200141	273,170664	251,53236	0
15.01.2021	00:32:03	0	0	4,745497	3,24975	50,7636	-0,455	77,489	0	1008	5,7	7,9	7,6	1	1	1	1	1	1	1	1	1	0	1	-66,525722	273,152188	249,121369	0
15.01.2021	00:32:04	0	0	4,180532	3,24825	53,3376	-0,456	77,504	0	1008,1	5,7	7,8	7,7	1	1	1	1	1	1	1	1	1	0	1	-69,203665	273,279035	247,030158	0
15.01.2021	00:32:05	0	0	2,485736	3,024	57,7332	-0,448	77,507	0	1007,98	5,7	7,8	7,6	1	1	1	1	1	1	1	1	1	0	1	-67,371388	273,196275	248,479538	0
15.01.2021	00:32:06	0	0	3,502629	2,808	66,5568	-0,453	77,526	0	1008,06	5,7	7,8	7,6	1	1	1	1	1	1	1	1	1	0	1	-70,824524	273,303359	245,521907	0
15.01.2021	00:32:07	0	0	3,276653	3,078	65,4696	-0,448	77,52	0	1007,86	5,7	7,9	7,6	1	1	1	1	1	1	1	1	1	0	1	-69,837914	273,16782	245,881441	0
15.01.2021	00:32:08	0	0	4,971473	3,29025	63,8568	-0,45	77,539	0	1007,9	5,7	7,9	7,6	1	1	1	1	1	1	1	1	1	0	1	-66,596195	273,29334	249,703848	0
15.01.2021	00:32:09	0	0	5,084461	3,4605	67,2912	-0,447	77,569	0	1007,96	5,7	7,8	7,6	1	1	1	1	1	1	1	1	1	0	1	-68,498943	273,273316	247,708409	0
15.01.2021	00:32:10	0	0	4,745497	3,423	70,8552	-0,451	77,582	0	1007,94	5,7	7,8	7,6	1	1	1	1	1	1	1	1	1	0	1	-68,498943	273,273316	247,708409	0
15.01.2021	00:32:11	0	0	3,502629	3,126	68,2308	-0,447	77,601	0	1007,76	5,7	7,8	7,6	1	1	1	1	1	1	1	1	1	0	1	-71,317829	273,31052	245,061755	0
15.01.2021	00:32:12	0	0	2,824701	2,94525	63,4932	-0,45	77,608	0	1007,92	5,7	7,8	7,6	1	1	1	1	1	1	1	1	1	0	1	-70,472163	273,201971	245,405105	0
15.01.2021	00:32:13	0	0	2,598725	2,86425	68,4288	-0,449	77,607	0	1007,92	5,7	7,8	7,6	1	1	1	1	1	1	1	1	1	0	1	-68,921776	273,197699	246,935735	0
15.01.2021	00:32:14	0	0	5,197418	2,8485	78,6564	-0,449	77,623	0	1007,98	5,7	7,8	7,7	1	1	1	1	1	1	1	1	1	0	1	-65,116279	273,155029	250,543946	0
15.01.2021	00:32:15	0	0	3,84157	2,88225	79,1028	-0,455	77,617	0	1007,94	5,7	7,8	7,7	1	1	1	1	1	1	1	1	1	0	1	-65,891473	273,193428	249,946285	0
15.01.2021	00:32:16	0	0	2,711713	2,8665	76,392	-0,444	77,649	0	1008,06	5,7	7,9	7,6	1	1	1	1	1	1	1	1	1	0	1	-66,807611	273,31625	249,598506	0
15.01.2021	00:32:17	0	0	4,406533	2,85825	67,284	-0,448	77,645	0	1007,9	5,7	7,8	7,6	1	1	1	1	1	1	1	1	1	0	1	-73,572939	273,190581	242,251654	0
15.01.2021	00:32:18	0	0	4,745497	2,88225	80,604	-0,447	77,638	0	1007,9	5,7	7,8	7,6	1	1	1	1	1	1	1	1	1	0	1	-68,428471	273,177775	247,336907	0
15.01.2021	00:32:19	0	0	4,971473	2,84775	67,6548	-0,44	77,657	0	1008,04	5,7	7,8	7,6	1	1	1	1	1	1	1	1	1	0	1	-73,431994	273,319116	242,987393	0
15.01.2021	00:32:20	0	0	2,372748	2,86425	58,104	-0,442	77,659	0	1008,02	5,7	7,8	7,6	1	1	1	1	1	1	1	1	1	0	1	-71,881607	273,201971	243,995662	0
15.01.2021	00:32:21	0	0	3,841593	2,9505	53,3376	-0,442	77,647	0	1008,06	5,7	7,8	7,6	1	1	1	1	1	1	1	1	1	0	1	-70,754052	273,329149	245,7118	0
15.01.2021	00:32:22	0	0	3,615617	3,0435	60,5592	-0,442	77,637	0	1007,8	5,7	7,8	7,6	1	1	1	1	1	1	1	1	1	0	1	-67,723749	273,283325	248,529933	0
15.01.2021	00:32:23	0	0	2,824701	3,18375	67,6692	-0,445	77,635	0	1008	5,7	7,8	7,6	1	1	1	1	1	1	1	1	1	0	1	-67,723749	273,339187	248,788597	0
15.01.2021	00:32:24	0	0	3,38962	3,18075	73,0584	-0,446	77,619	0	1007,84	5,7	7,8	7,7	1	1	1	1	1	1	1	1	1	0	1	-70,68358	273,216219	245,259586	0
15.01.2021	00:32:25	0	0	4,180557	3,18	83,3436	-0,44	77,627	0	1008,14	5,7	7,8	7,6	1	1	1	1	1	1	1	1	1	0	1	-71,529246	273,15645	244,137547	0
15.01.2021	00:32:26	0	0	5,084461	3,1095	86,9724	-0,436	77,617	0	1007,94	5,7	7,8	7,6	1	1	1	1	1	1	1	1	1	0	1	-69,626498	273,153608	246,02716	0
15.01.2021	00:32:27	0	0	4,745497	2,96775	72,6588	-0,432	77,61	0	1008,18	5,7	7,8	7,6	1	1	1	1	1	1	1	1	1	0	1	-68,357999	273,246173	247,723746	0
15.01.2021	00:32:28	0	0	5,197449	2,85075	65,4768	-0,439	77,615	0	1007,82	5,7	7,8	7,6	1	1	1	1	1	1	1	1	1	0	1	-68,710359	273,183465	247,08133	0
15.01.2021	00:32:29	0	0	3,050677	2,8275	51,4332	-0,435	77,59	0	1007,84	5,7	7,9	7,6	1	1	1	1	1	1	1	1	1	0	1	-71,458774	273,176352	244,300028	0
15.01.2021	00:32:30	0	0	2,25976	2,817	58,4892	-0,438	77,583	0	1008,12	5,7	7,8	7,6	1	1	1	1	1	1	1	1	1	0	1	-68,569415	273,196275	247,281511	0
15.01.2021	00:32:31	0	0	3,615595	2,76825	56,286	-0,437	77,571	0	1007,78	5,7	7,8	7,7	1	1	1	1	1	1	1	1	1	0	1	-67,864693	273,152188	247,782398	0
15.01.2021	00:32:32	0	0	2,937689	2,67375	54,0972	-0,436	77,53	0	1007,86	5,7	7,8	7,6	1	1	1	1	1	1	1	1	1	0	1	-68,780832	273,193428	247,056927	0
15.01.2021	00:32:33	0	0	3,050677	2,5755	38,0772	-0,435	77,53	0	1007,96	5,7	7,8	7,6	1	1	1	1	1	1	1	1	1	0	1	-69,415081	273,320549	247,010942	0
15.01.2021	00:32:34	0	0	5,536413	2,508	44,7804	-0,432	77,497	0	1007,88	5,7	7,8	7,6	1	1	1	1	1	1	1	1	1	0	1	-74,700493	273,29334	241,599549	0
15.01.2021	00:32:35	0	0	3,050677	2,5035	36,6156	-0,436	77,47	0	1007,92	5,7	7,8	7,6	1	1	1	1	1	1	1	1	1	0	1	-63,565891	273,241891	252,496041	0
15.01.2021	00:32:36	0	0	4,293545	2,739	44,784	-0,433	77,454	0	1007,92	5,7	7,8	7,6	1	1	1	1	1	1	1	1	1	0	1	-64,270613	273,324848	252,175322	0
15.01.2021	00:32:37	0	0	4,406533	2,7645	52,4988	-0,44	77,427	0	1008,08	5,7	7,8	7,6	1	1	1	1	1	1	1	1	1	0	1	-73,220578	273,271886	242,980158	0
15.01.2021	00:32:38	0	0	5,197449	3,066	53,7444	-0,433	77,396	0	1007,96	5,7	7,8	7,6	1	1	1	1	1	1	1	1	1	0	1	-71,035941	273,334885	245,456476	0
15.01.2021	00:32:39	0	0	4,180557	3,41925	57,0312	-0,414	77,371	0	1008,1	5,7	7,8	7,6	1	1	1	1	1	1	1	1	1	0	1	-71,317829	273,166398	244,394953	0
15.01.2021	00:32:40	0	0	4,406533	3,6015	56,2644	-0,433	77,351	0	1008,02	5,7	7,8	7,6	1	1	1	1	1	1	1	1	1	0	1	-68,357999	273,197699	247,499512	0
15.01.2021	00:32:41	0	0	4,519521	3,5745	48,1392	-0,437	77,341	0	1007,92	5,7	7,8	7,6	1	1	1	1	1	1	1	1	1	0	1	-65,116279	273,31625	251,289838	0
15.01.2021	00:32:42	0	0	4,858485	3,744	49,572	-0,432	77,333	0	1007,92	5,7	7,8	7,6	1	1	1	1	1	1	1	1	1	0	1	-68,287526	273,256169	247,84047	0
15.01.2021	00:32:43	0	0	3,728605	3,86175	52,146	-0,432	77,323	0	1008,08	5,7	7,8	7,6	1	1	1	1	1	1	1	1	1	0	1	-72,727273	273,320549	243,698751	0
15.01.2021	00:32:44	0	0	2,711713	4,1295	46,692	-0,433	77,291	0	1007,96	5,7	7,8	7,6	1	1	1	1	1	1	1	1	1	0	1	-68,005638	273,229051	247,996887	0
15.01.2021	00:32:45	0	0	2,598725	4,46025	49,5756	-0,433	77,3	0	1007,96	5,7	7,8	7,6	1	1	1	1	1	1	1	1	1	0	1	-62,931642	273,136568	252,643257	0
15.01.2021	00:32:46	0	0	4,971473	4,61775	49,9608	-0,441	77,295	0	1008,2	5,7	7,8	7,6	1	1	1	1	1	1	1	1	1	0	1	-73,431994	273,196275	242,418932	0
15.01.2021	00:32:47	0	0	3,841593	4,51575	48,51	-0,426	77,3	0	1007,86	5,7	7,8	7,6	1	1	1	1	1	1	1	1	1	0	1	-72,233968	273,213369	243,696014	0
15.01.2021	00:32:48	0	0	4,406533	4,5315	49,2804	-0,433	77,302	0	1008	5,7	7,8	7,6	1	1	1	1	1	1	1	1	1	0	1	-71,811135	273,314817	244,588348	0
15.01.2021	00:32:49	0	0	4,406533	4,7025	57,7152	-0,432	77,318	0	1008,1	5,7	7,8	7,6	1	1	1	1	1	1	1	1	1	0	1	-68,07611	273,274745	248,137859	0
15.01.2021	00:32:50	0	0	3,163646	4,59225	52,8984	-0,433	77,326	0	1007,86	5,7	7,8	7,7	1	1	1	1	1	1	1	1	1	0	1	-74,066244	273,159292	241,613686	0
15.01.2021	00:32:51	0	0	3,163646	4,18875	71,3664	-0,434	77,329	0	1008,1	5,7	7,8	7,7	1	1	1	1	1	1	1	1	1	0	1	-68,921776	273,334885	247,57064	0
15.01.2021	00:32:52	0	0	4,858485	3,72825	69,84	-0,43	77,345	0	1008,1	5,7	7,8	7,6	1	1	1	1	1	1	1	1	1	0	1	-69,908386	273,241891	246,153546	0
15.01.2021	00:32:53	0	0	4,632509	3,41625	62,8128	-0,431	77,331	0	1008,06	5,7	7,8	7,6	1	1	1	1	1	1	1	1	1	0	1	-72,093023	273,150767	243,547502	0
15.01.2021	00:32:54	0	0	3,728605	3,03525	67,6728	-0,428	77,341	0	1007,98	5,7	7,8	7,6	1	1	1	1	1	1	1	1	1	0	1	-66,737139	273,143666	248,870566	0
15.01.2021	00:32:55	0	0	4,067569	2,778	73,4364	-0,428	77,351	0	1007,94	5,7	7,8	7,6	1	1	1	1	1	1	1	1	1	0	1	-68,146582	273,23761	247,895542	0
15.01.2021	00:32:56	0	0	2,824684	2,88675	20,646	-0,43	77,351	0	1008	5,7	7,8	7,7	1	1	1	1	1	1	1	1	1	0	1	-65,821001	273,319116	250,598387	0
15.01.2021	00:32:57	0	0	4,632481	2,8035	34,7148	-0,428	77,349	0	1007,94	5,7	7,8	7,7	1	1	1	1	1	1	1	1	1	0	1	-68,921776	273,301928	247,418026	0
15.01.2021	00:32:58	0	0	2,598725	2,55525	32,5152	-0,428	77,348	0	1007,94	5,7	7,8	7,6	1	1	1	1	1	1	1	1	1	0	1	-71,740662	273,301928	244,59914	0
15.01.2021	00:32:59	0	0	4,858485	2,45475	35,0964	-0,43	77,336	0	1007,9	5,7	7,8	7,6	1	1	1	1	1	1	1	1	1	0	1	-72,868217	273,147927	242,759179	0
15.01.2021	00:33:00	0	0	3,615617	2,5275	33,9768	-0,428	77,354	0	1008,06	5,7	7,8	7,6	1	1	1	1	1	1	1	1	1	0	1	-66,102889	273,31052	250,276695	0
15.01.2021	00:33:01	0	0	3,389641	2,523	41,8356	-0,428	77,348	0	1007,82	5,7	7,8	7,6	1	1	1	1	1	1	1	1	1	0	1	-72,30444	273,160713	243,382059	0
15.01.2021	00:33:02	0	0	3,389641	2,523	41,8356	-0,428	77,348	0	1007,82	5,7	7,8	7,6	1	1	1	1	1	1	1	1	1	0	1	-72,30444	273,160713	243,382059	0
15.01.2021	00:33:03	0	0	5,310437	2,499	43,6932	-0,427	77,345	0	1007,94	5,7	7,8	7,6	1	1	1	1	1	1	1	1	1	0	1	-71,458774	273,18062	244,319759	0
15.01.2021	00:33:04	0	0	2,824701	2,53275	53,352	-0,434	77,346	0	1007,92	5,7	7,8	7,6	1	1	1	1	1	1	1	1	1	0	1	-69,69697	273,145086	245,917298	0
15.01.2021	00:33:05	0	0	4,519521	2,61225	62,4132	-0,432	77,331	0	1007,94	5,7	7,8	7,6	1	1	1	1	1	1	1	1	1	0	1	-65,327696	273,187734	250,483734	0
15.01.2021	00:33:06	0	0	2,824701	2,802	54,5976	-0,429	77,338	0	1007,9	5,7	7,8	7,6	1	1	1	1	1	1	1	1	1	0	1	-68,217054	273,31625	248,189063	0
15.01.2021	00:33:07	0	0	2,485736	2,8125	53,3592	-0,427	77,321	0	1008,08	5,7	7,8	7,6	1	1	1	1	1	1	1	1	1	0	1	-66,032417	273,216219	249,910749	0
15.01.2021	00:33:08	0	0	4,632481	2,556	48,8196	-0,431	77,315	0	1007,92	5,7	7,8	7,7	1	1	1	1	1	1	1	1	1	0	1	-71,388302	273,147927	244,239094	0
15.01.2021	00:33:09	0	0	2,485736	2,37825	57,4128	-0,432	77,315	0	1007,64	5,7	7,8	7,6	1	1	1	1	1	1	1	1	1	0	1	-68,357999	273,323415	248,081299	0
15.01.2021	00:33:10	0	0	2,711713	2,148	37,026	-0,43	77,325	0	1007,8	5,7	7,8	7,6	1	1	1	1	1	1	1	1	1	0	1	-67,0895	273,231904	248,926223	0
15.01.2021	00:33:11	0	0	4,180557	2,21175	62,0604	-0,425	77,314	0	1008,02	5,7	7,8	7,6	1	1	1	1	1	1	1	1	1	0	1	-73,9253	273,15645	241,741493	0
15.01.2021	00:33:12	0	0	3,050677	2,3685	62,0424	-0,422	77,306	0	1007,96	5,7	7,8	7,6	1	1	1	1	1	1	1	1	1	0	1	-69,485553	273,145086	246,128715	0
15.01.2021	00:33:13	0	0	3,276653	2,5125	79,0272	-0,43	77,297	0	1007,92	5,7	7,8	7,6	1	1	1	1	1	1	1	1	1	0	1	-70,331219	273,257597	245,803387	0
15.01.2021	00:33:14	0	0	4,406506	2,8665	79,4088	-0,43	77,301	0	1007,96	5,7	7,8	7,7	1	1	1	1	1	1	1	1	1	0	1	-68,498943	273,306223	247,860748	0
15.01.2021	00:33:15	0	0	2,937689	3,18825	81,5832	-0,431	77,289	0	1007,86	5,7	7,8	7,6	1	1	1	1	1	1	1	1	1	0	1	-70,754052	273,311952	245,632164	0
15.01.2021	00:33:16	0	0	3,841593	3,29175	86,6448	-0,434	77,274	0	1007,82	5,7	7,8	7,6	1	1	1	1	1	1	1	1	1	0	1	-68,780832	273,199123	247,083264	0
15.01.2021	00:33:17	0	0	3,163665	3,225	86,3604	-0,425	77,281	0	1007,92	5,7	7,8	7,6	1	1	1	1	1	1	1	1	1	0	1	-65,539112	273,142247	250,062031	0
15.01.2021	00:33:18	0	0	4,293545	3,16875	66,528	-0,43	77,275	0	1007,82	5,7	7,8	7,6	1	1	1	1	1	1	1	1	1	0	1	-68,287526	273,220495	247,675421	0
15.01.2021	00:33:19	0	0	4,293545	3,078	66,5496	-0,433	77,258	0	1007,94	5,7	7,8	7,6	1	1	1	1	1	1	1	1	1	0	1	-63,636364	273,280465	252,604078	0
15.01.2021	00:33:20	0	0	4,858456	3,054	70,6284	-0,43	77,23	0	1007,96	5,7	7,8	7,7	1	1	1	1	1	1	1	1	1	0	1	-65,750529	273,327715	250,708684	0
15.01.2021	00:33:21	0	0	3,841593	2,9895	68,4072	-0,431	77,212	0	1007,86	5,7	7,8	7,6	1	1	1	1	1	1	1	1	1	0	1	-71,881607	273,207669	244,022014	0
15.01.2021	00:33:22	0	0	3,954557	3,0285	66,2292	-0,422	77,212	0	1007,82	5,7	7,8	7,7	1	1	1	1	1	1	1	1	1	0	1	-65,821001	273,307655	250,54532	0
15.01.2021	00:33:23	0	0	2,598725	2,93925	81,198	-0,431	77,242	0	1007,92	5,7	7,8	7,6	1	1	1	1	1	1	1	1	1	0	1	-64,904863	273,15645	250,76193	0
15.01.2021	00:33:24	0	0	2,824684	2,77125	72,3024	-0,43	77,254	0	1008,06	5,7	7,8	7,7	1	1	1	1	1	1	1	1	1	0	1	-65,46864	273,311952	250,917577	0
15.01.2021	00:33:25	0	0	3,728605	2,6895	69,156	-0,432	77,252	0	1007,92	5,7	7,9	7,6	1	1	1	1	1	1	1	1	1	0	1	-66,102889	273,172086	249,636186	0
15.01.2021	00:33:26	0	0	2,598725	2,748	61,3008	-0,425	77,271	0	1008,02	5,7	7,8	7,6	1	1	1	1	1	1	1	1	1	0	1	-68,992248	273,153608	246,66141	0
15.01.2021	00:33:27	0	0	3,389641	2,69175	66,9204	-0,43	77,281	0	1007,88	5,7	7,8	7,6	1	1	1	1	1	1	1	1	1	0	1	-70,119803	273,309087	246,25315	0
15.01.2021	00:33:28	0	0	4,858485	2,66025	58,2084	-0,428	77,291	0	1007,9	5,7	7,8	7,6	1	1	1	1	1	1	1	1	1	0	1	-70,613108	273,239037	245,435619	0
15.01.2021	00:33:29	0	0	4,406533	2,75475	62,0604	-0,431	77,286	0	1008,02	5,7	7,8	7,6	1	1	1	1	1	1	1	1	1	0	1	-66,596195	273,303359	249,750237	0
15.01.2021	00:33:30	0	0	4,067569	3,00225	61,6536	-0,424	77,288	0	1007,96	5,7	7,8	7,6	1	1	1	1	1	1	1	1	1	0	1	-69,837914	273,217644	246,111845	0
15.01.2021	00:33:31	0	0	2,937689	3,2655	64,2528	-0,423	77,27	0	1007,98	5,7	7,8	7,6	1	1	1	1	1	1	1	1	1	0	1	-68,217054	273,137988	247,364405	0
15.01.2021	00:33:32	0	0	4,519521	3,3735	61,434	-0,425	77,272	0	1007,96	5,7	7,8	7,6	1	1	1	1	1	1	1	1	1	0	1	-70,331219	273,296202	245,982074	0
15.01.2021	00:33:33	0	0	4,745497	3,41475	63,1692	-0,427	77,248	0	1007,94	5,7	7,8	7,6	1	1	1	1	1	1	1	1	1	0	1	-73,009161	273,249029	243,085795	0
15.01.2021	00:33:34	0	0	4,180532	3,49125	63,8784	-0,424	77,242	0	1007,86	5,7	7,8	7,7	1	1	1	1	1	1	1	1	1	0	1	-73,502467	273,155029	242,157758	0
15.01.2021	00:33:35	0	0	5,197418	3,4515	71,6112	-0,43	77,222	0	1007,78	5,7	7,8	7,7	1	1	1	1	1	1	1	1	1	0	1	-71,106413	273,280465	245,134029	0
15.01.2021	00:33:36	0	0	2,937671	3,12375	68,4828	-0,423	77,191	0	1007,92	5,7	7,8	7,7	1	1	1	1	1	1	1	1	1	0	1	-71,881607	273,137988	243,699853	0
15.01.2021	00:33:37	0	0	4,632481	3,07875	69,8472	-0,422	77,184	0	1007,92	5,7	7,8	7,7	1	1	1	1	1	1	1	1	1	0	1	-69,344609	273,279035	246,889214	0
15.01.2021	00:33:38	0	0	4,858456	3,26775	65,4732	-0,427	77,168	0	1007,8	5,7	7,8	7,7	1	1	1	1	1	1	1	1	1	0	1	-70,824524	273,199123	245,039572	0
15.01.2021	00:33:39	0	0	4,858485	3,41775	79,8516	-0,423	77,158	0	1007,94	5,7	7,8	7,6	1	1	1	1	1	1	1	1	1	0	1	-69,556025	273,123798	245,959861	0
15.01.2021	00:33:40	0	0	4,293545	3,63	71,9784	-0,431	77,141	0	1007,9	5,7	7,8	7,6	1	1	1	1	1	1	1	1	1	0	1	-63,636364	273,145086	251,977904	0
15.01.2021	00:33:41	0	0	4,519521	3,873	70,8552	-0,43	77,135	0	1007,94	5,7	7,9	7,6	1	1	1	1	1	1	1	1	1	0	1	-66,878083	273,240464	249,177246	0
15.01.2021	00:33:42	0	0	4,519494	4,13625	71,6832	-0,423	77,12	0	1008,04	5,7	7,8	7,7	1	1	1	1	1	1	1	1	1	0	1	-67,582805	273,307655	248,783516	0
15.01.2021	00:33:43	0	0	2,485736	4,2075	73,7928	-0,426	77,122	0	1007,92	5,7	7,8	7,6	1	1	1	1	1	1	1	1	1	0	1	-69,69697	273,203396	246,186886	0
15.01.2021	00:33:44	0	0	2,598709	4,37475	74,9196	-0,432	77,114	0	1008,04	5,7	7,8	7,7	1	1	1	1	1	1	1	1	1	0	1	-68,005638	273,118125	247,484035	0
15.01.2021	00:33:45	0	0	4,519494	4,53075	66,888	-0,425	77,099	0	1007,92	5,7	7,8	7,7	1	1	1	1	1	1	1	1	1	0	1	-61,522199	273,271886	254,678537	0
15.01.2021	00:33:46	0	0	3,502608	4,77825	69,8472	-0,424	77,105	0	1007,96	5,7	7,8	7,7	1	1	1	1	1	1	1	1	1	0	1	-70,119803	273,263311	246,041248	0
15.01.2021	00:33:47	0	0	4,519494	4,76175	73,7712	-0,433	77,099	0	1007,94	5,7	7,8	7,7	1	1	1	1	1	1	1	1	1	0	1	-69,908386	273,283325	246,345296	0
15.01.2021	00:33:48	0	0	2,37272	4,869	86,976	-0,431	77,115	0	1007,96	5,7	7,8	7,8	1	1	1	1	1	1	1	1	1	0	1	-74,91191	273,256169	241,216086	0
15.01.2021	00:33:49	0	0	4,632481	4,87125	77,2128	-0,431	77,141	0	1007,92	5,7	7,8	7,7	1	1	1	1	1	1	1	1	1	0	1	-67,159972	273,307655	249,206349	0
15.01.2021	00:33:50	0	0	4,406533	5,07525	87,3612	-0,424	77,147	0	1007,92	5,7	7,8	7,6	1	1	1	1	1	1	1	1	1	0	1	-70,331219	273,217644	245,61854	0
15.01.2021	00:33:51	0	0	2,485722	4,9785	69,4836	-0,422	77,152	0	1008	5,7	7,8	7,7	1	1	1	1	1	1	1	1	1	0	1	-70,401691	273,309087	245,971261	0
15.01.2021	00:33:52	0	0	3,276633	4,93875	80,1468	-0,427	77,158	0	1008,06	5,7	7,8	7,7	1	1	1	1	1	1	1	1	1	0	1	-68,287526	273,160713	247,398973	0
15.01.2021	00:33:53	0	0	3,163665	5,21025	75,2796	-0,428	77,175	0	1007,96	5,7	7,8	7,6	1	1	1	1	1	1	1	1	1	0	1	-69,203665	273,283325	247,050018	0
15.01.2021	00:33:54	0	0	2,711713	5,47125	76,806	-0,429	77,2	0	1007,94	5,7	7,8	7,6	1	1	1	1	1	1	1	1	1	0	1	-69,837914	273,309087	246,535038	0
15.01.2021	00:33:55	0	0	2,937671	5,7225	77,202	-0,428	77,21	0	1007,82	5,7	7,8	7,7	1	1	1	1	1	1	1	1	1	0	1	-70,824524	273,21907	245,131829	0
15.01.2021	00:33:56	0	0	3,050677	5,7855	80,1504	-0,422	77,223	0	1008,04	5,7	7,8	7,6	1	1	1	1	1	1	1	1	1	0	1	-71,811135	273,31052	244,568449	0
15.01.2021	00:33:57	0	0	5,197449	5,6415	74,142	-0,431	77,224	0	1007,92	5,7	7,8	7,6	1	1	1	1	1	1	1	1	1	0	1	-71,035941	273,277605	245,191263	0
15.01.2021	00:33:58	0	0	3,050658	5,31375	67,284	-0,426	77,229	0	1007,86	5,7	7,8	7,7	1	1	1	1	1	1	1	1	1	0	1	-72,093023	273,307655	244,273298	0
15.01.2021	00:33:59	0	0	3,05064	5,12475	70,2036	-0,427	77,246	0	1007,86	5,7	7,8	7,8	1	1	1	1	1	1	1	1	1	0	1	-70,68358	273,274745	245,530389	0
15.01.2021	00:34:00	0	0	4,519494	5,11725	77,22	-0,43	77,239	0	1007,86	5,7	7,8	7,7	1	1	1	1	1	1	1	1	1	0	1	-68,780832	273,321982	247,651828	0
15.01.2021	00:34:01	0	0	3,389641	5,16075	74,1744	-0,422	77,242	0	1007,82	5,7	7,8	7,6	1	1	1	1	1	1	1	1	1	0	1	-71,67019	273,214794	244,266384	0
15.01.2021	00:34:02	0	0	3,389641	5,16075	74,1744	-0,422	77,242	0	1007,82	5,7	7,8	7,6	1	1	1	1	1	1	1	1	1	0	1	-71,67019	273,214794	244,266384	0
15.01.2021	00:34:03	0	0	2,824684	4,76025	79,7616	-0,426	77,24	0	1007,98	5,7	7,8	7,7	1	1	1	1	1	1	1	1	1	0	1	-63,918252	273,153608	251,735406	0
15.01.2021	00:34:04	0	0	4,745468	4,368	66,5352	-0,422	77,263	0	1007,96	5,7	7,8	7,7	1	1	1	1	1	1	1	1	1	0	1	-71,247357	273,261883	244,907081	0
15.01.2021	00:34:05	0	0	3,615617	4,1595	63,1836	-0,426	77,248	0	1008,02	5,7	7,8	7,6	1	1	1	1	1	1	1	1	1	0	1	-75,616631	273,160713	240,069868	0
15.01.2021	00:34:06	0	0	2,937689	4,398	74,916	-0,424	77,275	0	1008,06	5,7	7,8	7,6	1	1	1	1	1	1	1	1	1	0	1	-68,146582	273,176352	247,612219	0
15.01.2021	00:34:07	0	0	4,519494	4,32225	75,2508	-0,422	77,265	0	1007,9	5,7	7,8	7,7	1	1	1	1	1	1	1	1	1	0	1	-68,07611	273,266169	248,098167	0
15.01.2021	00:34:08	0	0	4,745468	4,06125	64,6416	-0,423	77,264	0	1007,84	5,7	7,8	7,7	1	1	1	1	1	1	1	1	1	0	1	-67,653277	273,163555	248,046363	0
15.01.2021	00:34:09	0	0	2,598725	3,84375	62,82	-0,419	77,251	0	1008	5,7	7,8	7,6	1	1	1	1	1	1	1	1	1	0	1	-72,233968	273,210519	243,682832	0
15.01.2021	00:34:10	0	0	3,954581	3,5955	46,62	-0,426	77,219	0	1007,96	5,7	7,8	7,6	1	1	1	1	1	1	1	1	1	0	1	-67,019027	273,164977	248,687183	0
15.01.2021	00:34:11	0	0	4,858456	3,34575	52,1352	-0,424	77,204	0	1008,14	5,7	7,8	7,7	1	1	1	1	1	1	1	1	1	0	1	-70,401691	273,309087	245,971261	0
15.01.2021	00:34:12	0	0	2,937689	2,94225	32,1732	-0,423	77,191	0	1007,9	5,7	7,8	7,6	1	1	1	1	1	1	1	1	1	0	1	-71,458774	273,213369	244,471208	0
15.01.2021	00:34:13	0	0	3,84157	2,60625	38,0772	-0,427	77,192	0	1007,86	5,7	7,8	7,7	1	1	1	1	1	1	1	1	1	0	1	-71,247357	273,173508	244,498293	0
15.01.2021	00:34:14	0	0	4,067569	2,60775	48,8232	-0,427	77,182	0	1008,1	5,7	7,8	7,6	1	1	1	1	1	1	1	1	1	0	1	-71,599718	273,31052	244,779866	0
15.01.2021	00:34:15	0	0	3,050658	2,78475	47,3904	-0,421	77,168	0	1007,74	5,7	7,8	7,7	1	1	1	1	1	1	1	1	1	0	1	-72,233968	273,187734	243,577462	0
15.01.2021	00:34:16	0	0	3,615617	2,754	43,3044	-0,421	77,147	0	1007,68	5,7	7,8	7,6	1	1	1	1	1	1	1	1	1	0	1	-68,357999	273,192004	247,473177	0
15.01.2021	00:34:17	0	0	4,293519	2,74425	41,8428	-0,422	77,15	0	1008,04	5,7	7,8	7,7	1	1	1	1	1	1	1	1	1	0	1	-73,009161	273,29334	243,290881	0
15.01.2021	00:34:18	0	0	4,632481	2,70675	47,7756	-0,426	77,138	0	1007,92	5,7	7,8	7,7	1	1	1	1	1	1	1	1	1	0	1	-70,331219	273,343491	246,201062	0
15.01.2021	00:34:19	0	0	5,197418	2,66625	49,6008	-0,416	77,113	0	1008,06	5,7	7,8	7,7	1	1	1	1	1	1	1	1	1	0	1	-68,357999	273,350666	248,207519	0
15.01.2021	00:34:20	0	0	3,84157	2,55525	48,114	-0,42	77,118	0	1007,82	5,7	7,8	7,7	1	1	1	1	1	1	1	1	1	0	1	-64,83439	273,250457	251,267173	0
15.01.2021	00:34:21	0	0	3,050677	2,50875	49,5792	-0,417	77,115	0	1008,1	5,7	7,8	7,6	1	1	1	1	1	1	1	1	1	0	1	-68,992248	273,206245	246,904784	0
15.01.2021	00:34:22	0	0	4,632481	2,44725	43,6716	-0,426	77,105	0	1008,04	5,7	7,8	7,7	1	1	1	1	1	1	1	1	1	0	1	-68,146582	273,224773	247,836151	0
15.01.2021	00:34:23	0	0	5,084431	2,4615	54,1908	-0,422	77,097	0	1007,76	5,7	7,8	7,7	1	1	1	1	1	1	1	1	1	0	1	-70,119803	273,343491	246,412478	0
15.01.2021	00:34:24	0	0	3,954557	2,499	52,1316	-0,418	77,084	0	1007,94	5,7	7,8	7,7	1	1	1	1	1	1	1	1	1	0	1	-65,821001	273,330583	250,651491	0
15.01.2021	00:34:25	0	0	2,598693	2,5875	50,6988	-0,421	77,081	0	1007,68	5,7	7,8	7,8	1	1	1	1	1	1	1	1	1	0	1	-74,418605	273,224773	241,564129	0
15.01.2021	00:34:26	0	0	2,937671	2,82225	49,5864	-0,422	77,057	0	1007,92	5,7	7,8	7,7	1	1	1	1	1	1	1	1	1	0	1	-73,784355	273,344926	242,754572	0
15.01.2021	00:34:27	0	0	3,615617	2,92425	56,6892	-0,419	77,053	0	1008,24	5,7	7,8	7,6	1	1	1	1	1	1	1	1	1	0	1	-66,596195	273,231904	249,419528	0
15.01.2021	00:34:28	0	0	4,745497	3,069	62,0568	-0,424	77,045	0	1007,86	5,7	7,8	7,6	1	1	1	1	1	1	1	1	1	0	1	-68,357999	273,176352	247,400803	0
15.01.2021	00:34:29	0	0	2,937671	3,309	50,6916	-0,418	77,027	0	1007,96	5,7	7,8	7,7	1	1	1	1	1	1	1	1	1	0	1	-68,569415	273,300496	247,763759	0
15.01.2021	00:34:30	0	0	4,293519	3,56475	24,732	-0,418	77,026	0	1008	5,7	7,8	7,7	1	1	1	1	1	1	1	1	1	0	1	-71,529246	273,234757	244,499676	0
15.01.2021	00:34:31	0	0	2,937689	3,13425	44,0388	-0,425	77,024	0	1008,08	5,7	7,8	7,6	1	1	1	1	1	1	1	1	1	0	1	-66,032417	273,153608	249,621241	0
15.01.2021	00:34:32	0	0	3,502608	2,68575	40,6224	-0,426	77,015	0	1007,98	5,7	7,8	7,7	1	1	1	1	1	1	1	1	1	0	1	-68,287526	273,284755	247,972777	0
15.01.2021	00:34:33	0	0	2,259747	2,39325	42,9156	-0,423	76,997	0	1007,92	5,7	7,8	7,7	1	1	1	1	1	1	1	1	1	0	1	-68,921776	273,340622	247,597214	0
15.01.2021	00:34:34	0	0	3,276653	2,3085	43,6572	-0,425	76,988	0	1007,86	5,7	7,8	7,6	1	1	1	1	1	1	1	1	1	0	1	-68,639887	273,207669	247,263733	0
15.01.2021	00:34:35	0	0	3,276633	2,51625	37,692	-0,418	76,986	0	1008,02	5,7	7,8	7,7	1	1	1	1	1	1	1	1	1	0	1	-67,653277	273,303359	248,693154	0
15.01.2021	00:34:36	0	0	2,711713	2,79825	32,508	-0,423	76,949	0	1008	5,7	7,8	7,6	1	1	1	1	1	1	1	1	1	0	1	-67,371388	273,352102	249,200779	0
15.01.2021	00:34:37	0	0	3,728582	2,8575	36,2484	-0,425	76,959	0	1007,98	5,7	7,8	7,7	1	1	1	1	1	1	1	1	1	0	1	-66,737139	273,179197	249,034816	0
15.01.2021	00:34:38	0	0	4,858456	3,0405	39,8772	-0,422	76,95	0	1007,9	5,7	7,8	7,7	1	1	1	1	1	1	1	1	1	0	1	-69,274137	273,213369	246,655845	0
15.01.2021	00:34:39	0	0	4,745468	3,12825	44,0424	-0,426	76,919	0	1007,96	5,7	7,8	7,7	1	1	1	1	1	1	1	1	1	0	1	-64,341085	273,339187	252,171261	0
15.01.2021	00:34:40	0	0	4,519494	3,21825	40,6296	-0,43	76,935	0	1007,94	5,7	7,8	7,7	1	1	1	1	1	1	1	1	1	0	1	-70,190275	273,31625	246,215842	0
15.01.2021	00:34:41	0	0	4,519467	3,2565	45,5364	-0,421	76,934	0	1008	5,7	7,8	7,8	1	1	1	1	1	1	1	1	1	0	1	-67,44186	273,283325	248,811822	0
15.01.2021	00:34:42	0	0	3,954581	3,37725	39,546	-0,423	76,911	0	1008,08	5,7	7,8	7,6	1	1	1	1	1	1	1	1	1	0	1	-73,150106	273,340622	243,368885	0
15.01.2021	00:34:43	0	0	3,163665	3,44325	59,8572	-0,424	76,923	0	1007,84	5,7	7,8	7,6	1	1	1	1	1	1	1	1	1	0	1	-68,992248	273,220495	246,970699	0
15.01.2021	00:34:44	0	0	2,711713	3,336	44,0604	-0,418	76,919	0	1007,84	5,7	7,8	7,6	1	1	1	1	1	1	1	1	1	0	1	-70,754052	273,184888	245,044217	0
15.01.2021	00:34:45	0	0	2,824684	3,29325	57,15	-0,424	76,965	0	1007,96	5,7	7,8	7,7	1	1	1	1	1	1	1	1	1	0	1	-69,06272	273,192004	246,768455	0
15.01.2021	00:34:46	0	0	3,502629	3,50025	57,0384	-0,421	76,925	0	1007,98	5,7	7,8	7,6	1	1	1	1	1	1	1	1	1	0	1	-66,243834	273,289047	250,036336	0
15.01.2021	00:34:47	0	0	4,067544	3,693	48,132	-0,429	76,907	0	1007,94	5,7	7,8	7,7	1	1	1	1	1	1	1	1	1	0	1	-68,287526	273,339187	248,22482	0
15.01.2021	00:34:48	0	0	3,615595	3,66975	57,7368	-0,418	76,908	0	1008,02	5,7	7,8	7,7	1	1	1	1	1	1	1	1	1	0	1	-69,556025	273,207669	246,347595	0
15.01.2021	00:34:49	0	0	5,084461	3,705	62,0496	-0,423	76,889	0	1007,98	5,8	7,8	7,6	1	1	1	1	1	1	1	1	1	0	1	-73,361522	273,340622	243,157468	0
15.01.2021	00:34:50	0	0	4,519521	3,7335	59,1408	-0,424	76,894	0	1007,98	5,7	7,8	7,6	1	1	1	1	1	1	1	1	1	0	1	-69,415081	273,210519	246,501719	0
15.01.2021	00:34:51	0	0	4,858456	3,5655	67,2948	-0,424	76,915	0	1007,82	5,7	7,9	7,7	1	1	1	1	1	1	1	1	1	0	1	-62,931642	273,344926	253,607285	0
15.01.2021	00:34:52	0	0	4,293519	3,32325	66,2112	-0,428	76,916	0	1007,86	5,7	7,8	7,7	1	1	1	1	1	1	1	1	1	0	1	-65,821001	273,189157	249,99701	0
15.01.2021	00:34:53	0	0	3,615595	3,09825	70,2324	-0,422	76,919	0	1007,94	5,7	7,8	7,7	1	1	1	1	1	1	1	1	1	0	1	-70,401691	273,259025	245,739525	0
15.01.2021	00:34:54	0	0	4,971443	2,99025	62,802	-0,42	76,946	0	1008,06	5,7	7,8	7,7	1	1	1	1	1	1	1	1	1	0	1	-69,626498	273,173508	246,119153	0
15.01.2021	00:34:55	0	0	3,954581	2,9295	66,5208	-0,419	76,996	0	1008,06	5,7	7,8	7,6	1	1	1	1	1	1	1	1	1	0	1	-70,472163	273,303359	245,874268	0
15.01.2021	00:34:56	0	0	2,711696	2,8275	58,482	-0,427	76,948	0	1007,9	5,7	7,8	7,7	1	1	1	1	1	1	1	1	1	0	1	-67,371388	273,304791	248,981672	0
15.01.2021	00:34:57	0	0	3,050677	2,63325	58,5	-0,425	76,946	0	1007,84	5,7	7,8	7,6	1	1	1	1	1	1	1	1	1	0	1	-65,186751	273,337753	251,318951	0
15.01.2021	00:34:58	0	0	4,180532	2,4765	57,0456	-0,429	76,962	0	1008,02	5,7	7,8	7,7	1	1	1	1	1	1	1	1	1	0	1	-72,093023	273,319116	244,326364	0
15.01.2021	00:34:59	0	0	2,937671	2,5095	77,2164	-0,428	76,96	0	1008,02	5,7	7,8	7,7	1	1	1	1	1	1	1	1	1	0	1	-71,67019	273,224773	244,312543	0
15.01.2021	00:35:00	0	0	3,163665	2,38725	69,1596	-0,426	76,969	0	1007,78	5,7	7,8	7,6	1	1	1	1	1	1	1	1	1	0	1	-72,022551	273,229051	243,979974	0
15.01.2021	00:35:01	0	0	2,372734	2,2815	73,0764	-0,422	76,98	0	1008,02	5,7	7,8	7,7	1	1	1	1	1	1	1	1	1	0	1	-66,102889	273,172086	249,636186	0
15.01.2021	00:35:02	0	0	2,372734	2,2815	73,0764	-0,422	76,98	0	1008,02	5,7	7,8	7,7	1	1	1	1	1	1	1	1	1	0	1	-66,102889	273,172086	249,636186	0
15.01.2021	00:35:03	0	0	4,067569	2,4885	75,2328	-0,427	76,975	0	1007,98	5,7	7,8	7,6	1	1	1	1	1	1	1	1	1	0	1	-67,300916	273,340622	249,218074	0
15.01.2021	00:35:04	0	0	2,485722	2,67675	72,3204	-0,425	76,988	0	1008	5,7	7,8	7,7	1	1	1	1	1	1	1	1	1	0	1	-70,331219	273,291909	245,962198	0
15.01.2021	00:35:05	0	0	4,067544	2,7105	81,2232	-0,427	76,987	0	1007,92	5,7	7,8	7,7	1	1	1	1	1	1	1	1	1	0	1	-66,173362	273,166398	249,539421	0
15.01.2021	00:35:06	0	0	4,971473	2,799	73,7964	-0,429	76,996	0	1007,94	5,7	7,8	7,6	1	1	1	1	1	1	1	1	1	0	1	-70,049331	273,306223	246,31036	0
15.01.2021	00:35:07	0	0	4,745497	2,75625	71,6364	-0,424	77,005	0	1007,88	5,7	7,8	7,6	1	1	1	1	1	1	1	1	1	0	1	-73,572939	273,350666	242,992579	0
15.01.2021	00:35:08	0	0	2,711696	2,74875	46,9944	-0,421	77,005	0	1007,86	5,7	7,8	7,7	1	1	1	1	1	1	1	1	1	0	1	-73,009161	273,173508	242,736489	0
15.01.2021	00:35:09	0	0	3,050658	2,7315	57,7548	-0,418	77,003	0	1008,1	5,7	7,8	7,7	1	1	1	1	1	1	1	1	1	0	1	-67,653277	273,289047	248,626893	0
15.01.2021	00:35:10	0	0	4,180557	2,58525	31,7808	-0,424	77,008	0	1008,06	5,7	7,8	7,6	1	1	1	1	1	1	1	1	1	0	1	-68,498943	273,166398	247,21384	0
15.01.2021	00:35:11	0	0	3,163665	2,51025	59,8572	-0,426	76,998	0	1007,98	5,7	7,8	7,6	1	1	1	1	1	1	1	1	1	0	1	-65,398168	273,201971	250,479101	0
15.01.2021	00:35:12	0	0	4,632481	2,40975	41,0184	-0,42	77,01	0	1008,1	5,7	7,8	7,7	1	1	1	1	1	1	1	1	1	0	1	-67,582805	273,190581	248,241788	0
15.01.2021	00:35:13	0	0	2,711713	2,51925	40,6224	-0,427	76,988	0	1007,92	5,7	7,8	7,6	1	1	1	1	1	1	1	1	1	0	1	-64,904863	273,20482	250,985581	0
15.01.2021	00:35:14	0	0	3,615573	2,53725	36,9432	-0,422	76,986	0	1007,86	5,7	7,8	7,8	1	1	1	1	1	1	1	1	1	0	1	-67,723749	273,18062	248,054783	0
15.01.2021	00:35:15	0	0	3,728582	2,50875	38,8224	-0,426	76,985	0	1007,96	5,7	7,8	7,7	1	1	1	1	1	1	1	1	1	0	1	-65,257223	273,326282	251,19535	0
15.01.2021	00:35:16	0	0	3,38962	2,6565	47,376	-0,421	77,007	0	1008,1	5,7	7,8	7,7	1	1	1	1	1	1	1	1	1	0	1	-70,754052	273,281895	245,49301	0
15.01.2021	00:35:17	0	0	3,050658	2,92575	44,028	-0,425	76,98	0	1007,9	5,7	7,8	7,7	1	1	1	1	1	1	1	1	1	0	1	-75,475687	273,170664	240,256814	0
15.01.2021	00:35:18	0	0	2,824701	3,08475	52,1316	-0,422	76,978	0	1007,88	5,7	7,8	7,6	1	1	1	1	1	1	1	1	1	0	1	-68,146582	273,299065	248,179964	0
15.01.2021	00:35:19	0	0	2,711696	3,243	46,9872	-0,419	76,975	0	1007,92	5,7	7,8	7,7	1	1	1	1	1	1	1	1	1	0	1	-69,626498	273,194851	246,217844	0
15.01.2021	00:35:20	0	0	4,293519	3,516	51,7572	-0,426	76,973	0	1008,1	5,7	7,8	7,7	1	1	1	1	1	1	1	1	1	0	1	-66,807611	273,182042	248,9775	0
15.01.2021	00:35:21	0	0	3,84157	3,60975	57,0672	-0,426	76,984	0	1007,9	5,7	7,8	7,7	1	1	1	1	1	1	1	1	1	0	1	-71,529246	273,179197	244,242709	0
15.01.2021	00:35:22	0	0	4,632481	3,435	55,5408	-0,423	76,965	0	1007,76	5,7	7,8	7,7	1	1	1	1	1	1	1	1	1	0	1	-72,797745	273,287616	243,475802	0
15.01.2021	00:35:23	0	0	3,163646	3,402	62,4312	-0,421	76,976	0	1008,04	5,7	7,8	7,7	1	1	1	1	1	1	1	1	1	0	1	-75,123326	273,173508	240,622324	0
15.01.2021	00:35:24	0	0	2,71168	3,3495	49,9608	-0,424	76,984	0	1007,92	5,7	7,8	7,8	1	1	1	1	1	1	1	1	1	0	1	-69,69697	273,290478	246,589824	0
15.01.2021	00:35:25	0	0	2,824684	3,61575	59,8788	-0,426	76,988	0	1007,98	5,7	7,8	7,7	1	1	1	1	1	1	1	1	1	0	1	-71,035941	273,354973	245,549527	0
15.01.2021	00:35:26	0	0	4,971443	3,79275	69,1488	-0,424	76,974	0	1007,98	5,7	7,8	7,7	1	1	1	1	1	1	1	1	1	0	1	-69,203665	273,23333	246,818658	0
15.01.2021	00:35:27	0	0	2,598709	3,62625	69,8688	-0,426	76,98	0	1008,16	5,7	7,8	7,7	1	1	1	1	1	1	1	1	1	0	1	-70,401691	273,334885	246,090725	0
15.01.2021	00:35:28	0	0	3,163646	3,38325	62,4168	-0,425	76,972	0	1007,92	5,8	7,8	7,7	1	1	1	1	1	1	1	1	1	0	1	-67,44186	273,211944	248,48153	0
15.01.2021	00:35:29	0	0	4,971473	3,01275	53,3556	-0,427	76,971	0	1007,9	5,7	7,8	7,6	1	1	1	1	1	1	1	1	1	0	1	-72,656801	273,336319	243,842258	0
15.01.2021	00:35:30	0	0	2,824701	2,89575	32,5008	-0,427	76,963	0	1008,08	5,7	7,8	7,6	1	1	1	1	1	1	1	1	1	0	1	-73,9253	273,172086	241,813776	0
15.01.2021	00:35:31	0	0	4,632481	2,9415	54,4968	-0,423	76,962	0	1007,92	5,7	7,8	7,7	1	1	1	1	1	1	1	1	1	0	1	-70,190275	273,280465	246,050167	0
15.01.2021	00:35:32	0	0	3,841593	2,84925	42,5988	-0,422	76,962	0	1008	5,7	7,8	7,6	1	1	1	1	1	1	1	1	1	0	1	-69,908386	273,337753	246,597316	0
15.01.2021	00:35:33	0	0	4,519494	2,787	44,4024	-0,425	76,957	0	1008,02	5,7	7,8	7,7	1	1	1	1	1	1	1	1	1	0	1	-67,935166	273,26474	248,232498	0
15.01.2021	00:35:34	0	0	4,745468	3,03675	35,0892	-0,421	76,935	0	1007,94	5,7	7,8	7,7	1	1	1	1	1	1	1	1	1	0	1	-65,680056	273,343491	250,852225	0
15.01.2021	00:35:35	0	0	3,163646	3,22275	46,5732	-0,421	76,932	0	1008,08	5,7	7,8	7,7	1	1	1	1	1	1	1	1	1	0	1	-67,794221	273,243319	248,274314	0
15.01.2021	00:35:36	0	0	4,519494	3,1905	38,4228	-0,428	76,932	0	1008	5,7	7,8	7,7	1	1	1	1	1	1	1	1	1	0	1	-65,609584	273,160713	250,076915	0
15.01.2021	00:35:37	0	0	4,406533	2,937	41,4504	-0,426	76,933	0	1007,82	5,7	7,8	7,6	1	1	1	1	1	1	1	1	1	0	1	-75,405215	273,259025	240,736001	0
15.01.2021	00:35:38	0	0	2,824684	2,715	51,4332	-0,428	76,914	0	1007,9	5,7	7,8	7,7	1	1	1	1	1	1	1	1	1	0	1	-70,260747	273,321982	246,171913	0
15.01.2021	00:35:39	0	0	5,310405	2,69925	49,968	-0,424	76,923	0	1007,94	5,7	7,8	7,7	1	1	1	1	1	1	1	1	1	0	1	-70,613108	273,324848	245,832827	0
15.01.2021	00:35:40	0	0	4,858456	2,7285	32,6196	-0,428	76,911	0	1008,08	5,7	7,8	7,7	1	1	1	1	1	1	1	1	1	0	1	-71,247357	273,284755	245,012946	0
15.01.2021	00:35:41	0	0	4,293545	2,96325	47,7576	-0,43	76,906	0	1007,98	5,7	7,8	7,6	1	1	1	1	1	1	1	1	1	0	1	-73,9253	273,240464	242,130029	0
15.01.2021	00:35:42	0	0	3,615617	2,98125	41,0004	-0,424	76,906	0	1008	5,7	7,8	7,6	1	1	1	1	1	1	1	1	1	0	1	-68,005638	273,153608	247,64802	0
15.01.2021	00:35:43	0	0	2,937653	3,045	45,5508	-0,428	76,879	0	1007,9	5,7	7,8	7,8	1	1	1	1	1	1	1	1	1	0	1	-69,274137	273,247601	246,814214	0
15.01.2021	00:35:44	0	0	3,163665	3,22425	55,1952	-0,431	76,89	0	1007,8	5,7	7,8	7,6	1	1	1	1	1	1	1	1	1	0	1	-72,445384	273,329149	244,020468	0
15.01.2021	00:35:45	0	0	4,745468	3,408	54,7812	-0,431	76,889	0	1008,04	5,7	7,8	7,7	1	1	1	1	1	1	1	1	1	0	1	-66,878083	273,220495	249,084864	0
15.01.2021	00:35:46	0	0	4,519494	3,55425	50,6916	-0,431	76,869	0	1007,9	5,7	7,8	7,7	1	1	1	1	1	1	1	1	1	0	1	-68,005638	273,150767	247,634888	0
15.01.2021	00:35:47	0	0	4,293519	3,4155	60,8976	-0,43	76,872	0	1007,88	5,7	7,8	7,7	1	1	1	1	1	1	1	1	1	0	1	-72,163495	273,266169	244,010781	0
15.01.2021	00:35:48	0	0	2,485722	3,10725	57,7512	-0,426	76,887	0	1007,96	5,7	7,8	7,7	1	1	1	1	1	1	1	1	1	0	1	-70,119803	273,33345	246,365972	0
15.01.2021	00:35:49	0	0	3,050677	2,9055	39,15	-0,428	76,89	0	1007,94	5,7	7,8	7,6	1	1	1	1	1	1	1	1	1	0	1	-65,609584	273,249029	250,485372	0
15.01.2021	00:35:50	0	0	2,711696	2,78925	75,9852	-0,426	76,894	0	1008,04	5,7	7,8	7,7	1	1	1	1	1	1	1	1	1	0	1	-70,190275	273,169242	245,535653	0
15.01.2021	00:35:51	0	0	3,163646	2,78925	63,4968	-0,432	76,915	0	1007,94	5,7	7,8	7,7	1	1	1	1	1	1	1	1	1	0	1	-69,69697	273,210519	246,21983	0
15.01.2021	00:35:52	0	0	2,372748	2,937	51,7464	-0,428	76,942	0	1007,88	5,7	7,8	7,6	1	1	1	1	1	1	1	1	1	0	1	-72,093023	273,162134	243,600046	0
15.01.2021	00:35:53	0	0	4,067544	3,52275	52,1388	-0,432	76,949	0	1007,96	5,7	7,8	7,7	1	1	1	1	1	1	1	1	1	0	1	-73,150106	273,194851	242,694236	0
15.01.2021	00:35:54	0	0	3,502608	4,155	63,1584	-0,427	76,978	0	1007,94	5,7	7,8	7,7	1	1	1	1	1	1	1	1	1	0	1	-69,415081	273,334885	247,077335	0
15.01.2021	00:35:55	0	0	3,276633	3,91125	46,9764	-0,431	76,993	0	1007,98	5,7	7,8	7,7	1	1	1	1	1	1	1	1	1	0	1	-72,374912	273,199123	243,489184	0
15.01.2021	00:35:56	0	0	2,937671	3,87	45,5472	-0,427	77,027	0	1007,96	5,7	7,8	7,7	1	1	1	1	1	1	1	1	1	0	1	-69,203665	273,200547	246,667017	0
15.01.2021	00:35:57	0	0	4,632509	3,72	45,5364	-0,432	77,038	0	1008	5,7	7,8	7,6	1	1	1	1	1	1	1	1	1	0	1	-73,572939	273,31052	242,806645	0
15.01.2021	00:35:58	0	0	2,598709	3,49575	60,9408	-0,423	77,06	0	1007,84	5,7	7,8	7,7	1	1	1	1	1	1	1	1	1	0	1	-71,106413	273,320549	245,31961	0
15.01.2021	00:35:59	0	0	4,632509	3,324	68,0076	-0,433	77,055	0	1007,98	5,7	7,8	7,6	1	1	1	1	1	1	1	1	1	0	1	-65,257223	273,320549	251,1688	0
15.01.2021	00:36:00	0	0	4,067544	3,25125	53,334	-0,423	77,093	0	1007,9	5,7	7,8	7,7	1	1	1	1	1	1	1	1	1	0	1	-67,794221	273,294771	248,512446	0
15.01.2021	00:36:01	0	0	2,937689	3,072	65,466	-0,428	77,076	0	1007,8	5,7	7,8	7,6	1	1	1	1	1	1	1	1	1	0	1	-65,891473	273,223347	250,084665	0
15.01.2021	00:36:02	0	0	2,937689	3,072	65,466	-0,428	77,076	0	1007,8	5,7	7,8	7,6	1	1	1	1	1	1	1	1	1	0	1	-65,891473	273,223347	250,084665	0
15.01.2021	00:36:03	0	0	4,858456	2,90775	74,1744	-0,43	77,098	0	1008,1	5,7	7,8	7,7	1	1	1	1	1	1	1	1	1	0	1	-71,106413	273,146506	244,514419	0
15.01.2021	00:36:04	0	0	2,937689	3,06825	68,4144	-0,432	77,096	0	1007,88	5,7	7,8	7,6	1	1	1	1	1	1	1	1	1	0	1	-70,68358	273,273316	245,523772	0
15.01.2021	00:36:05	0	0	4,293493	3,2445	63,5652	-0,431	77,094	0	1007,72	5,7	7,8	7,8	1	1	1	1	1	1	1	1	1	0	1	-70,331219	273,344926	246,207708	0
15.01.2021	00:36:06	0	0	3,728605	3,43875	63,2124	-0,425	77,091	0	1007,82	5,7	7,8	7,6	1	1	1	1	1	1	1	1	1	0	1	-69,344609	273,224773	246,638125	0
15.01.2021	00:36:07	0	0	3,502608	3,40275	59,4972	-0,428	77,084	0	1007,94	5,7	7,8	7,7	1	1	1	1	1	1	1	1	1	0	1	-74,841438	273,327715	241,617775	0
15.01.2021	00:36:08	0	0	4,406506	3,24375	62,4276	-0,423	77,079	0	1007,98	5,7	7,8	7,7	1	1	1	1	1	1	1	1	1	0	1	-66,737139	273,281895	249,509923	0
15.01.2021	00:36:09	0	0	5,084431	2,916	49,284	-0,428	77,067	0	1007,74	5,7	7,8	7,7	1	1	1	1	1	1	1	1	1	0	1	-73,361522	273,31625	243,044595	0
15.01.2021	00:36:10	0	0	4,180532	2,6925	53,73	-0,428	77,067	0	1008,04	5,7	7,8	7,7	1	1	1	1	1	1	1	1	1	0	1	-69,133192	273,20482	246,757251	0
15.01.2021	00:36:11	0	0	4,632481	2,7615	56,664	-0,427	77,059	0	1007,98	5,7	7,8	7,7	1	1	1	1	1	1	1	1	1	0	1	-70,190275	273,343491	246,342006	0
15.01.2021	00:36:12	0	0	2,824701	2,8515	69,8436	-0,428	77,035	0	1007,76	5,7	7,8	7,6	1	1	1	1	1	1	1	1	1	0	1	-68,992248	273,259025	247,148968	0
15.01.2021	00:36:13	0	0	3,502608	2,84925	53,0028	-0,431	77,036	0	1007,86	5,7	7,8	7,7	1	1	1	1	1	1	1	1	1	0	1	-71,811135	273,342057	244,714501	0
15.01.2021	00:36:14	0	0	3,84157	2,784	68,0112	-0,429	77,021	0	1007,82	5,7	7,8	7,7	1	1	1	1	1	1	1	1	1	0	1	-64,83439	273,187734	250,977039	0
15.01.2021	00:36:15	0	0	2,711713	2,754	35,1108	-0,424	77,021	0	1008	5,7	7,8	7,6	1	1	1	1	1	1	1	1	1	0	1	-68,428471	273,342057	248,097165	0
15.01.2021	00:36:16	0	0	3,502608	2,697	52,1208	-0,424	76,991	0	1008	5,7	7,8	7,7	1	1	1	1	1	1	1	1	1	0	1	-70,68358	273,241891	245,378352	0
15.01.2021	00:36:17	0	0	4,858456	2,79375	46,6092	-0,422	77,003	0	1007,92	5,7	7,8	7,7	1	1	1	1	1	1	1	1	1	0	1	-69,556025	273,314817	246,843458	0
15.01.2021	00:36:18	0	0	4,293519	3	45,522	-0,417	76,988	0	1008	5,7	7,8	7,7	1	1	1	1	1	1	1	1	1	0	1	-69,06272	273,183465	246,728969	0
15.01.2021	00:36:19	0	0	2,711696	3,2745	50,3028	-0,421	76,969	0	1008,06	5,7	7,8	7,7	1	1	1	1	1	1	1	1	1	0	1	-69,133192	273,304791	247,219868	0
15.01.2021	00:36:20	0	0	4,745468	3,19425	44,3988	-0,422	76,952	0	1007,84	5,7	7,8	7,7	1	1	1	1	1	1	1	1	1	0	1	-68,005638	273,172086	247,733438	0
15.01.2021	00:36:21	0	0	3,728582	3,1005	48,8196	-0,426	76,947	0	1007,98	5,7	7,8	7,7	1	1	1	1	1	1	1	1	1	0	1	-69,767442	273,323415	246,671855	0
15.01.2021	00:36:22	0	0	2,485722	3,0435	69,8364	-0,423	76,94	0	1008,06	5,7	7,8	7,7	1	1	1	1	1	1	1	1	1	0	1	-68,217054	273,280465	248,023388	0
15.01.2021	00:36:23	0	0	4,971473	2,958	54,81	-0,428	76,933	0	1007,94	5,7	7,8	7,6	1	1	1	1	1	1	1	1	1	0	1	-71,599718	273,162134	244,093351	0
15.01.2021	00:36:24	0	0	5,423393	2,80275	64,818	-0,432	76,932	0	1007,9	5,7	7,8	7,7	1	1	1	1	1	1	1	1	1	0	1	-69,556025	273,211944	246,367365	0
15.01.2021	00:36:25	0	0	4,406506	2,673	52,5204	-0,426	76,934	0	1007,84	5,7	7,8	7,7	1	1	1	1	1	1	1	1	1	0	1	-67,582805	273,15645	248,083988	0
15.01.2021	00:36:26	0	0	3,502587	3,009	47,7684	-0,428	76,946	0	1007,98	5,7	7,8	7,8	1	1	1	1	1	1	1	1	1	0	1	-70,894996	273,210519	245,021804	0
15.01.2021	00:36:27	0	0	2,598709	3,15375	46,242	-0,431	76,936	0	1007,96	5,7	7,8	7,7	1	1	1	1	1	1	1	1	1	0	1	-69,415081	273,149347	246,218879	0
15.01.2021	00:36:28	0	0	5,084431	3,201	46,9836	-0,43	76,936	0	1007,96	5,7	7,8	7,7	1	1	1	1	1	1	1	1	1	0	1	-73,9253	273,29334	242,374743	0
15.01.2021	00:36:29	0	0	2,711696	3,5565	42,606	-0,424	76,944	0	1008,12	5,7	7,8	7,7	1	1	1	1	1	1	1	1	1	0	1	-71,811135	273,297633	244,508785	0
15.01.2021	00:36:30	0	0	2,711696	3,92175	58,464	-0,426	76,965	0	1008,06	5,7	7,8	7,7	1	1	1	1	1	1	1	1	1	0	1	-63,565891	273,196275	252,285034	0
15.01.2021	00:36:31	0	0	4,180532	4,00275	58,14	-0,431	76,952	0	1007,98	5,7	7,8	7,7	1	1	1	1	1	1	1	1	1	0	1	-65,186751	273,274745	251,027217	0
15.01.2021	00:36:32	0	0	2,937671	3,8925	61,722	-0,427	76,968	0	1007,98	5,7	7,8	7,7	1	1	1	1	1	1	1	1	1	0	1	-67,300916	273,159292	248,379014	0
15.01.2021	00:36:33	0	0	3,954557	4,03125	66,1968	-0,432	76,964	0	1007,92	5,7	7,8	7,7	1	1	1	1	1	1	1	1	1	0	1	-70,68358	273,200547	245,187102	0
15.01.2021	00:36:34	0	0	3,728582	3,95475	71,586	-0,424	76,982	0	1007,94	5,7	7,8	7,7	1	1	1	1	1	1	1	1	1	0	1	-67,512333	273,145086	248,101935	0
15.01.2021	00:36:35	0	0	4,858456	3,8835	67,6764	-0,434	76,978	0	1008,02	5,7	7,8	7,7	1	1	1	1	1	1	1	1	1	0	1	-68,287526	273,270457	247,906594	0
15.01.2021	00:36:36	0	0	3,050658	3,6825	67,3092	-0,425	76,982	0	1007,98	5,7	7,8	7,7	1	1	1	1	1	1	1	1	1	0	1	-68,710359	273,304791	247,642701	0
15.01.2021	00:36:37	0	0	3,38962	3,36825	62,0136	-0,431	76,983	0	1007,94	5,7	7,8	7,7	1	1	1	1	1	1	1	1	1	0	1	-69,978858	273,200547	245,891824	0
15.01.2021	00:36:38	0	0	3,050658	2,922	56,2788	-0,427	76,995	0	1007,92	5,7	7,8	7,7	1	1	1	1	1	1	1	1	1	0	1	-70,331219	273,147927	245,296176	0
15.01.2021	00:36:39	0	0	3,050658	2,62425	44,4708	-0,426	77,006	0	1007,82	5,7	7,8	7,7	1	1	1	1	1	1	1	1	1	0	1	-69,767442	273,187734	246,043988	0
15.01.2021	00:36:40	0	0	4,519521	2,403	75,6252	-0,425	77,017	0	1007,96	5,7	7,8	7,6	1	1	1	1	1	1	1	1	1	0	1	-68,428471	273,317683	247,984281	0
15.01.2021	00:36:41	0	0	3,050677	2,45175	68,0112	-0,426	77,016	0	1007,94	5,7	7,8	7,6	1	1	1	1	1	1	1	1	1	0	1	-68,569415	273,182042	247,215696	0
15.01.2021	00:36:42	0	0	3,615595	2,49375	55,926	-0,427	77,031	0	1007,94	5,7	7,8	7,7	1	1	1	1	1	1	1	1	1	0	1	-68,639887	273,267598	247,541003	0
15.01.2021	00:36:43	0	0	3,05064	2,805	69,1596	-0,429	77,033	0	1007,9	5,7	7,8	7,8	1	1	1	1	1	1	1	1	1	0	1	-71,388302	273,149347	244,245659	0
15.01.2021	00:36:44	0	0	3,502608	3,08925	56,6748	-0,427	77,05	0	1007,76	5,7	7,8	7,7	1	1	1	1	1	1	1	1	1	0	1	-65,46864	273,199123	250,395456	0
15.01.2021	00:36:45	0	0	3,276653	3,0675	72,6948	-0,424	77,057	0	1007,76	5,7	7,8	7,6	1	1	1	1	1	1	1	1	1	0	1	-67,159972	273,321982	249,272688	0
15.01.2021	00:36:46	0	0	3,050677	2,8815	58,1364	-0,425	77,067	0	1007,98	5,7	7,8	7,6	1	1	1	1	1	1	1	1	1	0	1	-69,556025	273,196275	246,2949	0
15.01.2021	00:36:47	0	0	4,519494	2,89575	51,4404	-0,424	77,074	0	1008,02	5,7	7,8	7,7	1	1	1	1	1	1	1	1	1	0	1	-68,639887	273,160713	247,046612	0
15.01.2021	00:36:48	0	0	3,954533	3,04575	61,6932	-0,426	77,069	0	1007,94	5,7	7,8	7,8	1	1	1	1	1	1	1	1	1	0	1	-71,388302	273,332016	245,090831	0
15.01.2021	00:36:49	0	0	3,050677	3,234	78,282	-0,426	77,088	0	1007,9	5,7	7,8	7,6	1	1	1	1	1	1	1	1	1	0	1	-72,586328	273,203396	243,297527	0
15.01.2021	00:36:50	0	0	4,632481	3,261	75,2472	-0,423	77,089	0	1007,86	5,7	7,8	7,7	1	1	1	1	1	1	1	1	1	0	1	-73,009161	273,340622	243,509829	0
15.01.2021	00:36:51	0	0	4,745497	3,12375	74,178	-0,425	77,097	0	1008	5,7	7,8	7,6	1	1	1	1	1	1	1	1	1	0	1	-72,868217	273,286186	243,398708	0
15.01.2021	00:36:52	0	0	3,615595	3,42675	69,8544	-0,428	77,1	0	1008,08	5,7	7,8	7,7	1	1	1	1	1	1	1	1	1	0	1	-66,314306	273,329149	250,151546	0
15.01.2021	00:36:53	0	0	4,632481	3,4845	77,2236	-0,426	77,106	0	1008,02	5,7	7,8	7,7	1	1	1	1	1	1	1	1	1	0	1	-68,428471	273,184888	247,369798	0
15.01.2021	00:36:54	0	0	4,745497	3,4395	72,3024	-0,427	77,098	0	1007,84	5,7	7,8	7,6	1	1	1	1	1	1	1	1	1	0	1	-71,247357	273,304791	245,105703	0
15.01.2021	00:36:55	0	0	2,485736	3,44775	65,826	-0,428	77,099	0	1007,92	5,7	7,9	7,6	1	1	1	1	1	1	1	1	1	0	1	-65,609584	273,164977	250,096627	0
15.01.2021	00:36:56	0	0	3,276653	3,41175	68,022	-0,424	77,081	0	1007,98	5,7	7,8	7,6	1	1	1	1	1	1	1	1	1	0	1	-69,908386	273,303359	246,438045	0
15.01.2021	00:36:57	0	0	4,632509	3,726	69,4944	-0,427	77,072	0	1007,96	5,7	7,8	7,6	1	1	1	1	1	1	1	1	1	0	1	-70,894996	273,332016	245,584136	0
15.01.2021	00:36:58	0	0	3,728605	3,89025	75,2328	-0,425	77,071	0	1007,94	5,7	7,8	7,6	1	1	1	1	1	1	1	1	1	0	1	-72,868217	273,281895	243,378845	0
15.01.2021	00:36:59	0	0	5,084431	3,63675	80,1468	-0,427	77,043	0	1007,96	5,7	7,8	7,7	1	1	1	1	1	1	1	1	1	0	1	-64,059197	273,160713	251,627302	0
15.01.2021	00:37:00	0	0	4,745468	3,26175	70,8552	-0,424	77,013	0	1007,96	5,7	7,8	7,7	1	1	1	1	1	1	1	1	1	0	1	-70,049331	273,299065	246,277216	0
15.01.2021	00:37:01	0	0	4,067544	3,18825	77,9724	-0,422	76,98	0	1007,98	5,7	7,8	7,7	1	1	1	1	1	1	1	1	1	0	1	-75,687104	273,269027	240,500401	0
15.01.2021	00:37:02	0	0	4,067544	3,18825	77,9724	-0,422	76,98	0	1007,98	5,7	7,8	7,7	1	1	1	1	1	1	1	1	1	0	1	-75,687104	273,269027	240,500401	0
15.01.2021	00:37:03	0	0	4,745468	3,309	69,1668	-0,429	76,953	0	1007,9	5,7	7,8	7,7	1	1	1	1	1	1	1	1	1	0	1	-65,821001	273,330583	250,651491	0
15.01.2021	00:37:04	0	0	3,84157	3,87525	69,1956	-0,426	76,931	0	1007,96	5,7	7,8	7,7	1	1	1	1	1	1	1	1	1	0	1	-74,700493	273,247601	241,387857	0
15.01.2021	00:37:05	0	0	2,937671	4,4325	74,5668	-0,427	76,932	0	1007,92	5,7	7,8	7,7	1	1	1	1	1	1	1	1	1	0	1	-73,784355	273,33345	242,701419	0
15.01.2021	00:37:06	0	0	3,163646	4,45275	76,3704	-0,426	76,943	0	1007,94	5,7	7,8	7,7	1	1	1	1	1	1	1	1	1	0	1	-71,106413	273,274745	245,107556	0
15.01.2021	00:37:07	0	0	4,745468	4,45725	70,866	-0,425	76,945	0	1007,96	5,7	7,8	7,7	1	1	1	1	1	1	1	1	1	0	1	-65,680056	273,313385	250,712793	0
15.01.2021	00:37:08	0	0	3,38962	4,34175	69,8544	-0,421	76,946	0	1007,98	5,7	7,9	7,7	1	1	1	1	1	1	1	1	1	0	1	-70,190275	273,194851	245,654067	0
15.01.2021	00:37:09	0	0	4,858456	4,27575	79,02	-0,427	76,954	0	1007,92	5,7	7,8	7,7	1	1	1	1	1	1	1	1	1	0	1	-70,894996	273,332016	245,584136	0
15.01.2021	00:37:10	0	0	3,954533	4,104	74,5452	-0,425	76,949	0	1008,02	5,7	7,8	7,8	1	1	1	1	1	1	1	1	1	0	1	-70,613108	273,253312	245,501671	0
15.01.2021	00:37:11	0	0	4,180532	3,837	72,2988	-0,427	76,94	0	1008,06	5,7	7,8	7,7	1	1	1	1	1	1	1	1	1	0	1	-69,203665	273,327715	247,255548	0
15.01.2021	00:37:12	0	0	4,519494	3,5625	70,2324	-0,424	76,931	0	1007,94	5,7	7,8	7,7	1	1	1	1	1	1	1	1	1	0	1	-69,133192	273,280465	247,10725	0
15.01.2021	00:37:13	0	0	4,632481	3,5805	69,4656	-0,423	76,944	0	1007,92	5,7	7,8	7,7	1	1	1	1	1	1	1	1	1	0	1	-69,837914	273,149347	245,796046	0
15.01.2021	00:37:14	0	0	4,632481	3,57225	71,208	-0,425	76,932	0	1007,98	5,7	7,8	7,7	1	1	1	1	1	1	1	1	1	0	1	-68,287526	273,224773	247,695207	0
15.01.2021	00:37:15	0	0	3,84157	3,7935	70,3332	-0,422	76,959	0	1007,88	5,7	7,8	7,7	1	1	1	1	1	1	1	1	1	0	1	-68,851304	273,159292	246,828626	0
15.01.2021	00:37:16	0	0	4,971443	3,81375	66,24	-0,426	76,958	0	1007,94	5,7	7,8	7,7	1	1	1	1	1	1	1	1	1	0	1	-69,626498	273,229051	246,376028	0
15.01.2021	00:37:17	0	0	4,293545	4,092	64,242	-0,428	76,991	0	1007,86	5,7	7,8	7,6	1	1	1	1	1	1	1	1	1	0	1	-70,260747	273,164977	245,445464	0
15.01.2021	00:37:18	0	0	3,954581	4,4325	44,7768	-0,427	77,015	0	1008	5,7	7,8	7,6	1	1	1	1	1	1	1	1	1	0	1	-66,878083	273,229051	249,124442	0
15.01.2021	00:37:19	0	0	2,937671	4,41525	46,242	-0,428	77,013	0	1007,94	5,7	7,8	7,7	1	1	1	1	1	1	1	1	1	0	1	-68,357999	273,339187	248,154347	0
15.01.2021	00:37:20	0	0	4,971443	4,3215	41,8356	-0,42	77,029	0	1007,98	5,7	7,8	7,7	1	1	1	1	1	1	1	1	1	0	1	-70,049331	273,203396	245,834525	0
15.01.2021	00:37:21	0	0	2,824684	4,2195	46,2348	-0,419	77,03	0	1007,78	5,7	7,8	7,7	1	1	1	1	1	1	1	1	1	0	1	-75,264271	273,344926	241,274657	0
15.01.2021	00:37:22	0	0	4,858456	3,97275	52,128	-0,425	77,032	0	1007,94	5,7	7,8	7,7	1	1	1	1	1	1	1	1	1	0	1	-67,723749	273,236183	248,311774	0
15.01.2021	00:37:23	0	0	3,954557	3,69	44,406	-0,428	77,034	0	1008,04	5,7	7,9	7,7	1	1	1	1	1	1	1	1	1	0	1	-72,445384	273,339187	244,066962	0
15.01.2021	00:37:24	0	0	3,276653	4,03575	63,1512	-0,42	77,026	0	1008	5,7	7,8	7,6	1	1	1	1	1	1	1	1	1	0	1	-67,723749	273,243319	248,344787	0
15.01.2021	00:37:25	0	0	3,38962	4,22775	50,3028	-0,424	77,028	0	1007,88	5,7	7,8	7,7	1	1	1	1	1	1	1	1	1	0	1	-65,891473	273,182042	249,893638	0
15.01.2021	00:37:26	0	0	3,84157	4,0575	62,1036	-0,424	77,012	0	1008	5,7	7,8	7,7	1	1	1	1	1	1	1	1	1	0	1	-69,626498	273,279035	246,607325	0
15.01.2021	00:37:27	0	0	4,971443	4,0605	70,8552	-0,423	77,009	0	1008	5,7	7,9	7,7	1	1	1	1	1	1	1	1	1	0	1	-71,106413	273,187734	244,705017	0
15.01.2021	00:37:28	0	0	3,841593	3,8415	30,3228	-0,43	76,983	0	1007,74	5,7	7,8	7,6	1	1	1	1	1	1	1	1	1	0	1	-72,30444	273,291909	243,988978	0
15.01.2021	00:37:29	0	0	4,632481	3,813	47,3724	-0,42	76,983	0	1007,92	5,7	7,8	7,7	1	1	1	1	1	1	1	1	1	0	1	-67,371388	273,189157	248,446623	0
15.01.2021	00:37:30	0	0	2,937671	3,48525	61,7148	-0,42	76,967	0	1008,04	5,7	7,8	7,7	1	1	1	1	1	1	1	1	1	0	1	-68,217054	273,286186	248,049871	0
15.01.2021	00:37:31	0	0	2,598709	3,1695	44,7912	-0,424	76,969	0	1008	5,7	7,8	7,7	1	1	1	1	1	1	1	1	1	0	1	-74,982382	273,356409	241,609736	0
15.01.2021	00:37:32	0	0	3,389641	2,889	62,424	-0,419	76,972	0	1008	5,7	7,8	7,6	1	1	1	1	1	1	1	1	1	0	1	-67,512333	273,227625	248,483595	0
15.01.2021	00:37:33	0	0	4,632453	2,625	62,4312	-0,417	76,952	0	1007,96	5,7	7,9	7,8	1	1	1	1	1	1	1	1	1	0	1	-70,401691	273,184888	245,396578	0
15.01.2021	00:37:34	0	0	5,53638	2,508	87,3756	-0,414	76,952	0	1008,1	5,7	7,8	7,7	1	1	1	1	1	1	1	1	1	0	1	-75,193798	273,324848	241,252137	0
15.01.2021	00:37:35	0	0	3,728582	2,4765	66,2364	-0,415	76,939	0	1007,94	5,7	7,8	7,7	1	1	1	1	1	1	1	1	1	0	1	-74,841438	273,187734	240,969992	0
15.01.2021	00:37:36	0	0	3,276653	2,391	50,3064	-0,416	76,924	0	1008,06	5,8	7,8	7,6	1	1	1	1	1	1	1	1	1	0	1	-67,44186	273,211944	248,48153	0
15.01.2021	00:37:37	0	0	3,389641	2,439	68,0112	-0,416	76,921	0	1007,9	5,7	7,8	7,6	1	1	1	1	1	1	1	1	1	0	1	-74,207188	273,346361	242,338386	0
15.01.2021	00:37:38	0	0	5,423425	2,45175	58,0932	-0,425	76,9	0	1008,04	5,7	7,8	7,6	1	1	1	1	1	1	1	1	1	0	1	-70,68358	273,317683	245,729172	0
15.01.2021	00:37:39	0	0	4,519494	2,5245	46,2384	-0,423	76,888	0	1008,04	5,7	7,8	7,7	1	1	1	1	1	1	1	1	1	0	1	-70,472163	273,33345	246,013611	0
15.01.2021	00:37:40	0	0	2,824684	2,53875	62,0424	-0,427	76,869	0	1008	5,7	7,8	7,7	1	1	1	1	1	1	1	1	1	0	1	-66,596195	273,223347	249,379943	0
15.01.2021	00:37:41	0	0	3,38962	2,6175	60,2388	-0,412	76,871	0	1008,08	5,7	7,8	7,7	1	1	1	1	1	1	1	1	1	0	1	-69,556025	273,190581	246,268567	0
15.01.2021	00:37:42	0	0	3,615617	2,5515	67,6692	-0,422	76,87	0	1007,9	5,7	7,8	7,6	1	1	1	1	1	1	1	1	1	0	1	-68,146582	273,337753	248,35912	0
15.01.2021	00:37:43	0	0	3,954581	2,502	59,49	-0,422	76,848	0	1007,72	5,8	7,8	7,6	1	1	1	1	1	1	1	1	1	0	1	-71,247357	273,353537	245,33146	0
15.01.2021	00:37:44	0	0	3,615595	2,5695	58,5	-0,413	76,843	0	1008	5,7	8	7,7	1	1	1	1	1	1	1	1	1	0	1	-73,150106	273,369335	243,501899	0
15.01.2021	00:37:45	0	0	3,050658	2,5245	55,5516	-0,419	76,83	0	1007,86	5,7	7,8	7,7	1	1	1	1	1	1	1	1	1	0	1	-71,035941	273,290478	245,250853	0
15.01.2021	00:37:46	0	0	3,050677	2,46	52,1424	-0,416	76,815	0	1008,04	5,7	7,8	7,6	1	1	1	1	1	1	1	1	1	0	1	-73,713883	273,184888	242,084386	0
15.01.2021	00:37:47	0	0	3,050658	2,3865	47,7432	-0,418	76,812	0	1007,6	5,8	7,9	7,7	1	1	1	1	1	1	1	1	1	0	1	-70,542636	273,239037	245,506091	0
15.01.2021	00:37:48	0	0	2,937671	2,49	55,5552	-0,424	76,796	0	1008,08	5,7	8	7,7	1	1	1	1	1	1	1	1	1	0	1	-67,864693	273,187734	247,946736	0
15.01.2021	00:37:49	0	0	4,40648	2,59725	54,7884	-0,418	76,775	0	1007,92	5,8	7,8	7,8	1	1	1	1	1	1	1	1	1	0	1	-67,230444	273,314817	249,169039	0
15.01.2021	00:37:50	0	0	3,615595	2,775	57,4272	-0,416	76,766	0	1008,1	5,8	7,8	7,7	1	1	1	1	1	1	1	1	1	0	1	-74,630021	273,231904	241,385701	0
15.01.2021	00:37:51	0	0	2,711696	2,826	56,682	-0,42	76,741	0	1007,98	5,7	7,8	7,7	1	1	1	1	1	1	1	1	1	0	1	-71,599718	273,370771	245,058944	0
15.01.2021	00:37:52	0	0	2,485736	2,92425	43,6644	-0,422	76,734	0	1007,98	5,8	7,8	7,6	1	1	1	1	1	1	1	1	1	0	1	-67,864693	273,326282	248,58788	0
15.01.2021	00:37:53	0	0	4,858456	2,93775	53,7444	-0,425	76,723	0	1007,88	5,8	7,8	7,7	1	1	1	1	1	1	1	1	1	0	1	-69,978858	273,365025	246,653179	0
15.01.2021	00:37:54	0	0	4,632509	3,0015	57,024	-0,419	76,708	0	1007,66	5,7	7,8	7,6	1	1	1	1	1	1	1	1	1	0	1	-69,626498	273,332016	246,852635	0
15.01.2021	00:37:55	0	0	3,954581	3,18225	65,106	-0,424	76,701	0	1008	5,7	7,8	7,6	1	1	1	1	1	1	1	1	1	0	1	-71,67019	273,193428	244,167568	0
15.01.2021	00:37:56	0	0	3,38962	3,04575	51,7608	-0,426	76,69	0	1007,9	5,7	8	7,7	1	1	1	1	1	1	1	1	1	0	1	-72,093023	273,271886	244,107712	0
15.01.2021	00:37:57	0	0	2,937653	2,79	69,4656	-0,417	76,687	0	1008,04	5,7	7,8	7,8	1	1	1	1	1	1	1	1	1	0	1	-69,274137	273,194851	246,570205	0
15.01.2021	00:37:58	0	0	4,745468	2,75175	56,286	-0,419	76,687	0	1007,94	5,7	7,8	7,7	1	1	1	1	1	1	1	1	1	0	1	-72,445384	273,330583	244,027108	0
15.01.2021	00:37:59	0	0	4,293519	2,63325	59,562	-0,421	76,681	0	1007,94	5,7	7,9	7,7	1	1	1	1	1	1	1	1	1	0	1	-70,049331	273,362152	246,569398	0
15.01.2021	00:38:00	0	0	4,406506	2,36175	68,7852	-0,421	76,685	0	1008,04	5,8	7,8	7,7	1	1	1	1	1	1	1	1	1	0	1	-73,361522	273,349231	243,197347	0
15.01.2021	00:38:01	0	0	3,84157	2,34	73,4328	-0,427	76,666	0	1007,88	5,7	7,8	7,7	1	1	1	1	1	1	1	1	1	0	1	-71,106413	273,270457	245,087707	0
15.01.2021	00:38:02	0	0	3,84157	2,34	73,4328	-0,427	76,666	0	1007,88	5,7	7,8	7,7	1	1	1	1	1	1	1	1	1	0	1	-71,106413	273,270457	245,087707	0
15.01.2021	00:38:03	0	0	4,745468	2,35275	66,2328	-0,423	76,668	0	1008,02	5,8	7,9	7,7	1	1	1	1	1	1	1	1	1	0	1	-72,30444	273,184888	243,493829	0
15.01.2021	00:38:04	0	0	4,632509	2,385	60,228	-0,425	76,66	0	1007,94	5,8	7,8	7,6	1	1	1	1	1	1	1	1	1	0	1	-68,780832	273,299065	247,545715	0
15.01.2021	00:38:05	0	0	4,293519	2,70375	66,5352	-0,423	76,674	0	1008	5,8	7,8	7,7	1	1	1	1	1	1	1	1	1	0	1	-73,854827	273,352102	242,71734	0
15.01.2021	00:38:06	0	0	3,050658	2,8485	59,112	-0,42	76,683	0	1007,94	5,7	7,8	7,7	1	1	1	1	1	1	1	1	1	0	1	-69,274137	273,211944	246,649254	0
15.01.2021	00:38:07	0	0	3,954557	2,9775	73,9008	-0,424	76,694	0	1007,82	5,7	7,8	7,7	1	1	1	1	1	1	1	1	1	0	1	-69,908386	273,214794	246,028188	0
15.01.2021	00:38:08	0	0	2,711696	2,92125	58,122	-0,421	76,698	0	1008,04	5,8	7,8	7,7	1	1	1	1	1	1	1	1	1	0	1	-68,428471	273,362152	248,190258	0
15.01.2021	00:38:09	0	0	4,519494	2,853	55,9332	-0,425	76,696	0	1007,88	5,8	7,8	7,7	1	1	1	1	1	1	1	1	1	0	1	-69,767442	273,23761	246,274683	0
15.01.2021	00:38:10	0	0	2,711696	2,7165	53,82	-0,431	76,697	0	1007,9	5,7	7,8	7,7	1	1	1	1	1	1	1	1	1	0	1	-66,384778	273,197699	249,472733	0
15.01.2021	00:38:11	0	0	3,050658	2,7075	49,212	-0,426	76,675	0	1007,98	5,7	7,8	7,7	1	1	1	1	1	1	1	1	1	0	1	-72,30444	273,23761	243,737685	0
15.01.2021	00:38:12	0	0	2,485722	2,73225	57,7116	-0,429	76,675	0	1007,96	5,7	7,9	7,7	1	1	1	1	1	1	1	1	1	0	1	-72,093023	273,360716	244,519052	0
15.01.2021	00:38:13	0	0	3,954581	2,67375	35,0892	-0,425	76,675	0	1007,94	5,8	7,8	7,6	1	1	1	1	1	1	1	1	1	0	1	-67,935166	273,216219	248,008001	0
15.01.2021	00:38:14	0	0	4,519521	2,6835	51,768	-0,426	76,653	0	1007,84	5,7	7,8	7,6	1	1	1	1	1	1	1	1	1	0	1	-68,569415	273,309087	247,803537	0
15.01.2021	00:38:15	0	0	3,615595	2,625	48,114	-0,428	76,656	0	1007,92	5,8	7,8	7,7	1	1	1	1	1	1	1	1	1	0	1	-71,247357	273,186311	244,557492	0
15.01.2021	00:38:16	0	0	4,293493	2,50275	58,8852	-0,424	76,653	0	1007,9	5,7	7,8	7,8	1	1	1	1	1	1	1	1	1	0	1	-68,146582	273,241891	247,91535	0
15.01.2021	00:38:17	0	0	2,598725	2,373	63,504	-0,427	76,655	0	1007,92	5,8	7,8	7,6	1	1	1	1	1	1	1	1	1	0	1	-73,079634	273,366461	243,559059	0
15.01.2021	00:38:18	0	0	4,067544	2,2755	51,7356	-0,428	76,644	0	1007,92	5,7	7,8	7,7	1	1	1	1	1	1	1	1	1	0	1	-74,207188	273,254741	241,914199	0
15.01.2021	00:38:19	0	0	3,954557	2,115	63,4932	-0,429	76,632	0	1007,96	5,8	7,8	7,7	1	1	1	1	1	1	1	1	1	0	1	-70,401691	273,339187	246,110655	0
15.01.2021	00:38:20	0	0	2,824684	1,9635	78,6708	-0,427	76,633	0	1007,94	5,8	7,8	7,7	1	1	1	1	1	1	1	1	1	0	1	-72,797745	273,356409	243,794374	0
15.01.2021	00:38:21	0	0	2,372734	2,05275	78,6816	-0,429	76,621	0	1007,88	5,7	7,8	7,7	1	1	1	1	1	1	1	1	1	0	1	-73,854827	273,372208	242,810492	0
15.01.2021	00:38:22	0	0	2,711696	2,06025	84,0024	-0,432	76,623	0	1007,98	5,7	7,8	7,7	1	1	1	1	1	1	1	1	1	0	1	-72,093023	273,250457	244,00854	0
15.01.2021	00:38:23	0	0	3,72856	2,06475	82,35	-0,429	76,611	0	1008,04	5,7	7,8	7,8	1	1	1	1	1	1	1	1	1	0	1	-67,582805	273,353537	248,996012	0
15.01.2021	00:38:24	0	0	3,276633	2,088	69,84	-0,428	76,609	0	1007,88	5,7	7,8	7,7	1	1	1	1	1	1	1	1	1	0	1	-66,948555	273,207669	248,955065	0
15.01.2021	00:38:25	0	0	3,163646	2,118	60,2532	-0,431	76,58	0	1007,8	5,8	7,8	7,7	1	1	1	1	1	1	1	1	1	0	1	-68,851304	273,334885	247,641113	0
15.01.2021	00:38:26	0	0	4,067544	2,1915	62,4168	-0,43	76,576	0	1007,9	5,8	7,8	7,7	1	1	1	1	1	1	1	1	1	0	1	-65,46864	273,194851	250,375702	0
15.01.2021	00:38:27	0	0	2,598725	2,1675	63,1728	-0,43	76,578	0	1008,06	5,7	7,8	7,6	1	1	1	1	1	1	1	1	1	0	1	-65,327696	273,251884	250,780475	0
15.01.2021	00:38:28	0	0	2,711696	2,22225	72,6696	-0,437	76,552	0	1007,98	5,7	7,8	7,7	1	1	1	1	1	1	1	1	1	0	1	-69,485553	273,362152	247,133175	0
15.01.2021	00:38:29	0	0	3,276633	2,3145	57,0276	-0,428	76,563	0	1007,8	5,7	8	7,7	1	1	1	1	1	1	1	1	1	0	1	-69,556025	273,200547	246,314657	0
15.01.2021	00:38:30	0	0	3,84157	2,25825	60,9192	-0,433	76,552	0	1007,98	5,8	7,8	7,7	1	1	1	1	1	1	1	1	1	0	1	-68,851304	273,270457	247,342816	0
15.01.2021	00:38:31	0	0	4,293519	2,3925	59,1012	-0,437	76,53	0	1007,78	5,7	7,8	7,7	1	1	1	1	1	1	1	1	1	0	1	-67,019027	273,365025	249,61301	0
15.01.2021	00:38:32	0	0	3,389641	2,53575	58,8708	-0,432	76,569	0	1007,98	5,7	7,8	7,6	1	1	1	1	1	1	1	1	1	0	1	-73,572939	273,29334	242,727103	0
15.01.2021	00:38:33	0	0	3,276633	2,6145	56,6568	-0,433	76,56	0	1008,12	5,8	7,8	7,7	1	1	1	1	1	1	1	1	1	0	1	-72,30444	273,193428	243,533318	0
15.01.2021	00:38:34	0	0	4,858456	2,53425	51,426	-0,44	76,552	0	1007,88	5,8	7,8	7,7	1	1	1	1	1	1	1	1	1	0	1	-67,44186	273,223347	248,534277	0
15.01.2021	00:38:35	0	0	3,163646	2,334	54,8136	-0,431	76,572	0	1007,92	5,7	7,8	7,7	1	1	1	1	1	1	1	1	1	0	1	-71,458774	273,182042	244,326337	0
15.01.2021	00:38:36	0	0	4,406506	2,21775	59,1768	-0,434	76,568	0	1007,96	5,7	7,8	7,7	1	1	1	1	1	1	1	1	1	0	1	-65,257223	273,329149	251,208629	0
15.01.2021	00:38:37	0	0	4,06752	2,16825	66,942	-0,441	76,579	0	1007,9	5,7	7,8	7,8	1	1	1	1	1	1	1	1	1	0	1	-67,794221	273,186311	248,010628	0
15.01.2021	00:38:38	0	0	3,050658	2,0925	51,4332	-0,435	76,58	0	1008	5,8	7,8	7,7	1	1	1	1	1	1	1	1	1	0	1	-67,794221	273,31052	248,585363	0
15.01.2021	00:38:39	0	0	4,745497	2,133	56,6676	-0,443	76,59	0	1007,9	5,8	7,8	7,6	1	1	1	1	1	1	1	1	1	0	1	-67,653277	273,362152	248,965452	0
15.01.2021	00:38:40	0	0	3,38962	2,13975	52,1352	-0,437	76,596	0	1007,96	5,8	7,8	7,7	1	1	1	1	1	1	1	1	1	0	1	-70,401691	273,220495	245,561256	0
15.01.2021	00:38:41	0	0	4,180532	2,1285	48,1212	-0,443	76,604	0	1007,84	5,7	7,8	7,7	1	1	1	1	1	1	1	1	1	0	1	-67,512333	273,363589	249,11305	0
15.01.2021	00:38:42	0	0	4,067544	2,0775	57,042	-0,437	76,62	0	1008	5,7	7,8	7,7	1	1	1	1	1	1	1	1	1	0	1	-65,257223	273,190581	250,567369	0
15.01.2021	00:38:43	0	0	4,74544	2,244	49,5756	-0,439	76,618	0	1007,98	5,7	7,8	7,8	1	1	1	1	1	1	1	1	1	0	1	-68,428471	273,317683	247,984281	0
15.01.2021	00:38:44	0	0	4,519494	2,3625	54,8064	-0,438	76,617	0	1008,04	5,7	7,8	7,7	1	1	1	1	1	1	1	1	1	0	1	-70,260747	273,35928	246,344675	0
15.01.2021	00:38:45	0	0	2,37272	2,439	48,8052	-0,436	76,631	0	1008,06	5,7	7,8	7,8	1	1	1	1	1	1	1	1	1	0	1	-70,401691	273,256169	245,726305	0
15.01.2021	00:38:46	0	0	4,519494	2,43675	49,2084	-0,437	76,622	0	1007,98	5,8	7,8	7,7	1	1	1	1	1	1	1	1	1	0	1	-75,687104	273,369335	240,964901	0
15.01.2021	00:38:47	0	0	3,163646	2,4255	51,7428	-0,441	76,625	0	1007,94	5,7	7,8	7,7	1	1	1	1	1	1	1	1	1	0	1	-72,30444	273,319116	244,114948	0
15.01.2021	00:38:48	0	0	3,38962	2,50875	54,8028	-0,439	76,626	0	1008,02	5,7	7,8	7,7	1	1	1	1	1	1	1	1	1	0	1	-72,163495	273,360716	244,44858	0
15.01.2021	00:38:49	0	0	4,971413	2,5965	39,8628	-0,44	76,636	0	1008	5,8	7,8	7,8	1	1	1	1	1	1	1	1	1	0	1	-71,529246	273,253312	244,585533	0
15.01.2021	00:38:50	0	0	3,728582	2,77425	37,6884	-0,438	76,656	0	1008,04	5,7	7,8	7,7	1	1	1	1	1	1	1	1	1	0	1	-72,093023	273,18062	243,685509	0
15.01.2021	00:38:51	0	0	3,163646	3,1005	40,9968	-0,439	76,647	0	1007,92	5,7	7,9	7,7	1	1	1	1	1	1	1	1	1	0	1	-66,45525	273,216219	249,487916	0
15.01.2021	00:38:52	0	0	5,084431	3,32475	48,8304	-0,439	76,678	0	1008	5,7	7,9	7,7	1	1	1	1	1	1	1	1	1	0	1	-69,837914	273,224773	246,144819	0
15.01.2021	00:38:53	0	0	3,050658	3,4575	47,3724	-0,441	76,74	0	1007,94	5,7	7,8	7,7	1	1	1	1	1	1	1	1	1	0	1	-69,274137	273,20482	246,616307	0
15.01.2021	00:38:54	0	0	2,485722	3,3285	43,7616	-0,445	76,691	0	1007,96	5,7	7,8	7,7	1	1	1	1	1	1	1	1	1	0	1	-74,348132	273,354973	242,237335	0
15.01.2021	00:38:55	0	0	3,502608	3,2115	55,944	-0,438	76,714	0	1007,98	5,8	7,8	7,7	1	1	1	1	1	1	1	1	1	0	1	-64,270613	273,267598	251,910277	0
15.01.2021	00:38:56	0	0	2,372734	3,11475	54,126	-0,445	76,697	0	1007,9	5,7	7,8	7,7	1	1	1	1	1	1	1	1	1	0	1	-66,243834	273,183465	249,547856	0
15.01.2021	00:38:57	0	0	3,38962	2,99625	55,9368	-0,445	76,708	0	1007,98	5,8	7,8	7,7	1	1	1	1	1	1	1	1	1	0	1	-71,67019	273,243319	244,398345	0
15.01.2021	00:38:58	0	0	5,310405	2,8935	46,998	-0,447	76,712	0	1007,96	5,7	7,8	7,7	1	1	1	1	1	1	1	1	1	0	1	-66,948555	273,177775	248,816823	0
15.01.2021	00:38:59	0	0	4,06752	2,781	65,4912	-0,44	76,726	0	1007,9	5,7	7,8	7,8	1	1	1	1	1	1	1	1	1	0	1	-72,515856	273,269027	243,671649	0
15.01.2021	00:39:00	0	0	4,067544	2,77725	41,4756	-0,44	76,719	0	1007,86	5,7	7,8	7,7	1	1	1	1	1	1	1	1	1	0	1	-72,727273	273,254741	243,394114	0
15.01.2021	00:39:01	0	0	4,971443	2,664	44,4168	-0,445	76,709	0	1008,02	5,7	7,8	7,7	1	1	1	1	1	1	1	1	1	0	1	-67,159972	273,173508	248,585678	0
15.01.2021	00:39:02	0	0	4,971443	2,664	44,4168	-0,445	76,709	0	1008,02	5,7	7,8	7,7	1	1	1	1	1	1	1	1	1	0	1	-67,159972	273,173508	248,585678	0
15.01.2021	00:39:03	0	0	3,728605	2,44575	50,2956	-0,448	76,706	0	1007,96	5,7	7,8	7,6	1	1	1	1	1	1	1	1	1	0	1	-74,27766	273,283325	241,976022	0
15.01.2021	00:39:04	0	0	2,485707	2,22375	67,3092	-0,445	76,717	0	1007,9	5,8	7,8	7,8	1	1	1	1	1	1	1	1	1	0	1	-68,428471	273,349231	248,130399	0
15.01.2021	00:39:05	0	0	3,728582	2,16	61,3044	-0,451	76,727	0	1008,02	5,8	7,8	7,7	1	1	1	1	1	1	1	1	1	0	1	-66,314306	273,206245	249,582726	0
15.01.2021	00:39:06	0	0	2,372734	2,17875	63,8784	-0,446	76,736	0	1008,06	5,7	7,8	7,7	1	1	1	1	1	1	1	1	1	0	1	-69,626498	273,21907	246,329855	0
15.01.2021	00:39:07	0	0	3,615595	2,1135	64,2456	-0,444	76,72	0	1007,88	5,7	7,8	7,7	1	1	1	1	1	1	1	1	1	0	1	-71,599718	273,349231	244,959151	0
15.01.2021	00:39:08	0	0	3,728582	2,0985	66,2184	-0,446	76,724	0	1008,04	5,7	7,8	7,7	1	1	1	1	1	1	1	1	1	0	1	-69,485553	273,273316	246,721799	0
15.01.2021	00:39:09	0	0	3,502608	2,058	64,2564	-0,444	76,737	0	1008,04	5,7	7,9	7,7	1	1	1	1	1	1	1	1	1	0	1	-71,67019	273,319116	244,749197	0
15.01.2021	00:39:10	0	0	3,163627	2,17575	68,7636	-0,448	76,736	0	1008,02	5,7	7,8	7,8	1	1	1	1	1	1	1	1	1	0	1	-72,727273	273,182042	243,057838	0
15.01.2021	00:39:11	0	0	3,163646	2,25	66,2328	-0,451	76,727	0	1008,1	5,7	7,8	7,7	1	1	1	1	1	1	1	1	1	0	1	-77,378436	273,256169	238,749561	0
15.01.2021	00:39:12	0	0	4,971443	2,2365	65,4768	-0,445	76,724	0	1008,16	5,7	7,8	7,7	1	1	1	1	1	1	1	1	1	0	1	-68,921776	273,354973	247,663692	0
15.01.2021	00:39:13	0	0	4,180532	2,12175	72,3276	-0,443	76,719	0	1007,96	5,7	7,8	7,7	1	1	1	1	1	1	1	1	1	0	1	-68,780832	273,220495	247,182116	0
15.01.2021	00:39:14	0	0	3,84157	2,097	74,916	-0,446	76,731	0	1008	5,7	7,9	7,7	1	1	1	1	1	1	1	1	1	0	1	-67,582805	273,214794	248,353769	0
15.01.2021	00:39:15	0	0	5,084431	2,1135	71,9964	-0,448	76,715	0	1007,9	5,7	7,8	7,7	1	1	1	1	1	1	1	1	1	0	1	-74,630021	273,320549	241,796002	0
15.01.2021	00:39:16	0	0	2,598709	2,06625	58,5108	-0,451	76,722	0	1007,94	5,7	7,8	7,7	1	1	1	1	1	1	1	1	1	0	1	-73,29105	273,217644	242,658709	0
15.01.2021	00:39:17	0	0	2,937671	2,11125	63,162	-0,446	76,712	0	1008,02	5,7	7,8	7,7	1	1	1	1	1	1	1	1	1	0	1	-73,502467	273,160713	242,184033	0
15.01.2021	00:39:18	0	0	2,485722	2,10375	57,726	-0,444	76,766	0	1007,98	5,7	7,8	7,7	1	1	1	1	1	1	1	1	1	0	1	-70,049331	273,334885	246,443086	0
15.01.2021	00:39:19	0	0	2,937671	2,0805	60,5448	-0,452	76,691	0	1007,82	5,7	7,9	7,7	1	1	1	1	1	1	1	1	1	0	1	-75,052854	273,189157	240,765157	0
15.01.2021	00:39:20	0	0	3,163646	2,061	58,878	-0,445	76,7	0	1007,8	5,7	7,8	7,7	1	1	1	1	1	1	1	1	1	0	1	-67,864693	273,200547	248,005988	0
15.01.2021	00:39:21	0	0	3,615595	2,1	60,2496	-0,442	76,685	0	1007,82	5,7	7,8	7,7	1	1	1	1	1	1	1	1	1	0	1	-72,30444	273,326282	244,148134	0
15.01.2021	00:39:22	0	0	4,632481	2,13975	62,0604	-0,449	76,691	0	1007,98	5,7	7,8	7,7	1	1	1	1	1	1	1	1	1	0	1	-67,582805	273,23761	248,45932	0
15.01.2021	00:39:23	0	0	2,711696	2,247	62,0388	-0,45	76,678	0	1007,88	5,7	7,8	7,7	1	1	1	1	1	1	1	1	1	0	1	-70,401691	273,155029	245,258534	0
15.01.2021	00:39:24	0	0	4,519467	2,2605	54,81	-0,45	76,656	0	1007,8	5,7	7,8	7,8	1	1	1	1	1	1	1	1	1	0	1	-70,049331	273,199123	245,814765	0
15.01.2021	00:39:25	0	0	4,406506	2,286	74,1888	-0,452	76,665	0	1007,76	5,7	7,8	7,7	1	1	1	1	1	1	1	1	1	0	1	-74,066244	273,320549	242,35978	0
15.01.2021	00:39:26	0	0	2,824684	2,31225	69,4548	-0,452	76,637	0	1007,78	5,7	7,8	7,7	1	1	1	1	1	1	1	1	1	0	1	-66,525722	273,199123	249,338374	0
15.01.2021	00:39:27	0	0	3,615595	2,3175	73,0764	-0,454	76,645	0	1007,9	5,7	7,8	7,7	1	1	1	1	1	1	1	1	1	0	1	-74,207188	273,23761	241,834936	0
15.01.2021	00:39:28	0	0	3,615617	2,26425	68,3928	-0,455	76,614	0	1008,06	5,7	7,9	7,6	1	1	1	1	1	1	1	1	1	0	1	-70,894996	273,31625	245,511121	0
15.01.2021	00:39:29	0	0	4,858427	2,33775	70,5852	-0,456	76,606	0	1007,96	5,7	7,8	7,8	1	1	1	1	1	1	1	1	1	0	1	-70,331219	273,250457	245,770344	0
15.01.2021	00:39:30	0	0	3,728582	2,38725	65,9268	-0,454	76,605	0	1007,82	5,7	7,8	7,7	1	1	1	1	1	1	1	1	1	0	1	-64,059197	273,150767	251,581329	0
15.01.2021	00:39:31	0	0	3,84157	2,376	60,228	-0,455	76,588	0	1007,86	5,7	7,8	7,7	1	1	1	1	1	1	1	1	1	0	1	-70,331219	273,321982	246,101441	0
15.01.2021	00:39:32	0	0	3,050677	2,36175	54,0864	-0,455	76,58	0	1008,04	5,7	7,8	7,6	1	1	1	1	1	1	1	1	1	0	1	-72,022551	273,227625	243,973376	0
15.01.2021	00:39:33	0	0	4,971413	2,2905	60,9336	-0,46	76,564	0	1007,86	5,7	7,8	7,8	1	1	1	1	1	1	1	1	1	0	1	-69,556025	273,139407	246,031995	0
15.01.2021	00:39:34	0	0	3,163646	2,262	57,0384	-0,464	76,543	0	1008,14	5,7	7,8	7,7	1	1	1	1	1	1	1	1	1	0	1	-69,06272	273,220495	246,900227	0
15.01.2021	00:39:35	0	0	3,84157	2,19825	48,1248	-0,458	76,524	0	1008,24	5,7	7,8	7,7	1	1	1	1	1	1	1	1	1	0	1	-69,908386	273,321982	246,524274	0
15.01.2021	00:39:36	0	0	2,485722	2,14575	48,5064	-0,457	76,52	0	1007,94	5,7	7,8	7,7	1	1	1	1	1	1	1	1	1	0	1	-67,864693	273,239037	248,184033	0
15.01.2021	00:39:37	0	0	3,502608	2,13975	47,754	-0,456	76,512	0	1008,1	5,7	7,9	7,7	1	1	1	1	1	1	1	1	1	0	1	-69,06272	273,313385	247,330129	0
15.01.2021	00:39:38	0	0	5,0844	2,15925	70,2036	-0,459	76,502	0	1007,84	5,7	7,9	7,8	1	1	1	1	1	1	1	1	1	0	1	-72,30444	273,260454	243,843387	0
15.01.2021	00:39:39	0	0	2,485707	2,11425	72,684	-0,46	76,474	0	1007,98	5,7	7,9	7,8	1	1	1	1	1	1	1	1	1	0	1	-69,203665	273,301928	247,136138	0
15.01.2021	00:39:40	0	0	2,937671	1,93425	53,3484	-0,458	76,475	0	1007,96	5,7	7,8	7,7	1	1	1	1	1	1	1	1	1	0	1	-70,542636	273,129473	244,999473	0
15.01.2021	00:39:41	0	0	4,858485	2,037	70,596	-0,459	76,464	0	1007,8	5,7	7,8	7,6	1	1	1	1	1	1	1	1	1	0	1	-66,032417	273,147927	249,594978	0
15.01.2021	00:39:42	0	0	4,971413	2,12175	63,1656	-0,462	76,443	0	1007,88	5,7	7,9	7,8	1	1	1	1	1	1	1	1	1	0	1	-68,639887	273,270457	247,554233	0
15.01.2021	00:39:43	0	0	2,372734	2,00775	75,2328	-0,464	76,415	0	1008	5,7	7,8	7,7	1	1	1	1	1	1	1	1	1	0	1	-65,257223	273,169242	250,468704	0
15.01.2021	00:39:44	0	0	2,937653	1,9395	63,18	-0,466	76,404	0	1008	5,7	7,8	7,8	1	1	1	1	1	1	1	1	1	0	1	-65,045807	273,126635	250,483189	0
15.01.2021	00:39:45	0	0	3,276633	1,767	59,0904	-0,465	76,384	0	1007,9	5,7	7,8	7,7	1	1	1	1	1	1	1	1	1	0	1	-66,948555	273,23761	249,093569	0
15.01.2021	00:39:46	0	0	4,519494	1,704	61,3872	-0,464	76,373	0	1008	5,7	7,8	7,7	1	1	1	1	1	1	1	1	1	0	1	-69,767442	273,306223	246,592249	0
15.01.2021	00:39:47	0	0	5,423393	1,7625	63,1692	-0,471	76,356	0	1008,14	5,7	7,8	7,7	1	1	1	1	1	1	1	1	1	0	1	-73,150106	273,23333	242,872216	0
15.01.2021	00:39:48	0	0	2,37272	1,8315	48,1284	-0,473	76,339	0	1007,84	5,7	7,9	7,8	1	1	1	1	1	1	1	1	1	0	1	-67,300916	273,29334	248,999126	0
15.01.2021	00:39:49	0	0	4,74544	1,8735	53,352	-0,472	76,336	0	1008,02	5,7	7,8	7,8	1	1	1	1	1	1	1	1	1	0	1	-65,539112	273,23761	250,503012	0
15.01.2021	00:39:50	0	0	4,971443	2,0115	48,5172	-0,478	76,337	0	1007,94	5,7	7,9	7,7	1	1	1	1	1	1	1	1	1	0	1	-73,220578	273,130891	242,328087	0
15.01.2021	00:39:51	0	0	4,180532	2,02275	40,626	-0,475	76,334	0	1008,02	5,7	7,9	7,7	1	1	1	1	1	1	1	1	1	0	1	-70,190275	273,284755	246,070028	0
15.01.2021	00:39:52	0	0	4,858456	2,0175	61,6968	-0,476	76,32	0	1007,98	5,7	7,9	7,7	1	1	1	1	1	1	1	1	1	0	1	-72,022551	273,137988	243,558908	0
15.01.2021	00:39:53	0	0	3,841547	1,97175	48,6144	-0,472	76,33	0	1007,94	5,7	7,9	7,8	1	1	1	1	1	1	1	1	1	0	1	-74,841438	273,283325	241,412245	0
15.01.2021	00:39:54	0	0	2,711696	1,83525	48,8268	-0,473	76,342	0	1008,04	5,7	7,8	7,7	1	1	1	1	1	1	1	1	1	0	1	-67,159972	273,157871	248,513389	0
15.01.2021	00:39:55	0	0	4,180507	1,77675	48,4884	-0,476	76,336	0	1008,04	5,7	7,8	7,8	1	1	1	1	1	1	1	1	1	0	1	-70,68358	273,139407	244,90444	0
15.01.2021	00:39:56	0	0	4,745468	1,752	45,7128	-0,477	76,331	0	1007,92	5,7	7,9	7,7	1	1	1	1	1	1	1	1	1	0	1	-74,418605	273,153608	241,235053	0
15.01.2021	00:39:57	0	0	3,163627	1,75725	43,362	-0,485	76,33	0	1007,94	5,7	7,9	7,8	1	1	1	1	1	1	1	1	1	0	1	-71,458774	273,119543	244,037452	0
15.01.2021	00:39:58	0	0	4,745497	1,69875	42,2244	-0,48	76,33	0	1008,02	5,7	7,9	7,6	1	1	1	1	1	1	1	1	1	0	1	-67,512333	273,226199	248,476998	0
15.01.2021	00:39:59	0	0	2,937671	1,617	58,1364	-0,481	76,348	0	1007,9	5,7	7,9	7,7	1	1	1	1	1	1	1	1	1	0	1	-73,150106	273,283325	243,103577	0
15.01.2021	00:40:00	0	0	4,406506	1,71675	41,85	-0,489	76,345	0	1007,86	5,7	7,8	7,7	1	1	1	1	1	1	1	1	1	0	1	-63,918252	273,109619	251,532119	0
15.01.2021	00:40:01	0	0	4,40648	1,902	35,1072	-0,483	76,369	0	1008,06	5,7	7,9	7,8	1	1	1	1	1	1	1	1	1	0	1	-65,045807	273,254741	251,07558	0
15.01.2021	00:40:02	0	0	4,40648	1,902	35,1072	-0,483	76,369	0	1008,06	5,7	7,9	7,8	1	1	1	1	1	1	1	1	1	0	1	-65,045807	273,254741	251,07558	0
15.01.2021	00:40:03	0	0	4,067544	2,1405	33,9624	-0,483	76,363	0	1007,88	5,7	7,9	7,7	1	1	1	1	1	1	1	1	1	0	1	-68,287526	273,112454	247,175943	0
15.01.2021	00:40:04	0	0	4,180532	2,337	57,5352	-0,495	76,392	0	1008	5,7	7,9	7,7	1	1	1	1	1	1	1	1	1	0	1	-68,217054	273,197699	247,640456	0
15.01.2021	00:40:05	0	0	4,745497	2,58225	51,0732	-0,488	76,398	0	1008,02	5,7	7,9	7,6	1	1	1	1	1	1	1	1	1	0	1	-69,06272	273,102533	246,354916	0
15.01.2021	00:40:06	0	0	4,858485	2,69475	41,8572	-0,489	76,397	0	1007,88	5,7	7,9	7,6	1	1	1	1	1	1	1	1	1	0	1	-67,864693	273,236183	248,17083	0
15.01.2021	00:40:07	0	0	3,72856	2,57025	53,352	-0,491	76,414	0	1007,96	5,7	7,9	7,8	1	1	1	1	1	1	1	1	1	0	1	-68,217054	273,256169	247,910942	0
15.01.2021	00:40:08	0	0	4,519521	2,5545	45,846	-0,493	76,41	0	1007,98	5,7	7,9	7,6	1	1	1	1	1	1	1	1	1	0	1	-67,371388	273,120961	248,13139	0
15.01.2021	00:40:09	0	0	4,858427	2,61	46,9944	-0,495	76,447	0	1008,04	5,7	7,9	7,8	1	1	1	1	1	1	1	1	1	0	1	-76,462297	273,241891	239,599635	0
15.01.2021	00:40:10	0	0	3,72856	2,73075	41,85	-0,496	76,456	0	1008,04	5,7	7,9	7,8	1	1	1	1	1	1	1	1	1	0	1	-71,388302	273,146506	244,23253	0
15.01.2021	00:40:11	0	0	2,598709	2,9805	43,6788	-0,491	76,487	0	1008	5,6	7,9	7,7	1	1	1	1	1	1	1	1	1	0	1	-68,005638	273,13373	247,556143	0
15.01.2021	00:40:12	0	0	2,485707	3,0435	45,1476	-0,495	76,493	0	1007,94	5,7	7,9	7,8	1	1	1	1	1	1	1	1	1	0	1	-71,881607	273,274745	244,332362	0
15.01.2021	00:40:13	0	0	3,38962	2,868	45,5292	-0,497	76,512	0	1008	5,7	7,9	7,7	1	1	1	1	1	1	1	1	1	0	1	-70,68358	273,182042	245,101531	0
15.01.2021	00:40:14	0	0	4,858456	2,7345	77,2164	-0,498	76,535	0	1008	5,7	7,9	7,7	1	1	1	1	1	1	1	1	1	0	1	-69,06272	273,274745	247,151248	0
15.01.2021	00:40:15	0	0	3,954533	2,6085	57,0276	-0,499	76,56	0	1007,96	5,6	7,9	7,8	1	1	1	1	1	1	1	1	1	0	1	-68,780832	273,187734	247,030598	0
15.01.2021	00:40:16	0	0	2,146772	2,499	60,552	-0,498	76,572	0	1008,04	5,7	7,9	7,6	1	1	1	1	1	1	1	1	1	0	1	-64,83439	273,105367	250,596338	0
15.01.2021	00:40:17	0	0	4,180532	2,532	55,9296	-0,496	76,581	0	1007,86	5,7	7,8	7,7	1	1	1	1	1	1	1	1	1	0	1	-71,317829	273,129473	244,224279	0
15.01.2021	00:40:18	0	0	2,146747	2,57625	52,4988	-0,5	76,588	0	1007,88	5,6	7,9	7,8	1	1	1	1	1	1	1	1	1	0	1	-67,0895	273,257597	249,045106	0
15.01.2021	00:40:19	0	0	2,598709	2,60775	51,5196	-0,495	76,58	0	1008,06	5,6	7,9	7,7	1	1	1	1	1	1	1	1	1	0	1	-72,868217	273,092618	242,503614	0
15.01.2021	00:40:20	0	0	3,163646	2,655	52,1244	-0,499	76,597	0	1008,02	5,6	7,9	7,7	1	1	1	1	1	1	1	1	1	0	1	-69,626498	273,203396	246,257358	0
15.01.2021	00:40:21	0	0	4,745468	2,64675	50,3028	-0,502	76,593	0	1007,84	5,7	7,9	7,7	1	1	1	1	1	1	1	1	1	0	1	-68,569415	273,26474	247,598248	0
15.01.2021	00:40:22	0	0	2,598725	2,61975	58,4856	-0,499	76,585	0	1008,02	5,7	7,9	7,6	1	1	1	1	1	1	1	1	1	0	1	-72,727273	273,172086	243,011803	0
15.01.2021	00:40:23	0	0	3,84157	2,5755	45,8496	-0,501	76,566	0	1007,94	5,7	7,9	7,7	1	1	1	1	1	1	1	1	1	0	1	-68,851304	273,084123	246,481289	0
15.01.2021	00:40:24	0	0	4,406506	2,55825	42,21	-0,506	76,59	0	1008,02	5,6	7,9	7,7	1	1	1	1	1	1	1	1	1	0	1	-65,961945	273,247601	250,126406	0
15.01.2021	00:40:25	0	0	3,615595	2,66175	44,0424	-0,505	76,607	0	1008	5,7	7,9	7,7	1	1	1	1	1	1	1	1	1	0	1	-70,965469	273,092618	244,406362	0
15.01.2021	00:40:26	0	0	4,293493	2,83125	52,5384	-0,507	76,604	0	1007,98	5,6	7,9	7,8	1	1	1	1	1	1	1	1	1	0	1	-70,049331	273,113871	245,420689	0
15.01.2021	00:40:27	0	0	3,728582	2,808	54,4788	-0,513	76,6	0	1007,88	5,7	7,9	7,7	1	1	1	1	1	1	1	1	1	0	1	-73,9253	273,201971	241,951969	0
15.01.2021	00:40:28	0	0	3,615595	2,6985	46,6056	-0,504	76,607	0	1007,88	5,7	7,9	7,7	1	1	1	1	1	1	1	1	1	0	1	-73,431994	273,113871	242,038025	0
15.01.2021	00:40:29	0	0	2,259747	2,51325	46,98	-0,509	76,607	0	1007,88	5,6	7,9	7,7	1	1	1	1	1	1	1	1	1	0	1	-67,864693	273,120961	247,638085	0
15.01.2021	00:40:30	0	0	4,519494	2,60775	45,5436	-0,512	76,609	0	1007,88	5,7	7,9	7,7	1	1	1	1	1	1	1	1	1	0	1	-70,472163	273,250457	245,6294	0
15.01.2021	00:40:31	0	0	2,598709	2,87775	52,8804	-0,512	76,619	0	1008,02	5,7	7,9	7,7	1	1	1	1	1	1	1	1	1	0	1	-66,525722	273,135149	249,042618	0
15.01.2021	00:40:32	0	0	5,310405	2,88825	56,286	-0,51	76,632	0	1007,92	5,7	7,9	7,7	1	1	1	1	1	1	1	1	1	0	1	-72,656801	273,085538	242,68233	0
15.01.2021	00:40:33	0	0	3,163646	2,796	46,9728	-0,513	76,633	0	1007,84	5,7	7,9	7,7	1	1	1	1	1	1	1	1	1	0	1	-68,07611	273,108201	247,367713	0
15.01.2021	00:40:34	0	0	4,406506	2,619	42,5916	-0,519	76,644	0	1007,86	5,6	7,9	7,7	1	1	1	1	1	1	1	1	1	0	1	-67,864693	273,256169	248,263303	0
15.01.2021	00:40:35	0	0	2,937671	2,6505	54,8028	-0,511	76,653	0	1008,08	5,7	7,9	7,7	1	1	1	1	1	1	1	1	1	0	1	-72,797745	273,240464	243,257584	0
15.01.2021	00:40:36	0	0	3,38962	2,625	48,1356	-0,513	76,645	0	1007,92	5,7	7,9	7,7	1	1	1	1	1	1	1	1	1	0	1	-68,639887	273,10395	246,784295	0
15.01.2021	00:40:37	0	0	4,632481	2,55075	55,9332	-0,513	76,66	0	1007,9	5,7	7,9	7,7	1	1	1	1	1	1	1	1	1	0	1	-67,300916	273,091201	248,064374	0
15.01.2021	00:40:38	0	0	3,84157	2,5875	48,8448	-0,514	76,659	0	1007,98	5,6	7,9	7,7	1	1	1	1	1	1	1	1	1	0	1	-72,727273	273,09545	242,657642	0
15.01.2021	00:40:39	0	0	3,615595	2,481	54,486	-0,52	76,674	0	1007,96	5,6	7,9	7,7	1	1	1	1	1	1	1	1	1	0	1	-70,613108	273,105367	244,81762	0
15.01.2021	00:40:40	0	0	2,937671	2,3055	47,7576	-0,519	76,674	0	1007,88	5,6	7,9	7,7	1	1	1	1	1	1	1	1	1	0	1	-67,794221	273,074217	247,492619	0
15.01.2021	00:40:41	0	0	3,502608	2,184	51,4476	-0,518	76,688	0	1007,96	5,6	7,9	7,7	1	1	1	1	1	1	1	1	1	0	1	-68,498943	273,125216	247,023498	0
15.01.2021	00:40:42	0	0	4,293519	2,304	51,4188	-0,517	76,693	0	1007,86	5,6	7,9	7,7	1	1	1	1	1	1	1	1	1	0	1	-66,666667	273,085538	248,672464	0
15.01.2021	00:40:43	0	0	3,615595	2,49075	44,7984	-0,524	76,685	0	1007,98	5,6	7,9	7,7	1	1	1	1	1	1	1	1	1	0	1	-72,515856	273,227625	243,480071	0
15.01.2021	00:40:44	0	0	2,824684	2,64375	56,6604	-0,522	76,663	0	1008,02	5,6	7,9	7,7	1	1	1	1	1	1	1	1	1	0	1	-72,163495	273,160713	243,523004	0
15.01.2021	00:40:45	0	0	4,180532	2,79375	54,1044	-0,517	76,665	0	1008,02	5,7	7,9	7,7	1	1	1	1	1	1	1	1	1	0	1	-70,613108	273,226199	245,376222	0
15.01.2021	00:40:46	0	0	3,163646	2,93175	49,9572	-0,524	76,67	0	1008,08	5,7	7,9	7,7	1	1	1	1	1	1	1	1	1	0	1	-68,428471	273,0997	246,976075	0
15.01.2021	00:40:47	0	0	3,050658	3,03675	52,8768	-0,523	76,65	0	1007,84	5,6	7,9	7,7	1	1	1	1	1	1	1	1	1	0	1	-69,908386	273,05866	245,306617	0
15.01.2021	00:40:48	0	0	4,745468	3,0765	70,8264	-0,525	76,656	0	1008,04	5,6	7,9	7,7	1	1	1	1	1	1	1	1	1	0	1	-71,317829	273,13373	244,243952	0
15.01.2021	00:40:49	0	0	4,632481	2,91525	62,0496	-0,524	76,641	0	1008,02	5,7	7,9	7,7	1	1	1	1	1	1	1	1	1	0	1	-69,767442	273,060074	245,454089	0
15.01.2021	00:40:50	0	0	4,971443	2,703	64,2492	-0,522	76,626	0	1007,98	5,6	7,8	7,7	1	1	1	1	1	1	1	1	1	0	1	-69,203665	273,184888	246,594605	0
15.01.2021	00:40:51	0	0	4,519494	2,559	66,5496	-0,526	76,614	0	1007,92	5,7	7,8	7,7	1	1	1	1	1	1	1	1	1	0	1	-69,69697	273,071387	245,576804	0
15.01.2021	00:40:52	0	0	4,519494	2,43975	58,9572	-0,53	76,594	0	1007,9	5,7	7,9	7,7	1	1	1	1	1	1	1	1	1	0	1	-72,30444	273,223347	243,671698	0
15.01.2021	00:40:53	0	0	4,745468	2,35275	64,242	-0,524	76,577	0	1008,02	5,7	7,9	7,7	1	1	1	1	1	1	1	1	1	0	1	-70,119803	273,108201	245,32402	0
15.01.2021	00:40:54	0	0	3,728582	2,283	66,8988	-0,529	76,57	0	1007,96	5,7	7,8	7,7	1	1	1	1	1	1	1	1	1	0	1	-70,68358	273,053007	244,505318	0
15.01.2021	00:40:55	0	0	3,728582	2,244	58,8744	-0,532	76,572	0	1007,98	5,6	7,8	7,7	1	1	1	1	1	1	1	1	1	0	1	-67,794221	273,206245	248,10281	0
15.01.2021	00:40:56	0	0	4,971443	2,1465	66,5316	-0,534	76,56	0	1007,98	5,6	7,9	7,7	1	1	1	1	1	1	1	1	1	0	1	-73,431994	273,187734	242,379435	0
15.01.2021	00:40:57	0	0	5,084431	2,03175	58,8564	-0,533	76,558	0	1007,92	5,7	7,9	7,7	1	1	1	1	1	1	1	1	1	0	1	-66,737139	273,162134	248,95593	0
15.01.2021	00:40:58	0	0	2,824684	1,9755	59,5008	-0,533	76,547	0	1008,04	5,6	7,9	7,7	1	1	1	1	1	1	1	1	1	0	1	-70,68358	273,230477	245,325544	0
15.01.2021	00:40:59	0	0	3,276633	1,95075	54,4896	-0,536	76,558	0	1008,04	5,7	7,9	7,7	1	1	1	1	1	1	1	1	1	0	1	-70,119803	273,12238	245,389529	0
15.01.2021	00:41:00	0	0	4,180532	1,77225	49,194	-0,538	76,556	0	1007,86	5,7	7,8	7,7	1	1	1	1	1	1	1	1	1	0	1	-65,891473	273,16782	249,827882	0
15.01.2021	00:41:01	0	0	2,711696	1,69575	48,114	-0,536	76,545	0	1007,78	5,7	7,8	7,7	1	1	1	1	1	1	1	1	1	0	1	-65,891473	273,16782	249,827882	0
15.01.2021	00:41:02	0	0	2,711696	1,69575	48,114	-0,536	76,545	0	1007,78	5,7	7,8	7,7	1	1	1	1	1	1	1	1	1	0	1	-69,415081	273,048768	245,754244	0
15.01.2021	00:41:03	0	0	2,598709	1,68525	55,9368	-0,538	76,545	0	1008,08	5,7	7,9	7,7	1	1	1	1	1	1	1	1	1	0	1	-67,864693	273,051594	247,317679	0
15.01.2021	00:41:04	0	0	5,084431	1,671	45,846	-0,542	76,53	0	1007,9	5,7	7,8	7,7	1	1	1	1	1	1	1	1	1	0	1	-72,727273	273,149347	242,906688	0
15.01.2021	00:41:05	0	0	3,502608	1,71825	48,8124	-0,542	76,54	0	1008,04	5,7	7,9	7,7	1	1	1	1	1	1	1	1	1	0	1	-65,961945	273,037468	249,155211	0
15.01.2021	00:41:06	0	0	4,971443	1,66725	45,5544	-0,544	76,542	0	1008,02	5,7	7,8	7,7	1	1	1	1	1	1	1	1	1	0	1	-68,851304	273,150767	246,789222	0
15.01.2021	00:41:07	0	0	5,197418	1,7415	40,644	-0,55	76,542	0	1007,82	5,7	7,8	7,7	1	1	1	1	1	1	1	1	1	0	1	-70,472163	273,044529	244,677594	0
15.01.2021	00:41:08	0	0	2,824684	1,7235	41,832	-0,544	76,525	0	1007,96	5,7	7,9	7,7	1	1	1	1	1	1	1	1	1	0	1	-74,207188	273,096866	241,18427	0
15.01.2021	00:41:09	0	0	2,937671	1,88625	46,5948	-0,549	76,531	0	1007,88	5,7	7,8	7,7	1	1	1	1	1	1	1	1	1	0	1	-68,569415	273,201971	247,307853	0
15.01.2021	00:41:10	0	0	4,632481	2,13225	37,692	-0,55	76,541	0	1007,6	5,7	8	7,7	1	1	1	1	1	1	1	1	1	0	1	-69,415081	273,196275	246,435845	0
15.01.2021	00:41:11	0	0	2,485722	2,33775	34,362	-0,547	76,534	0	1007,9	5,7	7,8	7,7	1	1	1	1	1	1	1	1	1	0	1	-71,247357	273,071387	244,026417	0
15.01.2021	00:41:12	0	0	4,293519	2,39175	40,2516	-0,551	76,532	0	1007,8	5,7	7,8	7,7	1	1	1	1	1	1	1	1	1	0	1	-66,878083	273,201971	248,999185	0
15.01.2021	00:41:13	0	0	3,84157	2,46	44,0532	-0,551	76,551	0	1008	5,7	7,9	7,7	1	1	1	1	1	1	1	1	1	0	1	-70,049331	273,142247	245,551812	0
15.01.2021	00:41:14	0	0	3,728582	2,45625	51,0588	-0,553	76,563	0	1008,04	5,7	7,8	7,7	1	1	1	1	1	1	1	1	1	0	1	-69,978858	273,211944	245,944532	0
15.01.2021	00:41:15	0	0	5,197418	2,37975	57,0276	-0,552	76,555	0	1007,84	5,7	7,8	7,7	1	1	1	1	1	1	1	1	1	0	1	-66,243834	273,170664	249,488668	0
15.01.2021	00:41:16	0	0	4,406506	2,30175	54,1188	-0,548	76,572	0	1007,88	5,7	7,8	7,7	1	1	1	1	1	1	1	1	1	0	1	-71,317829	273,030409	243,76674	0
15.01.2021	00:41:17	0	0	5,197418	2,21025	55,9512	-0,552	76,582	0	1008,1	5,7	7,8	7,7	1	1	1	1	1	1	1	1	1	0	1	-61,87456	273,187734	253,93687	0
15.01.2021	00:41:18	0	0	2,598709	2,175	55,926	-0,556	76,601	0	1007,92	5,7	7,8	7,7	1	1	1	1	1	1	1	1	1	0	1	-69,908386	273,041704	245,228329	0
15.01.2021	00:41:19	0	0	3,954557	2,166	49,9572	-0,547	76,612	0	1008,1	5,7	7,8	7,7	1	1	1	1	1	1	1	1	1	0	1	-66,948555	273,03888	248,17512	0
15.01.2021	00:41:20	0	0	4,519494	2,20125	38,0664	-0,551	76,628	0	1007,82	5,7	7,8	7,7	1	1	1	1	1	1	1	1	1	0	1	-64,904863	273,18062	250,87367	0
15.01.2021	00:41:21	0	0	4,745468	2,20125	61,3152	-0,559	76,649	0	1007,9	5,7	7,9	7,7	1	1	1	1	1	1	1	1	1	0	1	-69,767442	273,193428	246,070316	0
15.01.2021	00:41:22	0	0	2,937671	2,13525	36,6192	-0,561	76,665	0	1007,98	5,7	7,8	7,7	1	1	1	1	1	1	1	1	1	0	1	-72,022551	273,149347	243,611409	0
15.01.2021	00:41:23	0	0	4,067544	2,1045	52,5024	-0,559	76,67	0	1007,92	5,7	7,8	7,7	1	1	1	1	1	1	1	1	1	0	1	-70,119803	273,162134	245,573266	0
15.01.2021	00:41:24	0	0	2,824684	2,00175	47,3832	-0,558	76,697	0	1008,08	5,7	7,9	7,7	1	1	1	1	1	1	1	1	1	0	1	-71,881607	273,140827	243,712974	0
15.01.2021	00:41:25	0	0	2,824684	1,9665	63,5112	-0,564	76,717	0	1007,92	5,7	7,9	7,7	1	1	1	1	1	1	1	1	1	0	1	-70,542636	273,194851	245,301706	0
15.01.2021	00:41:26	0	0	4,519494	1,86375	41,8536	-0,566	76,72	0	1007,96	5,7	7,9	7,7	1	1	1	1	1	1	1	1	1	0	1	-68,428471	273,085538	246,91066	0
15.01.2021	00:41:27	0	0	3,615595	1,815	39,96	-0,564	76,74	0	1007,96	5,7	7,8	7,7	1	1	1	1	1	1	1	1	1	0	1	-64,48203	273,05442	250,713394	0
15.01.2021	00:41:28	0	0	4,519494	1,6995	49,9464	-0,567	76,751	0	1008,06	5,6	7,8	7,7	1	1	1	1	1	1	1	1	1	0	1	-69,69697	273,166398	246,015813	0
15.01.2021	00:41:29	0	0	4,632481	1,67175	46,998	-0,567	76,776	0	1008,08	5,7	7,9	7,7	1	1	1	1	1	1	1	1	1	0	1	-69,203665	273,130891	246,345001	0
15.01.2021	00:41:30	0	0	2,824684	1,73475	45,1584	-0,559	76,787	0	1007,94	5,7	7,9	7,7	1	1	1	1	1	1	1	1	1	0	1	-67,371388	273,043117	247,771847	0
15.01.2021	00:41:31	0	0	3,615595	1,86	42,228	-0,569	76,8	0	1007,96	5,7	7,9	7,7	1	1	1	1	1	1	1	1	1	0	1	-67,159972	273,189157	248,658039	0
15.01.2021	00:41:32	0	0	2,14676	1,9635	57,1284	-0,568	76,818	0	1007,84	5,7	7,8	7,7	1	1	1	1	1	1	1	1	1	0	1	-65,46864	273,037468	249,648516	0
15.01.2021	00:41:33	0	0	4,519494	1,99125	53,3772	-0,569	76,83	0	1007,94	5,6	7,9	7,7	1	1	1	1	1	1	1	1	1	0	1	-65,116279	273,016298	249,903161	0
15.01.2021	00:41:34	0	0	4,632481	1,88475	51,0372	-0,57	76,842	0	1007,94	5,6	7,9	7,7	1	1	1	1	1	1	1	1	1	0	1	-67,371388	273,003608	247,589485	0
15.01.2021	00:41:35	0	0	4,971443	1,812	44,7624	-0,573	76,869	0	1008,1	5,7	7,8	7,7	1	1	1	1	1	1	1	1	1	0	1	-73,361522	273,113871	242,108497	0
15.01.2021	00:41:36	0	0	3,954557	1,8015	44,784	-0,571	76,87	0	1007,94	5,6	7,9	7,7	1	1	1	1	1	1	1	1	1	0	1	-66,102889	273,040292	249,027305	0
15.01.2021	00:41:37	0	0	3,050658	1,81425	52,9128	-0,58	76,884	0	1007,86	5,7	7,9	7,7	1	1	1	1	1	1	1	1	1	0	1	-65,327696	273,000789	249,620169	0
15.01.2021	00:41:38	0	0	3,163646	1,812	34,3548	-0,576	76,888	0	1008,04	5,7	7,8	7,7	1	1	1	1	1	1	1	1	1	0	1	-74,136716	273,112454	241,326753	0
15.01.2021	00:41:39	0	0	2,937671	1,827	44,406	-0,572	76,908	0	1007,96	5,6	7,8	7,7	1	1	1	1	1	1	1	1	1	0	1	-69,837914	273,166398	245,874869	0
15.01.2021	00:41:40	0	0	4,971443	2,052	33,9516	-0,581	76,905	0	1007,96	5,7	7,8	7,7	1	1	1	1	1	1	1	1	1	0	1	-66,666667	273,033232	248,430936	0
15.01.2021	00:41:41	0	0	3,163665	2,22075	34,344	-0,579	76,914	0	1007,86	5,6	7,9	7,6	1	1	1	1	1	1	1	1	1	0	1	-69,626498	273,005018	245,340881	0
15.01.2021	00:41:42	0	0	5,310405	2,35425	42,2352	-0,581	76,928	0	1007,98	5,6	7,9	7,7	1	1	1	1	1	1	1	1	1	0	1	-70,754052	273,074217	244,532789	0
15.01.2021	00:41:43	0	0	2,937671	2,3205	37,3932	-0,577	76,939	0	1007,74	5,7	7,9	7,7	1	1	1	1	1	1	1	1	1	0	1	-71,388302	273,176352	244,3705	0
15.01.2021	00:41:44	0	0	3,276633	2,283	51,462	-0,579	76,958	0	1008,06	5,7	7,9	7,7	1	1	1	1	1	1	1	1	1	0	1	-69,485553	273,024763	245,572958	0
15.01.2021	00:41:45	0	0	4,632509	2,163	53,3376	-0,581	76,946	0	1008,1	5,7	7,8	7,6	1	1	1	1	1	1	1	1	1	0	1	-69,274137	273,05866	245,940866	0
15.01.2021	00:41:46	0	0	4,519521	2,022	61,3044	-0,58	76,968	0	1007,8	5,7	7,9	7,6	1	1	1	1	1	1	1	1	1	0	1	-69,978858	273,146506	245,641973	0
15.01.2021	00:41:47	0	0	2,937671	1,8495	51,4404	-0,577	76,981	0	1007,92	5,7	7,9	7,7	1	1	1	1	1	1	1	1	1	0	1	-73,9253	273,115289	241,551271	0
15.01.2021	00:41:48	0	0	4,745497	1,6725	49,9608	-0,577	76,996	0	1007,82	5,7	7,9	7,6	1	1	1	1	1	1	1	1	1	0	1	-74,841438	272,990926	240,060915	0
15.01.2021	00:41:49	0	0	4,406506	1,5585	55,5588	-0,579	77,006	0	1007,88	5,7	7,9	7,7	1	1	1	1	1	1	1	1	1	0	1	-70,824524	273,067144	244,429654	0
15.01.2021	00:41:50	0	0	3,050658	1,50975	55,9512	-0,58	77,015	0	1008,02	5,6	7,8	7,7	1	1	1	1	1	1	1	1	1	0	1	-71,811135	272,981068	243,045735	0
15.01.2021	00:41:51	0	0	4,632509	1,563	54,1188	-0,588	77,025	0	1007,84	5,6	7,8	7,6	1	1	1	1	1	1	1	1	1	0	1	-72,233968	273,092618	243,137863	0
15.01.2021	00:41:52	0	0	3,954557	1,749	46,98	-0,584	77,042	0	1007,82	5,6	7,9	7,7	1	1	1	1	1	1	1	1	1	0	1	-69,203665	272,983884	245,666197	0
15.01.2021	00:41:53	0	0	5,084431	2,05125	55,5516	-0,583	77,045	0	1008,06	5,6	7,8	7,7	1	1	1	1	1	1	1	1	1	0	1	-71,247357	273,125216	244,275083	0
15.01.2021	00:41:54	0	0	4,406533	2,2605	51,768	-0,583	77,064	0	1008,02	5,7	7,9	7,6	1	1	1	1	1	1	1	1	1	0	1	-67,653277	272,983884	247,216585	0
15.01.2021	00:41:55	0	0	4,067569	2,232	62,8056	-0,584	77,066	0	1007,86	5,6	7,9	7,6	1	1	1	1	1	1	1	1	1	0	1	-74,630021	273,170664	241,10248	0
15.01.2021	00:41:56	0	0	4,406506	2,21175	58,896	-0,585	77,125	0	1007,84	5,6	7,9	7,7	1	1	1	1	1	1	1	1	1	0	1	-72,515856	273,09545	242,869059	0
15.01.2021	00:41:57	0	0	3,728605	2,21475	58,1436	-0,587	77,089	0	1007,96	5,7	7,9	7,6	1	1	1	1	1	1	1	1	1	0	1	-67,794221	272,978252	247,049658	0
15.01.2021	00:41:58	0	0	3,728605	2,1435	57,8412	-0,587	77,107	0	1007,96	5,6	7,9	7,6	1	1	1	1	1	1	1	1	1	0	1	-69,274137	273,075631	246,019238	0
15.01.2021	00:41:59	0	0	2,937689	2,091	28,746	-0,588	77,112	0	1008,06	5,6	7,9	7,6	1	1	1	1	1	1	1	1	1	0	1	-70,190275	272,982476	244,673091	0
15.01.2021	00:42:00	0	0	4,745468	2,22525	57,4164	-0,59	77,116	0	1008,12	5,6	7,9	7,7	1	1	1	1	1	1	1	1	1	0	1	-74,770965	272,985292	240,105394	0
15.01.2021	00:42:01	0	0	4,519521	2,3175	63,4752	-0,589	77,107	0	1007,9	5,7	7,9	7,6	1	1	1	1	1	1	1	1	1	0	1	-67,935166	273,044529	247,214592	0
15.01.2021	00:42:02	0	0	4,519521	2,3175	63,4752	-0,589	77,107	0	1007,9	5,7	7,9	7,6	1	1	1	1	1	1	1	1	1	0	1	-67,935166	273,044529	247,214592	0
15.01.2021	00:42:03	0	0	4,971473	2,33475	53,7372	-0,59	77,109	0	1008,1	5,6	7,9	7,6	1	1	1	1	1	1	1	1	1	0	1	-74,489077	273,146506	241,131755	0
15.01.2021	00:42:04	0	0	4,067569	2,2875	58,8744	-0,585	77,12	0	1007,9	5,6	7,9	7,6	1	1	1	1	1	1	1	1	1	0	1	-71,035941	273,06573	244,211707	0
15.01.2021	00:42:05	0	0	3,276653	2,23875	63,8856	-0,587	77,143	0	1008	5,6	7,9	7,6	1	1	1	1	1	1	1	1	1	0	1	-68,710359	272,96418	246,068605	0
15.01.2021	00:42:06	0	0	4,858485	2,33175	55,9584	-0,588	77,153	0	1007,94	5,6	7,9	7,6	1	1	1	1	1	1	1	1	1	0	1	-69,626498	273,037468	245,490659	0
15.01.2021	00:42:07	0	0	4,519521	2,415	57,4308	-0,593	77,174	0	1007,94	5,6	7,9	7,6	1	1	1	1	1	1	1	1	1	0	1	-67,230444	272,971215	247,580971	0
15.01.2021	00:42:08	0	0	5,084461	2,457	58,5792	-0,592	77,176	0	1007,98	5,6	7,9	7,6	1	1	1	1	1	1	1	1	1	0	1	-71,740662	273,024763	243,317848	0
15.01.2021	00:42:09	0	0	3,615617	2,58375	57,4128	-0,593	77,186	0	1008,02	5,6	7,9	7,6	1	1	1	1	1	1	1	1	1	0	1	-72,30444	273,149347	243,329521	0
15.01.2021	00:42:10	0	0	2,937689	2,71875	60,9228	-0,592	77,194	0	1007,92	5,6	7,9	7,6	1	1	1	1	1	1	1	1	1	0	1	-67,159972	273,072802	248,120335	0
15.01.2021	00:42:11	0	0	2,711713	2,751	62,046	-0,595	77,198	0	1008,06	5,6	7,9	7,6	1	1	1	1	1	1	1	1	1	0	1	-72,374912	273,135149	243,193428	0
15.01.2021	00:42:12	0	0	2,824701	2,75625	59,0904	-0,589	77,2	0	1008,02	5,6	7,9	7,6	1	1	1	1	1	1	1	1	1	0	1	-69,767442	273,012067	245,232471	0
15.01.2021	00:42:13	0	0	2,711713	2,82525	65,466	-0,592	77,212	0	1008,08	5,6	7,9	7,6	1	1	1	1	1	1	1	1	1	0	1	-69,767442	272,988109	245,121913	0
15.01.2021	00:42:14	0	0	2,824701	2,9535	45,5292	-0,595	77,213	0	1007,94	5,6	7,9	7,6	1	1	1	1	1	1	1	1	1	0	1	-67,794221	273,006427	247,179663	0
15.01.2021	00:42:15	0	0	4,858485	3,036	48,1356	-0,595	77,217	0	1008,02	5,6	7,9	7,6	1	1	1	1	1	1	1	1	1	0	1	-68,146582	272,966994	246,645361	0
15.01.2021	00:42:16	0	0	3,389641	3,0465	56,6676	-0,596	77,22	0	1007,9	5,6	7,8	7,6	1	1	1	1	1	1	1	1	1	0	1	-66,666667	273,021941	248,378818	0
15.01.2021	00:42:17	0	0	5,084461	2,95875	69,1776	-0,593	77,225	0	1007,84	5,6	7,9	7,6	1	1	1	1	1	1	1	1	1	0	1	-67,019027	272,971215	247,792387	0
15.01.2021	00:42:18	0	0	2,824701	2,80725	54,1116	-0,596	77,244	0	1007,94	5,6	7,9	7,6	1	1	1	1	1	1	1	1	1	0	1	-72,093023	272,968401	242,70541	0
15.01.2021	00:42:19	0	0	3,502629	2,7165	60,2352	-0,595	77,248	0	1007,86	5,6	7,8	7,6	1	1	1	1	1	1	1	1	1	0	1	-64,975335	273,071387	250,298439	0
15.01.2021	00:42:20	0	0	2,598725	2,60475	63,4968	-0,599	77,247	0	1008,08	5,6	7,9	7,6	1	1	1	1	1	1	1	1	1	0	1	-66,948555	272,955742	247,791487	0
15.01.2021	00:42:21	0	0	3,502629	2,62875	66,2328	-0,595	77,247	0	1007,96	5,6	7,9	7,6	1	1	1	1	1	1	1	1	1	0	1	-67,300916	273,021941	247,744569	0
15.01.2021	00:42:22	0	0	2,937689	2,77275	67,6764	-0,596	77,261	0	1007,94	5,6	7,9	7,6	1	1	1	1	1	1	1	1	1	0	1	-69,69697	273,136568	245,87793	0
15.01.2021	00:42:23	0	0	4,632509	2,8755	64,6128	-0,602	77,28	0	1008	5,6	7,8	7,6	1	1	1	1	1	1	1	1	1	0	1	-70,824524	273,111036	244,632396	0
15.01.2021	00:42:24	0	0	3,615617	2,805	51,0624	-0,602	77,293	0	1008	5,6	7,9	7,6	1	1	1	1	1	1	1	1	1	0	1	-70,965469	273,092618	244,406362	0
15.01.2021	00:42:25	0	0	4,406533	2,69325	50,3028	-0,595	77,327	0	1008,02	5,6	7,9	7,6	1	1	1	1	1	1	1	1	1	0	1	-64,83439	272,959961	249,925111	0
15.01.2021	00:42:26	0	0	3,050677	2,70075	63,8784	-0,598	77,325	0	1007,84	5,6	7,9	7,6	1	1	1	1	1	1	1	1	1	0	1	-67,935166	273,016298	247,084274	0
15.01.2021	00:42:27	0	0	2,146772	2,664	74,9376	-0,598	77,339	0	1008	5,6	7,9	7,6	1	1	1	1	1	1	1	1	1	0	1	-68,005638	273,142247	247,595505	0
15.01.2021	00:42:28	0	0	3,276653	2,42775	85,5216	-0,602	77,36	0	1007,98	5,6	7,9	7,6	1	1	1	1	1	1	1	1	1	0	1	-67,653277	273,043117	247,489959	0
15.01.2021	00:42:29	0	0	3,728605	2,27625	87,7356	-0,596	77,356	0	1007,98	5,6	7,9	7,6	1	1	1	1	1	1	1	1	1	0	1	-68,569415	273,129473	246,972693	0
15.01.2021	00:42:30	0	0	2,937689	2,139	77,9616	-0,601	77,391	0	1007,96	5,6	7,9	7,6	1	1	1	1	1	1	1	1	1	0	1	-69,344609	272,990926	245,557744	0
15.01.2021	00:42:31	0	0	2,485736	2,1345	80,5176	-0,595	77,42	0	1007,88	5,6	7,9	7,6	1	1	1	1	1	1	1	1	1	0	1	-68,780832	273,137988	246,800628	0
15.01.2021	00:42:32	0	0	4,745497	2,16225	70,8588	-0,606	77,44	0	1007,94	5,6	7,8	7,6	1	1	1	1	1	1	1	1	1	0	1	-68,921776	273,048768	246,247549	0
15.01.2021	00:42:33	0	0	2,598725	2,28675	68,4	-0,607	77,439	0	1007,92	5,6	7,9	7,6	1	1	1	1	1	1	1	1	1	0	1	-70,68358	273,149347	244,95038	0
15.01.2021	00:42:34	0	0	4,180557	2,544	70,7004	-0,608	77,485	0	1007,86	5,6	7,9	7,6	1	1	1	1	1	1	1	1	1	0	1	-69,626498	273,092618	245,745333	0
15.01.2021	00:42:35	0	0	2,598725	2,66025	70,8552	-0,6	77,503	0	1008,02	5,6	7,9	7,6	1	1	1	1	1	1	1	1	1	0	1	-73,361522	272,961367	241,404466	0
15.01.2021	00:42:36	0	0	3,954581	2,652	62,4024	-0,602	77,524	0	1007,94	5,6	7,9	7,6	1	1	1	1	1	1	1	1	1	0	1	-68,569415	273,126635	246,959581	0
15.01.2021	00:42:37	0	0	4,180557	2,78325	54,504	-0,598	77,561	0	1008,02	5,6	7,9	7,6	1	1	1	1	1	1	1	1	1	0	1	-74,348132	273,079877	240,964849	0
15.01.2021	00:42:38	0	0	2,485736	2,86875	57,7296	-0,598	77,578	0	1007,9	5,6	7,9	7,6	1	1	1	1	1	1	1	1	1	0	1	-73,431994	272,955742	241,308048	0
15.01.2021	00:42:39	0	0	3,389641	2,91375	50,3136	-0,603	77,564	0	1007,94	5,6	7,8	7,6	1	1	1	1	1	1	1	1	1	0	1	-68,498943	273,086954	246,846727	0
15.01.2021	00:42:40	0	0	3,841593	2,91675	48,1392	-0,604	77,6	0	1008,02	5,6	7,8	7,6	1	1	1	1	1	1	1	1	1	0	1	-72,797745	273,140827	242,796836	0
15.01.2021	00:42:41	0	0	3,163665	2,93925	43,7724	-0,607	77,591	0	1007,94	5,6	7,8	7,6	1	1	1	1	1	1	1	1	1	0	1	-75,052854	273,033232	240,044748	0
15.01.2021	00:42:42	0	0	4,632509	3,04275	58,4892	-0,604	77,593	0	1007,98	5,6	7,9	7,6	1	1	1	1	1	1	1	1	1	0	1	-68,357999	272,96418	246,420966	0
15.01.2021	00:42:43	0	0	4,293545	3,24975	53,3556	-0,601	77,611	0	1008,34	5,6	7,8	7,6	1	1	1	1	1	1	1	1	1	0	1	-68,005638	273,03182	247,085448	0
15.01.2021	00:42:44	0	0	3,389641	3,08475	55,1988	-0,609	77,606	0	1008,02	5,6	7,8	7,6	1	1	1	1	1	1	1	1	1	0	1	-67,723749	272,975437	247,107143	0
15.01.2021	00:42:45	0	0	4,632509	3,255	67,2912	-0,603	77,611	0	1007,92	5,6	7,8	7,6	1	1	1	1	1	1	1	1	1	0	1	-70,190275	273,005018	244,777103	0
15.01.2021	00:42:46	0	0	3,276653	3,59475	64,26	-0,6	77,601	0	1008,04	5,6	7,8	7,6	1	1	1	1	1	1	1	1	1	0	1	-67,864693	272,975437	246,966199	0
15.01.2021	00:42:47	0	0	4,858485	3,84075	61,6716	-0,597	77,633	0	1007,96	5,6	7,8	7,6	1	1	1	1	1	1	1	1	1	0	1	-74,136716	273,128054	241,398836	0
15.01.2021	00:42:48	0	0	2,598725	3,8085	65,0844	-0,597	77,63	0	1007,8	5,6	8	7,6	1	1	1	1	1	1	1	1	1	0	1	-69,767442	272,972622	245,050465	0
15.01.2021	00:42:49	0	0	4,293545	3,38325	76,8888	-0,606	77,634	0	1008,04	5,6	7,8	7,6	1	1	1	1	1	1	1	1	1	0	1	-75,757576	272,976845	239,07981	0
15.01.2021	00:42:50	0	0	4,406533	3,0495	74,5272	-0,597	77,653	0	1008,12	5,6	7,8	7,6	1	1	1	1	1	1	1	1	1	0	1	-67,935166	273,108201	247,508657	0
15.01.2021	00:42:51	0	0	4,632509	2,64525	81,2052	-0,599	77,67	0	1007,76	5,6	7,8	7,6	1	1	1	1	1	1	1	1	1	0	1	-65,116279	273,145086	250,497989	0
15.01.2021	00:42:52	0	0	3,276653	2,28	70,2144	-0,606	77,668	0	1007,94	5,6	7,9	7,6	1	1	1	1	1	1	1	1	1	0	1	-76,180409	273,069973	239,086833	0
15.01.2021	00:42:53	0	0	4,632509	2,10675	74,538	-0,599	77,679	0	1008,06	5,6	7,8	7,6	1	1	1	1	1	1	1	1	1	0	1	-71,952079	273,128054	243,583473	0
15.01.2021	00:42:54	0	0	2,25976	2,07	80,496	-0,6	77,715	0	1008,22	5,6	7,8	7,6	1	1	1	1	1	1	1	1	1	0	1	-66,525722	273,05442	248,669701	0
15.01.2021	00:42:55	0	0	2,485722	1,932	73,7748	-0,598	77,717	0	1007,82	5,6	7,8	7,7	1	1	1	1	1	1	1	1	1	0	1	-68,07611	273,143666	247,531595	0
15.01.2021	00:42:56	0	0	2,485736	1,86975	59,8716	-0,596	77,738	0	1007,88	5,6	7,8	7,6	1	1	1	1	1	1	1	1	1	0	1	-67,653277	273,071387	247,620497	0
15.01.2021	00:42:57	0	0	4,180532	1,86675	54,1188	-0,596	77,749	0	1007,94	5,6	7,8	7,7	1	1	1	1	1	1	1	1	1	0	1	-72,30444	273,108201	243,139383	0
15.01.2021	00:42:58	0	0	2,485736	1,7925	46,5912	-0,597	77,75	0	1007,96	5,6	7,8	7,6	1	1	1	1	1	1	1	1	1	0	1	-70,68358	273,152188	244,963512	0
15.01.2021	00:42:59	0	0	4,180557	1,6725	47,7612	-0,597	77,765	0	1007,82	5,6	8	7,6	1	1	1	1	1	1	1	1	1	0	1	-66,45525	273,068558	248,80546	0
15.01.2021	00:43:00	0	0	3,389641	1,8585	49,2084	-0,593	77,761	0	1007,84	5,6	7,8	7,6	1	1	1	1	1	1	1	1	1	0	1	-67,723749	273,079877	247,589232	0
15.01.2021	00:43:01	0	0	5,084431	2,22	52,146	-0,597	77,729	0	1007,88	5,6	7,8	7,7	1	1	1	1	1	1	1	1	1	0	1	-71,740662	273,120961	243,762116	0
15.01.2021	00:43:02	0	0	5,084431	2,22	52,146	-0,597	77,729	0	1007,88	5,6	7,8	7,7	1	1	1	1	1	1	1	1	1	0	1	-71,740662	273,120961	243,762116	0
15.01.2021	00:43:03	0	0	2,598725	2,58375	62,4276	-0,601	77,74	0	1007,92	5,6	7,8	7,6	1	1	1	1	1	1	1	1	1	0	1	-70,049331	273,077046	245,250579	0
15.01.2021	00:43:04	0	0	4,293545	2,85675	61,3116	-0,598	77,733	0	1008,16	5,6	7,9	7,6	1	1	1	1	1	1	1	1	1	0	1	-72,093023	273,146506	243,527808	0
15.01.2021	00:43:05	0	0	4,745468	2,94525	66,2292	-0,603	77,733	0	1008,12	5,6	7,8	7,7	1	1	1	1	1	1	1	1	1	0	1	-68,146582	273,012067	246,85333	0
15.01.2021	00:43:06	0	0	3,163665	3,0315	62,0352	-0,594	77,735	0	1007,94	5,6	7,8	7,6	1	1	1	1	1	1	1	1	1	0	1	-68,357999	273,106784	247,079277	0
15.01.2021	00:43:07	0	0	4,745468	3,39075	50,2992	-0,593	77,738	0	1008,02	5,6	7,8	7,7	1	1	1	1	1	1	1	1	1	0	1	-72,022551	273,069973	243,244691	0
15.01.2021	00:43:08	0	0	3,502608	4,1505	41,454	-0,601	77,717	0	1007,9	5,6	7,8	7,7	1	1	1	1	1	1	1	1	1	0	1	-71,247357	273,128054	244,288194	0
15.01.2021	00:43:09	0	0	4,293519	4,72425	42,2208	-0,594	77,735	0	1007,84	5,6	7,8	7,7	1	1	1	1	1	1	1	1	1	0	1	-72,515856	273,098283	242,882145	0
15.01.2021	00:43:10	0	0	2,824701	4,84425	54,8028	-0,593	77,735	0	1008,12	5,6	7,8	7,6	1	1	1	1	1	1	1	1	1	0	1	-66,173362	273,12238	249,33597	0
15.01.2021	00:43:11	0	0	5,084431	5,22225	48,8196	-0,601	77,726	0	1007,86	5,6	7,8	7,7	1	1	1	1	1	1	1	1	1	0	1	-68,287526	273,077046	247,012383	0
15.01.2021	00:43:12	0	0	3,389641	5,2095	50,3208	-0,6	77,742	0	1007,88	5,6	7,8	7,6	1	1	1	1	1	1	1	1	1	0	1	-73,220578	272,971215	241,590837	0
15.01.2021	00:43:13	0	0	4,971473	4,89975	45,8388	-0,596	77,745	0	1008,08	5,6	7,8	7,6	1	1	1	1	1	1	1	1	1	0	1	-73,784355	273,109619	241,666016	0
15.01.2021	00:43:14	0	0	4,519494	4,965	35,0892	-0,596	77,736	0	1007,94	5,6	7,8	7,7	1	1	1	1	1	1	1	1	1	0	1	-68,357999	273,10395	247,066183	0
15.01.2021	00:43:15	0	0	4,745468	4,94325	54,8028	-0,595	77,752	0	1008,02	5,6	7,8	7,7	1	1	1	1	1	1	1	1	1	0	1	-69,203665	273,128054	246,331887	0
15.01.2021	00:43:16	0	0	3,615617	4,65375	89,7048	-0,589	77,768	0	1007,9	5,6	7,8	7,6	1	1	1	1	1	1	1	1	1	0	1	-68,780832	273,067144	246,473347	0
15.01.2021	00:43:17	0	0	2,711696	4,69875	57,4128	-0,594	77,776	0	1007,72	5,6	7,8	7,7	1	1	1	1	1	1	1	1	1	0	1	-67,019027	272,988109	247,870327	0
15.01.2021	00:43:18	0	0	2,937671	4,794	76,3956	-0,588	77,79	0	1008,1	5,6	7,8	7,7	1	1	1	1	1	1	1	1	1	0	1	-75,616631	273,009247	239,370266	0
15.01.2021	00:43:19	0	0	2,937671	4,90275	68,7852	-0,593	77,777	0	1008	5,6	7,8	7,7	1	1	1	1	1	1	1	1	1	0	1	-70,260747	272,950119	244,45336	0
15.01.2021	00:43:20	0	0	2,937671	4,908	68,8104	-0,592	77,797	0	1007,96	5,5	7,8	7,7	1	1	1	1	1	1	1	1	1	0	1	-68,639887	273,03182	246,451198	0
15.01.2021	00:43:21	0	0	4,293519	4,7565	81,6012	-0,594	77,797	0	1007,92	5,6	7,8	7,7	1	1	1	1	1	1	1	1	1	0	1	-69,133192	272,941687	245,542027	0
15.01.2021	00:43:22	0	0	2,937689	4,629	72,3564	-0,586	77,817	0	1008,02	5,6	7,8	7,6	1	1	1	1	1	1	1	1	1	0	1	-70,68358	272,982476	244,179786	0
15.01.2021	00:43:23	0	0	3,728582	4,38825	65,8512	-0,593	77,81	0	1008,02	5,6	7,8	7,7	1	1	1	1	1	1	1	1	1	0	1	-66,102889	272,945902	248,591771	0
15.01.2021	00:43:24	0	0	4,632481	4,257	74,9412	-0,598	77,823	0	1007,92	5,6	7,8	7,7	1	1	1	1	1	1	1	1	1	0	1	-68,710359	272,97966	246,140015	0
15.01.2021	00:43:25	0	0	4,858456	4,10025	82,9692	-0,588	77,843	0	1008,06	5,6	7,8	7,7	1	1	1	1	1	1	1	1	1	0	1	-65,186751	272,990926	249,715602	0
15.01.2021	00:43:26	0	0	3,276653	3,972	88,1352	-0,588	77,846	0	1007,86	5,7	7,8	7,6	1	1	1	1	1	1	1	1	1	0	1	-75,264271	272,958555	239,488744	0
15.01.2021	00:43:27	0	0	4,180532	3,537	85,5252	-0,589	77,844	0	1007,92	5,6	7,8	7,7	1	1	1	1	1	1	1	1	1	0	1	-71,740662	273,03888	243,383013	0
15.01.2021	00:43:28	0	0	4,293545	3,33675	80,514	-0,592	77,865	0	1007,86	5,6	7,8	7,6	1	1	1	1	1	1	1	1	1	0	1	-65,186751	273,115289	250,289819	0
15.01.2021	00:43:29	0	0	4,180532	3,20325	70,3296	-0,586	77,876	0	1007,94	5,6	7,8	7,7	1	1	1	1	1	1	1	1	1	0	1	-66,948555	273,030409	248,136014	0
15.01.2021	00:43:30	0	0	3,38962	3,04125	70,8552	-0,586	77,885	0	1008	5,6	7,8	7,7	1	1	1	1	1	1	1	1	1	0	1	-68,780832	273,098283	246,61717	0
15.01.2021	00:43:31	0	0	3,050658	2,81625	73,7856	-0,583	77,864	0	1007,9	5,6	7,8	7,7	1	1	1	1	1	1	1	1	1	0	1	-76,603242	273,123798	238,912644	0
15.01.2021	00:43:32	0	0	4,293519	2,77425	79,0272	-0,586	77,835	0	1008,06	5,7	7,8	7,7	1	1	1	1	1	1	1	1	1	0	1	-72,022551	273,086954	243,323119	0
15.01.2021	00:43:33	0	0	5,310437	3,2955	74,9376	-0,582	77,772	0	1007,92	5,7	7,8	7,6	1	1	1	1	1	1	1	1	1	0	1	-68,005638	273,069973	247,261604	0
15.01.2021	00:43:34	0	0	4,971443	3,7725	75,2508	-0,583	77,761	0	1008,06	5,6	7,8	7,7	1	1	1	1	1	1	1	1	1	0	1	-66,384778	272,955742	248,355265	0
15.01.2021	00:43:35	0	0	5,084431	3,9405	66,2364	-0,585	77,708	0	1008,06	5,6	7,8	7,7	1	1	1	1	1	1	1	1	1	0	1	-71,176885	273,005018	243,790493	0
15.01.2021	00:43:36	0	0	4,745497	4,14825	58,3164	-0,584	77,675	0	1008,04	5,5	7,8	7,6	1	1	1	1	1	1	1	1	1	0	1	-75,123326	273,108201	240,320497	0
15.01.2021	00:43:37	0	0	2,937671	4,1865	59,8608	-0,589	77,621	0	1007,9	5,6	7,8	7,7	1	1	1	1	1	1	1	1	1	0	1	-68,639887	272,976845	246,197498	0
15.01.2021	00:43:38	0	0	4,632509	4,137	62,7912	-0,585	77,582	0	1007,94	5,7	7,8	7,6	1	1	1	1	1	1	1	1	1	0	1	-72,586328	273,082707	242,739726	0
15.01.2021	00:43:39	0	0	2,485736	4,2135	71,244	-0,586	77,55	0	1008,02	5,7	7,8	7,6	1	1	1	1	1	1	1	1	1	0	1	-73,009161	272,968401	241,789272	0
15.01.2021	00:43:40	0	0	4,858485	4,716	64,2528	-0,582	77,518	0	1007,84	5,6	7,8	7,6	1	1	1	1	1	1	1	1	1	0	1	-71,881607	273,074217	243,405234	0
15.01.2021	00:43:41	0	0	2,711696	4,722	72,0036	-0,581	77,49	0	1008,1	5,6	7,8	7,7	1	1	1	1	1	1	1	1	1	0	1	-68,921776	273,136568	246,653123	0
15.01.2021	00:43:42	0	0	4,858456	4,599	70,2216	-0,595	77,452	0	1007,98	5,6	7,8	7,7	1	1	1	1	1	1	1	1	1	0	1	-75,193798	273,048768	239,975526	0
15.01.2021	00:43:43	0	0	3,84157	4,50375	70,2108	-0,59	77,425	0	1007,94	5,6	7,8	7,7	1	1	1	1	1	1	1	1	1	0	1	-68,780832	273,13231	246,774391	0
15.01.2021	00:43:44	0	0	3,954581	4,52625	71,5752	-0,584	77,412	0	1007,98	5,7	7,8	7,6	1	1	1	1	1	1	1	1	1	0	1	-68,710359	272,99938	246,231002	0
15.01.2021	00:43:45	0	0	2,824684	4,76025	70,632	-0,587	77,383	0	1007,98	5,7	7,8	7,7	1	1	1	1	1	1	1	1	1	0	1	-72,374912	272,972622	242,442995	0
15.01.2021	00:43:46	0	0	4,745468	5,25825	63,8748	-0,588	77,366	0	1007,96	5,6	7,8	7,7	1	1	1	1	1	1	1	1	1	0	1	-73,995772	273,113871	241,474248	0
15.01.2021	00:43:47	0	0	5,310405	5,52	62,0352	-0,592	77,377	0	1007,96	5,6	7,8	7,7	1	1	1	1	1	1	1	1	1	0	1	-68,217054	272,971215	246,594361	0
15.01.2021	00:43:48	0	0	4,067569	5,256	63,4824	-0,591	77,384	0	1008,02	5,6	7,8	7,6	1	1	1	1	1	1	1	1	1	0	1	-70,894996	273,03888	244,228679	0
15.01.2021	00:43:49	0	0	4,858485	5,44725	65,4732	-0,586	77,402	0	1007,86	5,6	7,8	7,6	1	1	1	1	1	1	1	1	1	0	1	-71,952079	273,147927	243,675317	0
15.01.2021	00:43:50	0	0	3,502608	5,32725	70,2216	-0,592	77,406	0	1008,04	5,6	7,8	7,7	1	1	1	1	1	1	1	1	1	0	1	-68,357999	273,044529	246,791759	0
15.01.2021	00:43:51	0	0	4,632509	5,31225	62,892	-0,591	77,427	0	1008,02	5,6	7,8	7,6	1	1	1	1	1	1	1	1	1	0	1	-70,260747	272,983884	244,609115	0
15.01.2021	00:43:52	0	0	4,745468	5,2965	77,976	-0,59	77,443	0	1007,92	5,7	7,8	7,7	1	1	1	1	1	1	1	1	1	0	1	-71,952079	273,153608	243,701579	0
15.01.2021	00:43:53	0	0	4,632481	5,20275	80,496	-0,59	77,461	0	1007,9	5,6	7,8	7,7	1	1	1	1	1	1	1	1	1	0	1	-71,176885	273,128054	244,358667	0
15.01.2021	00:43:54	0	0	4,180557	4,935	84,4524	-0,59	77,498	0	1008,04	5,6	7,8	7,6	1	1	1	1	1	1	1	1	1	0	1	-69,908386	273,162134	245,784683	0
15.01.2021	00:43:55	0	0	3,841593	4,653	83,3616	-0,591	77,504	0	1007,9	5,6	7,8	7,6	1	1	1	1	1	1	1	1	1	0	1	-70,049331	273,014888	244,9636	0
15.01.2021	00:43:56	0	0	2,937671	4,56525	78,6528	-0,589	77,519	0	1008,02	5,6	7,8	7,7	1	1	1	1	1	1	1	1	1	0	1	-66,737139	273,012067	248,262774	0
15.01.2021	00:43:57	0	0	4,293519	4,74675	80,5212	-0,592	77,527	0	1007,98	5,5	7,8	7,7	1	1	1	1	1	1	1	1	1	0	1	-65,891473	273,003608	249,0694	0
15.01.2021	00:43:58	0	0	4,971473	4,64325	73,1484	-0,596	77,525	0	1007,98	5,6	7,8	7,6	1	1	1	1	1	1	1	1	1	0	1	-68,146582	273,051594	247,035791	0
15.01.2021	00:43:59	0	0	4,858456	4,386	75,2364	-0,596	77,532	0	1007,72	5,6	7,8	7,7	1	1	1	1	1	1	1	1	1	0	1	-69,556025	272,989517	245,339828	0
15.01.2021	00:44:00	0	0	3,276633	4,34775	75,2184	-0,59	77,555	0	1008,06	5,6	7,8	7,7	1	1	1	1	1	1	1	1	1	0	1	-72,727273	273,163555	242,972367	0
15.01.2021	00:44:01	0	0	5,084461	4,48575	74,9232	-0,594	77,55	0	1008,04	5,6	7,8	7,6	1	1	1	1	1	1	1	1	1	0	1	-70,754052	273,152188	244,893039	0
15.01.2021	00:44:02	0	0	5,084461	4,48575	74,9232	-0,594	77,55	0	1008,04	5,6	7,8	7,6	1	1	1	1	1	1	1	1	1	0	1	-70,754052	273,152188	244,893039	0
15.01.2021	00:44:03	0	0	3,728605	4,47075	71,9892	-0,592	77,574	0	1008	5,6	7,8	7,6	1	1	1	1	1	1	1	1	1	0	1	-73,572939	273,051594	241,609434	0
15.01.2021	00:44:04	0	0	4,745497	4,266	67,6728	-0,593	77,574	0	1007,98	5,6	7,8	7,6	1	1	1	1	1	1	1	1	1	0	1	-64,129669	273,177775	251,635709	0
15.01.2021	00:44:05	0	0	3,050658	4,155	60,9372	-0,591	77,592	0	1007,98	5,6	7,8	7,7	1	1	1	1	1	1	1	1	1	0	1	-69,837914	273,033232	245,259688	0
15.01.2021	00:44:06	0	0	4,519494	4,161	57,0456	-0,596	77,593	0	1008	5,6	7,8	7,7	1	1	1	1	1	1	1	1	1	0	1	-70,613108	273,034644	244,491012	0
15.01.2021	00:44:07	0	0	3,050677	4,095	65,4696	-0,592	77,587	0	1007,98	5,6	7,8	7,6	1	1	1	1	1	1	1	1	1	0	1	-70,542636	273,021941	244,502849	0
15.01.2021	00:44:08	0	0	4,632509	3,84	61,326	-0,591	77,58	0	1007,98	5,6	7,8	7,6	1	1	1	1	1	1	1	1	1	0	1	-69,06272	273,128054	246,472832	0
15.01.2021	00:44:09	0	0	3,841593	3,7635	60,552	-0,594	77,578	0	1007,98	5,6	7,8	7,6	1	1	1	1	1	1	1	1	1	0	1	-73,572939	273,200547	242,297743	0
15.01.2021	00:44:10	0	0	4,067569	3,69075	63,504	-0,592	77,568	0	1008	5,6	7,8	7,6	1	1	1	1	1	1	1	1	1	0	1	-74,770965	273,137988	240,810494	0
15.01.2021	00:44:11	0	0	2,711713	3,666	63,4932	-0,594	77,579	0	1008,02	5,6	7,8	7,6	1	1	1	1	1	1	1	1	1	0	1	-73,431994	273,007837	241,548396	0
15.01.2021	00:44:12	0	0	5,310437	3,88725	65,4624	-0,591	77,638	0	1008,06	5,6	7,8	7,6	1	1	1	1	1	1	1	1	1	0	1	-72,656801	273,15645	243,009992	0
15.01.2021	00:44:13	0	0	2,598725	4,30425	65,4768	-0,588	77,585	0	1008,24	5,6	7,8	7,6	1	1	1	1	1	1	1	1	1	0	1	-68,992248	273,048768	246,177077	0
15.01.2021	00:44:14	0	0	5,084461	4,30725	63,486	-0,593	77,58	0	1007,96	5,6	7,8	7,6	1	1	1	1	1	1	1	1	1	0	1	-73,150106	273,112454	242,313364	0
15.01.2021	00:44:15	0	0	4,293545	4,22475	62,7876	-0,592	77,596	0	1007,96	5,6	7,8	7,6	1	1	1	1	1	1	1	1	1	0	1	-70,472163	273,194851	245,372178	0
15.01.2021	00:44:16	0	0	3,502608	4,19625	69,462	-0,597	77,57	0	1008	5,6	7,8	7,7	1	1	1	1	1	1	1	1	1	0	1	-68,428471	273,139407	247,159549	0
15.01.2021	00:44:17	0	0	4,519521	4,1715	70,2504	-0,597	77,579	0	1008,02	5,6	7,8	7,6	1	1	1	1	1	1	1	1	1	0	1	-70,613108	273,194851	245,231234	0
15.01.2021	00:44:18	0	0	5,310437	4,0935	71,2296	-0,59	77,565	0	1008,14	5,6	7,8	7,6	1	1	1	1	1	1	1	1	1	0	1	-67,159972	273,155029	248,500253	0
15.01.2021	00:44:19	0	0	4,067569	4,04625	68,4252	-0,589	77,587	0	1008,08	5,6	7,8	7,6	1	1	1	1	1	1	1	1	1	0	1	-70,613108	273,17493	245,139118	0
15.01.2021	00:44:20	0	0	3,728605	3,8475	72,2988	-0,595	77,602	0	1007,96	5,6	7,8	7,6	1	1	1	1	1	1	1	1	1	0	1	-65,680056	273,16782	250,039299	0
15.01.2021	00:44:21	0	0	4,858485	3,7575	69,858	-0,594	77,611	0	1007,92	5,6	7,8	7,6	1	1	1	1	1	1	1	1	1	0	1	-69,203665	273,036056	245,906973	0
15.01.2021	00:44:22	0	0	5,197449	3,73125	73,4004	-0,595	77,599	0	1007,92	5,6	7,8	7,6	1	1	1	1	1	1	1	1	1	0	1	-70,331219	273,189157	245,486792	0
15.01.2021	00:44:23	0	0	4,519494	3,684	73,8036	-0,593	77,615	0	1007,84	5,6	7,8	7,7	1	1	1	1	1	1	1	1	1	0	1	-71,317829	273,055833	243,88412	0
15.01.2021	00:44:24	0	0	4,858485	3,66375	68,7744	-0,59	77,605	0	1008,2	5,6	7,8	7,6	1	1	1	1	1	1	1	1	1	0	1	-69,485553	273,166398	246,227229	0
15.01.2021	00:44:25	0	0	4,519521	3,5475	69,8364	-0,59	77,608	0	1008,06	5,6	7,8	7,6	1	1	1	1	1	1	1	1	1	0	1	-67,0895	273,05866	248,125503	0
15.01.2021	00:44:26	0	0	4,858485	3,2925	58,4892	-0,597	77,614	0	1008	5,6	7,8	7,6	1	1	1	1	1	1	1	1	1	0	1	-72,093023	273,187734	243,718407	0
15.01.2021	00:44:27	0	0	3,615617	3,09675	63,4896	-0,593	77,632	0	1007,76	5,6	7,8	7,6	1	1	1	1	1	1	1	1	1	0	1	-73,572939	273,21907	242,383414	0
15.01.2021	00:44:28	0	0	4,293545	2,976	63,1764	-0,596	77,629	0	1008,12	5,6	7,8	7,6	1	1	1	1	1	1	1	1	1	0	1	-71,529246	273,051594	243,653127	0
15.01.2021	00:44:29	0	0	3,841593	2,85675	58,8816	-0,593	77,638	0	1008,04	5,6	7,8	7,6	1	1	1	1	1	1	1	1	1	0	1	-74,982382	273,197699	240,875129	0
15.01.2021	00:44:30	0	0	4,406533	2,80575	61,2936	-0,591	77,647	0	1008,12	5,6	7,8	7,6	1	1	1	1	1	1	1	1	1	0	1	-70,754052	273,082707	244,572003	0
15.01.2021	00:44:31	0	0	3,615595	2,7045	49,2336	-0,591	77,67	0	1008,08	5,6	7,8	7,7	1	1	1	1	1	1	1	1	1	0	1	-68,146582	273,220495	247,816365	0
15.01.2021	00:44:32	0	0	4,745497	2,757	59,49	-0,59	77,676	0	1007,84	5,6	7,8	7,6	1	1	1	1	1	1	1	1	1	0	1	-73,431994	273,16782	242,287361	0
15.01.2021	00:44:33	0	0	3,163646	2,76975	56,6568	-0,59	77,675	0	1008,02	5,6	7,8	7,7	1	1	1	1	1	1	1	1	1	0	1	-72,233968	273,206245	243,663064	0
15.01.2021	00:44:34	0	0	2,711713	2,86275	41,4792	-0,596	77,676	0	1007,86	5,6	7,8	7,6	1	1	1	1	1	1	1	1	1	0	1	-69,767442	273,177775	245,997936	0
15.01.2021	00:44:35	0	0	2,824701	2,8275	50,7024	-0,592	77,685	0	1007,88	5,6	7,8	7,6	1	1	1	1	1	1	1	1	1	0	1	-69,767442	273,189157	246,050569	0
15.01.2021	00:44:36	0	0	3,163665	2,72925	51,444	-0,59	77,696	0	1008,04	5,6	7,8	7,6	1	1	1	1	1	1	1	1	1	0	1	-69,06272	273,055833	246,139229	0
15.01.2021	00:44:37	0	0	3,84157	2,62275	60,5592	-0,59	77,698	0	1008,16	5,6	7,8	7,7	1	1	1	1	1	1	1	1	1	0	1	-69,908386	273,074217	245,378455	0
15.01.2021	00:44:38	0	0	3,050677	2,72325	46,98	-0,589	77,71	0	1008,1	5,6	7,8	7,6	1	1	1	1	1	1	1	1	1	0	1	-68,146582	273,23333	247,87574	0
15.01.2021	00:44:39	0	0	4,632509	2,67975	56,2788	-0,587	77,71	0	1007,96	5,6	7,8	7,6	1	1	1	1	1	1	1	1	1	0	1	-70,754052	273,139407	244,833968	0
15.01.2021	00:44:40	0	0	2,824701	2,48625	39,8844	-0,592	77,694	0	1007,88	5,6	7,8	7,6	1	1	1	1	1	1	1	1	1	0	1	-72,586328	273,223347	243,389809	0
15.01.2021	00:44:41	0	0	4,067569	2,331	46,9908	-0,594	77,705	0	1007,9	5,6	7,8	7,6	1	1	1	1	1	1	1	1	1	0	1	-71,529246	273,067144	243,724933	0
15.01.2021	00:44:42	0	0	3,84157	2,4345	45,1512	-0,591	77,71	0	1007,66	5,6	7,8	7,7	1	1	1	1	1	1	1	1	1	0	1	-71,247357	273,15645	244,419435	0
15.01.2021	00:44:43	0	0	3,163665	2,60175	64,3068	-0,587	77,7	0	1007,86	5,6	7,8	7,6	1	1	1	1	1	1	1	1	1	0	1	-72,515856	273,072802	242,764451	0
15.01.2021	00:44:44	0	0	4,632509	2,74575	57,0564	-0,59	77,709	0	1007,86	5,6	7,8	7,6	1	1	1	1	1	1	1	1	1	0	1	-70,965469	273,106784	244,471807	0
15.01.2021	00:44:45	0	0	4,745497	2,919	38,7936	-0,59	77,709	0	1008,02	5,6	7,8	7,6	1	1	1	1	1	1	1	1	1	0	1	-70,894996	273,048768	244,274328	0
15.01.2021	00:44:46	0	0	3,954581	3,06075	67,014	-0,593	77,701	0	1008	5,6	7,8	7,6	1	1	1	1	1	1	1	1	1	0	1	-73,29105	273,172086	242,448025	0
15.01.2021	00:44:47	0	0	2,372748	2,82225	57,4164	-0,585	77,71	0	1007,9	5,6	7,8	7,6	1	1	1	1	1	1	1	1	1	0	1	-75,405215	273,241891	240,656717	0
15.01.2021	00:44:48	0	0	3,163665	2,70225	64,6308	-0,59	77,69	0	1007,72	5,6	7,8	7,6	1	1	1	1	1	1	1	1	1	0	1	-72,727273	273,176352	243,031529	0
15.01.2021	00:44:49	0	0	2,598725	2,58975	50,3244	-0,585	77,698	0	1007,84	5,6	7,8	7,6	1	1	1	1	1	1	1	1	1	0	1	-71,529246	273,060074	243,692285	0
15.01.2021	00:44:50	0	0	3,050658	2,3955	32,5872	-0,584	77,709	0	1007,68	5,6	7,8	7,7	1	1	1	1	1	1	1	1	1	0	1	-67,723749	273,130891	247,824916	0
15.01.2021	00:44:51	0	0	4,180532	2,33925	59,8824	-0,584	77,708	0	1007,98	5,6	7,8	7,7	1	1	1	1	1	1	1	1	1	0	1	-70,824524	273,203396	245,059331	0
15.01.2021	00:44:52	0	0	4,971473	2,508	50,688	-0,587	77,715	0	1008	5,6	7,8	7,6	1	1	1	1	1	1	1	1	1	0	1	-73,502467	273,241891	242,559466	0
15.01.2021	00:44:53	0	0	5,649401	2,745	39,8736	-0,582	77,713	0	1007,98	5,6	7,8	7,6	1	1	1	1	1	1	1	1	1	0	1	-73,431994	273,12238	242,077337	0
15.01.2021	00:44:54	0	0	5,197418	2,85975	59,1264	-0,582	77,714	0	1007,82	5,6	7,8	7,7	1	1	1	1	1	1	1	1	1	0	1	-66,666667	273,077046	248,633243	0
15.01.2021	00:44:55	0	0	5,310437	2,80425	41,0256	-0,592	77,714	0	1007,88	5,6	7,8	7,6	1	1	1	1	1	1	1	1	1	0	1	-74,91191	273,172086	240,827166	0
15.01.2021	00:44:56	0	0	3,954581	2,9205	59,1156	-0,583	77,731	0	1007,98	5,6	7,8	7,6	1	1	1	1	1	1	1	1	1	0	1	-72,374912	273,226199	243,614418	0
15.01.2021	00:44:57	0	0	2,598725	2,9865	43,7076	-0,577	77,744	0	1007,96	5,7	7,8	7,6	1	1	1	1	1	1	1	1	1	0	1	-72,30444	273,170664	243,428062	0
15.01.2021	00:44:58	0	0	4,519521	3,21375	54,1008	-0,582	77,749	0	1007,96	5,6	7,8	7,6	1	1	1	1	1	1	1	1	1	0	1	-73,009161	273,246173	243,072584	0
15.01.2021	00:44:59	0	0	2,146772	3,27225	70,2144	-0,577	77,75	0	1007,96	5,6	7,8	7,6	1	1	1	1	1	1	1	1	1	0	1	-71,740662	273,112454	243,722807	0
15.01.2021	00:45:00	0	0	5,423425	2,595	40,248	-0,582	77,749	0	1008,02	5,6	7,8	7,6	1	1	1	1	1	1	1	1	1	0	1	-73,079634	273,230477	242,92949	0
15.01.2021	00:45:01	0	0	5,084461	2,46	50,3028	-0,583	77,744	0	1008,02	5,6	7,8	7,6	1	1	1	1	1	1	1	1	1	0	1	-68,498943	273,160713	247,187556	0
15.01.2021	00:45:02	0	0	5,084461	2,46	50,3028	-0,583	77,744	0	1008,02	5,6	7,8	7,6	1	1	1	1	1	1	1	1	1	0	1	-68,498943	273,160713	247,187556	0
15.01.2021	00:45:03	0	0	4,519521	2,52525	54,1188	-0,58	77,757	0	1008	5,6	7,8	7,6	1	1	1	1	1	1	1	1	1	0	1	-75,616631	273,249029	240,478325	0
15.01.2021	00:45:04	0	0	4,406533	2,50875	60,9372	-0,58	77,737	0	1008,12	5,6	7,8	7,6	1	1	1	1	1	1	1	1	1	0	1	-73,854827	273,251884	242,253343	0
15.01.2021	00:45:05	0	0	5,084461	2,5695	49,5648	-0,577	77,741	0	1008,02	5,7	7,8	7,6	1	1	1	1	1	1	1	1	1	0	1	-72,727273	273,182042	243,057838	0
15.01.2021	00:45:06	0	0	3,728582	2,47575	30,3516	-0,577	77,717	0	1007,9	5,6	7,8	7,7	1	1	1	1	1	1	1	1	1	0	1	-73,784355	273,0997	241,620191	0
15.01.2021	00:45:07	0	0	5,084461	2,397	57,0564	-0,575	77,724	0	1007,88	5,6	7,8	7,6	1	1	1	1	1	1	1	1	1	0	1	-70,260747	273,201971	245,616521	0
15.01.2021	00:45:08	0	0	3,841593	2,412	46,9944	-0,576	77,723	0	1007,94	5,6	7,8	7,6	1	1	1	1	1	1	1	1	1	0	1	-67,230444	273,234757	248,798478	0
15.01.2021	00:45:09	0	0	3,84157	2,76525	42,9192	-0,58	77,711	0	1007,86	5,6	7,8	7,7	1	1	1	1	1	1	1	1	1	0	1	-68,710359	273,126635	246,818637	0
15.01.2021	00:45:10	0	0	3,276633	2,955	59,5008	-0,58	77,697	0	1007,9	5,6	7,8	7,7	1	1	1	1	1	1	1	1	1	0	1	-70,542636	273,067144	244,711543	0
15.01.2021	00:45:11	0	0	4,632509	2,8875	59,1048	-0,579	77,713	0	1007,96	5,6	7,8	7,6	1	1	1	1	1	1	1	1	1	0	1	-73,502467	273,119543	241,993759	0
15.01.2021	00:45:12	0	0	3,050658	3,01725	64,6488	-0,572	77,699	0	1008,04	5,6	7,8	7,7	1	1	1	1	1	1	1	1	1	0	1	-70,68358	273,05866	244,531423	0
15.01.2021	00:45:13	0	0	3,163646	3,0795	52,1316	-0,581	77,684	0	1007,94	5,6	7,8	7,7	1	1	1	1	1	1	1	1	1	0	1	-72,022551	273,194851	243,821791	0
15.01.2021	00:45:14	0	0	3,841593	2,98425	80,1468	-0,575	77,699	0	1008,02	5,6	7,8	7,6	1	1	1	1	1	1	1	1	1	0	1	-73,995772	273,227625	242,000156	0
15.01.2021	00:45:15	0	0	3,276633	2,694	76,3668	-0,574	77,671	0	1007,92	5,6	7,8	7,7	1	1	1	1	1	1	1	1	1	0	1	-72,515856	273,055833	242,686093	0
15.01.2021	00:45:16	0	0	3,615617	2,64975	64,2528	-0,579	77,664	0	1007,94	5,6	7,8	7,6	1	1	1	1	1	1	1	1	1	0	1	-68,639887	273,234757	247,389035	0
15.01.2021	00:45:17	0	0	4,632509	2,65125	65,0844	-0,576	77,674	0	1007,98	5,6	7,8	7,6	1	1	1	1	1	1	1	1	1	0	1	-70,049331	273,12238	245,460001	0
15.01.2021	00:45:18	0	0	2,824684	2,90325	66,2148	-0,579	77,65	0	1007,84	5,7	7,8	7,7	1	1	1	1	1	1	1	1	1	0	1	-68,357999	273,098283	247,040003	0
15.01.2021	00:45:19	0	0	3,050677	3,309	70,542	-0,584	77,637	0	1007,9	5,6	7,8	7,6	1	1	1	1	1	1	1	1	1	0	1	-68,851304	273,091201	246,513986	0
15.01.2021	00:45:20	0	0	4,406533	3,72	71,5968	-0,573	77,65	0	1007,92	5,6	7,8	7,6	1	1	1	1	1	1	1	1	1	0	1	-72,656801	273,162134	243,036268	0
15.01.2021	00:45:21	0	0	4,858456	3,92625	57,0492	-0,575	77,642	0	1008,04	5,6	7,8	7,7	1	1	1	1	1	1	1	1	1	0	1	-71,529246	273,062902	243,705342	0
15.01.2021	00:45:22	0	0	4,293519	4,03125	51,0372	-0,575	77,627	0	1008	5,6	7,8	7,7	1	1	1	1	1	1	1	1	1	0	1	-77,730796	273,13231	237,824427	0
15.01.2021	00:45:23	0	0	3,728582	3,78975	58,1184	-0,577	77,613	0	1008,04	5,6	7,8	7,7	1	1	1	1	1	1	1	1	1	0	1	-72,445384	273,240464	243,609945	0
15.01.2021	00:45:24	0	0	4,519494	3,62325	37,6956	-0,577	77,606	0	1007,94	5,6	7,8	7,7	1	1	1	1	1	1	1	1	1	0	1	-73,361522	273,199123	242,502574	0
15.01.2021	00:45:25	0	0	3,163646	3,492	48,1176	-0,575	77,594	0	1007,9	5,6	7,8	7,7	1	1	1	1	1	1	1	1	1	0	1	-73,079634	273,068558	242,181076	0
15.01.2021	00:45:26	0	0	3,050677	3,849	54,4968	-0,58	77,597	0	1007,96	5,6	7,8	7,6	1	1	1	1	1	1	1	1	1	0	1	-68,921776	273,109619	246,528595	0
15.01.2021	00:45:27	0	0	3,841593	4,2765	54,1332	-0,581	77,561	0	1007,84	5,6	7,8	7,6	1	1	1	1	1	1	1	1	1	0	1	-72,163495	273,23761	243,878629	0
15.01.2021	00:45:28	0	0	4,519494	4,20225	50,3244	-0,572	77,558	0	1007,98	5,6	7,8	7,7	1	1	1	1	1	1	1	1	1	0	1	-69,203665	273,21907	246,752688	0
15.01.2021	00:45:29	0	0	4,745497	3,8865	63,8892	-0,573	77,548	0	1007,98	5,6	7,8	7,6	1	1	1	1	1	1	1	1	1	0	1	-73,29105	273,21907	242,665303	0
15.01.2021	00:45:30	0	0	3,050677	4,11375	68,04	-0,584	77,529	0	1007,94	5,6	7,8	7,6	1	1	1	1	1	1	1	1	1	0	1	-71,388302	273,077046	243,911608	0
15.01.2021	00:45:31	0	0	4,519494	4,3905	65,466	-0,576	77,527	0	1007,92	5,6	7,8	7,7	1	1	1	1	1	1	1	1	1	0	1	-71,811135	273,173508	243,934516	0
15.01.2021	00:45:32	0	0	4,745497	4,59525	67,68	-0,574	77,503	0	1007,96	5,6	7,8	7,6	1	1	1	1	1	1	1	1	1	0	1	-72,515856	273,227625	243,480071	0
15.01.2021	00:45:33	0	0	3,728605	4,87575	64,656	-0,573	77,497	0	1008,06	5,6	7,8	7,6	1	1	1	1	1	1	1	1	1	0	1	-69,837914	273,239037	246,210812	0
15.01.2021	00:45:34	0	0	4,406533	4,9545	71,6148	-0,576	77,488	0	1008,06	5,6	7,8	7,6	1	1	1	1	1	1	1	1	1	0	1	-67,723749	273,113871	247,74627	0
15.01.2021	00:45:35	0	0	3,84157	5,094	71,2368	-0,569	77,473	0	1008,06	5,6	7,8	7,7	1	1	1	1	1	1	1	1	1	0	1	-72,938689	273,246173	243,143056	0
15.01.2021	00:45:36	0	0	5,310405	5,21625	73,7964	-0,571	77,448	0	1007,94	5,6	7,8	7,7	1	1	1	1	1	1	1	1	1	0	1	-70,049331	273,182042	245,73578	0
15.01.2021	00:45:37	0	0	3,163646	5,08125	63,2916	-0,571	77,445	0	1007,92	5,6	7,8	7,7	1	1	1	1	1	1	1	1	1	0	1	-70,894996	273,184888	244,903273	0
15.01.2021	00:45:38	0	0	2,485736	4,90575	72,306	-0,57	77,438	0	1008	5,6	7,8	7,6	1	1	1	1	1	1	1	1	1	0	1	-68,005638	273,055833	247,196311	0
15.01.2021	00:45:39	0	0	3,050677	4,51725	44,7804	-0,574	77,441	0	1007,94	5,6	7,8	7,6	1	1	1	1	1	1	1	1	1	0	1	-66,314306	273,074217	248,972535	0
15.01.2021	00:45:40	0	0	2,598725	4,44825	51,066	-0,568	77,432	0	1008	5,6	7,8	7,6	1	1	1	1	1	1	1	1	1	0	1	-68,851304	273,209094	247,058906	0
15.01.2021	00:45:41	0	0	3,841593	4,38	54,7812	-0,574	77,426	0	1007,96	5,6	7,8	7,6	1	1	1	1	1	1	1	1	1	0	1	-70,894996	273,075631	244,398378	0
15.01.2021	00:45:42	0	0	2,485736	4,152	54,7812	-0,579	77,432	0	1007,94	5,6	7,8	7,6	1	1	1	1	1	1	1	1	1	0	1	-72,30444	273,152188	243,342652	0
15.01.2021	00:45:43	0	0	3,389641	4,23675	63,1692	-0,575	77,448	0	1008,06	5,6	7,8	7,6	1	1	1	1	1	1	1	1	1	0	1	-69,626498	273,229051	246,376028	0
15.01.2021	00:45:44	0	0	2,711696	4,362	63,4896	-0,58	77,451	0	1007,78	5,6	7,8	7,7	1	1	1	1	1	1	1	1	1	0	1	-67,582805	273,18062	248,195728	0
15.01.2021	00:45:45	0	0	2,485722	4,47825	68,0148	-0,575	77,447	0	1007,98	5,6	7,8	7,7	1	1	1	1	1	1	1	1	1	0	1	-71,035941	273,074217	244,2509	0
15.01.2021	00:45:46	0	0	2,937671	4,33725	78,2604	-0,573	77,46	0	1008,04	5,6	7,8	7,7	1	1	1	1	1	1	1	1	1	0	1	-74,136716	273,092618	241,235115	0
15.01.2021	00:45:47	0	0	2,485736	4,101	78,6636	-0,569	77,497	0	1008,16	5,6	7,8	7,6	1	1	1	1	1	1	1	1	1	0	1	-69,626498	273,172086	246,112578	0
15.01.2021	00:45:48	0	0	2,711713	4,14525	75,2292	-0,583	77,499	0	1008	5,6	7,8	7,6	1	1	1	1	1	1	1	1	1	0	1	-72,515856	273,241891	243,546076	0
15.01.2021	00:45:49	0	0	4,519521	4,23825	73,044	-0,576	77,525	0	1007,92	5,6	7,8	7,6	1	1	1	1	1	1	1	1	1	0	1	-70,894996	273,216219	245,04817	0
15.01.2021	00:45:50	0	0	3,841593	4,191	68,7708	-0,574	77,542	0	1008	5,6	7,8	7,6	1	1	1	1	1	1	1	1	1	0	1	-66,384778	273,207669	249,518842	0
15.01.2021	00:45:51	0	0	3,163646	3,897	70,6176	-0,576	77,56	0	1007,76	5,6	7,8	7,7	1	1	1	1	1	1	1	1	1	0	1	-65,961945	273,0997	249,442601	0
15.01.2021	00:45:52	0	0	3,050658	3,9285	78,282	-0,572	77,602	0	1007,96	5,6	7,8	7,7	1	1	1	1	1	1	1	1	1	0	1	-67,159972	273,182042	248,625139	0
15.01.2021	00:45:53	0	0	4,519494	4,0515	69,4476	-0,578	77,635	0	1008	5,6	7,8	7,7	1	1	1	1	1	1	1	1	1	0	1	-67,794221	273,267598	248,386669	0
15.01.2021	00:45:54	0	0	3,276653	4,0395	73,4328	-0,577	77,671	0	1007,94	5,6	7,8	7,6	1	1	1	1	1	1	1	1	1	0	1	-72,515856	273,135149	243,052484	0
15.01.2021	00:45:55	0	0	3,276633	3,92625	73,7892	-0,573	77,724	0	1008,12	5,6	7,8	7,7	1	1	1	1	1	1	1	1	1	0	1	-68,569415	273,254741	247,551972	0
15.01.2021	00:45:56	0	0	3,276653	3,783	82,332	-0,576	77,76	0	1007,92	5,6	7,8	7,6	1	1	1	1	1	1	1	1	1	0	1	-69,837914	273,0997	245,566632	0
15.01.2021	00:45:57	0	0	4,745497	3,89925	69,1524	-0,577	77,772	0	1007,96	5,6	7,8	7,6	1	1	1	1	1	1	1	1	1	0	1	-72,938689	273,084123	242,393903	0
15.01.2021	00:45:58	0	0	3,728582	3,915	66,5424	-0,573	77,786	0	1007,96	5,6	7,8	7,7	1	1	1	1	1	1	1	1	1	0	1	-69,626498	273,08837	245,725712	0
15.01.2021	00:45:59	0	0	5,084431	3,909	62,4204	-0,581	77,819	0	1007,88	5,7	7,8	7,7	1	1	1	1	1	1	1	1	1	0	1	-67,0895	273,145086	248,524768	0
15.01.2021	00:46:00	0	0	4,293545	3,606	61,308	-0,571	77,833	0	1007,84	5,6	7,8	7,6	1	1	1	1	1	1	1	1	1	0	1	-72,727273	273,128054	242,808279	0
15.01.2021	00:46:01	0	0	3,841593	3,35475	60,552	-0,568	77,823	0	1007,96	5,6	7,8	7,6	1	1	1	1	1	1	1	1	1	0	1	-72,727273	273,128054	242,808279	0
15.01.2021	00:46:02	0	0	3,841593	3,35475	60,552	-0,568	77,823	0	1007,96	5,6	7,8	7,6	1	1	1	1	1	1	1	1	1	0	1	-72,515856	273,084123	242,816736	0
15.01.2021	00:46:03	0	0	3,841593	3,40125	57,4344	-0,571	77,825	0	1008,12	5,6	7,8	7,6	1	1	1	1	1	1	1	1	1	0	1	-74,066244	273,231904	241,949479	0
15.01.2021	00:46:04	0	0	2,711696	3,31275	60,2496	-0,569	77,836	0	1008,1	5,6	7,8	7,7	1	1	1	1	1	1	1	1	1	0	1	-69,978858	273,247601	246,109492	0
15.01.2021	00:46:05	0	0	4,632509	3,144	54,7884	-0,565	77,815	0	1008,08	5,6	7,8	7,6	1	1	1	1	1	1	1	1	1	0	1	-66,807611	273,092618	248,56422	0
15.01.2021	00:46:06	0	0	4,632509	3,14475	64,638	-0,565	77,813	0	1007,9	5,7	7,8	7,6	1	1	1	1	1	1	1	1	1	0	1	-69,978858	273,216219	245,964308	0
15.01.2021	00:46:07	0	0	2,937671	3,16275	63,8568	-0,568	77,804	0	1008	5,6	7,8	7,7	1	1	1	1	1	1	1	1	1	0	1	-72,515856	273,271886	243,684879	0
15.01.2021	00:46:08	0	0	4,632509	3,23325	66,5424	-0,567	77,806	0	1008,28	5,6	7,8	7,6	1	1	1	1	1	1	1	1	1	0	1	-72,656801	273,243319	243,411735	0
15.01.2021	00:46:09	0	0	4,180532	3,321	77,5836	-0,571	77,8	0	1008,08	5,6	7,8	7,7	1	1	1	1	1	1	1	1	1	0	1	-67,723749	273,13231	247,831474	0
15.01.2021	00:46:10	0	0	3,954581	3,53325	63,4896	-0,567	77,791	0	1007,86	5,6	7,8	7,6	1	1	1	1	1	1	1	1	1	0	1	-69,06272	273,12238	246,446612	0
15.01.2021	00:46:11	0	0	5,310405	3,8355	60,2424	-0,567	77,77	0	1007,84	5,7	7,8	7,7	1	1	1	1	1	1	1	1	1	0	1	-71,529246	273,231904	244,486477	0
15.01.2021	00:46:12	0	0	2,372734	3,93525	62,4492	-0,567	77,765	0	1008,1	5,6	7,8	7,7	1	1	1	1	1	1	1	1	1	0	1	-67,44186	273,115289	248,03471	0
15.01.2021	00:46:13	0	0	2,824701	4,01625	60,9264	-0,572	77,76	0	1008,38	5,6	7,8	7,6	1	1	1	1	1	1	1	1	1	0	1	-73,431994	273,135149	242,136346	0
15.01.2021	00:46:14	0	0	4,971443	3,93375	60,5628	-0,563	77,718	0	1008	5,6	7,8	7,7	1	1	1	1	1	1	1	1	1	0	1	-71,881607	273,116707	243,601514	0
15.01.2021	00:46:15	0	0	4,180532	3,92025	77,5656	-0,569	77,69	0	1007,76	5,6	7,8	7,7	1	1	1	1	1	1	1	1	1	0	1	-67,582805	273,140827	248,011776	0
15.01.2021	00:46:16	0	0	2,711696	3,7455	91,5192	-0,563	77,687	0	1007,96	5,7	7,8	7,7	1	1	1	1	1	1	1	1	1	0	1	-74,207188	273,164977	241,499023	0
15.01.2021	00:46:17	0	0	2,033784	3,4725	88,5744	-0,567	77,673	0	1007,9	5,6	7,8	7,6	1	1	1	1	1	1	1	1	1	0	1	-71,106413	273,0997	244,298133	0
15.01.2021	00:46:18	0	0	5,310437	3,2625	78,6672	-0,561	77,666	0	1008,1	5,7	7,8	7,6	1	1	1	1	1	1	1	1	1	0	1	-69,69697	273,183465	246,09472	0
15.01.2021	00:46:19	0	0	3,841593	3,02325	80,532	-0,561	77,648	0	1008,1	5,7	7,8	7,6	1	1	1	1	1	1	1	1	1	0	1	-71,388302	273,145086	244,225966	0
15.01.2021	00:46:20	0	0	2,598725	2,841	79,0344	-0,56	77,651	0	1007,98	5,7	7,8	7,6	1	1	1	1	1	1	1	1	1	0	1	-72,868217	273,149347	242,765743	0
15.01.2021	00:46:21	0	0	5,084431	2,715	67,302	-0,559	77,636	0	1008,06	5,7	7,8	7,7	1	1	1	1	1	1	1	1	1	0	1	-70,824524	273,155029	244,835701	0
15.01.2021	00:46:22	0	0	3,050677	2,64	62,7876	-0,568	77,627	0	1007,84	5,7	7,8	7,6	1	1	1	1	1	1	1	1	1	0	1	-72,797745	273,277605	243,429459	0
15.01.2021	00:46:23	0	0	4,858456	2,57625	77,2092	-0,561	77,61	0	1008,06	5,7	7,8	7,7	1	1	1	1	1	1	1	1	1	0	1	-76,321353	273,220495	239,641594	0
15.01.2021	00:46:24	0	0	3,84157	2,45925	81,594	-0,561	77,598	0	1007,88	5,6	7,8	7,7	1	1	1	1	1	1	1	1	1	0	1	-75,052854	273,291909	241,240563	0
15.01.2021	00:46:25	0	0	5,084461	2,319	67,6584	-0,559	77,561	0	1007,92	5,6	7,8	7,6	1	1	1	1	1	1	1	1	1	0	1	-67,794221	273,193428	248,043537	0
15.01.2021	00:46:26	0	0	3,841593	2,1555	66,2148	-0,555	77,573	0	1008,06	5,6	7,8	7,6	1	1	1	1	1	1	1	1	1	0	1	-73,431994	273,105367	241,998734	0
15.01.2021	00:46:27	0	0	4,293519	2,02125	84,0528	-0,563	77,535	0	1007,94	5,6	7,8	7,7	1	1	1	1	1	1	1	1	1	0	1	-77,026075	273,13231	238,529148	0
15.01.2021	00:46:28	0	0	3,163646	1,977	70,6068	-0,555	77,538	0	1007,9	5,7	7,8	7,7	1	1	1	1	1	1	1	1	1	0	1	-69,626498	273,229051	246,376028	0
15.01.2021	00:46:29	0	0	3,502608	1,9845	65,8404	-0,559	77,517	0	1008,18	5,7	7,8	7,7	1	1	1	1	1	1	1	1	1	0	1	-71,176885	273,289047	245,103285	0
15.01.2021	00:46:30	0	0	3,615595	2,0145	68,0328	-0,564	77,495	0	1008,1	5,7	7,8	7,7	1	1	1	1	1	1	1	1	1	0	1	-69,274137	273,149347	246,359824	0
15.01.2021	00:46:31	0	0	2,824684	2,0835	70,6248	-0,559	77,486	0	1008,06	5,6	7,8	7,7	1	1	1	1	1	1	1	1	1	0	1	-72,093023	273,253312	244,021755	0
15.01.2021	00:46:32	0	0	4,971443	2,11575	63,6408	-0,553	77,489	0	1008,06	5,7	7,8	7,7	1	1	1	1	1	1	1	1	1	0	1	-66,807611	273,106784	248,629664	0
15.01.2021	00:46:33	0	0	3,615595	2,25225	63,4896	-0,559	77,478	0	1008,18	5,6	7,8	7,7	1	1	1	1	1	1	1	1	1	0	1	-68,710359	273,152188	246,936732	0
15.01.2021	00:46:34	0	0	2,824684	2,32725	58,1364	-0,556	77,48	0	1008,18	5,7	8	7,7	1	1	1	1	1	1	1	1	1	0	1	-71,529246	273,229051	244,473279	0
15.01.2021	00:46:35	0	0	3,728582	2,46825	61,038	-0,556	77,446	0	1007,84	5,7	7,8	7,7	1	1	1	1	1	1	1	1	1	0	1	-71,599718	273,290478	244,687075	0
15.01.2021	00:46:36	0	0	3,84157	2,736	66,2472	-0,556	77,45	0	1008	5,7	7,8	7,7	1	1	1	1	1	1	1	1	1	0	1	-71,317829	273,166398	244,394953	0
15.01.2021	00:46:37	0	0	3,615595	2,9085	65,4804	-0,559	77,434	0	1007,96	5,7	7,8	7,7	1	1	1	1	1	1	1	1	1	0	1	-71,67019	273,098283	243,727811	0
15.01.2021	00:46:38	0	0	3,728605	3,08925	60,2424	-0,555	77,415	0	1007,82	5,6	7,8	7,6	1	1	1	1	1	1	1	1	1	0	1	-67,159972	273,139407	248,428048	0
15.01.2021	00:46:39	0	0	3,38962	3,084	63,5724	-0,557	77,401	0	1008,04	5,6	7,8	7,7	1	1	1	1	1	1	1	1	1	0	1	-68,005638	273,0997	247,398908	0
15.01.2021	00:46:40	0	0	4,067544	3,32625	68,0508	-0,563	77,383	0	1007,88	5,7	7,8	7,7	1	1	1	1	1	1	1	1	1	0	1	-69,837914	273,094034	245,540459	0
15.01.2021	00:46:41	0	0	4,406506	3,62925	65,1024	-0,564	77,377	0	1008,04	5,7	7,8	7,7	1	1	1	1	1	1	1	1	1	0	1	-73,150106	273,155029	242,510119	0
15.01.2021	00:46:42	0	0	3,84157	3,7635	69,8724	-0,55	77,353	0	1007,98	5,6	7,8	7,7	1	1	1	1	1	1	1	1	1	0	1	-73,854827	273,126635	241,674169	0
15.01.2021	00:46:43	0	0	3,163646	3,7905	70,2504	-0,557	77,329	0	1008,04	5,7	7,8	7,7	1	1	1	1	1	1	1	1	1	0	1	-70,824524	273,239037	245,224202	0
15.01.2021	00:46:44	0	0	4,293519	3,7005	73,0656	-0,559	77,318	0	1008,04	5,6	7,8	7,7	1	1	1	1	1	1	1	1	1	0	1	-72,445384	273,116707	243,037737	0
15.01.2021	00:46:45	0	0	2,711713	3,5445	60,2316	-0,557	77,305	0	1007,94	5,6	7,8	7,6	1	1	1	1	1	1	1	1	1	0	1	-68,851304	273,240464	247,204025	0
15.01.2021	00:46:46	0	0	4,067544	3,66675	68,7708	-0,553	77,287	0	1007,9	5,7	7,8	7,7	1	1	1	1	1	1	1	1	1	0	1	-73,220578	273,12238	242,288754	0
15.01.2021	00:46:47	0	0	3,050677	3,9285	78,2784	-0,556	77,259	0	1007,96	5,7	7,8	7,6	1	1	1	1	1	1	1	1	1	0	1	-72,30444	273,10395	243,119742	0
15.01.2021	00:46:48	0	0	4,632481	3,7905	80,1648	-0,56	77,232	0	1007,96	5,7	7,8	7,7	1	1	1	1	1	1	1	1	1	0	1	-67,653277	273,177775	248,112101	0
15.01.2021	00:46:49	0	0	4,067544	3,4605	80,9136	-0,555	77,248	0	1008,1	5,7	7,8	7,7	1	1	1	1	1	1	1	1	1	0	1	-70,472163	273,108201	244,97166	0
15.01.2021	00:46:50	0	0	4,971443	3,081	74,9412	-0,561	77,234	0	1008,14	5,7	7,8	7,7	1	1	1	1	1	1	1	1	1	0	1	-66,807611	273,260454	249,340216	0
15.01.2021	00:46:51	0	0	3,276633	2,99925	46,998	-0,559	77,216	0	1007,98	5,7	7,8	7,7	1	1	1	1	1	1	1	1	1	0	1	-69,767442	273,137988	245,814017	0
15.01.2021	00:46:52	0	0	3,954557	2,94375	95,1408	-0,555	77,216	0	1007,98	5,7	7,8	7,7	1	1	1	1	1	1	1	1	1	0	1	-70,260747	273,280465	245,979695	0
15.01.2021	00:46:53	0	0	4,067544	3,171	64,3464	-0,561	77,212	0	1007,98	5,7	7,8	7,7	1	1	1	1	1	1	1	1	1	0	1	-70,472163	273,172086	245,266912	0
15.01.2021	00:46:54	0	0	4,971443	3,15075	82,9872	-0,561	77,199	0	1008,06	5,7	7,8	7,7	1	1	1	1	1	1	1	1	1	0	1	-70,049331	273,284755	246,210973	0
15.01.2021	00:46:55	0	0	4,632481	2,832	73,44	-0,559	77,197	0	1008,04	5,7	7,8	7,7	1	1	1	1	1	1	1	1	1	0	1	-74,630021	273,240464	241,425308	0
15.01.2021	00:46:56	0	0	5,084431	2,6025	80,9136	-0,56	77,183	0	1008,06	5,7	7,8	7,7	1	1	1	1	1	1	1	1	1	0	1	-69,767442	273,169242	245,958486	0
15.01.2021	00:46:57	0	0	2,711696	2,481	68,0328	-0,557	77,195	0	1008,22	5,7	7,8	7,7	1	1	1	1	1	1	1	1	1	0	1	-73,431994	273,290478	242,854799	0
15.01.2021	00:46:58	0	0	4,632481	2,4045	76,0068	-0,559	77,196	0	1008	5,7	7,8	7,7	1	1	1	1	1	1	1	1	1	0	1	-70,472163	273,149347	245,161797	0
15.01.2021	00:46:59	0	0	3,050658	2,24925	63,5076	-0,562	77,209	0	1007,9	5,7	7,8	7,7	1	1	1	1	1	1	1	1	1	0	1	-70,68358	273,289047	245,59659	0
15.01.2021	00:47:00	0	0	3,954557	1,9935	68,4036	-0,563	77,224	0	1008,12	5,7	7,8	7,7	1	1	1	1	1	1	1	1	1	0	1	-74,982382	273,257597	241,152224	0
15.01.2021	00:47:01	0	0	4,293519	1,9545	63,1476	-0,56	77,27	0	1007,98	5,7	7,8	7,7	1	1	1	1	1	1	1	1	1	0	1	-72,022551	273,280465	244,217891	0
15.01.2021	00:47:02	0	0	4,293519	1,9545	63,1476	-0,56	77,27	0	1007,98	5,7	7,8	7,7	1	1	1	1	1	1	1	1	1	0	1	-72,022551	273,280465	244,217891	0
15.01.2021	00:47:03	0	0	4,971443	2,5635	76,8132	-0,557	77,277	0	1007,9	5,7	7,8	7,7	1	1	1	1	1	1	1	1	1	0	1	-67,794221	273,16782	247,925134	0
15.01.2021	00:47:04	0	0	2,485722	3,07725	69,1452	-0,559	77,271	0	1008,1	5,7	7,8	7,7	1	1	1	1	1	1	1	1	1	0	1	-73,431994	273,147927	242,195401	0
15.01.2021	00:47:05	0	0	4,632481	3,2445	72,7884	-0,558	77,271	0	1007,98	5,7	7,8	7,7	1	1	1	1	1	1	1	1	1	0	1	-71,176885	273,143666	244,43082	0
15.01.2021	00:47:06	0	0	2,824684	3,318	55,944	-0,557	77,278	0	1007,96	5,6	7,8	7,7	1	1	1	1	1	1	1	1	1	0	1	-73,431994	273,118125	242,057679	0
15.01.2021	00:47:07	0	0	2,711696	3,23475	55,9476	-0,559	77,288	0	1008,06	5,6	7,8	7,7	1	1	1	1	1	1	1	1	1	0	1	-67,230444	273,116707	248,252677	0
15.01.2021	00:47:08	0	0	3,163646	3,09675	44,748	-0,559	77,281	0	1007,88	5,7	7,8	7,7	1	1	1	1	1	1	1	1	1	0	1	-69,978858	273,13231	245,576365	0
15.01.2021	00:47:09	0	0	3,050677	3,00375	49,9536	-0,558	77,284	0	1008,02	5,7	7,8	7,6	1	1	1	1	1	1	1	1	1	0	1	-69,415081	273,13373	246,1467	0
15.01.2021	00:47:10	0	0	2,711696	2,9535	45,162	-0,562	77,273	0	1008,04	5,7	7,8	7,7	1	1	1	1	1	1	1	1	1	0	1	-68,780832	273,200547	247,08985	0
15.01.2021	00:47:11	0	0	4,745468	2,91225	33,6312	-0,558	77,257	0	1007,8	5,7	7,8	7,7	1	1	1	1	1	1	1	1	1	0	1	-77,801268	273,289047	238,478901	0
15.01.2021	00:47:12	0	0	3,38962	2,70525	52,1208	-0,564	77,253	0	1007,94	5,7	7,8	7,7	1	1	1	1	1	1	1	1	1	0	1	-73,643411	273,244746	242,431729	0
15.01.2021	00:47:13	0	0	4,745468	2,4915	46,9872	-0,556	77,247	0	1007,92	5,6	8	7,7	1	1	1	1	1	1	1	1	1	0	1	-70,049331	273,291909	246,244087	0
15.01.2021	00:47:14	0	0	4,067544	2,42025	58,1328	-0,564	77,241	0	1008,02	5,7	7,8	7,7	1	1	1	1	1	1	1	1	1	0	1	-73,643411	273,223347	242,332727	0
15.01.2021	00:47:15	0	0	2,598709	2,67225	88,9704	-0,562	77,232	0	1007,84	5,7	7,8	7,7	1	1	1	1	1	1	1	1	1	0	1	-72,797745	273,146506	242,823087	0
15.01.2021	00:47:16	0	0	3,38962	3,00075	80,9064	-0,556	77,227	0	1008,08	5,7	8	7,7	1	1	1	1	1	1	1	1	1	0	1	-74,207188	273,149347	241,426772	0
15.01.2021	00:47:17	0	0	2,485722	3,1215	67,6584	-0,557	77,228	0	1008,08	5,7	7,8	7,7	1	1	1	1	1	1	1	1	1	0	1	-69,69697	273,281895	246,550092	0
15.01.2021	00:47:18	0	0	2,824684	3,1245	60,9264	-0,541	77,203	0	1007,96	5,6	7,8	7,7	1	1	1	1	1	1	1	1	1	0	1	-73,431994	273,109619	242,018377	0
15.01.2021	00:47:19	0	0	3,728582	3,1905	55,2852	-0,561	77,202	0	1008,06	5,6	7,8	7,7	1	1	1	1	1	1	1	1	1	0	1	-68,780832	273,172086	246,958244	0
15.01.2021	00:47:20	0	0	3,615617	3,11775	64,6416	-0,563	77,189	0	1007,86	5,6	7,8	7,6	1	1	1	1	1	1	1	1	1	0	1	-77,660324	273,283325	238,593358	0
15.01.2021	00:47:21	0	0	2,711696	3,29475	66,9348	-0,555	77,203	0	1008,14	5,7	7,8	7,7	1	1	1	1	1	1	1	1	1	0	1	-75,193798	273,261883	240,96064	0
15.01.2021	00:47:22	0	0	3,84157	3,38475	62,7948	-0,561	77,192	0	1008,1	5,7	7,8	7,7	1	1	1	1	1	1	1	1	1	0	1	-71,881607	273,102533	243,536029	0
15.01.2021	00:47:23	0	0	5,310405	3,35025	69,5484	-0,566	77,187	0	1007,9	5,7	7,8	7,7	1	1	1	1	1	1	1	1	1	0	1	-74,207188	273,163555	241,492451	0
15.01.2021	00:47:24	0	0	2,824684	3,1335	46,9764	-0,556	77,196	0	1008,1	5,6	7,8	7,7	1	1	1	1	1	1	1	1	1	0	1	-72,233968	273,128054	243,301584	0
15.01.2021	00:47:25	0	0	4,745468	2,979	51,0588	-0,562	77,2	0	1008	5,7	7,8	7,7	1	1	1	1	1	1	1	1	1	0	1	-72,30444	273,203396	243,579416	0
15.01.2021	00:47:26	0	0	4,519494	2,76975	42,9264	-0,561	77,201	0	1008	5,7	7,8	7,7	1	1	1	1	1	1	1	1	1	0	1	-71,247357	273,280465	244,993085	0
15.01.2021	00:47:27	0	0	4,519494	2,67975	69,156	-0,558	77,185	0	1008,06	5,7	7,8	7,7	1	1	1	1	1	1	1	1	1	0	1	-68,146582	273,169242	247,579346	0
15.01.2021	00:47:28	0	0	3,84157	2,61525	44,7768	-0,556	77,185	0	1008,04	5,7	7,8	7,7	1	1	1	1	1	1	1	1	1	0	1	-74,348132	273,280465	241,89231	0
15.01.2021	00:47:29	0	0	4,971443	2,58	48,8232	-0,563	77,186	0	1008,1	5,7	7,8	7,7	1	1	1	1	1	1	1	1	1	0	1	-66,878083	273,140827	248,716498	0
15.01.2021	00:47:30	0	0	3,841593	2,646	63,8712	-0,557	77,177	0	1008,06	5,6	7,8	7,6	1	1	1	1	1	1	1	1	1	0	1	-69,837914	273,26474	246,329749	0
15.01.2021	00:47:31	0	0	4,971473	2,598	59,4864	-0,563	77,173	0	1008,04	5,7	7,8	7,6	1	1	1	1	1	1	1	1	1	0	1	-69,344609	273,111036	246,112311	0
15.01.2021	00:47:32	0	0	2,824684	2,4615	59,0832	-0,563	77,162	0	1008	5,7	7,8	7,7	1	1	1	1	1	1	1	1	1	0	1	-67,935166	273,236183	248,100357	0
15.01.2021	00:47:33	0	0	4,519494	2,3565	52,1172	-0,563	77,147	0	1008,06	5,7	7,8	7,7	1	1	1	1	1	1	1	1	1	0	1	-73,572939	273,251884	242,535232	0
15.01.2021	00:47:34	0	0	4,180532	2,262	50,3064	-0,561	77,162	0	1007,94	5,6	7,8	7,7	1	1	1	1	1	1	1	1	1	0	1	-68,710359	273,213369	247,219623	0
15.01.2021	00:47:35	0	0	3,502608	2,24325	46,6092	-0,557	77,154	0	1007,98	5,7	7,8	7,7	1	1	1	1	1	1	1	1	1	0	1	-69,978858	273,098283	245,419143	0
15.01.2021	00:47:36	0	0	4,858456	2,34525	45,1476	-0,564	77,16	0	1008,04	5,6	7,8	7,7	1	1	1	1	1	1	1	1	1	0	1	-71,247357	273,230477	244,761766	0
15.01.2021	00:47:37	0	0	3,050658	2,4195	50,292	-0,559	77,158	0	1007,88	5,7	7,8	7,7	1	1	1	1	1	1	1	1	1	0	1	-73,220578	273,294771	243,086089	0
15.01.2021	00:47:38	0	0	3,502608	2,29875	82,584	-0,567	77,156	0	1008,02	5,7	7,8	7,7	1	1	1	1	1	1	1	1	1	0	1	-70,260747	273,234757	245,768175	0
15.01.2021	00:47:39	0	0	3,276633	1,9755	69,1452	-0,568	77,152	0	1007,86	5,7	7,8	7,7	1	1	1	1	1	1	1	1	1	0	1	-70,119803	273,244746	245,955337	0
15.01.2021	00:47:40	0	0	2,711696	1,89525	70,8516	-0,56	77,162	0	1008,18	5,7	7,8	7,7	1	1	1	1	1	1	1	1	1	0	1	-72,163495	273,216219	243,779671	0
15.01.2021	00:47:41	0	0	4,858456	1,9725	74,1744	-0,566	77,169	0	1008,06	5,7	7,8	7,7	1	1	1	1	1	1	1	1	1	0	1	-73,854827	273,274745	242,359141	0
15.01.2021	00:47:42	0	0	4,180532	1,9965	69,1668	-0,567	77,166	0	1007,98	5,7	7,8	7,7	1	1	1	1	1	1	1	1	1	0	1	-70,754052	273,199123	245,110044	0
15.01.2021	00:47:43	0	0	4,632481	2,1225	85,194	-0,566	77,173	0	1008,08	5,6	7,8	7,7	1	1	1	1	1	1	1	1	1	0	1	-70,965469	273,096866	244,42599	0
15.01.2021	00:47:44	0	0	3,502608	2,133	81,5796	-0,566	77,159	0	1007,9	5,7	7,8	7,7	1	1	1	1	1	1	1	1	1	0	1	-72,30444	273,203396	243,579416	0
15.01.2021	00:47:45	0	0	3,502608	2,14725	61,3152	-0,564	77,163	0	1008,06	5,7	7,8	7,7	1	1	1	1	1	1	1	1	1	0	1	-74,841438	273,10395	240,582744	0
15.01.2021	00:47:46	0	0	4,406506	2,313	70,6248	-0,563	77,156	0	1008,12	5,7	7,8	7,7	1	1	1	1	1	1	1	1	1	0	1	-69,133192	273,250457	246,968371	0
15.01.2021	00:47:47	0	0	4,180532	2,41275	63,4788	-0,568	77,122	0	1007,9	5,7	7,8	7,7	1	1	1	1	1	1	1	1	1	0	1	-73,995772	273,193428	241,841986	0
15.01.2021	00:47:48	0	0	5,084431	2,463	49,5756	-0,572	77,119	0	1008,06	5,7	7,8	7,7	1	1	1	1	1	1	1	1	1	0	1	-71,388302	273,096866	244,003157	0
15.01.2021	00:47:49	0	0	3,728605	2,547	42,3036	-0,571	77,092	0	1007,94	5,7	7,8	7,6	1	1	1	1	1	1	1	1	1	0	1	-71,529246	273,206245	244,367786	0
15.01.2021	00:47:50	0	0	5,197418	2,70525	39,1896	-0,565	77,091	0	1008,14	5,6	7,8	7,7	1	1	1	1	1	1	1	1	1	0	1	-71,035941	273,08837	244,316268	0
15.01.2021	00:47:51	0	0	3,728582	2,86875	73,4436	-0,561	77,061	0	1007,88	5,7	7,8	7,7	1	1	1	1	1	1	1	1	1	0	1	-66,737139	273,176352	249,021663	0
15.01.2021	00:47:52	0	0	4,745468	3,384	74,52	-0,561	77,053	0	1008,06	5,7	7,8	7,7	1	1	1	1	1	1	1	1	1	0	1	-73,150106	273,263311	243,010945	0
15.01.2021	00:47:53	0	0	3,163646	3,73425	58,9212	-0,572	77,028	0	1008,08	5,7	7,8	7,7	1	1	1	1	1	1	1	1	1	0	1	-74,27766	273,140827	241,316921	0
15.01.2021	00:47:54	0	0	4,067544	3,54975	58,1544	-0,564	77,011	0	1007,86	5,6	7,8	7,7	1	1	1	1	1	1	1	1	1	0	1	-73,784355	273,09545	241,60056	0
15.01.2021	00:47:55	0	0	4,745468	3,5835	67,6548	-0,57	77,004	0	1007,82	5,6	7,8	7,7	1	1	1	1	1	1	1	1	1	0	1	-68,992248	273,269027	247,195257	0
15.01.2021	00:47:56	0	0	2,711696	3,86925	57,726	-0,57	77	0	1008,04	5,7	7,8	7,7	1	1	1	1	1	1	1	1	1	0	1	-70,190275	273,217644	245,759485	0
15.01.2021	00:47:57	0	0	2,711696	4,0335	68,418	-0,567	76,98	0	1007,88	5,7	7,8	7,7	1	1	1	1	1	1	1	1	1	0	1	-72,163495	273,246173	243,91825	0
15.01.2021	00:47:58	0	0	4,745468	3,65775	51,7536	-0,575	76,968	0	1007,9	5,7	7,8	7,7	1	1	1	1	1	1	1	1	1	0	1	-71,881607	273,207669	244,022014	0
15.01.2021	00:47:59	0	0	5,084431	3,264	63,8532	-0,57	76,975	0	1008,22	5,6	7,8	7,7	1	1	1	1	1	1	1	1	1	0	1	-69,344609	273,250457	246,756955	0
15.01.2021	00:48:00	0	0	4,180532	3,39825	53,3664	-0,579	76,987	0	1007,86	5,6	7,8	7,7	1	1	1	1	1	1	1	1	1	0	1	-66,525722	273,078461	248,780723	0
15.01.2021	00:48:01	0	0	3,163646	3,39675	50,3316	-0,568	76,973	0	1007,82	5,7	7,8	7,7	1	1	1	1	1	1	1	1	1	0	1	-69,344609	273,211944	246,578782	0
15.01.2021	00:48:02	0	0	3,163646	3,39675	50,3316	-0,568	76,973	0	1007,82	5,7	7,8	7,7	1	1	1	1	1	1	1	1	1	0	1	-69,344609	273,211944	246,578782	0
15.01.2021	00:48:03	0	0	3,163646	3,3165	51,0444	-0,573	76,972	0	1008,08	5,6	7,8	7,7	1	1	1	1	1	1	1	1	1	0	1	-69,837914	273,084123	245,494678	0
15.01.2021	00:48:04	0	0	4,858456	3,141	63,576	-0,573	76,952	0	1007,98	5,6	7,8	7,7	1	1	1	1	1	1	1	1	1	0	1	-66,314306	273,136568	249,260593	0
15.01.2021	00:48:05	0	0	4,632481	3,057	70,6212	-0,569	76,949	0	1008,08	5,6	7,8	7,7	1	1	1	1	1	1	1	1	1	0	1	-70,542636	273,257597	245,59197	0
15.01.2021	00:48:06	0	0	3,163646	2,91675	59,49	-0,574	76,935	0	1008,12	5,6	7,8	7,7	1	1	1	1	1	1	1	1	1	0	1	-66,102889	273,142247	249,498253	0
15.01.2021	00:48:07	0	0	2,824701	2,80425	63,468	-0,571	76,946	0	1008,12	5,6	7,8	7,6	1	1	1	1	1	1	1	1	1	0	1	-71,529246	273,251884	244,578925	0
15.01.2021	00:48:08	0	0	4,293519	2,646	65,4732	-0,578	76,952	0	1008,12	5,6	7,8	7,7	1	1	1	1	1	1	1	1	1	0	1	-74,207188	273,194851	241,637154	0
15.01.2021	00:48:09	0	0	3,502608	2,439	58,8564	-0,578	76,961	0	1008,08	5,6	7,8	7,7	1	1	1	1	1	1	1	1	1	0	1	-69,69697	273,240464	246,358359	0
15.01.2021	00:48:10	0	0	3,954557	2,256	67,2804	-0,581	76,94	0	1007,9	5,7	7,8	7,7	1	1	1	1	1	1	1	1	1	0	1	-68,780832	273,13373	246,78095	0
15.01.2021	00:48:11	0	0	3,728582	2,04	59,4828	-0,579	76,976	0	1008,3	5,7	7,8	7,7	1	1	1	1	1	1	1	1	1	0	1	-72,163495	273,231904	243,852227	0
15.01.2021	00:48:12	0	0	3,728582	2,0565	79,0128	-0,583	76,965	0	1007,88	5,6	7,8	7,7	1	1	1	1	1	1	1	1	1	0	1	-67,864693	273,220495	248,098254	0
15.01.2021	00:48:13	0	0	2,598709	2,208	69,8652	-0,579	76,981	0	1008,1	5,6	7,8	7,7	1	1	1	1	1	1	1	1	1	0	1	-76,109937	273,192004	239,721239	0
15.01.2021	00:48:14	0	0	2,259747	2,31	65,1204	-0,581	76,984	0	1008,1	5,6	7,8	7,7	1	1	1	1	1	1	1	1	1	0	1	-67,159972	273,062902	248,074616	0
15.01.2021	00:48:15	0	0	3,38962	2,418	73,4364	-0,582	76,981	0	1007,96	5,6	7,8	7,7	1	1	1	1	1	1	1	1	1	0	1	-71,035941	273,108201	244,407882	0
15.01.2021	00:48:16	0	0	3,615595	3,00975	66,5172	-0,587	76,971	0	1007,98	5,6	7,8	7,7	1	1	1	1	1	1	1	1	1	0	1	-72,727273	273,231904	243,28845	0
15.01.2021	00:48:17	0	0	3,728582	3,525	60,2604	-0,579	76,969	0	1008,38	5,6	7,8	7,7	1	1	1	1	1	1	1	1	1	0	1	-75,616631	273,216219	240,326535	0
15.01.2021	00:48:18	0	0	2,485722	3,45525	73,0728	-0,582	76,94	0	1008,1	5,6	7,8	7,7	1	1	1	1	1	1	1	1	1	0	1	-68,217054	273,251884	247,891116	0
15.01.2021	00:48:19	0	0	5,084431	3,68475	68,3964	-0,59	76,949	0	1007,82	5,7	7,8	7,7	1	1	1	1	1	1	1	1	1	0	1	-75,193798	273,194851	240,650543	0
15.01.2021	00:48:20	0	0	3,163646	3,6375	60,9372	-0,583	76,941	0	1008,14	5,6	7,8	7,7	1	1	1	1	1	1	1	1	1	0	1	-72,445384	273,226199	243,543946	0
15.01.2021	00:48:21	0	0	4,632481	3,5805	53,3736	-0,583	76,924	0	1008,18	5,6	7,8	7,7	1	1	1	1	1	1	1	1	1	0	1	-73,643411	273,213369	242,286571	0
15.01.2021	00:48:22	0	0	4,293519	3,51375	63,198	-0,583	76,913	0	1008,16	5,6	7,8	7,7	1	1	1	1	1	1	1	1	1	0	1	-69,06272	273,190581	246,761873	0
15.01.2021	00:48:23	0	0	3,050658	3,2235	62,0316	-0,587	76,904	0	1008,14	5,6	7,8	7,7	1	1	1	1	1	1	1	1	1	0	1	-73,784355	273,079877	241,528626	0
15.01.2021	00:48:24	0	0	3,728582	2,988	58,8744	-0,591	76,891	0	1008,1	5,6	7,8	7,7	1	1	1	1	1	1	1	1	1	0	1	-68,780832	273,068558	246,479878	0
15.01.2021	00:48:25	0	0	3,728582	2,6925	68,0256	-0,588	76,894	0	1008,1	5,6	7,8	7,7	1	1	1	1	1	1	1	1	1	0	1	-72,586328	273,08837	242,765881	0
15.01.2021	00:48:26	0	0	2,711696	2,739	60,5628	-0,594	76,88	0	1008,04	5,6	7,8	7,7	1	1	1	1	1	1	1	1	1	0	1	-72,30444	273,173508	243,44121	0
15.01.2021	00:48:27	0	0	2,372748	2,71425	74,9232	-0,593	76,87	0	1008,1	5,6	7,8	7,6	1	1	1	1	1	1	1	1	1	0	1	-67,582805	273,23333	248,439517	0
15.01.2021	00:48:28	0	0	4,632509	2,733	60,5628	-0,589	76,856	0	1008,18	5,6	7,8	7,6	1	1	1	1	1	1	1	1	1	0	1	-73,150106	273,098283	242,247896	0
15.01.2021	00:48:29	0	0	3,050658	2,74725	71,7012	-0,596	76,853	0	1008,14	5,6	7,8	7,7	1	1	1	1	1	1	1	1	1	0	1	-72,30444	273,23333	243,717882	0
15.01.2021	00:48:30	0	0	3,276633	2,898	71,5896	-0,595	76,817	0	1007,94	5,6	7,8	7,7	1	1	1	1	1	1	1	1	1	0	1	-73,361522	273,206245	242,535509	0
15.01.2021	00:48:31	0	0	3,954557	2,92575	64,242	-0,602	76,803	0	1007,94	5,6	7,8	7,7	1	1	1	1	1	1	1	1	1	0	1	-71,881607	273,223347	244,094531	0
15.01.2021	00:48:32	0	0	4,406533	2,997	73,0656	-0,594	76,817	0	1008,06	5,6	7,8	7,6	1	1	1	1	1	1	1	1	1	0	1	-66,314306	273,108201	249,129517	0
15.01.2021	00:48:33	0	0	4,745468	3,0585	73,4508	-0,596	76,806	0	1008,1	5,6	7,8	7,7	1	1	1	1	1	1	1	1	1	0	1	-72,727273	273,045942	242,429006	0
15.01.2021	00:48:34	0	0	3,615617	3,44925	68,0112	-0,597	76,789	0	1008,12	5,6	7,8	7,6	1	1	1	1	1	1	1	1	1	0	1	-72,30444	273,116707	243,178682	0
15.01.2021	00:48:35	0	0	3,050658	3,67125	59,4972	-0,599	76,772	0	1008	5,6	7,8	7,7	1	1	1	1	1	1	1	1	1	0	1	-69,767442	273,041704	245,369273	0
15.01.2021	00:48:36	0	0	3,954581	3,549	63,8676	-0,599	76,786	0	1008,06	5,6	7,8	7,6	1	1	1	1	1	1	1	1	1	0	1	-73,995772	273,08837	241,356437	0
15.01.2021	00:48:37	0	0	3,502608	3,58875	75,9888	-0,604	76,775	0	1008,04	5,6	7,8	7,7	1	1	1	1	1	1	1	1	1	0	1	-66,948555	273,189157	248,869456	0
15.01.2021	00:48:38	0	0	3,050658	3,636	57,0276	-0,595	76,767	0	1007,98	5,6	7,8	7,7	1	1	1	1	1	1	1	1	1	0	1	-69,415081	273,033232	245,682521	0
15.01.2021	00:48:39	0	0	3,050658	3,87	54,4788	-0,604	76,74	0	1007,94	5,6	7,8	7,7	1	1	1	1	1	1	1	1	1	0	1	-73,431994	273,130891	242,116671	0
15.01.2021	00:48:40	0	0	4,632509	3,95775	73,062	-0,602	76,746	0	1008,06	5,6	7,8	7,6	1	1	1	1	1	1	1	1	1	0	1	-69,06272	273,055833	246,139229	0
15.01.2021	00:48:41	0	0	4,745497	3,62325	85,1616	-0,601	76,736	0	1008,1	5,6	7,8	7,6	1	1	1	1	1	1	1	1	1	0	1	-67,300916	273,069973	247,966326	0
15.01.2021	00:48:42	0	0	3,728582	3,336	59,4936	-0,611	76,732	0	1007,92	5,6	7,8	7,7	1	1	1	1	1	1	1	1	1	0	1	-71,740662	273,078461	243,565783	0
15.01.2021	00:48:43	0	0	4,519521	2,9925	45,1512	-0,603	76,738	0	1007,98	5,6	7,8	7,6	1	1	1	1	1	1	1	1	1	0	1	-69,837914	273,037468	245,279242	0
15.01.2021	00:48:44	0	0	2,598725	3,0255	77,6052	-0,606	76,77	0	1008,02	5,6	7,8	7,6	1	1	1	1	1	1	1	1	1	0	1	-72,374912	273,145086	243,239356	0
15.01.2021	00:48:45	0	0	4,745468	2,80275	38,43	-0,614	76,81	0	1008,04	5,6	7,8	7,7	1	1	1	1	1	1	1	1	1	0	1	-69,415081	273,034644	245,689039	0
15.01.2021	00:48:46	0	0	4,406506	2,63175	46,5876	-0,607	76,845	0	1008,08	5,6	7,8	7,7	1	1	1	1	1	1	1	1	1	0	1	-71,881607	273,081292	243,437911	0
15.01.2021	00:48:47	0	0	4,632481	2,5425	69,8508	-0,611	76,877	0	1008,02	5,6	7,8	7,7	1	1	1	1	1	1	1	1	1	0	1	-70,472163	273,044529	244,677594	0
15.01.2021	00:48:48	0	0	3,276653	2,4795	57,0384	-0,611	76,889	0	1008,02	5,6	7,8	7,6	1	1	1	1	1	1	1	1	1	0	1	-68,428471	273,177775	247,336907	0
15.01.2021	00:48:49	0	0	5,084461	2,406	44,7768	-0,609	76,928	0	1008,2	5,6	7,8	7,6	1	1	1	1	1	1	1	1	1	0	1	-65,680056	273,043117	249,463179	0
15.01.2021	00:48:50	0	0	4,293545	2,23125	53,7408	-0,616	76,958	0	1008,06	5,6	7,8	7,6	1	1	1	1	1	1	1	1	1	0	1	-65,891473	273,201971	249,985796	0
15.01.2021	00:48:51	0	0	4,519494	2,19975	49,9536	-0,615	76,974	0	1008,04	5,6	7,8	7,7	1	1	1	1	1	1	1	1	1	0	1	-73,361522	273,101116	242,049568	0
15.01.2021	00:48:52	0	0	4,745497	2,2455	51,0624	-0,621	76,967	0	1008,06	5,6	7,8	7,6	1	1	1	1	1	1	1	1	1	0	1	-72,30444	273,210519	243,61236	0
15.01.2021	00:48:53	0	0	4,971443	2,25	60,9264	-0,619	76,979	0	1007,92	5,6	7,8	7,7	1	1	1	1	1	1	1	1	1	0	1	-70,190275	273,140827	245,404306	0
15.01.2021	00:48:54	0	0	4,632481	2,24775	56,6676	-0,615	76,984	0	1007,96	5,6	7,8	7,7	1	1	1	1	1	1	1	1	1	0	1	-69,69697	273,05018	245,478879	0
15.01.2021	00:48:55	0	0	5,084461	2,20575	55,296	-0,619	76,99	0	1008,02	5,6	7,8	7,6	1	1	1	1	1	1	1	1	1	0	1	-69,133192	273,196275	246,717733	0
15.01.2021	00:48:56	0	0	4,858485	2,14875	46,5984	-0,621	76,992	0	1008,06	5,6	7,8	7,6	1	1	1	1	1	1	1	1	1	0	1	-75,193798	273,142247	240,407344	0
15.01.2021	00:48:57	0	0	2,937671	2,094	44,0424	-0,616	77,006	0	1008,28	5,6	7,8	7,7	1	1	1	1	1	1	1	1	1	0	1	-66,032417	273,21907	249,923936	0
15.01.2021	00:48:58	0	0	2,711696	2,20875	46,5948	-0,622	77,006	0	1007,98	5,6	7,8	7,7	1	1	1	1	1	1	1	1	1	0	1	-68,287526	273,067144	246,966652	0
15.01.2021	00:48:59	0	0	5,084461	2,3145	49,6476	-0,63	77,016	0	1007,94	5,6	7,8	7,6	1	1	1	1	1	1	1	1	1	0	1	-71,176885	273,096866	244,214573	0
15.01.2021	00:49:00	0	0	2,25976	2,39625	52,884	-0,621	77,015	0	1008,2	5,6	7,8	7,6	1	1	1	1	1	1	1	1	1	0	1	-65,750529	273,106784	249,686747	0
15.01.2021	00:49:01	0	0	4,632509	2,424	58,4784	-0,629	77,017	0	1008,14	5,6	7,8	7,6	1	1	1	1	1	1	1	1	1	0	1	-65,750529	273,106784	249,686747	0
15.01.2021	00:49:02	0	0	4,632509	2,424	58,4784	-0,629	77,017	0	1008,14	5,6	7,8	7,6	1	1	1	1	1	1	1	1	1	0	1	-75,334743	273,214794	240,601831	0
15.01.2021	00:49:03	0	0	3,050658	2,42325	59,472	-0,627	77,026	0	1008,1	5,6	7,8	7,7	1	1	1	1	1	1	1	1	1	0	1	-67,582805	273,069973	247,684437	0
15.01.2021	00:49:04	0	0	4,180557	2,37975	58,4856	-0,622	77,027	0	1008	5,6	7,8	7,6	1	1	1	1	1	1	1	1	1	0	1	-67,159972	273,190581	248,664621	0
15.01.2021	00:49:05	0	0	2,485736	2,3025	45,1296	-0,628	77,046	0	1008,08	5,6	7,8	7,6	1	1	1	1	1	1	1	1	1	0	1	-70,049331	273,214794	245,887243	0
15.01.2021	00:49:06	0	0	4,067569	2,33775	55,5624	-0,63	77,029	0	1008,02	5,6	7,8	7,6	1	1	1	1	1	1	1	1	1	0	1	-71,881607	273,164977	243,824604	0
15.01.2021	00:49:07	0	0	2,711713	2,355	39,204	-0,608	77,057	0	1008,18	5,6	7,8	7,6	1	1	1	1	1	1	1	1	1	0	1	-64,693446	273,192004	251,137729	0
15.01.2021	00:49:08	0	0	2,485722	2,4675	51,4404	-0,632	77,05	0	1008,02	5,6	7,8	7,7	1	1	1	1	1	1	1	1	1	0	1	-73,995772	273,214794	241,940802	0
15.01.2021	00:49:09	0	0	3,276653	2,7375	57,0564	-0,628	77,056	0	1008	5,6	7,8	7,6	1	1	1	1	1	1	1	1	1	0	1	-65,186751	273,098283	250,21125	0
15.01.2021	00:49:10	0	0	4,858485	3,04425	69,2604	-0,639	77,054	0	1008	5,6	7,8	7,6	1	1	1	1	1	1	1	1	1	0	1	-69,06272	273,201971	246,814548	0
15.01.2021	00:49:11	0	0	5,084461	2,925	62,0352	-0,635	77,054	0	1008,04	5,6	7,9	7,6	1	1	1	1	1	1	1	1	1	0	1	-70,965469	273,126635	244,563527	0
15.01.2021	00:49:12	0	0	4,519521	2,814	48,51	-0,612	77,081	0	1008,08	5,6	7,9	7,6	1	1	1	1	1	1	1	1	1	0	1	-75,616631	273,03182	239,474454	0
15.01.2021	00:49:13	0	0	3,954533	2,634	46,9692	-0,634	77,075	0	1007,88	5,6	7,8	7,8	1	1	1	1	1	1	1	1	1	0	1	-64,270613	273,060074	250,950918	0
15.01.2021	00:49:14	0	0	4,632481	2,41275	56,6784	-0,633	77,103	0	1008,04	5,6	7,8	7,7	1	1	1	1	1	1	1	1	1	0	1	-70,472163	273,047355	244,690638	0
15.01.2021	00:49:15	0	0	2,824701	2,33475	52,5132	-0,637	77,113	0	1008,04	5,6	7,9	7,6	1	1	1	1	1	1	1	1	1	0	1	-72,445384	273,026174	242,61964	0
15.01.2021	00:49:16	0	0	4,293519	2,34225	62,7948	-0,634	77,137	0	1008,22	5,6	7,8	7,7	1	1	1	1	1	1	1	1	1	0	1	-71,106413	273,140827	244,488168	0
15.01.2021	00:49:17	0	0	3,841593	2,41425	58,1868	-0,638	77,124	0	1007,86	5,6	7,9	7,6	1	1	1	1	1	1	1	1	1	0	1	-68,710359	273,01912	246,322102	0
15.01.2021	00:49:18	0	0	2,824701	2,48175	57,0348	-0,646	77,142	0	1008,04	5,7	7,8	7,6	1	1	1	1	1	1	1	1	1	0	1	-65,609584	273,106784	249,827691	0
15.01.2021	00:49:19	0	0	2,711696	2,60025	50,6916	-0,641	77,157	0	1008,04	5,6	7,8	7,7	1	1	1	1	1	1	1	1	1	0	1	-67,44186	273,060074	247,77967	0
15.01.2021	00:49:20	0	0	3,38962	2,78775	49,302	-0,637	77,161	0	1008,06	5,7	7,8	7,7	1	1	1	1	1	1	1	1	1	0	1	-68,851304	273,199123	247,012792	0
15.01.2021	00:49:21	0	0	4,632509	2,73525	45,5436	-0,64	77,142	0	1008,14	5,6	7,8	7,6	1	1	1	1	1	1	1	1	1	0	1	-72,093023	273,150767	243,547502	0
15.01.2021	00:49:22	0	0	4,745468	2,6505	50,2884	-0,639	77,16	0	1008,02	5,6	7,9	7,7	1	1	1	1	1	1	1	1	1	0	1	-74,770965	273,017709	240,254985	0
15.01.2021	00:49:23	0	0	5,084431	2,598	43,65	-0,636	77,156	0	1008,06	5,6	7,8	7,7	1	1	1	1	1	1	1	1	1	0	1	-70,68358	273,082707	244,642475	0
15.01.2021	00:49:24	0	0	2,711713	2,52675	45,2916	-0,635	77,17	0	1008,18	5,6	7,9	7,6	1	1	1	1	1	1	1	1	1	0	1	-70,472163	273,02053	244,566809	0
15.01.2021	00:49:25	0	0	4,067569	2,484	43,668	-0,644	77,166	0	1007,96	5,7	7,8	7,6	1	1	1	1	1	1	1	1	1	0	1	-71,388302	273,179197	244,383653	0
15.01.2021	00:49:26	0	0	3,615617	2,52675	33,6348	-0,648	77,169	0	1008,08	5,7	7,8	7,6	1	1	1	1	1	1	1	1	1	0	1	-66,878083	273,108201	248,56574	0
15.01.2021	00:49:27	0	0	4,406506	2,709	37,3068	-0,648	77,182	0	1007,92	5,6	7,8	7,7	1	1	1	1	1	1	1	1	1	0	1	-72,022551	273,182042	243,76256	0
15.01.2021	00:49:28	0	0	2,598725	3,08475	47,3688	-0,644	77,191	0	1008,08	5,7	7,7	7,6	1	1	1	1	1	1	1	1	1	0	1	-71,529246	273,112454	243,934224	0
15.01.2021	00:49:29	0	0	4,858485	3,44475	58,8852	-0,648	77,193	0	1007,94	5,7	7,8	7,6	1	1	1	1	1	1	1	1	1	0	1	-71,388302	273,183465	244,403388	0
15.01.2021	00:49:30	0	0	4,971473	3,5235	51,444	-0,646	77,196	0	1008,08	5,6	7,9	7,6	1	1	1	1	1	1	1	1	1	0	1	-68,357999	273,169242	247,367929	0
15.01.2021	00:49:31	0	0	2,824701	3,55425	53,7516	-0,652	77,193	0	1007,8	5,6	7,9	7,6	1	1	1	1	1	1	1	1	1	0	1	-69,274137	273,13231	246,281086	0
15.01.2021	00:49:32	0	0	2,711713	3,4155	54,81	-0,646	77,22	0	1007,76	5,6	7,8	7,6	1	1	1	1	1	1	1	1	1	0	1	-73,079634	273,192004	242,751542	0
15.01.2021	00:49:33	0	0	3,84157	3,47325	46,9872	-0,65	77,219	0	1008,04	5,6	7,8	7,7	1	1	1	1	1	1	1	1	1	0	1	-69,908386	273,012067	245,091526	0
15.01.2021	00:49:34	0	0	3,389641	3,816	34,3584	-0,648	77,227	0	1008,04	5,7	7,9	7,6	1	1	1	1	1	1	1	1	1	0	1	-73,9253	273,149347	241,708661	0
15.01.2021	00:49:35	0	0	3,276653	4,08825	36,9324	-0,648	77,235	0	1008,04	5,7	7,9	7,6	1	1	1	1	1	1	1	1	1	0	1	-75,89852	273,023352	239,153477	0
15.01.2021	00:49:36	0	0	2,598709	3,885	44,7732	-0,648	77,237	0	1007,82	5,6	7,8	7,7	1	1	1	1	1	1	1	1	1	0	1	-70,401691	273,026174	244,663333	0
15.01.2021	00:49:37	0	0	2,711696	3,486	45,8568	-0,655	77,236	0	1008,18	5,6	7,7	7,7	1	1	1	1	1	1	1	1	1	0	1	-68,992248	273,086954	246,353422	0
15.01.2021	00:49:38	0	0	4,745497	3,05625	57,0384	-0,658	77,25	0	1008,08	5,6	7,8	7,6	1	1	1	1	1	1	1	1	1	0	1	-72,727273	273,170664	243,005229	0
15.01.2021	00:49:39	0	0	2,711713	2,751	59,9436	-0,654	77,247	0	1008,18	5,6	7,9	7,6	1	1	1	1	1	1	1	1	1	0	1	-73,643411	273,098283	241,754591	0
15.01.2021	00:49:40	0	0	5,084431	2,7105	32,886	-0,655	77,285	0	1008	5,6	7,8	7,7	1	1	1	1	1	1	1	1	1	0	1	-71,952079	272,990926	242,950274	0
15.01.2021	00:49:41	0	0	4,632509	2,67825	47,7468	-0,653	77,301	0	1008	5,7	7,9	7,6	1	1	1	1	1	1	1	1	1	0	1	-67,44186	273,157871	248,2315	0
15.01.2021	00:49:42	0	0	5,310405	2,61825	22,5684	-0,651	77,303	0	1007,88	5,7	7,9	7,7	1	1	1	1	1	1	1	1	1	0	1	-69,06272	273,057247	246,145756	0
15.01.2021	00:49:43	0	0	3,841593	2,84025	63,1908	-0,657	77,31	0	1007,94	5,6	7,8	7,6	1	1	1	1	1	1	1	1	1	0	1	-68,710359	272,993743	246,204994	0
15.01.2021	00:49:44	0	0	3,502608	3,16575	64,2312	-0,659	77,312	0	1008	5,7	7,8	7,7	1	1	1	1	1	1	1	1	1	0	1	-66,314306	273,055833	248,887643	0
15.01.2021	00:49:45	0	0	3,84157	3,318	44,7912	-0,654	77,34	0	1007,96	5,6	7,9	7,7	1	1	1	1	1	1	1	1	1	0	1	-68,780832	272,995152	246,141023	0
15.01.2021	00:49:46	0	0	4,745497	3,39975	52,5888	-0,655	77,332	0	1008,08	5,7	7,7	7,6	1	1	1	1	1	1	1	1	1	0	1	-73,29105	273,139407	242,29697	0
15.01.2021	00:49:47	0	0	3,276653	3,40575	57,7332	-0,655	77,339	0	1008,14	5,7	7,8	7,6	1	1	1	1	1	1	1	1	1	0	1	-74,559549	273,142247	241,041594	0
15.01.2021	00:49:48	0	0	4,745468	3,606	75,6144	-0,655	77,358	0	1008,1	5,6	7,9	7,7	1	1	1	1	1	1	1	1	1	0	1	-69,415081	272,985292	245,461278	0
15.01.2021	00:49:49	0	0	4,745468	3,768	58,1256	-0,659	77,349	0	1007,94	5,6	7,8	7,7	1	1	1	1	1	1	1	1	1	0	1	-72,30444	273,091201	243,06085	0
15.01.2021	00:49:50	0	0	5,084431	3,87825	71,226	-0,66	77,394	0	1007,96	5,6	7,9	7,7	1	1	1	1	1	1	1	1	1	0	1	-72,656801	273,159292	243,023129	0
15.01.2021	00:49:51	0	0	3,728582	4,05975	58,122	-0,657	77,417	0	1008,08	5,6	7,9	7,7	1	1	1	1	1	1	1	1	1	0	1	-72,233968	273,05866	242,981035	0
15.01.2021	00:49:52	0	0	4,632481	3,9735	58,8672	-0,662	77,446	0	1008,14	5,6	7,8	7,7	1	1	1	1	1	1	1	1	1	0	1	-72,515856	273,159292	243,164073	0
15.01.2021	00:49:53	0	0	3,954581	3,84	79,7436	-0,665	77,463	0	1008,1	5,6	7,9	7,6	1	1	1	1	1	1	1	1	1	0	1	-71,317829	273,05018	243,858019	0
15.01.2021	00:49:54	0	0	4,519521	3,71925	85,554	-0,666	77,501	0	1007,98	5,6	7,8	7,6	1	1	1	1	1	1	1	1	1	0	1	-72,093023	273,15645	243,573769	0
15.01.2021	00:49:55	0	0	3,615595	3,54525	74,1744	-0,661	77,54	0	1007,96	5,6	7,8	7,7	1	1	1	1	1	1	1	1	1	0	1	-68,005638	273,005018	246,96174	0
15.01.2021	00:49:56	0	0	2,937689	3,492	65,4624	-0,664	77,568	0	1007,96	5,7	7,9	7,6	1	1	1	1	1	1	1	1	1	0	1	-72,30444	273,014888	242,70849	0
15.01.2021	00:49:57	0	0	2,937671	3,3885	75,6288	-0,66	77,592	0	1008,1	5,7	7,8	7,7	1	1	1	1	1	1	1	1	1	0	1	-74,770965	273,139407	240,817054	0
15.01.2021	00:49:58	0	0	3,502608	3,3285	48,528	-0,664	77,597	0	1008,04	5,6	7,8	7,7	1	1	1	1	1	1	1	1	1	0	1	-79,704017	273,086954	235,641653	0
15.01.2021	00:49:59	0	0	4,519494	3,7305	66,924	-0,661	77,617	0	1007,86	5,7	7,9	7,7	1	1	1	1	1	1	1	1	1	0	1	-68,569415	273,153608	247,084243	0
15.01.2021	00:50:00	0	0	4,858456	4,206	62,7768	-0,66	77,596	0	1007,84	5,6	7,8	7,7	1	1	1	1	1	1	1	1	1	0	1	-70,613108	272,97403	244,211291	0
15.01.2021	00:50:01	0	0	4,745468	4,389	62,406	-0,661	77,583	0	1008,04	5,7	7,8	7,7	1	1	1	1	1	1	1	1	1	0	1	-71,529246	273,125216	243,993195	0
15.01.2021	00:50:02	0	0	4,745468	4,389	62,406	-0,661	77,583	0	1008,04	5,7	7,8	7,7	1	1	1	1	1	1	1	1	1	0	1	-71,529246	273,125216	243,993195	0
15.01.2021	00:50:03	0	0	3,615595	4,368	66,2256	-0,659	77,577	0	1008,02	5,6	7,9	7,7	1	1	1	1	1	1	1	1	1	0	1	-68,992248	273,125216	246,530193	0
15.01.2021	00:50:04	0	0	3,276633	4,20075	69,4872	-0,66	77,564	0	1008,16	5,6	7,8	7,7	1	1	1	1	1	1	1	1	1	0	1	-69,626498	273,150767	246,014028	0
15.01.2021	00:50:05	0	0	4,632481	3,86175	67,2984	-0,66	77,555	0	1008,02	5,6	7,9	7,7	1	1	1	1	1	1	1	1	1	0	1	-67,723749	273,05866	247,491254	0
15.01.2021	00:50:06	0	0	4,406533	3,615	54,1008	-0,663	77,531	0	1008,22	5,7	7,8	7,6	1	1	1	1	1	1	1	1	1	0	1	-73,572939	273,160713	242,11356	0
15.01.2021	00:50:07	0	0	4,519494	3,396	58,1184	-0,661	77,513	0	1008	5,6	7,8	7,7	1	1	1	1	1	1	1	1	1	0	1	-68,005638	273,05866	247,209365	0
15.01.2021	00:50:08	0	0	3,163646	3,3645	66,2148	-0,667	77,465	0	1008,02	5,7	7,8	7,7	1	1	1	1	1	1	1	1	1	0	1	-66,314306	272,983884	248,555556	0
15.01.2021	00:50:09	0	0	3,163646	3,1635	61,6932	-0,663	77,461	0	1008,1	5,6	7,9	7,7	1	1	1	1	1	1	1	1	1	0	1	-76,039464	273,098283	239,358537	0
15.01.2021	00:50:10	0	0	4,745468	3,14475	64,242	-0,661	77,442	0	1008,08	5,6	7,8	7,7	1	1	1	1	1	1	1	1	1	0	1	-66,314306	273,153608	249,339352	0
15.01.2021	00:50:11	0	0	5,197418	3,11475	69,1632	-0,665	77,424	0	1008,06	5,6	7,9	7,7	1	1	1	1	1	1	1	1	1	0	1	-75,405215	273,123798	240,110671	0
15.01.2021	00:50:12	0	0	4,406506	2,93475	66,924	-0,665	77,414	0	1007,96	5,6	7,9	7,7	1	1	1	1	1	1	1	1	1	0	1	-68,851304	273,092618	246,520527	0
15.01.2021	00:50:13	0	0	3,050658	2,595	60,9372	-0,665	77,395	0	1008,12	5,7	7,8	7,7	1	1	1	1	1	1	1	1	1	0	1	-73,29105	273,002198	241,663318	0
15.01.2021	00:50:14	0	0	3,276633	2,35875	35,1072	-0,664	77,395	0	1008,12	5,6	7,8	7,7	1	1	1	1	1	1	1	1	1	0	1	-70,190275	273,027586	244,881264	0
15.01.2021	00:50:15	0	0	4,858456	2,34375	55,5552	-0,666	77,374	0	1007,92	5,7	7,8	7,7	1	1	1	1	1	1	1	1	1	0	1	-65,46864	272,969808	249,336284	0
15.01.2021	00:50:16	0	0	3,050658	2,49075	44,7984	-0,67	77,345	0	1008,02	5,6	7,8	7,7	1	1	1	1	1	1	1	1	1	0	1	-70,401691	273,085538	244,937439	0
15.01.2021	00:50:17	0	0	3,38962	2,7165	50,3136	-0,668	77,355	0	1007,94	5,6	7,8	7,7	1	1	1	1	1	1	1	1	1	0	1	-67,300916	273,140827	248,293665	0
15.01.2021	00:50:18	0	0	4,180532	2,70225	45,5256	-0,67	77,365	0	1008,02	5,6	7,8	7,7	1	1	1	1	1	1	1	1	1	0	1	-68,07611	273,102533	247,341526	0
15.01.2021	00:50:19	0	0	3,502608	2,472	55,5732	-0,668	77,346	0	1008	5,6	7,8	7,7	1	1	1	1	1	1	1	1	1	0	1	-68,780832	273,160713	246,905667	0
15.01.2021	00:50:20	0	0	4,971443	2,26125	66,5352	-0,672	77,342	0	1008,08	5,6	7,8	7,7	1	1	1	1	1	1	1	1	1	0	1	-73,431994	273,109619	242,018377	0
15.01.2021	00:50:21	0	0	3,84157	2,22375	57,7512	-0,67	77,357	0	1008,06	5,6	7,8	7,7	1	1	1	1	1	1	1	1	1	0	1	-72,938689	272,975437	241,892203	0
15.01.2021	00:50:22	0	0	3,954557	2,36625	71,2512	-0,677	77,359	0	1007,96	5,6	7,8	7,7	1	1	1	1	1	1	1	1	1	0	1	-67,653277	272,99938	247,288084	0
15.01.2021	00:50:23	0	0	4,519494	2,5665	62,7804	-0,672	77,362	0	1007,96	5,6	7,8	7,7	1	1	1	1	1	1	1	1	1	0	1	-71,952079	273,027586	243,11946	0
15.01.2021	00:50:24	0	0	3,276633	2,75775	57,0528	-0,671	77,384	0	1008,04	5,6	7,8	7,7	1	1	1	1	1	1	1	1	1	0	1	-73,150106	272,959961	241,609395	0
15.01.2021	00:50:25	0	0	4,406506	2,7555	56,2752	-0,674	77,397	0	1007,92	5,6	7,8	7,7	1	1	1	1	1	1	1	1	1	0	1	-68,992248	273,023352	246,059749	0
15.01.2021	00:50:26	0	0	4,519494	2,7075	58,2048	-0,669	77,42	0	1008,14	5,6	7,8	7,7	1	1	1	1	1	1	1	1	1	0	1	-65,186751	273,130891	250,361914	0
15.01.2021	00:50:27	0	0	3,276633	2,66925	62,0316	-0,67	77,427	0	1008,08	5,6	7,8	7,7	1	1	1	1	1	1	1	1	1	0	1	-74,27766	273,010657	240,715744	0
15.01.2021	00:50:28	0	0	4,745468	2,90775	70,2216	-0,673	77,438	0	1008,1	5,6	7,8	7,7	1	1	1	1	1	1	1	1	1	0	1	-71,458774	273,135149	244,109566	0
15.01.2021	00:50:29	0	0	4,519494	3,24	48,1176	-0,677	77,431	0	1008,1	5,6	7,8	7,7	1	1	1	1	1	1	1	1	1	0	1	-66,525722	273,069973	248,741519	0
15.01.2021	00:50:30	0	0	3,84157	3,633	60,5736	-0,671	77,447	0	1008,02	5,6	7,8	7,7	1	1	1	1	1	1	1	1	1	0	1	-68,428471	272,965587	246,356983	0
15.01.2021	00:50:31	0	0	3,954557	3,90525	58,8636	-0,673	77,431	0	1008,14	5,6	7,8	7,7	1	1	1	1	1	1	1	1	1	0	1	-71,388302	273,078461	243,918143	0
15.01.2021	00:50:32	0	0	4,180532	3,96975	60,246	-0,678	77,437	0	1008,16	5,6	7,8	7,7	1	1	1	1	1	1	1	1	1	0	1	-72,374912	273,147927	243,252484	0
15.01.2021	00:50:33	0	0	2,824684	4,04025	50,3064	-0,679	77,433	0	1008,12	5,6	7,8	7,7	1	1	1	1	1	1	1	1	1	0	1	-68,005638	273,01912	247,026823	0
15.01.2021	00:50:34	0	0	4,067544	3,87	52,1532	-0,678	77,435	0	1008,14	5,6	7,8	7,7	1	1	1	1	1	1	1	1	1	0	1	-68,992248	272,941687	245,682972	0
15.01.2021	00:50:35	0	0	5,084431	3,642	55,5408	-0,676	77,443	0	1007,98	5,6	7,8	7,7	1	1	1	1	1	1	1	1	1	0	1	-70,260747	273,067144	244,993431	0
15.01.2021	00:50:36	0	0	4,632481	3,498	55,1988	-0,681	77,439	0	1008,1	5,6	7,8	7,7	1	1	1	1	1	1	1	1	1	0	1	-73,150106	273,136568	242,424794	0
15.01.2021	00:50:37	0	0	3,615595	3,39675	61,3332	-0,677	77,434	0	1008,06	5,6	7,8	7,7	1	1	1	1	1	1	1	1	1	0	1	-67,159972	273,072802	248,120335	0
15.01.2021	00:50:38	0	0	3,84157	3,315	55,17	-0,68	77,437	0	1008,12	5,6	7,8	7,7	1	1	1	1	1	1	1	1	1	0	1	-72,727273	273,12238	242,782059	0
15.01.2021	00:50:39	0	0	4,067544	3,30675	57,4056	-0,677	77,455	0	1007,9	5,6	7,8	7,7	1	1	1	1	1	1	1	1	1	0	1	-69,133192	273,08837	246,219017	0
15.01.2021	00:50:40	0	0	2,937671	3,3675	68,7636	-0,676	77,56	0	1008,1	5,6	7,8	7,7	1	1	1	1	1	1	1	1	1	0	1	-71,529246	272,983884	243,340616	0
15.01.2021	00:50:41	0	0	3,728582	3,5025	40,6152	-0,684	77,521	0	1008,08	5,6	7,8	7,7	1	1	1	1	1	1	1	1	1	0	1	-71,247357	273,009247	243,73954	0
15.01.2021	00:50:42	0	0	3,728582	3,4275	41,0184	-0,679	77,559	0	1008,12	5,6	7,8	7,7	1	1	1	1	1	1	1	1	1	0	1	-71,881607	273,113871	243,588413	0
15.01.2021	00:50:43	0	0	2,937671	3,2295	45,144	-0,683	77,566	0	1007,92	5,6	7,8	7,7	1	1	1	1	1	1	1	1	1	0	1	-70,754052	272,988109	244,135303	0
15.01.2021	00:50:44	0	0	3,163646	2,94	65,5308	-0,684	77,579	0	1008,02	5,6	7,8	7,7	1	1	1	1	1	1	1	1	1	0	1	-69,978858	273,014888	245,034072	0
15.01.2021	00:50:45	0	0	4,858456	2,7285	70,8624	-0,681	77,603	0	1008,1	5,6	7,8	7,7	1	1	1	1	1	1	1	1	1	0	1	-72,163495	273,120961	243,339283	0
15.01.2021	00:50:46	0	0	3,728582	2,61825	66,5424	-0,683	77,606	0	1008,06	5,6	7,8	7,7	1	1	1	1	1	1	1	1	1	0	1	-72,868217	273,085538	242,470914	0
15.01.2021	00:50:47	0	0	3,728582	2,739	62,7948	-0,684	77,623	0	1008,16	5,6	7,8	7,7	1	1	1	1	1	1	1	1	1	0	1	-69,69697	272,986701	245,185887	0
15.01.2021	00:50:48	0	0	2,711696	2,6745	44,0712	-0,679	77,629	0	1008,1	5,6	7,8	7,7	1	1	1	1	1	1	1	1	1	0	1	-72,233968	272,951525	242,486622	0
15.01.2021	00:50:49	0	0	3,276633	2,6835	55,5696	-0,687	77,628	0	1008	5,6	7,8	7,7	1	1	1	1	1	1	1	1	1	0	1	-69,133192	273,034644	245,970927	0
15.01.2021	00:50:50	0	0	4,519494	2,685	47,772	-0,689	77,62	0	1008,12	5,6	7,8	7,7	1	1	1	1	1	1	1	1	1	0	1	-70,965469	273,128054	244,570083	0
15.01.2021	00:50:51	0	0	3,050658	2,96625	39,1788	-0,686	77,632	0	1008,14	5,6	7,8	7,7	1	1	1	1	1	1	1	1	1	0	1	-63,284003	272,986701	251,598854	0
15.01.2021	00:50:52	0	0	4,971443	3,08625	32,1696	-0,684	77,629	0	1008,02	5,6	7,8	7,7	1	1	1	1	1	1	1	1	1	0	1	-68,146582	273,109619	247,303789	0
15.01.2021	00:50:53	0	0	3,163646	3,48075	45,5364	-0,684	77,658	0	1007,98	5,6	7,8	7,7	1	1	1	1	1	1	1	1	1	0	1	-71,247357	272,972622	243,570549	0
15.01.2021	00:50:54	0	0	2,598725	3,43575	35,4888	-0,694	77,689	0	1008,02	5,6	7,8	7,6	1	1	1	1	1	1	1	1	1	0	1	-67,723749	273,129473	247,818359	0
15.01.2021	00:50:55	0	0	4,971443	3,24825	43,6572	-0,683	77,7	0	1008,04	5,6	7,8	7,7	1	1	1	1	1	1	1	1	1	0	1	-67,723749	273,102533	247,693887	0
15.01.2021	00:50:56	0	0	2,937671	3,219	55,188	-0,682	77,736	0	1008,02	5,6	7,8	7,7	1	1	1	1	1	1	1	1	1	0	1	-69,767442	273,092618	245,604389	0
15.01.2021	00:50:57	0	0	2,485722	3,4695	60,57	-0,686	77,735	0	1008	5,6	7,8	7,7	1	1	1	1	1	1	1	1	1	0	1	-67,371388	272,940282	247,297352	0
15.01.2021	00:50:58	0	0	5,084431	3,69375	69,8328	-0,686	77,752	0	1007,96	5,6	7,8	7,7	1	1	1	1	1	1	1	1	1	0	1	-74,630021	273,03182	240,461065	0
15.01.2021	00:50:59	0	0	2,824684	3,552	49,9536	-0,686	77,777	0	1008,1	5,6	7,8	7,7	1	1	1	1	1	1	1	1	1	0	1	-71,811135	272,961367	242,954854	0
15.01.2021	00:51:00	0	0	3,728582	3,63975	50,2848	-0,687	77,79	0	1008,24	5,6	7,8	7,7	1	1	1	1	1	1	1	1	1	0	1	-74,418605	273,126635	241,110391	0
15.01.2021	00:51:01	0	0	2,711713	3,76875	56,6712	-0,685	77,808	0	1008,08	5,6	7,8	7,6	1	1	1	1	1	1	1	1	1	0	1	-72,515856	273,072802	242,764451	0
15.01.2021	00:51:02	0	0	2,711713	3,76875	56,6712	-0,685	77,808	0	1008,08	5,6	7,8	7,6	1	1	1	1	1	1	1	1	1	0	1	-72,515856	273,072802	242,764451	0
15.01.2021	00:51:03	0	0	4,745468	3,714	54,4932	-0,688	77,828	0	1008,2	5,6	7,8	7,7	1	1	1	1	1	1	1	1	1	0	1	-72,727273	272,945902	241,967388	0
15.01.2021	00:51:04	0	0	4,180532	3,6255	68,7636	-0,689	77,834	0	1007,96	5,6	7,8	7,7	1	1	1	1	1	1	1	1	1	0	1	-70,119803	272,992335	244,78905	0
15.01.2021	00:51:05	0	0	4,519494	3,54075	50,0616	-0,685	77,854	0	1008,06	5,6	7,8	7,7	1	1	1	1	1	1	1	1	1	0	1	-72,727273	272,955742	242,01277	0
15.01.2021	00:51:06	0	0	3,050677	3,48975	55,5588	-0,692	77,863	0	1008	5,6	7,8	7,6	1	1	1	1	1	1	1	1	1	0	1	-72,656801	273,01912	242,375661	0
15.01.2021	00:51:07	0	0	4,293519	3,58875	66,2184	-0,689	77,896	0	1007,98	5,6	7,8	7,7	1	1	1	1	1	1	1	1	1	0	1	-73,009161	272,961367	241,756827	0
15.01.2021	00:51:08	0	0	2,824684	3,56925	71,5968	-0,686	77,92	0	1007,98	5,6	7,8	7,7	1	1	1	1	1	1	1	1	1	0	1	-63,284003	273,017709	251,741948	0
15.01.2021	00:51:09	0	0	4,293519	3,549	76,3776	-0,69	77,923	0	1008,04	5,6	7,8	7,7	1	1	1	1	1	1	1	1	1	0	1	-65,045807	273,126635	250,483189	0
15.01.2021	00:51:10	0	0	4,745497	3,35775	76,824	-0,688	77,959	0	1008,04	5,6	7,8	7,6	1	1	1	1	1	1	1	1	1	0	1	-66,948555	273,075631	248,34482	0
15.01.2021	00:51:11	0	0	4,632481	3,22275	58,8672	-0,675	77,971	0	1008,16	5,6	7,8	7,7	1	1	1	1	1	1	1	1	1	0	1	-69,133192	272,969808	245,671731	0
15.01.2021	00:51:12	0	0	3,389641	3,06	68,778	-0,684	77,983	0	1008,06	5,6	7,8	7,6	1	1	1	1	1	1	1	1	1	0	1	-72,656801	273,061488	242,571259	0
15.01.2021	00:51:13	0	0	4,293545	3,075	64,62	-0,685	78,006	0	1008,1	5,6	7,8	7,6	1	1	1	1	1	1	1	1	1	0	1	-72,30444	273,120961	243,198339	0
15.01.2021	00:51:14	0	0	3,84157	2,9325	66,546	-0,682	78	0	1008,04	5,6	7,8	7,7	1	1	1	1	1	1	1	1	1	0	1	-66,807611	273,024763	248,2509	0
15.01.2021	00:51:15	0	0	3,502608	3,027	83,3436	-0,689	78,011	0	1007,82	5,6	7,8	7,7	1	1	1	1	1	1	1	1	1	0	1	-68,287526	273,13231	247,267696	0
15.01.2021	00:51:16	0	0	3,841593	3,08175	93,7116	-0,683	78,035	0	1008,16	5,6	7,8	7,6	1	1	1	1	1	1	1	1	1	0	1	-65,116279	273,074217	250,170562	0
15.01.2021	00:51:17	0	0	3,954581	3,02775	77,2236	-0,687	78,06	0	1007,98	5,6	7,8	7,6	1	1	1	1	1	1	1	1	1	0	1	-71,881607	273,129473	243,660501	0
15.01.2021	00:51:18	0	0	3,389641	2,907	66,5352	-0,686	78,09	0	1008,04	5,6	7,8	7,6	1	1	1	1	1	1	1	1	1	0	1	-69,415081	273,077046	245,884829	0
15.01.2021	00:51:19	0	0	3,728605	2,9565	76,3488	-0,688	78,109	0	1007,96	5,6	7,8	7,6	1	1	1	1	1	1	1	1	1	0	1	-73,643411	272,950119	241,070696	0
15.01.2021	00:51:20	0	0	2,937689	3,29775	81,9396	-0,683	78,128	0	1008,08	5,6	7,8	7,6	1	1	1	1	1	1	1	1	1	0	1	-68,357999	273,009247	246,628898	0
15.01.2021	00:51:21	0	0	2,598725	3,4815	77,5944	-0,689	78,13	0	1007,98	5,6	7,8	7,6	1	1	1	1	1	1	1	1	1	0	1	-72,586328	273,077046	242,713581	0
15.01.2021	00:51:22	0	0	3,728605	3,72675	76,3776	-0,687	78,137	0	1007,98	5,6	7,8	7,6	1	1	1	1	1	1	1	1	1	0	1	-64,83439	272,957148	249,912138	0
15.01.2021	00:51:23	0	0	3,615595	3,88125	69,4764	-0,677	78,137	0	1007,96	5,6	7,8	7,7	1	1	1	1	1	1	1	1	1	0	1	-66,666667	273,08837	248,685542	0
15.01.2021	00:51:24	0	0	4,293545	3,97425	75,2364	-0,687	78,123	0	1007,98	5,6	7,8	7,6	1	1	1	1	1	1	1	1	1	0	1	-67,794221	273,026174	247,270803	0
15.01.2021	00:51:25	0	0	3,841593	4,2435	74,5236	-0,684	78,11	0	1008,24	5,6	7,8	7,6	1	1	1	1	1	1	1	1	1	0	1	-68,357999	273,136568	247,216901	0
15.01.2021	00:51:26	0	0	4,406533	4,45875	83,7288	-0,682	78,136	0	1008,24	5,6	7,8	7,6	1	1	1	1	1	1	1	1	1	0	1	-70,260747	272,989517	244,635107	0
15.01.2021	00:51:27	0	0	4,971473	4,02825	59,5152	-0,684	78,134	0	1007,96	5,6	7,8	7,6	1	1	1	1	1	1	1	1	1	0	1	-76,744186	273,085538	238,594945	0
15.01.2021	00:51:28	0	0	3,502629	3,46875	82,3608	-0,681	78,127	0	1008,28	5,6	7,8	7,6	1	1	1	1	1	1	1	1	1	0	1	-67,582805	272,941687	247,092415	0
15.01.2021	00:51:29	0	0	3,728605	3,48375	75,2436	-0,676	78,156	0	1008,04	5,6	7,8	7,6	1	1	1	1	1	1	1	1	1	0	1	-71,881607	273,108201	243,562216	0
15.01.2021	00:51:30	0	0	2,937689	3,378	67,2732	-0,684	78,139	0	1007,98	5,6	7,8	7,6	1	1	1	1	1	1	1	1	1	0	1	-70,260747	273,069973	245,006495	0
15.01.2021	00:51:31	0	0	5,310437	3,5055	68,3892	-0,675	78,145	0	1007,84	5,6	7,8	7,6	1	1	1	1	1	1	1	1	1	0	1	-70,190275	273,05442	245,005148	0
15.01.2021	00:51:32	0	0	2,824701	3,5595	73,4544	-0,683	78,136	0	1007,98	5,6	7,8	7,6	1	1	1	1	1	1	1	1	1	0	1	-65,891473	273,118125	249,5982	0
15.01.2021	00:51:33	0	0	5,423425	3,35025	69,4656	-0,675	78,138	0	1008,06	5,6	7,8	7,6	1	1	1	1	1	1	1	1	1	0	1	-75,968992	272,959961	238,790509	0
15.01.2021	00:51:34	0	0	3,276653	3,0045	97,3116	-0,679	78,134	0	1008,02	5,6	7,8	7,6	1	1	1	1	1	1	1	1	1	0	1	-69,344609	272,965587	245,440844	0
15.01.2021	00:51:35	0	0	4,519521	3,1275	93,33	-0,673	78,164	0	1008,06	5,6	7,8	7,6	1	1	1	1	1	1	1	1	1	0	1	-72,374912	272,941687	242,300308	0
15.01.2021	00:51:36	0	0	2,937689	3,36225	89,712	-0,677	78,181	0	1007,92	5,6	7,8	7,6	1	1	1	1	1	1	1	1	1	0	1	-65,116279	272,976845	249,721107	0
15.01.2021	00:51:37	0	0	2,372748	3,76875	88,9344	-0,671	78,224	0	1007,96	5,6	7,8	7,6	1	1	1	1	1	1	1	1	1	0	1	-68,005638	273,074217	247,281203	0
15.01.2021	00:51:38	0	0	3,502629	4,03425	84,0564	-0,675	78,244	0	1008	5,6	7,8	7,6	1	1	1	1	1	1	1	1	1	0	1	-72,022551	273,128054	243,513001	0
15.01.2021	00:51:39	0	0	3,615617	4,03425	88,9524	-0,674	78,285	0	1008	5,6	7,8	7,6	1	1	1	1	1	1	1	1	1	0	1	-76,462297	273,060074	238,759233	0
15.01.2021	00:51:40	0	0	4,519521	3,7215	90,4068	-0,668	78,314	0	1007,92	5,6	7,7	7,6	1	1	1	1	1	1	1	1	1	0	1	-70,049331	273,128054	245,486221	0
15.01.2021	00:51:41	0	0	4,858456	3,315	84,4596	-0,675	78,33	0	1007,96	5,6	7,8	7,7	1	1	1	1	1	1	1	1	1	0	1	-75,193798	273,077046	240,106111	0
15.01.2021	00:51:42	0	0	3,502629	3,0855	88,9668	-0,666	78,337	0	1008	5,6	7,8	7,6	1	1	1	1	1	1	1	1	1	0	1	-72,868217	273,116707	242,614904	0
15.01.2021	00:51:43	0	0	3,163665	2,9625	69,156	-0,669	78,35	0	1008,1	5,6	7,7	7,6	1	1	1	1	1	1	1	1	1	0	1	-74,136716	273,085538	241,202415	0
15.01.2021	00:51:44	0	0	4,745497	3,03225	62,424	-0,665	78,342	0	1008,14	5,6	7,8	7,6	1	1	1	1	1	1	1	1	1	0	1	-67,935166	272,950119	246,778941	0
15.01.2021	00:51:45	0	0	4,632509	3,1545	64,314	-0,671	78,332	0	1008,04	5,6	7,8	7,6	1	1	1	1	1	1	1	1	1	0	1	-70,965469	272,99938	243,975892	0
15.01.2021	00:51:46	0	0	4,519521	3,4275	69,8544	-0,661	78,339	0	1008,1	5,6	7,8	7,6	1	1	1	1	1	1	1	1	1	0	1	-68,07611	273,120961	247,426668	0
15.01.2021	00:51:47	0	0	3,841593	3,6465	58,8708	-0,665	78,33	0	1008,18	5,6	7,7	7,6	1	1	1	1	1	1	1	1	1	0	1	-67,794221	273,047355	247,36858	0
15.01.2021	00:51:48	0	0	4,293545	3,74625	68,7564	-0,664	78,315	0	1008,1	5,6	7,8	7,6	1	1	1	1	1	1	1	1	1	0	1	-70,049331	273,112454	245,414139	0
15.01.2021	00:51:49	0	0	2,824701	3,76125	68,4252	-0,664	78,305	0	1008,2	5,6	7,8	7,6	1	1	1	1	1	1	1	1	1	0	1	-69,908386	272,962774	244,86409	0
15.01.2021	00:51:50	0	0	2,937689	3,7395	62,4348	-0,67	78,274	0	1008,08	5,6	7,8	7,6	1	1	1	1	1	1	1	1	1	0	1	-71,106413	272,985292	243,769946	0
15.01.2021	00:51:51	0	0	4,632509	3,8655	61,3008	-0,661	78,286	0	1008,04	5,6	7,8	7,6	1	1	1	1	1	1	1	1	1	0	1	-67,864693	273,126635	247,664302	0
15.01.2021	00:51:52	0	0	2,824701	3,81525	62,028	-0,663	78,283	0	1008,18	5,6	7,8	7,6	1	1	1	1	1	1	1	1	1	0	1	-69,978858	272,971215	244,832556	0
15.01.2021	00:51:53	0	0	5,084461	3,84675	63,9612	-0,664	78,265	0	1008,1	5,6	7,8	7,6	1	1	1	1	1	1	1	1	1	0	1	-64,975335	273,0997	250,429211	0
15.01.2021	00:51:54	0	0	4,180557	3,813	54,1044	-0,665	78,276	0	1008	5,6	7,8	7,6	1	1	1	1	1	1	1	1	1	0	1	-72,797745	273,002198	242,156624	0
15.01.2021	00:51:55	0	0	2,937689	3,8715	65,4624	-0,66	78,284	0	1008,08	5,6	7,8	7,6	1	1	1	1	1	1	1	1	1	0	1	-71,740662	273,116707	243,742459	0
15.01.2021	00:51:56	0	0	4,745497	3,78525	62,4096	-0,665	78,276	0	1008,04	5,6	7,8	7,6	1	1	1	1	1	1	1	1	1	0	1	-67,582805	273,026174	247,48222	0
15.01.2021	00:51:57	0	0	2,824701	3,573	60,2244	-0,659	78,276	0	1008,06	5,6	7,7	7,6	1	1	1	1	1	1	1	1	1	0	1	-71,599718	273,09545	243,785197	0
15.01.2021	00:51:58	0	0	3,163665	3,318	56,6676	-0,662	78,268	0	1008,18	5,6	7,7	7,6	1	1	1	1	1	1	1	1	1	0	1	-66,948555	273,060074	248,272975	0
15.01.2021	00:51:59	0	0	4,632509	3,0345	53,3556	-0,664	78,258	0	1008,14	5,6	7,7	7,6	1	1	1	1	1	1	1	1	1	0	1	-72,163495	273,118125	243,326178	0
15.01.2021	00:52:00	0	0	3,502629	2,6655	56,664	-0,658	78,261	0	1008,16	5,6	7,7	7,6	1	1	1	1	1	1	1	1	1	0	1	-68,217054	273,109619	247,233317	0
15.01.2021	00:52:01	0	0	4,971473	2,83125	63,4932	-0,66	78,25	0	1007,98	5,6	7,7	7,6	1	1	1	1	1	1	1	1	1	0	1	-69,415081	273,09545	245,969834	0
15.01.2021	00:52:02	0	0	4,971473	2,83125	63,4932	-0,66	78,25	0	1007,98	5,6	7,7	7,6	1	1	1	1	1	1	1	1	1	0	1	-69,415081	273,09545	245,969834	0
15.01.2021	00:52:03	0	0	4,406533	2,97825	54,7956	-0,654	78,25	0	1007,96	5,5	7,7	7,6	1	1	1	1	1	1	1	1	1	0	1	-72,938689	272,975437	241,892203	0
15.01.2021	00:52:04	0	0	4,971473	2,931	62,0352	-0,658	78,252	0	1008,14	5,6	7,8	7,6	1	1	1	1	1	1	1	1	1	0	1	-71,176885	272,997971	243,757973	0
15.01.2021	00:52:05	0	0	3,276653	2,88825	68,0328	-0,654	78,243	0	1008,06	5,6	7,8	7,6	1	1	1	1	1	1	1	1	1	0	1	-72,586328	273,128054	242,949223	0
15.01.2021	00:52:06	0	0	3,050677	2,76375	68,1084	-0,657	78,221	0	1008,14	5,6	7,8	7,6	1	1	1	1	1	1	1	1	1	0	1	-66,878083	273,02053	248,16089	0
15.01.2021	00:52:07	0	0	3,163665	2,7315	68,3892	-0,655	78,225	0	1008,02	5,6	7,8	7,6	1	1	1	1	1	1	1	1	1	0	1	-72,938689	272,937472	241,717095	0
15.01.2021	00:52:08	0	0	2,937689	2,72325	62,4348	-0,656	78,21	0	1007,98	5,6	7,8	7,6	1	1	1	1	1	1	1	1	1	0	1	-71,952079	272,96418	242,826885	0
15.01.2021	00:52:09	0	0	4,519521	2,60925	49,5756	-0,654	78,232	0	1007,98	5,5	7,8	7,6	1	1	1	1	1	1	1	1	1	0	1	-72,938689	273,118125	242,550984	0
15.01.2021	00:52:10	0	0	2,485736	2,6985	56,6316	-0,649	78,22	0	1008	5,6	7,8	7,6	1	1	1	1	1	1	1	1	1	0	1	-68,357999	272,978252	246,485881	0
15.01.2021	00:52:11	0	0	4,632509	2,82375	69,8652	-0,654	78,205	0	1008,16	5,6	7,8	7,6	1	1	1	1	1	1	1	1	1	0	1	-65,398168	272,955742	249,341875	0
15.01.2021	00:52:12	0	0	5,197449	2,80125	57,0312	-0,654	78,214	0	1008,04	5,6	7,7	7,6	1	1	1	1	1	1	1	1	1	0	1	-69,274137	273,098283	246,123865	0
15.01.2021	00:52:13	0	0	4,745497	2,73825	54,4896	-0,659	78,197	0	1008,12	5,6	7,8	7,6	1	1	1	1	1	1	1	1	1	0	1	-70,331219	273,006427	244,642665	0
15.01.2021	00:52:14	0	0	3,615617	2,65875	61,6968	-0,655	78,195	0	1008,14	5,6	7,7	7,6	1	1	1	1	1	1	1	1	1	0	1	-65,186751	273,119543	250,309474	0
15.01.2021	00:52:15	0	0	4,519521	2,58225	65,8296	-0,655	78,186	0	1008,02	5,6	7,8	7,6	1	1	1	1	1	1	1	1	1	0	1	-74,559549	272,958555	240,193465	0
15.01.2021	00:52:16	0	0	5,084461	2,57475	60,2388	-0,657	78,169	0	1008,08	5,6	7,7	7,6	1	1	1	1	1	1	1	1	1	0	1	-69,203665	272,951525	245,516925	0
15.01.2021	00:52:17	0	0	3,389641	2,56425	37,6776	-0,646	78,158	0	1008,02	5,6	7,7	7,6	1	1	1	1	1	1	1	1	1	0	1	-68,921776	272,99938	246,019585	0
15.01.2021	00:52:18	0	0	4,858485	2,70525	66,2364	-0,65	78,153	0	1008,1	5,6	7,8	7,6	1	1	1	1	1	1	1	1	1	0	1	-67,159972	272,95293	247,567102	0
15.01.2021	00:52:19	0	0	3,954581	2,51025	58,482	-0,651	78,139	0	1007,96	5,6	7,7	7,6	1	1	1	1	1	1	1	1	1	0	1	-72,163495	272,97966	242,686879	0
15.01.2021	00:52:20	0	0	4,293545	2,391	41,8464	-0,653	78,104	0	1008,1	5,6	7,7	7,6	1	1	1	1	1	1	1	1	1	0	1	-68,217054	273,12238	247,292278	0
15.01.2021	00:52:21	0	0	3,615617	2,35425	63,1656	-0,655	78,108	0	1008,02	5,6	7,7	7,6	1	1	1	1	1	1	1	1	1	0	1	-70,965469	273,006427	244,008415	0
15.01.2021	00:52:22	0	0	4,745497	2,31975	62,4348	-0,646	78,073	0	1008,12	5,5	7,8	7,6	1	1	1	1	1	1	1	1	1	0	1	-71,388302	273,13373	244,17348	0
15.01.2021	00:52:23	0	0	4,632509	2,523	65,0808	-0,65	78,077	0	1008,08	5,6	7,7	7,6	1	1	1	1	1	1	1	1	1	0	1	-69,767442	273,014888	245,245488	0
15.01.2021	00:52:24	0	0	2,824701	2,78775	54,504	-0,655	78,05	0	1008,04	5,6	7,8	7,6	1	1	1	1	1	1	1	1	1	0	1	-70,401691	273,113871	245,068328	0
15.01.2021	00:52:25	0	0	2,824701	2,85675	45,522	-0,651	78,046	0	1008,2	5,6	7,7	7,6	1	1	1	1	1	1	1	1	1	0	1	-70,119803	273,072802	245,160504	0
15.01.2021	00:52:26	0	0	3,389641	2,79375	54,4968	-0,651	78,037	0	1008,08	5,6	7,8	7,6	1	1	1	1	1	1	1	1	1	0	1	-73,150106	272,937472	241,505678	0
15.01.2021	00:52:27	0	0	3,163665	2,634	63,4932	-0,652	78,027	0	1008,02	5,6	7,7	7,6	1	1	1	1	1	1	1	1	1	0	1	-72,093023	273,079877	243,219958	0
15.01.2021	00:52:28	0	0	2,711713	2,52075	60,2676	-0,645	78,018	0	1008,08	5,6	7,7	7,6	1	1	1	1	1	1	1	1	1	0	1	-74,982382	272,981068	239,874488	0
15.01.2021	00:52:29	0	0	3,389641	2,57325	59,184	-0,646	78,021	0	1008,12	5,6	7,7	7,6	1	1	1	1	1	1	1	1	1	0	1	-68,569415	272,962774	246,203061	0
15.01.2021	00:52:30	0	0	3,502629	2,5665	84,8088	-0,649	78,017	0	1008	5,6	7,7	7,6	1	1	1	1	1	1	1	1	1	0	1	-71,529246	272,95293	243,197828	0
15.01.2021	00:52:31	0	0	3,276653	2,5275	83,3544	-0,651	78,001	0	1008,04	5,6	7,7	7,6	1	1	1	1	1	1	1	1	1	0	1	-72,022551	273,012067	242,977361	0
15.01.2021	00:52:32	0	0	3,276653	2,4405	79,7724	-0,651	77,992	0	1007,94	5,6	7,7	7,6	1	1	1	1	1	1	1	1	1	0	1	-71,247357	272,954336	243,486201	0
15.01.2021	00:52:33	0	0	3,954581	2,4675	77,3028	-0,648	77,984	0	1008,1	5,6	7,7	7,6	1	1	1	1	1	1	1	1	1	0	1	-68,287526	273,102533	247,130109	0
15.01.2021	00:52:34	0	0	2,598725	2,51625	73,7856	-0,648	77,985	0	1008,02	5,6	7,8	7,6	1	1	1	1	1	1	1	1	1	0	1	-71,881607	273,009247	243,10529	0
15.01.2021	00:52:35	0	0	3,276653	2,4735	78,2604	-0,65	77,989	0	1008,06	5,5	7,8	7,6	1	1	1	1	1	1	1	1	1	0	1	-67,935166	273,12238	247,574166	0
15.01.2021	00:52:36	0	0	3,502629	2,556	77,958	-0,649	77,979	0	1008,08	5,6	7,7	7,6	1	1	1	1	1	1	1	1	1	0	1	-66,45525	273,024763	248,603261	0
15.01.2021	00:52:37	0	0	3,728605	2,613	72,2916	-0,644	77,976	0	1008,14	5,5	7,7	7,6	1	1	1	1	1	1	1	1	1	0	1	-69,274137	272,948713	245,433487	0
15.01.2021	00:52:38	0	0	4,971473	2,56575	71,9856	-0,643	77,969	0	1007,96	5,5	7,7	7,6	1	1	1	1	1	1	1	1	1	0	1	-70,542636	273,074217	244,744205	0
15.01.2021	00:52:39	0	0	2,372748	2,526	69,8508	-0,647	77,961	0	1008,1	5,6	7,7	7,6	1	1	1	1	1	1	1	1	1	0	1	-68,851304	272,951525	245,869286	0
15.01.2021	00:52:40	0	0	4,180557	2,469	69,5664	-0,645	77,959	0	1008,24	5,5	7,7	7,6	1	1	1	1	1	1	1	1	1	0	1	-68,357999	272,996561	246,570357	0
15.01.2021	00:52:41	0	0	3,841593	2,3115	69,8544	-0,647	77,949	0	1008,04	5,6	7,7	7,6	1	1	1	1	1	1	1	1	1	0	1	-70,68358	273,115289	244,79299	0
15.01.2021	00:52:42	0	0	4,971473	2,30475	67,2876	-0,645	77,931	0	1008,12	5,6	7,7	7,6	1	1	1	1	1	1	1	1	1	0	1	-69,837914	273,002198	245,116454	0
15.01.2021	00:52:43	0	0	4,632509	2,3025	79,5024	-0,647	77,934	0	1008,06	5,6	7,7	7,6	1	1	1	1	1	1	1	1	1	0	1	-75,828048	273,12238	239,681284	0
15.01.2021	00:52:44	0	0	3,728605	2,39025	62,7264	-0,647	77,924	0	1008,16	5,6	7,7	7,6	1	1	1	1	1	1	1	1	1	0	1	-66,243834	272,992335	248,665019	0
15.01.2021	00:52:45	0	0	2,598725	2,38875	74,556	-0,65	77,915	0	1007,98	5,6	7,7	7,6	1	1	1	1	1	1	1	1	1	0	1	-76,109937	273,128054	239,425615	0
15.01.2021	00:52:46	0	0	4,745497	2,31375	51,7536	-0,643	77,914	0	1008,06	5,5	7,7	7,6	1	1	1	1	1	1	1	1	1	0	1	-63,706836	272,985292	251,169523	0
15.01.2021	00:52:47	0	0	2,485736	2,3295	82,3356	-0,642	77,909	0	1008	5,6	7,7	7,6	1	1	1	1	1	1	1	1	1	0	1	-71,388302	273,126635	244,140694	0
15.01.2021	00:52:48	0	0	2,598725	2,3415	62,0316	-0,645	77,888	0	1008,12	5,5	7,7	7,6	1	1	1	1	1	1	1	1	1	0	1	-70,190275	272,990926	244,712078	0
15.01.2021	00:52:49	0	0	4,632509	2,421	64,638	-0,65	77,914	0	1008,02	5,6	7,7	7,6	1	1	1	1	1	1	1	1	1	0	1	-70,049331	272,95293	244,677743	0
15.01.2021	00:52:50	0	0	2,824701	2,5005	67,68	-0,647	77,91	0	1008,08	5,5	7,7	7,6	1	1	1	1	1	1	1	1	1	0	1	-69,556025	273,082707	245,770029	0
15.01.2021	00:52:51	0	0	2,25976	2,4435	35,154	-0,647	77,913	0	1008,2	5,5	7,7	7,6	1	1	1	1	1	1	1	1	1	0	1	-70,472163	273,003608	244,488709	0
15.01.2021	00:52:52	0	0	5,084461	2,28075	66,9168	-0,641	77,934	0	1008,1	5,6	7,7	7,6	1	1	1	1	1	1	1	1	1	0	1	-67,230444	273,102533	248,187192	0
15.01.2021	00:52:53	0	0	2,25976	2,1555	36,252	-0,649	77,931	0	1007,98	5,6	7,7	7,6	1	1	1	1	1	1	1	1	1	0	1	-65,891473	273,077046	249,408437	0
15.01.2021	00:52:54	0	0	4,858485	2,16375	42,9048	-0,648	77,931	0	1008,02	5,6	7,7	7,6	1	1	1	1	1	1	1	1	1	0	1	-70,331219	273,078461	244,975226	0
15.01.2021	00:52:55	0	0	2,485736	2,289	45,1476	-0,646	77,933	0	1008,02	5,5	7,7	7,6	1	1	1	1	1	1	1	1	1	0	1	-70,613108	272,988109	244,276247	0
15.01.2021	00:52:56	0	0	4,293545	2,54775	44,7912	-0,646	77,951	0	1008,14	5,6	7,8	7,6	1	1	1	1	1	1	1	1	1	0	1	-68,005638	273,102533	247,411998	0
15.01.2021	00:52:57	0	0	4,745497	2,94525	42,8976	-0,646	77,94	0	1008,06	5,5	7,7	7,6	1	1	1	1	1	1	1	1	1	0	1	-72,656801	273,068558	242,603909	0
15.01.2021	00:52:58	0	0	3,502629	3,1155	39,5712	-0,64	77,935	0	1008,2	5,5	7,7	7,6	1	1	1	1	1	1	1	1	1	0	1	-71,106413	273,109619	244,343958	0
15.01.2021	00:52:59	0	0	3,502629	3,08625	38,4192	-0,642	77,927	0	1008,06	5,5	7,7	7,6	1	1	1	1	1	1	1	1	1	0	1	-62,790698	273,040292	252,339497	0
15.01.2021	00:53:00	0	0	3,389641	3,09525	43,6716	-0,641	77,952	0	1008,26	5,5	7,7	7,6	1	1	1	1	1	1	1	1	1	0	1	-72,586328	272,982476	242,277037	0
15.01.2021	00:53:01	0	0	3,276653	3,174	42,9948	-0,64	77,926	0	1008,02	5,6	7,7	7,6	1	1	1	1	1	1	1	1	1	0	1	-72,586328	272,982476	242,277037	0
15.01.2021	00:53:02	0	0	3,276653	3,174	42,9948	-0,64	77,926	0	1008,02	5,6	7,7	7,6	1	1	1	1	1	1	1	1	1	0	1	-72,022551	272,966994	242,769392	0
15.01.2021	00:53:03	0	0	2,485736	3,21375	49,968	-0,633	77,962	0	1008,26	5,6	7,7	7,6	1	1	1	1	1	1	1	1	1	0	1	-71,176885	273,009247	243,810012	0
15.01.2021	00:53:04	0	0	4,180557	3,13875	56,6604	-0,641	77,95	0	1007,92	5,5	7,7	7,6	1	1	1	1	1	1	1	1	1	0	1	-73,713883	273,112454	241,749586	0
15.01.2021	00:53:05	0	0	4,293545	3,1605	65,9232	-0,642	78,005	0	1007,86	5,6	7,7	7,6	1	1	1	1	1	1	1	1	1	0	1	-76,391825	273,082707	238,93423	0
15.01.2021	00:53:06	0	0	3,728605	3,117	51,4512	-0,648	77,965	0	1007,86	5,6	7,7	7,6	1	1	1	1	1	1	1	1	1	0	1	-71,881607	273,111036	243,575313	0
15.01.2021	00:53:07	0	0	4,858485	3,2955	52,506	-0,641	77,981	0	1008,36	5,5	7,7	7,6	1	1	1	1	1	1	1	1	1	0	1	-76,039464	273,002198	238,914904	0
15.01.2021	00:53:08	0	0	2,711713	3,37575	58,4856	-0,634	77,985	0	1008,02	5,6	7,7	7,6	1	1	1	1	1	1	1	1	1	0	1	-70,049331	273,113871	245,420689	0
15.01.2021	00:53:09	0	0	3,389641	3,30375	43,3044	-0,641	77,984	0	1008,22	5,5	7,7	7,6	1	1	1	1	1	1	1	1	1	0	1	-74,630021	272,996561	240,298335	0
15.01.2021	00:53:10	0	0	4,632509	3,1785	41,0184	-0,64	77,988	0	1008,02	5,5	7,7	7,6	1	1	1	1	1	1	1	1	1	0	1	-69,274137	272,941687	245,401083	0
15.01.2021	00:53:11	0	0	2,824701	3,111	47,3796	-0,643	77,987	0	1007,96	5,6	7,7	7,6	1	1	1	1	1	1	1	1	1	0	1	-69,978858	273,048768	245,190466	0
15.01.2021	00:53:12	0	0	4,293545	3,36375	51,7572	-0,641	77,985	0	1008,1	5,5	7,7	7,6	1	1	1	1	1	1	1	1	1	0	1	-68,428471	272,96418	246,350494	0
15.01.2021	00:53:13	0	0	4,858485	3,5205	47,8368	-0,638	77,99	0	1008,14	5,6	7,7	7,6	1	1	1	1	1	1	1	1	1	0	1	-75,616631	273,027586	239,454908	0
15.01.2021	00:53:14	0	0	4,067569	3,612	54,7956	-0,639	78,001	0	1008,04	5,5	7,7	7,6	1	1	1	1	1	1	1	1	1	0	1	-68,005638	273,119543	247,490588	0
15.01.2021	00:53:15	0	0	4,067569	3,606	47,7576	-0,64	77,991	0	1008,2	5,5	7,7	7,6	1	1	1	1	1	1	1	1	1	0	1	-76,462297	272,961367	238,303691	0
15.01.2021	00:53:16	0	0	2,937689	3,45675	48,1176	-0,635	78,018	0	1008,34	5,6	7,7	7,6	1	1	1	1	1	1	1	1	1	0	1	-66,807611	273,06573	248,440037	0
15.01.2021	00:53:17	0	0	2,824718	3,29175	45,8388	-0,637	78,04	0	1007,94	5,6	7,7	7,5	1	1	1	1	1	1	1	1	1	0	1	-68,921776	272,975437	245,909116	0
15.01.2021	00:53:18	0	0	3,954581	3,36225	57,4416	-0,635	78,034	0	1008,14	5,6	7,7	7,6	1	1	1	1	1	1	1	1	1	0	1	-72,374912	273,055833	242,827037	0
15.01.2021	00:53:19	0	0	4,745497	3,507	57,4236	-0,635	78,045	0	1008	5,6	7,7	7,6	1	1	1	1	1	1	1	1	1	0	1	-69,203665	273,09545	246,181251	0
15.01.2021	00:53:20	0	0	2,598725	3,5565	51,4368	-0,63	78,044	0	1008,06	5,5	7,7	7,6	1	1	1	1	1	1	1	1	1	0	1	-67,723749	273,010657	247,269655	0
15.01.2021	00:53:21	0	0	2,485736	3,60375	55,1844	-0,634	78,024	0	1007,84	5,6	7,7	7,6	1	1	1	1	1	1	1	1	1	0	1	-66,948555	272,940282	247,720185	0
15.01.2021	00:53:22	0	0	4,180557	3,5925	57,4344	-0,638	78,008	0	1008,1	5,5	7,7	7,6	1	1	1	1	1	1	1	1	1	0	1	-68,921776	272,965587	245,863677	0
15.01.2021	00:53:23	0	0	4,971473	3,4005	51,4296	-0,632	78,028	0	1008,08	5,6	7,7	7,6	1	1	1	1	1	1	1	1	1	0	1	-77,026075	273,048768	238,14325	0
15.01.2021	00:53:24	0	0	3,050677	3,22125	63,522	-0,633	78,015	0	1008,04	5,6	7,8	7,6	1	1	1	1	1	1	1	1	1	0	1	-67,935166	272,944497	246,753014	0
15.01.2021	00:53:25	0	0	2,937689	3,06525	56,2752	-0,638	78,01	0	1007,82	5,5	7,8	7,6	1	1	1	1	1	1	1	1	1	0	1	-67,864693	273,05866	247,35031	0
15.01.2021	00:53:26	0	0	2,485736	2,92575	49,9428	-0,634	77,996	0	1008,14	5,5	7,7	7,6	1	1	1	1	1	1	1	1	1	0	1	-76,180409	272,945902	238,514252	0
15.01.2021	00:53:27	0	0	5,084461	2,88825	51,0696	-0,636	78,007	0	1008,08	5,5	7,7	7,6	1	1	1	1	1	1	1	1	1	0	1	-66,666667	273,091201	248,698623	0
15.01.2021	00:53:28	0	0	2,824701	2,82825	46,9908	-0,63	77,997	0	1008,08	5,5	7,7	7,6	1	1	1	1	1	1	1	1	1	0	1	-67,159972	272,926238	247,444009	0
15.01.2021	00:53:29	0	0	4,632509	2,87025	49,5828	-0,631	77,977	0	1008,08	5,5	7,7	7,6	1	1	1	1	1	1	1	1	1	0	1	-65,257223	273,05018	249,918625	0
15.01.2021	00:53:30	0	0	2,937689	2,81325	52,5132	-0,631	77,966	0	1008	5,5	7,7	7,6	1	1	1	1	1	1	1	1	1	0	1	-69,203665	272,957148	245,542864	0
15.01.2021	00:53:31	0	0	3,728605	2,71125	54,0936	-0,634	77,943	0	1008,08	5,5	7,7	7,6	1	1	1	1	1	1	1	1	1	0	1	-63,988724	272,995152	250,93313	0
15.01.2021	00:53:32	0	0	3,728605	2,75475	64,6092	-0,632	77,928	0	1008,24	5,5	7,7	7,6	1	1	1	1	1	1	1	1	1	0	1	-70,119803	273,108201	245,32402	0
15.01.2021	00:53:33	0	0	4,067569	2,8725	57,402	-0,628	77,923	0	1008,16	5,5	7,7	7,6	1	1	1	1	1	1	1	1	1	0	1	-75,052854	272,99938	239,888507	0
15.01.2021	00:53:34	0	0	3,163665	2,89275	52,5096	-0,627	77,907	0	1008,22	5,5	7,7	7,6	1	1	1	1	1	1	1	1	1	0	1	-66,384778	273,094034	248,993595	0
15.01.2021	00:53:35	0	0	3,728605	2,73825	69,2712	-0,628	77,92	0	1008,2	5,5	7,7	7,6	1	1	1	1	1	1	1	1	1	0	1	-64,693446	273,05442	250,501977	0
15.01.2021	00:53:36	0	0	3,615617	2,691	66,2328	-0,627	77,917	0	1008,1	5,5	7,7	7,6	1	1	1	1	1	1	1	1	1	0	1	-69,837914	273,123798	245,677972	0
15.01.2021	00:53:37	0	0	3,163646	2,73	62,4312	-0,628	77,892	0	1007,98	5,5	7,7	7,7	1	1	1	1	1	1	1	1	1	0	1	-70,190275	273,002198	244,764094	0
15.01.2021	00:53:38	0	0	3,841593	2,94975	67,2948	-0,625	77,904	0	1008,14	5,6	7,7	7,6	1	1	1	1	1	1	1	1	1	0	1	-67,019027	272,931854	247,61085	0
15.01.2021	00:53:39	0	0	4,180557	3,2025	61,3224	-0,631	77,899	0	1008,1	5,6	7,7	7,6	1	1	1	1	1	1	1	1	1	0	1	-72,938689	273,003608	242,022184	0
15.01.2021	00:53:40	0	0	4,632509	3,435	67,2876	-0,627	77,891	0	1008,16	5,5	7,8	7,6	1	1	1	1	1	1	1	1	1	0	1	-72,445384	272,937472	242,2104	0
15.01.2021	00:53:41	0	0	3,502629	3,47775	66,9204	-0,624	77,851	0	1008	5,5	7,7	7,6	1	1	1	1	1	1	1	1	1	0	1	-69,133192	273,017709	245,892758	0
15.01.2021	00:53:42	0	0	4,858485	3,357	91,17	-0,622	77,853	0	1008,12	5,6	7,7	7,6	1	1	1	1	1	1	1	1	1	0	1	-68,569415	272,931854	246,060463	0
15.01.2021	00:53:43	0	0	4,971503	3,01275	67,6728	-0,627	77,832	0	1008,04	5,5	7,8	7,5	1	1	1	1	1	1	1	1	1	0	1	-66,314306	272,992335	248,594547	0
15.01.2021	00:53:44	0	0	2,711713	2,7255	75,9816	-0,633	77,807	0	1008,12	5,6	7,7	7,6	1	1	1	1	1	1	1	1	1	0	1	-68,498943	272,936068	246,150364	0
15.01.2021	00:53:45	0	0	3,615617	2,57025	87,3756	-0,628	77,788	0	1008,1	5,5	7,7	7,6	1	1	1	1	1	1	1	1	1	0	1	-71,599718	272,968401	243,198715	0
15.01.2021	00:53:46	0	0	4,632509	2,3055	90,0612	-0,626	77,741	0	1007,98	5,5	7,7	7,6	1	1	1	1	1	1	1	1	1	0	1	-70,542636	272,965587	244,242818	0
15.01.2021	00:53:47	0	0	4,180532	2,06775	77,9904	-0,63	77,695	0	1008,02	5,5	7,8	7,7	1	1	1	1	1	1	1	1	1	0	1	-70,542636	272,936068	244,106671	0
15.01.2021	00:53:48	0	0	2,937671	1,88475	72,018	-0,625	77,676	0	1008,14	5,6	7,7	7,7	1	1	1	1	1	1	1	1	1	0	1	-69,908386	273,047355	245,254416	0
15.01.2021	00:53:49	0	0	2,824701	1,74375	79,4304	-0,636	77,627	0	1007,96	5,7	7,7	7,6	1	1	1	1	1	1	1	1	1	0	1	-72,093023	272,961367	242,672965	0
15.01.2021	00:53:50	0	0	4,406533	1,73025	54,1044	-0,63	77,605	0	1007,98	5,5	7,7	7,6	1	1	1	1	1	1	1	1	1	0	1	-69,344609	272,945902	245,350052	0
15.01.2021	00:53:51	0	0	5,197449	1,75575	55,1808	-0,627	77,574	0	1008,24	5,5	7,7	7,6	1	1	1	1	1	1	1	1	1	0	1	-65,821001	273,09545	249,563914	0
15.01.2021	00:53:52	0	0	4,180557	1,73175	65,8332	-0,627	77,578	0	1008,06	5,5	7,7	7,6	1	1	1	1	1	1	1	1	1	0	1	-73,220578	273,061488	242,007481	0
15.01.2021	00:53:53	0	0	3,502608	1,716	50,6736	-0,63	77,565	0	1008,16	5,5	7,7	7,7	1	1	1	1	1	1	1	1	1	0	1	-69,767442	273,102533	245,650194	0
15.01.2021	00:53:54	0	0	3,615617	1,71225	54,8136	-0,633	77,562	0	1008,1	5,5	7,7	7,6	1	1	1	1	1	1	1	1	1	0	1	-73,150106	273,041704	241,986609	0
15.01.2021	00:53:55	0	0	3,389641	1,839	35,8704	-0,629	77,558	0	1008,12	5,5	7,8	7,6	1	1	1	1	1	1	1	1	1	0	1	-66,666667	272,912204	247,872612	0
15.01.2021	00:53:56	0	0	5,084461	2,037	41,85	-0,631	77,547	0	1008,08	5,5	7,8	7,6	1	1	1	1	1	1	1	1	1	0	1	-73,220578	272,997971	241,71428	0
15.01.2021	00:53:57	0	0	2,937689	2,22075	47,7612	-0,631	77,538	0	1008,12	5,6	7,7	7,6	1	1	1	1	1	1	1	1	1	0	1	-68,780832	273,06573	246,466816	0
15.01.2021	00:53:58	0	0	4,406533	2,3835	49,2048	-0,635	77,539	0	1008,02	5,5	7,8	7,6	1	1	1	1	1	1	1	1	1	0	1	-73,502467	272,944497	241,185713	0
15.01.2021	00:53:59	0	0	5,197449	2,6085	63,8712	-0,636	77,521	0	1008,1	5,6	7,7	7,6	1	1	1	1	1	1	1	1	1	0	1	-67,019027	272,916413	247,539656	0
15.01.2021	00:54:00	0	0	2,824701	2,72175	58,5	-0,638	77,54	0	1008	5,5	7,8	7,6	1	1	1	1	1	1	1	1	1	0	1	-63,424947	272,910801	251,107864	0
15.01.2021	00:54:01	0	0	3,841593	2,7885	57,7296	-0,633	77,55	0	1008,28	5,5	7,7	7,6	1	1	1	1	1	1	1	1	1	0	1	-72,093023	272,986701	242,789833	0
15.01.2021	00:54:02	0	0	3,841593	2,7885	57,7296	-0,633	77,55	0	1008,28	5,5	7,7	7,6	1	1	1	1	1	1	1	1	1	0	1	-72,093023	272,986701	242,789833	0
15.01.2021	00:54:03	0	0	2,711713	2,72175	48,8232	-0,637	77,531	0	1007,94	5,6	7,7	7,6	1	1	1	1	1	1	1	1	1	0	1	-71,67019	272,931854	242,959687	0
15.01.2021	00:54:04	0	0	5,197449	2,69625	47,7504	-0,633	77,54	0	1008,12	5,6	7,8	7,6	1	1	1	1	1	1	1	1	1	0	1	-73,150106	273,02053	241,888867	0
15.01.2021	00:54:05	0	0	4,858485	2,709	60,9372	-0,64	77,55	0	1008	5,6	7,8	7,6	1	1	1	1	1	1	1	1	1	0	1	-69,415081	273,078461	245,891364	0
15.01.2021	00:54:06	0	0	3,954581	2,676	55,9188	-0,635	77,553	0	1008,14	5,6	7,8	7,6	1	1	1	1	1	1	1	1	1	0	1	-65,750529	272,936068	248,898778	0
15.01.2021	00:54:07	0	0	2,711713	2,63025	49,23	-0,636	77,551	0	1008,16	5,6	7,8	7,6	1	1	1	1	1	1	1	1	1	0	1	-69,485553	272,910801	245,047258	0
15.01.2021	00:54:08	0	0	4,971473	2,56275	48,5064	-0,639	77,557	0	1008,18	5,6	7,8	7,6	1	1	1	1	1	1	1	1	1	0	1	-69,837914	272,959961	244,921587	0
15.01.2021	00:54:09	0	0	4,519521	2,445	48,5064	-0,636	77,543	0	1008,1	5,6	7,8	7,6	1	1	1	1	1	1	1	1	1	0	1	-67,300916	273,089786	248,057833	0
15.01.2021	00:54:10	0	0	2,59874	2,61825	61,3116	-0,639	77,551	0	1008,06	5,6	7,7	7,5	1	1	1	1	1	1	1	1	1	0	1	-70,542636	272,924834	244,054872	0
15.01.2021	00:54:11	0	0	2,711696	2,75925	58,1112	-0,644	77,539	0	1008,1	5,6	7,7	7,7	1	1	1	1	1	1	1	1	1	0	1	-71,247357	273,014888	243,765573	0
15.01.2021	00:54:12	0	0	4,632537	2,86575	50,292	-0,639	77,553	0	1008,18	5,6	7,8	7,5	1	1	1	1	1	1	1	1	1	0	1	-65,961945	272,903789	248,538539	0
15.01.2021	00:54:13	0	0	2,259774	3,09975	59,1084	-0,635	77,559	0	1008,18	5,6	7,8	7,5	1	1	1	1	1	1	1	1	1	0	1	-70,472163	272,941687	244,203056	0
15.01.2021	00:54:14	0	0	3,276672	3,33375	63,8892	-0,637	77,566	0	1008,26	5,6	7,7	7,5	1	1	1	1	1	1	1	1	1	0	1	-69,485553	273,071387	245,788221	0
15.01.2021	00:54:15	0	0	5,084431	3,45675	50,8788	-0,645	77,556	0	1008,18	5,6	7,8	7,7	1	1	1	1	1	1	1	1	1	0	1	-70,260747	273,051594	244,921626	0
15.01.2021	00:54:16	0	0	4,519494	3,32475	54,4752	-0,639	77,569	0	1008,12	5,6	7,8	7,7	1	1	1	1	1	1	1	1	1	0	1	-67,019027	273,079877	248,293954	0
15.01.2021	00:54:17	0	0	3,728582	2,96925	56,2716	-0,635	77,562	0	1008,16	5,6	7,8	7,7	1	1	1	1	1	1	1	1	1	0	1	-69,908386	273,014888	245,104544	0
15.01.2021	00:54:18	0	0	2,485736	2,71425	55,9548	-0,64	77,571	0	1008,16	5,6	7,7	7,6	1	1	1	1	1	1	1	1	1	0	1	-68,569415	272,899582	245,91168	0
15.01.2021	00:54:19	0	0	2,711713	2,43375	66,5244	-0,644	77,572	0	1008,18	5,6	7,8	7,6	1	1	1	1	1	1	1	1	1	0	1	-67,300916	273,002198	247,653452	0
15.01.2021	00:54:20	0	0	2,485736	2,27475	53,3484	-0,637	77,577	0	1008,24	5,6	7,8	7,6	1	1	1	1	1	1	1	1	1	0	1	-66,314306	273,069973	248,952936	0
15.01.2021	00:54:21	0	0	5,423393	2,247	63,1656	-0,645	77,589	0	1008,18	5,6	7,8	7,7	1	1	1	1	1	1	1	1	1	0	1	-71,106413	272,955742	243,63363	0
15.01.2021	00:54:22	0	0	4,858514	2,33175	61,7004	-0,643	77,577	0	1007,96	5,6	7,8	7,5	1	1	1	1	1	1	1	1	1	0	1	-68,710359	272,893975	245,744891	0
15.01.2021	00:54:23	0	0	4,180582	2,2635	57,816	-0,641	77,578	0	1008,14	5,6	7,8	7,5	1	1	1	1	1	1	1	1	1	0	1	-72,445384	273,045942	242,710895	0
15.01.2021	00:54:24	0	0	4,406533	2,2665	60,9444	-0,642	77,573	0	1008,4	5,6	7,8	7,6	1	1	1	1	1	1	1	1	1	0	1	-69,978858	272,929046	244,63807	0
15.01.2021	00:54:25	0	0	4,632509	2,38575	75,5964	-0,641	77,574	0	1008,14	5,6	7,8	7,6	1	1	1	1	1	1	1	1	1	0	1	-69,69697	273,06573	245,550678	0
15.01.2021	00:54:26	0	0	3,163665	2,772	71,5824	-0,649	77,557	0	1008,04	5,6	7,8	7,6	1	1	1	1	1	1	1	1	1	0	1	-70,049331	272,917816	244,515822	0
15.01.2021	00:54:27	0	0	4,180557	2,92575	68,0976	-0,644	77,552	0	1008,12	5,6	7,8	7,6	1	1	1	1	1	1	1	1	1	0	1	-70,824524	272,929046	243,792404	0
15.01.2021	00:54:28	0	0	2,824718	3,0525	73,44	-0,643	77,545	0	1008,1	5,6	7,7	7,5	1	1	1	1	1	1	1	1	1	0	1	-69,69697	273,037468	245,420186	0
15.01.2021	00:54:29	0	0	4,632509	3,33975	68,4144	-0,643	77,553	0	1008,08	5,6	7,8	7,6	1	1	1	1	1	1	1	1	1	0	1	-73,220578	273,061488	242,007481	0
15.01.2021	00:54:30	0	0	2,824701	3,552	73,4184	-0,647	77,535	0	1008,24	5,6	7,8	7,6	1	1	1	1	1	1	1	1	1	0	1	-70,472163	272,958555	244,280851	0
15.01.2021	00:54:31	0	0	2,59874	3,72825	70,2432	-0,641	77,552	0	1008,18	5,6	7,7	7,5	1	1	1	1	1	1	1	1	1	0	1	-69,978858	272,896779	244,489314	0
15.01.2021	00:54:32	0	0	4,519521	3,69975	55,5552	-0,645	77,552	0	1008,1	5,6	7,8	7,6	1	1	1	1	1	1	1	1	1	0	1	-70,68358	272,900984	243,803978	0
15.01.2021	00:54:33	0	0	3,389641	3,5745	69,1704	-0,642	77,545	0	1008,02	5,6	7,8	7,6	1	1	1	1	1	1	1	1	1	0	1	-67,019027	273,010657	247,974377	0
15.01.2021	00:54:34	0	0	4,632537	3,36675	70,9416	-0,653	77,54	0	1008,08	5,6	7,8	7,5	1	1	1	1	1	1	1	1	1	0	1	-67,512333	272,884167	246,897713	0
15.01.2021	00:54:35	0	0	3,389641	3,32325	66,5352	-0,651	77,556	0	1008,1	5,6	7,8	7,6	1	1	1	1	1	1	1	1	1	0	1	-66,032417	272,971215	248,778998	0
15.01.2021	00:54:36	0	0	2,598725	3,2505	62,7948	-0,65	77,52	0	1008,12	5,6	7,8	7,6	1	1	1	1	1	1	1	1	1	0	1	-72,093023	272,882766	242,310567	0
15.01.2021	00:54:37	0	0	3,615617	3,20325	49,662	-0,65	77,53	0	1008,26	5,6	7,8	7,6	1	1	1	1	1	1	1	1	1	0	1	-71,317829	272,990926	243,584523	0
15.01.2021	00:54:38	0	0	4,180557	2,95275	81,2196	-0,648	77,539	0	1008,18	5,6	7,8	7,6	1	1	1	1	1	1	1	1	1	0	1	-70,472163	273,053007	244,716734	0
15.01.2021	00:54:39	0	0	4,745497	2,778	59,4792	-0,656	77,514	0	1008,02	5,6	7,8	7,6	1	1	1	1	1	1	1	1	1	0	1	-70,824524	273,002198	244,129844	0
15.01.2021	00:54:40	0	0	3,050677	2,56875	67,2876	-0,647	77,528	0	1008,2	5,6	7,8	7,6	1	1	1	1	1	1	1	1	1	0	1	-72,30444	273,03888	242,819235	0
15.01.2021	00:54:41	0	0	4,971473	2,397	70,2252	-0,653	77,505	0	1008,1	5,6	7,7	7,6	1	1	1	1	1	1	1	1	1	0	1	-67,300916	272,878565	247,08331	0
15.01.2021	00:54:42	0	0	5,197449	2,382	57,3984	-0,656	77,496	0	1007,98	5,4	7,8	7,6	1	1	1	1	1	1	1	1	1	0	1	-66,314306	272,957148	248,432222	0
15.01.2021	00:54:43	0	0	4,745497	2,427	57,7332	-0,655	77,519	0	1008,04	5,6	7,8	7,6	1	1	1	1	1	1	1	1	1	0	1	-72,445384	272,878565	241,938842	0
15.01.2021	00:54:44	0	0	4,632481	2,514	65,0664	-0,65	77,516	0	1008,14	5,6	7,8	7,7	1	1	1	1	1	1	1	1	1	0	1	-76,250881	272,926238	238,3531	0
15.01.2021	00:54:45	0	0	3,050677	2,664	63,1872	-0,656	77,485	0	1008,08	5,6	7,8	7,6	1	1	1	1	1	1	1	1	1	0	1	-70,331219	272,874364	244,033649	0
15.01.2021	00:54:46	0	0	5,310437	2,64975	58,5036	-0,657	77,486	0	1008	5,6	7,8	7,6	1	1	1	1	1	1	1	1	1	0	1	-70,331219	272,957148	244,415309	0
15.01.2021	00:54:47	0	0	2,598725	2,61525	58,4784	-0,655	77,484	0	1008,04	5,6	7,7	7,6	1	1	1	1	1	1	1	1	1	0	1	-70,754052	273,062902	244,480536	0
15.01.2021	00:54:48	0	0	2,372748	2,39925	44,0352	-0,661	77,487	0	1007,94	5,6	7,8	7,6	1	1	1	1	1	1	1	1	1	0	1	-79,844961	272,893975	234,61029	0
15.01.2021	00:54:49	0	0	2,485736	2,41575	51,5304	-0,664	77,491	0	1008,02	5,4	7,8	7,6	1	1	1	1	1	1	1	1	1	0	1	-71,881607	273,040292	243,248588	0
15.01.2021	00:54:50	0	0	2,937689	2,6175	61,686	-0,662	77,486	0	1008,16	5,4	7,8	7,6	1	1	1	1	1	1	1	1	1	0	1	-67,159972	272,909398	247,366373	0
15.01.2021	00:54:51	0	0	4,971473	2,5275	70,8588	-0,654	77,485	0	1007,9	5,6	7,8	7,6	1	1	1	1	1	1	1	1	1	0	1	-71,317829	273,028997	243,760225	0
15.01.2021	00:54:52	0	0	2,598725	2,36625	65,0448	-0,659	77,483	0	1007,98	5,4	7,8	7,6	1	1	1	1	1	1	1	1	1	0	1	-72,233968	272,917816	242,331185	0
15.01.2021	00:54:53	0	0	4,632509	2,25225	78,2748	-0,663	77,494	0	1008,1	5,4	7,8	7,6	1	1	1	1	1	1	1	1	1	0	1	-65,045807	272,92343	249,545229	0
15.01.2021	00:54:54	0	0	5,310437	2,14425	68,0112	-0,66	77,495	0	1008,38	5,6	7,8	7,6	1	1	1	1	1	1	1	1	1	0	1	-64,975335	272,863167	249,337936	0
15.01.2021	00:54:55	0	0	4,406533	2,18475	76,014	-0,661	77,507	0	1008,2	5,4	7,7	7,6	1	1	1	1	1	1	1	1	1	0	1	-70,260747	272,972622	244,55716	0
15.01.2021	00:54:56	0	0	2,824701	2,2275	38,8008	-0,658	77,515	0	1008,24	5,6	7,8	7,6	1	1	1	1	1	1	1	1	1	0	1	-66,384778	272,861767	247,922046	0
15.01.2021	00:54:57	0	0	2,711713	2,1975	75,6252	-0,655	77,515	0	1008,16	5,4	7,8	7,6	1	1	1	1	1	1	1	1	1	0	1	-72,30444	272,93045	242,318963	0
15.01.2021	00:54:58	0	0	3,954581	2,09625	56,2788	-0,661	77,508	0	1008,06	5,4	7,7	7,6	1	1	1	1	1	1	1	1	1	0	1	-66,314306	273,028997	248,763748	0
15.01.2021	00:54:59	0	0	3,502629	2,1255	75,2256	-0,665	77,498	0	1008,1	5,5	7,8	7,6	1	1	1	1	1	1	1	1	1	0	1	-65,961945	272,878565	248,422281	0
15.01.2021	00:55:00	0	0	4,293545	2,46675	88,9596	-0,662	77,507	0	1008,12	5,4	7,7	7,6	1	1	1	1	1	1	1	1	1	0	1	-68,992248	272,882766	245,411342	0
15.01.2021	00:55:01	0	0	4,745497	2,4315	53,7624	-0,664	77,519	0	1008,1	5,5	7,7	7,6	1	1	1	1	1	1	1	1	1	0	1	-74,630021	272,981068	240,226849	0
15.01.2021	00:55:02	0	0	4,745497	2,4315	53,7624	-0,664	77,519	0	1008,1	5,5	7,7	7,6	1	1	1	1	1	1	1	1	1	0	1	-74,630021	272,981068	240,226849	0
15.01.2021	00:55:03	0	0	2,824701	2,316	44,0496	-0,665	77,509	0	1007,92	5,4	7,7	7,6	1	1	1	1	1	1	1	1	1	0	1	-66,525722	272,874364	247,839146	0
15.01.2021	00:55:04	0	0	4,406533	2,3655	44,7876	-0,661	77,522	0	1008,24	5,5	7,8	7,6	1	1	1	1	1	1	1	1	1	0	1	-65,680056	272,969808	249,124867	0
15.01.2021	00:55:05	0	0	4,745497	2,457	44,0604	-0,667	77,526	0	1008,1	5,4	7,7	7,6	1	1	1	1	1	1	1	1	1	0	1	-72,30444	272,850577	241,950828	0
15.01.2021	00:55:06	0	0	2,937689	2,57925	38,1708	-0,671	77,521	0	1008,16	5,5	7,7	7,6	1	1	1	1	1	1	1	1	1	0	1	-66,314306	272,870164	248,031209	0
15.01.2021	00:55:07	0	0	4,519521	2,91075	37,3068	-0,667	77,534	0	1007,72	5,5	7,7	7,6	1	1	1	1	1	1	1	1	1	0	1	-69,06272	272,850577	245,192548	0
15.01.2021	00:55:08	0	0	2,711713	3,52125	35,496	-0,665	77,555	0	1007,98	5,6	7,8	7,6	1	1	1	1	1	1	1	1	1	0	1	-69,837914	272,916413	244,720769	0
15.01.2021	00:55:09	0	0	4,745497	3,7875	45,5472	-0,663	77,575	0	1008,16	5,5	7,7	7,6	1	1	1	1	1	1	1	1	1	0	1	-69,485553	272,961367	245,280435	0
15.01.2021	00:55:10	0	0	4,971473	3,8265	47,376	-0,668	77,596	0	1008,1	5,5	7,8	7,6	1	1	1	1	1	1	1	1	1	0	1	-67,0895	272,854773	247,185097	0
15.01.2021	00:55:11	0	0	4,971473	3,99525	50,3244	-0,668	77,631	0	1008,1	5,4	7,7	7,6	1	1	1	1	1	1	1	1	1	0	1	-69,767442	272,886969	244,655517	0
15.01.2021	00:55:12	0	0	3,050677	3,9195	45,5436	-0,667	77,709	0	1008,14	5,5	7,7	7,6	1	1	1	1	1	1	1	1	1	0	1	-69,415081	272,853374	244,853072	0
15.01.2021	00:55:13	0	0	3,954581	3,7515	32,5188	-0,668	77,671	0	1008,18	5,5	7,7	7,6	1	1	1	1	1	1	1	1	1	0	1	-67,935166	272,96418	246,843799	0
15.01.2021	00:55:14	0	0	2,824701	3,9105	27,9756	-0,67	77,694	0	1008,06	5,5	7,7	7,6	1	1	1	1	1	1	1	1	1	0	1	-68,005638	273,017709	247,020313	0
15.01.2021	00:55:15	0	0	2,824701	3,579	36,9432	-0,676	77,686	0	1008,06	5,5	7,7	7,6	1	1	1	1	1	1	1	1	1	0	1	-65,257223	272,950119	249,456883	0
15.01.2021	00:55:16	0	0	2,711713	3,13275	41,4756	-0,674	77,694	0	1008,04	5,5	7,7	7,6	1	1	1	1	1	1	1	1	1	0	1	-69,203665	273,01912	245,828797	0
15.01.2021	00:55:17	0	0	2,824701	3,036	47,376	-0,672	77,709	0	1008,06	5,5	7,8	7,6	1	1	1	1	1	1	1	1	1	0	1	-70,542636	272,902386	243,951385	0
15.01.2021	00:55:18	0	0	5,197449	3,28575	52,884	-0,671	77,736	0	1008,18	5,5	7,7	7,6	1	1	1	1	1	1	1	1	1	0	1	-67,935166	273,026174	247,129859	0
15.01.2021	00:55:19	0	0	4,632509	3,59625	62,4348	-0,666	77,758	0	1008,12	5,4	7,7	7,6	1	1	1	1	1	1	1	1	1	0	1	-64,552502	272,971215	250,258913	0
15.01.2021	00:55:20	0	0	2,711713	4,008	49,9536	-0,673	77,78	0	1008,1	5,5	7,7	7,6	1	1	1	1	1	1	1	1	1	0	1	-64,975335	273,014888	250,037595	0
15.01.2021	00:55:21	0	0	4,519521	4,3725	46,6056	-0,671	77,812	0	1008,18	5,5	7,7	7,6	1	1	1	1	1	1	1	1	1	0	1	-70,401691	272,893975	244,05356	0
15.01.2021	00:55:22	0	0	4,745497	4,38675	44,0568	-0,671	77,851	0	1008,02	5,4	7,7	7,6	1	1	1	1	1	1	1	1	1	0	1	-68,146582	272,837996	246,050729	0
15.01.2021	00:55:23	0	0	2,824701	3,75525	45,8532	-0,666	77,897	0	1008,12	5,5	7,7	7,6	1	1	1	1	1	1	1	1	1	0	1	-71,458774	272,969808	243,34615	0
15.01.2021	00:55:24	0	0	3,163665	3,6555	59,1192	-0,668	77,92	0	1008,14	5,5	7,7	7,6	1	1	1	1	1	1	1	1	1	0	1	-66,384778	272,871564	247,967187	0
15.01.2021	00:55:25	0	0	2,598725	3,798	57,8124	-0,667	77,956	0	1007,98	5,5	7,7	7,6	1	1	1	1	1	1	1	1	1	0	1	-70,894996	272,922027	243,689567	0
15.01.2021	00:55:26	0	0	4,067569	3,774	75,2364	-0,671	77,978	0	1008,12	5,5	7,7	7,6	1	1	1	1	1	1	1	1	1	0	1	-72,868217	273,012067	242,131695	0
15.01.2021	00:55:27	0	0	3,163665	3,69225	71,6148	-0,668	77,998	0	1008,08	5,5	7,7	7,6	1	1	1	1	1	1	1	1	1	0	1	-68,498943	273,012067	246,50097	0
15.01.2021	00:55:28	0	0	4,632509	3,75975	68,3784	-0,671	78,008	0	1008,08	5,5	7,7	7,6	1	1	1	1	1	1	1	1	1	0	1	-68,428471	272,945902	246,26619	0
15.01.2021	00:55:29	0	0	4,406533	3,80025	74,1744	-0,662	78,032	0	1008,14	5,5	7,7	7,6	1	1	1	1	1	1	1	1	1	0	1	-73,009161	272,858969	241,28477	0
15.01.2021	00:55:30	0	0	4,067569	3,72075	80,1576	-0,667	78,053	0	1008,08	5,5	7,7	7,6	1	1	1	1	1	1	1	1	1	0	1	-76,744186	272,927642	237,866268	0
15.01.2021	00:55:31	0	0	4,971473	3,6315	69,4512	-0,671	78,061	0	1008,04	5,5	7,7	7,6	1	1	1	1	1	1	1	1	1	0	1	-74,207188	272,846383	240,028756	0
15.01.2021	00:55:32	0	0	4,406533	3,38775	87,3576	-0,662	78,069	0	1008,06	5,5	7,7	7,6	1	1	1	1	1	1	1	1	1	0	1	-67,0895	272,938877	247,572762	0
15.01.2021	00:55:33	0	0	2,146772	3,15975	94,7808	-0,663	78,086	0	1008,12	5,5	7,7	7,6	1	1	1	1	1	1	1	1	1	0	1	-70,542636	272,850577	243,712632	0
15.01.2021	00:55:34	0	0	3,502629	3,1395	78,6636	-0,669	78,09	0	1008,12	5,5	7,7	7,6	1	1	1	1	1	1	1	1	1	0	1	-72,515856	272,900984	241,971701	0
15.01.2021	00:55:35	0	0	2,033784	3,1485	68,112	-0,659	78,1	0	1007,98	5,5	7,7	7,6	1	1	1	1	1	1	1	1	1	0	1	-70,824524	272,867365	243,508091	0
15.01.2021	00:55:36	0	0	3,389641	3,225	94,104	-0,666	78,071	0	1008,1	5,5	7,7	7,6	1	1	1	1	1	1	1	1	1	0	1	-68,921776	272,860368	245,378601	0
15.01.2021	00:55:37	0	0	4,406533	2,98425	65,0772	-0,667	78,095	0	1008,12	5,4	7,7	7,6	1	1	1	1	1	1	1	1	1	0	1	-68,780832	272,916413	245,777851	0
15.01.2021	00:55:38	0	0	4,745497	2,769	69,156	-0,661	78,098	0	1008,12	5,5	7,7	7,6	1	1	1	1	1	1	1	1	1	0	1	-74,489077	272,851976	239,772634	0
15.01.2021	00:55:39	0	0	3,841593	2,79675	88,1388	-0,664	78,107	0	1008,04	5,5	7,7	7,6	1	1	1	1	1	1	1	1	1	0	1	-72,656801	272,948713	242,050823	0
15.01.2021	00:55:40	0	0	4,519521	2,54625	70,8804	-0,661	78,092	0	1008,12	5,5	7,7	7,6	1	1	1	1	1	1	1	1	1	0	1	-72,093023	273,030409	242,991546	0
15.01.2021	00:55:41	0	0	4,745497	2,28225	41,8572	-0,657	78,085	0	1008,14	5,4	7,7	7,6	1	1	1	1	1	1	1	1	1	0	1	-67,44186	272,982476	247,421505	0
15.01.2021	00:55:42	0	0	3,163665	2,37075	62,4168	-0,657	78,081	0	1008,2	5,5	7,7	7,6	1	1	1	1	1	1	1	1	1	0	1	-67,935166	272,871564	246,4168	0
15.01.2021	00:55:43	0	0	4,406533	2,75025	65,8692	-0,663	78,066	0	1008,18	5,5	7,7	7,6	1	1	1	1	1	1	1	1	1	0	1	-68,357999	273,033232	246,739604	0
15.01.2021	00:55:44	0	0	4,632509	3,00675	51,4332	-0,66	78,07	0	1008,1	5,5	7,7	7,6	1	1	1	1	1	1	1	1	1	0	1	-71,67019	272,917816	242,894962	0
15.01.2021	00:55:45	0	0	3,050677	3,27825	48,1356	-0,661	78,07	0	1008,24	5,5	7,7	7,6	1	1	1	1	1	1	1	1	1	0	1	-66,666667	272,861767	247,640157	0
15.01.2021	00:55:46	0	0	4,519521	3,3675	55,188	-0,657	78,063	0	1008,14	5,5	7,7	7,6	1	1	1	1	1	1	1	1	1	0	1	-72,30444	272,97403	242,519959	0
15.01.2021	00:55:47	0	0	2,598725	3,30375	48,1536	-0,657	78,063	0	1008,1	5,5	7,7	7,6	1	1	1	1	1	1	1	1	1	0	1	-67,935166	272,854773	246,339431	0
15.01.2021	00:55:48	0	0	3,163665	3,2685	65,8584	-0,662	78,051	0	1008,08	5,5	7,7	7,6	1	1	1	1	1	1	1	1	1	0	1	-72,797745	272,947308	241,903397	0
15.01.2021	00:55:49	0	0	3,615617	3,12075	63,4968	-0,657	78,063	0	1008,06	5,5	7,7	7,6	1	1	1	1	1	1	1	1	1	0	1	-71,599718	272,97966	243,250656	0
15.01.2021	00:55:50	0	0	2,711713	2,99775	67,2948	-0,656	78,065	0	1008,14	5,5	7,7	7,6	1	1	1	1	1	1	1	1	1	0	1	-70,260747	273,021941	244,784738	0
15.01.2021	00:55:51	0	0	5,197449	2,793	64,2348	-0,655	78,077	0	1008,14	5,5	7,7	7,6	1	1	1	1	1	1	1	1	1	0	1	-72,727273	272,92343	241,863763	0
15.01.2021	00:55:52	0	0	3,841593	2,58375	65,8332	-0,653	78,087	0	1008,1	5,5	7,7	7,6	1	1	1	1	1	1	1	1	1	0	1	-69,556025	272,864566	244,763693	0
15.01.2021	00:55:53	0	0	4,293545	2,5545	65,8476	-0,658	78,073	0	1008,1	5,5	7,7	7,6	1	1	1	1	1	1	1	1	1	0	1	-69,837914	272,995152	245,08394	0
15.01.2021	00:55:54	0	0	2,824701	2,79075	60,2496	-0,656	78,085	0	1008,24	5,5	7,7	7,6	1	1	1	1	1	1	1	1	1	0	1	-73,784355	273,009247	241,202542	0
15.01.2021	00:55:55	0	0	2,824701	2,9235	66,2364	-0,656	78,081	0	1008,14	5,5	7,7	7,6	1	1	1	1	1	1	1	1	1	0	1	-70,965469	272,885568	243,451033	0
15.01.2021	00:55:56	0	0	4,293545	2,87025	53,748	-0,653	78,087	0	1008,22	5,5	7,7	7,6	1	1	1	1	1	1	1	1	1	0	1	-71,599718	272,988109	243,289637	0
15.01.2021	00:55:57	0	0	2,824701	3,21825	52,8984	-0,654	78,091	0	1008,1	5,5	7,7	7,6	1	1	1	1	1	1	1	1	1	0	1	-71,599718	273,041704	243,536997	0
15.01.2021	00:55:58	0	0	2,937689	3,78	64,2312	-0,652	78,081	0	1008,18	5,5	7,7	7,6	1	1	1	1	1	1	1	1	1	0	1	-68,428471	272,97403	246,395928	0
15.01.2021	00:55:59	0	0	4,406533	4,131	67,3092	-0,65	78,081	0	1008,16	5,5	7,7	7,6	1	1	1	1	1	1	1	1	1	0	1	-69,767442	273,026174	245,297583	0
15.01.2021	00:56:00	0	0	2,711713	4,00275	70,8516	-0,649	78,048	0	1008,26	5,5	7,7	7,6	1	1	1	1	1	1	1	1	1	0	1	-64,83439	272,881366	249,562744	0
15.01.2021	00:56:01	0	0	5,197449	3,6825	66,2292	-0,647	78,036	0	1008,28	5,5	7,7	7,6	1	1	1	1	1	1	1	1	1	0	1	-65,539112	272,872964	248,819304	0
15.01.2021	00:56:02	0	0	5,197449	3,6825	66,2292	-0,647	78,036	0	1008,28	5,5	7,7	7,6	1	1	1	1	1	1	1	1	1	0	1	-65,539112	272,872964	248,819304	0
15.01.2021	00:56:03	0	0	4,293545	3,33	76,392	-0,647	78,008	0	1008,06	5,5	7,7	7,6	1	1	1	1	1	1	1	1	1	0	1	-70,894996	272,924834	243,702511	0
15.01.2021	00:56:04	0	0	3,276653	3,41025	74,9592	-0,651	77,992	0	1008,42	5,5	7,7	7,6	1	1	1	1	1	1	1	1	1	0	1	-69,837914	273,02053	245,201059	0
15.01.2021	00:56:05	0	0	2,485751	3,3795	81,198	-0,647	77,978	0	1008,08	5,5	7,7	7,5	1	1	1	1	1	1	1	1	1	0	1	-69,767442	272,96418	245,011522	0
15.01.2021	00:56:06	0	0	5,084461	3,21	48,4956	-0,646	77,962	0	1008,18	5,5	7,7	7,6	1	1	1	1	1	1	1	1	1	0	1	-70,331219	272,993743	244,584134	0
15.01.2021	00:56:07	0	0	2,711713	2,856	84,0348	-0,647	77,929	0	1008,04	5,5	7,7	7,6	1	1	1	1	1	1	1	1	1	0	1	-71,740662	273,055833	243,461287	0
15.01.2021	00:56:08	0	0	5,197449	2,76375	66,5136	-0,646	77,926	0	1008,22	5,5	7,7	7,6	1	1	1	1	1	1	1	1	1	0	1	-71,599718	272,982476	243,263647	0
15.01.2021	00:56:09	0	0	2,937689	2,7375	74,9124	-0,651	77,894	0	1008,14	5,5	7,7	7,6	1	1	1	1	1	1	1	1	1	0	1	-69,133192	273,03888	245,990483	0
15.01.2021	00:56:10	0	0	3,615617	2,832	64,2636	-0,65	77,884	0	1008,16	5,5	7,7	7,6	1	1	1	1	1	1	1	1	1	0	1	-69,908386	272,990926	244,993967	0
15.01.2021	00:56:11	0	0	3,050677	2,9445	73,7964	-0,647	77,858	0	1008,26	5,5	7,7	7,6	1	1	1	1	1	1	1	1	1	0	1	-68,146582	272,881366	246,250553	0
15.01.2021	00:56:12	0	0	5,197449	2,97825	71,2188	-0,647	77,84	0	1008,2	5,5	7,7	7,6	1	1	1	1	1	1	1	1	1	0	1	-74,559549	273,007837	240,420841	0
15.01.2021	00:56:13	0	0	2,598725	2,847	77,9652	-0,652	77,816	0	1008,12	5,5	7,7	7,6	1	1	1	1	1	1	1	1	1	0	1	-75,616631	273,012067	239,383281	0
15.01.2021	00:56:14	0	0	4,971473	2,6505	65,8404	-0,647	77,802	0	1008,12	5,5	7,7	7,6	1	1	1	1	1	1	1	1	1	0	1	-74,207188	272,865965	240,118979	0
15.01.2021	00:56:15	0	0	4,180557	2,517	56,6676	-0,648	77,778	0	1008,16	5,4	7,7	7,6	1	1	1	1	1	1	1	1	1	0	1	-76,391825	272,989517	238,504028	0
15.01.2021	00:56:16	0	0	5,084461	2,41875	48,1212	-0,643	77,761	0	1008,24	5,5	7,7	7,6	1	1	1	1	1	1	1	1	1	0	1	-66,807611	273,048768	248,361714	0
15.01.2021	00:56:17	0	0	4,745497	2,229	59,9436	-0,65	77,742	0	1008,16	5,5	7,7	7,6	1	1	1	1	1	1	1	1	1	0	1	-68,498943	272,975437	246,331949	0
15.01.2021	00:56:18	0	0	4,293545	2,31	74,5524	-0,649	77,725	0	1008,18	5,5	7,7	7,6	1	1	1	1	1	1	1	1	1	0	1	-74,982382	273,043117	240,160854	0
15.01.2021	00:56:19	0	0	5,084461	2,76975	80,5032	-0,648	77,734	0	1008,18	5,5	7,7	7,6	1	1	1	1	1	1	1	1	1	0	1	-70,260747	272,941687	244,414473	0
15.01.2021	00:56:20	0	0	5,197449	3,30075	49,5936	-0,645	77,698	0	1008,12	5,5	7,7	7,6	1	1	1	1	1	1	1	1	1	0	1	-71,740662	272,858969	242,553269	0
15.01.2021	00:56:21	0	0	3,728605	3,33975	46,6056	-0,646	77,682	0	1008,1	5,5	7,7	7,6	1	1	1	1	1	1	1	1	1	0	1	-68,357999	272,922027	246,226565	0
15.01.2021	00:56:22	0	0	4,858485	3,18225	73,0728	-0,646	77,679	0	1008,22	5,5	7,7	7,6	1	1	1	1	1	1	1	1	1	0	1	-72,515856	272,870164	241,829659	0
15.01.2021	00:56:23	0	0	4,067569	2,73525	71,9892	-0,651	77,66	0	1008,18	5,5	7,7	7,6	1	1	1	1	1	1	1	1	1	0	1	-71,67019	273,02053	243,368782	0
15.01.2021	00:56:24	0	0	4,180557	2,27325	54,108	-0,646	77,661	0	1008,04	5,5	7,7	7,6	1	1	1	1	1	1	1	1	1	0	1	-62,579281	272,900984	251,908276	0
15.01.2021	00:56:25	0	0	3,615617	1,9785	65,8584	-0,646	77,665	0	1008,12	5,5	7,7	7,6	1	1	1	1	1	1	1	1	1	0	1	-70,049331	273,044529	245,100427	0
15.01.2021	00:56:26	0	0	3,050677	1,89525	57,0312	-0,649	77,651	0	1008,28	5,5	7,7	7,6	1	1	1	1	1	1	1	1	1	0	1	-72,797745	272,968401	242,000688	0
15.01.2021	00:56:27	0	0	3,954605	1,93425	67,302	-0,652	77,633	0	1008,06	5,5	7,7	7,5	1	1	1	1	1	1	1	1	1	0	1	-69,837914	272,881366	244,559221	0
15.01.2021	00:56:28	0	0	4,745497	1,91475	64,62	-0,652	77,64	0	1008,14	5,5	7,7	7,6	1	1	1	1	1	1	1	1	1	0	1	-73,009161	273,005018	241,958217	0
15.01.2021	00:56:29	0	0	4,293545	1,79925	56,6532	-0,648	77,633	0	1008,22	5,5	7,7	7,6	1	1	1	1	1	1	1	1	1	0	1	-69,203665	272,896779	245,264507	0
15.01.2021	00:56:30	0	0	3,728605	2,049	55,548	-0,648	77,626	0	1007,94	5,5	7,7	7,6	1	1	1	1	1	1	1	1	1	0	1	-73,854827	273,034644	241,249292	0
15.01.2021	00:56:31	0	0	3,163665	2,4345	59,8788	-0,646	77,627	0	1008,08	5,5	7,7	7,6	1	1	1	1	1	1	1	1	1	0	1	-70,754052	272,929046	243,862876	0
15.01.2021	00:56:32	0	0	3,050677	2,74125	55,9368	-0,65	77,632	0	1008,16	5,5	7,7	7,6	1	1	1	1	1	1	1	1	1	0	1	-68,005638	272,867365	246,326978	0
15.01.2021	00:56:33	0	0	3,276653	2,9415	51,7572	-0,649	77,625	0	1008,18	5,5	7,7	7,6	1	1	1	1	1	1	1	1	1	0	1	-72,022551	272,892574	242,42624	0
15.01.2021	00:56:34	0	0	4,406533	2,9535	71,2368	-0,651	77,631	0	1008,2	5,5	7,7	7,6	1	1	1	1	1	1	1	1	1	0	1	-73,009161	272,877164	241,368612	0
15.01.2021	00:56:35	0	0	3,050677	2,748	54,5148	-0,653	77,628	0	1008,14	5,5	7,7	7,6	1	1	1	1	1	1	1	1	1	0	1	-70,613108	273,040292	244,517087	0
15.01.2021	00:56:36	0	0	3,954605	2,682	72,6804	-0,652	77,639	0	1008,02	5,5	7,7	7,5	1	1	1	1	1	1	1	1	1	0	1	-74,066244	272,929046	240,550684	0
15.01.2021	00:56:37	0	0	3,615638	2,54175	72,6912	-0,656	77,654	0	1008,16	5,5	7,7	7,5	1	1	1	1	1	1	1	1	1	0	1	-72,163495	272,858969	242,130436	0
15.01.2021	00:56:38	0	0	3,954581	2,688	64,2312	-0,648	77,663	0	1008,24	5,5	7,7	7,6	1	1	1	1	1	1	1	1	1	0	1	-69,415081	272,972622	245,402826	0
15.01.2021	00:56:39	0	0	3,163665	2,6685	82,6056	-0,648	77,674	0	1008,32	5,5	7,7	7,6	1	1	1	1	1	1	1	1	1	0	1	-68,287526	272,864566	246,032192	0
15.01.2021	00:56:40	0	0	3,502629	2,51025	80,1468	-0,65	77,675	0	1008,26	5,5	7,7	7,6	1	1	1	1	1	1	1	1	1	0	1	-69,485553	272,88837	244,943863	0
15.01.2021	00:56:41	0	0	3,389641	2,4555	91,512	-0,654	77,665	0	1008,2	5,5	7,7	7,6	1	1	1	1	1	1	1	1	1	0	1	-70,049331	272,975437	244,781562	0
15.01.2021	00:56:42	0	0	3,163684	2,57775	70,218	-0,655	77,684	0	1008,04	5,5	7,7	7,5	1	1	1	1	1	1	1	1	1	0	1	-67,512333	272,840791	246,697854	0
15.01.2021	00:56:43	0	0	4,293545	3,05175	70,6068	-0,652	77,692	0	1008,3	5,5	7,7	7,6	1	1	1	1	1	1	1	1	1	0	1	-70,119803	272,941687	244,555417	0
15.01.2021	00:56:44	0	0	3,502629	3,4395	73,0404	-0,66	77,7	0	1008,38	5,5	7,7	7,6	1	1	1	1	1	1	1	1	1	0	1	-68,780832	273,033232	246,316771	0
15.01.2021	00:56:45	0	0	3,841593	3,684	77,9688	-0,653	77,7	0	1008,26	5,5	7,7	7,6	1	1	1	1	1	1	1	1	1	0	1	-75,405215	273,016298	239,614225	0
15.01.2021	00:56:46	0	0	4,971503	3,69825	66,2112	-0,653	77,698	0	1007,98	5,5	7,7	7,5	1	1	1	1	1	1	1	1	1	0	1	-69,626498	272,972622	245,191409	0
15.01.2021	00:56:47	0	0	2,711713	3,46575	60,228	-0,658	77,699	0	1008,18	5,5	7,7	7,6	1	1	1	1	1	1	1	1	1	0	1	-73,150106	272,85757	241,13738	0
15.01.2021	00:56:48	0	0	3,163665	3,26775	66,924	-0,662	77,695	0	1008,02	5,5	7,7	7,6	1	1	1	1	1	1	1	1	1	0	1	-70,894996	272,968401	243,903436	0
15.01.2021	00:56:49	0	0	3,615617	3,20925	67,2984	-0,656	77,681	0	1008,3	5,5	7,7	7,6	1	1	1	1	1	1	1	1	1	0	1	-68,498943	273,033232	246,598659	0
15.01.2021	00:56:50	0	0	4,632537	3,21675	71,6148	-0,652	77,671	0	1008,18	5,5	7,7	7,5	1	1	1	1	1	1	1	1	1	0	1	-72,022551	272,997971	242,912307	0
15.01.2021	00:56:51	0	0	3,954581	3,06225	81,9612	-0,653	77,671	0	1008,18	5,5	7,7	7,6	1	1	1	1	1	1	1	1	1	0	1	-70,894996	272,920623	243,683096	0
15.01.2021	00:56:52	0	0	2,711729	2,98575	72,2952	-0,653	77,664	0	1008,16	5,5	7,7	7,5	1	1	1	1	1	1	1	1	1	0	1	-70,049331	273,034644	245,054789	0
15.01.2021	00:56:53	0	0	4,406533	3,14625	79,7724	-0,654	77,653	0	1008,2	5,5	7,7	7,6	1	1	1	1	1	1	1	1	1	0	1	-68,992248	273,009247	245,994649	0
15.01.2021	00:56:54	0	0	2,59874	3,438	62,046	-0,658	77,627	0	1007,94	5,5	7,7	7,5	1	1	1	1	1	1	1	1	1	0	1	-69,837914	272,989517	245,05794	0
15.01.2021	00:56:55	0	0	2,59874	3,44775	55,1916	-0,658	77,623	0	1008,12	5,5	7,7	7,5	1	1	1	1	1	1	1	1	1	0	1	-69,203665	272,854773	245,070932	0
15.01.2021	00:56:56	0	0	2,937706	3,5355	58,8924	-0,658	77,608	0	1008,2	5,5	7,7	7,5	1	1	1	1	1	1	1	1	1	0	1	-67,371388	272,954336	247,36217	0
15.01.2021	00:56:57	0	0	4,632509	3,56925	54,108	-0,658	77,606	0	1008,2	5,5	7,7	7,6	1	1	1	1	1	1	1	1	1	0	1	-72,093023	272,849179	242,155803	0
15.01.2021	00:56:58	0	0	3,841616	3,65475	52,8912	-0,658	77,617	0	1008,18	5,5	7,7	7,5	1	1	1	1	1	1	1	1	1	0	1	-67,300916	272,889771	247,134958	0
15.01.2021	00:56:59	0	0	2,937706	3,69375	61,3188	-0,659	77,621	0	1008,14	5,5	7,7	7,5	1	1	1	1	1	1	1	1	1	0	1	-74,418605	273,009247	240,568292	0
15.01.2021	00:57:00	0	0	2,937706	3,0585	52,9092	-0,657	77,639	0	1008,1	5,5	7,7	7,5	1	1	1	1	1	1	1	1	1	0	1	-69,415081	272,877164	244,962692	0
15.01.2021	00:57:01	0	0	2,937706	2,796	57,0528	-0,663	77,663	0	1008,18	5,5	7,7	7,5	1	1	1	1	1	1	1	1	1	0	1	-72,233968	272,884167	242,176078	0
15.01.2021	00:57:02	0	0	2,937706	2,796	57,0528	-0,663	77,663	0	1008,18	5,5	7,7	7,5	1	1	1	1	1	1	1	1	1	0	1	-72,233968	272,884167	242,176078	0
15.01.2021	00:57:03	0	0	4,519548	2,69925	59,1156	-0,657	77,678	0	1008,02	5,5	7,7	7,5	1	1	1	1	1	1	1	1	1	0	1	-70,824524	272,910801	243,708287	0
15.01.2021	00:57:04	0	0	2,824701	2,64525	66,9168	-0,656	77,689	0	1008,16	5,5	7,7	7,6	1	1	1	1	1	1	1	1	1	0	1	-74,27766	273,03182	240,813425	0
15.01.2021	00:57:05	0	0	4,067569	2,66325	64,2276	-0,66	77,689	0	1008,1	5,5	7,7	7,6	1	1	1	1	1	1	1	1	1	0	1	-69,485553	272,992335	245,4233	0
15.01.2021	00:57:06	0	0	3,841593	2,65425	54,126	-0,657	77,677	0	1008,02	5,5	7,7	7,6	1	1	1	1	1	1	1	1	1	0	1	-72,515856	273,047355	242,646945	0
15.01.2021	00:57:07	0	0	2,824718	2,6805	51,0624	-0,661	77,665	0	1008,08	5,5	7,7	7,5	1	1	1	1	1	1	1	1	1	0	1	-68,146582	272,892574	246,302209	0
15.01.2021	00:57:08	0	0	3,050695	2,727	53,352	-0,666	77,669	0	1008,16	5,5	7,7	7,5	1	1	1	1	1	1	1	1	1	0	1	-74,91191	272,983884	239,957952	0
15.01.2021	00:57:09	0	0	4,745554	2,694	46,2564	-0,661	77,651	0	1008	5,5	7,7	7,4	1	1	1	1	1	1	1	1	1	0	1	-70,260747	273,034644	244,843373	0
15.01.2021	00:57:10	0	0	4,406559	2,61375	47,754	-0,657	77,667	0	1008,1	5,5	7,7	7,5	1	1	1	1	1	1	1	1	1	0	1	-68,710359	272,943092	245,97134	0
15.01.2021	00:57:11	0	0	4,067569	2,55075	62,7948	-0,657	77,649	0	1008,14	5,5	7,7	7,6	1	1	1	1	1	1	1	1	1	0	1	-73,431994	273,034644	241,672125	0
15.01.2021	00:57:12	0	0	4,519521	2,44125	54,504	-0,658	77,649	0	1008,22	5,5	7,7	7,6	1	1	1	1	1	1	1	1	1	0	1	-71,106413	272,976845	243,730973	0
15.01.2021	00:57:13	0	0	4,745525	2,3385	62,8056	-0,659	77,627	0	1008,22	5,5	7,7	7,5	1	1	1	1	1	1	1	1	1	0	1	-71,035941	272,867365	243,296675	0
15.01.2021	00:57:14	0	0	3,050695	2,22	53,352	-0,66	77,629	0	1008,16	5,5	7,7	7,5	1	1	1	1	1	1	1	1	1	0	1	-72,797745	272,871564	241,55422	0
15.01.2021	00:57:15	0	0	4,293571	2,45775	62,5176	-0,664	77,627	0	1008,2	5,5	7,7	7,5	1	1	1	1	1	1	1	1	1	0	1	-71,740662	272,882766	242,662927	0
15.01.2021	00:57:16	0	0	4,632537	2,6925	70,2324	-0,671	77,61	0	1008	5,5	7,7	7,5	1	1	1	1	1	1	1	1	1	0	1	-70,894996	272,871564	243,456969	0
15.01.2021	00:57:17	0	0	5,084492	2,952	77,5728	-0,664	77,587	0	1008,18	5,5	7,7	7,5	1	1	1	1	1	1	1	1	1	0	1	-71,458774	272,916413	243,099909	0
15.01.2021	00:57:18	0	0	2,824701	2,9265	66,9168	-0,663	77,605	0	1008,06	5,5	7,7	7,6	1	1	1	1	1	1	1	1	1	0	1	-70,754052	272,872964	243,604364	0
15.01.2021	00:57:19	0	0	2,59874	2,88975	59,49	-0,669	77,59	0	1008,22	5,5	7,7	7,5	1	1	1	1	1	1	1	1	1	0	1	-74,066244	272,893975	240,389007	0
15.01.2021	00:57:20	0	0	3,728627	2,835	63,1872	-0,665	77,579	0	1008,08	5,5	7,7	7,5	1	1	1	1	1	1	1	1	1	0	1	-70,472163	273,03182	244,618922	0
15.01.2021	00:57:21	0	0	3,163684	2,90325	70,6068	-0,663	77,582	0	1008,16	5,5	7,7	7,5	1	1	1	1	1	1	1	1	1	0	1	-73,9253	272,976845	240,912086	0
15.01.2021	00:57:22	0	0	4,745525	2,895	84,4452	-0,663	77,583	0	1008,18	5,5	7,7	7,5	1	1	1	1	1	1	1	1	1	0	1	-70,965469	273,027586	244,10607	0
15.01.2021	00:57:23	0	0	4,406533	2,847	65,0808	-0,671	77,565	0	1008,06	5,5	7,7	7,6	1	1	1	1	1	1	1	1	1	0	1	-68,07611	272,990926	246,826243	0
15.01.2021	00:57:24	0	0	3,389661	2,9115	59,8608	-0,669	77,586	0	1008,02	5,5	7,7	7,5	1	1	1	1	1	1	1	1	1	0	1	-71,952079	273,000789	242,995786	0
15.01.2021	00:57:25	0	0	4,745525	3,06	64,602	-0,671	77,586	0	1008,2	5,5	7,7	7,5	1	1	1	1	1	1	1	1	1	0	1	-71,317829	272,93045	243,305573	0
15.01.2021	00:57:26	0	0	4,180582	3,162	48,5064	-0,666	77,592	0	1008,16	5,5	7,7	7,5	1	1	1	1	1	1	1	1	1	0	1	-70,119803	273,021941	244,925682	0
15.01.2021	00:57:27	0	0	4,067593	2,97975	42,9084	-0,665	77,618	0	1008,12	5,5	7,6	7,5	1	1	1	1	1	1	1	1	1	0	1	-66,45525	272,905191	248,051698	0
15.01.2021	00:57:28	0	0	2,937706	2,52675	68,3856	-0,665	77,643	0	1007,98	5,5	7,7	7,5	1	1	1	1	1	1	1	1	1	0	1	-73,079634	272,870164	241,265881	0
15.01.2021	00:57:29	0	0	2,937706	2,29725	60,9336	-0,67	77,652	0	1008,14	5,5	7,7	7,5	1	1	1	1	1	1	1	1	1	0	1	-70,472163	272,93045	244,151239	0
15.01.2021	00:57:30	0	0	3,163684	2,1495	62,0316	-0,665	77,657	0	1008,16	5,5	7,7	7,5	1	1	1	1	1	1	1	1	1	0	1	-72,30444	272,85757	241,983046	0
15.01.2021	00:57:31	0	0	4,293571	1,9995	64,6164	-0,667	77,665	0	1008,12	5,5	7,7	7,5	1	1	1	1	1	1	1	1	1	0	1	-67,0895	273,006427	247,884384	0
15.01.2021	00:57:32	0	0	5,423458	1,8615	74,5344	-0,665	77,68	0	1008,12	5,5	7,7	7,5	1	1	1	1	1	1	1	1	1	0	1	-70,965469	273,023352	244,086529	0
15.01.2021	00:57:33	0	0	3,389661	1,77525	69,8292	-0,672	77,687	0	1008,16	5,5	7,6	7,5	1	1	1	1	1	1	1	1	1	0	1	-71,176885	272,881366	243,22025	0
15.01.2021	00:57:34	0	0	3,954605	1,863	76,0032	-0,666	77,662	0	1008,1	5,5	7,7	7,5	1	1	1	1	1	1	1	1	1	0	1	-66,525722	273,005018	248,441656	0
15.01.2021	00:57:35	0	0	4,971503	1,9155	72,3024	-0,666	77,679	0	1008,12	5,5	7,7	7,5	1	1	1	1	1	1	1	1	1	0	1	-72,586328	272,851976	241,675382	0
15.01.2021	00:57:36	0	0	2,485751	1,9425	80,154	-0,671	77,667	0	1008,14	5,5	7,7	7,5	1	1	1	1	1	1	1	1	1	0	1	-73,502467	272,951525	241,218123	0
15.01.2021	00:57:37	0	0	3,163684	1,88625	77,958	-0,666	77,656	0	1008	5,5	7,7	7,5	1	1	1	1	1	1	1	1	1	0	1	-70,824524	272,846383	243,411419	0
15.01.2021	00:57:38	0	0	4,745525	1,86375	71,2224	-0,666	77,637	0	1008,1	5,5	7,7	7,5	1	1	1	1	1	1	1	1	1	0	1	-68,780832	272,945902	245,913829	0
15.01.2021	00:57:39	0	0	3,050695	1,926	81,6048	-0,649	77,63	0	1008,2	5,5	7,7	7,5	1	1	1	1	1	1	1	1	1	0	1	-69,767442	272,854773	244,507155	0
15.01.2021	00:57:40	0	0	4,180582	2,0445	79,038	-0,663	77,624	0	1008,06	5,5	7,7	7,5	1	1	1	1	1	1	1	1	1	0	1	-70,68358	272,958555	244,069434	0
15.01.2021	00:57:41	0	0	4,632537	2,21625	66,9204	-0,669	77,601	0	1008,08	5,5	7,7	7,5	1	1	1	1	1	1	1	1	1	0	1	-70,68358	273,027586	244,387959	0
15.01.2021	00:57:42	0	0	4,971503	2,29875	76,464	-0,666	77,589	0	1008,04	5,5	7,7	7,5	1	1	1	1	1	1	1	1	1	0	1	-68,357999	273,036056	246,752639	0
15.01.2021	00:57:43	0	0	2,711729	2,4705	71,2476	-0,676	77,563	0	1008,14	5,5	7,7	7,5	1	1	1	1	1	1	1	1	1	0	1	-73,361522	272,882766	241,042068	0
15.01.2021	00:57:44	0	0	4,858514	2,5965	66,2076	-0,669	77,556	0	1008,06	5,5	7,7	7,5	1	1	1	1	1	1	1	1	1	0	1	-72,30444	273,003608	242,656433	0
15.01.2021	00:57:45	0	0	4,745525	2,709	71,5896	-0,675	77,542	0	1008,36	5,5	7,7	7,5	1	1	1	1	1	1	1	1	1	0	1	-69,133192	272,892574	245,315599	0
15.01.2021	00:57:46	0	0	2,711729	2,715	73,0584	-0,675	77,53	0	1008,28	5,5	7,7	7,5	1	1	1	1	1	1	1	1	1	0	1	-73,572939	272,856171	240,708103	0
15.01.2021	00:57:47	0	0	4,971503	2,7495	70,6176	-0,668	77,538	0	1008,18	5,5	7,7	7,5	1	1	1	1	1	1	1	1	1	0	1	-71,811135	272,909398	242,71521	0
15.01.2021	00:57:48	0	0	4,971503	2,862	61,6932	-0,675	77,533	0	1008,2	5,5	7,7	7,5	1	1	1	1	1	1	1	1	1	0	1	-70,754052	273,02053	244,284921	0
15.01.2021	00:57:49	0	0	3,163684	3,04125	66,9168	-0,67	77,552	0	1008,18	5,5	7,6	7,5	1	1	1	1	1	1	1	1	1	0	1	-73,079634	272,912204	241,459645	0
15.01.2021	00:57:50	0	0	4,971503	3,117	58,4712	-0,671	77,576	0	1008,22	5,5	7,7	7,5	1	1	1	1	1	1	1	1	1	0	1	-64,763918	272,846383	249,472025	0
15.01.2021	00:57:51	0	0	2,937706	3,07875	59,1012	-0,672	77,562	0	1008,16	5,5	7,7	7,5	1	1	1	1	1	1	1	1	1	0	1	-66,314306	272,874364	248,050562	0
15.01.2021	00:57:52	0	0	4,632537	3,07425	55,9296	-0,679	77,548	0	1008,08	5,4	7,7	7,5	1	1	1	1	1	1	1	1	1	0	1	-68,146582	272,920623	246,431511	0
15.01.2021	00:57:53	0	0	4,519548	3,04425	52,524	-0,675	77,566	0	1008,18	5,5	7,7	7,5	1	1	1	1	1	1	1	1	1	0	1	-68,851304	273,012067	246,148609	0
15.01.2021	00:57:54	0	0	3,276672	3,00225	80,1288	-0,676	77,536	0	1008,14	5,6	7,7	7,5	1	1	1	1	1	1	1	1	1	0	1	-74,982382	272,945902	239,712279	0
15.01.2021	00:57:55	0	0	4,632537	2,87925	74,9196	-0,673	77,524	0	1008,26	5,6	7,6	7,5	1	1	1	1	1	1	1	1	1	0	1	-68,992248	273,026174	246,072777	0
15.01.2021	00:57:56	0	0	2,937706	2,63775	61,308	-0,675	77,515	0	1008,1	5,5	7,7	7,5	1	1	1	1	1	1	1	1	1	0	1	-68,569415	272,978252	246,274465	0
15.01.2021	00:57:57	0	0	3,954605	2,48925	77,6052	-0,674	77,509	0	1008,1	5,5	7,7	7,5	1	1	1	1	1	1	1	1	1	0	1	-73,502467	273,026174	241,562558	0
15.01.2021	00:57:58	0	0	2,59874	2,4645	67,302	-0,672	77,516	0	1008,24	5,6	7,6	7,5	1	1	1	1	1	1	1	1	1	0	1	-69,978858	272,872964	244,379558	0
15.01.2021	00:57:59	0	0	4,971503	2,526	75,2364	-0,675	77,509	0	1008,36	5,5	7,7	7,5	1	1	1	1	1	1	1	1	1	0	1	-67,512333	272,882766	246,891257	0
15.01.2021	00:58:00	0	0	4,293571	2,52375	74,1816	-0,677	77,53	0	1008,28	5,5	7,7	7,5	1	1	1	1	1	1	1	1	1	0	1	-66,525722	273,021941	248,519762	0
15.01.2021	00:58:01	0	0	5,084492	2,514	73,4328	-0,673	77,55	0	1008,26	5,4	7,7	7,5	1	1	1	1	1	1	1	1	1	0	1	-65,821001	273,013478	249,18542	0
15.01.2021	00:58:02	0	0	5,084492	2,514	73,4328	-0,673	77,55	0	1008,26	5,4	7,7	7,5	1	1	1	1	1	1	1	1	1	0	1	-65,821001	273,013478	249,18542	0
15.01.2021	00:58:03	0	0	4,858514	2,46525	71,6148	-0,681	77,555	0	1008,3	5,5	7,7	7,5	1	1	1	1	1	1	1	1	1	0	1	-76,814658	272,907996	237,705221	0
15.01.2021	00:58:04	0	0	3,389661	2,41425	69,1524	-0,68	77,57	0	1008,22	5,4	7,8	7,5	1	1	1	1	1	1	1	1	1	0	1	-71,247357	272,836599	242,943517	0
15.01.2021	00:58:05	0	0	3,841616	2,33625	67,2948	-0,677	77,586	0	1008,22	5,5	7,7	7,5	1	1	1	1	1	1	1	1	1	0	1	-67,582805	272,995152	247,33905	0
15.01.2021	00:58:06	0	0	4,632537	2,418	71,9964	-0,679	77,587	0	1008,18	5,5	7,8	7,5	1	1	1	1	1	1	1	1	1	0	1	-69,626498	272,861767	244,680326	0
15.01.2021	00:58:07	0	0	5,649435	2,448	71,6076	-0,678	77,58	0	1008,2	5,5	7,7	7,5	1	1	1	1	1	1	1	1	1	0	1	-67,653277	272,851976	246,608433	0
15.01.2021	00:58:08	0	0	4,067593	2,463	72,3888	-0,68	77,598	0	1008,14	5,4	7,7	7,5	1	1	1	1	1	1	1	1	1	0	1	-71,035941	272,916413	243,522742	0
15.01.2021	00:58:09	0	0	5,310469	2,56725	67,2912	-0,679	77,602	0	1008,22	5,5	7,7	7,5	1	1	1	1	1	1	1	1	1	0	1	-71,952079	273,040292	243,178116	0
15.01.2021	00:58:10	0	0	2,824718	2,64375	59,4864	-0,684	77,6	0	1008,18	5,5	7,7	7,5	1	1	1	1	1	1	1	1	1	0	1	-69,908386	272,934663	244,734444	0
15.01.2021	00:58:11	0	0	4,632537	2,712	61,6968	-0,68	77,606	0	1008,14	5,4	7,7	7,5	1	1	1	1	1	1	1	1	1	0	1	-71,881607	272,851976	242,380104	0
15.01.2021	00:58:12	0	0	4,293571	2,637	57,1212	-0,679	77,587	0	1008,24	5,6	7,6	7,5	1	1	1	1	1	1	1	1	1	0	1	-69,203665	272,912204	245,335614	0
15.01.2021	00:58:13	0	0	3,50265	2,529	55,17	-0,684	77,597	0	1008,16	5,4	7,6	7,5	1	1	1	1	1	1	1	1	1	0	1	-70,894996	273,026174	244,170028	0
15.01.2021	00:58:14	0	0	4,180582	2,48925	46,2528	-0,682	77,588	0	1008,2	5,5	7,7	7,5	1	1	1	1	1	1	1	1	1	0	1	-73,150106	272,895377	241,311605	0
15.01.2021	00:58:15	0	0	3,502629	2,48775	71,2224	-0,684	77,577	0	1008,22	5,6	7,7	7,6	1	1	1	1	1	1	1	1	1	0	1	-72,093023	272,849179	242,155803	0
15.01.2021	00:58:16	0	0	5,19748	2,39175	60,9264	-0,683	77,58	0	1008,22	5,5	7,6	7,5	1	1	1	1	1	1	1	1	1	0	1	-70,049331	273,014888	244,9636	0
15.01.2021	00:58:17	0	0	2,711729	2,445	70,2108	-0,688	77,574	0	1008,12	5,4	7,7	7,5	1	1	1	1	1	1	1	1	1	0	1	-68,217054	272,861767	246,08977	0
15.01.2021	00:58:18	0	0	2,937706	2,57175	74,5452	-0,683	77,56	0	1008,08	5,5	7,6	7,5	1	1	1	1	1	1	1	1	1	0	1	-69,06272	273,033232	246,034882	0
15.01.2021	00:58:19	0	0	3,050695	2,5305	72,2916	-0,688	77,555	0	1008,22	5,5	7,7	7,5	1	1	1	1	1	1	1	1	1	0	1	-70,68358	272,968401	244,114853	0
15.01.2021	00:58:20	0	0	2,824718	2,46525	66,5388	-0,684	77,559	0	1008,32	5,5	7,7	7,5	1	1	1	1	1	1	1	1	1	0	1	-67,512333	272,997971	247,422526	0
15.01.2021	00:58:21	0	0	4,180582	2,41425	59,13	-0,691	77,548	0	1008,06	5,5	7,6	7,5	1	1	1	1	1	1	1	1	1	0	1	-70,542636	272,893975	243,912615	0
15.01.2021	00:58:22	0	0	3,50265	2,27175	54,0504	-0,687	77,544	0	1008,22	5,4	7,8	7,5	1	1	1	1	1	1	1	1	1	0	1	-66,737139	272,861767	247,569685	0
15.01.2021	00:58:23	0	0	3,276672	2,17725	52,9848	-0,687	77,535	0	1008,12	5,6	7,7	7,5	1	1	1	1	1	1	1	1	1	0	1	-68,498943	272,891173	245,943389	0
15.01.2021	00:58:24	0	0	4,971503	2,08425	54,7992	-0,695	77,544	0	1008,04	5,5	7,7	7,5	1	1	1	1	1	1	1	1	1	0	1	-72,022551	272,864566	242,297167	0
15.01.2021	00:58:25	0	0	4,293571	1,9755	55,926	-0,69	77,536	0	1008,04	5,4	7,8	7,5	1	1	1	1	1	1	1	1	1	0	1	-75,052854	273,013478	239,953567	0
15.01.2021	00:58:26	0	0	4,745525	1,896	65,5704	-0,689	77,539	0	1008,24	5,5	7,8	7,5	1	1	1	1	1	1	1	1	1	0	1	-71,247357	272,988109	243,641998	0
15.01.2021	00:58:27	0	0	4,745525	1,854	73,4184	-0,696	77,529	0	1008,22	5,4	7,8	7,5	1	1	1	1	1	1	1	1	1	0	1	-64,622974	272,990926	250,279379	0
15.01.2021	00:58:28	0	0	3,728627	1,8495	60,246	-0,691	77,521	0	1008,1	5,6	7,8	7,5	1	1	1	1	1	1	1	1	1	0	1	-73,431994	273,021941	241,61349	0
15.01.2021	00:58:29	0	0	3,276672	1,89825	64,2276	-0,692	77,507	0	1007,96	5,5	7,7	7,5	1	1	1	1	1	1	1	1	1	0	1	-71,176885	272,971215	243,63453	0
15.01.2021	00:58:30	0	0	3,163684	2,0085	62,7804	-0,698	77,496	0	1008,24	5,6	7,8	7,5	1	1	1	1	1	1	1	1	1	0	1	-69,626498	272,846383	244,609446	0
15.01.2021	00:58:31	0	0	2,937706	2,064	66,2256	-0,695	77,481	0	1008,26	5,6	7,7	7,5	1	1	1	1	1	1	1	1	1	0	1	-70,260747	272,959961	244,498754	0
15.01.2021	00:58:32	0	0	3,954605	1,995	69,4512	-0,694	77,475	0	1008,32	5,4	7,7	7,5	1	1	1	1	1	1	1	1	1	0	1	-70,965469	272,844985	243,264035	0
15.01.2021	00:58:33	0	0	4,632537	1,96725	71,9676	-0,695	77,47	0	1008,32	5,4	7,7	7,5	1	1	1	1	1	1	1	1	1	0	1	-68,851304	272,944497	245,836876	0
15.01.2021	00:58:34	0	0	3,728627	2,01375	65,4768	-0,699	77,459	0	1008,22	5,6	7,7	7,5	1	1	1	1	1	1	1	1	1	0	1	-72,022551	272,849179	242,226275	0
15.01.2021	00:58:35	0	0	3,389661	2,049	60,5448	-0,696	77,452	0	1008,1	5,4	7,7	7,5	1	1	1	1	1	1	1	1	1	0	1	-73,220578	272,95293	241,506496	0
15.01.2021	00:58:36	0	0	3,728605	2,1015	68,0328	-0,697	77,453	0	1008,26	5,5	7,6	7,6	1	1	1	1	1	1	1	1	1	0	1	-69,06272	273,010657	245,930684	0
15.01.2021	00:58:37	0	0	3,163684	2,1105	69,1704	-0,7	77,448	0	1008,22	5,5	7,7	7,5	1	1	1	1	1	1	1	1	1	0	1	-73,431994	272,941687	241,243225	0
15.01.2021	00:58:38	0	0	2,824718	2,0715	67,6692	-0,705	77,428	0	1008,18	5,4	7,7	7,5	1	1	1	1	1	1	1	1	1	0	1	-71,035941	273,017709	243,99001	0
15.01.2021	00:58:39	0	0	3,954605	2,19075	55,188	-0,706	77,439	0	1008,22	5,6	7,6	7,5	1	1	1	1	1	1	1	1	1	0	1	-70,894996	272,839394	243,308752	0
15.01.2021	00:58:40	0	0	2,824701	2,33025	62,0316	-0,693	77,422	0	1008,16	5,5	7,6	7,6	1	1	1	1	1	1	1	1	1	0	1	-70,754052	273,021941	244,291433	0
15.01.2021	00:58:41	0	0	2,937706	2,26425	63,5112	-0,701	77,427	0	1008,1	5,4	7,6	7,5	1	1	1	1	1	1	1	1	1	0	1	-71,529246	272,833804	242,648756	0
15.01.2021	00:58:42	0	0	2,485751	2,1015	57,4128	-0,698	77,416	0	1008,14	5,6	7,7	7,5	1	1	1	1	1	1	1	1	1	0	1	-73,009161	272,899582	241,471934	0
15.01.2021	00:58:43	0	0	4,745497	1,96425	62,4132	-0,701	77,401	0	1008,22	5,4	7,6	7,6	1	1	1	1	1	1	1	1	1	0	1	-67,0895	272,833804	247,088502	0
15.01.2021	00:58:44	0	0	4,293545	1,935	69,444	-0,7	77,404	0	1008,26	5,4	7,7	7,6	1	1	1	1	1	1	1	1	1	0	1	-71,811135	272,906593	242,702279	0
15.01.2021	00:58:45	0	0	3,728605	1,91925	54,09	-0,697	77,402	0	1008,12	5,6	7,7	7,6	1	1	1	1	1	1	1	1	1	0	1	-71,176885	272,847781	243,065499	0
15.01.2021	00:58:46	0	0	3,050695	2,12925	72,0036	-0,702	77,392	0	1008,14	5,4	7,6	7,5	1	1	1	1	1	1	1	1	1	0	1	-67,230444	272,920623	247,347649	0
15.01.2021	00:58:47	0	0	2,372763	2,37825	52,5096	-0,695	77,383	0	1008,18	5,4	7,7	7,5	1	1	1	1	1	1	1	1	1	0	1	-70,894996	272,835201	243,289441	0
15.01.2021	00:58:48	0	0	5,197449	2,5995	51,7644	-0,702	77,395	0	1008,22	5,4	7,6	7,6	1	1	1	1	1	1	1	1	1	0	1	-66,314306	272,889771	248,121568	0
15.01.2021	00:58:49	0	0	4,180557	2,81025	53,3448	-0,699	77,371	0	1008,24	5,6	7,6	7,6	1	1	1	1	1	1	1	1	1	0	1	-75,687104	272,97966	239,163271	0
15.01.2021	00:58:50	0	0	3,954605	2,9265	60,2244	-0,707	77,366	0	1008,1	5,4	7,7	7,5	1	1	1	1	1	1	1	1	1	0	1	-68,07611	273,014888	246,93682	0
15.01.2021	00:58:51	0	0	4,971503	3,04875	54,0972	-0,711	77,355	0	1008,2	5,4	7,7	7,5	1	1	1	1	1	1	1	1	1	0	1	-69,69697	272,95293	245,030104	0
15.01.2021	00:58:52	0	0	3,163684	3,26775	51,0408	-0,708	77,358	0	1008,24	5,4	7,7	7,5	1	1	1	1	1	1	1	1	1	0	1	-72,445384	272,824027	241,687584	0
15.01.2021	00:58:53	0	0	2,824701	3,591	52,524	-0,713	77,349	0	1008,26	5,4	7,7	7,6	1	1	1	1	1	1	1	1	1	0	1	-74,770965	272,934663	239,871864	0
15.01.2021	00:58:54	0	0	4,632509	3,55275	47,3616	-0,709	77,34	0	1008,3	5,4	7,6	7,6	1	1	1	1	1	1	1	1	1	0	1	-73,29105	273,010657	241,702354	0
15.01.2021	00:58:55	0	0	4,519548	3,53475	40,6296	-0,713	77,361	0	1008,22	5,4	7,7	7,5	1	1	1	1	1	1	1	1	1	0	1	-69,344609	272,892574	245,104182	0
15.01.2021	00:58:56	0	0	2,937689	3,23625	59,508	-0,715	77,333	0	1008,16	5,4	7,7	7,6	1	1	1	1	1	1	1	1	1	0	1	-69,978858	272,82263	244,147679	0
15.01.2021	00:58:57	0	0	2,937706	3,0465	57,0492	-0,715	77,333	0	1008,04	5,4	7,6	7,5	1	1	1	1	1	1	1	1	1	0	1	-69,767442	272,929046	244,849486	0
15.01.2021	00:58:58	0	0	2,59874	3,2295	56,2788	-0,717	77,32	0	1008,04	5,4	7,8	7,5	1	1	1	1	1	1	1	1	1	0	1	-74,770965	272,824027	239,362003	0
15.01.2021	00:58:59	0	0	4,406533	3,3465	52,2144	-0,716	77,323	0	1008,14	5,6	7,7	7,6	1	1	1	1	1	1	1	1	1	0	1	-66,384778	272,856171	247,896263	0
15.01.2021	00:59:00	0	0	3,276653	2,7735	66,5316	-0,723	77,342	0	1008,1	5,4	7,7	7,6	1	1	1	1	1	1	1	1	1	0	1	-69,133192	272,853374	245,134961	0
15.01.2021	00:59:01	0	0	3,276653	2,7735	66,5316	-0,723	77,342	0	1008,1	5,4	7,7	7,6	1	1	1	1	1	1	1	1	1	0	1	-69,133192	272,853374	245,134961	0
15.01.2021	00:59:02	0	0	4,745525	2,53275	68,4144	-0,718	77,358	0	1008,18	5,4	7,7	7,5	1	1	1	1	1	1	1	1	1	0	1	-71,811135	272,833804	242,366867	0
15.01.2021	00:59:03	0	0	3,954581	2,4735	80,892	-0,719	77,376	0	1008,1	5,4	7,7	7,6	1	1	1	1	1	1	1	1	1	0	1	-71,740662	272,961367	243,025326	0
15.01.2021	00:59:04	0	0	4,632509	2,34225	88,5888	-0,72	77,389	0	1008,2	5,4	7,7	7,6	1	1	1	1	1	1	1	1	1	0	1	-69,556025	272,934663	245,086804	0
15.01.2021	00:59:05	0	0	2,824718	2,5815	66,924	-0,725	77,408	0	1008,18	5,4	7,7	7,5	1	1	1	1	1	1	1	1	1	0	1	-70,824524	272,833804	243,353478	0
15.01.2021	00:59:06	0	0	4,519521	3,3135	76,8672	-0,724	77,424	0	1008,16	5,4	7,7	7,6	1	1	1	1	1	1	1	1	1	0	1	-67,159972	272,885568	247,25653	0
15.01.2021	00:59:07	0	0	3,050677	3,95325	60,2388	-0,722	77,431	0	1008,16	5,4	7,6	7,6	1	1	1	1	1	1	1	1	1	0	1	-66,596195	272,985292	248,280165	0
15.01.2021	00:59:08	0	0	2,937706	3,97425	72,684	-0,724	77,463	0	1008,08	5,4	7,6	7,5	1	1	1	1	1	1	1	1	1	0	1	-71,599718	272,926238	243,004263	0
15.01.2021	00:59:09	0	0	2,372748	3,435	58,122	-0,721	77,49	0	1008,24	5,4	7,7	7,6	1	1	1	1	1	1	1	1	1	0	1	-69,908386	272,986701	244,97447	0
15.01.2021	00:59:10	0	0	4,180557	2,87475	84,42	-0,724	77,485	0	1008,14	5,4	7,7	7,6	1	1	1	1	1	1	1	1	1	0	1	-67,794221	272,870164	246,551294	0
15.01.2021	00:59:11	0	0	3,163665	2,511	69,4476	-0,725	77,519	0	1008,18	5,4	7,7	7,6	1	1	1	1	1	1	1	1	1	0	1	-71,176885	272,976845	243,6605	0
15.01.2021	00:59:12	0	0	2,59874	2,3625	78,7032	-0,729	77,548	0	1008,1	5,4	7,7	7,5	1	1	1	1	1	1	1	1	1	0	1	-70,401691	272,854773	243,872906	0
15.01.2021	00:59:13	0	0	3,050677	2,38875	73,0584	-0,724	77,572	0	1008,24	5,4	7,7	7,6	1	1	1	1	1	1	1	1	1	0	1	-70,260747	272,955742	244,479296	0
15.01.2021	00:59:14	0	0	2,937706	2,4855	70,6068	-0,73	77,582	0	1008,02	5,4	7,7	7,5	1	1	1	1	1	1	1	1	1	0	1	-68,287526	272,825423	245,851874	0
15.01.2021	00:59:15	0	0	3,163665	2,8485	88,9416	-0,729	77,623	0	1008,2	5,4	7,7	7,6	1	1	1	1	1	1	1	1	1	0	1	-68,146582	272,88837	246,282834	0
15.01.2021	00:59:16	0	0	3,615638	2,8185	80,8848	-0,735	77,647	0	1008,14	5,4	7,7	7,5	1	1	1	1	1	1	1	1	1	0	1	-71,67019	272,959961	243,089311	0
15.01.2021	00:59:17	0	0	4,745497	2,86275	73,0404	-0,733	77,653	0	1008,02	5,4	7,7	7,6	1	1	1	1	1	1	1	1	1	0	1	-65,891473	272,828217	248,260792	0
15.01.2021	00:59:18	0	0	3,276653	2,79675	77,9544	-0,727	77,697	0	1008,18	5,4	7,7	7,6	1	1	1	1	1	1	1	1	1	0	1	-70,965469	272,976845	243,871917	0
15.01.2021	00:59:19	0	0	2,146772	2,75325	65,4588	-0,736	77,711	0	1008,24	5,4	7,7	7,6	1	1	1	1	1	1	1	1	1	0	1	-70,049331	272,922027	244,535233	0
15.01.2021	00:59:20	0	0	2,711729	2,748	67,6872	-0,73	77,739	0	1008,04	5,4	7,7	7,5	1	1	1	1	1	1	1	1	1	0	1	-66,032417	272,975437	248,798475	0
15.01.2021	00:59:21	0	0	3,502629	2,72775	69,8544	-0,731	77,745	0	1008,18	5,4	7,7	7,6	1	1	1	1	1	1	1	1	1	0	1	-67,300916	272,933259	247,335437	0
15.01.2021	00:59:22	0	0	2,937689	2,72625	60,678	-0,732	77,784	0	1008,22	5,4	7,7	7,6	1	1	1	1	1	1	1	1	1	0	1	-68,921776	272,993743	245,993577	0
15.01.2021	00:59:23	0	0	2,146785	2,72475	74,5452	-0,732	77,822	0	1008,1	5,4	7,7	7,5	1	1	1	1	1	1	1	1	1	0	1	-65,539112	272,91922	249,03251	0
15.01.2021	00:59:24	0	0	4,519521	2,73075	71,2224	-0,726	77,854	0	1008,12	5,4	7,7	7,6	1	1	1	1	1	1	1	1	1	0	1	-74,207188	272,986701	240,675668	0
15.01.2021	00:59:25	0	0	3,276653	2,88975	64,2384	-0,733	77,882	0	1008,1	5,4	7,7	7,6	1	1	1	1	1	1	1	1	1	0	1	-74,066244	272,922027	240,51832	0
15.01.2021	00:59:26	0	0	4,971473	3,20925	69,8436	-0,731	77,907	0	1008,06	5,4	7,7	7,6	1	1	1	1	1	1	1	1	1	0	1	-72,727273	272,989517	242,168581	0
15.01.2021	00:59:27	0	0	4,745497	3,495	58,5	-0,731	77,949	0	1008,14	5,4	7,7	7,6	1	1	1	1	1	1	1	1	1	0	1	-69,415081	272,909398	245,111264	0
15.01.2021	00:59:28	0	0	4,180557	3,55725	70,614	-0,734	77,957	0	1008,02	5,4	7,7	7,6	1	1	1	1	1	1	1	1	1	0	1	-73,572939	272,821234	240,547168	0
15.01.2021	00:59:29	0	0	5,197449	3,36	60,2028	-0,729	77,972	0	1008,18	5,4	7,7	7,6	1	1	1	1	1	1	1	1	1	0	1	-70,613108	272,988109	244,276247	0
15.01.2021	00:59:30	0	0	2,937689	3,4185	68,0076	-0,73	78,019	0	1008,18	5,4	7,7	7,6	1	1	1	1	1	1	1	1	1	0	1	-68,498943	272,936068	246,150364	0
15.01.2021	00:59:31	0	0	3,615617	3,44925	70,614	-0,728	78,038	0	1008,18	5,4	7,7	7,6	1	1	1	1	1	1	1	1	1	0	1	-70,68358	272,990926	244,218773	0
15.01.2021	00:59:32	0	0	3,163665	3,23475	78,2964	-0,736	78,081	0	1008,14	5,4	7,7	7,6	1	1	1	1	1	1	1	1	1	0	1	-69,133192	272,947308	245,56795	0
15.01.2021	00:59:33	0	0	5,19748	2,9625	65,8404	-0,728	78,09	0	1008,26	5,4	7,7	7,5	1	1	1	1	1	1	1	1	1	0	1	-73,713883	272,993743	241,20147	0
15.01.2021	00:59:34	0	0	4,858485	2,75925	60,5628	-0,738	78,129	0	1008,22	5,4	7,7	7,6	1	1	1	1	1	1	1	1	1	0	1	-64,622974	272,934663	250,019856	0
15.01.2021	00:59:35	0	0	4,180607	2,7585	53,7552	-0,728	78,142	0	1008,16	5,4	7,7	7,4	1	1	1	1	1	1	1	1	1	0	1	-70,260747	272,990926	244,641606	0
15.01.2021	00:59:36	0	0	5,197449	2,83125	49,2048	-0,732	78,146	0	1008,24	5,4	7,7	7,6	1	1	1	1	1	1	1	1	1	0	1	-75,334743	272,895377	239,126968	0
15.01.2021	00:59:37	0	0	3,615617	3,00225	58,5072	-0,73	78,132	0	1008,22	5,4	7,7	7,6	1	1	1	1	1	1	1	1	1	0	1	-70,472163	272,819838	243,641513	0
15.01.2021	00:59:38	0	0	4,745497	3,23625	68,4252	-0,717	78,144	0	1008,22	5,4	7,7	7,6	1	1	1	1	1	1	1	1	1	0	1	-72,30444	272,909398	242,221905	0
15.01.2021	00:59:39	0	0	2,937689	3,37125	70,8588	-0,726	78,134	0	1008,22	5,4	7,7	7,6	1	1	1	1	1	1	1	1	1	0	1	-73,502467	273,006427	241,471417	0
15.01.2021	00:59:40	0	0	3,389641	3,36975	60,3396	-0,726	78,134	0	1008,22	5,4	7,7	7,6	1	1	1	1	1	1	1	1	1	0	1	-72,374912	272,97966	242,475463	0
15.01.2021	00:59:41	0	0	2,711713	3,27375	59,1012	-0,722	78,116	0	1008,28	5,4	7,7	7,6	1	1	1	1	1	1	1	1	1	0	1	-65,961945	273,010657	249,031459	0
15.01.2021	00:59:42	0	0	4,067569	3,24675	65,4732	-0,728	78,121	0	1008,06	5,4	7,7	7,6	1	1	1	1	1	1	1	1	1	0	1	-77,801268	272,874364	236,5636	0
15.01.2021	00:59:43	0	0	3,502629	3,231	60,9408	-0,721	78,113	0	1008,24	5,4	7,7	7,6	1	1	1	1	1	1	1	1	1	0	1	-73,361522	272,843587	240,861542	0
15.01.2021	00:59:44	0	0	3,389641	3,21975	53,8056	-0,724	78,109	0	1008,24	5,4	7,7	7,6	1	1	1	1	1	1	1	1	1	0	1	-73,079634	272,849179	241,169192	0
15.01.2021	00:59:45	0	0	3,050677	3,13575	41,8464	-0,723	78,102	0	1008,16	5,4	7,7	7,6	1	1	1	1	1	1	1	1	1	0	1	-71,881607	272,948713	242,826017	0
15.01.2021	00:59:46	0	0	3,276653	3,08625	54,486	-0,721	78,089	0	1008,14	5,4	7,7	7,6	1	1	1	1	1	1	1	1	1	0	1	-72,938689	273,02053	242,100284	0
15.01.2021	00:59:47	0	0	4,745497	3,05175	53,0064	-0,722	78,099	0	1008,22	5,4	7,7	7,6	1	1	1	1	1	1	1	1	1	0	1	-73,784355	272,996561	241,144001	0
15.01.2021	00:59:48	0	0	4,067569	3,0345	56,2896	-0,721	78,092	0	1008,02	5,4	7,7	7,6	1	1	1	1	1	1	1	1	1	0	1	-71,529246	272,847781	242,713139	0
15.01.2021	00:59:49	0	0	4,519521	2,98275	48,114	-0,72	78,106	0	1008,26	5,4	7,7	7,6	1	1	1	1	1	1	1	1	1	0	1	-72,093023	273,016298	242,926417	0
15.01.2021	00:59:50	0	0	2,598725	3,09825	61,3116	-0,717	78,133	0	1008,14	5,4	7,7	7,6	1	1	1	1	1	1	1	1	1	0	1	-73,713883	272,881366	240,683252	0
15.01.2021	00:59:51	0	0	4,632509	3,18975	54,81	-0,728	78,111	0	1008,2	5,4	7,7	7,6	1	1	1	1	1	1	1	1	1	0	1	-72,093023	272,861767	242,213801	0
15.01.2021	00:59:52	0	0	4,632509	3,08325	65,0844	-0,724	78,146	0	1008,3	5,4	7,7	7,6	1	1	1	1	1	1	1	1	1	0	1	-71,67019	272,975437	243,160702	0
15.01.2021	00:59:53	0	0	2,824734	2,889	57,042	-0,72	78,144	0	1008,08	5,4	7,7	7,4	1	1	1	1	1	1	1	1	1	0	1	-67,935166	272,88837	246,49425	0
15.01.2021	00:59:54	0	0	3,050677	2,8125	60,5664	-0,726	78,154	0	1008,16	5,4	7,7	7,6	1	1	1	1	1	1	1	1	1	0	1	-73,29105	272,988109	241,598305	0
15.01.2021	00:59:55	0	0	4,293545	3,08175	64,2492	-0,728	78,156	0	1008,08	5,4	7,7	7,6	1	1	1	1	1	1	1	1	1	0	1	-67,864693	272,881366	246,532441	0
15.01.2021	00:59:56	0	0	2,711745	3,20025	58,8816	-0,722	78,163	0	1008,34	5,4	7,7	7,4	1	1	1	1	1	1	1	1	1	0	1	-71,67019	272,909398	242,856154	0
15.01.2021	00:59:57	0	0	4,745497	3,51825	64,6236	-0,722	78,161	0	1008,46	5,4	7,7	7,6	1	1	1	1	1	1	1	1	1	0	1	-71,881607	272,868765	242,457458	0
15.01.2021	00:59:58	0	0	3,050677	3,942	73,53	-0,727	78,159	0	1008,1	5,4	7,7	7,6	1	1	1	1	1	1	1	1	1	0	1	-67,864693	272,906593	246,64872	0
15.01.2021	00:59:59	0	0	2,824701	4,161	76,3776	-0,718	78,138	0	1008,44	5,4	7,7	7,6	1	1	1	1	1	1	1	1	1	0	1	-72,938689	272,863167	241,374582	0
15.01.2021	01:00:00	0	0	4,632509	4,16925	74,178	-0,718	78,118	0	1008,36	5,4	7,7	7,6	1	1	1	1	1	1	1	1	1	0	1	-73,29105	272,965587	241,494403	0
15.01.2021	01:00:01	0	0	2,372748	4,17975	72,6948	-0,721	78,101	0	1008,02	5,4	7,7	7,6	1	1	1	1	1	1	1	1	1	0	1	-73,643411	273,030409	241,441159	0
15.01.2021	01:00:02	0	0	2,372748	4,17975	72,6948	-0,721	78,101	0	1008,02	5,4	7,7	7,6	1	1	1	1	1	1	1	1	1	0	1	-73,643411	273,030409	241,441159	0
15.01.2021	01:00:03	0	0	4,858485	4,13325	76,0104	-0,724	78,094	0	1008,1	5,4	7,7	7,6	1	1	1	1	1	1	1	1	1	0	1	-70,190275	273,043117	244,952961	0
15.01.2021	01:00:04	0	0	5,084461	4,1175	74,5488	-0,719	78,096	0	1008,5	5,4	7,7	7,6	1	1	1	1	1	1	1	1	1	0	1	-73,784355	272,986701	241,098501	0
15.01.2021	01:00:05	0	0	4,519521	4,01025	73,7928	-0,727	78,107	0	1008,12	5,4	7,7	7,6	1	1	1	1	1	1	1	1	1	0	1	-78,012685	272,861767	236,294139	0
15.01.2021	01:00:06	0	0	4,293545	4,02525	72,6732	-0,718	78,125	0	1008,06	5,4	7,7	7,6	1	1	1	1	1	1	1	1	1	0	1	-68,357999	273,024763	246,700512	0
15.01.2021	01:00:07	0	0	2,937689	4,18875	68,0292	-0,719	78,125	0	1008,18	5,4	7,7	7,6	1	1	1	1	1	1	1	1	1	0	1	-70,542636	272,948713	244,164988	0
15.01.2021	01:00:08	0	0	4,632509	4,314	79,434	-0,72	78,115	0	1007,96	5,4	7,7	7,6	1	1	1	1	1	1	1	1	1	0	1	-73,995772	272,884167	240,414274	0
15.01.2021	01:00:09	0	0	2,598725	4,31775	73,422	-0,718	78,135	0	1008,22	5,4	7,7	7,6	1	1	1	1	1	1	1	1	1	0	1	-72,093023	273,01912	242,939438	0
15.01.2021	01:00:10	0	0	5,084461	4,39575	71,2404	-0,718	78,136	0	1008,14	5,4	7,7	7,6	1	1	1	1	1	1	1	1	1	0	1	-70,824524	272,926238	243,779456	0
15.01.2021	01:00:11	0	0	3,954581	4,56225	70,8552	-0,716	78,151	0	1008,22	5,4	7,7	7,6	1	1	1	1	1	1	1	1	1	0	1	-67,44186	273,041704	247,694855	0
15.01.2021	01:00:12	0	0	5,536413	4,41375	69,1704	-0,715	78,154	0	1008,2	5,4	7,7	7,6	1	1	1	1	1	1	1	1	1	0	1	-69,274137	272,943092	245,407563	0
15.01.2021	01:00:13	0	0	2,824701	4,242	78,282	-0,715	78,151	0	1008,16	5,4	7,7	7,6	1	1	1	1	1	1	1	1	1	0	1	-71,035941	273,03888	244,087734	0
15.01.2021	01:00:14	0	0	4,971473	4,224	77,9652	-0,713	78,159	0	1008,14	5,4	7,7	7,6	1	1	1	1	1	1	1	1	1	0	1	-72,022551	272,898181	242,452082	0
15.01.2021	01:00:15	0	0	2,598725	4,35975	77,22	-0,713	78,158	0	1008,38	5,4	7,7	7,6	1	1	1	1	1	1	1	1	1	0	1	-69,485553	272,997971	245,449305	0
15.01.2021	01:00:16	0	0	4,067569	4,21275	70,9416	-0,722	78,152	0	1008,18	5,4	7,7	7,6	1	1	1	1	1	1	1	1	1	0	1	-72,163495	272,871564	242,18847	0
15.01.2021	01:00:17	0	0	4,858485	4,08675	73,9296	-0,712	78,143	0	1008,28	5,4	7,7	7,6	1	1	1	1	1	1	1	1	1	0	1	-71,317829	273,027586	243,75371	0
15.01.2021	01:00:18	0	0	4,180557	3,981	68,7816	-0,713	78,145	0	1008,18	5,4	7,7	7,6	1	1	1	1	1	1	1	1	1	0	1	-69,06272	272,948713	245,644904	0
15.01.2021	01:00:19	0	0	4,180557	4,05525	71,5968	-0,712	78,153	0	1008,16	5,4	7,7	7,6	1	1	1	1	1	1	1	1	1	0	1	-70,190275	273,047355	244,972527	0
15.01.2021	01:00:20	0	0	4,519521	3,96075	67,77	-0,716	78,149	0	1008,2	5,4	7,7	7,6	1	1	1	1	1	1	1	1	1	0	1	-70,613108	273,060074	244,608423	0
15.01.2021	01:00:21	0	0	4,180557	3,96675	66,2364	-0,708	78,151	0	1008,14	5,4	7,7	7,6	1	1	1	1	1	1	1	1	1	0	1	-71,035941	273,017709	243,99001	0
15.01.2021	01:00:22	0	0	3,389641	4,0185	71,9748	-0,709	78,154	0	1008,24	5,4	7,7	7,6	1	1	1	1	1	1	1	1	1	0	1	-70,401691	273,02053	244,637281	0
15.01.2021	01:00:23	0	0	4,745497	4,0275	76,3596	-0,714	78,148	0	1008,2	5,4	7,7	7,6	1	1	1	1	1	1	1	1	1	0	1	-68,851304	272,884167	245,558742	0
15.01.2021	01:00:24	0	0	3,050677	3,82725	63,4968	-0,713	78,137	0	1008,18	5,4	7,7	7,6	1	1	1	1	1	1	1	1	1	0	1	-68,498943	272,981068	246,357927	0
15.01.2021	01:00:25	0	0	3,615617	3,6105	69,4872	-0,706	78,13	0	1008,28	5,4	7,7	7,6	1	1	1	1	1	1	1	1	1	0	1	-73,784355	272,957148	240,962173	0
15.01.2021	01:00:26	0	0	4,519521	3,26775	75,24	-0,714	78,101	0	1008,18	5,4	7,7	7,6	1	1	1	1	1	1	1	1	1	0	1	-68,921776	272,893975	245,533475	0
15.01.2021	01:00:27	0	0	2,598725	3,28725	72,3096	-0,711	78,104	0	1008,22	5,4	7,7	7,6	1	1	1	1	1	1	1	1	1	0	1	-72,163495	272,934663	242,479334	0
15.01.2021	01:00:28	0	0	3,841593	3,84	71,2296	-0,707	78,086	0	1008,24	5,4	7,7	7,6	1	1	1	1	1	1	1	1	1	0	1	-69,556025	272,937472	245,099759	0
15.01.2021	01:00:29	0	0	3,163665	4,0875	77,2164	-0,707	78,07	0	1008,24	5,6	7,7	7,6	1	1	1	1	1	1	1	1	1	0	1	-69,908386	272,898181	244,566247	0
15.01.2021	01:00:30	0	0	4,519521	3,95625	70,2108	-0,703	78,036	0	1008,22	5,4	7,7	7,6	1	1	1	1	1	1	1	1	1	0	1	-71,458774	272,951525	243,261816	0
15.01.2021	01:00:31	0	0	4,858485	3,8655	66,2364	-0,708	78,018	0	1008,18	5,4	7,7	7,6	1	1	1	1	1	1	1	1	1	0	1	-69,344609	272,934663	245,298221	0
15.01.2021	01:00:32	0	0	4,971473	3,86325	68,0112	-0,717	78,026	0	1008,26	5,4	7,7	7,6	1	1	1	1	1	1	1	1	1	0	1	-76,180409	272,905191	238,32654	0
15.01.2021	01:00:33	0	0	3,050677	3,9795	63,198	-0,711	78,009	0	1008,2	5,4	7,7	7,6	1	1	1	1	1	1	1	1	1	0	1	-71,317829	273,075631	243,975546	0
15.01.2021	01:00:34	0	0	3,050677	4,05225	69,1704	-0,712	77,999	0	1008,12	5,6	7,7	7,6	1	1	1	1	1	1	1	1	1	0	1	-71,176885	272,981068	243,679985	0
15.01.2021	01:00:35	0	0	2,824701	3,86475	68,0184	-0,716	77,988	0	1008,2	5,4	7,7	7,6	1	1	1	1	1	1	1	1	1	0	1	-72,30444	273,077046	242,99547	0
15.01.2021	01:00:36	0	0	4,632509	3,76575	75,2364	-0,706	77,998	0	1008,26	5,4	7,7	7,6	1	1	1	1	1	1	1	1	1	0	1	-66,878083	272,898181	247,59655	0
15.01.2021	01:00:37	0	0	3,163665	3,759	75,2256	-0,717	77,99	0	1008,2	5,4	7,7	7,6	1	1	1	1	1	1	1	1	1	0	1	-73,713883	272,961367	241,052105	0
15.01.2021	01:00:38	0	0	3,163665	3,76875	74,6928	-0,707	77,989	0	1008,18	5,4	7,7	7,6	1	1	1	1	1	1	1	1	1	0	1	-73,784355	273,02053	241,254618	0
15.01.2021	01:00:39	0	0	3,163703	3,6435	71,6184	-0,709	78,011	0	1008,28	5,6	7,7	7,4	1	1	1	1	1	1	1	1	1	0	1	-74,91191	272,898181	239,562723	0
15.01.2021	01:00:40	0	0	5,084461	3,348	70,848	-0,707	78,021	0	1008,3	5,4	7,7	7,6	1	1	1	1	1	1	1	1	1	0	1	-73,572939	272,944497	241,115241	0
15.01.2021	01:00:41	0	0	4,406586	3,3735	76,3848	-0,71	78,038	0	1008,24	5,4	7,7	7,4	1	1	1	1	1	1	1	1	1	0	1	-68,357999	272,913607	246,187747	0
15.01.2021	01:00:42	0	0	2,937689	3,4725	79,0416	-0,701	78,043	0	1008,02	5,4	7,7	7,6	1	1	1	1	1	1	1	1	1	0	1	-66,737139	272,926238	247,866842	0
15.01.2021	01:00:43	0	0	2,25976	3,6015	71,982	-0,708	78,048	0	1008,2	5,4	7,7	7,6	1	1	1	1	1	1	1	1	1	0	1	-74,207188	272,931854	240,42269	0
15.01.2021	01:00:44	0	0	4,745497	3,61425	71,2404	-0,709	78,03	0	1008,36	5,4	7,7	7,6	1	1	1	1	1	1	1	1	1	0	1	-73,431994	272,906593	241,081419	0
15.01.2021	01:00:45	0	0	4,067569	3,6405	74,556	-0,707	78,058	0	1008,24	5,4	7,7	7,6	1	1	1	1	1	1	1	1	1	0	1	-72,233968	272,96418	242,544997	0
15.01.2021	01:00:46	0	0	4,971473	3,69825	66,9204	-0,703	78,066	0	1008,28	5,4	7,7	7,6	1	1	1	1	1	1	1	1	1	0	1	-71,529246	273,079877	243,783735	0
15.01.2021	01:00:47	0	0	3,954581	3,63975	71,2224	-0,713	78,09	0	1008,06	5,4	7,7	7,6	1	1	1	1	1	1	1	1	1	0	1	-71,176885	272,937472	243,478899	0
15.01.2021	01:00:48	0	0	4,971473	3,5595	65,8548	-0,71	78,084	0	1008,08	5,4	7,7	7,6	1	1	1	1	1	1	1	1	1	0	1	-70,260747	273,03888	244,862928	0
15.01.2021	01:00:49	0	0	4,519521	3,3735	69,858	-0,706	78,112	0	1008,4	5,4	7,7	7,6	1	1	1	1	1	1	1	1	1	0	1	-68,287526	273,078461	247,018919	0
15.01.2021	01:00:50	0	0	3,615617	3,231	71,2584	-0,709	78,104	0	1008,26	5,6	7,7	7,6	1	1	1	1	1	1	1	1	1	0	1	-73,361522	272,936068	241,287784	0
15.01.2021	01:00:51	0	0	2,711713	3,1635	63,8928	-0,705	78,149	0	1008,24	5,6	7,7	7,6	1	1	1	1	1	1	1	1	1	0	1	-73,784355	273,014888	241,228575	0
15.01.2021	01:00:52	0	0	4,632509	3,1605	66,5316	-0,705	78,169	0	1008,24	5,6	7,7	7,6	1	1	1	1	1	1	1	1	1	0	1	-68,357999	273,08837	246,99421	0
15.01.2021	01:00:53	0	0	2,485736	3,078	68,022	-0,702	78,179	0	1008,18	5,6	7,7	7,6	1	1	1	1	1	1	1	1	1	0	1	-70,190275	273,021941	244,85521	0
15.01.2021	01:00:54	0	0	3,728605	3,04575	84,0528	-0,701	78,221	0	1008,3	5,6	7,7	7,6	1	1	1	1	1	1	1	1	1	0	1	-73,9253	272,941687	240,74992	0
15.01.2021	01:00:55	0	0	2,937689	2,98875	79,0416	-0,699	78,246	0	1008,34	5,4	7,7	7,6	1	1	1	1	1	1	1	1	1	0	1	-72,022551	272,920623	242,555542	0
15.01.2021	01:00:56	0	0	4,406533	2,85375	78,6708	-0,7	78,25	0	1008,24	5,6	7,7	7,6	1	1	1	1	1	1	1	1	1	0	1	-64,622974	272,993743	250,292379	0
15.01.2021	01:00:57	0	0	4,180557	2,69325	75,996	-0,701	78,293	0	1008,14	5,6	7,7	7,6	1	1	1	1	1	1	1	1	1	0	1	-71,881607	273,10395	243,542575	0
15.01.2021	01:00:58	0	0	3,050677	2,6595	80,9208	-0,702	78,295	0	1008,22	5,4	7,7	7,6	1	1	1	1	1	1	1	1	1	0	1	-70,472163	272,938877	244,190098	0
15.01.2021	01:00:59	0	0	3,728605	2,63325	85,1616	-0,698	78,328	0	1008,34	5,6	7,7	7,6	1	1	1	1	1	1	1	1	1	0	1	-66,666667	272,97403	248,157732	0
15.01.2021	01:01:00	0	0	3,050677	2,529	88,9704	-0,696	78,371	0	1008,24	5,5	7,7	7,6	1	1	1	1	1	1	1	1	1	0	1	-74,418605	272,969808	240,386319	0
15.01.2021	01:01:01	0	0	3,502629	2,3985	74,1816	-0,691	78,358	0	1008,2	5,6	7,7	7,6	1	1	1	1	1	1	1	1	1	0	1	-73,643411	273,05018	241,532438	0
15.01.2021	01:01:02	0	0	3,502629	2,3985	74,1816	-0,691	78,358	0	1008,2	5,6	7,7	7,6	1	1	1	1	1	1	1	1	1	0	1	-73,643411	273,05018	241,532438	0
15.01.2021	01:01:03	0	0	3,728605	2,57775	75,6216	-0,698	78,362	0	1008,24	5,6	7,7	7,6	1	1	1	1	1	1	1	1	1	0	1	-74,136716	273,098283	241,261286	0
15.01.2021	01:01:04	0	0	5,197449	2,748	80,532	-0,698	78,353	0	1008,24	5,6	7,7	7,6	1	1	1	1	1	1	1	1	1	0	1	-69,978858	272,971215	244,832556	0
15.01.2021	01:01:05	0	0	3,050677	2,81775	70,218	-0,69	78,364	0	1008,32	5,4	7,7	7,6	1	1	1	1	1	1	1	1	1	0	1	-73,854827	273,096866	241,536631	0
15.01.2021	01:01:06	0	0	3,954581	2,78475	75,2292	-0,691	78,355	0	1008,28	5,6	7,7	7,6	1	1	1	1	1	1	1	1	1	0	1	-64,975335	272,948713	249,732289	0
15.01.2021	01:01:07	0	0	4,632509	2,76825	63,99	-0,693	78,335	0	1008,22	5,6	7,7	7,6	1	1	1	1	1	1	1	1	1	0	1	-71,458774	272,937472	243,19701	0
15.01.2021	01:01:08	0	0	3,163665	2,8545	70,5996	-0,691	78,318	0	1008,18	5,6	7,7	7,6	1	1	1	1	1	1	1	1	1	0	1	-72,586328	273,079877	242,726653	0
15.01.2021	01:01:09	0	0	2,824701	3,012	74,5416	-0,69	78,292	0	1008,36	5,5	7,7	7,6	1	1	1	1	1	1	1	1	1	0	1	-69,133192	273,051594	246,04918	0
15.01.2021	01:01:10	0	0	2,598725	3,0195	60,5664	-0,687	78,281	0	1008,08	5,6	7,7	7,6	1	1	1	1	1	1	1	1	1	0	1	-71,599718	273,102533	243,817918	0
15.01.2021	01:01:11	0	0	3,163665	3,19575	80,2152	-0,688	78,255	0	1008,22	5,6	7,7	7,6	1	1	1	1	1	1	1	1	1	0	1	-70,965469	273,101116	244,445622	0
15.01.2021	01:01:12	0	0	3,954581	3,17625	70,6068	-0,686	78,231	0	1008,24	5,5	7,7	7,6	1	1	1	1	1	1	1	1	1	0	1	-75,193798	273,000789	239,754066	0
15.01.2021	01:01:13	0	0	4,067569	3,39225	72,6804	-0,686	78,208	0	1008,18	5,6	7,7	7,6	1	1	1	1	1	1	1	1	1	0	1	-72,586328	273,048768	242,582996	0
15.01.2021	01:01:14	0	0	4,971473	3,57225	69,8508	-0,686	78,154	0	1008,26	5,6	7,7	7,6	1	1	1	1	1	1	1	1	1	0	1	-74,91191	273,101116	240,499181	0
15.01.2021	01:01:15	0	0	4,406533	3,58875	63,8784	-0,69	78,127	0	1008,24	5,6	7,7	7,6	1	1	1	1	1	1	1	1	1	0	1	-68,780832	272,965587	246,004622	0
15.01.2021	01:01:16	0	0	4,632509	4,062	70,848	-0,689	78,111	0	1008,22	5,6	7,7	7,6	1	1	1	1	1	1	1	1	1	0	1	-72,093023	272,937472	242,562761	0
15.01.2021	01:01:17	0	0	4,745497	4,464	67,6728	-0,684	78,092	0	1008,3	5,6	7,7	7,6	1	1	1	1	1	1	1	1	1	0	1	-70,965469	272,937472	243,690315	0
15.01.2021	01:01:18	0	0	2,937689	4,3635	67,2948	-0,681	78,081	0	1008,2	5,4	7,7	7,6	1	1	1	1	1	1	1	1	1	0	1	-70,68358	273,034644	244,42054	0
15.01.2021	01:01:19	0	0	3,163665	3,966	58,4928	-0,685	78,056	0	1008,24	5,4	7,7	7,6	1	1	1	1	1	1	1	1	1	0	1	-74,136716	272,927642	240,473738	0
15.01.2021	01:01:20	0	0	3,276653	3,58575	66,5208	-0,683	78,058	0	1008,26	5,6	7,7	7,6	1	1	1	1	1	1	1	1	1	0	1	-73,361522	273,071387	241,912252	0
15.01.2021	01:01:21	0	0	3,163665	3,43425	76,3884	-0,681	78,051	0	1008,2	5,6	7,7	7,6	1	1	1	1	1	1	1	1	1	0	1	-75,475687	273,060074	239,745844	0
15.01.2021	01:01:22	0	0	5,084461	3,12075	66,5388	-0,681	78,026	0	1008,34	5,6	7,7	7,6	1	1	1	1	1	1	1	1	1	0	1	-68,639887	273,098283	246,758114	0
15.01.2021	01:01:23	0	0	5,310437	2,907	67,2876	-0,679	78,008	0	1008,3	5,4	7,7	7,6	1	1	1	1	1	1	1	1	1	0	1	-73,220578	272,99938	241,720783	0
15.01.2021	01:01:24	0	0	4,858485	2,70075	58,1076	-0,685	77,987	0	1008,22	5,6	7,7	7,6	1	1	1	1	1	1	1	1	1	0	1	-66,102889	273,10395	249,321292	0
15.01.2021	01:01:25	0	0	3,502629	2,53725	62,424	-0,683	77,976	0	1008,28	5,6	7,7	7,6	1	1	1	1	1	1	1	1	1	0	1	-70,894996	272,959961	243,864505	0
15.01.2021	01:01:26	0	0	4,971473	2,5605	74,9304	-0,677	77,984	0	1008,16	5,6	7,7	7,6	1	1	1	1	1	1	1	1	1	0	1	-73,079634	273,002198	241,874735	0
15.01.2021	01:01:27	0	0	3,841593	2,40675	75,024	-0,683	77,971	0	1008,28	5,6	7,7	7,6	1	1	1	1	1	1	1	1	1	0	1	-71,247357	272,924834	243,350151	0
15.01.2021	01:01:28	0	0	2,824701	2,2695	81,576	-0,678	77,957	0	1008,22	5,6	7,7	7,6	1	1	1	1	1	1	1	1	1	0	1	-68,146582	272,969808	246,658341	0
15.01.2021	01:01:29	0	0	4,293545	2,01375	59,8428	-0,682	77,945	0	1008,2	5,6	7,7	7,6	1	1	1	1	1	1	1	1	1	0	1	-71,881607	273,000789	243,066258	0
15.01.2021	01:01:30	0	0	4,067569	1,81575	50,3676	-0,681	77,94	0	1008,22	5,6	7,7	7,6	1	1	1	1	1	1	1	1	1	0	1	-70,754052	272,926238	243,849929	0
15.01.2021	01:01:31	0	0	2,824701	1,82025	68,3784	-0,681	77,917	0	1008,28	5,6	7,7	7,6	1	1	1	1	1	1	1	1	1	0	1	-69,203665	273,002198	245,750704	0
15.01.2021	01:01:32	0	0	2,25976	1,85775	62,4384	-0,68	77,899	0	1008,16	5,6	7,7	7,6	1	1	1	1	1	1	1	1	1	0	1	-72,374912	272,931854	242,254966	0
15.01.2021	01:01:33	0	0	3,276653	1,83675	58,8744	-0,679	77,891	0	1008,26	5,6	7,7	7,6	1	1	1	1	1	1	1	1	1	0	1	-72,938689	272,972622	241,879217	0
15.01.2021	01:01:34	0	0	3,163665	1,83	58,4784	-0,676	77,88	0	1008,1	5,5	7,7	7,6	1	1	1	1	1	1	1	1	1	0	1	-73,9253	273,047355	241,237502	0
15.01.2021	01:01:35	0	0	3,163665	1,91025	60,948	-0,677	77,852	0	1008,22	5,6	7,7	7,6	1	1	1	1	1	1	1	1	1	0	1	-69,626498	273,108201	245,817325	0
15.01.2021	01:01:36	0	0	4,858485	1,83	56,2752	-0,683	77,83	0	1008,28	5,4	7,7	7,6	1	1	1	1	1	1	1	1	1	0	1	-74,066244	273,089786	241,292505	0
15.01.2021	01:01:37	0	0	2,598725	1,72125	57,7404	-0,674	77,802	0	1008,22	5,5	7,7	7,6	1	1	1	1	1	1	1	1	1	0	1	-73,361522	273,112454	242,101947	0
15.01.2021	01:01:38	0	0	4,971473	1,63425	56,286	-0,677	77,795	0	1008,24	5,5	7,7	7,6	1	1	1	1	1	1	1	1	1	0	1	-77,096547	273,086954	238,249123	0
15.01.2021	01:01:39	0	0	5,197449	1,584	49,554	-0,679	77,779	0	1008,14	5,5	7,7	7,6	1	1	1	1	1	1	1	1	1	0	1	-72,938689	272,996561	241,989667	0
15.01.2021	01:01:40	0	0	2,598725	1,5465	58,878	-0,683	77,78	0	1008,16	5,6	7,7	7,6	1	1	1	1	1	1	1	1	1	0	1	-62,085976	273,113871	253,384043	0
15.01.2021	01:01:41	0	0	2,824701	1,5495	37,314	-0,674	77,773	0	1008,32	5,5	7,7	7,6	1	1	1	1	1	1	1	1	1	0	1	-72,445384	273,108201	242,998439	0
15.01.2021	01:01:42	0	0	3,050677	1,5615	49,5936	-0,676	77,808	0	1008,26	5,6	7,7	7,6	1	1	1	1	1	1	1	1	1	0	1	-65,750529	273,036056	249,360109	0
15.01.2021	01:01:43	0	0	4,293545	1,5375	46,2168	-0,677	77,756	0	1008,1	5,5	7,7	7,6	1	1	1	1	1	1	1	1	1	0	1	-72,515856	273,09545	242,869059	0
15.01.2021	01:01:44	0	0	4,180557	1,55025	46,2384	-0,678	77,731	0	1008,04	5,6	7,7	7,6	1	1	1	1	1	1	1	1	1	0	1	-68,357999	272,933259	246,278355	0
15.01.2021	01:01:45	0	0	3,615617	1,5885	48,6072	-0,684	77,732	0	1008,24	5,6	7,7	7,6	1	1	1	1	1	1	1	1	1	0	1	-74,770965	273,040292	240,359229	0
15.01.2021	01:01:46	0	0	2,824701	1,54725	48,5208	-0,68	77,716	0	1008,24	5,6	7,7	7,6	1	1	1	1	1	1	1	1	1	0	1	-73,784355	273,085538	241,554776	0
15.01.2021	01:01:47	0	0	4,971473	1,46475	34,6968	-0,67	77,712	0	1008	5,6	7,7	7,6	1	1	1	1	1	1	1	1	1	0	1	-71,811135	272,961367	242,954854	0
15.01.2021	01:01:48	0	0	2,711713	1,43475	34,7256	-0,677	77,701	0	1008,18	5,6	7,7	7,6	1	1	1	1	1	1	1	1	1	0	1	-67,653277	272,938877	247,008985	0
15.01.2021	01:01:49	0	0	4,180557	1,38225	57,42	-0,679	77,688	0	1008,3	5,6	7,7	7,6	1	1	1	1	1	1	1	1	1	0	1	-71,529246	272,929046	243,087682	0
15.01.2021	01:01:50	0	0	2,824701	1,37925	76,8312	-0,684	77,687	0	1008,16	5,5	7,7	7,6	1	1	1	1	1	1	1	1	1	0	1	-68,710359	273,030409	246,37421	0
15.01.2021	01:01:51	0	0	4,971473	1,527	75,2472	-0,676	77,685	0	1008,38	5,6	7,7	7,6	1	1	1	1	1	1	1	1	1	0	1	-66,596195	272,936068	248,053112	0
15.01.2021	01:01:52	0	0	3,841593	1,6875	59,1696	-0,683	77,675	0	1008,1	5,6	7,7	7,6	1	1	1	1	1	1	1	1	1	0	1	-74,27766	272,906593	240,235753	0
15.01.2021	01:01:53	0	0	3,050677	1,8465	66,9276	-0,682	77,662	0	1008,2	5,4	7,7	7,6	1	1	1	1	1	1	1	1	1	0	1	-68,921776	272,983884	245,948086	0
15.01.2021	01:01:54	0	0	4,519521	2,094	69,8616	-0,677	77,653	0	1008,22	5,6	7,7	7,6	1	1	1	1	1	1	1	1	1	0	1	-69,626498	272,916413	244,932185	0
15.01.2021	01:01:55	0	0	3,389641	2,1795	60,5736	-0,681	77,638	0	1008,3	5,6	7,7	7,6	1	1	1	1	1	1	1	1	1	0	1	-68,428471	273,09545	246,956444	0
15.01.2021	01:01:56	0	0	4,858485	2,019	60,2352	-0,682	77,631	0	1008,14	5,6	7,7	7,6	1	1	1	1	1	1	1	1	1	0	1	-71,035941	273,040292	244,094254	0
15.01.2021	01:01:57	0	0	3,841593	1,8495	67,2876	-0,681	77,625	0	1008,34	5,4	7,8	7,6	1	1	1	1	1	1	1	1	1	0	1	-70,472163	272,934663	244,170666	0
15.01.2021	01:01:58	0	0	3,050677	1,833	67,6872	-0,683	77,615	0	1008,28	5,6	7,8	7,6	1	1	1	1	1	1	1	1	1	0	1	-72,022551	272,917816	242,542601	0
15.01.2021	01:01:59	0	0	2,937689	1,962	70,6284	-0,684	77,598	0	1008,26	5,6	7,7	7,6	1	1	1	1	1	1	1	1	1	0	1	-74,770965	273,005018	240,196413	0
15.01.2021	01:02:00	0	0	4,858485	2,814	62,7948	-0,682	77,581	0	1007,8	5,4	7,7	7,6	1	1	1	1	1	1	1	1	1	0	1	-72,938689	273,06573	242,308959	0
15.01.2021	01:02:01	0	0	3,954581	2,93175	56,2896	-0,684	77,57	0	1008,2	5,6	7,7	7,6	1	1	1	1	1	1	1	1	1	0	1	-73,9253	272,966994	240,866643	0
15.01.2021	01:02:02	0	0	3,954581	2,93175	56,2896	-0,684	77,57	0	1008,2	5,6	7,7	7,6	1	1	1	1	1	1	1	1	1	0	1	-73,9253	272,966994	240,866643	0
15.01.2021	01:02:03	0	0	3,389641	3,138	59,4864	-0,686	77,569	0	1008,06	5,6	7,7	7,6	1	1	1	1	1	1	1	1	1	0	1	-71,458774	273,074217	243,828067	0
15.01.2021	01:02:04	0	0	2,937689	3,3375	66,9168	-0,68	77,548	0	1008,28	5,6	7,7	7,6	1	1	1	1	1	1	1	1	1	0	1	-73,995772	272,906593	240,517642	0
15.01.2021	01:02:05	0	0	5,084461	3,5115	54,1116	-0,686	77,55	0	1008,18	5,6	7,7	7,6	1	1	1	1	1	1	1	1	1	0	1	-72,938689	272,976845	241,898696	0
15.01.2021	01:02:06	0	0	2,937689	3,65625	63,1728	-0,683	77,54	0	1008,22	5,4	7,7	7,6	1	1	1	1	1	1	1	1	1	0	1	-65,891473	272,905191	248,615476	0
15.01.2021	01:02:07	0	0	2,598725	3,552	45,8568	-0,682	77,532	0	1008,34	5,4	7,7	7,6	1	1	1	1	1	1	1	1	1	0	1	-72,022551	272,899582	242,458544	0
15.01.2021	01:02:08	0	0	2,824701	3,3135	54,1044	-0,686	77,521	0	1008,3	5,6	7,7	7,6	1	1	1	1	1	1	1	1	1	0	1	-68,921776	272,975437	245,909116	0
15.01.2021	01:02:09	0	0	2,372748	2,95875	29,1204	-0,682	77,532	0	1008,18	5,4	7,7	7,6	1	1	1	1	1	1	1	1	1	0	1	-69,203665	273,05866	246,011338	0
15.01.2021	01:02:10	0	0	3,389641	2,53125	32,5188	-0,688	77,523	0	1008,14	5,4	7,7	7,6	1	1	1	1	1	1	1	1	1	0	1	-68,428471	272,903789	246,072014	0
15.01.2021	01:02:11	0	0	3,954581	2,44725	46,224	-0,687	77,53	0	1008,2	5,6	7,7	7,6	1	1	1	1	1	1	1	1	1	0	1	-70,472163	272,950119	244,241943	0
15.01.2021	01:02:12	0	0	3,841593	2,57625	43,6824	-0,689	77,51	0	1008,26	5,4	7,7	7,6	1	1	1	1	1	1	1	1	1	0	1	-68,992248	273,067144	246,26193	0
15.01.2021	01:02:13	0	0	2,372748	2,63925	49,212	-0,683	77,528	0	1008,22	5,4	7,7	7,6	1	1	1	1	1	1	1	1	1	0	1	-70,965469	273,072802	244,314838	0
15.01.2021	01:02:14	0	0	3,615617	2,42925	33,6636	-0,686	77,532	0	1008,26	5,6	7,7	7,6	1	1	1	1	1	1	1	1	1	0	1	-68,217054	272,955742	246,522989	0
15.01.2021	01:02:15	0	0	4,858485	2,27925	43,6896	-0,695	77,548	0	1008,18	5,4	7,7	7,6	1	1	1	1	1	1	1	1	1	0	1	-67,159972	273,043117	247,983264	0
15.01.2021	01:02:16	0	0	3,050677	2,26425	44,784	-0,688	77,548	0	1008,26	5,4	7,7	7,6	1	1	1	1	1	1	1	1	1	0	1	-72,374912	273,078461	242,931533	0
15.01.2021	01:02:17	0	0	3,841593	2,2515	24,3504	-0,687	77,56	0	1008,18	5,4	7,7	7,6	1	1	1	1	1	1	1	1	1	0	1	-77,942213	273,000789	237,005652	0
15.01.2021	01:02:18	0	0	2,598725	2,23725	51,4512	-0,684	77,569	0	1008,36	5,6	7,7	7,6	1	1	1	1	1	1	1	1	1	0	1	-71,106413	272,891173	243,335919	0
15.01.2021	01:02:19	0	0	3,502629	2,13375	39,8844	-0,685	77,565	0	1008,32	5,4	7,7	7,6	1	1	1	1	1	1	1	1	1	0	1	-66,596195	272,892574	247,852597	0
15.01.2021	01:02:20	0	0	3,163665	2,1615	56,6676	-0,688	77,554	0	1008,28	5,4	7,7	7,6	1	1	1	1	1	1	1	1	1	0	1	-65,116279	273,003608	249,844594	0
15.01.2021	01:02:21	0	0	3,389641	2,39325	56,682	-0,691	77,539	0	1008,18	5,4	7,7	7,6	1	1	1	1	1	1	1	1	1	0	1	-70,119803	272,882766	244,283787	0
15.01.2021	01:02:22	0	0	4,632509	2,58	51,444	-0,688	77,523	0	1008,22	5,6	7,7	7,6	1	1	1	1	1	1	1	1	1	0	1	-74,982382	272,990926	239,919971	0
15.01.2021	01:02:23	0	0	3,163665	2,784	49,1976	-0,691	77,514	0	1008,28	5,4	7,7	7,6	1	1	1	1	1	1	1	1	1	0	1	-69,556025	272,884167	244,85402	0
15.01.2021	01:02:24	0	0	2,485766	2,8065	35,4816	-0,692	77,499	0	1008,18	5,4	7,7	7,4	1	1	1	1	1	1	1	1	1	0	1	-71,740662	272,906593	242,772751	0
15.01.2021	01:02:25	0	0	4,293545	2,85525	38,0772	-0,698	77,494	0	1008,3	5,4	7,7	7,6	1	1	1	1	1	1	1	1	1	0	1	-73,150106	272,961367	241,615882	0
15.01.2021	01:02:26	0	0	4,293545	2,88375	41,0112	-0,691	77,473	0	1008,24	5,4	7,7	7,6	1	1	1	1	1	1	1	1	1	0	1	-69,415081	272,877164	244,962692	0
15.01.2021	01:02:27	0	0	4,293545	2,838	42,9084	-0,69	77,453	0	1008,2	5,4	7,7	7,6	1	1	1	1	1	1	1	1	1	0	1	-65,327696	272,910801	249,205116	0
15.01.2021	01:02:28	0	0	4,067569	3,10425	53,7444	-0,694	77,447	0	1008,12	5,4	7,7	7,6	1	1	1	1	1	1	1	1	1	0	1	-70,190275	273,041704	244,94644	0
15.01.2021	01:02:29	0	0	4,519521	3,41175	55,53	-0,69	77,437	0	1008,3	5,4	7,7	7,6	1	1	1	1	1	1	1	1	1	0	1	-75,193798	273,043117	239,949437	0
15.01.2021	01:02:30	0	0	3,276653	3,50175	59,868	-0,694	77,425	0	1008,34	5,4	7,7	7,6	1	1	1	1	1	1	1	1	1	0	1	-75,193798	272,985292	239,682561	0
15.01.2021	01:02:31	0	0	2,937689	3,34575	65,1024	-0,694	77,425	0	1008,34	5,4	7,7	7,6	1	1	1	1	1	1	1	1	1	0	1	-70,190275	272,871564	244,16169	0
15.01.2021	01:02:32	0	0	4,293545	3,31725	63,8604	-0,697	77,416	0	1008,38	5,4	7,7	7,6	1	1	1	1	1	1	1	1	1	0	1	-72,727273	273,010657	242,266132	0
15.01.2021	01:02:33	0	0	3,050677	3,2475	58,5036	-0,689	77,404	0	1008,26	5,4	7,7	7,6	1	1	1	1	1	1	1	1	1	0	1	-69,837914	272,913607	244,707832	0
15.01.2021	01:02:34	0	0	4,858485	3,28425	52,5168	-0,694	77,423	0	1008,24	5,4	7,7	7,6	1	1	1	1	1	1	1	1	1	0	1	-66,737139	272,865965	247,589028	0
15.01.2021	01:02:35	0	0	3,615617	3,5565	55,2024	-0,695	77,42	0	1008,22	5,4	7,7	7,6	1	1	1	1	1	1	1	1	1	0	1	-70,542636	272,986701	244,340221	0
15.01.2021	01:02:36	0	0	3,954581	3,582	65,4696	-0,697	77,433	0	1008,28	5,4	7,7	7,6	1	1	1	1	1	1	1	1	1	0	1	-69,978858	273,037468	245,138298	0
15.01.2021	01:02:37	0	0	4,745497	3,522	46,6092	-0,701	77,443	0	1008,2	5,4	7,7	7,6	1	1	1	1	1	1	1	1	1	0	1	-73,854827	272,983884	241,015035	0
15.01.2021	01:02:38	0	0	3,728605	3,54075	60,5772	-0,703	77,457	0	1008,26	5,4	7,7	7,6	1	1	1	1	1	1	1	1	1	0	1	-71,106413	272,85757	243,181073	0
15.01.2021	01:02:39	0	0	4,858485	3,44925	51,7572	-0,7	77,455	0	1008,36	5,4	7,7	7,6	1	1	1	1	1	1	1	1	1	0	1	-72,938689	272,97966	241,911685	0
15.01.2021	01:02:40	0	0	4,632509	3,234	50,0616	-0,696	77,465	0	1008,26	5,4	7,7	7,6	1	1	1	1	1	1	1	1	1	0	1	-68,569415	273,034644	246,534705	0
15.01.2021	01:02:41	0	0	5,084461	3,09	49,5756	-0,703	77,484	0	1008,4	5,4	7,7	7,6	1	1	1	1	1	1	1	1	1	0	1	-69,344609	272,989517	245,551245	0
15.01.2021	01:02:42	0	0	2,824701	3,2085	43,2936	-0,699	77,492	0	1008,28	5,4	7,7	7,6	1	1	1	1	1	1	1	1	1	0	1	-66,314306	273,01912	248,718155	0
15.01.2021	01:02:43	0	0	3,163665	3,24375	48,834	-0,705	77,519	0	1008,22	5,4	7,7	7,6	1	1	1	1	1	1	1	1	1	0	1	-73,784355	273,021941	241,26113	0
15.01.2021	01:02:44	0	0	2,711713	3,32475	53,7228	-0,702	77,516	0	1008,2	5,4	7,7	7,6	1	1	1	1	1	1	1	1	1	0	1	-72,515856	272,968401	242,282577	0
15.01.2021	01:02:45	0	0	4,632565	3,57	62,8056	-0,7	77,547	0	1008,12	5,4	7,7	7,4	1	1	1	1	1	1	1	1	1	0	1	-75,052854	272,843587	239,17021	0
15.01.2021	01:02:46	0	0	3,615617	3,45525	77,9688	-0,701	77,551	0	1008,2	5,4	7,7	7,6	1	1	1	1	1	1	1	1	1	0	1	-72,022551	272,97403	242,801848	0
15.01.2021	01:02:47	0	0	2,937689	3,2145	51,4332	-0,702	77,536	0	1008,08	5,4	7,7	7,6	1	1	1	1	1	1	1	1	1	0	1	-67,794221	272,927642	246,816233	0
15.01.2021	01:02:48	0	0	4,067569	3,58275	42,606	-0,712	77,553	0	1008,18	5,4	7,7	7,6	1	1	1	1	1	1	1	1	1	0	1	-69,908386	272,875764	244,462934	0
15.01.2021	01:02:49	0	0	4,293545	3,951	50,67	-0,711	77,559	0	1008,02	5,4	7,7	7,6	1	1	1	1	1	1	1	1	1	0	1	-70,754052	273,030409	244,330517	0
15.01.2021	01:02:50	0	0	2,711713	3,96525	49,194	-0,704	77,561	0	1008,34	5,4	7,7	7,6	1	1	1	1	1	1	1	1	1	0	1	-66,596195	272,917816	247,968958	0
15.01.2021	01:02:51	0	0	3,050677	3,99675	42,2064	-0,707	77,556	0	1008,3	5,4	7,7	7,6	1	1	1	1	1	1	1	1	1	0	1	-71,106413	273,024763	243,952098	0
15.01.2021	01:02:52	0	0	2,372777	4,122	45,864	-0,709	77,556	0	1008,3	5,5	7,7	7,4	1	1	1	1	1	1	1	1	1	0	1	-69,485553	272,906593	245,02786	0
15.01.2021	01:02:53	0	0	4,067569	4,194	45,8604	-0,705	77,558	0	1008,08	5,4	7,7	7,6	1	1	1	1	1	1	1	1	1	0	1	-67,300916	272,849179	246,94791	0
15.01.2021	01:02:54	0	0	4,632509	4,30425	51,0732	-0,702	77,54	0	1008,18	5,4	7,7	7,6	1	1	1	1	1	1	1	1	1	0	1	-72,938689	272,840791	241,271497	0
15.01.2021	01:02:55	0	0	4,971473	4,401	46,9872	-0,702	77,55	0	1008,36	5,4	7,7	7,6	1	1	1	1	1	1	1	1	1	0	1	-75,475687	272,937472	239,180097	0
15.01.2021	01:02:56	0	0	3,841593	4,26075	51,4584	-0,705	77,556	0	1008,22	5,4	7,7	7,6	1	1	1	1	1	1	1	1	1	0	1	-71,67019	272,995152	243,251664	0
15.01.2021	01:02:57	0	0	2,824701	3,9	52,902	-0,708	77,563	0	1008,28	5,4	7,7	7,6	1	1	1	1	1	1	1	1	1	0	1	-73,643411	272,863167	240,66986	0
15.01.2021	01:02:58	0	0	4,971533	3,8685	42,93	-0,703	77,571	0	1008,3	5,4	7,7	7,4	1	1	1	1	1	1	1	1	1	0	1	-73,784355	272,926238	240,819626	0
15.01.2021	01:02:59	0	0	2,711713	3,942	41,4864	-0,704	77,585	0	1008,28	5,4	7,7	7,6	1	1	1	1	1	1	1	1	1	0	1	-70,401691	273,014888	244,611239	0
15.01.2021	01:03:00	0	0	3,276692	3,77925	37,7028	-0,712	77,576	0	1008,22	5,4	7,7	7,4	1	1	1	1	1	1	1	1	1	0	1	-66,948555	272,955742	247,791487	0
15.01.2021	01:03:01	0	0	4,180557	3,57825	46,2528	-0,708	77,591	0	1008,24	5,5	7,7	7,6	1	1	1	1	1	1	1	1	1	0	1	-70,68358	273,026174	244,381445	0
15.01.2021	01:03:02	0	0	4,180557	3,57825	46,2528	-0,708	77,591	0	1008,24	5,5	7,7	7,6	1	1	1	1	1	1	1	1	1	0	1	-70,68358	273,026174	244,381445	0
15.01.2021	01:03:03	0	0	4,632509	3,4755	47,3688	-0,71	77,593	0	1008,22	5,4	7,7	7,6	1	1	1	1	1	1	1	1	1	0	1	-66,032417	272,97403	248,791982	0
15.01.2021	01:03:04	0	0	3,502671	3,429	47,4012	-0,709	77,596	0	1008,14	5,4	7,7	7,4	1	1	1	1	1	1	1	1	1	0	1	-69,415081	272,976845	245,422305	0
15.01.2021	01:03:05	0	0	3,163703	3,37875	57,4344	-0,704	77,618	0	1008,34	5,5	7,7	7,4	1	1	1	1	1	1	1	1	1	0	1	-75,052854	273,009247	239,934043	0
15.01.2021	01:03:06	0	0	4,971533	3,3165	55,1808	-0,71	77,615	0	1008,18	5,4	7,7	7,4	1	1	1	1	1	1	1	1	1	0	1	-74,559549	272,993743	240,355804	0
15.01.2021	01:03:07	0	0	4,971533	3,5085	75,6108	-0,719	77,63	0	1008,18	5,4	7,7	7,4	1	1	1	1	1	1	1	1	1	0	1	-66,102889	272,957148	248,643639	0
15.01.2021	01:03:08	0	0	4,632509	3,64725	78,2892	-0,71	77,659	0	1008,22	5,4	7,7	7,6	1	1	1	1	1	1	1	1	1	0	1	-71,106413	272,972622	243,711494	0
15.01.2021	01:03:09	0	0	4,745497	3,50625	78,0372	-0,708	77,66	0	1008,22	5,5	7,7	7,6	1	1	1	1	1	1	1	1	1	0	1	-75,968992	272,835201	238,215446	0
15.01.2021	01:03:10	0	0	4,971473	3,15975	60,246	-0,708	77,673	0	1008,2	5,4	7,7	7,6	1	1	1	1	1	1	1	1	1	0	1	-74,630021	272,871564	239,721944	0
15.01.2021	01:03:11	0	0	4,519575	3,1425	61,704	-0,709	77,682	0	1008,26	5,5	7,7	7,4	1	1	1	1	1	1	1	1	1	0	1	-69,203665	272,954336	245,529893	0
15.01.2021	01:03:12	0	0	4,293596	3,474	72,7776	-0,722	77,69	0	1008,2	5,4	7,7	7,4	1	1	1	1	1	1	1	1	1	0	1	-72,727273	273,024763	242,331238	0
15.01.2021	01:03:13	0	0	3,841593	4,20225	54,4788	-0,711	77,699	0	1008,18	5,5	7,7	7,6	1	1	1	1	1	1	1	1	1	0	1	-71,247357	272,969808	243,557566	0
15.01.2021	01:03:14	0	0	5,084522	4,61325	51,4512	-0,71	77,691	0	1008,34	5,5	7,7	7,4	1	1	1	1	1	1	1	1	1	0	1	-69,485553	272,889771	244,95032	0
15.01.2021	01:03:15	0	0	4,067569	4,76925	58,4928	-0,712	77,693	0	1008,38	5,5	7,7	7,6	1	1	1	1	1	1	1	1	1	0	1	-71,247357	273,012067	243,752555	0
15.01.2021	01:03:16	0	0	4,632509	4,7805	59,85	-0,712	77,669	0	1008,22	5,5	7,7	7,6	1	1	1	1	1	1	1	1	1	0	1	-70,049331	272,962774	244,723145	0
15.01.2021	01:03:17	0	0	4,519575	4,515	55,5516	-0,714	77,67	0	1008,22	5,5	7,7	7,4	1	1	1	1	1	1	1	1	1	0	1	-69,908386	272,955742	244,831657	0
15.01.2021	01:03:18	0	0	4,519521	4,39425	50,3136	-0,707	77,662	0	1008,24	5,5	7,7	7,6	1	1	1	1	1	1	1	1	1	0	1	-67,0895	273,013478	247,916921	0
15.01.2021	01:03:19	0	0	2,937724	4,31325	55,9476	-0,711	77,671	0	1008,24	5,5	7,7	7,4	1	1	1	1	1	1	1	1	1	0	1	-71,67019	272,909398	242,856154	0
15.01.2021	01:03:20	0	0	4,745554	4,2315	53,46	-0,711	77,697	0	1008,34	5,5	7,7	7,4	1	1	1	1	1	1	1	1	1	0	1	-70,613108	272,817046	243,48771	0
15.01.2021	01:03:21	0	0	4,971533	4,07775	54,4968	-0,721	77,681	0	1008,18	5,5	7,7	7,4	1	1	1	1	1	1	1	1	1	0	1	-71,67019	272,884167	242,739855	0
15.01.2021	01:03:22	0	0	3,728649	4,053	58,4964	-0,71	77,69	0	1008,4	5,5	7,7	7,4	1	1	1	1	1	1	1	1	1	0	1	-74,700493	272,870164	239,645022	0
15.01.2021	01:03:23	0	0	4,745554	4,41825	60,5772	-0,718	77,673	0	1008,2	5,5	7,7	7,4	1	1	1	1	1	1	1	1	1	0	1	-63,84778	273,005018	251,119598	0
15.01.2021	01:03:24	0	0	2,937689	4,647	59,1372	-0,714	77,692	0	1008,2	5,4	7,7	7,6	1	1	1	1	1	1	1	1	1	0	1	-70,119803	272,895377	244,341908	0
15.01.2021	01:03:25	0	0	3,728605	4,51425	57,744	-0,713	77,688	0	1008,26	5,5	7,7	7,6	1	1	1	1	1	1	1	1	1	0	1	-76,109937	272,844985	238,119567	0
15.01.2021	01:03:26	0	0	3,163703	4,43475	55,1736	-0,72	77,736	0	1008,22	5,5	7,7	7,4	1	1	1	1	1	1	1	1	1	0	1	-73,995772	272,865965	240,330395	0
15.01.2021	01:03:27	0	0	3,954628	4,176	66,9024	-0,715	77,773	0	1008,24	5,5	7,7	7,4	1	1	1	1	1	1	1	1	1	0	1	-70,68358	272,954336	244,049978	0
15.01.2021	01:03:28	0	0	4,519575	4,1175	70,2108	-0,713	77,814	0	1008,24	5,5	7,7	7,4	1	1	1	1	1	1	1	1	1	0	1	-71,881607	272,842189	242,335018	0
15.01.2021	01:03:29	0	0	4,293545	4,15425	70,236	-0,708	77,863	0	1008,24	5,5	7,7	7,6	1	1	1	1	1	1	1	1	1	0	1	-70,754052	272,898181	243,720581	0
15.01.2021	01:03:30	0	0	2,485766	4,3845	68,7744	-0,712	77,915	0	1008,1	5,5	7,7	7,4	1	1	1	1	1	1	1	1	1	0	1	-76,039464	272,847781	238,20292	0
15.01.2021	01:03:31	0	0	4,406586	4,48125	55,5696	-0,712	77,946	0	1008,12	5,4	7,7	7,4	1	1	1	1	1	1	1	1	1	0	1	-74,630021	273,000789	240,317843	0
15.01.2021	01:03:32	0	0	4,858543	4,72125	67,6872	-0,711	78,005	0	1008,4	5,5	7,7	7,4	1	1	1	1	1	1	1	1	1	0	1	-68,217054	272,983884	246,652808	0
15.01.2021	01:03:33	0	0	3,841593	4,9605	73,8288	-0,714	78,011	0	1008,38	5,4	7,7	7,6	1	1	1	1	1	1	1	1	1	0	1	-74,91191	273,023352	240,140088	0
15.01.2021	01:03:34	0	0	4,858543	5,0715	72,2916	-0,709	78,058	0	1008,34	5,5	7,7	7,4	1	1	1	1	1	1	1	1	1	0	1	-70,472163	273,01912	244,560298	0
15.01.2021	01:03:35	0	0	3,502671	4,9065	67,6944	-0,713	78,073	0	1008,04	5,5	7,7	7,4	1	1	1	1	1	1	1	1	1	0	1	-73,9253	272,969808	240,879624	0
15.01.2021	01:03:36	0	0	2,485766	4,77225	64,26	-0,707	78,073	0	1008,16	5,5	7,7	7,4	1	1	1	1	1	1	1	1	1	0	1	-75,052854	273,030409	240,031715	0
15.01.2021	01:03:37	0	0	5,310501	4,719	70,6068	-0,703	78,079	0	1008,08	5,4	7,7	7,4	1	1	1	1	1	1	1	1	1	0	1	-69,415081	273,009247	245,571816	0
15.01.2021	01:03:38	0	0	2,937689	4,8045	70,9344	-0,706	78,068	0	1008,14	5,4	7,7	7,6	1	1	1	1	1	1	1	1	1	0	1	-70,754052	272,965587	244,031401	0
15.01.2021	01:03:39	0	0	2,711745	4,8645	76,8492	-0,712	78,059	0	1008,3	5,4	7,7	7,4	1	1	1	1	1	1	1	1	1	0	1	-67,935166	273,044529	247,214592	0
15.01.2021	01:03:40	0	0	3,389681	5,028	66,2256	-0,706	78,074	0	1008,34	5,5	7,7	7,4	1	1	1	1	1	1	1	1	1	0	1	-71,458774	272,875764	242,912546	0
15.01.2021	01:03:41	0	0	4,180607	5,2035	68,0112	-0,707	78,082	0	1008,5	5,5	7,7	7,4	1	1	1	1	1	1	1	1	1	0	1	-71,176885	272,950119	243,537222	0
15.01.2021	01:03:42	0	0	4,519575	5,2995	71,2368	-0,705	78,11	0	1008,28	5,5	7,7	7,4	1	1	1	1	1	1	1	1	1	0	1	-67,019027	273,053007	248,16987	0
15.01.2021	01:03:43	0	0	3,954581	5,10225	59,1084	-0,714	78,113	0	1008,22	5,4	7,7	7,6	1	1	1	1	1	1	1	1	1	0	1	-66,032417	272,898181	248,442216	0
15.01.2021	01:03:44	0	0	3,389661	5,256	66,564	-0,703	78,13	0	1008,24	5,4	7,7	7,5	1	1	1	1	1	1	1	1	1	0	1	-69,626498	273,016298	245,392942	0
15.01.2021	01:03:45	0	0	3,841639	5,25675	56,6748	-0,707	78,143	0	1008,12	5,4	7,7	7,4	1	1	1	1	1	1	1	1	1	0	1	-73,29105	273,040292	241,839145	0
15.01.2021	01:03:46	0	0	4,745554	5,2725	69,8652	-0,705	78,172	0	1008,14	5,4	7,7	7,4	1	1	1	1	1	1	1	1	1	0	1	-72,30444	272,879965	242,086241	0
15.01.2021	01:03:47	0	0	4,745554	5,30625	63,162	-0,709	78,187	0	1008,12	5,4	7,7	7,4	1	1	1	1	1	1	1	1	1	0	1	-71,247357	272,940282	243,421383	0
15.01.2021	01:03:48	0	0	3,615638	5,0235	71,6148	-0,71	78,191	0	1008,1	5,4	7,7	7,5	1	1	1	1	1	1	1	1	1	0	1	-79,844961	272,882766	234,558629	0
15.01.2021	01:03:49	0	0	4,406559	5,0505	74,988	-0,706	78,211	0	1008,24	5,5	7,6	7,5	1	1	1	1	1	1	1	1	1	0	1	-74,207188	273,041704	240,929527	0
15.01.2021	01:03:50	0	0	2,824701	4,989	71,2476	-0,703	78,214	0	1008,3	5,4	7,7	7,6	1	1	1	1	1	1	1	1	1	0	1	-73,431994	272,941687	241,243225	0
15.01.2021	01:03:51	0	0	4,745554	4,8285	70,8696	-0,704	78,211	0	1008,24	5,5	7,7	7,4	1	1	1	1	1	1	1	1	1	0	1	-73,713883	272,884167	240,696162	0
15.01.2021	01:03:52	0	0	4,180582	4,704	75,2472	-0,701	78,204	0	1008,12	5,4	7,7	7,5	1	1	1	1	1	1	1	1	1	0	1	-72,797745	273,048768	242,37158	0
15.01.2021	01:03:53	0	0	3,276692	4,65075	68,0184	-0,699	78,201	0	1008,18	5,4	7,7	7,4	1	1	1	1	1	1	1	1	1	0	1	-71,881607	273,013478	243,124814	0
15.01.2021	01:03:54	0	0	5,084522	4,4445	70,8768	-0,698	78,192	0	1008,2	5,5	7,7	7,4	1	1	1	1	1	1	1	1	1	0	1	-76,744186	272,933259	237,892167	0
15.01.2021	01:03:55	0	0	4,067618	4,365	75,2436	-0,695	78,186	0	1008,24	5,5	7,7	7,4	1	1	1	1	1	1	1	1	1	0	1	-76,250881	272,957148	238,495647	0
15.01.2021	01:03:56	0	0	4,745554	4,36575	63,1728	-0,698	78,178	0	1008,32	5,5	7,7	7,4	1	1	1	1	1	1	1	1	1	0	1	-70,119803	272,903789	244,380682	0
15.01.2021	01:03:57	0	0	3,841616	4,2045	39,8952	-0,699	78,162	0	1008,26	5,4	7,7	7,5	1	1	1	1	1	1	1	1	1	0	1	-69,485553	272,926238	245,118427	0
15.01.2021	01:03:58	0	0	4,293596	3,924	49,2156	-0,694	78,173	0	1008,22	5,4	7,7	7,4	1	1	1	1	1	1	1	1	1	0	1	-74,418605	272,969808	240,386319	0
15.01.2021	01:03:59	0	0	4,632565	3,73575	50,6808	-0,698	78,152	0	1008,2	5,4	7,7	7,4	1	1	1	1	1	1	1	1	1	0	1	-71,740662	272,909398	242,785682	0
15.01.2021	01:04:00	0	0	4,858543	3,74775	56,2824	-0,691	78,152	0	1008,16	5,4	7,7	7,4	1	1	1	1	1	1	1	1	1	0	1	-75,334743	273,075631	239,958632	0
15.01.2021	01:04:01	0	0	3,276692	3,62325	63,1944	-0,698	78,124	0	1008,2	5,4	7,7	7,4	1	1	1	1	1	1	1	1	1	0	1	-69,203665	273,005018	245,763714	0
15.01.2021	01:04:02	0	0	3,276692	3,62325	63,1944	-0,698	78,124	0	1008,2	5,4	7,7	7,4	1	1	1	1	1	1	1	1	1	0	1	-69,203665	273,005018	245,763714	0
15.01.2021	01:04:03	0	0	2,711745	3,4215	54,8136	-0,691	78,137	0	1008,4	5,4	7,7	7,4	1	1	1	1	1	1	1	1	1	0	1	-69,837914	273,0997	245,566632	0
15.01.2021	01:04:04	0	0	3,954628	3,04425	58,878	-0,694	78,128	0	1008,14	5,4	7,7	7,4	1	1	1	1	1	1	1	1	1	0	1	-69,556025	273,064316	245,685092	0
15.01.2021	01:04:05	0	0	4,858485	2,6985	49,2156	-0,691	78,139	0	1008,22	5,4	7,7	7,6	1	1	1	1	1	1	1	1	1	0	1	-72,515856	272,947308	242,185286	0
15.01.2021	01:04:06	0	0	4,858543	2,583	43,3008	-0,691	78,139	0	1008,2	5,4	7,7	7,4	1	1	1	1	1	1	1	1	1	0	1	-74,418605	272,938877	240,243657	0
15.01.2021	01:04:07	0	0	2,598756	2,409	34,3404	-0,689	78,135	0	1008,26	5,4	7,7	7,4	1	1	1	1	1	1	1	1	1	0	1	-72,233968	272,92343	242,357068	0
15.01.2021	01:04:08	0	0	2,824718	2,38125	44,3952	-0,692	78,138	0	1008,26	5,4	7,7	7,5	1	1	1	1	1	1	1	1	1	0	1	-74,066244	273,047355	241,096558	0
15.01.2021	01:04:09	0	0	3,954628	2,4225	48,8412	-0,689	78,108	0	1008,24	5,4	7,7	7,4	1	1	1	1	1	1	1	1	1	0	1	-72,868217	272,937472	241,787567	0
15.01.2021	01:04:10	0	0	3,728649	2,4645	54,4824	-0,69	78,125	0	1008,2	5,4	7,7	7,4	1	1	1	1	1	1	1	1	1	0	1	-74,700493	272,958555	240,052521	0
15.01.2021	01:04:11	0	0	2,59874	2,451	54,4932	-0,688	78,117	0	1008,28	5,4	7,7	7,5	1	1	1	1	1	1	1	1	1	0	1	-73,995772	273,009247	240,991125	0
15.01.2021	01:04:12	0	0	3,954628	2,38425	50,3244	-0,684	78,143	0	1008,28	5,4	7,7	7,4	1	1	1	1	1	1	1	1	1	0	1	-70,542636	273,113871	244,927384	0
15.01.2021	01:04:13	0	0	4,406586	2,3265	54,486	-0,688	78,12	0	1008,08	5,4	7,6	7,4	1	1	1	1	1	1	1	1	1	0	1	-73,009161	273,003608	241,951712	0
15.01.2021	01:04:14	0	0	3,502671	2,277	70,6176	-0,683	78,137	0	1008,3	5,4	7,7	7,4	1	1	1	1	1	1	1	1	1	0	1	-73,854827	272,948713	240,852797	0
15.01.2021	01:04:15	0	0	4,406586	2,457	91,1628	-0,681	78,147	0	1008,3	5,4	7,7	7,4	1	1	1	1	1	1	1	1	1	0	1	-71,952079	273,108201	243,491744	0
15.01.2021	01:04:16	0	0	2,711713	2,63025	82,35	-0,688	78,133	0	1008,18	5,4	7,7	7,6	1	1	1	1	1	1	1	1	1	0	1	-71,740662	273,034644	243,363457	0
15.01.2021	01:04:17	0	0	3,050713	2,6025	58,8888	-0,681	78,128	0	1008,18	5,6	7,7	7,4	1	1	1	1	1	1	1	1	1	0	1	-65,961945	272,943092	248,719754	0
15.01.2021	01:04:18	0	0	4,293571	2,72925	76,8312	-0,684	78,131	0	1008,02	5,4	7,7	7,5	1	1	1	1	1	1	1	1	1	0	1	-74,700493	273,081292	240,619024	0
15.01.2021	01:04:19	0	0	3,728649	2,86125	93,3624	-0,677	78,149	0	1008,4	5,4	7,7	7,4	1	1	1	1	1	1	1	1	1	0	1	-69,837914	272,954336	244,895644	0
15.01.2021	01:04:20	0	0	4,632565	2,86125	68,4108	-0,682	78,132	0	1008,36	5,4	7,7	7,4	1	1	1	1	1	1	1	1	1	0	1	-71,247357	272,941687	243,427862	0
15.01.2021	01:04:21	0	0	4,406586	2,634	49,95	-0,673	78,144	0	1008,22	5,4	7,7	7,4	1	1	1	1	1	1	1	1	1	0	1	-72,797745	273,084123	242,534848	0
15.01.2021	01:04:22	0	0	3,728649	2,68425	65,1024	-0,673	78,143	0	1008,18	5,4	7,7	7,4	1	1	1	1	1	1	1	1	1	0	1	-69,415081	273,126635	246,113915	0
15.01.2021	01:04:23	0	0	3,841639	2,751	65,0808	-0,672	78,133	0	1008,14	5,4	7,7	7,4	1	1	1	1	1	1	1	1	1	0	1	-66,666667	272,969808	248,138257	0
15.01.2021	01:04:24	0	0	4,632565	2,97825	70,6248	-0,668	78,135	0	1008,44	5,6	7,7	7,4	1	1	1	1	1	1	1	1	1	0	1	-72,093023	273,060074	243,128508	0
15.01.2021	01:04:25	0	0	3,841616	2,988	64,656	-0,67	78,112	0	1008,04	5,4	7,7	7,5	1	1	1	1	1	1	1	1	1	0	1	-75,193798	272,951525	239,526791	0
15.01.2021	01:04:26	0	0	5,084461	3,0765	80,5104	-0,669	78,109	0	1008,34	5,4	7,7	7,6	1	1	1	1	1	1	1	1	1	0	1	-68,287526	273,033232	246,810076	0
15.01.2021	01:04:27	0	0	4,745554	3,10125	71,6148	-0,67	78,101	0	1008,22	5,6	7,7	7,4	1	1	1	1	1	1	1	1	1	0	1	-81,395349	273,145086	234,218919	0
15.01.2021	01:04:28	0	0	3,276692	2,973	65,4804	-0,666	78,082	0	1008,16	5,6	7,7	7,4	1	1	1	1	1	1	1	1	1	0	1	-74,559549	273,061488	240,66851	0
15.01.2021	01:04:29	0	0	4,971533	2,91	61,6932	-0,672	78,047	0	1008,12	5,6	7,7	7,4	1	1	1	1	1	1	1	1	1	0	1	-73,643411	272,948713	241,064213	0
15.01.2021	01:04:30	0	0	4,293596	3,036	65,0808	-0,67	78,035	0	1008,24	5,6	7,7	7,4	1	1	1	1	1	1	1	1	1	0	1	-69,133192	273,03888	245,990483	0
15.01.2021	01:04:31	0	0	4,745554	3,15825	54,126	-0,663	78,022	0	1007,98	5,6	7,7	7,4	1	1	1	1	1	1	1	1	1	0	1	-72,868217	272,966994	241,923726	0
15.01.2021	01:04:32	0	0	4,067618	3,3555	79,038	-0,666	78,015	0	1008,14	5,6	7,7	7,4	1	1	1	1	1	1	1	1	1	0	1	-71,811135	273,094034	243,567238	0
15.01.2021	01:04:33	0	0	3,728649	3,4215	70,8696	-0,662	77,994	0	1008,24	5,6	7,7	7,4	1	1	1	1	1	1	1	1	1	0	1	-71,881607	273,05018	243,294242	0
15.01.2021	01:04:34	0	0	3,841593	3,50625	60,948	-0,666	77,965	0	1008,2	5,6	7,7	7,6	1	1	1	1	1	1	1	1	1	0	1	-76,603242	273,129473	238,938867	0
15.01.2021	01:04:35	0	0	3,163703	3,51525	63,18	-0,666	77,941	0	1008,16	5,6	7,7	7,4	1	1	1	1	1	1	1	1	1	0	1	-70,894996	272,997971	244,039862	0
15.01.2021	01:04:36	0	0	3,389661	3,477	60,2424	-0,662	77,933	0	1008,24	5,6	7,7	7,5	1	1	1	1	1	1	1	1	1	0	1	-69,415081	272,988109	245,474274	0
15.01.2021	01:04:37	0	0	2,937689	3,447	58,4856	-0,66	77,905	0	1008,2	5,6	7,7	7,6	1	1	1	1	1	1	1	1	1	0	1	-75,334743	272,954336	239,398815	0
15.01.2021	01:04:38	0	0	3,276692	3,612	65,4768	-0,667	77,883	0	1008,28	5,6	7,7	7,4	1	1	1	1	1	1	1	1	1	0	1	-74,27766	273,03182	240,813425	0
15.01.2021	01:04:39	0	0	4,406533	3,543	75,6288	-0,66	77,856	0	1008	5,6	7,7	7,6	1	1	1	1	1	1	1	1	1	0	1	-70,754052	272,965587	244,031401	0
15.01.2021	01:04:40	0	0	4,858543	3,4395	73,7928	-0,661	77,83	0	1008,16	5,6	7,7	7,4	1	1	1	1	1	1	1	1	1	0	1	-70,401691	273,045942	244,754588	0
15.01.2021	01:04:41	0	0	3,61566	3,29925	74,5488	-0,661	77,819	0	1008,4	5,6	7,7	7,4	1	1	1	1	1	1	1	1	1	0	1	-73,150106	272,997971	241,784753	0
15.01.2021	01:04:42	0	0	4,632537	3,1425	75,6144	-0,656	77,798	0	1008,2	5,6	7,7	7,5	1	1	1	1	1	1	1	1	1	0	1	-68,639887	272,950119	246,074219	0
15.01.2021	01:04:43	0	0	2,598756	3,15675	72,2988	-0,665	77,768	0	1008,18	5,6	7,7	7,4	1	1	1	1	1	1	1	1	1	0	1	-73,150106	273,012067	241,849807	0
15.01.2021	01:04:44	0	0	3,163703	3,09375	90,4176	-0,656	77,754	0	1008,32	5,6	7,7	7,4	1	1	1	1	1	1	1	1	1	0	1	-72,093023	273,135149	243,475317	0
15.01.2021	01:04:45	0	0	2,598725	3,327	85,2912	-0,662	77,726	0	1008,18	5,6	7,7	7,6	1	1	1	1	1	1	1	1	1	0	1	-69,415081	273,026174	245,649944	0
15.01.2021	01:04:46	0	0	3,954628	3,57	87,3504	-0,653	77,727	0	1008,14	5,6	7,7	7,4	1	1	1	1	1	1	1	1	1	0	1	-72,30444	273,139407	243,28358	0
15.01.2021	01:04:47	0	0	4,519521	3,47175	86,9688	-0,665	77,71	0	1008,22	5,6	7,7	7,6	1	1	1	1	1	1	1	1	1	0	1	-74,770965	273,105367	240,659763	0
15.01.2021	01:04:48	0	0	3,050713	3,14475	63,9504	-0,659	77,692	0	1008,34	5,6	7,7	7,4	1	1	1	1	1	1	1	1	1	0	1	-71,740662	273,082707	243,585392	0
15.01.2021	01:04:49	0	0	3,841593	3,03525	77,9508	-0,659	77,676	0	1008,14	5,6	7,7	7,6	1	1	1	1	1	1	1	1	1	0	1	-72,656801	272,983884	242,213061	0
15.01.2021	01:04:50	0	0	3,841639	2,88825	68,0076	-0,657	77,676	0	1008,24	5,5	7,7	7,4	1	1	1	1	1	1	1	1	1	0	1	-76,603242	273,145086	239,011026	0
15.01.2021	01:04:51	0	0	2,711745	2,92125	71,2404	-0,661	77,665	0	1008,24	5,6	7,7	7,4	1	1	1	1	1	1	1	1	1	0	1	-70,401691	273,102533	245,015945	0
15.01.2021	01:04:52	0	0	4,858543	2,919	60,2316	-0,659	77,649	0	1008,12	5,6	7,7	7,4	1	1	1	1	1	1	1	1	1	0	1	-74,700493	273,0997	240,704053	0
15.01.2021	01:04:53	0	0	3,728649	2,9625	63,4932	-0,659	77,642	0	1008,26	5,6	7,7	7,4	1	1	1	1	1	1	1	1	1	0	1	-66,032417	273,078461	249,274028	0
15.01.2021	01:04:54	0	0	4,293596	3,045	64,2492	-0,663	77,63	0	1008,2	5,6	7,7	7,4	1	1	1	1	1	1	1	1	1	0	1	-70,613108	273,137988	244,968351	0
15.01.2021	01:04:55	0	0	2,937724	2,86875	74,9232	-0,654	77,623	0	1008,3	5,6	7,7	7,4	1	1	1	1	1	1	1	1	1	0	1	-72,374912	273,106784	243,062363	0
15.01.2021	01:04:56	0	0	4,519521	2,6565	69,1632	-0,651	77,613	0	1008,36	5,5	7,7	7,6	1	1	1	1	1	1	1	1	1	0	1	-69,767442	273,118125	245,722231	0
15.01.2021	01:04:57	0	0	3,050713	2,63325	69,1416	-0,657	77,607	0	1008,26	5,6	7,7	7,4	1	1	1	1	1	1	1	1	1	0	1	-72,586328	273,109619	242,864043	0
15.01.2021	01:04:58	0	0	4,745554	2,6235	71,6184	-0,657	77,587	0	1008,16	5,6	7,7	7,4	1	1	1	1	1	1	1	1	1	0	1	-69,133192	273,002198	245,821176	0
15.01.2021	01:04:59	0	0	4,858543	2,5905	45,144	-0,651	77,569	0	1008,22	5,6	7,7	7,4	1	1	1	1	1	1	1	1	1	0	1	-71,247357	273,135149	244,320983	0
15.01.2021	01:05:00	0	0	4,858485	2,50275	70,8696	-0,653	77,541	0	1008,18	5,6	7,7	7,6	1	1	1	1	1	1	1	1	1	0	1	-69,274137	272,995152	245,647718	0
15.01.2021	01:05:01	0	0	4,858485	2,38725	70,5996	-0,656	77,529	0	1008,22	5,6	7,7	7,6	1	1	1	1	1	1	1	1	1	0	1	-76,955603	272,969808	237,849321	0
15.01.2021	01:05:02	0	0	4,858485	2,38725	70,5996	-0,656	77,529	0	1008,22	5,6	7,7	7,6	1	1	1	1	1	1	1	1	1	0	1	-76,955603	272,969808	237,849321	0
15.01.2021	01:05:03	0	0	3,728605	2,4525	88,2072	-0,656	77,502	0	1008,22	5,6	7,7	7,6	1	1	1	1	1	1	1	1	1	0	1	-66,807611	273,033232	248,289991	0
15.01.2021	01:05:04	0	0	3,728605	2,5245	70,2108	-0,657	77,48	0	1008,26	5,6	7,7	7,6	1	1	1	1	1	1	1	1	1	0	1	-71,881607	273,139407	243,706413	0
15.01.2021	01:05:05	0	0	4,971473	2,72775	78,6744	-0,655	77,459	0	1008,08	5,6	7,7	7,6	1	1	1	1	1	1	1	1	1	0	1	-69,415081	273,094034	245,963292	0
15.01.2021	01:05:06	0	0	2,824701	2,8215	71,9928	-0,662	77,453	0	1008,24	5,6	7,7	7,6	1	1	1	1	1	1	1	1	1	0	1	-73,361522	273,129473	242,180586	0
15.01.2021	01:05:07	0	0	4,858485	2,691	75,978	-0,657	77,46	0	1008,16	5,6	7,7	7,6	1	1	1	1	1	1	1	1	1	0	1	-73,995772	273,112454	241,467698	0
15.01.2021	01:05:08	0	0	4,632509	2,4765	52,1244	-0,655	77,468	0	1008,14	5,6	7,7	7,6	1	1	1	1	1	1	1	1	1	0	1	-74,630021	272,975437	240,200871	0
15.01.2021	01:05:09	0	0	3,728649	2,56875	60,2496	-0,647	77,466	0	1008,14	5,6	7,7	7,4	1	1	1	1	1	1	1	1	1	0	1	-70,894996	272,965587	243,890457	0
15.01.2021	01:05:10	0	0	3,276653	2,7315	65,0664	-0,656	77,458	0	1008,62	5,6	7,7	7,6	1	1	1	1	1	1	1	1	1	0	1	-69,908386	273,027586	245,163153	0
15.01.2021	01:05:11	0	0	4,519521	2,6415	70,2216	-0,651	77,464	0	1008,28	5,6	7,7	7,6	1	1	1	1	1	1	1	1	1	0	1	-70,331219	273,140827	245,263362	0
15.01.2021	01:05:12	0	0	4,293545	2,82225	84,4524	-0,656	77,445	0	1008,14	5,6	7,7	7,6	1	1	1	1	1	1	1	1	1	0	1	-69,908386	273,120961	245,594392	0
15.01.2021	01:05:13	0	0	2,824701	2,90175	85,9104	-0,659	77,461	0	1008,16	5,4	7,7	7,6	1	1	1	1	1	1	1	1	1	0	1	-69,908386	273,033232	245,189216	0
15.01.2021	01:05:14	0	0	4,745497	3,00375	81,9828	-0,661	77,464	0	1008,4	5,6	7,7	7,6	1	1	1	1	1	1	1	1	1	0	1	-75,193798	273,137988	240,387661	0
15.01.2021	01:05:15	0	0	2,711745	3,02325	83,3544	-0,654	77,473	0	1008,32	5,6	7,7	7,4	1	1	1	1	1	1	1	1	1	0	1	-67,159972	272,985292	247,716387	0
15.01.2021	01:05:16	0	0	4,858485	3,00225	80,5104	-0,658	77,466	0	1008,2	5,6	7,7	7,6	1	1	1	1	1	1	1	1	1	0	1	-73,220578	273,0997	242,183968	0
15.01.2021	01:05:17	0	0	4,745497	2,97	76,3884	-0,652	77,459	0	1008,44	5,6	7,7	7,6	1	1	1	1	1	1	1	1	1	0	1	-68,780832	273,146506	246,84	0
15.01.2021	01:05:18	0	0	2,824734	3,033	74,9304	-0,654	77,464	0	1008,26	5,5	7,7	7,4	1	1	1	1	1	1	1	1	1	0	1	-72,022551	273,075631	243,270824	0
15.01.2021	01:05:19	0	0	3,841593	2,9775	69,8688	-0,659	77,431	0	1008,02	5,6	7,7	7,6	1	1	1	1	1	1	1	1	1	0	1	-70,824524	273,140827	244,770057	0
15.01.2021	01:05:20	0	0	4,971533	2,922	68,4072	-0,657	77,44	0	1008,18	5,6	7,7	7,4	1	1	1	1	1	1	1	1	1	0	1	-72,093023	273,115289	243,383547	0
15.01.2021	01:05:21	0	0	3,615617	2,832	62,7948	-0,656	77,446	0	1008,28	5,6	7,7	7,6	1	1	1	1	1	1	1	1	1	0	1	-77,942213	273,03182	237,148873	0
15.01.2021	01:05:22	0	0	5,197449	2,7855	71,6184	-0,657	77,447	0	1008,18	5,6	7,7	7,6	1	1	1	1	1	1	1	1	1	0	1	-69,69697	272,976845	245,140416	0
15.01.2021	01:05:23	0	0	3,276692	2,6655	61,7004	-0,651	77,442	0	1008,26	5,6	7,7	7,4	1	1	1	1	1	1	1	1	1	0	1	-69,06272	272,955742	245,677323	0
15.01.2021	01:05:24	0	0	3,389641	2,4885	62,802	-0,652	77,429	0	1008,3	5,6	7,7	7,6	1	1	1	1	1	1	1	1	1	0	1	-75,616631	273,094034	239,761741	0
15.01.2021	01:05:25	0	0	2,485736	2,41275	74,178	-0,658	77,419	0	1008,02	5,6	7,7	7,6	1	1	1	1	1	1	1	1	1	0	1	-74,91191	272,955742	239,828133	0
15.01.2021	01:05:26	0	0	3,954581	2,5395	67,698	-0,66	77,41	0	1008,26	5,6	7,7	7,6	1	1	1	1	1	1	1	1	1	0	1	-71,035941	273,089786	244,322808	0
15.01.2021	01:05:27	0	0	4,858485	2,6565	79,4124	-0,663	77,392	0	1008,32	5,6	7,7	7,6	1	1	1	1	1	1	1	1	1	0	1	-71,529246	272,981068	243,327624	0
15.01.2021	01:05:28	0	0	3,841593	2,7135	70,704	-0,66	77,39	0	1008,16	5,6	7,7	7,6	1	1	1	1	1	1	1	1	1	0	1	-71,176885	273,062902	244,057703	0
15.01.2021	01:05:29	0	0	4,067569	2,7675	68,7888	-0,656	77,383	0	1008,32	5,6	7,7	7,6	1	1	1	1	1	1	1	1	1	0	1	-70,754052	272,959961	244,005449	0
15.01.2021	01:05:30	0	0	4,293545	2,748	69,4908	-0,658	77,375	0	1008,18	5,6	7,7	7,6	1	1	1	1	1	1	1	1	1	0	1	-73,713883	272,976845	241,123503	0
15.01.2021	01:05:31	0	0	4,067569	2,7	73,8072	-0,662	77,355	0	1008,12	5,6	7,7	7,6	1	1	1	1	1	1	1	1	1	0	1	-72,656801	272,975437	242,174091	0
15.01.2021	01:05:32	0	0	4,745554	2,66925	62,7912	-0,659	77,349	0	1008,18	5,6	7,7	7,4	1	1	1	1	1	1	1	1	1	0	1	-73,431994	273,139407	242,156026	0
15.01.2021	01:05:33	0	0	3,276653	2,60325	68,7888	-0,663	77,35	0	1008,14	5,6	7,7	7,6	1	1	1	1	1	1	1	1	1	0	1	-69,908386	273,016298	245,111054	0
15.01.2021	01:05:34	0	0	2,824701	2,47125	69,4764	-0,657	77,336	0	1008,14	5,6	7,7	7,6	1	1	1	1	1	1	1	1	1	0	1	-73,854827	272,996561	241,073529	0
15.01.2021	01:05:35	0	0	4,971473	2,3085	64,2528	-0,662	77,346	0	1008,22	5,6	7,7	7,6	1	1	1	1	1	1	1	1	1	0	1	-69,978858	273,13373	245,582923	0
15.01.2021	01:05:36	0	0	5,084461	2,16	57,4272	-0,657	77,331	0	1008,2	5,6	7,7	7,6	1	1	1	1	1	1	1	1	1	0	1	-67,653277	273,069973	247,613965	0
15.01.2021	01:05:37	0	0	2,824701	2,00175	57,4344	-0,655	77,339	0	1008,22	5,6	7,7	7,6	1	1	1	1	1	1	1	1	1	0	1	-70,68358	273,142247	244,917563	0
15.01.2021	01:05:38	0	0	4,519521	1,87275	60,2316	-0,663	77,332	0	1008,24	5,6	7,7	7,6	1	1	1	1	1	1	1	1	1	0	1	-69,69697	273,072802	245,583337	0
15.01.2021	01:05:39	0	0	3,389641	1,81575	59,8752	-0,661	77,331	0	1008,26	5,6	7,7	7,6	1	1	1	1	1	1	1	1	1	0	1	-79,633545	273,016298	235,385895	0
15.01.2021	01:05:40	0	0	3,050713	1,875	57,042	-0,663	77,328	0	1008,22	5,6	7,7	7,4	1	1	1	1	1	1	1	1	1	0	1	-72,30444	272,947308	242,396702	0
15.01.2021	01:05:41	0	0	3,389641	1,83375	54,1152	-0,654	77,335	0	1008,2	5,6	7,7	7,6	1	1	1	1	1	1	1	1	1	0	1	-69,626498	273,067144	245,627681	0
15.01.2021	01:05:42	0	0	4,858543	1,63125	69,1632	-0,657	77,334	0	1008,2	5,6	7,7	7,4	1	1	1	1	1	1	1	1	1	0	1	-71,881607	273,125216	243,640834	0
15.01.2021	01:05:43	0	0	4,180557	1,52325	72,684	-0,66	77,316	0	1008,36	5,6	7,7	7,6	1	1	1	1	1	1	1	1	1	0	1	-72,797745	273,086954	242,547925	0
15.01.2021	01:05:44	0	0	4,519521	1,428	68,0508	-0,657	77,311	0	1008,22	5,6	7,7	7,6	1	1	1	1	1	1	1	1	1	0	1	-73,9253	273,010657	241,068105	0
15.01.2021	01:05:45	0	0	2,711713	1,48275	80,1612	-0,669	77,305	0	1008,1	5,6	7,7	7,6	1	1	1	1	1	1	1	1	1	0	1	-72,586328	273,129473	242,95578	0
15.01.2021	01:05:46	0	0	2,598725	1,53975	73,818	-0,662	77,311	0	1008,14	5,6	7,7	7,6	1	1	1	1	1	1	1	1	1	0	1	-71,247357	273,072802	244,03295	0
15.01.2021	01:05:47	0	0	2,824701	1,62375	74,9448	-0,66	77,325	0	1008,04	5,4	7,7	7,6	1	1	1	1	1	1	1	1	1	0	1	-72,445384	273,139407	243,142636	0
15.01.2021	01:05:48	0	0	2,598725	1,76625	69,1668	-0,669	77,315	0	1008,3	5,6	7,7	7,6	1	1	1	1	1	1	1	1	1	0	1	-75,828048	273,006427	239,145836	0
15.01.2021	01:05:49	0	0	2,711713	1,8165	69,8616	-0,661	77,328	0	1008,2	5,6	7,7	7,6	1	1	1	1	1	1	1	1	1	0	1	-72,374912	273,108201	243,068911	0
15.01.2021	01:05:50	0	0	4,858485	1,86075	66,5388	-0,664	77,321	0	1008,18	5,6	7,7	7,6	1	1	1	1	1	1	1	1	1	0	1	-72,797745	272,951525	241,922845	0
15.01.2021	01:05:51	0	0	3,841593	1,905	58,8852	-0,661	77,325	0	1008,22	5,6	7,7	7,6	1	1	1	1	1	1	1	1	1	0	1	-75,968992	273,075631	239,324383	0
15.01.2021	01:05:52	0	0	4,519521	2,0265	73,44	-0,67	77,307	0	1008,06	5,6	7,7	7,6	1	1	1	1	1	1	1	1	1	0	1	-69,626498	273,128054	245,909054	0
15.01.2021	01:05:53	0	0	2,824701	2,103	74,1816	-0,665	77,3	0	1008,24	5,6	7,7	7,6	1	1	1	1	1	1	1	1	1	0	1	-71,035941	272,982476	243,827425	0
15.01.2021	01:05:54	0	0	3,841593	2,1375	70,2504	-0,661	77,271	0	1007,96	5,6	7,7	7,6	1	1	1	1	1	1	1	1	1	0	1	-74,348132	272,97966	240,502242	0
15.01.2021	01:05:55	0	0	2,937689	2,178	74,5452	-0,661	77,264	0	1008,34	5,6	7,7	7,6	1	1	1	1	1	1	1	1	1	0	1	-73,9253	273,13231	241,629923	0
15.01.2021	01:05:56	0	0	2,824701	2,151	68,4144	-0,67	77,229	0	1008,14	5,6	7,7	7,6	1	1	1	1	1	1	1	1	1	0	1	-73,079634	272,990926	241,822719	0
15.01.2021	01:05:57	0	0	5,423425	2,1225	73,8108	-0,669	77,222	0	1008,3	5,6	7,7	7,6	1	1	1	1	1	1	1	1	1	0	1	-70,965469	273,064316	244,275649	0
15.01.2021	01:05:58	0	0	3,615617	2,328	64,2348	-0,665	77,191	0	1008,34	5,6	7,7	7,6	1	1	1	1	1	1	1	1	1	0	1	-72,30444	272,958555	242,448575	0
15.01.2021	01:05:59	0	0	3,050677	2,58375	63,4824	-0,676	77,154	0	1008,24	5,4	7,7	7,6	1	1	1	1	1	1	1	1	1	0	1	-73,361522	273,101116	242,049568	0
15.01.2021	01:06:00	0	0	4,745497	2,565	58,4748	-0,668	77,113	0	1008,22	5,6	7,7	7,6	1	1	1	1	1	1	1	1	1	0	1	-70,754052	273,096866	244,637406	0
15.01.2021	01:06:01	0	0	3,615617	2,57775	58,8852	-0,676	77,096	0	1008,2	5,6	7,7	7,6	1	1	1	1	1	1	1	1	1	0	1	-73,431994	273,075631	241,861381	0
15.01.2021	01:06:02	0	0	3,615617	2,57775	58,8852	-0,676	77,096	0	1008,2	5,6	7,7	7,6	1	1	1	1	1	1	1	1	1	0	1	-73,431994	273,075631	241,861381	0
15.01.2021	01:06:03	0	0	5,536413	2,5605	78,6744	-0,666	77,081	0	1008,32	5,4	7,7	7,6	1	1	1	1	1	1	1	1	1	0	1	-72,656801	272,947308	242,044341	0
15.01.2021	01:06:04	0	0	2,824701	2,46075	73,4292	-0,674	77,058	0	1008,18	5,6	7,7	7,6	1	1	1	1	1	1	1	1	1	0	1	-76,109937	272,965587	238,675517	0
15.01.2021	01:06:05	0	0	5,42349	2,47575	70,3152	-0,669	77,052	0	1008,12	5,6	7,7	7,4	1	1	1	1	1	1	1	1	1	0	1	-70,119803	273,12238	245,389529	0
15.01.2021	01:06:06	0	0	2,824701	2,445	74,556	-0,676	77,029	0	1008,24	5,6	7,7	7,6	1	1	1	1	1	1	1	1	1	0	1	-72,093023	272,950119	242,621083	0
15.01.2021	01:06:07	0	0	5,197511	2,481	69,48	-0,678	76,998	0	1008,08	5,6	7,7	7,4	1	1	1	1	1	1	1	1	1	0	1	-71,458774	273,055833	243,743175	0
15.01.2021	01:06:08	0	0	2,485736	2,48775	86,9832	-0,676	77,014	0	1008,32	5,6	7,7	7,6	1	1	1	1	1	1	1	1	1	0	1	-76,814658	273,112454	238,648811	0
15.01.2021	01:06:09	0	0	4,067569	2,57325	68,4072	-0,675	76,991	0	1008,16	5,4	7,7	7,6	1	1	1	1	1	1	1	1	1	0	1	-71,952079	273,123798	243,563807	0
15.01.2021	01:06:10	0	0	5,084461	2,67525	71,6004	-0,678	76,99	0	1008,3	5,6	7,7	7,6	1	1	1	1	1	1	1	1	1	0	1	-69,767442	273,08837	245,584767	0
15.01.2021	01:06:11	0	0	2,372777	2,9415	65,8476	-0,677	76,966	0	1008,24	5,6	7,7	7,4	1	1	1	1	1	1	1	1	1	0	1	-73,9253	273,113871	241,54472	0
15.01.2021	01:06:12	0	0	4,293545	2,97525	65,8584	-0,676	76,989	0	1008,3	5,6	7,7	7,6	1	1	1	1	1	1	1	1	1	0	1	-70,894996	273,112454	244,568473	0
15.01.2021	01:06:13	0	0	3,954581	2,99325	66,5568	-0,68	77,001	0	1008,2	5,4	7,7	7,6	1	1	1	1	1	1	1	1	1	0	1	-70,401691	273,027586	244,669848	0
15.01.2021	01:06:14	0	0	4,632509	3,06525	72,2988	-0,684	76,992	0	1008,22	5,6	7,7	7,6	1	1	1	1	1	1	1	1	1	0	1	-70,472163	273,112454	244,991306	0
15.01.2021	01:06:15	0	0	4,632509	3,03075	73,098	-0,68	77,029	0	1008,32	5,6	7,7	7,6	1	1	1	1	1	1	1	1	1	0	1	-75,616631	273,067144	239,637547	0
15.01.2021	01:06:16	0	0	5,310437	3,0795	80,6004	-0,676	77,032	0	1008,26	5,6	7,7	7,6	1	1	1	1	1	1	1	1	1	0	1	-66,525722	273,113871	248,944297	0
15.01.2021	01:06:17	0	0	4,632509	3,1455	77,9688	-0,682	77,041	0	1008,3	5,6	7,7	7,6	1	1	1	1	1	1	1	1	1	0	1	-80,549683	273,105367	234,881045	0
15.01.2021	01:06:18	0	0	2,711713	3,147	66,9348	-0,686	77,055	0	1008,28	5,6	7,7	7,6	1	1	1	1	1	1	1	1	1	0	1	-75,828048	273,013478	239,178373	0
15.01.2021	01:06:19	0	0	4,858485	3,23775	72,2988	-0,685	77,054	0	1008,28	5,4	7,7	7,6	1	1	1	1	1	1	1	1	1	0	1	-68,428471	273,115289	247,048099	0
15.01.2021	01:06:20	0	0	4,519521	3,25875	76,8276	-0,686	77,091	0	1008,28	5,4	7,7	7,6	1	1	1	1	1	1	1	1	1	0	1	-73,995772	273,101116	241,415319	0
15.01.2021	01:06:21	0	0	4,519521	3,19575	62,4384	-0,686	77,098	0	1008,32	5,6	7,7	7,6	1	1	1	1	1	1	1	1	1	0	1	-66,737139	272,997971	248,197719	0
15.01.2021	01:06:22	0	0	3,163665	3,0855	54,7956	-0,683	77,113	0	1008,28	5,4	7,7	7,6	1	1	1	1	1	1	1	1	1	0	1	-68,921776	273,111036	246,535144	0
15.01.2021	01:06:23	0	0	3,615617	3,087	47,7684	-0,689	77,104	0	1008,24	5,6	7,7	7,6	1	1	1	1	1	1	1	1	1	0	1	-70,472163	273,082707	244,853891	0
15.01.2021	01:06:24	0	0	4,180557	3,14175	55,5624	-0,686	77,095	0	1008,14	5,6	7,7	7,6	1	1	1	1	1	1	1	1	1	0	1	-66,102889	273,13231	249,452334	0
15.01.2021	01:06:25	0	0	4,406586	3,114	53,3628	-0,69	77,109	0	1008,34	5,6	7,7	7,4	1	1	1	1	1	1	1	1	1	0	1	-71,67019	273,013478	243,336231	0
15.01.2021	01:06:26	0	0	2,711713	3,168	62,0424	-0,692	77,103	0	1008,28	5,6	7,7	7,6	1	1	1	1	1	1	1	1	1	0	1	-73,854827	273,115289	241,621743	0
15.01.2021	01:06:27	0	0	3,050677	3,38025	62,0244	-0,692	77,123	0	1008,3	5,6	7,7	7,6	1	1	1	1	1	1	1	1	1	0	1	-75,264271	272,976845	239,573115	0
15.01.2021	01:06:28	0	0	4,180557	3,62625	60,5592	-0,687	77,125	0	1008,26	5,4	7,7	7,6	1	1	1	1	1	1	1	1	1	0	1	-67,44186	272,968401	247,356572	0
15.01.2021	01:06:29	0	0	4,519521	4,0725	62,7984	-0,691	77,128	0	1008,32	5,4	7,7	7,6	1	1	1	1	1	1	1	1	1	0	1	-70,401691	272,958555	244,351323	0
15.01.2021	01:06:30	0	0	3,276653	4,206	60,5376	-0,691	77,119	0	1008,24	5,6	7,7	7,6	1	1	1	1	1	1	1	1	1	0	1	-72,445384	273,060074	242,776147	0
15.01.2021	01:06:31	0	0	3,502671	4,14675	60,336	-0,694	77,107	0	1008,3	5,4	7,7	7,4	1	1	1	1	1	1	1	1	1	0	1	-73,29105	273,125216	242,231391	0
15.01.2021	01:06:32	0	0	4,971473	3,81675	58,5	-0,687	77,109	0	1008,4	5,6	7,7	7,6	1	1	1	1	1	1	1	1	1	0	1	-69,626498	273,128054	245,909054	0
15.01.2021	01:06:33	0	0	2,598725	4,152	66,9168	-0,693	77,098	0	1008,18	5,6	7,7	7,6	1	1	1	1	1	1	1	1	1	0	1	-74,841438	272,993743	240,073916	0
15.01.2021	01:06:34	0	0	3,502629	3,9885	81,5868	-0,698	77,093	0	1008,2	5,6	7,7	7,6	1	1	1	1	1	1	1	1	1	0	1	-69,837914	273,126635	245,691082	0
15.01.2021	01:06:35	0	0	4,293545	3,68025	54,7992	-0,695	77,133	0	1008,24	5,6	7,7	7,6	1	1	1	1	1	1	1	1	1	0	1	-72,374912	272,995152	242,546942	0
15.01.2021	01:06:36	0	0	2,033809	3,66375	64,2276	-0,699	77,164	0	1008,3	5,6	7,7	7,4	1	1	1	1	1	1	1	1	1	0	1	-69,837914	272,97966	245,01246	0
15.01.2021	01:06:37	0	0	2,711713	3,585	80,136	-0,702	77,192	0	1008,16	5,6	7,7	7,6	1	1	1	1	1	1	1	1	1	0	1	-70,894996	272,985292	243,981363	0
15.01.2021	01:06:38	0	0	2,598725	3,8145	72,738	-0,695	77,218	0	1008,28	5,6	7,7	7,6	1	1	1	1	1	1	1	1	1	0	1	-71,952079	273,030409	243,132491	0
15.01.2021	01:06:39	0	0	4,745497	4,0965	58,1148	-0,698	77,273	0	1008,22	5,6	7,7	7,6	1	1	1	1	1	1	1	1	1	0	1	-72,163495	272,950119	242,550611	0
15.01.2021	01:06:40	0	0	4,971533	4,52775	86,9724	-0,697	77,298	0	1008,26	5,6	7,7	7,4	1	1	1	1	1	1	1	1	1	0	1	-70,260747	273,044529	244,88901	0
15.01.2021	01:06:41	0	0	3,615617	4,76175	73,7748	-0,694	77,328	0	1008,38	5,6	7,7	7,6	1	1	1	1	1	1	1	1	1	0	1	-70,894996	273,149347	244,738964	0
15.01.2021	01:06:42	0	0	4,745497	5,17425	77,6988	-0,698	77,348	0	1008,26	5,6	7,7	7,6	1	1	1	1	1	1	1	1	1	0	1	-75,475687	273,000789	239,472177	0
15.01.2021	01:06:43	0	0	2,598725	5,30475	75,9924	-0,699	77,346	0	1008,18	5,6	7,7	7,6	1	1	1	1	1	1	1	1	1	0	1	-68,217054	273,084123	247,115538	0
15.01.2021	01:06:44	0	0	4,293545	5,073	76,3812	-0,702	77,397	0	1008,22	5,6	7,7	7,6	1	1	1	1	1	1	1	1	1	0	1	-70,824524	272,972622	243,993382	0
15.01.2021	01:06:45	0	0	5,084461	5,04075	74,898	-0,704	77,405	0	1008,2	5,6	7,7	7,6	1	1	1	1	1	1	1	1	1	0	1	-68,07611	273,045942	247,080169	0
15.01.2021	01:06:46	0	0	2,372748	4,74375	41,0004	-0,705	77,451	0	1008,26	5,4	7,7	7,6	1	1	1	1	1	1	1	1	1	0	1	-70,894996	272,961367	243,870992	0
15.01.2021	01:06:47	0	0	3,954628	4,42875	64,6164	-0,696	77,474	0	1008,12	5,6	7,7	7,4	1	1	1	1	1	1	1	1	1	0	1	-70,824524	273,143666	244,783181	0
15.01.2021	01:06:48	0	0	4,067569	4,359	71,6076	-0,698	77,497	0	1008,3	5,6	7,7	7,6	1	1	1	1	1	1	1	1	1	0	1	-75,687104	273,051594	239,495269	0
15.01.2021	01:06:49	0	0	3,389641	4,44	73,1556	-0,697	77,528	0	1008,02	5,4	7,7	7,6	1	1	1	1	1	1	1	1	1	0	1	-73,995772	273,135149	241,572568	0
15.01.2021	01:06:50	0	0	3,163665	4,554	83,3436	-0,699	77,539	0	1008,18	5,6	7,7	7,6	1	1	1	1	1	1	1	1	1	0	1	-69,626498	272,975437	245,204394	0
15.01.2021	01:06:51	0	0	2,711713	4,287	67,2624	-0,699	77,56	0	1008,18	5,6	7,7	7,6	1	1	1	1	1	1	1	1	1	0	1	-69,274137	273,092618	246,097694	0
15.01.2021	01:06:52	0	0	4,406533	4,00125	70,5816	-0,698	77,578	0	1008,34	5,6	7,7	7,6	1	1	1	1	1	1	1	1	1	0	1	-65,891473	273,13373	249,670308	0
15.01.2021	01:06:53	0	0	2,937689	3,93975	68,7888	-0,704	77,586	0	1008,02	5,6	7,7	7,6	1	1	1	1	1	1	1	1	1	0	1	-69,908386	273,09545	245,476529	0
15.01.2021	01:06:54	0	0	4,406533	4,0515	75,2148	-0,699	77,602	0	1008,32	5,6	7,7	7,6	1	1	1	1	1	1	1	1	1	0	1	-71,811135	273,147927	243,816261	0
15.01.2021	01:06:55	0	0	4,858485	4,06575	66,546	-0,699	77,606	0	1008,22	5,6	7,7	7,6	1	1	1	1	1	1	1	1	1	0	1	-69,06272	273,119543	246,433505	0
15.01.2021	01:06:56	0	0	3,954581	3,9225	49,2768	-0,695	77,616	0	1008,24	5,6	7,7	7,6	1	1	1	1	1	1	1	1	1	0	1	-74,559549	272,992335	240,349304	0
15.01.2021	01:06:57	0	0	2,711745	3,87225	55,5372	-0,699	77,625	0	1008,24	5,6	7,7	7,4	1	1	1	1	1	1	1	1	1	0	1	-66,807611	272,995152	248,114243	0
15.01.2021	01:06:58	0	0	3,615617	3,71325	50,3064	-0,705	77,643	0	1008,16	5,6	7,7	7,6	1	1	1	1	1	1	1	1	1	0	1	-74,559549	273,01912	240,472912	0
15.01.2021	01:06:59	0	0	3,502629	3,5145	56,2824	-0,701	77,688	0	1007,96	5,6	7,7	7,6	1	1	1	1	1	1	1	1	1	0	1	-74,27766	273,116707	241,205461	0
15.01.2021	01:07:00	0	0	4,858485	3,46575	68,4036	-0,701	77,748	0	1008,22	5,6	7,7	7,6	1	1	1	1	1	1	1	1	1	0	1	-72,515856	273,037468	242,6013	0
15.01.2021	01:07:01	0	0	4,406533	3,753	72,6516	-0,695	77,778	0	1008,26	5,6	7,7	7,6	1	1	1	1	1	1	1	1	1	0	1	-71,67019	273,009247	243,316707	0
15.01.2021	01:07:02	0	0	4,406533	3,753	72,6516	-0,695	77,778	0	1008,26	5,6	7,7	7,6	1	1	1	1	1	1	1	1	1	0	1	-71,67019	273,009247	243,316707	0
15.01.2021	01:07:03	0	0	4,745497	3,65325	63,1656	-0,705	77,789	0	1008,2	5,6	7,7	7,6	1	1	1	1	1	1	1	1	1	0	1	-72,374912	273,071387	242,898862	0
15.01.2021	01:07:04	0	0	4,632509	3,38625	68,4972	-0,692	77,803	0	1008,16	5,6	7,7	7,6	1	1	1	1	1	1	1	1	1	0	1	-74,91191	272,995152	240,009945	0
15.01.2021	01:07:05	0	0	2,824701	3,117	56,6784	-0,696	77,844	0	1008,24	5,6	7,7	7,6	1	1	1	1	1	1	1	1	1	0	1	-73,361522	273,013478	241,644899	0
15.01.2021	01:07:06	0	0	2,711713	3,012	71,9856	-0,703	77,856	0	1008,28	5,6	7,7	7,6	1	1	1	1	1	1	1	1	1	0	1	-71,811135	273,05018	243,364714	0
15.01.2021	01:07:07	0	0	5,084461	2,96475	65,106	-0,693	77,858	0	1008,4	5,6	7,7	7,6	1	1	1	1	1	1	1	1	1	0	1	-70,894996	273,129473	244,647112	0
15.01.2021	01:07:08	0	0	2,824701	3,03	62,7912	-0,691	77,864	0	1008,26	5,6	7,7	7,6	1	1	1	1	1	1	1	1	1	0	1	-70,119803	273,13373	245,441978	0
15.01.2021	01:07:09	0	0	3,728605	2,97375	52,884	-0,689	77,857	0	1008,3	5,5	7,7	7,6	1	1	1	1	1	1	1	1	1	0	1	-71,599718	273,179197	244,172237	0
15.01.2021	01:07:10	0	0	4,067569	2,90175	52,128	-0,693	77,843	0	1008,14	5,6	7,7	7,6	1	1	1	1	1	1	1	1	1	0	1	-73,150106	273,060074	242,071425	0
15.01.2021	01:07:11	0	0	3,954581	2,67075	70,6212	-0,688	77,846	0	1008,28	5,6	7,7	7,6	1	1	1	1	1	1	1	1	1	0	1	-73,29105	273,012067	241,708862	0
15.01.2021	01:07:12	0	0	3,841593	2,778	69,8436	-0,696	77,83	0	1008,14	5,6	7,7	7,6	1	1	1	1	1	1	1	1	1	0	1	-70,119803	273,043117	245,023433	0
15.01.2021	01:07:13	0	0	2,372748	2,8365	72,3132	-0,691	77,812	0	1008,38	5,5	7,7	7,6	1	1	1	1	1	1	1	1	1	0	1	-70,754052	273,140827	244,840529	0
15.01.2021	01:07:14	0	0	3,728605	2,892	66,5532	-0,689	77,791	0	1008,24	5,6	7,7	7,6	1	1	1	1	1	1	1	1	1	0	1	-70,331219	272,992335	244,577634	0
15.01.2021	01:07:15	0	0	4,632509	2,82075	63,1836	-0,686	77,776	0	1008,2	5,5	7,7	7,6	1	1	1	1	1	1	1	1	1	0	1	-77,237491	273,08837	238,114718	0
15.01.2021	01:07:16	0	0	4,745497	2,83275	64,6344	-0,693	77,756	0	1008,2	5,6	7,7	7,6	1	1	1	1	1	1	1	1	1	0	1	-69,767442	272,985292	245,108917	0
15.01.2021	01:07:17	0	0	3,615617	2,937	71,208	-0,698	77,738	0	1008,12	5,6	7,7	7,6	1	1	1	1	1	1	1	1	1	0	1	-73,713883	273,118125	241,77579	0
15.01.2021	01:07:18	0	0	2,824701	3,29625	70,2288	-0,687	77,732	0	1008,26	5,6	7,7	7,6	1	1	1	1	1	1	1	1	1	0	1	-76,180409	273,006427	238,793475	0
15.01.2021	01:07:19	0	0	3,615617	3,4485	95,148	-0,69	77,706	0	1008,1	5,6	7,7	7,6	1	1	1	1	1	1	1	1	1	0	1	-75,264271	273,109619	240,186101	0
15.01.2021	01:07:20	0	0	3,954581	3,5865	84,4272	-0,69	77,718	0	1008,36	5,6	7,7	7,6	1	1	1	1	1	1	1	1	1	0	1	-70,68358	273,030409	244,40099	0
15.01.2021	01:07:21	0	0	3,728605	3,42225	81,198	-0,689	77,717	0	1008,18	5,5	7,7	7,6	1	1	1	1	1	1	1	1	1	0	1	-71,106413	273,177775	244,658965	0
15.01.2021	01:07:22	0	0	2,824701	3,25725	73,9008	-0,689	77,711	0	1008,16	5,6	7,7	7,6	1	1	1	1	1	1	1	1	1	0	1	-74,418605	273,113871	241,051415	0
15.01.2021	01:07:23	0	0	2,485736	3,14625	64,6128	-0,694	77,702	0	1008,34	5,5	7,7	7,6	1	1	1	1	1	1	1	1	1	0	1	-66,737139	273,189157	249,080872	0
15.01.2021	01:07:24	0	0	3,389641	3,12225	59,1156	-0,689	77,723	0	1008,24	5,6	7,7	7,6	1	1	1	1	1	1	1	1	1	0	1	-72,445384	273,128054	243,090168	0
15.01.2021	01:07:25	0	0	2,372748	3,1545	62,424	-0,694	77,718	0	1008,28	5,5	7,7	7,6	1	1	1	1	1	1	1	1	1	0	1	-68,992248	273,16782	246,727107	0
15.01.2021	01:07:26	0	0	2,937689	3,195	69,1524	-0,688	77,732	0	1008,36	5,6	7,7	7,6	1	1	1	1	1	1	1	1	1	0	1	-70,613108	273,033232	244,484495	0
15.01.2021	01:07:27	0	0	4,858543	3,216	61,7076	-0,694	77,717	0	1008,36	5,5	7,7	7,4	1	1	1	1	1	1	1	1	1	0	1	-69,344609	273,129473	246,197499	0
15.01.2021	01:07:28	0	0	3,615617	3,174	65,8548	-0,689	77,719	0	1008,24	5,5	7,7	7,6	1	1	1	1	1	1	1	1	1	0	1	-68,146582	273,164977	247,559629	0
15.01.2021	01:07:29	0	0	3,728605	3,0675	66,2436	-0,687	77,719	0	1008,24	5,6	7,7	7,6	1	1	1	1	1	1	1	1	1	0	1	-75,828048	273,077046	239,471862	0
15.01.2021	01:07:30	0	0	2,824701	2,8995	60,2388	-0,681	77,701	0	1008,22	5,5	7,7	7,6	1	1	1	1	1	1	1	1	1	0	1	-70,260747	273,02053	244,778226	0
15.01.2021	01:07:31	0	0	5,423425	2,78175	63,1656	-0,684	77,683	0	1008,28	5,6	7,7	7,6	1	1	1	1	1	1	1	1	1	0	1	-70,472163	273,077046	244,827746	0
15.01.2021	01:07:32	0	0	2,711713	2,82525	56,2968	-0,692	77,676	0	1008,3	5,5	7,7	7,6	1	1	1	1	1	1	1	1	1	0	1	-74,489077	272,995152	240,432778	0
15.01.2021	01:07:33	0	0	3,389641	2,9115	61,3152	-0,692	77,666	0	1008,34	5,6	7,7	7,6	1	1	1	1	1	1	1	1	1	0	1	-69,837914	272,989517	245,05794	0
15.01.2021	01:07:34	0	0	4,745497	3,057	64,2204	-0,688	77,651	0	1008,26	5,6	7,7	7,6	1	1	1	1	1	1	1	1	1	0	1	-73,643411	273,051594	241,538962	0
15.01.2021	01:07:35	0	0	3,728605	3,2325	62,4204	-0,69	77,632	0	1008,44	5,6	7,7	7,6	1	1	1	1	1	1	1	1	1	0	1	-74,136716	272,982476	240,72665	0
15.01.2021	01:07:36	0	0	3,050677	3,159	61,6968	-0,686	77,601	0	1008,38	5,6	7,7	7,6	1	1	1	1	1	1	1	1	1	0	1	-70,049331	273,036056	245,061307	0
15.01.2021	01:07:37	0	0	3,502629	3,21975	63,1728	-0,686	77,592	0	1008,2	5,5	7,7	7,6	1	1	1	1	1	1	1	1	1	0	1	-73,361522	273,177775	242,403856	0
15.01.2021	01:07:38	0	0	4,745497	3,45375	67,284	-0,684	77,609	0	1008,3	5,5	7,7	7,6	1	1	1	1	1	1	1	1	1	0	1	-69,626498	273,126635	245,902498	0
15.01.2021	01:07:39	0	0	4,632509	3,49125	70,2432	-0,687	77,608	0	1008,22	5,5	7,7	7,6	1	1	1	1	1	1	1	1	1	0	1	-68,005638	273,177775	247,75974	0
15.01.2021	01:07:40	0	0	2,824701	3,4575	74,5236	-0,691	77,593	0	1008,18	5,6	7,7	7,6	1	1	1	1	1	1	1	1	1	0	1	-71,247357	273,137988	244,334102	0
15.01.2021	01:07:41	0	0	5,423425	3,4515	70,8588	-0,688	77,614	0	1008,2	5,6	7,7	7,6	1	1	1	1	1	1	1	1	1	0	1	-69,626498	273,05442	245,568926	0
15.01.2021	01:07:42	0	0	4,067569	3,4155	67,6728	-0,688	77,599	0	1008,38	5,6	7,7	7,6	1	1	1	1	1	1	1	1	1	0	1	-71,529246	273,043117	243,61399	0
15.01.2021	01:07:43	0	0	2,937689	3,306	71,6076	-0,687	77,652	0	1008,36	5,6	7,7	7,6	1	1	1	1	1	1	1	1	1	0	1	-73,784355	273,164977	241,921856	0
15.01.2021	01:07:44	0	0	2,711713	3,123	64,26	-0,687	77,603	0	1008,26	5,6	7,7	7,6	1	1	1	1	1	1	1	1	1	0	1	-74,559549	273,047355	240,603253	0
15.01.2021	01:07:45	0	0	3,615617	3,033	66,924	-0,69	77,59	0	1008,24	5,5	7,7	7,6	1	1	1	1	1	1	1	1	1	0	1	-68,992248	273,147927	246,635148	0
15.01.2021	01:07:46	0	0	3,163665	3,02625	62,0496	-0,686	77,585	0	1008,22	5,6	7,7	7,6	1	1	1	1	1	1	1	1	1	0	1	-68,005638	273,024763	247,052873	0
15.01.2021	01:07:47	0	0	2,824701	3,11025	59,8788	-0,681	77,592	0	1008,22	5,5	7,7	7,6	1	1	1	1	1	1	1	1	1	0	1	-73,150106	272,993743	241,765248	0
15.01.2021	01:07:48	0	0	3,728605	3,13875	68,0112	-0,683	77,591	0	1008,36	5,5	7,7	7,6	1	1	1	1	1	1	1	1	1	0	1	-75,757576	273,120961	239,745203	0
15.01.2021	01:07:49	0	0	2,824701	3,34725	66,2328	-0,679	77,602	0	1008,2	5,6	7,7	7,6	1	1	1	1	1	1	1	1	1	0	1	-72,868217	273,152188	242,778874	0
15.01.2021	01:07:50	0	0	2,937689	3,40725	70,5924	-0,681	77,612	0	1008,46	5,5	7,7	7,6	1	1	1	1	1	1	1	1	1	0	1	-74,700493	273,135149	240,867847	0
15.01.2021	01:07:51	0	0	2,485736	3,46275	74,5488	-0,679	77,618	0	1008,28	5,6	7,7	7,6	1	1	1	1	1	1	1	1	1	0	1	-69,415081	273,130891	246,133584	0
15.01.2021	01:07:52	0	0	2,824701	3,4905	78,2748	-0,68	77,612	0	1008,3	5,6	7,7	7,6	1	1	1	1	1	1	1	1	1	0	1	-76,391825	273,000789	238,556039	0
15.01.2021	01:07:53	0	0	2,598725	3,4215	65,0916	-0,681	77,632	0	1008,18	5,6	7,7	7,6	1	1	1	1	1	1	1	1	1	0	1	-72,727273	273,017709	242,298678	0
15.01.2021	01:07:54	0	0	3,389641	3,3255	69,5592	-0,681	77,634	0	1008,3	5,6	7,7	7,6	1	1	1	1	1	1	1	1	1	0	1	-69,415081	273,139407	246,172939	0
15.01.2021	01:07:55	0	0	3,841593	3,318	76,3884	-0,68	77,635	0	1008,36	5,5	7,7	7,6	1	1	1	1	1	1	1	1	1	0	1	-69,203665	273,109619	246,246707	0
15.01.2021	01:07:56	0	0	3,502629	3,28575	73,782	-0,679	77,655	0	1008,38	5,6	7,7	7,6	1	1	1	1	1	1	1	1	1	0	1	-71,106413	272,975437	243,724479	0
15.01.2021	01:07:57	0	0	3,502629	3,29625	65,448	-0,677	77,649	0	1008,46	5,6	7,7	7,6	1	1	1	1	1	1	1	1	1	0	1	-76,53277	273,094034	238,845603	0
15.01.2021	01:07:58	0	0	2,824701	3,399	68,8752	-0,682	77,659	0	1008,28	5,6	7,7	7,6	1	1	1	1	1	1	1	1	1	0	1	-71,388302	272,989517	243,507552	0
15.01.2021	01:07:59	0	0	4,632509	3,2895	59,8644	-0,684	77,681	0	1008,2	5,6	7,7	7,6	1	1	1	1	1	1	1	1	1	0	1	-73,431994	273,074217	241,854846	0
15.01.2021	01:08:00	0	0	4,745497	3,0285	53,7228	-0,681	77,694	0	1008,28	5,6	7,7	7,6	1	1	1	1	1	1	1	1	1	0	1	-70,754052	273,157871	244,919309	0
15.01.2021	01:08:01	0	0	4,745497	2,97	56,664	-0,678	77,686	0	1008,26	5,6	7,7	7,6	1	1	1	1	1	1	1	1	1	0	1	-74,489077	273,03182	240,602009	0
15.01.2021	01:08:02	0	0	4,745497	2,97	56,664	-0,678	77,686	0	1008,26	5,6	7,7	7,6	1	1	1	1	1	1	1	1	1	0	1	-74,489077	273,03182	240,602009	0
15.01.2021	01:08:03	0	0	2,485736	2,86275	52,128	-0,679	77,684	0	1008,28	5,6	7,7	7,6	1	1	1	1	1	1	1	1	1	0	1	-75,968992	272,982476	238,894373	0
15.01.2021	01:08:04	0	0	2,485736	2,81625	51,4404	-0,687	77,687	0	1008,22	5,6	7,7	7,6	1	1	1	1	1	1	1	1	1	0	1	-77,096547	273,005018	237,870831	0
15.01.2021	01:08:05	0	0	3,502629	2,6775	64,6308	-0,677	77,713	0	1008,32	5,6	7,7	7,6	1	1	1	1	1	1	1	1	1	0	1	-69,978858	273,163555	245,720781	0
15.01.2021	01:08:06	0	0	4,519521	2,5065	58,1796	-0,684	77,724	0	1008,2	5,6	7,7	7,6	1	1	1	1	1	1	1	1	1	0	1	-78,787879	273,157871	236,885482	0
15.01.2021	01:08:07	0	0	2,824701	2,38725	59,4864	-0,679	77,71	0	1008,18	5,6	7,7	7,6	1	1	1	1	1	1	1	1	1	0	1	-69,556025	273,092618	245,815806	0
15.01.2021	01:08:08	0	0	2,25976	2,499	60,2604	-0,68	77,715	0	1008,28	5,6	7,7	7,6	1	1	1	1	1	1	1	1	1	0	1	-71,106413	273,172086	244,632663	0
15.01.2021	01:08:09	0	0	4,293545	2,66325	66,9132	-0,683	77,702	0	1008,32	5,6	7,7	7,6	1	1	1	1	1	1	1	1	1	0	1	-74,348132	273,137988	241,233327	0
15.01.2021	01:08:10	0	0	2,372748	2,76075	64,6236	-0,679	77,707	0	1008,16	5,6	7,7	7,6	1	1	1	1	1	1	1	1	1	0	1	-72,938689	273,173508	242,806961	0
15.01.2021	01:08:11	0	0	4,745497	2,82825	69,1632	-0,678	77,708	0	1008,36	5,6	7,7	7,6	1	1	1	1	1	1	1	1	1	0	1	-68,217054	272,989517	246,678799	0
15.01.2021	01:08:12	0	0	4,519521	2,886	69,84	-0,674	77,688	0	1008,46	5,6	7,7	7,6	1	1	1	1	1	1	1	1	1	0	1	-72,515856	273,072802	242,764451	0
15.01.2021	01:08:13	0	0	4,632509	2,79825	71,9748	-0,678	77,687	0	1008,28	5,5	7,7	7,6	1	1	1	1	1	1	1	1	1	0	1	-70,331219	273,017709	244,694731	0
15.01.2021	01:08:14	0	0	3,502629	2,649	69,4728	-0,677	77,682	0	1008,2	5,6	7,7	7,6	1	1	1	1	1	1	1	1	1	0	1	-69,274137	273,149347	246,359824	0
15.01.2021	01:08:15	0	0	3,050677	2,5755	67,68	-0,678	77,646	0	1008,26	5,6	7,7	7,6	1	1	1	1	1	1	1	1	1	0	1	-72,515856	273,164977	243,190355	0
15.01.2021	01:08:16	0	0	2,485736	2,47125	65,8548	-0,679	77,638	0	1008,28	5,5	7,7	7,6	1	1	1	1	1	1	1	1	1	0	1	-73,995772	273,055833	241,206178	0
15.01.2021	01:08:17	0	0	4,858485	2,46	65,4732	-0,674	77,63	0	1008,36	5,6	7,7	7,6	1	1	1	1	1	1	1	1	1	0	1	-74,207188	273,164977	241,499023	0
15.01.2021	01:08:18	0	0	4,067569	2,39325	62,7984	-0,676	77,612	0	1008,24	5,5	7,7	7,6	1	1	1	1	1	1	1	1	1	0	1	-68,005638	273,040292	247,124557	0
15.01.2021	01:08:19	0	0	3,163665	2,38125	64,2564	-0,672	77,625	0	1008,34	5,6	7,7	7,6	1	1	1	1	1	1	1	1	1	0	1	-73,431994	273,007837	241,548396	0
15.01.2021	01:08:20	0	0	4,745497	2,45625	71,982	-0,681	77,605	0	1008,22	5,6	7,7	7,6	1	1	1	1	1	1	1	1	1	0	1	-73,713883	273,03888	241,409792	0
15.01.2021	01:08:21	0	0	2,485736	2,61	70,5888	-0,671	77,594	0	1008,28	5,6	7,7	7,6	1	1	1	1	1	1	1	1	1	0	1	-70,68358	273,045942	244,472699	0
15.01.2021	01:08:22	0	0	4,745497	2,76525	66,546	-0,669	77,581	0	1008,28	5,6	7,7	7,6	1	1	1	1	1	1	1	1	1	0	1	-70,401691	273,135149	245,166649	0
15.01.2021	01:08:23	0	0	3,050677	3,096	72,6696	-0,672	77,574	0	1008,36	5,5	7,7	7,6	1	1	1	1	1	1	1	1	1	0	1	-73,361522	273,126635	242,167474	0
15.01.2021	01:08:24	0	0	2,711713	3,543	62,0532	-0,674	77,561	0	1008,28	5,6	7,7	7,6	1	1	1	1	1	1	1	1	1	0	1	-71,247357	273,009247	243,73954	0
15.01.2021	01:08:25	0	0	3,841593	3,768	63,4572	-0,672	77,541	0	1008,34	5,6	7,7	7,6	1	1	1	1	1	1	1	1	1	0	1	-67,794221	273,055833	247,407728	0
15.01.2021	01:08:26	0	0	4,293545	3,98775	66,5424	-0,678	77,51	0	1008,22	5,6	7,7	7,6	1	1	1	1	1	1	1	1	1	0	1	-77,237491	272,997971	237,697367	0
15.01.2021	01:08:27	0	0	4,632509	3,9495	64,6092	-0,674	77,508	0	1008,26	5,6	7,7	7,6	1	1	1	1	1	1	1	1	1	0	1	-72,938689	273,183465	242,853	0
15.01.2021	01:08:28	0	0	4,519521	3,81	70,2144	-0,666	77,495	0	1008,26	5,5	7,7	7,6	1	1	1	1	1	1	1	1	1	0	1	-73,29105	273,094034	242,087323	0
15.01.2021	01:08:29	0	0	3,954581	3,7965	69,1308	-0,682	77,481	0	1008,26	5,6	7,7	7,6	1	1	1	1	1	1	1	1	1	0	1	-75,546159	273,179197	240,225796	0
15.01.2021	01:08:30	0	0	3,615617	3,789	74,1636	-0,676	77,475	0	1008,3	5,5	7,7	7,6	1	1	1	1	1	1	1	1	1	0	1	-72,022551	273,044529	243,127206	0
15.01.2021	01:08:31	0	0	4,293545	3,79275	74,5308	-0,674	77,455	0	1008,1	5,5	7,7	7,6	1	1	1	1	1	1	1	1	1	0	1	-72,093023	273,075631	243,200352	0
15.01.2021	01:08:32	0	0	3,502629	3,72	69,9336	-0,67	77,45	0	1008,18	5,5	7,7	7,6	1	1	1	1	1	1	1	1	1	0	1	-72,445384	273,006427	242,5285	0
15.01.2021	01:08:33	0	0	4,971473	3,666	66,5208	-0,677	77,428	0	1008,18	5,6	7,7	7,6	1	1	1	1	1	1	1	1	1	0	1	-71,458774	273,137988	244,122686	0
15.01.2021	01:08:34	0	0	4,858485	3,696	66,5388	-0,677	77,446	0	1008,42	5,6	7,7	7,6	1	1	1	1	1	1	1	1	1	0	1	-72,233968	273,005018	242,733411	0
15.01.2021	01:08:35	0	0	4,519521	3,708	65,1528	-0,676	77,449	0	1008,16	5,6	7,7	7,6	1	1	1	1	1	1	1	1	1	0	1	-73,502467	273,017709	241,523484	0
15.01.2021	01:08:36	0	0	3,502629	3,72225	71,9856	-0,671	77,454	0	1008,14	5,5	7,7	7,6	1	1	1	1	1	1	1	1	1	0	1	-70,542636	273,159292	245,137294	0
15.01.2021	01:08:37	0	0	4,632509	3,79725	74,178	-0,677	77,463	0	1008,3	5,5	7,7	7,6	1	1	1	1	1	1	1	1	1	0	1	-71,035941	273,163555	244,663699	0
15.01.2021	01:08:38	0	0	2,711713	3,4365	82,3428	-0,673	77,485	0	1008,28	5,5	7,7	7,6	1	1	1	1	1	1	1	1	1	0	1	-77,448908	273,074217	237,837933	0
15.01.2021	01:08:39	0	0	3,954581	2,88225	67,6836	-0,673	77,478	0	1008,2	5,5	7,7	7,6	1	1	1	1	1	1	1	1	1	0	1	-72,938689	273,187734	242,872741	0
15.01.2021	01:08:40	0	0	3,841593	2,6175	70,596	-0,68	77,508	0	1008,14	5,5	7,7	7,6	1	1	1	1	1	1	1	1	1	0	1	-75,405215	273,101116	240,005876	0
15.01.2021	01:08:41	0	0	2,824701	2,517	54,1188	-0,677	77,486	0	1008,28	5,6	7,7	7,6	1	1	1	1	1	1	1	1	1	0	1	-72,938689	273,163555	242,76095	0
15.01.2021	01:08:42	0	0	3,954581	2,42775	63,1692	-0,677	77,505	0	1008,22	5,6	7,7	7,6	1	1	1	1	1	1	1	1	1	0	1	-72,515856	273,152188	243,131235	0
15.01.2021	01:08:43	0	0	3,502629	2,517	76,3776	-0,667	77,503	0	1008,26	5,5	7,7	7,6	1	1	1	1	1	1	1	1	1	0	1	-72,30444	273,152188	243,342652	0
15.01.2021	01:08:44	0	0	3,502629	2,54925	41,4576	-0,67	77,492	0	1008,28	5,5	7,7	7,6	1	1	1	1	1	1	1	1	1	0	1	-77,801268	273,164977	237,904942	0
15.01.2021	01:08:45	0	0	2,598725	2,40225	83,7288	-0,671	77,49	0	1008,18	5,5	7,7	7,6	1	1	1	1	1	1	1	1	1	0	1	-72,163495	273,166398	243,549287	0
15.01.2021	01:08:46	0	0	3,163665	2,481	71,5896	-0,678	77,501	0	1008,14	5,5	7,7	7,6	1	1	1	1	1	1	1	1	1	0	1	-73,431994	273,182042	242,353116	0
15.01.2021	01:08:47	0	0	2,033784	2,39625	62,4492	-0,68	77,507	0	1008,08	5,5	7,7	7,6	1	1	1	1	1	1	1	1	1	0	1	-65,961945	273,112454	249,501524	0
15.01.2021	01:08:48	0	0	3,954581	2,385	63,1836	-0,676	77,501	0	1008,32	5,6	7,7	7,6	1	1	1	1	1	1	1	1	1	0	1	-66,807611	273,013478	248,19881	0
15.01.2021	01:08:49	0	0	4,519521	2,5995	68,7924	-0,674	77,506	0	1008,32	5,5	7,7	7,6	1	1	1	1	1	1	1	1	1	0	1	-67,159972	273,044529	247,989785	0
15.01.2021	01:08:50	0	0	3,615617	2,7075	67,6548	-0,678	77,507	0	1008,24	5,6	7,8	7,6	1	1	1	1	1	1	1	1	1	0	1	-75,052854	273,000789	239,89501	0
15.01.2021	01:08:51	0	0	2,711713	2,604	49,9536	-0,675	77,504	0	1008,2	5,5	7,7	7,6	1	1	1	1	1	1	1	1	1	0	1	-72,374912	273,033232	242,72269	0
15.01.2021	01:08:52	0	0	4,858485	2,56125	55,9404	-0,677	77,499	0	1008,06	5,6	7,7	7,6	1	1	1	1	1	1	1	1	1	0	1	-73,9253	273,012067	241,074613	0
15.01.2021	01:08:53	0	0	4,971473	2,4615	56,664	-0,671	77,487	0	1008,28	5,6	7,7	7,6	1	1	1	1	1	1	1	1	1	0	1	-67,371388	273,162134	248,321681	0
15.01.2021	01:08:54	0	0	2,937689	2,41275	58,4856	-0,677	77,495	0	1008,36	5,5	7,7	7,6	1	1	1	1	1	1	1	1	1	0	1	-71,176885	273,115289	244,299685	0
15.01.2021	01:08:55	0	0	3,615617	2,2215	75,618	-0,679	77,481	0	1008,16	5,6	7,7	7,6	1	1	1	1	1	1	1	1	1	0	1	-72,938689	273,150767	242,701836	0
15.01.2021	01:08:56	0	0	3,841593	2,217	43,3044	-0,681	77,491	0	1008,2	5,5	7,7	7,6	1	1	1	1	1	1	1	1	1	0	1	-74,630021	273,140827	240,96456	0
15.01.2021	01:08:57	0	0	2,598725	2,352	65,4876	-0,674	77,486	0	1008,28	5,6	7,7	7,6	1	1	1	1	1	1	1	1	1	0	1	-68,921776	273,030409	246,162794	0
15.01.2021	01:08:58	0	0	2,598725	2,37525	53,3592	-0,674	77,483	0	1008,34	5,5	7,7	7,6	1	1	1	1	1	1	1	1	1	0	1	-74,27766	273,179197	241,494295	0
15.01.2021	01:08:59	0	0	4,406533	2,316	46,62	-0,677	77,488	0	1008,26	5,5	7,7	7,6	1	1	1	1	1	1	1	1	1	0	1	-76,250881	273,010657	238,742524	0
15.01.2021	01:09:00	0	0	4,971473	2,24475	40,2552	-0,678	77,487	0	1008,08	5,6	7,7	7,6	1	1	1	1	1	1	1	1	1	0	1	-72,586328	273,06573	242,661319	0
15.01.2021	01:09:01	0	0	3,502629	2,33025	41,4684	-0,676	77,5	0	1008,32	5,5	7,7	7,6	1	1	1	1	1	1	1	1	1	0	1	-71,317829	273,137988	244,26363	0
15.01.2021	01:09:02	0	0	3,502629	2,33025	41,4684	-0,676	77,5	0	1008,32	5,5	7,7	7,6	1	1	1	1	1	1	1	1	1	0	1	-71,317829	273,137988	244,26363	0
15.01.2021	01:09:03	0	0	2,937689	2,487	58,86	-0,677	77,476	0	1008,14	5,5	7,7	7,6	1	1	1	1	1	1	1	1	1	0	1	-69,415081	273,150767	246,225445	0
15.01.2021	01:09:04	0	0	4,067569	2,40375	48,1068	-0,672	77,492	0	1008,06	5,6	7,7	7,6	1	1	1	1	1	1	1	1	1	0	1	-70,119803	272,99938	244,821558	0
15.01.2021	01:09:05	0	0	2,598725	2,43525	59,8644	-0,674	77,482	0	1008,4	5,6	7,7	7,6	1	1	1	1	1	1	1	1	1	0	1	-66,807611	273,041704	248,329104	0
15.01.2021	01:09:06	0	0	4,519521	2,3265	72,2844	-0,673	77,492	0	1008,12	5,6	7,7	7,6	1	1	1	1	1	1	1	1	1	0	1	-72,093023	272,988109	242,796332	0
15.01.2021	01:09:07	0	0	4,180557	2,1645	51,066	-0,676	77,495	0	1008,16	5,6	7,7	7,6	1	1	1	1	1	1	1	1	1	0	1	-69,556025	273,078461	245,75042	0
15.01.2021	01:09:08	0	0	3,389641	2,0865	80,5536	-0,676	77,493	0	1008,26	5,5	7,7	7,6	1	1	1	1	1	1	1	1	1	0	1	-68,357999	273,16782	247,361356	0
15.01.2021	01:09:09	0	0	4,067569	2,05275	59,4864	-0,676	77,499	0	1008,36	5,6	7,7	7,6	1	1	1	1	1	1	1	1	1	0	1	-69,626498	273,135149	245,941842	0
15.01.2021	01:09:10	0	0	4,745497	1,99725	74,178	-0,675	77,505	0	1008,16	5,5	7,7	7,6	1	1	1	1	1	1	1	1	1	0	1	-74,982382	273,084123	240,35021	0
15.01.2021	01:09:11	0	0	2,598725	2,076	71,712	-0,676	77,493	0	1008,14	5,6	7,7	7,6	1	1	1	1	1	1	1	1	1	0	1	-70,472163	272,978252	244,371716	0
15.01.2021	01:09:12	0	0	3,276653	2,11275	79,4016	-0,676	77,501	0	1008,3	5,6	7,7	7,6	1	1	1	1	1	1	1	1	1	0	1	-73,713883	273,014888	241,299047	0
15.01.2021	01:09:13	0	0	3,954581	2,14425	77,5728	-0,679	77,5	0	1008,28	5,6	7,7	7,6	1	1	1	1	1	1	1	1	1	0	1	-69,556025	272,988109	245,333329	0
15.01.2021	01:09:14	0	0	3,276653	2,05275	77,9796	-0,672	77,494	0	1008,28	5,5	7,7	7,6	1	1	1	1	1	1	1	1	1	0	1	-70,894996	273,169242	244,830931	0
15.01.2021	01:09:15	0	0	4,180557	1,989	77,5944	-0,672	77,495	0	1008,32	5,6	7,7	7,6	1	1	1	1	1	1	1	1	1	0	1	-73,150106	273,048768	242,019219	0
15.01.2021	01:09:16	0	0	2,25976	1,90125	65,0844	-0,673	77,49	0	1008,36	5,6	7,7	7,6	1	1	1	1	1	1	1	1	1	0	1	-72,586328	273,160713	243,100171	0
15.01.2021	01:09:17	0	0	4,180557	1,74675	35,4816	-0,681	77,485	0	1008,24	5,6	7,8	7,6	1	1	1	1	1	1	1	1	1	0	1	-79,281184	273,062902	235,953404	0
15.01.2021	01:09:18	0	0	3,954581	1,68825	49,1976	-0,677	77,477	0	1008,36	5,5	7,7	7,6	1	1	1	1	1	1	1	1	1	0	1	-75,334743	272,983884	239,535119	0
15.01.2021	01:09:19	0	0	3,841593	1,6545	44,4096	-0,677	77,474	0	1008,22	5,6	7,7	7,6	1	1	1	1	1	1	1	1	1	0	1	-70,260747	273,125216	245,261694	0
15.01.2021	01:09:20	0	0	3,276653	1,59525	47,3724	-0,673	77,461	0	1008,26	5,6	7,7	7,6	1	1	1	1	1	1	1	1	1	0	1	-73,150106	272,981068	241,706764	0
15.01.2021	01:09:21	0	0	5,084461	1,53	56,6928	-0,681	77,447	0	1008,28	5,6	7,7	7,6	1	1	1	1	1	1	1	1	1	0	1	-73,854827	273,108201	241,588996	0
15.01.2021	01:09:22	0	0	4,519521	1,54725	58,4928	-0,675	77,418	0	1008,28	5,6	7,7	7,6	1	1	1	1	1	1	1	1	1	0	1	-66,878083	273,091201	248,487207	0
15.01.2021	01:09:23	0	0	3,389641	1,63725	65,4732	-0,674	77,415	0	1008,28	5,5	7,7	7,6	1	1	1	1	1	1	1	1	1	0	1	-77,942213	273,147927	237,685183	0
15.01.2021	01:09:24	0	0	2,824701	1,7025	66,2292	-0,678	77,395	0	1008,2	5,6	7,7	7,6	1	1	1	1	1	1	1	1	1	0	1	-70,824524	273,047355	244,338277	0
15.01.2021	01:09:25	0	0	4,293545	1,767	62,0388	-0,679	77,376	0	1008,32	5,6	7,7	7,6	1	1	1	1	1	1	1	1	1	0	1	-76,462297	273,013478	238,544124	0
15.01.2021	01:09:26	0	0	4,632509	1,7895	70,7112	-0,674	77,356	0	1008,22	5,5	7,7	7,6	1	1	1	1	1	1	1	1	1	0	1	-70,613108	273,139407	244,974912	0
15.01.2021	01:09:27	0	0	4,406533	1,7595	67,68	-0,688	77,318	0	1008,2	5,6	7,7	7,6	1	1	1	1	1	1	1	1	1	0	1	-72,586328	273,007837	242,394062	0
15.01.2021	01:09:28	0	0	5,084461	1,84875	77,976	-0,685	77,295	0	1008,22	5,6	7,7	7,6	1	1	1	1	1	1	1	1	1	0	1	-68,780832	273,078461	246,525614	0
15.01.2021	01:09:29	0	0	2,824701	1,9245	70,2324	-0,679	77,274	0	1008,2	5,6	7,7	7,6	1	1	1	1	1	1	1	1	1	0	1	-75,052854	273,146506	240,567977	0
15.01.2021	01:09:30	0	0	4,519521	1,97475	73,5264	-0,692	77,268	0	1008,32	5,6	7,7	7,6	1	1	1	1	1	1	1	1	1	0	1	-74,630021	273,027586	240,441518	0
15.01.2021	01:09:31	0	0	2,598725	1,9275	77,9544	-0,683	77,278	0	1008,3	5,6	7,7	7,6	1	1	1	1	1	1	1	1	1	0	1	-71,529246	273,13373	244,032535	0
15.01.2021	01:09:32	0	0	4,632509	1,89825	79,02	-0,684	77,26	0	1008,14	5,6	7,7	7,6	1	1	1	1	1	1	1	1	1	0	1	-75,546159	273,098283	239,851842	0
15.01.2021	01:09:33	0	0	4,632509	1,82925	86,9868	-0,689	77,27	0	1008,28	5,6	7,7	7,6	1	1	1	1	1	1	1	1	1	0	1	-70,965469	273,08837	244,38674	0
15.01.2021	01:09:34	0	0	3,050677	1,7475	91,494	-0,681	77,273	0	1008,26	5,6	7,7	7,6	1	1	1	1	1	1	1	1	1	0	1	-66,525722	272,95293	248,201351	0
15.01.2021	01:09:35	0	0	4,745497	1,6875	69,858	-0,682	77,274	0	1008,24	5,6	7,7	7,6	1	1	1	1	1	1	1	1	1	0	1	-74,418605	273,01912	240,613857	0
15.01.2021	01:09:36	0	0	4,971473	1,725	79,0452	-0,679	77,288	0	1008,26	5,6	7,7	7,6	1	1	1	1	1	1	1	1	1	0	1	-73,854827	273,136568	241,720072	0
15.01.2021	01:09:37	0	0	3,276653	1,8165	66,2292	-0,689	77,27	0	1008,12	5,4	7,7	7,6	1	1	1	1	1	1	1	1	1	0	1	-73,502467	273,09545	241,882449	0
15.01.2021	01:09:38	0	0	2,937689	1,96275	78,2856	-0,689	77,28	0	1008,28	5,6	7,7	7,6	1	1	1	1	1	1	1	1	1	0	1	-71,529246	273,02053	243,509727	0
15.01.2021	01:09:39	0	0	3,163665	2,36325	80,5464	-0,681	77,275	0	1008,16	5,6	7,7	7,6	1	1	1	1	1	1	1	1	1	0	1	-70,190275	273,129473	245,351833	0
15.01.2021	01:09:40	0	0	3,276653	2,5275	64,6344	-0,685	77,27	0	1008,2	5,6	7,7	7,6	1	1	1	1	1	1	1	1	1	0	1	-67,371388	273,036056	247,739249	0
15.01.2021	01:09:41	0	0	3,615617	2,73675	66,5424	-0,686	77,279	0	1008,28	5,6	7,7	7,6	1	1	1	1	1	1	1	1	1	0	1	-69,556025	273,120961	245,946753	0
15.01.2021	01:09:42	0	0	2,824701	2,59575	51,75	-0,692	77,277	0	1008,22	5,6	7,8	7,6	1	1	1	1	1	1	1	1	1	0	1	-68,851304	272,996561	246,077052	0
15.01.2021	01:09:43	0	0	4,745497	2,35725	48,8124	-0,686	77,274	0	1008,2	5,6	7,7	7,6	1	1	1	1	1	1	1	1	1	0	1	-70,119803	273,007837	244,860587	0
15.01.2021	01:09:44	0	0	4,745497	2,3385	77,2236	-0,684	77,291	0	1008,18	5,6	7,7	7,6	1	1	1	1	1	1	1	1	1	0	1	-71,952079	272,950119	242,762028	0
15.01.2021	01:09:45	0	0	3,615617	2,49675	61,7148	-0,686	77,292	0	1008,2	5,6	7,7	7,6	1	1	1	1	1	1	1	1	1	0	1	-73,9253	273,101116	241,485791	0
15.01.2021	01:09:46	0	0	3,728605	2,574	59,886	-0,682	77,284	0	1008,28	5,6	7,7	7,6	1	1	1	1	1	1	1	1	1	0	1	-70,472163	272,983884	244,397699	0
15.01.2021	01:09:47	0	0	4,067569	2,30925	48,5136	-0,696	77,28	0	1008,12	5,6	7,7	7,6	1	1	1	1	1	1	1	1	1	0	1	-67,582805	272,966994	247,209138	0
15.01.2021	01:09:48	0	0	4,519521	2,022	70,6068	-0,69	77,272	0	1008,1	5,6	7,7	7,6	1	1	1	1	1	1	1	1	1	0	1	-68,287526	273,071387	246,986248	0
15.01.2021	01:09:49	0	0	4,745497	1,8255	55,1664	-0,688	77,299	0	1008,2	5,6	7,7	7,6	1	1	1	1	1	1	1	1	1	0	1	-72,445384	272,96418	242,33358	0
15.01.2021	01:09:50	0	0	3,502629	1,73475	55,9224	-0,686	77,296	0	1008,04	5,6	7,7	7,6	1	1	1	1	1	1	1	1	1	0	1	-74,418605	272,978252	240,425275	0
15.01.2021	01:09:51	0	0	3,050677	1,72725	47,7432	-0,694	77,292	0	1008,32	5,4	7,7	7,6	1	1	1	1	1	1	1	1	1	0	1	-73,361522	273,084123	241,97107	0
15.01.2021	01:09:52	0	0	4,519521	1,77375	53,3556	-0,689	77,278	0	1008,3	5,6	7,7	7,6	1	1	1	1	1	1	1	1	1	0	1	-70,965469	272,961367	243,80052	0
15.01.2021	01:09:53	0	0	3,841593	1,79325	60,9336	-0,695	77,277	0	1008,26	5,6	7,7	7,6	1	1	1	1	1	1	1	1	1	0	1	-69,626498	273,092618	245,745333	0
15.01.2021	01:09:54	0	0	4,519521	1,9545	64,2384	-0,69	77,264	0	1008,34	5,6	7,7	7,6	1	1	1	1	1	1	1	1	1	0	1	-74,207188	273,051594	240,975185	0
15.01.2021	01:09:55	0	0	4,971473	2,0115	67,6944	-0,689	77,284	0	1008,2	5,6	7,7	7,6	1	1	1	1	1	1	1	1	1	0	1	-74,348132	272,962774	240,424343	0
15.01.2021	01:09:56	0	0	3,954581	2,082	56,6604	-0,689	77,273	0	1008,2	5,6	7,7	7,6	1	1	1	1	1	1	1	1	1	0	1	-69,133192	272,986701	245,749664	0
15.01.2021	01:09:57	0	0	2,372748	2,19975	55,5624	-0,701	77,259	0	1008,26	5,6	7,7	7,6	1	1	1	1	1	1	1	1	1	0	1	-70,965469	272,993743	243,949885	0
15.01.2021	01:09:58	0	0	4,971473	2,2485	72,6588	-0,698	77,251	0	1008,2	5,6	7,7	7,6	1	1	1	1	1	1	1	1	1	0	1	-71,106413	273,125216	244,416028	0
15.01.2021	01:09:59	0	0	4,406533	2,20125	70,2324	-0,691	77,229	0	1008,1	5,6	7,7	7,6	1	1	1	1	1	1	1	1	1	0	1	-71,035941	273,053007	244,152957	0
15.01.2021	01:10:00	0	0	3,954581	2,19825	79,398	-0,693	77,217	0	1008,24	5,6	7,7	7,6	1	1	1	1	1	1	1	1	1	0	1	-70,613108	272,997971	244,32175	0
15.01.2021	01:10:01	0	0	3,954581	2,1975	72,2844	-0,691	77,21	0	1008,24	5,6	7,7	7,6	1	1	1	1	1	1	1	1	1	0	1	-70,472163	273,003608	244,488709	0
15.01.2021	01:10:02	0	0	3,954581	2,1975	72,2844	-0,691	77,21	0	1008,24	5,6	7,7	7,6	1	1	1	1	1	1	1	1	1	0	1	-70,472163	273,003608	244,488709	0
15.01.2021	01:10:03	0	0	4,632509	2,17575	71,244	-0,698	77,175	0	1008,16	5,6	7,7	7,6	1	1	1	1	1	1	1	1	1	0	1	-70,894996	272,955742	243,845046	0
15.01.2021	01:10:04	0	0	3,389641	2,23125	69,4728	-0,704	77,151	0	1008,26	5,6	7,7	7,6	1	1	1	1	1	1	1	1	1	0	1	-69,133192	273,000789	245,814672	0
15.01.2021	01:10:05	0	0	5,084461	2,337	74,898	-0,693	77,127	0	1008,32	5,6	7,7	7,6	1	1	1	1	1	1	1	1	1	0	1	-76,250881	272,982476	238,612485	0
15.01.2021	01:10:06	0	0	2,598725	2,37075	68,7744	-0,698	77,098	0	1008,4	5,6	7,7	7,6	1	1	1	1	1	1	1	1	1	0	1	-71,388302	272,959961	243,371199	0
15.01.2021	01:10:07	0	0	4,745497	2,51175	71,2224	-0,701	77,073	0	1008,2	5,4	7,7	7,6	1	1	1	1	1	1	1	1	1	0	1	-75,123326	273,027586	239,948213	0
15.01.2021	01:10:08	0	0	3,728605	2,66625	65,0808	-0,702	77,062	0	1008,2	5,6	7,7	7,6	1	1	1	1	1	1	1	1	1	0	1	-74,418605	273,116707	241,064517	0
15.01.2021	01:10:09	0	0	3,954581	2,7315	78,2676	-0,702	77,027	0	1008,24	5,6	7,7	7,6	1	1	1	1	1	1	1	1	1	0	1	-72,656801	273,111036	242,80012	0
15.01.2021	01:10:10	0	0	4,971473	2,8635	76,8384	-0,699	77,028	0	1008,16	5,6	7,7	7,6	1	1	1	1	1	1	1	1	1	0	1	-67,794221	273,017709	247,231729	0
15.01.2021	01:10:11	0	0	4,858485	2,9565	72,3024	-0,701	77,002	0	1008,24	5,6	7,7	7,6	1	1	1	1	1	1	1	1	1	0	1	-69,767442	272,940282	244,901299	0
15.01.2021	01:10:12	0	0	5,310437	2,84325	58,1256	-0,707	76,988	0	1008	5,6	7,7	7,6	1	1	1	1	1	1	1	1	1	0	1	-73,643411	273,089786	241,715338	0
15.01.2021	01:10:13	0	0	3,841593	2,78475	68,364	-0,7	76,991	0	1008,3	5,6	7,7	7,6	1	1	1	1	1	1	1	1	1	0	1	-66,666667	273,030409	248,417903	0
15.01.2021	01:10:14	0	0	3,276653	2,655	60,5412	-0,707	76,966	0	1008,34	5,4	7,7	7,6	1	1	1	1	1	1	1	1	1	0	1	-72,093023	272,933259	242,54333	0
15.01.2021	01:10:15	0	0	3,954581	2,56875	57,7296	-0,709	76,971	0	1008,22	5,4	7,7	7,6	1	1	1	1	1	1	1	1	1	0	1	-67,864693	273,06573	247,382954	0
15.01.2021	01:10:16	0	0	4,519521	2,724	55,926	-0,705	76,978	0	1008,28	5,6	7,7	7,6	1	1	1	1	1	1	1	1	1	0	1	-74,982382	272,933259	239,653971	0
15.01.2021	01:10:17	0	0	4,293545	2,8905	65,4552	-0,708	76,979	0	1008,46	5,6	7,7	7,6	1	1	1	1	1	1	1	1	1	0	1	-72,727273	273,078461	242,579172	0
15.01.2021	01:10:18	0	0	5,084461	2,931	54,4896	-0,709	76,97	0	1008,24	5,6	7,7	7,6	1	1	1	1	1	1	1	1	1	0	1	-72,586328	273,013478	242,420093	0
15.01.2021	01:10:19	0	0	4,745497	3,1455	53,37	-0,706	76,979	0	1008,16	5,6	7,7	7,6	1	1	1	1	1	1	1	1	1	0	1	-77,660324	273,074217	237,626517	0
15.01.2021	01:10:20	0	0	3,163665	3,22125	45,5184	-0,71	76,974	0	1008,24	5,4	7,7	7,6	1	1	1	1	1	1	1	1	1	0	1	-68,146582	273,072802	247,133725	0
15.01.2021	01:10:21	0	0	4,293545	3,006	57,0528	-0,718	76,969	0	1008,2	5,4	7,7	7,6	1	1	1	1	1	1	1	1	1	0	1	-72,656801	272,944497	242,031379	0
15.01.2021	01:10:22	0	0	3,841593	2,76975	65,8404	-0,713	76,974	0	1008,44	5,6	7,7	7,6	1	1	1	1	1	1	1	1	1	0	1	-72,938689	273,089786	242,42006	0
15.01.2021	01:10:23	0	0	3,841593	2,70675	53,3556	-0,718	76,989	0	1008,26	5,5	7,7	7,6	1	1	1	1	1	1	1	1	1	0	1	-73,361522	273,043117	241,781714	0
15.01.2021	01:10:24	0	0	4,067569	2,643	55,2024	-0,719	77,015	0	1008,3	5,4	7,7	7,6	1	1	1	1	1	1	1	1	1	0	1	-70,824524	272,92343	243,766511	0
15.01.2021	01:10:25	0	0	5,084461	2,739	68,0004	-0,724	77,015	0	1008,34	5,4	7,7	7,6	1	1	1	1	1	1	1	1	1	0	1	-69,06272	273,081292	246,256797	0
15.01.2021	01:10:26	0	0	4,406533	2,64375	61,704	-0,72	77,048	0	1008,16	5,6	7,7	7,6	1	1	1	1	1	1	1	1	1	0	1	-69,485553	272,969808	245,31937	0
15.01.2021	01:10:27	0	0	3,841593	2,49975	56,6604	-0,721	77,085	0	1008,28	5,5	7,7	7,6	1	1	1	1	1	1	1	1	1	0	1	-68,146582	272,920623	246,431511	0
15.01.2021	01:10:28	0	0	3,389641	2,334	67,2876	-0,726	77,106	0	1008,16	5,4	7,7	7,6	1	1	1	1	1	1	1	1	1	0	1	-71,035941	272,934663	243,606889	0
15.01.2021	01:10:29	0	0	2,824701	2,29575	64,6236	-0,72	77,126	0	1008,24	5,4	7,7	7,6	1	1	1	1	1	1	1	1	1	0	1	-73,431994	273,05442	241,763429	0
15.01.2021	01:10:30	0	0	2,937689	2,322	59,8752	-0,722	77,142	0	1008,14	5,4	7,7	7,6	1	1	1	1	1	1	1	1	1	0	1	-70,472163	273,0997	244,932382	0
15.01.2021	01:10:31	0	0	2,824701	2,3655	66,5532	-0,728	77,15	0	1008,16	5,5	7,7	7,6	1	1	1	1	1	1	1	1	1	0	1	-71,529246	272,959961	243,230255	0
15.01.2021	01:10:32	0	0	5,084461	2,42325	59,49	-0,718	77,161	0	1008,22	5,4	7,7	7,6	1	1	1	1	1	1	1	1	1	0	1	-65,680056	273,081292	249,639461	0
15.01.2021	01:10:33	0	0	4,293545	2,4195	64,242	-0,721	77,171	0	1008,28	5,4	7,7	7,6	1	1	1	1	1	1	1	1	1	0	1	-66,807611	272,912204	247,731667	0
15.01.2021	01:10:34	0	0	4,180557	2,52675	69,1848	-0,726	77,193	0	1008,26	5,4	7,7	7,6	1	1	1	1	1	1	1	1	1	0	1	-74,418605	273,017709	240,607346	0
15.01.2021	01:10:35	0	0	2,824701	2,48025	65,0916	-0,726	77,201	0	1008,38	5,6	7,7	7,6	1	1	1	1	1	1	1	1	1	0	1	-73,361522	273,082707	241,964533	0
15.01.2021	01:10:36	0	0	2,824701	2,385	59,868	-0,729	77,206	0	1008,24	5,4	7,7	7,6	1	1	1	1	1	1	1	1	1	0	1	-71,388302	272,938877	243,27396	0
15.01.2021	01:10:37	0	0	2,824701	2,4405	63,1656	-0,732	77,214	0	1008,28	5,5	7,6	7,6	1	1	1	1	1	1	1	1	1	0	1	-70,965469	272,91922	243,606154	0
15.01.2021	01:10:38	0	0	5,084461	2,5275	64,2492	-0,731	77,223	0	1008,28	5,5	7,7	7,6	1	1	1	1	1	1	1	1	1	0	1	-67,582805	272,892574	246,865986	0
15.01.2021	01:10:39	0	0	3,050677	2,65575	68,0256	-0,73	77,234	0	1008,14	5,6	7,7	7,6	1	1	1	1	1	1	1	1	1	0	1	-69,908386	273,000789	245,039478	0
15.01.2021	01:10:40	0	0	4,745497	2,66475	65,0808	-0,733	77,229	0	1008,12	5,5	7,7	7,6	1	1	1	1	1	1	1	1	1	0	1	-69,556025	272,909398	244,970319	0
15.01.2021	01:10:41	0	0	3,502629	2,583	70,6068	-0,742	77,229	0	1008,18	5,4	7,7	7,6	1	1	1	1	1	1	1	1	1	0	1	-72,445384	272,943092	242,236315	0
15.01.2021	01:10:42	0	0	2,25976	2,5875	65,106	-0,742	77,217	0	1008,24	5,5	7,7	7,6	1	1	1	1	1	1	1	1	1	0	1	-72,233968	272,913607	242,311778	0
15.01.2021	01:10:43	0	0	3,841593	2,47575	69,5484	-0,741	77,216	0	1008,18	5,4	7,7	7,6	1	1	1	1	1	1	1	1	1	0	1	-72,727273	272,933259	241,909081	0
15.01.2021	01:10:44	0	0	2,598725	2,3835	75,978	-0,739	77,215	0	1008,2	5,4	7,7	7,6	1	1	1	1	1	1	1	1	1	0	1	-74,418605	273,072802	240,861702	0
15.01.2021	01:10:45	0	0	4,180557	2,346	72,6912	-0,739	77,213	0	1008,24	5,5	7,7	7,6	1	1	1	1	1	1	1	1	1	0	1	-72,938689	273,05018	242,237159	0
15.01.2021	01:10:46	0	0	5,197449	2,35575	72,7056	-0,744	77,207	0	1008,24	5,5	7,7	7,6	1	1	1	1	1	1	1	1	1	0	1	-71,388302	272,989517	243,507552	0
15.01.2021	01:10:47	0	0	3,163665	2,29125	71,6004	-0,736	77,216	0	1008,28	5,5	7,7	7,6	1	1	1	1	1	1	1	1	1	0	1	-71,035941	272,903789	243,464544	0
15.01.2021	01:10:48	0	0	4,858485	2,211	63,1908	-0,741	77,216	0	1008,22	5,5	7,7	7,6	1	1	1	1	1	1	1	1	1	0	1	-70,894996	273,016298	244,124444	0
15.01.2021	01:10:49	0	0	4,406533	2,1975	53,7444	-0,737	77,212	0	1008,04	5,4	7,7	7,6	1	1	1	1	1	1	1	1	1	0	1	-66,807611	273,027586	248,263928	0
15.01.2021	01:10:50	0	0	4,293596	2,292	75,9852	-0,738	77,236	0	1008,28	5,5	7,7	7,4	1	1	1	1	1	1	1	1	1	0	1	-68,146582	272,917816	246,41857	0
15.01.2021	01:10:51	0	0	5,197449	2,36175	75,2184	-0,74	77,234	0	1008,3	5,4	7,7	7,6	1	1	1	1	1	1	1	1	1	0	1	-71,176885	272,995152	243,744969	0
15.01.2021	01:10:52	0	0	4,406533	2,4435	79,0308	-0,745	77,23	0	1008,22	5,5	7,7	7,6	1	1	1	1	1	1	1	1	1	0	1	-75,828048	272,895377	238,633663	0
15.01.2021	01:10:53	0	0	4,745497	2,4465	79,4232	-0,748	77,256	0	1008,24	5,5	7,7	7,6	1	1	1	1	1	1	1	1	1	0	1	-70,260747	273,045942	244,895532	0
15.01.2021	01:10:54	0	0	3,163684	2,42475	79,776	-0,742	77,256	0	1008,2	5,4	7,7	7,5	1	1	1	1	1	1	1	1	1	0	1	-69,415081	273,03182	245,676005	0
15.01.2021	01:10:55	0	0	3,050677	2,31225	74,9232	-0,744	77,271	0	1008,24	5,4	7,7	7,6	1	1	1	1	1	1	1	1	1	0	1	-68,428471	272,886969	245,994488	0
15.01.2021	01:10:56	0	0	4,971473	2,21175	82,368	-0,747	77,256	0	1008,34	5,5	7,6	7,6	1	1	1	1	1	1	1	1	1	0	1	-72,797745	272,905191	241,709204	0
15.01.2021	01:10:57	0	0	4,971473	2,05425	68,3928	-0,747	77,256	0	1008,16	5,5	7,7	7,6	1	1	1	1	1	1	1	1	1	0	1	-72,797745	272,870164	241,54777	0
15.01.2021	01:10:58	0	0	4,067569	1,87575	75,0312	-0,746	77,257	0	1008,14	5,5	7,7	7,6	1	1	1	1	1	1	1	1	1	0	1	-70,965469	272,945902	243,729192	0
15.01.2021	01:10:59	0	0	2,937689	1,90275	65,8476	-0,749	77,253	0	1008,2	5,5	7,7	7,6	1	1	1	1	1	1	1	1	1	0	1	-71,67019	272,886969	242,752768	0
15.01.2021	01:11:00	0	0	3,163665	2,19	66,906	-0,758	77,244	0	1008,22	5,5	7,7	7,6	1	1	1	1	1	1	1	1	1	0	1	-71,599718	273,030409	243,484851	0
15.01.2021	01:11:01	0	0	3,728605	2,2245	66,2508	-0,748	77,228	0	1008,18	5,5	7,7	7,6	1	1	1	1	1	1	1	1	1	0	1	-68,287526	272,884167	246,122519	0
15.01.2021	01:11:02	0	0	3,728605	2,2245	66,2508	-0,748	77,228	0	1008,18	5,5	7,7	7,6	1	1	1	1	1	1	1	1	1	0	1	-68,287526	272,884167	246,122519	0
15.01.2021	01:11:03	0	0	4,632509	2,31	63,1548	-0,756	77,229	0	1008,14	5,5	7,7	7,6	1	1	1	1	1	1	1	1	1	0	1	-69,06272	272,944497	245,625459	0
15.01.2021	01:11:04	0	0	5,084461	2,3685	63,8856	-0,747	77,266	0	1008,24	5,5	7,7	7,6	1	1	1	1	1	1	1	1	1	0	1	-68,005638	272,872964	246,352779	0
15.01.2021	01:11:05	0	0	4,632509	2,52975	64,6164	-0,756	77,202	0	1008,3	5,5	7,7	7,6	1	1	1	1	1	1	1	1	1	0	1	-73,643411	273,023352	241,408587	0
15.01.2021	01:11:06	0	0	2,598725	2,61975	65,0844	-0,752	77,2	0	1008,32	5,5	7,7	7,6	1	1	1	1	1	1	1	1	1	0	1	-69,837914	273,016298	245,181526	0
15.01.2021	01:11:07	0	0	4,745497	2,93025	65,8188	-0,757	77,194	0	1008,36	5,5	7,7	7,6	1	1	1	1	1	1	1	1	1	0	1	-68,992248	273,034644	246,111872	0
15.01.2021	01:11:08	0	0	2,711745	3,34275	84,4236	-0,756	77,183	0	1008,18	5,5	7,7	7,4	1	1	1	1	1	1	1	1	1	0	1	-74,770965	272,993743	240,144388	0
15.01.2021	01:11:09	0	0	4,180557	3,5985	88,1172	-0,759	77,177	0	1008,28	5,5	7,7	7,6	1	1	1	1	1	1	1	1	1	0	1	-71,317829	272,889771	243,118044	0
15.01.2021	01:11:10	0	0	3,50265	3,64875	84,8196	-0,764	77,17	0	1008,2	5,5	7,7	7,5	1	1	1	1	1	1	1	1	1	0	1	-75,334743	272,899582	239,146352	0
15.01.2021	01:11:11	0	0	2,25976	3,51375	74,178	-0,76	77,166	0	1008,3	5,5	7,7	7,6	1	1	1	1	1	1	1	1	1	0	1	-79,633545	273,048768	235,53578	0
15.01.2021	01:11:12	0	0	3,61566	3,40275	70,2288	-0,764	77,151	0	1008,16	5,5	7,7	7,4	1	1	1	1	1	1	1	1	1	0	1	-71,458774	272,995152	243,463081	0
15.01.2021	01:11:13	0	0	4,067569	3,25125	69,246	-0,762	77,148	0	1008,32	5,5	7,7	7,6	1	1	1	1	1	1	1	1	1	0	1	-72,30444	273,060074	242,917091	0
15.01.2021	01:11:14	0	0	4,406533	3,144	67,986	-0,769	77,162	0	1008,38	5,5	7,7	7,6	1	1	1	1	1	1	1	1	1	0	1	-72,797745	273,013478	242,208676	0
15.01.2021	01:11:15	0	0	4,858543	3,0015	57,7332	-0,769	77,142	0	1008,18	5,5	7,7	7,4	1	1	1	1	1	1	1	1	1	0	1	-70,542636	272,907996	243,977243	0
15.01.2021	01:11:16	0	0	4,067569	2,89575	63,4932	-0,765	77,164	0	1008,34	5,5	7,7	7,6	1	1	1	1	1	1	1	1	1	0	1	-68,07611	272,858969	246,217821	0
15.01.2021	01:11:17	0	0	2,146772	2,8545	52,9056	-0,771	77,16	0	1008,04	5,5	7,7	7,6	1	1	1	1	1	1	1	1	1	0	1	-70,331219	272,978252	244,512661	0
15.01.2021	01:11:18	0	0	4,519521	2,934	53,7192	-0,766	77,187	0	1008,3	5,5	7,7	7,6	1	1	1	1	1	1	1	1	1	0	1	-73,220578	273,051594	241,961795	0
15.01.2021	01:11:19	0	0	4,632565	2,865	70,8696	-0,771	77,192	0	1008,08	5,5	7,7	7,4	1	1	1	1	1	1	1	1	1	0	1	-69,06272	272,978252	245,781159	0
15.01.2021	01:11:20	0	0	3,276653	2,82375	63,8604	-0,77	77,193	0	1008,12	5,5	7,7	7,6	1	1	1	1	1	1	1	1	1	0	1	-67,794221	273,036056	247,316416	0
15.01.2021	01:11:21	0	0	4,971503	2,92125	69,1632	-0,782	77,211	0	1008,22	5,5	7,6	7,5	1	1	1	1	1	1	1	1	1	0	1	-72,515856	273,05018	242,659992	0
15.01.2021	01:11:22	0	0	5,19748	3,1005	71,2296	-0,771	77,233	0	1008,26	5,5	7,7	7,5	1	1	1	1	1	1	1	1	1	0	1	-68,07611	272,924834	246,521398	0
15.01.2021	01:11:23	0	0	4,067593	3,36225	61,3044	-0,77	77,262	0	1008,3	5,5	7,7	7,5	1	1	1	1	1	1	1	1	1	0	1	-69,767442	272,865965	244,558725	0
15.01.2021	01:11:24	0	0	5,084461	3,91275	73,44	-0,775	77,267	0	1008,36	5,5	7,7	7,6	1	1	1	1	1	1	1	1	1	0	1	-71,176885	272,936068	243,472421	0
15.01.2021	01:11:25	0	0	4,632509	3,98775	70,2144	-0,778	77,291	0	1008,26	5,5	7,7	7,6	1	1	1	1	1	1	1	1	1	0	1	-67,935166	272,879965	246,455515	0
15.01.2021	01:11:26	0	0	2,824718	3,9165	73,062	-0,776	77,309	0	1008,28	5,5	7,7	7,5	1	1	1	1	1	1	1	1	1	0	1	-68,005638	272,863167	246,307633	0
15.01.2021	01:11:27	0	0	2,485751	3,78225	72,0072	-0,779	77,332	0	1008,3	5,5	7,7	7,5	1	1	1	1	1	1	1	1	1	0	1	-70,472163	272,896779	243,996008	0
15.01.2021	01:11:28	0	0	4,180607	3,6315	71,2404	-0,785	77,356	0	1008,32	5,5	7,7	7,4	1	1	1	1	1	1	1	1	1	0	1	-76,603242	272,895377	237,858469	0
15.01.2021	01:11:29	0	0	4,632537	3,44025	75,2364	-0,783	77,402	0	1008,3	5,4	7,7	7,5	1	1	1	1	1	1	1	1	1	0	1	-72,093023	272,853374	242,17513	0
15.01.2021	01:11:30	0	0	2,824701	3,17325	72,2988	-0,78	77,437	0	1008,16	5,5	7,6	7,6	1	1	1	1	1	1	1	1	1	0	1	-65,609584	272,983884	249,260278	0
15.01.2021	01:11:31	0	0	3,954605	2,98725	77,3028	-0,78	77,52	0	1008,28	5,5	7,7	7,5	1	1	1	1	1	1	1	1	1	0	1	-71,247357	273,03182	243,843728	0
15.01.2021	01:11:32	0	0	3,954605	3,00675	62,0208	-0,782	77,547	0	1008,24	5,5	7,6	7,5	1	1	1	1	1	1	1	1	1	0	1	-77,589852	272,982476	237,273514	0
15.01.2021	01:11:33	0	0	4,406559	3,0135	75,6288	-0,777	77,605	0	1008,3	5,5	7,7	7,5	1	1	1	1	1	1	1	1	1	0	1	-65,045807	272,867365	249,286809	0
15.01.2021	01:11:34	0	0	3,389641	2,9295	76,8384	-0,779	77,642	0	1008,26	5,5	7,6	7,6	1	1	1	1	1	1	1	1	1	0	1	-71,247357	272,860368	243,05302	0
15.01.2021	01:11:35	0	0	4,858514	2,99025	68,1192	-0,781	77,688	0	1008,22	5,5	7,7	7,5	1	1	1	1	1	1	1	1	1	0	1	-73,572939	272,938877	241,089323	0
15.01.2021	01:11:36	0	0	3,389661	3,29775	68,0112	-0,784	77,73	0	1008,2	5,5	7,7	7,5	1	1	1	1	1	1	1	1	1	0	1	-69,203665	272,874364	245,161203	0
15.01.2021	01:11:37	0	0	4,971503	3,612	73,8	-0,783	77,778	0	1008,16	5,5	7,7	7,5	1	1	1	1	1	1	1	1	1	0	1	-68,357999	273,02053	246,680974	0
15.01.2021	01:11:38	0	0	3,615638	3,80625	73,764	-0,781	77,786	0	1008,16	5,5	7,7	7,5	1	1	1	1	1	1	1	1	1	0	1	-65,045807	272,913607	249,499939	0
15.01.2021	01:11:39	0	0	2,824718	3,969	71,2476	-0,778	77,816	0	1008,3	5,5	7,7	7,5	1	1	1	1	1	1	1	1	1	0	1	-71,67019	272,871564	242,681775	0
15.01.2021	01:11:40	0	0	4,858514	4,0935	70,8444	-0,783	77,822	0	1008,28	5,5	7,7	7,5	1	1	1	1	1	1	1	1	1	0	1	-69,837914	272,902386	244,656107	0
15.01.2021	01:11:41	0	0	2,824718	4,428	78,66	-0,789	77,844	0	1008,2	5,5	7,7	7,5	1	1	1	1	1	1	1	1	1	0	1	-71,458774	272,860368	242,841604	0
15.01.2021	01:11:42	0	0	2,711713	4,56225	74,232	-0,786	77,896	0	1008,24	5,5	7,6	7,6	1	1	1	1	1	1	1	1	1	0	1	-70,542636	272,906593	243,970778	0
15.01.2021	01:11:43	0	0	3,841593	4,64625	73,0656	-0,783	77,935	0	1008,32	5,5	7,7	7,6	1	1	1	1	1	1	1	1	1	0	1	-70,542636	272,917816	244,022517	0
15.01.2021	01:11:44	0	0	3,615638	4,56825	76,3848	-0,783	77,957	0	1008,28	5,5	7,7	7,5	1	1	1	1	1	1	1	1	1	0	1	-67,582805	272,889771	246,853069	0
15.01.2021	01:11:45	0	0	3,841616	4,23375	91,872	-0,783	77,986	0	1008,24	5,5	7,7	7,5	1	1	1	1	1	1	1	1	1	0	1	-66,807611	272,931854	247,822267	0
15.01.2021	01:11:46	0	0	3,50265	3,84	87,0084	-0,78	78,025	0	1008,3	5,5	7,7	7,5	1	1	1	1	1	1	1	1	1	0	1	-69,203665	272,874364	245,161203	0
15.01.2021	01:11:47	0	0	2,824718	3,78525	86,6412	-0,78	78,047	0	1008,32	5,5	7,6	7,5	1	1	1	1	1	1	1	1	1	0	1	-70,331219	272,97966	244,519155	0
15.01.2021	01:11:48	0	0	2,59874	3,687	86,2848	-0,784	78,047	0	1008,26	5,5	7,7	7,5	1	1	1	1	1	1	1	1	1	0	1	-71,529246	273,057247	243,67923	0
15.01.2021	01:11:49	0	0	4,858514	3,3165	90,4212	-0,785	78,065	0	1008,16	5,5	7,7	7,5	1	1	1	1	1	1	1	1	1	0	1	-71,740662	272,993743	243,174691	0
15.01.2021	01:11:50	0	0	4,067593	3,15975	68,3964	-0,781	78,07	0	1008,22	5,5	7,7	7,5	1	1	1	1	1	1	1	1	1	0	1	-69,133192	272,892574	245,315599	0
15.01.2021	01:11:51	0	0	4,858514	3,342	63,1836	-0,786	78,042	0	1008,28	5,5	7,7	7,5	1	1	1	1	1	1	1	1	1	0	1	-67,300916	272,867365	247,031699	0
15.01.2021	01:11:52	0	0	5,310469	3,777	75,6144	-0,785	78,028	0	1008,24	5,5	7,7	7,5	1	1	1	1	1	1	1	1	1	0	1	-74,066244	272,983884	240,803618	0
15.01.2021	01:11:53	0	0	4,745525	3,90375	70,218	-0,79	78,006	0	1008,24	5,5	7,7	7,5	1	1	1	1	1	1	1	1	1	0	1	-66,102889	272,898181	248,371744	0
15.01.2021	01:11:54	0	0	3,276672	3,861	63,1692	-0,785	78,002	0	1008,22	5,4	7,6	7,5	1	1	1	1	1	1	1	1	1	0	1	-70,331219	272,879965	244,059461	0
15.01.2021	01:11:55	0	0	4,293571	3,558	61,6824	-0,785	78,03	0	1008,5	5,5	7,7	7,5	1	1	1	1	1	1	1	1	1	0	1	-74,489077	272,97403	240,335322	0
15.01.2021	01:11:56	0	0	2,485751	3,43875	68,76	-0,782	78,059	0	1008,34	5,5	7,7	7,5	1	1	1	1	1	1	1	1	1	0	1	-71,317829	272,870164	243,027685	0
15.01.2021	01:11:57	0	0	4,745525	3,7125	67,3524	-0,784	78,104	0	1008,18	5,5	7,7	7,5	1	1	1	1	1	1	1	1	1	0	1	-69,767442	272,892574	244,681349	0
15.01.2021	01:11:58	0	0	3,615638	3,56925	58,4892	-0,78	78,142	0	1008,26	5,5	7,6	7,5	1	1	1	1	1	1	1	1	1	0	1	-70,68358	273,003608	244,277293	0
15.01.2021	01:11:59	0	0	3,615638	3,3075	63,18	-0,779	78,149	0	1008,16	5,5	7,6	7,5	1	1	1	1	1	1	1	1	1	0	1	-71,035941	273,043117	244,107295	0
15.01.2021	01:12:00	0	0	3,954605	2,9265	70,8552	-0,786	78,199	0	1008,2	5,5	7,6	7,5	1	1	1	1	1	1	1	1	1	0	1	-72,30444	272,92343	242,286596	0
15.01.2021	01:12:01	0	0	3,954605	2,9265	70,8552	-0,786	78,199	0	1008,2	5,5	7,6	7,5	1	1	1	1	1	1	1	1	1	0	1	-72,30444	272,92343	242,286596	0
15.01.2021	01:12:02	0	0	3,276672	2,78325	70,8444	-0,776	78,214	0	1008,3	5,4	7,6	7,5	1	1	1	1	1	1	1	1	1	0	1	-71,740662	272,85757	242,546824	0
15.01.2021	01:12:03	0	0	4,293571	2,68275	61,7004	-0,782	78,224	0	1008,16	5,5	7,6	7,5	1	1	1	1	1	1	1	1	1	0	1	-72,022551	273,003608	242,938322	0
15.01.2021	01:12:04	0	0	2,259774	2,6295	71,6904	-0,782	78,237	0	1008	5,5	7,6	7,5	1	1	1	1	1	1	1	1	1	0	1	-70,472163	273,060074	244,749367	0
15.01.2021	01:12:05	0	0	3,50265	2,63175	57,726	-0,778	78,257	0	1008,26	5,5	7,6	7,5	1	1	1	1	1	1	1	1	1	0	1	-68,146582	272,898181	246,328051	0
15.01.2021	01:12:06	0	0	2,59874	2,544	83,7504	-0,779	78,249	0	1008,24	5,5	7,7	7,5	1	1	1	1	1	1	1	1	1	0	1	-74,207188	272,978252	240,636692	0
15.01.2021	01:12:07	0	0	3,163684	2,532	72	-0,781	78,265	0	1008,04	5,5	7,6	7,5	1	1	1	1	1	1	1	1	1	0	1	-71,247357	273,051594	243,935016	0
15.01.2021	01:12:08	0	0	3,050695	2,46225	64,5912	-0,783	78,255	0	1008,36	5,5	7,6	7,5	1	1	1	1	1	1	1	1	1	0	1	-74,982382	273,028997	240,095672	0
15.01.2021	01:12:09	0	0	3,050695	2,53125	68,7672	-0,779	78,264	0	1008,16	5,5	7,6	7,5	1	1	1	1	1	1	1	1	1	0	1	-75,123326	272,947308	239,577816	0
15.01.2021	01:12:10	0	0	5,084492	2,655	69,462	-0,786	78,281	0	1008,14	5,5	7,6	7,5	1	1	1	1	1	1	1	1	1	0	1	-69,978858	273,044529	245,170899	0
15.01.2021	01:12:11	0	0	2,711729	2,6745	69,4872	-0,781	78,289	0	1008,24	5,5	7,6	7,5	1	1	1	1	1	1	1	1	1	0	1	-75,828048	273,009247	239,158849	0
15.01.2021	01:12:12	0	0	3,954605	2,7075	71,9892	-0,783	78,282	0	1008,2	5,5	7,6	7,5	1	1	1	1	1	1	1	1	1	0	1	-75,475687	273,064316	239,765431	0
15.01.2021	01:12:13	0	0	4,745525	2,53875	68,7636	-0,776	78,302	0	1008,28	5,5	7,7	7,5	1	1	1	1	1	1	1	1	1	0	1	-72,233968	272,947308	242,467174	0
15.01.2021	01:12:14	0	0	3,163684	2,421	78,6564	-0,77	78,304	0	1008,3	5,5	7,7	7,5	1	1	1	1	1	1	1	1	1	0	1	-68,921776	272,878565	245,46245	0
15.01.2021	01:12:15	0	0	4,971503	2,4405	69,156	-0,772	78,294	0	1008,24	5,5	7,6	7,5	1	1	1	1	1	1	1	1	1	0	1	-71,247357	272,985292	243,629002	0
15.01.2021	01:12:16	0	0	4,406559	2,619	74,916	-0,771	78,274	0	1008,28	5,5	7,6	7,5	1	1	1	1	1	1	1	1	1	0	1	-70,260747	273,048768	244,908578	0
15.01.2021	01:12:17	0	0	2,937706	2,7495	74,1564	-0,779	78,265	0	1008,34	5,5	7,6	7,5	1	1	1	1	1	1	1	1	1	0	1	-71,458774	272,910801	243,074037	0
15.01.2021	01:12:18	0	0	3,841616	2,78325	78,2892	-0,773	78,285	0	1008,38	5,5	7,6	7,5	1	1	1	1	1	1	1	1	1	0	1	-68,07611	272,889771	246,359764	0
15.01.2021	01:12:19	0	0	3,163684	2,889	73,818	-0,774	78,279	0	1008,32	5,5	7,6	7,5	1	1	1	1	1	1	1	1	1	0	1	-67,935166	272,905191	246,571783	0
15.01.2021	01:12:20	0	0	4,406559	3,168	74,1672	-0,777	78,269	0	1008,22	5,5	7,6	7,5	1	1	1	1	1	1	1	1	1	0	1	-72,515856	272,886969	241,907102	0
15.01.2021	01:12:21	0	0	5,19748	3,26775	68,7816	-0,772	78,25	0	1008,18	5,5	7,7	7,5	1	1	1	1	1	1	1	1	1	0	1	-74,27766	272,927642	240,332794	0
15.01.2021	01:12:22	0	0	3,276672	3,375	64,62	-0,772	78,245	0	1008,36	5,5	7,6	7,5	1	1	1	1	1	1	1	1	1	0	1	-73,009161	272,891173	241,433171	0
15.01.2021	01:12:23	0	0	2,824718	3,77175	77,5728	-0,774	78,227	0	1008,28	5,5	7,7	7,5	1	1	1	1	1	1	1	1	1	0	1	-70,68358	272,920623	243,894513	0
15.01.2021	01:12:24	0	0	3,050695	3,8295	68,0184	-0,774	78,195	0	1008,42	5,5	7,6	7,5	1	1	1	1	1	1	1	1	1	0	1	-70,542636	273,017709	244,483315	0
15.01.2021	01:12:25	0	0	3,050695	4,062	85,1832	-0,77	78,181	0	1008,32	5,5	7,6	7,5	1	1	1	1	1	1	1	1	1	0	1	-69,978858	272,875764	244,392462	0
15.01.2021	01:12:26	0	0	2,485751	4,2825	77,9724	-0,777	78,174	0	1008,38	5,5	7,6	7,5	1	1	1	1	1	1	1	1	1	0	1	-71,035941	272,912204	243,503337	0
15.01.2021	01:12:27	0	0	3,389661	4,85475	75,9816	-0,776	78,143	0	1008,26	5,5	7,6	7,5	1	1	1	1	1	1	1	1	1	0	1	-70,894996	272,871564	243,456969	0
15.01.2021	01:12:28	0	0	3,50265	5,061	64,2384	-0,775	78,117	0	1008,22	5,5	7,7	7,5	1	1	1	1	1	1	1	1	1	0	1	-71,176885	273,055833	244,025064	0
15.01.2021	01:12:29	0	0	4,406559	5,18925	74,9376	-0,767	78,104	0	1008,26	5,5	7,6	7,5	1	1	1	1	1	1	1	1	1	0	1	-66,596195	272,934663	248,046635	0
15.01.2021	01:12:30	0	0	4,858514	5,15325	78,3144	-0,773	78,081	0	1008,3	5,5	7,6	7,5	1	1	1	1	1	1	1	1	1	0	1	-69,344609	272,877164	245,033164	0
15.01.2021	01:12:31	0	0	4,971503	5,12325	76,8528	-0,773	78,054	0	1008,22	5,5	7,6	7,5	1	1	1	1	1	1	1	1	1	0	1	-75,475687	272,997971	239,459171	0
15.01.2021	01:12:32	0	0	3,50265	5,06175	68,4252	-0,769	78,036	0	1008,2	5,5	7,6	7,5	1	1	1	1	1	1	1	1	1	0	1	-71,529246	273,064316	243,711872	0
15.01.2021	01:12:33	0	0	3,841616	5,09475	78,156	-0,771	78,04	0	1008,44	5,5	7,7	7,5	1	1	1	1	1	1	1	1	1	0	1	-71,811135	272,959961	242,948366	0
15.01.2021	01:12:34	0	0	4,519548	4,76625	70,5996	-0,773	78,042	0	1008,28	5,5	7,7	7,5	1	1	1	1	1	1	1	1	1	0	1	-69,415081	272,893975	245,04017	0
15.01.2021	01:12:35	0	0	4,293571	4,21575	80,9172	-0,768	78,053	0	1008,4	5,5	7,7	7,5	1	1	1	1	1	1	1	1	1	0	1	-70,965469	273,045942	244,190811	0
15.01.2021	01:12:36	0	0	4,180582	4,257	84,8124	-0,768	78,032	0	1008,28	5,5	7,6	7,5	1	1	1	1	1	1	1	1	1	0	1	-67,512333	272,926238	247,091648	0
15.01.2021	01:12:37	0	0	2,372763	4,9185	77,9616	-0,765	78,035	0	1008,16	5,5	7,7	7,5	1	1	1	1	1	1	1	1	1	0	1	-68,921776	273,068558	246,338934	0
15.01.2021	01:12:38	0	0	2,59874	5,6025	78,6564	-0,769	78,014	0	1008,16	5,5	7,6	7,5	1	1	1	1	1	1	1	1	1	0	1	-69,06272	273,027586	246,008819	0
15.01.2021	01:12:39	0	0	2,711729	5,448	74,9124	-0,771	78,003	0	1008,24	5,4	7,6	7,5	1	1	1	1	1	1	1	1	1	0	1	-68,428471	272,892574	246,020321	0
15.01.2021	01:12:40	0	0	4,858514	5,72775	78,2568	-0,768	77,996	0	1008,36	5,5	7,6	7,5	1	1	1	1	1	1	1	1	1	0	1	-72,093023	273,047355	243,069778	0
15.01.2021	01:12:41	0	0	3,389661	5,7975	75,978	-0,771	77,98	0	1008,32	5,5	7,6	7,5	1	1	1	1	1	1	1	1	1	0	1	-69,978858	273,005018	244,98852	0
15.01.2021	01:12:42	0	0	5,084492	6	72,6732	-0,769	77,965	0	1008,36	5,5	7,7	7,5	1	1	1	1	1	1	1	1	1	0	1	-74,982382	272,905191	239,524567	0
15.01.2021	01:12:43	0	0	2,937706	6,045	72,6732	-0,774	77,947	0	1008,2	5,5	7,6	7,5	1	1	1	1	1	1	1	1	1	0	1	-74,91191	272,902386	239,582111	0
15.01.2021	01:12:44	0	0	3,163684	6,045	78,2892	-0,777	77,959	0	1008,3	5,5	7,6	7,5	1	1	1	1	1	1	1	1	1	0	1	-70,119803	272,938877	244,542459	0
15.01.2021	01:12:45	0	0	3,841616	6,06225	84,4236	-0,773	77,97	0	1008,26	5,5	7,6	7,5	1	1	1	1	1	1	1	1	1	0	1	-69,203665	273,064316	246,037453	0
15.01.2021	01:12:46	0	0	3,050695	6,4365	73,4544	-0,769	78,006	0	1008,32	5,4	7,7	7,5	1	1	1	1	1	1	1	1	1	0	1	-74,841438	272,957148	239,905091	0
15.01.2021	01:12:47	0	0	2,824718	6,4935	74,9376	-0,772	78,045	0	1008,18	5,5	7,7	7,5	1	1	1	1	1	1	1	1	1	0	1	-74,489077	273,06573	240,758571	0
15.01.2021	01:12:48	0	0	4,180582	6,35325	74,5488	-0,768	78,099	0	1008,2	5,5	7,6	7,5	1	1	1	1	1	1	1	1	1	0	1	-74,700493	273,016298	240,318947	0
15.01.2021	01:12:49	0	0	2,372763	6,30375	73,4364	-0,769	78,17	0	1008,18	5,5	7,6	7,5	1	1	1	1	1	1	1	1	1	0	1	-73,784355	273,091201	241,580935	0
15.01.2021	01:12:50	0	0	3,841616	6,20025	73,7712	-0,763	78,229	0	1008,42	5,5	7,7	7,5	1	1	1	1	1	1	1	1	1	0	1	-70,68358	273,053007	244,505318	0
15.01.2021	01:12:51	0	0	4,406559	6,3405	76,8168	-0,762	78,273	0	1008,38	5,5	7,6	7,5	1	1	1	1	1	1	1	1	1	0	1	-75,052854	273,078461	240,253591	0
15.01.2021	01:12:52	0	0	3,276672	6,45	71,3052	-0,77	78,285	0	1008,28	5,5	7,7	7,5	1	1	1	1	1	1	1	1	1	0	1	-69,556025	272,945902	245,138635	0
15.01.2021	01:12:53	0	0	3,50265	6,2865	73,7928	-0,762	78,312	0	1008,22	5,5	7,6	7,5	1	1	1	1	1	1	1	1	1	0	1	-71,317829	273,0997	244,086716	0
15.01.2021	01:12:54	0	0	4,067593	6,0525	74,1744	-0,758	78,309	0	1008,26	5,5	7,7	7,5	1	1	1	1	1	1	1	1	1	0	1	-74,630021	273,091201	240,735269	0
15.01.2021	01:12:55	0	0	3,276672	5,8365	86,6556	-0,765	78,3	0	1008,28	5,5	7,8	7,5	1	1	1	1	1	1	1	1	1	0	1	-71,247357	273,003608	243,713516	0
15.01.2021	01:12:56	0	0	4,519548	5,2395	67,6764	-0,769	78,317	0	1008,1	5,5	7,7	7,5	1	1	1	1	1	1	1	1	1	0	1	-70,472163	272,940282	244,196577	0
15.01.2021	01:12:57	0	0	4,745525	4,8045	98,4636	-0,762	78,348	0	1008,14	5,5	7,6	7,5	1	1	1	1	1	1	1	1	1	0	1	-73,784355	273,062902	241,450233	0
15.01.2021	01:12:58	0	0	3,615638	4,6275	87,3648	-0,762	78,364	0	1008,14	5,5	7,7	7,5	1	1	1	1	1	1	1	1	1	0	1	-72,093023	273,085538	243,246107	0
15.01.2021	01:12:59	0	0	3,954605	4,6215	66,2148	-0,759	78,399	0	1008,22	5,5	7,7	7,5	1	1	1	1	1	1	1	1	1	0	1	-69,978858	273,082707	245,347196	0
15.01.2021	01:13:00	0	0	3,615638	4,746	59,5152	-0,76	78,455	0	1008,18	5,5	7,7	7,5	1	1	1	1	1	1	1	1	1	0	1	-71,035941	272,965587	243,749512	0
15.01.2021	01:13:01	0	0	3,841616	4,944	83,3796	-0,756	78,495	0	1008,24	5,5	7,6	7,5	1	1	1	1	1	1	1	1	1	0	1	-69,767442	272,978252	245,076438	0
15.01.2021	01:13:02	0	0	3,841616	4,944	83,3796	-0,756	78,495	0	1008,24	5,5	7,6	7,5	1	1	1	1	1	1	1	1	1	0	1	-69,767442	272,978252	245,076438	0
15.01.2021	01:13:03	0	0	3,050695	4,90875	81,594	-0,755	78,497	0	1008,32	5,5	7,6	7,5	1	1	1	1	1	1	1	1	1	0	1	-70,049331	272,97403	244,775069	0
15.01.2021	01:13:04	0	0	4,519548	4,629	81,5868	-0,754	78,499	0	1008,32	5,5	7,7	7,5	1	1	1	1	1	1	1	1	1	0	1	-73,009161	272,997971	241,925697	0
15.01.2021	01:13:05	0	0	2,485751	4,53225	72,3024	-0,753	78,495	0	1008,2	5,5	7,8	7,5	1	1	1	1	1	1	1	1	1	0	1	-75,264271	272,95293	239,462803	0
15.01.2021	01:13:06	0	0	4,519548	4,39275	81,2124	-0,76	78,5	0	1008,08	5,5	7,6	7,5	1	1	1	1	1	1	1	1	1	0	1	-67,300916	273,02053	247,738057	0
15.01.2021	01:13:07	0	0	4,632537	4,41075	87,7068	-0,751	78,506	0	1008,26	5,5	7,6	7,5	1	1	1	1	1	1	1	1	1	0	1	-73,643411	273,125216	241,87903	0
15.01.2021	01:13:08	0	0	4,858514	4,39275	101,0952	-0,751	78,495	0	1008,3	5,5	7,7	7,5	1	1	1	1	1	1	1	1	1	0	1	-72,868217	273,094034	242,510156	0
15.01.2021	01:13:09	0	0	2,824718	4,22025	94,3956	-0,75	78,495	0	1008,02	5,5	7,6	7,5	1	1	1	1	1	1	1	1	1	0	1	-73,9253	273,130891	241,623366	0
15.01.2021	01:13:10	0	0	3,954605	4,062	78,3072	-0,744	78,523	0	1008,2	5,5	7,7	7,5	1	1	1	1	1	1	1	1	1	0	1	-71,67019	272,95293	243,056883	0
15.01.2021	01:13:11	0	0	4,971503	4,215	92,6424	-0,747	78,527	0	1008,22	5,5	7,7	7,5	1	1	1	1	1	1	1	1	1	0	1	-78,435518	273,03182	236,655568	0
15.01.2021	01:13:12	0	0	4,067593	4,134	93,3624	-0,747	78,518	0	1008,2	5,5	7,6	7,5	1	1	1	1	1	1	1	1	1	0	1	-72,586328	272,959961	242,173173	0
15.01.2021	01:13:13	0	0	4,858514	4,12125	88,1352	-0,748	78,529	0	1008,22	5,5	7,6	7,5	1	1	1	1	1	1	1	1	1	0	1	-69,344609	273,091201	246,020681	0
15.01.2021	01:13:14	0	0	3,389661	3,89025	85,194	-0,741	78,509	0	1008,2	5,5	7,6	7,5	1	1	1	1	1	1	1	1	1	0	1	-74,841438	272,975437	239,989454	0
15.01.2021	01:13:15	0	0	4,180582	3,58575	77,9652	-0,74	78,53	0	1008,22	5,5	7,6	7,5	1	1	1	1	1	1	1	1	1	0	1	-74,630021	273,026174	240,435003	0
15.01.2021	01:13:16	0	0	5,19748	3,49125	75,6288	-0,739	78,511	0	1008,34	5,5	7,6	7,5	1	1	1	1	1	1	1	1	1	0	1	-73,784355	273,140827	241,810226	0
15.01.2021	01:13:17	0	0	5,310469	3,72375	80,604	-0,74	78,493	0	1008,16	5,5	7,7	7,5	1	1	1	1	1	1	1	1	1	0	1	-73,713883	273,045942	241,442396	0
15.01.2021	01:13:18	0	0	2,372763	3,8385	80,1468	-0,737	78,488	0	1008,36	5,5	7,6	7,5	1	1	1	1	1	1	1	1	1	0	1	-74,418605	272,97403	240,405794	0
15.01.2021	01:13:19	0	0	2,59874	4,02825	71,6004	-0,732	78,46	0	1008,28	5,5	7,6	7,5	1	1	1	1	1	1	1	1	1	0	1	-73,854827	273,005018	241,112551	0
15.01.2021	01:13:20	0	0	4,971503	3,97575	79,776	-0,736	78,439	0	1008,3	5,4	7,6	7,5	1	1	1	1	1	1	1	1	1	0	1	-73,572939	272,989517	241,322915	0
15.01.2021	01:13:21	0	0	4,745525	3,7545	72,6768	-0,735	78,418	0	1008,22	5,4	7,6	7,5	1	1	1	1	1	1	1	1	1	0	1	-73,361522	272,985292	241,514837	0
15.01.2021	01:13:22	0	0	3,954605	3,6315	73,8036	-0,73	78,377	0	1008,12	5,6	7,8	7,5	1	1	1	1	1	1	1	1	1	0	1	-72,374912	273,075631	242,918463	0
15.01.2021	01:13:23	0	0	2,937706	3,48525	71,2404	-0,737	78,364	0	1008,22	5,4	7,6	7,5	1	1	1	1	1	1	1	1	1	0	1	-66,948555	272,97966	247,901819	0
15.01.2021	01:13:24	0	0	3,389661	3,381	80,514	-0,732	78,34	0	1008,16	5,5	7,7	7,5	1	1	1	1	1	1	1	1	1	0	1	-71,176885	273,079877	244,136096	0
15.01.2021	01:13:25	0	0	3,050695	3,27825	61,0308	-0,728	78,301	0	1008,24	5,5	7,7	7,5	1	1	1	1	1	1	1	1	1	0	1	-71,176885	273,15645	244,489907	0
15.01.2021	01:13:26	0	0	5,649435	3,2895	62,7696	-0,734	78,277	0	1008,12	5,5	7,6	7,5	1	1	1	1	1	1	1	1	1	0	1	-75,052854	273,03182	240,038232	0
15.01.2021	01:13:27	0	0	4,858514	3,3225	81,216	-0,732	78,24	0	1008,2	5,5	7,6	7,5	1	1	1	1	1	1	1	1	1	0	1	-68,428471	272,981068	246,428399	0
15.01.2021	01:13:28	0	0	3,163684	3,183	73,7748	-0,73	78,233	0	1008,32	5,5	7,6	7,5	1	1	1	1	1	1	1	1	1	0	1	-75,968992	273,074217	239,317849	0
15.01.2021	01:13:29	0	0	3,728627	2,9925	62,7984	-0,73	78,211	0	1008,12	5,6	7,7	7,5	1	1	1	1	1	1	1	1	1	0	1	-69,203665	273,160713	246,482835	0
15.01.2021	01:13:30	0	0	2,372763	3,0675	81,2016	-0,722	78,187	0	1008,28	5,6	7,6	7,5	1	1	1	1	1	1	1	1	1	0	1	-74,489077	273,053007	240,699821	0
15.01.2021	01:13:31	0	0	2,59874	2,98125	76,0068	-0,723	78,172	0	1008,24	5,5	7,6	7,5	1	1	1	1	1	1	1	1	1	0	1	-73,9253	273,145086	241,688969	0
15.01.2021	01:13:32	0	0	4,519548	3,0735	78,3036	-0,725	78,146	0	1008,2	5,6	7,7	7,5	1	1	1	1	1	1	1	1	1	0	1	-71,881607	273,128054	243,653945	0
15.01.2021	01:13:33	0	0	4,632537	3,06525	86,2956	-0,723	78,112	0	1008,26	5,6	7,7	7,5	1	1	1	1	1	1	1	1	1	0	1	-69,69697	273,03182	245,394116	0
15.01.2021	01:13:34	0	0	2,824718	3,10725	77,6016	-0,721	78,102	0	1008,22	5,4	7,6	7,5	1	1	1	1	1	1	1	1	1	0	1	-77,730796	273,173508	238,014854	0
15.01.2021	01:13:35	0	0	3,954605	3,18975	43,6788	-0,724	78,066	0	1008,16	5,6	7,6	7,5	1	1	1	1	1	1	1	1	1	0	1	-68,146582	273,112454	247,316887	0
15.01.2021	01:13:36	0	0	3,50265	3,01125	53,3628	-0,723	78,051	0	1008,16	5,4	7,6	7,5	1	1	1	1	1	1	1	1	1	0	1	-71,67019	272,983884	243,199672	0
15.01.2021	01:13:37	0	0	4,180582	2,8665	58,104	-0,723	78,031	0	1008,2	5,4	7,6	7,5	1	1	1	1	1	1	1	1	1	0	1	-69,626498	273,12238	245,882834	0
15.01.2021	01:13:38	0	0	4,745525	2,8095	54,7884	-0,721	77,996	0	1008,26	5,5	7,7	7,5	1	1	1	1	1	1	1	1	1	0	1	-78,576462	272,982476	236,286903	0
15.01.2021	01:13:39	0	0	4,632537	2,90625	58,4928	-0,722	77,96	0	1008,12	5,4	7,7	7,5	1	1	1	1	1	1	1	1	1	0	1	-71,881607	273,128054	243,653945	0
15.01.2021	01:13:40	0	0	4,406559	2,79975	49,1832	-0,727	77,952	0	1008,22	5,4	7,7	7,5	1	1	1	1	1	1	1	1	1	0	1	-68,992248	273,043117	246,150988	0
15.01.2021	01:13:41	0	0	4,632537	2,60175	58,1112	-0,721	77,918	0	1008,2	5,6	7,6	7,5	1	1	1	1	1	1	1	1	1	0	1	-71,176885	273,150767	244,46364	0
15.01.2021	01:13:42	0	0	4,632537	2,45625	51,7464	-0,722	77,92	0	1008,26	5,6	7,6	7,5	1	1	1	1	1	1	1	1	1	0	1	-70,613108	273,044529	244,536649	0
15.01.2021	01:13:43	0	0	2,937706	2,29425	57,132	-0,722	77,894	0	1008,18	5,4	7,7	7,5	1	1	1	1	1	1	1	1	1	0	1	-75,828048	272,992335	239,080805	0
15.01.2021	01:13:44	0	0	4,519548	2,30625	49,5648	-0,72	77,9	0	1008,2	5,6	7,7	7,5	1	1	1	1	1	1	1	1	1	0	1	-71,740662	273,123798	243,775223	0
15.01.2021	01:13:45	0	0	4,632537	2,36925	58,482	-0,725	77,89	0	1008,22	5,4	7,6	7,5	1	1	1	1	1	1	1	1	1	0	1	-72,727273	272,985292	242,149086	0
15.01.2021	01:13:46	0	0	3,728627	2,4285	68,0112	-0,721	77,881	0	1008,28	5,4	7,7	7,5	1	1	1	1	1	1	1	1	1	0	1	-74,630021	273,106784	240,807254	0
15.01.2021	01:13:47	0	0	4,745525	2,52	65,484	-0,716	77,876	0	1008,02	5,6	7,6	7,5	1	1	1	1	1	1	1	1	1	0	1	-73,713883	272,995152	241,207971	0
15.01.2021	01:13:48	0	0	4,858514	2,652	68,778	-0,721	77,873	0	1008,34	5,6	7,7	7,5	1	1	1	1	1	1	1	1	1	0	1	-72,233968	273,111036	243,222952	0
15.01.2021	01:13:49	0	0	4,745525	2,6685	63,882	-0,719	77,874	0	1008,4	5,4	7,7	7,5	1	1	1	1	1	1	1	1	1	0	1	-73,220578	272,990926	241,681775	0
15.01.2021	01:13:50	0	0	3,389661	2,60325	62,0208	-0,716	77,884	0	1008,34	5,6	7,6	7,5	1	1	1	1	1	1	1	1	1	0	1	-69,485553	273,017709	245,540397	0
15.01.2021	01:13:51	0	0	3,728627	2,41125	52,884	-0,715	77,881	0	1008,24	5,6	7,7	7,5	1	1	1	1	1	1	1	1	1	0	1	-73,784355	273,108201	241,659468	0
15.01.2021	01:13:52	0	0	3,276672	2,4735	64,6236	-0,717	77,865	0	1008,16	5,5	7,7	7,5	1	1	1	1	1	1	1	1	1	0	1	-69,837914	273,169242	245,888014	0
15.01.2021	01:13:53	0	0	4,519548	2,49375	60,5592	-0,726	77,863	0	1008,14	5,6	7,6	7,5	1	1	1	1	1	1	1	1	1	0	1	-73,150106	273,094034	242,228267	0
15.01.2021	01:13:54	0	0	3,728627	2,58	49,5252	-0,717	77,877	0	1008,24	5,6	7,6	7,5	1	1	1	1	1	1	1	1	1	0	1	-73,502467	273,163555	242,197173	0
15.01.2021	01:13:55	0	0	5,19748	2,73525	53,7228	-0,715	77,871	0	1008,36	5,4	7,6	7,5	1	1	1	1	1	1	1	1	1	0	1	-70,472163	273,055833	244,729786	0
15.01.2021	01:13:56	0	0	2,485751	2,688	77,9724	-0,721	77,875	0	1008,16	5,4	7,6	7,5	1	1	1	1	1	1	1	1	1	0	1	-72,374912	273,002198	242,579457	0
15.01.2021	01:13:57	0	0	5,310469	2,4465	59,4864	-0,714	77,848	0	1008,3	5,6	7,7	7,5	1	1	1	1	1	1	1	1	1	0	1	-74,559549	272,966994	240,232394	0
15.01.2021	01:13:58	0	0	2,824718	2,27775	48,4884	-0,715	77,864	0	1008,26	5,4	7,6	7,5	1	1	1	1	1	1	1	1	1	0	1	-68,428471	273,105367	247,002258	0
15.01.2021	01:13:59	0	0	5,310469	2,6205	60,264	-0,714	77,863	0	1008,26	5,6	7,6	7,5	1	1	1	1	1	1	1	1	1	0	1	-72,093023	272,969808	242,7119	0
15.01.2021	01:14:00	0	0	4,858514	3,387	69,4944	-0,717	77,848	0	1008,32	5,6	7,6	7,5	1	1	1	1	1	1	1	1	1	0	1	-71,740662	272,992335	243,16819	0
15.01.2021	01:14:01	0	0	3,728627	3,4815	81,5904	-0,714	77,839	0	1008,2	5,6	7,7	7,5	1	1	1	1	1	1	1	1	1	0	1	-73,643411	273,115289	241,833159	0
15.01.2021	01:14:02	0	0	3,728627	3,4815	81,5904	-0,714	77,839	0	1008,2	5,6	7,7	7,5	1	1	1	1	1	1	1	1	1	0	1	-73,643411	273,115289	241,833159	0
15.01.2021	01:14:03	0	0	4,745525	3,40425	73,4256	-0,715	77,84	0	1008,22	5,4	7,6	7,5	1	1	1	1	1	1	1	1	1	0	1	-72,515856	273,152188	243,131235	0
15.01.2021	01:14:04	0	0	2,937706	3,3255	73,7892	-0,716	77,835	0	1008,28	5,5	7,7	7,5	1	1	1	1	1	1	1	1	1	0	1	-74,770965	272,976845	240,06642	0
15.01.2021	01:14:05	0	0	2,485751	3,255	79,4124	-0,718	77,803	0	1008,34	5,4	7,7	7,5	1	1	1	1	1	1	1	1	1	0	1	-69,415081	273,079877	245,8979	0
15.01.2021	01:14:06	0	0	3,841616	3,4545	63,4752	-0,714	77,816	0	1008,44	5,6	7,7	7,5	1	1	1	1	1	1	1	1	1	0	1	-72,727273	273,13231	242,82795	0
15.01.2021	01:14:07	0	0	3,841616	3,92475	63,1656	-0,718	77,791	0	1008,16	5,6	7,7	7,5	1	1	1	1	1	1	1	1	1	0	1	-71,388302	273,140827	244,206279	0
15.01.2021	01:14:08	0	0	5,084492	3,945	69,1488	-0,712	77,777	0	1008,14	5,4	7,7	7,5	1	1	1	1	1	1	1	1	1	0	1	-73,150106	273,053007	242,038792	0
15.01.2021	01:14:09	0	0	4,180582	4,12875	66,2184	-0,713	77,776	0	1008,3	5,6	7,7	7,5	1	1	1	1	1	1	1	1	1	0	1	-71,881607	273,150767	243,758919	0
15.01.2021	01:14:10	0	0	3,841616	4,2375	65,0844	-0,716	77,752	0	1008,26	5,6	7,7	7,5	1	1	1	1	1	1	1	1	1	0	1	-73,361522	273,113871	242,108497	0
15.01.2021	01:14:11	0	0	2,711729	4,3785	61,6932	-0,717	77,754	0	1008,3	5,4	7,7	7,5	1	1	1	1	1	1	1	1	1	0	1	-69,344609	273,113871	246,125411	0
15.01.2021	01:14:12	0	0	3,841616	4,38825	54,1044	-0,714	77,763	0	1008,14	5,6	7,6	7,5	1	1	1	1	1	1	1	1	1	0	1	-73,009161	273,150767	242,631364	0
15.01.2021	01:14:13	0	0	4,632537	4,03875	73,0404	-0,722	77,763	0	1008,2	5,6	7,7	7,5	1	1	1	1	1	1	1	1	1	0	1	-72,938689	273,081292	242,380828	0
15.01.2021	01:14:14	0	0	4,293571	3,78525	78,3	-0,71	77,755	0	1008,18	5,5	7,7	7,5	1	1	1	1	1	1	1	1	1	0	1	-71,106413	272,972622	243,711494	0
15.01.2021	01:14:15	0	0	4,067593	3,62475	66,9312	-0,713	77,756	0	1008,24	5,6	7,6	7,5	1	1	1	1	1	1	1	1	1	0	1	-69,978858	272,96418	244,800106	0
15.01.2021	01:14:16	0	0	4,406559	3,65475	68,418	-0,711	77,774	0	1008,28	5,4	7,6	7,5	1	1	1	1	1	1	1	1	1	0	1	-74,559549	273,0997	240,844997	0
15.01.2021	01:14:17	0	0	3,954605	3,429	71,2512	-0,715	77,775	0	1008,22	5,6	7,7	7,5	1	1	1	1	1	1	1	1	1	0	1	-73,572939	273,139407	242,015081	0
15.01.2021	01:14:18	0	0	3,728627	3,384	66,1968	-0,715	77,761	0	1008,18	5,6	7,7	7,5	1	1	1	1	1	1	1	1	1	0	1	-70,965469	273,000789	243,982396	0
15.01.2021	01:14:19	0	0	2,937706	3,29925	63,8676	-0,714	77,77	0	1008,22	5,5	7,7	7,5	1	1	1	1	1	1	1	1	1	0	1	-75,616631	273,01912	239,41583	0
15.01.2021	01:14:20	0	0	4,632537	3,08475	68,3964	-0,716	77,757	0	1008,12	5,6	7,6	7,5	1	1	1	1	1	1	1	1	1	0	1	-73,784355	273,147927	241,84304	0
15.01.2021	01:14:21	0	0	2,485751	2,92425	58,5216	-0,717	77,744	0	1008,18	5,5	7,7	7,5	1	1	1	1	1	1	1	1	1	0	1	-69,978858	273,005018	244,98852	0
15.01.2021	01:14:22	0	0	4,858514	2,91825	79,0524	-0,707	77,75	0	1008,28	5,4	7,6	7,5	1	1	1	1	1	1	1	1	1	0	1	-70,049331	273,140827	245,545251	0
15.01.2021	01:14:23	0	0	5,310469	2,78175	72,6804	-0,717	77,723	0	1008,2	5,4	7,7	7,5	1	1	1	1	1	1	1	1	1	0	1	-67,371388	273,098283	248,026613	0
15.01.2021	01:14:24	0	0	4,067593	2,6445	76,0896	-0,709	77,735	0	1008,36	5,4	7,6	7,5	1	1	1	1	1	1	1	1	1	0	1	-72,938689	273,129473	242,603419	0
15.01.2021	01:14:25	0	0	4,858514	2,67225	69,48	-0,711	77,724	0	1008,12	5,4	7,6	7,5	1	1	1	1	1	1	1	1	1	0	1	-77,51938	273,130891	238,029285	0
15.01.2021	01:14:26	0	0	4,519548	2,727	72,0108	-0,714	77,702	0	1008,26	5,5	7,7	7,5	1	1	1	1	1	1	1	1	1	0	1	-72,233968	273,014888	242,778963	0
15.01.2021	01:14:27	0	0	4,406559	2,6685	68,4936	-0,709	77,69	0	1008,08	5,6	7,7	7,5	1	1	1	1	1	1	1	1	1	0	1	-67,653277	272,954336	247,080281	0
15.01.2021	01:14:28	0	0	2,937706	2,4015	69,1596	-0,712	77,686	0	1008,2	5,6	7,7	7,5	1	1	1	1	1	1	1	1	1	0	1	-73,29105	273,067144	241,963128	0
15.01.2021	01:14:29	0	0	4,632537	2,2605	66,9456	-0,714	77,696	0	1008,26	5,4	7,8	7,5	1	1	1	1	1	1	1	1	1	0	1	-67,230444	273,129473	248,311664	0
15.01.2021	01:14:30	0	0	4,180582	2,0775	65,4552	-0,71	77,68	0	1008,16	5,6	7,6	7,5	1	1	1	1	1	1	1	1	1	0	1	-75,405215	273,139407	240,182805	0
15.01.2021	01:14:31	0	0	4,180582	1,9515	83,3688	-0,714	77,686	0	1008,22	5,4	7,7	7,5	1	1	1	1	1	1	1	1	1	0	1	-73,079634	273,082707	242,246421	0
15.01.2021	01:14:32	0	0	5,084492	1,89525	78,66	-0,711	77,672	0	1008,14	5,6	7,7	7,5	1	1	1	1	1	1	1	1	1	0	1	-72,163495	273,136568	243,411404	0
15.01.2021	01:14:33	0	0	2,711729	1,91775	76,3596	-0,713	77,655	0	1008,26	5,4	7,7	7,5	1	1	1	1	1	1	1	1	1	0	1	-68,710359	273,092618	246,661472	0
15.01.2021	01:14:34	0	0	3,615638	1,941	74,1636	-0,719	77,64	0	1008,28	5,5	7,6	7,5	1	1	1	1	1	1	1	1	1	0	1	-71,035941	273,126635	244,493055	0
15.01.2021	01:14:35	0	0	2,711729	1,97775	75,9816	-0,713	77,627	0	1008,2	5,5	7,7	7,5	1	1	1	1	1	1	1	1	1	0	1	-69,274137	272,947308	245,427005	0
15.01.2021	01:14:36	0	0	3,50265	2,0205	71,6004	-0,718	77,604	0	1008,18	5,6	7,7	7,5	1	1	1	1	1	1	1	1	1	0	1	-74,348132	273,067144	240,906046	0
15.01.2021	01:14:37	0	0	3,841616	2,223	66,5424	-0,714	77,581	0	1008,32	5,4	7,6	7,5	1	1	1	1	1	1	1	1	1	0	1	-72,093023	272,96418	242,685941	0
15.01.2021	01:14:38	0	0	3,389661	2,44275	67,2876	-0,714	77,58	0	1008,3	5,4	7,7	7,5	1	1	1	1	1	1	1	1	1	0	1	-71,317829	273,086954	244,02784	0
15.01.2021	01:14:39	0	0	2,937706	2,49825	70,866	-0,713	77,566	0	1008,18	5,6	7,8	7,5	1	1	1	1	1	1	1	1	1	0	1	-70,049331	273,123798	245,466555	0
15.01.2021	01:14:40	0	0	2,59874	2,68575	71,6112	-0,718	77,552	0	1008,22	5,6	7,7	7,5	1	1	1	1	1	1	1	1	1	0	1	-70,119803	273,09545	245,265112	0
15.01.2021	01:14:41	0	0	2,937706	2,93475	75,2472	-0,712	77,53	0	1008,36	5,5	7,6	7,5	1	1	1	1	1	1	1	1	1	0	1	-71,952079	273,068558	243,308631	0
15.01.2021	01:14:42	0	0	3,50265	3,00825	69,156	-0,711	77,527	0	1008,24	5,5	7,7	7,5	1	1	1	1	1	1	1	1	1	0	1	-71,952079	272,940282	242,716662	0
15.01.2021	01:14:43	0	0	4,971503	3,0615	82,98	-0,718	77,514	0	1008,3	5,6	7,7	7,5	1	1	1	1	1	1	1	1	1	0	1	-73,784355	272,97403	241,040044	0
15.01.2021	01:14:44	0	0	5,084492	2,98275	69,4692	-0,712	77,508	0	1008,2	5,4	7,6	7,5	1	1	1	1	1	1	1	1	1	0	1	-75,828048	272,954336	238,90551	0
15.01.2021	01:14:45	0	0	4,180582	2,81025	75,9672	-0,718	77,507	0	1008,3	5,5	7,7	7,5	1	1	1	1	1	1	1	1	1	0	1	-70,190275	272,969808	244,614649	0
15.01.2021	01:14:46	0	0	3,841616	2,6055	66,5388	-0,721	77,511	0	1008,14	5,5	7,7	7,5	1	1	1	1	1	1	1	1	1	0	1	-75,405215	272,981068	239,451655	0
15.01.2021	01:14:47	0	0	3,50265	2,49975	66,9096	-0,718	77,516	0	1008,2	5,5	7,6	7,5	1	1	1	1	1	1	1	1	1	0	1	-76,039464	273,12238	239,469867	0
15.01.2021	01:14:48	0	0	4,519548	2,69325	75,996	-0,722	77,512	0	1008,16	5,5	7,6	7,5	1	1	1	1	1	1	1	1	1	0	1	-71,388302	272,989517	243,507552	0
15.01.2021	01:14:49	0	0	3,389661	2,976	64,242	-0,717	77,508	0	1008,22	5,5	7,7	7,5	1	1	1	1	1	1	1	1	1	0	1	-71,529246	272,945902	243,165415	0
15.01.2021	01:14:50	0	0	2,372763	3,17325	73,4508	-0,716	77,488	0	1008,22	5,5	7,7	7,5	1	1	1	1	1	1	1	1	1	0	1	-71,67019	273,017709	243,35576	0
15.01.2021	01:14:51	0	0	4,293571	3,276	63,1728	-0,719	77,487	0	1008,24	5,5	7,8	7,5	1	1	1	1	1	1	1	1	1	0	1	-70,68358	272,986701	244,199277	0
15.01.2021	01:14:52	0	0	4,519548	3,29175	72,7128	-0,723	77,473	0	1008,26	5,5	7,6	7,5	1	1	1	1	1	1	1	1	1	0	1	-73,643411	272,944497	241,044769	0
15.01.2021	01:14:53	0	0	4,067593	3,12825	72,6768	-0,72	77,459	0	1008,28	5,4	7,7	7,5	1	1	1	1	1	1	1	1	1	0	1	-68,217054	273,041704	246,919661	0
15.01.2021	01:14:54	0	0	3,276672	3,051	73,0656	-0,715	77,445	0	1008,32	5,5	7,7	7,5	1	1	1	1	1	1	1	1	1	0	1	-75,334743	272,96418	239,444222	0
15.01.2021	01:14:55	0	0	4,745525	3,23625	66,9132	-0,721	77,44	0	1008,28	5,5	7,7	7,5	1	1	1	1	1	1	1	1	1	0	1	-70,613108	273,055833	244,588841	0
15.01.2021	01:14:56	0	0	3,163684	3,28725	65,4588	-0,72	77,423	0	1008,28	5,5	7,6	7,5	1	1	1	1	1	1	1	1	1	0	1	-75,123326	272,938877	239,538936	0
15.01.2021	01:14:57	0	0	3,954605	3,26925	71,9928	-0,726	77,399	0	1008,2	5,5	7,7	7,5	1	1	1	1	1	1	1	1	1	0	1	-69,767442	273,06573	245,480206	0
15.01.2021	01:14:58	0	0	4,632537	3,1665	74,9268	-0,724	77,403	0	1008,36	5,5	7,6	7,5	1	1	1	1	1	1	1	1	1	0	1	-68,780832	273,074217	246,506009	0
15.01.2021	01:14:59	0	0	4,067593	3,039	85,1796	-0,727	77,392	0	1008,28	5,5	7,7	7,5	1	1	1	1	1	1	1	1	1	0	1	-70,472163	272,931854	244,157714	0
15.01.2021	01:15:00	0	0	4,067593	3,168	74,5344	-0,724	77,382	0	1008,3	5,5	7,7	7,5	1	1	1	1	1	1	1	1	1	0	1	-73,572939	272,951525	241,147651	0
15.01.2021	01:15:01	0	0	4,067593	3,168	74,5344	-0,724	77,382	0	1008,3	5,5	7,7	7,5	1	1	1	1	1	1	1	1	1	0	1	-73,572939	272,951525	241,147651	0
15.01.2021	01:15:02	0	0	5,310469	3,3915	74,9124	-0,724	77,381	0	1008,28	5,5	7,8	7,5	1	1	1	1	1	1	1	1	1	0	1	-74,418605	273,10395	241,005577	0
15.01.2021	01:15:03	0	0	3,276672	3,35625	71,5932	-0,728	77,347	0	1008,18	5,5	7,7	7,5	1	1	1	1	1	1	1	1	1	0	1	-74,982382	273,02053	240,056591	0
15.01.2021	01:15:04	0	0	4,067593	3,27675	62,0496	-0,729	77,354	0	1008,36	5,5	7,6	7,5	1	1	1	1	1	1	1	1	1	0	1	-72,515856	272,927642	242,094598	0
15.01.2021	01:15:05	0	0	3,050695	3,54	67,6548	-0,729	77,336	0	1008,32	5,5	7,6	7,5	1	1	1	1	1	1	1	1	1	0	1	-72,656801	272,975437	242,174091	0
15.01.2021	01:15:06	0	0	4,745525	3,837	61,6968	-0,73	77,326	0	1008,14	5,5	7,7	7,5	1	1	1	1	1	1	1	1	1	0	1	-67,371388	272,937472	247,284396	0
15.01.2021	01:15:07	0	0	4,632537	3,70875	72,3744	-0,736	77,318	0	1008,32	5,5	7,7	7,5	1	1	1	1	1	1	1	1	1	0	1	-75,334743	273,091201	240,030547	0
15.01.2021	01:15:08	0	0	4,632537	3,49125	80,4888	-0,733	77,291	0	1008,32	5,5	7,6	7,5	1	1	1	1	1	1	1	1	1	0	1	-72,656801	273,021941	242,388684	0
15.01.2021	01:15:09	0	0	5,19748	3,441	69,4692	-0,735	77,286	0	1008,3	5,5	7,6	7,5	1	1	1	1	1	1	1	1	1	0	1	-71,529246	273,113871	243,940774	0
15.01.2021	01:15:10	0	0	4,971503	3,468	75,222	-0,732	77,256	0	1008,26	5,5	7,6	7,5	1	1	1	1	1	1	1	1	1	0	1	-70,472163	272,940282	244,196577	0
15.01.2021	01:15:11	0	0	4,858514	3,3915	79,38	-0,737	77,258	0	1008,12	5,5	7,6	7,5	1	1	1	1	1	1	1	1	1	0	1	-69,69697	272,997971	245,237889	0
15.01.2021	01:15:12	0	0	5,084492	3,39	67,68	-0,74	77,251	0	1008,24	5,5	7,7	7,5	1	1	1	1	1	1	1	1	1	0	1	-76,744186	272,91501	237,808028	0
15.01.2021	01:15:13	0	0	4,293571	3,48075	55,9404	-0,738	77,247	0	1008,28	5,5	7,7	7,5	1	1	1	1	1	1	1	1	1	0	1	-71,317829	273,047355	243,844972	0
15.01.2021	01:15:14	0	0	3,276672	3,84975	64,656	-0,742	77,223	0	1008,24	5,5	7,7	7,5	1	1	1	1	1	1	1	1	1	0	1	-70,119803	272,929046	244,497125	0
15.01.2021	01:15:15	0	0	2,59874	4,12575	56,6568	-0,739	77,193	0	1008,26	5,5	7,7	7,5	1	1	1	1	1	1	1	1	1	0	1	-71,247357	272,992335	243,661496	0
15.01.2021	01:15:16	0	0	2,937706	4,16925	65,0844	-0,737	77,215	0	1008,3	5,5	7,6	7,5	1	1	1	1	1	1	1	1	1	0	1	-70,049331	272,940282	244,61941	0
15.01.2021	01:15:17	0	0	5,19748	4,1775	69,138	-0,743	77,224	0	1008,28	5,5	7,7	7,5	1	1	1	1	1	1	1	1	1	0	1	-74,418605	273,027586	240,652934	0
15.01.2021	01:15:18	0	0	4,745525	4,23975	70,2216	-0,748	77,243	0	1008,26	5,5	7,8	7,5	1	1	1	1	1	1	1	1	1	0	1	-71,599718	273,108201	243,844105	0
15.01.2021	01:15:19	0	0	5,310469	4,293	76,8312	-0,743	77,258	0	1008,22	5,5	7,7	7,5	1	1	1	1	1	1	1	1	1	0	1	-74,700493	272,989517	240,19536	0
15.01.2021	01:15:20	0	0	2,937706	4,0005	83,736	-0,75	77,279	0	1008,22	5,5	7,6	7,5	1	1	1	1	1	1	1	1	1	0	1	-70,401691	273,069973	244,86555	0
15.01.2021	01:15:21	0	0	2,033797	3,79275	80,172	-0,743	77,301	0	1008,26	5,5	7,7	7,5	1	1	1	1	1	1	1	1	1	0	1	-69,06272	272,945902	245,63194	0
15.01.2021	01:15:22	0	0	3,615638	4,14525	76,8348	-0,744	77,324	0	1008,22	5,5	7,8	7,5	1	1	1	1	1	1	1	1	1	0	1	-71,599718	272,986701	243,283139	0
15.01.2021	01:15:23	0	0	4,858514	4,5075	84,8016	-0,744	77,327	0	1008,28	5,5	7,7	7,5	1	1	1	1	1	1	1	1	1	0	1	-73,643411	272,943092	241,038289	0
15.01.2021	01:15:24	0	0	2,59874	4,29375	70,1892	-0,747	77,343	0	1008,26	5,5	7,6	7,5	1	1	1	1	1	1	1	1	1	0	1	-76,250881	272,966994	238,541062	0
15.01.2021	01:15:25	0	0	3,728627	4,1175	80,874	-0,748	77,374	0	1008,26	5,5	7,7	7,5	1	1	1	1	1	1	1	1	1	0	1	-69,767442	272,965587	245,018011	0
15.01.2021	01:15:26	0	0	2,711729	3,8655	75,6144	-0,754	77,383	0	1008,32	5,5	7,6	7,5	1	1	1	1	1	1	1	1	1	0	1	-75,475687	273,109619	239,974684	0
15.01.2021	01:15:27	0	0	4,745525	3,957	74,5596	-0,751	77,403	0	1008,44	5,5	7,7	7,5	1	1	1	1	1	1	1	1	1	0	1	-68,710359	272,962774	246,062117	0
15.01.2021	01:15:28	0	0	3,276672	4,54875	73,0476	-0,756	77,393	0	1008,4	5,5	7,6	7,5	1	1	1	1	1	1	1	1	1	0	1	-71,106413	273,098283	244,291589	0
15.01.2021	01:15:29	0	0	2,824718	4,93425	81,594	-0,748	77,403	0	1008,06	5,5	7,6	7,5	1	1	1	1	1	1	1	1	1	0	1	-69,978858	273,061488	245,249201	0
15.01.2021	01:15:30	0	0	3,615638	4,98675	73,7784	-0,754	77,396	0	1008,58	5,5	7,7	7,5	1	1	1	1	1	1	1	1	1	0	1	-71,67019	273,0997	243,734356	0
15.01.2021	01:15:31	0	0	4,180582	5,283	72,6732	-0,756	77,406	0	1008,28	5,5	7,6	7,5	1	1	1	1	1	1	1	1	1	0	1	-69,837914	273,057247	245,370562	0
15.01.2021	01:15:32	0	0	4,406559	5,52075	82,9656	-0,757	77,428	0	1008,1	5,5	7,7	7,5	1	1	1	1	1	1	1	1	1	0	1	-71,529246	273,116707	243,953875	0
15.01.2021	01:15:33	0	0	4,858514	5,57925	77,5872	-0,756	77,452	0	1008,22	5,5	7,7	7,5	1	1	1	1	1	1	1	1	1	0	1	-70,190275	273,017709	244,835675	0
15.01.2021	01:15:34	0	0	4,745525	5,4915	72,7056	-0,757	77,508	0	1008,2	5,5	7,8	7,5	1	1	1	1	1	1	1	1	1	0	1	-76,180409	272,937472	238,475375	0
15.01.2021	01:15:35	0	0	2,937706	5,48475	68,778	-0,763	77,553	0	1008,3	5,5	7,7	7,5	1	1	1	1	1	1	1	1	1	0	1	-71,740662	273,047355	243,422139	0
15.01.2021	01:15:36	0	0	4,858514	5,30775	70,2612	-0,76	77,622	0	1008,24	5,5	7,6	7,5	1	1	1	1	1	1	1	1	1	0	1	-69,978858	273,116707	245,504263	0
15.01.2021	01:15:37	0	0	4,858514	4,91325	80,244	-0,752	77,69	0	1008,2	5,5	7,7	7,5	1	1	1	1	1	1	1	1	1	0	1	-72,586328	273,08837	242,765881	0
15.01.2021	01:15:38	0	0	2,485751	4,64325	73,0656	-0,756	77,762	0	1008,32	5,5	7,6	7,5	1	1	1	1	1	1	1	1	1	0	1	-70,260747	272,975437	244,570145	0
15.01.2021	01:15:39	0	0	4,858514	4,641	65,4768	-0,757	77,802	0	1008,16	5,5	7,7	7,5	1	1	1	1	1	1	1	1	1	0	1	-73,713883	272,944497	240,974297	0
15.01.2021	01:15:40	0	0	3,163684	4,8255	62,7732	-0,757	77,856	0	1008,46	5,5	7,7	7,5	1	1	1	1	1	1	1	1	1	0	1	-72,093023	272,995152	242,828831	0
15.01.2021	01:15:41	0	0	4,180582	5,052	93,7044	-0,751	77,905	0	1008,22	5,5	7,6	7,5	1	1	1	1	1	1	1	1	1	0	1	-67,512333	272,940282	247,156408	0
15.01.2021	01:15:42	0	0	2,937706	4,92675	102,2076	-0,755	77,966	0	1008,16	5,5	7,6	7,5	1	1	1	1	1	1	1	1	1	0	1	-71,458774	272,988109	243,430581	0
15.01.2021	01:15:43	0	0	3,615638	4,62975	97,2972	-0,752	78,029	0	1008,16	5,5	7,8	7,5	1	1	1	1	1	1	1	1	1	0	1	-73,150106	273,089786	242,208643	0
15.01.2021	01:15:44	0	0	4,745525	4,443	92,6244	-0,75	78,064	0	1008,18	5,5	7,8	7,5	1	1	1	1	1	1	1	1	1	0	1	-70,68358	273,119543	244,812645	0
15.01.2021	01:15:45	0	0	4,858514	4,01475	96,1812	-0,755	78,13	0	1008,32	5,5	7,6	7,5	1	1	1	1	1	1	1	1	1	0	1	-74,770965	273,096866	240,620493	0
15.01.2021	01:15:46	0	0	4,406559	3,912	83,7432	-0,758	78,158	0	1008,3	5,5	7,7	7,5	1	1	1	1	1	1	1	1	1	0	1	-76,391825	272,972622	238,426081	0
15.01.2021	01:15:47	0	0	4,406559	3,76125	92,2572	-0,746	78,261	0	1008,32	5,5	7,7	7,5	1	1	1	1	1	1	1	1	1	0	1	-73,29105	273,082707	242,035005	0
15.01.2021	01:15:48	0	0	2,937706	3,513	77,2236	-0,747	78,249	0	1008,36	5,5	7,7	7,5	1	1	1	1	1	1	1	1	1	0	1	-70,049331	273,13231	245,505892	0
15.01.2021	01:15:49	0	0	2,937706	3,312	80,1324	-0,753	78,289	0	1008,28	5,6	7,6	7,5	1	1	1	1	1	1	1	1	1	0	1	-76,250881	272,982476	238,612485	0
15.01.2021	01:15:50	0	0	3,163684	3,3285	90,4104	-0,744	78,326	0	1008,26	5,4	7,6	7,5	1	1	1	1	1	1	1	1	1	0	1	-74,136716	273,078461	241,169729	0
15.01.2021	01:15:51	0	0	2,937706	3,5955	85,1652	-0,744	78,332	0	1008,26	5,5	7,7	7,5	1	1	1	1	1	1	1	1	1	0	1	-73,854827	272,961367	240,911161	0
15.01.2021	01:15:52	0	0	2,824718	4,089	89,334	-0,743	78,359	0	1008,3	5,5	7,7	7,5	1	1	1	1	1	1	1	1	1	0	1	-72,586328	273,082707	242,739726	0
15.01.2021	01:15:53	0	0	3,276672	4,13325	84,798	-0,745	78,361	0	1008,4	5,5	7,7	7,5	1	1	1	1	1	1	1	1	1	0	1	-73,854827	272,958555	240,898187	0
15.01.2021	01:15:54	0	0	3,050695	3,83475	100,746	-0,746	78,34	0	1008,34	5,4	7,6	7,5	1	1	1	1	1	1	1	1	1	0	1	-70,049331	273,074217	245,23751	0
15.01.2021	01:15:55	0	0	4,067593	3,6555	90,7812	-0,747	78,332	0	1008,22	5,5	7,6	7,5	1	1	1	1	1	1	1	1	1	0	1	-67,582805	273,137988	247,998655	0
15.01.2021	01:15:56	0	0	2,59874	3,849	89,334	-0,741	78,323	0	1008,14	5,5	7,7	7,5	1	1	1	1	1	1	1	1	1	0	1	-74,630021	272,976845	240,207364	0
15.01.2021	01:15:57	0	0	2,485751	4,04775	84,4308	-0,738	78,301	0	1008,3	5,4	7,6	7,5	1	1	1	1	1	1	1	1	1	0	1	-73,854827	273,081292	241,46469	0
15.01.2021	01:15:58	0	0	3,163684	3,9705	77,9724	-0,732	78,275	0	1008,34	5,5	7,6	7,5	1	1	1	1	1	1	1	1	1	0	1	-71,106413	272,969808	243,698511	0
15.01.2021	01:15:59	0	0	4,406559	3,74775	80,1252	-0,74	78,247	0	1008,3	5,5	7,6	7,5	1	1	1	1	1	1	1	1	1	0	1	-71,247357	273,017709	243,778593	0
15.01.2021	01:16:00	0	0	4,067593	3,282	69,462	-0,737	78,201	0	1008,28	5,5	7,7	7,5	1	1	1	1	1	1	1	1	1	0	1	-72,30444	273,08837	243,047769	0
15.01.2021	01:16:01	0	0	2,259774	3,276	72,6984	-0,735	78,212	0	1008,36	5,5	7,7	7,5	1	1	1	1	1	1	1	1	1	0	1	-77,307963	272,978252	237,535916	0
15.01.2021	01:16:02	0	0	2,259774	3,276	72,6984	-0,735	78,212	0	1008,36	5,5	7,7	7,5	1	1	1	1	1	1	1	1	1	0	1	-77,307963	272,978252	237,535916	0
15.01.2021	01:16:03	0	0	3,389661	3,65775	80,514	-0,736	78,228	0	1008,08	5,6	7,7	7,5	1	1	1	1	1	1	1	1	1	0	1	-71,317829	273,081292	244,001688	0
15.01.2021	01:16:04	0	0	3,615638	3,70875	70,8696	-0,735	78,227	0	1008,2	5,5	7,7	7,5	1	1	1	1	1	1	1	1	1	0	1	-71,811135	272,965587	242,974319	0
15.01.2021	01:16:05	0	0	4,293571	3,5655	78,2712	-0,736	78,256	0	1008,18	5,4	7,7	7,5	1	1	1	1	1	1	1	1	1	0	1	-73,150106	273,06573	242,097542	0
15.01.2021	01:16:06	0	0	3,954605	3,58575	82,3644	-0,735	78,245	0	1008,38	5,5	7,6	7,5	1	1	1	1	1	1	1	1	1	0	1	-72,445384	273,137988	243,136075	0
15.01.2021	01:16:07	0	0	2,937706	3,7395	71,9784	-0,736	78,231	0	1008,36	5,5	7,8	7,5	1	1	1	1	1	1	1	1	1	0	1	-74,418605	273,012067	240,581308	0
15.01.2021	01:16:08	0	0	4,519548	3,89775	73,4544	-0,738	78,256	0	1008,24	5,6	7,6	7,5	1	1	1	1	1	1	1	1	1	0	1	-70,401691	273,147927	245,225704	0
15.01.2021	01:16:09	0	0	4,632537	4,20375	71,6112	-0,732	78,279	0	1008,24	5,5	7,7	7,5	1	1	1	1	1	1	1	1	1	0	1	-73,502467	273,106784	241,934809	0
15.01.2021	01:16:10	0	0	4,632537	4,248	65,1888	-0,733	78,295	0	1008,18	5,5	7,8	7,5	1	1	1	1	1	1	1	1	1	0	1	-73,784355	273,140827	241,810226	0
15.01.2021	01:16:11	0	0	2,824718	4,5105	66,2184	-0,736	78,305	0	1008,08	5,5	7,6	7,5	1	1	1	1	1	1	1	1	1	0	1	-71,67019	273,040292	243,460005	0
15.01.2021	01:16:12	0	0	3,389661	4,44675	69,462	-0,727	78,342	0	1008,26	5,5	7,7	7,5	1	1	1	1	1	1	1	1	1	0	1	-74,348132	273,140827	241,246449	0
15.01.2021	01:16:13	0	0	3,389661	4,11	58,1256	-0,731	78,361	0	1008,22	5,6	7,7	7,5	1	1	1	1	1	1	1	1	1	0	1	-71,388302	272,966994	243,403641	0
15.01.2021	01:16:14	0	0	3,728627	3,933	61,3296	-0,725	78,392	0	1008,28	5,6	7,7	7,5	1	1	1	1	1	1	1	1	1	0	1	-75,828048	273,118125	239,661625	0
15.01.2021	01:16:15	0	0	5,084461	4,01775	57,744	-0,722	78,426	0	1008,24	5,6	7,6	7,6	1	1	1	1	1	1	1	1	1	0	1	-69,415081	273,163555	246,284559	0
15.01.2021	01:16:16	0	0	4,180582	4,221	51,0804	-0,727	78,441	0	1008,22	5,6	7,7	7,5	1	1	1	1	1	1	1	1	1	0	1	-70,190275	273,08837	245,161934	0
15.01.2021	01:16:17	0	0	2,937706	4,17075	66,9816	-0,719	78,471	0	1008,08	5,6	7,7	7,5	1	1	1	1	1	1	1	1	1	0	1	-76,673714	272,993743	238,241639	0
15.01.2021	01:16:18	0	0	2,937706	4,19475	70,2216	-0,717	78,497	0	1008,22	5,6	7,6	7,5	1	1	1	1	1	1	1	1	1	0	1	-69,203665	273,006427	245,770219	0
15.01.2021	01:16:19	0	0	5,19748	4,34475	71,2368	-0,718	78,502	0	1008,18	5,6	7,6	7,5	1	1	1	1	1	1	1	1	1	0	1	-73,431994	273,10395	241,992187	0
15.01.2021	01:16:20	0	0	2,937706	4,665	71,5896	-0,716	78,494	0	1008,34	5,6	7,6	7,5	1	1	1	1	1	1	1	1	1	0	1	-71,952079	273,170664	243,780422	0
15.01.2021	01:16:21	0	0	4,067593	4,56675	68,5044	-0,716	78,491	0	1008,34	5,6	7,6	7,5	1	1	1	1	1	1	1	1	1	0	1	-75,052854	273,033232	240,044748	0
15.01.2021	01:16:22	0	0	3,389661	4,35375	72,6732	-0,719	78,478	0	1008,32	5,6	7,7	7,5	1	1	1	1	1	1	1	1	1	0	1	-71,388302	273,005018	243,579076	0
15.01.2021	01:16:23	0	0	2,59874	4,23075	76,3632	-0,71	78,472	0	1008,3	5,6	7,7	7,5	1	1	1	1	1	1	1	1	1	0	1	-70,894996	273,163555	244,804643	0
15.01.2021	01:16:24	0	0	3,954605	4,3755	77,5944	-0,711	78,437	0	1008,32	5,6	7,7	7,5	1	1	1	1	1	1	1	1	1	0	1	-72,374912	273,01912	242,657549	0
15.01.2021	01:16:25	0	0	4,519548	4,36875	82,602	-0,711	78,421	0	1008,24	5,6	7,7	7,5	1	1	1	1	1	1	1	1	1	0	1	-73,784355	273,179197	241,9876	0
15.01.2021	01:16:26	0	0	4,632537	4,164	97,7292	-0,709	78,438	0	1008,32	5,6	7,7	7,5	1	1	1	1	1	1	1	1	1	0	1	-75,193798	273,068558	240,066911	0
15.01.2021	01:16:27	0	0	4,293571	3,8685	89,7156	-0,712	78,412	0	1008,18	5,6	7,8	7,5	1	1	1	1	1	1	1	1	1	0	1	-72,515856	273,164977	243,190355	0
15.01.2021	01:16:28	0	0	3,276672	3,867	71,6004	-0,707	78,402	0	1008,24	5,6	7,7	7,5	1	1	1	1	1	1	1	1	1	0	1	-76,673714	273,12238	238,835618	0
15.01.2021	01:16:29	0	0	4,293571	3,9255	71,6976	-0,706	78,407	0	1008,1	5,6	7,6	7,5	1	1	1	1	1	1	1	1	1	0	1	-71,740662	273,005018	243,226716	0
15.01.2021	01:16:30	0	0	3,276672	3,79875	63,4608	-0,702	78,406	0	1008,32	5,6	7,7	7,5	1	1	1	1	1	1	1	1	1	0	1	-69,626498	273,060074	245,595033	0
15.01.2021	01:16:31	0	0	2,25976	3,62775	78,6456	-0,708	78,4	0	1008,14	5,6	7,7	7,6	1	1	1	1	1	1	1	1	1	0	1	-73,784355	273,164977	241,921856	0
15.01.2021	01:16:32	0	0	4,293571	3,48075	68,3532	-0,708	78,396	0	1008,14	5,6	7,7	7,5	1	1	1	1	1	1	1	1	1	0	1	-74,207188	273,033232	240,890414	0
15.01.2021	01:16:33	0	0	2,711729	3,45975	74,1708	-0,697	78,398	0	1008,26	5,6	7,7	7,5	1	1	1	1	1	1	1	1	1	0	1	-74,418605	273,043117	240,724631	0
15.01.2021	01:16:34	0	0	3,163684	3,18975	69,84	-0,702	78,345	0	1008,24	5,6	7,7	7,5	1	1	1	1	1	1	1	1	1	0	1	-67,512333	273,028997	247,565721	0
15.01.2021	01:16:35	0	0	2,59874	2,96775	79,0632	-0,702	78,313	0	1008,24	5,6	7,8	7,5	1	1	1	1	1	1	1	1	1	0	1	-68,710359	273,078461	246,596086	0
15.01.2021	01:16:36	0	0	4,519548	2,847	94,4928	-0,697	78,271	0	1008,3	5,6	7,6	7,5	1	1	1	1	1	1	1	1	1	0	1	-74,066244	273,190581	241,758349	0
15.01.2021	01:16:37	0	0	2,485736	2,8095	91,152	-0,699	78,253	0	1008,28	5,6	7,7	7,6	1	1	1	1	1	1	1	1	1	0	1	-72,797745	273,05018	242,378104	0
15.01.2021	01:16:38	0	0	3,050695	2,7705	83,3652	-0,696	78,2	0	1008,22	5,6	7,8	7,5	1	1	1	1	1	1	1	1	1	0	1	-70,68358	273,125216	244,838861	0
15.01.2021	01:16:39	0	0	2,711729	2,61675	82,3428	-0,701	78,175	0	1008,22	5,4	7,7	7,5	1	1	1	1	1	1	1	1	1	0	1	-73,29105	273,044529	241,858707	0
15.01.2021	01:16:40	0	0	2,711729	2,70075	76,356	-0,693	78,178	0	1008,34	5,6	7,6	7,5	1	1	1	1	1	1	1	1	1	0	1	-76,814658	273,111036	238,642262	0
15.01.2021	01:16:41	0	0	2,372763	2,78925	98,0676	-0,693	78,157	0	1008,34	5,6	7,7	7,5	1	1	1	1	1	1	1	1	1	0	1	-74,630021	273,021941	240,415464	0
15.01.2021	01:16:42	0	0	4,971503	2,93175	90,4284	-0,697	78,109	0	1008,06	5,6	7,8	7,5	1	1	1	1	1	1	1	1	1	0	1	-72,30444	273,157871	243,368921	0
15.01.2021	01:16:43	0	0	4,180582	2,934	94,7592	-0,691	78,104	0	1008,32	5,6	7,7	7,5	1	1	1	1	1	1	1	1	1	0	1	-77,51938	273,041704	237,617335	0
15.01.2021	01:16:44	0	0	3,050695	2,91	89,7156	-0,689	78,072	0	1008,22	5,6	7,7	7,5	1	1	1	1	1	1	1	1	1	0	1	-77,942213	273,053007	237,246685	0
15.01.2021	01:16:45	0	0	4,971503	2,94525	81,2088	-0,691	78,042	0	1008,28	5,6	7,7	7,5	1	1	1	1	1	1	1	1	1	0	1	-72,163495	273,028997	242,914559	0
15.01.2021	01:16:46	0	0	2,711729	3,00675	91,854	-0,689	78,026	0	1008,26	5,6	7,6	7,5	1	1	1	1	1	1	1	1	1	0	1	-74,700493	273,186311	241,104356	0
15.01.2021	01:16:47	0	0	3,50265	3,03975	88,5888	-0,691	78,004	0	1008,24	5,6	7,7	7,5	1	1	1	1	1	1	1	1	1	0	1	-71,952079	273,12238	243,557253	0
15.01.2021	01:16:48	0	0	4,858514	3,04725	91,9008	-0,688	77,988	0	1008,42	5,6	7,6	7,5	1	1	1	1	1	1	1	1	1	0	1	-71,176885	273,023352	243,875112	0
15.01.2021	01:16:49	0	0	4,293571	3,07125	88,1352	-0,687	77,968	0	1008,34	5,6	7,7	7,5	1	1	1	1	1	1	1	1	1	0	1	-72,586328	273,192004	243,244847	0
15.01.2021	01:16:50	0	0	3,954605	3,024	84,4272	-0,689	77,94	0	1008,22	5,6	7,7	7,5	1	1	1	1	1	1	1	1	1	0	1	-73,784355	273,182042	242,000756	0
15.01.2021	01:16:51	0	0	2,711729	3,0615	90,7596	-0,689	77,9	0	1008,24	5,6	7,7	7,5	1	1	1	1	1	1	1	1	1	0	1	-74,489077	273,062902	240,745511	0
15.01.2021	01:16:52	0	0	4,067593	3,08475	94,392	-0,683	77,896	0	1008,24	5,6	7,8	7,5	1	1	1	1	1	1	1	1	1	0	1	-72,797745	273,034644	242,306375	0
15.01.2021	01:16:53	0	0	2,59874	2,9505	84,8016	-0,686	77,873	0	1008,3	5,6	7,8	7,5	1	1	1	1	1	1	1	1	1	0	1	-70,331219	273,040292	244,798976	0
15.01.2021	01:16:54	0	0	4,293571	3,00975	87,372	-0,682	77,86	0	1008,28	5,6	7,7	7,5	1	1	1	1	1	1	1	1	1	0	1	-72,163495	273,068558	243,097214	0
15.01.2021	01:16:55	0	0	2,598725	3,15975	88,578	-0,683	77,858	0	1008,3	5,6	7,7	7,6	1	1	1	1	1	1	1	1	1	0	1	-68,851304	273,197699	247,006207	0
15.01.2021	01:16:56	0	0	3,954605	3,171	80,1216	-0,679	77,821	0	1008,3	5,6	7,7	7,5	1	1	1	1	1	1	1	1	1	0	1	-73,643411	273,0997	241,761135	0
15.01.2021	01:16:57	0	0	4,632537	3,309	86,2992	-0,684	77,822	0	1008,32	5,6	7,7	7,5	1	1	1	1	1	1	1	1	1	0	1	-74,066244	273,210519	241,850556	0
15.01.2021	01:16:58	0	0	4,971503	3,33225	81,9756	-0,681	77,772	0	1008,3	5,6	7,7	7,5	1	1	1	1	1	1	1	1	1	0	1	-75,89852	273,184888	239,899749	0
15.01.2021	01:16:59	0	0	2,59874	3,24225	72,3096	-0,676	77,764	0	1008,34	5,6	7,7	7,5	1	1	1	1	1	1	1	1	1	0	1	-76,462297	273,192004	239,368878	0
15.01.2021	01:17:00	0	0	2,824718	3,38025	69,9084	-0,686	77,729	0	1008,22	5,6	7,7	7,5	1	1	1	1	1	1	1	1	1	0	1	-72,30444	273,209094	243,60577	0
15.01.2021	01:17:01	0	0	4,745525	3,44475	69,1668	-0,677	77,72	0	1008,28	5,6	7,7	7,5	1	1	1	1	1	1	1	1	1	0	1	-71,811135	273,173508	243,934516	0
15.01.2021	01:17:02	0	0	4,745525	3,44475	69,1668	-0,677	77,72	0	1008,28	5,6	7,7	7,5	1	1	1	1	1	1	1	1	1	0	1	-71,811135	273,173508	243,934516	0
15.01.2021	01:17:03	0	0	3,841616	3,44325	65,0844	-0,677	77,73	0	1008,42	5,6	7,7	7,5	1	1	1	1	1	1	1	1	1	0	1	-72,445384	273,071387	242,82839	0
15.01.2021	01:17:04	0	0	3,050695	3,43725	75,2184	-0,678	77,715	0	1008,2	5,6	7,6	7,5	1	1	1	1	1	1	1	1	1	0	1	-73,29105	273,051594	241,891323	0
15.01.2021	01:17:05	0	0	4,971503	3,42075	69,4656	-0,676	77,719	0	1008,34	5,6	7,7	7,5	1	1	1	1	1	1	1	1	1	0	1	-71,529246	273,094034	243,849127	0
15.01.2021	01:17:06	0	0	5,19748	3,38925	69,1416	-0,677	77,708	0	1008,46	5,6	7,7	7,5	1	1	1	1	1	1	1	1	1	0	1	-71,529246	273,028997	243,548808	0
15.01.2021	01:17:07	0	0	3,050695	3,27375	70,6248	-0,674	77,695	0	1008,38	5,6	7,7	7,5	1	1	1	1	1	1	1	1	1	0	1	-71,67019	273,129473	243,871918	0
15.01.2021	01:17:08	0	0	4,293571	3,15675	73,1628	-0,675	77,666	0	1008,38	5,6	7,7	7,5	1	1	1	1	1	1	1	1	1	0	1	-78,50599	273,201971	237,371278	0
15.01.2021	01:17:09	0	0	4,858514	3,0705	70,9272	-0,679	77,654	0	1008,18	5,6	7,7	7,5	1	1	1	1	1	1	1	1	1	0	1	-70,472163	273,147927	245,155232	0
15.01.2021	01:17:10	0	0	3,163684	2,994	83,3616	-0,675	77,648	0	1008,06	5,6	7,7	7,5	1	1	1	1	1	1	1	1	1	0	1	-70,894996	273,192004	244,936179	0
15.01.2021	01:17:11	0	0	3,615638	2,96625	77,5872	-0,675	77,634	0	1008,24	5,6	7,7	7,5	1	1	1	1	1	1	1	1	1	0	1	-75,123326	273,163555	240,576313	0
15.01.2021	01:17:12	0	0	3,276672	3,0405	81,5832	-0,674	77,606	0	1008,3	5,6	7,7	7,5	1	1	1	1	1	1	1	1	1	0	1	-75,616631	273,130891	239,932034	0
15.01.2021	01:17:13	0	0	4,745525	2,92125	73,8072	-0,673	77,579	0	1008,24	5,6	7,6	7,5	1	1	1	1	1	1	1	1	1	0	1	-75,546159	273,200547	240,324523	0
15.01.2021	01:17:14	0	0	5,19748	2,81025	79,3908	-0,677	77,569	0	1008,24	5,6	7,7	7,5	1	1	1	1	1	1	1	1	1	0	1	-71,599718	273,145086	244,01455	0
15.01.2021	01:17:15	0	0	2,937706	2,68275	74,9268	-0,672	77,552	0	1007,98	5,6	7,7	7,5	1	1	1	1	1	1	1	1	1	0	1	-72,30444	273,012067	242,695473	0
15.01.2021	01:17:16	0	0	4,180582	2,6145	70,9632	-0,672	77,541	0	1008,3	5,6	7,7	7,5	1	1	1	1	1	1	1	1	1	0	1	-66,384778	273,069973	248,882464	0
15.01.2021	01:17:17	0	0	2,824718	2,6295	72,2988	-0,671	77,534	0	1008,3	5,6	7,7	7,5	1	1	1	1	1	1	1	1	1	0	1	-73,643411	273,02053	241,395562	0
15.01.2021	01:17:18	0	0	4,406559	2,56875	78,6636	-0,674	77,518	0	1008,14	5,6	7,7	7,5	1	1	1	1	1	1	1	1	1	0	1	-70,049331	273,17493	245,702895	0
15.01.2021	01:17:19	0	0	2,485751	2,43825	69,498	-0,671	77,498	0	1008,22	5,6	7,7	7,5	1	1	1	1	1	1	1	1	1	0	1	-67,371388	273,172086	248,367687	0
15.01.2021	01:17:20	0	0	2,824718	2,46675	69,156	-0,674	77,494	0	1008,18	5,6	7,7	7,5	1	1	1	1	1	1	1	1	1	0	1	-79,422128	273,18062	236,356404	0
15.01.2021	01:17:21	0	0	4,067593	2,51775	53,3556	-0,67	77,467	0	1008,34	5,6	7,7	7,5	1	1	1	1	1	1	1	1	1	0	1	-72,093023	273,069973	243,174218	0
15.01.2021	01:17:22	0	0	4,519548	2,57775	74,1996	-0,671	77,45	0	1008,2	5,6	7,8	7,5	1	1	1	1	1	1	1	1	1	0	1	-74,841438	273,184888	240,956831	0
15.01.2021	01:17:23	0	0	4,519548	2,74875	81,9684	-0,679	77,434	0	1008,28	5,6	7,7	7,5	1	1	1	1	1	1	1	1	1	0	1	-71,67019	273,06573	243,577458	0
15.01.2021	01:17:24	0	0	4,971503	3,03	86,6592	-0,669	77,409	0	1008,22	5,6	7,7	7,5	1	1	1	1	1	1	1	1	1	0	1	-69,415081	273,194851	246,429261	0
15.01.2021	01:17:25	0	0	3,050695	3,204	82,566	-0,671	77,413	0	1008,38	5,6	7,7	7,5	1	1	1	1	1	1	1	1	1	0	1	-73,361522	273,13231	242,193701	0
15.01.2021	01:17:26	0	0	3,728627	3,189	76,86	-0,672	77,408	0	1008,2	5,6	7,7	7,5	1	1	1	1	1	1	1	1	1	0	1	-73,995772	273,010657	240,997633	0
15.01.2021	01:17:27	0	0	4,858485	3,1095	75,9564	-0,674	77,406	0	1007,86	5,6	7,7	7,6	1	1	1	1	1	1	1	1	1	0	1	-71,881607	273,102533	243,536029	0
15.01.2021	01:17:28	0	0	4,632537	3,087	88,1208	-0,676	77,389	0	1008,2	5,6	7,7	7,5	1	1	1	1	1	1	1	1	1	0	1	-68,851304	273,013478	246,155117	0
15.01.2021	01:17:29	0	0	5,19748	3,03375	88,6068	-0,675	77,383	0	1008,1	5,6	7,7	7,5	1	1	1	1	1	1	1	1	1	0	1	-73,431994	273,12238	242,077337	0
15.01.2021	01:17:30	0	0	4,632537	2,9865	84,7872	-0,67	77,361	0	1008,32	5,6	7,7	7,5	1	1	1	1	1	1	1	1	1	0	1	-69,274137	273,16782	246,445218	0
15.01.2021	01:17:31	0	0	4,858514	2,982	79,4124	-0,672	77,362	0	1008,3	5,6	7,7	7,5	1	1	1	1	1	1	1	1	1	0	1	-72,163495	273,15645	243,503297	0
15.01.2021	01:17:32	0	0	3,389661	2,84025	86,6556	-0,671	77,332	0	1008,24	5,6	7,7	7,5	1	1	1	1	1	1	1	1	1	0	1	-72,868217	273,067144	242,385961	0
15.01.2021	01:17:33	0	0	4,293571	2,6355	92,2716	-0,678	77,294	0	1008,1	5,6	7,7	7,5	1	1	1	1	1	1	1	1	1	0	1	-71,247357	273,009247	243,73954	0
15.01.2021	01:17:34	0	0	2,937706	2,44125	87,7392	-0,671	77,264	0	1008,04	5,6	7,7	7,5	1	1	1	1	1	1	1	1	1	0	1	-74,27766	273,05018	240,898188	0
15.01.2021	01:17:35	0	0	2,937706	2,379	82,6056	-0,674	77,243	0	1008,24	5,6	7,8	7,5	1	1	1	1	1	1	1	1	1	0	1	-73,220578	273,177775	242,5448	0
15.01.2021	01:17:36	0	0	4,632537	2,4945	82,962	-0,676	77,206	0	1007,98	5,6	7,7	7,5	1	1	1	1	1	1	1	1	1	0	1	-68,07611	273,149347	247,55785	0
15.01.2021	01:17:37	0	0	2,824718	2,673	89,7228	-0,671	77,188	0	1008,08	5,6	7,7	7,5	1	1	1	1	1	1	1	1	1	0	1	-70,894996	273,044529	244,254761	0
15.01.2021	01:17:38	0	0	4,632509	2,778	86,2776	-0,671	77,19	0	1008,42	5,6	7,7	7,6	1	1	1	1	1	1	1	1	1	0	1	-71,458774	272,99938	243,482587	0
15.01.2021	01:17:39	0	0	3,163684	2,89575	90,0144	-0,676	77,163	0	1008,4	5,6	7,7	7,5	1	1	1	1	1	1	1	1	1	0	1	-72,022551	273,05018	243,153297	0
15.01.2021	01:17:40	0	0	4,858514	2,86425	92,682	-0,677	77,145	0	1008,2	5,6	7,7	7,5	1	1	1	1	1	1	1	1	1	0	1	-73,009161	273,136568	242,565738	0
15.01.2021	01:17:41	0	0	4,293571	2,86275	89,3304	-0,677	77,147	0	1008,04	5,6	7,7	7,5	1	1	1	1	1	1	1	1	1	0	1	-69,978858	273,098283	245,419143	0
15.01.2021	01:17:42	0	0	3,841616	2,77875	78,2856	-0,669	77,15	0	1008,26	5,6	7,7	7,5	1	1	1	1	1	1	1	1	1	0	1	-67,935166	273,170664	247,797336	0
15.01.2021	01:17:43	0	0	3,163684	2,86125	107,4312	-0,677	77,151	0	1008,22	5,6	7,7	7,5	1	1	1	1	1	1	1	1	1	0	1	-69,203665	273,037468	245,913492	0
15.01.2021	01:17:44	0	0	3,389661	2,868	80,8884	-0,68	77,143	0	1008,22	5,6	7,7	7,5	1	1	1	1	1	1	1	1	1	0	1	-73,995772	273,012067	241,004141	0
15.01.2021	01:17:45	0	0	4,745525	2,814	89,334	-0,672	77,15	0	1008,22	5,6	7,7	7,5	1	1	1	1	1	1	1	1	1	0	1	-72,586328	273,130891	242,962337	0
15.01.2021	01:17:46	0	0	4,180582	2,7855	75,2436	-0,674	77,114	0	1008,28	5,6	7,7	7,5	1	1	1	1	1	1	1	1	1	0	1	-72,938689	273,009247	242,048208	0
15.01.2021	01:17:47	0	0	2,937689	2,85225	83,7504	-0,677	77,128	0	1008,24	5,6	7,7	7,6	1	1	1	1	1	1	1	1	1	0	1	-71,740662	273,033232	243,35694	0
15.01.2021	01:17:48	0	0	4,293571	3,09825	92,6352	-0,677	77,103	0	1008,34	5,6	7,7	7,5	1	1	1	1	1	1	1	1	1	0	1	-68,780832	273,051594	246,401541	0
15.01.2021	01:17:49	0	0	3,163684	3,38475	86,6736	-0,673	77,101	0	1008,26	5,6	7,8	7,5	1	1	1	1	1	1	1	1	1	0	1	-71,106413	273,160713	244,580086	0
15.01.2021	01:17:50	0	0	4,519548	3,576	86,67	-0,679	77,102	0	1008,3	5,6	7,7	7,5	1	1	1	1	1	1	1	1	1	0	1	-70,049331	273,040292	245,080864	0
15.01.2021	01:17:51	0	0	4,180582	3,65175	90,4104	-0,675	77,1	0	1008,34	5,4	7,7	7,5	1	1	1	1	1	1	1	1	1	0	1	-69,344609	273,173508	246,401041	0
15.01.2021	01:17:52	0	0	3,954605	3,5205	94,3992	-0,679	77,061	0	1008,18	5,6	7,7	7,5	1	1	1	1	1	1	1	1	1	0	1	-68,992248	273,055833	246,209701	0
15.01.2021	01:17:53	0	0	3,615638	3,3855	92,9844	-0,679	77,062	0	1008,28	5,6	7,7	7,5	1	1	1	1	1	1	1	1	1	0	1	-69,06272	273,159292	246,617209	0
15.01.2021	01:17:54	0	0	2,711729	3,2505	81,9648	-0,685	77,092	0	1008,12	5,6	7,6	7,5	1	1	1	1	1	1	1	1	1	0	1	-68,710359	273,094034	246,668013	0
15.01.2021	01:17:55	0	0	2,485751	3,1815	77,5692	-0,678	77,101	0	1008,32	5,6	7,6	7,5	1	1	1	1	1	1	1	1	1	0	1	-76,462297	272,989517	238,433556	0
15.01.2021	01:17:56	0	0	3,841616	3,26625	91,9044	-0,684	77,107	0	1008,04	5,6	7,6	7,5	1	1	1	1	1	1	1	1	1	0	1	-72,727273	273,118125	242,7624	0
15.01.2021	01:17:57	0	0	3,954605	3,28575	86,2812	-0,681	77,122	0	1008,22	5,6	7,7	7,5	1	1	1	1	1	1	1	1	1	0	1	-76,391825	273,128054	239,143727	0
15.01.2021	01:17:58	0	0	3,728627	3,23625	97,2792	-0,676	77,127	0	1008,26	5,6	7,7	7,5	1	1	1	1	1	1	1	1	1	0	1	-71,458774	273,15645	244,208019	0
15.01.2021	01:17:59	0	0	4,180582	3,10875	88,9776	-0,687	77,133	0	1008,18	5,6	7,7	7,5	1	1	1	1	1	1	1	1	1	0	1	-73,572939	273,036056	241,537699	0
15.01.2021	01:18:00	0	0	5,19748	3,21975	92,268	-0,677	77,145	0	1008,3	5,6	7,7	7,5	1	1	1	1	1	1	1	1	1	0	1	-79,14024	273,086954	236,20543	0
15.01.2021	01:18:01	0	0	3,163684	3,46275	79,7688	-0,693	77,135	0	1008,18	5,6	7,8	7,5	1	1	1	1	1	1	1	1	1	0	1	-79,14024	273,086954	236,20543	0
15.01.2021	01:18:02	0	0	3,163684	3,46275	79,7688	-0,693	77,135	0	1008,18	5,6	7,8	7,5	1	1	1	1	1	1	1	1	1	0	1	-75,264271	273,113871	240,205749	0
15.01.2021	01:18:03	0	0	2,824718	3,687	77,2236	-0,683	77,15	0	1008,22	5,6	7,7	7,5	1	1	1	1	1	1	1	1	1	0	1	-76,180409	273,157871	239,492952	0
15.01.2021	01:18:04	0	0	4,858514	3,8595	91,5372	-0,687	77,122	0	1008,3	5,6	7,8	7,5	1	1	1	1	1	1	1	1	1	0	1	-72,515856	272,99938	242,425505	0
15.01.2021	01:18:05	0	0	2,937706	3,74025	76,0176	-0,686	77,133	0	1008,2	5,6	7,7	7,5	1	1	1	1	1	1	1	1	1	0	1	-68,357999	272,983884	246,511863	0
15.01.2021	01:18:06	0	0	2,824718	3,26325	84,4092	-0,686	77,117	0	1008,3	5,6	7,7	7,5	1	1	1	1	1	1	1	1	1	0	1	-68,428471	273,060074	246,79306	0
15.01.2021	01:18:07	0	0	3,615638	3,2295	81,6012	-0,686	77,104	0	1008,24	5,4	7,7	7,5	1	1	1	1	1	1	1	1	1	0	1	-75,475687	273,152188	240,171404	0
15.01.2021	01:18:08	0	0	3,615638	2,8215	92,952	-0,687	77,087	0	1008,14	5,6	7,7	7,5	1	1	1	1	1	1	1	1	1	0	1	-72,586328	273,112454	242,877141	0
15.01.2021	01:18:09	0	0	4,406559	2,5545	64,6344	-0,685	77,108	0	1008,22	5,6	7,7	7,5	1	1	1	1	1	1	1	1	1	0	1	-70,260747	272,993743	244,654606	0
15.01.2021	01:18:10	0	0	4,519548	2,65575	79,0308	-0,685	77,13	0	1008,26	5,6	7,7	7,5	1	1	1	1	1	1	1	1	1	0	1	-71,599718	272,983884	243,270144	0
15.01.2021	01:18:11	0	0	3,615638	2,6895	77,958	-0,691	77,129	0	1008,2	5,6	7,7	7,5	1	1	1	1	1	1	1	1	1	0	1	-76,250881	273,071387	239,022893	0
15.01.2021	01:18:12	0	0	3,276672	2,91225	81,972	-0,687	77,161	0	1008,26	5,6	7,7	7,5	1	1	1	1	1	1	1	1	1	0	1	-69,767442	273,119543	245,728784	0
15.01.2021	01:18:13	0	0	3,841616	2,967	71,9928	-0,688	77,181	0	1008,32	5,6	7,7	7,5	1	1	1	1	1	1	1	1	1	0	1	-72,515856	273,150767	243,124669	0
15.01.2021	01:18:14	0	0	4,519548	3,207	82,9656	-0,689	77,206	0	1008,22	5,6	7,7	7,5	1	1	1	1	1	1	1	1	1	0	1	-70,401691	273,108201	245,042132	0
15.01.2021	01:18:15	0	0	4,406559	3,3375	74,9232	-0,684	77,219	0	1008,22	5,6	7,7	7,5	1	1	1	1	1	1	1	1	1	0	1	-70,965469	273,162134	244,7276	0
15.01.2021	01:18:16	0	0	3,276672	3,402	86,6664	-0,687	77,224	0	1008,26	5,6	7,7	7,5	1	1	1	1	1	1	1	1	1	0	1	-72,30444	273,089786	243,054309	0
15.01.2021	01:18:17	0	0	4,067569	3,56025	83,7324	-0,682	77,242	0	1008,34	5,6	7,7	7,6	1	1	1	1	1	1	1	1	1	0	1	-72,868217	273,159292	242,811713	0
15.01.2021	01:18:18	0	0	3,163684	3,729	81,6228	-0,687	77,233	0	1008,26	5,6	7,7	7,5	1	1	1	1	1	1	1	1	1	0	1	-72,515856	273,120961	242,986922	0
15.01.2021	01:18:19	0	0	4,745525	3,7815	81,6084	-0,694	77,227	0	1008,14	5,4	7,7	7,5	1	1	1	1	1	1	1	1	1	0	1	-72,868217	273,027586	242,203322	0
15.01.2021	01:18:20	0	0	2,711729	3,86025	82,9728	-0,686	77,238	0	1008,38	5,6	7,8	7,5	1	1	1	1	1	1	1	1	1	0	1	-78,435518	273,145086	237,17875	0
15.01.2021	01:18:21	0	0	4,406559	3,9795	79,4052	-0,69	77,206	0	1008,12	5,4	7,7	7,5	1	1	1	1	1	1	1	1	1	0	1	-71,035941	273,021941	244,009544	0
15.01.2021	01:18:22	0	0	3,954605	4,2375	81,9612	-0,688	77,223	0	1008,16	5,6	7,7	7,5	1	1	1	1	1	1	1	1	1	0	1	-71,881607	272,965587	242,903847	0
15.01.2021	01:18:23	0	0	3,50265	4,419	86,9796	-0,689	77,206	0	1008,28	5,6	7,8	7,5	1	1	1	1	1	1	1	1	1	0	1	-68,851304	273,081292	246,468214	0
15.01.2021	01:18:24	0	0	2,59874	4,446	92,646	-0,691	77,191	0	1008,34	5,6	7,7	7,5	1	1	1	1	1	1	1	1	1	0	1	-67,159972	272,969808	247,644952	0
15.01.2021	01:18:25	0	0	3,728627	4,1865	93,348	-0,699	77,177	0	1008,24	5,6	7,7	7,5	1	1	1	1	1	1	1	1	1	0	1	-73,9253	273,014888	241,087631	0
15.01.2021	01:18:26	0	0	2,824701	4,056	94,4064	-0,695	77,158	0	1008,2	5,6	7,7	7,6	1	1	1	1	1	1	1	1	1	0	1	-78,928823	272,978252	235,915057	0
15.01.2021	01:18:27	0	0	2,485751	4,00875	90,7848	-0,698	77,155	0	1008,18	5,5	7,7	7,5	1	1	1	1	1	1	1	1	1	0	1	-69,06272	273,03888	246,060955	0
15.01.2021	01:18:28	0	0	4,858514	3,96975	81,9648	-0,699	77,154	0	1008,14	5,5	7,8	7,5	1	1	1	1	1	1	1	1	1	0	1	-69,556025	273,137988	246,025434	0
15.01.2021	01:18:29	0	0	3,050677	3,963	87,7248	-0,695	77,162	0	1008,34	5,6	7,6	7,6	1	1	1	1	1	1	1	1	1	0	1	-72,727273	273,009247	242,259624	0
15.01.2021	01:18:30	0	0	2,259774	4,07775	88,9632	-0,702	77,142	0	1008,04	5,6	7,7	7,5	1	1	1	1	1	1	1	1	1	0	1	-76,462297	273,111036	238,994623	0
15.01.2021	01:18:31	0	0	2,59874	3,996	94,086	-0,698	77,148	0	1008,26	5,6	7,7	7,5	1	1	1	1	1	1	1	1	1	0	1	-72,938689	273,145086	242,675579	0
15.01.2021	01:18:32	0	0	4,180557	3,984	84,0276	-0,689	77,177	0	1008,12	5,6	7,6	7,6	1	1	1	1	1	1	1	1	1	0	1	-72,938689	273,034644	242,165431	0
15.01.2021	01:18:33	0	0	3,728627	4,01325	80,2476	-0,697	77,201	0	1008,28	5,6	7,7	7,5	1	1	1	1	1	1	1	1	1	0	1	-70,613108	272,966994	244,178835	0
15.01.2021	01:18:34	0	0	2,711729	3,78975	81,5832	-0,702	77,211	0	1008,26	5,4	7,8	7,5	1	1	1	1	1	1	1	1	1	0	1	-69,485553	273,014888	245,527377	0
15.01.2021	01:18:35	0	0	4,858514	3,5355	73,062	-0,697	77,227	0	1008,12	5,6	7,7	7,5	1	1	1	1	1	1	1	1	1	0	1	-72,163495	273,017709	242,862455	0
15.01.2021	01:18:36	0	0	2,372763	3,3345	93,3444	-0,702	77,253	0	1008,18	5,6	7,7	7,5	1	1	1	1	1	1	1	1	1	0	1	-70,894996	272,975437	243,935896	0
15.01.2021	01:18:37	0	0	3,728627	3,09375	89,0352	-0,707	77,277	0	1008,26	5,4	7,8	7,5	1	1	1	1	1	1	1	1	1	0	1	-71,247357	273,067144	244,006821	0
15.01.2021	01:18:38	0	0	2,146785	3,07575	90,7704	-0,704	77,277	0	1008,12	5,6	7,6	7,5	1	1	1	1	1	1	1	1	1	0	1	-72,30444	273,143666	243,303265	0
15.01.2021	01:18:39	0	0	3,50265	3,0315	86,6484	-0,696	77,302	0	1008,26	5,6	7,8	7,5	1	1	1	1	1	1	1	1	1	0	1	-74,630021	273,007837	240,350369	0
15.01.2021	01:18:40	0	0	4,971503	3,006	99,216	-0,698	77,298	0	1008,28	5,6	7,7	7,5	1	1	1	1	1	1	1	1	1	0	1	-69,274137	273,120961	246,228642	0
15.01.2021	01:18:41	0	0	3,389661	3,10575	92,9448	-0,699	77,297	0	1008,28	5,5	7,6	7,5	1	1	1	1	1	1	1	1	1	0	1	-71,247357	272,983884	243,622505	0
15.01.2021	01:18:42	0	0	2,824718	3,29475	91,1484	-0,703	77,295	0	1008,16	5,5	7,7	7,5	1	1	1	1	1	1	1	1	1	0	1	-71,952079	273,096866	243,439379	0
15.01.2021	01:18:43	0	0	4,067593	3,5415	99,1512	-0,702	77,286	0	1008,06	5,6	7,7	7,5	1	1	1	1	1	1	1	1	1	0	1	-73,643411	273,150767	241,997115	0
15.01.2021	01:18:44	0	0	5,310469	3,58425	91,5948	-0,702	77,273	0	1008,24	5,6	7,7	7,5	1	1	1	1	1	1	1	1	1	0	1	-73,009161	273,034644	242,094958	0
15.01.2021	01:18:45	0	0	2,824718	3,5415	101,8368	-0,699	77,255	0	1008,28	5,6	7,7	7,5	1	1	1	1	1	1	1	1	1	0	1	-69,344609	273,136568	246,23029	0
15.01.2021	01:18:46	0	0	5,649435	3,66225	92,2536	-0,704	77,247	0	1008,1	5,6	7,7	7,5	1	1	1	1	1	1	1	1	1	0	1	-68,005638	273,125216	247,516803	0
15.01.2021	01:18:47	0	0	3,50265	3,993	90,792	-0,706	77,221	0	1008	5,6	7,6	7,5	1	1	1	1	1	1	1	1	1	0	1	-70,119803	273,111036	245,337117	0
15.01.2021	01:18:48	0	0	3,954605	4,24875	93,3372	-0,7	77,244	0	1008,3	5,6	7,7	7,5	1	1	1	1	1	1	1	1	1	0	1	-73,29105	273,140827	242,303531	0
15.01.2021	01:18:49	0	0	5,19748	4,188	92,2644	-0,705	77,234	0	1008,02	5,6	7,6	7,5	1	1	1	1	1	1	1	1	1	0	1	-70,894996	273,078461	244,411449	0
15.01.2021	01:18:50	0	0	4,632537	4,17825	91,5084	-0,705	77,25	0	1008,22	5,6	7,7	7,5	1	1	1	1	1	1	1	1	1	0	1	-67,582805	273,139407	248,005215	0
15.01.2021	01:18:51	0	0	2,937706	4,15275	88,9488	-0,703	77,293	0	1008,28	5,6	7,7	7,5	1	1	1	1	1	1	1	1	1	0	1	-67,723749	273,0997	247,680797	0
15.01.2021	01:18:52	0	0	2,824718	4,3695	90,0108	-0,705	77,306	0	1008,18	5,6	7,7	7,5	1	1	1	1	1	1	1	1	1	0	1	-69,908386	273,081292	245,411131	0
15.01.2021	01:18:53	0	0	5,423458	4,3185	94,7844	-0,71	77,329	0	1008,34	5,5	7,8	7,5	1	1	1	1	1	1	1	1	1	0	1	-72,093023	273,118125	243,39665	0
15.01.2021	01:18:54	0	0	4,858514	4,2645	84,8088	-0,705	77,373	0	1008,28	5,5	7,8	7,5	1	1	1	1	1	1	1	1	1	0	1	-71,811135	273,024763	243,247376	0
15.01.2021	01:18:55	0	0	3,728627	4,0995	88,5852	-0,706	77,375	0	1008,3	5,6	7,6	7,5	1	1	1	1	1	1	1	1	1	0	1	-75,828048	272,988109	239,061307	0
15.01.2021	01:18:56	0	0	3,276672	3,82425	86,292	-0,71	77,408	0	1008,38	5,4	7,7	7,5	1	1	1	1	1	1	1	1	1	0	1	-72,727273	273,139407	242,860747	0
15.01.2021	01:18:57	0	0	4,519548	3,792	94,104	-0,712	77,434	0	1008,14	5,5	7,7	7,5	1	1	1	1	1	1	1	1	1	0	1	-67,159972	273,060074	248,061559	0
15.01.2021	01:18:58	0	0	3,389661	3,83625	91,1628	-0,705	77,453	0	1008,48	5,5	7,7	7,5	1	1	1	1	1	1	1	1	1	0	1	-72,233968	272,971215	242,577447	0
15.01.2021	01:18:59	0	0	4,858514	3,8565	94,1328	-0,705	77,469	0	1008,2	5,6	7,8	7,5	1	1	1	1	1	1	1	1	1	0	1	-73,361522	273,116707	242,121599	0
15.01.2021	01:19:00	0	0	4,519548	3,5745	90,4032	-0,707	77,524	0	1008,22	5,6	7,8	7,5	1	1	1	1	1	1	1	1	1	0	1	-70,331219	273,130891	245,217446	0
15.01.2021	01:19:01	0	0	4,632537	3,43875	77,202	-0,702	77,54	0	1008,28	5,4	7,7	7,5	1	1	1	1	1	1	1	1	1	0	1	-65,750529	272,990926	249,151824	0
15.01.2021	01:19:02	0	0	4,632537	3,43875	77,202	-0,702	77,54	0	1008,28	5,4	7,7	7,5	1	1	1	1	1	1	1	1	1	0	1	-65,750529	272,990926	249,151824	0
15.01.2021	01:19:03	0	0	4,971503	3,47325	98,7696	-0,705	77,569	0	1008,32	5,6	7,7	7,5	1	1	1	1	1	1	1	1	1	0	1	-70,119803	273,140827	245,474778	0
15.01.2021	01:19:04	0	0	2,711729	3,60225	87,3468	-0,701	77,585	0	1008,02	5,5	7,6	7,5	1	1	1	1	1	1	1	1	1	0	1	-70,894996	272,961367	243,870992	0
15.01.2021	01:19:05	0	0	3,841616	3,76725	96,9804	-0,709	77,605	0	1008,52	5,4	7,7	7,5	1	1	1	1	1	1	1	1	1	0	1	-66,666667	273,014888	248,346264	0
15.01.2021	01:19:06	0	0	4,519548	3,804	94,4748	-0,708	77,636	0	1008,26	5,6	7,7	7,5	1	1	1	1	1	1	1	1	1	0	1	-70,894996	273,136568	244,679903	0
15.01.2021	01:19:07	0	0	4,406559	3,82575	90,0324	-0,707	77,643	0	1008,24	5,6	7,6	7,5	1	1	1	1	1	1	1	1	1	0	1	-74,136716	273,027586	240,934823	0
15.01.2021	01:19:08	0	0	2,824718	3,91725	90,396	-0,703	77,657	0	1008,08	5,5	7,7	7,5	1	1	1	1	1	1	1	1	1	0	1	-69,978858	272,948713	244,728766	0
15.01.2021	01:19:09	0	0	3,728627	3,70125	86,2596	-0,703	77,69	0	1008,1	5,5	7,7	7,5	1	1	1	1	1	1	1	1	1	0	1	-75,052854	273,05442	240,142569	0
15.01.2021	01:19:10	0	0	3,276672	3,294	95,1516	-0,699	77,724	0	1008,22	5,5	7,7	7,5	1	1	1	1	1	1	1	1	1	0	1	-70,190275	273,13231	245,364948	0
15.01.2021	01:19:11	0	0	4,067593	2,997	84,3984	-0,706	77,73	0	1008,28	5,6	7,7	7,5	1	1	1	1	1	1	1	1	1	0	1	-71,952079	272,97966	242,898295	0
15.01.2021	01:19:12	0	0	3,954605	2,81475	84,4128	-0,71	77,74	0	1008,18	5,6	7,7	7,5	1	1	1	1	1	1	1	1	1	0	1	-71,740662	273,012067	243,25925	0
15.01.2021	01:19:13	0	0	5,084492	2,931	84,0672	-0,697	77,786	0	1008,3	5,5	7,6	7,5	1	1	1	1	1	1	1	1	1	0	1	-71,952079	273,135149	243,616261	0
15.01.2021	01:19:14	0	0	3,615638	3,18975	84,4452	-0,702	77,795	0	1008,28	5,6	7,8	7,5	1	1	1	1	1	1	1	1	1	0	1	-68,146582	273,017709	246,879368	0
15.01.2021	01:19:15	0	0	2,485751	3,222	85,9212	-0,695	77,804	0	1008,32	5,6	7,6	7,5	1	1	1	1	1	1	1	1	1	0	1	-71,388302	272,945902	243,306359	0
15.01.2021	01:19:16	0	0	2,937706	2,9805	92,9628	-0,701	77,801	0	1008,28	5,5	7,8	7,5	1	1	1	1	1	1	1	1	1	0	1	-76,039464	273,075631	239,253911	0
15.01.2021	01:19:17	0	0	2,146785	2,81175	75,2364	-0,702	77,805	0	1008,36	5,5	7,7	7,5	1	1	1	1	1	1	1	1	1	0	1	-74,136716	272,962774	240,63576	0
15.01.2021	01:19:18	0	0	2,59874	2,8185	87,3432	-0,703	77,792	0	1008,22	5,6	7,7	7,5	1	1	1	1	1	1	1	1	1	0	1	-73,150106	272,986701	241,732751	0
15.01.2021	01:19:19	0	0	5,084492	2,90025	86,2632	-0,706	77,783	0	1008,18	5,5	7,6	7,5	1	1	1	1	1	1	1	1	1	0	1	-67,582805	273,129473	247,959303	0
15.01.2021	01:19:20	0	0	4,971503	2,99175	84,8052	-0,7	77,778	0	1008,16	5,5	7,7	7,5	1	1	1	1	1	1	1	1	1	0	1	-71,176885	273,096866	244,214573	0
15.01.2021	01:19:21	0	0	4,971503	3,201	92,2572	-0,7	77,762	0	1008,22	5,5	7,7	7,5	1	1	1	1	1	1	1	1	1	0	1	-72,093023	273,081292	243,226494	0
15.01.2021	01:19:22	0	0	3,728627	3,17325	92,952	-0,697	77,766	0	1008,22	5,5	7,7	7,5	1	1	1	1	1	1	1	1	1	0	1	-68,498943	272,968401	246,29949	0
15.01.2021	01:19:23	0	0	3,050695	3,07575	91,8864	-0,7	77,758	0	1008,26	5,5	7,7	7,5	1	1	1	1	1	1	1	1	1	0	1	-71,317829	273,06573	243,929818	0
15.01.2021	01:19:24	0	0	3,615638	3,09975	76,86	-0,702	77,753	0	1008,22	5,5	7,7	7,5	1	1	1	1	1	1	1	1	1	0	1	-71,811135	272,955742	242,928908	0
15.01.2021	01:19:25	0	0	5,19748	3,07425	85,9176	-0,707	77,721	0	1008,2	5,6	7,7	7,5	1	1	1	1	1	1	1	1	1	0	1	-73,220578	273,009247	241,766319	0
15.01.2021	01:19:26	0	0	3,728627	3,05325	83,7432	-0,705	77,703	0	1008,18	5,5	7,7	7,5	1	1	1	1	1	1	1	1	1	0	1	-72,30444	272,944497	242,38374	0
15.01.2021	01:19:27	0	0	2,937706	3,0555	72,6948	-0,7	77,686	0	1008,32	5,5	7,6	7,5	1	1	1	1	1	1	1	1	1	0	1	-73,502467	273,023352	241,549531	0
15.01.2021	01:19:28	0	0	3,841616	3,03375	82,3572	-0,701	77,663	0	1008,32	5,5	7,8	7,5	1	1	1	1	1	1	1	1	1	0	1	-70,824524	272,966994	243,967418	0
15.01.2021	01:19:29	0	0	2,59874	2,9805	88,9704	-0,698	77,638	0	1008,04	5,6	7,7	7,5	1	1	1	1	1	1	1	1	1	0	1	-72,656801	272,983884	242,213061	0
15.01.2021	01:19:30	0	0	4,406533	2,88675	88,0992	-0,696	77,61	0	1008,18	5,5	7,7	7,6	1	1	1	1	1	1	1	1	1	0	1	-71,388302	272,982476	243,475064	0
15.01.2021	01:19:31	0	0	3,954605	2,97075	82,3428	-0,7	77,595	0	1008,3	5,5	7,7	7,5	1	1	1	1	1	1	1	1	1	0	1	-75,123326	273,10395	240,300856	0
15.01.2021	01:19:32	0	0	2,59874	3,04125	87,7644	-0,698	77,567	0	1008,4	5,6	7,8	7,5	1	1	1	1	1	1	1	1	1	0	1	-67,653277	272,997971	247,281581	0
15.01.2021	01:19:33	0	0	3,954605	3,1035	73,08	-0,698	77,539	0	1008,26	5,6	7,7	7,5	1	1	1	1	1	1	1	1	1	0	1	-71,317829	273,13373	244,243952	0
15.01.2021	01:19:34	0	0	5,084461	3,066	66,9528	-0,704	77,522	0	1008,14	5,5	7,7	7,6	1	1	1	1	1	1	1	1	1	0	1	-74,91191	273,026174	240,153115	0
15.01.2021	01:19:35	0	0	4,067593	2,9565	63,8496	-0,697	77,5	0	1008,24	5,5	7,8	7,5	1	1	1	1	1	1	1	1	1	0	1	-76,109937	273,130891	239,438729	0
15.01.2021	01:19:36	0	0	3,389661	2,74275	72,3024	-0,703	77,469	0	1008,14	5,5	7,7	7,5	1	1	1	1	1	1	1	1	1	0	1	-72,938689	273,010657	242,054715	0
15.01.2021	01:19:37	0	0	4,067593	2,718	70,8624	-0,702	77,457	0	1008,32	5,5	7,8	7,5	1	1	1	1	1	1	1	1	1	0	1	-73,009161	272,947308	241,691981	0
15.01.2021	01:19:38	0	0	4,858514	2,757	92,646	-0,701	77,437	0	1008,16	5,5	7,7	7,5	1	1	1	1	1	1	1	1	1	0	1	-74,418605	273,077046	240,881305	0
15.01.2021	01:19:39	0	0	4,067593	2,712	91,1484	-0,702	77,415	0	1008,22	5,6	7,7	7,5	1	1	1	1	1	1	1	1	1	0	1	-72,163495	272,938877	242,498767	0
15.01.2021	01:19:40	0	0	4,858514	2,6025	81,2052	-0,704	77,42	0	1008,32	5,6	7,8	7,5	1	1	1	1	1	1	1	1	1	0	1	-70,331219	273,079877	244,981762	0
15.01.2021	01:19:41	0	0	4,745525	2,5785	79,4016	-0,706	77,402	0	1008,26	5,6	7,6	7,5	1	1	1	1	1	1	1	1	1	0	1	-73,854827	272,951525	240,865762	0
15.01.2021	01:19:42	0	0	3,050695	2,60175	70,8516	-0,702	77,387	0	1008,22	5,5	7,7	7,5	1	1	1	1	1	1	1	1	1	0	1	-71,881607	272,976845	242,955779	0
15.01.2021	01:19:43	0	0	2,59874	2,50125	69,156	-0,702	77,376	0	1008,16	5,5	7,7	7,5	1	1	1	1	1	1	1	1	1	0	1	-75,405215	273,10395	240,018967	0
15.01.2021	01:19:44	0	0	2,937706	2,3775	86,9904	-0,701	77,361	0	1008,36	5,5	7,7	7,5	1	1	1	1	1	1	1	1	1	0	1	-77,730796	272,934663	236,912033	0
15.01.2021	01:19:45	0	0	4,632537	2,30925	75,9996	-0,71	77,333	0	1008,26	5,5	7,7	7,5	1	1	1	1	1	1	1	1	1	0	1	-72,515856	273,009247	242,471041	0
15.01.2021	01:19:46	0	0	3,050695	2,13	70,2324	-0,703	77,329	0	1008,32	5,5	7,6	7,5	1	1	1	1	1	1	1	1	1	0	1	-73,361522	273,106784	242,075753	0
15.01.2021	01:19:47	0	0	4,406559	2,03775	81,6192	-0,714	77,298	0	1008,16	5,5	7,7	7,5	1	1	1	1	1	1	1	1	1	0	1	-73,502467	273,003608	241,458406	0
15.01.2021	01:19:48	0	0	2,824718	2,1405	101,5416	-0,705	77,269	0	1008,24	5,5	7,8	7,5	1	1	1	1	1	1	1	1	1	0	1	-70,472163	273,115289	245,004407	0
15.01.2021	01:19:49	0	0	3,050677	2,32125	71,2332	-0,702	77,26	0	1008	5,5	7,7	7,6	1	1	1	1	1	1	1	1	1	0	1	-73,220578	273,028997	241,857476	0
15.01.2021	01:19:50	0	0	4,858514	2,41125	85,1904	-0,707	77,252	0	1008,34	5,5	7,7	7,5	1	1	1	1	1	1	1	1	1	0	1	-72,797745	273,12238	242,711587	0
15.01.2021	01:19:51	0	0	4,745525	2,535	95,13	-0,709	77,233	0	1008,32	5,5	7,6	7,5	1	1	1	1	1	1	1	1	1	0	1	-75,687104	273,041704	239,449611	0
15.01.2021	01:19:52	0	0	2,485751	2,5005	86,6916	-0,708	77,212	0	1008,22	5,5	7,7	7,5	1	1	1	1	1	1	1	1	1	0	1	-69,344609	273,116707	246,138512	0
15.01.2021	01:19:53	0	0	4,971503	2,4405	72,306	-0,71	77,204	0	1008,12	5,5	7,6	7,5	1	1	1	1	1	1	1	1	1	0	1	-67,794221	273,044529	247,355536	0
15.01.2021	01:19:54	0	0	2,711729	2,445	69,1704	-0,708	77,203	0	1008,08	5,5	7,7	7,5	1	1	1	1	1	1	1	1	1	0	1	-69,556025	273,098283	245,841976	0
15.01.2021	01:19:55	0	0	3,050695	2,52075	80,5248	-0,713	77,183	0	1008,22	5,5	7,7	7,5	1	1	1	1	1	1	1	1	1	0	1	-73,220578	272,950119	241,493529	0
15.01.2021	01:19:56	0	0	2,824718	2,574	82,5984	-0,708	77,179	0	1008,12	5,5	7,7	7,5	1	1	1	1	1	1	1	1	1	0	1	-67,44186	273,030409	247,642709	0
15.01.2021	01:19:57	0	0	4,745525	2,748	86,6808	-0,709	77,176	0	1007,96	5,5	7,8	7,5	1	1	1	1	1	1	1	1	1	0	1	-70,542636	272,938877	244,119626	0
15.01.2021	01:19:58	0	0	3,276672	2,69475	95,5332	-0,712	77,184	0	1008,18	5,5	7,7	7,5	1	1	1	1	1	1	1	1	1	0	1	-68,146582	272,989517	246,749271	0
15.01.2021	01:19:59	0	0	3,050695	2,448	70,2288	-0,706	77,187	0	1008,3	5,5	7,7	7,5	1	1	1	1	1	1	1	1	1	0	1	-67,44186	272,922027	247,142703	0
15.01.2021	01:20:00	0	0	2,711729	2,21775	74,178	-0,712	77,178	0	1008,2	5,5	7,7	7,5	1	1	1	1	1	1	1	1	1	0	1	-70,894996	272,91922	243,676626	0
15.01.2021	01:20:01	0	0	4,519548	2,301	74,1708	-0,715	77,155	0	1008,22	5,5	7,7	7,5	1	1	1	1	1	1	1	1	1	0	1	-71,811135	272,950119	242,902972	0
15.01.2021	01:20:02	0	0	4,519548	2,301	74,1708	-0,715	77,155	0	1008,22	5,5	7,7	7,5	1	1	1	1	1	1	1	1	1	0	1	-71,811135	272,950119	242,902972	0
15.01.2021	01:20:03	0	0	2,824718	2,529	80,8812	-0,713	77,168	0	1008,24	5,5	7,8	7,5	1	1	1	1	1	1	1	1	1	0	1	-69,978858	273,116707	245,504263	0
15.01.2021	01:20:04	0	0	4,406559	2,64	83,3472	-0,722	77,145	0	1008,22	5,5	7,6	7,5	1	1	1	1	1	1	1	1	1	0	1	-71,035941	273,002198	243,918428	0
15.01.2021	01:20:05	0	0	3,841616	2,83125	92,6424	-0,718	77,126	0	1008,16	5,5	7,8	7,5	1	1	1	1	1	1	1	1	1	0	1	-68,07611	273,096866	247,315348	0
15.01.2021	01:20:06	0	0	3,050695	2,88675	94,392	-0,722	77,12	0	1008,2	5,5	7,7	7,5	1	1	1	1	1	1	1	1	1	0	1	-68,921776	272,941687	245,753444	0
15.01.2021	01:20:07	0	0	3,50265	3,04875	86,2776	-0,72	77,123	0	1008,18	5,5	7,7	7,5	1	1	1	1	1	1	1	1	1	0	1	-73,854827	273,08837	241,497382	0
15.01.2021	01:20:08	0	0	4,406559	3,02775	78,6528	-0,718	77,117	0	1008,26	5,5	7,7	7,5	1	1	1	1	1	1	1	1	1	0	1	-69,274137	273,028997	245,803917	0
15.01.2021	01:20:09	0	0	4,971503	2,7525	86,2992	-0,721	77,097	0	1008,2	5,5	7,7	7,5	1	1	1	1	1	1	1	1	1	0	1	-72,022551	273,091201	243,342739	0
15.01.2021	01:20:10	0	0	4,293571	2,6265	72,6912	-0,721	77,091	0	1008,18	5,5	7,7	7,5	1	1	1	1	1	1	1	1	1	0	1	-71,740662	272,990926	243,16169	0
15.01.2021	01:20:11	0	0	3,728605	2,61075	76,8312	-0,721	77,09	0	1008,52	5,5	7,7	7,6	1	1	1	1	1	1	1	1	1	0	1	-75,405215	273,086954	239,940455	0
15.01.2021	01:20:12	0	0	3,389661	2,529	83,4444	-0,729	77,048	0	1008,26	5,5	7,7	7,5	1	1	1	1	1	1	1	1	1	0	1	-70,68358	272,995152	244,238274	0
15.01.2021	01:20:13	0	0	2,937689	2,45325	74,1636	-0,723	77,047	0	1008,12	5,5	7,7	7,6	1	1	1	1	1	1	1	1	1	0	1	-75,264271	272,944497	239,423909	0
15.01.2021	01:20:14	0	0	2,59874	2,532	81,9576	-0,722	77,036	0	1008,3	5,5	7,7	7,5	1	1	1	1	1	1	1	1	1	0	1	-74,066244	272,906593	240,44717	0
15.01.2021	01:20:15	0	0	2,59874	2,74725	81,2196	-0,729	77,027	0	1008,1	5,5	7,7	7,5	1	1	1	1	1	1	1	1	1	0	1	-72,163495	272,97966	242,686879	0
15.01.2021	01:20:16	0	0	4,067593	2,9925	90,4176	-0,728	77,013	0	1008,26	5,5	7,7	7,5	1	1	1	1	1	1	1	1	1	0	1	-69,626498	273,094034	245,751875	0
15.01.2021	01:20:17	0	0	3,954605	3,08925	88,1208	-0,733	77,016	0	1008,34	5,5	7,7	7,5	1	1	1	1	1	1	1	1	1	0	1	-70,119803	272,97403	244,704596	0
15.01.2021	01:20:18	0	0	2,59874	3,15375	91,1484	-0,728	77,012	0	1008,2	5,5	7,7	7,5	1	1	1	1	1	1	1	1	1	0	1	-69,626498	272,926238	244,977483	0
15.01.2021	01:20:19	0	0	4,293545	3,2295	80,928	-0,732	77,016	0	1008,2	5,5	7,8	7,6	1	1	1	1	1	1	1	1	1	0	1	-72,163495	273,05018	243,012353	0
15.01.2021	01:20:20	0	0	2,59874	3,09825	85,9104	-0,734	77,025	0	1008,2	5,5	7,7	7,5	1	1	1	1	1	1	1	1	1	0	1	-75,616631	273,062902	239,617957	0
15.01.2021	01:20:21	0	0	3,841616	3,06075	92,9376	-0,735	77,003	0	1008,26	5,5	7,7	7,5	1	1	1	1	1	1	1	1	1	0	1	-74,418605	272,936068	240,230702	0
15.01.2021	01:20:22	0	0	2,711713	3,012	82,9908	-0,733	77,01	0	1008,34	5,5	7,7	7,6	1	1	1	1	1	1	1	1	1	0	1	-68,710359	273,05018	246,465489	0
15.01.2021	01:20:23	0	0	2,937706	3,01575	77,5836	-0,731	76,985	0	1008,2	5,5	7,6	7,5	1	1	1	1	1	1	1	1	1	0	1	-68,357999	272,895377	246,103713	0
15.01.2021	01:20:24	0	0	4,632509	3,10875	86,2704	-0,736	77,005	0	1008,38	5,5	7,7	7,6	1	1	1	1	1	1	1	1	1	0	1	-71,67019	273,033232	243,427412	0
15.01.2021	01:20:25	0	0	3,050695	3,08325	84,0528	-0,738	77,001	0	1008,24	5,5	7,7	7,5	1	1	1	1	1	1	1	1	1	0	1	-75,405215	272,948713	239,302409	0
15.01.2021	01:20:26	0	0	4,293545	3,0765	85,8852	-0,734	76,999	0	1008,22	5,5	7,7	7,6	1	1	1	1	1	1	1	1	1	0	1	-70,613108	273,03888	244,510567	0
15.01.2021	01:20:27	0	0	3,954605	2,967	83,7396	-0,738	77,002	0	1008,3	5,5	7,7	7,5	1	1	1	1	1	1	1	1	1	0	1	-73,854827	272,893975	240,600424	0
15.01.2021	01:20:28	0	0	4,180582	2,8755	98,7624	-0,737	77,045	0	1008,3	5,5	7,6	7,5	1	1	1	1	1	1	1	1	1	0	1	-68,569415	272,943092	246,112284	0
15.01.2021	01:20:29	0	0	4,858514	2,80575	87,3648	-0,742	77,034	0	1008,24	5,5	7,7	7,5	1	1	1	1	1	1	1	1	1	0	1	-66,102889	272,913607	248,442857	0
15.01.2021	01:20:30	0	0	4,293571	2,787	71,5968	-0,738	77,065	0	1008,24	5,5	7,7	7,5	1	1	1	1	1	1	1	1	1	0	1	-72,868217	272,929046	241,748711	0
15.01.2021	01:20:31	0	0	5,084492	2,72475	85,1616	-0,742	77,065	0	1008,18	5,5	7,7	7,5	1	1	1	1	1	1	1	1	1	0	1	-75,687104	273,005018	239,280275	0
15.01.2021	01:20:32	0	0	4,858514	2,62575	97,7112	-0,749	77,061	0	1008,24	5,5	7,7	7,5	1	1	1	1	1	1	1	1	1	0	1	-74,348132	273,055833	240,853817	0
15.01.2021	01:20:33	0	0	3,615617	2,70225	94,392	-0,74	77,072	0	1008,36	5,5	7,7	7,6	1	1	1	1	1	1	1	1	1	0	1	-74,91191	272,95293	239,815164	0
15.01.2021	01:20:34	0	0	4,067593	2,72625	88,9668	-0,749	77,067	0	1008,3	5,5	7,7	7,5	1	1	1	1	1	1	1	1	1	0	1	-68,710359	272,886969	245,712599	0
15.01.2021	01:20:35	0	0	5,084461	2,94675	88,56	-0,755	77,07	0	1008,18	5,5	7,7	7,6	1	1	1	1	1	1	1	1	1	0	1	-73,995772	272,958555	240,757243	0
15.01.2021	01:20:36	0	0	3,615638	3,036	95,5116	-0,752	77,055	0	1008,14	5,5	7,7	7,5	1	1	1	1	1	1	1	1	1	0	1	-70,119803	272,882766	244,283787	0
15.01.2021	01:20:37	0	0	5,084461	3,0945	88,9524	-0,746	77,055	0	1008,36	5,5	7,7	7,6	1	1	1	1	1	1	1	1	1	0	1	-75,334743	272,989517	239,561111	0
15.01.2021	01:20:38	0	0	3,728627	3,22275	85,518	-0,731	77,065	0	1008,4	5,5	7,7	7,5	1	1	1	1	1	1	1	1	1	0	1	-74,418605	273,061488	240,809455	0
15.01.2021	01:20:39	0	0	5,310469	3,258	82,3392	-0,755	77,049	0	1008,2	5,5	7,7	7,5	1	1	1	1	1	1	1	1	1	0	1	-68,992248	272,961367	245,77374	0
15.01.2021	01:20:40	0	0	4,971503	3,2805	91,1664	-0,749	77,068	0	1008,34	5,5	7,7	7,5	1	1	1	1	1	1	1	1	1	0	1	-74,136716	273,061488	241,091343	0
15.01.2021	01:20:41	0	0	4,632537	3,351	87,0516	-0,751	77,057	0	1008,04	5,5	7,7	7,5	1	1	1	1	1	1	1	1	1	0	1	-68,921776	272,929046	245,695152	0
15.01.2021	01:20:42	0	0	3,841593	3,2415	86,6916	-0,76	77,069	0	1008,22	5,5	7,7	7,6	1	1	1	1	1	1	1	1	1	0	1	-77,801268	272,896779	236,666903	0
15.01.2021	01:20:43	0	0	4,519521	3,30975	74,1564	-0,759	77,08	0	1008,34	5,5	7,7	7,6	1	1	1	1	1	1	1	1	1	0	1	-75,616631	272,990926	239,285721	0
15.01.2021	01:20:44	0	0	3,502629	3,381	88,1136	-0,762	77,115	0	1008,36	5,5	7,7	7,6	1	1	1	1	1	1	1	1	1	0	1	-73,572939	273,06573	241,674709	0
15.01.2021	01:20:45	0	0	2,824718	3,53775	98,064	-0,763	77,129	0	1008,24	5,5	7,7	7,5	1	1	1	1	1	1	1	1	1	0	1	-71,388302	272,926238	243,215679	0
15.01.2021	01:20:46	0	0	4,519548	3,91425	87,7284	-0,762	77,154	0	1008,4	5,5	7,7	7,5	1	1	1	1	1	1	1	1	1	0	1	-73,009161	273,005018	241,958217	0
15.01.2021	01:20:47	0	0	2,937689	4,40775	87,3648	-0,76	77,153	0	1008,3	5,6	7,7	7,6	1	1	1	1	1	1	1	1	1	0	1	-72,656801	273,060074	242,56473	0
15.01.2021	01:20:48	0	0	3,728605	4,5975	86,292	-0,764	77,169	0	1008,06	5,5	7,7	7,6	1	1	1	1	1	1	1	1	1	0	1	-71,952079	272,968401	242,846354	0
15.01.2021	01:20:49	0	0	4,632509	4,488	109,9728	-0,765	77,179	0	1008,26	5,5	7,7	7,6	1	1	1	1	1	1	1	1	1	0	1	-73,572939	273,053007	241,615959	0
15.01.2021	01:20:50	0	0	3,841593	4,152	102,9528	-0,765	77,184	0	1008,44	5,5	7,7	7,6	1	1	1	1	1	1	1	1	1	0	1	-73,150106	272,941687	241,525114	0
15.01.2021	01:20:51	0	0	4,632509	3,915	88,1352	-0,77	77,2	0	1008,16	5,5	7,7	7,6	1	1	1	1	1	1	1	1	1	0	1	-77,378436	273,040292	237,751759	0
15.01.2021	01:20:52	0	0	5,084461	3,876	88,596	-0,773	77,218	0	1008,2	5,6	7,7	7,6	1	1	1	1	1	1	1	1	1	0	1	-68,992248	272,968401	245,806185	0
15.01.2021	01:20:53	0	0	3,163665	3,99525	108,4752	-0,764	77,25	0	1008,34	5,6	7,7	7,6	1	1	1	1	1	1	1	1	1	0	1	-71,247357	272,886969	243,175601	0
15.01.2021	01:20:54	0	0	4,971473	3,98025	90,036	-0,767	77,291	0	1008,26	5,5	7,7	7,6	1	1	1	1	1	1	1	1	1	0	1	-72,656801	273,006427	242,317083	0
15.01.2021	01:20:55	0	0	4,067569	3,639	77,238	-0,768	77,341	0	1008,22	5,5	7,7	7,6	1	1	1	1	1	1	1	1	1	0	1	-73,502467	272,978252	241,341413	0
15.01.2021	01:20:56	0	0	4,293545	3,68475	79,4952	-0,77	77,393	0	1008,38	5,5	7,7	7,6	1	1	1	1	1	1	1	1	1	0	1	-77,026075	273,045942	238,130204	0
15.01.2021	01:20:57	0	0	4,971473	4,07925	93,3336	-0,767	77,446	0	1008,16	5,5	7,7	7,6	1	1	1	1	1	1	1	1	1	0	1	-73,150106	272,913607	241,39564	0
15.01.2021	01:20:58	0	0	2,937706	4,21725	89,712	-0,771	77,502	0	1008,1	5,5	7,7	7,5	1	1	1	1	1	1	1	1	1	0	1	-69,344609	273,040292	245,785586	0
15.01.2021	01:20:59	0	0	2,937689	3,8775	95,5332	-0,775	77,534	0	1008,24	5,5	7,7	7,6	1	1	1	1	1	1	1	1	1	0	1	-72,868217	273,03182	242,222869	0
15.01.2021	01:21:00	0	0	4,067569	3,78525	72,684	-0,772	77,556	0	1008,3	5,6	7,7	7,6	1	1	1	1	1	1	1	1	1	0	1	-74,559549	273,021941	240,485936	0
15.01.2021	01:21:01	0	0	3,615617	3,837	65,4732	-0,771	77,55	0	1008,2	5,6	7,7	7,6	1	1	1	1	1	1	1	1	1	0	1	-75,546159	272,885568	238,870342	0
15.01.2021	01:21:02	0	0	3,615617	3,837	65,4732	-0,771	77,55	0	1008,2	5,6	7,7	7,6	1	1	1	1	1	1	1	1	1	0	1	-75,546159	272,885568	238,870342	0
15.01.2021	01:21:03	0	0	4,745497	3,61125	72,6768	-0,771	77,543	0	1008,26	5,5	7,7	7,6	1	1	1	1	1	1	1	1	1	0	1	-73,995772	273,007837	240,984618	0
15.01.2021	01:21:04	0	0	3,502629	3,37725	71,2548	-0,769	77,548	0	1008,3	5,5	7,7	7,6	1	1	1	1	1	1	1	1	1	0	1	-69,203665	272,91922	245,367958	0
15.01.2021	01:21:05	0	0	4,293545	3,1155	77,2128	-0,771	77,511	0	1008,12	5,4	7,7	7,6	1	1	1	1	1	1	1	1	1	0	1	-70,119803	272,879965	244,270878	0
15.01.2021	01:21:06	0	0	2,372748	3,3255	90,774	-0,773	77,523	0	1008,26	5,4	7,7	7,6	1	1	1	1	1	1	1	1	1	0	1	-73,643411	273,007837	241,336979	0
15.01.2021	01:21:07	0	0	2,598725	3,53325	84,7944	-0,777	77,514	0	1008,32	5,5	7,7	7,6	1	1	1	1	1	1	1	1	1	0	1	-68,780832	272,910801	245,75198	0
15.01.2021	01:21:08	0	0	4,519548	3,6435	88,9488	-0,773	77,503	0	1008,32	5,6	7,7	7,5	1	1	1	1	1	1	1	1	1	0	1	-69,556025	272,990926	245,346328	0
15.01.2021	01:21:09	0	0	4,745497	3,849	89,3412	-0,776	77,474	0	1008,16	5,5	7,7	7,6	1	1	1	1	1	1	1	1	1	0	1	-71,388302	273,05442	243,807122	0
15.01.2021	01:21:10	0	0	3,841593	4,0035	92,2572	-0,776	77,479	0	1008,2	5,6	7,7	7,6	1	1	1	1	1	1	1	1	1	0	1	-72,022551	273,033232	243,075051	0
15.01.2021	01:21:11	0	0	4,858485	4,089	93,438	-0,78	77,463	0	1008,2	5,4	7,7	7,6	1	1	1	1	1	1	1	1	1	0	1	-68,921776	272,896779	245,546396	0
15.01.2021	01:21:12	0	0	3,954581	4,23375	96,9768	-0,783	77,467	0	1008,32	5,5	7,7	7,6	1	1	1	1	1	1	1	1	1	0	1	-74,066244	272,91501	240,48597	0
15.01.2021	01:21:13	0	0	3,389641	4,1865	94,3812	-0,777	77,461	0	1008,08	5,5	7,7	7,6	1	1	1	1	1	1	1	1	1	0	1	-69,133192	272,910801	245,399619	0
15.01.2021	01:21:14	0	0	2,372748	3,99975	95,8428	-0,786	77,459	0	1008,24	5,5	7,7	7,6	1	1	1	1	1	1	1	1	1	0	1	-68,710359	272,877164	245,667414	0
15.01.2021	01:21:15	0	0	4,971473	3,75975	86,9652	-0,776	77,456	0	1008,2	5,5	7,7	7,6	1	1	1	1	1	1	1	1	1	0	1	-72,445384	272,992335	242,463469	0
15.01.2021	01:21:16	0	0	4,745497	3,735	91,1556	-0,783	77,462	0	1008,18	5,6	7,7	7,6	1	1	1	1	1	1	1	1	1	0	1	-71,035941	272,909398	243,490404	0
15.01.2021	01:21:17	0	0	4,180557	3,57075	98,4492	-0,781	77,461	0	1008,26	5,5	7,7	7,6	1	1	1	1	1	1	1	1	1	0	1	-74,770965	273,051594	240,411407	0
15.01.2021	01:21:18	0	0	3,050677	3,37425	92,6496	-0,787	77,44	0	1008,18	5,5	7,7	7,6	1	1	1	1	1	1	1	1	1	0	1	-69,69697	272,995152	245,224885	0
15.01.2021	01:21:19	0	0	3,389661	3,2565	89,7192	-0,785	77,457	0	1008,34	5,6	7,7	7,5	1	1	1	1	1	1	1	1	1	0	1	-69,203665	272,877164	245,174108	0
15.01.2021	01:21:20	0	0	4,632509	3,19425	91,8864	-0,782	77,46	0	1008,3	5,5	7,7	7,6	1	1	1	1	1	1	1	1	1	0	1	-72,374912	272,917816	242,19024	0
15.01.2021	01:21:21	0	0	4,519548	3,16575	78,282	-0,778	77,447	0	1008,24	5,6	7,7	7,5	1	1	1	1	1	1	1	1	1	0	1	-72,374912	273,027586	242,696627	0
15.01.2021	01:21:22	0	0	4,519521	3,279	67,6836	-0,789	77,446	0	1008,22	5,5	7,7	7,6	1	1	1	1	1	1	1	1	1	0	1	-72,938689	273,057247	242,269787	0
15.01.2021	01:21:23	0	0	3,502629	3,402	85,5036	-0,782	77,437	0	1008,22	5,4	7,7	7,6	1	1	1	1	1	1	1	1	1	0	1	-70,542636	272,989517	244,353218	0
15.01.2021	01:21:24	0	0	4,745497	3,291	67,2804	-0,782	77,438	0	1008,3	5,5	7,7	7,6	1	1	1	1	1	1	1	1	1	0	1	-71,458774	273,045942	243,697505	0
15.01.2021	01:21:25	0	0	3,050713	3,01575	57,4344	-0,787	77,427	0	1008,18	5,4	7,7	7,4	1	1	1	1	1	1	1	1	1	0	1	-72,797745	272,891173	241,644587	0
15.01.2021	01:21:26	0	0	4,519521	2,86575	65,4552	-0,786	77,438	0	1008,22	5,5	7,7	7,6	1	1	1	1	1	1	1	1	1	0	1	-71,740662	272,943092	242,941037	0
15.01.2021	01:21:27	0	0	2,711713	2,826	66,24	-0,795	77,444	0	1008,34	5,6	7,7	7,6	1	1	1	1	1	1	1	1	1	0	1	-70,613108	272,899582	243,867987	0
15.01.2021	01:21:28	0	0	3,163665	2,84175	69,156	-0,793	77,442	0	1008,2	5,4	7,7	7,6	1	1	1	1	1	1	1	1	1	0	1	-69,415081	272,874364	244,949787	0
15.01.2021	01:21:29	0	0	4,293545	2,81325	67,41	-0,786	77,453	0	1008,26	5,4	7,7	7,6	1	1	1	1	1	1	1	1	1	0	1	-73,995772	273,014888	241,017159	0
15.01.2021	01:21:30	0	0	3,163665	3,02475	68,4	-0,792	77,453	0	1008,22	5,5	7,7	7,6	1	1	1	1	1	1	1	1	1	0	1	-73,079634	272,85757	241,207853	0
15.01.2021	01:21:31	0	0	2,598725	3,02025	91,8864	-0,789	77,449	0	1008,16	5,5	7,7	7,6	1	1	1	1	1	1	1	1	1	0	1	-76,039464	272,975437	238,791428	0
15.01.2021	01:21:32	0	0	4,745497	2,985	92,2752	-0,791	77,447	0	1008,14	5,4	7,7	7,6	1	1	1	1	1	1	1	1	1	0	1	-72,515856	273,006427	242,458028	0
15.01.2021	01:21:33	0	0	3,728605	2,96175	79,434	-0,798	77,446	0	1008,14	5,6	7,7	7,6	1	1	1	1	1	1	1	1	1	0	1	-71,740662	273,03888	243,383013	0
15.01.2021	01:21:34	0	0	2,824701	2,93925	85,518	-0,793	77,443	0	1008,18	5,5	7,7	7,6	1	1	1	1	1	1	1	1	1	0	1	-71,740662	272,971215	243,070752	0
15.01.2021	01:21:35	0	0	4,745497	3,27675	77,202	-0,796	77,45	0	1008,26	5,6	7,7	7,6	1	1	1	1	1	1	1	1	1	0	1	-67,864693	273,03888	247,258982	0
15.01.2021	01:21:36	0	0	3,050677	3,5565	84,78	-0,795	77,452	0	1008,18	5,4	7,7	7,6	1	1	1	1	1	1	1	1	1	0	1	-66,878083	272,93045	247,745319	0
15.01.2021	01:21:37	0	0	3,502629	3,77025	91,188	-0,8	77,46	0	1008,34	5,4	7,7	7,6	1	1	1	1	1	1	1	1	1	0	1	-66,948555	272,989517	247,947298	0
15.01.2021	01:21:38	0	0	4,293545	3,7365	81,9684	-0,795	77,439	0	1008,18	5,6	7,7	7,6	1	1	1	1	1	1	1	1	1	0	1	-70,472163	273,037468	244,644993	0
15.01.2021	01:21:39	0	0	4,293545	3,789	90,8028	-0,794	77,453	0	1008,24	5,6	7,7	7,6	1	1	1	1	1	1	1	1	1	0	1	-76,039464	272,926238	238,564516	0
15.01.2021	01:21:40	0	0	4,632509	3,972	85,9068	-0,797	77,496	0	1008,26	5,4	7,7	7,6	1	1	1	1	1	1	1	1	1	0	1	-73,995772	272,868765	240,343293	0
15.01.2021	01:21:41	0	0	3,841593	4,113	75,9636	-0,798	77,531	0	1008,16	5,4	7,7	7,6	1	1	1	1	1	1	1	1	1	0	1	-72,797745	272,917816	241,767407	0
15.01.2021	01:21:42	0	0	3,050677	4,296	77,5728	-0,796	77,576	0	1008,32	5,4	7,7	7,6	1	1	1	1	1	1	1	1	1	0	1	-69,69697	272,995152	245,224885	0
15.01.2021	01:21:43	0	0	2,824701	4,674	80,6112	-0,802	77,591	0	1008,24	5,4	7,7	7,6	1	1	1	1	1	1	1	1	1	0	1	-76,321353	272,868765	238,017712	0
15.01.2021	01:21:44	0	0	3,163665	4,629	76,014	-0,803	77,6	0	1008,2	5,5	7,7	7,6	1	1	1	1	1	1	1	1	1	0	1	-70,331219	272,969808	244,473704	0
15.01.2021	01:21:45	0	0	2,485766	4,52625	70,848	-0,802	77,629	0	1008,24	5,6	7,7	7,4	1	1	1	1	1	1	1	1	1	0	1	-75,334743	272,871564	239,017223	0
15.01.2021	01:21:46	0	0	5,197511	4,45275	81,9648	-0,804	77,643	0	1008,26	5,6	7,7	7,4	1	1	1	1	1	1	1	1	1	0	1	-72,163495	272,995152	242,758359	0
15.01.2021	01:21:47	0	0	4,293596	4,4235	74,5308	-0,799	77,669	0	1008,24	5,4	7,7	7,4	1	1	1	1	1	1	1	1	1	0	1	-71,599718	272,895377	242,861993	0
15.01.2021	01:21:48	0	0	4,180607	4,2345	85,1724	-0,807	77,682	0	1008,18	5,6	7,7	7,4	1	1	1	1	1	1	1	1	1	0	1	-70,894996	273,03888	244,228679	0
15.01.2021	01:21:49	0	0	5,310437	4,39725	80,8884	-0,799	77,726	0	1008,3	5,4	7,7	7,6	1	1	1	1	1	1	1	1	1	0	1	-71,67019	272,958555	243,082824	0
15.01.2021	01:21:50	0	0	3,163703	4,38675	83,3328	-0,801	77,75	0	1008,34	5,4	7,7	7,4	1	1	1	1	1	1	1	1	1	0	1	-69,274137	273,023352	245,777861	0
15.01.2021	01:21:51	0	0	4,971533	4,1505	82,602	-0,806	77,789	0	1008,18	5,6	7,7	7,4	1	1	1	1	1	1	1	1	1	0	1	-69,978858	272,868765	244,360207	0
15.01.2021	01:21:52	0	0	4,067569	3,77025	93,7116	-0,804	77,834	0	1008,32	5,6	7,7	7,6	1	1	1	1	1	1	1	1	1	0	1	-73,572939	272,945902	241,121722	0
15.01.2021	01:21:53	0	0	3,841639	3,6375	84,7836	-0,804	77,873	0	1008,32	5,6	7,7	7,4	1	1	1	1	1	1	1	1	1	0	1	-73,361522	272,864566	240,958196	0
15.01.2021	01:21:54	0	0	4,745554	3,59775	88,1208	-0,808	77,917	0	1008,28	5,6	7,7	7,4	1	1	1	1	1	1	1	1	1	0	1	-71,740662	273,023352	243,311335	0
15.01.2021	01:21:55	0	0	2,485736	3,5055	94,068	-0,809	77,951	0	1008,14	5,4	7,7	7,6	1	1	1	1	1	1	1	1	1	0	1	-67,723749	272,996561	247,204607	0
15.01.2021	01:21:56	0	0	4,406586	3,41175	102,9636	-0,807	78,006	0	1008,1	5,6	7,7	7,4	1	1	1	1	1	1	1	1	1	0	1	-71,388302	273,053007	243,800596	0
15.01.2021	01:21:57	0	0	4,293545	3,519	86,2956	-0,8	78,058	0	1008,26	5,6	7,7	7,6	1	1	1	1	1	1	1	1	1	0	1	-78,012685	273,017709	237,013265	0
15.01.2021	01:21:58	0	0	2,711713	3,5835	77,5908	-0,805	78,103	0	1008,2	5,6	7,7	7,6	1	1	1	1	1	1	1	1	1	0	1	-71,317829	272,878565	243,066397	0
15.01.2021	01:21:59	0	0	4,293596	3,516	79,7724	-0,803	78,161	0	1008,2	5,6	7,7	7,4	1	1	1	1	1	1	1	1	1	0	1	-73,995772	273,03888	241,127903	0
15.01.2021	01:22:00	0	0	4,632565	3,066	77,202	-0,806	78,232	0	1008,18	5,4	7,7	7,4	1	1	1	1	1	1	1	1	1	0	1	-76,814658	272,88837	237,614758	0
15.01.2021	01:22:01	0	0	2,598756	3,255	73,7784	-0,798	78,258	0	1008,36	5,4	7,7	7,4	1	1	1	1	1	1	1	1	1	0	1	-76,814658	272,88837	237,614758	0
15.01.2021	01:22:02	0	0	2,598756	3,255	73,7784	-0,798	78,258	0	1008,36	5,4	7,7	7,4	1	1	1	1	1	1	1	1	1	0	1	-71,035941	272,85757	243,251545	0
15.01.2021	01:22:03	0	0	4,745497	3,40125	77,5764	-0,798	78,258	0	1008,16	5,4	7,7	7,6	1	1	1	1	1	1	1	1	1	0	1	-72,938689	272,947308	241,762453	0
15.01.2021	01:22:04	0	0	2,937724	3,4245	91,512	-0,796	78,285	0	1008,3	5,5	7,7	7,4	1	1	1	1	1	1	1	1	1	0	1	-73,643411	272,877164	240,734362	0
15.01.2021	01:22:05	0	0	4,858543	3,30225	71,6184	-0,799	78,268	0	1008,3	5,4	7,7	7,4	1	1	1	1	1	1	1	1	1	0	1	-69,415081	273,000789	245,532783	0
15.01.2021	01:22:06	0	0	2,824734	3,26325	76,8492	-0,803	78,262	0	1008,28	5,4	7,7	7,4	1	1	1	1	1	1	1	1	1	0	1	-71,740662	273,009247	243,246235	0
15.01.2021	01:22:07	0	0	2,711745	3,25725	74,1636	-0,796	78,259	0	1008,2	5,4	7,7	7,4	1	1	1	1	1	1	1	1	1	0	1	-74,207188	273,06573	241,04046	0
15.01.2021	01:22:08	0	0	5,084461	3,216	66,942	-0,797	78,27	0	1008,24	5,4	7,7	7,6	1	1	1	1	1	1	1	1	1	0	1	-73,009161	273,01912	242,0233	0
15.01.2021	01:22:09	0	0	4,180557	3,123	73,4292	-0,795	78,256	0	1008,08	5,4	7,7	7,6	1	1	1	1	1	1	1	1	1	0	1	-73,854827	273,053007	241,33407	0
15.01.2021	01:22:10	0	0	3,276692	3,2205	73,0584	-0,798	78,234	0	1008,32	5,6	7,7	7,4	1	1	1	1	1	1	1	1	1	0	1	-72,093023	272,900984	242,394534	0
15.01.2021	01:22:11	0	0	4,971533	3,5475	70,2504	-0,802	78,216	0	1008,18	5,4	7,7	7,4	1	1	1	1	1	1	1	1	1	0	1	-72,445384	272,936068	242,203922	0
15.01.2021	01:22:12	0	0	3,954581	3,75675	68,0328	-0,797	78,203	0	1008,18	5,4	7,7	7,6	1	1	1	1	1	1	1	1	1	0	1	-69,203665	273,047355	245,959137	0
15.01.2021	01:22:13	0	0	4,067618	4,1205	72,2844	-0,794	78,186	0	1008,26	5,4	7,7	7,4	1	1	1	1	1	1	1	1	1	0	1	-68,851304	272,906593	245,66211	0
15.01.2021	01:22:14	0	0	3,050713	4,25025	70,6104	-0,801	78,17	0	1008,2	5,4	7,7	7,4	1	1	1	1	1	1	1	1	1	0	1	-65,46864	272,912204	249,070638	0
15.01.2021	01:22:15	0	0	4,067618	4,0725	71,2332	-0,8	78,143	0	1008,3	5,4	7,7	7,4	1	1	1	1	1	1	1	1	1	0	1	-73,220578	272,877164	241,157195	0
15.01.2021	01:22:16	0	0	4,745497	3,969	75,96	-0,799	78,125	0	1008,34	5,4	7,7	7,6	1	1	1	1	1	1	1	1	1	0	1	-72,022551	273,012067	242,977361	0
15.01.2021	01:22:17	0	0	3,841593	3,97575	71,5968	-0,792	78,114	0	1008,24	5,4	7,7	7,6	1	1	1	1	1	1	1	1	1	0	1	-71,388302	272,882766	243,015288	0
15.01.2021	01:22:18	0	0	4,745554	4,04475	86,2992	-0,79	78,079	0	1008,18	5,6	7,7	7,4	1	1	1	1	1	1	1	1	1	0	1	-68,498943	272,941687	246,176277	0
15.01.2021	01:22:19	0	0	4,632565	3,96525	82,3356	-0,797	78,041	0	1008,22	5,4	7,7	7,4	1	1	1	1	1	1	1	1	1	0	1	-73,079634	273,045942	242,076646	0
15.01.2021	01:22:20	0	0	3,050713	3,70425	63,936	-0,797	78,037	0	1008,22	5,6	7,7	7,4	1	1	1	1	1	1	1	1	1	0	1	-68,428471	272,913607	246,117275	0
15.01.2021	01:22:21	0	0	2,711745	3,46425	70,8552	-0,795	77,996	0	1008,32	5,6	7,7	7,4	1	1	1	1	1	1	1	1	1	0	1	-72,445384	273,040292	242,684811	0
15.01.2021	01:22:22	0	0	4,745554	3,477	74,1636	-0,791	78,011	0	1008,52	5,6	7,7	7,4	1	1	1	1	1	1	1	1	1	0	1	-72,586328	272,909398	241,940016	0
15.01.2021	01:22:23	0	0	4,180607	3,4965	82,5948	-0,792	77,981	0	1008,3	5,4	7,7	7,4	1	1	1	1	1	1	1	1	1	0	1	-73,995772	272,978252	240,848108	0
15.01.2021	01:22:24	0	0	3,954581	3,504	81,198	-0,794	77,979	0	1008,26	5,6	7,7	7,6	1	1	1	1	1	1	1	1	1	0	1	-69,203665	272,864566	245,116054	0
15.01.2021	01:22:25	0	0	4,632509	3,26475	89,7336	-0,797	77,975	0	1008,34	5,4	7,6	7,6	1	1	1	1	1	1	1	1	1	0	1	-71,317829	272,898181	243,156804	0
15.01.2021	01:22:26	0	0	4,858485	2,99775	87,7356	-0,798	77,967	0	1008,52	5,6	7,7	7,6	1	1	1	1	1	1	1	1	1	0	1	-72,093023	273,000789	242,854841	0
15.01.2021	01:22:27	0	0	4,745554	3,0135	83,7252	-0,799	77,949	0	1007,94	5,4	7,7	7,4	1	1	1	1	1	1	1	1	1	0	1	-74,841438	272,872964	239,516979	0
15.01.2021	01:22:28	0	0	4,971533	3,44625	72,3024	-0,795	77,946	0	1008,06	5,6	7,7	7,4	1	1	1	1	1	1	1	1	1	0	1	-70,965469	272,924834	243,632039	0
15.01.2021	01:22:29	0	0	4,180607	3,59175	79,0272	-0,796	77,964	0	1008,36	5,4	7,7	7,4	1	1	1	1	1	1	1	1	1	0	1	-73,572939	273,03182	241,518147	0
15.01.2021	01:22:30	0	0	4,745554	3,32625	90,7416	-0,798	77,963	0	1008,46	5,4	7,7	7,4	1	1	1	1	1	1	1	1	1	0	1	-71,740662	272,906593	242,772751	0
15.01.2021	01:22:31	0	0	4,632565	3,0315	92,2608	-0,793	77,977	0	1008,16	5,4	7,7	7,4	1	1	1	1	1	1	1	1	1	0	1	-72,515856	273,010657	242,477548	0
15.01.2021	01:22:32	0	0	3,61566	3,288	88,1136	-0,796	77,983	0	1008,54	5,4	7,7	7,4	1	1	1	1	1	1	1	1	1	0	1	-73,29105	272,992335	241,617803	0
15.01.2021	01:22:33	0	0	2,824734	3,4065	91,5084	-0,796	77,983	0	1008,52	5,4	7,7	7,4	1	1	1	1	1	1	1	1	1	0	1	-68,710359	272,995152	246,211495	0
15.01.2021	01:22:34	0	0	5,084522	3,24675	91,5192	-0,797	77,981	0	1008,28	5,4	7,7	7,4	1	1	1	1	1	1	1	1	1	0	1	-68,146582	272,864566	246,173136	0
15.01.2021	01:22:35	0	0	4,519575	3,018	108,8928	-0,801	78,009	0	1008,3	5,4	7,7	7,4	1	1	1	1	1	1	1	1	1	0	1	-74,700493	273,012067	240,299419	0
15.01.2021	01:22:36	0	0	4,180557	3,02175	75,9852	-0,795	78	0	1008,26	5,4	7,7	7,6	1	1	1	1	1	1	1	1	1	0	1	-73,784355	272,972622	241,033551	0
15.01.2021	01:22:37	0	0	3,841639	2,96925	90,7704	-0,802	78,013	0	1008,2	5,4	7,7	7,4	1	1	1	1	1	1	1	1	1	0	1	-71,106413	272,865965	243,219754	0
15.01.2021	01:22:38	0	0	4,858543	2,817	82,3536	-0,799	78,008	0	1008,24	5,4	7,6	7,4	1	1	1	1	1	1	1	1	1	0	1	-71,529246	272,929046	243,087682	0
15.01.2021	01:22:39	0	0	3,954628	2,71725	84,42	-0,795	78,004	0	1008,24	5,4	7,7	7,4	1	1	1	1	1	1	1	1	1	0	1	-73,713883	273,037468	241,403273	0
15.01.2021	01:22:40	0	0	2,485766	2,577	85,5324	-0,796	78,006	0	1008,18	5,4	7,7	7,4	1	1	1	1	1	1	1	1	1	0	1	-69,69697	272,951525	245,02362	0
15.01.2021	01:22:41	0	0	2,711745	2,586	93,348	-0,804	78,005	0	1008,24	5,4	7,6	7,4	1	1	1	1	1	1	1	1	1	0	1	-69,837914	272,863167	244,475357	0
15.01.2021	01:22:42	0	0	4,180607	2,59125	77,5872	-0,799	78,018	0	1008,2	5,4	7,6	7,4	1	1	1	1	1	1	1	1	1	0	1	-75,89852	272,891173	238,543812	0
15.01.2021	01:22:43	0	0	2,598756	2,57025	91,5192	-0,795	78,015	0	1008,34	5,4	7,7	7,4	1	1	1	1	1	1	1	1	1	0	1	-68,498943	272,989517	246,396911	0
15.01.2021	01:22:44	0	0	5,42349	2,46375	104,4468	-0,801	78,004	0	1008,02	5,4	7,7	7,4	1	1	1	1	1	1	1	1	1	0	1	-71,458774	272,97966	243,391601	0
15.01.2021	01:22:45	0	0	2,598756	2,418	98,0676	-0,801	77,987	0	1008,2	5,4	7,7	7,4	1	1	1	1	1	1	1	1	1	0	1	-71,247357	273,030409	243,837212	0
15.01.2021	01:22:46	0	0	2,937724	2,22975	98,0784	-0,801	77,985	0	1008,16	5,4	7,7	7,4	1	1	1	1	1	1	1	1	1	0	1	-78,928823	272,850577	235,326445	0
15.01.2021	01:22:47	0	0	5,084522	2,106	89,6868	-0,799	77,983	0	1008,26	5,4	7,6	7,4	1	1	1	1	1	1	1	1	1	0	1	-72,656801	272,978252	242,187079	0
15.01.2021	01:22:48	0	0	3,841639	1,9155	106,2792	-0,793	77,979	0	1008,3	5,4	7,7	7,4	1	1	1	1	1	1	1	1	1	0	1	-68,851304	272,863167	245,461967	0
15.01.2021	01:22:49	0	0	3,61566	1,94325	96,5664	-0,798	77,966	0	1008,32	5,4	7,7	7,4	1	1	1	1	1	1	1	1	1	0	1	-75,052854	272,989517	239,842999	0
15.01.2021	01:22:50	0	0	5,197511	2,09775	87,7248	-0,799	77,953	0	1008,26	5,4	7,7	7,4	1	1	1	1	1	1	1	1	1	0	1	-71,317829	272,916413	243,240854	0
15.01.2021	01:22:51	0	0	4,519575	2,29875	84,402	-0,806	77,931	0	1008,2	5,4	7,7	7,4	1	1	1	1	1	1	1	1	1	0	1	-75,123326	273,014888	239,889604	0
15.01.2021	01:22:52	0	0	3,389681	2,39625	81,2196	-0,778	77,934	0	1008,36	5,4	7,6	7,4	1	1	1	1	1	1	1	1	1	0	1	-76,321353	272,966994	238,47059	0
15.01.2021	01:22:53	0	0	3,841639	2,4675	79,0092	-0,799	77,907	0	1008,22	5,4	7,7	7,4	1	1	1	1	1	1	1	1	1	0	1	-73,009161	273,037468	242,107995	0
15.01.2021	01:22:54	0	0	3,50265	2,538	91,8504	-0,802	77,867	0	1008,24	5,4	7,7	7,5	1	1	1	1	1	1	1	1	1	0	1	-70,119803	272,885568	244,296699	0
15.01.2021	01:22:55	0	0	2,824734	2,58375	87,7572	-0,801	77,855	0	1008,28	5,4	7,7	7,4	1	1	1	1	1	1	1	1	1	0	1	-74,27766	272,850577	239,977607	0
15.01.2021	01:22:56	0	0	4,406586	2,718	83,3328	-0,802	77,848	0	1008,18	5,4	7,7	7,4	1	1	1	1	1	1	1	1	1	0	1	-68,851304	273,002198	246,103065	0
15.01.2021	01:22:57	0	0	3,163703	2,94375	90,3924	-0,807	77,829	0	1008,24	5,4	7,6	7,4	1	1	1	1	1	1	1	1	1	0	1	-74,630021	272,966994	240,161922	0
15.01.2021	01:22:58	0	0	2,485766	3,0585	89,3124	-0,803	77,819	0	1008,3	5,4	7,7	7,4	1	1	1	1	1	1	1	1	1	0	1	-73,572939	272,867365	240,759677	0
15.01.2021	01:22:59	0	0	3,61566	3,14775	91,8756	-0,802	77,837	0	1008,28	5,4	7,7	7,4	1	1	1	1	1	1	1	1	1	0	1	-71,881607	272,950119	242,8325	0
15.01.2021	01:23:00	0	0	4,632565	3,13125	87,8328	-0,799	77,808	0	1008,22	5,4	7,6	7,4	1	1	1	1	1	1	1	1	1	0	1	-70,049331	272,955742	244,690712	0
15.01.2021	01:23:01	0	0	3,954605	3,25125	89,3088	-0,802	77,826	0	1008,24	5,4	7,7	7,5	1	1	1	1	1	1	1	1	1	0	1	-69,767442	272,849179	244,481384	0
15.01.2021	01:23:02	0	0	3,954605	3,25125	89,3088	-0,802	77,826	0	1008,24	5,4	7,7	7,5	1	1	1	1	1	1	1	1	1	0	1	-69,767442	272,849179	244,481384	0
15.01.2021	01:23:03	0	0	2,824734	3,41625	91,4868	-0,802	77,842	0	1008,4	5,4	7,6	7,4	1	1	1	1	1	1	1	1	1	0	1	-70,472163	272,997971	244,462695	0
15.01.2021	01:23:04	0	0	3,61566	3,45825	90,0252	-0,804	77,827	0	1008,14	5,4	7,6	7,4	1	1	1	1	1	1	1	1	1	0	1	-69,556025	272,96418	245,222939	0
15.01.2021	01:23:05	0	0	4,067618	3,65175	98,0784	-0,803	77,857	0	1008,18	5,4	7,6	7,4	1	1	1	1	1	1	1	1	1	0	1	-67,864693	272,85757	246,422793	0
15.01.2021	01:23:06	0	0	3,954628	3,88575	93,7044	-0,811	77,884	0	1008,22	5,4	7,6	7,4	1	1	1	1	1	1	1	1	1	0	1	-75,193798	272,978252	239,650081	0
15.01.2021	01:23:07	0	0	3,954605	3,8655	87,7248	-0,8	77,891	0	1008,24	5,4	7,6	7,5	1	1	1	1	1	1	1	1	1	0	1	-66,173362	272,891173	248,268971	0
15.01.2021	01:23:08	0	0	2,711745	3,75375	88,9488	-0,81	77,892	0	1008,1	5,4	7,6	7,4	1	1	1	1	1	1	1	1	1	0	1	-67,723749	273,023352	247,328248	0
15.01.2021	01:23:09	0	0	2,598756	3,5115	74,9448	-0,806	77,908	0	1008,18	5,4	7,7	7,4	1	1	1	1	1	1	1	1	1	0	1	-73,361522	272,926238	241,242459	0
15.01.2021	01:23:10	0	0	2,937724	3,40425	95,5188	-0,806	77,911	0	1008,12	5,4	7,6	7,4	1	1	1	1	1	1	1	1	1	0	1	-68,992248	272,854773	245,282349	0
15.01.2021	01:23:11	0	0	5,310501	3,32175	95,2632	-0,806	77,937	0	1008,3	5,4	7,6	7,4	1	1	1	1	1	1	1	1	1	0	1	-70,049331	272,993743	244,866023	0
15.01.2021	01:23:12	0	0	4,745554	3,1935	94,0896	-0,812	77,926	0	1008	5,4	7,6	7,4	1	1	1	1	1	1	1	1	1	0	1	-69,485553	272,989517	245,4103	0
15.01.2021	01:23:13	0	0	4,067618	3,123	92,2608	-0,809	77,919	0	1008,18	5,4	7,7	7,4	1	1	1	1	1	1	1	1	1	0	1	-69,06272	272,96418	245,716244	0
15.01.2021	01:23:14	0	0	2,485766	3,12075	95,5332	-0,805	77,921	0	1008,3	5,4	7,6	7,4	1	1	1	1	1	1	1	1	1	0	1	-71,952079	272,993743	242,963274	0
15.01.2021	01:23:15	0	0	2,598756	3,123	93,7224	-0,806	77,949	0	1008,28	5,4	7,6	7,4	1	1	1	1	1	1	1	1	1	0	1	-73,29105	272,832407	240,880517	0
15.01.2021	01:23:16	0	0	4,632537	3,29775	91,8504	-0,813	77,964	0	1008,22	5,4	7,6	7,5	1	1	1	1	1	1	1	1	1	0	1	-68,780832	272,881366	245,616303	0
15.01.2021	01:23:17	0	0	3,276692	3,50475	93,726	-0,805	77,985	0	1008,16	5,4	7,6	7,4	1	1	1	1	1	1	1	1	1	0	1	-71,529246	272,867365	242,80337	0
15.01.2021	01:23:18	0	0	3,728627	3,519	87,3648	-0,811	77,988	0	1008,22	5,4	7,7	7,5	1	1	1	1	1	1	1	1	1	0	1	-73,572939	272,97966	241,277436	0
15.01.2021	01:23:19	0	0	2,937724	3,72825	85,1724	-0,807	78,011	0	1008,28	5,4	7,7	7,4	1	1	1	1	1	1	1	1	1	0	1	-74,27766	272,96418	240,501304	0
15.01.2021	01:23:20	0	0	4,293596	3,85725	94,3848	-0,806	78,042	0	1008,3	5,4	7,6	7,4	1	1	1	1	1	1	1	1	1	0	1	-66,314306	273,01912	248,718155	0
15.01.2021	01:23:21	0	0	3,050713	3,8655	86,9904	-0,815	78,049	0	1008,22	5,5	7,6	7,4	1	1	1	1	1	1	1	1	1	0	1	-68,780832	272,922027	245,803732	0
15.01.2021	01:23:22	0	0	2,711745	3,89775	73,7784	-0,808	78,134	0	1008,24	5,4	7,6	7,4	1	1	1	1	1	1	1	1	1	0	1	-69,344609	273,006427	245,629275	0
15.01.2021	01:23:23	0	0	4,745525	3,84375	81,2124	-0,805	78,096	0	1008	5,4	7,6	7,5	1	1	1	1	1	1	1	1	1	0	1	-66,384778	272,985292	248,491581	0
15.01.2021	01:23:24	0	0	5,197511	3,4935	77,5836	-0,816	78,118	0	1008,14	5,4	7,6	7,4	1	1	1	1	1	1	1	1	1	0	1	-70,331219	273,009247	244,655678	0
15.01.2021	01:23:25	0	0	3,276672	3,2265	78,6456	-0,809	78,12	0	1008,22	5,4	7,7	7,5	1	1	1	1	1	1	1	1	1	0	1	-68,780832	272,868765	245,558233	0
15.01.2021	01:23:26	0	0	2,59874	3,267	68,418	-0,805	78,124	0	1008,26	5,4	7,6	7,5	1	1	1	1	1	1	1	1	1	0	1	-68,146582	272,955742	246,593461	0
15.01.2021	01:23:27	0	0	4,180582	3,25425	80,154	-0,804	78,143	0	1008,32	5,4	7,6	7,5	1	1	1	1	1	1	1	1	1	0	1	-70,824524	273,024763	244,233986	0
15.01.2021	01:23:28	0	0	4,406586	3,1335	60,5628	-0,81	78,157	0	1008,26	5,4	7,6	7,4	1	1	1	1	1	1	1	1	1	0	1	-71,106413	272,943092	243,575286	0
15.01.2021	01:23:29	0	0	3,728649	3,3825	67,3056	-0,804	78,183	0	1008,36	5,4	7,7	7,4	1	1	1	1	1	1	1	1	1	0	1	-72,868217	273,017709	242,157733	0
15.01.2021	01:23:30	0	0	2,937706	3,39225	79,1928	-0,81	78,181	0	1008,2	5,4	7,6	7,5	1	1	1	1	1	1	1	1	1	0	1	-73,431994	272,950119	241,282112	0
15.01.2021	01:23:31	0	0	2,937706	3,25575	63,4932	-0,807	78,192	0	1008,2	5,4	7,6	7,5	1	1	1	1	1	1	1	1	1	0	1	-69,344609	272,986701	245,538248	0
15.01.2021	01:23:32	0	0	4,293571	3,1875	61,3116	-0,806	78,223	0	1008,08	5,4	7,6	7,5	1	1	1	1	1	1	1	1	1	0	1	-70,754052	273,016298	244,265388	0
15.01.2021	01:23:33	0	0	2,937724	3,273	58,1184	-0,807	78,228	0	1008,26	5,5	7,6	7,4	1	1	1	1	1	1	1	1	1	0	1	-71,106413	272,958555	243,646601	0
15.01.2021	01:23:34	0	0	4,406559	3,30825	55,1808	-0,806	78,219	0	1008,22	5,4	7,6	7,5	1	1	1	1	1	1	1	1	1	0	1	-75,123326	272,846383	239,112617	0
15.01.2021	01:23:35	0	0	3,841616	3,237	69,1524	-0,812	78,209	0	1008,14	5,4	7,6	7,5	1	1	1	1	1	1	1	1	1	0	1	-70,894996	272,924834	243,702511	0
15.01.2021	01:23:36	0	0	2,824734	3,17475	81,5904	-0,81	78,217	0	1008,36	5,4	7,6	7,4	1	1	1	1	1	1	1	1	1	0	1	-73,009161	273,012067	241,990751	0
15.01.2021	01:23:37	0	0	2,485751	3,10125	70,2324	-0,811	78,193	0	1008,22	5,4	7,6	7,5	1	1	1	1	1	1	1	1	1	0	1	-78,858351	272,993743	236,057002	0
15.01.2021	01:23:38	0	0	4,067593	3,0165	67,2876	-0,806	78,197	0	1008,2	5,4	7,6	7,5	1	1	1	1	1	1	1	1	1	0	1	-72,938689	272,958555	241,814325	0
15.01.2021	01:23:39	0	0	3,389661	2,93625	66,546	-0,811	78,18	0	1008,2	5,4	7,6	7,5	1	1	1	1	1	1	1	1	1	0	1	-72,727273	272,849179	241,521553	0
15.01.2021	01:23:40	0	0	3,276672	2,9715	60,2388	-0,813	78,16	0	1008,28	5,4	7,6	7,5	1	1	1	1	1	1	1	1	1	0	1	-67,582805	272,909398	246,94354	0
15.01.2021	01:23:41	0	0	3,615638	3,02325	62,4204	-0,81	78,154	0	1008,26	5,4	7,6	7,5	1	1	1	1	1	1	1	1	1	0	1	-69,767442	273,016298	245,251998	0
15.01.2021	01:23:42	0	0	3,954605	3,18975	63,198	-0,81	78,124	0	1008,3	5,4	7,6	7,5	1	1	1	1	1	1	1	1	1	0	1	-71,106413	272,879965	243,284267	0
15.01.2021	01:23:43	0	0	3,050695	3,5685	69,4548	-0,812	78,11	0	1008,3	5,4	7,6	7,5	1	1	1	1	1	1	1	1	1	0	1	-70,260747	272,865965	244,06542	0
15.01.2021	01:23:44	0	0	2,372763	3,80175	68,4072	-0,82	78,095	0	1008,32	5,4	7,6	7,5	1	1	1	1	1	1	1	1	1	0	1	-72,374912	273,002198	242,579457	0
15.01.2021	01:23:45	0	0	4,632537	3,79125	63,4896	-0,795	78,066	0	1008,48	5,4	7,6	7,5	1	1	1	1	1	1	1	1	1	0	1	-70,965469	272,940282	243,703272	0
15.01.2021	01:23:46	0	0	2,711729	3,77475	71,2476	-0,812	78,058	0	1008,22	5,4	7,6	7,5	1	1	1	1	1	1	1	1	1	0	1	-70,401691	273,028997	244,676363	0
15.01.2021	01:23:47	0	0	2,824718	4,04925	77,5872	-0,811	78,041	0	1008,22	5,4	7,6	7,5	1	1	1	1	1	1	1	1	1	0	1	-71,811135	272,924834	242,786373	0
15.01.2021	01:23:48	0	0	4,519548	3,969	65,9448	-0,814	78,046	0	1008,28	5,5	7,6	7,5	1	1	1	1	1	1	1	1	1	0	1	-77,307963	273,024763	237,750547	0
15.01.2021	01:23:49	0	0	2,824718	3,77625	62,028	-0,815	78,037	0	1008,16	5,4	7,6	7,5	1	1	1	1	1	1	1	1	1	0	1	-70,824524	272,927642	243,78593	0
15.01.2021	01:23:50	0	0	4,293571	3,81075	57,7224	-0,818	78,037	0	1008,28	5,4	7,6	7,5	1	1	1	1	1	1	1	1	1	0	1	-70,401691	273,002198	244,552677	0
15.01.2021	01:23:51	0	0	3,389661	3,53925	57,42	-0,82	78,025	0	1008,14	5,4	7,6	7,5	1	1	1	1	1	1	1	1	1	0	1	-70,965469	272,971215	243,845946	0
15.01.2021	01:23:52	0	0	3,050695	3,46125	69,8544	-0,814	78,067	0	1008,26	5,4	7,6	7,5	1	1	1	1	1	1	1	1	1	0	1	-72,515856	272,988109	242,373499	0
15.01.2021	01:23:53	0	0	4,519548	3,24375	66,51	-0,818	78,046	0	1008,26	5,4	7,6	7,5	1	1	1	1	1	1	1	1	1	0	1	-73,784355	272,860368	240,516022	0
15.01.2021	01:23:54	0	0	5,423458	3,0645	74,52	-0,813	78,061	0	1008,34	5,4	7,6	7,5	1	1	1	1	1	1	1	1	1	0	1	-71,247357	272,895377	243,214354	0
15.01.2021	01:23:55	0	0	4,745525	2,88	62,1252	-0,817	78,08	0	1008,26	5,5	7,6	7,5	1	1	1	1	1	1	1	1	1	0	1	-74,418605	272,870164	239,92691	0
15.01.2021	01:23:56	0	0	4,971503	2,65875	84,8052	-0,815	78,079	0	1008,14	5,4	7,6	7,5	1	1	1	1	1	1	1	1	1	0	1	-70,754052	272,968401	244,044381	0
15.01.2021	01:23:57	0	0	4,632537	2,475	61,326	-0,819	78,067	0	1008,32	5,5	7,6	7,5	1	1	1	1	1	1	1	1	1	0	1	-75,475687	272,985292	239,400672	0
15.01.2021	01:23:58	0	0	5,310469	2,70075	77,9508	-0,823	78,084	0	1008,28	5,4	7,6	7,5	1	1	1	1	1	1	1	1	1	0	1	-72,515856	272,892574	241,932935	0
15.01.2021	01:23:59	0	0	4,858514	2,81625	73,4184	-0,815	78,078	0	1008,3	5,4	7,6	7,5	1	1	1	1	1	1	1	1	1	0	1	-71,388302	272,839394	242,815447	0
15.01.2021	01:24:00	0	0	2,711729	3,0105	74,5236	-0,816	78,089	0	1008,3	5,5	7,6	7,5	1	1	1	1	1	1	1	1	1	0	1	-70,331219	272,844985	243,898284	0
15.01.2021	01:24:01	0	0	3,389661	2,99775	67,6548	-0,815	78,086	0	1008,12	5,5	7,6	7,5	1	1	1	1	1	1	1	1	1	0	1	-68,07611	272,851976	246,1856	0
15.01.2021	01:24:02	0	0	3,389661	2,99775	67,6548	-0,815	78,086	0	1008,12	5,5	7,6	7,5	1	1	1	1	1	1	1	1	1	0	1	-68,07611	272,851976	246,1856	0
15.01.2021	01:24:03	0	0	2,824718	2,90775	71,2152	-0,82	78,091	0	1008,22	5,4	7,6	7,5	1	1	1	1	1	1	1	1	1	0	1	-72,586328	272,972622	242,231578	0
15.01.2021	01:24:04	0	0	2,711729	2,83875	78,2568	-0,818	78,077	0	1008,3	5,4	7,6	7,5	1	1	1	1	1	1	1	1	1	0	1	-72,374912	272,837996	241,822399	0
15.01.2021	01:24:05	0	0	4,406559	2,82225	73,7784	-0,821	78,077	0	1008,2	5,4	7,6	7,5	1	1	1	1	1	1	1	1	1	0	1	-72,022551	272,924834	242,574957	0
15.01.2021	01:24:06	0	0	2,711729	2,592	76,3992	-0,818	78,074	0	1008,14	5,4	7,6	7,5	1	1	1	1	1	1	1	1	1	0	1	-74,982382	273,005018	239,984996	0
15.01.2021	01:24:07	0	0	4,858514	2,40075	62,3952	-0,824	78,078	0	1008,08	5,4	7,6	7,5	1	1	1	1	1	1	1	1	1	0	1	-68,287526	272,950119	246,42658	0
15.01.2021	01:24:08	0	0	3,276672	2,3475	69,8364	-0,822	78,11	0	1008,3	5,4	7,6	7,5	1	1	1	1	1	1	1	1	1	0	1	-77,307963	273,013478	237,698458	0
15.01.2021	01:24:09	0	0	4,745525	2,32125	74,1708	-0,826	78,121	0	1008,3	5,4	7,6	7,5	1	1	1	1	1	1	1	1	1	0	1	-73,784355	272,937472	240,871429	0
15.01.2021	01:24:10	0	0	4,067593	2,24175	72,1116	-0,823	78,131	0	1008,26	5,4	7,6	7,5	1	1	1	1	1	1	1	1	1	0	1	-72,233968	272,853374	242,034186	0
15.01.2021	01:24:11	0	0	4,067593	2,3175	68,3892	-0,821	78,138	0	1008,16	5,4	7,6	7,5	1	1	1	1	1	1	1	1	1	0	1	-73,995772	272,856171	240,28527	0
15.01.2021	01:24:12	0	0	4,632537	2,28675	61,6968	-0,823	78,145	0	1008,22	5,5	7,6	7,5	1	1	1	1	1	1	1	1	1	0	1	-71,67019	272,879965	242,72049	0
15.01.2021	01:24:13	0	0	4,293571	2,57625	57,4128	-0,824	78,128	0	1008,22	5,5	7,6	7,5	1	1	1	1	1	1	1	1	1	0	1	-73,009161	272,833804	241,168841	0
15.01.2021	01:24:14	0	0	3,163684	3,13875	77,9544	-0,82	78,157	0	1008,22	5,4	7,6	7,5	1	1	1	1	1	1	1	1	1	0	1	-74,770965	272,941687	239,904254	0
15.01.2021	01:24:15	0	0	3,615638	3,40125	68,76	-0,823	78,178	0	1008,24	5,4	7,6	7,5	1	1	1	1	1	1	1	1	1	0	1	-73,431994	273,009247	241,554903	0
15.01.2021	01:24:16	0	0	4,293571	3,354	75,9816	-0,824	78,191	0	1008,26	5,4	7,6	7,5	1	1	1	1	1	1	1	1	1	0	1	-74,630021	272,924834	239,967487	0
15.01.2021	01:24:17	0	0	3,728627	3,264	80,5176	-0,83	78,184	0	1008,28	5,4	7,6	7,5	1	1	1	1	1	1	1	1	1	0	1	-67,019027	272,847781	247,223357	0
15.01.2021	01:24:18	0	0	4,745525	3,24825	73,044	-0,828	78,188	0	1008,26	5,5	7,6	7,5	1	1	1	1	1	1	1	1	1	0	1	-71,458774	272,840791	242,751412	0
15.01.2021	01:24:19	0	0	2,824718	3,237	74,9232	-0,823	78,166	0	1008,2	5,4	7,6	7,5	1	1	1	1	1	1	1	1	1	0	1	-71,317829	272,941687	243,35739	0
15.01.2021	01:24:20	0	0	4,971503	3,246	70,2072	-0,828	78,164	0	1008,14	5,4	7,6	7,5	1	1	1	1	1	1	1	1	1	0	1	-70,472163	273,014888	244,540767	0
15.01.2021	01:24:21	0	0	4,519548	3,4605	72,6552	-0,825	78,17	0	1008,22	5,5	7,6	7,5	1	1	1	1	1	1	1	1	1	0	1	-73,854827	272,955742	240,885215	0
15.01.2021	01:24:22	0	0	4,519548	3,6495	73,0548	-0,828	78,152	0	1008,18	5,4	7,6	7,5	1	1	1	1	1	1	1	1	1	0	1	-72,093023	272,884167	242,317022	0
15.01.2021	01:24:23	0	0	2,824718	3,6825	70,2144	-0,827	78,149	0	1008,24	5,4	7,6	7,5	1	1	1	1	1	1	1	1	1	0	1	-77,378436	272,833804	236,799567	0
15.01.2021	01:24:24	0	0	3,163684	3,5595	64,2528	-0,831	78,145	0	1008,3	5,5	7,6	7,5	1	1	1	1	1	1	1	1	1	0	1	-76,744186	272,870164	237,601329	0
15.01.2021	01:24:25	0	0	5,19748	3,62025	72,6768	-0,829	78,12	0	1008,28	5,5	7,6	7,5	1	1	1	1	1	1	1	1	1	0	1	-68,287526	272,995152	246,634328	0
15.01.2021	01:24:26	0	0	2,711729	3,4155	68,4216	-0,829	78,104	0	1008,18	5,4	7,6	7,5	1	1	1	1	1	1	1	1	1	0	1	-67,935166	272,868765	246,403899	0
15.01.2021	01:24:27	0	0	4,745525	3,3615	76,0068	-0,827	78,114	0	1008,32	5,5	7,6	7,5	1	1	1	1	1	1	1	1	1	0	1	-71,881607	272,975437	242,949285	0
15.01.2021	01:24:28	0	0	4,745525	3,50325	70,8372	-0,825	78,107	0	1008,28	5,4	7,6	7,5	1	1	1	1	1	1	1	1	1	0	1	-71,317829	272,863167	242,995441	0
15.01.2021	01:24:29	0	0	2,937706	3,42675	63,954	-0,828	78,101	0	1008,22	5,4	7,6	7,5	1	1	1	1	1	1	1	1	1	0	1	-68,569415	272,943092	246,112284	0
15.01.2021	01:24:30	0	0	5,084492	3,23775	71,9784	-0,836	78,107	0	1008,2	5,5	7,6	7,5	1	1	1	1	1	1	1	1	1	0	1	-66,666667	273,013478	248,339754	0
15.01.2021	01:24:31	0	0	3,728627	3,26325	75,24	-0,83	78,119	0	1008,3	5,5	7,6	7,5	1	1	1	1	1	1	1	1	1	0	1	-72,515856	272,972622	242,30205	0
15.01.2021	01:24:32	0	0	4,293571	3,363	74,1708	-0,828	78,118	0	1008,34	5,4	7,6	7,5	1	1	1	1	1	1	1	1	1	0	1	-76,53277	273,010657	238,460635	0
15.01.2021	01:24:33	0	0	5,310469	3,49425	79,758	-0,833	78,107	0	1008,2	5,5	7,6	7,5	1	1	1	1	1	1	1	1	1	0	1	-69,203665	272,929046	245,413264	0
15.01.2021	01:24:34	0	0	3,841616	3,5295	68,0292	-0,831	78,114	0	1008,36	5,5	7,6	7,5	1	1	1	1	1	1	1	1	1	0	1	-71,740662	273,003608	243,220211	0
15.01.2021	01:24:35	0	0	5,310469	3,558	63,8604	-0,831	78,102	0	1008,08	5,5	7,6	7,5	1	1	1	1	1	1	1	1	1	0	1	-73,643411	272,957148	241,103117	0
15.01.2021	01:24:36	0	0	3,050695	3,6225	65,8296	-0,832	78,092	0	1008,22	5,4	7,6	7,5	1	1	1	1	1	1	1	1	1	0	1	-72,586328	273,02053	242,452644	0
15.01.2021	01:24:37	0	0	4,632537	3,66225	58,8564	-0,831	78,08	0	1008,18	5,4	7,6	7,5	1	1	1	1	1	1	1	1	1	0	1	-70,824524	272,982476	244,038841	0
15.01.2021	01:24:38	0	0	4,067593	3,53175	75,258	-0,83	78,078	0	1008,28	5,4	7,6	7,5	1	1	1	1	1	1	1	1	1	0	1	-73,713883	273,006427	241,260001	0
15.01.2021	01:24:39	0	0	2,824718	3,402	69,174	-0,834	78,09	0	1008,1	5,4	7,6	7,5	1	1	1	1	1	1	1	1	1	0	1	-70,260747	272,853374	244,007406	0
15.01.2021	01:24:40	0	0	3,728627	3,27525	60,246	-0,832	78,104	0	1008,32	5,4	7,6	7,5	1	1	1	1	1	1	1	1	1	0	1	-77,942213	272,906593	236,571201	0
15.01.2021	01:24:41	0	0	3,841616	3,17325	69,1668	-0,829	78,131	0	1008,36	5,5	7,6	7,5	1	1	1	1	1	1	1	1	1	0	1	-70,68358	272,824027	243,449388	0
15.01.2021	01:24:42	0	0	4,632537	3,00975	65,8368	-0,835	78,128	0	1008,2	5,5	7,6	7,5	1	1	1	1	1	1	1	1	1	0	1	-72,727273	272,968401	242,07116	0
15.01.2021	01:24:43	0	0	2,711729	2,79525	68,418	-0,835	78,141	0	1008,32	5,5	7,6	7,5	1	1	1	1	1	1	1	1	1	0	1	-72,30444	273,002198	242,649929	0
15.01.2021	01:24:44	0	0	3,276672	2,69925	74,9232	-0,831	78,158	0	1008,24	5,5	7,6	7,5	1	1	1	1	1	1	1	1	1	0	1	-69,767442	272,905191	244,739507	0
15.01.2021	01:24:45	0	0	4,745525	2,84175	82,9728	-0,837	78,16	0	1008,18	5,5	7,6	7,5	1	1	1	1	1	1	1	1	1	0	1	-69,344609	273,02053	245,694364	0
15.01.2021	01:24:46	0	0	4,632537	3,0315	78,6564	-0,832	78,135	0	1008,08	5,4	7,6	7,5	1	1	1	1	1	1	1	1	1	0	1	-73,009161	272,961367	241,756827	0
15.01.2021	01:24:47	0	0	4,745525	2,99625	80,9244	-0,835	78,153	0	1008,34	5,5	7,6	7,5	1	1	1	1	1	1	1	1	1	0	1	-76,109937	272,950119	238,60417	0
15.01.2021	01:24:48	0	0	4,745554	2,94525	80,91	-0,837	78,139	0	1008,3	5,5	7,6	7,4	1	1	1	1	1	1	1	1	1	0	1	-74,207188	273,002198	240,74718	0
15.01.2021	01:24:49	0	0	4,745525	2,87475	81,9756	-0,815	78,146	0	1008,34	5,5	7,6	7,5	1	1	1	1	1	1	1	1	1	0	1	-75,052854	272,865965	239,273313	0
15.01.2021	01:24:50	0	0	3,502671	2,976	69,4728	-0,829	78,139	0	1008,28	5,5	7,6	7,4	1	1	1	1	1	1	1	1	1	0	1	-73,643411	273,005018	241,323967	0
15.01.2021	01:24:51	0	0	4,745525	3,20925	64,2528	-0,836	78,12	0	1008,2	5,5	7,6	7,5	1	1	1	1	1	1	1	1	1	0	1	-72,163495	272,934663	242,479334	0
15.01.2021	01:24:52	0	0	4,858514	3,372	73,0728	-0,84	78,117	0	1008,3	5,5	7,6	7,5	1	1	1	1	1	1	1	1	1	0	1	-69,767442	272,829613	244,391257	0
15.01.2021	01:24:53	0	0	4,971503	3,48375	74,5452	-0,833	78,105	0	1008,26	5,5	7,6	7,5	1	1	1	1	1	1	1	1	1	0	1	-70,190275	272,988109	244,69908	0
15.01.2021	01:24:54	0	0	4,632537	3,3555	73,08	-0,837	78,094	0	1008,28	5,5	7,6	7,5	1	1	1	1	1	1	1	1	1	0	1	-67,159972	272,945902	247,534689	0
15.01.2021	01:24:55	0	0	4,067593	3,08475	77,5944	-0,837	78,08	0	1008,3	5,5	7,6	7,5	1	1	1	1	1	1	1	1	1	0	1	-73,431994	273,000789	241,51587	0
15.01.2021	01:24:56	0	0	2,824718	3,03675	81,9756	-0,839	78,05	0	1008,22	5,5	7,6	7,5	1	1	1	1	1	1	1	1	1	0	1	-72,656801	272,945902	242,03786	0
15.01.2021	01:24:57	0	0	3,050695	2,81625	86,67	-0,835	78,051	0	1008,26	5,4	7,6	7,5	1	1	1	1	1	1	1	1	1	0	1	-68,217054	272,989517	246,678799	0
15.01.2021	01:24:58	0	0	4,745525	2,48025	83,4444	-0,845	78,03	0	1008,26	5,5	7,6	7,5	1	1	1	1	1	1	1	1	1	0	1	-68,357999	272,856171	245,923043	0
15.01.2021	01:24:59	0	0	4,971503	2,3235	80,91	-0,84	78,028	0	1008,18	5,5	7,6	7,5	1	1	1	1	1	1	1	1	1	0	1	-71,881607	272,877164	242,496166	0
15.01.2021	01:25:00	0	0	4,180582	2,3025	80,5356	-0,848	78,005	0	1008,18	5,5	7,6	7,5	1	1	1	1	1	1	1	1	1	0	1	-70,049331	272,891173	244,393002	0
15.01.2021	01:25:01	0	0	3,954605	2,3325	77,2272	-0,84	77,979	0	1008,22	5,5	7,6	7,5	1	1	1	1	1	1	1	1	1	0	1	-73,361522	272,989517	241,534331	0
15.01.2021	01:25:02	0	0	3,954605	2,3325	77,2272	-0,84	77,979	0	1008,22	5,5	7,6	7,5	1	1	1	1	1	1	1	1	1	0	1	-73,361522	272,989517	241,534331	0
15.01.2021	01:25:03	0	0	4,632537	2,3745	85,9068	-0,841	77,972	0	1008,38	5,4	7,6	7,5	1	1	1	1	1	1	1	1	1	0	1	-73,009161	272,983884	241,860701	0
15.01.2021	01:25:04	0	0	5,310469	2,2875	74,1528	-0,849	77,958	0	1008,26	5,5	7,6	7,5	1	1	1	1	1	1	1	1	1	0	1	-70,68358	272,926238	243,920401	0
15.01.2021	01:25:05	0	0	3,954628	2,2755	77,9544	-0,845	77,956	0	1008,16	5,5	7,6	7,4	1	1	1	1	1	1	1	1	1	0	1	-71,952079	272,818442	242,155168	0
15.01.2021	01:25:06	0	0	3,050713	2,24625	67,7808	-0,847	77,941	0	1008,2	5,5	7,7	7,4	1	1	1	1	1	1	1	1	1	0	1	-69,837914	272,920623	244,740179	0
15.01.2021	01:25:07	0	0	4,519548	2,2065	88,1424	-0,843	77,933	0	1008,4	5,4	7,7	7,5	1	1	1	1	1	1	1	1	1	0	1	-72,30444	272,931854	242,325438	0
15.01.2021	01:25:08	0	0	3,728649	2,1015	86,6808	-0,842	77,929	0	1008,36	5,5	7,6	7,4	1	1	1	1	1	1	1	1	1	0	1	-71,106413	272,976845	243,730973	0
15.01.2021	01:25:09	0	0	4,632537	2,06475	75,9852	-0,849	77,92	0	1008,22	5,4	7,6	7,5	1	1	1	1	1	1	1	1	1	0	1	-74,136716	272,874364	240,228152	0
15.01.2021	01:25:10	0	0	5,310501	2,0895	74,9304	-0,847	77,891	0	1008,2	5,5	7,6	7,4	1	1	1	1	1	1	1	1	1	0	1	-70,542636	272,843587	243,680428	0
15.01.2021	01:25:11	0	0	4,519548	2,073	81,5688	-0,848	77,893	0	1008,24	5,4	7,6	7,5	1	1	1	1	1	1	1	1	1	0	1	-72,374912	272,954336	242,358646	0
15.01.2021	01:25:12	0	0	4,519575	2,0445	82,9584	-0,852	77,88	0	1008,44	5,4	7,6	7,4	1	1	1	1	1	1	1	1	1	0	1	-68,992248	272,92343	245,598788	0
15.01.2021	01:25:13	0	0	2,824734	2,23875	79,3908	-0,855	77,875	0	1008,3	5,4	7,7	7,4	1	1	1	1	1	1	1	1	1	0	1	-70,190275	272,985292	244,686084	0
15.01.2021	01:25:14	0	0	4,971503	2,47575	81,954	-0,851	77,857	0	1008,28	5,4	7,6	7,5	1	1	1	1	1	1	1	1	1	0	1	-70,894996	272,966994	243,896946	0
15.01.2021	01:25:15	0	0	3,841639	2,79375	77,9508	-0,849	77,847	0	1008,26	5,5	7,6	7,4	1	1	1	1	1	1	1	1	1	0	1	-68,357999	272,936068	246,291308	0
15.01.2021	01:25:16	0	0	4,858514	3,04725	78,3792	-0,854	77,826	0	1008,3	5,5	7,6	7,5	1	1	1	1	1	1	1	1	1	0	1	-64,975335	272,824027	249,157634	0
15.01.2021	01:25:17	0	0	4,858514	2,964	71,586	-0,849	77,822	0	1008,26	5,5	7,6	7,5	1	1	1	1	1	1	1	1	1	0	1	-68,357999	272,853374	245,910155	0
15.01.2021	01:25:18	0	0	2,372777	2,9205	80,5212	-0,854	77,786	0	1008,28	5,4	7,6	7,4	1	1	1	1	1	1	1	1	1	0	1	-73,854827	272,807277	240,201005	0
15.01.2021	01:25:19	0	0	2,485766	2,90025	80,91	-0,854	77,767	0	1008,28	5,4	7,6	7,4	1	1	1	1	1	1	1	1	1	0	1	-71,388302	272,944497	243,299878	0
15.01.2021	01:25:20	0	0	3,61566	3,039	69,156	-0,859	77,776	0	1008,3	5,4	7,7	7,4	1	1	1	1	1	1	1	1	1	0	1	-68,357999	272,978252	246,485881	0
15.01.2021	01:25:21	0	0	3,389681	3,08775	69,4656	-0,859	77,762	0	1008,22	5,4	7,6	7,4	1	1	1	1	1	1	1	1	1	0	1	-72,797745	272,804487	241,245239	0
15.01.2021	01:25:22	0	0	2,59874	3,549	69,1524	-0,863	77,743	0	1008,26	5,4	7,6	7,5	1	1	1	1	1	1	1	1	1	0	1	-69,556025	272,93045	245,067377	0
15.01.2021	01:25:23	0	0	4,858543	4,266	55,0836	-0,859	77,73	0	1008,28	5,4	7,6	7,4	1	1	1	1	1	1	1	1	1	0	1	-73,572939	272,807277	240,482893	0
15.01.2021	01:25:24	0	0	2,824734	4,221	88,9632	-0,864	77,718	0	1008,14	5,4	7,6	7,4	1	1	1	1	1	1	1	1	1	0	1	-67,582805	272,902386	246,911216	0
15.01.2021	01:25:25	0	0	2,937724	4,0785	73,7676	-0,866	77,705	0	1008,12	5,5	7,6	7,4	1	1	1	1	1	1	1	1	1	0	1	-72,515856	272,992335	242,392997	0
15.01.2021	01:25:26	0	0	4,745554	4,09575	83,7324	-0,859	77,706	0	1008,26	5,5	7,6	7,4	1	1	1	1	1	1	1	1	1	0	1	-70,260747	272,950119	244,45336	0
15.01.2021	01:25:27	0	0	2,711745	4,1385	67,6692	-0,869	77,704	0	1008,16	5,4	7,6	7,4	1	1	1	1	1	1	1	1	1	0	1	-72,093023	272,938877	242,569239	0
15.01.2021	01:25:28	0	0	3,954628	4,29075	70,8264	-0,87	77,715	0	1008,18	5,4	7,6	7,4	1	1	1	1	1	1	1	1	1	0	1	-71,458774	272,814254	242,629188	0
15.01.2021	01:25:29	0	0	5,084522	4,3185	72,6732	-0,868	77,741	0	1008,28	5,4	7,6	7,4	1	1	1	1	1	1	1	1	1	0	1	-73,502467	272,886969	240,920492	0
15.01.2021	01:25:30	0	0	3,728649	4,2585	65,8296	-0,862	77,765	0	1008,2	5,4	7,7	7,4	1	1	1	1	1	1	1	1	1	0	1	-70,401691	272,983884	244,468171	0
15.01.2021	01:25:31	0	0	3,728649	4,353	70,8552	-0,866	77,781	0	1008,32	5,4	7,6	7,4	1	1	1	1	1	1	1	1	1	0	1	-71,458774	272,861767	242,84805	0
15.01.2021	01:25:32	0	0	4,406586	4,38225	74,1744	-0,867	77,801	0	1008,3	5,5	7,7	7,4	1	1	1	1	1	1	1	1	1	0	1	-68,639887	272,835201	245,544551	0
15.01.2021	01:25:33	0	0	4,406586	4,66125	70,6104	-0,873	77,811	0	1008,2	5,4	7,7	7,4	1	1	1	1	1	1	1	1	1	0	1	-69,908386	272,981068	244,948484	0
15.01.2021	01:25:34	0	0	5,084522	4,54725	67,6656	-0,865	77,83	0	1008,26	5,5	7,7	7,4	1	1	1	1	1	1	1	1	1	0	1	-73,220578	272,940282	241,448163	0
15.01.2021	01:25:35	0	0	2,598756	4,73325	82,3536	-0,872	77,833	0	1008,3	5,4	7,6	7,4	1	1	1	1	1	1	1	1	1	0	1	-68,005638	272,808672	246,056619	0
15.01.2021	01:25:36	0	0	2,937724	4,9455	82,584	-0,867	77,849	0	1008,12	5,4	7,7	7,4	1	1	1	1	1	1	1	1	1	0	1	-71,811135	272,889771	242,624739	0
15.01.2021	01:25:37	0	0	2,598756	4,8015	80,1432	-0,874	77,853	0	1008,18	5,4	7,7	7,4	1	1	1	1	1	1	1	1	1	0	1	-73,29105	272,968401	241,507383	0
15.01.2021	01:25:38	0	0	2,711745	4,74075	86,2812	-0,873	77,868	0	1008,3	5,4	7,7	7,4	1	1	1	1	1	1	1	1	1	0	1	-70,824524	272,955742	243,915519	0
15.01.2021	01:25:39	0	0	4,632537	4,848	84,0312	-0,873	77,866	0	1008,24	5,4	7,7	7,5	1	1	1	1	1	1	1	1	1	0	1	-71,247357	272,851976	243,014353	0
15.01.2021	01:25:40	0	0	4,858543	4,64775	82,3608	-0,872	77,903	0	1008,28	5,4	7,7	7,4	1	1	1	1	1	1	1	1	1	0	1	-73,009161	272,993743	241,906192	0
15.01.2021	01:25:41	0	0	4,406586	4,3695	79,0272	-0,879	77,926	0	1008,06	5,4	7,6	7,4	1	1	1	1	1	1	1	1	1	0	1	-72,163495	272,898181	242,311138	0
15.01.2021	01:25:42	0	0	4,745554	4,12425	90,5148	-0,874	77,959	0	1008,22	5,4	7,6	7,4	1	1	1	1	1	1	1	1	1	0	1	-71,67019	272,962774	243,102286	0
15.01.2021	01:25:43	0	0	4,406586	4,26225	69,8436	-0,879	77,985	0	1008,04	5,4	7,7	7,4	1	1	1	1	1	1	1	1	1	0	1	-71,035941	272,884167	243,374105	0
15.01.2021	01:25:44	0	0	3,276672	4,10175	68,4	-0,879	78,007	0	1008,28	5,4	7,4	7,5	1	1	1	1	1	1	1	1	1	0	1	-74,982382	272,975437	239,84851	0
15.01.2021	01:25:45	0	0	5,53648	3,89175	70,8156	-0,873	78,053	0	1008,22	5,4	7,7	7,4	1	1	1	1	1	1	1	1	1	0	1	-74,489077	272,989517	240,406777	0
15.01.2021	01:25:46	0	0	2,937724	3,69825	74,5488	-0,878	78,108	0	1008,1	5,4	7,7	7,4	1	1	1	1	1	1	1	1	1	0	1	-73,9253	272,945902	240,769361	0
15.01.2021	01:25:47	0	0	4,293596	3,594	75,9888	-0,878	78,151	0	1008,32	5,4	7,7	7,4	1	1	1	1	1	1	1	1	1	0	1	-68,710359	272,817046	245,390459	0
15.01.2021	01:25:48	0	0	4,180607	3,62475	84,8016	-0,878	78,197	0	1008,24	5,5	7,7	7,4	1	1	1	1	1	1	1	1	1	0	1	-68,780832	272,910801	245,75198	0
15.01.2021	01:25:49	0	0	3,163703	3,48225	77,2308	-0,877	78,268	0	1008,24	5,5	7,7	7,4	1	1	1	1	1	1	1	1	1	0	1	-73,854827	272,969808	240,950096	0
15.01.2021	01:25:50	0	0	2,824734	3,1995	83,3472	-0,872	78,33	0	1008,32	5,4	7,7	7,4	1	1	1	1	1	1	1	1	1	0	1	-71,388302	272,814254	242,699661	0
15.01.2021	01:25:51	0	0	2,598756	3,27675	74,1636	-0,88	78,377	0	1008,18	5,4	7,6	7,4	1	1	1	1	1	1	1	1	1	0	1	-71,952079	272,959961	242,807422	0
15.01.2021	01:25:52	0	0	4,293596	3,42825	74,9268	-0,874	78,449	0	1008,38	5,4	7,7	7,4	1	1	1	1	1	1	1	1	1	0	1	-71,458774	272,825423	242,680626	0
15.01.2021	01:25:53	0	0	2,485766	3,462	83,376	-0,887	78,481	0	1008,22	5,5	7,7	7,4	1	1	1	1	1	1	1	1	1	0	1	-67,371388	272,920623	247,206705	0
15.01.2021	01:25:54	0	0	4,293596	3,51825	78,2892	-0,881	78,519	0	1008,3	5,5	7,7	7,4	1	1	1	1	1	1	1	1	1	0	1	-75,334743	272,817046	238,766075	0
15.01.2021	01:25:55	0	0	2,824734	3,5175	84,816	-0,877	78,548	0	1008,44	5,4	7,7	7,4	1	1	1	1	1	1	1	1	1	0	1	-67,44186	272,861767	246,864963	0
15.01.2021	01:25:56	0	0	2,824734	3,54825	83,4516	-0,872	78,585	0	1008,14	5,5	7,7	7,4	1	1	1	1	1	1	1	1	1	0	1	-69,908386	272,882766	244,495204	0
15.01.2021	01:25:57	0	0	3,050713	3,69	80,1504	-0,875	78,612	0	1008,34	5,4	7,7	7,4	1	1	1	1	1	1	1	1	1	0	1	-71,106413	272,829613	243,052285	0
15.01.2021	01:25:58	0	0	4,858543	3,65175	81,5688	-0,875	78,634	0	1008,3	5,4	7,4	7,4	1	1	1	1	1	1	1	1	1	0	1	-73,079634	272,902386	241,414387	0
15.01.2021	01:25:59	0	0	4,519575	3,47775	86,3028	-0,875	78,647	0	1008,24	5,5	7,7	7,4	1	1	1	1	1	1	1	1	1	0	1	-69,69697	273,003608	245,263903	0
15.01.2021	01:26:00	0	0	4,745554	3,168	82,9872	-0,877	78,659	0	1008,12	5,4	7,7	7,4	1	1	1	1	1	1	1	1	1	0	1	-73,995772	273,009247	240,991125	0
15.01.2021	01:26:01	0	0	4,293596	3,0825	85,1724	-0,878	78,663	0	1008,22	5,4	7,7	7,4	1	1	1	1	1	1	1	1	1	0	1	-71,881607	272,989517	243,014247	0
15.01.2021	01:26:02	0	0	4,293596	3,0825	85,1724	-0,878	78,663	0	1008,22	5,4	7,7	7,4	1	1	1	1	1	1	1	1	1	0	1	-71,881607	272,989517	243,014247	0
15.01.2021	01:26:03	0	0	5,197511	2,99925	87,75	-0,873	78,661	0	1008,22	5,5	7,7	7,4	1	1	1	1	1	1	1	1	1	0	1	-71,740662	272,99938	243,200699	0
15.01.2021	01:26:04	0	0	3,163703	2,9025	80,532	-0,876	78,656	0	1008,1	5,4	7,4	7,4	1	1	1	1	1	1	1	1	1	0	1	-71,811135	272,85757	242,476351	0
15.01.2021	01:26:05	0	0	2,937724	2,91	82,3788	-0,869	78,662	0	1008,18	5,5	7,4	7,4	1	1	1	1	1	1	1	1	1	0	1	-72,797745	272,903789	241,702739	0
15.01.2021	01:26:06	0	0	4,293596	2,8515	81,2088	-0,877	78,636	0	1008,14	5,4	7,7	7,4	1	1	1	1	1	1	1	1	1	0	1	-73,361522	272,891173	241,08081	0
15.01.2021	01:26:07	0	0	4,745554	2,889	70,2144	-0,875	78,631	0	1008,16	5,5	7,7	7,4	1	1	1	1	1	1	1	1	1	0	1	-69,344609	272,85757	244,942877	0
15.01.2021	01:26:08	0	0	3,502671	2,99175	62,7984	-0,873	78,607	0	1008,22	5,4	7,7	7,4	1	1	1	1	1	1	1	1	1	0	1	-74,348132	273,021941	240,697352	0
15.01.2021	01:26:09	0	0	3,050713	2,91375	73,062	-0,868	78,582	0	1008,24	5,4	7,7	7,4	1	1	1	1	1	1	1	1	1	0	1	-70,68358	273,024763	244,374931	0
15.01.2021	01:26:10	0	0	3,61566	2,72775	64,62	-0,864	78,568	0	1008,3	5,4	7,7	7,4	1	1	1	1	1	1	1	1	1	0	1	-66,948555	272,905191	247,558393	0
15.01.2021	01:26:11	0	0	4,745554	2,47125	66,9384	-0,868	78,576	0	1008,24	5,5	7,7	7,4	1	1	1	1	1	1	1	1	1	0	1	-71,529246	273,016298	243,490194	0
15.01.2021	01:26:12	0	0	3,502671	2,364	52,1136	-0,867	78,533	0	1008,2	5,4	7,4	7,4	1	1	1	1	1	1	1	1	1	0	1	-69,978858	272,895377	244,482853	0
15.01.2021	01:26:13	0	0	2,824734	2,50725	72,6768	-0,871	78,537	0	1008,28	5,5	7,6	7,4	1	1	1	1	1	1	1	1	1	0	1	-72,515856	273,007837	242,464534	0
15.01.2021	01:26:14	0	0	4,067618	2,6175	69,462	-0,869	78,517	0	1008,32	5,4	7,7	7,4	1	1	1	1	1	1	1	1	1	0	1	-73,572939	273,033232	241,524664	0
15.01.2021	01:26:15	0	0	4,858543	2,8515	71,6292	-0,865	78,507	0	1008,22	5,4	7,7	7,4	1	1	1	1	1	1	1	1	1	0	1	-68,921776	272,913607	245,62397	0
15.01.2021	01:26:16	0	0	2,711745	3,006	71,316	-0,864	78,49	0	1008,28	5,4	7,4	7,4	1	1	1	1	1	1	1	1	1	0	1	-75,616631	272,871564	238,735334	0
15.01.2021	01:26:17	0	0	4,745554	3,0495	65,0664	-0,872	78,472	0	1008,14	5,5	7,4	7,4	1	1	1	1	1	1	1	1	1	0	1	-73,643411	272,933259	240,992943	0
15.01.2021	01:26:18	0	0	3,841639	3,0465	54,1044	-0,86	78,455	0	1008,3	5,5	7,7	7,4	1	1	1	1	1	1	1	1	1	0	1	-68,569415	273,05018	246,606433	0
15.01.2021	01:26:19	0	0	4,858543	2,98725	64,2348	-0,869	78,428	0	1008,16	5,4	7,7	7,4	1	1	1	1	1	1	1	1	1	0	1	-72,163495	272,966994	242,628447	0
15.01.2021	01:26:20	0	0	5,197511	3,0315	46,2384	-0,863	78,42	0	1008,34	5,5	7,7	7,4	1	1	1	1	1	1	1	1	1	0	1	-71,952079	272,907996	242,5678	0
15.01.2021	01:26:21	0	0	5,084522	3,19875	46,9908	-0,864	78,376	0	1008,26	5,5	7,7	7,4	1	1	1	1	1	1	1	1	1	0	1	-72,656801	272,875764	241,71452	0
15.01.2021	01:26:22	0	0	2,598756	3,063	50,2884	-0,864	78,351	0	1008,22	5,5	7,7	7,4	1	1	1	1	1	1	1	1	1	0	1	-72,515856	272,912204	242,023422	0
15.01.2021	01:26:23	0	0	3,728649	2,88375	69,4836	-0,865	78,337	0	1008,28	5,5	7,7	7,4	1	1	1	1	1	1	1	1	1	0	1	-72,022551	272,881366	242,374584	0
15.01.2021	01:26:24	0	0	4,519575	2,7555	62,4204	-0,861	78,302	0	1008,28	5,4	7,7	7,4	1	1	1	1	1	1	1	1	1	0	1	-74,348132	272,937472	240,307651	0
15.01.2021	01:26:25	0	0	3,728649	2,664	59,1192	-0,865	78,287	0	1008,32	5,5	7,7	7,4	1	1	1	1	1	1	1	1	1	0	1	-71,740662	272,870164	242,604852	0
15.01.2021	01:26:26	0	0	4,745554	2,63925	80,154	-0,86	78,246	0	1008,24	5,5	7,7	7,4	1	1	1	1	1	1	1	1	1	0	1	-70,613108	273,009247	244,373789	0
15.01.2021	01:26:27	0	0	4,519575	2,67	82,5912	-0,871	78,213	0	1008,32	5,4	7,7	7,4	1	1	1	1	1	1	1	1	1	0	1	-71,317829	273,024763	243,740681	0
15.01.2021	01:26:28	0	0	3,841639	2,6535	71,2332	-0,869	78,208	0	1008,18	5,5	7,7	7,4	1	1	1	1	1	1	1	1	1	0	1	-68,710359	273,016298	246,309081	0
15.01.2021	01:26:29	0	0	4,745554	2,748	73,7568	-0,865	78,151	0	1008,2	5,5	7,6	7,4	1	1	1	1	1	1	1	1	1	0	1	-73,9253	272,990926	240,977053	0
15.01.2021	01:26:30	0	0	3,163703	2,69475	82,98	-0,862	78,167	0	1008,3	5,5	7,7	7,4	1	1	1	1	1	1	1	1	1	0	1	-72,586328	273,03888	242,537347	0
15.01.2021	01:26:31	0	0	3,502671	2,709	91,1628	-0,869	78,156	0	1008,12	5,5	7,7	7,4	1	1	1	1	1	1	1	1	1	0	1	-71,599718	272,88837	242,829698	0
15.01.2021	01:26:32	0	0	2,937724	2,688	88,9596	-0,865	78,173	0	1008,12	5,5	7,7	7,4	1	1	1	1	1	1	1	1	1	0	1	-71,599718	272,997971	243,33514	0
15.01.2021	01:26:33	0	0	3,050713	2,82075	86,3028	-0,868	78,17	0	1008,14	5,5	7,7	7,4	1	1	1	1	1	1	1	1	1	0	1	-74,207188	272,865965	240,118979	0
15.01.2021	01:26:34	0	0	5,084522	2,901	88,578	-0,862	78,177	0	1008,24	5,5	7,7	7,4	1	1	1	1	1	1	1	1	1	0	1	-72,868217	272,988109	242,021138	0
15.01.2021	01:26:35	0	0	3,163703	2,87625	93,7224	-0,868	78,194	0	1008,36	5,5	7,7	7,4	1	1	1	1	1	1	1	1	1	0	1	-75,968992	273,043117	239,174244	0
15.01.2021	01:26:36	0	0	5,310501	2,7915	90,7776	-0,863	78,19	0	1008,32	5,4	7,7	7,4	1	1	1	1	1	1	1	1	1	0	1	-73,220578	272,985292	241,655781	0
15.01.2021	01:26:37	0	0	4,067618	2,6745	85,5396	-0,861	78,203	0	1008,32	5,5	7,4	7,4	1	1	1	1	1	1	1	1	1	0	1	-76,180409	273,030409	238,904161	0
15.01.2021	01:26:38	0	0	4,971533	2,601	96,2208	-0,87	78,197	0	1008,36	5,5	7,4	7,4	1	1	1	1	1	1	1	1	1	0	1	-68,428471	272,936068	246,220836	0
15.01.2021	01:26:39	0	0	3,163703	2,53125	88,1244	-0,867	78,207	0	1008,24	5,4	7,7	7,4	1	1	1	1	1	1	1	1	1	0	1	-71,952079	272,858969	242,341852	0
15.01.2021	01:26:40	0	0	5,536446	2,6595	72,6912	-0,863	78,203	0	1008,2	5,4	7,7	7,5	1	1	1	1	1	1	1	1	1	0	1	-67,300916	272,933259	247,335437	0
15.01.2021	01:26:41	0	0	4,632565	3,18075	89,694	-0,864	78,194	0	1008,22	5,4	7,7	7,4	1	1	1	1	1	1	1	1	1	0	1	-70,401691	273,03182	244,689394	0
15.01.2021	01:26:42	0	0	4,406586	3,47775	80,6076	-0,864	78,199	0	1008,16	5,4	7,7	7,4	1	1	1	1	1	1	1	1	1	0	1	-73,713883	272,954336	241,019675	0
15.01.2021	01:26:43	0	0	3,61566	3,5865	75,6252	-0,865	78,177	0	1008,28	5,5	7,6	7,4	1	1	1	1	1	1	1	1	1	0	1	-72,586328	272,861767	241,720495	0
15.01.2021	01:26:44	0	0	4,519575	3,6195	71,6184	-0,864	78,176	0	1008,34	5,5	7,7	7,4	1	1	1	1	1	1	1	1	1	0	1	-74,418605	272,985292	240,457754	0
15.01.2021	01:26:45	0	0	4,858543	3,82725	66,9168	-0,864	78,155	0	1008,28	5,5	7,7	7,4	1	1	1	1	1	1	1	1	1	0	1	-71,247357	273,026174	243,817667	0
15.01.2021	01:26:46	0	0	3,389681	3,9795	62,0388	-0,864	78,149	0	1008,32	5,5	7,4	7,4	1	1	1	1	1	1	1	1	1	0	1	-67,864693	272,889771	246,57118	0
15.01.2021	01:26:47	0	0	3,276692	3,88275	53,73	-0,869	78,143	0	1008,28	5,4	7,7	7,4	1	1	1	1	1	1	1	1	1	0	1	-68,780832	273,03182	246,310254	0
15.01.2021	01:26:48	0	0	4,519575	3,98925	70,6032	-0,865	78,133	0	1008,26	5,5	7,7	7,4	1	1	1	1	1	1	1	1	1	0	1	-71,952079	272,986701	242,930778	0
15.01.2021	01:26:49	0	0	3,050713	3,792	68,8176	-0,867	78,13	0	1008,4	5,5	7,7	7,4	1	1	1	1	1	1	1	1	1	0	1	-72,30444	273,01912	242,728022	0
15.01.2021	01:26:50	0	0	4,971533	3,54825	56,6712	-0,867	78,116	0	1008,18	5,5	7,7	7,4	1	1	1	1	1	1	1	1	1	0	1	-75,052854	272,937472	239,60293	0
15.01.2021	01:26:51	0	0	2,598756	3,39225	66,2364	-0,874	78,102	0	1008,2	5,5	7,7	7,4	1	1	1	1	1	1	1	1	1	0	1	-71,740662	272,85757	242,546824	0
15.01.2021	01:26:52	0	0	3,841639	3,15825	56,286	-0,867	78,102	0	1008,32	5,5	7,7	7,4	1	1	1	1	1	1	1	1	1	0	1	-74,982382	272,860368	239,317995	0
15.01.2021	01:26:53	0	0	4,858543	2,9805	69,8436	-0,872	78,09	0	1008,2	5,4	7,7	7,4	1	1	1	1	1	1	1	1	1	0	1	-69,203665	272,971215	245,60775	0
15.01.2021	01:26:54	0	0	2,824734	2,81025	68,4036	-0,87	78,069	0	1008,22	5,4	7,7	7,4	1	1	1	1	1	1	1	1	1	0	1	-75,193798	272,864566	239,12592	0
15.01.2021	01:26:55	0	0	5,197511	2,895	82,3608	-0,869	78,067	0	1008,26	5,4	7,4	7,4	1	1	1	1	1	1	1	1	1	0	1	-71,035941	272,986701	243,846916	0
15.01.2021	01:26:56	0	0	3,841639	2,87625	75,6324	-0,874	78,048	0	1008,3	5,4	7,7	7,4	1	1	1	1	1	1	1	1	1	0	1	-73,995772	272,851976	240,265939	0
15.01.2021	01:26:57	0	0	3,276692	2,88975	82,9944	-0,871	78,015	0	1008,28	5,4	7,7	7,4	1	1	1	1	1	1	1	1	1	0	1	-73,079634	272,976845	241,757752	0
15.01.2021	01:26:58	0	0	4,858543	2,7855	91,1592	-0,873	77,997	0	1008,18	5,5	7,7	7,4	1	1	1	1	1	1	1	1	1	0	1	-68,005638	273,021941	247,039847	0
15.01.2021	01:26:59	0	0	4,519575	2,64675	76,8312	-0,874	77,983	0	1008,3	5,5	7,7	7,4	1	1	1	1	1	1	1	1	1	0	1	-73,643411	272,982476	241,219955	0
15.01.2021	01:27:00	0	0	4,971533	2,658	78,2784	-0,876	78	0	1008,14	5,4	7,7	7,4	1	1	1	1	1	1	1	1	1	0	1	-72,022551	272,986701	242,860306	0
15.01.2021	01:27:01	0	0	4,406586	2,91975	70,5996	-0,876	78,024	0	1008,3	5,4	7,7	7,4	1	1	1	1	1	1	1	1	1	0	1	-70,754052	273,007837	244,226338	0
15.01.2021	01:27:02	0	0	4,406586	2,91975	70,5996	-0,876	78,024	0	1008,3	5,4	7,7	7,4	1	1	1	1	1	1	1	1	1	0	1	-70,754052	273,007837	244,226338	0
15.01.2021	01:27:03	0	0	3,050713	3,2055	75,3264	-0,876	78,038	0	1008,22	5,4	7,7	7,4	1	1	1	1	1	1	1	1	1	0	1	-68,287526	272,842189	245,929098	0
15.01.2021	01:27:04	0	0	3,276692	3,40275	75,2292	-0,873	78,074	0	1008,24	5,5	7,4	7,4	1	1	1	1	1	1	1	1	1	0	1	-71,317829	272,909398	243,208515	0
15.01.2021	01:27:05	0	0	2,598756	3,57225	76,8636	-0,878	78,099	0	1008,32	5,4	7,7	7,4	1	1	1	1	1	1	1	1	1	0	1	-70,894996	273,002198	244,059372	0
15.01.2021	01:27:06	0	0	3,276692	3,5385	72,288	-0,874	78,104	0	1008,26	5,4	7,7	7,4	1	1	1	1	1	1	1	1	1	0	1	-69,06272	272,895377	245,398991	0
15.01.2021	01:27:07	0	0	3,389681	3,42975	77,976	-0,872	78,119	0	1008,14	5,4	7,7	7,4	1	1	1	1	1	1	1	1	1	0	1	-74,841438	273,005018	240,12594	0
15.01.2021	01:27:08	0	0	4,519575	3,44325	80,9064	-0,873	78,143	0	1008,26	5,4	7,4	7,4	1	1	1	1	1	1	1	1	1	0	1	-71,881607	272,978252	242,962273	0
15.01.2021	01:27:09	0	0	3,050713	3,37425	77,2164	-0,875	78,156	0	1008,34	5,4	7,7	7,4	1	1	1	1	1	1	1	1	1	0	1	-70,824524	272,99938	244,116837	0
15.01.2021	01:27:10	0	0	4,180607	3,03975	71,2296	-0,875	78,167	0	1008,28	5,4	7,4	7,4	1	1	1	1	1	1	1	1	1	0	1	-68,498943	272,865965	245,827224	0
15.01.2021	01:27:11	0	0	4,406586	2,985	65,1204	-0,877	78,175	0	1008,22	5,4	7,7	7,4	1	1	1	1	1	1	1	1	1	0	1	-74,066244	272,997971	240,868614	0
15.01.2021	01:27:12	0	0	3,163703	3,0075	69,1596	-0,873	78,171	0	1008,32	5,4	7,4	7,4	1	1	1	1	1	1	1	1	1	0	1	-71,881607	272,865965	242,44456	0
15.01.2021	01:27:13	0	0	3,841639	2,9475	80,9208	-0,871	78,171	0	1008,3	5,4	7,7	7,4	1	1	1	1	1	1	1	1	1	0	1	-69,767442	272,858969	244,52649	0
15.01.2021	01:27:14	0	0	5,310501	2,90625	90,432	-0,876	78,153	0	1008,24	5,4	7,7	7,4	1	1	1	1	1	1	1	1	1	0	1	-70,260747	272,989517	244,635107	0
15.01.2021	01:27:15	0	0	4,293596	2,8905	85,536	-0,877	78,146	0	1008,3	5,4	7,4	7,4	1	1	1	1	1	1	1	1	1	0	1	-73,079634	272,943092	241,602066	0
15.01.2021	01:27:16	0	0	3,728649	2,9625	75,2292	-0,878	78,14	0	1008,3	5,5	7,7	7,4	1	1	1	1	1	1	1	1	1	0	1	-71,67019	272,844985	242,559313	0
15.01.2021	01:27:17	0	0	4,632565	3,015	81,2268	-0,881	78,124	0	1008,2	5,4	7,7	7,4	1	1	1	1	1	1	1	1	1	0	1	-71,458774	272,912204	243,080505	0
15.01.2021	01:27:18	0	0	3,050713	3,01875	78,2856	-0,875	78,127	0	1008,14	5,4	7,4	7,4	1	1	1	1	1	1	1	1	1	0	1	-72,093023	273,007837	242,887367	0
15.01.2021	01:27:19	0	0	4,632565	3,069	80,892	-0,878	78,095	0	1008,32	5,5	7,7	7,4	1	1	1	1	1	1	1	1	1	0	1	-72,163495	272,907996	242,356383	0
15.01.2021	01:27:20	0	0	4,745554	3,13125	83,3616	-0,88	78,097	0	1008,28	5,4	7,4	7,4	1	1	1	1	1	1	1	1	1	0	1	-69,837914	272,839394	244,365834	0
15.01.2021	01:27:21	0	0	4,180607	3,1365	84,0528	-0,879	78,086	0	1008,34	5,4	7,4	7,4	1	1	1	1	1	1	1	1	1	0	1	-66,032417	272,968401	248,766016	0
15.01.2021	01:27:22	0	0	3,954628	3,02925	78,0732	-0,877	78,082	0	1008,3	5,4	7,4	7,4	1	1	1	1	1	1	1	1	1	0	1	-73,784355	272,870164	240,56116	0
15.01.2021	01:27:23	0	0	4,858543	2,94525	78,6708	-0,88	78,069	0	1008,1	5,4	7,4	7,4	1	1	1	1	1	1	1	1	1	0	1	-67,300916	273,01912	247,731545	0
15.01.2021	01:27:24	0	0	3,502671	2,82	74,1528	-0,882	78,064	0	1008,36	5,4	7,4	7,4	1	1	1	1	1	1	1	1	1	0	1	-70,472163	272,934663	244,170666	0
15.01.2021	01:27:25	0	0	3,276692	2,90175	76,0068	-0,881	78,052	0	1008,28	5,4	7,7	7,4	1	1	1	1	1	1	1	1	1	0	1	-72,727273	273,030409	242,357297	0
15.01.2021	01:27:26	0	0	2,824734	2,8695	76,59	-0,882	78,043	0	1008,24	5,4	7,7	7,4	1	1	1	1	1	1	1	1	1	0	1	-70,049331	272,950119	244,664776	0
15.01.2021	01:27:27	0	0	3,728649	2,85375	88,578	-0,883	78,051	0	1008,3	5,4	7,7	7,4	1	1	1	1	1	1	1	1	1	0	1	-77,801268	272,99938	237,140093	0
15.01.2021	01:27:28	0	0	4,406586	2,8965	75,996	-0,879	78,057	0	1008,24	5,4	7,4	7,4	1	1	1	1	1	1	1	1	1	0	1	-69,978858	272,882766	244,424731	0
15.01.2021	01:27:29	0	0	3,841639	2,93025	79,0344	-0,882	78,07	0	1008,18	5,4	7,7	7,4	1	1	1	1	1	1	1	1	1	0	1	-72,30444	272,837996	241,892871	0
15.01.2021	01:27:30	0	0	4,971533	2,98275	72,2772	-0,881	78,087	0	1008,26	5,4	7,4	7,4	1	1	1	1	1	1	1	1	1	0	1	-74,91191	272,877164	239,465863	0
15.01.2021	01:27:31	0	0	4,293596	2,9535	70,5852	-0,882	78,099	0	1008,32	5,4	7,4	7,4	1	1	1	1	1	1	1	1	1	0	1	-68,780832	272,997971	246,154027	0
15.01.2021	01:27:32	0	0	2,824734	2,97225	80,1432	-0,885	78,101	0	1008,28	5,4	7,7	7,4	1	1	1	1	1	1	1	1	1	0	1	-67,935166	272,870164	246,410349	0
15.01.2021	01:27:33	0	0	3,841639	3,00825	76,0356	-0,885	78,126	0	1008,28	5,4	7,4	7,4	1	1	1	1	1	1	1	1	1	0	1	-73,572939	272,836599	240,617935	0
15.01.2021	01:27:34	0	0	3,728649	2,90625	86,6484	-0,882	78,127	0	1008,18	5,4	7,4	7,4	1	1	1	1	1	1	1	1	1	0	1	-71,106413	272,833804	243,071589	0
15.01.2021	01:27:35	0	0	2,711745	2,778	84,4056	-0,88	78,143	0	1008,3	5,4	7,4	7,4	1	1	1	1	1	1	1	1	1	0	1	-72,938689	272,88837	241,490727	0
15.01.2021	01:27:36	0	0	4,067618	2,661	87,3648	-0,884	78,144	0	1008	5,4	7,4	7,4	1	1	1	1	1	1	1	1	1	0	1	-72,445384	273,005018	242,521994	0
15.01.2021	01:27:37	0	0	2,824734	2,685	74,6388	-0,884	78,168	0	1008,24	5,4	7,4	7,4	1	1	1	1	1	1	1	1	1	0	1	-68,851304	272,902386	245,642717	0
15.01.2021	01:27:38	0	0	2,598756	2,70975	80,8884	-0,886	78,162	0	1008,14	5,4	7,4	7,4	1	1	1	1	1	1	1	1	1	0	1	-69,06272	272,993743	245,852633	0
15.01.2021	01:27:39	0	0	4,745554	2,69325	74,5344	-0,886	78,168	0	1008,36	5,4	7,7	7,4	1	1	1	1	1	1	1	1	1	0	1	-70,965469	272,954336	243,768089	0
15.01.2021	01:27:40	0	0	2,824734	2,7405	76,8096	-0,887	78,193	0	1008,18	5,4	7,4	7,4	1	1	1	1	1	1	1	1	1	0	1	-71,881607	272,83101	242,283526	0
15.01.2021	01:27:41	0	0	3,050713	2,79	66,9024	-0,894	78,184	0	1008,2	5,4	7,7	7,4	1	1	1	1	1	1	1	1	1	0	1	-71,881607	272,975437	242,949285	0
15.01.2021	01:27:42	0	0	2,711745	2,93475	67,2876	-0,884	78,197	0	1008,3	5,4	7,7	7,4	1	1	1	1	1	1	1	1	1	0	1	-74,27766	272,96418	240,501304	0
15.01.2021	01:27:43	0	0	4,406586	2,99475	90,7704	-0,884	78,181	0	1008,26	5,4	7,7	7,4	1	1	1	1	1	1	1	1	1	0	1	-73,713883	272,996561	241,214473	0
15.01.2021	01:27:44	0	0	5,084522	2,76375	75,9816	-0,886	78,184	0	1008,26	5,4	7,4	7,4	1	1	1	1	1	1	1	1	1	0	1	-71,458774	272,88837	242,970642	0
15.01.2021	01:27:45	0	0	2,711745	2,55675	77,9832	-0,884	78,153	0	1008,22	5,4	7,4	7,4	1	1	1	1	1	1	1	1	1	0	1	-74,136716	272,83101	240,028416	0
15.01.2021	01:27:46	0	0	2,937724	2,35875	82,9836	-0,889	78,137	0	1008,22	5,4	7,4	7,4	1	1	1	1	1	1	1	1	1	0	1	-67,723749	272,948713	246,983875	0
15.01.2021	01:27:47	0	0	2,711745	2,2875	84,8052	-0,889	78,124	0	1008,3	5,4	7,4	7,4	1	1	1	1	1	1	1	1	1	0	1	-71,67019	272,993743	243,245163	0
15.01.2021	01:27:48	0	0	2,937724	2,23275	90,0216	-0,892	78,113	0	1008,16	5,4	7,7	7,4	1	1	1	1	1	1	1	1	1	0	1	-69,203665	272,965587	245,581789	0
15.01.2021	01:27:49	0	0	4,745554	2,25225	82,584	-0,884	78,122	0	1008,3	5,4	7,4	7,4	1	1	1	1	1	1	1	1	1	0	1	-68,992248	272,843587	245,230816	0
15.01.2021	01:27:50	0	0	4,180607	2,298	81,2232	-0,886	78,095	0	1008,46	5,4	7,7	7,4	1	1	1	1	1	1	1	1	1	0	1	-70,754052	272,995152	244,167802	0
15.01.2021	01:27:51	0	0	3,61566	2,41575	80,9136	-0,883	78,092	0	1008,26	5,4	7,4	7,4	1	1	1	1	1	1	1	1	1	0	1	-71,176885	272,871564	243,17508	0
15.01.2021	01:27:52	0	0	2,824734	2,54775	84,4128	-0,888	78,079	0	1008,12	5,4	7,4	7,4	1	1	1	1	1	1	1	1	1	0	1	-67,44186	272,824027	246,691108	0
15.01.2021	01:27:53	0	0	2,711745	2,841	76,8348	-0,892	78,06	0	1008,2	5,4	7,4	7,4	1	1	1	1	1	1	1	1	1	0	1	-69,626498	272,941687	245,048722	0
15.01.2021	01:27:54	0	0	2,824734	2,9985	78,6492	-0,893	78,039	0	1008,24	5,4	7,4	7,4	1	1	1	1	1	1	1	1	1	0	1	-68,992248	272,824027	245,14072	0
15.01.2021	01:27:55	0	0	4,858543	3,0825	83,3832	-0,888	78,033	0	1008,32	5,4	7,4	7,4	1	1	1	1	1	1	1	1	1	0	1	-71,247357	272,922027	243,337207	0
15.01.2021	01:27:56	0	0	3,389681	3,04125	90,7956	-0,89	78,03	0	1008,28	5,4	7,4	7,4	1	1	1	1	1	1	1	1	1	0	1	-66,525722	272,824027	247,607246	0
15.01.2021	01:27:57	0	0	3,502671	2,99475	85,176	-0,891	77,998	0	1008,26	5,4	7,4	7,4	1	1	1	1	1	1	1	1	1	0	1	-72,656801	272,941687	242,018419	0
15.01.2021	01:27:58	0	0	2,372777	2,9175	79,7544	-0,898	77,99	0	1008,22	5,4	7,4	7,4	1	1	1	1	1	1	1	1	1	0	1	-71,176885	272,992335	243,731968	0
15.01.2021	01:27:59	0	0	4,858543	2,8215	81,5652	-0,896	77,975	0	1008,32	5,4	7,4	7,4	1	1	1	1	1	1	1	1	1	0	1	-68,569415	272,906593	245,943998	0
15.01.2021	01:28:00	0	0	3,050713	2,619	74,5452	-0,899	77,952	0	1008,26	5,4	7,4	7,4	1	1	1	1	1	1	1	1	1	0	1	-71,67019	272,868765	242,668875	0
15.01.2021	01:28:01	0	0	3,61566	2,56425	94,7592	-0,896	77,981	0	1008,28	5,4	7,4	7,4	1	1	1	1	1	1	1	1	1	0	1	-69,978858	272,833804	244,199144	0
15.01.2021	01:28:02	0	0	3,61566	2,56425	94,7592	-0,896	77,981	0	1008,28	5,4	7,4	7,4	1	1	1	1	1	1	1	1	1	0	1	-69,978858	272,833804	244,199144	0
15.01.2021	01:28:03	0	0	2,598756	2,502	85,1724	-0,895	77,984	0	1008,3	5,4	7,4	7,4	1	1	1	1	1	1	1	1	1	0	1	-69,69697	272,865965	244,629197	0
15.01.2021	01:28:04	0	0	2,485766	2,484	82,3248	-0,894	78,062	0	1008,32	5,4	7,7	7,4	1	1	1	1	1	1	1	1	1	0	1	-67,935166	272,837996	246,262145	0
15.01.2021	01:28:05	0	0	3,728649	2,49075	69,1668	-0,9	78,023	0	1008,1	5,4	7,4	7,4	1	1	1	1	1	1	1	1	1	0	1	-71,035941	272,931854	243,593937	0
15.01.2021	01:28:06	0	0	4,858543	2,53575	87,0408	-0,9	78,035	0	1008,26	5,4	7,4	7,4	1	1	1	1	1	1	1	1	1	0	1	-69,908386	272,818442	244,198861	0
15.01.2021	01:28:07	0	0	2,937724	2,649	84,0492	-0,903	78,062	0	1008,24	5,4	7,7	7,4	1	1	1	1	1	1	1	1	1	0	1	-70,331219	272,854773	243,943378	0
15.01.2021	01:28:08	0	0	3,276692	2,96175	66,9204	-0,902	78,072	0	1008,26	5,4	7,4	7,4	1	1	1	1	1	1	1	1	1	0	1	-72,797745	272,981068	242,059125	0
15.01.2021	01:28:09	0	0	4,293596	3,093	68,4144	-0,898	78,057	0	1008,38	5,4	7,4	7,4	1	1	1	1	1	1	1	1	1	0	1	-71,811135	272,85757	242,476351	0
15.01.2021	01:28:10	0	0	4,858543	3,12375	69,1524	-0,897	78,058	0	1008,26	5,4	7,4	7,4	1	1	1	1	1	1	1	1	1	0	1	-73,220578	272,808672	240,841679	0
15.01.2021	01:28:11	0	0	4,632565	3,2505	78,2784	-0,9	78,049	0	1008,12	5,4	7,4	7,4	1	1	1	1	1	1	1	1	1	0	1	-73,079634	272,950119	241,634473	0
15.01.2021	01:28:12	0	0	3,954628	3,1875	71,6076	-0,899	78,083	0	1008,24	5,4	7,4	7,4	1	1	1	1	1	1	1	1	1	0	1	-74,207188	272,885568	240,209313	0
15.01.2021	01:28:13	0	0	3,61566	3,02925	74,6028	-0,904	78,099	0	1008,26	5,4	7,4	7,4	1	1	1	1	1	1	1	1	1	0	1	-71,599718	272,811463	242,47539	0
15.01.2021	01:28:14	0	0	4,519575	2,92125	74,1708	-0,899	78,112	0	1008,28	5,4	7,4	7,4	1	1	1	1	1	1	1	1	1	0	1	-71,458774	272,972622	243,359133	0
15.01.2021	01:28:15	0	0	4,632565	3,08025	79,0416	-0,903	78,1	0	1008,24	5,4	7,4	7,4	1	1	1	1	1	1	1	1	1	0	1	-70,331219	272,95293	244,395854	0
15.01.2021	01:28:16	0	0	2,598756	3,63525	79,4232	-0,9	78,118	0	1008,3	5,4	7,4	7,4	1	1	1	1	1	1	1	1	1	0	1	-72,233968	272,829613	241,924731	0
15.01.2021	01:28:17	0	0	4,858543	3,5505	69,2496	-0,902	78,12	0	1008,26	5,4	7,4	7,4	1	1	1	1	1	1	1	1	1	0	1	-69,978858	272,893975	244,476393	0
15.01.2021	01:28:18	0	0	4,519575	3,216	73,0584	-0,9	78,12	0	1008,32	5,4	7,7	7,4	1	1	1	1	1	1	1	1	1	0	1	-68,710359	272,986701	246,172497	0
15.01.2021	01:28:19	0	0	4,858543	2,844	73,0692	-0,9	78,109	0	1008,22	5,4	7,4	7,4	1	1	1	1	1	1	1	1	1	0	1	-72,797745	272,88837	241,631671	0
15.01.2021	01:28:20	0	0	3,163703	2,7765	85,9212	-0,904	78,107	0	1008,28	5,4	7,4	7,4	1	1	1	1	1	1	1	1	1	0	1	-72,445384	272,986701	242,437473	0
15.01.2021	01:28:21	0	0	2,485766	2,7795	79,7652	-0,903	78,101	0	1008,32	5,4	7,4	7,4	1	1	1	1	1	1	1	1	1	0	1	-71,881607	272,846383	242,354337	0
15.01.2021	01:28:22	0	0	2,824734	2,6865	76,356	-0,904	78,104	0	1008,34	5,4	7,4	7,4	1	1	1	1	1	1	1	1	1	0	1	-78,153629	272,843587	236,069434	0
15.01.2021	01:28:23	0	0	4,519575	2,63025	74,9412	-0,902	78,096	0	1008,16	5,4	7,4	7,4	1	1	1	1	1	1	1	1	1	0	1	-71,811135	272,812859	242,2704	0
15.01.2021	01:28:24	0	0	3,728649	2,6835	83,4408	-0,909	78,084	0	1008,04	5,4	7,4	7,4	1	1	1	1	1	1	1	1	1	0	1	-70,894996	272,910801	243,637815	0
15.01.2021	01:28:25	0	0	2,598756	2,65125	85,9212	-0,904	78,066	0	1008,2	5,4	7,4	7,4	1	1	1	1	1	1	1	1	1	0	1	-69,344609	272,972622	245,473298	0
15.01.2021	01:28:26	0	0	3,050713	2,54925	79,0056	-0,909	78,059	0	1008,3	5,4	7,4	7,4	1	1	1	1	1	1	1	1	1	0	1	-67,0895	272,853374	247,178654	0
15.01.2021	01:28:27	0	0	4,745554	2,4855	80,1432	-0,912	78,067	0	1008,22	5,4	7,4	7,4	1	1	1	1	1	1	1	1	1	0	1	-70,049331	272,951525	244,671259	0
15.01.2021	01:28:28	0	0	2,937724	2,5695	80,91	-0,908	78,055	0	1008,26	5,4	7,4	7,4	1	1	1	1	1	1	1	1	1	0	1	-72,938689	272,990926	241,963664	0
15.01.2021	01:28:29	0	0	2,485766	2,60925	81,9792	-0,909	78,041	0	1008,34	5,4	7,4	7,4	1	1	1	1	1	1	1	1	1	0	1	-70,190275	272,940282	244,478466	0
15.01.2021	01:28:30	0	0	5,084522	2,56575	74,1708	-0,903	78,027	0	1008,32	5,4	7,7	7,4	1	1	1	1	1	1	1	1	1	0	1	-69,767442	272,972622	245,050465	0
15.01.2021	01:28:31	0	0	5,42349	2,49525	83,8116	-0,907	78,022	0	1008,3	5,4	7,4	7,4	1	1	1	1	1	1	1	1	1	0	1	-74,207188	272,878565	240,177038	0
15.01.2021	01:28:32	0	0	4,971533	2,493	91,9008	-0,909	78,025	0	1008,3	5,4	7,4	7,4	1	1	1	1	1	1	1	1	1	0	1	-70,824524	272,81565	243,269866	0
15.01.2021	01:28:33	0	0	2,372777	2,844	84,8052	-0,907	78,021	0	1008,3	5,4	7,4	7,4	1	1	1	1	1	1	1	1	1	0	1	-68,780832	272,863167	245,532439	0
15.01.2021	01:28:34	0	0	3,61566	3,03825	94,0968	-0,911	78,005	0	1008,3	5,4	7,4	7,4	1	1	1	1	1	1	1	1	1	0	1	-72,515856	272,955742	242,224187	0
15.01.2021	01:28:35	0	0	4,971533	3,1605	91,8972	-0,91	78,026	0	1008,26	5,4	7,4	7,4	1	1	1	1	1	1	1	1	1	0	1	-73,150106	272,934663	241,492724	0
15.01.2021	01:28:36	0	0	3,841639	3,02175	96,2316	-0,913	78,029	0	1008,36	5,4	7,4	7,4	1	1	1	1	1	1	1	1	1	0	1	-70,260747	272,798908	243,756548	0
15.01.2021	01:28:37	0	0	4,858543	2,868	86,2848	-0,914	78,063	0	1008,28	5,4	7,7	7,4	1	1	1	1	1	1	1	1	1	0	1	-71,811135	272,872964	242,547282	0
15.01.2021	01:28:38	0	0	4,632565	2,697	83,3544	-0,914	78,059	0	1008,2	5,4	7,4	7,4	1	1	1	1	1	1	1	1	1	0	1	-68,287526	272,812859	245,794009	0
15.01.2021	01:28:39	0	0	5,197511	2,51475	86,3064	-0,916	78,052	0	1008,28	5,4	7,4	7,4	1	1	1	1	1	1	1	1	1	0	1	-72,868217	272,817046	241,232601	0
15.01.2021	01:28:40	0	0	2,937724	2,4735	76,3488	-0,913	78,055	0	1008,24	5,4	7,4	7,4	1	1	1	1	1	1	1	1	1	0	1	-73,29105	272,833804	240,886952	0
15.01.2021	01:28:41	0	0	2,711745	2,37975	81,2124	-0,914	78,048	0	1008,28	5,4	7,4	7,4	1	1	1	1	1	1	1	1	1	0	1	-68,780832	272,941687	245,894388	0
15.01.2021	01:28:42	0	0	4,971533	2,499	76,3884	-0,912	78,035	0	1008,36	5,4	7,4	7,4	1	1	1	1	1	1	1	1	1	0	1	-73,009161	273,002198	241,945207	0
15.01.2021	01:28:43	0	0	5,084522	2,673	70,236	-0,916	78,034	0	1008,44	5,4	7,4	7,4	1	1	1	1	1	1	1	1	1	0	1	-67,864693	272,877164	246,51308	0
15.01.2021	01:28:44	0	0	2,598756	2,796	74,1744	-0,917	78,027	0	1008,22	5,4	7,7	7,4	1	1	1	1	1	1	1	1	1	0	1	-73,361522	272,989517	241,534331	0
15.01.2021	01:28:45	0	0	3,728649	3,0405	74,1564	-0,921	78,011	0	1008,2	5,4	7,4	7,4	1	1	1	1	1	1	1	1	1	0	1	-67,864693	272,910801	246,668118	0
15.01.2021	01:28:46	0	0	2,485766	3,4125	75,6072	-0,917	78,041	0	1008,32	5,4	7,4	7,4	1	1	1	1	1	1	1	1	1	0	1	-71,106413	272,800302	242,917303	0
15.01.2021	01:28:47	0	0	3,502671	3,663	75,6072	-0,92	78,032	0	1008,24	5,4	7,4	7,4	1	1	1	1	1	1	1	1	1	0	1	-68,498943	272,899582	245,982152	0
15.01.2021	01:28:48	0	0	2,824734	3,5865	65,0844	-0,921	78,051	0	1008,26	5,4	7,4	7,4	1	1	1	1	1	1	1	1	1	0	1	-73,9253	272,800302	240,098417	0
15.01.2021	01:28:49	0	0	2,937724	3,4575	83,3472	-0,923	78,068	0	1008,1	5,4	7,4	7,4	1	1	1	1	1	1	1	1	1	0	1	-73,784355	272,846383	240,451589	0
15.01.2021	01:28:50	0	0	4,745554	3,29925	82,332	-0,921	78,086	0	1008,24	5,4	7,4	7,4	1	1	1	1	1	1	1	1	1	0	1	-71,740662	272,803092	242,295898	0
15.01.2021	01:28:51	0	0	3,954628	3,20775	79,7688	-0,928	78,086	0	1008,22	5,4	7,4	7,4	1	1	1	1	1	1	1	1	1	0	1	-72,163495	272,976845	242,67389	0
15.01.2021	01:28:52	0	0	4,067618	3,18525	86,9616	-0,92	78,093	0	1008,26	5,4	7,4	7,4	1	1	1	1	1	1	1	1	1	0	1	-69,274137	272,902386	245,219884	0
15.01.2021	01:28:53	0	0	4,519575	3,12075	80,5356	-0,925	78,1	0	1008,16	5,4	7,4	7,4	1	1	1	1	1	1	1	1	1	0	1	-68,780832	272,805882	245,268576	0
15.01.2021	01:28:54	0	0	2,598756	3,22275	76,3668	-0,924	78,105	0	1008,38	5,4	7,4	7,4	1	1	1	1	1	1	1	1	1	0	1	-74,207188	272,810068	239,861494	0
15.01.2021	01:28:55	0	0	3,276692	3,45	88,9596	-0,929	78,111	0	1008,38	5,4	7,4	7,4	1	1	1	1	1	1	1	1	1	0	1	-70,260747	272,817046	243,840071	0
15.01.2021	01:28:56	0	0	4,971533	3,61425	80,5104	-0,928	78,096	0	1008,36	5,4	7,4	7,4	1	1	1	1	1	1	1	1	1	0	1	-68,217054	272,850577	246,038214	0
15.01.2021	01:28:57	0	0	2,937724	3,5865	65,4696	-0,934	78,116	0	1008,24	5,4	7,4	7,4	1	1	1	1	1	1	1	1	1	0	1	-68,287526	272,982476	246,575839	0
15.01.2021	01:28:58	0	0	3,163703	3,40575	63,8712	-0,926	78,144	0	1008,3	5,4	7,4	7,4	1	1	1	1	1	1	1	1	1	0	1	-70,049331	272,83101	244,115802	0
15.01.2021	01:28:59	0	0	3,502671	3,351	72,7236	-0,927	78,161	0	1008,42	5,4	7,4	7,4	1	1	1	1	1	1	1	1	1	0	1	-70,754052	272,944497	243,934128	0
15.01.2021	01:29:00	0	0	2,937724	3,3585	77,5764	-0,911	78,207	0	1008,46	5,4	7,4	7,4	1	1	1	1	1	1	1	1	1	0	1	-72,163495	272,927642	242,446959	0
15.01.2021	01:29:01	0	0	2,937724	3,3585	77,5764	-0,911	78,207	0	1008,46	5,4	7,4	7,4	1	1	1	1	1	1	1	1	1	0	1	-72,163495	272,927642	242,446959	0
15.01.2021	01:29:02	0	0	3,276692	3,45525	72,2916	-0,929	78,239	0	1008,22	5,4	7,4	7,4	1	1	1	1	1	1	1	1	1	0	1	-69,767442	272,965587	245,018011	0
15.01.2021	01:29:03	0	0	4,971533	3,744	68,0004	-0,94	78,243	0	1008,28	5,4	7,4	7,4	1	1	1	1	1	1	1	1	1	0	1	-69,485553	272,907996	245,034326	0
15.01.2021	01:29:04	0	0	3,841639	3,753	65,4948	-0,929	78,249	0	1008,32	5,4	7,4	7,4	1	1	1	1	1	1	1	1	1	0	1	-71,106413	272,966994	243,68553	0
15.01.2021	01:29:05	0	0	4,406586	3,651	62,5356	-0,933	78,25	0	1008,3	5,4	7,4	7,4	1	1	1	1	1	1	1	1	1	0	1	-73,784355	272,867365	240,54826	0
15.01.2021	01:29:06	0	0	4,067618	3,70725	66,924	-0,935	78,256	0	1008,24	5,4	7,4	7,4	1	1	1	1	1	1	1	1	1	0	1	-73,29105	272,800302	240,732666	0
15.01.2021	01:29:07	0	0	2,711745	3,55875	65,8224	-0,935	78,256	0	1008,26	5,4	7,4	7,4	1	1	1	1	1	1	1	1	1	0	1	-69,767442	272,870164	244,578073	0
15.01.2021	01:29:08	0	0	5,310501	3,48075	61,7112	-0,938	78,257	0	1008,26	5,4	7,4	7,4	1	1	1	1	1	1	1	1	1	0	1	-72,163495	272,959961	242,596006	0
15.01.2021	01:29:09	0	0	4,067618	3,32175	75,7224	-0,933	78,28	0	1008,32	5,4	7,4	7,4	1	1	1	1	1	1	1	1	1	0	1	-69,203665	272,926238	245,400316	0
15.01.2021	01:29:10	0	0	2,372805	3,11025	74,9196	-0,936	78,304	0	1008,24	5,4	7,4	7,2	1	1	1	1	1	1	1	1	1	0	1	-73,431994	272,927642	241,17846	0
15.01.2021	01:29:11	0	0	3,61566	2,92425	72,666	-0,931	78,306	0	1008,3	5,4	7,4	7,4	1	1	1	1	1	1	1	1	1	0	1	-67,723749	272,824027	246,409219	0
15.01.2021	01:29:12	0	0	4,971533	2,841	70,866	-0,938	78,299	0	1008,16	5,4	7,4	7,4	1	1	1	1	1	1	1	1	1	0	1	-72,515856	272,863167	241,797415	0
15.01.2021	01:29:13	0	0	3,389681	2,811	89,3484	-0,936	78,307	0	1008,32	5,4	7,4	7,4	1	1	1	1	1	1	1	1	1	0	1	-70,472163	272,786361	243,487363	0
15.01.2021	01:29:14	0	0	2,485766	2,817	78,6564	-0,94	78,302	0	1008,26	5,4	7,4	7,4	1	1	1	1	1	1	1	1	1	0	1	-71,881607	272,882766	242,521983	0
15.01.2021	01:29:15	0	0	3,276692	2,85075	72,6876	-0,942	78,319	0	1008,32	5,4	7,5	7,4	1	1	1	1	1	1	1	1	1	0	1	-78,787879	272,959961	235,971622	0
15.01.2021	01:29:16	0	0	5,084522	2,9265	75,7116	-0,938	78,349	0	1008,3	5,4	7,4	7,4	1	1	1	1	1	1	1	1	1	0	1	-73,713883	272,786361	240,245644	0
15.01.2021	01:29:17	0	0	2,598756	2,889	75,9816	-0,939	78,367	0	1008,32	5,4	7,5	7,4	1	1	1	1	1	1	1	1	1	0	1	-65,186751	272,916413	249,371932	0
15.01.2021	01:29:18	0	0	2,937724	2,96925	82,998	-0,94	78,386	0	1008,24	5,4	7,4	7,4	1	1	1	1	1	1	1	1	1	0	1	-72,656801	272,959961	242,1027	0
15.01.2021	01:29:19	0	0	3,502671	3,12225	85,2516	-0,942	78,388	0	1008,04	5,4	7,4	7,4	1	1	1	1	1	1	1	1	1	0	1	-72,515856	272,88837	241,91356	0
15.01.2021	01:29:20	0	0	3,728649	3,078	89,3088	-0,94	78,412	0	1008,32	5,4	7,4	7,4	1	1	1	1	1	1	1	1	1	0	1	-71,529246	272,972622	243,288661	0
15.01.2021	01:29:21	0	0	4,745554	3,0015	91,494	-0,934	78,438	0	1008,26	5,4	7,4	7,4	1	1	1	1	1	1	1	1	1	0	1	-70,260747	272,85757	244,026739	0
15.01.2021	01:29:22	0	0	3,728649	3,02175	79,0344	-0,932	78,446	0	1008,36	5,4	7,5	7,4	1	1	1	1	1	1	1	1	1	0	1	-71,881607	272,776607	242,033021	0
15.01.2021	01:29:23	0	0	3,954628	3,093	77,2992	-0,935	78,451	0	1008,28	5,4	7,4	7,4	1	1	1	1	1	1	1	1	1	0	1	-75,052854	272,893975	239,402397	0
15.01.2021	01:29:24	0	0	3,163703	2,91975	86,2704	-0,943	78,45	0	1008,18	5,4	7,4	7,4	1	1	1	1	1	1	1	1	1	0	1	-69,415081	272,96418	245,363883	0
15.01.2021	01:29:25	0	0	5,084522	3,0075	79,7616	-0,942	78,476	0	1008,42	5,4	7,4	7,4	1	1	1	1	1	1	1	1	1	0	1	-72,374912	272,833804	241,80309	0
15.01.2021	01:29:26	0	0	3,276692	3,12075	79,74	-0,938	78,494	0	1008,24	5,4	7,4	7,4	1	1	1	1	1	1	1	1	1	0	1	-70,542636	272,912204	243,996643	0
15.01.2021	01:29:27	0	0	3,61566	3,2565	81,2196	-0,94	78,492	0	1008,16	5,3	7,5	7,4	1	1	1	1	1	1	1	1	1	0	1	-69,485553	272,951525	245,235037	0
15.01.2021	01:29:28	0	0	2,937724	3,3015	85,536	-0,941	78,518	0	1008,3	5,3	7,4	7,4	1	1	1	1	1	1	1	1	1	0	1	-71,740662	272,82263	242,385875	0
15.01.2021	01:29:29	0	0	3,61566	3,2355	83,7468	-0,939	78,516	0	1008,1	5,3	7,4	7,4	1	1	1	1	1	1	1	1	1	0	1	-72,30444	272,922027	242,280124	0
15.01.2021	01:29:30	0	0	4,180657	3,108	83,7504	-0,94	78,508	0	1008,34	5,4	7,4	7,2	1	1	1	1	1	1	1	1	1	0	1	-73,995772	272,922027	240,588792	0
15.01.2021	01:29:31	0	0	3,61566	3,0405	81,2196	-0,943	78,506	0	1008,08	5,4	7,5	7,4	1	1	1	1	1	1	1	1	1	0	1	-66,737139	272,899582	247,743956	0
15.01.2021	01:29:32	0	0	4,519575	3,02625	85,9068	-0,942	78,5	0	1008,28	5,3	7,4	7,4	1	1	1	1	1	1	1	1	1	0	1	-75,334743	272,958555	239,418272	0
15.01.2021	01:29:33	0	0	4,180607	3,1215	80,1396	-0,94	78,507	0	1008,26	5,4	7,5	7,4	1	1	1	1	1	1	1	1	1	0	1	-71,599718	272,936068	243,049588	0
15.01.2021	01:29:34	0	0	4,745554	3,1665	71,9928	-0,936	78,497	0	1008,2	5,4	7,5	7,4	1	1	1	1	1	1	1	1	1	0	1	-66,878083	272,899582	247,603012	0
15.01.2021	01:29:35	0	0	5,42349	3,16275	73,4508	-0,939	78,49	0	1008,18	5,3	7,4	7,4	1	1	1	1	1	1	1	1	1	0	1	-68,780832	272,796119	245,223622	0
15.01.2021	01:29:36	0	0	2,824734	3,1155	72,306	-0,938	78,482	0	1008,28	5,4	7,5	7,4	1	1	1	1	1	1	1	1	1	0	1	-67,582805	272,892574	246,865986	0
15.01.2021	01:29:37	0	0	3,841639	3,15075	72,7164	-0,941	78,5	0	1008,32	5,3	7,5	7,4	1	1	1	1	1	1	1	1	1	0	1	-67,723749	272,786361	246,235778	0
15.01.2021	01:29:38	0	0	2,824734	3,20175	70,6176	-0,938	78,509	0	1008,26	5,4	7,5	7,4	1	1	1	1	1	1	1	1	1	0	1	-69,415081	272,840791	244,795105	0
15.01.2021	01:29:39	0	0	3,163703	3,1365	71,9964	-0,94	78,51	0	1008,3	5,4	7,5	7,4	1	1	1	1	1	1	1	1	1	0	1	-69,556025	272,796119	244,448428	0
15.01.2021	01:29:40	0	0	4,519575	3,0585	85,2012	-0,942	78,523	0	1008,32	5,3	7,4	7,4	1	1	1	1	1	1	1	1	1	0	1	-68,569415	272,818442	245,537832	0
15.01.2021	01:29:41	0	0	5,649469	2,98425	73,44	-0,942	78,528	0	1008,38	5,4	7,4	7,4	1	1	1	1	1	1	1	1	1	0	1	-69,556025	272,950119	245,158081	0
15.01.2021	01:29:42	0	0	4,971533	2,97375	79,7616	-0,947	78,563	0	1008,3	5,4	7,5	7,4	1	1	1	1	1	1	1	1	1	0	1	-68,921776	272,948713	245,785848	0
15.01.2021	01:29:43	0	0	3,389722	2,92725	68,0328	-0,944	78,573	0	1008,3	5,4	7,5	7,2	1	1	1	1	1	1	1	1	1	0	1	-71,67019	272,824027	242,462778	0
15.01.2021	01:29:44	0	0	4,519575	2,8245	72,7704	-0,941	78,59	0	1008,34	5,3	7,5	7,4	1	1	1	1	1	1	1	1	1	0	1	-71,458774	272,958555	243,294241	0
15.01.2021	01:29:45	0	0	4,858543	2,78325	74,538	-0,945	78,615	0	1008,36	5,4	7,5	7,4	1	1	1	1	1	1	1	1	1	0	1	-76,814658	272,903789	237,685826	0
15.01.2021	01:29:46	0	0	3,728649	2,87625	73,7748	-0,942	78,632	0	1008,14	5,4	7,5	7,4	1	1	1	1	1	1	1	1	1	0	1	-68,357999	272,937472	246,297785	0
15.01.2021	01:29:47	0	0	4,632537	2,86725	68,4036	-0,945	78,62	0	1008,32	5,4	7,4	7,5	1	1	1	1	1	1	1	1	1	0	1	-68,780832	272,903789	245,719653	0
15.01.2021	01:29:48	0	0	2,711745	2,72775	63,5076	-0,943	78,65	0	1008,24	5,4	7,5	7,4	1	1	1	1	1	1	1	1	1	0	1	-71,317829	272,938877	243,344433	0
15.01.2021	01:29:49	0	0	5,310501	2,76	69,1704	-0,947	78,649	0	1008,2	5,4	7,5	7,4	1	1	1	1	1	1	1	1	1	0	1	-75,264271	272,917816	239,300882	0
15.01.2021	01:29:50	0	0	3,276692	2,757	63,1908	-0,946	78,656	0	1008,06	5,3	7,4	7,4	1	1	1	1	1	1	1	1	1	0	1	-73,643411	272,91922	240,928211	0
15.01.2021	01:29:51	0	0	4,971533	2,83575	81,9648	-0,941	78,663	0	1008,3	5,3	7,5	7,4	1	1	1	1	1	1	1	1	1	0	1	-68,851304	272,937472	245,80448	0
15.01.2021	01:29:52	0	0	2,598787	3,14175	83,736	-0,948	78,681	0	1008,36	5,4	7,5	7,2	1	1	1	1	1	1	1	1	1	0	1	-72,797745	272,924834	241,799763	0
15.01.2021	01:29:53	0	0	5,084492	3,56625	80,5176	-0,945	78,706	0	1008,26	5,3	7,4	7,5	1	1	1	1	1	1	1	1	1	0	1	-72,938689	272,917816	241,626463	0
15.01.2021	01:29:54	0	0	4,293596	3,8745	82,9872	-0,942	78,722	0	1008,34	5,4	7,5	7,4	1	1	1	1	1	1	1	1	1	0	1	-71,106413	272,892574	243,342378	0
15.01.2021	01:29:55	0	0	5,649469	4,09725	83,3544	-0,939	78,727	0	1008,3	5,3	7,4	7,4	1	1	1	1	1	1	1	1	1	0	1	-68,639887	272,968401	246,158546	0
15.01.2021	01:29:56	0	0	2,937724	4,28625	80,154	-0,943	78,725	0	1008,36	5,3	7,5	7,4	1	1	1	1	1	1	1	1	1	0	1	-72,445384	272,875764	241,925936	0
15.01.2021	01:29:57	0	0	3,61566	4,30575	70,2468	-0,943	78,721	0	1008,24	5,4	7,5	7,4	1	1	1	1	1	1	1	1	1	0	1	-71,458774	272,790542	242,520004	0
15.01.2021	01:29:58	0	0	3,276692	3,88725	66,9132	-0,942	78,703	0	1008,24	5,3	7,4	7,4	1	1	1	1	1	1	1	1	1	0	1	-70,331219	272,817046	243,769599	0
15.01.2021	01:29:59	0	0	3,954628	3,5865	76,3704	-0,948	78,707	0	1008,28	5,3	7,5	7,4	1	1	1	1	1	1	1	1	1	0	1	-69,69697	272,937472	244,958814	0
15.01.2021	01:30:00	0	0	3,615682	3,4065	73,764	-0,944	78,671	0	1008,16	5,4	7,5	7,3	1	1	1	1	1	1	1	1	1	0	1	-67,512333	272,885568	246,904169	0
15.01.2021	01:30:01	0	0	2,711745	3,3495	76,3596	-0,939	78,679	0	1008,22	5,3	7,5	7,4	1	1	1	1	1	1	1	1	1	0	1	-67,512333	272,885568	246,904169	0
15.01.2021	01:30:02	0	0	2,711745	3,3495	76,3596	-0,939	78,679	0	1008,22	5,3	7,5	7,4	1	1	1	1	1	1	1	1	1	0	1	-65,539112	272,961367	249,226876	0
15.01.2021	01:30:03	0	0	4,971533	3,21825	72,396	-0,949	78,661	0	1008,12	5,3	7,5	7,4	1	1	1	1	1	1	1	1	1	0	1	-68,287526	272,884167	246,122519	0
15.01.2021	01:30:04	0	0	2,59874	3,07725	62,4168	-0,939	78,683	0	1008,28	5,3	7,5	7,5	1	1	1	1	1	1	1	1	1	0	1	-69,344609	272,958555	245,408405	0
15.01.2021	01:30:05	0	0	2,937741	2,892	72,2916	-0,948	78,67	0	1008,28	5,3	7,4	7,3	1	1	1	1	1	1	1	1	1	0	1	-72,656801	272,886969	241,766158	0
15.01.2021	01:30:06	0	0	4,971503	2,8785	69,858	-0,942	78,666	0	1008,38	5,3	7,5	7,5	1	1	1	1	1	1	1	1	1	0	1	-72,445384	272,95293	242,28169	0
15.01.2021	01:30:07	0	0	4,858602	2,85075	65,1816	-0,947	78,655	0	1008,2	5,3	7,5	7,2	1	1	1	1	1	1	1	1	1	0	1	-70,68358	272,896779	243,784592	0
15.01.2021	01:30:08	0	0	4,745582	2,78025	73,062	-0,946	78,655	0	1008,22	5,3	7,5	7,3	1	1	1	1	1	1	1	1	1	0	1	-69,556025	272,955742	245,184017	0
15.01.2021	01:30:09	0	0	2,598787	2,66325	61,686	-0,953	78,655	0	1008,26	5,3	7,5	7,2	1	1	1	1	1	1	1	1	1	0	1	-69,203665	272,796119	244,800789	0
15.01.2021	01:30:10	0	0	4,293596	2,454	56,6784	-0,946	78,639	0	1008,24	5,4	7,4	7,4	1	1	1	1	1	1	1	1	1	0	1	-72,022551	272,79333	241,969063	0
15.01.2021	01:30:11	0	0	3,954652	2,2665	57,4236	-0,942	78,654	0	1008,26	5,3	7,5	7,3	1	1	1	1	1	1	1	1	1	0	1	-71,388302	272,771036	242,500682	0
15.01.2021	01:30:12	0	0	4,406639	2,09325	63,1764	-0,945	78,634	0	1008,32	5,4	7,4	7,2	1	1	1	1	1	1	1	1	1	0	1	-72,374912	272,896779	242,09326	0
15.01.2021	01:30:13	0	0	2,937724	1,9965	69,4764	-0,944	78,665	0	1008,3	5,4	7,5	7,4	1	1	1	1	1	1	1	1	1	0	1	-71,881607	272,93045	242,741796	0
15.01.2021	01:30:14	0	0	3,615704	1,986	68,796	-0,948	78,677	0	1008,3	5,3	7,5	7,2	1	1	1	1	1	1	1	1	1	0	1	-72,233968	272,927642	242,376487	0
15.01.2021	01:30:15	0	0	2,824751	2,0175	83,3544	-0,944	78,703	0	1008,46	5,3	7,5	7,3	1	1	1	1	1	1	1	1	1	0	1	-70,331219	272,791936	243,653976	0
15.01.2021	01:30:16	0	0	4,858572	2,03925	73,0512	-0,945	78,717	0	1008,22	5,3	7,5	7,3	1	1	1	1	1	1	1	1	1	0	1	-71,599718	272,824027	242,53325	0
15.01.2021	01:30:17	0	0	4,971533	1,956	83,3436	-0,946	78,711	0	1008,24	5,4	7,5	7,4	1	1	1	1	1	1	1	1	1	0	1	-68,710359	272,889771	245,725514	0
15.01.2021	01:30:18	0	0	4,293596	2,02725	59,868	-0,941	78,736	0	1008,34	5,3	7,5	7,4	1	1	1	1	1	1	1	1	1	0	1	-72,656801	272,775214	241,251415	0
15.01.2021	01:30:19	0	0	2,598787	2,391	63,882	-0,942	78,73	0	1008,34	5,4	7,5	7,2	1	1	1	1	1	1	1	1	1	0	1	-72,445384	272,794724	241,552649	0
15.01.2021	01:30:20	0	0	2,711761	2,73375	67,2948	-0,944	78,725	0	1008,28	5,3	7,4	7,3	1	1	1	1	1	1	1	1	1	0	1	-68,569415	272,867365	245,7632	0
15.01.2021	01:30:21	0	0	2,937741	2,8725	63,8712	-0,923	78,746	0	1008,32	5,4	7,5	7,3	1	1	1	1	1	1	1	1	1	0	1	-70,331219	272,780787	243,602648	0
15.01.2021	01:30:22	0	0	4,971533	2,8635	65,4876	-0,945	78,76	0	1008,24	5,3	7,5	7,4	1	1	1	1	1	1	1	1	1	0	1	-70,331219	272,906593	244,182194	0
15.01.2021	01:30:23	0	0	4,745611	2,86575	61,6752	-0,942	78,762	0	1008,24	5,3	7,5	7,2	1	1	1	1	1	1	1	1	1	0	1	-71,740662	272,886969	242,682296	0
15.01.2021	01:30:24	0	0	2,598771	2,81625	80,1612	-0,943	78,765	0	1008,28	5,4	7,5	7,3	1	1	1	1	1	1	1	1	1	0	1	-72,445384	272,773822	241,45642	0
15.01.2021	01:30:25	0	0	4,180657	2,59425	73,512	-0,942	78,745	0	1008,32	5,3	7,5	7,2	1	1	1	1	1	1	1	1	1	0	1	-73,220578	272,846383	241,015366	0
15.01.2021	01:30:26	0	0	2,259801	2,52825	79,4232	-0,943	78,76	0	1008,3	5,3	7,5	7,3	1	1	1	1	1	1	1	1	1	0	1	-68,217054	272,955742	246,522989	0
15.01.2021	01:30:27	0	0	3,163741	2,48175	71,2332	-0,944	78,752	0	1008,3	5,3	7,5	7,2	1	1	1	1	1	1	1	1	1	0	1	-71,388302	272,88837	243,041114	0
15.01.2021	01:30:28	0	0	3,954628	2,65275	85,5432	-0,939	78,755	0	1008,3	5,3	7,5	7,4	1	1	1	1	1	1	1	1	1	0	1	-75,052854	272,766859	238,816902	0
15.01.2021	01:30:29	0	0	3,163741	2,751	73,44	-0,944	78,759	0	1008,34	5,3	7,5	7,2	1	1	1	1	1	1	1	1	1	0	1	-73,431994	272,775214	240,476221	0
15.01.2021	01:30:30	0	0	3,05075	2,75025	69,4872	-0,94	78,757	0	1008,3	5,3	7,5	7,2	1	1	1	1	1	1	1	1	1	0	1	-67,019027	272,835201	247,16541	0
15.01.2021	01:30:31	0	0	3,615638	2,754	76,8348	-0,943	78,759	0	1008,12	5,3	7,4	7,5	1	1	1	1	1	1	1	1	1	0	1	-72,093023	272,819838	242,020653	0
15.01.2021	01:30:32	0	0	2,937724	2,85825	69,552	-0,941	78,753	0	1008,28	5,3	7,5	7,4	1	1	1	1	1	1	1	1	1	0	1	-73,502467	272,948713	241,205158	0
15.01.2021	01:30:33	0	0	4,406559	2,72175	81,9756	-0,941	78,77	0	1008,32	5,3	7,5	7,5	1	1	1	1	1	1	1	1	1	0	1	-70,049331	272,801697	243,980808	0
15.01.2021	01:30:34	0	0	4,745554	2,52675	89,3448	-0,943	78,758	0	1008,34	5,3	7,5	7,4	1	1	1	1	1	1	1	1	1	0	1	-71,317829	272,906593	243,195584	0
15.01.2021	01:30:35	0	0	2,937724	2,45175	91,9044	-0,947	78,751	0	1008,22	5,3	7,5	7,4	1	1	1	1	1	1	1	1	1	0	1	-68,569415	272,93045	246,053988	0
15.01.2021	01:30:36	0	0	3,615682	2,4	67,6728	-0,937	78,755	0	1008,28	5,3	7,5	7,3	1	1	1	1	1	1	1	1	1	0	1	-67,019027	272,850577	247,23624	0
15.01.2021	01:30:37	0	0	3,50265	2,4255	79,7616	-0,943	78,745	0	1008,26	5,3	7,5	7,5	1	1	1	1	1	1	1	1	1	0	1	-72,30444	272,941687	242,37078	0
15.01.2021	01:30:38	0	0	2,259801	2,496	74,178	-0,943	78,745	0	1008,38	5,4	7,5	7,3	1	1	1	1	1	1	1	1	1	0	1	-73,572939	272,860368	240,727439	0
15.01.2021	01:30:39	0	0	3,954605	2,59425	66,2328	-0,945	78,736	0	1008,14	5,3	7,5	7,5	1	1	1	1	1	1	1	1	1	0	1	-70,754052	272,931854	243,875826	0
15.01.2021	01:30:40	0	0	4,858572	2,6895	67,3164	-0,939	78,706	0	1008,22	5,3	7,5	7,3	1	1	1	1	1	1	1	1	1	0	1	-67,723749	272,759899	246,113973	0
15.01.2021	01:30:41	0	0	4,519548	2,9745	65,8548	-0,942	78,725	0	1008,16	5,3	7,5	7,5	1	1	1	1	1	1	1	1	1	0	1	-74,630021	272,789148	239,342339	0
15.01.2021	01:30:42	0	0	2,824751	3,132	66,5424	-0,94	78,683	0	1008,32	5,3	7,5	7,3	1	1	1	1	1	1	1	1	1	0	1	-70,049331	272,88837	244,380085	0
15.01.2021	01:30:43	0	0	4,745582	3,168	69,2532	-0,94	78,699	0	1008,34	5,3	7,5	7,3	1	1	1	1	1	1	1	1	1	0	1	-70,68358	272,938877	243,978682	0
15.01.2021	01:30:44	0	0	4,293571	3,18675	68,4	-0,944	78,686	0	1008,26	5,3	7,5	7,5	1	1	1	1	1	1	1	1	1	0	1	-71,740662	272,83101	242,42447	0
15.01.2021	01:30:45	0	0	2,937706	3,264	71,2188	-0,947	78,691	0	1008,12	5,4	7,5	7,5	1	1	1	1	1	1	1	1	1	0	1	-69,556025	272,934663	245,086804	0
15.01.2021	01:30:46	0	0	3,728672	3,198	78,3	-0,945	78,69	0	1008,28	5,4	7,5	7,3	1	1	1	1	1	1	1	1	1	0	1	-69,203665	272,762683	244,64687	0
15.01.2021	01:30:47	0	0	3,163722	3,417	77,2956	-0,938	78,71	0	1008,28	5,4	7,5	7,3	1	1	1	1	1	1	1	1	1	0	1	-65,680056	272,843587	248,543007	0
15.01.2021	01:30:48	0	0	4,745582	3,67875	74,5308	-0,944	78,71	0	1008,32	5,3	7,5	7,3	1	1	1	1	1	1	1	1	1	0	1	-68,357999	272,741815	245,396501	0
15.01.2021	01:30:49	0	0	4,632592	3,9495	73,0476	-0,943	78,698	0	1008,22	5,3	7,4	7,3	1	1	1	1	1	1	1	1	1	0	1	-74,066244	272,81565	240,028146	0
15.01.2021	01:30:50	0	0	2,711778	4,01175	71,964	-0,942	78,704	0	1008,2	5,3	7,5	7,2	1	1	1	1	1	1	1	1	1	0	1	-72,938689	272,771036	240,950294	0
15.01.2021	01:30:51	0	0	4,632592	3,9855	71,6076	-0,946	78,709	0	1008,2	5,4	7,5	7,3	1	1	1	1	1	1	1	1	1	0	1	-69,908386	272,842189	244,308239	0
15.01.2021	01:30:52	0	0	4,180632	4,1115	75,2544	-0,942	78,75	0	1008,32	5,4	7,5	7,3	1	1	1	1	1	1	1	1	1	0	1	-69,274137	272,922027	245,310427	0
15.01.2021	01:30:53	0	0	3,615682	3,9795	79,0344	-0,942	78,764	0	1008,32	5,4	7,5	7,3	1	1	1	1	1	1	1	1	1	0	1	-75,052854	272,780787	238,881013	0
15.01.2021	01:30:54	0	0	3,502692	3,76275	68,418	-0,943	78,784	0	1008,32	5,4	7,5	7,3	1	1	1	1	1	1	1	1	1	0	1	-69,06272	272,900984	245,424837	0
15.01.2021	01:30:55	0	0	4,406612	3,4605	65,0916	-0,95	78,796	0	1008,32	5,4	7,5	7,3	1	1	1	1	1	1	1	1	1	0	1	-70,754052	272,937472	243,901732	0
15.01.2021	01:30:56	0	0	5,197543	3,4065	67,6692	-0,939	78,807	0	1008,18	5,4	7,4	7,3	1	1	1	1	1	1	1	1	1	0	1	-74,27766	272,874364	240,087208	0
15.01.2021	01:30:57	0	0	4,293648	3,177	55,9548	-0,941	78,821	0	1008,32	5,4	7,5	7,2	1	1	1	1	1	1	1	1	1	0	1	-74,136716	272,776607	239,777912	0
15.01.2021	01:30:58	0	0	4,519602	3,06	62,4456	-0,942	78,82	0	1008,28	5,4	7,4	7,3	1	1	1	1	1	1	1	1	1	0	1	-74,559549	272,941687	240,115671	0
15.01.2021	01:30:59	0	0	2,937741	3,138	66,546	-0,943	78,826	0	1008,3	5,4	7,5	7,3	1	1	1	1	1	1	1	1	1	0	1	-67,512333	272,780787	246,421534	0
15.01.2021	01:31:00	0	0	4,745582	3,00675	72,0072	-0,943	78,817	0	1008,2	5,4	7,5	7,3	1	1	1	1	1	1	1	1	1	0	1	-75,052854	272,900984	239,434704	0
15.01.2021	01:31:01	0	0	2,937741	2,973	78,6528	-0,933	78,809	0	1008,1	5,4	7,5	7,3	1	1	1	1	1	1	1	1	1	0	1	-71,952079	272,82263	242,174458	0
15.01.2021	01:31:02	0	0	2,937741	2,973	78,6528	-0,933	78,809	0	1008,1	5,4	7,5	7,3	1	1	1	1	1	1	1	1	1	0	1	-71,952079	272,82263	242,174458	0
15.01.2021	01:31:03	0	0	3,502692	2,814	73,422	-0,942	78,815	0	1008,42	5,3	7,5	7,3	1	1	1	1	1	1	1	1	1	0	1	-72,727273	272,75155	241,072028	0
15.01.2021	01:31:04	0	0	3,276712	2,652	68,004	-0,945	78,789	0	1008,22	5,4	7,5	7,3	1	1	1	1	1	1	1	1	1	0	1	-70,049331	272,784967	243,90378	0
15.01.2021	01:31:05	0	0	3,050732	2,58675	75,2328	-0,944	78,798	0	1008,34	5,4	7,5	7,3	1	1	1	1	1	1	1	1	1	0	1	-73,431994	272,889771	241,003879	0
15.01.2021	01:31:06	0	0	4,745582	2,991	72,7704	-0,941	78,787	0	1008,18	5,4	7,5	7,3	1	1	1	1	1	1	1	1	1	0	1	-73,572939	272,75155	240,226362	0
15.01.2021	01:31:07	0	0	3,502692	3,4635	83,7324	-0,949	78,793	0	1008,36	5,4	7,4	7,3	1	1	1	1	1	1	1	1	1	0	1	-69,837914	272,798908	244,179381	0
15.01.2021	01:31:08	0	0	3,841662	3,5535	79,0344	-0,941	78,793	0	1008,08	5,4	7,5	7,3	1	1	1	1	1	1	1	1	1	0	1	-68,005638	272,757116	245,819275	0
15.01.2021	01:31:09	0	0	5,084553	3,39075	73,1196	-0,937	78,804	0	1007,94	5,3	7,5	7,3	1	1	1	1	1	1	1	1	1	0	1	-70,119803	272,895377	244,341908	0
15.01.2021	01:31:10	0	0	3,615682	3,11625	70,6176	-0,942	78,814	0	1008,32	5,4	7,5	7,3	1	1	1	1	1	1	1	1	1	0	1	-69,344609	272,797513	244,666265	0
15.01.2021	01:31:11	0	0	3,050695	2,9895	71,982	-0,94	78,83	0	1008,24	5,4	7,5	7,5	1	1	1	1	1	1	1	1	1	0	1	-73,643411	272,913607	240,902335	0
15.01.2021	01:31:12	0	0	3,954652	2,96025	70,6068	-0,946	78,861	0	1008,22	5,4	7,4	7,3	1	1	1	1	1	1	1	1	1	0	1	-70,754052	272,773822	243,147752	0
15.01.2021	01:31:13	0	0	2,824751	2,9355	68,0976	-0,941	78,896	0	1008,26	5,4	7,5	7,3	1	1	1	1	1	1	1	1	1	0	1	-70,190275	272,917816	244,374878	0
15.01.2021	01:31:14	0	0	3,502692	2,865	64,6092	-0,94	78,891	0	1008,34	5,4	7,5	7,3	1	1	1	1	1	1	1	1	1	0	1	-72,445384	272,755724	241,373125	0
15.01.2021	01:31:15	0	0	3,954652	2,895	69,1776	-0,944	78,915	0	1008,22	5,4	7,4	7,3	1	1	1	1	1	1	1	1	1	0	1	-69,485553	272,863167	244,827718	0
15.01.2021	01:31:16	0	0	3,163722	2,90625	68,058	-0,938	78,934	0	1008,46	5,4	7,4	7,3	1	1	1	1	1	1	1	1	1	0	1	-71,106413	272,91922	243,465209	0
15.01.2021	01:31:17	0	0	3,841616	2,87925	74,16	-0,945	78,923	0	1008,28	5,4	7,5	7,5	1	1	1	1	1	1	1	1	1	0	1	-68,851304	272,744596	244,915994	0
15.01.2021	01:31:18	0	0	4,293622	3,0045	73,7928	-0,937	78,938	0	1008,34	5,4	7,5	7,3	1	1	1	1	1	1	1	1	1	0	1	-69,767442	272,889771	244,668432	0
15.01.2021	01:31:19	0	0	4,406612	2,9625	74,5452	-0,943	78,92	0	1008,06	5,4	7,4	7,3	1	1	1	1	1	1	1	1	1	0	1	-71,952079	272,743205	241,808819	0
15.01.2021	01:31:20	0	0	2,711761	2,862	91,1556	-0,936	78,901	0	1008,28	5,4	7,5	7,3	1	1	1	1	1	1	1	1	1	0	1	-66,032417	272,783573	247,914278	0
15.01.2021	01:31:21	0	0	3,389702	2,72775	79,0416	-0,933	78,901	0	1008,34	5,4	7,5	7,3	1	1	1	1	1	1	1	1	1	0	1	-71,106413	272,861767	243,200411	0
15.01.2021	01:31:22	0	0	3,276712	2,59875	79,4304	-0,934	78,887	0	1008,36	5,4	7,4	7,3	1	1	1	1	1	1	1	1	1	0	1	-67,582805	272,922027	247,001759	0
15.01.2021	01:31:23	0	0	2,711761	2,4975	66,9096	-0,937	78,86	0	1008,3	5,4	7,5	7,3	1	1	1	1	1	1	1	1	1	0	1	-69,274137	272,900984	245,213421	0
15.01.2021	01:31:24	0	0	4,858572	2,45175	85,5288	-0,939	78,824	0	1008,38	5,4	7,5	7,3	1	1	1	1	1	1	1	1	1	0	1	-71,388302	272,843587	242,834762	0
15.01.2021	01:31:25	0	0	4,180632	2,41275	79,7832	-0,933	78,816	0	1008,3	5,4	7,5	7,3	1	1	1	1	1	1	1	1	1	0	1	-69,837914	272,754333	243,974191	0
15.01.2021	01:31:26	0	0	5,084553	2,265	73,4652	-0,939	78,779	0	1008,28	5,4	7,5	7,3	1	1	1	1	1	1	1	1	1	0	1	-73,079634	272,910801	241,453178	0
15.01.2021	01:31:27	0	0	4,858572	2,1285	72,0036	-0,936	78,747	0	1008,28	5,4	7,4	7,3	1	1	1	1	1	1	1	1	1	0	1	-70,472163	272,895377	243,989548	0
15.01.2021	01:31:28	0	0	3,050732	2,208	72,6768	-0,931	78,745	0	1008,38	5,4	7,4	7,3	1	1	1	1	1	1	1	1	1	0	1	-67,230444	272,856171	247,050597	0
15.01.2021	01:31:29	0	0	2,824751	2,28075	68,3856	-0,931	78,722	0	1008,32	5,4	7,5	7,3	1	1	1	1	1	1	1	1	1	0	1	-70,613108	272,725137	243,064656	0
15.01.2021	01:31:30	0	0	4,632592	2,22375	70,218	-0,935	78,711	0	1008,36	5,4	7,4	7,3	1	1	1	1	1	1	1	1	1	0	1	-70,613108	272,819838	243,500569	0
15.01.2021	01:31:31	0	0	2,937741	2,193	65,1096	-0,938	78,655	0	1008,16	5,4	7,4	7,3	1	1	1	1	1	1	1	1	1	0	1	-72,727273	272,740425	241,02083	0
15.01.2021	01:31:32	0	0	2,824751	2,217	69,4728	-0,939	78,659	0	1008,3	5,4	7,4	7,3	1	1	1	1	1	1	1	1	1	0	1	-70,331219	272,891173	244,111113	0
15.01.2021	01:31:33	0	0	4,971562	2,19675	74,9196	-0,935	78,636	0	1008,24	5,4	7,4	7,3	1	1	1	1	1	1	1	1	1	0	1	-75,052854	272,810068	239,015828	0
15.01.2021	01:31:34	0	0	4,632592	2,2245	89,1288	-0,936	78,609	0	1008,34	5,4	7,4	7,3	1	1	1	1	1	1	1	1	1	0	1	-70,260747	272,725137	243,417017	0
15.01.2021	01:31:35	0	0	3,502692	2,17875	80,5212	-0,935	78,576	0	1008,22	5,4	7,4	7,3	1	1	1	1	1	1	1	1	1	0	1	-66,032417	272,840791	248,177769	0
15.01.2021	01:31:36	0	0	4,293622	2,2155	80,1648	-0,933	78,565	0	1008,3	5,4	7,4	7,3	1	1	1	1	1	1	1	1	1	0	1	-71,317829	272,892574	243,130962	0
15.01.2021	01:31:37	0	0	3,276712	2,12175	79,4376	-0,94	78,522	0	1008,26	5,4	7,5	7,3	1	1	1	1	1	1	1	1	1	0	1	-72,163495	272,819838	241,950181	0
15.01.2021	01:31:38	0	0	4,406612	2,0415	79,7688	-0,937	78,505	0	1008,34	5,4	7,4	7,3	1	1	1	1	1	1	1	1	1	0	1	-70,049331	272,899582	244,431765	0
15.01.2021	01:31:39	0	0	4,293622	2,00025	82,9656	-0,936	78,491	0	1008,36	5,4	7,4	7,3	1	1	1	1	1	1	1	1	1	0	1	-71,599718	272,732084	242,110009	0
15.01.2021	01:31:40	0	0	3,728672	1,89225	74,1708	-0,939	78,465	0	1008,22	5,4	7,4	7,3	1	1	1	1	1	1	1	1	1	0	1	-71,881607	272,850577	242,373661	0
15.01.2021	01:31:41	0	0	2,598771	1,812	57,7404	-0,941	78,451	0	1008,48	5,4	7,4	7,3	1	1	1	1	1	1	1	1	1	0	1	-74,27766	272,863167	240,035611	0
15.01.2021	01:31:42	0	0	4,180632	1,929	71,226	-0,94	78,429	0	1008,4	5,4	7,4	7,3	1	1	1	1	1	1	1	1	1	0	1	-69,415081	272,88837	245,014335	0
15.01.2021	01:31:43	0	0	4,293622	2,097	66,5388	-0,937	78,413	0	1008,3	5,4	7,4	7,3	1	1	1	1	1	1	1	1	1	0	1	-73,995772	272,791936	239,989424	0
15.01.2021	01:31:44	0	0	4,745582	2,2875	74,1744	-0,937	78,383	0	1008,26	5,4	7,4	7,3	1	1	1	1	1	1	1	1	1	0	1	-72,30444	272,896779	242,163732	0
15.01.2021	01:31:45	0	0	4,971562	2,42175	70,218	-0,938	78,379	0	1008,38	5,3	7,5	7,3	1	1	1	1	1	1	1	1	1	0	1	-72,868217	272,850577	241,387051	0
15.01.2021	01:31:46	0	0	4,067642	2,4285	77,6052	-0,932	78,39	0	1008,42	5,4	7,4	7,3	1	1	1	1	1	1	1	1	1	0	1	-66,737139	272,734864	246,985378	0
15.01.2021	01:31:47	0	0	4,745582	2,367	85,194	-0,945	78,35	0	1008,46	5,4	7,4	7,3	1	1	1	1	1	1	1	1	1	0	1	-72,938689	272,849179	241,310137	0
15.01.2021	01:31:48	0	0	2,485781	2,49375	84,4308	-0,944	78,344	0	1008,36	5,4	7,4	7,3	1	1	1	1	1	1	1	1	1	0	1	-71,740662	272,867365	242,591953	0
15.01.2021	01:31:49	0	0	4,180632	2,6535	83,7468	-0,949	78,326	0	1008,28	5,4	7,4	7,3	1	1	1	1	1	1	1	1	1	0	1	-71,106413	272,882766	243,297177	0
15.01.2021	01:31:50	0	0	2,711761	2,7855	80,1576	-0,948	78,289	0	1008,26	5,4	7,4	7,3	1	1	1	1	1	1	1	1	1	0	1	-70,965469	272,794724	243,032565	0
15.01.2021	01:31:51	0	0	3,841662	2,97	81,5868	-0,941	78,3	0	1008,34	5,3	7,4	7,3	1	1	1	1	1	1	1	1	1	0	1	-70,401691	272,715415	243,231347	0
15.01.2021	01:31:52	0	0	2,824751	3,024	73,4148	-0,949	78,273	0	1008,26	5,4	7,4	7,3	1	1	1	1	1	1	1	1	1	0	1	-73,150106	272,803092	240,886455	0
15.01.2021	01:31:53	0	0	3,163722	3,17475	72,3096	-0,939	78,26	0	1008,32	5,4	7,4	7,3	1	1	1	1	1	1	1	1	1	0	1	-71,952079	272,72097	241,706513	0
15.01.2021	01:31:54	0	0	2,598771	3,40875	85,1616	-0,948	78,239	0	1008,36	5,4	7,4	7,3	1	1	1	1	1	1	1	1	1	0	1	-69,767442	272,750159	244,025457	0
15.01.2021	01:31:55	0	0	4,180632	3,39675	83,7432	-0,944	78,251	0	1008,28	5,4	7,4	7,3	1	1	1	1	1	1	1	1	1	0	1	-72,022551	272,747377	241,757546	0
15.01.2021	01:31:56	0	0	4,180632	3,423	76,3848	-0,945	78,227	0	1008,28	5,4	7,5	7,3	1	1	1	1	1	1	1	1	1	0	1	-67,300916	272,712638	246,319349	0
15.01.2021	01:31:57	0	0	3,841662	3,61725	83,0052	-0,946	78,225	0	1008,32	5,4	7,4	7,3	1	1	1	1	1	1	1	1	1	0	1	-67,653277	272,75155	246,146023	0
15.01.2021	01:31:58	0	0	5,084553	3,729	77,9796	-0,947	78,208	0	1008,3	5,3	7,4	7,3	1	1	1	1	1	1	1	1	1	0	1	-67,653277	272,718192	245,992537	0
15.01.2021	01:31:59	0	0	4,406612	3,54525	68,0184	-0,944	78,209	0	1008,14	5,4	7,4	7,3	1	1	1	1	1	1	1	1	1	0	1	-70,049331	272,707086	243,545394	0
15.01.2021	01:32:00	0	0	4,858572	3,21825	71,9856	-0,946	78,181	0	1008,24	5,3	7,4	7,3	1	1	1	1	1	1	1	1	1	0	1	-70,754052	272,718192	242,891762	0
15.01.2021	01:32:01	0	0	4,519602	3,237	76,3704	-0,949	78,187	0	1008,16	5,4	7,4	7,3	1	1	1	1	1	1	1	1	1	0	1	-69,485553	272,840791	244,724633	0
15.01.2021	01:32:02	0	0	4,519602	3,237	76,3704	-0,949	78,187	0	1008,16	5,4	7,4	7,3	1	1	1	1	1	1	1	1	1	0	1	-69,485553	272,840791	244,724633	0
15.01.2021	01:32:03	0	0	4,067642	3,12225	69,1524	-0,95	78,171	0	1008,22	5,3	7,4	7,3	1	1	1	1	1	1	1	1	1	0	1	-69,274137	272,842189	244,942488	0
15.01.2021	01:32:04	0	0	4,067642	3,1155	62,1216	-0,952	78,167	0	1008,4	5,3	7,4	7,3	1	1	1	1	1	1	1	1	1	0	1	-69,415081	272,723748	244,256292	0
15.01.2021	01:32:05	0	0	4,180632	3,1125	62,4096	-0,956	78,192	0	1008,3	5,3	7,4	7,3	1	1	1	1	1	1	1	1	1	0	1	-72,797745	272,85757	241,489741	0
15.01.2021	01:32:06	0	0	3,728672	3,17175	82,602	-0,949	78,202	0	1008,3	5,4	7,4	7,3	1	1	1	1	1	1	1	1	1	0	1	-74,27766	272,858969	240,016271	0
15.01.2021	01:32:07	0	0	4,293622	3,47025	66,9132	-0,954	78,217	0	1008,3	5,4	7,4	7,3	1	1	1	1	1	1	1	1	1	0	1	-67,019027	272,886969	247,403931	0
15.01.2021	01:32:08	0	0	2,937741	3,63825	67,6692	-0,953	78,218	0	1008,42	5,3	7,4	7,3	1	1	1	1	1	1	1	1	1	0	1	-73,009161	272,801697	241,020977	0
15.01.2021	01:32:09	0	0	3,954652	3,68625	61,7112	-0,957	78,223	0	1008,34	5,3	7,4	7,3	1	1	1	1	1	1	1	1	1	0	1	-70,894996	272,877164	243,482777	0
15.01.2021	01:32:10	0	0	4,180632	3,79275	65,088	-0,954	78,214	0	1008,18	5,3	7,4	7,3	1	1	1	1	1	1	1	1	1	0	1	-73,079634	272,743205	240,681265	0
15.01.2021	01:32:11	0	0	3,389702	3,8685	67,0536	-0,955	78,207	0	1008,32	5,4	7,4	7,3	1	1	1	1	1	1	1	1	1	0	1	-75,405215	272,829613	238,753484	0
15.01.2021	01:32:12	0	0	3,841662	3,7995	59,1156	-0,956	78,203	0	1008,24	5,4	7,4	7,3	1	1	1	1	1	1	1	1	1	0	1	-70,894996	272,889771	243,540877	0
15.01.2021	01:32:13	0	0	3,276712	3,648	58,8744	-0,962	78,211	0	1008,2	5,4	7,4	7,3	1	1	1	1	1	1	1	1	1	0	1	-67,582805	272,891173	246,859527	0
15.01.2021	01:32:14	0	0	2,598771	3,429	59,4792	-0,959	78,245	0	1008,3	5,5	7,4	7,3	1	1	1	1	1	1	1	1	1	0	1	-66,102889	272,811463	247,972219	0
15.01.2021	01:32:15	0	0	3,163722	3,3285	50,7708	-0,959	78,258	0	1008,36	5,3	7,4	7,3	1	1	1	1	1	1	1	1	1	0	1	-69,767442	272,72097	243,89115	0
15.01.2021	01:32:16	0	0	4,858572	3,28275	53,7336	-0,959	78,265	0	1008,32	5,3	7,4	7,3	1	1	1	1	1	1	1	1	1	0	1	-71,388302	272,765467	242,475047	0
15.01.2021	01:32:17	0	0	3,728672	3,23175	76,0032	-0,96	78,267	0	1008,3	5,3	7,4	7,3	1	1	1	1	1	1	1	1	1	0	1	-81,536293	272,874364	232,828575	0
15.01.2021	01:32:18	0	0	2,485781	3,13875	67,6872	-0,962	78,283	0	1008,32	5,3	7,4	7,3	1	1	1	1	1	1	1	1	1	0	1	-75,405215	272,729305	238,291725	0
15.01.2021	01:32:19	0	0	4,745582	3,05025	54,486	-0,962	78,252	0	1008,42	5,3	7,4	7,3	1	1	1	1	1	1	1	1	1	0	1	-71,247357	272,732084	242,46237	0
15.01.2021	01:32:20	0	0	4,858572	2,808	52,146	-0,959	78,271	0	1008,32	5,3	7,4	7,3	1	1	1	1	1	1	1	1	1	0	1	-72,938689	272,730695	240,764644	0
15.01.2021	01:32:21	0	0	3,728672	2,586	68,4	-0,962	78,262	0	1008,34	5,3	7,4	7,3	1	1	1	1	1	1	1	1	1	0	1	-73,009161	272,82263	241,117376	0
15.01.2021	01:32:22	0	0	4,519602	2,44575	52,1352	-0,961	78,277	0	1008,28	5,4	7,4	7,3	1	1	1	1	1	1	1	1	1	0	1	-70,613108	272,705698	242,975233	0
15.01.2021	01:32:23	0	0	2,485781	2,229	94,3992	-0,964	78,274	0	1008,26	5,3	7,4	7,3	1	1	1	1	1	1	1	1	1	0	1	-67,723749	272,734864	245,998768	0
15.01.2021	01:32:24	0	0	4,745582	2,3265	75,2328	-0,967	78,27	0	1008,32	5,3	7,4	7,3	1	1	1	1	1	1	1	1	1	0	1	-65,961945	272,824027	248,171023	0
15.01.2021	01:32:25	0	0	2,485781	2,6775	80,1684	-0,965	78,28	0	1008,3	5,3	7,4	7,3	1	1	1	1	1	1	1	1	1	0	1	-71,458774	272,707086	242,13595	0
15.01.2021	01:32:26	0	0	4,519602	2,73225	77,9796	-0,964	78,282	0	1008,3	5,4	7,4	7,3	1	1	1	1	1	1	1	1	1	0	1	-67,794221	272,839394	246,409527	0
15.01.2021	01:32:27	0	0	4,293622	2,80275	71,2476	-0,966	78,264	0	1008,26	5,3	7,4	7,3	1	1	1	1	1	1	1	1	1	0	1	-68,992248	272,882766	245,411342	0
15.01.2021	01:32:28	0	0	3,163722	2,78325	79,7904	-0,966	78,278	0	1008,32	5,4	7,4	7,3	1	1	1	1	1	1	1	1	1	0	1	-66,173362	272,743205	247,587537	0
15.01.2021	01:32:29	0	0	3,163722	2,70225	65,088	-0,965	78,266	0	1008,3	5,4	7,4	7,3	1	1	1	1	1	1	1	1	1	0	1	-70,401691	272,712638	243,218573	0
15.01.2021	01:32:30	0	0	3,502692	2,58	62,4204	-0,966	78,27	0	1008,28	5,5	7,4	7,3	1	1	1	1	1	1	1	1	1	0	1	-69,767442	272,702922	243,808133	0
15.01.2021	01:32:31	0	0	4,293622	2,39025	70,8516	-0,972	78,25	0	1008,28	5,3	7,4	7,3	1	1	1	1	1	1	1	1	1	0	1	-68,07611	272,810068	245,992573	0
15.01.2021	01:32:32	0	0	3,163722	2,223	45,1512	-0,965	78,264	0	1008,18	5,4	7,4	7,3	1	1	1	1	1	1	1	1	1	0	1	-68,992248	272,858969	245,301683	0
15.01.2021	01:32:33	0	0	4,971562	2,38725	64,2492	-0,975	78,25	0	1008,28	5,4	7,4	7,3	1	1	1	1	1	1	1	1	1	0	1	-71,952079	272,835201	242,232359	0
15.01.2021	01:32:34	0	0	4,745611	2,457	71,2476	-0,974	78,252	0	1008,38	5,4	7,4	7,2	1	1	1	1	1	1	1	1	1	0	1	-67,0895	272,72097	246,569093	0
15.01.2021	01:32:35	0	0	4,293622	2,78025	63,4896	-0,97	78,239	0	1008,16	5,4	7,4	7,3	1	1	1	1	1	1	1	1	1	0	1	-65,961945	272,700147	247,600866	0
15.01.2021	01:32:36	0	0	3,841662	2,9925	63,8676	-0,977	78,221	0	1008,32	5,4	7,4	7,3	1	1	1	1	1	1	1	1	1	0	1	-69,69697	272,758507	244,134348	0
15.01.2021	01:32:37	0	0	2,711761	2,92275	71,9856	-0,977	78,24	0	1008,34	5,5	7,4	7,3	1	1	1	1	1	1	1	1	1	0	1	-71,811135	272,863167	242,502136	0
15.01.2021	01:32:38	0	0	3,050732	2,78475	79,0272	-0,979	78,239	0	1008,36	5,4	7,4	7,3	1	1	1	1	1	1	1	1	1	0	1	-69,06272	272,748768	244,723777	0
15.01.2021	01:32:39	0	0	2,711761	2,61975	72,2916	-0,98	78,243	0	1008,22	5,4	7,4	7,3	1	1	1	1	1	1	1	1	1	0	1	-66,737139	272,690438	246,781017	0
15.01.2021	01:32:40	0	0	2,485781	2,577	68,0364	-0,977	78,228	0	1008,22	5,4	7,4	7,3	1	1	1	1	1	1	1	1	1	0	1	-71,881607	272,858969	242,412325	0
15.01.2021	01:32:41	0	0	3,163722	2,58375	77,6628	-0,975	78,253	0	1008,22	5,4	7,4	7,3	1	1	1	1	1	1	1	1	1	0	1	-68,851304	272,821234	245,268803	0
15.01.2021	01:32:42	0	0	3,841662	2,56125	66,9204	-0,977	78,263	0	1008,32	5,4	7,4	7,3	1	1	1	1	1	1	1	1	1	0	1	-72,586328	272,850577	241,668939	0
15.01.2021	01:32:43	0	0	4,519602	2,508	78,6636	-0,98	78,277	0	1008,3	5,4	7,4	7,3	1	1	1	1	1	1	1	1	1	0	1	-70,401691	272,776607	243,512936	0
15.01.2021	01:32:44	0	0	2,824751	2,5305	79,434	-0,977	78,28	0	1008,46	5,4	7,4	7,3	1	1	1	1	1	1	1	1	1	0	1	-68,639887	272,854773	245,63471	0
15.01.2021	01:32:45	0	0	3,615682	2,652	77,976	-0,98	78,276	0	1008,16	5,4	7,4	7,3	1	1	1	1	1	1	1	1	1	0	1	-67,653277	272,765467	246,210072	0
15.01.2021	01:32:46	0	0	4,406612	2,6385	84,8016	-0,978	78,291	0	1008,32	5,4	7,4	7,3	1	1	1	1	1	1	1	1	1	0	1	-67,159972	272,829613	246,998727	0
15.01.2021	01:32:47	0	0	4,519602	2,61075	70,2144	-0,978	78,312	0	1008,36	5,4	7,4	7,3	1	1	1	1	1	1	1	1	1	0	1	-71,881607	272,709862	241,725886	0
15.01.2021	01:32:48	0	0	3,276712	2,7375	77,2236	-0,982	78,302	0	1008,3	5,4	7,4	7,3	1	1	1	1	1	1	1	1	1	0	1	-71,740662	272,740425	242,00744	0
15.01.2021	01:32:49	0	0	4,745611	2,91225	76,8132	-0,982	78,302	0	1008,36	5,4	7,4	7,2	1	1	1	1	1	1	1	1	1	0	1	-67,371388	272,843587	246,851675	0
15.01.2021	01:32:50	0	0	3,276712	2,82075	69,4656	-0,987	78,297	0	1008,26	5,4	7,4	7,3	1	1	1	1	1	1	1	1	1	0	1	-68,005638	272,79333	245,985977	0
15.01.2021	01:32:51	0	0	4,519602	2,82975	70,2432	-0,986	78,286	0	1008,4	5,4	7,4	7,3	1	1	1	1	1	1	1	1	1	0	1	-72,30444	272,842189	241,912185	0
15.01.2021	01:32:52	0	0	3,728694	2,78175	74,268	-0,988	78,285	0	1008,22	5,4	7,4	7,2	1	1	1	1	1	1	1	1	1	0	1	-64,552502	272,844985	249,677002	0
15.01.2021	01:32:53	0	0	5,197543	2,85675	79,0416	-0,986	78,288	0	1008,26	5,4	7,4	7,3	1	1	1	1	1	1	1	1	1	0	1	-68,992248	272,764075	244,864693	0
15.01.2021	01:32:54	0	0	4,63262	2,8935	72,3024	-0,984	78,27	0	1008,36	5,4	7,4	7,2	1	1	1	1	1	1	1	1	1	0	1	-75,123326	272,840791	239,08686	0
15.01.2021	01:32:55	0	0	3,502713	2,9625	63,2016	-0,982	78,285	0	1008,4	5,4	7,4	7,2	1	1	1	1	1	1	1	1	1	0	1	-72,515856	272,779394	241,411597	0
15.01.2021	01:32:56	0	0	3,050732	2,982	66,5244	-0,985	78,304	0	1008,26	5,4	7,4	7,3	1	1	1	1	1	1	1	1	1	0	1	-70,049331	272,676576	243,405081	0
15.01.2021	01:32:57	0	0	3,163741	2,97075	68,7852	-0,992	78,294	0	1008,2	5,4	7,4	7,2	1	1	1	1	1	1	1	1	1	0	1	-68,710359	272,752942	245,095343	0
15.01.2021	01:32:58	0	0	2,937741	3,171	73,782	-0,984	78,31	0	1008,42	5,4	7,4	7,3	1	1	1	1	1	1	1	1	1	0	1	-70,119803	272,849179	244,129023	0
15.01.2021	01:32:59	0	0	4,858602	3,27225	66,9276	-0,988	78,307	0	1008,4	5,4	7,4	7,2	1	1	1	1	1	1	1	1	1	0	1	-70,894996	272,808672	243,167261	0
15.01.2021	01:33:00	0	0	3,276712	3,17625	63,4968	-0,996	78,322	0	1008,28	5,4	7,4	7,3	1	1	1	1	1	1	1	1	1	0	1	-73,29105	272,817046	240,809768	0
15.01.2021	01:33:01	0	0	3,276712	3,17625	63,4968	-0,996	78,322	0	1008,28	5,4	7,4	7,3	1	1	1	1	1	1	1	1	1	0	1	-73,29105	272,817046	240,809768	0
15.01.2021	01:33:02	0	0	5,197574	2,92875	66,546	-0,988	78,332	0	1008,48	5,4	7,4	7,2	1	1	1	1	1	1	1	1	1	0	1	-71,67019	272,771036	242,218793	0
15.01.2021	01:33:03	0	0	4,745582	2,832	69,48	-0,994	78,311	0	1008,24	5,4	7,4	7,3	1	1	1	1	1	1	1	1	1	0	1	-67,794221	272,828217	246,358044	0
15.01.2021	01:33:04	0	0	2,598787	3,051	72,3024	-0,997	78,321	0	1008,32	5,4	7,4	7,2	1	1	1	1	1	1	1	1	1	0	1	-73,643411	272,810068	240,425272	0
15.01.2021	01:33:05	0	0	3,276731	3,24975	68,418	-0,998	78,327	0	1008,32	5,4	7,4	7,2	1	1	1	1	1	1	1	1	1	0	1	-72,233968	272,687665	241,271435	0
15.01.2021	01:33:06	0	0	2,259801	3,324	92,6784	-0,994	78,326	0	1008,34	5,4	7,4	7,3	1	1	1	1	1	1	1	1	1	0	1	-71,811135	272,824027	242,321834	0
15.01.2021	01:33:07	0	0	4,632592	3,0285	66,5892	-0,999	78,322	0	1008,24	5,4	7,4	7,3	1	1	1	1	1	1	1	1	1	0	1	-68,569415	272,800302	245,454301	0
15.01.2021	01:33:08	0	0	4,858602	2,664	65,0988	-0,995	78,336	0	1008,32	5,4	7,4	7,2	1	1	1	1	1	1	1	1	1	0	1	-72,30444	272,819838	241,809237	0
15.01.2021	01:33:09	0	0	3,05075	2,45325	68,3892	-1,001	78,325	0	1008,22	5,4	7,4	7,2	1	1	1	1	1	1	1	1	1	0	1	-67,159972	272,741815	246,594528	0
15.01.2021	01:33:10	0	0	3,502713	2,271	67,2984	-0,999	78,355	0	1008,3	5,4	7,4	7,2	1	1	1	1	1	1	1	1	1	0	1	-67,159972	272,833804	247,01803	0
15.01.2021	01:33:11	0	0	4,067666	2,1255	65,4732	-1	78,356	0	1008,22	5,4	7,4	7,2	1	1	1	1	1	1	1	1	1	0	1	-70,542636	272,832407	243,628931	0
15.01.2021	01:33:12	0	0	5,310533	1,995	78,282	-0,995	78,357	0	1008,28	5,4	7,4	7,3	1	1	1	1	1	1	1	1	1	0	1	-69,69697	272,775214	244,211246	0
15.01.2021	01:33:13	0	0	4,63262	1,89525	71,6112	-0,998	78,382	0	1008,18	5,4	7,4	7,2	1	1	1	1	1	1	1	1	1	0	1	-67,653277	272,821234	246,46683	0
15.01.2021	01:33:14	0	0	2,146824	1,911	60,9408	-0,999	78,376	0	1008,3	5,4	7,4	7,2	1	1	1	1	1	1	1	1	1	0	1	-68,498943	272,691825	245,025591	0
15.01.2021	01:33:15	0	0	3,728694	1,9155	68,3964	-0,999	78,366	0	1008,3	5,4	7,4	7,2	1	1	1	1	1	1	1	1	1	0	1	-74,136716	272,687665	239,368687	0
15.01.2021	01:33:16	0	0	5,197574	1,9755	62,4312	-0,995	78,379	0	1008,48	5,4	7,4	7,2	1	1	1	1	1	1	1	1	1	0	1	-70,68358	272,640582	242,605355	0
15.01.2021	01:33:17	0	0	2,598771	2,03325	61,0236	-0,996	78,373	0	1008,46	5,3	7,4	7,3	1	1	1	1	1	1	1	1	1	0	1	-72,445384	272,723748	241,225989	0
15.01.2021	01:33:18	0	0	2,259815	2,09325	61,3044	-0,998	78,363	0	1008,32	5,4	7,4	7,2	1	1	1	1	1	1	1	1	1	0	1	-72,515856	272,812859	241,565679	0
15.01.2021	01:33:19	0	0	4,406639	2,07975	71,9928	-1,002	78,358	0	1008,34	5,4	7,4	7,2	1	1	1	1	1	1	1	1	1	0	1	-72,868217	272,732084	240,84151	0
15.01.2021	01:33:20	0	0	2,937741	2,067	73,44	-1,004	78,337	0	1008,18	5,4	7,4	7,3	1	1	1	1	1	1	1	1	1	0	1	-68,992248	272,640582	244,296687	0
15.01.2021	01:33:21	0	0	3,389722	2,0445	71,6112	-1,004	78,342	0	1008,26	5,4	7,4	7,2	1	1	1	1	1	1	1	1	1	0	1	-70,260747	272,657186	243,104515	0
15.01.2021	01:33:22	0	0	4,180657	2,06775	83,7252	-1	78,358	0	1008,3	5,4	7,4	7,2	1	1	1	1	1	1	1	1	1	0	1	-75,687104	272,729305	238,009837	0
15.01.2021	01:33:23	0	0	3,276731	2,19525	70,848	-0,999	78,339	0	1008,18	5,4	7,3	7,2	1	1	1	1	1	1	1	1	1	0	1	-71,317829	272,807277	242,738003	0
15.01.2021	01:33:24	0	0	4,519602	2,30325	91,1808	-1	78,348	0	1008,32	5,4	7,3	7,3	1	1	1	1	1	1	1	1	1	0	1	-71,247357	272,784967	242,705754	0
15.01.2021	01:33:25	0	0	3,728694	2,34975	76,8456	-0,999	78,341	0	1008,32	5,3	7,4	7,2	1	1	1	1	1	1	1	1	1	0	1	-68,428471	272,764075	245,42847	0
15.01.2021	01:33:26	0	0	4,63262	2,48925	79,02	-0,999	78,335	0	1008,36	5,3	7,3	7,2	1	1	1	1	1	1	1	1	1	0	1	-69,837914	272,647498	243,482814	0
15.01.2021	01:33:27	0	0	4,63262	2,45325	84,4452	-1,003	78,33	0	1008,44	5,4	7,3	7,2	1	1	1	1	1	1	1	1	1	0	1	-68,851304	272,773822	245,050501	0
15.01.2021	01:33:28	0	0	2,937759	2,44275	85,896	-1,01	78,318	0	1008,3	5,3	7,5	7,2	1	1	1	1	1	1	1	1	1	0	1	-69,908386	272,680733	243,565143	0
15.01.2021	01:33:29	0	0	3,05075	2,3805	65,4768	-1,01	78,312	0	1008,34	5,4	7,5	7,2	1	1	1	1	1	1	1	1	1	0	1	-71,106413	272,808672	242,955844	0
15.01.2021	01:33:30	0	0	3,841685	2,301	82,6128	-1,008	78,297	0	1008,22	5,4	7,3	7,2	1	1	1	1	1	1	1	1	1	0	1	-69,626498	272,647498	243,694231	0
15.01.2021	01:33:31	0	0	4,745611	2,29425	72,3024	-1,016	78,296	0	1008,22	5,4	7,4	7,2	1	1	1	1	1	1	1	1	1	0	1	-71,740662	272,776607	242,173965	0
15.01.2021	01:33:32	0	0	3,615704	2,30625	73,7856	-1,01	78,287	0	1008,32	5,3	7,4	7,2	1	1	1	1	1	1	1	1	1	0	1	-71,740662	272,773822	242,161142	0
15.01.2021	01:33:33	0	0	2,824768	2,33625	73,782	-1,011	78,28	0	1008,42	5,3	7,3	7,2	1	1	1	1	1	1	1	1	1	0	1	-67,371388	272,640582	245,917547	0
15.01.2021	01:33:34	0	0	4,745611	2,292	69,8652	-1,011	78,276	0	1008,36	5,3	7,3	7,2	1	1	1	1	1	1	1	1	1	0	1	-70,68358	272,70431	242,898377	0
15.01.2021	01:33:35	0	0	2,937759	2,23425	77,2236	-1,01	78,265	0	1008,3	5,3	7,3	7,2	1	1	1	1	1	1	1	1	1	0	1	-68,710359	272,621228	244,48963	0
15.01.2021	01:33:36	0	0	4,63262	2,40225	94,3668	-1,016	78,274	0	1008,26	5,3	7,3	7,2	1	1	1	1	1	1	1	1	1	0	1	-71,106413	272,727916	242,584135	0
15.01.2021	01:33:37	0	0	4,63262	2,46825	82,3392	-1,014	78,273	0	1008,34	5,3	7,3	7,2	1	1	1	1	1	1	1	1	1	0	1	-68,851304	272,639199	244,431275	0
15.01.2021	01:33:38	0	0	2,824768	2,448	97,2972	-1,016	78,27	0	1008,16	5,3	7,3	7,2	1	1	1	1	1	1	1	1	1	0	1	-70,331219	272,659955	243,046772	0
15.01.2021	01:33:39	0	0	2,598787	2,352	89,7264	-1,018	78,256	0	1008,32	5,3	7,3	7,2	1	1	1	1	1	1	1	1	1	0	1	-70,894996	272,673805	242,546672	0
15.01.2021	01:33:40	0	0	4,858602	2,2635	86,9796	-1,015	78,256	0	1008,44	5,3	7,4	7,2	1	1	1	1	1	1	1	1	1	0	1	-69,203665	272,814254	244,884298	0
15.01.2021	01:33:41	0	0	3,841685	2,427	85,158	-1,015	78,261	0	1008,08	5,3	7,3	7,2	1	1	1	1	1	1	1	1	1	0	1	-67,794221	272,665494	245,609234	0
15.01.2021	01:33:42	0	0	2,937759	2,50575	63,5148	-1,01	78,241	0	1008,42	5,4	7,4	7,2	1	1	1	1	1	1	1	1	1	0	1	-69,415081	272,633667	243,842075	0
15.01.2021	01:33:43	0	0	3,502713	2,69475	65,1024	-1,016	78,255	0	1008,22	5,3	7,4	7,2	1	1	1	1	1	1	1	1	1	0	1	-66,737139	272,664109	246,65995	0
15.01.2021	01:33:44	0	0	4,63262	2,83575	70,6356	-1,019	78,274	0	1008,3	5,3	7,3	7,2	1	1	1	1	1	1	1	1	1	0	1	-66,314306	272,765467	247,549043	0
15.01.2021	01:33:45	0	0	3,728694	3,06375	66,2472	-1,023	78,269	0	1008,32	5,4	7,4	7,2	1	1	1	1	1	1	1	1	1	0	1	-69,344609	272,79333	244,647005	0
15.01.2021	01:33:46	0	0	3,276712	3,1425	70,9344	-1,02	78,268	0	1008,24	5,3	7,4	7,3	1	1	1	1	1	1	1	1	1	0	1	-71,106413	272,665494	242,297042	0
15.01.2021	01:33:47	0	0	4,63262	3,276	84,8088	-1,021	78,27	0	1008,36	5,3	7,4	7,2	1	1	1	1	1	1	1	1	1	0	1	-68,498943	272,776607	245,415685	0
15.01.2021	01:33:48	0	0	3,841685	3,14325	83,3544	-1,029	78,24	0	1008,32	5,3	7,4	7,2	1	1	1	1	1	1	1	1	1	0	1	-74,91191	272,761291	238,932218	0
15.01.2021	01:33:49	0	0	4,858602	2,814	72	-1,031	78,25	0	1008,32	5,3	7,4	7,2	1	1	1	1	1	1	1	1	1	0	1	-71,952079	272,734864	241,770438	0
15.01.2021	01:33:50	0	0	3,615682	2,4765	71,7084	-1,024	78,237	0	1008,18	5,3	7,3	7,3	1	1	1	1	1	1	1	1	1	0	1	-72,515856	272,796119	241,488597	0
15.01.2021	01:33:51	0	0	4,406639	2,241	74,142	-1,02	78,249	0	1008,36	5,3	7,3	7,2	1	1	1	1	1	1	1	1	1	0	1	-70,824524	272,759899	243,013198	0
15.01.2021	01:33:52	0	0	3,954676	2,0535	75,2004	-1,022	78,255	0	1008,32	5,3	7,3	7,2	1	1	1	1	1	1	1	1	1	0	1	-69,908386	272,610178	243,240825	0
15.01.2021	01:33:53	0	0	2,824768	1,98675	76,0212	-1,027	78,239	0	1008,28	5,3	7,4	7,2	1	1	1	1	1	1	1	1	1	0	1	-68,992248	272,676576	244,462163	0
15.01.2021	01:33:54	0	0	3,615704	1,96425	63,9684	-1,023	78,243	0	1008,42	5,3	7,4	7,2	1	1	1	1	1	1	1	1	1	0	1	-69,767442	272,610178	243,381769	0
15.01.2021	01:33:55	0	0	4,63262	2,03775	79,038	-1,028	78,231	0	1008,14	5,3	7,4	7,2	1	1	1	1	1	1	1	1	1	0	1	-67,582805	272,614321	245,585444	0
15.01.2021	01:33:56	0	0	2,598787	2,17425	71,226	-1,032	78,227	0	1008,26	5,3	7,4	7,2	1	1	1	1	1	1	1	1	1	0	1	-66,666667	272,697373	246,883383	0
15.01.2021	01:33:57	0	0	3,728694	2,31375	81,9612	-1,024	78,237	0	1008,24	5,3	7,3	7,2	1	1	1	1	1	1	1	1	1	0	1	-65,961945	272,789148	248,010415	0
15.01.2021	01:33:58	0	0	3,163741	2,352	77,2272	-1,03	78,252	0	1008,46	5,3	7,4	7,2	1	1	1	1	1	1	1	1	1	0	1	-68,639887	272,697373	244,910162	0
15.01.2021	01:33:59	0	0	4,519629	2,45925	89,3232	-1,026	78,253	0	1008,32	5,3	7,4	7,2	1	1	1	1	1	1	1	1	1	0	1	-75,193798	272,618465	237,993493	0
15.01.2021	01:34:00	0	0	4,63262	2,466	75,6072	-1,032	78,272	0	1008,28	5,3	7,4	7,2	1	1	1	1	1	1	1	1	1	0	1	-73,854827	272,650266	239,478622	0
15.01.2021	01:34:01	0	0	4,63262	2,466	75,6072	-1,032	78,272	0	1008,28	5,3	7,4	7,2	1	1	1	1	1	1	1	1	1	0	1	-73,854827	272,650266	239,478622	0
15.01.2021	01:34:02	0	0	4,406639	2,61075	74,5092	-1,032	78,274	0	1008,5	5,3	7,4	7,2	1	1	1	1	1	1	1	1	1	0	1	-69,133192	272,78218	244,807088	0
15.01.2021	01:34:03	0	0	3,276731	2,72925	75,9852	-1,036	78,265	0	1008,42	5,3	7,4	7,2	1	1	1	1	1	1	1	1	1	0	1	-70,68358	272,653033	242,662593	0
15.01.2021	01:34:04	0	0	2,485796	2,81025	72,3096	-1,035	78,245	0	1008,26	5,3	7,4	7,2	1	1	1	1	1	1	1	1	1	0	1	-72,30444	272,769644	241,578134	0
15.01.2021	01:34:05	0	0	4,519602	2,5815	65,5308	-1,036	78,268	0	1008,4	5,3	7,4	7,3	1	1	1	1	1	1	1	1	1	0	1	-67,582805	272,776607	246,331823	0
15.01.2021	01:34:06	0	0	4,745611	2,31525	63,1764	-1,04	78,268	0	1008,34	5,3	7,4	7,2	1	1	1	1	1	1	1	1	1	0	1	-72,163495	272,689051	241,348284	0
15.01.2021	01:34:07	0	0	2,711778	2,148	74,5488	-1,037	78,282	0	1008,36	5,3	7,4	7,2	1	1	1	1	1	1	1	1	1	0	1	-69,274137	272,766859	244,59562	0
15.01.2021	01:34:08	0	0	3,389722	2,22375	77,9832	-1,04	78,26	0	1008,26	5,3	7,4	7,2	1	1	1	1	1	1	1	1	1	0	1	-70,472163	272,748768	243,314334	0
15.01.2021	01:34:09	0	0	3,615704	2,40225	74,196	-1,036	78,268	0	1008,44	5,3	7,4	7,2	1	1	1	1	1	1	1	1	1	0	1	-73,502467	272,759899	240,335256	0
15.01.2021	01:34:10	0	0	4,293622	2,43225	65,8332	-1,039	78,266	0	1008,38	5,3	7,4	7,3	1	1	1	1	1	1	1	1	1	0	1	-72,797745	272,610178	240,351466	0
15.01.2021	01:34:11	0	0	5,084583	2,40675	48,8268	-1,035	78,24	0	1008,52	5,3	7,4	7,2	1	1	1	1	1	1	1	1	1	0	1	-73,713883	272,700147	239,848928	0
15.01.2021	01:34:12	0	0	3,841662	2,33025	62,7876	-1,043	78,229	0	1008,34	5,3	7,4	7,3	1	1	1	1	1	1	1	1	1	0	1	-69,415081	272,764075	244,44186	0
15.01.2021	01:34:13	0	0	2,711778	2,33025	52,8948	-1,041	78,243	0	1008,64	5,3	7,4	7,2	1	1	1	1	1	1	1	1	1	0	1	-70,190275	272,775214	243,717941	0
15.01.2021	01:34:14	0	0	4,519602	2,5185	62,4384	-1,038	78,202	0	1008,34	5,3	7,4	7,3	1	1	1	1	1	1	1	1	1	0	1	-70,68358	272,655802	242,675318	0
15.01.2021	01:34:15	0	0	2,824768	2,6805	50,292	-1,047	78,189	0	1008,32	5,3	7,4	7,2	1	1	1	1	1	1	1	1	1	0	1	-71,106413	272,596374	241,979376	0
15.01.2021	01:34:16	0	0	4,406639	2,619	59,472	-1,042	78,191	0	1008,46	5,3	7,4	7,2	1	1	1	1	1	1	1	1	1	0	1	-74,700493	272,702922	238,875081	0
15.01.2021	01:34:17	0	0	4,745611	2,50875	65,4588	-1,04	78,197	0	1008,32	5,3	7,4	7,2	1	1	1	1	1	1	1	1	1	0	1	-72,938689	272,599134	240,15978	0
15.01.2021	01:34:18	0	0	3,050732	2,433	71,5968	-1,042	78,191	0	1008,34	5,3	7,4	7,3	1	1	1	1	1	1	1	1	1	0	1	-70,754052	272,665494	242,649403	0
15.01.2021	01:34:19	0	0	2,824751	2,4315	73,062	-1,046	78,179	0	1008,38	5,3	7,4	7,3	1	1	1	1	1	1	1	1	1	0	1	-74,136716	272,766859	239,73304	0
15.01.2021	01:34:20	0	0	4,745611	2,3205	86,2416	-1,05	78,191	0	1008,28	5,3	7,4	7,2	1	1	1	1	1	1	1	1	1	0	1	-70,613108	272,644731	242,694902	0
15.01.2021	01:34:21	0	0	4,858572	2,1975	85,9068	-1,046	78,228	0	1008,34	5,3	7,4	7,3	1	1	1	1	1	1	1	1	1	0	1	-73,572939	272,603274	239,544555	0
15.01.2021	01:34:22	0	0	3,163722	2,13525	85,5288	-1,05	78,239	0	1008,54	5,3	7,4	7,3	1	1	1	1	1	1	1	1	1	0	1	-69,485553	272,608797	243,657313	0
15.01.2021	01:34:23	0	0	4,180657	2,043	75,222	-1,05	78,254	0	1008,36	5,3	7,4	7,2	1	1	1	1	1	1	1	1	1	0	1	-67,653277	272,732084	246,05645	0
15.01.2021	01:34:24	0	0	3,276712	2,01975	94,0968	-1,051	78,267	0	1008,2	5,3	7,4	7,3	1	1	1	1	1	1	1	1	1	0	1	-66,45525	272,583959	246,573506	0
15.01.2021	01:34:25	0	0	3,728672	1,9725	70,2252	-1,051	78,277	0	1008,32	5,3	7,4	7,3	1	1	1	1	1	1	1	1	1	0	1	-71,317829	272,63505	241,945681	0
15.01.2021	01:34:26	0	0	4,745582	2,04	77,2128	-1,051	78,273	0	1008,2	5,3	7,4	7,3	1	1	1	1	1	1	1	1	1	0	1	-68,992248	272,590855	244,068188	0
15.01.2021	01:34:27	0	0	2,485781	2,07	62,3988	-1,059	78,267	0	1008,16	5,3	7,4	7,3	1	1	1	1	1	1	1	1	1	0	1	-68,07611	272,70431	245,505847	0
15.01.2021	01:34:28	0	0	5,423588	2,151	67,3128	-1,056	78,298	0	1008,06	5,3	7,4	7,1	1	1	1	1	1	1	1	1	1	0	1	-75,546159	272,61294	237,615743	0
15.01.2021	01:34:29	0	0	2,372805	2,35875	84,4452	-1,05	78,304	0	1008,18	5,3	7,4	7,2	1	1	1	1	1	1	1	1	1	0	1	-72,445384	272,583959	240,583372	0
15.01.2021	01:34:30	0	0	4,858572	2,586	77,5908	-1,053	78,314	0	1008,26	5,3	7,4	7,3	1	1	1	1	1	1	1	1	1	0	1	-72,374912	272,673805	241,066757	0
15.01.2021	01:34:31	0	0	3,615704	2,6565	82,5912	-1,053	78,327	0	1008,28	5,3	7,4	7,2	1	1	1	1	1	1	1	1	1	0	1	-66,878083	272,754333	246,934022	0
15.01.2021	01:34:32	0	0	5,197543	2,77425	74,5524	-1,057	78,338	0	1008,44	5,3	7,4	7,3	1	1	1	1	1	1	1	1	1	0	1	-72,938689	272,62952	240,299406	0
15.01.2021	01:34:33	0	0	3,163722	2,69775	53,7408	-1,06	78,321	0	1008,36	5,3	7,4	7,3	1	1	1	1	1	1	1	1	1	0	1	-75,052854	272,766859	238,816902	0
15.01.2021	01:34:34	0	0	4,858602	2,58825	78,2676	-1,061	78,344	0	1008,24	5,3	7,4	7,2	1	1	1	1	1	1	1	1	1	0	1	-71,176885	272,69876	242,379545	0
15.01.2021	01:34:35	0	0	3,163722	2,487	70,6104	-1,054	78,367	0	1008,32	5,3	7,4	7,3	1	1	1	1	1	1	1	1	1	0	1	-71,176885	272,594994	241,902565	0
15.01.2021	01:34:36	0	0	4,067642	2,424	59,8716	-1,055	78,359	0	1008,42	5,3	7,4	7,3	1	1	1	1	1	1	1	1	1	0	1	-73,150106	272,633667	240,107051	0
15.01.2021	01:34:37	0	0	3,615704	2,36925	75,0168	-1,056	78,373	0	1008,36	5,3	7,4	7,2	1	1	1	1	1	1	1	1	1	0	1	-70,965469	272,762683	242,885066	0
15.01.2021	01:34:38	0	0	2,598771	2,47725	65,0952	-1,058	78,36	0	1008,34	5,3	7,4	7,3	1	1	1	1	1	1	1	1	1	0	1	-72,586328	272,708474	241,01478	0
15.01.2021	01:34:39	0	0	2,711778	2,688	72,0036	-1,064	78,368	0	1008,14	5,3	7,4	7,2	1	1	1	1	1	1	1	1	1	0	1	-73,995772	272,757116	239,829141	0
15.01.2021	01:34:40	0	0	3,05075	2,78625	63,8712	-1,062	78,348	0	1008,22	5,3	7,4	7,2	1	1	1	1	1	1	1	1	1	0	1	-67,019027	272,690438	246,499129	0
15.01.2021	01:34:41	0	0	2,485796	2,85525	65,9772	-1,061	78,342	0	1008,3	5,3	7,4	7,2	1	1	1	1	1	1	1	1	1	0	1	-76,039464	272,588096	237,008298	0
15.01.2021	01:34:42	0	0	4,519602	2,90175	71,5932	-1,061	78,331	0	1008,38	5,3	7,4	7,3	1	1	1	1	1	1	1	1	1	0	1	-71,247357	272,757116	242,577555	0
15.01.2021	01:34:43	0	0	2,937741	2,976	81,2088	-1,062	78,333	0	1008,36	5,2	7,4	7,3	1	1	1	1	1	1	1	1	1	0	1	-68,921776	272,686278	244,577251	0
15.01.2021	01:34:44	0	0	3,615682	3,0705	77,9724	-1,062	78,329	0	1008,36	5,3	7,4	7,3	1	1	1	1	1	1	1	1	1	0	1	-71,952079	272,589475	241,10202	0
15.01.2021	01:34:45	0	0	2,824768	3,2325	82,9692	-1,066	78,32	0	1008,2	5,3	7,4	7,2	1	1	1	1	1	1	1	1	1	0	1	-74,136716	272,697373	239,413334	0
15.01.2021	01:34:46	0	0	3,502713	3,186	78,6636	-1,066	78,305	0	1008,16	5,3	7,4	7,2	1	1	1	1	1	1	1	1	1	0	1	-69,344609	272,747377	244,435488	0
15.01.2021	01:34:47	0	0	4,180657	2,7945	78,6636	-1,075	78,322	0	1008,28	5,3	7,3	7,2	1	1	1	1	1	1	1	1	1	0	1	-74,136716	272,607416	238,999806	0
15.01.2021	01:34:48	0	0	3,163741	2,68575	81,5796	-1,069	78,314	0	1008,22	5,3	7,4	7,2	1	1	1	1	1	1	1	1	1	0	1	-70,542636	272,639199	242,739943	0
15.01.2021	01:34:49	0	0	3,728694	2,81175	68,0184	-1,067	78,328	0	1008,22	5,3	7,4	7,2	1	1	1	1	1	1	1	1	1	0	1	-70,542636	272,743205	243,218263	0
15.01.2021	01:34:50	0	0	3,954676	2,883	63,1548	-1,067	78,337	0	1008,36	5,4	7,4	7,2	1	1	1	1	1	1	1	1	1	0	1	-72,727273	272,695986	240,816397	0
15.01.2021	01:34:51	0	0	4,745611	2,8755	71,6076	-1,069	78,356	0	1008,4	5,4	7,4	7,2	1	1	1	1	1	1	1	1	1	0	1	-66,948555	272,585338	246,086536	0
15.01.2021	01:34:52	0	0	3,163741	2,766	67,284	-1,076	78,37	0	1008,32	5,3	7,4	7,2	1	1	1	1	1	1	1	1	1	0	1	-67,371388	272,648882	245,9557	0
15.01.2021	01:34:53	0	0	3,841685	2,736	73,4472	-1,076	78,385	0	1008,26	5,3	7,4	7,2	1	1	1	1	1	1	1	1	1	0	1	-68,710359	272,594994	244,369091	0
15.01.2021	01:34:54	0	0	3,05075	2,7375	82,9656	-1,072	78,401	0	1008,32	5,3	7,4	7,2	1	1	1	1	1	1	1	1	1	0	1	-70,894996	272,618465	242,292295	0
15.01.2021	01:34:55	0	0	3,841685	2,6715	78,2676	-1,077	78,403	0	1008,4	5,4	7,4	7,2	1	1	1	1	1	1	1	1	1	0	1	-67,582805	272,750159	246,210094	0
15.01.2021	01:34:56	0	0	2,824768	2,66325	80,5176	-1,073	78,42	0	1008,34	5,3	7,4	7,2	1	1	1	1	1	1	1	1	1	0	1	-73,220578	272,761291	240,62355	0
15.01.2021	01:34:57	0	0	4,858602	2,75925	73,152	-1,075	78,425	0	1008,38	5,3	7,4	7,2	1	1	1	1	1	1	1	1	1	0	1	-74,136716	272,653033	239,209457	0
15.01.2021	01:34:58	0	0	2,937759	2,8905	74,9232	-1,074	78,44	0	1008,46	5,3	7,4	7,2	1	1	1	1	1	1	1	1	1	0	1	-68,569415	272,758507	245,261902	0
15.01.2021	01:34:59	0	0	2,146824	3,1245	74,9088	-1,08	78,446	0	1008,32	5,4	7,4	7,2	1	1	1	1	1	1	1	1	1	0	1	-69,767442	272,621228	243,432547	0
15.01.2021	01:35:00	0	0	2,824768	3,1455	57,7224	-1,077	78,45	0	1008,3	5,4	7,3	7,2	1	1	1	1	1	1	1	1	1	0	1	-74,700493	272,757116	239,124419	0
15.01.2021	01:35:01	0	0	2,824768	3,1455	57,7224	-1,077	78,45	0	1008,3	5,4	7,3	7,2	1	1	1	1	1	1	1	1	1	0	1	-74,700493	272,757116	239,124419	0
15.01.2021	01:35:02	0	0	3,05075	3,01875	72,2844	-1,058	78,462	0	1008,32	5,4	7,4	7,2	1	1	1	1	1	1	1	1	1	0	1	-68,851304	272,62952	244,386792	0
15.01.2021	01:35:03	0	0	2,824768	3,1575	79,7688	-1,08	78,453	0	1008,34	5,3	7,4	7,2	1	1	1	1	1	1	1	1	1	0	1	-71,035941	272,607416	242,100582	0
15.01.2021	01:35:04	0	0	2,598787	3,28575	84,8052	-1,082	78,464	0	1008,4	5,4	7,4	7,2	1	1	1	1	1	1	1	1	1	0	1	-68,710359	272,754333	245,101746	0
15.01.2021	01:35:05	0	0	5,536546	3,2145	54,4896	-1,082	78,472	0	1008,26	5,3	7,3	7,2	1	1	1	1	1	1	1	1	1	0	1	-73,431994	272,693212	240,098918	0
15.01.2021	01:35:06	0	0	4,971592	3,34875	58,1256	-1,083	78,491	0	1008,48	5,3	7,4	7,2	1	1	1	1	1	1	1	1	1	0	1	-69,415081	272,589475	243,639018	0
15.01.2021	01:35:07	0	0	5,649537	3,789	73,4508	-1,088	78,499	0	1008,22	5,4	7,4	7,2	1	1	1	1	1	1	1	1	1	0	1	-72,727273	272,65165	240,612538	0
15.01.2021	01:35:08	0	0	4,63262	3,7725	72,8028	-1,086	78,539	0	1008,3	5,4	7,3	7,2	1	1	1	1	1	1	1	1	1	0	1	-71,952079	272,593614	241,121032	0
15.01.2021	01:35:09	0	0	4,858602	3,50325	63,1872	-1,086	78,549	0	1008,52	5,4	7,4	7,2	1	1	1	1	1	1	1	1	1	0	1	-74,066244	272,621228	239,133745	0
15.01.2021	01:35:10	0	0	2,937759	3,45675	72,3168	-1,079	78,59	0	1008,42	5,4	7,3	7,2	1	1	1	1	1	1	1	1	1	0	1	-68,217054	272,604655	244,906781	0
15.01.2021	01:35:11	0	0	4,63262	3,49575	62,4276	-1,082	78,603	0	1008,36	5,2	7,3	7,2	1	1	1	1	1	1	1	1	1	0	1	-73,784355	272,730695	239,918978	0
15.01.2021	01:35:12	0	0	2,711778	3,387	61,6824	-1,082	78,642	0	1008,28	5,4	7,4	7,2	1	1	1	1	1	1	1	1	1	0	1	-70,049331	272,764075	243,807611	0
15.01.2021	01:35:13	0	0	2,711778	3,21525	63,4716	-1,092	78,638	0	1008,24	5,3	7,3	7,2	1	1	1	1	1	1	1	1	1	0	1	-71,317829	272,590855	241,742606	0
15.01.2021	01:35:14	0	0	3,728694	3,0615	76,3992	-1,084	78,647	0	1008,26	5,3	7,3	7,2	1	1	1	1	1	1	1	1	1	0	1	-72,233968	272,615702	240,940628	0
15.01.2021	01:35:15	0	0	4,971592	3,1365	72,3708	-1,087	78,637	0	1008,28	5,3	7,3	7,2	1	1	1	1	1	1	1	1	1	0	1	-68,428471	272,737644	245,306838	0
15.01.2021	01:35:16	0	0	3,615704	3,0705	69,156	-1,086	78,671	0	1008,3	5,3	7,3	7,2	1	1	1	1	1	1	1	1	1	0	1	-70,190275	272,650266	243,143175	0
15.01.2021	01:35:17	0	0	4,63262	2,6655	57,7332	-1,085	78,677	0	1008,48	5,4	7,3	7,2	1	1	1	1	1	1	1	1	1	0	1	-70,049331	272,585338	242,985761	0
15.01.2021	01:35:18	0	0	3,841685	2,472	65,556	-1,086	78,671	0	1008,26	5,2	7,4	7,2	1	1	1	1	1	1	1	1	1	0	1	-76,462297	272,608797	236,680569	0
15.01.2021	01:35:19	0	0	3,841685	2,60625	57,7368	-1,092	78,685	0	1008,42	5,4	7,4	7,2	1	1	1	1	1	1	1	1	1	0	1	-72,445384	272,70431	241,136573	0
15.01.2021	01:35:20	0	0	3,163741	2,73225	80,91	-1,089	78,691	0	1008,32	5,3	7,3	7,2	1	1	1	1	1	1	1	1	1	0	1	-71,952079	272,58258	241,070343	0
15.01.2021	01:35:21	0	0	3,05075	2,76525	57,0492	-1,094	78,672	0	1008,24	5,4	7,4	7,2	1	1	1	1	1	1	1	1	1	0	1	-68,005638	272,694598	245,531653	0
15.01.2021	01:35:22	0	0	4,63262	3,07125	79,7472	-1,088	78,683	0	1008,42	5,3	7,3	7,2	1	1	1	1	1	1	1	1	1	0	1	-69,06272	272,766859	244,807036	0
15.01.2021	01:35:23	0	0	4,858602	3,552	71,2152	-1,092	78,679	0	1008,36	5,3	7,3	7,2	1	1	1	1	1	1	1	1	1	0	1	-68,07611	272,644731	245,2319	0
15.01.2021	01:35:24	0	0	4,519629	3,86925	75,6	-1,094	78,68	0	1008,48	5,3	7,3	7,2	1	1	1	1	1	1	1	1	1	0	1	-69,69697	272,761291	244,147158	0
15.01.2021	01:35:25	0	0	3,841685	3,95175	93,3192	-1,088	78,688	0	1008,2	5,4	7,3	7,2	1	1	1	1	1	1	1	1	1	0	1	-70,472163	272,729305	243,224777	0
15.01.2021	01:35:26	0	0	3,954676	4,143	92,6532	-1,088	78,664	0	1008,4	5,3	7,4	7,2	1	1	1	1	1	1	1	1	1	0	1	-68,921776	272,733474	244,794346	0
15.01.2021	01:35:27	0	0	2,937759	4,03575	75,2148	-1,097	78,659	0	1008,18	5,2	7,3	7,2	1	1	1	1	1	1	1	1	1	0	1	-70,260747	272,628138	242,970996	0
15.01.2021	01:35:28	0	0	3,05075	3,98475	76,8456	-1,087	78,672	0	1008,5	5,3	7,3	7,2	1	1	1	1	1	1	1	1	1	0	1	-66,666667	272,75155	247,132634	0
15.01.2021	01:35:29	0	0	4,858602	3,9885	64,206	-1,093	78,664	0	1008,26	5,3	7,4	7,2	1	1	1	1	1	1	1	1	1	0	1	-73,361522	272,737644	240,373786	0
15.01.2021	01:35:30	0	0	4,63262	3,96525	70,8624	-1,089	78,686	0	1008,38	5,2	7,3	7,2	1	1	1	1	1	1	1	1	1	0	1	-69,908386	272,597754	243,183743	0
15.01.2021	01:35:31	0	0	4,067666	4,2195	70,2252	-1,094	78,706	0	1008,34	5,3	7,4	7,2	1	1	1	1	1	1	1	1	1	0	1	-72,374912	272,62952	240,863184	0
15.01.2021	01:35:32	0	0	4,971592	4,275	82,5948	-1,097	78,736	0	1008,36	5,3	7,3	7,2	1	1	1	1	1	1	1	1	1	0	1	-68,287526	272,62261	244,918812	0
15.01.2021	01:35:33	0	0	4,971592	4,2555	85,9248	-1,094	78,75	0	1008,38	5,3	7,3	7,2	1	1	1	1	1	1	1	1	1	0	1	-74,136716	272,593614	238,936395	0
15.01.2021	01:35:34	0	0	5,310565	4,15875	84,4164	-1,096	78,767	0	1008,28	5,3	7,3	7,2	1	1	1	1	1	1	1	1	1	0	1	-68,357999	272,647498	244,96273	0
15.01.2021	01:35:35	0	0	2,711778	4,13625	92,2824	-1,096	78,804	0	1008,32	5,3	7,3	7,2	1	1	1	1	1	1	1	1	1	0	1	-68,780832	272,773822	245,120973	0
15.01.2021	01:35:36	0	0	2,937759	4,0335	75,2436	-1,092	78,824	0	1008,34	5,3	7,3	7,2	1	1	1	1	1	1	1	1	1	0	1	-69,767442	272,669649	243,655118	0
15.01.2021	01:35:37	0	0	5,084583	4,16175	83,376	-1,093	78,83	0	1008,34	5,3	7,3	7,2	1	1	1	1	1	1	1	1	1	0	1	-72,727273	272,734864	240,995244	0
15.01.2021	01:35:38	0	0	2,824768	4,65375	86,9868	-1,101	78,824	0	1008,3	5,3	7,3	7,2	1	1	1	1	1	1	1	1	1	0	1	-72,797745	272,604655	240,326091	0
15.01.2021	01:35:39	0	0	3,615704	4,9395	88,11	-1,098	78,828	0	1008,4	5,3	7,3	7,2	1	1	1	1	1	1	1	1	1	0	1	-73,150106	272,722359	240,514877	0
15.01.2021	01:35:40	0	0	2,372805	4,563	88,1136	-1,095	78,829	0	1008,42	5,3	7,3	7,2	1	1	1	1	1	1	1	1	1	0	1	-73,009161	272,778	240,911879	0
15.01.2021	01:35:41	0	0	3,05075	4,23825	82,0584	-1,095	78,808	0	1008,3	5,4	7,3	7,2	1	1	1	1	1	1	1	1	1	0	1	-71,458774	272,672419	241,976525	0
15.01.2021	01:35:42	0	0	2,711778	4,2375	81,9576	-1,102	78,842	0	1008,26	5,3	7,3	7,2	1	1	1	1	1	1	1	1	1	0	1	-69,978858	272,601894	243,132293	0
15.01.2021	01:35:43	0	0	3,05075	4,014	81,6012	-1,093	78,848	0	1008,44	5,4	7,3	7,2	1	1	1	1	1	1	1	1	1	0	1	-69,69697	272,601894	243,414182	0
15.01.2021	01:35:44	0	0	3,954676	3,61275	73,4328	-1,094	78,857	0	1008,42	5,3	7,3	7,2	1	1	1	1	1	1	1	1	1	0	1	-74,066244	272,707086	239,52848	0
15.01.2021	01:35:45	0	0	2,711778	3,31875	79,398	-1,096	78,857	0	1008,38	5,3	7,3	7,2	1	1	1	1	1	1	1	1	1	0	1	-72,727273	272,78218	241,213008	0
15.01.2021	01:35:46	0	0	4,406639	3,13125	69,1596	-1,096	78,863	0	1008,4	5,3	7,3	7,2	1	1	1	1	1	1	1	1	1	0	1	-73,713883	272,687665	239,79152	0
15.01.2021	01:35:47	0	0	3,728694	3,09975	73,0476	-1,094	78,874	0	1008,26	5,3	7,3	7,2	1	1	1	1	1	1	1	1	1	0	1	-72,515856	272,765467	241,347492	0
15.01.2021	01:35:48	0	0	3,954676	3,29325	82,35	-1,094	78,88	0	1008,42	5,3	7,3	7,2	1	1	1	1	1	1	1	1	1	0	1	-73,784355	272,676576	239,670056	0
15.01.2021	01:35:49	0	0	4,406639	3,44775	71,622	-1,091	78,92	0	1008,4	5,3	7,3	7,2	1	1	1	1	1	1	1	1	1	0	1	-68,146582	272,772429	245,748812	0
15.01.2021	01:35:50	0	0	2,937759	3,31575	66,2112	-1,097	78,948	0	1008,32	5,4	7,3	7,2	1	1	1	1	1	1	1	1	1	0	1	-74,630021	272,725137	239,047743	0
15.01.2021	01:35:51	0	0	3,728694	3,27375	76,8348	-1,09	78,983	0	1008,34	5,3	7,3	7,2	1	1	1	1	1	1	1	1	1	0	1	-70,894996	272,608797	242,24787	0
15.01.2021	01:35:52	0	0	3,954676	3,2805	66,9132	-1,097	79,003	0	1008,24	5,3	7,3	7,2	1	1	1	1	1	1	1	1	1	0	1	-69,626498	272,679347	243,840658	0
15.01.2021	01:35:53	0	0	3,728694	3,13575	65,4624	-1,095	79,012	0	1008,24	5,3	7,3	7,2	1	1	1	1	1	1	1	1	1	0	1	-73,431994	272,78218	240,508286	0
15.01.2021	01:35:54	0	0	3,502713	3,039	76,3596	-1,098	79,041	0	1008,52	5,3	7,3	7,2	1	1	1	1	1	1	1	1	1	0	1	-69,837914	272,644731	243,470095	0
15.01.2021	01:35:55	0	0	4,63262	3,027	66,5316	-1,098	79,056	0	1008,24	5,4	7,3	7,2	1	1	1	1	1	1	1	1	1	0	1	-68,569415	272,671034	244,859514	0
15.01.2021	01:35:56	0	0	3,502713	3,02475	61,6932	-1,098	79,077	0	1008,32	5,3	7,3	7,2	1	1	1	1	1	1	1	1	1	0	1	-73,220578	272,614321	239,947671	0
15.01.2021	01:35:57	0	0	4,63262	3,09975	63,1836	-1,096	79,084	0	1008,4	5,3	7,3	7,2	1	1	1	1	1	1	1	1	1	0	1	-70,542636	272,732084	243,167092	0
15.01.2021	01:35:58	0	0	4,971592	3,38625	71,2296	-1,096	79,108	0	1008,3	5,4	7,3	7,2	1	1	1	1	1	1	1	1	1	0	1	-71,106413	272,61294	242,055489	0
15.01.2021	01:35:59	0	0	5,084583	3,5205	79,02	-1,093	79,128	0	1008,3	5,3	7,3	7,2	1	1	1	1	1	1	1	1	1	0	1	-73,713883	272,755724	240,104626	0
15.01.2021	01:36:00	0	0	2,824768	3,4245	80,1396	-1,094	79,157	0	1008,42	5,4	7,3	7,2	1	1	1	1	1	1	1	1	1	0	1	-70,68358	272,659955	242,694411	0
15.01.2021	01:36:01	0	0	4,745611	3,255	65,4516	-1,091	79,181	0	1008,32	5,3	7,3	7,2	1	1	1	1	1	1	1	1	1	0	1	-70,68358	272,65165	242,656231	0
15.01.2021	01:36:02	0	0	4,745611	3,255	65,4516	-1,091	79,181	0	1008,32	5,3	7,3	7,2	1	1	1	1	1	1	1	1	1	0	1	-70,68358	272,65165	242,656231	0
15.01.2021	01:36:03	0	0	3,276731	3,195	67,3776	-1,089	79,169	0	1008,36	5,3	7,3	7,2	1	1	1	1	1	1	1	1	1	0	1	-68,357999	272,646115	244,95637	0
15.01.2021	01:36:04	0	0	2,598787	3,225	54,1188	-1,091	79,181	0	1008,38	5,3	7,3	7,2	1	1	1	1	1	1	1	1	1	0	1	-71,247357	272,765467	242,615991	0
15.01.2021	01:36:05	0	0	3,728694	3,297	60,5808	-1,092	79,166	0	1008,34	5,3	7,3	7,2	1	1	1	1	1	1	1	1	1	0	1	-70,824524	272,647498	242,496204	0
15.01.2021	01:36:06	0	0	3,728694	3,26475	62,0568	-1,088	79,138	0	1008,3	5,3	7,3	7,2	1	1	1	1	1	1	1	1	1	0	1	-74,91191	272,730695	238,791424	0
15.01.2021	01:36:07	0	0	2,937759	3,19425	66,9132	-1,089	79,157	0	1008,4	5,4	7,3	7,2	1	1	1	1	1	1	1	1	1	0	1	-73,009161	272,630902	240,235287	0
15.01.2021	01:36:08	0	0	3,389722	3,28425	65,088	-1,089	79,135	0	1008,44	5,4	7,3	7,2	1	1	1	1	1	1	1	1	1	0	1	-68,780832	272,759899	245,056891	0
15.01.2021	01:36:09	0	0	4,63262	3,45	68,4	-1,095	79,129	0	1008,3	5,3	7,3	7,2	1	1	1	1	1	1	1	1	1	0	1	-68,710359	272,797513	245,300514	0
15.01.2021	01:36:10	0	0	3,502713	3,54825	80,154	-1,09	79,14	0	1008,42	5,4	7,3	7,2	1	1	1	1	1	1	1	1	1	0	1	-70,894996	272,687665	242,610406	0
15.01.2021	01:36:11	0	0	3,163741	3,429	80,9244	-1,09	79,137	0	1008,4	5,3	7,3	7,2	1	1	1	1	1	1	1	1	1	0	1	-69,69697	272,676576	243,757441	0
15.01.2021	01:36:12	0	0	3,728694	3,39675	75,2364	-1,089	79,125	0	1008,4	5,3	7,3	7,2	1	1	1	1	1	1	1	1	1	0	1	-73,502467	272,803092	240,534094	0
15.01.2021	01:36:13	0	0	3,502713	3,3975	73,4436	-1,09	79,155	0	1008,36	5,3	7,3	7,2	1	1	1	1	1	1	1	1	1	0	1	-75,757576	272,67519	237,690464	0
15.01.2021	01:36:14	0	0	3,728694	3,6465	67,2912	-1,089	79,167	0	1008,4	5,4	7,3	7,2	1	1	1	1	1	1	1	1	1	0	1	-77,096547	272,800302	236,927169	0
15.01.2021	01:36:15	0	0	2,598787	3,96825	70,2	-1,084	79,198	0	1008,3	5,4	7,3	7,2	1	1	1	1	1	1	1	1	1	0	1	-68,005638	272,741815	245,748862	0
15.01.2021	01:36:16	0	0	2,937759	4,17075	63,8676	-1,087	79,23	0	1008,34	5,4	7,3	7,2	1	1	1	1	1	1	1	1	1	0	1	-75,334743	272,805882	238,714665	0
15.01.2021	01:36:17	0	0	4,519629	4,17675	72,306	-1,087	79,258	0	1008,42	5,3	7,3	7,2	1	1	1	1	1	1	1	1	1	0	1	-71,317829	272,772429	242,577564	0
15.01.2021	01:36:18	0	0	4,858602	4,098	84,8124	-1,091	79,311	0	1008,38	5,3	7,3	7,2	1	1	1	1	1	1	1	1	1	0	1	-68,851304	272,659955	244,526687	0
15.01.2021	01:36:19	0	0	5,197574	3,861	73,7856	-1,086	79,324	0	1008,3	5,4	7,3	7,2	1	1	1	1	1	1	1	1	1	0	1	-68,569415	272,639199	244,713163	0
15.01.2021	01:36:20	0	0	4,180657	3,5055	69,156	-1,081	79,387	0	1008,24	5,3	7,3	7,2	1	1	1	1	1	1	1	1	1	0	1	-67,300916	272,687665	246,204487	0
15.01.2021	01:36:21	0	0	3,05075	3,17925	59,5044	-1,082	79,411	0	1008,22	5,3	7,3	7,2	1	1	1	1	1	1	1	1	1	0	1	-75,475687	272,811463	238,599421	0
15.01.2021	01:36:22	0	0	4,971592	3,09525	71,2224	-1,081	79,439	0	1008,42	5,4	7,3	7,2	1	1	1	1	1	1	1	1	1	0	1	-68,07611	272,712638	245,544155	0
15.01.2021	01:36:23	0	0	5,084583	3,10575	75,24	-1,081	79,451	0	1008,38	5,4	7,3	7,2	1	1	1	1	1	1	1	1	1	0	1	-70,68358	272,641965	242,611713	0
15.01.2021	01:36:24	0	0	2,937759	3,22275	55,5588	-1,076	79,455	0	1008,28	5,3	7,3	7,2	1	1	1	1	1	1	1	1	1	0	1	-71,035941	272,768251	242,840224	0
15.01.2021	01:36:25	0	0	2,372805	3,34725	52,902	-1,085	79,474	0	1008,26	5,3	7,3	7,2	1	1	1	1	1	1	1	1	1	0	1	-75,052854	272,817046	239,047964	0
15.01.2021	01:36:26	0	0	4,406639	3,4635	70,5996	-1,085	79,474	0	1008,22	5,4	7,3	7,2	1	1	1	1	1	1	1	1	1	0	1	-72,868217	272,796119	241,136236	0
15.01.2021	01:36:27	0	0	3,05075	3,21075	49,212	-1,075	79,491	0	1008,44	5,3	7,3	7,2	1	1	1	1	1	1	1	1	1	0	1	-68,357999	272,653033	244,988174	0
15.01.2021	01:36:28	0	0	4,971592	2,97675	60,5664	-1,077	79,501	0	1008,4	5,4	7,3	7,2	1	1	1	1	1	1	1	1	1	0	1	-71,740662	272,701535	241,82853	0
15.01.2021	01:36:29	0	0	2,372805	2,7255	52,5168	-1,076	79,491	0	1008,36	5,4	7,3	7,2	1	1	1	1	1	1	1	1	1	0	1	-73,784355	272,819838	240,329321	0
15.01.2021	01:36:30	0	0	3,05075	2,6385	59,886	-1,072	79,502	0	1008,38	5,3	7,3	7,2	1	1	1	1	1	1	1	1	1	0	1	-68,569415	272,643348	244,732236	0
15.01.2021	01:36:31	0	0	2,824768	2,61825	59,094	-1,072	79,49	0	1008,26	5,4	7,3	7,2	1	1	1	1	1	1	1	1	1	0	1	-70,331219	272,755724	243,48729	0
15.01.2021	01:36:32	0	0	3,05075	2,736	67,0068	-1,073	79,479	0	1008,36	5,4	7,3	7,2	1	1	1	1	1	1	1	1	1	0	1	-74,841438	272,81565	239,252952	0
15.01.2021	01:36:33	0	0	3,615704	2,74425	60,5484	-1,067	79,473	0	1008,38	5,3	7,3	7,2	1	1	1	1	1	1	1	1	1	0	1	-73,29105	272,70431	240,290907	0
15.01.2021	01:36:34	0	0	4,745611	2,70225	67,2768	-1,07	79,461	0	1008,22	5,4	7,3	7,2	1	1	1	1	1	1	1	1	1	0	1	-71,317829	272,803092	242,718731	0
15.01.2021	01:36:35	0	0	2,824768	2,673	72,6876	-1,069	79,447	0	1008,28	5,3	7,3	7,2	1	1	1	1	1	1	1	1	1	0	1	-69,485553	272,659955	243,892438	0
15.01.2021	01:36:36	0	0	4,745611	2,5875	73,0656	-1,071	79,431	0	1008,34	5,4	7,3	7,2	1	1	1	1	1	1	1	1	1	0	1	-71,529246	272,726526	242,154909	0
15.01.2021	01:36:37	0	0	3,615704	2,57325	76,8528	-1,069	79,41	0	1008,38	5,4	7,3	7,2	1	1	1	1	1	1	1	1	1	0	1	-68,710359	272,65165	244,629451	0
15.01.2021	01:36:38	0	0	2,711778	2,514	80,5176	-1,073	79,403	0	1008,28	5,3	7,3	7,2	1	1	1	1	1	1	1	1	1	0	1	-69,69697	272,752942	244,108733	0
15.01.2021	01:36:39	0	0	3,841685	2,667	84,0528	-1,064	79,414	0	1008,3	5,3	7,3	7,2	1	1	1	1	1	1	1	1	1	0	1	-73,009161	272,810068	241,059521	0
15.01.2021	01:36:40	0	0	5,084583	2,68875	91,8864	-1,066	79,411	0	1008,34	5,3	7,3	7,2	1	1	1	1	1	1	1	1	1	0	1	-68,921776	272,79333	245,069838	0
15.01.2021	01:36:41	0	0	3,954676	2,6685	83,7432	-1,067	79,405	0	1008,1	5,4	7,3	7,2	1	1	1	1	1	1	1	1	1	0	1	-72,163495	272,71125	241,450383	0
15.01.2021	01:36:42	0	0	3,276731	2,56425	84,4308	-1,064	79,387	0	1008,32	5,4	7,3	7,2	1	1	1	1	1	1	1	1	1	0	1	-72,022551	272,839394	242,181197	0
15.01.2021	01:36:43	0	0	3,163741	2,8695	88,1244	-1,063	79,378	0	1008,3	5,4	7,3	7,2	1	1	1	1	1	1	1	1	1	0	1	-68,005638	272,743205	245,755261	0
15.01.2021	01:36:44	0	0	2,598787	3,234	85,8996	-1,069	79,363	0	1008,36	5,4	7,3	7,2	1	1	1	1	1	1	1	1	1	0	1	-70,754052	272,83101	243,41108	0
15.01.2021	01:36:45	0	0	3,389722	3,507	75,6072	-1,071	79,348	0	1008,28	5,3	7,3	7,2	1	1	1	1	1	1	1	1	1	0	1	-70,190275	272,748768	243,596223	0
15.01.2021	01:36:46	0	0	4,293648	3,76125	86,2812	-1,061	79,33	0	1008,24	5,4	7,3	7,2	1	1	1	1	1	1	1	1	1	0	1	-69,415081	272,843587	244,807983	0
15.01.2021	01:36:47	0	0	3,05075	4,11	83,4696	-1,067	79,306	0	1008,3	5,4	7,3	7,2	1	1	1	1	1	1	1	1	1	0	1	-71,176885	272,768251	242,69928	0
15.01.2021	01:36:48	0	0	3,389722	3,855	80,532	-1,062	79,312	0	1008,28	5,4	7,3	7,2	1	1	1	1	1	1	1	1	1	0	1	-71,317829	272,659955	242,060161	0
15.01.2021	01:36:49	0	0	3,05075	3,7605	81,2088	-1,056	79,324	0	1008,4	5,4	7,3	7,2	1	1	1	1	1	1	1	1	1	0	1	-69,626498	272,684892	243,866154	0
15.01.2021	01:36:50	0	0	3,615704	3,6855	79,4088	-1,056	79,318	0	1008,4	5,3	7,3	7,2	1	1	1	1	1	1	1	1	1	0	1	-73,572939	272,842189	240,643686	0
15.01.2021	01:36:51	0	0	4,971592	3,4395	78,2748	-1,056	79,308	0	1008,42	5,4	7,3	7,2	1	1	1	1	1	1	1	1	1	0	1	-74,559549	272,743205	239,201349	0
15.01.2021	01:36:52	0	0	3,841685	3,327	83,7504	-1,061	79,309	0	1008,16	5,3	7,3	7,2	1	1	1	1	1	1	1	1	1	0	1	-72,727273	272,836599	241,463601	0
15.01.2021	01:36:53	0	0	4,745611	3,31125	88,1064	-1,055	79,302	0	1008,38	5,3	7,3	7,2	1	1	1	1	1	1	1	1	1	0	1	-70,613108	272,812859	243,468427	0
15.01.2021	01:36:54	0	0	4,971592	3,2445	67,2984	-1,062	79,304	0	1008,26	5,4	7,3	7,2	1	1	1	1	1	1	1	1	1	0	1	-69,837914	272,833804	244,340088	0
15.01.2021	01:36:55	0	0	4,858602	3,16575	68,7816	-1,053	79,321	0	1008,24	5,3	7,3	7,2	1	1	1	1	1	1	1	1	1	0	1	-69,626498	272,775214	244,281718	0
15.01.2021	01:36:56	0	0	3,615704	3,59325	64,2528	-1,058	79,313	0	1008,4	5,3	7,3	7,2	1	1	1	1	1	1	1	1	1	0	1	-68,639887	272,673805	244,801782	0
15.01.2021	01:36:57	0	0	3,502713	3,8355	73,3212	-1,055	79,304	0	1008,32	5,4	7,3	7,2	1	1	1	1	1	1	1	1	1	0	1	-74,770965	272,780787	239,162901	0
15.01.2021	01:36:58	0	0	3,163741	3,74775	72,6984	-1,057	79,3	0	1008,34	5,3	7,3	7,2	1	1	1	1	1	1	1	1	1	0	1	-71,317829	272,67519	242,13021	0
15.01.2021	01:36:59	0	0	5,084583	3,70725	83,3616	-1,05	79,284	0	1008,3	5,4	7,3	7,2	1	1	1	1	1	1	1	1	1	0	1	-73,995772	272,808672	240,066485	0
15.01.2021	01:37:00	0	0	3,163741	3,45075	70,614	-1,054	79,282	0	1008,4	5,2	7,3	7,2	1	1	1	1	1	1	1	1	1	0	1	-72,586328	272,776607	241,328299	0
15.01.2021	01:37:01	0	0	3,728694	3,4725	71,2512	-1,05	79,273	0	1008,32	5,4	7,3	7,2	1	1	1	1	1	1	1	1	1	0	1	-73,220578	272,686278	240,278449	0
15.01.2021	01:37:02	0	0	3,728694	3,4725	71,2512	-1,05	79,273	0	1008,32	5,4	7,3	7,2	1	1	1	1	1	1	1	1	1	0	1	-73,220578	272,686278	240,278449	0
15.01.2021	01:37:03	0	0	3,389722	3,61875	77,9724	-1,051	79,275	0	1008,32	5,4	7,3	7,2	1	1	1	1	1	1	1	1	1	0	1	-73,009161	272,701535	240,560031	0
15.01.2021	01:37:04	0	0	2,711778	3,7725	71,9496	-1,053	79,261	0	1008,48	5,3	7,3	7,2	1	1	1	1	1	1	1	1	1	0	1	-72,515856	272,744596	241,251441	0
15.01.2021	01:37:05	0	0	2,598787	3,867	74,2716	-1,056	79,278	0	1008,24	5,4	7,3	7,2	1	1	1	1	1	1	1	1	1	0	1	-69,344609	272,680733	244,12892	0
15.01.2021	01:37:06	0	0	5,310565	3,78975	71,2368	-1,05	79,289	0	1008,42	5,2	7,3	7,2	1	1	1	1	1	1	1	1	1	0	1	-74,770965	272,789148	239,201395	0
15.01.2021	01:37:07	0	0	4,858602	3,6735	77,562	-1,05	79,31	0	1008,42	5,3	7,3	7,2	1	1	1	1	1	1	1	1	1	0	1	-70,119803	272,701535	243,44939	0
15.01.2021	01:37:08	0	0	5,197574	3,66375	81,9504	-1,049	79,294	0	1008,36	5,4	7,3	7,2	1	1	1	1	1	1	1	1	1	0	1	-67,582805	272,714026	246,043846	0
15.01.2021	01:37:09	0	0	4,63262	3,63075	74,2212	-1,05	79,324	0	1008,32	5,3	7,3	7,2	1	1	1	1	1	1	1	1	1	0	1	-79,422128	272,750159	234,37077	0
15.01.2021	01:37:10	0	0	3,276731	3,53475	75,978	-1,043	79,326	0	1008,5	5,3	7,3	7,2	1	1	1	1	1	1	1	1	1	0	1	-71,740662	272,693212	241,790249	0
15.01.2021	01:37:11	0	0	3,615704	3,504	77,2308	-1,05	79,303	0	1008,26	5,4	7,3	7,2	1	1	1	1	1	1	1	1	1	0	1	-69,06272	272,83101	245,102412	0
15.01.2021	01:37:12	0	0	5,423555	3,36225	71,7012	-1,041	79,308	0	1008,36	5,3	7,3	7,2	1	1	1	1	1	1	1	1	1	0	1	-73,150106	272,871564	241,20186	0
15.01.2021	01:37:13	0	0	4,180657	3,5955	80,1432	-1,048	79,289	0	1008,28	5,3	7,3	7,2	1	1	1	1	1	1	1	1	1	0	1	-68,498943	272,854773	245,775654	0
15.01.2021	01:37:14	0	0	2,824768	3,56325	86,3064	-1,038	79,29	0	1008,28	5,3	7,3	7,2	1	1	1	1	1	1	1	1	1	0	1	-70,68358	272,821234	243,436527	0
15.01.2021	01:37:15	0	0	4,067666	3,25275	74,916	-1,047	79,287	0	1008,38	5,4	7,3	7,2	1	1	1	1	1	1	1	1	1	0	1	-70,613108	272,881366	243,784027	0
15.01.2021	01:37:16	0	0	5,084583	2,94825	79,7832	-1,04	79,266	0	1008,42	5,3	7,3	7,2	1	1	1	1	1	1	1	1	1	0	1	-72,093023	272,797513	241,91785	0
15.01.2021	01:37:17	0	0	4,858602	2,775	81,6084	-1,039	79,267	0	1008,42	5,3	7,3	7,2	1	1	1	1	1	1	1	1	1	0	1	-73,572939	272,886969	240,85002	0
15.01.2021	01:37:18	0	0	2,824768	2,79	76,8816	-1,038	79,255	0	1008,28	5,4	7,3	7,2	1	1	1	1	1	1	1	1	1	0	1	-70,965469	272,747377	242,814628	0
15.01.2021	01:37:19	0	0	3,728694	2,9145	70,7076	-1,035	79,252	0	1008,46	5,3	7,3	7,2	1	1	1	1	1	1	1	1	1	0	1	-70,754052	272,886969	243,668906	0
15.01.2021	01:37:20	0	0	4,519629	2,868	73,7964	-1,032	79,232	0	1008,52	5,3	7,3	7,2	1	1	1	1	1	1	1	1	1	0	1	-69,274137	272,718192	244,371677	0
15.01.2021	01:37:21	0	0	2,824768	2,82	74,574	-1,037	79,209	0	1008,1	5,3	7,3	7,2	1	1	1	1	1	1	1	1	1	0	1	-72,093023	272,843587	242,130041	0
15.01.2021	01:37:22	0	0	4,519629	2,75475	74,178	-1,034	79,21	0	1008,34	5,3	7,3	7,2	1	1	1	1	1	1	1	1	1	0	1	-71,247357	272,882766	243,156233	0
15.01.2021	01:37:23	0	0	2,937759	2,577	76,0932	-1,035	79,2	0	1008,34	5,3	7,3	7,2	1	1	1	1	1	1	1	1	1	0	1	-70,542636	272,825423	243,596764	0
15.01.2021	01:37:24	0	0	4,406639	2,43225	72,6768	-1,034	79,177	0	1008,42	5,3	7,3	7,2	1	1	1	1	1	1	1	1	1	0	1	-70,965469	272,72097	242,693124	0
15.01.2021	01:37:25	0	0	4,858602	2,55975	84,7872	-1,036	79,168	0	1008,34	5,3	7,3	7,2	1	1	1	1	1	1	1	1	1	0	1	-68,005638	272,860368	246,29474	0
15.01.2021	01:37:26	0	0	2,711778	2,604	87,3576	-1,032	79,172	0	1008,38	5,3	7,3	7,2	1	1	1	1	1	1	1	1	1	0	1	-71,247357	272,886969	243,175601	0
15.01.2021	01:37:27	0	0	3,05075	2,67075	82,9836	-1,038	79,162	0	1008,32	5,3	7,3	7,2	1	1	1	1	1	1	1	1	1	0	1	-74,91191	272,709862	238,695583	0
15.01.2021	01:37:28	0	0	4,067666	2,529	72,6696	-1,035	79,15	0	1008,32	5,3	7,3	7,2	1	1	1	1	1	1	1	1	1	0	1	-70,542636	272,832407	243,628931	0
15.01.2021	01:37:29	0	0	3,954676	2,397	68,0112	-1,034	79,149	0	1008,34	5,3	7,3	7,2	1	1	1	1	1	1	1	1	1	0	1	-71,811135	272,902386	242,682886	0
15.01.2021	01:37:30	0	0	3,276731	2,29275	61,308	-1,033	79,117	0	1008,42	5,3	7,3	7,2	1	1	1	1	1	1	1	1	1	0	1	-71,458774	272,832407	242,712793	0
15.01.2021	01:37:31	0	0	4,63262	2,169	66,5532	-1,032	79,113	0	1008,34	5,4	7,3	7,2	1	1	1	1	1	1	1	1	1	0	1	-68,498943	272,729305	245,197997	0
15.01.2021	01:37:32	0	0	3,954676	2,0325	65,4768	-1,03	79,096	0	1008,36	5,4	7,3	7,2	1	1	1	1	1	1	1	1	1	0	1	-71,740662	272,902386	242,753358	0
15.01.2021	01:37:33	0	0	4,293648	1,98375	57,4272	-1,034	79,093	0	1008,34	5,4	7,3	7,2	1	1	1	1	1	1	1	1	1	0	1	-68,428471	272,759899	245,409252	0
15.01.2021	01:37:34	0	0	3,615704	2,08425	64,2492	-1,035	79,086	0	1008,28	5,3	7,3	7,2	1	1	1	1	1	1	1	1	1	0	1	-70,824524	272,886969	243,598434	0
15.01.2021	01:37:35	0	0	3,389722	2,205	63,468	-1,031	79,072	0	1008,4	5,3	7,3	7,2	1	1	1	1	1	1	1	1	1	0	1	-70,894996	272,750159	242,897902	0
15.01.2021	01:37:36	0	0	4,971592	2,157	67,68	-1,03	79,052	0	1008,36	5,3	7,3	7,2	1	1	1	1	1	1	1	1	1	0	1	-70,894996	272,837996	243,302314	0
15.01.2021	01:37:37	0	0	3,389722	2,39475	64,2492	-1,03	79,045	0	1008,24	5,3	7,3	7,2	1	1	1	1	1	1	1	1	1	0	1	-71,599718	272,71125	242,014161	0
15.01.2021	01:37:38	0	0	5,084583	2,73975	55,6596	-1,035	79,032	0	1008,28	5,3	7,4	7,2	1	1	1	1	1	1	1	1	1	0	1	-73,220578	272,801697	240,80956	0
15.01.2021	01:37:39	0	0	2,598787	2,916	55,5804	-1,029	79,034	0	1008,42	5,3	7,3	7,2	1	1	1	1	1	1	1	1	1	0	1	-72,586328	272,739034	241,155377	0
15.01.2021	01:37:40	0	0	4,406639	2,88375	63,1908	-1,033	78,996	0	1008,28	5,3	7,3	7,2	1	1	1	1	1	1	1	1	1	0	1	-71,458774	272,878565	242,925453	0
15.01.2021	01:37:41	0	0	3,615704	2,691	77,5872	-1,033	78,993	0	1008,36	5,4	7,3	7,2	1	1	1	1	1	1	1	1	1	0	1	-74,700493	272,868765	239,638572	0
15.01.2021	01:37:42	0	0	3,615704	2,6655	69,8652	-1,035	78,969	0	1008,32	5,3	7,3	7,2	1	1	1	1	1	1	1	1	1	0	1	-71,811135	272,727916	241,879413	0
15.01.2021	01:37:43	0	0	4,63262	2,57625	78,2892	-1,032	78,945	0	1008,3	5,3	7,3	7,2	1	1	1	1	1	1	1	1	1	0	1	-67,935166	272,836599	246,255708	0
15.01.2021	01:37:44	0	0	4,406639	2,46375	80,8956	-1,034	78,924	0	1008,3	5,4	7,4	7,2	1	1	1	1	1	1	1	1	1	0	1	-73,431994	272,910801	241,100817	0
15.01.2021	01:37:45	0	0	2,598787	2,45925	63,5868	-1,026	78,9	0	1008,26	5,3	7,3	7,2	1	1	1	1	1	1	1	1	1	0	1	-70,824524	272,759899	243,013198	0
15.01.2021	01:37:46	0	0	4,858602	2,3715	71,2332	-1,025	78,884	0	1008,28	5,3	7,3	7,2	1	1	1	1	1	1	1	1	1	0	1	-68,07611	272,737644	245,659198	0
15.01.2021	01:37:47	0	0	2,937759	2,3085	69,1668	-1,028	78,85	0	1008,48	5,3	7,3	7,2	1	1	1	1	1	1	1	1	1	0	1	-73,572939	272,886969	240,85002	0
15.01.2021	01:37:48	0	0	3,728694	2,25525	69,1488	-1,027	78,841	0	1008,32	5,3	7,3	7,2	1	1	1	1	1	1	1	1	1	0	1	-71,388302	272,837996	242,809009	0
15.01.2021	01:37:49	0	0	3,389722	2,24475	69,4476	-1,023	78,817	0	1008,14	5,3	7,3	7,2	1	1	1	1	1	1	1	1	1	0	1	-73,643411	272,716803	239,996015	0
15.01.2021	01:37:50	0	0	3,389722	2,2905	70,2396	-1,027	78,797	0	1008,3	5,3	7,3	7,2	1	1	1	1	1	1	1	1	1	0	1	-77,167019	272,870164	237,178496	0
15.01.2021	01:37:51	0	0	4,067666	2,316	62,8164	-1,026	78,789	0	1008,46	5,3	7,3	7,2	1	1	1	1	1	1	1	1	1	0	1	-72,656801	272,745987	241,116896	0
15.01.2021	01:37:52	0	0	3,841685	2,43525	60,5376	-1,025	78,765	0	1008,6	5,3	7,3	7,2	1	1	1	1	1	1	1	1	1	0	1	-73,009161	272,736254	240,719751	0
15.01.2021	01:37:53	0	0	5,084583	2,499	65,8368	-1,032	78,742	0	1008,38	5,3	7,3	7,2	1	1	1	1	1	1	1	1	1	0	1	-72,163495	272,804487	241,879489	0
15.01.2021	01:37:54	0	0	4,971592	2,595	69,4656	-1,032	78,728	0	1008,48	5,3	7,3	7,2	1	1	1	1	1	1	1	1	1	0	1	-69,978858	272,913607	244,566888	0
15.01.2021	01:37:55	0	0	4,63262	2,6115	63,8676	-1,029	78,704	0	1008,2	5,3	7,3	7,2	1	1	1	1	1	1	1	1	1	0	1	-75,757576	272,891173	238,684756	0
15.01.2021	01:37:56	0	0	4,519629	2,64225	62,514	-1,025	78,69	0	1008,42	5,3	7,3	7,2	1	1	1	1	1	1	1	1	1	0	1	-71,599718	272,786361	242,359809	0
15.01.2021	01:37:57	0	0	4,067666	2,69775	54,108	-1,03	78,691	0	1008,4	5,3	7,3	7,2	1	1	1	1	1	1	1	1	1	0	1	-68,780832	272,906593	245,732582	0
15.01.2021	01:37:58	0	0	3,954676	2,82675	63,1584	-1,028	78,661	0	1008,2	5,3	7,3	7,2	1	1	1	1	1	1	1	1	1	0	1	-71,881607	272,812859	242,199928	0
15.01.2021	01:37:59	0	0	4,293648	2,892	55,5588	-1,026	78,643	0	1008,3	5,3	7,3	7,2	1	1	1	1	1	1	1	1	1	0	1	-70,754052	272,727916	242,936495	0
15.01.2021	01:38:00	0	0	5,197574	2,74875	58,86	-1,03	78,62	0	1008,28	5,3	7,3	7,2	1	1	1	1	1	1	1	1	1	0	1	-74,136716	272,846383	240,099228	0
15.01.2021	01:38:01	0	0	3,502713	2,9715	60,2712	-1,028	78,622	0	1008,4	5,3	7,4	7,2	1	1	1	1	1	1	1	1	1	0	1	-72,656801	272,899582	241,824295	0
15.01.2021	01:38:02	0	0	3,502713	2,9715	60,2712	-1,028	78,622	0	1008,4	5,3	7,4	7,2	1	1	1	1	1	1	1	1	1	0	1	-72,656801	272,899582	241,824295	0
15.01.2021	01:38:03	0	0	2,711778	3,2775	73,7748	-1,032	78,607	0	1008,46	5,3	7,3	7,2	1	1	1	1	1	1	1	1	1	0	1	-68,780832	272,759899	245,056891	0
15.01.2021	01:38:04	0	0	2,824768	3,57075	63,1728	-1,027	78,618	0	1008,34	5,3	7,3	7,2	1	1	1	1	1	1	1	1	1	0	1	-72,445384	272,893975	242,009867	0
15.01.2021	01:38:05	0	0	3,728694	3,96525	73,44	-1,024	78,604	0	1008,42	5,3	7,4	7,2	1	1	1	1	1	1	1	1	1	0	1	-72,233968	272,906593	242,279446	0
15.01.2021	01:38:06	0	0	4,971592	4,224	87,336	-1,026	78,602	0	1008,36	5,3	7,3	7,2	1	1	1	1	1	1	1	1	1	0	1	-69,556025	272,844985	244,673478	0
15.01.2021	01:38:07	0	0	4,745611	3,8685	70,236	-1,023	78,594	0	1008,48	5,3	7,3	7,2	1	1	1	1	1	1	1	1	1	0	1	-70,613108	272,737644	243,122201	0
15.01.2021	01:38:08	0	0	3,502713	3,56925	68,7744	-1,029	78,582	0	1008,24	5,3	7,4	7,2	1	1	1	1	1	1	1	1	1	0	1	-72,515856	272,75155	241,283444	0
15.01.2021	01:38:09	0	0	2,937759	3,4905	73,4652	-1,028	78,582	0	1008,34	5,3	7,3	7,2	1	1	1	1	1	1	1	1	1	0	1	-74,136716	272,88837	240,2927	0
15.01.2021	01:38:10	0	0	4,293648	3,52725	69,156	-1,027	78,574	0	1008,44	5,3	7,3	7,2	1	1	1	1	1	1	1	1	1	0	1	-71,247357	272,747377	242,532739	0
15.01.2021	01:38:11	0	0	4,067666	3,6795	79,8012	-1,036	78,571	0	1008,48	5,3	7,3	7,2	1	1	1	1	1	1	1	1	1	0	1	-68,710359	272,765467	245,152989	0
15.01.2021	01:38:12	0	0	2,824768	3,70125	78,2964	-1,03	78,588	0	1008,38	5,3	7,4	7,2	1	1	1	1	1	1	1	1	1	0	1	-69,626498	272,765467	244,236851	0
15.01.2021	01:38:13	0	0	5,084583	3,73725	59,0904	-1,031	78,592	0	1008,32	5,3	7,3	7,2	1	1	1	1	1	1	1	1	1	0	1	-69,06272	272,715415	244,570318	0
15.01.2021	01:38:14	0	0	5,310565	3,58125	79,0344	-1,03	78,59	0	1008,42	5,3	7,3	7,2	1	1	1	1	1	1	1	1	1	0	1	-71,529246	272,851976	242,732464	0
15.01.2021	01:38:15	0	0	3,05075	3,89775	84,4452	-1,035	78,572	0	1008,32	5,3	7,4	7,2	1	1	1	1	1	1	1	1	1	0	1	-69,767442	272,709862	243,840051	0
15.01.2021	01:38:16	0	0	4,745611	3,6465	79,7832	-1,031	78,594	0	1008,38	5,3	7,3	7,2	1	1	1	1	1	1	1	1	1	0	1	-74,27766	272,854773	239,996937	0
15.01.2021	01:38:17	0	0	3,389722	3,44325	70,6032	-1,038	78,592	0	1008,4	5,3	7,3	7,2	1	1	1	1	1	1	1	1	1	0	1	-70,894996	272,849179	243,353829	0
15.01.2021	01:38:18	0	0	2,711778	3,3225	66,528	-1,034	78,602	0	1008,4	5,3	7,3	7,2	1	1	1	1	1	1	1	1	1	0	1	-68,780832	272,708474	244,820277	0
15.01.2021	01:38:19	0	0	2,711778	3,1515	66,9348	-1,035	78,602	0	1008,24	5,4	7,4	7,2	1	1	1	1	1	1	1	1	1	0	1	-73,361522	272,776607	240,553105	0
15.01.2021	01:38:20	0	0	4,067666	3,105	70,6176	-1,031	78,618	0	1008,4	5,3	7,3	7,2	1	1	1	1	1	1	1	1	1	0	1	-70,613108	272,714026	243,013543	0
15.01.2021	01:38:21	0	0	3,728694	3,6105	68,0436	-1,028	78,626	0	1008,32	5,3	7,3	7,2	1	1	1	1	1	1	1	1	1	0	1	-69,837914	272,807277	244,217918	0
15.01.2021	01:38:22	0	0	3,841685	3,90225	58,8744	-1,029	78,639	0	1008,46	5,4	7,3	7,2	1	1	1	1	1	1	1	1	1	0	1	-71,388302	272,898181	243,086332	0
15.01.2021	01:38:23	0	0	3,502713	4,13775	51,4584	-1,032	78,676	0	1008,58	5,3	7,3	7,2	1	1	1	1	1	1	1	1	1	0	1	-68,217054	272,79333	245,77456	0
15.01.2021	01:38:24	0	0	4,180657	4,06125	66,528	-1,032	78,678	0	1008,34	5,3	7,3	7,2	1	1	1	1	1	1	1	1	1	0	1	-70,754052	272,712638	242,866212	0
15.01.2021	01:38:25	0	0	5,084583	4,11525	76,0032	-1,037	78,67	0	1008,26	5,4	7,3	7,2	1	1	1	1	1	1	1	1	1	0	1	-74,27766	272,872964	240,080756	0
15.01.2021	01:38:26	0	0	3,163741	4,146	73,4364	-1,032	78,692	0	1008,32	5,4	7,3	7,2	1	1	1	1	1	1	1	1	1	0	1	-72,163495	272,712638	241,456769	0
15.01.2021	01:38:27	0	0	5,084583	4,41975	72,6732	-1,036	78,696	0	1008,5	5,3	7,3	7,2	1	1	1	1	1	1	1	1	1	0	1	-71,106413	272,885568	243,310089	0
15.01.2021	01:38:28	0	0	5,762527	4,44525	70,6572	-1,04	78,71	0	1008,3	5,4	7,3	7,2	1	1	1	1	1	1	1	1	1	0	1	-71,247357	272,819838	242,866319	0
15.01.2021	01:38:29	0	0	2,711778	4,28625	71,9964	-1,035	78,734	0	1008,36	5,3	7,3	7,2	1	1	1	1	1	1	1	1	1	0	1	-68,146582	272,88837	246,282834	0
15.01.2021	01:38:30	0	0	3,728694	4,03275	67,2984	-1,031	78,75	0	1008,48	5,3	7,4	7,2	1	1	1	1	1	1	1	1	1	0	1	-71,106413	272,70431	242,475544	0
15.01.2021	01:38:31	0	0	4,858602	4,17375	62,4168	-1,037	78,756	0	1008,44	5,3	7,3	7,2	1	1	1	1	1	1	1	1	1	0	1	-68,921776	272,829613	245,236923	0
15.01.2021	01:38:32	0	0	3,05075	4,17675	52,2216	-1,036	78,773	0	1008,36	5,3	7,3	7,2	1	1	1	1	1	1	1	1	1	0	1	-70,68358	272,879965	243,7071	0
15.01.2021	01:38:33	0	0	2,711778	4,0365	50,7708	-1,038	78,771	0	1008,34	5,3	7,3	7,2	1	1	1	1	1	1	1	1	1	0	1	-71,599718	272,747377	242,180379	0
15.01.2021	01:38:34	0	0	4,858602	3,83025	48,8412	-1,036	78,765	0	1008,42	5,3	7,3	7,2	1	1	1	1	1	1	1	1	1	0	1	-68,005638	272,833804	246,172364	0
15.01.2021	01:38:35	0	0	3,163741	3,5955	58,4892	-1,039	78,777	0	1008,4	5,3	7,3	7,2	1	1	1	1	1	1	1	1	1	0	1	-72,163495	272,891173	242,278837	0
15.01.2021	01:38:36	0	0	4,067666	3,465	66,2256	-1,034	78,812	0	1008,3	5,3	7,3	7,2	1	1	1	1	1	1	1	1	1	0	1	-72,515856	272,745987	241,257841	0
15.01.2021	01:38:37	0	0	4,745611	3,34275	55,5588	-1,033	78,842	0	1008,42	5,4	7,3	7,2	1	1	1	1	1	1	1	1	1	0	1	-69,626498	272,726526	244,057658	0
15.01.2021	01:38:38	0	0	2,824768	3,1815	73,0584	-1,033	78,864	0	1008,3	5,3	7,3	7,2	1	1	1	1	1	1	1	1	1	0	1	-70,472163	272,893975	243,983087	0
15.01.2021	01:38:39	0	0	4,63262	2,946	62,406	-1,031	78,903	0	1008,4	5,3	7,3	7,2	1	1	1	1	1	1	1	1	1	0	1	-69,274137	272,769644	244,608437	0
15.01.2021	01:38:40	0	0	4,180657	2,6535	67,302	-1,031	78,914	0	1008,44	5,3	7,3	7,2	1	1	1	1	1	1	1	1	1	0	1	-73,361522	272,875764	241,009798	0
15.01.2021	01:38:41	0	0	3,05075	2,71875	66,9204	-1,032	78,93	0	1008,38	5,3	7,3	7,2	1	1	1	1	1	1	1	1	1	0	1	-73,502467	272,743205	240,258432	0
15.01.2021	01:38:42	0	0	2,824768	2,8815	52,506	-1,034	78,934	0	1008,34	5,4	7,4	7,2	1	1	1	1	1	1	1	1	1	0	1	-69,626498	272,801697	244,403641	0
15.01.2021	01:38:43	0	0	2,824768	2,9895	72,684	-1,033	78,946	0	1008,4	5,3	7,4	7,2	1	1	1	1	1	1	1	1	1	0	1	-71,176885	272,903789	243,323599	0
15.01.2021	01:38:44	0	0	4,858602	3,0195	73,5264	-1,029	78,964	0	1008,12	5,3	7,3	7,2	1	1	1	1	1	1	1	1	1	0	1	-74,559549	272,81565	239,534841	0
15.01.2021	01:38:45	0	0	2,711778	3,17775	66,9096	-1,029	78,976	0	1008,24	5,3	7,3	7,2	1	1	1	1	1	1	1	1	1	0	1	-72,022551	272,750159	241,770347	0
15.01.2021	01:38:46	0	0	2,824768	3,1725	74,9196	-1,029	79,001	0	1008,44	5,3	7,3	7,2	1	1	1	1	1	1	1	1	1	0	1	-73,361522	272,764075	240,495419	0
15.01.2021	01:38:47	0	0	3,841685	3,156	71,6364	-1,029	79,011	0	1008,28	5,3	7,3	7,2	1	1	1	1	1	1	1	1	1	0	1	-71,035941	272,804487	243,007043	0
15.01.2021	01:38:48	0	0	2,937759	3,195	72,7056	-1,025	79,007	0	1008,38	5,3	7,3	7,2	1	1	1	1	1	1	1	1	1	0	1	-67,723749	272,920623	246,854344	0
15.01.2021	01:38:49	0	0	4,63262	3,261	76,374	-1,033	79,027	0	1008,34	5,3	7,3	7,2	1	1	1	1	1	1	1	1	1	0	1	-71,952079	272,805882	242,097329	0
15.01.2021	01:38:50	0	0	2,711778	3,30975	67,698	-1,025	79,006	0	1008,24	5,3	7,4	7,2	1	1	1	1	1	1	1	1	1	0	1	-75,052854	272,933259	239,583499	0
15.01.2021	01:38:51	0	0	2,598787	3,4605	62,7876	-1,026	79,028	0	1008,46	5,3	7,3	7,2	1	1	1	1	1	1	1	1	1	0	1	-72,797745	272,868765	241,54132	0
15.01.2021	01:38:52	0	0	4,63262	3,34275	76,8276	-1,027	79,026	0	1008,26	5,3	7,4	7,2	1	1	1	1	1	1	1	1	1	0	1	-69,978858	272,867365	244,353757	0
15.01.2021	01:38:53	0	0	3,954676	3,29325	75,2508	-1,025	79,022	0	1008,4	5,3	7,4	7,2	1	1	1	1	1	1	1	1	1	0	1	-71,317829	272,940282	243,350911	0
15.01.2021	01:38:54	0	0	2,937759	3,3405	68,3928	-1,027	79,004	0	1008,34	5,3	7,3	7,2	1	1	1	1	1	1	1	1	1	0	1	-71,740662	272,885568	242,675839	0
15.01.2021	01:38:55	0	0	4,745611	3,5445	62,4312	-1,022	79,003	0	1008,42	5,3	7,3	7,2	1	1	1	1	1	1	1	1	1	0	1	-71,529246	272,755724	242,289263	0
15.01.2021	01:38:56	0	0	3,05075	3,66	74,142	-1,023	78,998	0	1008,44	5,3	7,3	7,2	1	1	1	1	1	1	1	1	1	0	1	-70,824524	272,796119	243,179929	0
15.01.2021	01:38:57	0	0	4,63262	3,6555	65,8512	-1,027	78,972	0	1008,3	5,3	7,3	7,2	1	1	1	1	1	1	1	1	1	0	1	-73,502467	272,835201	240,681971	0
15.01.2021	01:38:58	0	0	4,971592	3,64425	73,1412	-1,022	78,989	0	1008,42	5,3	7,4	7,2	1	1	1	1	1	1	1	1	1	0	1	-69,69697	272,776607	244,217658	0
15.01.2021	01:38:59	0	0	3,05075	3,9135	64,2348	-1,023	78,968	0	1008,36	5,3	7,3	7,2	1	1	1	1	1	1	1	1	1	0	1	-69,978858	272,899582	244,502237	0
15.01.2021	01:39:00	0	0	3,05075	4,518	80,5284	-1,021	78,951	0	1008,36	5,3	7,3	7,2	1	1	1	1	1	1	1	1	1	0	1	-70,894996	272,773822	243,006808	0
15.01.2021	01:39:01	0	0	3,05075	4,518	80,5284	-1,021	78,951	0	1008,36	5,3	7,3	7,2	1	1	1	1	1	1	1	1	1	0	1	-70,894996	272,773822	243,006808	0
15.01.2021	01:39:02	0	0	2,937759	4,479	75,6216	-1,02	78,947	0	1008,38	5,3	7,4	7,2	1	1	1	1	1	1	1	1	1	0	1	-72,374912	272,860368	241,925465	0
15.01.2021	01:39:03	0	0	2,372805	4,2915	65,0952	-1,02	78,946	0	1008,38	5,3	7,4	7,2	1	1	1	1	1	1	1	1	1	0	1	-72,233968	272,945902	242,460693	0
15.01.2021	01:39:04	0	0	2,937759	4,1865	68,0184	-1,02	78,915	0	1008,3	5,3	7,3	7,2	1	1	1	1	1	1	1	1	1	0	1	-72,727273	272,805882	241,322135	0
15.01.2021	01:39:05	0	0	5,084583	4,30575	68,7636	-1,025	78,915	0	1008,3	5,3	7,3	7,2	1	1	1	1	1	1	1	1	1	0	1	-70,331219	272,807277	243,724613	0
15.01.2021	01:39:06	0	0	4,745611	4,3185	66,9456	-1,019	78,903	0	1008,22	5,3	7,4	7,2	1	1	1	1	1	1	1	1	1	0	1	-70,542636	272,920623	244,035457	0
15.01.2021	01:39:07	0	0	2,598787	4,242	73,4292	-1,021	78,909	0	1008,34	5,3	7,4	7,2	1	1	1	1	1	1	1	1	1	0	1	-74,207188	272,833804	239,970814	0
15.01.2021	01:39:08	0	0	2,937759	4,296	67,6692	-1,024	78,918	0	1008,32	5,3	7,4	7,2	1	1	1	1	1	1	1	1	1	0	1	-75,757576	272,954336	238,975982	0
15.01.2021	01:39:09	0	0	5,536546	3,98925	67,2948	-1,023	78,915	0	1008,3	5,3	7,3	7,2	1	1	1	1	1	1	1	1	1	0	1	-71,952079	272,846383	242,283865	0
15.01.2021	01:39:10	0	0	3,05075	3,936	73,422	-1,021	78,924	0	1008,5	5,3	7,4	7,2	1	1	1	1	1	1	1	1	1	0	1	-73,009161	272,955742	241,730881	0
15.01.2021	01:39:11	0	0	4,745611	3,906	84,4236	-1,025	78,915	0	1008,36	5,3	7,4	7,2	1	1	1	1	1	1	1	1	1	0	1	-73,502467	272,934663	241,140363	0
15.01.2021	01:39:12	0	0	3,050732	3,8805	62,4132	-1,014	78,92	0	1008,3	5,3	7,4	7,3	1	1	1	1	1	1	1	1	1	0	1	-73,9253	272,944497	240,76288	0
15.01.2021	01:39:13	0	0	4,858602	3,7905	68,7636	-1,018	78,908	0	1008,38	5,3	7,4	7,2	1	1	1	1	1	1	1	1	1	0	1	-73,150106	272,909398	241,376239	0
15.01.2021	01:39:14	0	0	2,598787	4,05375	65,0916	-1,021	78,912	0	1008,46	5,3	7,4	7,2	1	1	1	1	1	1	1	1	1	0	1	-71,176885	272,91501	243,375329	0
15.01.2021	01:39:15	0	0	4,745611	4,353	66,9168	-1,015	78,914	0	1008,24	5,3	7,3	7,2	1	1	1	1	1	1	1	1	1	0	1	-70,119803	272,78218	243,820478	0
15.01.2021	01:39:16	0	0	4,745611	4,2735	53,3916	-1,013	78,895	0	1008,3	5,3	7,4	7,2	1	1	1	1	1	1	1	1	1	0	1	-70,331219	272,903789	244,169265	0
15.01.2021	01:39:17	0	0	2,824768	4,30875	58,1256	-1,017	78,901	0	1008,42	5,3	7,3	7,2	1	1	1	1	1	1	1	1	1	0	1	-72,515856	272,969808	242,289067	0
15.01.2021	01:39:18	0	0	5,197574	4,359	52,1244	-1,021	78,875	0	1008,3	5,3	7,4	7,2	1	1	1	1	1	1	1	1	1	0	1	-67,44186	272,906593	247,071553	0
15.01.2021	01:39:19	0	0	4,406639	4,4235	51,4512	-1,015	78,862	0	1008,24	5,3	7,4	7,2	1	1	1	1	1	1	1	1	1	0	1	-72,30444	272,938877	242,357822	0
15.01.2021	01:39:20	0	0	2,372805	4,227	57,4956	-1,017	78,887	0	1008,46	5,4	7,4	7,2	1	1	1	1	1	1	1	1	1	0	1	-74,770965	272,959961	239,988536	0
15.01.2021	01:39:21	0	0	3,841685	3,825	54,108	-1,013	78,915	0	1008,38	5,4	7,4	7,2	1	1	1	1	1	1	1	1	1	0	1	-69,203665	272,861767	245,103159	0
15.01.2021	01:39:22	0	0	4,745611	3,68475	46,9872	-1,013	78,942	0	1008,46	5,3	7,3	7,2	1	1	1	1	1	1	1	1	1	0	1	-70,260747	272,965587	244,524706	0
15.01.2021	01:39:23	0	0	3,728694	3,369	44,7696	-1,013	78,96	0	1008,4	5,4	7,4	7,2	1	1	1	1	1	1	1	1	1	0	1	-66,102889	272,82682	248,042943	0
15.01.2021	01:39:24	0	0	4,406639	3,31425	72,0684	-1,016	78,997	0	1008,3	5,4	7,4	7,2	1	1	1	1	1	1	1	1	1	0	1	-69,626498	272,803092	244,410063	0
15.01.2021	01:39:25	0	0	4,971592	3,45825	49,5972	-1,01	79,034	0	1008,48	5,4	7,4	7,2	1	1	1	1	1	1	1	1	1	0	1	-71,176885	272,940282	243,491855	0
15.01.2021	01:39:26	0	0	2,711778	3,399	68,022	-1,011	79,056	0	1008,44	5,3	7,4	7,2	1	1	1	1	1	1	1	1	1	0	1	-72,093023	272,965587	242,69243	0
15.01.2021	01:39:27	0	0	2,598787	3,4305	56,2896	-1,005	79,084	0	1008,34	5,4	7,4	7,2	1	1	1	1	1	1	1	1	1	0	1	-71,106413	272,818442	243,000834	0
15.01.2021	01:39:28	0	0	4,632592	3,9015	73,782	-1,005	79,116	0	1008,3	5,4	7,4	7,3	1	1	1	1	1	1	1	1	1	0	1	-72,586328	272,900984	241,901229	0
15.01.2021	01:39:29	0	0	4,406639	4,482	66,5424	-1,006	79,117	0	1008,26	5,4	7,4	7,2	1	1	1	1	1	1	1	1	1	0	1	-76,109937	272,814254	237,978026	0
15.01.2021	01:39:30	0	0	4,067666	4,47075	84,042	-1,005	79,115	0	1008,38	5,3	7,3	7,2	1	1	1	1	1	1	1	1	1	0	1	-74,982382	272,891173	239,45995	0
15.01.2021	01:39:31	0	0	3,276731	4,31925	70,8516	-1,002	79,124	0	1008,44	5,4	7,4	7,2	1	1	1	1	1	1	1	1	1	0	1	-74,348132	272,983884	240,52173	0
15.01.2021	01:39:32	0	0	3,728694	4,45575	62,7804	-0,999	79,13	0	1008,36	5,4	7,4	7,2	1	1	1	1	1	1	1	1	1	0	1	-72,30444	272,955742	242,435603	0
15.01.2021	01:39:33	0	0	2,485796	4,773	63,1548	-1,004	79,13	0	1008,36	5,4	7,4	7,2	1	1	1	1	1	1	1	1	1	0	1	-69,485553	272,941687	245,189666	0
15.01.2021	01:39:34	0	0	3,389722	4,95975	54,8028	-0,998	79,126	0	1008,6	5,3	7,4	7,2	1	1	1	1	1	1	1	1	1	0	1	-71,529246	272,981068	243,327624	0
15.01.2021	01:39:35	0	0	4,858602	4,90725	65,8296	-0,998	79,123	0	1008,3	5,4	7,4	7,2	1	1	1	1	1	1	1	1	1	0	1	-70,965469	272,934663	243,677361	0
15.01.2021	01:39:36	0	0	3,389722	4,94625	58,1148	-0,996	79,129	0	1008,36	5,3	7,4	7,2	1	1	1	1	1	1	1	1	1	0	1	-75,828048	272,811463	238,247061	0
15.01.2021	01:39:37	0	0	4,745611	4,818	70,614	-1,005	79,114	0	1008,46	5,4	7,4	7,2	1	1	1	1	1	1	1	1	1	0	1	-68,639887	272,972622	246,178019	0
15.01.2021	01:39:38	0	0	5,310565	4,54425	70,8588	-0,997	79,116	0	1008,2	5,4	7,4	7,2	1	1	1	1	1	1	1	1	1	0	1	-75,616631	272,836599	238,574243	0
15.01.2021	01:39:39	0	0	4,971592	4,50075	72,2916	-1,002	79,092	0	1008,32	5,4	7,4	7,2	1	1	1	1	1	1	1	1	1	0	1	-70,260747	272,985292	244,615612	0
15.01.2021	01:39:40	0	0	3,389722	4,51575	78,2892	-0,993	79,114	0	1008,34	5,4	7,4	7,2	1	1	1	1	1	1	1	1	1	0	1	-72,656801	272,993743	242,258553	0
15.01.2021	01:39:41	0	0	2,824768	4,74075	61,3188	-0,996	79,099	0	1008,32	5,4	7,4	7,2	1	1	1	1	1	1	1	1	1	0	1	-75,828048	272,860368	238,472329	0
15.01.2021	01:39:42	0	0	4,858602	4,6395	73,0692	-0,993	79,074	0	1008,28	5,4	7,4	7,2	1	1	1	1	1	1	1	1	1	0	1	-71,176885	272,886969	243,246073	0
15.01.2021	01:39:43	0	0	4,63262	4,215	64,6164	-0,997	79,07	0	1008,4	5,4	7,4	7,2	1	1	1	1	1	1	1	1	1	0	1	-68,146582	273,006427	246,827302	0
15.01.2021	01:39:44	0	0	2,824768	3,84975	72,0432	-0,99	79,073	0	1008,28	5,4	7,4	7,2	1	1	1	1	1	1	1	1	1	0	1	-75,89852	272,954336	238,835038	0
15.01.2021	01:39:45	0	0	3,05075	3,735	73,8	-0,987	79,071	0	1008,32	5,4	7,4	7,2	1	1	1	1	1	1	1	1	1	0	1	-73,502467	272,819838	240,61121	0
15.01.2021	01:39:46	0	0	2,824768	4,30575	80,9028	-0,99	79,076	0	1008,36	5,4	7,4	7,2	1	1	1	1	1	1	1	1	1	0	1	-74,136716	272,847781	240,105668	0
15.01.2021	01:39:47	0	0	2,824768	4,743	71,2224	-0,987	79,079	0	1008,14	5,4	7,4	7,2	1	1	1	1	1	1	1	1	1	0	1	-69,344609	272,916413	245,214074	0
15.01.2021	01:39:48	0	0	2,937759	4,8525	68,76	-0,995	79,094	0	1008,3	5,4	7,4	7,2	1	1	1	1	1	1	1	1	1	0	1	-73,009161	272,97966	241,841213	0
15.01.2021	01:39:49	0	0	3,841685	4,83225	67,7916	-0,984	79,13	0	1008,28	5,4	7,4	7,2	1	1	1	1	1	1	1	1	1	0	1	-70,260747	272,83101	243,904385	0
15.01.2021	01:39:50	0	0	3,163741	4,797	78,2532	-0,985	79,13	0	1008,36	5,4	7,4	7,2	1	1	1	1	1	1	1	1	1	0	1	-74,27766	272,896779	240,190512	0
15.01.2021	01:39:51	0	0	2,711778	4,9305	80,1504	-0,986	79,163	0	1008,3	5,4	7,4	7,2	1	1	1	1	1	1	1	1	1	0	1	-71,317829	273,017709	243,708121	0
15.01.2021	01:39:52	0	0	3,728672	4,90875	80,154	-0,983	79,178	0	1008,44	5,4	7,4	7,3	1	1	1	1	1	1	1	1	1	0	1	-70,894996	272,926238	243,708984	0
15.01.2021	01:39:53	0	0	3,05075	4,70625	79,4124	-0,979	79,193	0	1008,34	5,4	7,4	7,2	1	1	1	1	1	1	1	1	1	0	1	-74,489077	273,03182	240,602009	0
15.01.2021	01:39:54	0	0	3,389722	4,461	66,9312	-0,979	79,183	0	1008,36	5,4	7,4	7,2	1	1	1	1	1	1	1	1	1	0	1	-71,529246	272,961367	243,236742	0
15.01.2021	01:39:55	0	0	3,276712	4,386	70,6068	-0,972	79,178	0	1008,38	5,4	7,4	7,3	1	1	1	1	1	1	1	1	1	0	1	-72,093023	272,858969	242,200908	0
15.01.2021	01:39:56	0	0	2,824768	4,41075	74,52	-0,979	79,155	0	1008,34	5,4	7,4	7,2	1	1	1	1	1	1	1	1	1	0	1	-69,767442	272,951525	244,953148	0
15.01.2021	01:39:57	0	0	4,519602	4,33725	79,4376	-0,972	79,165	0	1008,34	5,4	7,4	7,3	1	1	1	1	1	1	1	1	1	0	1	-73,150106	273,043117	241,99313	0
15.01.2021	01:39:58	0	0	4,519602	4,43175	74,9268	-0,978	79,16	0	1008,28	5,4	7,4	7,3	1	1	1	1	1	1	1	1	1	0	1	-71,599718	272,95293	243,127355	0
15.01.2021	01:39:59	0	0	4,632592	4,45725	74,5344	-0,971	79,182	0	1008,3	5,4	7,4	7,3	1	1	1	1	1	1	1	1	1	0	1	-76,180409	272,860368	238,119969	0
15.01.2021	01:40:00	0	0	2,824751	4,0365	87,7428	-0,969	79,185	0	1008,38	5,4	7,4	7,3	1	1	1	1	1	1	1	1	1	0	1	-72,868217	272,975437	241,962675	0
15.01.2021	01:40:01	0	0	2,824751	3,8445	80,5032	-0,965	79,174	0	1008,38	5,4	7,4	7,3	1	1	1	1	1	1	1	1	1	0	1	-72,868217	272,975437	241,962675	0
15.01.2021	01:40:02	0	0	2,824751	3,8445	80,5032	-0,965	79,174	0	1008,38	5,4	7,4	7,3	1	1	1	1	1	1	1	1	1	0	1	-71,881607	272,875764	242,489713	0
15.01.2021	01:40:03	0	0	4,745582	3,75525	76,842	-0,974	79,156	0	1008,38	5,4	7,4	7,3	1	1	1	1	1	1	1	1	1	0	1	-75,616631	272,909398	238,909713	0
15.01.2021	01:40:04	0	0	4,971592	3,642	73,5264	-0,967	79,145	0	1008,44	5,4	7,4	7,2	1	1	1	1	1	1	1	1	1	0	1	-72,938689	272,92343	241,652346	0
15.01.2021	01:40:05	0	0	4,519629	3,6045	78,2928	-0,974	79,138	0	1008,42	5,4	7,4	7,2	1	1	1	1	1	1	1	1	1	0	1	-70,542636	272,874364	243,822232	0
15.01.2021	01:40:06	0	0	4,858602	3,8655	80,8776	-0,968	79,128	0	1008,34	5,4	7,4	7,2	1	1	1	1	1	1	1	1	1	0	1	-74,700493	272,938877	239,961769	0
15.01.2021	01:40:07	0	0	3,163722	4,086	80,9028	-0,963	79,122	0	1008,38	5,4	7,4	7,3	1	1	1	1	1	1	1	1	1	0	1	-74,418605	273,040292	240,71159	0
15.01.2021	01:40:08	0	0	4,293648	4,1535	80,4996	-0,965	79,1	0	1008,38	5,4	7,4	7,2	1	1	1	1	1	1	1	1	1	0	1	-78,012685	272,997971	236,922173	0
15.01.2021	01:40:09	0	0	4,858572	4,137	80,5176	-0,961	79,085	0	1008,28	5,4	7,4	7,3	1	1	1	1	1	1	1	1	1	0	1	-68,921776	272,885568	245,494726	0
15.01.2021	01:40:10	0	0	3,841662	4,26375	82,9728	-0,965	79,054	0	1008,48	5,5	7,4	7,3	1	1	1	1	1	1	1	1	1	0	1	-74,700493	273,024763	240,358017	0
15.01.2021	01:40:11	0	0	5,084553	4,27275	77,5944	-0,958	79,054	0	1008,38	5,4	7,4	7,3	1	1	1	1	1	1	1	1	1	0	1	-72,093023	272,937472	242,562761	0
15.01.2021	01:40:12	0	0	4,519602	4,21125	78,2856	-0,96	79,04	0	1008,42	5,4	7,4	7,3	1	1	1	1	1	1	1	1	1	0	1	-68,921776	272,875764	245,449544	0
15.01.2021	01:40:13	0	0	2,824751	4,0755	76,8276	-0,961	79,005	0	1008,22	5,4	7,4	7,3	1	1	1	1	1	1	1	1	1	0	1	-70,542636	272,986701	244,340221	0
15.01.2021	01:40:14	0	0	3,728672	3,90225	65,8368	-0,957	79,004	0	1008,3	5,4	7,4	7,3	1	1	1	1	1	1	1	1	1	0	1	-70,965469	272,882766	243,438121	0
15.01.2021	01:40:15	0	0	3,276712	3,79275	73,7892	-0,958	78,984	0	1008,2	5,4	7,4	7,3	1	1	1	1	1	1	1	1	1	0	1	-76,391825	272,916413	238,166858	0
15.01.2021	01:40:16	0	0	2,711761	3,7875	71,6076	-0,956	78,982	0	1008,32	5,4	7,4	7,3	1	1	1	1	1	1	1	1	1	0	1	-71,035941	272,903789	243,464544	0
15.01.2021	01:40:17	0	0	4,632592	3,93	75,9636	-0,956	78,981	0	1008,3	5,4	7,4	7,3	1	1	1	1	1	1	1	1	1	0	1	-73,9253	273,023352	241,126698	0
15.01.2021	01:40:18	0	0	3,728672	4,0095	69,48	-0,96	78,982	0	1008,4	5,4	7,4	7,3	1	1	1	1	1	1	1	1	1	0	1	-70,894996	272,996561	244,03336	0
15.01.2021	01:40:19	0	0	2,711778	3,97875	71,3376	-0,951	78,991	0	1008,24	5,4	7,4	7,2	1	1	1	1	1	1	1	1	1	0	1	-73,431994	273,05866	241,783009	0
15.01.2021	01:40:20	0	0	3,276712	4,1775	75,9708	-0,949	78,991	0	1008,14	5,4	7,4	7,3	1	1	1	1	1	1	1	1	1	0	1	-72,586328	272,982476	242,277037	0
15.01.2021	01:40:21	0	0	5,310533	4,13625	77,9544	-0,956	78,971	0	1008,3	5,4	7,4	7,3	1	1	1	1	1	1	1	1	1	0	1	-72,515856	273,05018	242,659992	0
15.01.2021	01:40:22	0	0	4,180632	4,032	79,0164	-0,949	78,987	0	1008,3	5,4	7,4	7,3	1	1	1	1	1	1	1	1	1	0	1	-72,233968	272,936068	242,415339	0
15.01.2021	01:40:23	0	0	4,632592	3,95175	83,016	-0,946	78,973	0	1008,34	5,4	7,4	7,3	1	1	1	1	1	1	1	1	1	0	1	-72,163495	273,040292	242,966699	0
15.01.2021	01:40:24	0	0	3,954652	4,0515	72,684	-0,947	78,963	0	1008,34	5,4	7,4	7,3	1	1	1	1	1	1	1	1	1	0	1	-71,035941	272,892574	243,41285	0
15.01.2021	01:40:25	0	0	4,632592	3,99375	62,046	-0,942	78,963	0	1008,28	5,4	7,4	7,3	1	1	1	1	1	1	1	1	1	0	1	-74,770965	272,989517	240,124888	0
15.01.2021	01:40:26	0	0	2,485781	3,72375	71,3124	-0,945	78,943	0	1008,26	5,5	7,4	7,3	1	1	1	1	1	1	1	1	1	0	1	-74,770965	272,912204	239,768313	0
15.01.2021	01:40:27	0	0	5,084553	3,471	74,1384	-0,944	78,953	0	1008,28	5,4	7,4	7,3	1	1	1	1	1	1	1	1	1	0	1	-76,180409	273,068558	239,080301	0
15.01.2021	01:40:28	0	0	4,293622	3,22275	72,0036	-0,95	78,965	0	1008,34	5,4	7,4	7,3	1	1	1	1	1	1	1	1	1	0	1	-73,854827	272,965587	240,930626	0
15.01.2021	01:40:29	0	0	4,63262	3,1785	77,5728	-0,946	78,972	0	1008,26	5,5	7,4	7,2	1	1	1	1	1	1	1	1	1	0	1	-73,150106	273,071387	242,123668	0
15.01.2021	01:40:30	0	0	2,937741	3,00375	74,1636	-0,939	78,976	0	1008,34	5,5	7,4	7,3	1	1	1	1	1	1	1	1	1	0	1	-72,727273	272,93045	241,89613	0
15.01.2021	01:40:31	0	0	3,728672	2,9115	73,044	-0,94	79,002	0	1008,36	5,5	7,4	7,3	1	1	1	1	1	1	1	1	1	0	1	-72,022551	273,071387	243,251223	0
15.01.2021	01:40:32	0	0	2,937741	3,05475	71,622	-0,939	79,006	0	1008,44	5,5	7,4	7,3	1	1	1	1	1	1	1	1	1	0	1	-70,190275	273,030409	244,894295	0
15.01.2021	01:40:33	0	0	4,745582	3,174	63,5904	-0,938	78,99	0	1008,32	5,4	7,4	7,3	1	1	1	1	1	1	1	1	1	0	1	-70,754052	273,034644	244,350068	0
15.01.2021	01:40:34	0	0	3,615682	3,162	44,3988	-0,938	78,996	0	1008,38	5,5	7,4	7,3	1	1	1	1	1	1	1	1	1	0	1	-70,190275	273,085538	245,148856	0
15.01.2021	01:40:35	0	0	4,519602	2,97825	49,5756	-0,936	78,972	0	1008,16	5,5	7,4	7,3	1	1	1	1	1	1	1	1	1	0	1	-71,881607	273,026174	243,183418	0
15.01.2021	01:40:36	0	0	4,293622	2,78475	57,7332	-0,936	78,969	0	1008,54	5,5	7,4	7,3	1	1	1	1	1	1	1	1	1	0	1	-74,489077	273,078461	240,817368	0
15.01.2021	01:40:37	0	0	2,824751	2,83125	69,8364	-0,931	78,95	0	1008,18	5,5	7,4	7,3	1	1	1	1	1	1	1	1	1	0	1	-73,29105	273,026174	241,773975	0
15.01.2021	01:40:38	0	0	3,615682	2,86275	75,2292	-0,932	78,922	0	1008,3	5,5	7,4	7,3	1	1	1	1	1	1	1	1	1	0	1	-74,559549	273,081292	240,759969	0
15.01.2021	01:40:39	0	0	2,824751	2,622	59,8536	-0,931	78,891	0	1008,42	5,5	7,4	7,3	1	1	1	1	1	1	1	1	1	0	1	-74,841438	272,940282	239,827303	0
15.01.2021	01:40:40	0	0	4,971562	2,41275	65,0952	-0,933	78,884	0	1008,52	5,5	7,4	7,3	1	1	1	1	1	1	1	1	1	0	1	-73,995772	272,926238	240,608209	0
15.01.2021	01:40:41	0	0	2,598771	2,3025	65,1636	-0,929	78,861	0	1008,46	5,5	7,4	7,3	1	1	1	1	1	1	1	1	1	0	1	-72,586328	272,926238	242,017652	0
15.01.2021	01:40:42	0	0	3,502692	2,313	70,8156	-0,93	78,825	0	1008,38	5,5	7,4	7,3	1	1	1	1	1	1	1	1	1	0	1	-74,841438	272,990926	240,060915	0
15.01.2021	01:40:43	0	0	3,389702	2,37	65,4768	-0,933	78,801	0	1008,36	5,5	7,4	7,3	1	1	1	1	1	1	1	1	1	0	1	-71,317829	273,075631	243,975546	0
15.01.2021	01:40:44	0	0	2,937741	2,41575	62,0136	-0,926	78,776	0	1008,44	5,5	7,4	7,3	1	1	1	1	1	1	1	1	1	0	1	-73,009161	272,969808	241,795762	0
15.01.2021	01:40:45	0	0	4,519602	2,3535	76,8204	-0,932	78,747	0	1008,44	5,4	7,4	7,3	1	1	1	1	1	1	1	1	1	0	1	-67,019027	273,074217	248,267813	0
15.01.2021	01:40:46	0	0	4,293622	2,50275	81,9792	-0,922	78,739	0	1008,46	5,5	7,4	7,3	1	1	1	1	1	1	1	1	1	0	1	-75,052854	273,064316	240,188264	0
15.01.2021	01:40:47	0	0	4,293622	3,01125	74,9304	-0,925	78,723	0	1008,32	5,5	7,4	7,3	1	1	1	1	1	1	1	1	1	0	1	-72,727273	273,037468	242,389883	0
15.01.2021	01:40:48	0	0	2,824751	3,363	79,056	-0,923	78,701	0	1008,38	5,5	7,4	7,3	1	1	1	1	1	1	1	1	1	0	1	-69,06272	272,906593	245,450693	0
15.01.2021	01:40:49	0	0	3,276712	3,5445	84,1248	-0,925	78,67	0	1008,32	5,5	7,4	7,3	1	1	1	1	1	1	1	1	1	0	1	-73,150106	273,086954	242,195564	0
15.01.2021	01:40:50	0	0	3,050732	3,5745	90,0036	-0,922	78,622	0	1008,42	5,5	7,4	7,3	1	1	1	1	1	1	1	1	1	0	1	-72,515856	272,958555	242,237158	0
15.01.2021	01:40:51	0	0	4,632592	3,40125	83,4444	-0,926	78,619	0	1008,32	5,5	7,4	7,3	1	1	1	1	1	1	1	1	1	0	1	-72,163495	273,089786	243,195254	0
15.01.2021	01:40:52	0	0	4,180632	3,21225	77,5692	-0,92	78,59	0	1008,36	5,5	7,4	7,3	1	1	1	1	1	1	1	1	1	0	1	-72,515856	272,947308	242,185286	0
15.01.2021	01:40:53	0	0	4,406612	3,00075	79,434	-0,922	78,552	0	1008,16	5,4	7,5	7,3	1	1	1	1	1	1	1	1	1	0	1	-70,260747	273,085538	245,078384	0
15.01.2021	01:40:54	0	0	4,745582	2,75025	80,1288	-0,918	78,532	0	1008,52	5,5	7,4	7,3	1	1	1	1	1	1	1	1	1	0	1	-72,515856	273,037468	242,6013	0
15.01.2021	01:40:55	0	0	2,711761	2,565	67,6656	-0,919	78,485	0	1008,52	5,4	7,5	7,3	1	1	1	1	1	1	1	1	1	0	1	-68,921776	273,051594	246,260597	0
15.01.2021	01:40:56	0	0	2,824751	2,69625	65,8404	-0,919	78,476	0	1008,34	5,5	7,4	7,3	1	1	1	1	1	1	1	1	1	0	1	-73,220578	273,096866	242,17088	0
15.01.2021	01:40:57	0	0	4,067642	2,70825	70,218	-0,916	78,445	0	1008,36	5,4	7,4	7,3	1	1	1	1	1	1	1	1	1	0	1	-68,357999	272,995152	246,563856	0
15.01.2021	01:40:58	0	0	5,197543	2,853	79,4304	-0,917	78,426	0	1008,34	5,5	7,4	7,3	1	1	1	1	1	1	1	1	1	0	1	-72,727273	272,92343	241,863763	0
15.01.2021	01:40:59	0	0	3,728694	3,14625	75,9996	-0,918	78,409	0	1008,4	5,5	7,4	7,2	1	1	1	1	1	1	1	1	1	0	1	-67,159972	272,92343	247,431064	0
15.01.2021	01:41:00	0	0	3,389702	3,402	74,1672	-0,915	78,389	0	1008,26	5,4	7,4	7,3	1	1	1	1	1	1	1	1	1	0	1	-73,572939	272,922027	241,011625	0
15.01.2021	01:41:01	0	0	4,406612	3,34425	73,044	-0,896	78,392	0	1008,48	5,4	7,4	7,3	1	1	1	1	1	1	1	1	1	0	1	-75,89852	272,978252	238,94536	0
15.01.2021	01:41:02	0	0	4,406612	3,34425	73,044	-0,896	78,392	0	1008,48	5,4	7,4	7,3	1	1	1	1	1	1	1	1	1	0	1	-75,89852	272,978252	238,94536	0
15.01.2021	01:41:03	0	0	3,502692	3,066	70,9596	-0,914	78,397	0	1008,42	5,5	7,4	7,3	1	1	1	1	1	1	1	1	1	0	1	-70,401691	273,092618	244,97014	0
15.01.2021	01:41:04	0	0	5,197543	2,94975	63,1656	-0,917	78,38	0	1008,2	5,4	7,5	7,3	1	1	1	1	1	1	1	1	1	0	1	-72,727273	273,082707	242,598782	0
15.01.2021	01:41:05	0	0	3,389722	2,838	74,9016	-0,916	78,373	0	1008,34	5,5	7,4	7,2	1	1	1	1	1	1	1	1	1	0	1	-73,572939	273,040292	241,557256	0
15.01.2021	01:41:06	0	0	4,632592	2,76675	75,9636	-0,915	78,357	0	1008,44	5,5	7,4	7,3	1	1	1	1	1	1	1	1	1	0	1	-75,968992	272,961367	238,796996	0
15.01.2021	01:41:07	0	0	4,745611	2,61225	69,4764	-0,912	78,348	0	1008,4	5,4	7,5	7,2	1	1	1	1	1	1	1	1	1	0	1	-72,868217	272,940282	241,800523	0
15.01.2021	01:41:08	0	0	3,954652	2,4795	55,1772	-0,896	78,326	0	1008,5	5,5	7,4	7,3	1	1	1	1	1	1	1	1	1	0	1	-73,009161	272,927642	241,601293	0
15.01.2021	01:41:09	0	0	2,824751	2,487	60,5412	-0,915	78,299	0	1008,42	5,5	7,4	7,3	1	1	1	1	1	1	1	1	1	0	1	-73,713883	272,983884	241,155979	0
15.01.2021	01:41:10	0	0	3,389702	2,59275	69,5808	-0,908	78,278	0	1008,38	5,5	7,5	7,3	1	1	1	1	1	1	1	1	1	0	1	-75,828048	272,933259	238,808306	0
15.01.2021	01:41:11	0	0	3,615704	2,811	81,9396	-0,913	78,252	0	1008,34	5,4	7,4	7,2	1	1	1	1	1	1	1	1	1	0	1	-72,445384	272,957148	242,301144	0
15.01.2021	01:41:12	0	0	5,197543	2,9775	73,7856	-0,91	78,223	0	1008,3	5,5	7,5	7,3	1	1	1	1	1	1	1	1	1	0	1	-66,807611	272,91922	247,764011	0
15.01.2021	01:41:13	0	0	4,180657	2,90475	75,6036	-0,915	78,212	0	1008,22	5,4	7,5	7,2	1	1	1	1	1	1	1	1	1	0	1	-71,881607	273,002198	243,072762	0
15.01.2021	01:41:14	0	0	4,519629	2,814	73,4364	-0,912	78,204	0	1008,48	5,4	7,4	7,2	1	1	1	1	1	1	1	1	1	0	1	-71,599718	273,102533	243,817918	0
15.01.2021	01:41:15	0	0	4,293622	2,7405	79,4304	-0,914	78,196	0	1008,34	5,4	7,4	7,3	1	1	1	1	1	1	1	1	1	0	1	-67,582805	273,074217	247,704036	0
15.01.2021	01:41:16	0	0	2,824768	2,6805	87,7572	-0,912	78,18	0	1008,3	5,4	7,5	7,2	1	1	1	1	1	1	1	1	1	0	1	-71,106413	273,089786	244,252336	0
15.01.2021	01:41:17	0	0	2,598787	2,63025	73,08	-0,912	78,178	0	1008,4	5,4	7,4	7,2	1	1	1	1	1	1	1	1	1	0	1	-70,965469	272,971215	243,845946	0
15.01.2021	01:41:18	0	0	3,276731	2,5515	77,2776	-0,915	78,154	0	1008,36	5,4	7,5	7,2	1	1	1	1	1	1	1	1	1	0	1	-71,035941	272,943092	243,645759	0
15.01.2021	01:41:19	0	0	2,598771	2,52825	63,1584	-0,917	78,149	0	1008,32	5,4	7,5	7,3	1	1	1	1	1	1	1	1	1	0	1	-69,133192	272,985292	245,743167	0
15.01.2021	01:41:20	0	0	4,180632	2,6265	66,9204	-0,91	78,13	0	1008,28	5,4	7,5	7,3	1	1	1	1	1	1	1	1	1	0	1	-74,418605	272,938877	240,243657	0
15.01.2021	01:41:21	0	0	3,389702	2,847	80,604	-0,912	78,107	0	1008,34	5,4	7,5	7,3	1	1	1	1	1	1	1	1	1	0	1	-73,150106	273,116707	242,333016	0
15.01.2021	01:41:22	0	0	4,858572	2,85825	79,4052	-0,911	78,104	0	1008,32	5,4	7,5	7,3	1	1	1	1	1	1	1	1	1	0	1	-73,502467	272,99938	241,438895	0
15.01.2021	01:41:23	0	0	2,937759	2,68575	83,3616	-0,917	78,082	0	1008,44	5,4	7,5	7,2	1	1	1	1	1	1	1	1	1	0	1	-70,260747	272,969808	244,544177	0
15.01.2021	01:41:24	0	0	2,711778	2,58225	86,67	-0,906	78,072	0	1008,3	5,5	7,5	7,2	1	1	1	1	1	1	1	1	1	0	1	-69,978858	273,085538	245,360272	0
15.01.2021	01:41:25	0	0	2,824768	2,421	99,9216	-0,912	78,036	0	1008,2	5,4	7,5	7,2	1	1	1	1	1	1	1	1	1	0	1	-68,498943	273,106784	246,938332	0
15.01.2021	01:41:26	0	0	5,310533	2,38575	88,1172	-0,914	78,025	0	1008,34	5,4	7,5	7,3	1	1	1	1	1	1	1	1	1	0	1	-71,811135	273,05442	243,384289	0
15.01.2021	01:41:27	0	0	4,971562	2,28075	88,9344	-0,912	78,034	0	1008,46	5,4	7,5	7,3	1	1	1	1	1	1	1	1	1	0	1	-72,374912	272,934663	242,267918	0
15.01.2021	01:41:28	0	0	3,502713	2,14425	92,2788	-0,91	78,018	0	1008,32	5,4	7,5	7,2	1	1	1	1	1	1	1	1	1	0	1	-72,797745	273,055833	242,404204	0
15.01.2021	01:41:29	0	0	4,745611	2,04675	97,038	-0,912	78,011	0	1008,46	5,4	7,5	7,2	1	1	1	1	1	1	1	1	1	0	1	-71,67019	272,944497	243,017989	0
15.01.2021	01:41:30	0	0	4,180657	1,983	98,7732	-0,914	78,014	0	1008,36	5,4	7,4	7,2	1	1	1	1	1	1	1	1	1	0	1	-69,908386	273,021941	245,137099	0
15.01.2021	01:41:31	0	0	4,519629	1,9035	81,9756	-0,915	78,002	0	1008,24	5,4	7,5	7,2	1	1	1	1	1	1	1	1	1	0	1	-73,572939	272,944497	241,115241	0
15.01.2021	01:41:32	0	0	5,197543	1,92525	95,1372	-0,915	78,005	0	1008,4	5,4	7,5	7,3	1	1	1	1	1	1	1	1	1	0	1	-77,801268	273,111036	237,655652	0
15.01.2021	01:41:33	0	0	2,824768	1,92825	88,578	-0,915	77,999	0	1008,38	5,5	7,5	7,2	1	1	1	1	1	1	1	1	1	0	1	-72,30444	273,037468	242,812716	0
15.01.2021	01:41:34	0	0	4,858602	1,95525	83,7576	-0,911	77,996	0	1008,3	5,4	7,5	7,2	1	1	1	1	1	1	1	1	1	0	1	-71,67019	272,93045	242,953212	0
15.01.2021	01:41:35	0	0	4,180657	1,91025	77,976	-0,914	78,009	0	1008,4	5,4	7,4	7,2	1	1	1	1	1	1	1	1	1	0	1	-73,713883	273,014888	241,299047	0
15.01.2021	01:41:36	0	0	2,598771	1,935	85,2804	-0,912	77,987	0	1008,26	5,4	7,5	7,3	1	1	1	1	1	1	1	1	1	0	1	-70,049331	273,106784	245,387945	0
15.01.2021	01:41:37	0	0	2,824768	1,91925	79,4448	-0,915	77,99	0	1008,38	5,4	7,4	7,2	1	1	1	1	1	1	1	1	1	0	1	-67,935166	272,972622	246,882741	0
15.01.2021	01:41:38	0	0	4,63262	1,89675	82,9908	-0,91	77,989	0	1008,4	5,4	7,5	7,2	1	1	1	1	1	1	1	1	1	0	1	-72,656801	273,085538	242,68233	0
15.01.2021	01:41:39	0	0	4,406612	1,91475	68,76	-0,915	77,978	0	1008,4	5,4	7,4	7,3	1	1	1	1	1	1	1	1	1	0	1	-75,546159	273,078461	239,760286	0
15.01.2021	01:41:40	0	0	3,728694	2,235	67,6872	-0,911	77,964	0	1008,42	5,4	7,5	7,2	1	1	1	1	1	1	1	1	1	0	1	-72,233968	273,10395	243,190214	0
15.01.2021	01:41:41	0	0	3,389722	2,40525	63,864	-0,912	77,932	0	1008,46	5,4	7,5	7,2	1	1	1	1	1	1	1	1	1	0	1	-74,91191	273,109619	240,538461	0
15.01.2021	01:41:42	0	0	4,293648	2,4165	70,8228	-0,916	77,92	0	1008,44	5,4	7,4	7,2	1	1	1	1	1	1	1	1	1	0	1	-70,542636	273,036056	244,568002	0
15.01.2021	01:41:43	0	0	5,084553	2,33925	64,7136	-0,915	77,914	0	1008,32	5,4	7,4	7,3	1	1	1	1	1	1	1	1	1	0	1	-70,965469	272,948713	243,742155	0
15.01.2021	01:41:44	0	0	4,971592	2,36625	71,9676	-0,916	77,883	0	1008,26	5,4	7,5	7,2	1	1	1	1	1	1	1	1	1	0	1	-71,740662	273,10395	243,683519	0
15.01.2021	01:41:45	0	0	2,824768	2,35275	77,2056	-0,914	77,863	0	1008,42	5,4	7,4	7,2	1	1	1	1	1	1	1	1	1	0	1	-72,022551	273,05018	243,153297	0
15.01.2021	01:41:46	0	0	2,824768	2,274	71,2296	-0,913	77,855	0	1008,36	5,4	7,5	7,2	1	1	1	1	1	1	1	1	1	0	1	-71,599718	273,118125	243,889955	0
15.01.2021	01:41:47	0	0	2,033809	2,214	77,9652	-0,911	77,853	0	1008,34	5,4	7,5	7,4	1	1	1	1	1	1	1	1	1	0	1	-68,639887	272,958555	246,113127	0
15.01.2021	01:41:48	0	0	3,502713	2,241	67,6764	-0,916	77,836	0	1008,34	5,4	7,5	7,2	1	1	1	1	1	1	1	1	1	0	1	-76,109937	272,972622	238,70797	0
15.01.2021	01:41:49	0	0	3,163741	2,46375	69,4764	-0,912	77,835	0	1008,4	5,4	7,5	7,2	1	1	1	1	1	1	1	1	1	0	1	-67,864693	272,940282	246,804047	0
15.01.2021	01:41:50	0	0	3,050732	2,78625	72,2808	-0,914	77,815	0	1008,4	5,4	7,5	7,3	1	1	1	1	1	1	1	1	1	0	1	-72,022551	272,966994	242,769392	0
15.01.2021	01:41:51	0	0	4,858602	3,054	72,0864	-0,91	77,809	0	1008,34	5,4	7,4	7,2	1	1	1	1	1	1	1	1	1	0	1	-68,569415	272,934663	246,073415	0
15.01.2021	01:41:52	0	0	3,728694	2,97375	73,7712	-0,917	77,824	0	1008,6	5,4	7,5	7,2	1	1	1	1	1	1	1	1	1	0	1	-71,599718	273,079877	243,713263	0
15.01.2021	01:41:53	0	0	2,824751	2,66025	60,5304	-0,917	77,804	0	1008,3	5,4	7,5	7,3	1	1	1	1	1	1	1	1	1	0	1	-69,274137	273,002198	245,680232	0
15.01.2021	01:41:54	0	0	2,937741	2,42925	69,4584	-0,912	77,818	0	1008,36	5,4	7,4	7,3	1	1	1	1	1	1	1	1	1	0	1	-74,418605	273,106784	241,018671	0
15.01.2021	01:41:55	0	0	4,519629	2,1795	75,6036	-0,916	77,818	0	1008,44	5,4	7,4	7,2	1	1	1	1	1	1	1	1	1	0	1	-72,022551	273,037468	243,094605	0
15.01.2021	01:41:56	0	0	4,63262	2,115	77,598	-0,919	77,814	0	1008,38	5,4	7,4	7,2	1	1	1	1	1	1	1	1	1	0	1	-70,68358	272,92343	243,907456	0
15.01.2021	01:41:57	0	0	3,728672	2,1	78,6708	-0,92	77,803	0	1008,34	5,4	7,5	7,3	1	1	1	1	1	1	1	1	1	0	1	-74,982382	273,000789	239,965483	0
15.01.2021	01:41:58	0	0	4,067666	2,169	88,9668	-0,914	77,802	0	1008,42	5,4	7,4	7,2	1	1	1	1	1	1	1	1	1	0	1	-72,656801	272,981068	242,200069	0
15.01.2021	01:41:59	0	0	4,745611	2,03325	62,7804	-0,918	77,801	0	1008,3	5,4	7,5	7,2	1	1	1	1	1	1	1	1	1	0	1	-72,093023	272,937472	242,562761	0
15.01.2021	01:42:00	0	0	3,502692	1,97175	71,9856	-0,915	77,791	0	1008,44	5,4	7,5	7,3	1	1	1	1	1	1	1	1	1	0	1	-72,656801	273,098283	242,741201	0
15.01.2021	01:42:01	0	0	4,632592	2,10825	91,1592	-0,916	77,779	0	1008,3	5,4	7,4	7,3	1	1	1	1	1	1	1	1	1	0	1	-70,472163	272,990926	244,430189	0
15.01.2021	01:42:02	0	0	4,632592	2,10825	91,1592	-0,916	77,779	0	1008,3	5,4	7,4	7,3	1	1	1	1	1	1	1	1	1	0	1	-70,472163	272,990926	244,430189	0
15.01.2021	01:42:03	0	0	2,824751	2,3235	68,7672	-0,916	77,774	0	1008,28	5,4	7,4	7,3	1	1	1	1	1	1	1	1	1	0	1	-70,190275	273,101116	245,220816	0
15.01.2021	01:42:04	0	0	4,632592	2,3745	67,2948	-0,918	77,788	0	1008,42	5,4	7,4	7,3	1	1	1	1	1	1	1	1	1	0	1	-69,556025	273,062902	245,678563	0
15.01.2021	01:42:05	0	0	4,63262	2,43525	80,5212	-0,914	77,805	0	1008,38	5,4	7,5	7,2	1	1	1	1	1	1	1	1	1	0	1	-71,035941	272,993743	243,879413	0
15.01.2021	01:42:06	0	0	3,841685	2,382	72,6876	-0,916	77,804	0	1008,4	5,4	7,4	7,2	1	1	1	1	1	1	1	1	1	0	1	-71,106413	273,098283	244,291589	0
15.01.2021	01:42:07	0	0	5,084553	2,23875	59,1048	-0,922	77,814	0	1008,3	5,4	7,5	7,3	1	1	1	1	1	1	1	1	1	0	1	-68,780832	273,069973	246,48641	0
15.01.2021	01:42:08	0	0	4,519629	2,1075	62,424	-0,923	77,817	0	1008,16	5,5	7,4	7,2	1	1	1	1	1	1	1	1	1	0	1	-72,093023	272,97403	242,731376	0
15.01.2021	01:42:09	0	0	2,937741	2,0145	64,242	-0,916	77,815	0	1008,38	5,4	7,5	7,3	1	1	1	1	1	1	1	1	1	0	1	-68,357999	272,954336	246,375559	0
15.01.2021	01:42:10	0	0	3,615682	1,91625	52,1316	-0,915	77,829	0	1008,34	5,4	7,4	7,3	1	1	1	1	1	1	1	1	1	0	1	-71,176885	272,931854	243,452993	0
15.01.2021	01:42:11	0	0	4,971562	1,854	59,4792	-0,913	77,821	0	1008,32	5,4	7,5	7,3	1	1	1	1	1	1	1	1	1	0	1	-75,828048	273,064316	239,41307	0
15.01.2021	01:42:12	0	0	3,728672	1,8075	59,1156	-0,917	77,833	0	1008,42	5,4	7,5	7,3	1	1	1	1	1	1	1	1	1	0	1	-73,643411	272,93045	240,979992	0
15.01.2021	01:42:13	0	0	4,745582	1,944	66,9096	-0,923	77,831	0	1008,32	5,4	7,4	7,3	1	1	1	1	1	1	1	1	1	0	1	-69,837914	273,061488	245,390145	0
15.01.2021	01:42:14	0	0	3,163741	2,15325	65,8548	-0,915	77,834	0	1008,28	5,4	7,4	7,2	1	1	1	1	1	1	1	1	1	0	1	-72,797745	273,092618	242,574086	0
15.01.2021	01:42:15	0	0	2,485781	2,30775	59,508	-0,918	77,818	0	1008,4	5,4	7,5	7,3	1	1	1	1	1	1	1	1	1	0	1	-68,921776	272,97403	245,902623	0
15.01.2021	01:42:16	0	0	2,598771	2,316	65,4588	-0,916	77,827	0	1008,4	5,4	7,4	7,3	1	1	1	1	1	1	1	1	1	0	1	-74,418605	272,929046	240,198323	0
15.01.2021	01:42:17	0	0	4,519602	2,3685	62,766	-0,917	77,833	0	1008,32	5,4	7,5	7,3	1	1	1	1	1	1	1	1	1	0	1	-75,193798	272,96418	239,585166	0
15.01.2021	01:42:18	0	0	2,598771	2,35125	66,5568	-0,923	77,819	0	1008,32	5,4	7,4	7,3	1	1	1	1	1	1	1	1	1	0	1	-70,613108	273,074217	244,673733	0
15.01.2021	01:42:19	0	0	4,858572	2,2875	62,8056	-0,919	77,823	0	1008,38	5,4	7,4	7,3	1	1	1	1	1	1	1	1	1	0	1	-71,67019	273,051594	243,512183	0
15.01.2021	01:42:20	0	0	3,841662	2,2275	74,5308	-0,916	77,812	0	1008,36	5,4	7,4	7,3	1	1	1	1	1	1	1	1	1	0	1	-72,30444	272,922027	242,280124	0
15.01.2021	01:42:21	0	0	2,711761	2,23275	69,4836	-0,919	77,827	0	1008,44	5,4	7,4	7,3	1	1	1	1	1	1	1	1	1	0	1	-72,093023	273,078461	243,213422	0
15.01.2021	01:42:22	0	0	4,971562	2,41125	67,6584	-0,916	77,832	0	1008,4	5,4	7,5	7,3	1	1	1	1	1	1	1	1	1	0	1	-70,754052	272,97403	244,070347	0
15.01.2021	01:42:23	0	0	4,745582	2,8455	75,9816	-0,914	77,838	0	1008,38	5,4	7,4	7,3	1	1	1	1	1	1	1	1	1	0	1	-74,982382	273,071387	240,291392	0
15.01.2021	01:42:24	0	0	2,598771	3,108	72,09	-0,923	77,806	0	1008,34	5,4	7,5	7,3	1	1	1	1	1	1	1	1	1	0	1	-67,159972	272,940282	247,508769	0
15.01.2021	01:42:25	0	0	3,728672	3,144	70,8696	-0,918	77,831	0	1008,46	5,4	7,4	7,3	1	1	1	1	1	1	1	1	1	0	1	-75,616631	272,936068	239,032675	0
15.01.2021	01:42:26	0	0	3,615682	3,28875	69,858	-0,924	77,821	0	1008,34	5,4	7,4	7,3	1	1	1	1	1	1	1	1	1	0	1	-70,68358	272,934663	243,95925	0
15.01.2021	01:42:27	0	0	4,971562	3,39375	71,2548	-0,915	77,818	0	1008,4	5,4	7,4	7,3	1	1	1	1	1	1	1	1	1	0	1	-71,247357	273,014888	243,765573	0
15.01.2021	01:42:28	0	0	3,050732	3,3255	74,1996	-0,921	77,791	0	1008,48	5,4	7,4	7,3	1	1	1	1	1	1	1	1	1	0	1	-73,150106	272,912204	241,389173	0
15.01.2021	01:42:29	0	0	4,519602	3,1935	81,216	-0,919	77,801	0	1008,34	5,5	7,4	7,3	1	1	1	1	1	1	1	1	1	0	1	-70,542636	272,992335	244,366217	0
15.01.2021	01:42:30	0	0	3,728672	3,35175	84,4236	-0,923	77,822	0	1008,3	5,4	7,4	7,3	1	1	1	1	1	1	1	1	1	0	1	-70,542636	272,910801	243,990176	0
15.01.2021	01:42:31	0	0	2,824751	3,7125	83,34	-0,916	77,854	0	1008,4	5,4	7,4	7,3	1	1	1	1	1	1	1	1	1	0	1	-71,035941	273,030409	244,048629	0
15.01.2021	01:42:32	0	0	5,197543	3,89025	80,172	-0,926	77,878	0	1008,22	5,4	7,4	7,3	1	1	1	1	1	1	1	1	1	0	1	-72,445384	272,907996	242,074495	0
15.01.2021	01:42:33	0	0	2,598771	3,84	75,6072	-0,921	77,909	0	1008,44	5,4	7,4	7,3	1	1	1	1	1	1	1	1	1	0	1	-79,774489	273,012067	235,225423	0
15.01.2021	01:42:34	0	0	4,519602	3,74775	78,2712	-0,92	77,961	0	1008,32	5,4	7,4	7,3	1	1	1	1	1	1	1	1	1	0	1	-70,119803	272,905191	244,387146	0
15.01.2021	01:42:35	0	0	4,406612	3,59475	80,8812	-0,913	77,992	0	1008,52	5,4	7,5	7,3	1	1	1	1	1	1	1	1	1	0	1	-70,331219	273,05018	244,844629	0
15.01.2021	01:42:36	0	0	4,519602	3,4425	86,2776	-0,911	78	0	1008,4	5,4	7,4	7,3	1	1	1	1	1	1	1	1	1	0	1	-69,69697	273,071387	245,576804	0
15.01.2021	01:42:37	0	0	3,276712	3,42675	68,0076	-0,917	78,03	0	1008,28	5,4	7,4	7,3	1	1	1	1	1	1	1	1	1	0	1	-70,472163	272,95293	244,25491	0
15.01.2021	01:42:38	0	0	4,519602	3,47925	79,038	-0,923	78,035	0	1008,4	5,4	7,4	7,3	1	1	1	1	1	1	1	1	1	0	1	-71,67019	273,079877	243,642791	0
15.01.2021	01:42:39	0	0	3,163722	3,633	79,3908	-0,92	78,039	0	1008,42	5,4	7,4	7,3	1	1	1	1	1	1	1	1	1	0	1	-70,331219	272,934663	244,311611	0
15.01.2021	01:42:40	0	0	2,711761	3,6675	73,4292	-0,917	78,05	0	1008,36	5,4	7,4	7,3	1	1	1	1	1	1	1	1	1	0	1	-71,740662	273,057247	243,467813	0
15.01.2021	01:42:41	0	0	2,598771	3,60075	84,8196	-0,913	78,051	0	1008,44	5,4	7,4	7,3	1	1	1	1	1	1	1	1	1	0	1	-68,146582	273,068558	247,114128	0
15.01.2021	01:42:42	0	0	3,163722	3,55875	85,6224	-0,916	78,047	0	1008,38	5,4	7,4	7,3	1	1	1	1	1	1	1	1	1	0	1	-78,365046	273,013478	236,641375	0
15.01.2021	01:42:43	0	0	4,180632	3,453	75,6324	-0,919	78,051	0	1008,44	5,4	7,4	7,3	1	1	1	1	1	1	1	1	1	0	1	-69,133192	272,899582	245,347903	0
15.01.2021	01:42:44	0	0	5,084553	3,546	76,3668	-0,921	78,034	0	1008,4	5,5	7,5	7,3	1	1	1	1	1	1	1	1	1	0	1	-71,881607	273,027586	243,189932	0
15.01.2021	01:42:45	0	0	4,067642	3,522	74,178	-0,922	78,044	0	1008,32	5,4	7,4	7,3	1	1	1	1	1	1	1	1	1	0	1	-71,106413	273,030409	243,978157	0
15.01.2021	01:42:46	0	0	5,197543	3,3525	75,1644	-0,92	78,028	0	1008,32	5,4	7,4	7,3	1	1	1	1	1	1	1	1	1	0	1	-72,586328	273,05018	242,58952	0
15.01.2021	01:42:47	0	0	3,502692	3,24	76,8312	-0,915	78,033	0	1008,42	5,4	7,5	7,3	1	1	1	1	1	1	1	1	1	0	1	-67,0895	272,997971	247,845359	0
15.01.2021	01:42:48	0	0	4,632592	3,14925	71,2368	-0,915	78,023	0	1008,42	5,4	7,4	7,3	1	1	1	1	1	1	1	1	1	0	1	-66,948555	272,88837	247,48086	0
15.01.2021	01:42:49	0	0	5,084553	3,05625	79,7724	-0,916	78,005	0	1008,44	5,4	7,4	7,3	1	1	1	1	1	1	1	1	1	0	1	-71,458774	272,951525	243,261816	0
15.01.2021	01:42:50	0	0	3,502692	2,87775	77,2128	-0,923	77,994	0	1008,4	5,4	7,4	7,3	1	1	1	1	1	1	1	1	1	0	1	-71,388302	273,060074	243,833229	0
15.01.2021	01:42:51	0	0	3,615682	2,68725	74,916	-0,921	77,972	0	1008,42	5,4	7,4	7,3	1	1	1	1	1	1	1	1	1	0	1	-72,727273	272,929046	241,889655	0
15.01.2021	01:42:52	0	0	3,050732	2,613	78,2856	-0,916	77,967	0	1008,5	5,4	7,4	7,3	1	1	1	1	1	1	1	1	1	0	1	-71,952079	272,916413	242,606604	0
15.01.2021	01:42:53	0	0	2,372791	2,50275	73,4328	-0,918	77,944	0	1008,36	5,5	7,5	7,3	1	1	1	1	1	1	1	1	1	0	1	-69,274137	272,878565	245,11009	0
15.01.2021	01:42:54	0	0	2,824751	2,40075	65,8548	-0,917	77,915	0	1008,48	5,4	7,4	7,3	1	1	1	1	1	1	1	1	1	0	1	-71,247357	272,954336	243,486201	0
15.01.2021	01:42:55	0	0	3,389702	2,25825	82,9836	-0,919	77,915	0	1008,26	5,4	7,4	7,3	1	1	1	1	1	1	1	1	1	0	1	-71,599718	273,060074	243,621813	0
15.01.2021	01:42:56	0	0	3,050732	2,223	73,4148	-0,919	77,895	0	1008,44	5,4	7,4	7,3	1	1	1	1	1	1	1	1	1	0	1	-71,740662	272,92343	242,850373	0
15.01.2021	01:42:57	0	0	2,824751	2,34825	90,4212	-0,921	77,904	0	1008,5	5,4	7,4	7,3	1	1	1	1	1	1	1	1	1	0	1	-73,361522	273,009247	241,625375	0
15.01.2021	01:42:58	0	0	3,954652	2,469	84,8124	-0,918	77,899	0	1008,38	5,4	7,5	7,3	1	1	1	1	1	1	1	1	1	0	1	-70,401691	273,072802	244,878616	0
15.01.2021	01:42:59	0	0	3,728672	2,5485	77,202	-0,92	77,894	0	1008,32	5,4	7,4	7,3	1	1	1	1	1	1	1	1	1	0	1	-71,176885	273,010657	243,816519	0
15.01.2021	01:43:00	0	0	4,971562	2,8485	74,9268	-0,924	77,878	0	1008,36	5,4	7,4	7,3	1	1	1	1	1	1	1	1	1	0	1	-68,287526	273,06573	246,960121	0
15.01.2021	01:43:01	0	0	2,711761	2,91225	79,4268	-0,925	77,869	0	1008,24	5,4	7,4	7,3	1	1	1	1	1	1	1	1	1	0	1	-68,780832	273,034644	246,323288	0
15.01.2021	01:43:02	0	0	2,711761	2,91225	79,4268	-0,925	77,869	0	1008,24	5,4	7,4	7,3	1	1	1	1	1	1	1	1	1	0	1	-68,780832	273,034644	246,323288	0
15.01.2021	01:43:03	0	0	2,485781	2,82	85,536	-0,917	77,861	0	1008,34	5,5	7,4	7,3	1	1	1	1	1	1	1	1	1	0	1	-69,344609	272,93045	245,278794	0
15.01.2021	01:43:04	0	0	2,937741	2,73375	68,7456	-0,92	77,874	0	1008,38	5,5	7,4	7,3	1	1	1	1	1	1	1	1	1	0	1	-69,908386	273,061488	245,319673	0
15.01.2021	01:43:05	0	0	4,745582	2,79825	83,3508	-0,918	77,867	0	1008,46	5,4	7,4	7,3	1	1	1	1	1	1	1	1	1	0	1	-74,418605	272,937472	240,237179	0
15.01.2021	01:43:06	0	0	2,824751	2,80425	65,0808	-0,92	77,86	0	1008,34	5,4	7,4	7,3	1	1	1	1	1	1	1	1	1	0	1	-66,807611	272,912204	247,731667	0
15.01.2021	01:43:07	0	0	3,276712	2,75775	77,1984	-0,917	77,869	0	1008,28	5,4	7,4	7,3	1	1	1	1	1	1	1	1	1	0	1	-69,203665	273,009247	245,783232	0
15.01.2021	01:43:08	0	0	2,937741	2,88075	69,8616	-0,916	77,892	0	1008,36	5,4	7,4	7,3	1	1	1	1	1	1	1	1	1	0	1	-69,415081	272,892574	245,03371	0
15.01.2021	01:43:09	0	0	3,389702	2,7975	76,3524	-0,918	77,888	0	1008,24	5,4	7,4	7,3	1	1	1	1	1	1	1	1	1	0	1	-67,723749	272,958555	247,029265	0
15.01.2021	01:43:10	0	0	4,180632	2,68875	76,842	-0,916	77,885	0	1008,4	5,4	7,4	7,3	1	1	1	1	1	1	1	1	1	0	1	-69,626498	273,051594	245,555875	0
15.01.2021	01:43:11	0	0	3,276712	2,56875	80,5068	-0,92	77,895	0	1008,4	5,5	7,4	7,3	1	1	1	1	1	1	1	1	1	0	1	-73,431994	272,981068	241,424875	0
15.01.2021	01:43:12	0	0	3,728672	2,4765	76,3812	-0,919	77,87	0	1008,5	5,4	7,4	7,3	1	1	1	1	1	1	1	1	1	0	1	-72,30444	273,047355	242,858362	0
15.01.2021	01:43:13	0	0	3,389702	2,37825	74,1636	-0,923	77,882	0	1008,2	5,5	7,4	7,3	1	1	1	1	1	1	1	1	1	0	1	-77,51938	272,902386	236,974641	0
15.01.2021	01:43:14	0	0	4,067642	2,28375	73,062	-0,92	77,884	0	1008,36	5,4	7,4	7,3	1	1	1	1	1	1	1	1	1	0	1	-67,582805	273,028997	247,495249	0
15.01.2021	01:43:15	0	0	4,745582	2,2515	69,4476	-0,92	77,881	0	1008,42	5,4	7,4	7,3	1	1	1	1	1	1	1	1	1	0	1	-71,811135	273,040292	243,31906	0
15.01.2021	01:43:16	0	0	4,406612	2,20875	71,6184	-0,92	77,869	0	1008,4	5,5	7,4	7,3	1	1	1	1	1	1	1	1	1	0	1	-73,9253	272,907996	240,594579	0
15.01.2021	01:43:17	0	0	3,841662	2,31675	64,6308	-0,926	77,843	0	1008,36	5,4	7,4	7,3	1	1	1	1	1	1	1	1	1	0	1	-69,415081	272,912204	245,124197	0
15.01.2021	01:43:18	0	0	2,937741	2,424	64,26	-0,92	77,855	0	1008,38	5,4	7,4	7,3	1	1	1	1	1	1	1	1	1	0	1	-75,828048	272,948713	238,879576	0
15.01.2021	01:43:19	0	0	3,276712	2,529	65,844	-0,92	77,84	0	1008,4	5,4	7,4	7,3	1	1	1	1	1	1	1	1	1	0	1	-75,405215	272,871564	238,94675	0
15.01.2021	01:43:20	0	0	2,937741	2,68125	65,8476	-0,923	77,827	0	1008,36	5,4	7,4	7,3	1	1	1	1	1	1	1	1	1	0	1	-67,935166	273,002198	247,019203	0
15.01.2021	01:43:21	0	0	4,632592	2,85075	55,5372	-0,921	77,814	0	1008,42	5,5	7,4	7,3	1	1	1	1	1	1	1	1	1	0	1	-75,193798	273,044529	239,955959	0
15.01.2021	01:43:22	0	0	2,711761	2,8125	74,2824	-0,926	77,795	0	1008,4	5,5	7,4	7,3	1	1	1	1	1	1	1	1	1	0	1	-70,542636	272,91501	244,009579	0
15.01.2021	01:43:23	0	0	4,858572	2,7285	66,5388	-0,926	77,783	0	1008,44	5,5	7,4	7,3	1	1	1	1	1	1	1	1	1	0	1	-75,193798	273,062902	240,04079	0
15.01.2021	01:43:24	0	0	4,406612	2,6625	67,2912	-0,925	77,785	0	1008,52	5,5	7,4	7,3	1	1	1	1	1	1	1	1	1	0	1	-67,582805	273,009247	247,404092	0
15.01.2021	01:43:25	0	0	4,745582	2,5695	72,6732	-0,926	77,784	0	1008,34	5,5	7,4	7,3	1	1	1	1	1	1	1	1	1	0	1	-72,445384	272,881366	241,951751	0
15.01.2021	01:43:26	0	0	4,519602	2,52825	69,9372	-0,921	77,811	0	1008,42	5,5	7,4	7,3	1	1	1	1	1	1	1	1	1	0	1	-73,572939	273,013478	241,433482	0
15.01.2021	01:43:27	0	0	4,406612	2,60925	66,222	-0,924	77,794	0	1008,44	5,5	7,4	7,3	1	1	1	1	1	1	1	1	1	0	1	-68,639887	272,877164	245,737886	0
15.01.2021	01:43:28	0	0	4,858572	2,66925	75,6036	-0,926	77,815	0	1008,44	5,5	7,4	7,3	1	1	1	1	1	1	1	1	1	0	1	-71,247357	273,007837	243,733033	0
15.01.2021	01:43:29	0	0	2,824751	2,60475	74,5668	-0,927	77,838	0	1008,36	5,5	7,4	7,3	1	1	1	1	1	1	1	1	1	0	1	-73,9253	272,889771	240,510574	0
15.01.2021	01:43:30	0	0	3,841662	2,472	68,8608	-0,927	77,85	0	1008,44	5,5	7,4	7,3	1	1	1	1	1	1	1	1	1	0	1	-71,317829	273,012067	243,682083	0
15.01.2021	01:43:31	0	0	2,937741	2,4225	78,6744	-0,919	77,856	0	1008,46	5,5	7,5	7,3	1	1	1	1	1	1	1	1	1	0	1	-71,952079	273,000789	242,995786	0
15.01.2021	01:43:32	0	0	5,084553	2,40525	79,758	-0,921	77,865	0	1008,38	5,5	7,4	7,3	1	1	1	1	1	1	1	1	1	0	1	-71,035941	272,877164	243,341832	0
15.01.2021	01:43:33	0	0	5,084553	2,36025	76,7916	-0,927	77,875	0	1008,34	5,5	7,4	7,3	1	1	1	1	1	1	1	1	1	0	1	-78,50599	272,969808	236,298933	0
15.01.2021	01:43:34	0	0	3,954652	2,32275	78,2748	-0,924	77,907	0	1008,4	5,5	7,4	7,3	1	1	1	1	1	1	1	1	1	0	1	-70,119803	272,875764	244,251518	0
15.01.2021	01:43:35	0	0	3,276712	2,37	73,7784	-0,92	77,907	0	1008,38	5,4	7,4	7,3	1	1	1	1	1	1	1	1	1	0	1	-66,032417	272,924834	248,565091	0
15.01.2021	01:43:36	0	0	4,745582	2,34975	77,5764	-0,924	77,921	0	1008,32	5,5	7,4	7,3	1	1	1	1	1	1	1	1	1	0	1	-69,837914	273,045942	245,318365	0
15.01.2021	01:43:37	0	0	2,824751	2,364	79,7436	-0,928	77,892	0	1008,18	5,5	7,4	7,3	1	1	1	1	1	1	1	1	1	0	1	-71,952079	272,929046	242,664849	0
15.01.2021	01:43:38	0	0	2,259801	2,4615	72,0036	-0,918	77,913	0	1008,44	5,4	7,4	7,3	1	1	1	1	1	1	1	1	1	0	1	-69,415081	273,041704	245,721634	0
15.01.2021	01:43:39	0	0	2,937741	2,643	75,222	-0,924	77,89	0	1008,26	5,4	7,4	7,3	1	1	1	1	1	1	1	1	1	0	1	-71,247357	272,907996	243,272521	0
15.01.2021	01:43:40	0	0	4,406612	2,72475	74,9088	-0,927	77,914	0	1008,38	5,5	7,4	7,3	1	1	1	1	1	1	1	1	1	0	1	-68,921776	272,910801	245,611035	0
15.01.2021	01:43:41	0	0	4,858572	2,727	67,2804	-0,923	77,894	0	1008,46	5,5	7,4	7,3	1	1	1	1	1	1	1	1	1	0	1	-77,307963	273,060074	237,913567	0
15.01.2021	01:43:42	0	0	2,937741	2,751	64,2384	-0,92	77,886	0	1008,44	5,5	7,4	7,3	1	1	1	1	1	1	1	1	1	0	1	-70,542636	272,889771	243,893238	0
15.01.2021	01:43:43	0	0	3,163722	2,48325	61,6932	-0,919	77,883	0	1008,44	5,5	7,4	7,3	1	1	1	1	1	1	1	1	1	0	1	-69,274137	272,867365	245,058479	0
15.01.2021	01:43:44	0	0	3,954652	2,40975	49,2012	-0,929	77,872	0	1008,38	5,5	7,4	7,3	1	1	1	1	1	1	1	1	1	0	1	-70,049331	272,920623	244,528762	0
15.01.2021	01:43:45	0	0	4,745582	2,29425	73,0584	-0,925	77,882	0	1008,46	5,5	7,4	7,3	1	1	1	1	1	1	1	1	1	0	1	-75,616631	273,045942	239,539648	0
15.01.2021	01:43:46	0	0	4,858572	2,1615	74,8944	-0,923	77,866	0	1008,44	5,5	7,4	7,3	1	1	1	1	1	1	1	1	1	0	1	-73,9253	272,926238	240,678681	0
15.01.2021	01:43:47	0	0	4,745582	2,0895	49,572	-0,929	77,874	0	1008,34	5,5	7,4	7,3	1	1	1	1	1	1	1	1	1	0	1	-72,093023	272,868765	242,246042	0
15.01.2021	01:43:48	0	0	2,485781	2,1765	63,2124	-0,922	77,898	0	1008,28	5,5	7,4	7,3	1	1	1	1	1	1	1	1	1	0	1	-72,30444	272,957148	242,442089	0
15.01.2021	01:43:49	0	0	4,745582	2,20875	67,3128	-0,921	77,921	0	1008,46	5,5	7,4	7,3	1	1	1	1	1	1	1	1	1	0	1	-70,119803	272,872964	244,238614	0
15.01.2021	01:43:50	0	0	3,050732	2,2875	67,7124	-0,923	77,911	0	1008,34	5,5	7,4	7,3	1	1	1	1	1	1	1	1	1	0	1	-69,837914	272,969808	244,96701	0
15.01.2021	01:43:51	0	0	3,841662	2,58	66,9204	-0,932	77,924	0	1008,34	5,5	7,4	7,3	1	1	1	1	1	1	1	1	1	0	1	-70,894996	272,867365	243,437619	0
15.01.2021	01:43:52	0	0	4,293622	2,84325	69,5736	-0,927	77,934	0	1008,44	5,5	7,5	7,3	1	1	1	1	1	1	1	1	1	0	1	-72,233968	272,907996	242,285911	0
15.01.2021	01:43:53	0	0	3,163722	2,97075	66,9132	-0,937	77,936	0	1008,44	5,5	7,4	7,3	1	1	1	1	1	1	1	1	1	0	1	-72,445384	272,881366	241,951751	0
15.01.2021	01:43:54	0	0	5,084553	3,09075	66,9132	-0,924	77,945	0	1008,36	5,5	7,4	7,3	1	1	1	1	1	1	1	1	1	0	1	-72,515856	273,009247	242,471041	0
15.01.2021	01:43:55	0	0	3,728672	3,19875	65,4768	-0,925	77,936	0	1008,32	5,5	7,4	7,3	1	1	1	1	1	1	1	1	1	0	1	-72,938689	272,906593	241,574724	0
15.01.2021	01:43:56	0	0	2,711761	3,1935	71,9928	-0,924	77,945	0	1008,46	5,5	7,4	7,3	1	1	1	1	1	1	1	1	1	0	1	-69,908386	273,030409	245,176183	0
15.01.2021	01:43:57	0	0	2,824751	3,23175	66,9276	-0,924	77,958	0	1008,44	5,5	7,4	7,3	1	1	1	1	1	1	1	1	1	0	1	-69,274137	273,033232	245,823466	0
15.01.2021	01:43:58	0	0	2,711761	3,207	72,6768	-0,924	77,97	0	1008,4	5,5	7,4	7,3	1	1	1	1	1	1	1	1	1	0	1	-70,824524	272,917816	243,740628	0
15.01.2021	01:43:59	0	0	3,954652	3,15	68,4864	-0,925	77,98	0	1008,38	5,5	7,4	7,3	1	1	1	1	1	1	1	1	1	0	1	-71,035941	272,903789	243,464544	0
15.01.2021	01:44:00	0	0	2,485781	3,13725	78,2712	-0,927	78,02	0	1008,44	5,5	7,4	7,3	1	1	1	1	1	1	1	1	1	0	1	-69,415081	272,934663	245,227749	0
15.01.2021	01:44:01	0	0	2,485781	3,13725	78,2712	-0,927	78,02	0	1008,44	5,5	7,4	7,3	1	1	1	1	1	1	1	1	1	0	1	-69,415081	272,934663	245,227749	0
15.01.2021	01:44:02	0	0	2,937741	3,17325	76,374	-0,931	78,04	0	1008,38	5,5	7,4	7,3	1	1	1	1	1	1	1	1	1	0	1	-71,740662	272,871564	242,611303	0
15.01.2021	01:44:03	0	0	4,858572	3,28725	82,9692	-0,926	78,066	0	1008,5	5,5	7,4	7,3	1	1	1	1	1	1	1	1	1	0	1	-72,797745	272,920623	241,780348	0
15.01.2021	01:44:04	0	0	2,485781	3,39825	75,2364	-0,927	78,088	0	1008,3	5,5	7,4	7,3	1	1	1	1	1	1	1	1	1	0	1	-72,727273	273,024763	242,331238	0
15.01.2021	01:44:05	0	0	4,632592	3,29925	81,9684	-0,926	78,092	0	1008,36	5,5	7,4	7,3	1	1	1	1	1	1	1	1	1	0	1	-69,415081	273,021941	245,630404	0
15.01.2021	01:44:06	0	0	4,745582	3,23925	78,6492	-0,929	78,112	0	1008,32	5,5	7,4	7,3	1	1	1	1	1	1	1	1	1	0	1	-74,700493	272,990926	240,20186	0
15.01.2021	01:44:07	0	0	4,745582	3,102	73,4436	-0,927	78,111	0	1008,34	5,5	7,4	7,3	1	1	1	1	1	1	1	1	1	0	1	-68,851304	272,886969	245,571655	0
15.01.2021	01:44:08	0	0	3,050732	2,994	76,842	-0,922	78,121	0	1008,44	5,4	7,4	7,3	1	1	1	1	1	1	1	1	1	0	1	-68,992248	273,036056	246,11839	0
15.01.2021	01:44:09	0	0	5,084553	2,775	60,552	-0,924	78,128	0	1008,4	5,5	7,4	7,3	1	1	1	1	1	1	1	1	1	0	1	-67,230444	272,916413	247,328239	0
15.01.2021	01:44:10	0	0	3,728672	2,535	71,6184	-0,924	78,101	0	1008,58	5,5	7,4	7,3	1	1	1	1	1	1	1	1	1	0	1	-69,908386	272,985292	244,967973	0
15.01.2021	01:44:11	0	0	2,711761	2,3805	73,4184	-0,921	78,107	0	1008,46	5,5	7,4	7,3	1	1	1	1	1	1	1	1	1	0	1	-71,740662	272,870164	242,604852	0
15.01.2021	01:44:12	0	0	4,519602	2,3385	73,0404	-0,925	78,096	0	1008,34	5,5	7,5	7,3	1	1	1	1	1	1	1	1	1	0	1	-74,841438	272,976845	239,995948	0
15.01.2021	01:44:13	0	0	3,163722	2,4465	77,2164	-0,92	78,088	0	1008,4	5,5	7,4	7,3	1	1	1	1	1	1	1	1	1	0	1	-70,472163	273,045942	244,684116	0
15.01.2021	01:44:14	0	0	4,180632	2,526	79,0416	-0,926	78,056	0	1008,34	5,5	7,5	7,3	1	1	1	1	1	1	1	1	1	0	1	-72,586328	272,988109	242,303026	0
15.01.2021	01:44:15	0	0	2,711761	2,6325	80,8956	-0,925	78,066	0	1008,4	5,5	7,4	7,3	1	1	1	1	1	1	1	1	1	0	1	-71,740662	272,872964	242,617754	0
15.01.2021	01:44:16	0	0	4,858572	2,664	72,6732	-0,918	78,036	0	1008,46	5,5	7,5	7,3	1	1	1	1	1	1	1	1	1	0	1	-74,27766	273,010657	240,715744	0
15.01.2021	01:44:17	0	0	3,502692	2,64	79,0272	-0,919	78,032	0	1008,48	5,4	7,4	7,3	1	1	1	1	1	1	1	1	1	0	1	-70,119803	272,864566	244,199916	0
15.01.2021	01:44:18	0	0	4,406612	2,56275	77,5692	-0,921	78,024	0	1008,42	5,5	7,4	7,3	1	1	1	1	1	1	1	1	1	0	1	-72,374912	272,916413	242,183771	0
15.01.2021	01:44:19	0	0	3,728672	2,56725	77,2164	-0,923	78,008	0	1008,54	5,5	7,5	7,3	1	1	1	1	1	1	1	1	1	0	1	-71,317829	272,860368	242,982548	0
15.01.2021	01:44:20	0	0	4,632592	2,5395	69,858	-0,923	77,99	0	1008,44	5,5	7,4	7,3	1	1	1	1	1	1	1	1	1	0	1	-72,374912	272,906593	242,138501	0
15.01.2021	01:44:21	0	0	2,033821	2,46	73,8792	-0,928	77,954	0	1008,36	5,5	7,4	7,3	1	1	1	1	1	1	1	1	1	0	1	-69,203665	273,026174	245,86136	0
15.01.2021	01:44:22	0	0	5,084553	2,4375	70,2252	-0,921	77,946	0	1008,36	5,5	7,4	7,3	1	1	1	1	1	1	1	1	1	0	1	-75,193798	273,024763	239,864712	0
15.01.2021	01:44:23	0	0	3,276712	2,379	67,6656	-0,922	77,944	0	1008,42	5,5	7,4	7,3	1	1	1	1	1	1	1	1	1	0	1	-68,921776	272,920623	245,656317	0
15.01.2021	01:44:24	0	0	4,406612	2,39625	70,6212	-0,921	77,924	0	1008,44	5,5	7,4	7,3	1	1	1	1	1	1	1	1	1	0	1	-73,361522	272,861767	240,945302	0
15.01.2021	01:44:25	0	0	5,197543	2,5155	86,652	-0,925	77,921	0	1008,34	5,5	7,4	7,3	1	1	1	1	1	1	1	1	1	0	1	-70,260747	272,913607	244,284999	0
15.01.2021	01:44:26	0	0	3,841662	2,49075	67,662	-0,925	77,901	0	1008,26	5,5	7,4	7,3	1	1	1	1	1	1	1	1	1	0	1	-70,119803	273,043117	245,023433	0
15.01.2021	01:44:27	0	0	5,423523	2,42475	71,9784	-0,921	77,907	0	1008,5	5,5	7,4	7,3	1	1	1	1	1	1	1	1	1	0	1	-70,260747	272,899582	244,220348	0
15.01.2021	01:44:28	0	0	4,858572	2,34825	80,1432	-0,927	77,902	0	1008,36	5,5	7,4	7,3	1	1	1	1	1	1	1	1	1	0	1	-69,344609	273,005018	245,622769	0
15.01.2021	01:44:29	0	0	2,824751	2,33325	78,6672	-0,922	77,918	0	1008,46	5,5	7,4	7,3	1	1	1	1	1	1	1	1	1	0	1	-70,331219	272,910801	244,201592	0
15.01.2021	01:44:30	0	0	3,502692	2,29275	73,4364	-0,93	77,908	0	1008,5	5,5	7,4	7,3	1	1	1	1	1	1	1	1	1	0	1	-74,841438	272,849179	239,407388	0
15.01.2021	01:44:31	0	0	2,937741	2,199	60,2424	-0,929	77,915	0	1008,2	5,5	7,4	7,3	1	1	1	1	1	1	1	1	1	0	1	-72,093023	272,937472	242,562761	0
15.01.2021	01:44:32	0	0	4,632592	2,2215	73,7712	-0,923	77,921	0	1008,42	5,5	7,4	7,3	1	1	1	1	1	1	1	1	1	0	1	-72,093023	273,01912	242,939438	0
15.01.2021	01:44:33	0	0	2,937741	2,3685	69,1416	-0,924	77,918	0	1008,48	5,5	7,4	7,3	1	1	1	1	1	1	1	1	1	0	1	-73,29105	272,950119	241,423057	0
15.01.2021	01:44:34	0	0	4,632592	2,57925	85,5288	-0,932	77,915	0	1008,4	5,5	7,4	7,3	1	1	1	1	1	1	1	1	1	0	1	-71,247357	273,017709	243,778593	0
15.01.2021	01:44:35	0	0	4,745582	2,511	68,7816	-0,927	77,91	0	1008,44	5,5	7,4	7,3	1	1	1	1	1	1	1	1	1	0	1	-69,837914	272,884167	244,572131	0
15.01.2021	01:44:36	0	0	4,519602	2,4285	70,2252	-0,926	77,908	0	1008,48	5,5	7,4	7,3	1	1	1	1	1	1	1	1	1	0	1	-72,868217	272,997971	242,066641	0
15.01.2021	01:44:37	0	0	4,745582	2,475	75,9888	-0,93	77,88	0	1008,22	5,5	7,4	7,3	1	1	1	1	1	1	1	1	1	0	1	-73,361522	272,992335	241,547331	0
15.01.2021	01:44:38	0	0	4,180632	2,5305	67,6656	-0,924	77,881	0	1008,46	5,5	7,4	7,3	1	1	1	1	1	1	1	1	1	0	1	-73,150106	272,851976	241,111605	0
15.01.2021	01:44:39	0	0	4,632592	2,54625	65,0808	-0,928	77,877	0	1008,42	5,5	7,4	7,3	1	1	1	1	1	1	1	1	1	0	1	-71,458774	272,851976	242,802937	0
15.01.2021	01:44:40	0	0	2,598771	2,5665	73,4256	-0,925	77,868	0	1008,38	5,5	7,4	7,3	1	1	1	1	1	1	1	1	1	0	1	-71,035941	272,891173	243,406391	0
15.01.2021	01:44:41	0	0	3,276712	2,59725	70,2144	-0,927	77,875	0	1008,44	5,5	7,5	7,3	1	1	1	1	1	1	1	1	1	0	1	-69,415081	272,839394	244,788667	0
15.01.2021	01:44:42	0	0	4,745582	2,64525	64,602	-0,928	77,88	0	1008,42	5,4	7,4	7,3	1	1	1	1	1	1	1	1	1	0	1	-70,68358	272,867365	243,649036	0
15.01.2021	01:44:43	0	0	4,632592	2,5815	65,0484	-0,925	77,879	0	1008,32	5,5	7,5	7,3	1	1	1	1	1	1	1	1	1	0	1	-69,767442	273,01912	245,265019	0
15.01.2021	01:44:44	0	0	2,824751	2,5305	72,2916	-0,925	77,902	0	1008,36	5,5	7,4	7,3	1	1	1	1	1	1	1	1	1	0	1	-73,009161	272,958555	241,743853	0
15.01.2021	01:44:45	0	0	3,954652	2,54925	69,1452	-0,929	77,876	0	1008,46	5,5	7,4	7,3	1	1	1	1	1	1	1	1	1	0	1	-74,066244	272,843587	240,15682	0
15.01.2021	01:44:46	0	0	5,310533	2,53875	62,0352	-0,929	77,894	0	1008,44	5,5	7,4	7,3	1	1	1	1	1	1	1	1	1	0	1	-69,978858	272,968401	244,819575	0
15.01.2021	01:44:47	0	0	4,632592	2,59875	74,178	-0,93	77,882	0	1008,4	5,5	7,4	7,3	1	1	1	1	1	1	1	1	1	0	1	-69,837914	272,832407	244,333653	0
15.01.2021	01:44:48	0	0	4,067642	2,6265	73,044	-0,928	77,879	0	1008,44	5,5	7,5	7,3	1	1	1	1	1	1	1	1	1	0	1	-68,357999	272,948713	246,349625	0
15.01.2021	01:44:49	0	0	4,745582	2,56575	69,4548	-0,927	77,864	0	1008,34	5,4	7,4	7,3	1	1	1	1	1	1	1	1	1	0	1	-74,207188	272,819838	239,906488	0
15.01.2021	01:44:50	0	0	4,745582	2,4825	71,5896	-0,927	77,869	0	1008,5	5,4	7,4	7,3	1	1	1	1	1	1	1	1	1	0	1	-67,723749	272,940282	246,944991	0
15.01.2021	01:44:51	0	0	4,293622	2,484	74,5344	-0,924	77,867	0	1008,46	5,5	7,4	7,3	1	1	1	1	1	1	1	1	1	0	1	-72,233968	272,836599	241,956906	0
15.01.2021	01:44:52	0	0	4,067642	2,463	69,4764	-0,924	77,852	0	1008,4	5,5	7,4	7,3	1	1	1	1	1	1	1	1	1	0	1	-71,811135	272,934663	242,831695	0
15.01.2021	01:44:53	0	0	4,293596	2,43825	65,4552	-0,933	77,849	0	1008,3	5,5	7,5	7,4	1	1	1	1	1	1	1	1	1	0	1	-74,207188	272,982476	240,656177	0
15.01.2021	01:44:54	0	0	2,937741	2,4675	74,538	-0,928	77,888	0	1008,48	5,4	7,4	7,3	1	1	1	1	1	1	1	1	1	0	1	-69,837914	272,856171	244,443127	0
15.01.2021	01:44:55	0	0	4,745582	2,4465	78,6636	-0,935	77,83	0	1008,5	5,5	7,4	7,3	1	1	1	1	1	1	1	1	1	0	1	-74,982382	272,817046	239,118436	0
15.01.2021	01:44:56	0	0	2,485781	2,655	77,958	-0,931	77,828	0	1008,48	5,4	7,5	7,3	1	1	1	1	1	1	1	1	1	0	1	-71,67019	272,954336	243,063368	0
15.01.2021	01:44:57	0	0	4,632592	2,91	78,2712	-0,929	77,813	0	1008,26	5,5	7,4	7,3	1	1	1	1	1	1	1	1	1	0	1	-69,485553	272,819838	244,628123	0
15.01.2021	01:44:58	0	0	3,276712	3,03675	76,3632	-0,932	77,802	0	1008,44	5,4	7,5	7,3	1	1	1	1	1	1	1	1	1	0	1	-74,207188	272,93045	240,416214	0
15.01.2021	01:44:59	0	0	2,824751	3,069	72,6768	-0,932	77,784	0	1008,32	5,4	7,5	7,3	1	1	1	1	1	1	1	1	1	0	1	-69,06272	272,837996	245,134591	0
15.01.2021	01:45:00	0	0	3,163722	2,91	77,22	-0,931	77,762	0	1008,38	5,5	7,4	7,3	1	1	1	1	1	1	1	1	1	0	1	-74,136716	272,944497	240,551464	0
15.01.2021	01:45:01	0	0	4,858572	2,9085	73,782	-0,931	77,766	0	1008,44	5,4	7,4	7,3	1	1	1	1	1	1	1	1	1	0	1	-74,207188	272,807277	239,848644	0
15.01.2021	01:45:02	0	0	4,858572	2,9085	73,782	-0,931	77,766	0	1008,44	5,4	7,4	7,3	1	1	1	1	1	1	1	1	1	0	1	-74,207188	272,807277	239,848644	0
15.01.2021	01:45:03	0	0	5,197543	2,844	71,5932	-0,927	77,753	0	1008,42	5,5	7,5	7,3	1	1	1	1	1	1	1	1	1	0	1	-69,978858	272,88837	244,450557	0
15.01.2021	01:45:04	0	0	4,519602	2,72325	66,528	-0,936	77,742	0	1008,36	5,4	7,5	7,3	1	1	1	1	1	1	1	1	1	0	1	-69,978858	272,97966	244,871516	0
15.01.2021	01:45:05	0	0	4,519602	2,55225	65,4516	-0,936	77,72	0	1008,34	5,4	7,5	7,3	1	1	1	1	1	1	1	1	1	0	1	-72,445384	272,828217	241,706881	0
15.01.2021	01:45:06	0	0	3,389702	2,496	69,4512	-0,935	77,732	0	1008,46	5,4	7,5	7,3	1	1	1	1	1	1	1	1	1	0	1	-72,30444	272,805882	241,744968	0
15.01.2021	01:45:07	0	0	4,067642	2,47125	68,4036	-0,946	77,71	0	1008,36	5,4	7,4	7,3	1	1	1	1	1	1	1	1	1	0	1	-73,431994	272,860368	240,868383	0
15.01.2021	01:45:08	0	0	2,937741	2,4375	76,3596	-0,94	77,695	0	1008,4	5,4	7,5	7,3	1	1	1	1	1	1	1	1	1	0	1	-71,599718	272,972622	243,218189	0
15.01.2021	01:45:09	0	0	3,050732	2,448	72,6912	-0,938	77,677	0	1008,26	5,4	7,4	7,3	1	1	1	1	1	1	1	1	1	0	1	-69,556025	272,933259	245,080328	0
15.01.2021	01:45:10	0	0	4,180632	2,45775	81,9792	-0,939	77,67	0	1008,4	5,4	7,4	7,3	1	1	1	1	1	1	1	1	1	0	1	-69,344609	272,975437	245,486283	0
15.01.2021	01:45:11	0	0	3,389702	2,44725	84,0384	-0,938	77,664	0	1008,46	5,4	7,4	7,3	1	1	1	1	1	1	1	1	1	0	1	-70,472163	272,83101	243,692969	0
15.01.2021	01:45:12	0	0	2,146811	2,51775	88,1316	-0,937	77,642	0	1008,5	5,4	7,5	7,3	1	1	1	1	1	1	1	1	1	0	1	-68,357999	272,906593	246,155415	0
15.01.2021	01:45:13	0	0	4,971562	2,70375	88,5708	-0,941	77,627	0	1008,5	5,4	7,5	7,3	1	1	1	1	1	1	1	1	1	0	1	-72,093023	272,957148	242,653505	0
15.01.2021	01:45:14	0	0	4,858572	2,93925	88,5708	-0,947	77,596	0	1008,44	5,4	7,4	7,3	1	1	1	1	1	1	1	1	1	0	1	-70,542636	272,881366	243,854499	0
15.01.2021	01:45:15	0	0	4,067642	3,28575	63,18	-0,946	77,575	0	1008,36	5,4	7,5	7,3	1	1	1	1	1	1	1	1	1	0	1	-66,243834	272,787754	247,722109	0
15.01.2021	01:45:16	0	0	4,858572	3,5595	75,5964	-0,941	77,559	0	1008,34	5,4	7,5	7,3	1	1	1	1	1	1	1	1	1	0	1	-69,06272	272,902386	245,431301	0
15.01.2021	01:45:17	0	0	4,519602	3,84225	73,7748	-0,941	77,541	0	1008,36	5,4	7,5	7,3	1	1	1	1	1	1	1	1	1	0	1	-66,737139	272,789148	247,235221	0
15.01.2021	01:45:18	0	0	4,293622	4,01625	82,5984	-0,921	77,552	0	1008,5	5,4	7,5	7,3	1	1	1	1	1	1	1	1	1	0	1	-70,68358	272,899582	243,797515	0
15.01.2021	01:45:19	0	0	4,858572	4,2015	84,4056	-0,942	77,524	0	1008,3	5,4	7,5	7,3	1	1	1	1	1	1	1	1	1	0	1	-71,952079	272,958555	242,800935	0
15.01.2021	01:45:20	0	0	2,824751	4,2735	77,9688	-0,944	77,506	0	1008,36	5,4	7,4	7,3	1	1	1	1	1	1	1	1	1	0	1	-70,049331	272,891173	244,393002	0
15.01.2021	01:45:21	0	0	4,067642	4,55025	82,3356	-0,944	77,509	0	1008,48	5,4	7,5	7,3	1	1	1	1	1	1	1	1	1	0	1	-69,415081	272,957148	245,331447	0
15.01.2021	01:45:22	0	0	3,163722	4,44825	87,7212	-0,954	77,493	0	1008,48	5,4	7,5	7,3	1	1	1	1	1	1	1	1	1	0	1	-71,740662	272,910801	242,792149	0
15.01.2021	01:45:23	0	0	4,180632	4,57575	90,414	-0,952	77,487	0	1008,48	5,4	7,5	7,3	1	1	1	1	1	1	1	1	1	0	1	-67,864693	272,958555	246,888321	0
15.01.2021	01:45:24	0	0	3,050732	4,40775	77,2092	-0,952	77,488	0	1008,4	5,4	7,5	7,3	1	1	1	1	1	1	1	1	1	0	1	-69,837914	272,810068	244,230768	0
15.01.2021	01:45:25	0	0	3,163722	4,0635	73,44	-0,952	77,468	0	1008,42	5,4	7,5	7,3	1	1	1	1	1	1	1	1	1	0	1	-75,687104	272,780787	238,246763	0
15.01.2021	01:45:26	0	0	3,954652	3,60075	75,2256	-0,953	77,46	0	1008,34	5,4	7,5	7,3	1	1	1	1	1	1	1	1	1	0	1	-70,401691	272,922027	244,182873	0
15.01.2021	01:45:27	0	0	3,163722	3,5565	78,2892	-0,957	77,423	0	1008,28	5,4	7,5	7,3	1	1	1	1	1	1	1	1	1	0	1	-68,005638	272,95293	246,721436	0
15.01.2021	01:45:28	0	0	5,084553	3,73725	99,1368	-0,955	77,401	0	1008,32	5,4	7,5	7,3	1	1	1	1	1	1	1	1	1	0	1	-67,935166	272,784967	246,017945	0
15.01.2021	01:45:29	0	0	4,067642	3,76575	80,91	-0,955	77,442	0	1008,38	5,4	7,5	7,3	1	1	1	1	1	1	1	1	1	0	1	-71,881607	272,936068	242,7677	0
15.01.2021	01:45:30	0	0	4,745611	3,4485	78,2892	-0,957	77,514	0	1008,5	5,4	7,5	7,2	1	1	1	1	1	1	1	1	1	0	1	-72,093023	272,955742	242,64702	0
15.01.2021	01:45:31	0	0	3,615704	3,4095	73,0548	-0,96	77,573	0	1008,3	5,4	7,5	7,2	1	1	1	1	1	1	1	1	1	0	1	-72,022551	272,872964	242,335865	0
15.01.2021	01:45:32	0	0	4,745582	3,47025	67,6512	-0,964	77,662	0	1008,48	5,4	7,5	7,3	1	1	1	1	1	1	1	1	1	0	1	-71,388302	272,78218	242,551979	0
15.01.2021	01:45:33	0	0	5,084522	3,53325	62,064	-0,954	77,742	0	1008,42	5,4	7,5	7,4	1	1	1	1	1	1	1	1	1	0	1	-68,357999	272,881366	246,039136	0
15.01.2021	01:45:34	0	0	3,954652	3,606	61,7004	-0,959	77,83	0	1008,48	5,4	7,5	7,3	1	1	1	1	1	1	1	1	1	0	1	-71,529246	272,961367	243,236742	0
15.01.2021	01:45:35	0	0	4,632592	3,438	62,0424	-0,958	77,899	0	1008,42	5,4	7,5	7,3	1	1	1	1	1	1	1	1	1	0	1	-71,599718	272,934663	243,043112	0
15.01.2021	01:45:36	0	0	4,293648	3,26175	57,0384	-0,959	77,99	0	1008,46	5,4	7,5	7,2	1	1	1	1	1	1	1	1	1	0	1	-75,334743	272,913607	239,211003	0
15.01.2021	01:45:37	0	0	4,971592	3,1725	55,5444	-0,958	78,082	0	1008,56	5,4	7,5	7,2	1	1	1	1	1	1	1	1	1	0	1	-74,700493	272,789148	239,271867	0
15.01.2021	01:45:38	0	0	4,293622	3,213	58,1184	-0,955	78,157	0	1008,26	5,4	7,4	7,3	1	1	1	1	1	1	1	1	1	0	1	-73,572939	272,805882	240,476469	0
15.01.2021	01:45:39	0	0	3,163722	3,28725	52,1244	-0,96	78,216	0	1008,46	5,4	7,5	7,3	1	1	1	1	1	1	1	1	1	0	1	-70,190275	272,872964	244,168142	0
15.01.2021	01:45:40	0	0	3,163722	3,2025	51,4512	-0,958	78,272	0	1008,42	5,4	7,5	7,3	1	1	1	1	1	1	1	1	1	0	1	-71,035941	272,800302	242,987775	0
15.01.2021	01:45:41	0	0	2,259815	3,24225	69,84	-0,952	78,332	0	1008,6	5,4	7,5	7,2	1	1	1	1	1	1	1	1	1	0	1	-73,220578	272,913607	241,325168	0
15.01.2021	01:45:42	0	0	3,841662	3,1305	56,6604	-0,951	78,372	0	1008,56	5,4	7,5	7,3	1	1	1	1	1	1	1	1	1	0	1	-73,572939	272,96418	241,206026	0
15.01.2021	01:45:43	0	0	5,423523	2,94675	66,2112	-0,951	78,399	0	1008,5	5,4	7,5	7,3	1	1	1	1	1	1	1	1	1	0	1	-69,556025	272,865965	244,770141	0
15.01.2021	01:45:44	0	0	3,615682	2,83125	58,5	-0,951	78,42	0	1008,46	5,4	7,5	7,3	1	1	1	1	1	1	1	1	1	0	1	-72,938689	272,812859	241,142846	0
15.01.2021	01:45:45	0	0	4,293648	2,7675	76,8492	-0,951	78,432	0	1008,42	5,4	7,5	7,2	1	1	1	1	1	1	1	1	1	0	1	-77,237491	272,812859	236,844044	0
15.01.2021	01:45:46	0	0	3,728672	2,60325	83,3328	-0,95	78,438	0	1008,36	5,4	7,5	7,3	1	1	1	1	1	1	1	1	1	0	1	-74,348132	272,950119	240,365974	0
15.01.2021	01:45:47	0	0	5,084583	2,54475	65,4912	-0,948	78,434	0	1008,34	5,4	7,5	7,2	1	1	1	1	1	1	1	1	1	0	1	-71,952079	272,97403	242,87232	0
15.01.2021	01:45:48	0	0	3,954652	2,54475	57,4128	-0,949	78,449	0	1008,46	5,4	7,5	7,3	1	1	1	1	1	1	1	1	1	0	1	-70,824524	272,878565	243,559702	0
15.01.2021	01:45:49	0	0	3,615704	2,613	64,6236	-0,948	78,456	0	1008,48	5,4	7,5	7,2	1	1	1	1	1	1	1	1	1	0	1	-68,217054	272,972622	246,600852	0
15.01.2021	01:45:50	0	0	2,824768	2,76375	52,1496	-0,948	78,441	0	1008,48	5,4	7,5	7,2	1	1	1	1	1	1	1	1	1	0	1	-72,586328	272,837996	241,610982	0
15.01.2021	01:45:51	0	0	5,197543	2,937	53,352	-0,95	78,449	0	1008,5	5,4	7,5	7,3	1	1	1	1	1	1	1	1	1	0	1	-73,9253	272,957148	240,821229	0
15.01.2021	01:45:52	0	0	4,406612	3,0315	47,376	-0,949	78,442	0	1008,44	5,4	7,5	7,3	1	1	1	1	1	1	1	1	1	0	1	-70,401691	272,843587	243,821372	0
15.01.2021	01:45:53	0	0	4,519629	3,06675	85,2084	-0,948	78,426	0	1008,46	5,4	7,5	7,2	1	1	1	1	1	1	1	1	1	0	1	-72,515856	272,941687	242,159363	0
15.01.2021	01:45:54	0	0	2,824751	2,87325	76,842	-0,946	78,417	0	1008,46	5,4	7,5	7,3	1	1	1	1	1	1	1	1	1	0	1	-72,445384	272,988109	242,443971	0
15.01.2021	01:45:55	0	0	4,858543	2,6865	89,3484	-0,942	78,403	0	1008,34	5,4	7,5	7,4	1	1	1	1	1	1	1	1	1	0	1	-72,656801	272,936068	241,992506	0
15.01.2021	01:45:56	0	0	4,745582	2,5755	82,0836	-0,947	78,412	0	1008,42	5,4	7,5	7,3	1	1	1	1	1	1	1	1	1	0	1	-70,613108	272,82263	243,513429	0
15.01.2021	01:45:57	0	0	3,502692	2,73	94,374	-0,942	78,391	0	1008,34	5,4	7,5	7,3	1	1	1	1	1	1	1	1	1	0	1	-72,797745	272,903789	241,702739	0
15.01.2021	01:45:58	0	0	4,180657	2,97225	63,882	-0,936	78,405	0	1008,4	5,4	7,5	7,2	1	1	1	1	1	1	1	1	1	0	1	-71,740662	272,803092	242,295898	0
15.01.2021	01:45:59	0	0	4,067642	3,0435	84,7872	-0,942	78,401	0	1008,38	5,4	7,5	7,3	1	1	1	1	1	1	1	1	1	0	1	-70,68358	272,909398	243,842765	0
15.01.2021	01:46:00	0	0	3,615704	3,4875	68,7708	-0,944	78,394	0	1008,46	5,4	7,4	7,2	1	1	1	1	1	1	1	1	1	0	1	-71,599718	272,818442	242,507529	0
15.01.2021	01:46:01	0	0	3,615704	3,4875	68,7708	-0,944	78,394	0	1008,46	5,4	7,4	7,2	1	1	1	1	1	1	1	1	1	0	1	-71,599718	272,818442	242,507529	0
15.01.2021	01:46:02	0	0	2,598771	3,7395	65,4696	-0,943	78,367	0	1008,38	5,4	7,5	7,3	1	1	1	1	1	1	1	1	1	0	1	-75,052854	272,922027	239,53171	0
15.01.2021	01:46:03	0	0	4,632592	3,87525	86,9796	-0,948	78,362	0	1008,32	5,4	7,5	7,3	1	1	1	1	1	1	1	1	1	0	1	-68,780832	272,805882	245,268576	0
15.01.2021	01:46:04	0	0	4,067666	3,92625	85,6044	-0,942	78,363	0	1008,46	5,4	7,5	7,2	1	1	1	1	1	1	1	1	1	0	1	-71,106413	272,88837	243,323003	0
15.01.2021	01:46:05	0	0	2,372791	3,93975	85,5252	-0,935	78,343	0	1008,28	5,4	7,5	7,3	1	1	1	1	1	1	1	1	1	0	1	-68,780832	272,804487	245,262152	0
15.01.2021	01:46:06	0	0	2,824751	3,6555	79,0416	-0,943	78,34	0	1008,46	5,4	7,5	7,3	1	1	1	1	1	1	1	1	1	0	1	-72,233968	272,917816	242,331185	0
15.01.2021	01:46:07	0	0	3,841685	3,486	74,1708	-0,947	78,328	0	1008,34	5,4	7,5	7,2	1	1	1	1	1	1	1	1	1	0	1	-72,586328	272,955742	242,153714	0
15.01.2021	01:46:08	0	0	3,502713	3,348	65,4588	-0,94	78,327	0	1008,5	5,4	7,5	7,2	1	1	1	1	1	1	1	1	1	0	1	-69,06272	272,814254	245,025242	0
15.01.2021	01:46:09	0	0	2,598771	3,3885	69,4692	-0,941	78,322	0	1008,46	5,4	7,4	7,3	1	1	1	1	1	1	1	1	1	0	1	-71,317829	272,933259	243,318524	0
15.01.2021	01:46:10	0	0	3,615682	3,324	67,248	-0,934	78,312	0	1008,32	5,4	7,5	7,3	1	1	1	1	1	1	1	1	1	0	1	-75,334743	272,993743	239,580611	0
15.01.2021	01:46:11	0	0	4,63262	3,23025	82,4724	-0,939	78,307	0	1008,46	5,4	7,4	7,2	1	1	1	1	1	1	1	1	1	0	1	-68,710359	272,881366	245,686775	0
15.01.2021	01:46:12	0	0	4,293622	3,11175	59,8716	-0,937	78,282	0	1008,4	5,4	7,5	7,3	1	1	1	1	1	1	1	1	1	0	1	-68,921776	272,818442	245,185471	0
15.01.2021	01:46:13	0	0	2,824768	2,9685	61,3116	-0,94	78,276	0	1008,5	5,4	7,4	7,2	1	1	1	1	1	1	1	1	1	0	1	-70,754052	272,808672	243,308205	0
15.01.2021	01:46:14	0	0	4,858572	2,81025	77,1948	-0,934	78,271	0	1008,44	5,4	7,5	7,3	1	1	1	1	1	1	1	1	1	0	1	-71,740662	272,989517	243,155191	0
15.01.2021	01:46:15	0	0	5,084522	2,71575	68,0076	-0,936	78,266	0	1008,5	5,4	7,5	7,4	1	1	1	1	1	1	1	1	1	0	1	-70,824524	272,955742	243,915519	0
15.01.2021	01:46:16	0	0	3,502692	2,826	56,2824	-0,937	78,25	0	1008,48	5,4	7,5	7,3	1	1	1	1	1	1	1	1	1	0	1	-73,9253	272,872964	240,433117	0
15.01.2021	01:46:17	0	0	4,745554	2,982	56,3076	-0,94	78,252	0	1008,42	5,4	7,5	7,4	1	1	1	1	1	1	1	1	1	0	1	-72,586328	272,988109	242,303026	0
15.01.2021	01:46:18	0	0	2,937741	3,03	64,6272	-0,936	78,25	0	1008,46	5,4	7,5	7,3	1	1	1	1	1	1	1	1	1	0	1	-75,052854	272,934663	239,589976	0
15.01.2021	01:46:19	0	0	4,745582	3,1965	60,9408	-0,936	78,247	0	1008,46	5,4	7,5	7,3	1	1	1	1	1	1	1	1	1	0	1	-72,586328	272,797513	241,424545	0
15.01.2021	01:46:20	0	0	2,259801	3,249	55,9404	-0,934	78,231	0	1008,44	5,4	7,5	7,3	1	1	1	1	1	1	1	1	1	0	1	-76,603242	272,917816	237,961911	0
15.01.2021	01:46:21	0	0	2,824768	3,264	91,908	-0,937	78,23	0	1008,44	5,4	7,5	7,2	1	1	1	1	1	1	1	1	1	0	1	-72,656801	272,969808	242,148123	0
15.01.2021	01:46:22	0	0	4,745582	3,35325	81,9576	-0,931	78,219	0	1008,52	5,4	7,5	7,3	1	1	1	1	1	1	1	1	1	0	1	-75,405215	272,863167	238,908056	0
15.01.2021	01:46:23	0	0	4,971562	3,2835	65,8548	-0,938	78,217	0	1008,34	5,4	7,5	7,3	1	1	1	1	1	1	1	1	1	0	1	-71,247357	272,833804	242,930645	0
15.01.2021	01:46:24	0	0	4,519602	3,1155	66,5172	-0,934	78,209	0	1008,46	5,4	7,5	7,3	1	1	1	1	1	1	1	1	1	0	1	-71,740662	272,812859	242,340873	0
15.01.2021	01:46:25	0	0	3,841685	2,82075	73,4256	-0,934	78,199	0	1008,4	5,4	7,5	7,2	1	1	1	1	1	1	1	1	1	0	1	-69,133192	272,936068	245,516114	0
15.01.2021	01:46:26	0	0	2,598756	2,685	70,8552	-0,936	78,185	0	1008,44	5,4	7,4	7,4	1	1	1	1	1	1	1	1	1	0	1	-67,582805	272,803092	246,453756	0
15.01.2021	01:46:27	0	0	4,745582	2,65575	60,246	-0,94	78,177	0	1008,38	5,4	7,5	7,3	1	1	1	1	1	1	1	1	1	0	1	-70,542636	272,924834	244,054872	0
15.01.2021	01:46:28	0	0	3,050732	2,63325	70,2288	-0,932	78,181	0	1008,38	5,4	7,5	7,3	1	1	1	1	1	1	1	1	1	0	1	-67,230444	272,93045	247,392959	0
15.01.2021	01:46:29	0	0	2,937759	2,72325	78,0552	-0,934	78,187	0	1008,42	5,4	7,4	7,2	1	1	1	1	1	1	1	1	1	0	1	-77,730796	272,976845	237,106589	0
15.01.2021	01:46:30	0	0	3,163741	2,721	59,1084	-0,929	78,21	0	1008,38	5,4	7,5	7,2	1	1	1	1	1	1	1	1	1	0	1	-71,67019	272,885568	242,746311	0
15.01.2021	01:46:31	0	0	4,293596	2,71875	68,3964	-0,936	78,223	0	1008,4	5,4	7,5	7,4	1	1	1	1	1	1	1	1	1	0	1	-71,599718	272,807277	242,456114	0
15.01.2021	01:46:32	0	0	3,954676	2,7795	68,7852	-0,931	78,241	0	1008,28	5,4	7,4	7,2	1	1	1	1	1	1	1	1	1	0	1	-72,233968	272,916413	242,324715	0
15.01.2021	01:46:33	0	0	3,954652	2,85675	64,2348	-0,933	78,234	0	1008,44	5,4	7,5	7,3	1	1	1	1	1	1	1	1	1	0	1	-71,317829	272,978252	243,52605	0
15.01.2021	01:46:34	0	0	4,519575	2,88075	68,0184	-0,933	78,239	0	1008,3	5,4	7,4	7,4	1	1	1	1	1	1	1	1	1	0	1	-73,713883	272,975437	241,117009	0
15.01.2021	01:46:35	0	0	3,163722	3,0345	78,2748	-0,933	78,266	0	1008,5	5,4	7,5	7,3	1	1	1	1	1	1	1	1	1	0	1	-68,780832	272,874364	245,584036	0
15.01.2021	01:46:36	0	0	2,937741	3,16575	70,2288	-0,925	78,257	0	1008,42	5,4	7,5	7,3	1	1	1	1	1	1	1	1	1	0	1	-75,193798	272,966994	239,598144	0
15.01.2021	01:46:37	0	0	2,711761	3,1785	75,2004	-0,932	78,257	0	1008,32	5,4	7,4	7,3	1	1	1	1	1	1	1	1	1	0	1	-68,921776	272,851976	245,339934	0
15.01.2021	01:46:38	0	0	2,824751	3,24075	76,3668	-0,927	78,266	0	1008,44	5,4	7,4	7,3	1	1	1	1	1	1	1	1	1	0	1	-72,727273	272,947308	241,973869	0
15.01.2021	01:46:39	0	0	4,858543	3,2775	64,2528	-0,928	78,266	0	1008,38	5,4	7,5	7,4	1	1	1	1	1	1	1	1	1	0	1	-78,646934	272,972622	236,170972	0
15.01.2021	01:46:40	0	0	3,728672	3,1845	68,7888	-0,921	78,28	0	1008,44	5,4	7,5	7,3	1	1	1	1	1	1	1	1	1	0	1	-68,639887	272,872964	245,718529	0
15.01.2021	01:46:41	0	0	3,05075	3,042	70,5924	-0,923	78,285	0	1008,48	5,4	7,5	7,2	1	1	1	1	1	1	1	1	1	0	1	-73,9253	272,965587	240,860154	0
15.01.2021	01:46:42	0	0	2,824751	2,898	67,2948	-0,93	78,278	0	1008,18	5,4	7,5	7,3	1	1	1	1	1	1	1	1	1	0	1	-71,247357	272,986701	243,635499	0
15.01.2021	01:46:43	0	0	3,163722	2,9145	72,2988	-0,926	78,278	0	1008,42	5,4	7,5	7,3	1	1	1	1	1	1	1	1	1	0	1	-72,727273	272,959961	242,032228	0
15.01.2021	01:46:44	0	0	4,180632	2,898	60,6384	-0,923	78,261	0	1008,56	5,4	7,5	7,3	1	1	1	1	1	1	1	1	1	0	1	-72,022551	272,981068	242,834319	0
15.01.2021	01:46:45	0	0	2,598771	3,1215	71,9928	-0,917	78,279	0	1008,54	5,4	7,4	7,3	1	1	1	1	1	1	1	1	1	0	1	-75,264271	272,847781	238,978114	0
15.01.2021	01:46:46	0	0	3,050732	3,315	87,0048	-0,925	78,285	0	1008,42	5,4	7,5	7,3	1	1	1	1	1	1	1	1	1	0	1	-70,472163	272,81565	243,622226	0
15.01.2021	01:46:47	0	0	4,067642	3,35475	87,714	-0,923	78,291	0	1008,42	5,4	7,5	7,3	1	1	1	1	1	1	1	1	1	0	1	-69,837914	272,943092	244,843785	0
15.01.2021	01:46:48	0	0	2,937741	3,2175	68,8464	-0,924	78,312	0	1008,42	5,4	7,5	7,3	1	1	1	1	1	1	1	1	1	0	1	-73,784355	272,941687	240,890865	0
15.01.2021	01:46:49	0	0	3,954628	3,138	82,5912	-0,923	78,316	0	1008,42	5,4	7,5	7,4	1	1	1	1	1	1	1	1	1	0	1	-71,811135	272,836599	242,379739	0
15.01.2021	01:46:50	0	0	3,728672	3,02475	84,0564	-0,92	78,32	0	1008,38	5,4	7,5	7,3	1	1	1	1	1	1	1	1	1	0	1	-69,767442	272,913607	244,778304	0
15.01.2021	01:46:51	0	0	4,745582	2,7495	82,5912	-0,918	78,316	0	1008,52	5,4	7,5	7,3	1	1	1	1	1	1	1	1	1	0	1	-71,599718	272,807277	242,456114	0
15.01.2021	01:46:52	0	0	4,406612	2,652	77,22	-0,902	78,324	0	1008,48	5,4	7,5	7,3	1	1	1	1	1	1	1	1	1	0	1	-73,502467	272,907996	241,017412	0
15.01.2021	01:46:53	0	0	2,711761	2,52675	77,9652	-0,92	78,316	0	1008,34	5,4	7,5	7,3	1	1	1	1	1	1	1	1	1	0	1	-72,656801	272,962774	242,115675	0
15.01.2021	01:46:54	0	0	4,180657	2,34975	86,2956	-0,922	78,296	0	1008,42	5,4	7,5	7,2	1	1	1	1	1	1	1	1	1	0	1	-74,348132	272,927642	240,262322	0
15.01.2021	01:46:55	0	0	2,485796	2,37525	85,1796	-0,914	78,279	0	1008,54	5,4	7,5	7,2	1	1	1	1	1	1	1	1	1	0	1	-70,754052	272,957148	243,992476	0
15.01.2021	01:46:56	0	0	4,858602	2,2845	102,1788	-0,917	78,241	0	1008,46	5,4	7,5	7,2	1	1	1	1	1	1	1	1	1	0	1	-71,740662	272,843587	242,482401	0
15.01.2021	01:46:57	0	0	2,372791	2,2365	74,5308	-0,921	78,211	0	1008,42	5,4	7,4	7,3	1	1	1	1	1	1	1	1	1	0	1	-70,119803	272,940282	244,548938	0
15.01.2021	01:46:58	0	0	2,824751	2,18775	83,3508	-0,913	78,187	0	1008,46	5,4	7,5	7,3	1	1	1	1	1	1	1	1	1	0	1	-70,401691	272,789148	243,570669	0
15.01.2021	01:46:59	0	0	3,728672	2,12325	83,3976	-0,92	78,166	0	1008,42	5,4	7,4	7,3	1	1	1	1	1	1	1	1	1	0	1	-69,556025	272,871564	244,79594	0
15.01.2021	01:47:00	0	0	4,971562	2,1525	76,3668	-0,917	78,11	0	1008,36	5,4	7,5	7,3	1	1	1	1	1	1	1	1	1	0	1	-71,599718	272,818442	242,507529	0
15.01.2021	01:47:01	0	0	4,971562	2,1525	76,3668	-0,917	78,11	0	1008,36	5,4	7,5	7,3	1	1	1	1	1	1	1	1	1	0	1	-71,599718	272,818442	242,507529	0
15.01.2021	01:47:02	0	0	3,954652	2,235	68,4072	-0,914	78,08	0	1008,44	5,4	7,4	7,3	1	1	1	1	1	1	1	1	1	0	1	-72,022551	272,791936	241,962645	0
15.01.2021	01:47:03	0	0	5,197543	2,25225	73,4472	-0,91	78,061	0	1008,44	5,4	7,4	7,3	1	1	1	1	1	1	1	1	1	0	1	-71,176885	272,954336	243,556673	0
15.01.2021	01:47:04	0	0	4,858572	2,2455	73,0512	-0,919	78,039	0	1008,3	5,4	7,5	7,3	1	1	1	1	1	1	1	1	1	0	1	-73,431994	272,828217	240,720271	0
15.01.2021	01:47:05	0	0	4,745611	2,13825	56,268	-0,915	78,008	0	1008,34	5,4	7,4	7,2	1	1	1	1	1	1	1	1	1	0	1	-72,868217	272,786361	241,09131	0
15.01.2021	01:47:06	0	0	4,858572	2,13675	59,1264	-0,918	78,013	0	1008,3	5,4	7,5	7,3	1	1	1	1	1	1	1	1	1	0	1	-72,515856	272,854773	241,758741	0
15.01.2021	01:47:07	0	0	5,197543	2,12175	64,2564	-0,911	77,989	0	1008,32	5,4	7,4	7,3	1	1	1	1	1	1	1	1	1	0	1	-75,546159	272,768251	238,330006	0
15.01.2021	01:47:08	0	0	3,615682	1,94775	58,1112	-0,915	77,991	0	1008,4	5,4	7,5	7,3	1	1	1	1	1	1	1	1	1	0	1	-70,68358	272,842189	243,533045	0
15.01.2021	01:47:09	0	0	4,180632	1,85025	70,848	-0,913	77,973	0	1008,46	5,4	7,5	7,3	1	1	1	1	1	1	1	1	1	0	1	-70,401691	272,78218	243,53859	0
15.01.2021	01:47:10	0	0	4,067642	1,78425	70,218	-0,917	77,966	0	1008,7	5,4	7,5	7,3	1	1	1	1	1	1	1	1	1	0	1	-73,009161	272,950119	241,704945	0
15.01.2021	01:47:11	0	0	5,084553	1,75425	74,9376	-0,915	77,952	0	1008,4	5,4	7,4	7,3	1	1	1	1	1	1	1	1	1	0	1	-68,498943	272,865965	245,827224	0
15.01.2021	01:47:12	0	0	2,824751	1,956	66,9312	-0,915	77,924	0	1008,34	5,4	7,4	7,3	1	1	1	1	1	1	1	1	1	0	1	-71,952079	272,944497	242,736101	0
15.01.2021	01:47:13	0	0	5,084553	2,12325	67,662	-0,922	77,885	0	1008,24	5,4	7,5	7,3	1	1	1	1	1	1	1	1	1	0	1	-73,502467	272,943092	241,179233	0
15.01.2021	01:47:14	0	0	4,632592	2,178	72,702	-0,924	77,868	0	1008,22	5,4	7,4	7,3	1	1	1	1	1	1	1	1	1	0	1	-73,220578	272,895377	241,241133	0
15.01.2021	01:47:15	0	0	4,745582	2,1585	75,2472	-0,917	77,853	0	1008,48	5,4	7,4	7,3	1	1	1	1	1	1	1	1	1	0	1	-74,066244	272,786361	239,893283	0
15.01.2021	01:47:16	0	0	4,858572	2,0505	55,206	-0,916	77,841	0	1008,28	5,4	7,5	7,3	1	1	1	1	1	1	1	1	1	0	1	-71,176885	272,92343	243,414151	0
15.01.2021	01:47:17	0	0	2,937741	1,98375	64,2312	-0,924	77,815	0	1008,48	5,4	7,5	7,3	1	1	1	1	1	1	1	1	1	0	1	-65,891473	272,96418	248,887491	0
15.01.2021	01:47:18	0	0	4,971562	1,9845	54,8676	-0,917	77,807	0	1008,3	5,4	7,4	7,3	1	1	1	1	1	1	1	1	1	0	1	-70,894996	272,898181	243,579637	0
15.01.2021	01:47:19	0	0	4,180657	1,965	59,5044	-0,919	77,793	0	1008,48	5,4	7,4	7,2	1	1	1	1	1	1	1	1	1	0	1	-68,146582	272,874364	246,218286	0
15.01.2021	01:47:20	0	0	2,711761	1,97625	57,7476	-0,92	77,792	0	1008,4	5,4	7,4	7,3	1	1	1	1	1	1	1	1	1	0	1	-72,515856	272,780787	241,41801	0
15.01.2021	01:47:21	0	0	4,745582	2,09325	71,694	-0,917	77,784	0	1008,46	5,4	7,4	7,3	1	1	1	1	1	1	1	1	1	0	1	-74,559549	272,906593	239,953864	0
15.01.2021	01:47:22	0	0	2,937741	2,21775	74,556	-0,916	77,777	0	1008,42	5,4	7,5	7,3	1	1	1	1	1	1	1	1	1	0	1	-71,247357	272,82263	242,87918	0
15.01.2021	01:47:23	0	0	4,971562	2,21625	70,6104	-0,917	77,752	0	1008,28	5,4	7,5	7,3	1	1	1	1	1	1	1	1	1	0	1	-70,119803	272,937472	244,535981	0
15.01.2021	01:47:24	0	0	4,293622	2,175	69,1452	-0,915	77,741	0	1008,66	5,4	7,4	7,3	1	1	1	1	1	1	1	1	1	0	1	-72,515856	272,804487	241,527128	0
15.01.2021	01:47:25	0	0	2,937741	2,10525	68,1156	-0,92	77,734	0	1008,5	5,4	7,5	7,3	1	1	1	1	1	1	1	1	1	0	1	-72,938689	272,937472	241,717095	0
15.01.2021	01:47:26	0	0	5,197574	2,0805	65,8368	-0,922	77,717	0	1008,58	5,4	7,5	7,2	1	1	1	1	1	1	1	1	1	0	1	-72,656801	272,861767	241,650023	0
15.01.2021	01:47:27	0	0	3,502692	2,09925	58,4928	-0,922	77,706	0	1008,52	5,4	7,4	7,3	1	1	1	1	1	1	1	1	1	0	1	-69,485553	272,931854	245,144325	0
15.01.2021	01:47:28	0	0	5,310533	2,0775	73,7892	-0,925	77,693	0	1008,4	5,3	7,4	7,3	1	1	1	1	1	1	1	1	1	0	1	-76,462297	272,940282	238,206443	0
15.01.2021	01:47:29	0	0	3,163722	2,1225	71,2548	-0,924	77,664	0	1008,46	5,4	7,4	7,3	1	1	1	1	1	1	1	1	1	0	1	-73,079634	272,88837	241,349782	0
15.01.2021	01:47:30	0	0	4,858572	2,214	72,2844	-0,926	77,657	0	1008,28	5,4	7,4	7,3	1	1	1	1	1	1	1	1	1	0	1	-69,415081	272,943092	245,266618	0
15.01.2021	01:47:31	0	0	3,954652	2,397	79,7904	-0,928	77,641	0	1008,4	5,4	7,4	7,3	1	1	1	1	1	1	1	1	1	0	1	-70,894996	272,92343	243,696039	0
15.01.2021	01:47:32	0	0	4,519602	2,7045	65,1204	-0,925	77,618	0	1008,28	5,4	7,4	7,3	1	1	1	1	1	1	1	1	1	0	1	-75,89852	272,868765	238,440545	0
15.01.2021	01:47:33	0	0	3,615682	3,0885	75,9924	-0,924	77,579	0	1008,52	5,4	7,4	7,3	1	1	1	1	1	1	1	1	1	0	1	-69,203665	272,934663	245,439165	0
15.01.2021	01:47:34	0	0	3,954652	3,25425	65,8296	-0,935	77,564	0	1008,36	5,4	7,4	7,3	1	1	1	1	1	1	1	1	1	0	1	-68,710359	272,885568	245,706142	0
15.01.2021	01:47:35	0	0	3,389702	3,324	60,5664	-0,926	77,535	0	1008,5	5,4	7,4	7,3	1	1	1	1	1	1	1	1	1	0	1	-71,67019	272,773822	242,231614	0
15.01.2021	01:47:36	0	0	3,954652	3,159	63,8676	-0,93	77,528	0	1008,32	5,4	7,4	7,3	1	1	1	1	1	1	1	1	1	0	1	-70,049331	272,941687	244,625889	0
15.01.2021	01:47:37	0	0	4,858572	3,0675	70,6104	-0,928	77,524	0	1008,4	5,4	7,4	7,3	1	1	1	1	1	1	1	1	1	0	1	-72,868217	272,808672	241,19404	0
15.01.2021	01:47:38	0	0	5,084553	3,04125	74,9196	-0,926	77,495	0	1008,44	5,4	7,4	7,3	1	1	1	1	1	1	1	1	1	0	1	-71,247357	272,938877	243,414905	0
15.01.2021	01:47:39	0	0	3,050732	2,9925	85,9248	-0,93	77,491	0	1008,44	5,4	7,4	7,3	1	1	1	1	1	1	1	1	1	0	1	-71,176885	272,900984	243,310673	0
15.01.2021	01:47:40	0	0	3,502692	2,844	75,2328	-0,935	77,486	0	1008,5	5,4	7,4	7,3	1	1	1	1	1	1	1	1	1	0	1	-69,837914	272,95293	244,88916	0
15.01.2021	01:47:41	0	0	3,502692	2,7705	75,6288	-0,928	77,477	0	1008,42	5,4	7,4	7,3	1	1	1	1	1	1	1	1	1	0	1	-69,415081	272,872964	244,943335	0
15.01.2021	01:47:42	0	0	2,711761	3,144	73,4328	-0,932	77,472	0	1008,52	5,4	7,4	7,3	1	1	1	1	1	1	1	1	1	0	1	-74,348132	272,938877	240,314129	0
15.01.2021	01:47:43	0	0	5,197543	3,5175	76,0932	-0,934	77,468	0	1008,46	5,4	7,4	7,3	1	1	1	1	1	1	1	1	1	0	1	-70,472163	272,906593	244,04125	0
15.01.2021	01:47:44	0	0	4,519602	3,50025	73,7856	-0,936	77,478	0	1008,38	5,4	7,4	7,3	1	1	1	1	1	1	1	1	1	0	1	-72,515856	272,810068	241,552826	0
15.01.2021	01:47:45	0	0	2,598771	3,549	70,866	-0,937	77,52	0	1008,42	5,4	7,5	7,3	1	1	1	1	1	1	1	1	1	0	1	-73,643411	272,759899	240,194312	0
15.01.2021	01:47:46	0	0	3,841662	3,3705	78,2892	-0,938	77,568	0	1008,32	5,4	7,4	7,3	1	1	1	1	1	1	1	1	1	0	1	-72,938689	272,868765	241,400376	0
15.01.2021	01:47:47	0	0	4,858572	3,34125	71,2584	-0,937	77,601	0	1008,46	5,4	7,4	7,3	1	1	1	1	1	1	1	1	1	0	1	-72,30444	272,937472	242,351344	0
15.01.2021	01:47:48	0	0	3,276712	3,5445	74,1744	-0,939	77,659	0	1008,42	5,4	7,4	7,3	1	1	1	1	1	1	1	1	1	0	1	-70,965469	272,849179	243,283357	0
15.01.2021	01:47:49	0	0	3,841662	3,58875	69,876	-0,935	77,702	0	1008,46	5,4	7,4	7,3	1	1	1	1	1	1	1	1	1	0	1	-70,331219	272,764075	243,525722	0
15.01.2021	01:47:50	0	0	3,954652	3,72075	74,9988	-0,939	77,727	0	1008,38	5,4	7,4	7,3	1	1	1	1	1	1	1	1	1	0	1	-69,837914	272,839394	244,365834	0
15.01.2021	01:47:51	0	0	3,502692	3,726	69,84	-0,936	77,801	0	1008,4	5,4	7,4	7,3	1	1	1	1	1	1	1	1	1	0	1	-72,938689	272,775214	240,969527	0
15.01.2021	01:47:52	0	0	3,050732	3,5235	51,7428	-0,938	77,863	0	1008,5	5,4	7,5	7,3	1	1	1	1	1	1	1	1	1	0	1	-73,361522	272,882766	241,042068	0
15.01.2021	01:47:53	0	0	4,745582	3,01275	39,5676	-0,938	77,93	0	1008,44	5,4	7,4	7,3	1	1	1	1	1	1	1	1	1	0	1	-73,29105	272,772429	240,604344	0
15.01.2021	01:47:54	0	0	4,180632	2,65575	72	-0,938	77,949	0	1008,42	5,4	7,4	7,3	1	1	1	1	1	1	1	1	1	0	1	-69,556025	272,843587	244,667038	0
15.01.2021	01:47:55	0	0	2,937741	2,95125	73,0728	-0,936	78,004	0	1008,46	5,4	7,4	7,3	1	1	1	1	1	1	1	1	1	0	1	-73,854827	272,950119	240,859279	0
15.01.2021	01:47:56	0	0	4,971562	3,50775	73,0728	-0,937	78,021	0	1008,36	5,4	7,4	7,3	1	1	1	1	1	1	1	1	1	0	1	-72,656801	272,95293	242,070273	0
15.01.2021	01:47:57	0	0	2,711761	3,69375	82,368	-0,947	78,042	0	1008,42	5,3	7,4	7,3	1	1	1	1	1	1	1	1	1	0	1	-73,502467	272,909398	241,023878	0
15.01.2021	01:47:58	0	0	2,937741	3,87225	68,868	-0,937	78,056	0	1008,24	5,3	7,4	7,3	1	1	1	1	1	1	1	1	1	0	1	-72,797745	272,78218	241,142536	0
15.01.2021	01:47:59	0	0	4,745582	3,79725	77,5944	-0,939	78,069	0	1008,4	5,4	7,4	7,3	1	1	1	1	1	1	1	1	1	0	1	-70,754052	272,905191	243,752896	0
15.01.2021	01:48:00	0	0	3,502692	3,5595	67,6368	-0,935	78,113	0	1008,32	5,4	7,4	7,3	1	1	1	1	1	1	1	1	1	0	1	-72,022551	272,891173	242,419781	0
15.01.2021	01:48:01	0	0	2,598771	3,40725	68,4036	-0,938	78,151	0	1008,5	5,4	7,4	7,3	1	1	1	1	1	1	1	1	1	0	1	-71,811135	272,941687	242,864085	0
15.01.2021	01:48:02	0	0	2,598771	3,40725	68,4036	-0,938	78,151	0	1008,5	5,4	7,4	7,3	1	1	1	1	1	1	1	1	1	0	1	-71,811135	272,941687	242,864085	0
15.01.2021	01:48:03	0	0	4,858572	3,33825	66,5352	-0,937	78,175	0	1008,5	5,4	7,4	7,3	1	1	1	1	1	1	1	1	1	0	1	-68,710359	272,840791	245,499827	0
15.01.2021	01:48:04	0	0	3,841662	3,39075	63,1728	-0,942	78,202	0	1008,48	5,4	7,4	7,3	1	1	1	1	1	1	1	1	1	0	1	-73,009161	272,958555	241,743853	0
15.01.2021	01:48:05	0	0	3,728672	3,546	64,62	-0,934	78,228	0	1008,48	5,4	7,4	7,3	1	1	1	1	1	1	1	1	1	0	1	-74,630021	272,909398	239,896324	0
15.01.2021	01:48:06	0	0	2,711761	3,5805	69,1704	-0,935	78,242	0	1008,44	5,4	7,4	7,3	1	1	1	1	1	1	1	1	1	0	1	-73,079634	272,934663	241,563196	0
15.01.2021	01:48:07	0	0	4,067642	3,606	67,302	-0,943	78,244	0	1008,4	5,4	7,4	7,3	1	1	1	1	1	1	1	1	1	0	1	-73,713883	272,800302	240,309833	0
15.01.2021	01:48:08	0	0	2,711761	3,63825	52,5024	-0,935	78,247	0	1008,44	5,4	7,4	7,3	1	1	1	1	1	1	1	1	1	0	1	-72,797745	272,881366	241,59939	0
15.01.2021	01:48:09	0	0	4,519602	3,717	64,6344	-0,932	78,25	0	1008,38	5,4	7,4	7,3	1	1	1	1	1	1	1	1	1	0	1	-66,525722	272,780787	247,408144	0
15.01.2021	01:48:10	0	0	4,858572	3,564	60,93	-0,934	78,268	0	1008,54	5,3	7,4	7,3	1	1	1	1	1	1	1	1	1	0	1	-73,784355	272,847781	240,458029	0
15.01.2021	01:48:11	0	0	4,632592	3,52875	58,4964	-0,93	78,255	0	1008,26	5,4	7,4	7,3	1	1	1	1	1	1	1	1	1	0	1	-76,88513	272,945902	237,80953	0
15.01.2021	01:48:12	0	0	2,824751	3,53775	62,4348	-0,93	78,254	0	1008,32	5,4	7,4	7,3	1	1	1	1	1	1	1	1	1	0	1	-68,146582	272,955742	246,593461	0
15.01.2021	01:48:13	0	0	3,389702	3,4725	63,4752	-0,933	78,246	0	1008,4	5,4	7,4	7,3	1	1	1	1	1	1	1	1	1	0	1	-75,828048	272,846383	238,407896	0
15.01.2021	01:48:14	0	0	5,084553	3,417	60,2568	-0,938	78,262	0	1008,34	5,3	7,4	7,3	1	1	1	1	1	1	1	1	1	0	1	-72,727273	272,955742	242,01277	0
15.01.2021	01:48:15	0	0	3,954652	3,45225	60,9588	-0,934	78,267	0	1008,44	5,4	7,4	7,3	1	1	1	1	1	1	1	1	1	0	1	-74,630021	272,861767	239,676803	0
15.01.2021	01:48:16	0	0	4,180632	3,59025	62,8128	-0,934	78,298	0	1008,46	5,4	7,4	7,3	1	1	1	1	1	1	1	1	1	0	1	-71,881607	272,78218	242,058674	0
15.01.2021	01:48:17	0	0	2,598771	3,68475	51,7392	-0,937	78,295	0	1008,38	5,4	7,4	7,3	1	1	1	1	1	1	1	1	1	0	1	-72,938689	272,800302	241,085027	0
15.01.2021	01:48:18	0	0	2,711761	3,46425	60,2424	-0,931	78,316	0	1008,44	5,4	7,4	7,3	1	1	1	1	1	1	1	1	1	0	1	-76,180409	272,843587	238,042655	0
15.01.2021	01:48:19	0	0	3,502692	3,26325	63,6048	-0,931	78,313	0	1008,5	5,3	7,5	7,3	1	1	1	1	1	1	1	1	1	0	1	-69,485553	272,779394	244,4419	0
15.01.2021	01:48:20	0	0	4,858572	3,32325	70,2144	-0,926	78,326	0	1008,5	5,3	7,4	7,3	1	1	1	1	1	1	1	1	1	0	1	-73,854827	272,891173	240,587505	0
15.01.2021	01:48:21	0	0	2,598771	3,342	65,1024	-0,927	78,326	0	1008,46	5,4	7,4	7,3	1	1	1	1	1	1	1	1	1	0	1	-68,357999	272,955742	246,382044	0
15.01.2021	01:48:22	0	0	2,711761	3,21525	60,9408	-0,929	78,332	0	1008,42	5,4	7,4	7,3	1	1	1	1	1	1	1	1	1	0	1	-68,428471	272,971215	246,382944	0
15.01.2021	01:48:23	0	0	2,485781	3,30825	62,028	-0,927	78,341	0	1008,26	5,4	7,4	7,3	1	1	1	1	1	1	1	1	1	0	1	-70,68358	272,810068	243,385102	0
15.01.2021	01:48:24	0	0	4,293622	3,55425	64,2456	-0,926	78,33	0	1008,38	5,4	7,4	7,3	1	1	1	1	1	1	1	1	1	0	1	-70,894996	272,821234	243,22511	0
15.01.2021	01:48:25	0	0	2,824751	3,66075	63,864	-0,92	78,352	0	1008,34	5,4	7,5	7,3	1	1	1	1	1	1	1	1	1	0	1	-67,582805	272,803092	246,453756	0
15.01.2021	01:48:26	0	0	4,745582	3,6015	64,7172	-0,92	78,368	0	1008,4	5,4	7,4	7,3	1	1	1	1	1	1	1	1	1	0	1	-73,361522	272,895377	241,100189	0
15.01.2021	01:48:27	0	0	4,632592	3,59325	58,4856	-0,922	78,366	0	1008,66	5,3	7,4	7,3	1	1	1	1	1	1	1	1	1	0	1	-71,035941	272,78218	242,90434	0
15.01.2021	01:48:28	0	0	3,954652	3,753	63,4932	-0,925	78,382	0	1008,38	5,4	7,5	7,3	1	1	1	1	1	1	1	1	1	0	1	-74,207188	272,941687	240,468032	0
15.01.2021	01:48:29	0	0	3,728672	3,576	65,088	-0,921	78,382	0	1008,5	5,4	7,4	7,3	1	1	1	1	1	1	1	1	1	0	1	-72,938689	272,839394	241,265059	0
15.01.2021	01:48:30	0	0	3,615682	3,51075	54,7956	-0,918	78,387	0	1008,48	5,4	7,4	7,3	1	1	1	1	1	1	1	1	1	0	1	-73,361522	272,950119	241,352584	0
15.01.2021	01:48:31	0	0	4,632592	3,465	59,8572	-0,918	78,383	0	1008,36	5,3	7,4	7,3	1	1	1	1	1	1	1	1	1	0	1	-69,06272	272,92343	245,528315	0
15.01.2021	01:48:32	0	0	3,389702	3,303	66,2364	-0,92	78,37	0	1008,48	5,4	7,4	7,3	1	1	1	1	1	1	1	1	1	0	1	-70,260747	272,948713	244,446877	0
15.01.2021	01:48:33	0	0	3,163722	3,273	68,3964	-0,913	78,382	0	1008,32	5,4	7,4	7,3	1	1	1	1	1	1	1	1	1	0	1	-72,515856	272,784967	241,437255	0
15.01.2021	01:48:34	0	0	5,084553	3,423	63,2772	-0,917	78,383	0	1008,42	5,4	7,4	7,3	1	1	1	1	1	1	1	1	1	0	1	-72,163495	272,875764	242,207825	0
15.01.2021	01:48:35	0	0	3,615682	3,5145	70,2144	-0,915	78,385	0	1008,36	5,4	7,4	7,3	1	1	1	1	1	1	1	1	1	0	1	-70,68358	272,947308	244,017562	0
15.01.2021	01:48:36	0	0	3,163722	3,429	69,1452	-0,913	78,365	0	1008,14	5,4	7,4	7,3	1	1	1	1	1	1	1	1	1	0	1	-72,022551	272,824027	242,110417	0
15.01.2021	01:48:37	0	0	3,954652	3,3105	70,2324	-0,914	78,372	0	1008,44	5,4	7,4	7,3	1	1	1	1	1	1	1	1	1	0	1	-68,146582	272,950119	246,567525	0
15.01.2021	01:48:38	0	0	3,615682	3,27675	69,9552	-0,92	78,335	0	1008,34	5,4	7,4	7,3	1	1	1	1	1	1	1	1	1	0	1	-74,559549	272,91922	240,012073	0
15.01.2021	01:48:39	0	0	3,954652	3,2445	74,1708	-0,911	78,35	0	1008,4	5,4	7,4	7,3	1	1	1	1	1	1	1	1	1	0	1	-71,035941	272,791936	242,949255	0
15.01.2021	01:48:40	0	0	3,841662	3,11925	58,8672	-0,914	78,326	0	1008,48	5,4	7,4	7,3	1	1	1	1	1	1	1	1	1	0	1	-71,035941	272,944497	243,652239	0
15.01.2021	01:48:41	0	0	3,502692	3,03075	58,4964	-0,914	78,307	0	1008,28	5,4	7,4	7,3	1	1	1	1	1	1	1	1	1	0	1	-68,217054	272,849179	246,031772	0
15.01.2021	01:48:42	0	0	3,502692	2,84925	73,7964	-0,912	78,305	0	1008,42	5,4	7,4	7,3	1	1	1	1	1	1	1	1	1	0	1	-72,022551	272,955742	242,717492	0
15.01.2021	01:48:43	0	0	3,841662	2,82375	63,1656	-0,909	78,283	0	1008,58	5,4	7,4	7,3	1	1	1	1	1	1	1	1	1	0	1	-75,828048	272,812859	238,253487	0
15.01.2021	01:48:44	0	0	3,276712	2,76225	62,802	-0,911	78,27	0	1008,4	5,4	7,4	7,3	1	1	1	1	1	1	1	1	1	0	1	-69,485553	272,801697	244,544585	0
15.01.2021	01:48:45	0	0	2,372791	2,62125	60,9444	-0,908	78,243	0	1008,42	5,4	7,4	7,3	1	1	1	1	1	1	1	1	1	0	1	-70,613108	272,943092	244,068592	0
15.01.2021	01:48:46	0	0	3,163722	2,391	71,9964	-0,906	78,226	0	1008,44	5,3	7,4	7,3	1	1	1	1	1	1	1	1	1	0	1	-73,431994	272,88837	240,997421	0
15.01.2021	01:48:47	0	0	4,293622	2,22525	68,7564	-0,906	78,204	0	1008,26	5,4	7,4	7,3	1	1	1	1	1	1	1	1	1	0	1	-71,67019	272,951525	243,0504	0
15.01.2021	01:48:48	0	0	2,259801	2,139	71,568	-0,911	78,185	0	1008,42	5,4	7,4	7,3	1	1	1	1	1	1	1	1	1	0	1	-73,854827	272,81565	240,239563	0
15.01.2021	01:48:49	0	0	4,632592	2,17125	72,324	-0,907	78,161	0	1008,44	5,3	7,4	7,3	1	1	1	1	1	1	1	1	1	0	1	-69,485553	272,786361	244,473973	0
15.01.2021	01:48:50	0	0	4,067642	2,15475	88,9632	-0,907	78,148	0	1008,44	5,4	7,4	7,3	1	1	1	1	1	1	1	1	1	0	1	-70,190275	272,92343	244,400761	0
15.01.2021	01:48:51	0	0	2,824751	2,14575	83,7396	-0,905	78,12	0	1008,42	5,4	7,4	7,3	1	1	1	1	1	1	1	1	1	0	1	-74,418605	272,913607	240,127141	0
15.01.2021	01:48:52	0	0	3,050732	2,142	75,33	-0,902	78,113	0	1008,4	5,4	7,4	7,3	1	1	1	1	1	1	1	1	1	0	1	-68,851304	272,764075	245,005637	0
15.01.2021	01:48:53	0	0	4,180632	2,27325	75,618	-0,906	78,071	0	1008,4	5,4	7,4	7,3	1	1	1	1	1	1	1	1	1	0	1	-73,150106	272,891173	241,292226	0
15.01.2021	01:48:54	0	0	3,276712	2,30925	82,9584	-0,903	78,08	0	1008,4	5,3	7,4	7,3	1	1	1	1	1	1	1	1	1	0	1	-75,968992	272,776607	237,945635	0
15.01.2021	01:48:55	0	0	3,389702	2,2635	87,75	-0,91	78,063	0	1008,5	5,4	7,4	7,3	1	1	1	1	1	1	1	1	1	0	1	-75,687104	272,829613	238,471595	0
15.01.2021	01:48:56	0	0	4,971562	2,28675	92,6568	-0,903	78,046	0	1008,4	5,4	7,4	7,3	1	1	1	1	1	1	1	1	1	0	1	-69,556025	272,934663	245,086804	0
15.01.2021	01:48:57	0	0	4,745582	2,19975	76,0788	-0,904	78,042	0	1008,48	5,4	7,4	7,3	1	1	1	1	1	1	1	1	1	0	1	-73,502467	272,814254	240,585496	0
15.01.2021	01:48:58	0	0	4,858572	2,235	83,322	-0,901	78,037	0	1008,4	5,4	7,4	7,3	1	1	1	1	1	1	1	1	1	0	1	-69,274137	272,800302	244,749579	0
15.01.2021	01:48:59	0	0	3,050732	2,238	88,5852	-0,896	78,007	0	1008,38	5,4	7,4	7,3	1	1	1	1	1	1	1	1	1	0	1	-76,180409	272,801697	237,849729	0
15.01.2021	01:49:00	0	0	4,971562	2,25225	85,194	-0,901	77,965	0	1008,44	5,4	7,4	7,3	1	1	1	1	1	1	1	1	1	0	1	-70,965469	272,754333	242,846637	0
15.01.2021	01:49:01	0	0	3,502692	2,27025	93,7116	-0,897	77,932	0	1008,4	5,4	7,4	7,3	1	1	1	1	1	1	1	1	1	0	1	-75,89852	272,895377	238,563191	0
15.01.2021	01:49:02	0	0	3,502692	2,27025	93,7116	-0,897	77,932	0	1008,4	5,4	7,4	7,3	1	1	1	1	1	1	1	1	1	0	1	-75,89852	272,895377	238,563191	0
15.01.2021	01:49:03	0	0	2,711761	2,22825	78,6636	-0,901	77,881	0	1008,48	5,4	7,4	7,3	1	1	1	1	1	1	1	1	1	0	1	-71,458774	272,773822	242,443031	0
15.01.2021	01:49:04	0	0	3,728672	2,15025	81,5904	-0,899	77,868	0	1008,36	5,3	7,4	7,3	1	1	1	1	1	1	1	1	1	0	1	-74,982382	272,78218	238,957899	0
15.01.2021	01:49:05	0	0	4,745582	2,06625	80,91	-0,912	77,815	0	1008,44	5,3	7,4	7,3	1	1	1	1	1	1	1	1	1	0	1	-69,203665	272,868765	245,1354	0
15.01.2021	01:49:06	0	0	3,276712	2,04525	77,2164	-0,904	77,792	0	1008,54	5,4	7,4	7,3	1	1	1	1	1	1	1	1	1	0	1	-75,405215	272,780787	238,528652	0
15.01.2021	01:49:07	0	0	3,502692	2,11725	76,0824	-0,905	77,761	0	1008,32	5,3	7,4	7,3	1	1	1	1	1	1	1	1	1	0	1	-68,851304	272,846383	245,38464	0
15.01.2021	01:49:08	0	0	4,745582	2,45775	87,7284	-0,906	77,725	0	1008,54	5,4	7,4	7,3	1	1	1	1	1	1	1	1	1	0	1	-68,498943	272,771036	245,390041	0
15.01.2021	01:49:09	0	0	2,824751	2,7555	87,3612	-0,905	77,702	0	1008,3	5,3	7,4	7,3	1	1	1	1	1	1	1	1	1	0	1	-70,965469	272,772429	242,929925	0
15.01.2021	01:49:10	0	0	3,728672	2,96175	80,1612	-0,906	77,688	0	1008,44	5,3	7,4	7,3	1	1	1	1	1	1	1	1	1	0	1	-69,133192	272,861767	245,173631	0
15.01.2021	01:49:11	0	0	4,406612	3,1365	78,2712	-0,907	77,651	0	1008,52	5,3	7,4	7,3	1	1	1	1	1	1	1	1	1	0	1	-68,851304	272,922027	245,73326	0
15.01.2021	01:49:12	0	0	3,841662	3,225	77,58	-0,906	77,636	0	1008,48	5,3	7,4	7,3	1	1	1	1	1	1	1	1	1	0	1	-70,260747	272,864566	244,058972	0
15.01.2021	01:49:13	0	0	2,598771	3,354	74,1816	-0,917	77,598	0	1008,42	5,3	7,4	7,3	1	1	1	1	1	1	1	1	1	0	1	-69,837914	272,922027	244,74665	0
15.01.2021	01:49:14	0	0	3,841662	3,27075	72,27	-0,901	77,595	0	1008,46	5,4	7,4	7,3	1	1	1	1	1	1	1	1	1	0	1	-76,814658	272,881366	237,582477	0
15.01.2021	01:49:15	0	0	2,937741	3,24825	74,9304	-0,907	77,57	0	1008,5	5,3	7,4	7,3	1	1	1	1	1	1	1	1	1	0	1	-69,69697	272,797513	244,313904	0
15.01.2021	01:49:16	0	0	2,711761	3,02925	78,282	-0,916	77,547	0	1008,46	5,4	7,4	7,3	1	1	1	1	1	1	1	1	1	0	1	-76,039464	272,917816	238,525688	0
15.01.2021	01:49:17	0	0	4,632592	2,75175	87,7392	-0,91	77,524	0	1008,36	5,3	7,4	7,3	1	1	1	1	1	1	1	1	1	0	1	-70,401691	272,868765	243,937374	0
15.01.2021	01:49:18	0	0	2,937741	2,65275	90	-0,911	77,532	0	1008,44	5,4	7,4	7,3	1	1	1	1	1	1	1	1	1	0	1	-70,613108	272,736254	243,115804	0
15.01.2021	01:49:19	0	0	4,632592	2,6715	86,6664	-0,907	77,521	0	1008,42	5,3	7,4	7,3	1	1	1	1	1	1	1	1	1	0	1	-73,079634	272,814254	241,008329	0
15.01.2021	01:49:20	0	0	4,406612	2,80425	77,5764	-0,912	77,512	0	1008,5	5,5	7,4	7,3	1	1	1	1	1	1	1	1	1	0	1	-73,995772	272,916413	240,562911	0
15.01.2021	01:49:21	0	0	4,745582	2,83575	75,6324	-0,91	77,51	0	1008,42	5,4	7,4	7,3	1	1	1	1	1	1	1	1	1	0	1	-74,770965	272,867365	239,56165	0
15.01.2021	01:49:22	0	0	3,841662	2,736	83,736	-0,921	77,501	0	1008,42	5,3	7,4	7,3	1	1	1	1	1	1	1	1	1	0	1	-73,784355	272,903789	240,716129	0
15.01.2021	01:49:23	0	0	4,180632	2,72925	79,758	-0,915	77,488	0	1008,46	5,3	7,4	7,3	1	1	1	1	1	1	1	1	1	0	1	-76,039464	272,885568	238,377037	0
15.01.2021	01:49:24	0	0	4,745582	2,77425	84,8016	-0,912	77,47	0	1008,44	5,3	7,4	7,3	1	1	1	1	1	1	1	1	1	0	1	-74,489077	272,754333	239,323029	0
15.01.2021	01:49:25	0	0	4,745582	2,89425	77,5656	-0,913	77,454	0	1008,4	5,4	7,4	7,3	1	1	1	1	1	1	1	1	1	0	1	-72,938689	272,850577	241,316579	0
15.01.2021	01:49:26	0	0	3,954652	2,9175	78,2784	-0,921	77,453	0	1008,44	5,3	7,4	7,3	1	1	1	1	1	1	1	1	1	0	1	-76,462297	272,906593	238,051116	0
15.01.2021	01:49:27	0	0	4,971592	2,856	73,0548	-0,916	77,434	0	1008,44	5,4	7,4	7,2	1	1	1	1	1	1	1	1	1	0	1	-72,797745	272,768251	241,07842	0
15.01.2021	01:49:28	0	0	2,937741	2,85375	62,4312	-0,915	77,415	0	1008,42	5,4	7,4	7,3	1	1	1	1	1	1	1	1	1	0	1	-67,159972	272,899582	247,321123	0
15.01.2021	01:49:29	0	0	3,728672	2,97525	74,934	-0,917	77,417	0	1008,58	5,4	7,4	7,3	1	1	1	1	1	1	1	1	1	0	1	-69,626498	272,757116	244,198415	0
15.01.2021	01:49:30	0	0	4,293622	2,838	65,0628	-0,917	77,412	0	1008,54	5,3	7,4	7,3	1	1	1	1	1	1	1	1	1	0	1	-68,498943	272,896779	245,969229	0
15.01.2021	01:49:31	0	0	3,728672	2,87475	76,8528	-0,914	77,421	0	1008,42	5,4	7,4	7,3	1	1	1	1	1	1	1	1	1	0	1	-66,032417	272,718192	247,613397	0
15.01.2021	01:49:32	0	0	3,163722	2,9745	70,218	-0,916	77,439	0	1008,52	5,4	7,4	7,3	1	1	1	1	1	1	1	1	1	0	1	-70,260747	272,797513	243,750127	0
15.01.2021	01:49:33	0	0	5,423523	3,17475	74,1636	-0,913	77,447	0	1008,46	5,3	7,4	7,3	1	1	1	1	1	1	1	1	1	0	1	-74,489077	272,903789	240,011408	0
15.01.2021	01:49:34	0	0	4,745582	3,2145	89,6796	-0,92	77,442	0	1008,48	5,4	7,4	7,3	1	1	1	1	1	1	1	1	1	0	1	-69,908386	272,867365	244,424229	0
15.01.2021	01:49:35	0	0	3,502692	3,1515	87,7392	-0,921	77,428	0	1008,42	5,4	7,4	7,3	1	1	1	1	1	1	1	1	1	0	1	-69,415081	272,805882	244,634327	0
15.01.2021	01:49:36	0	0	2,598771	3,099	81,9756	-0,923	77,45	0	1008,42	5,5	7,4	7,3	1	1	1	1	1	1	1	1	1	0	1	-68,005638	272,910801	246,527173	0
15.01.2021	01:49:37	0	0	5,197543	3,168	82,6056	-0,917	77,459	0	1008,42	5,4	7,4	7,3	1	1	1	1	1	1	1	1	1	0	1	-70,824524	272,796119	243,179929	0
15.01.2021	01:49:38	0	0	2,824751	3,207	80,1288	-0,917	77,449	0	1008,28	5,3	7,4	7,3	1	1	1	1	1	1	1	1	1	0	1	-72,515856	272,896779	241,952316	0
15.01.2021	01:49:39	0	0	3,954652	3,16575	84,7872	-0,923	77,446	0	1008,48	5,3	7,4	7,3	1	1	1	1	1	1	1	1	1	0	1	-71,599718	272,861767	242,707106	0
15.01.2021	01:49:40	0	0	2,711761	2,97225	69,4584	-0,925	77,426	0	1008,54	5,4	7,4	7,3	1	1	1	1	1	1	1	1	1	0	1	-72,586328	272,723748	241,085044	0
15.01.2021	01:49:41	0	0	4,745582	2,91525	72,666	-0,926	77,425	0	1008,56	5,4	7,4	7,3	1	1	1	1	1	1	1	1	1	0	1	-71,317829	272,878565	243,066397	0
15.01.2021	01:49:42	0	0	3,050732	2,8365	79,0164	-0,926	77,424	0	1008,5	5,4	7,4	7,3	1	1	1	1	1	1	1	1	1	0	1	-74,91191	272,759899	238,925813	0
15.01.2021	01:49:43	0	0	3,841662	2,901	81,5904	-0,924	77,435	0	1008,46	5,4	7,4	7,3	1	1	1	1	1	1	1	1	1	0	1	-72,374912	272,701535	241,194281	0
15.01.2021	01:49:44	0	0	3,728672	2,88075	81,216	-0,924	77,455	0	1008,52	5,4	7,4	7,3	1	1	1	1	1	1	1	1	1	0	1	-71,529246	272,810068	242,539436	0
15.01.2021	01:49:45	0	0	4,293622	2,77575	74,9304	-0,925	77,474	0	1008,54	5,4	7,4	7,3	1	1	1	1	1	1	1	1	1	0	1	-71,529246	272,714026	242,097405	0
15.01.2021	01:49:46	0	0	2,485781	2,8005	66,2148	-0,928	77,488	0	1008,46	5,4	7,4	7,3	1	1	1	1	1	1	1	1	1	0	1	-70,754052	272,752942	243,05165	0
15.01.2021	01:49:47	0	0	2,598771	2,8395	73,7856	-0,926	77,503	0	1008,52	5,4	7,4	7,3	1	1	1	1	1	1	1	1	1	0	1	-66,384778	272,881366	248,012357	0
15.01.2021	01:49:48	0	0	3,841662	2,973	76,8348	-0,927	77,524	0	1008,44	5,4	7,4	7,3	1	1	1	1	1	1	1	1	1	0	1	-72,868217	272,847781	241,374167	0
15.01.2021	01:49:49	0	0	2,598771	2,979	72,288	-0,934	77,514	0	1008,52	5,4	7,4	7,3	1	1	1	1	1	1	1	1	1	0	1	-73,079634	272,725137	240,59813	0
15.01.2021	01:49:50	0	0	2,824751	2,925	78,2856	-0,927	77,528	0	1008,52	5,4	7,4	7,3	1	1	1	1	1	1	1	1	1	0	1	-68,428471	272,741815	245,326029	0
15.01.2021	01:49:51	0	0	4,519602	2,838	82,5804	-0,934	77,515	0	1008,36	5,4	7,4	7,3	1	1	1	1	1	1	1	1	1	0	1	-70,260747	272,833804	243,917255	0
15.01.2021	01:49:52	0	0	2,937741	2,8575	82,3572	-0,938	77,479	0	1008,42	5,4	7,4	7,3	1	1	1	1	1	1	1	1	1	0	1	-73,29105	272,892574	241,157741	0
15.01.2021	01:49:53	0	0	4,406639	3,189	81,63	-0,935	77,502	0	1008,5	5,4	7,4	7,2	1	1	1	1	1	1	1	1	1	0	1	-75,968992	272,839394	238,234756	0
15.01.2021	01:49:54	0	0	3,502692	3,47325	83,3544	-0,932	77,49	0	1008,44	5,4	7,4	7,3	1	1	1	1	1	1	1	1	1	0	1	-69,69697	272,723748	243,974403	0
15.01.2021	01:49:55	0	0	3,728672	3,561	86,976	-0,932	77,473	0	1008,54	5,4	7,4	7,3	1	1	1	1	1	1	1	1	1	0	1	-73,29105	272,836599	240,899824	0
15.01.2021	01:49:56	0	0	3,841662	3,447	82,5804	-0,932	77,471	0	1008,46	5,4	7,4	7,3	1	1	1	1	1	1	1	1	1	0	1	-71,740662	272,726526	241,943493	0
15.01.2021	01:49:57	0	0	4,632592	3,32925	79,398	-0,935	77,458	0	1008,46	5,3	7,4	7,3	1	1	1	1	1	1	1	1	1	0	1	-69,06272	272,789148	244,90964	0
15.01.2021	01:49:58	0	0	4,632592	3,16725	83,736	-0,937	77,45	0	1008,48	5,4	7,4	7,3	1	1	1	1	1	1	1	1	1	0	1	-70,331219	272,907996	244,18866	0
15.01.2021	01:49:59	0	0	3,841662	3,22425	85,8816	-0,936	77,432	0	1008,48	5,4	7,4	7,3	1	1	1	1	1	1	1	1	1	0	1	-72,374912	272,818442	241,732335	0
15.01.2021	01:50:00	0	0	4,745582	3,24075	86,2704	-0,933	77,415	0	1008,44	5,4	7,4	7,3	1	1	1	1	1	1	1	1	1	0	1	-72,30444	272,860368	241,995938	0
15.01.2021	01:50:01	0	0	4,745582	3,24075	86,2704	-0,933	77,415	0	1008,44	5,4	7,4	7,3	1	1	1	1	1	1	1	1	1	0	1	-72,30444	272,860368	241,995938	0
15.01.2021	01:50:02	0	0	2,824751	3,0615	92,2824	-0,939	77,4	0	1008,42	5,4	7,4	7,3	1	1	1	1	1	1	1	1	1	0	1	-66,173362	272,884167	248,236684	0
15.01.2021	01:50:03	0	0	2,937741	2,99325	89,0532	-0,939	77,394	0	1008,46	5,4	7,4	7,3	1	1	1	1	1	1	1	1	1	0	1	-68,780832	272,850577	245,474436	0
15.01.2021	01:50:04	0	0	2,372791	2,9565	94,7376	-0,946	77,406	0	1008,42	5,4	7,4	7,3	1	1	1	1	1	1	1	1	1	0	1	-70,894996	272,895377	243,566715	0
15.01.2021	01:50:05	0	0	4,406612	3,162	69,1416	-0,947	77,437	0	1008,54	5,4	7,4	7,3	1	1	1	1	1	1	1	1	1	0	1	-72,586328	272,832407	241,585239	0
15.01.2021	01:50:06	0	0	3,728672	3,0585	77,9652	-0,94	77,444	0	1008,5	5,4	7,4	7,3	1	1	1	1	1	1	1	1	1	0	1	-72,022551	272,71125	241,591328	0
15.01.2021	01:50:07	0	0	2,598771	2,76075	76,0104	-0,943	77,478	0	1008,46	5,4	7,4	7,3	1	1	1	1	1	1	1	1	1	0	1	-73,150106	272,783573	240,79659	0
15.01.2021	01:50:08	0	0	4,632592	2,592	78,7824	-0,942	77,503	0	1008,3	5,4	7,4	7,3	1	1	1	1	1	1	1	1	1	0	1	-76,039464	272,889771	238,396409	0
15.01.2021	01:50:09	0	0	3,050732	2,52225	70,2144	-0,949	77,566	0	1008,42	5,4	7,4	7,3	1	1	1	1	1	1	1	1	1	0	1	-74,982382	272,747377	238,797715	0
15.01.2021	01:50:10	0	0	2,824768	2,607	68,4072	-0,944	77,639	0	1008,48	5,4	7,4	7,2	1	1	1	1	1	1	1	1	1	0	1	-69,274137	272,78218	244,666144	0
15.01.2021	01:50:11	0	0	3,050732	2,51775	71,3448	-0,942	77,676	0	1008,38	5,4	7,4	7,3	1	1	1	1	1	1	1	1	1	0	1	-69,767442	272,725137	243,910322	0
15.01.2021	01:50:12	0	0	2,937741	2,35725	72,324	-0,943	77,717	0	1008,44	5,4	7,4	7,3	1	1	1	1	1	1	1	1	1	0	1	-71,740662	272,810068	242,32802	0
15.01.2021	01:50:13	0	0	2,824751	2,21625	82,9728	-0,95	77,755	0	1008,42	5,4	7,4	7,3	1	1	1	1	1	1	1	1	1	0	1	-73,572939	272,889771	240,862935	0
15.01.2021	01:50:14	0	0	3,050732	2,121	102,1932	-0,94	77,793	0	1008,46	5,4	7,4	7,3	1	1	1	1	1	1	1	1	1	0	1	-71,317829	272,747377	242,462267	0
15.01.2021	01:50:15	0	0	4,745582	2,1	98,1	-0,942	77,828	0	1008,42	5,4	7,4	7,3	1	1	1	1	1	1	1	1	1	0	1	-68,287526	272,779394	245,639927	0
15.01.2021	01:50:16	0	0	5,084553	2,05125	86,2812	-0,947	77,843	0	1008,44	5,4	7,4	7,3	1	1	1	1	1	1	1	1	1	0	1	-69,415081	272,725137	244,262683	0
15.01.2021	01:50:17	0	0	4,745582	2,00625	84,438	-0,949	77,862	0	1008,36	5,4	7,4	7,3	1	1	1	1	1	1	1	1	1	0	1	-67,794221	272,847781	246,448163	0
15.01.2021	01:50:18	0	0	4,519602	1,93875	85,9176	-0,947	77,882	0	1008,46	5,4	7,4	7,3	1	1	1	1	1	1	1	1	1	0	1	-70,049331	272,734864	243,673186	0
15.01.2021	01:50:19	0	0	4,180632	1,91325	86,976	-0,946	77,906	0	1008,3	5,4	7,4	7,3	1	1	1	1	1	1	1	1	1	0	1	-72,586328	272,832407	241,585239	0
15.01.2021	01:50:20	0	0	5,084553	2,028	79,0452	-0,95	77,944	0	1008,32	5,4	7,4	7,3	1	1	1	1	1	1	1	1	1	0	1	-71,952079	272,889771	242,483795	0
15.01.2021	01:50:21	0	0	4,180657	2,17125	78,2604	-0,943	77,955	0	1008,48	5,4	7,4	7,2	1	1	1	1	1	1	1	1	1	0	1	-70,824524	272,75155	242,974776	0
15.01.2021	01:50:22	0	0	4,63262	2,265	82,728	-0,944	77,966	0	1008,42	5,4	7,4	7,2	1	1	1	1	1	1	1	1	1	0	1	-70,824524	272,896779	243,643648	0
15.01.2021	01:50:23	0	0	4,971592	2,37975	87,3828	-0,941	77,973	0	1008,36	5,4	7,4	7,2	1	1	1	1	1	1	1	1	1	0	1	-68,992248	272,790542	244,986529	0
15.01.2021	01:50:24	0	0	5,084553	2,39325	84,8124	-0,942	77,989	0	1008,32	5,4	7,4	7,3	1	1	1	1	1	1	1	1	1	0	1	-72,656801	272,886969	241,766158	0
15.01.2021	01:50:25	0	0	4,745611	2,235	73,7604	-0,941	77,984	0	1008,4	5,4	7,4	7,2	1	1	1	1	1	1	1	1	1	0	1	-71,317829	272,905191	243,189119	0
15.01.2021	01:50:26	0	0	4,293648	2,13	79,7976	-0,949	77,967	0	1008,36	5,4	7,4	7,2	1	1	1	1	1	1	1	1	1	0	1	-74,207188	272,828217	239,945077	0
15.01.2021	01:50:27	0	0	2,485796	2,13525	89,7336	-0,949	77,967	0	1008,42	5,4	7,4	7,2	1	1	1	1	1	1	1	1	1	0	1	-72,30444	272,712638	241,315825	0
15.01.2021	01:50:28	0	0	2,711761	2,1135	79,0452	-0,941	77,944	0	1008,34	5,4	7,4	7,3	1	1	1	1	1	1	1	1	1	0	1	-72,30444	272,843587	241,918624	0
15.01.2021	01:50:29	0	0	4,067666	2,11575	84,4272	-0,946	77,94	0	1008,54	5,4	7,4	7,2	1	1	1	1	1	1	1	1	1	0	1	-67,794221	272,716803	245,845205	0
15.01.2021	01:50:30	0	0	3,050732	2,21775	78,6636	-0,942	77,92	0	1008,5	5,4	7,4	7,3	1	1	1	1	1	1	1	1	1	0	1	-66,596195	272,835201	247,588243	0
15.01.2021	01:50:31	0	0	2,824751	2,3175	81,9792	-0,944	77,909	0	1008,42	5,4	7,4	7,3	1	1	1	1	1	1	1	1	1	0	1	-67,582805	272,732084	246,126923	0
15.01.2021	01:50:32	0	0	3,163722	2,45475	87,372	-0,944	77,894	0	1008,46	5,4	7,4	7,3	1	1	1	1	1	1	1	1	1	0	1	-67,864693	272,748768	245,921804	0
15.01.2021	01:50:33	0	0	4,632592	2,5935	77,9904	-0,94	77,884	0	1008,42	5,4	7,4	7,3	1	1	1	1	1	1	1	1	1	0	1	-75,546159	272,787754	238,419784	0
15.01.2021	01:50:34	0	0	3,276712	2,60625	75,2292	-0,945	77,862	0	1008,5	5,4	7,4	7,3	1	1	1	1	1	1	1	1	1	0	1	-73,220578	272,725137	240,457186	0
15.01.2021	01:50:35	0	0	3,389722	2,59275	78,6672	-0,944	77,849	0	1008,44	5,4	7,4	7,2	1	1	1	1	1	1	1	1	1	0	1	-74,066244	272,784967	239,886867	0
15.01.2021	01:50:36	0	0	2,711761	2,58	80,1792	-0,943	77,828	0	1008,4	5,4	7,3	7,3	1	1	1	1	1	1	1	1	1	0	1	-72,727273	272,726526	240,956883	0
15.01.2021	01:50:37	0	0	4,63262	2,52525	95,544	-0,945	77,815	0	1008,4	5,4	7,4	7,2	1	1	1	1	1	1	1	1	1	0	1	-73,502467	272,82682	240,643366	0
15.01.2021	01:50:38	0	0	4,745582	2,4015	70,5816	-0,948	77,814	0	1008,46	5,4	7,4	7,3	1	1	1	1	1	1	1	1	1	0	1	-73,009161	272,900984	241,478396	0
15.01.2021	01:50:39	0	0	4,971562	2,45925	89,334	-0,949	77,829	0	1008,42	5,4	7,4	7,3	1	1	1	1	1	1	1	1	1	0	1	-73,713883	272,761291	240,130245	0
15.01.2021	01:50:40	0	0	2,824768	2,5425	92,2716	-0,945	77,829	0	1008,38	5,4	7,4	7,2	1	1	1	1	1	1	1	1	1	0	1	-70,472163	272,709862	243,13533	0
15.01.2021	01:50:41	0	0	3,276731	2,5665	96,21	-0,948	77,81	0	1008,34	5,4	7,3	7,2	1	1	1	1	1	1	1	1	1	0	1	-74,700493	272,789148	239,271867	0
15.01.2021	01:50:42	0	0	3,728694	2,3685	79,7688	-0,947	77,83	0	1008,46	5,4	7,4	7,2	1	1	1	1	1	1	1	1	1	0	1	-73,854827	272,893975	240,600424	0
15.01.2021	01:50:43	0	0	5,084553	2,21625	85,5504	-0,948	77,828	0	1008,48	5,4	7,4	7,3	1	1	1	1	1	1	1	1	1	0	1	-73,572939	272,865965	240,753228	0
15.01.2021	01:50:44	0	0	3,615682	2,238	82,3572	-0,95	77,818	0	1008,4	5,4	7,4	7,3	1	1	1	1	1	1	1	1	1	0	1	-67,159972	272,833804	247,01803	0
15.01.2021	01:50:45	0	0	5,197574	2,54475	83,358	-0,947	77,816	0	1008,26	5,4	7,4	7,2	1	1	1	1	1	1	1	1	1	0	1	-73,572939	272,898181	240,901695	0
15.01.2021	01:50:46	0	0	3,276731	2,65575	85,176	-0,952	77,806	0	1008,58	5,4	7,4	7,2	1	1	1	1	1	1	1	1	1	0	1	-70,542636	272,840791	243,667551	0
15.01.2021	01:50:47	0	0	2,485796	2,7555	87,3936	-0,953	77,789	0	1008,32	5,4	7,4	7,2	1	1	1	1	1	1	1	1	1	0	1	-71,388302	272,835201	242,796136	0
15.01.2021	01:50:48	0	0	3,389722	2,80275	80,262	-0,952	77,804	0	1008,52	5,4	7,4	7,2	1	1	1	1	1	1	1	1	1	0	1	-68,428471	272,722359	245,236511	0
15.01.2021	01:50:49	0	0	5,197543	2,85825	81,0396	-0,948	77,78	0	1008,3	5,4	7,3	7,3	1	1	1	1	1	1	1	1	1	0	1	-70,965469	272,81565	243,128921	0
15.01.2021	01:50:50	0	0	5,197543	2,85975	77,1984	-0,944	77,791	0	1008,44	5,4	7,4	7,3	1	1	1	1	1	1	1	1	1	0	1	-69,626498	272,889771	244,809376	0
15.01.2021	01:50:51	0	0	4,067642	2,874	84,438	-0,95	77,776	0	1008,44	5,4	7,4	7,3	1	1	1	1	1	1	1	1	1	0	1	-72,022551	272,805882	242,026857	0
15.01.2021	01:50:52	0	0	4,293622	2,8125	91,1628	-0,959	77,771	0	1008,32	5,4	7,4	7,3	1	1	1	1	1	1	1	1	1	0	1	-69,978858	272,892574	244,469933	0
15.01.2021	01:50:53	0	0	3,841662	2,8245	81,9792	-0,952	77,75	0	1008,42	5,4	7,5	7,3	1	1	1	1	1	1	1	1	1	0	1	-69,133192	272,832407	245,038375	0
15.01.2021	01:50:54	0	0	4,745611	2,80125	76,3812	-0,956	77,746	0	1008,38	5,4	7,4	7,2	1	1	1	1	1	1	1	1	1	0	1	-67,230444	272,892574	247,218347	0
15.01.2021	01:50:55	0	0	4,971562	2,82825	77,2092	-0,952	77,745	0	1008,42	5,4	7,4	7,3	1	1	1	1	1	1	1	1	1	0	1	-74,91191	272,863167	239,401361	0
15.01.2021	01:50:56	0	0	4,745582	2,958	80,8848	-0,958	77,722	0	1008,3	5,4	7,4	7,3	1	1	1	1	1	1	1	1	1	0	1	-70,824524	272,779394	243,102929	0
15.01.2021	01:50:57	0	0	5,084583	3,08775	70,2216	-0,955	77,715	0	1008,48	5,4	7,3	7,2	1	1	1	1	1	1	1	1	1	0	1	-68,357999	272,71125	245,25588	0
15.01.2021	01:50:58	0	0	2,711778	3,0435	69,444	-0,952	77,736	0	1008,44	5,4	7,4	7,2	1	1	1	1	1	1	1	1	1	0	1	-69,06272	272,797513	244,948153	0
15.01.2021	01:50:59	0	0	2,372791	2,901	73,1412	-0,955	77,742	0	1008,36	5,4	7,4	7,3	1	1	1	1	1	1	1	1	1	0	1	-71,035941	272,716803	242,603485	0
15.01.2021	01:51:00	0	0	4,406612	2,85	87,3576	-0,96	77,792	0	1008,3	5,4	7,4	7,3	1	1	1	1	1	1	1	1	1	0	1	-71,952079	272,740425	241,796023	0
15.01.2021	01:51:01	0	0	4,406612	2,85	87,3576	-0,96	77,792	0	1008,3	5,4	7,4	7,3	1	1	1	1	1	1	1	1	1	0	1	-71,952079	272,740425	241,796023	0
15.01.2021	01:51:02	0	0	4,067642	2,919	77,2344	-0,958	77,798	0	1008,32	5,4	7,4	7,3	1	1	1	1	1	1	1	1	1	0	1	-74,066244	272,893975	240,389007	0
15.01.2021	01:51:03	0	0	2,485796	2,901	82,0584	-0,957	77,834	0	1008,5	5,4	7,4	7,2	1	1	1	1	1	1	1	1	1	0	1	-74,982382	272,750159	238,810517	0
15.01.2021	01:51:04	0	0	4,067642	2,76375	88,1316	-0,952	77,843	0	1008,48	5,4	7,4	7,3	1	1	1	1	1	1	1	1	1	0	1	-67,019027	272,885568	247,397474	0
15.01.2021	01:51:05	0	0	4,971592	2,673	80,5104	-0,953	77,843	0	1008,44	5,4	7,4	7,2	1	1	1	1	1	1	1	1	1	0	1	-72,30444	272,82263	241,822097	0
15.01.2021	01:51:06	0	0	3,502692	2,658	78,2676	-0,952	77,843	0	1008,48	5,4	7,4	7,3	1	1	1	1	1	1	1	1	1	0	1	-70,472163	272,863167	243,841107	0
15.01.2021	01:51:07	0	0	4,858602	2,65275	83,3256	-0,96	77,838	0	1008,26	5,3	7,4	7,2	1	1	1	1	1	1	1	1	1	0	1	-71,529246	272,85757	242,75824	0
15.01.2021	01:51:08	0	0	4,745582	2,66625	71,6004	-0,957	77,83	0	1008,54	5,4	7,3	7,3	1	1	1	1	1	1	1	1	1	0	1	-70,754052	272,828217	243,398213	0
15.01.2021	01:51:09	0	0	3,502692	2,70525	86,688	-0,959	77,85	0	1008,72	5,4	7,3	7,3	1	1	1	1	1	1	1	1	1	0	1	-73,713883	272,882766	240,689707	0
15.01.2021	01:51:10	0	0	3,502713	2,703	77,5872	-0,955	77,844	0	1008,48	5,4	7,4	7,2	1	1	1	1	1	1	1	1	1	0	1	-70,894996	272,771036	242,993987	0
15.01.2021	01:51:11	0	0	3,050732	2,53125	80,532	-0,959	77,843	0	1008,52	5,4	7,3	7,3	1	1	1	1	1	1	1	1	1	0	1	-72,868217	272,716803	240,771209	0
15.01.2021	01:51:12	0	0	5,084583	2,40075	77,9688	-0,963	77,856	0	1008,36	5,4	7,4	7,2	1	1	1	1	1	1	1	1	1	0	1	-73,995772	272,82263	240,130765	0
15.01.2021	01:51:13	0	0	4,745611	2,34225	83,7468	-0,967	77,857	0	1008,44	5,4	7,3	7,2	1	1	1	1	1	1	1	1	1	0	1	-69,978858	272,875764	244,392462	0
15.01.2021	01:51:14	0	0	3,502692	2,35725	77,2164	-0,966	77,872	0	1008,48	5,4	7,3	7,3	1	1	1	1	1	1	1	1	1	0	1	-71,035941	272,842189	243,180684	0
15.01.2021	01:51:15	0	0	4,745611	2,45325	86,6556	-0,959	77,867	0	1008,42	5,4	7,4	7,2	1	1	1	1	1	1	1	1	1	0	1	-72,797745	272,722359	240,867237	0
15.01.2021	01:51:16	0	0	3,163741	2,5965	84,7944	-0,963	77,891	0	1008,44	5,4	7,4	7,2	1	1	1	1	1	1	1	1	1	0	1	-70,260747	272,727916	243,429801	0
15.01.2021	01:51:17	0	0	2,937759	2,739	90,036	-0,965	77,901	0	1008,48	5,3	7,3	7,2	1	1	1	1	1	1	1	1	1	0	1	-71,388302	272,715415	242,244737	0
15.01.2021	01:51:18	0	0	3,389702	2,676	78,2856	-0,965	77,901	0	1008,14	5,4	7,3	7,3	1	1	1	1	1	1	1	1	1	0	1	-72,797745	272,733474	240,918377	0
15.01.2021	01:51:19	0	0	2,485781	2,55825	80,1468	-0,956	77,934	0	1008,46	5,3	7,5	7,3	1	1	1	1	1	1	1	1	1	0	1	-71,529246	272,863167	242,784025	0
15.01.2021	01:51:20	0	0	4,971592	2,41575	73,0404	-0,961	77,943	0	1008,52	5,4	7,5	7,2	1	1	1	1	1	1	1	1	1	0	1	-75,828048	272,842189	238,388577	0
15.01.2021	01:51:21	0	0	4,63262	2,31975	78,6744	-0,958	77,961	0	1008,4	5,4	7,4	7,2	1	1	1	1	1	1	1	1	1	0	1	-70,542636	272,885568	243,873866	0
15.01.2021	01:51:22	0	0	4,858602	2,22225	76,3596	-0,963	77,974	0	1008,46	5,4	7,3	7,2	1	1	1	1	1	1	1	1	1	0	1	-74,418605	272,836599	239,772269	0
15.01.2021	01:51:23	0	0	3,05075	2,223	81,2088	-0,961	77,998	0	1008,52	5,4	7,3	7,2	1	1	1	1	1	1	1	1	1	0	1	-75,123326	272,83101	239,041806	0
15.01.2021	01:51:24	0	0	5,084583	2,316	75,6216	-0,959	78,028	0	1008,24	5,3	7,3	7,2	1	1	1	1	1	1	1	1	1	0	1	-68,992248	272,872964	245,366168	0
15.01.2021	01:51:25	0	0	2,824768	2,35575	81,6696	-0,961	78,039	0	1008,42	5,4	7,3	7,2	1	1	1	1	1	1	1	1	1	0	1	-74,489077	272,83101	239,676056	0
15.01.2021	01:51:26	0	0	4,067666	2,3775	73,4112	-0,962	78,07	0	1008,36	5,4	7,3	7,2	1	1	1	1	1	1	1	1	1	0	1	-71,529246	272,856171	242,751795	0
15.01.2021	01:51:27	0	0	3,502713	2,3025	84,4416	-0,964	78,081	0	1008,42	5,4	7,3	7,2	1	1	1	1	1	1	1	1	1	0	1	-75,052854	272,726526	238,631301	0
15.01.2021	01:51:28	0	0	2,824768	2,214	71,9964	-0,96	78,103	0	1008,48	5,4	7,4	7,2	1	1	1	1	1	1	1	1	1	0	1	-70,260747	272,72097	243,397845	0
15.01.2021	01:51:29	0	0	2,937759	2,205	83,3364	-0,963	78,107	0	1008,38	5,4	7,3	7,2	1	1	1	1	1	1	1	1	1	0	1	-71,599718	272,814254	242,488244	0
15.01.2021	01:51:30	0	0	3,276731	2,42175	84,8016	-0,96	78,153	0	1008,42	5,3	7,4	7,2	1	1	1	1	1	1	1	1	1	0	1	-75,193798	272,872964	239,164618	0
15.01.2021	01:51:31	0	0	2,824768	2,63625	82,35	-0,966	78,188	0	1008,42	5,4	7,4	7,2	1	1	1	1	1	1	1	1	1	0	1	-70,542636	272,748768	243,243862	0
15.01.2021	01:51:32	0	0	2,711778	2,697	83,7252	-0,955	78,228	0	1008,5	5,4	7,4	7,2	1	1	1	1	1	1	1	1	1	0	1	-70,613108	272,714026	243,013543	0
15.01.2021	01:51:33	0	0	5,084583	2,61225	71,2404	-0,959	78,264	0	1008,44	5,4	7,3	7,2	1	1	1	1	1	1	1	1	1	0	1	-71,388302	272,851976	242,873409	0
15.01.2021	01:51:34	0	0	4,971562	2,54475	75,6036	-0,959	78,276	0	1008,52	5,3	7,3	7,3	1	1	1	1	1	1	1	1	1	0	1	-71,529246	272,825423	242,610154	0
15.01.2021	01:51:35	0	0	4,858602	2,397	73,4364	-0,955	78,297	0	1008,46	5,4	7,5	7,2	1	1	1	1	1	1	1	1	1	0	1	-70,613108	272,71125	243,000771	0
15.01.2021	01:51:36	0	0	3,05075	2,328	80,1324	-0,961	78,306	0	1008,44	5,3	7,4	7,2	1	1	1	1	1	1	1	1	1	0	1	-67,300916	272,725137	246,376848	0
15.01.2021	01:51:37	0	0	3,728694	2,39475	81,5868	-0,956	78,357	0	1008,4	5,4	7,4	7,2	1	1	1	1	1	1	1	1	1	0	1	-72,586328	272,817046	241,51449	0
15.01.2021	01:51:38	0	0	4,858602	2,4105	82,3284	-0,963	78,38	0	1008,46	5,4	7,4	7,2	1	1	1	1	1	1	1	1	1	0	1	-72,938689	272,884167	241,471356	0
15.01.2021	01:51:39	0	0	4,971592	2,4525	97,704	-0,959	78,401	0	1008,44	5,4	7,3	7,2	1	1	1	1	1	1	1	1	1	0	1	-73,854827	272,837996	240,342483	0
15.01.2021	01:51:40	0	0	4,067666	2,49675	80,1792	-0,955	78,431	0	1008,52	5,4	7,4	7,2	1	1	1	1	1	1	1	1	1	0	1	-72,30444	272,836599	241,886434	0
15.01.2021	01:51:41	0	0	4,067666	2,56275	96,5844	-0,95	78,45	0	1008,4	5,4	7,3	7,2	1	1	1	1	1	1	1	1	1	0	1	-71,106413	272,850577	243,148855	0
15.01.2021	01:51:42	0	0	4,745582	2,574	90,7668	-0,955	78,449	0	1008,3	5,4	7,4	7,3	1	1	1	1	1	1	1	1	1	0	1	-70,331219	272,719581	243,320984	0
15.01.2021	01:51:43	0	0	3,841685	2,56575	85,536	-0,955	78,48	0	1008,38	5,3	7,5	7,2	1	1	1	1	1	1	1	1	1	0	1	-69,556025	272,765467	244,307323	0
15.01.2021	01:51:44	0	0	2,485796	2,4765	84,438	-0,954	78,454	0	1008,36	5,4	7,3	7,2	1	1	1	1	1	1	1	1	1	0	1	-70,613108	272,877164	243,764665	0
15.01.2021	01:51:45	0	0	3,389722	2,34225	83,7252	-0,949	78,454	0	1008,46	5,4	7,3	7,2	1	1	1	1	1	1	1	1	1	0	1	-77,448908	272,842189	236,767717	0
15.01.2021	01:51:46	0	0	4,745611	2,298	73,7856	-0,958	78,444	0	1008,26	5,4	7,3	7,2	1	1	1	1	1	1	1	1	1	0	1	-71,529246	272,697373	242,020804	0
15.01.2021	01:51:47	0	0	5,084583	2,391	83,7216	-0,954	78,434	0	1008,48	5,4	7,4	7,2	1	1	1	1	1	1	1	1	1	0	1	-74,841438	272,837996	239,355873	0
15.01.2021	01:51:48	0	0	4,293648	2,55675	84,438	-0,951	78,425	0	1008,5	5,4	7,4	7,2	1	1	1	1	1	1	1	1	1	0	1	-70,613108	272,71125	243,000771	0
15.01.2021	01:51:49	0	0	5,084583	2,58525	84,7728	-0,952	78,414	0	1008,44	5,3	7,3	7,2	1	1	1	1	1	1	1	1	1	0	1	-68,428471	272,778	245,492569	0
15.01.2021	01:51:50	0	0	3,05075	2,541	88,1136	-0,949	78,409	0	1008,6	5,4	7,5	7,2	1	1	1	1	1	1	1	1	1	0	1	-72,727273	272,884167	241,682773	0
15.01.2021	01:51:51	0	0	4,519629	2,457	83,7396	-0,954	78,382	0	1008,48	5,4	7,3	7,2	1	1	1	1	1	1	1	1	1	0	1	-73,150106	272,860368	241,150272	0
15.01.2021	01:51:52	0	0	2,711778	2,48475	79,758	-0,947	78,372	0	1008,48	5,3	7,4	7,2	1	1	1	1	1	1	1	1	1	0	1	-77,026075	272,867365	237,306541	0
15.01.2021	01:51:53	0	0	4,745611	2,46975	84,0348	-0,953	78,368	0	1008,44	5,4	7,3	7,2	1	1	1	1	1	1	1	1	1	0	1	-70,190275	272,875764	244,181045	0
15.01.2021	01:51:54	0	0	4,63262	2,47575	81,6912	-0,948	78,334	0	1008,46	5,3	7,3	7,2	1	1	1	1	1	1	1	1	1	0	1	-73,361522	272,791936	240,623673	0
15.01.2021	01:51:55	0	0	3,954676	2,3775	80,5212	-0,947	78,309	0	1008,52	5,4	7,3	7,2	1	1	1	1	1	1	1	1	1	0	1	-71,599718	272,872964	242,758698	0
15.01.2021	01:51:56	0	0	4,519629	2,3625	85,914	-0,949	78,269	0	1008,42	5,3	7,3	7,2	1	1	1	1	1	1	1	1	1	0	1	-73,079634	272,867365	241,252982	0
15.01.2021	01:51:57	0	0	3,163741	2,42625	77,5872	-0,95	78,258	0	1008,38	5,3	7,3	7,2	1	1	1	1	1	1	1	1	1	0	1	-74,418605	272,765467	239,444744	0
15.01.2021	01:51:58	0	0	4,180657	2,56575	85,5396	-0,946	78,255	0	1008,42	5,4	7,4	7,2	1	1	1	1	1	1	1	1	1	0	1	-74,207188	272,872964	240,151228	0
15.01.2021	01:51:59	0	0	3,502713	2,59125	79,0776	-0,946	78,243	0	1008,4	5,4	7,4	7,2	1	1	1	1	1	1	1	1	1	0	1	-75,828048	272,740425	237,920054	0
15.01.2021	01:52:00	0	0	4,63262	2,45475	80,5032	-0,951	78,204	0	1008,4	5,4	7,3	7,2	1	1	1	1	1	1	1	1	1	0	1	-71,599718	272,736254	242,129194	0
15.01.2021	01:52:01	0	0	4,63262	2,45475	80,5032	-0,951	78,204	0	1008,4	5,4	7,3	7,2	1	1	1	1	1	1	1	1	1	0	1	-71,599718	272,736254	242,129194	0
15.01.2021	01:52:02	0	0	2,824768	2,41275	81,2016	-0,946	78,19	0	1008,44	5,4	7,4	7,2	1	1	1	1	1	1	1	1	1	0	1	-72,727273	272,775214	241,180943	0
15.01.2021	01:52:03	0	0	3,050732	2,39475	85,5288	-0,945	78,167	0	1008,5	5,4	7,4	7,3	1	1	1	1	1	1	1	1	1	0	1	-68,921776	272,714026	244,704875	0
15.01.2021	01:52:04	0	0	3,728694	2,38275	83,358	-0,942	78,157	0	1008,32	5,4	7,5	7,2	1	1	1	1	1	1	1	1	1	0	1	-75,89852	272,761291	237,945608	0
15.01.2021	01:52:05	0	0	4,745611	2,29425	78,2748	-0,939	78,149	0	1008,48	5,3	7,3	7,2	1	1	1	1	1	1	1	1	1	0	1	-72,515856	272,71125	241,098022	0
15.01.2021	01:52:06	0	0	4,745582	2,211	75,2292	-0,947	78,128	0	1008,5	5,4	7,4	7,3	1	1	1	1	1	1	1	1	1	0	1	-75,052854	272,808672	239,009403	0
15.01.2021	01:52:07	0	0	3,276731	2,1285	70,2108	-0,947	78,097	0	1008,44	5,3	7,4	7,2	1	1	1	1	1	1	1	1	1	0	1	-76,814658	272,871564	237,537307	0
15.01.2021	01:52:08	0	0	3,05075	2,1315	77,9544	-0,944	78,083	0	1008,48	5,3	7,4	7,2	1	1	1	1	1	1	1	1	1	0	1	-70,613108	272,757116	243,211805	0
15.01.2021	01:52:09	0	0	2,146824	2,12925	79,7472	-0,942	78,081	0	1008,62	5,3	7,3	7,2	1	1	1	1	1	1	1	1	1	0	1	-78,365046	272,878565	236,019181	0
15.01.2021	01:52:10	0	0	2,937759	2,11425	77,5512	-0,943	78,053	0	1008,44	5,4	7,3	7,2	1	1	1	1	1	1	1	1	1	0	1	-72,586328	272,722359	241,078654	0
15.01.2021	01:52:11	0	0	3,841685	1,99725	82,6092	-0,948	78,024	0	1008,52	5,3	7,3	7,2	1	1	1	1	1	1	1	1	1	0	1	-71,388302	272,871564	242,963664	0
15.01.2021	01:52:12	0	0	3,163741	1,96875	80,136	-0,949	77,997	0	1008,54	5,4	7,4	7,2	1	1	1	1	1	1	1	1	1	0	1	-69,978858	272,791936	244,006337	0
15.01.2021	01:52:13	0	0	5,084583	2,0115	91,1628	-0,946	77,973	0	1008,42	5,4	7,5	7,2	1	1	1	1	1	1	1	1	1	0	1	-74,770965	272,689051	238,740814	0
15.01.2021	01:52:14	0	0	4,63262	2,08875	93,3228	-0,946	77,943	0	1008,44	5,4	7,5	7,2	1	1	1	1	1	1	1	1	1	0	1	-71,529246	272,725137	242,148518	0
15.01.2021	01:52:15	0	0	5,536546	2,21475	95,5296	-0,946	77,924	0	1008,44	5,3	7,3	7,2	1	1	1	1	1	1	1	1	1	0	1	-69,274137	272,812859	244,807398	0
15.01.2021	01:52:16	0	0	4,971592	2,2905	83,7252	-0,948	77,882	0	1008,46	5,4	7,5	7,2	1	1	1	1	1	1	1	1	1	0	1	-75,546159	272,889771	238,889714	0
15.01.2021	01:52:17	0	0	3,615704	2,37975	80,514	-0,946	77,866	0	1008,5	5,4	7,4	7,2	1	1	1	1	1	1	1	1	1	0	1	-71,881607	272,805882	242,167801	0
15.01.2021	01:52:18	0	0	3,841685	2,379	78,6672	-0,946	77,849	0	1008,46	5,3	7,5	7,2	1	1	1	1	1	1	1	1	1	0	1	-69,837914	272,870164	244,507601	0
15.01.2021	01:52:19	0	0	4,858602	2,38425	85,5252	-0,946	77,822	0	1008,36	5,4	7,3	7,2	1	1	1	1	1	1	1	1	1	0	1	-73,009161	272,850577	241,246106	0
15.01.2021	01:52:20	0	0	4,858602	2,4315	80,5176	-0,953	77,805	0	1008,48	5,4	7,4	7,2	1	1	1	1	1	1	1	1	1	0	1	-73,29105	272,750159	240,501848	0
15.01.2021	01:52:21	0	0	3,841685	2,4405	73,44	-0,949	77,788	0	1008,48	5,4	7,3	7,2	1	1	1	1	1	1	1	1	1	0	1	-70,965469	272,88837	243,463947	0
15.01.2021	01:52:22	0	0	3,163741	2,4675	81,6048	-0,947	77,767	0	1008,56	5,3	7,3	7,2	1	1	1	1	1	1	1	1	1	0	1	-75,123326	272,769644	238,759248	0
15.01.2021	01:52:23	0	0	4,745611	2,454	80,082	-0,946	77,758	0	1008,54	5,3	7,4	7,2	1	1	1	1	1	1	1	1	1	0	1	-71,740662	272,707086	241,854062	0
15.01.2021	01:52:24	0	0	2,824768	2,7375	80,9136	-0,957	77,757	0	1008,24	5,3	7,3	7,2	1	1	1	1	1	1	1	1	1	0	1	-73,854827	272,833804	240,323175	0
15.01.2021	01:52:25	0	0	4,971592	3,03975	76,806	-0,959	77,76	0	1008,38	5,3	7,5	7,2	1	1	1	1	1	1	1	1	1	0	1	-70,754052	272,882766	243,649538	0
15.01.2021	01:52:26	0	0	3,615704	3,24375	76,8348	-0,956	77,763	0	1008,4	5,3	7,3	7,2	1	1	1	1	1	1	1	1	1	0	1	-73,9253	272,810068	240,143383	0
15.01.2021	01:52:27	0	0	4,858572	3,19125	80,2332	-0,949	77,755	0	1008,54	5,3	7,4	7,3	1	1	1	1	1	1	1	1	1	0	1	-73,502467	272,877164	240,875306	0
15.01.2021	01:52:28	0	0	4,067666	2,96175	77,2056	-0,955	77,749	0	1008,18	5,3	7,3	7,2	1	1	1	1	1	1	1	1	1	0	1	-70,260747	272,791936	243,724449	0
15.01.2021	01:52:29	0	0	2,598787	2,93925	84,7944	-0,954	77,759	0	1008,28	5,4	7,3	7,2	1	1	1	1	1	1	1	1	1	0	1	-67,371388	272,714026	246,255263	0
15.01.2021	01:52:30	0	0	3,954676	2,88225	85,9032	-0,953	77,785	0	1008,42	5,3	7,4	7,2	1	1	1	1	1	1	1	1	1	0	1	-70,260747	272,723748	243,410626	0
15.01.2021	01:52:31	0	0	4,406639	2,8485	89,3988	-0,953	77,791	0	1008,4	5,3	7,3	7,2	1	1	1	1	1	1	1	1	1	0	1	-70,754052	272,740425	242,99405	0
15.01.2021	01:52:32	0	0	3,163741	2,91525	95,5404	-0,956	77,799	0	1008,36	5,3	7,4	7,2	1	1	1	1	1	1	1	1	1	0	1	-68,005638	272,714026	245,621013	0
15.01.2021	01:52:33	0	0	3,728694	2,9265	85,1868	-0,958	77,766	0	1008,5	5,3	7,4	7,2	1	1	1	1	1	1	1	1	1	0	1	-72,30444	272,833804	241,873562	0
15.01.2021	01:52:34	0	0	3,276731	2,85525	85,5108	-0,959	77,749	0	1008,52	5,3	7,4	7,2	1	1	1	1	1	1	1	1	1	0	1	-71,106413	272,840791	243,103773	0
15.01.2021	01:52:35	0	0	4,858602	2,781	89,3448	-0,961	77,73	0	1008,34	5,3	7,4	7,2	1	1	1	1	1	1	1	1	1	0	1	-71,952079	272,697373	241,597971	0
15.01.2021	01:52:36	0	0	3,841685	2,67825	84,438	-0,956	77,706	0	1008,34	5,3	7,4	7,2	1	1	1	1	1	1	1	1	1	0	1	-69,133192	272,881366	245,263942	0
15.01.2021	01:52:37	0	0	3,276731	2,80725	88,11	-0,96	77,7	0	1008,38	5,3	7,4	7,2	1	1	1	1	1	1	1	1	1	0	1	-72,022551	272,800302	242,001165	0
15.01.2021	01:52:38	0	0	3,05075	2,8125	84,4344	-0,958	77,675	0	1008,48	5,4	7,3	7,2	1	1	1	1	1	1	1	1	1	0	1	-69,415081	272,694598	244,12221	0
15.01.2021	01:52:39	0	0	3,163741	2,784	75,6072	-0,956	77,652	0	1008,5	5,3	7,4	7,2	1	1	1	1	1	1	1	1	1	0	1	-72,445384	272,775214	241,462832	0
15.01.2021	01:52:40	0	0	3,954676	2,74425	77,976	-0,961	77,628	0	1008,48	5,3	7,4	7,2	1	1	1	1	1	1	1	1	1	0	1	-70,894996	272,867365	243,437619	0
15.01.2021	01:52:41	0	0	3,389722	2,76225	81,972	-0,963	77,643	0	1008,48	5,3	7,4	7,2	1	1	1	1	1	1	1	1	1	0	1	-71,599718	272,747377	242,180379	0
15.01.2021	01:52:42	0	0	4,745611	2,9145	81,2124	-0,963	77,615	0	1008,38	5,3	7,4	7,2	1	1	1	1	1	1	1	1	1	0	1	-70,049331	272,846383	244,186613	0
15.01.2021	01:52:43	0	0	2,711778	2,919	82,3536	-0,968	77,621	0	1008,42	5,3	7,4	7,2	1	1	1	1	1	1	1	1	1	0	1	-71,952079	272,69876	241,604351	0
15.01.2021	01:52:44	0	0	3,163741	2,67975	86,2704	-0,96	77,613	0	1008,3	5,3	7,4	7,2	1	1	1	1	1	1	1	1	1	0	1	-68,005638	272,780787	245,928229	0
15.01.2021	01:52:45	0	0	4,519629	2,5605	80,1324	-0,963	77,635	0	1008,48	5,3	7,5	7,2	1	1	1	1	1	1	1	1	1	0	1	-70,542636	272,863167	243,770635	0
15.01.2021	01:52:46	0	0	3,841685	2,406	92,2788	-0,969	77,665	0	1008,48	5,3	7,4	7,2	1	1	1	1	1	1	1	1	1	0	1	-70,894996	272,828217	243,257269	0
15.01.2021	01:52:47	0	0	4,745611	2,373	87,3756	-0,965	77,675	0	1008,42	5,3	7,4	7,2	1	1	1	1	1	1	1	1	1	0	1	-71,811135	272,690438	241,707022	0
15.01.2021	01:52:48	0	0	4,293648	2,295	92,2788	-0,966	77,708	0	1008,44	5,3	7,3	7,2	1	1	1	1	1	1	1	1	1	0	1	-69,837914	272,844985	244,391589	0
15.01.2021	01:52:49	0	0	3,728694	2,22825	88,1064	-0,965	77,718	0	1008,4	5,3	7,4	7,2	1	1	1	1	1	1	1	1	1	0	1	-67,723749	272,75155	246,075551	0
15.01.2021	01:52:50	0	0	2,598787	2,181	87,3612	-0,964	77,72	0	1008,5	5,3	7,4	7,2	1	1	1	1	1	1	1	1	1	0	1	-74,841438	272,689051	238,670342	0
15.01.2021	01:52:51	0	0	3,05075	2,27775	90,3924	-0,967	77,725	0	1008,42	5,3	7,4	7,2	1	1	1	1	1	1	1	1	1	0	1	-70,542636	272,789148	243,429724	0
15.01.2021	01:52:52	0	0	3,728694	2,31825	86,7564	-0,97	77,733	0	1008,44	5,3	7,4	7,2	1	1	1	1	1	1	1	1	1	0	1	-74,700493	272,858969	239,593438	0
15.01.2021	01:52:53	0	0	2,824768	2,3685	84,42	-0,968	77,732	0	1008,52	5,3	7,4	7,2	1	1	1	1	1	1	1	1	1	0	1	-73,572939	272,71125	240,04094	0
15.01.2021	01:52:54	0	0	2,485796	2,514	89,3376	-0,972	77,71	0	1008,44	5,3	7,4	7,2	1	1	1	1	1	1	1	1	1	0	1	-70,824524	272,812859	243,257011	0
15.01.2021	01:52:55	0	0	3,954676	2,4465	82,3644	-0,97	77,695	0	1008,52	5,3	7,4	7,2	1	1	1	1	1	1	1	1	1	0	1	-74,418605	272,691825	239,105929	0
15.01.2021	01:52:56	0	0	3,615704	2,34375	86,2848	-0,968	77,699	0	1008,34	5,3	7,4	7,2	1	1	1	1	1	1	1	1	1	0	1	-69,203665	272,758507	244,627653	0
15.01.2021	01:52:57	0	0	2,598787	2,298	84,816	-0,972	77,707	0	1008,4	5,3	7,4	7,2	1	1	1	1	1	1	1	1	1	0	1	-72,656801	272,842189	241,559824	0
15.01.2021	01:52:58	0	0	2,485796	2,36325	85,1832	-0,972	77,7	0	1008,34	5,3	7,3	7,2	1	1	1	1	1	1	1	1	1	0	1	-70,894996	272,694598	242,642294	0
15.01.2021	01:52:59	0	0	3,615704	2,42175	76,3704	-0,974	77,691	0	1008,42	5,3	7,4	7,2	1	1	1	1	1	1	1	1	1	0	1	-74,559549	272,745987	239,214148	0
15.01.2021	01:53:00	0	0	3,502713	2,49975	87,7464	-0,977	77,677	0	1008,46	5,3	7,4	7,2	1	1	1	1	1	1	1	1	1	0	1	-71,811135	272,861767	242,495689	0
15.01.2021	01:53:01	0	0	4,745611	2,46375	82,3284	-0,977	77,654	0	1008,4	5,3	7,4	7,2	1	1	1	1	1	1	1	1	1	0	1	-71,458774	272,759899	242,378949	0
15.01.2021	01:53:02	0	0	4,745611	2,46375	82,3284	-0,977	77,654	0	1008,4	5,3	7,4	7,2	1	1	1	1	1	1	1	1	1	0	1	-71,458774	272,759899	242,378949	0
15.01.2021	01:53:03	0	0	3,163722	2,44875	93,3228	-0,978	77,645	0	1008,48	5,3	7,4	7,3	1	1	1	1	1	1	1	1	1	0	1	-74,770965	272,85757	239,516521	0
15.01.2021	01:53:04	0	0	4,519629	2,439	82,9728	-0,979	77,636	0	1008,4	5,3	7,4	7,2	1	1	1	1	1	1	1	1	1	0	1	-70,260747	272,810068	243,807935	0
15.01.2021	01:53:05	0	0	4,63262	2,355	83,3652	-0,983	77,614	0	1008,46	5,3	7,4	7,2	1	1	1	1	1	1	1	1	1	0	1	-72,515856	272,807277	241,539976	0
15.01.2021	01:53:06	0	0	4,406639	2,2245	75,6072	-0,985	77,597	0	1008,6	5,3	7,4	7,2	1	1	1	1	1	1	1	1	1	0	1	-72,163495	272,668263	241,252696	0
15.01.2021	01:53:07	0	0	4,406639	2,283	87,3612	-0,979	77,59	0	1008,46	5,3	7,4	7,2	1	1	1	1	1	1	1	1	1	0	1	-67,019027	272,798908	246,998267	0
15.01.2021	01:53:08	0	0	4,745611	2,2425	74,1636	-0,978	77,568	0	1008,44	5,3	7,4	7,2	1	1	1	1	1	1	1	1	1	0	1	-71,106413	272,657186	242,258849	0
15.01.2021	01:53:09	0	0	4,745611	2,28075	90,7272	-0,979	77,57	0	1008,56	5,3	7,4	7,2	1	1	1	1	1	1	1	1	1	0	1	-70,894996	272,69876	242,661434	0
15.01.2021	01:53:10	0	0	4,632592	2,2095	71,9892	-0,983	77,574	0	1008,38	5,3	7,3	7,3	1	1	1	1	1	1	1	1	1	0	1	-74,207188	272,811463	239,86792	0
15.01.2021	01:53:11	0	0	4,63262	2,061	81,7056	-0,985	77,569	0	1008,58	5,3	7,4	7,2	1	1	1	1	1	1	1	1	1	0	1	-74,27766	272,836599	239,913214	0
15.01.2021	01:53:12	0	0	4,63262	2,013	88,5672	-0,987	77,574	0	1008,48	5,3	7,4	7,2	1	1	1	1	1	1	1	1	1	0	1	-74,982382	272,739034	238,759323	0
15.01.2021	01:53:13	0	0	4,519629	2,03625	79,7796	-0,988	77,584	0	1008,36	5,3	7,4	7,2	1	1	1	1	1	1	1	1	1	0	1	-70,119803	272,665494	243,283653	0
15.01.2021	01:53:14	0	0	2,937759	2,1015	96,966	-0,992	77,596	0	1008,5	5,3	7,4	7,2	1	1	1	1	1	1	1	1	1	0	1	-69,978858	272,694598	243,558432	0
15.01.2021	01:53:15	0	0	4,180657	2,085	76,8456	-0,986	77,603	0	1008,52	5,3	7,4	7,2	1	1	1	1	1	1	1	1	1	0	1	-72,515856	272,833804	241,662146	0
15.01.2021	01:53:16	0	0	3,163741	2,2035	90,7632	-0,988	77,623	0	1008,5	5,3	7,4	7,2	1	1	1	1	1	1	1	1	1	0	1	-68,639887	272,719581	245,012316	0
15.01.2021	01:53:17	0	0	2,937759	2,346	79,3944	-0,992	77,613	0	1008,54	5,3	7,4	7,2	1	1	1	1	1	1	1	1	1	0	1	-70,894996	272,719581	242,757207	0
15.01.2021	01:53:18	0	0	3,163741	2,46675	83,3544	-0,99	77,631	0	1008,36	5,3	7,4	7,2	1	1	1	1	1	1	1	1	1	0	1	-72,938689	272,832407	241,232878	0
15.01.2021	01:53:19	0	0	3,163722	2,30625	87,0048	-0,99	77,64	0	1008,42	5,3	7,4	7,3	1	1	1	1	1	1	1	1	1	0	1	-73,009161	272,716803	240,630265	0
15.01.2021	01:53:20	0	0	3,728694	2,1045	79,4268	-0,995	77,668	0	1008,5	5,3	7,4	7,2	1	1	1	1	1	1	1	1	1	0	1	-73,150106	272,821234	240,970001	0
15.01.2021	01:53:21	0	0	2,937759	1,96125	91,8828	-0,995	77,676	0	1008,38	5,3	7,4	7,2	1	1	1	1	1	1	1	1	1	0	1	-69,69697	272,697373	243,85308	0
15.01.2021	01:53:22	0	0	2,485796	1,81425	91,89	-0,991	77,696	0	1008,52	5,3	7,4	7,2	1	1	1	1	1	1	1	1	1	0	1	-70,401691	272,65857	242,969935	0
15.01.2021	01:53:23	0	0	3,389722	1,70175	71,2152	-0,998	77,706	0	1008,54	5,3	7,4	7,2	1	1	1	1	1	1	1	1	1	0	1	-70,049331	272,665494	243,354125	0
15.01.2021	01:53:24	0	0	4,745582	1,674	77,958	-0,997	77,716	0	1008,42	5,3	7,4	7,3	1	1	1	1	1	1	1	1	1	0	1	-70,260747	272,700147	243,302064	0
15.01.2021	01:53:25	0	0	2,824751	1,71525	75,6	-0,996	77,723	0	1008,48	5,3	7,4	7,3	1	1	1	1	1	1	1	1	1	0	1	-72,374912	272,805882	241,674496	0
15.01.2021	01:53:26	0	0	4,406639	1,6725	72,3024	-0,998	77,741	0	1008,44	5,3	7,4	7,2	1	1	1	1	1	1	1	1	1	0	1	-68,217054	272,771036	245,671929	0
15.01.2021	01:53:27	0	0	5,084553	1,6245	73,4328	-0,996	77,748	0	1008,52	5,4	7,4	7,3	1	1	1	1	1	1	1	1	1	0	1	-71,740662	272,805882	242,308745	0
15.01.2021	01:53:28	0	0	4,519629	1,563	70,8444	-1,001	77,758	0	1008,44	5,3	7,4	7,2	1	1	1	1	1	1	1	1	1	0	1	-68,780832	272,669649	244,641728	0
15.01.2021	01:53:29	0	0	2,598771	1,56675	74,1744	-1	77,761	0	1008,42	5,3	7,4	7,3	1	1	1	1	1	1	1	1	1	0	1	-75,405215	272,747377	238,374882	0
15.01.2021	01:53:30	0	0	2,824751	1,67325	86,3208	-1,002	77,775	0	1008,46	5,3	7,4	7,3	1	1	1	1	1	1	1	1	1	0	1	-72,656801	272,628138	240,574942	0
15.01.2021	01:53:31	0	0	3,389702	1,809	88,1028	-1,003	77,769	0	1008,4	5,3	7,4	7,3	1	1	1	1	1	1	1	1	1	0	1	-67,653277	272,739034	246,088428	0
15.01.2021	01:53:32	0	0	3,276712	1,8795	96,228	-1,002	77,769	0	1008,44	5,2	7,4	7,3	1	1	1	1	1	1	1	1	1	0	1	-74,559549	272,628138	238,672194	0
15.01.2021	01:53:33	0	0	5,084583	1,88775	91,8864	-1,009	77,759	0	1008,2	5,3	7,4	7,2	1	1	1	1	1	1	1	1	1	0	1	-74,418605	272,755724	239,399904	0
15.01.2021	01:53:34	0	0	2,824751	1,8435	81,3024	-1,004	77,758	0	1008,46	5,3	7,4	7,3	1	1	1	1	1	1	1	1	1	0	1	-72,374912	272,798908	241,642383	0
15.01.2021	01:53:35	0	0	5,423555	1,81725	98,0784	-1,004	77,773	0	1008,46	5,3	7,4	7,2	1	1	1	1	1	1	1	1	1	0	1	-69,837914	272,78218	244,102367	0
15.01.2021	01:53:36	0	0	3,050732	1,77075	90,1476	-1,006	77,779	0	1008,48	5,3	7,4	7,3	1	1	1	1	1	1	1	1	1	0	1	-71,67019	272,67519	241,777849	0
15.01.2021	01:53:37	0	0	3,163722	1,76625	77,976	-1,007	77,768	0	1008,4	5,4	7,4	7,3	1	1	1	1	1	1	1	1	1	0	1	-72,868217	272,630902	240,376231	0
15.01.2021	01:53:38	0	0	2,711761	1,68225	68,058	-1,006	77,757	0	1008,44	5,4	7,4	7,3	1	1	1	1	1	1	1	1	1	0	1	-67,935166	272,730695	245,768168	0
15.01.2021	01:53:39	0	0	2,485781	1,6245	78,2928	-1,009	77,767	0	1008,32	5,2	7,4	7,3	1	1	1	1	1	1	1	1	1	0	1	-73,361522	272,791936	240,623673	0
15.01.2021	01:53:40	0	0	3,841662	1,6425	77,22	-1,013	77,79	0	1008,48	5,3	7,4	7,3	1	1	1	1	1	1	1	1	1	0	1	-70,894996	272,683506	242,59128	0
15.01.2021	01:53:41	0	0	3,841662	1,70025	74,538	-1,005	77,781	0	1008,3	5,4	7,4	7,3	1	1	1	1	1	1	1	1	1	0	1	-74,841438	272,796119	239,163016	0
15.01.2021	01:53:42	0	0	5,197543	1,794	78,66	-1,008	77,78	0	1008,38	5,3	7,4	7,3	1	1	1	1	1	1	1	1	1	0	1	-72,445384	272,758507	241,385933	0
15.01.2021	01:53:43	0	0	4,067642	1,86	90,0324	-1,014	77,795	0	1008,4	5,3	7,4	7,3	1	1	1	1	1	1	1	1	1	0	1	-73,361522	272,633667	239,895634	0
15.01.2021	01:53:44	0	0	4,971562	1,83375	93,6972	-1,013	77,804	0	1008,5	5,3	7,4	7,3	1	1	1	1	1	1	1	1	1	0	1	-66,032417	272,755724	247,786092	0
15.01.2021	01:53:45	0	0	4,519602	1,83975	81,6084	-1,014	77,827	0	1008,38	5,4	7,4	7,3	1	1	1	1	1	1	1	1	1	0	1	-73,784355	272,78218	240,155926	0
15.01.2021	01:53:46	0	0	4,971562	1,8705	89,712	-1,017	77,863	0	1008,42	5,4	7,4	7,3	1	1	1	1	1	1	1	1	1	0	1	-73,784355	272,606035	239,345824	0
15.01.2021	01:53:47	0	0	3,276712	1,8825	82,9692	-1,013	77,879	0	1008,44	5,4	7,4	7,3	1	1	1	1	1	1	1	1	1	0	1	-70,754052	272,654418	242,598483	0
15.01.2021	01:53:48	0	0	2,824751	1,875	60,552	-1,013	77,897	0	1008,4	5,4	7,4	7,3	1	1	1	1	1	1	1	1	1	0	1	-68,357999	272,617083	244,822945	0
15.01.2021	01:53:49	0	0	4,293622	1,88475	64,26	-1,013	77,909	0	1008,46	5,3	7,4	7,3	1	1	1	1	1	1	1	1	1	0	1	-72,727273	272,741815	241,027227	0
15.01.2021	01:53:50	0	0	5,084553	1,94175	74,5668	-1,019	77,903	0	1008,42	5,3	7,4	7,3	1	1	1	1	1	1	1	1	1	0	1	-69,978858	272,729305	243,718082	0
15.01.2021	01:53:51	0	0	4,858602	1,9395	76,8492	-1,018	77,918	0	1008,42	5,2	7,4	7,2	1	1	1	1	1	1	1	1	1	0	1	-70,119803	272,779394	243,80765	0
15.01.2021	01:53:52	0	0	3,050732	1,83975	77,22	-1,015	77,932	0	1008,46	5,3	7,4	7,3	1	1	1	1	1	1	1	1	1	0	1	-68,780832	272,690438	244,737325	0
15.01.2021	01:53:53	0	0	3,954652	1,7835	83,7576	-1,015	77,928	0	1008,34	5,3	7,4	7,3	1	1	1	1	1	1	1	1	1	0	1	-70,119803	272,603274	242,997691	0
15.01.2021	01:53:54	0	0	4,067642	1,84425	82,6128	-1,015	77,945	0	1008,44	5,3	7,4	7,3	1	1	1	1	1	1	1	1	1	0	1	-68,498943	272,672419	244,936356	0
15.01.2021	01:53:55	0	0	4,293622	1,89	71,2224	-1,017	77,955	0	1008,38	5,3	7,4	7,3	1	1	1	1	1	1	1	1	1	0	1	-71,176885	272,614321	241,991364	0
15.01.2021	01:53:56	0	0	3,389702	1,908	76,3596	-1,022	77,931	0	1008,4	5,4	7,4	7,3	1	1	1	1	1	1	1	1	1	0	1	-71,247357	272,608797	241,895509	0
15.01.2021	01:53:57	0	0	4,519602	1,947	75,978	-1,024	77,946	0	1008,48	5,3	7,4	7,3	1	1	1	1	1	1	1	1	1	0	1	-72,515856	272,70431	241,066101	0
15.01.2021	01:53:58	0	0	3,276712	1,99425	79,0416	-1,017	77,948	0	1008,52	5,3	7,4	7,3	1	1	1	1	1	1	1	1	1	0	1	-70,119803	272,768251	243,756362	0
15.01.2021	01:53:59	0	0	5,310533	2,09175	75,2328	-1,021	77,954	0	1008,5	5,3	7,4	7,3	1	1	1	1	1	1	1	1	1	0	1	-68,780832	272,744596	244,986466	0
15.01.2021	01:54:00	0	0	3,502692	2,05425	64,2528	-1,021	77,972	0	1008,5	5,3	7,4	7,3	1	1	1	1	1	1	1	1	1	0	1	-74,630021	272,621228	238,569968	0
15.01.2021	01:54:01	0	0	3,502692	2,05425	64,2528	-1,021	77,972	0	1008,5	5,3	7,4	7,3	1	1	1	1	1	1	1	1	1	0	1	-74,630021	272,621228	238,569968	0
15.01.2021	01:54:02	0	0	3,954652	1,971	67,032	-1,027	77,983	0	1008,52	5,3	7,4	7,3	1	1	1	1	1	1	1	1	1	0	1	-69,485553	272,644731	243,822456	0
15.01.2021	01:54:03	0	0	3,615682	1,91925	80,5284	-1,023	77,986	0	1008,36	5,3	7,4	7,3	1	1	1	1	1	1	1	1	1	0	1	-68,569415	272,593614	244,503696	0
15.01.2021	01:54:04	0	0	4,067642	1,8375	83,3544	-1,032	77,984	0	1008,26	5,3	7,4	7,3	1	1	1	1	1	1	1	1	1	0	1	-68,639887	272,666878	244,769936	0
15.01.2021	01:54:05	0	0	2,824751	1,8105	90,7992	-1,025	77,994	0	1008,5	5,3	7,4	7,3	1	1	1	1	1	1	1	1	1	0	1	-70,119803	272,593614	242,953309	0
15.01.2021	01:54:06	0	0	3,954652	1,88475	77,2164	-1,03	77,99	0	1008,36	5,3	7,4	7,3	1	1	1	1	1	1	1	1	1	0	1	-67,159972	272,623992	246,052717	0
15.01.2021	01:54:07	0	0	3,276731	1,95225	76,8204	-1,028	77,983	0	1008,34	5,3	7,4	7,2	1	1	1	1	1	1	1	1	1	0	1	-73,009161	272,745987	240,764535	0
15.01.2021	01:54:08	0	0	4,293622	1,98975	80,4888	-1,032	78,001	0	1008,38	5,3	7,4	7,3	1	1	1	1	1	1	1	1	1	0	1	-71,458774	272,732084	242,250954	0
15.01.2021	01:54:09	0	0	4,858602	2,01225	78,2964	-1,029	77,986	0	1008,32	5,3	7,4	7,2	1	1	1	1	1	1	1	1	1	0	1	-71,811135	272,71125	241,802744	0
15.01.2021	01:54:10	0	0	3,502713	1,9455	81,9792	-1,029	78,01	0	1008,66	5,3	7,4	7,2	1	1	1	1	1	1	1	1	1	0	1	-73,502467	272,748768	240,284031	0
15.01.2021	01:54:11	0	0	4,745611	2,0325	71,9748	-1,031	78,012	0	1008,48	5,3	7,3	7,2	1	1	1	1	1	1	1	1	1	0	1	-74,559549	272,701535	239,009643	0
15.01.2021	01:54:12	0	0	4,745611	2,022	76,8456	-1,031	78,005	0	1008,4	5,3	7,4	7,2	1	1	1	1	1	1	1	1	1	0	1	-71,529246	272,762683	242,321288	0
15.01.2021	01:54:13	0	0	3,728672	1,94475	79,4016	-1,034	77,983	0	1008,38	5,3	7,3	7,3	1	1	1	1	1	1	1	1	1	0	1	-73,079634	272,707086	240,515091	0
15.01.2021	01:54:14	0	0	4,63262	1,8585	81,9828	-1,031	77,998	0	1008,46	5,3	7,4	7,2	1	1	1	1	1	1	1	1	1	0	1	-71,035941	272,695986	242,507729	0
15.01.2021	01:54:15	0	0	3,05075	1,737	88,578	-1,035	77,989	0	1008,38	5,3	7,4	7,2	1	1	1	1	1	1	1	1	1	0	1	-72,093023	272,570174	240,872416	0
15.01.2021	01:54:16	0	0	5,084553	1,614	84,4236	-1,036	77,99	0	1008,4	5,3	7,3	7,3	1	1	1	1	1	1	1	1	1	0	1	-72,093023	272,695986	241,450647	0
15.01.2021	01:54:17	0	0	3,615704	1,53375	85,5468	-1,029	77,987	0	1008,3	5,3	7,4	7,2	1	1	1	1	1	1	1	1	1	0	1	-72,586328	272,745987	241,187368	0
15.01.2021	01:54:18	0	0	3,841685	1,50225	85,5432	-1,033	77,989	0	1008,5	5,3	7,4	7,2	1	1	1	1	1	1	1	1	1	0	1	-75,405215	272,712638	238,21505	0
15.01.2021	01:54:19	0	0	4,745582	1,5195	82,9836	-1,034	77,995	0	1008,44	5,3	7,3	7,3	1	1	1	1	1	1	1	1	1	0	1	-68,780832	272,581201	244,235257	0
15.01.2021	01:54:20	0	0	5,197574	1,497	80,532	-1,033	78,007	0	1008,42	5,3	7,3	7,2	1	1	1	1	1	1	1	1	1	0	1	-67,582805	272,585338	245,452286	0
15.01.2021	01:54:21	0	0	3,05075	1,488	69,8616	-1,04	78,004	0	1008,42	5,3	7,4	7,2	1	1	1	1	1	1	1	1	1	0	1	-76,321353	272,689051	237,190426	0
15.01.2021	01:54:22	0	0	4,519629	1,4895	64,6272	-1,037	78,013	0	1008,36	5,3	7,4	7,2	1	1	1	1	1	1	1	1	1	0	1	-71,881607	272,567418	241,071176	0
15.01.2021	01:54:23	0	0	3,163741	1,554	64,5984	-1,041	78,012	0	1008,38	5,3	7,4	7,2	1	1	1	1	1	1	1	1	1	0	1	-68,287526	272,607416	244,848996	0
15.01.2021	01:54:24	0	0	4,63262	1,53675	83,3544	-1,037	78,021	0	1008,46	5,3	7,4	7,2	1	1	1	1	1	1	1	1	1	0	1	-70,894996	272,723748	242,776376	0
15.01.2021	01:54:25	0	0	3,841685	1,46025	82,98	-1,037	78,025	0	1008,38	5,3	7,3	7,2	1	1	1	1	1	1	1	1	1	0	1	-70,894996	272,643348	242,406654	0
15.01.2021	01:54:26	0	0	3,954676	1,38525	73,4472	-1,043	78,024	0	1008,64	5,3	7,3	7,2	1	1	1	1	1	1	1	1	1	0	1	-65,891473	272,56604	247,054982	0
15.01.2021	01:54:27	0	0	5,197574	1,404	75,96	-1,047	78,017	0	1008,38	5,3	7,3	7,2	1	1	1	1	1	1	1	1	1	0	1	-73,713883	272,680733	239,759646	0
15.01.2021	01:54:28	0	0	4,745611	1,422	88,5852	-1,044	78,035	0	1008,5	5,3	7,4	7,2	1	1	1	1	1	1	1	1	1	0	1	-72,445384	272,571552	240,526385	0
15.01.2021	01:54:29	0	0	4,745611	1,491	87,7248	-1,046	78,04	0	1008,34	5,3	7,3	7,2	1	1	1	1	1	1	1	1	1	0	1	-73,220578	272,716803	240,418848	0
15.01.2021	01:54:30	0	0	3,615704	1,54425	89,7228	-1,046	78,038	0	1008,48	5,3	7,3	7,2	1	1	1	1	1	1	1	1	1	0	1	-67,230444	272,662724	246,160278	0
15.01.2021	01:54:31	0	0	4,745611	1,5165	75,6396	-1,043	78,057	0	1008,46	5,3	7,4	7,2	1	1	1	1	1	1	1	1	1	0	1	-70,965469	272,726526	242,718687	0
15.01.2021	01:54:32	0	0	2,937759	1,54725	79,0488	-1,044	78,057	0	1008,46	5,3	7,3	7,2	1	1	1	1	1	1	1	1	1	0	1	-71,247357	272,578443	241,756066	0
15.01.2021	01:54:33	0	0	4,293648	1,6395	52,5096	-1,05	78,061	0	1008,46	5,3	7,3	7,2	1	1	1	1	1	1	1	1	1	0	1	-72,727273	272,549515	240,143295	0
15.01.2021	01:54:34	0	0	3,615704	1,71075	80,118	-1,044	78,067	0	1008,5	5,3	7,4	7,2	1	1	1	1	1	1	1	1	1	0	1	-68,217054	272,621228	244,982935	0
15.01.2021	01:54:35	0	0	4,971592	1,599	58,482	-1,053	78,066	0	1008,4	5,3	7,3	7,2	1	1	1	1	1	1	1	1	1	0	1	-67,159972	272,702922	246,415603	0
15.01.2021	01:54:36	0	0	3,389722	1,65525	60,552	-1,052	78,067	0	1008,48	5,3	7,3	7,2	1	1	1	1	1	1	1	1	1	0	1	-70,401691	272,708474	243,199417	0
15.01.2021	01:54:37	0	0	2,824768	1,72875	79,7616	-1,049	78,08	0	1008,46	5,2	7,3	7,2	1	1	1	1	1	1	1	1	1	0	1	-71,317829	272,539881	241,508507	0
15.01.2021	01:54:38	0	0	4,519629	1,737	73,7748	-1,051	78,083	0	1008,56	5,3	7,3	7,2	1	1	1	1	1	1	1	1	1	0	1	-70,049331	272,578443	242,954093	0
15.01.2021	01:54:39	0	0	4,745611	1,78275	82,3608	-1,047	78,077	0	1008,44	5,2	7,3	7,2	1	1	1	1	1	1	1	1	1	0	1	-71,458774	272,654418	241,893761	0
15.01.2021	01:54:40	0	0	3,954676	1,94775	79,4124	-1,048	78,081	0	1008,32	5,3	7,3	7,2	1	1	1	1	1	1	1	1	1	0	1	-72,515856	272,705698	241,072484	0
15.01.2021	01:54:41	0	0	4,63262	2,13075	70,2252	-1,053	78,073	0	1008,52	5,3	7,3	7,2	1	1	1	1	1	1	1	1	1	0	1	-73,079634	272,644731	240,228376	0
15.01.2021	01:54:42	0	0	4,858602	2,19375	81,9504	-1,057	78,085	0	1008,36	5,3	7,3	7,2	1	1	1	1	1	1	1	1	1	0	1	-72,938689	272,719581	240,713514	0
15.01.2021	01:54:43	0	0	5,084583	2,2035	82,9908	-1,053	78,057	0	1008,54	5,3	7,3	7,2	1	1	1	1	1	1	1	1	1	0	1	-71,599718	272,615702	241,574878	0
15.01.2021	01:54:44	0	0	4,971592	2,14725	64,6308	-1,057	78,083	0	1008,46	5,3	7,3	7,2	1	1	1	1	1	1	1	1	1	0	1	-73,9253	272,707086	239,669425	0
15.01.2021	01:54:45	0	0	2,824768	2,1765	79,0344	-1,041	78,084	0	1008,6	5,2	7,3	7,2	1	1	1	1	1	1	1	1	1	0	1	-71,317829	272,639199	241,964749	0
15.01.2021	01:54:46	0	0	4,858602	2,0895	68,7708	-1,058	78,057	0	1008,34	5,2	7,3	7,2	1	1	1	1	1	1	1	1	1	0	1	-68,005638	272,538506	244,814382	0
15.01.2021	01:54:47	0	0	3,05075	2,0145	88,5636	-1,056	78,054	0	1008,46	5,3	7,3	7,2	1	1	1	1	1	1	1	1	1	0	1	-70,613108	272,578443	242,390315	0
15.01.2021	01:54:48	0	0	3,954676	1,9725	86,994	-1,058	78,061	0	1008,48	5,2	7,3	7,2	1	1	1	1	1	1	1	1	1	0	1	-73,29105	272,676576	240,163361	0
15.01.2021	01:54:49	0	0	3,05075	1,85175	77,9796	-1,058	78,052	0	1008,64	5,2	7,3	7,2	1	1	1	1	1	1	1	1	1	0	1	-72,727273	272,673805	240,714396	0
15.01.2021	01:54:50	0	0	2,485796	1,812	83,736	-1,063	78,046	0	1008,44	5,3	7,3	7,2	1	1	1	1	1	1	1	1	1	0	1	-70,965469	272,677962	242,495314	0
15.01.2021	01:54:51	0	0	4,067666	1,8435	89,676	-1,064	78,036	0	1008,42	5,3	7,3	7,2	1	1	1	1	1	1	1	1	1	0	1	-71,388302	272,657186	241,97696	0
15.01.2021	01:54:52	0	0	3,502713	1,94175	85,5072	-1,06	78,027	0	1008,46	5,3	7,3	7,2	1	1	1	1	1	1	1	1	1	0	1	-72,093023	272,526128	240,670173	0
15.01.2021	01:54:53	0	0	3,502713	2,05425	88,9776	-1,063	78,012	0	1008,46	5,3	7,3	7,2	1	1	1	1	1	1	1	1	1	0	1	-75,546159	272,650266	237,78729	0
15.01.2021	01:54:54	0	0	4,745611	2,12325	83,3652	-1,06	78	0	1008,54	5,3	7,3	7,2	1	1	1	1	1	1	1	1	1	0	1	-72,938689	272,520629	239,799266	0
15.01.2021	01:54:55	0	0	5,197574	2,13	77,5872	-1,064	77,986	0	1008,48	5,2	7,3	7,2	1	1	1	1	1	1	1	1	1	0	1	-70,965469	272,513758	241,740948	0
15.01.2021	01:54:56	0	0	3,05075	2,244	79,7616	-1,063	77,957	0	1008,54	5,2	7,3	7,2	1	1	1	1	1	1	1	1	1	0	1	-74,207188	272,588096	238,840574	0
15.01.2021	01:54:57	0	0	3,728694	2,42325	81,5796	-1,068	77,983	0	1008,38	5,2	7,3	7,2	1	1	1	1	1	1	1	1	1	0	1	-66,384778	272,508263	246,296417	0
15.01.2021	01:54:58	0	0	2,372805	2,52225	68,3964	-1,069	77,984	0	1008,52	5,2	7,3	7,2	1	1	1	1	1	1	1	1	1	0	1	-70,331219	272,581201	242,68487	0
15.01.2021	01:54:59	0	0	2,485796	2,60475	77,9724	-1,071	77,989	0	1008,28	5,2	7,3	7,2	1	1	1	1	1	1	1	1	1	0	1	-70,965469	272,684892	242,527183	0
15.01.2021	01:55:00	0	0	3,276731	2,60475	77,1876	-1,069	77,985	0	1008,52	5,2	7,3	7,2	1	1	1	1	1	1	1	1	1	0	1	-72,163495	272,583959	240,865261	0
15.01.2021	01:55:01	0	0	3,276731	2,60475	77,1876	-1,069	77,985	0	1008,52	5,2	7,3	7,2	1	1	1	1	1	1	1	1	1	0	1	-72,163495	272,583959	240,865261	0
15.01.2021	01:55:02	0	0	2,824768	2,6235	67,6908	-1,071	78,005	0	1008,38	5,2	7,3	7,2	1	1	1	1	1	1	1	1	1	0	1	-69,485553	272,489043	243,107437	0
15.01.2021	01:55:03	0	0	4,067666	2,691	63,864	-1,075	78,027	0	1008,5	5,2	7,3	7,2	1	1	1	1	1	1	1	1	1	0	1	-71,740662	272,56604	241,205793	0
15.01.2021	01:55:04	0	0	4,858602	2,619	74,934	-1,074	78,026	0	1008,42	5,2	7,3	7,2	1	1	1	1	1	1	1	1	1	0	1	-71,247357	272,497278	241,383422	0
15.01.2021	01:55:05	0	0	3,954676	2,49225	66,546	-1,076	78,049	0	1008,52	5,2	7,3	7,2	1	1	1	1	1	1	1	1	1	0	1	-72,163495	272,531628	240,62495	0
15.01.2021	01:55:06	0	0	4,519629	2,38125	84,0528	-1,072	78,072	0	1008,28	5,2	7,3	7,2	1	1	1	1	1	1	1	1	1	0	1	-73,854827	272,662724	239,535895	0
15.01.2021	01:55:07	0	0	4,519629	2,33925	84,438	-1,076	78,067	0	1008,5	5,2	7,3	7,2	1	1	1	1	1	1	1	1	1	0	1	-71,740662	272,648882	241,586426	0
15.01.2021	01:55:08	0	0	3,389722	2,3505	82,9728	-1,073	78,069	0	1008,46	5,2	7,3	7,2	1	1	1	1	1	1	1	1	1	0	1	-73,572939	272,672419	239,86236	0
15.01.2021	01:55:09	0	0	4,858602	2,4555	88,5816	-1,079	78,064	0	1008,44	5,2	7,3	7,2	1	1	1	1	1	1	1	1	1	0	1	-73,150106	272,637816	240,126116	0
15.01.2021	01:55:10	0	0	3,163741	2,43975	79,7688	-1,077	78,107	0	1008,56	5,2	7,3	7,2	1	1	1	1	1	1	1	1	1	0	1	-72,868217	272,526128	239,894979	0
15.01.2021	01:55:11	0	0	3,276731	2,38425	87,732	-1,081	78,11	0	1008,46	5,2	7,3	7,2	1	1	1	1	1	1	1	1	1	0	1	-69,344609	272,491788	243,260976	0
15.01.2021	01:55:12	0	0	2,598787	2,304	93,8088	-1,087	78,13	0	1008,48	5,2	7,3	7,2	1	1	1	1	1	1	1	1	1	0	1	-70,542636	272,548138	242,321612	0
15.01.2021	01:55:13	0	0	3,163741	2,223	91,152	-1,08	78,143	0	1008,5	5,2	7,3	7,2	1	1	1	1	1	1	1	1	1	0	1	-72,445384	272,533003	240,349375	0
15.01.2021	01:55:14	0	0	2,824768	2,103	91,1448	-1,081	78,139	0	1008,5	5,2	7,3	7,2	1	1	1	1	1	1	1	1	1	0	1	-70,260747	272,621228	242,939242	0
15.01.2021	01:55:15	0	0	3,163741	2,043	79,4376	-1,083	78,153	0	1008,6	5,2	7,4	7,2	1	1	1	1	1	1	1	1	1	0	1	-72,30444	272,657186	241,060822	0
15.01.2021	01:55:16	0	0	2,711778	2,09175	91,6164	-1,083	78,175	0	1008,58	5,2	7,3	7,2	1	1	1	1	1	1	1	1	1	0	1	-71,176885	272,610178	241,972326	0
15.01.2021	01:55:17	0	0	5,197574	2,2245	96,2352	-1,084	78,193	0	1008,4	5,2	7,3	7,2	1	1	1	1	1	1	1	1	1	0	1	-70,472163	272,501397	242,177518	0
15.01.2021	01:55:18	0	0	3,728694	2,37675	86,9976	-1,084	78,204	0	1008,56	5,2	7,3	7,2	1	1	1	1	1	1	1	1	1	0	1	-69,767442	272,539881	243,058895	0
15.01.2021	01:55:19	0	0	3,389722	2,601	86,6772	-1,087	78,231	0	1008,48	5,2	7,3	7,2	1	1	1	1	1	1	1	1	1	0	1	-73,784355	272,641965	239,510938	0
15.01.2021	01:55:20	0	0	2,824768	2,91675	80,6292	-1,091	78,264	0	1008,46	5,2	7,3	7,2	1	1	1	1	1	1	1	1	1	0	1	-73,150106	272,626756	240,075285	0
15.01.2021	01:55:21	0	0	2,937759	2,8365	87,7104	-1,087	78,29	0	1008,4	5,2	7,3	7,2	1	1	1	1	1	1	1	1	1	0	1	-70,331219	272,497278	242,29956	0
15.01.2021	01:55:22	0	0	4,745611	2,6535	79,7616	-1,088	78,33	0	1008,48	5,2	7,4	7,2	1	1	1	1	1	1	1	1	1	0	1	-71,740662	272,621228	241,459326	0
15.01.2021	01:55:23	0	0	4,406639	2,51175	80,1684	-1,089	78,347	0	1008,42	5,2	7,4	7,2	1	1	1	1	1	1	1	1	1	0	1	-70,68358	272,471213	241,827602	0
15.01.2021	01:55:24	0	0	5,197574	2,526	77,9652	-1,089	78,359	0	1008,44	5,2	7,2	7,2	1	1	1	1	1	1	1	1	1	0	1	-73,29105	272,553645	239,598482	0
15.01.2021	01:55:25	0	0	3,954676	2,61675	89,3124	-1,093	78,41	0	1008,54	5,2	7,4	7,2	1	1	1	1	1	1	1	1	1	0	1	-71,952079	272,614321	241,21617	0
15.01.2021	01:55:26	0	0	3,502713	2,65125	89,6832	-1,09	78,419	0	1008,62	5,2	7,4	7,2	1	1	1	1	1	1	1	1	1	0	1	-71,388302	272,501397	241,26138	0
15.01.2021	01:55:27	0	0	4,858602	2,58075	94,3884	-1,092	78,427	0	1008,56	5,2	7,4	7,2	1	1	1	1	1	1	1	1	1	0	1	-70,472163	272,619846	242,721476	0
15.01.2021	01:55:28	0	0	3,050768	2,50275	92,6316	-1,093	78,447	0	1008,58	5,2	7,3	7,1	1	1	1	1	1	1	1	1	1	0	1	-72,093023	272,643348	241,208628	0
15.01.2021	01:55:29	0	0	3,389722	2,43975	86,256	-1,097	78,462	0	1008,48	5,2	7,4	7,2	1	1	1	1	1	1	1	1	1	0	1	-74,489077	272,494533	238,129104	0
15.01.2021	01:55:30	0	0	2,485811	2,3985	87,0732	-1,096	78,481	0	1008,54	5,3	7,3	7,1	1	1	1	1	1	1	1	1	1	0	1	-69,837914	272,512384	242,862196	0
15.01.2021	01:55:31	0	0	3,389742	2,352	82,5876	-1,095	78,481	0	1008,5	5,2	7,2	7,1	1	1	1	1	1	1	1	1	1	0	1	-69,06272	272,632285	244,188082	0
15.01.2021	01:55:32	0	0	5,197574	2,2725	83,376	-1,098	78,511	0	1008,48	5,2	7,4	7,2	1	1	1	1	1	1	1	1	1	0	1	-71,881607	272,505516	240,786981	0
15.01.2021	01:55:33	0	0	3,16376	2,19975	77,958	-1,099	78,543	0	1008,4	5,3	7,3	7,1	1	1	1	1	1	1	1	1	1	0	1	-69,06272	272,494533	243,555461	0
15.01.2021	01:55:34	0	0	3,05075	2,12025	73,4544	-1,091	78,551	0	1008,56	5,2	7,3	7,2	1	1	1	1	1	1	1	1	1	0	1	-68,569415	272,516506	244,149615	0
15.01.2021	01:55:35	0	0	2,824768	2,0355	69,4764	-1,097	78,547	0	1008,46	5,2	7,3	7,2	1	1	1	1	1	1	1	1	1	0	1	-71,811135	272,467101	240,681182	0
15.01.2021	01:55:36	0	0	5,084614	1,9635	81,5832	-1,095	78,556	0	1008,46	5,2	7,2	7,1	1	1	1	1	1	1	1	1	1	0	1	-73,784355	272,538506	239,035665	0
15.01.2021	01:55:37	0	0	3,16376	1,917	87,354	-1,098	78,558	0	1008,5	5,2	7,4	7,1	1	1	1	1	1	1	1	1	1	0	1	-70,965469	272,646115	242,3489	0
15.01.2021	01:55:38	0	0	5,197605	2,05425	84,8052	-1,097	78,569	0	1008,52	5,3	7,3	7,1	1	1	1	1	1	1	1	1	1	0	1	-75,757576	272,583959	237,271181	0
15.01.2021	01:55:39	0	0	4,519656	2,12625	87,7392	-1,1	78,558	0	1008,36	5,2	7,3	7,1	1	1	1	1	1	1	1	1	1	0	1	-66,948555	272,497278	245,682224	0
15.01.2021	01:55:40	0	0	2,598787	2,199	92,2608	-1,099	78,56	0	1008,32	5,2	7,3	7,2	1	1	1	1	1	1	1	1	1	0	1	-68,146582	272,476698	244,389762	0
15.01.2021	01:55:41	0	0	4,180657	2,1975	95,1408	-1,1	78,546	0	1008,5	5,3	7,3	7,2	1	1	1	1	1	1	1	1	1	0	1	-67,653277	272,541257	245,179377	0
15.01.2021	01:55:42	0	0	4,180682	2,20875	90,8028	-1,101	78,548	0	1008,46	5,3	7,3	7,1	1	1	1	1	1	1	1	1	1	0	1	-70,754052	272,461619	241,713118	0
15.01.2021	01:55:43	0	0	4,63262	2,22675	82,5948	-1,102	78,544	0	1008,54	5,2	7,3	7,2	1	1	1	1	1	1	1	1	1	0	1	-73,784355	272,50689	238,890536	0
15.01.2021	01:55:44	0	0	3,050768	2,2875	87,7248	-1,097	78,566	0	1008,56	5,3	7,3	7,1	1	1	1	1	1	1	1	1	1	0	1	-70,331219	272,504143	242,331066	0
15.01.2021	01:55:45	0	0	3,389742	2,16975	87,3576	-1,111	78,571	0	1008,48	5,2	7,4	7,1	1	1	1	1	1	1	1	1	1	0	1	-76,250881	272,500024	236,392499	0
15.01.2021	01:55:46	0	0	2,937759	2,02725	83,3724	-1,103	78,556	0	1008,48	5,2	7,3	7,2	1	1	1	1	1	1	1	1	1	0	1	-71,388302	272,593614	241,68481	0
15.01.2021	01:55:47	0	0	4,406665	1,959	74,5344	-1,103	78,56	0	1008,44	5,2	7,3	7,1	1	1	1	1	1	1	1	1	1	0	1	-71,881607	272,65165	241,458204	0
15.01.2021	01:55:48	0	0	3,841708	1,9725	72,0144	-1,106	78,55	0	1008,34	5,1	7,3	7,1	1	1	1	1	1	1	1	1	1	0	1	-67,935166	272,590855	245,12527	0
15.01.2021	01:55:49	0	0	4,632648	1,92375	74,9412	-1,106	78,569	0	1008,46	5,3	7,3	7,1	1	1	1	1	1	1	1	1	1	0	1	-72,022551	272,475326	240,507502	0
15.01.2021	01:55:50	0	0	3,050768	1,818	54,8172	-1,107	78,564	0	1008,44	5,2	7,3	7,1	1	1	1	1	1	1	1	1	1	0	1	-72,022551	272,57293	240,955547	0
15.01.2021	01:55:51	0	0	4,858631	1,81425	63,1836	-1,103	78,589	0	1008,5	5,2	7,3	7,1	1	1	1	1	1	1	1	1	1	0	1	-73,220578	272,636433	240,049288	0
15.01.2021	01:55:52	0	0	4,406665	1,821	64,26	-1,105	78,599	0	1008,54	5,3	7,3	7,1	1	1	1	1	1	1	1	1	1	0	1	-71,035941	272,520629	241,702014	0
15.01.2021	01:55:53	0	0	4,971592	1,743	73,0512	-1,104	78,63	0	1008,48	5,3	7,3	7,2	1	1	1	1	1	1	1	1	1	0	1	-69,837914	272,63505	243,425597	0
15.01.2021	01:55:54	0	0	5,084614	1,569	74,5344	-1,108	78,641	0	1008,4	5,3	7,3	7,1	1	1	1	1	1	1	1	1	1	0	1	-72,30444	272,621228	240,895549	0
15.01.2021	01:55:55	0	0	4,293674	1,54725	80,1576	-1,109	78,65	0	1008,36	5,2	7,3	7,1	1	1	1	1	1	1	1	1	1	0	1	-68,005638	272,601894	245,105514	0
15.01.2021	01:55:56	0	0	2,937777	1,5555	73,764	-1,116	78,671	0	1008,52	5,3	7,3	7,1	1	1	1	1	1	1	1	1	1	0	1	-70,965469	272,647498	242,35526	0
15.01.2021	01:55:57	0	0	4,519656	1,533	98,1072	-1,112	78,667	0	1008,32	5,3	7,3	7,1	1	1	1	1	1	1	1	1	1	0	1	-71,176885	272,541257	241,655768	0
15.01.2021	01:55:58	0	0	3,389742	1,536	84,8052	-1,107	78,694	0	1008,44	5,3	7,3	7,1	1	1	1	1	1	1	1	1	1	0	1	-69,344609	272,63505	243,918902	0
15.01.2021	01:55:59	0	0	4,067691	1,55475	88,0704	-1,108	78,694	0	1008,52	5,3	7,3	7,1	1	1	1	1	1	1	1	1	1	0	1	-71,811135	272,564662	241,128994	0
15.01.2021	01:56:00	0	0	4,180682	1,584	89,3772	-1,111	78,701	0	1008,48	5,2	7,3	7,1	1	1	1	1	1	1	1	1	1	0	1	-70,119803	272,519255	242,611843	0
15.01.2021	01:56:01	0	0	4,293648	1,68675	79,4376	-1,107	78,721	0	1008,52	5,2	7,3	7,2	1	1	1	1	1	1	1	1	1	0	1	-70,613108	272,498651	242,023972	0
15.01.2021	01:56:02	0	0	4,293648	1,68675	79,4376	-1,107	78,721	0	1008,52	5,2	7,3	7,2	1	1	1	1	1	1	1	1	1	0	1	-70,613108	272,498651	242,023972	0
15.01.2021	01:56:03	0	0	3,954699	1,80075	77,4972	-1,108	78,714	0	1008,44	5,2	7,3	7,1	1	1	1	1	1	1	1	1	1	0	1	-70,824524	272,473955	241,699238	0
15.01.2021	01:56:04	0	0	3,841685	1,8345	76,824	-1,116	78,727	0	1008,56	5,3	7,3	7,2	1	1	1	1	1	1	1	1	1	0	1	-74,91191	272,579822	238,097846	0
15.01.2021	01:56:05	0	0	3,841708	1,80375	75,24	-1,115	78,738	0	1008,4	5,3	7,3	7,1	1	1	1	1	1	1	1	1	1	0	1	-68,780832	272,653033	244,565341	0
15.01.2021	01:56:06	0	0	2,485811	1,87275	73,8	-1,112	78,74	0	1008,56	5,2	7,3	7,1	1	1	1	1	1	1	1	1	1	0	1	-68,146582	272,497278	244,484197	0
15.01.2021	01:56:07	0	0	4,971592	1,9035	79,4268	-1,118	78,733	0	1008,56	5,2	7,3	7,2	1	1	1	1	1	1	1	1	1	0	1	-68,780832	272,46436	243,69891	0
15.01.2021	01:56:08	0	0	5,084583	1,91325	82,9692	-1,113	78,715	0	1008,28	5,2	7,3	7,2	1	1	1	1	1	1	1	1	1	0	1	-70,119803	272,597754	242,972326	0
15.01.2021	01:56:09	0	0	5,762527	1,90275	84,0204	-1,113	78,715	0	1008,68	5,3	7,3	7,2	1	1	1	1	1	1	1	1	1	0	1	-70,894996	272,607416	242,241526	0
15.01.2021	01:56:10	0	0	3,728694	1,881	80,1684	-1,113	78,71	0	1008,52	5,2	7,3	7,2	1	1	1	1	1	1	1	1	1	0	1	-67,794221	272,512384	244,905889	0
15.01.2021	01:56:11	0	0	3,841685	1,83825	80,9172	-1,109	78,716	0	1008,34	5,2	7,3	7,2	1	1	1	1	1	1	1	1	1	0	1	-68,005638	272,505516	244,66295	0
15.01.2021	01:56:12	0	0	3,615704	1,7835	79,038	-1,111	78,714	0	1008,44	5,2	7,3	7,2	1	1	1	1	1	1	1	1	1	0	1	-69,415081	272,480812	243,14014	0
15.01.2021	01:56:13	0	0	2,598787	1,764	78,66	-1,113	78,726	0	1008,48	5,2	7,3	7,2	1	1	1	1	1	1	1	1	1	0	1	-69,133192	272,53713	243,680512	0
15.01.2021	01:56:14	0	0	5,084583	1,761	86,922	-1,117	78,728	0	1008,48	5,2	7,3	7,2	1	1	1	1	1	1	1	1	1	0	1	-70,68358	272,621228	242,516409	0
15.01.2021	01:56:15	0	0	4,745611	1,659	81,612	-1,113	78,724	0	1008,42	5,2	7,3	7,2	1	1	1	1	1	1	1	1	1	0	1	-71,317829	272,590855	241,742606	0
15.01.2021	01:56:16	0	0	4,067666	1,57275	73,7748	-1,116	78,739	0	1008,36	5,2	7,3	7,2	1	1	1	1	1	1	1	1	1	0	1	-73,150106	272,628138	240,081637	0
15.01.2021	01:56:17	0	0	2,485796	1,54425	69,4476	-1,113	78,736	0	1008,56	5,2	7,3	7,2	1	1	1	1	1	1	1	1	1	0	1	-67,935166	272,482184	244,626349	0
15.01.2021	01:56:18	0	0	4,63262	1,54125	73,0584	-1,124	78,736	0	1008,34	5,2	7,3	7,2	1	1	1	1	1	1	1	1	1	0	1	-68,710359	272,494533	243,907821	0
15.01.2021	01:56:19	0	0	4,519629	1,5195	73,4328	-1,12	78,736	0	1008,54	5,2	7,3	7,2	1	1	1	1	1	1	1	1	1	0	1	-70,119803	272,626756	243,105588	0
15.01.2021	01:56:20	0	0	4,632648	1,52775	47,3508	-1,119	78,765	0	1008,56	5,2	7,3	7,1	1	1	1	1	1	1	1	1	1	0	1	-70,049331	272,53713	242,764373	0
15.01.2021	01:56:21	0	0	2,372805	1,52775	53,8524	-1,118	78,747	0	1008,56	5,2	7,3	7,2	1	1	1	1	1	1	1	1	1	0	1	-72,374912	272,628138	240,856831	0
15.01.2021	01:56:22	0	0	4,745611	1,5345	60,9228	-1,117	78,751	0	1008,64	5,2	7,3	7,2	1	1	1	1	1	1	1	1	1	0	1	-70,331219	272,545385	242,520389	0
15.01.2021	01:56:23	0	0	5,536546	1,53075	68,0328	-1,127	78,757	0	1008,3	5,2	7,3	7,2	1	1	1	1	1	1	1	1	1	0	1	-68,639887	272,626756	244,585504	0
15.01.2021	01:56:24	0	0	3,389722	1,56975	86,994	-1,125	78,74	0	1008,46	5,2	7,3	7,2	1	1	1	1	1	1	1	1	1	0	1	-72,022551	272,49316	240,589331	0
15.01.2021	01:56:25	0	0	2,598787	1,611	69,4656	-1,125	78,741	0	1008,42	5,2	7,3	7,2	1	1	1	1	1	1	1	1	1	0	1	-74,91191	272,61294	238,249993	0
15.01.2021	01:56:26	0	0	2,711778	1,57425	76,8096	-1,132	78,733	0	1008,5	5,2	7,3	7,2	1	1	1	1	1	1	1	1	1	0	1	-71,881607	272,441077	240,491341	0
15.01.2021	01:56:27	0	0	4,745611	1,52925	85,9104	-1,12	78,719	0	1008,48	5,2	7,4	7,2	1	1	1	1	1	1	1	1	1	0	1	-75,264271	272,568796	237,69484	0
15.01.2021	01:56:28	0	0	3,05075	1,5	65,088	-1,126	78,697	0	1008,64	5,2	7,3	7,2	1	1	1	1	1	1	1	1	1	0	1	-75,193798	272,441077	237,179149	0
15.01.2021	01:56:29	0	0	3,615704	1,5855	67,6584	-1,13	78,696	0	1008,5	5,2	7,3	7,2	1	1	1	1	1	1	1	1	1	0	1	-71,388302	272,577065	241,60879	0
15.01.2021	01:56:30	0	0	4,180657	1,71825	70,2252	-1,124	78,694	0	1008,6	5,2	7,3	7,2	1	1	1	1	1	1	1	1	1	0	1	-68,569415	272,607416	244,567107	0
15.01.2021	01:56:31	0	0	4,406639	1,7235	62,4096	-1,129	78,671	0	1008,5	5,2	7,3	7,2	1	1	1	1	1	1	1	1	1	0	1	-70,613108	272,581201	242,402981	0
15.01.2021	01:56:32	0	0	2,937759	1,7805	64,3392	-1,124	78,676	0	1008,5	5,2	7,3	7,2	1	1	1	1	1	1	1	1	1	0	1	-75,264271	272,586717	237,777156	0
15.01.2021	01:56:33	0	0	4,406639	1,77075	62,7948	-1,126	78,687	0	1008,58	5,2	7,3	7,2	1	1	1	1	1	1	1	1	1	0	1	-72,093023	272,606035	241,037156	0
15.01.2021	01:56:34	0	0	3,05075	1,776	69,4728	-1,126	78,681	0	1008,46	5,2	7,3	7,2	1	1	1	1	1	1	1	1	1	0	1	-70,049331	272,53713	242,764373	0
15.01.2021	01:56:35	0	0	2,372805	1,6905	78,6636	-1,125	78,687	0	1008,6	5,2	7,4	7,2	1	1	1	1	1	1	1	1	1	0	1	-70,260747	272,43834	242,099647	0
15.01.2021	01:56:36	0	0	4,519629	1,67925	82,026	-1,128	78,68	0	1008,44	5,2	7,3	7,2	1	1	1	1	1	1	1	1	1	0	1	-72,938689	272,473955	239,585073	0
15.01.2021	01:56:37	0	0	3,05075	1,65225	79,4196	-1,13	78,681	0	1008,48	5,2	7,4	7,2	1	1	1	1	1	1	1	1	1	0	1	-70,049331	272,597754	243,042798	0
15.01.2021	01:56:38	0	0	4,63262	1,59225	74,9196	-1,128	78,668	0	1008,48	5,2	7,3	7,2	1	1	1	1	1	1	1	1	1	0	1	-70,894996	272,614321	242,273252	0
15.01.2021	01:56:39	0	0	4,519629	1,512	98,4744	-1,126	78,697	0	1008,52	5,2	7,3	7,2	1	1	1	1	1	1	1	1	1	0	1	-71,176885	272,436972	241,177233	0
15.01.2021	01:56:40	0	0	4,180657	1,4715	87,7356	-1,131	78,661	0	1008,48	5,2	7,3	7,2	1	1	1	1	1	1	1	1	1	0	1	-67,44186	272,436972	244,912257	0
15.01.2021	01:56:41	0	0	4,63262	1,44825	90,7668	-1,129	78,65	0	1008,42	5,2	7,4	7,2	1	1	1	1	1	1	1	1	1	0	1	-72,515856	272,534379	240,285217	0
15.01.2021	01:56:42	0	0	4,63262	1,4475	84,4128	-1,135	78,661	0	1008,42	5,2	7,3	7,2	1	1	1	1	1	1	1	1	1	0	1	-70,824524	272,604655	242,299311	0
15.01.2021	01:56:43	0	0	4,406639	1,43625	83,3652	-1,138	78,676	0	1008,58	5,2	7,4	7,2	1	1	1	1	1	1	1	1	1	0	1	-73,361522	272,504143	239,300763	0
15.01.2021	01:56:44	0	0	4,63262	1,4985	90,774	-1,133	78,694	0	1008,44	5,2	7,3	7,2	1	1	1	1	1	1	1	1	1	0	1	-69,908386	272,421925	242,376731	0
15.01.2021	01:56:45	0	0	2,711778	1,57575	94,7808	-1,141	78,693	0	1008,48	5,2	7,3	7,2	1	1	1	1	1	1	1	1	1	0	1	-69,06272	272,513758	243,643696	0
15.01.2021	01:56:46	0	0	3,954676	1,6125	85,194	-1,136	78,717	0	1008,56	5,2	7,4	7,2	1	1	1	1	1	1	1	1	1	0	1	-68,569415	272,430131	243,753331	0
15.01.2021	01:56:47	0	0	4,858602	1,653	92,6316	-1,144	78,712	0	1008,54	5,2	7,4	7,2	1	1	1	1	1	1	1	1	1	0	1	-68,005638	272,545385	244,84597	0
15.01.2021	01:56:48	0	0	4,180682	1,665	91,512	-1,136	78,742	0	1008,72	5,2	7,4	7,1	1	1	1	1	1	1	1	1	1	0	1	-71,529246	272,600514	241,575564	0
15.01.2021	01:56:49	0	0	4,745611	1,677	94,374	-1,139	78,747	0	1008,56	5,2	7,3	7,2	1	1	1	1	1	1	1	1	1	0	1	-70,190275	272,535754	242,617114	0
15.01.2021	01:56:50	0	0	2,598787	1,63725	87,7356	-1,141	78,77	0	1008,5	5,2	7,4	7,2	1	1	1	1	1	1	1	1	1	0	1	-72,445384	272,58258	240,577038	0
15.01.2021	01:56:51	0	0	5,084583	1,59675	92,2572	-1,139	78,766	0	1008,42	5,2	7,3	7,2	1	1	1	1	1	1	1	1	1	0	1	-69,133192	272,550891	243,743696	0
15.01.2021	01:56:52	0	0	2,711794	1,5015	97,326	-1,135	78,771	0	1008,42	5,2	7,3	7,1	1	1	1	1	1	1	1	1	1	0	1	-74,207188	272,589475	238,846911	0
15.01.2021	01:56:53	0	0	2,598802	1,4685	90,396	-1,143	78,776	0	1008,38	5,2	7,4	7,1	1	1	1	1	1	1	1	1	1	0	1	-70,472163	272,581201	242,543925	0
15.01.2021	01:56:54	0	0	4,293674	1,428	83,376	-1,145	78,778	0	1008,32	5,2	7,4	7,1	1	1	1	1	1	1	1	1	1	0	1	-74,348132	272,50689	238,326759	0
15.01.2021	01:56:55	0	0	4,971622	1,37325	92,2536	-1,146	78,787	0	1008,58	5,2	7,3	7,1	1	1	1	1	1	1	1	1	1	0	1	-68,851304	272,592234	244,21547	0
15.01.2021	01:56:56	0	0	2,937777	1,38675	83,7216	-1,141	78,792	0	1008,56	5,2	7,4	7,1	1	1	1	1	1	1	1	1	1	0	1	-70,965469	272,531628	241,822977	0
15.01.2021	01:56:57	0	0	3,050768	1,383	88,956	-1,147	78,804	0	1008,48	5,2	7,4	7,1	1	1	1	1	1	1	1	1	1	0	1	-70,542636	272,552268	242,340574	0
15.01.2021	01:56:58	0	0	4,067691	1,41075	88,9704	-1,143	78,799	0	1008,5	5,2	7,3	7,1	1	1	1	1	1	1	1	1	1	0	1	-69,626498	272,4534	242,802969	0
15.01.2021	01:56:59	0	0	4,067666	1,467	93,7044	-1,146	78,816	0	1008,68	5,2	7,4	7,2	1	1	1	1	1	1	1	1	1	0	1	-71,388302	272,578443	241,615121	0
15.01.2021	01:57:00	0	0	4,519656	1,56	80,5032	-1,147	78,801	0	1008,54	5,2	7,4	7,1	1	1	1	1	1	1	1	1	1	0	1	-71,106413	272,482184	241,455102	0
15.01.2021	01:57:01	0	0	4,519656	1,56	80,5032	-1,147	78,801	0	1008,54	5,2	7,4	7,1	1	1	1	1	1	1	1	1	1	0	1	-70,049331	272,394597	242,1105	0
15.01.2021	01:57:02	0	0	3,502734	1,71975	80,5356	-1,139	78,828	0	1008,52	5,1	7,3	7,1	1	1	1	1	1	1	1	1	1	0	1	-71,388302	272,398694	240,790308	0
15.01.2021	01:57:03	0	0	3,954699	1,86075	91,1664	-1,15	78,818	0	1008,4	5,2	7,3	7,1	1	1	1	1	1	1	1	1	1	0	1	-73,220578	272,408256	239,001869	0
15.01.2021	01:57:04	0	0	4,180682	1,90575	91,188	-1,146	78,823	0	1008,6	5,2	7,3	7,1	1	1	1	1	1	1	1	1	1	0	1	-70,754052	272,480812	241,801169	0
15.01.2021	01:57:05	0	0	2,711794	1,9245	101,1348	-1,155	78,812	0	1008,5	5,2	7,3	7,1	1	1	1	1	1	1	1	1	1	0	1	-71,811135	272,409622	240,417577	0
15.01.2021	01:57:06	0	0	5,084614	1,87875	82,332	-1,154	78,813	0	1008,42	5,2	7,4	7,1	1	1	1	1	1	1	1	1	1	0	1	-68,639887	272,41919	243,632692	0
15.01.2021	01:57:07	0	0	4,745611	1,8735	102,9816	-1,153	78,833	0	1008,56	5,2	7,4	7,2	1	1	1	1	1	1	1	1	1	0	1	-74,770965	272,398694	237,407644	0
15.01.2021	01:57:08	0	0	4,406665	1,84575	95,166	-1,154	78,829	0	1008,56	5,1	7,3	7,1	1	1	1	1	1	1	1	1	1	0	1	-69,767442	272,545385	243,084166	0
15.01.2021	01:57:09	0	0	2,598802	1,77225	87,732	-1,157	78,844	0	1008,54	5,1	7,3	7,1	1	1	1	1	1	1	1	1	1	0	1	-71,035941	272,567418	241,916842	0
15.01.2021	01:57:10	0	0	3,728717	1,75425	94,1004	-1,162	78,853	0	1008,5	5,2	7,3	7,1	1	1	1	1	1	1	1	1	1	0	1	-68,428471	272,420557	243,850377	0
15.01.2021	01:57:11	0	0	2,937777	1,728	90,0216	-1,155	78,862	0	1008,46	5,1	7,3	7,1	1	1	1	1	1	1	1	1	1	0	1	-71,811135	272,538506	241,008885	0
15.01.2021	01:57:12	0	0	3,841708	1,7385	74,1528	-1,158	78,88	0	1008,5	5,2	7,3	7,1	1	1	1	1	1	1	1	1	1	0	1	-69,556025	272,410989	242,678951	0
15.01.2021	01:57:13	0	0	2,711794	1,66875	78,2676	-1,158	78,882	0	1008,48	5,2	7,3	7,1	1	1	1	1	1	1	1	1	1	0	1	-76,673714	272,559153	236,241112	0
15.01.2021	01:57:14	0	0	4,971622	1,69125	84,0312	-1,157	78,922	0	1008,46	5,1	7,3	7,1	1	1	1	1	1	1	1	1	1	0	1	-68,710359	272,561907	244,217116	0
15.01.2021	01:57:15	0	0	4,971622	1,64925	79,4304	-1,162	78,914	0	1008,54	5,1	7,4	7,1	1	1	1	1	1	1	1	1	1	0	1	-70,68358	272,490416	241,915707	0
15.01.2021	01:57:16	0	0	4,293674	1,6515	86,2848	-1,151	78,955	0	1008,54	5,1	7,3	7,1	1	1	1	1	1	1	1	1	1	0	1	-71,176885	272,557775	241,731616	0
15.01.2021	01:57:17	0	0	2,824785	1,69125	91,5804	-1,157	78,965	0	1008,48	5,1	7,3	7,1	1	1	1	1	1	1	1	1	1	0	1	-71,881607	272,421925	240,40351	0
15.01.2021	01:57:18	0	0	2,824785	1,7295	90,4032	-1,161	78,973	0	1008,36	5,2	7,3	7,1	1	1	1	1	1	1	1	1	1	0	1	-73,431994	272,53713	239,38171	0
15.01.2021	01:57:19	0	0	4,858631	1,704	78,6528	-1,159	78,992	0	1008,44	5,1	7,3	7,1	1	1	1	1	1	1	1	1	1	0	1	-74,418605	272,530253	238,363528	0
15.01.2021	01:57:20	0	0	2,598802	1,80675	94,0968	-1,16	78,989	0	1008,46	5,1	7,3	7,1	1	1	1	1	1	1	1	1	1	0	1	-68,780832	272,393232	243,37274	0
15.01.2021	01:57:21	0	0	2,824785	1,896	87,7248	-1,157	79,003	0	1008,5	5,1	7,3	7,1	1	1	1	1	1	1	1	1	1	0	1	-67,723749	272,382312	244,379772	0
15.01.2021	01:57:22	0	0	4,745639	1,8945	89,3448	-1,158	78,981	0	1008,5	5,1	7,3	7,1	1	1	1	1	1	1	1	1	1	0	1	-74,418605	272,412356	237,822637	0
15.01.2021	01:57:23	0	0	4,293674	1,81725	87,7356	-1,16	78,999	0	1008,44	5,1	7,3	7,1	1	1	1	1	1	1	1	1	1	0	1	-72,515856	272,412356	239,725386	0
15.01.2021	01:57:24	0	0	3,050768	1,75875	83,4552	-1,165	78,99	0	1008,42	5,1	7,3	7,1	1	1	1	1	1	1	1	1	1	0	1	-67,723749	272,559153	245,191077	0
15.01.2021	01:57:25	0	0	4,858631	1,7985	81,6048	-1,167	78,98	0	1008,48	5,1	7,3	7,1	1	1	1	1	1	1	1	1	1	0	1	-70,260747	272,435603	242,087095	0
15.01.2021	01:57:26	0	0	2,824785	1,8735	71,5932	-1,162	79,001	0	1008,6	5,1	7,3	7,1	1	1	1	1	1	1	1	1	1	0	1	-69,626498	272,420557	242,65235	0
15.01.2021	01:57:27	0	0	2,711794	1,87125	68,0184	-1,162	78,999	0	1008,64	5,1	7,3	7,1	1	1	1	1	1	1	1	1	1	0	1	-72,656801	272,379584	239,434214	0
15.01.2021	01:57:28	0	0	4,858631	1,848	66,2184	-1,165	78,984	0	1008,36	5,1	7,3	7,1	1	1	1	1	1	1	1	1	1	0	1	-72,374912	272,465731	240,111117	0
15.01.2021	01:57:29	0	0	2,598802	1,90875	76,8384	-1,161	78,988	0	1008,56	5,1	7,3	7,1	1	1	1	1	1	1	1	1	1	0	1	-73,079634	272,523378	239,670941	0
15.01.2021	01:57:30	0	0	3,728717	2,043	65,0844	-1,166	78,976	0	1008,52	5,1	7,3	7,1	1	1	1	1	1	1	1	1	1	0	1	-70,68358	272,472584	241,833892	0
15.01.2021	01:57:31	0	0	2,37282	2,0685	67,7484	-1,166	78,966	0	1008,52	5,1	7,3	7,1	1	1	1	1	1	1	1	1	1	0	1	-69,837914	272,371399	242,215592	0
15.01.2021	01:57:32	0	0	5,310596	2,07075	78,2424	-1,169	78,967	0	1008,46	5,1	7,3	7,1	1	1	1	1	1	1	1	1	1	0	1	-72,586328	272,511011	240,107476	0
15.01.2021	01:57:33	0	0	2,37282	2,18775	80,5284	-1,164	78,968	0	1008,5	5,1	7,3	7,1	1	1	1	1	1	1	1	1	1	0	1	-66,243834	272,372763	245,815923	0
15.01.2021	01:57:34	0	0	3,276751	2,172	74,1708	-1,163	78,962	0	1008,52	5,1	7,3	7,1	1	1	1	1	1	1	1	1	1	0	1	-73,079634	272,528878	239,696186	0
15.01.2021	01:57:35	0	0	2,937777	2,187	79,866	-1,172	78,949	0	1008,44	5,1	7,3	7,1	1	1	1	1	1	1	1	1	1	0	1	-71,599718	272,484927	240,974385	0
15.01.2021	01:57:36	0	0	3,615725	2,2005	72,2772	-1,166	78,941	0	1008,5	5,1	7,3	7,1	1	1	1	1	1	1	1	1	1	0	1	-71,388302	272,412356	240,85294	0
15.01.2021	01:57:37	0	0	2,598802	2,15625	76,3956	-1,173	78,932	0	1008,48	5,1	7,3	7,1	1	1	1	1	1	1	1	1	1	0	1	-72,445384	272,539881	240,380952	0
15.01.2021	01:57:38	0	0	4,519656	2,04	76,3596	-1,167	78,93	0	1008,58	5,1	7,3	7,1	1	1	1	1	1	1	1	1	1	0	1	-74,982382	272,500024	237,660998	0
15.01.2021	01:57:39	0	0	4,745639	2,13	88,11	-1,175	78,912	0	1008,7	5,1	7,3	7,1	1	1	1	1	1	1	1	1	1	0	1	-69,69697	272,476698	242,839374	0
15.01.2021	01:57:40	0	0	3,728717	2,115	71,6004	-1,171	78,919	0	1008,42	5,2	7,3	7,1	1	1	1	1	1	1	1	1	1	0	1	-73,361522	272,538506	239,458498	0
15.01.2021	01:57:41	0	0	5,084614	1,96575	89,316	-1,177	78,953	0	1008,28	5,2	7,3	7,1	1	1	1	1	1	1	1	1	1	0	1	-72,022551	272,498651	240,614528	0
15.01.2021	01:57:42	0	0	2,711794	1,85325	68,7924	-1,173	78,968	0	1008,66	5,1	7,3	7,1	1	1	1	1	1	1	1	1	1	0	1	-71,458774	272,522004	241,285491	0
15.01.2021	01:57:43	0	0	4,858631	1,7805	82,9656	-1,176	78,991	0	1008,36	5,2	7,3	7,1	1	1	1	1	1	1	1	1	1	0	1	-71,811135	272,487671	240,77556	0
15.01.2021	01:57:44	0	0	2,937777	1,671	66,9276	-1,173	79,016	0	1008,6	5,2	7,3	7,1	1	1	1	1	1	1	1	1	1	0	1	-72,656801	272,380948	239,440467	0
15.01.2021	01:57:45	0	0	2,711794	1,6785	87,4404	-1,178	79,046	0	1008,56	5,2	7,3	7,1	1	1	1	1	1	1	1	1	1	0	1	-69,978858	272,349592	241,974721	0
15.01.2021	01:57:46	0	0	4,632648	1,68825	80,1468	-1,18	79,064	0	1008,34	5,2	7,3	7,1	1	1	1	1	1	1	1	1	1	0	1	-70,190275	272,380948	241,906993	0
15.01.2021	01:57:47	0	0	3,841708	1,77375	84,4092	-1,172	79,098	0	1008,5	5,2	7,3	7,1	1	1	1	1	1	1	1	1	1	0	1	-70,965469	272,457509	241,482847	0
15.01.2021	01:57:48	0	0	4,632648	1,80825	78,0048	-1,176	79,118	0	1008,68	5,1	7,3	7,1	1	1	1	1	1	1	1	1	1	0	1	-72,586328	272,367308	239,448431	0
15.01.2021	01:57:49	0	0	2,937794	1,78125	90,0468	-1,176	79,13	0	1008,56	5,1	7,3	7	1	1	1	1	1	1	1	1	1	0	1	-72,374912	272,340059	239,534993	0
15.01.2021	01:57:50	0	0	5,084614	1,68525	76,8348	-1,178	79,128	0	1008,58	5,1	7,3	7,1	1	1	1	1	1	1	1	1	1	0	1	-72,374912	272,431499	239,954107	0
15.01.2021	01:57:51	0	0	2,824785	1,5375	73,7964	-1,179	79,118	0	1008,54	5,2	7,3	7,1	1	1	1	1	1	1	1	1	1	0	1	-72,868217	272,520629	239,869738	0
15.01.2021	01:57:52	0	0	4,858631	1,518	80,9064	-1,177	79,136	0	1008,66	5,2	7,3	7,1	1	1	1	1	1	1	1	1	1	0	1	-69,133192	272,435603	243,21465	0
15.01.2021	01:57:53	0	0	3,728717	1,47525	77,2128	-1,181	79,153	0	1008,52	5,2	7,3	7,1	1	1	1	1	1	1	1	1	1	0	1	-70,119803	272,513758	242,586614	0
15.01.2021	01:57:54	0	0	4,293674	1,4985	72,6804	-1,182	79,155	0	1008,56	5,2	7,3	7,1	1	1	1	1	1	1	1	1	1	0	1	-70,401691	272,476698	242,134653	0
15.01.2021	01:57:55	0	0	3,16376	1,6215	71,2296	-1,183	79,17	0	1008,5	5,2	7,3	7,1	1	1	1	1	1	1	1	1	1	0	1	-71,881607	272,491788	240,723978	0
15.01.2021	01:57:56	0	0	4,858631	1,79025	65,0808	-1,178	79,195	0	1008,58	5,2	7,3	7,1	1	1	1	1	1	1	1	1	1	0	1	-71,599718	272,512384	241,100392	0
15.01.2021	01:57:57	0	0	4,067691	1,9335	68,022	-1,177	79,216	0	1008,56	5,2	7,3	7,1	1	1	1	1	1	1	1	1	1	0	1	-72,022551	272,376855	240,055959	0
15.01.2021	01:57:58	0	0	2,485826	1,9125	68,7708	-1,176	79,237	0	1008,48	5,2	7,3	7	1	1	1	1	1	1	1	1	1	0	1	-67,864693	272,490416	244,734594	0
15.01.2021	01:57:59	0	0	4,519684	1,8165	70,2036	-1,186	79,247	0	1008,54	5,2	7,3	7	1	1	1	1	1	1	1	1	1	0	1	-69,133192	272,484927	243,440911	0
15.01.2021	01:58:00	0	0	5,084644	1,75875	79,02	-1,186	79,258	0	1008,5	5,2	7,3	7	1	1	1	1	1	1	1	1	1	0	1	-69,274137	272,511011	243,419668	0
15.01.2021	01:58:01	0	0	5,084644	1,75875	79,02	-1,186	79,258	0	1008,5	5,2	7,3	7	1	1	1	1	1	1	1	1	1	0	1	-69,274137	272,511011	243,419668	0
15.01.2021	01:58:02	0	0	3,050768	1,66275	73,0404	-1,18	79,286	0	1008,62	5,2	7,3	7,1	1	1	1	1	1	1	1	1	1	0	1	-70,049331	272,360492	241,954195	0
15.01.2021	01:58:03	0	0	2,937777	1,623	83,7252	-1,184	79,265	0	1008,5	5,2	7,3	7,1	1	1	1	1	1	1	1	1	1	0	1	-70,754052	272,389136	241,380747	0
15.01.2021	01:58:04	0	0	4,745668	1,56675	90,396	-1,184	79,294	0	1008,52	5,2	7,2	7	1	1	1	1	1	1	1	1	1	0	1	-70,965469	272,501397	241,684213	0
15.01.2021	01:58:05	0	0	4,632648	1,632	83,3256	-1,182	79,264	0	1008,4	5,2	7,2	7,1	1	1	1	1	1	1	1	1	1	0	1	-74,841438	272,460249	237,619447	0
15.01.2021	01:58:06	0	0	2,485811	1,69875	95,5044	-1,186	79,285	0	1008,44	5,2	7,2	7,1	1	1	1	1	1	1	1	1	1	0	1	-66,948555	272,333252	244,93017	0
15.01.2021	01:58:07	0	0	3,050786	1,70325	90,0144	-1,186	79,28	0	1008,58	5,2	7,3	7	1	1	1	1	1	1	1	1	1	0	1	-66,666667	272,378219	245,418095	0
15.01.2021	01:58:08	0	0	3,502755	1,73325	77,6664	-1,188	79,27	0	1008,5	5,2	7,3	7	1	1	1	1	1	1	1	1	1	0	1	-68,287526	272,467101	244,20479	0
15.01.2021	01:58:09	0	0	4,971652	1,719	85,5072	-1,192	79,281	0	1008,54	5,2	7,3	7	1	1	1	1	1	1	1	1	1	0	1	-71,388302	272,505516	241,280286	0
15.01.2021	01:58:10	0	0	4,971652	1,659	89,9928	-1,19	79,271	0	1008,48	5,1	7,2	7	1	1	1	1	1	1	1	1	1	0	1	-69,203665	272,390501	242,937391	0
15.01.2021	01:58:11	0	0	2,937777	1,647	74,9196	-1,191	79,291	0	1008,54	5,2	7,2	7,1	1	1	1	1	1	1	1	1	1	0	1	-69,06272	272,490416	243,536567	0
15.01.2021	01:58:12	0	0	4,971652	1,671	79,4052	-1,185	79,297	0	1008,6	5,1	7,2	7	1	1	1	1	1	1	1	1	1	0	1	-69,203665	272,417823	243,062646	0
15.01.2021	01:58:13	0	0	4,180707	1,683	79,0128	-1,188	79,285	0	1008,6	5,2	7,3	7	1	1	1	1	1	1	1	1	1	0	1	-71,529246	272,490416	241,070041	0
15.01.2021	01:58:14	0	0	3,728739	1,68975	91,5192	-1,19	79,274	0	1008,5	5,1	7,3	7	1	1	1	1	1	1	1	1	1	0	1	-70,119803	272,473955	242,403959	0
15.01.2021	01:58:15	0	0	2,71181	1,6815	86,2668	-1,195	79,28	0	1008,52	5,1	7,2	7	1	1	1	1	1	1	1	1	1	0	1	-70,894996	272,368672	241,146011	0
15.01.2021	01:58:16	0	0	4,745639	1,69425	83,4552	-1,191	79,266	0	1008,6	5,1	7,2	7,1	1	1	1	1	1	1	1	1	1	0	1	-71,740662	272,314208	240,05083	0
15.01.2021	01:58:17	0	0	3,389742	1,75425	88,9524	-1,194	79,287	0	1008,62	5,1	7,3	7,1	1	1	1	1	1	1	1	1	1	0	1	-71,881607	272,491788	240,723978	0
15.01.2021	01:58:18	0	0	5,310628	1,839	76,8384	-1,195	79,284	0	1008,48	5,1	7,2	7	1	1	1	1	1	1	1	1	1	0	1	-72,022551	272,501397	240,62713	0
15.01.2021	01:58:19	0	0	4,067715	2,0265	80,1144	-1,193	79,292	0	1008,6	5,1	7,2	7	1	1	1	1	1	1	1	1	1	0	1	-68,780832	272,387771	243,347711	0
15.01.2021	01:58:20	0	0	4,858631	2,34675	87,4512	-1,194	79,307	0	1008,62	5,2	7,2	7,1	1	1	1	1	1	1	1	1	1	0	1	-71,106413	272,321007	240,716222	0
15.01.2021	01:58:21	0	0	4,293699	2,4885	86,6628	-1,195	79,306	0	1008,48	5,2	7,2	7	1	1	1	1	1	1	1	1	1	0	1	-70,190275	272,476698	242,346069	0
15.01.2021	01:58:22	0	0	3,841708	2,51625	85,1724	-1,197	79,328	0	1008,54	5,2	7,3	7,1	1	1	1	1	1	1	1	1	1	0	1	-76,250881	272,386406	235,871405	0
15.01.2021	01:58:23	0	0	5,084614	2,487	84,402	-1,2	79,342	0	1008,54	5,1	7,2	7,1	1	1	1	1	1	1	1	1	1	0	1	-72,374912	272,316927	239,429036	0
15.01.2021	01:58:24	0	0	2,937759	2,40375	83,0016	-1,204	79,347	0	1008,58	5,1	7,2	7,2	1	1	1	1	1	1	1	1	1	0	1	-70,331219	272,435603	242,016623	0
15.01.2021	01:58:25	0	0	4,971652	2,31375	73,4148	-1,203	79,365	0	1008,54	5,1	7,2	7	1	1	1	1	1	1	1	1	1	0	1	-70,542636	272,500024	242,100744	0
15.01.2021	01:58:26	0	0	3,841731	2,2485	85,9176	-1,198	79,406	0	1008,68	5,1	7,2	7	1	1	1	1	1	1	1	1	1	0	1	-71,176885	272,349592	240,776694	0
15.01.2021	01:58:27	0	0	4,406665	2,21175	96,3216	-1,2	79,42	0	1008,56	5,1	7,2	7,1	1	1	1	1	1	1	1	1	1	0	1	-71,247357	272,430131	241,075388	0
15.01.2021	01:58:28	0	0	4,293699	2,1855	99,144	-1,2	79,453	0	1008,6	5,1	7,2	7	1	1	1	1	1	1	1	1	1	0	1	-74,348132	272,325088	237,493194	0
15.01.2021	01:58:29	0	0	5,084614	2,24625	88,9236	-1,195	79,461	0	1008,52	5,1	7,2	7,1	1	1	1	1	1	1	1	1	1	0	1	-69,274137	272,436972	243,079981	0
15.01.2021	01:58:30	0	0	4,067715	2,3295	77,6052	-1,196	79,484	0	1008,62	5,1	7,2	7	1	1	1	1	1	1	1	1	1	0	1	-70,260747	272,322367	241,568118	0
15.01.2021	01:58:31	0	0	4,971652	2,322	82,3428	-1,198	79,482	0	1008,58	5,1	7,2	7	1	1	1	1	1	1	1	1	1	0	1	-74,27766	272,46299	238,195795	0
15.01.2021	01:58:32	0	0	3,841708	2,394	74,1708	-1,193	79,512	0	1008,56	5,1	7,2	7,1	1	1	1	1	1	1	1	1	1	0	1	-70,965469	272,41919	241,30711	0
15.01.2021	01:58:33	0	0	2,598802	2,42775	63,8532	-1,199	79,498	0	1008,72	5,1	7,2	7,1	1	1	1	1	1	1	1	1	1	0	1	-69,69697	272,311488	242,08207	0
15.01.2021	01:58:34	0	0	3,615725	2,34975	70,5924	-1,202	79,519	0	1008,54	5,1	7,2	7,1	1	1	1	1	1	1	1	1	1	0	1	-69,485553	272,417823	242,780757	0
15.01.2021	01:58:35	0	0	2,937777	2,23575	72,6804	-1,202	79,518	0	1008,48	5,1	7,2	7,1	1	1	1	1	1	1	1	1	1	0	1	-68,498943	272,330531	243,367314	0
15.01.2021	01:58:36	0	0	4,858631	2,1555	62,8056	-1,2	79,558	0	1008,62	5,1	7,2	7,1	1	1	1	1	1	1	1	1	1	0	1	-73,9253	272,45477	238,510449	0
15.01.2021	01:58:37	0	0	4,067691	2,01075	84,4416	-1,204	79,589	0	1008,62	5,1	7,2	7,1	1	1	1	1	1	1	1	1	1	0	1	-71,599718	272,34142	240,316424	0
15.01.2021	01:58:38	0	0	4,858631	2,0355	85,1508	-1,202	79,63	0	1008,56	5,1	7,2	7,1	1	1	1	1	1	1	1	1	1	0	1	-70,68358	272,46299	241,789876	0
15.01.2021	01:58:39	0	0	2,824785	2,0565	84,8052	-1,206	79,655	0	1008,48	5,1	7,2	7,1	1	1	1	1	1	1	1	1	1	0	1	-69,69697	272,352316	242,269093	0
15.01.2021	01:58:40	0	0	3,615725	2,1675	74,9268	-1,206	79,723	0	1008,46	5,1	7,2	7,1	1	1	1	1	1	1	1	1	1	0	1	-69,556025	272,325088	242,285301	0
15.01.2021	01:58:41	0	0	4,745639	2,14575	84,816	-1,197	79,752	0	1008,62	5,1	7,2	7,1	1	1	1	1	1	1	1	1	1	0	1	-67,653277	272,368672	244,387731	0
15.01.2021	01:58:42	0	0	2,824785	2,1765	79,4448	-1,203	79,782	0	1008,58	5,1	7,2	7,1	1	1	1	1	1	1	1	1	1	0	1	-71,529246	272,30877	240,237342	0
15.01.2021	01:58:43	0	0	3,276751	2,17875	82,5912	-1,204	79,801	0	1008,68	5,1	7,2	7,1	1	1	1	1	1	1	1	1	1	0	1	-70,965469	272,368672	241,075539	0
15.01.2021	01:58:44	0	0	3,502734	2,199	82,5948	-1,196	79,82	0	1008,6	5,1	7,2	7,1	1	1	1	1	1	1	1	1	1	0	1	-70,190275	272,475326	242,339778	0
15.01.2021	01:58:45	0	0	5,536579	2,1615	81,1908	-1,203	79,809	0	1008,5	5,1	7,3	7,1	1	1	1	1	1	1	1	1	1	0	1	-73,009161	272,461619	239,458008	0
15.01.2021	01:58:46	0	0	4,858631	2,00175	89,7264	-1,205	79,816	0	1008,6	5,1	7,2	7,1	1	1	1	1	1	1	1	1	1	0	1	-68,780832	272,30741	242,979532	0
15.01.2021	01:58:47	0	0	4,858631	1,9125	81,9792	-1,205	79,816	0	1008,64	5,1	7,2	7,1	1	1	1	1	1	1	1	1	1	0	1	-71,811135	272,458879	240,643465	0
15.01.2021	01:58:48	0	0	3,841708	1,96875	86,9688	-1,202	79,806	0	1008,7	5,1	7,2	7,1	1	1	1	1	1	1	1	1	1	0	1	-69,274137	272,404157	242,929519	0
15.01.2021	01:58:49	0	0	5,197605	2,10075	82,3752	-1,204	79,797	0	1008,48	5,1	7,3	7,1	1	1	1	1	1	1	1	1	1	0	1	-70,68358	272,311488	241,095459	0
15.01.2021	01:58:50	0	0	4,406665	2,06775	81,5832	-1,2	79,82	0	1008,5	5,1	7,2	7,1	1	1	1	1	1	1	1	1	1	0	1	-68,498943	272,45203	243,924241	0
15.01.2021	01:58:51	0	0	4,858631	2,13075	77,5872	-1,2	79,835	0	1008,58	5,1	7,2	7,1	1	1	1	1	1	1	1	1	1	0	1	-66,102889	272,310129	245,669924	0
15.01.2021	01:58:52	0	0	4,067691	2,268	58,4856	-1,203	79,823	0	1008,54	5,1	7,2	7,1	1	1	1	1	1	1	1	1	1	0	1	-71,67019	272,472584	240,847282	0
15.01.2021	01:58:53	0	0	4,745639	2,44125	70,6068	-1,201	79,838	0	1008,66	5,1	7,3	7,1	1	1	1	1	1	1	1	1	1	0	1	-70,331219	272,318287	241,478957	0
15.01.2021	01:58:54	0	0	3,615725	2,45925	52,5096	-1,206	79,842	0	1008,54	5,1	7,3	7,1	1	1	1	1	1	1	1	1	1	0	1	-68,851304	272,316927	242,952644	0
15.01.2021	01:58:55	0	0	3,050768	2,349	83,3724	-1,203	79,828	0	1008,7	5,1	7,2	7,1	1	1	1	1	1	1	1	1	1	0	1	-68,780832	272,405523	243,429087	0
15.01.2021	01:58:56	0	0	3,050768	2,424	82,5876	-1,202	79,837	0	1008,56	5,1	7,2	7,1	1	1	1	1	1	1	1	1	1	0	1	-74,91191	272,487671	237,674784	0
15.01.2021	01:58:57	0	0	3,050768	2,31675	82,3428	-1,2	79,835	0	1008,6	5,1	7,3	7,1	1	1	1	1	1	1	1	1	1	0	1	-68,851304	272,405523	243,358615	0
15.01.2021	01:58:58	0	0	2,824785	2,2485	81,6192	-1,202	79,86	0	1008,52	5,1	7,2	7,1	1	1	1	1	1	1	1	1	1	0	1	-69,626498	272,315567	242,171222	0
15.01.2021	01:58:59	0	0	4,971622	2,175	76,8168	-1,206	79,875	0	1008,56	5,1	7,3	7,1	1	1	1	1	1	1	1	1	1	0	1	-74,418605	272,447922	237,985737	0
15.01.2021	01:59:00	0	0	4,858631	2,08725	81,198	-1,21	79,892	0	1008,46	5,1	7,3	7,1	1	1	1	1	1	1	1	1	1	0	1	-71,317829	272,472584	241,199642	0
15.01.2021	01:59:01	0	0	4,858631	2,08725	81,198	-1,21	79,892	0	1008,46	5,1	7,3	7,1	1	1	1	1	1	1	1	1	1	0	1	-71,317829	272,472584	241,199642	0
15.01.2021	01:59:02	0	0	4,745639	2,055	74,1816	-1,201	79,893	0	1008,6	5,1	7,2	7,1	1	1	1	1	1	1	1	1	1	0	1	-70,965469	272,431499	241,36355	0
15.01.2021	01:59:03	0	0	4,858631	2,06175	69,156	-1,2	79,894	0	1008,52	5,1	7,2	7,1	1	1	1	1	1	1	1	1	1	0	1	-69,415081	272,476698	243,121263	0
15.01.2021	01:59:04	0	0	2,598802	2,07825	71,9892	-1,21	79,879	0	1008,4	5,1	7,3	7,1	1	1	1	1	1	1	1	1	1	0	1	-67,371388	272,420557	244,907459	0
15.01.2021	01:59:05	0	0	3,502734	2,139	74,1456	-1,204	79,882	0	1008,56	5,1	7,2	7,1	1	1	1	1	1	1	1	1	1	0	1	-69,69697	272,482184	242,864545	0
15.01.2021	01:59:06	0	0	4,858631	2,11575	77,2056	-1,206	79,867	0	1008,62	5,1	7,2	7,1	1	1	1	1	1	1	1	1	1	0	1	-72,163495	272,346868	239,777603	0
15.01.2021	01:59:07	0	0	2,824785	2,0175	51,7536	-1,203	79,862	0	1008,68	5,1	7,3	7,1	1	1	1	1	1	1	1	1	1	0	1	-73,643411	272,45203	238,779773	0
15.01.2021	01:59:08	0	0	2,824785	1,9575	64,2492	-1,21	79,841	0	1008,54	5,1	7,3	7,1	1	1	1	1	1	1	1	1	1	0	1	-68,07611	272,486299	244,504289	0
15.01.2021	01:59:09	0	0	3,954699	1,851	58,8816	-1,205	79,832	0	1008,6	5,1	7,2	7,1	1	1	1	1	1	1	1	1	1	0	1	-73,220578	272,34142	238,695565	0
15.01.2021	01:59:10	0	0	2,711794	1,76175	75,6072	-1,204	79,808	0	1008,5	5,1	7,3	7,1	1	1	1	1	1	1	1	1	1	0	1	-70,190275	272,310129	241,582539	0
15.01.2021	01:59:11	0	0	3,954699	1,64925	66,5496	-1,204	79,796	0	1008,46	5,1	7,3	7,1	1	1	1	1	1	1	1	1	1	0	1	-68,217054	272,478069	244,325582	0
15.01.2021	01:59:12	0	0	3,728717	1,56525	72,3132	-1,207	79,801	0	1008,56	5,1	7,3	7,1	1	1	1	1	1	1	1	1	1	0	1	-70,754052	272,303333	240,987641	0
15.01.2021	01:59:13	0	0	4,293674	1,6335	75,9708	-1,205	79,794	0	1008,44	5,1	7,3	7,1	1	1	1	1	1	1	1	1	1	0	1	-70,331219	272,383677	241,778557	0
15.01.2021	01:59:14	0	0	4,745639	1,64775	58,8636	-1,203	79,763	0	1008,56	5,1	7,2	7,1	1	1	1	1	1	1	1	1	1	0	1	-67,723749	272,471213	244,787433	0
15.01.2021	01:59:15	0	0	3,841708	1,66875	79,038	-1,205	79,772	0	1008,68	5,1	7,3	7,1	1	1	1	1	1	1	1	1	1	0	1	-76,673714	272,40689	235,542469	0
15.01.2021	01:59:16	0	0	3,502734	1,671	65,466	-1,21	79,763	0	1008,62	5,1	7,3	7,1	1	1	1	1	1	1	1	1	1	0	1	-70,542636	272,478069	242	0
15.01.2021	01:59:17	0	0	5,084614	1,617	45,846	-1,21	79,74	0	1008,44	5,1	7,3	7,1	1	1	1	1	1	1	1	1	1	0	1	-69,06272	272,416456	243,197322	0
15.01.2021	01:59:18	0	0	4,745639	1,56975	44,4276	-1,209	79,734	0	1008,62	5,1	7,2	7,1	1	1	1	1	1	1	1	1	1	0	1	-70,260747	272,306051	241,493393	0
15.01.2021	01:59:19	0	0	3,954699	1,5075	51,156	-1,203	79,708	0	1008,6	5,1	7,3	7,1	1	1	1	1	1	1	1	1	1	0	1	-71,599718	272,395963	240,566371	0
15.01.2021	01:59:20	0	0	2,937777	1,49475	56,6712	-1,208	79,687	0	1008,62	5,1	7,3	7,1	1	1	1	1	1	1	1	1	1	0	1	-71,881607	272,289749	239,797884	0
15.01.2021	01:59:21	0	0	4,632648	1,67625	66,222	-1,204	79,691	0	1008,54	5,1	7,3	7,1	1	1	1	1	1	1	1	1	1	0	1	-72,797745	272,367308	239,237015	0
15.01.2021	01:59:22	0	0	3,615725	1,93275	66,5496	-1,211	79,682	0	1008,64	5,1	7,3	7,1	1	1	1	1	1	1	1	1	1	0	1	-68,921776	272,300616	242,807472	0
15.01.2021	01:59:23	0	0	4,745611	2,0775	66,24	-1,213	79,657	0	1008,46	5,1	7,3	7,2	1	1	1	1	1	1	1	1	1	0	1	-68,921776	272,442446	243,457449	0
15.01.2021	01:59:24	0	0	2,485811	2,07825	47,3796	-1,21	79,657	0	1008,66	5,1	7,2	7,1	1	1	1	1	1	1	1	1	1	0	1	-68,992248	272,337336	242,905183	0
15.01.2021	01:59:25	0	0	4,745668	2,1465	80,5356	-1,21	79,621	0	1008,62	5,1	7,3	7	1	1	1	1	1	1	1	1	1	0	1	-73,361522	272,460249	239,099362	0
15.01.2021	01:59:26	0	0	2,937777	2,5275	59,49	-1,209	79,6	0	1008,58	5,1	7,2	7,1	1	1	1	1	1	1	1	1	1	0	1	-69,626498	272,327809	242,227293	0
15.01.2021	01:59:27	0	0	2,598818	2,67675	38,43	-1,21	79,581	0	1008,52	5,1	7,3	7	1	1	1	1	1	1	1	1	1	0	1	-66,737139	272,467101	245,755178	0
15.01.2021	01:59:28	0	0	4,519684	2,583	64,6272	-1,209	79,564	0	1008,54	5,1	7,3	7	1	1	1	1	1	1	1	1	1	0	1	-70,049331	272,349592	241,904249	0
15.01.2021	01:59:29	0	0	3,728694	2,51325	48,51	-1,221	79,552	0	1008,52	5,1	7,2	7,2	1	1	1	1	1	1	1	1	1	0	1	-67,864693	272,469843	244,6402	0
15.01.2021	01:59:30	0	0	2,598818	2,29425	70,218	-1,216	79,529	0	1008,58	5,1	7,3	7	1	1	1	1	1	1	1	1	1	0	1	-68,428471	272,306051	243,325669	0
15.01.2021	01:59:31	0	0	3,502734	2,21025	53,3304	-1,218	79,52	0	1008,54	4,9	7,3	7,1	1	1	1	1	1	1	1	1	1	0	1	-70,260747	272,46436	242,218995	0
15.01.2021	01:59:32	0	0	5,197605	2,3325	51,75	-1,215	79,511	0	1008,58	4,9	7,3	7,1	1	1	1	1	1	1	1	1	1	0	1	-68,780832	272,447922	243,62351	0
15.01.2021	01:59:33	0	0	3,954699	2,4585	65,8332	-1,217	79,511	0	1008,58	5,1	7,3	7,1	1	1	1	1	1	1	1	1	1	0	1	-70,68358	272,333252	241,195145	0
15.01.2021	01:59:34	0	0	4,632648	2,31675	58,8744	-1,213	79,52	0	1008,5	5,1	7,2	7,1	1	1	1	1	1	1	1	1	1	0	1	-72,233968	272,45203	240,189217	0
15.01.2021	01:59:35	0	0	3,728694	2,15475	63,1836	-1,218	79,528	0	1008,56	4,9	7,3	7,2	1	1	1	1	1	1	1	1	1	0	1	-67,512333	272,389136	244,622466	0
15.01.2021	01:59:36	0	0	2,259828	2,049	73,7928	-1,224	79,54	0	1008,54	5,1	7,3	7,1	1	1	1	1	1	1	1	1	1	0	1	-72,233968	272,465731	240,252061	0
15.01.2021	01:59:37	0	0	2,824785	1,97475	107,1072	-1,222	79,546	0	1008,5	5,1	7,3	7,1	1	1	1	1	1	1	1	1	1	0	1	-70,613108	272,323728	241,221988	0
15.01.2021	01:59:38	0	0	4,971592	1,92675	67,3092	-1,221	79,56	0	1008,66	5,1	7,3	7,2	1	1	1	1	1	1	1	1	1	0	1	-72,374912	272,315567	239,422808	0
15.01.2021	01:59:39	0	0	2,824785	1,998	67,6728	-1,224	79,584	0	1008,5	4,9	7,3	7,1	1	1	1	1	1	1	1	1	1	0	1	-70,68358	272,469843	241,821313	0
15.01.2021	01:59:40	0	0	3,502713	2,03625	77,2056	-1,223	79,579	0	1008,44	4,9	7,2	7,2	1	1	1	1	1	1	1	1	1	0	1	-71,106413	272,395963	241,059676	0
15.01.2021	01:59:41	0	0	3,389722	2,03025	67,6836	-1,222	79,608	0	1008,52	5,1	7,3	7,2	1	1	1	1	1	1	1	1	1	0	1	-72,374912	272,289749	239,304579	0
15.01.2021	01:59:42	0	0	3,050786	2,055	70,6032	-1,221	79,603	0	1008,48	4,9	7,3	7	1	1	1	1	1	1	1	1	1	0	1	-71,388302	272,391866	240,759012	0
15.01.2021	01:59:43	0	0	3,954699	1,91325	79,7724	-1,226	79,644	0	1008,58	5,1	7,3	7,1	1	1	1	1	1	1	1	1	1	0	1	-72,938689	272,4534	239,490777	0
15.01.2021	01:59:44	0	0	4,180707	1,845	81,612	-1,221	79,652	0	1008,54	4,9	7,3	7	1	1	1	1	1	1	1	1	1	0	1	-68,428471	272,430131	243,894275	0
15.01.2021	01:59:45	0	0	4,632648	1,8165	72,6804	-1,222	79,667	0	1008,56	5	7,2	7,1	1	1	1	1	1	1	1	1	1	0	1	-69,415081	272,323728	242,420015	0
15.01.2021	01:59:46	0	0	3,163779	1,8225	78,2856	-1,226	79,694	0	1008,66	4,9	7,2	7	1	1	1	1	1	1	1	1	1	0	1	-66,596195	272,301974	245,139276	0
15.01.2021	01:59:47	0	0	3,954699	1,79325	85,914	-1,228	79,717	0	1008,5	4,9	7,2	7,1	1	1	1	1	1	1	1	1	1	0	1	-71,952079	272,318287	239,858098	0
15.01.2021	01:59:48	0	0	3,276751	1,68	83,736	-1,224	79,733	0	1008,58	5,1	7,2	7,1	1	1	1	1	1	1	1	1	1	0	1	-67,512333	272,319647	244,304073	0
15.01.2021	01:59:49	0	0	3,728717	1,55175	78,282	-1,228	79,769	0	1008,56	4,9	7,3	7,1	1	1	1	1	1	1	1	1	1	0	1	-70,331219	272,415089	241,922556	0
15.01.2021	01:59:50	0	0	3,954699	1,53825	71,6184	-1,227	79,78	0	1008,6	4,9	7,2	7,1	1	1	1	1	1	1	1	1	1	0	1	-70,472163	272,423292	241,819224	0
15.01.2021	01:59:51	0	0	2,824785	1,56225	82,3536	-1,222	79,794	0	1008,54	4,9	7,2	7,1	1	1	1	1	1	1	1	1	1	0	1	-71,529246	272,323728	240,30585	0
15.01.2021	01:59:52	0	0	2,937777	1,5915	85,5324	-1,224	79,825	0	1008,58	5	7,2	7,1	1	1	1	1	1	1	1	1	1	0	1	-69,485553	272,443815	242,89995	0
15.01.2021	01:59:53	0	0	4,632648	1,62	66,2112	-1,222	79,826	0	1008,34	4,9	7,2	7,1	1	1	1	1	1	1	1	1	1	0	1	-75,334743	272,333252	236,543982	0
15.01.2021	01:59:54	0	0	3,389742	1,69125	71,226	-1,222	79,847	0	1008,72	4,9	7,2	7,1	1	1	1	1	1	1	1	1	1	0	1	-69,485553	272,288391	242,187721	0
15.01.2021	01:59:55	0	0	3,841708	1,701	67,68	-1,227	79,843	0	1008,58	4,9	7,2	7,1	1	1	1	1	1	1	1	1	1	0	1	-69,203665	272,434235	243,137903	0
15.01.2021	01:59:56	0	0	3,16376	1,7445	69,8328	-1,227	79,843	0	1008,54	5	7,2	7,1	1	1	1	1	1	1	1	1	1	0	1	-70,331219	272,268035	241,248861	0
15.01.2021	01:59:57	0	0	4,745639	1,989	75,9744	-1,225	79,836	0	1008,58	5	7,2	7,1	1	1	1	1	1	1	1	1	1	0	1	-69,203665	272,334614	242,681295	0
15.01.2021	01:59:58	0	0	2,711794	2,35575	68,4108	-1,228	79,825	0	1008,58	4,9	7,2	7,1	1	1	1	1	1	1	1	1	1	0	1	-70,542636	272,295182	241,16173	0
15.01.2021	01:59:59	0	0	4,406665	2,70375	76,9644	-1,227	79,802	0	1008,52	4,9	7,2	7,1	1	1	1	1	1	1	1	1	1	0	1	-69,626498	272,272104	241,972212	0
15.01.2021	02:00:00	0	0	4,067666	2,6265	76,824	-1,225	79,79	0	1008,6	4,9	7,2	7,2	1	1	1	1	1	1	1	1	1	0	1	-66,737139	272,263966	244,824317	0
15.01.2021	02:00:01	0	0	4,067666	2,6265	76,824	-1,225	79,79	0	1008,6	4,9	7,2	7,2	1	1	1	1	1	1	1	1	1	0	1	-66,737139	272,263966	244,824317	0
15.01.2021	02:00:02	0	0	3,389742	2,442	72,6984	-1,227	79,784	0	1008,7	4,9	7,2	7,1	1	1	1	1	1	1	1	1	1	0	1	-72,797745	272,371399	239,255761	0
15.01.2021	02:00:03	0	0	3,502734	2,44125	75,6072	-1,23	79,777	0	1008,62	4,9	7,2	7,1	1	1	1	1	1	1	1	1	1	0	1	-73,643411	272,441077	238,729537	0
15.01.2021	02:00:04	0	0	3,954699	2,4315	78,6564	-1,229	79,771	0	1008,54	4,9	7,2	7,1	1	1	1	1	1	1	1	1	1	0	1	-72,727273	272,291107	238,958436	0
15.01.2021	02:00:05	0	0	4,632648	2,349	71,6148	-1,23	79,783	0	1008,62	5	7,2	7,1	1	1	1	1	1	1	1	1	1	0	1	-70,542636	272,370036	241,504621	0
15.01.2021	02:00:06	0	0	4,745639	2,223	85,1796	-1,232	79,741	0	1008,58	4,9	7,2	7,1	1	1	1	1	1	1	1	1	1	0	1	-66,102889	272,269391	245,4834	0
15.01.2021	02:00:07	0	0	3,389742	2,12325	84,0528	-1,232	79,756	0	1008,62	5	7,2	7,1	1	1	1	1	1	1	1	1	1	0	1	-67,44186	272,289749	244,237631	0
15.01.2021	02:00:08	0	0	4,519656	2,0805	91,1772	-1,232	79,741	0	1008,64	4,9	7,2	7,1	1	1	1	1	1	1	1	1	1	0	1	-69,06272	272,322367	242,766145	0
15.01.2021	02:00:09	0	0	3,728717	1,9215	75,6072	-1,233	79,72	0	1008,6	4,9	7,2	7,1	1	1	1	1	1	1	1	1	1	0	1	-67,653277	272,270748	243,939222	0
15.01.2021	02:00:10	0	0	3,841708	1,84575	76,8276	-1,234	79,717	0	1008,54	4,9	7,2	7,1	1	1	1	1	1	1	1	1	1	0	1	-72,022551	272,333252	239,856174	0
15.01.2021	02:00:11	0	0	4,067691	1,78575	85,9176	-1,235	79,741	0	1008,52	5	7,2	7,1	1	1	1	1	1	1	1	1	1	0	1	-77,167019	272,272104	234,43169	0
15.01.2021	02:00:12	0	0	2,711794	1,73925	94,0896	-1,239	79,76	0	1008,4	4,9	7,2	7,1	1	1	1	1	1	1	1	1	1	0	1	-70,965469	272,356404	241,019323	0
15.01.2021	02:00:13	0	0	5,084614	1,70625	88,9488	-1,243	79,79	0	1008,56	5	7,2	7,1	1	1	1	1	1	1	1	1	1	0	1	-67,653277	272,276175	243,964066	0
15.01.2021	02:00:14	0	0	3,615725	1,67925	83,3508	-1,233	79,815	0	1008,68	5	7,2	7,1	1	1	1	1	1	1	1	1	1	0	1	-71,599718	272,297898	240,117088	0
15.01.2021	02:00:15	0	0	3,615725	1,6035	80,1504	-1,227	79,861	0	1008,6	4,9	7,2	7,1	1	1	1	1	1	1	1	1	1	0	1	-70,613108	272,412356	241,628134	0
15.01.2021	02:00:16	0	0	3,389742	1,60275	80,5068	-1,231	79,896	0	1008,6	5	7,2	7,1	1	1	1	1	1	1	1	1	1	0	1	-65,327696	272,277532	246,29586	0
15.01.2021	02:00:17	0	0	4,745639	1,62375	78,264	-1,237	79,967	0	1008,58	5	7,2	7,1	1	1	1	1	1	1	1	1	1	0	1	-72,445384	272,371399	239,608122	0
15.01.2021	02:00:18	0	0	2,824785	1,67475	82,3464	-1,239	79,931	0	1008,5	5	7,2	7,1	1	1	1	1	1	1	1	1	1	0	1	-67,512333	272,439709	244,854338	0
15.01.2021	02:00:19	0	0	5,310596	1,70475	85,9212	-1,234	79,965	0	1008,52	5	7,2	7,1	1	1	1	1	1	1	1	1	1	0	1	-69,485553	272,393232	242,668018	0
15.01.2021	02:00:20	0	0	5,084614	1,719	77,9688	-1,23	79,987	0	1008,54	5	7,2	7,1	1	1	1	1	1	1	1	1	1	0	1	-74,066244	272,345506	237,868615	0
15.01.2021	02:00:21	0	0	2,937777	1,68975	82,6056	-1,237	79,996	0	1008,5	5	7,2	7,1	1	1	1	1	1	1	1	1	1	0	1	-73,150106	272,41919	239,122473	0
15.01.2021	02:00:22	0	0	2,824785	1,707	77,22	-1,235	80,034	0	1008,54	5	7,2	7,1	1	1	1	1	1	1	1	1	1	0	1	-67,0895	272,243635	244,378906	0
15.01.2021	02:00:23	0	0	3,276751	1,665	81,99	-1,233	80,048	0	1008,52	5	7,2	7,1	1	1	1	1	1	1	1	1	1	0	1	-65,961945	272,360492	246,041581	0
15.01.2021	02:00:24	0	0	4,971622	1,62075	77,2056	-1,233	80,071	0	1008,6	5	7,2	7,1	1	1	1	1	1	1	1	1	1	0	1	-71,176885	272,402791	241,020508	0
15.01.2021	02:00:25	0	0	3,276751	1,5945	75,582	-1,235	80,085	0	1008,58	5	7,2	7,1	1	1	1	1	1	1	1	1	1	0	1	-66,878083	272,284318	244,776542	0
15.01.2021	02:00:26	0	0	3,615725	1,51575	79,0344	-1,235	80,082	0	1008,52	5	7,2	7,1	1	1	1	1	1	1	1	1	1	0	1	-68,780832	272,360492	243,222694	0
15.01.2021	02:00:27	0	0	3,050768	1,4745	81,2088	-1,236	80,091	0	1008,54	5	7,2	7,1	1	1	1	1	1	1	1	1	1	0	1	-68,217054	272,405523	243,992865	0
15.01.2021	02:00:28	0	0	3,16376	1,431	80,1432	-1,24	80,104	0	1008,66	5	7,2	7,1	1	1	1	1	1	1	1	1	1	0	1	-68,005638	272,327809	243,848153	0
15.01.2021	02:00:29	0	0	4,971622	1,41	85,9284	-1,229	80,117	0	1008,54	5	7,2	7,1	1	1	1	1	1	1	1	1	1	0	1	-71,458774	272,263966	240,102682	0
15.01.2021	02:00:30	0	0	3,728717	1,47225	91,5156	-1,239	80,122	0	1008,56	5	7,2	7,1	1	1	1	1	1	1	1	1	1	0	1	-72,30444	272,410989	239,930537	0
15.01.2021	02:00:31	0	0	3,615725	1,51125	91,8864	-1,239	80,127	0	1008,64	5	7,2	7,1	1	1	1	1	1	1	1	1	1	0	1	-70,190275	272,345506	241,744584	0
15.01.2021	02:00:32	0	0	4,745639	1,533	95,1372	-1,235	80,147	0	1008,7	5	7,2	7,1	1	1	1	1	1	1	1	1	1	0	1	-66,737139	272,404157	245,466517	0
15.01.2021	02:00:33	0	0	3,16376	1,58325	92,9412	-1,235	80,151	0	1008,4	5	7,2	7,1	1	1	1	1	1	1	1	1	1	0	1	-65,116279	272,254476	246,401739	0
15.01.2021	02:00:34	0	0	4,858631	1,56975	87,7248	-1,232	80,134	0	1008,62	5	7,2	7,1	1	1	1	1	1	1	1	1	1	0	1	-67,653277	272,314208	244,138216	0
15.01.2021	02:00:35	0	0	4,971622	1,6155	88,1964	-1,237	80,133	0	1008,7	5	7,2	7,1	1	1	1	1	1	1	1	1	1	0	1	-70,894996	272,240926	240,561012	0
15.01.2021	02:00:36	0	0	2,824785	1,713	98,0784	-1,238	80,102	0	1008,58	5	7,2	7,1	1	1	1	1	1	1	1	1	1	0	1	-71,952079	272,391866	240,195234	0
15.01.2021	02:00:37	0	0	3,502734	1,81575	91,908	-1,238	80,099	0	1008,6	5	7,2	7,1	1	1	1	1	1	1	1	1	1	0	1	-68,780832	272,242281	242,681375	0
15.01.2021	02:00:38	0	0	4,180682	1,94475	90,7776	-1,24	80,073	0	1008,52	5	7,2	7,1	1	1	1	1	1	1	1	1	1	0	1	-68,710359	272,312848	243,074906	0
15.01.2021	02:00:39	0	0	4,180682	2,001	90,1152	-1,239	80,082	0	1008,48	5	7,2	7,1	1	1	1	1	1	1	1	1	1	0	1	-69,344609	272,387771	242,783933	0
15.01.2021	02:00:40	0	0	2,485811	1,96125	99,5148	-1,233	80,088	0	1008,6	5	7,2	7,1	1	1	1	1	1	1	1	1	1	0	1	-69,908386	272,255831	241,615835	0
15.01.2021	02:00:41	0	0	3,502734	1,8645	95,544	-1,234	80,075	0	1008,62	5	7,2	7,1	1	1	1	1	1	1	1	1	1	0	1	-70,965469	272,379584	241,125546	0
15.01.2021	02:00:42	0	0	3,502734	1,77225	100,4112	-1,231	80,088	0	1008,6	5	7,2	7,1	1	1	1	1	1	1	1	1	1	0	1	-67,0895	272,217914	244,261215	0
15.01.2021	02:00:43	0	0	4,858631	1,7145	96,9768	-1,233	80,069	0	1008,64	5	7,2	7,1	1	1	1	1	1	1	1	1	1	0	1	-72,515856	272,350954	239,443965	0
15.01.2021	02:00:44	0	0	2,598802	1,70325	100,7604	-1,236	80,045	0	1008,62	5	7,2	7,1	1	1	1	1	1	1	1	1	1	0	1	-73,009161	272,374127	239,056846	0
15.01.2021	02:00:45	0	0	4,519656	1,752	96,966	-1,241	80,04	0	1008,62	5	7,2	7,1	1	1	1	1	1	1	1	1	1	0	1	-69,133192	272,385042	242,982838	0
15.01.2021	02:00:46	0	0	4,406665	1,8	99,9252	-1,24	80,024	0	1008,62	4,8	7,2	7,1	1	1	1	1	1	1	1	1	1	0	1	-70,542636	272,346868	241,398463	0
15.01.2021	02:00:47	0	0	2,937777	1,845	102,1932	-1,233	80,022	0	1008,58	5	7,2	7,1	1	1	1	1	1	1	1	1	1	0	1	-71,035941	272,376855	241,042569	0
15.01.2021	02:00:48	0	0	4,180682	1,82625	102,1716	-1,237	79,987	0	1008,58	5	7,2	7,1	1	1	1	1	1	1	1	1	1	0	1	-67,935166	272,226033	243,452694	0
15.01.2021	02:00:49	0	0	5,084614	1,8225	100,7136	-1,236	79,993	0	1008,52	4,8	7,2	7,1	1	1	1	1	1	1	1	1	1	0	1	-72,374912	272,331891	239,497579	0
15.01.2021	02:00:50	0	0	4,519656	1,9425	93,7152	-1,235	79,965	0	1008,58	4,8	7,2	7,1	1	1	1	1	1	1	1	1	1	0	1	-71,458774	272,380948	240,638494	0
15.01.2021	02:00:51	0	0	4,971622	2,02125	92,2428	-1,235	79,955	0	1008,54	4,8	7,1	7,1	1	1	1	1	1	1	1	1	1	0	1	-70,68358	272,356404	241,301212	0
15.01.2021	02:00:52	0	0	5,084614	1,9965	97,7256	-1,239	79,935	0	1008,56	5	7,2	7,1	1	1	1	1	1	1	1	1	1	0	1	-68,569415	272,234155	242,855609	0
15.01.2021	02:00:53	0	0	3,502734	2,034	97,3188	-1,235	79,954	0	1008,54	4,8	7,2	7,1	1	1	1	1	1	1	1	1	1	0	1	-72,515856	272,372763	239,5439	0
15.01.2021	02:00:54	0	0	2,824785	2,05875	95,1192	-1,239	79,945	0	1008,64	4,9	7,2	7,1	1	1	1	1	1	1	1	1	1	0	1	-67,019027	272,278889	244,610741	0
15.01.2021	02:00:55	0	0	3,615725	2,10375	98,4672	-1,24	79,94	0	1008,7	4,8	7,1	7,1	1	1	1	1	1	1	1	1	1	0	1	-70,472163	272,207095	240,829055	0
15.01.2021	02:00:56	0	0	3,276771	2,142	95,13	-1,244	79,964	0	1008,54	5	7,2	7	1	1	1	1	1	1	1	1	1	0	1	-63,84778	272,282961	247,80063	0
15.01.2021	02:00:57	0	0	4,067691	2,14125	93,744	-1,245	79,967	0	1008,52	4,8	7,2	7,1	1	1	1	1	1	1	1	1	1	0	1	-70,331219	272,216561	241,013307	0
15.01.2021	02:00:58	0	0	5,536579	2,13975	91,908	-1,239	79,991	0	1008,66	4,8	7,1	7,1	1	1	1	1	1	1	1	1	1	0	1	-74,207188	272,211151	237,112587	0
15.01.2021	02:00:59	0	0	2,485811	2,11125	102,1716	-1,242	80,001	0	1008,7	4,9	7,2	7,1	1	1	1	1	1	1	1	1	1	0	1	-70,260747	272,291107	241,424962	0
15.01.2021	02:01:00	0	0	4,293699	2,1045	99,144	-1,238	80,038	0	1008,64	4,8	7,1	7	1	1	1	1	1	1	1	1	1	0	1	-70,049331	272,360492	241,954195	0
15.01.2021	02:01:01	0	0	4,293699	2,1045	99,144	-1,238	80,038	0	1008,64	4,8	7,1	7	1	1	1	1	1	1	1	1	1	0	1	-70,049331	272,360492	241,954195	0
15.01.2021	02:01:02	0	0	3,841708	2,09775	96,2388	-1,244	80,033	0	1008,54	4,9	7,2	7,1	1	1	1	1	1	1	1	1	1	0	1	-67,653277	272,321007	244,169358	0
15.01.2021	02:01:03	0	0	4,067715	2,11275	97,326	-1,238	80,039	0	1008,68	4,8	7,2	7	1	1	1	1	1	1	1	1	1	0	1	-68,07611	272,207095	243,225108	0
15.01.2021	02:01:04	0	0	3,502755	2,043	93,3336	-1,242	80,053	0	1008,7	4,9	7,1	7	1	1	1	1	1	1	1	1	1	0	1	-67,44186	272,230094	243,964579	0
15.01.2021	02:01:05	0	0	4,971652	1,98375	94,0716	-1,244	80,059	0	1008,62	4,9	7,1	7	1	1	1	1	1	1	1	1	1	0	1	-68,569415	272,273461	243,035505	0
15.01.2021	02:01:06	0	0	4,067691	1,9665	90,0468	-1,247	80,057	0	1009	4,9	7,2	7,1	1	1	1	1	1	1	1	1	1	0	1	-69,908386	272,186825	241,300117	0
15.01.2021	02:01:07	0	0	4,632676	1,9455	92,6532	-1,247	80,048	0	1008,48	4,9	7,1	7	1	1	1	1	1	1	1	1	1	0	1	-68,07611	272,325088	243,765217	0
15.01.2021	02:01:08	0	0	5,310628	1,8915	89,7372	-1,242	80,064	0	1008,54	4,9	7,1	7	1	1	1	1	1	1	1	1	1	0	1	-71,881607	272,370036	240,16565	0
15.01.2021	02:01:09	0	0	2,824802	1,968	94,1112	-1,246	80,047	0	1008,5	4,9	7,1	7	1	1	1	1	1	1	1	1	1	0	1	-71,811135	272,216561	239,533391	0
15.01.2021	02:01:10	0	0	4,180707	2,0565	87,3576	-1,244	80,029	0	1008,76	4,9	7,1	7	1	1	1	1	1	1	1	1	1	0	1	-67,019027	272,240926	244,436981	0
15.01.2021	02:01:11	0	0	4,745668	2,0625	90,0432	-1,242	80,033	0	1008,58	4,9	7,1	7	1	1	1	1	1	1	1	1	1	0	1	-67,300916	272,188175	243,913764	0
15.01.2021	02:01:12	0	0	3,502755	2,12625	88,6896	-1,247	80,011	0	1008,58	4,9	7,1	7	1	1	1	1	1	1	1	1	1	0	1	-69,556025	272,293823	242,142121	0
15.01.2021	02:01:13	0	0	3,163779	2,1015	92,6424	-1,252	79,992	0	1008,42	4,9	7,2	7	1	1	1	1	1	1	1	1	1	0	1	-69,837914	272,357767	242,153122	0
15.01.2021	02:01:14	0	0	4,85866	2,097	92,6496	-1,245	79,999	0	1008,7	4,9	7,1	7	1	1	1	1	1	1	1	1	1	0	1	-72,515856	272,300616	239,213392	0
15.01.2021	02:01:15	0	0	4,632648	2,04825	84,7908	-1,246	79,99	0	1008,6	4,9	7,1	7,1	1	1	1	1	1	1	1	1	1	0	1	-69,485553	272,24499	241,989052	0
15.01.2021	02:01:16	0	0	2,824802	2,073	87,444	-1,252	79,979	0	1008,6	4,9	7,1	7	1	1	1	1	1	1	1	1	1	0	1	-67,582805	272,182773	243,60717	0
15.01.2021	02:01:17	0	0	3,615747	2,11725	89,334	-1,247	79,996	0	1008,58	4,9	7,2	7	1	1	1	1	1	1	1	1	1	0	1	-66,666667	272,170624	244,46775	0
15.01.2021	02:01:18	0	0	3,050786	2,1555	83,3472	-1,255	79,998	0	1008,5	4,9	7,1	7	1	1	1	1	1	1	1	1	1	0	1	-72,586328	272,22468	238,795339	0
15.01.2021	02:01:19	0	0	4,632676	2,1555	86,7708	-1,253	80,001	0	1008,62	4,9	7,2	7	1	1	1	1	1	1	1	1	1	0	1	-70,401691	272,190877	240,825345	0
15.01.2021	02:01:20	0	0	2,598818	2,2845	84,4272	-1,247	79,992	0	1008,58	4,9	7,2	7	1	1	1	1	1	1	1	1	1	0	1	-75,123326	272,242281	236,338881	0
15.01.2021	02:01:21	0	0	3,389763	2,40675	94,1004	-1,247	79,991	0	1008,68	4,9	7,2	7	1	1	1	1	1	1	1	1	1	0	1	-68,710359	272,30877	243,056229	0
15.01.2021	02:01:22	0	0	5,42362	2,47725	89,3268	-1,248	79,992	0	1008,52	4,9	7,2	7	1	1	1	1	1	1	1	1	1	0	1	-67,794221	272,178723	243,377229	0
15.01.2021	02:01:23	0	0	3,728739	2,38275	87,7248	-1,25	79,999	0	1008,56	4,9	7,2	7	1	1	1	1	1	1	1	1	1	0	1	-69,626498	272,265322	241,941166	0
15.01.2021	02:01:24	0	0	4,971652	2,31825	87,732	-1,249	79,993	0	1008,58	4,9	7,2	7	1	1	1	1	1	1	1	1	1	0	1	-69,626498	272,190877	241,600539	0
15.01.2021	02:01:25	0	0	4,519684	2,1885	84,0348	-1,25	79,985	0	1008,48	4,9	7,2	7	1	1	1	1	1	1	1	1	1	0	1	-69,344609	272,22062	242,018486	0
15.01.2021	02:01:26	0	0	3,954723	2,11575	85,518	-1,25	79,971	0	1008,42	4,9	7,2	7	1	1	1	1	1	1	1	1	1	0	1	-68,851304	272,353679	243,121002	0
15.01.2021	02:01:27	0	0	4,519684	2,06925	94,3776	-1,253	79,954	0	1008,44	4,9	7,1	7	1	1	1	1	1	1	1	1	1	0	1	-71,67019	272,353679	240,302115	0
15.01.2021	02:01:28	0	0	4,85866	2,0265	90,0252	-1,251	79,952	0	1008,56	4,9	7,2	7	1	1	1	1	1	1	1	1	1	0	1	-68,992248	272,230094	242,414191	0
15.01.2021	02:01:29	0	0	5,084644	1,9785	90,018	-1,251	79,942	0	1008,6	4,9	7,2	7	1	1	1	1	1	1	1	1	1	0	1	-70,472163	272,338697	241,431504	0
15.01.2021	02:01:30	0	0	4,293699	1,8705	86,6448	-1,254	79,927	0	1008,64	4,9	7,2	7	1	1	1	1	1	1	1	1	1	0	1	-70,68358	272,315567	241,11414	0
15.01.2021	02:01:31	0	0	5,197636	1,8375	84,0312	-1,251	79,909	0	1008,68	4,9	7,2	7	1	1	1	1	1	1	1	1	1	0	1	-66,173362	272,236863	245,264054	0
15.01.2021	02:01:32	0	0	4,745668	1,84425	84,0204	-1,254	79,904	0	1008,66	4,9	7,2	7	1	1	1	1	1	1	1	1	1	0	1	-69,626498	272,173323	241,520262	0
15.01.2021	02:01:33	0	0	5,084644	1,8465	84,4236	-1,257	79,884	0	1008,74	4,9	7,2	7	1	1	1	1	1	1	1	1	1	0	1	-70,472163	272,330531	241,394093	0
15.01.2021	02:01:34	0	0	4,519684	1,863	79,4988	-1,254	79,906	0	1008,62	4,9	7,2	7	1	1	1	1	1	1	1	1	1	0	1	-71,317829	272,288391	240,355445	0
15.01.2021	02:01:35	0	0	2,485826	1,82775	79,0344	-1,254	79,905	0	1008,5	4,9	7,2	7	1	1	1	1	1	1	1	1	1	0	1	-71,529246	272,169275	239,599001	0
15.01.2021	02:01:36	0	0	3,050786	1,73175	78,2856	-1,262	79,907	0	1008,48	4,9	7,2	7	1	1	1	1	1	1	1	1	1	0	1	-67,794221	272,227386	243,599831	0
15.01.2021	02:01:37	0	0	2,598818	1,66575	71,2404	-1,259	79,911	0	1008,7	4,9	7,2	7	1	1	1	1	1	1	1	1	1	0	1	-71,599718	272,192228	239,633497	0
15.01.2021	02:01:38	0	0	2,937794	1,6335	72,7668	-1,255	79,929	0	1008,56	4,9	7,2	7	1	1	1	1	1	1	1	1	1	0	1	-68,357999	272,162529	242,739404	0
15.01.2021	02:01:39	0	0	5,649605	1,61325	79,0308	-1,26	79,909	0	1008,66	4,9	7,2	7	1	1	1	1	1	1	1	1	1	0	1	-69,908386	272,297898	241,80842	0
15.01.2021	02:01:40	0	0	3,841731	1,64325	80,9136	-1,261	79,926	0	1008,62	4,9	7,2	7	1	1	1	1	1	1	1	1	1	0	1	-66,525722	272,32917	245,334301	0
15.01.2021	02:01:41	0	0	3,050786	1,6485	76,9356	-1,267	79,928	0	1008,62	4,9	7,2	7	1	1	1	1	1	1	1	1	1	0	1	-65,045807	272,190877	246,18123	0
15.01.2021	02:01:42	0	0	4,406692	1,67775	75,6468	-1,255	79,929	0	1008,64	4,9	7,2	7	1	1	1	1	1	1	1	1	1	0	1	-67,864693	272,278889	243,765075	0
15.01.2021	02:01:43	0	0	4,067715	1,6545	84,7836	-1,262	79,926	0	1008,74	4,8	7,2	7	1	1	1	1	1	1	1	1	1	0	1	-68,921776	272,149045	242,113978	0
15.01.2021	02:01:44	0	0	4,745668	1,67175	74,9268	-1,27	79,908	0	1008,52	4,9	7,2	7	1	1	1	1	1	1	1	1	1	0	1	-71,176885	272,223326	240,198591	0
15.01.2021	02:01:45	0	0	4,632676	1,74225	79,0344	-1,258	79,92	0	1008,62	4,8	7,2	7	1	1	1	1	1	1	1	1	1	0	1	-66,878083	272,178723	244,293367	0
15.01.2021	02:01:46	0	0	4,067715	1,842	79,0452	-1,263	79,914	0	1008,52	4,9	7,2	7	1	1	1	1	1	1	1	1	1	0	1	-69,69697	272,174673	241,455962	0
15.01.2021	02:01:47	0	0	4,519684	1,9065	74,5308	-1,263	79,915	0	1008,52	4,8	7,2	7	1	1	1	1	1	1	1	1	1	0	1	-68,851304	272,278889	242,778465	0
15.01.2021	02:01:48	0	0	4,85866	1,794	76,8276	-1,263	79,907	0	1008,4	5	7,2	7	1	1	1	1	1	1	1	1	1	0	1	-65,539112	272,165227	245,570627	0
15.01.2021	02:01:49	0	0	4,971652	1,776	75,492	-1,265	79,945	0	1008,56	4,9	7,2	7	1	1	1	1	1	1	1	1	1	0	1	-72,868217	272,231447	238,544417	0
15.01.2021	02:01:50	0	0	4,180682	1,785	75,2472	-1,265	79,933	0	1008,62	4,8	7,2	7,1	1	1	1	1	1	1	1	1	1	0	1	-68,287526	272,188175	242,927154	0
15.01.2021	02:01:51	0	0	3,276751	1,746	85,5468	-1,262	79,951	0	1008,68	4,8	7,2	7,1	1	1	1	1	1	1	1	1	1	0	1	-68,428471	272,154437	242,631936	0
15.01.2021	02:01:52	0	0	4,971652	1,71825	79,7724	-1,271	79,948	0	1008,62	4,9	7,2	7	1	1	1	1	1	1	1	1	1	0	1	-71,388302	272,293823	240,309844	0
15.01.2021	02:01:53	0	0	3,615725	1,6755	82,3428	-1,268	79,955	0	1008,52	5	7,2	7,1	1	1	1	1	1	1	1	1	1	0	1	-67,230444	272,227386	244,163608	0
15.01.2021	02:01:54	0	0	3,728717	1,6185	90,7992	-1,269	79,943	0	1008,46	4,8	7,2	7,1	1	1	1	1	1	1	1	1	1	0	1	-70,68358	272,327809	241,170211	0
15.01.2021	02:01:55	0	0	4,971622	1,54875	81,6084	-1,273	79,954	0	1008,54	4,8	7,2	7,1	1	1	1	1	1	1	1	1	1	0	1	-69,626498	272,288391	242,046777	0
15.01.2021	02:01:56	0	0	3,502755	1,458	79,4088	-1,268	79,946	0	1008,58	4,8	7,2	7	1	1	1	1	1	1	1	1	1	0	1	-68,357999	272,318287	243,452178	0
15.01.2021	02:01:57	0	0	4,632648	1,41975	74,9088	-1,272	79,938	0	1008,46	5	7,2	7,1	1	1	1	1	1	1	1	1	1	0	1	-69,415081	272,146349	241,608349	0
15.01.2021	02:01:58	0	0	3,615747	1,425	73,8072	-1,267	79,936	0	1008,56	4,8	7,2	7	1	1	1	1	1	1	1	1	1	0	1	-66,45525	272,280246	245,180732	0
15.01.2021	02:01:59	0	0	3,16376	1,4085	77,2344	-1,278	79,934	0	1008,62	4,8	7,2	7,1	1	1	1	1	1	1	1	1	1	0	1	-69,344609	272,314208	242,446884	0
15.01.2021	02:02:00	0	0	3,728739	1,36575	71,9676	-1,272	79,928	0	1008,42	4,8	7,2	7	1	1	1	1	1	1	1	1	1	0	1	-69,485553	272,30877	242,281035	0
15.01.2021	02:02:01	0	0	3,728739	1,36575	71,9676	-1,272	79,928	0	1008,42	4,8	7,2	7	1	1	1	1	1	1	1	1	1	0	1	-69,485553	272,30877	242,281035	0
15.01.2021	02:02:02	0	0	4,85866	1,3905	69,1704	-1,274	79,918	0	1008,68	4,8	7,1	7	1	1	1	1	1	1	1	1	1	0	1	-68,921776	272,142306	242,083173	0
15.01.2021	02:02:03	0	0	4,180682	1,49025	68,0184	-1,278	79,899	0	1008,6	4,8	7,2	7,1	1	1	1	1	1	1	1	1	1	0	1	-67,230444	272,280246	244,405538	0
15.01.2021	02:02:04	0	0	4,180732	1,62	71,9856	-1,274	79,919	0	1008,6	4,8	7,1	6,9	1	1	1	1	1	1	1	1	1	0	1	-70,754052	272,289749	240,925439	0
15.01.2021	02:02:05	0	0	2,372834	1,7025	71,2332	-1,274	79,914	0	1008,64	4,8	7,1	7	1	1	1	1	1	1	1	1	1	0	1	-69,133192	272,171973	242,007396	0
15.01.2021	02:02:06	0	0	4,067691	1,68675	74,934	-1,277	79,923	0	1008,52	4,8	7,2	7,1	1	1	1	1	1	1	1	1	1	0	1	-68,287526	272,2477	243,19948	0
15.01.2021	02:02:07	0	0	3,728717	1,6365	69,8292	-1,275	79,92	0	1008,48	4,8	7,1	7,1	1	1	1	1	1	1	1	1	1	0	1	-69,978858	272,159831	241,10621	0
15.01.2021	02:02:08	0	0	2,937794	1,593	64,6128	-1,272	79,915	0	1008,7	4,8	7,2	7	1	1	1	1	1	1	1	1	1	0	1	-68,992248	272,311488	242,786791	0
15.01.2021	02:02:09	0	0	3,841731	1,569	66,8844	-1,279	79,907	0	1008,54	4,8	7,2	7	1	1	1	1	1	1	1	1	1	0	1	-67,794221	272,232801	243,624607	0
15.01.2021	02:02:10	0	0	4,971622	1,57575	73,1016	-1,283	79,892	0	1008,62	4,8	7,1	7,1	1	1	1	1	1	1	1	1	1	0	1	-70,119803	272,285676	241,541039	0
15.01.2021	02:02:11	0	0	2,937794	1,56525	72,0792	-1,281	79,908	0	1008,52	4,8	7,2	7	1	1	1	1	1	1	1	1	1	0	1	-69,274137	272,157134	241,7986	0
15.01.2021	02:02:12	0	0	2,598818	1,49475	73,0404	-1,28	79,906	0	1008,78	4,8	7,2	7	1	1	1	1	1	1	1	1	1	0	1	-68,569415	272,2477	242,917591	0
15.01.2021	02:02:13	0	0	4,180682	1,458	65,8296	-1,279	79,904	0	1008,56	4,8	7,1	7,1	1	1	1	1	1	1	1	1	1	0	1	-68,780832	272,124797	242,144087	0
15.01.2021	02:02:14	0	0	3,615747	1,422	80,1396	-1,283	79,9	0	1008,42	4,8	7,1	7	1	1	1	1	1	1	1	1	1	0	1	-72,586328	272,140959	238,412462	0
15.01.2021	02:02:15	0	0	3,389742	1,497	71,9856	-1,284	79,904	0	1008,58	4,8	7,1	7,1	1	1	1	1	1	1	1	1	1	0	1	-68,851304	272,208447	242,4561	0
15.01.2021	02:02:16	0	0	2,372834	1,57125	76,824	-1,282	79,907	0	1008,56	4,8	7,1	7	1	1	1	1	1	1	1	1	1	0	1	-67,794221	272,134223	243,17378	0
15.01.2021	02:02:17	0	0	2,937794	1,53825	61,3116	-1,283	79,891	0	1008,56	4,8	7,1	7	1	1	1	1	1	1	1	1	1	0	1	-66,807611	272,212504	244,518351	0
15.01.2021	02:02:18	0	0	2,598818	1,52325	70,2432	-1,285	79,892	0	1008,52	4,8	7,1	7	1	1	1	1	1	1	1	1	1	0	1	-70,824524	272,276175	240,792819	0
15.01.2021	02:02:19	0	0	4,745668	1,55175	70,2432	-1,291	79,886	0	1008,5	4,8	7,2	7	1	1	1	1	1	1	1	1	1	0	1	-71,529246	272,301974	240,206224	0
15.01.2021	02:02:20	0	0	3,389742	1,587	72,6912	-1,28	79,893	0	1008,62	4,8	7,1	7,1	1	1	1	1	1	1	1	1	1	0	1	-71,881607	272,22874	239,518639	0
15.01.2021	02:02:21	0	0	4,180707	1,5585	64,6344	-1,286	79,901	0	1008,58	4,8	7,1	7	1	1	1	1	1	1	1	1	1	0	1	-69,908386	272,132876	241,053459	0
15.01.2021	02:02:22	0	0	4,632676	1,551	70,9524	-1,286	79,897	0	1008,54	4,8	7,1	7	1	1	1	1	1	1	1	1	1	0	1	-69,203665	272,287034	242,463393	0
15.01.2021	02:02:23	0	0	4,632676	1,57725	63,8856	-1,294	79,891	0	1008,64	4,8	7,1	7	1	1	1	1	1	1	1	1	1	0	1	-70,68358	272,182773	240,506395	0
15.01.2021	02:02:24	0	0	2,824802	1,55925	69,156	-1,291	79,892	0	1008,56	4,8	7,1	7	1	1	1	1	1	1	1	1	1	0	1	-74,418605	272,287034	237,248453	0
15.01.2021	02:02:25	0	0	3,276771	1,542	62,7948	-1,288	79,889	0	1008,66	4,8	7,1	7	1	1	1	1	1	1	1	1	1	0	1	-68,710359	272,130183	242,239175	0
15.01.2021	02:02:26	0	0	5,084644	1,4985	65,1384	-1,297	79,884	0	1008,5	4,8	7,1	7	1	1	1	1	1	1	1	1	1	0	1	-71,811135	272,198984	239,452983	0
15.01.2021	02:02:27	0	0	3,841731	1,5165	79,4304	-1,297	79,893	0	1008,6	4,8	7,1	7	1	1	1	1	1	1	1	1	1	0	1	-68,569415	272,284318	243,085211	0
15.01.2021	02:02:28	0	0	4,85866	1,4985	59,886	-1,291	79,886	0	1008,44	4,8	7,1	7	1	1	1	1	1	1	1	1	1	0	1	-71,458774	272,188175	239,755907	0
15.01.2021	02:02:29	0	0	4,293699	1,476	63,2556	-1,298	79,898	0	1008,58	4,8	7,1	7	1	1	1	1	1	1	1	1	1	0	1	-67,230444	272,115375	243,651419	0
15.01.2021	02:02:30	0	0	2,824802	1,419	63,4968	-1,294	79,895	0	1008,58	4,8	7,1	7	1	1	1	1	1	1	1	1	1	0	1	-72,093023	272,143653	238,918086	0
15.01.2021	02:02:31	0	0	4,745668	1,47525	55,9404	-1,295	79,877	0	1008,68	4,7	7,1	7	1	1	1	1	1	1	1	1	1	0	1	-70,754052	272,22468	240,627615	0
15.01.2021	02:02:32	0	0	3,276771	1,578	70,3188	-1,297	79,903	0	1008,58	4,8	7,1	7	1	1	1	1	1	1	1	1	1	0	1	-68,851304	272,105959	241,987528	0
15.01.2021	02:02:33	0	0	4,85866	1,67775	62,4276	-1,301	79,906	0	1008,52	4,8	7,1	7	1	1	1	1	1	1	1	1	1	0	1	-67,864693	272,26261	243,690555	0
15.01.2021	02:02:34	0	0	3,954723	1,65375	60,2496	-1,296	79,903	0	1008,66	4,8	7,1	7	1	1	1	1	1	1	1	1	1	0	1	-66,314306	272,273461	245,290614	0
15.01.2021	02:02:35	0	0	4,293699	1,67625	55,5588	-1,302	79,891	0	1008,56	4,8	7,1	7	1	1	1	1	1	1	1	1	1	0	1	-66,737139	272,197633	244,520798	0
15.01.2021	02:02:36	0	0	3,050786	1,70175	55,9404	-1,303	79,911	0	1008,56	4,8	7,1	7	1	1	1	1	1	1	1	1	1	0	1	-72,586328	272,265322	238,981335	0
15.01.2021	02:02:37	0	0	4,745668	1,6995	62,8092	-1,301	79,925	0	1008,6	4,8	7,1	7	1	1	1	1	1	1	1	1	1	0	1	-65,398168	272,126143	245,532904	0
15.01.2021	02:02:38	0	0	3,954723	1,71	73,0476	-1,3	79,919	0	1008,62	4,8	7,1	7	1	1	1	1	1	1	1	1	1	0	1	-71,67019	272,254476	239,847827	0
15.01.2021	02:02:39	0	0	3,163779	1,64775	59,4972	-1,3	79,939	0	1008,4	4,8	7,1	7	1	1	1	1	1	1	1	1	1	0	1	-70,68358	272,190877	240,543457	0
15.01.2021	02:02:40	0	0	2,824802	1,6875	67,6908	-1,304	79,936	0	1008,5	4,8	7,1	7	1	1	1	1	1	1	1	1	1	0	1	-70,472163	272,087139	240,280684	0
15.01.2021	02:02:41	0	0	3,389763	1,6905	68,4324	-1,306	79,941	0	1008,62	4,8	7,1	7	1	1	1	1	1	1	1	1	1	0	1	-72,727273	272,216561	238,617253	0
15.01.2021	02:02:42	0	0	5,197636	1,6665	72,6912	-1,312	79,941	0	1008,54	4,8	7,1	7	1	1	1	1	1	1	1	1	1	0	1	-69,344609	272,097891	241,45736	0
15.01.2021	02:02:43	0	0	5,197636	1,60725	73,0692	-1,309	79,954	0	1008,58	4,8	7,1	7	1	1	1	1	1	1	1	1	1	0	1	-73,713883	272,227386	237,680169	0
15.01.2021	02:02:44	0	0	3,728739	1,6065	70,218	-1,31	79,961	0	1008,62	4,8	7,1	7	1	1	1	1	1	1	1	1	1	0	1	-70,68358	272,165227	240,426159	0
15.01.2021	02:02:45	0	0	4,067715	1,63875	65,4804	-1,305	79,985	0	1008,6	4,7	7,1	7	1	1	1	1	1	1	1	1	1	0	1	-70,190275	272,096547	240,605552	0
15.01.2021	02:02:46	0	0	4,85866	1,6995	70,6536	-1,31	79,994	0	1008,5	4,8	7,1	7	1	1	1	1	1	1	1	1	1	0	1	-73,854827	272,232801	237,564001	0
15.01.2021	02:02:47	0	0	2,937794	1,7355	52,1532	-1,307	79,997	0	1008,64	4,7	7,1	7	1	1	1	1	1	1	1	1	1	0	1	-71,811135	272,22468	239,570533	0
15.01.2021	02:02:48	0	0	2,824802	1,77825	58,1112	-1,306	80,009	0	1008,5	4,7	7,1	7	1	1	1	1	1	1	1	1	1	0	1	-69,344609	272,261254	242,204433	0
15.01.2021	02:02:49	0	0	2,71181	1,74075	83,34	-1,31	79,997	0	1008,46	4,8	7,1	7	1	1	1	1	1	1	1	1	1	0	1	-68,428471	272,181423	242,755329	0
15.01.2021	02:02:50	0	0	3,276771	1,79175	68,1408	-1,306	80,023	0	1008,66	4,8	7,1	7	1	1	1	1	1	1	1	1	1	0	1	-71,458774	272,254476	240,059244	0
15.01.2021	02:02:51	0	0	3,050786	1,86975	71,3304	-1,31	80,018	0	1008,76	4,8	7,1	7	1	1	1	1	1	1	1	1	1	0	1	-69,485553	272,211151	241,834222	0
15.01.2021	02:02:52	0	0	3,050786	1,89825	66,942	-1,315	80,009	0	1008,48	4,8	7,1	7	1	1	1	1	1	1	1	1	1	0	1	-70,613108	272,230094	240,793332	0
15.01.2021	02:02:53	0	0	5,310628	1,929	68,04	-1,313	80,025	0	1008,64	4,8	7,1	7	1	1	1	1	1	1	1	1	1	0	1	-70,119803	272,072366	240,565558	0
15.01.2021	02:02:54	0	0	3,389763	1,85475	73,0548	-1,311	80,029	0	1008,54	4,7	7,1	7	1	1	1	1	1	1	1	1	1	0	1	-66,384778	272,143653	244,626331	0
15.01.2021	02:02:55	0	0	4,745668	1,7205	77,9688	-1,317	80,029	0	1008,56	4,9	7,1	7	1	1	1	1	1	1	1	1	1	0	1	-69,344609	272,075051	241,353017	0
15.01.2021	02:02:56	0	0	4,406692	1,6485	74,916	-1,31	80,041	0	1008,52	4,8	7,1	7	1	1	1	1	1	1	1	1	1	0	1	-69,767442	272,115375	241,114421	0
15.01.2021	02:02:57	0	0	3,389763	1,64025	69,4548	-1,314	80,037	0	1008,66	4,8	7,1	7	1	1	1	1	1	1	1	1	1	0	1	-70,260747	272,223326	241,114729	0
15.01.2021	02:02:58	0	0	3,050786	1,656	73,782	-1,315	80,047	0	1008,64	4,8	7,1	7	1	1	1	1	1	1	1	1	1	0	1	-66,737139	272,069681	243,935958	0
15.01.2021	02:02:59	0	0	4,971652	1,64025	74,5308	-1,316	80,031	0	1008,44	4,8	7,1	7	1	1	1	1	1	1	1	1	1	0	1	-70,190275	272,111339	240,673143	0
15.01.2021	02:03:00	0	0	4,632704	1,53225	80,496	-1,319	80,047	0	1008,6	4,8	7,1	6,9	1	1	1	1	1	1	1	1	1	0	1	-69,203665	272,182773	241,98631	0
15.01.2021	02:03:01	0	0	4,632704	1,53225	80,496	-1,319	80,047	0	1008,6	4,8	7,1	6,9	1	1	1	1	1	1	1	1	1	0	1	-69,203665	272,182773	241,98631	0
15.01.2021	02:03:02	0	0	4,406692	1,4865	72,6624	-1,317	80,052	0	1008,68	4,8	7,1	7	1	1	1	1	1	1	1	1	1	0	1	-70,613108	272,173323	240,533652	0
15.01.2021	02:03:03	0	0	3,728739	1,44525	82,3464	-1,317	80,061	0	1008,5	4,8	7,2	7	1	1	1	1	1	1	1	1	1	0	1	-73,079634	272,231447	238,333	0
15.01.2021	02:03:04	0	0	4,180707	1,404	88,1064	-1,327	80,056	0	1008,44	4,8	7,1	7	1	1	1	1	1	1	1	1	1	0	1	-73,361522	272,159831	237,723546	0
15.01.2021	02:03:05	0	0	4,745668	1,3575	82,9872	-1,324	80,077	0	1008,68	4,8	7	7	1	1	1	1	1	1	1	1	1	0	1	-66,173362	272,069681	244,499735	0
15.01.2021	02:03:06	0	0	4,180732	1,2945	83,3472	-1,32	80,068	0	1008,58	4,8	7,1	6,9	1	1	1	1	1	1	1	1	1	0	1	-69,556025	272,099235	241,252086	0
15.01.2021	02:03:07	0	0	2,71181	1,251	80,1612	-1,324	80,076	0	1008,56	4,8	7,2	7	1	1	1	1	1	1	1	1	1	0	1	-69,203665	272,205743	242,091369	0
15.01.2021	02:03:08	0	0	4,293699	1,236	69,462	-1,321	80,088	0	1008,52	4,8	7,1	7	1	1	1	1	1	1	1	1	1	0	1	-65,398168	272,205743	245,896866	0
15.01.2021	02:03:09	0	0	2,824802	1,24275	69,8616	-1,319	80,091	0	1008,58	4,8	7	7	1	1	1	1	1	1	1	1	1	0	1	-70,331219	272,126143	240,599853	0
15.01.2021	02:03:10	0	0	2,824802	1,21875	83,7144	-1,322	80,101	0	1008,54	4,8	7,2	7	1	1	1	1	1	1	1	1	1	0	1	-72,727273	272,065654	237,927433	0
15.01.2021	02:03:11	0	0	3,050786	1,2075	90,3924	-1,323	80,126	0	1008,64	4,8	7,1	7	1	1	1	1	1	1	1	1	1	0	1	-67,44186	272,208447	243,865543	0
15.01.2021	02:03:12	0	0	3,163779	1,1565	83,3652	-1,32	80,125	0	1008,78	4,8	7,1	7	1	1	1	1	1	1	1	1	1	0	1	-70,472163	272,169275	240,656083	0
15.01.2021	02:03:13	0	0	4,406718	1,14375	98,7624	-1,326	80,142	0	1008,62	4,8	7	6,9	1	1	1	1	1	1	1	1	1	0	1	-71,529246	272,230094	239,877193	0
15.01.2021	02:03:14	0	0	3,276771	1,1535	103,7052	-1,322	80,153	0	1008,64	4,8	7,2	7	1	1	1	1	1	1	1	1	1	0	1	-63,636364	272,128836	247,307016	0
15.01.2021	02:03:15	0	0	2,598834	1,152	92,6316	-1,322	80,175	0	1008,64	4,8	7	6,9	1	1	1	1	1	1	1	1	1	0	1	-66,525722	272,081766	244,202577	0
15.01.2021	02:03:16	0	0	3,163798	1,155	104,0472	-1,325	80,178	0	1008,6	4,8	7	6,9	1	1	1	1	1	1	1	1	1	0	1	-70,049331	272,079079	240,666698	0
15.01.2021	02:03:17	0	0	2,598834	1,18725	87,7176	-1,328	80,204	0	1008,54	4,8	7	6,9	1	1	1	1	1	1	1	1	1	0	1	-67,230444	272,22874	244,169802	0
15.01.2021	02:03:18	0	0	4,971652	1,149	87,7248	-1,321	80,22	0	1008,66	4,8	7,1	7	1	1	1	1	1	1	1	1	1	0	1	-69,203665	272,212504	242,122298	0
15.01.2021	02:03:19	0	0	2,598834	1,1505	97,3044	-1,327	80,259	0	1008,6	4,8	7	6,9	1	1	1	1	1	1	1	1	1	0	1	-74,489077	272,205743	236,805957	0
15.01.2021	02:03:20	0	0	4,519711	1,16625	97,7112	-1,325	80,268	0	1008,7	4,8	7,1	6,9	1	1	1	1	1	1	1	1	1	0	1	-67,159972	272,231447	244,252662	0
15.01.2021	02:03:21	0	0	3,502776	1,16625	92,2716	-1,321	80,269	0	1008,64	4,8	7,1	6,9	1	1	1	1	1	1	1	1	1	0	1	-71,458774	272,154437	239,601633	0
15.01.2021	02:03:22	0	0	4,971682	1,176	85,9212	-1,328	80,293	0	1008,56	4,8	7,1	6,9	1	1	1	1	1	1	1	1	1	0	1	-71,176885	272,230094	240,229554	0
15.01.2021	02:03:23	0	0	3,954747	1,24725	94,0896	-1,324	80,328	0	1008,58	4,8	7,1	6,9	1	1	1	1	1	1	1	1	1	0	1	-67,371388	272,176023	243,787716	0
15.01.2021	02:03:24	0	0	4,971682	1,302	98,7804	-1,326	80,344	0	1008,7	4,8	7,1	6,9	1	1	1	1	1	1	1	1	1	0	1	-66,596195	272,056262	244,015616	0
15.01.2021	02:03:25	0	0	5,084675	1,31625	89,7012	-1,325	80,369	0	1008,64	4,8	7,1	6,9	1	1	1	1	1	1	1	1	1	0	1	-70,68358	272,085796	240,06313	0
15.01.2021	02:03:26	0	0	2,824802	1,47375	101,1384	-1,329	80,403	0	1008,7	4,8	7,1	7	1	1	1	1	1	1	1	1	1	0	1	-71,952079	272,097891	238,84989	0
15.01.2021	02:03:27	0	0	4,858689	1,62075	85,9824	-1,323	80,419	0	1008,72	4,8	7,1	6,9	1	1	1	1	1	1	1	1	1	0	1	-67,371388	272,226033	244,016471	0
15.01.2021	02:03:28	0	0	2,372848	1,73625	87,7464	-1,324	80,445	0	1008,72	4,8	7,1	6,9	1	1	1	1	1	1	1	1	1	0	1	-70,824524	272,10058	239,98973	0
15.01.2021	02:03:29	0	0	3,841754	1,842	87,7392	-1,321	80,454	0	1008,8	4,8	7	6,9	1	1	1	1	1	1	1	1	1	0	1	-71,67019	272,056262	238,94162	0
15.01.2021	02:03:30	0	0	3,163798	1,81425	88,5564	-1,325	80,498	0	1008,62	4,8	7,1	6,9	1	1	1	1	1	1	1	1	1	0	1	-70,049331	272,064312	240,599245	0
15.01.2021	02:03:31	0	0	2,711826	1,71675	102,9564	-1,326	80,485	0	1008,66	4,8	7,1	6,9	1	1	1	1	1	1	1	1	1	0	1	-68,569415	272,223326	242,806061	0
15.01.2021	02:03:32	0	0	5,423653	1,71075	85,2408	-1,326	80,488	0	1008,7	4,8	7	6,9	1	1	1	1	1	1	1	1	1	0	1	-70,331219	272,044193	240,225478	0
15.01.2021	02:03:33	0	0	3,163798	1,66875	88,9596	-1,324	80,477	0	1008,62	4,8	7,1	6,9	1	1	1	1	1	1	1	1	1	0	1	-66,596195	272,192228	244,637021	0
15.01.2021	02:03:34	0	0	5,197667	1,641	90,7884	-1,329	80,455	0	1008,64	4,8	7,1	6,9	1	1	1	1	1	1	1	1	1	0	1	-68,569415	272,198984	242,694703	0
15.01.2021	02:03:35	0	0	4,858689	1,6395	83,754	-1,323	80,453	0	1008,62	4,8	7,1	6,9	1	1	1	1	1	1	1	1	1	0	1	-69,978858	272,180073	241,198766	0
15.01.2021	02:03:36	0	0	5,536646	1,64025	90,432	-1,326	80,441	0	1008,68	4,8	7,1	6,9	1	1	1	1	1	1	1	1	1	0	1	-65,609584	272,211151	245,710191	0
15.01.2021	02:03:37	0	0	4,519711	1,58475	83,7216	-1,326	80,443	0	1008,66	4,8	7,1	6,9	1	1	1	1	1	1	1	1	1	0	1	-69,767442	272,150393	241,274474	0
15.01.2021	02:03:38	0	0	5,423653	1,64475	69,8508	-1,324	80,436	0	1008,62	4,8	7,1	6,9	1	1	1	1	1	1	1	1	1	0	1	-67,582805	272,185474	243,619522	0
15.01.2021	02:03:39	0	0	2,937812	1,662	75,24	-1,331	80,413	0	1008,6	4,8	7,1	6,9	1	1	1	1	1	1	1	1	1	0	1	-67,512333	272,038831	243,019883	0
15.01.2021	02:03:40	0	0	3,728761	1,5495	71,2188	-1,328	80,418	0	1008,62	4,8	7,1	6,9	1	1	1	1	1	1	1	1	1	0	1	-71,247357	272,138264	239,739116	0
15.01.2021	02:03:41	0	0	4,293725	1,59	56,2752	-1,33	80,41	0	1008,58	4,8	7,1	6,9	1	1	1	1	1	1	1	1	1	0	1	-70,613108	272,201687	240,663375	0
15.01.2021	02:03:42	0	0	5,31066	1,68375	58,8708	-1,325	80,415	0	1008,72	4,8	7,1	6,9	1	1	1	1	1	1	1	1	1	0	1	-69,69697	272,215209	241,641368	0
15.01.2021	02:03:43	0	0	2,937812	1,782	62,0316	-1,323	80,409	0	1008,64	4,8	7,1	6,9	1	1	1	1	1	1	1	1	1	0	1	-72,30444	272,087139	238,448408	0
15.01.2021	02:03:44	0	0	4,293725	1,76625	69,8688	-1,33	80,408	0	1008,64	4,8	7,1	6,9	1	1	1	1	1	1	1	1	1	0	1	-71,529246	272,215209	239,809092	0
15.01.2021	02:03:45	0	0	4,632704	1,74	70,596	-1,332	80,411	0	1008,42	4,7	7,1	6,9	1	1	1	1	1	1	1	1	1	0	1	-71,599718	272,193579	239,639677	0
15.01.2021	02:03:46	0	0	4,971682	1,8165	79,0488	-1,331	80,426	0	1008,66	4,8	7,1	6,9	1	1	1	1	1	1	1	1	1	0	1	-71,035941	272,139611	239,95669	0
15.01.2021	02:03:47	0	0	3,728739	1,869	96,9768	-1,327	80,444	0	1008,66	4,8	7,1	7	1	1	1	1	1	1	1	1	1	0	1	-71,458774	272,203039	239,823892	0
15.01.2021	02:03:48	0	0	3,27679	1,87125	89,7012	-1,328	80,43	0	1008,78	4,8	7,1	6,9	1	1	1	1	1	1	1	1	1	0	1	-73,361522	272,071023	237,317706	0
15.01.2021	02:03:49	0	0	3,728739	2,031	94,1148	-1,333	80,422	0	1008,66	4,7	7,1	7	1	1	1	1	1	1	1	1	1	0	1	-66,102889	272,120758	244,803574	0
15.01.2021	02:03:50	0	0	4,067715	2,184	89,7336	-1,33	80,431	0	1008,6	4,8	7,1	7	1	1	1	1	1	1	1	1	1	0	1	-68,569415	272,045534	241,993403	0
15.01.2021	02:03:51	0	0	3,389783	2,3145	100,7568	-1,334	80,436	0	1008,7	4,7	7,1	6,9	1	1	1	1	1	1	1	1	1	0	1	-72,233968	272,208447	239,073436	0
15.01.2021	02:03:52	0	0	5,084675	2,196	96,9732	-1,329	80,46	0	1008,54	4,7	7,1	6,9	1	1	1	1	1	1	1	1	1	0	1	-69,556025	272,083109	241,17841	0
15.01.2021	02:03:53	0	0	3,841731	2,20275	104,4396	-1,327	80,46	0	1008,56	4,7	7,1	7	1	1	1	1	1	1	1	1	1	0	1	-67,300916	272,033472	243,206826	0
15.01.2021	02:03:54	0	0	3,050805	2,16525	93,3336	-1,332	80,473	0	1008,74	4,7	7,1	6,9	1	1	1	1	1	1	1	1	1	0	1	-69,415081	272,056262	241,196729	0
15.01.2021	02:03:55	0	0	3,841731	2,12775	89,6868	-1,334	80,453	0	1008,6	4,8	7,1	7	1	1	1	1	1	1	1	1	1	0	1	-69,626498	272,13557	241,34766	0
15.01.2021	02:03:56	0	0	4,519684	2,07	88,5852	-1,331	80,441	0	1008,64	4,7	7,1	7	1	1	1	1	1	1	1	1	1	0	1	-70,472163	272,205743	240,82287	0
15.01.2021	02:03:57	0	0	4,293699	1,9425	89,6904	-1,334	80,429	0	1008,48	4,7	7,1	7	1	1	1	1	1	1	1	1	1	0	1	-69,203665	272,072366	241,481696	0
15.01.2021	02:03:58	0	0	3,389783	1,9035	90,4104	-1,331	80,419	0	1008,78	4,7	7,1	6,9	1	1	1	1	1	1	1	1	1	0	1	-69,274137	272,200336	241,996163	0
15.01.2021	02:03:59	0	0	4,406692	1,95075	88,092	-1,333	80,403	0	1008,62	4,7	7,1	7	1	1	1	1	1	1	1	1	1	0	1	-66,948555	272,174673	244,204376	0
15.01.2021	02:04:00	0	0	3,502797	1,8885	98,4348	-1,333	80,363	0	1008,7	4,7	7,1	6,8	1	1	1	1	1	1	1	1	1	0	1	-66,525722	272,204391	244,763127	0
15.01.2021	02:04:01	0	0	3,502797	1,8885	98,4348	-1,333	80,363	0	1008,7	4,7	7,1	6,8	1	1	1	1	1	1	1	1	1	0	1	-66,525722	272,204391	244,763127	0
15.01.2021	02:04:02	0	0	4,067715	1,737	88,578	-1,333	80,33	0	1008,64	4,7	7,1	7	1	1	1	1	1	1	1	1	1	0	1	-70,190275	272,108649	240,660849	0
15.01.2021	02:04:03	0	0	3,163779	1,72575	84,8052	-1,334	80,311	0	1008,62	4,7	7,1	7	1	1	1	1	1	1	1	1	1	0	1	-65,750529	272,165227	245,35921	0
15.01.2021	02:04:04	0	0	2,824802	1,671	92,2572	-1,33	80,28	0	1008,52	4,8	7,1	7	1	1	1	1	1	1	1	1	1	0	1	-70,331219	272,198984	240,932899	0
15.01.2021	02:04:05	0	0	3,954723	1,56225	77,5944	-1,335	80,276	0	1008,52	4,7	7,1	7	1	1	1	1	1	1	1	1	1	0	1	-71,67019	272,140959	239,3286	0
15.01.2021	02:04:06	0	0	3,050786	1,4145	79,3908	-1,337	80,264	0	1008,64	4,7	7,1	7	1	1	1	1	1	1	1	1	1	0	1	-69,274137	272,203039	242,008529	0
15.01.2021	02:04:07	0	0	2,937794	1,398	85,5216	-1,334	80,246	0	1008,6	4,7	7,1	7	1	1	1	1	1	1	1	1	1	0	1	-66,737139	272,044193	243,819558	0
15.01.2021	02:04:08	0	0	3,389763	1,461	72,6732	-1,333	80,228	0	1008,56	4,7	7,1	7	1	1	1	1	1	1	1	1	1	0	1	-71,599718	272,112684	239,269847	0
15.01.2021	02:04:09	0	0	5,197636	1,584	72,6912	-1,332	80,177	0	1008,7	4,7	7,1	7	1	1	1	1	1	1	1	1	1	0	1	-71,458774	272,189526	239,762085	0
15.01.2021	02:04:10	0	0	5,310628	1,704	68,76	-1,334	80,16	0	1008,54	4,7	7,1	7	1	1	1	1	1	1	1	1	1	0	1	-70,824524	272,188175	240,390156	0
15.01.2021	02:04:11	0	0	4,067715	1,84425	72,3852	-1,336	80,166	0	1008,66	4,7	7,1	7	1	1	1	1	1	1	1	1	1	0	1	-73,784355	272,092514	236,993049	0
15.01.2021	02:04:12	0	0	4,745668	2,0145	86,7708	-1,338	80,163	0	1008,62	4,7	7,1	7	1	1	1	1	1	1	1	1	1	0	1	-72,656801	272,021417	237,795908	0
15.01.2021	02:04:13	0	0	2,598849	2,05425	72,2808	-1,343	80,162	0	1008,58	4,7	7,1	6,8	1	1	1	1	1	1	1	1	1	0	1	-70,542636	272,060287	240,087555	0
15.01.2021	02:04:14	0	0	2,824802	2,112	79,4196	-1,34	80,168	0	1008,62	4,7	7,1	7	1	1	1	1	1	1	1	1	1	0	1	-68,217054	272,108649	242,634069	0
15.01.2021	02:04:15	0	0	3,502755	2,166	67,2912	-1,334	80,183	0	1008,46	4,7	7,1	7	1	1	1	1	1	1	1	1	1	0	1	-74,91191	272,068338	235,755056	0
15.01.2021	02:04:16	0	0	4,293699	2,223	81,9756	-1,34	80,196	0	1008,48	4,7	7,1	7	1	1	1	1	1	1	1	1	1	0	1	-65,680056	272,122104	245,232558	0
15.01.2021	02:04:17	0	0	5,084644	2,24025	63,486	-1,337	80,192	0	1008,62	4,7	7,1	7	1	1	1	1	1	1	1	1	1	0	1	-65,680056	272,026774	244,797107	0
15.01.2021	02:04:18	0	0	4,067764	2,211	73,0656	-1,338	80,208	0	1008,64	4,7	7	6,8	1	1	1	1	1	1	1	1	1	0	1	-70,401691	272,167925	240,720385	0
15.01.2021	02:04:19	0	0	4,858718	2,2515	58,5036	-1,346	80,209	0	1008,56	4,7	7,1	6,8	1	1	1	1	1	1	1	1	1	0	1	-69,203665	272,132876	241,75818	0
15.01.2021	02:04:20	0	0	3,27681	2,35125	67,302	-1,339	80,214	0	1008,66	4,7	7,1	6,8	1	1	1	1	1	1	1	1	1	0	1	-73,502467	272,022756	236,956355	0
15.01.2021	02:04:21	0	0	3,954771	2,36925	57,726	-1,343	80,232	0	1008,58	4,7	7,1	6,8	1	1	1	1	1	1	1	1	1	0	1	-66,666667	272,167925	244,45541	0
15.01.2021	02:04:22	0	0	3,841777	2,26875	82,3572	-1,34	80,248	0	1008,6	4,7	7,1	6,8	1	1	1	1	1	1	1	1	1	0	1	-70,754052	272,022756	239,704769	0
15.01.2021	02:04:23	0	0	5,084644	2,22675	71,6112	-1,344	80,239	0	1008,62	4,7	7,1	7	1	1	1	1	1	1	1	1	1	0	1	-66,948555	272,022756	243,510266	0
15.01.2021	02:04:24	0	0	3,502755	2,145	73,4472	-1,341	80,25	0	1008,68	4,7	7	7	1	1	1	1	1	1	1	1	1	0	1	-69,415081	272,128836	241,528299	0
15.01.2021	02:04:25	0	0	4,180707	2,139	70,8588	-1,343	80,26	0	1008,56	4,7	7,1	7	1	1	1	1	1	1	1	1	1	0	1	-68,639887	272,022756	241,818934	0
15.01.2021	02:04:26	0	0	4,858718	2,1765	77,2308	-1,343	80,268	0	1008,62	4,7	7,1	6,8	1	1	1	1	1	1	1	1	1	0	1	-71,388302	272,177373	239,776975	0
15.01.2021	02:04:27	0	0	4,858718	2,2155	88,9884	-1,341	80,283	0	1008,56	4,7	7	6,8	1	1	1	1	1	1	1	1	1	0	1	-70,260747	272,128836	240,682633	0
15.01.2021	02:04:28	0	0	4,067764	2,16975	48,1248	-1,344	80,289	0	1008,68	4,7	7	6,8	1	1	1	1	1	1	1	1	1	0	1	-67,512333	272,159831	243,572736	0
15.01.2021	02:04:29	0	0	4,632731	2,1	58,5	-1,345	80,306	0	1008,66	4,7	7	6,8	1	1	1	1	1	1	1	1	1	0	1	-69,556025	272,123451	241,362741	0
15.01.2021	02:04:30	0	0	2,711843	1,96875	67,4064	-1,348	80,32	0	1008,58	4,7	7	6,8	1	1	1	1	1	1	1	1	1	0	1	-70,401691	272,012047	240,008243	0
15.01.2021	02:04:31	0	0	4,971712	1,95225	55,5624	-1,346	80,306	0	1008,52	4,7	7	6,8	1	1	1	1	1	1	1	1	1	0	1	-67,864693	272,143653	243,146416	0
15.01.2021	02:04:32	0	0	3,954771	1,9425	60,966	-1,348	80,347	0	1008,52	4,7	7	6,8	1	1	1	1	1	1	1	1	1	0	1	-68,217054	272,064312	242,431522	0
15.01.2021	02:04:33	0	0	4,519738	2,03625	67,0176	-1,345	80,358	0	1008,62	4,7	7	6,8	1	1	1	1	1	1	1	1	1	0	1	-67,230444	272,000006	243,124531	0
15.01.2021	02:04:34	0	0	4,067764	2,00475	68,4144	-1,346	80,363	0	1008,58	4,7	7	6,8	1	1	1	1	1	1	1	1	1	0	1	-68,217054	272,041512	242,327401	0
15.01.2021	02:04:35	0	0	2,824836	1,98225	63,5004	-1,353	80,368	0	1008,46	4,7	7	6,8	1	1	1	1	1	1	1	1	1	0	1	-72,233968	272,142306	238,770982	0
15.01.2021	02:04:36	0	0	3,163816	1,878	54,4932	-1,35	80,361	0	1008,56	4,7	7	6,8	1	1	1	1	1	1	1	1	1	0	1	-70,472163	272,022756	239,986658	0
15.01.2021	02:04:37	0	0	3,27681	1,92675	64,6272	-1,352	80,354	0	1008,76	4,7	7	6,8	1	1	1	1	1	1	1	1	1	0	1	-73,9253	272,101924	236,895098	0
15.01.2021	02:04:38	0	0	2,711843	1,881	57,0528	-1,346	80,389	0	1008,66	4,7	7	6,8	1	1	1	1	1	1	1	1	1	0	1	-68,992248	272,182773	242,197727	0
15.01.2021	02:04:39	0	0	3,163816	1,92975	55,1844	-1,349	80,385	0	1008,62	4,7	7,1	6,8	1	1	1	1	1	1	1	1	1	0	1	-68,780832	272,11403	242,094882	0
15.01.2021	02:04:40	0	0	3,050823	1,94925	51,7572	-1,351	80,392	0	1008,74	4,7	7	6,8	1	1	1	1	1	1	1	1	1	0	1	-71,67019	272,018739	238,770295	0
15.01.2021	02:04:41	0	0	4,632731	2,06025	52,9524	-1,349	80,398	0	1008,46	4,7	7	6,8	1	1	1	1	1	1	1	1	1	0	1	-70,965469	272,142306	240,039481	0
15.01.2021	02:04:42	0	0	4,519738	2,30475	56,6856	-1,352	80,385	0	1008,54	4,7	7	6,8	1	1	1	1	1	1	1	1	1	0	1	-69,69697	272,122104	241,215645	0
15.01.2021	02:04:43	0	0	4,858718	2,44725	55,188	-1,347	80,389	0	1008,64	4,7	7,1	6,8	1	1	1	1	1	1	1	1	1	0	1	-70,119803	272,176023	241,039301	0
15.01.2021	02:04:44	0	0	2,93783	2,50725	66,528	-1,361	80,381	0	1008,66	4,7	7	6,8	1	1	1	1	1	1	1	1	1	0	1	-68,569415	272,042852	241,981161	0
15.01.2021	02:04:45	0	0	2,485856	2,40825	52,5276	-1,351	80,395	0	1008,48	4,7	7	6,8	1	1	1	1	1	1	1	1	1	0	1	-71,881607	272,165227	239,228132	0
15.01.2021	02:04:46	0	0	5,197699	2,2965	60,948	-1,35	80,374	0	1008,66	4,7	7	6,8	1	1	1	1	1	1	1	1	1	0	1	-67,582805	272,167925	243,539272	0
15.01.2021	02:04:47	0	0	4,067764	2,16675	58,8708	-1,353	80,37	0	1008,62	4,7	7	6,8	1	1	1	1	1	1	1	1	1	0	1	-67,864693	272,085796	242,882016	0
15.01.2021	02:04:48	0	0	4,971712	2,052	72,7488	-1,351	80,373	0	1008,42	4,7	7	6,8	1	1	1	1	1	1	1	1	1	0	1	-68,639887	272,012047	241,770047	0
15.01.2021	02:04:49	0	0	4,406744	1,88625	70,2432	-1,356	80,375	0	1008,66	4,7	7	6,8	1	1	1	1	1	1	1	1	1	0	1	-66,948555	272,171973	244,192033	0
15.01.2021	02:04:50	0	0	5,536679	1,761	60,9444	-1,351	80,364	0	1008,58	4,8	7	6,8	1	1	1	1	1	1	1	1	1	0	1	-66,243834	272,071023	244,435395	0
15.01.2021	02:04:51	0	0	3,728784	1,64325	73,7856	-1,354	80,382	0	1008,74	4,7	7	6,8	1	1	1	1	1	1	1	1	1	0	1	-63,424947	272,167925	247,69713	0
15.01.2021	02:04:52	0	0	2,824836	1,5915	70,8516	-1,351	80,38	0	1008,5	4,7	7	6,8	1	1	1	1	1	1	1	1	1	0	1	-72,093023	272,097891	238,708946	0
15.01.2021	02:04:53	0	0	2,824836	1,572	60,5556	-1,353	80,391	0	1008,7	4,8	7	6,8	1	1	1	1	1	1	1	1	1	0	1	-64,059197	272,012047	246,350737	0
15.01.2021	02:04:54	0	0	5,31066	1,56075	59,0976	-1,353	80,379	0	1008,7	4,8	7	6,9	1	1	1	1	1	1	1	1	1	0	1	-67,0895	272,001343	243,27158	0
15.01.2021	02:04:55	0	0	2,937812	1,581	60,9336	-1,356	80,379	0	1008,68	4,7	7,1	6,9	1	1	1	1	1	1	1	1	1	0	1	-67,44186	272,079079	243,274168	0
15.01.2021	02:04:56	0	0	2,485856	1,85625	58,878	-1,354	80,362	0	1008,58	4,8	7	6,8	1	1	1	1	1	1	1	1	1	0	1	-69,06272	272,163878	242,04085	0
15.01.2021	02:04:57	0	0	2,824836	2,016	71,2404	-1,357	80,36	0	1008,64	4,7	7	6,8	1	1	1	1	1	1	1	1	1	0	1	-67,935166	272,103269	242,891376	0
15.01.2021	02:04:58	0	0	2,937812	2,07675	77,976	-1,363	80,34	0	1008,54	4,8	7	6,9	1	1	1	1	1	1	1	1	1	0	1	-69,415081	272,159831	241,669988	0
15.01.2021	02:04:59	0	0	2,711843	2,049	79,7472	-1,36	80,332	0	1008,68	4,8	7	6,8	1	1	1	1	1	1	1	1	1	0	1	-67,300916	272,008032	243,090694	0
15.01.2021	02:05:00	0	0	4,858689	1,95	71,262	-1,361	80,302	0	1008,52	4,7	7	6,9	1	1	1	1	1	1	1	1	1	0	1	-70,049331	272,150393	240,992586	0
15.01.2021	02:05:01	0	0	4,858689	1,95	71,262	-1,361	80,302	0	1008,52	4,7	7	6,9	1	1	1	1	1	1	1	1	1	0	1	-70,049331	272,150393	240,992586	0
15.01.2021	02:05:02	0	0	5,084675	1,97925	68,04	-1,356	80,31	0	1008,72	4,8	7	6,9	1	1	1	1	1	1	1	1	1	0	1	-64,341085	272,093858	246,442459	0
15.01.2021	02:05:03	0	0	3,841754	2,06475	74,934	-1,356	80,289	0	1008,7	4,8	7	6,9	1	1	1	1	1	1	1	1	1	0	1	-68,498943	272,157134	242,573794	0
15.01.2021	02:05:04	0	0	4,406718	2,19525	71,9712	-1,358	80,262	0	1008,42	4,8	7	6,9	1	1	1	1	1	1	1	1	1	0	1	-68,287526	272,146349	242,735904	0
15.01.2021	02:05:05	0	0	4,858689	2,298	68,7924	-1,361	80,26	0	1008,76	4,8	7	6,9	1	1	1	1	1	1	1	1	1	0	1	-70,119803	272,09117	240,651461	0
15.01.2021	02:05:06	0	0	3,728761	2,3355	70,8372	-1,36	80,233	0	1008,74	4,8	7	6,9	1	1	1	1	1	1	1	1	1	0	1	-69,344609	271,982627	240,931055	0
15.01.2021	02:05:07	0	0	4,971682	2,4195	68,0472	-1,363	80,208	0	1008,6	4,8	7	6,9	1	1	1	1	1	1	1	1	1	0	1	-69,908386	272,020078	240,53821	0
15.01.2021	02:05:08	0	0	2,711826	2,496	58,1184	-1,363	80,217	0	1008,66	4,7	7	6,9	1	1	1	1	1	1	1	1	1	0	1	-70,894996	271,983963	239,386765	0
15.01.2021	02:05:09	0	0	3,050823	2,47125	61,3044	-1,363	80,204	0	1008,54	4,7	7	6,8	1	1	1	1	1	1	1	1	1	0	1	-69,978858	272,112684	240,890707	0
15.01.2021	02:05:10	0	0	4,971682	2,385	56,3796	-1,365	80,197	0	1008,68	4,8	7	6,9	1	1	1	1	1	1	1	1	1	0	1	-68,217054	272,010708	242,186771	0
15.01.2021	02:05:11	0	0	2,937812	2,307	52,506	-1,362	80,19	0	1008,64	4,7	7	6,9	1	1	1	1	1	1	1	1	1	0	1	-66,807611	271,990646	243,504647	0
15.01.2021	02:05:12	0	0	2,937812	2,32275	55,9296	-1,363	80,184	0	1008,52	4,8	7	6,9	1	1	1	1	1	1	1	1	1	0	1	-68,005638	272,127489	242,931588	0
15.01.2021	02:05:13	0	0	4,858689	2,18175	42,21	-1,361	80,172	0	1008,66	4,7	7	6,9	1	1	1	1	1	1	1	1	1	0	1	-69,626498	272,004019	240,746792	0
15.01.2021	02:05:14	0	0	4,745696	2,08875	53,7192	-1,368	80,138	0	1008,62	4,7	7	6,9	1	1	1	1	1	1	1	1	1	0	1	-70,401691	271,990646	239,910567	0
15.01.2021	02:05:15	0	0	5,084675	1,96875	61,6932	-1,361	80,132	0	1008,6	4,7	7	6,9	1	1	1	1	1	1	1	1	1	0	1	-69,274137	272,089827	241,490988	0
15.01.2021	02:05:16	0	0	4,293725	1,902	69,8544	-1,361	80,102	0	1008,68	4,7	7	6,9	1	1	1	1	1	1	1	1	1	0	1	-72,586328	271,975947	237,658855	0
15.01.2021	02:05:17	0	0	4,293725	1,7865	71,6076	-1,359	80,11	0	1008,66	4,7	7	6,9	1	1	1	1	1	1	1	1	1	0	1	-72,727273	272,008032	237,664337	0
15.01.2021	02:05:18	0	0	3,502776	1,737	70,8372	-1,365	80,117	0	1008,52	4,7	7	6,9	1	1	1	1	1	1	1	1	1	0	1	-70,331219	272,101924	240,489179	0
15.01.2021	02:05:19	0	0	4,858689	1,707	82,5984	-1,367	80,117	0	1008,62	4,7	7	6,9	1	1	1	1	1	1	1	1	1	0	1	-70,824524	272,132876	240,137321	0
15.01.2021	02:05:20	0	0	4,745696	1,668	79,398	-1,374	80,126	0	1008,7	4,8	7	6,9	1	1	1	1	1	1	1	1	1	0	1	-70,472163	272,044193	240,084533	0
15.01.2021	02:05:21	0	0	3,050805	1,68525	79,7436	-1,371	80,122	0	1008,54	4,7	7	6,9	1	1	1	1	1	1	1	1	1	0	1	-70,260747	271,986636	240,033212	0
15.01.2021	02:05:22	0	0	4,180732	1,6725	74,52	-1,37	80,124	0	1008,72	4,7	7	6,9	1	1	1	1	1	1	1	1	1	0	1	-69,767442	272,005356	240,611954	0
15.01.2021	02:05:23	0	0	4,745696	1,692	75,24	-1,373	80,101	0	1008,8	4,7	7	6,9	1	1	1	1	1	1	1	1	1	0	1	-66,173362	272,006694	244,212141	0
15.01.2021	02:05:24	0	0	3,389783	1,77525	58,8564	-1,377	80,106	0	1008,68	4,7	7,1	6,9	1	1	1	1	1	1	1	1	1	0	1	-70,965469	272,136917	240,014846	0
15.01.2021	02:05:25	0	0	3,954747	2,0145	69,4512	-1,376	80,089	0	1008,76	4,7	7	6,9	1	1	1	1	1	1	1	1	1	0	1	-69,767442	272,065654	240,887263	0
15.01.2021	02:05:26	0	0	3,27681	2,1285	58,4964	-1,379	80,084	0	1008,74	4,7	7	6,8	1	1	1	1	1	1	1	1	1	0	1	-66,173362	272,134223	244,79464	0
15.01.2021	02:05:27	0	0	4,632704	2,3685	60,5412	-1,376	80,056	0	1008,68	4,7	7,1	6,9	1	1	1	1	1	1	1	1	1	0	1	-70,331219	271,977283	239,920059	0
15.01.2021	02:05:28	0	0	2,711826	2,71425	57,0384	-1,373	80,038	0	1008,72	4,7	7,1	6,9	1	1	1	1	1	1	1	1	1	0	1	-69,06272	272,045534	241,500098	0
15.01.2021	02:05:29	0	0	2,146875	2,81925	58,4928	-1,376	80,019	0	1008,7	4,7	7	6,8	1	1	1	1	1	1	1	1	1	0	1	-69,485553	272,123451	241,433213	0
15.01.2021	02:05:30	0	0	3,163816	2,9505	57,0456	-1,378	79,99	0	1008,74	4,7	7	6,8	1	1	1	1	1	1	1	1	1	0	1	-69,415081	271,970604	240,805727	0
15.01.2021	02:05:31	0	0	2,598849	2,98575	51,444	-1,383	79,983	0	1008,62	4,7	7,1	6,8	1	1	1	1	1	1	1	1	1	0	1	-67,019027	272,089827	243,746097	0
15.01.2021	02:05:32	0	0	3,050805	3,00225	51,4512	-1,382	79,984	0	1008,62	4,7	7,1	6,9	1	1	1	1	1	1	1	1	1	0	1	-67,864693	271,954586	242,283038	0
15.01.2021	02:05:33	0	0	4,971682	2,85975	54,7884	-1,381	79,975	0	1008,68	4,7	7,1	6,9	1	1	1	1	1	1	1	1	1	0	1	-67,371388	272,005356	243,008008	0
15.01.2021	02:05:34	0	0	4,971712	2,7885	55,1916	-1,379	79,972	0	1008,6	4,7	7,1	6,8	1	1	1	1	1	1	1	1	1	0	1	-68,780832	272,112684	242,088734	0
15.01.2021	02:05:35	0	0	4,632731	2,8485	56,6568	-1,38	79,956	0	1008,5	4,7	7	6,8	1	1	1	1	1	1	1	1	1	0	1	-67,512333	272,11403	243,363381	0
15.01.2021	02:05:36	0	0	2,824819	2,96475	55,1844	-1,382	79,938	0	1008,64	4,7	7,1	6,9	1	1	1	1	1	1	1	1	1	0	1	-69,415081	272,016062	241,013182	0
15.01.2021	02:05:37	0	0	4,067764	3,00825	52,8912	-1,391	79,937	0	1008,68	4,7	7,1	6,8	1	1	1	1	1	1	1	1	1	0	1	-71,317829	272,150393	239,724087	0
15.01.2021	02:05:38	0	0	5,084705	3,1035	53,352	-1,385	79,975	0	1008,62	4,7	7	6,8	1	1	1	1	1	1	1	1	1	0	1	-70,119803	272,109994	240,737468	0
15.01.2021	02:05:39	0	0	3,841777	3,0435	48,1176	-1,387	79,997	0	1008,7	4,7	7,1	6,8	1	1	1	1	1	1	1	1	1	0	1	-64,763918	272,024095	245,701017	0
15.01.2021	02:05:40	0	0	4,293751	2,96175	51,75	-1,384	80,043	0	1008,52	4,7	7,1	6,8	1	1	1	1	1	1	1	1	1	0	1	-69,415081	272,136917	241,565234	0
15.01.2021	02:05:41	0	0	3,163798	2,94075	50,688	-1,388	80,105	0	1008,58	4,7	7,1	6,9	1	1	1	1	1	1	1	1	1	0	1	-65,961945	272,000006	244,39303	0
15.01.2021	02:05:42	0	0	4,632704	2,84175	66,9204	-1,382	80,166	0	1008,58	4,7	7,1	6,9	1	1	1	1	1	1	1	1	1	0	1	-71,458774	272,130183	239,49076	0
15.01.2021	02:05:43	0	0	5,084705	2,66175	70,596	-1,386	80,231	0	1008,66	4,7	7,1	6,8	1	1	1	1	1	1	1	1	1	0	1	-71,599718	272,119413	239,300594	0
15.01.2021	02:05:44	0	0	4,293751	2,60625	57,726	-1,392	80,258	0	1008,58	4,7	7,1	6,8	1	1	1	1	1	1	1	1	1	0	1	-67,159972	272,077736	243,549922	0
15.01.2021	02:05:45	0	0	3,050823	2,52375	51,0516	-1,383	80,297	0	1008,78	4,7	7	6,8	1	1	1	1	1	1	1	1	1	0	1	-68,569415	272,150393	242,472501	0
15.01.2021	02:05:46	0	0	3,61579	2,4075	63,2016	-1,391	80,3	0	1008,6	4,7	7,1	6,8	1	1	1	1	1	1	1	1	1	0	1	-69,485553	272,036151	241,034425	0
15.01.2021	02:05:47	0	0	4,293751	2,40375	71,5968	-1,387	80,324	0	1008,64	4,7	7,1	6,8	1	1	1	1	1	1	1	1	1	0	1	-70,68358	272,123451	240,235186	0
15.01.2021	02:05:48	0	0	3,389803	2,31225	77,9616	-1,397	80,311	0	1008,68	4,7	7,1	6,8	1	1	1	1	1	1	1	1	1	0	1	-68,569415	272,058945	242,054648	0
15.01.2021	02:05:49	0	0	4,971712	2,17125	83,7324	-1,385	80,331	0	1008,62	4,7	7	6,8	1	1	1	1	1	1	1	1	1	0	1	-70,190275	272,136917	240,79004	0
15.01.2021	02:05:50	0	0	5,310692	2,07525	83,3472	-1,388	80,33	0	1008,4	4,7	7,1	6,8	1	1	1	1	1	1	1	1	1	0	1	-72,727273	272,134223	238,240728	0
15.01.2021	02:05:51	0	0	3,27681	1,932	85,1868	-1,389	80,351	0	1008,52	4,7	7	6,8	1	1	1	1	1	1	1	1	1	0	1	-68,07611	272,052238	242,517324	0
15.01.2021	02:05:52	0	0	2,93783	1,86	91,5228	-1,383	80,376	0	1008,68	4,7	7,1	6,8	1	1	1	1	1	1	1	1	1	0	1	-67,794221	271,963929	242,396129	0
15.01.2021	02:05:53	0	0	4,406744	1,76925	81,9828	-1,387	80,379	0	1008,62	4,7	7	6,8	1	1	1	1	1	1	1	1	1	0	1	-65,46864	272,036151	245,051338	0
15.01.2021	02:05:54	0	0	3,389803	1,79475	98,4852	-1,383	80,395	0	1008,66	4,7	7	6,8	1	1	1	1	1	1	1	1	1	0	1	-69,908386	271,985299	240,379474	0
15.01.2021	02:05:55	0	0	5,084705	1,767	88,0848	-1,393	80,399	0	1008,6	4,7	7	6,8	1	1	1	1	1	1	1	1	1	0	1	-70,472163	271,963929	239,718187	0
15.01.2021	02:05:56	0	0	4,745725	1,70025	95,1228	-1,389	80,416	0	1008,6	4,7	7	6,8	1	1	1	1	1	1	1	1	1	0	1	-69,556025	272,049556	241,025161	0
15.01.2021	02:05:57	0	0	4,858718	1,614	93,3336	-1,383	80,453	0	1008,62	4,7	7	6,8	1	1	1	1	1	1	1	1	1	0	1	-69,908386	272,122104	241,004228	0
15.01.2021	02:05:58	0	0	3,27681	1,44975	96,9804	-1,386	80,446	0	1008,56	4,7	7	6,8	1	1	1	1	1	1	1	1	1	0	1	-67,230444	271,97194	242,996457	0
15.01.2021	02:05:59	0	0	3,389803	1,326	107,046	-1,389	80,483	0	1008,7	4,7	7	6,8	1	1	1	1	1	1	1	1	1	0	1	-67,653277	272,069681	243,01982	0
15.01.2021	02:06:00	0	0	3,27681	1,22925	88,9416	-1,39	80,502	0	1008,7	4,7	7,1	6,8	1	1	1	1	1	1	1	1	1	0	1	-68,851304	272,130183	242,09823	0
15.01.2021	02:06:01	0	0	3,27681	1,22925	88,9416	-1,39	80,502	0	1008,7	4,7	7,1	6,8	1	1	1	1	1	1	1	1	1	0	1	-68,851304	272,130183	242,09823	0
15.01.2021	02:06:02	0	0	4,406744	1,12575	74,1672	-1,388	80,518	0	1008,72	4,7	7	6,8	1	1	1	1	1	1	1	1	1	0	1	-69,978858	272,013385	240,437185	0
15.01.2021	02:06:03	0	0	2,824836	1,00875	76,806	-1,395	80,507	0	1008,7	4,7	7	6,8	1	1	1	1	1	1	1	1	1	0	1	-71,881607	272,122104	239,031008	0
15.01.2021	02:06:04	0	0	3,728784	1,01775	85,212	-1,389	80,517	0	1008,6	4,7	7	6,8	1	1	1	1	1	1	1	1	1	0	1	-67,794221	271,991983	242,524138	0
15.01.2021	02:06:05	0	0	3,841777	1,05975	61,3224	-1,385	80,55	0	1008,74	4,7	7	6,8	1	1	1	1	1	1	1	1	1	0	1	-69,415081	271,965264	240,78136	0
15.01.2021	02:06:06	0	0	5,536679	1,074	58,5	-1,386	80,543	0	1008,7	4,7	7,1	6,8	1	1	1	1	1	1	1	1	1	0	1	-70,049331	272,108649	240,801793	0
15.01.2021	02:06:07	0	0	3,954771	1,0785	63,4932	-1,389	80,554	0	1008,7	4,7	7	6,8	1	1	1	1	1	1	1	1	1	0	1	-63,354475	271,983963	246,927287	0
15.01.2021	02:06:08	0	0	5,423685	1,086	54,81	-1,389	80,578	0	1008,62	4,7	7	6,8	1	1	1	1	1	1	1	1	1	0	1	-73,713883	271,95859	236,45211	0
15.01.2021	02:06:09	0	0	4,745725	1,18425	63,504	-1,385	80,57	0	1008,68	4,7	7	6,8	1	1	1	1	1	1	1	1	1	0	1	-72,515856	272,00937	237,881861	0
15.01.2021	02:06:10	0	0	5,084705	1,338	64,2528	-1,385	80,587	0	1008,56	4,7	7	6,8	1	1	1	1	1	1	1	1	1	0	1	-67,300916	272,126143	243,630156	0
15.01.2021	02:06:11	0	0	4,858718	1,419	66,5532	-1,385	80,614	0	1008,52	4,7	7	6,8	1	1	1	1	1	1	1	1	1	0	1	-66,948555	272,112684	243,92101	0
15.01.2021	02:06:12	0	0	5,197699	1,347	53,8344	-1,388	80,618	0	1008,54	4,7	7	6,8	1	1	1	1	1	1	1	1	1	0	1	-68,146582	272,084452	242,59399	0
15.01.2021	02:06:13	0	0	4,858718	1,30275	54,0936	-1,386	80,645	0	1008,66	4,7	7	6,8	1	1	1	1	1	1	1	1	1	0	1	-68,07611	272,136917	242,904205	0
15.01.2021	02:06:14	0	0	3,954771	1,293	63,1764	-1,384	80,642	0	1008,64	4,7	7	6,8	1	1	1	1	1	1	1	1	1	0	1	-67,44186	272,037491	243,084236	0
15.01.2021	02:06:15	0	0	3,728784	1,31325	69,156	-1,387	80,655	0	1008,72	4,7	7	6,8	1	1	1	1	1	1	1	1	1	0	1	-67,0895	272,123451	243,829267	0
15.01.2021	02:06:16	0	0	4,971712	1,284	82,0368	-1,388	80,664	0	1008,6	4,7	7	6,8	1	1	1	1	1	1	1	1	1	0	1	-65,257223	272,10058	245,557031	0
15.01.2021	02:06:17	0	0	2,711843	1,22925	80,8992	-1,389	80,667	0	1008,64	4,7	7	6,8	1	1	1	1	1	1	1	1	1	0	1	-72,727273	271,983963	237,554489	0
15.01.2021	02:06:18	0	0	4,858718	1,203	74,5308	-1,387	80,673	0	1008,64	4,7	7	6,8	1	1	1	1	1	1	1	1	1	0	1	-66,948555	272,116721	243,939457	0
15.01.2021	02:06:19	0	0	4,745725	1,1595	70,2216	-1,385	80,663	0	1008,54	4,7	7	6,8	1	1	1	1	1	1	1	1	1	0	1	-67,794221	272,030792	242,701288	0
15.01.2021	02:06:20	0	0	4,067764	1,2195	65,0844	-1,387	80,66	0	1008,7	4,7	7	6,8	1	1	1	1	1	1	1	1	1	0	1	-68,07611	271,962594	242,10815	0
15.01.2021	02:06:21	0	0	3,841777	1,269	66,222	-1,391	80,673	0	1008,7	4,7	7	6,8	1	1	1	1	1	1	1	1	1	0	1	-67,019027	272,065654	243,635678	0
15.01.2021	02:06:22	0	0	2,824836	1,61025	62,4276	-1,384	80,668	0	1008,5	4,7	7	6,8	1	1	1	1	1	1	1	1	1	0	1	-68,710359	272,118067	242,183802	0
15.01.2021	02:06:23	0	0	3,841777	1,9515	76,0752	-1,384	80,671	0	1008,64	4,7	7	6,8	1	1	1	1	1	1	1	1	1	0	1	-67,512333	272,022756	242,946489	0
15.01.2021	02:06:24	0	0	3,389803	2,14275	72,6552	-1,389	80,685	0	1008,64	4,7	7	6,8	1	1	1	1	1	1	1	1	1	0	1	-65,045807	271,998668	245,303064	0
15.01.2021	02:06:25	0	0	4,858718	2,23275	70,2324	-1,385	80,685	0	1008,68	4,7	7	6,8	1	1	1	1	1	1	1	1	1	0	1	-64,83439	271,947916	245,282914	0
15.01.2021	02:06:26	0	0	4,406744	2,1945	63,4752	-1,386	80,674	0	1008,64	4,7	7	6,8	1	1	1	1	1	1	1	1	1	0	1	-66,525722	272,05492	244,079962	0
15.01.2021	02:06:27	0	0	3,050823	2,25675	77,2056	-1,386	80,681	0	1008,7	4,7	7	6,8	1	1	1	1	1	1	1	1	1	0	1	-66,384778	272,126143	244,546294	0
15.01.2021	02:06:28	0	0	4,632731	2,196	59,1192	-1,389	80,685	0	1008,7	4,6	7	6,8	1	1	1	1	1	1	1	1	1	0	1	-66,737139	272,128836	244,206241	0
15.01.2021	02:06:29	0	0	4,858718	2,073	42,912	-1,383	80,687	0	1008,64	4,6	7	6,8	1	1	1	1	1	1	1	1	1	0	1	-74,630021	272,105959	236,208811	0
15.01.2021	02:06:30	0	0	4,406744	1,94025	46,5984	-1,389	80,69	0	1008,66	4,7	7	6,8	1	1	1	1	1	1	1	1	1	0	1	-65,821001	272,053579	244,778558	0
15.01.2021	02:06:31	0	0	3,163816	1,7835	54,504	-1,384	80,692	0	1008,66	4,7	7	6,8	1	1	1	1	1	1	1	1	1	0	1	-74,207188	272,130183	236,742346	0
15.01.2021	02:06:32	0	0	4,745725	1,68	60,5556	-1,382	80,682	0	1008,66	4,6	7	6,8	1	1	1	1	1	1	1	1	1	0	1	-68,498943	272,064312	242,149633	0
15.01.2021	02:06:33	0	0	3,841777	1,64325	54,4968	-1,385	80,665	0	1008,58	4,7	7	6,8	1	1	1	1	1	1	1	1	1	0	1	-67,935166	272,132876	243,026679	0
15.01.2021	02:06:34	0	0	2,485856	1,644	58,482	-1,383	80,652	0	1008,58	4,7	7	6,8	1	1	1	1	1	1	1	1	1	0	1	-71,388302	271,974611	238,850787	0
15.01.2021	02:06:35	0	0	4,180758	1,86375	60,552	-1,38	80,658	0	1008,62	4,6	7	6,8	1	1	1	1	1	1	1	1	1	0	1	-69,415081	272,034811	241,098779	0
15.01.2021	02:06:36	0	0	3,163816	2,199	60,552	-1,382	80,65	0	1008,7	4,7	7	6,8	1	1	1	1	1	1	1	1	1	0	1	-65,257223	271,970604	244,963584	0
15.01.2021	02:06:37	0	0	3,841777	2,3895	51,066	-1,381	80,631	0	1008,66	4,7	7	6,8	1	1	1	1	1	1	1	1	1	0	1	-65,539112	271,982627	244,736552	0
15.01.2021	02:06:38	0	0	3,389803	2,47875	53,3448	-1,382	80,631	0	1008,8	4,7	7	6,8	1	1	1	1	1	1	1	1	1	0	1	-66,102889	271,982627	244,172775	0
15.01.2021	02:06:39	0	0	4,406744	2,60325	60,9444	-1,379	80,601	0	1008,6	4,7	7	6,8	1	1	1	1	1	1	1	1	1	0	1	-68,569415	271,962594	241,614845	0
15.01.2021	02:06:40	0	0	3,050823	2,595	66,906	-1,385	80,607	0	1008,68	4,6	7	6,8	1	1	1	1	1	1	1	1	1	0	1	-67,864693	271,975947	242,38049	0
15.01.2021	02:06:41	0	0	4,971712	2,58375	66,1968	-1,384	80,581	0	1008,72	4,7	7	6,8	1	1	1	1	1	1	1	1	1	0	1	-69,767442	272,014723	240,654711	0
15.01.2021	02:06:42	0	0	4,858718	2,568	62,1288	-1,39	80,582	0	1008,64	4,7	7	6,8	1	1	1	1	1	1	1	1	1	0	1	-71,106413	271,961259	239,071758	0
15.01.2021	02:06:43	0	0	4,180758	2,5275	56,6568	-1,382	80,577	0	1008,44	4,6	7	6,8	1	1	1	1	1	1	1	1	1	0	1	-69,69697	272,029453	240,792424	0
15.01.2021	02:06:44	0	0	2,711843	2,4255	47,0052	-1,386	80,57	0	1008,74	4,6	7	6,8	1	1	1	1	1	1	1	1	1	0	1	-68,569415	272,092514	242,207989	0
15.01.2021	02:06:45	0	0	4,293751	2,3955	60,5628	-1,383	80,591	0	1008,7	4,6	7	6,8	1	1	1	1	1	1	1	1	1	0	1	-70,68358	271,983963	239,598182	0
15.01.2021	02:06:46	0	0	4,067764	2,445	57,7332	-1,392	80,609	0	1008,68	4,6	7	6,8	1	1	1	1	1	1	1	1	1	0	1	-74,700493	272,00937	235,697224	0
15.01.2021	02:06:47	0	0	4,067764	2,39325	58,1256	-1,383	80,633	0	1008,78	4,6	7	6,8	1	1	1	1	1	1	1	1	1	0	1	-66,807611	271,955921	243,346207	0
15.01.2021	02:06:48	0	0	4,632731	2,29125	44,784	-1,382	80,651	0	1008,64	4,6	7	6,8	1	1	1	1	1	1	1	1	1	0	1	-69,415081	271,947916	240,702223	0
15.01.2021	02:06:49	0	0	4,293751	2,30325	63,8532	-1,388	80,654	0	1008,62	4,6	7	6,8	1	1	1	1	1	1	1	1	1	0	1	-68,780832	272,040172	241,757503	0
15.01.2021	02:06:50	0	0	3,502797	2,2635	58,1292	-1,389	80,693	0	1008,5	4,6	7	6,8	1	1	1	1	1	1	1	1	1	0	1	-66,878083	272,131529	244,077606	0
15.01.2021	02:06:51	0	0	5,084736	2,22525	56,286	-1,387	80,709	0	1008,64	4,6	7	6,7	1	1	1	1	1	1	1	1	1	0	1	-67,371388	272,096547	243,424438	0
15.01.2021	02:06:52	0	0	2,598849	2,1795	67,6764	-1,382	80,737	0	1008,68	4,6	7	6,8	1	1	1	1	1	1	1	1	1	0	1	-68,710359	272,013385	241,705684	0
15.01.2021	02:06:53	0	0	5,197699	2,11275	52,6104	-1,382	80,762	0	1008,68	4,6	7	6,8	1	1	1	1	1	1	1	1	1	0	1	-70,754052	271,95859	239,411941	0
15.01.2021	02:06:54	0	0	3,27681	2,03475	54,7992	-1,387	80,783	0	1008,6	4,6	7	6,8	1	1	1	1	1	1	1	1	1	0	1	-68,287526	272,018739	242,152958	0
15.01.2021	02:06:55	0	0	3,163816	1,9425	54,486	-1,387	80,812	0	1008,52	4,6	7	6,8	1	1	1	1	1	1	1	1	1	0	1	-66,596195	272,124797	244,328724	0
15.01.2021	02:06:56	0	0	3,050823	2,04	63,1872	-1,381	80,825	0	1008,7	4,6	7	6,8	1	1	1	1	1	1	1	1	1	0	1	-70,965469	271,995994	239,371196	0
15.01.2021	02:06:57	0	0	5,310692	2,14875	69,4836	-1,379	80,839	0	1008,7	4,6	7	6,8	1	1	1	1	1	1	1	1	1	0	1	-69,415081	271,995994	240,921584	0
15.01.2021	02:06:58	0	0	4,745725	2,17275	71,2188	-1,385	80,828	0	1008,56	4,6	7	6,8	1	1	1	1	1	1	1	1	1	0	1	-66,737139	271,977283	243,51414	0
15.01.2021	02:06:59	0	0	3,615812	2,17275	75,618	-1,384	80,839	0	1008,62	4,6	7	6,7	1	1	1	1	1	1	1	1	1	0	1	-65,327696	272,076394	245,376064	0
15.01.2021	02:07:00	0	0	2,824853	2,21775	71,226	-1,377	80,864	0	1008,68	4,7	7	6,7	1	1	1	1	1	1	1	1	1	0	1	-69,69697	271,987972	240,603088	0
15.01.2021	02:07:01	0	0	2,824853	2,21775	71,226	-1,377	80,864	0	1008,68	4,7	7	6,7	1	1	1	1	1	1	1	1	1	0	1	-69,69697	271,987972	240,603088	0
15.01.2021	02:07:02	0	0	4,519765	2,124	83,3688	-1,382	80,887	0	1008,7	4,6	7	6,7	1	1	1	1	1	1	1	1	1	0	1	-69,837914	272,124797	241,087005	0
15.01.2021	02:07:03	0	0	4,293751	2,0025	81,2268	-1,386	80,887	0	1008,68	4,6	7	6,8	1	1	1	1	1	1	1	1	1	0	1	-69,344609	272,111339	241,518809	0
15.01.2021	02:07:04	0	0	4,971712	1,827	83,3364	-1,379	80,898	0	1008,78	4,6	7	6,8	1	1	1	1	1	1	1	1	1	0	1	-68,780832	272,073708	241,910661	0
15.01.2021	02:07:05	0	0	4,858747	1,75875	75,2256	-1,377	80,888	0	1008,56	4,6	7	6,7	1	1	1	1	1	1	1	1	1	0	1	-67,864693	272,134223	243,103308	0
15.01.2021	02:07:06	0	0	4,293751	1,6575	77,9796	-1,377	80,869	0	1008,56	4,7	7	6,8	1	1	1	1	1	1	1	1	1	0	1	-74,841438	272,05492	235,764247	0
15.01.2021	02:07:07	0	0	4,745725	1,55775	79,1208	-1,379	80,848	0	1008,66	4,6	7	6,8	1	1	1	1	1	1	1	1	1	0	1	-72,30444	271,975947	237,940743	0
15.01.2021	02:07:08	0	0	4,519738	1,4505	75,978	-1,376	80,838	0	1008,74	4,6	7	6,8	1	1	1	1	1	1	1	1	1	0	1	-67,582805	272,022756	242,876017	0
15.01.2021	02:07:09	0	0	3,841777	1,407	80,5356	-1,383	80,808	0	1008,66	4,6	7	6,8	1	1	1	1	1	1	1	1	1	0	1	-68,146582	271,957255	242,013323	0
15.01.2021	02:07:10	0	0	4,858718	1,383	93,3624	-1,378	80,776	0	1008,68	4,6	7	6,8	1	1	1	1	1	1	1	1	1	0	1	-70,824524	272,128836	240,118855	0
15.01.2021	02:07:11	0	0	4,406744	1,485	65,0952	-1,378	80,751	0	1008,66	4,6	7	6,8	1	1	1	1	1	1	1	1	1	0	1	-65,257223	272,050897	245,330087	0
15.01.2021	02:07:12	0	0	4,745753	1,6215	77,58	-1,373	80,736	0	1008,54	4,6	7	6,7	1	1	1	1	1	1	1	1	1	0	1	-66,666667	271,961259	243,511504	0
15.01.2021	02:07:13	0	0	3,61579	1,74975	68,3928	-1,378	80,712	0	1008,72	4,6	7	6,8	1	1	1	1	1	1	1	1	1	0	1	-70,260747	272,049556	240,320439	0
15.01.2021	02:07:14	0	0	3,050841	1,74825	91,152	-1,379	80,683	0	1008,6	4,7	7	6,7	1	1	1	1	1	1	1	1	1	0	1	-74,91191	272,118067	235,982252	0
15.01.2021	02:07:15	0	0	2,711859	1,608	82,0908	-1,376	80,672	0	1008,74	4,6	7	6,7	1	1	1	1	1	1	1	1	1	0	1	-66,243834	271,983963	244,037928	0
15.01.2021	02:07:16	0	0	4,067788	1,563	72,0072	-1,375	80,639	0	1008,64	4,6	7	6,7	1	1	1	1	1	1	1	1	1	0	1	-68,498943	271,99332	241,825518	0
15.01.2021	02:07:17	0	0	4,745753	1,46625	82,3356	-1,375	80,623	0	1008,66	4,6	7	6,7	1	1	1	1	1	1	1	1	1	0	1	-71,106413	272,119413	239,793899	0
15.01.2021	02:07:18	0	0	5,197699	1,46625	85,212	-1,38	80,589	0	1008,64	4,7	7	6,8	1	1	1	1	1	1	1	1	1	0	1	-65,680056	272,083109	245,054379	0
15.01.2021	02:07:19	0	0	4,06774	1,425	68,7816	-1,384	80,575	0	1008,66	4,6	7	6,9	1	1	1	1	1	1	1	1	1	0	1	-70,260747	272,115375	240,621116	0
15.01.2021	02:07:20	0	0	3,954794	1,3755	75,9996	-1,379	80,552	0	1008,7	4,7	7	6,7	1	1	1	1	1	1	1	1	1	0	1	-68,07611	272,042852	242,474466	0
15.01.2021	02:07:21	0	0	2,937847	1,3815	72,7056	-1,385	80,539	0	1008,66	4,6	7	6,7	1	1	1	1	1	1	1	1	1	0	1	-66,807611	271,950584	243,321862	0
15.01.2021	02:07:22	0	0	2,598865	1,3665	64,638	-1,384	80,501	0	1008,36	4,6	7	6,7	1	1	1	1	1	1	1	1	1	0	1	-71,67019	271,967934	238,538433	0
15.01.2021	02:07:23	0	0	3,728806	1,368	77,6016	-1,381	80,483	0	1008,48	4,7	7	6,7	1	1	1	1	1	1	1	1	1	0	1	-68,992248	272,046874	241,576692	0
15.01.2021	02:07:24	0	0	4,971741	1,30575	75,636	-1,375	80,464	0	1008,72	4,7	7	6,7	1	1	1	1	1	1	1	1	1	0	1	-68,921776	271,953252	241,219869	0
15.01.2021	02:07:25	0	0	3,728784	1,3215	78,6564	-1,381	80,432	0	1008,66	4,6	7	6,8	1	1	1	1	1	1	1	1	1	0	1	-72,022551	272,044193	238,534146	0
15.01.2021	02:07:26	0	0	3,8418	1,293	68,778	-1,381	80,414	0	1008,66	4,6	7	6,7	1	1	1	1	1	1	1	1	1	0	1	-70,613108	271,945249	239,492029	0
15.01.2021	02:07:27	0	0	2,711859	1,305	68,4216	-1,379	80,385	0	1008,62	4,7	7	6,7	1	1	1	1	1	1	1	1	1	0	1	-69,767442	271,979954	240,496028	0
15.01.2021	02:07:28	0	0	4,745725	1,30875	85,5432	-1,382	80,384	0	1008,56	4,6	7	6,8	1	1	1	1	1	1	1	1	1	0	1	-69,837914	271,967934	240,370709	0
15.01.2021	02:07:29	0	0	3,728761	1,3305	72,6984	-1,377	80,373	0	1008,68	4,7	7	6,9	1	1	1	1	1	1	1	1	1	0	1	-71,881607	272,101924	238,938791	0
15.01.2021	02:07:30	0	0	3,954794	1,37775	79,4232	-1,383	80,354	0	1008,72	4,7	7	6,7	1	1	1	1	1	1	1	1	1	0	1	-69,978858	272,001343	240,382221	0
15.01.2021	02:07:31	0	0	3,615812	1,3545	86,9868	-1,381	80,349	0	1008,66	4,7	7	6,7	1	1	1	1	1	1	1	1	1	0	1	-64,411557	272,126143	246,519515	0
15.01.2021	02:07:32	0	0	3,841777	1,33425	80,1648	-1,386	80,336	0	1008,54	4,6	7	6,8	1	1	1	1	1	1	1	1	1	0	1	-70,542636	271,963929	239,647714	0
15.01.2021	02:07:33	0	0	3,163835	1,36125	80,514	-1,384	80,324	0	1008,66	4,7	7	6,7	1	1	1	1	1	1	1	1	1	0	1	-67,44186	272,041512	243,102595	0
15.01.2021	02:07:34	0	0	2,824836	1,42425	79,434	-1,386	80,316	0	1008,62	4,7	6,9	6,8	1	1	1	1	1	1	1	1	1	0	1	-71,388302	272,124797	239,536617	0
15.01.2021	02:07:35	0	0	3,8418	1,491	84,8052	-1,382	80,34	0	1008,78	4,6	7	6,7	1	1	1	1	1	1	1	1	1	0	1	-70,754052	272,036151	239,765926	0
15.01.2021	02:07:36	0	0	2,146875	1,4865	79,7292	-1,381	80,346	0	1008,74	4,7	6,9	6,8	1	1	1	1	1	1	1	1	1	0	1	-68,851304	272,119413	242,049008	0
15.01.2021	02:07:37	0	0	4,858718	1,515	83,3292	-1,384	80,366	0	1008,56	4,7	7	6,8	1	1	1	1	1	1	1	1	1	0	1	-73,643411	272,084452	237,097162	0
15.01.2021	02:07:38	0	0	4,971741	1,48575	71,2404	-1,385	80,374	0	1008,6	4,7	7	6,7	1	1	1	1	1	1	1	1	1	0	1	-70,894996	272,008032	239,496613	0
15.01.2021	02:07:39	0	0	4,745725	1,46325	63,1836	-1,384	80,386	0	1008,74	4,6	7	6,8	1	1	1	1	1	1	1	1	1	0	1	-71,247357	271,934583	238,809132	0
15.01.2021	02:07:40	0	0	4,067764	1,434	84,7944	-1,385	80,403	0	1008,76	4,7	7	6,8	1	1	1	1	1	1	1	1	1	0	1	-64,975335	271,969269	245,23938	0
15.01.2021	02:07:41	0	0	4,180783	1,5225	84,7872	-1,385	80,414	0	1008,7	4,7	6,9	6,7	1	1	1	1	1	1	1	1	1	0	1	-66,45525	272,048215	244,119813	0
15.01.2021	02:07:42	0	0	2,824836	1,57575	75,5964	-1,381	80,421	0	1008,68	4,6	6,9	6,8	1	1	1	1	1	1	1	1	1	0	1	-75,052854	272,138264	235,933619	0
15.01.2021	02:07:43	0	0	3,8418	1,67625	73,4292	-1,387	80,41	0	1008,62	4,7	7	6,7	1	1	1	1	1	1	1	1	1	0	1	-68,428471	272,022756	242,030351	0
15.01.2021	02:07:44	0	0	4,858718	1,73025	79,7652	-1,385	80,439	0	1008,72	4,7	7	6,8	1	1	1	1	1	1	1	1	1	0	1	-68,851304	272,118067	242,042858	0
15.01.2021	02:07:45	0	0	4,745725	1,74525	78,2892	-1,385	80,444	0	1008,56	4,7	7	6,8	1	1	1	1	1	1	1	1	1	0	1	-69,415081	272,099235	241,39303	0
15.01.2021	02:07:46	0	0	2,93783	1,81425	81,9936	-1,389	80,472	0	1008,66	4,6	7	6,8	1	1	1	1	1	1	1	1	1	0	1	-72,515856	271,986636	237,778103	0
15.01.2021	02:07:47	0	0	4,745725	1,845	90,7884	-1,385	80,497	0	1008,64	4,7	7	6,8	1	1	1	1	1	1	1	1	1	0	1	-67,582805	271,951918	242,552754	0
15.01.2021	02:07:48	0	0	4,180783	1,749	82,6308	-1,386	80,497	0	1008,66	4,7	7	6,7	1	1	1	1	1	1	1	1	1	0	1	-68,851304	271,978618	241,40607	0
15.01.2021	02:07:49	0	0	4,745725	1,7235	87,3468	-1,386	80,529	0	1008,72	4,7	7	6,8	1	1	1	1	1	1	1	1	1	0	1	-68,851304	271,941248	241,235587	0
15.01.2021	02:07:50	0	0	3,27681	1,7925	89,3628	-1,383	80,524	0	1008,58	4,6	7	6,8	1	1	1	1	1	1	1	1	1	0	1	-65,891473	272,049556	244,689714	0
15.01.2021	02:07:51	0	0	4,519738	1,86525	91,5084	-1,387	80,522	0	1008,72	4,7	7	6,8	1	1	1	1	1	1	1	1	1	0	1	-70,613108	272,131529	240,342581	0
15.01.2021	02:07:52	0	0	4,180758	1,93275	91,1664	-1,385	80,559	0	1008,72	4,7	7	6,8	1	1	1	1	1	1	1	1	1	0	1	-72,374912	272,092514	238,402492	0
15.01.2021	02:07:53	0	0	4,519738	1,9785	94,3848	-1,386	80,559	0	1008,66	4,7	7	6,8	1	1	1	1	1	1	1	1	1	0	1	-67,512333	271,950584	242,617141	0
15.01.2021	02:07:54	0	0	4,632731	2,043	92,6352	-1,391	80,585	0	1008,64	4,7	7	6,8	1	1	1	1	1	1	1	1	1	0	1	-69,69697	272,103269	241,129572	0
15.01.2021	02:07:55	0	0	4,858718	2,02725	91,2636	-1,384	80,624	0	1008,76	4,7	7	6,8	1	1	1	1	1	1	1	1	1	0	1	-70,613108	272,038831	239,919108	0
15.01.2021	02:07:56	0	0	2,824836	1,956	89,7372	-1,388	80,642	0	1008,7	4,7	7	6,8	1	1	1	1	1	1	1	1	1	0	1	-70,613108	272,118067	240,281054	0
15.01.2021	02:07:57	0	0	4,406718	1,85775	86,9472	-1,382	80,673	0	1008,72	4,7	7	6,9	1	1	1	1	1	1	1	1	1	0	1	-68,498943	271,985299	241,788917	0
15.01.2021	02:07:58	0	0	2,93783	1,82175	89,7372	-1,384	80,68	0	1008,7	4,7	7	6,8	1	1	1	1	1	1	1	1	1	0	1	-71,458774	272,118067	239,435388	0
15.01.2021	02:07:59	0	0	4,406744	1,82475	87,7392	-1,387	80,698	0	1008,72	4,7	6,9	6,8	1	1	1	1	1	1	1	1	1	0	1	-68,357999	272,050897	242,229311	0
15.01.2021	02:08:00	0	0	3,728784	1,66125	85,1868	-1,387	80,696	0	1008,5	4,6	7	6,8	1	1	1	1	1	1	1	1	1	0	1	-66,666667	271,935916	243,395902	0
15.01.2021	02:08:01	0	0	4,293751	1,55025	76,8348	-1,39	80,695	0	1008,6	4,7	6,9	6,8	1	1	1	1	1	1	1	1	1	0	1	-69,344609	271,995994	240,992056	0
15.01.2021	02:08:02	0	0	4,293751	1,55025	76,8348	-1,39	80,695	0	1008,6	4,7	6,9	6,8	1	1	1	1	1	1	1	1	1	0	1	-69,344609	271,995994	240,992056	0
15.01.2021	02:08:03	0	0	2,711843	1,524	91,5156	-1,382	80,683	0	1008,84	4,7	6,9	6,8	1	1	1	1	1	1	1	1	1	0	1	-69,767442	272,104614	241,065245	0
15.01.2021	02:08:04	0	0	2,824836	1,48575	88,1244	-1,384	80,692	0	1008,72	4,7	6,9	6,8	1	1	1	1	1	1	1	1	1	0	1	-73,009161	272,116721	237,87885	0
15.01.2021	02:08:05	0	0	2,93783	1,49025	88,11	-1,386	80,682	0	1008,64	4,7	6,9	6,8	1	1	1	1	1	1	1	1	1	0	1	-65,186751	272,061628	245,449567	0
15.01.2021	02:08:06	0	0	4,745725	1,542	86,3784	-1,376	80,657	0	1008,76	4,7	6,9	6,8	1	1	1	1	1	1	1	1	1	0	1	-73,854827	272,124797	237,070092	0
15.01.2021	02:08:07	0	0	2,259869	1,5555	85,1688	-1,387	80,655	0	1008,92	4,7	6,9	6,8	1	1	1	1	1	1	1	1	1	0	1	-68,780832	271,987972	241,519227	0
15.01.2021	02:08:08	0	0	4,406744	1,6545	82,3536	-1,385	80,624	0	1008,66	4,7	6,9	6,8	1	1	1	1	1	1	1	1	1	0	1	-68,851304	272,073708	241,840189	0
15.01.2021	02:08:09	0	0	3,841777	1,68	78,2676	-1,389	80,611	0	1008,72	4,7	6,9	6,8	1	1	1	1	1	1	1	1	1	0	1	-69,767442	271,957255	240,392463	0
15.01.2021	02:08:10	0	0	3,841777	1,671	90,7776	-1,389	80,628	0	1008,72	4,6	7	6,8	1	1	1	1	1	1	1	1	1	0	1	-70,472163	272,107304	240,372814	0
15.01.2021	02:08:11	0	0	5,197699	1,65675	80,8956	-1,394	80,608	0	1008,54	4,7	6,9	6,8	1	1	1	1	1	1	1	1	1	0	1	-76,955603	272,096547	233,840224	0
15.01.2021	02:08:12	0	0	2,485856	1,629	86,2596	-1,388	80,606	0	1008,62	4,7	6,9	6,8	1	1	1	1	1	1	1	1	1	0	1	-71,811135	272,049556	238,770052	0
15.01.2021	02:08:13	0	0	2,372862	1,68	78,2856	-1,385	80,587	0	1008,62	4,7	6,9	6,8	1	1	1	1	1	1	1	1	1	0	1	-66,102889	272,108649	244,748234	0
15.01.2021	02:08:14	0	0	4,858718	1,734	78,2856	-1,391	80,578	0	1008,72	4,7	6,9	6,8	1	1	1	1	1	1	1	1	1	0	1	-66,737139	272,092514	244,040265	0
15.01.2021	02:08:15	0	0	3,841777	1,84575	80,91	-1,385	80,569	0	1008,68	4,7	6,9	6,8	1	1	1	1	1	1	1	1	1	0	1	-69,06272	272,066996	241,598115	0
15.01.2021	02:08:16	0	0	4,632731	1,94325	81,5868	-1,389	80,536	0	1008,8	4,7	7	6,8	1	1	1	1	1	1	1	1	1	0	1	-72,515856	271,938582	237,558872	0
15.01.2021	02:08:17	0	0	3,954771	1,95825	92,2896	-1,387	80,538	0	1008,76	4,7	6,9	6,8	1	1	1	1	1	1	1	1	1	0	1	-67,0895	272,029453	243,399894	0
15.01.2021	02:08:18	0	0	4,971712	1,9155	88,0884	-1,389	80,5	0	1008,78	4,7	7	6,8	1	1	1	1	1	1	1	1	1	0	1	-69,344609	271,937249	240,72404	0
15.01.2021	02:08:19	0	0	3,954771	1,94775	90,0396	-1,387	80,502	0	1008,62	4,7	6,9	6,8	1	1	1	1	1	1	1	1	1	0	1	-70,542636	271,967934	239,665987	0
15.01.2021	02:08:20	0	0	2,711843	1,94475	90,7848	-1,388	80,493	0	1008,68	4,7	6,9	6,8	1	1	1	1	1	1	1	1	1	0	1	-68,005638	271,983963	242,276124	0
15.01.2021	02:08:21	0	0	4,858718	1,97775	95,8536	-1,396	80,452	0	1008,72	4,7	6,9	6,8	1	1	1	1	1	1	1	1	1	0	1	-68,005638	272,11403	242,870076	0
15.01.2021	02:08:22	0	0	3,728784	2,0175	88,1244	-1,388	80,457	0	1008,54	4,7	6,9	6,8	1	1	1	1	1	1	1	1	1	0	1	-68,780832	272,06297	241,861615	0
15.01.2021	02:08:23	0	0	3,841777	2,0145	82,9872	-1,392	80,436	0	1008,64	4,6	6,9	6,8	1	1	1	1	1	1	1	1	1	0	1	-73,784355	271,942582	236,308617	0
15.01.2021	02:08:24	0	0	4,971712	1,97325	82,6884	-1,389	80,404	0	1008,68	4,6	6,9	6,8	1	1	1	1	1	1	1	1	1	0	1	-67,300916	272,088483	243,45807	0
15.01.2021	02:08:25	0	0	2,93783	1,9275	83,3508	-1,389	80,418	0	1008,72	4,6	7	6,8	1	1	1	1	1	1	1	1	1	0	1	-70,68358	272,064312	239,964996	0
15.01.2021	02:08:26	0	0	2,93783	1,902	82,9908	-1,393	80,402	0	1008,76	4,7	6,9	6,8	1	1	1	1	1	1	1	1	1	0	1	-68,217054	272,101924	242,603344	0
15.01.2021	02:08:27	0	0	3,502797	1,87725	80,1216	-1,391	80,412	0	1008,7	4,6	6,9	6,8	1	1	1	1	1	1	1	1	1	0	1	-67,300916	272,029453	243,188477	0
15.01.2021	02:08:28	0	0	5,084705	1,947	86,2956	-1,393	80,409	0	1008,62	4,6	6,9	6,8	1	1	1	1	1	1	1	1	1	0	1	-64,129669	272,097891	246,6723	0
15.01.2021	02:08:29	0	0	2,598849	1,93575	83,736	-1,394	80,433	0	1008,66	4,7	7	6,8	1	1	1	1	1	1	1	1	1	0	1	-74,91191	272,096547	235,883917	0
15.01.2021	02:08:30	0	0	5,197699	1,98075	85,5216	-1,392	80,444	0	1008,66	4,7	6,9	6,8	1	1	1	1	1	1	1	1	1	0	1	-68,569415	272,002681	241,797769	0
15.01.2021	02:08:31	0	0	3,27681	1,98825	80,1432	-1,389	80,456	0	1008,78	4,6	6,9	6,8	1	1	1	1	1	1	1	1	1	0	1	-67,371388	272,11403	243,504325	0
15.01.2021	02:08:32	0	0	4,519738	1,9395	75,636	-1,393	80,448	0	1008,64	4,7	7	6,8	1	1	1	1	1	1	1	1	1	0	1	-68,569415	272,089827	242,19571	0
15.01.2021	02:08:33	0	0	2,824836	1,9035	80,8884	-1,395	80,46	0	1008,64	4,6	6,9	6,8	1	1	1	1	1	1	1	1	1	0	1	-71,247357	272,11403	239,628356	0
15.01.2021	02:08:34	0	0	4,293751	1,863	88,5816	-1,395	80,443	0	1008,58	4,6	6,9	6,8	1	1	1	1	1	1	1	1	1	0	1	-66,878083	272,088483	243,880903	0
15.01.2021	02:08:35	0	0	3,27681	1,875	87,3468	-1,395	80,447	0	1008,74	4,7	6,9	6,8	1	1	1	1	1	1	1	1	1	0	1	-69,626498	272,101924	241,1939	0
15.01.2021	02:08:36	0	0	4,519738	1,87425	87,7356	-1,395	80,465	0	1008,68	4,6	6,9	6,8	1	1	1	1	1	1	1	1	1	0	1	-69,344609	272,101924	241,475789	0
15.01.2021	02:08:37	0	0	4,971712	1,7685	73,0512	-1,39	80,475	0	1008,78	4,6	6,9	6,8	1	1	1	1	1	1	1	1	1	0	1	-65,46864	272,06297	245,173807	0
15.01.2021	02:08:38	0	0	2,824836	1,698	82,35	-1,391	80,491	0	1008,96	4,7	6,9	6,8	1	1	1	1	1	1	1	1	1	0	1	-65,609584	271,961259	244,568586	0
15.01.2021	02:08:39	0	0	3,728784	1,70325	74,5236	-1,404	80,484	0	1008,62	4,6	6,9	6,8	1	1	1	1	1	1	1	1	1	0	1	-71,247357	271,953252	238,894287	0
15.01.2021	02:08:40	0	0	4,971712	1,7085	82,3788	-1,396	80,492	0	1008,64	4,6	6,9	6,8	1	1	1	1	1	1	1	1	1	0	1	-70,824524	272,045534	239,738294	0
15.01.2021	02:08:41	0	0	4,519738	1,6665	81,6156	-1,398	80,489	0	1008,6	4,6	7	6,8	1	1	1	1	1	1	1	1	1	0	1	-69,203665	271,94925	240,919724	0
15.01.2021	02:08:42	0	0	2,711843	1,62975	80,91	-1,392	80,502	0	1008,64	4,6	7	6,8	1	1	1	1	1	1	1	1	1	0	1	-65,609584	271,974611	244,629504	0
15.01.2021	02:08:43	0	0	2,824836	1,53375	84,0492	-1,391	80,498	0	1008,76	4,6	6,9	6,8	1	1	1	1	1	1	1	1	1	0	1	-73,995772	272,079079	236,720257	0
15.01.2021	02:08:44	0	0	5,310692	1,41825	85,554	-1,395	80,508	0	1008,56	4,6	6,9	6,8	1	1	1	1	1	1	1	1	1	0	1	-68,639887	271,934583	241,416602	0
15.01.2021	02:08:45	0	0	4,858718	1,308	83,3544	-1,397	80,467	0	1008,66	4,6	7	6,8	1	1	1	1	1	1	1	1	1	0	1	-70,260747	272,06297	240,3817	0
15.01.2021	02:08:46	0	0	2,824836	1,23675	83,34	-1,395	80,47	0	1008,7	4,6	7	6,8	1	1	1	1	1	1	1	1	1	0	1	-69,978858	271,977283	240,27242	0
15.01.2021	02:08:47	0	0	3,841777	1,25025	80,5212	-1,403	80,447	0	1008,66	4,7	6,9	6,8	1	1	1	1	1	1	1	1	1	0	1	-70,824524	272,111339	240,038893	0
15.01.2021	02:08:48	0	0	3,389803	1,2585	80,5068	-1,397	80,421	0	1008,7	4,7	6,9	6,8	1	1	1	1	1	1	1	1	1	0	1	-69,485553	272,000006	240,869422	0
15.01.2021	02:08:49	0	0	4,632731	1,314	78,3	-1,394	80,404	0	1008,72	4,7	7	6,8	1	1	1	1	1	1	1	1	1	0	1	-67,300916	271,925255	242,713034	0
15.01.2021	02:08:50	0	0	4,406744	1,31775	76,9392	-1,396	80,382	0	1008,76	4,7	7	6,8	1	1	1	1	1	1	1	1	1	0	1	-64,48203	272,053579	246,117529	0
15.01.2021	02:08:51	0	0	3,841777	1,341	77,976	-1,398	80,35	0	1008,7	4,6	7	6,8	1	1	1	1	1	1	1	1	1	0	1	-68,217054	272,096547	242,578773	0
15.01.2021	02:08:52	0	0	2,485856	1,35675	79,038	-1,399	80,339	0	1008,64	4,6	6,9	6,8	1	1	1	1	1	1	1	1	1	0	1	-71,317829	272,046874	239,251111	0
15.01.2021	02:08:53	0	0	2,711843	1,35825	79,0452	-1,398	80,33	0	1008,7	4,6	7	6,8	1	1	1	1	1	1	1	1	1	0	1	-67,653277	272,107304	243,191701	0
15.01.2021	02:08:54	0	0	4,858718	1,377	87,786	-1,395	80,32	0	1008,72	4,6	7	6,8	1	1	1	1	1	1	1	1	1	0	1	-75,123326	272,029453	235,366067	0
15.01.2021	02:08:55	0	0	2,93783	1,3935	84,4236	-1,401	80,309	0	1008,7	4,6	7	6,8	1	1	1	1	1	1	1	1	1	0	1	-68,992248	271,941248	241,094642	0
15.01.2021	02:08:56	0	0	2,598849	1,41675	87,3756	-1,396	80,306	0	1008,62	4,7	7	6,8	1	1	1	1	1	1	1	1	1	0	1	-75,052854	271,954586	235,094877	0
15.01.2021	02:08:57	0	0	4,745725	1,3905	81,5904	-1,402	80,289	0	1008,7	4,6	7	6,8	1	1	1	1	1	1	1	1	1	0	1	-72,233968	272,012047	238,175966	0
15.01.2021	02:08:58	0	0	4,632731	1,446	77,202	-1,403	80,283	0	1008,72	4,6	7	6,8	1	1	1	1	1	1	1	1	1	0	1	-68,992248	271,92792	241,033853	0
15.01.2021	02:08:59	0	0	4,293751	1,479	78,2712	-1,407	80,28	0	1008,6	4,7	7	6,8	1	1	1	1	1	1	1	1	1	0	1	-72,233968	272,077736	238,475926	0
15.01.2021	02:09:00	0	0	3,502797	1,44075	82,6056	-1,407	80,304	0	1008,62	4,7	7	6,8	1	1	1	1	1	1	1	1	1	0	1	-68,07611	272,034811	242,43775	0
15.01.2021	02:09:01	0	0	3,502797	1,44075	82,6056	-1,407	80,304	0	1008,62	4,7	7	6,8	1	1	1	1	1	1	1	1	1	0	1	-66,314306	271,926587	243,70572	0
15.01.2021	02:09:02	0	0	2,711843	1,38075	80,91	-1,409	80,29	0	1008,58	4,7	7	6,8	1	1	1	1	1	1	1	1	1	0	1	-64,904863	271,982627	245,370802	0
15.01.2021	02:09:03	0	0	3,502797	1,36875	79,7868	-1,408	80,27	0	1008,6	4,7	7	6,8	1	1	1	1	1	1	1	1	1	0	1	-70,68358	271,946582	239,427641	0
15.01.2021	02:09:04	0	0	4,180758	1,3635	76,824	-1,407	80,278	0	1008,58	4,7	7	6,8	1	1	1	1	1	1	1	1	1	0	1	-66,243834	272,101924	244,576564	0
15.01.2021	02:09:05	0	0	2,711843	1,359	74,9412	-1,411	80,26	0	1008,72	4,7	6,9	6,8	1	1	1	1	1	1	1	1	1	0	1	-68,005638	271,983963	242,276124	0
15.01.2021	02:09:06	0	0	2,93783	1,31175	71,2368	-1,405	80,276	0	1008,66	4,7	7	6,8	1	1	1	1	1	1	1	1	1	0	1	-72,797745	272,101924	238,022653	0
15.01.2021	02:09:07	0	0	3,841777	1,308	80,1432	-1,412	80,286	0	1008,7	4,7	7	6,8	1	1	1	1	1	1	1	1	1	0	1	-70,119803	271,977283	240,131476	0
15.01.2021	02:09:08	0	0	3,27681	1,263	80,5212	-1,411	80,288	0	1008,72	4,7	7	6,8	1	1	1	1	1	1	1	1	1	0	1	-68,780832	271,938582	241,293897	0
15.01.2021	02:09:09	0	0	2,824836	1,21275	78,2604	-1,411	80,267	0	1008,66	4,7	7	6,8	1	1	1	1	1	1	1	1	1	0	1	-65,539112	271,943915	244,559942	0
15.01.2021	02:09:10	0	0	4,745725	1,2195	84,0312	-1,411	80,271	0	1008,7	4,7	7	6,8	1	1	1	1	1	1	1	1	1	0	1	-65,539112	272,042852	245,011464	0
15.01.2021	02:09:11	0	0	4,632731	1,2345	96,228	-1,409	80,276	0	1008,7	4,7	7	6,8	1	1	1	1	1	1	1	1	1	0	1	-68,780832	272,066996	241,880004	0
15.01.2021	02:09:12	0	0	4,971712	1,26075	94,8744	-1,411	80,288	0	1008,66	4,7	7	6,8	1	1	1	1	1	1	1	1	1	0	1	-70,894996	271,989309	239,411161	0
15.01.2021	02:09:13	0	0	2,711843	1,27575	90,7812	-1,421	80,281	0	1008,64	4,7	7	6,8	1	1	1	1	1	1	1	1	1	0	1	-68,921776	272,093858	241,861768	0
15.01.2021	02:09:14	0	0	4,519738	1,263	81,5868	-1,415	80,298	0	1008,76	4,7	7	6,8	1	1	1	1	1	1	1	1	1	0	1	-67,723749	272,046874	242,845191	0
15.01.2021	02:09:15	0	0	3,163816	1,194	79,398	-1,413	80,277	0	1008,68	4,7	7	6,8	1	1	1	1	1	1	1	1	1	0	1	-71,317829	271,938582	238,756899	0
15.01.2021	02:09:16	0	0	3,050823	1,17375	79,4304	-1,417	80,285	0	1008,66	4,7	7	6,8	1	1	1	1	1	1	1	1	1	0	1	-66,666667	271,954586	243,481064	0
15.01.2021	02:09:17	0	0	4,293751	1,16475	73,0692	-1,424	80,278	0	1008,66	4,7	7	6,8	1	1	1	1	1	1	1	1	1	0	1	-69,837914	272,016062	240,590349	0
15.01.2021	02:09:18	0	0	3,841777	1,203	66,9168	-1,421	80,269	0	1008,5	4,7	7	6,8	1	1	1	1	1	1	1	1	1	0	1	-69,274137	271,945249	240,831001	0
15.01.2021	02:09:19	0	0	3,163816	1,30425	76,4676	-1,419	80,287	0	1008,68	4,7	7	6,8	1	1	1	1	1	1	1	1	1	0	1	-66,384778	272,049556	244,196408	0
15.01.2021	02:09:20	0	0	3,954771	1,3185	76,8276	-1,415	80,279	0	1008,6	4,7	7	6,8	1	1	1	1	1	1	1	1	1	0	1	-67,300916	271,923923	242,706959	0
15.01.2021	02:09:21	0	0	4,067764	1,296	77,9976	-1,419	80,256	0	1008,52	4,7	7	6,8	1	1	1	1	1	1	1	1	1	0	1	-68,428471	271,950584	241,701003	0
15.01.2021	02:09:22	0	0	4,745725	1,2705	72,6912	-1,42	80,253	0	1008,72	4,7	7	6,8	1	1	1	1	1	1	1	1	1	0	1	-71,035941	272,016062	239,392322	0
15.01.2021	02:09:23	0	0	2,824836	1,218	70,6104	-1,418	80,237	0	1008,74	4,7	7	6,8	1	1	1	1	1	1	1	1	1	0	1	-72,445384	272,083109	238,289052	0
15.01.2021	02:09:24	0	0	3,502797	1,14375	95,5044	-1,422	80,236	0	1008,68	4,7	7	6,8	1	1	1	1	1	1	1	1	1	0	1	-66,596195	272,044193	243,960502	0
15.01.2021	02:09:25	0	0	3,728784	1,134	87,7356	-1,418	80,22	0	1008,48	4,7	7	6,8	1	1	1	1	1	1	1	1	1	0	1	-67,019027	272,034811	243,494833	0
15.01.2021	02:09:26	0	0	3,27681	1,1175	78,6636	-1,424	80,234	0	1008,64	4,7	7	6,8	1	1	1	1	1	1	1	1	1	0	1	-67,44186	271,923923	242,566014	0
15.01.2021	02:09:27	0	0	3,389803	1,04475	82,6056	-1,427	80,216	0	1008,62	4,7	7	6,8	1	1	1	1	1	1	1	1	1	0	1	-65,609584	272,024095	244,855351	0
15.01.2021	02:09:28	0	0	4,858718	1,02525	85,5144	-1,418	80,222	0	1008,62	4,7	7	6,8	1	1	1	1	1	1	1	1	1	0	1	-66,666667	271,910606	243,280486	0
15.01.2021	02:09:29	0	0	2,485856	1,02675	80,5284	-1,428	80,221	0	1008,6	4,7	7	6,8	1	1	1	1	1	1	1	1	1	0	1	-67,300916	271,954586	242,846815	0
15.01.2021	02:09:30	0	0	4,406744	1,056	78,66	-1,424	80,255	0	1008,74	4,7	7	6,8	1	1	1	1	1	1	1	1	1	0	1	-66,666667	271,926587	243,353359	0
15.01.2021	02:09:31	0	0	3,389803	1,047	76,8132	-1,426	80,251	0	1008,6	4,7	7	6,8	1	1	1	1	1	1	1	1	1	0	1	-69,06272	272,042852	241,487855	0
15.01.2021	02:09:32	0	0	4,293751	1,06575	83,7324	-1,428	80,243	0	1008,7	4,7	7	6,8	1	1	1	1	1	1	1	1	1	0	1	-67,794221	272,072366	242,891139	0
15.01.2021	02:09:33	0	0	3,954771	1,05975	86,6664	-1,433	80,254	0	1008,6	4,7	7	6,8	1	1	1	1	1	1	1	1	1	0	1	-69,767442	271,938582	240,307287	0
15.01.2021	02:09:34	0	0	4,406744	1,089	85,5252	-1,43	80,257	0	1008,76	4,7	7	6,8	1	1	1	1	1	1	1	1	1	0	1	-68,005638	271,966599	242,196894	0
15.01.2021	02:09:35	0	0	3,728784	1,101	81,1908	-1,426	80,265	0	1008,66	4,7	7	6,8	1	1	1	1	1	1	1	1	1	0	1	-68,287526	271,953252	241,854118	0
15.01.2021	02:09:36	0	0	4,067788	1,113	78,6816	-1,429	80,252	0	1008,7	4,7	7	6,7	1	1	1	1	1	1	1	1	1	0	1	-72,233968	272,026774	238,243195	0
15.01.2021	02:09:37	0	0	3,502818	1,17825	77,202	-1,425	80,26	0	1008,68	4,7	7	6,7	1	1	1	1	1	1	1	1	1	0	1	-69,626498	271,913269	240,332796	0
15.01.2021	02:09:38	0	0	3,389824	1,25775	75,9996	-1,427	80,271	0	1008,78	4,7	7	6,7	1	1	1	1	1	1	1	1	1	0	1	-69,06272	271,929252	240,969458	0
15.01.2021	02:09:39	0	0	3,502818	1,28475	74,1564	-1,431	80,28	0	1008,78	4,7	7	6,7	1	1	1	1	1	1	1	1	1	0	1	-68,357999	272,071023	242,32123	0
15.01.2021	02:09:40	0	0	3,389803	1,25025	79,416	-1,432	80,286	0	1008,6	4,7	7	6,8	1	1	1	1	1	1	1	1	1	0	1	-68,146582	271,918595	241,836998	0
15.01.2021	02:09:41	0	0	4,971712	1,2195	79,0416	-1,428	80,305	0	1008,64	4,7	7	6,8	1	1	1	1	1	1	1	1	1	0	1	-68,780832	272,010708	241,622994	0
15.01.2021	02:09:42	0	0	5,084705	1,19175	83,3508	-1,429	80,33	0	1008,5	4,7	7	6,8	1	1	1	1	1	1	1	1	1	0	1	-69,556025	271,897299	240,330457	0
15.01.2021	02:09:43	0	0	4,519738	1,2105	81,9648	-1,434	80,321	0	1008,64	4,7	7	6,8	1	1	1	1	1	1	1	1	1	0	1	-68,569415	272,021417	241,883294	0
15.01.2021	02:09:44	0	0	2,937847	1,27425	78,2892	-1,43	80,345	0	1008,68	4,7	7	6,7	1	1	1	1	1	1	1	1	1	0	1	-65,891473	271,963929	244,298877	0
15.01.2021	02:09:45	0	0	3,27683	1,25775	81,6048	-1,433	80,358	0	1008,8	4,7	7	6,7	1	1	1	1	1	1	1	1	1	0	1	-68,07611	271,935916	241,986459	0
15.01.2021	02:09:46	0	0	3,8418	1,23525	83,7504	-1,433	80,37	0	1008,62	4,7	7	6,7	1	1	1	1	1	1	1	1	1	0	1	-67,935166	272,068338	242,7318	0
15.01.2021	02:09:47	0	0	2,937847	1,242	75,6144	-1,436	80,383	0	1008,62	4,7	6,8	6,7	1	1	1	1	1	1	1	1	1	0	1	-68,710359	271,925255	241,303591	0
15.01.2021	02:09:48	0	0	2,711859	1,23225	69,1884	-1,434	80,392	0	1008,7	4,7	7	6,7	1	1	1	1	1	1	1	1	1	0	1	-67,794221	272,077736	242,915673	0
15.01.2021	02:09:49	0	0	3,163835	1,2375	77,5512	-1,441	80,38	0	1008,62	4,7	7	6,7	1	1	1	1	1	1	1	1	1	0	1	-66,948555	271,943915	243,150499	0
15.01.2021	02:09:50	0	0	4,745725	1,275	75,618	-1,433	80,397	0	1008,64	4,7	7	6,8	1	1	1	1	1	1	1	1	1	0	1	-66,314306	271,907944	243,620709	0
15.01.2021	02:09:51	0	0	3,502818	1,32825	65,0736	-1,443	80,387	0	1008,66	4,7	7	6,7	1	1	1	1	1	1	1	1	1	0	1	-69,274137	272,042852	241,276439	0
15.01.2021	02:09:52	0	0	3,050823	1,395	69,444	-1,438	80,387	0	1008,68	4,7	7	6,8	1	1	1	1	1	1	1	1	1	0	1	-64,552502	272,00937	245,845215	0
15.01.2021	02:09:53	0	0	4,293777	1,425	70,5888	-1,438	80,394	0	1008,68	4,7	7	6,7	1	1	1	1	1	1	1	1	1	0	1	-68,005638	272,05492	242,600047	0
15.01.2021	02:09:54	0	0	4,519738	1,45125	63,8856	-1,439	80,395	0	1008,68	4,7	7	6,8	1	1	1	1	1	1	1	1	1	0	1	-70,894996	271,955921	239,258821	0
15.01.2021	02:09:55	0	0	2,937847	1,47525	71,2188	-1,438	80,386	0	1008,78	4,7	7	6,7	1	1	1	1	1	1	1	1	1	0	1	-70,401691	272,061628	240,234627	0
15.01.2021	02:09:56	0	0	4,406771	1,46775	75,222	-1,438	80,381	0	1008,74	4,7	7	6,7	1	1	1	1	1	1	1	1	1	0	1	-65,821001	271,929252	244,211177	0
15.01.2021	02:09:57	0	0	2,711843	1,4745	73,4364	-1,437	80,376	0	1008,74	4,7	7	6,8	1	1	1	1	1	1	1	1	1	0	1	-69,133192	271,905282	240,789686	0
15.01.2021	02:09:58	0	0	2,937847	1,488	82,9908	-1,441	80,381	0	1008,64	4,7	7	6,7	1	1	1	1	1	1	1	1	1	0	1	-66,525722	272,036151	243,994256	0
15.01.2021	02:09:59	0	0	4,519765	1,458	71,2224	-1,439	80,378	0	1008,68	4,7	7	6,7	1	1	1	1	1	1	1	1	1	0	1	-68,498943	272,045534	242,063875	0
15.01.2021	02:10:00	0	0	2,824853	1,374	78,2676	-1,441	80,382	0	1008,76	4,6	6,8	6,7	1	1	1	1	1	1	1	1	1	0	1	-68,287526	271,959924	241,884555	0
15.01.2021	02:10:01	0	0	2,824853	1,374	78,2676	-1,441	80,382	0	1008,76	4,6	6,8	6,7	1	1	1	1	1	1	1	1	1	0	1	-68,287526	271,959924	241,884555	0
15.01.2021	02:10:02	0	0	2,372877	1,38375	77,598	-1,443	80,408	0	1008,82	4,6	7	6,7	1	1	1	1	1	1	1	1	1	0	1	-67,371388	271,88666	242,466594	0
15.01.2021	02:10:03	0	0	4,632731	1,31325	77,1732	-1,45	80,406	0	1008,6	4,6	7	6,8	1	1	1	1	1	1	1	1	1	0	1	-69,274137	271,994657	241,056426	0
15.01.2021	02:10:04	0	0	3,8418	1,29075	76,842	-1,439	80,448	0	1008,64	4,6	7	6,7	1	1	1	1	1	1	1	1	1	0	1	-68,005638	271,893308	241,862653	0
15.01.2021	02:10:05	0	0	3,728806	1,2585	67,284	-1,444	80,443	0	1008,56	4,6	7	6,7	1	1	1	1	1	1	1	1	1	0	1	-71,035941	271,934583	239,020549	0
15.01.2021	02:10:06	0	0	4,180758	1,29225	73,4364	-1,439	80,477	0	1008,7	4,6	7	6,8	1	1	1	1	1	1	1	1	1	0	1	-69,274137	272,034811	241,239723	0
15.01.2021	02:10:07	0	0	3,050841	1,314	81,2268	-1,44	80,479	0	1008,68	4,6	7	6,7	1	1	1	1	1	1	1	1	1	0	1	-64,622974	271,890649	245,233192	0
15.01.2021	02:10:08	0	0	4,406771	1,27575	72,6804	-1,445	80,479	0	1008,62	4,6	7	6,7	1	1	1	1	1	1	1	1	1	0	1	-66,525722	272,040172	244,012613	0
15.01.2021	02:10:09	0	0	3,163835	1,18575	63,4968	-1,444	80,503	0	1008,66	4,6	7	6,7	1	1	1	1	1	1	1	1	1	0	1	-66,666667	272,008032	243,724943	0
15.01.2021	02:10:10	0	0	4,519765	1,14675	73,7784	-1,445	80,509	0	1008,62	4,6	7	6,7	1	1	1	1	1	1	1	1	1	0	1	-66,948555	272,024095	243,51638	0
15.01.2021	02:10:11	0	0	4,858747	1,15275	89,3124	-1,443	80,519	0	1008,7	4,6	7	6,7	1	1	1	1	1	1	1	1	1	0	1	-71,952079	271,90129	237,952599	0
15.01.2021	02:10:12	0	0	3,050841	1,18125	85,9248	-1,444	80,523	0	1008,7	4,7	6,9	6,7	1	1	1	1	1	1	1	1	1	0	1	-67,371388	271,884001	242,454474	0
15.01.2021	02:10:13	0	0	3,8418	1,19625	78,264	-1,448	80,505	0	1008,58	4,6	7	6,7	1	1	1	1	1	1	1	1	1	0	1	-65,398168	271,991983	244,920191	0
15.01.2021	02:10:14	0	0	2,711859	1,20225	74,6496	-1,446	80,524	0	1008,6	4,6	7	6,7	1	1	1	1	1	1	1	1	1	0	1	-65,045807	272,046874	245,523134	0
15.01.2021	02:10:15	0	0	3,050841	1,24425	83,3544	-1,442	80,524	0	1008,7	4,6	6,8	6,7	1	1	1	1	1	1	1	1	1	0	1	-67,371388	271,915932	242,600047	0
15.01.2021	02:10:16	0	0	4,406744	1,27125	84,0348	-1,445	80,516	0	1008,82	4,6	6,8	6,8	1	1	1	1	1	1	1	1	1	0	1	-69,06272	272,013385	241,353323	0
15.01.2021	02:10:17	0	0	3,27683	1,242	92,6532	-1,449	80,512	0	1008,62	4,6	6,9	6,7	1	1	1	1	1	1	1	1	1	0	1	-68,992248	271,887989	240,851795	0
15.01.2021	02:10:18	0	0	3,615812	1,2405	97,0056	-1,451	80,525	0	1008,72	4,6	7	6,7	1	1	1	1	1	1	1	1	1	0	1	-67,44186	271,989309	242,864298	0
15.01.2021	02:10:19	0	0	4,745753	1,16925	75,6216	-1,454	80,537	0	1008,66	4,6	6,9	6,7	1	1	1	1	1	1	1	1	1	0	1	-69,133192	271,884001	240,69267	0
15.01.2021	02:10:20	0	0	4,632759	1,17075	42,9192	-1,449	80,534	0	1008,66	4,6	7	6,7	1	1	1	1	1	1	1	1	1	0	1	-68,992248	272,026774	241,484915	0
15.01.2021	02:10:21	0	0	3,27681	1,29675	73,7784	-1,445	80,542	0	1008,76	4,6	6,8	6,8	1	1	1	1	1	1	1	1	1	0	1	-66,243834	272,041512	244,300621	0
15.01.2021	02:10:22	0	0	3,050841	1,28325	78,2784	-1,449	80,535	0	1008,76	4,6	7	6,7	1	1	1	1	1	1	1	1	1	0	1	-66,878083	271,894639	242,996271	0
15.01.2021	02:10:23	0	0	3,050823	1,28925	94,41	-1,448	80,513	0	1008,72	4,6	7	6,8	1	1	1	1	1	1	1	1	1	0	1	-67,230444	272,017401	243,20393	0
15.01.2021	02:10:24	0	0	4,293777	1,27875	94,3848	-1,448	80,521	0	1008,68	4,6	7	6,7	1	1	1	1	1	1	1	1	1	0	1	-69,908386	272,024095	240,556549	0
15.01.2021	02:10:25	0	0	2,937847	1,2675	84,0348	-1,446	80,512	0	1008,7	4,6	6,8	6,7	1	1	1	1	1	1	1	1	1	0	1	-67,653277	271,94925	242,470112	0
15.01.2021	02:10:26	0	0	4,519765	1,2765	88,5708	-1,445	80,519	0	1008,6	4,6	7	6,7	1	1	1	1	1	1	1	1	1	0	1	-70,754052	272,045534	239,808766	0
15.01.2021	02:10:27	0	0	4,745753	1,38375	86,9256	-1,447	80,508	0	1008,68	4,6	6,9	6,7	1	1	1	1	1	1	1	1	1	0	1	-70,824524	271,931917	239,219809	0
15.01.2021	02:10:28	0	0	5,084705	1,47675	91,134	-1,448	80,487	0	1008,6	4,6	7	6,8	1	1	1	1	1	1	1	1	1	0	1	-64,341085	271,874698	245,442374	0
15.01.2021	02:10:29	0	0	3,502818	1,5915	87,3504	-1,453	80,492	0	1008,56	4,6	7	6,7	1	1	1	1	1	1	1	1	1	0	1	-66,596195	271,88666	243,241788	0
15.01.2021	02:10:30	0	0	3,954794	1,61625	83,358	-1,454	80,49	0	1008,56	4,6	6,8	6,7	1	1	1	1	1	1	1	1	1	0	1	-67,0895	271,913269	242,869793	0
15.01.2021	02:10:31	0	0	3,389824	1,6485	86,9652	-1,454	80,472	0	1008,64	4,6	7	6,7	1	1	1	1	1	1	1	1	1	0	1	-71,881607	271,865399	237,859474	0
15.01.2021	02:10:32	0	0	5,310724	1,62	82,3428	-1,451	80,456	0	1008,62	4,6	6,9	6,7	1	1	1	1	1	1	1	1	1	0	1	-68,639887	271,983963	241,641875	0
15.01.2021	02:10:33	0	0	4,293777	1,65525	88,9668	-1,448	80,432	0	1008,56	4,6	6,8	6,7	1	1	1	1	1	1	1	1	1	0	1	-69,485553	271,866727	240,26158	0
15.01.2021	02:10:34	0	0	3,615812	1,67475	80,5212	-1,454	80,436	0	1008,7	4,6	6,9	6,7	1	1	1	1	1	1	1	1	1	0	1	-68,780832	272,020078	241,665765	0
15.01.2021	02:10:35	0	0	3,389824	1,6965	78,642	-1,45	80,412	0	1008,78	4,6	6,9	6,7	1	1	1	1	1	1	1	1	1	0	1	-76,88513	272,042852	233,665445	0
15.01.2021	02:10:36	0	0	4,858747	1,66275	61,6752	-1,449	80,409	0	1008,7	4,6	6,8	6,7	1	1	1	1	1	1	1	1	1	0	1	-68,992248	272,029453	241,497145	0
15.01.2021	02:10:37	0	0	3,163835	1,74225	70,8588	-1,46	80,408	0	1008,66	4,6	6,9	6,7	1	1	1	1	1	1	1	1	1	0	1	-64,341085	271,991983	245,977274	0
15.01.2021	02:10:38	0	0	4,632759	1,97625	81,9576	-1,459	80,407	0	1008,64	4,6	6,9	6,7	1	1	1	1	1	1	1	1	1	0	1	-68,07611	271,853451	241,610521	0
15.01.2021	02:10:39	0	0	3,615812	2,08275	63,486	-1,455	80,418	0	1008,66	4,6	6,8	6,7	1	1	1	1	1	1	1	1	1	0	1	-69,06272	271,925255	240,95123	0
15.01.2021	02:10:40	0	0	2,824853	2,091	74,52	-1,459	80,412	0	1008,62	4,6	7	6,7	1	1	1	1	1	1	1	1	1	0	1	-64,48203	272,005356	245,897366	0
15.01.2021	02:10:41	0	0	2,711859	2,1795	70,6212	-1,455	80,445	0	1008,72	4,6	6,9	6,7	1	1	1	1	1	1	1	1	1	0	1	-70,331219	271,878684	239,47041	0
15.01.2021	02:10:42	0	0	4,971741	2,238	58,878	-1,459	80,465	0	1008,56	4,6	6,9	6,7	1	1	1	1	1	1	1	1	1	0	1	-69,978858	271,922591	240,022942	0
15.01.2021	02:10:43	0	0	4,067788	2,37	63,8676	-1,458	80,49	0	1008,9	4,6	6,8	6,7	1	1	1	1	1	1	1	1	1	0	1	-70,401691	272,030792	240,093818	0
15.01.2021	02:10:44	0	0	4,180783	2,29425	49,9284	-1,46	80,521	0	1008,84	4,6	6,9	6,7	1	1	1	1	1	1	1	1	1	0	1	-69,415081	271,966599	240,787451	0
15.01.2021	02:10:45	0	0	4,406771	2,25525	58,878	-1,458	80,551	0	1008,74	4,6	6,9	6,7	1	1	1	1	1	1	1	1	1	0	1	-68,639887	272,033472	241,867855	0
15.01.2021	02:10:46	0	0	5,084736	2,20275	52,8876	-1,464	80,572	0	1008,64	4,6	6,8	6,7	1	1	1	1	1	1	1	1	1	0	1	-70,049331	272,012047	240,360603	0
15.01.2021	02:10:47	0	0	4,067788	2,133	62,1324	-1,458	80,604	0	1008,68	4,6	6,9	6,7	1	1	1	1	1	1	1	1	1	0	1	-68,357999	271,935916	241,70457	0
15.01.2021	02:10:48	0	0	3,728806	1,995	38,412	-1,456	80,677	0	1008,8	4,6	6,8	6,7	1	1	1	1	1	1	1	1	1	0	1	-68,146582	272,029453	242,342811	0
15.01.2021	02:10:49	0	0	4,293777	1,947	62,8272	-1,461	80,729	0	1008,68	4,6	6,8	6,7	1	1	1	1	1	1	1	1	1	0	1	-67,864693	271,918595	242,118886	0
15.01.2021	02:10:50	0	0	2,711859	1,89675	54,486	-1,458	80,768	0	1008,62	4,6	6,9	6,7	1	1	1	1	1	1	1	1	1	0	1	-71,106413	272,034811	239,407447	0
15.01.2021	02:10:51	0	0	2,937847	1,8285	72,6768	-1,46	80,823	0	1008,64	4,6	6,8	6,7	1	1	1	1	1	1	1	1	1	0	1	-69,344609	271,938582	240,73012	0
15.01.2021	02:10:52	0	0	3,502818	1,75575	70,2216	-1,458	80,867	0	1008,62	4,6	6,9	6,7	1	1	1	1	1	1	1	1	1	0	1	-71,035941	271,991983	239,282418	0
15.01.2021	02:10:53	0	0	3,27683	1,56975	56,6712	-1,455	80,894	0	1008,7	4,6	6,9	6,7	1	1	1	1	1	1	1	1	1	0	1	-64,552502	271,894639	245,321852	0
15.01.2021	02:10:54	0	0	3,389824	1,46475	67,3164	-1,457	80,906	0	1008,64	4,6	6,9	6,7	1	1	1	1	1	1	1	1	1	0	1	-70,260747	272,030792	240,234762	0
15.01.2021	02:10:55	0	0	4,519765	1,41525	65,4624	-1,459	80,954	0	1008,74	4,6	6,9	6,7	1	1	1	1	1	1	1	1	1	0	1	-71,106413	271,870712	238,658881	0
15.01.2021	02:10:56	0	0	3,954794	1,37325	59,0904	-1,453	80,972	0	1008,58	4,6	7	6,7	1	1	1	1	1	1	1	1	1	0	1	-69,767442	271,94925	240,355947	0
15.01.2021	02:10:57	0	0	2,93783	1,41375	80,8848	-1,462	80,994	0	1008,74	4,6	6,9	6,8	1	1	1	1	1	1	1	1	1	0	1	-70,190275	271,862743	239,538703	0
15.01.2021	02:10:58	0	0	2,711859	1,5375	65,4408	-1,462	81,004	0	1008,52	4,6	6,9	6,7	1	1	1	1	1	1	1	1	1	0	1	-68,217054	272,000006	242,137921	0
15.01.2021	02:10:59	0	0	4,971741	1,54425	67,6728	-1,454	81,015	0	1008,52	4,6	6,9	6,7	1	1	1	1	1	1	1	1	1	0	1	-71,176885	271,997331	239,165883	0
15.01.2021	02:11:00	0	0	5,084705	1,43775	81,5976	-1,46	81,049	0	1008,54	4,6	6,9	6,8	1	1	1	1	1	1	1	1	1	0	1	-66,596195	271,997331	243,746573	0
15.01.2021	02:11:01	0	0	5,084705	1,43775	81,5976	-1,46	81,049	0	1008,54	4,6	6,9	6,8	1	1	1	1	1	1	1	1	1	0	1	-66,596195	271,997331	243,746573	0
15.01.2021	02:11:02	0	0	3,8418	1,377	81,2808	-1,453	81,051	0	1008,7	4,6	6,9	6,7	1	1	1	1	1	1	1	1	1	0	1	-69,69697	271,870712	240,068324	0
15.01.2021	02:11:03	0	0	4,632759	1,428	88,5672	-1,452	81,054	0	1008,68	4,6	6,8	6,7	1	1	1	1	1	1	1	1	1	0	1	-69,274137	272,021417	241,178572	0
15.01.2021	02:11:04	0	0	3,050841	1,43325	72,6768	-1,451	81,048	0	1008,58	4,6	6,9	6,7	1	1	1	1	1	1	1	1	1	0	1	-68,07611	272,005356	242,303286	0
15.01.2021	02:11:05	0	0	4,971741	1,37925	82,5876	-1,449	81,031	0	1008,8	4,6	6,9	6,7	1	1	1	1	1	1	1	1	1	0	1	-68,710359	271,854778	240,98232	0
15.01.2021	02:11:06	0	0	3,27683	1,3365	85,1724	-1,445	81,033	0	1008,72	4,6	6,9	6,7	1	1	1	1	1	1	1	1	1	0	1	-70,190275	271,953252	239,95137	0
15.01.2021	02:11:07	0	0	4,745753	1,4295	71,6076	-1,454	81,027	0	1008,66	4,6	6,9	6,7	1	1	1	1	1	1	1	1	1	0	1	-71,317829	272,021417	239,134879	0
15.01.2021	02:11:08	0	0	4,745753	1,49925	79,7616	-1,455	81,014	0	1008,72	4,6	6,9	6,7	1	1	1	1	1	1	1	1	1	0	1	-66,102889	272,016062	244,325374	0
15.01.2021	02:11:09	0	0	4,406771	1,55625	76,932	-1,452	81,012	0	1008,78	4,6	6,9	6,7	1	1	1	1	1	1	1	1	1	0	1	-69,626498	271,929252	240,405681	0
15.01.2021	02:11:10	0	0	2,711859	1,63425	72,2808	-1,455	81,006	0	1008,7	4,6	6,9	6,7	1	1	1	1	1	1	1	1	1	0	1	-69,626498	272,040172	240,911837	0
15.01.2021	02:11:11	0	0	3,954794	1,71675	71,982	-1,449	81	0	1008,52	4,6	6,9	6,7	1	1	1	1	1	1	1	1	1	0	1	-69,556025	271,962594	240,628235	0
15.01.2021	02:11:12	0	0	2,824853	1,80525	79,7688	-1,455	80,998	0	1008,66	4,6	6,9	6,7	1	1	1	1	1	1	1	1	1	0	1	-70,119803	272,028113	240,363475	0
15.01.2021	02:11:13	0	0	4,067788	1,8765	77,9724	-1,453	80,977	0	1008,6	4,6	6,9	6,7	1	1	1	1	1	1	1	1	1	0	1	-68,07611	272,001343	242,28497	0
15.01.2021	02:11:14	0	0	2,937847	1,83375	80,1504	-1,456	80,977	0	1008,64	4,6	6,9	6,7	1	1	1	1	1	1	1	1	1	0	1	-65,186751	272,021417	245,265958	0
15.01.2021	02:11:15	0	0	4,293777	1,77075	86,2812	-1,452	80,966	0	1008,84	4,6	6,9	6,7	1	1	1	1	1	1	1	1	1	0	1	-71,529246	271,893308	238,339045	0
15.01.2021	02:11:16	0	0	4,971741	1,75575	76,0032	-1,456	80,971	0	1008,82	4,6	6,9	6,7	1	1	1	1	1	1	1	1	1	0	1	-70,119803	272,017401	240,314571	0
15.01.2021	02:11:17	0	0	4,519765	1,64625	80,8992	-1,451	80,958	0	1008,68	4,6	6,9	6,7	1	1	1	1	1	1	1	1	1	0	1	-69,626498	272,006694	240,759005	0
15.01.2021	02:11:18	0	0	4,406771	1,566	80,1612	-1,456	80,962	0	1008,68	4,6	6,9	6,7	1	1	1	1	1	1	1	1	1	0	1	-70,401691	272,013385	240,014352	0
15.01.2021	02:11:19	0	0	4,293777	1,53075	79,416	-1,45	80,965	0	1008,82	4,6	6,9	6,7	1	1	1	1	1	1	1	1	1	0	1	-67,794221	272,002681	242,572963	0
15.01.2021	02:11:20	0	0	5,084736	1,47525	91,9008	-1,444	80,956	0	1008,56	4,6	6,9	6,7	1	1	1	1	1	1	1	1	1	0	1	-70,119803	271,941248	239,967088	0
15.01.2021	02:11:21	0	0	4,519765	1,44975	76,0068	-1,45	80,975	0	1008,78	4,6	6,9	6,7	1	1	1	1	1	1	1	1	1	0	1	-70,965469	272,020078	239,481128	0
15.01.2021	02:11:22	0	0	4,971741	1,431	73,044	-1,448	80,968	0	1008,72	4,6	6,9	6,7	1	1	1	1	1	1	1	1	1	0	1	-65,609584	271,897299	244,276898	0
15.01.2021	02:11:23	0	0	3,050823	1,46625	76,3632	-1,453	80,97	0	1008,76	4,6	6,9	6,8	1	1	1	1	1	1	1	1	1	0	1	-68,992248	272,024095	241,472687	0
15.01.2021	02:11:24	0	0	3,27683	1,54725	81,5904	-1,448	80,953	0	1008,72	4,6	6,9	6,7	1	1	1	1	1	1	1	1	1	0	1	-72,797745	271,911937	237,155478	0
15.01.2021	02:11:25	0	0	3,8418	1,55775	74,5596	-1,446	80,938	0	1008,86	4,6	6,9	6,7	1	1	1	1	1	1	1	1	1	0	1	-70,119803	271,872041	239,651546	0
15.01.2021	02:11:26	0	0	4,971741	1,55925	82,3572	-1,455	80,907	0	1008,72	4,6	6,9	6,7	1	1	1	1	1	1	1	1	1	0	1	-65,186751	272,00937	245,210966	0
15.01.2021	02:11:27	0	0	4,293777	1,58175	83,376	-1,455	80,904	0	1008,6	4,5	6,9	6,7	1	1	1	1	1	1	1	1	1	0	1	-68,992248	272,012047	241,417686	0
15.01.2021	02:11:28	0	0	2,711859	1,5315	75,6288	-1,447	80,903	0	1008,76	4,6	6,9	6,7	1	1	1	1	1	1	1	1	1	0	1	-69,344609	272,021417	241,1081	0
15.01.2021	02:11:29	0	0	4,971741	1,46025	69,1488	-1,454	80,908	0	1008,7	4,6	6,9	6,7	1	1	1	1	1	1	1	1	1	0	1	-70,190275	271,99332	240,134186	0
15.01.2021	02:11:30	0	0	3,728784	1,49775	71,2512	-1,449	80,907	0	1008,6	4,6	6,9	6,8	1	1	1	1	1	1	1	1	1	0	1	-68,357999	272,025434	242,11305	0
15.01.2021	02:11:31	0	0	3,8418	1,54125	75,2364	-1,448	80,893	0	1008,98	4,5	6,9	6,7	1	1	1	1	1	1	1	1	1	0	1	-67,794221	271,969269	242,420494	0
15.01.2021	02:11:32	0	0	5,084736	1,6305	79,02	-1,452	80,893	0	1008,74	4,6	6,9	6,7	1	1	1	1	1	1	1	1	1	0	1	-66,525722	271,979954	243,737748	0
15.01.2021	02:11:33	0	0	3,163835	1,581	49,2012	-1,448	80,883	0	1008,84	4,6	6,9	6,7	1	1	1	1	1	1	1	1	1	0	1	-73,220578	272,042852	237,329998	0
15.01.2021	02:11:34	0	0	3,050841	1,554	69,1488	-1,45	80,877	0	1008,76	4,6	6,9	6,7	1	1	1	1	1	1	1	1	1	0	1	-68,217054	271,918595	241,766526	0
15.01.2021	02:11:35	0	0	4,519765	1,50375	60,552	-1,452	80,862	0	1008,7	4,6	6,9	6,7	1	1	1	1	1	1	1	1	1	0	1	-67,300916	271,866727	242,446217	0
15.01.2021	02:11:36	0	0	3,27683	1,4595	61,3044	-1,447	80,86	0	1008,74	4,6	6,9	6,7	1	1	1	1	1	1	1	1	1	0	1	-68,07611	271,865399	241,664971	0
15.01.2021	02:11:37	0	0	3,389824	1,43775	54,8028	-1,448	80,852	0	1008,8	4,6	6,9	6,7	1	1	1	1	1	1	1	1	1	0	1	-71,317829	271,997331	239,024938	0
15.01.2021	02:11:38	0	0	4,519765	1,4055	45,1512	-1,448	80,858	0	1008,56	4,6	6,9	6,7	1	1	1	1	1	1	1	1	1	0	1	-68,992248	271,922591	241,009552	0
15.01.2021	02:11:39	0	0	4,293777	1,41225	51,7536	-1,455	80,842	0	1008,6	4,6	6,9	6,7	1	1	1	1	1	1	1	1	1	0	1	-68,992248	272,042852	241,558328	0
15.01.2021	02:11:40	0	0	4,971741	1,377	51,75	-1,456	80,816	0	1008,76	4,6	6,9	6,7	1	1	1	1	1	1	1	1	1	0	1	-71,599718	272,001343	238,761361	0
15.01.2021	02:11:41	0	0	3,163835	1,34925	57,4128	-1,45	80,814	0	1008,92	4,5	6,9	6,7	1	1	1	1	1	1	1	1	1	0	1	-68,498943	271,877355	241,296629	0
15.01.2021	02:11:42	0	0	3,728806	1,245	60,9336	-1,452	80,786	0	1008,72	4,6	6,9	6,7	1	1	1	1	1	1	1	1	1	0	1	-69,344609	271,873369	240,432795	0
15.01.2021	02:11:43	0	0	3,163835	1,20075	55,9188	-1,451	80,777	0	1008,7	4,6	6,9	6,7	1	1	1	1	1	1	1	1	1	0	1	-66,596195	271,930585	243,442061	0
15.01.2021	02:11:44	0	0	4,519738	1,191	54,4896	-1,448	80,774	0	1008,82	4,6	6,9	6,8	1	1	1	1	1	1	1	1	1	0	1	-67,864693	271,860088	241,852183	0
15.01.2021	02:11:45	0	0	2,937847	1,1205	50,2848	-1,453	80,758	0	1008,64	4,6	6,9	6,7	1	1	1	1	1	1	1	1	1	0	1	-68,357999	271,909275	241,583085	0
15.01.2021	02:11:46	0	0	4,180783	1,1655	51,0588	-1,451	80,742	0	1008,78	4,6	6,9	6,7	1	1	1	1	1	1	1	1	1	0	1	-70,260747	272,014723	240,161406	0
15.01.2021	02:11:47	0	0	4,293777	1,2105	57,4128	-1,452	80,728	0	1008,76	4,6	6,9	6,7	1	1	1	1	1	1	1	1	1	0	1	-69,767442	271,951918	240,368117	0
15.01.2021	02:11:48	0	0	4,858747	1,2345	71,2224	-1,453	80,724	0	1008,72	4,6	6,9	6,7	1	1	1	1	1	1	1	1	1	0	1	-65,46864	272,021417	244,984069	0
15.01.2021	02:11:49	0	0	4,745753	1,1835	66,2256	-1,452	80,719	0	1008,74	4,6	6,9	6,7	1	1	1	1	1	1	1	1	1	0	1	-68,851304	271,865399	240,889777	0
15.01.2021	02:11:50	0	0	3,502818	1,13925	47,3652	-1,45	80,699	0	1008,66	4,6	6,9	6,7	1	1	1	1	1	1	1	1	1	0	1	-68,639887	271,934583	241,416602	0
15.01.2021	02:11:51	0	0	3,615812	1,1415	54,792	-1,45	80,693	0	1008,74	4,6	6,9	6,7	1	1	1	1	1	1	1	1	1	0	1	-70,401691	271,997331	239,941076	0
15.01.2021	02:11:52	0	0	3,050841	1,1805	65,4588	-1,454	80,662	0	1008,62	4,6	6,9	6,7	1	1	1	1	1	1	1	1	1	0	1	-73,150106	272,033472	237,357637	0
15.01.2021	02:11:53	0	0	3,27683	1,22025	52,5888	-1,453	80,648	0	1008,6	4,6	6,9	6,7	1	1	1	1	1	1	1	1	1	0	1	-67,159972	271,917263	242,817536	0
15.01.2021	02:11:54	0	0	3,050841	1,22775	67,6548	-1,451	80,656	0	1008,72	4,6	6,8	6,7	1	1	1	1	1	1	1	1	1	0	1	-67,0895	272,021417	243,363209	0
15.01.2021	02:11:55	0	0	3,502818	1,19325	69,1344	-1,458	80,642	0	1008,84	4,6	6,9	6,7	1	1	1	1	1	1	1	1	1	0	1	-71,106413	272,038831	239,425803	0
15.01.2021	02:11:56	0	0	4,745753	1,14525	59,1084	-1,459	80,622	0	1008,72	4,6	6,9	6,7	1	1	1	1	1	1	1	1	1	0	1	-69,767442	271,967934	240,441181	0
15.01.2021	02:11:57	0	0	4,519765	1,11375	54,594	-1,462	80,603	0	1008,68	4,6	6,9	6,7	1	1	1	1	1	1	1	1	1	0	1	-69,06272	271,861415	240,660206	0
15.01.2021	02:11:58	0	0	2,598865	1,125	57,0204	-1,46	80,587	0	1008,66	4,6	6,9	6,7	1	1	1	1	1	1	1	1	1	0	1	-69,415081	271,891979	240,447147	0
15.01.2021	02:11:59	0	0	4,293777	1,137	63,4752	-1,454	80,579	0	1008,6	4,7	6,9	6,7	1	1	1	1	1	1	1	1	1	0	1	-67,159972	271,970604	243,060836	0
15.01.2021	02:12:00	0	0	3,050841	1,21125	56,2752	-1,457	80,549	0	1008,68	4,5	6,9	6,7	1	1	1	1	1	1	1	1	1	0	1	-65,891473	271,94925	244,231916	0
15.01.2021	02:12:01	0	0	3,050841	1,21125	56,2752	-1,457	80,549	0	1008,68	4,5	6,9	6,7	1	1	1	1	1	1	1	1	1	0	1	-65,891473	271,94925	244,231916	0
15.01.2021	02:12:02	0	0	2,711859	1,21725	57,0564	-1,458	80,544	0	1008,7	4,6	6,9	6,7	1	1	1	1	1	1	1	1	1	0	1	-69,908386	272,032132	240,593239	0
15.01.2021	02:12:03	0	0	2,146888	1,28775	49,2012	-1,456	80,543	0	1008,6	4,6	6,9	6,7	1	1	1	1	1	1	1	1	1	0	1	-70,190275	271,910606	239,756878	0
15.01.2021	02:12:04	0	0	3,954794	1,43925	51,444	-1,459	80,527	0	1008,68	4,5	6,8	6,7	1	1	1	1	1	1	1	1	1	0	1	-70,049331	271,864071	239,685698	0
15.01.2021	02:12:05	0	0	2,824853	1,4775	61,326	-1,454	80,539	0	1008,7	4,6	6,9	6,7	1	1	1	1	1	1	1	1	1	0	1	-67,864693	271,852123	241,815891	0
15.01.2021	02:12:06	0	0	3,050841	1,44675	48,1248	-1,462	80,526	0	1008,7	4,6	6,9	6,7	1	1	1	1	1	1	1	1	1	0	1	-71,176885	271,94925	238,946504	0
15.01.2021	02:12:07	0	0	3,8418	1,39125	44,406	-1,455	80,525	0	1008,74	4,6	6,9	6,7	1	1	1	1	1	1	1	1	1	0	1	-67,371388	271,846816	242,285011	0
15.01.2021	02:12:08	0	0	4,406771	1,34325	46,5984	-1,46	80,52	0	1008,74	4,5	6,9	6,7	1	1	1	1	1	1	1	1	1	0	1	-68,569415	272,013385	241,846628	0
15.01.2021	02:12:09	0	0	3,050841	1,3275	51,0516	-1,46	80,525	0	1008,76	4,5	6,9	6,7	1	1	1	1	1	1	1	1	1	0	1	-68,005638	271,942582	242,087335	0
15.01.2021	02:12:10	0	0	3,163835	1,3335	56,2752	-1,467	80,523	0	1008,7	4,5	6,9	6,7	1	1	1	1	1	1	1	1	1	0	1	-70,894996	271,850796	238,779541	0
15.01.2021	02:12:11	0	0	4,971741	1,26075	56,2824	-1,464	80,511	0	1008,68	4,6	6,9	6,7	1	1	1	1	1	1	1	1	1	0	1	-67,935166	271,906613	241,99378	0
15.01.2021	02:12:12	0	0	4,632759	1,233	63,1728	-1,46	80,53	0	1008,78	4,5	6,9	6,7	1	1	1	1	1	1	1	1	1	0	1	-70,260747	272,008032	240,130863	0
15.01.2021	02:12:13	0	0	4,971741	1,236	67,2804	-1,464	80,516	0	1008,68	4,5	6,8	6,7	1	1	1	1	1	1	1	1	1	0	1	-65,257223	271,983963	245,024538	0
15.01.2021	02:12:14	0	0	3,8418	1,2465	64,2456	-1,47	80,493	0	1008,74	4,6	6,9	6,7	1	1	1	1	1	1	1	1	1	0	1	-70,049331	271,954586	240,098401	0
15.01.2021	02:12:15	0	0	2,937847	1,27875	54,4896	-1,465	80,512	0	1008,84	4,5	6,9	6,7	1	1	1	1	1	1	1	1	1	0	1	-67,019027	271,868055	242,734159	0
15.01.2021	02:12:16	0	0	2,372877	1,28175	71,3196	-1,465	80,497	0	1008,66	4,6	6,9	6,7	1	1	1	1	1	1	1	1	1	0	1	-71,529246	271,941248	238,557645	0
15.01.2021	02:12:17	0	0	2,711859	1,3365	67,302	-1,464	80,508	0	1008,66	4,5	6,9	6,7	1	1	1	1	1	1	1	1	1	0	1	-70,472163	272,000006	239,882812	0
15.01.2021	02:12:18	0	0	2,937847	1,43325	60,2352	-1,467	80,466	0	1008,74	4,6	6,9	6,7	1	1	1	1	1	1	1	1	1	0	1	-65,539112	271,844162	244,105198	0
15.01.2021	02:12:19	0	0	4,745725	1,45275	55,1664	-1,467	80,484	0	1008,54	4,5	6,9	6,8	1	1	1	1	1	1	1	1	1	0	1	-68,780832	271,898629	241,111715	0
15.01.2021	02:12:20	0	0	3,163835	1,5765	54,486	-1,465	80,476	0	1008,56	4,6	6,9	6,7	1	1	1	1	1	1	1	1	1	0	1	-66,243834	272,010708	244,159992	0
15.01.2021	02:12:21	0	0	3,389824	1,6755	56,7504	-1,468	80,468	0	1008,6	4,6	6,9	6,7	1	1	1	1	1	1	1	1	1	0	1	-74,91191	271,954586	235,235821	0
15.01.2021	02:12:22	0	0	4,632731	1,7355	74,1636	-1,468	80,472	0	1008,66	4,6	6,9	6,8	1	1	1	1	1	1	1	1	1	0	1	-66,878083	272,001343	243,482996	0
15.01.2021	02:12:23	0	0	3,050841	1,66425	63,8568	-1,468	80,462	0	1008,58	4,5	6,9	6,7	1	1	1	1	1	1	1	1	1	0	1	-64,270613	271,866727	245,47652	0
15.01.2021	02:12:24	0	0	3,954794	1,60425	66,8988	-1,465	80,452	0	1008,7	4,5	6,9	6,7	1	1	1	1	1	1	1	1	1	0	1	-68,710359	271,887989	241,133683	0
15.01.2021	02:12:25	0	0	4,067788	1,69425	64,6164	-1,469	80,457	0	1008,74	4,5	6,9	6,7	1	1	1	1	1	1	1	1	1	0	1	-62,649753	271,845489	247,000601	0
15.01.2021	02:12:26	0	0	4,632759	2,0385	77,2236	-1,468	80,437	0	1008,68	4,6	6,9	6,7	1	1	1	1	1	1	1	1	1	0	1	-70,049331	271,983963	240,232431	0
15.01.2021	02:12:27	0	0	4,519765	2,04975	54,4896	-1,47	80,445	0	1008,78	4,6	6,9	6,7	1	1	1	1	1	1	1	1	1	0	1	-66,807611	271,833553	242,788363	0
15.01.2021	02:12:28	0	0	3,050841	1,9725	59,8608	-1,476	80,439	0	1008,64	4,5	6,9	6,7	1	1	1	1	1	1	1	1	1	0	1	-74,489077	271,951918	235,646482	0
15.01.2021	02:12:29	0	0	3,389824	1,9335	44,7768	-1,47	80,475	0	1008,78	4,5	6,9	6,7	1	1	1	1	1	1	1	1	1	0	1	-69,626498	271,987972	240,673561	0
15.01.2021	02:12:30	0	0	2,711859	2,073	47,7648	-1,474	80,471	0	1008,64	4,6	6,9	6,7	1	1	1	1	1	1	1	1	1	0	1	-67,0895	271,889319	242,760604	0
15.01.2021	02:12:31	0	0	4,293777	2,3325	57,4056	-1,468	80,468	0	1008,78	4,5	6,9	6,7	1	1	1	1	1	1	1	1	1	0	1	-69,415081	272,010708	240,988744	0
15.01.2021	02:12:32	0	0	3,615812	2,502	46,6092	-1,475	80,49	0	1008,76	4,6	6,9	6,7	1	1	1	1	1	1	1	1	1	0	1	-66,314306	271,942582	243,778666	0
15.01.2021	02:12:33	0	0	2,937865	2,42475	57,0312	-1,472	80,503	0	1008,76	4,5	6,9	6,6	1	1	1	1	1	1	1	1	1	0	1	-66,525722	271,829576	243,052134	0
15.01.2021	02:12:34	0	0	3,615812	2,42025	56,6748	-1,476	80,514	0	1008,7	4,6	6,9	6,7	1	1	1	1	1	1	1	1	1	0	1	-69,485553	271,887989	240,35849	0
15.01.2021	02:12:35	0	0	2,937847	2,34375	54,1044	-1,476	80,531	0	1008,64	4,6	6,9	6,7	1	1	1	1	1	1	1	1	1	0	1	-64,48203	271,961259	245,696141	0
15.01.2021	02:12:36	0	0	2,824853	2,1075	64,638	-1,474	80,561	0	1008,68	4,6	6,9	6,7	1	1	1	1	1	1	1	1	1	0	1	-71,529246	271,99332	238,795215	0
15.01.2021	02:12:37	0	0	4,745753	1,8525	69,4692	-1,477	80,564	0	1008,62	4,6	6,9	6,7	1	1	1	1	1	1	1	1	1	0	1	-68,992248	271,99332	241,332212	0
15.01.2021	02:12:38	0	0	2,937847	1,64625	78,2712	-1,479	80,566	0	1008,76	4,5	6,9	6,7	1	1	1	1	1	1	1	1	1	0	1	-66,102889	272,004019	244,270401	0
15.01.2021	02:12:39	0	0	3,8418	1,5165	51,7644	-1,479	80,576	0	1008,72	4,6	6,9	6,7	1	1	1	1	1	1	1	1	1	0	1	-68,710359	271,88666	241,127623	0
15.01.2021	02:12:40	0	0	2,598865	1,467	78,2676	-1,475	80,577	0	1008,56	4,6	6,9	6,7	1	1	1	1	1	1	1	1	1	0	1	-68,357999	271,844162	241,286312	0
15.01.2021	02:12:41	0	0	4,067788	1,37775	82,3428	-1,477	80,599	0	1008,74	4,6	6,9	6,7	1	1	1	1	1	1	1	1	1	0	1	-68,146582	271,925255	241,867368	0
15.01.2021	02:12:42	0	0	3,163835	1,3905	76,3596	-1,479	80,598	0	1008,64	4,6	6,9	6,7	1	1	1	1	1	1	1	1	1	0	1	-74,348132	271,838857	235,272006	0
15.01.2021	02:12:43	0	0	2,711859	1,39575	80,8884	-1,48	80,589	0	1008,66	4,5	6,9	6,7	1	1	1	1	1	1	1	1	1	0	1	-69,767442	271,897299	240,11904	0
15.01.2021	02:12:44	0	0	3,728784	1,425	81,6156	-1,475	80,597	0	1008,84	4,7	6,9	6,8	1	1	1	1	1	1	1	1	1	0	1	-67,935166	271,834879	241,666849	0
15.01.2021	02:12:45	0	0	4,632759	1,4445	78,6636	-1,48	80,607	0	1008,72	4,6	6,9	6,7	1	1	1	1	1	1	1	1	1	0	1	-67,371388	271,873369	242,406015	0
15.01.2021	02:12:46	0	0	2,485871	1,443	74,9448	-1,477	80,607	0	1008,84	4,6	6,9	6,7	1	1	1	1	1	1	1	1	1	0	1	-70,68358	271,838857	238,936558	0
15.01.2021	02:12:47	0	0	3,163835	1,458	79,128	-1,475	80,618	0	1008,74	4,6	6,9	6,7	1	1	1	1	1	1	1	1	1	0	1	-69,06272	271,829576	240,515136	0
15.01.2021	02:12:48	0	0	3,050823	1,58625	80,5392	-1,48	80,61	0	1008,72	4,6	6,9	6,8	1	1	1	1	1	1	1	1	1	0	1	-72,797745	271,907944	237,13727	0
15.01.2021	02:12:49	0	0	3,8418	1,5855	75,2472	-1,482	80,605	0	1008,74	4,5	6,9	6,7	1	1	1	1	1	1	1	1	1	0	1	-70,119803	271,830901	239,464092	0
15.01.2021	02:12:50	0	0	4,971741	1,59375	77,9724	-1,479	80,595	0	1008,76	4,6	6,9	6,7	1	1	1	1	1	1	1	1	1	0	1	-68,921776	272,002681	241,445409	0
15.01.2021	02:12:51	0	0	4,745753	1,611	82,3392	-1,481	80,591	0	1008,8	4,6	6,9	6,7	1	1	1	1	1	1	1	1	1	0	1	-72,515856	271,897299	237,370626	0
15.01.2021	02:12:52	0	0	4,745753	1,58625	79,0308	-1,482	80,574	0	1008,7	4,6	6,9	6,7	1	1	1	1	1	1	1	1	1	0	1	-66,384778	271,838857	243,23536	0
15.01.2021	02:12:53	0	0	3,8418	1,58925	76,3704	-1,481	80,553	0	1008,76	4,6	6,9	6,7	1	1	1	1	1	1	1	1	1	0	1	-66,314306	271,919927	243,675347	0
15.01.2021	02:12:54	0	0	4,519765	1,584	72,6804	-1,489	80,535	0	1008,84	4,6	6,9	6,7	1	1	1	1	1	1	1	1	1	0	1	-70,613108	271,829576	238,964749	0
15.01.2021	02:12:55	0	0	3,502818	1,5525	73,1556	-1,488	80,528	0	1008,66	4,6	6,9	6,7	1	1	1	1	1	1	1	1	1	0	1	-66,737139	271,853451	242,949493	0
15.01.2021	02:12:56	0	0	4,067788	1,533	70,8552	-1,482	80,526	0	1008,72	4,6	6,9	6,7	1	1	1	1	1	1	1	1	1	0	1	-68,569415	271,89996	241,329197	0
15.01.2021	02:12:57	0	0	3,954794	1,488	79,4124	-1,486	80,509	0	1008,74	4,6	6,9	6,7	1	1	1	1	1	1	1	1	1	0	1	-66,173362	271,837531	243,440735	0
15.01.2021	02:12:58	0	0	4,519738	1,4985	67,2948	-1,489	80,491	0	1008,58	4,5	6,9	6,8	1	1	1	1	1	1	1	1	1	0	1	-69,344609	271,957255	240,815296	0
15.01.2021	02:12:59	0	0	3,728784	1,50825	72,702	-1,484	80,511	0	1008,66	4,6	6,9	6,8	1	1	1	1	1	1	1	1	1	0	1	-68,498943	271,985299	241,788917	0
15.01.2021	02:13:00	0	0	4,406771	1,4625	71,2368	-1,485	80,478	0	1008,62	4,6	6,9	6,7	1	1	1	1	1	1	1	1	1	0	1	-66,45525	271,957255	243,704655	0
15.01.2021	02:13:01	0	0	4,406771	1,4625	71,2368	-1,485	80,478	0	1008,62	4,6	6,9	6,7	1	1	1	1	1	1	1	1	1	0	1	-66,45525	271,957255	243,704655	0
15.01.2021	02:13:02	0	0	4,519765	1,488	76,4712	-1,487	80,457	0	1008,68	4,5	6,9	6,7	1	1	1	1	1	1	1	1	1	0	1	-70,260747	271,998668	240,088124	0
15.01.2021	02:13:03	0	0	2,824853	1,50225	72,7056	-1,492	80,454	0	1008,7	4,6	6,9	6,7	1	1	1	1	1	1	1	1	1	0	1	-66,173362	271,889319	243,676742	0
15.01.2021	02:13:04	0	0	4,519765	1,43475	71,964	-1,491	80,428	0	1008,58	4,6	6,9	6,7	1	1	1	1	1	1	1	1	1	0	1	-65,821001	271,850796	243,853536	0
15.01.2021	02:13:05	0	0	3,163835	1,455	95,526	-1,497	80,417	0	1008,72	4,6	6,9	6,7	1	1	1	1	1	1	1	1	1	0	1	-68,498943	271,909275	241,44214	0
15.01.2021	02:13:06	0	0	3,615812	1,41	86,3784	-1,492	80,388	0	1008,54	4,5	6,9	6,7	1	1	1	1	1	1	1	1	1	0	1	-69,837914	271,987972	240,462144	0
15.01.2021	02:13:07	0	0	2,824853	1,32525	95,5872	-1,494	80,392	0	1008,6	4,6	6,9	6,7	1	1	1	1	1	1	1	1	1	0	1	-65,961945	271,872041	243,809403	0
15.01.2021	02:13:08	0	0	3,954794	1,20375	88,9596	-1,494	80,398	0	1008,74	4,5	6,9	6,7	1	1	1	1	1	1	1	1	1	0	1	-64,341085	271,983963	245,940677	0
15.01.2021	02:13:09	0	0	2,937847	1,09575	65,8548	-1,492	80,386	0	1008,74	4,6	6,9	6,7	1	1	1	1	1	1	1	1	1	0	1	-70,049331	271,862743	239,679647	0
15.01.2021	02:13:10	0	0	4,858747	1,10325	45,54	-1,497	80,398	0	1008,78	4,6	6,9	6,7	1	1	1	1	1	1	1	1	1	0	1	-66,314306	271,880013	243,493381	0
15.01.2021	02:13:11	0	0	2,824853	1,203	49,572	-1,5	80,391	0	1008,8	4,6	6,9	6,7	1	1	1	1	1	1	1	1	1	0	1	-66,807611	271,950584	243,321862	0
15.01.2021	02:13:12	0	0	4,519765	1,24125	54,4824	-1,498	80,407	0	1008,74	4,6	6,9	6,7	1	1	1	1	1	1	1	1	1	0	1	-67,371388	271,822949	242,176282	0
15.01.2021	02:13:13	0	0	4,858747	1,22775	65,0916	-1,504	80,418	0	1008,82	4,6	6,9	6,7	1	1	1	1	1	1	1	1	1	0	1	-70,68358	271,869384	239,07566	0
15.01.2021	02:13:14	0	0	3,163835	1,25025	73,8036	-1,502	80,44	0	1008,74	4,6	6,9	6,7	1	1	1	1	1	1	1	1	1	0	1	-68,992248	271,987972	241,30781	0
15.01.2021	02:13:15	0	0	3,389824	1,218	73,0368	-1,495	80,444	0	1008,8	4,6	6,9	6,7	1	1	1	1	1	1	1	1	1	0	1	-62,649753	271,838857	246,970385	0
15.01.2021	02:13:16	0	0	2,485871	1,17525	67,3992	-1,496	80,46	0	1008,72	4,6	6,9	6,7	1	1	1	1	1	1	1	1	1	0	1	-68,992248	271,929252	241,03993	0
15.01.2021	02:13:17	0	0	4,745753	1,23	52,4952	-1,501	80,45	0	1008,76	4,6	6,9	6,7	1	1	1	1	1	1	1	1	1	0	1	-68,569415	271,822949	240,978255	0
15.01.2021	02:13:18	0	0	4,971741	1,30125	55,1628	-1,5	80,444	0	1008,7	4,6	6,9	6,7	1	1	1	1	1	1	1	1	1	0	1	-69,978858	271,887989	239,865184	0
15.01.2021	02:13:19	0	0	4,632759	1,28325	62,4276	-1,505	80,447	0	1008,76	4,6	6,9	6,7	1	1	1	1	1	1	1	1	1	0	1	-67,159972	271,994657	243,170591	0
15.01.2021	02:13:20	0	0	4,858747	1,278	63,1764	-1,514	80,445	0	1008,6	4,6	6,9	6,7	1	1	1	1	1	1	1	1	1	0	1	-65,257223	271,962594	244,927037	0
15.01.2021	02:13:21	0	0	2,937847	1,251	57,42	-1,503	80,453	0	1008,78	4,6	6,9	6,7	1	1	1	1	1	1	1	1	1	0	1	-66,314306	271,870712	243,450988	0
15.01.2021	02:13:22	0	0	4,632759	1,19475	54,1224	-1,505	80,455	0	1008,76	4,6	6,9	6,7	1	1	1	1	1	1	1	1	1	0	1	-64,622974	271,848142	245,039471	0
15.01.2021	02:13:23	0	0	2,937847	1,1775	57,7476	-1,501	80,458	0	1008,84	4,6	6,9	6,7	1	1	1	1	1	1	1	1	1	0	1	-71,881607	271,983963	238,400155	0
15.01.2021	02:13:24	0	0	3,502818	1,176	62,0496	-1,508	80,441	0	1008,86	4,6	6,9	6,7	1	1	1	1	1	1	1	1	1	0	1	-70,894996	271,824274	238,65871	0
15.01.2021	02:13:25	0	0	3,502818	1,19325	58,1184	-1,506	80,426	0	1008,74	4,6	6,9	6,7	1	1	1	1	1	1	1	1	1	0	1	-68,287526	271,884001	241,538336	0
15.01.2021	02:13:26	0	0	2,598865	1,25025	53,7408	-1,507	80,421	0	1008,8	4,5	6,9	6,7	1	1	1	1	1	1	1	1	1	0	1	-69,69697	271,862743	240,032008	0
15.01.2021	02:13:27	0	0	5,084736	1,236	59,4864	-1,508	80,406	0	1008,8	4,5	6,9	6,7	1	1	1	1	1	1	1	1	1	0	1	-66,032417	271,833553	243,563557	0
15.01.2021	02:13:28	0	0	4,858747	1,1895	64,6308	-1,506	80,392	0	1008,68	4,6	6,9	6,7	1	1	1	1	1	1	1	1	1	0	1	-69,485553	271,866727	240,26158	0
15.01.2021	02:13:29	0	0	3,615812	1,0935	66,5244	-1,511	80,378	0	1008,82	4,6	6,9	6,7	1	1	1	1	1	1	1	1	1	0	1	-65,750529	271,82825	243,82129	0
15.01.2021	02:13:30	0	0	5,084736	1,0215	54,7992	-1,507	80,374	0	1008,82	4,5	6,9	6,7	1	1	1	1	1	1	1	1	1	0	1	-68,639887	271,833553	240,956087	0
15.01.2021	02:13:31	0	0	4,180783	1,06275	49,9464	-1,513	80,361	0	1008,72	4,6	6,9	6,7	1	1	1	1	1	1	1	1	1	0	1	-66,525722	271,970604	243,695085	0
15.01.2021	02:13:32	0	0	3,163835	1,134	62,0388	-1,512	80,353	0	1008,72	4,6	6,9	6,7	1	1	1	1	1	1	1	1	1	0	1	-68,569415	271,941248	241,517475	0
15.01.2021	02:13:33	0	0	2,598865	1,14	59,5008	-1,512	80,344	0	1008,74	4,6	6,9	6,7	1	1	1	1	1	1	1	1	1	0	1	-65,116279	271,818974	244,413286	0
15.01.2021	02:13:34	0	0	4,632759	1,2075	48,1032	-1,518	80,329	0	1008,58	4,6	6,9	6,7	1	1	1	1	1	1	1	1	1	0	1	-67,300916	271,846816	242,355483	0
15.01.2021	02:13:35	0	0	5,084736	1,25325	57,024	-1,52	80,338	0	1008,72	4,6	6,9	6,7	1	1	1	1	1	1	1	1	1	0	1	-67,44186	271,82825	242,129958	0
15.01.2021	02:13:36	0	0	4,293777	1,26975	63,4752	-1,516	80,338	0	1008,7	4,5	6,9	6,7	1	1	1	1	1	1	1	1	1	0	1	-66,384778	271,99332	243,939682	0
15.01.2021	02:13:37	0	0	3,27683	1,3245	60,5556	-1,513	80,346	0	1008,8	4,6	6,9	6,7	1	1	1	1	1	1	1	1	1	0	1	-66,596195	271,870712	243,169099	0
15.01.2021	02:13:38	0	0	4,293777	1,41825	66,2436	-1,52	80,349	0	1008,86	4,6	6,9	6,7	1	1	1	1	1	1	1	1	1	0	1	-67,159972	271,983963	243,12179	0
15.01.2021	02:13:39	0	0	5,536712	1,59375	66,5352	-1,519	80,341	0	1008,76	4,6	6,9	6,7	1	1	1	1	1	1	1	1	1	0	1	-65,539112	271,891979	244,323116	0
15.01.2021	02:13:40	0	0	2,937847	1,743	76,8096	-1,512	80,36	0	1008,62	4,6	6,9	6,7	1	1	1	1	1	1	1	1	1	0	1	-69,978858	271,813676	239,526573	0
15.01.2021	02:13:41	0	0	4,971741	1,79175	55,5228	-1,523	80,351	0	1008,58	4,6	6,9	6,7	1	1	1	1	1	1	1	1	1	0	1	-65,891473	271,935916	244,171096	0
15.01.2021	02:13:42	0	0	2,711859	1,88775	49,5792	-1,519	80,373	0	1008,66	4,6	6,9	6,7	1	1	1	1	1	1	1	1	1	0	1	-67,653277	271,974611	242,585812	0
15.01.2021	02:13:43	0	0	4,632759	1,88925	38,8116	-1,523	80,377	0	1008,7	4,5	6,9	6,7	1	1	1	1	1	1	1	1	1	0	1	-70,542636	271,957255	239,61727	0
15.01.2021	02:13:44	0	0	4,632759	1,797	42,2136	-1,526	80,386	0	1008,76	4,6	6,9	6,7	1	1	1	1	1	1	1	1	1	0	1	-65,821001	271,909275	244,120083	0
15.01.2021	02:13:45	0	0	3,954794	1,67625	34,3404	-1,522	80,402	0	1008,76	4,6	6,9	6,7	1	1	1	1	1	1	1	1	1	0	1	-67,935166	271,982627	242,340498	0
15.01.2021	02:13:46	0	0	4,067788	1,56825	50,04	-1,525	80,395	0	1008,78	4,6	6,9	6,7	1	1	1	1	1	1	1	1	1	0	1	-68,710359	271,893308	241,157931	0
15.01.2021	02:13:47	0	0	2,937847	1,47	56,3148	-1,523	80,414	0	1008,76	4,6	6,9	6,7	1	1	1	1	1	1	1	1	1	0	1	-68,146582	271,982627	242,129082	0
15.01.2021	02:13:48	0	0	3,050841	1,40925	63,1728	-1,527	80,416	0	1008,76	4,6	6,9	6,7	1	1	1	1	1	1	1	1	1	0	1	-68,217054	271,812352	241,282345	0
15.01.2021	02:13:49	0	0	3,728806	1,35825	57,744	-1,525	80,418	0	1008,78	4,6	6,9	6,7	1	1	1	1	1	1	1	1	1	0	1	-67,159972	271,889319	242,690132	0
15.01.2021	02:13:50	0	0	5,19773	1,30125	51,4224	-1,531	80,417	0	1008,58	4,6	6,9	6,7	1	1	1	1	1	1	1	1	1	0	1	-66,596195	271,799113	242,842911	0
15.01.2021	02:13:51	0	0	4,519765	1,46025	59,4756	-1,528	80,433	0	1008,86	4,6	6,9	6,7	1	1	1	1	1	1	1	1	1	0	1	-68,498943	271,89996	241,399669	0
15.01.2021	02:13:52	0	0	4,519765	1,626	59,8644	-1,529	80,451	0	1008,76	4,6	6,9	6,7	1	1	1	1	1	1	1	1	1	0	1	-68,146582	271,833553	241,449392	0
15.01.2021	02:13:53	0	0	3,050841	1,70475	47,3796	-1,53	80,45	0	1008,74	4,6	6,9	6,7	1	1	1	1	1	1	1	1	1	0	1	-68,428471	271,97194	241,79843	0
15.01.2021	02:13:54	0	0	4,406771	1,73925	42,9048	-1,529	80,475	0	1008,74	4,6	6,9	6,7	1	1	1	1	1	1	1	1	1	0	1	-69,837914	271,902621	240,07283	0
15.01.2021	02:13:55	0	0	4,971741	1,6875	76,374	-1,529	80,492	0	1008,6	4,6	6,9	6,7	1	1	1	1	1	1	1	1	1	0	1	-62,297393	271,803083	247,159796	0
15.01.2021	02:13:56	0	0	3,8418	1,64625	67,6656	-1,528	80,505	0	1008,72	4,6	6,8	6,7	1	1	1	1	1	1	1	1	1	0	1	-65,46864	271,821624	244,072995	0
15.01.2021	02:13:57	0	0	3,728806	1,557	45,5436	-1,53	80,521	0	1008,84	4,6	6,9	6,7	1	1	1	1	1	1	1	1	1	0	1	-68,287526	271,82825	241,284292	0
15.01.2021	02:13:58	0	0	4,858718	1,39125	69,1776	-1,54	80,524	0	1008,72	4,6	6,9	6,8	1	1	1	1	1	1	1	1	1	0	1	-69,344609	271,942582	240,748363	0
15.01.2021	02:13:59	0	0	4,858747	1,35	77,1948	-1,539	80,539	0	1008,76	4,6	6,9	6,7	1	1	1	1	1	1	1	1	1	0	1	-69,203665	271,838857	240,416474	0
15.01.2021	02:14:00	0	0	2,937847	1,32525	58,8708	-1,53	80,584	0	1008,86	4,6	6,9	6,7	1	1	1	1	1	1	1	1	1	0	1	-67,794221	271,850796	241,880316	0
15.01.2021	02:14:01	0	0	2,937847	1,32525	58,8708	-1,53	80,584	0	1008,86	4,6	6,9	6,7	1	1	1	1	1	1	1	1	1	0	1	-67,794221	271,850796	241,880316	0
15.01.2021	02:14:02	0	0	3,954794	1,34925	53,3592	-1,536	80,589	0	1008,76	4,6	6,9	6,7	1	1	1	1	1	1	1	1	1	0	1	-68,287526	271,79382	241,127476	0
15.01.2021	02:14:03	0	0	3,163835	1,50075	47,7468	-1,534	80,608	0	1008,82	4,6	6,9	6,7	1	1	1	1	1	1	1	1	1	0	1	-67,864693	271,861415	241,858233	0
15.01.2021	02:14:04	0	0	3,389824	1,67175	45,5364	-1,536	80,615	0	1008,74	4,6	6,9	6,7	1	1	1	1	1	1	1	1	1	0	1	-66,737139	271,962594	243,447121	0
15.01.2021	02:14:05	0	0	4,293777	1,88625	56,6748	-1,536	80,603	0	1008,72	4,5	6,9	6,7	1	1	1	1	1	1	1	1	1	0	1	-68,851304	271,935916	241,211265	0
15.01.2021	02:14:06	0	0	5,310724	1,977	47,7648	-1,527	80,628	0	1008,8	4,6	6,9	6,7	1	1	1	1	1	1	1	1	1	0	1	-69,485553	271,799113	239,953553	0
15.01.2021	02:14:07	0	0	5,084736	2,12175	43,6356	-1,537	80,614	0	1008,76	4,6	6,9	6,7	1	1	1	1	1	1	1	1	1	0	1	-66,45525	271,917263	243,522257	0
15.01.2021	02:14:08	0	0	2,824853	2,1945	46,9548	-1,54	80,619	0	1008,7	4,6	6,8	6,7	1	1	1	1	1	1	1	1	1	0	1	-68,851304	271,796466	240,575749	0
15.01.2021	02:14:09	0	0	3,954794	2,154	44,3916	-1,537	80,629	0	1008,7	4,6	6,9	6,7	1	1	1	1	1	1	1	1	1	0	1	-71,035941	271,834879	238,566074	0
15.01.2021	02:14:10	0	0	2,598865	2,05725	53,3484	-1,538	80,628	0	1008,76	4,6	6,8	6,7	1	1	1	1	1	1	1	1	1	0	1	-68,428471	271,921259	241,567256	0
15.01.2021	02:14:11	0	0	4,406771	2,01825	58,4964	-1,536	80,647	0	1008,76	4,6	6,9	6,7	1	1	1	1	1	1	1	1	1	0	1	-69,06272	271,977283	241,188558	0
15.01.2021	02:14:12	0	0	5,084736	1,968	49,1868	-1,537	80,662	0	1008,88	4,6	6,9	6,7	1	1	1	1	1	1	1	1	1	0	1	-70,613108	271,818974	238,916457	0
15.01.2021	02:14:13	0	0	5,084736	1,8975	52,146	-1,54	80,67	0	1008,66	4,6	6,9	6,7	1	1	1	1	1	1	1	1	1	0	1	-68,851304	271,799113	240,587802	0
15.01.2021	02:14:14	0	0	3,163854	1,8435	60,2316	-1,534	80,68	0	1008,86	4,6	6,9	6,6	1	1	1	1	1	1	1	1	1	0	1	-66,243834	271,959924	243,928248	0
15.01.2021	02:14:15	0	0	4,971741	1,84725	34,7076	-1,544	80,669	0	1008,74	4,6	6,9	6,7	1	1	1	1	1	1	1	1	1	0	1	-69,69697	271,897299	240,189512	0
15.01.2021	02:14:16	0	0	4,406771	1,80225	61,6752	-1,545	80,679	0	1008,8	4,6	6,9	6,7	1	1	1	1	1	1	1	1	1	0	1	-65,46864	271,94925	244,654749	0
15.01.2021	02:14:17	0	0	5,084736	1,77075	51,4296	-1,545	80,687	0	1008,98	4,6	6,9	6,7	1	1	1	1	1	1	1	1	1	0	1	-71,317829	271,88666	238,520153	0
15.01.2021	02:14:18	0	0	4,519765	1,725	57,7188	-1,54	80,703	0	1008,84	4,6	6,9	6,7	1	1	1	1	1	1	1	1	1	0	1	-66,596195	271,947916	243,52111	0
15.01.2021	02:14:19	0	0	4,971741	1,6335	50,6808	-1,546	80,708	0	1008,78	4,6	6,9	6,7	1	1	1	1	1	1	1	1	1	0	1	-66,737139	271,9146	243,228225	0
15.01.2021	02:14:20	0	0	3,050841	1,6185	46,602	-1,543	80,713	0	1008,66	4,6	6,9	6,7	1	1	1	1	1	1	1	1	1	0	1	-68,780832	271,812352	240,718568	0
15.01.2021	02:14:21	0	0	3,27683	1,797	48,8016	-1,546	80,723	0	1008,72	4,6	6,9	6,7	1	1	1	1	1	1	1	1	1	0	1	-69,626498	271,803083	239,830691	0
15.01.2021	02:14:22	0	0	4,180783	1,9935	48,8124	-1,545	80,713	0	1008,74	4,6	6,8	6,7	1	1	1	1	1	1	1	1	1	0	1	-69,133192	271,874698	240,650267	0
15.01.2021	02:14:23	0	0	4,745753	2,1195	54,792	-1,543	80,711	0	1008,78	4,6	6,9	6,7	1	1	1	1	1	1	1	1	1	0	1	-71,599718	271,90129	238,30496	0
15.01.2021	02:14:24	0	0	2,937847	2,166	52,5096	-1,55	80,718	0	1008,66	4,6	6,9	6,7	1	1	1	1	1	1	1	1	1	0	1	-72,30444	271,785883	237,074423	0
15.01.2021	02:14:25	0	0	4,067788	2,18325	44,0352	-1,543	80,724	0	1008,74	4,6	6,9	6,7	1	1	1	1	1	1	1	1	1	0	1	-63,354475	271,840183	246,271705	0
15.01.2021	02:14:26	0	0	3,050841	2,1855	43,2936	-1,546	80,708	0	1008,72	4,6	6,9	6,7	1	1	1	1	1	1	1	1	1	0	1	-70,894996	271,954586	239,252735	0
15.01.2021	02:14:27	0	0	2,937847	2,10075	38,7972	-1,547	80,722	0	1008,74	4,6	6,9	6,7	1	1	1	1	1	1	1	1	1	0	1	-67,935166	271,833553	241,660808	0
15.01.2021	02:14:28	0	0	3,27683	2,10075	41,0148	-1,547	80,748	0	1008,78	4,6	6,9	6,7	1	1	1	1	1	1	1	1	1	0	1	-68,780832	271,785883	240,598032	0
15.01.2021	02:14:29	0	0	3,954794	2,163	42,2172	-1,55	80,755	0	1008,52	4,6	6,9	6,7	1	1	1	1	1	1	1	1	1	0	1	-69,908386	271,947916	240,208918	0
15.01.2021	02:14:30	0	0	4,745753	2,2275	35,4924	-1,541	80,77	0	1008,78	4,6	6,9	6,7	1	1	1	1	1	1	1	1	1	0	1	-73,502467	271,911937	236,450756	0
15.01.2021	02:14:31	0	0	3,27683	2,487	46,998	-1,544	80,792	0	1008,64	4,5	6,9	6,7	1	1	1	1	1	1	1	1	1	0	1	-66,45525	271,812352	243,044149	0
15.01.2021	02:14:32	0	0	3,163835	2,61075	41,8464	-1,545	80,809	0	1008,76	4,6	6,9	6,7	1	1	1	1	1	1	1	1	1	0	1	-68,287526	271,903951	241,629284	0
15.01.2021	02:14:33	0	0	4,180808	2,6115	43,3116	-1,546	80,862	0	1008,76	4,4	6,9	6,6	1	1	1	1	1	1	1	1	1	0	1	-68,921776	271,785883	240,457087	0
15.01.2021	02:14:34	0	0	4,858776	2,5995	49,9572	-1,545	80,889	0	1008,82	4,6	6,9	6,6	1	1	1	1	1	1	1	1	1	0	1	-64,904863	271,836205	244,703193	0
15.01.2021	02:14:35	0	0	4,632759	2,58075	49,1904	-1,544	80,928	0	1008,92	4,6	6,9	6,7	1	1	1	1	1	1	1	1	1	0	1	-71,458774	271,950584	238,6707	0
15.01.2021	02:14:36	0	0	3,389824	2,5305	52,4988	-1,545	80,953	0	1008,82	4,6	6,9	6,7	1	1	1	1	1	1	1	1	1	0	1	-66,666667	271,807055	242,808609	0
15.01.2021	02:14:37	0	0	3,163835	2,46225	47,7612	-1,545	80,972	0	1008,64	4,6	6,9	6,7	1	1	1	1	1	1	1	1	1	0	1	-67,300916	271,937249	242,767732	0
15.01.2021	02:14:38	0	0	3,163835	2,397	51,0444	-1,547	80,99	0	1008,7	4,6	6,9	6,7	1	1	1	1	1	1	1	1	1	0	1	-66,173362	271,785883	243,205502	0
15.01.2021	02:14:39	0	0	4,180783	2,37525	47,3688	-1,539	81,021	0	1008,82	4,6	6,9	6,7	1	1	1	1	1	1	1	1	1	0	1	-69,203665	271,894639	240,670689	0
15.01.2021	02:14:40	0	0	4,632759	2,33925	57,0492	-1,542	81,046	0	1008,72	4,6	6,9	6,7	1	1	1	1	1	1	1	1	1	0	1	-71,952079	271,954586	238,195652	0
15.01.2021	02:14:41	0	0	3,163835	2,18925	51,5268	-1,541	81,058	0	1008,68	4,6	6,9	6,7	1	1	1	1	1	1	1	1	1	0	1	-70,049331	271,877355	239,746241	0
15.01.2021	02:14:42	0	0	4,180783	2,073	57,42	-1,542	81,081	0	1008,94	4,6	6,9	6,7	1	1	1	1	1	1	1	1	1	0	1	-69,274137	271,937249	240,794512	0
15.01.2021	02:14:43	0	0	2,372877	1,92975	56,286	-1,541	81,076	0	1008,78	4,6	6,9	6,7	1	1	1	1	1	1	1	1	1	0	1	-70,119803	271,881342	239,693942	0
15.01.2021	02:14:44	0	0	4,519792	1,80975	57,0528	-1,547	81,095	0	1008,72	4,6	6,9	6,6	1	1	1	1	1	1	1	1	1	0	1	-60,676533	271,771341	248,636122	0
15.01.2021	02:14:45	0	0	4,406771	1,71825	51,4368	-1,543	81,089	0	1008,72	4,4	6,9	6,7	1	1	1	1	1	1	1	1	1	0	1	-70,401691	271,856105	239,297036	0
15.01.2021	02:14:46	0	0	3,502818	1,71225	81,2124	-1,549	81,091	0	1008,86	4,6	6,9	6,7	1	1	1	1	1	1	1	1	1	0	1	-68,428471	271,759451	240,830059	0
15.01.2021	02:14:47	0	0	3,389824	1,6665	69,4548	-1,547	81,096	0	1008,7	4,6	6,9	6,7	1	1	1	1	1	1	1	1	1	0	1	-70,68358	271,884001	239,142282	0
15.01.2021	02:14:48	0	0	2,598865	1,5945	89,3484	-1,549	81,087	0	1008,66	4,6	6,9	6,7	1	1	1	1	1	1	1	1	1	0	1	-67,512333	271,941248	242,574558	0
15.01.2021	02:14:49	0	0	4,971771	1,635	75,0168	-1,543	81,095	0	1008,78	4,6	6,8	6,6	1	1	1	1	1	1	1	1	1	0	1	-67,653277	271,788528	241,737631	0
15.01.2021	02:14:50	0	0	3,8418	1,5795	62,0244	-1,547	81,078	0	1008,6	4,6	6,9	6,7	1	1	1	1	1	1	1	1	1	0	1	-68,569415	271,830901	241,01448	0
15.01.2021	02:14:51	0	0	2,372877	1,6065	67,3092	-1,541	81,104	0	1008,76	4,6	6,9	6,7	1	1	1	1	1	1	1	1	1	0	1	-67,019027	271,941248	243,067863	0
15.01.2021	02:14:52	0	0	3,163854	1,5465	65,0952	-1,544	81,106	0	1008,76	4,6	6,9	6,6	1	1	1	1	1	1	1	1	1	0	1	-64,270613	271,877355	245,524959	0
15.01.2021	02:14:53	0	0	3,389824	1,521	52,1496	-1,542	81,095	0	1008,7	4,6	6,8	6,7	1	1	1	1	1	1	1	1	1	0	1	-66,948555	271,763414	242,328012	0
15.01.2021	02:14:54	0	0	2,937847	1,5225	46,998	-1,541	81,088	0	1008,72	4,6	6,8	6,7	1	1	1	1	1	1	1	1	1	0	1	-67,0895	271,80176	242,361661	0
15.01.2021	02:14:55	0	0	2,824853	1,44975	73,782	-1,542	81,089	0	1008,84	4,6	6,9	6,7	1	1	1	1	1	1	1	1	1	0	1	-71,317829	271,94925	238,805559	0
15.01.2021	02:14:56	0	0	2,598865	1,37175	72,6948	-1,544	81,051	0	1008,66	4,6	6,9	6,7	1	1	1	1	1	1	1	1	1	0	1	-70,260747	271,90129	239,643931	0
15.01.2021	02:14:57	0	0	3,615834	1,353	57,7368	-1,545	81,063	0	1008,82	4,6	6,9	6,6	1	1	1	1	1	1	1	1	1	0	1	-67,230444	271,804407	242,232773	0
15.01.2021	02:14:58	0	0	4,519792	1,35	68,4144	-1,539	81,075	0	1008,82	4,6	6,8	6,6	1	1	1	1	1	1	1	1	1	0	1	-66,314306	271,910606	243,632847	0
15.01.2021	02:14:59	0	0	5,310756	1,42725	59,1264	-1,547	81,053	0	1008,8	4,6	6,9	6,6	1	1	1	1	1	1	1	1	1	0	1	-65,045807	271,77002	244,260832	0
15.01.2021	02:15:00	0	0	3,276849	1,746	62,4132	-1,544	81,026	0	1008,74	4,4	6,9	6,6	1	1	1	1	1	1	1	1	1	0	1	-70,190275	271,844162	239,454036	0
15.01.2021	02:15:01	0	0	3,276849	1,746	62,4132	-1,544	81,026	0	1008,74	4,4	6,9	6,6	1	1	1	1	1	1	1	1	1	0	1	-70,190275	271,844162	239,454036	0
15.01.2021	02:15:02	0	0	4,745753	1,84425	60,246	-1,547	81,018	0	1008,7	4,6	6,9	6,7	1	1	1	1	1	1	1	1	1	0	1	-67,794221	271,918595	242,189359	0
15.01.2021	02:15:03	0	0	4,745753	1,97175	46,2888	-1,538	81,006	0	1008,66	4,6	6,8	6,7	1	1	1	1	1	1	1	1	1	0	1	-63,706836	271,797789	245,726243	0
15.01.2021	02:15:04	0	0	3,502818	2,271	54,4896	-1,541	81,007	0	1008,8	4,6	6,9	6,7	1	1	1	1	1	1	1	1	1	0	1	-66,807611	271,911937	243,145612	0
15.01.2021	02:15:05	0	0	4,519765	2,83725	58,4748	-1,54	80,993	0	1008,68	4,6	6,9	6,7	1	1	1	1	1	1	1	1	1	0	1	-71,317829	271,905282	238,605049	0
15.01.2021	02:15:06	0	0	5,084766	3,444	63,486	-1,544	80,969	0	1008,72	4,6	6,9	6,6	1	1	1	1	1	1	1	1	1	0	1	-74,207188	271,884001	235,618674	0
15.01.2021	02:15:07	0	0	4,180808	3,963	62,0496	-1,545	80,978	0	1008,76	4,6	6,8	6,6	1	1	1	1	1	1	1	1	1	0	1	-64,341085	271,92792	245,685016	0
15.01.2021	02:15:08	0	0	4,519792	4,39725	62,028	-1,543	80,965	0	1008,68	4,6	6,9	6,6	1	1	1	1	1	1	1	1	1	0	1	-68,07611	271,898629	241,816437	0
15.01.2021	02:15:09	0	0	4,632759	4,37175	69,4548	-1,541	80,97	0	1008,78	4,6	6,9	6,7	1	1	1	1	1	1	1	1	1	0	1	-70,331219	271,913269	239,628074	0
15.01.2021	02:15:10	0	0	3,27683	4,38225	66,2328	-1,542	80,974	0	1008,8	4,6	6,9	6,7	1	1	1	1	1	1	1	1	1	0	1	-69,274137	271,882672	240,545666	0
15.01.2021	02:15:11	0	0	4,632759	4,14375	64,2528	-1,545	80,963	0	1008,84	4,6	6,8	6,7	1	1	1	1	1	1	1	1	1	0	1	-67,794221	271,776628	241,542502	0
15.01.2021	02:15:12	0	0	5,084766	3,864	65,4696	-1,545	80,992	0	1008,7	4,6	6,9	6,6	1	1	1	1	1	1	1	1	1	0	1	-66,807611	271,906613	243,121335	0
15.01.2021	02:15:13	0	0	3,389824	3,66975	66,528	-1,541	80,992	0	1008,78	4,6	6,9	6,7	1	1	1	1	1	1	1	1	1	0	1	-67,512333	271,783238	241,854488	0
15.01.2021	02:15:14	0	0	4,519792	3,7665	72,6588	-1,542	80,998	0	1008,8	4,6	6,9	6,6	1	1	1	1	1	1	1	1	1	0	1	-70,965469	271,748889	238,244984	0
15.01.2021	02:15:15	0	0	4,180783	3,8505	68,0004	-1,539	81,013	0	1008,76	4,6	6,9	6,7	1	1	1	1	1	1	1	1	1	0	1	-66,314306	271,90129	243,590372	0
15.01.2021	02:15:16	0	0	2,711859	3,7365	59,4792	-1,544	81,027	0	1008,8	4,4	6,9	6,7	1	1	1	1	1	1	1	1	1	0	1	-69,978858	271,861415	239,744068	0
15.01.2021	02:15:17	0	0	5,197761	3,55425	53,3556	-1,541	81,054	0	1008,72	4,6	6,8	6,6	1	1	1	1	1	1	1	1	1	0	1	-70,894996	271,922591	239,106804	0
15.01.2021	02:15:18	0	0	3,389844	3,45075	63,2592	-1,541	81,099	0	1008,82	4,6	6,9	6,6	1	1	1	1	1	1	1	1	1	0	1	-72,022551	271,789851	237,37438	0
15.01.2021	02:15:19	0	0	3,954794	3,32625	69,4764	-1,537	81,147	0	1008,78	4,4	6,9	6,7	1	1	1	1	1	1	1	1	1	0	1	-65,680056	271,890649	244,176109	0
15.01.2021	02:15:20	0	0	5,310724	3,30825	59,868	-1,54	81,201	0	1008,76	4,6	6,9	6,7	1	1	1	1	1	1	1	1	1	0	1	-69,415081	271,941248	240,67181	0
15.01.2021	02:15:21	0	0	4,745753	3,46425	45,1548	-1,539	81,25	0	1008,64	4,4	6,9	6,7	1	1	1	1	1	1	1	1	1	0	1	-68,780832	271,874698	241,002628	0
15.01.2021	02:15:22	0	0	4,632759	3,45225	58,1184	-1,535	81,318	0	1008,8	4,6	6,8	6,7	1	1	1	1	1	1	1	1	1	0	1	-70,260747	271,961259	239,917424	0
15.01.2021	02:15:23	0	0	2,824853	3,6105	57,0348	-1,547	81,375	0	1008,56	4,6	6,8	6,7	1	1	1	1	1	1	1	1	1	0	1	-66,384778	271,870712	243,380516	0
15.01.2021	02:15:24	0	0	2,259896	3,7515	59,8788	-1,535	81,435	0	1008,74	4,4	6,9	6,6	1	1	1	1	1	1	1	1	1	0	1	-68,992248	271,795143	240,42878	0
15.01.2021	02:15:25	0	0	2,711859	3,9	53,4384	-1,542	81,492	0	1008,72	4,6	6,9	6,7	1	1	1	1	1	1	1	1	1	0	1	-66,666667	271,796466	242,760387	0
15.01.2021	02:15:26	0	0	2,937847	3,96675	54,0972	-1,537	81,517	0	1008,76	4,5	6,9	6,7	1	1	1	1	1	1	1	1	1	0	1	-70,190275	271,898629	239,702272	0
15.01.2021	02:15:27	0	0	3,954794	3,972	73,4328	-1,54	81,571	0	1008,8	4,5	6,8	6,7	1	1	1	1	1	1	1	1	1	0	1	-69,344609	271,973275	240,888386	0
15.01.2021	02:15:28	0	0	4,067788	3,8445	63,4896	-1,532	81,621	0	1008,88	4,6	6,9	6,7	1	1	1	1	1	1	1	1	1	0	1	-72,374912	271,88666	237,46307	0
15.01.2021	02:15:29	0	0	2,937865	3,74325	70,6032	-1,538	81,646	0	1008,7	4,6	6,8	6,6	1	1	1	1	1	1	1	1	1	0	1	-66,666667	271,967934	243,541956	0
15.01.2021	02:15:30	0	0	3,8418	3,53925	74,178	-1,535	81,674	0	1008,64	4,5	6,9	6,7	1	1	1	1	1	1	1	1	1	0	1	-69,133192	271,92792	240,892909	0
15.01.2021	02:15:31	0	0	3,05086	3,372	69,462	-1,528	81,719	0	1008,74	4,5	6,8	6,6	1	1	1	1	1	1	1	1	1	0	1	-73,361522	271,865399	236,379559	0
15.01.2021	02:15:32	0	0	2,711859	3,0435	73,4148	-1,529	81,754	0	1008,72	4,6	6,8	6,7	1	1	1	1	1	1	1	1	1	0	1	-71,881607	271,818974	237,647958	0
15.01.2021	02:15:33	0	0	2,824853	2,6985	56,286	-1,529	81,782	0	1008,78	4,5	6,8	6,7	1	1	1	1	1	1	1	1	1	0	1	-69,69697	271,931917	240,347363	0
15.01.2021	02:15:34	0	0	2,485871	2,78625	65,0952	-1,528	81,8	0	1008,86	4,5	6,8	6,7	1	1	1	1	1	1	1	1	1	0	1	-69,06272	271,983963	241,219042	0
15.01.2021	02:15:35	0	0	3,954794	2,77575	61,7076	-1,525	81,823	0	1008,58	4,5	6,9	6,7	1	1	1	1	1	1	1	1	1	0	1	-73,643411	271,962594	236,540849	0
15.01.2021	02:15:36	0	0	3,615812	2,8365	49,302	-1,525	81,833	0	1008,8	4,5	6,8	6,7	1	1	1	1	1	1	1	1	1	0	1	-68,851304	271,931917	241,193029	0
15.01.2021	02:15:37	0	0	4,971771	2,91675	51,0552	-1,522	81,832	0	1008,88	4,6	6,9	6,6	1	1	1	1	1	1	1	1	1	0	1	-65,186751	271,834879	244,415263	0
15.01.2021	02:15:38	0	0	3,954818	2,982	51,4476	-1,523	81,852	0	1008,86	4,5	6,8	6,6	1	1	1	1	1	1	1	1	1	0	1	-72,093023	271,985299	238,194837	0
15.01.2021	02:15:39	0	0	2,711859	2,81025	39,5676	-1,525	81,858	0	1008,74	4,5	6,8	6,7	1	1	1	1	1	1	1	1	1	0	1	-69,203665	271,966599	240,998867	0
15.01.2021	02:15:40	0	0	3,615834	2,62725	41,8464	-1,52	81,874	0	1008,82	4,5	6,8	6,6	1	1	1	1	1	1	1	1	1	0	1	-70,894996	271,849469	238,773494	0
15.01.2021	02:15:41	0	0	4,406771	2,56875	42,2352	-1,513	81,894	0	1008,84	4,5	6,8	6,7	1	1	1	1	1	1	1	1	1	0	1	-70,824524	271,967934	239,384099	0
15.01.2021	02:15:42	0	0	2,937847	2,7315	60,5592	-1,513	81,893	0	1008,62	4,5	6,8	6,7	1	1	1	1	1	1	1	1	1	0	1	-70,542636	271,874698	239,240823	0
15.01.2021	02:15:43	0	0	3,502839	2,81925	43,4808	-1,514	81,91	0	1008,82	4,5	6,8	6,6	1	1	1	1	1	1	1	1	1	0	1	-69,908386	271,982627	240,367278	0
15.01.2021	02:15:44	0	0	3,502818	2,52825	46,5948	-1,513	81,901	0	1008,64	4,5	6,8	6,7	1	1	1	1	1	1	1	1	1	0	1	-69,485553	271,860088	240,231323	0
15.01.2021	02:15:45	0	0	3,050841	2,298	48,5244	-1,511	81,912	0	1008,9	4,5	6,8	6,7	1	1	1	1	1	1	1	1	1	0	1	-70,894996	272,013385	239,521047	0
15.01.2021	02:15:46	0	0	3,163854	2,3955	40,6404	-1,508	81,924	0	1008,94	4,5	6,8	6,6	1	1	1	1	1	1	1	1	1	0	1	-71,599718	271,852123	238,080866	0
15.01.2021	02:15:47	0	0	4,745753	2,73225	39,5748	-1,503	81,938	0	1008,62	4,5	6,8	6,7	1	1	1	1	1	1	1	1	1	0	1	-73,854827	271,913269	236,104466	0
15.01.2021	02:15:48	0	0	3,954818	2,8305	46,2312	-1,507	81,973	0	1008,78	4,5	6,8	6,6	1	1	1	1	1	1	1	1	1	0	1	-69,837914	272,026774	240,639249	0
15.01.2021	02:15:49	0	0	4,858747	2,7345	56,2932	-1,502	81,979	0	1008,76	4,5	6,8	6,7	1	1	1	1	1	1	1	1	1	0	1	-68,498943	271,986636	241,795016	0
15.01.2021	02:15:50	0	0	4,519765	2,553	54,5832	-1,502	81,976	0	1008,86	4,5	6,8	6,7	1	1	1	1	1	1	1	1	1	0	1	-70,965469	271,849469	238,703022	0
15.01.2021	02:15:51	0	0	3,163835	2,373	43,2936	-1,499	81,989	0	1008,58	4,6	6,8	6,7	1	1	1	1	1	1	1	1	1	0	1	-68,710359	271,870712	241,054935	0
15.01.2021	02:15:52	0	0	3,8418	2,4645	57,4164	-1,495	81,993	0	1008,88	4,5	6,8	6,7	1	1	1	1	1	1	1	1	1	0	1	-69,69697	271,935916	240,365599	0
15.01.2021	02:15:53	0	0	4,858747	2,43825	36,2484	-1,496	81,992	0	1008,74	4,5	6,8	6,7	1	1	1	1	1	1	1	1	1	0	1	-67,512333	271,857433	242,192444	0
15.01.2021	02:15:54	0	0	4,519765	2,35275	57,0384	-1,494	81,983	0	1008,74	4,5	6,8	6,7	1	1	1	1	1	1	1	1	1	0	1	-71,035941	271,9146	238,929423	0
15.01.2021	02:15:55	0	0	4,519765	2,21775	52,8984	-1,49	81,987	0	1008,76	4,5	6,8	6,7	1	1	1	1	1	1	1	1	1	0	1	-75,052854	271,998668	235,296017	0
15.01.2021	02:15:56	0	0	3,502818	2,049	65,8332	-1,5	81,981	0	1008,68	4,5	6,8	6,7	1	1	1	1	1	1	1	1	1	0	1	-69,556025	272,026774	240,921138	0
15.01.2021	02:15:57	0	0	4,858747	1,938	61,6896	-1,494	81,97	0	1008,76	4,5	6,8	6,7	1	1	1	1	1	1	1	1	1	0	1	-71,952079	271,934583	238,104411	0
15.01.2021	02:15:58	0	0	3,389824	1,93575	69,156	-1,488	81,965	0	1008,74	4,5	6,8	6,7	1	1	1	1	1	1	1	1	1	0	1	-67,653277	272,046874	242,915664	0
15.01.2021	02:15:59	0	0	4,067788	1,9245	65,0916	-1,494	81,933	0	1008,7	4,4	6,8	6,7	1	1	1	1	1	1	1	1	1	0	1	-73,009161	272,022756	237,44966	0
15.01.2021	02:16:00	0	0	3,615812	1,809	60,9552	-1,488	81,911	0	1008,8	4,5	6,8	6,7	1	1	1	1	1	1	1	1	1	0	1	-67,300916	272,024095	243,164019	0
15.01.2021	02:16:01	0	0	3,615812	1,809	60,9552	-1,488	81,911	0	1008,8	4,5	6,8	6,7	1	1	1	1	1	1	1	1	1	0	1	-67,300916	272,024095	243,164019	0
15.01.2021	02:16:02	0	0	4,971741	1,73625	60,9084	-1,487	81,872	0	1008,7	4,5	6,8	6,7	1	1	1	1	1	1	1	1	1	0	1	-71,881607	271,931917	238,162726	0
15.01.2021	02:16:03	0	0	3,954794	1,7745	60,2676	-1,481	81,866	0	1008,74	4,5	6,8	6,7	1	1	1	1	1	1	1	1	1	0	1	-68,287526	272,040172	242,250809	0
15.01.2021	02:16:04	0	0	5,19773	1,7565	66,5424	-1,482	81,85	0	1008,66	4,4	6,8	6,7	1	1	1	1	1	1	1	1	1	0	1	-70,331219	272,014723	240,090934	0
15.01.2021	02:16:05	0	0	5,310724	1,902	56,2932	-1,483	81,829	0	1008,72	4,4	6,8	6,7	1	1	1	1	1	1	1	1	1	0	1	-71,317829	271,909275	238,623254	0
15.01.2021	02:16:06	0	0	4,180783	2,166	56,6712	-1,475	81,819	0	1008,86	4,5	6,8	6,7	1	1	1	1	1	1	1	1	1	0	1	-68,780832	272,052238	241,812603	0
15.01.2021	02:16:07	0	0	3,728806	2,38575	56,286	-1,475	81,811	0	1008,72	4,4	6,8	6,7	1	1	1	1	1	1	1	1	1	0	1	-66,596195	272,017401	243,838179	0
15.01.2021	02:16:08	0	0	3,502818	2,553	62,4528	-1,485	81,794	0	1008,7	4,5	6,8	6,7	1	1	1	1	1	1	1	1	1	0	1	-67,512333	271,873369	242,265071	0
15.01.2021	02:16:09	0	0	5,084736	2,607	56,0304	-1,472	81,782	0	1008,76	4,5	6,8	6,7	1	1	1	1	1	1	1	1	1	0	1	-75,475687	271,941248	234,611203	0
15.01.2021	02:16:10	0	0	3,728806	2,6295	60,2424	-1,474	81,785	0	1008,82	4,6	6,8	6,7	1	1	1	1	1	1	1	1	1	0	1	-70,68358	272,045534	239,879238	0
15.01.2021	02:16:11	0	0	3,163854	2,595	50,6844	-1,473	81,789	0	1008,64	4,6	6,8	6,6	1	1	1	1	1	1	1	1	1	0	1	-70,472163	271,929252	239,560015	0
15.01.2021	02:16:12	0	0	4,519765	2,6205	48,1356	-1,471	81,782	0	1008,8	4,6	6,8	6,7	1	1	1	1	1	1	1	1	1	0	1	-66,102889	271,887989	243,741153	0
15.01.2021	02:16:13	0	0	2,372877	2,6925	45,1332	-1,472	81,778	0	1008,8	4,6	6,8	6,7	1	1	1	1	1	1	1	1	1	0	1	-63,84778	271,907944	246,087234	0
15.01.2021	02:16:14	0	0	4,632759	2,69175	52,5096	-1,469	81,775	0	1008,74	4,5	6,8	6,7	1	1	1	1	1	1	1	1	1	0	1	-73,150106	272,005356	237,22929	0
15.01.2021	02:16:15	0	0	2,372877	2,763	45,1548	-1,461	81,769	0	1008,76	4,6	6,8	6,7	1	1	1	1	1	1	1	1	1	0	1	-72,656801	272,057603	237,961136	0
15.01.2021	02:16:16	0	0	3,27683	2,69175	45,5472	-1,464	81,757	0	1008,7	4,6	6,8	6,7	1	1	1	1	1	1	1	1	1	0	1	-66,525722	271,983963	243,75604	0
15.01.2021	02:16:17	0	0	4,519765	2,5845	56,6676	-1,468	81,752	0	1008,74	4,6	6,8	6,7	1	1	1	1	1	1	1	1	1	0	1	-70,472163	271,887989	239,371879	0
15.01.2021	02:16:18	0	0	4,632759	2,37225	51,7644	-1,463	81,728	0	1008,76	4,6	6,8	6,7	1	1	1	1	1	1	1	1	1	0	1	-67,723749	271,94925	242,39964	0
15.01.2021	02:16:19	0	0	5,19773	2,241	58,1292	-1,457	81,747	0	1008,66	4,6	6,8	6,7	1	1	1	1	1	1	1	1	1	0	1	-68,780832	272,06297	241,861615	0
15.01.2021	02:16:20	0	0	4,971741	2,1435	72,2916	-1,467	81,737	0	1008,7	4,6	6,8	6,7	1	1	1	1	1	1	1	1	1	0	1	-68,780832	272,026774	241,696331	0
15.01.2021	02:16:21	0	0	4,745753	2,03625	58,9032	-1,457	81,726	0	1008,9	4,6	6,8	6,7	1	1	1	1	1	1	1	1	1	0	1	-68,851304	271,894639	241,02305	0
15.01.2021	02:16:22	0	0	3,8418	2,0145	74,5596	-1,458	81,72	0	1008,8	4,6	6,8	6,7	1	1	1	1	1	1	1	1	1	0	1	-69,344609	271,9146	240,620755	0
15.01.2021	02:16:23	0	0	3,163835	2,0865	71,2512	-1,461	81,701	0	1008,78	4,6	6,8	6,7	1	1	1	1	1	1	1	1	1	0	1	-66,525722	271,94925	243,597666	0
15.01.2021	02:16:24	0	0	4,180783	2,1435	70,2108	-1,452	81,684	0	1008,74	4,6	6,8	6,7	1	1	1	1	1	1	1	1	1	0	1	-68,710359	272,072366	241,975001	0
15.01.2021	02:16:25	0	0	4,519765	2,12025	63,4968	-1,458	81,666	0	1008,74	4,6	6,8	6,7	1	1	1	1	1	1	1	1	1	0	1	-66,596195	271,963929	243,594156	0
15.01.2021	02:16:26	0	0	3,728806	2,12175	67,6872	-1,458	81,649	0	1008,74	4,6	6,8	6,7	1	1	1	1	1	1	1	1	1	0	1	-71,035941	272,072366	239,64942	0
15.01.2021	02:16:27	0	0	3,954794	2,1225	74,538	-1,455	81,646	0	1008,64	4,6	6,8	6,7	1	1	1	1	1	1	1	1	1	0	1	-70,613108	272,050897	239,974202	0
15.01.2021	02:16:28	0	0	4,519765	2,1585	71,2548	-1,454	81,629	0	1008,9	4,6	6,8	6,7	1	1	1	1	1	1	1	1	1	0	1	-71,247357	271,921259	238,748369	0
15.01.2021	02:16:29	0	0	3,389824	2,1465	70,6212	-1,45	81,635	0	1008,9	4,6	6,8	6,7	1	1	1	1	1	1	1	1	1	0	1	-68,428471	271,90129	241,476207	0
15.01.2021	02:16:30	0	0	2,937847	2,115	70,2288	-1,458	81,619	0	1008,82	4,6	6,8	6,7	1	1	1	1	1	1	1	1	1	0	1	-70,754052	272,016062	239,674211	0
15.01.2021	02:16:31	0	0	3,502818	1,977	76,8024	-1,448	81,621	0	1008,76	4,6	6,8	6,7	1	1	1	1	1	1	1	1	1	0	1	-65,821001	271,90129	244,083677	0
15.01.2021	02:16:32	0	0	3,615812	1,833	86,994	-1,454	81,588	0	1008,82	4,6	6,8	6,7	1	1	1	1	1	1	1	1	1	0	1	-65,398168	272,046874	245,170773	0
15.01.2021	02:16:33	0	0	4,971741	1,67325	83,0016	-1,449	81,574	0	1008,76	4,6	6,8	6,7	1	1	1	1	1	1	1	1	1	0	1	-69,908386	272,016062	240,519877	0
15.01.2021	02:16:34	0	0	3,728806	1,707	84,8088	-1,454	81,555	0	1008,74	4,6	6,8	6,7	1	1	1	1	1	1	1	1	1	0	1	-69,69697	272,071023	240,982259	0
15.01.2021	02:16:35	0	0	4,858747	1,83525	72,774	-1,444	81,536	0	1008,9	4,6	6,8	6,7	1	1	1	1	1	1	1	1	1	0	1	-75,264271	272,045534	235,298548	0
15.01.2021	02:16:36	0	0	2,824853	1,9395	78,6672	-1,444	81,513	0	1008,84	4,6	6,8	6,7	1	1	1	1	1	1	1	1	1	0	1	-68,569415	272,066996	242,09142	0
15.01.2021	02:16:37	0	0	2,711859	2,07525	43,6608	-1,443	81,488	0	1008,8	4,6	6,8	6,7	1	1	1	1	1	1	1	1	1	0	1	-69,837914	272,068338	240,829052	0
15.01.2021	02:16:38	0	0	4,067788	2,30175	47,4624	-1,448	81,467	0	1008,9	4,6	6,8	6,7	1	1	1	1	1	1	1	1	1	0	1	-65,750529	271,963929	244,439822	0
15.01.2021	02:16:39	0	0	3,8418	2,3115	57,3876	-1,439	81,45	0	1008,84	4,6	6,8	6,7	1	1	1	1	1	1	1	1	1	0	1	-68,921776	272,065654	241,732929	0
15.01.2021	02:16:40	0	0	2,598865	2,33475	50,67	-1,443	81,394	0	1008,8	4,6	6,8	6,7	1	1	1	1	1	1	1	1	1	0	1	-66,525722	271,941248	243,561168	0
15.01.2021	02:16:41	0	0	3,389824	2,42625	54,504	-1,441	81,402	0	1008,86	4,6	6,9	6,7	1	1	1	1	1	1	1	1	1	0	1	-76,955603	272,029453	233,533791	0
15.01.2021	02:16:42	0	0	4,180783	2,42925	28,4436	-1,441	81,344	0	1008,94	4,6	6,9	6,7	1	1	1	1	1	1	1	1	1	0	1	-68,992248	272,071023	241,68698	0
15.01.2021	02:16:43	0	0	3,728806	2,51625	38,07	-1,442	81,315	0	1008,74	4,6	7	6,7	1	1	1	1	1	1	1	1	1	0	1	-70,965469	271,943915	239,133586	0
15.01.2021	02:16:44	0	0	3,502818	2,40675	76,8276	-1,441	81,293	0	1008,94	4,6	6,8	6,7	1	1	1	1	1	1	1	1	1	0	1	-66,525722	271,921259	243,470004	0
15.01.2021	02:16:45	0	0	4,180783	2,21175	45,846	-1,441	81,261	0	1008,74	4,6	6,8	6,7	1	1	1	1	1	1	1	1	1	0	1	-70,68358	272,052238	239,909854	0
15.01.2021	02:16:46	0	0	5,423718	2,0805	59,4864	-1,445	81,218	0	1008,54	4,6	6,8	6,7	1	1	1	1	1	1	1	1	1	0	1	-69,274137	272,000006	241,080838	0
15.01.2021	02:16:47	0	0	2,824853	1,85325	81,9504	-1,436	81,193	0	1008,8	4,6	6,8	6,7	1	1	1	1	1	1	1	1	1	0	1	-66,384778	272,065654	244,269927	0
15.01.2021	02:16:48	0	0	3,502818	1,6965	74,916	-1,438	81,157	0	1008,76	4,6	6,8	6,7	1	1	1	1	1	1	1	1	1	0	1	-70,894996	271,902621	239,015748	0
15.01.2021	02:16:49	0	0	4,293777	1,602	101,5056	-1,444	81,119	0	1008,66	4,6	6,8	6,7	1	1	1	1	1	1	1	1	1	0	1	-67,44186	272,028113	243,041417	0
15.01.2021	02:16:50	0	0	3,615812	1,52325	87,732	-1,435	81,105	0	1008,82	4,6	6,8	6,7	1	1	1	1	1	1	1	1	1	0	1	-64,904863	271,898629	244,987684	0
15.01.2021	02:16:51	0	0	3,954794	1,47525	75,6684	-1,445	81,084	0	1008,66	4,6	6,9	6,7	1	1	1	1	1	1	1	1	1	0	1	-69,203665	271,955921	240,950153	0
15.01.2021	02:16:52	0	0	3,389824	1,503	69,1128	-1,44	81,06	0	1008,7	4,6	6,8	6,7	1	1	1	1	1	1	1	1	1	0	1	-69,978858	272,061628	240,65746	0
15.01.2021	02:16:53	0	0	4,067788	1,69425	89,3232	-1,444	81,022	0	1008,84	4,6	6,9	6,7	1	1	1	1	1	1	1	1	1	0	1	-67,371388	272,061628	243,26493	0
15.01.2021	02:16:54	0	0	5,423718	1,81275	79,0308	-1,442	81,004	0	1008,58	4,6	6,8	6,7	1	1	1	1	1	1	1	1	1	0	1	-69,69697	271,967934	240,511653	0
15.01.2021	02:16:55	0	0	2,937847	1,80975	79,7652	-1,447	80,975	0	1008,82	4,6	6,9	6,7	1	1	1	1	1	1	1	1	1	0	1	-66,45525	272,057603	244,162686	0
15.01.2021	02:16:56	0	0	5,875694	1,713	82,35	-1,442	80,968	0	1008,84	4,6	6,9	6,7	1	1	1	1	1	1	1	1	1	0	1	-66,948555	271,943915	243,150499	0
15.01.2021	02:16:57	0	0	4,519765	1,632	76,3776	-1,44	80,931	0	1008,78	4,6	6,9	6,7	1	1	1	1	1	1	1	1	1	0	1	-66,948555	271,923923	243,05932	0
15.01.2021	02:16:58	0	0	2,824853	1,59	77,2056	-1,438	80,923	0	1008,82	4,6	6,9	6,7	1	1	1	1	1	1	1	1	1	0	1	-70,613108	272,061628	240,023211	0
15.01.2021	02:16:59	0	0	4,971741	1,62675	80,4996	-1,441	80,913	0	1008,84	4,6	6,9	6,7	1	1	1	1	1	1	1	1	1	0	1	-73,29105	272,006694	237,094453	0
15.01.2021	02:17:00	0	0	2,824853	1,56525	75,618	-1,442	80,859	0	1008,78	4,6	6,9	6,7	1	1	1	1	1	1	1	1	1	0	1	-66,525722	271,967934	243,682901	0
15.01.2021	02:17:01	0	0	2,824853	1,56525	75,618	-1,442	80,859	0	1008,78	4,6	6,9	6,7	1	1	1	1	1	1	1	1	1	0	1	-66,525722	271,967934	243,682901	0
15.01.2021	02:17:02	0	0	4,180783	1,60575	79,0308	-1,445	80,851	0	1008,78	4,6	6,9	6,7	1	1	1	1	1	1	1	1	1	0	1	-67,159972	271,891979	242,702256	0
15.01.2021	02:17:03	0	0	4,519765	1,632	71,586	-1,445	80,833	0	1008,72	4,6	6,9	6,7	1	1	1	1	1	1	1	1	1	0	1	-69,837914	272,029453	240,651479	0
15.01.2021	02:17:04	0	0	3,954794	1,59225	75,6972	-1,443	80,806	0	1008,7	4,6	6,9	6,7	1	1	1	1	1	1	1	1	1	0	1	-67,019027	271,926587	243,000998	0
15.01.2021	02:17:05	0	0	3,615812	1,57425	72	-1,437	80,806	0	1008,78	4,6	6,8	6,7	1	1	1	1	1	1	1	1	1	0	1	-67,864693	271,877355	241,930878	0
15.01.2021	02:17:06	0	0	3,954794	1,54275	70,2036	-1,44	80,819	0	1008,82	4,6	6,9	6,7	1	1	1	1	1	1	1	1	1	0	1	-70,894996	271,951918	239,240562	0
15.01.2021	02:17:07	0	0	4,858747	1,5405	76,374	-1,443	80,795	0	1008,86	4,6	6,9	6,7	1	1	1	1	1	1	1	1	1	0	1	-67,723749	272,048215	242,851314	0
15.01.2021	02:17:08	0	0	3,050841	1,5975	77,9616	-1,445	80,811	0	1008,84	4,6	6,8	6,7	1	1	1	1	1	1	1	1	1	0	1	-66,314306	271,951918	243,821253	0
15.01.2021	02:17:09	0	0	2,824853	1,6935	81,5868	-1,442	80,816	0	1008,82	4,6	6,8	6,7	1	1	1	1	1	1	1	1	1	0	1	-71,811135	271,878684	237,990494	0
15.01.2021	02:17:10	0	0	3,27683	1,69875	72,0072	-1,44	80,813	0	1008,78	4,6	6,8	6,7	1	1	1	1	1	1	1	1	1	0	1	-66,878083	271,918595	243,105497	0
15.01.2021	02:17:11	0	0	4,519792	1,87725	84,4272	-1,444	80,795	0	1008,72	4,6	6,8	6,6	1	1	1	1	1	1	1	1	1	0	1	-65,186751	272,013385	245,229292	0
15.01.2021	02:17:12	0	0	4,067788	2,16825	81,5904	-1,443	80,811	0	1008,82	4,6	6,9	6,7	1	1	1	1	1	1	1	1	1	0	1	-68,07611	272,046874	242,492831	0
15.01.2021	02:17:13	0	0	5,19773	2,27175	73,7856	-1,442	80,802	0	1008,8	4,6	6,8	6,7	1	1	1	1	1	1	1	1	1	0	1	-68,428471	271,923923	241,579404	0
15.01.2021	02:17:14	0	0	3,502818	2,26425	82,3536	-1,44	80,804	0	1008,9	4,6	6,9	6,7	1	1	1	1	1	1	1	1	1	0	1	-71,106413	271,88666	238,731569	0
15.01.2021	02:17:15	0	0	3,27683	2,14725	86,2776	-1,45	80,789	0	1008,8	4,6	6,9	6,7	1	1	1	1	1	1	1	1	1	0	1	-66,384778	271,89996	243,513834	0
15.01.2021	02:17:16	0	0	2,824853	2,106	90,792	-1,441	80,781	0	1008,8	4,6	6,8	6,7	1	1	1	1	1	1	1	1	1	0	1	-65,539112	272,026774	244,938051	0
15.01.2021	02:17:17	0	0	3,615812	2,151	86,6952	-1,448	80,766	0	1008,78	4,6	6,9	6,7	1	1	1	1	1	1	1	1	1	0	1	-70,331219	272,00937	240,066498	0
15.01.2021	02:17:18	0	0	3,27683	2,175	73,0512	-1,442	80,746	0	1008,88	4,6	6,9	6,7	1	1	1	1	1	1	1	1	1	0	1	-69,203665	271,973275	241,02933	0
15.01.2021	02:17:19	0	0	4,406797	2,241	69,8616	-1,444	80,742	0	1008,9	4,6	6,9	6,6	1	1	1	1	1	1	1	1	1	0	1	-67,159972	271,85876	242,550854	0
15.01.2021	02:17:20	0	0	3,8418	2,4	78,6708	-1,45	80,706	0	1008,8	4,6	6,9	6,7	1	1	1	1	1	1	1	1	1	0	1	-68,780832	271,913269	241,178461	0
15.01.2021	02:17:21	0	0	2,372877	2,382	70,8624	-1,446	80,689	0	1008,82	4,6	6,8	6,7	1	1	1	1	1	1	1	1	1	0	1	-70,824524	271,88666	239,013458	0
15.01.2021	02:17:22	0	0	3,728806	2,13075	80,136	-1,449	80,658	0	1008,84	4,4	6,9	6,7	1	1	1	1	1	1	1	1	1	0	1	-72,374912	271,865399	237,366169	0
15.01.2021	02:17:23	0	0	4,406771	1,96575	78,2892	-1,443	80,64	0	1008,84	4,4	6,9	6,7	1	1	1	1	1	1	1	1	1	0	1	-69,626498	271,961259	240,551673	0
15.01.2021	02:17:24	0	0	3,163835	1,914	69,156	-1,446	80,642	0	1008,92	4,6	6,9	6,7	1	1	1	1	1	1	1	1	1	0	1	-68,07611	271,874698	241,707349	0
15.01.2021	02:17:25	0	0	3,389824	1,90125	73,7928	-1,449	80,667	0	1008,84	4,6	6,8	6,7	1	1	1	1	1	1	1	1	1	0	1	-64,904863	271,85876	244,805963	0
15.01.2021	02:17:26	0	0	2,485871	1,8105	59,1048	-1,436	80,704	0	1008,96	4,6	6,9	6,7	1	1	1	1	1	1	1	1	1	0	1	-66,45525	271,903951	243,461561	0
15.01.2021	02:17:27	0	0	4,519765	1,91325	70,2216	-1,443	80,722	0	1008,82	4,6	6,9	6,7	1	1	1	1	1	1	1	1	1	0	1	-70,119803	271,872041	239,651546	0
15.01.2021	02:17:28	0	0	2,711859	2,14275	60,2532	-1,445	80,754	0	1008,7	4,6	6,8	6,7	1	1	1	1	1	1	1	1	1	0	1	-66,948555	271,979954	243,314915	0
15.01.2021	02:17:29	0	0	2,711875	2,19375	57,42	-1,447	80,759	0	1008,76	4,6	6,9	6,6	1	1	1	1	1	1	1	1	1	0	1	-69,837914	271,856105	239,860814	0
15.01.2021	02:17:30	0	0	3,163854	2,19	59,9832	-1,444	80,764	0	1008,74	4,6	6,9	6,6	1	1	1	1	1	1	1	1	1	0	1	-66,948555	271,94925	243,174833	0
15.01.2021	02:17:31	0	0	5,197761	2,235	50,6916	-1,448	80,767	0	1008,76	4,6	6,9	6,6	1	1	1	1	1	1	1	1	1	0	1	-67,512333	272,014723	242,90982	0
15.01.2021	02:17:32	0	0	3,050841	2,178	54,1116	-1,454	80,773	0	1008,88	4,6	6,9	6,7	1	1	1	1	1	1	1	1	1	0	1	-69,69697	271,857433	240,007807	0
15.01.2021	02:17:33	0	0	4,858776	2,04225	46,9764	-1,452	80,768	0	1008,78	4,6	6,9	6,6	1	1	1	1	1	1	1	1	1	0	1	-67,794221	271,903951	242,12259	0
15.01.2021	02:17:34	0	0	2,937847	1,9695	58,4784	-1,449	80,768	0	1008,68	4,6	6,9	6,7	1	1	1	1	1	1	1	1	1	0	1	-69,556025	272,025434	240,915023	0
15.01.2021	02:17:35	0	0	4,067813	1,97925	62,028	-1,449	80,788	0	1008,72	4,6	6,8	6,6	1	1	1	1	1	1	1	1	1	0	1	-66,314306	271,906613	243,61464	0
15.01.2021	02:17:36	0	0	4,858747	2,06325	60,9552	-1,445	80,83	0	1009,02	4,6	6,8	6,7	1	1	1	1	1	1	1	1	1	0	1	-70,754052	272,013385	239,661991	0
15.01.2021	02:17:37	0	0	4,971741	2,112	70,3296	-1,445	80,847	0	1008,78	4,6	6,9	6,7	1	1	1	1	1	1	1	1	1	0	1	-66,666667	272,012047	243,743267	0
15.01.2021	02:17:38	0	0	3,27683	2,082	58,122	-1,449	80,854	0	1008,62	4,6	6,8	6,7	1	1	1	1	1	1	1	1	1	0	1	-66,737139	271,942582	243,355833	0
15.01.2021	02:17:39	0	0	5,19773	2,10975	39,5748	-1,449	80,886	0	1008,78	4,6	6,9	6,7	1	1	1	1	1	1	1	1	1	0	1	-72,093023	271,854778	237,599656	0
15.01.2021	02:17:40	0	0	4,293777	2,02125	37,6776	-1,456	80,885	0	1008,76	4,6	6,9	6,7	1	1	1	1	1	1	1	1	1	0	1	-70,331219	271,878684	239,47041	0
15.01.2021	02:17:41	0	0	4,067813	1,917	56,2824	-1,447	80,922	0	1008,76	4,6	6,9	6,6	1	1	1	1	1	1	1	1	1	0	1	-69,415081	271,853451	240,27155	0
15.01.2021	02:17:42	0	0	3,728806	1,91475	54,0828	-1,452	80,922	0	1008,86	4,6	6,9	6,7	1	1	1	1	1	1	1	1	1	0	1	-69,767442	272,021417	240,685267	0
15.01.2021	02:17:43	0	0	4,067813	2,00625	58,878	-1,455	80,936	0	1008,82	4,6	6,9	6,6	1	1	1	1	1	1	1	1	1	0	1	-65,680056	271,945249	244,425081	0
15.01.2021	02:17:44	0	0	4,632787	2,20575	64,638	-1,452	80,942	0	1008,76	4,6	6,9	6,6	1	1	1	1	1	1	1	1	1	0	1	-69,485553	271,857433	240,219223	0
15.01.2021	02:17:45	0	0	4,180808	2,29875	63,1656	-1,453	80,926	0	1008,58	4,6	6,8	6,6	1	1	1	1	1	1	1	1	1	0	1	-70,401691	271,935916	239,660877	0
15.01.2021	02:17:46	0	0	2,824853	2,4015	70,6104	-1,453	80,925	0	1008,66	4,6	6,8	6,7	1	1	1	1	1	1	1	1	1	0	1	-74,700493	272,018739	235,739992	0
15.01.2021	02:17:47	0	0	4,745753	2,424	69,1416	-1,455	80,93	0	1008,66	4,4	6,9	6,7	1	1	1	1	1	1	1	1	1	0	1	-69,556025	271,994657	240,774537	0
15.01.2021	02:17:48	0	0	4,632787	2,43075	70,5888	-1,454	80,919	0	1008,66	4,6	6,9	6,6	1	1	1	1	1	1	1	1	1	0	1	-67,0895	271,917263	242,888008	0
15.01.2021	02:17:49	0	0	4,858776	2,331	70,8516	-1,452	80,921	0	1008,78	4,6	6,9	6,6	1	1	1	1	1	1	1	1	1	0	1	-68,498943	271,849469	241,169548	0
15.01.2021	02:17:50	0	0	4,519792	2,2095	66,546	-1,451	80,908	0	1008,64	4,6	6,9	6,6	1	1	1	1	1	1	1	1	1	0	1	-67,371388	271,905282	242,55149	0
15.01.2021	02:17:51	0	0	3,05086	2,17275	56,2896	-1,457	80,911	0	1008,74	4,6	6,9	6,6	1	1	1	1	1	1	1	1	1	0	1	-67,371388	272,021417	243,081321	0
15.01.2021	02:17:52	0	0	2,937847	2,28075	69,4656	-1,459	80,886	0	1008,8	4,6	6,9	6,7	1	1	1	1	1	1	1	1	1	0	1	-70,542636	271,85876	239,16819	0
15.01.2021	02:17:53	0	0	3,27683	2,3655	62,046	-1,457	80,899	0	1008,86	4,4	6,9	6,7	1	1	1	1	1	1	1	1	1	0	1	-68,780832	272,00937	241,616886	0
15.01.2021	02:17:54	0	0	3,502818	2,52375	74,9268	-1,451	80,881	0	1008,78	4,6	6,9	6,7	1	1	1	1	1	1	1	1	1	0	1	-70,965469	271,997331	239,377299	0
15.01.2021	02:17:55	0	0	2,59888	2,65575	68,778	-1,453	80,866	0	1008,8	4,6	6,8	6,6	1	1	1	1	1	1	1	1	1	0	1	-67,794221	271,864071	241,940808	0
15.01.2021	02:17:56	0	0	4,858747	2,70525	73,4328	-1,451	80,869	0	1008,78	4,6	6,9	6,7	1	1	1	1	1	1	1	1	1	0	1	-68,005638	271,997331	242,33713	0
15.01.2021	02:17:57	0	0	4,293777	2,80575	77,9688	-1,464	80,857	0	1008,68	4,6	6,9	6,7	1	1	1	1	1	1	1	1	1	0	1	-68,146582	271,884001	241,67928	0
15.01.2021	02:17:58	0	0	3,276849	3,0645	61,398	-1,453	80,843	0	1008,82	4,4	6,9	6,6	1	1	1	1	1	1	1	1	1	0	1	-74,207188	271,845489	235,443167	0
15.01.2021	02:17:59	0	0	3,276849	3,15225	58,4676	-1,454	80,845	0	1008,82	4,6	6,9	6,6	1	1	1	1	1	1	1	1	1	0	1	-66,596195	271,88666	243,241788	0
15.01.2021	02:18:00	0	0	3,05086	3,021	54,4716	-1,455	80,811	0	1008,78	4,4	6,8	6,6	1	1	1	1	1	1	1	1	1	0	1	-68,639887	271,865399	241,101194	0
15.01.2021	02:18:01	0	0	3,05086	3,021	54,4716	-1,455	80,811	0	1008,78	4,4	6,8	6,6	1	1	1	1	1	1	1	1	1	0	1	-68,639887	271,865399	241,101194	0
15.01.2021	02:18:02	0	0	2,59888	3,144	60,2532	-1,458	80,811	0	1008,84	4,4	6,9	6,6	1	1	1	1	1	1	1	1	1	0	1	-69,767442	271,877355	240,02813	0
15.01.2021	02:18:03	0	0	2,824853	3,273	55,9188	-1,46	80,832	0	1008,68	4,4	6,9	6,7	1	1	1	1	1	1	1	1	1	0	1	-73,572939	271,850796	236,101598	0
15.01.2021	02:18:04	0	0	2,59888	3,204	72,666	-1,456	80,824	0	1008,68	4,4	6,9	6,6	1	1	1	1	1	1	1	1	1	0	1	-67,159972	271,921259	242,835755	0
15.01.2021	02:18:05	0	0	3,502839	3,2295	52,8876	-1,455	80,839	0	1008,8	4,6	6,9	6,6	1	1	1	1	1	1	1	1	1	0	1	-68,428471	272,002681	241,938714	0
15.01.2021	02:18:06	0	0	3,954794	3,156	64,2384	-1,456	80,855	0	1008,64	4,4	6,8	6,7	1	1	1	1	1	1	1	1	1	0	1	-67,582805	271,99332	242,741656	0
15.01.2021	02:18:07	0	0	4,632787	3,0915	71,2296	-1,456	80,867	0	1008,88	4,6	6,9	6,6	1	1	1	1	1	1	1	1	1	0	1	-71,388302	272,006694	238,997201	0
15.01.2021	02:18:08	0	0	5,310724	2,94525	60,9156	-1,463	80,872	0	1008,62	4,6	6,7	6,7	1	1	1	1	1	1	1	1	1	0	1	-64,83439	271,998668	245,514481	0
15.01.2021	02:18:09	0	0	3,276849	2,847	46,5984	-1,458	80,888	0	1008,8	4,4	6,9	6,6	1	1	1	1	1	1	1	1	1	0	1	-64,83439	271,94925	245,288998	0
15.01.2021	02:18:10	0	0	5,536712	2,7195	54,8064	-1,461	80,902	0	1008,64	4,4	6,9	6,7	1	1	1	1	1	1	1	1	1	0	1	-69,133192	272,017401	241,301181	0
15.01.2021	02:18:11	0	0	5,084766	2,73825	44,0424	-1,461	80,896	0	1008,66	4,4	6,8	6,6	1	1	1	1	1	1	1	1	1	0	1	-67,864693	271,986636	242,429265	0
15.01.2021	02:18:12	0	0	2,711875	2,69775	41,85	-1,46	80,915	0	1008,76	4,6	6,8	6,6	1	1	1	1	1	1	1	1	1	0	1	-69,556025	271,881342	240,257719	0
15.01.2021	02:18:13	0	0	4,858776	2,6775	58,2264	-1,459	80,926	0	1008,82	4,4	6,9	6,6	1	1	1	1	1	1	1	1	1	0	1	-68,217054	271,833553	241,37892	0
15.01.2021	02:18:14	0	0	3,615834	2,39025	54,0972	-1,461	80,942	0	1008,86	4,4	6,8	6,6	1	1	1	1	1	1	1	1	1	0	1	-64,270613	271,937249	245,798035	0
15.01.2021	02:18:15	0	0	3,954818	2,08875	54,7848	-1,46	80,956	0	1008,72	4,4	6,9	6,6	1	1	1	1	1	1	1	1	1	0	1	-68,005638	272,013385	242,410405	0
15.01.2021	02:18:16	0	0	4,858776	1,9695	45,1476	-1,464	80,965	0	1008,86	4,4	6,8	6,6	1	1	1	1	1	1	1	1	1	0	1	-66,243834	271,943915	243,855221	0
15.01.2021	02:18:17	0	0	3,954818	1,812	45,8568	-1,457	81,006	0	1008,7	4,4	6,9	6,6	1	1	1	1	1	1	1	1	1	0	1	-69,415081	271,978618	240,842293	0
15.01.2021	02:18:18	0	0	4,745753	1,686	44,406	-1,457	81,003	0	1008,82	4,4	6,8	6,7	1	1	1	1	1	1	1	1	1	0	1	-66,384778	271,842836	243,253489	0
15.01.2021	02:18:19	0	0	2,937865	1,56225	54,1368	-1,454	81,018	0	1008,82	4,6	6,9	6,6	1	1	1	1	1	1	1	1	1	0	1	-70,260747	271,894639	239,613607	0
15.01.2021	02:18:20	0	0	3,8418	1,5945	49,212	-1,461	81,016	0	1008,8	4,4	6,9	6,7	1	1	1	1	1	1	1	1	1	0	1	-66,948555	272,00937	243,449162	0
15.01.2021	02:18:21	0	0	3,389803	1,5105	35,8776	-1,454	81,036	0	1008,84	4,4	6,8	6,8	1	1	1	1	1	1	1	1	1	0	1	-70,754052	271,979954	239,509418	0
15.01.2021	02:18:22	0	0	2,937847	1,542	45,1512	-1,45	81,04	0	1008,8	4,4	6,8	6,7	1	1	1	1	1	1	1	1	1	0	1	-67,159972	271,864071	242,575057	0
15.01.2021	02:18:23	0	0	2,82487	1,5825	49,9536	-1,459	81,009	0	1008,74	4,4	6,9	6,6	1	1	1	1	1	1	1	1	1	0	1	-67,723749	272,028113	242,759529	0
15.01.2021	02:18:24	0	0	2,824853	1,60575	31,7808	-1,456	81,016	0	1008,64	4,4	6,9	6,7	1	1	1	1	1	1	1	1	1	0	1	-67,230444	271,959924	242,941638	0
15.01.2021	02:18:25	0	0	2,711859	1,70925	28,7388	-1,457	81,014	0	1008,66	4,4	6,9	6,7	1	1	1	1	1	1	1	1	1	0	1	-69,415081	272,002681	240,952103	0
15.01.2021	02:18:26	0	0	5,197761	1,84425	43,308	-1,453	81,016	0	1008,78	4,4	6,8	6,6	1	1	1	1	1	1	1	1	1	0	1	-68,005638	271,921259	241,990089	0
15.01.2021	02:18:27	0	0	4,632787	1,93725	38,8152	-1,46	81,015	0	1008,74	4,4	6,8	6,6	1	1	1	1	1	1	1	1	1	0	1	-68,921776	271,838857	240,698362	0
15.01.2021	02:18:28	0	0	2,937865	2,001	48,8304	-1,463	81,012	0	1008,78	4,4	6,7	6,6	1	1	1	1	1	1	1	1	1	0	1	-69,626498	271,845489	240,023857	0
15.01.2021	02:18:29	0	0	3,276849	2,256	43,6824	-1,461	81,003	0	1008,6	4,4	6,8	6,6	1	1	1	1	1	1	1	1	1	0	1	-70,049331	271,943915	240,049724	0
15.01.2021	02:18:30	0	0	3,615834	2,5335	39,1752	-1,454	81,023	0	1008,8	4,4	6,8	6,6	1	1	1	1	1	1	1	1	1	0	1	-70,331219	271,852123	239,349365	0
15.01.2021	02:18:31	0	0	2,711875	2,586	42,6096	-1,46	80,998	0	1008,76	4,4	6,8	6,6	1	1	1	1	1	1	1	1	1	0	1	-70,754052	271,882672	239,065751	0
15.01.2021	02:18:32	0	0	4,971771	2,586	36,63	-1,453	81,015	0	1008,78	4,4	6,8	6,6	1	1	1	1	1	1	1	1	1	0	1	-64,059197	271,969269	246,155519	0
15.01.2021	02:18:33	0	0	2,82487	2,61675	45,1404	-1,453	81,039	0	1008,8	4,4	6,9	6,6	1	1	1	1	1	1	1	1	1	0	1	-69,274137	272,006694	241,111366	0
15.01.2021	02:18:34	0	0	3,502839	2,53875	38,8116	-1,437	81,031	0	1008,8	4,4	6,8	6,6	1	1	1	1	1	1	1	1	1	0	1	-65,961945	271,897299	243,924537	0
15.01.2021	02:18:35	0	0	2,711859	2,35425	30,3372	-1,454	81,041	0	1008,78	4,4	6,8	6,7	1	1	1	1	1	1	1	1	1	0	1	-64,83439	271,841509	244,797833	0
15.01.2021	02:18:36	0	0	4,971741	2,46825	27,9756	-1,454	81,051	0	1008,7	4,4	6,8	6,7	1	1	1	1	1	1	1	1	1	0	1	-72,093023	271,941248	237,993867	0
15.01.2021	02:18:37	0	0	4,745782	2,61825	22,8456	-1,453	81,056	0	1008,88	4,4	6,8	6,6	1	1	1	1	1	1	1	1	1	0	1	-67,723749	271,990646	242,588509	0
15.01.2021	02:18:38	0	0	4,858776	2,56425	26,5284	-1,455	81,075	0	1008,82	4,4	6,9	6,6	1	1	1	1	1	1	1	1	1	0	1	-71,317829	271,987972	238,982229	0
15.01.2021	02:18:39	0	0	2,259882	2,42475	42,696	-1,457	81,105	0	1008,8	4,4	6,9	6,7	1	1	1	1	1	1	1	1	1	0	1	-69,203665	271,897299	240,682817	0
15.01.2021	02:18:40	0	0	4,632759	2,3295	19,9116	-1,453	81,129	0	1008,66	4,4	6,8	6,7	1	1	1	1	1	1	1	1	1	0	1	-66,384778	272,013385	244,031265	0
15.01.2021	02:18:41	0	0	4,971771	2,2995	33,9732	-1,458	81,175	0	1008,84	4,4	6,9	6,6	1	1	1	1	1	1	1	1	1	0	1	-71,740662	271,973275	238,492332	0
15.01.2021	02:18:42	0	0	3,27683	2,30175	29,9664	-1,457	81,213	0	1008,66	4,4	6,8	6,7	1	1	1	1	1	1	1	1	1	0	1	-70,965469	272,016062	239,462794	0
15.01.2021	02:18:43	0	0	3,954794	2,2485	23,976	-1,455	81,242	0	1008,76	4,4	6,8	6,7	1	1	1	1	1	1	1	1	1	0	1	-69,203665	271,99332	241,120796	0
15.01.2021	02:18:44	0	0	4,745782	2,1435	37,3068	-1,449	81,265	0	1008,84	4,4	6,8	6,6	1	1	1	1	1	1	1	1	1	0	1	-68,498943	271,909275	241,44214	0
15.01.2021	02:18:45	0	0	4,745782	1,99575	17,2512	-1,452	81,306	0	1008,68	4,4	6,9	6,6	1	1	1	1	1	1	1	1	1	0	1	-71,106413	272,026774	239,37075	0
15.01.2021	02:18:46	0	0	5,084766	1,854	9,4752	-1,451	81,345	0	1008,78	4,4	6,8	6,6	1	1	1	1	1	1	1	1	1	0	1	-71,247357	271,983963	239,034405	0
15.01.2021	02:18:47	0	0	4,745782	1,66875	13,1904	-1,448	81,368	0	1008,82	4,4	6,8	6,6	1	1	1	1	1	1	1	1	1	0	1	-69,06272	271,846816	240,593679	0
15.01.2021	02:18:48	0	0	4,406771	1,608	21,3876	-1,447	81,363	0	1008,72	4,4	6,8	6,7	1	1	1	1	1	1	1	1	1	0	1	-68,005638	271,925255	242,008312	0
15.01.2021	02:18:49	0	0	5,084736	1,5345	21,402	-1,447	81,39	0	1008,82	4,4	6,8	6,7	1	1	1	1	1	1	1	1	1	0	1	-70,049331	271,841509	239,582893	0
15.01.2021	02:18:50	0	0	2,824853	1,72725	17,8056	-1,453	81,383	0	1008,7	4,4	6,8	6,7	1	1	1	1	1	1	1	1	1	0	1	-68,357999	272,034811	242,155861	0
15.01.2021	02:18:51	0	0	3,728806	1,89225	9,3708	-1,446	81,399	0	1008,9	4,4	6,8	6,7	1	1	1	1	1	1	1	1	1	0	1	-67,582805	271,898629	242,309742	0
15.01.2021	02:18:52	0	0	3,050841	2,079	22,086	-1,444	81,41	0	1008,86	4,4	6,8	6,7	1	1	1	1	1	1	1	1	1	0	1	-68,710359	271,970604	241,510448	0
15.01.2021	02:18:53	0	0	4,519765	2,18475	13,1796	-1,445	81,398	0	1008,74	4,4	6,8	6,7	1	1	1	1	1	1	1	1	1	0	1	-68,498943	272,032132	242,002683	0
15.01.2021	02:18:54	0	0	2,937847	2,25825	35,4852	-1,444	81,39	0	1008,62	4,4	6,8	6,7	1	1	1	1	1	1	1	1	1	0	1	-65,045807	271,977283	245,205471	0
15.01.2021	02:18:55	0	0	3,389824	2,39325	16,5024	-1,447	81,391	0	1008,7	4,4	6,8	6,7	1	1	1	1	1	1	1	1	1	0	1	-68,921776	271,85876	240,78905	0
15.01.2021	02:18:56	0	0	4,745753	2,66625	15,4224	-1,446	81,382	0	1008,8	4,6	6,8	6,7	1	1	1	1	1	1	1	1	1	0	1	-70,894996	271,942582	239,197976	0
15.01.2021	02:18:57	0	0	3,27683	2,727	15,4224	-1,439	81,401	0	1008,82	4,4	6,8	6,7	1	1	1	1	1	1	1	1	1	0	1	-65,116279	272,033472	245,391463	0
15.01.2021	02:18:58	0	0	3,27683	2,69775	23,2416	-1,437	81,403	0	1008,56	4,4	6,8	6,7	1	1	1	1	1	1	1	1	1	0	1	-68,498943	272,000006	241,856032	0
15.01.2021	02:18:59	0	0	4,180783	2,739	20,6496	-1,447	81,403	0	1008,78	4,4	6,8	6,7	1	1	1	1	1	1	1	1	1	0	1	-68,07611	271,977283	242,175168	0
15.01.2021	02:19:00	0	0	4,745753	2,7015	28,71	-1,44	81,4	0	1008,78	4,4	6,8	6,7	1	1	1	1	1	1	1	1	1	0	1	-65,539112	271,953252	244,602533	0
15.01.2021	02:19:01	0	0	4,745753	2,7015	28,71	-1,44	81,4	0	1008,78	4,4	6,8	6,7	1	1	1	1	1	1	1	1	1	0	1	-65,539112	271,953252	244,602533	0
15.01.2021	02:19:02	0	0	3,8418	2,718	35,1072	-1,438	81,402	0	1008,8	4,4	6,8	6,7	1	1	1	1	1	1	1	1	1	0	1	-67,0895	272,022756	243,369322	0
15.01.2021	02:19:03	0	0	4,858747	2,63475	42,912	-1,435	81,393	0	1008,84	4,4	6,8	6,7	1	1	1	1	1	1	1	1	1	0	1	-72,233968	272,013385	238,182076	0
15.01.2021	02:19:04	0	0	2,937847	2,556	60,5556	-1,433	81,391	0	1008,86	4,4	6,8	6,7	1	1	1	1	1	1	1	1	1	0	1	-65,609584	271,994657	244,720978	0
15.01.2021	02:19:05	0	0	3,954794	2,457	60,93	-1,436	81,386	0	1008,7	4,4	6,8	6,7	1	1	1	1	1	1	1	1	1	0	1	-69,133192	272,016062	241,295071	0
15.01.2021	02:19:06	0	0	3,050841	2,39175	59,1012	-1,438	81,389	0	1008,82	4,4	6,8	6,7	1	1	1	1	1	1	1	1	1	0	1	-68,851304	271,959924	241,320778	0
15.01.2021	02:19:07	0	0	3,728806	2,42175	57,744	-1,438	81,396	0	1008,76	4,4	6,8	6,7	1	1	1	1	1	1	1	1	1	0	1	-67,864693	271,873369	241,91271	0
15.01.2021	02:19:08	0	0	3,728806	2,412	60,5484	-1,444	81,4	0	1008,72	4,4	6,8	6,7	1	1	1	1	1	1	1	1	1	0	1	-70,331219	272,040172	240,207116	0
15.01.2021	02:19:09	0	0	3,728806	2,409	57,7188	-1,431	81,407	0	1008,74	4,4	6,8	6,7	1	1	1	1	1	1	1	1	1	0	1	-71,176885	271,990646	239,135373	0
15.01.2021	02:19:10	0	0	3,502839	2,211	76,8204	-1,432	81,387	0	1008,78	4,4	6,8	6,6	1	1	1	1	1	1	1	1	1	0	1	-70,260747	272,034811	240,253113	0
15.01.2021	02:19:11	0	0	3,954794	2,076	28,3428	-1,429	81,394	0	1008,68	4,4	6,8	6,7	1	1	1	1	1	1	1	1	1	0	1	-68,639887	272,005356	241,739509	0
15.01.2021	02:19:12	0	0	2,598865	2,09025	45,5436	-1,431	81,385	0	1008,72	4,4	6,8	6,7	1	1	1	1	1	1	1	1	1	0	1	-68,851304	271,90129	241,053374	0
15.01.2021	02:19:13	0	0	2,937865	2,145	45,9504	-1,432	81,381	0	1008,74	4,4	6,8	6,6	1	1	1	1	1	1	1	1	1	0	1	-70,260747	271,862743	239,46823	0
15.01.2021	02:19:14	0	0	2,937847	2,00025	48,8196	-1,429	81,385	0	1008,78	4,4	6,8	6,7	1	1	1	1	1	1	1	1	1	0	1	-66,384778	271,978618	243,872596	0
15.01.2021	02:19:15	0	0	2,824853	1,81575	6,0804	-1,432	81,393	0	1008,76	4,6	6,8	6,7	1	1	1	1	1	1	1	1	1	0	1	-68,710359	272,040172	241,827976	0
15.01.2021	02:19:16	0	0	4,519765	1,5855	17,7048	-1,428	81,386	0	1008,58	4,4	6,8	6,7	1	1	1	1	1	1	1	1	1	0	1	-68,217054	271,95859	241,948939	0
15.01.2021	02:19:17	0	0	4,406771	1,437	49,1976	-1,427	81,394	0	1008,72	4,4	6,8	6,7	1	1	1	1	1	1	1	1	1	0	1	-66,737139	271,880013	243,070548	0
15.01.2021	02:19:18	0	0	2,937847	1,38975	30,3336	-1,429	81,387	0	1008,92	4,4	6,8	6,7	1	1	1	1	1	1	1	1	1	0	1	-66,948555	271,907944	242,986459	0
15.01.2021	02:19:19	0	0	4,180783	1,41	47,3652	-1,426	81,388	0	1008,8	4,4	6,8	6,7	1	1	1	1	1	1	1	1	1	0	1	-65,116279	271,982627	245,159385	0
15.01.2021	02:19:20	0	0	2,598865	1,527	40,7088	-1,424	81,375	0	1008,86	4,4	6,8	6,7	1	1	1	1	1	1	1	1	1	0	1	-70,965469	271,868055	238,787718	0
15.01.2021	02:19:21	0	0	4,858747	1,65	48,4992	-1,429	81,375	0	1008,62	4,5	6,8	6,7	1	1	1	1	1	1	1	1	1	0	1	-67,0895	271,919927	242,900153	0
15.01.2021	02:19:22	0	0	3,728806	1,62525	48,1356	-1,421	81,382	0	1008,86	4,4	6,8	6,7	1	1	1	1	1	1	1	1	1	0	1	-68,921776	271,869384	240,837464	0
15.01.2021	02:19:23	0	0	3,8418	1,63125	52,9056	-1,421	81,37	0	1008,68	4,4	6,8	6,7	1	1	1	1	1	1	1	1	1	0	1	-67,371388	271,951918	242,764171	0
15.01.2021	02:19:24	0	0	2,937865	1,677	45,5364	-1,424	81,38	0	1008,72	4,4	6,8	6,6	1	1	1	1	1	1	1	1	1	0	1	-66,102889	272,033472	244,404853	0
15.01.2021	02:19:25	0	0	4,745753	1,73325	63,4932	-1,429	81,366	0	1008,74	4,5	6,8	6,7	1	1	1	1	1	1	1	1	1	0	1	-68,005638	272,050897	242,581672	0
15.01.2021	02:19:26	0	0	4,858747	1,818	58,1076	-1,419	81,363	0	1008,64	4,6	6,8	6,7	1	1	1	1	1	1	1	1	1	0	1	-69,415081	271,921259	240,580645	0
15.01.2021	02:19:27	0	0	3,615812	2,02575	29,9664	-1,423	81,361	0	1008,68	4,5	6,8	6,7	1	1	1	1	1	1	1	1	1	0	1	-66,666667	271,997331	243,676101	0
15.01.2021	02:19:28	0	0	3,27683	2,337	38,7864	-1,418	81,348	0	1008,76	4,5	6,8	6,7	1	1	1	1	1	1	1	1	1	0	1	-65,46864	271,893308	244,399651	0
15.01.2021	02:19:29	0	0	3,615812	2,3805	38,808	-1,411	81,346	0	1008,8	4,6	6,8	6,7	1	1	1	1	1	1	1	1	1	0	1	-71,740662	271,918595	238,242917	0
15.01.2021	02:19:30	0	0	4,632759	2,44125	49,9572	-1,413	81,322	0	1008,76	4,4	6,8	6,7	1	1	1	1	1	1	1	1	1	0	1	-68,639887	272,056262	241,971923	0
15.01.2021	02:19:31	0	0	4,067788	2,42325	49,284	-1,415	81,331	0	1008,86	4,6	6,8	6,7	1	1	1	1	1	1	1	1	1	0	1	-65,750529	271,942582	244,342444	0
15.01.2021	02:19:32	0	0	3,8418	2,42475	56,6604	-1,414	81,332	0	1008,74	4,5	6,8	6,7	1	1	1	1	1	1	1	1	1	0	1	-68,287526	271,898629	241,60502	0
15.01.2021	02:19:33	0	0	2,711859	2,3205	39,564	-1,417	81,298	0	1008,82	4,4	6,8	6,7	1	1	1	1	1	1	1	1	1	0	1	-71,458774	271,970604	238,762034	0
15.01.2021	02:19:34	0	0	2,824853	2,22075	49,5828	-1,418	81,31	0	1008,9	4,5	6,8	6,7	1	1	1	1	1	1	1	1	1	0	1	-67,864693	272,040172	242,673642	0
15.01.2021	02:19:35	0	0	2,824853	2,01975	36,9432	-1,416	81,291	0	1008,56	4,4	6,8	6,7	1	1	1	1	1	1	1	1	1	0	1	-66,878083	271,9146	243,087281	0
15.01.2021	02:19:36	0	0	3,728806	1,911	41,8464	-1,413	81,294	0	1008,76	4,5	6,8	6,7	1	1	1	1	1	1	1	1	1	0	1	-67,300916	271,897299	242,585566	0
15.01.2021	02:19:37	0	0	3,8418	1,896	34,7148	-1,417	81,289	0	1008,72	4,5	6,8	6,7	1	1	1	1	1	1	1	1	1	0	1	-70,542636	272,057603	240,075301	0
15.01.2021	02:19:38	0	0	5,084736	1,8795	33,264	-1,411	81,284	0	1008,74	4,5	6,8	6,7	1	1	1	1	1	1	1	1	1	0	1	-69,626498	271,950584	240,502976	0
15.01.2021	02:19:39	0	0	4,745753	1,947	33,3504	-1,414	81,273	0	1008,78	4,5	6,9	6,7	1	1	1	1	1	1	1	1	1	0	1	-67,653277	272,052238	242,940157	0
15.01.2021	02:19:40	0	0	3,8418	2,0145	39,5712	-1,416	81,254	0	1008,76	4,5	6,8	6,7	1	1	1	1	1	1	1	1	1	0	1	-65,961945	271,951918	244,173614	0
15.01.2021	02:19:41	0	0	3,050841	2,20875	32,526	-1,421	81,264	0	1008,84	4,5	6,8	6,7	1	1	1	1	1	1	1	1	1	0	1	-70,401691	272,057603	240,216245	0
15.01.2021	02:19:42	0	0	3,050841	2,33325	26,19	-1,418	81,26	0	1008,7	4,4	7	6,7	1	1	1	1	1	1	1	1	1	0	1	-71,952079	271,90129	237,952599	0
15.01.2021	02:19:43	0	0	5,084736	2,44575	27,6732	-1,413	81,267	0	1008,76	4,5	6,8	6,7	1	1	1	1	1	1	1	1	1	0	1	-72,022551	271,986636	238,271408	0
15.01.2021	02:19:44	0	0	3,163835	2,4135	31,7916	-1,41	81,245	0	1008,78	4,5	6,9	6,7	1	1	1	1	1	1	1	1	1	0	1	-65,045807	271,88666	244,792175	0
15.01.2021	02:19:45	0	0	4,971741	2,4105	38,4048	-1,411	81,244	0	1008,8	4,5	6,8	6,7	1	1	1	1	1	1	1	1	1	0	1	-68,287526	271,93325	241,762885	0
15.01.2021	02:19:46	0	0	3,502818	2,403	37,404	-1,408	81,249	0	1008,9	4,5	6,8	6,7	1	1	1	1	1	1	1	1	1	0	1	-70,260747	271,889319	239,589357	0
15.01.2021	02:19:47	0	0	3,27683	2,21325	24,7536	-1,417	81,217	0	1008,68	4,4	6,8	6,7	1	1	1	1	1	1	1	1	1	0	1	-69,133192	272,00937	241,264525	0
15.01.2021	02:19:48	0	0	2,937847	2,11575	34,3476	-1,406	81,232	0	1008,72	4,4	6,8	6,7	1	1	1	1	1	1	1	1	1	0	1	-69,837914	272,064312	240,810662	0
15.01.2021	02:19:49	0	0	4,293777	2,04375	37,6884	-1,411	81,222	0	1008,68	4,5	6,9	6,7	1	1	1	1	1	1	1	1	1	0	1	-65,891473	271,979954	244,371997	0
15.01.2021	02:19:50	0	0	3,163835	1,99575	44,0676	-1,408	81,229	0	1008,84	4,5	6,9	6,7	1	1	1	1	1	1	1	1	1	0	1	-72,727273	272,061628	237,909046	0
15.01.2021	02:19:51	0	0	3,502818	1,88775	45,8604	-1,409	81,22	0	1008,72	4,5	6,8	6,7	1	1	1	1	1	1	1	1	1	0	1	-69,837914	271,934583	240,218576	0
15.01.2021	02:19:52	0	0	4,745753	1,941	48,1428	-1,407	81,229	0	1008,8	4,5	6,9	6,7	1	1	1	1	1	1	1	1	1	0	1	-68,639887	271,906613	241,289059	0
15.01.2021	02:19:53	0	0	4,745753	2,06775	38,8116	-1,411	81,214	0	1008,74	4,5	6,8	6,7	1	1	1	1	1	1	1	1	1	0	1	-67,44186	272,069681	243,231236	0
15.01.2021	02:19:54	0	0	3,502818	2,058	55,5444	-1,409	81,221	0	1008,74	4,5	6,9	6,7	1	1	1	1	1	1	1	1	1	0	1	-65,821001	271,953252	244,320644	0
15.01.2021	02:19:55	0	0	3,8418	2,1255	33,6564	-1,41	81,231	0	1008,8	4,5	6,8	6,7	1	1	1	1	1	1	1	1	1	0	1	-69,06272	272,066996	241,598115	0
15.01.2021	02:19:56	0	0	3,163835	2,196	49,212	-1,411	81,229	0	1008,64	4,5	6,8	6,7	1	1	1	1	1	1	1	1	1	0	1	-68,146582	272,016062	242,281681	0
15.01.2021	02:19:57	0	0	4,067788	2,2275	43,6716	-1,409	81,228	0	1008,78	4,5	6,8	6,7	1	1	1	1	1	1	1	1	1	0	1	-76,321353	272,058945	234,30271	0
15.01.2021	02:19:58	0	0	3,728806	2,1705	60,5844	-1,409	81,221	0	1008,88	4,5	6,8	6,7	1	1	1	1	1	1	1	1	1	0	1	-74,841438	271,953252	235,300207	0
15.01.2021	02:19:59	0	0	3,8418	2,00775	37,7136	-1,404	81,232	0	1008,9	4,5	6,8	6,7	1	1	1	1	1	1	1	1	1	0	1	-74,700493	272,068338	235,966472	0
15.01.2021	02:20:00	0	0	5,19773	2,17875	52,9056	-1,405	81,229	0	1008,82	4,5	6,9	6,7	1	1	1	1	1	1	1	1	1	0	1	-69,908386	271,926587	240,111639	0
15.01.2021	02:20:01	0	0	5,19773	2,17875	52,9056	-1,405	81,229	0	1008,82	4,5	6,9	6,7	1	1	1	1	1	1	1	1	1	0	1	-69,908386	271,926587	240,111639	0
15.01.2021	02:20:02	0	0	3,389824	2,226	41,0112	-1,411	81,221	0	1008,74	4,5	6,9	6,7	1	1	1	1	1	1	1	1	1	0	1	-70,613108	271,92792	239,412994	0
15.01.2021	02:20:03	0	0	4,632759	2,103	44,0604	-1,403	81,217	0	1008,82	4,5	6,9	6,7	1	1	1	1	1	1	1	1	1	0	1	-71,740662	272,05492	238,865022	0
15.01.2021	02:20:04	0	0	4,293777	1,93875	29,1168	-1,402	81,214	0	1008,84	4,4	6,8	6,7	1	1	1	1	1	1	1	1	1	0	1	-64,622974	271,870712	245,14232	0
15.01.2021	02:20:05	0	0	4,406771	1,7895	22,4712	-1,404	81,212	0	1008,78	4,5	6,9	6,7	1	1	1	1	1	1	1	1	1	0	1	-72,022551	271,913269	237,936742	0
15.01.2021	02:20:06	0	0	2,937847	1,70925	34,3404	-1,408	81,197	0	1008,6	4,5	6,9	6,7	1	1	1	1	1	1	1	1	1	0	1	-70,331219	271,990646	239,981039	0
15.01.2021	02:20:07	0	0	2,711875	1,63725	33,6384	-1,402	81,198	0	1008,8	4,5	6,9	6,6	1	1	1	1	1	1	1	1	1	0	1	-66,173362	271,903951	243,743449	0
15.01.2021	02:20:08	0	0	2,937847	1,63875	21,0384	-1,403	81,185	0	1008,8	4,5	6,9	6,7	1	1	1	1	1	1	1	1	1	0	1	-68,992248	272,002681	241,374936	0
15.01.2021	02:20:09	0	0	2,711875	1,69425	32,1624	-1,399	81,187	0	1008,76	4,5	6,9	6,6	1	1	1	1	1	1	1	1	1	0	1	-67,794221	272,065654	242,860484	0
15.01.2021	02:20:10	0	0	5,423751	1,78725	26,91	-1,401	81,18	0	1008,78	4,5	6,9	6,6	1	1	1	1	1	1	1	1	1	0	1	-71,529246	272,066996	239,131589	0
15.01.2021	02:20:11	0	0	5,084736	1,9335	43,308	-1,402	81,17	0	1008,76	4,5	6,9	6,7	1	1	1	1	1	1	1	1	1	0	1	-67,794221	271,979954	242,469249	0
15.01.2021	02:20:12	0	0	4,180783	1,88475	43,308	-1,404	81,162	0	1008,84	4,5	6,9	6,7	1	1	1	1	1	1	1	1	1	0	1	-76,180409	272,064312	234,468167	0
15.01.2021	02:20:13	0	0	3,954794	1,932	29,5812	-1,399	81,147	0	1008,66	4,5	6,9	6,7	1	1	1	1	1	1	1	1	1	0	1	-70,119803	272,000006	240,235172	0
15.01.2021	02:20:14	0	0	2,711859	2,1555	38,4264	-1,401	81,135	0	1008,76	4,5	6,9	6,7	1	1	1	1	1	1	1	1	1	0	1	-72,30444	272,061628	238,331879	0
15.01.2021	02:20:15	0	0	4,067788	2,25525	49,9752	-1,401	81,138	0	1008,86	4,5	6,9	6,7	1	1	1	1	1	1	1	1	1	0	1	-72,938689	271,953252	237,202955	0
15.01.2021	02:20:16	0	0	4,293751	2,2725	42,6204	-1,396	81,145	0	1008,84	4,5	6,9	6,8	1	1	1	1	1	1	1	1	1	0	1	-69,837914	272,06297	240,804533	0
15.01.2021	02:20:17	0	0	3,389844	2,184	55,1916	-1,401	81,135	0	1008,8	4,4	6,9	6,6	1	1	1	1	1	1	1	1	1	0	1	-65,398168	271,919927	244,591485	0
15.01.2021	02:20:18	0	0	2,711859	2,052	47,754	-1,401	81,13	0	1008,72	4,4	6,8	6,7	1	1	1	1	1	1	1	1	1	0	1	-72,868217	272,001343	237,492862	0
15.01.2021	02:20:19	0	0	3,728828	2,02425	39,5568	-1,397	81,134	0	1008,76	4,5	6,9	6,6	1	1	1	1	1	1	1	1	1	0	1	-67,723749	272,085796	243,022961	0
15.01.2021	02:20:20	0	0	2,937847	2,028	55,5516	-1,399	81,107	0	1008,9	4,5	6,9	6,7	1	1	1	1	1	1	1	1	1	0	1	-67,230444	272,00937	243,167273	0
15.01.2021	02:20:21	0	0	3,389844	1,91025	42,2244	-1,402	81,123	0	1008,8	4,4	6,9	6,6	1	1	1	1	1	1	1	1	1	0	1	-73,431994	272,066996	237,228841	0
15.01.2021	02:20:22	0	0	2,711859	1,84575	56,7432	-1,398	81,113	0	1008,8	4,5	6,9	6,7	1	1	1	1	1	1	1	1	1	0	1	-67,159972	271,995994	243,176693	0
15.01.2021	02:20:23	0	0	2,824836	1,73325	42,2352	-1,402	81,094	0	1008,9	4,4	6,9	6,8	1	1	1	1	1	1	1	1	1	0	1	-68,005638	271,893308	241,862653	0
15.01.2021	02:20:24	0	0	4,745753	1,64925	44,4096	-1,396	81,099	0	1008,84	4,4	6,8	6,7	1	1	1	1	1	1	1	1	1	0	1	-70,331219	272,028113	240,152059	0
15.01.2021	02:20:25	0	0	5,310756	1,674	51,7752	-1,397	81,092	0	1008,66	4,4	6,9	6,6	1	1	1	1	1	1	1	1	1	0	1	-70,754052	272,034811	239,759808	0
15.01.2021	02:20:26	0	0	3,05086	1,79775	44,0496	-1,402	81,071	0	1008,74	4,4	6,8	6,6	1	1	1	1	1	1	1	1	1	0	1	-68,146582	272,038831	242,385633	0
15.01.2021	02:20:27	0	0	2,82487	1,9425	63,8784	-1,398	81,062	0	1008,72	4,4	6,8	6,6	1	1	1	1	1	1	1	1	1	0	1	-71,881607	271,903951	238,035204	0
15.01.2021	02:20:28	0	0	2,937847	2,20125	53,7336	-1,397	81,063	0	1008,96	4,4	6,8	6,7	1	1	1	1	1	1	1	1	1	0	1	-71,176885	271,934583	238,879604	0
15.01.2021	02:20:29	0	0	2,937865	2,31375	62,46	-1,401	81,052	0	1008,7	4,4	6,9	6,6	1	1	1	1	1	1	1	1	1	0	1	-69,06272	271,929252	240,969458	0
15.01.2021	02:20:30	0	0	4,632787	2,27325	54,1044	-1,394	81,039	0	1008,78	4,4	6,8	6,6	1	1	1	1	1	1	1	1	1	0	1	-69,133192	271,918595	240,850387	0
15.01.2021	02:20:31	0	0	4,067813	2,12625	51,7644	-1,397	81,046	0	1008,82	4,4	6,9	6,6	1	1	1	1	1	1	1	1	1	0	1	-71,247357	272,026774	239,229806	0
15.01.2021	02:20:32	0	0	4,293802	2,11575	45,54	-1,395	81,043	0	1008,84	4,4	6,8	6,6	1	1	1	1	1	1	1	1	1	0	1	-70,613108	271,89996	239,285504	0
15.01.2021	02:20:33	0	0	3,27683	2,082	53,3628	-1,395	81,04	0	1008,8	4,4	6,9	6,7	1	1	1	1	1	1	1	1	1	0	1	-73,150106	271,955921	237,003712	0
15.01.2021	02:20:34	0	0	2,824853	2,01975	51,1632	-1,398	81,043	0	1008,86	4,4	6,8	6,7	1	1	1	1	1	1	1	1	1	0	1	-70,049331	271,88533	239,782591	0
15.01.2021	02:20:35	0	0	3,954818	1,9095	21,7944	-1,394	81,048	0	1008,82	4,4	6,8	6,6	1	1	1	1	1	1	1	1	1	0	1	-73,361522	272,037491	237,164574	0
15.01.2021	02:20:36	0	0	3,728828	1,7445	33,2676	-1,398	81,048	0	1008,88	4,4	6,8	6,6	1	1	1	1	1	1	1	1	1	0	1	-66,948555	272,053579	243,651004	0
15.01.2021	02:20:37	0	0	3,728828	1,674	39,8664	-1,393	81,039	0	1008,84	4,4	6,8	6,6	1	1	1	1	1	1	1	1	1	0	1	-69,203665	272,033472	241,304078	0
15.01.2021	02:20:38	0	0	2,824853	1,5225	68,0364	-1,395	81,036	0	1008,7	4,4	6,9	6,7	1	1	1	1	1	1	1	1	1	0	1	-66,878083	272,029453	243,61131	0
15.01.2021	02:20:39	0	0	2,937865	1,4625	74,9412	-1,394	81,026	0	1008,74	4,4	6,8	6,6	1	1	1	1	1	1	1	1	1	0	1	-67,723749	271,903951	242,193062	0
15.01.2021	02:20:40	0	0	2,824853	1,44825	61,3188	-1,399	81,023	0	1008,82	4,4	6,8	6,7	1	1	1	1	1	1	1	1	1	0	1	-70,613108	272,010708	239,790718	0
15.01.2021	02:20:41	0	0	3,615812	1,53075	62,0568	-1,392	81,031	0	1008,84	4,4	6,8	6,7	1	1	1	1	1	1	1	1	1	0	1	-72,233968	272,069681	238,439129	0
15.01.2021	02:20:42	0	0	4,971741	1,7175	51,0516	-1,395	81,029	0	1008,8	4,4	6,8	6,7	1	1	1	1	1	1	1	1	1	0	1	-71,035941	271,991983	239,282418	0
15.01.2021	02:20:43	0	0	3,954794	1,83	57,0384	-1,393	81,009	0	1008,7	4,4	6,8	6,7	1	1	1	1	1	1	1	1	1	0	1	-67,019027	272,056262	243,592783	0
15.01.2021	02:20:44	0	0	4,067788	1,8675	56,664	-1,393	81,007	0	1008,8	4,4	6,8	6,7	1	1	1	1	1	1	1	1	1	0	1	-68,07611	271,913269	241,883183	0
15.01.2021	02:20:45	0	0	4,519765	1,929	55,5984	-1,399	80,998	0	1008,76	4,4	6,8	6,7	1	1	1	1	1	1	1	1	1	0	1	-66,948555	271,99332	243,375905	0
15.01.2021	02:20:46	0	0	5,084736	1,92225	55,9404	-1,392	80,981	0	1008,8	4,4	6,8	6,7	1	1	1	1	1	1	1	1	1	0	1	-72,374912	272,066996	238,285923	0
15.01.2021	02:20:47	0	0	4,180783	1,9065	54,8064	-1,39	80,998	0	1008,78	4,4	6,8	6,7	1	1	1	1	1	1	1	1	1	0	1	-69,837914	272,012047	240,57202	0
15.01.2021	02:20:48	0	0	3,502818	1,80525	52,2216	-1,391	81	0	1008,7	4,4	6,8	6,7	1	1	1	1	1	1	1	1	1	0	1	-68,146582	271,907944	241,788432	0
15.01.2021	02:20:49	0	0	4,971741	1,70775	58,482	-1,39	81,001	0	1008,82	4,4	6,8	6,7	1	1	1	1	1	1	1	1	1	0	1	-68,357999	271,997331	241,984769	0
15.01.2021	02:20:50	0	0	5,310724	1,69725	46,6092	-1,394	80,984	0	1008,94	4,4	6,8	6,7	1	1	1	1	1	1	1	1	1	0	1	-65,045807	271,889319	244,804297	0
15.01.2021	02:20:51	0	0	5,19773	1,72725	55,5552	-1,392	80,967	0	1008,74	4,4	6,8	6,7	1	1	1	1	1	1	1	1	1	0	1	-70,824524	271,97194	239,402377	0
15.01.2021	02:20:52	0	0	3,615812	1,78275	59,1228	-1,393	80,984	0	1008,8	4,4	6,8	6,7	1	1	1	1	1	1	1	1	1	0	1	-71,881607	271,898629	238,01094	0
15.01.2021	02:20:53	0	0	2,711859	1,8195	64,2564	-1,39	80,97	0	1008,92	4,4	6,8	6,7	1	1	1	1	1	1	1	1	1	0	1	-72,797745	272,005356	237,581651	0
15.01.2021	02:20:54	0	0	4,406771	1,87575	70,2252	-1,392	80,946	0	1008,7	4,4	6,8	6,7	1	1	1	1	1	1	1	1	1	0	1	-66,737139	272,038831	243,795077	0
15.01.2021	02:20:55	0	0	2,598865	1,8525	52,9668	-1,386	80,959	0	1008,74	4,4	6,8	6,7	1	1	1	1	1	1	1	1	1	0	1	-68,357999	272,073708	242,333494	0
15.01.2021	02:20:56	0	0	3,8418	1,90125	67,6908	-1,394	80,956	0	1008,84	4,4	6,8	6,7	1	1	1	1	1	1	1	1	1	0	1	-70,68358	272,005356	239,695816	0
15.01.2021	02:20:57	0	0	3,163835	1,965	60,2388	-1,391	80,939	0	1008,78	4,4	6,8	6,7	1	1	1	1	1	1	1	1	1	0	1	-67,44186	272,049556	243,139326	0
15.01.2021	02:20:58	0	0	3,050841	2,031	62,0424	-1,388	80,943	0	1008,78	4,4	6,8	6,7	1	1	1	1	1	1	1	1	1	0	1	-71,035941	271,915932	238,935495	0
15.01.2021	02:20:59	0	0	3,389824	2,01225	66,5352	-1,398	80,928	0	1008,8	4,4	6,8	6,7	1	1	1	1	1	1	1	1	1	0	1	-70,049331	272,058945	240,574733	0
15.01.2021	02:21:00	0	0	4,632759	1,93275	75,6216	-1,39	80,929	0	1008,62	4,4	6,8	6,7	1	1	1	1	1	1	1	1	1	0	1	-70,965469	271,969269	239,249247	0
15.01.2021	02:21:01	0	0	2,711859	1,86975	63,504	-1,39	80,946	0	1008,8	4,4	6,8	6,7	1	1	1	1	1	1	1	1	1	0	1	-70,401691	272,065654	240,253014	0
15.01.2021	02:21:02	0	0	2,711859	1,86975	63,504	-1,39	80,946	0	1008,8	4,4	6,8	6,7	1	1	1	1	1	1	1	1	1	0	1	-70,401691	272,065654	240,253014	0
15.01.2021	02:21:03	0	0	4,067788	1,84125	36,2448	-1,394	80,934	0	1008,72	4,4	6,8	6,7	1	1	1	1	1	1	1	1	1	0	1	-71,458774	271,897299	238,427708	0
15.01.2021	02:21:04	0	0	3,954794	1,83075	50,3064	-1,392	80,942	0	1008,98	4,4	6,8	6,7	1	1	1	1	1	1	1	1	1	0	1	-72,022551	271,97194	238,20435	0
15.01.2021	02:21:05	0	0	3,615812	1,92375	46,9872	-1,393	80,945	0	1008,78	4,4	6,8	6,7	1	1	1	1	1	1	1	1	1	0	1	-70,331219	272,052238	240,262215	0
15.01.2021	02:21:06	0	0	2,711859	1,97475	49,5936	-1,392	80,963	0	1008,46	4,4	6,8	6,7	1	1	1	1	1	1	1	1	1	0	1	-66,314306	272,005356	244,06509	0
15.01.2021	02:21:07	0	0	3,728806	1,983	38,43	-1,388	80,98	0	1008,82	4,4	6,8	6,7	1	1	1	1	1	1	1	1	1	0	1	-69,626498	272,060287	241,003693	0
15.01.2021	02:21:08	0	0	3,163835	2,0055	55,9512	-1,39	80,988	0	1008,86	4,4	7	6,7	1	1	1	1	1	1	1	1	1	0	1	-70,190275	271,937249	239,878374	0
15.01.2021	02:21:09	0	0	3,163835	1,902	29,97	-1,39	80,983	0	1008,8	4,4	6,8	6,7	1	1	1	1	1	1	1	1	1	0	1	-70,190275	271,929252	239,841903	0
15.01.2021	02:21:10	0	0	3,050841	1,84725	40,2552	-1,389	80,993	0	1008,94	4,4	6,8	6,7	1	1	1	1	1	1	1	1	1	0	1	-70,613108	271,970604	239,6077	0
15.01.2021	02:21:11	0	0	3,27683	1,8135	43,6824	-1,388	81,021	0	1008,82	4,4	6,8	6,7	1	1	1	1	1	1	1	1	1	0	1	-71,247357	272,060287	239,382833	0
15.01.2021	02:21:12	0	0	4,067788	1,818	43,6608	-1,384	81,018	0	1008,94	4,4	6,8	6,7	1	1	1	1	1	1	1	1	1	0	1	-65,821001	272,037491	244,705096	0
15.01.2021	02:21:13	0	0	2,937847	1,7535	51,768	-1,385	81,012	0	1008,94	4,4	6,8	6,7	1	1	1	1	1	1	1	1	1	0	1	-67,019027	272,005356	243,360369	0
15.01.2021	02:21:14	0	0	4,519765	1,64925	51,75	-1,384	81,023	0	1008,92	4,4	7	6,7	1	1	1	1	1	1	1	1	1	0	1	-72,727273	272,077736	237,982621	0
15.01.2021	02:21:15	0	0	4,180783	1,515	49,9752	-1,383	81,04	0	1008,84	4,4	6,8	6,7	1	1	1	1	1	1	1	1	1	0	1	-69,767442	272,006694	240,618061	0
15.01.2021	02:21:16	0	0	2,711859	1,44225	48,8268	-1,389	81,031	0	1008,74	4,4	6,8	6,7	1	1	1	1	1	1	1	1	1	0	1	-71,317829	272,075051	239,379797	0
15.01.2021	02:21:17	0	0	4,971741	1,43625	57,0384	-1,389	81,027	0	1008,74	4,4	6,8	6,7	1	1	1	1	1	1	1	1	1	0	1	-70,260747	271,982627	240,014917	0
15.01.2021	02:21:18	0	0	2,711859	1,4715	53,7408	-1,39	81,04	0	1008,8	4,4	6,8	6,7	1	1	1	1	1	1	1	1	1	0	1	-68,287526	272,053579	242,312033	0
15.01.2021	02:21:19	0	0	4,519765	1,46475	49,968	-1,385	81,032	0	1008,88	4,4	6,8	6,7	1	1	1	1	1	1	1	1	1	0	1	-67,44186	272,072366	243,2435	0
15.01.2021	02:21:20	0	0	2,485871	1,401	39,1752	-1,382	81,034	0	1008,76	4,4	6,8	6,7	1	1	1	1	1	1	1	1	1	0	1	-67,935166	271,95859	242,230828	0
15.01.2021	02:21:21	0	0	4,406771	1,43475	61,3152	-1,385	81,03	0	1008,84	4,4	6,9	6,7	1	1	1	1	1	1	1	1	1	0	1	-65,539112	271,90129	244,365566	0
15.01.2021	02:21:22	0	0	3,050841	1,4385	83,7144	-1,385	81,021	0	1008,84	4,4	6,8	6,7	1	1	1	1	1	1	1	1	1	0	1	-66,737139	271,966599	243,465393	0
15.01.2021	02:21:23	0	0	3,8418	1,3755	65,8512	-1,382	81,006	0	1008,76	4,6	7	6,7	1	1	1	1	1	1	1	1	1	0	1	-66,032417	272,061628	244,603901	0
15.01.2021	02:21:24	0	0	3,728806	1,3065	79,0344	-1,386	80,994	0	1008,86	4,6	6,8	6,7	1	1	1	1	1	1	1	1	1	0	1	-70,542636	271,903951	239,374175	0
15.01.2021	02:21:25	0	0	5,310724	1,25625	76,356	-1,385	80,984	0	1008,82	4,4	6,9	6,7	1	1	1	1	1	1	1	1	1	0	1	-67,935166	272,005356	242,44423	0
15.01.2021	02:21:26	0	0	5,084736	1,3305	62,0424	-1,382	80,973	0	1008,84	4,4	6,8	6,7	1	1	1	1	1	1	1	1	1	0	1	-69,203665	271,907944	240,73135	0
15.01.2021	02:21:27	0	0	4,406771	1,4925	72,666	-1,389	80,943	0	1008,76	4,6	7	6,7	1	1	1	1	1	1	1	1	1	0	1	-71,106413	272,004019	239,266877	0
15.01.2021	02:21:28	0	0	4,858747	1,587	67,3092	-1,384	80,905	0	1008,78	4,6	6,9	6,7	1	1	1	1	1	1	1	1	1	0	1	-69,274137	271,903951	240,642674	0
15.01.2021	02:21:29	0	0	4,858747	1,55775	68,7672	-1,385	80,882	0	1008,62	4,4	6,9	6,7	1	1	1	1	1	1	1	1	1	0	1	-71,811135	271,910606	238,136018	0
15.01.2021	02:21:30	0	0	3,27683	1,563	51,4512	-1,38	80,884	0	1009,04	4,6	7	6,7	1	1	1	1	1	1	1	1	1	0	1	-70,472163	271,939915	239,608646	0
15.01.2021	02:21:31	0	0	5,423718	1,52925	47,7432	-1,386	80,815	0	1008,76	4,4	6,8	6,7	1	1	1	1	1	1	1	1	1	0	1	-69,274137	272,037491	241,25196	0
15.01.2021	02:21:32	0	0	4,858747	1,4895	58,8816	-1,392	80,811	0	1008,78	4,5	6,8	6,7	1	1	1	1	1	1	1	1	1	0	1	-70,965469	272,012047	239,444465	0
15.01.2021	02:21:33	0	0	3,954794	1,338	51,444	-1,386	80,782	0	1008,82	4,4	6,9	6,7	1	1	1	1	1	1	1	1	1	0	1	-66,878083	271,905282	243,044795	0
15.01.2021	02:21:34	0	0	4,519765	1,3065	38,0736	-1,382	80,761	0	1008,88	4,4	6,9	6,7	1	1	1	1	1	1	1	1	1	0	1	-68,07611	271,913269	241,883183	0
15.01.2021	02:21:35	0	0	3,8418	1,26525	63,8784	-1,385	80,746	0	1008,8	4,6	6,9	6,7	1	1	1	1	1	1	1	1	1	0	1	-67,0895	272,071023	243,589729	0
15.01.2021	02:21:36	0	0	3,27683	1,26675	59,1228	-1,383	80,747	0	1008,76	4,4	6,9	6,7	1	1	1	1	1	1	1	1	1	0	1	-69,06272	271,95859	241,103273	0
15.01.2021	02:21:37	0	0	4,293777	1,24875	59,4972	-1,383	80,709	0	1008,82	4,4	6,9	6,7	1	1	1	1	1	1	1	1	1	0	1	-67,019027	272,072366	243,666333	0
15.01.2021	02:21:38	0	0	3,728806	1,28475	65,466	-1,386	80,696	0	1008,86	4,4	6,9	6,7	1	1	1	1	1	1	1	1	1	0	1	-71,529246	271,995994	238,807419	0
15.01.2021	02:21:39	0	0	4,745753	1,3245	48,5244	-1,388	80,674	0	1008,76	4,4	6,9	6,7	1	1	1	1	1	1	1	1	1	0	1	-71,106413	271,903951	238,810398	0
15.01.2021	02:21:40	0	0	3,163835	1,34175	46,9944	-1,381	80,658	0	1008,74	4,6	6,9	6,7	1	1	1	1	1	1	1	1	1	0	1	-71,388302	272,071023	239,290927	0
15.01.2021	02:21:41	0	0	4,180783	1,36725	55,566	-1,387	80,643	0	1008,82	4,5	6,9	6,7	1	1	1	1	1	1	1	1	1	0	1	-74,418605	271,986636	235,875354	0
15.01.2021	02:21:42	0	0	3,954794	1,37025	46,2312	-1,384	80,643	0	1008,82	4,6	6,9	6,7	1	1	1	1	1	1	1	1	1	0	1	-69,767442	271,894639	240,106912	0
15.01.2021	02:21:43	0	0	4,745753	1,35675	44,8812	-1,39	80,643	0	1008,76	4,4	6,9	6,7	1	1	1	1	1	1	1	1	1	0	1	-68,992248	271,986636	241,301711	0
15.01.2021	02:21:44	0	0	4,293777	1,39725	58,4784	-1,385	80,641	0	1008,76	4,5	6,9	6,7	1	1	1	1	1	1	1	1	1	0	1	-69,626498	271,90129	240,27818	0
15.01.2021	02:21:45	0	0	3,163835	1,485	52,9164	-1,385	80,635	0	1008,84	4,5	6,9	6,7	1	1	1	1	1	1	1	1	1	0	1	-71,176885	272,000006	239,17809	0
15.01.2021	02:21:46	0	0	4,632759	1,57275	52,992	-1,385	80,627	0	1008,74	4,4	6,9	6,7	1	1	1	1	1	1	1	1	1	0	1	-70,119803	271,907944	239,815212	0
15.01.2021	02:21:47	0	0	3,502818	1,665	49,2264	-1,384	80,632	0	1008,88	4,5	6,9	6,7	1	1	1	1	1	1	1	1	1	0	1	-68,992248	271,997331	241,35052	0
15.01.2021	02:21:48	0	0	2,711859	1,67925	48,5064	-1,385	80,641	0	1008,88	4,5	6,9	6,7	1	1	1	1	1	1	1	1	1	0	1	-65,680056	271,898629	244,21249	0
15.01.2021	02:21:49	0	0	5,19773	1,716	56,2896	-1,385	80,632	0	1008,68	4,5	6,9	6,7	1	1	1	1	1	1	1	1	1	0	1	-71,67019	272,030792	238,825319	0
15.01.2021	02:21:50	0	0	4,180783	1,689	51,444	-1,386	80,626	0	1008,82	4,5	6,9	6,7	1	1	1	1	1	1	1	1	1	0	1	-69,837914	272,041512	240,706541	0
15.01.2021	02:21:51	0	0	5,084736	1,6995	42,9264	-1,387	80,637	0	1008,9	4,5	6,9	6,7	1	1	1	1	1	1	1	1	1	0	1	-69,485553	271,9146	240,479811	0
15.01.2021	02:21:52	0	0	3,8418	1,848	39,8664	-1,387	80,618	0	1008,76	4,5	6,9	6,7	1	1	1	1	1	1	1	1	1	0	1	-66,596195	272,026774	243,880969	0
15.01.2021	02:21:53	0	0	4,858747	1,9635	39,1644	-1,39	80,639	0	1008,82	4,5	6,9	6,7	1	1	1	1	1	1	1	1	1	0	1	-69,415081	272,077736	241,294813	0
15.01.2021	02:21:54	0	0	3,954794	1,99875	47,3544	-1,391	80,632	0	1008,82	4,5	6,9	6,7	1	1	1	1	1	1	1	1	1	0	1	-67,512333	271,943915	242,586722	0
15.01.2021	02:21:55	0	0	2,485871	2,001	51,0624	-1,397	80,62	0	1008,74	4,5	6,9	6,7	1	1	1	1	1	1	1	1	1	0	1	-66,878083	272,065654	243,776622	0
15.01.2021	02:21:56	0	0	4,519765	1,9005	46,2132	-1,388	80,63	0	1008,9	4,5	6,9	6,7	1	1	1	1	1	1	1	1	1	0	1	-67,44186	272,001343	242,919219	0
15.01.2021	02:21:57	0	0	3,27683	1,92975	52,6068	-1,385	80,616	0	1008,66	4,5	6,9	6,7	1	1	1	1	1	1	1	1	1	0	1	-68,992248	272,053579	241,607311	0
15.01.2021	02:21:58	0	0	3,389824	1,89675	45,1584	-1,391	80,63	0	1008,8	4,4	6,9	6,7	1	1	1	1	1	1	1	1	1	0	1	-67,371388	272,033472	243,136354	0
15.01.2021	02:21:59	0	0	3,163835	1,96425	39,5676	-1,387	80,612	0	1008,78	4,5	6,9	6,7	1	1	1	1	1	1	1	1	1	0	1	-69,626498	271,925255	240,387452	0
15.01.2021	02:22:00	0	0	2,711843	1,94025	34,7112	-1,389	80,621	0	1008,74	4,5	6,9	6,8	1	1	1	1	1	1	1	1	1	0	1	-71,035941	271,942582	239,057031	0
15.01.2021	02:22:01	0	0	2,711843	1,94025	34,7112	-1,389	80,621	0	1008,74	4,5	6,9	6,8	1	1	1	1	1	1	1	1	1	0	1	-71,035941	271,942582	239,057031	0
15.01.2021	02:22:02	0	0	4,632759	2,14425	38,0844	-1,387	80,635	0	1008,8	4,5	6,9	6,7	1	1	1	1	1	1	1	1	1	0	1	-67,159972	271,891979	242,702256	0
15.01.2021	02:22:03	0	0	4,745725	2,26875	29,1204	-1,394	80,63	0	1008,7	4,5	6,9	6,8	1	1	1	1	1	1	1	1	1	0	1	-73,643411	271,919927	236,346242	0
15.01.2021	02:22:04	0	0	3,8418	2,229	31,77	-1,388	80,64	0	1008,76	4,5	6,9	6,7	1	1	1	1	1	1	1	1	1	0	1	-67,794221	272,010708	242,609604	0
15.01.2021	02:22:05	0	0	4,293751	2,148	23,9832	-1,388	80,647	0	1008,96	4,5	6,9	6,8	1	1	1	1	1	1	1	1	1	0	1	-73,572939	272,056262	237,038871	0
15.01.2021	02:22:06	0	0	4,745753	2,05425	25,0344	-1,396	80,636	0	1008,8	4,5	6,9	6,7	1	1	1	1	1	1	1	1	1	0	1	-67,512333	271,950584	242,617141	0
15.01.2021	02:22:07	0	0	4,745725	1,95825	27,6732	-1,392	80,644	0	1008,66	4,4	6,9	6,8	1	1	1	1	1	1	1	1	1	0	1	-68,498943	272,073708	242,19255	0
15.01.2021	02:22:08	0	0	5,197699	1,83675	21,7764	-1,397	80,662	0	1008,88	4,5	6,9	6,8	1	1	1	1	1	1	1	1	1	0	1	-69,69697	272,034811	240,81689	0
15.01.2021	02:22:09	0	0	4,632759	1,82475	36,6192	-1,394	80,665	0	1008,84	4,5	6,9	6,7	1	1	1	1	1	1	1	1	1	0	1	-73,009161	271,946582	237,102059	0
15.01.2021	02:22:10	0	0	5,084705	1,8195	32,1624	-1,39	80,663	0	1008,94	4,5	6,9	6,8	1	1	1	1	1	1	1	1	1	0	1	-67,44186	271,898629	242,450686	0
15.01.2021	02:22:11	0	0	3,502818	1,73175	45,594	-1,39	80,678	0	1008,88	4,5	6,9	6,7	1	1	1	1	1	1	1	1	1	0	1	-73,784355	271,89996	236,114257	0
15.01.2021	02:22:12	0	0	4,632731	1,54725	45,1584	-1,4	80,689	0	1008,8	4,5	6,8	6,8	1	1	1	1	1	1	1	1	1	0	1	-68,287526	272,000006	242,067449	0
15.01.2021	02:22:13	0	0	4,971741	1,488	62,4312	-1,392	80,69	0	1008,82	4,4	6,9	6,7	1	1	1	1	1	1	1	1	1	0	1	-67,794221	271,88666	242,043761	0
15.01.2021	02:22:14	0	0	4,745753	1,4175	49,2048	-1,395	80,675	0	1008,88	4,5	6,9	6,7	1	1	1	1	1	1	1	1	1	0	1	-71,176885	272,037491	239,349211	0
15.01.2021	02:22:15	0	0	4,180783	1,50825	45,1656	-1,391	80,682	0	1008,86	4,5	6,8	6,7	1	1	1	1	1	1	1	1	1	0	1	-68,07611	271,95859	242,089883	0
15.01.2021	02:22:16	0	0	4,067788	1,614	51,5448	-1,39	80,698	0	1008,82	4,4	6,9	6,7	1	1	1	1	1	1	1	1	1	0	1	-67,159972	271,876026	242,629543	0
15.01.2021	02:22:17	0	0	4,406744	1,58175	58,8636	-1,393	80,675	0	1008,76	4,5	6,9	6,8	1	1	1	1	1	1	1	1	1	0	1	-67,935166	272,001343	242,425914	0
15.01.2021	02:22:18	0	0	4,180783	1,551	51,768	-1,399	80,685	0	1008,82	4,5	6,9	6,7	1	1	1	1	1	1	1	1	1	0	1	-67,44186	272,052238	243,151574	0
15.01.2021	02:22:19	0	0	3,27681	1,59	58,9644	-1,392	80,683	0	1008,88	4,5	6,9	6,8	1	1	1	1	1	1	1	1	1	0	1	-73,220578	271,925255	236,793372	0
15.01.2021	02:22:20	0	0	2,711859	1,62075	60,9516	-1,391	80,691	0	1008,82	4,5	6,9	6,7	1	1	1	1	1	1	1	1	1	0	1	-66,173362	272,008032	244,218248	0
15.01.2021	02:22:21	0	0	2,937847	1,61175	51,066	-1,395	80,688	0	1008,84	4,5	6,9	6,7	1	1	1	1	1	1	1	1	1	0	1	-69,06272	272,046874	241,50622	0
15.01.2021	02:22:22	0	0	3,389844	1,7175	37,6956	-1,39	80,686	0	1008,8	4,5	6,9	6,6	1	1	1	1	1	1	1	1	1	0	1	-67,44186	271,943915	242,657194	0
15.01.2021	02:22:23	0	0	4,858747	1,9305	45,6444	-1,392	80,683	0	1008,86	4,4	6,8	6,7	1	1	1	1	1	1	1	1	1	0	1	-72,515856	272,037491	238,01024	0
15.01.2021	02:22:24	0	0	4,293751	2,12625	45,54	-1,395	80,672	0	1008,8	4,5	6,9	6,8	1	1	1	1	1	1	1	1	1	0	1	-60,747005	271,92792	249,279097	0
15.01.2021	02:22:25	0	0	3,163835	2,22975	51,4476	-1,393	80,685	0	1008,96	4,5	6,9	6,7	1	1	1	1	1	1	1	1	1	0	1	-72,022551	271,930585	238,015704	0
15.01.2021	02:22:26	0	0	4,519792	2,3055	28,746	-1,391	80,667	0	1008,82	4,5	6,9	6,6	1	1	1	1	1	1	1	1	1	0	1	-66,173362	272,057603	244,444575	0
15.01.2021	02:22:27	0	0	4,632759	2,214	37,692	-1,399	80,663	0	1008,82	4,5	6,9	6,7	1	1	1	1	1	1	1	1	1	0	1	-66,948555	271,915932	243,02288	0
15.01.2021	02:22:28	0	0	3,8418	1,98075	42,6096	-1,395	80,673	0	1008,7	4,5	6,9	6,7	1	1	1	1	1	1	1	1	1	0	1	-68,992248	271,906613	240,936698	0
15.01.2021	02:22:29	0	0	3,728806	1,884	47,3616	-1,398	80,66	0	1008,74	4,5	6,9	6,7	1	1	1	1	1	1	1	1	1	0	1	-72,515856	272,006694	237,869646	0
15.01.2021	02:22:30	0	0	4,745753	1,99275	44,1036	-1,393	80,658	0	1008,82	4,5	6,8	6,7	1	1	1	1	1	1	1	1	1	0	1	-68,992248	271,877355	240,803324	0
15.01.2021	02:22:31	0	0	4,067788	2,17575	48,4956	-1,4	80,649	0	1008,8	4,5	6,8	6,7	1	1	1	1	1	1	1	1	1	0	1	-69,767442	272,014723	240,654711	0
15.01.2021	02:22:32	0	0	3,502818	2,3295	52,524	-1,396	80,636	0	1008,84	4,5	6,8	6,7	1	1	1	1	1	1	1	1	1	0	1	-70,824524	271,894639	239,04983	0
15.01.2021	02:22:33	0	0	2,937847	2,34075	32,5224	-1,399	80,638	0	1008,8	4,5	6,8	6,7	1	1	1	1	1	1	1	1	1	0	1	-67,371388	272,05492	243,234296	0
15.01.2021	02:22:34	0	0	4,180758	2,44725	38,5128	-1,403	80,629	0	1008,82	4,5	6,8	6,8	1	1	1	1	1	1	1	1	1	0	1	-70,401691	271,951918	239,733867	0
15.01.2021	02:22:35	0	0	2,711859	2,34375	30,3372	-1,398	80,642	0	1008,78	4,5	6,9	6,7	1	1	1	1	1	1	1	1	1	0	1	-66,45525	271,881342	243,358494	0
15.01.2021	02:22:36	0	0	4,180783	2,20875	42,2244	-1,406	80,629	0	1008,74	4,5	6,8	6,7	1	1	1	1	1	1	1	1	1	0	1	-68,005638	271,957255	242,154268	0
15.01.2021	02:22:37	0	0	4,745782	2,0655	46,2312	-1,397	80,618	0	1008,86	4,4	6,9	6,6	1	1	1	1	1	1	1	1	1	0	1	-71,035941	272,033472	239,471802	0
15.01.2021	02:22:38	0	0	4,745753	1,96575	43,3728	-1,398	80,619	0	1008,7	4,5	6,9	6,7	1	1	1	1	1	1	1	1	1	0	1	-69,767442	271,873369	240,009962	0
15.01.2021	02:22:39	0	0	4,067788	1,84875	54,7848	-1,4	80,608	0	1008,86	4,5	6,8	6,7	1	1	1	1	1	1	1	1	1	0	1	-67,512333	271,959924	242,659749	0
15.01.2021	02:22:40	0	0	3,050823	1,74375	27,9828	-1,399	80,594	0	1008,76	4,4	6,9	6,8	1	1	1	1	1	1	1	1	1	0	1	-70,331219	271,861415	239,391707	0
15.01.2021	02:22:41	0	0	4,406771	1,68825	21,1356	-1,397	80,602	0	1008,98	4,5	6,8	6,7	1	1	1	1	1	1	1	1	1	0	1	-69,415081	271,991983	240,903278	0
15.01.2021	02:22:42	0	0	4,180783	1,5735	34,7256	-1,397	80,594	0	1008,78	4,5	6,8	6,7	1	1	1	1	1	1	1	1	1	0	1	-67,935166	272,012047	242,474768	0
15.01.2021	02:22:43	0	0	2,937847	1,39575	65,4768	-1,403	80,582	0	1008,84	4,4	6,8	6,7	1	1	1	1	1	1	1	1	1	0	1	-72,445384	271,873369	237,332019	0
15.01.2021	02:22:44	0	0	2,824853	1,32975	65,466	-1,406	80,567	0	1008,66	4,5	6,9	6,7	1	1	1	1	1	1	1	1	1	0	1	-68,005638	271,943915	242,093417	0
15.01.2021	02:22:45	0	0	4,858747	1,28025	54,8064	-1,397	80,564	0	1009,02	4,5	6,9	6,7	1	1	1	1	1	1	1	1	1	0	1	-67,723749	271,870712	242,041545	0
15.01.2021	02:22:46	0	0	4,067788	1,3095	62,4348	-1,4	80,537	0	1008,9	4,5	6,8	6,7	1	1	1	1	1	1	1	1	1	0	1	-68,569415	272,016062	241,858848	0
15.01.2021	02:22:47	0	0	4,858747	1,3335	66,5316	-1,405	80,547	0	1008,72	4,5	6,8	6,7	1	1	1	1	1	1	1	1	1	0	1	-67,44186	272,037491	243,084236	0
15.01.2021	02:22:48	0	0	3,728806	1,368	62,064	-1,4	80,522	0	1008,7	4,5	6,8	6,7	1	1	1	1	1	1	1	1	1	0	1	-69,485553	272,012047	240,924381	0
15.01.2021	02:22:49	0	0	4,858747	1,37775	65,1024	-1,402	80,54	0	1008,74	4,5	6,9	6,7	1	1	1	1	1	1	1	1	1	0	1	-71,811135	271,897299	238,075347	0
15.01.2021	02:22:50	0	0	4,632759	1,35075	65,0844	-1,401	80,518	0	1008,6	4,5	6,8	6,7	1	1	1	1	1	1	1	1	1	0	1	-71,67019	272,036151	238,849788	0
15.01.2021	02:22:51	0	0	5,423718	1,3545	53,3304	-1,401	80,524	0	1008,9	4,5	6,8	6,7	1	1	1	1	1	1	1	1	1	0	1	-64,83439	271,97194	245,39251	0
15.01.2021	02:22:52	0	0	4,971741	1,3695	54,216	-1,404	80,523	0	1008,92	4,4	6,8	6,7	1	1	1	1	1	1	1	1	1	0	1	-68,921776	272,034811	241,592084	0
15.01.2021	02:22:53	0	0	2,598865	1,39425	55,5588	-1,405	80,517	0	1008,82	4,5	6,8	6,7	1	1	1	1	1	1	1	1	1	0	1	-70,049331	271,895969	239,831087	0
15.01.2021	02:22:54	0	0	3,615812	1,41225	46,2492	-1,404	80,522	0	1008,8	4,5	6,8	6,7	1	1	1	1	1	1	1	1	1	0	1	-66,737139	271,919927	243,252514	0
15.01.2021	02:22:55	0	0	4,745753	1,4745	67,3056	-1,401	80,52	0	1008,68	4,5	6,8	6,7	1	1	1	1	1	1	1	1	1	0	1	-71,106413	272,025434	239,364636	0
15.01.2021	02:22:56	0	0	3,8418	1,5315	48,2076	-1,406	80,514	0	1008,82	4,5	6,8	6,7	1	1	1	1	1	1	1	1	1	0	1	-70,824524	271,884001	239,001338	0
15.01.2021	02:22:57	0	0	2,824853	1,6095	52,8948	-1,4	80,523	0	1008,74	4,5	6,8	6,7	1	1	1	1	1	1	1	1	1	0	1	-69,908386	272,013385	240,507657	0
15.01.2021	02:22:58	0	0	2,937847	1,60425	58,4748	-1,407	80,522	0	1008,8	4,5	6,8	6,7	1	1	1	1	1	1	1	1	1	0	1	-68,639887	271,893308	241,228403	0
15.01.2021	02:22:59	0	0	4,971741	1,59	52,524	-1,402	80,541	0	1008,84	4,5	6,8	6,7	1	1	1	1	1	1	1	1	1	0	1	-67,582805	271,989309	242,723353	0
15.01.2021	02:23:00	0	0	2,937847	1,851	50,31	-1,402	80,551	0	1008,92	4,5	6,8	6,7	1	1	1	1	1	1	1	1	1	0	1	-66,948555	271,913269	243,010738	0
15.01.2021	02:23:01	0	0	2,937847	1,851	50,31	-1,402	80,551	0	1008,92	4,5	6,8	6,7	1	1	1	1	1	1	1	1	1	0	1	-66,948555	271,913269	243,010738	0
15.01.2021	02:23:02	0	0	3,728806	1,93275	51,0588	-1,404	80,538	0	1008,74	4,5	6,8	6,7	1	1	1	1	1	1	1	1	1	0	1	-72,445384	271,864071	237,289645	0
15.01.2021	02:23:03	0	0	3,27683	2,01825	51,5124	-1,401	80,562	0	1008,78	4,5	6,8	6,7	1	1	1	1	1	1	1	1	1	0	1	-69,69697	271,884001	240,128893	0
15.01.2021	02:23:04	0	0	2,937847	2,0505	50,6844	-1,4	80,562	0	1008,86	4,5	6,8	6,7	1	1	1	1	1	1	1	1	1	0	1	-72,30444	271,877355	237,491132	0
15.01.2021	02:23:05	0	0	3,050841	2,09625	60,9156	-1,403	80,57	0	1008,82	4,5	6,8	6,7	1	1	1	1	1	1	1	1	1	0	1	-71,317829	271,88533	238,514093	0
15.01.2021	02:23:06	0	0	2,711859	2,1765	58,14	-1,402	80,597	0	1008,72	4,4	6,8	6,7	1	1	1	1	1	1	1	1	1	0	1	-65,680056	271,99332	244,644404	0
15.01.2021	02:23:07	0	0	4,632759	2,07525	59,8536	-1,403	80,612	0	1008,82	4,5	6,8	6,7	1	1	1	1	1	1	1	1	1	0	1	-68,498943	272,038831	242,033273	0
15.01.2021	02:23:08	0	0	4,632759	1,98	68,4036	-1,406	80,62	0	1008,84	4,5	6,8	6,7	1	1	1	1	1	1	1	1	1	0	1	-68,07611	271,942582	242,016862	0
15.01.2021	02:23:09	0	0	3,050841	1,77975	54,8208	-1,401	80,651	0	1008,72	4,5	7	6,7	1	1	1	1	1	1	1	1	1	0	1	-68,921776	272,014723	241,500377	0
15.01.2021	02:23:10	0	0	4,858747	1,68675	63,5076	-1,406	80,656	0	1008,74	4,4	6,8	6,7	1	1	1	1	1	1	1	1	1	0	1	-72,093023	271,929252	237,939155	0
15.01.2021	02:23:11	0	0	2,598865	1,6005	73,0548	-1,408	80,674	0	1008,74	4,5	6,8	6,7	1	1	1	1	1	1	1	1	1	0	1	-67,371388	271,866727	242,375745	0
15.01.2021	02:23:12	0	0	3,615812	1,596	69,1776	-1,4	80,693	0	1008,86	4,5	7	6,7	1	1	1	1	1	1	1	1	1	0	1	-72,515856	271,853451	237,170775	0
15.01.2021	02:23:13	0	0	3,728806	1,56525	47,3652	-1,405	80,688	0	1008,92	4,5	6,8	6,7	1	1	1	1	1	1	1	1	1	0	1	-71,247357	271,963929	238,942993	0
15.01.2021	02:23:14	0	0	3,502818	1,54275	50,6844	-1,407	80,685	0	1008,9	4,5	7	6,7	1	1	1	1	1	1	1	1	1	0	1	-68,357999	271,842836	241,280268	0
15.01.2021	02:23:15	0	0	4,858747	1,5615	59,4936	-1,408	80,699	0	1008,78	4,5	6,8	6,7	1	1	1	1	1	1	1	1	1	0	1	-68,780832	271,880013	241,026855	0
15.01.2021	02:23:16	0	0	3,27683	1,55625	58,1004	-1,408	80,696	0	1008,7	4,5	6,8	6,7	1	1	1	1	1	1	1	1	1	0	1	-66,596195	271,861415	243,126732	0
15.01.2021	02:23:17	0	0	4,293777	1,50375	57,0456	-1,404	80,722	0	1008,84	4,5	7	6,7	1	1	1	1	1	1	1	1	1	0	1	-70,472163	271,929252	239,560015	0
15.01.2021	02:23:18	0	0	5,423718	1,461	51,0696	-1,407	80,707	0	1008,8	4,4	7	6,7	1	1	1	1	1	1	1	1	1	0	1	-67,864693	271,868055	241,888493	0
15.01.2021	02:23:19	0	0	4,519765	1,35975	61,3152	-1,402	80,718	0	1008,82	4,4	6,8	6,7	1	1	1	1	1	1	1	1	1	0	1	-70,401691	272,016062	240,026572	0
15.01.2021	02:23:20	0	0	5,310724	1,2165	57,7188	-1,404	80,708	0	1008,76	4,5	7	6,7	1	1	1	1	1	1	1	1	1	0	1	-68,992248	271,953252	241,149397	0
15.01.2021	02:23:21	0	0	3,8418	1,1265	74,1744	-1,401	80,715	0	1008,8	4,5	6,8	6,7	1	1	1	1	1	1	1	1	1	0	1	-68,921776	272,013385	241,494267	0
15.01.2021	02:23:22	0	0	3,050841	1,089	74,6172	-1,411	80,697	0	1008,7	4,4	6,8	6,7	1	1	1	1	1	1	1	1	1	0	1	-69,485553	271,877355	240,310019	0
15.01.2021	02:23:23	0	0	4,519765	1,0425	75,6216	-1,412	80,698	0	1008,78	4,4	6,8	6,7	1	1	1	1	1	1	1	1	1	0	1	-68,005638	271,957255	242,154268	0
15.01.2021	02:23:24	0	0	3,502818	1,038	60,5448	-1,404	80,681	0	1008,84	4,5	6,8	6,7	1	1	1	1	1	1	1	1	1	0	1	-69,837914	271,848142	239,824531	0
15.01.2021	02:23:25	0	0	4,406771	1,06425	54,6264	-1,408	80,687	0	1008,82	4,5	6,8	6,7	1	1	1	1	1	1	1	1	1	0	1	-70,894996	271,919927	239,094656	0
15.01.2021	02:23:26	0	0	2,824853	1,06125	47,3688	-1,407	80,685	0	1008,8	4,4	6,8	6,7	1	1	1	1	1	1	1	1	1	0	1	-70,331219	271,854778	239,36146	0
15.01.2021	02:23:27	0	0	4,067788	1,09425	49,9572	-1,402	80,687	0	1008,6	4,4	6,8	6,7	1	1	1	1	1	1	1	1	1	0	1	-68,710359	271,909275	241,230724	0
15.01.2021	02:23:28	0	0	5,084736	1,25175	50,6952	-1,406	80,675	0	1008,84	4,5	7	6,7	1	1	1	1	1	1	1	1	1	0	1	-67,794221	271,836205	241,813834	0
15.01.2021	02:23:29	0	0	4,971741	1,35075	47,7648	-1,41	80,675	0	1008,86	4,5	7	6,7	1	1	1	1	1	1	1	1	1	0	1	-70,401691	271,93325	239,64872	0
15.01.2021	02:23:30	0	0	3,163835	1,47825	61,3152	-1,407	80,674	0	1008,82	4,5	6,8	6,7	1	1	1	1	1	1	1	1	1	0	1	-68,851304	272,017401	241,58307	0
15.01.2021	02:23:31	0	0	4,180783	1,539	60,2424	-1,402	80,67	0	1008,8	4,5	6,8	6,7	1	1	1	1	1	1	1	1	1	0	1	-70,824524	271,994657	239,506038	0
15.01.2021	02:23:32	0	0	3,8418	1,587	52,146	-1,41	80,652	0	1008,76	4,4	6,8	6,7	1	1	1	1	1	1	1	1	1	0	1	-70,119803	271,962594	240,064457	0
15.01.2021	02:23:33	0	0	3,050841	1,6035	52,5204	-1,405	80,657	0	1008,9	4,5	6,8	6,7	1	1	1	1	1	1	1	1	1	0	1	-72,022551	271,840183	237,603629	0
15.01.2021	02:23:34	0	0	2,711859	1,56075	57,4128	-1,406	80,637	0	1008,86	4,4	7	6,7	1	1	1	1	1	1	1	1	1	0	1	-67,864693	271,887989	241,979349	0
15.01.2021	02:23:35	0	0	2,824853	1,5825	49,5792	-1,404	80,64	0	1008,8	4,5	7	6,7	1	1	1	1	1	1	1	1	1	0	1	-69,203665	271,99332	241,120796	0
15.01.2021	02:23:36	0	0	4,293777	1,54875	54,81	-1,404	80,634	0	1008,8	4,5	7	6,7	1	1	1	1	1	1	1	1	1	0	1	-68,217054	271,981291	242,052513	0
15.01.2021	02:23:37	0	0	3,050841	1,545	59,1084	-1,404	80,63	0	1008,88	4,5	6,8	6,7	1	1	1	1	1	1	1	1	1	0	1	-70,401691	271,898629	239,490855	0
15.01.2021	02:23:38	0	0	4,519765	1,473	54,7956	-1,403	80,62	0	1008,86	4,4	6,8	6,7	1	1	1	1	1	1	1	1	1	0	1	-69,908386	271,997331	240,434381	0
15.01.2021	02:23:39	0	0	4,519765	1,515	42,5844	-1,405	80,593	0	1008,78	4,4	7	6,7	1	1	1	1	1	1	1	1	1	0	1	-69,344609	271,962594	240,839651	0
15.01.2021	02:23:40	0	0	4,858747	1,5285	40,9968	-1,403	80,605	0	1008,92	4,5	6,8	6,7	1	1	1	1	1	1	1	1	1	0	1	-73,854827	271,834879	235,747187	0
15.01.2021	02:23:41	0	0	2,824853	1,5375	36,6228	-1,402	80,6	0	1008,8	4,4	6,8	6,7	1	1	1	1	1	1	1	1	1	0	1	-62,790698	271,981291	247,478869	0
15.01.2021	02:23:42	0	0	3,8418	1,575	31,0212	-1,404	80,597	0	1008,76	4,4	6,8	6,7	1	1	1	1	1	1	1	1	1	0	1	-71,529246	271,965264	238,667195	0
15.01.2021	02:23:43	0	0	4,067788	1,5645	31,86	-1,406	80,603	0	1008,86	4,4	6,8	6,7	1	1	1	1	1	1	1	1	1	0	1	-70,401691	272,012047	240,008243	0
15.01.2021	02:23:44	0	0	4,293777	1,635	36,9432	-1,402	80,587	0	1008,72	4,5	7	6,7	1	1	1	1	1	1	1	1	1	0	1	-68,710359	271,861415	241,012567	0
15.01.2021	02:23:45	0	0	3,8418	1,71525	38,4192	-1,403	80,62	0	1008,8	4,5	7	6,7	1	1	1	1	1	1	1	1	1	0	1	-75,828048	272,010708	234,575777	0
15.01.2021	02:23:46	0	0	4,971741	1,77825	42,2172	-1,408	80,595	0	1008,78	4,4	6,8	6,7	1	1	1	1	1	1	1	1	1	0	1	-70,542636	271,890649	239,31353	0
15.01.2021	02:23:47	0	0	4,971741	1,90125	36,2412	-1,404	80,616	0	1008,8	4,4	7	6,7	1	1	1	1	1	1	1	1	1	0	1	-69,203665	271,846816	240,452735	0
15.01.2021	02:23:48	0	0	4,180783	2,00025	45,5472	-1,406	80,636	0	1008,82	4,4	6,8	6,7	1	1	1	1	1	1	1	1	1	0	1	-67,723749	271,88533	242,108173	0
15.01.2021	02:23:49	0	0	3,8418	2,049	51,0696	-1,405	80,641	0	1008,72	4,4	6,9	6,7	1	1	1	1	1	1	1	1	1	0	1	-68,710359	272,006694	241,675143	0
15.01.2021	02:23:50	0	0	3,050841	2,04	37,3176	-1,408	80,665	0	1008,68	4,4	7	6,7	1	1	1	1	1	1	1	1	1	0	1	-71,811135	271,849469	237,857356	0
15.01.2021	02:23:51	0	0	3,728806	2,031	42,9984	-1,408	80,67	0	1008,8	4,4	6,8	6,7	1	1	1	1	1	1	1	1	1	0	1	-66,948555	271,965264	243,247885	0
15.01.2021	02:23:52	0	0	4,180783	1,95225	42,6096	-1,406	80,687	0	1008,88	4,4	6,8	6,7	1	1	1	1	1	1	1	1	1	0	1	-68,005638	271,991983	242,312721	0
15.01.2021	02:23:53	0	0	4,858747	1,971	35,1036	-1,406	80,699	0	1008,82	4,4	7	6,7	1	1	1	1	1	1	1	1	1	0	1	-70,542636	271,902621	239,368108	0
15.01.2021	02:23:54	0	0	2,824853	1,998	41,5584	-1,405	80,733	0	1008,84	4,5	6,8	6,7	1	1	1	1	1	1	1	1	1	0	1	-67,794221	271,846816	241,862178	0
15.01.2021	02:23:55	0	0	3,27683	1,9785	39,8772	-1,408	80,744	0	1008,7	4,4	7	6,7	1	1	1	1	1	1	1	1	1	0	1	-66,384778	271,941248	243,702113	0
15.01.2021	02:23:56	0	0	3,050841	1,9725	47,376	-1,408	80,778	0	1008,74	4,4	6,9	6,7	1	1	1	1	1	1	1	1	1	0	1	-68,780832	272,00937	241,616886	0
15.01.2021	02:23:57	0	0	3,502818	1,85175	46,224	-1,409	80,798	0	1008,76	4,4	6,9	6,7	1	1	1	1	1	1	1	1	1	0	1	-66,314306	271,877355	243,481266	0
15.01.2021	02:23:58	0	0	3,163835	1,84875	39,5604	-1,408	80,819	0	1008,8	4,4	6,9	6,7	1	1	1	1	1	1	1	1	1	0	1	-72,515856	271,977283	237,735422	0
15.01.2021	02:23:59	0	0	4,406771	1,79775	43,6608	-1,398	80,843	0	1008,86	4,4	7	6,7	1	1	1	1	1	1	1	1	1	0	1	-66,948555	271,852123	242,732029	0
15.01.2021	02:24:00	0	0	3,050841	1,68225	36,6408	-1,405	80,911	0	1008,72	4,4	6,8	6,7	1	1	1	1	1	1	1	1	1	0	1	-68,569415	271,830901	241,01448	0
15.01.2021	02:24:01	0	0	4,858747	1,6815	37,3212	-1,401	80,92	0	1008,78	4,4	7	6,7	1	1	1	1	1	1	1	1	1	0	1	-70,472163	271,894639	239,40219	0
15.01.2021	02:24:02	0	0	4,858747	1,6815	37,3212	-1,401	80,92	0	1008,78	4,4	7	6,7	1	1	1	1	1	1	1	1	1	0	1	-70,472163	271,894639	239,40219	0
15.01.2021	02:24:03	0	0	2,711859	1,6995	37,7028	-1,397	80,94	0	1008,78	4,4	6,9	6,7	1	1	1	1	1	1	1	1	1	0	1	-67,935166	272,001343	242,425914	0
15.01.2021	02:24:04	0	0	2,937847	1,83	35,8704	-1,395	80,95	0	1008,82	4,4	6,9	6,7	1	1	1	1	1	1	1	1	1	0	1	-74,27766	271,872041	235,493688	0
15.01.2021	02:24:05	0	0	4,971741	2,013	35,8704	-1,406	80,953	0	1008,84	4,4	7	6,7	1	1	1	1	1	1	1	1	1	0	1	-68,851304	271,943915	241,247751	0
15.01.2021	02:24:06	0	0	3,954794	2,12925	48,1356	-1,404	80,969	0	1008,82	4,4	6,8	6,7	1	1	1	1	1	1	1	1	1	0	1	-71,529246	271,845489	238,121109	0
15.01.2021	02:24:07	0	0	4,406771	2,1405	44,4024	-1,398	80,968	0	1008,88	4,4	6,9	6,7	1	1	1	1	1	1	1	1	1	0	1	-66,243834	271,89996	243,654778	0
15.01.2021	02:24:08	0	0	3,27683	2,175	46,9872	-1,401	80,97	0	1008,86	4,4	6,9	6,7	1	1	1	1	1	1	1	1	1	0	1	-69,415081	271,82825	240,156737	0
15.01.2021	02:24:09	0	0	4,632759	2,259	36,9396	-1,398	80,989	0	1008,84	4,4	6,9	6,7	1	1	1	1	1	1	1	1	1	0	1	-71,881607	271,889319	237,968497	0
15.01.2021	02:24:10	0	0	2,937847	2,325	41,8536	-1,399	80,986	0	1008,84	4,4	6,9	6,7	1	1	1	1	1	1	1	1	1	0	1	-69,908386	271,846816	239,748013	0
15.01.2021	02:24:11	0	0	3,954794	2,31675	36,6192	-1,395	80,991	0	1008,96	4,4	6,9	6,7	1	1	1	1	1	1	1	1	1	0	1	-63,988724	271,97194	246,238176	0
15.01.2021	02:24:12	0	0	4,293777	2,337	40,6224	-1,402	80,976	0	1008,66	4,4	6,9	6,7	1	1	1	1	1	1	1	1	1	0	1	-66,102889	272,006694	244,282613	0
15.01.2021	02:24:13	0	0	5,7627	2,3895	39,564	-1,402	80,977	0	1008,74	4,4	6,9	6,7	1	1	1	1	1	1	1	1	1	0	1	-67,300916	271,995994	243,035749	0
15.01.2021	02:24:14	0	0	4,519765	2,28075	28,3536	-1,399	80,994	0	1008,82	4,4	7	6,7	1	1	1	1	1	1	1	1	1	0	1	-69,415081	271,918595	240,568499	0
15.01.2021	02:24:15	0	0	3,615812	2,20125	45,5328	-1,405	80,989	0	1008,8	4,4	6,9	6,7	1	1	1	1	1	1	1	1	1	0	1	-68,921776	272,005356	241,45762	0
15.01.2021	02:24:16	0	0	4,067788	2,145	46,9908	-1,406	80,986	0	1008,84	4,4	6,9	6,7	1	1	1	1	1	1	1	1	1	0	1	-71,317829	271,845489	238,332525	0
15.01.2021	02:24:17	0	0	3,615812	2,13825	40,3236	-1,396	80,998	0	1008,86	4,4	6,9	6,7	1	1	1	1	1	1	1	1	1	0	1	-68,005638	271,947916	242,111667	0
15.01.2021	02:24:18	0	0	4,971741	2,21325	39,5496	-1,399	80,978	0	1008,72	4,4	6,9	6,7	1	1	1	1	1	1	1	1	1	0	1	-64,693446	271,994657	245,637116	0
15.01.2021	02:24:19	0	0	4,180783	2,20725	48,8232	-1,395	81,005	0	1008,76	4,4	6,9	6,7	1	1	1	1	1	1	1	1	1	0	1	-68,005638	271,891979	241,85659	0
15.01.2021	02:24:20	0	0	4,858747	2,1435	48,816	-1,402	81	0	1008,8	4,4	6,8	6,7	1	1	1	1	1	1	1	1	1	0	1	-67,159972	272,016062	243,268291	0
15.01.2021	02:24:21	0	0	3,050841	2,06325	44,7696	-1,39	81	0	1008,72	4,4	6,9	6,7	1	1	1	1	1	1	1	1	1	0	1	-71,599718	271,997331	238,74305	0
15.01.2021	02:24:22	0	0	2,824853	1,989	40,2444	-1,394	80,993	0	1008,8	4,4	6,9	6,7	1	1	1	1	1	1	1	1	1	0	1	-66,243834	271,947916	243,873471	0
15.01.2021	02:24:23	0	0	3,27683	1,9125	37,3284	-1,399	81,005	0	1008,76	4,4	6,9	6,7	1	1	1	1	1	1	1	1	1	0	1	-69,415081	271,845489	240,235274	0
15.01.2021	02:24:24	0	0	3,8418	1,7895	17,6976	-1,392	81,002	0	1008,9	4,4	6,9	6,7	1	1	1	1	1	1	1	1	1	0	1	-70,754052	271,910606	239,193101	0
15.01.2021	02:24:25	0	0	4,745753	1,758	39,1824	-1,395	81,007	0	1008,98	4,4	6,9	6,7	1	1	1	1	1	1	1	1	1	0	1	-70,824524	271,849469	238,843966	0
15.01.2021	02:24:26	0	0	3,163835	1,62525	34,3368	-1,39	81,002	0	1008,8	4,4	6,9	6,7	1	1	1	1	1	1	1	1	1	0	1	-66,032417	271,870712	243,732877	0
15.01.2021	02:24:27	0	0	4,745753	1,52175	29,97	-1,4	80,997	0	1008,72	4,4	6,9	6,7	1	1	1	1	1	1	1	1	1	0	1	-66,314306	271,95859	243,851687	0
15.01.2021	02:24:28	0	0	3,954794	1,4715	46,9836	-1,392	80,997	0	1008,94	4,4	6,9	6,7	1	1	1	1	1	1	1	1	1	0	1	-73,150106	272,008032	237,241504	0
15.01.2021	02:24:29	0	0	2,824853	1,37325	45,8388	-1,395	81,01	0	1008,88	4,4	6,9	6,7	1	1	1	1	1	1	1	1	1	0	1	-64,270613	271,94925	245,852776	0
15.01.2021	02:24:30	0	0	4,067788	1,278	48,5172	-1,394	80,987	0	1008,66	4,4	6,9	6,7	1	1	1	1	1	1	1	1	1	0	1	-68,710359	272,018739	241,730125	0
15.01.2021	02:24:31	0	0	4,632759	1,1625	54,108	-1,395	81,007	0	1008,8	4,4	6,9	6,7	1	1	1	1	1	1	1	1	1	0	1	-70,542636	271,954586	239,605095	0
15.01.2021	02:24:32	0	0	3,8418	1,12875	51,0552	-1,392	81	0	1008,72	4,4	6,9	6,7	1	1	1	1	1	1	1	1	1	0	1	-69,415081	271,894639	240,459273	0
15.01.2021	02:24:33	0	0	4,858747	1,07025	41,4792	-1,389	80,991	0	1008,66	4,4	6,9	6,7	1	1	1	1	1	1	1	1	1	0	1	-70,331219	272,016062	240,097044	0
15.01.2021	02:24:34	0	0	3,050841	1,0635	38,8116	-1,39	80,984	0	1008,82	4,4	6,9	6,7	1	1	1	1	1	1	1	1	1	0	1	-63,072586	271,929252	246,959592	0
15.01.2021	02:24:35	0	0	4,858747	1,10625	37,7712	-1,389	80,996	0	1008,8	4,4	6,9	6,7	1	1	1	1	1	1	1	1	1	0	1	-69,415081	271,99332	240,909379	0
15.01.2021	02:24:36	0	0	4,067788	1,21875	32,9004	-1,387	80,994	0	1008,92	4,4	6,9	6,7	1	1	1	1	1	1	1	1	1	0	1	-65,680056	271,942582	244,412916	0
15.01.2021	02:24:37	0	0	4,632759	1,24875	41,022	-1,388	80,994	0	1008,76	4,4	6,9	6,7	1	1	1	1	1	1	1	1	1	0	1	-70,542636	272,005356	239,83676	0
15.01.2021	02:24:38	0	0	2,937847	1,275	46,2276	-1,385	81	0	1008,84	4,4	6,9	6,7	1	1	1	1	1	1	1	1	1	0	1	-64,622974	271,88533	245,208948	0
15.01.2021	02:24:39	0	0	4,519765	1,3275	37,3248	-1,39	80,999	0	1008,74	4,4	6,9	6,7	1	1	1	1	1	1	1	1	1	0	1	-68,428471	271,881342	241,385274	0
15.01.2021	02:24:40	0	0	2,598865	1,35975	36,9324	-1,39	80,996	0	1008,84	4,4	6,9	6,7	1	1	1	1	1	1	1	1	1	0	1	-69,415081	271,998668	240,93379	0
15.01.2021	02:24:41	0	0	2,824853	1,32825	38,07	-1,39	80,992	0	1008,82	4,4	6,9	6,7	1	1	1	1	1	1	1	1	1	0	1	-66,102889	271,93325	243,947522	0
15.01.2021	02:24:42	0	0	3,954771	1,317	35,1072	-1,386	80,988	0	1008,74	4,4	6,9	6,8	1	1	1	1	1	1	1	1	1	0	1	-69,203665	272,012047	241,206269	0
15.01.2021	02:24:43	0	0	3,502818	1,28175	34,344	-1,392	81,003	0	1008,76	4,4	6,9	6,7	1	1	1	1	1	1	1	1	1	0	1	-69,203665	271,92792	240,822437	0
15.01.2021	02:24:44	0	0	2,372862	1,305	25,4376	-1,387	80,995	0	1008,82	4,4	6,9	6,8	1	1	1	1	1	1	1	1	1	0	1	-69,415081	272,004019	240,958209	0
15.01.2021	02:24:45	0	0	5,084736	1,3155	23,9904	-1,388	80,987	0	1008,76	4,4	6,9	6,7	1	1	1	1	1	1	1	1	1	0	1	-72,868217	271,939915	237,212592	0
15.01.2021	02:24:46	0	0	3,841823	1,28925	26,1792	-1,387	80,998	0	1008,84	4,4	6,9	6,6	1	1	1	1	1	1	1	1	1	0	1	-72,445384	272,008032	237,946226	0
15.01.2021	02:24:47	0	0	3,728828	1,28625	31,0428	-1,386	80,989	0	1008,8	4,4	6,9	6,6	1	1	1	1	1	1	1	1	1	0	1	-68,639887	271,967934	241,568736	0
15.01.2021	02:24:48	0	0	2,824836	1,2345	36,6372	-1,38	80,994	0	1008,88	4,4	6,9	6,8	1	1	1	1	1	1	1	1	1	0	1	-70,472163	271,965264	239,724277	0
15.01.2021	02:24:49	0	0	3,728784	1,278	31,0284	-1,39	80,961	0	1008,74	4,4	6,9	6,8	1	1	1	1	1	1	1	1	1	0	1	-67,723749	271,870712	242,041545	0
15.01.2021	02:24:50	0	0	2,937847	1,2945	40,6224	-1,381	80,991	0	1008,8	4,4	6,9	6,7	1	1	1	1	1	1	1	1	1	0	1	-71,811135	271,898629	238,081412	0
15.01.2021	02:24:51	0	0	3,050823	1,287	35,4744	-1,38	80,979	0	1008,74	4,4	6,9	6,8	1	1	1	1	1	1	1	1	1	0	1	-66,737139	272,018739	243,703346	0
15.01.2021	02:24:52	0	0	4,858747	1,446	33,6492	-1,384	80,958	0	1008,7	4,4	6,9	6,7	1	1	1	1	1	1	1	1	1	0	1	-71,176885	271,942582	238,916087	0
15.01.2021	02:24:53	0	0	4,293777	1,60875	28,728	-1,381	80,974	0	1008,76	4,4	6,9	6,7	1	1	1	1	1	1	1	1	1	0	1	-69,908386	272,006694	240,477116	0
15.01.2021	02:24:54	0	0	4,745753	1,6545	42,6096	-1,383	80,979	0	1008,84	4,4	6,9	6,7	1	1	1	1	1	1	1	1	1	0	1	-68,851304	271,893308	241,016987	0
15.01.2021	02:24:55	0	0	3,954818	1,72725	38,4336	-1,383	80,972	0	1008,76	4,4	6,9	6,6	1	1	1	1	1	1	1	1	1	0	1	-67,019027	271,986636	243,274931	0
15.01.2021	02:24:56	0	0	3,615812	1,8765	37,6956	-1,386	80,963	0	1008,8	4,4	6,9	6,7	1	1	1	1	1	1	1	1	1	0	1	-65,821001	272,008032	244,570609	0
15.01.2021	02:24:57	0	0	3,163835	2,11725	39,4704	-1,379	80,959	0	1008,76	4,4	6,9	6,7	1	1	1	1	1	1	1	1	1	0	1	-69,06272	271,848142	240,599725	0
15.01.2021	02:24:58	0	0	4,632787	2,35275	49,9716	-1,381	80,957	0	1008,84	4,4	6,9	6,6	1	1	1	1	1	1	1	1	1	0	1	-65,539112	271,994657	244,79145	0
15.01.2021	02:24:59	0	0	4,519738	2,48925	45,1692	-1,379	80,945	0	1008,68	4,4	6,9	6,8	1	1	1	1	1	1	1	1	1	0	1	-75,334743	271,826925	234,231038	0
15.01.2021	02:25:00	0	0	2,598865	2,4855	35,5284	-1,381	80,968	0	1008,86	4,4	6,8	6,7	1	1	1	1	1	1	1	1	1	0	1	-65,398168	271,981291	244,871399	0
15.01.2021	02:25:01	0	0	2,598865	2,4855	35,5284	-1,381	80,968	0	1008,86	4,4	6,8	6,7	1	1	1	1	1	1	1	1	1	0	1	-65,398168	271,981291	244,871399	0
15.01.2021	02:25:02	0	0	4,745782	2,50275	47,7432	-1,382	80,941	0	1008,7	4,4	6,9	6,6	1	1	1	1	1	1	1	1	1	0	1	-69,908386	271,989309	240,397772	0
15.01.2021	02:25:03	0	0	4,632759	2,46675	56,3112	-1,379	80,949	0	1008,86	4,4	6,8	6,7	1	1	1	1	1	1	1	1	1	0	1	-67,300916	271,891979	242,561312	0
15.01.2021	02:25:04	0	0	3,389803	2,721	45,8424	-1,378	80,955	0	1008,84	4,4	6,9	6,8	1	1	1	1	1	1	1	1	1	0	1	-70,894996	272,002681	239,472188	0
15.01.2021	02:25:05	0	0	3,389844	2,8095	48,8268	-1,377	80,958	0	1008,88	4,4	6,8	6,6	1	1	1	1	1	1	1	1	1	0	1	-71,035941	271,986636	239,258018	0
15.01.2021	02:25:06	0	0	2,711859	2,709	42,9192	-1,38	80,954	0	1008,68	4,4	6,9	6,7	1	1	1	1	1	1	1	1	1	0	1	-68,146582	271,849469	241,521909	0
15.01.2021	02:25:07	0	0	3,27683	2,6655	45,5436	-1,378	80,949	0	1008,78	4,4	6,8	6,7	1	1	1	1	1	1	1	1	1	0	1	-71,247357	271,906613	238,681589	0
15.01.2021	02:25:08	0	0	3,728806	2,66175	43,0056	-1,378	80,948	0	1008,86	4,4	6,8	6,7	1	1	1	1	1	1	1	1	1	0	1	-70,68358	271,978618	239,573794	0
15.01.2021	02:25:09	0	0	5,084705	2,559	40,6476	-1,375	80,98	0	1008,9	4,4	6,8	6,8	1	1	1	1	1	1	1	1	1	0	1	-65,045807	271,829576	244,532049	0
15.01.2021	02:25:10	0	0	4,632787	2,586	41,4576	-1,374	81,003	0	1008,68	4,4	6,8	6,6	1	1	1	1	1	1	1	1	1	0	1	-68,780832	271,890649	241,075334	0
15.01.2021	02:25:11	0	0	2,824853	2,80275	35,4744	-1,376	81,031	0	1008,78	4,4	6,8	6,7	1	1	1	1	1	1	1	1	1	0	1	-72,233968	271,995994	238,102697	0
15.01.2021	02:25:12	0	0	4,180783	2,8425	36,9504	-1,379	81,064	0	1008,94	4,4	6,9	6,7	1	1	1	1	1	1	1	1	1	0	1	-66,737139	271,911937	243,216084	0
15.01.2021	02:25:13	0	0	4,519765	2,7975	51,4368	-1,378	81,091	0	1008,82	4,4	6,8	6,7	1	1	1	1	1	1	1	1	1	0	1	-65,961945	271,833553	243,634029	0
15.01.2021	02:25:14	0	0	3,8418	2,52975	32,5152	-1,383	81,105	0	1008,76	4,4	6,8	6,7	1	1	1	1	1	1	1	1	1	0	1	-67,582805	271,85876	242,128021	0
15.01.2021	02:25:15	0	0	3,163835	2,313	29,9592	-1,376	81,123	0	1008,8	4,4	6,8	6,7	1	1	1	1	1	1	1	1	1	0	1	-64,975335	271,844162	244,668976	0
15.01.2021	02:25:16	0	0	3,502818	2,2935	32,166	-1,377	81,127	0	1008,78	4,4	6,8	6,7	1	1	1	1	1	1	1	1	1	0	1	-67,230444	271,868055	242,522742	0
15.01.2021	02:25:17	0	0	3,615812	2,15025	20,646	-1,375	81,122	0	1008,8	4,4	6,8	6,7	1	1	1	1	1	1	1	1	1	0	1	-68,569415	271,907944	241,365599	0
15.01.2021	02:25:18	0	0	3,27683	1,9845	22,0968	-1,377	81,155	0	1008,86	4,4	7	6,7	1	1	1	1	1	1	1	1	1	0	1	-68,357999	272,030792	242,137511	0
15.01.2021	02:25:19	0	0	4,632759	1,97625	34,722	-1,383	81,16	0	1008,82	4,4	6,8	6,7	1	1	1	1	1	1	1	1	1	0	1	-66,314306	271,890649	243,54186	0
15.01.2021	02:25:20	0	0	3,954794	2,076	33,9732	-1,372	81,157	0	1008,9	4,4	6,9	6,7	1	1	1	1	1	1	1	1	1	0	1	-68,005638	271,978618	242,251736	0
15.01.2021	02:25:21	0	0	4,406771	2,1675	25,434	-1,374	81,171	0	1008,94	4,4	7	6,7	1	1	1	1	1	1	1	1	1	0	1	-71,106413	272,029453	239,38298	0
15.01.2021	02:25:22	0	0	3,050841	2,13525	42,2208	-1,375	81,172	0	1008,6	4,4	7	6,7	1	1	1	1	1	1	1	1	1	0	1	-71,458774	271,902621	238,45197	0
15.01.2021	02:25:23	0	0	3,615812	1,9995	31,7808	-1,37	81,186	0	1008,8	4,4	7	6,7	1	1	1	1	1	1	1	1	1	0	1	-69,837914	271,861415	239,885012	0
15.01.2021	02:25:24	0	0	3,615812	1,84725	38,0844	-1,374	81,185	0	1008,8	4,4	6,8	6,7	1	1	1	1	1	1	1	1	1	0	1	-68,287526	271,973275	241,945468	0
15.01.2021	02:25:25	0	0	5,084736	1,77975	14,3136	-1,365	81,218	0	1008,82	4,4	6,8	6,7	1	1	1	1	1	1	1	1	1	0	1	-71,529246	271,864071	238,205783	0
15.01.2021	02:25:26	0	0	4,293777	1,70325	20,6388	-1,369	81,219	0	1008,84	4,4	6,8	6,7	1	1	1	1	1	1	1	1	1	0	1	-69,274137	271,937249	240,794512	0
15.01.2021	02:25:27	0	0	2,485871	1,5855	13,554	-1,365	81,248	0	1009	4,4	6,8	6,7	1	1	1	1	1	1	1	1	1	0	1	-69,274137	272,024095	241,190798	0
15.01.2021	02:25:28	0	0	4,519765	1,57875	36,252	-1,366	81,259	0	1008,8	4,5	6,8	6,7	1	1	1	1	1	1	1	1	1	0	1	-73,361522	272,012047	237,048412	0
15.01.2021	02:25:29	0	0	2,598865	1,64325	43,6716	-1,368	81,274	0	1008,66	4,4	6,8	6,7	1	1	1	1	1	1	1	1	1	0	1	-72,163495	272,004019	238,209795	0
15.01.2021	02:25:30	0	0	4,406771	1,5795	36,9396	-1,367	81,293	0	1008,86	4,4	6,8	6,7	1	1	1	1	1	1	1	1	1	0	1	-68,710359	272,033472	241,797383	0
15.01.2021	02:25:31	0	0	5,536712	1,51125	46,9692	-1,365	81,287	0	1008,68	4,4	6,8	6,7	1	1	1	1	1	1	1	1	1	0	1	-69,69697	271,963929	240,49338	0
15.01.2021	02:25:32	0	0	3,502818	1,428	58,8708	-1,365	81,305	0	1008,88	4,5	6,8	6,7	1	1	1	1	1	1	1	1	1	0	1	-70,68358	272,036151	239,836398	0
15.01.2021	02:25:33	0	0	4,745753	1,36125	40,2516	-1,358	81,299	0	1008,86	4,4	6,8	6,7	1	1	1	1	1	1	1	1	1	0	1	-69,626498	271,973275	240,606497	0
15.01.2021	02:25:34	0	0	3,389824	1,4115	39,1788	-1,361	81,311	0	1008,86	4,5	6,8	6,7	1	1	1	1	1	1	1	1	1	0	1	-70,260747	272,028113	240,222531	0
15.01.2021	02:25:35	0	0	2,259882	1,5	35,8704	-1,363	81,306	0	1008,72	4,5	6,8	6,7	1	1	1	1	1	1	1	1	1	0	1	-65,398168	271,913269	244,561125	0
15.01.2021	02:25:36	0	0	3,050841	1,6065	35,4996	-1,356	81,312	0	1008,86	4,5	7	6,7	1	1	1	1	1	1	1	1	1	0	1	-70,824524	271,99332	239,499936	0
15.01.2021	02:25:37	0	0	4,293777	1,63275	31,7952	-1,359	81,298	0	1008,8	4,4	7	6,7	1	1	1	1	1	1	1	1	1	0	1	-67,794221	272,060287	242,835969	0
15.01.2021	02:25:38	0	0	4,519765	1,58175	27,9612	-1,36	81,309	0	1008,8	4,5	7	6,7	1	1	1	1	1	1	1	1	1	0	1	-67,582805	271,955921	242,571013	0
15.01.2021	02:25:39	0	0	2,711859	1,65	17,2404	-1,351	81,3	0	1008,88	4,5	7	6,7	1	1	1	1	1	1	1	1	1	0	1	-74,066244	272,049556	236,514943	0
15.01.2021	02:25:40	0	0	2,824853	1,78275	17,244	-1,355	81,293	0	1008,78	4,5	6,8	6,7	1	1	1	1	1	1	1	1	1	0	1	-66,737139	271,902621	243,173605	0
15.01.2021	02:25:41	0	0	2,598865	1,974	360	-1,351	81,286	0	1008,76	4,5	7	6,7	1	1	1	1	1	1	1	1	1	0	1	-69,203665	271,997331	241,139103	0
15.01.2021	02:25:42	0	0	3,615812	2,01075	9,3636	-1,351	81,294	0	1008,88	4,5	7	6,7	1	1	1	1	1	1	1	1	1	0	1	-68,428471	271,890649	241,427695	0
15.01.2021	02:25:43	0	0	3,615812	1,9215	40,2588	-1,357	81,27	0	1008,66	4,4	7	6,7	1	1	1	1	1	1	1	1	1	0	1	-63,495419	271,95859	246,670574	0
15.01.2021	02:25:44	0	0	3,954794	2,15325	46,9656	-1,35	81,275	0	1008,92	4,5	6,8	6,7	1	1	1	1	1	1	1	1	1	0	1	-66,807611	272,05492	243,798073	0
15.01.2021	02:25:45	0	0	3,615812	2,262	32,8896	-1,353	81,271	0	1008,88	4,4	7	6,7	1	1	1	1	1	1	1	1	1	0	1	-70,894996	271,959924	239,277085	0
15.01.2021	02:25:46	0	0	2,824853	2,343	42,93	-1,346	81,252	0	1008,72	4,5	7	6,7	1	1	1	1	1	1	1	1	1	0	1	-71,529246	272,068338	239,13772	0
15.01.2021	02:25:47	0	0	4,632759	2,25675	45,1656	-1,357	81,243	0	1008,84	4,5	7	6,7	1	1	1	1	1	1	1	1	1	0	1	-66,666667	271,986636	243,627292	0
15.01.2021	02:25:48	0	0	4,180783	2,12025	26,604	-1,35	81,23	0	1008,82	4,5	7	6,7	1	1	1	1	1	1	1	1	1	0	1	-67,0895	271,893308	242,778791	0
15.01.2021	02:25:49	0	0	4,971741	1,938	32,508	-1,344	81,234	0	1008,84	4,5	7	6,7	1	1	1	1	1	1	1	1	1	0	1	-69,556025	272,06297	241,086422	0
15.01.2021	02:25:50	0	0	3,27683	1,92675	35,856	-1,348	81,22	0	1008,8	4,5	7	6,7	1	1	1	1	1	1	1	1	1	0	1	-70,260747	272,022756	240,198075	0
15.01.2021	02:25:51	0	0	3,728806	2,058	29,574	-1,349	81,222	0	1008,8	4,5	7	6,7	1	1	1	1	1	1	1	1	1	0	1	-64,48203	272,049556	246,099157	0
15.01.2021	02:25:52	0	0	2,485871	2,04075	41,0004	-1,347	81,197	0	1008,82	4,4	7	6,7	1	1	1	1	1	1	1	1	1	0	1	-67,300916	271,923923	242,706959	0
15.01.2021	02:25:53	0	0	2,937847	2,0625	17,7012	-1,35	81,184	0	1008,86	4,5	7	6,7	1	1	1	1	1	1	1	1	1	0	1	-65,398168	272,040172	245,140167	0
15.01.2021	02:25:54	0	0	3,615812	1,99875	42,6096	-1,35	81,179	0	1008,9	4,4	7	6,7	1	1	1	1	1	1	1	1	1	0	1	-68,921776	271,926587	241,09825	0
15.01.2021	02:25:55	0	0	4,745753	2,0025	39,5676	-1,345	81,178	0	1008,72	4,5	7	6,7	1	1	1	1	1	1	1	1	1	0	1	-70,190275	272,040172	240,34806	0
15.01.2021	02:25:56	0	0	2,485871	1,95975	40,6368	-1,342	81,176	0	1009	4,5	7	6,7	1	1	1	1	1	1	1	1	1	0	1	-65,398168	271,882672	244,421635	0
15.01.2021	02:25:57	0	0	4,745753	1,866	42,6096	-1,34	81,166	0	1008,88	4,5	6,9	6,7	1	1	1	1	1	1	1	1	1	0	1	-70,613108	271,951918	239,522451	0
15.01.2021	02:25:58	0	0	4,519765	1,764	37,3212	-1,345	81,168	0	1008,78	4,5	7	6,7	1	1	1	1	1	1	1	1	1	0	1	-68,428471	271,915932	241,542965	0
15.01.2021	02:25:59	0	0	3,502818	1,578	64,6452	-1,346	81,133	0	1008,78	4,5	7	6,7	1	1	1	1	1	1	1	1	1	0	1	-65,327696	271,891979	244,534532	0
15.01.2021	02:26:00	0	0	4,293802	1,39125	60,2568	-1,344	81,147	0	1008,8	4,5	6,9	6,6	1	1	1	1	1	1	1	1	1	0	1	-68,921776	271,950584	241,207698	0
15.01.2021	02:26:01	0	0	4,293802	1,39125	60,2568	-1,344	81,147	0	1008,8	4,5	6,9	6,6	1	1	1	1	1	1	1	1	1	0	1	-72,515856	272,060287	238,114334	0
15.01.2021	02:26:02	0	0	4,293802	1,27275	65,0844	-1,347	81,127	0	1008,74	4,5	7	6,6	1	1	1	1	1	1	1	1	1	0	1	-70,542636	271,977283	239,708643	0
15.01.2021	02:26:03	0	0	3,050841	1,17975	49,572	-1,344	81,135	0	1008,86	4,4	6,9	6,7	1	1	1	1	1	1	1	1	1	0	1	-69,344609	272,056262	241,267201	0
15.01.2021	02:26:04	0	0	5,084736	1,15425	32,5044	-1,343	81,123	0	1008,88	4,4	7	6,7	1	1	1	1	1	1	1	1	1	0	1	-72,233968	272,026774	238,243195	0
15.01.2021	02:26:05	0	0	2,82487	1,2225	37,3212	-1,339	81,118	0	1008,84	4,4	6,9	6,6	1	1	1	1	1	1	1	1	1	0	1	-70,68358	272,038831	239,848636	0
15.01.2021	02:26:06	0	0	5,310756	1,29	38,4156	-1,348	81,099	0	1008,56	4,4	6,9	6,6	1	1	1	1	1	1	1	1	1	0	1	-71,740662	272,049556	238,840524	0
15.01.2021	02:26:07	0	0	3,05086	1,44	44,3988	-1,345	81,075	0	1008,8	4,4	6,9	6,6	1	1	1	1	1	1	1	1	1	0	1	-67,371388	272,038831	243,160827	0
15.01.2021	02:26:08	0	0	2,259896	1,52175	44,406	-1,347	81,089	0	1008,74	4,4	6,9	6,6	1	1	1	1	1	1	1	1	1	0	1	-69,485553	271,929252	240,546625	0
15.01.2021	02:26:09	0	0	2,59888	1,60275	58,1184	-1,336	81,09	0	1008,74	4,4	7	6,6	1	1	1	1	1	1	1	1	1	0	1	-67,864693	271,89996	242,033919	0
15.01.2021	02:26:10	0	0	4,293802	1,61925	49,5756	-1,337	81,07	0	1008,64	4,4	6,9	6,6	1	1	1	1	1	1	1	1	1	0	1	-66,032417	271,903951	243,884394	0
15.01.2021	02:26:11	0	0	4,971741	1,67025	47,7612	-1,338	81,073	0	1008,76	4,4	6,9	6,7	1	1	1	1	1	1	1	1	1	0	1	-65,257223	272,033472	245,250519	0
15.01.2021	02:26:12	0	0	3,050841	1,6215	44,7804	-1,339	81,064	0	1008,62	4,4	6,9	6,7	1	1	1	1	1	1	1	1	1	0	1	-70,260747	272,069681	240,41235	0
15.01.2021	02:26:13	0	0	3,954794	1,527	45,1584	-1,334	81,039	0	1008,92	4,4	6,9	6,7	1	1	1	1	1	1	1	1	1	0	1	-73,079634	271,97194	237,147267	0
15.01.2021	02:26:14	0	0	3,954818	1,464	52,5132	-1,337	81,041	0	1008,96	4,4	6,9	6,6	1	1	1	1	1	1	1	1	1	0	1	-67,371388	272,046874	243,197552	0
15.01.2021	02:26:15	0	0	4,406771	1,44975	52,1316	-1,336	81,034	0	1008,94	4,4	6,9	6,7	1	1	1	1	1	1	1	1	1	0	1	-67,864693	272,053579	242,734866	0
15.01.2021	02:26:16	0	0	3,389844	1,482	48,5136	-1,336	81,028	0	1008,78	4,4	6,9	6,6	1	1	1	1	1	1	1	1	1	0	1	-65,398168	271,998668	244,950703	0
15.01.2021	02:26:17	0	0	2,82487	1,48575	60,5628	-1,34	81,016	0	1008,84	4,4	6,9	6,6	1	1	1	1	1	1	1	1	1	0	1	-70,331219	271,887989	239,512824	0
15.01.2021	02:26:18	0	0	3,954794	1,4595	51,444	-1,341	81,011	0	1008,64	4,4	6,9	6,7	1	1	1	1	1	1	1	1	1	0	1	-70,472163	272,012047	239,93777	0
15.01.2021	02:26:19	0	0	3,615834	1,4115	43,6824	-1,336	81,013	0	1008,54	4,4	6,9	6,6	1	1	1	1	1	1	1	1	1	0	1	-73,29105	271,889319	236,559054	0
15.01.2021	02:26:20	0	0	4,858747	1,4205	19,1448	-1,338	80,99	0	1008,86	4,4	6,9	6,7	1	1	1	1	1	1	1	1	1	0	1	-67,653277	271,997331	242,689491	0
15.01.2021	02:26:21	0	0	4,745782	1,44375	21,3948	-1,339	80,986	0	1008,82	4,4	6,9	6,6	1	1	1	1	1	1	1	1	1	0	1	-68,357999	271,893308	241,510292	0
15.01.2021	02:26:22	0	0	4,519792	1,53225	52,4988	-1,34	80,973	0	1008,7	4,4	6,9	6,6	1	1	1	1	1	1	1	1	1	0	1	-67,371388	271,930585	242,666867	0
15.01.2021	02:26:23	0	0	4,406797	1,57125	42,9408	-1,337	80,961	0	1008,74	4,4	6,9	6,6	1	1	1	1	1	1	1	1	1	0	1	-66,173362	272,034811	244,340498	0
15.01.2021	02:26:24	0	0	3,389844	1,71525	33,966	-1,338	80,97	0	1008,8	4,4	6,9	6,6	1	1	1	1	1	1	1	1	1	0	1	-66,737139	272,016062	243,691124	0
15.01.2021	02:26:25	0	0	4,180783	1,7505	45,1512	-1,332	80,955	0	1008,76	4,4	6,9	6,7	1	1	1	1	1	1	1	1	1	0	1	-69,626498	272,060287	241,003693	0
15.01.2021	02:26:26	0	0	3,728828	1,68225	44,4132	-1,335	80,949	0	1008,68	4,4	6,9	6,6	1	1	1	1	1	1	1	1	1	0	1	-68,287526	272,048215	242,287537	0
15.01.2021	02:26:27	0	0	3,502839	1,611	31,41	-1,341	80,937	0	1008,78	4,4	6,9	6,6	1	1	1	1	1	1	1	1	1	0	1	-72,374912	272,044193	238,181785	0
15.01.2021	02:26:28	0	0	4,406797	1,617	49,2084	-1,333	80,928	0	1008,78	4,4	6,9	6,6	1	1	1	1	1	1	1	1	1	0	1	-71,740662	272,065654	238,914043	0
15.01.2021	02:26:29	0	0	5,084736	1,70925	54,1152	-1,34	80,912	0	1008,82	4,4	6,9	6,7	1	1	1	1	1	1	1	1	1	0	1	-69,556025	272,014723	240,866127	0
15.01.2021	02:26:30	0	0	2,824853	1,938	62,4348	-1,337	80,901	0	1008,72	4,4	6,9	6,7	1	1	1	1	1	1	1	1	1	0	1	-71,599718	272,068338	239,067248	0
15.01.2021	02:26:31	0	0	4,067788	2,19225	58,8888	-1,341	80,898	0	1008,8	4,4	6,9	6,7	1	1	1	1	1	1	1	1	1	0	1	-71,035941	271,939915	239,044869	0
15.01.2021	02:26:32	0	0	4,406797	2,35875	55,9548	-1,333	80,895	0	1008,88	4,4	6,9	6,6	1	1	1	1	1	1	1	1	1	0	1	-73,572939	272,056262	237,038871	0
15.01.2021	02:26:33	0	0	4,632787	2,39625	54,5724	-1,335	80,892	0	1008,94	4,4	7	6,6	1	1	1	1	1	1	1	1	1	0	1	-64,763918	271,905282	245,15896	0
15.01.2021	02:26:34	0	0	4,406797	2,34075	39,168	-1,338	80,875	0	1008,66	4,4	6,9	6,6	1	1	1	1	1	1	1	1	1	0	1	-68,921776	272,004019	241,451514	0
15.01.2021	02:26:35	0	0	3,389824	2,51175	41,4756	-1,336	80,857	0	1008,82	4,4	6,9	6,7	1	1	1	1	1	1	1	1	1	0	1	-71,458774	272,05492	239,146911	0
15.01.2021	02:26:36	0	0	2,824853	2,79525	56,6856	-1,334	80,854	0	1008,92	4,4	6,9	6,7	1	1	1	1	1	1	1	1	1	0	1	-69,344609	272,004019	241,028681	0
15.01.2021	02:26:37	0	0	2,937865	2,68275	30,3408	-1,333	80,85	0	1008,8	4,4	6,9	6,6	1	1	1	1	1	1	1	1	1	0	1	-68,07611	272,064312	242,572466	0
15.01.2021	02:26:38	0	0	3,163854	2,3145	57,7404	-1,338	80,847	0	1008,74	4,4	6,9	6,6	1	1	1	1	1	1	1	1	1	0	1	-67,653277	271,92792	242,372825	0
15.01.2021	02:26:39	0	0	5,084736	1,854	41,004	-1,34	80,829	0	1008,78	4,4	6,9	6,7	1	1	1	1	1	1	1	1	1	0	1	-67,512333	272,050897	243,074977	0
15.01.2021	02:26:40	0	0	5,310724	1,57575	358,6644	-1,338	80,819	0	1008,86	4,4	6,9	6,7	1	1	1	1	1	1	1	1	1	0	1	-65,257223	272,046874	245,311717	0
15.01.2021	02:26:41	0	0	2,485871	1,43475	14,3244	-1,334	80,819	0	1008,8	4,4	6,9	6,7	1	1	1	1	1	1	1	1	1	0	1	-65,609584	271,926587	244,410441	0
15.01.2021	02:26:42	0	0	3,27683	1,368	21,4128	-1,334	80,821	0	1008,88	4,4	6,9	6,7	1	1	1	1	1	1	1	1	1	0	1	-66,948555	271,906613	242,980391	0
15.01.2021	02:26:43	0	0	2,485871	1,3485	11,7072	-1,336	80,82	0	1008,84	4,4	6,9	6,7	1	1	1	1	1	1	1	1	1	0	1	-68,357999	271,939915	241,722811	0
15.01.2021	02:26:44	0	0	3,502818	1,30125	25,8048	-1,335	80,807	0	1008,84	4,4	6,9	6,7	1	1	1	1	1	1	1	1	1	0	1	-68,710359	272,057603	241,907577	0
15.01.2021	02:26:45	0	0	2,937847	1,35375	22,8456	-1,337	80,802	0	1008,84	4,4	6,9	6,7	1	1	1	1	1	1	1	1	1	0	1	-64,129669	271,917263	245,847839	0
15.01.2021	02:26:46	0	0	3,954794	1,407	26,1936	-1,335	80,81	0	1008,94	4,4	6,9	6,7	1	1	1	1	1	1	1	1	1	0	1	-67,794221	271,955921	242,359597	0
15.01.2021	02:26:47	0	0	3,615812	1,374	39,5604	-1,334	80,795	0	1008,7	4,4	6,9	6,7	1	1	1	1	1	1	1	1	1	0	1	-66,45525	271,9146	243,510114	0
15.01.2021	02:26:48	0	0	3,050841	1,293	25,0488	-1,341	80,798	0	1008,66	4,4	6,8	6,7	1	1	1	1	1	1	1	1	1	0	1	-64,763918	271,981291	245,505649	0
15.01.2021	02:26:49	0	0	5,423718	1,3095	19,5408	-1,336	80,781	0	1008,8	4,6	6,9	6,7	1	1	1	1	1	1	1	1	1	0	1	-69,767442	272,053579	240,832117	0
15.01.2021	02:26:50	0	0	3,502839	1,33425	27,6516	-1,342	80,788	0	1008,78	4,4	7	6,6	1	1	1	1	1	1	1	1	1	0	1	-68,710359	271,909275	241,230724	0
15.01.2021	02:26:51	0	0	2,711859	1,4775	39,2472	-1,341	80,779	0	1008,86	4,4	7	6,7	1	1	1	1	1	1	1	1	1	0	1	-65,045807	271,969269	245,168908	0
15.01.2021	02:26:52	0	0	4,632759	1,704	38,088	-1,335	80,791	0	1008,64	4,4	7	6,7	1	1	1	1	1	1	1	1	1	0	1	-66,45525	271,893308	243,41304	0
15.01.2021	02:26:53	0	0	3,8418	1,8015	33,6312	-1,341	80,766	0	1008,9	4,4	7	6,7	1	1	1	1	1	1	1	1	1	0	1	-64,411557	272,022756	246,047264	0
15.01.2021	02:26:54	0	0	3,615812	1,82925	48,8376	-1,338	80,781	0	1008,76	4,4	7	6,7	1	1	1	1	1	1	1	1	1	0	1	-63,706836	272,013385	246,709207	0
15.01.2021	02:26:55	0	0	3,163835	1,78875	40,6332	-1,334	80,764	0	1008,86	4,4	7	6,7	1	1	1	1	1	1	1	1	1	0	1	-70,472163	271,919927	239,517489	0
15.01.2021	02:26:56	0	0	3,728806	1,764	45,5328	-1,339	80,778	0	1008,78	4,4	6,8	6,7	1	1	1	1	1	1	1	1	1	0	1	-66,102889	272,053579	244,49667	0
15.01.2021	02:26:57	0	0	3,954794	1,725	43,308	-1,341	80,764	0	1008,76	4,4	7	6,7	1	1	1	1	1	1	1	1	1	0	1	-69,556025	272,05492	241,049659	0
15.01.2021	02:26:58	0	0	4,632759	1,7085	31,7808	-1,334	80,766	0	1008,94	4,4	7	6,7	1	1	1	1	1	1	1	1	1	0	1	-69,626498	272,030792	240,869012	0
15.01.2021	02:26:59	0	0	4,858747	1,689	39,5604	-1,345	80,763	0	1008,8	4,4	7	6,7	1	1	1	1	1	1	1	1	1	0	1	-66,173362	271,88666	243,664621	0
15.01.2021	02:27:00	0	0	3,502818	1,63875	41,0112	-1,336	80,768	0	1008,76	4,4	7	6,7	1	1	1	1	1	1	1	1	1	0	1	-65,680056	272,06297	244,962391	0
15.01.2021	02:27:01	0	0	3,502818	1,63875	41,0112	-1,336	80,768	0	1008,76	4,4	7	6,7	1	1	1	1	1	1	1	1	1	0	1	-65,680056	272,06297	244,962391	0
15.01.2021	02:27:02	0	0	5,19773	1,563	45,612	-1,346	80,76	0	1008,86	4,4	6,8	6,7	1	1	1	1	1	1	1	1	1	0	1	-66,45525	272,041512	244,089205	0
15.01.2021	02:27:03	0	0	4,293777	1,515	43,668	-1,339	80,746	0	1008,7	4,4	7	6,7	1	1	1	1	1	1	1	1	1	0	1	-67,723749	272,006694	242,661753	0
15.01.2021	02:27:04	0	0	2,824853	1,482	48,1356	-1,338	80,752	0	1008,84	4,4	6,8	6,7	1	1	1	1	1	1	1	1	1	0	1	-68,780832	272,005356	241,598564	0
15.01.2021	02:27:05	0	0	3,050841	1,47525	38,8116	-1,344	80,734	0	1008,92	4,4	7	6,7	1	1	1	1	1	1	1	1	1	0	1	-68,921776	272,052238	241,671658	0
15.01.2021	02:27:06	0	0	3,615812	1,53675	46,2132	-1,346	80,756	0	1008,9	4,4	6,8	6,7	1	1	1	1	1	1	1	1	1	0	1	-68,005638	272,042852	242,544938	0
15.01.2021	02:27:07	0	0	2,598865	1,6845	37,7028	-1,345	80,74	0	1008,74	4,4	7	6,7	1	1	1	1	1	1	1	1	1	0	1	-68,780832	271,903951	241,135979	0
15.01.2021	02:27:08	0	0	4,632759	1,77075	45,1728	-1,342	80,737	0	1008,8	4,4	7	6,7	1	1	1	1	1	1	1	1	1	0	1	-67,159972	272,044193	243,396725	0
15.01.2021	02:27:09	0	0	3,27683	1,749	37,692	-1,347	80,743	0	1008,82	4,4	7	6,7	1	1	1	1	1	1	1	1	1	0	1	-70,331219	272,010708	240,072606	0
15.01.2021	02:27:10	0	0	2,824853	1,8285	42,5988	-1,342	80,743	0	1008,8	4,4	7	6,7	1	1	1	1	1	1	1	1	1	0	1	-67,794221	272,052238	242,799213	0
15.01.2021	02:27:11	0	0	3,728806	1,89975	36,6264	-1,336	80,756	0	1008,92	4,4	7	6,7	1	1	1	1	1	1	1	1	1	0	1	-69,415081	271,986636	240,878878	0
15.01.2021	02:27:12	0	0	4,632759	1,91325	35,874	-1,339	80,738	0	1008,8	4,4	7	6,7	1	1	1	1	1	1	1	1	1	0	1	-71,106413	271,872041	238,664935	0
15.01.2021	02:27:13	0	0	4,180783	1,926	42,6132	-1,345	80,732	0	1008,86	4,4	7	6,7	1	1	1	1	1	1	1	1	1	0	1	-70,190275	271,934583	239,866215	0
15.01.2021	02:27:14	0	0	3,615812	1,89525	38,0808	-1,336	80,724	0	1008,92	4,4	7	6,7	1	1	1	1	1	1	1	1	1	0	1	-69,978858	271,88666	239,859124	0
15.01.2021	02:27:15	0	0	5,084736	1,74375	45,5652	-1,342	80,708	0	1008,8	4,4	7	6,7	1	1	1	1	1	1	1	1	1	0	1	-64,48203	271,981291	245,787537	0
15.01.2021	02:27:16	0	0	3,954794	1,70775	33,9552	-1,346	80,722	0	1008,8	4,4	7	6,7	1	1	1	1	1	1	1	1	1	0	1	-68,639887	272,038831	241,892328	0
15.01.2021	02:27:17	0	0	5,084736	1,677	54,5796	-1,344	80,716	0	1008,8	4,4	7	6,7	1	1	1	1	1	1	1	1	1	0	1	-73,502467	271,950584	236,627007	0
15.01.2021	02:27:18	0	0	3,163835	1,67625	49,9572	-1,341	80,7	0	1008,8	4,4	7	6,7	1	1	1	1	1	1	1	1	1	0	1	-67,230444	272,042852	243,320132	0
15.01.2021	02:27:19	0	0	4,632759	1,773	41,472	-1,342	80,715	0	1008,88	4,4	7	6,7	1	1	1	1	1	1	1	1	1	0	1	-64,270613	271,882672	245,54919	0
15.01.2021	02:27:20	0	0	5,423718	1,887	42,9264	-1,339	80,707	0	1008,8	4,4	7	6,7	1	1	1	1	1	1	1	1	1	0	1	-67,019027	271,911937	242,934195	0
15.01.2021	02:27:21	0	0	2,485871	1,956	43,6788	-1,341	80,704	0	1008,82	4,4	7	6,7	1	1	1	1	1	1	1	1	1	0	1	-63,565891	271,874698	246,217568	0
15.01.2021	02:27:22	0	0	3,27683	2,08875	41,472	-1,34	80,7	0	1008,88	4,4	7	6,7	1	1	1	1	1	1	1	1	1	0	1	-70,049331	271,978618	240,208043	0
15.01.2021	02:27:23	0	0	2,711859	2,35575	45,1548	-1,341	80,684	0	1008,86	4,4	7	6,7	1	1	1	1	1	1	1	1	1	0	1	-66,807611	271,865399	242,93347	0
15.01.2021	02:27:24	0	0	3,163835	2,57625	34,4448	-1,348	80,683	0	1008,78	4,4	7	6,7	1	1	1	1	1	1	1	1	1	0	1	-66,807611	271,974611	243,431478	0
15.01.2021	02:27:25	0	0	3,728806	2,82	35,8776	-1,342	80,708	0	1009,14	4,4	7	6,7	1	1	1	1	1	1	1	1	1	0	1	-67,44186	271,872041	242,329488	0
15.01.2021	02:27:26	0	0	4,293777	2,9175	50,6988	-1,344	80,669	0	1008,7	4,4	7	6,7	1	1	1	1	1	1	1	1	1	0	1	-66,45525	272,002681	243,911934	0
15.01.2021	02:27:27	0	0	4,632759	2,69325	44,7948	-1,339	80,707	0	1009,14	4,4	7	6,7	1	1	1	1	1	1	1	1	1	0	1	-65,891473	271,877355	243,904099	0
15.01.2021	02:27:28	0	0	3,163835	2,427	36,2304	-1,339	80,677	0	1008,9	4,5	7	6,7	1	1	1	1	1	1	1	1	1	0	1	-67,44186	271,943915	242,657194	0
15.01.2021	02:27:29	0	0	2,824853	2,238	44,0568	-1,343	80,674	0	1008,8	4,4	7	6,7	1	1	1	1	1	1	1	1	1	0	1	-68,287526	272,030792	242,207983	0
15.01.2021	02:27:30	0	0	4,858747	2,20875	52,9164	-1,343	80,679	0	1008,88	4,4	7	6,7	1	1	1	1	1	1	1	1	1	0	1	-68,07611	271,9146	241,889254	0
15.01.2021	02:27:31	0	0	2,824853	2,25	79,1028	-1,341	80,687	0	1008,92	4,4	7	6,7	1	1	1	1	1	1	1	1	1	0	1	-66,807611	271,989309	243,498547	0
15.01.2021	02:27:32	0	0	4,745753	2,0895	67,2912	-1,348	80,681	0	1008,86	4,4	7	6,7	1	1	1	1	1	1	1	1	1	0	1	-68,217054	272,036151	242,302924	0
15.01.2021	02:27:33	0	0	3,502818	1,88925	67,698	-1,343	80,684	0	1008,86	4,4	7	6,7	1	1	1	1	1	1	1	1	1	0	1	-67,159972	271,931917	242,884361	0
15.01.2021	02:27:34	0	0	2,824853	1,62225	82,62	-1,342	80,693	0	1008,84	4,4	7	6,7	1	1	1	1	1	1	1	1	1	0	1	-69,485553	272,025434	240,985496	0
15.01.2021	02:27:35	0	0	3,163835	1,47075	65,0952	-1,349	80,674	0	1008,82	4,4	7	6,7	1	1	1	1	1	1	1	1	1	0	1	-74,770965	271,942582	235,322007	0
15.01.2021	02:27:36	0	0	4,632759	1,455	58,4964	-1,345	80,694	0	1008,88	4,6	7	6,7	1	1	1	1	1	1	1	1	1	0	1	-65,750529	272,032132	244,751097	0
15.01.2021	02:27:37	0	0	3,8418	1,509	73,8036	-1,348	80,683	0	1008,76	4,4	7	6,7	1	1	1	1	1	1	1	1	1	0	1	-70,542636	271,991983	239,775723	0
15.01.2021	02:27:38	0	0	4,858747	1,59975	38,0772	-1,338	80,696	0	1008,74	4,5	7	6,7	1	1	1	1	1	1	1	1	1	0	1	-72,30444	272,033472	238,203303	0
15.01.2021	02:27:39	0	0	4,632759	1,61625	60,2316	-1,341	80,7	0	1008,9	4,5	7	6,7	1	1	1	1	1	1	1	1	1	0	1	-65,539112	271,939915	244,541697	0
15.01.2021	02:27:40	0	0	3,728806	1,767	50,3208	-1,343	80,689	0	1008,82	4,5	7	6,7	1	1	1	1	1	1	1	1	1	0	1	-60,817477	271,866727	248,929656	0
15.01.2021	02:27:41	0	0	5,19773	1,8495	41,0184	-1,346	80,697	0	1008,86	4,4	7	6,7	1	1	1	1	1	1	1	1	1	0	1	-68,005638	271,955921	242,14818	0
15.01.2021	02:27:42	0	0	3,954794	1,959	45,5364	-1,339	80,672	0	1008,92	4,4	7	6,7	1	1	1	1	1	1	1	1	1	0	1	-68,07611	271,873369	241,701294	0
15.01.2021	02:27:43	0	0	3,8418	2,064	54,8028	-1,341	80,678	0	1008,82	4,4	7	6,7	1	1	1	1	1	1	1	1	1	0	1	-69,908386	272,018739	240,532099	0
15.01.2021	02:27:44	0	0	4,293777	2,0565	51,7464	-1,341	80,665	0	1008,92	4,5	7	6,7	1	1	1	1	1	1	1	1	1	0	1	-67,512333	271,987972	242,787726	0
15.01.2021	02:27:45	0	0	3,728806	1,9425	39,564	-1,343	80,618	0	1008,88	4,5	7	6,7	1	1	1	1	1	1	1	1	1	0	1	-67,864693	271,853451	241,821938	0
15.01.2021	02:27:46	0	0	4,519765	1,88475	49,968	-1,342	80,606	0	1008,82	4,4	7	6,7	1	1	1	1	1	1	1	1	1	0	1	-68,498943	271,982627	241,776721	0
15.01.2021	02:27:47	0	0	3,389824	1,9065	48,492	-1,341	80,607	0	1008,92	4,4	7	6,7	1	1	1	1	1	1	1	1	1	0	1	-71,106413	271,89996	238,792199	0
15.01.2021	02:27:48	0	0	3,728806	1,90275	39,1644	-1,34	80,598	0	1008,84	4,4	7	6,7	1	1	1	1	1	1	1	1	1	0	1	-72,163495	272,040172	238,37484	0
15.01.2021	02:27:49	0	0	2,824853	1,8195	37,6812	-1,347	80,578	0	1008,74	4,4	7	6,7	1	1	1	1	1	1	1	1	1	0	1	-66,384778	272,006694	244,000725	0
15.01.2021	02:27:50	0	0	2,711859	1,6635	32,5188	-1,346	80,568	0	1008,64	4,5	7	6,7	1	1	1	1	1	1	1	1	1	0	1	-74,066244	272,021417	236,386465	0
15.01.2021	02:27:51	0	0	3,163835	1,5165	33,264	-1,348	80,557	0	1008,98	4,5	7	6,7	1	1	1	1	1	1	1	1	1	0	1	-67,723749	271,895969	242,156669	0
15.01.2021	02:27:52	0	0	2,711859	1,43175	31,4244	-1,342	80,558	0	1008,72	4,5	7	6,7	1	1	1	1	1	1	1	1	1	0	1	-65,539112	271,854778	244,153567	0
15.01.2021	02:27:53	0	0	3,8418	1,42875	31,0284	-1,341	80,548	0	1008,8	4,5	7	6,7	1	1	1	1	1	1	1	1	1	0	1	-66,314306	271,897299	243,572176	0
15.01.2021	02:27:54	0	0	2,937847	1,38675	32,8968	-1,351	80,54	0	1008,72	4,5	7	6,7	1	1	1	1	1	1	1	1	1	0	1	-68,005638	272,016062	242,422625	0
15.01.2021	02:27:55	0	0	3,27683	1,452	39,1716	-1,342	80,547	0	1009,08	4,4	7	6,7	1	1	1	1	1	1	1	1	1	0	1	-68,780832	271,880013	241,026855	0
15.01.2021	02:27:56	0	0	4,745753	1,5045	35,4816	-1,345	80,533	0	1008,96	4,4	7	6,7	1	1	1	1	1	1	1	1	1	0	1	-68,639887	271,99332	241,684573	0
15.01.2021	02:27:57	0	0	3,728806	1,59	34,722	-1,343	80,529	0	1008,76	4,4	6,8	6,7	1	1	1	1	1	1	1	1	1	0	1	-73,572939	272,034811	236,940921	0
15.01.2021	02:27:58	0	0	3,050841	1,58925	36,2412	-1,35	80,524	0	1008,82	4,4	7	6,7	1	1	1	1	1	1	1	1	1	0	1	-70,260747	271,925255	239,753203	0
15.01.2021	02:27:59	0	0	4,632759	1,6035	33,2712	-1,342	80,55	0	1008,64	4,4	6,8	6,7	1	1	1	1	1	1	1	1	1	0	1	-67,723749	272,016062	242,704514	0
15.01.2021	02:28:00	0	0	3,389844	1,6515	42,9264	-1,34	80,555	0	1008,68	4,4	6,8	6,6	1	1	1	1	1	1	1	1	1	0	1	-69,06272	271,882672	240,757083	0
15.01.2021	02:28:01	0	0	3,389844	1,6515	42,9264	-1,34	80,555	0	1008,68	4,4	6,8	6,6	1	1	1	1	1	1	1	1	1	0	1	-69,06272	271,882672	240,757083	0
15.01.2021	02:28:02	0	0	4,858776	1,81575	44,7804	-1,343	80,56	0	1008,78	4,5	6,8	6,6	1	1	1	1	1	1	1	1	1	0	1	-70,331219	271,99332	239,993241	0
15.01.2021	02:28:03	0	0	3,389824	1,70325	51,4476	-1,346	80,574	0	1008,84	4,4	6,8	6,7	1	1	1	1	1	1	1	1	1	0	1	-70,68358	272,017401	239,750794	0
15.01.2021	02:28:04	0	0	4,632731	1,49925	29,9592	-1,343	80,555	0	1008,72	4,5	7	6,8	1	1	1	1	1	1	1	1	1	0	1	-71,106413	272,034811	239,407447	0
15.01.2021	02:28:05	0	0	3,728806	1,356	23,598	-1,345	80,582	0	1008,72	4,4	6,8	6,7	1	1	1	1	1	1	1	1	1	0	1	-66,45525	271,926587	243,564775	0
15.01.2021	02:28:06	0	0	3,050841	1,2435	30,7188	-1,346	80,584	0	1008,8	4,4	7	6,7	1	1	1	1	1	1	1	1	1	0	1	-70,049331	272,014723	240,372822	0
15.01.2021	02:28:07	0	0	4,067788	1,2375	40,6188	-1,343	80,569	0	1008,84	4,5	6,8	6,7	1	1	1	1	1	1	1	1	1	0	1	-72,374912	271,983963	237,90685	0
15.01.2021	02:28:08	0	0	4,632787	1,27875	46,9908	-1,342	80,571	0	1008,84	4,4	6,8	6,6	1	1	1	1	1	1	1	1	1	0	1	-65,961945	271,915932	244,00949	0
15.01.2021	02:28:09	0	0	5,084766	1,272	51,4404	-1,348	80,57	0	1008,84	4,4	6,8	6,6	1	1	1	1	1	1	1	1	1	0	1	-63,143058	271,848142	246,519386	0
15.01.2021	02:28:10	0	0	4,067813	1,27275	44,0496	-1,342	80,568	0	1008,94	4,4	6,8	6,6	1	1	1	1	1	1	1	1	1	0	1	-71,035941	271,929252	238,996237	0
15.01.2021	02:28:11	0	0	3,728806	1,317	37,3176	-1,339	80,571	0	1008,84	4,4	6,8	6,7	1	1	1	1	1	1	1	1	1	0	1	-70,190275	271,994657	240,140288	0
15.01.2021	02:28:12	0	0	4,519792	1,36425	57,4164	-1,343	80,559	0	1008,78	4,4	6,8	6,6	1	1	1	1	1	1	1	1	1	0	1	-72,093023	271,88666	237,744959	0
15.01.2021	02:28:13	0	0	2,146901	1,35	40,2588	-1,348	80,55	0	1008,86	4,5	6,8	6,6	1	1	1	1	1	1	1	1	1	0	1	-70,68358	271,857433	239,021197	0
15.01.2021	02:28:14	0	0	4,293802	1,3905	45,54	-1,343	80,547	0	1008,78	4,5	6,8	6,6	1	1	1	1	1	1	1	1	1	0	1	-68,498943	271,872041	241,272406	0
15.01.2021	02:28:15	0	0	4,632787	1,3635	49,9428	-1,349	80,551	0	1008,92	4,5	6,8	6,6	1	1	1	1	1	1	1	1	1	0	1	-66,314306	272,012047	244,095628	0
15.01.2021	02:28:16	0	0	4,971771	1,332	49,2804	-1,345	80,534	0	1008,9	4,5	6,8	6,6	1	1	1	1	1	1	1	1	1	0	1	-76,250881	271,861415	233,472046	0
15.01.2021	02:28:17	0	0	4,632759	1,3245	39,8664	-1,348	80,521	0	1008,92	4,5	6,8	6,7	1	1	1	1	1	1	1	1	1	0	1	-66,948555	271,922591	243,053245	0
15.01.2021	02:28:18	0	0	3,502839	1,34925	44,406	-1,349	80,518	0	1008,82	4,4	6,8	6,6	1	1	1	1	1	1	1	1	1	0	1	-70,894996	271,842836	238,74327	0
15.01.2021	02:28:19	0	0	3,163854	1,48275	38,1636	-1,355	80,52	0	1008,74	4,4	6,8	6,6	1	1	1	1	1	1	1	1	1	0	1	-70,472163	271,955921	239,681654	0
15.01.2021	02:28:20	0	0	4,293777	1,5915	41,0184	-1,346	80,492	0	1008,86	4,4	7,1	6,7	1	1	1	1	1	1	1	1	1	0	1	-70,049331	272,022756	240,409491	0
15.01.2021	02:28:21	0	0	4,180808	1,64175	46,2348	-1,349	80,485	0	1008,78	4,4	7	6,6	1	1	1	1	1	1	1	1	1	0	1	-65,680056	271,994657	244,650506	0
15.01.2021	02:28:22	0	0	4,745753	1,686	45,8352	-1,35	80,485	0	1008,92	4,5	6,8	6,7	1	1	1	1	1	1	1	1	1	0	1	-68,992248	272,017401	241,442126	0
15.01.2021	02:28:23	0	0	2,937847	1,74075	49,5648	-1,352	80,466	0	1008,88	4,5	6,8	6,7	1	1	1	1	1	1	1	1	1	0	1	-73,784355	271,887989	236,059688	0
15.01.2021	02:28:24	0	0	2,937847	1,83525	38,4444	-1,346	80,468	0	1008,9	4,5	6,8	6,7	1	1	1	1	1	1	1	1	1	0	1	-67,300916	271,849469	242,367575	0
15.01.2021	02:28:25	0	0	3,954818	1,8165	29,9664	-1,35	80,44	0	1008,8	4,5	6,8	6,6	1	1	1	1	1	1	1	1	1	0	1	-64,763918	271,877355	245,031653	0
15.01.2021	02:28:26	0	0	3,163835	1,95	31,0248	-1,345	80,442	0	1008,84	4,5	6,8	6,7	1	1	1	1	1	1	1	1	1	0	1	-65,961945	272,013385	244,454098	0
15.01.2021	02:28:27	0	0	5,084736	1,92975	57,7296	-1,349	80,425	0	1008,82	4,5	6,8	6,7	1	1	1	1	1	1	1	1	1	0	1	-71,106413	271,882672	238,71339	0
15.01.2021	02:28:28	0	0	4,293777	2,2965	65,1096	-1,348	80,408	0	1008,92	4,4	6,8	6,7	1	1	1	1	1	1	1	1	1	0	1	-67,935166	272,024095	242,529769	0
15.01.2021	02:28:29	0	0	3,728806	2,5365	42,9048	-1,352	80,407	0	1008,84	4,5	6,8	6,7	1	1	1	1	1	1	1	1	1	0	1	-67,864693	271,930585	242,173562	0
15.01.2021	02:28:30	0	0	4,858747	2,84475	34,056	-1,348	80,408	0	1008,78	4,5	6,8	6,7	1	1	1	1	1	1	1	1	1	0	1	-70,049331	272,00937	240,348387	0
15.01.2021	02:28:31	0	0	3,163854	2,8665	42,2244	-1,346	80,397	0	1008,96	4,4	6,8	6,6	1	1	1	1	1	1	1	1	1	0	1	-66,243834	271,88666	243,594148	0
15.01.2021	02:28:32	0	0	4,180783	3,009	50,3028	-1,347	80,388	0	1008,82	4,5	6,8	6,7	1	1	1	1	1	1	1	1	1	0	1	-70,401691	271,997331	239,941076	0
15.01.2021	02:28:33	0	0	4,293777	2,98575	52,146	-1,349	80,367	0	1008,98	4,4	6,8	6,7	1	1	1	1	1	1	1	1	1	0	1	-70,190275	271,902621	239,720469	0
15.01.2021	02:28:34	0	0	5,19773	2,8335	51,048	-1,349	80,375	0	1008,92	4,5	6,8	6,7	1	1	1	1	1	1	1	1	1	0	1	-67,723749	272,020078	242,722847	0
15.01.2021	02:28:35	0	0	4,519792	2,496	38,8044	-1,346	80,381	0	1008,92	4,5	6,8	6,6	1	1	1	1	1	1	1	1	1	0	1	-70,542636	271,954586	239,605095	0
15.01.2021	02:28:36	0	0	3,050841	2,34	42,228	-1,354	80,372	0	1008,7	4,5	6,8	6,7	1	1	1	1	1	1	1	1	1	0	1	-67,512333	271,862743	242,216645	0
15.01.2021	02:28:37	0	0	3,389824	2,415	48,834	-1,352	80,377	0	1008,98	4,5	6,8	6,7	1	1	1	1	1	1	1	1	1	0	1	-70,754052	271,947916	239,363252	0
15.01.2021	02:28:38	0	0	2,937847	2,34975	51,4404	-1,352	80,377	0	1008,88	4,5	7	6,7	1	1	1	1	1	1	1	1	1	0	1	-68,992248	272,024095	241,472687	0
15.01.2021	02:28:39	0	0	3,954794	2,38275	66,546	-1,352	80,367	0	1008,84	4,5	6,8	6,7	1	1	1	1	1	1	1	1	1	0	1	-74,418605	271,92792	235,607497	0
15.01.2021	02:28:40	0	0	4,745753	2,5635	48,8268	-1,355	80,374	0	1008,9	4,5	6,8	6,7	1	1	1	1	1	1	1	1	1	0	1	-66,948555	272,020078	243,498041	0
15.01.2021	02:28:41	0	0	3,615812	2,81775	69,1596	-1,35	80,395	0	1008,84	4,4	6,8	6,7	1	1	1	1	1	1	1	1	1	0	1	-75,828048	271,934583	234,228442	0
15.01.2021	02:28:42	0	0	4,971741	2,736	63,8712	-1,353	80,401	0	1008,96	4,5	6,8	6,7	1	1	1	1	1	1	1	1	1	0	1	-69,767442	271,852123	239,913142	0
15.01.2021	02:28:43	0	0	3,163835	2,6535	57,0528	-1,355	80,435	0	1008,76	4,5	6,8	6,7	1	1	1	1	1	1	1	1	1	0	1	-68,146582	271,877355	241,64899	0
15.01.2021	02:28:44	0	0	4,632759	2,5755	62,0496	-1,356	80,458	0	1008,84	4,4	6,8	6,7	1	1	1	1	1	1	1	1	1	0	1	-70,613108	271,917263	239,3644	0
15.01.2021	02:28:45	0	0	4,519792	2,4315	48,528	-1,349	80,481	0	1008,92	4,4	6,8	6,6	1	1	1	1	1	1	1	1	1	0	1	-67,371388	272,026774	243,105775	0
15.01.2021	02:28:46	0	0	2,824853	2,2185	30,3192	-1,355	80,506	0	1008,74	4,5	6,8	6,7	1	1	1	1	1	1	1	1	1	0	1	-68,639887	271,861415	241,083039	0
15.01.2021	02:28:47	0	0	4,632759	2,00925	33,9624	-1,35	80,518	0	1008,78	4,5	6,8	6,7	1	1	1	1	1	1	1	1	1	0	1	-69,415081	271,887989	240,428962	0
15.01.2021	02:28:48	0	0	2,598865	1,9185	45,8604	-1,352	80,537	0	1008,88	4,5	6,8	6,7	1	1	1	1	1	1	1	1	1	0	1	-73,9253	271,834879	235,676715	0
15.01.2021	02:28:49	0	0	3,954794	1,91775	42,6132	-1,356	80,54	0	1008,74	4,5	6,8	6,7	1	1	1	1	1	1	1	1	1	0	1	-69,837914	271,978618	240,41946	0
15.01.2021	02:28:50	0	0	4,858747	1,91625	62,4204	-1,351	80,578	0	1008,98	4,5	6,8	6,7	1	1	1	1	1	1	1	1	1	0	1	-71,881607	272,017401	238,552767	0
15.01.2021	02:28:51	0	0	4,971741	2,0385	53,7084	-1,353	80,592	0	1008,74	4,5	6,8	6,7	1	1	1	1	1	1	1	1	1	0	1	-70,260747	271,9146	239,704617	0
15.01.2021	02:28:52	0	0	4,632759	2,181	65,4624	-1,35	80,609	0	1008,92	4,4	6,8	6,7	1	1	1	1	1	1	1	1	1	0	1	-72,163495	272,014723	238,258657	0
15.01.2021	02:28:53	0	0	4,745753	2,3595	60,93	-1,353	80,615	0	1008,84	4,5	6,8	6,7	1	1	1	1	1	1	1	1	1	0	1	-66,737139	271,915932	243,234297	0
15.01.2021	02:28:54	0	0	5,19773	2,2965	50,67	-1,347	80,632	0	1009,04	4,4	6,8	6,7	1	1	1	1	1	1	1	1	1	0	1	-68,428471	272,017401	242,005903	0
15.01.2021	02:28:55	0	0	4,293777	2,0655	51,0768	-1,35	80,618	0	1008,82	4,5	6,8	6,7	1	1	1	1	1	1	1	1	1	0	1	-66,173362	271,902621	243,737383	0
15.01.2021	02:28:56	0	0	4,519765	1,84425	50,7492	-1,351	80,606	0	1008,82	4,5	6,8	6,7	1	1	1	1	1	1	1	1	1	0	1	-70,260747	271,833553	239,335227	0
15.01.2021	02:28:57	0	0	3,050841	1,683	47,7432	-1,357	80,592	0	1008,86	4,5	6,8	6,7	1	1	1	1	1	1	1	1	1	0	1	-68,005638	271,951918	242,129921	0
15.01.2021	02:28:58	0	0	5,19773	1,70475	44,0604	-1,358	80,587	0	1008,9	4,5	7	6,7	1	1	1	1	1	1	1	1	1	0	1	-70,613108	272,010708	239,790718	0
15.01.2021	02:28:59	0	0	4,293777	1,9575	41,544	-1,354	80,588	0	1008,84	4,4	6,8	6,7	1	1	1	1	1	1	1	1	1	0	1	-70,754052	271,942582	239,33892	0
15.01.2021	02:29:00	0	0	3,954794	2,46	45,8568	-1,352	80,593	0	1008,84	4,5	7	6,7	1	1	1	1	1	1	1	1	1	0	1	-71,317829	272,024095	239,147105	0
15.01.2021	02:29:01	0	0	3,954794	2,46	45,8568	-1,352	80,593	0	1008,84	4,5	7	6,7	1	1	1	1	1	1	1	1	1	0	1	-71,317829	272,024095	239,147105	0
15.01.2021	02:29:02	0	0	4,632759	2,40975	0,8892	-1,348	80,59	0	1008,84	4,5	6,8	6,7	1	1	1	1	1	1	1	1	1	0	1	-70,472163	271,878684	239,329465	0
15.01.2021	02:29:03	0	0	2,824853	2,60625	28,818	-1,349	80,584	0	1008,88	4,4	6,8	6,7	1	1	1	1	1	1	1	1	1	0	1	-66,948555	272,012047	243,461379	0
15.01.2021	02:29:04	0	0	2,711859	2,6715	42,2208	-1,354	80,579	0	1008,9	4,4	6,9	6,7	1	1	1	1	1	1	1	1	1	0	1	-72,163495	271,872041	237,607853	0
15.01.2021	02:29:05	0	0	2,824853	2,68575	35,4888	-1,347	80,581	0	1008,84	4,4	6,8	6,7	1	1	1	1	1	1	1	1	1	0	1	-65,539112	272,005356	244,840284	0
15.01.2021	02:29:06	0	0	4,180783	2,658	47,0808	-1,356	80,557	0	1008,84	4,4	6,8	6,7	1	1	1	1	1	1	1	1	1	0	1	-70,68358	272,022756	239,775242	0
15.01.2021	02:29:07	0	0	3,27683	2,7675	43,686	-1,35	80,547	0	1008,82	4,4	6,8	6,7	1	1	1	1	1	1	1	1	1	0	1	-66,948555	271,89996	242,950057	0
15.01.2021	02:29:08	0	0	3,163835	2,76675	51,048	-1,356	80,54	0	1008,88	4,5	7	6,7	1	1	1	1	1	1	1	1	1	0	1	-69,274137	271,868055	240,47905	0
15.01.2021	02:29:09	0	0	3,163835	2,66025	41,4684	-1,353	80,497	0	1008,86	4,3	7	6,7	1	1	1	1	1	1	1	1	1	0	1	-70,824524	271,929252	239,207654	0
15.01.2021	02:29:10	0	0	3,502818	2,55225	34,4196	-1,356	80,485	0	1008,74	4,4	7	6,7	1	1	1	1	1	1	1	1	1	0	1	-66,173362	271,873369	243,604042	0
15.01.2021	02:29:11	0	0	2,711859	2,38125	61,6896	-1,353	80,458	0	1008,84	4,4	7	6,7	1	1	1	1	1	1	1	1	1	0	1	-70,894996	272,020078	239,5516	0
15.01.2021	02:29:12	0	0	4,293777	2,10375	46,6092	-1,352	80,433	0	1008,84	4,4	6,9	6,7	1	1	1	1	1	1	1	1	1	0	1	-69,837914	271,997331	240,504854	0
15.01.2021	02:29:13	0	0	4,180783	1,88775	49,5756	-1,349	80,425	0	1008,86	4,3	7	6,7	1	1	1	1	1	1	1	1	1	0	1	-69,133192	271,954586	241,014539	0
15.01.2021	02:29:14	0	0	3,615812	1,74225	49,1976	-1,349	80,412	0	1008,9	4,4	7	6,7	1	1	1	1	1	1	1	1	1	0	1	-72,30444	271,837531	237,309657	0
15.01.2021	02:29:15	0	0	3,728828	1,67775	57,06	-1,354	80,397	0	1008,94	4,4	7	6,6	1	1	1	1	1	1	1	1	1	0	1	-69,837914	271,902621	240,07283	0
15.01.2021	02:29:16	0	0	4,406771	1,5795	42,9264	-1,347	80,388	0	1008,9	4,5	7	6,7	1	1	1	1	1	1	1	1	1	0	1	-71,811135	272,013385	238,604909	0
15.01.2021	02:29:17	0	0	3,163835	1,47075	33,2496	-1,35	80,364	0	1008,74	4,5	6,8	6,7	1	1	1	1	1	1	1	1	1	0	1	-67,794221	271,889319	242,055883	0
15.01.2021	02:29:18	0	0	4,293777	1,407	48,5208	-1,351	80,346	0	1008,86	4,4	6,8	6,7	1	1	1	1	1	1	1	1	1	0	1	-68,992248	271,845489	240,658107	0
15.01.2021	02:29:19	0	0	2,711859	1,29825	72,306	-1,352	80,344	0	1008,76	4,4	6,9	6,7	1	1	1	1	1	1	1	1	1	0	1	-70,824524	271,882672	238,995279	0
15.01.2021	02:29:20	0	0	2,711859	1,131	67,2912	-1,351	80,334	0	1008,9	4,4	6,8	6,7	1	1	1	1	1	1	1	1	1	0	1	-71,317829	271,979954	238,945641	0
15.01.2021	02:29:21	0	0	4,632759	1,0785	50,3244	-1,357	80,313	0	1008,78	4,4	6,9	6,7	1	1	1	1	1	1	1	1	1	0	1	-69,203665	271,954586	240,944066	0
15.01.2021	02:29:22	0	0	3,728806	1,04775	46,9872	-1,352	80,312	0	1008,92	4,4	6,8	6,7	1	1	1	1	1	1	1	1	1	0	1	-66,596195	271,902621	243,31455	0
15.01.2021	02:29:23	0	0	4,745753	1,0695	80,5356	-1,358	80,299	0	1008,9	4,4	7	6,7	1	1	1	1	1	1	1	1	1	0	1	-66,666667	272,008032	243,724943	0
15.01.2021	02:29:24	0	0	3,954794	0,984	88,9596	-1,362	80,287	0	1008,84	4,4	6,9	6,7	1	1	1	1	1	1	1	1	1	0	1	-68,287526	271,94925	241,835862	0
15.01.2021	02:29:25	0	0	5,19773	0,9225	63,18	-1,349	80,272	0	1008,9	4,4	7	6,7	1	1	1	1	1	1	1	1	1	0	1	-65,327696	271,849469	244,340795	0
15.01.2021	02:29:26	0	0	4,632759	0,963	39,1644	-1,356	80,251	0	1008,94	4,4	6,9	6,7	1	1	1	1	1	1	1	1	1	0	1	-68,498943	271,840183	241,127238	0
15.01.2021	02:29:27	0	0	2,824853	1,01175	54,81	-1,357	80,261	0	1008,9	4,4	6,9	6,7	1	1	1	1	1	1	1	1	1	0	1	-69,908386	271,966599	240,294145	0
15.01.2021	02:29:28	0	0	3,27683	1,28625	36,9252	-1,358	80,25	0	1008,86	4,4	6,9	6,7	1	1	1	1	1	1	1	1	1	0	1	-67,653277	271,844162	241,991033	0
15.01.2021	02:29:29	0	0	4,858747	1,5885	48,798	-1,355	80,257	0	1008,88	4,4	6,9	6,7	1	1	1	1	1	1	1	1	1	0	1	-69,485553	271,889319	240,364551	0
15.01.2021	02:29:30	0	0	4,067788	1,82775	31,7772	-1,352	80,227	0	1008,82	4,4	6,9	6,7	1	1	1	1	1	1	1	1	1	0	1	-68,992248	272,014723	241,429905	0
15.01.2021	02:29:31	0	0	4,745753	1,86375	50,31	-1,353	80,247	0	1008,9	4,4	7	6,7	1	1	1	1	1	1	1	1	1	0	1	-68,710359	271,934583	241,34613	0
15.01.2021	02:29:32	0	0	3,954794	1,896	59,8752	-1,355	80,246	0	1009,02	4,4	6,8	6,7	1	1	1	1	1	1	1	1	1	0	1	-72,163495	272,012047	238,246439	0
15.01.2021	02:29:33	0	0	4,745753	1,8345	73,0764	-1,358	80,248	0	1008,98	4,4	6,9	6,7	1	1	1	1	1	1	1	1	1	0	1	-66,596195	271,906613	243,332752	0
15.01.2021	02:29:34	0	0	3,8418	1,7715	56,286	-1,357	80,232	0	1008,72	4,4	6,9	6,7	1	1	1	1	1	1	1	1	1	0	1	-70,894996	271,99332	239,429464	0
15.01.2021	02:29:35	0	0	4,180783	1,72125	59,8572	-1,361	80,25	0	1009,04	4,4	6,9	6,7	1	1	1	1	1	1	1	1	1	0	1	-71,811135	271,973275	238,42186	0
15.01.2021	02:29:36	0	0	4,858747	1,82175	65,0772	-1,362	80,262	0	1008,92	4,4	6,9	6,7	1	1	1	1	1	1	1	1	1	0	1	-68,780832	271,844162	240,863479	0
15.01.2021	02:29:37	0	0	4,067788	1,94625	51,732	-1,355	80,255	0	1008,82	4,4	6,9	6,7	1	1	1	1	1	1	1	1	1	0	1	-69,837914	271,979954	240,425556	0
15.01.2021	02:29:38	0	0	2,937847	1,8795	53,7408	-1,362	80,256	0	1008,72	4,4	6,9	6,7	1	1	1	1	1	1	1	1	1	0	1	-71,106413	271,881342	238,707332	0
15.01.2021	02:29:39	0	0	3,163835	1,7625	59,5872	-1,355	80,246	0	1008,86	4,4	6,9	6,7	1	1	1	1	1	1	1	1	1	0	1	-68,569415	271,829576	241,008441	0
15.01.2021	02:29:40	0	0	4,632759	1,56375	38,4084	-1,365	80,242	0	1008,8	4,4	6,9	6,7	1	1	1	1	1	1	1	1	1	0	1	-68,780832	271,902621	241,129912	0
15.01.2021	02:29:41	0	0	3,615812	1,5645	70,218	-1,361	80,25	0	1008,88	4,4	6,9	6,7	1	1	1	1	1	1	1	1	1	0	1	-67,44186	271,834879	242,160154	0
15.01.2021	02:29:42	0	0	3,8418	1,60275	71,2512	-1,356	80,239	0	1009	4,4	6,9	6,7	1	1	1	1	1	1	1	1	1	0	1	-66,102889	271,962594	244,081371	0
15.01.2021	02:29:43	0	0	2,937847	1,6155	65,4768	-1,36	80,216	0	1008,88	4,4	6,9	6,7	1	1	1	1	1	1	1	1	1	0	1	-71,176885	271,985299	239,110975	0
15.01.2021	02:29:44	0	0	4,971741	1,572	65,8296	-1,359	80,22	0	1009,02	4,4	6,9	6,7	1	1	1	1	1	1	1	1	1	0	1	-65,257223	271,844162	244,387087	0
15.01.2021	02:29:45	0	0	3,389824	1,53975	57,7368	-1,358	80,214	0	1008,82	4,4	6,9	6,7	1	1	1	1	1	1	1	1	1	0	1	-68,146582	271,945249	241,958555	0
15.01.2021	02:29:46	0	0	3,27683	1,617	51,1236	-1,359	80,208	0	1008,84	4,4	6,9	6,7	1	1	1	1	1	1	1	1	1	0	1	-71,881607	271,861415	237,84132	0
15.01.2021	02:29:47	0	0	4,293777	1,8915	39,186	-1,367	80,2	0	1008,94	4,4	6,9	6,7	1	1	1	1	1	1	1	1	1	0	1	-68,357999	271,826925	241,207782	0
15.01.2021	02:29:48	0	0	3,8418	2,15775	46,2312	-1,361	80,2	0	1008,82	4,4	6,9	6,7	1	1	1	1	1	1	1	1	1	0	1	-67,653277	271,898629	242,23927	0
15.01.2021	02:29:49	0	0	4,519765	2,42625	56,6712	-1,361	80,184	0	1009,02	4,4	6,9	6,7	1	1	1	1	1	1	1	1	1	0	1	-68,569415	271,837531	241,044681	0
15.01.2021	02:29:50	0	0	3,050841	2,5215	46,2204	-1,369	80,176	0	1008,78	4,4	6,9	6,7	1	1	1	1	1	1	1	1	1	0	1	-69,69697	271,870712	240,068324	0
15.01.2021	02:29:51	0	0	4,519765	2,41425	46,2204	-1,365	80,213	0	1008,8	4,4	6,9	6,7	1	1	1	1	1	1	1	1	1	0	1	-69,626498	271,868055	240,126689	0
15.01.2021	02:29:52	0	0	3,389824	2,4285	50,6772	-1,363	80,245	0	1008,74	4,4	6,9	6,7	1	1	1	1	1	1	1	1	1	0	1	-69,415081	271,864071	240,319948	0
15.01.2021	02:29:53	0	0	4,293777	2,2365	53,352	-1,362	80,293	0	1008,88	4,4	6,9	6,7	1	1	1	1	1	1	1	1	1	0	1	-69,274137	271,878684	240,527492	0
15.01.2021	02:29:54	0	0	3,050841	2,1855	44,4096	-1,365	80,334	0	1008,98	4,4	6,9	6,7	1	1	1	1	1	1	1	1	1	0	1	-67,230444	271,837531	242,383652	0
15.01.2021	02:29:55	0	0	5,084736	2,12625	33,6492	-1,367	80,367	0	1008,82	4,4	6,9	6,7	1	1	1	1	1	1	1	1	1	0	1	-68,569415	271,887989	241,274628	0
15.01.2021	02:29:56	0	0	3,954794	2,1615	16,1028	-1,366	80,41	0	1009	4,4	6,9	6,7	1	1	1	1	1	1	1	1	1	0	1	-65,891473	272,008032	244,500137	0
15.01.2021	02:29:57	0	0	3,502818	2,34675	23,9724	-1,371	80,43	0	1008,78	4,4	6,9	6,7	1	1	1	1	1	1	1	1	1	0	1	-66,102889	271,88666	243,735093	0
15.01.2021	02:29:58	0	0	2,937847	2,45775	18,4644	-1,364	80,458	0	1008,94	4,4	6,9	6,7	1	1	1	1	1	1	1	1	1	0	1	-65,609584	271,934583	244,446905	0
15.01.2021	02:29:59	0	0	3,050841	2,55075	28,3644	-1,363	80,487	0	1008,94	4,4	6,9	6,7	1	1	1	1	1	1	1	1	1	0	1	-68,287526	272,025434	242,183522	0
15.01.2021	02:30:00	0	0	2,937847	2,3685	22,0968	-1,369	80,542	0	1008,84	4,4	6,9	6,7	1	1	1	1	1	1	1	1	1	0	1	-68,921776	271,959924	241,250306	0
15.01.2021	02:30:01	0	0	2,937847	2,3685	22,0968	-1,369	80,542	0	1008,84	4,4	6,9	6,7	1	1	1	1	1	1	1	1	1	0	1	-68,921776	271,959924	241,250306	0
15.01.2021	02:30:02	0	0	2,598865	2,08125	4,1004	-1,365	80,578	0	1008,94	4,4	6,9	6,7	1	1	1	1	1	1	1	1	1	0	1	-70,401691	272,024095	240,063244	0
15.01.2021	02:30:03	0	0	4,745753	1,79775	28,3716	-1,363	80,595	0	1008,86	4,4	6,9	6,7	1	1	1	1	1	1	1	1	1	0	1	-70,68358	271,959924	239,488502	0
15.01.2021	02:30:04	0	0	4,067788	1,629	26,91	-1,365	80,614	0	1008,82	4,4	6,9	6,7	1	1	1	1	1	1	1	1	1	0	1	-69,344609	271,99332	240,979852	0
15.01.2021	02:30:05	0	0	4,971741	1,52925	36,6156	-1,364	80,619	0	1008,86	4,4	6,9	6,7	1	1	1	1	1	1	1	1	1	0	1	-67,582805	272,029453	242,906589	0
15.01.2021	02:30:06	0	0	3,163835	1,512	58,8708	-1,366	80,657	0	1008,94	4,4	6,9	6,7	1	1	1	1	1	1	1	1	1	0	1	-68,921776	271,953252	241,219869	0
15.01.2021	02:30:07	0	0	5,084736	1,536	70,6068	-1,361	80,666	0	1008,92	4,4	6,9	6,7	1	1	1	1	1	1	1	1	1	0	1	-69,485553	272,024095	240,979382	0
15.01.2021	02:30:08	0	0	4,293777	1,377	77,5836	-1,364	80,66	0	1008,82	4,4	6,9	6,7	1	1	1	1	1	1	1	1	1	0	1	-65,680056	272,000006	244,674919	0
15.01.2021	02:30:09	0	0	3,050841	1,28775	59,4756	-1,362	80,672	0	1008,84	4,4	6,9	6,7	1	1	1	1	1	1	1	1	1	0	1	-65,821001	271,923923	244,186874	0
15.01.2021	02:30:10	0	0	3,27683	1,518	63,4968	-1,364	80,679	0	1008,98	4,4	6,9	6,7	1	1	1	1	1	1	1	1	1	0	1	-69,203665	271,857433	240,501112	0
15.01.2021	02:30:11	0	0	5,19773	1,70025	76,3704	-1,362	80,677	0	1008,96	4,4	6,9	6,7	1	1	1	1	1	1	1	1	1	0	1	-71,740662	271,997331	238,602105	0
15.01.2021	02:30:12	0	0	5,19773	1,69275	60,2496	-1,358	80,694	0	1008,92	4,4	6,9	6,7	1	1	1	1	1	1	1	1	1	0	1	-71,811135	271,873369	237,966269	0
15.01.2021	02:30:13	0	0	4,632759	1,66575	41,4612	-1,365	80,692	0	1008,92	4,4	6,9	6,7	1	1	1	1	1	1	1	1	1	0	1	-68,287526	272,024095	242,177408	0
15.01.2021	02:30:14	0	0	2,711859	1,5915	33,2748	-1,361	80,66	0	1008,94	4,4	6,9	6,7	1	1	1	1	1	1	1	1	1	0	1	-67,512333	271,961259	242,665838	0
15.01.2021	02:30:15	0	0	4,745753	1,5015	46,5984	-1,368	80,674	0	1008,86	4,4	6,9	6,7	1	1	1	1	1	1	1	1	1	0	1	-68,146582	272,008032	242,245028	0
15.01.2021	02:30:16	0	0	3,502818	1,4415	79,7688	-1,36	80,659	0	1008,88	4,4	6,9	6,7	1	1	1	1	1	1	1	1	1	0	1	-67,0895	271,866727	242,657634	0
15.01.2021	02:30:17	0	0	3,728806	1,51575	73,4508	-1,359	80,634	0	1008,94	4,4	6,9	6,7	1	1	1	1	1	1	1	1	1	0	1	-67,371388	272,020078	243,075208	0
15.01.2021	02:30:18	0	0	4,519765	1,5795	59,8464	-1,36	80,606	0	1008,94	4,4	6,9	6,7	1	1	1	1	1	1	1	1	1	0	1	-68,357999	272,000006	241,996976	0
15.01.2021	02:30:19	0	0	4,858747	1,49175	41,472	-1,362	80,583	0	1008,84	4,4	6,9	6,7	1	1	1	1	1	1	1	1	1	0	1	-66,737139	271,943915	243,361916	0
15.01.2021	02:30:20	0	0	4,858747	1,4865	64,6812	-1,362	80,548	0	1008,94	4,4	6,9	6,7	1	1	1	1	1	1	1	1	1	0	1	-68,287526	272,026774	242,189637	0
15.01.2021	02:30:21	0	0	3,954794	1,5885	38,8116	-1,366	80,514	0	1008,84	4,4	6,9	6,7	1	1	1	1	1	1	1	1	1	0	1	-72,515856	271,934583	237,540633	0
15.01.2021	02:30:22	0	0	3,8418	1,791	70,236	-1,359	80,463	0	1008,84	4,4	6,9	6,7	1	1	1	1	1	1	1	1	1	0	1	-66,948555	272,025434	243,522493	0
15.01.2021	02:30:23	0	0	4,971741	1,81275	80,9028	-1,363	80,415	0	1008,88	4,4	6,9	6,7	1	1	1	1	1	1	1	1	1	0	1	-71,740662	272,008032	238,650947	0
15.01.2021	02:30:24	0	0	4,971741	1,668	55,5804	-1,365	80,399	0	1008,94	4,4	6,9	6,7	1	1	1	1	1	1	1	1	1	0	1	-70,68358	271,873369	239,093824	0
15.01.2021	02:30:25	0	0	3,163835	1,49025	44,4132	-1,366	80,367	0	1008,88	4,4	6,9	6,7	1	1	1	1	1	1	1	1	1	0	1	-68,428471	271,856105	241,270257	0
15.01.2021	02:30:26	0	0	3,728806	1,49025	36,9216	-1,365	80,332	0	1008,88	4,4	6,9	6,7	1	1	1	1	1	1	1	1	1	0	1	-66,737139	271,943915	243,361916	0
15.01.2021	02:30:27	0	0	2,598865	1,5465	74,9376	-1,36	80,333	0	1008,92	4,4	6,9	6,7	1	1	1	1	1	1	1	1	1	0	1	-68,569415	271,862743	241,159562	0
15.01.2021	02:30:28	0	0	3,389824	1,51275	73,7784	-1,363	80,302	0	1008,84	4,4	6,9	6,7	1	1	1	1	1	1	1	1	1	0	1	-67,300916	271,844162	242,343394	0
15.01.2021	02:30:29	0	0	3,615812	1,46175	67,6764	-1,363	80,275	0	1008,92	4,4	6,9	6,7	1	1	1	1	1	1	1	1	1	0	1	-72,374912	271,938582	237,699817	0
15.01.2021	02:30:30	0	0	2,711859	1,34625	57,7476	-1,366	80,248	0	1008,88	4,4	6,9	6,7	1	1	1	1	1	1	1	1	1	0	1	-68,851304	272,010708	241,552522	0
15.01.2021	02:30:31	0	0	3,8418	1,2435	58,9608	-1,363	80,222	0	1008,9	4,4	6,9	6,7	1	1	1	1	1	1	1	1	1	0	1	-66,243834	271,946582	243,867387	0
15.01.2021	02:30:32	0	0	4,745753	1,1955	59,0724	-1,365	80,216	0	1008,94	4,4	6,9	6,7	1	1	1	1	1	1	1	1	1	0	1	-65,609584	272,004019	244,763706	0
15.01.2021	02:30:33	0	0	2,937847	1,20525	67,2984	-1,363	80,202	0	1009,1	4,4	6,9	6,7	1	1	1	1	1	1	1	1	1	0	1	-63,636364	271,85876	246,074462	0
15.01.2021	02:30:34	0	0	3,27683	1,22775	56,682	-1,367	80,174	0	1008,78	4,4	6,9	6,7	1	1	1	1	1	1	1	1	1	0	1	-69,767442	271,930585	240,270813	0
15.01.2021	02:30:35	0	0	3,8418	1,26	64,2348	-1,371	80,173	0	1008,92	4,4	6,9	6,7	1	1	1	1	1	1	1	1	1	0	1	-69,556025	272,006694	240,829477	0
15.01.2021	02:30:36	0	0	3,8418	1,27575	63,1728	-1,365	80,151	0	1008,78	4,4	6,9	6,7	1	1	1	1	1	1	1	1	1	0	1	-71,035941	271,945249	239,069196	0
15.01.2021	02:30:37	0	0	2,711859	1,302	45,1548	-1,371	80,14	0	1008,96	4,4	6,9	6,7	1	1	1	1	1	1	1	1	1	0	1	-67,371388	271,998668	242,977483	0
15.01.2021	02:30:38	0	0	3,615812	1,34475	37,6848	-1,354	80,102	0	1009	4,4	6,9	6,7	1	1	1	1	1	1	1	1	1	0	1	-66,102889	272,012047	244,307045	0
15.01.2021	02:30:39	0	0	3,163835	1,5135	60,246	-1,371	80,089	0	1008,9	4,4	6,9	6,7	1	1	1	1	1	1	1	1	1	0	1	-69,556025	271,919927	240,433627	0
15.01.2021	02:30:40	0	0	4,745782	1,47825	59,868	-1,37	80,063	0	1008,92	4,4	6,8	6,6	1	1	1	1	1	1	1	1	1	0	1	-68,428471	271,842836	241,209796	0
15.01.2021	02:30:41	0	0	2,824853	1,419	47,3724	-1,377	80,051	0	1008,84	4,4	6,9	6,7	1	1	1	1	1	1	1	1	1	0	1	-71,035941	271,891979	238,826287	0
15.01.2021	02:30:42	0	0	2,711859	1,3875	41,8608	-1,374	80,043	0	1008,96	4,4	6,9	6,7	1	1	1	1	1	1	1	1	1	0	1	-68,005638	271,963929	242,184712	0
15.01.2021	02:30:43	0	0	2,937847	1,473	51,4584	-1,377	80,022	0	1008,68	4,4	6,9	6,7	1	1	1	1	1	1	1	1	1	0	1	-69,978858	271,841509	239,653365	0
15.01.2021	02:30:44	0	0	4,745753	1,7025	45,5472	-1,374	80,016	0	1008,86	4,4	6,8	6,7	1	1	1	1	1	1	1	1	1	0	1	-71,106413	271,954586	239,041318	0
15.01.2021	02:30:45	0	0	2,711859	1,884	66,9276	-1,375	80,003	0	1008,94	4,4	6,9	6,7	1	1	1	1	1	1	1	1	1	0	1	-65,46864	271,953252	244,673005	0
15.01.2021	02:30:46	0	0	4,745753	1,87725	61,7004	-1,375	79,973	0	1008,78	4,4	6,8	6,7	1	1	1	1	1	1	1	1	1	0	1	-65,257223	271,833553	244,338751	0
15.01.2021	02:30:47	0	0	5,084736	1,773	58,4748	-1,374	79,984	0	1008,9	4,4	6,8	6,7	1	1	1	1	1	1	1	1	1	0	1	-68,357999	271,884001	241,467864	0
15.01.2021	02:30:48	0	0	4,632787	1,76325	55,566	-1,381	79,977	0	1008,88	4,4	6,9	6,6	1	1	1	1	1	1	1	1	1	0	1	-67,723749	271,841509	241,908474	0
15.01.2021	02:30:49	0	0	4,745782	1,731	59,1228	-1,382	79,963	0	1008,9	4,4	6,9	6,6	1	1	1	1	1	1	1	1	1	0	1	-68,428471	271,963929	241,761879	0
15.01.2021	02:30:50	0	0	4,519765	1,75725	68,7708	-1,38	79,954	0	1008,9	4,4	6,9	6,7	1	1	1	1	1	1	1	1	1	0	1	-64,975335	271,838857	244,644803	0
15.01.2021	02:30:51	0	0	4,519792	1,70025	63,4896	-1,377	79,938	0	1008,98	4,4	6,8	6,6	1	1	1	1	1	1	1	1	1	0	1	-65,46864	271,82825	244,103178	0
15.01.2021	02:30:52	0	0	2,824853	1,63125	50,2992	-1,375	79,939	0	1008,94	4,4	6,9	6,7	1	1	1	1	1	1	1	1	1	0	1	-70,190275	271,889319	239,659829	0
15.01.2021	02:30:53	0	0	5,084736	1,65075	59,2092	-1,379	79,919	0	1009,02	4,4	6,9	6,7	1	1	1	1	1	1	1	1	1	0	1	-71,106413	272,010708	239,297412	0
15.01.2021	02:30:54	0	0	4,971771	1,719	57,7332	-1,383	79,937	0	1008,9	4,4	6,8	6,6	1	1	1	1	1	1	1	1	1	0	1	-70,894996	271,970604	239,325811	0
15.01.2021	02:30:55	0	0	3,163835	1,6875	54,4968	-1,38	79,935	0	1008,96	4,4	6,8	6,7	1	1	1	1	1	1	1	1	1	0	1	-72,30444	271,868055	237,448747	0
15.01.2021	02:30:56	0	0	2,937847	1,60575	59,8608	-1,381	79,927	0	1008,96	4,4	6,9	6,7	1	1	1	1	1	1	1	1	1	0	1	-70,260747	271,840183	239,365433	0
15.01.2021	02:30:57	0	0	5,084736	1,51125	56,6712	-1,383	79,926	0	1008,92	4,4	6,8	6,7	1	1	1	1	1	1	1	1	1	0	1	-70,68358	271,978618	239,573794	0
15.01.2021	02:30:58	0	0	2,824836	1,43475	52,524	-1,387	79,91	0	1008,92	4,4	6,9	6,8	1	1	1	1	1	1	1	1	1	0	1	-70,049331	271,844162	239,59498	0
15.01.2021	02:30:59	0	0	3,389844	1,45425	38,8116	-1,389	79,883	0	1009,02	4,4	6,9	6,6	1	1	1	1	1	1	1	1	1	0	1	-69,485553	271,830901	240,098342	0
15.01.2021	02:31:00	0	0	3,8418	1,5555	74,1708	-1,389	79,904	0	1008,92	4,4	6,8	6,7	1	1	1	1	1	1	1	1	1	0	1	-69,485553	271,830901	240,098342	0
15.01.2021	02:31:01	0	0	3,8418	1,5555	74,1708	-1,389	79,904	0	1008,92	4,4	6,8	6,7	1	1	1	1	1	1	1	1	1	0	1	-69,485553	271,830901	240,098342	0
15.01.2021	02:31:02	0	0	3,276849	1,46775	75,24	-1,389	79,902	0	1008,94	4,4	6,9	6,6	1	1	1	1	1	1	1	1	1	0	1	-66,314306	271,977283	243,936972	0
15.01.2021	02:31:03	0	0	3,276849	1,34325	62,802	-1,394	79,903	0	1008,88	4,4	6,8	6,6	1	1	1	1	1	1	1	1	1	0	1	-67,653277	271,931917	242,391056	0
15.01.2021	02:31:04	0	0	3,954818	1,2285	77,6628	-1,39	79,905	0	1008,98	4,4	6,9	6,6	1	1	1	1	1	1	1	1	1	0	1	-65,680056	272,001343	244,681023	0
15.01.2021	02:31:05	0	0	3,163854	1,27425	84,7908	-1,399	79,905	0	1008,92	4,4	6,8	6,6	1	1	1	1	1	1	1	1	1	0	1	-65,891473	271,93325	244,158938	0
15.01.2021	02:31:06	0	0	4,067813	1,3695	54,108	-1,401	79,922	0	1008,9	4,4	6,8	6,6	1	1	1	1	1	1	1	1	1	0	1	-69,485553	272,013385	240,93049	0
15.01.2021	02:31:07	0	0	4,293751	1,48725	70,8552	-1,393	79,929	0	1008,94	4,4	6,8	6,8	1	1	1	1	1	1	1	1	1	0	1	-69,556025	271,922591	240,445775	0
15.01.2021	02:31:08	0	0	4,632759	1,60275	56,2896	-1,396	79,925	0	1008,76	4,4	6,8	6,7	1	1	1	1	1	1	1	1	1	0	1	-72,656801	271,887989	237,187242	0
15.01.2021	02:31:09	0	0	3,163835	1,704	75,9996	-1,394	79,927	0	1008,88	4,4	6,8	6,7	1	1	1	1	1	1	1	1	1	0	1	-70,68358	271,979954	239,57989	0
15.01.2021	02:31:10	0	0	2,711859	1,80225	59,1228	-1,396	79,926	0	1008,96	4,4	6,9	6,7	1	1	1	1	1	1	1	1	1	0	1	-67,794221	271,942582	242,298751	0
15.01.2021	02:31:11	0	0	3,954818	1,82325	49,194	-1,396	79,93	0	1008,88	4,4	6,9	6,6	1	1	1	1	1	1	1	1	1	0	1	-67,582805	272,014723	242,839348	0
15.01.2021	02:31:12	0	0	4,293777	1,92525	43,5096	-1,403	79,946	0	1008,82	4,4	6,8	6,7	1	1	1	1	1	1	1	1	1	0	1	-69,69697	271,905282	240,225909	0
15.01.2021	02:31:13	0	0	3,163854	1,9755	52,1316	-1,402	79,991	0	1008,82	4,4	6,8	6,6	1	1	1	1	1	1	1	1	1	0	1	-68,992248	272,004019	241,381042	0
15.01.2021	02:31:14	0	0	4,632787	1,88925	59,8608	-1,399	80,018	0	1008,98	4,4	6,8	6,6	1	1	1	1	1	1	1	1	1	0	1	-71,176885	271,987972	239,123173	0
15.01.2021	02:31:15	0	0	4,971741	1,6785	62,028	-1,402	80,035	0	1008,9	4,4	6,8	6,7	1	1	1	1	1	1	1	1	1	0	1	-65,609584	271,954586	244,538147	0
15.01.2021	02:31:16	0	0	2,59888	1,52325	56,2968	-1,403	80,06	0	1008,86	4,4	6,8	6,6	1	1	1	1	1	1	1	1	1	0	1	-69,415081	271,826925	240,150699	0
15.01.2021	02:31:17	0	0	4,745782	1,38825	54,7848	-1,399	80,087	0	1009,06	4,4	6,8	6,6	1	1	1	1	1	1	1	1	1	0	1	-70,824524	271,959924	239,347557	0
15.01.2021	02:31:18	0	0	4,632787	1,24575	65,4516	-1,398	80,12	0	1008,86	4,4	6,8	6,6	1	1	1	1	1	1	1	1	1	0	1	-64,552502	271,947916	245,564803	0
15.01.2021	02:31:19	0	0	3,163835	1,13325	89,3376	-1,403	80,131	0	1008,7	4,4	6,8	6,7	1	1	1	1	1	1	1	1	1	0	1	-67,864693	271,8256	241,69505	0
15.01.2021	02:31:20	0	0	2,937865	1,15575	84,4236	-1,403	80,171	0	1008,94	4,4	6,8	6,6	1	1	1	1	1	1	1	1	1	0	1	-68,710359	271,935916	241,352209	0
15.01.2021	02:31:21	0	0	3,163854	1,19175	68,022	-1,4	80,184	0	1008,68	4,4	6,8	6,6	1	1	1	1	1	1	1	1	1	0	1	-70,260747	271,877355	239,534825	0
15.01.2021	02:31:22	0	0	3,615834	1,28925	74,1996	-1,408	80,184	0	1008,72	4,4	6,8	6,6	1	1	1	1	1	1	1	1	1	0	1	-72,093023	271,969269	238,121692	0
15.01.2021	02:31:23	0	0	3,954818	1,386	72,3024	-1,406	80,194	0	1009,08	4,4	6,8	6,6	1	1	1	1	1	1	1	1	1	0	1	-67,159972	271,862743	242,569006	0
15.01.2021	02:31:24	0	0	4,406771	1,48425	58,122	-1,406	80,178	0	1009,02	4,4	6,8	6,7	1	1	1	1	1	1	1	1	1	0	1	-69,978858	272,000006	240,376117	0
15.01.2021	02:31:25	0	0	2,937847	1,59975	68,4144	-1,404	80,196	0	1008,92	4,4	6,8	6,7	1	1	1	1	1	1	1	1	1	0	1	-69,274137	271,876026	240,515378	0
15.01.2021	02:31:26	0	0	5,310724	1,6215	63,8784	-1,401	80,203	0	1009,2	4,4	6,8	6,7	1	1	1	1	1	1	1	1	1	0	1	-69,274137	272,000006	241,080838	0
15.01.2021	02:31:27	0	0	3,163835	1,5285	76,0212	-1,405	80,177	0	1008,9	4,4	6,8	6,7	1	1	1	1	1	1	1	1	1	0	1	-66,737139	271,925255	243,276811	0
15.01.2021	02:31:28	0	0	5,423718	1,422	57,4272	-1,406	80,166	0	1008,78	4,4	6,8	6,7	1	1	1	1	1	1	1	1	1	0	1	-67,159972	271,975947	243,085211	0
15.01.2021	02:31:29	0	0	3,05086	1,413	55,2816	-1,407	80,178	0	1008,92	4,4	6,8	6,6	1	1	1	1	1	1	1	1	1	0	1	-69,203665	271,840183	240,422516	0
15.01.2021	02:31:30	0	0	2,372891	1,2615	79,4232	-1,409	80,143	0	1008,92	4,4	6,8	6,6	1	1	1	1	1	1	1	1	1	0	1	-67,864693	271,92792	242,161408	0
15.01.2021	02:31:31	0	0	4,745753	1,28625	70,6176	-1,409	80,123	0	1008,92	4,4	6,8	6,7	1	1	1	1	1	1	1	1	1	0	1	-73,784355	271,816325	235,733142	0
15.01.2021	02:31:32	0	0	2,937865	1,23375	51,444	-1,415	80,125	0	1008,96	4,4	6,8	6,6	1	1	1	1	1	1	1	1	1	0	1	-68,569415	271,929252	241,462763	0
15.01.2021	02:31:33	0	0	3,728806	1,2765	54,8208	-1,412	80,111	0	1008,72	4,4	6,8	6,7	1	1	1	1	1	1	1	1	1	0	1	-70,049331	271,991983	240,269029	0
15.01.2021	02:31:34	0	0	2,937865	1,36425	24,7428	-1,398	80,108	0	1008,8	4,4	6,8	6,6	1	1	1	1	1	1	1	1	1	0	1	-70,260747	271,848142	239,401698	0
15.01.2021	02:31:35	0	0	4,858747	1,491	28,7424	-1,411	80,106	0	1008,88	4,4	6,8	6,7	1	1	1	1	1	1	1	1	1	0	1	-68,992248	271,880013	240,815438	0
15.01.2021	02:31:36	0	0	3,954818	1,45575	88,6032	-1,409	80,125	0	1008,96	4,4	6,8	6,6	1	1	1	1	1	1	1	1	1	0	1	-70,68358	271,830901	238,900315	0
15.01.2021	02:31:37	0	0	4,858776	1,35675	108,504	-1,412	80,128	0	1008,82	4,4	6,8	6,6	1	1	1	1	1	1	1	1	1	0	1	-66,737139	271,865399	243,003942	0
15.01.2021	02:31:38	0	0	4,519792	1,34775	72,3276	-1,417	80,146	0	1008,82	4,4	6,8	6,6	1	1	1	1	1	1	1	1	1	0	1	-67,44186	271,838857	242,178278	0
15.01.2021	02:31:39	0	0	4,519765	1,3515	66,2184	-1,411	80,147	0	1008,98	4,4	7	6,7	1	1	1	1	1	1	1	1	1	0	1	-67,371388	271,987972	242,92867	0
15.01.2021	02:31:40	0	0	4,519765	1,28325	73,764	-1,412	80,157	0	1008,9	4,4	6,8	6,7	1	1	1	1	1	1	1	1	1	0	1	-72,656801	271,9146	237,308563	0
15.01.2021	02:31:41	0	0	4,632787	1,311	71,6328	-1,412	80,162	0	1008,94	4,4	6,8	6,6	1	1	1	1	1	1	1	1	1	0	1	-69,133192	271,977283	241,118086	0
15.01.2021	02:31:42	0	0	3,8418	1,2615	65,4696	-1,416	80,143	0	1008,68	4,4	6,8	6,7	1	1	1	1	1	1	1	1	1	0	1	-69,133192	271,849469	240,535298	0
15.01.2021	02:31:43	0	0	4,067813	1,17525	63,4968	-1,417	80,147	0	1008,8	4,4	6,8	6,6	1	1	1	1	1	1	1	1	1	0	1	-71,740662	271,874698	238,042797	0
15.01.2021	02:31:44	0	0	3,8418	1,10475	66,222	-1,415	80,162	0	1008,88	4,5	6,8	6,7	1	1	1	1	1	1	1	1	1	0	1	-68,498943	271,841509	241,13328	0
15.01.2021	02:31:45	0	0	3,163854	1,12275	59,85	-1,415	80,141	0	1008,86	4,4	6,8	6,6	1	1	1	1	1	1	1	1	1	0	1	-63,424947	271,930585	246,613308	0
15.01.2021	02:31:46	0	0	3,954794	1,206	57,7476	-1,412	80,138	0	1009,02	4,4	6,8	6,7	1	1	1	1	1	1	1	1	1	0	1	-72,022551	271,962594	238,161709	0
15.01.2021	02:31:47	0	0	3,389844	1,251	62,7912	-1,418	80,144	0	1008,98	4,4	6,8	6,6	1	1	1	1	1	1	1	1	1	0	1	-67,794221	271,915932	242,177214	0
15.01.2021	02:31:48	0	0	3,389824	1,3275	58,1292	-1,414	80,142	0	1008,94	4,4	6,8	6,7	1	1	1	1	1	1	1	1	1	0	1	-77,51938	271,979954	232,74409	0
15.01.2021	02:31:49	0	0	4,632759	1,37175	36,6372	-1,416	80,131	0	1008,92	4,4	6,8	6,7	1	1	1	1	1	1	1	1	1	0	1	-71,881607	271,868055	237,87158	0
15.01.2021	02:31:50	0	0	3,615812	1,50525	37,7064	-1,42	80,148	0	1008,84	4,4	6,8	6,7	1	1	1	1	1	1	1	1	1	0	1	-64,83439	271,978618	245,422984	0
15.01.2021	02:31:51	0	0	4,858776	1,713	54,486	-1,421	80,154	0	1008,86	4,4	6,8	6,6	1	1	1	1	1	1	1	1	1	0	1	-67,794221	271,836205	241,813834	0
15.01.2021	02:31:52	0	0	4,632759	1,962	39,5604	-1,421	80,162	0	1008,86	4,3	6,8	6,7	1	1	1	1	1	1	1	1	1	0	1	-68,921776	271,9146	241,043588	0
15.01.2021	02:31:53	0	0	4,971741	2,12325	64,6488	-1,415	80,168	0	1008,94	4,4	6,8	6,7	1	1	1	1	1	1	1	1	1	0	1	-67,582805	271,862743	242,146173	0
15.01.2021	02:31:54	0	0	4,858747	2,205	65,4696	-1,421	80,155	0	1008,9	4,4	6,8	6,7	1	1	1	1	1	1	1	1	1	0	1	-68,780832	271,821624	240,760803	0
15.01.2021	02:31:55	0	0	4,180808	2,35275	64,62	-1,417	80,173	0	1009,02	4,4	6,8	6,6	1	1	1	1	1	1	1	1	1	0	1	-72,586328	271,873369	237,191075	0
15.01.2021	02:31:56	0	0	4,971741	2,30025	59,0976	-1,423	80,181	0	1008,68	4,5	6,8	6,7	1	1	1	1	1	1	1	1	1	0	1	-69,978858	271,8256	239,580885	0
15.01.2021	02:31:57	0	0	3,163835	2,35125	57,726	-1,419	80,178	0	1008,94	4,4	6,8	6,7	1	1	1	1	1	1	1	1	1	0	1	-67,371388	271,94925	242,752	0
15.01.2021	02:31:58	0	0	3,841823	2,26725	56,2932	-1,421	80,178	0	1008,86	4,4	6,8	6,6	1	1	1	1	1	1	1	1	1	0	1	-72,445384	271,822949	237,102286	0
15.01.2021	02:31:59	0	0	5,423718	2,169	64,242	-1,42	80,169	0	1008,74	4,4	6,8	6,7	1	1	1	1	1	1	1	1	1	0	1	-73,29105	271,965264	236,905391	0
15.01.2021	02:32:00	0	0	3,841823	1,959	65,8224	-1,426	80,149	0	1008,7	4,4	6,8	6,6	1	1	1	1	1	1	1	1	1	0	1	-68,851304	271,965264	241,345137	0
15.01.2021	02:32:01	0	0	3,841823	1,959	65,8224	-1,426	80,149	0	1008,7	4,4	6,8	6,6	1	1	1	1	1	1	1	1	1	0	1	-68,851304	271,965264	241,345137	0
15.01.2021	02:32:02	0	0	5,084736	1,8735	62,496	-1,425	80,161	0	1008,86	4,4	6,8	6,7	1	1	1	1	1	1	1	1	1	0	1	-72,445384	271,878684	237,356245	0
15.01.2021	02:32:03	0	0	3,728828	1,85775	64,638	-1,425	80,158	0	1008,9	4,5	6,8	6,6	1	1	1	1	1	1	1	1	1	0	1	-69,06272	271,818974	240,466845	0
15.01.2021	02:32:04	0	0	3,050841	1,806	66,9096	-1,425	80,163	0	1008,8	4,4	6,8	6,7	1	1	1	1	1	1	1	1	1	0	1	-68,005638	271,822949	241,542033	0
15.01.2021	02:32:05	0	0	2,485871	1,63425	71,2476	-1,425	80,147	0	1008,76	4,5	6,8	6,7	1	1	1	1	1	1	1	1	1	0	1	-65,46864	271,918595	244,51494	0
15.01.2021	02:32:06	0	0	3,615834	1,52175	57,7512	-1,434	80,136	0	1008,86	4,4	6,8	6,6	1	1	1	1	1	1	1	1	1	0	1	-70,119803	271,99332	240,204658	0
15.01.2021	02:32:07	0	0	3,728806	1,461	64,638	-1,425	80,13	0	1008,82	4,5	6,8	6,7	1	1	1	1	1	1	1	1	1	0	1	-70,049331	271,882672	239,770473	0
15.01.2021	02:32:08	0	0	2,711859	1,46475	49,1976	-1,428	80,11	0	1008,82	4,4	6,8	6,7	1	1	1	1	1	1	1	1	1	0	1	-70,260747	271,829576	239,317109	0
15.01.2021	02:32:09	0	0	3,27683	1,5105	64,6164	-1,425	80,106	0	1009,02	4,4	6,8	6,7	1	1	1	1	1	1	1	1	1	0	1	-70,401691	271,830901	239,182204	0
15.01.2021	02:32:10	0	0	4,745753	1,554	75,9672	-1,426	80,08	0	1008,94	4,3	6,8	6,7	1	1	1	1	1	1	1	1	1	0	1	-70,190275	271,880013	239,617412	0
15.01.2021	02:32:11	0	0	3,389824	1,506	60,5664	-1,425	80,083	0	1008,94	4,4	6,8	6,7	1	1	1	1	1	1	1	1	1	0	1	-63,495419	271,997331	246,847348	0
15.01.2021	02:32:12	0	0	3,615834	1,45125	76,8096	-1,432	80,062	0	1008,82	4,4	6,8	6,6	1	1	1	1	1	1	1	1	1	0	1	-66,807611	271,922591	243,194189	0
15.01.2021	02:32:13	0	0	3,8418	1,434	60,5592	-1,431	80,079	0	1008,98	4,3	6,8	6,7	1	1	1	1	1	1	1	1	1	0	1	-68,569415	271,985299	241,718445	0
15.01.2021	02:32:14	0	0	3,954794	1,446	68,418	-1,436	80,062	0	1009,02	4,5	6,8	6,7	1	1	1	1	1	1	1	1	1	0	1	-70,613108	271,833553	238,982866	0
15.01.2021	02:32:15	0	0	4,406771	1,34775	97,6608	-1,436	80,068	0	1008,88	4,3	6,8	6,7	1	1	1	1	1	1	1	1	1	0	1	-65,116279	271,854778	244,5764	0
15.01.2021	02:32:16	0	0	3,050841	1,29225	94,0968	-1,428	80,073	0	1009,04	4,4	6,8	6,7	1	1	1	1	1	1	1	1	1	0	1	-69,06272	271,974611	241,176368	0
15.01.2021	02:32:17	0	0	2,711859	1,287	75,6288	-1,429	80,063	0	1008,96	4,4	6,8	6,7	1	1	1	1	1	1	1	1	1	0	1	-70,965469	271,930585	239,072787	0
15.01.2021	02:32:18	0	0	5,19773	1,3395	82,9764	-1,432	80,083	0	1008,92	4,3	6,8	6,7	1	1	1	1	1	1	1	1	1	0	1	-72,727273	271,987972	237,572785	0
15.01.2021	02:32:19	0	0	3,502818	1,31175	63,5076	-1,434	80,071	0	1009,14	4,4	6,8	6,7	1	1	1	1	1	1	1	1	1	0	1	-71,740662	271,94925	238,382726	0
15.01.2021	02:32:20	0	0	2,711875	1,3245	57,0564	-1,434	80,098	0	1008,86	4,4	6,8	6,6	1	1	1	1	1	1	1	1	1	0	1	-72,445384	271,99332	237,879076	0
15.01.2021	02:32:21	0	0	4,293777	1,46025	50,328	-1,434	80,113	0	1008,88	4,4	6,8	6,7	1	1	1	1	1	1	1	1	1	0	1	-67,864693	271,870712	241,9006	0
15.01.2021	02:32:22	0	0	4,745753	1,5885	60,9264	-1,433	80,13	0	1009,1	4,4	6,8	6,7	1	1	1	1	1	1	1	1	1	0	1	-69,626498	271,845489	240,023857	0
15.01.2021	02:32:23	0	0	4,293777	1,70625	74,5524	-1,436	80,14	0	1008,98	4,4	6,8	6,7	1	1	1	1	1	1	1	1	1	0	1	-73,361522	272,000006	236,993453	0
15.01.2021	02:32:24	0	0	4,971741	1,77	75,618	-1,431	80,165	0	1009	4,4	6,8	6,7	1	1	1	1	1	1	1	1	1	0	1	-65,891473	271,931917	244,15286	0
15.01.2021	02:32:25	0	0	3,163835	1,674	84,7656	-1,435	80,183	0	1009	4,4	6,8	6,7	1	1	1	1	1	1	1	1	1	0	1	-71,599718	271,821624	237,941917	0
15.01.2021	02:32:26	0	0	4,745753	1,56375	83,3436	-1,439	80,176	0	1008,68	4,4	6,8	6,7	1	1	1	1	1	1	1	1	1	0	1	-66,878083	271,951918	243,257476	0
15.01.2021	02:32:27	0	0	4,293777	1,4265	92,6568	-1,442	80,196	0	1008,9	4,3	6,8	6,7	1	1	1	1	1	1	1	1	1	0	1	-66,45525	271,830901	243,128645	0
15.01.2021	02:32:28	0	0	4,519765	1,41225	75,9816	-1,436	80,215	0	1008,82	4,5	6,8	6,7	1	1	1	1	1	1	1	1	1	0	1	-70,542636	271,986636	239,751323	0
15.01.2021	02:32:29	0	0	3,163835	1,4895	80,9064	-1,432	80,231	0	1008,92	4,4	6,8	6,7	1	1	1	1	1	1	1	1	1	0	1	-72,233968	271,897299	237,652514	0
15.01.2021	02:32:30	0	0	4,067788	1,5075	73,7892	-1,434	80,242	0	1008,96	4,4	6,8	6,7	1	1	1	1	1	1	1	1	1	0	1	-65,116279	271,830901	244,467616	0
15.01.2021	02:32:31	0	0	4,406771	1,506	70,236	-1,435	80,234	0	1008,84	4,4	6,8	6,7	1	1	1	1	1	1	1	1	1	0	1	-69,06272	271,821624	240,478914	0
15.01.2021	02:32:32	0	0	4,632759	1,4325	80,6472	-1,437	80,242	0	1008,88	4,3	6,8	6,7	1	1	1	1	1	1	1	1	1	0	1	-74,982382	271,890649	234,873784	0
15.01.2021	02:32:33	0	0	4,745782	1,395	72,0036	-1,439	80,248	0	1009,04	4,4	7	6,6	1	1	1	1	1	1	1	1	1	0	1	-68,287526	271,816325	241,229971	0
15.01.2021	02:32:34	0	0	4,067813	1,3995	69,1704	-1,442	80,244	0	1009,18	4,4	6,8	6,6	1	1	1	1	1	1	1	1	1	0	1	-70,190275	271,923923	239,8176	0
15.01.2021	02:32:35	0	0	3,728806	1,43175	71,2476	-1,437	80,266	0	1009,02	4,4	7	6,7	1	1	1	1	1	1	1	1	1	0	1	-68,851304	271,997331	241,491464	0
15.01.2021	02:32:36	0	0	2,82487	1,42875	66,9528	-1,441	80,24	0	1008,88	4,3	6,8	6,6	1	1	1	1	1	1	1	1	1	0	1	-74,489077	271,891979	235,373151	0
15.01.2021	02:32:37	0	0	3,615834	1,5165	70,6176	-1,436	80,239	0	1009,08	4,4	6,8	6,6	1	1	1	1	1	1	1	1	1	0	1	-68,851304	271,967934	241,357319	0
15.01.2021	02:32:38	0	0	4,406771	1,539	65,844	-1,442	80,226	0	1008,88	4,4	6,8	6,7	1	1	1	1	1	1	1	1	1	0	1	-68,07611	271,85876	241,634716	0
15.01.2021	02:32:39	0	0	3,163835	1,4895	66,8952	-1,44	80,216	0	1009	4,5	6,8	6,7	1	1	1	1	1	1	1	1	1	0	1	-68,921776	271,821624	240,619859	0
15.01.2021	02:32:40	0	0	4,067788	1,41225	74,9052	-1,442	80,204	0	1008,94	4,4	6,8	6,7	1	1	1	1	1	1	1	1	1	0	1	-72,586328	271,849469	237,082162	0
15.01.2021	02:32:41	0	0	3,502839	1,302	75,6252	-1,444	80,198	0	1009	4,4	6,8	6,6	1	1	1	1	1	1	1	1	1	0	1	-69,274137	271,989309	241,032021	0
15.01.2021	02:32:42	0	0	5,19773	1,2165	58,86	-1,447	80,186	0	1008,76	4,3	6,8	6,7	1	1	1	1	1	1	1	1	1	0	1	-67,582805	271,95859	242,583188	0
15.01.2021	02:32:43	0	0	5,084736	1,15275	44,784	-1,449	80,189	0	1008,88	4,4	6,8	6,7	1	1	1	1	1	1	1	1	1	0	1	-68,498943	271,830901	241,084952	0
15.01.2021	02:32:44	0	0	2,824853	1,152	33,9516	-1,44	80,181	0	1008,88	4,4	6,8	6,7	1	1	1	1	1	1	1	1	1	0	1	-69,485553	271,945249	240,619584	0
15.01.2021	02:32:45	0	0	3,27683	1,0815	68,7744	-1,449	80,167	0	1008,74	4,4	6,8	6,7	1	1	1	1	1	1	1	1	1	0	1	-64,411557	271,852123	245,269027	0
15.01.2021	02:32:46	0	0	4,180783	1,10775	88,1496	-1,442	80,172	0	1008,84	4,5	6,8	6,7	1	1	1	1	1	1	1	1	1	0	1	-69,837914	271,99332	240,486546	0
15.01.2021	02:32:47	0	0	3,8418	1,125	78,6672	-1,444	80,157	0	1008,84	4,3	6,8	6,7	1	1	1	1	1	1	1	1	1	0	1	-74,630021	271,962594	235,554239	0
15.01.2021	02:32:48	0	0	3,502818	1,122	66,2472	-1,447	80,149	0	1009,04	4,4	6,8	6,7	1	1	1	1	1	1	1	1	1	0	1	-68,569415	271,991983	241,748944	0
15.01.2021	02:32:49	0	0	3,728806	1,1055	63,1656	-1,443	80,139	0	1008,98	4,3	6,8	6,7	1	1	1	1	1	1	1	1	1	0	1	-70,331219	271,845489	239,319136	0
15.01.2021	02:32:50	0	0	3,502818	1,07325	65,8512	-1,449	80,127	0	1008,96	4,4	6,8	6,7	1	1	1	1	1	1	1	1	1	0	1	-69,556025	271,92792	240,470076	0
15.01.2021	02:32:51	0	0	3,502818	1,0875	68,0508	-1,447	80,115	0	1008,88	4,4	6,8	6,7	1	1	1	1	1	1	1	1	1	0	1	-70,965469	271,989309	239,340689	0
15.01.2021	02:32:52	0	0	4,971741	1,13475	65,826	-1,444	80,125	0	1008,88	4,3	6,8	6,7	1	1	1	1	1	1	1	1	1	0	1	-72,093023	271,884001	237,732839	0
15.01.2021	02:32:53	0	0	4,745753	1,20225	64,2456	-1,448	80,121	0	1008,9	4,3	6,8	6,7	1	1	1	1	1	1	1	1	1	0	1	-68,146582	271,978618	242,110792	0
15.01.2021	02:32:54	0	0	2,598865	1,24725	41,4684	-1,449	80,099	0	1008,84	4,4	6,9	6,7	1	1	1	1	1	1	1	1	1	0	1	-66,384778	271,854778	243,307901	0
15.01.2021	02:32:55	0	0	3,163835	1,308	54,1152	-1,449	80,102	0	1008,98	4,4	6,8	6,7	1	1	1	1	1	1	1	1	1	0	1	-71,106413	271,97194	239,120488	0
15.01.2021	02:32:56	0	0	4,971741	1,39275	57,042	-1,448	80,104	0	1008,96	4,4	6,8	6,7	1	1	1	1	1	1	1	1	1	0	1	-65,891473	271,809703	243,595864	0
15.01.2021	02:32:57	0	0	3,163835	1,34925	56,6712	-1,449	80,081	0	1008,96	4,3	6,8	6,7	1	1	1	1	1	1	1	1	1	0	1	-70,049331	271,868055	239,703856	0
15.01.2021	02:32:58	0	0	4,858747	1,3065	53,4276	-1,452	80,079	0	1008,9	4,4	6,8	6,7	1	1	1	1	1	1	1	1	1	0	1	-69,415081	271,97194	240,81182	0
15.01.2021	02:32:59	0	0	4,745753	1,272	60,948	-1,45	80,06	0	1008,8	4,4	6,8	6,7	1	1	1	1	1	1	1	1	1	0	1	-65,46864	271,874698	244,314819	0
15.01.2021	02:33:00	0	0	2,937847	1,32975	67,6764	-1,457	80,055	0	1008,94	4,4	6,8	6,7	1	1	1	1	1	1	1	1	1	0	1	-70,613108	271,811027	238,88026	0
15.01.2021	02:33:01	0	0	2,937847	1,32975	67,6764	-1,457	80,055	0	1008,94	4,4	6,8	6,7	1	1	1	1	1	1	1	1	1	0	1	-70,613108	271,811027	238,88026	0
15.01.2021	02:33:02	0	0	4,858747	1,383	73,0476	-1,455	80,034	0	1008,96	4,4	6,8	6,7	1	1	1	1	1	1	1	1	1	0	1	-65,045807	271,911937	244,907416	0
15.01.2021	02:33:03	0	0	4,745753	1,39575	73,4292	-1,455	80,045	0	1009,38	4,4	6,8	6,7	1	1	1	1	1	1	1	1	1	0	1	-69,133192	271,957255	241,026713	0
15.01.2021	02:33:04	0	0	3,615812	1,3665	59,8644	-1,454	79,997	0	1008,98	4,3	6,8	6,7	1	1	1	1	1	1	1	1	1	0	1	-66,666667	271,866727	243,080467	0
15.01.2021	02:33:05	0	0	3,502818	1,39275	65,0808	-1,461	79,984	0	1008,74	4,3	6,8	6,7	1	1	1	1	1	1	1	1	1	0	1	-68,357999	271,981291	241,911568	0
15.01.2021	02:33:06	0	0	4,745753	1,47375	68,022	-1,461	79,967	0	1008,76	4,4	6,8	6,7	1	1	1	1	1	1	1	1	1	0	1	-71,176885	271,947916	238,940419	0
15.01.2021	02:33:07	0	0	2,824853	1,548	64,6416	-1,46	79,984	0	1008,96	4,3	6,8	6,7	1	1	1	1	1	1	1	1	1	0	1	-70,894996	271,930585	239,143259	0
15.01.2021	02:33:08	0	0	2,824853	1,5705	55,9512	-1,459	79,979	0	1009,1	4,4	6,8	6,7	1	1	1	1	1	1	1	1	1	0	1	-69,274137	271,975947	240,971046	0
15.01.2021	02:33:09	0	0	4,858747	1,5615	54,1152	-1,458	79,984	0	1008,98	4,4	6,8	6,7	1	1	1	1	1	1	1	1	1	0	1	-68,428471	271,92792	241,597631	0
15.01.2021	02:33:10	0	0	3,27683	1,50675	46,9728	-1,456	79,979	0	1008,86	4,3	6,8	6,7	1	1	1	1	1	1	1	1	1	0	1	-70,542636	271,962594	239,641624	0
15.01.2021	02:33:11	0	0	4,180783	1,51125	50,6916	-1,463	79,982	0	1008,9	4,3	6,8	6,7	1	1	1	1	1	1	1	1	1	0	1	-68,217054	271,9146	241,74831	0
15.01.2021	02:33:12	0	0	3,050841	1,47825	46,2312	-1,459	79,988	0	1008,86	4,4	6,8	6,7	1	1	1	1	1	1	1	1	1	0	1	-71,106413	271,963929	239,083937	0
15.01.2021	02:33:13	0	0	4,067788	1,4895	41,0292	-1,462	79,988	0	1008,9	4,3	6,9	6,7	1	1	1	1	1	1	1	1	1	0	1	-70,260747	271,812352	239,238652	0
15.01.2021	02:33:14	0	0	2,824853	1,54575	33,282	-1,46	79,978	0	1008,92	4,3	6,8	6,7	1	1	1	1	1	1	1	1	1	0	1	-65,539112	271,923923	244,468763	0
15.01.2021	02:33:15	0	0	2,937847	1,599	47,3688	-1,461	79,958	0	1008,88	4,4	6,8	6,7	1	1	1	1	1	1	1	1	1	0	1	-68,569415	271,965264	241,627026	0
15.01.2021	02:33:16	0	0	3,502818	1,6935	37,0404	-1,469	79,981	0	1008,76	4,3	6,8	6,7	1	1	1	1	1	1	1	1	1	0	1	-71,952079	271,868055	237,801107	0
15.01.2021	02:33:17	0	0	4,745753	1,72125	38,8152	-1,471	79,967	0	1009	4,3	7	6,7	1	1	1	1	1	1	1	1	1	0	1	-70,472163	271,824274	239,081543	0
15.01.2021	02:33:18	0	0	3,954794	1,74975	46,2312	-1,469	79,964	0	1008,86	4,4	6,8	6,7	1	1	1	1	1	1	1	1	1	0	1	-70,894996	271,962594	239,289264	0
15.01.2021	02:33:19	0	0	2,711859	1,779	54,1872	-1,465	79,972	0	1008,88	4,4	6,8	6,7	1	1	1	1	1	1	1	1	1	0	1	-67,371388	271,889319	242,478716	0
15.01.2021	02:33:20	0	0	4,745753	1,74675	58,878	-1,478	79,976	0	1009,06	4,4	6,8	6,7	1	1	1	1	1	1	1	1	1	0	1	-70,824524	271,955921	239,329294	0
15.01.2021	02:33:21	0	0	3,728806	1,8315	46,224	-1,467	79,982	0	1008,9	4,4	6,8	6,7	1	1	1	1	1	1	1	1	1	0	1	-68,710359	271,857433	240,994417	0
15.01.2021	02:33:22	0	0	3,050841	2,03025	62,0388	-1,472	79,977	0	1008,72	4,4	6,8	6,7	1	1	1	1	1	1	1	1	1	0	1	-74,630021	271,963929	235,560329	0
15.01.2021	02:33:23	0	0	4,971741	2,12175	58,1148	-1,47	79,982	0	1009,02	4,3	6,8	6,7	1	1	1	1	1	1	1	1	1	0	1	-70,754052	271,937249	239,314596	0
15.01.2021	02:33:24	0	0	3,389824	2,11875	55,17	-1,472	80,001	0	1008,96	4,3	6,8	6,7	1	1	1	1	1	1	1	1	1	0	1	-69,978858	271,788528	239,412049	0
15.01.2021	02:33:25	0	0	5,310724	2,12175	56,286	-1,473	80,006	0	1008,82	4,3	6,8	6,7	1	1	1	1	1	1	1	1	1	0	1	-68,992248	271,945249	241,112889	0
15.01.2021	02:33:26	0	0	3,050841	2,148	55,944	-1,469	80,016	0	1008,9	4,3	6,8	6,7	1	1	1	1	1	1	1	1	1	0	1	-67,723749	271,913269	242,235544	0
15.01.2021	02:33:27	0	0	4,406771	2,11575	41,1084	-1,469	80,048	0	1008,98	4,4	6,8	6,7	1	1	1	1	1	1	1	1	1	0	1	-68,217054	271,961259	241,961116	0
15.01.2021	02:33:28	0	0	5,084736	2,091	39,5496	-1,466	80,074	0	1009	4,3	6,8	6,7	1	1	1	1	1	1	1	1	1	0	1	-73,361522	271,945249	236,743615	0
15.01.2021	02:33:29	0	0	5,310724	1,9845	44,0712	-1,474	80,095	0	1009,06	4,4	6,8	6,7	1	1	1	1	1	1	1	1	1	0	1	-70,68358	271,838857	238,936558	0
15.01.2021	02:33:30	0	0	2,598865	1,84125	42,7032	-1,476	80,109	0	1008,92	4,3	6,8	6,7	1	1	1	1	1	1	1	1	1	0	1	-73,502467	271,962594	236,681794	0
15.01.2021	02:33:31	0	0	4,971741	1,74075	40,6188	-1,475	80,126	0	1008,98	4,3	6,8	6,7	1	1	1	1	1	1	1	1	1	0	1	-66,666667	271,89996	243,231945	0
15.01.2021	02:33:32	0	0	3,163835	1,77225	35,1036	-1,469	80,151	0	1008,92	4,4	6,8	6,7	1	1	1	1	1	1	1	1	1	0	1	-67,935166	271,809703	241,552171	0
15.01.2021	02:33:33	0	0	4,971741	1,8	47,7612	-1,478	80,159	0	1008,96	4,3	6,8	6,7	1	1	1	1	1	1	1	1	1	0	1	-69,837914	271,918595	240,145666	0
15.01.2021	02:33:34	0	0	2,824853	1,75575	35,0856	-1,477	80,175	0	1008,94	4,3	6,8	6,7	1	1	1	1	1	1	1	1	1	0	1	-70,894996	271,808379	238,586309	0
15.01.2021	02:33:35	0	0	4,632759	1,683	36,6192	-1,476	80,168	0	1008,98	4,3	6,8	6,7	1	1	1	1	1	1	1	1	1	0	1	-66,596195	271,893308	243,272096	0
15.01.2021	02:33:36	0	0	4,858747	1,662	43,6716	-1,475	80,191	0	1009,02	4,3	6,8	6,7	1	1	1	1	1	1	1	1	1	0	1	-71,952079	271,953252	238,189566	0
15.01.2021	02:33:37	0	0	3,8418	1,605	45,5472	-1,472	80,197	0	1009,18	4,3	6,8	6,7	1	1	1	1	1	1	1	1	1	0	1	-69,837914	271,88666	240,000068	0
15.01.2021	02:33:38	0	0	2,711859	1,5285	51,0696	-1,478	80,202	0	1008,72	4,3	6,8	6,7	1	1	1	1	1	1	1	1	1	0	1	-68,992248	271,783238	240,374573	0
15.01.2021	02:33:39	0	0	4,406771	1,54275	52,8948	-1,483	80,204	0	1008,82	4,3	6,9	6,7	1	1	1	1	1	1	1	1	1	0	1	-65,116279	271,849469	244,552212	0
15.01.2021	02:33:40	0	0	4,632759	1,527	45,8604	-1,483	80,193	0	1008,92	4,3	6,8	6,7	1	1	1	1	1	1	1	1	1	0	1	-69,978858	271,775306	239,351847	0
15.01.2021	02:33:41	0	0	4,745753	1,5405	51,4584	-1,485	80,216	0	1008,92	4,4	6,8	6,7	1	1	1	1	1	1	1	1	1	0	1	-72,445384	271,925255	237,568566	0
15.01.2021	02:33:42	0	0	4,971741	1,539	49,9608	-1,48	80,227	0	1008,98	4,4	6,8	6,7	1	1	1	1	1	1	1	1	1	0	1	-66,948555	271,942582	243,144417	0
15.01.2021	02:33:43	0	0	3,389824	1,5345	44,7912	-1,488	80,217	0	1008,76	4,4	6,8	6,7	1	1	1	1	1	1	1	1	1	0	1	-70,119803	271,813676	239,385629	0
15.01.2021	02:33:44	0	0	3,954794	1,515	47,7576	-1,476	80,227	0	1008,98	4,4	6,8	6,7	1	1	1	1	1	1	1	1	1	0	1	-70,68358	271,795143	238,737448	0
15.01.2021	02:33:45	0	0	4,745753	1,49775	39,5532	-1,48	80,237	0	1008,82	4,4	6,8	6,7	1	1	1	1	1	1	1	1	1	0	1	-68,639887	271,946582	241,471333	0
15.01.2021	02:33:46	0	0	4,180783	1,53225	44,0388	-1,48	80,233	0	1008,96	4,4	6,8	6,7	1	1	1	1	1	1	1	1	1	0	1	-67,935166	271,911937	242,018057	0
15.01.2021	02:33:47	0	0	5,084736	1,54125	52,1352	-1,485	80,244	0	1008,9	4,3	6,8	6,7	1	1	1	1	1	1	1	1	1	0	1	-72,30444	271,781916	237,05636	0
15.01.2021	02:33:48	0	0	4,519765	1,6725	49,9644	-1,48	80,264	0	1008,88	4,4	6,8	6,7	1	1	1	1	1	1	1	1	1	0	1	-66,525722	271,773984	242,798966	0
15.01.2021	02:33:49	0	0	2,824853	1,9605	58,104	-1,485	80,269	0	1008,94	4,3	6,8	6,7	1	1	1	1	1	1	1	1	1	0	1	-72,586328	271,884001	237,239534	0
15.01.2021	02:33:50	0	0	4,745782	2,11575	28,728	-1,482	80,285	0	1008,98	4,3	6,8	6,6	1	1	1	1	1	1	1	1	1	0	1	-67,230444	271,951918	242,905115	0
15.01.2021	02:33:51	0	0	4,180783	2,145	49,5648	-1,482	80,285	0	1008,78	4,3	6,8	6,7	1	1	1	1	1	1	1	1	1	0	1	-71,740662	271,830901	237,843233	0
15.01.2021	02:33:52	0	0	3,163835	2,094	41,472	-1,488	80,268	0	1008,88	4,4	6,8	6,7	1	1	1	1	1	1	1	1	1	0	1	-74,207188	271,942582	235,885784	0
15.01.2021	02:33:53	0	0	3,954794	1,9155	27,6696	-1,483	80,293	0	1009,18	4,4	6,8	6,7	1	1	1	1	1	1	1	1	1	0	1	-67,582805	271,853451	242,103827	0
15.01.2021	02:33:54	0	0	3,27683	1,69875	38,0808	-1,49	80,29	0	1008,98	4,3	6,8	6,7	1	1	1	1	1	1	1	1	1	0	1	-69,556025	271,942582	240,536947	0
15.01.2021	02:33:55	0	0	3,276849	1,575	35,496	-1,483	80,3	0	1008,84	4,4	6,8	6,6	1	1	1	1	1	1	1	1	1	0	1	-70,049331	271,809703	239,438006	0
15.01.2021	02:33:56	0	0	3,8418	1,55175	48,1428	-1,488	80,309	0	1008,88	4,3	6,8	6,7	1	1	1	1	1	1	1	1	1	0	1	-69,06272	271,877355	240,732852	0
15.01.2021	02:33:57	0	0	4,971741	1,51875	38,8116	-1,483	80,313	0	1009	4,3	6,8	6,7	1	1	1	1	1	1	1	1	1	0	1	-65,46864	271,789851	243,928291	0
15.01.2021	02:33:58	0	0	4,971741	1,41225	29,106	-1,483	80,306	0	1008,96	4,3	6,8	6,7	1	1	1	1	1	1	1	1	1	0	1	-69,767442	271,902621	240,143302	0
15.01.2021	02:33:59	0	0	2,824853	1,3665	33,6492	-1,483	80,324	0	1008,88	4,3	6,8	6,7	1	1	1	1	1	1	1	1	1	0	1	-69,837914	271,911937	240,115309	0
15.01.2021	02:34:00	0	0	4,293777	1,30575	42,5988	-1,484	80,313	0	1008,8	4,3	6,8	6,7	1	1	1	1	1	1	1	1	1	0	1	-71,881607	271,845489	237,768748	0
15.01.2021	02:34:01	0	0	4,293777	1,30575	42,5988	-1,484	80,313	0	1008,8	4,3	6,8	6,7	1	1	1	1	1	1	1	1	1	0	1	-71,881607	271,845489	237,768748	0
15.01.2021	02:34:02	0	0	3,954794	1,33425	58,8852	-1,492	80,33	0	1008,96	4,3	6,8	6,7	1	1	1	1	1	1	1	1	1	0	1	-70,401691	271,946582	239,709529	0
15.01.2021	02:34:03	0	0	4,519765	1,35075	53,7444	-1,489	80,319	0	1008,88	4,3	6,9	6,7	1	1	1	1	1	1	1	1	1	0	1	-68,287526	271,862743	241,441451	0
15.01.2021	02:34:04	0	0	4,293777	1,39875	53,37	-1,487	80,336	0	1008,84	4,3	6,8	6,7	1	1	1	1	1	1	1	1	1	0	1	-70,965469	271,781916	238,395332	0
15.01.2021	02:34:05	0	0	4,180783	1,605	48,8232	-1,488	80,317	0	1008,96	4,4	6,8	6,7	1	1	1	1	1	1	1	1	1	0	1	-68,498943	271,772663	240,819728	0
15.01.2021	02:34:06	0	0	2,598865	1,71825	44,406	-1,486	80,343	0	1009,02	4,3	6,8	6,7	1	1	1	1	1	1	1	1	1	0	1	-70,049331	271,880013	239,758356	0
15.01.2021	02:34:07	0	0	4,745753	1,79175	47,4444	-1,488	80,357	0	1008,86	4,3	6,9	6,7	1	1	1	1	1	1	1	1	1	0	1	-74,136716	271,947916	235,980588	0
15.01.2021	02:34:08	0	0	5,423718	1,812	48,1248	-1,484	80,352	0	1008,92	4,4	6,8	6,7	1	1	1	1	1	1	1	1	1	0	1	-68,287526	271,895969	241,592891	0
15.01.2021	02:34:09	0	0	5,310724	1,78575	46,9944	-1,488	80,349	0	1008,86	4,4	6,8	6,7	1	1	1	1	1	1	1	1	1	0	1	-69,837914	271,947916	240,27939	0
15.01.2021	02:34:10	0	0	5,19773	1,755	47,3796	-1,491	80,382	0	1008,94	4,4	6,8	6,7	1	1	1	1	1	1	1	1	1	0	1	-72,586328	271,815	236,925135	0
15.01.2021	02:34:11	0	0	4,971741	1,68825	55,8792	-1,488	80,373	0	1009	4,3	6,9	6,7	1	1	1	1	1	1	1	1	1	0	1	-71,599718	271,939915	238,481091	0
15.01.2021	02:34:12	0	0	3,615812	1,608	59,4864	-1,488	80,391	0	1009,02	4,3	6,8	6,7	1	1	1	1	1	1	1	1	1	0	1	-66,032417	271,763414	243,24415	0
15.01.2021	02:34:13	0	0	4,858747	1,55625	58,8708	-1,49	80,376	0	1009,04	4,4	6,9	6,7	1	1	1	1	1	1	1	1	1	0	1	-66,807611	271,868055	242,945575	0
15.01.2021	02:34:14	0	0	2,711859	1,53225	59,2056	-1,491	80,399	0	1008,78	4,4	6,9	6,7	1	1	1	1	1	1	1	1	1	0	1	-70,68358	271,947916	239,433724	0
15.01.2021	02:34:15	0	0	3,615812	1,45725	57,7332	-1,487	80,405	0	1008,92	4,4	6,8	6,7	1	1	1	1	1	1	1	1	1	0	1	-68,428471	271,785883	240,950392	0
15.01.2021	02:34:16	0	0	2,937847	1,404	42,2244	-1,49	80,453	0	1008,9	4,3	6,8	6,7	1	1	1	1	1	1	1	1	1	0	1	-67,723749	271,878684	242,07788	0
15.01.2021	02:34:17	0	0	3,502818	1,4295	55,9296	-1,486	80,419	0	1008,78	4,3	6,8	6,7	1	1	1	1	1	1	1	1	1	0	1	-66,737139	271,945249	243,367998	0
15.01.2021	02:34:18	0	0	3,502818	1,6695	62,5104	-1,489	80,402	0	1008,96	4,3	6,8	6,7	1	1	1	1	1	1	1	1	1	0	1	-68,921776	271,862743	240,807202	0
15.01.2021	02:34:19	0	0	2,711859	1,91325	52,884	-1,486	80,43	0	1008,98	4,4	6,9	6,7	1	1	1	1	1	1	1	1	1	0	1	-73,431994	271,779272	235,916766	0
15.01.2021	02:34:20	0	0	2,937847	2,079	55,5552	-1,493	80,418	0	1008,84	4,3	6,9	6,7	1	1	1	1	1	1	1	1	1	0	1	-70,542636	271,799113	238,89647	0
15.01.2021	02:34:21	0	0	4,180783	2,31525	52,146	-1,488	80,431	0	1009,06	4,3	6,9	6,7	1	1	1	1	1	1	1	1	1	0	1	-70,119803	271,938582	239,954926	0
15.01.2021	02:34:22	0	0	3,615812	2,48175	43,6644	-1,497	80,429	0	1009	4,3	6,8	6,7	1	1	1	1	1	1	1	1	1	0	1	-69,978858	271,935916	240,08371	0
15.01.2021	02:34:23	0	0	4,971741	2,562	38,8116	-1,491	80,439	0	1008,84	4,3	6,8	6,7	1	1	1	1	1	1	1	1	1	0	1	-68,357999	271,938582	241,71673	0
15.01.2021	02:34:24	0	0	3,389824	2,5845	42,5988	-1,494	80,44	0	1009	4,3	6,9	6,7	1	1	1	1	1	1	1	1	1	0	1	-68,921776	271,931917	241,122557	0
15.01.2021	02:34:25	0	0	3,27683	2,6625	51,066	-1,495	80,442	0	1008,94	4,4	6,8	6,7	1	1	1	1	1	1	1	1	1	0	1	-73,854827	271,876026	235,934688	0
15.01.2021	02:34:26	0	0	3,502818	2,8245	52,1352	-1,49	80,453	0	1008,98	4,4	6,8	6,7	1	1	1	1	1	1	1	1	1	0	1	-70,401691	271,945249	239,703446	0
15.01.2021	02:34:27	0	0	3,050841	2,96175	44,3952	-1,489	80,459	0	1008,98	4,4	6,9	6,7	1	1	1	1	1	1	1	1	1	0	1	-64,129669	271,771341	245,182986	0
15.01.2021	02:34:28	0	0	3,954794	2,91	62,7912	-1,493	80,437	0	1008,88	4,4	6,8	6,7	1	1	1	1	1	1	1	1	1	0	1	-70,401691	271,891979	239,460537	0
15.01.2021	02:34:29	0	0	3,050841	2,71275	51,7572	-1,488	80,444	0	1009,08	4,4	6,8	6,7	1	1	1	1	1	1	1	1	1	0	1	-75,193798	271,94925	234,92959	0
15.01.2021	02:34:30	0	0	3,728806	2,58975	42,9012	-1,494	80,457	0	1008,94	4,3	6,9	6,7	1	1	1	1	1	1	1	1	1	0	1	-71,247357	271,844162	238,396953	0
15.01.2021	02:34:31	0	0	3,163835	2,5965	54,1224	-1,494	80,476	0	1009,14	4,4	6,8	6,7	1	1	1	1	1	1	1	1	1	0	1	-65,327696	271,784561	244,045146	0
15.01.2021	02:34:32	0	0	3,728828	2,4675	28,3572	-1,49	80,482	0	1008,9	4,4	6,8	6,6	1	1	1	1	1	1	1	1	1	0	1	-64,129669	271,762093	245,140885	0
15.01.2021	02:34:33	0	0	3,841823	2,5425	36,63	-1,487	80,487	0	1008,92	4,4	6,8	6,6	1	1	1	1	1	1	1	1	1	0	1	-68,710359	271,834879	240,891655	0
15.01.2021	02:34:34	0	0	3,728806	2,73975	46,5948	-1,491	80,503	0	1009	4,4	6,8	6,7	1	1	1	1	1	1	1	1	1	0	1	-68,005638	271,951918	242,129921	0
15.01.2021	02:34:35	0	0	3,27683	2,80125	57,4236	-1,494	80,516	0	1009,02	4,3	6,9	6,7	1	1	1	1	1	1	1	1	1	0	1	-66,032417	271,812352	243,466982	0
15.01.2021	02:34:36	0	0	3,615812	2,76375	40,9968	-1,492	80,518	0	1008,86	4,4	6,9	6,7	1	1	1	1	1	1	1	1	1	0	1	-70,613108	271,837531	239,000989	0
15.01.2021	02:34:37	0	0	2,937847	2,745	52,1172	-1,493	80,553	0	1009	4,4	6,8	6,7	1	1	1	1	1	1	1	1	1	0	1	-66,948555	271,781916	242,412245	0
15.01.2021	02:34:38	0	0	4,067788	2,60925	36,63	-1,492	80,558	0	1008,9	4,4	6,8	6,7	1	1	1	1	1	1	1	1	1	0	1	-70,472163	271,906613	239,456783	0
15.01.2021	02:34:39	0	0	2,937847	2,604	44,0532	-1,496	80,573	0	1008,88	4,3	6,8	6,7	1	1	1	1	1	1	1	1	1	0	1	-71,317829	271,787206	238,067056	0
15.01.2021	02:34:40	0	0	3,27683	2,51475	55,5516	-1,494	80,589	0	1008,94	4,4	6,8	6,7	1	1	1	1	1	1	1	1	1	0	1	-67,44186	271,807055	242,033415	0
15.01.2021	02:34:41	0	0	2,937847	2,538	41,0076	-1,49	80,629	0	1008,98	4,4	6,9	6,7	1	1	1	1	1	1	1	1	1	0	1	-66,737139	271,947916	243,380166	0
15.01.2021	02:34:42	0	0	4,632759	2,48175	39,5604	-1,493	80,661	0	1008,94	4,4	6,9	6,7	1	1	1	1	1	1	1	1	1	0	1	-71,458774	271,8256	238,100969	0
15.01.2021	02:34:43	0	0	2,598865	2,421	27,2916	-1,499	80,658	0	1008,92	4,4	6,9	6,7	1	1	1	1	1	1	1	1	1	0	1	-69,556025	271,906613	240,372921	0
15.01.2021	02:34:44	0	0	2,937847	2,3475	22,194	-1,495	80,684	0	1009,08	4,4	6,8	6,7	1	1	1	1	1	1	1	1	1	0	1	-66,596195	271,95859	243,569799	0
15.01.2021	02:34:45	0	0	4,067788	2,3565	34,7004	-1,495	80,677	0	1008,94	4,4	6,8	6,7	1	1	1	1	1	1	1	1	1	0	1	-68,357999	271,830901	241,225896	0
15.01.2021	02:34:46	0	0	2,598865	2,42925	46,2348	-1,497	80,703	0	1008,76	4,4	6,8	6,7	1	1	1	1	1	1	1	1	1	0	1	-71,035941	271,796466	238,391112	0
15.01.2021	02:34:47	0	0	4,745753	2,286	22,4784	-1,492	80,72	0	1008,98	4,4	6,8	6,7	1	1	1	1	1	1	1	1	1	0	1	-69,908386	271,856105	239,790342	0
15.01.2021	02:34:48	0	0	4,745753	1,977	18,8316	-1,496	80,717	0	1008,98	4,4	6,9	6,7	1	1	1	1	1	1	1	1	1	0	1	-69,837914	271,838857	239,782224	0
15.01.2021	02:34:49	0	0	3,615812	1,80975	10,8432	-1,49	80,747	0	1008,9	4,4	6,9	6,7	1	1	1	1	1	1	1	1	1	0	1	-71,881607	271,783238	237,485214	0
15.01.2021	02:34:50	0	0	4,180783	1,893	44,4096	-1,493	80,755	0	1009,06	4,4	6,9	6,7	1	1	1	1	1	1	1	1	1	0	1	-67,371388	271,840183	242,254792	0
15.01.2021	02:34:51	0	0	4,858776	1,96425	35,874	-1,487	80,78	0	1008,94	4,4	6,8	6,6	1	1	1	1	1	1	1	1	1	0	1	-68,498943	271,9146	241,466421	0
15.01.2021	02:34:52	0	0	3,05086	1,7985	30,3192	-1,489	80,803	0	1008,94	4,4	6,9	6,6	1	1	1	1	1	1	1	1	1	0	1	-63,002114	271,799113	246,436992	0
15.01.2021	02:34:53	0	0	2,598865	1,70175	23,9796	-1,491	80,846	0	1009,12	4,4	6,7	6,7	1	1	1	1	1	1	1	1	1	0	1	-69,06272	271,902621	240,848024	0
15.01.2021	02:34:54	0	0	5,197761	1,7685	57,4128	-1,489	80,9	0	1009,02	4,4	6,8	6,6	1	1	1	1	1	1	1	1	1	0	1	-72,445384	271,957255	237,714521	0
15.01.2021	02:34:55	0	0	3,163835	1,86525	29,9844	-1,49	80,926	0	1008,9	4,4	6,8	6,7	1	1	1	1	1	1	1	1	1	0	1	-66,596195	271,844162	243,048116	0
15.01.2021	02:34:56	0	0	4,519792	1,85925	23,9832	-1,488	80,97	0	1008,84	4,4	6,8	6,6	1	1	1	1	1	1	1	1	1	0	1	-69,415081	271,821624	240,126554	0
15.01.2021	02:34:57	0	0	3,050841	1,84425	15,8004	-1,488	80,997	0	1008,86	4,4	6,8	6,7	1	1	1	1	1	1	1	1	1	0	1	-69,203665	271,812352	240,295735	0
15.01.2021	02:34:58	0	0	2,937865	1,72875	18,774	-1,487	81,047	0	1009	4,4	6,8	6,6	1	1	1	1	1	1	1	1	1	0	1	-67,300916	271,895969	242,579501	0
15.01.2021	02:34:59	0	0	4,519792	1,64025	17,2584	-1,484	81,077	0	1009,18	4,4	6,8	6,6	1	1	1	1	1	1	1	1	1	0	1	-72,868217	271,808379	236,613089	0
15.01.2021	02:35:00	0	0	3,502839	1,5	28,7316	-1,484	81,162	0	1008,92	4,4	6,9	6,6	1	1	1	1	1	1	1	1	1	0	1	-71,740662	271,9146	238,224702	0
15.01.2021	02:35:01	0	0	3,502839	1,5	28,7316	-1,484	81,162	0	1008,92	4,4	6,9	6,6	1	1	1	1	1	1	1	1	1	0	1	-71,740662	271,9146	238,224702	0
15.01.2021	02:35:02	0	0	3,841823	1,40625	33,9588	-1,487	81,177	0	1008,82	4,4	6,9	6,6	1	1	1	1	1	1	1	1	1	0	1	-68,569415	271,979954	241,694055	0
15.01.2021	02:35:03	0	0	4,067788	1,3935	15,8076	-1,477	81,21	0	1008,94	4,4	6,7	6,7	1	1	1	1	1	1	1	1	1	0	1	-67,794221	271,898629	242,098325	0
15.01.2021	02:35:04	0	0	5,084766	1,3575	13,9248	-1,481	81,242	0	1008,9	4,4	6,8	6,6	1	1	1	1	1	1	1	1	1	0	1	-68,005638	271,97194	242,221263	0
15.01.2021	02:35:05	0	0	4,971741	1,4145	25,0344	-1,473	81,242	0	1008,98	4,4	6,7	6,7	1	1	1	1	1	1	1	1	1	0	1	-70,824524	271,951918	239,311035	0
15.01.2021	02:35:06	0	0	3,05086	1,4775	35,0748	-1,48	81,281	0	1008,96	4,4	6,9	6,6	1	1	1	1	1	1	1	1	1	0	1	-70,190275	271,902621	239,720469	0
15.01.2021	02:35:07	0	0	3,954818	1,53225	31,4064	-1,474	81,276	0	1008,92	4,4	6,8	6,6	1	1	1	1	1	1	1	1	1	0	1	-67,371388	271,963929	242,818962	0
15.01.2021	02:35:08	0	0	3,615834	1,737	30,7296	-1,478	81,283	0	1009,06	4,4	6,9	6,6	1	1	1	1	1	1	1	1	1	0	1	-71,67019	271,959924	238,501891	0
15.01.2021	02:35:09	0	0	3,163854	1,87425	28,8612	-1,471	81,296	0	1008,96	4,4	6,8	6,6	1	1	1	1	1	1	1	1	1	0	1	-66,737139	271,918595	243,246441	0
15.01.2021	02:35:10	0	0	4,406797	2,03025	31,0212	-1,469	81,296	0	1008,94	4,4	6,8	6,6	1	1	1	1	1	1	1	1	1	0	1	-65,186751	271,803083	244,270437	0
15.01.2021	02:35:11	0	0	3,05086	1,97025	38,8008	-1,471	81,285	0	1009,02	4,4	6,8	6,6	1	1	1	1	1	1	1	1	1	0	1	-70,542636	271,915932	239,4288	0
15.01.2021	02:35:12	0	0	3,276849	1,9755	23,9868	-1,476	81,279	0	1008,88	4,4	6,8	6,6	1	1	1	1	1	1	1	1	1	0	1	-67,582805	271,978618	242,674569	0
15.01.2021	02:35:13	0	0	3,8418	1,96125	43,2936	-1,468	81,282	0	1008,86	4,4	6,8	6,7	1	1	1	1	1	1	1	1	1	0	1	-66,45525	271,807055	243,020026	0
15.01.2021	02:35:14	0	0	4,406771	1,83075	33,264	-1,468	81,275	0	1008,88	4,4	6,8	6,7	1	1	1	1	1	1	1	1	1	0	1	-69,837914	271,873369	239,939489	0
15.01.2021	02:35:15	0	0	4,971771	1,71975	33,6492	-1,468	81,273	0	1008,9	4,4	6,8	6,6	1	1	1	1	1	1	1	1	1	0	1	-68,146582	271,978618	242,110792	0
15.01.2021	02:35:16	0	0	2,82487	1,64175	23,976	-1,473	81,272	0	1009,04	4,4	6,8	6,6	1	1	1	1	1	1	1	1	1	0	1	-67,230444	271,907944	242,70457	0
15.01.2021	02:35:17	0	0	3,954794	1,554	30,7404	-1,465	81,265	0	1008,94	4,4	6,8	6,7	1	1	1	1	1	1	1	1	1	0	1	-70,049331	271,80176	239,40183	0
15.01.2021	02:35:18	0	0	5,197761	1,4865	29,9628	-1,464	81,257	0	1008,82	4,4	6,8	6,6	1	1	1	1	1	1	1	1	1	0	1	-63,072586	271,930585	246,965669	0
15.01.2021	02:35:19	0	0	2,711875	1,43325	32,1696	-1,462	81,256	0	1008,96	4,4	6,8	6,6	1	1	1	1	1	1	1	1	1	0	1	-67,935166	271,969269	242,27955	0
15.01.2021	02:35:20	0	0	4,745782	1,45725	37,026	-1,461	81,241	0	1008,88	4,4	6,8	6,6	1	1	1	1	1	1	1	1	1	0	1	-66,314306	271,954586	243,833425	0
15.01.2021	02:35:21	0	0	3,841823	1,43775	36,9468	-1,464	81,214	0	1008,92	4,4	6,8	6,6	1	1	1	1	1	1	1	1	1	0	1	-66,102889	271,951918	244,032669	0
15.01.2021	02:35:22	0	0	2,59888	1,37775	34,344	-1,467	81,23	0	1008,94	4,4	6,8	6,6	1	1	1	1	1	1	1	1	1	0	1	-65,539112	271,975947	244,706071	0
15.01.2021	02:35:23	0	0	4,632787	1,3185	35,8704	-1,463	81,233	0	1009	4,4	6,8	6,6	1	1	1	1	1	1	1	1	1	0	1	-66,737139	271,89996	243,161473	0
15.01.2021	02:35:24	0	0	2,59888	1,23075	37,7712	-1,464	81,204	0	1008,82	4,4	6,8	6,6	1	1	1	1	1	1	1	1	1	0	1	-71,317829	271,979954	238,945641	0
15.01.2021	02:35:25	0	0	2,937865	1,143	47,3652	-1,466	81,218	0	1008,96	4,4	6,8	6,6	1	1	1	1	1	1	1	1	1	0	1	-70,613108	271,941248	239,473783	0
15.01.2021	02:35:26	0	0	3,728828	1,1235	36,2484	-1,461	81,198	0	1008,9	4,4	6,8	6,6	1	1	1	1	1	1	1	1	1	0	1	-68,357999	271,975947	241,887185	0
15.01.2021	02:35:27	0	0	2,711875	1,16025	36,918	-1,458	81,199	0	1008,84	4,4	6,8	6,6	1	1	1	1	1	1	1	1	1	0	1	-71,740662	271,811027	237,752705	0
15.01.2021	02:35:28	0	0	2,82487	1,23	53,7444	-1,453	81,208	0	1009	4,4	6,8	6,6	1	1	1	1	1	1	1	1	1	0	1	-67,230444	271,941248	242,856447	0
15.01.2021	02:35:29	0	0	3,163854	1,28925	46,2384	-1,458	81,184	0	1008,98	4,4	6,8	6,6	1	1	1	1	1	1	1	1	1	0	1	-71,106413	271,969269	239,108302	0
15.01.2021	02:35:30	0	0	4,180808	1,4205	37,3104	-1,46	81,178	0	1008,88	4,4	6,8	6,6	1	1	1	1	1	1	1	1	1	0	1	-68,07611	271,820299	241,45949	0
15.01.2021	02:35:31	0	0	3,841823	1,51875	39,5496	-1,462	81,182	0	1008,94	4,4	6,8	6,6	1	1	1	1	1	1	1	1	1	0	1	-70,472163	271,832227	239,117771	0
15.01.2021	02:35:32	0	0	2,485886	1,49475	30,7152	-1,454	81,201	0	1009,28	4,4	6,8	6,6	1	1	1	1	1	1	1	1	1	0	1	-67,371388	271,982627	242,904276	0
15.01.2021	02:35:33	0	0	3,728828	1,4745	26,5104	-1,456	81,164	0	1009	4,4	6,8	6,6	1	1	1	1	1	1	1	1	1	0	1	-67,653277	271,918595	242,330303	0
15.01.2021	02:35:34	0	0	3,163854	1,48425	36,6372	-1,45	81,164	0	1008,88	4,4	6,8	6,6	1	1	1	1	1	1	1	1	1	0	1	-69,133192	271,967934	241,075431	0
15.01.2021	02:35:35	0	0	3,502839	1,4025	38,52	-1,454	81,169	0	1008,84	4,4	6,8	6,6	1	1	1	1	1	1	1	1	1	0	1	-67,230444	271,841509	242,401779	0
15.01.2021	02:35:36	0	0	3,389844	1,377	32,886	-1,448	81,166	0	1009,16	4,4	6,8	6,6	1	1	1	1	1	1	1	1	1	0	1	-68,07611	271,945249	242,029027	0
15.01.2021	02:35:37	0	0	3,05086	1,2915	13,9248	-1,455	81,146	0	1008,98	4,4	6,8	6,6	1	1	1	1	1	1	1	1	1	0	1	-61,945032	271,854778	247,747648	0
15.01.2021	02:35:38	0	0	3,502839	1,33725	32,5044	-1,449	81,155	0	1009	4,4	6,8	6,6	1	1	1	1	1	1	1	1	1	0	1	-69,344609	271,94925	240,77878	0
15.01.2021	02:35:39	0	0	3,05086	1,3455	36,2412	-1,455	81,133	0	1009,04	4,4	6,8	6,6	1	1	1	1	1	1	1	1	1	0	1	-67,159972	271,824274	242,393735	0
15.01.2021	02:35:40	0	0	4,632787	1,31175	20,6496	-1,448	81,135	0	1009,06	4,4	6,8	6,6	1	1	1	1	1	1	1	1	1	0	1	-70,824524	271,856105	238,874203	0
15.01.2021	02:35:41	0	0	3,389844	1,3035	28,7316	-1,452	81,126	0	1008,86	4,4	6,8	6,6	1	1	1	1	1	1	1	1	1	0	1	-68,357999	271,829576	241,219858	0
15.01.2021	02:35:42	0	0	4,519792	1,299	29,574	-1,449	81,138	0	1009,02	4,4	6,8	6,6	1	1	1	1	1	1	1	1	1	0	1	-69,69697	271,812352	239,802429	0
15.01.2021	02:35:43	0	0	5,084766	1,30425	39,5604	-1,454	81,123	0	1008,92	4,4	6,8	6,6	1	1	1	1	1	1	1	1	1	0	1	-65,961945	271,917263	244,015562	0
15.01.2021	02:35:44	0	0	4,067813	1,42875	34,3332	-1,454	81,101	0	1008,94	4,4	6,8	6,6	1	1	1	1	1	1	1	1	1	0	1	-65,750529	271,812352	243,748871	0
15.01.2021	02:35:45	0	0	3,163854	1,4055	44,0496	-1,454	81,121	0	1008,96	4,4	6,8	6,6	1	1	1	1	1	1	1	1	1	0	1	-69,415081	271,844162	240,229229	0
15.01.2021	02:35:46	0	0	4,406771	1,3245	57,7512	-1,449	81,115	0	1008,98	4,4	6,8	6,7	1	1	1	1	1	1	1	1	1	0	1	-64,763918	271,915932	245,207517	0
15.01.2021	02:35:47	0	0	4,971771	1,31625	50,328	-1,45	81,105	0	1008,88	4,4	6,8	6,6	1	1	1	1	1	1	1	1	1	0	1	-67,300916	271,967934	242,907707	0
15.01.2021	02:35:48	0	0	3,615834	1,39875	36,2412	-1,448	81,1	0	1008,96	4,4	6,8	6,6	1	1	1	1	1	1	1	1	1	0	1	-65,045807	271,812352	244,453592	0
15.01.2021	02:35:49	0	0	2,937865	1,5405	51,7536	-1,454	81,092	0	1008,76	4,4	6,8	6,6	1	1	1	1	1	1	1	1	1	0	1	-66,807611	271,955921	243,346207	0
15.01.2021	02:35:50	0	0	3,163854	1,7235	49,6944	-1,449	81,107	0	1009,04	4,4	6,8	6,6	1	1	1	1	1	1	1	1	1	0	1	-66,102889	271,978618	244,154485	0
15.01.2021	02:35:51	0	0	4,632787	1,962	35,4924	-1,453	81,095	0	1008,9	4,4	6,8	6,6	1	1	1	1	1	1	1	1	1	0	1	-70,68358	271,939915	239,397229	0
15.01.2021	02:35:52	0	0	3,05086	2,124	39,546	-1,447	81,092	0	1008,98	4,4	6,8	6,6	1	1	1	1	1	1	1	1	1	0	1	-70,331219	271,955921	239,822599	0
15.01.2021	02:35:53	0	0	2,937865	2,295	46,2348	-1,447	81,068	0	1009,02	4,4	6,8	6,6	1	1	1	1	1	1	1	1	1	0	1	-65,045807	271,836205	244,562248	0
15.01.2021	02:35:54	0	0	3,728828	2,3325	41,4792	-1,441	81,082	0	1009,02	4,4	6,8	6,6	1	1	1	1	1	1	1	1	1	0	1	-71,740662	271,957255	238,419243	0
15.01.2021	02:35:55	0	0	3,276849	2,36325	50,3352	-1,45	81,078	0	1008,96	4,4	6,8	6,6	1	1	1	1	1	1	1	1	1	0	1	-69,274137	271,978618	240,983237	0
15.01.2021	02:35:56	0	0	3,502839	2,37975	58,4928	-1,453	81,061	0	1008,92	4,4	6,8	6,6	1	1	1	1	1	1	1	1	1	0	1	-64,48203	271,955921	245,671788	0
15.01.2021	02:35:57	0	0	4,067813	2,1585	58,1076	-1,451	81,075	0	1009	4,3	6,8	6,6	1	1	1	1	1	1	1	1	1	0	1	-68,428471	271,921259	241,567256	0
15.01.2021	02:35:58	0	0	4,971771	1,884	39,8772	-1,445	81,078	0	1009,12	4,4	6,8	6,6	1	1	1	1	1	1	1	1	1	0	1	-66,807611	271,970604	243,413197	0
15.01.2021	02:35:59	0	0	3,05086	1,857	27,972	-1,45	81,068	0	1008,92	4,4	6,8	6,6	1	1	1	1	1	1	1	1	1	0	1	-69,344609	271,85876	240,366217	0
15.01.2021	02:36:00	0	0	3,276849	2,544	35,4672	-1,449	81,075	0	1008,86	4,4	6,8	6,6	1	1	1	1	1	1	1	1	1	0	1	-66,596195	271,866727	243,150939	0
15.01.2021	02:36:01	0	0	3,276849	2,544	35,4672	-1,449	81,075	0	1008,86	4,4	6,8	6,6	1	1	1	1	1	1	1	1	1	0	1	-66,596195	271,866727	243,150939	0
15.01.2021	02:36:02	0	0	4,632787	2,71425	42,588	-1,446	81,077	0	1009,04	4,4	6,8	6,6	1	1	1	1	1	1	1	1	1	0	1	-67,794221	271,820299	241,741378	0
15.01.2021	02:36:03	0	0	2,59888	2,75775	33,6528	-1,444	81,069	0	1009,02	4,4	6,8	6,6	1	1	1	1	1	1	1	1	1	0	1	-69,626498	271,796466	239,800556	0
15.01.2021	02:36:04	0	0	3,728806	2,6145	27,9972	-1,445	81,062	0	1009,06	4,4	6,8	6,7	1	1	1	1	1	1	1	1	1	0	1	-68,428471	271,854778	241,264209	0
15.01.2021	02:36:05	0	0	5,084766	2,5455	43,6644	-1,441	81,079	0	1008,96	4,4	6,8	6,6	1	1	1	1	1	1	1	1	1	0	1	-65,257223	271,975947	244,98796	0
15.01.2021	02:36:06	0	0	4,519792	2,7705	43,6752	-1,448	81,066	0	1008,96	4,3	6,8	6,6	1	1	1	1	1	1	1	1	1	0	1	-65,821001	271,865399	243,92008	0
15.01.2021	02:36:07	0	0	4,067813	2,8695	48,4956	-1,451	81,066	0	1008,96	4,4	6,8	6,6	1	1	1	1	1	1	1	1	1	0	1	-68,498943	271,812352	241,000456	0
15.01.2021	02:36:08	0	0	3,27683	2,877	39,852	-1,446	81,083	0	1008,88	4,4	6,8	6,7	1	1	1	1	1	1	1	1	1	0	1	-67,723749	271,821624	241,817886	0
15.01.2021	02:36:09	0	0	3,841823	2,9805	36,234	-1,445	81,068	0	1008,98	4,3	6,8	6,6	1	1	1	1	1	1	1	1	1	0	1	-71,317829	271,884001	238,508033	0
15.01.2021	02:36:10	0	0	4,067813	3,21825	37,6848	-1,441	81,067	0	1009	4,4	6,8	6,6	1	1	1	1	1	1	1	1	1	0	1	-68,780832	271,973275	241,452163	0
15.01.2021	02:36:11	0	0	5,423751	3,234	38,4048	-1,439	81,074	0	1009,04	4,4	6,8	6,6	1	1	1	1	1	1	1	1	1	0	1	-67,0895	271,897299	242,796982	0
15.01.2021	02:36:12	0	0	2,711875	3,069	51,732	-1,439	81,064	0	1008,98	4,4	6,8	6,6	1	1	1	1	1	1	1	1	1	0	1	-65,539112	271,97194	244,687789	0
15.01.2021	02:36:13	0	0	2,711859	2,874	36,612	-1,443	81,059	0	1008,98	4,4	6,8	6,7	1	1	1	1	1	1	1	1	1	0	1	-63,84778	271,830901	245,736115	0
15.01.2021	02:36:14	0	0	3,615834	2,71875	52,0992	-1,442	81,068	0	1008,76	4,4	6,8	6,6	1	1	1	1	1	1	1	1	1	0	1	-68,710359	271,894639	241,163994	0
15.01.2021	02:36:15	0	0	4,519792	2,66475	41,4612	-1,443	81,063	0	1008,72	4,3	6,8	6,6	1	1	1	1	1	1	1	1	1	0	1	-67,582805	271,808379	241,898501	0
15.01.2021	02:36:16	0	0	4,180808	2,7165	41,0112	-1,446	81,067	0	1009,04	4,3	6,8	6,6	1	1	1	1	1	1	1	1	1	0	1	-66,032417	271,962594	244,151843	0
15.01.2021	02:36:17	0	0	2,598865	2,71725	49,9608	-1,439	81,079	0	1009	4,4	6,8	6,7	1	1	1	1	1	1	1	1	1	0	1	-64,411557	271,882672	245,408246	0
15.01.2021	02:36:18	0	0	3,05086	2,724	46,9764	-1,445	81,071	0	1008,96	4,4	6,8	6,6	1	1	1	1	1	1	1	1	1	0	1	-72,938689	271,953252	237,202955	0
15.01.2021	02:36:19	0	0	4,632759	2,736	46,6956	-1,436	81,069	0	1009	4,4	6,8	6,7	1	1	1	1	1	1	1	1	1	0	1	-71,881607	271,800436	237,563526	0
15.01.2021	02:36:20	0	0	4,858747	2,7375	44,3952	-1,439	81,07	0	1008,96	4,3	6,8	6,7	1	1	1	1	1	1	1	1	1	0	1	-69,203665	271,889319	240,646439	0
15.01.2021	02:36:21	0	0	4,632759	2,79675	51,0552	-1,439	81,071	0	1009	4,3	6,8	6,7	1	1	1	1	1	1	1	1	1	0	1	-67,582805	271,796466	241,844248	0
15.01.2021	02:36:22	0	0	4,858747	2,8935	58,4676	-1,445	81,071	0	1009,04	4,3	6,8	6,7	1	1	1	1	1	1	1	1	1	0	1	-70,613108	271,830901	238,970787	0
15.01.2021	02:36:23	0	0	4,971741	2,8335	52,506	-1,435	81,078	0	1008,86	4,3	6,8	6,7	1	1	1	1	1	1	1	1	1	0	1	-67,0895	271,836205	242,518555	0
15.01.2021	02:36:24	0	0	3,163854	2,72175	49,9608	-1,436	81,097	0	1008,94	4,3	6,8	6,6	1	1	1	1	1	1	1	1	1	0	1	-65,46864	271,789851	243,928291	0
15.01.2021	02:36:25	0	0	4,971771	2,67375	48,5244	-1,441	81,077	0	1008,88	4,3	6,8	6,6	1	1	1	1	1	1	1	1	1	0	1	-68,005638	271,881342	241,808107	0
15.01.2021	02:36:26	0	0	3,728806	2,649	55,188	-1,435	81,1	0	1009,08	4,4	6,8	6,7	1	1	1	1	1	1	1	1	1	0	1	-64,83439	271,809703	244,652946	0
15.01.2021	02:36:27	0	0	3,163835	2,5275	58,482	-1,444	81,116	0	1008,94	4,3	6,8	6,7	1	1	1	1	1	1	1	1	1	0	1	-69,274137	271,832227	240,315798	0
15.01.2021	02:36:28	0	0	4,745753	2,4	72	-1,437	81,138	0	1008,8	4,3	6,8	6,7	1	1	1	1	1	1	1	1	1	0	1	-68,498943	271,837531	241,115153	0
15.01.2021	02:36:29	0	0	3,728806	2,52	72,6768	-1,438	81,136	0	1008,96	4,3	6,8	6,7	1	1	1	1	1	1	1	1	1	0	1	-64,200141	271,809703	245,287195	0
15.01.2021	02:36:30	0	0	3,954794	2,52675	69,93	-1,435	81,144	0	1008,96	4,3	6,8	6,7	1	1	1	1	1	1	1	1	1	0	1	-70,894996	271,860088	238,82188	0
15.01.2021	02:36:31	0	0	3,8418	2,63175	70,6356	-1,433	81,137	0	1008,96	4,4	6,8	6,7	1	1	1	1	1	1	1	1	1	0	1	-68,921776	271,811027	240,571592	0
15.01.2021	02:36:32	0	0	2,598865	2,58225	60,2568	-1,431	81,164	0	1008,98	4,3	6,8	6,7	1	1	1	1	1	1	1	1	1	0	1	-65,398168	271,822949	244,149503	0
15.01.2021	02:36:33	0	0	4,745753	2,44425	44,7912	-1,43	81,144	0	1008,94	4,3	6,8	6,7	1	1	1	1	1	1	1	1	1	0	1	-64,411557	271,911937	245,541665	0
15.01.2021	02:36:34	0	0	4,858747	2,4585	42,9012	-1,429	81,151	0	1009,06	4,4	6,8	6,7	1	1	1	1	1	1	1	1	1	0	1	-71,811135	271,937249	238,257514	0
15.01.2021	02:36:35	0	0	3,163854	2,553	53,3592	-1,442	81,131	0	1009,1	4,4	6,8	6,6	1	1	1	1	1	1	1	1	1	0	1	-67,300916	271,962594	242,883344	0
15.01.2021	02:36:36	0	0	4,632759	2,53575	54,486	-1,428	81,119	0	1009,16	4,3	6,8	6,7	1	1	1	1	1	1	1	1	1	0	1	-68,357999	271,797789	241,075081	0
15.01.2021	02:36:37	0	0	4,067788	2,4225	51,0624	-1,43	81,102	0	1008,92	4,3	6,8	6,7	1	1	1	1	1	1	1	1	1	0	1	-72,868217	271,891979	236,994011	0
15.01.2021	02:36:38	0	0	2,59888	2,30775	62,046	-1,431	81,106	0	1009,16	4,3	6,8	6,6	1	1	1	1	1	1	1	1	1	0	1	-68,992248	271,80176	240,458912	0
15.01.2021	02:36:39	0	0	4,067788	2,25975	59,8644	-1,426	81,105	0	1008,94	4,3	6,8	6,7	1	1	1	1	1	1	1	1	1	0	1	-66,596195	271,845489	243,05416	0
15.01.2021	02:36:40	0	0	3,050841	2,265	73,5444	-1,425	81,112	0	1009,12	4,3	6,8	6,7	1	1	1	1	1	1	1	1	1	0	1	-68,992248	271,961259	241,185923	0
15.01.2021	02:36:41	0	0	2,937865	2,23425	49,1832	-1,427	81,119	0	1008,82	4,3	6,8	6,6	1	1	1	1	1	1	1	1	1	0	1	-70,754052	271,939915	239,326757	0
15.01.2021	02:36:42	0	0	4,971741	2,19375	59,8716	-1,425	81,149	0	1009,1	4,3	6,8	6,7	1	1	1	1	1	1	1	1	1	0	1	-69,344609	271,857433	240,360168	0
15.01.2021	02:36:43	0	0	4,293777	2,08425	56,6712	-1,429	81,139	0	1008,88	4,3	6,8	6,7	1	1	1	1	1	1	1	1	1	0	1	-70,613108	271,795143	238,80792	0
15.01.2021	02:36:44	0	0	5,19773	1,93575	63,8784	-1,43	81,163	0	1008,94	4,3	6,8	6,7	1	1	1	1	1	1	1	1	1	0	1	-67,371388	271,865399	242,369693	0
15.01.2021	02:36:45	0	0	4,745753	1,89225	62,4204	-1,426	81,163	0	1008,94	4,3	6,8	6,7	1	1	1	1	1	1	1	1	1	0	1	-74,982382	271,821624	234,559253	0
15.01.2021	02:36:46	0	0	3,954818	1,99725	55,5372	-1,433	81,162	0	1009,02	4,3	6,9	6,6	1	1	1	1	1	1	1	1	1	0	1	-66,666667	271,852123	243,013917	0
15.01.2021	02:36:47	0	0	4,519792	2,17575	56,6892	-1,429	81,152	0	1009,12	4,3	6,8	6,6	1	1	1	1	1	1	1	1	1	0	1	-67,159972	271,938582	242,914757	0
15.01.2021	02:36:48	0	0	3,502818	2,10525	69,1884	-1,424	81,13	0	1008,92	4,3	6,8	6,7	1	1	1	1	1	1	1	1	1	0	1	-67,864693	271,804407	241,598524	0
15.01.2021	02:36:49	0	0	4,971771	1,941	36,612	-1,431	81,112	0	1008,94	4,4	6,8	6,6	1	1	1	1	1	1	1	1	1	0	1	-70,260747	271,834879	239,341267	0
15.01.2021	02:36:50	0	0	4,858747	1,776	44,7696	-1,423	81,111	0	1009,02	4,3	6,8	6,7	1	1	1	1	1	1	1	1	1	0	1	-67,794221	271,92792	242,23188	0
15.01.2021	02:36:51	0	0	4,858776	1,56375	57,0384	-1,424	81,076	0	1008,98	4,3	6,8	6,6	1	1	1	1	1	1	1	1	1	0	1	-64,904863	271,81765	244,618668	0
15.01.2021	02:36:52	0	0	5,536712	1,65825	36,2556	-1,431	81,043	0	1008,96	4,3	6,8	6,7	1	1	1	1	1	1	1	1	1	0	1	-65,539112	271,88666	244,29887	0
15.01.2021	02:36:53	0	0	4,632759	1,752	46,98	-1,421	81,042	0	1009	4,3	6,8	6,7	1	1	1	1	1	1	1	1	1	0	1	-66,032417	271,969269	244,182298	0
15.01.2021	02:36:54	0	0	3,163835	1,95675	35,8776	-1,426	81,036	0	1009,06	4,3	6,8	6,7	1	1	1	1	1	1	1	1	1	0	1	-68,287526	271,845489	241,362828	0
15.01.2021	02:36:55	0	0	2,711859	2,1405	45,1368	-1,428	81,023	0	1008,84	4,3	6,8	6,7	1	1	1	1	1	1	1	1	1	0	1	-66,525722	271,850796	243,148815	0
15.01.2021	02:36:56	0	0	4,971741	2,2305	43,6824	-1,425	81,01	0	1009,02	4,4	6,8	6,7	1	1	1	1	1	1	1	1	1	0	1	-68,921776	271,981291	241,347791	0
15.01.2021	02:36:57	0	0	2,937847	2,427	53,3628	-1,425	81,006	0	1008,88	4,3	6,8	6,7	1	1	1	1	1	1	1	1	1	0	1	-67,44186	271,88666	242,396122	0
15.01.2021	02:36:58	0	0	2,824853	2,5215	52,5096	-1,422	80,996	0	1009,02	4,3	6,8	6,7	1	1	1	1	1	1	1	1	1	0	1	-67,44186	271,975947	242,803323	0
15.01.2021	02:36:59	0	0	4,858747	2,5095	52,1388	-1,432	80,991	0	1008,98	4,4	6,8	6,7	1	1	1	1	1	1	1	1	1	0	1	-63,84778	271,81765	245,675751	0
15.01.2021	02:37:00	0	0	3,8418	2,517	48,8196	-1,425	80,981	0	1009,04	4,3	6,9	6,7	1	1	1	1	1	1	1	1	1	0	1	-66,807611	271,986636	243,486348	0
15.01.2021	02:37:01	0	0	3,8418	2,517	48,8196	-1,425	80,981	0	1009,04	4,3	6,9	6,7	1	1	1	1	1	1	1	1	1	0	1	-66,807611	271,986636	243,486348	0
15.01.2021	02:37:02	0	0	3,8418	2,56725	58,1148	-1,426	80,966	0	1008,98	4,4	6,8	6,7	1	1	1	1	1	1	1	1	1	0	1	-69,344609	271,849469	240,323882	0
15.01.2021	02:37:03	0	0	5,084736	2,5455	47,3652	-1,432	80,944	0	1008,9	4,3	6,9	6,7	1	1	1	1	1	1	1	1	1	0	1	-70,049331	271,966599	240,153201	0
15.01.2021	02:37:04	0	0	3,163835	2,5725	42,5988	-1,424	80,924	0	1008,98	4,4	6,9	6,7	1	1	1	1	1	1	1	1	1	0	1	-64,763918	271,990646	245,54834	0
15.01.2021	02:37:05	0	0	3,502818	2,55975	44,784	-1,425	80,924	0	1009,02	4,4	6,8	6,7	1	1	1	1	1	1	1	1	1	0	1	-67,159972	271,876026	242,629543	0
15.01.2021	02:37:06	0	0	3,163835	2,5365	35,8632	-1,428	80,911	0	1009,12	4,4	6,8	6,7	1	1	1	1	1	1	1	1	1	0	1	-66,948555	271,981291	243,321012	0
15.01.2021	02:37:07	0	0	3,163835	2,4375	67,2948	-1,429	80,891	0	1008,98	4,4	6,8	6,7	1	1	1	1	1	1	1	1	1	0	1	-70,894996	271,832227	238,694938	0
15.01.2021	02:37:08	0	0	4,180783	2,19675	41,004	-1,423	80,916	0	1009,06	4,4	6,9	6,7	1	1	1	1	1	1	1	1	1	0	1	-73,854827	271,907944	236,080187	0
15.01.2021	02:37:09	0	0	3,615812	2,13075	45,5436	-1,422	80,916	0	1008,86	4,3	6,9	6,7	1	1	1	1	1	1	1	1	1	0	1	-68,921776	271,975947	241,323407	0
15.01.2021	02:37:10	0	0	4,180783	2,088	51,066	-1,426	80,904	0	1009	4,4	6,9	6,7	1	1	1	1	1	1	1	1	1	0	1	-68,357999	271,893308	241,510292	0
15.01.2021	02:37:11	0	0	3,050841	2,07375	58,1292	-1,429	80,912	0	1008,86	4,3	6,9	6,7	1	1	1	1	1	1	1	1	1	0	1	-72,656801	271,978618	237,600573	0
15.01.2021	02:37:12	0	0	3,163835	2,09025	44,3952	-1,426	80,92	0	1008,86	4,4	6,8	6,7	1	1	1	1	1	1	1	1	1	0	1	-68,569415	271,829576	241,008441	0
15.01.2021	02:37:13	0	0	4,406771	2,22	48,132	-1,423	80,938	0	1008,96	4,4	6,9	6,7	1	1	1	1	1	1	1	1	1	0	1	-69,415081	271,88533	240,416841	0
15.01.2021	02:37:14	0	0	3,728806	2,2545	48,5856	-1,43	80,925	0	1009,02	4,4	6,9	6,7	1	1	1	1	1	1	1	1	1	0	1	-67,582805	271,986636	242,711154	0
15.01.2021	02:37:15	0	0	3,615812	2,13075	44,0568	-1,417	80,937	0	1008,96	4,3	6,9	6,7	1	1	1	1	1	1	1	1	1	0	1	-70,542636	271,849469	239,125855	0
15.01.2021	02:37:16	0	0	4,745753	2,06025	46,2204	-1,419	80,956	0	1009,04	4,4	6,8	6,7	1	1	1	1	1	1	1	1	1	0	1	-67,371388	271,929252	242,66079	0
15.01.2021	02:37:17	0	0	3,389824	2,115	55,2096	-1,426	80,943	0	1008,8	4,4	6,9	6,7	1	1	1	1	1	1	1	1	1	0	1	-72,093023	271,813676	237,412408	0
15.01.2021	02:37:18	0	0	4,971741	1,99725	51,048	-1,423	80,936	0	1009,02	4,4	6,9	6,7	1	1	1	1	1	1	1	1	1	0	1	-63,072586	271,919927	246,917067	0
15.01.2021	02:37:19	0	0	4,971741	1,90275	47,3616	-1,423	80,918	0	1009,06	4,4	6,9	6,7	1	1	1	1	1	1	1	1	1	0	1	-68,005638	271,963929	242,184712	0
15.01.2021	02:37:20	0	0	3,502818	1,89825	40,6224	-1,423	80,916	0	1008,94	4,4	6,9	6,7	1	1	1	1	1	1	1	1	1	0	1	-67,019027	271,870712	242,746266	0
15.01.2021	02:37:21	0	0	5,084736	1,90875	44,0604	-1,425	80,921	0	1009,04	4,3	6,8	6,7	1	1	1	1	1	1	1	1	1	0	1	-66,243834	271,804407	243,219383	0
15.01.2021	02:37:22	0	0	4,293777	1,8	55,1736	-1,418	80,92	0	1009	4,3	6,8	6,7	1	1	1	1	1	1	1	1	1	0	1	-68,428471	271,822949	241,1192	0
15.01.2021	02:37:23	0	0	2,937847	1,74675	51,03	-1,423	80,91	0	1008,92	4,4	6,8	6,7	1	1	1	1	1	1	1	1	1	0	1	-70,331219	271,919927	239,658434	0
15.01.2021	02:37:24	0	0	3,502818	1,66125	41,0076	-1,429	80,903	0	1009,04	4,4	6,9	6,7	1	1	1	1	1	1	1	1	1	0	1	-68,287526	271,966599	241,915005	0
15.01.2021	02:37:25	0	0	3,728806	1,64025	57,0492	-1,421	80,889	0	1009,04	4,3	6,9	6,7	1	1	1	1	1	1	1	1	1	0	1	-68,639887	271,791174	240,763067	0
15.01.2021	02:37:26	0	0	4,858747	1,608	54,7884	-1,42	80,907	0	1008,96	4,3	6,9	6,7	1	1	1	1	1	1	1	1	1	0	1	-66,243834	271,803083	243,213355	0
15.01.2021	02:37:27	0	0	3,502818	1,5735	40,9932	-1,42	80,891	0	1008,8	4,3	6,9	6,7	1	1	1	1	1	1	1	1	1	0	1	-67,512333	271,829576	242,065524	0
15.01.2021	02:37:28	0	0	4,971771	1,626	43,6716	-1,42	80,886	0	1008,88	4,4	6,9	6,6	1	1	1	1	1	1	1	1	1	0	1	-67,935166	271,877355	241,860406	0
15.01.2021	02:37:29	0	0	2,711859	1,689	66,2256	-1,42	80,887	0	1009,06	4,4	6,9	6,7	1	1	1	1	1	1	1	1	1	0	1	-67,864693	271,94925	242,258695	0
15.01.2021	02:37:30	0	0	4,632759	1,7715	77,5944	-1,422	80,877	0	1009,14	4,3	6,9	6,7	1	1	1	1	1	1	1	1	1	0	1	-66,596195	271,92792	243,429907	0
15.01.2021	02:37:31	0	0	2,372877	2,07375	62,4384	-1,42	80,866	0	1009,12	4,3	6,8	6,7	1	1	1	1	1	1	1	1	1	0	1	-67,582805	271,943915	242,51625	0
15.01.2021	02:37:32	0	0	4,519765	2,24775	58,8672	-1,424	80,853	0	1008,96	4,3	6,9	6,7	1	1	1	1	1	1	1	1	1	0	1	-69,06272	271,975947	241,182463	0
15.01.2021	02:37:33	0	0	4,858747	2,27175	50,688	-1,419	80,826	0	1008,92	4,4	6,9	6,7	1	1	1	1	1	1	1	1	1	0	1	-65,045807	271,9146	244,919557	0
15.01.2021	02:37:34	0	0	2,711859	2,34375	62,7984	-1,419	80,845	0	1008,92	4,4	6,9	6,7	1	1	1	1	1	1	1	1	1	0	1	-64,83439	271,963929	245,35596	0
15.01.2021	02:37:35	0	0	4,858747	2,379	68,7924	-1,421	80,829	0	1009,08	4,4	6,8	6,7	1	1	1	1	1	1	1	1	1	0	1	-68,357999	271,898629	241,534548	0
15.01.2021	02:37:36	0	0	3,27683	2,1945	79,0488	-1,426	80,827	0	1008,92	4,4	6,9	6,7	1	1	1	1	1	1	1	1	1	0	1	-68,07611	271,842836	241,562157	0
15.01.2021	02:37:37	0	0	2,485871	1,95375	76,392	-1,42	80,825	0	1009,06	4,4	6,9	6,7	1	1	1	1	1	1	1	1	1	0	1	-67,794221	271,796466	241,632832	0
15.01.2021	02:37:38	0	0	3,163835	1,776	63,8748	-1,422	80,826	0	1009,06	4,4	6,9	6,7	1	1	1	1	1	1	1	1	1	0	1	-73,220578	271,870712	236,544716	0
15.01.2021	02:37:39	0	0	3,163835	1,65975	58,4964	-1,423	80,807	0	1008,94	4,3	6,9	6,7	1	1	1	1	1	1	1	1	1	0	1	-65,539112	271,954586	244,608619	0
15.01.2021	02:37:40	0	0	4,745753	1,59375	52,6104	-1,425	80,796	0	1009,12	4,4	6,9	6,7	1	1	1	1	1	1	1	1	1	0	1	-65,750529	271,79382	243,664474	0
15.01.2021	02:37:41	0	0	4,971771	1,52325	42,6132	-1,424	80,788	0	1009,04	4,4	6,9	6,6	1	1	1	1	1	1	1	1	1	0	1	-68,217054	271,943915	241,882	0
15.01.2021	02:37:42	0	0	3,954794	1,4745	34,3404	-1,425	80,768	0	1009,06	4,4	6,8	6,7	1	1	1	1	1	1	1	1	1	0	1	-67,582805	271,852123	242,097779	0
15.01.2021	02:37:43	0	0	4,971741	1,3335	29,5884	-1,423	80,765	0	1009,06	4,4	6,8	6,7	1	1	1	1	1	1	1	1	1	0	1	-62,085976	271,79382	247,329027	0
15.01.2021	02:37:44	0	0	4,067813	1,20375	17,244	-1,421	80,76	0	1009,08	4,4	6,9	6,6	1	1	1	1	1	1	1	1	1	0	1	-69,133192	271,909275	240,807891	0
15.01.2021	02:37:45	0	0	2,937865	1,119	19,5372	-1,421	80,731	0	1009	4,4	6,9	6,6	1	1	1	1	1	1	1	1	1	0	1	-65,398168	271,966599	244,804364	0
15.01.2021	02:37:46	0	0	4,519765	1,257	27,9792	-1,426	80,718	0	1008,96	4,4	6,8	6,7	1	1	1	1	1	1	1	1	1	0	1	-65,327696	271,82825	244,244123	0
15.01.2021	02:37:47	0	0	4,971741	1,3485	31,7448	-1,419	80,726	0	1009,1	4,4	6,8	6,7	1	1	1	1	1	1	1	1	1	0	1	-68,07611	271,804407	241,387107	0
15.01.2021	02:37:48	0	0	4,406771	1,38	21,024	-1,427	80,705	0	1009	4,4	6,9	6,7	1	1	1	1	1	1	1	1	1	0	1	-71,529246	271,92792	238,496856	0
15.01.2021	02:37:49	0	0	3,502818	1,476	31,4208	-1,424	80,693	0	1009,08	4,4	6,9	6,7	1	1	1	1	1	1	1	1	1	0	1	-67,44186	271,947916	242,675444	0
15.01.2021	02:37:50	0	0	3,050841	1,53975	18,0936	-1,422	80,684	0	1009,12	4,4	6,8	6,7	1	1	1	1	1	1	1	1	1	0	1	-67,864693	271,80176	241,586467	0
15.01.2021	02:37:51	0	0	2,937847	1,536	32,2452	-1,421	80,675	0	1008,92	4,4	6,8	6,7	1	1	1	1	1	1	1	1	1	0	1	-64,975335	271,846816	244,681065	0
15.01.2021	02:37:52	0	0	3,954818	1,5885	38,088	-1,425	80,686	0	1009,04	4,3	6,8	6,6	1	1	1	1	1	1	1	1	1	0	1	-66,314306	271,799113	243,1248	0
15.01.2021	02:37:53	0	0	3,27683	1,61625	33,6528	-1,434	80,659	0	1009,02	4,4	6,8	6,7	1	1	1	1	1	1	1	1	1	0	1	-66,384778	271,822949	243,162892	0
15.01.2021	02:37:54	0	0	3,841823	1,63125	57,0528	-1,422	80,659	0	1009,06	4,3	6,8	6,6	1	1	1	1	1	1	1	1	1	0	1	-67,230444	271,771341	242,082211	0
15.01.2021	02:37:55	0	0	4,971741	1,54575	57,4272	-1,429	80,629	0	1009,06	4,4	6,9	6,7	1	1	1	1	1	1	1	1	1	0	1	-63,354475	271,813676	246,150956	0
15.01.2021	02:37:56	0	0	3,502839	1,425	9,7632	-1,422	80,64	0	1009,08	4,4	6,8	6,6	1	1	1	1	1	1	1	1	1	0	1	-69,908386	271,800436	239,536747	0
15.01.2021	02:37:57	0	0	4,067788	1,302	13,9464	-1,425	80,623	0	1009	4,3	6,8	6,7	1	1	1	1	1	1	1	1	1	0	1	-64,83439	271,957255	245,325515	0
15.01.2021	02:37:58	0	0	4,406771	1,24875	23,5944	-1,425	80,625	0	1009,06	4,4	6,8	6,7	1	1	1	1	1	1	1	1	1	0	1	-71,035941	271,893308	238,83235	0
15.01.2021	02:37:59	0	0	3,615834	1,20975	52,8876	-1,423	80,6	0	1008,86	4,3	6,8	6,6	1	1	1	1	1	1	1	1	1	0	1	-68,217054	271,939915	241,863755	0
15.01.2021	02:38:00	0	0	2,937865	1,17975	39,1572	-1,426	80,598	0	1009,06	4,4	6,8	6,6	1	1	1	1	1	1	1	1	1	0	1	-68,146582	271,946582	241,964638	0
15.01.2021	02:38:01	0	0	2,937865	1,17975	39,1572	-1,426	80,598	0	1009,06	4,4	6,8	6,6	1	1	1	1	1	1	1	1	1	0	1	-68,146582	271,946582	241,964638	0
15.01.2021	02:38:02	0	0	3,276849	1,2105	52,1316	-1,428	80,586	0	1008,98	4,4	6,8	6,6	1	1	1	1	1	1	1	1	1	0	1	-59,971811	271,773984	249,352877	0
15.01.2021	02:38:03	0	0	4,858776	1,296	43,6608	-1,425	80,599	0	1008,94	4,4	6,8	6,6	1	1	1	1	1	1	1	1	1	0	1	-66,384778	271,878684	243,416851	0
15.01.2021	02:38:04	0	0	2,372877	1,34025	41,8608	-1,432	80,598	0	1009,02	4,3	6,8	6,7	1	1	1	1	1	1	1	1	1	0	1	-68,146582	271,95859	242,019411	0
15.01.2021	02:38:05	0	0	4,745753	1,40625	25,416	-1,427	80,603	0	1009,1	4,4	6,8	6,7	1	1	1	1	1	1	1	1	1	0	1	-64,270613	271,938582	245,804116	0
15.01.2021	02:38:06	0	0	4,858776	1,63125	52,8876	-1,425	80,568	0	1009,02	4,4	6,8	6,6	1	1	1	1	1	1	1	1	1	0	1	-66,032417	271,811027	243,46095	0
15.01.2021	02:38:07	0	0	4,858776	1,71	64,6272	-1,426	80,583	0	1009,16	4,4	6,9	6,6	1	1	1	1	1	1	1	1	1	0	1	-65,186751	271,784561	244,18609	0
15.01.2021	02:38:08	0	0	5,197761	1,599	59,5008	-1,424	80,562	0	1008,86	4,3	6,8	6,6	1	1	1	1	1	1	1	1	1	0	1	-66,384778	271,890649	243,471388	0
15.01.2021	02:38:09	0	0	4,745782	1,4685	48,5172	-1,429	80,522	0	1009,04	4,4	6,8	6,6	1	1	1	1	1	1	1	1	1	0	1	-68,851304	271,950584	241,27817	0
15.01.2021	02:38:10	0	0	3,841823	1,3935	39,186	-1,429	80,52	0	1009,06	4,4	6,8	6,6	1	1	1	1	1	1	1	1	1	0	1	-64,059197	271,943915	246,039858	0
15.01.2021	02:38:11	0	0	4,180808	1,34025	49,2084	-1,43	80,532	0	1008,88	4,4	6,8	6,6	1	1	1	1	1	1	1	1	1	0	1	-66,243834	271,807055	243,231442	0
15.01.2021	02:38:12	0	0	2,937865	1,3185	42,696	-1,43	80,498	0	1009,1	4,4	6,8	6,6	1	1	1	1	1	1	1	1	1	0	1	-66,314306	271,785883	243,064557	0
15.01.2021	02:38:13	0	0	4,858776	1,377	44,3952	-1,433	80,498	0	1009,04	4,4	6,8	6,6	1	1	1	1	1	1	1	1	1	0	1	-62,22692	271,929252	247,805258	0
15.01.2021	02:38:14	0	0	4,293802	1,4655	59,8608	-1,434	80,492	0	1009	4,3	6,8	6,6	1	1	1	1	1	1	1	1	1	0	1	-69,203665	271,894639	240,670689	0
15.01.2021	02:38:15	0	0	2,485886	1,4955	59,1084	-1,427	80,469	0	1009,14	4,4	6,8	6,6	1	1	1	1	1	1	1	1	1	0	1	-69,06272	271,95859	241,103273	0
15.01.2021	02:38:16	0	0	3,389844	1,6005	75,9888	-1,428	80,487	0	1009,02	4,3	6,8	6,6	1	1	1	1	1	1	1	1	1	0	1	-61,522199	271,822949	248,025472	0
15.01.2021	02:38:17	0	0	3,163854	1,5915	40,2588	-1,436	80,469	0	1008,94	4,4	6,8	6,6	1	1	1	1	1	1	1	1	1	0	1	-68,428471	271,833553	241,167503	0
15.01.2021	02:38:18	0	0	2,937865	1,61025	49,9572	-1,431	80,475	0	1008,98	4,4	6,8	6,6	1	1	1	1	1	1	1	1	1	0	1	-67,582805	271,923923	242,42507	0
15.01.2021	02:38:19	0	0	4,067813	1,65525	45,5364	-1,438	80,467	0	1008,94	4,3	6,8	6,6	1	1	1	1	1	1	1	1	1	0	1	-67,0895	271,946582	243,021721	0
15.01.2021	02:38:20	0	0	3,841823	1,779	46,9872	-1,436	80,463	0	1009,1	4,4	6,8	6,6	1	1	1	1	1	1	1	1	1	0	1	-62,86117	271,813676	246,644261	0
15.01.2021	02:38:21	0	0	2,82487	2,061	42,6096	-1,44	80,481	0	1008,96	4,4	6,8	6,6	1	1	1	1	1	1	1	1	1	0	1	-66,596195	271,945249	243,508943	0
15.01.2021	02:38:22	0	0	3,05086	2,34525	35,4996	-1,437	80,481	0	1009	4,4	6,8	6,6	1	1	1	1	1	1	1	1	1	0	1	-68,428471	271,789851	240,96846	0
15.01.2021	02:38:23	0	0	3,163854	2,47275	31,7844	-1,435	80,486	0	1009,04	4,4	6,8	6,6	1	1	1	1	1	1	1	1	1	0	1	-63,988724	271,845489	245,66163	0
15.01.2021	02:38:24	0	0	4,519792	2,46825	32,5188	-1,433	80,491	0	1008,94	4,4	6,8	6,6	1	1	1	1	1	1	1	1	1	0	1	-66,102889	271,957255	244,057016	0
15.01.2021	02:38:25	0	0	4,971771	2,51775	35,874	-1,439	80,475	0	1009,04	4,4	6,8	6,6	1	1	1	1	1	1	1	1	1	0	1	-71,599718	271,930585	238,438537	0
15.01.2021	02:38:26	0	0	4,632787	2,56125	40,248	-1,438	80,485	0	1009,06	4,4	6,8	6,6	1	1	1	1	1	1	1	1	1	0	1	-65,750529	271,813676	243,754903	0
15.01.2021	02:38:27	0	0	3,954818	2,78175	45,8604	-1,434	80,51	0	1009,1	4,4	6,8	6,6	1	1	1	1	1	1	1	1	1	0	1	-66,45525	271,946582	243,65597	0
15.01.2021	02:38:28	0	0	4,858776	3,009	46,998	-1,433	80,512	0	1009,04	4,3	6,8	6,6	1	1	1	1	1	1	1	1	1	0	1	-67,371388	271,838857	242,24875	0
15.01.2021	02:38:29	0	0	3,615834	2,9805	38,4264	-1,435	80,536	0	1009,12	4,4	6,8	6,6	1	1	1	1	1	1	1	1	1	0	1	-67,864693	271,773984	241,459995	0
15.01.2021	02:38:30	0	0	3,276849	2,856	39,1608	-1,437	80,516	0	1009,1	4,4	6,8	6,6	1	1	1	1	1	1	1	1	1	0	1	-66,102889	271,929252	243,929289	0
15.01.2021	02:38:31	0	0	2,82487	2,73375	32,9076	-1,434	80,539	0	1009,12	4,4	6,8	6,6	1	1	1	1	1	1	1	1	1	0	1	-68,287526	271,882672	241,532277	0
15.01.2021	02:38:32	0	0	2,937865	2,4585	32,5188	-1,436	80,552	0	1009,1	4,4	6,8	6,6	1	1	1	1	1	1	1	1	1	0	1	-66,525722	271,775306	242,804983	0
15.01.2021	02:38:33	0	0	3,163854	2,31825	35,1144	-1,435	80,556	0	1008,98	4,4	6,8	6,6	1	1	1	1	1	1	1	1	1	0	1	-70,472163	271,812352	239,027236	0
15.01.2021	02:38:34	0	0	3,163854	2,18475	39,5568	-1,438	80,555	0	1009	4,4	6,8	6,6	1	1	1	1	1	1	1	1	1	0	1	-67,582805	271,771341	241,72985	0
15.01.2021	02:38:35	0	0	3,389844	2,30925	40,6296	-1,435	80,577	0	1009,04	4,4	6,8	6,6	1	1	1	1	1	1	1	1	1	0	1	-70,401691	271,795143	239,019336	0
15.01.2021	02:38:36	0	0	2,82487	2,3685	64,6272	-1,439	80,562	0	1009,18	4,4	6,8	6,6	1	1	1	1	1	1	1	1	1	0	1	-68,710359	271,922591	241,291441	0
15.01.2021	02:38:37	0	0	4,519792	2,229	62,8128	-1,438	80,584	0	1009,02	4,4	6,8	6,6	1	1	1	1	1	1	1	1	1	0	1	-69,344609	271,930585	240,693646	0
15.01.2021	02:38:38	0	0	3,615834	2,21925	58,5936	-1,434	80,594	0	1009,14	4,4	6,8	6,6	1	1	1	1	1	1	1	1	1	0	1	-67,512333	271,882672	242,307471	0
15.01.2021	02:38:39	0	0	4,067813	2,35575	59,8752	-1,436	80,601	0	1009,06	4,4	6,8	6,6	1	1	1	1	1	1	1	1	1	0	1	-68,780832	271,781916	240,579969	0
15.01.2021	02:38:40	0	0	3,389844	2,40075	41,4612	-1,44	80,603	0	1009,04	4,4	6,8	6,6	1	1	1	1	1	1	1	1	1	0	1	-62,22692	271,837531	247,387176	0
15.01.2021	02:38:41	0	0	5,084766	2,37525	51,7788	-1,438	80,613	0	1008,96	4,4	6,8	6,6	1	1	1	1	1	1	1	1	1	0	1	-67,371388	271,785883	242,007475	0
15.01.2021	02:38:42	0	0	4,858776	2,40975	45,522	-1,437	80,622	0	1008,98	4,4	6,8	6,6	1	1	1	1	1	1	1	1	1	0	1	-68,992248	271,905282	240,93063	0
15.01.2021	02:38:43	0	0	3,728828	2,307	42,6024	-1,439	80,622	0	1008,82	4,4	6,8	6,6	1	1	1	1	1	1	1	1	1	0	1	-67,44186	271,891979	242,420367	0
15.01.2021	02:38:44	0	0	3,728828	2,1135	60,552	-1,435	80,64	0	1009,1	4,4	6,8	6,6	1	1	1	1	1	1	1	1	1	0	1	-66,102889	271,771341	243,209765	0
15.01.2021	02:38:45	0	0	3,502839	1,82925	49,212	-1,434	80,637	0	1009,04	4,4	6,8	6,6	1	1	1	1	1	1	1	1	1	0	1	-64,693446	271,830901	244,890449	0
15.01.2021	02:38:46	0	0	4,180808	1,575	64,242	-1,438	80,648	0	1009,06	4,4	6,8	6,6	1	1	1	1	1	1	1	1	1	0	1	-65,891473	271,772663	243,427198	0
15.01.2021	02:38:47	0	0	2,937865	1,428	62,4348	-1,438	80,66	0	1009	4,4	6,8	6,6	1	1	1	1	1	1	1	1	1	0	1	-65,327696	271,836205	244,28036	0
15.01.2021	02:38:48	0	0	4,293802	1,40025	55,5588	-1,435	80,676	0	1009,04	4,4	6,8	6,6	1	1	1	1	1	1	1	1	1	0	1	-63,213531	271,902621	246,697213	0
15.01.2021	02:38:49	0	0	3,728828	1,5405	44,4132	-1,439	80,667	0	1009,04	4,4	6,8	6,6	1	1	1	1	1	1	1	1	1	0	1	-66,032417	271,943915	244,066637	0
15.01.2021	02:38:50	0	0	3,163835	1,87275	43,2864	-1,443	80,671	0	1009,02	4,4	6,8	6,7	1	1	1	1	1	1	1	1	1	0	1	-63,143058	271,89996	246,755553	0
15.01.2021	02:38:51	0	0	3,502818	2,235	45,864	-1,439	80,68	0	1008,96	4,4	6,8	6,7	1	1	1	1	1	1	1	1	1	0	1	-68,780832	271,77795	240,56191	0
15.01.2021	02:38:52	0	0	4,745782	2,36925	32,5152	-1,442	80,67	0	1009,1	4,4	6,8	6,6	1	1	1	1	1	1	1	1	1	0	1	-65,257223	271,917263	244,720284	0
15.01.2021	02:38:53	0	0	3,502839	2,36775	50,6952	-1,439	80,681	0	1009,08	4,4	6,8	6,6	1	1	1	1	1	1	1	1	1	0	1	-65,961945	271,8256	243,597798	0
15.01.2021	02:38:54	0	0	2,937865	2,4585	33,6384	-1,44	80,681	0	1008,94	4,4	6,8	6,6	1	1	1	1	1	1	1	1	1	0	1	-67,0895	271,926587	242,930526	0
15.01.2021	02:38:55	0	0	2,937865	2,41725	29,5668	-1,435	80,679	0	1009,14	4,4	6,8	6,6	1	1	1	1	1	1	1	1	1	0	1	-66,102889	271,845489	243,547465	0
15.01.2021	02:38:56	0	0	2,824853	2,47425	57,042	-1,439	80,661	0	1009	4,4	6,8	6,7	1	1	1	1	1	1	1	1	1	0	1	-68,992248	271,772663	240,326423	0
15.01.2021	02:38:57	0	0	5,64974	2,51625	54,2088	-1,44	80,639	0	1008,96	4,4	6,8	6,6	1	1	1	1	1	1	1	1	1	0	1	-65,821001	271,829576	243,756856	0
15.01.2021	02:38:58	0	0	4,519792	2,49	55,9332	-1,439	80,661	0	1008,92	4,4	6,8	6,6	1	1	1	1	1	1	1	1	1	0	1	-67,159972	271,937249	242,908677	0
15.01.2021	02:38:59	0	0	4,632759	2,3355	44,7696	-1,44	80,662	0	1009,04	4,4	6,8	6,7	1	1	1	1	1	1	1	1	1	0	1	-64,411557	271,88533	245,420365	0
15.01.2021	02:39:00	0	0	3,954818	2,304	62,442	-1,442	80,653	0	1009,06	4,4	6,8	6,6	1	1	1	1	1	1	1	1	1	0	1	-68,217054	271,746249	240,981384	0
15.01.2021	02:39:01	0	0	3,276849	2,31975	47,7612	-1,439	80,646	0	1009,04	4,4	6,8	6,6	1	1	1	1	1	1	1	1	1	0	1	-67,159972	271,874698	242,623487	0
15.01.2021	02:39:02	0	0	3,276849	2,31975	47,7612	-1,439	80,646	0	1009,04	4,4	6,8	6,6	1	1	1	1	1	1	1	1	1	0	1	-67,159972	271,874698	242,623487	0
15.01.2021	02:39:03	0	0	4,971771	2,41575	59,112	-1,438	80,649	0	1008,86	4,4	6,8	6,6	1	1	1	1	1	1	1	1	1	0	1	-67,230444	271,931917	242,813889	0
15.01.2021	02:39:04	0	0	4,293802	2,48475	50,6736	-1,438	80,647	0	1009,1	4,4	6,8	6,6	1	1	1	1	1	1	1	1	1	0	1	-67,794221	271,861415	241,928705	0
15.01.2021	02:39:05	0	0	2,711875	2,592	47,7504	-1,437	80,656	0	1009,2	4,4	6,8	6,6	1	1	1	1	1	1	1	1	1	0	1	-63,84778	271,771341	245,464875	0
15.01.2021	02:39:06	0	0	3,389844	2,57475	75,2436	-1,439	80,648	0	1009	4,4	6,8	6,6	1	1	1	1	1	1	1	1	1	0	1	-65,821001	271,775306	243,509705	0
15.01.2021	02:39:07	0	0	3,05086	2,45775	69,5412	-1,447	80,649	0	1009,02	4,4	6,8	6,6	1	1	1	1	1	1	1	1	1	0	1	-62,508809	271,85876	247,202017	0
15.01.2021	02:39:08	0	0	2,937847	2,103	46,2312	-1,445	80,663	0	1008,98	4,4	6,8	6,7	1	1	1	1	1	1	1	1	1	0	1	-68,287526	271,947916	241,829778	0
15.01.2021	02:39:09	0	0	3,954818	1,842	39,1752	-1,443	80,664	0	1009,24	4,4	6,8	6,6	1	1	1	1	1	1	1	1	1	0	1	-65,680056	271,844162	243,964254	0
15.01.2021	02:39:10	0	0	3,163854	1,7895	49,2156	-1,443	80,654	0	1009,04	4,4	6,8	6,6	1	1	1	1	1	1	1	1	1	0	1	-62,579281	271,776628	246,757442	0
15.01.2021	02:39:11	0	0	3,163854	1,7115	43,6788	-1,438	80,667	0	1009,06	4,4	6,8	6,6	1	1	1	1	1	1	1	1	1	0	1	-66,243834	271,759451	243,014696	0
15.01.2021	02:39:12	0	0	5,197761	1,77375	52,506	-1,442	80,646	0	1008,84	4,4	6,8	6,6	1	1	1	1	1	1	1	1	1	0	1	-69,978858	271,824274	239,574848	0
15.01.2021	02:39:13	0	0	4,406797	1,845	63,1872	-1,438	80,657	0	1009,16	4,4	6,8	6,6	1	1	1	1	1	1	1	1	1	0	1	-66,032417	271,93325	244,017994	0
15.01.2021	02:39:14	0	0	5,197761	1,98225	58,4964	-1,438	80,659	0	1009,04	4,4	6,8	6,6	1	1	1	1	1	1	1	1	1	0	1	-70,965469	271,845489	238,684886	0
15.01.2021	02:39:15	0	0	3,841823	2,16375	56,3904	-1,441	80,663	0	1009,04	4,4	6,8	6,6	1	1	1	1	1	1	1	1	1	0	1	-61,87456	271,925255	248,13939	0
15.01.2021	02:39:16	0	0	4,519792	2,25	48,5136	-1,439	80,684	0	1009,14	4,4	6,8	6,6	1	1	1	1	1	1	1	1	1	0	1	-65,609584	271,773984	243,715104	0
15.01.2021	02:39:17	0	0	3,502839	2,2875	56,6604	-1,444	80,699	0	1008,9	4,4	6,8	6,6	1	1	1	1	1	1	1	1	1	0	1	-70,613108	271,862743	239,11587	0
15.01.2021	02:39:18	0	0	5,423751	2,27475	74,538	-1,438	80,703	0	1009,12	4,4	6,8	6,6	1	1	1	1	1	1	1	1	1	0	1	-65,680056	271,917263	244,297451	0
15.01.2021	02:39:19	0	0	4,293777	2,1585	71,9784	-1,44	80,712	0	1009,06	4,4	6,8	6,7	1	1	1	1	1	1	1	1	1	0	1	-73,079634	271,917263	236,897874	0
15.01.2021	02:39:20	0	0	2,59888	1,944	61,704	-1,444	80,715	0	1008,96	4,4	6,8	6,6	1	1	1	1	1	1	1	1	1	0	1	-61,169838	271,816325	248,347659	0
15.01.2021	02:39:21	0	0	3,163854	1,7265	58,1184	-1,437	80,731	0	1009,1	4,4	6,8	6,6	1	1	1	1	1	1	1	1	1	0	1	-68,217054	271,915932	241,754381	0
15.01.2021	02:39:22	0	0	4,067788	1,49025	55,17	-1,441	80,707	0	1009,08	4,4	6,8	6,7	1	1	1	1	1	1	1	1	1	0	1	-63,565891	271,808379	245,915414	0
15.01.2021	02:39:23	0	0	3,728828	1,4025	57,7548	-1,439	80,72	0	1009,1	4,4	6,8	6,6	1	1	1	1	1	1	1	1	1	0	1	-68,639887	271,930585	241,398368	0
15.01.2021	02:39:24	0	0	2,372891	1,6305	52,902	-1,437	80,725	0	1008,96	4,4	6,8	6,6	1	1	1	1	1	1	1	1	1	0	1	-66,45525	271,776628	242,881473	0
15.01.2021	02:39:25	0	0	3,954794	1,86975	48,8232	-1,442	80,699	0	1009,02	4,4	6,8	6,7	1	1	1	1	1	1	1	1	1	0	1	-69,203665	271,90129	240,701013	0
15.01.2021	02:39:26	0	0	5,197761	2,2755	59,8392	-1,447	80,706	0	1008,98	4,4	6,8	6,6	1	1	1	1	1	1	1	1	1	0	1	-68,005638	271,772663	241,313033	0
15.01.2021	02:39:27	0	0	4,180783	2,478	55,9404	-1,438	80,697	0	1009	4,4	6,8	6,7	1	1	1	1	1	1	1	1	1	0	1	-70,754052	271,833553	238,841922	0
15.01.2021	02:39:28	0	0	5,084766	2,51025	51,7392	-1,439	80,684	0	1009,1	4,4	6,8	6,6	1	1	1	1	1	1	1	1	1	0	1	-68,287526	271,925255	241,726423	0
15.01.2021	02:39:29	0	0	4,067813	2,4795	43,3656	-1,442	80,658	0	1008,96	4,4	6,8	6,6	1	1	1	1	1	1	1	1	1	0	1	-67,371388	271,915932	242,600047	0
15.01.2021	02:39:30	0	0	4,293777	2,3565	35,8596	-1,436	80,659	0	1009,06	4,4	6,8	6,7	1	1	1	1	1	1	1	1	1	0	1	-70,049331	271,832227	239,540604	0
15.01.2021	02:39:31	0	0	4,971771	2,38125	37,3212	-1,44	80,628	0	1009,14	4,4	6,8	6,6	1	1	1	1	1	1	1	1	1	0	1	-71,67019	271,925255	238,34376	0
15.01.2021	02:39:32	0	0	5,310756	2,3325	43,6716	-1,446	80,607	0	1009,04	4,4	6,8	6,6	1	1	1	1	1	1	1	1	1	0	1	-67,582805	271,845489	242,06755	0
15.01.2021	02:39:33	0	0	4,180808	2,217	39,708	-1,438	80,592	0	1009,04	4,4	6,8	6,6	1	1	1	1	1	1	1	1	1	0	1	-66,384778	271,930585	243,653477	0
15.01.2021	02:39:34	0	0	3,841823	2,17875	42,6852	-1,44	80,565	0	1009,1	4,4	6,8	6,6	1	1	1	1	1	1	1	1	1	0	1	-65,750529	271,841509	243,881695	0
15.01.2021	02:39:35	0	0	4,745753	2,07225	58,4964	-1,451	80,553	0	1009,02	4,4	6,8	6,7	1	1	1	1	1	1	1	1	1	0	1	-62,438337	271,752849	246,790141	0
15.01.2021	02:39:36	0	0	3,8418	1,94775	63,1908	-1,441	80,527	0	1008,94	4,4	6,8	6,7	1	1	1	1	1	1	1	1	1	0	1	-68,851304	271,803083	240,605885	0
15.01.2021	02:39:37	0	0	2,82487	1,95825	58,8708	-1,449	80,506	0	1009,12	4,4	6,8	6,6	1	1	1	1	1	1	1	1	1	0	1	-66,737139	271,9146	243,228225	0
15.01.2021	02:39:38	0	0	4,858776	1,93125	48,8124	-1,444	80,498	0	1008,88	4,3	6,8	6,6	1	1	1	1	1	1	1	1	1	0	1	-61,592671	271,890649	248,263495	0
15.01.2021	02:39:39	0	0	3,163854	2,00925	60,9444	-1,447	80,488	0	1009,06	4,3	6,8	6,6	1	1	1	1	1	1	1	1	1	0	1	-70,894996	271,911937	239,058226	0
15.01.2021	02:39:40	0	0	3,050841	1,87275	46,6092	-1,443	80,479	0	1008,9	4,4	6,8	6,7	1	1	1	1	1	1	1	1	1	0	1	-66,666667	271,747569	242,537779	0
15.01.2021	02:39:41	0	0	4,067813	1,76625	51,4404	-1,445	80,493	0	1009,02	4,4	6,8	6,6	1	1	1	1	1	1	1	1	1	0	1	-67,935166	271,862743	241,793812	0
15.01.2021	02:39:42	0	0	2,711875	1,6485	63,4896	-1,441	80,495	0	1009,14	4,4	6,8	6,6	1	1	1	1	1	1	1	1	1	0	1	-64,763918	271,754169	244,470569	0
15.01.2021	02:39:43	0	0	4,293777	1,4865	51,7356	-1,449	80,485	0	1009,04	4,4	6,8	6,7	1	1	1	1	1	1	1	1	1	0	1	-72,515856	271,792497	236,893122	0
15.01.2021	02:39:44	0	0	3,05086	1,401	42,9156	-1,446	80,505	0	1009,02	4,4	6,8	6,6	1	1	1	1	1	1	1	1	1	0	1	-71,317829	271,747569	237,886616	0
15.01.2021	02:39:45	0	0	2,937865	1,41675	51,0588	-1,442	80,512	0	1009,16	4,4	6,8	6,6	1	1	1	1	1	1	1	1	1	0	1	-68,146582	271,882672	241,673221	0
15.01.2021	02:39:46	0	0	2,82487	1,4745	54,4752	-1,446	80,506	0	1009,04	4,4	6,8	6,6	1	1	1	1	1	1	1	1	1	0	1	-68,005638	271,762093	241,264916	0
15.01.2021	02:39:47	0	0	3,389824	1,47825	52,8984	-1,444	80,528	0	1009	4,4	6,8	6,7	1	1	1	1	1	1	1	1	1	0	1	-68,992248	271,918595	240,991332	0
15.01.2021	02:39:48	0	0	4,632787	1,455	67,68	-1,452	80,534	0	1009,14	4,4	6,8	6,6	1	1	1	1	1	1	1	1	1	0	1	-67,935166	271,771341	241,377489	0
15.01.2021	02:39:49	0	0	3,276849	1,3575	67,2876	-1,45	80,515	0	1008,96	4,4	6,8	6,6	1	1	1	1	1	1	1	1	1	0	1	-60,887949	271,773984	248,436739	0
15.01.2021	02:39:50	0	0	4,971771	1,3575	60,228	-1,454	80,53	0	1008,92	4,3	6,8	6,6	1	1	1	1	1	1	1	1	1	0	1	-65,257223	271,811027	244,236144	0
15.01.2021	02:39:51	0	0	3,276849	1,35	80,5428	-1,446	80,513	0	1009,02	4,4	6,8	6,6	1	1	1	1	1	1	1	1	1	0	1	-63,424947	271,893308	246,443343	0
15.01.2021	02:39:52	0	0	3,27683	1,3275	68,7672	-1,447	80,516	0	1009,04	4,4	6,8	6,7	1	1	1	1	1	1	1	1	1	0	1	-70,190275	271,737013	238,96613	0
15.01.2021	02:39:53	0	0	4,406797	1,3875	55,5336	-1,445	80,527	0	1009,04	4,4	6,8	6,6	1	1	1	1	1	1	1	1	1	0	1	-64,059197	271,882672	245,760607	0
15.01.2021	02:39:54	0	0	4,406797	1,434	61,6932	-1,452	80,511	0	1008,9	4,4	6,8	6,6	1	1	1	1	1	1	1	1	1	0	1	-70,754052	271,923923	239,253823	0
15.01.2021	02:39:55	0	0	4,406797	1,46775	57,7152	-1,45	80,533	0	1009,06	4,4	6,8	6,6	1	1	1	1	1	1	1	1	1	0	1	-70,190275	271,88666	239,647707	0
15.01.2021	02:39:56	0	0	4,519792	1,563	45,846	-1,445	80,53	0	1009,1	4,4	6,8	6,6	1	1	1	1	1	1	1	1	1	0	1	-61,381254	271,781916	247,979546	0
15.01.2021	02:39:57	0	0	2,711875	1,58475	59,1084	-1,45	80,523	0	1008,92	4,4	6,8	6,6	1	1	1	1	1	1	1	1	1	0	1	-64,200141	271,9146	245,765223	0
15.01.2021	02:39:58	0	0	4,745782	1,605	52,8732	-1,445	80,531	0	1009	4,4	6,8	6,6	1	1	1	1	1	1	1	1	1	0	1	-69,767442	271,829576	239,810414	0
15.01.2021	02:39:59	0	0	3,841823	1,59975	62,4384	-1,446	80,539	0	1008,98	4,4	6,8	6,6	1	1	1	1	1	1	1	1	1	0	1	-65,116279	271,739652	244,052133	0
15.01.2021	02:40:00	0	0	2,82487	1,5915	65,844	-1,446	80,531	0	1009,02	4,4	6,8	6,6	1	1	1	1	1	1	1	1	1	0	1	-66,737139	271,890649	243,119027	0
15.01.2021	02:40:01	0	0	2,82487	1,5915	65,844	-1,446	80,531	0	1009,02	4,4	6,8	6,6	1	1	1	1	1	1	1	1	1	0	1	-66,737139	271,890649	243,119027	0
15.01.2021	02:40:02	0	0	3,27683	1,56975	64,2456	-1,447	80,527	0	1008,94	4,4	6,8	6,7	1	1	1	1	1	1	1	1	1	0	1	-70,472163	271,902621	239,438581	0
15.01.2021	02:40:03	0	0	3,954818	1,557	65,088	-1,45	80,517	0	1008,98	4,4	6,8	6,6	1	1	1	1	1	1	1	1	1	0	1	-67,935166	271,873369	241,842238	0
15.01.2021	02:40:04	0	0	2,59888	1,53075	59,49	-1,444	80,538	0	1009,26	4,4	6,8	6,6	1	1	1	1	1	1	1	1	1	0	1	-70,472163	271,776628	238,86456	0
15.01.2021	02:40:05	0	0	2,59888	1,44375	72,6444	-1,448	80,544	0	1009,12	4,4	6,8	6,6	1	1	1	1	1	1	1	1	1	0	1	-64,059197	271,751529	245,163272	0
15.01.2021	02:40:06	0	0	4,858776	1,46775	67,6584	-1,447	80,567	0	1008,84	4,4	6,8	6,6	1	1	1	1	1	1	1	1	1	0	1	-67,864693	271,79382	241,550309	0
15.01.2021	02:40:07	0	0	5,19773	1,536	61,3188	-1,452	80,583	0	1009,02	4,4	6,8	6,7	1	1	1	1	1	1	1	1	1	0	1	-65,891473	271,731737	243,240924	0
15.01.2021	02:40:08	0	0	4,745782	1,49175	55,9332	-1,45	80,596	0	1009,08	4,4	6,8	6,6	1	1	1	1	1	1	1	1	1	0	1	-63,424947	271,889319	246,425157	0
15.01.2021	02:40:09	0	0	5,310724	1,48725	50,2992	-1,448	80,616	0	1009,14	4,4	6,8	6,7	1	1	1	1	1	1	1	1	1	0	1	-65,680056	271,824274	243,87365	0
15.01.2021	02:40:10	0	0	4,632787	1,6425	54,9	-1,455	80,638	0	1009,06	4,4	6,8	6,6	1	1	1	1	1	1	1	1	1	0	1	-66,878083	271,903951	243,038728	0
15.01.2021	02:40:11	0	0	3,954818	1,8105	61,686	-1,459	80,667	0	1008,78	4,4	6,8	6,6	1	1	1	1	1	1	1	1	1	0	1	-62,508809	271,865399	247,232272	0
15.01.2021	02:40:12	0	0	4,519792	1,83825	78,66	-1,451	80,688	0	1009,02	4,4	6,8	6,6	1	1	1	1	1	1	1	1	1	0	1	-65,891473	271,905282	244,031405	0
15.01.2021	02:40:13	0	0	3,728806	1,7835	69,1488	-1,451	80,711	0	1009,1	4,4	6,8	6,7	1	1	1	1	1	1	1	1	1	0	1	-66,737139	271,760772	242,527403	0
15.01.2021	02:40:14	0	0	2,711875	1,77225	71,6148	-1,451	80,739	0	1009,08	4,4	6,8	6,6	1	1	1	1	1	1	1	1	1	0	1	-68,498943	271,848142	241,163502	0
15.01.2021	02:40:15	0	0	4,858776	1,7745	70,218	-1,449	80,753	0	1009,08	4,4	6,8	6,6	1	1	1	1	1	1	1	1	1	0	1	-63,354475	271,740971	245,819941	0
15.01.2021	02:40:16	0	0	3,27683	1,68525	66,24	-1,447	80,764	0	1009,14	4,4	6,8	6,7	1	1	1	1	1	1	1	1	1	0	1	-65,327696	271,808379	244,15361	0
15.01.2021	02:40:17	0	0	3,502818	1,5735	65,4768	-1,448	80,772	0	1009,06	4,4	6,8	6,7	1	1	1	1	1	1	1	1	1	0	1	-69,06272	271,733056	240,075678	0
15.01.2021	02:40:18	0	0	5,310756	1,50075	81,2088	-1,449	80,775	0	1009	4,4	6,8	6,6	1	1	1	1	1	1	1	1	1	0	1	-70,260747	271,868055	239,492439	0
15.01.2021	02:40:19	0	0	3,389844	1,359	82,9764	-1,454	80,765	0	1008,98	4,4	6,8	6,6	1	1	1	1	1	1	1	1	1	0	1	-65,186751	271,74361	243,999675	0
15.01.2021	02:40:20	0	0	4,293802	1,23675	62,4312	-1,449	80,771	0	1008,98	4,4	6,8	6,6	1	1	1	1	1	1	1	1	1	0	1	-63,777308	271,746249	245,421131	0
15.01.2021	02:40:21	0	0	4,067788	1,158	75,6072	-1,45	80,764	0	1009,04	4,4	6,8	6,7	1	1	1	1	1	1	1	1	1	0	1	-70,190275	271,805731	239,278971	0
15.01.2021	02:40:22	0	0	3,841823	1,08675	102,2076	-1,447	80,779	0	1009,1	4,4	6,8	6,6	1	1	1	1	1	1	1	1	1	0	1	-66,314306	271,74229	242,866115	0
15.01.2021	02:40:23	0	0	4,519765	1,0305	105,1632	-1,449	80,774	0	1009,02	4,4	6,8	6,7	1	1	1	1	1	1	1	1	1	0	1	-66,525722	271,905282	243,397156	0
15.01.2021	02:40:24	0	0	4,632787	0,90675	93,3516	-1,445	80,796	0	1009,1	4,4	6,8	6,6	1	1	1	1	1	1	1	1	1	0	1	-68,357999	271,832227	241,231936	0
15.01.2021	02:40:25	0	0	3,389844	0,78375	81,2232	-1,454	80,802	0	1009,18	4,4	6,8	6,6	1	1	1	1	1	1	1	1	1	0	1	-61,87456	271,739652	247,293853	0
15.01.2021	02:40:26	0	0	3,163835	0,654	63,8928	-1,447	80,804	0	1009,1	4,4	6,8	6,7	1	1	1	1	1	1	1	1	1	0	1	-65,539112	271,766056	243,749482	0
15.01.2021	02:40:27	0	0	4,293777	0,57525	39,5532	-1,45	80,808	0	1009,04	4,4	6,8	6,7	1	1	1	1	1	1	1	1	1	0	1	-67,300916	271,723827	241,795484	0
15.01.2021	02:40:28	0	0	3,27683	0,54975	47,754	-1,446	80,796	0	1009,04	4,3	6,8	6,7	1	1	1	1	1	1	1	1	1	0	1	-63,636364	271,840183	245,989817	0
15.01.2021	02:40:29	0	0	4,293777	0,61725	93,3624	-1,442	80,784	0	1008,98	4,4	6,8	6,7	1	1	1	1	1	1	1	1	1	0	1	-63,636364	271,88666	246,201618	0
15.01.2021	02:40:30	0	0	3,954818	0,8025	96,1992	-1,451	80,759	0	1009,02	4,4	6,8	6,6	1	1	1	1	1	1	1	1	1	0	1	-62,579281	271,747569	246,625164	0
15.01.2021	02:40:31	0	0	4,971771	0,9315	81,2304	-1,448	80,761	0	1008,96	4,4	6,8	6,6	1	1	1	1	1	1	1	1	1	0	1	-68,005638	271,785883	241,373225	0
15.01.2021	02:40:32	0	0	3,050841	1,01625	86,9688	-1,448	80,75	0	1009,24	4,4	6,8	6,7	1	1	1	1	1	1	1	1	1	0	1	-64,129669	271,7291	244,990727	0
15.01.2021	02:40:33	0	0	2,937865	1,12575	75,9888	-1,446	80,741	0	1009,14	4,3	6,8	6,6	1	1	1	1	1	1	1	1	1	0	1	-66,807611	271,773984	242,517077	0
15.01.2021	02:40:34	0	0	3,615834	1,18425	77,5908	-1,449	80,736	0	1009,1	4,4	6,8	6,6	1	1	1	1	1	1	1	1	1	0	1	-62,438337	271,887989	247,405706	0
15.01.2021	02:40:35	0	0	3,389844	1,27725	93,3228	-1,449	80,739	0	1009,06	4,4	6,8	6,6	1	1	1	1	1	1	1	1	1	0	1	-64,83439	271,809703	244,652946	0
15.01.2021	02:40:36	0	0	4,519792	1,311	61,326	-1,449	80,708	0	1008,98	4,3	6,8	6,6	1	1	1	1	1	1	1	1	1	0	1	-63,988724	271,711966	245,053713	0
15.01.2021	02:40:37	0	0	5,423751	1,5345	72,306	-1,45	80,697	0	1009,04	4,3	6,8	6,6	1	1	1	1	1	1	1	1	1	0	1	-66,878083	271,880013	242,929603	0
15.01.2021	02:40:38	0	0	5,423718	1,76475	69,8652	-1,444	80,702	0	1009,06	4,4	6,8	6,7	1	1	1	1	1	1	1	1	1	0	1	-63,84778	271,796466	245,579273	0
15.01.2021	02:40:39	0	0	4,745753	1,91625	65,4732	-1,449	80,695	0	1009	4,3	6,8	6,7	1	1	1	1	1	1	1	1	1	0	1	-61,945032	271,878684	247,856597	0
15.01.2021	02:40:40	0	0	2,598865	1,9995	63,8712	-1,455	80,676	0	1008,86	4,4	6,8	6,7	1	1	1	1	1	1	1	1	1	0	1	-66,807611	271,857433	242,897166	0
15.01.2021	02:40:41	0	0	4,180808	1,932	70,2396	-1,449	80,662	0	1009,06	4,4	6,8	6,6	1	1	1	1	1	1	1	1	1	0	1	-66,173362	271,88666	243,664621	0
15.01.2021	02:40:42	0	0	5,197761	1,7835	82,9692	-1,45	80,663	0	1009,02	4,3	6,8	6,6	1	1	1	1	1	1	1	1	1	0	1	-67,512333	271,834879	242,089682	0
15.01.2021	02:40:43	0	0	2,711859	1,53525	65,8404	-1,447	80,669	0	1009,08	4,4	6,8	6,7	1	1	1	1	1	1	1	1	1	0	1	-67,582805	271,722508	241,507597	0
15.01.2021	02:40:44	0	0	2,937847	1,365	60,9444	-1,453	80,672	0	1009,08	4,3	6,8	6,7	1	1	1	1	1	1	1	1	1	0	1	-63,988724	271,85876	245,722102	0
15.01.2021	02:40:45	0	0	3,954818	1,30275	49,2012	-1,446	80,654	0	1009,12	4,3	6,8	6,6	1	1	1	1	1	1	1	1	1	0	1	-64,341085	271,77795	245,001657	0
15.01.2021	02:40:46	0	0	2,59888	1,308	70,596	-1,45	80,661	0	1009,02	4,4	6,8	6,6	1	1	1	1	1	1	1	1	1	0	1	-64,83439	271,762093	244,436164	0
15.01.2021	02:40:47	0	0	2,937865	1,42125	73,0548	-1,448	80,659	0	1009,1	4,4	6,8	6,6	1	1	1	1	1	1	1	1	1	0	1	-64,83439	271,878684	244,967238	0
15.01.2021	02:40:48	0	0	3,389844	1,47825	79,0488	-1,447	80,685	0	1009,14	4,4	6,8	6,6	1	1	1	1	1	1	1	1	1	0	1	-65,609584	271,90129	244,295094	0
15.01.2021	02:40:49	0	0	3,163854	1,53	76,3596	-1,448	80,681	0	1009,1	4,3	6,8	6,6	1	1	1	1	1	1	1	1	1	0	1	-64,904863	271,868055	244,848324	0
15.01.2021	02:40:50	0	0	4,632787	1,5465	69,5556	-1,446	80,72	0	1008,9	4,3	6,8	6,6	1	1	1	1	1	1	1	1	1	0	1	-69,06272	271,759451	240,195809	0
15.01.2021	02:40:51	0	0	4,971741	1,5915	70,2144	-1,447	80,725	0	1009	4,4	6,8	6,7	1	1	1	1	1	1	1	1	1	0	1	-69,203665	271,869384	240,555575	0
15.01.2021	02:40:52	0	0	4,632787	1,5405	54,8028	-1,45	80,784	0	1008,98	4,4	6,8	6,6	1	1	1	1	1	1	1	1	1	0	1	-68,357999	271,874698	241,42546	0
15.01.2021	02:40:53	0	0	2,82487	1,548	63,8748	-1,444	80,803	0	1009,04	4,3	6,8	6,6	1	1	1	1	1	1	1	1	1	0	1	-66,314306	271,727782	242,80009	0
15.01.2021	02:40:54	0	0	3,163835	1,8165	62,7732	-1,451	80,826	0	1009,14	4,3	6,8	6,7	1	1	1	1	1	1	1	1	1	0	1	-69,415081	271,791174	239,987873	0
15.01.2021	02:40:55	0	0	4,971771	1,96125	65,8476	-1,442	80,843	0	1009,16	4,4	6,8	6,6	1	1	1	1	1	1	1	1	1	0	1	-70,472163	271,897299	239,414318	0
15.01.2021	02:40:56	0	0	5,084736	1,90875	42,228	-1,446	80,848	0	1009,06	4,4	6,8	6,7	1	1	1	1	1	1	1	1	1	0	1	-68,146582	271,856105	241,552146	0
15.01.2021	02:40:57	0	0	4,519792	1,80075	43,6752	-1,444	80,848	0	1009,02	4,3	6,8	6,6	1	1	1	1	1	1	1	1	1	0	1	-68,569415	271,740971	240,605001	0
15.01.2021	02:40:58	0	0	3,954794	1,827	39,1716	-1,45	80,854	0	1009,08	4,4	6,8	6,7	1	1	1	1	1	1	1	1	1	0	1	-66,807611	271,891979	243,054617	0
15.01.2021	02:40:59	0	0	4,519765	2,10975	42,9156	-1,447	80,889	0	1009,1	4,4	6,8	6,7	1	1	1	1	1	1	1	1	1	0	1	-65,46864	271,848142	244,193805	0
15.01.2021	02:41:00	0	0	3,050841	2,5125	31,4172	-1,453	80,899	0	1009,02	4,4	6,8	6,7	1	1	1	1	1	1	1	1	1	0	1	-67,230444	271,838857	242,389694	0
15.01.2021	02:41:01	0	0	3,050841	2,5125	31,4172	-1,453	80,899	0	1009,02	4,4	6,8	6,7	1	1	1	1	1	1	1	1	1	0	1	-67,230444	271,838857	242,389694	0
15.01.2021	02:41:02	0	0	3,05086	2,3715	51,75	-1,445	80,92	0	1009,08	4,4	6,8	6,6	1	1	1	1	1	1	1	1	1	0	1	-66,314306	271,74229	242,866115	0
15.01.2021	02:41:03	0	0	3,502839	2,232	45,1476	-1,446	80,917	0	1009	4,4	6,8	6,6	1	1	1	1	1	1	1	1	1	0	1	-71,176885	271,833553	238,419089	0
15.01.2021	02:41:04	0	0	2,824853	2,09775	52,4988	-1,446	80,917	0	1009,06	4,4	6,8	6,7	1	1	1	1	1	1	1	1	1	0	1	-66,948555	271,905282	242,974323	0
15.01.2021	02:41:05	0	0	4,519765	1,94775	21,114	-1,45	80,905	0	1009,1	4,4	6,8	6,7	1	1	1	1	1	1	1	1	1	0	1	-67,44186	271,889319	242,408244	0
15.01.2021	02:41:06	0	0	4,632787	1,87125	68,3892	-1,448	80,898	0	1009,04	4,4	6,8	6,6	1	1	1	1	1	1	1	1	1	0	1	-67,653277	271,785883	241,725586	0
15.01.2021	02:41:07	0	0	3,163835	1,95825	77,2344	-1,45	80,877	0	1008,94	4,3	6,8	6,7	1	1	1	1	1	1	1	1	1	0	1	-64,129669	271,733056	245,008729	0
15.01.2021	02:41:08	0	0	5,084736	2,0415	84,8196	-1,444	80,863	0	1009,08	4,3	6,8	6,7	1	1	1	1	1	1	1	1	1	0	1	-70,260747	271,809703	239,226589	0
15.01.2021	02:41:09	0	0	4,067788	1,92375	67,6692	-1,442	80,85	0	1009,08	4,3	6,8	6,7	1	1	1	1	1	1	1	1	1	0	1	-65,891473	271,926587	244,128553	0
15.01.2021	02:41:10	0	0	4,971741	1,74975	69,4764	-1,443	80,846	0	1009,04	4,3	6,8	6,7	1	1	1	1	1	1	1	1	1	0	1	-71,388302	271,832227	238,201633	0
15.01.2021	02:41:11	0	0	2,824853	1,518	45,54	-1,445	80,811	0	1009,1	4,3	6,8	6,7	1	1	1	1	1	1	1	1	1	0	1	-71,952079	271,9146	238,013285	0
15.01.2021	02:41:12	0	0	3,27683	1,42875	40,2588	-1,446	80,805	0	1009	4,4	6,8	6,7	1	1	1	1	1	1	1	1	1	0	1	-67,371388	271,862743	242,357589	0
15.01.2021	02:41:13	0	0	2,937865	1,44675	57,0384	-1,446	80,764	0	1009,06	4,3	6,8	6,6	1	1	1	1	1	1	1	1	1	0	1	-69,203665	271,909275	240,737419	0
15.01.2021	02:41:14	0	0	5,084736	1,46475	59,1156	-1,446	80,73	0	1008,96	4,3	6,8	6,7	1	1	1	1	1	1	1	1	1	0	1	-71,247357	271,77795	238,095385	0
15.01.2021	02:41:15	0	0	4,858747	1,464	57,06	-1,445	80,706	0	1009,06	4,3	6,8	6,7	1	1	1	1	1	1	1	1	1	0	1	-67,582805	271,788528	241,808103	0
15.01.2021	02:41:16	0	0	4,293777	1,488	38,826	-1,446	80,681	0	1009,02	4,3	6,8	6,7	1	1	1	1	1	1	1	1	1	0	1	-63,284003	271,921259	246,711724	0
15.01.2021	02:41:17	0	0	4,971771	1,581	62,0352	-1,451	80,652	0	1009,14	4,3	6,8	6,6	1	1	1	1	1	1	1	1	1	0	1	-66,45525	271,856105	243,243478	0
15.01.2021	02:41:18	0	0	4,745782	1,7385	51,0624	-1,445	80,627	0	1008,96	4,3	6,8	6,6	1	1	1	1	1	1	1	1	1	0	1	-67,0895	271,748889	242,120953	0
15.01.2021	02:41:19	0	0	3,615812	1,83075	39,1572	-1,447	80,603	0	1009,24	4,4	6,8	6,7	1	1	1	1	1	1	1	1	1	0	1	-64,059197	271,780594	245,295584	0
15.01.2021	02:41:20	0	0	2,937847	1,78425	51,4548	-1,446	80,587	0	1009,12	4,3	6,8	6,7	1	1	1	1	1	1	1	1	1	0	1	-64,059197	271,775306	245,271509	0
15.01.2021	02:41:21	0	0	2,711859	1,91175	45,5472	-1,447	80,567	0	1009	4,3	6,8	6,7	1	1	1	1	1	1	1	1	1	0	1	-69,485553	271,760772	239,778988	0
15.01.2021	02:41:22	0	0	3,502839	1,96125	56,6604	-1,451	80,518	0	1008,8	4,3	6,8	6,6	1	1	1	1	1	1	1	1	1	0	1	-64,83439	271,789851	244,56254	0
15.01.2021	02:41:23	0	0	2,937865	1,87725	62,4492	-1,446	80,531	0	1009,06	4,3	6,8	6,6	1	1	1	1	1	1	1	1	1	0	1	-62,579281	271,744929	246,613151	0
15.01.2021	02:41:24	0	0	3,27683	1,8	68,4	-1,453	80,495	0	1009,02	4,3	6,8	6,7	1	1	1	1	1	1	1	1	1	0	1	-64,622974	271,804407	244,840243	0
15.01.2021	02:41:25	0	0	5,084736	1,71525	50,7024	-1,441	80,502	0	1009,08	4,3	6,8	6,7	1	1	1	1	1	1	1	1	1	0	1	-64,552502	271,919927	245,437151	0
15.01.2021	02:41:26	0	0	2,711859	1,812	49,5648	-1,445	80,488	0	1009,16	4,3	6,8	6,7	1	1	1	1	1	1	1	1	1	0	1	-67,935166	271,780594	241,419615	0
15.01.2021	02:41:27	0	0	4,971741	2,11125	54,7848	-1,453	80,471	0	1009,04	4,3	6,8	6,7	1	1	1	1	1	1	1	1	1	0	1	-70,049331	271,893308	239,81896	0
15.01.2021	02:41:28	0	0	4,067788	2,29725	45,5364	-1,448	80,458	0	1009,12	4,3	6,8	6,7	1	1	1	1	1	1	1	1	1	0	1	-68,780832	271,788528	240,610076	0
15.01.2021	02:41:29	0	0	5,19773	2,274	55,1808	-1,445	80,478	0	1009,16	4,3	6,8	6,7	1	1	1	1	1	1	1	1	1	0	1	-66,243834	271,894639	243,63052	0
15.01.2021	02:41:30	0	0	3,050841	2,2005	55,9656	-1,451	80,484	0	1009	4,3	6,8	6,7	1	1	1	1	1	1	1	1	1	0	1	-67,230444	271,750209	241,986017	0
15.01.2021	02:41:31	0	0	2,711859	2,112	58,8816	-1,449	80,505	0	1009,02	4,3	6,8	6,7	1	1	1	1	1	1	1	1	1	0	1	-69,203665	271,895969	240,676753	0
15.01.2021	02:41:32	0	0	3,27683	2,15025	56,268	-1,453	80,531	0	1008,98	4,3	6,8	6,7	1	1	1	1	1	1	1	1	1	0	1	-68,498943	271,758131	240,753575	0
15.01.2021	02:41:33	0	0	2,824853	2,148	44,4024	-1,449	80,57	0	1009,14	4,3	6,8	6,7	1	1	1	1	1	1	1	1	1	0	1	-67,582805	271,848142	242,07964	0
15.01.2021	02:41:34	0	0	2,598865	2,0475	30,7224	-1,449	80,574	0	1009,14	4,3	6,8	6,7	1	1	1	1	1	1	1	1	1	0	1	-67,723749	271,750209	241,492712	0
15.01.2021	02:41:35	0	0	4,858747	1,9365	26,5356	-1,449	80,611	0	1009,1	4,3	6,8	6,7	1	1	1	1	1	1	1	1	1	0	1	-65,961945	271,882672	243,857858	0
15.01.2021	02:41:36	0	0	2,711859	2,097	47,754	-1,451	80,624	0	1009,04	4,3	6,8	6,7	1	1	1	1	1	1	1	1	1	0	1	-64,552502	271,760772	244,71204	0
15.01.2021	02:41:37	0	0	5,084766	2,388	33,966	-1,452	80,628	0	1009	4,3	6,8	6,6	1	1	1	1	1	1	1	1	1	0	1	-64,48203	271,850796	245,192508	0
15.01.2021	02:41:38	0	0	5,084736	2,3385	40,3128	-1,454	80,645	0	1009,04	4,3	6,8	6,7	1	1	1	1	1	1	1	1	1	0	1	-67,019027	271,926587	243,000998	0
15.01.2021	02:41:39	0	0	3,615812	2,19975	32,4972	-1,452	80,664	0	1009,02	4,3	6,8	6,7	1	1	1	1	1	1	1	1	1	0	1	-65,257223	271,775306	244,073482	0
15.01.2021	02:41:40	0	0	3,728806	2,0565	32,1732	-1,448	80,68	0	1009	4,3	6,8	6,7	1	1	1	1	1	1	1	1	1	0	1	-66,596195	271,804407	242,867023	0
15.01.2021	02:41:41	0	0	3,728806	1,9725	29,1168	-1,452	80,727	0	1009,02	4,3	6,8	6,7	1	1	1	1	1	1	1	1	1	0	1	-68,287526	271,930585	241,750729	0
15.01.2021	02:41:42	0	0	3,389824	2,397	31,5072	-1,451	80,752	0	1009,06	4,3	6,8	6,7	1	1	1	1	1	1	1	1	1	0	1	-61,451727	271,857433	248,25305	0
15.01.2021	02:41:43	0	0	4,067788	2,562	42,2352	-1,45	80,793	0	1009,22	4,3	6,8	6,7	1	1	1	1	1	1	1	1	1	0	1	-69,556025	271,921259	240,439701	0
15.01.2021	02:41:44	0	0	4,067788	2,574	29,1096	-1,453	80,811	0	1008,88	4,3	6,8	6,7	1	1	1	1	1	1	1	1	1	0	1	-67,300916	271,846816	242,355483	0
15.01.2021	02:41:45	0	0	3,27683	2,4315	43,6896	-1,455	80,825	0	1009	4,3	6,8	6,7	1	1	1	1	1	1	1	1	1	0	1	-69,274137	271,915932	240,697299	0
15.01.2021	02:41:46	0	0	4,632759	2,35425	45,5112	-1,455	80,842	0	1009,26	4,3	6,8	6,7	1	1	1	1	1	1	1	1	1	0	1	-67,864693	271,903951	242,052117	0
15.01.2021	02:41:47	0	0	2,937847	2,24175	37,314	-1,449	80,86	0	1008,88	4,3	6,8	6,7	1	1	1	1	1	1	1	1	1	0	1	-65,821001	271,796466	243,606052	0
15.01.2021	02:41:48	0	0	4,745753	2,127	49,95	-1,452	80,874	0	1009,22	4,3	6,8	6,7	1	1	1	1	1	1	1	1	1	0	1	-71,176885	271,889319	238,673219	0
15.01.2021	02:41:49	0	0	3,163854	2,0085	67,0032	-1,456	80,879	0	1008,9	4,3	6,8	6,6	1	1	1	1	1	1	1	1	1	0	1	-71,952079	271,918595	238,031501	0
15.01.2021	02:41:50	0	0	3,050841	1,9695	76,8312	-1,449	80,887	0	1008,94	4,3	6,8	6,7	1	1	1	1	1	1	1	1	1	0	1	-68,146582	271,942582	241,94639	0
15.01.2021	02:41:51	0	0	2,937847	1,9815	84,7836	-1,45	80,884	0	1008,94	4,3	6,8	6,7	1	1	1	1	1	1	1	1	1	0	1	-65,257223	271,889319	244,592881	0
15.01.2021	02:41:52	0	0	4,971741	1,9905	66,2112	-1,447	80,897	0	1009,18	4,3	6,8	6,7	1	1	1	1	1	1	1	1	1	0	1	-67,371388	271,785883	242,007475	0
15.01.2021	02:41:53	0	0	3,27683	1,9485	75,6	-1,45	80,888	0	1009,14	4,3	6,8	6,7	1	1	1	1	1	1	1	1	1	0	1	-68,569415	271,809703	240,917921	0
15.01.2021	02:41:54	0	0	4,293777	1,797	78,2676	-1,443	80,888	0	1009,16	4,3	6,8	6,7	1	1	1	1	1	1	1	1	1	0	1	-70,754052	271,94925	239,369337	0
15.01.2021	02:41:55	0	0	2,824853	1,80825	95,8536	-1,447	80,888	0	1009,04	4,3	6,8	6,7	1	1	1	1	1	1	1	1	1	0	1	-70,472163	271,872041	239,299185	0
15.01.2021	02:41:56	0	0	3,276849	1,7685	91,1412	-1,445	80,882	0	1009,04	4,3	6,8	6,6	1	1	1	1	1	1	1	1	1	0	1	-67,864693	271,934583	242,191796	0
15.01.2021	02:41:57	0	0	4,519765	1,6905	85,9392	-1,445	80,905	0	1009,08	4,3	6,8	6,7	1	1	1	1	1	1	1	1	1	0	1	-68,217054	271,923923	241,790821	0
15.01.2021	02:41:58	0	0	2,372891	1,67475	69,4836	-1,447	80,876	0	1009,08	4,3	6,8	6,6	1	1	1	1	1	1	1	1	1	0	1	-67,935166	271,906613	241,99378	0
15.01.2021	02:41:59	0	0	4,519765	1,611	59,8392	-1,45	80,861	0	1009,02	4,3	6,8	6,7	1	1	1	1	1	1	1	1	1	0	1	-65,609584	271,937249	244,459064	0
15.01.2021	02:42:00	0	0	3,050841	1,3725	69,4656	-1,453	80,834	0	1008,98	4,3	6,8	6,7	1	1	1	1	1	1	1	1	1	0	1	-70,894996	271,795143	238,526031	0
15.01.2021	02:42:01	0	0	3,050841	1,3725	69,4656	-1,453	80,834	0	1008,98	4,3	6,8	6,7	1	1	1	1	1	1	1	1	1	0	1	-70,894996	271,795143	238,526031	0
15.01.2021	02:42:02	0	0	3,163873	1,30875	62,4096	-1,448	80,813	0	1009,08	4,3	6,8	6,5	1	1	1	1	1	1	1	1	1	0	1	-68,780832	271,775306	240,549874	0
15.01.2021	02:42:03	0	0	3,954818	1,37925	63,486	-1,445	80,813	0	1009,12	4,3	6,8	6,6	1	1	1	1	1	1	1	1	1	0	1	-66,45525	271,818974	243,074315	0
15.01.2021	02:42:04	0	0	2,598865	1,44375	60,5412	-1,445	80,817	0	1009,12	4,4	6,8	6,7	1	1	1	1	1	1	1	1	1	0	1	-64,059197	271,945249	246,045941	0
15.01.2021	02:42:05	0	0	4,519765	1,54275	63,8568	-1,447	80,802	0	1009,04	4,3	6,7	6,7	1	1	1	1	1	1	1	1	1	0	1	-69,908386	271,894639	239,965968	0
15.01.2021	02:42:06	0	0	2,937847	1,4985	67,6908	-1,441	80,811	0	1009,08	4,3	6,8	6,7	1	1	1	1	1	1	1	1	1	0	1	-68,851304	271,779272	240,497457	0
15.01.2021	02:42:07	0	0	3,27683	1,482	70,3188	-1,445	80,799	0	1008,96	4,3	6,8	6,7	1	1	1	1	1	1	1	1	1	0	1	-68,639887	271,804407	240,82333	0
15.01.2021	02:42:08	0	0	3,954794	1,42425	77,9652	-1,442	80,806	0	1009,02	4,3	6,8	6,7	1	1	1	1	1	1	1	1	1	0	1	-68,217054	271,938582	241,857674	0
15.01.2021	02:42:09	0	0	4,858747	1,3245	69,4584	-1,444	80,803	0	1009,1	4,4	6,8	6,7	1	1	1	1	1	1	1	1	1	0	1	-68,005638	271,791174	241,397316	0
15.01.2021	02:42:10	0	0	3,276849	1,21125	60,5844	-1,445	80,776	0	1008,98	4,3	6,8	6,6	1	1	1	1	1	1	1	1	1	0	1	-67,159972	271,898629	242,732575	0
15.01.2021	02:42:11	0	0	3,05086	1,128	52,5096	-1,44	80,786	0	1009,08	4,3	6,8	6,6	1	1	1	1	1	1	1	1	1	0	1	-68,992248	271,955921	241,16157	0
15.01.2021	02:42:12	0	0	5,310724	1,1415	52,5096	-1,443	80,765	0	1009,08	4,3	6,7	6,7	1	1	1	1	1	1	1	1	1	0	1	-66,666667	271,865399	243,074414	0
15.01.2021	02:42:13	0	0	3,954794	1,188	44,802	-1,445	80,755	0	1009,14	4,3	6,7	6,7	1	1	1	1	1	1	1	1	1	0	1	-69,203665	271,945249	240,901473	0
15.01.2021	02:42:14	0	0	2,937847	1,377	36,63	-1,446	80,746	0	1009,06	4,3	6,8	6,7	1	1	1	1	1	1	1	1	1	0	1	-68,639887	271,89996	241,258725	0
15.01.2021	02:42:15	0	0	3,502839	1,7085	41,0004	-1,441	80,746	0	1009,06	4,3	6,7	6,6	1	1	1	1	1	1	1	1	1	0	1	-73,995772	271,957255	236,164134	0
15.01.2021	02:42:16	0	0	2,59888	2,1825	48,5136	-1,441	80,712	0	1009,04	4,3	6,8	6,6	1	1	1	1	1	1	1	1	1	0	1	-69,978858	271,850796	239,695679	0
15.01.2021	02:42:17	0	0	4,293802	2,427	48,132	-1,444	80,709	0	1009	4,3	6,8	6,6	1	1	1	1	1	1	1	1	1	0	1	-66,525722	271,95859	243,640271	0
15.01.2021	02:42:18	0	0	4,519792	2,58975	64,2456	-1,441	80,718	0	1009,12	4,3	6,7	6,6	1	1	1	1	1	1	1	1	1	0	1	-68,146582	271,857433	241,558195	0
15.01.2021	02:42:19	0	0	2,82487	2,57175	51,0588	-1,448	80,715	0	1009,04	4,3	6,8	6,6	1	1	1	1	1	1	1	1	1	0	1	-64,341085	271,941248	245,745805	0
15.01.2021	02:42:20	0	0	4,293802	2,397	75,9852	-1,444	80,697	0	1009,1	4,4	6,8	6,6	1	1	1	1	1	1	1	1	1	0	1	-68,005638	271,931917	242,038695	0
15.01.2021	02:42:21	0	0	2,937865	2,00025	54,1188	-1,439	80,699	0	1009,14	4,3	6,8	6,6	1	1	1	1	1	1	1	1	1	0	1	-64,200141	271,950584	245,929333	0
15.01.2021	02:42:22	0	0	3,276849	1,54725	52,9776	-1,439	80,692	0	1009,06	4,3	6,7	6,6	1	1	1	1	1	1	1	1	1	0	1	-72,515856	271,890649	237,340309	0
15.01.2021	02:42:23	0	0	4,406797	1,59675	47,7504	-1,438	80,692	0	1009,12	4,3	6,8	6,6	1	1	1	1	1	1	1	1	1	0	1	-63,706836	271,957255	246,45307	0
15.01.2021	02:42:24	0	0	3,954818	1,67925	54,4932	-1,45	80,667	0	1009,06	4,4	6,7	6,6	1	1	1	1	1	1	1	1	1	0	1	-71,529246	271,937249	238,539402	0
15.01.2021	02:42:25	0	0	4,406797	1,734	51,0768	-1,441	80,679	0	1009,12	4,4	6,8	6,6	1	1	1	1	1	1	1	1	1	0	1	-69,978858	271,787206	239,406027	0
15.01.2021	02:42:26	0	0	3,05086	1,70925	46,2384	-1,442	80,647	0	1009,02	4,3	6,7	6,6	1	1	1	1	1	1	1	1	1	0	1	-66,666667	271,818974	242,862898	0
15.01.2021	02:42:27	0	0	3,05086	1,6395	49,5828	-1,441	80,657	0	1009,06	4,3	6,7	6,6	1	1	1	1	1	1	1	1	1	0	1	-69,344609	271,791174	240,058345	0
15.01.2021	02:42:28	0	0	4,632787	1,52775	39,1788	-1,44	80,644	0	1009,12	4,4	6,8	6,6	1	1	1	1	1	1	1	1	1	0	1	-64,48203	271,852123	245,198554	0
15.01.2021	02:42:29	0	0	3,389844	1,3425	50,6952	-1,442	80,622	0	1009	4,4	6,8	6,6	1	1	1	1	1	1	1	1	1	0	1	-71,388302	271,966599	238,81423	0
15.01.2021	02:42:30	0	0	2,937865	1,326	82,7964	-1,44	80,62	0	1009,08	4,3	6,8	6,6	1	1	1	1	1	1	1	1	1	0	1	-66,173362	271,834879	243,428653	0
15.01.2021	02:42:31	0	0	3,276849	1,4175	71,9748	-1,443	80,61	0	1009,12	4,3	6,7	6,6	1	1	1	1	1	1	1	1	1	0	1	-65,750529	271,955921	244,403289	0
15.01.2021	02:42:32	0	0	3,389844	1,5945	73,0476	-1,445	80,579	0	1008,96	4,4	6,7	6,6	1	1	1	1	1	1	1	1	1	0	1	-68,146582	271,80176	241,304578	0
15.01.2021	02:42:33	0	0	3,841823	1,9545	81,9792	-1,441	80,589	0	1009,08	4,3	6,8	6,6	1	1	1	1	1	1	1	1	1	0	1	-68,780832	271,792497	240,628147	0
15.01.2021	02:42:34	0	0	4,971771	2,22525	73,4148	-1,442	80,584	0	1009,04	4,4	6,8	6,6	1	1	1	1	1	1	1	1	1	0	1	-68,357999	271,925255	241,655951	0
15.01.2021	02:42:35	0	0	4,406797	2,34375	69,8544	-1,44	80,59	0	1009,1	4,3	6,8	6,6	1	1	1	1	1	1	1	1	1	0	1	-65,961945	271,951918	244,173614	0
15.01.2021	02:42:36	0	0	3,389844	2,48625	69,4656	-1,44	80,603	0	1008,96	4,3	6,8	6,6	1	1	1	1	1	1	1	1	1	0	1	-63,213531	271,878684	246,588098	0
15.01.2021	02:42:37	0	0	5,423751	2,56125	57,0492	-1,436	80,612	0	1009,1	4,3	6,7	6,6	1	1	1	1	1	1	1	1	1	0	1	-67,582805	271,955921	242,571013	0
15.01.2021	02:42:38	0	0	2,711875	2,47575	62,0316	-1,441	80,638	0	1009,12	4,3	6,8	6,6	1	1	1	1	1	1	1	1	1	0	1	-68,569415	271,88666	241,268567	0
15.01.2021	02:42:39	0	0	3,389844	2,29875	65,8764	-1,443	80,631	0	1009,08	4,4	6,7	6,6	1	1	1	1	1	1	1	1	1	0	1	-66,45525	271,791174	242,947704	0
15.01.2021	02:42:40	0	0	3,728828	2,08725	91,4832	-1,445	80,643	0	1008,94	4,4	6,8	6,6	1	1	1	1	1	1	1	1	1	0	1	-66,384778	271,897299	243,501704	0
15.01.2021	02:42:41	0	0	5,197761	1,842	67,2804	-1,441	80,652	0	1009	4,3	6,8	6,6	1	1	1	1	1	1	1	1	1	0	1	-68,639887	271,797789	240,793192	0
15.01.2021	02:42:42	0	0	3,841823	1,69275	70,596	-1,445	80,653	0	1009,02	4,4	6,8	6,6	1	1	1	1	1	1	1	1	1	0	1	-65,821001	271,877355	243,974571	0
15.01.2021	02:42:43	0	0	2,59888	1,575	49,9608	-1,44	80,643	0	1009,04	4,4	6,8	6,6	1	1	1	1	1	1	1	1	1	0	1	-65,821001	271,788528	243,569907	0
15.01.2021	02:42:44	0	0	3,163854	1,5855	54,7848	-1,441	80,65	0	1009,02	4,4	6,8	6,6	1	1	1	1	1	1	1	1	1	0	1	-70,754052	271,934583	239,302437	0
15.01.2021	02:42:45	0	0	5,423751	1,60875	56,6568	-1,444	80,646	0	1009,02	4,4	6,8	6,6	1	1	1	1	1	1	1	1	1	0	1	-68,639887	271,792497	240,769091	0
15.01.2021	02:42:46	0	0	3,502839	1,5945	48,8196	-1,446	80,652	0	1009,04	4,4	6,8	6,6	1	1	1	1	1	1	1	1	1	0	1	-68,780832	271,922591	241,220969	0
15.01.2021	02:42:47	0	0	2,485886	1,56225	39,5532	-1,44	80,653	0	1008,96	4,3	6,8	6,6	1	1	1	1	1	1	1	1	1	0	1	-62,085976	271,795143	247,335052	0
15.01.2021	02:42:48	0	0	4,745782	1,551	59,1084	-1,441	80,663	0	1009,08	4,4	6,8	6,6	1	1	1	1	1	1	1	1	1	0	1	-70,824524	271,961259	239,353646	0
15.01.2021	02:42:49	0	0	4,632787	1,59525	73,062	-1,44	80,655	0	1009,12	4,4	6,8	6,6	1	1	1	1	1	1	1	1	1	0	1	-71,952079	271,862743	237,776898	0
15.01.2021	02:42:50	0	0	3,163854	1,50375	71,2044	-1,439	80,655	0	1009,04	4,4	6,8	6,6	1	1	1	1	1	1	1	1	1	0	1	-66,384778	271,811027	243,108589	0
15.01.2021	02:42:51	0	0	3,276849	1,4595	59,49	-1,438	80,653	0	1009,16	4,4	6,7	6,6	1	1	1	1	1	1	1	1	1	0	1	-67,653277	271,877355	242,142295	0
15.01.2021	02:42:52	0	0	4,632787	1,47075	63,1692	-1,436	80,666	0	1009,06	4,4	6,7	6,6	1	1	1	1	1	1	1	1	1	0	1	-66,173362	271,937249	243,895287	0
15.01.2021	02:42:53	0	0	3,276849	1,6065	65,8332	-1,44	80,659	0	1009,04	4,4	6,7	6,6	1	1	1	1	1	1	1	1	1	0	1	-69,556025	271,79382	239,858977	0
15.01.2021	02:42:54	0	0	2,82487	1,78875	68,7744	-1,439	80,675	0	1009,04	4,4	6,7	6,6	1	1	1	1	1	1	1	1	1	0	1	-65,750529	271,893308	244,117762	0
15.01.2021	02:42:55	0	0	4,067813	2,022	67,2732	-1,436	80,712	0	1009,16	4,4	6,7	6,6	1	1	1	1	1	1	1	1	1	0	1	-66,878083	271,963929	243,312267	0
15.01.2021	02:42:56	0	0	4,632787	2,25975	62,7696	-1,445	80,724	0	1009	4,4	6,8	6,6	1	1	1	1	1	1	1	1	1	0	1	-67,300916	271,873369	242,476487	0
15.01.2021	02:42:57	0	0	4,406797	2,26425	61,668	-1,44	80,754	0	1009,18	4,4	6,8	6,6	1	1	1	1	1	1	1	1	1	0	1	-69,556025	271,974611	240,683063	0
15.01.2021	02:42:58	0	0	3,841823	2,18025	67,662	-1,438	80,762	0	1009	4,4	6,7	6,6	1	1	1	1	1	1	1	1	1	0	1	-67,159972	271,954586	242,987759	0
15.01.2021	02:42:59	0	0	3,954818	2,10225	53,334	-1,433	80,769	0	1009,1	4,4	6,8	6,6	1	1	1	1	1	1	1	1	1	0	1	-70,542636	271,922591	239,459165	0
15.01.2021	02:43:00	0	0	4,180808	2,04825	46,9764	-1,44	80,77	0	1009,08	4,4	6,8	6,6	1	1	1	1	1	1	1	1	1	0	1	-73,502467	271,844162	236,141844	0
15.01.2021	02:43:01	0	0	4,180808	2,04825	46,9764	-1,44	80,77	0	1009,08	4,4	6,8	6,6	1	1	1	1	1	1	1	1	1	0	1	-73,502467	271,844162	236,141844	0
15.01.2021	02:43:02	0	0	4,632787	2,178	59,4684	-1,443	80,767	0	1009,14	4,4	6,8	6,6	1	1	1	1	1	1	1	1	1	0	1	-63,424947	271,982627	246,850717	0
15.01.2021	02:43:03	0	0	3,389844	2,34675	53,748	-1,44	80,739	0	1009,06	4,4	6,8	6,6	1	1	1	1	1	1	1	1	1	0	1	-63,565891	271,910606	246,381261	0
15.01.2021	02:43:04	0	0	3,276849	2,5065	52,1496	-1,44	80,73	0	1009,12	4,4	6,8	6,6	1	1	1	1	1	1	1	1	1	0	1	-66,173362	271,991983	244,144998	0
15.01.2021	02:43:05	0	0	4,293802	2,62425	57,3984	-1,439	80,744	0	1009,1	4,4	6,8	6,6	1	1	1	1	1	1	1	1	1	0	1	-70,613108	271,860088	239,103768	0
15.01.2021	02:43:06	0	0	4,858776	2,86425	51,1524	-1,438	80,75	0	1009,14	4,4	6,8	6,6	1	1	1	1	1	1	1	1	1	0	1	-67,019027	271,813676	242,486404	0
15.01.2021	02:43:07	0	0	4,180808	3,3465	60,5484	-1,433	80,767	0	1009,28	4,4	6,8	6,6	1	1	1	1	1	1	1	1	1	0	1	-67,582805	271,922591	242,418996	0
15.01.2021	02:43:08	0	0	3,954818	3,828	51,0732	-1,439	80,769	0	1009,14	4,4	6,8	6,6	1	1	1	1	1	1	1	1	1	0	1	-72,938689	271,837531	236,675407	0
15.01.2021	02:43:09	0	0	4,632787	3,89175	39,2796	-1,434	80,773	0	1009,02	4,4	6,8	6,6	1	1	1	1	1	1	1	1	1	0	1	-67,582805	271,938582	242,491924	0
15.01.2021	02:43:10	0	0	3,276849	3,84225	54,4968	-1,438	80,768	0	1009,16	4,4	6,8	6,6	1	1	1	1	1	1	1	1	1	0	1	-69,626498	271,982627	240,649167	0
15.01.2021	02:43:11	0	0	2,82487	3,86175	51,75	-1,438	80,778	0	1009,04	4,4	6,8	6,6	1	1	1	1	1	1	1	1	1	0	1	-66,102889	271,9146	243,862475	0
15.01.2021	02:43:12	0	0	4,971771	3,73725	51,0588	-1,433	80,766	0	1009,1	4,4	6,8	6,6	1	1	1	1	1	1	1	1	1	0	1	-67,653277	271,983963	242,628485	0
15.01.2021	02:43:13	0	0	4,180808	3,48375	45,846	-1,442	80,755	0	1009,02	4,4	6,8	6,6	1	1	1	1	1	1	1	1	1	0	1	-70,049331	271,923923	239,958544	0
15.01.2021	02:43:14	0	0	2,59888	3,3135	43,3008	-1,438	80,767	0	1009,14	4,4	6,8	6,6	1	1	1	1	1	1	1	1	1	0	1	-68,851304	271,990646	241,460955	0
15.01.2021	02:43:15	0	0	3,954818	3,129	48,5208	-1,434	80,772	0	1009,1	4,4	6,8	6,6	1	1	1	1	1	1	1	1	1	0	1	-67,864693	271,897299	242,021788	0
15.01.2021	02:43:16	0	0	4,858776	3,09825	51,0516	-1,438	80,771	0	1009,08	4,4	6,8	6,6	1	1	1	1	1	1	1	1	1	0	1	-65,891473	271,995994	244,445192	0
15.01.2021	02:43:17	0	0	5,084736	3,165	52,1244	-1,437	80,758	0	1008,98	4,4	6,8	6,7	1	1	1	1	1	1	1	1	1	0	1	-64,622974	271,918595	245,360606	0
15.01.2021	02:43:18	0	0	4,067813	3,37425	37,3176	-1,439	80,769	0	1008,98	4,4	6,8	6,6	1	1	1	1	1	1	1	1	1	0	1	-65,045807	271,822949	244,501863	0
15.01.2021	02:43:19	0	0	3,615834	3,34875	35,478	-1,436	80,778	0	1009,06	4,4	6,8	6,6	1	1	1	1	1	1	1	1	1	0	1	-70,472163	271,925255	239,541786	0
15.01.2021	02:43:20	0	0	4,745782	3,4185	51,0516	-1,433	80,785	0	1009,06	4,4	6,8	6,6	1	1	1	1	1	1	1	1	1	0	1	-68,217054	271,81765	241,306476	0
15.01.2021	02:43:21	0	0	5,310756	3,35625	36,2448	-1,441	80,788	0	1008,96	4,4	6,8	6,6	1	1	1	1	1	1	1	1	1	0	1	-63,84778	271,961259	246,330391	0
15.01.2021	02:43:22	0	0	3,615834	3,25725	52,1568	-1,412	80,825	0	1009,16	4,4	6,8	6,6	1	1	1	1	1	1	1	1	1	0	1	-66,737139	271,979954	243,526331	0
15.01.2021	02:43:23	0	0	3,389844	3,14625	58,4964	-1,433	80,827	0	1009,1	4,4	6,8	6,6	1	1	1	1	1	1	1	1	1	0	1	-64,83439	271,815	244,677073	0
15.01.2021	02:43:24	0	0	4,293802	3,1185	54,1764	-1,425	80,839	0	1008,98	4,4	6,8	6,6	1	1	1	1	1	1	1	1	1	0	1	-66,173362	271,909275	243,767722	0
15.01.2021	02:43:25	0	0	4,519792	3,186	57,4308	-1,432	80,855	0	1009,04	4,4	6,8	6,6	1	1	1	1	1	1	1	1	1	0	1	-67,159972	271,994657	243,170591	0
15.01.2021	02:43:26	0	0	2,937865	3,04425	70,8696	-1,428	80,869	0	1008,92	4,3	6,8	6,6	1	1	1	1	1	1	1	1	1	0	1	-68,07611	271,9146	241,889254	0
15.01.2021	02:43:27	0	0	3,276849	3,0555	53,7408	-1,43	80,885	0	1009,06	4,4	6,8	6,6	1	1	1	1	1	1	1	1	1	0	1	-67,723749	271,824274	241,829957	0
15.01.2021	02:43:28	0	0	5,536712	3,00225	70,2144	-1,432	80,905	0	1009,08	4,4	6,8	6,7	1	1	1	1	1	1	1	1	1	0	1	-64,904863	271,92792	245,121239	0
15.01.2021	02:43:29	0	0	4,406797	2,90025	66,2184	-1,425	80,929	0	1009,2	4,3	6,8	6,6	1	1	1	1	1	1	1	1	1	0	1	-73,854827	271,997331	236,48794	0
15.01.2021	02:43:30	0	0	3,615812	2,58525	66,906	-1,425	80,951	0	1009,1	4,3	6,8	6,7	1	1	1	1	1	1	1	1	1	0	1	-63,918252	271,873369	245,859151	0
15.01.2021	02:43:31	0	0	5,084736	2,42025	65,0988	-1,429	80,952	0	1009,18	4,3	6,8	6,7	1	1	1	1	1	1	1	1	1	0	1	-68,287526	272,004019	242,085764	0
15.01.2021	02:43:32	0	0	4,745782	2,17725	58,4964	-1,429	80,955	0	1009	4,4	6,8	6,6	1	1	1	1	1	1	1	1	1	0	1	-68,357999	271,860088	241,358877	0
15.01.2021	02:43:33	0	0	2,937865	1,92375	69,174	-1,422	80,973	0	1009,22	4,4	6,8	6,6	1	1	1	1	1	1	1	1	1	0	1	-69,344609	271,853451	240,342023	0
15.01.2021	02:43:34	0	0	5,197761	1,67775	66,5352	-1,424	80,963	0	1009,06	4,4	6,8	6,6	1	1	1	1	1	1	1	1	1	0	1	-63,636364	271,977283	246,614915	0
15.01.2021	02:43:35	0	0	4,406771	1,61925	82,9584	-1,422	80,954	0	1009,2	4,3	6,8	6,7	1	1	1	1	1	1	1	1	1	0	1	-71,176885	271,94925	238,946504	0
15.01.2021	02:43:36	0	0	2,937865	1,62525	87,7356	-1,432	80,891	0	1009,12	4,4	6,8	6,6	1	1	1	1	1	1	1	1	1	0	1	-63,777308	271,85876	245,933518	0
15.01.2021	02:43:37	0	0	4,293802	1,6005	88,9524	-1,43	80,855	0	1009,18	4,3	6,8	6,6	1	1	1	1	1	1	1	1	1	0	1	-67,159972	271,862743	242,569006	0
15.01.2021	02:43:38	0	0	3,27683	1,47	82,9692	-1,423	80,827	0	1009,08	4,3	6,8	6,7	1	1	1	1	1	1	1	1	1	0	1	-71,247357	271,970604	238,97345	0
15.01.2021	02:43:39	0	0	4,519792	1,34775	77,688	-1,427	80,781	0	1009,34	4,4	6,8	6,6	1	1	1	1	1	1	1	1	1	0	1	-66,737139	271,856105	242,961589	0
15.01.2021	02:43:40	0	0	4,519792	1,26525	53,3376	-1,42	80,737	0	1009,18	4,3	6,8	6,6	1	1	1	1	1	1	1	1	1	0	1	-67,44186	271,829576	242,135996	0
15.01.2021	02:43:41	0	0	5,084736	1,3215	68,0256	-1,42	80,697	0	1009,06	4,3	6,8	6,7	1	1	1	1	1	1	1	1	1	0	1	-62,931642	271,88533	246,90028	0
15.01.2021	02:43:42	0	0	4,180808	1,47075	79,7688	-1,427	80,663	0	1009,06	4,3	6,8	6,6	1	1	1	1	1	1	1	1	1	0	1	-73,643411	271,997331	236,699357	0
15.01.2021	02:43:43	0	0	4,406771	1,596	69,4728	-1,426	80,634	0	1009,04	4,4	6,8	6,7	1	1	1	1	1	1	1	1	1	0	1	-76,462297	271,931917	233,582035	0
15.01.2021	02:43:44	0	0	3,502818	1,779	74,5416	-1,421	80,619	0	1009,28	4,3	6,8	6,7	1	1	1	1	1	1	1	1	1	0	1	-63,918252	271,824274	245,635454	0
15.01.2021	02:43:45	0	0	4,406771	1,97775	55,5264	-1,428	80,62	0	1009,04	4,3	6,8	6,7	1	1	1	1	1	1	1	1	1	0	1	-68,287526	271,878684	241,514102	0
15.01.2021	02:43:46	0	0	4,180783	1,93125	62,0208	-1,422	80,615	0	1009,1	4,3	6,8	6,7	1	1	1	1	1	1	1	1	1	0	1	-74,136716	271,865399	235,604365	0
15.01.2021	02:43:47	0	0	3,615812	1,866	46,6092	-1,417	80,618	0	1009,1	4,3	6,8	6,7	1	1	1	1	1	1	1	1	1	0	1	-70,260747	271,990646	240,051511	0
15.01.2021	02:43:48	0	0	3,163854	1,9155	38,7972	-1,42	80,609	0	1009,06	4,3	6,8	6,6	1	1	1	1	1	1	1	1	1	0	1	-67,864693	271,90129	242,039984	0
15.01.2021	02:43:49	0	0	3,502818	1,9305	43,2792	-1,426	80,608	0	1009,08	4,3	6,8	6,7	1	1	1	1	1	1	1	1	1	0	1	-70,613108	271,998668	239,735763	0
15.01.2021	02:43:50	0	0	4,519765	1,8405	49,968	-1,422	80,601	0	1009,08	4,4	6,8	6,7	1	1	1	1	1	1	1	1	1	0	1	-70,68358	271,876026	239,105935	0
15.01.2021	02:43:51	0	0	3,27683	1,6785	55,9332	-1,424	80,609	0	1009,06	4,3	6,8	6,7	1	1	1	1	1	1	1	1	1	0	1	-67,159972	271,822949	242,387699	0
15.01.2021	02:43:52	0	0	3,27683	1,49925	46,962	-1,421	80,622	0	1009,04	4,4	6,8	6,7	1	1	1	1	1	1	1	1	1	0	1	-71,317829	271,939915	238,76298	0
15.01.2021	02:43:53	0	0	5,084736	1,34175	49,5828	-1,423	80,634	0	1009,12	4,3	6,8	6,7	1	1	1	1	1	1	1	1	1	0	1	-65,891473	271,990646	244,420785	0
15.01.2021	02:43:54	0	0	3,163835	1,278	61,6824	-1,421	80,67	0	1008,88	4,3	6,8	6,7	1	1	1	1	1	1	1	1	1	0	1	-64,622974	271,930585	245,415281	0
15.01.2021	02:43:55	0	0	4,180783	1,27575	51,4692	-1,416	80,704	0	1009,1	4,3	6,8	6,7	1	1	1	1	1	1	1	1	1	0	1	-65,46864	271,969269	244,746075	0
15.01.2021	02:43:56	0	0	4,858747	1,32225	58,1184	-1,426	80,717	0	1009,06	4,3	6,8	6,7	1	1	1	1	1	1	1	1	1	0	1	-68,851304	271,966599	241,351228	0
15.01.2021	02:43:57	0	0	4,519765	1,416	72,7848	-1,416	80,758	0	1009,08	4,3	6,8	6,7	1	1	1	1	1	1	1	1	1	0	1	-65,961945	271,939915	244,118864	0
15.01.2021	02:43:58	0	0	4,293777	1,4775	58,5	-1,415	80,793	0	1009,06	4,3	6,8	6,7	1	1	1	1	1	1	1	1	1	0	1	-65,891473	271,997331	244,451295	0
15.01.2021	02:43:59	0	0	4,971741	1,60275	53,3628	-1,421	80,791	0	1009,06	4,3	6,8	6,7	1	1	1	1	1	1	1	1	1	0	1	-67,582805	271,918595	242,400775	0
15.01.2021	02:44:00	0	0	5,084736	1,944	68,4936	-1,422	80,8	0	1009,02	4,3	6,8	6,7	1	1	1	1	1	1	1	1	1	0	1	-67,582805	271,889319	242,267299	0
15.01.2021	02:44:01	0	0	5,084736	1,944	68,4936	-1,422	80,8	0	1009,02	4,3	6,8	6,7	1	1	1	1	1	1	1	1	1	0	1	-67,582805	271,889319	242,267299	0
15.01.2021	02:44:02	0	0	3,728806	1,76025	60,9408	-1,419	80,82	0	1009,14	4,3	6,8	6,7	1	1	1	1	1	1	1	1	1	0	1	-65,257223	271,989309	245,048935	0
15.01.2021	02:44:03	0	0	5,084736	1,6005	65,4444	-1,419	80,801	0	1009,02	4,3	6,8	6,7	1	1	1	1	1	1	1	1	1	0	1	-68,287526	271,959924	241,884555	0
15.01.2021	02:44:04	0	0	4,180783	1,53375	48,5244	-1,411	80,815	0	1009,06	4,3	6,8	6,7	1	1	1	1	1	1	1	1	1	0	1	-75,687104	271,941248	234,399787	0
15.01.2021	02:44:05	0	0	2,485871	1,7745	47,3796	-1,423	80,82	0	1009,1	4,3	6,8	6,7	1	1	1	1	1	1	1	1	1	0	1	-71,599718	271,842836	238,038548	0
15.01.2021	02:44:06	0	0	4,745753	2,1405	60,57	-1,416	80,818	0	1008,94	4,3	6,8	6,7	1	1	1	1	1	1	1	1	1	0	1	-67,512333	271,925255	242,501617	0
15.01.2021	02:44:07	0	0	3,389824	2,3415	44,0568	-1,418	80,81	0	1009,1	4,3	6,8	6,7	1	1	1	1	1	1	1	1	1	0	1	-64,83439	271,82825	244,737428	0
15.01.2021	02:44:08	0	0	4,858747	2,415	53,3664	-1,416	80,812	0	1009,12	4,4	6,8	6,7	1	1	1	1	1	1	1	1	1	0	1	-68,780832	271,935916	241,281737	0
15.01.2021	02:44:09	0	0	4,858747	2,38575	59,8752	-1,41	80,807	0	1009,16	4,3	6,8	6,7	1	1	1	1	1	1	1	1	1	0	1	-63,143058	271,834879	246,458956	0
15.01.2021	02:44:10	0	0	5,084736	2,31225	50,6736	-1,411	80,777	0	1009,18	4,3	6,8	6,7	1	1	1	1	1	1	1	1	1	0	1	-63,213531	271,833553	246,382443	0
15.01.2021	02:44:11	0	0	2,372877	2,23575	48,1176	-1,419	80,774	0	1009,08	4,3	6,8	6,7	1	1	1	1	1	1	1	1	1	0	1	-65,257223	271,987972	245,042835	0
15.01.2021	02:44:12	0	0	4,745753	2,211	56,2788	-1,413	80,752	0	1009,04	4,3	6,8	6,7	1	1	1	1	1	1	1	1	1	0	1	-66,666667	271,961259	243,511504	0
15.01.2021	02:44:13	0	0	3,27683	2,1855	49,1868	-1,41	80,735	0	1009,04	4,3	6,8	6,7	1	1	1	1	1	1	1	1	1	0	1	-66,384778	271,845489	243,265577	0
15.01.2021	02:44:14	0	0	5,310724	2,30025	51,0444	-1,418	80,708	0	1009,1	4,3	6,8	6,7	1	1	1	1	1	1	1	1	1	0	1	-66,737139	271,986636	243,55682	0
15.01.2021	02:44:15	0	0	3,8418	2,6955	42,6204	-1,418	80,678	0	1009,12	4,3	6,8	6,7	1	1	1	1	1	1	1	1	1	0	1	-63,354475	271,860088	246,362401	0
15.01.2021	02:44:16	0	0	3,8418	3,021	49,9572	-1,417	80,653	0	1009,1	4,3	6,8	6,7	1	1	1	1	1	1	1	1	1	0	1	-64,48203	271,868055	245,271157	0
15.01.2021	02:44:17	0	0	4,180783	2,84325	38,0772	-1,415	80,634	0	1009,06	4,3	6,8	6,7	1	1	1	1	1	1	1	1	1	0	1	-73,572939	271,965264	236,623502	0
15.01.2021	02:44:18	0	0	3,8418	2,82225	48,816	-1,413	80,613	0	1009,12	4,3	6,8	6,7	1	1	1	1	1	1	1	1	1	0	1	-67,019027	271,841509	242,613196	0
15.01.2021	02:44:19	0	0	2,711859	3,03	45,8496	-1,414	80,612	0	1009,14	4,4	6,8	6,7	1	1	1	1	1	1	1	1	1	0	1	-68,498943	271,941248	241,587948	0
15.01.2021	02:44:20	0	0	3,163835	2,99025	49,2084	-1,415	80,605	0	1009,08	4,3	6,8	6,7	1	1	1	1	1	1	1	1	1	0	1	-66,173362	272,006694	244,212141	0
15.01.2021	02:44:21	0	0	3,050841	2,99925	52,5132	-1,416	80,601	0	1009,02	4,4	6,8	6,7	1	1	1	1	1	1	1	1	1	0	1	-66,243834	271,85876	243,466992	0
15.01.2021	02:44:22	0	0	4,971741	2,91525	46,224	-1,418	80,602	0	1009,16	4,4	6,8	6,7	1	1	1	1	1	1	1	1	1	0	1	-70,049331	271,887989	239,794712	0
15.01.2021	02:44:23	0	0	4,406771	2,8425	42,6024	-1,421	80,603	0	1009,16	4,3	6,8	6,7	1	1	1	1	1	1	1	1	1	0	1	-66,948555	271,997331	243,394212	0
15.01.2021	02:44:24	0	0	3,050841	2,7675	32,904	-1,414	80,604	0	1008,96	4,3	6,8	6,7	1	1	1	1	1	1	1	1	1	0	1	-65,609584	271,868055	244,143602	0
15.01.2021	02:44:25	0	0	3,163835	2,60625	50,7024	-1,417	80,609	0	1009,08	4,3	6,8	6,7	1	1	1	1	1	1	1	1	1	0	1	-63,072586	271,834879	246,529428	0
15.01.2021	02:44:26	0	0	4,858747	2,5665	64,5804	-1,412	80,616	0	1009	4,3	6,8	6,7	1	1	1	1	1	1	1	1	1	0	1	-63,636364	271,910606	246,310789	0
15.01.2021	02:44:27	0	0	3,050841	2,54775	59,8716	-1,418	80,628	0	1009,18	4,3	6,8	6,7	1	1	1	1	1	1	1	1	1	0	1	-68,780832	272,018739	241,659653	0
15.01.2021	02:44:28	0	0	3,27683	2,49225	39,5496	-1,411	80,643	0	1009,2	4,3	6,8	6,7	1	1	1	1	1	1	1	1	1	0	1	-69,415081	271,89996	240,483531	0
15.01.2021	02:44:29	0	0	3,954794	2,379	32,5116	-1,413	80,636	0	1009,28	4,4	6,8	6,7	1	1	1	1	1	1	1	1	1	0	1	-66,173362	272,001343	244,187718	0
15.01.2021	02:44:30	0	0	4,293777	2,2575	43,3116	-1,411	80,612	0	1009,06	4,4	6,8	6,7	1	1	1	1	1	1	1	1	1	0	1	-66,525722	271,873369	243,251681	0
15.01.2021	02:44:31	0	0	4,971771	2,382	35,8704	-1,411	80,617	0	1009,14	4,4	6,8	6,6	1	1	1	1	1	1	1	1	1	0	1	-65,961945	272,002681	244,405239	0
15.01.2021	02:44:32	0	0	4,745753	2,70675	40,248	-1,413	80,616	0	1009,14	4,3	6,8	6,7	1	1	1	1	1	1	1	1	1	0	1	-72,938689	271,989309	237,367469	0
15.01.2021	02:44:33	0	0	3,615812	2,75175	38,07	-1,415	80,618	0	1009,14	4,3	6,8	6,7	1	1	1	1	1	1	1	1	1	0	1	-66,807611	271,998668	243,54126	0
15.01.2021	02:44:34	0	0	3,8418	2,64	54,4896	-1,416	80,612	0	1009,04	4,3	6,8	6,7	1	1	1	1	1	1	1	1	1	0	1	-65,398168	271,860088	244,318708	0
15.01.2021	02:44:35	0	0	4,293777	2,4225	51,7428	-1,415	80,606	0	1009,02	4,4	6,9	6,7	1	1	1	1	1	1	1	1	1	0	1	-64,48203	271,895969	245,398388	0
15.01.2021	02:44:36	0	0	3,163835	2,4615	48,51	-1,414	80,624	0	1009,08	4,3	6,8	6,7	1	1	1	1	1	1	1	1	1	0	1	-69,485553	272,004019	240,887737	0
15.01.2021	02:44:37	0	0	3,728828	2,682	49,5648	-1,411	80,645	0	1009,14	4,3	6,8	6,6	1	1	1	1	1	1	1	1	1	0	1	-68,639887	271,902621	241,270857	0
15.01.2021	02:44:38	0	0	5,310756	2,58075	32,8932	-1,412	80,649	0	1008,92	4,4	6,7	6,6	1	1	1	1	1	1	1	1	1	0	1	-63,706836	271,977283	246,544443	0
15.01.2021	02:44:39	0	0	4,406771	2,51475	36,234	-1,415	80,672	0	1008,94	4,3	6,7	6,7	1	1	1	1	1	1	1	1	1	0	1	-67,864693	272,028113	242,618584	0
15.01.2021	02:44:40	0	0	2,937865	2,3055	31,0248	-1,413	80,687	0	1008,88	4,3	6,8	6,6	1	1	1	1	1	1	1	1	1	0	1	-68,357999	271,931917	241,686334	0
15.01.2021	02:44:41	0	0	3,389824	2,15775	27,2772	-1,408	80,7	0	1009,12	4,3	6,7	6,7	1	1	1	1	1	1	1	1	1	0	1	-66,102889	272,029453	244,386504	0
15.01.2021	02:44:42	0	0	2,59888	2,06475	35,8704	-1,412	80,728	0	1008,94	4,4	6,8	6,6	1	1	1	1	1	1	1	1	1	0	1	-64,341085	271,93325	245,709326	0
15.01.2021	02:44:43	0	0	2,711859	2,064	58,5	-1,405	80,743	0	1009,1	4,3	6,7	6,7	1	1	1	1	1	1	1	1	1	0	1	-65,680056	272,020078	244,76654	0
15.01.2021	02:44:44	0	0	3,954818	2,04075	56,6496	-1,415	80,803	0	1009,04	4,4	6,8	6,6	1	1	1	1	1	1	1	1	1	0	1	-63,143058	271,985299	247,144802	0
15.01.2021	02:44:45	0	0	2,82487	1,84275	43,686	-1,406	80,779	0	1009,04	4,3	6,8	6,6	1	1	1	1	1	1	1	1	1	0	1	-69,415081	272,012047	240,994853	0
15.01.2021	02:44:46	0	0	5,423718	1,77975	60,5484	-1,406	80,788	0	1009,06	4,4	6,9	6,7	1	1	1	1	1	1	1	1	1	0	1	-67,44186	271,918595	242,541719	0
15.01.2021	02:44:47	0	0	3,389844	1,62	62,7804	-1,405	80,797	0	1009,18	4,3	6,8	6,6	1	1	1	1	1	1	1	1	1	0	1	-64,270613	272,004019	246,102677	0
15.01.2021	02:44:48	0	0	2,82487	1,47525	62,0784	-1,406	80,796	0	1008,96	4,4	6,9	6,6	1	1	1	1	1	1	1	1	1	0	1	-67,44186	271,882672	242,377943	0
15.01.2021	02:44:49	0	0	4,632787	1,54575	48,8088	-1,41	80,795	0	1009,16	4,4	6,9	6,6	1	1	1	1	1	1	1	1	1	0	1	-67,723749	272,012047	242,686185	0
15.01.2021	02:44:50	0	0	2,372877	1,76325	49,5756	-1,408	80,804	0	1009,14	4,3	6,8	6,7	1	1	1	1	1	1	1	1	1	0	1	-64,552502	271,870712	245,212792	0
15.01.2021	02:44:51	0	0	3,050841	1,8915	55,9368	-1,401	80,842	0	1009,08	4,4	6,8	6,7	1	1	1	1	1	1	1	1	1	0	1	-66,948555	271,861415	242,774371	0
15.01.2021	02:44:52	0	0	4,971741	1,84125	33,3324	-1,403	80,846	0	1009,14	4,4	6,7	6,7	1	1	1	1	1	1	1	1	1	0	1	-68,357999	271,982627	241,917666	0
15.01.2021	02:44:53	0	0	2,82487	1,935	41,4612	-1,401	80,865	0	1009,1	4,4	6,8	6,6	1	1	1	1	1	1	1	1	1	0	1	-63,636364	272,022756	246,822458	0
15.01.2021	02:44:54	0	0	3,163854	1,9125	57,0168	-1,398	80,863	0	1009,34	4,4	6,8	6,6	1	1	1	1	1	1	1	1	1	0	1	-67,794221	271,874698	241,989238	0
15.01.2021	02:44:55	0	0	4,067788	1,8525	49,1904	-1,402	80,871	0	1009,12	4,4	6,8	6,7	1	1	1	1	1	1	1	1	1	0	1	-65,891473	271,94925	244,231916	0
15.01.2021	02:44:56	0	0	4,632787	1,869	41,0868	-1,398	80,869	0	1008,98	4,4	6,8	6,6	1	1	1	1	1	1	1	1	1	0	1	-67,019027	271,844162	242,625283	0
15.01.2021	02:44:57	0	0	3,163835	1,92975	48,1248	-1,4	80,865	0	1009	4,4	6,7	6,7	1	1	1	1	1	1	1	1	1	0	1	-65,398168	271,897299	244,488314	0
15.01.2021	02:44:58	0	0	3,05086	1,93575	41,85	-1,399	80,868	0	1009	4,4	6,9	6,6	1	1	1	1	1	1	1	1	1	0	1	-67,864693	272,012047	242,545241	0
15.01.2021	02:44:59	0	0	3,728828	1,953	44,784	-1,401	80,897	0	1009,08	4,4	6,8	6,6	1	1	1	1	1	1	1	1	1	0	1	-62,790698	272,016062	247,637565	0
15.01.2021	02:45:00	0	0	4,745782	1,839	47,3688	-1,399	80,905	0	1009	4,4	6,8	6,6	1	1	1	1	1	1	1	1	1	0	1	-70,472163	271,850796	239,202374	0
15.01.2021	02:45:01	0	0	4,745782	1,839	47,3688	-1,399	80,905	0	1009	4,4	6,8	6,6	1	1	1	1	1	1	1	1	1	0	1	-70,472163	271,850796	239,202374	0
15.01.2021	02:45:02	0	0	4,293802	1,98	44,7876	-1,403	80,9	0	1009,1	4,4	6,8	6,6	1	1	1	1	1	1	1	1	1	0	1	-66,878083	271,881342	242,935661	0
15.01.2021	02:45:03	0	0	5,423751	2,001	42,876	-1,397	80,914	0	1009,02	4,4	6,8	6,6	1	1	1	1	1	1	1	1	1	0	1	-63,424947	272,017401	247,009426	0
15.01.2021	02:45:04	0	0	3,954818	1,99275	51,0552	-1,393	80,92	0	1009,2	4,4	6,8	6,6	1	1	1	1	1	1	1	1	1	0	1	-71,599718	271,872041	238,17163	0
15.01.2021	02:45:05	0	0	3,389844	1,92	44,7876	-1,393	80,907	0	1009,16	4,4	6,8	6,6	1	1	1	1	1	1	1	1	1	0	1	-66,45525	271,864071	243,279779	0
15.01.2021	02:45:06	0	0	3,502839	1,80075	54,8028	-1,394	80,896	0	1008,98	4,3	6,8	6,6	1	1	1	1	1	1	1	1	1	0	1	-67,019027	271,882672	242,800776	0
15.01.2021	02:45:07	0	0	2,937865	1,75725	70,1964	-1,393	80,889	0	1009,18	4,4	6,9	6,6	1	1	1	1	1	1	1	1	1	0	1	-71,599718	272,000006	238,755257	0
15.01.2021	02:45:08	0	0	4,858776	1,6515	69,4548	-1,389	80,878	0	1009,06	4,4	6,8	6,6	1	1	1	1	1	1	1	1	1	0	1	-67,864693	271,834879	241,737321	0
15.01.2021	02:45:09	0	0	2,711875	1,58025	68,0256	-1,392	80,862	0	1009,04	4,4	6,7	6,6	1	1	1	1	1	1	1	1	1	0	1	-65,46864	271,934583	244,58785	0
15.01.2021	02:45:10	0	0	3,05086	1,5225	63,1944	-1,391	80,846	0	1009,14	4,4	6,8	6,6	1	1	1	1	1	1	1	1	1	0	1	-63,284003	272,006694	247,1015	0
15.01.2021	02:45:11	0	0	2,937865	1,4625	48,1068	-1,385	80,835	0	1009,12	4,4	6,9	6,6	1	1	1	1	1	1	1	1	1	0	1	-66,45525	271,903951	243,461561	0
15.01.2021	02:45:12	0	0	5,423751	1,53075	55,1844	-1,387	80,827	0	1009,1	4,4	6,8	6,6	1	1	1	1	1	1	1	1	1	0	1	-71,599718	271,994657	238,730844	0
15.01.2021	02:45:13	0	0	3,841823	1,7025	55,9368	-1,391	80,796	0	1009,1	4,4	6,8	6,6	1	1	1	1	1	1	1	1	1	0	1	-67,371388	272,017401	243,062985	0
15.01.2021	02:45:14	0	0	2,937865	1,767	68,4036	-1,391	80,782	0	1009,06	4,4	6,7	6,6	1	1	1	1	1	1	1	1	1	0	1	-68,921776	271,869384	240,837464	0
15.01.2021	02:45:15	0	0	4,632787	1,63725	60,5448	-1,392	80,782	0	1008,86	4,4	6,8	6,6	1	1	1	1	1	1	1	1	1	0	1	-67,864693	271,945249	242,240444	0
15.01.2021	02:45:16	0	0	4,858776	1,54275	36,6156	-1,389	80,761	0	1009,14	4,4	6,8	6,6	1	1	1	1	1	1	1	1	1	0	1	-65,398168	271,978618	244,859206	0
15.01.2021	02:45:17	0	0	4,067813	1,7235	46,602	-1,393	80,754	0	1009	4,4	6,8	6,6	1	1	1	1	1	1	1	1	1	0	1	-68,569415	272,020078	241,877182	0
15.01.2021	02:45:18	0	0	3,615834	1,91625	57,726	-1,386	80,752	0	1009,12	4,4	6,8	6,6	1	1	1	1	1	1	1	1	1	0	1	-67,44186	271,873369	242,335543	0
15.01.2021	02:45:19	0	0	3,841823	2,00925	58,1148	-1,387	80,74	0	1009,14	4,4	6,8	6,6	1	1	1	1	1	1	1	1	1	0	1	-66,807611	271,852123	242,872973	0
15.01.2021	02:45:20	0	0	4,406797	2,1525	52,5132	-1,386	80,746	0	1009,12	4,4	6,9	6,6	1	1	1	1	1	1	1	1	1	0	1	-67,300916	271,870712	242,464378	0
15.01.2021	02:45:21	0	0	2,146901	2,34	70,614	-1,387	80,722	0	1009,06	4,4	6,7	6,6	1	1	1	1	1	1	1	1	1	0	1	-60,747005	271,973275	249,48599	0
15.01.2021	02:45:22	0	0	3,163854	2,43525	69,5016	-1,384	80,727	0	1009,16	4,4	6,8	6,6	1	1	1	1	1	1	1	1	1	0	1	-65,891473	272,017401	244,542901	0
15.01.2021	02:45:23	0	0	3,502839	2,67975	44,0316	-1,385	80,72	0	1009,12	4,4	6,8	6,6	1	1	1	1	1	1	1	1	1	0	1	-62,931642	271,906613	246,997304	0
15.01.2021	02:45:24	0	0	2,937865	2,49375	52,4808	-1,387	80,715	0	1009,1	4,4	6,7	6,6	1	1	1	1	1	1	1	1	1	0	1	-67,935166	271,856105	241,763562	0
15.01.2021	02:45:25	0	0	4,519792	2,29425	40,626	-1,391	80,726	0	1009,06	4,4	6,7	6,6	1	1	1	1	1	1	1	1	1	0	1	-66,737139	271,864071	242,99789	0
15.01.2021	02:45:26	0	0	4,067813	2,259	72,2952	-1,388	80,719	0	1009,1	4,4	6,7	6,6	1	1	1	1	1	1	1	1	1	0	1	-63,636364	271,854778	246,056316	0
15.01.2021	02:45:27	0	0	5,423751	2,0025	55,1736	-1,386	80,717	0	1009,06	4,4	6,7	6,6	1	1	1	1	1	1	1	1	1	0	1	-65,186751	272,001343	245,174328	0
15.01.2021	02:45:28	0	0	3,163854	1,83975	36,9432	-1,387	80,705	0	1008,94	4,4	6,7	6,6	1	1	1	1	1	1	1	1	1	0	1	-68,428471	271,856105	241,270257	0
15.01.2021	02:45:29	0	0	3,163854	1,71675	50,6988	-1,386	80,695	0	1009,02	4,4	6,8	6,6	1	1	1	1	1	1	1	1	1	0	1	-63,988724	271,94925	246,134664	0
15.01.2021	02:45:30	0	0	4,519792	1,66125	40,248	-1,377	80,708	0	1009,12	4,4	6,8	6,6	1	1	1	1	1	1	1	1	1	0	1	-66,314306	271,857433	243,390471	0
15.01.2021	02:45:31	0	0	5,762735	1,6215	46,5948	-1,381	80,693	0	1009,06	4,4	6,8	6,6	1	1	1	1	1	1	1	1	1	0	1	-66,384778	271,974611	243,854311	0
15.01.2021	02:45:32	0	0	4,519765	1,68075	34,3332	-1,383	80,697	0	1008,92	4,4	6,8	6,7	1	1	1	1	1	1	1	1	1	0	1	-67,300916	271,85876	242,40991	0
15.01.2021	02:45:33	0	0	4,293802	1,836	41,5548	-1,378	80,673	0	1009,02	4,4	6,8	6,6	1	1	1	1	1	1	1	1	1	0	1	-64,622974	271,925255	245,390976	0
15.01.2021	02:45:34	0	0	4,406797	1,977	48,8484	-1,381	80,663	0	1009,1	4,4	6,8	6,6	1	1	1	1	1	1	1	1	1	0	1	-69,274137	272,030792	241,221372	0
15.01.2021	02:45:35	0	0	3,502839	2,10225	43,6644	-1,383	80,639	0	1009,14	4,4	6,8	6,6	1	1	1	1	1	1	1	1	1	0	1	-74,136716	271,90129	235,767962	0
15.01.2021	02:45:36	0	0	3,389844	2,03025	44,7768	-1,382	80,639	0	1009,16	4,4	6,8	6,6	1	1	1	1	1	1	1	1	1	0	1	-66,314306	271,878684	243,487323	0
15.01.2021	02:45:37	0	0	4,745782	1,82175	19,8972	-1,386	80,614	0	1009,1	4,4	6,7	6,6	1	1	1	1	1	1	1	1	1	0	1	-71,811135	271,903951	238,105676	0
15.01.2021	02:45:38	0	0	3,163854	1,668	13,176	-1,376	80,604	0	1009,06	4,4	6,8	6,6	1	1	1	1	1	1	1	1	1	0	1	-72,515856	271,911937	237,437366	0
15.01.2021	02:45:39	0	0	2,937847	1,7085	25,4268	-1,384	80,601	0	1009,18	4,4	6,8	6,7	1	1	1	1	1	1	1	1	1	0	1	-73,009161	272,056262	237,602649	0
15.01.2021	02:45:40	0	0	3,954818	1,74975	27,9684	-1,381	80,59	0	1009,12	4,4	6,8	6,6	1	1	1	1	1	1	1	1	1	0	1	-68,217054	271,994657	242,113508	0
15.01.2021	02:45:41	0	0	3,8418	1,755	27,9864	-1,379	80,561	0	1009,2	4,4	6,8	6,7	1	1	1	1	1	1	1	1	1	0	1	-70,260747	272,056262	240,351063	0
15.01.2021	02:45:42	0	0	4,971771	1,6935	25,4232	-1,384	80,568	0	1009,12	4,4	6,8	6,6	1	1	1	1	1	1	1	1	1	0	1	-68,07611	271,998668	242,272761	0
15.01.2021	02:45:43	0	0	3,163854	1,701	42,6348	-1,386	80,549	0	1009,12	4,4	6,8	6,6	1	1	1	1	1	1	1	1	1	0	1	-66,737139	272,071023	243,942089	0
15.01.2021	02:45:44	0	0	4,632759	1,6245	45,5256	-1,385	80,546	0	1009,12	4,4	6,8	6,7	1	1	1	1	1	1	1	1	1	0	1	-69,908386	271,935916	240,154183	0
15.01.2021	02:45:45	0	0	3,841823	1,51125	32,1552	-1,383	80,528	0	1009,06	4,4	6,8	6,6	1	1	1	1	1	1	1	1	1	0	1	-64,975335	272,053579	245,624224	0
15.01.2021	02:45:46	0	0	4,745753	1,47075	36,612	-1,38	80,536	0	1008,96	4,4	6,8	6,7	1	1	1	1	1	1	1	1	1	0	1	-70,049331	272,045534	240,513488	0
15.01.2021	02:45:47	0	0	3,615834	1,4745	38,8188	-1,38	80,533	0	1009,08	4,4	6,8	6,6	1	1	1	1	1	1	1	1	1	0	1	-63,284003	271,941248	246,802888	0
15.01.2021	02:45:48	0	0	3,27683	1,53375	26,5284	-1,38	80,534	0	1009,08	4,4	6,8	6,7	1	1	1	1	1	1	1	1	1	0	1	-65,609584	272,061628	245,026734	0
15.01.2021	02:45:49	0	0	4,406797	1,5345	21,3948	-1,378	80,542	0	1009,12	4,3	6,8	6,6	1	1	1	1	1	1	1	1	1	0	1	-66,948555	272,026774	243,528608	0
15.01.2021	02:45:50	0	0	2,824853	1,5465	16,8696	-1,377	80,53	0	1009,06	4,4	6,8	6,7	1	1	1	1	1	1	1	1	1	0	1	-62,931642	272,032132	247,569984	0
15.01.2021	02:45:51	0	0	4,067788	1,67175	45,8604	-1,379	80,531	0	1009,1	4,3	6,8	6,7	1	1	1	1	1	1	1	1	1	0	1	-73,150106	272,05492	237,455579	0
15.01.2021	02:45:52	0	0	5,423718	1,9065	39,8628	-1,378	80,521	0	1009,14	4,3	6,8	6,7	1	1	1	1	1	1	1	1	1	0	1	-65,750529	271,943915	244,348526	0
15.01.2021	02:45:53	0	0	2,711875	2,025	58,14	-1,378	80,534	0	1009,08	4,4	6,8	6,6	1	1	1	1	1	1	1	1	1	0	1	-64,059197	271,941248	246,027694	0
15.01.2021	02:45:54	0	0	4,293777	1,971	37,6704	-1,379	80,535	0	1009,18	4,3	6,8	6,7	1	1	1	1	1	1	1	1	1	0	1	-67,300916	272,069681	243,372181	0
15.01.2021	02:45:55	0	0	2,82487	1,90125	32,9004	-1,384	80,524	0	1009,12	4,6	6,8	6,6	1	1	1	1	1	1	1	1	1	0	1	-69,626498	272,060287	241,003693	0
15.01.2021	02:45:56	0	0	5,084736	1,7805	51,0624	-1,383	80,539	0	1009,14	4,3	6,8	6,7	1	1	1	1	1	1	1	1	1	0	1	-68,992248	272,013385	241,423795	0
15.01.2021	02:45:57	0	0	3,27683	1,72875	44,0568	-1,386	80,545	0	1009,2	4,3	6,8	6,7	1	1	1	1	1	1	1	1	1	0	1	-67,582805	271,897299	242,303677	0
15.01.2021	02:45:58	0	0	4,858747	1,662	44,3988	-1,384	80,561	0	1009,1	4,6	6,8	6,7	1	1	1	1	1	1	1	1	1	0	1	-69,69697	271,965264	240,499471	0
15.01.2021	02:45:59	0	0	5,084766	1,73025	33,6492	-1,388	80,593	0	1009,2	4,6	6,8	6,6	1	1	1	1	1	1	1	1	1	0	1	-66,666667	271,9146	243,298697	0
15.01.2021	02:46:00	0	0	2,937847	2,21625	49,59	-1,378	80,595	0	1009,1	4,6	6,8	6,7	1	1	1	1	1	1	1	1	1	0	1	-67,44186	272,048215	243,133203	0
15.01.2021	02:46:01	0	0	2,937847	2,21625	49,59	-1,378	80,595	0	1009,1	4,6	6,8	6,7	1	1	1	1	1	1	1	1	1	0	1	-67,44186	272,048215	243,133203	0
15.01.2021	02:46:02	0	0	5,084736	2,403	59,8644	-1,385	80,594	0	1009,06	4,6	6,8	6,7	1	1	1	1	1	1	1	1	1	0	1	-74,136716	272,049556	236,44447	0
15.01.2021	02:46:03	0	0	4,971771	2,5695	52,1352	-1,379	80,605	0	1009,18	4,6	6,8	6,6	1	1	1	1	1	1	1	1	1	0	1	-67,653277	272,028113	242,830001	0
15.01.2021	02:46:04	0	0	2,372877	2,4495	73,0584	-1,379	80,607	0	1009,12	4,6	6,8	6,7	1	1	1	1	1	1	1	1	1	0	1	-66,525722	272,076394	244,178037	0
15.01.2021	02:46:05	0	0	4,745753	2,13075	44,4096	-1,379	80,599	0	1008,94	4,3	6,8	6,7	1	1	1	1	1	1	1	1	1	0	1	-65,116279	271,905282	244,806599	0
15.01.2021	02:46:06	0	0	5,649706	1,9995	51,7644	-1,381	80,61	0	1009,16	4,3	6,8	6,7	1	1	1	1	1	1	1	1	1	0	1	-63,777308	272,06297	246,865139	0
15.01.2021	02:46:07	0	0	3,389824	2,13825	58,8672	-1,38	80,609	0	1009,18	4,6	6,8	6,7	1	1	1	1	1	1	1	1	1	0	1	-68,287526	272,005356	242,09187	0
15.01.2021	02:46:08	0	0	2,937847	2,15325	62,4312	-1,377	80,617	0	1009,14	4,3	6,8	6,7	1	1	1	1	1	1	1	1	1	0	1	-66,807611	272,06297	243,834836	0
15.01.2021	02:46:09	0	0	4,519765	2,15475	51,1488	-1,379	80,614	0	1009,14	4,6	6,8	6,7	1	1	1	1	1	1	1	1	1	0	1	-68,851304	271,938582	241,223425	0
15.01.2021	02:46:10	0	0	3,954794	2,3355	42,2208	-1,382	80,593	0	1009,06	4,6	6,8	6,7	1	1	1	1	1	1	1	1	1	0	1	-67,159972	272,040172	243,378363	0
15.01.2021	02:46:11	0	0	3,050841	2,5665	39,5424	-1,378	80,613	0	1009,26	4,3	6,8	6,7	1	1	1	1	1	1	1	1	1	0	1	-65,750529	271,950584	244,378945	0
15.01.2021	02:46:12	0	0	4,293777	2,81025	45,5292	-1,384	80,597	0	1009,08	4,6	6,8	6,7	1	1	1	1	1	1	1	1	1	0	1	-69,203665	272,075051	241,493961	0
15.01.2021	02:46:13	0	0	4,519765	2,82225	35,874	-1,378	80,616	0	1009,16	4,6	6,8	6,7	1	1	1	1	1	1	1	1	1	0	1	-69,415081	272,024095	241,049854	0
15.01.2021	02:46:14	0	0	2,937847	2,61	32,8788	-1,378	80,593	0	1009,02	4,6	6,8	6,7	1	1	1	1	1	1	1	1	1	0	1	-64,411557	271,903951	245,505253	0
15.01.2021	02:46:15	0	0	4,067788	2,418	39,8592	-1,382	80,597	0	1009,06	4,6	6,8	6,7	1	1	1	1	1	1	1	1	1	0	1	-64,622974	272,049556	245,958212	0
15.01.2021	02:46:16	0	0	3,050841	2,5575	59,49	-1,378	80,618	0	1009,14	4,6	6,8	6,7	1	1	1	1	1	1	1	1	1	0	1	-68,780832	272,080423	241,941332	0
15.01.2021	02:46:17	0	0	3,502818	2,74575	33,9444	-1,383	80,606	0	1009,14	4,6	6,8	6,7	1	1	1	1	1	1	1	1	1	0	1	-63,777308	271,935916	246,285261	0
15.01.2021	02:46:18	0	0	4,745753	2,9835	40,9932	-1,376	80,612	0	1009,2	4,6	6,8	6,7	1	1	1	1	1	1	1	1	1	0	1	-69,69697	271,89996	240,201642	0
15.01.2021	02:46:19	0	0	4,632787	3,03975	36,9216	-1,379	80,609	0	1009,18	4,6	6,8	6,6	1	1	1	1	1	1	1	1	1	0	1	-68,357999	272,060287	242,272192	0
15.01.2021	02:46:20	0	0	2,937847	3,222	49,95	-1,386	80,595	0	1009,06	4,6	6,8	6,7	1	1	1	1	1	1	1	1	1	0	1	-70,049331	272,049556	240,531856	0
15.01.2021	02:46:21	0	0	3,389824	3,159	54,8028	-1,378	80,59	0	1009,12	4,6	6,8	6,7	1	1	1	1	1	1	1	1	1	0	1	-68,992248	271,9146	240,973116	0
15.01.2021	02:46:22	0	0	4,745753	2,88975	44,7912	-1,381	80,586	0	1009,02	4,6	6,8	6,7	1	1	1	1	1	1	1	1	1	0	1	-65,045807	272,037491	245,48029	0
15.01.2021	02:46:23	0	0	4,519765	2,75775	61,6968	-1,379	80,576	0	1009,08	4,6	6,8	6,7	1	1	1	1	1	1	1	1	1	0	1	-67,653277	272,044193	242,90342	0
15.01.2021	02:46:24	0	0	2,824853	2,81475	60,5412	-1,385	80,576	0	1009,1	4,6	6,8	6,7	1	1	1	1	1	1	1	1	1	0	1	-66,102889	271,954586	244,044842	0
15.01.2021	02:46:25	0	0	3,728806	2,85	61,6968	-1,377	80,557	0	1008,98	4,6	6,8	6,7	1	1	1	1	1	1	1	1	1	0	1	-64,975335	272,077736	245,734559	0
15.01.2021	02:46:26	0	0	4,858747	2,6565	55,9368	-1,375	80,57	0	1009,16	4,6	6,8	6,7	1	1	1	1	1	1	1	1	1	0	1	-68,921776	272,017401	241,512598	0
15.01.2021	02:46:27	0	0	3,8418	2,40075	72,3096	-1,381	80,544	0	1009,12	4,6	6,8	6,7	1	1	1	1	1	1	1	1	1	0	1	-68,07611	272,038831	242,456106	0
15.01.2021	02:46:28	0	0	4,067788	2,163	54,8028	-1,373	80,562	0	1008,98	4,6	6,8	6,7	1	1	1	1	1	1	1	1	1	0	1	-64,693446	271,946582	245,417774	0
15.01.2021	02:46:29	0	0	2,711859	1,977	77,2092	-1,379	80,552	0	1009,16	4,6	6,8	6,7	1	1	1	1	1	1	1	1	1	0	1	-64,48203	271,919927	245,507623	0
15.01.2021	02:46:30	0	0	3,954794	1,82625	73,4364	-1,378	80,525	0	1009	4,6	6,8	6,7	1	1	1	1	1	1	1	1	1	0	1	-68,780832	271,938582	241,293897	0
15.01.2021	02:46:31	0	0	3,050841	1,77675	54,1044	-1,377	80,515	0	1009	4,6	6,8	6,7	1	1	1	1	1	1	1	1	1	0	1	-73,361522	272,081766	237,366777	0
15.01.2021	02:46:32	0	0	4,971741	1,73925	58,8528	-1,38	80,518	0	1009,08	4,6	6,8	6,7	1	1	1	1	1	1	1	1	1	0	1	-66,948555	271,973275	243,284439	0
15.01.2021	02:46:33	0	0	4,858747	1,7625	55,9368	-1,374	80,51	0	1009,1	4,6	6,8	6,7	1	1	1	1	1	1	1	1	1	0	1	-65,116279	272,081766	245,61202	0
15.01.2021	02:46:34	0	0	2,937847	1,8015	57,042	-1,38	80,483	0	1009,06	4,6	6,8	6,7	1	1	1	1	1	1	1	1	1	0	1	-65,327696	271,967934	244,880928	0
15.01.2021	02:46:35	0	0	3,8418	1,845	59,0976	-1,377	80,484	0	1009,14	4,6	6,8	6,7	1	1	1	1	1	1	1	1	1	0	1	-68,498943	272,083109	242,235493	0
15.01.2021	02:46:36	0	0	3,8418	1,83525	28,3572	-1,377	80,494	0	1009,06	4,6	6,8	6,7	1	1	1	1	1	1	1	1	1	0	1	-67,44186	271,961259	242,73631	0
15.01.2021	02:46:37	0	0	4,858747	1,80825	57,4308	-1,384	80,465	0	1009,04	4,6	6,8	6,7	1	1	1	1	1	1	1	1	1	0	1	-67,653277	272,087139	243,099571	0
15.01.2021	02:46:38	0	0	4,971741	1,75875	35,8452	-1,381	80,468	0	1009,12	4,6	6,8	6,7	1	1	1	1	1	1	1	1	1	0	1	-69,626498	271,974611	240,612591	0
15.01.2021	02:46:39	0	0	2,485886	1,72125	51,4296	-1,375	80,493	0	1009,12	4,6	6,9	6,6	1	1	1	1	1	1	1	1	1	0	1	-64,763918	271,910606	245,183234	0
15.01.2021	02:46:40	0	0	3,389824	1,74975	49,1976	-1,382	80,479	0	1009,08	4,6	6,8	6,7	1	1	1	1	1	1	1	1	1	0	1	-66,314306	271,945249	243,790831	0
15.01.2021	02:46:41	0	0	4,745753	1,8465	35,4924	-1,382	80,472	0	1008,94	4,4	6,8	6,7	1	1	1	1	1	1	1	1	1	0	1	-65,821001	271,909275	244,120083	0
15.01.2021	02:46:42	0	0	4,745725	1,76175	51,0588	-1,379	80,471	0	1009,14	4,6	6,9	6,8	1	1	1	1	1	1	1	1	1	0	1	-63,424947	271,939915	246,655862	0
15.01.2021	02:46:43	0	0	4,406771	1,64625	48,5028	-1,376	80,478	0	1008,96	4,6	6,8	6,7	1	1	1	1	1	1	1	1	1	0	1	-68,851304	272,081766	241,876996	0
15.01.2021	02:46:44	0	0	3,8418	1,692	42,9084	-1,386	80,45	0	1009,16	4,6	6,8	6,7	1	1	1	1	1	1	1	1	1	0	1	-66,878083	271,986636	243,415876	0
15.01.2021	02:46:45	0	0	3,050841	1,8345	58,086	-1,377	80,467	0	1009,02	4,6	6,8	6,7	1	1	1	1	1	1	1	1	1	0	1	-69,626498	271,937249	240,442151	0
15.01.2021	02:46:46	0	0	4,632759	1,97325	51,066	-1,383	80,45	0	1009,08	4,6	6,8	6,7	1	1	1	1	1	1	1	1	1	0	1	-69,203665	271,939915	240,877145	0
15.01.2021	02:46:47	0	0	5,084736	2,0385	39,8808	-1,359	80,464	0	1009,14	4,6	6,8	6,7	1	1	1	1	1	1	1	1	1	0	1	-72,656801	272,071023	238,022428	0
15.01.2021	02:46:48	0	0	3,615812	2,0355	39,5496	-1,379	80,444	0	1009,08	4,6	6,8	6,7	1	1	1	1	1	1	1	1	1	0	1	-68,921776	272,016062	241,506487	0
15.01.2021	02:46:49	0	0	3,502818	2,11875	41,0832	-1,378	80,455	0	1008,94	4,6	6,8	6,7	1	1	1	1	1	1	1	1	1	0	1	-66,243834	271,917263	243,733674	0
15.01.2021	02:46:50	0	0	2,824853	2,13	41,4792	-1,38	80,445	0	1009,08	4,6	6,8	6,7	1	1	1	1	1	1	1	1	1	0	1	-70,754052	272,065654	239,900653	0
15.01.2021	02:46:51	0	0	2,598865	2,1915	57,4344	-1,384	80,434	0	1008,96	4,6	6,8	6,7	1	1	1	1	1	1	1	1	1	0	1	-68,780832	272,085796	241,965878	0
15.01.2021	02:46:52	0	0	4,745753	2,24475	47,7324	-1,379	80,435	0	1009,12	4,6	6,9	6,7	1	1	1	1	1	1	1	1	1	0	1	-70,049331	272,068338	240,617635	0
15.01.2021	02:46:53	0	0	4,632759	2,4675	57,0456	-1,377	80,427	0	1009,28	4,6	6,9	6,7	1	1	1	1	1	1	1	1	1	0	1	-68,428471	271,923923	241,579404	0
15.01.2021	02:46:54	0	0	3,954794	2,41125	64,242	-1,378	80,423	0	1009,08	4,4	6,8	6,7	1	1	1	1	1	1	1	1	1	0	1	-66,243834	271,922591	243,757967	0
15.01.2021	02:46:55	0	0	2,711859	2,2215	42,6312	-1,382	80,428	0	1009,1	4,6	6,9	6,7	1	1	1	1	1	1	1	1	1	0	1	-68,639887	272,053579	241,959672	0
15.01.2021	02:46:56	0	0	3,615812	2,1585	58,5072	-1,381	80,417	0	1009,18	4,6	6,8	6,7	1	1	1	1	1	1	1	1	1	0	1	-65,680056	271,950584	244,449417	0
15.01.2021	02:46:57	0	0	4,745753	2,24175	54,4968	-1,375	80,407	0	1009,28	4,6	6,9	6,7	1	1	1	1	1	1	1	1	1	0	1	-66,384778	271,981291	243,884789	0
15.01.2021	02:46:58	0	0	2,937847	2,10075	49,9752	-1,383	80,412	0	1009,2	4,6	6,8	6,7	1	1	1	1	1	1	1	1	1	0	1	-62,790698	271,913269	247,168595	0
15.01.2021	02:46:59	0	0	3,728806	1,983	51,4296	-1,38	80,396	0	1009,1	4,4	6,9	6,7	1	1	1	1	1	1	1	1	1	0	1	-74,066244	272,001343	236,294836	0
15.01.2021	02:47:00	0	0	2,824853	1,78425	48,5172	-1,38	80,377	0	1009,14	4,6	6,8	6,7	1	1	1	1	1	1	1	1	1	0	1	-68,569415	271,941248	241,517475	0
15.01.2021	02:47:01	0	0	2,824853	1,78425	48,5172	-1,38	80,377	0	1009,14	4,6	6,8	6,7	1	1	1	1	1	1	1	1	1	0	1	-68,569415	271,941248	241,517475	0
15.01.2021	02:47:02	0	0	4,745753	1,79325	41,4576	-1,377	80,383	0	1009,14	4,4	6,9	6,7	1	1	1	1	1	1	1	1	1	0	1	-68,992248	272,073708	241,699245	0
15.01.2021	02:47:03	0	0	3,502818	1,77675	38,4156	-1,379	80,374	0	1009,06	4,6	6,9	6,7	1	1	1	1	1	1	1	1	1	0	1	-69,203665	271,946582	240,907556	0
15.01.2021	02:47:04	0	0	3,8418	1,67625	46,242	-1,382	80,364	0	1009,14	4,4	6,8	6,7	1	1	1	1	1	1	1	1	1	0	1	-71,811135	272,001343	238,549945	0
15.01.2021	02:47:05	0	0	2,711859	1,58625	56,3076	-1,381	80,366	0	1009,1	4,4	6,9	6,7	1	1	1	1	1	1	1	1	1	0	1	-68,921776	271,905282	241,001102	0
15.01.2021	02:47:06	0	0	3,615812	1,6275	63,198	-1,381	80,37	0	1009,18	4,4	6,9	6,7	1	1	1	1	1	1	1	1	1	0	1	-68,146582	272,012047	242,263352	0
15.01.2021	02:47:07	0	0	3,615812	1,71825	46,2168	-1,382	80,371	0	1009,06	4,4	6,9	6,7	1	1	1	1	1	1	1	1	1	0	1	-66,596195	271,938582	243,478534	0
15.01.2021	02:47:08	0	0	2,711859	1,6785	56,3076	-1,383	80,366	0	1009,12	4,4	6,8	6,7	1	1	1	1	1	1	1	1	1	0	1	-64,552502	272,033472	245,955241	0
15.01.2021	02:47:09	0	0	3,954794	1,53075	32,166	-1,383	80,361	0	1009,06	4,6	6,9	6,7	1	1	1	1	1	1	1	1	1	0	1	-70,401691	271,9146	239,563673	0
15.01.2021	02:47:10	0	0	3,163835	1,39725	11,7432	-1,38	80,362	0	1009,14	4,4	6,9	6,7	1	1	1	1	1	1	1	1	1	0	1	-66,596195	271,942582	243,496778	0
15.01.2021	02:47:11	0	0	2,937847	1,4085	42,7176	-1,382	80,379	0	1009,16	4,4	6,9	6,7	1	1	1	1	1	1	1	1	1	0	1	-66,878083	271,913269	243,08121	0
15.01.2021	02:47:12	0	0	4,406771	1,47675	48,1392	-1,381	80,358	0	1009,06	4,4	6,9	6,7	1	1	1	1	1	1	1	1	1	0	1	-67,159972	271,9146	242,805392	0
15.01.2021	02:47:13	0	0	5,310756	1,62525	42,2136	-1,38	80,355	0	1009,1	4,4	6,8	6,6	1	1	1	1	1	1	1	1	1	0	1	-67,864693	272,050897	242,722617	0
15.01.2021	02:47:14	0	0	2,937865	1,75875	39,5892	-1,384	80,369	0	1009,12	4,4	6,9	6,6	1	1	1	1	1	1	1	1	1	0	1	-67,019027	271,9146	242,946336	0
15.01.2021	02:47:15	0	0	3,050841	1,803	41,4792	-1,385	80,356	0	1009,02	4,4	6,9	6,7	1	1	1	1	1	1	1	1	1	0	1	-70,754052	272,022756	239,704769	0
15.01.2021	02:47:16	0	0	2,598865	1,6485	44,7804	-1,378	80,345	0	1009,14	4,4	6,9	6,7	1	1	1	1	1	1	1	1	1	0	1	-65,186751	271,919927	244,802902	0
15.01.2021	02:47:17	0	0	3,615834	1,51425	36,6336	-1,381	80,349	0	1009,1	4,4	6,9	6,6	1	1	1	1	1	1	1	1	1	0	1	-70,472163	271,981291	239,797403	0
15.01.2021	02:47:18	0	0	4,067813	1,42875	31,0356	-1,388	80,353	0	1009,12	4,4	6,9	6,6	1	1	1	1	1	1	1	1	1	0	1	-67,653277	271,9146	242,312087	0
15.01.2021	02:47:19	0	0	4,519765	1,281	37,6884	-1,383	80,355	0	1009,08	4,4	6,9	6,7	1	1	1	1	1	1	1	1	1	0	1	-67,512333	272,057603	243,105604	0
15.01.2021	02:47:20	0	0	5,084766	1,1805	39,564	-1,379	80,346	0	1009,1	4,4	6,9	6,6	1	1	1	1	1	1	1	1	1	0	1	-68,005638	271,905282	241,91724	0
15.01.2021	02:47:21	0	0	3,050841	1,06275	24,7464	-1,382	80,351	0	1009,14	4,4	6,9	6,7	1	1	1	1	1	1	1	1	1	0	1	-68,357999	272,016062	242,070264	0
15.01.2021	02:47:22	0	0	4,971771	1,128	38,8116	-1,379	80,343	0	1009,08	4,4	6,9	6,6	1	1	1	1	1	1	1	1	1	0	1	-65,680056	272,077736	245,029837	0
15.01.2021	02:47:23	0	0	2,711859	1,2375	45,8568	-1,382	80,336	0	1009,1	4,4	6,9	6,7	1	1	1	1	1	1	1	1	1	0	1	-69,344609	271,966599	240,857923	0
15.01.2021	02:47:24	0	0	3,615834	1,32975	40,626	-1,382	80,339	0	1008,92	4,4	6,9	6,6	1	1	1	1	1	1	1	1	1	0	1	-71,740662	272,079079	238,975366	0
15.01.2021	02:47:25	0	0	4,519765	1,425	41,472	-1,387	80,333	0	1009,14	4,6	6,9	6,7	1	1	1	1	1	1	1	1	1	0	1	-68,851304	272,045534	241,711515	0
15.01.2021	02:47:26	0	0	2,82487	1,45575	51,4548	-1,383	80,33	0	1009,14	4,4	6,9	6,6	1	1	1	1	1	1	1	1	1	0	1	-65,186751	271,913269	244,772542	0
15.01.2021	02:47:27	0	0	4,632759	1,58475	63,8784	-1,385	80,313	0	1008,98	4,4	6,9	6,7	1	1	1	1	1	1	1	1	1	0	1	-67,582805	271,998668	242,766066	0
15.01.2021	02:47:28	0	0	4,745753	1,64925	58,8888	-1,387	80,312	0	1009,1	4,4	6,9	6,7	1	1	1	1	1	1	1	1	1	0	1	-66,948555	272,088483	243,81043	0
15.01.2021	02:47:29	0	0	3,8418	1,653	40,9824	-1,381	80,283	0	1009,12	4,4	6,9	6,7	1	1	1	1	1	1	1	1	1	0	1	-65,257223	272,006694	245,128279	0
15.01.2021	02:47:30	0	0	3,615812	1,6815	55,1844	-1,383	80,305	0	1009,1	4,4	6,8	6,7	1	1	1	1	1	1	1	1	1	0	1	-64,270613	271,92792	245,755488	0
15.01.2021	02:47:31	0	0	2,824853	1,77975	52,8984	-1,389	80,285	0	1009,08	4,4	6,8	6,7	1	1	1	1	1	1	1	1	1	0	1	-68,780832	271,975947	241,464352	0
15.01.2021	02:47:32	0	0	5,310756	2,0085	54,4968	-1,385	80,289	0	1009,06	4,4	6,9	6,6	1	1	1	1	1	1	1	1	1	0	1	-66,032417	272,088483	244,726569	0
15.01.2021	02:47:33	0	0	4,745753	2,11425	63,1908	-1,384	80,277	0	1009,14	4,4	6,8	6,7	1	1	1	1	1	1	1	1	1	0	1	-70,613108	272,044193	239,943589	0
15.01.2021	02:47:34	0	0	3,276849	2,1015	58,8636	-1,38	80,262	0	1009	4,4	6,7	6,6	1	1	1	1	1	1	1	1	1	0	1	-66,878083	272,026774	243,59908	0
15.01.2021	02:47:35	0	0	4,745753	1,986	61,6932	-1,389	80,269	0	1009,06	4,4	6,8	6,7	1	1	1	1	1	1	1	1	1	0	1	-67,300916	272,058945	243,323147	0
15.01.2021	02:47:36	0	0	5,310756	1,9005	53,73	-1,385	80,252	0	1009,1	4,4	6,9	6,6	1	1	1	1	1	1	1	1	1	0	1	-75,828048	272,018739	234,612437	0
15.01.2021	02:47:37	0	0	3,389824	1,8105	50,6916	-1,382	80,26	0	1009,04	4,4	6,9	6,7	1	1	1	1	1	1	1	1	1	0	1	-67,300916	271,907944	242,634098	0
15.01.2021	02:47:38	0	0	3,389824	1,7985	51,0444	-1,387	80,256	0	1008,94	4,4	6,9	6,7	1	1	1	1	1	1	1	1	1	0	1	-65,680056	271,965264	244,516384	0
15.01.2021	02:47:39	0	0	4,067813	1,8135	64,638	-1,385	80,251	0	1009,16	4,4	6,9	6,6	1	1	1	1	1	1	1	1	1	0	1	-73,995772	272,064312	236,652804	0
15.01.2021	02:47:40	0	0	3,954794	1,77525	45,8568	-1,387	80,255	0	1009,1	4,4	6,8	6,7	1	1	1	1	1	1	1	1	1	0	1	-64,129669	271,902621	245,781075	0
15.01.2021	02:47:41	0	0	4,406797	1,84425	76,4532	-1,385	80,245	0	1009,08	4,4	6,8	6,6	1	1	1	1	1	1	1	1	1	0	1	-62,085976	272,020078	248,360621	0
15.01.2021	02:47:42	0	0	3,27683	2,0775	50,2956	-1,384	80,247	0	1009,22	4,4	6,8	6,7	1	1	1	1	1	1	1	1	1	0	1	-68,992248	272,073708	241,699245	0
15.01.2021	02:47:43	0	0	4,519765	2,23275	42,2208	-1,383	80,237	0	1009,16	4,4	6,8	6,7	1	1	1	1	1	1	1	1	1	0	1	-69,344609	272,021417	241,1081	0
15.01.2021	02:47:44	0	0	3,841823	2,40225	44,3952	-1,388	80,222	0	1009,08	4,4	6,9	6,6	1	1	1	1	1	1	1	1	1	0	1	-68,710359	272,085796	242,03635	0
15.01.2021	02:47:45	0	0	5,19773	2,5245	48,8196	-1,388	80,229	0	1009,08	4,4	6,9	6,7	1	1	1	1	1	1	1	1	1	0	1	-65,045807	271,989309	245,260351	0
15.01.2021	02:47:46	0	0	4,858747	2,42175	28,3716	-1,393	80,22	0	1009,02	4,4	6,8	6,7	1	1	1	1	1	1	1	1	1	0	1	-65,539112	271,906613	244,389834	0
15.01.2021	02:47:47	0	0	4,067813	2,601	47,3616	-1,386	80,242	0	1009,04	4,4	6,8	6,6	1	1	1	1	1	1	1	1	1	0	1	-63,143058	272,016062	247,285204	0
15.01.2021	02:47:48	0	0	3,954794	2,751	41,0112	-1,389	80,251	0	1009,12	4,4	6,9	6,7	1	1	1	1	1	1	1	1	1	0	1	-66,737139	271,923923	243,270736	0
15.01.2021	02:47:49	0	0	3,163854	2,802	53,7192	-1,385	80,25	0	1009,14	4,6	6,8	6,6	1	1	1	1	1	1	1	1	1	0	1	-67,512333	271,947916	242,604972	0
15.01.2021	02:47:50	0	0	2,824853	3,07875	41,4756	-1,387	80,26	0	1009,16	4,4	6,9	6,7	1	1	1	1	1	1	1	1	1	0	1	-70,472163	272,081766	240,256136	0
15.01.2021	02:47:51	0	0	4,406797	3,36825	45,8496	-1,389	80,253	0	1009,1	4,4	6,8	6,6	1	1	1	1	1	1	1	1	1	0	1	-70,824524	272,060287	239,805666	0
15.01.2021	02:47:52	0	0	2,82487	3,4815	45,1836	-1,389	80,261	0	1009,2	4,4	6,9	6,6	1	1	1	1	1	1	1	1	1	0	1	-67,0895	271,925255	242,92445	0
15.01.2021	02:47:53	0	0	4,519792	3,46575	44,4024	-1,388	80,258	0	1008,96	4,6	6,8	6,6	1	1	1	1	1	1	1	1	1	0	1	-66,948555	272,061628	243,687763	0
15.01.2021	02:47:54	0	0	3,389824	3,537	43,686	-1,385	80,237	0	1009,06	4,4	6,8	6,7	1	1	1	1	1	1	1	1	1	0	1	-68,217054	272,084452	242,523518	0
15.01.2021	02:47:55	0	0	5,19773	3,6225	47,3616	-1,387	80,23	0	1009,2	4,4	6,8	6,7	1	1	1	1	1	1	1	1	1	0	1	-63,495419	272,077736	247,214474	0
15.01.2021	02:47:56	0	0	5,084736	3,56775	50,688	-1,386	80,229	0	1009,06	4,4	6,9	6,7	1	1	1	1	1	1	1	1	1	0	1	-62,508809	272,075051	248,188817	0
15.01.2021	02:47:57	0	0	2,937847	3,459	48,8196	-1,399	80,218	0	1009	4,4	6,8	6,7	1	1	1	1	1	1	1	1	1	0	1	-64,200141	272,097891	246,601828	0
15.01.2021	02:47:58	0	0	4,067788	3,267	62,784	-1,399	80,233	0	1009,06	4,6	6,8	6,7	1	1	1	1	1	1	1	1	1	0	1	-65,539112	272,068338	245,127854	0
15.01.2021	02:47:59	0	0	4,971741	3,108	63,5004	-1,386	80,225	0	1009,18	4,4	6,8	6,7	1	1	1	1	1	1	1	1	1	0	1	-64,552502	271,926587	245,467524	0
15.01.2021	02:48:00	0	0	4,745753	2,69025	42,9228	-1,386	80,23	0	1009,12	4,4	6,8	6,7	1	1	1	1	1	1	1	1	1	0	1	-64,693446	272,103269	246,133096	0
15.01.2021	02:48:01	0	0	4,745753	2,69025	42,9228	-1,386	80,23	0	1009,12	4,4	6,8	6,7	1	1	1	1	1	1	1	1	1	0	1	-64,693446	272,103269	246,133096	0
15.01.2021	02:48:02	0	0	3,502818	2,7255	38,07	-1,393	80,219	0	1009,08	4,4	6,8	6,7	1	1	1	1	1	1	1	1	1	0	1	-70,613108	271,987972	239,68695	0
15.01.2021	02:48:03	0	0	5,423718	2,7075	35,4888	-1,394	80,242	0	1009,02	4,4	6,8	6,7	1	1	1	1	1	1	1	1	1	0	1	-64,693446	272,099235	246,114665	0
15.01.2021	02:48:04	0	0	3,615812	2,52075	27,6624	-1,383	80,267	0	1009,08	4,6	6,8	6,7	1	1	1	1	1	1	1	1	1	0	1	-68,287526	271,99332	242,036934	0
15.01.2021	02:48:05	0	0	5,423751	2,361	36,9396	-1,392	80,273	0	1009,14	4,4	6,8	6,6	1	1	1	1	1	1	1	1	1	0	1	-68,005638	271,926587	242,014388	0
15.01.2021	02:48:06	0	0	3,502818	2,29875	32,508	-1,388	80,276	0	1009,04	4,4	6,8	6,7	1	1	1	1	1	1	1	1	1	0	1	-69,908386	272,05492	240,697298	0
15.01.2021	02:48:07	0	0	5,19773	2,2425	31,4208	-1,39	80,287	0	1009,16	4,6	6,8	6,7	1	1	1	1	1	1	1	1	1	0	1	-59,61945	271,945249	250,485687	0
15.01.2021	02:48:08	0	0	5,19773	2,35725	18,828	-1,391	80,303	0	1009,18	4,6	6,8	6,7	1	1	1	1	1	1	1	1	1	0	1	-69,274137	272,024095	241,190798	0
15.01.2021	02:48:09	0	0	4,858747	2,43375	44,7804	-1,392	80,318	0	1009,1	4,6	6,8	6,7	1	1	1	1	1	1	1	1	1	0	1	-64,904863	271,931917	245,13947	0
15.01.2021	02:48:10	0	0	2,937847	2,31525	51,5232	-1,386	80,362	0	1009,16	4,6	6,8	6,7	1	1	1	1	1	1	1	1	1	0	1	-65,891473	271,997331	244,451295	0
15.01.2021	02:48:11	0	0	4,180783	2,23575	45,8676	-1,389	80,362	0	1009,16	4,4	6,8	6,7	1	1	1	1	1	1	1	1	1	0	1	-71,740662	272,105959	239,098169	0
15.01.2021	02:48:12	0	0	5,084736	2,4915	46,2312	-1,386	80,403	0	1009,1	4,5	6,8	6,7	1	1	1	1	1	1	1	1	1	0	1	-66,173362	272,057603	244,444575	0
15.01.2021	02:48:13	0	0	2,824853	2,379	58,8744	-1,39	80,441	0	1009,08	4,5	6,8	6,7	1	1	1	1	1	1	1	1	1	0	1	-67,0895	272,115375	243,792363	0
15.01.2021	02:48:14	0	0	4,971741	2,17725	38,0772	-1,389	80,453	0	1009,02	4,6	6,8	6,7	1	1	1	1	1	1	1	1	1	0	1	-65,257223	272,079079	245,458805	0
15.01.2021	02:48:15	0	0	2,485871	2,23725	47,3868	-1,383	80,484	0	1009,12	4,6	6,8	6,7	1	1	1	1	1	1	1	1	1	0	1	-68,146582	272,115375	242,73528	0
15.01.2021	02:48:16	0	0	5,310724	2,35725	35,0892	-1,384	80,495	0	1009,12	4,5	6,8	6,7	1	1	1	1	1	1	1	1	1	0	1	-65,821001	272,076394	244,882759	0
15.01.2021	02:48:17	0	0	4,519765	2,301	49,7376	-1,385	80,534	0	1009,14	4,6	6,8	6,7	1	1	1	1	1	1	1	1	1	0	1	-63,918252	271,945249	246,186885	0
15.01.2021	02:48:18	0	0	5,19773	2,223	49,572	-1,39	80,547	0	1009,02	4,6	6,8	6,7	1	1	1	1	1	1	1	1	1	0	1	-68,569415	272,076394	242,134345	0
15.01.2021	02:48:19	0	0	4,632759	2,37225	47,754	-1,385	80,559	0	1009,12	4,5	6,8	6,7	1	1	1	1	1	1	1	1	1	0	1	-64,059197	272,09117	246,712067	0
15.01.2021	02:48:20	0	0	4,180783	2,57775	50,3028	-1,387	80,592	0	1009,12	4,5	6,8	6,7	1	1	1	1	1	1	1	1	1	0	1	-68,287526	272,095202	242,502159	0
15.01.2021	02:48:21	0	0	4,406771	2,77875	50,31	-1,386	80,574	0	1009,06	4,6	6,8	6,7	1	1	1	1	1	1	1	1	1	0	1	-71,317829	272,050897	239,269481	0
15.01.2021	02:48:22	0	0	4,519765	2,871	42,2208	-1,382	80,589	0	1009,16	4,6	6,8	6,7	1	1	1	1	1	1	1	1	1	0	1	-62,22692	271,943915	247,872134	0
15.01.2021	02:48:23	0	0	4,745753	2,76375	46,5984	-1,382	80,595	0	1009,14	4,5	6,8	6,7	1	1	1	1	1	1	1	1	1	0	1	-68,921776	272,05492	241,683908	0
15.01.2021	02:48:24	0	0	3,27683	2,805	39,8916	-1,38	80,573	0	1009,04	4,6	6,8	6,7	1	1	1	1	1	1	1	1	1	0	1	-65,891473	272,118067	245,002689	0
15.01.2021	02:48:25	0	0	4,971741	2,77725	42,2172	-1,38	80,576	0	1008,98	4,5	6,8	6,7	1	1	1	1	1	1	1	1	1	0	1	-67,0895	272,080423	243,632664	0
15.01.2021	02:48:26	0	0	4,406771	2,6415	40,6368	-1,383	80,596	0	1009,04	4,5	6,8	6,7	1	1	1	1	1	1	1	1	1	0	1	-67,159972	271,969269	243,054743	0
15.01.2021	02:48:27	0	0	4,858747	2,55525	35,874	-1,384	80,598	0	1009,08	4,5	6,8	6,7	1	1	1	1	1	1	1	1	1	0	1	-68,921776	271,998668	241,427095	0
15.01.2021	02:48:28	0	0	3,615812	2,4795	45,162	-1,379	80,606	0	1008,98	4,5	6,8	6,7	1	1	1	1	1	1	1	1	1	0	1	-63,777308	272,123451	247,141458	0
15.01.2021	02:48:29	0	0	3,728806	2,3955	44,4708	-1,382	80,61	0	1009,08	4,5	6,8	6,7	1	1	1	1	1	1	1	1	1	0	1	-70,68358	272,103269	240,142962	0
15.01.2021	02:48:30	0	0	2,711859	2,4075	52,1712	-1,376	80,602	0	1009,1	4,5	6,8	6,7	1	1	1	1	1	1	1	1	1	0	1	-66,737139	272,068338	243,929827	0
15.01.2021	02:48:31	0	0	4,067788	2,32725	46,9836	-1,376	80,607	0	1009,08	4,5	6,8	6,7	1	1	1	1	1	1	1	1	1	0	1	-69,344609	271,969269	240,870106	0
15.01.2021	02:48:32	0	0	3,502818	2,32275	55,5732	-1,379	80,592	0	1009,02	4,5	6,8	6,7	1	1	1	1	1	1	1	1	1	0	1	-68,07611	272,111339	242,787308	0
15.01.2021	02:48:33	0	0	2,937847	2,31825	55,5804	-1,376	80,602	0	1008,92	4,5	6,8	6,7	1	1	1	1	1	1	1	1	1	0	1	-65,961945	271,947916	244,155359	0
15.01.2021	02:48:34	0	0	2,937847	2,24475	49,9644	-1,375	80,602	0	1009,08	4,5	6,8	6,7	1	1	1	1	1	1	1	1	1	0	1	-68,217054	272,087139	242,535793	0
15.01.2021	02:48:35	0	0	4,971741	2,24625	53,73	-1,381	80,611	0	1009,24	4,5	6,8	6,7	1	1	1	1	1	1	1	1	1	0	1	-68,569415	271,950584	241,560058	0
15.01.2021	02:48:36	0	0	5,536712	2,22675	38,0772	-1,375	80,616	0	1009,1	4,5	6,8	6,7	1	1	1	1	1	1	1	1	1	0	1	-71,67019	272,024095	238,794745	0
15.01.2021	02:48:37	0	0	3,389824	2,4285	45,5472	-1,38	80,604	0	1008,88	4,5	6,8	6,7	1	1	1	1	1	1	1	1	1	0	1	-70,894996	271,959924	239,277085	0
15.01.2021	02:48:38	0	0	4,632759	2,70375	53,3484	-1,37	80,582	0	1009,14	4,5	6,8	6,7	1	1	1	1	1	1	1	1	1	0	1	-68,921776	272,085796	241,824934	0
15.01.2021	02:48:39	0	0	4,180783	2,73375	36,6228	-1,372	80,565	0	1008,94	4,5	6,8	6,7	1	1	1	1	1	1	1	1	1	0	1	-64,622974	272,119413	246,277338	0
15.01.2021	02:48:40	0	0	4,519765	3,1335	40,6116	-1,38	80,572	0	1009,1	4,5	6,8	6,7	1	1	1	1	1	1	1	1	1	0	1	-67,44186	272,052238	243,151574	0
15.01.2021	02:48:41	0	0	3,615812	3,516	53,7372	-1,368	80,557	0	1009,04	4,5	6,8	6,7	1	1	1	1	1	1	1	1	1	0	1	-66,737139	271,967934	243,471484	0
15.01.2021	02:48:42	0	0	5,084736	3,4785	42,9408	-1,369	80,549	0	1009,06	4,5	6,8	6,7	1	1	1	1	1	1	1	1	1	0	1	-69,344609	272,064312	241,303967	0
15.01.2021	02:48:43	0	0	4,406771	3,48	43,6896	-1,371	80,542	0	1009,06	4,5	6,8	6,7	1	1	1	1	1	1	1	1	1	0	1	-67,159972	271,965264	243,036469	0
15.01.2021	02:48:44	0	0	3,163835	3,89775	42,9228	-1,377	80,531	0	1008,94	4,5	6,8	6,7	1	1	1	1	1	1	1	1	1	0	1	-68,569415	272,06297	242,073032	0
15.01.2021	02:48:45	0	0	3,8418	4,19025	55,5516	-1,371	80,521	0	1009,12	4,5	6,8	6,7	1	1	1	1	1	1	1	1	1	0	1	-68,780832	272,139611	242,2118	0
15.01.2021	02:48:46	0	0	3,050841	4,302	50,2992	-1,373	80,516	0	1009,18	4,5	6,8	6,7	1	1	1	1	1	1	1	1	1	0	1	-65,609584	271,987972	244,690474	0
15.01.2021	02:48:47	0	0	4,067788	4,3155	48,8988	-1,37	80,498	0	1009,16	4,5	6,8	6,7	1	1	1	1	1	1	1	1	1	0	1	-64,552502	271,990646	245,759757	0
15.01.2021	02:48:48	0	0	5,084736	4,1295	54,1044	-1,378	80,488	0	1008,96	4,5	6,8	6,7	1	1	1	1	1	1	1	1	1	0	1	-68,428471	272,124797	242,496448	0
15.01.2021	02:48:49	0	0	2,824853	4,1205	53,3448	-1,373	80,494	0	1009,02	4,5	6,8	6,7	1	1	1	1	1	1	1	1	1	0	1	-67,864693	272,105959	242,974138	0
15.01.2021	02:48:50	0	0	2,824853	3,897	32,5116	-1,371	80,503	0	1009,14	4,5	6,8	6,7	1	1	1	1	1	1	1	1	1	0	1	-66,807611	272,016062	243,620652	0
15.01.2021	02:48:51	0	0	5,084736	3,75675	59,8896	-1,375	80,517	0	1009,1	4,5	6,8	6,7	1	1	1	1	1	1	1	1	1	0	1	-67,794221	272,014723	242,627931	0
15.01.2021	02:48:52	0	0	4,406771	3,43125	39,5712	-1,377	80,529	0	1009,04	4,5	6,8	6,7	1	1	1	1	1	1	1	1	1	0	1	-66,737139	272,115375	244,144724	0
15.01.2021	02:48:53	0	0	3,389824	3,20625	56,2788	-1,374	80,553	0	1009,08	4,5	6,8	6,7	1	1	1	1	1	1	1	1	1	0	1	-68,710359	272,142306	242,29459	0
15.01.2021	02:48:54	0	0	3,050841	3,20025	39,1716	-1,369	80,568	0	1009,02	4,5	6,8	6,7	1	1	1	1	1	1	1	1	1	0	1	-68,780832	272,000006	241,574143	0
15.01.2021	02:48:55	0	0	2,824853	3,6105	38,8188	-1,369	80,583	0	1009,06	4,5	6,8	6,7	1	1	1	1	1	1	1	1	1	0	1	-68,992248	272,143653	242,018861	0
15.01.2021	02:48:56	0	0	4,180783	3,66525	49,9536	-1,366	80,628	0	1009,1	4,5	7	6,7	1	1	1	1	1	1	1	1	1	0	1	-66,102889	272,151741	244,94519	0
15.01.2021	02:48:57	0	0	2,598865	3,40875	39,5712	-1,363	80,657	0	1008,96	4,5	6,8	6,7	1	1	1	1	1	1	1	1	1	0	1	-72,868217	272,044193	237,68848	0
15.01.2021	02:48:58	0	0	4,067788	3,111	41,4684	-1,364	80,687	0	1009,18	4,5	6,8	6,7	1	1	1	1	1	1	1	1	1	0	1	-65,750529	271,985299	244,537332	0
15.01.2021	02:48:59	0	0	3,954794	3,066	45,5364	-1,366	80,705	0	1009,1	4,5	6,8	6,7	1	1	1	1	1	1	1	1	1	0	1	-65,327696	272,018739	245,112789	0
15.01.2021	02:49:00	0	0	3,615812	3,17925	52,5312	-1,364	80,778	0	1009,22	4,5	6,9	6,7	1	1	1	1	1	1	1	1	1	0	1	-69,626498	271,973275	240,606497	0
15.01.2021	02:49:01	0	0	3,615812	3,17925	52,5312	-1,364	80,778	0	1009,22	4,5	6,9	6,7	1	1	1	1	1	1	1	1	1	0	1	-70,260747	271,987972	240,039311	0
15.01.2021	02:49:02	0	0	2,937847	3,31575	33,9588	-1,359	80,827	0	1009,08	4,5	6,9	6,7	1	1	1	1	1	1	1	1	1	0	1	-65,327696	272,028113	245,155582	0
15.01.2021	02:49:03	0	0	3,27683	3,44025	51,7428	-1,359	80,856	0	1009,02	4,5	6,8	6,7	1	1	1	1	1	1	1	1	1	0	1	-65,46864	271,987972	244,831418	0
15.01.2021	02:49:04	0	0	3,163835	3,6315	49,5468	-1,359	80,879	0	1008,94	4,5	7	6,7	1	1	1	1	1	1	1	1	1	0	1	-70,613108	272,072366	240,072253	0
15.01.2021	02:49:05	0	0	3,728806	3,8955	44,784	-1,356	80,902	0	1009,08	4,5	6,9	6,7	1	1	1	1	1	1	1	1	1	0	1	-65,961945	272,000006	244,39303	0
15.01.2021	02:49:06	0	0	4,745753	3,822	48,798	-1,36	80,907	0	1008,96	4,5	6,8	6,7	1	1	1	1	1	1	1	1	1	0	1	-69,06272	272,127489	241,874505	0
15.01.2021	02:49:07	0	0	3,050841	3,64575	38,0664	-1,361	80,905	0	1009,1	4,6	6,8	6,7	1	1	1	1	1	1	1	1	1	0	1	-69,978858	272,017401	240,455515	0
15.01.2021	02:49:08	0	0	4,519765	3,60375	45,1548	-1,354	80,926	0	1009,08	4,6	6,9	6,7	1	1	1	1	1	1	1	1	1	0	1	-67,44186	271,998668	242,907011	0
15.01.2021	02:49:09	0	0	3,389824	3,531	55,1916	-1,351	80,931	0	1009,1	4,4	6,9	6,7	1	1	1	1	1	1	1	1	1	0	1	-66,384778	272,087139	244,368069	0
15.01.2021	02:49:10	0	0	4,632759	3,40125	52,8948	-1,353	80,942	0	1009,04	4,6	6,9	6,7	1	1	1	1	1	1	1	1	1	0	1	-63,002114	272,012047	247,40782	0
15.01.2021	02:49:11	0	0	3,8418	3,2865	57,4128	-1,35	80,939	0	1009,08	4,6	6,9	6,7	1	1	1	1	1	1	1	1	1	0	1	-70,049331	272,105959	240,789501	0
15.01.2021	02:49:12	0	0	2,824853	3,16125	51,048	-1,347	80,965	0	1009,16	4,6	7	6,7	1	1	1	1	1	1	1	1	1	0	1	-67,371388	272,000006	242,983587	0
15.01.2021	02:49:13	0	0	4,067764	3,054	60,9444	-1,355	80,957	0	1009,08	4,6	6,9	6,8	1	1	1	1	1	1	1	1	1	0	1	-65,327696	272,127489	245,60953	0
15.01.2021	02:49:14	0	0	3,502818	2,92425	44,7804	-1,346	80,959	0	1009,08	4,6	6,9	6,7	1	1	1	1	1	1	1	1	1	0	1	-66,878083	272,000006	243,476892	0
15.01.2021	02:49:15	0	0	3,050841	2,61375	40,6188	-1,348	80,956	0	1009,14	4,6	6,9	6,7	1	1	1	1	1	1	1	1	1	0	1	-70,894996	272,052238	239,698438	0
15.01.2021	02:49:16	0	0	2,824836	2,3865	42,9192	-1,346	80,956	0	1009,04	4,6	6,9	6,8	1	1	1	1	1	1	1	1	1	0	1	-68,146582	272,149045	242,889172	0
15.01.2021	02:49:17	0	0	3,389824	2,21175	40,2336	-1,35	80,952	0	1009,14	4,6	6,9	6,7	1	1	1	1	1	1	1	1	1	0	1	-63,143058	272,169275	247,985188	0
15.01.2021	02:49:18	0	0	2,937847	2,256	44,046	-1,345	80,955	0	1009,1	4,6	6,9	6,7	1	1	1	1	1	1	1	1	1	0	1	-68,851304	272,066996	241,809532	0
15.01.2021	02:49:19	0	0	3,615812	2,43975	42,9264	-1,343	80,963	0	1009,12	4,6	6,9	6,7	1	1	1	1	1	1	1	1	1	0	1	-70,260747	272,19493	240,984828	0
15.01.2021	02:49:20	0	0	3,27683	2,78175	52,9776	-1,345	80,961	0	1009,04	4,4	6,9	6,7	1	1	1	1	1	1	1	1	1	0	1	-66,384778	272,111339	244,47864	0
15.01.2021	02:49:21	0	0	4,632759	2,93175	47,7576	-1,349	80,981	0	1009,1	4,6	6,9	6,7	1	1	1	1	1	1	1	1	1	0	1	-70,754052	272,190877	240,472985	0
15.01.2021	02:49:22	0	0	3,61579	2,83125	46,2204	-1,337	80,99	0	1009,06	4,6	6,9	6,8	1	1	1	1	1	1	1	1	1	0	1	-64,200141	272,111339	246,663277	0
15.01.2021	02:49:23	0	0	2,711859	2,80725	42,714	-1,337	80,981	0	1009	4,6	6,9	6,7	1	1	1	1	1	1	1	1	1	0	1	-69,626498	272,181423	241,557302	0
15.01.2021	02:49:24	0	0	4,406771	2,93925	54,882	-1,342	80,997	0	1009,08	4,6	6,8	6,7	1	1	1	1	1	1	1	1	1	0	1	-71,67019	272,115375	239,211672	0
15.01.2021	02:49:25	0	0	2,598849	3,23925	36,612	-1,34	81,009	0	1009,08	4,6	6,9	6,8	1	1	1	1	1	1	1	1	1	0	1	-69,485553	272,196281	241,766202	0
15.01.2021	02:49:26	0	0	4,971741	3,51975	52,1244	-1,333	80,997	0	1008,98	4,6	6,9	6,7	1	1	1	1	1	1	1	1	1	0	1	-66,666667	272,171973	244,473921	0
15.01.2021	02:49:27	0	0	5,197699	3,55875	47,7612	-1,334	81,002	0	1009,02	4,6	6,9	6,8	1	1	1	1	1	1	1	1	1	0	1	-69,344609	272,081766	241,38369	0
15.01.2021	02:49:28	0	0	4,067788	3,5475	45,8568	-1,329	81,005	0	1009,22	4,6	6,9	6,7	1	1	1	1	1	1	1	1	1	0	1	-67,723749	272,028113	242,759529	0
15.01.2021	02:49:29	0	0	3,61579	3,516	33,6456	-1,331	80,988	0	1009,08	4,6	6,9	6,8	1	1	1	1	1	1	1	1	1	0	1	-66,102889	272,142306	244,90206	0
15.01.2021	02:49:30	0	0	4,180783	3,33525	33,9516	-1,331	80,978	0	1009,08	4,6	6,9	6,7	1	1	1	1	1	1	1	1	1	0	1	-70,542636	272,182773	240,647339	0
15.01.2021	02:49:31	0	0	3,163835	3,13275	57,042	-1,326	80,995	0	1009,14	4,6	6,9	6,7	1	1	1	1	1	1	1	1	1	0	1	-69,767442	272,149045	241,268312	0
15.01.2021	02:49:32	0	0	3,61579	2,829	44,3952	-1,329	80,978	0	1008,96	4,6	6,9	6,8	1	1	1	1	1	1	1	1	1	0	1	-67,935166	272,204391	243,353684	0
15.01.2021	02:49:33	0	0	2,824836	2,84625	49,5684	-1,326	80,986	0	1009,16	4,6	6,9	6,8	1	1	1	1	1	1	1	1	1	0	1	-68,851304	272,105959	241,987528	0
15.01.2021	02:49:34	0	0	4,745725	2,8305	47,8332	-1,324	80,974	0	1009,04	4,6	6,9	6,8	1	1	1	1	1	1	1	1	1	0	1	-68,569415	272,092514	242,207989	0
15.01.2021	02:49:35	0	0	2,824853	2,61975	48,798	-1,329	80,973	0	1009,02	4,6	6,9	6,7	1	1	1	1	1	1	1	1	1	0	1	-69,69697	272,083109	241,037466	0
15.01.2021	02:49:36	0	0	2,93783	2,52375	39,87	-1,323	80,971	0	1009,14	4,6	6,9	6,8	1	1	1	1	1	1	1	1	1	0	1	-67,159972	272,158483	243,918931	0
15.01.2021	02:49:37	0	0	5,19773	2,73675	44,3988	-1,321	80,961	0	1009,1	4,6	6,9	6,7	1	1	1	1	1	1	1	1	1	0	1	-64,48203	272,207095	246,819189	0
15.01.2021	02:49:38	0	0	3,27681	3,04425	47,0772	-1,319	80,965	0	1009,18	4,6	6,9	6,8	1	1	1	1	1	1	1	1	1	0	1	-67,019027	272,138264	243,967445	0
15.01.2021	02:49:39	0	0	4,180758	3,273	34,7148	-1,318	80,968	0	1009,28	4,6	6,9	6,8	1	1	1	1	1	1	1	1	1	0	1	-65,46864	272,040172	245,069695	0
15.01.2021	02:49:40	0	0	4,632731	3,14475	37,3248	-1,315	80,959	0	1009,02	4,6	6,9	6,8	1	1	1	1	1	1	1	1	1	0	1	-69,415081	272,087139	241,337766	0
15.01.2021	02:49:41	0	0	3,841777	2,99325	48,8088	-1,316	80,969	0	1009,22	4,6	6,9	6,8	1	1	1	1	1	1	1	1	1	0	1	-68,146582	272,056262	242,465228	0
15.01.2021	02:49:42	0	0	3,954771	2,84775	45,8316	-1,314	80,964	0	1009,16	4,6	6,9	6,8	1	1	1	1	1	1	1	1	1	0	1	-68,146582	272,185474	243,055744	0
15.01.2021	02:49:43	0	0	5,310692	2,82225	49,1904	-1,314	80,946	0	1009,1	4,6	6,9	6,8	1	1	1	1	1	1	1	1	1	0	1	-65,398168	272,178723	245,773283	0
15.01.2021	02:49:44	0	0	3,389824	2,80425	46,242	-1,313	80,955	0	1009,14	4,6	6,9	6,7	1	1	1	1	1	1	1	1	1	0	1	-67,019027	272,084452	243,721545	0
15.01.2021	02:49:45	0	0	4,519765	2,829	54,1116	-1,307	80,961	0	1009,14	4,5	6,9	6,7	1	1	1	1	1	1	1	1	1	0	1	-68,146582	272,204391	243,142267	0
15.01.2021	02:49:46	0	0	3,27681	2,799	62,388	-1,313	80,949	0	1009,16	4,6	6,9	6,8	1	1	1	1	1	1	1	1	1	0	1	-71,529246	272,073708	239,162247	0
15.01.2021	02:49:47	0	0	4,745725	2,6415	38,4336	-1,309	80,93	0	1008,88	4,5	6,9	6,8	1	1	1	1	1	1	1	1	1	0	1	-71,388302	272,052238	239,205133	0
15.01.2021	02:49:48	0	0	3,389803	2,6925	39,87	-1,308	80,929	0	1009,14	4,5	6,9	6,8	1	1	1	1	1	1	1	1	1	0	1	-67,300916	272,103269	243,525626	0
15.01.2021	02:49:49	0	0	2,711859	2,7615	55,2852	-1,307	80,912	0	1009,14	4,6	6,9	6,7	1	1	1	1	1	1	1	1	1	0	1	-63,636364	272,219267	247,720541	0
15.01.2021	02:49:50	0	0	3,27683	2,697	54,1008	-1,307	80,912	0	1009,2	4,6	6,8	6,7	1	1	1	1	1	1	1	1	1	0	1	-70,824524	272,197633	240,433412	0
15.01.2021	02:49:51	0	0	4,406771	2,6685	50,3064	-1,305	80,901	0	1009,08	4,6	6,9	6,7	1	1	1	1	1	1	1	1	1	0	1	-64,48203	272,147697	246,547562	0
15.01.2021	02:49:52	0	0	5,084705	2,7075	54,4824	-1,307	80,893	0	1009,1	4,6	6,9	6,8	1	1	1	1	1	1	1	1	1	0	1	-66,666667	272,212504	244,659296	0
15.01.2021	02:49:53	0	0	4,293751	2,61675	42,9084	-1,304	80,89	0	1009,1	4,5	6,8	6,8	1	1	1	1	1	1	1	1	1	0	1	-64,763918	272,097891	246,038051	0
15.01.2021	02:49:54	0	0	4,971712	2,58525	41,4648	-1,303	80,871	0	1009,1	4,6	6,9	6,8	1	1	1	1	1	1	1	1	1	0	1	-66,878083	272,048215	243,69698	0
15.01.2021	02:49:55	0	0	4,406744	2,51925	49,194	-1,302	80,835	0	1009,2	4,7	6,9	6,8	1	1	1	1	1	1	1	1	1	0	1	-64,693446	272,146349	246,329984	0
15.01.2021	02:49:56	0	0	3,050823	2,4615	44,3988	-1,305	80,835	0	1009,12	4,6	6,9	6,8	1	1	1	1	1	1	1	1	1	0	1	-67,794221	272,057603	242,823715	0
15.01.2021	02:49:57	0	0	4,180758	2,45325	41,8284	-1,306	80,813	0	1008,98	4,6	6,8	6,8	1	1	1	1	1	1	1	1	1	0	1	-71,035941	272,207095	240,265277	0
15.01.2021	02:49:58	0	0	3,728806	2,30775	37,3212	-1,295	80,805	0	1009,02	4,5	6,8	6,7	1	1	1	1	1	1	1	1	1	0	1	-69,69697	272,212504	241,628993	0
15.01.2021	02:49:59	0	0	3,050841	2,1165	50,6988	-1,301	80,785	0	1009,14	4,5	6,9	6,7	1	1	1	1	1	1	1	1	1	0	1	-65,116279	272,180073	246,061346	0
15.01.2021	02:50:00	0	0	4,519765	2,259	41,454	-1,297	80,74	0	1009,14	4,5	6,8	6,7	1	1	1	1	1	1	1	1	1	0	1	-64,83439	272,205743	246,460643	0
15.01.2021	02:50:01	0	0	4,519765	2,259	41,454	-1,297	80,74	0	1009,14	4,5	6,8	6,7	1	1	1	1	1	1	1	1	1	0	1	-64,83439	272,205743	246,460643	0
15.01.2021	02:50:02	0	0	4,745753	2,418	40,6008	-1,293	80,712	0	1009,1	4,5	6,9	6,7	1	1	1	1	1	1	1	1	1	0	1	-66,173362	272,116721	244,71465	0
15.01.2021	02:50:03	0	0	5,084705	2,586	43,6608	-1,292	80,706	0	1009,18	4,5	6,9	6,8	1	1	1	1	1	1	1	1	1	0	1	-67,0895	272,056262	243,52231	0
15.01.2021	02:50:04	0	0	3,8418	2,63175	44,7732	-1,297	80,685	0	1009,06	4,6	6,9	6,7	1	1	1	1	1	1	1	1	1	0	1	-68,639887	272,162529	242,457515	0
15.01.2021	02:50:05	0	0	2,937847	2,53725	58,5072	-1,293	80,66	0	1009,2	4,5	6,9	6,7	1	1	1	1	1	1	1	1	1	0	1	-65,750529	272,223326	245,624947	0
15.01.2021	02:50:06	0	0	4,632759	2,49675	50,2956	-1,293	80,644	0	1009,06	4,5	6,8	6,7	1	1	1	1	1	1	1	1	1	0	1	-70,472163	272,178723	240,699287	0
15.01.2021	02:50:07	0	0	3,389824	2,67825	53,3448	-1,288	80,64	0	1009,1	4,6	6,8	6,7	1	1	1	1	1	1	1	1	1	0	1	-67,230444	272,056262	243,381366	0
15.01.2021	02:50:08	0	0	2,598865	2,75925	62,0352	-1,288	80,607	0	1009,2	4,5	6,8	6,7	1	1	1	1	1	1	1	1	1	0	1	-66,173362	272,085796	244,573348	0
15.01.2021	02:50:09	0	0	4,858747	2,8665	79,7724	-1,291	80,578	0	1009,04	4,6	6,9	6,7	1	1	1	1	1	1	1	1	1	0	1	-62,790698	272,095202	247,998988	0
15.01.2021	02:50:10	0	0	2,824836	2,838	60,534	-1,294	80,577	0	1009,14	4,6	6,9	6,8	1	1	1	1	1	1	1	1	1	0	1	-66,384778	272,185474	244,817548	0
15.01.2021	02:50:11	0	0	4,067788	2,69925	62,8704	-1,289	80,559	0	1008,94	4,5	6,8	6,7	1	1	1	1	1	1	1	1	1	0	1	-63,777308	272,057603	246,840628	0
15.01.2021	02:50:12	0	0	5,536712	2,56125	29,5704	-1,295	80,551	0	1009,14	4,5	6,8	6,7	1	1	1	1	1	1	1	1	1	0	1	-69,767442	272,165227	241,342297	0
15.01.2021	02:50:13	0	0	4,406771	2,661	36,2412	-1,297	80,541	0	1009,12	4,5	7	6,7	1	1	1	1	1	1	1	1	1	0	1	-67,512333	272,230094	243,894107	0
15.01.2021	02:50:14	0	0	3,389824	2,6205	49,1724	-1,288	80,536	0	1009	4,5	6,8	6,7	1	1	1	1	1	1	1	1	1	0	1	-68,851304	272,088483	241,907682	0
15.01.2021	02:50:15	0	0	3,050841	2,49225	73,7928	-1,285	80,533	0	1009,22	4,6	6,8	6,7	1	1	1	1	1	1	1	1	1	0	1	-66,525722	272,052238	244,067712	0
15.01.2021	02:50:16	0	0	4,858747	2,36625	41,0004	-1,292	80,513	0	1009,22	4,6	7	6,7	1	1	1	1	1	1	1	1	1	0	1	-64,904863	272,186825	246,303641	0
15.01.2021	02:50:17	0	0	4,971741	2,43075	55,5624	-1,288	80,506	0	1009,14	4,6	7	6,7	1	1	1	1	1	1	1	1	1	0	1	-65,257223	272,215209	246,081114	0
15.01.2021	02:50:18	0	0	4,971741	2,5335	38,4048	-1,293	80,498	0	1009,24	4,5	6,8	6,7	1	1	1	1	1	1	1	1	1	0	1	-63,495419	272,203039	247,787246	0
15.01.2021	02:50:19	0	0	3,615812	2,44725	28,7244	-1,288	80,495	0	1009,22	4,6	7	6,7	1	1	1	1	1	1	1	1	1	0	1	-66,032417	272,077736	244,677477	0
15.01.2021	02:50:20	0	0	5,423718	2,24925	29,5776	-1,29	80,478	0	1009,12	4,5	6,8	6,7	1	1	1	1	1	1	1	1	1	0	1	-67,44186	272,223326	243,933616	0
15.01.2021	02:50:21	0	0	4,858747	2,14875	34,7148	-1,286	80,469	0	1009,14	4,5	7	6,7	1	1	1	1	1	1	1	1	1	0	1	-63,988724	272,185474	247,213602	0
15.01.2021	02:50:22	0	0	3,163835	2,2335	47,3652	-1,291	80,455	0	1009,06	4,6	6,8	6,7	1	1	1	1	1	1	1	1	1	0	1	-67,371388	272,079079	243,34464	0
15.01.2021	02:50:23	0	0	4,067788	2,32725	37,692	-1,287	80,451	0	1009,04	4,6	7	6,7	1	1	1	1	1	1	1	1	1	0	1	-71,317829	272,186825	239,890674	0
15.01.2021	02:50:24	0	0	3,8418	2,26275	38,808	-1,29	80,447	0	1009,22	4,6	7	6,7	1	1	1	1	1	1	1	1	1	0	1	-67,582805	272,052238	243,01063	0
15.01.2021	02:50:25	0	0	4,858747	2,18625	36,9432	-1,285	80,444	0	1009,18	4,5	7	6,7	1	1	1	1	1	1	1	1	1	0	1	-63,002114	272,170624	248,132303	0
15.01.2021	02:50:26	0	0	4,180783	2,20275	38,8836	-1,28	80,435	0	1009,14	4,6	6,8	6,7	1	1	1	1	1	1	1	1	1	0	1	-64,341085	272,226033	247,046774	0
15.01.2021	02:50:27	0	0	3,615812	2,22825	45,8424	-1,284	80,436	0	1009,2	4,6	7	6,7	1	1	1	1	1	1	1	1	1	0	1	-69,203665	272,153089	241,850578	0
15.01.2021	02:50:28	0	0	4,632759	2,145	33,264	-1,281	80,417	0	1009,12	4,6	6,8	6,7	1	1	1	1	1	1	1	1	1	0	1	-65,186751	272,236863	246,250665	0
15.01.2021	02:50:29	0	0	2,824853	2,028	36,6084	-1,281	80,402	0	1009,06	4,6	6,8	6,7	1	1	1	1	1	1	1	1	1	0	1	-68,217054	272,109994	242,640216	0
15.01.2021	02:50:30	0	0	3,27683	1,93875	33,9696	-1,283	80,398	0	1009,18	4,6	6,8	6,7	1	1	1	1	1	1	1	1	1	0	1	-67,44186	272,066996	243,218975	0
15.01.2021	02:50:31	0	0	3,050841	1,95975	48,5064	-1,287	80,387	0	1009,04	4,6	7	6,7	1	1	1	1	1	1	1	1	1	0	1	-69,767442	272,099235	241,040669	0
15.01.2021	02:50:32	0	0	4,745753	1,90425	37,3248	-1,28	80,38	0	1009,16	4,6	7	6,7	1	1	1	1	1	1	1	1	1	0	1	-71,881607	272,22468	239,500061	0
15.01.2021	02:50:33	0	0	3,27683	1,866	33,2568	-1,283	80,373	0	1009,16	4,6	7	6,7	1	1	1	1	1	1	1	1	1	0	1	-66,102889	272,163878	245,000681	0
15.01.2021	02:50:34	0	0	3,615812	1,75275	29,1204	-1,287	80,367	0	1009,26	4,6	7	6,7	1	1	1	1	1	1	1	1	1	0	1	-67,582805	272,061628	243,053514	0
15.01.2021	02:50:35	0	0	4,745753	1,73775	57,0348	-1,29	80,352	0	1009,06	4,6	7	6,7	1	1	1	1	1	1	1	1	1	0	1	-69,767442	272,066996	240,893393	0
15.01.2021	02:50:36	0	0	3,050841	1,7355	51,0588	-1,284	80,359	0	1009,08	4,6	7	6,7	1	1	1	1	1	1	1	1	1	0	1	-66,173362	272,154437	244,887045	0
15.01.2021	02:50:37	0	0	3,728806	1,854	45,846	-1,286	80,363	0	1009,2	4,6	6,8	6,7	1	1	1	1	1	1	1	1	1	0	1	-64,48203	272,058945	246,142034	0
15.01.2021	02:50:38	0	0	4,406771	2,02275	48,8088	-1,285	80,356	0	1009,24	4,6	7	6,7	1	1	1	1	1	1	1	1	1	0	1	-68,780832	272,089827	241,984293	0
15.01.2021	02:50:39	0	0	4,067788	2,202	50,3172	-1,283	80,335	0	1009,2	4,6	7	6,7	1	1	1	1	1	1	1	1	1	0	1	-64,48203	272,079079	246,233999	0
15.01.2021	02:50:40	0	0	4,632759	2,23275	52,1244	-1,284	80,347	0	1009,06	4,6	7	6,7	1	1	1	1	1	1	1	1	1	0	1	-66,737139	272,072366	243,948222	0
15.01.2021	02:50:41	0	0	5,423718	2,2095	57,4164	-1,29	80,344	0	1009	4,6	7	6,7	1	1	1	1	1	1	1	1	1	0	1	-67,864693	272,123451	243,054073	0
15.01.2021	02:50:42	0	0	4,971741	2,208	57,7296	-1,283	80,352	0	1009,1	4,6	7	6,7	1	1	1	1	1	1	1	1	1	0	1	-67,864693	272,240926	243,591315	0
15.01.2021	02:50:43	0	0	2,824853	2,0955	59,49	-1,284	80,331	0	1009,04	4,6	7	6,7	1	1	1	1	1	1	1	1	1	0	1	-69,837914	272,13557	241,136244	0
15.01.2021	02:50:44	0	0	3,163835	1,8705	39,5496	-1,282	80,334	0	1009,24	4,6	7	6,7	1	1	1	1	1	1	1	1	1	0	1	-73,150106	272,073708	237,541387	0
15.01.2021	02:50:45	0	0	4,745753	1,764	56,6568	-1,28	80,326	0	1009,22	4,6	7	6,7	1	1	1	1	1	1	1	1	1	0	1	-66,807611	272,108649	244,043513	0
15.01.2021	02:50:46	0	0	3,615812	1,7055	47,3796	-1,282	80,313	0	1009,08	4,6	7	6,7	1	1	1	1	1	1	1	1	1	0	1	-62,367865	272,081766	248,360435	0
15.01.2021	02:50:47	0	0	3,61579	1,68	51,0696	-1,286	80,316	0	1008,82	4,6	6,8	6,8	1	1	1	1	1	1	1	1	1	0	1	-63,706836	272,080423	247,015328	0
15.01.2021	02:50:48	0	0	2,937847	1,70925	46,6056	-1,287	80,294	0	1009,14	4,6	7	6,7	1	1	1	1	1	1	1	1	1	0	1	-69,06272	272,230094	242,343719	0
15.01.2021	02:50:49	0	0	4,632759	1,78875	55,944	-1,277	80,297	0	1009,24	4,6	7	6,7	1	1	1	1	1	1	1	1	1	0	1	-68,780832	272,177373	242,384445	0
15.01.2021	02:50:50	0	0	3,8418	1,842	52,8732	-1,279	80,282	0	1009,18	4,6	7	6,7	1	1	1	1	1	1	1	1	1	0	1	-66,45525	272,223326	244,920226	0
15.01.2021	02:50:51	0	0	3,8418	1,9125	54,81	-1,281	80,266	0	1009,14	4,6	7	6,7	1	1	1	1	1	1	1	1	1	0	1	-66,878083	272,097891	243,923886	0
15.01.2021	02:50:52	0	0	2,372877	1,977	49,9572	-1,28	80,269	0	1009,02	4,6	7	6,7	1	1	1	1	1	1	1	1	1	0	1	-62,156448	272,057603	248,461488	0
15.01.2021	02:50:53	0	0	3,27683	1,956	46,5984	-1,287	80,245	0	1009,1	4,6	7	6,7	1	1	1	1	1	1	1	1	1	0	1	-65,539112	272,150393	245,502804	0
15.01.2021	02:50:54	0	0	3,61579	1,9755	50,2992	-1,278	80,245	0	1009,2	4,6	7	6,8	1	1	1	1	1	1	1	1	1	0	1	-63,354475	272,240926	248,101533	0
15.01.2021	02:50:55	0	0	2,485856	1,94325	47,3652	-1,282	80,237	0	1009,16	4,6	7	6,8	1	1	1	1	1	1	1	1	1	0	1	-66,243834	272,159831	244,841235	0
15.01.2021	02:50:56	0	0	3,163835	1,9605	61,3152	-1,283	80,223	0	1009,08	4,6	7	6,7	1	1	1	1	1	1	1	1	1	0	1	-69,626498	272,060287	241,003693	0
15.01.2021	02:50:57	0	0	4,293777	1,953	51,066	-1,286	80,213	0	1009,02	4,6	7	6,7	1	1	1	1	1	1	1	1	1	0	1	-65,46864	272,107304	245,376338	0
15.01.2021	02:50:58	0	0	3,615812	1,9725	50,6988	-1,28	80,195	0	1009,06	4,6	7	6,7	1	1	1	1	1	1	1	1	1	0	1	-68,639887	272,216561	242,704639	0
15.01.2021	02:50:59	0	0	3,728806	1,8915	40,3272	-1,283	80,196	0	1009,06	4,6	7	6,7	1	1	1	1	1	1	1	1	1	0	1	-68,780832	272,215209	242,557506	0
15.01.2021	02:51:00	0	0	3,27681	1,854	46,6092	-1,276	80,169	0	1009,16	4,6	7	6,8	1	1	1	1	1	1	1	1	1	0	1	-66,596195	272,048215	243,978869	0
15.01.2021	02:51:01	0	0	3,27681	1,854	46,6092	-1,276	80,169	0	1009,16	4,6	7	6,8	1	1	1	1	1	1	1	1	1	0	1	-66,596195	272,048215	243,978869	0
15.01.2021	02:51:02	0	0	3,61579	1,8375	50,6952	-1,275	80,185	0	1009,06	4,6	7	6,8	1	1	1	1	1	1	1	1	1	0	1	-66,173362	272,149045	244,862392	0
15.01.2021	02:51:03	0	0	3,050841	1,803	52,506	-1,278	80,176	0	1009,08	4,6	6,9	6,7	1	1	1	1	1	1	1	1	1	0	1	-69,908386	272,236863	241,52903	0
15.01.2021	02:51:04	0	0	2,93783	1,8315	49,2012	-1,28	80,158	0	1008,9	4,6	6,9	6,8	1	1	1	1	1	1	1	1	1	0	1	-65,750529	272,084452	244,990044	0
15.01.2021	02:51:05	0	0	3,61579	1,83225	39,8772	-1,279	80,176	0	1009,18	4,6	7	6,8	1	1	1	1	1	1	1	1	1	0	1	-68,07611	272,230094	243,330329	0
15.01.2021	02:51:06	0	0	4,858747	1,9155	52,9596	-1,28	80,175	0	1009,12	4,6	6,9	6,7	1	1	1	1	1	1	1	1	1	0	1	-68,005638	272,236863	243,431778	0
15.01.2021	02:51:07	0	0	4,293777	2,0775	62,0424	-1,279	80,168	0	1009,2	4,6	6,9	6,7	1	1	1	1	1	1	1	1	1	0	1	-65,257223	272,188175	245,957457	0
15.01.2021	02:51:08	0	0	3,27683	2,35725	70,6104	-1,283	80,154	0	1009,18	4,6	7	6,7	1	1	1	1	1	1	1	1	1	0	1	-65,327696	272,240926	246,128313	0
15.01.2021	02:51:09	0	0	3,389803	2,36625	84,8016	-1,278	80,171	0	1009,12	4,6	7	6,8	1	1	1	1	1	1	1	1	1	0	1	-66,737139	272,139611	244,255492	0
15.01.2021	02:51:10	0	0	2,93783	2,1105	72	-1,281	80,173	0	1009,14	4,6	6,9	6,8	1	1	1	1	1	1	1	1	1	0	1	-65,46864	272,22468	245,913028	0
15.01.2021	02:51:11	0	0	3,615812	1,90725	71,9964	-1,285	80,154	0	1009	4,6	6,9	6,7	1	1	1	1	1	1	1	1	1	0	1	-69,69697	272,209799	241,616619	0
15.01.2021	02:51:12	0	0	4,293751	1,7925	62,7876	-1,281	80,158	0	1009	4,6	6,9	6,8	1	1	1	1	1	1	1	1	1	0	1	-64,48203	272,22062	246,881065	0
15.01.2021	02:51:13	0	0	4,406744	1,75125	52,8768	-1,285	80,147	0	1009,08	4,6	6,9	6,8	1	1	1	1	1	1	1	1	1	0	1	-67,864693	272,223326	243,510783	0
15.01.2021	02:51:14	0	0	3,954771	1,6365	49,554	-1,284	80,144	0	1009,2	4,6	6,9	6,8	1	1	1	1	1	1	1	1	1	0	1	-67,794221	272,123451	243,124545	0
15.01.2021	02:51:15	0	0	4,632731	1,51875	55,548	-1,283	80,123	0	1009,1	4,6	6,9	6,8	1	1	1	1	1	1	1	1	1	0	1	-65,961945	272,246345	245,518861	0
15.01.2021	02:51:16	0	0	2,711859	1,82475	55,548	-1,288	80,107	0	1009,14	4,6	6,9	6,7	1	1	1	1	1	1	1	1	1	0	1	-65,327696	272,118067	245,566466	0
15.01.2021	02:51:17	0	0	3,27683	2,433	58,122	-1,275	80,109	0	1009,36	4,6	6,9	6,7	1	1	1	1	1	1	1	1	1	0	1	-71,247357	272,22062	240,115737	0
15.01.2021	02:51:18	0	0	2,937847	3,04725	48,1392	-1,279	80,092	0	1009,22	4,6	7	6,7	1	1	1	1	1	1	1	1	1	0	1	-71,740662	272,084452	238,99991	0
15.01.2021	02:51:19	0	0	3,389803	3,432	45,1548	-1,281	80,084	0	1009,14	4,6	6,9	6,8	1	1	1	1	1	1	1	1	1	0	1	-64,341085	272,088483	246,417901	0
15.01.2021	02:51:20	0	0	2,711843	3,57525	42,5952	-1,283	80,064	0	1009,06	4,6	6,9	6,8	1	1	1	1	1	1	1	1	1	0	1	-68,357999	272,076394	242,345761	0
15.01.2021	02:51:21	0	0	3,163816	3,21075	43,3008	-1,28	80,057	0	1009,1	4,6	6,9	6,8	1	1	1	1	1	1	1	1	1	0	1	-66,173362	272,184124	245,022789	0
15.01.2021	02:51:22	0	0	2,485871	3,4305	38,8116	-1,284	80,058	0	1009,2	4,6	6,9	6,7	1	1	1	1	1	1	1	1	1	0	1	-70,119803	272,239572	241,330008	0
15.01.2021	02:51:23	0	0	3,954771	3,80175	59,8572	-1,282	80,065	0	1009,18	4,6	6,9	6,8	1	1	1	1	1	1	1	1	1	0	1	-66,384778	272,16118	244,706457	0
15.01.2021	02:51:24	0	0	5,084736	3,912	48,6	-1,283	80,063	0	1009,16	4,6	6,9	6,7	1	1	1	1	1	1	1	1	1	0	1	-64,48203	272,06297	246,160417	0
15.01.2021	02:51:25	0	0	4,180758	3,85275	44,0532	-1,285	80,053	0	1009,08	4,6	6,9	6,8	1	1	1	1	1	1	1	1	1	0	1	-66,243834	272,159831	244,841235	0
15.01.2021	02:51:26	0	0	5,084705	3,6285	45,1512	-1,287	80,049	0	1009,12	4,6	6,9	6,8	1	1	1	1	1	1	1	1	1	0	1	-69,556025	272,066996	241,10481	0
15.01.2021	02:51:27	0	0	3,502797	3,63075	34,344	-1,279	80,063	0	1009,16	4,6	6,9	6,8	1	1	1	1	1	1	1	1	1	0	1	-69,344609	272,157134	241,728128	0
15.01.2021	02:51:28	0	0	3,163816	3,51375	28,2492	-1,281	80,067	0	1009,1	4,6	6,9	6,8	1	1	1	1	1	1	1	1	1	0	1	-66,948555	272,069681	243,724541	0
15.01.2021	02:51:29	0	0	3,954794	3,86775	34,3332	-1,282	80,069	0	1008,96	4,6	6,9	6,7	1	1	1	1	1	1	1	1	1	0	1	-63,777308	272,188175	247,437373	0
15.01.2021	02:51:30	0	0	4,971712	4,0665	33,6348	-1,272	80,081	0	1009,12	4,7	6,9	6,8	1	1	1	1	1	1	1	1	1	0	1	-61,028894	272,066996	249,631942	0
15.01.2021	02:51:31	0	0	4,632731	3,84525	39,1752	-1,287	80,084	0	1009,1	4,6	6,9	6,8	1	1	1	1	1	1	1	1	1	0	1	-62,579281	272,22062	248,783813	0
15.01.2021	02:51:32	0	0	4,180758	3,672	41,8608	-1,281	80,092	0	1009,16	4,6	6,9	6,8	1	1	1	1	1	1	1	1	1	0	1	-66,525722	272,083109	244,208713	0
15.01.2021	02:51:33	0	0	4,858718	3,432	46,9692	-1,286	80,092	0	1009,08	4,6	6,9	6,8	1	1	1	1	1	1	1	1	1	0	1	-68,005638	272,213856	243,326512	0
15.01.2021	02:51:34	0	0	4,406744	3,2505	46,9944	-1,283	80,096	0	1009,08	4,6	6,9	6,8	1	1	1	1	1	1	1	1	1	0	1	-66,948555	272,112684	243,92101	0
15.01.2021	02:51:35	0	0	5,197699	2,92725	50,7996	-1,283	80,123	0	1009,2	4,6	6,9	6,8	1	1	1	1	1	1	1	1	1	0	1	-70,119803	272,213856	241,212347	0
15.01.2021	02:51:36	0	0	3,61579	2,64975	37,692	-1,284	80,149	0	1009,14	4,6	6,9	6,8	1	1	1	1	1	1	1	1	1	0	1	-67,512333	272,081766	243,215967	0
15.01.2021	02:51:37	0	0	4,293751	2,70225	49,2048	-1,283	80,173	0	1009,22	4,6	6,9	6,8	1	1	1	1	1	1	1	1	1	0	1	-71,247357	272,103269	239,579185	0
15.01.2021	02:51:38	0	0	3,27681	2,79525	51,7464	-1,285	80,169	0	1009,2	4,6	6,9	6,8	1	1	1	1	1	1	1	1	1	0	1	-64,48203	272,201687	246,794453	0
15.01.2021	02:51:39	0	0	4,293751	2,74125	48,9168	-1,285	80,19	0	1009,16	4,6	6,9	6,8	1	1	1	1	1	1	1	1	1	0	1	-67,723749	272,25312	243,788065	0
15.01.2021	02:51:40	0	0	3,389803	2,65125	58,8492	-1,279	80,194	0	1009,2	4,6	6,9	6,8	1	1	1	1	1	1	1	1	1	0	1	-68,780832	272,190877	242,446205	0
15.01.2021	02:51:41	0	0	3,050823	2,6415	48,1068	-1,281	80,21	0	1009,26	4,6	6,9	6,8	1	1	1	1	1	1	1	1	1	0	1	-67,653277	272,104614	243,17941	0
15.01.2021	02:51:42	0	0	3,841777	2,5935	45,9288	-1,282	80,24	0	1009,12	4,6	6,9	6,8	1	1	1	1	1	1	1	1	1	0	1	-66,948555	272,200336	244,321745	0
15.01.2021	02:51:43	0	0	4,745725	2,52375	57,0096	-1,278	80,255	0	1009,14	4,6	6,9	6,8	1	1	1	1	1	1	1	1	1	0	1	-68,005638	272,263966	243,555818	0
15.01.2021	02:51:44	0	0	2,93783	2,5845	37,314	-1,287	80,288	0	1009,1	4,7	6,9	6,8	1	1	1	1	1	1	1	1	1	0	1	-67,794221	272,092514	242,983183	0
15.01.2021	02:51:45	0	0	4,971712	2,748	63,8604	-1,28	80,347	0	1009,12	4,6	6,9	6,8	1	1	1	1	1	1	1	1	1	0	1	-65,46864	272,263966	246,092816	0
15.01.2021	02:51:46	0	0	4,180758	2,64825	46,3032	-1,285	80,38	0	1009,22	4,6	6,9	6,8	1	1	1	1	1	1	1	1	1	0	1	-67,653277	272,173323	243,493483	0
15.01.2021	02:51:47	0	0	3,61579	2,68725	55,9368	-1,277	80,409	0	1009,06	4,7	6,9	6,8	1	1	1	1	1	1	1	1	1	0	1	-67,019027	272,087139	243,73382	0
15.01.2021	02:51:48	0	0	4,067764	2,553	38,4192	-1,276	80,436	0	1009,04	4,6	6,9	6,8	1	1	1	1	1	1	1	1	1	0	1	-66,314306	272,176023	244,844798	0
15.01.2021	02:51:49	0	0	4,858718	2,27475	34,3512	-1,277	80,427	0	1009,26	4,7	6,9	6,8	1	1	1	1	1	1	1	1	1	0	1	-70,68358	272,255831	240,840641	0
15.01.2021	02:51:50	0	0	3,27681	2,2665	51,4296	-1,282	80,451	0	1009,08	4,6	6,9	6,8	1	1	1	1	1	1	1	1	1	0	1	-71,106413	272,116721	239,781599	0
15.01.2021	02:51:51	0	0	3,728784	2,3085	27,9684	-1,276	80,449	0	1009,06	4,7	7	6,8	1	1	1	1	1	1	1	1	1	0	1	-66,314306	272,208447	244,993098	0
15.01.2021	02:51:52	0	0	4,406744	2,3715	50,2992	-1,278	80,448	0	1009,16	4,7	6,9	6,8	1	1	1	1	1	1	1	1	1	0	1	-61,24031	272,273461	250,36461	0
15.01.2021	02:51:53	0	0	3,27681	2,5185	40,2408	-1,276	80,463	0	1009,24	4,7	6,9	6,8	1	1	1	1	1	1	1	1	1	0	1	-67,159972	272,242281	244,302235	0
15.01.2021	02:51:54	0	0	3,27681	2,454	49,5792	-1,273	80,484	0	1009,24	4,6	7	6,8	1	1	1	1	1	1	1	1	1	0	1	-64,270613	272,108649	246,580511	0
15.01.2021	02:51:55	0	0	2,824836	2,48925	45,8352	-1,275	80,508	0	1009,04	4,6	6,9	6,8	1	1	1	1	1	1	1	1	1	0	1	-67,159972	272,174673	243,99296	0
15.01.2021	02:51:56	0	0	3,163835	2,67525	34,344	-1,272	80,522	0	1009,12	4,7	6,9	6,7	1	1	1	1	1	1	1	1	1	0	1	-68,710359	272,285676	242,950482	0
15.01.2021	02:51:57	0	0	3,61579	2,76525	38,808	-1,273	80,543	0	1009,08	4,6	6,9	6,8	1	1	1	1	1	1	1	1	1	0	1	-67,723749	272,203039	243,558917	0
15.01.2021	02:51:58	0	0	5,084705	2,56125	42,6168	-1,273	80,56	0	1009,16	4,6	6,9	6,8	1	1	1	1	1	1	1	1	1	0	1	-64,200141	272,288391	247,473133	0
15.01.2021	02:51:59	0	0	4,632759	2,30175	43,6716	-1,275	80,589	0	1009,24	4,6	7	6,7	1	1	1	1	1	1	1	1	1	0	1	-62,22692	272,226033	249,160939	0
15.01.2021	02:52:00	0	0	2,824836	1,968	47,4588	-1,268	80,602	0	1009,12	4,6	6,8	6,8	1	1	1	1	1	1	1	1	1	0	1	-67,371388	272,234155	244,053635	0
15.01.2021	02:52:01	0	0	2,824836	1,968	47,4588	-1,268	80,602	0	1009,12	4,6	6,8	6,8	1	1	1	1	1	1	1	1	1	0	1	-67,371388	272,234155	244,053635	0
15.01.2021	02:52:02	0	0	2,711843	1,98525	55,9296	-1,268	80,604	0	1009,3	4,6	7	6,8	1	1	1	1	1	1	1	1	1	0	1	-68,921776	272,131529	242,033913	0
15.01.2021	02:52:03	0	0	2,711843	2,0595	71,226	-1,265	80,59	0	1009,06	4,7	6,9	6,8	1	1	1	1	1	1	1	1	1	0	1	-65,750529	272,165227	245,35921	0
15.01.2021	02:52:04	0	0	3,8418	1,9515	53,3448	-1,266	80,617	0	1009,08	4,6	7	6,7	1	1	1	1	1	1	1	1	1	0	1	-68,780832	272,300616	242,948417	0
15.01.2021	02:52:05	0	0	4,067788	1,89525	37,296	-1,269	80,591	0	1009,12	4,6	6,9	6,7	1	1	1	1	1	1	1	1	1	0	1	-66,102889	272,174673	245,050042	0
15.01.2021	02:52:06	0	0	4,406744	1,84725	55,9296	-1,27	80,602	0	1009,08	4,6	7	6,8	1	1	1	1	1	1	1	1	1	0	1	-69,274137	272,29654	242,436449	0
15.01.2021	02:52:07	0	0	5,310724	1,7625	39,168	-1,262	80,606	0	1009,08	4,6	7	6,7	1	1	1	1	1	1	1	1	1	0	1	-70,190275	272,300616	241,538973	0
15.01.2021	02:52:08	0	0	3,61579	1,76025	56,0232	-1,261	80,593	0	1009,18	4,6	7	6,8	1	1	1	1	1	1	1	1	1	0	1	-69,837914	272,154437	241,222493	0
15.01.2021	02:52:09	0	0	3,27681	2,02125	54,7992	-1,264	80,58	0	1009,14	4,6	7	6,8	1	1	1	1	1	1	1	1	1	0	1	-69,626498	272,166576	241,48941	0
15.01.2021	02:52:10	0	0	5,084705	2,157	84,4272	-1,257	80,575	0	1009,16	4,6	7	6,8	1	1	1	1	1	1	1	1	1	0	1	-66,243834	272,139611	244,748797	0
15.01.2021	02:52:11	0	0	2,598865	2,15325	71,9676	-1,255	80,568	0	1009,22	4,6	7	6,7	1	1	1	1	1	1	1	1	1	0	1	-68,569415	272,157134	242,503322	0
15.01.2021	02:52:12	0	0	4,519738	1,93125	96,2064	-1,259	80,558	0	1009,14	4,6	7	6,8	1	1	1	1	1	1	1	1	1	0	1	-66,314306	272,257187	245,21612	0
15.01.2021	02:52:13	0	0	3,728806	1,704	54,4896	-1,256	80,559	0	1009,18	4,6	7	6,7	1	1	1	1	1	1	1	1	1	0	1	-69,133192	272,146349	241,890238	0
15.01.2021	02:52:14	0	0	3,728806	1,68675	27,2952	-1,255	80,561	0	1009,14	4,6	7	6,7	1	1	1	1	1	1	1	1	1	0	1	-69,908386	272,203039	241,374279	0
15.01.2021	02:52:15	0	0	4,971741	1,64175	62,7768	-1,256	80,55	0	1009,14	4,6	7	6,7	1	1	1	1	1	1	1	1	1	0	1	-68,851304	272,277532	242,772252	0
15.01.2021	02:52:16	0	0	3,615812	1,6485	39,87	-1,254	80,55	0	1009	4,6	7	6,7	1	1	1	1	1	1	1	1	1	0	1	-68,921776	272,321007	242,900859	0
15.01.2021	02:52:17	0	0	4,632759	1,59825	54,5112	-1,257	80,535	0	1009,14	4,6	7	6,7	1	1	1	1	1	1	1	1	1	0	1	-72,515856	272,258542	239,020775	0
15.01.2021	02:52:18	0	0	3,27683	1,59225	48,5028	-1,253	80,531	0	1009,16	4,6	7	6,7	1	1	1	1	1	1	1	1	1	0	1	-68,217054	272,314208	243,574438	0
15.01.2021	02:52:19	0	0	4,971682	1,55325	51,4332	-1,253	80,511	0	1009,2	4,6	7	6,9	1	1	1	1	1	1	1	1	1	0	1	-68,07611	272,240926	243,379898	0
15.01.2021	02:52:20	0	0	3,389803	1,512	64,2456	-1,252	80,513	0	1009,32	4,7	7	6,8	1	1	1	1	1	1	1	1	1	0	1	-70,331219	272,323728	241,503877	0
15.01.2021	02:52:21	0	0	4,406771	1,45725	56,268	-1,256	80,492	0	1009,24	4,6	7	6,7	1	1	1	1	1	1	1	1	1	0	1	-64,270613	272,208447	247,03679	0
15.01.2021	02:52:22	0	0	4,858747	1,4235	73,4292	-1,254	80,475	0	1009,02	4,6	7	6,7	1	1	1	1	1	1	1	1	1	0	1	-65,680056	272,326449	246,167502	0
15.01.2021	02:52:23	0	0	4,971741	1,39575	69,8904	-1,252	80,456	0	1009,12	4,7	7	6,7	1	1	1	1	1	1	1	1	1	0	1	-68,921776	272,259898	242,62106	0
15.01.2021	02:52:24	0	0	3,389824	1,32225	69,4692	-1,244	80,439	0	1009,24	4,7	7	6,7	1	1	1	1	1	1	1	1	1	0	1	-70,965469	272,146349	240,057962	0
15.01.2021	02:52:25	0	0	3,502818	1,2795	68,4252	-1,255	80,422	0	1009,16	4,6	7	6,7	1	1	1	1	1	1	1	1	1	0	1	-63,565891	272,181423	247,617908	0
15.01.2021	02:52:26	0	0	3,728806	1,266	72,6768	-1,251	80,418	0	1009,2	4,6	7	6,7	1	1	1	1	1	1	1	1	1	0	1	-71,106413	272,319647	240,709992	0
15.01.2021	02:52:27	0	0	4,745696	1,30125	65,8512	-1,247	80,387	0	1009,16	4,6	7	6,9	1	1	1	1	1	1	1	1	1	0	1	-66,032417	272,176023	245,126687	0
15.01.2021	02:52:28	0	0	3,615812	1,371	68,4144	-1,253	80,354	0	1009,16	4,6	7	6,7	1	1	1	1	1	1	1	1	1	0	1	-67,371388	272,155785	243,695183	0
15.01.2021	02:52:29	0	0	4,632759	1,49775	61,3116	-1,245	80,352	0	1009,22	4,6	7	6,7	1	1	1	1	1	1	1	1	1	0	1	-68,498943	272,217914	242,851772	0
15.01.2021	02:52:30	0	0	4,293777	1,53525	52,8876	-1,248	80,336	0	1009,16	4,6	7	6,7	1	1	1	1	1	1	1	1	1	0	1	-64,48203	272,145001	246,53524	0
15.01.2021	02:52:31	0	0	3,050841	1,62975	55,1808	-1,254	80,309	0	1009,06	4,6	7	6,7	1	1	1	1	1	1	1	1	1	0	1	-67,0895	272,170624	244,044917	0
15.01.2021	02:52:32	0	0	4,067788	1,7535	79,4412	-1,245	80,286	0	1009,06	4,6	7	6,7	1	1	1	1	1	1	1	1	1	0	1	-69,485553	272,326449	242,362005	0
15.01.2021	02:52:33	0	0	5,084736	1,7325	66,9168	-1,248	80,255	0	1009,04	4,7	7	6,7	1	1	1	1	1	1	1	1	1	0	1	-65,609584	272,24499	245,865021	0
15.01.2021	02:52:34	0	0	3,728806	1,70325	52,8768	-1,249	80,241	0	1008,94	4,7	7	6,7	1	1	1	1	1	1	1	1	1	0	1	-68,146582	272,147697	242,88301	0
15.01.2021	02:52:35	0	0	3,502776	1,72275	61,6932	-1,242	80,207	0	1009,18	4,6	7	6,9	1	1	1	1	1	1	1	1	1	0	1	-67,582805	272,293823	244,115341	0
15.01.2021	02:52:36	0	0	5,423718	1,84125	59,8572	-1,244	80,162	0	1009,22	4,7	7	6,7	1	1	1	1	1	1	1	1	1	0	1	-68,428471	272,301974	243,306999	0
15.01.2021	02:52:37	0	0	2,937847	1,95675	41,4864	-1,249	80,144	0	1009,04	4,7	7	6,7	1	1	1	1	1	1	1	1	1	0	1	-68,287526	272,318287	243,52265	0
15.01.2021	02:52:38	0	0	3,728761	2,19375	55,2816	-1,243	80,11	0	1009,1	4,6	7	6,9	1	1	1	1	1	1	1	1	1	0	1	-68,357999	272,25041	243,141411	0
15.01.2021	02:52:39	0	0	2,937847	2,4555	49,572	-1,244	80,079	0	1009,24	4,7	7	6,7	1	1	1	1	1	1	1	1	1	0	1	-62,579281	272,322367	249,249584	0
15.01.2021	02:52:40	0	0	4,293725	2,63475	67,3128	-1,244	80,047	0	1008,94	4,6	7	6,9	1	1	1	1	1	1	1	1	1	0	1	-68,780832	272,185474	242,421495	0
15.01.2021	02:52:41	0	0	3,163798	2,6235	25,7976	-1,244	80,046	0	1009,16	4,7	7	6,9	1	1	1	1	1	1	1	1	1	0	1	-63,143058	272,150393	247,898858	0
15.01.2021	02:52:42	0	0	2,03387	2,4585	57,7332	-1,243	80,009	0	1009,16	4,7	7	6,9	1	1	1	1	1	1	1	1	1	0	1	-64,83439	272,177373	246,330887	0
15.01.2021	02:52:43	0	0	2,711826	2,39475	37,6848	-1,243	79,995	0	1009,14	4,7	7	6,9	1	1	1	1	1	1	1	1	1	0	1	-67,300916	272,288391	244,372358	0
15.01.2021	02:52:44	0	0	4,180732	2,289	57,7044	-1,254	79,965	0	1009,14	4,7	7	6,9	1	1	1	1	1	1	1	1	1	0	1	-64,48203	272,29654	247,228556	0
15.01.2021	02:52:45	0	0	3,389783	2,148	55,9188	-1,246	79,961	0	1009,2	4,7	7	6,9	1	1	1	1	1	1	1	1	1	0	1	-67,794221	272,209799	243,519368	0
15.01.2021	02:52:46	0	0	5,084736	1,92	40,9896	-1,241	79,936	0	1009,14	4,7	7	6,7	1	1	1	1	1	1	1	1	1	0	1	-65,257223	272,318287	246,552953	0
15.01.2021	02:52:47	0	0	3,050805	1,8885	42,912	-1,243	79,926	0	1009,22	4,7	7	6,9	1	1	1	1	1	1	1	1	1	0	1	-65,539112	272,270748	246,053387	0
15.01.2021	02:52:48	0	0	3,728806	1,82925	62,0388	-1,243	79,897	0	1009,1	4,7	7	6,7	1	1	1	1	1	1	1	1	1	0	1	-66,737139	272,333252	245,141586	0
15.01.2021	02:52:49	0	0	3,27679	1,87875	49,9572	-1,24	79,881	0	1009,08	4,6	7	6,9	1	1	1	1	1	1	1	1	1	0	1	-66,948555	272,212504	244,377407	0
15.01.2021	02:52:50	0	0	2,937812	1,79625	42,9156	-1,245	79,878	0	1009,14	4,7	7	6,9	1	1	1	1	1	1	1	1	1	0	1	-66,45525	272,322367	245,373615	0
15.01.2021	02:52:51	0	0	3,163835	1,73325	52,1352	-1,248	79,854	0	1009,16	4,7	7	6,7	1	1	1	1	1	1	1	1	1	0	1	-70,401691	272,24499	241,072914	0
15.01.2021	02:52:52	0	0	3,050805	1,77225	54,81	-1,249	79,836	0	1009,06	4,7	7	6,9	1	1	1	1	1	1	1	1	1	0	1	-72,093023	272,190877	239,134013	0
15.01.2021	02:52:53	0	0	3,8418	1,776	46,98	-1,245	79,815	0	1009,12	4,7	7	6,7	1	1	1	1	1	1	1	1	1	0	1	-66,525722	272,318287	245,284454	0
15.01.2021	02:52:54	0	0	4,971682	1,73475	35,8668	-1,243	79,805	0	1009,14	4,7	7	6,9	1	1	1	1	1	1	1	1	1	0	1	-65,539112	272,200336	245,731188	0
15.01.2021	02:52:55	0	0	3,050805	1,8555	39,8772	-1,246	79,789	0	1009,18	4,7	7	6,9	1	1	1	1	1	1	1	1	1	0	1	-68,07611	272,154437	242,984297	0
15.01.2021	02:52:56	0	0	4,406718	1,99275	50,7924	-1,247	79,772	0	1009,1	4,7	7	6,9	1	1	1	1	1	1	1	1	1	0	1	-68,357999	272,193579	242,881396	0
15.01.2021	02:52:57	0	0	4,406718	2,09175	31,7772	-1,25	79,742	0	1009,18	4,7	7	6,9	1	1	1	1	1	1	1	1	1	0	1	-64,411557	272,316927	247,392391	0
15.01.2021	02:52:58	0	0	3,728784	2,23425	47,3724	-1,244	79,733	0	1009,12	4,7	7	6,8	1	1	1	1	1	1	1	1	1	0	1	-68,639887	272,258542	242,896743	0
15.01.2021	02:52:59	0	0	3,163798	2,3835	44,4132	-1,248	79,716	0	1009,3	4,6	7	6,9	1	1	1	1	1	1	1	1	1	0	1	-67,230444	272,147697	243,799148	0
15.01.2021	02:53:00	0	0	3,050805	2,655	44,0496	-1,246	79,69	0	1009,16	4,7	7	6,9	1	1	1	1	1	1	1	1	1	0	1	-65,186751	272,138264	245,799722	0
15.01.2021	02:53:01	0	0	3,050805	2,655	44,0496	-1,246	79,69	0	1009,16	4,7	7	6,9	1	1	1	1	1	1	1	1	1	0	1	-65,186751	272,138264	245,799722	0
15.01.2021	02:53:02	0	0	4,745696	3,09675	29,106	-1,248	79,69	0	1009,06	4,7	7	6,9	1	1	1	1	1	1	1	1	1	0	1	-68,005638	272,236863	243,431778	0
15.01.2021	02:53:03	0	0	2,937812	3,43575	32,2704	-1,251	79,681	0	1009,1	4,7	7	6,9	1	1	1	1	1	1	1	1	1	0	1	-67,512333	272,300616	244,216916	0
15.01.2021	02:53:04	0	0	3,728784	3,60225	54,7884	-1,249	79,654	0	1009,1	4,7	6,9	6,8	1	1	1	1	1	1	1	1	1	0	1	-63,424947	272,174673	247,727984	0
15.01.2021	02:53:05	0	0	3,050805	3,4125	57,7548	-1,245	79,662	0	1009,14	4,7	7	6,9	1	1	1	1	1	1	1	1	1	0	1	-66,525722	272,303333	245,21597	0
15.01.2021	02:53:06	0	0	4,519711	3,192	55,1916	-1,258	79,648	0	1009,1	4,7	7	6,9	1	1	1	1	1	1	1	1	1	0	1	-67,0895	272,181423	244,0943	0
15.01.2021	02:53:07	0	0	2,824819	3,04125	34,7184	-1,247	79,656	0	1009,14	4,7	6,9	6,9	1	1	1	1	1	1	1	1	1	0	1	-65,821001	272,13557	245,153157	0
15.01.2021	02:53:08	0	0	4,971682	3,09	37,314	-1,254	79,644	0	1009,06	4,7	7	6,9	1	1	1	1	1	1	1	1	1	0	1	-65,821001	272,176023	245,338103	0
15.01.2021	02:53:09	0	0	3,163816	3,2985	36,2412	-1,256	79,642	0	1009,16	4,7	7	6,8	1	1	1	1	1	1	1	1	1	0	1	-64,693446	272,287034	246,973611	0
15.01.2021	02:53:10	0	0	4,632704	3,255	9,0144	-1,248	79,629	0	1009,04	4,7	7	6,9	1	1	1	1	1	1	1	1	1	0	1	-63,213531	272,29654	248,497055	0
15.01.2021	02:53:11	0	0	4,858689	3,4905	47,3652	-1,25	79,631	0	1009,22	4,7	7	6,9	1	1	1	1	1	1	1	1	1	0	1	-64,270613	272,251765	247,234998	0
15.01.2021	02:53:12	0	0	4,858689	3,59775	27,6732	-1,255	79,603	0	1009	4,7	6,9	6,9	1	1	1	1	1	1	1	1	1	0	1	-65,257223	272,297898	246,459582	0
15.01.2021	02:53:13	0	0	4,06774	3,3765	39,1788	-1,257	79,612	0	1009,12	4,7	7	6,9	1	1	1	1	1	1	1	1	1	0	1	-68,569415	272,163878	242,534155	0
15.01.2021	02:53:14	0	0	4,858718	3,4005	31,392	-1,249	79,609	0	1009,06	4,7	6,9	6,8	1	1	1	1	1	1	1	1	1	0	1	-69,06272	272,293823	242,635426	0
15.01.2021	02:53:15	0	0	4,632704	3,213	71,9892	-1,252	79,6	0	1009,08	4,7	7	6,9	1	1	1	1	1	1	1	1	1	0	1	-66,525722	272,192228	244,707493	0
15.01.2021	02:53:16	0	0	4,971712	2,83725	50,6808	-1,252	79,591	0	1009,12	4,7	6,9	6,8	1	1	1	1	1	1	1	1	1	0	1	-69,133192	272,280246	242,50279	0
15.01.2021	02:53:17	0	0	3,27681	2,91525	57,0312	-1,255	79,606	0	1009,02	4,7	6,9	6,8	1	1	1	1	1	1	1	1	1	0	1	-67,935166	272,265322	243,632498	0
15.01.2021	02:53:18	0	0	5,423685	2,964	47,3544	-1,256	79,591	0	1009,12	4,7	6,9	6,8	1	1	1	1	1	1	1	1	1	0	1	-68,921776	272,304692	242,82614	0
15.01.2021	02:53:19	0	0	3,050823	2,96625	67,6656	-1,261	79,602	0	1009,08	4,7	7	6,8	1	1	1	1	1	1	1	1	1	0	1	-65,398168	272,242281	246,064039	0
15.01.2021	02:53:20	0	0	2,93783	2,79825	67,6728	-1,251	79,604	0	1009,08	4,7	6,9	6,8	1	1	1	1	1	1	1	1	1	0	1	-69,06272	272,131529	241,892969	0
15.01.2021	02:53:21	0	0	2,824819	2,60775	46,5948	-1,258	79,588	0	1008,94	4,7	7,1	6,9	1	1	1	1	1	1	1	1	1	0	1	-72,586328	272,25041	238,913081	0
15.01.2021	02:53:22	0	0	4,406718	2,676	66,9996	-1,256	79,596	0	1009,3	4,7	7	6,9	1	1	1	1	1	1	1	1	1	0	1	-66,173362	272,154437	244,887045	0
15.01.2021	02:53:23	0	0	2,372862	2,82	42,588	-1,259	79,593	0	1009,08	4,7	6,9	6,8	1	1	1	1	1	1	1	1	1	0	1	-62,156448	272,169275	248,971798	0
15.01.2021	02:53:24	0	0	4,858718	2,92575	52,1244	-1,256	79,605	0	1008,98	4,7	6,9	6,8	1	1	1	1	1	1	1	1	1	0	1	-61,945032	272,142306	249,059918	0
15.01.2021	02:53:25	0	0	3,954771	2,87625	66,528	-1,256	79,602	0	1009,2	4,7	7,1	6,8	1	1	1	1	1	1	1	1	1	0	1	-75,052854	272,173323	236,093905	0
15.01.2021	02:53:26	0	0	4,971712	2,53575	65,8584	-1,261	79,598	0	1009,16	4,7	7,1	6,8	1	1	1	1	1	1	1	1	1	0	1	-69,274137	272,163878	241,829434	0
15.01.2021	02:53:27	0	0	3,389803	2,3355	51,0732	-1,255	79,608	0	1009,16	4,7	7,1	6,8	1	1	1	1	1	1	1	1	1	0	1	-67,019027	272,306051	244,735112	0
15.01.2021	02:53:28	0	0	5,084705	2,3385	44,0244	-1,263	79,589	0	1009,1	4,7	7,1	6,8	1	1	1	1	1	1	1	1	1	0	1	-70,965469	272,205743	240,329565	0
15.01.2021	02:53:29	0	0	3,728784	2,59575	45,5256	-1,258	79,597	0	1009,28	4,7	7,1	6,8	1	1	1	1	1	1	1	1	1	0	1	-68,780832	272,274818	242,8303	0
15.01.2021	02:53:30	0	0	4,180732	2,532	37,3068	-1,262	79,584	0	1009,06	4,7	7,1	6,9	1	1	1	1	1	1	1	1	1	0	1	-64,552502	272,306051	247,201638	0
15.01.2021	02:53:31	0	0	2,598849	2,36775	48,8268	-1,259	79,588	0	1009,06	4,7	6,9	6,8	1	1	1	1	1	1	1	1	1	0	1	-64,200141	272,158483	246,878761	0
15.01.2021	02:53:32	0	0	3,61579	2,17275	45,5364	-1,26	79,585	0	1008,92	4,7	6,9	6,8	1	1	1	1	1	1	1	1	1	0	1	-68,146582	272,193579	243,092813	0
15.01.2021	02:53:33	0	0	3,728784	2,04975	56,2824	-1,26	79,585	0	1008,88	4,7	7,1	6,8	1	1	1	1	1	1	1	1	1	0	1	-65,821001	272,126143	245,110071	0
15.01.2021	02:53:34	0	0	3,61579	1,99725	43,6716	-1,262	79,599	0	1009,04	4,7	6,9	6,8	1	1	1	1	1	1	1	1	1	0	1	-67,864693	272,185474	243,337633	0
15.01.2021	02:53:35	0	0	5,423685	1,83975	63,18	-1,264	79,587	0	1009,02	4,7	7	6,8	1	1	1	1	1	1	1	1	1	0	1	-67,0895	272,280246	244,546482	0
15.01.2021	02:53:36	0	0	3,954771	1,6845	54,1404	-1,262	79,59	0	1009,1	4,7	6,9	6,8	1	1	1	1	1	1	1	1	1	0	1	-69,415081	272,291107	242,270628	0
15.01.2021	02:53:37	0	0	4,519738	1,56225	55,6488	-1,26	79,581	0	1009,06	4,7	7,1	6,8	1	1	1	1	1	1	1	1	1	0	1	-72,515856	272,282961	239,132554	0
15.01.2021	02:53:38	0	0	2,711843	1,49925	37,6776	-1,258	79,601	0	1009,16	4,7	7,1	6,8	1	1	1	1	1	1	1	1	1	0	1	-69,415081	272,238217	242,028532	0
15.01.2021	02:53:39	0	0	3,502797	1,53825	44,3952	-1,262	79,608	0	1008,98	4,7	7,1	6,8	1	1	1	1	1	1	1	1	1	0	1	-68,428471	272,122104	242,484144	0
15.01.2021	02:53:40	0	0	2,824836	1,6935	45,1512	-1,266	79,591	0	1009,06	4,7	7,1	6,8	1	1	1	1	1	1	1	1	1	0	1	-66,173362	272,162529	244,924041	0
15.01.2021	02:53:41	0	0	3,502797	1,87425	33,6348	-1,262	79,603	0	1009,16	4,7	6,9	6,8	1	1	1	1	1	1	1	1	1	0	1	-65,46864	272,300616	246,260608	0
15.01.2021	02:53:42	0	0	2,711843	2,097	54,0972	-1,264	79,59	0	1009,1	4,7	6,9	6,8	1	1	1	1	1	1	1	1	1	0	1	-66,525722	272,150393	244,516194	0
15.01.2021	02:53:43	0	0	2,824836	2,19	48,1068	-1,268	79,593	0	1009,14	4,7	7,1	6,8	1	1	1	1	1	1	1	1	1	0	1	-68,357999	272,292465	243,333929	0
15.01.2021	02:53:44	0	0	5,084705	2,73675	50,3892	-1,267	79,598	0	1009,14	4,7	6,9	6,8	1	1	1	1	1	1	1	1	1	0	1	-69,626498	272,25041	241,872912	0
15.01.2021	02:53:45	0	0	3,163816	3,08325	54,7992	-1,272	79,577	0	1009,06	4,7	7,1	6,8	1	1	1	1	1	1	1	1	1	0	1	-67,159972	272,268035	244,420108	0
15.01.2021	02:53:46	0	0	3,61579	3,04575	68,0184	-1,268	79,589	0	1009,1	4,7	6,9	6,8	1	1	1	1	1	1	1	1	1	0	1	-68,921776	272,153089	242,132467	0
15.01.2021	02:53:47	0	0	4,180758	3,0285	67,2732	-1,272	79,586	0	1009,14	4,7	6,9	6,8	1	1	1	1	1	1	1	1	1	0	1	-65,398168	272,25312	246,113647	0
15.01.2021	02:53:48	0	0	4,745725	3,39	56,1096	-1,268	79,57	0	1009,08	4,7	7,1	6,8	1	1	1	1	1	1	1	1	1	0	1	-69,06272	272,273461	242,5422	0
15.01.2021	02:53:49	0	0	4,971712	3,681	60,228	-1,267	79,569	0	1009,14	4,7	6,9	6,8	1	1	1	1	1	1	1	1	1	0	1	-66,807611	272,221973	244,561674	0
15.01.2021	02:53:50	0	0	3,502797	3,85425	60,2388	-1,269	79,569	0	1008,98	4,7	6,9	6,8	1	1	1	1	1	1	1	1	1	0	1	-67,0895	272,119413	243,810812	0
15.01.2021	02:53:51	0	0	3,841777	3,70875	48,6	-1,271	79,58	0	1009,12	4,7	7,1	6,8	1	1	1	1	1	1	1	1	1	0	1	-65,327696	272,22468	246,053972	0
15.01.2021	02:53:52	0	0	4,519738	3,1875	58,1148	-1,272	79,551	0	1009,24	4,7	7,1	6,8	1	1	1	1	1	1	1	1	1	0	1	-64,270613	272,278889	247,359155	0
15.01.2021	02:53:53	0	0	3,27681	2,77575	50,2956	-1,273	79,554	0	1009,14	4,7	7,1	6,8	1	1	1	1	1	1	1	1	1	0	1	-62,579281	272,205743	248,715752	0
15.01.2021	02:53:54	0	0	4,180758	2,65125	80,892	-1,272	79,548	0	1009,1	4,7	7,1	6,8	1	1	1	1	1	1	1	1	1	0	1	-63,143058	272,123451	247,775708	0
15.01.2021	02:53:55	0	0	3,27681	2,5545	45,1548	-1,273	79,539	0	1009,24	4,7	6,9	6,8	1	1	1	1	1	1	1	1	1	0	1	-70,401691	272,249055	241,091516	0
15.01.2021	02:53:56	0	0	3,728784	2,42775	10,818	-1,273	79,531	0	1009,2	4,7	6,9	6,8	1	1	1	1	1	1	1	1	1	0	1	-71,388302	272,159831	239,696767	0
15.01.2021	02:53:57	0	0	3,27681	2,37	32,508	-1,271	79,538	0	1009,24	4,7	7,1	6,8	1	1	1	1	1	1	1	1	1	0	1	-65,045807	272,154437	246,0146	0
15.01.2021	02:53:58	0	0	4,180758	2,322	30,7152	-1,273	79,538	0	1009,12	4,7	6,9	6,8	1	1	1	1	1	1	1	1	1	0	1	-65,891473	272,2477	245,595533	0
15.01.2021	02:53:59	0	0	4,632731	2,3115	40,9932	-1,274	79,545	0	1008,94	4,7	7,1	6,8	1	1	1	1	1	1	1	1	1	0	1	-60,817477	272,254476	250,70054	0
15.01.2021	02:54:00	0	0	5,084705	2,235	42,6024	-1,274	79,555	0	1009,14	4,7	7,1	6,8	1	1	1	1	1	1	1	1	1	0	1	-71,599718	272,107304	239,245259	0
15.01.2021	02:54:01	0	0	5,084705	2,235	42,6024	-1,274	79,555	0	1009,14	4,7	7,1	6,8	1	1	1	1	1	1	1	1	1	0	1	-71,599718	272,107304	239,245259	0
15.01.2021	02:54:02	0	0	4,406744	2,20425	38,2032	-1,277	79,551	0	1009,1	4,7	7,1	6,8	1	1	1	1	1	1	1	1	1	0	1	-65,398168	272,219267	245,958737	0
15.01.2021	02:54:03	0	0	2,711843	2,1375	41,8572	-1,272	79,56	0	1008,84	4,7	7,1	6,8	1	1	1	1	1	1	1	1	1	0	1	-69,837914	272,282961	241,810497	0
15.01.2021	02:54:04	0	0	4,971712	2,00625	47,7612	-1,283	79,563	0	1009,08	4,7	7,1	6,8	1	1	1	1	1	1	1	1	1	0	1	-68,921776	272,243635	242,54663	0
15.01.2021	02:54:05	0	0	2,711843	2,07675	42,9192	-1,276	79,596	0	1009,22	4,7	7,1	6,8	1	1	1	1	1	1	1	1	1	0	1	-67,653277	272,268035	243,926803	0
15.01.2021	02:54:06	0	0	2,485856	2,046	57,0276	-1,278	79,597	0	1009,1	4,7	7,1	6,8	1	1	1	1	1	1	1	1	1	0	1	-67,512333	272,146349	243,511098	0
15.01.2021	02:54:07	0	0	3,61579	1,89375	49,2048	-1,275	79,591	0	1008,92	4,7	7,1	6,8	1	1	1	1	1	1	1	1	1	0	1	-68,921776	272,269391	242,664513	0
15.01.2021	02:54:08	0	0	3,954723	1,71075	58,8528	-1,27	79,605	0	1009,1	4,6	7,1	7	1	1	1	1	1	1	1	1	1	0	1	-69,69697	272,259898	241,845866	0
15.01.2021	02:54:09	0	0	2,824836	1,668	28,1124	-1,277	79,621	0	1009,26	4,7	7,1	6,8	1	1	1	1	1	1	1	1	1	0	1	-66,948555	272,150393	244,093361	0
15.01.2021	02:54:10	0	0	4,067764	1,707	47,3868	-1,273	79,618	0	1009,12	4,7	7,1	6,8	1	1	1	1	1	1	1	1	1	0	1	-65,46864	272,112684	245,400926	0
15.01.2021	02:54:11	0	0	2,711843	1,7565	55,1808	-1,274	79,619	0	1009,06	4,7	7,1	6,8	1	1	1	1	1	1	1	1	1	0	1	-64,975335	272,119413	245,924977	0
15.01.2021	02:54:12	0	0	2,93783	1,8345	65,8404	-1,279	79,622	0	1009,06	4,7	7,1	6,8	1	1	1	1	1	1	1	1	1	0	1	-62,579281	272,126143	248,351791	0
15.01.2021	02:54:13	0	0	3,61579	1,857	59,4972	-1,274	79,628	0	1009,06	4,7	7,1	6,8	1	1	1	1	1	1	1	1	1	0	1	-65,257223	272,216561	246,087303	0
15.01.2021	02:54:14	0	0	3,27681	1,80525	61,3332	-1,275	79,631	0	1009,16	4,7	7,1	6,8	1	1	1	1	1	1	1	1	1	0	1	-67,512333	272,105959	243,326499	0
15.01.2021	02:54:15	0	0	3,61579	1,83675	50,31	-1,278	79,639	0	1009,14	4,7	7,1	6,8	1	1	1	1	1	1	1	1	1	0	1	-65,257223	272,213856	246,074926	0
15.01.2021	02:54:16	0	0	3,502797	1,917	57,7224	-1,281	79,644	0	1009,04	4,7	7,1	6,8	1	1	1	1	1	1	1	1	1	0	1	-69,69697	272,105959	241,141862	0
15.01.2021	02:54:17	0	0	4,745725	1,93575	54,1188	-1,283	79,651	0	1008,96	4,6	6,9	6,8	1	1	1	1	1	1	1	1	1	0	1	-65,327696	272,171973	245,812892	0
15.01.2021	02:54:18	0	0	4,180758	1,9515	50,6808	-1,277	79,661	0	1009,08	4,7	7,1	6,8	1	1	1	1	1	1	1	1	1	0	1	-67,935166	272,276175	243,682178	0
15.01.2021	02:54:19	0	0	3,163816	1,92075	49,5576	-1,277	79,657	0	1009,12	4,7	7,1	6,8	1	1	1	1	1	1	1	1	1	0	1	-68,921776	272,212504	242,404186	0
15.01.2021	02:54:20	0	0	4,971712	1,86675	33,2496	-1,274	79,674	0	1009,26	4,7	7,1	6,8	1	1	1	1	1	1	1	1	1	0	1	-66,102889	272,11403	244,772824	0
15.01.2021	02:54:21	0	0	4,180758	1,98525	47,7684	-1,278	79,649	0	1009,02	4,7	7,1	6,8	1	1	1	1	1	1	1	1	1	0	1	-62,720226	272,154437	248,340181	0
15.01.2021	02:54:22	0	0	3,163816	2,103	46,62	-1,278	79,649	0	1009,08	4,7	7,1	6,8	1	1	1	1	1	1	1	1	1	0	1	-68,217054	272,292465	243,474873	0
15.01.2021	02:54:23	0	0	4,858718	2,355	47,3904	-1,277	79,66	0	1009,22	4,7	6,9	6,8	1	1	1	1	1	1	1	1	1	0	1	-70,68358	272,200336	240,58672	0
15.01.2021	02:54:24	0	0	2,93783	2,538	37,6812	-1,281	79,665	0	1009,18	4,6	7,1	6,8	1	1	1	1	1	1	1	1	1	0	1	-67,582805	272,274818	244,028327	0
15.01.2021	02:54:25	0	0	2,711843	2,541	38,8008	-1,277	79,659	0	1009,08	4,6	7,1	6,8	1	1	1	1	1	1	1	1	1	0	1	-70,68358	272,265322	240,884083	0
15.01.2021	02:54:26	0	0	4,632676	2,742	41,472	-1,278	79,643	0	1009,1	4,7	7,1	7	1	1	1	1	1	1	1	1	1	0	1	-68,217054	272,270748	243,375445	0
15.01.2021	02:54:27	0	0	3,050823	2,72925	7,1352	-1,274	79,648	0	1009,16	4,6	7,1	6,8	1	1	1	1	1	1	1	1	1	0	1	-64,270613	272,126143	246,660459	0
15.01.2021	02:54:28	0	0	3,954771	2,88225	54,7884	-1,287	79,635	0	1009,04	4,7	7,1	6,8	1	1	1	1	1	1	1	1	1	0	1	-65,609584	272,231447	245,803049	0
15.01.2021	02:54:29	0	0	2,824836	3,393	48,1284	-1,281	79,65	0	1009,14	4,7	7,1	6,8	1	1	1	1	1	1	1	1	1	0	1	-61,169838	272,138264	249,816635	0
15.01.2021	02:54:30	0	0	4,406744	3,87375	39,8628	-1,281	79,645	0	1009,22	4,7	7,1	6,8	1	1	1	1	1	1	1	1	1	0	1	-68,780832	272,115375	242,101031	0
15.01.2021	02:54:31	0	0	3,61579	4,047	41,13	-1,284	79,658	0	1009,14	4,7	7,1	6,8	1	1	1	1	1	1	1	1	1	0	1	-66,525722	272,087139	244,227125	0
15.01.2021	02:54:32	0	0	5,084705	4,149	36,954	-1,278	79,657	0	1009,12	4,6	7,1	6,8	1	1	1	1	1	1	1	1	1	0	1	-69,133192	272,26261	242,422056	0
15.01.2021	02:54:33	0	0	4,858718	3,95325	41,004	-1,279	79,674	0	1009,2	4,6	7,1	6,8	1	1	1	1	1	1	1	1	1	0	1	-66,525722	272,249055	244,967485	0
15.01.2021	02:54:34	0	0	4,632731	3,60375	34,722	-1,277	79,67	0	1009,14	4,7	7,1	6,8	1	1	1	1	1	1	1	1	1	0	1	-70,331219	272,157134	240,741518	0
15.01.2021	02:54:35	0	0	4,858718	3,327	40,626	-1,286	79,675	0	1009,1	4,6	7,1	6,8	1	1	1	1	1	1	1	1	1	0	1	-70,331219	272,101924	240,489179	0
15.01.2021	02:54:36	0	0	3,502797	3,07725	34,7112	-1,276	79,678	0	1009,08	4,6	7,1	6,8	1	1	1	1	1	1	1	1	1	0	1	-68,287526	272,213856	243,044623	0
15.01.2021	02:54:37	0	0	3,502797	3,108	29,5632	-1,28	79,687	0	1009	4,7	7,1	6,8	1	1	1	1	1	1	1	1	1	0	1	-71,881607	272,127489	239,055619	0
15.01.2021	02:54:38	0	0	3,163816	2,9895	24,3648	-1,277	79,702	0	1009,26	4,6	7,1	6,8	1	1	1	1	1	1	1	1	1	0	1	-66,102889	272,230094	245,30355	0
15.01.2021	02:54:39	0	0	3,954771	2,781	60,642	-1,28	79,725	0	1009,26	4,6	7,1	6,8	1	1	1	1	1	1	1	1	1	0	1	-68,07611	272,285676	243,584731	0
15.01.2021	02:54:40	0	0	4,745725	2,54775	70,6104	-1,279	79,74	0	1009,2	4,6	7,1	6,8	1	1	1	1	1	1	1	1	1	0	1	-67,300916	272,177373	243,864361	0
15.01.2021	02:54:41	0	0	5,310692	2,32575	54,8064	-1,283	79,744	0	1009,16	4,7	7,1	6,8	1	1	1	1	1	1	1	1	1	0	1	-66,596195	272,108649	244,254929	0
15.01.2021	02:54:42	0	0	5,084705	2,11425	71,2332	-1,286	79,747	0	1009,06	4,6	7,1	6,8	1	1	1	1	1	1	1	1	1	0	1	-70,119803	272,22468	241,261865	0
15.01.2021	02:54:43	0	0	3,728784	1,836	85,1796	-1,281	79,771	0	1009,16	4,6	7,1	6,8	1	1	1	1	1	1	1	1	1	0	1	-65,609584	272,093858	245,17396	0
15.01.2021	02:54:44	0	0	3,050823	1,668	63,8568	-1,28	79,761	0	1009,2	4,6	7	6,8	1	1	1	1	1	1	1	1	1	0	1	-66,314306	272,189526	244,906553	0
15.01.2021	02:54:45	0	0	4,745725	1,57575	63,4788	-1,281	79,779	0	1009,14	4,6	7,1	6,8	1	1	1	1	1	1	1	1	1	0	1	-66,948555	272,273461	244,656365	0
15.01.2021	02:54:46	0	0	4,180758	1,50975	67,6512	-1,284	79,787	0	1009,08	4,7	7,1	6,8	1	1	1	1	1	1	1	1	1	0	1	-65,821001	272,217914	245,529714	0
15.01.2021	02:54:47	0	0	3,502797	1,3545	64,6272	-1,285	79,808	0	1009,12	4,6	7,1	6,8	1	1	1	1	1	1	1	1	1	0	1	-63,424947	272,257187	248,105479	0
15.01.2021	02:54:48	0	0	5,423685	1,2435	52,8768	-1,29	79,82	0	1009,16	4,6	7,1	6,8	1	1	1	1	1	1	1	1	1	0	1	-68,780832	272,217914	242,569883	0
15.01.2021	02:54:49	0	0	3,502797	1,14675	38,0664	-1,279	79,843	0	1009,08	4,7	6,9	6,8	1	1	1	1	1	1	1	1	1	0	1	-66,878083	272,107304	243,966894	0
15.01.2021	02:54:50	0	0	3,163816	1,11225	48,8196	-1,277	79,851	0	1009,12	4,6	7,1	6,8	1	1	1	1	1	1	1	1	1	0	1	-62,156448	272,198984	249,10767	0
15.01.2021	02:54:51	0	0	4,519738	1,1415	52,9056	-1,275	79,868	0	1009,18	4,6	7,1	6,8	1	1	1	1	1	1	1	1	1	0	1	-68,217054	272,088483	242,541932	0
15.01.2021	02:54:52	0	0	4,971712	1,314	45,144	-1,284	79,873	0	1009,22	4,7	7,1	6,8	1	1	1	1	1	1	1	1	1	0	1	-69,69697	272,153089	241,357273	0
15.01.2021	02:54:53	0	0	3,27681	1,602	48,1212	-1,284	79,857	0	1008,96	4,6	7,1	6,8	1	1	1	1	1	1	1	1	1	0	1	-64,83439	272,101924	245,986008	0
15.01.2021	02:54:54	0	0	3,954771	2,1645	47,736	-1,278	79,859	0	1009,14	4,6	7,1	6,8	1	1	1	1	1	1	1	1	1	0	1	-69,978858	272,200336	241,291442	0
15.01.2021	02:54:55	0	0	2,485856	2,98575	38,4192	-1,275	79,891	0	1009,18	4,6	7,1	6,8	1	1	1	1	1	1	1	1	1	0	1	-67,019027	272,269391	244,567262	0
15.01.2021	02:54:56	0	0	2,711843	3,3105	45,846	-1,276	79,895	0	1009,28	4,6	7	6,8	1	1	1	1	1	1	1	1	1	0	1	-65,961945	272,230094	245,444494	0
15.01.2021	02:54:57	0	0	4,745725	3,72	50,6844	-1,278	79,889	0	1009,04	4,7	7,1	6,8	1	1	1	1	1	1	1	1	1	0	1	-66,102889	272,093858	244,680655	0
15.01.2021	02:54:58	0	0	4,406744	3,684	50,292	-1,279	79,9	0	1009,08	4,6	7	6,8	1	1	1	1	1	1	1	1	1	0	1	-64,975335	272,213856	246,356815	0
15.01.2021	02:54:59	0	0	3,27679	3,48375	49,5648	-1,279	79,918	0	1009,18	4,7	7,1	6,9	1	1	1	1	1	1	1	1	1	0	1	-64,83439	272,258542	246,70224	0
15.01.2021	02:55:00	0	0	3,050823	3,19575	61,308	-1,275	79,935	0	1009,14	4,6	7,1	6,8	1	1	1	1	1	1	1	1	1	0	1	-67,230444	272,080423	243,49172	0
15.01.2021	02:55:01	0	0	3,050823	3,19575	61,308	-1,275	79,935	0	1009,14	4,6	7,1	6,8	1	1	1	1	1	1	1	1	1	0	1	-67,230444	272,080423	243,49172	0
15.01.2021	02:55:02	0	0	4,519738	3,17325	38,7828	-1,279	79,938	0	1009,16	4,6	7	6,8	1	1	1	1	1	1	1	1	1	0	1	-66,102889	272,215209	245,235448	0
15.01.2021	02:55:03	0	0	4,180758	3,426	52,1208	-1,277	79,948	0	1009,3	4,6	7,1	6,8	1	1	1	1	1	1	1	1	1	0	1	-66,173362	272,25312	245,338453	0
15.01.2021	02:55:04	0	0	4,745725	3,5805	57,0348	-1,275	79,949	0	1009,1	4,6	7,1	6,8	1	1	1	1	1	1	1	1	1	0	1	-66,314306	272,173323	244,832454	0
15.01.2021	02:55:05	0	0	4,971712	3,83175	54,792	-1,274	79,964	0	1009,24	4,6	7	6,8	1	1	1	1	1	1	1	1	1	0	1	-62,367865	272,26261	249,187384	0
15.01.2021	02:55:06	0	0	4,745725	3,963	52,1316	-1,277	79,951	0	1009,06	4,6	7,1	6,8	1	1	1	1	1	1	1	1	1	0	1	-64,622974	272,163878	246,480596	0
15.01.2021	02:55:07	0	0	3,954771	4,2525	57,3984	-1,278	79,964	0	1009,14	4,6	7,1	6,8	1	1	1	1	1	1	1	1	1	0	1	-69,626498	272,259898	241,916339	0
15.01.2021	02:55:08	0	0	2,93783	4,041	51,8112	-1,278	79,95	0	1009,14	4,6	7	6,8	1	1	1	1	1	1	1	1	1	0	1	-66,807611	272,170624	244,326806	0
15.01.2021	02:55:09	0	0	3,502797	3,876	42,5808	-1,276	79,959	0	1009,26	4,6	7	6,8	1	1	1	1	1	1	1	1	1	0	1	-68,287526	272,089827	242,477598	0
15.01.2021	02:55:10	0	0	5,084705	4,02525	57,7548	-1,274	79,954	0	1009,14	4,6	7	6,8	1	1	1	1	1	1	1	1	1	0	1	-69,06272	272,203039	242,219945	0
15.01.2021	02:55:11	0	0	3,050823	4,05075	65,106	-1,272	79,949	0	1009,16	4,6	7,1	6,8	1	1	1	1	1	1	1	1	1	0	1	-66,384778	272,273461	245,220142	0
15.01.2021	02:55:12	0	0	4,632676	3,76125	56,682	-1,28	79,964	0	1009,08	4,6	7	7	1	1	1	1	1	1	1	1	1	0	1	-67,512333	272,209799	243,801257	0
15.01.2021	02:55:13	0	0	3,050805	3,38175	58,4928	-1,27	79,978	0	1009,24	4,6	7,1	6,9	1	1	1	1	1	1	1	1	1	0	1	-69,978858	272,261254	241,570184	0
15.01.2021	02:55:14	0	0	4,06774	3,1155	36,2412	-1,283	80,002	0	1009,12	4,6	7	6,9	1	1	1	1	1	1	1	1	1	0	1	-64,059197	272,184124	247,136954	0
15.01.2021	02:55:15	0	0	2,93783	2,83125	27,6696	-1,278	80,024	0	1009,14	4,6	7,1	6,8	1	1	1	1	1	1	1	1	1	0	1	-64,904863	272,095202	245,884823	0
15.01.2021	02:55:16	0	0	4,858718	2,694	18,09	-1,279	80,037	0	1009,14	4,6	7	6,8	1	1	1	1	1	1	1	1	1	0	1	-71,176885	272,226033	240,210975	0
15.01.2021	02:55:17	0	0	2,824819	2,66025	34,7076	-1,273	80,05	0	1009,04	4,6	7	6,9	1	1	1	1	1	1	1	1	1	0	1	-68,428471	272,10058	242,385784	0
15.01.2021	02:55:18	0	0	5,31066	2,625	17,7048	-1,271	80,054	0	1009,08	4,6	7	6,9	1	1	1	1	1	1	1	1	1	0	1	-65,680056	272,236863	245,75736	0
15.01.2021	02:55:19	0	0	4,519738	2,46825	45,5508	-1,275	80,125	0	1009,1	4,6	7,1	6,8	1	1	1	1	1	1	1	1	1	0	1	-67,794221	272,136917	243,186094	0
15.01.2021	02:55:20	0	0	4,06774	2,30175	26,5248	-1,272	80,066	0	1009,18	4,6	7	6,9	1	1	1	1	1	1	1	1	1	0	1	-69,556025	272,119413	241,344287	0
15.01.2021	02:55:21	0	0	4,858718	2,17575	39,5604	-1,267	80,073	0	1009,1	4,6	7	6,8	1	1	1	1	1	1	1	1	1	0	1	-69,274137	272,254476	242,243881	0
15.01.2021	02:55:22	0	0	2,711843	1,974	31,4136	-1,269	80,071	0	1009,08	4,6	7	6,8	1	1	1	1	1	1	1	1	1	0	1	-67,159972	272,126143	243,7711	0
15.01.2021	02:55:23	0	0	2,824836	1,80825	34,362	-1,27	80,066	0	1009,2	4,6	7	6,8	1	1	1	1	1	1	1	1	1	0	1	-68,146582	272,266678	243,427289	0
15.01.2021	02:55:24	0	0	4,519738	1,707	36,6264	-1,269	80,104	0	1009,1	4,6	7	6,8	1	1	1	1	1	1	1	1	1	0	1	-69,767442	272,158483	241,311461	0
15.01.2021	02:55:25	0	0	3,841777	1,659	38,0736	-1,268	80,104	0	1009,02	4,7	7	6,8	1	1	1	1	1	1	1	1	1	0	1	-67,512333	272,104614	243,320354	0
15.01.2021	02:55:26	0	0	4,519711	1,7055	40,9032	-1,265	80,12	0	1009,1	4,6	7	6,9	1	1	1	1	1	1	1	1	1	0	1	-68,428471	272,24499	243,046135	0
15.01.2021	02:55:27	0	0	3,502797	1,74975	39,1644	-1,268	80,121	0	1009,22	4,6	7,1	6,8	1	1	1	1	1	1	1	1	1	0	1	-69,133192	272,263966	242,428263	0
15.01.2021	02:55:28	0	0	3,954747	1,76925	31,0176	-1,267	80,126	0	1009,08	4,6	7	6,9	1	1	1	1	1	1	1	1	1	0	1	-70,542636	272,272104	241,056074	0
15.01.2021	02:55:29	0	0	2,824819	1,7565	35,0928	-1,269	80,138	0	1009,08	4,6	7	6,9	1	1	1	1	1	1	1	1	1	0	1	-67,300916	272,263966	244,26054	0
15.01.2021	02:55:30	0	0	4,858718	1,7445	24,3468	-1,267	80,15	0	1009,16	4,6	7	6,8	1	1	1	1	1	1	1	1	1	0	1	-66,102889	272,276175	245,514454	0
15.01.2021	02:55:31	0	0	3,27679	1,6095	36,2628	-1,264	80,156	0	1009,04	4,6	7	6,9	1	1	1	1	1	1	1	1	1	0	1	-67,300916	272,226033	244,086944	0
15.01.2021	02:55:32	0	0	3,728761	1,68825	41,4648	-1,265	80,159	0	1009,2	4,6	7	6,9	1	1	1	1	1	1	1	1	1	0	1	-65,891473	272,126143	245,039599	0
15.01.2021	02:55:33	0	0	4,293751	1,947	62,0388	-1,267	80,166	0	1009,06	4,6	7	6,8	1	1	1	1	1	1	1	1	1	0	1	-66,737139	272,182773	244,452836	0
15.01.2021	02:55:34	0	0	4,293725	2,094	66,5424	-1,257	80,172	0	1009,14	4,6	7	6,9	1	1	1	1	1	1	1	1	1	0	1	-65,961945	272,105959	244,876887	0
15.01.2021	02:55:35	0	0	3,728739	2,2845	31,0284	-1,264	80,181	0	1009,12	4,6	7	7	1	1	1	1	1	1	1	1	1	0	1	-65,327696	272,22468	246,053972	0
15.01.2021	02:55:36	0	0	3,61579	2,42475	37,2996	-1,258	80,184	0	1009,2	4,6	7	6,8	1	1	1	1	1	1	1	1	1	0	1	-70,260747	272,101924	240,559651	0
15.01.2021	02:55:37	0	0	2,711826	2,54775	37,7496	-1,257	80,193	0	1009,24	4,6	7	6,9	1	1	1	1	1	1	1	1	1	0	1	-66,525722	272,213856	244,806427	0
15.01.2021	02:55:38	0	0	3,954747	2,55825	27,6696	-1,25	80,21	0	1009,22	4,6	7	6,9	1	1	1	1	1	1	1	1	1	0	1	-66,948555	272,109994	243,908715	0
15.01.2021	02:55:39	0	0	5,084675	2,76375	42,2136	-1,256	80,23	0	1009,2	4,6	7	6,9	1	1	1	1	1	1	1	1	1	0	1	-67,794221	272,197633	243,463715	0
15.01.2021	02:55:40	0	0	4,632704	2,93925	57,0492	-1,255	80,229	0	1009,16	4,7	7	6,9	1	1	1	1	1	1	1	1	1	0	1	-64,693446	272,282961	246,954964	0
15.01.2021	02:55:41	0	0	4,632704	3,12525	54,09	-1,252	80,249	0	1009,2	4,6	7	6,9	1	1	1	1	1	1	1	1	1	0	1	-67,653277	272,26261	243,901972	0
15.01.2021	02:55:42	0	0	3,389783	3,054	53,334	-1,258	80,249	0	1009,18	4,6	7	6,9	1	1	1	1	1	1	1	1	1	0	1	-64,83439	272,13557	246,139767	0
15.01.2021	02:55:43	0	0	4,406744	2,93175	61,6752	-1,252	80,267	0	1009,26	4,6	7	6,8	1	1	1	1	1	1	1	1	1	0	1	-68,639887	272,215209	242,69845	0
15.01.2021	02:55:44	0	0	2,711826	2,841	66,204	-1,252	80,281	0	1009,12	4,7	7	6,9	1	1	1	1	1	1	1	1	1	0	1	-67,44186	272,11403	243,433853	0
15.01.2021	02:55:45	0	0	3,27681	2,6145	45,5472	-1,253	80,285	0	1009,08	4,7	7	6,8	1	1	1	1	1	1	1	1	1	0	1	-65,750529	272,147697	245,279063	0
15.01.2021	02:55:46	0	0	4,406718	2,3655	34,7148	-1,252	80,285	0	1009,14	4,7	7	6,9	1	1	1	1	1	1	1	1	1	0	1	-64,129669	272,255831	247,394553	0
15.01.2021	02:55:47	0	0	3,389783	2,18175	28,3644	-1,251	80,295	0	1009,22	4,7	7	6,9	1	1	1	1	1	1	1	1	1	0	1	-71,67019	272,22874	239,730055	0
15.01.2021	02:55:48	0	0	3,27681	2,15025	43,686	-1,249	80,289	0	1009,08	4,6	7	6,8	1	1	1	1	1	1	1	1	1	0	1	-67,512333	272,103269	243,314209	0
15.01.2021	02:55:49	0	0	3,728784	2,15925	47,7504	-1,242	80,286	0	1009,1	4,7	7	6,8	1	1	1	1	1	1	1	1	1	0	1	-64,270613	272,207095	247,030605	0
15.01.2021	02:55:50	0	0	2,824836	2,1165	45,846	-1,247	80,28	0	1009,1	4,7	7	6,8	1	1	1	1	1	1	1	1	1	0	1	-66,243834	272,280246	245,392148	0
15.01.2021	02:55:51	0	0	2,93783	1,9995	38,8044	-1,248	80,265	0	1009	4,7	7	6,8	1	1	1	1	1	1	1	1	1	0	1	-68,217054	272,257187	243,313372	0
15.01.2021	02:55:52	0	0	3,502797	1,986	51,1416	-1,244	80,266	0	1009,18	4,6	7	6,8	1	1	1	1	1	1	1	1	1	0	1	-66,525722	272,281603	245,116474	0
15.01.2021	02:55:53	0	0	3,389783	1,95975	44,3772	-1,247	80,236	0	1009,12	4,7	7	6,9	1	1	1	1	1	1	1	1	1	0	1	-66,737139	272,221973	244,632146	0
15.01.2021	02:55:54	0	0	3,728761	1,986	62,802	-1,243	80,231	0	1009,2	4,6	7	6,9	1	1	1	1	1	1	1	1	1	0	1	-66,45525	272,107304	244,389727	0
15.01.2021	02:55:55	0	0	2,711843	1,962	38,7972	-1,242	80,222	0	1009,12	4,7	7	6,8	1	1	1	1	1	1	1	1	1	0	1	-64,83439	272,171973	246,306198	0
15.01.2021	02:55:56	0	0	3,61579	2,142	45,8388	-1,249	80,225	0	1009,14	4,7	7	6,8	1	1	1	1	1	1	1	1	1	0	1	-69,203665	272,115375	241,678198	0
15.01.2021	02:55:57	0	0	3,841754	2,4165	49,9464	-1,245	80,206	0	1009,16	4,7	7	6,9	1	1	1	1	1	1	1	1	1	0	1	-64,763918	272,22874	246,636327	0
15.01.2021	02:55:58	0	0	2,824836	2,51325	45,54	-1,24	80,205	0	1009,2	4,7	7	6,8	1	1	1	1	1	1	1	1	1	0	1	-68,357999	272,278889	243,27177	0
15.01.2021	02:55:59	0	0	4,858689	2,5065	42,6204	-1,243	80,21	0	1009,18	4,7	7	6,9	1	1	1	1	1	1	1	1	1	0	1	-64,693446	272,213856	246,638704	0
15.01.2021	02:56:00	0	0	4,180732	2,619	46,6056	-1,242	80,212	0	1009,2	4,7	7	6,9	1	1	1	1	1	1	1	1	1	0	1	-66,243834	272,190877	244,983203	0
15.01.2021	02:56:01	0	0	4,180732	2,619	46,6056	-1,242	80,212	0	1009,2	4,7	7	6,9	1	1	1	1	1	1	1	1	1	0	1	-66,243834	272,190877	244,983203	0
15.01.2021	02:56:02	0	0	2,824819	2,55525	38,8008	-1,237	80,226	0	1009,2	4,6	7	6,9	1	1	1	1	1	1	1	1	1	0	1	-67,935166	272,108649	242,915958	0
15.01.2021	02:56:03	0	0	2,598834	2,3955	46,944	-1,242	80,203	0	1009,04	4,7	7	6,9	1	1	1	1	1	1	1	1	1	0	1	-66,596195	272,154437	244,464212	0
15.01.2021	02:56:04	0	0	3,841754	2,40675	39,186	-1,234	80,226	0	1009,1	4,7	7	6,9	1	1	1	1	1	1	1	1	1	0	1	-66,525722	272,288391	245,147552	0
15.01.2021	02:56:05	0	0	5,536646	2,529	42,2208	-1,238	80,222	0	1009,18	4,7	7	6,9	1	1	1	1	1	1	1	1	1	0	1	-66,737139	272,259898	244,805697	0
15.01.2021	02:56:06	0	0	4,180732	2,79225	50,2956	-1,236	80,231	0	1009,2	4,7	7	6,9	1	1	1	1	1	1	1	1	1	0	1	-71,529246	272,147697	239,500346	0
15.01.2021	02:56:07	0	0	5,084675	2,78325	26,5248	-1,237	80,221	0	1009,12	4,7	7	6,9	1	1	1	1	1	1	1	1	1	0	1	-71,458774	272,266678	240,115098	0
15.01.2021	02:56:08	0	0	3,389783	2,8185	32,5116	-1,237	80,23	0	1009,18	4,7	7	6,9	1	1	1	1	1	1	1	1	1	0	1	-65,680056	272,22468	245,701611	0
15.01.2021	02:56:09	0	0	3,389783	2,8545	45,8352	-1,24	80,206	0	1009,1	4,7	7	6,9	1	1	1	1	1	1	1	1	1	0	1	-67,300916	272,182773	243,889058	0
15.01.2021	02:56:10	0	0	2,937812	2,877	41,022	-1,233	80,22	0	1009,28	4,7	7	6,9	1	1	1	1	1	1	1	1	1	0	1	-70,894996	272,272104	240,703713	0
15.01.2021	02:56:11	0	0	3,163798	2,859	38,412	-1,237	80,19	0	1009,2	4,7	7	6,9	1	1	1	1	1	1	1	1	1	0	1	-69,133192	272,147697	241,896399	0
15.01.2021	02:56:12	0	0	3,954747	2,835	39,1608	-1,237	80,192	0	1009,04	4,7	7	6,9	1	1	1	1	1	1	1	1	1	0	1	-63,777308	272,280246	247,858674	0
15.01.2021	02:56:13	0	0	4,06774	2,73	40,6188	-1,235	80,194	0	1009,18	4,7	7	6,9	1	1	1	1	1	1	1	1	1	0	1	-63,84778	272,139611	247,144851	0
15.01.2021	02:56:14	0	0	3,954747	2,61	45,5292	-1,229	80,194	0	1009,24	4,7	7	6,9	1	1	1	1	1	1	1	1	1	0	1	-68,146582	272,128836	242,796797	0
15.01.2021	02:56:15	0	0	2,824819	2,4285	55,926	-1,232	80,181	0	1009,2	4,7	7	6,9	1	1	1	1	1	1	1	1	1	0	1	-67,371388	272,207095	243,92983	0
15.01.2021	02:56:16	0	0	2,485841	2,50425	49,2084	-1,232	80,169	0	1009,18	4,7	7	6,9	1	1	1	1	1	1	1	1	1	0	1	-65,116279	272,29654	246,594306	0
15.01.2021	02:56:17	0	0	3,27679	2,598	46,5984	-1,23	80,182	0	1009,24	4,7	7	6,9	1	1	1	1	1	1	1	1	1	0	1	-67,0895	272,22874	244,310746	0
15.01.2021	02:56:18	0	0	3,163798	2,7735	46,2132	-1,23	80,181	0	1009,28	4,7	7,1	6,9	1	1	1	1	1	1	1	1	1	0	1	-68,498943	272,123451	242,419824	0
15.01.2021	02:56:19	0	0	3,954747	2,724	46,98	-1,238	80,157	0	1009,14	4,7	7	6,9	1	1	1	1	1	1	1	1	1	0	1	-65,46864	272,146349	245,554791	0
15.01.2021	02:56:20	0	0	4,971682	2,5545	32,4972	-1,239	80,164	0	1009,22	4,7	7	6,9	1	1	1	1	1	1	1	1	1	0	1	-70,049331	272,116721	240,838681	0
15.01.2021	02:56:21	0	0	4,858689	2,463	46,2348	-1,233	80,159	0	1009,28	4,6	7,1	6,9	1	1	1	1	1	1	1	1	1	0	1	-68,569415	272,24499	242,90519	0
15.01.2021	02:56:22	0	0	3,389783	2,4285	51,4476	-1,224	80,141	0	1009,12	4,7	7	6,9	1	1	1	1	1	1	1	1	1	0	1	-70,331219	272,281603	241,310977	0
15.01.2021	02:56:23	0	0	3,615769	2,42175	48,132	-1,228	80,145	0	1009,36	4,7	7	6,9	1	1	1	1	1	1	1	1	1	0	1	-69,203665	272,242281	242,258542	0
15.01.2021	02:56:24	0	0	3,954747	2,421	62,4168	-1,226	80,134	0	1009,22	4,7	7	6,9	1	1	1	1	1	1	1	1	1	0	1	-68,780832	272,278889	242,848937	0
15.01.2021	02:56:25	0	0	4,971682	2,86425	57,7224	-1,227	80,12	0	1009,28	4,7	7	6,9	1	1	1	1	1	1	1	1	1	0	1	-68,217054	272,234155	243,20797	0
15.01.2021	02:56:26	0	0	3,163798	3,49275	56,682	-1,228	80,134	0	1009,12	4,7	7	6,9	1	1	1	1	1	1	1	1	1	0	1	-68,569415	272,115375	242,312447	0
15.01.2021	02:56:27	0	0	3,389783	3,75375	62,4024	-1,225	80,123	0	1009,18	4,7	7	6,9	1	1	1	1	1	1	1	1	1	0	1	-67,582805	272,178723	243,588646	0
15.01.2021	02:56:28	0	0	3,841754	3,68925	66,2076	-1,224	80,111	0	1009,06	4,7	7,1	6,9	1	1	1	1	1	1	1	1	1	0	1	-65,398168	272,108649	245,452956	0
15.01.2021	02:56:29	0	0	2,824819	3,80475	59,868	-1,222	80,103	0	1009,02	4,7	7	6,9	1	1	1	1	1	1	1	1	1	0	1	-68,710359	272,205743	242,584674	0
15.01.2021	02:56:30	0	0	4,632704	3,65625	60,5484	-1,223	80,095	0	1009,12	4,7	7	6,9	1	1	1	1	1	1	1	1	1	0	1	-67,159972	272,097891	243,641997	0
15.01.2021	02:56:31	0	0	4,745696	3,294	57,4164	-1,226	80,089	0	1009,2	4,7	7	6,9	1	1	1	1	1	1	1	1	1	0	1	-70,613108	272,204391	240,675741	0
15.01.2021	02:56:32	0	0	2,711826	3,201	38,0736	-1,223	80,082	0	1009,14	4,7	7,1	6,9	1	1	1	1	1	1	1	1	1	0	1	-66,596195	272,10058	244,21806	0
15.01.2021	02:56:33	0	0	3,728761	3,3585	48,1212	-1,221	80,076	0	1009,28	4,7	7,1	6,9	1	1	1	1	1	1	1	1	1	0	1	-66,032417	272,208447	245,274986	0
15.01.2021	02:56:34	0	0	4,293725	3,525	48,1356	-1,224	80,076	0	1009,26	4,7	7,1	6,9	1	1	1	1	1	1	1	1	1	0	1	-64,270613	272,272104	247,328096	0
15.01.2021	02:56:35	0	0	4,293725	3,76575	39,5496	-1,221	80,069	0	1009,14	4,7	7	6,9	1	1	1	1	1	1	1	1	1	0	1	-67,300916	272,208447	244,006487	0
15.01.2021	02:56:36	0	0	3,954747	3,6465	52,8732	-1,223	80,052	0	1009,28	4,7	7,1	6,9	1	1	1	1	1	1	1	1	1	0	1	-65,045807	272,119413	245,854505	0
15.01.2021	02:56:37	0	0	4,632704	3,465	53,748	-1,219	80,068	0	1009,06	4,7	7,1	6,9	1	1	1	1	1	1	1	1	1	0	1	-67,300916	272,189526	243,919942	0
15.01.2021	02:56:38	0	0	3,502776	3,501	55,9152	-1,218	80,074	0	1009,14	4,7	7,1	6,9	1	1	1	1	1	1	1	1	1	0	1	-67,512333	272,284318	244,142293	0
15.01.2021	02:56:39	0	0	4,745725	3,59625	54,108	-1,22	80,075	0	1009,24	4,7	7	6,8	1	1	1	1	1	1	1	1	1	0	1	-66,243834	272,170624	244,890583	0
15.01.2021	02:56:40	0	0	4,180758	3,594	58,4856	-1,22	80,049	0	1009,12	4,7	7	6,8	1	1	1	1	1	1	1	1	1	0	1	-65,186751	272,29654	246,523834	0
15.01.2021	02:56:41	0	0	4,971682	3,5325	51,4332	-1,219	80,063	0	1009,18	4,7	7	6,9	1	1	1	1	1	1	1	1	1	0	1	-67,512333	272,215209	243,826005	0
15.01.2021	02:56:42	0	0	4,180732	3,51675	44,7732	-1,224	80,059	0	1008,98	4,7	7,1	6,9	1	1	1	1	1	1	1	1	1	0	1	-66,948555	272,282961	244,699855	0
15.01.2021	02:56:43	0	0	5,084675	3,486	31,4136	-1,22	80,052	0	1008,92	4,7	7,1	6,9	1	1	1	1	1	1	1	1	1	0	1	-65,609584	272,217914	245,741131	0
15.01.2021	02:56:44	0	0	4,971712	3,4815	54,1044	-1,218	80,062	0	1009,1	4,7	7	6,8	1	1	1	1	1	1	1	1	1	0	1	-66,737139	272,292465	244,954788	0
15.01.2021	02:56:45	0	0	4,180758	3,333	48,51	-1,222	80,082	0	1009,1	4,7	7,1	6,8	1	1	1	1	1	1	1	1	1	0	1	-67,723749	272,176023	243,435355	0
15.01.2021	02:56:46	0	0	4,858689	3,16275	54,7848	-1,217	80,098	0	1009,22	4,7	7,1	6,9	1	1	1	1	1	1	1	1	1	0	1	-64,622974	272,128836	246,320406	0
15.01.2021	02:56:47	0	0	3,389783	3,135	51,0588	-1,223	80,087	0	1009	4,7	7,1	6,9	1	1	1	1	1	1	1	1	1	0	1	-67,159972	272,217914	244,190743	0
15.01.2021	02:56:48	0	0	3,502776	3,0195	46,9944	-1,217	80,1	0	1009,24	4,7	7,1	6,9	1	1	1	1	1	1	1	1	1	0	1	-67,300916	272,108649	243,550208	0
15.01.2021	02:56:49	0	0	4,519738	2,92125	39,1608	-1,221	80,101	0	1009,16	4,7	7	6,8	1	1	1	1	1	1	1	1	1	0	1	-69,203665	272,201687	242,072818	0
15.01.2021	02:56:50	0	0	4,519738	2,70675	35,4888	-1,219	80,098	0	1009,16	4,7	7,1	6,8	1	1	1	1	1	1	1	1	1	0	1	-65,398168	272,306051	246,355972	0
15.01.2021	02:56:51	0	0	4,858689	2,343	35,478	-1,218	80,099	0	1009,1	4,7	7,1	6,9	1	1	1	1	1	1	1	1	1	0	1	-71,529246	272,239572	239,920564	0
15.01.2021	02:56:52	0	0	4,745725	2,23575	30,3408	-1,212	80,099	0	1009,16	4,7	7,1	6,8	1	1	1	1	1	1	1	1	1	0	1	-67,794221	272,128836	243,149158	0
15.01.2021	02:56:53	0	0	4,632731	2,17725	35,8596	-1,216	80,1	0	1009,16	4,7	7,1	6,8	1	1	1	1	1	1	1	1	1	0	1	-67,582805	272,236863	243,854611	0
15.01.2021	02:56:54	0	0	4,858718	2,08275	51,066	-1,218	80,076	0	1009,06	4,7	7	6,8	1	1	1	1	1	1	1	1	1	0	1	-72,515856	272,120758	238,390607	0
15.01.2021	02:56:55	0	0	4,067764	2,0505	50,3028	-1,216	80,091	0	1009,2	4,7	7,1	6,8	1	1	1	1	1	1	1	1	1	0	1	-67,582805	272,231447	243,829829	0
15.01.2021	02:56:56	0	0	4,293751	2,11275	55,5588	-1,21	80,098	0	1009,08	4,7	7,1	6,8	1	1	1	1	1	1	1	1	1	0	1	-69,133192	272,127489	241,804033	0
15.01.2021	02:56:57	0	0	4,971712	2,22825	52,5168	-1,212	80,119	0	1009,08	4,7	7	6,8	1	1	1	1	1	1	1	1	1	0	1	-62,790698	272,198984	248,47342	0
15.01.2021	02:56:58	0	0	4,745725	2,394	44,4096	-1,215	80,102	0	1009,12	4,7	7,1	6,8	1	1	1	1	1	1	1	1	1	0	1	-68,428471	272,303333	243,313222	0
15.01.2021	02:56:59	0	0	3,954747	2,619	45,864	-1,212	80,108	0	1009,1	4,7	7,1	6,9	1	1	1	1	1	1	1	1	1	0	1	-69,837914	272,289749	241,841577	0
15.01.2021	02:57:00	0	0	3,389803	3,06975	38,772	-1,217	80,109	0	1009,02	4,7	7,1	6,8	1	1	1	1	1	1	1	1	1	0	1	-67,582805	272,159831	243,502264	0
15.01.2021	02:57:01	0	0	3,389803	3,06975	38,772	-1,217	80,109	0	1009,02	4,7	7,1	6,8	1	1	1	1	1	1	1	1	1	0	1	-67,582805	272,159831	243,502264	0
15.01.2021	02:57:02	0	0	3,954771	3,1485	26,928	-1,21	80,125	0	1009,44	4,7	7,1	6,8	1	1	1	1	1	1	1	1	1	0	1	-66,45525	272,16118	244,635985	0
15.01.2021	02:57:03	0	0	3,841777	3,1935	25,8048	-1,212	80,12	0	1009,28	4,7	7,1	6,8	1	1	1	1	1	1	1	1	1	0	1	-71,035941	272,30741	240,724423	0
15.01.2021	02:57:04	0	0	4,858718	3,27	32,1444	-1,211	80,141	0	1009,22	4,7	7,1	6,8	1	1	1	1	1	1	1	1	1	0	1	-70,401691	272,167925	240,720385	0
15.01.2021	02:57:05	0	0	4,745725	3,2505	38,8008	-1,211	80,14	0	1009,38	4,7	7,1	6,8	1	1	1	1	1	1	1	1	1	0	1	-68,005638	272,322367	243,823227	0
15.01.2021	02:57:06	0	0	4,745725	2,95275	16,8624	-1,212	80,156	0	1009,24	4,7	7,1	6,8	1	1	1	1	1	1	1	1	1	0	1	-68,146582	272,146349	242,876848	0
15.01.2021	02:57:07	0	0	5,423685	2,772	27,288	-1,208	80,166	0	1009,24	4,7	7,1	6,8	1	1	1	1	1	1	1	1	1	0	1	-70,331219	272,284318	241,323406	0
15.01.2021	02:57:08	0	0	3,615769	2,84475	39,9456	-1,207	80,166	0	1009,26	4,6	7,1	6,9	1	1	1	1	1	1	1	1	1	0	1	-68,992248	272,173323	242,154511	0
15.01.2021	02:57:09	0	0	2,824836	3,18675	38,8152	-1,201	80,184	0	1009,22	4,7	7,1	6,8	1	1	1	1	1	1	1	1	1	0	1	-68,428471	272,147697	242,601121	0
15.01.2021	02:57:10	0	0	3,389803	3,5475	34,3512	-1,203	80,191	0	1009,18	4,7	7,1	6,8	1	1	1	1	1	1	1	1	1	0	1	-65,186751	272,177373	245,978526	0
15.01.2021	02:57:11	0	0	3,389803	3,6075	41,8392	-1,202	80,168	0	1009,24	4,7	7,1	6,8	1	1	1	1	1	1	1	1	1	0	1	-66,737139	272,186825	244,471364	0
15.01.2021	02:57:12	0	0	3,841777	3,27225	48,24	-1,204	80,178	0	1009,2	4,6	7,1	6,8	1	1	1	1	1	1	1	1	1	0	1	-68,005638	272,151741	243,042442	0
15.01.2021	02:57:13	0	0	4,858718	2,92125	49,194	-1,199	80,164	0	1009,18	4,6	7,1	6,8	1	1	1	1	1	1	1	1	1	0	1	-65,46864	272,304692	246,279276	0
15.01.2021	02:57:14	0	0	3,27681	2,802	47,7468	-1,197	80,156	0	1009,16	4,7	7,1	6,8	1	1	1	1	1	1	1	1	1	0	1	-67,512333	272,303333	244,22936	0
15.01.2021	02:57:15	0	0	4,971712	2,73675	44,406	-1,199	80,14	0	1009,24	4,7	7,1	6,8	1	1	1	1	1	1	1	1	1	0	1	-67,653277	272,163878	243,450293	0
15.01.2021	02:57:16	0	0	4,745725	2,56425	42,9228	-1,202	80,124	0	1009,1	4,7	7,1	6,8	1	1	1	1	1	1	1	1	1	0	1	-68,005638	272,213856	243,326512	0
15.01.2021	02:57:17	0	0	4,406744	2,499	58,1112	-1,193	80,141	0	1009,24	4,6	7,1	6,8	1	1	1	1	1	1	1	1	1	0	1	-68,217054	272,315567	243,580666	0
15.01.2021	02:57:18	0	0	3,61579	2,50575	50,6772	-1,196	80,102	0	1009,14	4,7	7,1	6,8	1	1	1	1	1	1	1	1	1	0	1	-65,045807	272,265322	246,521856	0
15.01.2021	02:57:19	0	0	2,93783	2,33625	65,1096	-1,2	80,111	0	1009,3	4,7	7,1	6,8	1	1	1	1	1	1	1	1	1	0	1	-66,948555	272,312848	244,83671	0
15.01.2021	02:57:20	0	0	3,502797	2,17425	60,246	-1,196	80,107	0	1009,22	4,8	7,1	6,8	1	1	1	1	1	1	1	1	1	0	1	-66,032417	272,166576	245,08349	0
15.01.2021	02:57:21	0	0	2,372862	2,0475	62,0424	-1,195	80,099	0	1009,2	4,6	7,1	6,8	1	1	1	1	1	1	1	1	1	0	1	-69,274137	272,289749	242,405355	0
15.01.2021	02:57:22	0	0	4,858718	1,94625	59,0976	-1,195	80,091	0	1009,12	4,7	7,1	6,8	1	1	1	1	1	1	1	1	1	0	1	-66,384778	272,321007	245,437857	0
15.01.2021	02:57:23	0	0	3,728784	1,98375	52,1424	-1,198	80,075	0	1009,28	4,8	7,1	6,8	1	1	1	1	1	1	1	1	1	0	1	-68,005638	272,25041	243,493771	0
15.01.2021	02:57:24	0	0	4,745725	2,30625	51,4368	-1,199	80,058	0	1009,18	4,8	7,1	6,8	1	1	1	1	1	1	1	1	1	0	1	-66,032417	272,315567	245,765303	0
15.01.2021	02:57:25	0	0	2,71181	2,60175	51,444	-1,193	80,066	0	1009,22	4,7	7,1	7	1	1	1	1	1	1	1	1	1	0	1	-71,529246	272,280246	240,106736	0
15.01.2021	02:57:26	0	0	2,824836	2,6595	50,31	-1,191	80,054	0	1009,3	4,6	7,1	6,8	1	1	1	1	1	1	1	1	1	0	1	-72,093023	272,318287	239,717153	0
15.01.2021	02:57:27	0	0	2,711843	2,61675	42,9048	-1,196	80,039	0	1009,22	4,6	7,1	6,8	1	1	1	1	1	1	1	1	1	0	1	-65,609584	272,177373	245,555693	0
15.01.2021	02:57:28	0	0	3,728784	2,55225	40,6404	-1,194	80,043	0	1009,26	4,7	7,1	6,8	1	1	1	1	1	1	1	1	1	0	1	-67,300916	272,176023	243,858188	0
15.01.2021	02:57:29	0	0	3,502755	2,55975	39,8556	-1,195	80,039	0	1009,2	4,8	7,1	7	1	1	1	1	1	1	1	1	1	0	1	-69,203665	272,174673	241,949267	0
15.01.2021	02:57:30	0	0	4,293751	2,60475	39,8772	-1,194	80,022	0	1009,14	4,6	7,1	6,8	1	1	1	1	1	1	1	1	1	0	1	-66,102889	272,266678	245,470982	0
15.01.2021	02:57:31	0	0	4,067764	2,52675	27,9756	-1,188	80,01	0	1009,18	4,6	7,1	6,8	1	1	1	1	1	1	1	1	1	0	1	-66,737139	272,323728	245,097957	0
15.01.2021	02:57:32	0	0	4,632731	2,48625	46,9764	-1,196	80,022	0	1009,1	4,6	7,1	6,8	1	1	1	1	1	1	1	1	1	0	1	-66,173362	272,230094	245,233078	0
15.01.2021	02:57:33	0	0	4,067764	2,51175	42,2244	-1,192	80,009	0	1008,96	4,7	7,1	6,8	1	1	1	1	1	1	1	1	1	0	1	-67,794221	272,326449	244,053337	0
15.01.2021	02:57:34	0	0	2,485856	2,5545	46,998	-1,192	79,989	0	1009,1	4,6	7,1	6,8	1	1	1	1	1	1	1	1	1	0	1	-69,908386	272,185474	241,29394	0
15.01.2021	02:57:35	0	0	3,841777	2,727	52,1424	-1,19	79,998	0	1009,26	4,7	7,1	6,8	1	1	1	1	1	1	1	1	1	0	1	-64,975335	272,140959	246,023455	0
15.01.2021	02:57:36	0	0	4,632731	2,922	48,816	-1,195	79,973	0	1009,18	4,7	7,1	6,8	1	1	1	1	1	1	1	1	1	0	1	-70,049331	272,221973	241,319954	0
15.01.2021	02:57:37	0	0	4,180758	2,973	60,9192	-1,191	79,97	0	1009,12	4,6	7,1	6,8	1	1	1	1	1	1	1	1	1	0	1	-65,327696	272,310129	246,445118	0
15.01.2021	02:57:38	0	0	4,293751	2,98875	49,5792	-1,192	79,977	0	1009,3	4,6	7,1	6,8	1	1	1	1	1	1	1	1	1	0	1	-69,06272	272,180073	242,114905	0
15.01.2021	02:57:39	0	0	3,841777	2,841	51,4404	-1,19	79,963	0	1009,24	4,6	7,1	6,8	1	1	1	1	1	1	1	1	1	0	1	-65,680056	272,190877	245,54698	0
15.01.2021	02:57:40	0	0	3,954771	2,74125	44,4024	-1,19	79,946	0	1009,12	4,8	7,1	6,8	1	1	1	1	1	1	1	1	1	0	1	-64,341085	272,180073	246,836539	0
15.01.2021	02:57:41	0	0	4,519738	2,62425	46,5984	-1,19	79,953	0	1009,14	4,8	7,1	6,8	1	1	1	1	1	1	1	1	1	0	1	-65,257223	272,263966	246,304232	0
15.01.2021	02:57:42	0	0	3,050823	2,44425	56,7612	-1,187	79,945	0	1009,26	4,6	7	6,8	1	1	1	1	1	1	1	1	1	0	1	-69,485553	272,334614	242,399407	0
15.01.2021	02:57:43	0	0	3,502797	2,3565	63,1764	-1,187	79,932	0	1009,12	4,8	7,1	6,8	1	1	1	1	1	1	1	1	1	0	1	-64,622974	272,255831	246,901248	0
15.01.2021	02:57:44	0	0	3,841777	2,3355	64,6236	-1,19	79,925	0	1009,22	4,7	7,1	6,8	1	1	1	1	1	1	1	1	1	0	1	-65,116279	272,143653	245,89483	0
15.01.2021	02:57:45	0	0	3,841731	2,29725	64,242	-1,186	79,918	0	1009,16	4,6	7,1	7	1	1	1	1	1	1	1	1	1	0	1	-69,837914	272,291107	241,847795	0
15.01.2021	02:57:46	0	0	4,858718	2,26875	62,8704	-1,187	79,903	0	1009,12	4,7	7,1	6,8	1	1	1	1	1	1	1	1	1	0	1	-65,257223	272,301974	246,478247	0
15.01.2021	02:57:47	0	0	4,971652	2,35875	72,6768	-1,188	79,886	0	1009,14	4,6	7,1	7	1	1	1	1	1	1	1	1	1	0	1	-69,415081	272,297898	242,301725	0
15.01.2021	02:57:48	0	0	2,598849	2,44875	59,1048	-1,191	79,886	0	1009,18	4,7	7,1	6,8	1	1	1	1	1	1	1	1	1	0	1	-66,525722	272,287034	245,141335	0
15.01.2021	02:57:49	0	0	3,27681	2,3775	56,664	-1,186	79,875	0	1009,24	4,7	7,1	6,8	1	1	1	1	1	1	1	1	1	0	1	-65,257223	272,299257	246,465803	0
15.01.2021	02:57:50	0	0	5,310628	2,34825	55,9296	-1,184	79,857	0	1009,22	4,6	7	7	1	1	1	1	1	1	1	1	1	0	1	-67,0895	272,182773	244,100475	0
15.01.2021	02:57:51	0	0	3,163816	2,265	36,9396	-1,184	79,843	0	1009,1	4,7	7,1	6,8	1	1	1	1	1	1	1	1	1	0	1	-63,777308	272,166576	247,338599	0
15.01.2021	02:57:52	0	0	4,067764	2,14425	46,5912	-1,184	79,829	0	1009,22	4,7	7,1	6,8	1	1	1	1	1	1	1	1	1	0	1	-65,539112	272,226033	245,848748	0
15.01.2021	02:57:53	0	0	4,519711	2,03325	35,4996	-1,184	79,809	0	1009,24	4,7	7,1	6,9	1	1	1	1	1	1	1	1	1	0	1	-65,398168	272,157134	245,674569	0
15.01.2021	02:57:54	0	0	4,858718	2,02425	43,29	-1,185	79,813	0	1009,22	4,7	7,1	6,8	1	1	1	1	1	1	1	1	1	0	1	-68,569415	272,190877	242,657622	0
15.01.2021	02:57:55	0	0	3,841777	2,15775	46,62	-1,185	79,791	0	1009,12	4,6	7	6,8	1	1	1	1	1	1	1	1	1	0	1	-68,710359	272,173323	242,4364	0
15.01.2021	02:57:56	0	0	5,084644	2,43675	49,9608	-1,191	79,772	0	1009,22	4,6	7,1	7	1	1	1	1	1	1	1	1	1	0	1	-67,019027	272,167925	244,103049	0
15.01.2021	02:57:57	0	0	3,841777	2,7495	29,9592	-1,184	79,756	0	1009,2	4,7	7,1	6,8	1	1	1	1	1	1	1	1	1	0	1	-70,965469	272,321007	240,857166	0
15.01.2021	02:57:58	0	0	3,502755	2,9325	29,1024	-1,187	79,754	0	1009,1	4,7	7,1	7	1	1	1	1	1	1	1	1	1	0	1	-66,314306	272,231447	245,098328	0
15.01.2021	02:57:59	0	0	3,841731	2,85375	39,852	-1,188	79,765	0	1009,18	4,7	7,1	7	1	1	1	1	1	1	1	1	1	0	1	-67,864693	272,146349	243,158737	0
15.01.2021	02:58:00	0	0	5,084644	2,85525	40,6224	-1,189	79,729	0	1009,16	4,7	7	7	1	1	1	1	1	1	1	1	1	0	1	-63,636364	272,153089	247,417879	0
15.01.2021	02:58:01	0	0	5,084644	2,85525	40,6224	-1,189	79,729	0	1009,16	4,7	7	7	1	1	1	1	1	1	1	1	1	0	1	-63,636364	272,153089	247,417879	0
15.01.2021	02:58:02	0	0	5,310628	2,88525	42,9084	-1,188	79,718	0	1009,18	4,7	7,1	7	1	1	1	1	1	1	1	1	1	0	1	-71,740662	272,295182	239,963703	0
15.01.2021	02:58:03	0	0	2,937812	2,83725	32,5152	-1,191	79,722	0	1009,16	4,7	7	6,9	1	1	1	1	1	1	1	1	1	0	1	-64,270613	272,333252	247,608112	0
15.01.2021	02:58:04	0	0	2,598834	2,889	29,5776	-1,188	79,702	0	1009,24	4,7	7	6,9	1	1	1	1	1	1	1	1	1	0	1	-68,146582	272,304692	243,601334	0
15.01.2021	02:58:05	0	0	3,163779	2,81925	43,6716	-1,185	79,692	0	1009,12	4,7	7	7	1	1	1	1	1	1	1	1	1	0	1	-63,918252	272,318287	247,891924	0
15.01.2021	02:58:06	0	0	4,067715	2,80425	46,9728	-1,194	79,709	0	1009,22	4,7	7,1	7	1	1	1	1	1	1	1	1	1	0	1	-66,032417	272,180073	245,145208	0
15.01.2021	02:58:07	0	0	5,197667	2,8425	45,5076	-1,188	79,708	0	1009,28	4,7	7	6,9	1	1	1	1	1	1	1	1	1	0	1	-67,653277	272,215209	243,685061	0
15.01.2021	02:58:08	0	0	5,084675	2,92575	45,1692	-1,188	79,713	0	1009,06	4,7	7	6,9	1	1	1	1	1	1	1	1	1	0	1	-67,159972	272,333252	244,718753	0
15.01.2021	02:58:09	0	0	3,27679	2,78325	38,808	-1,182	79,71	0	1009,12	4,7	7	6,9	1	1	1	1	1	1	1	1	1	0	1	-63,565891	272,219267	247,791013	0
15.01.2021	02:58:10	0	0	4,858689	2,7015	46,5912	-1,187	79,715	0	1009,1	4,7	7	6,9	1	1	1	1	1	1	1	1	1	0	1	-67,794221	272,16118	243,297014	0
15.01.2021	02:58:11	0	0	4,971682	2,5995	36,9144	-1,185	79,72	0	1009,24	4,7	7	6,9	1	1	1	1	1	1	1	1	1	0	1	-67,019027	272,330531	244,847229	0
15.01.2021	02:58:12	0	0	3,276771	2,51925	39,5532	-1,188	79,722	0	1009,18	4,7	7	7	1	1	1	1	1	1	1	1	1	0	1	-65,680056	272,217914	245,670659	0
15.01.2021	02:58:13	0	0	3,163798	2,37825	47,3652	-1,184	79,733	0	1009,4	4,7	7	6,9	1	1	1	1	1	1	1	1	1	0	1	-69,908386	272,157134	241,164351	0
15.01.2021	02:58:14	0	0	2,824819	2,37675	40,2444	-1,184	79,744	0	1009,18	4,7	7,1	6,9	1	1	1	1	1	1	1	1	1	0	1	-69,69697	272,314208	242,094523	0
15.01.2021	02:58:15	0	0	4,858689	2,54025	45,252	-1,189	79,754	0	1009,2	4,7	7	6,9	1	1	1	1	1	1	1	1	1	0	1	-64,83439	272,330531	247,031866	0
15.01.2021	02:58:16	0	0	3,27679	2,53575	50,688	-1,187	79,756	0	1009,14	4,7	7,1	6,9	1	1	1	1	1	1	1	1	1	0	1	-63,988724	272,217914	247,36199	0
15.01.2021	02:58:17	0	0	3,728739	2,56275	52,1316	-1,183	79,764	0	1009,22	4,7	7	7	1	1	1	1	1	1	1	1	1	0	1	-66,807611	272,334614	245,077349	0
15.01.2021	02:58:18	0	0	3,841754	2,60325	38,4084	-1,185	79,77	0	1009,24	4,7	7	6,9	1	1	1	1	1	1	1	1	1	0	1	-68,639887	272,205743	242,655146	0
15.01.2021	02:58:19	0	0	4,293725	2,601	49,95	-1,185	79,775	0	1009,16	4,7	7	6,9	1	1	1	1	1	1	1	1	1	0	1	-67,582805	272,219267	243,7741	0
15.01.2021	02:58:20	0	0	3,389783	2,457	42,2244	-1,182	79,779	0	1009,26	4,7	7	6,9	1	1	1	1	1	1	1	1	1	0	1	-65,539112	272,184124	245,657038	0
15.01.2021	02:58:21	0	0	2,598849	2,2695	48,5064	-1,179	79,79	0	1009,16	4,7	7	6,8	1	1	1	1	1	1	1	1	1	0	1	-69,274137	272,203039	242,008529	0
15.01.2021	02:58:22	0	0	2,937812	2,28225	39,168	-1,182	79,809	0	1009,26	4,7	7	6,9	1	1	1	1	1	1	1	1	1	0	1	-69,626498	272,331891	242,245993	0
15.01.2021	02:58:23	0	0	4,519711	2,22675	47,7468	-1,181	79,799	0	1009,12	4,7	7	6,9	1	1	1	1	1	1	1	1	1	0	1	-64,622974	272,261254	246,926068	0
15.01.2021	02:58:24	0	0	3,615769	2,29575	39,1644	-1,178	79,821	0	1009,22	4,7	7	6,9	1	1	1	1	1	1	1	1	1	0	1	-71,035941	272,321007	240,786694	0
15.01.2021	02:58:25	0	0	3,27679	2,46225	47,358	-1,177	79,823	0	1009,26	4,7	7	6,9	1	1	1	1	1	1	1	1	1	0	1	-63,354475	272,196281	247,89728	0
15.01.2021	02:58:26	0	0	2,937812	2,62125	41,0004	-1,182	79,831	0	1009,16	4,7	7	6,9	1	1	1	1	1	1	1	1	1	0	1	-65,680056	272,327809	246,173734	0
15.01.2021	02:58:27	0	0	2,937812	2,7705	45,1476	-1,182	79,852	0	1009,16	4,7	7	6,9	1	1	1	1	1	1	1	1	1	0	1	-63,284003	272,216561	248,060523	0
15.01.2021	02:58:28	0	0	4,293725	2,86425	45,5256	-1,177	79,862	0	1009,28	4,7	7	6,9	1	1	1	1	1	1	1	1	1	0	1	-65,609584	272,201687	245,666898	0
15.01.2021	02:58:29	0	0	3,728761	2,83425	39,8772	-1,176	79,867	0	1009,26	4,7	7	6,9	1	1	1	1	1	1	1	1	1	0	1	-69,485553	272,340059	242,424352	0
15.01.2021	02:58:30	0	0	4,06774	3,25125	38,808	-1,179	79,857	0	1009,06	4,7	7,1	6,9	1	1	1	1	1	1	1	1	1	0	1	-67,723749	272,24499	243,750856	0
15.01.2021	02:58:31	0	0	3,841754	3,93375	43,2972	-1,169	79,866	0	1009,08	4,7	7	6,9	1	1	1	1	1	1	1	1	1	0	1	-66,596195	272,178723	244,575256	0
15.01.2021	02:58:32	0	0	3,954747	4,09575	36,9288	-1,179	79,836	0	1009,3	4,7	7	6,9	1	1	1	1	1	1	1	1	1	0	1	-66,596195	272,2477	244,890812	0
15.01.2021	02:58:33	0	0	3,502776	3,807	30,3588	-1,175	79,839	0	1009,2	4,7	7,1	6,9	1	1	1	1	1	1	1	1	1	0	1	-67,723749	272,337336	244,173682	0
15.01.2021	02:58:34	0	0	3,163798	3,699	34,3332	-1,178	79,835	0	1009,16	4,7	7	6,9	1	1	1	1	1	1	1	1	1	0	1	-63,143058	272,211151	248,176717	0
15.01.2021	02:58:35	0	0	3,27679	4,056	38,8008	-1,171	79,81	0	1009,2	4,7	7,1	6,9	1	1	1	1	1	1	1	1	1	0	1	-66,807611	272,334614	245,077349	0
15.01.2021	02:58:36	0	0	2,598834	4,038	32,5008	-1,172	79,819	0	1009,16	4,7	7,1	6,9	1	1	1	1	1	1	1	1	1	0	1	-63,777308	272,204391	247,511541	0
15.01.2021	02:58:37	0	0	4,519711	3,72825	38,8008	-1,18	79,823	0	1009,24	4,7	7,1	6,9	1	1	1	1	1	1	1	1	1	0	1	-67,512333	272,333252	244,366392	0
15.01.2021	02:58:38	0	0	2,598834	3,58425	52,128	-1,171	79,824	0	1009,16	4,7	7,1	6,9	1	1	1	1	1	1	1	1	1	0	1	-70,542636	272,181423	240,641164	0
15.01.2021	02:58:39	0	0	4,06774	3,399	66,906	-1,175	79,811	0	1009,28	4,7	7,1	6,9	1	1	1	1	1	1	1	1	1	0	1	-68,780832	272,284318	242,873794	0
15.01.2021	02:58:40	0	0	2,824819	3,3615	66,924	-1,173	79,819	0	1009,24	4,7	7,1	6,9	1	1	1	1	1	1	1	1	1	0	1	-68,287526	272,177373	242,877751	0
15.01.2021	02:58:41	0	0	5,197667	3,2235	62,892	-1,171	79,818	0	1009,08	4,7	7,1	6,9	1	1	1	1	1	1	1	1	1	0	1	-67,019027	272,315567	244,778693	0
15.01.2021	02:58:42	0	0	3,502776	3,02775	57,42	-1,177	79,813	0	1009,28	4,7	7	6,9	1	1	1	1	1	1	1	1	1	0	1	-64,622974	272,249055	246,870234	0
15.01.2021	02:58:43	0	0	3,841754	2,69925	66,9312	-1,172	79,811	0	1009,34	4,7	7,1	6,9	1	1	1	1	1	1	1	1	1	0	1	-66,948555	272,16118	244,14268	0
15.01.2021	02:58:44	0	0	3,389783	2,69325	65,4696	-1,17	79,815	0	1009,12	4,7	7,1	6,9	1	1	1	1	1	1	1	1	1	0	1	-65,961945	272,276175	245,655398	0
15.01.2021	02:58:45	0	0	3,050805	2,643	78,66	-1,17	79,821	0	1009,2	4,7	7,1	6,9	1	1	1	1	1	1	1	1	1	0	1	-68,07611	272,166576	243,039797	0
15.01.2021	02:58:46	0	0	3,502776	2,56125	69,4584	-1,175	79,814	0	1009,12	4,7	7,1	6,9	1	1	1	1	1	1	1	1	1	0	1	-64,059197	272,201687	247,217286	0
15.01.2021	02:58:47	0	0	4,519711	2,56725	67,3704	-1,168	79,831	0	1009,26	4,7	7,1	6,9	1	1	1	1	1	1	1	1	1	0	1	-67,371388	272,300616	244,35786	0
15.01.2021	02:58:48	0	0	3,389783	2,4975	62,7912	-1,174	79,835	0	1009,14	4,7	7,1	6,9	1	1	1	1	1	1	1	1	1	0	1	-68,146582	272,335975	243,744613	0
15.01.2021	02:58:49	0	0	5,31066	2,55675	49,9428	-1,173	79,83	0	1009,36	4,7	7,1	6,9	1	1	1	1	1	1	1	1	1	0	1	-63,918252	272,310129	247,854561	0
15.01.2021	02:58:50	0	0	4,971682	2,69025	39,8628	-1,173	79,842	0	1009,12	4,7	7,1	6,9	1	1	1	1	1	1	1	1	1	0	1	-68,498943	272,196281	242,752812	0
15.01.2021	02:58:51	0	0	2,598834	2,93925	40,6152	-1,17	79,829	0	1009,16	4,7	7,1	6,9	1	1	1	1	1	1	1	1	1	0	1	-67,723749	272,276175	243,893594	0
15.01.2021	02:58:52	0	0	4,519711	3,0525	22,4748	-1,163	79,845	0	1009,26	4,7	7,1	6,9	1	1	1	1	1	1	1	1	1	0	1	-66,102889	272,345506	245,831969	0
15.01.2021	02:58:53	0	0	5,31066	3,16875	59,4936	-1,164	79,842	0	1009,2	4,7	7,1	6,9	1	1	1	1	1	1	1	1	1	0	1	-69,415081	272,243635	242,053325	0
15.01.2021	02:58:54	0	0	2,824819	3,1455	52,8948	-1,164	79,839	0	1009,28	4,7	7,1	6,9	1	1	1	1	1	1	1	1	1	0	1	-65,186751	272,34823	246,760587	0
15.01.2021	02:58:55	0	0	4,293725	3,07875	41,0076	-1,168	79,834	0	1009,22	4,7	7,1	6,9	1	1	1	1	1	1	1	1	1	0	1	-61,945032	272,2477	249,541975	0
15.01.2021	02:58:56	0	0	3,050805	3,14475	50,2992	-1,17	79,845	0	1009,26	4,7	7	6,9	1	1	1	1	1	1	1	1	1	0	1	-67,371388	272,327809	244,482402	0
15.01.2021	02:58:57	0	0	2,937812	3,2415	46,2348	-1,165	79,829	0	1009,3	4,7	7,1	6,9	1	1	1	1	1	1	1	1	1	0	1	-68,498943	272,272104	243,099766	0
15.01.2021	02:58:58	0	0	3,954747	3,381	58,4856	-1,162	79,824	0	1009,18	4,7	7,1	6,9	1	1	1	1	1	1	1	1	1	0	1	-67,300916	272,185474	243,90141	0
15.01.2021	02:58:59	0	0	4,293725	3,15975	38,8728	-1,164	79,811	0	1009,22	4,7	7,1	6,9	1	1	1	1	1	1	1	1	1	0	1	-65,609584	272,284318	246,045041	0
15.01.2021	02:59:00	0	0	3,389783	3,48	42,8976	-1,159	79,817	0	1009,2	4,7	7,1	6,9	1	1	1	1	1	1	1	1	1	0	1	-69,415081	272,284318	242,239545	0
15.01.2021	02:59:01	0	0	3,389783	3,48	42,8976	-1,159	79,817	0	1009,2	4,7	7,1	6,9	1	1	1	1	1	1	1	1	1	0	1	-69,415081	272,284318	242,239545	0
15.01.2021	02:59:02	0	0	4,745696	3,6795	49,5648	-1,161	79,818	0	1009,2	4,7	7,1	6,9	1	1	1	1	1	1	1	1	1	0	1	-64,975335	272,352316	246,990728	0
15.01.2021	02:59:03	0	0	4,745696	3,74325	48,5064	-1,154	79,817	0	1009,22	4,7	7,1	6,9	1	1	1	1	1	1	1	1	1	0	1	-62,86117	272,2477	248,625836	0
15.01.2021	02:59:04	0	0	3,050805	3,7335	46,5768	-1,159	79,833	0	1009,18	4,7	7,1	6,9	1	1	1	1	1	1	1	1	1	0	1	-68,357999	272,174673	242,794933	0
15.01.2021	02:59:05	0	0	3,615769	3,5085	49,5648	-1,167	79,843	0	1009,02	4,7	7,1	6,9	1	1	1	1	1	1	1	1	1	0	1	-64,975335	272,216561	246,369191	0
15.01.2021	02:59:06	0	0	3,163798	3,38475	46,9872	-1,162	79,862	0	1009,16	4,7	7,1	6,9	1	1	1	1	1	1	1	1	1	0	1	-67,0895	272,346868	244,851599	0
15.01.2021	02:59:07	0	0	4,745696	3,26175	37,6776	-1,171	79,859	0	1009,16	4,7	7,1	6,9	1	1	1	1	1	1	1	1	1	0	1	-65,609584	272,285676	246,051257	0
15.01.2021	02:59:08	0	0	3,27679	3,4245	37,6776	-1,16	79,862	0	1009,12	4,8	7,1	6,9	1	1	1	1	1	1	1	1	1	0	1	-67,582805	272,352316	244,383258	0
15.01.2021	02:59:09	0	0	3,27679	3,525	56,2716	-1,151	79,861	0	1009,22	4,7	7,1	6,9	1	1	1	1	1	1	1	1	1	0	1	-70,754052	272,306051	241,000087	0
15.01.2021	02:59:10	0	0	3,502776	3,3765	42,5916	-1,158	79,861	0	1009,3	4,7	7,1	6,9	1	1	1	1	1	1	1	1	1	0	1	-68,851304	272,217914	242,499411	0
15.01.2021	02:59:11	0	0	4,632704	3,03525	51,0444	-1,16	79,84	0	1009,02	4,7	7,1	6,9	1	1	1	1	1	1	1	1	1	0	1	-66,948555	272,265322	244,619108	0
15.01.2021	02:59:12	0	0	2,824819	2,65875	53,73	-1,152	79,856	0	1009,18	4,7	7,1	6,9	1	1	1	1	1	1	1	1	1	0	1	-68,569415	272,196281	242,68234	0
15.01.2021	02:59:13	0	0	4,06774	2,40825	52,8768	-1,155	79,861	0	1009,28	4,7	7,1	6,9	1	1	1	1	1	1	1	1	1	0	1	-66,948555	272,325088	244,892772	0
15.01.2021	02:59:14	0	0	5,31066	2,2455	55,1772	-1,16	79,87	0	1009,28	4,7	7,1	6,9	1	1	1	1	1	1	1	1	1	0	1	-67,723749	272,337336	244,173682	0
15.01.2021	02:59:15	0	0	4,745696	2,436	63,18	-1,158	79,864	0	1009,18	4,8	7,1	6,9	1	1	1	1	1	1	1	1	1	0	1	-65,961945	272,192228	245,271271	0
15.01.2021	02:59:16	0	0	4,745696	2,43075	52,1208	-1,158	79,858	0	1009,18	4,7	7,1	6,9	1	1	1	1	1	1	1	1	1	0	1	-62,579281	272,257187	248,951145	0
15.01.2021	02:59:17	0	0	2,937812	2,45775	75,618	-1,152	79,884	0	1009,08	4,8	7,1	6,9	1	1	1	1	1	1	1	1	1	0	1	-67,230444	272,178723	243,941007	0
15.01.2021	02:59:18	0	0	3,615769	2,388	71,604	-1,147	79,883	0	1009,18	4,8	7,1	6,9	1	1	1	1	1	1	1	1	1	0	1	-66,243834	272,240926	245,212175	0
15.01.2021	02:59:19	0	0	4,632704	2,2215	76,3776	-1,149	79,855	0	1009,12	4,7	7,1	6,9	1	1	1	1	1	1	1	1	1	0	1	-66,314306	272,174673	244,838626	0
15.01.2021	02:59:20	0	0	5,423685	2,025	79,776	-1,153	79,822	0	1009,26	4,7	7,1	6,8	1	1	1	1	1	1	1	1	1	0	1	-69,133192	272,315567	242,664528	0
15.01.2021	02:59:21	0	0	3,163816	1,9575	68,0364	-1,151	79,83	0	1009,26	4,7	7,1	6,8	1	1	1	1	1	1	1	1	1	0	1	-67,371388	272,190877	243,855648	0
15.01.2021	02:59:22	0	0	4,745696	1,97475	78,3036	-1,152	79,785	0	1009,24	4,8	7,1	6,9	1	1	1	1	1	1	1	1	1	0	1	-67,864693	272,246345	243,616112	0
15.01.2021	02:59:23	0	0	3,27679	2,0115	59,4792	-1,153	79,787	0	1009,26	4,7	7,1	6,9	1	1	1	1	1	1	1	1	1	0	1	-68,710359	272,177373	242,454918	0
15.01.2021	02:59:24	0	0	4,180732	2,03475	48,4992	-1,155	79,732	0	1009,2	4,8	7,1	6,9	1	1	1	1	1	1	1	1	1	0	1	-64,83439	272,249055	246,658817	0
15.01.2021	02:59:25	0	0	3,27679	1,89675	51,1596	-1,155	79,711	0	1009,16	4,8	7,1	6,9	1	1	1	1	1	1	1	1	1	0	1	-68,146582	272,357767	243,844454	0
15.01.2021	02:59:26	0	0	3,050786	1,761	45,5112	-1,152	79,692	0	1009,24	4,8	7,1	7	1	1	1	1	1	1	1	1	1	0	1	-62,156448	272,322367	249,672417	0
15.01.2021	02:59:27	0	0	3,050786	1,6365	21,3984	-1,148	79,639	0	1009,2	4,7	7,1	7	1	1	1	1	1	1	1	1	1	0	1	-68,287526	272,30877	243,479062	0
15.01.2021	02:59:28	0	0	3,841777	1,55175	25,884	-1,147	79,603	0	1009,16	4,8	7,1	6,8	1	1	1	1	1	1	1	1	1	0	1	-65,961945	272,189526	245,258913	0
15.01.2021	02:59:29	0	0	3,841777	1,5915	40,6152	-1,152	79,616	0	1009,18	4,8	7,1	6,8	1	1	1	1	1	1	1	1	1	0	1	-66,384778	272,299257	245,338249	0
15.01.2021	02:59:30	0	0	2,485856	1,9485	57,726	-1,15	79,611	0	1009,1	4,8	7,1	6,8	1	1	1	1	1	1	1	1	1	0	1	-69,485553	272,196281	241,766202	0
15.01.2021	02:59:31	0	0	2,711826	2,139	43,6752	-1,15	79,598	0	1009,18	4,8	7,1	6,9	1	1	1	1	1	1	1	1	1	0	1	-63,918252	272,311488	247,860787	0
15.01.2021	02:59:32	0	0	3,615747	2,274	54,8028	-1,153	79,593	0	1009,28	4,7	7,1	7	1	1	1	1	1	1	1	1	1	0	1	-65,961945	272,361855	246,047826	0
15.01.2021	02:59:33	0	0	3,841777	2,3805	32,904	-1,148	79,589	0	1009,06	4,8	7,1	6,8	1	1	1	1	1	1	1	1	1	0	1	-67,653277	272,230094	243,753162	0
15.01.2021	02:59:34	0	0	2,824802	2,793	42,2172	-1,15	79,587	0	1009,3	4,7	7,1	7	1	1	1	1	1	1	1	1	1	0	1	-69,767442	272,176023	241,391662	0
15.01.2021	02:59:35	0	0	4,858718	3,17175	43,6788	-1,149	79,59	0	1009,18	4,7	7,1	6,8	1	1	1	1	1	1	1	1	1	0	1	-63,918252	272,259898	247,624584	0
15.01.2021	02:59:36	0	0	4,632731	3,22125	44,4168	-1,145	79,591	0	1009,16	4,7	7,1	6,8	1	1	1	1	1	1	1	1	1	0	1	-65,045807	272,189526	246,175051	0
15.01.2021	02:59:37	0	0	3,389763	3,231	57,726	-1,149	79,599	0	1009,06	4,7	7,1	7	1	1	1	1	1	1	1	1	1	0	1	-64,763918	272,22468	246,617749	0
15.01.2021	02:59:38	0	0	4,180732	3,2205	56,2968	-1,145	79,623	0	1009,26	4,8	7,1	6,9	1	1	1	1	1	1	1	1	1	0	1	-65,045807	272,315567	246,751913	0
15.01.2021	02:59:39	0	0	5,084644	3,099	47,7432	-1,149	79,608	0	1009,22	4,8	7,1	7	1	1	1	1	1	1	1	1	1	0	1	-70,049331	272,208447	241,258073	0
15.01.2021	02:59:40	0	0	4,971712	3,378	31,4172	-1,151	79,598	0	1009,3	4,7	7,1	6,8	1	1	1	1	1	1	1	1	1	0	1	-63,636364	272,30741	248,124	0
15.01.2021	02:59:41	0	0	2,711843	3,23625	30,7296	-1,15	79,589	0	1009,3	4,6	7,1	6,8	1	1	1	1	1	1	1	1	1	0	1	-64,622974	272,198984	246,641144	0
15.01.2021	02:59:42	0	0	4,180758	2,96475	31,7808	-1,145	79,592	0	1009,3	4,7	7,1	6,8	1	1	1	1	1	1	1	1	1	0	1	-68,992248	272,207095	242,30897	0
15.01.2021	02:59:43	0	0	4,85866	2,84175	28,7352	-1,146	79,59	0	1009,26	4,8	7,1	7	1	1	1	1	1	1	1	1	1	0	1	-68,639887	272,259898	242,902949	0
15.01.2021	02:59:44	0	0	2,937794	2,72925	34,7076	-1,146	79,572	0	1009,12	4,8	7,1	7	1	1	1	1	1	1	1	1	1	0	1	-63,636364	272,207095	247,664855	0
15.01.2021	02:59:45	0	0	3,163816	2,70525	37,3212	-1,154	79,56	0	1009,18	4,8	7,1	6,8	1	1	1	1	1	1	1	1	1	0	1	-69,415081	272,355041	242,563467	0
15.01.2021	02:59:46	0	0	3,728739	2,9715	32,1768	-1,145	79,567	0	1009,2	4,8	7,1	7	1	1	1	1	1	1	1	1	1	0	1	-66,525722	272,367308	245,509037	0
15.01.2021	02:59:47	0	0	4,85866	2,91825	34,3404	-1,143	79,563	0	1009,16	4,7	7,1	7	1	1	1	1	1	1	1	1	1	0	1	-64,270613	272,203039	247,012053	0
15.01.2021	02:59:48	0	0	3,27681	2,871	44,0424	-1,144	79,542	0	1009,36	4,7	7,1	6,8	1	1	1	1	1	1	1	1	1	0	1	-63,284003	272,261254	248,265039	0
15.01.2021	02:59:49	0	0	2,93783	2,8875	49,6548	-1,14	79,545	0	1009,36	4,8	7,1	6,8	1	1	1	1	1	1	1	1	1	0	1	-67,723749	272,236863	243,713667	0
15.01.2021	02:59:50	0	0	2,598849	2,7135	51,4512	-1,142	79,541	0	1009,2	4,7	7,1	6,8	1	1	1	1	1	1	1	1	1	0	1	-62,790698	272,243635	248,677708	0
15.01.2021	02:59:51	0	0	4,745725	2,538	48,798	-1,146	79,519	0	1009,32	4,7	7,1	6,8	1	1	1	1	1	1	1	1	1	0	1	-69,908386	272,22874	241,491859	0
15.01.2021	02:59:52	0	0	4,180758	2,3145	39,8556	-1,147	79,518	0	1009,2	4,7	7,1	6,8	1	1	1	1	1	1	1	1	1	0	1	-64,693446	272,24499	246,781159	0
15.01.2021	02:59:53	0	0	4,632676	2,23275	45,8352	-1,141	79,533	0	1009,32	4,7	7,1	7	1	1	1	1	1	1	1	1	1	0	1	-66,173362	272,230094	245,233078	0
15.01.2021	02:59:54	0	0	3,954771	2,178	50,3028	-1,147	79,501	0	1009,18	4,7	7,1	6,8	1	1	1	1	1	1	1	1	1	0	1	-67,019027	272,205743	244,276006	0
15.01.2021	02:59:55	0	0	4,067715	2,22075	45,1548	-1,146	79,52	0	1009,32	4,7	7,1	7	1	1	1	1	1	1	1	1	1	0	1	-67,159972	272,226033	244,227888	0
15.01.2021	02:59:56	0	0	4,85866	2,24775	36,9324	-1,148	79,52	0	1009,22	4,7	7,1	7	1	1	1	1	1	1	1	1	1	0	1	-65,961945	272,19493	245,28363	0
15.01.2021	02:59:57	0	0	2,259842	2,18925	32,9832	-1,147	79,527	0	1009,34	4,7	7,1	7	1	1	1	1	1	1	1	1	1	0	1	-62,790698	272,30741	248,969666	0
15.01.2021	02:59:58	0	0	4,632676	2,24025	42,6204	-1,148	79,534	0	1009,26	4,7	7,1	7	1	1	1	1	1	1	1	1	1	0	1	-65,186751	272,215209	246,151586	0
15.01.2021	02:59:59	0	0	2,259842	2,16525	43,6788	-1,144	79,537	0	1009,18	4,7	7,1	7	1	1	1	1	1	1	1	1	1	0	1	-63,143058	272,231447	248,269575	0
15.01.2021	03:00:00	0	0	5,310692	2,322	53,3448	-1,15	79,552	0	1009,12	4,7	7,1	6,8	1	1	1	1	1	1	1	1	1	0	1	-65,116279	272,331891	246,756212	0
15.01.2021	03:00:01	0	0	5,310692	2,322	53,3448	-1,15	79,552	0	1009,12	4,7	7,1	6,8	1	1	1	1	1	1	1	1	1	0	1	-65,116279	272,331891	246,756212	0
15.01.2021	03:00:02	0	0	4,180707	2,34975	41,4648	-1,141	79,558	0	1009,24	4,7	7,1	7	1	1	1	1	1	1	1	1	1	0	1	-63,706836	272,365945	248,321676	0
15.01.2021	03:00:03	0	0	2,485826	2,31225	44,0424	-1,143	79,57	0	1009,26	4,7	7,1	7	1	1	1	1	1	1	1	1	1	0	1	-67,159972	272,219267	244,196933	0
15.01.2021	03:00:04	0	0	4,067715	2,22825	40,6188	-1,147	79,565	0	1009,12	4,7	7,1	7	1	1	1	1	1	1	1	1	1	0	1	-71,176885	272,352316	240,789178	0
15.01.2021	03:00:05	0	0	4,632676	2,29575	42,5988	-1,143	79,577	0	1009,22	4,7	7,2	7	1	1	1	1	1	1	1	1	1	0	1	-69,837914	272,382312	242,265608	0
15.01.2021	03:00:06	0	0	2,937794	2,169	33,9552	-1,141	79,576	0	1009,24	4,7	7,1	7	1	1	1	1	1	1	1	1	1	0	1	-66,314306	272,372763	245,745451	0
15.01.2021	03:00:07	0	0	3,954723	2,00325	37,3068	-1,144	79,588	0	1009,1	4,7	7,1	7	1	1	1	1	1	1	1	1	1	0	1	-66,525722	272,304692	245,222194	0
15.01.2021	03:00:08	0	0	2,824802	1,84125	30,3264	-1,14	79,598	0	1009,2	4,7	7,1	7	1	1	1	1	1	1	1	1	1	0	1	-62,438337	272,219267	248,918568	0
15.01.2021	03:00:09	0	0	3,276771	1,77975	34,3332	-1,146	79,579	0	1009,16	4,7	7,1	7	1	1	1	1	1	1	1	1	1	0	1	-64,763918	272,243635	246,704488	0
15.01.2021	03:00:10	0	0	3,050786	1,79625	38,808	-1,14	79,61	0	1009,18	4,7	7,1	7	1	1	1	1	1	1	1	1	1	0	1	-66,948555	272,359129	245,048725	0
15.01.2021	03:00:11	0	0	4,971652	1,86525	38,4408	-1,141	79,591	0	1009,24	4,7	7,1	7	1	1	1	1	1	1	1	1	1	0	1	-68,851304	272,207095	242,449914	0
15.01.2021	03:00:12	0	0	3,502755	2,1195	49,95	-1,138	79,596	0	1009,18	4,7	7,1	7	1	1	1	1	1	1	1	1	1	0	1	-63,565891	272,257187	247,964534	0
15.01.2021	03:00:13	0	0	4,519684	2,29275	52,8768	-1,14	79,6	0	1009,24	4,7	7,1	7	1	1	1	1	1	1	1	1	1	0	1	-69,203665	272,205743	242,091369	0
15.01.2021	03:00:14	0	0	3,276771	2,304	48,4992	-1,134	79,587	0	1009,42	4,7	7,1	7	1	1	1	1	1	1	1	1	1	0	1	-65,46864	272,246345	246,012166	0
15.01.2021	03:00:15	0	0	3,163779	2,35875	52,9956	-1,135	79,576	0	1009,08	4,7	7,1	7	1	1	1	1	1	1	1	1	1	0	1	-68,357999	272,270748	243,2345	0
15.01.2021	03:00:16	0	0	3,050786	2,58225	46,9944	-1,138	79,568	0	1009,28	4,7	7,1	7	1	1	1	1	1	1	1	1	1	0	1	-70,894996	272,212504	240,430966	0
15.01.2021	03:00:17	0	0	4,85866	2,55075	55,5372	-1,138	79,56	0	1009,08	4,7	7,1	7	1	1	1	1	1	1	1	1	1	0	1	-65,891473	272,342782	246,030908	0
15.01.2021	03:00:18	0	0	4,85866	2,39325	51,0516	-1,133	79,565	0	1009,18	4,7	7,1	7	1	1	1	1	1	1	1	1	1	0	1	-66,384778	272,208447	244,922625	0
15.01.2021	03:00:19	0	0	4,519684	2,175	34,704	-1,141	79,553	0	1009,1	4,7	7,2	7	1	1	1	1	1	1	1	1	1	0	1	-67,300916	272,370036	244,746341	0
15.01.2021	03:00:20	0	0	3,954723	1,85625	40,2336	-1,141	79,537	0	1009,12	4,7	7,1	7	1	1	1	1	1	1	1	1	1	0	1	-66,525722	272,310129	245,247091	0
15.01.2021	03:00:21	0	0	4,293699	1,65525	44,0424	-1,14	79,55	0	1009,28	4,7	7,2	7	1	1	1	1	1	1	1	1	1	0	1	-66,173362	272,380948	245,923906	0
15.01.2021	03:00:22	0	0	3,615747	1,49025	37,7568	-1,141	79,556	0	1009,36	4,7	7,1	7	1	1	1	1	1	1	1	1	1	0	1	-64,48203	272,251765	247,023582	0
15.01.2021	03:00:23	0	0	4,519684	1,45575	45,846	-1,141	79,531	0	1009,3	4,7	7,2	7	1	1	1	1	1	1	1	1	1	0	1	-67,653277	272,226033	243,734583	0
15.01.2021	03:00:24	0	0	3,163779	1,47675	33,9516	-1,14	79,532	0	1009,12	4,7	7,2	7	1	1	1	1	1	1	1	1	1	0	1	-65,680056	272,268035	245,900024	0
15.01.2021	03:00:25	0	0	3,050786	1,51875	57,4344	-1,139	79,511	0	1009,28	4,7	7,2	7	1	1	1	1	1	1	1	1	1	0	1	-68,357999	272,365945	243,670513	0
15.01.2021	03:00:26	0	0	2,824802	1,53375	53,7264	-1,135	79,512	0	1009,34	4,7	7,2	7	1	1	1	1	1	1	1	1	1	0	1	-65,750529	272,382312	246,352993	0
15.01.2021	03:00:27	0	0	4,745668	1,587	46,9872	-1,135	79,497	0	1009,26	4,7	7,2	7	1	1	1	1	1	1	1	1	1	0	1	-65,46864	272,278889	246,161129	0
15.01.2021	03:00:28	0	0	3,050786	1,58475	41,022	-1,138	79,483	0	1009,34	4,7	7	7	1	1	1	1	1	1	1	1	1	0	1	-69,626498	272,376855	242,452012	0
15.01.2021	03:00:29	0	0	3,163779	1,80525	62,4348	-1,136	79,476	0	1009,14	4,7	7,2	7	1	1	1	1	1	1	1	1	1	0	1	-69,274137	272,265322	242,293527	0
15.01.2021	03:00:30	0	0	3,954723	2,00325	52,1172	-1,14	79,476	0	1009,16	4,7	7,2	7	1	1	1	1	1	1	1	1	1	0	1	-67,300916	272,382312	244,802605	0
15.01.2021	03:00:31	0	0	3,163779	2,253	33,642	-1,14	79,436	0	1009,18	4,7	7,1	7	1	1	1	1	1	1	1	1	1	0	1	-63,213531	272,344144	248,715089	0
15.01.2021	03:00:32	0	0	3,050786	2,4915	27,666	-1,14	79,446	0	1009,22	4,7	7,1	7	1	1	1	1	1	1	1	1	1	0	1	-69,415081	272,368672	242,625927	0
15.01.2021	03:00:33	0	0	3,728739	2,6595	58,122	-1,132	79,451	0	1009,38	4,7	7,1	7	1	1	1	1	1	1	1	1	1	0	1	-68,217054	272,215209	243,121283	0
15.01.2021	03:00:34	0	0	5,310628	2,99775	46,602	-1,137	79,439	0	1009,28	4,7	7,2	7	1	1	1	1	1	1	1	1	1	0	1	-65,116279	272,330531	246,749978	0
15.01.2021	03:00:35	0	0	3,050786	3,2835	54,8136	-1,135	79,422	0	1009,22	4,7	7	7	1	1	1	1	1	1	1	1	1	0	1	-68,921776	272,212504	242,404186	0
15.01.2021	03:00:36	0	0	2,711826	3,40275	40,6116	-1,133	79,408	0	1009,1	4,7	7,1	6,9	1	1	1	1	1	1	1	1	1	0	1	-66,243834	272,285676	245,417008	0
15.01.2021	03:00:37	0	0	3,389763	3,2865	46,98	-1,134	79,387	0	1009,24	4,7	7,1	7	1	1	1	1	1	1	1	1	1	0	1	-64,270613	272,217914	247,080102	0
15.01.2021	03:00:38	0	0	4,293699	3,19275	48,1356	-1,135	79,385	0	1009,14	4,8	7,1	7	1	1	1	1	1	1	1	1	1	0	1	-65,609584	272,26261	245,945664	0
15.01.2021	03:00:39	0	0	4,971652	3,156	41,8644	-1,135	79,392	0	1009,28	4,7	7,2	7	1	1	1	1	1	1	1	1	1	0	1	-67,019027	272,22874	244,381218	0
15.01.2021	03:00:40	0	0	3,163779	2,9655	29,952	-1,13	79,377	0	1009,2	4,7	7,2	7	1	1	1	1	1	1	1	1	1	0	1	-69,274137	272,401425	242,916995	0
15.01.2021	03:00:41	0	0	3,615747	2,86725	48,1212	-1,135	79,362	0	1009,26	4,7	7,1	7	1	1	1	1	1	1	1	1	1	0	1	-65,821001	272,330531	246,045256	0
15.01.2021	03:00:42	0	0	5,084675	2,74875	44,4024	-1,132	79,364	0	1009,18	4,7	7,1	6,9	1	1	1	1	1	1	1	1	1	0	1	-63,777308	272,372763	248,282448	0
15.01.2021	03:00:43	0	0	3,050805	2,517	52,1352	-1,131	79,367	0	1009,12	4,7	7,1	6,9	1	1	1	1	1	1	1	1	1	0	1	-64,975335	272,255831	246,548887	0
15.01.2021	03:00:44	0	0	4,067715	2,36625	46,6128	-1,134	79,37	0	1009,2	4,7	7	7	1	1	1	1	1	1	1	1	1	0	1	-65,821001	272,280246	245,814981	0
15.01.2021	03:00:45	0	0	3,502755	2,2485	51,7536	-1,133	79,379	0	1009,22	4,7	7,1	7	1	1	1	1	1	1	1	1	1	0	1	-67,44186	272,395963	244,724229	0
15.01.2021	03:00:46	0	0	4,971652	2,09775	46,9872	-1,133	79,359	0	1009,24	4,7	7	7	1	1	1	1	1	1	1	1	1	0	1	-62,508809	272,356404	249,475983	0
15.01.2021	03:00:47	0	0	4,632704	1,89	31,0248	-1,14	79,371	0	1009,28	4,7	7,2	6,9	1	1	1	1	1	1	1	1	1	0	1	-64,693446	272,349592	247,260133	0
15.01.2021	03:00:48	0	0	3,841754	1,75575	40,2516	-1,137	79,374	0	1009,16	4,7	7,1	6,9	1	1	1	1	1	1	1	1	1	0	1	-64,411557	272,398694	247,767052	0
15.01.2021	03:00:49	0	0	3,841754	1,644	60,2352	-1,132	79,377	0	1009,24	4,7	7,1	6,9	1	1	1	1	1	1	1	1	1	0	1	-65,398168	272,24499	246,076438	0
15.01.2021	03:00:50	0	0	3,163779	1,5885	29,1168	-1,137	79,375	0	1009,28	4,7	7,1	7	1	1	1	1	1	1	1	1	1	0	1	-66,314306	272,333252	245,564419	0
15.01.2021	03:00:51	0	0	3,050786	1,5675	20,304	-1,136	79,38	0	1009,28	4,7	7,1	7	1	1	1	1	1	1	1	1	1	0	1	-67,371388	272,238217	244,072225	0
15.01.2021	03:00:52	0	0	3,728761	1,54575	37,7028	-1,142	79,362	0	1009,2	4,7	7,1	6,9	1	1	1	1	1	1	1	1	1	0	1	-70,190275	272,370036	241,856982	0
15.01.2021	03:00:53	0	0	3,163798	1,70925	39,1788	-1,134	79,375	0	1009,26	4,7	7,1	6,9	1	1	1	1	1	1	1	1	1	0	1	-65,609584	272,281603	246,032612	0
15.01.2021	03:00:54	0	0	3,163798	1,91625	38,808	-1,132	79,373	0	1009,18	4,8	7,1	6,9	1	1	1	1	1	1	1	1	1	0	1	-67,44186	272,395963	244,724229	0
15.01.2021	03:00:55	0	0	3,050805	1,9335	34,3368	-1,141	79,37	0	1009,34	4,7	7,1	6,9	1	1	1	1	1	1	1	1	1	0	1	-67,44186	272,243635	244,026546	0
15.01.2021	03:00:56	0	0	3,615769	2,07825	58,482	-1,132	79,368	0	1009,16	4,7	7,1	6,9	1	1	1	1	1	1	1	1	1	0	1	-64,763918	272,323728	247,071177	0
15.01.2021	03:00:57	0	0	4,406718	1,9995	42,9264	-1,132	79,38	0	1009,4	4,7	7,1	6,9	1	1	1	1	1	1	1	1	1	0	1	-67,653277	272,390501	244,487779	0
15.01.2021	03:00:58	0	0	4,180732	2,112	33,66	-1,139	79,357	0	1009,12	4,7	7,1	6,9	1	1	1	1	1	1	1	1	1	0	1	-66,878083	272,386406	245,244203	0
15.01.2021	03:00:59	0	0	2,824819	2,07375	27,9792	-1,136	79,359	0	1009,24	4,7	7,1	6,9	1	1	1	1	1	1	1	1	1	0	1	-68,569415	272,323728	243,265681	0
15.01.2021	03:01:00	0	0	2,937812	2,472	51,0696	-1,131	79,367	0	1009,3	4,7	7,1	6,9	1	1	1	1	1	1	1	1	1	0	1	-64,904863	272,221973	246,464422	0
15.01.2021	03:01:01	0	0	2,937812	2,472	51,0696	-1,131	79,367	0	1009,3	4,7	7,1	6,9	1	1	1	1	1	1	1	1	1	0	1	-64,904863	272,221973	246,464422	0
15.01.2021	03:01:02	0	0	4,180732	2,59725	39,8556	-1,134	79,34	0	1009,22	4,7	7,1	6,9	1	1	1	1	1	1	1	1	1	0	1	-63,636364	272,303333	248,105329	0
15.01.2021	03:01:03	0	0	4,632704	2,673	39,168	-1,141	79,354	0	1009,18	4,8	7,1	6,9	1	1	1	1	1	1	1	1	1	0	1	-62,579281	272,404157	249,624375	0
15.01.2021	03:01:04	0	0	3,728761	2,69175	36,2412	-1,133	79,351	0	1009,06	4,8	7,1	6,9	1	1	1	1	1	1	1	1	1	0	1	-66,173362	272,270748	245,419137	0
15.01.2021	03:01:05	0	0	3,163798	2,74875	40,248	-1,139	79,352	0	1009,2	4,8	7,1	6,9	1	1	1	1	1	1	1	1	1	0	1	-64,83439	272,234155	246,590633	0
15.01.2021	03:01:06	0	0	4,858689	2,778	46,2384	-1,135	79,35	0	1009,26	4,8	7,1	6,9	1	1	1	1	1	1	1	1	1	0	1	-66,525722	272,376855	245,552787	0
15.01.2021	03:01:07	0	0	3,502755	2,856	32,508	-1,128	79,409	0	1009,2	4,7	7,1	7	1	1	1	1	1	1	1	1	1	0	1	-65,398168	272,359129	246,599113	0
15.01.2021	03:01:08	0	0	4,745696	3,02325	34,3332	-1,135	79,351	0	1009,32	4,8	7,1	6,9	1	1	1	1	1	1	1	1	1	0	1	-65,327696	272,345506	246,607163	0
15.01.2021	03:01:09	0	0	4,632704	3,15	39,8628	-1,131	79,354	0	1009,22	4,8	7,1	6,9	1	1	1	1	1	1	1	1	1	0	1	-64,904863	272,401425	247,286269	0
15.01.2021	03:01:10	0	0	3,728761	3,081	46,3284	-1,133	79,332	0	1009,12	4,7	7,1	6,9	1	1	1	1	1	1	1	1	1	0	1	-67,300916	272,321007	244,521719	0
15.01.2021	03:01:11	0	0	3,502776	2,94675	46,2312	-1,142	79,341	0	1009,1	4,8	7,1	6,9	1	1	1	1	1	1	1	1	1	0	1	-64,48203	272,404157	247,721626	0
15.01.2021	03:01:12	0	0	5,084675	3	53,7372	-1,135	79,34	0	1009,28	4,8	7,1	6,9	1	1	1	1	1	1	1	1	1	0	1	-64,763918	272,375491	247,30834	0
15.01.2021	03:01:13	0	0	4,858689	2,87475	48,51	-1,137	79,35	0	1009,32	4,8	7,1	6,9	1	1	1	1	1	1	1	1	1	0	1	-67,371388	272,24499	244,103217	0
15.01.2021	03:01:14	0	0	3,615769	2,70375	44,8668	-1,143	79,343	0	1009,2	4,8	7,1	6,9	1	1	1	1	1	1	1	1	1	0	1	-65,398168	272,40006	246,786702	0
15.01.2021	03:01:15	0	0	3,954747	2,547	49,5648	-1,136	79,332	0	1009,16	4,8	7,1	6,9	1	1	1	1	1	1	1	1	1	0	1	-74,348132	272,359129	237,649148	0
15.01.2021	03:01:16	0	0	4,971682	2,51625	48,1284	-1,138	79,337	0	1009,16	4,8	7,1	6,9	1	1	1	1	1	1	1	1	1	0	1	-67,44186	272,258542	244,09477	0
15.01.2021	03:01:17	0	0	5,31066	2,592	56,0232	-1,14	79,337	0	1009,22	4,8	7,1	6,9	1	1	1	1	1	1	1	1	1	0	1	-65,539112	272,234155	245,885912	0
15.01.2021	03:01:18	0	0	4,180732	2,71875	48,816	-1,136	79,329	0	1009,36	4,8	7,1	6,9	1	1	1	1	1	1	1	1	1	0	1	-68,569415	272,355041	243,409133	0
15.01.2021	03:01:19	0	0	5,31066	2,81925	46,242	-1,137	79,351	0	1009,06	4,7	7,1	6,9	1	1	1	1	1	1	1	1	1	0	1	-69,274137	272,299257	242,44889	0
15.01.2021	03:01:20	0	0	3,27679	3,03	42,228	-1,135	79,349	0	1008,84	4,8	7,1	6,9	1	1	1	1	1	1	1	1	1	0	1	-66,666667	272,25312	244,845148	0
15.01.2021	03:01:21	0	0	3,615747	3,37875	51,0588	-1,134	79,36	0	1009,32	4,8	7,1	7	1	1	1	1	1	1	1	1	1	0	1	-64,48203	272,333252	247,396695	0
15.01.2021	03:01:22	0	0	3,954747	3,4965	60,246	-1,13	79,377	0	1009,24	4,8	7,1	6,9	1	1	1	1	1	1	1	1	1	0	1	-68,498943	272,25041	243,000466	0
15.01.2021	03:01:23	0	0	2,598834	3,86325	53,3664	-1,138	79,387	0	1009,2	4,8	7,1	6,9	1	1	1	1	1	1	1	1	1	0	1	-66,384778	272,226033	245,003082	0
15.01.2021	03:01:24	0	0	4,519711	4,22475	52,9956	-1,14	79,416	0	1009,2	4,8	7,1	6,9	1	1	1	1	1	1	1	1	1	0	1	-66,525722	272,323728	245,309373	0
15.01.2021	03:01:25	0	0	2,824819	4,5255	55,9188	-1,136	79,426	0	1009,12	4,8	7,1	6,9	1	1	1	1	1	1	1	1	1	0	1	-61,87456	272,408256	250,347887	0
15.01.2021	03:01:26	0	0	3,27679	4,428	60,2352	-1,137	79,439	0	1009,16	4,8	7,1	6,9	1	1	1	1	1	1	1	1	1	0	1	-64,270613	272,25041	247,228796	0
15.01.2021	03:01:27	0	0	3,954747	4,05975	68,7636	-1,134	79,454	0	1009,18	4,8	7,1	6,9	1	1	1	1	1	1	1	1	1	0	1	-62,367865	272,378219	249,716897	0
15.01.2021	03:01:28	0	0	4,180732	3,8655	58,95	-1,14	79,486	0	1009,14	4,7	7,1	6,9	1	1	1	1	1	1	1	1	1	0	1	-62,508809	272,402791	249,688584	0
15.01.2021	03:01:29	0	0	5,197667	3,63825	51,4332	-1,133	79,491	0	1009,18	4,8	7,1	6,9	1	1	1	1	1	1	1	1	1	0	1	-65,891473	272,29654	245,819112	0
15.01.2021	03:01:30	0	0	3,502755	3,45	31,7808	-1,132	79,542	0	1009,22	4,8	7,1	7	1	1	1	1	1	1	1	1	1	0	1	-63,988724	272,408256	248,233722	0
15.01.2021	03:01:31	0	0	4,858689	3,492	36,9288	-1,133	79,575	0	1009,2	4,8	7,1	6,9	1	1	1	1	1	1	1	1	1	0	1	-66,384778	272,293823	245,313368	0
15.01.2021	03:01:32	0	0	3,615769	3,54675	65,0988	-1,136	79,594	0	1009,26	4,8	7,1	6,9	1	1	1	1	1	1	1	1	1	0	1	-67,935166	272,22468	243,446502	0
15.01.2021	03:01:33	0	0	3,163798	3,32775	29,1024	-1,129	79,633	0	1009,14	4,8	7,1	6,9	1	1	1	1	1	1	1	1	1	0	1	-67,723749	272,281603	243,918447	0
15.01.2021	03:01:34	0	0	2,937794	3,23475	49,9572	-1,128	79,661	0	1009,22	4,8	7,1	7	1	1	1	1	1	1	1	1	1	0	1	-66,737139	272,375491	245,335119	0
15.01.2021	03:01:35	0	0	4,971682	2,892	57,42	-1,129	79,688	0	1009,26	4,8	7,1	6,9	1	1	1	1	1	1	1	1	1	0	1	-64,763918	272,230094	246,642521	0
15.01.2021	03:01:36	0	0	3,728761	2,832	48,5784	-1,132	79,717	0	1009,26	4,8	7,1	6,9	1	1	1	1	1	1	1	1	1	0	1	-66,384778	272,277532	245,238778	0
15.01.2021	03:01:37	0	0	3,389783	2,85075	24,7392	-1,129	79,733	0	1009,16	4,8	7,1	6,9	1	1	1	1	1	1	1	1	1	0	1	-66,102889	272,337336	245,794542	0
15.01.2021	03:01:38	0	0	4,858689	2,73375	42,6096	-1,125	79,745	0	1009,2	4,8	7,1	6,9	1	1	1	1	1	1	1	1	1	0	1	-68,992248	272,426027	243,311681	0
15.01.2021	03:01:39	0	0	3,163798	2,526	63,8568	-1,121	79,762	0	1009,32	4,8	7,1	6,9	1	1	1	1	1	1	1	1	1	0	1	-64,622974	272,261254	246,926068	0
15.01.2021	03:01:40	0	0	3,728739	2,445	23,9796	-1,125	79,781	0	1009,26	4,8	7,1	7	1	1	1	1	1	1	1	1	1	0	1	-67,0895	272,356404	244,895292	0
15.01.2021	03:01:41	0	0	2,71181	2,32425	48,1284	-1,126	79,782	0	1009,18	4,8	7,1	7	1	1	1	1	1	1	1	1	1	0	1	-67,512333	272,426027	244,791596	0
15.01.2021	03:01:42	0	0	3,841731	2,53425	60,9336	-1,12	79,785	0	1009,22	4,8	7,1	7	1	1	1	1	1	1	1	1	1	0	1	-64,622974	272,357767	247,368062	0
15.01.2021	03:01:43	0	0	4,406692	2,766	48,834	-1,126	79,79	0	1009,2	4,8	7,1	7	1	1	1	1	1	1	1	1	1	0	1	-71,740662	272,297898	239,976143	0
15.01.2021	03:01:44	0	0	4,85866	2,85075	65,4588	-1,118	79,815	0	1009,28	4,8	7,1	7	1	1	1	1	1	1	1	1	1	0	1	-67,019027	272,41919	245,253551	0
15.01.2021	03:01:45	0	0	4,180707	2,78925	71,5932	-1,118	79,809	0	1009,32	4,8	7,1	7	1	1	1	1	1	1	1	1	1	0	1	-65,821001	272,334614	246,063959	0
15.01.2021	03:01:46	0	0	3,615769	2,66175	46,2492	-1,119	79,816	0	1009,34	4,8	7,1	6,9	1	1	1	1	1	1	1	1	1	0	1	-63,777308	272,382312	248,326214	0
15.01.2021	03:01:47	0	0	2,598834	2,63775	42,912	-1,114	79,826	0	1009,3	4,8	7,1	6,9	1	1	1	1	1	1	1	1	1	0	1	-64,83439	272,439709	247,53228	0
15.01.2021	03:01:48	0	0	3,615769	2,5935	43,6752	-1,115	79,845	0	1009,1	4,8	7,1	6,9	1	1	1	1	1	1	1	1	1	0	1	-61,87456	272,312848	249,910706	0
15.01.2021	03:01:49	0	0	3,276771	2,5605	34,7256	-1,112	79,842	0	1009,16	4,7	7,1	7	1	1	1	1	1	1	1	1	1	0	1	-66,032417	272,266678	245,541454	0
15.01.2021	03:01:50	0	0	3,050786	2,64075	57,132	-1,115	79,851	0	1009,12	4,8	7,1	7	1	1	1	1	1	1	1	1	1	0	1	-71,035941	272,346868	240,905158	0
15.01.2021	03:01:51	0	0	3,954723	2,799	43,668	-1,106	79,854	0	1009,18	4,8	7,2	7	1	1	1	1	1	1	1	1	1	0	1	-66,45525	272,272104	245,143459	0
15.01.2021	03:01:52	0	0	3,276771	2,76075	49,9572	-1,109	79,887	0	1009,3	4,7	7,1	7	1	1	1	1	1	1	1	1	1	0	1	-66,807611	272,259898	244,735225	0
15.01.2021	03:01:53	0	0	4,85866	2,5875	54,0684	-1,105	79,888	0	1009,06	4,8	7,1	7	1	1	1	1	1	1	1	1	1	0	1	-70,754052	272,335975	241,137143	0
15.01.2021	03:01:54	0	0	2,372848	2,52375	35,8668	-1,11	79,876	0	1009,2	4,7	7,1	6,9	1	1	1	1	1	1	1	1	1	0	1	-65,257223	272,443815	247,12828	0
15.01.2021	03:01:55	0	0	2,937794	2,57625	40,9824	-1,108	79,894	0	1009,28	4,8	7,1	7	1	1	1	1	1	1	1	1	1	0	1	-66,807611	272,372763	245,252145	0
15.01.2021	03:01:56	0	0	3,276771	2,5875	46,6164	-1,103	79,871	0	1009,2	4,7	7,1	7	1	1	1	1	1	1	1	1	1	0	1	-67,723749	272,442446	244,655476	0
15.01.2021	03:01:57	0	0	2,824819	2,5665	56,7396	-1,107	79,851	0	1009,26	4,7	7,2	6,9	1	1	1	1	1	1	1	1	1	0	1	-68,780832	272,281603	242,861364	0
15.01.2021	03:01:58	0	0	2,598818	2,55	56,6748	-1,1	79,84	0	1009,32	4,8	7,1	7	1	1	1	1	1	1	1	1	1	0	1	-69,274137	272,342782	242,648244	0
15.01.2021	03:01:59	0	0	4,519711	2,742	51,4476	-1,106	79,818	0	1009,28	4,8	7,1	6,9	1	1	1	1	1	1	1	1	1	0	1	-68,07611	272,435603	244,271732	0
15.01.2021	03:02:00	0	0	4,85866	3,0585	46,5912	-1,101	79,777	0	1009,24	4,7	7,1	7	1	1	1	1	1	1	1	1	1	0	1	-69,274137	272,432867	243,061156	0
15.01.2021	03:02:01	0	0	4,85866	3,0585	46,5912	-1,101	79,777	0	1009,24	4,7	7,1	7	1	1	1	1	1	1	1	1	1	0	1	-69,274137	272,432867	243,061156	0
15.01.2021	03:02:02	0	0	2,259869	3,35475	55,1664	-1,103	79,753	0	1009,18	4,7	7,1	6,8	1	1	1	1	1	1	1	1	1	0	1	-65,186751	272,261254	246,362291	0
15.01.2021	03:02:03	0	0	4,519684	3,615	54,486	-1,102	79,721	0	1009,18	4,7	7,2	7	1	1	1	1	1	1	1	1	1	0	1	-65,327696	272,357767	246,66334	0
15.01.2021	03:02:04	0	0	3,163779	3,732	49,6512	-1,101	79,682	0	1009,24	4,7	7,1	7	1	1	1	1	1	1	1	1	1	0	1	-68,07611	272,450661	244,340793	0
15.01.2021	03:02:05	0	0	3,502755	3,43725	44,3916	-1,1	79,671	0	1009,12	4,8	7,2	7	1	1	1	1	1	1	1	1	1	0	1	-65,327696	272,291107	246,358013	0
15.01.2021	03:02:06	0	0	2,485826	3,23475	62,7912	-1,096	79,659	0	1009,24	4,7	7,2	7	1	1	1	1	1	1	1	1	1	0	1	-68,005638	272,45203	244,417546	0
15.01.2021	03:02:07	0	0	2,598818	2,9115	20,2932	-1,102	79,616	0	1009,26	4,7	7,2	7	1	1	1	1	1	1	1	1	1	0	1	-66,032417	272,314208	245,759075	0
15.01.2021	03:02:08	0	0	5,310628	2,7675	50,3856	-1,095	79,628	0	1009,22	4,7	7,2	7	1	1	1	1	1	1	1	1	1	0	1	-67,159972	272,321007	244,662663	0
15.01.2021	03:02:09	0	0	2,71181	2,51625	29,9592	-1,093	79,625	0	1009,24	4,7	7,2	7	1	1	1	1	1	1	1	1	1	0	1	-67,019027	272,280246	244,616955	0
15.01.2021	03:02:10	0	0	3,276771	2,253	45,1548	-1,09	79,603	0	1009,26	4,7	7,1	7	1	1	1	1	1	1	1	1	1	0	1	-67,653277	272,353679	244,319028	0
15.01.2021	03:02:11	0	0	2,71181	2,2575	22,0896	-1,092	79,585	0	1009,18	4,7	7,2	7	1	1	1	1	1	1	1	1	1	0	1	-65,609584	272,4534	246,819882	0
15.01.2021	03:02:12	0	0	3,163779	2,40225	35,4924	-1,09	79,577	0	1009,28	4,7	7,1	7	1	1	1	1	1	1	1	1	1	0	1	-63,284003	272,349592	248,669577	0
15.01.2021	03:02:13	0	0	2,824802	2,37675	31,7808	-1,09	79,551	0	1009,34	4,8	7,2	7	1	1	1	1	1	1	1	1	1	0	1	-68,217054	272,435603	244,130788	0
15.01.2021	03:02:14	0	0	2,937794	2,35425	33,2604	-1,098	79,542	0	1009,28	4,7	7,2	7	1	1	1	1	1	1	1	1	1	0	1	-66,45525	272,460249	246,005634	0
15.01.2021	03:02:15	0	0	3,841731	2,50125	48,5028	-1,091	79,53	0	1009,3	4,8	7,2	7	1	1	1	1	1	1	1	1	1	0	1	-68,780832	272,303333	242,960861	0
15.01.2021	03:02:16	0	0	4,632676	2,5485	45,8568	-1,091	79,514	0	1009,3	4,7	7,2	7	1	1	1	1	1	1	1	1	1	0	1	-73,713883	272,311488	238,065156	0
15.01.2021	03:02:17	0	0	3,389763	2,4735	37,6884	-1,09	79,496	0	1009,16	4,7	7,1	7	1	1	1	1	1	1	1	1	1	0	1	-65,045807	272,277532	246,577749	0
15.01.2021	03:02:18	0	0	2,824802	2,256	31,032	-1,089	79,499	0	1009,14	4,8	7,1	7	1	1	1	1	1	1	1	1	1	0	1	-71,106413	272,40006	241,078457	0
15.01.2021	03:02:19	0	0	4,406692	2,0085	18,8496	-1,084	79,482	0	1009,26	4,7	7,2	7	1	1	1	1	1	1	1	1	1	0	1	-70,049331	272,4534	242,380136	0
15.01.2021	03:02:20	0	0	3,050786	2,1825	42,6168	-1,087	79,489	0	1009,38	4,8	7,2	7	1	1	1	1	1	1	1	1	1	0	1	-63,636364	272,306051	248,117776	0
15.01.2021	03:02:21	0	0	4,406692	2,53125	41,022	-1,089	79,461	0	1009,16	4,8	7,2	7	1	1	1	1	1	1	1	1	1	0	1	-64,200141	272,398694	247,978468	0
15.01.2021	03:02:22	0	0	3,841731	2,67	51,7608	-1,087	79,452	0	1009,24	4,8	7,2	7	1	1	1	1	1	1	1	1	1	0	1	-70,472163	272,295182	241,232202	0
15.01.2021	03:02:23	0	0	3,389763	2,646	53,7444	-1,088	79,447	0	1009,24	4,7	7,2	7	1	1	1	1	1	1	1	1	1	0	1	-67,512333	272,337336	244,385099	0
15.01.2021	03:02:24	0	0	3,841731	2,58975	43,3152	-1,088	79,413	0	1009,26	4,8	7,2	7	1	1	1	1	1	1	1	1	1	0	1	-65,821001	272,304692	245,926915	0
15.01.2021	03:02:25	0	0	3,728739	2,56125	47,3652	-1,094	79,412	0	1009,22	4,7	7,2	7	1	1	1	1	1	1	1	1	1	0	1	-67,794221	272,335975	244,096974	0
15.01.2021	03:02:26	0	0	3,954723	2,52075	44,4132	-1,082	79,416	0	1009,3	4,8	7,2	7	1	1	1	1	1	1	1	1	1	0	1	-65,680056	272,331891	246,192434	0
15.01.2021	03:02:27	0	0	2,824802	2,54325	43,9524	-1,086	79,421	0	1009,18	4,8	7,2	7	1	1	1	1	1	1	1	1	1	0	1	-68,498943	272,472584	244,018529	0
15.01.2021	03:02:28	0	0	4,180707	2,61075	52,128	-1,085	79,419	0	1009,04	4,8	7,2	7	1	1	1	1	1	1	1	1	1	0	1	-65,539112	272,314208	246,252381	0
15.01.2021	03:02:29	0	0	2,824802	2,628	39,1824	-1,087	79,405	0	1009,22	4,8	7,2	7	1	1	1	1	1	1	1	1	1	0	1	-63,213531	272,45203	249,209653	0
15.01.2021	03:02:30	0	0	3,389763	2,64975	25,4232	-1,089	79,396	0	1009,1	4,8	7,2	7	1	1	1	1	1	1	1	1	1	0	1	-62,367865	272,316927	249,436083	0
15.01.2021	03:02:31	0	0	4,85866	2,69175	37,6992	-1,082	79,38	0	1009,24	4,8	7,2	7	1	1	1	1	1	1	1	1	1	0	1	-67,582805	272,321007	244,23983	0
15.01.2021	03:02:32	0	0	3,389763	2,8575	54,7992	-1,084	79,381	0	1009,18	4,8	7,2	7	1	1	1	1	1	1	1	1	1	0	1	-64,270613	272,323728	247,564483	0
15.01.2021	03:02:33	0	0	3,841731	3,027	56,286	-1,085	79,377	0	1009,3	4,8	7,2	7	1	1	1	1	1	1	1	1	1	0	1	-68,357999	272,32917	243,502025	0
15.01.2021	03:02:34	0	0	4,745668	2,90625	47,0664	-1,091	79,376	0	1009,06	4,8	7,2	7	1	1	1	1	1	1	1	1	1	0	1	-69,767442	272,465731	242,718587	0
15.01.2021	03:02:35	0	0	3,163779	2,70075	48,1284	-1,081	79,385	0	1009,18	4,8	7,1	7	1	1	1	1	1	1	1	1	1	0	1	-62,367865	272,346868	249,573234	0
15.01.2021	03:02:36	0	0	3,502755	2,61525	63,4968	-1,086	79,376	0	1009,2	4,8	7,2	7	1	1	1	1	1	1	1	1	1	0	1	-65,46864	272,45477	246,967109	0
15.01.2021	03:02:37	0	0	2,485826	2,61	58,4928	-1,09	79,362	0	1009,22	4,8	7,2	7	1	1	1	1	1	1	1	1	1	0	1	-66,807611	272,467101	245,684705	0
15.01.2021	03:02:38	0	0	3,615747	2,56275	54,7992	-1,08	79,377	0	1009,2	4,8	7,2	7	1	1	1	1	1	1	1	1	1	0	1	-64,904863	272,397328	247,267486	0
15.01.2021	03:02:39	0	0	2,485826	2,41275	38,4264	-1,088	79,373	0	1009,26	4,8	7,2	7	1	1	1	1	1	1	1	1	1	0	1	-62,156448	272,46436	250,323294	0
15.01.2021	03:02:40	0	0	4,180707	2,409	33,9444	-1,08	79,362	0	1009,18	4,8	7,2	7	1	1	1	1	1	1	1	1	1	0	1	-64,270613	272,30741	247,489751	0
15.01.2021	03:02:41	0	0	4,406692	2,4345	35,5032	-1,076	79,355	0	1009,3	4,8	7,2	7	1	1	1	1	1	1	1	1	1	0	1	-61,099366	272,412356	251,141876	0
15.01.2021	03:02:42	0	0	3,615747	2,451	48,816	-1,083	79,328	0	1009,28	4,8	7,2	7	1	1	1	1	1	1	1	1	1	0	1	-65,46864	272,46299	247,004816	0
15.01.2021	03:02:43	0	0	3,276771	2,433	38,7864	-1,085	79,316	0	1009,2	4,8	7,2	7	1	1	1	1	1	1	1	1	1	0	1	-65,680056	272,30877	246,086532	0
15.01.2021	03:02:44	0	0	4,85866	2,41125	49,1976	-1,08	79,318	0	1009,22	4,8	7,2	7	1	1	1	1	1	1	1	1	1	0	1	-66,102889	272,375491	245,969369	0
15.01.2021	03:02:45	0	0	3,841731	2,406	46,6128	-1,076	79,311	0	1009,32	4,8	7,2	7	1	1	1	1	1	1	1	1	1	0	1	-68,357999	272,319647	243,458407	0
15.01.2021	03:02:46	0	0	2,824802	2,43675	43,3152	-1,083	79,307	0	1009,28	4,8	7,2	7	1	1	1	1	1	1	1	1	1	0	1	-62,720226	272,295182	248,98414	0
15.01.2021	03:02:47	0	0	4,745668	2,39175	16,5024	-1,081	79,289	0	1009,5	4,8	7,2	7	1	1	1	1	1	1	1	1	1	0	1	-63,284003	272,410989	248,950974	0
15.01.2021	03:02:48	0	0	3,050786	2,36925	36,2268	-1,081	79,296	0	1009,22	4,8	7,1	7	1	1	1	1	1	1	1	1	1	0	1	-69,133192	272,469843	243,371701	0
15.01.2021	03:02:49	0	0	3,050786	2,33625	24,336	-1,083	79,277	0	1009,14	4,8	7,2	7	1	1	1	1	1	1	1	1	1	0	1	-67,230444	272,446553	245,167618	0
15.01.2021	03:02:50	0	0	3,163779	2,21475	26,9136	-1,081	79,284	0	1009,22	4,8	7,2	7	1	1	1	1	1	1	1	1	1	0	1	-69,837914	272,431499	242,491105	0
15.01.2021	03:02:51	0	0	4,971652	2,19525	56,6424	-1,079	79,277	0	1009,28	4,8	7,2	7	1	1	1	1	1	1	1	1	1	0	1	-67,159972	272,303333	244,581721	0
15.01.2021	03:02:52	0	0	3,050786	2,253	42,3144	-1,078	79,278	0	1009,08	4,8	7,2	7	1	1	1	1	1	1	1	1	1	0	1	-70,542636	272,413722	241,704873	0
15.01.2021	03:02:53	0	0	3,050786	2,54475	50,3244	-1,079	79,25	0	1009,2	4,8	7,2	7	1	1	1	1	1	1	1	1	1	0	1	-61,733615	272,300616	249,995633	0
15.01.2021	03:02:54	0	0	4,067715	2,66775	54,126	-1,08	79,239	0	1009,3	4,8	7,2	7	1	1	1	1	1	1	1	1	1	0	1	-68,217054	272,42466	244,080604	0
15.01.2021	03:02:55	0	0	3,728739	2,75925	45,2196	-1,079	79,236	0	1009,28	4,8	7,1	7	1	1	1	1	1	1	1	1	1	0	1	-68,217054	272,368672	243,823954	0
15.01.2021	03:02:56	0	0	4,745668	2,877	51,444	-1,084	79,215	0	1009,22	4,8	7,1	7	1	1	1	1	1	1	1	1	1	0	1	-73,995772	272,473955	238,52799	0
15.01.2021	03:02:57	0	0	3,615747	2,92875	60,552	-1,08	79,226	0	1009,24	4,8	7,1	7	1	1	1	1	1	1	1	1	1	0	1	-64,129669	272,405523	248,08025	0
15.01.2021	03:02:58	0	0	2,71181	3,17625	57,0456	-1,08	79,216	0	1009,26	4,8	7,1	7	1	1	1	1	1	1	1	1	1	0	1	-69,837914	272,486299	242,742485	0
15.01.2021	03:02:59	0	0	4,519684	3,5325	51,0624	-1,083	79,206	0	1009,22	4,8	7,1	7	1	1	1	1	1	1	1	1	1	0	1	-65,821001	272,379584	246,270014	0
15.01.2021	03:03:00	0	0	3,050786	3,60525	42,9156	-1,074	79,175	0	1009,08	4,8	7,2	7	1	1	1	1	1	1	1	1	1	0	1	-64,270613	272,29654	247,439972	0
15.01.2021	03:03:01	0	0	3,050786	3,60525	42,9156	-1,074	79,175	0	1009,08	4,8	7,2	7	1	1	1	1	1	1	1	1	1	0	1	-64,270613	272,29654	247,439972	0
15.01.2021	03:03:02	0	0	4,632676	3,68475	49,2084	-1,078	79,17	0	1009,28	4,8	7,1	7	1	1	1	1	1	1	1	1	1	0	1	-63,918252	272,415089	248,335523	0
15.01.2021	03:03:03	0	0	3,389763	4,293	62,1432	-1,081	79,146	0	1009,32	4,8	7,1	7	1	1	1	1	1	1	1	1	1	0	1	-66,243834	272,465731	246,242195	0
15.01.2021	03:03:04	0	0	3,841731	4,43025	46,2276	-1,082	79,146	0	1009,14	4,8	7,1	7	1	1	1	1	1	1	1	1	1	0	1	-67,159972	272,345506	244,774887	0
15.01.2021	03:03:05	0	0	4,745696	3,984	36,612	-1,085	79,145	0	1009,18	4,8	7,1	6,9	1	1	1	1	1	1	1	1	1	0	1	-69,69697	272,356404	242,287822	0
15.01.2021	03:03:06	0	0	4,971652	4,0275	40,2588	-1,085	79,142	0	1009,28	4,8	7,1	7	1	1	1	1	1	1	1	1	1	0	1	-62,297393	272,306051	249,456747	0
15.01.2021	03:03:07	0	0	4,745696	3,927	48,6144	-1,081	79,141	0	1009,12	4,8	7,1	6,9	1	1	1	1	1	1	1	1	1	0	1	-61,945032	272,410989	250,289945	0
15.01.2021	03:03:08	0	0	4,85866	4,104	46,9764	-1,083	79,16	0	1009,18	4,8	7,1	7	1	1	1	1	1	1	1	1	1	0	1	-67,582805	272,472584	244,934667	0
15.01.2021	03:03:09	0	0	3,389763	4,14075	52,1352	-1,083	79,164	0	1009,24	4,8	7,1	7	1	1	1	1	1	1	1	1	1	0	1	-68,287526	272,364582	243,734738	0
15.01.2021	03:03:10	0	0	4,067715	4,19025	55,6488	-1,085	79,18	0	1009,32	4,8	7,1	7	1	1	1	1	1	1	1	1	1	0	1	-67,019027	272,322367	244,809838	0
15.01.2021	03:03:11	0	0	2,824802	4,1325	55,5588	-1,081	79,186	0	1009,14	4,8	7,1	7	1	1	1	1	1	1	1	1	1	0	1	-65,821001	272,303333	245,920692	0
15.01.2021	03:03:12	0	0	4,406718	3,894	53,3484	-1,082	79,201	0	1009,3	4,8	7,1	6,9	1	1	1	1	1	1	1	1	1	0	1	-66,878083	272,34823	245,069256	0
15.01.2021	03:03:13	0	0	3,615769	3,5535	41,0076	-1,086	79,215	0	1009,22	4,8	7,1	6,9	1	1	1	1	1	1	1	1	1	0	1	-68,428471	272,43834	243,931923	0
15.01.2021	03:03:14	0	0	2,146837	3,31725	50,3136	-1,085	79,221	0	1009,24	4,8	7,1	7,1	1	1	1	1	1	1	1	1	1	0	1	-65,257223	272,483555	247,310585	0
15.01.2021	03:03:15	0	0	4,519711	2,99925	48,114	-1,087	79,21	0	1009,18	4,8	7,1	6,9	1	1	1	1	1	1	1	1	1	0	1	-69,344609	272,426027	242,95932	0
15.01.2021	03:03:16	0	0	2,598818	2,8155	41,0184	-1,082	79,223	0	1009,18	4,8	7,1	7	1	1	1	1	1	1	1	1	1	0	1	-66,525722	272,480812	246,029499	0
15.01.2021	03:03:17	0	0	3,615747	2,63475	36,2484	-1,084	79,21	0	1009,12	4,8	7,1	7	1	1	1	1	1	1	1	1	1	0	1	-65,539112	272,327809	246,314679	0
15.01.2021	03:03:18	0	0	2,71181	2,661	34,7184	-1,082	79,222	0	1009,3	4,8	7,1	7	1	1	1	1	1	1	1	1	1	0	1	-65,609584	272,378219	246,475178	0
15.01.2021	03:03:19	0	0	4,971682	2,92875	29,9556	-1,086	79,219	0	1009,36	4,8	7,1	6,9	1	1	1	1	1	1	1	1	1	0	1	-62,86117	272,319647	248,955236	0
15.01.2021	03:03:20	0	0	3,841731	3,13425	45,162	-1,085	79,222	0	1009,22	4,8	7,1	7	1	1	1	1	1	1	1	1	1	0	1	-73,854827	272,385042	238,261203	0
15.01.2021	03:03:21	0	0	3,050805	3,1125	68,004	-1,087	79,227	0	1009,16	4,8	7,1	6,9	1	1	1	1	1	1	1	1	1	0	1	-64,622974	272,311488	247,156066	0
15.01.2021	03:03:22	0	0	5,536612	2,83425	54,1188	-1,082	79,239	0	1009,24	4,8	7,1	7	1	1	1	1	1	1	1	1	1	0	1	-70,049331	272,390501	242,091725	0
15.01.2021	03:03:23	0	0	4,85866	2,6025	61,3188	-1,078	79,23	0	1009,24	4,8	7,1	7	1	1	1	1	1	1	1	1	1	0	1	-68,07611	272,480812	244,479111	0
15.01.2021	03:03:24	0	0	2,372834	2,1645	45,1728	-1,078	79,246	0	1009,28	4,8	7,1	7	1	1	1	1	1	1	1	1	1	0	1	-64,83439	272,34142	247,081752	0
15.01.2021	03:03:25	0	0	3,728717	1,83525	4,248	-1,081	79,256	0	1009,26	4,8	7,1	7,1	1	1	1	1	1	1	1	1	1	0	1	-68,569415	272,415089	243,68436	0
15.01.2021	03:03:26	0	0	5,084644	1,7745	33,9444	-1,075	79,242	0	1009,3	4,8	7,1	7	1	1	1	1	1	1	1	1	1	0	1	-66,525722	272,318287	245,284454	0
15.01.2021	03:03:27	0	0	4,293725	1,869	35,0928	-1,086	79,245	0	1009,26	4,8	7,1	6,9	1	1	1	1	1	1	1	1	1	0	1	-65,46864	272,443815	246,916864	0
15.01.2021	03:03:28	0	0	5,197636	1,944	40,608	-1,076	79,251	0	1009,28	4,9	7,1	7	1	1	1	1	1	1	1	1	1	0	1	-66,807611	272,312848	244,977655	0
15.01.2021	03:03:29	0	0	5,084644	1,98075	29,5848	-1,08	79,234	0	1009,34	4,8	7,1	7	1	1	1	1	1	1	1	1	1	0	1	-66,173362	272,301974	245,562109	0
15.01.2021	03:03:30	0	0	4,745696	2,16675	50,3064	-1,082	79,228	0	1009,26	4,8	7,1	6,9	1	1	1	1	1	1	1	1	1	0	1	-63,777308	272,368672	248,2637	0
15.01.2021	03:03:31	0	0	2,824819	2,208	48,1248	-1,079	79,218	0	1009,18	4,9	7,1	6,9	1	1	1	1	1	1	1	1	1	0	1	-66,102889	272,315567	245,694831	0
15.01.2021	03:03:32	0	0	3,050786	2,208	48,8196	-1,069	79,227	0	1009,34	4,8	7,2	7	1	1	1	1	1	1	1	1	1	0	1	-66,596195	272,415089	245,657581	0
15.01.2021	03:03:33	0	0	4,293699	2,31225	38,4192	-1,08	79,21	0	1009,36	4,8	7,1	7	1	1	1	1	1	1	1	1	1	0	1	-70,542636	272,487671	242,044059	0
15.01.2021	03:03:34	0	0	3,27679	2,3535	41,832	-1,073	79,267	0	1009,28	4,8	7,1	6,9	1	1	1	1	1	1	1	1	1	0	1	-68,217054	272,480812	244,338167	0
15.01.2021	03:03:35	0	0	4,971682	2,35125	54,486	-1,089	79,19	0	1009,08	4,8	7,1	6,9	1	1	1	1	1	1	1	1	1	0	1	-64,270613	272,476698	248,265731	0
15.01.2021	03:03:36	0	0	3,050786	2,35275	59,8536	-1,078	79,206	0	1009,22	4,9	7,1	7	1	1	1	1	1	1	1	1	1	0	1	-67,44186	272,314208	244,349632	0
15.01.2021	03:03:37	0	0	3,050786	2,334	48,1104	-1,081	79,192	0	1009,3	4,8	7,2	7	1	1	1	1	1	1	1	1	1	0	1	-64,552502	272,352316	247,413561	0
15.01.2021	03:03:38	0	0	2,937794	2,256	34,344	-1,079	79,196	0	1009,42	4,9	7,2	7	1	1	1	1	1	1	1	1	1	0	1	-65,46864	272,482184	247,092875	0
15.01.2021	03:03:39	0	0	3,389763	2,199	44,0496	-1,074	79,184	0	1009,26	4,8	7,1	7	1	1	1	1	1	1	1	1	1	0	1	-64,411557	272,331891	247,460933	0
15.01.2021	03:03:40	0	0	3,276771	2,38425	45,846	-1,075	79,17	0	1009,2	4,9	7,1	7	1	1	1	1	1	1	1	1	1	0	1	-63,495419	272,430131	248,827326	0
15.01.2021	03:03:41	0	0	4,971652	2,6415	41,8464	-1,08	79,153	0	1009,3	4,9	7,2	7	1	1	1	1	1	1	1	1	1	0	1	-65,750529	272,47944	246,7984	0
15.01.2021	03:03:42	0	0	3,163779	2,88	45,5292	-1,073	79,145	0	1009,26	4,9	7,2	7	1	1	1	1	1	1	1	1	1	0	1	-64,129669	272,352316	247,836394	0
15.01.2021	03:03:43	0	0	2,598818	3,12525	39,5568	-1,081	79,135	0	1009,16	4,8	7,2	7	1	1	1	1	1	1	1	1	1	0	1	-67,723749	272,47944	244,825179	0
15.01.2021	03:03:44	0	0	3,615747	3,14175	45,1476	-1,074	79,114	0	1009,28	4,8	7,2	7	1	1	1	1	1	1	1	1	1	0	1	-70,119803	272,467101	242,372514	0
15.01.2021	03:03:45	0	0	4,067715	3,18675	45,5292	-1,083	79,105	0	1009,1	4,9	7,2	7	1	1	1	1	1	1	1	1	1	0	1	-67,794221	272,405523	244,415698	0
15.01.2021	03:03:46	0	0	3,954723	3,438	48,4992	-1,073	79,087	0	1009,3	4,8	7,2	7	1	1	1	1	1	1	1	1	1	0	1	-66,45525	272,30877	245,311338	0
15.01.2021	03:03:47	0	0	4,745668	3,5175	49,2912	-1,079	79,085	0	1009,28	4,9	7,2	7	1	1	1	1	1	1	1	1	1	0	1	-67,230444	272,478069	245,312192	0
15.01.2021	03:03:48	0	0	3,954723	3,33525	42,606	-1,08	79,088	0	1009,2	4,8	7,2	7	1	1	1	1	1	1	1	1	1	0	1	-63,495419	272,333252	248,383306	0
15.01.2021	03:03:49	0	0	3,276771	3,171	35,8704	-1,077	79,079	0	1009,24	4,9	7,1	7	1	1	1	1	1	1	1	1	1	0	1	-64,693446	272,331891	247,179045	0
15.01.2021	03:03:50	0	0	4,067715	3,1215	47,3724	-1,076	79,056	0	1009,14	4,7	7,1	7	1	1	1	1	1	1	1	1	1	0	1	-63,002114	272,467101	249,490202	0
15.01.2021	03:03:51	0	0	3,163779	3,1425	46,602	-1,077	79,055	0	1009,28	4,8	7,1	7	1	1	1	1	1	1	1	1	1	0	1	-65,46864	272,306051	246,2855	0
15.01.2021	03:03:52	0	0	5,084644	3,18	44,784	-1,08	79,053	0	1009,32	4,9	7,1	7	1	1	1	1	1	1	1	1	1	0	1	-74,700493	272,385042	237,415537	0
15.01.2021	03:03:53	0	0	2,372834	3,29175	51,0768	-1,08	79,046	0	1009,28	4,7	7,1	7	1	1	1	1	1	1	1	1	1	0	1	-68,639887	272,304692	243,108029	0
15.01.2021	03:03:54	0	0	5,197636	3,39825	44,7984	-1,078	79,033	0	1009,28	4,9	7,2	7	1	1	1	1	1	1	1	1	1	0	1	-65,750529	272,391866	246,396785	0
15.01.2021	03:03:55	0	0	3,050786	3,26925	45,5328	-1,077	79,028	0	1009,4	4,8	7,2	7	1	1	1	1	1	1	1	1	1	0	1	-64,552502	272,306051	247,201638	0
15.01.2021	03:03:56	0	0	3,050786	3,14475	48,492	-1,077	79,015	0	1009,24	4,9	7,2	7	1	1	1	1	1	1	1	1	1	0	1	-63,565891	272,335975	248,325304	0
15.01.2021	03:03:57	0	0	2,824802	3,18075	53,3484	-1,077	79,016	0	1009,28	4,8	7,2	7	1	1	1	1	1	1	1	1	1	0	1	-67,230444	272,46436	245,249298	0
15.01.2021	03:03:58	0	0	3,276771	3,2565	52,1388	-1,075	79,02	0	1009,26	4,9	7,2	7	1	1	1	1	1	1	1	1	1	0	1	-66,737139	272,321007	245,085496	0
15.01.2021	03:03:59	0	0	3,615747	3,42	52,1352	-1,077	79,016	0	1009,2	4,9	7,2	7	1	1	1	1	1	1	1	1	1	0	1	-66,173362	272,409622	246,05535	0
15.01.2021	03:04:00	0	0	2,937794	3,3195	45,5472	-1,077	79,022	0	1009,26	4,9	7,2	7	1	1	1	1	1	1	1	1	1	0	1	-64,059197	272,372763	248,00056	0
15.01.2021	03:04:01	0	0	2,937794	3,3195	45,5472	-1,077	79,022	0	1009,26	4,9	7,2	7	1	1	1	1	1	1	1	1	1	0	1	-64,059197	272,372763	248,00056	0
15.01.2021	03:04:02	0	0	4,406692	3,723	49,6044	-1,077	79,024	0	1009,28	4,9	7,2	7	1	1	1	1	1	1	1	1	1	0	1	-66,032417	272,360492	245,971109	0
15.01.2021	03:04:03	0	0	3,502755	3,9495	41,0184	-1,079	79	0	1009,28	4,8	7,1	7	1	1	1	1	1	1	1	1	1	0	1	-65,045807	272,473955	247,477955	0
15.01.2021	03:04:04	0	0	3,163779	4,0785	46,6092	-1,081	79,005	0	1009,18	4,9	7,2	7	1	1	1	1	1	1	1	1	1	0	1	-66,032417	272,310129	245,740396	0
15.01.2021	03:04:05	0	0	3,163779	3,8625	45,5256	-1,082	78,998	0	1009,28	4,9	7,2	7	1	1	1	1	1	1	1	1	1	0	1	-65,045807	272,404157	247,157849	0
15.01.2021	03:04:06	0	0	3,163779	3,44625	42,2244	-1,08	78,97	0	1009,24	4,8	7,2	7	1	1	1	1	1	1	1	1	1	0	1	-66,666667	272,30741	245,093697	0
15.01.2021	03:04:07	0	0	3,728739	3,216	46,9656	-1,082	78,962	0	1009,4	4,8	7,1	7	1	1	1	1	1	1	1	1	1	0	1	-67,512333	272,415089	244,741442	0
15.01.2021	03:04:08	0	0	2,824802	3,34125	31,3956	-1,081	78,948	0	1009,3	4,9	7,2	7	1	1	1	1	1	1	1	1	1	0	1	-67,230444	272,310129	244,54237	0
15.01.2021	03:04:09	0	0	5,084644	3,42075	40,608	-1,077	78,947	0	1009,22	4,9	7,2	7	1	1	1	1	1	1	1	1	1	0	1	-68,217054	272,46299	244,256401	0
15.01.2021	03:04:10	0	0	4,971652	3,23925	39,8664	-1,079	78,945	0	1009,4	4,9	7,2	7	1	1	1	1	1	1	1	1	1	0	1	-66,666667	272,417823	245,599644	0
15.01.2021	03:04:11	0	0	4,067715	2,967	37,6848	-1,079	78,941	0	1009,26	4,9	7,2	7	1	1	1	1	1	1	1	1	1	0	1	-63,636364	272,311488	248,142676	0
15.01.2021	03:04:12	0	0	4,745668	2,87625	44,0568	-1,08	78,925	0	1009,32	4,8	7,2	7	1	1	1	1	1	1	1	1	1	0	1	-63,424947	272,34142	248,491195	0
15.01.2021	03:04:13	0	0	3,276771	2,88075	49,5864	-1,08	78,926	0	1009,24	4,8	7,2	7	1	1	1	1	1	1	1	1	1	0	1	-66,173362	272,460249	246,287523	0
15.01.2021	03:04:14	0	0	4,406692	3,066	53,7408	-1,085	78,931	0	1009,3	4,8	7,2	7	1	1	1	1	1	1	1	1	1	0	1	-62,86117	272,315567	248,93655	0
15.01.2021	03:04:15	0	0	2,71181	3,1845	43,6752	-1,083	78,948	0	1009,24	4,9	7,2	7	1	1	1	1	1	1	1	1	1	0	1	-65,891473	272,344144	246,037147	0
15.01.2021	03:04:16	0	0	4,067715	3,27	30,348	-1,082	78,971	0	1009,4	4,8	7,2	7	1	1	1	1	1	1	1	1	1	0	1	-65,961945	272,482184	246,59957	0
15.01.2021	03:04:17	0	0	3,841731	3,27975	48,1068	-1,078	79,024	0	1009,26	4,9	7,2	7	1	1	1	1	1	1	1	1	1	0	1	-67,230444	272,439709	245,136226	0
15.01.2021	03:04:18	0	0	3,615747	3,2205	45,162	-1,075	79,057	0	1009,24	4,9	7,2	7	1	1	1	1	1	1	1	1	1	0	1	-68,639887	272,349592	243,313692	0
15.01.2021	03:04:19	0	0	3,954723	3,42225	32,9004	-1,083	79,072	0	1009,14	4,8	7,2	7	1	1	1	1	1	1	1	1	1	0	1	-64,48203	272,30877	247,284559	0
15.01.2021	03:04:20	0	0	3,163779	3,32475	24,3468	-1,076	79,093	0	1009,18	4,8	7,2	7	1	1	1	1	1	1	1	1	1	0	1	-67,582805	272,412356	244,658437	0
15.01.2021	03:04:21	0	0	4,293699	2,78475	38,4228	-1,078	79,106	0	1009,28	4,8	7,2	7	1	1	1	1	1	1	1	1	1	0	1	-70,68358	272,491788	241,922005	0
15.01.2021	03:04:22	0	0	3,954723	2,48175	52,128	-1,077	79,116	0	1009,18	4,9	7,2	7	1	1	1	1	1	1	1	1	1	0	1	-65,961945	272,344144	245,966674	0
15.01.2021	03:04:23	0	0	4,745668	2,32725	1,5624	-1,082	79,143	0	1009,36	4,9	7,2	7	1	1	1	1	1	1	1	1	1	0	1	-66,596195	272,333252	245,282531	0
15.01.2021	03:04:24	0	0	3,276771	2,061	19,9116	-1,078	79,163	0	1009,26	4,8	7,2	7	1	1	1	1	1	1	1	1	1	0	1	-69,133192	272,359129	242,864088	0
15.01.2021	03:04:25	0	0	4,519684	1,82025	16,1136	-1,072	79,169	0	1009,34	4,8	7,2	7	1	1	1	1	1	1	1	1	1	0	1	-66,666667	272,423292	245,624721	0
15.01.2021	03:04:26	0	0	4,180707	1,644	25,4376	-1,077	79,159	0	1009,28	4,8	7,2	7	1	1	1	1	1	1	1	1	1	0	1	-66,243834	272,331891	245,628657	0
15.01.2021	03:04:27	0	0	3,954723	1,5195	22,0932	-1,078	79,176	0	1009,26	4,8	7,2	7	1	1	1	1	1	1	1	1	1	0	1	-66,384778	272,486299	246,195621	0
15.01.2021	03:04:28	0	0	3,841731	1,49625	29,9484	-1,079	79,167	0	1009,24	4,8	7,2	7	1	1	1	1	1	1	1	1	1	0	1	-71,811135	272,415089	240,442641	0
15.01.2021	03:04:29	0	0	3,389763	1,4805	45,1548	-1,075	79,212	0	1009,2	4,8	7,2	7	1	1	1	1	1	1	1	1	1	0	1	-65,609584	272,337336	246,287847	0
15.01.2021	03:04:30	0	0	2,71181	1,48575	26,5212	-1,07	79,233	0	1009,42	4,8	7,2	7	1	1	1	1	1	1	1	1	1	0	1	-66,384778	272,337336	245,512653	0
15.01.2021	03:04:31	0	0	5,084644	1,50075	48,4884	-1,073	79,238	0	1009,26	4,8	7,2	7	1	1	1	1	1	1	1	1	1	0	1	-66,314306	272,450661	246,102597	0
15.01.2021	03:04:32	0	0	3,615747	1,63575	29,9448	-1,07	79,249	0	1009,2	4,8	7,2	7	1	1	1	1	1	1	1	1	1	0	1	-71,247357	272,389136	240,887441	0
15.01.2021	03:04:33	0	0	3,615747	1,8375	38,4264	-1,072	79,266	0	1009,24	4,8	7,2	7	1	1	1	1	1	1	1	1	1	0	1	-70,68358	272,335975	241,207615	0
15.01.2021	03:04:34	0	0	4,85866	2,10225	49,2084	-1,073	79,267	0	1009,32	4,8	7,2	7	1	1	1	1	1	1	1	1	1	0	1	-72,30444	272,471213	240,206742	0
15.01.2021	03:04:35	0	0	3,163779	2,178	44,4096	-1,073	79,266	0	1009,22	4,8	7,2	7	1	1	1	1	1	1	1	1	1	0	1	-68,07611	272,456139	244,365922	0
15.01.2021	03:04:36	0	0	3,841731	2,01225	29,9628	-1,069	79,271	0	1009,24	4,8	7,2	7	1	1	1	1	1	1	1	1	1	0	1	-70,894996	272,331891	240,977494	0
15.01.2021	03:04:37	0	0	4,745668	1,8675	32,1516	-1,072	79,27	0	1009,24	4,8	7,2	7	1	1	1	1	1	1	1	1	1	0	1	-66,525722	272,50689	246,149169	0
15.01.2021	03:04:38	0	0	4,293699	1,7745	31,7736	-1,076	79,272	0	1009,26	4,8	7,2	7	1	1	1	1	1	1	1	1	1	0	1	-66,948555	272,401425	245,242576	0
15.01.2021	03:04:39	0	0	4,745668	1,73925	36,3204	-1,065	79,273	0	1009,22	4,8	7,2	7	1	1	1	1	1	1	1	1	1	0	1	-68,07611	272,522004	244,668154	0
15.01.2021	03:04:40	0	0	2,71181	1,82175	35,0928	-1,069	79,279	0	1009,2	4,8	7,2	7	1	1	1	1	1	1	1	1	1	0	1	-70,613108	272,345506	241,321751	0
15.01.2021	03:04:41	0	0	4,519684	2,03325	34,3404	-1,068	79,282	0	1009,36	4,8	7,2	7	1	1	1	1	1	1	1	1	1	0	1	-64,622974	272,46436	247,856768	0
15.01.2021	03:04:42	0	0	2,824802	2,0685	35,1972	-1,068	79,265	0	1009,26	4,8	7,2	7	1	1	1	1	1	1	1	1	1	0	1	-69,556025	272,359129	242,441255	0
15.01.2021	03:04:43	0	0	4,519684	2,04975	41,4648	-1,066	79,281	0	1009,3	4,8	7,2	7	1	1	1	1	1	1	1	1	1	0	1	-63,002114	272,519255	249,729532	0
15.01.2021	03:04:44	0	0	3,389763	2,0145	40,2372	-1,069	79,278	0	1009,24	4,8	7,2	7	1	1	1	1	1	1	1	1	1	0	1	-66,878083	272,421925	245,407034	0
15.01.2021	03:04:45	0	0	4,745668	2,01075	31,4028	-1,064	79,274	0	1009,36	4,8	7,2	7	1	1	1	1	1	1	1	1	1	0	1	-64,129669	272,355041	247,84888	0
15.01.2021	03:04:46	0	0	4,971652	1,87725	35,8776	-1,065	79,262	0	1009,16	4,8	7,2	7	1	1	1	1	1	1	1	1	1	0	1	-70,613108	272,446553	241,784954	0
15.01.2021	03:04:47	0	0	2,824802	1,824	50,3172	-1,06	79,266	0	1009,36	4,8	7,2	7	1	1	1	1	1	1	1	1	1	0	1	-66,948555	272,461619	245,518614	0
15.01.2021	03:04:48	0	0	4,293699	2,06775	44,3988	-1,064	79,241	0	1009,32	4,8	7,2	7	1	1	1	1	1	1	1	1	1	0	1	-68,07611	272,534379	244,724964	0
15.01.2021	03:04:49	0	0	3,615747	2,418	39,87	-1,061	79,252	0	1009,36	4,8	7,2	7	1	1	1	1	1	1	1	1	1	0	1	-69,06272	272,417823	243,20359	0
15.01.2021	03:04:50	0	0	2,937794	2,74275	36,6192	-1,065	79,246	0	1009,32	4,8	7,2	7	1	1	1	1	1	1	1	1	1	0	1	-65,257223	272,473955	247,266539	0
15.01.2021	03:04:51	0	0	2,71181	2,7915	43,6608	-1,062	79,242	0	1009,28	4,8	7,2	7	1	1	1	1	1	1	1	1	1	0	1	-71,035941	272,355041	240,942608	0
15.01.2021	03:04:52	0	0	5,310628	2,856	48,1248	-1,06	79,243	0	1009,28	4,8	7,2	7	1	1	1	1	1	1	1	1	1	0	1	-68,428471	272,447922	243,975871	0
15.01.2021	03:04:53	0	0	3,502755	2,72325	28,7316	-1,065	79,239	0	1009,26	4,8	7,2	7	1	1	1	1	1	1	1	1	1	0	1	-67,653277	272,350954	244,306544	0
15.01.2021	03:04:54	0	0	3,050786	2,54175	59,0976	-1,058	79,217	0	1009,32	4,8	7,2	7	1	1	1	1	1	1	1	1	1	0	1	-66,45525	272,385042	245,660781	0
15.01.2021	03:04:55	0	0	4,406692	2,433	35,1	-1,071	79,219	0	1009,1	4,8	7,2	7	1	1	1	1	1	1	1	1	1	0	1	-66,384778	272,476698	246,151566	0
15.01.2021	03:04:56	0	0	3,276771	2,481	51,7428	-1,06	79,223	0	1009,36	4,8	7,2	7	1	1	1	1	1	1	1	1	1	0	1	-68,569415	272,513758	244,137001	0
15.01.2021	03:04:57	0	0	3,954723	2,59275	42,5952	-1,061	79,227	0	1009,44	4,8	7,2	7	1	1	1	1	1	1	1	1	1	0	1	-64,763918	272,382312	247,339603	0
15.01.2021	03:04:58	0	0	4,406692	2,61075	30,3372	-1,053	79,211	0	1009,34	5	7,2	7	1	1	1	1	1	1	1	1	1	0	1	-63,284003	272,47944	249,264926	0
15.01.2021	03:04:59	0	0	2,485826	2,50875	28,7352	-1,057	79,195	0	1009,32	4,8	7,2	7	1	1	1	1	1	1	1	1	1	0	1	-68,569415	272,355041	243,409133	0
15.01.2021	03:05:00	0	0	2,937794	2,4915	39,5388	-1,056	79,195	0	1009,3	4,8	7,2	7	1	1	1	1	1	1	1	1	1	0	1	-73,9253	272,486299	238,655099	0
15.01.2021	03:05:01	0	0	2,937794	2,4915	39,5388	-1,056	79,195	0	1009,3	4,8	7,2	7	1	1	1	1	1	1	1	1	1	0	1	-73,9253	272,486299	238,655099	0
15.01.2021	03:05:02	0	0	3,502755	2,547	54,4824	-1,053	79,194	0	1009,32	4,8	7,2	7	1	1	1	1	1	1	1	1	1	0	1	-66,737139	272,535754	246,07025	0
15.01.2021	03:05:03	0	0	2,824802	2,44275	53,73	-1,056	79,175	0	1009,28	4,8	7,2	7	1	1	1	1	1	1	1	1	1	0	1	-61,733615	272,465731	250,752414	0
15.01.2021	03:05:04	0	0	3,954723	2,4285	47,7648	-1,052	79,188	0	1009,2	4,8	7,2	7	1	1	1	1	1	1	1	1	1	0	1	-68,569415	272,364582	243,452849	0
15.01.2021	03:05:05	0	0	4,971652	2,37525	47,8368	-1,06	79,163	0	1009,16	4,9	7,2	7	1	1	1	1	1	1	1	1	1	0	1	-64,552502	272,498651	248,084578	0
15.01.2021	03:05:06	0	0	3,389742	2,337	43,686	-1,055	79,163	0	1009,26	4,9	7,2	7,1	1	1	1	1	1	1	1	1	1	0	1	-63,777308	272,486299	248,803091	0
15.01.2021	03:05:07	0	0	3,841731	2,40075	50,688	-1,047	79,146	0	1009,44	4,8	7,2	7	1	1	1	1	1	1	1	1	1	0	1	-66,737139	272,513758	245,969277	0
15.01.2021	03:05:08	0	0	4,632676	2,349	41,1156	-1,056	79,139	0	1009,3	4,8	7,2	7	1	1	1	1	1	1	1	1	1	0	1	-69,133192	272,526128	243,630003	0
15.01.2021	03:05:09	0	0	3,615747	2,26275	53,3556	-1,058	79,144	0	1009,26	4,9	7,2	7	1	1	1	1	1	1	1	1	1	0	1	-66,45525	272,523378	246,295324	0
15.01.2021	03:05:10	0	0	2,937794	2,06625	45,8676	-1,05	79,138	0	1009,34	4,8	7,2	7	1	1	1	1	1	1	1	1	1	0	1	-67,159972	272,517881	245,565366	0
15.01.2021	03:05:11	0	0	4,180707	2,058	37,3284	-1,048	79,134	0	1009,28	4,9	7,1	7	1	1	1	1	1	1	1	1	1	0	1	-66,384778	272,461619	246,082392	0
15.01.2021	03:05:12	0	0	4,519684	2,09925	47,4552	-1,053	79,132	0	1009,26	5	7,2	7	1	1	1	1	1	1	1	1	1	0	1	-67,582805	272,494533	245,035376	0
15.01.2021	03:05:13	0	0	4,180707	2,18175	41,4864	-1,046	79,141	0	1009,28	5	7,2	7	1	1	1	1	1	1	1	1	1	0	1	-64,48203	272,533003	248,31273	0
15.01.2021	03:05:14	0	0	4,406692	2,3295	40,6332	-1,05	79,137	0	1009,24	4,8	7,2	7	1	1	1	1	1	1	1	1	1	0	1	-66,173362	272,417823	246,092949	0
15.01.2021	03:05:15	0	0	3,841731	2,33925	40,2552	-1,045	79,14	0	1009,4	4,9	7,1	7	1	1	1	1	1	1	1	1	1	0	1	-64,341085	272,350954	247,618736	0
15.01.2021	03:05:16	0	0	5,42362	2,28975	33,9588	-1,049	79,14	0	1009,1	4,8	7,2	7	1	1	1	1	1	1	1	1	1	0	1	-69,485553	272,489043	243,107437	0
15.01.2021	03:05:17	0	0	5,084614	2,2335	55,9404	-1,044	79,153	0	1009,32	4,8	7,2	7,1	1	1	1	1	1	1	1	1	1	0	1	-68,569415	272,468472	243,929189	0
15.01.2021	03:05:18	0	0	4,745668	2,199	43,6644	-1,046	79,148	0	1009,34	5	7,1	7	1	1	1	1	1	1	1	1	1	0	1	-69,767442	272,360492	242,236084	0
15.01.2021	03:05:19	0	0	3,276771	2,238	46,3356	-1,046	79,149	0	1009,1	4,9	7,2	7	1	1	1	1	1	1	1	1	1	0	1	-65,46864	272,475326	247,061413	0
15.01.2021	03:05:20	0	0	2,937794	2,244	56,2788	-1,045	79,138	0	1009,34	4,9	7,2	7	1	1	1	1	1	1	1	1	1	0	1	-65,398168	272,473955	247,125594	0
15.01.2021	03:05:21	0	0	2,71181	2,28975	51,7572	-1,047	79,143	0	1009,46	4,8	7,2	7	1	1	1	1	1	1	1	1	1	0	1	-68,710359	272,370036	243,336897	0
15.01.2021	03:05:22	0	0	4,632676	2,4825	34,3368	-1,048	79,135	0	1009,38	4,9	7,1	7	1	1	1	1	1	1	1	1	1	0	1	-69,133192	272,431499	243,195827	0
15.01.2021	03:05:23	0	0	5,084614	2,67225	42,2244	-1,05	79,115	0	1009,26	4,9	7,2	7,1	1	1	1	1	1	1	1	1	1	0	1	-64,411557	272,524753	248,345327	0
15.01.2021	03:05:24	0	0	3,163779	2,8665	46,962	-1,049	79,11	0	1009,32	4,9	7,1	7	1	1	1	1	1	1	1	1	1	0	1	-66,737139	272,386406	245,385147	0
15.01.2021	03:05:25	0	0	3,954723	2,8275	29,5704	-1,049	79,105	0	1009,36	4,9	7,1	7	1	1	1	1	1	1	1	1	1	0	1	-67,582805	272,382312	244,520717	0
15.01.2021	03:05:26	0	0	5,084614	2,8935	44,4744	-1,049	79,1	0	1009,14	4,9	7,2	7,1	1	1	1	1	1	1	1	1	1	0	1	-67,864693	272,50277	244,791289	0
15.01.2021	03:05:27	0	0	5,084614	2,88675	44,406	-1,048	79,119	0	1009,24	4,9	7,1	7,1	1	1	1	1	1	1	1	1	1	0	1	-69,978858	272,421925	242,306259	0
15.01.2021	03:05:28	0	0	3,050768	2,98125	42,2208	-1,042	79,115	0	1009,26	4,9	7,1	7,1	1	1	1	1	1	1	1	1	1	0	1	-66,314306	272,356404	245,670486	0
15.01.2021	03:05:29	0	0	4,067691	3,051	46,224	-1,044	79,101	0	1009,16	4,9	7,1	7,1	1	1	1	1	1	1	1	1	1	0	1	-69,767442	272,449292	242,64318	0
15.01.2021	03:05:30	0	0	4,632648	2,9265	49,5684	-1,042	79,117	0	1009,24	4,9	7,3	7,1	1	1	1	1	1	1	1	1	1	0	1	-68,217054	272,360492	243,786471	0
15.01.2021	03:05:31	0	0	4,85866	2,81025	48,798	-1,045	79,1	0	1009,26	4,9	7,2	7	1	1	1	1	1	1	1	1	1	0	1	-68,569415	272,500024	244,073965	0
15.01.2021	03:05:32	0	0	3,389763	2,7795	21,0312	-1,049	79,111	0	1009,2	4,8	7,2	7	1	1	1	1	1	1	1	1	1	0	1	-65,398168	272,527503	247,37134	0
15.01.2021	03:05:33	0	0	5,084614	2,8095	39,5388	-1,039	79,111	0	1009,32	4,9	7,3	7,1	1	1	1	1	1	1	1	1	1	0	1	-64,200141	272,505516	248,468447	0
15.01.2021	03:05:34	0	0	4,180682	3,08175	48,2724	-1,041	79,111	0	1008,92	4,9	7,1	7,1	1	1	1	1	1	1	1	1	1	0	1	-64,763918	272,446553	247,634143	0
15.01.2021	03:05:35	0	0	3,728717	3,16875	45,558	-1,04	79,118	0	1009,18	4,9	7,2	7,1	1	1	1	1	1	1	1	1	1	0	1	-64,200141	272,365945	247,828371	0
15.01.2021	03:05:36	0	0	3,502734	3,10575	47,3616	-1,041	79,115	0	1009,12	4,9	7,1	7,1	1	1	1	1	1	1	1	1	1	0	1	-68,780832	272,486299	243,799567	0
15.01.2021	03:05:37	0	0	3,841708	2,96775	50,3172	-1,04	79,145	0	1009,1	4,9	7,2	7,1	1	1	1	1	1	1	1	1	1	0	1	-72,374912	272,467101	240,117405	0
15.01.2021	03:05:38	0	0	4,858631	2,649	39,2832	-1,044	79,138	0	1009,22	4,9	7,1	7,1	1	1	1	1	1	1	1	1	1	0	1	-66,102889	272,526128	246,660306	0
15.01.2021	03:05:39	0	0	4,971622	2,37075	33,264	-1,04	79,136	0	1009,38	4,9	7,1	7,1	1	1	1	1	1	1	1	1	1	0	1	-68,992248	272,490416	243,607039	0
15.01.2021	03:05:40	0	0	3,050768	2,26125	45,864	-1,04	79,135	0	1009,28	4,9	7,2	7,1	1	1	1	1	1	1	1	1	1	0	1	-65,821001	272,412356	246,420241	0
15.01.2021	03:05:41	0	0	4,519656	2,3355	40,3308	-1,037	79,137	0	1009,22	4,9	7,2	7,1	1	1	1	1	1	1	1	1	1	0	1	-73,220578	272,542633	239,618393	0
15.01.2021	03:05:42	0	0	3,16376	2,45775	50,6916	-1,037	79,127	0	1009,08	4,9	7,2	7,1	1	1	1	1	1	1	1	1	1	0	1	-64,411557	272,394597	247,748273	0
15.01.2021	03:05:43	0	0	4,293699	2,5335	34,7148	-1,041	79,148	0	1009,34	4,9	7,1	7	1	1	1	1	1	1	1	1	1	0	1	-65,327696	272,517881	247,397642	0
15.01.2021	03:05:44	0	0	3,615725	2,52825	39,5604	-1,043	79,13	0	1009,22	4,9	7,2	7,1	1	1	1	1	1	1	1	1	1	0	1	-66,878083	272,359129	245,119197	0
15.01.2021	03:05:45	0	0	4,067691	2,52825	41,0076	-1,037	79,138	0	1009,18	4,9	7,2	7,1	1	1	1	1	1	1	1	1	1	0	1	-66,314306	272,480812	246,240915	0
15.01.2021	03:05:46	0	0	3,728739	2,5185	35,1	-1,04	79,127	0	1009,16	4,9	7,2	7	1	1	1	1	1	1	1	1	1	0	1	-71,317829	272,538506	241,50219	0
15.01.2021	03:05:47	0	0	4,180682	2,307	41,4684	-1,031	79,12	0	1009,32	4,9	7,2	7,1	1	1	1	1	1	1	1	1	1	0	1	-65,821001	272,350954	246,13882	0
15.01.2021	03:05:48	0	0	3,276751	2,26425	26,2872	-1,032	79,13	0	1009,38	4,9	7,2	7,1	1	1	1	1	1	1	1	1	1	0	1	-67,794221	272,471213	244,716961	0
15.01.2021	03:05:49	0	0	3,841708	2,13525	38,0736	-1,031	79,106	0	1009,18	4,9	7,2	7,1	1	1	1	1	1	1	1	1	1	0	1	-72,374912	272,544009	240,470377	0
15.01.2021	03:05:50	0	0	2,824802	1,96725	40,6296	-1,035	79,112	0	1009,18	4,9	7,2	7	1	1	1	1	1	1	1	1	1	0	1	-63,636364	272,475326	248,893689	0
15.01.2021	03:05:51	0	0	2,937794	1,8735	39,1752	-1,033	79,093	0	1009,3	4,9	7,2	7	1	1	1	1	1	1	1	1	1	0	1	-66,384778	272,546762	246,473149	0
15.01.2021	03:05:52	0	0	3,841731	1,99425	39,582	-1,031	79,104	0	1009,26	4,9	7,2	7	1	1	1	1	1	1	1	1	1	0	1	-62,790698	272,375491	249,28156	0
15.01.2021	03:05:53	0	0	4,293699	2,1105	47,0052	-1,031	79,075	0	1009,44	4,9	7,2	7	1	1	1	1	1	1	1	1	1	0	1	-68,498943	272,498651	244,138137	0
15.01.2021	03:05:54	0	0	3,050768	2,172	45,8388	-1,032	79,087	0	1009,24	4,9	7,2	7,1	1	1	1	1	1	1	1	1	1	0	1	-68,357999	272,359129	243,639282	0
15.01.2021	03:05:55	0	0	3,615725	2,21025	49,5828	-1,035	79,08	0	1009,28	4,9	7,2	7,1	1	1	1	1	1	1	1	1	1	0	1	-66,525722	272,417823	245,740588	0
15.01.2021	03:05:56	0	0	4,971652	2,43975	50,7024	-1,03	79,079	0	1009,4	4,9	7,2	7	1	1	1	1	1	1	1	1	1	0	1	-68,639887	272,383677	243,469889	0
15.01.2021	03:05:57	0	0	3,615747	2,778	43,6608	-1,029	79,056	0	1009,24	4,9	7,1	7	1	1	1	1	1	1	1	1	1	0	1	-68,146582	272,534379	244,654491	0
15.01.2021	03:05:58	0	0	3,050786	3,04725	42,21	-1,032	79,057	0	1009,34	4,9	7,2	7	1	1	1	1	1	1	1	1	1	0	1	-66,737139	272,390501	245,403917	0
15.01.2021	03:05:59	0	0	4,745668	3,09675	36,9252	-1,031	79,056	0	1009,3	4,9	7,2	7	1	1	1	1	1	1	1	1	1	0	1	-71,67019	272,484927	240,903913	0
15.01.2021	03:06:00	0	0	4,85866	2,89575	43,3008	-1,04	79,038	0	1009,2	4,9	7,2	7	1	1	1	1	1	1	1	1	1	0	1	-65,327696	272,482184	247,233819	0
15.01.2021	03:06:01	0	0	4,85866	2,89575	43,3008	-1,04	79,038	0	1009,2	4,9	7,2	7	1	1	1	1	1	1	1	1	1	0	1	-65,327696	272,482184	247,233819	0
15.01.2021	03:06:02	0	0	2,485826	2,85825	37,692	-1,029	79,042	0	1009,2	4,9	7,2	7	1	1	1	1	1	1	1	1	1	0	1	-64,552502	272,427395	247,757699	0
15.01.2021	03:06:03	0	0	3,163779	2,76075	39,8772	-1,028	79,033	0	1009,34	4,9	7,2	7	1	1	1	1	1	1	1	1	1	0	1	-63,213531	272,53713	249,600173	0
15.01.2021	03:06:04	0	0	5,42362	2,511	36,6192	-1,027	79,017	0	1009,38	4,9	7,2	7	1	1	1	1	1	1	1	1	1	0	1	-66,878083	272,430131	245,444663	0
15.01.2021	03:06:05	0	0	3,389763	2,5425	28,3824	-1,029	79,022	0	1009,3	4,9	7,2	7	1	1	1	1	1	1	1	1	1	0	1	-66,102889	272,405523	246,10703	0
15.01.2021	03:06:06	0	0	2,259842	2,5215	45,8604	-1,031	79,01	0	1009,18	4,9	7,2	7	1	1	1	1	1	1	1	1	1	0	1	-65,680056	272,534379	247,121017	0
15.01.2021	03:06:07	0	0	3,728739	2,4585	38,8044	-1,028	79,007	0	1009,3	4,9	7,2	7	1	1	1	1	1	1	1	1	1	0	1	-68,992248	272,487671	243,594446	0
15.01.2021	03:06:08	0	0	4,406692	2,3115	41,4792	-1,028	79,005	0	1009,32	4,9	7,2	7	1	1	1	1	1	1	1	1	1	0	1	-68,287526	272,395963	243,878563	0
15.01.2021	03:06:09	0	0	4,067715	2,3205	46,5984	-1,026	78,99	0	1009,2	4,8	7,2	7	1	1	1	1	1	1	1	1	1	0	1	-70,260747	272,531628	242,527698	0
15.01.2021	03:06:10	0	0	3,954723	2,39325	33,264	-1,029	78,986	0	1009,32	4,9	7,2	7	1	1	1	1	1	1	1	1	1	0	1	-65,46864	272,504143	247,193645	0
15.01.2021	03:06:11	0	0	4,519684	2,37375	39,5784	-1,028	78,982	0	1009,14	4,9	7,2	7	1	1	1	1	1	1	1	1	1	0	1	-63,565891	272,387771	248,562651	0
15.01.2021	03:06:12	0	0	4,745668	2,36025	53,3448	-1,026	78,964	0	1009,3	4,9	7,2	7	1	1	1	1	1	1	1	1	1	0	1	-72,445384	272,49316	240,166498	0
15.01.2021	03:06:13	0	0	4,293699	2,307	34,3512	-1,024	78,981	0	1009,32	4,9	7,2	7	1	1	1	1	1	1	1	1	1	0	1	-66,878083	272,413722	245,369425	0
15.01.2021	03:06:14	0	0	3,050786	2,15775	29,592	-1,03	78,971	0	1009,4	4,9	7,2	7	1	1	1	1	1	1	1	1	1	0	1	-66,878083	272,53713	245,935621	0
15.01.2021	03:06:15	0	0	4,971652	2,09025	32,1588	-1,028	78,956	0	1009,28	4,9	7,2	7	1	1	1	1	1	1	1	1	1	0	1	-62,649753	272,387771	249,478789	0
15.01.2021	03:06:16	0	0	2,71181	2,12025	33,9588	-1,032	78,958	0	1009,2	4,9	7,2	7	1	1	1	1	1	1	1	1	1	0	1	-67,794221	272,49316	244,817661	0
15.01.2021	03:06:17	0	0	3,728739	2,2245	36,648	-1,026	78,962	0	1009,3	4,9	7,2	7	1	1	1	1	1	1	1	1	1	0	1	-68,357999	272,355041	243,62055	0
15.01.2021	03:06:18	0	0	2,71181	2,19975	29,1168	-1,021	78,958	0	1009,4	4,9	7,2	7	1	1	1	1	1	1	1	1	1	0	1	-65,609584	272,436972	246,744534	0
15.01.2021	03:06:19	0	0	3,615747	2,2695	33,282	-1,024	78,949	0	1009,36	4,9	7,2	7	1	1	1	1	1	1	1	1	1	0	1	-65,821001	272,508263	246,860195	0
15.01.2021	03:06:20	0	0	3,502755	2,508	27,2844	-1,024	78,942	0	1009,4	4,9	7,2	7	1	1	1	1	1	1	1	1	1	0	1	-69,626498	272,519255	243,105149	0
15.01.2021	03:06:21	0	0	3,615747	2,53275	33,6636	-1,025	78,945	0	1009,4	4,9	7,2	7	1	1	1	1	1	1	1	1	1	0	1	-64,200141	272,508263	248,481054	0
15.01.2021	03:06:22	0	0	4,406692	2,58675	20,646	-1,027	78,93	0	1009,36	4,8	7,2	7	1	1	1	1	1	1	1	1	1	0	1	-65,891473	272,349592	246,062107	0
15.01.2021	03:06:23	0	0	2,71181	2,6805	38,0664	-1,033	78,925	0	1009,46	4,8	7,2	7	1	1	1	1	1	1	1	1	1	0	1	-64,270613	272,387771	247,857929	0
15.01.2021	03:06:24	0	0	3,841731	2,70825	24,3612	-1,03	78,926	0	1009,24	4,9	7,2	7	1	1	1	1	1	1	1	1	1	0	1	-64,693446	272,534379	248,107627	0
15.01.2021	03:06:25	0	0	4,632676	2,57025	40,9968	-1,023	78,923	0	1009,2	4,9	7,2	7	1	1	1	1	1	1	1	1	1	0	1	-66,596195	272,402791	245,601199	0
15.01.2021	03:06:26	0	0	3,050786	2,43375	48,1248	-1,023	78,922	0	1009,24	4,8	7,2	7	1	1	1	1	1	1	1	1	1	0	1	-64,270613	272,421925	248,014504	0
15.01.2021	03:06:27	0	0	4,85866	2,59575	64,2564	-1,026	78,914	0	1009,34	4,9	7,2	7	1	1	1	1	1	1	1	1	1	0	1	-68,851304	272,359129	243,145977	0
15.01.2021	03:06:28	0	0	2,71181	2,5005	36,6156	-1,026	78,916	0	1009,38	4,8	7,2	7	1	1	1	1	1	1	1	1	1	0	1	-65,045807	272,430131	247,276939	0
15.01.2021	03:06:29	0	0	4,632676	2,19525	69,8688	-1,027	78,897	0	1009,18	4,8	7,2	7	1	1	1	1	1	1	1	1	1	0	1	-64,904863	272,53713	247,908841	0
15.01.2021	03:06:30	0	0	3,276771	1,8945	45,8496	-1,034	78,885	0	1009,22	4,9	7,2	7	1	1	1	1	1	1	1	1	1	0	1	-68,569415	272,409622	243,659296	0
15.01.2021	03:06:31	0	0	4,632676	1,67475	40,6368	-1,024	78,914	0	1009,6	4,8	7,2	7	1	1	1	1	1	1	1	1	1	0	1	-64,763918	272,526128	247,999278	0
15.01.2021	03:06:32	0	0	4,519684	1,50975	45,5508	-1,027	78,902	0	1009,34	4,9	7,2	7	1	1	1	1	1	1	1	1	1	0	1	-66,243834	272,513758	246,462583	0
15.01.2021	03:06:33	0	0	2,824802	1,5315	54,7992	-1,026	78,884	0	1009,38	4,9	7,2	7	1	1	1	1	1	1	1	1	1	0	1	-67,0895	272,420557	245,189348	0
15.01.2021	03:06:34	0	0	3,728739	1,62225	53,3412	-1,025	78,885	0	1009,4	4,8	7,2	7	1	1	1	1	1	1	1	1	1	0	1	-66,666667	272,561907	246,260809	0
15.01.2021	03:06:35	0	0	4,745668	1,56975	23,2308	-1,022	78,87	0	1009,36	4,8	7,2	7	1	1	1	1	1	1	1	1	1	0	1	-67,512333	272,516506	245,206697	0
15.01.2021	03:06:36	0	0	5,084644	1,6185	45,162	-1,024	78,874	0	1009,34	4,9	7,2	7	1	1	1	1	1	1	1	1	1	0	1	-71,67019	272,397328	240,502159	0
15.01.2021	03:06:37	0	0	4,632676	1,755	60,9444	-1,029	78,861	0	1009,34	4,8	7,2	7	1	1	1	1	1	1	1	1	1	0	1	-64,48203	272,545385	248,369578	0
15.01.2021	03:06:38	0	0	3,954723	1,7175	51,7464	-1,026	78,867	0	1009,4	4,8	7,2	7	1	1	1	1	1	1	1	1	1	0	1	-69,344609	272,46299	243,128847	0
15.01.2021	03:06:39	0	0	2,14685	1,79025	73,7784	-1,023	78,848	0	1009,32	4,8	7,2	7	1	1	1	1	1	1	1	1	1	0	1	-71,529246	272,538506	241,290774	0
15.01.2021	03:06:40	0	0	4,406692	1,767	69,2568	-1,027	78,859	0	1009,26	4,8	7,2	7	1	1	1	1	1	1	1	1	1	0	1	-68,07611	272,526128	244,687086	0
15.01.2021	03:06:41	0	0	2,372834	1,75125	58,4676	-1,029	78,853	0	1009,26	4,8	7,2	7	1	1	1	1	1	1	1	1	1	0	1	-65,821001	272,378219	246,263761	0
15.01.2021	03:06:42	0	0	3,389763	1,8435	62,7768	-1,027	78,84	0	1009,26	4,8	7,2	7	1	1	1	1	1	1	1	1	1	0	1	-65,116279	272,359129	246,881001	0
15.01.2021	03:06:43	0	0	3,16376	2,07225	55,1556	-1,03	78,841	0	1009,26	4,8	7,2	7,1	1	1	1	1	1	1	1	1	1	0	1	-65,045807	272,498651	247,591273	0
15.01.2021	03:06:44	0	0	2,937794	2,094	73,782	-1,023	78,83	0	1009,34	4,8	7,2	7	1	1	1	1	1	1	1	1	1	0	1	-65,821001	272,401425	246,370131	0
15.01.2021	03:06:45	0	0	4,632676	2,004	54,8028	-1,026	78,808	0	1009,36	4,9	7,2	7	1	1	1	1	1	1	1	1	1	0	1	-67,019027	272,531628	245,769418	0
15.01.2021	03:06:46	0	0	5,084644	2,04825	45,8388	-1,031	78,799	0	1009,34	4,8	7,2	7	1	1	1	1	1	1	1	1	1	0	1	-71,67019	272,450661	240,746712	0
15.01.2021	03:06:47	0	0	2,71181	2,5845	39,6468	-1,029	78,791	0	1009,32	5	7,2	7	1	1	1	1	1	1	1	1	1	0	1	-66,243834	272,365945	245,784678	0
15.01.2021	03:06:48	0	0	5,197636	3,11325	40,626	-1,024	78,769	0	1009,34	4,8	7,2	7	1	1	1	1	1	1	1	1	1	0	1	-68,428471	272,530253	244,353661	0
15.01.2021	03:06:49	0	0	4,067715	3,31125	42,912	-1,025	78,772	0	1009,3	4,8	7,2	7	1	1	1	1	1	1	1	1	1	0	1	-65,750529	272,413722	246,49698	0
15.01.2021	03:06:50	0	0	3,050786	3,52125	61,2612	-1,03	78,734	0	1009,32	4,8	7,2	7	1	1	1	1	1	1	1	1	1	0	1	-68,992248	272,361855	243,017523	0
15.01.2021	03:06:51	0	0	4,85866	3,375	48,8268	-1,028	78,729	0	1009,26	4,8	7,2	7	1	1	1	1	1	1	1	1	1	0	1	-66,807611	272,469843	245,697282	0
15.01.2021	03:06:52	0	0	2,824802	3,027	29,1204	-1,028	78,723	0	1009,36	4,8	7,2	7	1	1	1	1	1	1	1	1	1	0	1	-65,539112	272,352316	246,426951	0
15.01.2021	03:06:53	0	0	4,632676	2,97	49,5828	-1,031	78,697	0	1009,3	4,8	7,2	7	1	1	1	1	1	1	1	1	1	0	1	-62,438337	272,505516	250,230251	0
15.01.2021	03:06:54	0	0	4,85866	3,117	44,3808	-1,025	78,683	0	1009,3	4,8	7,2	7	1	1	1	1	1	1	1	1	1	0	1	-64,763918	272,42466	247,53374	0
15.01.2021	03:06:55	0	0	4,632676	3,45375	47,376	-1,026	78,678	0	1009,26	4,8	7,2	7	1	1	1	1	1	1	1	1	1	0	1	-67,794221	272,528878	244,981598	0
15.01.2021	03:06:56	0	0	2,937777	3,56625	39,8664	-1,031	78,657	0	1009,16	4,8	7,2	7,1	1	1	1	1	1	1	1	1	1	0	1	-67,723749	272,526128	245,039447	0
15.01.2021	03:06:57	0	0	3,163779	3,45375	46,9908	-1,027	78,673	0	1009,18	4,8	7,2	7	1	1	1	1	1	1	1	1	1	0	1	-68,921776	272,447922	243,482565	0
15.01.2021	03:06:58	0	0	4,971652	2,961	43,3728	-1,024	78,649	0	1009,36	4,8	7,2	7	1	1	1	1	1	1	1	1	1	0	1	-67,019027	272,535754	245,788361	0
15.01.2021	03:06:59	0	0	2,71181	2,49825	30,3408	-1,019	78,702	0	1009,38	5	7,2	7	1	1	1	1	1	1	1	1	1	0	1	-65,680056	272,356404	246,304735	0
15.01.2021	03:07:00	0	0	4,067715	2,21625	37,692	-1,028	78,709	0	1009,22	4,8	7,2	7	1	1	1	1	1	1	1	1	1	0	1	-65,821001	272,473955	246,702761	0
15.01.2021	03:07:01	0	0	4,067715	2,21625	37,692	-1,028	78,709	0	1009,22	4,8	7,2	7	1	1	1	1	1	1	1	1	1	0	1	-65,821001	272,473955	246,702761	0
15.01.2021	03:07:02	0	0	3,502755	2,3595	33,2748	-1,026	78,711	0	1009,24	4,8	7,2	7	1	1	1	1	1	1	1	1	1	0	1	-65,539112	272,545385	247,312496	0
15.01.2021	03:07:03	0	0	3,389763	2,66025	35,0712	-1,023	78,702	0	1009,3	4,8	7,2	7	1	1	1	1	1	1	1	1	1	0	1	-65,539112	272,402791	246,658281	0
15.01.2021	03:07:04	0	0	2,824802	2,7465	35,514	-1,021	78,702	0	1009,36	4,8	7,2	7	1	1	1	1	1	1	1	1	1	0	1	-67,653277	272,524753	245,103608	0
15.01.2021	03:07:05	0	0	2,598818	2,65875	35,8596	-1,025	78,687	0	1009,24	4,8	7,2	7	1	1	1	1	1	1	1	1	1	0	1	-62,367865	272,355041	249,610684	0
15.01.2021	03:07:06	0	0	2,711794	2,634	53,3592	-1,027	78,665	0	1009,3	4,8	7,2	7,1	1	1	1	1	1	1	1	1	1	0	1	-62,649753	272,394597	249,510077	0
15.01.2021	03:07:07	0	0	2,937794	2,61075	51,75	-1,032	78,671	0	1009,28	4,8	7,2	7	1	1	1	1	1	1	1	1	1	0	1	-66,314306	272,413722	245,933202	0
15.01.2021	03:07:08	0	0	3,16376	2,52375	55,9368	-1,023	78,663	0	1009,32	4,8	7,2	7,1	1	1	1	1	1	1	1	1	1	0	1	-64,129669	272,53713	248,684035	0
15.01.2021	03:07:09	0	0	3,841731	2,3805	54,81	-1,021	78,662	0	1009,36	5	7,2	7	1	1	1	1	1	1	1	1	1	0	1	-65,609584	272,426027	246,694345	0
15.01.2021	03:07:10	0	0	4,632648	2,3655	44,0424	-1,025	78,652	0	1009,34	4,8	7,2	7,1	1	1	1	1	1	1	1	1	1	0	1	-67,0895	272,382312	245,014022	0
15.01.2021	03:07:11	0	0	4,632648	2,34975	48,816	-1,026	78,648	0	1009,36	4,8	7,2	7,1	1	1	1	1	1	1	1	1	1	0	1	-64,83439	272,522004	247,909874	0
15.01.2021	03:07:12	0	0	2,598818	2,25525	27,9756	-1,027	78,645	0	1009	4,8	7,2	7	1	1	1	1	1	1	1	1	1	0	1	-66,102889	272,428763	246,213584	0
15.01.2021	03:07:13	0	0	3,728739	2,274	37,314	-1,028	78,649	0	1009,5	4,8	7,2	7	1	1	1	1	1	1	1	1	1	0	1	-65,821001	272,380948	246,276267	0
15.01.2021	03:07:14	0	0	4,406692	2,562	45,5328	-1,025	78,644	0	1009,3	4,8	7,2	7	1	1	1	1	1	1	1	1	1	0	1	-68,780832	272,43834	243,579562	0
15.01.2021	03:07:15	0	0	4,858631	2,64225	49,5468	-1,029	78,657	0	1009,28	4,8	7,2	7,1	1	1	1	1	1	1	1	1	1	0	1	-64,411557	272,535754	248,395831	0
15.01.2021	03:07:16	0	0	2,711794	2,7345	48,8052	-1,023	78,679	0	1009,58	4,8	7,2	7,1	1	1	1	1	1	1	1	1	1	0	1	-65,327696	272,482184	247,233819	0
15.01.2021	03:07:17	0	0	4,971622	2,80275	42,5916	-1,027	78,673	0	1009,36	4,8	7,2	7,1	1	1	1	1	1	1	1	1	1	0	1	-67,512333	272,393232	244,641239	0
15.01.2021	03:07:18	0	0	4,85866	2,66025	52,5096	-1,025	78,684	0	1009,22	4,8	7,2	7	1	1	1	1	1	1	1	1	1	0	1	-64,904863	272,545385	247,946745	0
15.01.2021	03:07:19	0	0	2,711794	2,38875	35,4924	-1,024	78,694	0	1009,38	5	7,2	7,1	1	1	1	1	1	1	1	1	1	0	1	-69,203665	272,461619	243,263505	0
15.01.2021	03:07:20	0	0	4,406665	2,21925	34,704	-1,024	78,705	0	1009,26	5	7,2	7,1	1	1	1	1	1	1	1	1	1	0	1	-68,005638	272,378219	244,079124	0
15.01.2021	03:07:21	0	0	5,310596	2,25825	42,9084	-1,025	78,694	0	1009,46	5	7,2	7,1	1	1	1	1	1	1	1	1	1	0	1	-63,424947	272,504143	249,237338	0
15.01.2021	03:07:22	0	0	2,824785	2,328	42,2064	-1,024	78,707	0	1009,22	5	7,2	7,1	1	1	1	1	1	1	1	1	1	0	1	-68,146582	272,471213	244,3646	0
15.01.2021	03:07:23	0	0	4,858631	2,367	40,9968	-1,023	78,703	0	1009,12	4,8	7,2	7,1	1	1	1	1	1	1	1	1	1	0	1	-64,693446	272,364582	247,328818	0
15.01.2021	03:07:24	0	0	4,180682	2,4195	39,2544	-1,026	78,708	0	1009,34	5	7,2	7,1	1	1	1	1	1	1	1	1	1	0	1	-66,102889	272,404157	246,100767	0
15.01.2021	03:07:25	0	0	2,824785	2,4375	55,188	-1,029	78,708	0	1009,3	4,8	7,2	7,1	1	1	1	1	1	1	1	1	1	0	1	-66,243834	272,505516	246,424754	0
15.01.2021	03:07:26	0	0	4,632648	2,493	62,0424	-1,031	78,713	0	1009,16	4,8	7,2	7,1	1	1	1	1	1	1	1	1	1	0	1	-69,69697	272,546762	243,160958	0
15.01.2021	03:07:27	0	0	4,519656	2,5245	58,4748	-1,025	78,711	0	1009,22	4,8	7,2	7,1	1	1	1	1	1	1	1	1	1	0	1	-66,102889	272,487671	246,483805	0
15.01.2021	03:07:28	0	0	3,728717	2,583	58,8564	-1,031	78,719	0	1009,42	5	7,2	7,1	1	1	1	1	1	1	1	1	1	0	1	-61,87456	272,41919	250,398019	0
15.01.2021	03:07:29	0	0	4,632648	2,607	53,7336	-1,024	78,734	0	1009,3	4,8	7,2	7,1	1	1	1	1	1	1	1	1	1	0	1	-63,284003	272,555021	249,611852	0
15.01.2021	03:07:30	0	0	3,050768	2,58975	50,6664	-1,034	78,722	0	1009,24	4,8	7,3	7,1	1	1	1	1	1	1	1	1	1	0	1	-66,314306	272,394597	245,845524	0
15.01.2021	03:07:31	0	0	3,954723	2,448	52,506	-1,026	78,734	0	1009,24	4,8	7,2	7	1	1	1	1	1	1	1	1	1	0	1	-65,045807	272,527503	247,723701	0
15.01.2021	03:07:32	0	0	4,519684	2,27175	26,9172	-1,023	78,736	0	1009,28	4,8	7,2	7	1	1	1	1	1	1	1	1	1	0	1	-63,777308	272,542633	249,061663	0
15.01.2021	03:07:33	0	0	3,841731	2,18175	38,8044	-1,022	78,738	0	1009,24	4,8	7,2	7	1	1	1	1	1	1	1	1	1	0	1	-62,790698	272,43834	249,569696	0
15.01.2021	03:07:34	0	0	3,050768	2,04975	42,5952	-1,02	78,745	0	1009,22	5	7,2	7,1	1	1	1	1	1	1	1	1	1	0	1	-68,217054	272,538506	244,602966	0
15.01.2021	03:07:35	0	0	3,276751	1,9095	47,7504	-1,024	78,738	0	1009,46	5	7,2	7,1	1	1	1	1	1	1	1	1	1	0	1	-68,710359	272,550891	244,166529	0
15.01.2021	03:07:36	0	0	4,745639	1,7955	37,314	-1,021	78,746	0	1009,32	4,8	7,3	7,1	1	1	1	1	1	1	1	1	1	0	1	-65,257223	272,517881	247,468114	0
15.01.2021	03:07:37	0	0	4,406665	1,7625	45,8424	-1,022	78,737	0	1009,32	5	7,2	7,1	1	1	1	1	1	1	1	1	1	0	1	-63,495419	272,412356	248,745823	0
15.01.2021	03:07:38	0	0	3,050768	1,71375	54,8064	-1,022	78,765	0	1009,4	5	7,2	7,1	1	1	1	1	1	1	1	1	1	0	1	-67,723749	272,372763	244,336007	0
15.01.2021	03:07:39	0	0	2,824785	1,54125	48,5064	-1,031	78,748	0	1009,18	5	7,3	7,1	1	1	1	1	1	1	1	1	1	0	1	-64,975335	272,475326	247,554718	0
15.01.2021	03:07:40	0	0	4,632676	1,521	56,2752	-1,022	78,744	0	1009,32	4,8	7,2	7	1	1	1	1	1	1	1	1	1	0	1	-63,918252	272,550891	248,958636	0
15.01.2021	03:07:41	0	0	4,745639	1,671	66,5424	-1,026	78,767	0	1009,34	5	7,3	7,1	1	1	1	1	1	1	1	1	1	0	1	-68,357999	272,401425	243,833133	0
15.01.2021	03:07:42	0	0	4,519656	1,893	51,4332	-1,025	78,767	0	1009,34	5	7,3	7,1	1	1	1	1	1	1	1	1	1	0	1	-67,019027	272,475326	245,511025	0
15.01.2021	03:07:43	0	0	4,858631	2,22225	48,492	-1,017	78,77	0	1009,2	5	7,3	7,1	1	1	1	1	1	1	1	1	1	0	1	-64,975335	272,526128	247,787861	0
15.01.2021	03:07:44	0	0	4,745639	2,463	44,7912	-1,022	78,783	0	1009,28	5	7,2	7,1	1	1	1	1	1	1	1	1	1	0	1	-67,723749	272,442446	244,655476	0
15.01.2021	03:07:45	0	0	4,519656	2,67075	46,6128	-1,022	78,766	0	1009,4	5	7,2	7,1	1	1	1	1	1	1	1	1	1	0	1	-63,706836	272,370036	248,340421	0
15.01.2021	03:07:46	0	0	2,824785	2,7735	47,3688	-1,027	78,784	0	1009,32	5	7,3	7,1	1	1	1	1	1	1	1	1	1	0	1	-71,458774	272,395963	240,707316	0
15.01.2021	03:07:47	0	0	5,197605	2,793	50,2992	-1,024	78,768	0	1009,32	5	7,2	7,1	1	1	1	1	1	1	1	1	1	0	1	-64,622974	272,47944	247,925954	0
15.01.2021	03:07:48	0	0	3,502734	2,86425	42,2316	-1,023	78,785	0	1009,28	5	7,2	7,1	1	1	1	1	1	1	1	1	1	0	1	-65,539112	272,371399	246,514394	0
15.01.2021	03:07:49	0	0	3,841708	2,87925	41,922	-1,022	78,781	0	1009,44	5	7,2	7,1	1	1	1	1	1	1	1	1	1	0	1	-64,904863	272,405523	247,305056	0
15.01.2021	03:07:50	0	0	4,406665	2,9295	36,918	-1,02	78,793	0	1009,42	5	7,3	7,1	1	1	1	1	1	1	1	1	1	0	1	-62,931642	272,415089	249,322133	0
15.01.2021	03:07:51	0	0	2,598802	2,84925	50,688	-1,023	78,772	0	1009,34	4,8	7,3	7,1	1	1	1	1	1	1	1	1	1	0	1	-60,958421	272,382312	251,1451	0
15.01.2021	03:07:52	0	0	3,389742	2,76075	50,3064	-1,022	78,782	0	1009,34	5	7,3	7,1	1	1	1	1	1	1	1	1	1	0	1	-65,257223	272,487671	247,329471	0
15.01.2021	03:07:53	0	0	2,485811	2,97	53,7336	-1,022	78,782	0	1009,36	4,8	7,2	7,1	1	1	1	1	1	1	1	1	1	0	1	-66,314306	272,378219	245,770456	0
15.01.2021	03:07:54	0	0	4,632648	3,0195	38,4156	-1,022	78,778	0	1009,36	4,8	7,3	7,1	1	1	1	1	1	1	1	1	1	0	1	-62,579281	272,50277	250,076702	0
15.01.2021	03:07:55	0	0	4,180682	3,12825	38,0628	-1,018	78,778	0	1009,18	4,8	7,2	7,1	1	1	1	1	1	1	1	1	1	0	1	-67,512333	272,445184	244,87945	0
15.01.2021	03:07:56	0	0	4,519656	3,14775	37,026	-1,02	78,761	0	1009,32	4,8	7,3	7,1	1	1	1	1	1	1	1	1	1	0	1	-64,48203	272,360492	247,521496	0
15.01.2021	03:07:57	0	0	5,423588	3,039	52,884	-1,02	78,756	0	1009,24	5	7,3	7,1	1	1	1	1	1	1	1	1	1	0	1	-67,230444	272,50277	245,425539	0
15.01.2021	03:07:58	0	0	3,615725	2,84475	43,29	-1,019	78,777	0	1009,32	4,8	7,3	7,1	1	1	1	1	1	1	1	1	1	0	1	-66,102889	272,421925	246,182228	0
15.01.2021	03:07:59	0	0	2,485811	2,5725	44,0532	-1,018	78,756	0	1009,28	4,8	7,2	7,1	1	1	1	1	1	1	1	1	1	0	1	-67,935166	272,548138	244,929082	0
15.01.2021	03:08:00	0	0	3,050768	2,62425	39,8736	-1,021	78,774	0	1009,34	5	7,3	7,1	1	1	1	1	1	1	1	1	1	0	1	-64,83439	272,559153	248,080435	0
15.01.2021	03:08:01	0	0	3,050768	2,62425	39,8736	-1,021	78,774	0	1009,34	5	7,3	7,1	1	1	1	1	1	1	1	1	1	0	1	-64,83439	272,559153	248,080435	0
15.01.2021	03:08:02	0	0	4,067691	2,7525	44,046	-1,021	78,771	0	1009,34	4,8	7,3	7,1	1	1	1	1	1	1	1	1	1	0	1	-69,626498	272,417823	242,639813	0
15.01.2021	03:08:03	0	0	5,310596	2,90625	38,07	-1,018	78,77	0	1009,42	4,8	7,3	7,1	1	1	1	1	1	1	1	1	1	0	1	-67,230444	272,47944	245,318484	0
15.01.2021	03:08:04	0	0	4,519656	3,00225	54,4824	-1,015	78,781	0	1009,24	5	7,3	7,1	1	1	1	1	1	1	1	1	1	0	1	-64,48203	272,542633	248,356942	0
15.01.2021	03:08:05	0	0	3,050768	2,952	47,3796	-1,015	78,772	0	1009,34	5	7,3	7,1	1	1	1	1	1	1	1	1	1	0	1	-67,723749	272,412356	244,517493	0
15.01.2021	03:08:06	0	0	3,615725	2,70075	65,4912	-1,02	78,744	0	1009,4	5	7,3	7,1	1	1	1	1	1	1	1	1	1	0	1	-63,143058	272,412356	249,098184	0
15.01.2021	03:08:07	0	0	3,728717	2,40075	43,3008	-1,016	78,763	0	1009,34	4,8	7,3	7,1	1	1	1	1	1	1	1	1	1	0	1	-67,159972	272,53713	245,653732	0
15.01.2021	03:08:08	0	0	5,084614	2,21925	41,4612	-1,022	78,759	0	1009,36	4,8	7,3	7,1	1	1	1	1	1	1	1	1	1	0	1	-64,200141	272,47944	248,348787	0
15.01.2021	03:08:09	0	0	4,406665	2,136	39,5532	-1,016	78,75	0	1009,36	4,8	7,3	7,1	1	1	1	1	1	1	1	1	1	0	1	-63,424947	272,376855	248,653562	0
15.01.2021	03:08:10	0	0	4,519656	2,23875	40,986	-1,015	78,73	0	1009,36	4,8	7,2	7,1	1	1	1	1	1	1	1	1	1	0	1	-68,217054	272,522004	244,52721	0
15.01.2021	03:08:11	0	0	2,598802	2,60325	38,034	-1,018	78,75	0	1009,36	4,8	7,3	7,1	1	1	1	1	1	1	1	1	1	0	1	-68,005638	272,382312	244,097884	0
15.01.2021	03:08:12	0	0	4,519656	2,8545	36,2304	-1,017	78,746	0	1009,34	4,8	7,2	7,1	1	1	1	1	1	1	1	1	1	0	1	-65,045807	272,526128	247,717389	0
15.01.2021	03:08:13	0	0	2,598802	2,95275	40,2588	-1,015	78,754	0	1009,38	4,8	7,3	7,1	1	1	1	1	1	1	1	1	1	0	1	-64,059197	272,401425	248,131935	0
15.01.2021	03:08:14	0	0	3,954699	2,9505	32,8824	-1,015	78,747	0	1009,4	4,8	7,2	7,1	1	1	1	1	1	1	1	1	1	0	1	-67,653277	272,561907	245,274199	0
15.01.2021	03:08:15	0	0	4,293674	2,82975	54,8892	-1,017	78,755	0	1009,36	4,8	7,2	7,1	1	1	1	1	1	1	1	1	1	0	1	-63,424947	272,501397	249,224734	0
15.01.2021	03:08:16	0	0	3,954699	2,76975	34,704	-1,016	78,759	0	1009,34	5	7,2	7,1	1	1	1	1	1	1	1	1	1	0	1	-67,019027	272,432867	245,316265	0
15.01.2021	03:08:17	0	0	4,293674	2,826	42,228	-1,02	78,76	0	1009,28	4,8	7,2	7,1	1	1	1	1	1	1	1	1	1	0	1	-63,143058	272,561907	249,784417	0
15.01.2021	03:08:18	0	0	4,745639	2,853	44,7768	-1,02	78,757	0	1009,38	4,8	7,2	7,1	1	1	1	1	1	1	1	1	1	0	1	-66,45525	272,487671	246,131444	0
15.01.2021	03:08:19	0	0	4,406692	2,826	46,2132	-1,024	78,761	0	1009,28	4,8	7,3	7	1	1	1	1	1	1	1	1	1	0	1	-68,569415	272,559153	244,345411	0
15.01.2021	03:08:20	0	0	3,615725	3,00525	35,4708	-1,023	78,744	0	1009,06	4,8	7,3	7,1	1	1	1	1	1	1	1	1	1	0	1	-66,666667	272,40006	245,518204	0
15.01.2021	03:08:21	0	0	2,824785	3,1965	48,1068	-1,019	78,75	0	1009,2	4,8	7,2	7,1	1	1	1	1	1	1	1	1	1	0	1	-64,411557	272,508263	248,269638	0
15.01.2021	03:08:22	0	0	2,937777	3,2265	53,3484	-1,018	78,736	0	1009,48	4,8	7,1	7,1	1	1	1	1	1	1	1	1	1	0	1	-70,260747	272,56604	242,685708	0
15.01.2021	03:08:23	0	0	3,841731	3,348	55,1808	-1,02	78,738	0	1009,16	4,8	7,2	7	1	1	1	1	1	1	1	1	1	0	1	-69,203665	272,53713	243,610039	0
15.01.2021	03:08:24	0	0	4,293674	3,50625	61,308	-1,021	78,755	0	1009,26	4,8	7,2	7,1	1	1	1	1	1	1	1	1	1	0	1	-65,327696	272,505516	247,340892	0
15.01.2021	03:08:25	0	0	4,745639	3,54975	53,3412	-1,016	78,753	0	1009,42	4,8	7,2	7,1	1	1	1	1	1	1	1	1	1	0	1	-63,213531	272,568796	249,74558	0
15.01.2021	03:08:26	0	0	3,050768	3,22875	44,388	-1,019	78,762	0	1009,34	4,8	7,2	7,1	1	1	1	1	1	1	1	1	1	0	1	-63,84778	272,413722	248,399728	0
15.01.2021	03:08:27	0	0	3,841708	3,0945	53,3448	-1,016	78,766	0	1009,38	4,8	7,2	7,1	1	1	1	1	1	1	1	1	1	0	1	-69,203665	272,458879	243,250935	0
15.01.2021	03:08:28	0	0	4,632648	3,021	46,5876	-1,017	78,768	0	1009,42	4,8	7,2	7,1	1	1	1	1	1	1	1	1	1	0	1	-65,46864	272,40689	246,747543	0
15.01.2021	03:08:29	0	0	3,728717	2,91825	53,7336	-1,014	78,761	0	1009,38	4,8	7,2	7,1	1	1	1	1	1	1	1	1	1	0	1	-69,344609	272,50689	243,330282	0
15.01.2021	03:08:30	0	0	4,067691	2,847	48,6	-1,012	78,745	0	1009,34	4,8	7,2	7,1	1	1	1	1	1	1	1	1	1	0	1	-65,961945	272,387771	246,166597	0
15.01.2021	03:08:31	0	0	3,615725	2,745	43,2864	-1,016	78,76	0	1009,36	4,8	7,2	7,1	1	1	1	1	1	1	1	1	1	0	1	-68,921776	272,498651	243,715304	0
15.01.2021	03:08:32	0	0	3,502755	2,7465	55,188	-1,016	78,75	0	1009,34	4,8	7,2	7	1	1	1	1	1	1	1	1	1	0	1	-74,91191	272,56604	238,034545	0
15.01.2021	03:08:33	0	0	2,598818	2,64375	57,7656	-1,016	78,764	0	1009,26	4,8	7,2	7	1	1	1	1	1	1	1	1	1	0	1	-66,384778	272,390501	245,756278	0
15.01.2021	03:08:34	0	0	3,615747	2,36775	29,1024	-1,017	78,747	0	1009,36	4,8	7,2	7	1	1	1	1	1	1	1	1	1	0	1	-64,83439	272,512384	247,86572	0
15.01.2021	03:08:35	0	0	2,598818	2,193	32,8968	-1,014	78,765	0	1009,48	4,8	7,2	7	1	1	1	1	1	1	1	1	1	0	1	-67,582805	272,40006	244,602065	0
15.01.2021	03:08:36	0	0	5,310596	2,0325	32,1588	-1,014	78,757	0	1009,3	4,8	7,2	7,1	1	1	1	1	1	1	1	1	1	0	1	-64,129669	272,408256	248,092778	0
15.01.2021	03:08:37	0	0	3,502755	1,9095	31,3956	-1,021	78,768	0	1009,32	4,8	7,2	7	1	1	1	1	1	1	1	1	1	0	1	-64,129669	272,501397	248,520012	0
15.01.2021	03:08:38	0	0	4,632648	1,88925	32,166	-1,012	78,77	0	1009,26	4,8	7,2	7,1	1	1	1	1	1	1	1	1	1	0	1	-66,737139	272,56604	246,209316	0
15.01.2021	03:08:39	0	0	4,519684	1,872	34,3332	-1,013	78,777	0	1009,3	4,8	7,3	7	1	1	1	1	1	1	1	1	1	0	1	-66,45525	272,570174	246,510189	0
15.01.2021	03:08:40	0	0	2,824785	1,8705	41,4864	-1,012	78,775	0	1009,34	4,8	7,2	7,1	1	1	1	1	1	1	1	1	1	0	1	-67,935166	272,50277	244,720817	0
15.01.2021	03:08:41	0	0	3,615747	2,06175	44,0568	-1,018	78,781	0	1009,36	4,8	7,2	7	1	1	1	1	1	1	1	1	1	0	1	-66,807611	272,568796	246,1515	0
15.01.2021	03:08:42	0	0	3,163779	2,14575	52,1244	-1,013	78,785	0	1009,46	4,8	7,2	7	1	1	1	1	1	1	1	1	1	0	1	-68,569415	272,548138	244,294832	0
15.01.2021	03:08:43	0	0	2,598818	2,23725	39,5532	-1,013	78,793	0	1009,26	4,8	7,2	7	1	1	1	1	1	1	1	1	1	0	1	-68,569415	272,511011	244,12439	0
15.01.2021	03:08:44	0	0	2,485811	2,36325	48,8232	-1,008	78,788	0	1009,38	4,8	7,2	7,1	1	1	1	1	1	1	1	1	1	0	1	-68,639887	272,404157	243,563769	0
15.01.2021	03:08:45	0	0	4,971652	2,38125	45,1548	-1,015	78,788	0	1009,18	4,8	7,2	7	1	1	1	1	1	1	1	1	1	0	1	-67,019027	272,538506	245,800992	0
15.01.2021	03:08:46	0	0	4,745668	2,4105	50,6844	-1,008	78,8	0	1009,36	4,8	7,2	7	1	1	1	1	1	1	1	1	1	0	1	-69,344609	272,398694	242,834	0
15.01.2021	03:08:47	0	0	2,598818	2,337	28,3536	-1,012	78,773	0	1009,28	4,8	7,2	7	1	1	1	1	1	1	1	1	1	0	1	-71,811135	272,402791	240,386259	0
15.01.2021	03:08:48	0	0	3,502734	2,11275	33,9516	-1,014	78,762	0	1009,24	4,8	7,2	7,1	1	1	1	1	1	1	1	1	1	0	1	-62,86117	272,491788	249,744415	0
15.01.2021	03:08:49	0	0	4,067691	2,09775	49,59	-1,01	78,767	0	1009,22	4,8	7,2	7,1	1	1	1	1	1	1	1	1	1	0	1	-68,498943	272,575686	244,491817	0
15.01.2021	03:08:50	0	0	3,615747	2,21025	40,626	-1,008	78,775	0	1009,38	4,8	7,2	7	1	1	1	1	1	1	1	1	1	0	1	-63,636364	272,397328	248,535985	0
15.01.2021	03:08:51	0	0	2,824802	2,29125	46,9872	-1,01	78,776	0	1009,46	4,8	7,2	7	1	1	1	1	1	1	1	1	1	0	1	-66,314306	272,473955	246,209456	0
15.01.2021	03:08:52	0	0	3,841731	2,33925	43,3008	-1,012	78,768	0	1009,4	4,8	7,2	7	1	1	1	1	1	1	1	1	1	0	1	-64,975335	272,583959	248,053422	0
15.01.2021	03:08:53	0	0	3,841731	2,2815	38,8008	-1,015	78,762	0	1009,38	4,8	7,2	7	1	1	1	1	1	1	1	1	1	0	1	-67,794221	272,549515	245,076346	0
15.01.2021	03:08:54	0	0	4,180682	2,0385	30,7188	-1,014	78,765	0	1009,24	4,8	7,2	7,1	1	1	1	1	1	1	1	1	1	0	1	-68,357999	272,472584	244,159473	0
15.01.2021	03:08:55	0	0	5,084644	1,76025	25,0416	-1,015	78,742	0	1009,38	4,8	7,2	7	1	1	1	1	1	1	1	1	1	0	1	-69,133192	272,577065	243,863899	0
15.01.2021	03:08:56	0	0	3,615747	1,7325	26,1648	-1,01	78,752	0	1009,4	4,8	7,2	7	1	1	1	1	1	1	1	1	1	0	1	-71,952079	272,516506	240,766951	0
15.01.2021	03:08:57	0	0	4,632676	1,8075	24,7392	-1,009	78,747	0	1009,44	5	7,2	7	1	1	1	1	1	1	1	1	1	0	1	-66,173362	272,427395	246,136839	0
15.01.2021	03:08:58	0	0	4,971622	1,9485	24,732	-1,017	78,733	0	1009,3	4,8	7,2	7,1	1	1	1	1	1	1	1	1	1	0	1	-62,015504	272,544009	250,829785	0
15.01.2021	03:08:59	0	0	3,389763	2,0775	28,7388	-1,008	78,741	0	1009,36	4,8	7,2	7	1	1	1	1	1	1	1	1	1	0	1	-64,975335	272,4534	247,454131	0
15.01.2021	03:09:00	0	0	4,85866	2,1825	17,2512	-1,013	78,721	0	1009,42	4,8	7,2	7	1	1	1	1	1	1	1	1	1	0	1	-67,794221	272,539881	245,032115	0
15.01.2021	03:09:01	0	0	4,85866	2,1825	17,2512	-1,013	78,721	0	1009,42	4,8	7,2	7	1	1	1	1	1	1	1	1	1	0	1	-67,794221	272,539881	245,032115	0
15.01.2021	03:09:02	0	0	3,728739	2,244	30,7224	-1,015	78,726	0	1009,34	5	7,2	7	1	1	1	1	1	1	1	1	1	0	1	-64,693446	272,41919	247,579133	0
15.01.2021	03:09:03	0	0	3,841731	2,24775	13,932	-1,008	78,725	0	1009,34	4,8	7,2	7	1	1	1	1	1	1	1	1	1	0	1	-68,005638	272,435603	244,342205	0
15.01.2021	03:09:04	0	0	3,276751	2,15625	30,3264	-1,013	78,717	0	1009,34	4,8	7,2	7,1	1	1	1	1	1	1	1	1	1	0	1	-66,243834	272,42466	246,053824	0
15.01.2021	03:09:05	0	0	3,050786	2,2575	34,7184	-1,01	78,722	0	1009,42	4,8	7,2	7	1	1	1	1	1	1	1	1	1	0	1	-67,371388	272,393232	244,782183	0
15.01.2021	03:09:06	0	0	3,163779	2,45625	25,4304	-1,012	78,707	0	1009,42	4,8	7,2	7	1	1	1	1	1	1	1	1	1	0	1	-67,230444	272,439709	245,136226	0
15.01.2021	03:09:07	0	0	3,954699	2,55675	33,6492	-1,011	78,698	0	1009,3	4,8	7,2	7,1	1	1	1	1	1	1	1	1	1	0	1	-66,666667	272,571552	246,305102	0
15.01.2021	03:09:08	0	0	3,276771	2,637	34,3404	-1,013	78,712	0	1009,24	5	7,2	7	1	1	1	1	1	1	1	1	1	0	1	-64,411557	272,533003	248,383202	0
15.01.2021	03:09:09	0	0	3,954723	2,70225	35,496	-1,005	78,715	0	1009,38	4,8	7,2	7	1	1	1	1	1	1	1	1	1	0	1	-65,750529	272,581201	247,26556	0
15.01.2021	03:09:10	0	0	4,971622	2,87025	34,7004	-1,007	78,716	0	1009,38	4,8	7,2	7,1	1	1	1	1	1	1	1	1	1	0	1	-70,68358	272,546762	242,174347	0
15.01.2021	03:09:11	0	0	3,163779	2,88975	29,9484	-1,01	78,713	0	1009,42	5	7,2	7	1	1	1	1	1	1	1	1	1	0	1	-68,992248	272,45203	243,430936	0
15.01.2021	03:09:12	0	0	3,728717	2,6415	34,7184	-1,012	78,71	0	1009,26	5	7,2	7,1	1	1	1	1	1	1	1	1	1	0	1	-62,438337	272,570174	250,527103	0
15.01.2021	03:09:13	0	0	5,310596	2,5335	49,9572	-1,01	78,731	0	1009,2	4,8	7,2	7,1	1	1	1	1	1	1	1	1	1	0	1	-68,005638	272,549515	244,86493	0
15.01.2021	03:09:14	0	0	3,502755	2,664	62,4276	-1,01	78,708	0	1009,38	4,8	7,2	7	1	1	1	1	1	1	1	1	1	0	1	-65,398168	272,484927	247,175936	0
15.01.2021	03:09:15	0	0	3,728717	2,70375	44,7984	-1,011	78,735	0	1009,38	4,8	7,2	7,1	1	1	1	1	1	1	1	1	1	0	1	-66,314306	272,579822	246,69545	0
15.01.2021	03:09:16	0	0	2,711794	2,64375	53,7228	-1,003	78,746	0	1009,32	4,8	7,2	7,1	1	1	1	1	1	1	1	1	1	0	1	-64,200141	272,468472	248,298464	0
15.01.2021	03:09:17	0	0	4,180682	2,52675	21,1032	-1,009	78,76	0	1009,4	5	7,2	7,1	1	1	1	1	1	1	1	1	1	0	1	-67,935166	272,426027	244,368763	0
15.01.2021	03:09:18	0	0	3,050786	2,5665	34,056	-1,017	78,766	0	1009,3	4,8	7,2	7	1	1	1	1	1	1	1	1	1	0	1	-66,878083	272,57293	246,100015	0
15.01.2021	03:09:19	0	0	4,067691	2,71575	41,004	-1,007	78,771	0	1009,3	4,8	7,2	7,1	1	1	1	1	1	1	1	1	1	0	1	-66,173362	272,465731	246,312667	0
15.01.2021	03:09:20	0	0	3,841731	2,75475	36,6372	-1,005	78,795	0	1009,48	4,9	7,2	7	1	1	1	1	1	1	1	1	1	0	1	-69,767442	272,56053	243,153709	0
15.01.2021	03:09:21	0	0	2,711794	2,8845	44,784	-1,012	78,786	0	1009,32	4,8	7,2	7,1	1	1	1	1	1	1	1	1	1	0	1	-68,428471	272,501397	244,22121	0
15.01.2021	03:09:22	0	0	4,293674	2,8065	38,8044	-1,008	78,794	0	1009,38	5	7,2	7,1	1	1	1	1	1	1	1	1	1	0	1	-66,384778	272,405523	245,825141	0
15.01.2021	03:09:23	0	0	5,084614	2,661	35,4708	-1,006	78,784	0	1009,3	4,8	7,2	7,1	1	1	1	1	1	1	1	1	1	0	1	-63,213531	272,391866	248,933783	0
15.01.2021	03:09:24	0	0	3,954723	2,5875	42,2136	-1,005	78,8	0	1009,36	4,8	7,2	7	1	1	1	1	1	1	1	1	1	0	1	-67,159972	272,450661	245,256931	0
15.01.2021	03:09:25	0	0	4,293674	2,55225	40,6116	-1,004	78,808	0	1009,38	4,9	7,2	7,1	1	1	1	1	1	1	1	1	1	0	1	-64,341085	272,557775	248,567416	0
15.01.2021	03:09:26	0	0	3,502734	2,661	59,4612	-1,002	78,814	0	1009,3	4,8	7,2	7,1	1	1	1	1	1	1	1	1	1	0	1	-66,878083	272,447922	245,526258	0
15.01.2021	03:09:27	0	0	2,711794	2,60475	53,352	-1,005	78,796	0	1009,2	4,9	7,2	7,1	1	1	1	1	1	1	1	1	1	0	1	-68,992248	272,516506	243,726782	0
15.01.2021	03:09:28	0	0	3,954699	2,56575	24,3576	-1,004	78,807	0	1009,44	4,8	7,2	7,1	1	1	1	1	1	1	1	1	1	0	1	-64,200141	272,567418	248,752642	0
15.01.2021	03:09:29	0	0	2,937777	2,4015	29,5848	-1,005	78,8	0	1009,42	5	7,2	7,1	1	1	1	1	1	1	1	1	1	0	1	-67,44186	272,489043	245,15113	0
15.01.2021	03:09:30	0	0	2,711794	2,175	16,1064	-1,008	78,818	0	1009,28	4,8	7,2	7,1	1	1	1	1	1	1	1	1	1	0	1	-66,737139	272,430131	245,585607	0
15.01.2021	03:09:31	0	0	2,824785	1,9935	26,1864	-1,003	78,818	0	1009,4	4,8	7,2	7,1	1	1	1	1	1	1	1	1	1	0	1	-68,780832	272,574308	244,203597	0
15.01.2021	03:09:32	0	0	4,293699	1,944	33,2676	-1,002	78,814	0	1009,38	5	7,2	7	1	1	1	1	1	1	1	1	1	0	1	-65,46864	272,527503	247,300868	0
15.01.2021	03:09:33	0	0	4,180707	1,8795	36,2484	-0,999	78,817	0	1009,36	4,9	7,2	7	1	1	1	1	1	1	1	1	1	0	1	-66,666667	272,383677	245,443109	0
15.01.2021	03:09:34	0	0	5,084614	1,8135	41,8536	-1,002	78,814	0	1009,4	4,9	7,3	7,1	1	1	1	1	1	1	1	1	1	0	1	-65,327696	272,538506	247,492324	0
15.01.2021	03:09:35	0	0	4,858631	1,7565	32,9004	-1,005	78,802	0	1009,42	5	7,2	7,1	1	1	1	1	1	1	1	1	1	0	1	-66,948555	272,483555	245,619254	0
15.01.2021	03:09:36	0	0	3,050768	1,824	48,1248	-1,001	78,799	0	1009,32	5	7,2	7,1	1	1	1	1	1	1	1	1	1	0	1	-64,622974	272,577065	248,374117	0
15.01.2021	03:09:37	0	0	2,937794	1,932	52,8624	-0,999	78,822	0	1009,32	4,9	7,2	7	1	1	1	1	1	1	1	1	1	0	1	-63,918252	272,42466	248,379406	0
15.01.2021	03:09:38	0	0	3,276751	2,07825	41,4648	-1,004	78,805	0	1009,46	4,9	7,2	7,1	1	1	1	1	1	1	1	1	1	0	1	-64,622974	272,524753	248,133911	0
15.01.2021	03:09:39	0	0	4,745639	2,073	36,9288	-1,003	78,815	0	1009,26	4,9	7,3	7,1	1	1	1	1	1	1	1	1	1	0	1	-62,508809	272,413722	249,738699	0
15.01.2021	03:09:40	0	0	4,971622	2,016	45,666	-1,003	78,81	0	1009,16	4,9	7,3	7,1	1	1	1	1	1	1	1	1	1	0	1	-70,894996	272,542633	241,943975	0
15.01.2021	03:09:41	0	0	4,293674	1,99125	38,808	-1,001	78,811	0	1009,42	4,9	7,2	7,1	1	1	1	1	1	1	1	1	1	0	1	-67,864693	272,542633	244,974278	0
15.01.2021	03:09:42	0	0	3,389742	2,055	47,376	-1	78,807	0	1009,52	4,8	7,3	7,1	1	1	1	1	1	1	1	1	1	0	1	-67,371388	272,397328	244,800961	0
15.01.2021	03:09:43	0	0	3,728717	2,13975	45,8532	-1,003	78,8	0	1009,4	4,9	7,2	7,1	1	1	1	1	1	1	1	1	1	0	1	-65,891473	272,501397	246,758208	0
15.01.2021	03:09:44	0	0	2,598802	2,16525	45,1368	-0,999	78,793	0	1009,32	4,9	7,2	7,1	1	1	1	1	1	1	1	1	1	0	1	-68,005638	272,581201	245,010451	0
15.01.2021	03:09:45	0	0	3,615725	2,14725	46,5912	-0,999	78,808	0	1009,34	4,8	7,2	7,1	1	1	1	1	1	1	1	1	1	0	1	-64,622974	272,555021	248,272881	0
15.01.2021	03:09:46	0	0	4,519656	2,082	70,3116	-1	78,802	0	1009,38	4,9	7,2	7,1	1	1	1	1	1	1	1	1	1	0	1	-64,904863	272,519255	247,826784	0
15.01.2021	03:09:47	0	0	2,711794	2,02725	60,2352	-0,998	78,799	0	1009,42	4,9	7,3	7,1	1	1	1	1	1	1	1	1	1	0	1	-71,740662	272,579822	241,269093	0
15.01.2021	03:09:48	0	0	3,389742	1,94625	40,2516	-0,998	78,796	0	1009,38	4,9	7,3	7,1	1	1	1	1	1	1	1	1	1	0	1	-66,807611	272,442446	245,571614	0
15.01.2021	03:09:49	0	0	2,711794	2,0235	45,1548	-0,997	78,781	0	1009,42	4,9	7,3	7,1	1	1	1	1	1	1	1	1	1	0	1	-68,498943	272,586717	244,542484	0
15.01.2021	03:09:50	0	0	3,502734	2,307	49,1904	-1	78,782	0	1009,3	4,9	7,2	7,1	1	1	1	1	1	1	1	1	1	0	1	-67,159972	272,427395	245,150229	0
15.01.2021	03:09:51	0	0	2,937777	2,532	49,5576	-0,993	78,784	0	1009,42	4,9	7,3	7,1	1	1	1	1	1	1	1	1	1	0	1	-66,807611	272,471213	245,703571	0
15.01.2021	03:09:52	0	0	2,598802	2,4795	27,2916	-0,996	78,782	0	1009,46	4,9	7,2	7,1	1	1	1	1	1	1	1	1	1	0	1	-64,763918	272,397328	247,408431	0
15.01.2021	03:09:53	0	0	4,745639	2,319	29,5596	-1,001	78,783	0	1009,36	4,9	7,3	7,1	1	1	1	1	1	1	1	1	1	0	1	-65,821001	272,535754	246,986388	0
15.01.2021	03:09:54	0	0	2,598802	2,21175	36,9108	-0,997	78,779	0	1009,52	4,9	7,2	7,1	1	1	1	1	1	1	1	1	1	0	1	-67,300916	272,581201	245,715173	0
15.01.2021	03:09:55	0	0	4,519656	2,20575	51,0516	-0,995	78,769	0	1009,42	4,9	7,3	7,1	1	1	1	1	1	1	1	1	1	0	1	-67,864693	272,436972	244,489424	0
15.01.2021	03:09:56	0	0	4,519656	2,16075	28,7136	-1,002	78,768	0	1009,24	4,9	7,3	7,1	1	1	1	1	1	1	1	1	1	0	1	-63,002114	272,524753	249,754771	0
15.01.2021	03:09:57	0	0	4,858631	2,421	47,3724	-1	78,758	0	1009,44	4,9	7,3	7,1	1	1	1	1	1	1	1	1	1	0	1	-67,935166	272,586717	245,106261	0
15.01.2021	03:09:58	0	0	4,858631	2,622	48,834	-0,992	78,764	0	1009,4	4,9	7,3	7,1	1	1	1	1	1	1	1	1	1	0	1	-68,07611	272,559153	244,838716	0
15.01.2021	03:09:59	0	0	3,389742	2,96775	44,4096	-0,995	78,78	0	1009,54	4,9	7,3	7,1	1	1	1	1	1	1	1	1	1	0	1	-67,44186	272,456139	245,000171	0
15.01.2021	03:10:00	0	0	4,067691	3,02925	45,1476	-0,991	78,766	0	1009,42	4,9	7,3	7,1	1	1	1	1	1	1	1	1	1	0	1	-65,539112	272,501397	247,110569	0
15.01.2021	03:10:01	0	0	4,067691	3,02925	45,1476	-0,991	78,766	0	1009,42	4,9	7,3	7,1	1	1	1	1	1	1	1	1	1	0	1	-65,539112	272,501397	247,110569	0
15.01.2021	03:10:02	0	0	3,954699	3,12	30,4272	-0,99	78,775	0	1009,26	4,9	7,3	7,1	1	1	1	1	1	1	1	1	1	0	1	-67,159972	272,577065	245,837119	0
15.01.2021	03:10:03	0	0	4,406665	3,0195	34,7112	-1,001	78,758	0	1009,24	4,9	7,2	7,1	1	1	1	1	1	1	1	1	1	0	1	-67,159972	272,549515	245,710596	0
15.01.2021	03:10:04	0	0	5,084614	3,234	45,5364	-0,992	78,777	0	1009,34	4,9	7,3	7,1	1	1	1	1	1	1	1	1	1	0	1	-63,072586	272,535754	249,734802	0
15.01.2021	03:10:05	0	0	4,293674	3,639	36,6264	-0,994	78,764	0	1009,42	4,9	7,3	7,1	1	1	1	1	1	1	1	1	1	0	1	-68,005638	272,415089	244,248137	0
15.01.2021	03:10:06	0	0	2,711794	4,0575	26,5284	-0,995	78,773	0	1009,5	4,9	7,3	7,1	1	1	1	1	1	1	1	1	1	0	1	-67,019027	272,487671	245,567667	0
15.01.2021	03:10:07	0	0	2,711794	4,2555	35,8668	-0,995	78,761	0	1009,36	4,9	7,3	7,1	1	1	1	1	1	1	1	1	1	0	1	-69,69697	272,588096	243,350793	0
15.01.2021	03:10:08	0	0	3,615725	4,1025	48,1248	-0,995	78,737	0	1009,38	4,9	7,3	7,1	1	1	1	1	1	1	1	1	1	0	1	-64,975335	272,449292	247,435287	0
15.01.2021	03:10:09	0	0	4,858631	3,84375	52,1316	-0,992	78,739	0	1009,38	4,9	7,3	7,1	1	1	1	1	1	1	1	1	1	0	1	-67,653277	272,546762	245,20465	0
15.01.2021	03:10:10	0	0	3,276751	3,61875	51,7608	-0,993	78,724	0	1009,12	4,9	7,2	7,1	1	1	1	1	1	1	1	1	1	0	1	-63,424947	272,603274	249,692546	0
15.01.2021	03:10:11	0	0	2,485811	3,30675	40,2444	-0,998	78,734	0	1009,24	4,9	7,3	7,1	1	1	1	1	1	1	1	1	1	0	1	-65,116279	272,508263	247,564916	0
15.01.2021	03:10:12	0	0	2,824785	3,123	34,7148	-0,993	78,746	0	1009,36	4,9	7,3	7,1	1	1	1	1	1	1	1	1	1	0	1	-67,44186	272,592234	245,624913	0
15.01.2021	03:10:13	0	0	3,728717	3,02475	39,8556	-0,997	78,746	0	1009,24	4,9	7,3	7,1	1	1	1	1	1	1	1	1	1	0	1	-69,274137	272,575686	243,716623	0
15.01.2021	03:10:14	0	0	2,824785	2,73075	39,1644	-0,995	78,753	0	1009,48	4,9	7,3	7,1	1	1	1	1	1	1	1	1	1	0	1	-64,059197	272,542633	248,779775	0
15.01.2021	03:10:15	0	0	3,389742	2,5305	38,8152	-0,996	78,779	0	1009,32	4,9	7,3	7,1	1	1	1	1	1	1	1	1	1	0	1	-69,908386	272,420557	242,370462	0
15.01.2021	03:10:16	0	0	3,16376	2,54775	41,8428	-0,991	78,782	0	1009,32	4,9	7,3	7,1	1	1	1	1	1	1	1	1	1	0	1	-66,102889	272,534379	246,698184	0
15.01.2021	03:10:17	0	0	3,954699	2,7015	40,9968	-0,998	78,788	0	1009,26	4,9	7,3	7,1	1	1	1	1	1	1	1	1	1	0	1	-66,173362	272,607416	246,963161	0
15.01.2021	03:10:18	0	0	3,502734	2,8365	47,7324	-0,995	78,797	0	1009,38	4,9	7,3	7,1	1	1	1	1	1	1	1	1	1	0	1	-63,213531	272,4534	249,215936	0
15.01.2021	03:10:19	0	0	3,16376	2,76975	32,148	-0,988	78,799	0	1009,42	4,9	7,3	7,1	1	1	1	1	1	1	1	1	1	0	1	-67,864693	272,478069	244,677943	0
15.01.2021	03:10:20	0	0	4,293674	2,68425	43,6608	-0,99	78,811	0	1009,18	4,9	7,3	7,1	1	1	1	1	1	1	1	1	1	0	1	-67,019027	272,615702	246,155568	0
15.01.2021	03:10:21	0	0	3,502734	2,73675	40,6332	-0,986	78,829	0	1009,46	4,9	7,3	7,1	1	1	1	1	1	1	1	1	1	0	1	-64,552502	272,509637	248,134998	0
15.01.2021	03:10:22	0	0	4,406665	2,70675	35,0892	-0,986	78,832	0	1009,52	4,9	7,3	7,1	1	1	1	1	1	1	1	1	1	0	1	-67,935166	272,43834	244,425228	0
15.01.2021	03:10:23	0	0	3,276751	2,655	35,082	-0,985	78,84	0	1009,36	4,9	7,3	7,1	1	1	1	1	1	1	1	1	1	0	1	-67,300916	272,461619	245,166254	0
15.01.2021	03:10:24	0	0	4,519656	2,70225	33,9624	-0,987	78,864	0	1009,38	4,9	7,3	7,1	1	1	1	1	1	1	1	1	1	0	1	-67,159972	272,56604	245,786483	0
15.01.2021	03:10:25	0	0	3,16376	2,481	45,8568	-0,987	78,86	0	1009,28	4,9	7,3	7,1	1	1	1	1	1	1	1	1	1	0	1	-64,48203	272,618465	248,705262	0
15.01.2021	03:10:26	0	0	4,858631	2,39625	36,954	-0,987	78,908	0	1009,78	4,9	7,3	7,1	1	1	1	1	1	1	1	1	1	0	1	-68,569415	272,556398	244,332763	0
15.01.2021	03:10:27	0	0	4,406665	2,41725	45,8568	-0,989	78,89	0	1009,46	4,9	7,3	7,1	1	1	1	1	1	1	1	1	1	0	1	-64,200141	272,45203	248,223043	0
15.01.2021	03:10:28	0	0	4,406665	2,40975	57,0384	-0,986	78,877	0	1009,36	4,9	7,3	7,1	1	1	1	1	1	1	1	1	1	0	1	-63,988724	272,432867	248,346568	0
15.01.2021	03:10:29	0	0	3,050768	2,5515	37,692	-0,979	78,912	0	1009,24	4,9	7,3	7,1	1	1	1	1	1	1	1	1	1	0	1	-68,710359	272,501397	243,939322	0
15.01.2021	03:10:30	0	0	4,745639	2,75925	44,7768	-0,984	78,909	0	1009,48	4,9	7,3	7,1	1	1	1	1	1	1	1	1	1	0	1	-62,790698	272,623992	250,421991	0
15.01.2021	03:10:31	0	0	3,728717	2,90625	50,3028	-0,989	78,903	0	1009,4	4,8	7,3	7,1	1	1	1	1	1	1	1	1	1	0	1	-63,424947	272,585338	249,610144	0
15.01.2021	03:10:32	0	0	3,615725	2,88525	66,2292	-0,988	78,902	0	1009,34	4,9	7,3	7,1	1	1	1	1	1	1	1	1	1	0	1	-65,539112	272,557775	247,369389	0
15.01.2021	03:10:33	0	0	4,745639	2,628	44,3952	-0,98	78,912	0	1009,34	4,9	7,3	7,1	1	1	1	1	1	1	1	1	1	0	1	-65,186751	272,449292	247,22387	0
15.01.2021	03:10:34	0	0	2,824785	2,6175	33,9372	-0,987	78,907	0	1009,42	4,8	7,3	7,1	1	1	1	1	1	1	1	1	1	0	1	-64,622974	272,563285	248,310828	0
15.01.2021	03:10:35	0	0	3,16376	2,72775	36,252	-0,983	78,904	0	1009,4	4,9	7,3	7,1	1	1	1	1	1	1	1	1	1	0	1	-64,975335	272,614321	248,192914	0
15.01.2021	03:10:36	0	0	2,937777	2,709	39,8772	-0,982	78,896	0	1009,38	4,9	7,3	7,1	1	1	1	1	1	1	1	1	1	0	1	-63,988724	272,47944	248,560204	0
15.01.2021	03:10:37	0	0	3,728717	2,5905	42,624	-0,988	78,886	0	1009,16	4,8	7,3	7,1	1	1	1	1	1	1	1	1	1	0	1	-64,341085	272,561907	248,586391	0
15.01.2021	03:10:38	0	0	2,824785	2,53275	32,8968	-0,976	78,877	0	1009,3	4,8	7,3	7,1	1	1	1	1	1	1	1	1	1	0	1	-62,22692	272,615702	250,947675	0
15.01.2021	03:10:39	0	0	5,423588	2,44725	39,1716	-0,978	78,884	0	1009,3	4,8	7,3	7,1	1	1	1	1	1	1	1	1	1	0	1	-70,965469	272,46436	241,514273	0
15.01.2021	03:10:40	0	0	4,632648	2,382	25,0452	-0,981	78,883	0	1009,38	4,8	7,3	7,1	1	1	1	1	1	1	1	1	1	0	1	-72,938689	272,56053	239,982461	0
15.01.2021	03:10:41	0	0	3,728717	2,35125	36,6228	-0,984	78,88	0	1009,4	4,9	7,3	7,1	1	1	1	1	1	1	1	1	1	0	1	-69,415081	272,614321	243,753168	0
15.01.2021	03:10:42	0	0	4,067691	2,418	48,2076	-0,98	78,879	0	1009,34	4,9	7,3	7,1	1	1	1	1	1	1	1	1	1	0	1	-67,159972	272,4534	245,269494	0
15.01.2021	03:10:43	0	0	2,937777	2,361	31,7808	-0,975	78,879	0	1009,24	4,8	7,3	7,1	1	1	1	1	1	1	1	1	1	0	1	-62,86117	272,465731	249,624859	0
15.01.2021	03:10:44	0	0	3,16376	2,35275	39,1716	-0,978	78,857	0	1009,34	4,8	7,3	7,1	1	1	1	1	1	1	1	1	1	0	1	-63,565891	272,53713	249,247812	0
15.01.2021	03:10:45	0	0	3,050768	2,43975	46,2348	-0,977	78,856	0	1009,34	5	7,3	7,1	1	1	1	1	1	1	1	1	1	0	1	-64,341085	272,639199	248,941493	0
15.01.2021	03:10:46	0	0	4,632648	2,60925	58,9536	-0,972	78,863	0	1009,36	5	7,3	7,1	1	1	1	1	1	1	1	1	1	0	1	-65,46864	272,498651	247,16844	0
15.01.2021	03:10:47	0	0	2,711794	2,64225	51,0552	-0,977	78,858	0	1009,34	5	7,3	7,1	1	1	1	1	1	1	1	1	1	0	1	-67,159972	272,61294	246,001931	0
15.01.2021	03:10:48	0	0	4,406665	2,60775	51,0588	-0,976	78,859	0	1009,36	4,8	7,3	7,1	1	1	1	1	1	1	1	1	1	0	1	-65,045807	272,621228	248,154182	0
15.01.2021	03:10:49	0	0	4,406665	2,52525	38,8188	-0,976	78,842	0	1009,42	4,8	7,3	7,1	1	1	1	1	1	1	1	1	1	0	1	-66,525722	272,542633	246,313249	0
15.01.2021	03:10:50	0	0	3,276751	2,3835	32,5152	-0,971	78,843	0	1009,28	4,8	7,3	7,1	1	1	1	1	1	1	1	1	1	0	1	-67,230444	272,473955	245,293318	0
15.01.2021	03:10:51	0	0	3,050768	2,35125	45,5472	-0,967	78,859	0	1009,52	5	7,3	7,1	1	1	1	1	1	1	1	1	1	0	1	-67,794221	272,641965	245,501072	0
15.01.2021	03:10:52	0	0	3,615725	2,2035	60,9228	-0,966	78,855	0	1009,36	4,8	7,3	7,1	1	1	1	1	1	1	1	1	1	0	1	-66,173362	272,46299	246,300094	0
15.01.2021	03:10:53	0	0	5,084583	1,989	43,7652	-0,967	78,85	0	1009,48	5	7,2	7,2	1	1	1	1	1	1	1	1	1	0	1	-66,243834	272,62261	246,962505	0
15.01.2021	03:10:54	0	0	3,841708	1,82175	60,9516	-0,962	78,857	0	1009,42	4,8	7,3	7,1	1	1	1	1	1	1	1	1	1	0	1	-63,354475	272,570174	249,610965	0
15.01.2021	03:10:55	0	0	3,389722	1,72725	51,0408	-0,967	78,828	0	1009,54	5	7,3	7,2	1	1	1	1	1	1	1	1	1	0	1	-67,300916	272,628138	245,930827	0
15.01.2021	03:10:56	0	0	3,276751	1,578	48,1464	-0,965	78,837	0	1009,4	4,8	7,2	7,1	1	1	1	1	1	1	1	1	1	0	1	-61,733615	272,494533	250,884566	0
15.01.2021	03:10:57	0	0	4,858631	1,53375	36,9432	-0,968	78,831	0	1009,42	4,8	7,3	7,1	1	1	1	1	1	1	1	1	1	0	1	-70,260747	272,460249	242,200137	0
15.01.2021	03:10:58	0	0	4,745639	1,518	45,522	-0,963	78,834	0	1009,4	5	7,3	7,1	1	1	1	1	1	1	1	1	1	0	1	-68,07611	272,542633	244,762861	0
15.01.2021	03:10:59	0	0	3,615704	1,46325	43,6716	-0,971	78,818	0	1009,3	5	7,3	7,2	1	1	1	1	1	1	1	1	1	0	1	-70,68358	272,46299	241,789876	0
15.01.2021	03:11:00	0	0	4,519656	1,5885	52,1388	-0,966	78,802	0	1009,3	5	7,2	7,1	1	1	1	1	1	1	1	1	1	0	1	-66,525722	272,497278	246,105057	0
15.01.2021	03:11:01	0	0	4,519656	1,5885	52,1388	-0,966	78,802	0	1009,3	5	7,2	7,1	1	1	1	1	1	1	1	1	1	0	1	-66,525722	272,497278	246,105057	0
15.01.2021	03:11:02	0	0	5,084614	1,63575	46,2384	-0,969	78,801	0	1009,48	4,8	7,3	7,1	1	1	1	1	1	1	1	1	1	0	1	-62,86117	272,439709	249,505501	0
15.01.2021	03:11:03	0	0	4,180682	1,653	52,9164	-0,964	78,788	0	1009,42	5	7,3	7,1	1	1	1	1	1	1	1	1	1	0	1	-63,284003	272,528878	249,491817	0
15.01.2021	03:11:04	0	0	3,16376	1,60875	53,7192	-0,969	78,798	0	1009,34	5	7,2	7,1	1	1	1	1	1	1	1	1	1	0	1	-67,44186	272,446553	244,956201	0
15.01.2021	03:11:05	0	0	4,067666	1,65675	56,6604	-0,964	78,781	0	1009,36	5	7,2	7,2	1	1	1	1	1	1	1	1	1	0	1	-67,300916	272,539881	245,52542	0
15.01.2021	03:11:06	0	0	3,276751	1,6515	48,132	-0,964	78,779	0	1009,34	5	7,2	7,1	1	1	1	1	1	1	1	1	1	0	1	-67,371388	272,62261	245,83495	0
15.01.2021	03:11:07	0	0	4,293674	1,653	51,7392	-0,96	78,774	0	1009,26	5	7,2	7,1	1	1	1	1	1	1	1	1	1	0	1	-69,133192	272,589475	243,920906	0
15.01.2021	03:11:08	0	0	3,615747	1,63125	46,2132	-0,962	78,754	0	1009,5	5	7,2	7	1	1	1	1	1	1	1	1	1	0	1	-69,69697	272,575686	243,29379	0
15.01.2021	03:11:09	0	0	3,276751	1,647	47,3652	-0,964	78,743	0	1009,36	5	7,2	7,1	1	1	1	1	1	1	1	1	1	0	1	-65,46864	272,637816	247,807582	0
15.01.2021	03:11:10	0	0	2,824768	1,629	47,3688	-0,968	78,736	0	1009,38	5	7,2	7,2	1	1	1	1	1	1	1	1	1	0	1	-70,68358	272,528878	242,09224	0
15.01.2021	03:11:11	0	0	3,841685	1,49175	39,8628	-0,959	78,721	0	1009,3	5	7,2	7,2	1	1	1	1	1	1	1	1	1	0	1	-65,116279	272,626756	248,109112	0
15.01.2021	03:11:12	0	0	4,858631	1,41375	44,8632	-0,962	78,732	0	1009,42	5	7,2	7,1	1	1	1	1	1	1	1	1	1	0	1	-64,622974	272,457509	247,825342	0
15.01.2021	03:11:13	0	0	2,824785	1,44075	51,426	-0,961	78,726	0	1009,32	5	7,2	7,1	1	1	1	1	1	1	1	1	1	0	1	-61,592671	272,589475	251,461428	0
15.01.2021	03:11:14	0	0	2,598802	1,4505	44,3844	-0,962	78,712	0	1009,36	5	7,2	7,1	1	1	1	1	1	1	1	1	1	0	1	-61,522199	272,45203	250,900985	0
15.01.2021	03:11:15	0	0	4,632648	1,5465	41,85	-0,965	78,705	0	1009,3	5	7,2	7,1	1	1	1	1	1	1	1	1	1	0	1	-64,975335	272,552268	247,907875	0
15.01.2021	03:11:16	0	0	5,423588	1,6035	36,6372	-0,964	78,695	0	1009,38	5	7,2	7,1	1	1	1	1	1	1	1	1	1	0	1	-69,203665	272,475326	243,326388	0
15.01.2021	03:11:17	0	0	3,954676	1,659	44,028	-0,957	78,683	0	1009,38	5	7,2	7,2	1	1	1	1	1	1	1	1	1	0	1	-66,525722	272,626756	246,699669	0
15.01.2021	03:11:18	0	0	3,615725	1,776	38,43	-0,959	78,672	0	1009,48	5	7,2	7,1	1	1	1	1	1	1	1	1	1	0	1	-64,693446	272,567418	248,259337	0
15.01.2021	03:11:19	0	0	3,841731	1,7865	46,2312	-0,955	78,668	0	1009,46	5	7,3	7	1	1	1	1	1	1	1	1	1	0	1	-62,367865	272,460249	250,09302	0
15.01.2021	03:11:20	0	0	4,858631	1,7175	20,6568	-0,96	78,649	0	1009,3	5	7,2	7,1	1	1	1	1	1	1	1	1	1	0	1	-66,878083	272,601894	246,233068	0
15.01.2021	03:11:21	0	0	4,858631	1,72425	26,9064	-0,968	78,659	0	1009,18	5	7,3	7,1	1	1	1	1	1	1	1	1	1	0	1	-64,270613	272,456139	248,171419	0
15.01.2021	03:11:22	0	0	4,858631	1,73025	16,4844	-0,956	78,655	0	1009,46	5	7,2	7,1	1	1	1	1	1	1	1	1	1	0	1	-69,06272	272,62261	244,143618	0
15.01.2021	03:11:23	0	0	4,406665	1,68225	32,508	-0,958	78,644	0	1009,36	5	7,2	7,1	1	1	1	1	1	1	1	1	1	0	1	-63,84778	272,56604	249,098675	0
15.01.2021	03:11:24	0	0	2,259828	1,73475	29,5812	-0,956	78,636	0	1009,48	5	7,2	7,1	1	1	1	1	1	1	1	1	1	0	1	-67,300916	272,621228	245,899073	0
15.01.2021	03:11:25	0	0	3,276751	1,67325	44,4132	-0,96	78,633	0	1009,34	5	7,3	7,1	1	1	1	1	1	1	1	1	1	0	1	-65,539112	272,515132	247,173611	0
15.01.2021	03:11:26	0	0	2,937777	1,80975	33,2856	-0,958	78,632	0	1009,5	5	7,2	7,1	1	1	1	1	1	1	1	1	1	0	1	-64,622974	272,606035	248,507205	0
15.01.2021	03:11:27	0	0	3,050768	2,12325	42,1956	-0,961	78,62	0	1009,4	5	7,2	7,1	1	1	1	1	1	1	1	1	1	0	1	-62,790698	272,480812	249,764524	0
15.01.2021	03:11:28	0	0	3,389742	2,262	29,1204	-0,954	78,612	0	1009,5	5	7,2	7,1	1	1	1	1	1	1	1	1	1	0	1	-63,918252	272,581201	249,097836	0
15.01.2021	03:11:29	0	0	3,389742	2,23575	32,886	-0,957	78,606	0	1009,52	5	7,2	7,1	1	1	1	1	1	1	1	1	1	0	1	-63,84778	272,62261	249,358558	0
15.01.2021	03:11:30	0	0	2,598802	2,1315	31,4028	-0,959	78,6	0	1009,38	5	7,2	7,1	1	1	1	1	1	1	1	1	1	0	1	-66,384778	272,484927	246,189325	0
15.01.2021	03:11:31	0	0	3,276751	2,43075	28,35	-0,962	78,599	0	1009,5	5	7,3	7,1	1	1	1	1	1	1	1	1	1	0	1	-66,948555	272,524753	245,808329	0
15.01.2021	03:11:32	0	0	2,598787	2,7945	44,7876	-0,959	78,58	0	1009,4	4,9	7,3	7,2	1	1	1	1	1	1	1	1	1	0	1	-65,609584	272,450661	246,807318	0
15.01.2021	03:11:33	0	0	2,937794	2,847	28,7388	-0,957	78,592	0	1009,42	5	7,2	7	1	1	1	1	1	1	1	1	1	0	1	-67,0895	272,592234	245,977274	0
15.01.2021	03:11:34	0	0	3,276751	2,805	30,4344	-0,957	78,601	0	1009,34	5	7,2	7,1	1	1	1	1	1	1	1	1	1	0	1	-67,864693	272,456139	244,577338	0
15.01.2021	03:11:35	0	0	4,858631	2,87025	48,1392	-0,956	78,598	0	1009,32	5	7,2	7,1	1	1	1	1	1	1	1	1	1	0	1	-71,035941	272,460249	241,424944	0
15.01.2021	03:11:36	0	0	2,937777	2,93775	48,1104	-0,961	78,588	0	1009,34	5	7,3	7,1	1	1	1	1	1	1	1	1	1	0	1	-67,159972	272,58258	245,862451	0
15.01.2021	03:11:37	0	0	4,745639	2,67375	37,7784	-0,953	78,602	0	1009,36	5	7,3	7,1	1	1	1	1	1	1	1	1	1	0	1	-68,217054	272,460249	244,24383	0
15.01.2021	03:11:38	0	0	4,745639	2,48775	53,3448	-0,955	78,597	0	1009,34	5	7,3	7,1	1	1	1	1	1	1	1	1	1	0	1	-67,512333	272,546762	245,345595	0
15.01.2021	03:11:39	0	0	3,728717	2,3805	35,0928	-0,947	78,602	0	1009,52	5	7,3	7,1	1	1	1	1	1	1	1	1	1	0	1	-65,821001	272,460249	246,639884	0
15.01.2021	03:11:40	0	0	3,276751	2,31375	23,5836	-0,958	78,584	0	1009,44	5	7,3	7,1	1	1	1	1	1	1	1	1	1	0	1	-65,680056	272,490416	246,919231	0
15.01.2021	03:11:41	0	0	3,502734	2,4825	44,0676	-0,951	78,581	0	1009,46	5	7,2	7,1	1	1	1	1	1	1	1	1	1	0	1	-66,314306	272,513758	246,39211	0
15.01.2021	03:11:42	0	0	2,824785	2,86725	48,51	-0,954	78,592	0	1009,56	5	7,2	7,1	1	1	1	1	1	1	1	1	1	0	1	-65,257223	272,636433	248,012643	0
15.01.2021	03:11:43	0	0	4,293674	3,159	57,4344	-0,956	78,568	0	1009,5	5	7,3	7,1	1	1	1	1	1	1	1	1	1	0	1	-62,22692	272,559153	250,687905	0
15.01.2021	03:11:44	0	0	2,824785	3,20925	64,6236	-0,954	78,578	0	1009,56	5	7,2	7,1	1	1	1	1	1	1	1	1	1	0	1	-65,961945	272,625374	247,257095	0
15.01.2021	03:11:45	0	0	3,841708	3,06	44,3988	-0,955	78,573	0	1009,4	5	7,3	7,1	1	1	1	1	1	1	1	1	1	0	1	-62,367865	272,593614	250,705247	0
15.01.2021	03:11:46	0	0	4,632648	2,94975	32,1516	-0,954	78,56	0	1009,38	5	7,3	7,1	1	1	1	1	1	1	1	1	1	0	1	-65,750529	272,561907	247,176947	0
15.01.2021	03:11:47	0	0	3,615725	3,12825	30,3336	-0,953	78,541	0	1009,3	5	7,3	7,1	1	1	1	1	1	1	1	1	1	0	1	-66,737139	272,633667	246,520017	0
15.01.2021	03:11:48	0	0	4,293674	3,03825	54,0864	-0,953	78,548	0	1009,42	5	7,3	7,1	1	1	1	1	1	1	1	1	1	0	1	-69,133192	272,557775	243,775309	0
15.01.2021	03:11:49	0	0	3,728717	3,1635	67,68	-0,956	78,533	0	1009,52	5	7,3	7,1	1	1	1	1	1	1	1	1	1	0	1	-68,146582	272,630902	245,097866	0
15.01.2021	03:11:50	0	0	4,858631	3,159	69,4656	-0,96	78,52	0	1009,4	5	7,2	7,1	1	1	1	1	1	1	1	1	1	0	1	-64,763918	272,515132	247,948805	0
15.01.2021	03:11:51	0	0	4,293674	3,051	64,2528	-0,959	78,522	0	1009,36	5	7,3	7,1	1	1	1	1	1	1	1	1	1	0	1	-67,864693	272,626756	245,360698	0
15.01.2021	03:11:52	0	0	3,276751	2,718	88,1064	-0,956	78,513	0	1009,44	5	7,3	7,1	1	1	1	1	1	1	1	1	1	0	1	-67,230444	272,589475	245,823655	0
15.01.2021	03:11:53	0	0	5,197605	2,39625	51,0624	-0,955	78,516	0	1009,36	4,9	7,3	7,1	1	1	1	1	1	1	1	1	1	0	1	-63,213531	272,614321	249,954718	0
15.01.2021	03:11:54	0	0	3,615725	2,217	66,8988	-0,959	78,496	0	1009,38	5	7,3	7,1	1	1	1	1	1	1	1	1	1	0	1	-66,032417	272,447922	246,371924	0
15.01.2021	03:11:55	0	0	3,841708	2,07675	70,614	-0,953	78,495	0	1009,44	4,9	7,3	7,1	1	1	1	1	1	1	1	1	1	0	1	-64,693446	272,57293	248,284652	0
15.01.2021	03:11:56	0	0	2,711794	2,09175	72,6768	-0,952	78,477	0	1009,48	4,9	7,3	7,1	1	1	1	1	1	1	1	1	1	0	1	-64,411557	272,633667	248,845599	0
15.01.2021	03:11:57	0	0	5,423588	2,2725	65,4696	-0,956	78,47	0	1009,3	5	7,3	7,1	1	1	1	1	1	1	1	1	1	0	1	-67,582805	272,534379	245,218269	0
15.01.2021	03:11:58	0	0	5,197605	2,36475	57,4236	-0,96	78,445	0	1009,32	4,9	7,3	7,1	1	1	1	1	1	1	1	1	1	0	1	-66,525722	272,603274	246,591771	0
15.01.2021	03:11:59	0	0	4,519656	2,33475	66,2328	-0,958	78,439	0	1009,54	5	7,3	7,1	1	1	1	1	1	1	1	1	1	0	1	-65,680056	272,630902	247,564392	0
15.01.2021	03:12:00	0	0	3,728717	2,17125	59,49	-0,956	78,433	0	1009,4	5	7,3	7,1	1	1	1	1	1	1	1	1	1	0	1	-62,367865	272,45477	250,067884	0
15.01.2021	03:12:01	0	0	3,728717	2,17125	59,49	-0,956	78,433	0	1009,4	5	7,3	7,1	1	1	1	1	1	1	1	1	1	0	1	-62,367865	272,45477	250,067884	0
15.01.2021	03:12:02	0	0	4,180682	2,151	26,9028	-0,96	78,41	0	1009,6	4,9	7,3	7,1	1	1	1	1	1	1	1	1	1	0	1	-64,83439	272,548138	248,029857	0
15.01.2021	03:12:03	0	0	2,598802	2,06475	34,7004	-0,959	78,409	0	1009,34	5	7,3	7,1	1	1	1	1	1	1	1	1	1	0	1	-67,653277	272,461619	244,813893	0
15.01.2021	03:12:04	0	0	3,276751	2,07375	32,5008	-0,958	78,415	0	1009,36	4,9	7,3	7,1	1	1	1	1	1	1	1	1	1	0	1	-67,159972	272,468472	245,338633	0
15.01.2021	03:12:05	0	0	4,858631	2,13075	13,176	-0,967	78,41	0	1009,46	5	7,3	7,1	1	1	1	1	1	1	1	1	1	0	1	-64,48203	272,522004	248,262235	0
15.01.2021	03:12:06	0	0	3,276751	2,205	21,024	-0,958	78,414	0	1009,54	5	7,3	7,1	1	1	1	1	1	1	1	1	1	0	1	-63,84778	272,615702	249,326816	0
15.01.2021	03:12:07	0	0	5,536579	2,394	37,7676	-0,954	78,4	0	1009,3	5	7,3	7,1	1	1	1	1	1	1	1	1	1	0	1	-63,213531	272,61294	249,948372	0
15.01.2021	03:12:08	0	0	3,276751	2,52375	32,8824	-0,958	78,398	0	1009,34	5	7,3	7,1	1	1	1	1	1	1	1	1	1	0	1	-64,975335	272,497278	247,655445	0
15.01.2021	03:12:09	0	0	4,406665	2,5035	44,0496	-0,96	78,389	0	1009,42	4,9	7,3	7,1	1	1	1	1	1	1	1	1	1	0	1	-64,904863	272,458879	247,549737	0
15.01.2021	03:12:10	0	0	2,824785	2,53425	36,612	-0,961	78,407	0	1009,42	5	7,3	7,1	1	1	1	1	1	1	1	1	1	0	1	-62,931642	272,498651	249,705437	0
15.01.2021	03:12:11	0	0	3,728717	2,49375	38,4048	-0,958	78,402	0	1009,42	5	7,3	7,1	1	1	1	1	1	1	1	1	1	0	1	-66,525722	272,480812	246,029499	0
15.01.2021	03:12:12	0	0	3,502734	2,42325	32,8896	-0,96	78,403	0	1009,44	4,9	7,3	7,1	1	1	1	1	1	1	1	1	1	0	1	-64,83439	272,434235	247,507177	0
15.01.2021	03:12:13	0	0	5,197605	2,39775	31,4208	-0,964	78,388	0	1009,48	5	7,3	7,1	1	1	1	1	1	1	1	1	1	0	1	-62,508809	272,511011	250,184996	0
15.01.2021	03:12:14	0	0	4,858631	2,41875	33,3648	-0,969	78,384	0	1009,46	4,9	7,3	7,1	1	1	1	1	1	1	1	1	1	0	1	-66,596195	272,443815	245,789309	0
15.01.2021	03:12:15	0	0	3,615725	2,1705	22,8384	-0,959	78,403	0	1009,48	4,9	7,3	7,1	1	1	1	1	1	1	1	1	1	0	1	-65,680056	272,4534	246,74941	0
15.01.2021	03:12:16	0	0	4,519656	2,076	59,1012	-0,962	78,401	0	1009,38	5	7,3	7,1	1	1	1	1	1	1	1	1	1	0	1	-66,737139	272,475326	245,792914	0
15.01.2021	03:12:17	0	0	3,276751	1,89075	50,6916	-0,961	78,406	0	1009,38	4,9	7,3	7,1	1	1	1	1	1	1	1	1	1	0	1	-63,002114	272,460249	249,45877	0
15.01.2021	03:12:18	0	0	3,502734	1,69725	36,936	-0,962	78,394	0	1009,42	5	7,3	7,1	1	1	1	1	1	1	1	1	1	0	1	-66,807611	272,603274	246,309882	0
15.01.2021	03:12:19	0	0	3,16376	1,61625	55,1772	-0,963	78,393	0	1009,34	4,9	7,3	7,1	1	1	1	1	1	1	1	1	1	0	1	-63,636364	272,594994	249,443086	0
15.01.2021	03:12:20	0	0	4,632648	1,599	18,8352	-0,957	78,425	0	1009,52	4,9	7,3	7,1	1	1	1	1	1	1	1	1	1	0	1	-66,45525	272,556398	246,446928	0
15.01.2021	03:12:21	0	0	4,519656	1,57575	30,708	-0,961	78,39	0	1009,42	4,9	7,3	7,1	1	1	1	1	1	1	1	1	1	0	1	-65,539112	272,43834	246,821282	0
15.01.2021	03:12:22	0	0	3,841708	1,52475	44,856	-0,962	78,401	0	1009,44	5	7,3	7,1	1	1	1	1	1	1	1	1	1	0	1	-63,002114	272,600514	250,102696	0
15.01.2021	03:12:23	0	0	3,615725	1,65225	31,4136	-0,956	78,415	0	1009,38	5	7,3	7,1	1	1	1	1	1	1	1	1	1	0	1	-64,904863	272,509637	247,782637	0
15.01.2021	03:12:24	0	0	3,841708	1,88025	40,626	-0,96	78,417	0	1009,26	4,9	7,3	7,1	1	1	1	1	1	1	1	1	1	0	1	-64,270613	272,432867	248,06468	0
15.01.2021	03:12:25	0	0	4,519656	1,9095	33,2712	-0,96	78,417	0	1009,34	4,9	7,3	7,1	1	1	1	1	1	1	1	1	1	0	1	-66,878083	272,58258	246,144339	0
15.01.2021	03:12:26	0	0	2,824785	1,89	52,506	-0,961	78,42	0	1009,46	5	7,3	7,1	1	1	1	1	1	1	1	1	1	0	1	-67,723749	272,482184	244,837766	0
15.01.2021	03:12:27	0	0	2,937777	1,7265	43,6644	-0,959	78,427	0	1009,52	4,9	7,3	7,1	1	1	1	1	1	1	1	1	1	0	1	-68,851304	272,601894	244,259848	0
15.01.2021	03:12:28	0	0	3,276751	1,62	41,85	-0,963	78,416	0	1009,22	4,9	7,3	7,1	1	1	1	1	1	1	1	1	1	0	1	-62,720226	272,58258	250,302197	0
15.01.2021	03:12:29	0	0	4,293674	1,6185	36,9252	-0,961	78,442	0	1009,68	4,9	7,3	7,1	1	1	1	1	1	1	1	1	1	0	1	-62,085976	272,608797	251,056891	0
15.01.2021	03:12:30	0	0	2,711794	1,668	42,6024	-0,965	78,417	0	1009,44	4,9	7,3	7,1	1	1	1	1	1	1	1	1	1	0	1	-66,525722	272,449292	245,884899	0
15.01.2021	03:12:31	0	0	4,745639	1,7385	34,3368	-0,961	78,407	0	1009,48	4,9	7,3	7,1	1	1	1	1	1	1	1	1	1	0	1	-68,07611	272,430131	244,246636	0
15.01.2021	03:12:32	0	0	5,649571	1,827	27,666	-0,961	78,41	0	1009,44	5	7,3	7,1	1	1	1	1	1	1	1	1	1	0	1	-65,961945	272,545385	246,889663	0
15.01.2021	03:12:33	0	0	4,180682	1,88625	42,9192	-0,958	78,414	0	1009,32	4,9	7,3	7,1	1	1	1	1	1	1	1	1	1	0	1	-66,032417	272,446553	246,365644	0
15.01.2021	03:12:34	0	0	4,406665	1,88325	23,9688	-0,96	78,414	0	1009,32	5	7,3	7,1	1	1	1	1	1	1	1	1	1	0	1	-66,807611	272,611559	246,347946	0
15.01.2021	03:12:35	0	0	4,858631	1,941	40,6152	-0,964	78,413	0	1009,34	4,9	7,3	7,1	1	1	1	1	1	1	1	1	1	0	1	-67,512333	272,545385	245,339275	0
15.01.2021	03:12:36	0	0	2,711794	2,082	40,2444	-0,961	78,394	0	1009,32	4,9	7,3	7,1	1	1	1	1	1	1	1	1	1	0	1	-63,565891	272,618465	249,6214	0
15.01.2021	03:12:37	0	0	2,824785	2,32725	44,7768	-0,962	78,406	0	1009,44	4,9	7,3	7,1	1	1	1	1	1	1	1	1	1	0	1	-62,579281	272,484927	249,994822	0
15.01.2021	03:12:38	0	0	2,37282	2,25075	25,416	-0,96	78,414	0	1009,38	4,9	7,3	7,1	1	1	1	1	1	1	1	1	1	0	1	-63,988724	272,579822	249,021031	0
15.01.2021	03:12:39	0	0	3,16376	2,19675	28,728	-0,965	78,394	0	1009,24	4,9	7,3	7,1	1	1	1	1	1	1	1	1	1	0	1	-63,424947	272,443815	248,960556	0
15.01.2021	03:12:40	0	0	4,180682	2,19375	26,5356	-0,959	78,401	0	1009,44	4,9	7,3	7,1	1	1	1	1	1	1	1	1	1	0	1	-59,548978	272,495905	253,075502	0
15.01.2021	03:12:41	0	0	4,745639	2,2785	34,7112	-0,965	78,388	0	1009,32	4,9	7,3	7,1	1	1	1	1	1	1	1	1	1	0	1	-63,143058	272,62261	250,06328	0
15.01.2021	03:12:42	0	0	4,067691	2,313	35,4924	-0,963	78,399	0	1009,4	4,9	7,3	7,1	1	1	1	1	1	1	1	1	1	0	1	-64,83439	272,468472	247,664214	0
15.01.2021	03:12:43	0	0	4,180682	2,38875	50,3964	-0,961	78,4	0	1009,44	4,9	7,3	7,1	1	1	1	1	1	1	1	1	1	0	1	-64,059197	272,478069	248,483439	0
15.01.2021	03:12:44	0	0	3,841708	2,46225	45,5364	-0,962	78,401	0	1009,36	4,9	7,3	7,1	1	1	1	1	1	1	1	1	1	0	1	-62,085976	272,604655	251,03786	0
15.01.2021	03:12:45	0	0	4,406665	2,39325	47,3688	-0,96	78,395	0	1009,44	4,9	7,3	7,1	1	1	1	1	1	1	1	1	1	0	1	-63,354475	272,594994	249,724975	0
15.01.2021	03:12:46	0	0	3,050768	2,31825	45,1368	-0,961	78,397	0	1009,4	4,9	7,3	7,1	1	1	1	1	1	1	1	1	1	0	1	-65,891473	272,489043	246,701518	0
15.01.2021	03:12:47	0	0	4,858631	2,19825	47,7648	-0,964	78,402	0	1009,38	4,9	7,3	7,1	1	1	1	1	1	1	1	1	1	0	1	-60,676533	272,441077	251,696415	0
15.01.2021	03:12:48	0	0	3,841708	2,13975	53,3556	-0,963	78,404	0	1009,42	4,9	7,3	7,1	1	1	1	1	1	1	1	1	1	0	1	-64,341085	272,546762	248,516842	0
15.01.2021	03:12:49	0	0	2,711794	2,16375	53,7264	-0,962	78,398	0	1009,48	4,9	7,3	7,1	1	1	1	1	1	1	1	1	1	0	1	-64,693446	272,603274	248,424047	0
15.01.2021	03:12:50	0	0	4,519629	2,27175	57,4632	-0,958	78,401	0	1009,56	4,9	7,3	7,2	1	1	1	1	1	1	1	1	1	0	1	-61,945032	272,519255	250,786614	0
15.01.2021	03:12:51	0	0	2,937777	2,25075	52,1244	-0,963	78,385	0	1009,48	4,9	7,3	7,1	1	1	1	1	1	1	1	1	1	0	1	-66,384778	272,610178	246,764433	0
15.01.2021	03:12:52	0	0	4,971622	2,0895	26,1828	-0,959	78,399	0	1009,18	4,9	7,3	7,1	1	1	1	1	1	1	1	1	1	0	1	-64,059197	272,559153	248,855629	0
15.01.2021	03:12:53	0	0	5,197605	2,016	44,7804	-0,964	78,398	0	1009,48	4,9	7,3	7,1	1	1	1	1	1	1	1	1	1	0	1	-64,059197	272,593614	249,013915	0
15.01.2021	03:12:54	0	0	3,389742	2,0175	46,6848	-0,965	78,406	0	1009,46	4,9	7,3	7,1	1	1	1	1	1	1	1	1	1	0	1	-63,918252	272,50277	248,737731	0
15.01.2021	03:12:55	0	0	2,937777	1,9995	46,764	-0,962	78,399	0	1009,4	4,9	7,3	7,1	1	1	1	1	1	1	1	1	1	0	1	-61,945032	272,430131	250,377714	0
15.01.2021	03:12:56	0	0	3,841685	2,0115	54,1188	-0,964	78,385	0	1009,44	4,9	7,3	7,2	1	1	1	1	1	1	1	1	1	0	1	-61,663143	272,42466	250,634515	0
15.01.2021	03:12:57	0	0	3,16376	2,055	43,2864	-0,957	78,39	0	1009,3	4,9	7,3	7,1	1	1	1	1	1	1	1	1	1	0	1	-63,213531	272,542633	249,62544	0
15.01.2021	03:12:58	0	0	3,16376	2,3115	43,6788	-0,963	78,392	0	1009,32	4,9	7,3	7,1	1	1	1	1	1	1	1	1	1	0	1	-61,522199	272,432867	250,813094	0
15.01.2021	03:12:59	0	0	3,16376	2,5095	37,3212	-0,961	78,403	0	1009,52	4,9	7,3	7,1	1	1	1	1	1	1	1	1	1	0	1	-62,790698	272,447922	249,613644	0
15.01.2021	03:13:00	0	0	3,502734	2,4285	46,5804	-0,96	78,407	0	1009,54	4,9	7,3	7,1	1	1	1	1	1	1	1	1	1	0	1	-64,48203	272,611559	248,673527	0
15.01.2021	03:13:01	0	0	3,502734	2,4285	46,5804	-0,96	78,407	0	1009,54	4,9	7,3	7,1	1	1	1	1	1	1	1	1	1	0	1	-64,48203	272,611559	248,673527	0
15.01.2021	03:13:02	0	0	3,728717	2,445	42,6744	-0,961	78,402	0	1009,4	4,9	7,3	7,1	1	1	1	1	1	1	1	1	1	0	1	-65,891473	272,511011	246,802332	0
15.01.2021	03:13:03	0	0	4,632648	2,36025	48,1248	-0,957	78,415	0	1009,44	4,9	7,3	7,1	1	1	1	1	1	1	1	1	1	0	1	-63,284003	272,58258	249,73842	0
15.01.2021	03:13:04	0	0	2,824785	2,19	45,1332	-0,96	78,405	0	1009,5	4,9	7,3	7,1	1	1	1	1	1	1	1	1	1	0	1	-60,887949	272,46436	251,591793	0
15.01.2021	03:13:05	0	0	2,711794	1,94025	24,4368	-0,96	78,403	0	1009,32	4,9	7,3	7,1	1	1	1	1	1	1	1	1	1	0	1	-65,961945	272,559153	246,952881	0
15.01.2021	03:13:06	0	0	3,502734	1,77675	44,3916	-0,961	78,41	0	1009,44	4,9	7,3	7,1	1	1	1	1	1	1	1	1	1	0	1	-64,129669	272,434235	248,211899	0
15.01.2021	03:13:07	0	0	3,954699	1,69725	31,0248	-0,964	78,382	0	1009,42	4,9	7,3	7,1	1	1	1	1	1	1	1	1	1	0	1	-64,059197	272,498651	248,577883	0
15.01.2021	03:13:08	0	0	3,615725	1,84125	31,4244	-0,963	78,416	0	1009,34	4,9	7,3	7,1	1	1	1	1	1	1	1	1	1	0	1	-66,737139	272,431499	245,59188	0
15.01.2021	03:13:09	0	0	4,180682	1,88775	32,5908	-0,963	78,409	0	1009,3	4,9	7,3	7,1	1	1	1	1	1	1	1	1	1	0	1	-62,931642	272,458879	249,522958	0
15.01.2021	03:13:10	0	0	4,858631	1,93725	37,6848	-0,96	78,419	0	1009,42	4,9	7,3	7,1	1	1	1	1	1	1	1	1	1	0	1	-59,267089	272,442446	253,112136	0
15.01.2021	03:13:11	0	0	4,971592	1,941	38,0736	-0,96	78,41	0	1009,4	4,9	7,3	7,2	1	1	1	1	1	1	1	1	1	0	1	-63,213531	272,561907	249,713945	0
15.01.2021	03:13:12	0	0	3,276731	1,968	44,7804	-0,957	78,412	0	1009,5	4,9	7,3	7,2	1	1	1	1	1	1	1	1	1	0	1	-64,270613	272,541257	248,56204	0
15.01.2021	03:13:13	0	0	5,197574	1,9455	26,514	-0,96	78,408	0	1009,4	4,9	7,3	7,2	1	1	1	1	1	1	1	1	1	0	1	-60,324172	272,421925	251,960945	0
15.01.2021	03:13:14	0	0	4,63262	2,073	40,2336	-0,966	78,411	0	1009,38	4,9	7,3	7,2	1	1	1	1	1	1	1	1	1	0	1	-65,891473	272,567418	247,06131	0
15.01.2021	03:13:15	0	0	3,050768	2,1555	38,0736	-0,961	78,403	0	1009,34	4,9	7,3	7,1	1	1	1	1	1	1	1	1	1	0	1	-67,653277	272,592234	245,413496	0
15.01.2021	03:13:16	0	0	3,276751	2,0595	34,3332	-0,962	78,407	0	1009,38	4,9	7,3	7,1	1	1	1	1	1	1	1	1	1	0	1	-63,495419	272,445184	248,896363	0
15.01.2021	03:13:17	0	0	2,372805	1,9605	51,0588	-0,957	78,405	0	1009,44	4,9	7,3	7,2	1	1	1	1	1	1	1	1	1	0	1	-63,918252	272,504143	248,744033	0
15.01.2021	03:13:18	0	0	2,824785	1,85175	40,626	-0,96	78,403	0	1009,4	4,9	7,3	7,1	1	1	1	1	1	1	1	1	1	0	1	-63,284003	272,607416	249,85252	0
15.01.2021	03:13:19	0	0	2,824785	1,7325	36,6336	-0,958	78,394	0	1009,34	4,9	7,3	7,1	1	1	1	1	1	1	1	1	1	0	1	-65,327696	272,467101	247,164621	0
15.01.2021	03:13:20	0	0	4,63262	1,746	41,8428	-0,961	78,394	0	1009,32	4,9	7,3	7,2	1	1	1	1	1	1	1	1	1	0	1	-68,498943	272,449292	243,911679	0
15.01.2021	03:13:21	0	0	3,05075	1,896	46,9692	-0,959	78,404	0	1009,4	4,9	7,3	7,2	1	1	1	1	1	1	1	1	1	0	1	-62,579281	272,432867	249,756012	0
15.01.2021	03:13:22	0	0	2,937759	1,97175	46,9764	-0,957	78,405	0	1009,4	4,9	7,3	7,2	1	1	1	1	1	1	1	1	1	0	1	-64,83439	272,478069	247,708246	0
15.01.2021	03:13:23	0	0	3,728694	2,028	41,004	-0,958	78,405	0	1009,46	4,9	7,3	7,2	1	1	1	1	1	1	1	1	1	0	1	-64,693446	272,590855	248,36699	0
15.01.2021	03:13:24	0	0	4,858631	2,0565	45,8424	-0,956	78,407	0	1009,48	4,9	7,3	7,1	1	1	1	1	1	1	1	1	1	0	1	-63,777308	272,527503	248,992199	0
15.01.2021	03:13:25	0	0	2,711778	2,04525	50,3028	-0,954	78,394	0	1009,38	4,9	7,3	7,2	1	1	1	1	1	1	1	1	1	0	1	-61,663143	272,553645	251,226389	0
15.01.2021	03:13:26	0	0	4,293674	2,046	46,2276	-0,962	78,411	0	1009,22	4,9	7,3	7,1	1	1	1	1	1	1	1	1	1	0	1	-64,622974	272,413722	247,624534	0
15.01.2021	03:13:27	0	0	2,824785	2,031	46,98	-0,959	78,4	0	1009,64	4,9	7,3	7,1	1	1	1	1	1	1	1	1	1	0	1	-61,522199	272,515132	251,190524	0
15.01.2021	03:13:28	0	0	2,937759	2,019	41,8572	-0,958	78,41	0	1009,54	4,9	7,3	7,2	1	1	1	1	1	1	1	1	1	0	1	-62,085976	272,57293	250,892122	0
15.01.2021	03:13:29	0	0	4,519629	2,01	41,004	-0,963	78,407	0	1009,38	4,9	7,3	7,2	1	1	1	1	1	1	1	1	1	0	1	-69,978858	272,594994	243,100592	0
15.01.2021	03:13:30	0	0	4,858602	2,067	45,8424	-0,959	78,399	0	1009,4	4,9	7,3	7,2	1	1	1	1	1	1	1	1	1	0	1	-67,230444	272,530253	245,551688	0
15.01.2021	03:13:31	0	0	4,971592	2,15325	53,3448	-0,964	78,386	0	1009,42	4,9	7,3	7,2	1	1	1	1	1	1	1	1	1	0	1	-63,636364	272,42466	248,661294	0
15.01.2021	03:13:32	0	0	4,971622	2,26575	63,1512	-0,967	78,388	0	1009,4	4,9	7,3	7,1	1	1	1	1	1	1	1	1	1	0	1	-65,680056	272,568796	247,279055	0
15.01.2021	03:13:33	0	0	4,519629	2,16825	42,93	-0,962	78,395	0	1009,42	4,9	7,3	7,2	1	1	1	1	1	1	1	1	1	0	1	-64,83439	272,416456	247,425652	0
15.01.2021	03:13:34	0	0	4,971592	2,14725	58,8672	-0,96	78,391	0	1009,44	4,9	7,3	7,2	1	1	1	1	1	1	1	1	1	0	1	-63,424947	272,56604	249,521508	0
15.01.2021	03:13:35	0	0	3,954676	2,034	53,4816	-0,962	78,391	0	1009,52	4,9	7,3	7,2	1	1	1	1	1	1	1	1	1	0	1	-65,186751	272,541257	247,645902	0
15.01.2021	03:13:36	0	0	4,406665	1,8915	42,912	-0,965	78,381	0	1009,4	4,9	7,3	7,1	1	1	1	1	1	1	1	1	1	0	1	-68,992248	272,426027	243,311681	0
15.01.2021	03:13:37	0	0	4,519629	1,87125	59,0904	-0,958	78,383	0	1009,52	4,9	7,3	7,2	1	1	1	1	1	1	1	1	1	0	1	-63,988724	272,57293	248,989374	0
15.01.2021	03:13:38	0	0	3,954676	1,797	39,5532	-0,961	78,388	0	1009,36	4,9	7,4	7,2	1	1	1	1	1	1	1	1	1	0	1	-66,878083	272,413722	245,369425	0
15.01.2021	03:13:39	0	0	4,293648	1,7535	45,846	-0,96	78,382	0	1009,42	4,9	7,3	7,2	1	1	1	1	1	1	1	1	1	0	1	-60,535588	272,428763	251,780885	0
15.01.2021	03:13:40	0	0	4,519629	1,764	40,2552	-0,955	78,382	0	1009,5	4,9	7,3	7,2	1	1	1	1	1	1	1	1	1	0	1	-63,143058	272,538506	249,676961	0
15.01.2021	03:13:41	0	0	3,841708	1,76775	59,472	-0,963	78,368	0	1009,34	4,9	7,4	7,1	1	1	1	1	1	1	1	1	1	0	1	-63,706836	272,413722	248,540673	0
15.01.2021	03:13:42	0	0	4,745611	1,89675	55,782	-0,961	78,38	0	1009,36	4,9	7,3	7,2	1	1	1	1	1	1	1	1	1	0	1	-67,371388	272,552268	245,511822	0
15.01.2021	03:13:43	0	0	3,728694	2,1135	56,6496	-0,961	78,372	0	1009,32	4,9	7,4	7,2	1	1	1	1	1	1	1	1	1	0	1	-63,072586	272,570174	249,892853	0
15.01.2021	03:13:44	0	0	3,502734	2,4225	60,2388	-0,961	78,375	0	1009,4	4,9	7,3	7,1	1	1	1	1	1	1	1	1	1	0	1	-62,438337	272,46299	250,035119	0
15.01.2021	03:13:45	0	0	3,728694	2,79	62,0316	-0,963	78,39	0	1009,4	4,9	7,3	7,2	1	1	1	1	1	1	1	1	1	0	1	-62,508809	272,578443	250,494614	0
15.01.2021	03:13:46	0	0	2,937759	2,99775	48,8088	-0,966	78,39	0	1009,4	4,9	7,4	7,2	1	1	1	1	1	1	1	1	1	0	1	-64,763918	272,457509	247,684397	0
15.01.2021	03:13:47	0	0	2,824768	2,952	30,3264	-0,96	78,395	0	1009,48	4,9	7,3	7,2	1	1	1	1	1	1	1	1	1	0	1	-64,763918	272,581201	248,25217	0
15.01.2021	03:13:48	0	0	3,728694	2,7225	41,4612	-0,962	78,397	0	1009,38	4,9	7,4	7,2	1	1	1	1	1	1	1	1	1	0	1	-63,988724	272,439709	248,377946	0
15.01.2021	03:13:49	0	0	3,841685	2,4015	45,1548	-0,955	78,403	0	1009,4	4,9	7,4	7,2	1	1	1	1	1	1	1	1	1	0	1	-62,438337	272,585338	250,596754	0
15.01.2021	03:13:50	0	0	3,163741	2,31225	61,3908	-0,959	78,412	0	1009,4	4,9	7,3	7,2	1	1	1	1	1	1	1	1	1	0	1	-62,015504	272,415089	250,238271	0
15.01.2021	03:13:51	0	0	4,519629	2,39775	65,0664	-0,955	78,412	0	1009,28	4,9	7,3	7,2	1	1	1	1	1	1	1	1	1	0	1	-66,807611	272,476698	245,728733	0
15.01.2021	03:13:52	0	0	5,197574	2,36625	35,082	-0,957	78,419	0	1009,34	4,9	7,3	7,2	1	1	1	1	1	1	1	1	1	0	1	-68,780832	272,588096	244,266931	0
15.01.2021	03:13:53	0	0	2,937759	2,12625	42,2892	-0,965	78,399	0	1009,4	4,9	7,4	7,2	1	1	1	1	1	1	1	1	1	0	1	-62,86117	272,515132	249,851553	0
15.01.2021	03:13:54	0	0	2,711778	1,96575	39,1644	-0,956	78,394	0	1009,38	4,9	7,3	7,2	1	1	1	1	1	1	1	1	1	0	1	-63,213531	272,579822	249,796225	0
15.01.2021	03:13:55	0	0	2,937759	1,995	39,1752	-0,959	78,398	0	1009,4	4,9	7,3	7,2	1	1	1	1	1	1	1	1	1	0	1	-62,790698	272,581201	250,225391	0
15.01.2021	03:13:56	0	0	5,762527	2,3175	48,8304	-0,957	78,386	0	1009,36	4,9	7,3	7,2	1	1	1	1	1	1	1	1	1	0	1	-65,680056	272,491788	246,925528	0
15.01.2021	03:13:57	0	0	4,745611	2,5305	31,0248	-0,959	78,389	0	1009,36	4,9	7,3	7,2	1	1	1	1	1	1	1	1	1	0	1	-65,46864	272,578443	247,534783	0
15.01.2021	03:13:58	0	0	4,63262	2,5665	44,7804	-0,965	78,378	0	1009,42	4,9	7,3	7,2	1	1	1	1	1	1	1	1	1	0	1	-69,837914	272,556398	243,064264	0
15.01.2021	03:13:59	0	0	3,163741	2,75925	42,9156	-0,966	78,38	0	1009,46	4,9	7,2	7,2	1	1	1	1	1	1	1	1	1	0	1	-65,186751	272,553645	247,702781	0
15.01.2021	03:14:00	0	0	4,406639	2,77125	41,472	-0,957	78,353	0	1009,48	4,9	7,3	7,2	1	1	1	1	1	1	1	1	1	0	1	-65,257223	272,473955	247,266539	0
15.01.2021	03:14:01	0	0	4,406639	2,77125	41,472	-0,957	78,353	0	1009,48	4,9	7,3	7,2	1	1	1	1	1	1	1	1	1	0	1	-65,257223	272,473955	247,266539	0
15.01.2021	03:14:02	0	0	4,858602	2,718	50,688	-0,959	78,337	0	1009,34	4,8	7,3	7,2	1	1	1	1	1	1	1	1	1	0	1	-65,045807	272,585338	247,989284	0
15.01.2021	03:14:03	0	0	4,858602	2,5305	46,224	-0,961	78,327	0	1009,24	4,9	7,4	7,2	1	1	1	1	1	1	1	1	1	0	1	-61,24031	272,491788	251,365275	0
15.01.2021	03:14:04	0	0	4,971592	2,409	66,924	-0,955	78,343	0	1009,52	4,9	7,4	7,2	1	1	1	1	1	1	1	1	1	0	1	-62,86117	272,408256	249,361277	0
15.01.2021	03:14:05	0	0	3,05075	2,2755	67,2732	-0,958	78,344	0	1009,38	4,9	7,4	7,2	1	1	1	1	1	1	1	1	1	0	1	-60,817477	272,445184	251,574305	0
15.01.2021	03:14:06	0	0	4,067666	2,2635	59,094	-0,954	78,343	0	1009,4	4,9	7,3	7,2	1	1	1	1	1	1	1	1	1	0	1	-65,116279	272,436972	247,237839	0
15.01.2021	03:14:07	0	0	4,745611	2,1195	59,1012	-0,958	78,342	0	1009,42	4,9	7,3	7,2	1	1	1	1	1	1	1	1	1	0	1	-62,720226	272,588096	250,327537	0
15.01.2021	03:14:08	0	0	4,519629	2,1705	65,448	-0,956	78,354	0	1009,36	4,9	7,3	7,2	1	1	1	1	1	1	1	1	1	0	1	-64,200141	272,501397	248,44954	0
15.01.2021	03:14:09	0	0	4,519629	2,1435	54,7776	-0,956	78,336	0	1009,32	4,9	7,3	7,2	1	1	1	1	1	1	1	1	1	0	1	-60,465116	272,40689	251,751066	0
15.01.2021	03:14:10	0	0	5,084583	2,08125	40,266	-0,959	78,357	0	1009,36	4,9	7,3	7,2	1	1	1	1	1	1	1	1	1	0	1	-62,790698	272,467101	249,701619	0
15.01.2021	03:14:11	0	0	3,728694	2,1165	32,1696	-0,957	78,362	0	1009,52	4,9	7,2	7,2	1	1	1	1	1	1	1	1	1	0	1	-62,931642	272,409622	249,297069	0
15.01.2021	03:14:12	0	0	2,372805	2,1945	37,674	-0,962	78,368	0	1009,46	4,9	7,2	7,2	1	1	1	1	1	1	1	1	1	0	1	-64,129669	272,420557	248,149179	0
15.01.2021	03:14:13	0	0	2,824768	2,20725	32,8896	-0,958	78,376	0	1009,5	4,9	7,3	7,2	1	1	1	1	1	1	1	1	1	0	1	-62,367865	272,523378	250,38271	0
15.01.2021	03:14:14	0	0	3,389722	2,27475	41,472	-0,955	78,394	0	1009,44	4,9	7,4	7,2	1	1	1	1	1	1	1	1	1	0	1	-65,116279	272,402791	247,081114	0
15.01.2021	03:14:15	0	0	5,084583	2,385	38,6604	-0,955	78,404	0	1009,26	4,9	7,3	7,2	1	1	1	1	1	1	1	1	1	0	1	-65,750529	272,530253	247,031604	0
15.01.2021	03:14:16	0	0	3,389722	2,38425	42,2136	-0,955	78,409	0	1009,46	4,9	7,4	7,2	1	1	1	1	1	1	1	1	1	0	1	-61,663143	272,588096	251,384619	0
15.01.2021	03:14:17	0	0	3,276731	2,25675	48,8268	-0,959	78,415	0	1009,34	4,9	7,2	7,2	1	1	1	1	1	1	1	1	1	0	1	-66,102889	272,575686	246,88787	0
15.01.2021	03:14:18	0	0	4,293648	2,06175	40,6332	-0,958	78,412	0	1009,5	4,9	7,3	7,2	1	1	1	1	1	1	1	1	1	0	1	-63,424947	272,456139	249,017085	0
15.01.2021	03:14:19	0	0	3,163741	1,956	55,9152	-0,951	78,439	0	1009,46	4,9	7,3	7,2	1	1	1	1	1	1	1	1	1	0	1	-64,129669	272,398694	248,048941	0
15.01.2021	03:14:20	0	0	4,971592	1,9845	44,3844	-0,948	78,447	0	1009,46	4,9	7,4	7,2	1	1	1	1	1	1	1	1	1	0	1	-64,059197	272,46299	248,414259	0
15.01.2021	03:14:21	0	0	4,519629	2,04675	45,5364	-0,954	78,45	0	1009,56	4,9	7,2	7,2	1	1	1	1	1	1	1	1	1	0	1	-65,750529	272,409622	246,478183	0
15.01.2021	03:14:22	0	0	3,954699	2,109	60,9264	-0,961	78,441	0	1009,3	4,9	7,3	7,1	1	1	1	1	1	1	1	1	1	0	1	-67,159972	272,557775	245,74853	0
15.01.2021	03:14:23	0	0	4,745611	2,11125	36,9324	-0,954	78,446	0	1009,54	4,9	7,3	7,2	1	1	1	1	1	1	1	1	1	0	1	-61,592671	272,520629	251,145284	0
15.01.2021	03:14:24	0	0	3,16376	2,13	46,5912	-0,951	78,443	0	1009,4	4,9	7,3	7,1	1	1	1	1	1	1	1	1	1	0	1	-65,045807	272,567418	247,906976	0
15.01.2021	03:14:25	0	0	4,858602	2,19975	50,3352	-0,953	78,439	0	1009,44	4,9	7,2	7,2	1	1	1	1	1	1	1	1	1	0	1	-63,777308	272,513758	248,929108	0
15.01.2021	03:14:26	0	0	3,954676	2,22375	44,136	-0,952	78,45	0	1009,46	5	7,3	7,2	1	1	1	1	1	1	1	1	1	0	1	-63,002114	272,597754	250,090015	0
15.01.2021	03:14:27	0	0	3,276731	2,30325	34,3296	-0,958	78,426	0	1009,42	4,9	7,3	7,2	1	1	1	1	1	1	1	1	1	0	1	-65,257223	272,511011	247,436581	0
15.01.2021	03:14:28	0	0	4,067691	2,5575	49,5684	-0,952	78,434	0	1009,34	4,9	7,3	7,1	1	1	1	1	1	1	1	1	1	0	1	-64,411557	272,564662	248,528571	0
15.01.2021	03:14:29	0	0	5,310565	2,895	41,0004	-0,951	78,428	0	1009,52	5	7,3	7,2	1	1	1	1	1	1	1	1	1	0	1	-64,129669	272,567418	248,823114	0
15.01.2021	03:14:30	0	0	3,163741	2,673	51,4548	-0,949	78,441	0	1009,42	4,9	7,3	7,2	1	1	1	1	1	1	1	1	1	0	1	-66,102889	272,577065	246,894202	0
15.01.2021	03:14:31	0	0	3,276731	2,35425	49,5648	-0,957	78,412	0	1009,32	4,9	7,3	7,2	1	1	1	1	1	1	1	1	1	0	1	-67,935166	272,450661	244,481737	0
15.01.2021	03:14:32	0	0	4,519629	2,06925	46,242	-0,955	78,438	0	1009,4	4,9	7,3	7,2	1	1	1	1	1	1	1	1	1	0	1	-63,284003	272,564662	249,656125	0
15.01.2021	03:14:33	0	0	4,519629	2,0505	51,7536	-0,949	78,445	0	1009,4	4,9	7,2	7,2	1	1	1	1	1	1	1	1	1	0	1	-61,592671	272,599134	251,505798	0
15.01.2021	03:14:34	0	0	3,163741	1,95825	28,3428	-0,951	78,435	0	1009,34	4,9	7,3	7,2	1	1	1	1	1	1	1	1	1	0	1	-62,156448	272,498651	250,480631	0
15.01.2021	03:14:35	0	0	3,389742	1,92825	29,9484	-0,949	78,433	0	1009,56	4,9	7,3	7,1	1	1	1	1	1	1	1	1	1	0	1	-61,522199	272,405523	250,68772	0
15.01.2021	03:14:36	0	0	3,502734	2,1645	31,4028	-0,949	78,426	0	1009,54	4,8	7,3	7,1	1	1	1	1	1	1	1	1	1	0	1	-65,327696	272,489043	247,265295	0
15.01.2021	03:14:37	0	0	4,745639	2,91675	38,07	-0,952	78,42	0	1009,38	4,8	7,3	7,1	1	1	1	1	1	1	1	1	1	0	1	-61,169838	272,58258	251,852584	0
15.01.2021	03:14:38	0	0	3,954676	3,348	45,54	-0,952	78,422	0	1009,42	4,9	7,3	7,2	1	1	1	1	1	1	1	1	1	0	1	-65,116279	272,559153	247,798547	0
15.01.2021	03:14:39	0	0	5,310596	3,59475	47,7468	-0,952	78,419	0	1009,5	4,8	7,3	7,1	1	1	1	1	1	1	1	1	1	0	1	-64,763918	272,47944	247,78501	0
15.01.2021	03:14:40	0	0	3,276751	3,47925	37,026	-0,947	78,404	0	1009,3	4,8	7,3	7,1	1	1	1	1	1	1	1	1	1	0	1	-63,002114	272,578443	250,001309	0
15.01.2021	03:14:41	0	0	4,632648	3,711	44,3808	-0,95	78,41	0	1009,56	4,8	7,3	7,1	1	1	1	1	1	1	1	1	1	0	1	-68,357999	272,483555	244,20981	0
15.01.2021	03:14:42	0	0	4,971622	4,0065	46,5984	-0,955	78,41	0	1009,36	4,8	7,3	7,1	1	1	1	1	1	1	1	1	1	0	1	-67,935166	272,436972	244,418952	0
15.01.2021	03:14:43	0	0	2,937777	4,24125	40,5972	-0,951	78,407	0	1009,52	5	7,3	7,1	1	1	1	1	1	1	1	1	1	0	1	-65,821001	272,456139	246,621031	0
15.01.2021	03:14:44	0	0	3,841708	4,44525	35,4888	-0,96	78,413	0	1009,42	4,9	7,3	7,1	1	1	1	1	1	1	1	1	1	0	1	-64,693446	272,550891	248,183442	0
15.01.2021	03:14:45	0	0	3,16376	4,38225	32,508	-0,949	78,411	0	1009,44	4,8	7,3	7,1	1	1	1	1	1	1	1	1	1	0	1	-63,072586	272,402791	249,124807	0
15.01.2021	03:14:46	0	0	4,971622	4,194	36,9324	-0,959	78,404	0	1009,38	5	7,3	7,1	1	1	1	1	1	1	1	1	1	0	1	-67,582805	272,482184	244,97871	0
15.01.2021	03:14:47	0	0	5,197605	3,92175	34,7076	-0,95	78,41	0	1009,3	4,8	7,3	7,1	1	1	1	1	1	1	1	1	1	0	1	-63,84778	272,415089	248,405995	0
15.01.2021	03:14:48	0	0	4,293648	3,71325	37,4544	-0,948	78,421	0	1009,54	4,8	7,4	7,2	1	1	1	1	1	1	1	1	1	0	1	-65,750529	272,535754	247,05686	0
15.01.2021	03:14:49	0	0	4,519629	3,48675	29,5848	-0,945	78,443	0	1009,52	4,9	7,3	7,2	1	1	1	1	1	1	1	1	1	0	1	-62,438337	272,428763	249,878136	0
15.01.2021	03:14:50	0	0	4,406665	3,4485	38,0664	-0,946	78,468	0	1009,44	4,8	7,3	7,1	1	1	1	1	1	1	1	1	1	0	1	-65,257223	272,410989	246,977753	0
15.01.2021	03:14:51	0	0	4,406665	3,35475	43,3224	-0,95	78,481	0	1009,5	5	7,3	7,1	1	1	1	1	1	1	1	1	1	0	1	-65,045807	272,456139	247,396225	0
15.01.2021	03:14:52	0	0	4,858631	3,36975	49,5684	-0,953	78,514	0	1009,5	4,8	7,3	7,1	1	1	1	1	1	1	1	1	1	0	1	-68,357999	272,570174	244,607441	0
15.01.2021	03:14:53	0	0	4,519656	3,2085	24,7428	-0,951	78,531	0	1009,5	5	7,3	7,1	1	1	1	1	1	1	1	1	1	0	1	-64,763918	272,571552	248,207851	0
15.01.2021	03:14:54	0	0	2,937777	2,97825	49,2012	-0,943	78,568	0	1009,5	4,8	7,3	7,1	1	1	1	1	1	1	1	1	1	0	1	-64,200141	272,46436	248,279601	0
15.01.2021	03:14:55	0	0	3,050768	3,0345	68,0112	-0,948	78,559	0	1009,42	4,8	7,3	7,1	1	1	1	1	1	1	1	1	1	0	1	-63,284003	272,441077	249,088945	0
15.01.2021	03:14:56	0	0	4,180682	3,04575	66,5244	-0,95	78,582	0	1009,26	4,8	7,3	7,1	1	1	1	1	1	1	1	1	1	0	1	-65,045807	272,515132	247,666916	0
15.01.2021	03:14:57	0	0	4,180682	2,7075	45,162	-0,941	78,58	0	1009,52	5	7,3	7,1	1	1	1	1	1	1	1	1	1	0	1	-63,565891	272,604655	249,557944	0
15.01.2021	03:14:58	0	0	5,084614	2,76825	55,5372	-0,94	78,574	0	1009,36	4,8	7,3	7,1	1	1	1	1	1	1	1	1	1	0	1	-63,213531	272,579822	249,796225	0
15.01.2021	03:14:59	0	0	3,615725	2,976	48,1032	-0,947	78,583	0	1009,48	5	7,3	7,1	1	1	1	1	1	1	1	1	1	0	1	-68,710359	272,557775	244,198142	0
15.01.2021	03:15:00	0	0	4,632648	2,93775	55,9476	-0,948	78,591	0	1009,46	5	7,3	7,1	1	1	1	1	1	1	1	1	1	0	1	-65,961945	272,553645	246,927587	0
15.01.2021	03:15:01	0	0	4,632648	2,93775	55,9476	-0,948	78,591	0	1009,46	5	7,3	7,1	1	1	1	1	1	1	1	1	1	0	1	-65,961945	272,553645	246,927587	0
15.01.2021	03:15:02	0	0	4,745639	2,91525	46,3572	-0,942	78,59	0	1009,42	5	7,3	7,1	1	1	1	1	1	1	1	1	1	0	1	-63,213531	272,564662	249,726598	0
15.01.2021	03:15:03	0	0	3,276751	2,7885	42,5736	-0,946	78,593	0	1009,46	5	7,3	7,1	1	1	1	1	1	1	1	1	1	0	1	-65,398168	272,443815	246,987336	0
15.01.2021	03:15:04	0	0	4,858631	2,667	38,4192	-0,947	78,602	0	1009,4	5	7,3	7,1	1	1	1	1	1	1	1	1	1	0	1	-60,747005	272,607416	252,389517	0
15.01.2021	03:15:05	0	0	3,389742	2,7375	35,856	-0,943	78,611	0	1009,44	5	7,3	7,1	1	1	1	1	1	1	1	1	1	0	1	-61,804087	272,46436	250,675655	0
15.01.2021	03:15:06	0	0	3,954676	2,7855	33,9408	-0,939	78,613	0	1009,4	5	7,3	7,2	1	1	1	1	1	1	1	1	1	0	1	-64,411557	272,519255	248,320089	0
15.01.2021	03:15:07	0	0	3,615725	2,75325	27,2844	-0,935	78,61	0	1009,4	5	7,3	7,1	1	1	1	1	1	1	1	1	1	0	1	-63,636364	272,465731	248,849665	0
15.01.2021	03:15:08	0	0	3,389742	2,769	22,086	-0,937	78,605	0	1009,46	5	7,3	7,1	1	1	1	1	1	1	1	1	1	0	1	-60,747005	272,561907	252,180471	0
15.01.2021	03:15:09	0	0	2,824785	2,81475	33,6492	-0,935	78,606	0	1009,44	5	7,3	7,1	1	1	1	1	1	1	1	1	1	0	1	-63,495419	272,625374	249,72362	0
15.01.2021	03:15:10	0	0	3,276751	2,931	38,4264	-0,934	78,613	0	1009,48	5	7,3	7,1	1	1	1	1	1	1	1	1	1	0	1	-64,200141	272,574308	248,784288	0
15.01.2021	03:15:11	0	0	3,841708	3,1485	43,6644	-0,934	78,598	0	1009,5	5	7,3	7,1	1	1	1	1	1	1	1	1	1	0	1	-68,569415	272,621228	244,630574	0
15.01.2021	03:15:12	0	0	5,762562	3,10875	35,4744	-0,936	78,602	0	1009,44	5	7,3	7,1	1	1	1	1	1	1	1	1	1	0	1	-65,46864	272,604655	247,655196	0
15.01.2021	03:15:13	0	0	4,632648	2,8575	22,4784	-0,937	78,608	0	1009,32	5	7,3	7,1	1	1	1	1	1	1	1	1	1	0	1	-64,129669	272,531628	248,658777	0
15.01.2021	03:15:14	0	0	4,971622	2,94225	17,7048	-0,928	78,61	0	1009,42	5	7,3	7,1	1	1	1	1	1	1	1	1	1	0	1	-67,653277	272,460249	244,807608	0
15.01.2021	03:15:15	0	0	2,937777	2,988	34,7112	-0,93	78,585	0	1009,3	5	7,3	7,1	1	1	1	1	1	1	1	1	1	0	1	-65,257223	272,535754	247,550165	0
15.01.2021	03:15:16	0	0	3,389742	3,132	35,0964	-0,931	78,596	0	1009,54	5	7,3	7,1	1	1	1	1	1	1	1	1	1	0	1	-63,495419	272,489043	249,097571	0
15.01.2021	03:15:17	0	0	3,728717	3,39675	38,8368	-0,92	78,595	0	1009,4	5	7,3	7,1	1	1	1	1	1	1	1	1	1	0	1	-63,495419	272,480812	249,059802	0
15.01.2021	03:15:18	0	0	4,180682	3,657	41,8356	-0,931	78,587	0	1009,5	5	7,3	7,1	1	1	1	1	1	1	1	1	1	0	1	-65,398168	272,534379	247,402906	0
15.01.2021	03:15:19	0	0	3,954699	3,70575	39,1788	-0,928	78,583	0	1009,38	5	7,3	7,1	1	1	1	1	1	1	1	1	1	0	1	-65,821001	272,472584	246,696471	0
15.01.2021	03:15:20	0	0	3,728717	3,61875	40,986	-0,926	78,574	0	1009,48	5	7,3	7,1	1	1	1	1	1	1	1	1	1	0	1	-65,257223	272,578443	247,7462	0
15.01.2021	03:15:21	0	0	4,632648	3,53025	38,0736	-0,924	78,555	0	1009,44	5	7,3	7,1	1	1	1	1	1	1	1	1	1	0	1	-65,46864	272,478069	247,073996	0
15.01.2021	03:15:22	0	0	4,180682	3,474	36,234	-0,924	78,563	0	1009,56	5	7,3	7,1	1	1	1	1	1	1	1	1	1	0	1	-67,230444	272,610178	245,918767	0
15.01.2021	03:15:23	0	0	3,728717	3,4125	43,272	-0,923	78,574	0	1009,5	5	7,3	7,1	1	1	1	1	1	1	1	1	1	0	1	-62,22692	272,53713	250,586784	0
15.01.2021	03:15:24	0	0	4,858631	3,27825	43,2972	-0,923	78,559	0	1009,48	5	7,3	7,1	1	1	1	1	1	1	1	1	1	0	1	-66,45525	272,46436	246,024492	0
15.01.2021	03:15:25	0	0	5,084614	3,13125	41,4684	-0,923	78,543	0	1009,2	5	7,3	7,1	1	1	1	1	1	1	1	1	1	0	1	-66,032417	272,603274	247,085076	0
15.01.2021	03:15:26	0	0	4,293674	3,069	47,736	-0,917	78,564	0	1009,46	5	7,3	7,1	1	1	1	1	1	1	1	1	1	0	1	-63,354475	272,61294	249,807427	0
15.01.2021	03:15:27	0	0	3,841708	3,13275	42,2136	-0,919	78,562	0	1009,44	5	7,3	7,1	1	1	1	1	1	1	1	1	1	0	1	-65,186751	272,49316	247,425131	0
15.01.2021	03:15:28	0	0	4,067691	3,105	29,1204	-0,923	78,562	0	1009,48	5	7,3	7,1	1	1	1	1	1	1	1	1	1	0	1	-66,878083	272,559153	246,036743	0
15.01.2021	03:15:29	0	0	3,841708	2,832	30,33	-0,924	78,549	0	1009,38	5	7,3	7,1	1	1	1	1	1	1	1	1	1	0	1	-64,341085	272,632285	248,909717	0
15.01.2021	03:15:30	0	0	4,858631	2,736	27,9864	-0,921	78,553	0	1009,48	4,9	7,3	7,1	1	1	1	1	1	1	1	1	1	0	1	-63,706836	272,472584	248,810636	0
15.01.2021	03:15:31	0	0	4,858631	2,68575	29,9664	-0,923	78,568	0	1009,26	4,9	7,3	7,1	1	1	1	1	1	1	1	1	1	0	1	-60,958421	272,530253	251,823711	0
15.01.2021	03:15:32	0	0	4,632648	2,562	32,166	-0,919	78,564	0	1009,42	5	7,3	7,1	1	1	1	1	1	1	1	1	1	0	1	-66,666667	272,647498	246,654062	0
15.01.2021	03:15:33	0	0	5,084614	2,4825	39,1608	-0,92	78,556	0	1009,2	5	7,3	7,1	1	1	1	1	1	1	1	1	1	0	1	-65,186751	272,63505	248,07676	0
15.01.2021	03:15:34	0	0	3,163741	2,4015	26,1792	-0,913	78,566	0	1009,36	4,9	7,3	7,2	1	1	1	1	1	1	1	1	1	0	1	-65,680056	272,530253	247,102076	0
15.01.2021	03:15:35	0	0	3,615725	2,36325	37,6776	-0,915	78,548	0	1009,46	4,9	7,3	7,1	1	1	1	1	1	1	1	1	1	0	1	-64,552502	272,487671	248,034193	0
15.01.2021	03:15:36	0	0	4,293674	2,37375	27,9828	-0,911	78,551	0	1009,48	5	7,3	7,1	1	1	1	1	1	1	1	1	1	0	1	-65,539112	272,515132	247,173611	0
15.01.2021	03:15:37	0	0	4,406665	2,3265	31,41	-0,91	78,552	0	1009,58	4,9	7,3	7,1	1	1	1	1	1	1	1	1	1	0	1	-59,61945	272,531628	253,168995	0
15.01.2021	03:15:38	0	0	2,937777	2,229	31,4244	-0,909	78,523	0	1009,5	4,9	7,3	7,1	1	1	1	1	1	1	1	1	1	0	1	-60,535588	272,473955	251,988174	0
15.01.2021	03:15:39	0	0	4,293674	2,2965	23,2164	-0,908	78,532	0	1009,4	4,9	7,3	7,1	1	1	1	1	1	1	1	1	1	0	1	-63,354475	272,527503	249,415032	0
15.01.2021	03:15:40	0	0	5,197605	2,2365	24,7212	-0,907	78,531	0	1009,52	4,9	7,3	7,1	1	1	1	1	1	1	1	1	1	0	1	-62,649753	272,63505	250,613758	0
15.01.2021	03:15:41	0	0	4,067691	2,487	55,1808	-0,911	78,508	0	1009,56	4,9	7,3	7,1	1	1	1	1	1	1	1	1	1	0	1	-65,327696	272,489043	247,265295	0
15.01.2021	03:15:42	0	0	5,084614	2,8065	38,4012	-0,91	78,502	0	1009,44	4,9	7,3	7,1	1	1	1	1	1	1	1	1	1	0	1	-64,904863	272,614321	248,263386	0
15.01.2021	03:15:43	0	0	3,163741	2,829	47,3688	-0,907	78,49	0	1009,54	5	7,3	7,2	1	1	1	1	1	1	1	1	1	0	1	-66,032417	272,65857	247,339209	0
15.01.2021	03:15:44	0	0	4,180682	2,8065	50,6772	-0,907	78,488	0	1009,3	4,9	7,3	7,1	1	1	1	1	1	1	1	1	1	0	1	-63,84778	272,583959	249,180976	0
15.01.2021	03:15:45	0	0	2,824785	2,868	38,4192	-0,905	78,468	0	1009,24	4,9	7,3	7,1	1	1	1	1	1	1	1	1	1	0	1	-64,270613	272,661339	249,113743	0
15.01.2021	03:15:46	0	0	4,067691	2,85975	40,2372	-0,904	78,47	0	1009,36	4,9	7,3	7,1	1	1	1	1	1	1	1	1	1	0	1	-61,522199	272,515132	251,190524	0
15.01.2021	03:15:47	0	0	3,615704	2,71275	36,6192	-0,908	78,455	0	1009,5	4,9	7,3	7,2	1	1	1	1	1	1	1	1	1	0	1	-62,649753	272,648882	250,677335	0
15.01.2021	03:15:48	0	0	5,084614	2,5755	38,0592	-0,907	78,458	0	1009,5	5	7,3	7,1	1	1	1	1	1	1	1	1	1	0	1	-62,367865	272,641965	250,927428	0
15.01.2021	03:15:49	0	0	4,63262	2,41875	49,2192	-0,908	78,449	0	1009,46	4,9	7,3	7,2	1	1	1	1	1	1	1	1	1	0	1	-63,565891	272,511011	249,127913	0
15.01.2021	03:15:50	0	0	2,824785	2,34	41,4684	-0,904	78,434	0	1009,4	4,9	7,3	7,1	1	1	1	1	1	1	1	1	1	0	1	-61,733615	272,47944	250,815313	0
15.01.2021	03:15:51	0	0	3,954699	2,33025	49,2156	-0,906	78,417	0	1009,54	5	7,3	7,1	1	1	1	1	1	1	1	1	1	0	1	-62,156448	272,515132	250,556275	0
15.01.2021	03:15:52	0	0	2,937777	2,29725	51,4332	-0,902	78,427	0	1009,44	5	7,3	7,1	1	1	1	1	1	1	1	1	1	0	1	-64,129669	272,509637	248,557831	0
15.01.2021	03:15:53	0	0	3,954676	2,22675	43,3116	-0,902	78,393	0	1009,32	4,9	7,3	7,2	1	1	1	1	1	1	1	1	1	0	1	-60,535588	272,648882	252,7915	0
15.01.2021	03:15:54	0	0	4,745639	2,232	36,6156	-0,901	78,41	0	1009,48	5	7,3	7,1	1	1	1	1	1	1	1	1	1	0	1	-62,579281	272,556398	250,322897	0
15.01.2021	03:15:55	0	0	4,406639	2,316	33,6492	-0,907	78,396	0	1009,44	4,9	7,3	7,2	1	1	1	1	1	1	1	1	1	0	1	-67,512333	272,664109	245,884756	0
15.01.2021	03:15:56	0	0	4,519629	2,28525	43,6716	-0,902	78,39	0	1009,38	4,9	7,3	7,2	1	1	1	1	1	1	1	1	1	0	1	-67,794221	272,586717	245,247205	0
15.01.2021	03:15:57	0	0	3,954699	2,2635	51,462	-0,9	78,371	0	1009,24	4,9	7,3	7,1	1	1	1	1	1	1	1	1	1	0	1	-62,579281	272,653033	250,766892	0
15.01.2021	03:15:58	0	0	3,050768	2,39325	45,8496	-0,897	78,374	0	1009,4	4,9	7,3	7,1	1	1	1	1	1	1	1	1	1	0	1	-66,807611	272,522004	245,936653	0
15.01.2021	03:15:59	0	0	3,16376	2,65425	42,228	-0,893	78,382	0	1009,56	5	7,3	7,1	1	1	1	1	1	1	1	1	1	0	1	-63,565891	272,593614	249,50722	0
15.01.2021	03:16:00	0	0	2,37282	2,93775	38,1708	-0,895	78,353	0	1009,54	5	7,3	7,1	1	1	1	1	1	1	1	1	1	0	1	-59,971811	272,528878	252,804008	0
15.01.2021	03:16:01	0	0	2,37282	2,93775	38,1708	-0,895	78,353	0	1009,54	5	7,3	7,1	1	1	1	1	1	1	1	1	1	0	1	-59,971811	272,528878	252,804008	0
15.01.2021	03:16:02	0	0	3,05075	2,73525	44,0352	-0,897	78,337	0	1009,48	4,9	7,3	7,2	1	1	1	1	1	1	1	1	1	0	1	-65,257223	272,486299	247,323175	0
15.01.2021	03:16:03	0	0	4,858602	2,48475	46,224	-0,893	78,343	0	1009,24	4,9	7,3	7,2	1	1	1	1	1	1	1	1	1	0	1	-63,988724	272,617083	249,192219	0
15.01.2021	03:16:04	0	0	4,519656	2,34075	47,3508	-0,896	78,344	0	1009,46	4,9	7,3	7,1	1	1	1	1	1	1	1	1	1	0	1	-63,706836	272,49316	248,905047	0
15.01.2021	03:16:05	0	0	3,615704	2,25825	16,4916	-0,897	78,33	0	1009,38	5	7,3	7,2	1	1	1	1	1	1	1	1	1	0	1	-61,663143	272,653033	251,68303	0
15.01.2021	03:16:06	0	0	3,389742	2,35275	27,6516	-0,891	78,333	0	1009,42	4,9	7,3	7,1	1	1	1	1	1	1	1	1	1	0	1	-62,579281	272,511011	250,114523	0
15.01.2021	03:16:07	0	0	4,858631	2,625	25,7976	-0,9	78,323	0	1009,42	4,9	7,3	7,1	1	1	1	1	1	1	1	1	1	0	1	-66,243834	272,653033	247,102339	0
15.01.2021	03:16:08	0	0	2,598787	2,62425	25,4268	-0,897	78,302	0	1009,38	4,9	7,3	7,2	1	1	1	1	1	1	1	1	1	0	1	-71,388302	272,648882	241,938787	0
15.01.2021	03:16:09	0	0	4,63262	2,8515	21,3948	-0,89	78,316	0	1009,48	4,9	7,3	7,2	1	1	1	1	1	1	1	1	1	0	1	-65,045807	272,588096	248,001956	0
15.01.2021	03:16:10	0	0	2,937777	2,75775	22,4784	-0,896	78,301	0	1009,42	5	7,3	7,1	1	1	1	1	1	1	1	1	1	0	1	-60,535588	272,65857	252,836038	0
15.01.2021	03:16:11	0	0	3,276731	2,87925	40,986	-0,896	78,288	0	1009,42	4,9	7,3	7,2	1	1	1	1	1	1	1	1	1	0	1	-65,961945	272,50689	246,712946	0
15.01.2021	03:16:12	0	0	4,180657	3,3915	47,3832	-0,892	78,268	0	1009,42	5	7,3	7,2	1	1	1	1	1	1	1	1	1	0	1	-65,045807	272,636433	248,224059	0
15.01.2021	03:16:13	0	0	3,163741	3,585	44,784	-0,897	78,268	0	1009,32	5	7,3	7,2	1	1	1	1	1	1	1	1	1	0	1	-62,085976	272,490416	250,513311	0
15.01.2021	03:16:14	0	0	5,084583	3,52425	47,3616	-0,895	78,274	0	1009,36	4,9	7,3	7,2	1	1	1	1	1	1	1	1	1	0	1	-63,706836	272,592234	249,359937	0
15.01.2021	03:16:15	0	0	3,615704	3,39675	49,9428	-0,898	78,265	0	1009,28	5	7,4	7,2	1	1	1	1	1	1	1	1	1	0	1	-61,804087	272,669649	251,618472	0
15.01.2021	03:16:16	0	0	4,858602	3,4275	54,7992	-0,893	78,26	0	1009,34	5	7,3	7,2	1	1	1	1	1	1	1	1	1	0	1	-67,44186	272,626756	245,783531	0
15.01.2021	03:16:17	0	0	4,971592	3,483	60,5376	-0,888	78,259	0	1009,46	4,9	7,3	7,2	1	1	1	1	1	1	1	1	1	0	1	-64,059197	272,597754	249,032932	0
15.01.2021	03:16:18	0	0	4,406639	3,3975	49,9536	-0,889	78,275	0	1009,38	5	7,4	7,2	1	1	1	1	1	1	1	1	1	0	1	-61,099366	272,677962	252,361417	0
15.01.2021	03:16:19	0	0	4,067666	3,43425	38,4264	-0,893	78,259	0	1009,52	5	7,3	7,2	1	1	1	1	1	1	1	1	1	0	1	-68,146582	272,542633	244,692389	0
15.01.2021	03:16:20	0	0	3,728694	3,2775	41,472	-0,893	78,252	0	1009,26	5	7,3	7,2	1	1	1	1	1	1	1	1	1	0	1	-65,750529	272,657186	247,614733	0
15.01.2021	03:16:21	0	0	3,163741	3,00375	32,1552	-0,892	78,247	0	1009,38	5	7,3	7,2	1	1	1	1	1	1	1	1	1	0	1	-66,243834	272,509637	246,443666	0
15.01.2021	03:16:22	0	0	2,824768	2,655	31,4244	-0,891	78,252	0	1009,44	5	7,3	7,2	1	1	1	1	1	1	1	1	1	0	1	-68,217054	272,596374	244,868735	0
15.01.2021	03:16:23	0	0	3,276731	2,44425	26,1792	-0,89	78,242	0	1009,6	5	7,3	7,2	1	1	1	1	1	1	1	1	1	0	1	-64,83439	272,650266	248,499059	0
15.01.2021	03:16:24	0	0	4,406639	2,4315	43,3008	-0,894	78,252	0	1009,42	5	7,3	7,2	1	1	1	1	1	1	1	1	1	0	1	-64,904863	272,590855	248,155573	0
15.01.2021	03:16:25	0	0	4,745611	2,61975	35,8632	-0,89	78,231	0	1009,46	5	7,3	7,2	1	1	1	1	1	1	1	1	1	0	1	-61,945032	272,65857	251,426594	0
15.01.2021	03:16:26	0	0	4,406639	2,574	51,0552	-0,888	78,242	0	1009,48	5	7,3	7,2	1	1	1	1	1	1	1	1	1	0	1	-65,609584	272,65165	247,730227	0
15.01.2021	03:16:27	0	0	3,615704	2,38125	32,8896	-0,885	78,251	0	1009,42	5	7,4	7,2	1	1	1	1	1	1	1	1	1	0	1	-63,495419	272,563285	249,438382	0
15.01.2021	03:16:28	0	0	3,841685	2,235	33,2712	-0,893	78,235	0	1009,44	5	7,3	7,2	1	1	1	1	1	1	1	1	1	0	1	-63,988724	272,484927	248,585379	0
15.01.2021	03:16:29	0	0	5,084583	2,2125	33,2676	-0,885	78,246	0	1009,5	5	7,4	7,2	1	1	1	1	1	1	1	1	1	0	1	-68,217054	272,590855	244,843382	0
15.01.2021	03:16:30	0	0	3,389722	2,286	28,7424	-0,884	78,25	0	1009,4	5	7,3	7,2	1	1	1	1	1	1	1	1	1	0	1	-59,971811	272,46436	252,507931	0
15.01.2021	03:16:31	0	0	4,745611	2,24475	24,822	-0,888	78,243	0	1009,34	5	7,3	7,2	1	1	1	1	1	1	1	1	1	0	1	-61,804087	272,621228	251,395902	0
15.01.2021	03:16:32	0	0	3,728694	2,2065	23,6016	-0,884	78,231	0	1009,5	5	7,4	7,2	1	1	1	1	1	1	1	1	1	0	1	-68,710359	272,597754	244,381769	0
15.01.2021	03:16:33	0	0	3,276731	2,15025	32,886	-0,889	78,232	0	1009,42	5	7,4	7,2	1	1	1	1	1	1	1	1	1	0	1	-61,87456	272,472584	250,642912	0
15.01.2021	03:16:34	0	0	4,63262	2,001	33,696	-0,891	78,228	0	1009,42	5	7,4	7,2	1	1	1	1	1	1	1	1	1	0	1	-58,985201	272,480812	253,57002	0
15.01.2021	03:16:35	0	0	4,858602	1,8765	32,8716	-0,885	78,221	0	1009,5	5	7,4	7,2	1	1	1	1	1	1	1	1	1	0	1	-63,424947	272,552268	249,458263	0
15.01.2021	03:16:36	0	0	2,485796	1,79625	29,124	-0,887	78,227	0	1009,5	5	7,3	7,2	1	1	1	1	1	1	1	1	1	0	1	-58,985201	272,47944	253,563728	0
15.01.2021	03:16:37	0	0	3,05075	1,767	26,5248	-0,879	78,22	0	1009,44	5	7,3	7,2	1	1	1	1	1	1	1	1	1	0	1	-62,86117	272,528878	249,91465	0
15.01.2021	03:16:38	0	0	2,937759	1,74375	29,1132	-0,885	78,221	0	1009,44	5	7,3	7,2	1	1	1	1	1	1	1	1	1	0	1	-62,86117	272,641965	250,434123	0
15.01.2021	03:16:39	0	0	2,937759	1,797	14,3028	-0,885	78,211	0	1009,54	5	7,4	7,2	1	1	1	1	1	1	1	1	1	0	1	-66,596195	272,628138	246,635548	0
15.01.2021	03:16:40	0	0	5,423555	1,857	31,3956	-0,882	78,197	0	1009,5	5	7,4	7,2	1	1	1	1	1	1	1	1	1	0	1	-63,918252	272,617083	249,262691	0
15.01.2021	03:16:41	0	0	3,05075	1,9125	38,9052	-0,882	78,195	0	1009,46	5	7,4	7,2	1	1	1	1	1	1	1	1	1	0	1	-65,609584	272,661339	247,774772	0
15.01.2021	03:16:42	0	0	4,63262	1,94625	22,0752	-0,885	78,186	0	1009,26	5	7,4	7,2	1	1	1	1	1	1	1	1	1	0	1	-63,213531	272,545385	249,638077	0
15.01.2021	03:16:43	0	0	3,276731	1,941	35,0928	-0,889	78,18	0	1009,28	5	7,4	7,2	1	1	1	1	1	1	1	1	1	0	1	-66,032417	272,478069	246,510219	0
15.01.2021	03:16:44	0	0	5,084583	1,9545	39,8664	-0,885	78,182	0	1009,46	5	7,4	7,2	1	1	1	1	1	1	1	1	1	0	1	-62,649753	272,545385	250,201855	0
15.01.2021	03:16:45	0	0	4,406639	1,95825	28,746	-0,884	78,189	0	1009,42	5	7,4	7,2	1	1	1	1	1	1	1	1	1	0	1	-62,156448	272,610178	250,992763	0
15.01.2021	03:16:46	0	0	3,05075	1,96725	42,21	-0,882	78,172	0	1009,46	5	7,4	7,2	1	1	1	1	1	1	1	1	1	0	1	-62,297393	272,478069	250,245243	0
15.01.2021	03:16:47	0	0	3,841685	1,968	39,5532	-0,887	78,158	0	1009,42	5	7,4	7,2	1	1	1	1	1	1	1	1	1	0	1	-64,411557	272,531628	248,376888	0
15.01.2021	03:16:48	0	0	4,519629	2,043	37,6848	-0,887	78,174	0	1009,3	5	7,4	7,2	1	1	1	1	1	1	1	1	1	0	1	-63,002114	272,476698	249,53423	0
15.01.2021	03:16:49	0	0	5,197574	2,03175	39,5532	-0,886	78,162	0	1009,38	5	7,3	7,2	1	1	1	1	1	1	1	1	1	0	1	-68,357999	272,608797	244,784868	0
15.01.2021	03:16:50	0	0	4,180657	2,0085	34,7256	-0,886	78,158	0	1009,44	5	7,3	7,2	1	1	1	1	1	1	1	1	1	0	1	-61,099366	272,513758	251,607051	0
15.01.2021	03:16:51	0	0	5,084583	1,9605	29,1132	-0,879	78,154	0	1009,44	5	7,4	7,2	1	1	1	1	1	1	1	1	1	0	1	-62,579281	272,640582	250,709654	0
15.01.2021	03:16:52	0	0	4,067666	1,962	21,0312	-0,879	78,174	0	1009,62	5	7,4	7,2	1	1	1	1	1	1	1	1	1	0	1	-63,84778	272,603274	249,269713	0
15.01.2021	03:16:53	0	0	3,389722	1,857	20,646	-0,883	78,139	0	1009,32	5	7,4	7,2	1	1	1	1	1	1	1	1	1	0	1	-64,411557	272,478069	248,131079	0
15.01.2021	03:16:54	0	0	3,615704	1,7535	17,2296	-0,888	78,123	0	1009,24	5	7,4	7,2	1	1	1	1	1	1	1	1	1	0	1	-58,703312	272,531628	254,085133	0
15.01.2021	03:16:55	0	0	4,745611	1,7625	13,9212	-0,884	78,123	0	1009,48	5	7,3	7,2	1	1	1	1	1	1	1	1	1	0	1	-59,408034	272,618465	253,779257	0
15.01.2021	03:16:56	0	0	4,745611	1,7385	19,1556	-0,881	78,139	0	1009,4	5	7,4	7,2	1	1	1	1	1	1	1	1	1	0	1	-65,609584	272,65857	247,762042	0
15.01.2021	03:16:57	0	0	5,197574	1,71075	17,6976	-0,881	78,122	0	1009,46	5	7,4	7,2	1	1	1	1	1	1	1	1	1	0	1	-62,649753	272,549515	250,220814	0
15.01.2021	03:16:58	0	0	2,824768	1,782	24,3468	-0,878	78,125	0	1009,42	5	7,3	7,2	1	1	1	1	1	1	1	1	1	0	1	-63,213531	272,639199	250,069048	0
15.01.2021	03:16:59	0	0	4,858602	1,8735	35,8704	-0,88	78,111	0	1009,46	5	7,4	7,2	1	1	1	1	1	1	1	1	1	0	1	-62,438337	272,619846	250,755303	0
15.01.2021	03:17:00	0	0	4,971592	1,88775	38,7828	-0,881	78,112	0	1009,24	4,8	7,4	7,2	1	1	1	1	1	1	1	1	1	0	1	-60,324172	272,47944	252,224756	0
15.01.2021	03:17:01	0	0	3,163741	2,04225	35,4744	-0,878	78,089	0	1009,24	5	7,4	7,2	1	1	1	1	1	1	1	1	1	0	1	-61,381254	272,495905	251,243225	0
15.01.2021	03:17:02	0	0	3,163741	2,04225	35,4744	-0,878	78,089	0	1009,24	5	7,4	7,2	1	1	1	1	1	1	1	1	1	0	1	-61,381254	272,495905	251,243225	0
15.01.2021	03:17:03	0	0	4,406639	2,14875	51,0696	-0,876	78,121	0	1009,56	5	7,4	7,2	1	1	1	1	1	1	1	1	1	0	1	-63,495419	272,593614	249,577692	0
15.01.2021	03:17:04	0	0	3,163741	2,067	43,668	-0,883	78,111	0	1009,54	5	7,3	7,2	1	1	1	1	1	1	1	1	1	0	1	-66,384778	272,490416	246,214509	0
15.01.2021	03:17:05	0	0	3,05075	2,004	51,0444	-0,875	78,113	0	1009,46	5	7,4	7,2	1	1	1	1	1	1	1	1	1	0	1	-60,465116	272,589475	252,588983	0
15.01.2021	03:17:06	0	0	4,180657	2,03175	37,3068	-0,875	78,096	0	1009,4	5	7,4	7,2	1	1	1	1	1	1	1	1	1	0	1	-63,777308	272,47944	248,77162	0
15.01.2021	03:17:07	0	0	4,632648	2,03775	52,218	-0,875	78,101	0	1009,36	5	7,3	7,1	1	1	1	1	1	1	1	1	1	0	1	-68,428471	272,579822	244,581285	0
15.01.2021	03:17:08	0	0	3,615704	2,0025	43,2972	-0,873	78,098	0	1009,42	5	7,3	7,2	1	1	1	1	1	1	1	1	1	0	1	-66,032417	272,643348	247,269234	0
15.01.2021	03:17:09	0	0	4,971592	1,95	45,162	-0,879	78,08	0	1009,44	5	7,3	7,2	1	1	1	1	1	1	1	1	1	0	1	-61,592671	272,600514	251,512139	0
15.01.2021	03:17:10	0	0	3,276731	1,84575	20,6568	-0,879	78,075	0	1009,48	5	7,4	7,2	1	1	1	1	1	1	1	1	1	0	1	-64,693446	272,473955	247,830316	0
15.01.2021	03:17:11	0	0	3,163741	1,6845	37,3032	-0,878	78,075	0	1009,44	5	7,4	7,2	1	1	1	1	1	1	1	1	1	0	1	-63,918252	272,500024	248,725128	0
15.01.2021	03:17:12	0	0	2,937759	1,734	33,6384	-0,878	78,076	0	1009,28	5	7,4	7,2	1	1	1	1	1	1	1	1	1	0	1	-64,48203	272,531628	248,306416	0
15.01.2021	03:17:13	0	0	2,146824	1,9755	35,1	-0,88	78,077	0	1009,48	5	7,3	7,2	1	1	1	1	1	1	1	1	1	0	1	-56,589147	272,465731	255,896882	0
15.01.2021	03:17:14	0	0	4,971622	2,2335	45,5328	-0,877	78,058	0	1009,4	5	7,4	7,1	1	1	1	1	1	1	1	1	1	0	1	-66,032417	272,619846	247,161223	0
15.01.2021	03:17:15	0	0	5,197574	2,34825	40,2624	-0,878	78,065	0	1009,52	5	7,4	7,2	1	1	1	1	1	1	1	1	1	0	1	-62,508809	272,473955	250,014953	0
15.01.2021	03:17:16	0	0	2,824768	2,47575	31,7736	-0,88	78,061	0	1009,4	5	7,3	7,2	1	1	1	1	1	1	1	1	1	0	1	-63,84778	272,626756	249,377611	0
15.01.2021	03:17:17	0	0	2,937759	2,60175	31,0284	-0,876	78,058	0	1009,48	5	7,3	7,2	1	1	1	1	1	1	1	1	1	0	1	-61,099366	272,508263	251,581829	0
15.01.2021	03:17:18	0	0	2,937759	2,7045	29,9556	-0,877	78,043	0	1009,44	5	7,3	7,2	1	1	1	1	1	1	1	1	1	0	1	-61,522199	272,61294	251,639704	0
15.01.2021	03:17:19	0	0	4,406639	2,78325	32,886	-0,874	78,047	0	1009,36	5	7,3	7,2	1	1	1	1	1	1	1	1	1	0	1	-61,945032	272,62952	251,293064	0
15.01.2021	03:17:20	0	0	4,406639	2,5725	23,2236	-0,874	78,044	0	1009,42	5	7,3	7,2	1	1	1	1	1	1	1	1	1	0	1	-62,579281	272,495905	250,045199	0
15.01.2021	03:17:21	0	0	4,067666	2,337	25,8084	-0,883	78,02	0	1009,54	5	7,3	7,2	1	1	1	1	1	1	1	1	1	0	1	-66,032417	272,450661	246,384485	0
15.01.2021	03:17:22	0	0	3,841708	2,151	20,7216	-0,878	78,024	0	1009,4	5	7,3	7,1	1	1	1	1	1	1	1	1	1	0	1	-64,411557	272,56053	248,509593	0
15.01.2021	03:17:23	0	0	4,293648	2,03475	14,3136	-0,875	78,031	0	1009,32	5	7,3	7,2	1	1	1	1	1	1	1	1	1	0	1	-63,072586	272,50277	249,583397	0
15.01.2021	03:17:24	0	0	3,841685	2,04675	33,9516	-0,874	78,032	0	1009,5	5	7,3	7,2	1	1	1	1	1	1	1	1	1	0	1	-61,451727	272,632285	251,799076	0
15.01.2021	03:17:25	0	0	3,841685	1,914	19,2276	-0,875	78,015	0	1009,4	5	7,3	7,2	1	1	1	1	1	1	1	1	1	0	1	-65,045807	272,56604	247,900648	0
15.01.2021	03:17:26	0	0	4,858602	1,785	22,1004	-0,877	78,013	0	1009,3	5	7,3	7,2	1	1	1	1	1	1	1	1	1	0	1	-63,777308	272,626756	249,448083	0
15.01.2021	03:17:27	0	0	3,502734	1,752	40,6008	-0,879	78,016	0	1009,5	5	7,4	7,1	1	1	1	1	1	1	1	1	1	0	1	-59,971811	272,490416	252,627476	0
15.01.2021	03:17:28	0	0	3,728694	1,80675	21,042	-0,875	78,017	0	1009,42	5	7,4	7,2	1	1	1	1	1	1	1	1	1	0	1	-66,45525	272,623992	246,757439	0
15.01.2021	03:17:29	0	0	2,937777	1,8375	40,248	-0,881	78	0	1009,34	5	7,3	7,1	1	1	1	1	1	1	1	1	1	0	1	-65,46864	272,62952	247,769456	0
15.01.2021	03:17:30	0	0	4,293674	1,908	37,692	-0,881	78,007	0	1009,48	5	7,4	7,1	1	1	1	1	1	1	1	1	1	0	1	-66,737139	272,542633	246,101832	0
15.01.2021	03:17:31	0	0	3,276751	1,83375	38,4048	-0,876	78,008	0	1009,42	5	7,3	7,1	1	1	1	1	1	1	1	1	1	0	1	-68,287526	272,450661	244,129376	0
15.01.2021	03:17:32	0	0	3,050768	1,73325	21,0348	-0,878	77,992	0	1009,24	5	7,3	7,1	1	1	1	1	1	1	1	1	1	0	1	-61,24031	272,550891	251,636578	0
15.01.2021	03:17:33	0	0	4,745611	1,77825	36,414	-0,879	77,999	0	1009,48	5	7,3	7,2	1	1	1	1	1	1	1	1	1	0	1	-64,341085	272,443815	248,044418	0
15.01.2021	03:17:34	0	0	3,389722	1,77525	33,2676	-0,878	78,002	0	1009,3	5	7,3	7,2	1	1	1	1	1	1	1	1	1	0	1	-59,548978	272,476698	252,987366	0
15.01.2021	03:17:35	0	0	3,16376	1,851	50,6988	-0,884	77,992	0	1009,38	5	7,3	7,1	1	1	1	1	1	1	1	1	1	0	1	-64,622974	272,570174	248,342466	0
15.01.2021	03:17:36	0	0	4,745639	1,79775	45,846	-0,875	77,995	0	1009,5	5	7,3	7,1	1	1	1	1	1	1	1	1	1	0	1	-63,002114	272,630902	250,242334	0
15.01.2021	03:17:37	0	0	2,937777	1,7085	19,9224	-0,88	78,002	0	1009,44	5	7,3	7,1	1	1	1	1	1	1	1	1	1	0	1	-63,143058	272,56604	249,803397	0
15.01.2021	03:17:38	0	0	4,067666	1,6995	41,4792	-0,875	77,981	0	1009,36	5	7,3	7,2	1	1	1	1	1	1	1	1	1	0	1	-65,045807	272,628138	248,185936	0
15.01.2021	03:17:39	0	0	4,293674	1,746	25,7904	-0,879	77,991	0	1009,4	5	7,3	7,1	1	1	1	1	1	1	1	1	1	0	1	-68,428471	272,523378	244,322104	0
15.01.2021	03:17:40	0	0	4,745611	1,665	35,4852	-0,881	77,982	0	1009,42	5	7,3	7,2	1	1	1	1	1	1	1	1	1	0	1	-61,310782	272,615702	251,863813	0
15.01.2021	03:17:41	0	0	4,745639	1,6635	36,6372	-0,879	77,982	0	1009,42	5	7,3	7,1	1	1	1	1	1	1	1	1	1	0	1	-70,260747	272,58258	242,761675	0
15.01.2021	03:17:42	0	0	2,937759	1,6575	35,4888	-0,882	77,977	0	1009,36	5	7,3	7,2	1	1	1	1	1	1	1	1	1	0	1	-63,002114	272,557775	249,906387	0
15.01.2021	03:17:43	0	0	3,954676	1,767	44,7804	-0,881	77,972	0	1009,5	5	7,3	7,2	1	1	1	1	1	1	1	1	1	0	1	-63,354475	272,623992	249,858214	0
15.01.2021	03:17:44	0	0	3,502713	1,761	39,5532	-0,879	77,978	0	1009,32	5	7,3	7,2	1	1	1	1	1	1	1	1	1	0	1	-65,680056	272,467101	246,81226	0
15.01.2021	03:17:45	0	0	4,519629	1,8225	42,2136	-0,874	77,977	0	1009,32	5	7,3	7,2	1	1	1	1	1	1	1	1	1	0	1	-61,804087	272,509637	250,883412	0
15.01.2021	03:17:46	0	0	4,858631	1,854	39,1788	-0,884	77,975	0	1009,42	5	7,3	7,1	1	1	1	1	1	1	1	1	1	0	1	-61,592671	272,441077	250,780277	0
15.01.2021	03:17:47	0	0	5,310565	1,80225	32,5044	-0,879	77,985	0	1009,42	5	7,3	7,2	1	1	1	1	1	1	1	1	1	0	1	-63,777308	272,567418	249,175475	0
15.01.2021	03:17:48	0	0	2,937777	1,77825	33,9732	-0,875	77,981	0	1009,48	5	7,3	7,1	1	1	1	1	1	1	1	1	1	0	1	-62,085976	272,610178	251,063235	0
15.01.2021	03:17:49	0	0	3,389742	1,71375	24,3504	-0,878	77,975	0	1009,46	5	7,3	7,1	1	1	1	1	1	1	1	1	1	0	1	-63,636364	272,58258	249,386059	0
15.01.2021	03:17:50	0	0	4,858631	1,74225	25,0416	-0,879	77,942	0	1009,26	5	7,3	7,1	1	1	1	1	1	1	1	1	1	0	1	-62,438337	272,589475	250,615762	0
15.01.2021	03:17:51	0	0	4,519629	1,77	39,5712	-0,879	77,945	0	1009,46	5	7,3	7,2	1	1	1	1	1	1	1	1	1	0	1	-62,790698	272,441077	249,58225	0
15.01.2021	03:17:52	0	0	4,180657	1,81125	26,1792	-0,875	77,958	0	1009,56	5	7,3	7,2	1	1	1	1	1	1	1	1	1	0	1	-66,173362	272,519255	246,558285	0
15.01.2021	03:17:53	0	0	3,389742	1,98825	26,2044	-0,879	77,953	0	1009,44	5	7,3	7,1	1	1	1	1	1	1	1	1	1	0	1	-66,173362	272,614321	246,994887	0
15.01.2021	03:17:54	0	0	3,276751	2,094	40,2444	-0,877	77,948	0	1009,4	5	7,3	7,1	1	1	1	1	1	1	1	1	1	0	1	-66,948555	272,594994	246,130895	0
15.01.2021	03:17:55	0	0	2,937777	2,14275	37,692	-0,872	77,938	0	1009,42	5	7,3	7,1	1	1	1	1	1	1	1	1	1	0	1	-66,314306	272,449292	246,096316	0
15.01.2021	03:17:56	0	0	4,406665	2,235	35,5032	-0,877	77,946	0	1009,22	5	7,3	7,1	1	1	1	1	1	1	1	1	1	0	1	-60,958421	272,47944	251,590507	0
15.01.2021	03:17:57	0	0	4,63262	2,43	35,118	-0,873	77,941	0	1009,38	5	7,3	7,2	1	1	1	1	1	1	1	1	1	0	1	-64,059197	272,56604	248,887259	0
15.01.2021	03:17:58	0	0	2,485811	2,7465	44,4096	-0,879	77,919	0	1009,28	5	7,3	7,1	1	1	1	1	1	1	1	1	1	0	1	-60,042283	272,62952	253,195812	0
15.01.2021	03:17:59	0	0	3,954699	2,8425	41,4504	-0,88	77,916	0	1009,32	5	7,3	7,1	1	1	1	1	1	1	1	1	1	0	1	-63,777308	272,577065	249,219783	0
15.01.2021	03:18:00	0	0	4,971622	2,9715	43,2972	-0,873	77,93	0	1009,4	5	7,3	7,1	1	1	1	1	1	1	1	1	1	0	1	-65,680056	272,623992	247,532632	0
15.01.2021	03:18:01	0	0	4,971622	2,9715	43,2972	-0,873	77,93	0	1009,4	5	7,3	7,1	1	1	1	1	1	1	1	1	1	0	1	-65,680056	272,623992	247,532632	0
15.01.2021	03:18:02	0	0	3,389742	2,868	34,0164	-0,877	77,927	0	1009,4	5	7,3	7,1	1	1	1	1	1	1	1	1	1	0	1	-62,22692	272,545385	250,624688	0
15.01.2021	03:18:03	0	0	2,824785	2,9325	34,722	-0,88	77,914	0	1009,44	5	7,3	7,1	1	1	1	1	1	1	1	1	1	0	1	-60,2537	272,628138	252,978043	0
15.01.2021	03:18:04	0	0	4,293674	2,9775	54,1188	-0,876	77,923	0	1009,4	5	7,3	7,1	1	1	1	1	1	1	1	1	1	0	1	-65,116279	272,530253	247,665853	0
15.01.2021	03:18:05	0	0	3,050768	3,19275	52,1388	-0,876	77,924	0	1009,48	5	7,3	7,1	1	1	1	1	1	1	1	1	1	0	1	-61,663143	272,449292	250,747479	0
15.01.2021	03:18:06	0	0	3,276731	3,29025	64,242	-0,875	77,927	0	1009,32	5	7,3	7,2	1	1	1	1	1	1	1	1	1	0	1	-66,173362	272,478069	246,369274	0
15.01.2021	03:18:07	0	0	4,745639	3,3165	55,1808	-0,88	77,919	0	1009,46	5	7,3	7,1	1	1	1	1	1	1	1	1	1	0	1	-59,971811	272,456139	252,470221	0
15.01.2021	03:18:08	0	0	2,598802	3,5835	52,8912	-0,865	77,93	0	1009,34	5	7,3	7,1	1	1	1	1	1	1	1	1	1	0	1	-59,760395	272,458879	252,694205	0
15.01.2021	03:18:09	0	0	3,954699	3,54675	53,7156	-0,875	77,935	0	1009,36	5	7,3	7,1	1	1	1	1	1	1	1	1	1	0	1	-64,411557	272,549515	248,45901	0
15.01.2021	03:18:10	0	0	4,63262	3,618	57,7332	-0,874	77,92	0	1009,3	5	7,3	7,2	1	1	1	1	1	1	1	1	1	0	1	-63,706836	272,447922	248,697506	0
15.01.2021	03:18:11	0	0	2,598802	3,618	31,0248	-0,878	77,927	0	1009,44	5	7,3	7,1	1	1	1	1	1	1	1	1	1	0	1	-65,46864	272,509637	247,21886	0
15.01.2021	03:18:12	0	0	3,728717	3,52125	48,5208	-0,876	77,928	0	1009,44	5	7,3	7,1	1	1	1	1	1	1	1	1	1	0	1	-66,948555	272,446553	245,449506	0
15.01.2021	03:18:13	0	0	4,632648	3,64125	36,6336	-0,883	77,897	0	1009,28	5	7,3	7,1	1	1	1	1	1	1	1	1	1	0	1	-66,948555	272,593614	246,124556	0
15.01.2021	03:18:14	0	0	3,615725	3,68925	35,8812	-0,875	77,914	0	1009,22	5	7,3	7,1	1	1	1	1	1	1	1	1	1	0	1	-60,535588	272,556398	252,366589	0
15.01.2021	03:18:15	0	0	2,937777	4,122	44,4132	-0,884	77,897	0	1009,46	5	7,3	7,1	1	1	1	1	1	1	1	1	1	0	1	-64,270613	272,471213	248,240569	0
15.01.2021	03:18:16	0	0	4,406665	4,4865	53,7264	-0,877	77,892	0	1009,42	5	7,3	7,1	1	1	1	1	1	1	1	1	1	0	1	-68,217054	272,619846	244,976585	0
15.01.2021	03:18:17	0	0	4,067691	4,62	38,4948	-0,875	77,911	0	1009,44	5	7,3	7,1	1	1	1	1	1	1	1	1	1	0	1	-63,284003	272,467101	249,208314	0
15.01.2021	03:18:18	0	0	4,519656	4,44375	39,1932	-0,88	77,887	0	1009,26	5	7,3	7,1	1	1	1	1	1	1	1	1	1	0	1	-61,310782	272,61294	251,85112	0
15.01.2021	03:18:19	0	0	4,745639	4,2555	38,79	-0,881	77,899	0	1009,38	5	7,3	7,1	1	1	1	1	1	1	1	1	1	0	1	-63,495419	272,530253	249,286713	0
15.01.2021	03:18:20	0	0	3,389722	4,05375	35,478	-0,883	77,895	0	1009,44	5	7,3	7,2	1	1	1	1	1	1	1	1	1	0	1	-64,411557	272,628138	248,820186	0
15.01.2021	03:18:21	0	0	4,519629	3,68475	46,224	-0,875	77,92	0	1009,46	5	7,3	7,2	1	1	1	1	1	1	1	1	1	0	1	-64,693446	272,575686	248,297314	0
15.01.2021	03:18:22	0	0	2,824785	3,264	41,4648	-0,879	77,904	0	1009,4	5	7,3	7,1	1	1	1	1	1	1	1	1	1	0	1	-61,522199	272,628138	251,709544	0
15.01.2021	03:18:23	0	0	4,180682	3,13875	47,3868	-0,874	77,935	0	1009,48	5	7,3	7,1	1	1	1	1	1	1	1	1	1	0	1	-66,525722	272,578443	246,477701	0
15.01.2021	03:18:24	0	0	4,63262	3,0585	49,5576	-0,875	77,951	0	1009,46	5	7,3	7,2	1	1	1	1	1	1	1	1	1	0	1	-61,099366	272,62952	252,13873	0
15.01.2021	03:18:25	0	0	3,389722	3,30075	49,212	-0,885	77,96	0	1009,34	5	7,3	7,2	1	1	1	1	1	1	1	1	1	0	1	-63,988724	272,465731	248,497305	0
15.01.2021	03:18:26	0	0	3,276751	3,49875	48,5136	-0,876	77,976	0	1009,36	5	7,3	7,1	1	1	1	1	1	1	1	1	1	0	1	-61,310782	272,49316	251,3011	0
15.01.2021	03:18:27	0	0	4,406665	3,47925	41,8356	-0,873	77,993	0	1009,52	5	7,3	7,1	1	1	1	1	1	1	1	1	1	0	1	-63,213531	272,4534	249,215936	0
15.01.2021	03:18:28	0	0	3,276731	3,53325	43,38	-0,873	77,998	0	1009,36	5	7,3	7,2	1	1	1	1	1	1	1	1	1	0	1	-61,804087	272,505516	250,864501	0
15.01.2021	03:18:29	0	0	4,63262	3,37875	47,7504	-0,875	77,999	0	1009,52	5	7,3	7,2	1	1	1	1	1	1	1	1	1	0	1	-68,992248	272,457509	243,456067	0
15.01.2021	03:18:30	0	0	3,841685	3,43425	47,3796	-0,875	77,994	0	1009,44	5	7,3	7,2	1	1	1	1	1	1	1	1	1	0	1	-67,0895	272,500024	245,55388	0
15.01.2021	03:18:31	0	0	3,05075	3,252	47,3796	-0,871	77,996	0	1009,4	5	7,3	7,2	1	1	1	1	1	1	1	1	1	0	1	-64,270613	272,601894	248,840538	0
15.01.2021	03:18:32	0	0	4,519629	3,10425	38,4228	-0,873	77,984	0	1009,36	5	7,3	7,2	1	1	1	1	1	1	1	1	1	0	1	-64,622974	272,636433	248,646892	0
15.01.2021	03:18:33	0	0	2,259828	3,26775	39,5568	-0,873	78,002	0	1009,5	5	7,3	7,1	1	1	1	1	1	1	1	1	1	0	1	-64,904863	272,548138	247,959385	0
15.01.2021	03:18:34	0	0	3,502734	3,324	59,1084	-0,872	77,997	0	1009,44	5	7,3	7,1	1	1	1	1	1	1	1	1	1	0	1	-66,596195	272,653033	246,749978	0
15.01.2021	03:18:35	0	0	3,615725	2,97825	55,1664	-0,871	78,002	0	1009,48	5	7,3	7,1	1	1	1	1	1	1	1	1	1	0	1	-63,072586	272,578443	249,930837	0
15.01.2021	03:18:36	0	0	2,937777	2,55975	47,3616	-0,871	78	0	1009,44	5	7,3	7,1	1	1	1	1	1	1	1	1	1	0	1	-63,424947	272,482184	249,136568	0
15.01.2021	03:18:37	0	0	2,824785	2,4495	46,2384	-0,879	78,004	0	1009,42	5	7,3	7,1	1	1	1	1	1	1	1	1	1	0	1	-63,072586	272,523378	249,677988	0
15.01.2021	03:18:38	0	0	3,276751	2,796	42,2244	-0,872	77,993	0	1009,38	5	7,3	7,1	1	1	1	1	1	1	1	1	1	0	1	-64,200141	272,639199	249,082437	0
15.01.2021	03:18:39	0	0	2,824768	3,27675	41,0832	-0,87	78,01	0	1009,58	5	7,3	7,2	1	1	1	1	1	1	1	1	1	0	1	-68,005638	272,47944	244,543291	0
15.01.2021	03:18:40	0	0	4,858602	3,2715	39,5568	-0,874	78,005	0	1009,38	5	7,3	7,2	1	1	1	1	1	1	1	1	1	0	1	-65,116279	272,597754	247,97585	0
15.01.2021	03:18:41	0	0	3,502713	3,00525	29,1024	-0,874	78,004	0	1009,38	5	7,3	7,2	1	1	1	1	1	1	1	1	1	0	1	-63,565891	272,657186	249,79937	0
15.01.2021	03:18:42	0	0	2,711778	2,97075	29,1096	-0,874	77,999	0	1009,28	5	7,3	7,2	1	1	1	1	1	1	1	1	1	0	1	-65,398168	272,56604	247,548287	0
15.01.2021	03:18:43	0	0	3,502734	3,066	34,0524	-0,873	78,001	0	1009,36	5	7,3	7,1	1	1	1	1	1	1	1	1	1	0	1	-66,102889	272,484927	246,471214	0
15.01.2021	03:18:44	0	0	4,067691	3,4785	51,0552	-0,873	77,998	0	1009,3	5	7,3	7,1	1	1	1	1	1	1	1	1	1	0	1	-68,217054	272,628138	245,014689	0
15.01.2021	03:18:45	0	0	2,824768	3,4845	47,3724	-0,868	77,995	0	1009,4	5	7,3	7,2	1	1	1	1	1	1	1	1	1	0	1	-63,706836	272,57293	249,271263	0
15.01.2021	03:18:46	0	0	4,745611	3,69225	49,9536	-0,876	78,007	0	1009,36	5	7,3	7,2	1	1	1	1	1	1	1	1	1	0	1	-63,072586	272,480812	249,482635	0
15.01.2021	03:18:47	0	0	3,728694	3,7365	57,4524	-0,875	77,987	0	1009,42	5	7,4	7,2	1	1	1	1	1	1	1	1	1	0	1	-67,0895	272,555021	245,806355	0
15.01.2021	03:18:48	0	0	5,084583	3,7605	62,0424	-0,866	77,987	0	1009,44	5	7,3	7,2	1	1	1	1	1	1	1	1	1	0	1	-65,327696	272,665494	248,07576	0
15.01.2021	03:18:49	0	0	4,632648	3,528	68,0148	-0,863	77,998	0	1009,38	5	7,4	7,1	1	1	1	1	1	1	1	1	1	0	1	-64,341085	272,661339	249,043271	0
15.01.2021	03:18:50	0	0	4,745611	3,42	36,9288	-0,871	77,992	0	1009,42	4,9	7,3	7,2	1	1	1	1	1	1	1	1	1	0	1	-61,522199	272,563285	251,411603	0
15.01.2021	03:18:51	0	0	4,293648	3,3495	29,1168	-0,867	77,993	0	1009,26	4,9	7,4	7,2	1	1	1	1	1	1	1	1	1	0	1	-61,24031	272,654418	252,112225	0
15.01.2021	03:18:52	0	0	4,745611	3,009	38,0772	-0,863	77,985	0	1009,54	5	7,3	7,2	1	1	1	1	1	1	1	1	1	0	1	-61,24031	272,577065	251,756781	0
15.01.2021	03:18:53	0	0	4,519656	2,81025	34,7184	-0,861	77,997	0	1009,4	5	7,3	7,1	1	1	1	1	1	1	1	1	1	0	1	-64,48203	272,661339	248,902327	0
15.01.2021	03:18:54	0	0	5,197574	2,9145	44,7696	-0,865	77,994	0	1009,36	5	7,3	7,2	1	1	1	1	1	1	1	1	1	0	1	-62,86117	272,644731	250,44684	0
15.01.2021	03:18:55	0	0	3,502713	2,7555	42,5844	-0,868	78,02	0	1009,44	4,9	7,4	7,2	1	1	1	1	1	1	1	1	1	0	1	-65,116279	272,583959	247,912477	0
15.01.2021	03:18:56	0	0	4,180657	2,59425	39,8772	-0,869	78,02	0	1009,3	5	7,3	7,2	1	1	1	1	1	1	1	1	1	0	1	-62,156448	272,664109	251,24064	0
15.01.2021	03:18:57	0	0	4,858602	2,499	41,8356	-0,863	78,038	0	1009,64	5	7,3	7,2	1	1	1	1	1	1	1	1	1	0	1	-64,83439	272,544009	248,010899	0
15.01.2021	03:18:58	0	0	4,519629	2,451	26,1684	-0,865	78,04	0	1009,38	4,9	7,3	7,2	1	1	1	1	1	1	1	1	1	0	1	-64,693446	272,524753	248,063439	0
15.01.2021	03:18:59	0	0	3,615704	2,39175	39,1788	-0,862	78,03	0	1009,48	4,9	7,3	7,2	1	1	1	1	1	1	1	1	1	0	1	-62,156448	272,515132	250,556275	0
15.01.2021	03:19:00	0	0	2,937777	2,42775	50,3964	-0,859	78,054	0	1009,5	5,1	7,4	7,1	1	1	1	1	1	1	1	1	1	0	1	-62,156448	272,498651	250,480631	0
15.01.2021	03:19:01	0	0	2,937777	2,42775	50,3964	-0,859	78,054	0	1009,5	5,1	7,4	7,1	1	1	1	1	1	1	1	1	1	0	1	-62,156448	272,498651	250,480631	0
15.01.2021	03:19:02	0	0	2,937777	2,41575	50,3028	-0,865	78,049	0	1009,38	5,1	7,4	7,1	1	1	1	1	1	1	1	1	1	0	1	-63,284003	272,528878	249,491817	0
15.01.2021	03:19:03	0	0	4,519656	2,4825	36,2376	-0,856	78,048	0	1009,46	5	7,4	7,1	1	1	1	1	1	1	1	1	1	0	1	-63,354475	272,520629	249,38348	0
15.01.2021	03:19:04	0	0	4,067666	2,46225	32,1624	-0,858	78,051	0	1009,42	5	7,4	7,2	1	1	1	1	1	1	1	1	1	0	1	-61,24031	272,671034	252,188619	0
15.01.2021	03:19:05	0	0	3,841685	2,493	33,6348	-0,859	78,039	0	1009,48	5	7,4	7,2	1	1	1	1	1	1	1	1	1	0	1	-62,156448	272,633667	251,100708	0
15.01.2021	03:19:06	0	0	3,615704	2,6565	41,4684	-0,857	78,048	0	1009,48	5	7,4	7,2	1	1	1	1	1	1	1	1	1	0	1	-67,019027	272,494533	245,599153	0
15.01.2021	03:19:07	0	0	4,63262	2,72625	44,7732	-0,855	78,046	0	1009,38	5	7,4	7,2	1	1	1	1	1	1	1	1	1	0	1	-63,565891	272,579822	249,443864	0
15.01.2021	03:19:08	0	0	4,519656	2,59725	43,3908	-0,853	78,031	0	1009,44	5,1	7,4	7,1	1	1	1	1	1	1	1	1	1	0	1	-65,186751	272,490416	247,412536	0
15.01.2021	03:19:09	0	0	4,745611	2,32725	30,3264	-0,855	78,037	0	1009,42	5,1	7,4	7,2	1	1	1	1	1	1	1	1	1	0	1	-67,582805	272,599134	245,515664	0
15.01.2021	03:19:10	0	0	5,084583	2,18475	35,4708	-0,857	78,017	0	1009,36	4,9	7,4	7,2	1	1	1	1	1	1	1	1	1	0	1	-65,46864	272,668263	247,947551	0
15.01.2021	03:19:11	0	0	4,519629	2,21625	23,598	-0,854	78,015	0	1009,48	5	7,4	7,2	1	1	1	1	1	1	1	1	1	0	1	-62,438337	272,515132	250,274386	0
15.01.2021	03:19:12	0	0	4,971592	2,307	42,2352	-0,856	78,007	0	1009,36	5	7,3	7,2	1	1	1	1	1	1	1	1	1	0	1	-65,680056	272,512384	247,020054	0
15.01.2021	03:19:13	0	0	2,937777	2,35275	49,9464	-0,849	78,008	0	1009,42	5	7,4	7,1	1	1	1	1	1	1	1	1	1	0	1	-62,297393	272,512384	250,402718	0
15.01.2021	03:19:14	0	0	3,389722	2,35275	45,8496	-0,856	77,996	0	1009,18	4,9	7,4	7,2	1	1	1	1	1	1	1	1	1	0	1	-62,085976	272,606035	251,044203	0
15.01.2021	03:19:15	0	0	4,745611	2,1825	35,892	-0,848	77,996	0	1009,3	5	7,4	7,2	1	1	1	1	1	1	1	1	1	0	1	-63,777308	272,628138	249,454435	0
15.01.2021	03:19:16	0	0	4,293674	2,00775	13,9284	-0,851	77,998	0	1009,46	5	7,4	7,1	1	1	1	1	1	1	1	1	1	0	1	-63,002114	272,643348	250,299537	0
15.01.2021	03:19:17	0	0	5,197574	1,797	24,3324	-0,848	77,985	0	1009,32	4,9	7,4	7,2	1	1	1	1	1	1	1	1	1	0	1	-66,807611	272,653033	246,538562	0
15.01.2021	03:19:18	0	0	2,711794	1,66425	29,5812	-0,849	77,996	0	1009,4	5	7,4	7,1	1	1	1	1	1	1	1	1	1	0	1	-62,790698	272,592234	250,276076	0
15.01.2021	03:19:19	0	0	4,067666	1,56825	27,9792	-0,848	77,973	0	1009,4	4,9	7,4	7,2	1	1	1	1	1	1	1	1	1	0	1	-65,398168	272,668263	248,018023	0
15.01.2021	03:19:20	0	0	3,050768	1,491	23,22	-0,849	77,969	0	1009,34	5	7,4	7,1	1	1	1	1	1	1	1	1	1	0	1	-64,411557	272,527503	248,35795	0
15.01.2021	03:19:21	0	0	3,841685	1,45575	30,7224	-0,843	77,984	0	1009,56	5	7,4	7,2	1	1	1	1	1	1	1	1	1	0	1	-63,213531	272,528878	249,562289	0
15.01.2021	03:19:22	0	0	3,389722	1,5285	33,2676	-0,845	77,971	0	1009,38	5	7,4	7,2	1	1	1	1	1	1	1	1	1	0	1	-64,904863	272,657186	248,460399	0
15.01.2021	03:19:23	0	0	3,841685	1,737	45,6192	-0,847	77,968	0	1009,26	5	7,4	7,2	1	1	1	1	1	1	1	1	1	0	1	-67,512333	272,56604	245,434123	0
15.01.2021	03:19:24	0	0	4,971592	1,87125	35,0964	-0,844	77,964	0	1009,48	5	7,4	7,2	1	1	1	1	1	1	1	1	1	0	1	-64,48203	272,486299	248,098369	0
15.01.2021	03:19:25	0	0	3,16376	1,9575	39,1752	-0,845	77,959	0	1009,38	5	7,4	7,1	1	1	1	1	1	1	1	1	1	0	1	-61,733615	272,512384	250,966495	0
15.01.2021	03:19:26	0	0	2,598802	2,094	37,3212	-0,838	77,964	0	1009,42	5,1	7,4	7,1	1	1	1	1	1	1	1	1	1	0	1	-61,804087	272,484927	250,770016	0
15.01.2021	03:19:27	0	0	3,050768	2,12325	57,0384	-0,842	77,95	0	1009,3	5	7,4	7,1	1	1	1	1	1	1	1	1	1	0	1	-59,971811	272,527503	252,797696	0
15.01.2021	03:19:28	0	0	2,937777	2,17425	57,4308	-0,844	77,953	0	1009,48	5	7,4	7,1	1	1	1	1	1	1	1	1	1	0	1	-63,424947	272,623992	249,787742	0
15.01.2021	03:19:29	0	0	3,050768	2,046	36,63	-0,846	77,935	0	1009,38	5	7,4	7,1	1	1	1	1	1	1	1	1	1	0	1	-63,706836	272,49316	248,905047	0
15.01.2021	03:19:30	0	0	4,180682	1,98225	39,5676	-0,839	77,951	0	1009,52	5	7,4	7,1	1	1	1	1	1	1	1	1	1	0	1	-63,988724	272,611559	249,166832	0
15.01.2021	03:19:31	0	0	3,502734	1,965	35,1108	-0,839	77,939	0	1009,46	5	7,4	7,1	1	1	1	1	1	1	1	1	1	0	1	-63,706836	272,654418	249,645699	0
15.01.2021	03:19:32	0	0	3,050768	2,031	37,3032	-0,839	77,923	0	1009,38	5	7,4	7,1	1	1	1	1	1	1	1	1	1	0	1	-64,622974	272,555021	248,272881	0
15.01.2021	03:19:33	0	0	3,276751	2,07	35,1036	-0,84	77,926	0	1009,42	4,9	7,4	7,1	1	1	1	1	1	1	1	1	1	0	1	-63,565891	272,486299	249,014507	0
15.01.2021	03:19:34	0	0	3,389742	2,18625	45,8604	-0,846	77,922	0	1009,34	5	7,4	7,1	1	1	1	1	1	1	1	1	1	0	1	-66,807611	272,500024	245,835769	0
15.01.2021	03:19:35	0	0	2,711794	2,47425	37,6992	-0,85	77,919	0	1009,44	5	7,4	7,1	1	1	1	1	1	1	1	1	1	0	1	-63,706836	272,538506	249,113184	0
15.01.2021	03:19:36	0	0	3,16376	2,5125	32,8824	-0,836	77,904	0	1009,4	5	7,4	7,1	1	1	1	1	1	1	1	1	1	0	1	-64,129669	272,646115	249,1847	0
15.01.2021	03:19:37	0	0	4,858631	2,48475	32,4972	-0,842	77,897	0	1009,34	5	7,4	7,1	1	1	1	1	1	1	1	1	1	0	1	-65,821001	272,643348	247,48065	0
15.01.2021	03:19:38	0	0	4,858631	2,43525	34,3188	-0,84	77,904	0	1009,64	5	7,4	7,1	1	1	1	1	1	1	1	1	1	0	1	-64,763918	272,659955	248,614073	0
15.01.2021	03:19:39	0	0	3,502734	2,39925	39,1788	-0,839	77,888	0	1009,58	5	7,4	7,1	1	1	1	1	1	1	1	1	1	0	1	-61,663143	272,599134	251,435326	0
15.01.2021	03:19:40	0	0	2,824785	2,41275	43,6716	-0,845	77,885	0	1009,4	5	7,4	7,1	1	1	1	1	1	1	1	1	1	0	1	-62,720226	272,465731	249,765803	0
15.01.2021	03:19:41	0	0	3,163741	2,49975	50,6772	-0,843	77,876	0	1009,34	5	7,4	7,2	1	1	1	1	1	1	1	1	1	0	1	-65,539112	272,56053	247,382038	0
15.01.2021	03:19:42	0	0	4,858631	2,604	39,5784	-0,849	77,854	0	1009,28	5	7,4	7,1	1	1	1	1	1	1	1	1	1	0	1	-65,327696	272,482184	247,233819	0
15.01.2021	03:19:43	0	0	4,632648	2,361	41,004	-0,844	77,867	0	1009,34	5	7,4	7,1	1	1	1	1	1	1	1	1	1	0	1	-62,649753	272,597754	250,442375	0
15.01.2021	03:19:44	0	0	3,050768	2,11425	46,98	-0,845	77,861	0	1009,36	5	7,4	7,1	1	1	1	1	1	1	1	1	1	0	1	-66,314306	272,659955	247,063685	0
15.01.2021	03:19:45	0	0	4,745639	1,944	46,2168	-0,844	77,859	0	1009,3	5	7,4	7,1	1	1	1	1	1	1	1	1	1	0	1	-67,300916	272,614321	245,867333	0
15.01.2021	03:19:46	0	0	3,16376	1,947	34,7184	-0,84	77,864	0	1009,42	5	7,4	7,1	1	1	1	1	1	1	1	1	1	0	1	-63,143058	272,486299	249,43734	0
15.01.2021	03:19:47	0	0	2,824785	2,088	40,644	-0,836	77,846	0	1009,48	5	7,4	7,1	1	1	1	1	1	1	1	1	1	0	1	-60,676533	272,483555	251,891276	0
15.01.2021	03:19:48	0	0	4,180682	2,12175	25,1316	-0,839	77,839	0	1009,48	5	7,4	7,1	1	1	1	1	1	1	1	1	1	0	1	-60,958421	272,644731	252,349588	0
15.01.2021	03:19:49	0	0	3,276751	2,16075	15,786	-0,84	77,82	0	1009,32	5	7,4	7,1	1	1	1	1	1	1	1	1	1	0	1	-61,451727	272,623992	251,760962	0
15.01.2021	03:19:50	0	0	3,502734	2,2035	23,9832	-0,842	77,829	0	1009,4	5	7,4	7,1	1	1	1	1	1	1	1	1	1	0	1	-62,579281	272,654418	250,773254	0
15.01.2021	03:19:51	0	0	3,615725	2,181	33,6528	-0,838	77,843	0	1009,38	5	7,4	7,1	1	1	1	1	1	1	1	1	1	0	1	-67,0895	272,476698	245,446844	0
15.01.2021	03:19:52	0	0	5,084614	2,15775	37,7424	-0,848	77,817	0	1009,46	5	7,4	7,1	1	1	1	1	1	1	1	1	1	0	1	-64,622974	272,56604	248,323481	0
15.01.2021	03:19:53	0	0	2,598802	2,23125	37,332	-0,832	77,815	0	1009,46	5	7,4	7,1	1	1	1	1	1	1	1	1	1	0	1	-62,579281	272,486299	250,001117	0
15.01.2021	03:19:54	0	0	4,293674	2,241	30,3192	-0,842	77,826	0	1009,42	5	7,4	7,1	1	1	1	1	1	1	1	1	1	0	1	-63,636364	272,586717	249,405063	0
15.01.2021	03:19:55	0	0	5,310596	2,25225	23,5944	-0,836	77,796	0	1009,3	5	7,4	7,1	1	1	1	1	1	1	1	1	1	0	1	-61,028894	272,482184	251,532621	0
15.01.2021	03:19:56	0	0	3,050768	2,21325	33,9696	-0,839	77,797	0	1009,66	5	7,4	7,1	1	1	1	1	1	1	1	1	1	0	1	-64,270613	272,597754	248,821516	0
15.01.2021	03:19:57	0	0	2,259828	2,04675	36,6228	-0,842	77,786	0	1009,42	5	7,4	7,1	1	1	1	1	1	1	1	1	1	0	1	-63,424947	272,483555	249,142862	0
15.01.2021	03:19:58	0	0	4,858631	1,99425	34,344	-0,839	77,791	0	1009,38	5	7,4	7,1	1	1	1	1	1	1	1	1	1	0	1	-67,512333	272,618465	245,674959	0
15.01.2021	03:19:59	0	0	3,502734	2,09625	34,7904	-0,845	77,786	0	1009,38	5	7,4	7,1	1	1	1	1	1	1	1	1	1	0	1	-67,653277	272,596374	245,432512	0
15.01.2021	03:20:00	0	0	5,310596	2,42025	34,3332	-0,832	77,787	0	1009,42	5	7,4	7,1	1	1	1	1	1	1	1	1	1	0	1	-61,87456	272,472584	250,642912	0
15.01.2021	03:20:01	0	0	5,310596	2,42025	34,3332	-0,832	77,787	0	1009,42	5	7,4	7,1	1	1	1	1	1	1	1	1	1	0	1	-61,87456	272,472584	250,642912	0
15.01.2021	03:20:02	0	0	4,745639	2,571	35,478	-0,841	77,787	0	1009,42	5	7,4	7,1	1	1	1	1	1	1	1	1	1	0	1	-60,676533	272,585338	252,358559	0
15.01.2021	03:20:03	0	0	4,858631	2,5635	32,5152	-0,839	77,773	0	1009,38	5	7,4	7,1	1	1	1	1	1	1	1	1	1	0	1	-63,636364	272,476698	248,899981	0
15.01.2021	03:20:04	0	0	3,16376	2,50575	27,9792	-0,835	77,789	0	1009,46	5	7,4	7,1	1	1	1	1	1	1	1	1	1	0	1	-62,297393	272,644731	251,010617	0
15.01.2021	03:20:05	0	0	4,406665	2,45025	41,4684	-0,834	77,777	0	1009,46	5	7,4	7,1	1	1	1	1	1	1	1	1	1	0	1	-68,005638	272,589475	245,048461	0
15.01.2021	03:20:06	0	0	3,276751	2,6745	36,9324	-0,839	77,765	0	1009,48	5	7,4	7,1	1	1	1	1	1	1	1	1	1	0	1	-61,522199	272,657186	251,843063	0
15.01.2021	03:20:07	0	0	3,615725	2,691	34,344	-0,838	77,748	0	1009,5	5	7,4	7,1	1	1	1	1	1	1	1	1	1	0	1	-61,522199	272,604655	251,601637	0
15.01.2021	03:20:08	0	0	3,954699	2,616	46,224	-0,841	77,739	0	1009,42	5	7,4	7,1	1	1	1	1	1	1	1	1	1	0	1	-63,143058	272,476698	249,393286	0
15.01.2021	03:20:09	0	0	3,16376	2,691	43,2936	-0,838	77,751	0	1009,4	5	7,4	7,1	1	1	1	1	1	1	1	1	1	0	1	-62,579281	272,633667	250,677875	0
15.01.2021	03:20:10	0	0	4,180682	2,736	45,1548	-0,839	77,744	0	1009,5	5	7,3	7,1	1	1	1	1	1	1	1	1	1	0	1	-63,424947	272,519255	249,306699	0
15.01.2021	03:20:11	0	0	3,728717	2,8275	28,35	-0,838	77,724	0	1009,38	5	7,4	7,1	1	1	1	1	1	1	1	1	1	0	1	-58,491896	272,491788	254,113689	0
15.01.2021	03:20:12	0	0	4,406665	2,91075	29,1204	-0,84	77,741	0	1009,48	5	7,4	7,1	1	1	1	1	1	1	1	1	1	0	1	-65,257223	272,614321	247,911025	0
15.01.2021	03:20:13	0	0	3,841708	2,844	55,1772	-0,839	77,737	0	1009,26	5	7,3	7,1	1	1	1	1	1	1	1	1	1	0	1	-69,626498	272,664109	243,770591	0
15.01.2021	03:20:14	0	0	4,519656	2,7765	40,248	-0,84	77,721	0	1009,34	5	7,3	7,1	1	1	1	1	1	1	1	1	1	0	1	-67,44186	272,592234	245,624913	0
15.01.2021	03:20:15	0	0	3,841708	2,64825	42,9192	-0,837	77,723	0	1009,36	5	7,4	7,1	1	1	1	1	1	1	1	1	1	0	1	-65,609584	272,643348	247,692067	0
15.01.2021	03:20:16	0	0	4,067691	2,4255	44,046	-0,838	77,709	0	1009,36	5	7,4	7,1	1	1	1	1	1	1	1	1	1	0	1	-60,042283	272,671034	253,386645	0
15.01.2021	03:20:17	0	0	3,16376	2,17425	45,8352	-0,835	77,713	0	1009,42	5	7,3	7,1	1	1	1	1	1	1	1	1	1	0	1	-62,156448	272,586717	250,884978	0
15.01.2021	03:20:18	0	0	3,16376	1,992	25,0416	-0,837	77,723	0	1009,54	5	7,4	7,1	1	1	1	1	1	1	1	1	1	0	1	-66,737139	272,640582	246,551797	0
15.01.2021	03:20:19	0	0	3,954699	1,86225	18,4788	-0,838	77,701	0	1009,46	5	7,3	7,1	1	1	1	1	1	1	1	1	1	0	1	-65,398168	272,617083	247,782775	0
15.01.2021	03:20:20	0	0	4,293674	1,8945	34,3404	-0,846	77,707	0	1009,32	5	7,3	7,1	1	1	1	1	1	1	1	1	1	0	1	-61,945032	272,484927	250,629072	0
15.01.2021	03:20:21	0	0	3,502734	2,00475	28,7244	-0,841	77,698	0	1009,52	5	7,4	7,1	1	1	1	1	1	1	1	1	1	0	1	-67,0895	272,50277	245,566483	0
15.01.2021	03:20:22	0	0	4,745639	2,0835	19,908	-0,838	77,685	0	1009,44	5	7,4	7,1	1	1	1	1	1	1	1	1	1	0	1	-63,002114	272,556398	249,900064	0
15.01.2021	03:20:23	0	0	2,937777	2,03775	22,0752	-0,839	77,66	0	1009,42	5	7,3	7,1	1	1	1	1	1	1	1	1	1	0	1	-64,48203	272,640582	248,806906	0
15.01.2021	03:20:24	0	0	3,502734	2,04525	31,0284	-0,838	77,671	0	1009,48	5	7,4	7,1	1	1	1	1	1	1	1	1	1	0	1	-65,257223	272,549515	247,613344	0
15.01.2021	03:20:25	0	0	3,050768	1,9785	29,952	-0,838	77,651	0	1009,42	5	7,3	7,1	1	1	1	1	1	1	1	1	1	0	1	-64,975335	272,490416	247,623953	0
15.01.2021	03:20:26	0	0	2,485811	1,95225	38,0736	-0,842	77,663	0	1009,44	5	7,3	7,1	1	1	1	1	1	1	1	1	1	0	1	-65,821001	272,593614	247,252111	0
15.01.2021	03:20:27	0	0	2,824785	1,86975	27,666	-0,835	77,657	0	1009,24	5	7,3	7,1	1	1	1	1	1	1	1	1	1	0	1	-62,156448	272,65857	251,215178	0
15.01.2021	03:20:28	0	0	5,084583	1,9785	37,3284	-0,834	77,653	0	1009,42	5	7,3	7,2	1	1	1	1	1	1	1	1	1	0	1	-63,636364	272,534379	249,16471	0
15.01.2021	03:20:29	0	0	4,293674	1,95675	25,416	-0,837	77,65	0	1009,42	5	7,3	7,1	1	1	1	1	1	1	1	1	1	0	1	-63,565891	272,517881	249,159446	0
15.01.2021	03:20:30	0	0	3,050768	2,085	20,6424	-0,833	77,651	0	1009,46	5	7,3	7,1	1	1	1	1	1	1	1	1	1	0	1	-61,733615	272,61294	251,428287	0
15.01.2021	03:20:31	0	0	3,05075	2,22075	23,6016	-0,84	77,641	0	1009,48	5	7,4	7,2	1	1	1	1	1	1	1	1	1	0	1	-65,398168	272,469843	247,106725	0
15.01.2021	03:20:32	0	0	2,485811	2,34375	26,2476	-0,839	77,634	0	1009,44	5	7,3	7,1	1	1	1	1	1	1	1	1	1	0	1	-64,552502	272,533003	248,242257	0
15.01.2021	03:20:33	0	0	2,711794	2,3235	33,6348	-0,845	77,642	0	1009,42	5	7,4	7,1	1	1	1	1	1	1	1	1	1	0	1	-63,072586	272,666878	250,337237	0
15.01.2021	03:20:34	0	0	2,937777	2,34225	36,6192	-0,846	77,629	0	1009,42	5	7,3	7,1	1	1	1	1	1	1	1	1	1	0	1	-61,310782	272,610178	251,838429	0
15.01.2021	03:20:35	0	0	4,745639	2,3445	34,7076	-0,843	77,623	0	1009,36	5	7,3	7,1	1	1	1	1	1	1	1	1	1	0	1	-61,451727	272,489043	251,141264	0
15.01.2021	03:20:36	0	0	4,971622	2,34525	28,7424	-0,842	77,626	0	1009,44	5	7,3	7,1	1	1	1	1	1	1	1	1	1	0	1	-66,807611	272,517881	245,917727	0
15.01.2021	03:20:37	0	0	4,406665	2,42775	32,5152	-0,836	77,631	0	1009,4	5	7,3	7,1	1	1	1	1	1	1	1	1	1	0	1	-63,143058	272,524753	249,613826	0
15.01.2021	03:20:38	0	0	5,536546	2,42925	36,234	-0,837	77,639	0	1009,3	5	7,3	7,2	1	1	1	1	1	1	1	1	1	0	1	-63,284003	272,657186	250,081259	0
15.01.2021	03:20:39	0	0	3,276731	2,511	38,0664	-0,836	77,626	0	1009,42	5	7,4	7,2	1	1	1	1	1	1	1	1	1	0	1	-63,777308	272,568796	249,181803	0
15.01.2021	03:20:40	0	0	3,050768	2,46975	27,2988	-0,836	77,631	0	1009,42	5	7,3	7,1	1	1	1	1	1	1	1	1	1	0	1	-62,720226	272,487671	249,866469	0
15.01.2021	03:20:41	0	0	5,084614	2,37525	29,9412	-0,837	77,63	0	1009,54	5	7,5	7,1	1	1	1	1	1	1	1	1	1	0	1	-65,46864	272,594994	247,61081	0
15.01.2021	03:20:42	0	0	3,276751	2,3505	30,7116	-0,839	77,64	0	1009,52	5	7,3	7,1	1	1	1	1	1	1	1	1	1	0	1	-63,213531	272,472584	249,303941	0
15.01.2021	03:20:43	0	0	4,858602	2,35125	40,6188	-0,841	77,638	0	1009,38	5	7,3	7,2	1	1	1	1	1	1	1	1	1	0	1	-58,773784	272,57293	254,204314	0
15.01.2021	03:20:44	0	0	4,745611	2,37825	49,1976	-0,845	77,64	0	1009,3	5	7,3	7,2	1	1	1	1	1	1	1	1	1	0	1	-60,747005	272,511011	251,9468	0
15.01.2021	03:20:45	0	0	3,389722	2,42325	49,5504	-0,837	77,63	0	1009,38	5	7,4	7,2	1	1	1	1	1	1	1	1	1	0	1	-62,720226	272,628138	250,511517	0
15.01.2021	03:20:46	0	0	3,615704	2,44575	42,8976	-0,844	77,638	0	1009,42	5	7,3	7,2	1	1	1	1	1	1	1	1	1	0	1	-63,565891	272,646115	249,748477	0
15.01.2021	03:20:47	0	0	3,389722	2,5245	45,5328	-0,846	77,636	0	1009,4	5	7,3	7,2	1	1	1	1	1	1	1	1	1	0	1	-68,357999	272,648882	244,96909	0
15.01.2021	03:20:48	0	0	4,067691	2,45925	26,1828	-0,842	77,621	0	1009,42	5	7,3	7,1	1	1	1	1	1	1	1	1	1	0	1	-61,028894	272,531628	251,759552	0
15.01.2021	03:20:49	0	0	3,841708	2,532	29,5812	-0,843	77,626	0	1009,48	5	7,3	7,1	1	1	1	1	1	1	1	1	1	0	1	-64,411557	272,668263	249,004634	0
15.01.2021	03:20:50	0	0	2,824785	2,66325	21,3876	-0,84	77,626	0	1009,46	5	7,3	7,1	1	1	1	1	1	1	1	1	1	0	1	-65,891473	272,589475	247,162626	0
15.01.2021	03:20:51	0	0	4,632648	2,619	32,1588	-0,841	77,628	0	1009,58	5	7,3	7,1	1	1	1	1	1	1	1	1	1	0	1	-61,663143	272,484927	250,91096	0
15.01.2021	03:20:52	0	0	3,276751	2,541	29,5848	-0,841	77,628	0	1009,48	5	7,3	7,1	1	1	1	1	1	1	1	1	1	0	1	-63,213531	272,669649	250,209029	0
15.01.2021	03:20:53	0	0	3,841685	2,4345	36,2304	-0,839	77,611	0	1009,62	5	7,3	7,2	1	1	1	1	1	1	1	1	1	0	1	-63,988724	272,526128	248,774471	0
15.01.2021	03:20:54	0	0	2,937759	2,30625	40,6116	-0,839	77,621	0	1009,54	5	7,3	7,2	1	1	1	1	1	1	1	1	1	0	1	-63,565891	272,626756	249,6595	0
15.01.2021	03:20:55	0	0	4,406665	2,23725	36,6228	-0,847	77,619	0	1009,44	5	7,3	7,1	1	1	1	1	1	1	1	1	1	0	1	-65,327696	272,668263	248,088495	0
15.01.2021	03:20:56	0	0	3,841685	2,31975	38,7792	-0,845	77,613	0	1009,34	5	7,3	7,2	1	1	1	1	1	1	1	1	1	0	1	-62,367865	272,570174	250,597575	0
15.01.2021	03:20:57	0	0	2,824768	2,502	35,5032	-0,839	77,609	0	1009,46	5	7,4	7,2	1	1	1	1	1	1	1	1	1	0	1	-59,267089	272,657186	254,098172	0
15.01.2021	03:20:58	0	0	4,406639	2,5455	31,014	-0,838	77,612	0	1009,42	5	7,4	7,2	1	1	1	1	1	1	1	1	1	0	1	-63,988724	272,614321	249,179524	0
15.01.2021	03:20:59	0	0	3,954699	2,559	45,162	-0,838	77,603	0	1009,36	5	7,4	7,1	1	1	1	1	1	1	1	1	1	0	1	-65,609584	272,504143	247,052701	0
15.01.2021	03:21:00	0	0	4,067666	2,448	42,9228	-0,843	77,602	0	1009,48	5	7,3	7,2	1	1	1	1	1	1	1	1	1	0	1	-64,48203	272,61294	248,679873	0
15.01.2021	03:21:01	0	0	4,067666	2,448	42,9228	-0,843	77,602	0	1009,48	5	7,3	7,2	1	1	1	1	1	1	1	1	1	0	1	-64,48203	272,61294	248,679873	0
15.01.2021	03:21:02	0	0	4,632648	2,52375	46,2168	-0,842	77,611	0	1009,46	5	7,5	7,1	1	1	1	1	1	1	1	1	1	0	1	-61,028894	272,668263	252,387297	0
15.01.2021	03:21:03	0	0	2,824768	2,68125	32,5044	-0,841	77,591	0	1009,44	5	7,3	7,2	1	1	1	1	1	1	1	1	1	0	1	-59,901339	272,552268	252,981871	0
15.01.2021	03:21:04	0	0	3,05075	2,5755	30,3228	-0,839	77,6	0	1009,48	5	7,4	7,2	1	1	1	1	1	1	1	1	1	0	1	-64,200141	272,65857	249,171485	0
15.01.2021	03:21:05	0	0	2,824768	2,46225	32,1408	-0,841	77,6	0	1009,6	5	7,3	7,2	1	1	1	1	1	1	1	1	1	0	1	-61,592671	272,515132	251,120052	0
15.01.2021	03:21:06	0	0	3,841685	2,50575	29,9556	-0,852	77,597	0	1009,3	5	7,4	7,2	1	1	1	1	1	1	1	1	1	0	1	-64,763918	272,515132	247,948805	0
15.01.2021	03:21:07	0	0	5,536546	2,805	41,472	-0,847	77,597	0	1009,34	5	7,4	7,2	1	1	1	1	1	1	1	1	1	0	1	-63,706836	272,659955	249,671155	0
15.01.2021	03:21:08	0	0	4,745611	3,069	41,4792	-0,844	77,599	0	1009,66	5	7,4	7,2	1	1	1	1	1	1	1	1	1	0	1	-61,099366	272,610178	252,049846	0
15.01.2021	03:21:09	0	0	2,711778	3,141	49,5792	-0,836	77,604	0	1009,32	5	7,4	7,2	1	1	1	1	1	1	1	1	1	0	1	-62,86117	272,487671	249,725524	0
15.01.2021	03:21:10	0	0	2,937777	3,0675	38,1528	-0,838	77,598	0	1009,44	5	7,4	7,1	1	1	1	1	1	1	1	1	1	0	1	-60,465116	272,655802	252,893782	0
15.01.2021	03:21:11	0	0	4,971622	3,02625	48,1176	-0,845	77,595	0	1009,58	5	7,3	7,1	1	1	1	1	1	1	1	1	1	0	1	-64,83439	272,599134	248,264079	0
15.01.2021	03:21:12	0	0	4,745611	2,91	38,808	-0,842	77,587	0	1009,62	5	7,4	7,2	1	1	1	1	1	1	1	1	1	0	1	-64,270613	272,659955	249,107378	0
15.01.2021	03:21:13	0	0	5,536546	2,865	44,3808	-0,838	77,604	0	1009,44	5	7,4	7,2	1	1	1	1	1	1	1	1	1	0	1	-58,562368	272,528878	254,213452	0
15.01.2021	03:21:14	0	0	4,519629	2,75025	28,35	-0,836	77,607	0	1009,38	5	7,3	7,2	1	1	1	1	1	1	1	1	1	0	1	-64,552502	272,487671	248,034193	0
15.01.2021	03:21:15	0	0	5,423588	2,63775	35,874	-0,843	77,585	0	1009,4	5	7,3	7,1	1	1	1	1	1	1	1	1	1	0	1	-62,156448	272,641965	251,138845	0
15.01.2021	03:21:16	0	0	3,389722	2,61075	50,292	-0,836	77,608	0	1009,52	5	7,4	7,2	1	1	1	1	1	1	1	1	1	0	1	-63,002114	272,65857	250,369512	0
15.01.2021	03:21:17	0	0	5,536546	2,43	29,5812	-0,844	77,594	0	1009,26	5	7,3	7,2	1	1	1	1	1	1	1	1	1	0	1	-59,971811	272,653033	253,374362	0
15.01.2021	03:21:18	0	0	3,050768	2,31675	39,8412	-0,835	77,611	0	1009,5	5	7,4	7,1	1	1	1	1	1	1	1	1	1	0	1	-63,072586	272,610178	250,076625	0
15.01.2021	03:21:19	0	0	4,745611	2,35875	42,9156	-0,841	77,595	0	1009,36	5	7,3	7,2	1	1	1	1	1	1	1	1	1	0	1	-57,152925	272,47944	255,396004	0
15.01.2021	03:21:20	0	0	4,180657	2,4615	43,6608	-0,84	77,625	0	1009,42	5	7,4	7,2	1	1	1	1	1	1	1	1	1	0	1	-62,790698	272,574308	250,193731	0
15.01.2021	03:21:21	0	0	3,05075	2,39025	40,986	-0,84	77,606	0	1009,44	5	7,4	7,2	1	1	1	1	1	1	1	1	1	0	1	-65,398168	272,657186	247,967094	0
15.01.2021	03:21:22	0	0	2,824768	2,358	40,608	-0,839	77,626	0	1009,38	5	7,4	7,2	1	1	1	1	1	1	1	1	1	0	1	-61,663143	272,570174	251,302296	0
15.01.2021	03:21:23	0	0	4,180682	2,40375	33,9552	-0,842	77,619	0	1009,26	5,2	7,4	7,1	1	1	1	1	1	1	1	1	1	0	1	-64,975335	272,62952	248,262761	0
15.01.2021	03:21:24	0	0	3,276731	2,463	32,1732	-0,837	77,632	0	1009,62	5	7,3	7,2	1	1	1	1	1	1	1	1	1	0	1	-60,747005	272,495905	251,877475	0
15.01.2021	03:21:25	0	0	4,519656	2,499	28,3536	-0,843	77,617	0	1009,5	5	7,4	7,1	1	1	1	1	1	1	1	1	1	0	1	-64,059197	272,578443	248,944226	0
15.01.2021	03:21:26	0	0	4,745611	2,45925	33,9444	-0,838	77,627	0	1009,38	5,2	7,4	7,2	1	1	1	1	1	1	1	1	1	0	1	-63,002114	272,664109	250,394974	0
15.01.2021	03:21:27	0	0	3,163741	2,376	40,2444	-0,845	77,605	0	1009,38	5,2	7,4	7,2	1	1	1	1	1	1	1	1	1	0	1	-61,592671	272,618465	251,59462	0
15.01.2021	03:21:28	0	0	3,841685	2,18475	28,3572	-0,839	77,628	0	1009,38	5,2	7,4	7,2	1	1	1	1	1	1	1	1	1	0	1	-62,015504	272,62261	251,190835	0
15.01.2021	03:21:29	0	0	2,711778	2,15925	43,29	-0,842	77,63	0	1009,42	5	7,4	7,2	1	1	1	1	1	1	1	1	1	0	1	-67,019027	272,665494	246,384428	0
15.01.2021	03:21:30	0	0	4,406639	2,22525	25,8012	-0,842	77,615	0	1009,32	5,2	7,4	7,2	1	1	1	1	1	1	1	1	1	0	1	-65,961945	272,588096	247,085817	0
15.01.2021	03:21:31	0	0	3,276731	2,28225	29,0988	-0,836	77,612	0	1009,48	5	7,4	7,2	1	1	1	1	1	1	1	1	1	0	1	-62,438337	272,515132	250,274386	0
15.01.2021	03:21:32	0	0	4,745611	2,1825	33,2496	-0,839	77,606	0	1009,42	5	7,4	7,2	1	1	1	1	1	1	1	1	1	0	1	-63,565891	272,491788	249,039693	0
15.01.2021	03:21:33	0	0	3,502713	2,1765	34,344	-0,832	77,61	0	1009,44	5	7,4	7,2	1	1	1	1	1	1	1	1	1	0	1	-60,535588	272,653033	252,810584	0
15.01.2021	03:21:34	0	0	2,598787	2,23275	32,5044	-0,836	77,604	0	1009,48	5	7,4	7,2	1	1	1	1	1	1	1	1	1	0	1	-63,706836	272,65857	249,66479	0
15.01.2021	03:21:35	0	0	4,858602	2,21175	32,4936	-0,835	77,605	0	1009,58	5	7,4	7,2	1	1	1	1	1	1	1	1	1	0	1	-60,042283	272,611559	253,113273	0
15.01.2021	03:21:36	0	0	4,519629	2,14725	26,6292	-0,835	77,593	0	1009,4	5	7,4	7,2	1	1	1	1	1	1	1	1	1	0	1	-64,341085	272,654418	249,01145	0
15.01.2021	03:21:37	0	0	4,406639	1,9845	35,478	-0,837	77,598	0	1009,38	5	7,4	7,2	1	1	1	1	1	1	1	1	1	0	1	-64,693446	272,511011	248,000359	0
15.01.2021	03:21:38	0	0	2,711778	1,91025	33,2568	-0,836	77,592	0	1009,42	5	7,4	7,2	1	1	1	1	1	1	1	1	1	0	1	-63,354475	272,666878	250,055348	0
15.01.2021	03:21:39	0	0	4,406639	1,96275	37,3248	-0,838	77,588	0	1009,36	5,2	7,4	7,2	1	1	1	1	1	1	1	1	1	0	1	-57,857646	272,515132	254,855077	0
15.01.2021	03:21:40	0	0	3,954676	1,974	29,9484	-0,834	77,592	0	1009,48	5,2	7,4	7,2	1	1	1	1	1	1	1	1	1	0	1	-65,46864	272,662724	247,922082	0
15.01.2021	03:21:41	0	0	4,858602	1,9455	29,9412	-0,835	77,587	0	1009,3	5	7,4	7,2	1	1	1	1	1	1	1	1	1	0	1	-64,270613	272,586717	248,770813	0
15.01.2021	03:21:42	0	0	2,937759	1,92525	32,8788	-0,832	77,589	0	1009,44	5,2	7,3	7,2	1	1	1	1	1	1	1	1	1	0	1	-62,720226	272,483555	249,847583	0
15.01.2021	03:21:43	0	0	2,598787	1,85325	34,7904	-0,837	77,574	0	1009,32	5	7,4	7,2	1	1	1	1	1	1	1	1	1	0	1	-63,777308	272,67519	249,670732	0
15.01.2021	03:21:44	0	0	3,163741	1,8705	37,3356	-0,837	77,567	0	1009,42	5,2	7,3	7,2	1	1	1	1	1	1	1	1	1	0	1	-64,552502	272,593614	248,52061	0
15.01.2021	03:21:45	0	0	3,615704	1,94475	35,1	-0,838	77,578	0	1009,46	5	7,4	7,2	1	1	1	1	1	1	1	1	1	0	1	-62,22692	272,480812	250,328301	0
15.01.2021	03:21:46	0	0	4,745611	1,95525	34,3368	-0,833	77,575	0	1009,4	5,2	7,3	7,2	1	1	1	1	1	1	1	1	1	0	1	-65,398168	272,619846	247,795472	0
15.01.2021	03:21:47	0	0	4,858602	1,9875	31,41	-0,831	77,564	0	1009,4	5	7,4	7,2	1	1	1	1	1	1	1	1	1	0	1	-64,622974	272,640582	248,665961	0
15.01.2021	03:21:48	0	0	5,197574	1,923	32,5044	-0,838	77,564	0	1009,46	5,2	7,4	7,2	1	1	1	1	1	1	1	1	1	0	1	-61,451727	272,489043	251,141264	0
15.01.2021	03:21:49	0	0	4,745611	1,9215	33,948	-0,833	77,563	0	1009,36	5	7,3	7,2	1	1	1	1	1	1	1	1	1	0	1	-63,84778	272,610178	249,301431	0
15.01.2021	03:21:50	0	0	4,858602	1,87725	30,3372	-0,839	77,546	0	1009,44	5,1	7,4	7,2	1	1	1	1	1	1	1	1	1	0	1	-61,733615	272,650266	251,599834	0
15.01.2021	03:21:51	0	0	4,406639	2,0205	27,666	-0,836	77,551	0	1009,42	5	7,3	7,2	1	1	1	1	1	1	1	1	1	0	1	-65,327696	272,570174	247,637744	0
15.01.2021	03:21:52	0	0	2,372805	2,1105	20,6352	-0,834	77,565	0	1009,42	5	7,3	7,2	1	1	1	1	1	1	1	1	1	0	1	-60,887949	272,623992	252,32474	0
15.01.2021	03:21:53	0	0	4,519629	2,133	24,3396	-0,836	77,56	0	1009,46	5,2	7,4	7,2	1	1	1	1	1	1	1	1	1	0	1	-63,002114	272,666878	250,407709	0
15.01.2021	03:21:54	0	0	3,163741	2,241	34,7076	-0,836	77,539	0	1009,44	5,2	7,4	7,2	1	1	1	1	1	1	1	1	1	0	1	-60,535588	272,527503	252,233919	0
15.01.2021	03:21:55	0	0	2,824768	2,48025	32,1516	-0,833	77,544	0	1009,28	5,2	7,3	7,2	1	1	1	1	1	1	1	1	1	0	1	-61,87456	272,657186	251,490702	0
15.01.2021	03:21:56	0	0	3,728694	3,1155	36,9288	-0,834	77,557	0	1009,46	5	7,3	7,2	1	1	1	1	1	1	1	1	1	0	1	-64,129669	272,637816	249,146553	0
15.01.2021	03:21:57	0	0	4,519629	3,60525	45,1512	-0,833	77,555	0	1009,54	5,2	7,4	7,2	1	1	1	1	1	1	1	1	1	0	1	-58,350951	272,556398	254,551226	0
15.01.2021	03:21:58	0	0	2,937759	3,798	29,9628	-0,839	77,546	0	1009,34	5	7,3	7,2	1	1	1	1	1	1	1	1	1	0	1	-62,367865	272,65857	251,003761	0
15.01.2021	03:21:59	0	0	2,824768	3,84675	51,7464	-0,837	77,553	0	1009,2	5,2	7,4	7,2	1	1	1	1	1	1	1	1	1	0	1	-62,367865	272,65857	251,003761	0
15.01.2021	03:22:00	0	0	3,502713	3,606	32,2488	-0,841	77,526	0	1009,46	5,2	7,3	7,2	1	1	1	1	1	1	1	1	1	0	1	-63,565891	272,49316	249,045991	0
15.01.2021	03:22:01	0	0	3,502713	3,606	32,2488	-0,841	77,526	0	1009,46	5,2	7,3	7,2	1	1	1	1	1	1	1	1	1	0	1	-63,565891	272,49316	249,045991	0
15.01.2021	03:22:02	0	0	3,05075	3,43575	22,8528	-0,834	77,548	0	1009,42	5,1	7,4	7,2	1	1	1	1	1	1	1	1	1	0	1	-63,918252	272,61294	249,24365	0
15.01.2021	03:22:03	0	0	3,05075	3,40725	15,4152	-0,839	77,55	0	1009,38	5	7,3	7,2	1	1	1	1	1	1	1	1	1	0	1	-59,901339	272,509637	252,786161	0
15.01.2021	03:22:04	0	0	4,067666	3,31125	13,5648	-0,835	77,549	0	1009,5	5,2	7,3	7,2	1	1	1	1	1	1	1	1	1	0	1	-62,649753	272,487671	249,936941	0
15.01.2021	03:22:05	0	0	3,276731	3,102	23,3136	-0,843	77,528	0	1009,4	5,2	7,3	7,2	1	1	1	1	1	1	1	1	1	0	1	-61,87456	272,559153	251,040266	0
15.01.2021	03:22:06	0	0	4,519629	2,98875	29,1168	-0,835	77,541	0	1009,34	5,2	7,4	7,2	1	1	1	1	1	1	1	1	1	0	1	-61,169838	272,491788	251,435747	0
15.01.2021	03:22:07	0	0	3,728694	2,66175	19,53	-0,834	77,535	0	1009,32	5,2	7,3	7,2	1	1	1	1	1	1	1	1	1	0	1	-60,747005	272,614321	252,421244	0
15.01.2021	03:22:08	0	0	4,067666	2,505	33,6384	-0,843	77,553	0	1009,56	5,2	7,4	7,2	1	1	1	1	1	1	1	1	1	0	1	-58,63284	272,653033	254,713333	0
15.01.2021	03:22:09	0	0	3,389722	2,30025	23,958	-0,838	77,542	0	1009,3	5,2	7,3	7,2	1	1	1	1	1	1	1	1	1	0	1	-60,2537	272,601894	252,857452	0
15.01.2021	03:22:10	0	0	2,711778	2,37975	36,6192	-0,836	77,52	0	1009,38	5,2	7,3	7,2	1	1	1	1	1	1	1	1	1	0	1	-61,592671	272,484927	250,981433	0
15.01.2021	03:22:11	0	0	2,824768	2,56875	29,1168	-0,842	77,542	0	1009,48	5,2	7,3	7,2	1	1	1	1	1	1	1	1	1	0	1	-66,173362	272,544009	246,671928	0
15.01.2021	03:22:12	0	0	3,163741	2,598	32,6016	-0,837	77,522	0	1009,34	5,2	7,4	7,2	1	1	1	1	1	1	1	1	1	0	1	-60,042283	272,614321	253,125965	0
15.01.2021	03:22:13	0	0	3,05075	2,778	23,9724	-0,835	77,526	0	1009,58	5,2	7,3	7,2	1	1	1	1	1	1	1	1	1	0	1	-61,24031	272,491788	251,365275	0
15.01.2021	03:22:14	0	0	3,389722	2,8845	21,0132	-0,838	77,529	0	1009,24	5,2	7,4	7,2	1	1	1	1	1	1	1	1	1	0	1	-59,901339	272,614321	253,26691	0
15.01.2021	03:22:15	0	0	3,615704	2,7735	12,474	-0,837	77,531	0	1009,46	5,2	7,3	7,2	1	1	1	1	1	1	1	1	1	0	1	-62,508809	272,673805	250,93286	0
15.01.2021	03:22:16	0	0	4,745611	2,679	31,9104	-0,836	77,536	0	1009,48	5,2	7,3	7,2	1	1	1	1	1	1	1	1	1	0	1	-59,196617	272,603274	253,920876	0
15.01.2021	03:22:17	0	0	3,502734	2,628	17,2512	-0,835	77,531	0	1009,52	5,1	7,3	7,1	1	1	1	1	1	1	1	1	1	0	1	-64,904863	272,650266	248,428587	0
15.01.2021	03:22:18	0	0	3,841685	2,47575	21,3948	-0,84	77,525	0	1009,38	5,1	7,3	7,2	1	1	1	1	1	1	1	1	1	0	1	-58,350951	272,505516	254,317637	0
15.01.2021	03:22:19	0	0	4,858602	2,2845	14,6592	-0,835	77,533	0	1009,44	5,2	7,3	7,2	1	1	1	1	1	1	1	1	1	0	1	-64,763918	272,491788	247,841666	0
15.01.2021	03:22:20	0	0	4,745611	2,292	26,892	-0,832	77,531	0	1009,44	5,2	7,4	7,2	1	1	1	1	1	1	1	1	1	0	1	-63,636364	272,666878	249,773459	0
15.01.2021	03:22:21	0	0	3,728694	2,31825	19,53	-0,841	77,532	0	1009,4	5,1	7,3	7,2	1	1	1	1	1	1	1	1	1	0	1	-63,143058	272,606035	249,98712	0
15.01.2021	03:22:22	0	0	3,05075	2,1645	23,2308	-0,833	77,54	0	1009,4	5,1	7,3	7,2	1	1	1	1	1	1	1	1	1	0	1	-63,284003	272,67519	250,164037	0
15.01.2021	03:22:23	0	0	4,180657	2,06325	25,0344	-0,838	77,54	0	1009,42	5,1	7,3	7,2	1	1	1	1	1	1	1	1	1	0	1	-61,87456	272,650266	251,45889	0
15.01.2021	03:22:24	0	0	3,502713	2,08575	32,004	-0,832	77,546	0	1009,48	5,2	7,3	7,2	1	1	1	1	1	1	1	1	1	0	1	-56,166314	272,653033	257,179858	0
15.01.2021	03:22:25	0	0	3,841708	2,1	35,0784	-0,835	77,541	0	1009,44	5,2	7,4	7,1	1	1	1	1	1	1	1	1	1	0	1	-67,582805	272,615702	245,591791	0
15.01.2021	03:22:26	0	0	3,050768	2,06775	34,7328	-0,835	77,546	0	1009,42	5,1	7,3	7,1	1	1	1	1	1	1	1	1	1	0	1	-57,787174	272,659955	255,590817	0
15.01.2021	03:22:27	0	0	3,276731	2,09475	43,6716	-0,833	77,54	0	1009,36	5,2	7,3	7,2	1	1	1	1	1	1	1	1	1	0	1	-61,028894	272,47944	251,520035	0
15.01.2021	03:22:28	0	0	3,728694	2,18325	46,2348	-0,834	77,547	0	1009,4	5,2	7,3	7,2	1	1	1	1	1	1	1	1	1	0	1	-60,535588	272,53713	252,278115	0
15.01.2021	03:22:29	0	0	2,485796	2,20275	32,5044	-0,835	77,541	0	1009,34	5,1	7,3	7,2	1	1	1	1	1	1	1	1	1	0	1	-58,844257	272,475326	253,685796	0
15.01.2021	03:22:30	0	0	3,615704	2,19825	32,5044	-0,836	77,543	0	1009,44	5,2	7,3	7,2	1	1	1	1	1	1	1	1	1	0	1	-63,002114	272,544009	249,843175	0
15.01.2021	03:22:31	0	0	2,824785	2,18925	35,8596	-0,833	77,532	0	1009,48	5,1	7,3	7,1	1	1	1	1	1	1	1	1	1	0	1	-58,844257	272,49316	253,767626	0
15.01.2021	03:22:32	0	0	3,276751	2,145	31,014	-0,834	77,545	0	1009,48	5,1	7,3	7,1	1	1	1	1	1	1	1	1	1	0	1	-59,055673	272,617083	254,12527	0
15.01.2021	03:22:33	0	0	5,084583	2,04675	36,9396	-0,835	77,568	0	1009,36	5,2	7,3	7,2	1	1	1	1	1	1	1	1	1	0	1	-63,84778	272,526128	248,915416	0
15.01.2021	03:22:34	0	0	4,745639	1,95375	35,5464	-0,839	77,552	0	1009,54	5,2	7,3	7,1	1	1	1	1	1	1	1	1	1	0	1	-64,270613	272,661339	249,113743	0
15.01.2021	03:22:35	0	0	3,276731	1,84275	34,7148	-0,839	77,521	0	1009,52	5,2	7,3	7,2	1	1	1	1	1	1	1	1	1	0	1	-58,773784	272,614321	254,394464	0
15.01.2021	03:22:36	0	0	3,05075	1,89675	34,3476	-0,835	77,536	0	1009,4	5,1	7,3	7,2	1	1	1	1	1	1	1	1	1	0	1	-61,099366	272,662724	252,291356	0
15.01.2021	03:22:37	0	0	2,711794	2,0835	38,0808	-0,831	77,541	0	1009,44	4,9	7,3	7,1	1	1	1	1	1	1	1	1	1	0	1	-58,280479	272,508263	254,400716	0
15.01.2021	03:22:38	0	0	4,180657	2,1285	32,5152	-0,832	77,54	0	1009,58	5,1	7,3	7,2	1	1	1	1	1	1	1	1	1	0	1	-61,663143	272,606035	251,467036	0
15.01.2021	03:22:39	0	0	2,937777	2,25	36,9396	-0,834	77,528	0	1009,38	5,2	7,3	7,1	1	1	1	1	1	1	1	1	1	0	1	-61,381254	272,490416	251,218033	0
15.01.2021	03:22:40	0	0	3,615725	2,45775	38,8044	-0,837	77,502	0	1009,46	5,1	7,3	7,1	1	1	1	1	1	1	1	1	1	0	1	-60,817477	272,476698	251,718867	0
15.01.2021	03:22:41	0	0	3,728694	2,55825	36,954	-0,836	77,514	0	1009,4	5,1	7,3	7,2	1	1	1	1	1	1	1	1	1	0	1	-63,354475	272,528878	249,421345	0
15.01.2021	03:22:42	0	0	3,050768	2,5245	52,9488	-0,835	77,489	0	1009,26	4,9	7,3	7,1	1	1	1	1	1	1	1	1	1	0	1	-58,562368	272,50277	254,093615	0
15.01.2021	03:22:43	0	0	3,954699	2,4015	48,5208	-0,834	77,499	0	1009,48	5,1	7,3	7,1	1	1	1	1	1	1	1	1	1	0	1	-59,830867	272,526128	252,932329	0
15.01.2021	03:22:44	0	0	3,05075	2,22225	38,7936	-0,839	77,462	0	1009,64	5,1	7,3	7,2	1	1	1	1	1	1	1	1	1	0	1	-59,478506	272,648882	253,848583	0
15.01.2021	03:22:45	0	0	3,276731	2,08425	39,168	-0,834	77,483	0	1009,54	5,1	7,3	7,2	1	1	1	1	1	1	1	1	1	0	1	-63,777308	272,588096	249,270454	0
15.01.2021	03:22:46	0	0	3,841708	2,02725	29,9592	-0,834	77,464	0	1009,4	5,1	7,3	7,1	1	1	1	1	1	1	1	1	1	0	1	-61,169838	272,533003	251,624921	0
15.01.2021	03:22:47	0	0	3,050768	2,151	42,6096	-0,838	77,471	0	1009,44	5,1	7,3	7,1	1	1	1	1	1	1	1	1	1	0	1	-56,589147	272,483555	255,978662	0
15.01.2021	03:22:48	0	0	2,937759	2,2215	26,1864	-0,835	77,471	0	1009,42	5,1	7,3	7,2	1	1	1	1	1	1	1	1	1	0	1	-61,451727	272,571552	251,520042	0
15.01.2021	03:22:49	0	0	3,050768	2,1855	21,7872	-0,833	77,456	0	1009,38	5,1	7,3	7,1	1	1	1	1	1	1	1	1	1	0	1	-60,676533	272,63505	252,586978	0
15.01.2021	03:22:50	0	0	3,502734	2,15025	19,5408	-0,838	77,46	0	1009,52	5,2	7,3	7,1	1	1	1	1	1	1	1	1	1	0	1	-59,408034	272,478069	253,134602	0
15.01.2021	03:22:51	0	0	5,084614	2,0535	28,368	-0,833	77,468	0	1009,58	5,1	7,3	7,1	1	1	1	1	1	1	1	1	1	0	1	-58,844257	272,542633	253,994715	0
15.01.2021	03:22:52	0	0	3,954699	1,99725	23,5908	-0,833	77,452	0	1009,52	5,1	7,3	7,1	1	1	1	1	1	1	1	1	1	0	1	-59,267089	272,491788	253,338495	0
15.01.2021	03:22:53	0	0	4,406665	1,94475	29,1096	-0,835	77,447	0	1009,48	5,1	7,3	7,1	1	1	1	1	1	1	1	1	1	0	1	-63,213531	272,617083	249,967412	0
15.01.2021	03:22:54	0	0	4,858631	1,86225	23,9976	-0,84	77,435	0	1009,5	5,2	7,3	7,1	1	1	1	1	1	1	1	1	1	0	1	-59,61945	272,535754	253,187938	0
15.01.2021	03:22:55	0	0	3,615725	1,848	19,8972	-0,841	77,441	0	1009,44	5,1	7,3	7,1	1	1	1	1	1	1	1	1	1	0	1	-62,931642	272,647498	250,389086	0
15.01.2021	03:22:56	0	0	4,180682	1,78125	21,0276	-0,845	77,449	0	1009,42	5,1	7,3	7,1	1	1	1	1	1	1	1	1	1	0	1	-59,971811	272,578443	253,031612	0
15.01.2021	03:22:57	0	0	4,293674	1,7775	25,0416	-0,843	77,44	0	1009,42	5,1	7,3	7,1	1	1	1	1	1	1	1	1	1	0	1	-55,813953	272,476698	256,722391	0
15.01.2021	03:22:58	0	0	3,050768	1,8135	24,7356	-0,829	77,44	0	1009,46	5,1	7,3	7,1	1	1	1	1	1	1	1	1	1	0	1	-56,166314	272,504143	256,495971	0
15.01.2021	03:22:59	0	0	4,180657	1,806	35,496	-0,842	77,449	0	1009,48	5,1	7,3	7,2	1	1	1	1	1	1	1	1	1	0	1	-56,941508	272,478069	255,601128	0
15.01.2021	03:23:00	0	0	4,519656	1,81725	31,014	-0,84	77,434	0	1009,34	5,1	7,3	7,1	1	1	1	1	1	1	1	1	1	0	1	-60,183228	272,578443	252,820195	0
15.01.2021	03:23:01	0	0	4,519656	1,81725	31,014	-0,84	77,434	0	1009,34	5,1	7,3	7,1	1	1	1	1	1	1	1	1	1	0	1	-60,183228	272,578443	252,820195	0
15.01.2021	03:23:02	0	0	4,067691	1,92525	38,412	-0,838	77,448	0	1009,36	5,1	7,3	7,1	1	1	1	1	1	1	1	1	1	0	1	-61,169838	272,648882	252,157251	0
15.01.2021	03:23:03	0	0	2,937777	2,11575	35,0928	-0,837	77,448	0	1009,42	5,1	7,3	7,1	1	1	1	1	1	1	1	1	1	0	1	-56,448203	272,515132	256,26452	0
15.01.2021	03:23:04	0	0	3,276751	2,19975	37,314	-0,84	77,453	0	1009,46	5,1	7,3	7,1	1	1	1	1	1	1	1	1	1	0	1	-59,830867	272,473955	252,692895	0
15.01.2021	03:23:05	0	0	3,16376	2,12175	30,7152	-0,834	77,451	0	1009,5	5,1	7,3	7,1	1	1	1	1	1	1	1	1	1	0	1	-58,63284	272,500024	254,01054	0
15.01.2021	03:23:06	0	0	4,180682	2,031	29,5812	-0,842	77,423	0	1009,22	5,2	7,3	7,1	1	1	1	1	1	1	1	1	1	0	1	-59,478506	272,608797	253,664361	0
15.01.2021	03:23:07	0	0	2,711794	2,0085	27,99	-0,838	77,449	0	1009,56	5,1	7,3	7,1	1	1	1	1	1	1	1	1	1	0	1	-60,887949	272,641965	252,407344	0
15.01.2021	03:23:08	0	0	2,937777	2,049	23,2416	-0,835	77,446	0	1009,54	5,1	7,3	7,1	1	1	1	1	1	1	1	1	1	0	1	-60,747005	272,592234	252,319768	0
15.01.2021	03:23:09	0	0	4,293674	2,08275	25,4232	-0,838	77,44	0	1009,6	5,1	7,3	7,1	1	1	1	1	1	1	1	1	1	0	1	-60,535588	272,47944	252,01334	0
15.01.2021	03:23:10	0	0	4,632648	2,19675	27,9792	-0,837	77,448	0	1009,44	5,1	7,3	7,1	1	1	1	1	1	1	1	1	1	0	1	-63,002114	272,614321	250,166135	0
15.01.2021	03:23:11	0	0	2,937759	2,16675	33,2712	-0,844	77,438	0	1009,26	5,1	7,3	7,2	1	1	1	1	1	1	1	1	1	0	1	-62,015504	272,63505	251,248007	0
15.01.2021	03:23:12	0	0	3,728717	2,04075	31,4136	-0,841	77,433	0	1009,44	5,1	7,3	7,1	1	1	1	1	1	1	1	1	1	0	1	-60,958421	272,637816	252,317801	0
15.01.2021	03:23:13	0	0	3,16376	2,13	39,1716	-0,838	77,438	0	1009,54	5,2	7,3	7,1	1	1	1	1	1	1	1	1	1	0	1	-57,787174	272,617083	255,393769	0
15.01.2021	03:23:14	0	0	4,067691	2,20725	31,7916	-0,84	77,419	0	1009,52	5,1	7,3	7,1	1	1	1	1	1	1	1	1	1	0	1	-60,112755	272,623992	253,099933	0
15.01.2021	03:23:15	0	0	4,745639	2,214	25,0308	-0,839	77,438	0	1009,48	5,1	7,3	7,1	1	1	1	1	1	1	1	1	1	0	1	-60,606061	272,57293	252,372038	0
15.01.2021	03:23:16	0	0	3,502734	2,16375	31,0284	-0,836	77,436	0	1009,52	5,1	7,3	7,1	1	1	1	1	1	1	1	1	1	0	1	-59,126145	272,472584	253,391327	0
15.01.2021	03:23:17	0	0	4,519656	2,13225	22,086	-0,836	77,425	0	1009,38	5,1	7,3	7,1	1	1	1	1	1	1	1	1	1	0	1	-60,747005	272,522004	251,997259	0
15.01.2021	03:23:18	0	0	3,502734	2,169	36,2448	-0,838	77,428	0	1009,52	5,1	7,3	7,1	1	1	1	1	1	1	1	1	1	0	1	-58,562368	272,473955	253,961394	0
15.01.2021	03:23:19	0	0	2,485811	2,1165	31,0212	-0,837	77,419	0	1009,3	5,1	7,3	7,1	1	1	1	1	1	1	1	1	1	0	1	-60,183228	272,604655	252,940608	0
15.01.2021	03:23:20	0	0	4,632648	2,16225	27,9648	-0,838	77,427	0	1009,42	5,1	7,3	7,1	1	1	1	1	1	1	1	1	1	0	1	-61,945032	272,473955	250,57873	0
15.01.2021	03:23:21	0	0	3,276751	2,2905	46,2384	-0,838	77,424	0	1009,42	5,1	7,3	7,1	1	1	1	1	1	1	1	1	1	0	1	-57,787174	272,478069	254,755462	0
15.01.2021	03:23:22	0	0	3,728694	2,4195	46,6884	-0,837	77,413	0	1009,5	5,1	7,3	7,2	1	1	1	1	1	1	1	1	1	0	1	-60,324172	272,639199	252,958406	0
15.01.2021	03:23:23	0	0	2,937777	2,3685	47,3616	-0,835	77,42	0	1009,52	5,1	7,3	7,1	1	1	1	1	1	1	1	1	1	0	1	-61,945032	272,473955	250,57873	0
15.01.2021	03:23:24	0	0	3,728717	2,31675	47,7288	-0,838	77,416	0	1009,62	5,1	7,3	7,1	1	1	1	1	1	1	1	1	1	0	1	-57,787174	272,555021	255,108681	0
15.01.2021	03:23:25	0	0	4,858631	2,28	27,6732	-0,837	77,417	0	1009,46	5,1	7,3	7,1	1	1	1	1	1	1	1	1	1	0	1	-59,548978	272,641965	253,746315	0
15.01.2021	03:23:26	0	0	4,293674	2,28375	42,5916	-0,841	77,419	0	1009,5	5,1	7,3	7,1	1	1	1	1	1	1	1	1	1	0	1	-57,64623	272,46436	254,833512	0
15.01.2021	03:23:27	0	0	3,389722	2,22975	36,918	-0,843	77,418	0	1009,3	5,1	7,3	7,2	1	1	1	1	1	1	1	1	1	0	1	-58,844257	272,577065	254,152835	0
15.01.2021	03:23:28	0	0	4,067691	2,07525	23,9796	-0,839	77,414	0	1009,5	5,1	7,3	7,1	1	1	1	1	1	1	1	1	1	0	1	-57,928118	272,46436	254,551624	0
15.01.2021	03:23:29	0	0	3,954699	2,06325	31,7736	-0,838	77,418	0	1009,52	5,1	7,3	7,1	1	1	1	1	1	1	1	1	1	0	1	-57,434813	272,545385	255,416795	0
15.01.2021	03:23:30	0	0	3,16376	2,118	32,8932	-0,84	77,416	0	1009,5	5,1	7,3	7,1	1	1	1	1	1	1	1	1	1	0	1	-57,223397	272,639199	256,059182	0
15.01.2021	03:23:31	0	0	3,050768	2,166	24,3468	-0,839	77,412	0	1009,46	5,1	7,3	7,1	1	1	1	1	1	1	1	1	1	0	1	-59,478506	272,482184	253,083009	0
15.01.2021	03:23:32	0	0	4,971592	2,1795	36,936	-0,841	77,414	0	1009,52	5,1	7,3	7,2	1	1	1	1	1	1	1	1	1	0	1	-56,448203	272,581201	256,567886	0
15.01.2021	03:23:33	0	0	3,954699	2,13825	29,106	-0,842	77,399	0	1009,52	5,1	7,3	7,1	1	1	1	1	1	1	1	1	1	0	1	-61,24031	272,472584	251,277162	0
15.01.2021	03:23:34	0	0	3,841708	1,956	32,5116	-0,842	77,412	0	1009,46	5,1	7,3	7,1	1	1	1	1	1	1	1	1	1	0	1	-58,844257	272,611559	254,3113	0
15.01.2021	03:23:35	0	0	3,841708	1,89075	36,9288	-0,84	77,415	0	1009,42	5,1	7,3	7,1	1	1	1	1	1	1	1	1	1	0	1	-61,663143	272,528878	251,112676	0
15.01.2021	03:23:36	0	0	4,745639	1,90275	24,3468	-0,844	77,409	0	1009,38	5,1	7,3	7,1	1	1	1	1	1	1	1	1	1	0	1	-60,2537	272,646115	253,060669	0
15.01.2021	03:23:37	0	0	4,632648	1,827	47,8332	-0,846	77,414	0	1009,42	5,1	7,3	7,1	1	1	1	1	1	1	1	1	1	0	1	-58,844257	272,555021	254,051598	0
15.01.2021	03:23:38	0	0	3,05075	1,8735	14,6556	-0,849	77,396	0	1009,42	5,1	7,3	7,2	1	1	1	1	1	1	1	1	1	0	1	-60,817477	272,644731	252,490532	0
15.01.2021	03:23:39	0	0	3,05075	2,02575	39,546	-0,846	77,4	0	1009,44	5,1	7,4	7,2	1	1	1	1	1	1	1	1	1	0	1	-63,84778	272,571552	249,123989	0
15.01.2021	03:23:40	0	0	4,858602	2,06325	32,1588	-0,842	77,388	0	1009,36	5,1	7,3	7,2	1	1	1	1	1	1	1	1	1	0	1	-60,2537	272,643348	253,047951	0
15.01.2021	03:23:41	0	0	2,598802	2,058	34,3512	-0,84	77,395	0	1009,48	5,1	7,3	7,1	1	1	1	1	1	1	1	1	1	0	1	-60,747005	272,570174	252,218435	0
15.01.2021	03:23:42	0	0	4,632648	2,127	22,4676	-0,842	77,392	0	1009,44	5,1	7,3	7,1	1	1	1	1	1	1	1	1	1	0	1	-60,958421	272,65165	252,381389	0
15.01.2021	03:23:43	0	0	3,05075	2,169	36,6192	-0,848	77,38	0	1009,16	5,1	7,3	7,2	1	1	1	1	1	1	1	1	1	0	1	-59,055673	272,489043	253,537317	0
15.01.2021	03:23:44	0	0	4,858631	2,19525	24,7392	-0,851	77,391	0	1009,4	5,1	7,3	7,1	1	1	1	1	1	1	1	1	1	0	1	-56,659619	272,478069	255,883017	0
15.01.2021	03:23:45	0	0	5,310596	2,16825	35,1072	-0,85	77,388	0	1009,42	5,1	7,3	7,1	1	1	1	1	1	1	1	1	1	0	1	-59,901339	272,607416	253,235183	0
15.01.2021	03:23:46	0	0	3,502713	2,1165	16,8624	-0,846	77,381	0	1009,46	5,1	7,3	7,2	1	1	1	1	1	1	1	1	1	0	1	-62,649753	272,599134	250,448716	0
15.01.2021	03:23:47	0	0	5,084614	2,12625	30,312	-0,848	77,387	0	1009,5	5,1	7,3	7,1	1	1	1	1	1	1	1	1	1	0	1	-59,337562	272,621228	253,862427	0
15.01.2021	03:23:48	0	0	4,632648	2,15025	21,4128	-0,851	77,431	0	1009,74	5,1	7,3	7,1	1	1	1	1	1	1	1	1	1	0	1	-58,421424	272,632285	254,829379	0
15.01.2021	03:23:49	0	0	5,197605	2,31975	35,8632	-0,841	77,395	0	1009,38	5,1	7,3	7,1	1	1	1	1	1	1	1	1	1	0	1	-59,196617	272,618465	253,990674	0
15.01.2021	03:23:50	0	0	4,858631	2,33475	13,5468	-0,847	77,392	0	1009,38	5,1	7,3	7,1	1	1	1	1	1	1	1	1	1	0	1	-59,408034	272,603274	253,709459	0
15.01.2021	03:23:51	0	0	3,389722	2,244	25,038	-0,842	77,404	0	1009,48	5,1	7,3	7,2	1	1	1	1	1	1	1	1	1	0	1	-61,169838	272,473955	251,353924	0
15.01.2021	03:23:52	0	0	3,728717	2,16525	20,3004	-0,855	77,38	0	1009,42	5,1	7,3	7,1	1	1	1	1	1	1	1	1	1	0	1	-56,307259	272,611559	256,848298	0
15.01.2021	03:23:53	0	0	5,084614	2,14275	34,7112	-0,843	77,394	0	1009,6	5,1	7,3	7,1	1	1	1	1	1	1	1	1	1	0	1	-59,055673	272,450661	253,36123	0
15.01.2021	03:23:54	0	0	4,858631	2,1345	27,6588	-0,851	77,396	0	1009,42	5,1	7,3	7,1	1	1	1	1	1	1	1	1	1	0	1	-59,478506	272,57293	253,499593	0
15.01.2021	03:23:55	0	0	4,180682	2,1585	30,3264	-0,84	77,407	0	1009,5	5,1	7,3	7,1	1	1	1	1	1	1	1	1	1	0	1	-62,438337	272,467101	250,05398	0
15.01.2021	03:23:56	0	0	3,163741	2,15775	25,02	-0,849	77,394	0	1009,32	5,1	7,3	7,2	1	1	1	1	1	1	1	1	1	0	1	-58,210007	272,495905	254,414473	0
15.01.2021	03:23:57	0	0	3,16376	2,00175	18,4608	-0,846	77,402	0	1009,48	5,1	7,3	7,1	1	1	1	1	1	1	1	1	1	0	1	-60,817477	272,639199	252,465101	0
15.01.2021	03:23:58	0	0	3,615725	2,031	24,7356	-0,85	77,4	0	1009,48	5,1	7,3	7,1	1	1	1	1	1	1	1	1	1	0	1	-57,505285	272,494533	255,112895	0
15.01.2021	03:23:59	0	0	4,293648	2,01525	33,6456	-0,849	77,4	0	1009,3	5,1	7,3	7,2	1	1	1	1	1	1	1	1	1	0	1	-59,830867	272,601894	253,280285	0
15.01.2021	03:24:00	0	0	3,841708	1,9695	18,4536	-0,843	77,414	0	1009,42	5,1	7,3	7,1	1	1	1	1	1	1	1	1	1	0	1	-60,183228	272,550891	252,693661	0
15.01.2021	03:24:01	0	0	3,841708	1,9695	18,4536	-0,843	77,414	0	1009,42	5,1	7,3	7,1	1	1	1	1	1	1	1	1	1	0	1	-60,183228	272,550891	252,693661	0
15.01.2021	03:24:02	0	0	3,841685	1,944	27,9756	-0,844	77,397	0	1009,34	5,1	7,3	7,2	1	1	1	1	1	1	1	1	1	0	1	-58,139535	272,62952	255,098561	0
15.01.2021	03:24:03	0	0	4,293674	1,90125	32,508	-0,848	77,407	0	1009,38	5,1	7,3	7,1	1	1	1	1	1	1	1	1	1	0	1	-56,307259	272,504143	256,355027	0
15.01.2021	03:24:04	0	0	3,276751	1,91775	22,464	-0,85	77,418	0	1009,46	5,1	7,3	7,1	1	1	1	1	1	1	1	1	1	0	1	-53,770261	272,621228	259,429728	0
15.01.2021	03:24:05	0	0	3,276751	1,9635	21,0168	-0,85	77,417	0	1009,42	5,1	7,3	7,1	1	1	1	1	1	1	1	1	1	0	1	-57,152925	272,585338	255,882167	0
15.01.2021	03:24:06	0	0	3,389722	1,9905	23,6016	-0,849	77,42	0	1009,5	5,1	7,3	7,2	1	1	1	1	1	1	1	1	1	0	1	-59,548978	272,628138	253,682765	0
15.01.2021	03:24:07	0	0	3,389722	1,89975	16,5024	-0,844	77,425	0	1009,48	5,1	7,3	7,2	1	1	1	1	1	1	1	1	1	0	1	-56,095842	272,515132	256,616881	0
15.01.2021	03:24:08	0	0	2,937777	1,8825	24,75	-0,844	77,421	0	1009,58	5,1	7,3	7,1	1	1	1	1	1	1	1	1	1	0	1	-55,954898	272,611559	257,200659	0
15.01.2021	03:24:09	0	0	4,519656	1,91625	27,2844	-0,85	77,425	0	1009,5	5,1	7,3	7,1	1	1	1	1	1	1	1	1	1	0	1	-58,63284	272,630902	254,611608	0
15.01.2021	03:24:10	0	0	3,615725	1,84725	40,644	-0,854	77,426	0	1009,58	5,1	7,3	7,1	1	1	1	1	1	1	1	1	1	0	1	-55,250176	272,511011	257,443628	0
15.01.2021	03:24:11	0	0	3,276751	1,839	36,612	-0,848	77,414	0	1009,5	5,1	7,3	7,1	1	1	1	1	1	1	1	1	1	0	1	-57,787174	272,625374	255,431866	0
15.01.2021	03:24:12	0	0	3,728694	1,8765	34,3332	-0,85	77,44	0	1009,48	5,1	7,3	7,2	1	1	1	1	1	1	1	1	1	0	1	-57,575758	272,465731	254,910271	0
15.01.2021	03:24:13	0	0	5,084583	1,8795	39,186	-0,853	77,419	0	1009,36	5,1	7,3	7,2	1	1	1	1	1	1	1	1	1	0	1	-60,676533	272,544009	252,168757	0
15.01.2021	03:24:14	0	0	2,937759	1,9065	38,0664	-0,85	77,412	0	1009,54	5,1	7,3	7,2	1	1	1	1	1	1	1	1	1	0	1	-57,082452	272,650266	256,250997	0
15.01.2021	03:24:15	0	0	3,841685	1,82625	39,8736	-0,852	77,429	0	1009,46	5,1	7,3	7,2	1	1	1	1	1	1	1	1	1	0	1	-57,293869	272,555021	255,601986	0
15.01.2021	03:24:16	0	0	4,63262	1,788	16,1064	-0,856	77,419	0	1009,56	5,1	7,3	7,2	1	1	1	1	1	1	1	1	1	0	1	-56,307259	272,601894	256,803893	0
15.01.2021	03:24:17	0	0	2,824785	1,80525	28,746	-0,848	77,43	0	1009,52	5,1	7,3	7,1	1	1	1	1	1	1	1	1	1	0	1	-58,491896	272,619846	254,701744	0
15.01.2021	03:24:18	0	0	4,971592	1,8465	21,3948	-0,848	77,433	0	1009,48	5,1	7,3	7,2	1	1	1	1	1	1	1	1	1	0	1	-57,293869	272,535754	255,51352	0
15.01.2021	03:24:19	0	0	4,63262	1,83	35,1036	-0,852	77,419	0	1009,52	5,1	7,3	7,2	1	1	1	1	1	1	1	1	1	0	1	-60,112755	272,62261	253,093583	0
15.01.2021	03:24:20	0	0	4,745611	1,8225	17,712	-0,857	77,423	0	1009,36	5,1	7,3	7,2	1	1	1	1	1	1	1	1	1	0	1	-58,210007	272,56604	254,736448	0
15.01.2021	03:24:21	0	0	3,728694	1,734	22,8528	-0,848	77,435	0	1009,66	5,1	7,4	7,2	1	1	1	1	1	1	1	1	1	0	1	-58,421424	272,608797	254,721443	0
15.01.2021	03:24:22	0	0	4,519629	1,83075	30,7008	-0,857	77,413	0	1009,4	5,1	7,3	7,2	1	1	1	1	1	1	1	1	1	0	1	-62,508809	272,471213	250,002373	0
15.01.2021	03:24:23	0	0	4,519629	1,91475	36,2484	-0,856	77,419	0	1009,38	5,1	7,4	7,2	1	1	1	1	1	1	1	1	1	0	1	-58,562368	272,505516	254,10622	0
15.01.2021	03:24:24	0	0	4,858602	1,87275	27,9792	-0,852	77,424	0	1009,52	5,1	7,3	7,2	1	1	1	1	1	1	1	1	1	0	1	-54,968288	272,61294	258,193615	0
15.01.2021	03:24:25	0	0	2,937759	1,992	30,3264	-0,848	77,423	0	1009,56	5,1	7,4	7,2	1	1	1	1	1	1	1	1	1	0	1	-53,488372	272,512384	259,211738	0
15.01.2021	03:24:26	0	0	4,293674	2,13	31,3956	-0,851	77,43	0	1009,4	5,1	7,4	7,1	1	1	1	1	1	1	1	1	1	0	1	-59,760395	272,432867	252,574898	0
15.01.2021	03:24:27	0	0	3,954676	2,2635	39,1824	-0,853	77,422	0	1009,5	5,1	7,3	7,2	1	1	1	1	1	1	1	1	1	0	1	-56,307259	272,509637	256,380241	0
15.01.2021	03:24:28	0	0	3,502713	2,448	43,686	-0,852	77,422	0	1009,3	5,1	7,3	7,2	1	1	1	1	1	1	1	1	1	0	1	-57,575758	272,45477	254,859991	0
15.01.2021	03:24:29	0	0	2,824768	2,82375	3,042	-0,852	77,412	0	1009,58	5,1	7,3	7,2	1	1	1	1	1	1	1	1	1	0	1	-61,310782	272,500024	251,332598	0
15.01.2021	03:24:30	0	0	2,711778	2,883	32,166	-0,856	77,425	0	1009,4	5,1	7,3	7,2	1	1	1	1	1	1	1	1	1	0	1	-58,069063	272,625374	255,149977	0
15.01.2021	03:24:31	0	0	4,858602	2,71875	48,4776	-0,855	77,42	0	1009,38	5,1	7,4	7,2	1	1	1	1	1	1	1	1	1	0	1	-60,2537	272,61294	252,908203	0
15.01.2021	03:24:32	0	0	4,971592	2,61	46,6236	-0,855	77,404	0	1009,4	5,1	7,3	7,2	1	1	1	1	1	1	1	1	1	0	1	-56,518675	272,519255	256,212971	0
15.01.2021	03:24:33	0	0	3,615704	2,25	28,3788	-0,854	77,425	0	1009,4	5,1	7,3	7,2	1	1	1	1	1	1	1	1	1	0	1	-60,747005	272,45477	251,688744	0
15.01.2021	03:24:34	0	0	4,180657	2,085	16,1136	-0,856	77,412	0	1009,66	5,1	7,3	7,2	1	1	1	1	1	1	1	1	1	0	1	-56,02537	272,593614	257,047741	0
15.01.2021	03:24:35	0	0	3,050768	2,18025	19,152	-0,859	77,406	0	1009,38	5,1	7,4	7,1	1	1	1	1	1	1	1	1	1	0	1	-57,01198	272,611559	256,143576	0
15.01.2021	03:24:36	0	0	3,163741	2,12925	20,6568	-0,86	77,403	0	1009,46	5,1	7,4	7,2	1	1	1	1	1	1	1	1	1	0	1	-54,968288	272,483555	257,599521	0
15.01.2021	03:24:37	0	0	3,05075	2,0625	28,7352	-0,858	77,401	0	1009,44	5,1	7,3	7,2	1	1	1	1	1	1	1	1	1	0	1	-61,24031	272,604655	251,883526	0
15.01.2021	03:24:38	0	0	4,745639	2,0205	32,5152	-0,856	77,406	0	1009,48	5,1	7,3	7,1	1	1	1	1	1	1	1	1	1	0	1	-57,64623	272,617083	255,534713	0
15.01.2021	03:24:39	0	0	3,954676	2,00025	25,416	-0,856	77,408	0	1009,5	5,1	7,3	7,2	1	1	1	1	1	1	1	1	1	0	1	-56,941508	272,508263	255,739687	0
15.01.2021	03:24:40	0	0	3,502713	2,019	26,928	-0,852	77,402	0	1009,38	5,1	7,4	7,2	1	1	1	1	1	1	1	1	1	0	1	-56,095842	272,615702	257,078754	0
15.01.2021	03:24:41	0	0	3,389722	2,27625	23,5872	-0,864	77,394	0	1009,42	5,1	7,4	7,2	1	1	1	1	1	1	1	1	1	0	1	-58,350951	272,461619	254,116218	0
15.01.2021	03:24:42	0	0	4,406639	2,5125	34,362	-0,86	77,389	0	1009,58	5,1	7,3	7,2	1	1	1	1	1	1	1	1	1	0	1	-54,897815	272,45477	257,537933	0
15.01.2021	03:24:43	0	0	2,711778	2,76675	31,4136	-0,862	77,399	0	1009,38	5,1	7,3	7,2	1	1	1	1	1	1	1	1	1	0	1	-57,64623	272,460249	254,814655	0
15.01.2021	03:24:44	0	0	3,05075	3,0105	26,172	-0,856	77,407	0	1009,32	5,1	7,4	7,2	1	1	1	1	1	1	1	1	1	0	1	-59,055673	272,505516	253,612915	0
15.01.2021	03:24:45	0	0	2,711778	3,2985	22,8528	-0,859	77,406	0	1009,48	5,1	7,3	7,2	1	1	1	1	1	1	1	1	1	0	1	-59,971811	272,611559	253,183745	0
15.01.2021	03:24:46	0	0	4,63262	3,429	20,2968	-0,857	77,406	0	1009,46	5,1	7,3	7,2	1	1	1	1	1	1	1	1	1	0	1	-57,152925	272,630902	256,091524	0
15.01.2021	03:24:47	0	0	2,711778	3,14775	11,7288	-0,859	77,403	0	1009,42	5,1	7,4	7,2	1	1	1	1	1	1	1	1	1	0	1	-60,394644	272,608797	252,748222	0
15.01.2021	03:24:48	0	0	3,841685	2,886	48,1248	-0,86	77,403	0	1009,5	5,1	7,4	7,2	1	1	1	1	1	1	1	1	1	0	1	-56,800564	272,561907	256,126912	0
15.01.2021	03:24:49	0	0	2,598787	2,48325	24,3468	-0,859	77,41	0	1009,34	5,1	7,3	7,2	1	1	1	1	1	1	1	1	1	0	1	-53,840733	272,508263	258,840462	0
15.01.2021	03:24:50	0	0	2,937759	2,30925	31,4352	-0,858	77,391	0	1009,48	5,1	7,3	7,2	1	1	1	1	1	1	1	1	1	0	1	-57,505285	272,442446	254,87394	0
15.01.2021	03:24:51	0	0	2,937759	2,238	25,884	-0,861	77,395	0	1009,48	5,1	7,4	7,2	1	1	1	1	1	1	1	1	1	0	1	-54,615927	272,47944	257,933002	0
15.01.2021	03:24:52	0	0	4,406639	2,4045	35,0928	-0,858	77,396	0	1009,54	5,1	7,4	7,2	1	1	1	1	1	1	1	1	1	0	1	-55,813953	272,561907	257,113522	0
15.01.2021	03:24:53	0	0	3,728694	2,649	28,7316	-0,856	77,389	0	1009,52	5,1	7,3	7,2	1	1	1	1	1	1	1	1	1	0	1	-56,166314	272,607416	256,970208	0
15.01.2021	03:24:54	0	0	5,310565	2,769	48,8268	-0,863	77,392	0	1009,44	5,1	7,4	7,2	1	1	1	1	1	1	1	1	1	0	1	-53,4179	272,607416	259,718622	0
15.01.2021	03:24:55	0	0	3,05075	2,79375	35,8668	-0,859	77,403	0	1009,44	5,1	7,4	7,2	1	1	1	1	1	1	1	1	1	0	1	-55,673009	272,581201	257,34308	0
15.01.2021	03:24:56	0	0	4,293648	2,85075	54,1008	-0,86	77,394	0	1009,32	5,1	7,4	7,2	1	1	1	1	1	1	1	1	1	0	1	-54,263566	272,436972	258,090552	0
15.01.2021	03:24:57	0	0	4,406639	2,91	68,0004	-0,863	77,382	0	1009,5	5,1	7,4	7,2	1	1	1	1	1	1	1	1	1	0	1	-55,813953	272,555021	257,081901	0
15.01.2021	03:24:58	0	0	3,954676	2,88675	61,2972	-0,862	77,374	0	1009,54	5,1	7,3	7,2	1	1	1	1	1	1	1	1	1	0	1	-57,575758	272,623992	255,636931	0
15.01.2021	03:24:59	0	0	3,954676	2,532	29,574	-0,858	77,373	0	1009,46	5,1	7,4	7,2	1	1	1	1	1	1	1	1	1	0	1	-55,602537	272,579822	257,407219	0
15.01.2021	03:25:00	0	0	3,163741	1,97025	10,8324	-0,855	77,387	0	1009,42	5,1	7,3	7,2	1	1	1	1	1	1	1	1	1	0	1	-58,703312	272,607416	254,43321	0
15.01.2021	03:25:01	0	0	3,163741	1,97025	10,8324	-0,855	77,387	0	1009,42	5,1	7,3	7,2	1	1	1	1	1	1	1	1	1	0	1	-58,703312	272,607416	254,43321	0
15.01.2021	03:25:02	0	0	3,841685	2,01	19,1556	-0,861	77,374	0	1009,58	5,1	7,3	7,2	1	1	1	1	1	1	1	1	1	0	1	-54,122622	272,484927	258,451482	0
15.01.2021	03:25:03	0	0	5,310565	2,31	25,4304	-0,859	77,425	0	1009,38	5,1	7,3	7,2	1	1	1	1	1	1	1	1	1	0	1	-59,971811	272,457509	252,476504	0
15.01.2021	03:25:04	0	0	3,276731	2,51475	32,8608	-0,862	77,379	0	1009,5	5,1	7,4	7,2	1	1	1	1	1	1	1	1	1	0	1	-54,052149	272,47944	258,496779	0
15.01.2021	03:25:05	0	0	2,937759	2,4885	33,9696	-0,86	77,38	0	1009,56	5,1	7,4	7,2	1	1	1	1	1	1	1	1	1	0	1	-53,911205	272,456139	258,530827	0
15.01.2021	03:25:06	0	0	4,745611	2,412	37,4292	-0,863	77,367	0	1009,4	5,1	7,4	7,2	1	1	1	1	1	1	1	1	1	0	1	-56,871036	272,449292	255,539586	0
15.01.2021	03:25:07	0	0	3,163741	2,34075	35,1216	-0,863	77,366	0	1009,44	5,1	7,4	7,2	1	1	1	1	1	1	1	1	1	0	1	-56,236786	272,557775	256,671715	0
15.01.2021	03:25:08	0	0	4,519629	2,40075	48,8052	-0,86	77,381	0	1009,52	5,1	7,4	7,2	1	1	1	1	1	1	1	1	1	0	1	-56,941508	272,426027	255,362421	0
15.01.2021	03:25:09	0	0	3,728694	2,292	49,194	-0,873	77,369	0	1009,3	5,1	7,4	7,2	1	1	1	1	1	1	1	1	1	0	1	-57,857646	272,524753	254,899239	0
15.01.2021	03:25:10	0	0	3,389742	2,29425	57,7152	-0,866	77,371	0	1009,58	5,1	7,3	7,1	1	1	1	1	1	1	1	1	1	0	1	-55,250176	272,589475	257,803923	0
15.01.2021	03:25:11	0	0	3,841685	2,32425	21,7548	-0,862	77,365	0	1009,48	5,1	7,4	7,2	1	1	1	1	1	1	1	1	1	0	1	-59,126145	272,557775	253,782356	0
15.01.2021	03:25:12	0	0	2,937759	2,331	42,21	-0,862	77,359	0	1009,42	5,1	7,4	7,2	1	1	1	1	1	1	1	1	1	0	1	-57,152925	272,443815	255,232579	0
15.01.2021	03:25:13	0	0	4,293648	2,28	58,4892	-0,869	77,354	0	1009,52	5,1	7,4	7,2	1	1	1	1	1	1	1	1	1	0	1	-60,2537	272,495905	252,37078	0
15.01.2021	03:25:14	0	0	2,711778	2,1015	46,9728	-0,865	77,357	0	1009,42	5,1	7,4	7,2	1	1	1	1	1	1	1	1	1	0	1	-57,787174	272,445184	254,604608	0
15.01.2021	03:25:15	0	0	3,05075	1,87575	20,646	-0,864	77,357	0	1009,52	5,1	7,4	7,2	1	1	1	1	1	1	1	1	1	0	1	-59,61945	272,550891	253,257438	0
15.01.2021	03:25:16	0	0	4,971592	1,839	35,4744	-0,869	77,357	0	1009,44	5,1	7,3	7,2	1	1	1	1	1	1	1	1	1	0	1	-55,179704	272,421925	257,105413	0
15.01.2021	03:25:17	0	0	5,197574	1,90425	30,3192	-0,865	77,342	0	1009,44	5,1	7,4	7,2	1	1	1	1	1	1	1	1	1	0	1	-53,558844	272,511011	259,13496	0
15.01.2021	03:25:18	0	0	3,05075	1,90575	42,606	-0,865	77,363	0	1009,46	5,1	7,3	7,2	1	1	1	1	1	1	1	1	1	0	1	-58,139535	272,445184	254,252247	0
15.01.2021	03:25:19	0	0	2,937759	2,04075	39,888	-0,875	77,363	0	1009,48	5,1	7,3	7,2	1	1	1	1	1	1	1	1	1	0	1	-55,743481	272,504143	256,918804	0
15.01.2021	03:25:20	0	0	2,711778	2,15775	31,788	-0,872	77,357	0	1009,34	5,1	7,3	7,2	1	1	1	1	1	1	1	1	1	0	1	-62,367865	272,439709	249,998806	0
15.01.2021	03:25:21	0	0	4,406639	2,10375	30,3372	-0,872	77,361	0	1009,52	5,1	7,3	7,2	1	1	1	1	1	1	1	1	1	0	1	-57,857646	272,469843	254,647247	0
15.01.2021	03:25:22	0	0	4,180657	2,13525	24,3576	-0,867	77,361	0	1009,54	5,1	7,4	7,2	1	1	1	1	1	1	1	1	1	0	1	-55,884426	272,611559	257,271131	0
15.01.2021	03:25:23	0	0	2,824768	2,1015	31,392	-0,868	77,362	0	1009,58	5,1	7,4	7,2	1	1	1	1	1	1	1	1	1	0	1	-53,911205	272,456139	258,530827	0
15.01.2021	03:25:24	0	0	4,63262	2,073	31,032	-0,876	77,364	0	1009,38	5,1	7,4	7,2	1	1	1	1	1	1	1	1	1	0	1	-59,548978	272,441077	252,823969	0
15.01.2021	03:25:25	0	0	2,824768	2,09325	26,5284	-0,87	77,38	0	1009,48	5,1	7,3	7,2	1	1	1	1	1	1	1	1	1	0	1	-59,337562	272,434235	253,004006	0
15.01.2021	03:25:26	0	0	3,05075	2,0475	29,5812	-0,87	77,395	0	1009,32	5,1	7,4	7,2	1	1	1	1	1	1	1	1	1	0	1	-55,179704	272,511011	257,514101	0
15.01.2021	03:25:27	0	0	4,406639	1,935	28,7316	-0,868	77,395	0	1009,54	5,1	7,4	7,2	1	1	1	1	1	1	1	1	1	0	1	-59,055673	272,443815	253,32983	0
15.01.2021	03:25:28	0	0	3,502713	1,88925	23,5944	-0,87	77,393	0	1009,5	5,1	7,4	7,2	1	1	1	1	1	1	1	1	1	0	1	-54,263566	272,457509	258,18475	0
15.01.2021	03:25:29	0	0	4,406639	1,89075	23,1984	-0,872	77,415	0	1009,46	5,1	7,4	7,2	1	1	1	1	1	1	1	1	1	0	1	-59,267089	272,632285	253,983713	0
15.01.2021	03:25:30	0	0	2,485796	1,96875	18,0828	-0,872	77,434	0	1009,38	5,1	7,4	7,2	1	1	1	1	1	1	1	1	1	0	1	-53,558844	272,515132	259,153879	0
15.01.2021	03:25:31	0	0	4,745611	1,95225	25,0416	-0,867	77,452	0	1009,48	5,1	7,4	7,2	1	1	1	1	1	1	1	1	1	0	1	-57,364341	272,441077	255,008606	0
15.01.2021	03:25:32	0	0	4,858602	1,97775	19,53	-0,866	77,476	0	1009,48	5,1	7,4	7,2	1	1	1	1	1	1	1	1	1	0	1	-59,971811	272,590855	253,088625	0
15.01.2021	03:25:33	0	0	3,728694	1,9305	21,3984	-0,866	77,48	0	1009,56	5,1	7,4	7,2	1	1	1	1	1	1	1	1	1	0	1	-55,391121	272,457509	257,057195	0
15.01.2021	03:25:34	0	0	5,084583	1,88025	25,8012	-0,872	77,478	0	1009,32	5,1	7,4	7,2	1	1	1	1	1	1	1	1	1	0	1	-55,461593	272,581201	257,554496	0
15.01.2021	03:25:35	0	0	3,389722	1,86675	24,3504	-0,861	77,491	0	1009,42	5,1	7,4	7,2	1	1	1	1	1	1	1	1	1	0	1	-62,649753	272,597754	250,442375	0
15.01.2021	03:25:36	0	0	4,858602	1,86525	15,8004	-0,862	77,497	0	1009,7	5,1	7,4	7,2	1	1	1	1	1	1	1	1	1	0	1	-52,43129	272,570174	260,53415	0
15.01.2021	03:25:37	0	0	3,389722	1,887	36,2376	-0,865	77,505	0	1009,68	5,1	7,4	7,2	1	1	1	1	1	1	1	1	1	0	1	-59,61945	272,434235	252,722117	0
15.01.2021	03:25:38	0	0	3,389722	1,98825	21,402	-0,868	77,509	0	1009,36	5,1	7,3	7,2	1	1	1	1	1	1	1	1	1	0	1	-59,61945	272,520629	253,118505	0
15.01.2021	03:25:39	0	0	4,293648	1,98825	31,482	-0,872	77,505	0	1009,52	5,1	7,4	7,2	1	1	1	1	1	1	1	1	1	0	1	-55,179704	272,628138	258,052039	0
15.01.2021	03:25:40	0	0	4,63262	1,97025	21,0348	-0,866	77,514	0	1009,48	5,1	7,4	7,2	1	1	1	1	1	1	1	1	1	0	1	-57,998591	272,590855	255,061845	0
15.01.2021	03:25:41	0	0	4,858631	2,01375	31,41	-0,874	77,513	0	1009,4	5,1	7,4	7,1	1	1	1	1	1	1	1	1	1	0	1	-57,293869	272,468472	255,204736	0
15.01.2021	03:25:42	0	0	5,310565	2,09025	21,402	-0,87	77,506	0	1009,5	5,1	7,3	7,2	1	1	1	1	1	1	1	1	1	0	1	-56,448203	272,436972	255,905915	0
15.01.2021	03:25:43	0	0	3,728694	2,1105	34,722	-0,869	77,514	0	1009,56	5,1	7,3	7,2	1	1	1	1	1	1	1	1	1	0	1	-60,535588	272,471213	251,975594	0
15.01.2021	03:25:44	0	0	3,954676	2,1525	40,2588	-0,866	77,521	0	1009,44	5,1	7,4	7,2	1	1	1	1	1	1	1	1	1	0	1	-58,491896	272,615702	254,6827	0
15.01.2021	03:25:45	0	0	4,293648	2,118	27,9864	-0,868	77,533	0	1009,52	5,1	7,4	7,2	1	1	1	1	1	1	1	1	1	0	1	-55,813953	272,471213	256,697229	0
15.01.2021	03:25:46	0	0	2,937759	2,15775	24,3468	-0,865	77,526	0	1009,54	5,1	7,4	7,2	1	1	1	1	1	1	1	1	1	0	1	-60,183228	272,57293	252,794871	0
15.01.2021	03:25:47	0	0	3,728694	2,0775	27,6732	-0,869	77,529	0	1009,5	5,1	7,4	7,2	1	1	1	1	1	1	1	1	1	0	1	-59,196617	272,617083	253,984326	0
15.01.2021	03:25:48	0	0	3,389722	1,98075	32,508	-0,87	77,511	0	1009,4	5,1	7,4	7,2	1	1	1	1	1	1	1	1	1	0	1	-57,505285	272,526128	255,25791	0
15.01.2021	03:25:49	0	0	3,728694	1,93575	22,086	-0,87	77,52	0	1009,46	5,1	7,4	7,2	1	1	1	1	1	1	1	1	1	0	1	-60,042283	272,460249	252,418601	0
15.01.2021	03:25:50	0	0	3,954676	1,90575	22,0752	-0,864	77,522	0	1009,54	5,1	7,4	7,2	1	1	1	1	1	1	1	1	1	0	1	-58,210007	272,585338	254,825084	0
15.01.2021	03:25:51	0	0	5,084583	2,02725	29,1168	-0,866	77,499	0	1009,48	5,1	7,4	7,2	1	1	1	1	1	1	1	1	1	0	1	-55,743481	272,621228	257,456508	0
15.01.2021	03:25:52	0	0	2,598787	2,1135	15,8004	-0,869	77,51	0	1009,34	5,1	7,4	7,2	1	1	1	1	1	1	1	1	1	0	1	-57,505285	272,487671	255,081409	0
15.01.2021	03:25:53	0	0	4,971592	2,20575	20,6424	-0,864	77,509	0	1009,32	5,1	7,4	7,2	1	1	1	1	1	1	1	1	1	0	1	-53,629316	272,478069	258,91332	0
15.01.2021	03:25:54	0	0	2,824768	2,24775	42,9192	-0,866	77,514	0	1009,46	5,1	7,4	7,2	1	1	1	1	1	1	1	1	1	0	1	-56,307259	272,446553	256,090803	0
15.01.2021	03:25:55	0	0	4,858602	2,1705	32,148	-0,867	77,523	0	1009,56	5,1	7,4	7,2	1	1	1	1	1	1	1	1	1	0	1	-57,152925	272,579822	255,856831	0
15.01.2021	03:25:56	0	0	4,63262	2,08725	41,004	-0,869	77,497	0	1009,36	5,2	7,4	7,2	1	1	1	1	1	1	1	1	1	0	1	-58,210007	272,619846	254,983633	0
15.01.2021	03:25:57	0	0	3,389722	1,9815	26,1972	-0,87	77,509	0	1009,4	5,1	7,4	7,2	1	1	1	1	1	1	1	1	1	0	1	-56,095842	272,509637	256,591658	0
15.01.2021	03:25:58	0	0	4,293648	1,85175	31,0176	-0,863	77,52	0	1009,48	5,1	7,4	7,2	1	1	1	1	1	1	1	1	1	0	1	-55,954898	272,45203	256,468286	0
15.01.2021	03:25:59	0	0	3,954676	1,761	20,2824	-0,871	77,506	0	1009,38	5,1	7,4	7,2	1	1	1	1	1	1	1	1	1	0	1	-54,615927	272,467101	257,87639	0
15.01.2021	03:26:00	0	0	3,728694	1,72275	24,7356	-0,868	77,52	0	1009,44	5,2	7,4	7,2	1	1	1	1	1	1	1	1	1	0	1	-53,276956	272,623992	259,935733	0
15.01.2021	03:26:01	0	0	3,728694	1,72275	24,7356	-0,868	77,52	0	1009,44	5,2	7,4	7,2	1	1	1	1	1	1	1	1	1	0	1	-53,276956	272,623992	259,935733	0
15.01.2021	03:26:02	0	0	3,163741	1,73775	25,4232	-0,86	77,508	0	1009,6	5,1	7,4	7,2	1	1	1	1	1	1	1	1	1	0	1	-59,61945	272,564662	253,320678	0
15.01.2021	03:26:03	0	0	3,728694	1,767	38,8008	-0,872	77,493	0	1009,4	5,1	7,4	7,2	1	1	1	1	1	1	1	1	1	0	1	-57,082452	272,626756	256,142939	0
15.01.2021	03:26:04	0	0	4,180657	1,6575	28,062	-0,869	77,501	0	1009,32	5,1	7,4	7,2	1	1	1	1	1	1	1	1	1	0	1	-57,998591	272,515132	254,714132	0
15.01.2021	03:26:05	0	0	4,63262	1,6095	11,2068	-0,872	77,502	0	1009,38	5,1	7,4	7,2	1	1	1	1	1	1	1	1	1	0	1	-59,055673	272,610178	254,093538	0
15.01.2021	03:26:06	0	0	4,519629	1,8165	20,6496	-0,866	77,518	0	1009,24	5,1	7,4	7,2	1	1	1	1	1	1	1	1	1	0	1	-57,64623	272,619846	255,54741	0
15.01.2021	03:26:07	0	0	4,858602	2,067	19,1592	-0,865	77,515	0	1009,64	5,2	7,4	7,2	1	1	1	1	1	1	1	1	1	0	1	-54,686399	272,505516	257,982189	0
15.01.2021	03:26:08	0	0	4,519629	2,1345	21,492	-0,864	77,51	0	1009,52	5,1	7,4	7,2	1	1	1	1	1	1	1	1	1	0	1	-55,461593	272,441077	256,911355	0
15.01.2021	03:26:09	0	0	4,180657	2,21775	20,2968	-0,86	77,511	0	1009,46	5,1	7,4	7,2	1	1	1	1	1	1	1	1	1	0	1	-55,673009	272,475326	256,857044	0
15.01.2021	03:26:10	0	0	4,519629	2,30925	25,0416	-0,866	77,512	0	1009,52	5,1	7,4	7,2	1	1	1	1	1	1	1	1	1	0	1	-54,263566	272,557775	258,644936	0
15.01.2021	03:26:11	0	0	3,615704	2,21625	29,1096	-0,869	77,5	0	1009,46	5,1	7,4	7,2	1	1	1	1	1	1	1	1	1	0	1	-58,844257	272,61294	254,317646	0
15.01.2021	03:26:12	0	0	4,971592	2,061	21,7728	-0,863	77,504	0	1009,48	5,1	7,4	7,2	1	1	1	1	1	1	1	1	1	0	1	-57,082452	272,504143	255,579833	0
15.01.2021	03:26:13	0	0	4,745611	2,00925	22,8384	-0,868	77,505	0	1009,28	5,1	7,4	7,2	1	1	1	1	1	1	1	1	1	0	1	-53,770261	272,435603	258,577582	0
15.01.2021	03:26:14	0	0	3,389722	2,0295	16,8768	-0,861	77,509	0	1009,36	5,2	7,4	7,2	1	1	1	1	1	1	1	1	1	0	1	-55,109232	272,564662	257,830896	0
15.01.2021	03:26:15	0	0	3,502713	2,02575	15,0408	-0,865	77,5	0	1009,46	5,1	7,4	7,2	1	1	1	1	1	1	1	1	1	0	1	-56,02537	272,614321	257,142879	0
15.01.2021	03:26:16	0	0	4,971592	1,99875	16,8516	-0,87	77,517	0	1009,48	5,1	7,4	7,2	1	1	1	1	1	1	1	1	1	0	1	-55,602537	272,570174	257,362903	0
15.01.2021	03:26:17	0	0	3,163741	2,0565	5,688	-0,86	77,515	0	1009,5	5,1	7,4	7,2	1	1	1	1	1	1	1	1	1	0	1	-46,441156	272,607416	266,695367	0
15.01.2021	03:26:18	0	0	3,615704	2,073	19,9152	-0,866	77,504	0	1009,54	5,1	7,4	7,2	1	1	1	1	1	1	1	1	1	0	1	-57,998591	272,599134	255,099879	0
15.01.2021	03:26:19	0	0	4,519629	1,96425	25,7868	-0,87	77,498	0	1009,44	5,1	7,4	7,2	1	1	1	1	1	1	1	1	1	0	1	-57,434813	272,495905	255,189667	0
15.01.2021	03:26:20	0	0	3,05075	1,836	26,9064	-0,866	77,513	0	1009,44	5,1	7,4	7,2	1	1	1	1	1	1	1	1	1	0	1	-52,501762	272,46436	259,97798	0
15.01.2021	03:26:21	0	0	2,824768	1,854	12,87	-0,871	77,515	0	1009,4	5,1	7,3	7,2	1	1	1	1	1	1	1	1	1	0	1	-52,360817	272,548138	260,50343	0
15.01.2021	03:26:22	0	0	3,05075	1,9365	23,6016	-0,865	77,521	0	1009,5	5,2	7,3	7,2	1	1	1	1	1	1	1	1	1	0	1	-59,901339	272,607416	253,235183	0
15.01.2021	03:26:23	0	0	2,372805	1,94175	19,9044	-0,868	77,518	0	1009,4	5,1	7,4	7,2	1	1	1	1	1	1	1	1	1	0	1	-55,954898	272,472584	256,562574	0
15.01.2021	03:26:24	0	0	5,310565	1,91325	21,4056	-0,865	77,503	0	1009,38	5,2	7,4	7,2	1	1	1	1	1	1	1	1	1	0	1	-51,303735	272,430131	261,019011	0
15.01.2021	03:26:25	0	0	4,745611	1,94175	18,468	-0,865	77,517	0	1009,48	5,1	7,4	7,2	1	1	1	1	1	1	1	1	1	0	1	-59,055673	272,570174	253,909767	0
15.01.2021	03:26:26	0	0	4,745611	2,06925	23,5872	-0,865	77,524	0	1009,52	5,1	7,4	7,2	1	1	1	1	1	1	1	1	1	0	1	-54,756871	272,56053	258,164279	0
15.01.2021	03:26:27	0	0	5,197574	2,2155	23,2164	-0,864	77,525	0	1009,36	5,1	7,3	7,2	1	1	1	1	1	1	1	1	1	0	1	-54,474982	272,445184	257,9168	0
15.01.2021	03:26:28	0	0	5,084583	2,244	22,1076	-0,867	77,501	0	1009,3	5,1	7,4	7,2	1	1	1	1	1	1	1	1	1	0	1	-53,770261	272,446553	258,627801	0
15.01.2021	03:26:29	0	0	3,954676	2,28975	23,5836	-0,871	77,519	0	1009,34	5,1	7,3	7,2	1	1	1	1	1	1	1	1	1	0	1	-51,303735	272,531628	261,48471	0
15.01.2021	03:26:30	0	0	4,858602	2,223	17,7012	-0,866	77,521	0	1009,28	5,1	7,4	7,2	1	1	1	1	1	1	1	1	1	0	1	-59,126145	272,421925	253,158972	0
15.01.2021	03:26:31	0	0	2,711778	1,98	36,936	-0,868	77,52	0	1009,44	5,1	7,4	7,2	1	1	1	1	1	1	1	1	1	0	1	-53,770261	272,511011	258,923544	0
15.01.2021	03:26:32	0	0	4,293648	1,854	31,77	-0,87	77,528	0	1009,34	5,1	7,4	7,2	1	1	1	1	1	1	1	1	1	0	1	-51,79704	272,439709	260,56963	0
15.01.2021	03:26:33	0	0	3,728694	1,82025	21,7836	-0,868	77,53	0	1009,5	5,2	7,4	7,2	1	1	1	1	1	1	1	1	1	0	1	-53,911205	272,426027	258,392724	0
15.01.2021	03:26:34	0	0	2,824768	1,7775	18,09	-0,866	77,523	0	1009,54	5,1	7,4	7,2	1	1	1	1	1	1	1	1	1	0	1	-55,109232	272,468472	257,389373	0
15.01.2021	03:26:35	0	0	3,163741	1,8105	21,0384	-0,875	77,52	0	1009,44	5,1	7,4	7,2	1	1	1	1	1	1	1	1	1	0	1	-53,558844	272,597754	259,533285	0
15.01.2021	03:26:36	0	0	4,406639	1,857	19,5444	-0,868	77,518	0	1009,42	5,1	7,4	7,2	1	1	1	1	1	1	1	1	1	0	1	-53,4179	272,533003	259,376859	0
15.01.2021	03:26:37	0	0	5,310565	1,83225	19,5372	-0,871	77,529	0	1009,48	5,1	7,2	7,2	1	1	1	1	1	1	1	1	1	0	1	-54,897815	272,615702	258,27678	0
15.01.2021	03:26:38	0	0	4,63262	1,92075	18,45	-0,875	77,52	0	1009,54	5,1	7,4	7,2	1	1	1	1	1	1	1	1	1	0	1	-52,924595	272,484927	259,649509	0
15.01.2021	03:26:39	0	0	2,937759	1,9155	23,22	-0,866	77,525	0	1009,5	5,1	7,4	7,2	1	1	1	1	1	1	1	1	1	0	1	-53,558844	272,586717	259,482582	0
15.01.2021	03:26:40	0	0	4,180657	1,96725	24,7356	-0,869	77,526	0	1009,34	5,2	7,4	7,2	1	1	1	1	1	1	1	1	1	0	1	-55,813953	272,410989	256,421023	0
15.01.2021	03:26:41	0	0	4,971592	1,95075	19,89	-0,864	77,53	0	1009,62	5,1	7,3	7,2	1	1	1	1	1	1	1	1	1	0	1	-54,193094	272,520629	258,544861	0
15.01.2021	03:26:42	0	0	3,954676	1,91175	26,9028	-0,869	77,534	0	1009,66	5,1	7,3	7,2	1	1	1	1	1	1	1	1	1	0	1	-56,518675	272,590855	256,541761	0
15.01.2021	03:26:43	0	0	3,841685	1,87275	36,9396	-0,866	77,527	0	1009,58	5,1	7,4	7,2	1	1	1	1	1	1	1	1	1	0	1	-51,374207	272,487671	261,212487	0
15.01.2021	03:26:44	0	0	3,728694	1,83225	24,3648	-0,873	77,522	0	1009,48	5,1	7,3	7,2	1	1	1	1	1	1	1	1	1	0	1	-52,43129	272,617083	260,749653	0
15.01.2021	03:26:45	0	0	3,954676	1,91925	22,1004	-0,869	77,523	0	1009,48	5,2	7,4	7,2	1	1	1	1	1	1	1	1	1	0	1	-54,686399	272,509637	258,001101	0
15.01.2021	03:26:46	0	0	3,05075	2,07075	24,3576	-0,865	77,528	0	1009,44	5,2	7,4	7,2	1	1	1	1	1	1	1	1	1	0	1	-56,448203	272,46299	256,025253	0
15.01.2021	03:26:47	0	0	3,276731	2,03025	17,244	-0,872	77,526	0	1009,42	5,1	7,4	7,2	1	1	1	1	1	1	1	1	1	0	1	-51,021846	272,471213	261,489336	0
15.01.2021	03:26:48	0	0	4,971592	2,01375	27,738	-0,874	77,514	0	1009,3	5,1	7,4	7,2	1	1	1	1	1	1	1	1	1	0	1	-54,615927	272,428763	257,700546	0
15.01.2021	03:26:49	0	0	4,63262	1,96875	26,172	-0,874	77,503	0	1009,24	5,1	7,4	7,2	1	1	1	1	1	1	1	1	1	0	1	-52,572234	272,570174	260,393206	0
15.01.2021	03:26:50	0	0	4,519629	1,9095	25,434	-0,877	77,506	0	1009,44	5,2	7,4	7,2	1	1	1	1	1	1	1	1	1	0	1	-52,219873	272,49316	260,392009	0
15.01.2021	03:26:51	0	0	3,502713	1,959	19,5444	-0,872	77,505	0	1009,32	5,1	7,4	7,2	1	1	1	1	1	1	1	1	1	0	1	-52,501762	272,426027	259,802167	0
15.01.2021	03:26:52	0	0	2,824768	1,938	18,414	-0,876	77,506	0	1009,52	5,2	7,3	7,2	1	1	1	1	1	1	1	1	1	0	1	-53,276956	272,559153	259,63787	0
15.01.2021	03:26:53	0	0	3,841685	1,98525	28,7388	-0,874	77,51	0	1009,46	5,2	7,3	7,2	1	1	1	1	1	1	1	1	1	0	1	-55,320648	272,600514	257,784162	0
15.01.2021	03:26:54	0	0	3,389722	2,0085	33,2856	-0,873	77,504	0	1009,38	5,2	7,3	7,2	1	1	1	1	1	1	1	1	1	0	1	-54,263566	272,457509	258,18475	0
15.01.2021	03:26:55	0	0	2,711778	2,03625	30,4344	-0,874	77,502	0	1009,38	5,1	7,3	7,2	1	1	1	1	1	1	1	1	1	0	1	-55,954898	272,596374	257,130891	0
15.01.2021	03:26:56	0	0	4,180657	2,205	29,0952	-0,867	77,531	0	1009,54	5,1	7,4	7,2	1	1	1	1	1	1	1	1	1	0	1	-52,149401	272,575686	260,841359	0
15.01.2021	03:26:57	0	0	3,841685	2,14125	34,7112	-0,87	77,509	0	1009,48	5,2	7,3	7,2	1	1	1	1	1	1	1	1	1	0	1	-53,206483	272,535754	259,600905	0
15.01.2021	03:26:58	0	0	2,824768	1,9725	15,8004	-0,871	77,513	0	1009,44	5,2	7,3	7,2	1	1	1	1	1	1	1	1	1	0	1	-54,897815	272,604655	258,22602	0
15.01.2021	03:26:59	0	0	3,954676	1,90875	25,4268	-0,866	77,52	0	1009,44	5,1	7,3	7,2	1	1	1	1	1	1	1	1	1	0	1	-53,347428	272,533003	259,447331	0
15.01.2021	03:27:00	0	0	4,858602	1,812	28,7316	-0,871	77,514	0	1009,36	5,2	7,3	7,2	1	1	1	1	1	1	1	1	1	0	1	-51,374207	272,568796	261,584904	0
15.01.2021	03:27:01	0	0	4,858602	1,812	28,7316	-0,871	77,514	0	1009,36	5,2	7,3	7,2	1	1	1	1	1	1	1	1	1	0	1	-51,374207	272,568796	261,584904	0
15.01.2021	03:27:02	0	0	3,502713	1,92	32,8968	-0,872	77,51	0	1009,38	5,1	7,3	7,2	1	1	1	1	1	1	1	1	1	0	1	-52,995067	272,535754	259,812322	0
15.01.2021	03:27:03	0	0	3,841685	1,971	24,4404	-0,871	77,516	0	1009,52	5,1	7,4	7,2	1	1	1	1	1	1	1	1	1	0	1	-60,042283	272,420557	252,236564	0
15.01.2021	03:27:04	0	0	2,824768	1,89375	23,238	-0,875	77,517	0	1009,44	5,2	7,3	7,2	1	1	1	1	1	1	1	1	1	0	1	-54,052149	272,516506	258,666881	0
15.01.2021	03:27:05	0	0	4,067666	1,89825	31,0248	-0,872	77,503	0	1009,52	5,2	7,3	7,2	1	1	1	1	1	1	1	1	1	0	1	-48,696265	272,423292	263,595122	0
15.01.2021	03:27:06	0	0	4,858602	1,893	26,5212	-0,87	77,518	0	1009,46	5,2	7,3	7,2	1	1	1	1	1	1	1	1	1	0	1	-55,602537	272,528878	257,173283	0
15.01.2021	03:27:07	0	0	4,745611	1,89825	25,7976	-0,872	77,51	0	1009,44	5,2	7,3	7,2	1	1	1	1	1	1	1	1	1	0	1	-51,092319	272,596374	261,993471	0
15.01.2021	03:27:08	0	0	5,084583	1,86975	23,9796	-0,873	77,501	0	1009,36	5,2	7,3	7,2	1	1	1	1	1	1	1	1	1	0	1	-53,699789	272,56604	259,246667	0
15.01.2021	03:27:09	0	0	4,63262	1,78125	21,7908	-0,871	77,486	0	1009,52	5,1	7,3	7,2	1	1	1	1	1	1	1	1	1	0	1	-50,739958	272,441077	261,63299	0
15.01.2021	03:27:10	0	0	5,536546	1,7205	34,4232	-0,873	77,496	0	1009,5	5,2	7,3	7,2	1	1	1	1	1	1	1	1	1	0	1	-55,03876	272,489043	257,554231	0
15.01.2021	03:27:11	0	0	3,841685	1,71075	32,8968	-0,874	77,483	0	1009,54	5,2	7,3	7,2	1	1	1	1	1	1	1	1	1	0	1	-53,558844	272,426027	258,745085	0
15.01.2021	03:27:12	0	0	4,067666	1,68975	35,4888	-0,878	77,494	0	1009,46	5,2	7,3	7,2	1	1	1	1	1	1	1	1	1	0	1	-53,981677	272,495905	258,642803	0
15.01.2021	03:27:13	0	0	2,937759	1,72875	16,4808	-0,872	77,495	0	1009,52	5,2	7,3	7,2	1	1	1	1	1	1	1	1	1	0	1	-52,008457	272,417823	260,257854	0
15.01.2021	03:27:14	0	0	4,745611	1,76475	38,1492	-0,874	77,477	0	1009,42	5,1	7,3	7,2	1	1	1	1	1	1	1	1	1	0	1	-55,320648	272,559153	257,594177	0
15.01.2021	03:27:15	0	0	3,05075	1,8255	25,7976	-0,871	77,504	0	1009,48	5,1	7,3	7,2	1	1	1	1	1	1	1	1	1	0	1	-55,602537	272,596374	257,483252	0
15.01.2021	03:27:16	0	0	3,841685	1,899	24,336	-0,875	77,492	0	1009,38	5,2	7,4	7,2	1	1	1	1	1	1	1	1	1	0	1	-53,136011	272,56604	259,810444	0
15.01.2021	03:27:17	0	0	4,519629	1,94625	16,1064	-0,875	77,483	0	1009,56	5,2	7,4	7,2	1	1	1	1	1	1	1	1	1	0	1	-52,219873	272,465731	260,266156	0
15.01.2021	03:27:18	0	0	4,406639	2,06625	21,7728	-0,873	77,48	0	1009,4	5,2	7,3	7,2	1	1	1	1	1	1	1	1	1	0	1	-54,827343	272,596374	258,258446	0
15.01.2021	03:27:19	0	0	2,711778	2,21925	26,9208	-0,879	77,482	0	1009,42	5,2	7,3	7,2	1	1	1	1	1	1	1	1	1	0	1	-55,109232	272,519255	257,622414	0
15.01.2021	03:27:20	0	0	2,937759	2,3565	28,7424	-0,874	77,487	0	1009,4	5,2	7,3	7,2	1	1	1	1	1	1	1	1	1	0	1	-51,162791	272,604655	261,961045	0
15.01.2021	03:27:21	0	0	3,954676	2,34825	26,9172	-0,879	77,465	0	1009,52	5,2	7,3	7,2	1	1	1	1	1	1	1	1	1	0	1	-48,625793	272,446553	263,772269	0
15.01.2021	03:27:22	0	0	4,745639	2,31225	24,3468	-0,874	77,482	0	1009,44	5,2	7,3	7,1	1	1	1	1	1	1	1	1	1	0	1	-53,206483	272,589475	259,847615	0
15.01.2021	03:27:23	0	0	4,406639	2,27925	26,5176	-0,873	77,464	0	1009,46	5,1	7,3	7,2	1	1	1	1	1	1	1	1	1	0	1	-51,656096	272,508263	261,025099	0
15.01.2021	03:27:24	0	0	4,180657	2,24475	23,6016	-0,875	77,481	0	1009,48	5,1	7,3	7,2	1	1	1	1	1	1	1	1	1	0	1	-51,515152	272,588096	261,532611	0
15.01.2021	03:27:25	0	0	4,519629	2,1585	37,7964	-0,884	77,465	0	1009,34	5,2	7,3	7,2	1	1	1	1	1	1	1	1	1	0	1	-57,928118	272,567418	255,024664	0
15.01.2021	03:27:26	0	0	4,63262	2,0445	33,264	-0,874	77,462	0	1009,52	5,2	7,3	7,2	1	1	1	1	1	1	1	1	1	0	1	-62,86117	272,498651	249,77591	0
15.01.2021	03:27:27	0	0	2,824785	2,04975	32,1552	-0,881	77,46	0	1009,4	5,2	7,3	7,1	1	1	1	1	1	1	1	1	1	0	1	-52,995067	272,577065	260,002024	0
15.01.2021	03:27:28	0	0	3,728694	2,028	31,0392	-0,879	77,462	0	1009,46	5,2	7,3	7,2	1	1	1	1	1	1	1	1	1	0	1	-56,02537	272,535754	256,782018	0
15.01.2021	03:27:29	0	0	4,519629	2,05575	33,2856	-0,878	77,46	0	1009,54	5,1	7,3	7,2	1	1	1	1	1	1	1	1	1	0	1	-49,612403	272,431499	262,716616	0
15.01.2021	03:27:30	0	0	2,937759	2,19375	33,9624	-0,879	77,456	0	1009,44	5,2	7,3	7,2	1	1	1	1	1	1	1	1	1	0	1	-52,924595	272,489043	259,668396	0
15.01.2021	03:27:31	0	0	4,63262	2,19225	32,5116	-0,874	77,471	0	1009,58	5,2	7,3	7,2	1	1	1	1	1	1	1	1	1	0	1	-53,206483	272,585338	259,828608	0
15.01.2021	03:27:32	0	0	3,163741	2,2335	25,1352	-0,884	77,448	0	1009,52	5,2	7,3	7,2	1	1	1	1	1	1	1	1	1	0	1	-57,082452	272,46436	255,39729	0
15.01.2021	03:27:33	0	0	4,745611	2,391	27,9648	-0,881	77,456	0	1009,3	5,1	7,3	7,2	1	1	1	1	1	1	1	1	1	0	1	-50,458069	272,410989	261,776907	0
15.01.2021	03:27:34	0	0	4,293648	2,46525	25,0488	-0,881	77,444	0	1009,4	5,2	7,3	7,2	1	1	1	1	1	1	1	1	1	0	1	-53,206483	272,557775	259,702018	0
15.01.2021	03:27:35	0	0	4,067666	2,49375	42,9264	-0,881	77,446	0	1009,54	5,2	7,3	7,2	1	1	1	1	1	1	1	1	1	0	1	-50,105708	272,588096	262,942054	0
15.01.2021	03:27:36	0	0	4,858602	2,58375	37,3068	-0,886	77,444	0	1009,42	5,2	7,3	7,2	1	1	1	1	1	1	1	1	1	0	1	-51,374207	272,548138	261,49004	0
15.01.2021	03:27:37	0	0	4,180657	2,766	34,344	-0,886	77,448	0	1009,54	5	7,3	7,2	1	1	1	1	1	1	1	1	1	0	1	-48,555321	272,420557	263,723527	0
15.01.2021	03:27:38	0	0	4,858602	2,80125	37,3248	-0,881	77,443	0	1009,46	5,2	7,4	7,2	1	1	1	1	1	1	1	1	1	0	1	-50,880902	272,592234	262,185871	0
15.01.2021	03:27:39	0	0	4,293648	2,62425	30,7044	-0,881	77,437	0	1009,6	5,1	7,4	7,2	1	1	1	1	1	1	1	1	1	0	1	-53,136011	272,559153	259,778814	0
15.01.2021	03:27:40	0	0	3,841685	2,5995	33,2748	-0,881	77,459	0	1009,48	5,2	7,3	7,2	1	1	1	1	1	1	1	1	1	0	1	-50,951374	272,412356	261,289868	0
15.01.2021	03:27:41	0	0	5,423588	2,49525	16,1136	-0,88	77,454	0	1009,58	5,2	7,3	7,1	1	1	1	1	1	1	1	1	1	0	1	-48,766737	272,449292	263,643885	0
15.01.2021	03:27:42	0	0	4,63262	2,379	36,918	-0,886	77,458	0	1009,42	5,1	7,3	7,2	1	1	1	1	1	1	1	1	1	0	1	-55,250176	272,559153	257,66465	0
15.01.2021	03:27:43	0	0	2,937759	2,2005	4,8564	-0,88	77,472	0	1009,42	5,1	7,3	7,2	1	1	1	1	1	1	1	1	1	0	1	-50,880902	272,519255	261,850744	0
15.01.2021	03:27:44	0	0	4,858602	2,21175	20,6388	-0,883	77,483	0	1009,5	5,2	7,3	7,2	1	1	1	1	1	1	1	1	1	0	1	-55,673009	272,577065	257,324082	0
15.01.2021	03:27:45	0	0	5,197605	2,17425	23,9652	-0,878	77,505	0	1009,32	5,1	7,3	7,1	1	1	1	1	1	1	1	1	1	0	1	-57,364341	272,533003	255,430418	0
15.01.2021	03:27:46	0	0	4,971622	2,15325	18,4608	-0,88	77,519	0	1009,38	5,2	7,3	7,1	1	1	1	1	1	1	1	1	1	0	1	-54,686399	272,431499	257,64262	0
15.01.2021	03:27:47	0	0	2,485796	2,17875	27,2844	-0,882	77,505	0	1009,6	5,1	7,3	7,2	1	1	1	1	1	1	1	1	1	0	1	-53,699789	272,586717	259,341638	0
15.01.2021	03:27:48	0	0	3,163741	2,1615	26,5248	-0,885	77,538	0	1009,56	5,2	7,3	7,2	1	1	1	1	1	1	1	1	1	0	1	-52,290345	272,482184	260,27117	0
15.01.2021	03:27:49	0	0	3,615704	2,13075	25,0344	-0,88	77,538	0	1009,42	5,2	7,3	7,2	1	1	1	1	1	1	1	1	1	0	1	-52,642706	272,430131	259,68004	0
15.01.2021	03:27:50	0	0	3,163741	2,1105	32,5332	-0,884	77,552	0	1009,5	5,2	7,4	7,2	1	1	1	1	1	1	1	1	1	0	1	-48,484848	272,46436	263,994894	0
15.01.2021	03:27:51	0	0	3,05075	2,1465	25,056	-0,88	77,555	0	1009,62	5,2	7,3	7,2	1	1	1	1	1	1	1	1	1	0	1	-49,541931	272,409622	262,68678	0
15.01.2021	03:27:52	0	0	5,197574	2,142	25,7868	-0,887	77,554	0	1009,4	5,2	7,3	7,2	1	1	1	1	1	1	1	1	1	0	1	-53,347428	272,552268	259,535782	0
15.01.2021	03:27:53	0	0	4,519629	2,05425	32,5044	-0,887	77,541	0	1009,32	5,2	7,3	7,2	1	1	1	1	1	1	1	1	1	0	1	-50,17618	272,461619	262,290989	0
15.01.2021	03:27:54	0	0	3,05075	2,0115	31,4064	-0,887	77,554	0	1009,48	5,2	7,3	7,2	1	1	1	1	1	1	1	1	1	0	1	-50,81043	272,590855	262,250006	0
15.01.2021	03:27:55	0	0	3,615704	1,92825	33,9516	-0,886	77,547	0	1009,36	5,2	7,3	7,2	1	1	1	1	1	1	1	1	1	0	1	-55,673009	272,516506	257,046021	0
15.01.2021	03:27:56	0	0	4,180657	1,863	29,5668	-0,882	77,542	0	1009,4	5,1	7,3	7,2	1	1	1	1	1	1	1	1	1	0	1	-53,840733	272,426027	258,463196	0
15.01.2021	03:27:57	0	0	4,632648	1,7925	33,6708	-0,887	77,556	0	1009,4	5,2	7,3	7,1	1	1	1	1	1	1	1	1	1	0	1	-51,515152	272,475326	261,014901	0
15.01.2021	03:27:58	0	0	2,598802	1,72425	33,2568	-0,879	77,559	0	1009,3	5,1	7,3	7,1	1	1	1	1	1	1	1	1	1	0	1	-53,911205	272,593614	259,161906	0
15.01.2021	03:27:59	0	0	3,389722	1,67325	29,5812	-0,882	77,552	0	1009,56	5,1	7,3	7,2	1	1	1	1	1	1	1	1	1	0	1	-52,572234	272,539881	260,254102	0
15.01.2021	03:28:00	0	0	3,276731	1,8645	27,2844	-0,884	77,544	0	1009,32	5,1	7,3	7,2	1	1	1	1	1	1	1	1	1	0	1	-53,206483	272,430131	259,116262	0
15.01.2021	03:28:01	0	0	2,824768	1,96875	20,646	-0,886	77,559	0	1009,5	5,1	7,3	7,2	1	1	1	1	1	1	1	1	1	0	1	-52,995067	272,601894	260,116084	0
15.01.2021	03:28:02	0	0	2,824768	1,96875	20,646	-0,886	77,559	0	1009,5	5,1	7,3	7,2	1	1	1	1	1	1	1	1	1	0	1	-52,995067	272,601894	260,116084	0
15.01.2021	03:28:03	0	0	3,276731	1,9605	30,9996	-0,893	77,562	0	1009,44	5,1	7,3	7,2	1	1	1	1	1	1	1	1	1	0	1	-51,585624	272,4534	260,843843	0
15.01.2021	03:28:04	0	0	4,293648	1,9005	29,5668	-0,886	77,558	0	1009,52	5	7,3	7,2	1	1	1	1	1	1	1	1	1	0	1	-48,837209	272,585338	264,197882	0
15.01.2021	03:28:05	0	0	3,615725	1,8735	26,9028	-0,886	77,566	0	1009,42	5,2	7,3	7,1	1	1	1	1	1	1	1	1	1	0	1	-50,739958	272,415089	261,513817	0
15.01.2021	03:28:06	0	0	3,954676	1,878	33,66	-0,882	77,558	0	1009,5	5,1	7,3	7,2	1	1	1	1	1	1	1	1	1	0	1	-52,008457	272,513758	260,69796	0
15.01.2021	03:28:07	0	0	3,615704	1,863	37,3032	-0,886	77,55	0	1009,48	5,2	7,3	7,2	1	1	1	1	1	1	1	1	1	0	1	-50,17618	272,581201	262,839908	0
15.01.2021	03:28:08	0	0	4,406665	1,84275	22,8348	-0,886	77,555	0	1009,5	5,1	7,3	7,1	1	1	1	1	1	1	1	1	1	0	1	-53,347428	272,487671	259,239267	0
15.01.2021	03:28:09	0	0	2,711794	1,79325	33,2604	-0,882	77,552	0	1009,58	5,1	7,3	7,1	1	1	1	1	1	1	1	1	1	0	1	-51,444679	272,600514	261,660131	0
15.01.2021	03:28:10	0	0	3,276751	1,719	33,2568	-0,885	77,547	0	1009,38	5,1	7,3	7,1	1	1	1	1	1	1	1	1	1	0	1	-55,461593	272,456139	256,980439	0
15.01.2021	03:28:11	0	0	2,824768	1,695	31,7916	-0,883	77,555	0	1009,54	5,1	7,3	7,2	1	1	1	1	1	1	1	1	1	0	1	-53,770261	272,41919	258,502318	0
15.01.2021	03:28:12	0	0	3,276731	1,842	34,7076	-0,885	77,557	0	1009,58	5,2	7,3	7,2	1	1	1	1	1	1	1	1	1	0	1	-47,357294	272,446553	265,040768	0
15.01.2021	03:28:13	0	0	3,502734	2,02425	34,344	-0,886	77,557	0	1009,38	5,1	7,3	7,1	1	1	1	1	1	1	1	1	1	0	1	-54,968288	272,417823	257,298023	0
15.01.2021	03:28:14	0	0	5,084583	2,12325	35,082	-0,884	77,537	0	1009,54	5,1	7,3	7,2	1	1	1	1	1	1	1	1	1	0	1	-50,669486	272,519255	262,062161	0
15.01.2021	03:28:15	0	0	2,824768	2,09175	18,4716	-0,885	77,543	0	1009,44	5,1	7,3	7,2	1	1	1	1	1	1	1	1	1	0	1	-51,092319	272,561907	261,835157	0
15.01.2021	03:28:16	0	0	3,615704	2,13225	24,714	-0,888	77,529	0	1009,42	5,1	7,3	7,2	1	1	1	1	1	1	1	1	1	0	1	-53,981677	272,557775	258,926824	0
15.01.2021	03:28:17	0	0	4,180657	2,25225	32,5044	-0,886	77,54	0	1009,48	5,2	7,3	7,2	1	1	1	1	1	1	1	1	1	0	1	-53,840733	272,46436	258,639009	0
15.01.2021	03:28:18	0	0	3,841708	2,27025	22,8384	-0,884	77,539	0	1009,64	5,1	7,3	7,1	1	1	1	1	1	1	1	1	1	0	1	-53,276956	272,599134	259,821514	0
15.01.2021	03:28:19	0	0	4,858631	2,214	23,9904	-0,887	77,534	0	1009,5	5,1	7,3	7,1	1	1	1	1	1	1	1	1	1	0	1	-48,766737	272,469843	263,738156	0
15.01.2021	03:28:20	0	0	4,293648	2,05425	16,2	-0,886	77,539	0	1009,54	5,1	7,3	7,2	1	1	1	1	1	1	1	1	1	0	1	-53,065539	272,415089	259,188236	0
15.01.2021	03:28:21	0	0	3,615725	2,04375	22,0824	-0,889	77,541	0	1009,48	5,1	7,3	7,1	1	1	1	1	1	1	1	1	1	0	1	-53,558844	272,445184	258,832938	0
15.01.2021	03:28:22	0	0	5,310565	2,08875	21,006	-0,884	77,548	0	1009,5	5,1	7,3	7,2	1	1	1	1	1	1	1	1	1	0	1	-54,052149	272,421925	258,232968	0
15.01.2021	03:28:23	0	0	3,502734	2,18025	30,3264	-0,89	77,542	0	1009,62	5,1	7,3	7,1	1	1	1	1	1	1	1	1	1	0	1	-51,867512	272,443815	260,517991	0
15.01.2021	03:28:24	0	0	3,050768	2,187	24,732	-0,889	77,526	0	1009,44	5,1	7,3	7,1	1	1	1	1	1	1	1	1	1	0	1	-52,219873	272,590855	260,840563	0
15.01.2021	03:28:25	0	0	4,745639	2,19	39,5604	-0,887	77,538	0	1009,44	5,1	7,3	7,1	1	1	1	1	1	1	1	1	1	0	1	-51,726568	272,461619	260,740602	0
15.01.2021	03:28:26	0	0	3,954699	2,14725	30,3336	-0,892	77,55	0	1009,46	5,1	7,3	7,1	1	1	1	1	1	1	1	1	1	0	1	-53,347428	272,58258	259,674995	0
15.01.2021	03:28:27	0	0	3,502713	2,04375	33,9588	-0,893	77,545	0	1009,6	5,1	7,3	7,2	1	1	1	1	1	1	1	1	1	0	1	-50,387597	272,401425	261,803535	0
15.01.2021	03:28:28	0	0	3,16376	1,92675	44,3808	-0,89	77,539	0	1009,52	5,1	7,3	7,1	1	1	1	1	1	1	1	1	1	0	1	-48,20296	272,43834	264,157434	0
15.01.2021	03:28:29	0	0	4,519656	1,8045	29,1132	-0,887	77,561	0	1009,58	5	7,3	7,1	1	1	1	1	1	1	1	1	1	0	1	-51,79704	272,523378	260,953534	0
15.01.2021	03:28:30	0	0	2,937777	1,78725	35,4744	-0,888	77,546	0	1009,38	5,1	7,3	7,1	1	1	1	1	1	1	1	1	1	0	1	-52,501762	272,413722	259,745747	0
15.01.2021	03:28:31	0	0	2,937759	1,779	38,43	-0,888	77,547	0	1009,54	5,1	7,3	7,2	1	1	1	1	1	1	1	1	1	0	1	-48,343904	272,435603	264,003938	0
15.01.2021	03:28:32	0	0	2,598802	1,92225	18,0972	-0,888	77,553	0	1009,42	5,1	7,3	7,1	1	1	1	1	1	1	1	1	1	0	1	-48,907681	272,447922	263,49666	0
15.01.2021	03:28:33	0	0	4,406639	1,97925	25,8084	-0,891	77,558	0	1009,6	5,1	7,3	7,2	1	1	1	1	1	1	1	1	1	0	1	-51,162791	272,599134	261,935678	0
15.01.2021	03:28:34	0	0	2,937777	1,96875	24,714	-0,891	77,547	0	1009,6	5,1	7,3	7,1	1	1	1	1	1	1	1	1	1	0	1	-50,035236	272,535754	262,772152	0
15.01.2021	03:28:35	0	0	4,745639	1,917	22,0788	-0,89	77,541	0	1009,5	5,1	7,3	7,1	1	1	1	1	1	1	1	1	1	0	1	-49,82382	272,465731	262,662209	0
15.01.2021	03:28:36	0	0	4,971622	2,016	36,252	-0,892	77,553	0	1009,46	5,1	7,3	7,1	1	1	1	1	1	1	1	1	1	0	1	-51,021846	272,574308	261,962582	0
15.01.2021	03:28:37	0	0	3,728717	2,097	27,972	-0,888	77,555	0	1009,6	5,1	7,3	7,1	1	1	1	1	1	1	1	1	1	0	1	-49,18957	272,528878	263,586249	0
15.01.2021	03:28:38	0	0	4,406665	2,05575	40,2552	-0,89	77,54	0	1009,48	5,1	7,3	7,1	1	1	1	1	1	1	1	1	1	0	1	-51,374207	272,410989	260,860769	0
15.01.2021	03:28:39	0	0	4,406665	1,92975	29,106	-0,894	77,54	0	1009,46	5,1	7,3	7,1	1	1	1	1	1	1	1	1	1	0	1	-52,290345	272,491788	260,315239	0
15.01.2021	03:28:40	0	0	2,937777	1,8705	31,0284	-0,887	77,56	0	1009,5	5,1	7,3	7,1	1	1	1	1	1	1	1	1	1	0	1	-52,642706	272,559153	260,27212	0
15.01.2021	03:28:41	0	0	2,824785	1,89375	26,91	-0,893	77,558	0	1009,6	5,1	7,3	7,1	1	1	1	1	1	1	1	1	1	0	1	-52,43129	272,593614	260,641822	0
15.01.2021	03:28:42	0	0	5,310596	1,8105	35,478	-0,889	77,555	0	1009,54	5,1	7,3	7,1	1	1	1	1	1	1	1	1	1	0	1	-54,474982	272,47944	258,073946	0
15.01.2021	03:28:43	0	0	4,519656	1,78275	31,77	-0,894	77,564	0	1009,52	5,1	7,3	7,1	1	1	1	1	1	1	1	1	1	0	1	-48,484848	272,575686	264,505911	0
15.01.2021	03:28:44	0	0	4,067691	1,79775	26,1756	-0,895	77,538	0	1009,5	5,1	7,3	7,1	1	1	1	1	1	1	1	1	1	0	1	-50,105708	272,457509	262,342607	0
15.01.2021	03:28:45	0	0	3,389742	1,89075	28,728	-0,897	77,542	0	1009,52	5,1	7,3	7,1	1	1	1	1	1	1	1	1	1	0	1	-50,880902	272,416456	261,37914	0
15.01.2021	03:28:46	0	0	2,937777	1,95675	32,5224	-0,889	77,568	0	1009,62	5,1	7,3	7,1	1	1	1	1	1	1	1	1	1	0	1	-50,528541	272,574308	262,455888	0
15.01.2021	03:28:47	0	0	2,824785	1,959	33,9624	-0,891	77,565	0	1009,56	5,1	7,3	7,1	1	1	1	1	1	1	1	1	1	0	1	-48,907681	272,408256	263,314765	0
15.01.2021	03:28:48	0	0	4,632648	1,93125	21,0348	-0,893	77,568	0	1009,6	5,1	7,3	7,1	1	1	1	1	1	1	1	1	1	0	1	-50,599013	272,408256	261,623433	0
15.01.2021	03:28:49	0	0	4,293674	1,90275	29,574	-0,892	77,567	0	1009,48	5,1	7,3	7,1	1	1	1	1	1	1	1	1	1	0	1	-48,484848	272,439709	263,881822	0
15.01.2021	03:28:50	0	0	3,728717	1,7895	33,6456	-0,89	77,561	0	1009,38	5,1	7,3	7,1	1	1	1	1	1	1	1	1	1	0	1	-51,021846	272,420557	261,257001	0
15.01.2021	03:28:51	0	0	3,954699	1,686	37,6884	-0,897	77,575	0	1009,48	5,1	7,3	7,1	1	1	1	1	1	1	1	1	1	0	1	-54,334038	272,404157	257,869618	0
15.01.2021	03:28:52	0	0	3,276751	1,62225	29,124	-0,899	77,57	0	1009,48	5,1	7,3	7,1	1	1	1	1	1	1	1	1	1	0	1	-49,612403	272,47944	262,936525	0
15.01.2021	03:28:53	0	0	4,519656	1,60425	32,166	-0,894	77,568	0	1009,52	5,1	7,3	7,1	1	1	1	1	1	1	1	1	1	0	1	-52,078929	272,592234	260,987844	0
15.01.2021	03:28:54	0	0	4,180682	1,626	35,0856	-0,89	77,568	0	1009,44	5,1	7,3	7,1	1	1	1	1	1	1	1	1	1	0	1	-47,075405	272,427395	265,234796	0
15.01.2021	03:28:55	0	0	2,824785	1,66125	28,3608	-0,894	77,571	0	1009,54	5,1	7,3	7,1	1	1	1	1	1	1	1	1	1	0	1	-50,387597	272,471213	262,123585	0
15.01.2021	03:28:56	0	0	2,937777	1,671	21,78	-0,889	77,556	0	1009,56	5,1	7,3	7,1	1	1	1	1	1	1	1	1	1	0	1	-51,162791	272,581201	261,853298	0
15.01.2021	03:28:57	0	0	3,389742	1,81125	33,2604	-0,897	77,558	0	1009,62	5,1	7,3	7,1	1	1	1	1	1	1	1	1	1	0	1	-47,21635	272,420557	265,062498	0
15.01.2021	03:28:58	0	0	4,632648	1,79475	16,11	-0,898	77,549	0	1009,4	5,1	7,3	7,1	1	1	1	1	1	1	1	1	1	0	1	-48,20296	272,472584	264,314512	0
15.01.2021	03:28:59	0	0	3,502734	1,86375	23,976	-0,9	77,568	0	1009,46	5,1	7,3	7,1	1	1	1	1	1	1	1	1	1	0	1	-51,79704	272,427395	260,513161	0
15.01.2021	03:29:00	0	0	3,615704	1,8765	22,842	-0,895	77,574	0	1009,5	5,1	7,3	7,2	1	1	1	1	1	1	1	1	1	0	1	-49,471459	272,589475	263,58264	0
15.01.2021	03:29:01	0	0	3,615704	1,8765	22,842	-0,895	77,574	0	1009,5	5,1	7,3	7,2	1	1	1	1	1	1	1	1	1	0	1	-49,471459	272,589475	263,58264	0
15.01.2021	03:29:02	0	0	4,180682	2,02125	21,78	-0,894	77,573	0	1009,46	5,1	7,3	7,1	1	1	1	1	1	1	1	1	1	0	1	-52,713178	272,490416	259,886109	0
15.01.2021	03:29:03	0	0	5,197605	2,15325	42,912	-0,891	77,571	0	1009,52	5,1	7,3	7,1	1	1	1	1	1	1	1	1	1	0	1	-49,541931	272,441077	262,831017	0
15.01.2021	03:29:04	0	0	4,067691	2,2995	29,5704	-0,9	77,569	0	1009,5	5,1	7,3	7,1	1	1	1	1	1	1	1	1	1	0	1	-50,387597	272,548138	262,47665	0
15.01.2021	03:29:05	0	0	2,711794	2,48175	29,5812	-0,889	77,573	0	1009,52	5,1	7,3	7,1	1	1	1	1	1	1	1	1	1	0	1	-49,964764	272,561907	262,962712	0
15.01.2021	03:29:06	0	0	3,276751	2,64975	27,27	-0,895	77,571	0	1009,54	5,1	7,3	7,1	1	1	1	1	1	1	1	1	1	0	1	-51,162791	272,427395	261,14741	0
15.01.2021	03:29:07	0	0	5,423588	2,40675	22,0932	-0,897	77,573	0	1009,52	5,1	7,3	7,1	1	1	1	1	1	1	1	1	1	0	1	-47,850599	272,524753	264,906286	0
15.01.2021	03:29:08	0	0	4,971622	2,21625	27,2952	-0,897	77,565	0	1009,56	5,1	7,3	7,1	1	1	1	1	1	1	1	1	1	0	1	-50,17618	272,579822	262,833575	0
15.01.2021	03:29:09	0	0	4,858631	2,079	18,4572	-0,899	77,567	0	1009,5	5,1	7,3	7,1	1	1	1	1	1	1	1	1	1	0	1	-52,924595	272,512384	259,775515	0
15.01.2021	03:29:10	0	0	4,745639	2,1195	43,6608	-0,901	77,582	0	1009,5	5,1	7,3	7,1	1	1	1	1	1	1	1	1	1	0	1	-51,867512	272,397328	260,304837	0
15.01.2021	03:29:11	0	0	5,084614	2,25525	39,6504	-0,897	77,585	0	1009,52	5,1	7,3	7,1	1	1	1	1	1	1	1	1	1	0	1	-48,132488	272,458879	264,322112	0
15.01.2021	03:29:12	0	0	3,16376	2,3295	24,7248	-0,904	77,579	0	1009,44	5,1	7,3	7,1	1	1	1	1	1	1	1	1	1	0	1	-49,260042	272,567418	263,69274	0
15.01.2021	03:29:13	0	0	4,519656	2,217	19,1376	-0,906	77,575	0	1009,52	5,1	7,3	7,1	1	1	1	1	1	1	1	1	1	0	1	-51,374207	272,561907	261,553269	0
15.01.2021	03:29:14	0	0	4,858631	2,14425	12,852	-0,902	77,587	0	1009,5	5,1	7,3	7,1	1	1	1	1	1	1	1	1	1	0	1	-47,56871	272,511011	265,125094	0
15.01.2021	03:29:15	0	0	3,728717	2,22375	24,7176	-0,898	77,589	0	1009,56	5,1	7,3	7,1	1	1	1	1	1	1	1	1	1	0	1	-46,793517	272,395963	265,372573	0
15.01.2021	03:29:16	0	0	4,406665	2,19075	18,8532	-0,902	77,593	0	1009,52	5,1	7,3	7,1	1	1	1	1	1	1	1	1	1	0	1	-52,713178	272,50689	259,961713	0
15.01.2021	03:29:17	0	0	2,824785	2,163	17,7048	-0,901	77,582	0	1009,5	5,1	7,3	7,1	1	1	1	1	1	1	1	1	1	0	1	-47,498238	272,581201	265,517851	0
15.01.2021	03:29:18	0	0	4,745639	2,205	27,666	-0,903	77,583	0	1009,56	5,1	7,3	7,1	1	1	1	1	1	1	1	1	1	0	1	-47,427766	272,398694	264,750843	0
15.01.2021	03:29:19	0	0	4,858631	2,20725	26,5248	-0,9	77,604	0	1009,56	5,1	7,3	7,1	1	1	1	1	1	1	1	1	1	0	1	-50,317125	272,480812	262,238097	0
15.01.2021	03:29:20	0	0	3,276751	2,14275	23,976	-0,895	77,616	0	1009,58	5,1	7,3	7,1	1	1	1	1	1	1	1	1	1	0	1	-54,052149	272,395963	258,11394	0
15.01.2021	03:29:21	0	0	3,276751	2,04075	20,6388	-0,898	77,598	0	1009,42	5,1	7,3	7,1	1	1	1	1	1	1	1	1	1	0	1	-48,625793	272,504143	264,036492	0
15.01.2021	03:29:22	0	0	3,954699	1,9485	23,2308	-0,904	77,601	0	1009,56	5,1	7,3	7,1	1	1	1	1	1	1	1	1	1	0	1	-49,330514	272,401425	262,860617	0
15.01.2021	03:29:23	0	0	2,937777	1,90425	30,3084	-0,904	77,615	0	1009,54	5,1	7,3	7,1	1	1	1	1	1	1	1	1	1	0	1	-53,629316	272,413722	258,618192	0
15.01.2021	03:29:24	0	0	2,598802	1,92225	29,9556	-0,902	77,615	0	1009,54	5,1	7,3	7,1	1	1	1	1	1	1	1	1	1	0	1	-51,162791	272,484927	261,411313	0
15.01.2021	03:29:25	0	0	3,728717	1,9065	35,8632	-0,899	77,616	0	1009,44	5,1	7,3	7,1	1	1	1	1	1	1	1	1	1	0	1	-52,854123	272,58258	260,1683	0
15.01.2021	03:29:26	0	0	4,406665	1,824	30,3372	-0,903	77,626	0	1009,52	5,1	7,3	7,1	1	1	1	1	1	1	1	1	1	0	1	-46,229739	272,445184	266,162043	0
15.01.2021	03:29:27	0	0	3,276751	1,81875	26,1756	-0,904	77,624	0	1009,48	5,1	7,3	7,1	1	1	1	1	1	1	1	1	1	0	1	-50,880902	272,412356	261,36034	0
15.01.2021	03:29:28	0	0	4,067691	1,776	30,7044	-0,9	77,627	0	1009,54	5,1	7,3	7,1	1	1	1	1	1	1	1	1	1	0	1	-45,736434	272,570174	267,229005	0
15.01.2021	03:29:29	0	0	3,276751	1,73475	34,3512	-0,908	77,636	0	1009,62	5,1	7,3	7,1	1	1	1	1	1	1	1	1	1	0	1	-46,863989	272,504143	265,798296	0
15.01.2021	03:29:30	0	0	3,728717	1,75425	33,2676	-0,901	77,616	0	1009,28	5,1	7,3	7,1	1	1	1	1	1	1	1	1	1	0	1	-45,806906	272,571552	267,164862	0
15.01.2021	03:29:31	0	0	4,632648	1,87875	18,4644	-0,912	77,63	0	1009,48	5,1	7,3	7,1	1	1	1	1	1	1	1	1	1	0	1	-49,260042	272,435603	263,0878	0
15.01.2021	03:29:32	0	0	4,519656	1,94925	21,3912	-0,901	77,639	0	1009,54	5,1	7,3	7,1	1	1	1	1	1	1	1	1	1	0	1	-45,877378	272,402791	266,320015	0
15.01.2021	03:29:33	0	0	4,293674	2,07525	21,3912	-0,902	77,627	0	1009,54	5,1	7,3	7,1	1	1	1	1	1	1	1	1	1	0	1	-51,726568	272,450661	260,690335	0
15.01.2021	03:29:34	0	0	3,841708	2,169	15,4224	-0,905	77,618	0	1009,44	5,1	7,3	7,1	1	1	1	1	1	1	1	1	1	0	1	-51,585624	272,435603	260,762219	0
15.01.2021	03:29:35	0	0	4,632648	2,184	22,4856	-0,903	77,64	0	1009,62	5,1	7,3	7,1	1	1	1	1	1	1	1	1	1	0	1	-52,78365	272,571552	260,188118	0
15.01.2021	03:29:36	0	0	3,050768	2,21625	16,866	-0,902	77,625	0	1009,52	5,1	7,3	7,1	1	1	1	1	1	1	1	1	1	0	1	-45,172657	272,511011	267,521148	0
15.01.2021	03:29:37	0	0	3,615725	2,38875	34,416	-0,901	77,645	0	1009,48	5,1	7,3	7,1	1	1	1	1	1	1	1	1	1	0	1	-48,484848	272,571552	264,48692	0
15.01.2021	03:29:38	0	0	2,259828	2,55675	27,6624	-0,906	77,641	0	1009,5	5,1	7,3	7,1	1	1	1	1	1	1	1	1	1	0	1	-49,612403	272,441077	262,760544	0
15.01.2021	03:29:39	0	0	3,16376	2,58675	25,0596	-0,909	77,637	0	1009,54	5,1	7,3	7,1	1	1	1	1	1	1	1	1	1	0	1	-50,528541	272,571552	262,443228	0
15.01.2021	03:29:40	0	0	4,519656	2,802	27,9756	-0,914	77,643	0	1009,52	5,1	7,3	7,1	1	1	1	1	1	1	1	1	1	0	1	-48,062016	272,413722	264,185493	0
15.01.2021	03:29:41	0	0	2,711794	2,85525	26,5248	-0,908	77,655	0	1009,52	5,1	7,3	7,1	1	1	1	1	1	1	1	1	1	0	1	-46,723044	272,515132	265,989679	0
15.01.2021	03:29:42	0	0	2,711794	2,844	24,7212	-0,901	77,653	0	1009,5	5,1	7,3	7,1	1	1	1	1	1	1	1	1	1	0	1	-46,863989	272,393232	265,289583	0
15.01.2021	03:29:43	0	0	2,711794	2,667	25,0668	-0,904	77,649	0	1009,58	5,1	7,3	7,1	1	1	1	1	1	1	1	1	1	0	1	-46,863989	272,520629	265,873966	0
15.01.2021	03:29:44	0	0	3,615725	2,37975	33,2604	-0,903	77,663	0	1009,4	5,1	7,3	7,1	1	1	1	1	1	1	1	1	1	0	1	-49,330514	272,577065	263,666577	0
15.01.2021	03:29:45	0	0	2,824785	2,262	22,8492	-0,903	77,664	0	1009,5	5,1	7,3	7,1	1	1	1	1	1	1	1	1	1	0	1	-55,320648	272,515132	257,392075	0
15.01.2021	03:29:46	0	0	4,858631	2,1435	23,5944	-0,909	77,651	0	1009,58	5,1	7,3	7,1	1	1	1	1	1	1	1	1	1	0	1	-50,528541	272,409622	261,70017	0
15.01.2021	03:29:47	0	0	3,050768	2,12625	40,2408	-0,907	77,659	0	1009,48	5,1	7,3	7,1	1	1	1	1	1	1	1	1	1	0	1	-50,880902	272,417823	261,385408	0
15.01.2021	03:29:48	0	0	3,389742	2,12775	27,0216	-0,906	77,645	0	1009,5	5,1	7,3	7,1	1	1	1	1	1	1	1	1	1	0	1	-47,427766	272,561907	265,49971	0
15.01.2021	03:29:49	0	0	3,615725	2,0715	36,612	-0,905	77,665	0	1009,5	5,1	7,3	7,1	1	1	1	1	1	1	1	1	1	0	1	-45,454545	272,397328	266,717804	0
15.01.2021	03:29:50	0	0	2,711794	2,21625	29,5632	-0,907	77,674	0	1009,52	5,1	7,3	7,1	1	1	1	1	1	1	1	1	1	0	1	-50,035236	272,517881	262,690102	0
15.01.2021	03:29:51	0	0	3,16376	2,16075	31,0356	-0,906	77,664	0	1009,64	5,1	7,3	7,1	1	1	1	1	1	1	1	1	1	0	1	-48,696265	272,568796	264,262846	0
15.01.2021	03:29:52	0	0	5,423588	1,99125	16,4844	-0,905	77,667	0	1009,5	5,1	7,3	7,1	1	1	1	1	1	1	1	1	1	0	1	-49,612403	272,487671	262,974291	0
15.01.2021	03:29:53	0	0	2,824785	1,866	7,5132	-0,913	77,671	0	1009,38	5,1	7,3	7,1	1	1	1	1	1	1	1	1	1	0	1	-50,17618	272,410989	262,058796	0
15.01.2021	03:29:54	0	0	2,937777	1,93425	10,0692	-0,914	77,681	0	1009,58	5,1	7,3	7,1	1	1	1	1	1	1	1	1	1	0	1	-44,96124	272,416456	267,298802	0
15.01.2021	03:29:55	0	0	3,502734	2,046	21,78	-0,911	77,69	0	1009,6	5,1	7,3	7,1	1	1	1	1	1	1	1	1	1	0	1	-54,897815	272,46436	257,581927	0
15.01.2021	03:29:56	0	0	4,971622	2,12325	17,7048	-0,91	77,691	0	1009,58	5,1	7,3	7,1	1	1	1	1	1	1	1	1	1	0	1	-51,867512	272,571552	261,104256	0
15.01.2021	03:29:57	0	0	3,276751	2,166	21,0312	-0,912	77,693	0	1009,46	5,1	7,3	7,1	1	1	1	1	1	1	1	1	1	0	1	-46,018323	272,482184	266,543192	0
15.01.2021	03:29:58	0	0	3,389742	2,20425	19,9296	-0,911	77,69	0	1009,58	5,1	7,3	7,1	1	1	1	1	1	1	1	1	1	0	1	-47,709655	272,577065	265,287436	0
15.01.2021	03:29:59	0	0	4,63262	2,32875	21,8556	-0,91	77,685	0	1009,46	5,1	7,3	7,2	1	1	1	1	1	1	1	1	1	0	1	-48,766737	272,548138	264,09751	0
15.01.2021	03:30:00	0	0	3,954699	2,394	21,0168	-0,912	77,698	0	1009,54	5,1	7,3	7,1	1	1	1	1	1	1	1	1	1	0	1	-50,105708	272,559153	262,809117	0
15.01.2021	03:30:01	0	0	3,954699	2,394	21,0168	-0,912	77,698	0	1009,54	5,1	7,3	7,1	1	1	1	1	1	1	1	1	1	0	1	-50,105708	272,559153	262,809117	0
15.01.2021	03:30:02	0	0	3,728717	2,44875	14,6664	-0,912	77,688	0	1009,32	5,1	7,3	7,1	1	1	1	1	1	1	1	1	1	0	1	-47,850599	272,47944	264,698329	0
15.01.2021	03:30:03	0	0	4,858631	2,46225	19,9296	-0,915	77,69	0	1009,48	5,1	7,3	7,1	1	1	1	1	1	1	1	1	1	0	1	-47,075405	272,40006	265,109465	0
15.01.2021	03:30:04	0	0	3,389742	2,50875	20,2824	-0,915	77,716	0	1009,62	5,1	7,3	7,1	1	1	1	1	1	1	1	1	1	0	1	-52,501762	272,443815	259,883742	0
15.01.2021	03:30:05	0	0	3,728717	2,6775	22,0932	-0,911	77,711	0	1009,52	5,1	7,3	7,1	1	1	1	1	1	1	1	1	1	0	1	-51,937984	272,410989	260,296992	0
15.01.2021	03:30:06	0	0	2,711794	3,11475	32,1552	-0,91	77,716	0	1009,42	5,1	7,3	7,1	1	1	1	1	1	1	1	1	1	0	1	-46,723044	272,404157	265,480612	0
15.01.2021	03:30:07	0	0	2,711794	3,312	42,2172	-0,914	77,713	0	1009,58	5,1	7,3	7,1	1	1	1	1	1	1	1	1	1	0	1	-49,119098	272,56604	263,827357	0
15.01.2021	03:30:08	0	0	5,084614	3,23625	47,7612	-0,918	77,728	0	1009,48	5,1	7,3	7,1	1	1	1	1	1	1	1	1	1	0	1	-50,458069	272,428763	261,858404	0
15.01.2021	03:30:09	0	0	3,615725	3,25275	37,314	-0,913	77,742	0	1009,48	5,1	7,3	7,1	1	1	1	1	1	1	1	1	1	0	1	-47,56871	272,46299	264,904745	0
15.01.2021	03:30:10	0	0	4,971622	3,2475	26,262	-0,916	77,719	0	1009,36	5,1	7,3	7,1	1	1	1	1	1	1	1	1	1	0	1	-51,444679	272,405523	260,76524	0
15.01.2021	03:30:11	0	0	2,824785	3,08475	25,794	-0,912	77,734	0	1009,4	5,1	7,3	7,1	1	1	1	1	1	1	1	1	1	0	1	-48,696265	272,40006	263,488605	0
15.01.2021	03:30:12	0	0	3,841708	2,859	33,642	-0,918	77,743	0	1009,5	5,1	7,3	7,1	1	1	1	1	1	1	1	1	1	0	1	-44,749824	272,491788	267,855761	0
15.01.2021	03:30:13	0	0	3,276751	2,70075	26,532	-0,915	77,76	0	1009,64	5,1	7,3	7,1	1	1	1	1	1	1	1	1	1	0	1	-51,374207	272,397328	260,798142	0
15.01.2021	03:30:14	0	0	4,067691	2,66625	31,0068	-0,92	77,759	0	1009,54	5,1	7,3	7,1	1	1	1	1	1	1	1	1	1	0	1	-49,612403	272,41919	262,660176	0
15.01.2021	03:30:15	0	0	4,180682	2,6745	32,8932	-0,91	77,767	0	1009,56	5,1	7,3	7,1	1	1	1	1	1	1	1	1	1	0	1	-50,528541	272,441077	261,844406	0
15.01.2021	03:30:16	0	0	3,954699	2,565	31,7664	-0,917	77,772	0	1009,66	5,1	7,3	7,1	1	1	1	1	1	1	1	1	1	0	1	-42,98802	272,390501	269,153036	0
15.01.2021	03:30:17	0	0	3,841708	2,63775	21,4992	-0,917	77,778	0	1009,42	5,1	7,3	7,1	1	1	1	1	1	1	1	1	1	0	1	-46,5821	272,385042	265,533931	0
15.01.2021	03:30:18	0	0	3,16376	2,574	24,7392	-0,916	77,774	0	1009,58	5,1	7,3	7,1	1	1	1	1	1	1	1	1	1	0	1	-46,723044	272,41919	265,549534	0
15.01.2021	03:30:19	0	0	4,519656	2,44575	31,7772	-0,914	77,777	0	1009,46	5,1	7,3	7,1	1	1	1	1	1	1	1	1	1	0	1	-46,793517	272,40689	265,422666	0
15.01.2021	03:30:20	0	0	2,937777	2,394	29,0988	-0,918	77,783	0	1009,42	5,1	7,3	7,1	1	1	1	1	1	1	1	1	1	0	1	-45,102185	272,456139	267,339847	0
15.01.2021	03:30:21	0	0	4,406665	2,3655	38,0556	-0,911	77,782	0	1009,64	5,1	7,3	7,1	1	1	1	1	1	1	1	1	1	0	1	-46,229739	272,404157	265,973917	0
15.01.2021	03:30:22	0	0	3,954699	2,334	28,3608	-0,911	77,785	0	1009,46	5,1	7,3	7,1	1	1	1	1	1	1	1	1	1	0	1	-48,20296	272,398694	263,97565	0
15.01.2021	03:30:23	0	0	2,824785	2,27025	26,1684	-0,92	77,783	0	1009,42	5,1	7,3	7,1	1	1	1	1	1	1	1	1	1	0	1	-46,723044	272,504143	265,939241	0
15.01.2021	03:30:24	0	0	4,519656	2,253	20,6208	-0,911	77,786	0	1009,38	5,1	7,3	7,1	1	1	1	1	1	1	1	1	1	0	1	-49,330514	272,389136	262,804284	0
15.01.2021	03:30:25	0	0	5,310596	2,316	13,5504	-0,914	77,778	0	1009,48	5,1	7,3	7,1	1	1	1	1	1	1	1	1	1	0	1	-49,330514	272,461619	263,136655	0
15.01.2021	03:30:26	0	0	4,745639	2,3775	24,7392	-0,917	77,78	0	1009,54	5,1	7,4	7,1	1	1	1	1	1	1	1	1	1	0	1	-49,541931	272,449292	262,868691	0
15.01.2021	03:30:27	0	0	4,293674	2,26875	21,024	-0,917	77,779	0	1009,54	5,1	7,3	7,1	1	1	1	1	1	1	1	1	1	0	1	-50,951374	272,570174	262,014065	0
15.01.2021	03:30:28	0	0	2,711794	2,1855	20,6352	-0,92	77,772	0	1009,44	5,1	7,3	7,1	1	1	1	1	1	1	1	1	1	0	1	-48,062016	272,482184	264,499499	0
15.01.2021	03:30:29	0	0	3,841708	2,2425	23,6016	-0,913	77,779	0	1009,52	5,1	7,3	7,1	1	1	1	1	1	1	1	1	1	0	1	-49,330514	272,556398	263,571663	0
15.01.2021	03:30:30	0	0	2,937777	2,30325	26,5284	-0,914	77,783	0	1009,56	5,1	7,3	7,1	1	1	1	1	1	1	1	1	1	0	1	-44,820296	272,4534	267,60917	0
15.01.2021	03:30:31	0	0	2,711794	2,38275	31,7592	-0,915	77,791	0	1009,4	5,1	7,3	7,1	1	1	1	1	1	1	1	1	1	0	1	-45,59549	272,387771	266,533052	0
15.01.2021	03:30:32	0	0	3,728717	2,2875	18,558	-0,916	77,786	0	1009,5	5,1	7,3	7,1	1	1	1	1	1	1	1	1	1	0	1	-46,863989	272,446553	265,534073	0
15.01.2021	03:30:33	0	0	3,954699	2,12925	33,2532	-0,915	77,787	0	1009,6	5,1	7,3	7,1	1	1	1	1	1	1	1	1	1	0	1	-43,481325	272,544009	269,363964	0
15.01.2021	03:30:34	0	0	2,824785	2,103	25,8048	-0,919	77,798	0	1009,5	5,1	7,3	7,1	1	1	1	1	1	1	1	1	1	0	1	-42,494715	272,421925	269,790403	0
15.01.2021	03:30:35	0	0	4,519656	2,067	22,842	-0,921	77,779	0	1009,52	5,1	7,3	7,1	1	1	1	1	1	1	1	1	1	0	1	-49,400987	272,522004	263,343278	0
15.01.2021	03:30:36	0	0	2,711794	2,0205	21,3876	-0,917	77,808	0	1009,42	5,1	7,3	7,1	1	1	1	1	1	1	1	1	1	0	1	-47,21635	272,561907	265,711126	0
15.01.2021	03:30:37	0	0	3,954699	2,091	31,3992	-0,917	77,792	0	1009,36	5,1	7,3	7,1	1	1	1	1	1	1	1	1	1	0	1	-47,850599	272,568796	265,108512	0
15.01.2021	03:30:38	0	0	4,406665	2,109	19,9188	-0,919	77,798	0	1009,42	5,1	7,3	7,1	1	1	1	1	1	1	1	1	1	0	1	-47,709655	272,482184	264,85186	0
15.01.2021	03:30:39	0	0	4,067691	2,10225	25,1352	-0,916	77,796	0	1009,6	5,1	7,3	7,1	1	1	1	1	1	1	1	1	1	0	1	-49,048626	272,570174	263,916814	0
15.01.2021	03:30:40	0	0	4,293674	2,037	22,8348	-0,919	77,809	0	1009,66	5,1	7,3	7,1	1	1	1	1	1	1	1	1	1	0	1	-41,719521	272,545385	271,132087	0
15.01.2021	03:30:41	0	0	4,745639	2,055	31,4172	-0,916	77,79	0	1009,46	5,1	7,3	7,1	1	1	1	1	1	1	1	1	1	0	1	-46,088795	272,41919	266,183784	0
15.01.2021	03:30:42	0	0	2,711794	2,0475	26,532	-0,921	77,808	0	1009,56	5,1	7,3	7,1	1	1	1	1	1	1	1	1	1	0	1	-46,018323	272,567418	266,93446	0
15.01.2021	03:30:43	0	0	3,16376	2,082	29,2356	-0,923	77,795	0	1009,64	5,1	7,3	7,1	1	1	1	1	1	1	1	1	1	0	1	-43,551797	272,456139	268,890235	0
15.01.2021	03:30:44	0	0	3,276751	2,1855	18,8424	-0,917	77,799	0	1009,62	5,1	7,3	7,1	1	1	1	1	1	1	1	1	1	0	1	-45,877378	272,404157	266,326277	0
15.01.2021	03:30:45	0	0	4,180682	2,22	27,2844	-0,925	77,807	0	1009,48	5,1	7,3	7,1	1	1	1	1	1	1	1	1	1	0	1	-46,511628	272,423292	265,779759	0
15.01.2021	03:30:46	0	0	2,824785	2,32125	28,7388	-0,922	77,806	0	1009,52	5,1	7,3	7,1	1	1	1	1	1	1	1	1	1	0	1	-47,286822	272,531628	265,501624	0
15.01.2021	03:30:47	0	0	3,728717	2,472	19,908	-0,921	77,795	0	1009,56	5,1	7,3	7,1	1	1	1	1	1	1	1	1	1	0	1	-47,56871	272,472584	264,948761	0
15.01.2021	03:30:48	0	0	3,050768	2,625	20,6532	-0,924	77,821	0	1009,5	5,1	7,3	7,1	1	1	1	1	1	1	1	1	1	0	1	-43,128964	272,571552	269,842805	0
15.01.2021	03:30:49	0	0	4,406665	2,70075	13,554	-0,924	77,811	0	1009,5	5,1	7,3	7,1	1	1	1	1	1	1	1	1	1	0	1	-49,471459	272,555021	263,424396	0
15.01.2021	03:30:50	0	0	2,711794	2,7075	18,8676	-0,925	77,812	0	1009,5	5,1	7,3	7,1	1	1	1	1	1	1	1	1	1	0	1	-42,001409	272,447922	270,402932	0
15.01.2021	03:30:51	0	0	3,050768	2,58525	22,8312	-0,918	77,814	0	1009,48	5,1	7,3	7,1	1	1	1	1	1	1	1	1	1	0	1	-45,59549	272,575686	267,39527	0
15.01.2021	03:30:52	0	0	3,16376	2,45625	17,2476	-0,919	77,821	0	1009,5	5,1	7,3	7,1	1	1	1	1	1	1	1	1	1	0	1	-47,639183	272,578443	265,364241	0
15.01.2021	03:30:53	0	0	2,937759	2,30475	17,712	-0,919	77,806	0	1009,38	5,1	7,3	7,2	1	1	1	1	1	1	1	1	1	0	1	-48,555321	272,491788	264,050264	0
15.01.2021	03:30:54	0	0	4,971622	2,226	40,2516	-0,919	77,805	0	1009,46	5,1	7,3	7,1	1	1	1	1	1	1	1	1	1	0	1	-46,441156	272,544009	266,404134	0
15.01.2021	03:30:55	0	0	4,745639	2,21475	21,0348	-0,927	77,822	0	1009,5	5,1	7,3	7,1	1	1	1	1	1	1	1	1	1	0	1	-46,793517	272,578443	266,209907	0
15.01.2021	03:30:56	0	0	3,841685	2,3085	33,6492	-0,923	77,81	0	1009,4	5,2	7,3	7,2	1	1	1	1	1	1	1	1	1	0	1	-48,484848	272,509637	264,202651	0
15.01.2021	03:30:57	0	0	4,067691	2,30475	24,7212	-0,92	77,829	0	1009,48	5,1	7,3	7,1	1	1	1	1	1	1	1	1	1	0	1	-46,511628	272,393232	265,641944	0
15.01.2021	03:30:58	0	0	4,293674	2,28375	22,8456	-0,926	77,82	0	1009,52	5,1	7,3	7,1	1	1	1	1	1	1	1	1	1	0	1	-43,904158	272,552268	268,979052	0
15.01.2021	03:30:59	0	0	4,519656	2,35125	27,972	-0,92	77,843	0	1009,54	5,1	7,3	7,1	1	1	1	1	1	1	1	1	1	0	1	-45,665962	272,40689	266,550221	0
15.01.2021	03:31:00	0	0	4,858631	2,517	24,0624	-0,919	77,858	0	1009,58	5,1	7,4	7,1	1	1	1	1	1	1	1	1	1	0	1	-46,934461	272,49316	265,677422	0
15.01.2021	03:31:01	0	0	4,858631	2,517	24,0624	-0,919	77,858	0	1009,58	5,1	7,4	7,1	1	1	1	1	1	1	1	1	1	0	1	-46,934461	272,49316	265,677422	0
15.01.2021	03:31:02	0	0	2,598802	2,505	26,91	-0,926	77,856	0	1009,54	5,1	7,3	7,1	1	1	1	1	1	1	1	1	1	0	1	-43,692741	272,570174	269,272698	0
15.01.2021	03:31:03	0	0	5,197605	2,48325	27,2808	-0,917	77,855	0	1009,56	5,2	7,3	7,1	1	1	1	1	1	1	1	1	1	0	1	-41,437632	272,408256	270,784814	0
15.01.2021	03:31:04	0	0	3,615725	2,424	31,0284	-0,92	77,853	0	1009,52	5,1	7,3	7,1	1	1	1	1	1	1	1	1	1	0	1	-47,850599	272,538506	264,969421	0
15.01.2021	03:31:05	0	0	2,937777	2,403	32,166	-0,919	77,86	0	1009,54	5,1	7,3	7,1	1	1	1	1	1	1	1	1	1	0	1	-43,763214	272,404157	268,440442	0
15.01.2021	03:31:06	0	0	2,711794	2,406	23,5764	-0,924	77,87	0	1009,42	5,1	7,4	7,1	1	1	1	1	1	1	1	1	1	0	1	-44,326991	272,484927	268,247113	0
15.01.2021	03:31:07	0	0	4,858631	2,36325	27,2772	-0,92	77,855	0	1009,56	5,1	7,3	7,1	1	1	1	1	1	1	1	1	1	0	1	-50,246653	272,430131	262,076093	0
15.01.2021	03:31:08	0	0	2,824785	2,355	19,53	-0,918	77,855	0	1009,64	5,1	7,3	7,1	1	1	1	1	1	1	1	1	1	0	1	-44,115574	272,40006	268,069296	0
15.01.2021	03:31:09	0	0	4,519656	2,33925	22,8528	-0,919	77,863	0	1009,48	5,2	7,3	7,1	1	1	1	1	1	1	1	1	1	0	1	-47,921071	272,484927	264,653032	0
15.01.2021	03:31:10	0	0	5,197574	2,3565	18,45	-0,917	77,861	0	1009,42	5,2	7,3	7,2	1	1	1	1	1	1	1	1	1	0	1	-47,921071	272,41919	264,351508	0
15.01.2021	03:31:11	0	0	3,841708	2,43225	20,6352	-0,925	77,859	0	1009,34	5,2	7,3	7,1	1	1	1	1	1	1	1	1	1	0	1	-43,551797	272,432867	268,783496	0
15.01.2021	03:31:12	0	0	2,598787	2,52	25,146	-0,917	77,879	0	1009,58	5,1	7,4	7,2	1	1	1	1	1	1	1	1	1	0	1	-50,035236	272,445184	262,356546	0
15.01.2021	03:31:13	0	0	3,276731	2,556	19,9044	-0,918	77,884	0	1009,44	5,1	7,3	7,2	1	1	1	1	1	1	1	1	1	0	1	-47,357294	272,581201	265,658795	0
15.01.2021	03:31:14	0	0	4,293674	2,51175	26,8956	-0,917	77,877	0	1009,54	5,1	7,3	7,1	1	1	1	1	1	1	1	1	1	0	1	-44,115574	272,549515	268,754993	0
15.01.2021	03:31:15	0	0	2,937759	2,4405	28,728	-0,917	77,88	0	1009,48	5,2	7,4	7,2	1	1	1	1	1	1	1	1	1	0	1	-43,058492	272,460249	269,402393	0
15.01.2021	03:31:16	0	0	2,598802	2,38575	20,6388	-0,921	77,868	0	1009,62	5,1	7,3	7,1	1	1	1	1	1	1	1	1	1	0	1	-48,20296	272,434235	264,138608	0
15.01.2021	03:31:17	0	0	4,745639	2,33775	20,2896	-0,922	77,864	0	1009,46	5,2	7,3	7,1	1	1	1	1	1	1	1	1	1	0	1	-48,766737	272,511011	263,927068	0
15.01.2021	03:31:18	0	0	3,163741	2,36775	29,5704	-0,919	77,864	0	1009,36	5,1	7,4	7,2	1	1	1	1	1	1	1	1	1	0	1	-46,5821	272,575686	266,40866	0
15.01.2021	03:31:19	0	0	2,824785	2,45325	21,1212	-0,924	77,882	0	1009,46	5,1	7,3	7,1	1	1	1	1	1	1	1	1	1	0	1	-43,763214	272,465731	268,722815	0
15.01.2021	03:31:20	0	0	3,615725	2,50275	29,9556	-0,923	77,871	0	1009,42	5,2	7,4	7,1	1	1	1	1	1	1	1	1	1	0	1	-46,229739	272,538506	266,590281	0
15.01.2021	03:31:21	0	0	3,841685	2,4945	28,3644	-0,923	77,881	0	1009,54	5,2	7,3	7,2	1	1	1	1	1	1	1	1	1	0	1	-45,384073	272,402791	266,81332	0
15.01.2021	03:31:22	0	0	2,824785	2,439	28,3572	-0,925	77,897	0	1009,54	5,2	7,3	7,1	1	1	1	1	1	1	1	1	1	0	1	-44,96124	272,517881	267,764098	0
15.01.2021	03:31:23	0	0	4,745639	2,4375	22,8276	-0,928	77,889	0	1009,32	5,2	7,3	7,1	1	1	1	1	1	1	1	1	1	0	1	-47,921071	272,409622	264,30764	0
15.01.2021	03:31:24	0	0	3,16376	2,51625	28,7316	-0,925	77,898	0	1009,3	5,1	7,3	7,1	1	1	1	1	1	1	1	1	1	0	1	-48,766737	272,417823	263,499573	0
15.01.2021	03:31:25	0	0	3,16376	2,52825	19,53	-0,922	77,895	0	1009,54	5,2	7,3	7,1	1	1	1	1	1	1	1	1	1	0	1	-43,481325	272,497278	269,149455	0
15.01.2021	03:31:26	0	0	3,276751	2,55975	22,842	-0,926	77,909	0	1009,34	5,1	7,3	7,1	1	1	1	1	1	1	1	1	1	0	1	-40,591966	272,578443	272,411457	0
15.01.2021	03:31:27	0	0	3,841685	2,55375	21,7656	-0,925	77,901	0	1009,34	5,1	7,3	7,2	1	1	1	1	1	1	1	1	1	0	1	-48,20296	272,563285	264,730842	0
15.01.2021	03:31:28	0	0	3,276751	2,47575	19,5264	-0,925	77,904	0	1009,36	5,1	7,3	7,1	1	1	1	1	1	1	1	1	1	0	1	-45,59549	272,483555	266,972319	0
15.01.2021	03:31:29	0	0	3,728717	2,47125	22,4784	-0,923	77,901	0	1009,58	5,2	7,3	7,1	1	1	1	1	1	1	1	1	1	0	1	-44,538407	272,426027	267,765522	0
15.01.2021	03:31:30	0	0	5,197605	2,48625	33,2496	-0,92	77,922	0	1009,6	5,1	7,3	7,1	1	1	1	1	1	1	1	1	1	0	1	-42,635659	272,550891	270,24123	0
15.01.2021	03:31:31	0	0	4,632648	2,40825	31,41	-0,928	77,915	0	1009,54	5,2	7,3	7,1	1	1	1	1	1	1	1	1	1	0	1	-44,749824	272,469843	267,755069	0
15.01.2021	03:31:32	0	0	3,276731	2,2545	29,9556	-0,926	77,915	0	1009,44	5,2	7,3	7,2	1	1	1	1	1	1	1	1	1	0	1	-45,031712	272,402791	267,165681	0
15.01.2021	03:31:33	0	0	4,858631	2,2785	25,4304	-0,923	77,92	0	1009,48	5,2	7,3	7,1	1	1	1	1	1	1	1	1	1	0	1	-45,877378	272,46299	266,596077	0
15.01.2021	03:31:34	0	0	4,406665	2,3295	23,9688	-0,919	77,918	0	1009,6	5,2	7,3	7,1	1	1	1	1	1	1	1	1	1	0	1	-47,004933	272,394597	265,154897	0
15.01.2021	03:31:35	0	0	4,293674	2,448	23,9688	-0,924	77,928	0	1009,36	5,2	7,4	7,1	1	1	1	1	1	1	1	1	1	0	1	-45,806906	272,588096	267,240856	0
15.01.2021	03:31:36	0	0	4,067666	2,54925	29,1096	-0,925	77,937	0	1009,5	5,2	7,4	7,2	1	1	1	1	1	1	1	1	1	0	1	-41,578576	272,473955	270,945186	0
15.01.2021	03:31:37	0	0	4,971592	2,5125	22,8348	-0,922	77,926	0	1009,56	5,2	7,3	7,2	1	1	1	1	1	1	1	1	1	0	1	-48,625793	272,579822	264,383963	0
15.01.2021	03:31:38	0	0	3,841708	2,34675	19,6164	-0,926	77,933	0	1009,5	5,2	7,3	7,1	1	1	1	1	1	1	1	1	1	0	1	-43,269908	272,552268	269,613302	0
15.01.2021	03:31:39	0	0	4,632648	2,19525	21,0348	-0,924	77,929	0	1009,52	5,2	7,4	7,1	1	1	1	1	1	1	1	1	1	0	1	-46,511628	272,40689	265,704555	0
15.01.2021	03:31:40	0	0	3,276751	2,13	22,482	-0,923	77,94	0	1009,3	5,1	7,3	7,1	1	1	1	1	1	1	1	1	1	0	1	-49,471459	272,423292	262,819929	0
15.01.2021	03:31:41	0	0	3,841708	2,07825	21,0312	-0,924	77,928	0	1009,44	5,1	7,3	7,1	1	1	1	1	1	1	1	1	1	0	1	-46,088795	272,530253	266,693337	0
15.01.2021	03:31:42	0	0	3,728694	2,09775	17,7156	-0,93	77,946	0	1009,56	5,1	7,3	7,2	1	1	1	1	1	1	1	1	1	0	1	-44,467935	272,588096	268,579827	0
15.01.2021	03:31:43	0	0	2,824768	2,082	16,0992	-0,927	77,933	0	1009,52	5,1	7,3	7,2	1	1	1	1	1	1	1	1	1	0	1	-43,269908	272,430131	269,052837	0
15.01.2021	03:31:44	0	0	2,937759	2,025	21,0204	-0,93	77,94	0	1009,48	5,2	7,4	7,2	1	1	1	1	1	1	1	1	1	0	1	-44,96124	272,590855	268,099195	0
15.01.2021	03:31:45	0	0	2,37282	1,89975	16,11	-0,927	77,94	0	1009,48	5,2	7,4	7,1	1	1	1	1	1	1	1	1	1	0	1	-46,088795	272,443815	266,296708	0
15.01.2021	03:31:46	0	0	2,824768	1,98825	23,2236	-0,921	77,962	0	1009,58	5,2	7,4	7,2	1	1	1	1	1	1	1	1	1	0	1	-41,296688	272,450661	271,120215	0
15.01.2021	03:31:47	0	0	2,711778	2,22375	21,0312	-0,924	77,957	0	1009,46	5,1	7,3	7,2	1	1	1	1	1	1	1	1	1	0	1	-41,719521	272,58258	271,302902	0
15.01.2021	03:31:48	0	0	3,389742	2,45175	25,4304	-0,927	77,952	0	1009,42	5,2	7,4	7,1	1	1	1	1	1	1	1	1	1	0	1	-41,226216	272,478069	271,31642	0
15.01.2021	03:31:49	0	0	4,971622	2,535	26,5212	-0,928	77,954	0	1009,46	5,2	7,4	7,1	1	1	1	1	1	1	1	1	1	0	1	-49,330514	272,586717	263,710912	0
15.01.2021	03:31:50	0	0	3,728717	2,51775	29,5848	-0,923	77,965	0	1009,58	5,2	7,4	7,1	1	1	1	1	1	1	1	1	1	0	1	-48,343904	272,504143	264,318381	0
15.01.2021	03:31:51	0	0	4,406665	2,523	23,6052	-0,92	77,974	0	1009,54	5,2	7,2	7,1	1	1	1	1	1	1	1	1	1	0	1	-46,5821	272,588096	266,465662	0
15.01.2021	03:31:52	0	0	3,16376	2,3445	15,4188	-0,928	77,96	0	1009,44	5,1	7,4	7,1	1	1	1	1	1	1	1	1	1	0	1	-44,115574	272,556398	268,786603	0
15.01.2021	03:31:53	0	0	3,615704	2,2935	21,7728	-0,924	77,971	0	1009,58	5,1	7,4	7,2	1	1	1	1	1	1	1	1	1	0	1	-43,481325	272,527503	269,288183	0
15.01.2021	03:31:54	0	0	3,163741	2,2485	20,2968	-0,929	77,969	0	1009,58	5,2	7,4	7,2	1	1	1	1	1	1	1	1	1	0	1	-43,833686	272,579822	269,17607	0
15.01.2021	03:31:55	0	0	4,406665	2,26575	9,3708	-0,925	77,976	0	1009,42	5,2	7,3	7,1	1	1	1	1	1	1	1	1	1	0	1	-43,199436	272,483555	269,368373	0
15.01.2021	03:31:56	0	0	4,519656	2,24025	21,4056	-0,927	77,977	0	1009,44	5,2	7,4	7,1	1	1	1	1	1	1	1	1	1	0	1	-46,723044	272,597754	266,369084	0
15.01.2021	03:31:57	0	0	4,519656	2,15325	15,4044	-0,927	77,972	0	1009,6	5,2	7,4	7,1	1	1	1	1	1	1	1	1	1	0	1	-47,427766	272,556398	265,474412	0
15.01.2021	03:31:58	0	0	3,276731	2,286	26,172	-0,921	77,986	0	1009,58	5,2	7,4	7,2	1	1	1	1	1	1	1	1	1	0	1	-48,978154	272,473955	263,545608	0
15.01.2021	03:31:59	0	0	3,163741	2,4975	28,3572	-0,922	77,989	0	1009,54	5,2	7,4	7,2	1	1	1	1	1	1	1	1	1	0	1	-48,555321	272,408256	263,667126	0
15.01.2021	03:32:00	0	0	4,406665	2,778	24,7356	-0,927	77,979	0	1009,56	5,2	7,3	7,1	1	1	1	1	1	1	1	1	1	0	1	-43,833686	272,402791	268,363708	0
15.01.2021	03:32:01	0	0	4,406665	2,778	24,7356	-0,927	77,979	0	1009,56	5,2	7,3	7,1	1	1	1	1	1	1	1	1	1	0	1	-43,833686	272,402791	268,363708	0
15.01.2021	03:32:02	0	0	3,728717	2,6565	25,4196	-0,926	77,991	0	1009,52	5,2	7,3	7,1	1	1	1	1	1	1	1	1	1	0	1	-44,96124	272,535754	267,846148	0
15.01.2021	03:32:03	0	0	3,163741	2,4555	17,7012	-0,928	77,99	0	1009,54	5,2	7,3	7,2	1	1	1	1	1	1	1	1	1	0	1	-46,370684	272,56604	266,575772	0
15.01.2021	03:32:04	0	0	3,16376	2,31375	8,2656	-0,923	78	0	1009,4	5,2	7,4	7,1	1	1	1	1	1	1	1	1	1	0	1	-45,454545	272,432867	266,880747	0
15.01.2021	03:32:05	0	0	3,841685	2,33775	21,3804	-0,92	77,984	0	1009,46	5,2	7,4	7,2	1	1	1	1	1	1	1	1	1	0	1	-44,115574	272,526128	268,647621	0
15.01.2021	03:32:06	0	0	4,519656	2,28975	20,376	-0,925	78,001	0	1009,58	5,2	7,3	7,1	1	1	1	1	1	1	1	1	1	0	1	-46,723044	272,579822	266,286711	0
15.01.2021	03:32:07	0	0	2,711778	2,247	15,7788	-0,927	78,004	0	1009,62	5,1	7,4	7,2	1	1	1	1	1	1	1	1	1	0	1	-41,296688	272,445184	271,095094	0
15.01.2021	03:32:08	0	0	3,389742	2,33025	10,0728	-0,926	78,018	0	1009,56	5,2	7,4	7,1	1	1	1	1	1	1	1	1	1	0	1	-44,397463	272,57293	268,580636	0
15.01.2021	03:32:09	0	0	2,824785	2,3685	16,8624	-0,923	77,991	0	1009,5	5,1	7,4	7,1	1	1	1	1	1	1	1	1	1	0	1	-47,850599	272,420557	264,428249	0
15.01.2021	03:32:10	0	0	4,067666	2,31525	9,3816	-0,927	78,002	0	1009,46	5,2	7,4	7,2	1	1	1	1	1	1	1	1	1	0	1	-42,283298	272,519255	270,448348	0
15.01.2021	03:32:11	0	0	4,632648	2,31	17,8128	-0,923	78,004	0	1009,5	5,2	7,4	7,1	1	1	1	1	1	1	1	1	1	0	1	-43,410853	272,420557	268,867995	0
15.01.2021	03:32:12	0	0	3,502734	2,2395	7,1352	-0,928	78,017	0	1009,38	5,2	7,4	7,1	1	1	1	1	1	1	1	1	1	0	1	-48,414376	272,450661	264,002526	0
15.01.2021	03:32:13	0	0	2,937777	2,376	11,718	-0,925	78,018	0	1009,6	5,2	7,3	7,1	1	1	1	1	1	1	1	1	1	0	1	-44,467935	272,504143	268,19435	0
15.01.2021	03:32:14	0	0	2,937759	2,51025	15,4152	-0,922	78,014	0	1009,54	5,2	7,4	7,2	1	1	1	1	1	1	1	1	1	0	1	-49,18957	272,40006	262,9953	0
15.01.2021	03:32:15	0	0	4,293648	2,62275	7,128	-0,917	78,019	0	1009,52	5,2	7,4	7,2	1	1	1	1	1	1	1	1	1	0	1	-44,538407	272,436972	267,81571	0
15.01.2021	03:32:16	0	0	3,954699	2,69025	19,9116	-0,918	78,026	0	1009,62	5,1	7,4	7,1	1	1	1	1	1	1	1	1	1	0	1	-44,045102	272,45203	268,378082	0
15.01.2021	03:32:17	0	0	4,858631	2,5455	19,5444	-0,92	78,023	0	1009,6	5,1	7,4	7,1	1	1	1	1	1	1	1	1	1	0	1	-46,652572	272,408256	265,569874	0
15.01.2021	03:32:18	0	0	3,615704	2,4225	17,2368	-0,925	78,026	0	1009,5	5,2	7,4	7,2	1	1	1	1	1	1	1	1	1	0	1	-44,749824	272,508263	267,931371	0
15.01.2021	03:32:19	0	0	2,937777	2,433	21,3876	-0,927	78,009	0	1009,38	5,1	7,4	7,1	1	1	1	1	1	1	1	1	1	0	1	-45,031712	272,41919	267,240866	0
15.01.2021	03:32:20	0	0	2,711778	2,61525	22,0644	-0,924	78,024	0	1009,34	5,1	7,3	7,2	1	1	1	1	1	1	1	1	1	0	1	-45,59549	272,557775	267,313012	0
15.01.2021	03:32:21	0	0	5,310565	2,733	10,8288	-0,93	78,028	0	1009,54	5,2	7,4	7,2	1	1	1	1	1	1	1	1	1	0	1	-45,454545	272,513758	267,251871	0
15.01.2021	03:32:22	0	0	2,372805	2,69475	15,7896	-0,921	78,035	0	1009,58	5,1	7,3	7,2	1	1	1	1	1	1	1	1	1	0	1	-46,723044	272,404157	265,480612	0
15.01.2021	03:32:23	0	0	4,745611	2,574	18,4608	-0,926	78,039	0	1009,62	5,2	7,4	7,2	1	1	1	1	1	1	1	1	1	0	1	-44,397463	272,45203	268,025721	0
15.01.2021	03:32:24	0	0	2,598787	2,52825	21,0276	-0,923	78,047	0	1009,62	5,1	7,4	7,2	1	1	1	1	1	1	1	1	1	0	1	-47,21635	272,58258	265,806073	0
15.01.2021	03:32:25	0	0	4,067666	2,3115	17,2368	-0,93	78,042	0	1009,36	5,1	7,3	7,2	1	1	1	1	1	1	1	1	1	0	1	-44,256519	272,404157	267,947137	0
15.01.2021	03:32:26	0	0	4,63262	2,19525	26,9064	-0,922	78,049	0	1009,66	5,2	7,4	7,2	1	1	1	1	1	1	1	1	1	0	1	-44,679352	272,469843	267,825541	0
15.01.2021	03:32:27	0	0	3,16376	2,30925	12,8664	-0,927	78,047	0	1009,46	5,2	7,2	7,1	1	1	1	1	1	1	1	1	1	0	1	-47,21635	272,408256	265,006097	0
15.01.2021	03:32:28	0	0	3,728717	2,4495	17,2404	-0,924	78,036	0	1009,5	5,1	7,4	7,1	1	1	1	1	1	1	1	1	1	0	1	-47,075405	272,457509	265,37291	0
15.01.2021	03:32:29	0	0	3,276731	2,5935	29,5776	-0,923	78,061	0	1009,56	5,2	7,3	7,2	1	1	1	1	1	1	1	1	1	0	1	-43,410853	272,583959	269,617904	0
15.01.2021	03:32:30	0	0	4,971622	2,5515	26,9064	-0,925	78,06	0	1009,52	5,1	7,4	7,1	1	1	1	1	1	1	1	1	1	0	1	-47,709655	272,559153	265,205171	0
15.01.2021	03:32:31	0	0	2,711794	2,5395	19,1628	-0,922	78,062	0	1009,44	5,1	7,3	7,1	1	1	1	1	1	1	1	1	1	0	1	-42,071882	272,520629	270,666073	0
15.01.2021	03:32:32	0	0	3,276731	2,45625	18,1872	-0,923	78,064	0	1009,5	5,1	7,4	7,2	1	1	1	1	1	1	1	1	1	0	1	-43,269908	272,58258	269,752514	0
15.01.2021	03:32:33	0	0	2,711778	2,3565	3,8016	-0,923	78,043	0	1009,44	5,1	7,4	7,2	1	1	1	1	1	1	1	1	1	0	1	-44,045102	272,577065	268,951989	0
15.01.2021	03:32:34	0	0	4,63262	2,31	22,0896	-0,922	78,058	0	1009,5	5,1	7,4	7,2	1	1	1	1	1	1	1	1	1	0	1	-43,833686	272,495905	268,790794	0
15.01.2021	03:32:35	0	0	3,954699	2,2545	25,4124	-0,924	78,064	0	1009,6	5,2	7,4	7,1	1	1	1	1	1	1	1	1	1	0	1	-44,679352	272,590855	268,381084	0
15.01.2021	03:32:36	0	0	3,728694	2,2665	18,8532	-0,925	78,066	0	1009,52	5,2	7,4	7,2	1	1	1	1	1	1	1	1	1	0	1	-45,031712	272,515132	267,68101	0
15.01.2021	03:32:37	0	0	4,067666	2,331	19,1448	-0,923	78,078	0	1009,52	5,1	7,4	7,2	1	1	1	1	1	1	1	1	1	0	1	-48,625793	272,579822	264,383963	0
15.01.2021	03:32:38	0	0	3,728717	2,3595	16,4916	-0,924	78,08	0	1009,62	5,1	7,2	7,1	1	1	1	1	1	1	1	1	1	0	1	-48,343904	272,43834	264,01649	0
15.01.2021	03:32:39	0	0	4,745611	2,34075	19,5336	-0,923	78,075	0	1009,38	5,1	7,4	7,2	1	1	1	1	1	1	1	1	1	0	1	-44,186047	272,450661	268,230856	0
15.01.2021	03:32:40	0	0	2,711778	2,304	12,87	-0,924	78,076	0	1009,6	5,1	7,4	7,2	1	1	1	1	1	1	1	1	1	0	1	-46,934461	272,588096	266,113302	0
15.01.2021	03:32:41	0	0	2,937759	2,4585	26,532	-0,921	78,087	0	1009,48	5,1	7,4	7,2	1	1	1	1	1	1	1	1	1	0	1	-46,511628	272,449292	265,898994	0
15.01.2021	03:32:42	0	0	4,63262	2,733	26,9244	-0,928	78,077	0	1009,34	5,1	7,4	7,2	1	1	1	1	1	1	1	1	1	0	1	-43,269908	272,42466	269,02775	0
15.01.2021	03:32:43	0	0	2,711778	2,73525	34,398	-0,93	78,092	0	1009,62	5,1	7,3	7,2	1	1	1	1	1	1	1	1	1	0	1	-46,934461	272,46299	265,538995	0
15.01.2021	03:32:44	0	0	3,841685	2,724	19,1592	-0,921	78,105	0	1009,68	5,1	7,3	7,2	1	1	1	1	1	1	1	1	1	0	1	-41,085271	272,588096	271,962491	0
15.01.2021	03:32:45	0	0	4,858602	2,75475	36,2304	-0,92	78,108	0	1009,48	5,1	7,3	7,2	1	1	1	1	1	1	1	1	1	0	1	-47,004933	272,556398	265,897245	0
15.01.2021	03:32:46	0	0	4,519629	2,6895	35,9496	-0,919	78,099	0	1009,56	5,1	7,3	7,2	1	1	1	1	1	1	1	1	1	0	1	-43,763214	272,53713	269,05049	0
15.01.2021	03:32:47	0	0	4,745611	2,83125	37,3212	-0,928	78,104	0	1009,52	5,1	7,3	7,2	1	1	1	1	1	1	1	1	1	0	1	-44,326991	272,586717	268,714436	0
15.01.2021	03:32:48	0	0	4,745611	2,93325	29,5632	-0,925	78,099	0	1009,6	5,1	7,3	7,2	1	1	1	1	1	1	1	1	1	0	1	-44,96124	272,516506	267,75779	0
15.01.2021	03:32:49	0	0	4,858602	2,973	33,6312	-0,923	78,116	0	1009,5	5,1	7,3	7,2	1	1	1	1	1	1	1	1	1	0	1	-46,159267	272,590855	266,901169	0
15.01.2021	03:32:50	0	0	3,841685	2,90775	31,7772	-0,924	78,117	0	1009,48	5,1	7,2	7,2	1	1	1	1	1	1	1	1	1	0	1	-41,719521	272,423292	270,571867	0
15.01.2021	03:32:51	0	0	4,067666	2,712	35,0892	-0,918	78,106	0	1009,56	5,1	7,4	7,2	1	1	1	1	1	1	1	1	1	0	1	-46,793517	272,513758	265,9129	0
15.01.2021	03:32:52	0	0	2,937759	2,547	23,2056	-0,924	78,119	0	1009,72	5,1	7,4	7,2	1	1	1	1	1	1	1	1	1	0	1	-46,229739	272,41919	266,04284	0
15.01.2021	03:32:53	0	0	3,615704	2,52075	28,7244	-0,924	78,119	0	1009,44	5,1	7,3	7,2	1	1	1	1	1	1	1	1	1	0	1	-46,793517	272,531628	265,994929	0
15.01.2021	03:32:54	0	0	4,067666	2,43	22,0788	-0,929	78,112	0	1009,52	5,1	7,3	7,2	1	1	1	1	1	1	1	1	1	0	1	-43,551797	272,567418	269,400986	0
15.01.2021	03:32:55	0	0	2,598787	2,38725	23,2272	-0,923	78,107	0	1009,5	5,1	7,3	7,2	1	1	1	1	1	1	1	1	1	0	1	-43,199436	272,409622	269,029275	0
15.01.2021	03:32:56	0	0	3,615704	2,2755	19,5372	-0,926	78,122	0	1009,52	5,1	7,3	7,2	1	1	1	1	1	1	1	1	1	0	1	-47,145877	272,508263	265,535318	0
15.01.2021	03:32:57	0	0	2,598787	2,2455	13,158	-0,921	78,133	0	1009,52	5,1	7,3	7,2	1	1	1	1	1	1	1	1	1	0	1	-45,877378	272,41919	266,3952	0
15.01.2021	03:32:58	0	0	3,05075	2,26725	15,4116	-0,915	78,132	0	1009,58	5,1	7,3	7,2	1	1	1	1	1	1	1	1	1	0	1	-44,397463	272,500024	268,245917	0
15.01.2021	03:32:59	0	0	4,519629	2,2155	33,3576	-0,919	78,123	0	1009,42	5,1	7,3	7,2	1	1	1	1	1	1	1	1	1	0	1	-39,534884	272,408256	272,687563	0
15.01.2021	03:33:00	0	0	3,728694	2,0565	23,9688	-0,922	78,138	0	1009,54	5,1	7,3	7,2	1	1	1	1	1	1	1	1	1	0	1	-40,591966	272,484927	271,982137	0
15.01.2021	03:33:01	0	0	3,728694	2,0565	23,9688	-0,922	78,138	0	1009,54	5,1	7,3	7,2	1	1	1	1	1	1	1	1	1	0	1	-40,591966	272,484927	271,982137	0
15.01.2021	03:33:02	0	0	3,615704	2,061	25,8048	-0,925	78,129	0	1009,44	5,1	7,3	7,2	1	1	1	1	1	1	1	1	1	0	1	-47,145877	272,58258	265,876545	0
15.01.2021	03:33:03	0	0	5,197574	2,0475	24,3576	-0,919	78,134	0	1009,34	5,1	7,3	7,2	1	1	1	1	1	1	1	1	1	0	1	-41,155743	272,585338	271,879348	0
15.01.2021	03:33:04	0	0	4,180657	1,96125	23,5836	-0,922	78,133	0	1009,52	5,1	7,3	7,2	1	1	1	1	1	1	1	1	1	0	1	-44,045102	272,476698	268,491242	0
15.01.2021	03:33:05	0	0	2,485796	1,79025	40,2408	-0,922	78,135	0	1009,56	5,1	7,3	7,2	1	1	1	1	1	1	1	1	1	0	1	-41,578576	272,408256	270,64387	0
15.01.2021	03:33:06	0	0	5,197574	1,61775	2,2896	-0,922	78,133	0	1009,42	5,1	7,3	7,2	1	1	1	1	1	1	1	1	1	0	1	-41,437632	272,557775	271,470869	0
15.01.2021	03:33:07	0	0	3,954676	1,69425	15,0264	-0,923	78,141	0	1009,56	5,1	7,3	7,2	1	1	1	1	1	1	1	1	1	0	1	-43,551797	272,508263	269,129398	0
15.01.2021	03:33:08	0	0	4,180657	1,5915	8,2728	-0,924	78,149	0	1009,5	5,1	7,3	7,2	1	1	1	1	1	1	1	1	1	0	1	-43,269908	272,408256	268,952538	0
15.01.2021	03:33:09	0	0	2,485796	1,48575	10,53	-0,924	78,144	0	1009,44	5,1	7,3	7,2	1	1	1	1	1	1	1	1	1	0	1	-40,873855	272,446553	271,524207	0
15.01.2021	03:33:10	0	0	4,180657	1,38975	349,0272	-0,918	78,143	0	1009,44	5,1	7,3	7,2	1	1	1	1	1	1	1	1	1	0	1	-44,820296	272,519255	267,91135	0
15.01.2021	03:33:11	0	0	3,615704	1,389	2,3184	-0,923	78,154	0	1009,52	5,1	7,3	7,2	1	1	1	1	1	1	1	1	1	0	1	-38,548273	272,397328	273,624076	0
15.01.2021	03:33:12	0	0	3,163741	1,53675	24,732	-0,924	78,144	0	1009,46	5,1	7,3	7,2	1	1	1	1	1	1	1	1	1	0	1	-41,226216	272,446553	271,171846	0
15.01.2021	03:33:13	0	0	4,858602	1,73925	6,066	-0,92	78,151	0	1009,62	5,1	7,3	7,2	1	1	1	1	1	1	1	1	1	0	1	-41,860465	272,538506	270,959555	0
15.01.2021	03:33:14	0	0	4,519656	1,9365	18,4608	-0,918	78,155	0	1009,36	5,1	7,3	7,1	1	1	1	1	1	1	1	1	1	0	1	-42,35377	272,56053	270,56738	0
15.01.2021	03:33:15	0	0	5,310565	2,16525	17,712	-0,921	78,16	0	1009,58	5,1	7,3	7,2	1	1	1	1	1	1	1	1	1	0	1	-42,283298	272,56604	270,663157	0
15.01.2021	03:33:16	0	0	2,598787	2,23725	20,394	-0,914	78,158	0	1009,5	5,1	7,3	7,2	1	1	1	1	1	1	1	1	1	0	1	-44,326991	272,578443	268,676432	0
15.01.2021	03:33:17	0	0	4,519629	2,35425	10,8252	-0,919	78,156	0	1009,58	5,1	7,3	7,2	1	1	1	1	1	1	1	1	1	0	1	-43,058492	272,520629	269,679463	0
15.01.2021	03:33:18	0	0	3,954676	2,358	14,6628	-0,92	78,145	0	1009,24	5,1	7,3	7,2	1	1	1	1	1	1	1	1	1	0	1	-41,649049	272,398694	270,529561	0
15.01.2021	03:33:19	0	0	3,954676	2,28675	26,5176	-0,919	78,159	0	1009,62	5,1	7,3	7,2	1	1	1	1	1	1	1	1	1	0	1	-42,001409	272,58258	271,021013	0
15.01.2021	03:33:20	0	0	4,293648	2,2035	24,7392	-0,917	78,152	0	1009,56	5,1	7,3	7,2	1	1	1	1	1	1	1	1	1	0	1	-40,028189	272,435603	272,319653	0
15.01.2021	03:33:21	0	0	3,276731	2,1405	29,1348	-0,921	78,162	0	1009,46	5,1	7,3	7,2	1	1	1	1	1	1	1	1	1	0	1	-39,957717	272,415089	272,296058	0
15.01.2021	03:33:22	0	0	5,084583	2,04225	35,4888	-0,918	78,155	0	1009,44	5,1	7,3	7,2	1	1	1	1	1	1	1	1	1	0	1	-43,410853	272,545385	269,440755	0
15.01.2021	03:33:23	0	0	4,745611	2,1315	19,908	-0,918	78,172	0	1009,54	5,1	7,3	7,2	1	1	1	1	1	1	1	1	1	0	1	-39,393939	272,417823	272,872371	0
15.01.2021	03:33:24	0	0	4,745611	2,1015	20,646	-0,922	78,145	0	1009,44	5,1	7,3	7,2	1	1	1	1	1	1	1	1	1	0	1	-40,169133	272,541257	272,66352	0
15.01.2021	03:33:25	0	0	3,389742	2,028	15,408	-0,922	78,16	0	1009,44	5,1	7,3	7,1	1	1	1	1	1	1	1	1	1	0	1	-43,904158	272,469843	268,600735	0
15.01.2021	03:33:26	0	0	4,745611	1,911	17,244	-0,923	78,141	0	1009,42	5,1	7,3	7,2	1	1	1	1	1	1	1	1	1	0	1	-41,508104	272,592234	271,558669	0
15.01.2021	03:33:27	0	0	4,519629	1,98975	12,87	-0,917	78,166	0	1009,54	5,1	7,3	7,2	1	1	1	1	1	1	1	1	1	0	1	-43,551797	272,545385	269,299811	0
15.01.2021	03:33:28	0	0	4,067666	2,0055	13,5396	-0,922	78,165	0	1009,56	5,1	7,3	7,2	1	1	1	1	1	1	1	1	1	0	1	-41,085271	272,476698	271,451073	0
15.01.2021	03:33:29	0	0	4,971592	2,04525	16,0992	-0,92	78,146	0	1009,42	5,1	7,3	7,2	1	1	1	1	1	1	1	1	1	0	1	-41,649049	272,402791	270,548345	0
15.01.2021	03:33:30	0	0	3,389722	2,0295	21,4056	-0,928	78,157	0	1009,44	5,1	7,3	7,2	1	1	1	1	1	1	1	1	1	0	1	-41,930937	272,511011	270,762867	0
15.01.2021	03:33:31	0	0	3,615704	1,99875	20,3004	-0,921	78,164	0	1009,54	5,1	7,3	7,2	1	1	1	1	1	1	1	1	1	0	1	-42,847075	272,417823	269,419235	0
15.01.2021	03:33:32	0	0	3,276751	2,2185	18,0792	-0,926	78,153	0	1009,62	5,1	7,3	7,1	1	1	1	1	1	1	1	1	1	0	1	-42,565187	272,447922	269,839155	0
15.01.2021	03:33:33	0	0	4,971592	2,36025	21,7692	-0,921	78,155	0	1009,36	5,1	7,3	7,2	1	1	1	1	1	1	1	1	1	0	1	-44,045102	272,45203	268,378082	0
15.01.2021	03:33:34	0	0	4,745611	2,3985	21,7836	-0,918	78,149	0	1009,38	5,1	7,3	7,2	1	1	1	1	1	1	1	1	1	0	1	-41,578576	272,404157	270,625079	0
15.01.2021	03:33:35	0	0	3,163741	2,31675	21,3876	-0,923	78,162	0	1009,46	5,1	7,3	7,2	1	1	1	1	1	1	1	1	1	0	1	-40,803383	272,542633	272,035588	0
15.01.2021	03:33:36	0	0	3,502713	2,37525	21,3912	-0,919	78,169	0	1009,6	5,1	7,3	7,2	1	1	1	1	1	1	1	1	1	0	1	-43,410853	272,416456	268,84919	0
15.01.2021	03:33:37	0	0	4,519629	2,46825	17,7012	-0,918	78,166	0	1009,54	5,1	7,3	7,2	1	1	1	1	1	1	1	1	1	0	1	-40,591966	272,585338	272,443125	0
15.01.2021	03:33:38	0	0	3,389722	2,68725	35,4888	-0,918	78,178	0	1009,58	5,1	7,3	7,2	1	1	1	1	1	1	1	1	1	0	1	-40,591966	272,528878	272,183853	0
15.01.2021	03:33:39	0	0	3,389742	2,8515	32,5008	-0,92	78,178	0	1009,44	5,1	7,3	7,1	1	1	1	1	1	1	1	1	1	0	1	-41,014799	272,589475	272,0393	0
15.01.2021	03:33:40	0	0	3,163741	3,15075	38,0664	-0,922	78,173	0	1009,32	5,1	7,3	7,2	1	1	1	1	1	1	1	1	1	0	1	-38,407329	272,410989	273,827647	0
15.01.2021	03:33:41	0	0	3,163741	3,07425	26,9064	-0,921	78,185	0	1009,52	5,1	7,3	7,2	1	1	1	1	1	1	1	1	1	0	1	-40,028189	272,528878	272,747631	0
15.01.2021	03:33:42	0	0	3,276731	3,0015	36,9396	-0,926	78,168	0	1009,3	5,1	7,3	7,2	1	1	1	1	1	1	1	1	1	0	1	-41,930937	272,416456	270,329105	0
15.01.2021	03:33:43	0	0	3,05075	2,8125	34,704	-0,916	78,183	0	1009,72	5,1	7,3	7,2	1	1	1	1	1	1	1	1	1	0	1	-46,793517	272,575686	266,197243	0
15.01.2021	03:33:44	0	0	5,197605	2,406	9,7632	-0,92	78,176	0	1009,54	5,1	7,3	7,1	1	1	1	1	1	1	1	1	1	0	1	-40,169133	272,497278	272,461646	0
15.01.2021	03:33:45	0	0	3,615725	2,2515	19,1484	-0,925	78,163	0	1009,48	5,1	7,3	7,1	1	1	1	1	1	1	1	1	1	0	1	-43,904158	272,45477	268,531591	0
15.01.2021	03:33:46	0	0	3,615725	2,169	11,808	-0,919	78,165	0	1009,58	5,1	7,3	7,1	1	1	1	1	1	1	1	1	1	0	1	-42,635659	272,57293	270,34244	0
15.01.2021	03:33:47	0	0	4,293648	2,18475	24,3432	-0,915	78,191	0	1009,5	5,1	7,3	7,2	1	1	1	1	1	1	1	1	1	0	1	-39,534884	272,579822	273,474872	0
15.01.2021	03:33:48	0	0	2,937759	2,238	26,5212	-0,924	78,178	0	1009,54	5,1	7,3	7,2	1	1	1	1	1	1	1	1	1	0	1	-40,732911	272,520629	272,005044	0
15.01.2021	03:33:49	0	0	2,824785	2,19375	15,0444	-0,919	78,186	0	1009,56	5,1	7,3	7,1	1	1	1	1	1	1	1	1	1	0	1	-43,340381	272,402791	268,857013	0
15.01.2021	03:33:50	0	0	4,971592	2,22	18,0936	-0,925	78,187	0	1009,4	5,1	7,3	7,2	1	1	1	1	1	1	1	1	1	0	1	-44,397463	272,571552	268,574306	0
15.01.2021	03:33:51	0	0	4,63262	2,2455	18,8316	-0,923	78,19	0	1009,54	5,1	7,3	7,2	1	1	1	1	1	1	1	1	1	0	1	-46,018323	272,45477	266,417426	0
15.01.2021	03:33:52	0	0	4,519629	2,2335	18,8496	-0,913	78,191	0	1009,46	5,1	7,3	7,2	1	1	1	1	1	1	1	1	1	0	1	-39,957717	272,520629	272,780238	0
15.01.2021	03:33:53	0	0	2,711778	2,32725	13,914	-0,919	78,193	0	1009,54	5,1	7,3	7,2	1	1	1	1	1	1	1	1	1	0	1	-42,001409	272,394597	270,158421	0
15.01.2021	03:33:54	0	0	4,745611	2,30175	13,9248	-0,92	78,24	0	1009,5	5,1	7,3	7,2	1	1	1	1	1	1	1	1	1	0	1	-47,498238	272,436972	264,85588	0
15.01.2021	03:33:55	0	0	4,519629	2,25675	15,4116	-0,919	78,167	0	1009,48	5,1	7,3	7,2	1	1	1	1	1	1	1	1	1	0	1	-44,045102	272,427395	268,265099	0
15.01.2021	03:33:56	0	0	4,293648	2,16675	13,5504	-0,911	78,184	0	1009,46	5,1	7,3	7,2	1	1	1	1	1	1	1	1	1	0	1	-45,102185	272,556398	267,799993	0
15.01.2021	03:33:57	0	0	5,310565	2,21175	23,5908	-0,925	78,182	0	1009,48	5,1	7,3	7,2	1	1	1	1	1	1	1	1	1	0	1	-49,682875	272,533003	263,111884	0
15.01.2021	03:33:58	0	0	4,293674	2,47125	20,286	-0,917	78,194	0	1009,5	5,1	7,3	7,1	1	1	1	1	1	1	1	1	1	0	1	-44,256519	272,435603	268,091324	0
15.01.2021	03:33:59	0	0	3,050768	2,67225	18,4644	-0,922	78,181	0	1009,6	5,1	7,3	7,1	1	1	1	1	1	1	1	1	1	0	1	-42,635659	272,436972	269,718459	0
15.01.2021	03:34:00	0	0	4,858631	2,59875	23,5836	-0,927	78,188	0	1009,44	5,1	7,3	7,1	1	1	1	1	1	1	1	1	1	0	1	-44,256519	272,575686	268,734241	0
15.01.2021	03:34:01	0	0	4,858631	2,59875	23,5836	-0,927	78,188	0	1009,44	5,1	7,3	7,1	1	1	1	1	1	1	1	1	1	0	1	-44,256519	272,575686	268,734241	0
15.01.2021	03:34:02	0	0	3,502734	2,496	18,8388	-0,923	78,193	0	1009,52	5,1	7,3	7,1	1	1	1	1	1	1	1	1	1	0	1	-46,5821	272,484927	265,992003	0
15.01.2021	03:34:03	0	0	2,711778	2,52975	33,6492	-0,925	78,2	0	1009,52	5,2	7,3	7,2	1	1	1	1	1	1	1	1	1	0	1	-47,004933	272,571552	265,966836	0
15.01.2021	03:34:04	0	0	3,954676	2,37825	19,152	-0,914	78,263	0	1009,46	5,1	7,3	7,2	1	1	1	1	1	1	1	1	1	0	1	-44,326991	272,401425	267,864141	0
15.01.2021	03:34:05	0	0	3,276751	2,30025	24,714	-0,921	78,207	0	1009,44	5,2	7,3	7,1	1	1	1	1	1	1	1	1	1	0	1	-39,675828	272,443815	272,709675	0
15.01.2021	03:34:06	0	0	2,937777	2,24625	24,3504	-0,922	78,199	0	1009,54	5,1	7,3	7,1	1	1	1	1	1	1	1	1	1	0	1	-45,243129	272,41919	267,02945	0
15.01.2021	03:34:07	0	0	4,858602	2,196	27,2772	-0,922	78,206	0	1009,46	5,1	7,3	7,2	1	1	1	1	1	1	1	1	1	0	1	-42,424242	272,405523	269,785677	0
15.01.2021	03:34:08	0	0	2,711794	2,2815	23,328	-0,922	78,205	0	1009,48	5,1	7,3	7,1	1	1	1	1	1	1	1	1	1	0	1	-41,578576	272,456139	270,863455	0
15.01.2021	03:34:09	0	0	3,954699	2,28	21,384	-0,926	78,214	0	1009,42	5,1	7,3	7,1	1	1	1	1	1	1	1	1	1	0	1	-46,863989	272,583959	266,164768	0
15.01.2021	03:34:10	0	0	3,954699	2,3805	30,3372	-0,923	78,204	0	1009,46	5,1	7,3	7,1	1	1	1	1	1	1	1	1	1	0	1	-41,36716	272,387771	270,761382	0
15.01.2021	03:34:11	0	0	3,276731	2,30775	16,0992	-0,927	78,204	0	1009,44	5,1	7,3	7,2	1	1	1	1	1	1	1	1	1	0	1	-43,763214	272,484927	268,81089	0
15.01.2021	03:34:12	0	0	4,519656	2,2545	28,35	-0,921	78,212	0	1009,62	5,1	7,3	7,1	1	1	1	1	1	1	1	1	1	0	1	-43,904158	272,40006	268,280712	0
15.01.2021	03:34:13	0	0	3,389742	2,1705	21,78	-0,923	78,214	0	1009,6	5,1	7,3	7,1	1	1	1	1	1	1	1	1	1	0	1	-41,860465	272,446553	270,537596	0
15.01.2021	03:34:14	0	0	4,971592	2,15625	27,9828	-0,918	78,203	0	1009,46	5,1	7,3	7,2	1	1	1	1	1	1	1	1	1	0	1	-45,031712	272,432867	267,30358	0
15.01.2021	03:34:15	0	0	4,745639	2,05125	18,0972	-0,918	78,211	0	1009,54	5,1	7,3	7,1	1	1	1	1	1	1	1	1	1	0	1	-44,890768	272,588096	268,156994	0
15.01.2021	03:34:16	0	0	4,745639	2,06475	15,7932	-0,917	78,218	0	1009,56	5,1	7,3	7,1	1	1	1	1	1	1	1	1	1	0	1	-48,978154	272,546762	263,879774	0
15.01.2021	03:34:17	0	0	4,858602	2,11875	22,0752	-0,923	78,206	0	1009,4	5,1	7,3	7,2	1	1	1	1	1	1	1	1	1	0	1	-43,692741	272,465731	268,793288	0
15.01.2021	03:34:18	0	0	3,276751	2,00325	25,794	-0,926	78,211	0	1009,56	5,1	7,3	7,1	1	1	1	1	1	1	1	1	1	0	1	-45,031712	272,40689	267,18447	0
15.01.2021	03:34:19	0	0	3,05075	1,9695	15,102	-0,924	78,212	0	1009,42	5,1	7,3	7,2	1	1	1	1	1	1	1	1	1	0	1	-46,018323	272,47944	266,530606	0
15.01.2021	03:34:20	0	0	3,389742	2,09625	32,5116	-0,925	78,212	0	1009,46	5,1	7,3	7,1	1	1	1	1	1	1	1	1	1	0	1	-45,877378	272,578443	267,126045	0
15.01.2021	03:34:21	0	0	5,084614	2,25825	20,2824	-0,929	78,213	0	1009,54	5,1	7,3	7,1	1	1	1	1	1	1	1	1	1	0	1	-45,665962	272,545385	267,185646	0
15.01.2021	03:34:22	0	0	3,16376	2,298	26,19	-0,918	78,217	0	1009,5	5,1	7,3	7,1	1	1	1	1	1	1	1	1	1	0	1	-41,226216	272,559153	271,68861	0
15.01.2021	03:34:23	0	0	4,067666	2,26875	25,8012	-0,919	78,215	0	1009,54	5,1	7,3	7,2	1	1	1	1	1	1	1	1	1	0	1	-41,296688	272,590855	271,763748	0
15.01.2021	03:34:24	0	0	3,16376	2,24025	18,0936	-0,929	78,215	0	1009,5	5,1	7,3	7,1	1	1	1	1	1	1	1	1	1	0	1	-43,833686	272,46299	268,63977	0
15.01.2021	03:34:25	0	0	2,598802	2,15475	17,244	-0,924	78,222	0	1009,42	5,1	7,3	7,1	1	1	1	1	1	1	1	1	1	0	1	-43,692741	272,401425	268,49839	0
15.01.2021	03:34:26	0	0	3,389742	2,1525	25,7868	-0,922	78,23	0	1009,5	5,2	7,3	7,1	1	1	1	1	1	1	1	1	1	0	1	-43,340381	272,50277	269,315602	0
15.01.2021	03:34:27	0	0	4,971622	2,22675	25,4232	-0,921	78,219	0	1009,5	5,1	7,3	7,1	1	1	1	1	1	1	1	1	1	0	1	-44,608879	272,575686	268,38188	0
15.01.2021	03:34:28	0	0	2,937777	2,31	13,1616	-0,923	78,231	0	1009,56	5,1	7,3	7,1	1	1	1	1	1	1	1	1	1	0	1	-45,243129	272,417823	267,023181	0
15.01.2021	03:34:29	0	0	2,824785	2,286	22,4676	-0,922	78,236	0	1009,38	5,2	7,3	7,1	1	1	1	1	1	1	1	1	1	0	1	-45,102185	272,579822	267,907571	0
15.01.2021	03:34:30	0	0	2,937777	2,42325	21,7836	-0,919	78,23	0	1009,58	5,2	7,3	7,1	1	1	1	1	1	1	1	1	1	0	1	-49,753347	272,577065	263,243744	0
15.01.2021	03:34:31	0	0	3,16376	2,6535	25,794	-0,924	78,224	0	1009,6	5,1	7,3	7,1	1	1	1	1	1	1	1	1	1	0	1	-46,441156	272,467101	266,051161	0
15.01.2021	03:34:32	0	0	4,745639	2,79375	15,408	-0,924	78,233	0	1009,36	5,1	7,3	7,1	1	1	1	1	1	1	1	1	1	0	1	-42,494715	272,460249	269,96617	0
15.01.2021	03:34:33	0	0	4,745639	2,82825	16,1244	-0,919	78,241	0	1009,54	5,1	7,3	7,1	1	1	1	1	1	1	1	1	1	0	1	-44,115574	272,583959	268,913182	0
15.01.2021	03:34:34	0	0	4,406639	2,79375	37,3176	-0,923	78,243	0	1009,5	5,2	7,3	7,2	1	1	1	1	1	1	1	1	1	0	1	-46,370684	272,553645	266,518848	0
15.01.2021	03:34:35	0	0	4,519656	2,64825	16,1064	-0,921	78,253	0	1009,46	5,1	7,3	7,1	1	1	1	1	1	1	1	1	1	0	1	-47,145877	272,445184	265,245905	0
15.01.2021	03:34:36	0	0	3,16376	2,69775	18,0792	-0,922	78,253	0	1009,66	5,1	7,3	7,1	1	1	1	1	1	1	1	1	1	0	1	-43,763214	272,40689	268,452969	0
15.01.2021	03:34:37	0	0	4,067691	2,739	28,4544	-0,927	78,25	0	1009,38	5,2	7,3	7,1	1	1	1	1	1	1	1	1	1	0	1	-42,283298	272,450661	270,133605	0
15.01.2021	03:34:38	0	0	4,180682	2,7405	22,446	-0,925	78,248	0	1009,42	5,1	7,3	7,1	1	1	1	1	1	1	1	1	1	0	1	-47,56871	272,442446	264,810515	0
15.01.2021	03:34:39	0	0	3,954699	2,727	28,7244	-0,921	78,252	0	1009,6	5,2	7,3	7,1	1	1	1	1	1	1	1	1	1	0	1	-46,229739	272,581201	266,786349	0
15.01.2021	03:34:40	0	0	4,632648	2,652	20,2788	-0,924	78,247	0	1009,58	5,1	7,3	7,1	1	1	1	1	1	1	1	1	1	0	1	-45,806906	272,550891	267,069982	0
15.01.2021	03:34:41	0	0	4,858631	2,661	15,1272	-0,928	78,25	0	1009,38	5,1	7,3	7,1	1	1	1	1	1	1	1	1	1	0	1	-41,226216	272,42466	271,071442	0
15.01.2021	03:34:42	0	0	3,276751	2,6955	17,7012	-0,92	78,25	0	1009,7	5,2	7,3	7,1	1	1	1	1	1	1	1	1	1	0	1	-43,128964	272,593614	269,944147	0
15.01.2021	03:34:43	0	0	3,502734	2,57925	17,2404	-0,92	78,25	0	1009,46	5,2	7,3	7,1	1	1	1	1	1	1	1	1	1	0	1	-40,38055	272,473955	272,143212	0
15.01.2021	03:34:44	0	0	4,067691	2,5965	31,356	-0,92	78,261	0	1009,48	5,1	7,3	7,1	1	1	1	1	1	1	1	1	1	0	1	-44,890768	272,574308	268,093661	0
15.01.2021	03:34:45	0	0	3,050768	2,6235	16,488	-0,923	78,256	0	1009,52	5,1	7,3	7,1	1	1	1	1	1	1	1	1	1	0	1	-42,424242	272,415089	269,829533	0
15.01.2021	03:34:46	0	0	5,084614	2,763	5,238	-0,918	78,273	0	1009,48	5,1	7,3	7,1	1	1	1	1	1	1	1	1	1	0	1	-43,481325	272,450661	268,935578	0
15.01.2021	03:34:47	0	0	3,502734	2,8275	18,8496	-0,925	78,25	0	1009,66	5,1	7,3	7,1	1	1	1	1	1	1	1	1	1	0	1	-41,085271	272,581201	271,930817	0
15.01.2021	03:34:48	0	0	4,858631	2,5365	21,3804	-0,923	78,26	0	1009,46	5,1	7,3	7,1	1	1	1	1	1	1	1	1	1	0	1	-48,414376	272,509637	264,273123	0
15.01.2021	03:34:49	0	0	3,276751	2,21325	17,244	-0,92	78,262	0	1009,58	5,2	7,3	7,1	1	1	1	1	1	1	1	1	1	0	1	-42,847075	272,574308	270,137353	0
15.01.2021	03:34:50	0	0	3,502734	2,0205	22,0968	-0,918	78,268	0	1009,4	5,2	7,3	7,1	1	1	1	1	1	1	1	1	1	0	1	-41,508104	272,40006	270,676766	0
15.01.2021	03:34:51	0	0	3,954699	1,87425	13,554	-0,924	78,25	0	1009,44	5,1	7,3	7,1	1	1	1	1	1	1	1	1	1	0	1	-39,182523	272,497278	273,448256	0
15.01.2021	03:34:52	0	0	4,519656	1,8645	9,0036	-0,921	78,275	0	1009,54	5,1	7,3	7,1	1	1	1	1	1	1	1	1	1	0	1	-41,014799	272,581201	272,00129	0
15.01.2021	03:34:53	0	0	4,745639	1,92375	7,1316	-0,92	78,265	0	1009,4	5,2	7,3	7,1	1	1	1	1	1	1	1	1	1	0	1	-41,36716	272,548138	271,497087	0
15.01.2021	03:34:54	0	0	3,728717	1,93425	11,7252	-0,924	78,256	0	1009,5	5,2	7,3	7,1	1	1	1	1	1	1	1	1	1	0	1	-45,877378	272,471213	266,633804	0
15.01.2021	03:34:55	0	0	3,389742	1,85325	16,2	-0,918	78,276	0	1009,58	5,2	7,3	7,1	1	1	1	1	1	1	1	1	1	0	1	-43,622269	272,581201	269,39382	0
15.01.2021	03:34:56	0	0	3,502734	1,83375	15,7968	-0,921	78,278	0	1009,58	5,2	7,3	7,1	1	1	1	1	1	1	1	1	1	0	1	-38,548273	272,430131	273,774472	0
15.01.2021	03:34:57	0	0	4,519656	1,935	351,324	-0,922	78,281	0	1009,56	5,1	7,3	7,1	1	1	1	1	1	1	1	1	1	0	1	-42,635659	272,43834	269,724735	0
15.01.2021	03:34:58	0	0	4,519656	1,965	22,0788	-0,918	78,287	0	1009,58	5,2	7,3	7,1	1	1	1	1	1	1	1	1	1	0	1	-42,847075	272,431499	269,481944	0
15.01.2021	03:34:59	0	0	3,16376	1,836	21,7764	-0,92	78,288	0	1009,52	5,1	7,3	7,1	1	1	1	1	1	1	1	1	1	0	1	-41,226216	272,450661	271,190687	0
15.01.2021	03:35:00	0	0	2,937777	1,902	26,1756	-0,924	78,3	0	1009,58	5,2	7,3	7,1	1	1	1	1	1	1	1	1	1	0	1	-38,336857	272,471213	274,174325	0
15.01.2021	03:35:01	0	0	2,937777	1,902	26,1756	-0,924	78,3	0	1009,58	5,2	7,3	7,1	1	1	1	1	1	1	1	1	1	0	1	-38,336857	272,471213	274,174325	0
15.01.2021	03:35:02	0	0	3,615725	1,99275	20,9988	-0,925	78,296	0	1009,54	5,2	7,4	7,1	1	1	1	1	1	1	1	1	1	0	1	-42,071882	272,579822	270,937874	0
15.01.2021	03:35:03	0	0	4,067691	2,02725	29,0052	-0,923	78,296	0	1009,44	5,2	7,3	7,1	1	1	1	1	1	1	1	1	1	0	1	-40,169133	272,498651	272,467946	0
15.01.2021	03:35:04	0	0	2,598802	2,184	21,3984	-0,925	78,3	0	1009,68	5,1	7,3	7,1	1	1	1	1	1	1	1	1	1	0	1	-45,384073	272,58258	267,638349	0
15.01.2021	03:35:05	0	0	3,728717	2,496	22,086	-0,925	78,286	0	1009,54	5,2	7,3	7,1	1	1	1	1	1	1	1	1	1	0	1	-39,957717	272,550891	272,919172	0
15.01.2021	03:35:06	0	0	2,937777	2,76	22,8384	-0,925	78,314	0	1009,58	5,1	7,3	7,1	1	1	1	1	1	1	1	1	1	0	1	-43,833686	272,490416	268,765602	0
15.01.2021	03:35:07	0	0	3,841708	2,91975	21,7656	-0,926	78,306	0	1009,74	5,2	7,3	7,1	1	1	1	1	1	1	1	1	1	0	1	-41,578576	272,57293	271,399522	0
15.01.2021	03:35:08	0	0	4,971622	2,838	4,842	-0,923	78,317	0	1009,64	5,2	7,3	7,1	1	1	1	1	1	1	1	1	1	0	1	-40,591966	272,567418	272,360817	0
15.01.2021	03:35:09	0	0	2,824785	3,06825	13,9356	-0,925	78,301	0	1009,72	5,2	7,4	7,1	1	1	1	1	1	1	1	1	1	0	1	-43,551797	272,557775	269,356704	0
15.01.2021	03:35:10	0	0	5,536579	3,03825	13,176	-0,926	78,303	0	1009,54	5,2	7,4	7,1	1	1	1	1	1	1	1	1	1	0	1	-39,393939	272,401425	272,797192	0
15.01.2021	03:35:11	0	0	3,276751	2,9325	31,032	-0,924	78,319	0	1009,58	5,2	7,3	7,1	1	1	1	1	1	1	1	1	1	0	1	-38,618746	272,497278	274,012034	0
15.01.2021	03:35:12	0	0	3,276751	2,8335	14,67	-0,925	78,329	0	1009,48	5,2	7,3	7,1	1	1	1	1	1	1	1	1	1	0	1	-40,662438	272,420557	271,616409	0
15.01.2021	03:35:13	0	0	3,389742	2,6895	16,8732	-0,923	78,33	0	1009,5	5,2	7,3	7,1	1	1	1	1	1	1	1	1	1	0	1	-45,243129	272,50277	267,412854	0
15.01.2021	03:35:14	0	0	3,050768	2,484	17,1792	-0,93	78,326	0	1009,5	5,2	7,3	7,1	1	1	1	1	1	1	1	1	1	0	1	-40,098661	272,421925	272,186456	0
15.01.2021	03:35:15	0	0	4,067691	2,532	16,8588	-0,931	78,34	0	1009,4	5,2	7,3	7,1	1	1	1	1	1	1	1	1	1	0	1	-40,591966	272,434235	271,749601	0
15.01.2021	03:35:16	0	0	3,16376	2,3655	353,2392	-0,924	78,336	0	1009,44	5,2	7,3	7,1	1	1	1	1	1	1	1	1	1	0	1	-38,407329	272,564662	274,532799	0
15.01.2021	03:35:17	0	0	2,485811	2,184	9,7596	-0,926	78,346	0	1009,56	5,2	7,3	7,1	1	1	1	1	1	1	1	1	1	0	1	-38,75969	272,393232	273,393882	0
15.01.2021	03:35:18	0	0	3,615725	2,29575	28,7424	-0,932	78,333	0	1009,52	5,2	7,3	7,1	1	1	1	1	1	1	1	1	1	0	1	-43,551797	272,472584	268,965675	0
15.01.2021	03:35:19	0	0	3,954699	2,3295	32,1408	-0,933	78,341	0	1009,58	5,2	7,3	7,1	1	1	1	1	1	1	1	1	1	0	1	-42,565187	272,408256	269,65726	0
15.01.2021	03:35:20	0	0	3,615725	2,32575	23,2452	-0,923	78,34	0	1009,44	5,2	7,3	7,1	1	1	1	1	1	1	1	1	1	0	1	-40,451022	272,431499	271,877997	0
15.01.2021	03:35:21	0	0	2,937759	2,3445	21,7728	-0,923	78,356	0	1009,5	5,2	7,4	7,2	1	1	1	1	1	1	1	1	1	0	1	-41,649049	272,575686	271,341711	0
15.01.2021	03:35:22	0	0	4,519656	2,30475	23,2272	-0,923	78,355	0	1009,64	5,2	7,3	7,1	1	1	1	1	1	1	1	1	1	0	1	-44,256519	272,579822	268,753237	0
15.01.2021	03:35:23	0	0	4,858631	2,3175	22,842	-0,927	78,348	0	1009,58	5,2	7,3	7,1	1	1	1	1	1	1	1	1	1	0	1	-43,904158	272,495905	268,720322	0
15.01.2021	03:35:24	0	0	3,389742	2,346	19,9044	-0,929	78,358	0	1009,46	5,2	7,3	7,1	1	1	1	1	1	1	1	1	1	0	1	-41,860465	272,40006	270,324405	0
15.01.2021	03:35:25	0	0	2,937777	2,52	20,3004	-0,925	78,342	0	1009,54	5,2	7,3	7,1	1	1	1	1	1	1	1	1	1	0	1	-43,551797	272,413722	268,695711	0
15.01.2021	03:35:26	0	0	3,841708	2,6895	30,7044	-0,928	78,363	0	1009,52	5,2	7,3	7,1	1	1	1	1	1	1	1	1	1	0	1	-40,732911	272,534379	272,068163	0
15.01.2021	03:35:27	0	0	3,16376	2,7795	23,958	-0,925	78,35	0	1009,54	5,2	7,3	7,1	1	1	1	1	1	1	1	1	1	0	1	-41,860465	272,402791	270,336928	0
15.01.2021	03:35:28	0	0	3,954699	2,82375	29,9412	-0,928	78,339	0	1009,34	5,2	7,3	7,1	1	1	1	1	1	1	1	1	1	0	1	-40,591966	272,432867	271,743327	0
15.01.2021	03:35:29	0	0	3,050768	2,77875	24,7356	-0,918	78,363	0	1009,6	5,2	7,3	7,1	1	1	1	1	1	1	1	1	1	0	1	-44,749824	272,526128	268,013372	0
15.01.2021	03:35:30	0	0	4,858631	2,69025	29,5632	-0,922	78,362	0	1009,52	5,2	7,3	7,1	1	1	1	1	1	1	1	1	1	0	1	-39,605356	272,578443	273,398067	0
15.01.2021	03:35:31	0	0	2,485811	2,6685	26,91	-0,923	78,346	0	1009,46	5,2	7,3	7,1	1	1	1	1	1	1	1	1	1	0	1	-45,59549	272,50689	267,079402	0
15.01.2021	03:35:32	0	0	3,841708	2,69025	19,908	-0,923	78,36	0	1009,42	5,2	7,3	7,1	1	1	1	1	1	1	1	1	1	0	1	-43,058492	272,578443	269,944931	0
15.01.2021	03:35:33	0	0	3,276731	2,72925	27,288	-0,927	78,352	0	1009,48	5,2	7,3	7,2	1	1	1	1	1	1	1	1	1	0	1	-43,481325	272,527503	269,288183	0
15.01.2021	03:35:34	0	0	4,519656	2,79675	21,7836	-0,921	78,347	0	1009,58	5,2	7,3	7,1	1	1	1	1	1	1	1	1	1	0	1	-40,239605	272,404157	271,964051	0
15.01.2021	03:35:35	0	0	2,937777	2,77875	19,2492	-0,928	78,364	0	1009,58	5,2	7,3	7,1	1	1	1	1	1	1	1	1	1	0	1	-43,269908	272,412356	268,971334	0
15.01.2021	03:35:36	0	0	3,954699	2,6235	19,512	-0,926	78,37	0	1009,62	5,1	7,3	7,1	1	1	1	1	1	1	1	1	1	0	1	-38,900634	272,520629	273,837321	0
15.01.2021	03:35:37	0	0	3,050768	2,5755	14,2956	-0,925	78,364	0	1009,48	5,2	7,3	7,1	1	1	1	1	1	1	1	1	1	0	1	-41,719521	272,40689	270,496662	0
15.01.2021	03:35:38	0	0	3,502734	2,6895	8,6148	-0,931	78,364	0	1009,42	5,2	7,3	7,1	1	1	1	1	1	1	1	1	1	0	1	-35,870331	272,45203	276,552853	0
15.01.2021	03:35:39	0	0	4,406665	2,6835	15,8004	-0,92	78,365	0	1009,48	5,2	7,4	7,1	1	1	1	1	1	1	1	1	1	0	1	-40,521494	272,575686	272,469266	0
15.01.2021	03:35:40	0	0	4,971622	2,59575	11,7288	-0,928	78,371	0	1009,42	5,1	7,3	7,1	1	1	1	1	1	1	1	1	1	0	1	-39,041579	272,553645	273,847953	0
15.01.2021	03:35:41	0	0	5,084614	2,57775	10,8252	-0,932	78,38	0	1009,5	5,2	7,3	7,1	1	1	1	1	1	1	1	1	1	0	1	-43,128964	272,447922	269,275377	0
15.01.2021	03:35:42	0	0	4,63262	2,94525	12,0492	-0,933	78,387	0	1009,38	5,2	7,3	7,2	1	1	1	1	1	1	1	1	1	0	1	-43,481325	272,56604	269,46513	0
15.01.2021	03:35:43	0	0	2,598802	3,14625	12,4776	-0,93	78,373	0	1009,52	5,2	7,3	7,1	1	1	1	1	1	1	1	1	1	0	1	-41,437632	272,519255	271,294014	0
15.01.2021	03:35:44	0	0	3,16376	3,0615	27,2772	-0,925	78,389	0	1009,46	5,2	7,3	7,1	1	1	1	1	1	1	1	1	1	0	1	-39,887245	272,548138	272,977003	0
15.01.2021	03:35:45	0	0	4,519656	2,96175	24,732	-0,931	78,391	0	1009,58	5,2	7,4	7,1	1	1	1	1	1	1	1	1	1	0	1	-44,115574	272,588096	268,932188	0
15.01.2021	03:35:46	0	0	4,180682	2,9175	11,7036	-0,933	78,407	0	1009,5	5,2	7,3	7,1	1	1	1	1	1	1	1	1	1	0	1	-43,199436	272,490416	269,399851	0
15.01.2021	03:35:47	0	0	4,858631	2,77575	28,3572	-0,93	78,414	0	1009,66	5,2	7,4	7,1	1	1	1	1	1	1	1	1	1	0	1	-40,591966	272,590855	272,46847	0
15.01.2021	03:35:48	0	0	4,971622	2,84625	357,3432	-0,929	78,415	0	1009,46	5,2	7,3	7,1	1	1	1	1	1	1	1	1	1	0	1	-38,971106	272,56053	273,950044	0
15.01.2021	03:35:49	0	0	4,519656	2,8815	20,6352	-0,931	78,421	0	1009,6	5,2	7,4	7,1	1	1	1	1	1	1	1	1	1	0	1	-42,494715	272,47944	270,054214	0
15.01.2021	03:35:50	0	0	4,067691	2,71125	20,2896	-0,926	78,419	0	1009,58	5,2	7,3	7,1	1	1	1	1	1	1	1	1	1	0	1	-37,702607	272,397328	274,469742	0
15.01.2021	03:35:51	0	0	3,728717	2,808	17,6976	-0,927	78,417	0	1009,52	5,2	7,3	7,1	1	1	1	1	1	1	1	1	1	0	1	-40,803383	272,405523	271,406536	0
15.01.2021	03:35:52	0	0	3,502734	2,85	1,548	-0,926	78,429	0	1009,5	5,2	7,4	7,1	1	1	1	1	1	1	1	1	1	0	1	-39,957717	272,469843	272,547176	0
15.01.2021	03:35:53	0	0	3,615725	2,94225	18,4716	-0,924	78,433	0	1009,5	5,2	7,4	7,1	1	1	1	1	1	1	1	1	1	0	1	-44,115574	272,589475	268,938524	0
15.01.2021	03:35:54	0	0	2,937777	2,97525	22,4784	-0,927	78,418	0	1009,74	5,2	7,4	7,1	1	1	1	1	1	1	1	1	1	0	1	-42,424242	272,528878	270,351577	0
15.01.2021	03:35:55	0	0	4,519656	2,87025	23,9688	-0,933	78,42	0	1009,42	5,2	7,4	7,1	1	1	1	1	1	1	1	1	1	0	1	-40,169133	272,549515	272,701434	0
15.01.2021	03:35:56	0	0	4,745611	2,7165	22,0752	-0,929	78,425	0	1009,46	5,1	7,4	7,2	1	1	1	1	1	1	1	1	1	0	1	-39,957717	272,581201	273,058372	0
15.01.2021	03:35:57	0	0	4,971622	2,5455	19,5228	-0,928	78,418	0	1009,48	5,2	7,3	7,1	1	1	1	1	1	1	1	1	1	0	1	-41,226216	272,555021	271,669639	0
15.01.2021	03:35:58	0	0	3,502734	2,41275	17,2404	-0,926	78,419	0	1009,56	5,2	7,4	7,1	1	1	1	1	1	1	1	1	1	0	1	-45,031712	272,500024	267,611668	0
15.01.2021	03:35:59	0	0	4,858602	2,5785	20,6388	-0,929	78,41	0	1009,52	5,2	7,3	7,2	1	1	1	1	1	1	1	1	1	0	1	-38,548273	272,402791	273,64912	0
15.01.2021	03:36:00	0	0	3,276751	2,796	16,1028	-0,925	78,428	0	1009,56	5,2	7,4	7,1	1	1	1	1	1	1	1	1	1	0	1	-37,068358	272,423292	275,223029	0
15.01.2021	03:36:01	0	0	4,632648	2,85525	16,1028	-0,927	78,42	0	1009,58	5,2	7,3	7,1	1	1	1	1	1	1	1	1	1	0	1	-37,068358	272,423292	275,223029	0
15.01.2021	03:36:02	0	0	4,632648	2,85525	16,1028	-0,927	78,42	0	1009,58	5,2	7,3	7,1	1	1	1	1	1	1	1	1	1	0	1	-41,860465	272,555021	271,03539	0
15.01.2021	03:36:03	0	0	4,180682	2,862	11,7216	-0,929	78,421	0	1009,46	5,2	7,3	7,1	1	1	1	1	1	1	1	1	1	0	1	-42,001409	272,467101	270,490907	0
15.01.2021	03:36:04	0	0	3,502734	2,9025	20,7396	-0,928	78,419	0	1009,54	5,2	7,4	7,1	1	1	1	1	1	1	1	1	1	0	1	-40,944327	272,58258	272,078095	0
15.01.2021	03:36:05	0	0	4,858631	2,87025	17,7012	-0,928	78,428	0	1009,52	5,2	7,3	7,1	1	1	1	1	1	1	1	1	1	0	1	-41,226216	272,460249	271,234669	0
15.01.2021	03:36:06	0	0	4,745639	2,8335	22,0932	-0,927	78,423	0	1009,46	5,2	7,3	7,1	1	1	1	1	1	1	1	1	1	0	1	-40,451022	272,390501	271,690034	0
15.01.2021	03:36:07	0	0	2,824785	2,72175	24,3396	-0,932	78,414	0	1009,54	5,2	7,3	7,1	1	1	1	1	1	1	1	1	1	0	1	-40,521494	272,581201	272,494595	0
15.01.2021	03:36:08	0	0	3,615704	2,6295	14,3064	-0,928	78,427	0	1009,52	5,2	7,3	7,2	1	1	1	1	1	1	1	1	1	0	1	-38,548273	272,50277	274,107709	0
15.01.2021	03:36:09	0	0	3,615725	2,59425	20,6424	-0,933	78,428	0	1009,56	5,2	7,3	7,1	1	1	1	1	1	1	1	1	1	0	1	-43,340381	272,571552	269,631388	0
15.01.2021	03:36:10	0	0	2,711778	2,6205	16,8624	-0,937	78,426	0	1009,42	5,1	7,4	7,2	1	1	1	1	1	1	1	1	1	0	1	-40,169133	272,593614	272,903978	0
15.01.2021	03:36:11	0	0	2,824785	2,40825	12,1068	-0,935	78,447	0	1009,56	5,2	7,3	7,1	1	1	1	1	1	1	1	1	1	0	1	-41,36716	272,522004	271,377104	0
15.01.2021	03:36:12	0	0	3,841708	2,34975	21,3984	-0,932	78,45	0	1009,56	5,2	7,4	7,1	1	1	1	1	1	1	1	1	1	0	1	-44,467935	272,393232	267,685636	0
15.01.2021	03:36:13	0	0	4,180657	2,382	14,6448	-0,935	78,455	0	1009,5	5,2	7,3	7,2	1	1	1	1	1	1	1	1	1	0	1	-44,115574	272,557775	268,792927	0
15.01.2021	03:36:14	0	0	3,954676	2,51475	14,6448	-0,929	78,43	0	1009,44	5,1	7,3	7,2	1	1	1	1	1	1	1	1	1	0	1	-41,085271	272,559153	271,829554	0
15.01.2021	03:36:15	0	0	2,824785	2,55	9,3744	-0,931	78,445	0	1009,5	5,1	7,3	7,1	1	1	1	1	1	1	1	1	1	0	1	-43,340381	272,397328	268,831969	0
15.01.2021	03:36:16	0	0	3,954699	2,48925	18,4572	-0,927	78,464	0	1009,56	5,1	7,4	7,1	1	1	1	1	1	1	1	1	1	0	1	-42,776603	272,45477	269,659146	0
15.01.2021	03:36:17	0	0	4,745639	2,49675	24,7392	-0,93	78,463	0	1009,5	5,2	7,3	7,1	1	1	1	1	1	1	1	1	1	0	1	-44,115574	272,401425	268,075557	0
15.01.2021	03:36:18	0	0	3,163741	2,47875	20,6352	-0,927	78,465	0	1009,48	5,1	7,3	7,2	1	1	1	1	1	1	1	1	1	0	1	-40,662438	272,431499	271,666581	0
15.01.2021	03:36:19	0	0	4,067666	2,42625	10,1664	-0,929	78,443	0	1009,64	5,2	7,4	7,2	1	1	1	1	1	1	1	1	1	0	1	-43,199436	272,468472	269,299168	0
15.01.2021	03:36:20	0	0	2,711778	2,436	25,0308	-0,935	78,454	0	1009,38	5,1	7,3	7,2	1	1	1	1	1	1	1	1	1	0	1	-43,340381	272,575686	269,650379	0
15.01.2021	03:36:21	0	0	3,615704	2,418	28,7064	-0,934	78,459	0	1009,6	5,2	7,4	7,2	1	1	1	1	1	1	1	1	1	0	1	-43,833686	272,50689	268,841206	0
15.01.2021	03:36:22	0	0	2,937777	2,3745	15,4152	-0,938	78,464	0	1009,56	5,2	7,4	7,1	1	1	1	1	1	1	1	1	1	0	1	-42,494715	272,568796	270,464396	0
15.01.2021	03:36:23	0	0	3,841708	2,3835	10,8252	-0,933	78,453	0	1009,32	5,1	7,3	7,1	1	1	1	1	1	1	1	1	1	0	1	-44,608879	272,58258	268,413543	0
15.01.2021	03:36:24	0	0	5,310596	2,4585	6,0624	-0,939	78,462	0	1009,52	5,2	7,3	7,1	1	1	1	1	1	1	1	1	1	0	1	-44,397463	272,489043	268,195528	0
15.01.2021	03:36:25	0	0	4,971622	2,38125	23,976	-0,932	78,451	0	1009,5	5,1	7,4	7,1	1	1	1	1	1	1	1	1	1	0	1	-40,662438	272,57293	272,31566	0
15.01.2021	03:36:26	0	0	4,406665	2,214	14,6484	-0,931	78,477	0	1009,52	5,1	7,4	7,1	1	1	1	1	1	1	1	1	1	0	1	-39,7463	272,548138	273,117947	0
15.01.2021	03:36:27	0	0	3,954699	2,11575	22,4748	-0,929	78,488	0	1009,54	5,1	7,3	7,1	1	1	1	1	1	1	1	1	1	0	1	-39,957717	272,519255	272,773929	0
15.01.2021	03:36:28	0	0	3,276751	2,09025	16,4988	-0,931	78,472	0	1009,52	5,1	7,4	7,1	1	1	1	1	1	1	1	1	1	0	1	-44,890768	272,571552	268,081001	0
15.01.2021	03:36:29	0	0	2,711778	2,16	20,286	-0,928	78,481	0	1009,46	5,1	7,4	7,2	1	1	1	1	1	1	1	1	1	0	1	-39,323467	272,546762	273,53446	0
15.01.2021	03:36:30	0	0	4,745611	2,127	21,0132	-0,93	78,488	0	1009,58	5,1	7,3	7,2	1	1	1	1	1	1	1	1	1	0	1	-40,38055	272,542633	272,458421	0
15.01.2021	03:36:31	0	0	4,293648	2,11875	17,6976	-0,926	78,473	0	1009,34	5,1	7,4	7,2	1	1	1	1	1	1	1	1	1	0	1	-43,551797	272,40006	268,633073	0
15.01.2021	03:36:32	0	0	3,276751	2,079	19,908	-0,932	78,477	0	1009,52	5,1	7,3	7,1	1	1	1	1	1	1	1	1	1	0	1	-39,887245	272,45203	272,53594	0
15.01.2021	03:36:33	0	0	3,389722	2,064	24,2712	-0,932	78,487	0	1009,48	5,1	7,4	7,2	1	1	1	1	1	1	1	1	1	0	1	-41,155743	272,586717	271,885683	0
15.01.2021	03:36:34	0	0	3,615725	2,12775	28,728	-0,933	78,49	0	1009,6	5,2	7,4	7,1	1	1	1	1	1	1	1	1	1	0	1	-37,491191	272,404157	274,712465	0
15.01.2021	03:36:35	0	0	2,937759	2,103	19,53	-0,93	78,495	0	1009,54	5,1	7,4	7,2	1	1	1	1	1	1	1	1	1	0	1	-39,605356	272,497278	273,025423	0
15.01.2021	03:36:36	0	0	3,276731	2,0445	18,8424	-0,934	78,489	0	1009,42	5,1	7,4	7,2	1	1	1	1	1	1	1	1	1	0	1	-36,645525	272,577065	276,351566	0
15.01.2021	03:36:37	0	0	3,954676	2,1615	27,3564	-0,934	78,478	0	1009,28	5,1	7,4	7,2	1	1	1	1	1	1	1	1	1	0	1	-41,085271	272,56053	271,835879	0
15.01.2021	03:36:38	0	0	4,180657	2,256	22,8348	-0,936	78,486	0	1009,56	5,1	7,4	7,2	1	1	1	1	1	1	1	1	1	0	1	-37,491191	272,465731	274,994838	0
15.01.2021	03:36:39	0	0	4,63262	2,25	26,1576	-0,935	78,476	0	1009,48	5,1	7,3	7,2	1	1	1	1	1	1	1	1	1	0	1	-38,618746	272,574308	274,365683	0
15.01.2021	03:36:40	0	0	2,937777	2,33475	23,2272	-0,937	78,484	0	1009,44	5,1	7,4	7,1	1	1	1	1	1	1	1	1	1	0	1	-41,226216	272,515132	271,486507	0
15.01.2021	03:36:41	0	0	3,389722	2,178	25,4268	-0,932	78,486	0	1009,48	5,1	7,4	7,2	1	1	1	1	1	1	1	1	1	0	1	-38,548273	272,405523	273,661645	0
15.01.2021	03:36:42	0	0	4,858602	2,0295	23,5836	-0,939	78,486	0	1009,48	5,1	7,4	7,2	1	1	1	1	1	1	1	1	1	0	1	-40,591966	272,533003	272,202793	0
15.01.2021	03:36:43	0	0	4,293648	1,9365	25,8012	-0,939	78,486	0	1009,36	5,1	7,4	7,2	1	1	1	1	1	1	1	1	1	0	1	-40,310078	272,58258	272,712345	0
15.01.2021	03:36:44	0	0	2,824768	1,8375	13,1724	-0,932	78,494	0	1009,32	5,1	7,4	7,2	1	1	1	1	1	1	1	1	1	0	1	-38,407329	272,468472	274,091275	0
15.01.2021	03:36:45	0	0	3,728717	1,86	30,33	-0,933	78,494	0	1009,5	5,1	7,4	7,1	1	1	1	1	1	1	1	1	1	0	1	-41,860465	272,578443	271,142958	0
15.01.2021	03:36:46	0	0	3,276731	2,058	10,0728	-0,935	78,49	0	1009,58	5,1	7,4	7,2	1	1	1	1	1	1	1	1	1	0	1	-41,860465	272,415089	270,39331	0
15.01.2021	03:36:47	0	0	3,728694	1,98375	20,2896	-0,931	78,498	0	1009,38	5,2	7,4	7,2	1	1	1	1	1	1	1	1	1	0	1	-43,199436	272,515132	269,513287	0
15.01.2021	03:36:48	0	0	3,05075	1,91025	10,548	-0,935	78,492	0	1009,46	5,1	7,4	7,2	1	1	1	1	1	1	1	1	1	0	1	-42,706131	272,571552	270,265638	0
15.01.2021	03:36:49	0	0	4,293648	1,92825	7,1388	-0,932	78,516	0	1009,36	5,1	7,4	7,2	1	1	1	1	1	1	1	1	1	0	1	-42,917548	272,423292	269,37384	0
15.01.2021	03:36:50	0	0	3,389722	1,98225	12,1176	-0,931	78,513	0	1009,58	5,1	7,4	7,2	1	1	1	1	1	1	1	1	1	0	1	-43,269908	272,574308	269,71452	0
15.01.2021	03:36:51	0	0	3,276731	2,217	13,5504	-0,936	78,496	0	1009,5	5,1	7,4	7,2	1	1	1	1	1	1	1	1	1	0	1	-40,451022	272,56053	272,470129	0
15.01.2021	03:36:52	0	0	4,971592	2,2605	44,0568	-0,932	78,504	0	1009,52	5,1	7,4	7,2	1	1	1	1	1	1	1	1	1	0	1	-43,692741	272,482184	268,868773	0
15.01.2021	03:36:53	0	0	4,971592	2,3415	12,1032	-0,927	78,517	0	1009,7	5,1	7,4	7,2	1	1	1	1	1	1	1	1	1	0	1	-43,833686	272,556398	269,068492	0
15.01.2021	03:36:54	0	0	3,954676	2,52675	9,3744	-0,935	78,521	0	1009,58	5,1	7,4	7,2	1	1	1	1	1	1	1	1	1	0	1	-45,806906	272,552268	267,076304	0
15.01.2021	03:36:55	0	0	4,519629	2,481	17,2512	-0,934	78,497	0	1009,46	5,1	7,4	7,2	1	1	1	1	1	1	1	1	1	0	1	-43,763214	272,447922	268,641128	0
15.01.2021	03:36:56	0	0	4,067666	2,4765	8,6076	-0,934	78,528	0	1009,68	5,1	7,3	7,2	1	1	1	1	1	1	1	1	1	0	1	-42,706131	272,539881	270,120205	0
15.01.2021	03:36:57	0	0	2,937759	2,64675	12,0996	-0,93	78,527	0	1009,48	5,1	7,4	7,2	1	1	1	1	1	1	1	1	1	0	1	-41,014799	272,467101	271,477517	0
15.01.2021	03:36:58	0	0	3,728694	2,6685	14,3028	-0,934	78,523	0	1009,66	5,1	7,4	7,2	1	1	1	1	1	1	1	1	1	0	1	-43,269908	272,577065	269,727183	0
15.01.2021	03:36:59	0	0	5,310565	2,6295	10,0692	-0,932	78,512	0	1009,4	5,1	7,3	7,2	1	1	1	1	1	1	1	1	1	0	1	-44,397463	272,545385	268,454145	0
15.01.2021	03:37:00	0	0	5,084583	2,73	13,1688	-0,938	78,512	0	1009,5	5,1	7,3	7,2	1	1	1	1	1	1	1	1	1	0	1	-44,115574	272,40689	268,100608	0
15.01.2021	03:37:01	0	0	5,084583	2,73	13,1688	-0,938	78,512	0	1009,5	5,1	7,3	7,2	1	1	1	1	1	1	1	1	1	0	1	-39,464412	272,420557	272,814436	0
15.01.2021	03:37:02	0	0	3,954676	2,7435	1,1952	-0,937	78,519	0	1009,56	5,1	7,4	7,2	1	1	1	1	1	1	1	1	1	0	1	-38,971106	272,456139	273,470925	0
15.01.2021	03:37:03	0	0	3,841685	2,58975	31,4136	-0,931	78,525	0	1009,48	5,1	7,4	7,2	1	1	1	1	1	1	1	1	1	0	1	-42,35377	272,40006	269,8311	0
15.01.2021	03:37:04	0	0	2,937759	2,56875	8,2692	-0,938	78,523	0	1009,32	5,1	7,4	7,2	1	1	1	1	1	1	1	1	1	0	1	-38,336857	272,489043	274,256134	0
15.01.2021	03:37:05	0	0	4,745611	2,83275	13,1832	-0,934	78,541	0	1009,44	5,1	7,4	7,2	1	1	1	1	1	1	1	1	1	0	1	-40,591966	272,413722	271,655542	0
15.01.2021	03:37:06	0	0	5,084583	3	7,524	-0,934	78,531	0	1009,48	5,1	7,4	7,2	1	1	1	1	1	1	1	1	1	0	1	-38,75969	272,557775	274,148812	0
15.01.2021	03:37:07	0	0	4,745611	3,153	11,7216	-0,93	78,529	0	1009,52	5,1	7,4	7,2	1	1	1	1	1	1	1	1	1	0	1	-47,075405	272,460249	265,385479	0
15.01.2021	03:37:08	0	0	3,615704	3,24975	18,8244	-0,936	78,547	0	1009,6	5,1	7,4	7,2	1	1	1	1	1	1	1	1	1	0	1	-42,706131	272,405523	269,503788	0
15.01.2021	03:37:09	0	0	3,05075	3,15825	2,3112	-0,932	78,536	0	1009,44	5,1	7,4	7,2	1	1	1	1	1	1	1	1	1	0	1	-37,702607	272,50689	274,972284	0
15.01.2021	03:37:10	0	0	3,502713	3,06675	19,1448	-0,936	78,542	0	1009,48	5,1	7,4	7,2	1	1	1	1	1	1	1	1	1	0	1	-38,689218	272,401425	273,501914	0
15.01.2021	03:37:11	0	0	4,745611	3,0195	20,6244	-0,94	78,53	0	1009,64	5,1	7,4	7,2	1	1	1	1	1	1	1	1	1	0	1	-39,675828	272,516506	273,043202	0
15.01.2021	03:37:12	0	0	4,63262	2,92575	18,4608	-0,934	78,539	0	1009,64	5,1	7,3	7,2	1	1	1	1	1	1	1	1	1	0	1	-35,447498	272,413722	276,80001	0
15.01.2021	03:37:13	0	0	3,502734	2,63325	25,4196	-0,935	78,555	0	1009,56	5,1	7,4	7,1	1	1	1	1	1	1	1	1	1	0	1	-46,5821	272,415089	265,671675	0
15.01.2021	03:37:14	0	0	3,954676	2,4435	17,1648	-0,937	78,538	0	1009,48	5,1	7,4	7,2	1	1	1	1	1	1	1	1	1	0	1	-41,508104	272,515132	271,204619	0
15.01.2021	03:37:15	0	0	4,519629	2,45325	22,086	-0,941	78,537	0	1009,56	5,1	7,2	7,2	1	1	1	1	1	1	1	1	1	0	1	-40,028189	272,531628	272,760257	0
15.01.2021	03:37:16	0	0	3,276731	2,2875	18,4644	-0,933	78,555	0	1009,56	5,1	7,4	7,2	1	1	1	1	1	1	1	1	1	0	1	-33,967583	272,387771	278,160959	0
15.01.2021	03:37:17	0	0	4,067666	2,26875	14,6556	-0,943	78,54	0	1009,46	5,1	7,3	7,2	1	1	1	1	1	1	1	1	1	0	1	-41,155743	272,498651	271,481336	0
15.01.2021	03:37:18	0	0	4,745639	2,238	15,408	-0,945	78,544	0	1009,4	5,1	7,3	7,1	1	1	1	1	1	1	1	1	1	0	1	-41,226216	272,409622	271,002496	0
15.01.2021	03:37:19	0	0	4,293648	2,364	19,908	-0,938	78,554	0	1009,52	5,1	7,4	7,2	1	1	1	1	1	1	1	1	1	0	1	-42,494715	272,559153	270,420111	0
15.01.2021	03:37:20	0	0	3,276731	2,42175	18,8424	-0,934	78,565	0	1009,66	5,1	7,4	7,2	1	1	1	1	1	1	1	1	1	0	1	-40,732911	272,472584	271,784561	0
15.01.2021	03:37:21	0	0	3,954676	2,3745	21,0204	-0,932	78,552	0	1009,6	5,1	7,3	7,2	1	1	1	1	1	1	1	1	1	0	1	-44,749824	272,575686	268,240936	0
15.01.2021	03:37:22	0	0	3,276731	2,37	19,1448	-0,938	78,556	0	1009,52	5,1	7,3	7,2	1	1	1	1	1	1	1	1	1	0	1	-38,336857	272,420557	273,941991	0
15.01.2021	03:37:23	0	0	4,180657	2,32725	9,3672	-0,936	78,559	0	1009,64	5,1	7,3	7,2	1	1	1	1	1	1	1	1	1	0	1	-38,689218	272,445184	273,702564	0
15.01.2021	03:37:24	0	0	3,728694	2,65725	8,622	-0,941	78,569	0	1009,54	5,1	7,3	7,2	1	1	1	1	1	1	1	1	1	0	1	-37,561663	272,56604	275,384792	0
15.01.2021	03:37:25	0	0	4,971592	2,79075	19,5336	-0,92	78,574	0	1009,64	5,1	7,4	7,2	1	1	1	1	1	1	1	1	1	0	1	-39,464412	272,538506	273,355608	0
15.01.2021	03:37:26	0	0	3,954676	2,7105	22,4712	-0,939	78,573	0	1009,52	5,1	7,3	7,2	1	1	1	1	1	1	1	1	1	0	1	-44,96124	272,456139	267,480792	0
15.01.2021	03:37:27	0	0	5,084583	2,5185	17,2368	-0,937	78,569	0	1009,46	5,1	7,2	7,2	1	1	1	1	1	1	1	1	1	0	1	-39,252995	272,382312	272,850527	0
15.01.2021	03:37:28	0	0	3,389722	2,36775	21,0276	-0,941	78,585	0	1009,46	5,1	7,4	7,2	1	1	1	1	1	1	1	1	1	0	1	-41,719521	272,456139	270,722511	0
15.01.2021	03:37:29	0	0	3,615704	2,256	4,4712	-0,934	78,581	0	1009,38	5,1	7,4	7,2	1	1	1	1	1	1	1	1	1	0	1	-37,914024	272,398694	274,264585	0
15.01.2021	03:37:30	0	0	3,841685	2,3955	10,4472	-0,941	78,594	0	1009,52	5,1	7,4	7,2	1	1	1	1	1	1	1	1	1	0	1	-42,142354	272,427395	270,167847	0
15.01.2021	03:37:31	0	0	3,05075	2,5815	8,2764	-0,942	78,575	0	1009,36	5,1	7,3	7,2	1	1	1	1	1	1	1	1	1	0	1	-39,957717	272,541257	272,874937	0
15.01.2021	03:37:32	0	0	2,711778	2,5695	17,7048	-0,941	78,599	0	1009,6	5,1	7,2	7,2	1	1	1	1	1	1	1	1	1	0	1	-41,36716	272,397328	270,805189	0
15.01.2021	03:37:33	0	0	3,728694	2,47125	11,7216	-0,94	78,605	0	1009,62	5,1	7,4	7,2	1	1	1	1	1	1	1	1	1	0	1	-39,323467	272,46436	273,156275	0
15.01.2021	03:37:34	0	0	4,406639	2,592	11,2068	-0,94	78,601	0	1009,58	5,1	7,4	7,2	1	1	1	1	1	1	1	1	1	0	1	-41,014799	272,523378	271,735775	0
15.01.2021	03:37:35	0	0	3,954676	2,6025	17,7012	-0,952	78,6	0	1009,5	5,1	7,4	7,2	1	1	1	1	1	1	1	1	1	0	1	-41,860465	272,577065	271,136626	0
15.01.2021	03:37:36	0	0	3,163741	2,727	7,1352	-0,939	78,612	0	1009,64	5,1	7,3	7,2	1	1	1	1	1	1	1	1	1	0	1	-39,957717	272,45477	272,478032	0
15.01.2021	03:37:37	0	0	3,163741	2,72025	16,8588	-0,938	78,615	0	1009,62	5,1	7,4	7,2	1	1	1	1	1	1	1	1	1	0	1	-42,635659	272,570174	270,329781	0
15.01.2021	03:37:38	0	0	2,711778	2,5095	15,0408	-0,941	78,62	0	1009,48	5,1	7,3	7,2	1	1	1	1	1	1	1	1	1	0	1	-35,658915	272,415089	276,59486	0
15.01.2021	03:37:39	0	0	2,824768	2,3625	26,1828	-0,943	78,615	0	1009,52	5,1	7,3	7,2	1	1	1	1	1	1	1	1	1	0	1	-42,142354	272,523378	270,608221	0
15.01.2021	03:37:40	0	0	5,197605	2,19225	13,9104	-0,941	78,614	0	1009,52	5,1	7,4	7,1	1	1	1	1	1	1	1	1	1	0	1	-45,877378	272,56604	267,069077	0
15.01.2021	03:37:41	0	0	3,05075	2,06625	12,4776	-0,946	78,62	0	1009,44	5,1	7,3	7,2	1	1	1	1	1	1	1	1	1	0	1	-36,504581	272,505516	276,164007	0
15.01.2021	03:37:42	0	0	4,858602	2,1645	10,8216	-0,941	78,613	0	1009,54	5,1	7,3	7,2	1	1	1	1	1	1	1	1	1	0	1	-39,323467	272,564662	273,616661	0
15.01.2021	03:37:43	0	0	4,63262	2,343	14,7672	-0,941	78,635	0	1009,54	5,1	7,4	7,2	1	1	1	1	1	1	1	1	1	0	1	-36,011276	272,531628	276,77717	0
15.01.2021	03:37:44	0	0	5,084583	2,50875	16,1172	-0,943	78,626	0	1009,52	5,1	7,3	7,2	1	1	1	1	1	1	1	1	1	0	1	-43,904158	272,56604	269,042297	0
15.01.2021	03:37:45	0	0	2,824768	2,55375	22,0896	-0,942	78,63	0	1009,42	5,1	7,3	7,2	1	1	1	1	1	1	1	1	1	0	1	-38,971106	272,379584	273,119908	0
15.01.2021	03:37:46	0	0	4,745639	2,412	18,0828	-0,945	78,641	0	1009,6	5,1	7,3	7,1	1	1	1	1	1	1	1	1	1	0	1	-40,873855	272,47944	271,675074	0
15.01.2021	03:37:47	0	0	4,180657	2,4765	3,8808	-0,937	78,643	0	1009,6	5,2	7,3	7,2	1	1	1	1	1	1	1	1	1	0	1	-38,336857	272,387771	273,791685	0
15.01.2021	03:37:48	0	0	2,937759	2,487	10,8252	-0,943	78,635	0	1009,46	5,1	7,3	7,2	1	1	1	1	1	1	1	1	1	0	1	-39,7463	272,417823	272,52001	0
15.01.2021	03:37:49	0	0	2,937759	2,562	13,1724	-0,937	78,66	0	1009,66	5,1	7,3	7,2	1	1	1	1	1	1	1	1	1	0	1	-40,873855	272,545385	271,977753	0
15.01.2021	03:37:50	0	0	3,389722	2,5305	13,5468	-0,938	78,651	0	1009,48	5,1	7,3	7,2	1	1	1	1	1	1	1	1	1	0	1	-42,917548	272,40006	269,267323	0
15.01.2021	03:37:51	0	0	5,084583	2,57325	17,226	-0,948	78,643	0	1009,52	5,1	7,3	7,2	1	1	1	1	1	1	1	1	1	0	1	-40,591966	272,478069	271,95067	0
15.01.2021	03:37:52	0	0	2,824768	2,54925	37,692	-0,943	78,649	0	1009,56	5,1	7,4	7,2	1	1	1	1	1	1	1	1	1	0	1	-39,605356	272,397328	272,566993	0
15.01.2021	03:37:53	0	0	3,841685	2,38425	19,9116	-0,949	78,641	0	1009,34	5,1	7,3	7,2	1	1	1	1	1	1	1	1	1	0	1	-37,984496	272,487671	274,602198	0
15.01.2021	03:37:54	0	0	4,63262	2,265	19,53	-0,942	78,661	0	1009,56	5,1	7,3	7,2	1	1	1	1	1	1	1	1	1	0	1	-40,38055	272,559153	272,534276	0
15.01.2021	03:37:55	0	0	3,615704	2,17425	31,0356	-0,947	78,655	0	1009,38	5,1	7,3	7,2	1	1	1	1	1	1	1	1	1	0	1	-40,662438	272,531628	272,126007	0
15.01.2021	03:37:56	0	0	4,858602	2,40075	358,704	-0,949	78,666	0	1009,5	5,2	7,4	7,2	1	1	1	1	1	1	1	1	1	0	1	-40,239605	272,561907	272,687871	0
15.01.2021	03:37:57	0	0	3,05075	2,69925	5,6124	-0,945	78,664	0	1009,66	5,1	7,3	7,2	1	1	1	1	1	1	1	1	1	0	1	-34,954193	272,394597	277,205637	0
15.01.2021	03:37:58	0	0	3,502713	2,5875	9,8352	-0,95	78,661	0	1009,36	5,1	7,3	7,2	1	1	1	1	1	1	1	1	1	0	1	-41,578576	272,441077	270,794371	0
15.01.2021	03:37:59	0	0	4,745611	2,57925	18,0828	-0,947	78,668	0	1009,4	5,1	7,3	7,2	1	1	1	1	1	1	1	1	1	0	1	-35,024665	272,383677	277,085111	0
15.01.2021	03:38:00	0	0	5,084583	2,6115	24,7428	-0,941	78,679	0	1009,5	5,2	7,3	7,2	1	1	1	1	1	1	1	1	1	0	1	-37,914024	272,491788	274,691561	0
15.01.2021	03:38:01	0	0	5,084583	2,6115	24,7428	-0,941	78,679	0	1009,5	5,2	7,3	7,2	1	1	1	1	1	1	1	1	1	0	1	-37,914024	272,491788	274,691561	0
15.01.2021	03:38:02	0	0	3,389722	2,553	20,6424	-0,947	78,673	0	1009,6	5,1	7,4	7,2	1	1	1	1	1	1	1	1	1	0	1	-38,336857	272,376855	273,741653	0
15.01.2021	03:38:03	0	0	2,598787	2,6175	18,4752	-0,95	78,686	0	1009,72	5,1	7,3	7,2	1	1	1	1	1	1	1	1	1	0	1	-41,508104	272,45203	270,91508	0
15.01.2021	03:38:04	0	0	3,954676	2,787	20,6352	-0,949	78,685	0	1009,62	5,1	7,3	7,2	1	1	1	1	1	1	1	1	1	0	1	-36,715997	272,563285	276,217805	0
15.01.2021	03:38:05	0	0	3,502713	2,75325	13,644	-0,951	78,677	0	1009,5	5,1	7,4	7,2	1	1	1	1	1	1	1	1	1	0	1	-38,548273	272,441077	273,824674	0
15.01.2021	03:38:06	0	0	4,745611	2,77125	13,5504	-0,947	78,698	0	1009,4	5,1	7,3	7,2	1	1	1	1	1	1	1	1	1	0	1	-36,15222	272,412356	276,089022	0
15.01.2021	03:38:07	0	0	4,406639	2,69175	21,0132	-0,945	78,692	0	1009,56	5,1	7,3	7,2	1	1	1	1	1	1	1	1	1	0	1	-35,377026	272,552268	277,506184	0
15.01.2021	03:38:08	0	0	5,310565	2,58075	4,0932	-0,948	78,685	0	1009,32	5,1	7,3	7,2	1	1	1	1	1	1	1	1	1	0	1	-34,813249	272,49316	277,798634	0
15.01.2021	03:38:09	0	0	3,841685	2,72775	10,4616	-0,955	78,686	0	1009,4	5,1	7,3	7,2	1	1	1	1	1	1	1	1	1	0	1	-36,715997	272,375491	275,356261	0
15.01.2021	03:38:10	0	0	3,728694	2,76975	1,944	-0,952	78,695	0	1009,42	5,1	7,4	7,2	1	1	1	1	1	1	1	1	1	0	1	-40,098661	272,445184	272,293121	0
15.01.2021	03:38:11	0	0	4,406639	2,724	8,6256	-0,952	78,691	0	1009,52	5,1	7,3	7,2	1	1	1	1	1	1	1	1	1	0	1	-33,826638	272,394597	278,333192	0
15.01.2021	03:38:12	0	0	3,841685	2,7735	13,5468	-0,949	78,695	0	1009,56	5,1	7,3	7,2	1	1	1	1	1	1	1	1	1	0	1	-37,77308	272,561907	275,154396	0
15.01.2021	03:38:13	0	0	4,519629	2,72325	15,4044	-0,955	78,687	0	1009,46	5,1	7,3	7,2	1	1	1	1	1	1	1	1	1	0	1	-35,236082	272,465731	277,249947	0
15.01.2021	03:38:14	0	0	3,841685	2,74125	14,6592	-0,956	78,695	0	1009,46	5,1	7,3	7,2	1	1	1	1	1	1	1	1	1	0	1	-38,548273	272,544009	274,297016	0
15.01.2021	03:38:15	0	0	3,728694	2,76	6,8184	-0,952	78,702	0	1009,44	5,1	7,3	7,2	1	1	1	1	1	1	1	1	1	0	1	-41,437632	272,530253	271,3445	0
15.01.2021	03:38:16	0	0	3,389722	2,7015	2,0268	-0,949	78,714	0	1009,64	5,1	7,3	7,2	1	1	1	1	1	1	1	1	1	0	1	-32,487667	272,386406	279,634619	0
15.01.2021	03:38:17	0	0	5,310565	2,7615	12,1104	-0,954	78,709	0	1009,48	5,1	7,3	7,2	1	1	1	1	1	1	1	1	1	0	1	-36,927414	272,526128	275,835782	0
15.01.2021	03:38:18	0	0	5,084583	2,775	16,866	-0,956	78,705	0	1009,48	5,1	7,3	7,2	1	1	1	1	1	1	1	1	1	0	1	-36,715997	272,50277	275,939986	0
15.01.2021	03:38:19	0	0	5,423555	2,7135	18,8316	-0,956	78,7	0	1009,34	5,2	7,3	7,2	1	1	1	1	1	1	1	1	1	0	1	-38,195913	272,380948	273,901355	0
15.01.2021	03:38:20	0	0	3,841685	2,49975	16,8408	-0,952	78,71	0	1009,54	5,1	7,3	7,2	1	1	1	1	1	1	1	1	1	0	1	-40,169133	272,523378	272,581441	0
15.01.2021	03:38:21	0	0	3,728694	2,32125	12,87	-0,956	78,71	0	1009,58	5,1	7,3	7,2	1	1	1	1	1	1	1	1	1	0	1	-35,588443	272,53713	277,225261	0
15.01.2021	03:38:22	0	0	4,971592	2,313	5,2308	-0,954	78,712	0	1009,5	5,1	7,3	7,2	1	1	1	1	1	1	1	1	1	0	1	-33,051445	272,387771	279,077097	0
15.01.2021	03:38:23	0	0	3,389722	2,36175	10,8072	-0,953	78,723	0	1009,6	5,1	7,3	7,2	1	1	1	1	1	1	1	1	1	0	1	-38,900634	272,449292	273,509987	0
15.01.2021	03:38:24	0	0	4,745611	2,283	24,354	-0,959	78,715	0	1009,6	5,1	7,3	7,2	1	1	1	1	1	1	1	1	1	0	1	-41,36716	272,546762	271,490767	0
15.01.2021	03:38:25	0	0	3,502713	2,18925	16,8552	-0,955	78,719	0	1009,56	5,1	7,3	7,2	1	1	1	1	1	1	1	1	1	0	1	-39,816772	272,402791	272,380621	0
15.01.2021	03:38:26	0	0	4,971592	2,103	25,7904	-0,961	78,716	0	1009,56	5,1	7,3	7,2	1	1	1	1	1	1	1	1	1	0	1	-35,447498	272,490416	277,151789	0
15.01.2021	03:38:27	0	0	2,485796	2,133	18,558	-0,956	78,713	0	1009,44	5,1	7,3	7,2	1	1	1	1	1	1	1	1	1	0	1	-41,155743	272,378219	270,929018	0
15.01.2021	03:38:28	0	0	4,63262	2,2275	12,8556	-0,957	78,717	0	1009,48	5,1	7,3	7,2	1	1	1	1	1	1	1	1	1	0	1	-39,534884	272,511011	273,158921	0
15.01.2021	03:38:29	0	0	4,293648	2,409	23,22	-0,958	78,713	0	1009,5	5,1	7,3	7,2	1	1	1	1	1	1	1	1	1	0	1	-38,407329	272,446553	273,990732	0
15.01.2021	03:38:30	0	0	2,824768	2,70525	7,9128	-0,96	78,729	0	1009,58	5,1	7,3	7,2	1	1	1	1	1	1	1	1	1	0	1	-37,984496	272,517881	274,740842	0
15.01.2021	03:38:31	0	0	5,197574	2,86275	14,652	-0,96	78,74	0	1009,54	5,1	7,4	7,2	1	1	1	1	1	1	1	1	1	0	1	-33,474278	272,563285	279,459524	0
15.01.2021	03:38:32	0	0	3,728694	2,8695	4,0968	-0,959	78,726	0	1009,36	5,2	7,3	7,2	1	1	1	1	1	1	1	1	1	0	1	-35,236082	272,476698	277,300262	0
15.01.2021	03:38:33	0	0	5,310565	3,0855	7,5204	-0,954	78,738	0	1009,5	5,1	7,3	7,2	1	1	1	1	1	1	1	1	1	0	1	-32,276251	272,367308	279,758509	0
15.01.2021	03:38:34	0	0	3,163741	3,2115	10,0728	-0,96	78,745	0	1009,44	5,1	7,3	7,2	1	1	1	1	1	1	1	1	1	0	1	-33,121917	272,391866	279,025396	0
15.01.2021	03:38:35	0	0	4,180657	3,23775	9,3816	-0,957	78,755	0	1009,44	5,1	7,3	7,2	1	1	1	1	1	1	1	1	1	0	1	-34,813249	272,426027	277,49068	0
15.01.2021	03:38:36	0	0	3,050768	3,204	17,2476	-0,962	78,753	0	1009,62	5,1	7,3	7,1	1	1	1	1	1	1	1	1	1	0	1	-39,464412	272,550891	273,412477	0
15.01.2021	03:38:37	0	0	5,084583	2,96775	14,3172	-0,961	78,743	0	1009,52	5,1	7,3	7,2	1	1	1	1	1	1	1	1	1	0	1	-37,068358	272,401425	275,122774	0
15.01.2021	03:38:38	0	0	3,615704	2,85825	23,5944	-0,954	78,765	0	1009,62	5,2	7,3	7,2	1	1	1	1	1	1	1	1	1	0	1	-42,424242	272,541257	270,408411	0
15.01.2021	03:38:39	0	0	3,502713	2,7435	21,0132	-0,957	78,754	0	1009,52	5,1	7,3	7,2	1	1	1	1	1	1	1	1	1	0	1	-38,195913	272,387771	273,93263	0
15.01.2021	03:38:40	0	0	4,745611	2,673	30,33	-0,96	78,758	0	1009,66	5,1	7,3	7,2	1	1	1	1	1	1	1	1	1	0	1	-39,182523	272,430131	273,140223	0
15.01.2021	03:38:41	0	0	2,598787	2,4915	20,6496	-0,96	78,769	0	1009,56	5,1	7,3	7,2	1	1	1	1	1	1	1	1	1	0	1	-36,927414	272,379584	275,163601	0
15.01.2021	03:38:42	0	0	3,050768	2,43075	25,056	-0,965	78,769	0	1009,4	5,1	7,3	7,1	1	1	1	1	1	1	1	1	1	0	1	-40,310078	272,450661	272,106825	0
15.01.2021	03:38:43	0	0	4,63262	2,481	26,5392	-0,957	78,784	0	1009,58	5,1	7,3	7,2	1	1	1	1	1	1	1	1	1	0	1	-36,997886	272,516506	275,721144	0
15.01.2021	03:38:44	0	0	5,197574	2,53425	21,3948	-0,958	78,765	0	1009,66	5,1	7,3	7,2	1	1	1	1	1	1	1	1	1	0	1	-40,169133	272,548138	272,695114	0
15.01.2021	03:38:45	0	0	4,180657	2,59875	16,848	-0,963	78,777	0	1009,62	5,1	7,2	7,2	1	1	1	1	1	1	1	1	1	0	1	-39,323467	272,495905	273,301013	0
15.01.2021	03:38:46	0	0	3,389722	2,66925	21,474	-0,959	78,784	0	1009,38	5,1	7,3	7,2	1	1	1	1	1	1	1	1	1	0	1	-41,789993	272,559153	271,124833	0
15.01.2021	03:38:47	0	0	3,389722	2,661	20,6388	-0,96	78,783	0	1009,66	5,1	7,3	7,2	1	1	1	1	1	1	1	1	1	0	1	-39,464412	272,456139	272,97762	0
15.01.2021	03:38:48	0	0	2,711778	2,58375	8,6148	-0,966	78,78	0	1009,34	5,1	7,3	7,2	1	1	1	1	1	1	1	1	1	0	1	-34,108527	272,370036	277,93873	0
15.01.2021	03:38:49	0	0	3,389722	2,3805	25,0452	-0,963	78,785	0	1009,62	5,1	7,3	7,2	1	1	1	1	1	1	1	1	1	0	1	-40,028189	272,526128	272,735007	0
15.01.2021	03:38:50	0	0	2,711778	2,19225	20,6568	-0,967	78,78	0	1009,54	5,2	7,3	7,2	1	1	1	1	1	1	1	1	1	0	1	-40,803383	272,504143	271,858903	0
15.01.2021	03:38:51	0	0	3,615704	2,17575	3,3984	-0,96	78,798	0	1009,54	5,2	7,3	7,2	1	1	1	1	1	1	1	1	1	0	1	-37,068358	272,410989	275,166618	0
15.01.2021	03:38:52	0	0	3,276731	2,199	0,882	-0,962	78,796	0	1009,56	5,1	7,3	7,2	1	1	1	1	1	1	1	1	1	0	1	-31,782946	272,360492	280,22058	0
15.01.2021	03:38:53	0	0	4,519629	2,29275	4,0896	-0,962	78,815	0	1009,62	5,2	7,2	7,2	1	1	1	1	1	1	1	1	1	0	1	-35,024665	272,553645	277,864867	0
15.01.2021	03:38:54	0	0	4,971622	2,40225	17,6976	-0,963	78,792	0	1009,54	5,1	7,3	7,1	1	1	1	1	1	1	1	1	1	0	1	-34,460888	272,412356	277,780354	0
15.01.2021	03:38:55	0	0	4,745611	2,57925	7,5168	-0,963	78,806	0	1009,44	5,1	7,3	7,2	1	1	1	1	1	1	1	1	1	0	1	-36,786469	272,386406	275,335817	0
15.01.2021	03:38:56	0	0	2,711778	2,949	13,9176	-0,96	78,796	0	1009,66	5,2	7,3	7,2	1	1	1	1	1	1	1	1	1	0	1	-37,561663	272,393232	274,591908	0
15.01.2021	03:38:57	0	0	4,63262	2,9445	4,4748	-0,964	78,811	0	1009,58	5,2	7,3	7,2	1	1	1	1	1	1	1	1	1	0	1	-37,068358	272,446553	275,329703	0
15.01.2021	03:38:58	0	0	4,067666	2,799	354,0384	-0,963	78,805	0	1009,56	5,1	7,3	7,2	1	1	1	1	1	1	1	1	1	0	1	-34,601832	272,534379	278,199241	0
15.01.2021	03:38:59	0	0	4,293648	2,76075	21,0096	-0,963	78,804	0	1009,48	5,2	7,3	7,2	1	1	1	1	1	1	1	1	1	0	1	-33,615222	272,504143	279,047063	0
15.01.2021	03:39:00	0	0	4,858602	2,57025	9,738	-0,974	78,811	0	1009,52	5,1	7,3	7,2	1	1	1	1	1	1	1	1	1	0	1	-32,9105	272,511011	279,783304	0
15.01.2021	03:39:01	0	0	4,858602	2,57025	9,738	-0,974	78,811	0	1009,52	5,1	7,3	7,2	1	1	1	1	1	1	1	1	1	0	1	-32,9105	272,511011	279,783304	0
15.01.2021	03:39:02	0	0	4,971592	2,505	8,9964	-0,962	78,818	0	1009,6	5,1	7,3	7,2	1	1	1	1	1	1	1	1	1	0	1	-34,813249	272,371399	277,240258	0
15.01.2021	03:39:03	0	0	4,745611	2,35275	14,6664	-0,963	78,83	0	1009,62	5,2	7,3	7,2	1	1	1	1	1	1	1	1	1	0	1	-35,940803	272,559153	276,974022	0
15.01.2021	03:39:04	0	0	2,824785	2,1915	8,3664	-0,962	78,834	0	1009,54	5,1	7,3	7,1	1	1	1	1	1	1	1	1	1	0	1	-32,699084	272,413722	279,548424	0
15.01.2021	03:39:05	0	0	4,519656	2,2485	11,7252	-0,968	78,829	0	1009,54	5,2	7,3	7,1	1	1	1	1	1	1	1	1	1	0	1	-34,178999	272,486299	278,401399	0
15.01.2021	03:39:06	0	0	3,276731	2,4135	12,1032	-0,966	78,843	0	1009,52	5,1	7,3	7,2	1	1	1	1	1	1	1	1	1	0	1	-33,897111	272,372763	278,162646	0
15.01.2021	03:39:07	0	0	4,519656	2,47125	8,6076	-0,963	78,839	0	1009,78	5,1	7,3	7,1	1	1	1	1	1	1	1	1	1	0	1	-37,914024	272,460249	274,546861	0
15.01.2021	03:39:08	0	0	3,389722	2,44875	10,4544	-0,973	78,847	0	1009,48	5,1	7,3	7,2	1	1	1	1	1	1	1	1	1	0	1	-36,222692	272,53713	276,591012	0
15.01.2021	03:39:09	0	0	3,389722	2,4255	0,4968	-0,97	78,839	0	1009,52	5,2	7,3	7,2	1	1	1	1	1	1	1	1	1	0	1	-38,548273	272,321007	273,274362	0
15.01.2021	03:39:10	0	0	3,841685	2,39475	1,926	-0,963	78,847	0	1009,58	5,1	7,3	7,2	1	1	1	1	1	1	1	1	1	0	1	-35,236082	272,531628	277,552364	0
15.01.2021	03:39:11	0	0	4,406665	2,481	4,1904	-0,975	78,848	0	1009,56	5,2	7,3	7,1	1	1	1	1	1	1	1	1	1	0	1	-39,112051	272,363219	272,903967	0
15.01.2021	03:39:12	0	0	3,954676	2,67675	359,838	-0,967	78,859	0	1009,5	5,2	7,3	7,2	1	1	1	1	1	1	1	1	1	0	1	-36,222692	272,484927	276,351411	0
15.01.2021	03:39:13	0	0	4,180657	2,61825	33,9516	-0,972	78,853	0	1009,6	5,1	7,3	7,2	1	1	1	1	1	1	1	1	1	0	1	-30,232558	272,56053	282,688592	0
15.01.2021	03:39:14	0	0	3,502734	2,33325	23,5764	-0,971	78,866	0	1009,38	5,2	7,3	7,1	1	1	1	1	1	1	1	1	1	0	1	-32,699084	272,404157	279,504572	0
15.01.2021	03:39:15	0	0	4,519629	2,23575	11,7036	-0,966	78,87	0	1009,48	5,2	7,3	7,2	1	1	1	1	1	1	1	1	1	0	1	-34,178999	272,416456	278,081043	0
15.01.2021	03:39:16	0	0	4,632648	2,37375	11,7144	-0,969	78,885	0	1009,66	5,2	7,3	7,1	1	1	1	1	1	1	1	1	1	0	1	-36,15222	272,370036	275,895037	0
15.01.2021	03:39:17	0	0	4,067666	2,43375	5,6844	-0,966	78,888	0	1009,54	5,2	7,3	7,2	1	1	1	1	1	1	1	1	1	0	1	-35,588443	272,478069	276,954193	0
15.01.2021	03:39:18	0	0	3,954676	2,52075	6,4404	-0,965	78,892	0	1009,62	5,2	7,3	7,2	1	1	1	1	1	1	1	1	1	0	1	-36,011276	272,550891	276,865613	0
15.01.2021	03:39:19	0	0	2,598818	2,4735	13,9212	-0,972	78,875	0	1009,38	5,2	7,3	7	1	1	1	1	1	1	1	1	1	0	1	-34,813249	272,404157	277,390407	0
15.01.2021	03:39:20	0	0	3,05075	2,40975	16,11	-0,971	78,887	0	1009,58	5,1	7,3	7,2	1	1	1	1	1	1	1	1	1	0	1	-32,769556	272,528878	280,006264	0
15.01.2021	03:39:21	0	0	4,858631	2,40825	27,6696	-0,973	78,889	0	1009,42	5,1	7,3	7,1	1	1	1	1	1	1	1	1	1	0	1	-35,447498	272,530253	277,334634	0
15.01.2021	03:39:22	0	0	5,084583	2,598	15,4044	-0,971	78,905	0	1009,62	5,2	7,3	7,2	1	1	1	1	1	1	1	1	1	0	1	-32,276251	272,427395	280,03395	0
15.01.2021	03:39:23	0	0	4,180657	2,8155	14,652	-0,972	78,896	0	1009,58	5,2	7,3	7,2	1	1	1	1	1	1	1	1	1	0	1	-32,417195	272,372763	279,642561	0
15.01.2021	03:39:24	0	0	2,824768	2,92275	11,7252	-0,967	78,905	0	1009,6	5,2	7,3	7,2	1	1	1	1	1	1	1	1	1	0	1	-34,954193	272,490416	277,645094	0
15.01.2021	03:39:25	0	0	3,050768	3,084	9,3744	-0,971	78,891	0	1009,44	5,1	7,3	7,1	1	1	1	1	1	1	1	1	1	0	1	-34,672304	272,550891	278,204584	0
15.01.2021	03:39:26	0	0	2,711778	3,13725	11,2104	-0,966	78,913	0	1009,6	5,2	7,3	7,2	1	1	1	1	1	1	1	1	1	0	1	-36,222692	272,469843	276,282201	0
15.01.2021	03:39:27	0	0	2,937777	2,967	16,5024	-0,97	78,892	0	1009,62	5,1	7,3	7,1	1	1	1	1	1	1	1	1	1	0	1	-30,93728	272,368672	281,103728	0
15.01.2021	03:39:28	0	0	4,406665	2,97975	11,1996	-0,969	78,911	0	1009,64	5,1	7,3	7,1	1	1	1	1	1	1	1	1	1	0	1	-36,011276	272,382312	276,092246	0
15.01.2021	03:39:29	0	0	4,632648	2,89725	12,8592	-0,968	78,91	0	1009,54	5,1	7,3	7,1	1	1	1	1	1	1	1	1	1	0	1	-33,262861	272,457509	279,185454	0
15.01.2021	03:39:30	0	0	3,615725	2,799	17,3376	-0,97	78,914	0	1009,56	5,2	7,3	7,1	1	1	1	1	1	1	1	1	1	0	1	-35,095137	272,364582	276,927127	0
15.01.2021	03:39:31	0	0	4,745639	2,73525	17,2332	-0,971	78,918	0	1009,5	5,1	7,3	7,1	1	1	1	1	1	1	1	1	1	0	1	-34,460888	272,465731	278,025141	0
15.01.2021	03:39:32	0	0	3,841708	2,54925	19,9008	-0,968	78,918	0	1009,64	5,2	7,3	7,1	1	1	1	1	1	1	1	1	1	0	1	-33,685694	272,359129	278,311586	0
15.01.2021	03:39:33	0	0	4,858602	2,39625	24,3324	-0,973	78,915	0	1009,58	5,2	7,3	7,2	1	1	1	1	1	1	1	1	1	0	1	-37,068358	272,53713	275,745346	0
15.01.2021	03:39:34	0	0	5,084614	2,3535	18,4572	-0,968	78,921	0	1009,52	5,2	7,3	7,1	1	1	1	1	1	1	1	1	1	0	1	-32,699084	272,480812	279,856137	0
15.01.2021	03:39:35	0	0	2,711778	2,36475	10,4472	-0,971	78,925	0	1009,58	5,2	7,3	7,2	1	1	1	1	1	1	1	1	1	0	1	-33,54475	272,533003	279,250009	0
15.01.2021	03:39:36	0	0	2,824785	2,52375	13,5432	-0,973	78,929	0	1009,5	5,2	7,3	7,1	1	1	1	1	1	1	1	1	1	0	1	-31,430585	272,404157	280,773071	0
15.01.2021	03:39:37	0	0	4,632648	2,58825	17,6976	-0,97	78,92	0	1009,58	5,1	7,3	7,1	1	1	1	1	1	1	1	1	1	0	1	-33,615222	272,545385	279,236386	0
15.01.2021	03:39:38	0	0	3,16376	2,6715	18,8532	-0,976	78,934	0	1009,64	5,2	7,3	7,1	1	1	1	1	1	1	1	1	1	0	1	-36,293164	272,517881	276,432174	0
15.01.2021	03:39:39	0	0	3,05075	2,736	18,8388	-0,968	78,919	0	1009,64	5,1	7,3	7,2	1	1	1	1	1	1	1	1	1	0	1	-32,135307	272,467101	280,35701	0
15.01.2021	03:39:40	0	0	3,16376	2,667	9,1008	-0,975	78,936	0	1009,48	5,2	7,3	7,1	1	1	1	1	1	1	1	1	1	0	1	-31,642001	272,385042	280,474029	0
15.01.2021	03:39:41	0	0	5,084583	2,5905	12,0888	-0,977	78,928	0	1009,7	5,1	7,3	7,2	1	1	1	1	1	1	1	1	1	0	1	-31,219168	272,511011	281,474636	0
15.01.2021	03:39:42	0	0	4,858631	2,54625	19,1448	-0,977	78,937	0	1009,54	5,1	7,3	7,1	1	1	1	1	1	1	1	1	1	0	1	-35,095137	272,461619	277,372032	0
15.01.2021	03:39:43	0	0	2,824785	2,457	15,804	-0,974	78,941	0	1009,72	5,1	7,3	7,1	1	1	1	1	1	1	1	1	1	0	1	-30,021142	272,372763	282,038615	0
15.01.2021	03:39:44	0	0	3,16376	2,48925	17,7084	-0,969	78,946	0	1009,72	5,2	7,3	7,1	1	1	1	1	1	1	1	1	1	0	1	-29,598309	272,535754	283,20908	0
15.01.2021	03:39:45	0	0	4,745639	2,76375	7,1388	-0,976	78,954	0	1009,5	5,2	7,3	7,1	1	1	1	1	1	1	1	1	1	0	1	-33,967583	272,446553	278,430479	0
15.01.2021	03:39:46	0	0	3,16376	2,92575	16,1244	-0,972	78,948	0	1009,66	5,2	7,3	7,1	1	1	1	1	1	1	1	1	1	0	1	-33,54475	272,383677	278,565026	0
15.01.2021	03:39:47	0	0	4,067691	3,054	0,4896	-0,972	78,955	0	1009,68	5,2	7,3	7,1	1	1	1	1	1	1	1	1	1	0	1	-31,219168	272,270748	280,373331	0
15.01.2021	03:39:48	0	0	3,502713	3,018	9,3708	-0,975	78,953	0	1009,58	5,2	7,3	7,2	1	1	1	1	1	1	1	1	1	0	1	-31,571529	272,379584	280,519485	0
15.01.2021	03:39:49	0	0	4,745639	2,856	9,3816	-0,983	78,952	0	1009,66	5,2	7,3	7,1	1	1	1	1	1	1	1	1	1	0	1	-34,108527	272,534379	278,692546	0
15.01.2021	03:39:50	0	0	4,293674	2,688	14,6736	-0,978	78,948	0	1009,56	5,2	7,3	7,1	1	1	1	1	1	1	1	1	1	0	1	-30,796335	272,49316	281,815547	0
15.01.2021	03:39:51	0	0	4,745639	2,50875	7,524	-0,98	78,96	0	1009,82	5,2	7,3	7,1	1	1	1	1	1	1	1	1	1	0	1	-29,668781	272,368672	282,372227	0
15.01.2021	03:39:52	0	0	4,406665	2,34675	24,3324	-0,979	78,957	0	1009,68	5,2	7,3	7,1	1	1	1	1	1	1	1	1	1	0	1	-35,306554	272,480812	277,248667	0
15.01.2021	03:39:53	0	0	3,050768	2,23725	19,1484	-0,981	78,958	0	1009,6	5,2	7,3	7,1	1	1	1	1	1	1	1	1	1	0	1	-31,994362	272,539881	280,831974	0
15.01.2021	03:39:54	0	0	5,310596	2,199	13,1508	-0,982	78,971	0	1009,54	5,1	7,3	7,1	1	1	1	1	1	1	1	1	1	0	1	-31,642001	272,533003	281,152758	0
15.01.2021	03:39:55	0	0	3,05075	2,262	19,4904	-0,982	78,969	0	1009,44	5,2	7,3	7,2	1	1	1	1	1	1	1	1	1	0	1	-32,980973	272,469843	279,523921	0
15.01.2021	03:39:56	0	0	3,389742	2,3865	22,842	-0,981	78,966	0	1009,6	5,2	7,3	7,1	1	1	1	1	1	1	1	1	1	0	1	-37,77308	272,522004	274,971185	0
15.01.2021	03:39:57	0	0	4,519656	2,46075	35,478	-0,98	78,984	0	1009,74	5,2	7,3	7,1	1	1	1	1	1	1	1	1	1	0	1	-32,9105	272,528878	279,865319	0
15.01.2021	03:39:58	0	0	3,276751	2,35125	14,6628	-0,98	78,971	0	1009,48	5,2	7,3	7,1	1	1	1	1	1	1	1	1	1	0	1	-28,823115	272,43834	283,537279	0
15.01.2021	03:39:59	0	0	3,276751	2,3055	19,9008	-0,982	78,984	0	1009,62	5,2	7,3	7,1	1	1	1	1	1	1	1	1	1	0	1	-33,121917	272,378219	278,962845	0
15.01.2021	03:40:00	0	0	4,406665	2,412	22,1004	-0,979	78,989	0	1009,7	5,1	7,3	7,1	1	1	1	1	1	1	1	1	1	0	1	-30,30303	272,378219	281,781732	0
15.01.2021	03:40:01	0	0	4,406665	2,412	22,1004	-0,979	78,989	0	1009,7	5,1	7,3	7,1	1	1	1	1	1	1	1	1	1	0	1	-30,30303	272,378219	281,781732	0
15.01.2021	03:40:02	0	0	3,728694	2,42925	13,1976	-0,983	78,997	0	1009,74	5,2	7,3	7,2	1	1	1	1	1	1	1	1	1	0	1	-30,796335	272,391866	281,350978	0
15.01.2021	03:40:03	0	0	3,954699	2,457	13,1508	-0,985	79,001	0	1009,62	5,2	7,3	7,1	1	1	1	1	1	1	1	1	1	0	1	-33,051445	272,482184	279,51007	0
15.01.2021	03:40:04	0	0	3,050768	2,53125	15,7824	-0,982	79,016	0	1009,62	5,2	7,3	7,1	1	1	1	1	1	1	1	1	1	0	1	-33,615222	272,379584	278,475793	0
15.01.2021	03:40:05	0	0	5,197605	2,58975	12,8592	-0,981	79,018	0	1009,42	5,2	7,3	7,1	1	1	1	1	1	1	1	1	1	0	1	-31,501057	272,524753	281,255828	0
15.01.2021	03:40:06	0	0	4,632648	2,7135	9,8604	-0,977	79,016	0	1009,5	5,2	7,3	7,1	1	1	1	1	1	1	1	1	1	0	1	-28,964059	272,471213	283,547123	0
15.01.2021	03:40:07	0	0	3,050768	2,81925	12,0924	-0,987	79,013	0	1009,52	5,2	7,3	7,1	1	1	1	1	1	1	1	1	1	0	1	-32,417195	272,541257	280,415458	0
15.01.2021	03:40:08	0	0	3,954699	2,76225	28,7316	-0,988	79,024	0	1009,6	5,2	7,3	7,1	1	1	1	1	1	1	1	1	1	0	1	-33,967583	272,509637	278,719917	0
15.01.2021	03:40:09	0	0	2,711794	2,847	19,9044	-0,981	79,04	0	1009,68	5,2	7,3	7,1	1	1	1	1	1	1	1	1	1	0	1	-32,769556	272,508263	279,911639	0
15.01.2021	03:40:10	0	0	4,406665	2,7825	22,4784	-0,983	79,046	0	1009,58	5,2	7,3	7,1	1	1	1	1	1	1	1	1	1	0	1	-30,091614	272,370036	281,955643	0
15.01.2021	03:40:11	0	0	3,163741	2,65725	16,5132	-0,983	79,05	0	1009,66	5,2	7,3	7,2	1	1	1	1	1	1	1	1	1	0	1	-27,836505	272,447922	284,567837	0
15.01.2021	03:40:12	0	0	4,632648	2,7585	13,554	-0,977	79,064	0	1009,62	5,2	7,3	7,1	1	1	1	1	1	1	1	1	1	0	1	-31,289641	272,475326	281,240412	0
15.01.2021	03:40:13	0	0	3,389742	2,853	13,2696	-0,979	79,065	0	1009,62	5,2	7,3	7,1	1	1	1	1	1	1	1	1	1	0	1	-30,514447	272,361855	281,495325	0
15.01.2021	03:40:14	0	0	4,067691	2,9475	31,4136	-0,984	79,067	0	1009,52	5,2	7,3	7,1	1	1	1	1	1	1	1	1	1	0	1	-32,417195	272,423292	279,874192	0
15.01.2021	03:40:15	0	0	4,519656	2,823	18,8316	-0,98	79,066	0	1009,38	5,2	7,3	7,1	1	1	1	1	1	1	1	1	1	0	1	-35,306554	272,530253	277,475578	0
15.01.2021	03:40:16	0	0	3,16376	2,7525	23,598	-0,985	79,079	0	1009,48	5,2	7,3	7,1	1	1	1	1	1	1	1	1	1	0	1	-33,333333	272,482184	279,228182	0
15.01.2021	03:40:17	0	0	4,632648	2,814	22,8528	-0,986	79,089	0	1009,54	5,2	7,3	7,1	1	1	1	1	1	1	1	1	1	0	1	-29,739253	272,365945	282,289259	0
15.01.2021	03:40:18	0	0	4,971622	2,826	11,7252	-0,987	79,087	0	1009,52	5,2	7,3	7,1	1	1	1	1	1	1	1	1	1	0	1	-31,430585	272,512384	281,269525	0
15.01.2021	03:40:19	0	0	4,293674	2,89725	16,8552	-0,98	79,102	0	1009,54	5,2	7,3	7,1	1	1	1	1	1	1	1	1	1	0	1	-29,034531	272,469843	283,470362	0
15.01.2021	03:40:20	0	0	4,632648	2,89875	13,5576	-0,986	79,105	0	1009,68	5,2	7,3	7,1	1	1	1	1	1	1	1	1	1	0	1	-29,809725	272,542633	283,029246	0
15.01.2021	03:40:21	0	0	3,16376	2,80875	9,7632	-0,988	79,119	0	1009,58	5,2	7,3	7,1	1	1	1	1	1	1	1	1	1	0	1	-27,766032	272,491788	284,839552	0
15.01.2021	03:40:22	0	0	3,615725	2,55	13,1688	-0,984	79,115	0	1009,44	5,2	7,3	7,1	1	1	1	1	1	1	1	1	1	0	1	-29,809725	272,53713	283,003979	0
15.01.2021	03:40:23	0	0	4,745639	2,3925	18,8532	-0,985	79,107	0	1009,58	5,2	7,3	7,1	1	1	1	1	1	1	1	1	1	0	1	-32,417195	272,552268	280,466015	0
15.01.2021	03:40:24	0	0	5,310596	2,3055	11,718	-0,987	79,127	0	1009,58	5,2	7,3	7,1	1	1	1	1	1	1	1	1	1	0	1	-30,162086	272,467101	282,33023	0
15.01.2021	03:40:25	0	0	4,745639	2,4285	12,4848	-0,986	79,124	0	1009,52	5,2	7,3	7,1	1	1	1	1	1	1	1	1	1	0	1	-35,658915	272,379584	276,4321	0
15.01.2021	03:40:26	0	0	4,067691	2,51025	3,402	-0,992	79,144	0	1009,6	5,2	7,3	7,1	1	1	1	1	1	1	1	1	1	0	1	-28,682171	272,368672	283,358837	0
15.01.2021	03:40:27	0	0	3,841708	2,78625	359,8488	-0,986	79,151	0	1009,46	5,2	7,3	7,1	1	1	1	1	1	1	1	1	1	0	1	-32,205779	272,484927	280,368325	0
15.01.2021	03:40:28	0	0	2,485811	2,958	7,5384	-0,983	79,153	0	1009,46	5,2	7,3	7,1	1	1	1	1	1	1	1	1	1	0	1	-27,625088	272,375491	284,44717	0
15.01.2021	03:40:29	0	0	4,519656	3,17925	7,5168	-0,985	79,148	0	1009,64	5,2	7,3	7,1	1	1	1	1	1	1	1	1	1	0	1	-27,625088	272,541257	285,207565	0
15.01.2021	03:40:30	0	0	3,728717	3,19425	9,7452	-0,984	79,162	0	1009,52	5,2	7,3	7,1	1	1	1	1	1	1	1	1	1	0	1	-29,739253	272,465731	282,746776	0
15.01.2021	03:40:31	0	0	2,711794	3,111	19,17	-0,98	79,164	0	1009,74	5,2	7,3	7,1	1	1	1	1	1	1	1	1	1	0	1	-27,061311	272,374127	285,004696	0
15.01.2021	03:40:32	0	0	3,276751	3,06	15,3972	-0,99	79,153	0	1009,46	5,2	7,3	7,1	1	1	1	1	1	1	1	1	1	0	1	-27,484144	272,397328	284,688205	0
15.01.2021	03:40:33	0	0	2,937777	3,054	10,8216	-0,982	79,166	0	1009,62	5,2	7,3	7,1	1	1	1	1	1	1	1	1	1	0	1	-29,950669	272,410989	282,284307	0
15.01.2021	03:40:34	0	0	3,276751	2,92575	13,176	-0,992	79,151	0	1009,52	5,2	7,3	7,1	1	1	1	1	1	1	1	1	1	0	1	-29,034531	272,553645	283,855001	0
15.01.2021	03:40:35	0	0	4,406665	2,6745	21,8628	-0,987	79,167	0	1009,58	5,2	7,3	7,1	1	1	1	1	1	1	1	1	1	0	1	-29,950669	272,408256	282,271777	0
15.01.2021	03:40:36	0	0	3,954699	2,661	13,9176	-0,987	79,167	0	1009,58	5,2	7,3	7,1	1	1	1	1	1	1	1	1	1	0	1	-27,413672	272,435603	284,934171	0
15.01.2021	03:40:37	0	0	4,406665	2,655	22,0716	-0,984	79,17	0	1009,46	5,2	7,3	7,1	1	1	1	1	1	1	1	1	1	0	1	-25,510923	272,546762	287,347004	0
15.01.2021	03:40:38	0	0	2,711794	2,60475	33,9372	-0,985	79,183	0	1009,68	5,1	7,3	7,1	1	1	1	1	1	1	1	1	1	0	1	-26,497533	272,410989	285,737443	0
15.01.2021	03:40:39	0	0	2,598802	2,6925	22,1832	-0,989	79,179	0	1009,68	5,1	7,3	7,1	1	1	1	1	1	1	1	1	1	0	1	-29,245948	272,395963	282,920141	0
15.01.2021	03:40:40	0	0	4,745639	2,703	22,842	-0,984	79,179	0	1009,5	5,2	7,3	7,1	1	1	1	1	1	1	1	1	1	0	1	-29,950669	272,432867	282,384623	0
15.01.2021	03:40:41	0	0	4,745639	2,6505	18,4572	-0,987	79,181	0	1009,5	5,2	7,3	7,1	1	1	1	1	1	1	1	1	1	0	1	-29,950669	272,379584	282,140345	0
15.01.2021	03:40:42	0	0	4,067691	2,65275	27,2664	-0,993	79,174	0	1009,48	5,2	7,3	7,1	1	1	1	1	1	1	1	1	1	0	1	-29,386892	272,450661	283,03001	0
15.01.2021	03:40:43	0	0	3,954699	2,61825	11,736	-0,984	79,195	0	1009,58	5,2	7,3	7,1	1	1	1	1	1	1	1	1	1	0	1	-27,413672	272,387771	284,714871	0
15.01.2021	03:40:44	0	0	3,050768	2,74575	17,7084	-0,988	79,208	0	1009,66	5,2	7,3	7,1	1	1	1	1	1	1	1	1	1	0	1	-28,823115	272,449292	283,587507	0
15.01.2021	03:40:45	0	0	2,937777	2,94	8,2692	-0,989	79,213	0	1009,68	5,2	7,3	7,1	1	1	1	1	1	1	1	1	1	0	1	-28,259338	272,541257	284,573316	0
15.01.2021	03:40:46	0	0	4,180682	3,01125	16,092	-0,987	79,209	0	1009,56	5,2	7,3	7,1	1	1	1	1	1	1	1	1	1	0	1	-29,950669	272,40689	282,265513	0
15.01.2021	03:40:47	0	0	4,632648	2,9745	19,5408	-0,985	79,198	0	1009,64	5,2	7,3	7,1	1	1	1	1	1	1	1	1	1	0	1	-27,625088	272,490416	284,974199	0
15.01.2021	03:40:48	0	0	4,067691	2,814	22,4568	-0,988	79,216	0	1009,54	5,1	7,3	7,1	1	1	1	1	1	1	1	1	1	0	1	-26,568006	272,555021	286,327849	0
15.01.2021	03:40:49	0	0	3,16376	2,69025	15,4152	-0,992	79,214	0	1009,4	5,2	7,3	7,1	1	1	1	1	1	1	1	1	1	0	1	-25,510923	272,482184	287,050592	0
15.01.2021	03:40:50	0	0	4,180682	2,95875	13,9176	-0,985	79,213	0	1009,56	5,2	7,3	7,1	1	1	1	1	1	1	1	1	1	0	1	-24,242424	272,546762	288,615503	0
15.01.2021	03:40:51	0	0	4,519656	3,036	11,7252	-0,989	79,218	0	1009,5	5,2	7,3	7,1	1	1	1	1	1	1	1	1	1	0	1	-30,021142	272,427395	282,289059	0
15.01.2021	03:40:52	0	0	2,937777	2,9145	15,4044	-0,989	79,22	0	1009,6	5,1	7,3	7,1	1	1	1	1	1	1	1	1	1	0	1	-27,343199	272,527503	285,426308	0
15.01.2021	03:40:53	0	0	5,084614	2,703	22,0932	-0,986	79,219	0	1009,58	5,2	7,3	7,1	1	1	1	1	1	1	1	1	1	0	1	-31,219168	272,559153	281,695657	0
15.01.2021	03:40:54	0	0	3,615725	2,6955	15,0264	-0,99	79,224	0	1009,66	5,2	7,3	7,1	1	1	1	1	1	1	1	1	1	0	1	-25,651868	272,468472	286,846737	0
15.01.2021	03:40:55	0	0	4,971622	2,5425	19,1556	-0,99	79,223	0	1009,58	5,1	7,3	7,1	1	1	1	1	1	1	1	1	1	0	1	-25,792812	272,370036	286,254445	0
15.01.2021	03:40:56	0	0	2,824785	2,44875	24,7248	-0,99	79,232	0	1009,68	5,2	7,3	7,1	1	1	1	1	1	1	1	1	1	0	1	-25,369979	272,401425	286,821153	0
15.01.2021	03:40:57	0	0	2,37282	2,34975	9,7632	-0,992	79,225	0	1009,58	5,1	7,3	7,1	1	1	1	1	1	1	1	1	1	0	1	-27,061311	272,441077	285,311637	0
15.01.2021	03:40:58	0	0	3,389742	2,42475	21,0168	-0,986	79,235	0	1009,56	5,2	7,3	7,1	1	1	1	1	1	1	1	1	1	0	1	-28,682171	272,393232	283,471401	0
15.01.2021	03:40:59	0	0	2,824785	2,8095	11,7216	-0,993	79,211	0	1009,68	5,2	7,3	7,1	1	1	1	1	1	1	1	1	1	0	1	-30,443975	272,559153	282,470851	0
15.01.2021	03:41:00	0	0	2,37282	3,0495	8,2656	-0,994	79,237	0	1009,58	5,1	7,3	7,1	1	1	1	1	1	1	1	1	1	0	1	-29,739253	272,379584	282,351762	0
15.01.2021	03:41:01	0	0	2,37282	3,0495	8,2656	-0,994	79,237	0	1009,58	5,1	7,3	7,1	1	1	1	1	1	1	1	1	1	0	1	-29,739253	272,379584	282,351762	0
15.01.2021	03:41:02	0	0	4,406665	3,09825	25,4232	-0,991	79,232	0	1009,52	5,2	7,3	7,1	1	1	1	1	1	1	1	1	1	0	1	-28,752643	272,428763	283,56383	0
15.01.2021	03:41:03	0	0	5,197605	3,07275	26,514	-0,986	79,234	0	1009,5	5,1	7,3	7,1	1	1	1	1	1	1	1	1	1	0	1	-25,863284	272,382312	286,240238	0
15.01.2021	03:41:04	0	0	2,824785	3,0735	29,9592	-0,988	79,246	0	1009,64	5,2	7,3	7,1	1	1	1	1	1	1	1	1	1	0	1	-23,678647	272,398694	288,499962	0
15.01.2021	03:41:05	0	0	2,711794	2,97225	17,2368	-0,991	79,231	0	1009,58	5,2	7,3	7,1	1	1	1	1	1	1	1	1	1	0	1	-24,735729	272,486299	287,844669	0
15.01.2021	03:41:06	0	0	4,632648	2,8065	6,8148	-0,99	79,246	0	1009,62	5,1	7,3	7,1	1	1	1	1	1	1	1	1	1	0	1	-25,792812	272,374127	286,273195	0
15.01.2021	03:41:07	0	0	4,971622	2,79075	17,7048	-0,988	79,26	0	1009,58	5,1	7,3	7,1	1	1	1	1	1	1	1	1	1	0	1	-27,413672	272,436972	284,940446	0
15.01.2021	03:41:08	0	0	3,841708	2,796	16,8516	-0,988	79,265	0	1009,68	5,2	7,3	7,1	1	1	1	1	1	1	1	1	1	0	1	-27,413672	272,550891	285,463217	0
15.01.2021	03:41:09	0	0	4,180682	2,74275	19,9044	-0,993	79,246	0	1009,52	5,2	7,3	7,1	1	1	1	1	1	1	1	1	1	0	1	-32,064834	272,491788	280,54075	0
15.01.2021	03:41:10	0	0	2,485811	2,7825	19,5192	-0,986	79,272	0	1009,58	5,1	7,3	7,1	1	1	1	1	1	1	1	1	1	0	1	-26,286117	272,378219	285,798645	0
15.01.2021	03:41:11	0	0	3,615725	2,73525	16,4772	-0,986	79,266	0	1009,6	5,1	7,3	7,1	1	1	1	1	1	1	1	1	1	0	1	-26,0747	272,449292	286,335921	0
15.01.2021	03:41:12	0	0	3,841708	2,68575	18,0792	-0,993	79,263	0	1009,6	5,1	7,3	7,1	1	1	1	1	1	1	1	1	1	0	1	-30,443975	272,374127	281,622032	0
15.01.2021	03:41:13	0	0	3,050768	2,6475	13,1724	-0,994	79,251	0	1009,5	5,1	7,3	7,1	1	1	1	1	1	1	1	1	1	0	1	-26,0747	272,398694	286,103909	0
15.01.2021	03:41:14	0	0	2,485811	2,71125	22,8312	-0,991	79,263	0	1009,54	5,2	7,3	7,1	1	1	1	1	1	1	1	1	1	0	1	-28,259338	272,431499	284,069682	0
15.01.2021	03:41:15	0	0	3,050768	2,70075	24,3396	-0,994	79,271	0	1009,66	5,1	7,3	7,1	1	1	1	1	1	1	1	1	1	0	1	-25,651868	272,412356	286,589375	0
15.01.2021	03:41:16	0	0	4,858631	2,715	23,9688	-0,994	79,263	0	1009,56	5,2	7,3	7,1	1	1	1	1	1	1	1	1	1	0	1	-29,034531	272,549515	283,836036	0
15.01.2021	03:41:17	0	0	3,728717	2,61825	17,2332	-1,001	79,271	0	1009,58	5,1	7,3	7,1	1	1	1	1	1	1	1	1	1	0	1	-27,625088	272,469843	284,879805	0
15.01.2021	03:41:18	0	0	3,954699	2,50725	11,2068	-0,997	79,279	0	1009,54	5,1	7,3	7,1	1	1	1	1	1	1	1	1	1	0	1	-30,443975	272,542633	282,394997	0
15.01.2021	03:41:19	0	0	4,293674	2,52375	14,6556	-0,991	79,289	0	1009,66	5,1	7,3	7,1	1	1	1	1	1	1	1	1	1	0	1	-24,453841	272,446553	287,944221	0
15.01.2021	03:41:20	0	0	3,502734	2,61	11,7216	-0,993	79,292	0	1009,58	5,1	7,3	7,1	1	1	1	1	1	1	1	1	1	0	1	-28,047921	272,553645	284,841611	0
15.01.2021	03:41:21	0	0	5,197605	2,64975	20,628	-1,002	79,271	0	1009,58	5,1	7,3	7,1	1	1	1	1	1	1	1	1	1	0	1	-30,443975	272,512384	282,256136	0
15.01.2021	03:41:22	0	0	3,276751	2,73525	13,5504	-0,988	79,305	0	1009,84	5,2	7,3	7,1	1	1	1	1	1	1	1	1	1	0	1	-28,259338	272,523378	284,491237	0
15.01.2021	03:41:23	0	0	2,937777	2,87625	12,8592	-0,992	79,296	0	1009,58	5,1	7,3	7,1	1	1	1	1	1	1	1	1	1	0	1	-26,497533	272,357767	285,493502	0
15.01.2021	03:41:24	0	0	3,16376	2,79375	9,378	-0,994	79,311	0	1009,58	5,1	7,3	7,1	1	1	1	1	1	1	1	1	1	0	1	-26,920366	272,471213	285,590816	0
15.01.2021	03:41:25	0	0	3,16376	2,832	12,1068	-0,991	79,315	0	1009,72	5,1	7,3	7,1	1	1	1	1	1	1	1	1	1	0	1	-27,343199	272,383677	284,766576	0
15.01.2021	03:41:26	0	0	3,389742	2,88075	13,9248	-1,001	79,306	0	1009,44	5,1	7,3	7,1	1	1	1	1	1	1	1	1	1	0	1	-26,70895	272,404157	285,494706	0
15.01.2021	03:41:27	0	0	4,745639	3,01875	11,718	-0,998	79,317	0	1009,64	5,1	7,3	7,1	1	1	1	1	1	1	1	1	1	0	1	-28,047921	272,520629	284,690034	0
15.01.2021	03:41:28	0	0	2,598802	3,0405	10,4508	-0,999	79,318	0	1009,64	5,1	7,3	7,1	1	1	1	1	1	1	1	1	1	0	1	-28,964059	272,398694	283,21455	0
15.01.2021	03:41:29	0	0	2,937777	3,132	7,146	-1,001	79,314	0	1009,54	5,1	7,3	7,1	1	1	1	1	1	1	1	1	1	0	1	-26,286117	272,486299	286,294282	0
15.01.2021	03:41:30	0	0	3,728717	3,237	9	-0,998	79,336	0	1009,58	5,1	7,3	7,1	1	1	1	1	1	1	1	1	1	0	1	-25,581395	272,548138	287,282852	0
15.01.2021	03:41:31	0	0	2,824785	3,201	13,9248	-1,002	79,333	0	1009,56	5,1	7,3	7,1	1	1	1	1	1	1	1	1	1	0	1	-27,131783	272,46436	285,347959	0
15.01.2021	03:41:32	0	0	2,824785	3,20175	6,066	-0,999	79,343	0	1009,56	5,2	7,3	7,1	1	1	1	1	1	1	1	1	1	0	1	-23,608175	272,365945	288,420337	0
15.01.2021	03:41:33	0	0	4,632648	3,17925	5,2236	-0,999	79,351	0	1009,74	5,1	7,3	7,1	1	1	1	1	1	1	1	1	1	0	1	-26,145173	272,508263	286,536023	0
15.01.2021	03:41:34	0	0	4,067691	3,1785	360	-1	79,357	0	1009,64	5,1	7,3	7,1	1	1	1	1	1	1	1	1	1	0	1	-21,49401	272,420557	290,784838	0
15.01.2021	03:41:35	0	0	4,519656	3,13875	9,7524	-0,995	79,369	0	1009,64	5,1	7,3	7,1	1	1	1	1	1	1	1	1	1	0	1	-24,876674	272,40689	287,339509	0
15.01.2021	03:41:36	0	0	2,711794	3,13425	16,4808	-0,994	79,381	0	1009,7	5,1	7,3	7,1	1	1	1	1	1	1	1	1	1	0	1	-26,286117	272,439709	286,080553	0
15.01.2021	03:41:37	0	0	3,841708	3,231	14,2956	-0,998	79,377	0	1009,54	5,1	7,3	7,1	1	1	1	1	1	1	1	1	1	0	1	-22,269204	272,376855	289,809306	0
15.01.2021	03:41:38	0	0	4,406665	3,15075	8,6184	-0,998	79,387	0	1009,64	5,1	7,3	7,1	1	1	1	1	1	1	1	1	1	0	1	-24,806202	272,450661	287,610701	0
15.01.2021	03:41:39	0	0	3,954699	3,0495	7,5276	-0,998	79,398	0	1009,44	5,1	7,3	7,1	1	1	1	1	1	1	1	1	1	0	1	-27,906977	272,386406	284,215309	0
15.01.2021	03:41:40	0	0	4,406665	2,859	18,0756	-0,994	79,39	0	1009,64	5,1	7,3	7,1	1	1	1	1	1	1	1	1	1	0	1	-21,987315	272,533003	290,807444	0
15.01.2021	03:41:41	0	0	3,16376	2,73525	12,1104	-0,993	79,383	0	1009,48	5,1	7,3	7,1	1	1	1	1	1	1	1	1	1	0	1	-24,242424	272,511011	288,45138	0
15.01.2021	03:41:42	0	0	2,37282	2,5935	20,2824	-1,001	79,409	0	1009,62	5,1	7,3	7,1	1	1	1	1	1	1	1	1	1	0	1	-27,202255	272,391866	284,945058	0
15.01.2021	03:41:43	0	0	4,745639	2,45625	15,4152	-0,999	79,411	0	1009,72	5,1	7,3	7,1	1	1	1	1	1	1	1	1	1	0	1	-24,735729	272,489043	287,857261	0
15.01.2021	03:41:44	0	0	3,728717	2,37375	21,78	-0,996	79,41	0	1009,62	5,1	7,3	7,1	1	1	1	1	1	1	1	1	1	0	1	-27,131783	272,553645	285,757749	0
15.01.2021	03:41:45	0	0	3,389742	2,35425	25,0416	-1,001	79,426	0	1009,52	5,1	7,3	7,1	1	1	1	1	1	1	1	1	1	0	1	-25,440451	272,393232	286,71312	0
15.01.2021	03:41:46	0	0	3,276751	2,27025	15,048	-0,993	79,435	0	1009,72	5,1	7,3	7,1	1	1	1	1	1	1	1	1	1	0	1	-27,625088	272,505516	285,0435	0
15.01.2021	03:41:47	0	0	4,293674	2,24925	26,5284	-1,001	79,433	0	1009,5	5,1	7,3	7,1	1	1	1	1	1	1	1	1	1	0	1	-24,031008	272,380948	288,06626	0
15.01.2021	03:41:48	0	0	3,16376	2,3505	21,3804	-1	79,436	0	1009,48	5,1	7,3	7,1	1	1	1	1	1	1	1	1	1	0	1	-23,396758	272,445184	288,995024	0
15.01.2021	03:41:49	0	0	4,519656	2,46375	27,9828	-0,997	79,445	0	1009,66	5,1	7,3	7,1	1	1	1	1	1	1	1	1	1	0	1	-24,876674	272,508263	287,804522	0
15.01.2021	03:41:50	0	0	2,824785	2,541	21,0168	-0,999	79,453	0	1009,54	5,1	7,3	7,1	1	1	1	1	1	1	1	1	1	0	1	-24,665257	272,542633	288,173714	0
15.01.2021	03:41:51	0	0	4,180682	2,5875	20,6424	-0,993	79,465	0	1009,76	5,1	7,3	7,1	1	1	1	1	1	1	1	1	1	0	1	-23,819591	272,458879	288,635008	0
15.01.2021	03:41:52	0	0	3,615725	2,682	17,2332	-0,997	79,455	0	1009,62	5,1	7,3	7,1	1	1	1	1	1	1	1	1	1	0	1	-27,413672	272,371399	284,639835	0
15.01.2021	03:41:53	0	0	2,937777	2,68425	17,6868	-1	79,448	0	1009,8	5,1	7,3	7,1	1	1	1	1	1	1	1	1	1	0	1	-26,286117	272,467101	286,206199	0
15.01.2021	03:41:54	0	0	3,050768	2,586	17,244	-1,003	79,457	0	1009,64	5,1	7,3	7,1	1	1	1	1	1	1	1	1	1	0	1	-23,044397	272,548138	289,81985	0
15.01.2021	03:41:55	0	0	4,519656	2,59875	6,8256	-1,001	79,454	0	1009,62	5,1	7,3	7,1	1	1	1	1	1	1	1	1	1	0	1	-26,286117	272,367308	285,748643	0
15.01.2021	03:41:56	0	0	3,954699	2,58675	18,8424	-1	79,456	0	1009,48	5,1	7,3	7,1	1	1	1	1	1	1	1	1	1	0	1	-26,497533	272,487671	286,089161	0
15.01.2021	03:41:57	0	0	4,293674	3,1845	12,1104	-1,001	79,466	0	1009,68	5,1	7,3	7,1	1	1	1	1	1	1	1	1	1	0	1	-25,369979	272,550891	287,50691	0
15.01.2021	03:41:58	0	0	4,293674	3,645	11,7252	-1,001	79,46	0	1009,46	5,1	7,3	7,1	1	1	1	1	1	1	1	1	1	0	1	-24,876674	272,450661	287,540229	0
15.01.2021	03:41:59	0	0	3,502734	3,858	15,4116	-0,999	79,481	0	1009,62	5,1	7,3	7,1	1	1	1	1	1	1	1	1	1	0	1	-23,890063	272,378219	288,194698	0
15.01.2021	03:42:00	0	0	4,745639	3,72975	18,4644	-0,998	79,459	0	1009,52	5,1	7,3	7,1	1	1	1	1	1	1	1	1	1	0	1	-23,890063	272,544009	288,955226	0
15.01.2021	03:42:01	0	0	4,745639	3,72975	18,4644	-0,998	79,459	0	1009,52	5,1	7,3	7,1	1	1	1	1	1	1	1	1	1	0	1	-23,890063	272,544009	288,955226	0
15.01.2021	03:42:02	0	0	4,745639	3,33	13,9248	-1	79,465	0	1009,7	5,1	7,3	7,1	1	1	1	1	1	1	1	1	1	0	1	-29,175476	272,379584	282,915539	0
15.01.2021	03:42:03	0	0	3,276751	3,35925	13,1508	-1,004	79,469	0	1009,6	5,1	7,3	7,1	1	1	1	1	1	1	1	1	1	0	1	-24,876674	272,457509	287,571642	0
15.01.2021	03:42:04	0	0	3,728717	3,35325	12,1032	-0,998	79,497	0	1009,68	5,1	7,3	7,1	1	1	1	1	1	1	1	1	1	0	1	-24,735729	272,378219	287,349032	0
15.01.2021	03:42:05	0	0	4,745639	3,39825	15,0588	-1,005	79,49	0	1009,48	5,1	7,3	7,1	1	1	1	1	1	1	1	1	1	0	1	-30,655391	272,456139	281,786641	0
15.01.2021	03:42:06	0	0	4,519656	3,55275	8,6328	-0,999	79,5	0	1009,58	5,1	7,3	7,1	1	1	1	1	1	1	1	1	1	0	1	-21,353066	272,412356	290,888177	0
15.01.2021	03:42:07	0	0	2,937777	3,60525	14,0472	-0,997	79,503	0	1009,64	5,1	7,3	7,1	1	1	1	1	1	1	1	1	1	0	1	-25,792812	272,376855	286,285698	0
15.01.2021	03:42:08	0	0	4,632648	3,54975	2,646	-1,002	79,511	0	1009,52	5,1	7,3	7,1	1	1	1	1	1	1	1	1	1	0	1	-25,299507	272,513758	287,40691	0
15.01.2021	03:42:09	0	0	5,084614	3,35175	15,4224	-1,001	79,513	0	1009,56	5,1	7,3	7,1	1	1	1	1	1	1	1	1	1	0	1	-23,185342	272,43834	289,175052	0
15.01.2021	03:42:10	0	0	4,632648	3,13875	4,4784	-1	79,517	0	1009,58	5,1	7,3	7,1	1	1	1	1	1	1	1	1	1	0	1	-26,920366	272,524753	285,836518	0
15.01.2021	03:42:11	0	0	2,598802	3,0945	14,6628	-0,998	79,514	0	1009,62	5,1	7,3	7,1	1	1	1	1	1	1	1	1	1	0	1	-25,651868	272,426027	286,652062	0
15.01.2021	03:42:12	0	0	4,858631	2,9805	21,0132	-1,002	79,537	0	1009,56	5,1	7,3	7,1	1	1	1	1	1	1	1	1	1	0	1	-25,440451	272,375491	286,631807	0
15.01.2021	03:42:13	0	0	3,615725	2,89125	30,3336	-1,004	79,53	0	1009,78	5,1	7,3	7,1	1	1	1	1	1	1	1	1	1	0	1	-23,749119	272,382312	288,354402	0
15.01.2021	03:42:14	0	0	2,598802	2,823	20,6424	-0,994	79,526	0	1009,68	5,1	7,3	7,1	1	1	1	1	1	1	1	1	1	0	1	-24,031008	272,471213	288,480174	0
15.01.2021	03:42:15	0	0	2,598802	2,62575	11,718	-1,001	79,531	0	1009,3	5,1	7,3	7,1	1	1	1	1	1	1	1	1	1	0	1	-28,611698	272,404157	283,591958	0
15.01.2021	03:42:16	0	0	4,406665	2,69925	13,5576	-0,999	79,546	0	1009,52	5,1	7,3	7,1	1	1	1	1	1	1	1	1	1	0	1	-26,004228	272,486299	286,57617	0
15.01.2021	03:42:17	0	0	5,084614	2,7465	17,3484	-1,003	79,555	0	1009,6	5,1	7,3	7,1	1	1	1	1	1	1	1	1	1	0	1	-25,792812	272,549515	287,077756	0
15.01.2021	03:42:18	0	0	2,824785	2,62875	13,9248	-1,006	79,553	0	1009,58	5,1	7,3	7,1	1	1	1	1	1	1	1	1	1	0	1	-24,242424	272,371399	287,811082	0
15.01.2021	03:42:19	0	0	2,937777	2,5575	13,9248	-0,999	79,566	0	1009,6	5,1	7,3	7,1	1	1	1	1	1	1	1	1	1	0	1	-21,705426	272,439709	290,661244	0
15.01.2021	03:42:20	0	0	5,084614	2,59725	11,7144	-1,004	79,555	0	1009,54	5,1	7,3	7,1	1	1	1	1	1	1	1	1	1	0	1	-29,034531	272,383677	283,075245	0
15.01.2021	03:42:21	0	0	4,632648	2,6265	13,1616	-1,001	79,571	0	1009,52	5,1	7,3	7,1	1	1	1	1	1	1	1	1	1	0	1	-26,70895	272,426027	285,594979	0
15.01.2021	03:42:22	0	0	3,954699	2,7495	3,0312	-1,007	79,574	0	1009,6	5,1	7,3	7,1	1	1	1	1	1	1	1	1	1	0	1	-26,286117	272,457509	286,162199	0
15.01.2021	03:42:23	0	0	5,197605	2,82225	15,0372	-1,003	79,575	0	1009,4	5,1	7,3	7,1	1	1	1	1	1	1	1	1	1	0	1	-24,876674	272,376855	287,201836	0
15.01.2021	03:42:24	0	0	4,180682	2,8155	12,8556	-1,003	79,583	0	1009,46	5,1	7,3	7,1	1	1	1	1	1	1	1	1	1	0	1	-24,10148	272,50277	288,554503	0
15.01.2021	03:42:25	0	0	4,519656	2,805	17,2332	-1,006	79,564	0	1009,46	5,1	7,3	7,1	1	1	1	1	1	1	1	1	1	0	1	-25,792812	272,421925	286,492305	0
15.01.2021	03:42:26	0	0	3,502734	2,79	28,7208	-1,001	79,574	0	1009,62	5,1	7,3	7,1	1	1	1	1	1	1	1	1	1	0	1	-26,356589	272,564662	286,583539	0
15.01.2021	03:42:27	0	0	3,276751	2,84175	25,8012	-1,005	79,57	0	1009,68	5,1	7,3	7,1	1	1	1	1	1	1	1	1	1	0	1	-25,933756	272,509637	286,753743	0
15.01.2021	03:42:28	0	0	2,598802	2,84475	20,6532	-1,003	79,57	0	1009,72	5,1	7,3	7,1	1	1	1	1	1	1	1	1	1	0	1	-26,145173	272,513758	286,561244	0
15.01.2021	03:42:29	0	0	4,745639	3,06225	18,1584	-0,999	79,595	0	1009,66	5,1	7,3	7,1	1	1	1	1	1	1	1	1	1	0	1	-24,735729	272,563285	288,198072	0
15.01.2021	03:42:30	0	0	4,406665	3,23475	13,1724	-1,001	79,591	0	1009,54	5,2	7,3	7,1	1	1	1	1	1	1	1	1	1	0	1	-28,893587	272,461619	283,573583	0
15.01.2021	03:42:31	0	0	2,937777	3,60525	18,09	-0,997	79,589	0	1009,7	5,1	7,3	7,1	1	1	1	1	1	1	1	1	1	0	1	-24,524313	272,555021	288,371542	0
15.01.2021	03:42:32	0	0	3,050768	3,46725	10,0656	-1,001	79,593	0	1009,48	5,1	7,3	7,1	1	1	1	1	1	1	1	1	1	0	1	-25,792812	272,450661	286,624091	0
15.01.2021	03:42:33	0	0	3,841708	3,396	13,0428	-1	79,601	0	1009,52	5,1	7,3	7,1	1	1	1	1	1	1	1	1	1	0	1	-22,198732	272,401425	289,9924	0
15.01.2021	03:42:34	0	0	4,632648	3,47175	7,5168	-1,003	79,614	0	1009,6	5,2	7,3	7,1	1	1	1	1	1	1	1	1	1	0	1	-24,312896	272,371399	287,74061	0
15.01.2021	03:42:35	0	0	4,632648	3,375	14,652	-1,004	79,583	0	1009,46	5,2	7,3	7,1	1	1	1	1	1	1	1	1	1	0	1	-25,863284	272,489043	286,729707	0
15.01.2021	03:42:36	0	0	4,067691	3,34875	12,852	-1	79,603	0	1009,6	5,2	7,3	7,1	1	1	1	1	1	1	1	1	1	0	1	-26,215645	272,393232	285,937927	0
15.01.2021	03:42:37	0	0	3,389742	3,4455	16,4916	-0,999	79,603	0	1009,64	5,2	7,3	7,1	1	1	1	1	1	1	1	1	1	0	1	-23,819591	272,387771	288,308951	0
15.01.2021	03:42:38	0	0	4,180682	3,57225	27,2808	-1,009	79,609	0	1009,52	5,1	7,3	7,1	1	1	1	1	1	1	1	1	1	0	1	-26,286117	272,512384	286,413993	0
15.01.2021	03:42:39	0	0	3,615725	3,489	20,6388	-1,002	79,619	0	1009,66	5,2	7,3	7,1	1	1	1	1	1	1	1	1	1	0	1	-26,920366	272,559153	285,994459	0
15.01.2021	03:42:40	0	0	3,16376	3,333	17,2476	-1,006	79,608	0	1009,56	5,2	7,3	7,1	1	1	1	1	1	1	1	1	1	0	1	-25,510923	272,435603	286,836919	0
15.01.2021	03:42:41	0	0	4,745639	3,38475	27,2772	-0,996	79,625	0	1009,62	5,1	7,3	7,1	1	1	1	1	1	1	1	1	1	0	1	-22,198732	272,391866	289,948582	0
15.01.2021	03:42:42	0	0	4,519656	3,18825	19,53	-1,005	79,61	0	1009,64	5,2	7,3	7,1	1	1	1	1	1	1	1	1	1	0	1	-24,594785	272,534379	288,206289	0
15.01.2021	03:42:43	0	0	4,519656	3,0375	21,8664	-1,004	79,645	0	1009,74	5,2	7,3	7,1	1	1	1	1	1	1	1	1	1	0	1	-23,11487	272,442446	289,264356	0
15.01.2021	03:42:44	0	0	4,067691	3,0735	9,3672	-1,002	79,635	0	1009,66	5,1	7,3	7,1	1	1	1	1	1	1	1	1	1	0	1	-24,665257	272,408256	287,557189	0
15.01.2021	03:42:45	0	0	4,745639	3,00225	17,244	-1,006	79,643	0	1009,64	5,1	7,3	7,1	1	1	1	1	1	1	1	1	1	0	1	-26,286117	272,545385	286,565491	0
15.01.2021	03:42:46	0	0	4,293674	2,91375	16,1028	-1,003	79,65	0	1009,6	5,2	7,3	7,1	1	1	1	1	1	1	1	1	1	0	1	-29,809725	272,56604	283,13673	0
15.01.2021	03:42:47	0	0	3,841708	3,117	1,9296	-1,012	79,641	0	1009,42	5,2	7,3	7,1	1	1	1	1	1	1	1	1	1	0	1	-25,229035	272,420557	287,049813	0
15.01.2021	03:42:48	0	0	3,276751	3,35025	12,1104	-1,004	79,649	0	1009,62	5,1	7,3	7,1	1	1	1	1	1	1	1	1	1	0	1	-25,369979	272,545385	287,481629	0
15.01.2021	03:42:49	0	0	3,954699	3,23775	12,87	-1,003	79,649	0	1009,76	5,2	7,3	7,1	1	1	1	1	1	1	1	1	1	0	1	-24,383369	272,517881	288,341969	0
15.01.2021	03:42:50	0	0	3,728717	3,06525	24,7932	-1,003	79,675	0	1009,74	5,1	7,3	7,1	1	1	1	1	1	1	1	1	1	0	1	-25,581395	272,559153	287,33343	0
15.01.2021	03:42:51	0	0	4,858631	2,85075	13,9248	-1,002	79,665	0	1009,68	5,2	7,3	7,1	1	1	1	1	1	1	1	1	1	0	1	-26,0747	272,520629	286,663254	0
15.01.2021	03:42:52	0	0	2,711794	2,74425	15,786	-1,011	79,665	0	1009,46	5,1	7,3	7,1	1	1	1	1	1	1	1	1	1	0	1	-27,766032	272,546762	285,091895	0
15.01.2021	03:42:53	0	0	3,050768	2,69325	17,7084	-1,007	79,662	0	1009,68	5,1	7,3	7,1	1	1	1	1	1	1	1	1	1	0	1	-23,890063	272,421925	288,395054	0
15.01.2021	03:42:54	0	0	4,293674	2,8035	18,4644	-1,001	79,671	0	1009,6	5,1	7,3	7,1	1	1	1	1	1	1	1	1	1	0	1	-22,339676	272,480812	290,215546	0
15.01.2021	03:42:55	0	0	2,711794	2,766	14,3136	-1,006	79,655	0	1009,54	5,2	7,3	7,1	1	1	1	1	1	1	1	1	1	0	1	-27,202255	272,57293	285,775843	0
15.01.2021	03:42:56	0	0	3,276751	2,8275	16,4916	-1,009	79,683	0	1009,54	5,2	7,3	7,1	1	1	1	1	1	1	1	1	1	0	1	-26,638478	272,398694	285,540132	0
15.01.2021	03:42:57	0	0	4,180682	2,94975	13,1688	-1,007	79,675	0	1009,54	5,2	7,3	7,1	1	1	1	1	1	1	1	1	1	0	1	-25,229035	272,511011	287,46477	0
15.01.2021	03:42:58	0	0	3,389742	3,4035	47,3724	-1,005	79,692	0	1009,62	5,1	7,3	7,1	1	1	1	1	1	1	1	1	1	0	1	-25,933756	272,570174	287,031683	0
15.01.2021	03:42:59	0	0	3,276751	3,73275	10,4436	-1,01	79,691	0	1009,64	5,2	7,3	7,1	1	1	1	1	1	1	1	1	1	0	1	-26,427061	272,511011	286,266743	0
15.01.2021	03:43:00	0	0	3,502734	3,798	20,6388	-1,006	79,705	0	1009,66	5,2	7,3	7,1	1	1	1	1	1	1	1	1	1	0	1	-22,339676	272,483555	290,228133	0
15.01.2021	03:43:01	0	0	3,502734	3,798	20,6388	-1,006	79,705	0	1009,66	5,2	7,3	7,1	1	1	1	1	1	1	1	1	1	0	1	-22,339676	272,483555	290,228133	0
15.01.2021	03:43:02	0	0	4,971622	3,621	15,048	-1,006	79,704	0	1009,62	5,2	7,3	7,1	1	1	1	1	1	1	1	1	1	0	1	-25,72234	272,575686	287,26842	0
15.01.2021	03:43:03	0	0	5,084614	3,648	4,4712	-1,004	79,706	0	1009,74	5,2	7,3	7,1	1	1	1	1	1	1	1	1	1	0	1	-27,625088	272,511011	285,068717	0
15.01.2021	03:43:04	0	0	3,050768	3,63	360	-1	79,719	0	1009,6	5,1	7,3	7,1	1	1	1	1	1	1	1	1	1	0	1	-20,930233	272,421925	291,354885	0
15.01.2021	03:43:05	0	0	3,389742	3,2625	22,842	-1,004	79,705	0	1009,7	5,2	7,3	7,1	1	1	1	1	1	1	1	1	1	0	1	-24,031008	272,530253	288,751124	0
15.01.2021	03:43:06	0	0	5,197605	3,16725	13,9248	-1,006	79,725	0	1009,6	5,2	7,3	7,1	1	1	1	1	1	1	1	1	1	0	1	-20,014094	272,570174	292,951345	0
15.01.2021	03:43:07	0	0	4,858631	3,4575	8,6076	-1,005	79,703	0	1009,6	5,2	7,3	7,1	1	1	1	1	1	1	1	1	1	0	1	-21,987315	272,450661	290,429588	0
15.01.2021	03:43:08	0	0	4,067691	3,48975	13,554	-1	79,732	0	1009,72	5,2	7,3	7,1	1	1	1	1	1	1	1	1	1	0	1	-25,299507	272,574308	287,684922	0
15.01.2021	03:43:09	0	0	3,615725	3,29625	13,5504	-1,002	79,737	0	1009,72	5,2	7,3	7,1	1	1	1	1	1	1	1	1	1	0	1	-25,017618	272,416456	287,242424	0
15.01.2021	03:43:10	0	0	2,824785	3,0225	27,6552	-0,999	79,737	0	1009,58	5,2	7,3	7,1	1	1	1	1	1	1	1	1	1	0	1	-24,453841	272,445184	287,937941	0
15.01.2021	03:43:11	0	0	2,824768	2,8395	25,4268	-1,006	79,726	0	1009,62	5,2	7,3	7,2	1	1	1	1	1	1	1	1	1	0	1	-20,577872	272,567418	292,374911	0
15.01.2021	03:43:12	0	0	5,084614	3,00225	20,286	-1,006	79,722	0	1009,56	5,2	7,3	7,1	1	1	1	1	1	1	1	1	1	0	1	-25,299507	272,476698	287,236837	0
15.01.2021	03:43:13	0	0	5,084614	3,19575	15,7896	-1,009	79,738	0	1009,76	5,2	7,3	7,1	1	1	1	1	1	1	1	1	1	0	1	-23,185342	272,408256	289,037105	0
15.01.2021	03:43:14	0	0	3,954699	3,303	22,842	-1,008	79,744	0	1009,64	5,2	7,3	7,1	1	1	1	1	1	1	1	1	1	0	1	-24,735729	272,398694	287,44288	0
15.01.2021	03:43:15	0	0	4,632648	3,267	18,828	-1,01	79,745	0	1009,42	5,2	7,3	7,1	1	1	1	1	1	1	1	1	1	0	1	-18,88654	272,427395	293,423661	0
15.01.2021	03:43:16	0	0	4,067691	3,27375	20,8152	-1,004	79,748	0	1009,64	5,2	7,3	7,1	1	1	1	1	1	1	1	1	1	0	1	-23,185342	272,390501	288,955714	0
15.01.2021	03:43:17	0	0	3,389742	3,23325	15,8724	-1,003	79,74	0	1009,64	5,2	7,3	7,1	1	1	1	1	1	1	1	1	1	0	1	-26,70895	272,552268	286,17426	0
15.01.2021	03:43:18	0	0	4,406665	3,2775	31,7736	-1,007	79,745	0	1009,62	5,2	7,3	7,1	1	1	1	1	1	1	1	1	1	0	1	-21,916843	272,43834	290,443551	0
15.01.2021	03:43:19	0	0	4,858631	3,17025	24,354	-1,003	79,762	0	1009,56	5,2	7,3	7,1	1	1	1	1	1	1	1	1	1	0	1	-24,031008	272,56053	288,890143	0
15.01.2021	03:43:20	0	0	4,632648	3,2205	6,822	-1,003	79,761	0	1009,56	5,2	7,3	7,1	1	1	1	1	1	1	1	1	1	0	1	-26,286117	272,480812	286,269104	0
15.01.2021	03:43:21	0	0	2,937759	3,3735	17,712	-1,004	79,762	0	1009,68	5,2	7,3	7,2	1	1	1	1	1	1	1	1	1	0	1	-23,678647	272,557775	289,229855	0
15.01.2021	03:43:22	0	0	2,937777	3,34725	14,6592	-1,005	79,768	0	1009,58	5,2	7,3	7,1	1	1	1	1	1	1	1	1	1	0	1	-24,171952	272,393232	287,981619	0
15.01.2021	03:43:23	0	0	2,937777	3,43425	14,0292	-1,005	79,754	0	1009,62	5,2	7,3	7,1	1	1	1	1	1	1	1	1	1	0	1	-22,269204	272,436972	290,084914	0
15.01.2021	03:43:24	0	0	3,728717	3,285	16,0992	-1,008	79,777	0	1009,52	5,2	7,3	7,1	1	1	1	1	1	1	1	1	1	0	1	-19,87315	272,431499	292,455869	0
15.01.2021	03:43:25	0	0	4,745639	3,1725	9,3744	-1,01	79,781	0	1009,64	5,2	7,3	7,1	1	1	1	1	1	1	1	1	1	0	1	-22,973925	272,549515	289,896642	0
15.01.2021	03:43:26	0	0	2,711794	3,43725	4,1004	-1,001	79,793	0	1009,5	5,2	7,3	7,1	1	1	1	1	1	1	1	1	1	0	1	-24,312896	272,404157	287,89076	0
15.01.2021	03:43:27	0	0	4,858631	3,498	358,7832	-1,006	79,802	0	1009,76	5,2	7,3	7,1	1	1	1	1	1	1	1	1	1	0	1	-23,185342	272,487671	289,401352	0
15.01.2021	03:43:28	0	0	2,937777	3,2475	4,8384	-1	79,805	0	1009,7	5,2	7,3	7,1	1	1	1	1	1	1	1	1	1	0	1	-26,779422	272,442446	285,599803	0
15.01.2021	03:43:29	0	0	2,37282	2,88525	19,1556	-1,002	79,798	0	1009,62	5,2	7,3	7,1	1	1	1	1	1	1	1	1	1	0	1	-23,890063	272,394597	288,269767	0
15.01.2021	03:43:30	0	0	3,389742	2,6475	32,1516	-1,008	79,81	0	1009,6	5,2	7,3	7,1	1	1	1	1	1	1	1	1	1	0	1	-21,564482	272,517881	291,160856	0
15.01.2021	03:43:31	0	0	3,728694	2,4615	18,1008	-1,001	79,812	0	1009,38	5,2	7,3	7,2	1	1	1	1	1	1	1	1	1	0	1	-22,198732	272,568796	290,760379	0
15.01.2021	03:43:32	0	0	3,502713	2,4705	29,0988	-1,007	79,826	0	1009,62	5,2	7,3	7,2	1	1	1	1	1	1	1	1	1	0	1	-19,943622	272,530253	292,83851	0
15.01.2021	03:43:33	0	0	4,067691	2,33775	19,5372	-1,001	79,82	0	1009,58	5,2	7,3	7,1	1	1	1	1	1	1	1	1	1	0	1	-22,339676	272,40006	289,845194	0
15.01.2021	03:43:34	0	0	3,163741	2,32125	16,4988	-1,002	79,827	0	1009,6	5,2	7,3	7,2	1	1	1	1	1	1	1	1	1	0	1	-24,806202	272,412356	287,435041	0
15.01.2021	03:43:35	0	0	2,146837	2,54475	5,238	-1,003	79,811	0	1009,62	5,2	7,2	7,1	1	1	1	1	1	1	1	1	1	0	1	-18,111346	272,524753	294,645539	0
15.01.2021	03:43:36	0	0	3,841708	2,58525	18,468	-1,002	79,843	0	1009,58	5,2	7,3	7,1	1	1	1	1	1	1	1	1	1	0	1	-23,46723	272,563285	289,466571	0
15.01.2021	03:43:37	0	0	2,937759	2,4855	20,268	-1,001	79,838	0	1009,56	5,2	7,3	7,2	1	1	1	1	1	1	1	1	1	0	1	-23,608175	272,446553	288,789887	0
15.01.2021	03:43:38	0	0	4,519656	2,38425	25,0092	-1,008	79,839	0	1009,52	5,2	7,3	7,1	1	1	1	1	1	1	1	1	1	0	1	-30,021142	272,512384	282,678969	0
15.01.2021	03:43:39	0	0	2,485811	2,1585	35,0892	-1,002	79,834	0	1009,62	5,2	7,3	7,1	1	1	1	1	1	1	1	1	1	0	1	-25,72234	272,575686	287,26842	0
15.01.2021	03:43:40	0	0	3,502713	2,0895	7,128	-1,004	79,83	0	1009,56	5,2	7,4	7,2	1	1	1	1	1	1	1	1	1	0	1	-22,410148	272,431499	289,918871	0
15.01.2021	03:43:41	0	0	5,084614	2,2575	35,082	-1,002	79,854	0	1009,54	5,2	7,4	7,1	1	1	1	1	1	1	1	1	1	0	1	-21,071177	272,561907	291,856299	0
15.01.2021	03:43:42	0	0	4,971592	2,50875	22,4712	-1,009	79,845	0	1009,62	5,2	7,3	7,2	1	1	1	1	1	1	1	1	1	0	1	-22,551092	272,549515	290,319475	0
15.01.2021	03:43:43	0	0	4,067666	2,583	8,6256	-1,003	79,857	0	1009,64	5,2	7,3	7,2	1	1	1	1	1	1	1	1	1	0	1	-24,171952	272,530253	288,61018	0
15.01.2021	03:43:44	0	0	4,519656	2,511	20,6388	-1,008	79,859	0	1009,66	5,2	7,3	7,1	1	1	1	1	1	1	1	1	1	0	1	-22,339676	272,549515	290,530892	0
15.01.2021	03:43:45	0	0	4,293674	2,622	19,5408	-1,001	79,859	0	1009,54	5,2	7,4	7,1	1	1	1	1	1	1	1	1	1	0	1	-23,11487	272,469843	289,390023	0
15.01.2021	03:43:46	0	0	3,841685	2,592	19,1448	-1,008	79,849	0	1009,6	5,2	7,3	7,2	1	1	1	1	1	1	1	1	1	0	1	-25,158562	272,578443	287,844861	0
15.01.2021	03:43:47	0	0	4,63262	2,604	354,3048	-1,007	79,863	0	1009,62	5,2	7,3	7,2	1	1	1	1	1	1	1	1	1	0	1	-23,326286	272,421925	288,958831	0
15.01.2021	03:43:48	0	0	4,406665	2,46825	23,9688	-1,012	79,86	0	1009,6	5,2	7,4	7,1	1	1	1	1	1	1	1	1	1	0	1	-22,621564	272,56053	290,299586	0
15.01.2021	03:43:49	0	0	5,084614	2,21325	19,1448	-1,005	79,861	0	1009,54	5,2	7,2	7,1	1	1	1	1	1	1	1	1	1	0	1	-20,930233	272,545385	291,921375	0
15.01.2021	03:43:50	0	0	3,502734	2,0775	23,3136	-1,006	79,866	0	1009,56	5,2	7,2	7,1	1	1	1	1	1	1	1	1	1	0	1	-21,423538	272,544009	291,421752	0
15.01.2021	03:43:51	0	0	4,519656	2,15175	26,1756	-1,006	79,872	0	1009,46	5,2	7,2	7,1	1	1	1	1	1	1	1	1	1	0	1	-19,027484	272,568796	293,931627	0
15.01.2021	03:43:52	0	0	3,389742	2,238	18,846	-1,003	79,878	0	1009,52	5,2	7,3	7,1	1	1	1	1	1	1	1	1	1	0	1	-22,339676	272,475326	290,190377	0
15.01.2021	03:43:53	0	0	4,971592	2,202	18,8568	-1,001	79,878	0	1009,64	5,2	7,3	7,2	1	1	1	1	1	1	1	1	1	0	1	-22,410148	272,431499	289,918871	0
15.01.2021	03:43:54	0	0	4,858631	2,27475	17,7048	-1,005	79,877	0	1009,58	5,2	7,4	7,1	1	1	1	1	1	1	1	1	1	0	1	-20,295983	272,56604	292,650472	0
15.01.2021	03:43:55	0	0	2,711794	2,262	19,5336	-1,003	79,883	0	1009,62	5,2	7,4	7,1	1	1	1	1	1	1	1	1	1	0	1	-25,651868	272,564662	287,288261	0
15.01.2021	03:43:56	0	0	3,050768	2,28375	7,128	-1,006	79,885	0	1009,5	5,2	7,3	7,1	1	1	1	1	1	1	1	1	1	0	1	-21,353066	272,542633	291,485906	0
15.01.2021	03:43:57	0	0	3,841685	2,47875	22,1112	-1	79,892	0	1009,64	5,2	7,3	7,2	1	1	1	1	1	1	1	1	1	0	1	-21,282593	272,575686	291,708166	0
15.01.2021	03:43:58	0	0	2,937759	2,97675	19,9044	-1,002	79,892	0	1009,72	5,2	7,3	7,2	1	1	1	1	1	1	1	1	1	0	1	-20,718816	272,478069	291,82382	0
15.01.2021	03:43:59	0	0	4,63262	3,195	7,5096	-1	79,892	0	1009,72	5,2	7,2	7,2	1	1	1	1	1	1	1	1	1	0	1	-17,195208	272,56053	295,725943	0
15.01.2021	03:44:00	0	0	2,711778	3,4155	352,134	-1,002	79,898	0	1009,62	5,2	7,2	7,2	1	1	1	1	1	1	1	1	1	0	1	-19,732206	272,530253	293,049926	0
15.01.2021	03:44:01	0	0	3,276731	3,44625	357,9984	-1	79,873	0	1009,64	5,2	7,2	7,2	1	1	1	1	1	1	1	1	1	0	1	-19,732206	272,530253	293,049926	0
15.01.2021	03:44:02	0	0	3,276731	3,44625	357,9984	-1	79,873	0	1009,64	5,2	7,2	7,2	1	1	1	1	1	1	1	1	1	0	1	-19,168428	272,395963	292,997661	0
15.01.2021	03:44:03	0	0	3,728694	3,3525	359,514	-1,003	79,879	0	1009,52	5,2	7,3	7,2	1	1	1	1	1	1	1	1	1	0	1	-22,551092	272,62261	290,655246	0
15.01.2021	03:44:04	0	0	3,163741	3,3495	22,0788	-1,009	79,899	0	1009,58	5,2	7,3	7,2	1	1	1	1	1	1	1	1	1	0	1	-22,903453	272,405523	289,306466	0
15.01.2021	03:44:05	0	0	3,276751	3,20325	17,7948	-1,003	79,887	0	1009,54	5,2	7,2	7,1	1	1	1	1	1	1	1	1	1	0	1	-20,436927	272,443815	291,948576	0
15.01.2021	03:44:06	0	0	4,519629	3,29925	8,2692	-1,004	79,896	0	1009,48	5,2	7,3	7,2	1	1	1	1	1	1	1	1	1	0	1	-23,185342	272,410989	289,049635	0
15.01.2021	03:44:07	0	0	3,16376	3,23925	4,8384	-1,004	79,892	0	1009,5	5,2	7,3	7,1	1	1	1	1	1	1	1	1	1	0	1	-24,242424	272,41919	288,030155	0
15.01.2021	03:44:08	0	0	5,084614	3,13575	3,7692	-1,003	79,897	0	1009,64	5,2	7,3	7,1	1	1	1	1	1	1	1	1	1	0	1	-21,423538	272,520629	291,314417	0
15.01.2021	03:44:09	0	0	2,711778	3,04725	8,9856	-1,001	79,905	0	1009,6	5,2	7,3	7,2	1	1	1	1	1	1	1	1	1	0	1	-19,379845	272,417823	292,886465	0
15.01.2021	03:44:10	0	0	3,16376	2,88525	13,1724	-0,999	79,908	0	1009,64	5,2	7,3	7,1	1	1	1	1	1	1	1	1	1	0	1	-19,87315	272,571552	293,098619	0
15.01.2021	03:44:11	0	0	4,971592	2,95875	10,8216	-1,004	79,904	0	1009,6	5,2	7,3	7,2	1	1	1	1	1	1	1	1	1	0	1	-18,957012	272,516506	293,762018	0
15.01.2021	03:44:12	0	0	2,598802	3,042	16,4952	-0,997	79,91	0	1009,76	5,2	7,3	7,1	1	1	1	1	1	1	1	1	1	0	1	-23,960536	272,516506	288,758495	0
15.01.2021	03:44:13	0	0	3,163741	2,937	21,7764	-1,005	79,907	0	1009,44	5,1	7,2	7,2	1	1	1	1	1	1	1	1	1	0	1	-18,534179	272,575686	294,456581	0
15.01.2021	03:44:14	0	0	4,858631	2,75925	17,2296	-0,998	79,926	0	1009,64	5,2	7,3	7,1	1	1	1	1	1	1	1	1	1	0	1	-22,48062	272,571552	290,491149	0
15.01.2021	03:44:15	0	0	2,824768	2,784	32,8824	-1,004	79,91	0	1009,68	5,2	7,2	7,2	1	1	1	1	1	1	1	1	1	0	1	-21,846371	272,546762	291,011557	0
15.01.2021	03:44:16	0	0	3,954676	2,68575	20,6352	-1	79,923	0	1009,52	5,2	7,2	7,2	1	1	1	1	1	1	1	1	1	0	1	-20,436927	272,594994	292,642523	0
15.01.2021	03:44:17	0	0	2,824768	2,5605	20,6208	-0,998	79,925	0	1009,56	5,2	7,3	7,2	1	1	1	1	1	1	1	1	1	0	1	-22,339676	272,534379	290,461398	0
15.01.2021	03:44:18	0	0	4,971622	2,577	22,8384	-1,004	79,928	0	1009,62	5,2	7,4	7,1	1	1	1	1	1	1	1	1	1	0	1	-18,957012	272,555021	293,938843	0
15.01.2021	03:44:19	0	0	4,971592	2,7105	13,5468	-0,999	79,921	0	1009,44	5,2	7,3	7,2	1	1	1	1	1	1	1	1	1	0	1	-22,762509	272,421925	289,522608	0
15.01.2021	03:44:20	0	0	3,05075	2,79675	4,086	-1	79,93	0	1009,66	5,2	7,3	7,2	1	1	1	1	1	1	1	1	1	0	1	-21,141649	272,522004	291,602615	0
15.01.2021	03:44:21	0	0	2,598787	2,82225	0,8748	-1,004	79,944	0	1009,52	5,2	7,3	7,2	1	1	1	1	1	1	1	1	1	0	1	-21,000705	272,408256	291,221742	0
15.01.2021	03:44:22	0	0	2,824768	2,60175	33,6276	-0,998	79,935	0	1009,6	5,2	7,2	7,2	1	1	1	1	1	1	1	1	1	0	1	-21,071177	272,498651	291,565903	0
15.01.2021	03:44:23	0	0	2,937759	2,48775	14,31	-1,006	79,942	0	1009,6	5,2	7,3	7,2	1	1	1	1	1	1	1	1	1	0	1	-22,339676	272,516506	290,379354	0
15.01.2021	03:44:24	0	0	2,711778	2,403	27,2844	-1,003	79,95	0	1009,66	5,2	7,2	7,2	1	1	1	1	1	1	1	1	1	0	1	-22,339676	272,413722	289,907832	0
15.01.2021	03:44:25	0	0	5,084583	2,436	23,9652	-1,002	79,939	0	1009,72	5,2	7,3	7,2	1	1	1	1	1	1	1	1	1	0	1	-22,48062	272,531628	290,307825	0
15.01.2021	03:44:26	0	0	2,259828	2,547	14,6412	-1,006	79,94	0	1009,64	5,1	7,3	7,1	1	1	1	1	1	1	1	1	1	0	1	-22,339676	272,57293	290,638423	0
15.01.2021	03:44:27	0	0	3,615704	2,691	13,1616	-1,004	79,938	0	1009,68	5,2	7,3	7,2	1	1	1	1	1	1	1	1	1	0	1	-20,930233	272,597754	292,161896	0
15.01.2021	03:44:28	0	0	3,050768	3,05175	21,762	-0,989	79,946	0	1009,64	5,2	7,3	7,1	1	1	1	1	1	1	1	1	1	0	1	-21,634954	272,500024	291,008426	0
15.01.2021	03:44:29	0	0	4,858602	3,30525	7,5276	-1,006	79,939	0	1009,62	5,2	7,3	7,2	1	1	1	1	1	1	1	1	1	0	1	-21,141649	272,56604	291,804806	0
15.01.2021	03:44:30	0	0	3,502713	3,474	11,7108	-1	79,949	0	1009,56	5,2	7,3	7,2	1	1	1	1	1	1	1	1	1	0	1	-18,604651	272,436972	293,749467	0
15.01.2021	03:44:31	0	0	3,050768	3,40575	13,1652	-1,005	79,962	0	1009,68	5,2	7,3	7,1	1	1	1	1	1	1	1	1	1	0	1	-24,453841	272,530253	288,328291	0
15.01.2021	03:44:32	0	0	2,824768	3,26775	15,4152	-0,999	79,955	0	1009,76	5,2	7,3	7,2	1	1	1	1	1	1	1	1	1	0	1	-23,044397	272,404157	289,159258	0
15.01.2021	03:44:33	0	0	2,711778	3,129	11,7144	-1	79,958	0	1009,58	5,2	7,3	7,2	1	1	1	1	1	1	1	1	1	0	1	-20,85976	272,442446	291,519465	0
15.01.2021	03:44:34	0	0	4,406639	3,18	19,5336	-0,993	79,971	0	1009,6	5,2	7,3	7,2	1	1	1	1	1	1	1	1	1	0	1	-22,762509	272,517881	289,962829	0
15.01.2021	03:44:35	0	0	4,63262	3,138	22,8384	-1,002	79,957	0	1009,52	5,2	7,3	7,2	1	1	1	1	1	1	1	1	1	0	1	-21,775899	272,416456	290,484144	0
15.01.2021	03:44:36	0	0	3,050768	3,222	14,6556	-1,002	79,962	0	1009,58	5,2	7,3	7,1	1	1	1	1	1	1	1	1	1	0	1	-23,819591	272,456139	288,622441	0
15.01.2021	03:44:37	0	0	3,050768	3,35175	5,2308	-1,003	79,963	0	1009,54	5,2	7,3	7,1	1	1	1	1	1	1	1	1	1	0	1	-19,238901	272,498651	293,398179	0
15.01.2021	03:44:38	0	0	4,63262	3,3255	18,8352	-1,001	79,965	0	1009,62	5,3	7,3	7,2	1	1	1	1	1	1	1	1	1	0	1	-19,168428	272,594994	293,911021	0
15.01.2021	03:44:39	0	0	4,067666	3,20025	21,7692	-1,008	79,963	0	1009,6	5,3	7,3	7,2	1	1	1	1	1	1	1	1	1	0	1	-23,678647	272,539881	289,147689	0
15.01.2021	03:44:40	0	0	3,954676	3,066	18,0864	-1,002	79,969	0	1009,64	5,3	7,3	7,2	1	1	1	1	1	1	1	1	1	0	1	-22,339676	272,531628	290,44877	0
15.01.2021	03:44:41	0	0	4,406639	3,012	13,266	-1,001	79,962	0	1009,56	5,1	7,2	7,2	1	1	1	1	1	1	1	1	1	0	1	-21,141649	272,40689	291,074533	0
15.01.2021	03:44:42	0	0	2,937759	2,95125	19,9188	-0,999	79,981	0	1009,7	5,2	7,3	7,2	1	1	1	1	1	1	1	1	1	0	1	-22,551092	272,450661	289,86581	0
15.01.2021	03:44:43	0	0	5,084583	2,856	10,8288	-0,999	79,966	0	1009,68	5,1	7,3	7,2	1	1	1	1	1	1	1	1	1	0	1	-18,816068	272,564662	294,124061	0
15.01.2021	03:44:44	0	0	3,502713	2,922	19,1412	-1,012	79,972	0	1009,6	5,1	7,3	7,2	1	1	1	1	1	1	1	1	1	0	1	-22,692037	272,432867	289,643256	0
15.01.2021	03:44:45	0	0	3,615704	2,7975	16,4952	-1	79,993	0	1009,72	5,1	7,3	7,2	1	1	1	1	1	1	1	1	1	0	1	-20,789288	272,471213	291,721894	0
15.01.2021	03:44:46	0	0	3,276731	2,66025	10,0656	-0,999	79,992	0	1009,66	5,1	7,2	7,2	1	1	1	1	1	1	1	1	1	0	1	-19,309373	272,420557	292,969475	0
15.01.2021	03:44:47	0	0	3,841708	2,84325	16,8552	-1,002	79,997	0	1009,7	5,1	7,3	7,1	1	1	1	1	1	1	1	1	1	0	1	-26,70895	272,527503	286,060557	0
15.01.2021	03:44:48	0	0	3,615725	2,9115	17,7048	-1,004	79,99	0	1009,6	5,1	7,3	7,1	1	1	1	1	1	1	1	1	1	0	1	-24,876674	272,40689	287,339509	0
15.01.2021	03:44:49	0	0	2,711778	2,8545	8,2728	-1,003	80,012	0	1009,58	5,1	7,3	7,2	1	1	1	1	1	1	1	1	1	0	1	-29,034531	272,49316	283,577351	0
15.01.2021	03:44:50	0	0	4,745611	2,8125	12,8448	-1	80	0	1009,6	5,2	7,3	7,2	1	1	1	1	1	1	1	1	1	0	1	-24,665257	272,599134	288,433212	0
15.01.2021	03:44:51	0	0	3,841708	2,85525	24,3612	-1,001	80,009	0	1009,54	5,2	7,3	7,1	1	1	1	1	1	1	1	1	1	0	1	-22,48062	272,522004	290,263644	0
15.01.2021	03:44:52	0	0	4,745639	2,75925	21,0312	-0,998	80,017	0	1009,64	5,1	7,3	7,1	1	1	1	1	1	1	1	1	1	0	1	-21,705426	272,579822	291,304329	0
15.01.2021	03:44:53	0	0	5,197605	2,84475	15,4224	-0,999	80,021	0	1009,6	5,1	7,3	7,1	1	1	1	1	1	1	1	1	1	0	1	-18,816068	272,511011	293,877737	0
15.01.2021	03:44:54	0	0	3,276731	2,89575	13,554	-1,003	80,025	0	1009,74	5,1	7,2	7,2	1	1	1	1	1	1	1	1	1	0	1	-22,057787	272,421925	290,22733	0
15.01.2021	03:44:55	0	0	4,858602	3,12375	15,408	-1,002	80,032	0	1009,32	5,2	7,3	7,2	1	1	1	1	1	1	1	1	1	0	1	-20,084567	272,461619	292,382603	0
15.01.2021	03:44:56	0	0	2,937777	3,12075	18,8424	-1	80,025	0	1009,48	5,1	7,3	7,1	1	1	1	1	1	1	1	1	1	0	1	-24,947146	272,597754	288,144983	0
15.01.2021	03:44:57	0	0	3,16376	2,883	29,592	-1,007	80,037	0	1009,54	5,2	7,3	7,1	1	1	1	1	1	1	1	1	1	0	1	-22,057787	272,498651	290,579292	0
15.01.2021	03:44:58	0	0	4,519656	2,739	11,7396	-0,999	80,031	0	1009,68	5,2	7,3	7,1	1	1	1	1	1	1	1	1	1	0	1	-21,49401	272,441077	290,878938	0
15.01.2021	03:44:59	0	0	4,180657	2,7435	11,7252	-1,008	80,041	0	1009,44	5,1	7,3	7,2	1	1	1	1	1	1	1	1	1	0	1	-24,947146	272,589475	288,106953	0
15.01.2021	03:45:00	0	0	3,728694	2,76075	17,6976	-1,005	80,055	0	1009,48	5,2	7,3	7,2	1	1	1	1	1	1	1	1	1	0	1	-25,792812	272,571552	287,178957	0
15.01.2021	03:45:01	0	0	3,728694	2,76075	17,6976	-1,005	80,055	0	1009,48	5,2	7,3	7,2	1	1	1	1	1	1	1	1	1	0	1	-25,792812	272,571552	287,178957	0
15.01.2021	03:45:02	0	0	4,632648	2,97075	13,5504	-0,998	80,064	0	1009,68	5,1	7,3	7,1	1	1	1	1	1	1	1	1	1	0	1	-22,128259	272,530253	290,653873	0
15.01.2021	03:45:03	0	0	2,937777	3,30825	11,7324	-1	80,058	0	1009,48	5,1	7,3	7,1	1	1	1	1	1	1	1	1	1	0	1	-24,453841	272,593614	288,619271	0
15.01.2021	03:45:04	0	0	4,519656	3,49125	16,1028	-0,999	80,069	0	1009,76	5,2	7,3	7,1	1	1	1	1	1	1	1	1	1	0	1	-23,255814	272,505516	289,412774	0
15.01.2021	03:45:05	0	0	3,954699	3,47625	16,1064	-1,002	80,071	0	1009,7	5,2	7,3	7,1	1	1	1	1	1	1	1	1	1	0	1	-27,413672	272,564662	285,526457	0
15.01.2021	03:45:06	0	0	4,293674	3,4005	18,0828	-0,998	80,074	0	1009,6	5,2	7,3	7,1	1	1	1	1	1	1	1	1	1	0	1	-24,947146	272,578443	288,056277	0
15.01.2021	03:45:07	0	0	4,63262	3,37425	4,0896	-1,002	80,075	0	1009,7	5,2	7,3	7,2	1	1	1	1	1	1	1	1	1	0	1	-25,792812	272,47944	286,756117	0
15.01.2021	03:45:08	0	0	3,728717	3,174	2,6604	-0,992	80,146	0	1009,56	5,2	7,3	7,1	1	1	1	1	1	1	1	1	1	0	1	-22,762509	272,435603	289,585333	0
15.01.2021	03:45:09	0	0	4,971622	2,9055	359,1324	-0,998	80,082	0	1009,78	5,2	7,3	7,1	1	1	1	1	1	1	1	1	1	0	1	-23,326286	272,53713	289,487418	0
15.01.2021	03:45:10	0	0	4,519656	2,8065	0	-1,004	80,072	0	1009,6	5,2	7,3	7,1	1	1	1	1	1	1	1	1	1	0	1	-27,625088	272,439709	284,741582	0
15.01.2021	03:45:11	0	0	3,16376	2,8395	25,0416	-0,999	80,1	0	1009,5	5,2	7,3	7,1	1	1	1	1	1	1	1	1	1	0	1	-22,410148	272,42466	289,88751	0
15.01.2021	03:45:12	0	0	3,841708	2,82225	20,6352	-1,003	80,096	0	1009,62	5,2	7,3	7,1	1	1	1	1	1	1	1	1	1	0	1	-21,353066	272,575686	291,637694	0
15.01.2021	03:45:13	0	0	3,728717	2,91075	16,488	-0,998	80,096	0	1009,54	5,2	7,3	7,1	1	1	1	1	1	1	1	1	1	0	1	-24,171952	272,415089	288,081823	0
15.01.2021	03:45:14	0	0	4,293674	3,192	7,1316	-1	80,101	0	1009,6	5,2	7,3	7,1	1	1	1	1	1	1	1	1	1	0	1	-23,819591	272,50277	288,836392	0
15.01.2021	03:45:15	0	0	4,745611	3,426	11,2212	-1	80,092	0	1009,6	5,2	7,3	7,2	1	1	1	1	1	1	1	1	1	0	1	-22,269204	272,564662	290,670925	0
15.01.2021	03:45:16	0	0	2,824785	3,339	7,5096	-0,999	80,086	0	1009,4	5,2	7,3	7,1	1	1	1	1	1	1	1	1	1	0	1	-18,25229	272,606035	294,877888	0
15.01.2021	03:45:17	0	0	3,050768	3,0345	16,0992	-0,997	80,109	0	1009,56	5,2	7,3	7,1	1	1	1	1	1	1	1	1	1	0	1	-23,960536	272,559153	288,95429	0
15.01.2021	03:45:18	0	0	3,16376	2,8095	16,4808	-0,997	80,113	0	1009,54	5,2	7,3	7,1	1	1	1	1	1	1	1	1	1	0	1	-20,084567	272,604655	293,039269	0
15.01.2021	03:45:19	0	0	3,276751	2,74425	22,086	-0,998	80,097	0	1009,6	5,2	7,3	7,1	1	1	1	1	1	1	1	1	1	0	1	-22,339676	272,58258	290,682747	0
15.01.2021	03:45:20	0	0	2,824785	2,56425	19,908	-0,992	80,129	0	1009,54	5,2	7,3	7,1	1	1	1	1	1	1	1	1	1	0	1	-22,551092	272,546762	290,306835	0
15.01.2021	03:45:21	0	0	3,050768	2,436	22,0896	-1,003	80,125	0	1009,7	5,2	7,3	7,1	1	1	1	1	1	1	1	1	1	0	1	-21,282593	272,426027	291,021336	0
15.01.2021	03:45:22	0	0	3,502734	2,40525	22,8204	-1,001	80,121	0	1009,64	5,2	7,3	7,1	1	1	1	1	1	1	1	1	1	0	1	-22,973925	272,564662	289,966203	0
15.01.2021	03:45:23	0	0	3,728717	2,2185	17,712	-0,992	80,122	0	1009,6	5,2	7,3	7,1	1	1	1	1	1	1	1	1	1	0	1	-21,000705	272,604655	292,123131	0
15.01.2021	03:45:24	0	0	3,050768	2,07225	24,732	-1,002	80,124	0	1009,66	5,2	7,3	7,1	1	1	1	1	1	1	1	1	1	0	1	-20,718816	272,608797	292,42405	0
15.01.2021	03:45:25	0	0	4,067691	2,1675	12,8664	-0,997	80,14	0	1009,62	5,2	7,3	7,1	1	1	1	1	1	1	1	1	1	0	1	-22,339676	272,568796	290,619435	0
15.01.2021	03:45:26	0	0	3,954699	2,337	13,5432	-1,005	80,133	0	1009,54	5,2	7,3	7,1	1	1	1	1	1	1	1	1	1	0	1	-23,255814	272,427395	289,054387	0
15.01.2021	03:45:27	0	0	3,16376	2,544	15,7752	-0,999	80,14	0	1009,56	5,2	7,3	7,1	1	1	1	1	1	1	1	1	1	0	1	-19,450317	272,458879	293,004283	0
15.01.2021	03:45:28	0	0	2,824785	2,5665	31,8024	-0,998	80,136	0	1009,62	5,2	7,3	7,1	1	1	1	1	1	1	1	1	1	0	1	-21,775899	272,545385	291,07571	0
15.01.2021	03:45:29	0	0	2,824785	2,58075	11,736	-1,002	80,135	0	1009,66	5,2	7,3	7,1	1	1	1	1	1	1	1	1	1	0	1	-24,031008	272,603274	289,086486	0
15.01.2021	03:45:30	0	0	4,971622	2,57625	20,6316	-0,999	80,133	0	1009,66	5,2	7,3	7,1	1	1	1	1	1	1	1	1	1	0	1	-23,185342	272,487671	289,401352	0
15.01.2021	03:45:31	0	0	4,067691	2,64525	10,0728	-0,999	80,138	0	1009,56	5,2	7,3	7,1	1	1	1	1	1	1	1	1	1	0	1	-27,131783	272,592234	285,93499	0
15.01.2021	03:45:32	0	0	4,632648	2,63025	16,1964	-0,994	80,148	0	1009,68	5,2	7,3	7,1	1	1	1	1	1	1	1	1	1	0	1	-24,665257	272,473955	287,858505	0
15.01.2021	03:45:33	0	0	4,180682	2,73675	23,598	-0,997	80,142	0	1009,64	5,2	7,3	7,1	1	1	1	1	1	1	1	1	1	0	1	-24,031008	272,575686	288,959752	0
15.01.2021	03:45:34	0	0	2,485811	2,787	13,932	-0,995	80,134	0	1009,72	5,2	7,3	7,1	1	1	1	1	1	1	1	1	1	0	1	-19,027484	272,426027	293,276445	0
15.01.2021	03:45:35	0	0	4,067691	2,68125	4,0968	-0,997	80,154	0	1009,6	5,2	7,3	7,1	1	1	1	1	1	1	1	1	1	0	1	-24,665257	272,519255	288,066389	0
15.01.2021	03:45:36	0	0	5,084614	2,79	16,1064	-0,994	80,157	0	1009,68	5,2	7,3	7,1	1	1	1	1	1	1	1	1	1	0	1	-25,792812	272,589475	287,261287	0
15.01.2021	03:45:37	0	0	4,971622	3,207	5,688	-1	80,147	0	1009,54	5,2	7,3	7,1	1	1	1	1	1	1	1	1	1	0	1	-23,46723	272,586717	289,574196	0
15.01.2021	03:45:38	0	0	3,615725	3,37875	7,1388	-0,996	80,162	0	1009,6	5,2	7,3	7,1	1	1	1	1	1	1	1	1	1	0	1	-19,238901	272,557775	293,669601	0
15.01.2021	03:45:39	0	0	2,937777	3,37275	7,1352	-0,995	80,165	0	1009,72	5,2	7,3	7,1	1	1	1	1	1	1	1	1	1	0	1	-23,396758	272,608797	289,746108	0
15.01.2021	03:45:40	0	0	3,050768	3,465	3,7908	-0,997	80,166	0	1009,58	5,2	7,3	7,1	1	1	1	1	1	1	1	1	1	0	1	-24,876674	272,519255	287,854972	0
15.01.2021	03:45:41	0	0	2,937777	3,62325	15,8076	-0,995	80,158	0	1009,58	5,2	7,3	7,1	1	1	1	1	1	1	1	1	1	0	1	-24,312896	272,604655	288,810939	0
15.01.2021	03:45:42	0	0	5,310596	3,40425	23,9832	-0,996	80,158	0	1009,7	5,2	7,3	7,1	1	1	1	1	1	1	1	1	1	0	1	-18,675123	272,586717	294,366303	0
15.01.2021	03:45:43	0	0	4,632648	3,2115	28,4724	-0,993	80,169	0	1009,8	5,2	7,3	7,1	1	1	1	1	1	1	1	1	1	0	1	-23,608175	272,555021	289,28768	0
15.01.2021	03:45:44	0	0	3,615725	3,045	27,288	-1,002	80,17	0	1009,6	5,2	7,3	7,1	1	1	1	1	1	1	1	1	1	0	1	-20,577872	272,432867	291,757421	0
15.01.2021	03:45:45	0	0	4,632648	3,08625	17,6976	-0,995	80,176	0	1009,66	5,2	7,3	7,1	1	1	1	1	1	1	1	1	1	0	1	-21,564482	272,563285	291,36932	0
15.01.2021	03:45:46	0	0	4,293674	3,027	21,384	-0,994	80,174	0	1009,6	5,2	7,3	7,1	1	1	1	1	1	1	1	1	1	0	1	-21,423538	272,604655	291,700298	0
15.01.2021	03:45:47	0	0	3,050768	2,83125	17,712	-0,997	80,161	0	1009,64	5,1	7,3	7,1	1	1	1	1	1	1	1	1	1	0	1	-23,537703	272,472584	288,979769	0
15.01.2021	03:45:48	0	0	3,050768	2,59875	16,866	-1,003	80,179	0	1009,64	5,2	7,3	7,1	1	1	1	1	1	1	1	1	1	0	1	-19,943622	272,586717	293,097804	0
15.01.2021	03:45:49	0	0	4,971622	2,51325	9,756	-0,995	80,178	0	1009,64	5,1	7,3	7,1	1	1	1	1	1	1	1	1	1	0	1	-20,718816	272,62261	292,487523	0
15.01.2021	03:45:50	0	0	4,632648	2,5095	7,8912	-1	80,181	0	1009,62	5,2	7,3	7,1	1	1	1	1	1	1	1	1	1	0	1	-29,175476	272,490416	283,423812	0
15.01.2021	03:45:51	0	0	4,745639	2,61	11,7288	-0,992	80,184	0	1009,62	5,2	7,3	7,1	1	1	1	1	1	1	1	1	1	0	1	-24,383369	272,475326	288,146684	0
15.01.2021	03:45:52	0	0	4,067691	2,682	18,8568	-1	80,178	0	1009,66	5,2	7,3	7,1	1	1	1	1	1	1	1	1	1	0	1	-26,004228	272,442446	286,374997	0
15.01.2021	03:45:53	0	0	4,632648	2,6535	16,47	-0,997	80,19	0	1009,74	5,2	7,3	7,1	1	1	1	1	1	1	1	1	1	0	1	-22,339676	272,500024	290,303704	0
15.01.2021	03:45:54	0	0	2,711794	2,57025	14,004	-0,996	80,181	0	1009,52	5,2	7,3	7,1	1	1	1	1	1	1	1	1	1	0	1	-22,057787	272,409622	290,170924	0
15.01.2021	03:45:55	0	0	3,954699	2,63475	9,7668	-0,994	80,184	0	1009,58	5,2	7,3	7,1	1	1	1	1	1	1	1	1	1	0	1	-21,282593	272,483555	291,285215	0
15.01.2021	03:45:56	0	0	3,389742	2,7405	14,6664	-0,995	80,188	0	1009,6	5,2	7,3	7,1	1	1	1	1	1	1	1	1	1	0	1	-24,242424	272,610178	288,906787	0
15.01.2021	03:45:57	0	0	3,615725	2,9655	23,5836	-0,996	80,191	0	1009,62	5,2	7,3	7,1	1	1	1	1	1	1	1	1	1	0	1	-19,87315	272,475326	292,656903	0
15.01.2021	03:45:58	0	0	2,937777	3,04875	19,6596	-0,997	80,19	0	1009,56	5,2	7,3	7,1	1	1	1	1	1	1	1	1	1	0	1	-23,749119	272,449292	288,661503	0
15.01.2021	03:45:59	0	0	3,389742	3,24075	16,4808	-0,999	80,185	0	1009,54	5,2	7,3	7,1	1	1	1	1	1	1	1	1	1	0	1	-21,071177	272,457509	291,377139	0
15.01.2021	03:46:00	0	0	4,293674	3,37725	18,0828	-0,999	80,206	0	1009,66	5,2	7,3	7,1	1	1	1	1	1	1	1	1	1	0	1	-24,312896	272,61294	288,849006	0
15.01.2021	03:46:01	0	0	4,293674	3,37725	18,0828	-0,999	80,206	0	1009,66	5,2	7,3	7,1	1	1	1	1	1	1	1	1	1	0	1	-24,312896	272,61294	288,849006	0
15.01.2021	03:46:02	0	0	4,971622	3,39675	29,0916	-0,994	80,193	0	1009,6	5,1	7,3	7,1	1	1	1	1	1	1	1	1	1	0	1	-23,255814	272,577065	289,741277	0
15.01.2021	03:46:03	0	0	4,519656	3,243	14,6556	-0,994	80,201	0	1009,62	5,2	7,3	7,1	1	1	1	1	1	1	1	1	1	0	1	-20,155039	272,447922	292,249303	0
15.01.2021	03:46:04	0	0	4,180682	3,183	12,4776	-0,995	80,216	0	1009,62	5,1	7,3	7,1	1	1	1	1	1	1	1	1	1	0	1	-22,198732	272,617083	290,982212	0
15.01.2021	03:46:05	0	0	3,615725	3,05775	6,8256	-0,996	80,217	0	1009,74	5,2	7,3	7,1	1	1	1	1	1	1	1	1	1	0	1	-18,675123	272,567418	294,277659	0
15.01.2021	03:46:06	0	0	3,728717	2,9145	11,7252	-0,993	80,205	0	1009,56	5,1	7,3	7,1	1	1	1	1	1	1	1	1	1	0	1	-21,846371	272,574308	291,138058	0
15.01.2021	03:46:07	0	0	4,067691	2,87175	7,5276	-0,997	80,221	0	1009,58	5,1	7,3	7,1	1	1	1	1	1	1	1	1	1	0	1	-21,49401	272,615702	291,680586	0
15.01.2021	03:46:08	0	0	4,406665	2,838	12,4632	-0,994	80,198	0	1009,64	5,2	7,3	7,1	1	1	1	1	1	1	1	1	1	0	1	-26,356589	272,533003	286,43817	0
15.01.2021	03:46:09	0	0	4,632648	2,69925	18,4716	-0,994	80,21	0	1009,62	5,2	7,3	7,1	1	1	1	1	1	1	1	1	1	0	1	-18,393235	272,436972	293,960883	0
15.01.2021	03:46:10	0	0	3,954699	2,664	17,2404	-0,992	80,21	0	1009,56	5,2	7,3	7,1	1	1	1	1	1	1	1	1	1	0	1	-26,638478	272,475326	285,891575	0
15.01.2021	03:46:11	0	0	4,519656	2,61075	21,0384	-0,989	80,204	0	1009,56	5,1	7,3	7,1	1	1	1	1	1	1	1	1	1	0	1	-25,651868	272,550891	287,225021	0
15.01.2021	03:46:12	0	0	3,954699	2,47575	20,2788	-0,993	80,212	0	1009,64	5,2	7,3	7,1	1	1	1	1	1	1	1	1	1	0	1	-24,031008	272,608797	289,111859	0
15.01.2021	03:46:13	0	0	5,084614	2,46525	16,5672	-0,993	80,219	0	1009,64	5,2	7,3	7,1	1	1	1	1	1	1	1	1	1	0	1	-23,326286	272,490416	289,273001	0
15.01.2021	03:46:14	0	0	2,824785	2,427	22,086	-0,993	80,218	0	1009,6	5,1	7,3	7,1	1	1	1	1	1	1	1	1	1	0	1	-18,111346	272,589475	294,942753	0
15.01.2021	03:46:15	0	0	4,067691	2,493	20,6388	-1,001	80,206	0	1009,54	5,1	7,3	7,1	1	1	1	1	1	1	1	1	1	0	1	-22,410148	272,46299	290,063308	0
15.01.2021	03:46:16	0	0	4,632648	2,52075	18,09	-0,994	80,227	0	1009,6	5,1	7,3	7,1	1	1	1	1	1	1	1	1	1	0	1	-25,440451	272,508263	287,240744	0
15.01.2021	03:46:17	0	0	2,485811	2,526	20,6388	-0,996	80,231	0	1009,66	5,1	7,3	7,1	1	1	1	1	1	1	1	1	1	0	1	-28,188865	272,614321	284,979383	0
15.01.2021	03:46:18	0	0	4,180682	2,598	14,6484	-0,996	80,226	0	1009,62	5,1	7,3	7,1	1	1	1	1	1	1	1	1	1	0	1	-23,255814	272,593614	289,817297	0
15.01.2021	03:46:19	0	0	4,293674	2,67525	13,2588	-0,996	80,215	0	1009,7	5,1	7,3	7,1	1	1	1	1	1	1	1	1	1	0	1	-20,155039	272,486299	292,42536	0
15.01.2021	03:46:20	0	0	4,858631	2,71425	9,3744	-1,001	80,228	0	1009,56	5,1	7,3	7,1	1	1	1	1	1	1	1	1	1	0	1	-24,665257	272,625374	288,553782	0
15.01.2021	03:46:21	0	0	2,37282	2,75175	16,4808	-0,992	80,239	0	1009,7	5,1	7,3	7,1	1	1	1	1	1	1	1	1	1	0	1	-19,379845	272,539881	293,446491	0
15.01.2021	03:46:22	0	0	4,858631	2,8005	8,6148	-1,002	80,227	0	1009,52	5,1	7,3	7,1	1	1	1	1	1	1	1	1	1	0	1	-21,49401	272,575686	291,49675	0
15.01.2021	03:46:23	0	0	2,937777	2,832	8,6184	-0,994	80,236	0	1009,72	5,1	7,3	7,1	1	1	1	1	1	1	1	1	1	0	1	-18,675123	272,57293	294,302975	0
15.01.2021	03:46:24	0	0	4,632648	2,676	16,4736	-0,992	80,247	0	1009,66	5,1	7,3	7,1	1	1	1	1	1	1	1	1	1	0	1	-22,48062	272,546762	290,377307	0
15.01.2021	03:46:25	0	0	2,711794	2,50875	13,9212	-0,991	80,231	0	1009,66	5,1	7,3	7,1	1	1	1	1	1	1	1	1	1	0	1	-21,49401	272,62261	291,712329	0
15.01.2021	03:46:26	0	0	2,485811	2,37225	10,4508	-0,997	80,235	0	1009,52	5,1	7,5	7,1	1	1	1	1	1	1	1	1	1	0	1	-23,890063	272,557775	289,018438	0
15.01.2021	03:46:27	0	0	2,824785	2,4045	12,8556	-0,988	80,236	0	1009,64	5,1	7,3	7,1	1	1	1	1	1	1	1	1	1	0	1	-20,930233	272,630902	292,314216	0
15.01.2021	03:46:28	0	0	3,954699	2,43975	13,9248	-0,994	80,258	0	1009,78	5,1	7,3	7,1	1	1	1	1	1	1	1	1	1	0	1	-23,044397	272,517881	289,68094	0
15.01.2021	03:46:29	0	0	4,858631	2,427	11,214	-0,993	80,253	0	1009,62	5,1	7,3	7,1	1	1	1	1	1	1	1	1	1	0	1	-20,014094	272,45203	292,40909	0
15.01.2021	03:46:30	0	0	3,728717	2,436	12,8592	-0,987	80,25	0	1009,44	5,1	7,3	7,1	1	1	1	1	1	1	1	1	1	0	1	-25,581395	272,430131	286,74135	0
15.01.2021	03:46:31	0	0	4,519602	2,40525	10,1556	-0,994	80,237	0	1009,64	5,1	7,3	7,3	1	1	1	1	1	1	1	1	1	0	1	-24,383369	272,550891	288,49352	0
15.01.2021	03:46:32	0	0	2,937777	2,487	15,4188	-0,987	80,253	0	1009,74	5,1	7,3	7,1	1	1	1	1	1	1	1	1	1	0	1	-21,141649	272,625374	292,077391	0
15.01.2021	03:46:33	0	0	3,276751	2,6955	8,2692	-0,996	80,243	0	1009,66	5,1	7,3	7,1	1	1	1	1	1	1	1	1	1	0	1	-20,930233	272,581201	292,085856	0
15.01.2021	03:46:34	0	0	2,824785	2,808	24,3216	-0,996	80,242	0	1009,62	5,1	7,3	7,1	1	1	1	1	1	1	1	1	1	0	1	-20,718816	272,592234	292,347957	0
15.01.2021	03:46:35	0	0	4,971622	2,787	16,4808	-0,994	80,264	0	1009,48	5,1	7,3	7,1	1	1	1	1	1	1	1	1	1	0	1	-23,890063	272,62261	289,316275	0
15.01.2021	03:46:36	0	0	3,502734	2,85825	14,3136	-0,992	80,264	0	1009,64	5,1	7,3	7,1	1	1	1	1	1	1	1	1	1	0	1	-24,031008	272,597754	289,061121	0
15.01.2021	03:46:37	0	0	3,163722	3,078	9,0036	-0,998	80,252	0	1009,74	5,1	7,3	7,3	1	1	1	1	1	1	1	1	1	0	1	-22,410148	272,434235	289,931419	0
15.01.2021	03:46:38	0	0	4,067691	3,09675	10,9008	-0,991	80,265	0	1009,66	5,1	7,3	7,1	1	1	1	1	1	1	1	1	1	0	1	-26,215645	272,511011	286,47816	0
15.01.2021	03:46:39	0	0	2,37282	2,835	12,474	-0,993	80,269	0	1009,56	5,1	7,5	7,1	1	1	1	1	1	1	1	1	1	0	1	-23,185342	272,43834	289,175052	0
15.01.2021	03:46:40	0	0	2,598802	2,496	15,4152	-0,995	80,25	0	1009,52	5,1	7,3	7,1	1	1	1	1	1	1	1	1	1	0	1	-18,957012	272,533003	293,837747	0
15.01.2021	03:46:41	0	0	2,937777	2,35725	18,4608	-0,992	80,255	0	1009,58	5,1	7,3	7,1	1	1	1	1	1	1	1	1	1	0	1	-22,410148	272,606035	290,720031	0
15.01.2021	03:46:42	0	0	4,519656	2,34825	22,0896	-0,994	80,273	0	1009,58	5,1	7,3	7,1	1	1	1	1	1	1	1	1	1	0	1	-19,87315	272,574308	293,111279	0
15.01.2021	03:46:43	0	0	3,050732	2,4195	16,866	-0,99	80,286	0	1009,74	5,1	7,3	7,3	1	1	1	1	1	1	1	1	1	0	1	-27,625088	272,619846	285,568552	0
15.01.2021	03:46:44	0	0	3,615725	2,43525	22,0752	-0,997	80,269	0	1009,68	5,1	7,3	7,1	1	1	1	1	1	1	1	1	1	0	1	-21,916843	272,599134	291,181626	0
15.01.2021	03:46:45	0	0	3,615682	2,43675	15,4152	-0,989	80,284	0	1009,78	5,1	7,5	7,3	1	1	1	1	1	1	1	1	1	0	1	-23,044397	272,545385	289,807211	0
15.01.2021	03:46:46	0	0	3,276712	2,5095	17,7012	-0,994	80,284	0	1009,76	5,1	7,5	7,3	1	1	1	1	1	1	1	1	1	0	1	-18,957012	272,43834	293,403382	0
15.01.2021	03:46:47	0	0	5,197605	2,41575	358,7436	-0,997	80,279	0	1009,7	5,1	7,5	7,1	1	1	1	1	1	1	1	1	1	0	1	-18,040874	272,578443	294,962549	0
15.01.2021	03:46:48	0	0	5,084614	2,34375	13,5612	-0,989	80,279	0	1009,7	5,1	7,5	7,1	1	1	1	1	1	1	1	1	1	0	1	-22,057787	272,460249	290,403097	0
15.01.2021	03:46:49	0	0	4,067642	2,38875	359,5104	-0,991	80,278	0	1009,46	5,1	7,3	7,3	1	1	1	1	1	1	1	1	1	0	1	-17,406624	272,603274	295,710869	0
15.01.2021	03:46:50	0	0	2,598771	2,47425	11,6964	-0,998	80,268	0	1009,52	5,1	7,5	7,3	1	1	1	1	1	1	1	1	1	0	1	-21,846371	272,508263	290,834825	0
15.01.2021	03:46:51	0	0	4,632592	2,343	17,2476	-0,994	80,276	0	1009,68	5,1	7,3	7,3	1	1	1	1	1	1	1	1	1	0	1	-22,339676	272,637816	290,936546	0
15.01.2021	03:46:52	0	0	4,745639	2,3145	16,0992	-0,994	80,279	0	1009,5	5,1	7,5	7,1	1	1	1	1	1	1	1	1	1	0	1	-20,155039	272,548138	292,709208	0
15.01.2021	03:46:53	0	0	4,180682	2,43	19,5372	-0,991	80,28	0	1009,76	5,1	7,5	7,1	1	1	1	1	1	1	1	1	1	0	1	-19,661734	272,480812	292,893488	0
15.01.2021	03:46:54	0	0	3,389702	2,5545	8,2836	-0,991	80,283	0	1009,62	5,1	7,5	7,3	1	1	1	1	1	1	1	1	1	0	1	-18,816068	272,473955	293,707694	0
15.01.2021	03:46:55	0	0	2,824751	2,64675	18,4644	-0,99	80,293	0	1009,6	5,2	7,5	7,3	1	1	1	1	1	1	1	1	1	0	1	-19,943622	272,56053	292,977528	0
15.01.2021	03:46:56	0	0	2,598802	2,484	16,8516	-0,991	80,286	0	1009,6	5,2	7,3	7,1	1	1	1	1	1	1	1	1	1	0	1	-19,168428	272,456139	293,273603	0
15.01.2021	03:46:57	0	0	4,067691	2,3895	11,7252	-0,99	80,296	0	1009,66	5,1	7,3	7,1	1	1	1	1	1	1	1	1	1	0	1	-20,225511	272,497278	292,405268	0
15.01.2021	03:46:58	0	0	2,937741	2,40525	16,4916	-0,99	80,298	0	1009,72	5,2	7,5	7,3	1	1	1	1	1	1	1	1	1	0	1	-18,040874	272,4534	294,388592	0
15.01.2021	03:46:59	0	0	3,502692	2,34	8,2692	-0,989	80,285	0	1009,62	5,1	7,3	7,3	1	1	1	1	1	1	1	1	1	0	1	-19,168428	272,500024	293,474952	0
15.01.2021	03:47:00	0	0	4,067642	2,19825	12,474	-0,994	80,295	0	1009,52	5,1	7,5	7,3	1	1	1	1	1	1	1	1	1	0	1	-19,379845	272,619846	293,813795	0
15.01.2021	03:47:01	0	0	4,067642	2,19825	12,474	-0,994	80,295	0	1009,52	5,1	7,5	7,3	1	1	1	1	1	1	1	1	1	0	1	-19,379845	272,619846	293,813795	0
15.01.2021	03:47:02	0	0	4,745582	2,1045	13,1724	-0,987	80,301	0	1009,54	5,2	7,3	7,3	1	1	1	1	1	1	1	1	1	0	1	-24,031008	272,515132	288,681715	0
15.01.2021	03:47:03	0	0	3,954652	2,03475	30,708	-0,991	80,302	0	1009,62	5,1	7,5	7,3	1	1	1	1	1	1	1	1	1	0	1	-21,423538	272,640582	291,865398	0
15.01.2021	03:47:04	0	0	4,180632	2,25075	1,5696	-0,985	80,313	0	1009,72	5,2	7,3	7,3	1	1	1	1	1	1	1	1	1	0	1	-19,87315	272,527503	292,896357	0
15.01.2021	03:47:05	0	0	3,728717	2,44725	10,4472	-0,996	80,29	0	1009,7	5,1	7,5	7,1	1	1	1	1	1	1	1	1	1	0	1	-19,661734	272,633667	293,595423	0
15.01.2021	03:47:06	0	0	2,937741	2,36775	25,794	-0,985	80,316	0	1009,66	5,2	7,5	7,3	1	1	1	1	1	1	1	1	1	0	1	-17,547569	272,561907	295,379907	0
15.01.2021	03:47:07	0	0	4,858631	2,2485	10,4652	-0,985	80,306	0	1009,64	5,1	7,5	7,1	1	1	1	1	1	1	1	1	1	0	1	-20,930233	272,641965	292,36506	0
15.01.2021	03:47:08	0	0	4,745582	2,15625	14,688	-0,992	80,316	0	1009,82	5,1	7,3	7,3	1	1	1	1	1	1	1	1	1	0	1	-18,040874	272,516506	294,678156	0
15.01.2021	03:47:09	0	0	4,745582	2,11125	15,0408	-0,99	80,315	0	1009,62	5,2	7,3	7,3	1	1	1	1	1	1	1	1	1	0	1	-16,772375	272,465731	295,713654	0
15.01.2021	03:47:10	0	0	2,824751	2,09775	16,8588	-0,989	80,314	0	1009,66	5,2	7,5	7,3	1	1	1	1	1	1	1	1	1	0	1	-19,87315	272,460249	292,587734	0
15.01.2021	03:47:11	0	0	3,841708	2,03025	14,6628	-0,989	80,32	0	1009,52	5,1	7,3	7,1	1	1	1	1	1	1	1	1	1	0	1	-18,393235	272,526128	294,369961	0
15.01.2021	03:47:12	0	0	4,519602	2,058	17,7156	-0,985	80,309	0	1009,56	5,2	7,3	7,3	1	1	1	1	1	1	1	1	1	0	1	-20,084567	272,457509	292,363749	0
15.01.2021	03:47:13	0	0	3,050732	2,11725	18,4536	-0,989	80,316	0	1009,6	5,2	7,5	7,3	1	1	1	1	1	1	1	1	1	0	1	-16,138125	272,589475	296,915973	0
15.01.2021	03:47:14	0	0	3,276712	2,223	21,402	-0,991	80,309	0	1009,56	5,2	7,5	7,3	1	1	1	1	1	1	1	1	1	0	1	-22,973925	272,473955	289,549837	0
15.01.2021	03:47:15	0	0	3,954652	2,32575	24,984	-0,988	80,322	0	1009,62	5,1	7,5	7,3	1	1	1	1	1	1	1	1	1	0	1	-18,745595	272,607416	294,390927	0
15.01.2021	03:47:16	0	0	2,937741	2,32725	23,9724	-0,989	80,32	0	1009,62	5,1	7,5	7,3	1	1	1	1	1	1	1	1	1	0	1	-17,195208	272,512384	295,504902	0
15.01.2021	03:47:17	0	0	2,598771	2,262	16,1064	-0,99	80,319	0	1009,6	5,2	7,5	7,3	1	1	1	1	1	1	1	1	1	0	1	-16,772375	272,457509	295,675941	0
15.01.2021	03:47:18	0	0	4,745582	2,18625	20,6388	-0,991	80,326	0	1009,64	5,2	7,5	7,3	1	1	1	1	1	1	1	1	1	0	1	-18,111346	272,544009	294,733943	0
15.01.2021	03:47:19	0	0	4,519602	2,08425	15,138	-0,986	80,325	0	1009,72	5,1	7,5	7,3	1	1	1	1	1	1	1	1	1	0	1	-20,648344	272,469843	291,856549	0
15.01.2021	03:47:20	0	0	2,937741	2,02275	23,5944	-0,991	80,325	0	1009,64	5,1	7,3	7,3	1	1	1	1	1	1	1	1	1	0	1	-18,040874	272,628138	295,190869	0
15.01.2021	03:47:21	0	0	4,971622	2,16	8,6148	-0,991	80,324	0	1009,68	5,1	7,4	7,1	1	1	1	1	1	1	1	1	1	0	1	-21,141649	272,539881	291,684687	0
15.01.2021	03:47:22	0	0	4,632592	2,3325	4,104	-0,989	80,33	0	1009,58	5,2	7,3	7,3	1	1	1	1	1	1	1	1	1	0	1	-23,749119	272,633667	289,508037	0
15.01.2021	03:47:23	0	0	2,937741	2,20125	15,4224	-0,995	80,327	0	1009,66	5,2	7,5	7,3	1	1	1	1	1	1	1	1	1	0	1	-18,604651	272,56604	294,341804	0
15.01.2021	03:47:24	0	0	2,598771	2,18175	13,554	-0,995	80,333	0	1009,56	5,2	7,4	7,3	1	1	1	1	1	1	1	1	1	0	1	-22,198732	272,633667	291,058425	0
15.01.2021	03:47:25	0	0	3,728672	2,193	14,3064	-0,989	80,326	0	1009,66	5,2	7,4	7,3	1	1	1	1	1	1	1	1	1	0	1	-19,661734	272,574308	293,322695	0
15.01.2021	03:47:26	0	0	3,728672	2,16525	19,1448	-0,987	80,332	0	1009,84	5,1	7,5	7,3	1	1	1	1	1	1	1	1	1	0	1	-20,014094	272,473955	292,509668	0
15.01.2021	03:47:27	0	0	4,293622	2,0745	19,5372	-0,987	80,341	0	1009,76	5,1	7,5	7,3	1	1	1	1	1	1	1	1	1	0	1	-15,785765	272,621228	297,414224	0
15.01.2021	03:47:28	0	0	4,745582	2,06325	20,2932	-0,988	80,333	0	1009,7	5,2	7,3	7,3	1	1	1	1	1	1	1	1	1	0	1	-18,957012	272,45477	293,478737	0
15.01.2021	03:47:29	0	0	3,050732	2,196	19,908	-0,99	80,331	0	1009,76	5,2	7,5	7,3	1	1	1	1	1	1	1	1	1	0	1	-27,343199	272,626756	285,882192	0
15.01.2021	03:47:30	0	0	4,067642	2,4795	12,4884	-0,985	80,329	0	1009,56	5,2	7,5	7,3	1	1	1	1	1	1	1	1	1	0	1	-22,621564	272,515132	290,091158	0
15.01.2021	03:47:31	0	0	2,711761	2,4165	14,3136	-0,987	80,33	0	1009,66	5,2	7,5	7,3	1	1	1	1	1	1	1	1	1	0	1	-22,128259	272,467101	290,364057	0
15.01.2021	03:47:32	0	0	3,163722	2,33475	2,6496	-0,992	80,327	0	1009,74	5,2	7,5	7,3	1	1	1	1	1	1	1	1	1	0	1	-20,436927	272,495905	292,187552	0
15.01.2021	03:47:33	0	0	2,259801	2,2965	14,3064	-0,988	80,335	0	1009,74	5,2	7,4	7,3	1	1	1	1	1	1	1	1	1	0	1	-20,789288	272,517881	291,93605	0
15.01.2021	03:47:34	0	0	3,163722	2,2185	16,4916	-0,993	80,343	0	1009,46	5,1	7,5	7,3	1	1	1	1	1	1	1	1	1	0	1	-20,718816	272,637816	292,557406	0
15.01.2021	03:47:35	0	0	3,841662	2,1345	18,8424	-0,986	80,338	0	1009,76	5,2	7,5	7,3	1	1	1	1	1	1	1	1	1	0	1	-19,379845	272,504143	293,28244	0
15.01.2021	03:47:36	0	0	4,293622	2,184	14,3064	-0,991	80,345	0	1009,48	5,2	7,5	7,3	1	1	1	1	1	1	1	1	1	0	1	-21,846371	272,497278	290,784409	0
15.01.2021	03:47:37	0	0	5,423523	2,271	20,2824	-0,989	80,336	0	1009,6	5,2	7,5	7,3	1	1	1	1	1	1	1	1	1	0	1	-17,89993	272,63505	295,363581	0
15.01.2021	03:47:38	0	0	5,084553	2,346	23,9688	-0,991	80,343	0	1009,52	5,2	7,4	7,3	1	1	1	1	1	1	1	1	1	0	1	-23,537703	272,539881	289,288634	0
15.01.2021	03:47:39	0	0	3,050732	2,42175	19,9188	-0,989	80,343	0	1009,68	5,1	7,4	7,3	1	1	1	1	1	1	1	1	1	0	1	-20,648344	272,515132	292,064379	0
15.01.2021	03:47:40	0	0	4,745582	2,385	14,3172	-0,989	80,346	0	1009,7	5,2	7,4	7,3	1	1	1	1	1	1	1	1	1	0	1	-18,463707	272,617083	294,717236	0
15.01.2021	03:47:41	0	0	4,971562	2,46825	9	-0,994	80,336	0	1009,64	5,2	7,5	7,3	1	1	1	1	1	1	1	1	1	0	1	-22,621564	272,555021	290,27429	0
15.01.2021	03:47:42	0	0	4,858572	2,5965	6,066	-0,99	80,345	0	1009,72	5,2	7,4	7,3	1	1	1	1	1	1	1	1	1	0	1	-17,89993	272,637816	295,376293	0
15.01.2021	03:47:43	0	0	4,293622	2,538	27,2844	-0,987	80,335	0	1009,46	5,2	7,4	7,3	1	1	1	1	1	1	1	1	1	0	1	-14,869626	272,630902	298,374822	0
15.01.2021	03:47:44	0	0	3,615682	2,3235	17,6976	-0,989	80,353	0	1009,74	5,2	7,4	7,3	1	1	1	1	1	1	1	1	1	0	1	-22,832981	272,596374	290,252808	0
15.01.2021	03:47:45	0	0	4,632592	2,2215	21,4056	-0,987	80,351	0	1009,58	5,2	7,4	7,3	1	1	1	1	1	1	1	1	1	0	1	-17,688513	272,647498	295,632215	0
15.01.2021	03:47:46	0	0	4,745582	2,28525	13,1688	-0,984	80,352	0	1009,66	5,2	7,4	7,3	1	1	1	1	1	1	1	1	1	0	1	-20,930233	272,549515	291,940335	0
15.01.2021	03:47:47	0	0	4,971562	2,4255	16,8696	-0,996	80,352	0	1009,6	5,2	7,5	7,3	1	1	1	1	1	1	1	1	1	0	1	-20,5074	272,473955	292,016362	0
15.01.2021	03:47:48	0	0	2,711761	2,46	13,1796	-0,994	80,341	0	1009,68	5,2	7,4	7,3	1	1	1	1	1	1	1	1	1	0	1	-18,816068	272,654418	294,536468	0
15.01.2021	03:47:49	0	0	3,502692	2,6055	10,836	-0,986	80,355	0	1009,66	5,2	7,4	7,3	1	1	1	1	1	1	1	1	1	0	1	-18,816068	272,563285	294,117734	0
15.01.2021	03:47:50	0	0	3,728672	2,5425	20,2896	-0,989	80,368	0	1009,76	5,2	7,4	7,3	1	1	1	1	1	1	1	1	1	0	1	-22,48062	272,639199	290,801958	0
15.01.2021	03:47:51	0	0	4,406612	2,5365	27,6516	-0,994	80,356	0	1009,68	5,2	7,4	7,3	1	1	1	1	1	1	1	1	1	0	1	-23,960536	272,62952	289,27756	0
15.01.2021	03:47:52	0	0	3,050732	2,7105	10,8144	-0,991	80,368	0	1009,62	5,2	7,4	7,3	1	1	1	1	1	1	1	1	1	0	1	-18,604651	272,636433	294,665215	0
15.01.2021	03:47:53	0	0	4,858572	2,7255	10,0656	-0,996	80,366	0	1009,6	5,2	7,4	7,3	1	1	1	1	1	1	1	1	1	0	1	-22,198732	272,639199	291,083847	0
15.01.2021	03:47:54	0	0	3,05075	2,65575	10,0656	-0,988	80,354	0	1009,78	5,2	7,4	7,2	1	1	1	1	1	1	1	1	1	0	1	-19,520789	272,545385	293,330819	0
15.01.2021	03:47:55	0	0	4,858602	2,619	7,1208	-0,994	80,362	0	1009,64	5,2	7,4	7,2	1	1	1	1	1	1	1	1	1	0	1	-22,551092	272,644731	290,756917	0
15.01.2021	03:47:56	0	0	4,406612	2,69175	16,4952	-0,991	80,368	0	1009,62	5,2	7,4	7,3	1	1	1	1	1	1	1	1	1	0	1	-21,775899	272,575686	291,214861	0
15.01.2021	03:47:57	0	0	2,711761	2,70075	18,0972	-0,987	80,371	0	1009,62	5,2	7,4	7,3	1	1	1	1	1	1	1	1	1	0	1	-17,406624	272,473955	295,117138	0
15.01.2021	03:47:58	0	0	4,293622	2,5815	9,7488	-0,99	80,367	0	1009,7	5,2	7,4	7,3	1	1	1	1	1	1	1	1	1	0	1	-27,272727	272,585338	285,762364	0
15.01.2021	03:47:59	0	0	4,406612	2,568	33,2604	-0,992	80,37	0	1009,7	5,2	7,5	7,3	1	1	1	1	1	1	1	1	1	0	1	-23,11487	272,637816	290,161352	0
15.01.2021	03:48:00	0	0	4,858572	2,57025	25,0416	-0,987	80,384	0	1009,62	5,2	7,4	7,3	1	1	1	1	1	1	1	1	1	0	1	-21,564482	272,574308	291,419947	0
15.01.2021	03:48:01	0	0	3,276712	2,5785	13,6476	-0,994	80,383	0	1009,64	5,2	7,4	7,3	1	1	1	1	1	1	1	1	1	0	1	-21,564482	272,574308	291,419947	0
15.01.2021	03:48:02	0	0	3,276712	2,5785	13,6476	-0,994	80,383	0	1009,64	5,2	7,4	7,3	1	1	1	1	1	1	1	1	1	0	1	-21,775899	272,47944	290,77303	0
15.01.2021	03:48:03	0	0	3,954652	2,8425	7,5096	-0,99	80,384	0	1009,82	5,2	7,4	7,3	1	1	1	1	1	1	1	1	1	0	1	-18,463707	272,579822	294,546049	0
15.01.2021	03:48:04	0	0	3,841662	2,71875	19,5264	-0,989	80,371	0	1009,78	5,2	7,4	7,3	1	1	1	1	1	1	1	1	1	0	1	-16,208598	272,626756	297,016793	0
15.01.2021	03:48:05	0	0	4,067666	2,64075	29,952	-0,994	80,407	0	1009,76	5,2	7,4	7,2	1	1	1	1	1	1	1	1	1	0	1	-16,067653	272,648882	297,259435	0
15.01.2021	03:48:06	0	0	4,858572	2,5575	21,0276	-0,991	80,396	0	1009,72	5,2	7,4	7,3	1	1	1	1	1	1	1	1	1	0	1	-19,661734	272,607416	293,474789	0
15.01.2021	03:48:07	0	0	4,63262	2,49975	4,8456	-0,992	80,399	0	1009,7	5,2	7,4	7,2	1	1	1	1	1	1	1	1	1	0	1	-19,591261	272,641965	293,704031	0
15.01.2021	03:48:08	0	0	4,519629	2,6985	18,4428	-0,989	80,393	0	1009,64	5,2	7,4	7,2	1	1	1	1	1	1	1	1	1	0	1	-18,604651	272,491788	294,000933	0
15.01.2021	03:48:09	0	0	3,728672	2,856	1,926	-0,992	80,397	0	1009,6	5,2	7,4	7,3	1	1	1	1	1	1	1	1	1	0	1	-19,379845	272,515132	293,332878	0
15.01.2021	03:48:10	0	0	2,598771	3,03	5,6808	-0,984	80,396	0	1009,64	5,2	7,4	7,3	1	1	1	1	1	1	1	1	1	0	1	-18,463707	272,650266	294,869743	0
15.01.2021	03:48:11	0	0	2,824768	2,96775	12,8556	-0,992	80,391	0	1009,6	5,2	7,4	7,2	1	1	1	1	1	1	1	1	1	0	1	-14,869626	272,541257	297,963027	0
15.01.2021	03:48:12	0	0	4,971592	2,77275	15,786	-0,988	80,407	0	1009,62	5,2	7,4	7,2	1	1	1	1	1	1	1	1	1	0	1	-16,420014	272,469843	296,084879	0
15.01.2021	03:48:13	0	0	3,050732	2,52375	20,2824	-0,991	80,394	0	1009,58	5,2	7,4	7,3	1	1	1	1	1	1	1	1	1	0	1	-20,295983	272,505516	292,372605	0
15.01.2021	03:48:14	0	0	3,05075	2,4	24,3432	-0,987	80,396	0	1009,66	5,2	7,4	7,2	1	1	1	1	1	1	1	1	1	0	1	-18,604651	272,522004	294,139613	0
15.01.2021	03:48:15	0	0	3,615704	2,2575	18,4608	-0,986	80,401	0	1009,58	5,2	7,4	7,2	1	1	1	1	1	1	1	1	1	0	1	-18,88654	272,524753	293,870345	0
15.01.2021	03:48:16	0	0	3,163722	2,367	15,7968	-0,988	80,405	0	1009,62	5,2	7,4	7,3	1	1	1	1	1	1	1	1	1	0	1	-21,212121	272,636433	292,057745	0
15.01.2021	03:48:17	0	0	4,519602	2,367	18,5328	-0,988	80,405	0	1009,64	5,2	7,4	7,3	1	1	1	1	1	1	1	1	1	0	1	-16,349542	272,480812	296,205679	0
15.01.2021	03:48:18	0	0	5,084583	2,2755	22,8456	-0,988	80,412	0	1009,68	5,2	7,4	7,2	1	1	1	1	1	1	1	1	1	0	1	-23,678647	272,597754	289,413482	0
15.01.2021	03:48:19	0	0	2,824768	2,25	16,8624	-0,99	80,416	0	1009,86	5,2	7,4	7,2	1	1	1	1	1	1	1	1	1	0	1	-18,111346	272,526128	294,65185	0
15.01.2021	03:48:20	0	0	5,536513	2,33775	11,7288	-0,99	80,419	0	1009,58	5,2	7,4	7,3	1	1	1	1	1	1	1	1	1	0	1	-19,097956	272,617083	294,082987	0
15.01.2021	03:48:21	0	0	3,841685	2,322	21,024	-0,988	80,428	0	1009,74	5,2	7,4	7,2	1	1	1	1	1	1	1	1	1	0	1	-19,379845	272,58258	293,642577	0
15.01.2021	03:48:22	0	0	4,971592	2,37525	23,2164	-0,986	80,418	0	1009,64	5,2	7,4	7,2	1	1	1	1	1	1	1	1	1	0	1	-22,269204	272,648882	291,057885	0
15.01.2021	03:48:23	0	0	3,954652	2,3625	16,11	-0,993	80,409	0	1009,48	5,2	7,4	7,3	1	1	1	1	1	1	1	1	1	0	1	-20,930233	272,512384	291,769878	0
15.01.2021	03:48:24	0	0	3,954676	2,4315	15,4836	-0,99	80,415	0	1009,62	5,2	7,4	7,2	1	1	1	1	1	1	1	1	1	0	1	-16,420014	272,596374	296,665775	0
15.01.2021	03:48:25	0	0	3,954652	2,53425	25,8048	-0,99	80,436	0	1009,7	5,2	7,4	7,3	1	1	1	1	1	1	1	1	1	0	1	-22,057787	272,478069	290,484849	0
15.01.2021	03:48:26	0	0	4,406639	2,53275	18,0828	-0,993	80,43	0	1009,62	5,2	7,4	7,2	1	1	1	1	1	1	1	1	1	0	1	-19,450317	272,545385	293,401291	0
15.01.2021	03:48:27	0	0	4,745611	2,46525	9,3744	-0,988	80,421	0	1009,54	5,2	7,4	7,2	1	1	1	1	1	1	1	1	1	0	1	-19,591261	272,641965	293,704031	0
15.01.2021	03:48:28	0	0	4,858602	2,652	17,2296	-0,991	80,425	0	1009,7	5,2	7,4	7,2	1	1	1	1	1	1	1	1	1	0	1	-23,185342	272,608797	289,957525	0
15.01.2021	03:48:29	0	0	4,63262	2,58675	18,09	-0,987	80,429	0	1009,84	5,2	7,4	7,2	1	1	1	1	1	1	1	1	1	0	1	-19,450317	272,531628	293,338128	0
15.01.2021	03:48:30	0	0	3,728694	2,40675	22,4748	-0,992	80,434	0	1009,42	5,2	7,4	7,2	1	1	1	1	1	1	1	1	1	0	1	-19,097956	272,648882	294,229132	0
15.01.2021	03:48:31	0	0	3,502713	2,3745	16,4808	-0,989	80,44	0	1009,68	5,2	7,4	7,2	1	1	1	1	1	1	1	1	1	0	1	-19,379845	272,610178	293,769366	0
15.01.2021	03:48:32	0	0	3,615704	2,49225	13,5576	-0,994	80,431	0	1009,58	5,2	7,4	7,2	1	1	1	1	1	1	1	1	1	0	1	-22,621564	272,654418	290,730971	0
15.01.2021	03:48:33	0	0	3,389702	2,55075	16,4736	-0,989	80,432	0	1009,66	5,2	7,4	7,3	1	1	1	1	1	1	1	1	1	0	1	-17,477097	272,494533	295,141084	0
15.01.2021	03:48:34	0	0	4,745611	2,55375	17,2332	-0,988	80,455	0	1009,58	5,2	7,4	7,2	1	1	1	1	1	1	1	1	1	0	1	-22,973925	272,534379	289,827148	0
15.01.2021	03:48:35	0	0	3,502713	2,47275	15,1164	-0,987	80,435	0	1009,48	5,2	7,4	7,2	1	1	1	1	1	1	1	1	1	0	1	-21,564482	272,475326	290,965571	0
15.01.2021	03:48:36	0	0	4,63262	2,48175	16,8552	-0,988	80,446	0	1009,6	5,2	7,4	7,2	1	1	1	1	1	1	1	1	1	0	1	-19,027484	272,618465	294,159807	0
15.01.2021	03:48:37	0	0	4,745611	2,43075	12,0996	-0,987	80,455	0	1009,66	5,2	7,4	7,2	1	1	1	1	1	1	1	1	1	0	1	-17,618041	272,473955	294,905721	0
15.01.2021	03:48:38	0	0	4,180657	2,39775	17,7048	-0,99	80,442	0	1009,58	5,2	7,6	7,2	1	1	1	1	1	1	1	1	1	0	1	-20,930233	272,520629	291,807722	0
15.01.2021	03:48:39	0	0	2,711761	2,334	19,638	-0,994	80,45	0	1009,58	5,2	7,4	7,3	1	1	1	1	1	1	1	1	1	0	1	-21,071177	272,594994	292,008273	0
15.01.2021	03:48:40	0	0	3,728694	2,325	19,908	-0,989	80,459	0	1009,68	5,2	7,4	7,2	1	1	1	1	1	1	1	1	1	0	1	-16,138125	272,65165	297,201685	0
15.01.2021	03:48:41	0	0	3,276731	2,4195	12,0816	-0,986	80,46	0	1009,66	5,2	7,4	7,2	1	1	1	1	1	1	1	1	1	0	1	-18,745595	272,50277	293,910387	0
15.01.2021	03:48:42	0	0	3,841685	2,5185	16,866	-0,987	80,467	0	1009,76	5,2	7,4	7,2	1	1	1	1	1	1	1	1	1	0	1	-15,715292	272,534379	297,085781	0
15.01.2021	03:48:43	0	0	4,519629	2,4405	22,8312	-0,991	80,45	0	1009,6	5,2	7,4	7,2	1	1	1	1	1	1	1	1	1	0	1	-18,040874	272,654418	295,311661	0
15.01.2021	03:48:44	0	0	4,519602	2,367	18,0828	-0,989	80,462	0	1009,62	5,2	7,4	7,3	1	1	1	1	1	1	1	1	1	0	1	-19,238901	272,57293	293,739198	0
15.01.2021	03:48:45	0	0	3,05075	2,37975	23,2272	-0,982	80,462	0	1009,68	5,2	7,4	7,2	1	1	1	1	1	1	1	1	1	0	1	-19,027484	272,592234	294,039289	0
15.01.2021	03:48:46	0	0	3,163741	2,31825	19,1556	-0,985	80,473	0	1009,78	5,2	7,4	7,2	1	1	1	1	1	1	1	1	1	0	1	-16,631431	272,653033	296,714742	0
15.01.2021	03:48:47	0	0	5,084583	2,30175	16,1784	-0,986	80,477	0	1009,76	5,2	7,4	7,2	1	1	1	1	1	1	1	1	1	0	1	-19,238901	272,643348	294,06275	0
15.01.2021	03:48:48	0	0	3,954676	2,3805	18,4536	-0,983	80,476	0	1009,68	5,2	7,4	7,2	1	1	1	1	1	1	1	1	1	0	1	-22,48062	272,538506	290,3394	0
15.01.2021	03:48:49	0	0	4,180657	2,4405	6,444	-0,985	80,454	0	1009,66	5,2	7,4	7,2	1	1	1	1	1	1	1	1	1	0	1	-16,490486	272,636433	296,77938	0
15.01.2021	03:48:50	0	0	4,067666	2,47875	21,3876	-0,983	80,465	0	1009,62	5,2	7,4	7,2	1	1	1	1	1	1	1	1	1	0	1	-21,423538	272,597754	291,668591	0
15.01.2021	03:48:51	0	0	2,937759	2,5875	19,548	-0,99	80,456	0	1009,64	5,1	7,4	7,2	1	1	1	1	1	1	1	1	1	0	1	-18,675123	272,648882	294,651965	0
15.01.2021	03:48:52	0	0	4,745582	2,7255	18,0828	-0,983	80,485	0	1009,76	5,2	7,4	7,3	1	1	1	1	1	1	1	1	1	0	1	-22,269204	272,657186	291,096058	0
15.01.2021	03:48:53	0	0	2,824751	2,688	16,8876	-0,986	80,474	0	1009,72	5,2	7,4	7,3	1	1	1	1	1	1	1	1	1	0	1	-20,577872	272,550891	292,299017	0
15.01.2021	03:48:54	0	0	4,406639	2,58	15,426	-0,982	80,51	0	1009,62	5,2	7,4	7,2	1	1	1	1	1	1	1	1	1	0	1	-19,802678	272,483555	292,765131	0
15.01.2021	03:48:55	0	0	3,05075	2,4705	9,7524	-0,985	80,488	0	1009,7	5,2	7,4	7,2	1	1	1	1	1	1	1	1	1	0	1	-18,25229	272,56053	294,66886	0
15.01.2021	03:48:56	0	0	2,598787	2,44875	7,5312	-0,986	80,488	0	1009,68	5,2	7,4	7,2	1	1	1	1	1	1	1	1	1	0	1	-16,208598	272,657186	297,156664	0
15.01.2021	03:48:57	0	0	5,084553	2,313	17,7696	-0,988	80,482	0	1009,52	5,2	7,4	7,3	1	1	1	1	1	1	1	1	1	0	1	-19,238901	272,49316	293,372982	0
15.01.2021	03:48:58	0	0	3,276731	2,18625	19,5516	-0,981	80,496	0	1009,72	5,2	7,4	7,2	1	1	1	1	1	1	1	1	1	0	1	-19,379845	272,579822	293,629911	0
15.01.2021	03:48:59	0	0	4,745582	2,33325	14,3172	-0,982	80,479	0	1009,72	5,2	7,4	7,3	1	1	1	1	1	1	1	1	1	0	1	-18,675123	272,653033	294,671049	0
15.01.2021	03:49:00	0	0	5,084553	2,4705	18,18	-0,984	80,493	0	1009,68	5,2	7,4	7,3	1	1	1	1	1	1	1	1	1	0	1	-18,040874	272,491788	294,564711	0
15.01.2021	03:49:01	0	0	5,084553	2,4705	18,18	-0,984	80,493	0	1009,68	5,2	7,4	7,3	1	1	1	1	1	1	1	1	1	0	1	-18,040874	272,491788	294,564711	0
15.01.2021	03:49:02	0	0	2,937759	2,35125	28,35	-0,981	80,502	0	1009,72	5,2	7,4	7,2	1	1	1	1	1	1	1	1	1	0	1	-22,057787	272,504143	290,604498	0
15.01.2021	03:49:03	0	0	4,63262	2,25525	28,3572	-0,985	80,517	0	1009,58	5,1	7,4	7,2	1	1	1	1	1	1	1	1	1	0	1	-21,846371	272,545385	291,005237	0
15.01.2021	03:49:04	0	0	4,406639	2,1945	21,1248	-0,987	80,502	0	1009,68	5,1	7,6	7,2	1	1	1	1	1	1	1	1	1	0	1	-21,141649	272,664109	292,255439	0
15.01.2021	03:49:05	0	0	5,084553	2,23575	15,8004	-0,98	80,51	0	1009,6	5,1	7,4	7,3	1	1	1	1	1	1	1	1	1	0	1	-21,141649	272,574308	291,84278	0
15.01.2021	03:49:06	0	0	3,502692	2,337	15,0516	-0,975	80,51	0	1009,62	5,1	7,4	7,3	1	1	1	1	1	1	1	1	1	0	1	-17,89993	272,489043	294,693061	0
15.01.2021	03:49:07	0	0	5,197574	2,2695	20,2968	-0,983	80,497	0	1009,66	5,2	7,4	7,2	1	1	1	1	1	1	1	1	1	0	1	-26,427061	272,62952	286,811034	0
15.01.2021	03:49:08	0	0	4,406612	2,32425	9,0144	-0,983	80,513	0	1009,7	5,2	7,4	7,3	1	1	1	1	1	1	1	1	1	0	1	-18,816068	272,544009	294,029222	0
15.01.2021	03:49:09	0	0	3,841685	2,34225	18,4608	-0,981	80,506	0	1009,46	5,2	7,4	7,2	1	1	1	1	1	1	1	1	1	0	1	-19,238901	272,478069	293,303735	0
15.01.2021	03:49:10	0	0	3,502692	2,2725	23,2272	-0,986	80,504	0	1009,44	5,1	7,4	7,3	1	1	1	1	1	1	1	1	1	0	1	-19,661734	272,515132	293,050989	0
15.01.2021	03:49:11	0	0	4,293622	2,29275	26,5356	-0,987	80,518	0	1009,58	5,2	7,4	7,3	1	1	1	1	1	1	1	1	1	0	1	-19,732206	272,601894	293,378946	0
15.01.2021	03:49:12	0	0	3,954676	2,08575	10,0656	-0,983	80,509	0	1009,58	5,1	7,4	7,2	1	1	1	1	1	1	1	1	1	0	1	-18,463707	272,671034	294,965222	0
15.01.2021	03:49:13	0	0	4,180657	1,9905	16,1064	-0,984	80,531	0	1009,68	5,1	7,4	7,2	1	1	1	1	1	1	1	1	1	0	1	-16,772375	272,628138	296,459368	0
15.01.2021	03:49:14	0	0	2,824751	1,93425	13,932	-0,981	80,528	0	1009,82	5,2	7,4	7,3	1	1	1	1	1	1	1	1	1	0	1	-17,618041	272,610178	295,53117	0
15.01.2021	03:49:15	0	0	3,050732	1,97175	8,622	-0,982	80,521	0	1009,64	5,3	7,4	7,3	1	1	1	1	1	1	1	1	1	0	1	-20,014094	272,659955	293,363896	0
15.01.2021	03:49:16	0	0	3,389702	2,07	21,3948	-0,983	80,522	0	1009,8	5,2	7,4	7,3	1	1	1	1	1	1	1	1	1	0	1	-21,705426	272,599134	291,393043	0
15.01.2021	03:49:17	0	0	4,519602	2,0985	19,152	-0,992	80,521	0	1009,72	5,2	7,5	7,3	1	1	1	1	1	1	1	1	1	0	1	-21,071177	272,654418	292,281358	0
15.01.2021	03:49:18	0	0	2,711761	2,08425	12,0924	-0,987	80,523	0	1009,64	5,2	7,4	7,3	1	1	1	1	1	1	1	1	1	0	1	-19,450317	272,632285	293,800485	0
15.01.2021	03:49:19	0	0	4,745582	2,1165	19,9008	-0,979	80,538	0	1009,72	5,2	7,5	7,3	1	1	1	1	1	1	1	1	1	0	1	-20,084567	272,659955	293,293424	0
15.01.2021	03:49:20	0	0	2,824751	2,13	17,7012	-0,984	80,528	0	1009,58	5,1	7,4	7,3	1	1	1	1	1	1	1	1	1	0	1	-18,111346	272,513758	294,59507	0
15.01.2021	03:49:21	0	0	3,615682	2,15025	26,9136	-0,979	80,54	0	1009,66	5,1	7,4	7,3	1	1	1	1	1	1	1	1	1	0	1	-14,446794	272,596374	298,638996	0
15.01.2021	03:49:22	0	0	2,711761	2,24325	22,4676	-0,98	80,542	0	1009,66	5,2	7,6	7,3	1	1	1	1	1	1	1	1	1	0	1	-21,353066	272,661339	292,031291	0
15.01.2021	03:49:23	0	0	3,389702	2,2425	22,4928	-0,985	80,537	0	1009,6	5,1	7,5	7,3	1	1	1	1	1	1	1	1	1	0	1	-19,802678	272,588096	293,245084	0
15.01.2021	03:49:24	0	0	3,163722	2,211	22,8528	-0,986	80,543	0	1009,68	5,1	7,5	7,3	1	1	1	1	1	1	1	1	1	0	1	-19,450317	272,669649	293,972242	0
15.01.2021	03:49:25	0	0	4,745582	2,21025	23,22	-0,982	80,546	0	1009,58	5,2	7,5	7,3	1	1	1	1	1	1	1	1	1	0	1	-15,926709	272,643348	297,374942	0
15.01.2021	03:49:26	0	0	5,197543	2,235	22,8312	-0,978	80,54	0	1009,72	5,1	7,5	7,3	1	1	1	1	1	1	1	1	1	0	1	-18,463707	272,586717	294,57772	0
15.01.2021	03:49:27	0	0	3,050732	2,25825	16,1028	-0,979	80,538	0	1009,58	5,1	7,4	7,3	1	1	1	1	1	1	1	1	1	0	1	-17,688513	272,490416	294,910774	0
15.01.2021	03:49:28	0	0	3,276731	2,27775	15,8076	-0,986	80,521	0	1009,72	5,2	7,5	7,2	1	1	1	1	1	1	1	1	1	0	1	-19,591261	272,590855	293,469174	0
15.01.2021	03:49:29	0	0	3,841662	2,32275	19,1412	-0,982	80,529	0	1009,72	5,2	7,5	7,3	1	1	1	1	1	1	1	1	1	0	1	-17,829457	272,666878	295,580366	0
15.01.2021	03:49:30	0	0	3,276712	2,337	20,3004	-0,981	80,535	0	1009,7	5,2	7,5	7,3	1	1	1	1	1	1	1	1	1	0	1	-20,930233	272,524753	291,826652	0
15.01.2021	03:49:31	0	0	4,406639	2,238	20,646	-0,979	80,54	0	1009,6	5,2	7,5	7,2	1	1	1	1	1	1	1	1	1	0	1	-17,195208	272,62952	296,042888	0
15.01.2021	03:49:32	0	0	5,197543	2,169	25,4268	-0,981	80,539	0	1009,6	5,2	7,4	7,3	1	1	1	1	1	1	1	1	1	0	1	-16,983791	272,673805	296,457877	0
15.01.2021	03:49:33	0	0	3,615682	2,05425	18,8316	-0,993	80,544	0	1009,64	5,2	7,5	7,3	1	1	1	1	1	1	1	1	1	0	1	-22,621564	272,589475	290,432534	0
15.01.2021	03:49:34	0	0	3,276712	1,971	14,3064	-0,988	80,548	0	1009,56	5,2	7,5	7,3	1	1	1	1	1	1	1	1	1	0	1	-21,071177	272,484927	291,502927	0
15.01.2021	03:49:35	0	0	4,067642	1,98075	14,3208	-0,985	80,557	0	1009,64	5,2	7,5	7,3	1	1	1	1	1	1	1	1	1	0	1	-16,631431	272,531628	296,157015	0
15.01.2021	03:49:36	0	0	3,615682	2,0025	15,8004	-0,984	80,531	0	1009,66	5,1	7,4	7,3	1	1	1	1	1	1	1	1	1	0	1	-18,604651	272,619846	294,588989	0
15.01.2021	03:49:37	0	0	3,728672	1,97325	9,378	-0,981	80,554	0	1009,74	5,2	7,5	7,3	1	1	1	1	1	1	1	1	1	0	1	-20,155039	272,483555	292,41277	0
15.01.2021	03:49:38	0	0	3,389702	2,10525	10,4472	-0,98	80,541	0	1009,8	5,2	7,5	7,3	1	1	1	1	1	1	1	1	1	0	1	-14,235377	272,556398	298,666801	0
15.01.2021	03:49:39	0	0	2,937741	2,11725	17,2404	-0,986	80,55	0	1009,68	5,2	7,5	7,3	1	1	1	1	1	1	1	1	1	0	1	-15,926709	272,497278	296,70407	0
15.01.2021	03:49:40	0	0	2,711761	2,013	18,4572	-0,981	80,534	0	1009,74	5,2	7,5	7,3	1	1	1	1	1	1	1	1	1	0	1	-16,701903	272,586717	296,339524	0
15.01.2021	03:49:41	0	0	4,745582	1,9065	15,8004	-0,977	80,566	0	1009,76	5,2	7,4	7,3	1	1	1	1	1	1	1	1	1	0	1	-19,943622	272,495905	292,680858	0
15.01.2021	03:49:42	0	0	4,293622	1,90575	10,9224	-0,982	80,555	0	1009,64	5,1	7,5	7,3	1	1	1	1	1	1	1	1	1	0	1	-17,89993	272,535754	294,907459	0
15.01.2021	03:49:43	0	0	2,937741	2,01975	21,7836	-0,986	80,546	0	1009,62	5,2	7,5	7,3	1	1	1	1	1	1	1	1	1	0	1	-16,138125	272,504143	296,52416	0
15.01.2021	03:49:44	0	0	4,293622	2,0145	19,9044	-0,978	80,551	0	1009,66	5,3	7,5	7,3	1	1	1	1	1	1	1	1	1	0	1	-17,124736	272,67519	296,323304	0
15.01.2021	03:49:45	0	0	3,615682	2,04075	13,1688	-0,983	80,555	0	1009,54	5,2	7,5	7,3	1	1	1	1	1	1	1	1	1	0	1	-20,155039	272,524753	292,601846	0
15.01.2021	03:49:46	0	0	4,406612	1,99275	12,4668	-0,981	80,533	0	1009,5	5,2	7,5	7,3	1	1	1	1	1	1	1	1	1	0	1	-17,406624	272,659955	295,971366	0
15.01.2021	03:49:47	0	0	4,067642	1,94175	23,2272	-0,981	80,566	0	1009,6	5,2	7,5	7,3	1	1	1	1	1	1	1	1	1	0	1	-17,688513	272,614321	295,479736	0
15.01.2021	03:49:48	0	0	3,728672	1,9065	12,1104	-0,98	80,577	0	1009,68	5,2	7,5	7,3	1	1	1	1	1	1	1	1	1	0	1	-16,067653	272,546762	296,790274	0
15.01.2021	03:49:49	0	0	4,293622	1,89075	19,548	-0,983	80,553	0	1009,62	5,2	7,5	7,3	1	1	1	1	1	1	1	1	1	0	1	-17,89993	272,50277	294,756053	0
15.01.2021	03:49:50	0	0	3,163722	1,8465	13,9284	-0,984	80,553	0	1009,56	5,2	7,5	7,3	1	1	1	1	1	1	1	1	1	0	1	-20,084567	272,619846	293,109073	0
15.01.2021	03:49:51	0	0	3,163722	1,8	18,0972	-0,979	80,565	0	1009,7	5,2	7,5	7,3	1	1	1	1	1	1	1	1	1	0	1	-18,957012	272,497278	293,673767	0
15.01.2021	03:49:52	0	0	4,293622	1,79025	12,4632	-0,979	80,581	0	1009,56	5,2	7,5	7,3	1	1	1	1	1	1	1	1	1	0	1	-15,715292	272,508263	296,965903	0
15.01.2021	03:49:53	0	0	5,197543	1,9185	18,8316	-0,98	80,57	0	1009,5	5,2	7,5	7,3	1	1	1	1	1	1	1	1	1	0	1	-18,604651	272,579822	294,405104	0
15.01.2021	03:49:54	0	0	4,632592	1,986	20,286	-0,98	80,574	0	1009,78	5,2	7,5	7,3	1	1	1	1	1	1	1	1	1	0	1	-17,195208	272,515132	295,517515	0
15.01.2021	03:49:55	0	0	3,954652	2,019	16,11	-0,977	80,57	0	1009,66	5,2	7,5	7,3	1	1	1	1	1	1	1	1	1	0	1	-17,688513	272,668263	295,727678	0
15.01.2021	03:49:56	0	0	3,615682	2,06775	10,9044	-0,979	80,581	0	1009,78	5,2	7,5	7,3	1	1	1	1	1	1	1	1	1	0	1	-19,732206	272,585338	293,302885	0
15.01.2021	03:49:57	0	0	3,276712	2,07675	358,3656	-0,984	80,574	0	1009,66	5,1	7,5	7,3	1	1	1	1	1	1	1	1	1	0	1	-18,463707	272,508263	294,217488	0
15.01.2021	03:49:58	0	0	4,971562	2,121	20,6316	-0,979	80,582	0	1009,6	5,2	7,5	7,3	1	1	1	1	1	1	1	1	1	0	1	-17,89993	272,524753	294,856955	0
15.01.2021	03:49:59	0	0	4,067642	2,184	17,7012	-0,975	80,583	0	1009,74	5,2	7,5	7,3	1	1	1	1	1	1	1	1	1	0	1	-16,701903	272,668263	296,714288	0
15.01.2021	03:50:00	0	0	2,485781	2,35425	20,628	-0,987	80,593	0	1009,56	5,2	7,5	7,3	1	1	1	1	1	1	1	1	1	0	1	-17,829457	272,617083	295,351486	0
15.01.2021	03:50:01	0	0	2,485781	2,35425	20,628	-0,987	80,593	0	1009,56	5,2	7,5	7,3	1	1	1	1	1	1	1	1	1	0	1	-17,829457	272,617083	295,351486	0
15.01.2021	03:50:02	0	0	2,824751	2,439	9,7596	-0,984	80,586	0	1009,62	5,2	7,5	7,3	1	1	1	1	1	1	1	1	1	0	1	-13,178295	272,664109	300,218794	0
15.01.2021	03:50:03	0	0	3,163722	2,49075	13,1652	-0,981	80,591	0	1009,7	5,2	7,5	7,3	1	1	1	1	1	1	1	1	1	0	1	-20,5074	272,618465	292,679892	0
15.01.2021	03:50:04	0	0	4,067642	2,61375	12,8556	-0,978	80,581	0	1009,7	5,2	7,5	7,3	1	1	1	1	1	1	1	1	1	0	1	-22,339676	272,621228	290,860313	0
15.01.2021	03:50:05	0	0	4,745582	2,58375	10,818	-0,977	80,592	0	1009,66	5,2	7,5	7,3	1	1	1	1	1	1	1	1	1	0	1	-14,869626	272,49316	297,742256	0
15.01.2021	03:50:06	0	0	2,937741	2,52975	12,8556	-0,975	80,603	0	1009,72	5,2	7,5	7,3	1	1	1	1	1	1	1	1	1	0	1	-18,111346	272,545385	294,740262	0
15.01.2021	03:50:07	0	0	3,954652	2,5065	13,1796	-0,974	80,598	0	1009,74	5,2	7,5	7,3	1	1	1	1	1	1	1	1	1	0	1	-18,957012	272,524753	293,799873	0
15.01.2021	03:50:08	0	0	4,632592	2,46825	19,1412	-0,986	80,609	0	1009,7	5,2	7,5	7,3	1	1	1	1	1	1	1	1	1	0	1	-14,305849	272,49316	298,306033	0
15.01.2021	03:50:09	0	0	2,485781	2,37675	17,2512	-0,976	80,603	0	1009,7	5,2	7,5	7,3	1	1	1	1	1	1	1	1	1	0	1	-15,64482	272,630902	297,599628	0
15.01.2021	03:50:10	0	0	4,971562	2,26725	12,1032	-0,979	80,605	0	1009,74	5,2	7,5	7,3	1	1	1	1	1	1	1	1	1	0	1	-15,221987	272,494533	297,396194	0
15.01.2021	03:50:11	0	0	3,615682	2,1195	18,4572	-0,979	80,602	0	1009,56	5,2	7,5	7,3	1	1	1	1	1	1	1	1	1	0	1	-13,460183	272,531628	299,328262	0
15.01.2021	03:50:12	0	0	2,937741	2,1225	13,9284	-0,987	80,604	0	1009,42	5,2	7,5	7,3	1	1	1	1	1	1	1	1	1	0	1	-14,517266	272,578443	298,486157	0
15.01.2021	03:50:13	0	0	3,615682	2,22975	12,1104	-0,974	80,62	0	1009,7	5,2	7,5	7,3	1	1	1	1	1	1	1	1	1	0	1	-15,926709	272,671034	297,50222	0
15.01.2021	03:50:14	0	0	3,050732	2,157	14,2992	-0,977	80,623	0	1009,6	5,2	7,5	7,3	1	1	1	1	1	1	1	1	1	0	1	-17,124736	272,522004	295,619529	0
15.01.2021	03:50:15	0	0	2,259801	2,25075	8,7372	-0,975	80,623	0	1009,52	5,2	7,5	7,3	1	1	1	1	1	1	1	1	1	0	1	-18,675123	272,523378	294,075451	0
15.01.2021	03:50:16	0	0	2,937741	2,50875	13,176	-0,975	80,614	0	1009,54	5,2	7,5	7,3	1	1	1	1	1	1	1	1	1	0	1	-17,89993	272,683506	295,586347	0
15.01.2021	03:50:17	0	0	3,163722	2,74725	15,7968	-0,983	80,626	0	1009,64	5,2	7,5	7,3	1	1	1	1	1	1	1	1	1	0	1	-16,560958	272,58258	296,461464	0
15.01.2021	03:50:18	0	0	2,711761	2,8155	11,7144	-0,978	80,616	0	1009,86	5,2	7,5	7,3	1	1	1	1	1	1	1	1	1	0	1	-12,191684	272,625374	301,027355	0
15.01.2021	03:50:19	0	0	4,745582	2,66025	12,1032	-0,975	80,629	0	1009,64	5,2	7,5	7,3	1	1	1	1	1	1	1	1	1	0	1	-18,322763	272,686278	295,176264	0
15.01.2021	03:50:20	0	0	4,858572	2,44875	16,1028	-0,973	80,628	0	1009,78	5,2	7,5	7,3	1	1	1	1	1	1	1	1	1	0	1	-19,309373	272,632285	293,941429	0
15.01.2021	03:50:21	0	0	4,406612	2,32875	18,8496	-0,979	80,629	0	1009,72	5,2	7,5	7,3	1	1	1	1	1	1	1	1	1	0	1	-17,477097	272,556398	295,425081	0
15.01.2021	03:50:22	0	0	3,050732	2,16825	21,114	-0,978	80,616	0	1009,6	5,2	7,5	7,3	1	1	1	1	1	1	1	1	1	0	1	-17,195208	272,65857	296,176418	0
15.01.2021	03:50:23	0	0	3,050732	2,1615	10,4472	-0,978	80,616	0	1009,7	5,2	7,5	7,3	1	1	1	1	1	1	1	1	1	0	1	-14,376321	272,574308	298,608107	0
15.01.2021	03:50:24	0	0	3,276712	2,24025	13,9176	-0,975	80,643	0	1009,6	5,2	7,5	7,3	1	1	1	1	1	1	1	1	1	0	1	-17,758985	272,676576	295,695426	0
15.01.2021	03:50:25	0	0	3,615682	2,22225	21,114	-0,974	80,627	0	1009,66	5,2	7,5	7,3	1	1	1	1	1	1	1	1	1	0	1	-19,87315	272,626756	293,352241	0
15.01.2021	03:50:26	0	0	3,050732	2,169	9,7668	-0,982	80,62	0	1009,7	5,2	7,5	7,3	1	1	1	1	1	1	1	1	1	0	1	-17,054264	272,662724	296,336458	0
15.01.2021	03:50:27	0	0	4,406612	2,157	10,836	-0,978	80,614	0	1009,64	5,2	7,5	7,3	1	1	1	1	1	1	1	1	1	0	1	-18,25229	272,679347	295,214865	0
15.01.2021	03:50:28	0	0	3,615682	2,15925	9,7632	-0,973	80,628	0	1009,52	5,2	7,4	7,3	1	1	1	1	1	1	1	1	1	0	1	-18,322763	272,592234	294,744011	0
15.01.2021	03:50:29	0	0	4,632592	2,13225	14,4036	-0,981	80,636	0	1009,7	5,2	7,5	7,3	1	1	1	1	1	1	1	1	1	0	1	-18,534179	272,526128	294,229017	0
15.01.2021	03:50:30	0	0	3,615682	2,0265	10,4616	-0,976	80,636	0	1009,66	5,2	7,4	7,3	1	1	1	1	1	1	1	1	1	0	1	-16,701903	272,515132	296,01082	0
15.01.2021	03:50:31	0	0	3,841662	1,98675	12,1104	-0,973	80,627	0	1009,56	5,2	7,5	7,3	1	1	1	1	1	1	1	1	1	0	1	-18,604651	272,586717	294,436775	0
15.01.2021	03:50:32	0	0	3,841662	1,9635	12,1068	-0,972	80,633	0	1009,68	5,2	7,5	7,3	1	1	1	1	1	1	1	1	1	0	1	-18,463707	272,684892	295,028945	0
15.01.2021	03:50:33	0	0	3,615682	1,962	16,866	-0,978	80,64	0	1009,62	5,2	7,4	7,3	1	1	1	1	1	1	1	1	1	0	1	-21,212121	272,653033	292,134052	0
15.01.2021	03:50:34	0	0	2,824751	2,00325	21,7728	-0,972	80,642	0	1009,7	5,2	7,5	7,3	1	1	1	1	1	1	1	1	1	0	1	-19,238901	272,608797	293,903966	0
15.01.2021	03:50:35	0	0	3,728672	1,9155	21,0204	-0,976	80,642	0	1009,64	5,2	7,4	7,3	1	1	1	1	1	1	1	1	1	0	1	-13,107822	272,50689	299,567069	0
15.01.2021	03:50:36	0	0	3,841662	1,9125	27,666	-0,97	80,644	0	1009,76	5,2	7,4	7,3	1	1	1	1	1	1	1	1	1	0	1	-19,450317	272,597754	293,641812	0
15.01.2021	03:50:37	0	0	3,728672	1,93575	22,8636	-0,973	80,633	0	1009,68	5,2	7,4	7,3	1	1	1	1	1	1	1	1	1	0	1	-15,292459	272,490416	297,306828	0
15.01.2021	03:50:38	0	0	3,728672	1,992	8,262	-0,97	80,642	0	1009,72	5,2	7,5	7,3	1	1	1	1	1	1	1	1	1	0	1	-13,742072	272,538506	299,077948	0
15.01.2021	03:50:39	0	0	4,745582	2,01825	15,8004	-0,976	80,648	0	1009,7	5,2	7,4	7,3	1	1	1	1	1	1	1	1	1	0	1	-16,490486	272,519255	296,24116	0
15.01.2021	03:50:40	0	0	3,502692	2,001	15,7932	-0,97	80,655	0	1009,66	5,2	7,5	7,3	1	1	1	1	1	1	1	1	1	0	1	-14,799154	272,50689	297,875737	0
15.01.2021	03:50:41	0	0	2,711761	1,965	16,848	-0,969	80,672	0	1009,82	5,2	7,5	7,3	1	1	1	1	1	1	1	1	1	0	1	-16,490486	272,57293	296,487612	0
15.01.2021	03:50:42	0	0	2,598771	1,90875	13,9284	-0,969	80,667	0	1009,58	5,2	7,4	7,3	1	1	1	1	1	1	1	1	1	0	1	-14,446794	272,491788	298,158791	0
15.01.2021	03:50:43	0	0	4,971562	2,0685	8,3772	-0,97	80,665	0	1009,7	5,2	7,4	7,3	1	1	1	1	1	1	1	1	1	0	1	-16,772375	272,601894	296,338776	0
15.01.2021	03:50:44	0	0	2,937741	2,20425	16,47	-0,975	80,663	0	1009,7	5,2	7,4	7,3	1	1	1	1	1	1	1	1	1	0	1	-18,957012	272,647498	294,363716	0
15.01.2021	03:50:45	0	0	3,163722	2,31075	0,1512	-0,971	80,661	0	1009,66	5,2	7,4	7,3	1	1	1	1	1	1	1	1	1	0	1	-15,856237	272,592234	297,210536	0
15.01.2021	03:50:46	0	0	4,858572	2,38725	3,78	-0,969	80,671	0	1009,72	5,2	7,4	7,3	1	1	1	1	1	1	1	1	1	0	1	-16,983791	272,677962	296,476992	0
15.01.2021	03:50:47	0	0	2,824751	2,364	8,28	-0,968	80,657	0	1009,76	5,2	7,5	7,3	1	1	1	1	1	1	1	1	1	0	1	-16,490486	272,559153	296,424339	0
15.01.2021	03:50:48	0	0	4,293622	2,205	15,4116	-0,974	80,659	0	1009,56	5,2	7,4	7,3	1	1	1	1	1	1	1	1	1	0	1	-22,057787	272,63505	291,205724	0
15.01.2021	03:50:49	0	0	4,745554	2,1825	17,7084	-0,973	80,663	0	1009,6	5,2	7,5	7,4	1	1	1	1	1	1	1	1	1	0	1	-17,970402	272,676576	295,484009	0
15.01.2021	03:50:50	0	0	3,728672	2,3175	14,6664	-0,971	80,663	0	1009,64	5,2	7,5	7,3	1	1	1	1	1	1	1	1	1	0	1	-20,014094	272,56053	292,907056	0
15.01.2021	03:50:51	0	0	4,406612	2,5365	15,0372	-0,969	80,677	0	1009,62	5,2	7,4	7,3	1	1	1	1	1	1	1	1	1	0	1	-14,517266	272,509637	298,170234	0
15.01.2021	03:50:52	0	0	2,937741	2,60025	15,03	-0,977	80,674	0	1009,64	5,2	7,4	7,3	1	1	1	1	1	1	1	1	1	0	1	-19,379845	272,541257	293,452809	0
15.01.2021	03:50:53	0	0	3,050732	2,616	26,9208	-0,971	80,659	0	1009,78	5,2	7,4	7,3	1	1	1	1	1	1	1	1	1	0	1	-18,463707	272,618465	294,723584	0
15.01.2021	03:50:54	0	0	3,389702	2,55975	21,7764	-0,972	80,686	0	1009,64	5,2	7,4	7,3	1	1	1	1	1	1	1	1	1	0	1	-17,124736	272,65165	296,215075	0
15.01.2021	03:50:55	0	0	4,632592	2,562	10,926	-0,962	80,682	0	1009,72	5,2	7,4	7,3	1	1	1	1	1	1	1	1	1	0	1	-15,081043	272,534379	297,720031	0
15.01.2021	03:50:56	0	0	5,084553	2,46675	23,6016	-0,963	80,697	0	1009,76	5,2	7,4	7,3	1	1	1	1	1	1	1	1	1	0	1	-20,436927	272,671034	292,992001	0
15.01.2021	03:50:57	0	0	3,050713	2,59875	1,1952	-0,968	80,686	0	1009,72	5,2	7,6	7,4	1	1	1	1	1	1	1	1	1	0	1	-17,829457	272,579822	295,180298	0
15.01.2021	03:50:58	0	0	4,632592	2,8785	3,4848	-0,968	80,695	0	1009,78	5,2	7,4	7,3	1	1	1	1	1	1	1	1	1	0	1	-18,816068	272,668263	294,600123	0
15.01.2021	03:50:59	0	0	3,841662	3,00525	10,5444	-0,97	80,684	0	1009,8	5,2	7,4	7,3	1	1	1	1	1	1	1	1	1	0	1	-17,195208	272,628138	296,036535	0
15.01.2021	03:51:00	0	0	4,406612	2,52525	21,0348	-0,974	80,688	0	1009,54	5,2	7,5	7,3	1	1	1	1	1	1	1	1	1	0	1	-14,517266	272,661339	298,86709	0
15.01.2021	03:51:01	0	0	4,406612	2,52525	21,0348	-0,974	80,688	0	1009,54	5,2	7,5	7,3	1	1	1	1	1	1	1	1	1	0	1	-14,517266	272,661339	298,86709	0
15.01.2021	03:51:02	0	0	3,050713	2,427	10,4472	-0,969	80,69	0	1009,72	5,2	7,4	7,4	1	1	1	1	1	1	1	1	1	0	1	-15,221987	272,57293	297,756111	0
15.01.2021	03:51:03	0	0	3,050713	2,424	23,5908	-0,963	80,695	0	1009,8	5,2	7,6	7,4	1	1	1	1	1	1	1	1	1	0	1	-16,842847	272,519255	295,888799	0
15.01.2021	03:51:04	0	0	4,067642	2,5635	15,4008	-0,975	80,679	0	1009,62	5,2	7,4	7,3	1	1	1	1	1	1	1	1	1	0	1	-15,081043	272,673805	298,360626	0
15.01.2021	03:51:05	0	0	4,293648	2,73	19,152	-0,971	80,69	0	1009,64	5,2	7,6	7,2	1	1	1	1	1	1	1	1	1	0	1	-18,604651	272,541257	294,228002	0
15.01.2021	03:51:06	0	0	2,711761	2,81175	9,3636	-0,969	80,689	0	1009,64	5,2	7,4	7,3	1	1	1	1	1	1	1	1	1	0	1	-16,490486	272,690438	297,02767	0
15.01.2021	03:51:07	0	0	3,841662	2,87025	12,4632	-0,965	80,702	0	1009,72	5,2	7,4	7,3	1	1	1	1	1	1	1	1	1	0	1	-13,883016	272,586717	299,15841	0
15.01.2021	03:51:08	0	0	4,971592	2,8335	19,5336	-0,969	80,682	0	1009,62	5,2	7,4	7,2	1	1	1	1	1	1	1	1	1	0	1	-15,433404	272,533003	297,361355	0
15.01.2021	03:51:09	0	0	3,841639	2,6025	12,4812	-0,966	80,7	0	1009,68	5,2	7,4	7,4	1	1	1	1	1	1	1	1	1	0	1	-14,869626	272,516506	297,849404	0
15.01.2021	03:51:10	0	0	3,050732	2,60775	13,5432	-0,977	80,703	0	1009,68	5,2	7,4	7,3	1	1	1	1	1	1	1	1	1	0	1	-16,772375	272,557775	296,136127	0
15.01.2021	03:51:11	0	0	4,971592	2,64225	15,03	-0,967	80,72	0	1009,76	5,2	7,4	7,2	1	1	1	1	1	1	1	1	1	0	1	-14,799154	272,571552	298,172614	0
15.01.2021	03:51:12	0	0	4,067666	2,76375	22,8564	-0,974	80,701	0	1009,58	5,2	7,4	7,2	1	1	1	1	1	1	1	1	1	0	1	-13,389711	272,67519	300,058329	0
15.01.2021	03:51:13	0	0	4,858572	2,724	16,488	-0,97	80,703	0	1009,8	5,2	7,4	7,3	1	1	1	1	1	1	1	1	1	0	1	-19,732206	272,590855	293,32823	0
15.01.2021	03:51:14	0	0	2,824751	2,68725	11,7108	-0,969	80,712	0	1009,78	5,2	7,6	7,3	1	1	1	1	1	1	1	1	1	0	1	-18,181818	272,520629	294,556137	0
15.01.2021	03:51:15	0	0	4,067666	2,4525	17,2332	-0,972	80,707	0	1009,78	5,2	7,4	7,2	1	1	1	1	1	1	1	1	1	0	1	-14,869626	272,657186	298,495635	0
15.01.2021	03:51:16	0	0	4,180632	2,2215	9,3672	-0,972	80,711	0	1009,64	5,2	7,6	7,3	1	1	1	1	1	1	1	1	1	0	1	-18,88654	272,583959	294,142217	0
15.01.2021	03:51:17	0	0	3,615682	2,32725	22,4676	-0,973	80,711	0	1009,84	5,2	7,6	7,3	1	1	1	1	1	1	1	1	1	0	1	-13,742072	272,515132	298,970651	0
15.01.2021	03:51:18	0	0	3,276712	2,388	9,0108	-0,972	80,716	0	1009,72	5,2	7,6	7,3	1	1	1	1	1	1	1	1	1	0	1	-15,926709	272,586717	297,114718	0
15.01.2021	03:51:19	0	0	4,632592	2,39175	9,3672	-0,968	80,726	0	1009,88	5,3	7,4	7,3	1	1	1	1	1	1	1	1	1	0	1	-15,926709	272,705698	297,661631	0
15.01.2021	03:51:20	0	0	3,728672	2,268	6,4404	-0,966	80,716	0	1009,72	5,2	7,4	7,3	1	1	1	1	1	1	1	1	1	0	1	-14,305849	272,610178	298,843362	0
15.01.2021	03:51:21	0	0	5,197543	2,1105	26,5392	-0,963	80,722	0	1009,72	5,3	7,4	7,3	1	1	1	1	1	1	1	1	1	0	1	-16,208598	272,67519	297,239442	0
15.01.2021	03:51:22	0	0	2,711778	1,8375	2,6424	-0,967	80,734	0	1009,66	5,2	7,4	7,2	1	1	1	1	1	1	1	1	1	0	1	-14,094433	272,535754	298,712956	0
15.01.2021	03:51:23	0	0	4,180657	1,85025	13,1724	-0,966	80,709	0	1009,8	5,2	7,4	7,2	1	1	1	1	1	1	1	1	1	0	1	-16,138125	272,669649	297,284434	0
15.01.2021	03:51:24	0	0	2,598771	1,78575	16,8444	-0,966	80,72	0	1009,66	5,2	7,6	7,3	1	1	1	1	1	1	1	1	1	0	1	-14,940099	272,545385	297,911509	0
15.01.2021	03:51:25	0	0	5,084553	1,7565	23,2128	-0,972	80,713	0	1009,8	5,2	7,4	7,3	1	1	1	1	1	1	1	1	1	0	1	-14,65821	272,625374	298,56083	0
15.01.2021	03:51:26	0	0	4,632592	1,69575	7,506	-0,971	80,728	0	1009,66	5,3	7,4	7,3	1	1	1	1	1	1	1	1	1	0	1	-9,090909	272,528878	303,68491	0
15.01.2021	03:51:27	0	0	3,615682	1,61025	13,9284	-0,968	80,727	0	1009,58	5,3	7,6	7,3	1	1	1	1	1	1	1	1	1	0	1	-13,389711	272,682119	300,090191	0
15.01.2021	03:51:28	0	0	2,824751	1,614	4,1904	-0,965	80,722	0	1009,68	5,2	7,4	7,3	1	1	1	1	1	1	1	1	1	0	1	-13,389711	272,583959	299,639045	0
15.01.2021	03:51:29	0	0	2,598771	1,61625	3,0312	-0,968	80,71	0	1009,76	5,2	7,6	7,3	1	1	1	1	1	1	1	1	1	0	1	-14,235377	272,672419	299,199922	0
15.01.2021	03:51:30	0	0	3,276712	1,68	13,9248	-0,969	80,725	0	1009,6	5,2	7,4	7,3	1	1	1	1	1	1	1	1	1	0	1	-14,517266	272,614321	298,650983	0
15.01.2021	03:51:31	0	0	4,293622	1,81725	13,1724	-0,971	80,718	0	1009,62	5,2	7,4	7,3	1	1	1	1	1	1	1	1	1	0	1	-15,010571	272,69876	298,545859	0
15.01.2021	03:51:32	0	0	5,197543	1,9935	19,224	-0,968	80,71	0	1009,68	5,3	7,4	7,3	1	1	1	1	1	1	1	1	1	0	1	-18,322763	272,653033	295,02341	0
15.01.2021	03:51:33	0	0	2,372791	2,08875	9,3708	-0,964	80,731	0	1009,58	5,2	7,6	7,3	1	1	1	1	1	1	1	1	1	0	1	-15,856237	272,682119	297,623666	0
15.01.2021	03:51:34	0	0	4,180632	2,14725	11,718	-0,964	80,718	0	1009,7	5,3	7,4	7,3	1	1	1	1	1	1	1	1	1	0	1	-14,164905	272,544009	298,680384	0
15.01.2021	03:51:35	0	0	3,389722	2,26425	15,0516	-0,971	80,723	0	1009,78	5,2	7,6	7,2	1	1	1	1	1	1	1	1	1	0	1	-15,151515	272,579822	297,85824	0
15.01.2021	03:51:36	0	0	3,502713	2,3775	7,8984	-0,967	80,723	0	1009,84	5,2	7,4	7,2	1	1	1	1	1	1	1	1	1	0	1	-16,349542	272,700147	297,213269	0
15.01.2021	03:51:37	0	0	4,293622	2,45175	12,8556	-0,971	80,737	0	1009,66	5,2	7,6	7,3	1	1	1	1	1	1	1	1	1	0	1	-11,557435	272,673805	301,884234	0
15.01.2021	03:51:38	0	0	4,858572	2,397	7,5276	-0,967	80,729	0	1009,66	5,3	7,6	7,3	1	1	1	1	1	1	1	1	1	0	1	-19,027484	272,640582	294,261451	0
15.01.2021	03:51:39	0	0	3,389702	2,44575	7,1352	-0,966	80,718	0	1009,72	5,3	7,6	7,3	1	1	1	1	1	1	1	1	1	0	1	-15,151515	272,520629	297,58644	0
15.01.2021	03:51:40	0	0	3,276712	2,47725	2,6604	-0,966	80,729	0	1009,64	5,3	7,6	7,3	1	1	1	1	1	1	1	1	1	0	1	-16,772375	272,579822	296,237381	0
15.01.2021	03:51:41	0	0	3,954652	2,53725	12,4812	-0,963	80,736	0	1009,76	5,2	7,4	7,3	1	1	1	1	1	1	1	1	1	0	1	-12,473573	272,57293	300,504526	0
15.01.2021	03:51:42	0	0	3,728672	2,43675	16,8624	-0,971	80,725	0	1009,54	5,3	7,6	7,3	1	1	1	1	1	1	1	1	1	0	1	-14,940099	272,693212	298,590813	0
15.01.2021	03:51:43	0	0	4,971562	2,367	17,2476	-0,967	80,73	0	1009,74	5,2	7,6	7,3	1	1	1	1	1	1	1	1	1	0	1	-13,601128	272,633667	299,656029	0
15.01.2021	03:51:44	0	0	3,841662	2,2875	26,9064	-0,965	80,742	0	1009,76	5,3	7,6	7,3	1	1	1	1	1	1	1	1	1	0	1	-11,557435	272,70431	302,024522	0
15.01.2021	03:51:45	0	0	3,276712	2,24775	9,3708	-0,966	80,734	0	1009,76	5,2	7,6	7,3	1	1	1	1	1	1	1	1	1	0	1	-12,825934	272,632285	300,424868	0
15.01.2021	03:51:46	0	0	4,858572	2,25975	7,1172	-0,965	80,75	0	1009,84	5,3	7,6	7,3	1	1	1	1	1	1	1	1	1	0	1	-11,41649	272,672419	302,018808	0
15.01.2021	03:51:47	0	0	4,745582	2,25675	14,2956	-0,967	80,738	0	1009,78	5,3	7,6	7,3	1	1	1	1	1	1	1	1	1	0	1	-8,174771	272,539881	304,651565	0
15.01.2021	03:51:48	0	0	3,050732	2,301	3,3876	-0,968	80,741	0	1009,72	5,2	7,4	7,3	1	1	1	1	1	1	1	1	1	0	1	-16,701903	272,619846	296,491737	0
15.01.2021	03:51:49	0	0	4,519602	2,48625	10,4436	-0,965	80,749	0	1009,48	5,3	7,6	7,3	1	1	1	1	1	1	1	1	1	0	1	-12,825934	272,697373	300,724116	0
15.01.2021	03:51:50	0	0	4,406612	2,6685	7,1316	-0,966	80,745	0	1009,86	5,3	7,4	7,3	1	1	1	1	1	1	1	1	1	0	1	-15,433404	272,615702	297,741192	0
15.01.2021	03:51:51	0	0	4,519602	2,613	6,8292	-0,965	80,751	0	1009,78	5,3	7,6	7,3	1	1	1	1	1	1	1	1	1	0	1	-11,768851	272,516506	300,950179	0
15.01.2021	03:51:52	0	0	4,293622	2,44425	16,488	-0,974	80,734	0	1009,64	5,1	7,6	7,3	1	1	1	1	1	1	1	1	1	0	1	-17,054264	272,597754	296,037865	0
15.01.2021	03:51:53	0	0	3,502692	2,31	13,1724	-0,971	80,748	0	1009,74	5,3	7,6	7,3	1	1	1	1	1	1	1	1	1	0	1	-14,164905	272,689051	299,346874	0
15.01.2021	03:51:54	0	0	3,163722	2,19525	15,7896	-0,968	80,759	0	1009,64	5,2	7,6	7,3	1	1	1	1	1	1	1	1	1	0	1	-12,966878	272,546762	299,891049	0
15.01.2021	03:51:55	0	0	2,598771	2,121	17,7228	-0,964	80,757	0	1009,74	5,3	7,5	7,3	1	1	1	1	1	1	1	1	1	0	1	-16,067653	272,644731	297,240356	0
15.01.2021	03:51:56	0	0	2,937741	2,2635	5,688	-0,962	80,763	0	1009,72	5,3	7,6	7,3	1	1	1	1	1	1	1	1	1	0	1	-14,869626	272,691825	298,654907	0
15.01.2021	03:51:57	0	0	4,971562	2,59425	4,842	-0,964	80,75	0	1009,64	5,3	7,6	7,3	1	1	1	1	1	1	1	1	1	0	1	-16,772375	272,577065	296,224716	0
15.01.2021	03:51:58	0	0	4,519602	2,8995	17,712	-0,97	80,755	0	1009,7	5,3	7,6	7,3	1	1	1	1	1	1	1	1	1	0	1	-14,235377	272,583959	298,79338	0
15.01.2021	03:51:59	0	0	3,276712	2,9895	11,214	-0,966	80,763	0	1009,92	5,3	7,6	7,3	1	1	1	1	1	1	1	1	1	0	1	-17,054264	272,512384	295,645847	0
15.01.2021	03:52:00	0	0	3,389702	2,6295	16,8588	-0,968	80,77	0	1009,52	5,3	7,5	7,3	1	1	1	1	1	1	1	1	1	0	1	-11,275546	272,571552	301,696223	0
15.01.2021	03:52:01	0	0	3,389702	2,6295	16,8588	-0,968	80,77	0	1009,52	5,3	7,5	7,3	1	1	1	1	1	1	1	1	1	0	1	-11,275546	272,571552	301,696223	0
15.01.2021	03:52:02	0	0	3,841662	2,4765	12,1068	-0,966	80,76	0	1009,62	5,3	7,6	7,3	1	1	1	1	1	1	1	1	1	0	1	-14,376321	272,548138	298,487926	0
15.01.2021	03:52:03	0	0	3,954652	2,4	5,2308	-0,962	80,762	0	1009,62	5,3	7,6	7,3	1	1	1	1	1	1	1	1	1	0	1	-11,205074	272,559153	301,709752	0
15.01.2021	03:52:04	0	0	2,598771	2,3925	7,2432	-0,967	80,763	0	1009,64	5,3	7,6	7,3	1	1	1	1	1	1	1	1	1	0	1	-15,081043	272,722359	298,583939	0
15.01.2021	03:52:05	0	0	4,745582	2,2155	23,9868	-0,965	80,767	0	1009,78	5,3	7,6	7,3	1	1	1	1	1	1	1	1	1	0	1	-17,477097	272,65165	295,862714	0
15.01.2021	03:52:06	0	0	2,711761	2,03175	17,2476	-0,961	80,755	0	1009,6	5,3	7,6	7,3	1	1	1	1	1	1	1	1	1	0	1	-12,755462	272,661339	300,628895	0
15.01.2021	03:52:07	0	0	3,163722	1,929	26,1792	-0,966	80,767	0	1009,64	5,3	7,6	7,3	1	1	1	1	1	1	1	1	1	0	1	-14,446794	272,508263	298,234402	0
15.01.2021	03:52:08	0	0	2,372791	2,055	14,31	-0,958	80,757	0	1009,84	5,2	7,5	7,3	1	1	1	1	1	1	1	1	1	0	1	-17,054264	272,62952	296,183832	0
15.01.2021	03:52:09	0	0	4,858572	2,39325	12,4848	-0,963	80,764	0	1009,64	5,2	7,6	7,3	1	1	1	1	1	1	1	1	1	0	1	-14,164905	272,707086	299,429819	0
15.01.2021	03:52:10	0	0	2,937741	2,39625	17,2332	-0,965	80,767	0	1009,58	5,2	7,6	7,3	1	1	1	1	1	1	1	1	1	0	1	-12,121212	272,548138	300,743035	0
15.01.2021	03:52:11	0	0	3,050732	2,68275	7,1316	-0,964	80,77	0	1009,74	5,2	7,5	7,3	1	1	1	1	1	1	1	1	1	0	1	-16,842847	272,644731	296,465162	0
15.01.2021	03:52:12	0	0	5,423523	2,907	18,9468	-0,965	80,773	0	1009,82	5,2	7,5	7,3	1	1	1	1	1	1	1	1	1	0	1	-15,081043	272,689051	298,430736	0
15.01.2021	03:52:13	0	0	2,485781	2,874	21,0168	-0,962	80,779	0	1009,78	5,2	7,6	7,3	1	1	1	1	1	1	1	1	1	0	1	-14,235377	272,664109	299,161711	0
15.01.2021	03:52:14	0	0	2,598771	2,841	11,7252	-0,961	80,778	0	1009,78	5,2	7,5	7,3	1	1	1	1	1	1	1	1	1	0	1	-13,248767	272,568796	299,710344	0
15.01.2021	03:52:15	0	0	4,519602	2,778	19,53	-0,959	80,763	0	1009,6	5,3	7,5	7,3	1	1	1	1	1	1	1	1	1	0	1	-11,839323	272,625374	301,379716	0
15.01.2021	03:52:16	0	0	4,971562	2,769	28,7316	-0,96	80,785	0	1009,66	5,2	7,5	7,3	1	1	1	1	1	1	1	1	1	0	1	-12,966878	272,705698	300,621462	0
15.01.2021	03:52:17	0	0	4,858572	2,607	14,2992	-0,961	80,776	0	1009,7	5,2	7,5	7,3	1	1	1	1	1	1	1	1	1	0	1	-16,842847	272,684892	296,649804	0
15.01.2021	03:52:18	0	0	3,050732	2,6445	18,8424	-0,963	80,76	0	1009,82	5,2	7,5	7,3	1	1	1	1	1	1	1	1	1	0	1	-19,661734	272,646115	293,652635	0
15.01.2021	03:52:19	0	0	4,519602	2,7465	17,7156	-0,965	80,776	0	1009,74	5,3	7,5	7,3	1	1	1	1	1	1	1	1	1	0	1	-13,601128	272,687665	299,904275	0
15.01.2021	03:52:20	0	0	5,084553	2,844	7,1352	-0,963	80,796	0	1009,76	5,2	7,5	7,3	1	1	1	1	1	1	1	1	1	0	1	-14,235377	272,677962	299,225406	0
15.01.2021	03:52:21	0	0	3,954652	2,7915	20,6424	-0,964	80,774	0	1009,78	5,3	7,5	7,3	1	1	1	1	1	1	1	1	1	0	1	-15,785765	272,603274	297,331729	0
15.01.2021	03:52:22	0	0	4,632592	2,61225	21,7656	-0,966	80,793	0	1009,76	5,2	7,5	7,3	1	1	1	1	1	1	1	1	1	0	1	-15,503876	272,705698	298,084464	0
15.01.2021	03:52:23	0	0	4,180632	2,3955	10,4652	-0,962	80,782	0	1009,76	5,2	7,5	7,3	1	1	1	1	1	1	1	1	1	0	1	-16,490486	272,677962	296,970297	0
15.01.2021	03:52:24	0	0	4,067642	2,2905	15,0408	-0,953	80,8	0	1009,86	5,2	7,5	7,3	1	1	1	1	1	1	1	1	1	0	1	-13,953488	272,621228	299,246501	0
15.01.2021	03:52:25	0	0	4,632592	2,07	20,6424	-0,966	80,778	0	1009,8	5,2	7,5	7,3	1	1	1	1	1	1	1	1	1	0	1	-12,191684	272,714026	301,434967	0
15.01.2021	03:52:26	0	0	4,406612	2,076	33,9516	-0,965	80,794	0	1009,58	5,2	7,5	7,3	1	1	1	1	1	1	1	1	1	0	1	-9,372798	272,625374	303,846242	0
15.01.2021	03:52:27	0	0	2,824751	2,0355	18,4608	-0,96	80,798	0	1009,66	5,2	7,5	7,3	1	1	1	1	1	1	1	1	1	0	1	-11,346018	272,714026	302,280633	0
15.01.2021	03:52:28	0	0	4,519602	2,016	17,712	-0,961	80,79	0	1009,66	5,2	7,5	7,3	1	1	1	1	1	1	1	1	1	0	1	-15,64482	272,577065	297,352271	0
15.01.2021	03:52:29	0	0	4,632592	2,14875	20,6604	-0,96	80,799	0	1009,78	5,2	7,6	7,3	1	1	1	1	1	1	1	1	1	0	1	-18,675123	272,709862	294,93237	0
15.01.2021	03:52:30	0	0	4,632592	2,316	17,2512	-0,966	80,797	0	1009,68	5,2	7,5	7,3	1	1	1	1	1	1	1	1	1	0	1	-18,463707	272,677962	294,997076	0
15.01.2021	03:52:31	0	0	4,180632	2,53275	22,4748	-0,958	80,809	0	1009,8	5,2	7,5	7,3	1	1	1	1	1	1	1	1	1	0	1	-15,081043	272,531628	297,707402	0
15.01.2021	03:52:32	0	0	3,050732	2,634	27,27	-0,967	80,805	0	1009,62	5,2	7,5	7,3	1	1	1	1	1	1	1	1	1	0	1	-15,997181	272,668263	297,41901	0
15.01.2021	03:52:33	0	0	3,841662	2,62425	33,966	-0,956	80,814	0	1009,82	5,2	7,5	7,3	1	1	1	1	1	1	1	1	1	0	1	-13,883016	272,596374	299,202773	0
15.01.2021	03:52:34	0	0	3,502692	2,63775	12,1104	-0,963	80,821	0	1009,78	5,2	7,5	7,3	1	1	1	1	1	1	1	1	1	0	1	-13,460183	272,687665	300,045219	0
15.01.2021	03:52:35	0	0	4,971562	2,69775	23,238	-0,966	80,804	0	1009,64	5,2	7,5	7,3	1	1	1	1	1	1	1	1	1	0	1	-14,094433	272,677962	299,36635	0
15.01.2021	03:52:36	0	0	4,293622	2,58	10,8324	-0,958	80,805	0	1009,7	5,2	7,5	7,3	1	1	1	1	1	1	1	1	1	0	1	-14,023961	272,567418	298,928822	0
15.01.2021	03:52:37	0	0	2,711761	2,3745	10,0728	-0,957	80,806	0	1009,8	5,2	7,5	7,3	1	1	1	1	1	1	1	1	1	0	1	-17,195208	272,538506	295,624812	0
15.01.2021	03:52:38	0	0	3,954652	2,3385	15,0336	-0,96	80,802	0	1009,72	5,2	7,5	7,3	1	1	1	1	1	1	1	1	1	0	1	-13,883016	272,637816	299,393206	0
15.01.2021	03:52:39	0	0	3,163722	2,28975	12,0924	-0,959	80,814	0	1009,76	5,2	7,5	7,3	1	1	1	1	1	1	1	1	1	0	1	-12,473573	272,702922	301,102002	0
15.01.2021	03:52:40	0	0	5,197543	2,292	12,1104	-0,96	80,811	0	1009,84	5,2	7,5	7,3	1	1	1	1	1	1	1	1	1	0	1	-14,940099	272,544009	297,905191	0
15.01.2021	03:52:41	0	0	5,084553	2,24925	17,6976	-0,965	80,807	0	1009,7	5,2	7,5	7,3	1	1	1	1	1	1	1	1	1	0	1	-11,346018	272,619846	301,847621	0
15.01.2021	03:52:42	0	0	2,937741	2,31	12,8592	-0,963	80,804	0	1009,62	5,2	7,5	7,3	1	1	1	1	1	1	1	1	1	0	1	-7,399577	272,528878	305,376242	0
15.01.2021	03:52:43	0	0	4,067642	2,4225	10,8252	-0,959	80,807	0	1009,68	5,2	7,5	7,3	1	1	1	1	1	1	1	1	1	0	1	-8,668076	272,679347	304,79908	0
15.01.2021	03:52:44	0	0	5,084553	2,42325	12,8484	-0,963	80,829	0	1009,66	5,2	7,5	7,3	1	1	1	1	1	1	1	1	1	0	1	-13,460183	272,535754	299,347205	0
15.01.2021	03:52:45	0	0	5,084553	2,40975	16,488	-0,961	80,801	0	1009,78	5,2	7,5	7,3	1	1	1	1	1	1	1	1	1	0	1	-14,164905	272,590855	298,895531	0
15.01.2021	03:52:46	0	0	2,598771	2,346	11,7288	-0,961	80,815	0	1009,76	5,2	7,5	7,3	1	1	1	1	1	1	1	1	1	0	1	-14,376321	272,57293	298,601777	0
15.01.2021	03:52:47	0	0	3,728672	2,43975	17,2476	-0,96	80,828	0	1009,74	5,2	7,5	7,3	1	1	1	1	1	1	1	1	1	0	1	-12,403101	272,72097	301,255492	0
15.01.2021	03:52:48	0	0	4,745582	2,7	7,1496	-0,958	80,816	0	1009,72	5,2	7,5	7,3	1	1	1	1	1	1	1	1	1	0	1	-10,711769	272,709862	302,895724	0
15.01.2021	03:52:49	0	0	4,519602	2,844	16,0956	-0,96	80,828	0	1009,78	5,2	7,5	7,3	1	1	1	1	1	1	1	1	1	0	1	-11,768851	272,708474	301,832257	0
15.01.2021	03:52:50	0	0	3,050732	2,8695	21,3876	-0,962	80,814	0	1009,76	5,2	7,5	7,3	1	1	1	1	1	1	1	1	1	0	1	-12,896406	272,617083	300,284537	0
15.01.2021	03:52:51	0	0	4,067642	2,8335	11,2068	-0,954	80,833	0	1009,8	5,2	7,5	7,3	1	1	1	1	1	1	1	1	1	0	1	-14,65821	272,71125	298,955669	0
15.01.2021	03:52:52	0	0	3,389702	2,70525	21,78	-0,963	80,822	0	1009,68	5,2	7,5	7,3	1	1	1	1	1	1	1	1	1	0	1	-11,980268	272,544009	300,865022	0
15.01.2021	03:52:53	0	0	3,276712	2,56125	16,4844	-0,955	80,835	0	1009,54	5,2	7,5	7,3	1	1	1	1	1	1	1	1	1	0	1	-14,376321	272,655802	298,982577	0
15.01.2021	03:52:54	0	0	2,372791	2,39325	23,2272	-0,961	80,822	0	1009,46	5,2	7,5	7,3	1	1	1	1	1	1	1	1	1	0	1	-10,147992	272,533003	302,646768	0
15.01.2021	03:52:55	0	0	2,146811	2,256	15,4152	-0,957	80,823	0	1009,7	5,2	7,5	7,3	1	1	1	1	1	1	1	1	1	0	1	-9,231853	272,640582	304,057082	0
15.01.2021	03:52:56	0	0	4,858572	2,25675	13,5504	-0,96	80,839	0	1009,78	5,2	7,5	7,3	1	1	1	1	1	1	1	1	1	0	1	-13,248767	272,653033	300,097406	0
15.01.2021	03:52:57	0	0	3,61566	2,26725	16,4844	-0,962	80,835	0	1009,88	5,2	7,5	7,4	1	1	1	1	1	1	1	1	1	0	1	-12,262156	272,71125	301,351722	0
15.01.2021	03:52:58	0	0	4,180632	2,26125	16,8624	-0,953	80,83	0	1009,62	5,2	7,5	7,3	1	1	1	1	1	1	1	1	1	0	1	-13,178295	272,640582	300,110641	0
15.01.2021	03:52:59	0	0	4,858572	2,211	21,7728	-0,957	80,834	0	1009,76	5,2	7,5	7,3	1	1	1	1	1	1	1	1	1	0	1	-10,147992	272,541257	302,684662	0
15.01.2021	03:53:00	0	0	4,519602	2,0625	18,8424	-0,959	80,839	0	1009,6	5,2	7,5	7,3	1	1	1	1	1	1	1	1	1	0	1	-14,094433	272,56053	298,826718	0
15.01.2021	03:53:01	0	0	4,519602	2,0625	18,8424	-0,959	80,839	0	1009,6	5,2	7,5	7,3	1	1	1	1	1	1	1	1	1	0	1	-14,094433	272,56053	298,826718	0
15.01.2021	03:53:02	0	0	3,841662	2,09475	9,3744	-0,96	80,845	0	1009,76	5,2	7,5	7,3	1	1	1	1	1	1	1	1	1	0	1	-12,191684	272,542633	300,647287	0
15.01.2021	03:53:03	0	0	3,954652	2,1975	12,4848	-0,956	80,839	0	1009,66	5,2	7,5	7,3	1	1	1	1	1	1	1	1	1	0	1	-16,27907	272,559153	296,635756	0
15.01.2021	03:53:04	0	0	4,067642	2,1315	16,4988	-0,955	80,841	0	1009,8	5,2	7,5	7,3	1	1	1	1	1	1	1	1	1	0	1	-11,205074	272,555021	301,690781	0
15.01.2021	03:53:05	0	0	4,632592	2,09025	17,2476	-0,96	80,849	0	1009,86	5,2	7,5	7,3	1	1	1	1	1	1	1	1	1	0	1	-12,614517	272,56604	300,331938	0
15.01.2021	03:53:06	0	0	3,954652	2,106	20,3076	-0,956	80,849	0	1009,76	5,2	7,5	7,3	1	1	1	1	1	1	1	1	1	0	1	-10,923185	272,539881	301,903151	0
15.01.2021	03:53:07	0	0	3,050732	2,09325	16,0632	-0,958	80,84	0	1009,76	5,2	7,5	7,3	1	1	1	1	1	1	1	1	1	0	1	-13,6716	272,630902	299,572849	0
15.01.2021	03:53:08	0	0	3,615682	2,23575	30,33	-0,959	80,854	0	1009,68	5,2	7,5	7,3	1	1	1	1	1	1	1	1	1	0	1	-16,772375	272,528878	296,003445	0
15.01.2021	03:53:09	0	0	3,954652	2,32875	7,524	-0,957	80,853	0	1009,74	5,2	7,5	7,3	1	1	1	1	1	1	1	1	1	0	1	-17,547569	272,662724	295,843153	0
15.01.2021	03:53:10	0	0	3,050732	2,43375	8,2764	-0,956	80,858	0	1009,74	5,2	7,5	7,3	1	1	1	1	1	1	1	1	1	0	1	-9,161381	272,716803	304,478045	0
15.01.2021	03:53:11	0	0	3,163703	2,5605	19,908	-0,961	80,848	0	1009,58	5,2	7,5	7,4	1	1	1	1	1	1	1	1	1	0	1	-13,601128	272,679347	299,866028	0
15.01.2021	03:53:12	0	0	2,824751	2,53725	18,8676	-0,964	80,853	0	1009,62	5,2	7,5	7,3	1	1	1	1	1	1	1	1	1	0	1	-12,403101	272,603274	300,714392	0
15.01.2021	03:53:13	0	0	4,858543	2,4585	15,408	-0,958	80,851	0	1009,76	5,2	7,6	7,4	1	1	1	1	1	1	1	1	1	0	1	-16,420014	272,723748	297,251359	0
15.01.2021	03:53:14	0	0	3,389702	2,40675	19,9044	-0,962	80,852	0	1009,74	5,2	7,5	7,3	1	1	1	1	1	1	1	1	1	0	1	-18,816068	272,650266	294,517382	0
15.01.2021	03:53:15	0	0	4,180632	2,349	10,0764	-0,962	80,847	0	1009,74	5,2	7,5	7,3	1	1	1	1	1	1	1	1	1	0	1	-10,641297	272,542633	302,197674	0
15.01.2021	03:53:16	0	0	3,841662	2,47725	9,7452	-0,957	80,859	0	1009,76	5,2	7,5	7,3	1	1	1	1	1	1	1	1	1	0	1	-10,993658	272,712638	302,626607	0
15.01.2021	03:53:17	0	0	4,180607	2,604	3,7944	-0,963	80,864	0	1009,74	5,2	7,5	7,4	1	1	1	1	1	1	1	1	1	0	1	-10,077519	272,534379	302,723554	0
15.01.2021	03:53:18	0	0	3,050713	2,55375	14,3892	-0,957	80,861	0	1009,68	5,2	7,6	7,4	1	1	1	1	1	1	1	1	1	0	1	-12,191684	272,697373	301,358365	0
15.01.2021	03:53:19	0	0	4,745554	2,61375	12,8592	-0,957	80,857	0	1009,72	5,2	7,5	7,4	1	1	1	1	1	1	1	1	1	0	1	-10,852713	272,594994	302,226737	0
15.01.2021	03:53:20	0	0	4,858572	2,7645	23,5872	-0,954	80,867	0	1009,78	5,2	7,6	7,3	1	1	1	1	1	1	1	1	1	0	1	-13,883016	272,732084	299,826711	0
15.01.2021	03:53:21	0	0	5,536513	2,9235	7,1352	-0,952	80,858	0	1009,86	5,2	7,6	7,3	1	1	1	1	1	1	1	1	1	0	1	-10,711769	272,67519	302,736271	0
15.01.2021	03:53:22	0	0	2,937741	2,91675	15,7824	-0,956	80,854	0	1009,7	5,2	7,5	7,3	1	1	1	1	1	1	1	1	1	0	1	-11,205074	272,548138	301,659173	0
15.01.2021	03:53:23	0	0	3,841639	2,67225	18,846	-0,965	80,858	0	1009,68	5,2	7,5	7,4	1	1	1	1	1	1	1	1	1	0	1	-9,231853	272,599134	303,866616	0
15.01.2021	03:53:24	0	0	5,423523	2,50425	7,524	-0,959	80,863	0	1009,68	5,2	7,5	7,3	1	1	1	1	1	1	1	1	1	0	1	-9,866103	272,56053	303,055048	0
15.01.2021	03:53:25	0	0	3,502671	2,57625	13,1652	-0,957	80,871	0	1009,8	5,2	7,5	7,4	1	1	1	1	1	1	1	1	1	0	1	-9,090909	272,732084	304,618818	0
15.01.2021	03:53:26	0	0	3,050732	2,66175	16,1064	-0,957	80,861	0	1009,68	5,2	7,5	7,3	1	1	1	1	1	1	1	1	1	0	1	-8,949965	272,644731	304,358045	0
15.01.2021	03:53:27	0	0	4,858543	2,89425	18,0792	-0,955	80,872	0	1009,74	5,2	7,5	7,4	1	1	1	1	1	1	1	1	1	0	1	-11,275546	272,729305	302,421394	0
15.01.2021	03:53:28	0	0	5,197511	2,83725	10,2744	-0,951	80,877	0	1009,74	5,3	7,4	7,4	1	1	1	1	1	1	1	1	1	0	1	-11,134602	272,665494	302,268854	0
15.01.2021	03:53:29	0	0	3,389702	2,8335	3,8556	-0,951	80,876	0	1009,6	5,2	7,5	7,3	1	1	1	1	1	1	1	1	1	0	1	-7,892882	272,718192	305,752932	0
15.01.2021	03:53:30	0	0	2,485781	2,73075	10,4616	-0,962	80,877	0	1009,82	5,1	7,5	7,3	1	1	1	1	1	1	1	1	1	0	1	-16,490486	272,585338	296,544605	0
15.01.2021	03:53:31	0	0	5,310501	2,69925	8,2728	-0,957	80,876	0	1009,76	5,1	7,4	7,4	1	1	1	1	1	1	1	1	1	0	1	-9,231853	272,568796	303,727257	0
15.01.2021	03:53:32	0	0	2,937741	2,6595	8,3664	-0,956	80,876	0	1009,64	5,1	7,6	7,3	1	1	1	1	1	1	1	1	1	0	1	-12,05074	272,648882	301,276349	0
15.01.2021	03:53:33	0	0	3,728649	2,6565	10,836	-0,95	80,884	0	1009,78	5,3	7,4	7,4	1	1	1	1	1	1	1	1	1	0	1	-14,094433	272,555021	298,801422	0
15.01.2021	03:53:34	0	0	2,824734	2,661	12,8772	-0,951	80,885	0	1009,74	5,2	7,4	7,4	1	1	1	1	1	1	1	1	1	0	1	-13,248767	272,596374	299,837022	0
15.01.2021	03:53:35	0	0	3,502671	2,7225	11,7144	-0,95	80,875	0	1009,7	5,3	7,6	7,4	1	1	1	1	1	1	1	1	1	0	1	-8,174771	272,729305	305,522169	0
15.01.2021	03:53:36	0	0	5,649469	2,82075	27,2736	-0,955	80,878	0	1009,54	5,3	7,4	7,4	1	1	1	1	1	1	1	1	1	0	1	-11,698379	272,657186	301,666883	0
15.01.2021	03:53:37	0	0	4,519575	2,80275	24,7248	-0,954	80,894	0	1009,7	5,3	7,6	7,4	1	1	1	1	1	1	1	1	1	0	1	-7,399577	272,550891	305,477311	0
15.01.2021	03:53:38	0	0	4,180607	2,71125	21,7836	-0,953	80,895	0	1009,66	5,4	7,6	7,4	1	1	1	1	1	1	1	1	1	0	1	-11,698379	272,575686	301,292381	0
15.01.2021	03:53:39	0	0	4,745554	2,577	12,852	-0,959	80,893	0	1009,72	5,3	7,6	7,4	1	1	1	1	1	1	1	1	1	0	1	-7,681466	272,657186	305,683796	0
15.01.2021	03:53:40	0	0	3,050713	2,5545	12,4776	-0,963	80,892	0	1009,58	5,2	7,5	7,4	1	1	1	1	1	1	1	1	1	0	1	-12,05074	272,583959	300,978017	0
15.01.2021	03:53:41	0	0	4,745554	2,571	13,1688	-0,959	80,898	0	1009,66	5,2	7,6	7,4	1	1	1	1	1	1	1	1	1	0	1	-9,161381	272,683506	304,324895	0
15.01.2021	03:53:42	0	0	3,276692	2,62875	17,244	-0,955	80,886	0	1009,58	5,4	7,4	7,4	1	1	1	1	1	1	1	1	1	0	1	-6,8358	272,557775	306,072702	0
15.01.2021	03:53:43	0	0	4,180607	2,589	11,7324	-0,954	80,907	0	1009,74	5,4	7,5	7,4	1	1	1	1	1	1	1	1	1	0	1	-9,302326	272,65857	304,069301	0
15.01.2021	03:53:44	0	0	3,276692	2,48925	15,8148	-0,956	80,897	0	1009,82	5,3	7,6	7,4	1	1	1	1	1	1	1	1	1	0	1	-12,755462	272,564662	300,184667	0
15.01.2021	03:53:45	0	0	2,598756	2,5905	19,9044	-0,956	80,91	0	1009,72	5,2	7,4	7,4	1	1	1	1	1	1	1	1	1	0	1	-15,010571	272,586717	298,030856	0
15.01.2021	03:53:46	0	0	2,711745	2,64375	18,4572	-0,953	80,925	0	1009,8	5,1	7,6	7,4	1	1	1	1	1	1	1	1	1	0	1	-11,980268	272,589475	301,073831	0
15.01.2021	03:53:47	0	0	4,293622	2,60325	21,7764	-0,951	80,921	0	1009,76	5,3	7,6	7,3	1	1	1	1	1	1	1	1	1	0	1	-10,147992	272,752942	303,657711	0
15.01.2021	03:53:48	0	0	4,858543	2,52225	25,0416	-0,956	80,901	0	1009,76	5,2	7,5	7,4	1	1	1	1	1	1	1	1	1	0	1	-11,06413	272,676576	302,390281	0
15.01.2021	03:53:49	0	0	4,519575	2,48025	20,6352	-0,954	80,917	0	1009,78	5,2	7,6	7,4	1	1	1	1	1	1	1	1	1	0	1	-9,513742	272,750159	304,279156	0
15.01.2021	03:53:50	0	0	2,711761	2,442	4,1076	-0,955	80,905	0	1009,74	5,2	7,6	7,3	1	1	1	1	1	1	1	1	1	0	1	-11,557435	272,689051	301,954344	0
15.01.2021	03:53:51	0	0	2,598756	2,2395	18,4536	-0,953	80,933	0	1009,82	5,2	7,6	7,4	1	1	1	1	1	1	1	1	1	0	1	-14,869626	272,548138	297,994621	0
15.01.2021	03:53:52	0	0	2,937724	2,00025	7,146	-0,947	80,931	0	1009,74	5,2	7,6	7,4	1	1	1	1	1	1	1	1	1	0	1	-8,80902	272,590855	304,251415	0
15.01.2021	03:53:53	0	0	3,954628	1,95375	3,0348	-0,947	80,931	0	1009,78	5,2	7,6	7,4	1	1	1	1	1	1	1	1	1	0	1	-7,047216	272,668263	306,368975	0
15.01.2021	03:53:54	0	0	3,841639	1,96425	9,7524	-0,95	80,937	0	1009,84	5,3	7,6	7,4	1	1	1	1	1	1	1	1	1	0	1	-14,023961	272,723748	299,647412	0
15.01.2021	03:53:55	0	0	3,502692	1,938	7,5276	-0,953	80,945	0	1009,76	5,3	7,6	7,3	1	1	1	1	1	1	1	1	1	0	1	-10,007047	272,676576	303,447364	0
15.01.2021	03:53:56	0	0	3,163703	2,016	17,7228	-0,952	80,937	0	1009,72	5,3	7,6	7,4	1	1	1	1	1	1	1	1	1	0	1	-10,147992	272,725137	303,529772	0
15.01.2021	03:53:57	0	0	3,276712	2,112	10,8144	-0,96	80,924	0	1009,72	5,3	7,6	7,3	1	1	1	1	1	1	1	1	1	0	1	-8,104299	272,671034	305,32463	0
15.01.2021	03:53:58	0	0	2,937741	2,184	21,7728	-0,951	80,93	0	1009,84	5,3	7,4	7,3	1	1	1	1	1	1	1	1	1	0	1	-7,681466	272,56053	305,239685	0
15.01.2021	03:53:59	0	0	3,61566	2,295	9,3744	-0,952	80,935	0	1009,9	5,3	7,6	7,4	1	1	1	1	1	1	1	1	1	0	1	-8,033827	272,581201	304,982262	0
15.01.2021	03:54:00	0	0	2,372791	2,54775	4,1256	-0,951	80,955	0	1009,86	5,3	7,6	7,3	1	1	1	1	1	1	1	1	1	0	1	-4,862579	272,552268	308,020631	0
15.01.2021	03:54:01	0	0	3,050713	2,874	4,86	-0,953	80,942	0	1009,7	5,2	7,6	7,4	1	1	1	1	1	1	1	1	1	0	1	-4,862579	272,552268	308,020631	0
15.01.2021	03:54:02	0	0	3,050713	2,874	4,86	-0,953	80,942	0	1009,7	5,2	7,6	7,4	1	1	1	1	1	1	1	1	1	0	1	-7,258633	272,702922	306,316942	0
15.01.2021	03:54:03	0	0	3,728672	2,83575	19,908	-0,952	80,949	0	1009,74	5,3	7,6	7,3	1	1	1	1	1	1	1	1	1	0	1	-9,161381	272,725137	304,516382	0
15.01.2021	03:54:04	0	0	4,519575	2,6295	11,196	-0,948	80,944	0	1009,94	5,3	7,6	7,4	1	1	1	1	1	1	1	1	1	0	1	-11,698379	272,702922	301,877195	0
15.01.2021	03:54:05	0	0	3,954628	2,5005	21,4164	-0,947	80,944	0	1009,86	5,3	7,6	7,4	1	1	1	1	1	1	1	1	1	0	1	-10,288936	272,687665	303,216467	0
15.01.2021	03:54:06	0	0	3,050713	2,3625	18,45	-0,952	80,947	0	1009,74	5,3	7,6	7,4	1	1	1	1	1	1	1	1	1	0	1	-11,698379	272,748768	302,088118	0
15.01.2021	03:54:07	0	0	3,163722	2,2815	16,8588	-0,952	80,942	0	1009,64	5,3	7,6	7,3	1	1	1	1	1	1	1	1	1	0	1	-11,06413	272,707086	302,530594	0
15.01.2021	03:54:08	0	0	4,519602	2,42175	7,1424	-0,951	80,965	0	1009,78	5,3	7,6	7,3	1	1	1	1	1	1	1	1	1	0	1	-10,218464	272,741815	303,536036	0
15.01.2021	03:54:09	0	0	3,728649	2,44425	21,0348	-0,95	80,952	0	1009,74	5,3	7,6	7,4	1	1	1	1	1	1	1	1	1	0	1	-13,178295	272,632285	300,072508	0
15.01.2021	03:54:10	0	0	2,824734	2,4345	16,4988	-0,945	80,954	0	1009,82	5,3	7,6	7,4	1	1	1	1	1	1	1	1	1	0	1	-10,782241	272,563285	302,151561	0
15.01.2021	03:54:11	0	0	5,42349	2,448	16,0992	-0,947	80,964	0	1009,88	5,2	7,6	7,4	1	1	1	1	1	1	1	1	1	0	1	-7,610994	272,708474	305,990115	0
15.01.2021	03:54:12	0	0	3,841662	2,7615	10,818	-0,949	80,948	0	1009,76	5,3	7,5	7,3	1	1	1	1	1	1	1	1	1	0	1	-9,654686	272,72097	304,003906	0
15.01.2021	03:54:13	0	0	3,163722	3,003	5,6916	-0,945	80,967	0	1009,62	5,3	7,6	7,3	1	1	1	1	1	1	1	1	1	0	1	-10,852713	272,57293	302,125385	0
15.01.2021	03:54:14	0	0	4,293622	3,045	11,7324	-0,953	80,968	0	1009,84	5,3	7,6	7,3	1	1	1	1	1	1	1	1	1	0	1	-7,610994	272,719581	306,041209	0
15.01.2021	03:54:15	0	0	3,502692	2,9505	12,0852	-0,943	80,959	0	1009,7	5,3	7,6	7,3	1	1	1	1	1	1	1	1	1	0	1	-5,990134	272,615702	307,184462	0
15.01.2021	03:54:16	0	0	4,519602	2,82825	22,8456	-0,948	80,971	0	1009,7	5,3	7,6	7,3	1	1	1	1	1	1	1	1	1	0	1	-11,06413	272,690438	302,454026	0
15.01.2021	03:54:17	0	0	3,163703	2,69625	17,2476	-0,946	80,961	0	1009,9	5,3	7,6	7,4	1	1	1	1	1	1	1	1	1	0	1	-15,574348	272,745987	298,199349	0
15.01.2021	03:54:18	0	0	4,745582	2,6565	12,8556	-0,948	80,955	0	1009,9	5,3	7,6	7,3	1	1	1	1	1	1	1	1	1	0	1	-14,446794	272,70431	299,135164	0
15.01.2021	03:54:19	0	0	4,180632	2,48325	17,2476	-0,947	80,971	0	1009,96	5,4	7,6	7,3	1	1	1	1	1	1	1	1	1	0	1	-10,359408	272,747377	303,420689	0
15.01.2021	03:54:20	0	0	4,180632	2,33325	19,8936	-0,952	80,961	0	1009,72	5,2	7,6	7,3	1	1	1	1	1	1	1	1	1	0	1	-11,275546	272,617083	301,905397	0
15.01.2021	03:54:21	0	0	3,502692	2,2785	21,78	-0,95	80,963	0	1009,66	5,3	7,6	7,3	1	1	1	1	1	1	1	1	1	0	1	-13,460183	272,705698	300,128157	0
15.01.2021	03:54:22	0	0	3,61566	2,1855	19,5372	-0,952	80,977	0	1009,76	5,3	7,6	7,4	1	1	1	1	1	1	1	1	1	0	1	-6,342495	272,563285	306,591307	0
15.01.2021	03:54:23	0	0	3,163703	2,1675	13,9176	-0,946	80,969	0	1009,82	5,3	7,6	7,4	1	1	1	1	1	1	1	1	1	0	1	-11,205074	272,65857	302,166552	0
15.01.2021	03:54:24	0	0	3,050713	2,21475	12,1176	-0,941	81,002	0	1009,92	5,1	7,6	7,4	1	1	1	1	1	1	1	1	1	0	1	-11,346018	272,743205	302,41488	0
15.01.2021	03:54:25	0	0	3,502692	2,22675	17,7084	-0,952	80,974	0	1009,72	5,2	7,7	7,3	1	1	1	1	1	1	1	1	1	0	1	-12,121212	272,650266	301,212237	0
15.01.2021	03:54:26	0	0	2,937724	2,21625	16,0992	-0,948	80,985	0	1009,9	5,3	7,6	7,4	1	1	1	1	1	1	1	1	1	0	1	-11,486963	272,712638	302,133302	0
15.01.2021	03:54:27	0	0	4,519602	2,31525	10,8216	-0,953	80,976	0	1009,66	5,4	7,6	7,3	1	1	1	1	1	1	1	1	1	0	1	-7,610994	272,729305	306,085947	0
15.01.2021	03:54:28	0	0	3,276712	2,42925	9,7596	-0,951	80,974	0	1009,76	5,2	7,4	7,3	1	1	1	1	1	1	1	1	1	0	1	-9,936575	272,684892	303,556076	0
15.01.2021	03:54:29	0	0	4,632592	2,493	10,4472	-0,952	80,988	0	1009,7	5,3	7,4	7,3	1	1	1	1	1	1	1	1	1	0	1	-11,205074	272,570174	301,760366	0
15.01.2021	03:54:30	0	0	3,728672	2,4285	15,8004	-0,948	80,987	0	1009,84	5,3	7,5	7,3	1	1	1	1	1	1	1	1	1	0	1	-10,147992	272,644731	303,160018	0
15.01.2021	03:54:31	0	0	2,937741	2,39175	17,802	-0,943	80,985	0	1009,86	5,5	7,6	7,3	1	1	1	1	1	1	1	1	1	0	1	-10,500352	272,745987	303,273344	0
15.01.2021	03:54:32	0	0	2,937741	2,35425	1,548	-0,944	80,995	0	1009,7	5,2	7,5	7,3	1	1	1	1	1	1	1	1	1	0	1	-4,22833	272,58258	308,794093	0
15.01.2021	03:54:33	0	0	2,711745	2,22675	23,22	-0,947	80,988	0	1009,76	5,5	7,7	7,4	1	1	1	1	1	1	1	1	1	0	1	-11,134602	272,630902	302,109847	0
15.01.2021	03:54:34	0	0	3,050732	2,124	13,2336	-0,948	80,985	0	1009,72	5,3	7,5	7,3	1	1	1	1	1	1	1	1	1	0	1	-11,205074	272,556398	301,697104	0
15.01.2021	03:54:35	0	0	4,632592	2,04525	16,1136	-0,943	80,992	0	1010	5,1	7,4	7,3	1	1	1	1	1	1	1	1	1	0	1	-8,597604	272,691825	304,92693	0
15.01.2021	03:54:36	0	0	2,824751	1,911	16,506	-0,947	81,002	0	1009,62	5,3	7,6	7,3	1	1	1	1	1	1	1	1	1	0	1	-10,007047	272,744596	303,76025	0
15.01.2021	03:54:37	0	0	4,293622	1,827	0	-0,944	80,999	0	1009,82	5,3	7,5	7,3	1	1	1	1	1	1	1	1	1	0	1	-13,389711	272,600514	299,715099	0
15.01.2021	03:54:38	0	0	4,519602	2,0955	9,8424	-0,951	80,997	0	1009,8	5,3	7,6	7,3	1	1	1	1	1	1	1	1	1	0	1	-9,936575	272,646115	303,377794	0
15.01.2021	03:54:39	0	0	4,519575	2,4435	7,5204	-0,943	80,996	0	1009,8	5,4	7,4	7,4	1	1	1	1	1	1	1	1	1	0	1	-6,412967	272,748768	307,37353	0
15.01.2021	03:54:40	0	0	4,067642	2,80875	3,7836	-0,952	80,992	0	1009,72	5,2	7,4	7,3	1	1	1	1	1	1	1	1	1	0	1	-6,272023	272,729305	307,424918	0
15.01.2021	03:54:41	0	0	2,598771	2,85525	24,0552	-0,947	80,999	0	1009,7	5,4	7,5	7,3	1	1	1	1	1	1	1	1	1	0	1	-11,06413	272,697373	302,48592	0
15.01.2021	03:54:42	0	0	4,745582	2,7915	12,8592	-0,946	80,991	0	1009,8	5,2	7,6	7,3	1	1	1	1	1	1	1	1	1	0	1	-9,161381	272,747377	304,618716	0
15.01.2021	03:54:43	0	0	3,61566	2,712	14,292	-0,944	81,007	0	1009,82	5,1	7,6	7,4	1	1	1	1	1	1	1	1	1	0	1	-5,567301	272,654418	307,785234	0
15.01.2021	03:54:44	0	0	3,050732	2,793	18,0828	-0,943	81,001	0	1009,68	5,3	7,7	7,3	1	1	1	1	1	1	1	1	1	0	1	-10,641297	272,58258	302,381126	0
15.01.2021	03:54:45	0	0	4,180632	2,91075	9,3672	-0,945	80,995	0	1009,66	5,3	7,4	7,3	1	1	1	1	1	1	1	1	1	0	1	-9,302326	272,640582	303,98661	0
15.01.2021	03:54:46	0	0	3,163741	2,79375	6,0804	-0,941	81,006	0	1009,68	5,3	7,5	7,2	1	1	1	1	1	1	1	1	1	0	1	-7,540521	272,748768	306,245976	0
15.01.2021	03:54:47	0	0	3,615682	2,56575	4,4712	-0,943	80,986	0	1009,7	5,2	7,5	7,3	1	1	1	1	1	1	1	1	1	0	1	-8,597604	272,734864	305,124913	0
15.01.2021	03:54:48	0	0	2,372791	2,39025	15,03	-0,943	81,018	0	1009,68	5,3	7,5	7,3	1	1	1	1	1	1	1	1	1	0	1	-7,892882	272,610178	305,256329	0
15.01.2021	03:54:49	0	0	4,971562	2,22975	11,8044	-0,941	81,01	0	1009,78	5,4	7,5	7,3	1	1	1	1	1	1	1	1	1	0	1	-10,218464	272,594994	302,860986	0
15.01.2021	03:54:50	0	0	2,372777	2,1615	15,7788	-0,945	81,007	0	1009,72	5,2	7,6	7,4	1	1	1	1	1	1	1	1	1	0	1	-15,926709	272,709862	297,680784	0
15.01.2021	03:54:51	0	0	4,406586	2,13675	357,6924	-0,946	81,018	0	1009,7	5,2	7,6	7,4	1	1	1	1	1	1	1	1	1	0	1	-9,372798	272,694598	304,164493	0
15.01.2021	03:54:52	0	0	4,632592	2,24325	15,0516	-0,946	81,014	0	1009,74	5,2	7,6	7,3	1	1	1	1	1	1	1	1	1	0	1	-10,42988	272,596374	302,655909	0
15.01.2021	03:54:53	0	0	4,971562	2,334	13,9248	-0,944	81,011	0	1009,78	5,3	7,6	7,3	1	1	1	1	1	1	1	1	1	0	1	-8,174771	272,694598	305,36252	0
15.01.2021	03:54:54	0	0	5,310533	2,331	15,3936	-0,943	81,03	0	1009,7	5,2	7,5	7,3	1	1	1	1	1	1	1	1	1	0	1	-7,399577	272,578443	305,603846	0
15.01.2021	03:54:55	0	0	3,163722	2,334	12,1032	-0,936	81,018	0	1009,8	5,3	7,6	7,3	1	1	1	1	1	1	1	1	1	0	1	-9,090909	272,600514	304,013901	0
15.01.2021	03:54:56	0	0	4,067642	2,4225	8,6256	-0,94	81,027	0	1009,88	5,2	7,5	7,3	1	1	1	1	1	1	1	1	1	0	1	-10,782241	272,673805	302,659428	0
15.01.2021	03:54:57	0	0	4,519602	2,58075	4,0896	-0,94	81,021	0	1009,84	5,2	7,5	7,3	1	1	1	1	1	1	1	1	1	0	1	-12,262156	272,744596	301,505141	0
15.01.2021	03:54:58	0	0	4,180632	2,72925	14,634	-0,949	81,02	0	1009,78	5,3	7,5	7,3	1	1	1	1	1	1	1	1	1	0	1	-5,003524	272,739034	308,738181	0
15.01.2021	03:54:59	0	0	3,502692	2,79825	12,4776	-0,939	81,037	0	1009,72	5,3	7,5	7,3	1	1	1	1	1	1	1	1	1	0	1	-8,245243	272,745987	305,528454	0
15.01.2021	03:55:00	0	0	3,276712	2,6745	17,2476	-0,941	81,022	0	1009,72	5,2	7,6	7,3	1	1	1	1	1	1	1	1	1	0	1	-7,540521	272,63505	305,722989	0
15.01.2021	03:55:01	0	0	3,276712	2,6745	17,2476	-0,941	81,022	0	1009,72	5,2	7,6	7,3	1	1	1	1	1	1	1	1	1	0	1	-7,540521	272,63505	305,722989	0
15.01.2021	03:55:02	0	0	4,406612	2,63025	18,4608	-0,944	81,02	0	1009,8	5,3	7,6	7,3	1	1	1	1	1	1	1	1	1	0	1	-6,624383	272,773822	307,277421	0
15.01.2021	03:55:03	0	0	4,067618	2,61075	15,4152	-0,944	81,029	0	1009,68	5,3	7,5	7,4	1	1	1	1	1	1	1	1	1	0	1	-8,597604	272,716803	305,041822	0
15.01.2021	03:55:04	0	0	2,711761	2,769	0,8676	-0,947	81,022	0	1009,68	5,2	7,5	7,3	1	1	1	1	1	1	1	1	1	0	1	-10,077519	272,659955	303,300471	0
15.01.2021	03:55:05	0	0	4,858572	2,84475	20,286	-0,938	81,043	0	1009,78	5,2	7,5	7,3	1	1	1	1	1	1	1	1	1	0	1	-12,614517	272,769644	301,268057	0
15.01.2021	03:55:06	0	0	3,050713	2,6805	14,6592	-0,941	81,095	0	1009,72	5,2	7,6	7,4	1	1	1	1	1	1	1	1	1	0	1	-10,359408	272,625374	302,859632	0
15.01.2021	03:55:07	0	0	3,163722	2,418	14,31	-0,947	81,047	0	1009,64	5,3	7,5	7,3	1	1	1	1	1	1	1	1	1	0	1	-7,258633	272,646115	306,055736	0
15.01.2021	03:55:08	0	0	3,389702	2,25075	22,8492	-0,938	81,049	0	1009,76	5,3	7,5	7,3	1	1	1	1	1	1	1	1	1	0	1	-14,799154	272,593614	298,273957	0
15.01.2021	03:55:09	0	0	3,276692	2,052	18,8388	-0,947	81,049	0	1009,68	5,3	7,5	7,4	1	1	1	1	1	1	1	1	1	0	1	-11,980268	272,650266	301,353182	0
15.01.2021	03:55:10	0	0	4,406612	1,9485	19,53	-0,945	81,034	0	1009,72	5,2	7,5	7,3	1	1	1	1	1	1	1	1	1	0	1	-6,483439	272,600514	306,621371	0
15.01.2021	03:55:11	0	0	4,293622	2,1705	20,0268	-0,941	81,051	0	1009,76	5,2	7,5	7,3	1	1	1	1	1	1	1	1	1	0	1	-9,936575	272,719581	303,715628	0
15.01.2021	03:55:12	0	0	4,971533	2,4585	16,092	-0,942	81,045	0	1009,74	5,2	7,5	7,4	1	1	1	1	1	1	1	1	1	0	1	-6,976744	272,611559	306,178812	0
15.01.2021	03:55:13	0	0	5,310533	2,82075	3,7836	-0,94	81,05	0	1009,76	5,2	7,6	7,3	1	1	1	1	1	1	1	1	1	0	1	-9,302326	272,750159	304,490573	0
15.01.2021	03:55:14	0	0	4,293596	2,844	17,7048	-0,939	81,043	0	1009,78	5,3	7,5	7,4	1	1	1	1	1	1	1	1	1	0	1	-10,993658	272,643348	302,307993	0
15.01.2021	03:55:15	0	0	4,406586	2,79225	350,298	-0,947	81,052	0	1009,74	5,2	7,5	7,4	1	1	1	1	1	1	1	1	1	0	1	-6,553911	272,776607	307,360716	0
15.01.2021	03:55:16	0	0	4,745554	2,823	1,1808	-0,94	81,05	0	1009,72	5,3	7,5	7,4	1	1	1	1	1	1	1	1	1	0	1	-11,980268	272,715415	301,652771	0
15.01.2021	03:55:17	0	0	4,519602	2,83425	13,9176	-0,935	81,061	0	1009,7	5,2	7,5	7,3	1	1	1	1	1	1	1	1	1	0	1	-7,681466	272,63505	305,582045	0
15.01.2021	03:55:18	0	0	4,745554	3,03375	15,8688	-0,943	81,065	0	1009,6	5,2	7,5	7,4	1	1	1	1	1	1	1	1	1	0	1	-7,470049	272,594994	305,609401	0
15.01.2021	03:55:19	0	0	3,841639	2,82975	20,286	-0,94	81,054	0	1009,66	5,3	7,5	7,4	1	1	1	1	1	1	1	1	1	0	1	-9,513742	272,672419	303,921556	0
15.01.2021	03:55:20	0	0	2,711761	2,6805	1,9224	-0,937	81,067	0	1009,74	5,2	7,5	7,3	1	1	1	1	1	1	1	1	1	0	1	-9,936575	272,583959	303,092181	0
15.01.2021	03:55:21	0	0	2,598756	2,82825	7,8768	-0,941	81,065	0	1009,72	5,3	7,5	7,4	1	1	1	1	1	1	1	1	1	0	1	-10,570825	272,619846	302,622815	0
15.01.2021	03:55:22	0	0	2,937724	2,817	3,7836	-0,937	81,066	0	1009,82	5,3	7,5	7,4	1	1	1	1	1	1	1	1	1	0	1	-11,698379	272,585338	301,336712	0
15.01.2021	03:55:23	0	0	4,745582	2,75475	2,6568	-0,94	81,07	0	1009,78	5,2	7,6	7,3	1	1	1	1	1	1	1	1	1	0	1	-12,191684	272,695986	301,351986	0
15.01.2021	03:55:24	0	0	2,824734	2,7765	7,8948	-0,935	81,071	0	1009,76	5,2	7,5	7,4	1	1	1	1	1	1	1	1	1	0	1	-11,557435	272,586717	301,483992	0
15.01.2021	03:55:25	0	0	2,598756	2,93925	5,22	-0,938	81,079	0	1009,74	5,2	7,6	7,4	1	1	1	1	1	1	1	1	1	0	1	-7,963354	272,686278	305,535672	0
15.01.2021	03:55:26	0	0	3,276712	3,11475	0,8892	-0,936	81,056	0	1009,66	5,2	7,5	7,3	1	1	1	1	1	1	1	1	1	0	1	-10,641297	272,4534	301,788169	0
15.01.2021	03:55:27	0	0	4,858543	3,19275	3,7836	-0,938	81,064	0	1009,68	5,2	7,5	7,4	1	1	1	1	1	1	1	1	1	0	1	-5,990134	272,664109	307,406954	0
15.01.2021	03:55:28	0	0	4,406586	3,09675	10,4472	-0,934	81,083	0	1009,84	5,3	7,5	7,4	1	1	1	1	1	1	1	1	1	0	1	-7,892882	272,577065	305,104209	0
15.01.2021	03:55:29	0	0	5,310501	2,829	14,3064	-0,946	81,062	0	1009,7	5,2	7,5	7,4	1	1	1	1	1	1	1	1	1	0	1	-7,470049	272,633667	305,787107	0
15.01.2021	03:55:30	0	0	4,406586	2,68425	15,9048	-0,936	81,086	0	1009,68	5,3	7,5	7,4	1	1	1	1	1	1	1	1	1	0	1	-12,966878	272,752942	300,838824	0
15.01.2021	03:55:31	0	0	4,858543	2,7315	12,8484	-0,932	81,093	0	1009,78	5,3	7,5	7,4	1	1	1	1	1	1	1	1	1	0	1	-12,121212	272,779394	301,806241	0
15.01.2021	03:55:32	0	0	4,632565	2,8035	15,7968	-0,941	81,086	0	1009,8	5,3	7,5	7,4	1	1	1	1	1	1	1	1	1	0	1	-10,570825	272,705698	303,017516	0
15.01.2021	03:55:33	0	0	4,519602	2,77725	17,7048	-0,933	81,07	0	1009,9	5,2	7,5	7,3	1	1	1	1	1	1	1	1	1	0	1	-10,359408	272,775214	303,548808	0
15.01.2021	03:55:34	0	0	4,180607	2,72925	26,9856	-0,931	81,085	0	1009,78	5,3	7,6	7,4	1	1	1	1	1	1	1	1	1	0	1	-12,825934	272,712638	300,794331	0
15.01.2021	03:55:35	0	0	4,519575	2,70375	16,866	-0,929	81,097	0	1009,76	5,3	7,6	7,4	1	1	1	1	1	1	1	1	1	0	1	-11,698379	272,722359	301,966603	0
15.01.2021	03:55:36	0	0	4,971533	2,61825	11,7144	-0,93	81,093	0	1009,7	5,3	7,6	7,4	1	1	1	1	1	1	1	1	1	0	1	-16,349542	272,772429	297,545852	0
15.01.2021	03:55:37	0	0	3,841639	2,6325	13,1472	-0,932	81,078	0	1009,6	5,3	7,6	7,4	1	1	1	1	1	1	1	1	1	0	1	-12,05074	272,67519	301,3973	0
15.01.2021	03:55:38	0	0	4,632565	2,709	4,4748	-0,928	81,088	0	1009,76	5,3	7,6	7,4	1	1	1	1	1	1	1	1	1	0	1	-10,782241	272,594994	302,297209	0
15.01.2021	03:55:39	0	0	5,084522	2,682	12,8592	-0,939	81,089	0	1009,64	5,2	7,6	7,4	1	1	1	1	1	1	1	1	1	0	1	-16,490486	272,63505	296,773025	0
15.01.2021	03:55:40	0	0	3,841639	2,61	25,0344	-0,933	81,101	0	1009,7	5,3	7,6	7,4	1	1	1	1	1	1	1	1	1	0	1	-7,751938	272,615702	305,422658	0
15.01.2021	03:55:41	0	0	2,937724	2,43675	15,7788	-0,933	81,084	0	1009,68	5,2	7,6	7,4	1	1	1	1	1	1	1	1	1	0	1	-9,372798	272,730695	304,330536	0
15.01.2021	03:55:42	0	0	3,841639	2,4675	12,0852	-0,929	81,09	0	1009,7	5,3	7,6	7,4	1	1	1	1	1	1	1	1	1	0	1	-6,8358	272,596374	306,249989	0
15.01.2021	03:55:43	0	0	4,067618	2,62275	15,0444	-0,93	81,102	0	1009,78	5,3	7,6	7,4	1	1	1	1	1	1	1	1	1	0	1	-9,090909	272,671034	304,33802	0
15.01.2021	03:55:44	0	0	2,937724	2,964	12,4884	-0,929	81,105	0	1009,86	5,3	7,6	7,4	1	1	1	1	1	1	1	1	1	0	1	-9,090909	272,596374	303,99488	0
15.01.2021	03:55:45	0	0	3,502671	2,99925	6,4512	-0,941	81,094	0	1009,54	5,3	7,6	7,4	1	1	1	1	1	1	1	1	1	0	1	-5,144468	272,676576	308,309943	0
15.01.2021	03:55:46	0	0	2,937724	3,02175	9,3852	-0,935	81,104	0	1009,72	5,3	7,6	7,4	1	1	1	1	1	1	1	1	1	0	1	-11,06413	272,771036	302,824854	0
15.01.2021	03:55:47	0	0	4,632565	2,85	18,4608	-0,934	81,101	0	1009,6	5,3	7,6	7,4	1	1	1	1	1	1	1	1	1	0	1	-10,852713	272,747377	302,927384	0
15.01.2021	03:55:48	0	0	2,937724	2,63475	360	-0,931	81,114	0	1009,76	5,3	7,6	7,4	1	1	1	1	1	1	1	1	1	0	1	-12,544045	272,732084	301,165682	0
15.01.2021	03:55:49	0	0	3,728649	2,54325	10,0764	-0,929	81,124	0	1009,78	5,3	7,6	7,4	1	1	1	1	1	1	1	1	1	0	1	-6,8358	272,607416	306,300723	0
15.01.2021	03:55:50	0	0	2,937724	2,44125	15,0444	-0,93	81,131	0	1009,66	5,3	7,6	7,4	1	1	1	1	1	1	1	1	1	0	1	-7,329105	272,669649	306,093455	0
15.01.2021	03:55:51	0	0	5,084522	2,36325	19,1484	-0,936	81,1	0	1009,66	5,3	7,6	7,4	1	1	1	1	1	1	1	1	1	0	1	-6,8358	272,739034	306,905905	0
15.01.2021	03:55:52	0	0	4,519575	2,43375	8,9964	-0,928	81,099	0	1009,76	5,3	7,6	7,4	1	1	1	1	1	1	1	1	1	0	1	-14,728682	272,661339	298,655674	0
15.01.2021	03:55:53	0	0	3,728649	2,43225	13,9284	-0,928	81,113	0	1009,54	5,3	7,6	7,4	1	1	1	1	1	1	1	1	1	0	1	-5,708245	272,779394	308,219208	0
15.01.2021	03:55:54	0	0	3,276692	2,42025	18,468	-0,933	81,106	0	1009,72	5,3	7,6	7,4	1	1	1	1	1	1	1	1	1	0	1	-7,82241	272,661339	305,561946	0
15.01.2021	03:55:55	0	0	4,745554	2,475	6,444	-0,927	81,135	0	1009,86	5,3	7,6	7,4	1	1	1	1	1	1	1	1	1	0	1	-4,510218	272,771036	309,378765	0
15.01.2021	03:55:56	0	0	3,841639	2,55225	15,4008	-0,934	81,119	0	1009,7	5,3	7,6	7,4	1	1	1	1	1	1	1	1	1	0	1	-8,80902	272,626756	304,416371	0
15.01.2021	03:55:57	0	0	4,180607	2,6835	13,554	-0,936	81,156	0	1009,96	5,3	7,6	7,4	1	1	1	1	1	1	1	1	1	0	1	-5,567301	272,611559	307,588256	0
15.01.2021	03:55:58	0	0	3,841639	2,72175	10,4436	-0,931	81,132	0	1009,74	5,3	7,6	7,4	1	1	1	1	1	1	1	1	1	0	1	-9,936575	272,780787	303,997292	0
15.01.2021	03:55:59	0	0	3,954628	2,66475	9,756	-0,929	81,126	0	1009,84	5,3	7,6	7,4	1	1	1	1	1	1	1	1	1	0	1	-7,047216	272,718192	306,598598	0
15.01.2021	03:56:00	0	0	3,61566	2,85825	8,2728	-0,928	81,135	0	1009,8	5,3	7,6	7,4	1	1	1	1	1	1	1	1	1	0	1	-12,614517	272,606035	300,515662	0
15.01.2021	03:56:01	0	0	3,61566	2,85825	8,2728	-0,928	81,135	0	1009,8	5,3	7,6	7,4	1	1	1	1	1	1	1	1	1	0	1	-12,614517	272,606035	300,515662	0
15.01.2021	03:56:02	0	0	3,276692	3,11325	8,2656	-0,933	81,136	0	1009,72	5,3	7,6	7,4	1	1	1	1	1	1	1	1	1	0	1	-11,980268	272,700147	301,582543	0
15.01.2021	03:56:03	0	0	3,61566	3,27	9,3852	-0,929	81,135	0	1009,7	5,3	7,5	7,4	1	1	1	1	1	1	1	1	1	0	1	-9,936575	272,791936	304,048621	0
15.01.2021	03:56:04	0	0	2,937724	3,12525	16,4952	-0,928	81,133	0	1009,84	5,3	7,6	7,4	1	1	1	1	1	1	1	1	1	0	1	-7,610994	272,726526	306,073162	0
15.01.2021	03:56:05	0	0	4,745554	2,89875	18,0972	-0,927	81,135	0	1009,84	5,3	7,6	7,4	1	1	1	1	1	1	1	1	1	0	1	-6,765328	272,730695	306,938006	0
15.01.2021	03:56:06	0	0	4,971533	2,859	15,8004	-0,923	81,155	0	1009,76	5,3	7,6	7,4	1	1	1	1	1	1	1	1	1	0	1	-9,231853	272,615702	303,942742	0
15.01.2021	03:56:07	0	0	4,745554	2,88	9,7596	-0,922	81,145	0	1009,72	5,3	7,6	7,4	1	1	1	1	1	1	1	1	1	0	1	-11,275546	272,657186	302,089716	0
15.01.2021	03:56:08	0	0	3,728649	2,871	7,8912	-0,926	81,126	0	1009,9	5,3	7,6	7,4	1	1	1	1	1	1	1	1	1	0	1	-8,033827	272,607416	305,102696	0
15.01.2021	03:56:09	0	0	4,180607	2,80425	25,4196	-0,929	81,138	0	1009,72	5,3	7,6	7,4	1	1	1	1	1	1	1	1	1	0	1	-12,332629	272,762683	301,517906	0
15.01.2021	03:56:10	0	0	4,858543	2,679	8,6184	-0,93	81,148	0	1009,76	5,3	7,6	7,4	1	1	1	1	1	1	1	1	1	0	1	-9,090909	272,716803	304,548517	0
15.01.2021	03:56:11	0	0	3,276692	2,754	17,2404	-0,928	81,137	0	1009,78	5,3	7,6	7,4	1	1	1	1	1	1	1	1	1	0	1	-10,641297	272,61294	302,520606	0
15.01.2021	03:56:12	0	0	3,389681	2,76	4,0788	-0,931	81,139	0	1009,58	5,3	7,6	7,4	1	1	1	1	1	1	1	1	1	0	1	-6,976744	272,648882	306,350344	0
15.01.2021	03:56:13	0	0	3,728649	2,61075	25,0524	-0,924	81,156	0	1009,86	5,3	7,6	7,4	1	1	1	1	1	1	1	1	1	0	1	-10,641297	272,786361	303,31823	0
15.01.2021	03:56:14	0	0	2,146798	2,6385	8,2728	-0,923	81,151	0	1009,7	5,3	7,6	7,4	1	1	1	1	1	1	1	1	1	0	1	-16,631431	272,69876	296,924999	0
15.01.2021	03:56:15	0	0	2,598756	2,63625	9,0072	-0,922	81,164	0	1009,78	5,3	7,6	7,4	1	1	1	1	1	1	1	1	1	0	1	-11,909796	272,769644	301,972778	0
15.01.2021	03:56:16	0	0	3,841639	2,56425	19,5336	-0,926	81,16	0	1009,74	5,3	7,6	7,4	1	1	1	1	1	1	1	1	1	0	1	-8,245243	272,791936	305,739953	0
15.01.2021	03:56:17	0	0	4,180607	2,53575	26,1648	-0,925	81,157	0	1009,84	5,3	7,6	7,4	1	1	1	1	1	1	1	1	1	0	1	-9,513742	272,757116	304,311171	0
15.01.2021	03:56:18	0	0	5,197511	2,53725	13,5468	-0,922	81,163	0	1009,72	5,3	7,6	7,4	1	1	1	1	1	1	1	1	1	0	1	-11,768851	272,784967	302,18426	0
15.01.2021	03:56:19	0	0	3,163703	2,55075	22,8312	-0,925	81,162	0	1009,8	5,3	7,6	7,4	1	1	1	1	1	1	1	1	1	0	1	-12,121212	272,633667	301,135944	0
15.01.2021	03:56:20	0	0	3,728649	2,52	12,852	-0,932	81,161	0	1009,78	5,3	7,6	7,4	1	1	1	1	1	1	1	1	1	0	1	-8,033827	272,729305	305,663114	0
15.01.2021	03:56:21	0	0	3,954628	2,5965	10,8288	-0,929	81,163	0	1009,66	5,3	7,6	7,4	1	1	1	1	1	1	1	1	1	0	1	-8,033827	272,789148	305,938533	0
15.01.2021	03:56:22	0	0	2,937724	2,60925	8,6184	-0,925	81,169	0	1009,86	5,3	7,6	7,4	1	1	1	1	1	1	1	1	1	0	1	-10,570825	272,719581	303,081378	0
15.01.2021	03:56:23	0	0	2,937724	2,58675	10,44	-0,925	81,162	0	1009,9	5,3	7,6	7,4	1	1	1	1	1	1	1	1	1	0	1	-5,496829	272,794724	308,501205	0
15.01.2021	03:56:24	0	0	4,745582	2,5395	6,0624	-0,93	81,163	0	1009,78	5,3	7,6	7,3	1	1	1	1	1	1	1	1	1	0	1	-8,668076	272,618465	304,519215	0
15.01.2021	03:56:25	0	0	4,519575	2,3685	19,1628	-0,923	81,156	0	1009,86	5,3	7,6	7,4	1	1	1	1	1	1	1	1	1	0	1	-13,601128	272,726526	300,083028	0
15.01.2021	03:56:26	0	0	3,163703	2,20875	15,786	-0,927	81,172	0	1009,58	5,3	7,6	7,4	1	1	1	1	1	1	1	1	1	0	1	-11,06413	272,617083	302,116813	0
15.01.2021	03:56:27	0	0	4,519575	2,03475	11,7108	-0,924	81,165	0	1009,74	5,3	7,6	7,4	1	1	1	1	1	1	1	1	1	0	1	-10,500352	272,727916	303,190195	0
15.01.2021	03:56:28	0	0	4,971533	1,99875	18,0792	-0,926	81,176	0	1009,7	5,3	7,6	7,4	1	1	1	1	1	1	1	1	1	0	1	-9,372798	272,61294	303,789105	0
15.01.2021	03:56:29	0	0	2,711745	2,1945	12,9528	-0,923	81,186	0	1009,76	5,3	7,6	7,4	1	1	1	1	1	1	1	1	1	0	1	-10,641297	272,708474	302,959812	0
15.01.2021	03:56:30	0	0	4,519602	2,38725	15,786	-0,924	81,178	0	1009,82	5,3	7,6	7,3	1	1	1	1	1	1	1	1	1	0	1	-8,597604	272,784967	305,355507	0
15.01.2021	03:56:31	0	0	3,728649	2,77425	5,688	-0,922	81,188	0	1009,68	5,3	7,6	7,4	1	1	1	1	1	1	1	1	1	0	1	-8,386187	272,714026	305,240464	0
15.01.2021	03:56:32	0	0	3,61566	3,06525	17,2548	-0,922	81,182	0	1009,8	5,3	7,6	7,4	1	1	1	1	1	1	1	1	1	0	1	-15,010571	272,607416	298,125952	0
15.01.2021	03:56:33	0	0	4,858572	2,9535	24,7248	-0,924	81,184	0	1009,7	5,3	7,6	7,3	1	1	1	1	1	1	1	1	1	0	1	-12,825934	272,702922	300,749641	0
15.01.2021	03:56:34	0	0	4,519602	2,889	17,7048	-0,922	81,197	0	1009,72	5,3	7,6	7,3	1	1	1	1	1	1	1	1	1	0	1	-12,05074	272,790542	301,928038	0
15.01.2021	03:56:35	0	0	2,937724	2,63325	19,5444	-0,924	81,185	0	1009,7	5,3	7,6	7,4	1	1	1	1	1	1	1	1	1	0	1	-6,8358	272,759899	307,001923	0
15.01.2021	03:56:36	0	0	4,745582	2,39025	22,086	-0,926	81,186	0	1009,78	5,3	7,6	7,3	1	1	1	1	1	1	1	1	1	0	1	-12,825934	272,797513	301,18494	0
15.01.2021	03:56:37	0	0	3,502692	2,34825	12,1248	-0,916	81,193	0	1009,8	5,3	7,6	7,3	1	1	1	1	1	1	1	1	1	0	1	-12,191684	272,682119	301,288218	0
15.01.2021	03:56:38	0	0	3,163684	2,394	9,3708	-0,919	81,202	0	1009,86	5,3	7,6	7,5	1	1	1	1	1	1	1	1	1	0	1	-8,104299	272,617083	305,076644	0
15.01.2021	03:56:39	0	0	2,711761	2,51175	7,344	-0,922	81,19	0	1009,66	5,3	7,6	7,3	1	1	1	1	1	1	1	1	1	0	1	-10,007047	272,768251	303,869118	0
15.01.2021	03:56:40	0	0	2,711761	2,55	17,712	-0,917	81,202	0	1009,86	5,3	7,6	7,3	1	1	1	1	1	1	1	1	1	0	1	-11,768851	272,680733	301,704677	0
15.01.2021	03:56:41	0	0	2,485781	2,43225	9,3744	-0,922	81,187	0	1009,76	5,3	7,4	7,3	1	1	1	1	1	1	1	1	1	0	1	-11,768851	272,811463	302,306257	0
15.01.2021	03:56:42	0	0	4,519602	2,37225	15,0264	-0,918	81,193	0	1009,8	5,3	7,6	7,3	1	1	1	1	1	1	1	1	1	0	1	-10,711769	272,741815	303,042731	0
15.01.2021	03:56:43	0	0	2,824734	2,3385	18,45	-0,918	81,215	0	1009,74	5,3	7,6	7,4	1	1	1	1	1	1	1	1	1	0	1	-9,161381	272,625374	304,057658	0
15.01.2021	03:56:44	0	0	4,632592	2,364	27,972	-0,923	81,208	0	1009,84	5,3	7,6	7,3	1	1	1	1	1	1	1	1	1	0	1	-12,262156	272,772429	301,633237	0
15.01.2021	03:56:45	0	0	2,372791	2,54775	31,7808	-0,919	81,209	0	1009,88	5,3	7,6	7,3	1	1	1	1	1	1	1	1	1	0	1	-11,980268	272,650266	301,353182	0
15.01.2021	03:56:46	0	0	4,632592	2,51325	15,4152	-0,925	81,215	0	1009,74	5,3	7,6	7,3	1	1	1	1	1	1	1	1	1	0	1	-15,64482	272,776607	298,269807	0
15.01.2021	03:56:47	0	0	4,971562	2,45175	23,31	-0,924	81,208	0	1009,78	5,3	7,6	7,3	1	1	1	1	1	1	1	1	1	0	1	-12,544045	272,732084	301,165682	0
15.01.2021	03:56:48	0	0	2,711745	2,4465	22,0968	-0,924	81,208	0	1009,74	5,3	7,6	7,4	1	1	1	1	1	1	1	1	1	0	1	-7,047216	272,62952	306,190879	0
15.01.2021	03:56:49	0	0	2,937741	2,41875	30,3228	-0,919	81,224	0	1009,72	5,3	7,8	7,3	1	1	1	1	1	1	1	1	1	0	1	-13,742072	272,716803	299,897354	0
15.01.2021	03:56:50	0	0	4,067642	2,31975	6,4404	-0,922	81,228	0	1009,76	5,3	7,4	7,3	1	1	1	1	1	1	1	1	1	0	1	-6,694856	272,630902	306,549593	0
15.01.2021	03:56:51	0	0	4,971533	2,26875	2,6532	-0,916	81,211	0	1009,94	5,3	7,7	7,4	1	1	1	1	1	1	1	1	1	0	1	-10,711769	272,779394	303,215684	0
15.01.2021	03:56:52	0	0	3,050768	2,16	8,2692	-0,918	81,23	0	1009,86	5,3	7,7	7,1	1	1	1	1	1	1	1	1	1	0	1	-5,355884	272,776607	308,558743	0
15.01.2021	03:56:53	0	0	4,180632	2,0835	11,736	-0,916	81,233	0	1009,8	5,3	7,6	7,3	1	1	1	1	1	1	1	1	1	0	1	-9,795631	272,62952	303,442465	0
15.01.2021	03:56:54	0	0	3,276692	2,02125	14,3964	-0,923	81,223	0	1009,78	5,3	7,7	7,4	1	1	1	1	1	1	1	1	1	0	1	-11,205074	272,727916	302,485474	0
15.01.2021	03:56:55	0	0	2,824734	2,05575	13,1652	-0,917	81,23	0	1009,8	5,3	7,4	7,4	1	1	1	1	1	1	1	1	1	0	1	-7,610994	272,632285	305,639808	0
15.01.2021	03:56:56	0	0	3,728627	2,064	5,2272	-0,922	81,226	0	1009,74	5,4	7,8	7,5	1	1	1	1	1	1	1	1	1	0	1	-10,288936	272,686278	303,210091	0
15.01.2021	03:56:57	0	0	3,615682	2,07375	10,836	-0,917	81,23	0	1009,8	5,3	7,8	7,3	1	1	1	1	1	1	1	1	1	0	1	-11,346018	272,697373	302,204031	0
15.01.2021	03:56:58	0	0	4,293571	2,037	20,646	-0,917	81,232	0	1009,64	5,4	7,6	7,5	1	1	1	1	1	1	1	1	1	0	1	-7,188161	272,819838	306,925516	0
15.01.2021	03:56:59	0	0	4,745582	1,94625	17,6904	-0,919	81,231	0	1009,78	5,3	7,3	7,3	1	1	1	1	1	1	1	1	1	0	1	-9,372798	272,697373	304,177252	0
15.01.2021	03:57:00	0	0	3,502692	2,439	8,6256	-0,919	81,237	0	1009,82	5,3	7,7	7,3	1	1	1	1	1	1	1	1	1	0	1	-13,319239	272,683506	300,167038	0
15.01.2021	03:57:01	0	0	3,502692	2,439	8,6256	-0,919	81,237	0	1009,82	5,3	7,7	7,3	1	1	1	1	1	1	1	1	1	0	1	-13,319239	272,683506	300,167038	0
15.01.2021	03:57:02	0	0	4,180607	2,706	12,114	-0,925	81,237	0	1009,72	5,3	7,4	7,4	1	1	1	1	1	1	1	1	1	0	1	-10,500352	272,821234	303,619754	0
15.01.2021	03:57:03	0	0	4,293596	2,8725	7,1388	-0,918	81,248	0	1009,8	5,3	7,6	7,4	1	1	1	1	1	1	1	1	1	0	1	-9,654686	272,769644	304,227888	0
15.01.2021	03:57:04	0	0	3,163722	2,934	12,8556	-0,914	81,248	0	1009,8	5,3	7,6	7,3	1	1	1	1	1	1	1	1	1	0	1	-10,288936	272,780787	303,644931	0
15.01.2021	03:57:05	0	0	4,180607	2,709	8,694	-0,914	81,248	0	1009,76	5,2	7,6	7,4	1	1	1	1	1	1	1	1	1	0	1	-7,399577	272,801697	306,630561	0
15.01.2021	03:57:06	0	0	2,824751	2,74875	4,4676	-0,918	81,247	0	1009,78	5,4	7,7	7,3	1	1	1	1	1	1	1	1	1	0	1	-6,8358	272,694598	306,701491	0
15.01.2021	03:57:07	0	0	2,711745	2,832	23,2308	-0,918	81,245	0	1009,68	5,4	7,7	7,4	1	1	1	1	1	1	1	1	1	0	1	-6,694856	272,62261	306,511483	0
15.01.2021	03:57:08	0	0	3,163722	2,81175	22,8456	-0,92	81,236	0	1009,7	5,3	7,6	7,3	1	1	1	1	1	1	1	1	1	0	1	-9,090909	272,714026	304,535742	0
15.01.2021	03:57:09	0	0	4,63262	2,84475	27,0108	-0,92	81,243	0	1009,74	5,3	7,8	7,2	1	1	1	1	1	1	1	1	1	0	1	-8,033827	272,644731	305,274183	0
15.01.2021	03:57:10	0	0	3,050713	2,81625	23,202	-0,922	81,233	0	1009,74	5,2	7,6	7,4	1	1	1	1	1	1	1	1	1	0	1	-12,614517	272,666878	300,795306	0
15.01.2021	03:57:11	0	0	3,841662	2,652	16,11	-0,918	81,253	0	1009,9	5,4	7,7	7,3	1	1	1	1	1	1	1	1	1	0	1	-10,077519	272,817046	304,023299	0
15.01.2021	03:57:12	0	0	3,389702	2,62425	9,7704	-0,924	81,243	0	1009,76	5,2	7,6	7,3	1	1	1	1	1	1	1	1	1	0	1	-13,883016	272,659955	299,494975	0
15.01.2021	03:57:13	0	0	3,502671	2,5725	5,6952	-0,914	81,254	0	1009,86	5,3	7,7	7,4	1	1	1	1	1	1	1	1	1	0	1	-8,245243	272,757116	305,57967	0
15.01.2021	03:57:14	0	0	3,050732	2,52375	19,9296	-0,913	81,254	0	1009,74	5,3	7,7	7,3	1	1	1	1	1	1	1	1	1	0	1	-14,587738	272,810068	299,480945	0
15.01.2021	03:57:15	0	0	4,406612	2,48625	8,2692	-0,913	81,245	0	1009,76	5,3	7,6	7,3	1	1	1	1	1	1	1	1	1	0	1	-10,147992	272,67519	303,300048	0
15.01.2021	03:57:16	0	0	4,180632	2,41575	30,3228	-0,915	81,246	0	1009,76	5,4	7,7	7,3	1	1	1	1	1	1	1	1	1	0	1	-9,936575	272,644731	303,371434	0
15.01.2021	03:57:17	0	0	3,050713	2,286	23,2236	-0,917	81,254	0	1009,58	5,3	7,5	7,4	1	1	1	1	1	1	1	1	1	0	1	-11,698379	272,673805	301,74329	0
15.01.2021	03:57:18	0	0	4,519602	2,16525	11,7324	-0,922	81,255	0	1009,68	5,3	7,6	7,3	1	1	1	1	1	1	1	1	1	0	1	-10,923185	272,700147	302,639626	0
15.01.2021	03:57:19	0	0	2,711745	2,124	21,0276	-0,913	81,259	0	1009,84	5,4	7,6	7,4	1	1	1	1	1	1	1	1	1	0	1	-12,966878	272,821234	301,153228	0
15.01.2021	03:57:20	0	0	3,502671	2,04075	21,1032	-0,913	81,257	0	1009,84	5,3	7,6	7,4	1	1	1	1	1	1	1	1	1	0	1	-12,755462	272,702922	300,820113	0
15.01.2021	03:57:21	0	0	3,050732	2,03325	4,4784	-0,92	81,254	0	1009,8	5,4	7,6	7,3	1	1	1	1	1	1	1	1	1	0	1	-7,681466	272,657186	305,683796	0
15.01.2021	03:57:22	0	0	4,293596	2,0535	13,1616	-0,915	81,254	0	1009,84	5,3	7,7	7,4	1	1	1	1	1	1	1	1	1	0	1	-12,332629	272,747377	301,447468	0
15.01.2021	03:57:23	0	0	2,937724	2,17875	18,9432	-0,914	81,259	0	1009,62	5,4	7,7	7,4	1	1	1	1	1	1	1	1	1	0	1	-7,751938	272,65165	305,587873	0
15.01.2021	03:57:24	0	0	4,519575	2,3565	11,736	-0,913	81,256	0	1009,72	5,3	7,6	7,4	1	1	1	1	1	1	1	1	1	0	1	-10,852713	272,676576	302,601698	0
15.01.2021	03:57:25	0	0	3,61566	2,44125	10,458	-0,913	81,278	0	1009,94	5,3	7,7	7,4	1	1	1	1	1	1	1	1	1	0	1	-13,601128	272,666878	299,808695	0
15.01.2021	03:57:26	0	0	3,841639	2,42175	353,3076	-0,916	81,269	0	1009,74	5,3	7,7	7,4	1	1	1	1	1	1	1	1	1	0	1	-12,544045	272,783573	301,40265	0
15.01.2021	03:57:27	0	0	3,276692	2,35425	353,1996	-0,91	81,269	0	1009,66	5,3	7,6	7,4	1	1	1	1	1	1	1	1	1	0	1	-7,82241	272,647498	305,498318	0
15.01.2021	03:57:28	0	0	2,711745	2,25825	356,2632	-0,916	81,261	0	1009,76	5,3	7,6	7,4	1	1	1	1	1	1	1	1	1	0	1	-6,8358	272,789148	307,13656	0
15.01.2021	03:57:29	0	0	4,293596	2,22825	358,4232	-0,909	81,269	0	1009,82	5,3	7,6	7,4	1	1	1	1	1	1	1	1	1	0	1	-11,768851	272,840791	302,441335	0
15.01.2021	03:57:30	0	0	2,485766	2,37375	18,0828	-0,912	81,271	0	1009,56	5,3	7,7	7,4	1	1	1	1	1	1	1	1	1	0	1	-8,45666	272,67519	304,99138	0
15.01.2021	03:57:31	0	0	3,728649	2,41125	10,0656	-0,916	81,276	0	1009,76	5,3	7,6	7,4	1	1	1	1	1	1	1	1	1	0	1	-7,963354	272,687665	305,542048	0
15.01.2021	03:57:32	0	0	4,632565	2,32275	9,7488	-0,915	81,264	0	1009,76	5,3	7,6	7,4	1	1	1	1	1	1	1	1	1	0	1	-6,342495	272,653033	307,003678	0
15.01.2021	03:57:33	0	0	4,519602	2,19525	10,458	-0,917	81,27	0	1009,62	5,3	7,5	7,3	1	1	1	1	1	1	1	1	1	0	1	-7,892882	272,726526	305,791273	0
15.01.2021	03:57:34	0	0	3,389681	2,163	0,4932	-0,909	81,283	0	1009,8	5,3	7,6	7,4	1	1	1	1	1	1	1	1	1	0	1	-10,147992	272,65165	303,191819	0
15.01.2021	03:57:35	0	0	4,067618	2,295	18,8424	-0,915	81,279	0	1009,78	5,3	7,6	7,4	1	1	1	1	1	1	1	1	1	0	1	-9,020437	272,759899	304,817285	0
15.01.2021	03:57:36	0	0	3,276712	2,52675	7,5312	-0,909	81,286	0	1009,86	5,3	7,6	7,3	1	1	1	1	1	1	1	1	1	0	1	-9,020437	272,659955	304,357554	0
15.01.2021	03:57:37	0	0	5,084522	2,74425	6,0732	-0,91	81,283	0	1009,72	5,3	7,6	7,4	1	1	1	1	1	1	1	1	1	0	1	-10,641297	272,778	303,279743	0
15.01.2021	03:57:38	0	0	3,954628	2,58225	8,2656	-0,911	81,296	0	1009,74	5,3	7,7	7,4	1	1	1	1	1	1	1	1	1	0	1	-8,597604	272,814254	305,490358	0
15.01.2021	03:57:39	0	0	5,084522	2,466	8,2764	-0,909	81,266	0	1009,68	5,3	7,6	7,4	1	1	1	1	1	1	1	1	1	0	1	-6,342495	272,759899	307,495228	0
15.01.2021	03:57:40	0	0	2,598756	2,5485	13,1724	-0,914	81,279	0	1009,8	5,3	7,6	7,4	1	1	1	1	1	1	1	1	1	0	1	-10,218464	272,832407	303,953103	0
15.01.2021	03:57:41	0	0	5,084522	2,7105	19,5264	-0,918	81,282	0	1009,7	5,3	7,6	7,4	1	1	1	1	1	1	1	1	1	0	1	-11,627907	272,765467	302,235442	0
15.01.2021	03:57:42	0	0	3,163722	2,89725	25,4376	-0,915	81,27	0	1009,7	5,3	7,7	7,3	1	1	1	1	1	1	1	1	1	0	1	-8,104299	272,832407	306,067268	0
15.01.2021	03:57:43	0	0	3,050713	2,83125	10,458	-0,907	81,278	0	1009,74	5,3	7,6	7,4	1	1	1	1	1	1	1	1	1	0	1	-8,597604	272,673805	304,844065	0
15.01.2021	03:57:44	0	0	4,406586	2,769	10,8252	-0,911	81,278	0	1009,86	5,3	7,6	7,4	1	1	1	1	1	1	1	1	1	0	1	-5,778717	272,679347	307,688438	0
15.01.2021	03:57:45	0	0	4,745582	2,64825	21,4128	-0,912	81,285	0	1009,74	5,3	7,6	7,3	1	1	1	1	1	1	1	1	1	0	1	-11,839323	272,789148	302,133037	0
15.01.2021	03:57:46	0	0	4,519602	2,508	32,1516	-0,909	81,293	0	1009,86	5,3	7,6	7,3	1	1	1	1	1	1	1	1	1	0	1	-7,892882	272,650266	305,440567	0
15.01.2021	03:57:47	0	0	3,502671	2,469	11,7036	-0,912	81,304	0	1009,76	5,3	7,6	7,4	1	1	1	1	1	1	1	1	1	0	1	-9,44327	272,716803	304,196156	0
15.01.2021	03:57:48	0	0	4,519602	2,4	22,0896	-0,908	81,312	0	1009,8	5,3	7,6	7,3	1	1	1	1	1	1	1	1	1	0	1	-9,020437	272,668263	304,395754	0
15.01.2021	03:57:49	0	0	4,067618	2,361	16,956	-0,913	81,297	0	1009,76	5,3	7,6	7,4	1	1	1	1	1	1	1	1	1	0	1	-5,708245	272,805882	308,341163	0
15.01.2021	03:57:50	0	0	4,293596	2,43675	8,2728	-0,915	81,291	0	1009,68	5,3	7,6	7,4	1	1	1	1	1	1	1	1	1	0	1	-7,399577	272,784967	306,553534	0
15.01.2021	03:57:51	0	0	3,163703	2,604	11,7144	-0,905	81,304	0	1009,68	5,3	7,6	7,4	1	1	1	1	1	1	1	1	1	0	1	-13,812544	272,646115	299,501825	0
15.01.2021	03:57:52	0	0	3,050732	2,74425	7,1352	-0,911	81,306	0	1009,86	5,3	7,6	7,3	1	1	1	1	1	1	1	1	1	0	1	-10,218464	272,757116	303,606449	0
15.01.2021	03:57:53	0	0	2,937741	2,6895	12,2004	-0,908	81,313	0	1009,7	5,3	7,6	7,3	1	1	1	1	1	1	1	1	1	0	1	-11,346018	272,65857	302,025608	0
15.01.2021	03:57:54	0	0	2,824734	2,52525	2,6316	-0,91	81,299	0	1009,68	5,3	7,6	7,4	1	1	1	1	1	1	1	1	1	0	1	-14,094433	272,682119	299,38547	0
15.01.2021	03:57:55	0	0	3,050732	2,55075	18,45	-0,911	81,301	0	1009,88	5,3	7,6	7,3	1	1	1	1	1	1	1	1	1	0	1	-10,288936	272,844985	303,940568	0
15.01.2021	03:57:56	0	0	4,632592	2,68125	17,244	-0,904	81,313	0	1009,72	5,3	7,6	7,3	1	1	1	1	1	1	1	1	1	0	1	-11,134602	272,779394	302,792851	0
15.01.2021	03:57:57	0	0	3,389681	2,64675	16,8588	-0,901	81,313	0	1009,82	5,3	7,6	7,4	1	1	1	1	1	1	1	1	1	0	1	-7,470049	272,646115	305,844319	0
15.01.2021	03:57:58	0	0	3,163722	2,5755	14,652	-0,904	81,309	0	1009,84	5,3	7,6	7,3	1	1	1	1	1	1	1	1	1	0	1	-8,45666	272,734864	305,265857	0
15.01.2021	03:57:59	0	0	2,711761	2,628	11,2104	-0,909	81,307	0	1009,7	5,3	7,6	7,3	1	1	1	1	1	1	1	1	1	0	1	-6,906272	272,798908	307,111023	0
15.01.2021	03:58:00	0	0	4,293622	2,92125	8,2584	-0,906	81,316	0	1009,84	5,3	7,6	7,3	1	1	1	1	1	1	1	1	1	0	1	-7,540521	272,662724	305,8502	0
15.01.2021	03:58:01	0	0	4,293622	2,92125	8,2584	-0,906	81,316	0	1009,84	5,3	7,6	7,3	1	1	1	1	1	1	1	1	1	0	1	-7,540521	272,796119	306,463932	0
15.01.2021	03:58:02	0	0	2,485781	2,79075	358,6824	-0,911	81,305	0	1009,7	5,3	7,6	7,3	1	1	1	1	1	1	1	1	1	0	1	-5,496829	272,722359	308,168153	0
15.01.2021	03:58:03	0	0	4,406586	2,5695	352,1052	-0,905	81,301	0	1009,8	5,3	7,6	7,4	1	1	1	1	1	1	1	1	1	0	1	-8,879493	272,832407	305,292074	0
15.01.2021	03:58:04	0	0	4,067642	2,35725	358,6644	-0,907	81,292	0	1009,74	5,3	7,6	7,3	1	1	1	1	1	1	1	1	1	0	1	-9,161381	272,789148	304,810979	0
15.01.2021	03:58:05	0	0	5,084553	2,22375	3,3912	-0,905	81,307	0	1009,54	5,3	7,6	7,3	1	1	1	1	1	1	1	1	1	0	1	-5,003524	272,829613	309,155175	0
15.01.2021	03:58:06	0	0	3,163722	2,16975	11,1924	-0,91	81,313	0	1009,94	5,3	7,6	7,3	1	1	1	1	1	1	1	1	1	0	1	-10,359408	272,67519	303,088632	0
15.01.2021	03:58:07	0	0	2,485781	2,08275	14,778	-0,909	81,324	0	1009,68	5,3	7,6	7,3	1	1	1	1	1	1	1	1	1	0	1	-5,990134	272,814254	308,097828	0
15.01.2021	03:58:08	0	0	3,276712	1,9935	18,0792	-0,908	81,304	0	1009,74	5,3	7,6	7,3	1	1	1	1	1	1	1	1	1	0	1	-9,161381	272,690438	304,356775	0
15.01.2021	03:58:09	0	0	2,937741	1,98	25,7832	-0,903	81,31	0	1009,78	5,3	7,6	7,3	1	1	1	1	1	1	1	1	1	0	1	-6,342495	272,676576	307,111916	0
15.01.2021	03:58:10	0	0	3,841662	1,9395	20,6244	-0,905	81,33	0	1009,82	5,3	7,6	7,3	1	1	1	1	1	1	1	1	1	0	1	-5,567301	272,819838	308,546376	0
15.01.2021	03:58:11	0	0	5,310533	1,914	15,0372	-0,913	81,316	0	1009,84	5,3	7,6	7,3	1	1	1	1	1	1	1	1	1	0	1	-7,540521	272,775214	306,367694	0
15.01.2021	03:58:12	0	0	2,598771	2,013	6,0732	-0,906	81,322	0	1009,88	5,3	7,6	7,3	1	1	1	1	1	1	1	1	1	0	1	-7,540521	272,832407	306,631045	0
15.01.2021	03:58:13	0	0	3,954652	2,30925	16,1064	-0,904	81,33	0	1009,86	5,3	7,6	7,3	1	1	1	1	1	1	1	1	1	0	1	-8,879493	272,686278	304,619534	0
15.01.2021	03:58:14	0	0	2,824751	2,397	27,9576	-0,91	81,326	0	1009,78	5,3	7,6	7,3	1	1	1	1	1	1	1	1	1	0	1	-10,570825	272,843587	303,652239	0
15.01.2021	03:58:15	0	0	3,163722	2,48625	13,9176	-0,902	81,338	0	1009,74	5,3	7,6	7,3	1	1	1	1	1	1	1	1	1	0	1	-12,05074	272,765467	301,812609	0
15.01.2021	03:58:16	0	0	2,711761	2,49375	15,4116	-0,905	81,327	0	1009,76	5,3	7,6	7,3	1	1	1	1	1	1	1	1	1	0	1	-9,302326	272,82682	304,843507	0
15.01.2021	03:58:17	0	0	3,389702	2,48025	22,8276	-0,904	81,326	0	1009,82	5,3	7,5	7,3	1	1	1	1	1	1	1	1	1	0	1	-8,315715	272,769644	305,566859	0
15.01.2021	03:58:18	0	0	3,728672	2,451	18,0972	-0,9	81,334	0	1009,78	5,3	7,6	7,3	1	1	1	1	1	1	1	1	1	0	1	-8,597604	272,69876	304,958826	0
15.01.2021	03:58:19	0	0	4,293622	2,433	6,4368	-0,901	81,339	0	1009,72	5,3	7,6	7,3	1	1	1	1	1	1	1	1	1	0	1	-10,147992	272,800302	303,875725	0
15.01.2021	03:58:20	0	0	4,971562	2,43675	8,6256	-0,9	81,331	0	1009,78	5,3	7,6	7,3	1	1	1	1	1	1	1	1	1	0	1	-7,470049	272,708474	306,131059	0
15.01.2021	03:58:21	0	0	4,293622	2,412	7,5204	-0,904	81,334	0	1009,72	5,3	7,6	7,3	1	1	1	1	1	1	1	1	1	0	1	-6,624383	272,655802	306,734515	0
15.01.2021	03:58:22	0	0	3,050732	2,40975	4,9356	-0,902	81,338	0	1009,78	5,3	7,6	7,3	1	1	1	1	1	1	1	1	1	0	1	-4,22833	272,694598	309,308961	0
15.01.2021	03:58:23	0	0	4,519602	2,32425	6,066	-0,902	81,326	0	1009,64	5,3	7,5	7,3	1	1	1	1	1	1	1	1	1	0	1	-6,765328	272,798908	307,251967	0
15.01.2021	03:58:24	0	0	4,293622	2,36625	13,1688	-0,901	81,338	0	1009,86	5,3	7,6	7,3	1	1	1	1	1	1	1	1	1	0	1	-4,933051	272,800302	309,090665	0
15.01.2021	03:58:25	0	0	3,615682	2,451	358,7184	-0,899	81,349	0	1009,76	5,3	7,6	7,3	1	1	1	1	1	1	1	1	1	0	1	-7,751938	272,666878	305,657885	0
15.01.2021	03:58:26	0	0	4,858572	2,49675	3,4164	-0,902	81,333	0	1009,86	5,3	7,6	7,3	1	1	1	1	1	1	1	1	1	0	1	-7,963354	272,801697	306,066784	0
15.01.2021	03:58:27	0	0	2,937741	2,52525	0,1368	-0,896	81,345	0	1009,7	5,3	7,6	7,3	1	1	1	1	1	1	1	1	1	0	1	-9,090909	272,769644	304,791665	0
15.01.2021	03:58:28	0	0	4,745582	2,43525	10,4292	-0,897	81,358	0	1009,86	5,3	7,6	7,3	1	1	1	1	1	1	1	1	1	0	1	-10,782241	272,843587	303,440823	0
15.01.2021	03:58:29	0	0	4,632592	2,463	7,4844	-0,901	81,352	0	1009,78	5,3	7,6	7,3	1	1	1	1	1	1	1	1	1	0	1	-13,319239	272,748768	300,467258	0
15.01.2021	03:58:30	0	0	3,728672	2,6745	6,444	-0,901	81,359	0	1009,78	5,3	7,6	7,3	1	1	1	1	1	1	1	1	1	0	1	-8,597604	272,669649	304,824956	0
15.01.2021	03:58:31	0	0	2,937741	2,82225	10,4472	-0,908	81,358	0	1009,78	5,3	7,6	7,3	1	1	1	1	1	1	1	1	1	0	1	-9,090909	272,780787	304,842958	0
15.01.2021	03:58:32	0	0	3,728672	2,886	15,408	-0,9	81,358	0	1009,66	5,3	7,6	7,3	1	1	1	1	1	1	1	1	1	0	1	-10,641297	272,83101	303,523836	0
15.01.2021	03:58:33	0	0	2,485781	2,712	19,2528	-0,901	81,355	0	1009,74	5,3	7,6	7,3	1	1	1	1	1	1	1	1	1	0	1	-8,174771	272,684892	305,31788	0
15.01.2021	03:58:34	0	0	3,728672	2,649	13,176	-0,906	81,352	0	1009,74	5,3	7,7	7,3	1	1	1	1	1	1	1	1	1	0	1	-9,936575	272,730695	303,766758	0
15.01.2021	03:58:35	0	0	4,293622	2,59125	2,2932	-0,901	81,352	0	1009,72	5,3	7,6	7,3	1	1	1	1	1	1	1	1	1	0	1	-4,933051	272,669649	308,489508	0
15.01.2021	03:58:36	0	0	4,632565	2,50575	15,408	-0,9	81,359	0	1009,74	5,3	7,5	7,4	1	1	1	1	1	1	1	1	1	0	1	-6,976744	272,832407	307,194823	0
15.01.2021	03:58:37	0	0	2,824751	2,44125	7,9668	-0,898	81,36	0	1009,8	5,3	7,6	7,3	1	1	1	1	1	1	1	1	1	0	1	-13,460183	272,673805	299,981486	0
15.01.2021	03:58:38	0	0	4,632592	2,39625	16,488	-0,904	81,372	0	1009,82	5,3	7,6	7,3	1	1	1	1	1	1	1	1	1	0	1	-10,359408	272,707086	303,235316	0
15.01.2021	03:58:39	0	0	3,276712	2,2365	18,0828	-0,899	81,369	0	1009,86	5,3	7,6	7,3	1	1	1	1	1	1	1	1	1	0	1	-7,047216	272,680733	306,426312	0
15.01.2021	03:58:40	0	0	3,954652	2,12625	14,6592	-0,9	81,374	0	1009,88	5,3	7,6	7,3	1	1	1	1	1	1	1	1	1	0	1	-7,047216	272,765467	306,816132	0
15.01.2021	03:58:41	0	0	4,067642	2,004	18,4608	-0,896	81,349	0	1009,88	5,3	7,5	7,3	1	1	1	1	1	1	1	1	1	0	1	-7,610994	272,833804	306,567008	0
15.01.2021	03:58:42	0	0	3,954652	2,05575	11,7252	-0,903	81,365	0	1009,82	5,3	7,6	7,3	1	1	1	1	1	1	1	1	1	0	1	-9,866103	272,796119	304,13835	0
15.01.2021	03:58:43	0	0	4,406612	2,07975	5,2344	-0,896	81,355	0	1009,76	5,3	7,6	7,3	1	1	1	1	1	1	1	1	1	0	1	-6,8358	272,817046	307,265018	0
15.01.2021	03:58:44	0	0	5,197511	2,1435	16,4916	-0,898	81,385	0	1009,84	5,3	7,6	7,4	1	1	1	1	1	1	1	1	1	0	1	-4,510218	272,833804	309,667784	0
15.01.2021	03:58:45	0	0	4,858543	2,1675	10,8324	-0,9	81,357	0	1009,8	5,3	7,5	7,4	1	1	1	1	1	1	1	1	1	0	1	-6,976744	272,734864	306,745773	0
15.01.2021	03:58:46	0	0	2,598771	2,07225	15,4008	-0,892	81,372	0	1009,72	5,4	7,5	7,3	1	1	1	1	1	1	1	1	1	0	1	-6,976744	272,854773	307,297853	0
15.01.2021	03:58:47	0	0	2,937741	1,97475	15,4044	-0,895	81,383	0	1009,98	5,3	7,5	7,3	1	1	1	1	1	1	1	1	1	0	1	-10,077519	272,796119	303,926934	0
15.01.2021	03:58:48	0	0	5,084522	1,9785	9,3708	-0,896	81,378	0	1009,88	5,4	7,5	7,4	1	1	1	1	1	1	1	1	1	0	1	-5,708245	272,837996	308,489066	0
15.01.2021	03:58:49	0	0	3,389681	2,0565	16,8552	-0,9	81,358	0	1009,78	5,3	7,5	7,4	1	1	1	1	1	1	1	1	1	0	1	-6,906272	272,709862	306,701221	0
15.01.2021	03:58:50	0	0	4,293596	2,085	3,4056	-0,902	81,366	0	1009,7	5,3	7,6	7,4	1	1	1	1	1	1	1	1	1	0	1	-10,570825	272,839394	303,632924	0
15.01.2021	03:58:51	0	0	2,937724	2,1675	8,2728	-0,894	81,376	0	1009,74	5,3	7,5	7,4	1	1	1	1	1	1	1	1	1	0	1	-11,698379	272,828217	302,453886	0
15.01.2021	03:58:52	0	0	2,824751	2,235	7,1244	-0,894	81,382	0	1009,84	5,3	7,7	7,3	1	1	1	1	1	1	1	1	1	0	1	-11,486963	272,828217	302,665302	0
15.01.2021	03:58:53	0	0	2,937741	2,3685	359,8236	-0,898	81,373	0	1009,68	5,3	7,5	7,3	1	1	1	1	1	1	1	1	1	0	1	-3,946441	272,669649	309,476118	0
15.01.2021	03:58:54	0	0	2,259788	2,499	21,3984	-0,893	81,375	0	1009,92	5,3	7,6	7,4	1	1	1	1	1	1	1	1	1	0	1	-7,470049	272,789148	306,502311	0
15.01.2021	03:58:55	0	0	3,954628	2,5815	15,7896	-0,902	81,362	0	1009,68	5,3	7,6	7,4	1	1	1	1	1	1	1	1	1	0	1	-5,637773	272,843587	308,585291	0
15.01.2021	03:58:56	0	0	3,954628	2,60925	10,8072	-0,897	81,375	0	1009,72	5,3	7,5	7,4	1	1	1	1	1	1	1	1	1	0	1	-12,05074	272,801697	301,979398	0
15.01.2021	03:58:57	0	0	2,824734	2,6205	11,7108	-0,898	81,371	0	1009,84	5,4	7,5	7,4	1	1	1	1	1	1	1	1	1	0	1	-3,100775	272,833804	311,077227	0
15.01.2021	03:58:58	0	0	3,163703	2,529	0,5076	-0,904	81,378	0	1009,86	5,3	7,5	7,4	1	1	1	1	1	1	1	1	1	0	1	-5,919662	272,691825	307,604872	0
15.01.2021	03:58:59	0	0	4,745554	2,517	6,0804	-0,899	81,383	0	1009,78	5,3	7,5	7,4	1	1	1	1	1	1	1	1	1	0	1	-7,117689	272,67519	306,330351	0
15.01.2021	03:59:00	0	0	2,937724	2,70525	8,6256	-0,903	81,399	0	1009,74	5,4	7,5	7,4	1	1	1	1	1	1	1	1	1	0	1	-6,272023	272,702922	307,303552	0
15.01.2021	03:59:01	0	0	2,937724	2,70525	8,6256	-0,903	81,399	0	1009,74	5,4	7,5	7,4	1	1	1	1	1	1	1	1	1	0	1	-6,272023	272,702922	307,303552	0
15.01.2021	03:59:02	0	0	3,502671	2,622	23,2308	-0,897	81,395	0	1009,84	5,4	7,6	7,4	1	1	1	1	1	1	1	1	1	0	1	-6,906272	272,722359	306,75871	0
15.01.2021	03:59:03	0	0	4,406586	2,56875	5,2272	-0,899	81,393	0	1009,86	5,4	7,6	7,4	1	1	1	1	1	1	1	1	1	0	1	-10,147992	272,842189	304,068633	0
15.01.2021	03:59:04	0	0	2,824734	2,58525	15,0408	-0,897	81,4	0	1009,92	5,3	7,5	7,4	1	1	1	1	1	1	1	1	1	0	1	-10,359408	272,837996	303,837903	0
15.01.2021	03:59:05	0	0	3,389681	2,571	2,3112	-0,897	81,39	0	1009,64	5,3	7,6	7,4	1	1	1	1	1	1	1	1	1	0	1	-5,990134	272,829613	308,168565	0
15.01.2021	03:59:06	0	0	2,824734	2,6175	6,444	-0,898	81,398	0	1009,78	5,3	7,5	7,4	1	1	1	1	1	1	1	1	1	0	1	-7,681466	272,682119	305,798437	0
15.01.2021	03:59:07	0	0	3,61566	2,493	5,2308	-0,891	81,401	0	1009,78	5,3	7,5	7,4	1	1	1	1	1	1	1	1	1	0	1	-7,610994	272,736254	306,117919	0
15.01.2021	03:59:08	0	0	4,632565	2,45775	0,882	-0,896	81,394	0	1009,78	5,4	7,5	7,4	1	1	1	1	1	1	1	1	1	0	1	-7,258633	272,860368	307,041744	0
15.01.2021	03:59:09	0	0	4,293596	2,5035	353,9592	-0,893	81,398	0	1009,72	5,4	7,6	7,4	1	1	1	1	1	1	1	1	1	0	1	-11,768851	272,764075	302,08809	0
15.01.2021	03:59:10	0	0	4,632565	2,52375	0,4896	-0,894	81,382	0	1009,84	5,4	7,6	7,4	1	1	1	1	1	1	1	1	1	0	1	-4,298802	272,853374	309,969351	0
15.01.2021	03:59:11	0	0	5,084522	2,5095	6,0624	-0,898	81,376	0	1009,72	5,4	7,5	7,4	1	1	1	1	1	1	1	1	1	0	1	-6,765328	272,734864	306,957189	0
15.01.2021	03:59:12	0	0	3,728672	2,4225	5,6664	-0,894	81,404	0	1009,88	5,4	7,6	7,3	1	1	1	1	1	1	1	1	1	0	1	-9,302326	272,680733	304,171203	0
15.01.2021	03:59:13	0	0	3,728672	2,418	12,4632	-0,895	81,387	0	1009,78	5,3	7,5	7,3	1	1	1	1	1	1	1	1	1	0	1	-6,20155	272,700147	307,361261	0
15.01.2021	03:59:14	0	0	3,163722	2,4855	10,818	-0,889	81,413	0	1009,7	5,3	7,5	7,3	1	1	1	1	1	1	1	1	1	0	1	-6,553911	272,686278	306,945116	0
15.01.2021	03:59:15	0	0	5,310501	2,52	9	-0,893	81,412	0	1009,88	5,3	7,5	7,4	1	1	1	1	1	1	1	1	1	0	1	-11,557435	272,833804	302,620567	0
15.01.2021	03:59:16	0	0	4,971533	2,55375	10,8288	-0,891	81,401	0	1009,84	5,4	7,6	7,4	1	1	1	1	1	1	1	1	1	0	1	-7,470049	272,739034	306,271656	0
15.01.2021	03:59:17	0	0	4,745554	2,84175	7,1316	-0,888	81,4	0	1009,78	5,4	7,6	7,4	1	1	1	1	1	1	1	1	1	0	1	-7,258633	272,850577	306,996635	0
15.01.2021	03:59:18	0	0	5,084522	3,15975	10,8324	-0,896	81,406	0	1009,72	5,4	7,6	7,4	1	1	1	1	1	1	1	1	1	0	1	-9,725159	272,790542	304,253619	0
15.01.2021	03:59:19	0	0	5,310501	3,17175	21,7764	-0,893	81,4	0	1009,8	5,4	7,6	7,4	1	1	1	1	1	1	1	1	1	0	1	-7,82241	272,849179	306,426416	0
15.01.2021	03:59:20	0	0	3,276692	3,09975	10,116	-0,895	81,402	0	1009,8	5,4	7,6	7,4	1	1	1	1	1	1	1	1	1	0	1	-5,21494	272,701535	308,354252	0
15.01.2021	03:59:21	0	0	4,745554	2,931	10,4364	-0,893	81,401	0	1009,72	5,4	7,5	7,4	1	1	1	1	1	1	1	1	1	0	1	-9,584214	272,807277	304,471618	0
15.01.2021	03:59:22	0	0	3,954628	2,85225	356,5476	-0,893	81,413	0	1009,88	5,4	7,6	7,4	1	1	1	1	1	1	1	1	1	0	1	-6,483439	272,684892	307,009212	0
15.01.2021	03:59:23	0	0	4,180632	2,87175	356,5188	-0,89	81,406	0	1009,84	5,3	7,6	7,3	1	1	1	1	1	1	1	1	1	0	1	-8,45666	272,803092	305,579901	0
15.01.2021	03:59:24	0	0	4,519575	2,86275	19,9044	-0,894	81,416	0	1009,88	5,4	7,6	7,4	1	1	1	1	1	1	1	1	1	0	1	-9,020437	272,850577	305,234831	0
15.01.2021	03:59:25	0	0	3,163722	2,943	17,2296	-0,893	81,406	0	1009,72	5,4	7,6	7,3	1	1	1	1	1	1	1	1	1	0	1	-8,45666	272,693212	305,074252	0
15.01.2021	03:59:26	0	0	2,598756	3,09975	9,7416	-0,894	81,429	0	1009,74	5,4	7,6	7,4	1	1	1	1	1	1	1	1	1	0	1	-10,500352	272,726526	303,183803	0
15.01.2021	03:59:27	0	0	3,502671	3,10725	18,8388	-0,897	81,401	0	1009,66	5,4	7,6	7,4	1	1	1	1	1	1	1	1	1	0	1	-4,439746	272,71125	309,174132	0
15.01.2021	03:59:28	0	0	3,050713	3,198	13,9356	-0,889	81,422	0	1009,68	5,3	7,6	7,4	1	1	1	1	1	1	1	1	1	0	1	-8,668076	272,737644	305,067232	0
15.01.2021	03:59:29	0	0	4,971533	3,26475	9,0036	-0,891	81,414	0	1009,8	5,4	7,6	7,4	1	1	1	1	1	1	1	1	1	0	1	-9,372798	272,863167	304,940473	0
15.01.2021	03:59:30	0	0	3,050713	3,49125	6,066	-0,887	81,417	0	1009,84	5,4	7,6	7,4	1	1	1	1	1	1	1	1	1	0	1	-9,44327	272,72097	304,215322	0
15.01.2021	03:59:31	0	0	2,824734	3,38625	16,1172	-0,89	81,42	0	1009,7	5,4	7,6	7,4	1	1	1	1	1	1	1	1	1	0	1	-9,020437	272,754333	304,791668	0
15.01.2021	03:59:32	0	0	2,937724	3,18375	15,4188	-0,889	81,423	0	1009,92	5,4	7,6	7,4	1	1	1	1	1	1	1	1	1	0	1	-7,681466	272,867365	306,65115	0
15.01.2021	03:59:33	0	0	5,084522	3,05175	8,2728	-0,89	81,414	0	1009,76	5,4	7,6	7,4	1	1	1	1	1	1	1	1	1	0	1	-3,171247	272,821234	310,948859	0
15.01.2021	03:59:34	0	0	3,954628	3,087	5,6916	-0,891	81,417	0	1009,74	5,4	7,6	7,4	1	1	1	1	1	1	1	1	1	0	1	-12,332629	272,853374	301,935525	0
15.01.2021	03:59:35	0	0	3,954628	3,06225	12,4776	-0,887	81,427	0	1009,78	5,4	7,6	7,4	1	1	1	1	1	1	1	1	1	0	1	-6,131078	272,761291	307,71305	0
15.01.2021	03:59:36	0	0	4,745554	2,99925	8,2584	-0,887	81,427	0	1009,94	5,4	7,6	7,4	1	1	1	1	1	1	1	1	1	0	1	-8,033827	272,860368	306,266551	0
15.01.2021	03:59:37	0	0	5,197511	2,97825	13,1616	-0,896	81,421	0	1009,82	5,4	7,6	7,4	1	1	1	1	1	1	1	1	1	0	1	-3,59408	272,839394	310,609668	0
15.01.2021	03:59:38	0	0	4,745554	2,92125	4,104	-0,901	81,421	0	1009,72	5,4	7,6	7,4	1	1	1	1	1	1	1	1	1	0	1	-8,527132	272,743205	305,233767	0
15.01.2021	03:59:39	0	0	4,971533	2,9625	9,3744	-0,882	81,435	0	1009,8	5,4	7,6	7,4	1	1	1	1	1	1	1	1	1	0	1	-6,483439	272,860368	307,816938	0
15.01.2021	03:59:40	0	0	2,937724	3,13875	12,474	-0,888	81,432	0	1009,84	5,4	7,6	7,4	1	1	1	1	1	1	1	1	1	0	1	-7,751938	272,786361	306,207589	0
15.01.2021	03:59:41	0	0	3,502671	3,174	5,2344	-0,892	81,437	0	1009,86	5,4	7,6	7,4	1	1	1	1	1	1	1	1	1	0	1	-5,003524	272,690438	308,514633	0
15.01.2021	03:59:42	0	0	3,954628	3,027	11,2068	-0,891	81,451	0	1009,72	5,4	7,6	7,4	1	1	1	1	1	1	1	1	1	0	1	-5,778717	272,818442	308,32853	0
15.01.2021	03:59:43	0	0	4,858543	2,9625	17,7012	-0,893	81,455	0	1009,8	5,4	7,6	7,4	1	1	1	1	1	1	1	1	1	0	1	-6,624383	272,85757	307,663103	0
15.01.2021	03:59:44	0	0	3,050713	3,04275	29,1132	-0,883	81,454	0	1009,74	5,4	7,6	7,4	1	1	1	1	1	1	1	1	1	0	1	-6,131078	272,82682	308,014754	0
15.01.2021	03:59:45	0	0	4,632565	3,1305	12,8808	-0,887	81,455	0	1009,98	5,3	7,6	7,4	1	1	1	1	1	1	1	1	1	0	1	-8,879493	272,716803	304,759933	0
15.01.2021	03:59:46	0	0	2,711745	3,1125	18,468	-0,889	81,465	0	1009,78	5,4	7,6	7,4	1	1	1	1	1	1	1	1	1	0	1	-6,624383	272,863167	307,688888	0
15.01.2021	03:59:47	0	0	4,519575	2,95125	14,6592	-0,889	81,449	0	1009,64	5,4	7,6	7,4	1	1	1	1	1	1	1	1	1	0	1	-2,536998	272,804487	311,505986	0
15.01.2021	03:59:48	0	0	4,858543	2,721	15,4116	-0,888	81,45	0	1009,78	5,4	7,6	7,4	1	1	1	1	1	1	1	1	1	0	1	-4,016913	272,679347	309,450242	0
15.01.2021	03:59:49	0	0	3,954628	2,50875	353,5848	-0,887	81,463	0	1009,86	5,4	7,6	7,4	1	1	1	1	1	1	1	1	1	0	1	-8,386187	272,803092	305,650373	0
15.01.2021	03:59:50	0	0	2,937724	2,481	4,0932	-0,888	81,473	0	1010,02	5,3	7,6	7,4	1	1	1	1	1	1	1	1	1	0	1	-8,386187	272,885568	306,030314	0
15.01.2021	03:59:51	0	0	4,067618	2,61	360	-0,89	81,465	0	1009,7	5,3	7,6	7,4	1	1	1	1	1	1	1	1	1	0	1	-10,500352	272,804487	303,542632	0
15.01.2021	03:59:52	0	0	3,163703	2,55075	14,652	-0,886	81,457	0	1009,78	5,4	7,6	7,4	1	1	1	1	1	1	1	1	1	0	1	-5,708245	272,691825	307,816289	0
15.01.2021	03:59:53	0	0	3,502671	2,69475	10,8144	-0,885	81,461	0	1009,88	5,3	7,6	7,4	1	1	1	1	1	1	1	1	1	0	1	-7,610994	272,854773	306,663603	0
15.01.2021	03:59:54	0	0	4,067618	3,033	17,6868	-0,886	81,469	0	1009,9	5,3	7,6	7,4	1	1	1	1	1	1	1	1	1	0	1	-5,285412	272,79333	308,706202	0
15.01.2021	03:59:55	0	0	3,050713	2,9805	13,5288	-0,892	81,47	0	1009,68	5,4	7,6	7,4	1	1	1	1	1	1	1	1	1	0	1	-5,21494	272,693212	308,315972	0
15.01.2021	03:59:56	0	0	2,937724	2,9835	13,1652	-0,881	81,474	0	1009,82	5,3	7,6	7,4	1	1	1	1	1	1	1	1	1	0	1	-8,879493	272,83101	305,28564	0
15.01.2021	03:59:57	0	0	4,519575	3,00075	4,8564	-0,889	81,47	0	1009,74	5,4	7,6	7,4	1	1	1	1	1	1	1	1	1	0	1	-3,382664	272,702922	310,192911	0
15.01.2021	03:59:58	0	0	3,389681	2,89125	13,9212	-0,883	81,478	0	1009,82	5,3	7,6	7,4	1	1	1	1	1	1	1	1	1	0	1	-10,218464	272,732084	303,491264	0
15.01.2021	03:59:59	0	0	4,406586	2,80125	11,7216	-0,884	81,468	0	1009,84	5,3	7,6	7,4	1	1	1	1	1	1	1	1	1	0	1	-11,06413	272,707086	302,530594	0
15.01.2021	04:00:00	0	0	4,971533	2,5965	7,128	-0,885	81,461	0	1009,72	5,3	7,6	7,4	1	1	1	1	1	1	1	1	1	0	1	-6,624383	272,851976	307,637327	0
15.01.2021	04:00:01	0	0	4,971533	2,5965	7,128	-0,885	81,461	0	1009,72	5,3	7,6	7,4	1	1	1	1	1	1	1	1	1	0	1	-8,245243	272,850577	306,010025	0
15.01.2021	04:00:02	0	0	4,293596	2,772	16,47	-0,883	81,47	0	1009,76	5,4	7,6	7,4	1	1	1	1	1	1	1	1	1	0	1	-5,919662	272,737644	307,815647	0
15.01.2021	04:00:03	0	0	4,745554	3,045	6,0624	-0,881	81,454	0	1009,82	5,3	7,6	7,4	1	1	1	1	1	1	1	1	1	0	1	-10,42988	272,850577	303,825388	0
15.01.2021	04:00:04	0	0	3,728649	3,2085	8,9964	-0,888	81,46	0	1009,7	5,4	7,6	7,4	1	1	1	1	1	1	1	1	1	0	1	-9,302326	272,732084	304,407402	0
15.01.2021	04:00:05	0	0	3,728672	3,252	4,0968	-0,886	81,467	0	1009,74	5,3	7,6	7,3	1	1	1	1	1	1	1	1	1	0	1	-9,090909	272,82263	305,035628	0
15.01.2021	04:00:06	0	0	4,632565	3,17025	11,718	-0,884	81,475	0	1009,62	5,3	7,6	7,4	1	1	1	1	1	1	1	1	1	0	1	-7,963354	272,882766	306,440235	0
15.01.2021	04:00:07	0	0	4,406612	3,05775	13,1796	-0,888	81,48	0	1009,98	5,3	7,6	7,3	1	1	1	1	1	1	1	1	1	0	1	-9,44327	272,808672	304,618987	0
15.01.2021	04:00:08	0	0	2,937724	2,853	18,4572	-0,882	81,486	0	1009,86	5,3	7,6	7,4	1	1	1	1	1	1	1	1	1	0	1	-9,725159	272,732084	303,984569	0
15.01.2021	04:00:09	0	0	2,711745	2,607	14,2956	-0,886	81,492	0	1009,74	5,3	7,6	7,4	1	1	1	1	1	1	1	1	1	0	1	-8,245243	272,886969	306,177715	0
15.01.2021	04:00:10	0	0	2,711745	2,55525	24,3468	-0,888	81,48	0	1009,72	5,3	7,6	7,4	1	1	1	1	1	1	1	1	1	0	1	-4,157858	272,811463	309,917251	0
15.01.2021	04:00:11	0	0	4,519575	2,51775	18,8388	-0,888	81,485	0	1009,86	5,3	7,6	7,4	1	1	1	1	1	1	1	1	1	0	1	-6,412967	272,865965	307,9132	0
15.01.2021	04:00:12	0	0	4,745554	2,391	18,8316	-0,884	81,488	0	1009,84	5,3	7,6	7,4	1	1	1	1	1	1	1	1	1	0	1	-10,500352	272,798908	303,516942	0
15.01.2021	04:00:13	0	0	4,745554	2,26125	22,4712	-0,883	81,5	0	1009,84	5,3	7,6	7,4	1	1	1	1	1	1	1	1	1	0	1	-8,386187	272,871564	305,965778	0
15.01.2021	04:00:14	0	0	2,259788	2,16525	19,5264	-0,881	81,49	0	1009,88	5,3	7,6	7,4	1	1	1	1	1	1	1	1	1	0	1	-7,399577	272,784967	306,553534	0
15.01.2021	04:00:15	0	0	4,293596	2,08575	17,712	-0,882	81,5	0	1009,72	5,3	7,6	7,4	1	1	1	1	1	1	1	1	1	0	1	-13,03735	272,861767	301,269474	0
15.01.2021	04:00:16	0	0	3,050732	2,0445	12,1104	-0,884	81,489	0	1009,78	5,3	7,6	7,3	1	1	1	1	1	1	1	1	1	0	1	-10,359408	272,708474	303,2417	0
15.01.2021	04:00:17	0	0	3,050732	2,14725	13,5504	-0,888	81,495	0	1009,74	5,3	7,6	7,3	1	1	1	1	1	1	1	1	1	0	1	-8,033827	272,780787	305,90004	0
15.01.2021	04:00:18	0	0	3,163703	2,3925	12,87	-0,881	81,495	0	1009,86	5,3	7,6	7,4	1	1	1	1	1	1	1	1	1	0	1	-9,090909	272,705698	304,497431	0
15.01.2021	04:00:19	0	0	2,824734	2,52375	9,4428	-0,886	81,499	0	1009,86	5,3	7,6	7,4	1	1	1	1	1	1	1	1	1	0	1	-9,936575	272,739034	303,80513	0
15.01.2021	04:00:20	0	0	3,389702	2,68275	18,8388	-0,879	81,505	0	1009,84	5,3	7,6	7,3	1	1	1	1	1	1	1	1	1	0	1	-4,721635	272,72097	308,936957	0
15.01.2021	04:00:21	0	0	2,598771	2,88225	10,4616	-0,884	81,51	0	1009,76	5,3	7,6	7,3	1	1	1	1	1	1	1	1	1	0	1	-10,42988	272,882766	303,97371	0
15.01.2021	04:00:22	0	0	3,163703	2,8485	8,9964	-0,88	81,509	0	1009,76	5,3	7,6	7,4	1	1	1	1	1	1	1	1	1	0	1	-10,007047	272,808672	304,05521	0
15.01.2021	04:00:23	0	0	2,824734	2,7135	0,8856	-0,88	81,505	0	1010,02	5,3	7,6	7,4	1	1	1	1	1	1	1	1	1	0	1	-7,258633	272,691825	306,265901	0
15.01.2021	04:00:24	0	0	3,389702	2,7165	0	-0,883	81,499	0	1009,74	5,3	7,6	7,3	1	1	1	1	1	1	1	1	1	0	1	-8,45666	272,772429	305,438734	0
15.01.2021	04:00:25	0	0	2,824734	2,613	6,8292	-0,879	81,512	0	1009,7	5,3	7,6	7,4	1	1	1	1	1	1	1	1	1	0	1	-10,288936	272,71125	303,324943	0
15.01.2021	04:00:26	0	0	4,293622	2,5335	358,7544	-0,88	81,515	0	1009,9	5,3	7,6	7,3	1	1	1	1	1	1	1	1	1	0	1	-3,453136	272,892574	310,995655	0
15.01.2021	04:00:27	0	0	3,954628	2,66775	10,8252	-0,879	81,514	0	1009,88	5,3	7,6	7,4	1	1	1	1	1	1	1	1	1	0	1	-6,483439	272,783573	307,463257	0
15.01.2021	04:00:28	0	0	3,163722	2,49675	358,7868	-0,883	81,507	0	1009,8	5,4	7,6	7,3	1	1	1	1	1	1	1	1	1	0	1	-10,42988	272,719581	303,222323	0
15.01.2021	04:00:29	0	0	4,293596	2,3055	2,646	-0,883	81,489	0	1009,68	5,3	7,6	7,4	1	1	1	1	1	1	1	1	1	0	1	-14,940099	272,881366	299,457036	0
15.01.2021	04:00:30	0	0	4,632592	2,2905	16,8552	-0,88	81,518	0	1009,66	5,4	7,6	7,3	1	1	1	1	1	1	1	1	1	0	1	-4,369274	272,755724	309,449235	0
15.01.2021	04:00:31	0	0	2,598771	2,47125	1,5588	-0,88	81,52	0	1009,92	5,3	7,6	7,3	1	1	1	1	1	1	1	1	1	0	1	-8,80902	272,687665	304,696382	0
15.01.2021	04:00:32	0	0	4,745582	2,57475	11,1996	-0,876	81,508	0	1009,74	5,3	7,6	7,3	1	1	1	1	1	1	1	1	1	0	1	-6,765328	272,882766	307,638262	0
15.01.2021	04:00:33	0	0	3,728649	2,74725	33,2568	-0,887	81,51	0	1009,78	5,3	7,6	7,4	1	1	1	1	1	1	1	1	1	0	1	-6,624383	272,761291	307,219745	0
15.01.2021	04:00:34	0	0	3,389681	2,84175	19,5372	-0,878	81,525	0	1009,76	5,3	7,6	7,4	1	1	1	1	1	1	1	1	1	0	1	-10,007047	272,722359	303,657935	0
15.01.2021	04:00:35	0	0	2,711745	2,91	25,0344	-0,883	81,513	0	1009,74	5,3	7,6	7,4	1	1	1	1	1	1	1	1	1	0	1	-5,708245	272,691825	307,816289	0
15.01.2021	04:00:36	0	0	4,406612	2,94525	22,464	-0,879	81,528	0	1009,84	5,3	7,6	7,3	1	1	1	1	1	1	1	1	1	0	1	-9,090909	272,833804	305,087093	0
15.01.2021	04:00:37	0	0	4,406612	2,84775	7,2144	-0,888	81,512	0	1009,76	5,3	7,6	7,3	1	1	1	1	1	1	1	1	1	0	1	-5,637773	272,712638	307,982492	0
15.01.2021	04:00:38	0	0	4,519602	2,7135	17,2404	-0,88	81,504	0	1009,76	5,3	7,6	7,3	1	1	1	1	1	1	1	1	1	0	1	-7,117689	272,723748	306,553684	0
15.01.2021	04:00:39	0	0	4,971562	2,54025	22,0896	-0,882	81,515	0	1009,8	5,4	7,6	7,3	1	1	1	1	1	1	1	1	1	0	1	-7,188161	272,81565	306,906229	0
15.01.2021	04:00:40	0	0	4,632592	2,52375	11,7144	-0,883	81,51	0	1009,94	5,3	7,6	7,3	1	1	1	1	1	1	1	1	1	0	1	-7,188161	272,70431	306,393796	0
15.01.2021	04:00:41	0	0	3,050713	2,559	6,444	-0,879	81,521	0	1009,76	5,3	7,7	7,4	1	1	1	1	1	1	1	1	1	0	1	-9,231853	272,747377	304,548243	0
15.01.2021	04:00:42	0	0	4,971562	2,53875	13,9212	-0,875	81,533	0	1009,82	5,3	7,6	7,3	1	1	1	1	1	1	1	1	1	0	1	-8,104299	272,886969	306,31866	0
15.01.2021	04:00:43	0	0	2,259801	2,49675	15,4116	-0,881	81,522	0	1009,9	5,3	7,6	7,3	1	1	1	1	1	1	1	1	1	0	1	-5,496829	272,891173	308,945503	0
15.01.2021	04:00:44	0	0	4,858543	2,6895	15,0372	-0,876	81,524	0	1009,84	5,3	7,6	7,4	1	1	1	1	1	1	1	1	1	0	1	-9,372798	272,780787	304,561069	0
15.01.2021	04:00:45	0	0	3,502692	2,89425	6,4404	-0,878	81,53	0	1009,8	5,3	7,6	7,3	1	1	1	1	1	1	1	1	1	0	1	-7,117689	272,716803	306,521737	0
15.01.2021	04:00:46	0	0	3,163703	3,0765	10,062	-0,873	81,534	0	1009,7	5,4	7,6	7,4	1	1	1	1	1	1	1	1	1	0	1	-7,329105	272,723748	306,342268	0
15.01.2021	04:00:47	0	0	5,084522	3,26475	8,6112	-0,874	81,526	0	1009,76	5,3	7,6	7,4	1	1	1	1	1	1	1	1	1	0	1	-10,42988	272,743205	303,331018	0
15.01.2021	04:00:48	0	0	4,293596	3,477	7,5348	-0,881	81,534	0	1009,92	5,4	7,7	7,4	1	1	1	1	1	1	1	1	1	0	1	-12,332629	272,712638	301,287636	0
15.01.2021	04:00:49	0	0	2,372777	3,5235	9,0036	-0,874	81,536	0	1009,86	5,3	7,6	7,4	1	1	1	1	1	1	1	1	1	0	1	-8,80902	272,81565	305,28537	0
15.01.2021	04:00:50	0	0	3,61566	3,41925	11,7216	-0,872	81,543	0	1009,94	5,4	7,7	7,4	1	1	1	1	1	1	1	1	1	0	1	-9,513742	272,726526	304,170413	0
15.01.2021	04:00:51	0	0	3,615682	3,12225	17,6904	-0,861	81,517	0	1009,96	5,4	7,6	7,3	1	1	1	1	1	1	1	1	1	0	1	-6,976744	272,851976	307,284966	0
15.01.2021	04:00:52	0	0	3,954628	3,0615	17,7012	-0,876	81,51	0	1009,68	5,4	7,6	7,4	1	1	1	1	1	1	1	1	1	0	1	-7,399577	272,727916	306,29097	0
15.01.2021	04:00:53	0	0	4,180607	3,07275	23,2956	-0,876	81,534	0	1009,9	5,4	7,6	7,4	1	1	1	1	1	1	1	1	1	0	1	-8,527132	272,858969	305,7668	0
15.01.2021	04:00:54	0	0	2,598771	3,06675	21,3876	-0,873	81,55	0	1009,7	5,4	7,7	7,3	1	1	1	1	1	1	1	1	1	0	1	-7,117689	272,765467	306,74566	0
15.01.2021	04:00:55	0	0	3,954628	3,036	23,5872	-0,872	81,538	0	1009,9	5,4	7,7	7,4	1	1	1	1	1	1	1	1	1	0	1	-7,751938	272,884167	306,658107	0
15.01.2021	04:00:56	0	0	4,971533	2,83425	17,2512	-0,876	81,517	0	1009,76	5,3	7,6	7,4	1	1	1	1	1	1	1	1	1	0	1	-11,768851	272,79333	302,222763	0
15.01.2021	04:00:57	0	0	4,406586	2,70375	18,4716	-0,871	81,535	0	1009,8	5,3	7,6	7,4	1	1	1	1	1	1	1	1	1	0	1	-10,147992	272,747377	303,632105	0
15.01.2021	04:00:58	0	0	2,937724	2,739	360	-0,875	81,521	0	1009,76	5,3	7,7	7,4	1	1	1	1	1	1	1	1	1	0	1	-9,654686	272,944497	305,033493	0
15.01.2021	04:00:59	0	0	4,632565	2,601	11,2032	-0,87	81,541	0	1009,92	5,4	7,7	7,4	1	1	1	1	1	1	1	1	1	0	1	-5,073996	272,765467	308,789353	0
15.01.2021	04:01:00	0	0	3,276692	2,5185	15,7752	-0,876	81,539	0	1009,68	5,4	7,7	7,4	1	1	1	1	1	1	1	1	1	0	1	-6,412967	272,784967	307,540144	0
15.01.2021	04:01:01	0	0	3,276692	2,5185	15,7752	-0,876	81,539	0	1009,68	5,4	7,7	7,4	1	1	1	1	1	1	1	1	1	0	1	-6,412967	272,784967	307,540144	0
15.01.2021	04:01:02	0	0	2,937724	2,568	2,6496	-0,875	81,538	0	1009,7	5,4	7,7	7,4	1	1	1	1	1	1	1	1	1	0	1	-9,654686	272,718192	303,991128	0
15.01.2021	04:01:03	0	0	2,485766	2,7285	12,3516	-0,873	81,536	0	1009,84	5,3	7,7	7,4	1	1	1	1	1	1	1	1	1	0	1	-10,993658	272,879965	303,397023	0
15.01.2021	04:01:04	0	0	2,824734	2,796	5,6988	-0,867	81,543	0	1009,72	5,4	7,7	7,4	1	1	1	1	1	1	1	1	1	0	1	-7,117689	272,837996	307,079622	0
15.01.2021	04:01:05	0	0	4,406586	2,81625	12,096	-0,877	81,542	0	1009,64	5,4	7,7	7,4	1	1	1	1	1	1	1	1	1	0	1	-6,342495	272,723748	307,328878	0
15.01.2021	04:01:06	0	0	4,745554	2,523	10,8288	-0,877	81,547	0	1009,66	5,3	7,7	7,4	1	1	1	1	1	1	1	1	1	0	1	-13,601128	272,854773	300,673469	0
15.01.2021	04:01:07	0	0	4,180607	2,283	16,9488	-0,87	81,545	0	1009,88	5,4	7,6	7,4	1	1	1	1	1	1	1	1	1	0	1	-4,369274	272,78218	309,571007	0
15.01.2021	04:01:08	0	0	4,180607	2,39625	7,1496	-0,874	81,549	0	1009,8	5,3	7,5	7,4	1	1	1	1	1	1	1	1	1	0	1	-5,990134	272,722359	307,674848	0
15.01.2021	04:01:09	0	0	4,519575	2,601	11,7108	-0,87	81,551	0	1009,86	5,4	7,7	7,4	1	1	1	1	1	1	1	1	1	0	1	-8,879493	272,773822	305,022312	0
15.01.2021	04:01:10	0	0	4,406586	2,67675	8,6184	-0,871	81,532	0	1009,8	5,3	7,7	7,4	1	1	1	1	1	1	1	1	1	0	1	-4,298802	272,716803	309,340624	0
15.01.2021	04:01:11	0	0	4,858543	2,63625	9,3636	-0,879	81,54	0	1009,92	5,3	7,6	7,4	1	1	1	1	1	1	1	1	1	0	1	-7,963354	272,727916	305,727193	0
15.01.2021	04:01:12	0	0	4,745554	2,51775	11,1924	-0,874	81,542	0	1009,84	5,4	7,6	7,4	1	1	1	1	1	1	1	1	1	0	1	-3,100775	272,819838	311,012901	0
15.01.2021	04:01:13	0	0	2,372777	2,49225	14,6628	-0,872	81,537	0	1009,82	5,4	7,7	7,4	1	1	1	1	1	1	1	1	1	0	1	-7,540521	272,88837	306,888894	0
15.01.2021	04:01:14	0	0	5,197511	2,55	19,9152	-0,871	81,56	0	1009,94	5,4	7,7	7,4	1	1	1	1	1	1	1	1	1	0	1	-4,22833	272,812859	309,853205	0
15.01.2021	04:01:15	0	0	4,745554	2,6055	14,6592	-0,876	81,558	0	1009,76	5,4	7,7	7,4	1	1	1	1	1	1	1	1	1	0	1	-8,668076	272,877164	305,709697	0
15.01.2021	04:01:16	0	0	3,502671	2,5215	15,048	-0,872	81,554	0	1009,76	5,4	7,7	7,4	1	1	1	1	1	1	1	1	1	0	1	-8,949965	272,824027	305,183003	0
15.01.2021	04:01:17	0	0	3,163703	2,562	16,11	-0,871	81,558	0	1009,92	5,4	7,7	7,4	1	1	1	1	1	1	1	1	1	0	1	-10,711769	272,872964	303,646648	0
15.01.2021	04:01:18	0	0	4,745554	2,60775	17,7696	-0,871	81,56	0	1009,82	5,4	7,7	7,4	1	1	1	1	1	1	1	1	1	0	1	-8,949965	272,889771	305,485909	0
15.01.2021	04:01:19	0	0	4,858543	2,56575	16,0956	-0,879	81,547	0	1009,76	5,4	7,6	7,4	1	1	1	1	1	1	1	1	1	0	1	-7,540521	272,779394	306,386932	0
15.01.2021	04:01:20	0	0	4,632565	2,5395	6,0768	-0,87	81,566	0	1009,94	5,4	7,7	7,4	1	1	1	1	1	1	1	1	1	0	1	-11,134602	272,889771	303,301272	0
15.01.2021	04:01:21	0	0	5,084522	2,5485	7,1352	-0,874	81,556	0	1009,94	5,4	7,7	7,4	1	1	1	1	1	1	1	1	1	0	1	-6,765328	272,850577	307,48994	0
15.01.2021	04:01:22	0	0	3,389681	2,60025	22,842	-0,867	81,553	0	1009,82	5,4	7,6	7,4	1	1	1	1	1	1	1	1	1	0	1	-11,134602	272,847781	303,107783	0
15.01.2021	04:01:23	0	0	4,971533	2,4615	12,8484	-0,869	81,566	0	1009,8	5,4	7,7	7,4	1	1	1	1	1	1	1	1	1	0	1	-6,342495	272,893975	308,112756	0
15.01.2021	04:01:24	0	0	2,824734	2,46675	14,652	-0,874	81,567	0	1009,8	5,4	7,7	7,4	1	1	1	1	1	1	1	1	1	0	1	-6,624383	272,842189	307,592241	0
15.01.2021	04:01:25	0	0	3,050713	2,697	15,8904	-0,875	81,559	0	1009,88	5,4	7,6	7,4	1	1	1	1	1	1	1	1	1	0	1	-8,80902	272,878565	305,575206	0
15.01.2021	04:01:26	0	0	3,502671	2,77575	7,884	-0,866	81,574	0	1009,86	5,4	7,7	7,4	1	1	1	1	1	1	1	1	1	0	1	-7,963354	272,715415	305,669684	0
15.01.2021	04:01:27	0	0	3,728649	2,85825	15,0444	-0,871	81,542	0	1009,84	5,4	7,6	7,4	1	1	1	1	1	1	1	1	1	0	1	-7,188161	272,789148	306,784199	0
15.01.2021	04:01:28	0	0	4,406586	2,96625	4,0968	-0,876	81,561	0	1009,68	5,4	7,7	7,4	1	1	1	1	1	1	1	1	1	0	1	-11,346018	272,725137	302,331745	0
15.01.2021	04:01:29	0	0	5,084522	3,072	2,6496	-0,876	81,566	0	1009,78	5,4	7,7	7,4	1	1	1	1	1	1	1	1	1	0	1	-8,174771	272,796119	305,829682	0
15.01.2021	04:01:30	0	0	4,067618	3,04575	357,9768	-0,869	81,554	0	1009,62	5,4	7,7	7,4	1	1	1	1	1	1	1	1	1	0	1	-7,047216	272,91922	307,524406	0
15.01.2021	04:01:31	0	0	3,841639	2,96025	4,8528	-0,871	81,57	0	1009,78	5,4	7,6	7,4	1	1	1	1	1	1	1	1	1	0	1	-5,003524	272,864566	309,316195	0
15.01.2021	04:01:32	0	0	3,050713	2,8965	0,8748	-0,868	81,561	0	1009,78	5,4	7,6	7,4	1	1	1	1	1	1	1	1	1	0	1	-6,765328	272,734864	306,957189	0
15.01.2021	04:01:33	0	0	4,180607	2,919	6,1488	-0,87	81,564	0	1009,76	5,4	7,6	7,4	1	1	1	1	1	1	1	1	1	0	1	-8,45666	272,789148	305,5157	0
15.01.2021	04:01:34	0	0	3,050713	2,78475	3,7908	-0,867	81,566	0	1009,92	5,4	7,6	7,4	1	1	1	1	1	1	1	1	1	0	1	-7,892882	272,750159	305,900016	0
15.01.2021	04:01:35	0	0	4,745554	2,7375	6,8292	-0,873	81,563	0	1009,76	5,4	7,6	7,4	1	1	1	1	1	1	1	1	1	0	1	-9,584214	272,902386	304,909807	0
15.01.2021	04:01:36	0	0	4,858543	2,625	7,1388	-0,865	81,582	0	1009,92	5,4	7,7	7,4	1	1	1	1	1	1	1	1	1	0	1	-8,527132	272,790542	305,451646	0
15.01.2021	04:01:37	0	0	3,728649	2,60025	10,8252	-0,87	81,561	0	1009,9	5,4	7,6	7,4	1	1	1	1	1	1	1	1	1	0	1	-9,020437	272,72097	304,638155	0
15.01.2021	04:01:38	0	0	3,050713	2,496	353,2824	-0,865	81,578	0	1010	5,4	7,6	7,4	1	1	1	1	1	1	1	1	1	0	1	-2,043693	272,791936	311,941503	0
15.01.2021	04:01:39	0	0	5,197511	2,226	27,6696	-0,871	81,568	0	1009,72	5,4	7,6	7,4	1	1	1	1	1	1	1	1	1	0	1	-3,946441	272,900984	310,541117	0
15.01.2021	04:01:40	0	0	3,61566	2,076	4,806	-0,867	81,571	0	1009,82	5,4	7,6	7,4	1	1	1	1	1	1	1	1	1	0	1	-7,892882	272,835201	306,291555	0
15.01.2021	04:01:41	0	0	4,858543	2,16825	35,8596	-0,871	81,579	0	1009,86	5,4	7,6	7,4	1	1	1	1	1	1	1	1	1	0	1	-9,372798	272,896779	305,095374	0
15.01.2021	04:01:42	0	0	3,61566	2,30325	21,7692	-0,863	81,578	0	1009,7	5,4	7,6	7,4	1	1	1	1	1	1	1	1	1	0	1	-13,248767	272,759899	300,588956	0
15.01.2021	04:01:43	0	0	3,728649	2,37075	20,0088	-0,864	81,58	0	1009,82	5,4	7,6	7,4	1	1	1	1	1	1	1	1	1	0	1	-7,540521	272,861767	306,766302	0
15.01.2021	04:01:44	0	0	3,389681	2,52375	21,7728	-0,865	81,571	0	1009,94	5,4	7,6	7,4	1	1	1	1	1	1	1	1	1	0	1	-9,725159	272,839394	304,47859	0
15.01.2021	04:01:45	0	0	2,824734	2,58075	16,4844	-0,864	81,585	0	1009,98	5,4	7,6	7,4	1	1	1	1	1	1	1	1	1	0	1	-7,188161	272,72097	306,470432	0
15.01.2021	04:01:46	0	0	4,858543	2,60325	13,9176	-0,865	81,582	0	1009,78	5,4	7,6	7,4	1	1	1	1	1	1	1	1	1	0	1	-10,993658	272,85757	303,293829	0
15.01.2021	04:01:47	0	0	4,406586	2,6925	9,0144	-0,868	81,573	0	1009,8	5,4	7,6	7,4	1	1	1	1	1	1	1	1	1	0	1	-8,527132	272,878565	305,857095	0
15.01.2021	04:01:48	0	0	5,084522	2,904	10,8252	-0,865	81,568	0	1009,82	5,4	7,6	7,4	1	1	1	1	1	1	1	1	1	0	1	-6,342495	272,737644	307,392814	0
15.01.2021	04:01:49	0	0	3,954628	2,87325	14,2884	-0,871	81,585	0	1009,86	5,4	7,6	7,4	1	1	1	1	1	1	1	1	1	0	1	-10,641297	272,839394	303,562452	0
15.01.2021	04:01:50	0	0	4,293596	2,8125	16,8516	-0,86	81,6	0	1009,78	5,4	7,6	7,4	1	1	1	1	1	1	1	1	1	0	1	-10,218464	272,879965	304,172217	0
15.01.2021	04:01:51	0	0	4,745554	2,66775	17,7048	-0,874	81,579	0	1009,76	5,4	7,6	7,4	1	1	1	1	1	1	1	1	1	0	1	-5,003524	272,783573	308,943172	0
15.01.2021	04:01:52	0	0	3,163703	2,79075	10,8252	-0,871	81,589	0	1009,84	5,4	7,6	7,4	1	1	1	1	1	1	1	1	1	0	1	-8,738548	272,900984	305,749009	0
15.01.2021	04:01:53	0	0	4,745554	2,862	2,2968	-0,86	81,575	0	1009,9	5,4	7,6	7,4	1	1	1	1	1	1	1	1	1	0	1	-9,090909	272,865965	305,235258	0
15.01.2021	04:01:54	0	0	4,858543	2,82375	12,0996	-0,862	81,594	0	1009,88	5,4	7,6	7,4	1	1	1	1	1	1	1	1	1	0	1	-6,976744	272,851976	307,284966	0
15.01.2021	04:01:55	0	0	5,084522	2,619	4,0896	-0,865	81,585	0	1009,78	5,4	7,6	7,4	1	1	1	1	1	1	1	1	1	0	1	-6,553911	272,734864	307,168606	0
15.01.2021	04:01:56	0	0	4,858543	2,3745	14,6556	-0,872	81,571	0	1009,86	5,4	7,6	7,4	1	1	1	1	1	1	1	1	1	0	1	-8,386187	272,839394	305,817561	0
15.01.2021	04:01:57	0	0	3,728649	2,32275	15,408	-0,871	81,592	0	1009,84	5,4	7,6	7,4	1	1	1	1	1	1	1	1	1	0	1	-7,188161	272,734864	306,534356	0
15.01.2021	04:01:58	0	0	4,519575	2,32125	16,1064	-0,864	81,597	0	1009,76	5,4	7,6	7,4	1	1	1	1	1	1	1	1	1	0	1	-7,82241	272,747377	305,957687	0
15.01.2021	04:01:59	0	0	4,858543	2,4915	3,402	-0,871	81,58	0	1009,88	5,4	7,6	7,4	1	1	1	1	1	1	1	1	1	0	1	-9,302326	272,900984	305,185232	0
15.01.2021	04:02:00	0	0	2,372777	2,886	10,1664	-0,864	81,597	0	1009,8	5,4	7,6	7,4	1	1	1	1	1	1	1	1	1	0	1	-8,949965	272,757116	304,874948	0
15.01.2021	04:02:01	0	0	2,372777	2,886	10,1664	-0,864	81,597	0	1009,8	5,4	7,6	7,4	1	1	1	1	1	1	1	1	1	0	1	-8,949965	272,757116	304,874948	0
15.01.2021	04:02:02	0	0	4,858543	2,7915	22,0788	-0,866	81,592	0	1009,76	5,4	7,6	7,4	1	1	1	1	1	1	1	1	1	0	1	-6,131078	272,917816	308,434074	0
15.01.2021	04:02:03	0	0	4,293596	2,79225	16,8696	-0,863	81,59	0	1009,88	5,4	7,6	7,4	1	1	1	1	1	1	1	1	1	0	1	-5,355884	272,791936	308,629311	0
15.01.2021	04:02:04	0	0	2,937724	3,02025	16,8624	-0,869	81,576	0	1009,76	5,4	7,6	7,4	1	1	1	1	1	1	1	1	1	0	1	-5,990134	272,840791	308,220052	0
15.01.2021	04:02:05	0	0	2,711745	3,0375	21,7872	-0,865	81,598	0	1009,8	5,4	7,6	7,4	1	1	1	1	1	1	1	1	1	0	1	-9,584214	272,906593	304,929199	0
15.01.2021	04:02:06	0	0	3,163703	2,8755	18,108	-0,868	81,585	0	1009,7	5,4	7,6	7,4	1	1	1	1	1	1	1	1	1	0	1	-8,45666	272,856171	305,824382	0
15.01.2021	04:02:07	0	0	4,293596	2,61825	11,7324	-0,868	81,603	0	1009,84	5,4	7,6	7,4	1	1	1	1	1	1	1	1	1	0	1	-6,412967	272,907996	308,106912	0
15.01.2021	04:02:08	0	0	3,954628	2,547	8,2764	-0,874	81,588	0	1009,86	5,4	7,6	7,4	1	1	1	1	1	1	1	1	1	0	1	-9,090909	272,817046	305,009909	0
15.01.2021	04:02:09	0	0	3,61566	2,535	8,9964	-0,868	81,584	0	1009,84	5,4	7,6	7,4	1	1	1	1	1	1	1	1	1	0	1	-7,540521	272,754333	306,271584	0
15.01.2021	04:02:10	0	0	2,824734	2,43975	22,4784	-0,867	81,603	0	1009,94	5,4	7,6	7,4	1	1	1	1	1	1	1	1	1	0	1	-11,557435	272,913607	302,988311	0
15.01.2021	04:02:11	0	0	3,728649	2,45475	23,9724	-0,864	81,601	0	1009,98	5,4	7,6	7,4	1	1	1	1	1	1	1	1	1	0	1	-7,540521	272,780787	306,393345	0
15.01.2021	04:02:12	0	0	2,598756	2,409	16,0956	-0,867	81,604	0	1009,6	5,4	7,6	7,4	1	1	1	1	1	1	1	1	1	0	1	-5,919662	272,805882	308,129746	0
15.01.2021	04:02:13	0	0	2,485751	2,37675	15,1488	-0,871	81,59	0	1009,76	5,4	7,6	7,5	1	1	1	1	1	1	1	1	1	0	1	-5,285412	272,733474	308,43071	0
15.01.2021	04:02:14	0	0	3,389681	2,3385	19,908	-0,862	81,594	0	1009,84	5,4	7,6	7,4	1	1	1	1	1	1	1	1	1	0	1	-6,694856	272,850577	307,560412	0
15.01.2021	04:02:15	0	0	5,084522	2,31225	15,804	-0,862	81,609	0	1009,9	5,4	7,6	7,4	1	1	1	1	1	1	1	1	1	0	1	-11,346018	272,91501	303,206196	0
15.01.2021	04:02:16	0	0	2,711745	2,37075	13,554	-0,868	81,61	0	1009,86	5,4	7,6	7,4	1	1	1	1	1	1	1	1	1	0	1	-7,892882	272,764075	305,964059	0
15.01.2021	04:02:17	0	0	3,954628	2,42775	7,2108	-0,863	81,601	0	1009,92	5,4	7,6	7,4	1	1	1	1	1	1	1	1	1	0	1	-8,949965	272,730695	304,753369	0
15.01.2021	04:02:18	0	0	4,406586	2,6145	2,6424	-0,869	81,598	0	1009,88	5,3	7,6	7,4	1	1	1	1	1	1	1	1	1	0	1	-9,44327	272,739034	304,298435	0
15.01.2021	04:02:19	0	0	3,61566	2,808	8,6256	-0,861	81,603	0	1009,88	5,4	7,6	7,4	1	1	1	1	1	1	1	1	1	0	1	-9,161381	272,889771	305,274492	0
15.01.2021	04:02:20	0	0	4,971533	2,7405	4,0932	-0,862	81,604	0	1009,68	5,4	7,6	7,4	1	1	1	1	1	1	1	1	1	0	1	-10,288936	272,905191	304,218013	0
15.01.2021	04:02:21	0	0	4,180607	2,64	21,7656	-0,871	81,606	0	1009,84	5,4	7,6	7,4	1	1	1	1	1	1	1	1	1	0	1	-8,104299	272,835201	306,080139	0
15.01.2021	04:02:22	0	0	4,293571	2,48475	5,6988	-0,869	81,613	0	1009,62	5,4	7,6	7,5	1	1	1	1	1	1	1	1	1	0	1	-9,44327	272,744596	304,324027	0
15.01.2021	04:02:23	0	0	2,824734	2,4915	9,7524	-0,866	81,607	0	1009,82	5,4	7,6	7,4	1	1	1	1	1	1	1	1	1	0	1	-10,077519	272,759899	303,760203	0
15.01.2021	04:02:24	0	0	3,61566	2,523	1,1844	-0,863	81,618	0	1009,82	5,4	7,6	7,4	1	1	1	1	1	1	1	1	1	0	1	-4,580691	272,898181	309,893943	0
15.01.2021	04:02:25	0	0	2,824734	2,40225	16,866	-0,86	81,598	0	1009,8	5,4	7,6	7,4	1	1	1	1	1	1	1	1	1	0	1	-6,8358	272,740425	306,912302	0
15.01.2021	04:02:26	0	0	3,841639	2,32425	3,0312	-0,862	81,597	0	1009,78	5,3	7,6	7,4	1	1	1	1	1	1	1	1	1	0	1	-5,778717	272,797513	308,232156	0
15.01.2021	04:02:27	0	0	4,745525	2,17275	16,488	-0,861	81,605	0	1009,84	5,4	7,6	7,5	1	1	1	1	1	1	1	1	1	0	1	-2,325581	272,745987	311,448115	0
15.01.2021	04:02:28	0	0	4,858543	1,90125	25,794	-0,858	81,621	0	1009,88	5,3	7,6	7,4	1	1	1	1	1	1	1	1	1	0	1	-9,231853	272,898181	305,24278	0
15.01.2021	04:02:29	0	0	2,937706	1,80375	24,3612	-0,863	81,62	0	1009,84	5,4	7,6	7,5	1	1	1	1	1	1	1	1	1	0	1	-3,100775	272,81565	310,993615	0
15.01.2021	04:02:30	0	0	3,728649	2,0265	22,0752	-0,863	81,61	0	1009,68	5,3	7,6	7,4	1	1	1	1	1	1	1	1	1	0	1	-6,694856	272,895377	307,766856	0
15.01.2021	04:02:31	0	0	4,293596	2,3325	26,19	-0,861	81,622	0	1009,84	5,4	7,6	7,4	1	1	1	1	1	1	1	1	1	0	1	-7,751938	272,843587	306,471126	0
15.01.2021	04:02:32	0	0	3,050713	2,49525	21,3948	-0,856	81,63	0	1009,9	5,4	7,6	7,4	1	1	1	1	1	1	1	1	1	0	1	-6,483439	272,909398	308,042906	0
15.01.2021	04:02:33	0	0	3,728649	2,58825	9,3744	-0,86	81,632	0	1009,92	5,3	7,6	7,4	1	1	1	1	1	1	1	1	1	0	1	-11,627907	272,912204	302,911371	0
15.01.2021	04:02:34	0	0	3,276692	2,6055	20,6388	-0,857	81,626	0	1009,84	5,4	7,6	7,4	1	1	1	1	1	1	1	1	1	0	1	-10,147992	272,870164	304,197523	0
15.01.2021	04:02:35	0	0	3,615638	2,682	12,0924	-0,862	81,628	0	1009,8	5,4	7,6	7,5	1	1	1	1	1	1	1	1	1	0	1	-7,117689	272,752942	306,688014	0
15.01.2021	04:02:36	0	0	4,519548	2,79975	15,0372	-0,867	81,623	0	1009,82	5,3	7,6	7,5	1	1	1	1	1	1	1	1	1	0	1	-9,584214	272,92343	305,006821	0
15.01.2021	04:02:37	0	0	3,61566	2,83425	12,1212	-0,862	81,635	0	1009,72	5,3	7,6	7,4	1	1	1	1	1	1	1	1	1	0	1	-8,527132	272,791936	305,458064	0
15.01.2021	04:02:38	0	0	5,310469	2,835	4,8384	-0,863	81,623	0	1009,82	5,3	7,6	7,5	1	1	1	1	1	1	1	1	1	0	1	-7,892882	272,909398	306,633462	0
15.01.2021	04:02:39	0	0	4,745525	2,763	9,846	-0,863	81,638	0	1009,88	5,3	7,6	7,5	1	1	1	1	1	1	1	1	1	0	1	-4,157858	272,759899	309,679865	0
15.01.2021	04:02:40	0	0	2,711745	2,82225	360	-0,859	81,639	0	1009,98	5,3	7,6	7,4	1	1	1	1	1	1	1	1	1	0	1	-5,919662	272,917816	308,645491	0
15.01.2021	04:02:41	0	0	2,59874	2,82075	4,4784	-0,866	81,632	0	1009,9	5,4	7,6	7,5	1	1	1	1	1	1	1	1	1	0	1	-6,976744	272,758507	306,854573	0
15.01.2021	04:02:42	0	0	2,824734	2,7135	357,948	-0,849	81,633	0	1009,82	5,3	7,6	7,4	1	1	1	1	1	1	1	1	1	0	1	-8,174771	272,917816	306,390381	0
15.01.2021	04:02:43	0	0	4,858543	2,55825	9,36	-0,865	81,623	0	1009,68	5,4	7,6	7,4	1	1	1	1	1	1	1	1	1	0	1	-7,258633	272,885568	307,157869	0
15.01.2021	04:02:44	0	0	3,841639	2,4135	5,6952	-0,859	81,644	0	1009,88	5,3	7,7	7,4	1	1	1	1	1	1	1	1	1	0	1	-5,567301	272,740425	308,180801	0
15.01.2021	04:02:45	0	0	5,084492	2,409	8,604	-0,858	81,637	0	1009,72	5,4	7,6	7,5	1	1	1	1	1	1	1	1	1	0	1	-5,708245	272,82682	308,437587	0
15.01.2021	04:02:46	0	0	3,728649	2,35725	10,062	-0,864	81,635	0	1009,92	5,4	7,6	7,4	1	1	1	1	1	1	1	1	1	0	1	-6,624383	272,743205	307,136515	0
15.01.2021	04:02:47	0	0	4,632565	2,181	7,8948	-0,866	81,621	0	1009,82	5,4	7,7	7,4	1	1	1	1	1	1	1	1	1	0	1	-7,117689	272,886969	307,30527	0
15.01.2021	04:02:48	0	0	2,824751	2,12475	9,7776	-0,856	81,656	0	1009,82	5,4	7,6	7,3	1	1	1	1	1	1	1	1	1	0	1	-2,325581	272,916413	312,233102	0
15.01.2021	04:02:49	0	0	3,728627	2,10825	9,3672	-0,857	81,645	0	1009,76	5,4	7,6	7,5	1	1	1	1	1	1	1	1	1	0	1	-8,033827	272,752942	305,771876	0
15.01.2021	04:02:50	0	0	4,632565	2,1135	15,786	-0,864	81,62	0	1009,88	5,4	7,6	7,4	1	1	1	1	1	1	1	1	1	0	1	-5,919662	272,854773	308,354935	0
15.01.2021	04:02:51	0	0	4,745554	2,0295	15,4224	-0,864	81,635	0	1009,54	5,3	7,6	7,4	1	1	1	1	1	1	1	1	1	0	1	-3,735025	272,88837	310,694391	0
15.01.2021	04:02:52	0	0	4,519602	2,04975	13,9212	-0,867	81,629	0	1009,86	5,4	7,6	7,3	1	1	1	1	1	1	1	1	1	0	1	-5,426357	272,762683	308,424178	0
15.01.2021	04:02:53	0	0	2,711729	2,196	359,8884	-0,866	81,637	0	1009,82	5,4	7,6	7,5	1	1	1	1	1	1	1	1	1	0	1	-8,738548	272,898181	305,736085	0
15.01.2021	04:02:54	0	0	3,728627	2,40975	17,226	-0,859	81,627	0	1009,78	5,4	7,6	7,5	1	1	1	1	1	1	1	1	1	0	1	-3,453136	272,752942	310,352567	0
15.01.2021	04:02:55	0	0	2,711745	2,54175	4,842	-0,859	81,643	0	1009,8	5,4	7,6	7,4	1	1	1	1	1	1	1	1	1	0	1	-7,188161	272,796119	306,816293	0
15.01.2021	04:02:56	0	0	3,389681	2,652	18,828	-0,865	81,646	0	1009,72	5,4	7,6	7,4	1	1	1	1	1	1	1	1	1	0	1	-4,933051	272,787754	309,032892	0
15.01.2021	04:02:57	0	0	3,163703	2,76525	8,2728	-0,861	81,629	0	1009,88	5,4	7,6	7,4	1	1	1	1	1	1	1	1	1	0	1	-7,188161	272,929046	307,428767	0
15.01.2021	04:02:58	0	0	3,163703	2,82675	0,8676	-0,86	81,653	0	1009,8	5,4	7,6	7,4	1	1	1	1	1	1	1	1	1	0	1	-6,906272	272,851976	307,355438	0
15.01.2021	04:02:59	0	0	3,276692	2,8725	13,914	-0,864	81,653	0	1009,84	5,4	7,6	7,4	1	1	1	1	1	1	1	1	1	0	1	-6,483439	272,759899	307,354283	0
15.01.2021	04:03:00	0	0	3,61566	2,72475	10,8216	-0,86	81,655	0	1009,84	5,4	7,7	7,4	1	1	1	1	1	1	1	1	1	0	1	-4,298802	272,853374	309,969351	0
15.01.2021	04:03:01	0	0	3,61566	2,72475	10,8216	-0,86	81,655	0	1009,84	5,4	7,7	7,4	1	1	1	1	1	1	1	1	1	0	1	-4,298802	272,853374	309,969351	0
15.01.2021	04:03:02	0	0	3,050695	2,7165	15,0408	-0,855	81,649	0	1009,9	5,4	7,7	7,5	1	1	1	1	1	1	1	1	1	0	1	-6,483439	272,765467	307,379909	0
15.01.2021	04:03:03	0	0	3,276692	2,6595	14,6592	-0,868	81,631	0	1009,7	5,4	7,6	7,4	1	1	1	1	1	1	1	1	1	0	1	-1,761804	272,861767	312,54502	0
15.01.2021	04:03:04	0	0	3,163703	2,73075	9,7668	-0,856	81,657	0	1009,8	5,4	7,6	7,4	1	1	1	1	1	1	1	1	1	0	1	-9,654686	272,947308	305,046456	0
15.01.2021	04:03:05	0	0	3,163703	2,88	12,8448	-0,86	81,649	0	1009,78	5,4	7,6	7,4	1	1	1	1	1	1	1	1	1	0	1	-5,285412	272,868765	309,053653	0
15.01.2021	04:03:06	0	0	3,502671	2,8455	12,1104	-0,856	81,646	0	1009,78	5,4	7,6	7,4	1	1	1	1	1	1	1	1	1	0	1	-3,523608	272,91922	311,048014	0
15.01.2021	04:03:07	0	0	3,050713	2,93925	9,7524	-0,857	81,655	0	1009,8	5,4	7,7	7,4	1	1	1	1	1	1	1	1	1	0	1	-6,765328	272,892574	307,683464	0
15.01.2021	04:03:08	0	0	2,824718	2,9475	8,712	-0,858	81,655	0	1009,94	5,4	7,6	7,5	1	1	1	1	1	1	1	1	1	0	1	-8,104299	272,881366	306,292836	0
15.01.2021	04:03:09	0	0	4,971533	3,0525	19,1448	-0,854	81,664	0	1009,9	5,4	7,7	7,4	1	1	1	1	1	1	1	1	1	0	1	-8,315715	272,936068	306,333591	0
15.01.2021	04:03:10	0	0	3,954628	3,1485	13,1652	-0,853	81,65	0	1009,88	5,4	7,6	7,4	1	1	1	1	1	1	1	1	1	0	1	-9,725159	272,789148	304,247201	0
15.01.2021	04:03:11	0	0	2,824718	3,156	13,1796	-0,857	81,654	0	1009,98	5,4	7,6	7,5	1	1	1	1	1	1	1	1	1	0	1	-6,694856	272,779394	307,232598	0
15.01.2021	04:03:12	0	0	3,050713	3,264	4,5576	-0,863	81,656	0	1009,76	5,4	7,6	7,4	1	1	1	1	1	1	1	1	1	0	1	-6,8358	272,765467	307,027549	0
15.01.2021	04:03:13	0	0	4,632565	3,27975	356,9184	-0,852	81,667	0	1009,8	5,4	7,7	7,4	1	1	1	1	1	1	1	1	1	0	1	-7,258633	272,83101	306,9065	0
15.01.2021	04:03:14	0	0	3,276692	3,2925	6,4476	-0,856	81,662	0	1009,9	5,4	7,6	7,4	1	1	1	1	1	1	1	1	1	0	1	-5,567301	272,910801	308,96551	0
15.01.2021	04:03:15	0	0	2,824734	3,17475	9,7488	-0,859	81,674	0	1009,84	5,4	7,7	7,4	1	1	1	1	1	1	1	1	1	0	1	-4,862579	272,903789	309,637905	0
15.01.2021	04:03:16	0	0	3,502671	3,2835	10,0944	-0,855	81,664	0	1009,9	5,3	7,7	7,4	1	1	1	1	1	1	1	1	1	0	1	-5,84919	272,761291	307,994939	0
15.01.2021	04:03:17	0	0	3,502671	3,30075	1,944	-0,855	81,664	0	1009,92	5,4	7,7	7,4	1	1	1	1	1	1	1	1	1	0	1	-6,131078	272,941687	308,544141	0
15.01.2021	04:03:18	0	0	4,180607	3,456	11,2032	-0,859	81,658	0	1009,84	5,4	7,7	7,4	1	1	1	1	1	1	1	1	1	0	1	-8,45666	272,801697	305,573479	0
15.01.2021	04:03:19	0	0	3,61566	3,55575	9,0072	-0,862	81,678	0	1009,9	5,4	7,7	7,4	1	1	1	1	1	1	1	1	1	0	1	-6,906272	272,934663	307,736558	0
15.01.2021	04:03:20	0	0	3,841639	3,63225	6,4368	-0,864	81,661	0	1009,8	5,4	7,7	7,4	1	1	1	1	1	1	1	1	1	0	1	-6,906272	272,759899	306,93145	0
15.01.2021	04:03:21	0	0	5,53648	3,582	9,7632	-0,858	81,657	0	1009,86	5,4	7,7	7,4	1	1	1	1	1	1	1	1	1	0	1	-10,359408	272,877164	304,018365	0
15.01.2021	04:03:22	0	0	4,745554	3,4215	17,712	-0,851	81,668	0	1009,88	5,4	7,7	7,4	1	1	1	1	1	1	1	1	1	0	1	-10,570825	272,931854	304,059053	0
15.01.2021	04:03:23	0	0	5,084522	3,219	13,5576	-0,859	81,667	0	1009,82	5,4	7,7	7,4	1	1	1	1	1	1	1	1	1	0	1	-3,735025	272,829613	310,423674	0
15.01.2021	04:03:24	0	0	4,858543	3,051	11,7252	-0,859	81,67	0	1009,8	5,4	7,7	7,4	1	1	1	1	1	1	1	1	1	0	1	-12,05074	272,886969	302,372218	0
15.01.2021	04:03:25	0	0	4,180607	2,943	19,1592	-0,855	81,671	0	1009,78	5,4	7,7	7,4	1	1	1	1	1	1	1	1	1	0	1	-8,527132	272,95293	306,199942	0
15.01.2021	04:03:26	0	0	4,971533	2,907	16,4772	-0,859	81,662	0	1009,82	5,4	7,7	7,4	1	1	1	1	1	1	1	1	1	0	1	-5,567301	272,88837	308,862115	0
15.01.2021	04:03:27	0	0	2,485766	2,81625	15,0372	-0,85	81,68	0	1009,92	5,4	7,7	7,4	1	1	1	1	1	1	1	1	1	0	1	-7,399577	272,775214	306,508639	0
15.01.2021	04:03:28	0	0	3,389681	2,748	13,1508	-0,864	81,654	0	1009,78	5,4	7,7	7,4	1	1	1	1	1	1	1	1	1	0	1	-7,540521	272,794724	306,457512	0
15.01.2021	04:03:29	0	0	3,61566	2,70675	5,6916	-0,848	81,686	0	1009,88	5,4	7,7	7,4	1	1	1	1	1	1	1	1	1	0	1	-4,510218	272,898181	309,964415	0
15.01.2021	04:03:30	0	0	4,745554	2,577	360	-0,855	81,682	0	1009,76	5,4	7,7	7,4	1	1	1	1	1	1	1	1	1	0	1	-0,352361	272,780787	313,581506	0
15.01.2021	04:03:31	0	0	3,61566	2,4615	1,5552	-0,855	81,661	0	1009,88	5,4	7,7	7,4	1	1	1	1	1	1	1	1	1	0	1	-3,664553	272,871564	310,687413	0
15.01.2021	04:03:32	0	0	4,519575	2,45325	7,524	-0,854	81,682	0	1009,78	5,4	7,7	7,4	1	1	1	1	1	1	1	1	1	0	1	-4,721635	272,755724	309,096874	0
15.01.2021	04:03:33	0	0	4,971533	2,3835	359,0676	-0,86	81,676	0	1009,76	5,4	7,7	7,4	1	1	1	1	1	1	1	1	1	0	1	-8,174771	272,800302	305,848945	0
15.01.2021	04:03:34	0	0	4,745554	2,35425	5,6772	-0,86	81,68	0	1009,86	5,4	7,7	7,4	1	1	1	1	1	1	1	1	1	0	1	-3,875969	272,78218	310,064312	0
15.01.2021	04:03:35	0	0	4,858543	2,2215	1,566	-0,851	81,683	0	1009,8	5,4	7,7	7,4	1	1	1	1	1	1	1	1	1	0	1	-3,523608	272,773822	310,378196	0
15.01.2021	04:03:36	0	0	3,61566	2,28675	18,0756	-0,856	81,681	0	1009,76	5,4	7,7	7,4	1	1	1	1	1	1	1	1	1	0	1	-3,382664	272,824027	310,750304	0
15.01.2021	04:03:37	0	0	4,745554	2,394	4,1832	-0,854	81,694	0	1009,94	5,4	7,7	7,4	1	1	1	1	1	1	1	1	1	0	1	-9,795631	272,762683	304,054904	0
15.01.2021	04:03:38	0	0	4,745554	2,65125	7,8912	-0,857	81,686	0	1009,82	5,4	7,7	7,4	1	1	1	1	1	1	1	1	1	0	1	-5,285412	272,863167	309,027859	0
15.01.2021	04:03:39	0	0	4,971533	2,7525	19,9044	-0,847	81,692	0	1009,92	5,4	7,7	7,4	1	1	1	1	1	1	1	1	1	0	1	-9,302326	272,941687	305,372894	0
15.01.2021	04:03:40	0	0	3,954628	2,68425	19,1448	-0,862	81,682	0	1009,92	5,4	7,7	7,4	1	1	1	1	1	1	1	1	1	0	1	-5,003524	272,856171	309,277518	0
15.01.2021	04:03:41	0	0	4,858543	2,9865	4,8456	-0,849	81,686	0	1009,84	5,4	7,7	7,4	1	1	1	1	1	1	1	1	1	0	1	-6,20155	272,937472	308,454234	0
15.01.2021	04:03:42	0	0	3,954628	3,06225	12,8664	-0,852	81,685	0	1009,94	5,4	7,7	7,4	1	1	1	1	1	1	1	1	1	0	1	-13,03735	272,937472	301,618434	0
15.01.2021	04:03:43	0	0	2,824734	2,937	13,5576	-0,855	81,693	0	1009,82	5,4	7,6	7,4	1	1	1	1	1	1	1	1	1	0	1	-1,832276	272,812859	312,249259	0
15.01.2021	04:03:44	0	0	3,050713	2,78325	15,1344	-0,852	81,681	0	1009,94	5,4	7,7	7,4	1	1	1	1	1	1	1	1	1	0	1	-4,439746	272,940282	310,228994	0
15.01.2021	04:03:45	0	0	4,632565	2,691	14,31	-0,853	81,691	0	1009,84	5,4	7,7	7,4	1	1	1	1	1	1	1	1	1	0	1	-10,007047	272,898181	304,467586	0
15.01.2021	04:03:46	0	0	4,632565	2,55525	22,0896	-0,852	81,686	0	1009,86	5,4	7,7	7,4	1	1	1	1	1	1	1	1	1	0	1	-10,42988	272,879965	303,9608	0
15.01.2021	04:03:47	0	0	3,276692	2,4555	13,9284	-0,853	81,688	0	1009,76	5,4	7,7	7,4	1	1	1	1	1	1	1	1	1	0	1	-7,258633	272,926238	307,345348	0
15.01.2021	04:03:48	0	0	3,502671	2,40525	12,0996	-0,856	81,688	0	1009,7	5,4	7,7	7,4	1	1	1	1	1	1	1	1	1	0	1	-9,513742	272,881366	304,883393	0
15.01.2021	04:03:49	0	0	4,406586	2,511	10,4508	-0,848	81,696	0	1009,84	5,4	7,6	7,4	1	1	1	1	1	1	1	1	1	0	1	-4,580691	272,772429	309,314703	0
15.01.2021	04:03:50	0	0	2,598756	2,68875	17,2404	-0,853	81,685	0	1009,66	5,4	7,7	7,4	1	1	1	1	1	1	1	1	1	0	1	-9,372798	272,807277	304,683034	0
15.01.2021	04:03:51	0	0	4,519575	2,76525	15,4944	-0,848	81,704	0	1009,82	5,4	7,7	7,4	1	1	1	1	1	1	1	1	1	0	1	-4,933051	272,884167	309,476994	0
15.01.2021	04:03:52	0	0	4,858543	2,78775	11,2104	-0,848	81,708	0	1009,9	5,4	7,7	7,4	1	1	1	1	1	1	1	1	1	0	1	-3,100775	272,92343	311,49026	0
15.01.2021	04:03:53	0	0	4,067618	2,709	12,4704	-0,86	81,688	0	1009,88	5,4	7,7	7,4	1	1	1	1	1	1	1	1	1	0	1	-7,892882	272,88837	306,536533	0
15.01.2021	04:03:54	0	0	3,841639	2,84025	3,7944	-0,849	81,698	0	1009,8	5,4	7,7	7,4	1	1	1	1	1	1	1	1	1	0	1	-5,144468	272,874364	309,2204	0
15.01.2021	04:03:55	0	0	4,406586	3,06825	7,1388	-0,852	81,699	0	1009,9	5,4	7,7	7,4	1	1	1	1	1	1	1	1	1	0	1	-6,412967	272,922027	308,171597	0
15.01.2021	04:03:56	0	0	3,61566	3,2205	6,444	-0,85	81,684	0	1009,66	5,4	7,7	7,4	1	1	1	1	1	1	1	1	1	0	1	-9,44327	272,874364	304,921598	0
15.01.2021	04:03:57	0	0	3,841639	3,105	17,7264	-0,85	81,697	0	1009,92	5,4	7,7	7,4	1	1	1	1	1	1	1	1	1	0	1	-6,553911	272,771036	307,335072	0
15.01.2021	04:03:58	0	0	5,310501	3,0135	8,9928	-0,853	81,704	0	1009,84	5,4	7,7	7,4	1	1	1	1	1	1	1	1	1	0	1	-6,8358	272,91501	307,716414	0
15.01.2021	04:03:59	0	0	4,293596	3,02625	15,4152	-0,855	81,703	0	1009,88	5,4	7,7	7,4	1	1	1	1	1	1	1	1	1	0	1	-5,003524	272,801697	309,026615	0
15.01.2021	04:04:00	0	0	4,293596	2,73375	23,976	-0,846	81,7	0	1009,8	5,4	7,7	7,4	1	1	1	1	1	1	1	1	1	0	1	-8,949965	272,844985	305,279539	0
15.01.2021	04:04:01	0	0	4,293596	2,73375	23,976	-0,846	81,7	0	1009,8	5,4	7,7	7,4	1	1	1	1	1	1	1	1	1	0	1	-8,949965	272,844985	305,279539	0
15.01.2021	04:04:02	0	0	4,406586	2,8185	26,1756	-0,849	81,673	0	1009,76	5,4	7,7	7,4	1	1	1	1	1	1	1	1	1	0	1	-8,879493	272,945902	305,815168	0
15.01.2021	04:04:03	0	0	3,954628	2,82525	25,794	-0,849	81,696	0	1009,8	5,4	7,6	7,4	1	1	1	1	1	1	1	1	1	0	1	-12,191684	272,909398	302,33466	0
15.01.2021	04:04:04	0	0	3,502671	2,985	7,5132	-0,851	81,707	0	1009,82	5,4	7,6	7,4	1	1	1	1	1	1	1	1	1	0	1	-4,369274	272,936068	310,280032	0
15.01.2021	04:04:05	0	0	4,406586	3,15525	22,4676	-0,849	81,695	0	1010,04	5,4	7,7	7,4	1	1	1	1	1	1	1	1	1	0	1	-7,258633	272,917816	307,30652	0
15.01.2021	04:04:06	0	0	2,485766	3,18375	30,3192	-0,851	81,699	0	1009,88	5,4	7,6	7,4	1	1	1	1	1	1	1	1	1	0	1	-8,033827	272,779394	305,893627	0
15.01.2021	04:04:07	0	0	2,711745	3,16875	13,1724	-0,852	81,692	0	1009,7	5,4	7,7	7,4	1	1	1	1	1	1	1	1	1	0	1	-7,399577	272,803092	306,636984	0
15.01.2021	04:04:08	0	0	4,971533	3,3	10,0836	-0,846	81,712	0	1010	5,4	7,6	7,4	1	1	1	1	1	1	1	1	1	0	1	-7,188161	272,789148	306,784199	0
15.01.2021	04:04:09	0	0	4,745554	3,48375	1,188	-0,841	81,709	0	1009,96	5,4	7,7	7,4	1	1	1	1	1	1	1	1	1	0	1	-1,973221	272,971215	312,838194	0
15.01.2021	04:04:10	0	0	3,050713	3,43875	0,1224	-0,848	81,687	0	1009,8	5,4	7,7	7,4	1	1	1	1	1	1	1	1	1	0	1	-5,285412	272,829613	308,873286	0
15.01.2021	04:04:11	0	0	2,824734	3,42	10,8288	-0,852	81,689	0	1009,98	5,4	7,6	7,4	1	1	1	1	1	1	1	1	1	0	1	-6,272023	272,758507	307,559295	0
15.01.2021	04:04:12	0	0	3,954628	3,54225	9,7488	-0,852	81,707	0	1009,84	5,4	7,6	7,4	1	1	1	1	1	1	1	1	1	0	1	-3,735025	272,898181	310,739609	0
15.01.2021	04:04:13	0	0	3,050713	3,51525	15,7932	-0,853	81,695	0	1009,94	5,4	7,6	7,4	1	1	1	1	1	1	1	1	1	0	1	-7,047216	272,940282	307,621524	0
15.01.2021	04:04:14	0	0	2,937724	3,51225	6,8184	-0,846	81,705	0	1009,82	5,5	7,6	7,4	1	1	1	1	1	1	1	1	1	0	1	-9,44327	272,957148	305,303258	0
15.01.2021	04:04:15	0	0	4,858543	3,45375	17,2548	-0,851	81,696	0	1009,88	5,4	7,6	7,4	1	1	1	1	1	1	1	1	1	0	1	-5,990134	272,85757	308,297352	0
15.01.2021	04:04:16	0	0	3,050713	3,408	18,1008	-0,85	81,703	0	1009,78	5,4	7,6	7,4	1	1	1	1	1	1	1	1	1	0	1	-7,681466	272,945902	307,013195	0
15.01.2021	04:04:17	0	0	3,163703	3,618	22,2048	-0,847	81,701	0	1009,8	5,4	7,6	7,4	1	1	1	1	1	1	1	1	1	0	1	-4,298802	272,783573	309,647894	0
15.01.2021	04:04:18	0	0	4,406586	3,5235	15,3936	-0,85	81,698	0	1009,82	5,4	7,6	7,4	1	1	1	1	1	1	1	1	1	0	1	-8,104299	272,945902	306,590362	0
15.01.2021	04:04:19	0	0	3,163703	3,4485	16,4844	-0,85	81,695	0	1009,76	5,4	7,6	7,4	1	1	1	1	1	1	1	1	1	0	1	-2,677942	272,791936	311,307253	0
15.01.2021	04:04:20	0	0	2,711745	3,13425	8,262	-0,844	81,713	0	1009,86	5,4	7,6	7,4	1	1	1	1	1	1	1	1	1	0	1	-4,792107	272,825423	309,347293	0
15.01.2021	04:04:21	0	0	4,067618	2,8155	7,2072	-0,85	81,695	0	1009,88	5,4	7,6	7,4	1	1	1	1	1	1	1	1	1	0	1	-4,792107	272,945902	309,902553	0
15.01.2021	04:04:22	0	0	4,858543	2,637	19,1556	-0,846	81,697	0	1009,94	5,4	7,6	7,4	1	1	1	1	1	1	1	1	1	0	1	-5,496829	272,805882	308,552579	0
15.01.2021	04:04:23	0	0	3,276692	2,77875	30,3156	-0,849	81,715	0	1009,94	5,4	7,6	7,4	1	1	1	1	1	1	1	1	1	0	1	-8,80902	272,895377	305,652691	0
15.01.2021	04:04:24	0	0	4,519575	2,76225	14,3064	-0,85	81,702	0	1009,82	5,4	7,6	7,4	1	1	1	1	1	1	1	1	1	0	1	-7,892882	272,940282	306,775858	0
15.01.2021	04:04:25	0	0	3,163703	2,77575	9,3996	-0,85	81,702	0	1009,92	5,4	7,6	7,4	1	1	1	1	1	1	1	1	1	0	1	-1,479915	272,877164	312,897858	0
15.01.2021	04:04:26	0	0	2,937724	2,96025	17,244	-0,854	81,702	0	1009,82	5,4	7,6	7,4	1	1	1	1	1	1	1	1	1	0	1	-7,681466	272,784967	306,271645	0
15.01.2021	04:04:27	0	0	3,050713	2,91975	15,0444	-0,844	81,695	0	1009,7	5,4	7,6	7,4	1	1	1	1	1	1	1	1	1	0	1	-8,80902	272,791936	305,176175	0
15.01.2021	04:04:28	0	0	3,841639	2,85825	20,6532	-0,849	81,694	0	1009,86	5,4	7,6	7,4	1	1	1	1	1	1	1	1	1	0	1	-7,610994	272,835201	306,573444	0
15.01.2021	04:04:29	0	0	4,180607	2,94825	4,8348	-0,846	81,702	0	1009,9	5,4	7,6	7,4	1	1	1	1	1	1	1	1	1	0	1	-4,369274	272,747377	309,410823	0
15.01.2021	04:04:30	0	0	3,954628	3,042	5,6916	-0,847	81,704	0	1009,88	5,4	7,6	7,4	1	1	1	1	1	1	1	1	1	0	1	-11,205074	272,870164	303,140441	0
15.01.2021	04:04:31	0	0	2,824734	3,165	9,7596	-0,844	81,703	0	1009,7	5,4	7,6	7,4	1	1	1	1	1	1	1	1	1	0	1	-2,818887	272,941687	311,856333	0
15.01.2021	04:04:32	0	0	4,745554	3,06375	12,114	-0,849	81,71	0	1009,86	5,4	7,6	7,4	1	1	1	1	1	1	1	1	1	0	1	-10,147992	272,854773	304,126605	0
15.01.2021	04:04:33	0	0	5,084522	2,95425	0,1332	-0,842	81,717	0	1009,94	5,4	7,6	7,4	1	1	1	1	1	1	1	1	1	0	1	-0	272,938877	314,662262	0
15.01.2021	04:04:34	0	0	4,745554	3,0435	6,0912	-0,85	81,691	0	1009,86	5,4	7,6	7,4	1	1	1	1	1	1	1	1	1	0	1	-5,144468	272,929046	309,47246	0
15.01.2021	04:04:35	0	0	3,050695	3,159	8,694	-0,852	81,69	0	1009,82	5,4	7,6	7,5	1	1	1	1	1	1	1	1	1	0	1	-5,84919	272,796119	308,155264	0
15.01.2021	04:04:36	0	0	3,163703	3,405	10,8108	-0,856	81,704	0	1009,8	5,4	7,6	7,4	1	1	1	1	1	1	1	1	1	0	1	-4,651163	272,776607	309,263465	0
15.01.2021	04:04:37	0	0	4,745554	3,33975	7,8804	-0,853	81,708	0	1009,92	5,5	7,6	7,4	1	1	1	1	1	1	1	1	1	0	1	-4,580691	272,854773	309,693906	0
15.01.2021	04:04:38	0	0	4,858543	3,15	13,1724	-0,847	81,715	0	1009,96	5,4	7,6	7,4	1	1	1	1	1	1	1	1	1	0	1	-4,721635	272,941687	309,953585	0
15.01.2021	04:04:39	0	0	5,423458	2,95425	24,732	-0,846	81,713	0	1009,84	5,5	7,6	7,5	1	1	1	1	1	1	1	1	1	0	1	-6,553911	272,891173	307,888421	0
15.01.2021	04:04:40	0	0	3,615638	2,77275	18,468	-0,85	81,718	0	1010	5,4	7,6	7,5	1	1	1	1	1	1	1	1	1	0	1	-1,761804	272,929046	312,855124	0
15.01.2021	04:04:41	0	0	4,745554	2,77725	25,038	-0,843	81,704	0	1009,82	5,4	7,6	7,4	1	1	1	1	1	1	1	1	1	0	1	-7,047216	272,814254	307,040746	0
15.01.2021	04:04:42	0	0	3,841639	2,74425	20,2896	-0,853	81,709	0	1010	5,4	7,6	7,4	1	1	1	1	1	1	1	1	1	0	1	-5,567301	272,818442	308,539946	0
15.01.2021	04:04:43	0	0	4,519575	2,57025	18,09	-0,851	81,702	0	1009,72	5,4	7,6	7,4	1	1	1	1	1	1	1	1	1	0	1	-7,963354	272,768251	305,91281	0
15.01.2021	04:04:44	0	0	3,841616	2,81325	15,408	-0,847	81,712	0	1009,98	5,5	7,6	7,5	1	1	1	1	1	1	1	1	1	0	1	-4,369274	272,881366	310,027861	0
15.01.2021	04:04:45	0	0	4,406559	2,8935	14,6592	-0,852	81,727	0	1009,86	5,4	7,6	7,5	1	1	1	1	1	1	1	1	1	0	1	-6,483439	272,962774	308,289037	0
15.01.2021	04:04:46	0	0	4,293596	2,829	18,4572	-0,844	81,727	0	1010,02	5,4	7,6	7,4	1	1	1	1	1	1	1	1	1	0	1	-8,597604	272,874364	305,767264	0
15.01.2021	04:04:47	0	0	5,084492	2,68575	23,9688	-0,853	81,721	0	1009,86	5,5	7,6	7,5	1	1	1	1	1	1	1	1	1	0	1	-7,610994	272,808672	306,451263	0
15.01.2021	04:04:48	0	0	2,824718	2,56575	6,444	-0,85	81,715	0	1009,82	5,5	7,6	7,5	1	1	1	1	1	1	1	1	1	0	1	-8,668076	272,78218	305,272205	0
15.01.2021	04:04:49	0	0	4,406559	2,592	359,5176	-0,845	81,716	0	1009,82	5,5	7,6	7,5	1	1	1	1	1	1	1	1	1	0	1	-6,694856	272,800302	307,328861	0
15.01.2021	04:04:50	0	0	2,824718	2,6655	7,8984	-0,848	81,718	0	1009,74	5,5	7,6	7,5	1	1	1	1	1	1	1	1	1	0	1	-10,852713	272,938877	303,809549	0
15.01.2021	04:04:51	0	0	3,728605	2,5965	6,4404	-0,843	81,721	0	1009,84	5,5	7,6	7,6	1	1	1	1	1	1	1	1	1	0	1	-9,44327	272,837996	304,754041	0
15.01.2021	04:04:52	0	0	3,50265	2,63175	11,7072	-0,844	81,726	0	1009,84	5,4	7,6	7,5	1	1	1	1	1	1	1	1	1	0	1	-8,315715	272,948713	306,391909	0
15.01.2021	04:04:53	0	0	3,389661	2,86125	24,3468	-0,848	81,712	0	1009,86	5,4	7,6	7,5	1	1	1	1	1	1	1	1	1	0	1	-6,624383	272,842189	307,592241	0
15.01.2021	04:04:54	0	0	3,841616	2,826	18,0756	-0,845	81,723	0	1009,9	5,5	7,6	7,5	1	1	1	1	1	1	1	1	1	0	1	-5,496829	272,938877	309,165433	0
15.01.2021	04:04:55	0	0	3,841616	2,943	25,4268	-0,843	81,725	0	1009,84	5,5	7,6	7,5	1	1	1	1	1	1	1	1	1	0	1	-3,171247	272,924834	311,426261	0
15.01.2021	04:04:56	0	0	4,406559	2,9415	23,2056	-0,85	81,722	0	1009,86	5,5	7,6	7,5	1	1	1	1	1	1	1	1	1	0	1	-7,258633	272,835201	306,925805	0
15.01.2021	04:04:57	0	0	3,728627	2,88375	18,0756	-0,847	81,719	0	1009,78	5,3	7,6	7,5	1	1	1	1	1	1	1	1	1	0	1	-6,8358	272,965587	307,949653	0
15.01.2021	04:04:58	0	0	3,50265	2,829	19,152	-0,851	81,696	0	1009,78	5,3	7,6	7,5	1	1	1	1	1	1	1	1	1	0	1	-9,020437	272,879965	305,370243	0
15.01.2021	04:04:59	0	0	4,067593	2,92275	7,1388	-0,847	81,718	0	1009,9	5,5	7,7	7,5	1	1	1	1	1	1	1	1	1	0	1	-8,033827	272,798908	305,983468	0
15.01.2021	04:05:00	0	0	4,745525	3,17475	14,6556	-0,845	81,704	0	1009,82	5,3	7,6	7,5	1	1	1	1	1	1	1	1	1	0	1	-7,399577	272,768251	306,476588	0
15.01.2021	04:05:01	0	0	4,745525	3,17475	14,6556	-0,845	81,704	0	1009,82	5,3	7,6	7,5	1	1	1	1	1	1	1	1	1	0	1	-7,399577	272,768251	306,476588	0
15.01.2021	04:05:02	0	0	4,067593	3,15075	24,3432	-0,85	81,716	0	1009,84	5,4	7,6	7,5	1	1	1	1	1	1	1	1	1	0	1	-6,483439	272,936068	308,165868	0
15.01.2021	04:05:03	0	0	3,163684	3,0105	10,0692	-0,844	81,731	0	1009,98	5,5	7,6	7,5	1	1	1	1	1	1	1	1	1	0	1	-7,047216	272,947308	307,653926	0
15.01.2021	04:05:04	0	0	4,519575	3,28875	4,0896	-0,845	81,729	0	1009,88	5,4	7,6	7,4	1	1	1	1	1	1	1	1	1	0	1	-9,795631	272,851976	304,46608	0
15.01.2021	04:05:05	0	0	4,519548	3,28575	13,1652	-0,843	81,725	0	1009,8	5,4	7,6	7,5	1	1	1	1	1	1	1	1	1	0	1	-5,355884	272,773822	308,54592	0
15.01.2021	04:05:06	0	0	4,519548	3,31725	13,1544	-0,846	81,73	0	1009,88	5,4	7,6	7,5	1	1	1	1	1	1	1	1	1	0	1	-7,82241	272,93045	306,800992	0
15.01.2021	04:05:07	0	0	3,163684	3,02175	19,53	-0,846	81,731	0	1009,76	5,5	7,7	7,5	1	1	1	1	1	1	1	1	1	0	1	-8,879493	272,905191	305,627456	0
15.01.2021	04:05:08	0	0	4,293571	2,87925	19,1448	-0,847	81,733	0	1009,9	5,4	7,7	7,5	1	1	1	1	1	1	1	1	1	0	1	-6,131078	272,81565	307,963312	0
15.01.2021	04:05:09	0	0	4,406559	3,00075	14,31	-0,844	81,737	0	1009,74	5,4	7,6	7,5	1	1	1	1	1	1	1	1	1	0	1	-4,087385	272,955742	310,652657	0
15.01.2021	04:05:10	0	0	4,519548	3,05625	13,158	-0,854	81,732	0	1009,94	5,4	7,7	7,5	1	1	1	1	1	1	1	1	1	0	1	-5,144468	272,924834	309,45304	0
15.01.2021	04:05:11	0	0	4,067593	3,1215	10,4436	-0,843	81,729	0	1009,94	5,4	7,6	7,5	1	1	1	1	1	1	1	1	1	0	1	-3,171247	272,801697	310,858891	0
15.01.2021	04:05:12	0	0	4,406559	3,14475	14,6448	-0,843	81,715	0	1009,78	5,4	7,6	7,5	1	1	1	1	1	1	1	1	1	0	1	-4,651163	272,909398	309,875182	0
15.01.2021	04:05:13	0	0	3,954605	3,3165	12,1068	-0,842	81,736	0	1009,92	5,4	7,6	7,5	1	1	1	1	1	1	1	1	1	0	1	-4,721635	272,840791	309,488551	0
15.01.2021	04:05:14	0	0	4,180582	3,165	21,0168	-0,844	81,732	0	1009,86	5,4	7,6	7,5	1	1	1	1	1	1	1	1	1	0	1	-9,44327	272,783573	304,503426	0
15.01.2021	04:05:15	0	0	4,971503	2,90325	14,6592	-0,845	81,737	0	1009,84	5,4	7,7	7,5	1	1	1	1	1	1	1	1	1	0	1	-6,20155	272,891173	308,240782	0
15.01.2021	04:05:16	0	0	2,937706	2,78175	10,458	-0,841	81,722	0	1009,88	5,4	7,6	7,5	1	1	1	1	1	1	1	1	1	0	1	-5,919662	272,962774	308,852814	0
15.01.2021	04:05:17	0	0	4,519548	2,81025	10,0728	-0,843	81,742	0	1009,98	5,4	7,6	7,5	1	1	1	1	1	1	1	1	1	0	1	-6,131078	272,853374	308,137075	0
15.01.2021	04:05:18	0	0	3,163684	2,868	10,458	-0,849	81,726	0	1009,76	5,4	7,6	7,5	1	1	1	1	1	1	1	1	1	0	1	-7,470049	272,95293	307,257024	0
15.01.2021	04:05:19	0	0	2,824718	2,8935	11,214	-0,842	81,722	0	1009,82	5,4	7,7	7,5	1	1	1	1	1	1	1	1	1	0	1	-4,157858	272,944497	310,530322	0
15.01.2021	04:05:20	0	0	4,971503	2,9055	8,622	-0,846	81,74	0	1009,9	5,4	7,7	7,5	1	1	1	1	1	1	1	1	1	0	1	-2,043693	272,899582	312,437402	0
15.01.2021	04:05:21	0	0	4,067593	2,949	16,1064	-0,844	81,738	0	1009,86	5,4	7,7	7,5	1	1	1	1	1	1	1	1	1	0	1	-6,765328	272,79333	307,226287	0
15.01.2021	04:05:22	0	0	3,841616	2,86125	23,9616	-0,841	81,754	0	1009,88	5,4	7,7	7,5	1	1	1	1	1	1	1	1	1	0	1	-9,795631	272,893975	304,65962	0
15.01.2021	04:05:23	0	0	2,485751	2,6505	14,3064	-0,845	81,74	0	1009,78	5,4	7,7	7,5	1	1	1	1	1	1	1	1	1	0	1	-6,272023	272,951525	308,448567	0
15.01.2021	04:05:24	0	0	2,59874	2,59275	10,458	-0,846	81,751	0	1009,88	5,4	7,7	7,5	1	1	1	1	1	1	1	1	1	0	1	-5,567301	272,814254	308,520661	0
15.01.2021	04:05:25	0	0	4,067593	2,6115	21,0096	-0,84	81,743	0	1009,94	5,4	7,6	7,5	1	1	1	1	1	1	1	1	1	0	1	-6,906272	272,895377	307,555439	0
15.01.2021	04:05:26	0	0	2,711729	2,6835	13,1868	-0,846	81,752	0	1009,94	5,4	7,6	7,5	1	1	1	1	1	1	1	1	1	0	1	-5,285412	272,790542	308,693365	0
15.01.2021	04:05:27	0	0	4,519575	2,622	5,7852	-0,838	81,75	0	1009,9	5,4	7,7	7,4	1	1	1	1	1	1	1	1	1	0	1	-6,342495	272,865965	307,983672	0
15.01.2021	04:05:28	0	0	4,406559	2,697	360	-0,85	81,736	0	1009,76	5,4	7,7	7,5	1	1	1	1	1	1	1	1	1	0	1	-7,540521	272,975437	307,290371	0
15.01.2021	04:05:29	0	0	4,519548	2,91375	8,6184	-0,841	81,733	0	1009,8	5,4	7,7	7,5	1	1	1	1	1	1	1	1	1	0	1	-8,033827	272,833804	306,144175	0
15.01.2021	04:05:30	0	0	4,180607	3,069	1,6488	-0,85	81,743	0	1009,86	5,4	7,6	7,4	1	1	1	1	1	1	1	1	1	0	1	-4,510218	272,96418	310,268746	0
15.01.2021	04:05:31	0	0	4,067593	3,063	19,9908	-0,854	81,754	0	1009,8	5,4	7,7	7,5	1	1	1	1	1	1	1	1	1	0	1	-4,22833	272,936068	310,420977	0
15.01.2021	04:05:32	0	0	4,632537	2,859	18,4536	-0,841	81,753	0	1009,86	5,4	7,7	7,5	1	1	1	1	1	1	1	1	1	0	1	-5,708245	272,867365	308,62437	0
15.01.2021	04:05:33	0	0	3,163684	2,85	16,0992	-0,841	81,735	0	1009,74	5,4	7,6	7,5	1	1	1	1	1	1	1	1	1	0	1	-7,047216	272,82263	307,079321	0
15.01.2021	04:05:34	0	0	2,937724	2,832	16,8624	-0,838	81,756	0	1009,88	5,4	7,6	7,4	1	1	1	1	1	1	1	1	1	0	1	-4,298802	272,913607	310,246944	0
15.01.2021	04:05:35	0	0	4,180582	3,05475	9,4716	-0,841	81,765	0	1009,94	5,4	7,7	7,5	1	1	1	1	1	1	1	1	1	0	1	-7,540521	272,821234	306,579585	0
15.01.2021	04:05:36	0	0	4,971503	3,2085	8,6256	-0,841	81,746	0	1009,82	5,4	7,7	7,5	1	1	1	1	1	1	1	1	1	0	1	-8,879493	272,850577	305,375775	0
15.01.2021	04:05:37	0	0	4,858514	3,156	14,3028	-0,843	81,745	0	1009,78	5,4	7,7	7,5	1	1	1	1	1	1	1	1	1	0	1	-5,496829	272,969808	309,308095	0
15.01.2021	04:05:38	0	0	3,954605	3,1335	3,4884	-0,846	81,741	0	1009,88	5,4	7,7	7,5	1	1	1	1	1	1	1	1	1	0	1	-5,84919	272,885568	308,567312	0
15.01.2021	04:05:39	0	0	2,937724	3,207	10,0584	-0,845	81,742	0	1009,8	5,4	7,7	7,4	1	1	1	1	1	1	1	1	1	0	1	-10,782241	272,811463	303,292867	0
15.01.2021	04:05:40	0	0	3,276692	3,0075	9,0108	-0,846	81,746	0	1009,76	5,4	7,7	7,4	1	1	1	1	1	1	1	1	1	0	1	-5,708245	272,810068	308,360437	0
15.01.2021	04:05:41	0	0	3,615638	2,70675	15,786	-0,84	81,746	0	1009,78	5,4	7,7	7,5	1	1	1	1	1	1	1	1	1	0	1	-6,8358	272,909398	307,690545	0
15.01.2021	04:05:42	0	0	4,180607	2,66625	4,8564	-0,848	81,75	0	1009,84	5,4	7,7	7,4	1	1	1	1	1	1	1	1	1	0	1	-2,043693	272,849179	312,205133	0
15.01.2021	04:05:43	0	0	3,841616	2,6445	17,2476	-0,845	81,764	0	1009,82	5,4	7,7	7,5	1	1	1	1	1	1	1	1	1	0	1	-5,919662	272,801697	308,110476	0
15.01.2021	04:05:44	0	0	2,711729	2,6205	16,4916	-0,845	81,748	0	1009,9	5,4	7,7	7,5	1	1	1	1	1	1	1	1	1	0	1	-4,651163	272,929046	309,965765	0
15.01.2021	04:05:45	0	0	4,406559	2,69925	16,11	-0,844	81,759	0	1009,94	5,4	7,7	7,5	1	1	1	1	1	1	1	1	1	0	1	-3,59408	272,789148	310,37828	0
15.01.2021	04:05:46	0	0	4,745554	2,88975	15,0408	-0,842	81,752	0	1009,86	5,4	7,7	7,4	1	1	1	1	1	1	1	1	1	0	1	-8,386187	272,874364	305,978681	0
15.01.2021	04:05:47	0	0	3,728649	3,1155	11,2104	-0,841	81,772	0	1009,84	5,4	7,7	7,4	1	1	1	1	1	1	1	1	1	0	1	-4,862579	272,978252	309,9813	0
15.01.2021	04:05:48	0	0	4,858543	3,2115	26,5284	-0,842	81,76	0	1009,9	5,4	7,7	7,4	1	1	1	1	1	1	1	1	1	0	1	-4,087385	272,796119	309,917068	0
15.01.2021	04:05:49	0	0	3,050695	2,98725	21,024	-0,846	81,764	0	1009,84	5,4	7,7	7,5	1	1	1	1	1	1	1	1	1	0	1	-4,369274	272,912204	310,170004	0
15.01.2021	04:05:50	0	0	3,615638	2,62125	20,6388	-0,843	81,755	0	1009,98	5,4	7,7	7,5	1	1	1	1	1	1	1	1	1	0	1	-9,584214	272,803092	304,452347	0
15.01.2021	04:05:51	0	0	4,858543	2,31075	8,6148	-0,84	81,753	0	1009,88	5,4	7,7	7,4	1	1	1	1	1	1	1	1	1	0	1	-6,8358	272,836599	307,355074	0
15.01.2021	04:05:52	0	0	4,745554	2,15775	23,9616	-0,841	81,748	0	1010,04	5,4	7,7	7,4	1	1	1	1	1	1	1	1	1	0	1	-8,80902	272,959961	305,950481	0
15.01.2021	04:05:53	0	0	3,954628	2,24925	21,0312	-0,845	81,758	0	1009,86	5,4	7,7	7,4	1	1	1	1	1	1	1	1	1	0	1	-7,681466	272,96418	307,097499	0
15.01.2021	04:05:54	0	0	2,824718	2,42625	11,196	-0,839	81,752	0	1009,78	5,4	7,7	7,5	1	1	1	1	1	1	1	1	1	0	1	-10,288936	272,858969	304,004996	0
15.01.2021	04:05:55	0	0	3,163703	2,808	11,7216	-0,846	81,759	0	1009,88	5,4	7,7	7,4	1	1	1	1	1	1	1	1	1	0	1	-5,919662	272,807277	308,13617	0
15.01.2021	04:05:56	0	0	3,276692	2,96475	9,3636	-0,838	81,768	0	1009,66	5,4	7,7	7,4	1	1	1	1	1	1	1	1	1	0	1	-4,792107	272,847781	309,450277	0
15.01.2021	04:05:57	0	0	4,632565	2,8995	3,7944	-0,846	81,758	0	1009,8	5,4	7,7	7,4	1	1	1	1	1	1	1	1	1	0	1	-5,496829	272,804487	308,546155	0
15.01.2021	04:05:58	0	0	4,519575	2,8875	10,44	-0,848	81,767	0	1009,78	5,4	7,7	7,4	1	1	1	1	1	1	1	1	1	0	1	-10,500352	272,972622	304,317554	0
15.01.2021	04:05:59	0	0	2,824718	2,688	10,0692	-0,837	81,765	0	1009,84	5,4	7,7	7,5	1	1	1	1	1	1	1	1	1	0	1	-8,245243	272,85757	306,042243	0
15.01.2021	04:06:00	0	0	2,372777	2,673	9,3744	-0,841	81,757	0	1009,92	5,4	7,7	7,4	1	1	1	1	1	1	1	1	1	0	1	-10,641297	272,958555	304,111718	0
15.01.2021	04:06:01	0	0	2,372777	2,673	9,3744	-0,841	81,757	0	1009,92	5,4	7,7	7,4	1	1	1	1	1	1	1	1	1	0	1	-10,641297	272,958555	304,111718	0
15.01.2021	04:06:02	0	0	4,406586	2,71425	7,1388	-0,844	81,756	0	1009,74	5,4	7,7	7,4	1	1	1	1	1	1	1	1	1	0	1	-7,117689	272,856171	307,163353	0
15.01.2021	04:06:03	0	0	4,858543	2,78775	11,2032	-0,843	81,764	0	1009,88	5,4	7,7	7,4	1	1	1	1	1	1	1	1	1	0	1	-6,8358	272,96418	307,943164	0
15.01.2021	04:06:04	0	0	4,406586	2,65275	19,152	-0,84	81,766	0	1009,98	5,4	7,7	7,4	1	1	1	1	1	1	1	1	1	0	1	-9,513742	272,934663	305,129088	0
15.01.2021	04:06:05	0	0	3,61566	2,4315	14,328	-0,841	81,772	0	1009,88	5,4	7,7	7,4	1	1	1	1	1	1	1	1	1	0	1	-10,570825	272,798908	303,44647	0
15.01.2021	04:06:06	0	0	4,519575	2,47425	15,4188	-0,835	81,757	0	1009,8	5,4	7,7	7,4	1	1	1	1	1	1	1	1	1	0	1	-8,45666	272,971215	306,354755	0
15.01.2021	04:06:07	0	0	5,19748	2,616	6,8292	-0,836	81,758	0	1009,98	5,4	7,7	7,5	1	1	1	1	1	1	1	1	1	0	1	-8,386187	272,891173	306,056145	0
15.01.2021	04:06:08	0	0	3,841639	2,9685	9,3708	-0,84	81,763	0	1009,8	5,4	7,7	7,4	1	1	1	1	1	1	1	1	1	0	1	-10,218464	272,97403	304,605935	0
15.01.2021	04:06:09	0	0	2,824734	2,94225	14,652	-0,835	81,768	0	1009,96	5,4	7,7	7,4	1	1	1	1	1	1	1	1	1	0	1	-5,426357	272,957148	309,320172	0
15.01.2021	04:06:10	0	0	2,485766	2,6625	12,4704	-0,84	81,774	0	1009,88	5,4	7,7	7,4	1	1	1	1	1	1	1	1	1	0	1	-6,060606	272,893975	308,394645	0
15.01.2021	04:06:11	0	0	4,406586	2,52525	13,554	-0,836	81,763	0	1009,98	5,4	7,7	7,4	1	1	1	1	1	1	1	1	1	0	1	-7,470049	272,982476	307,393316	0
15.01.2021	04:06:12	0	0	4,745554	2,72025	16,848	-0,839	81,769	0	1009,9	5,4	7,7	7,4	1	1	1	1	1	1	1	1	1	0	1	-11,557435	272,88837	302,871981	0
15.01.2021	04:06:13	0	0	3,841639	2,835	5,2344	-0,835	81,77	0	1010,12	5,4	7,7	7,4	1	1	1	1	1	1	1	1	1	0	1	-9,866103	272,975437	304,964789	0
15.01.2021	04:06:14	0	0	4,745554	2,96175	6,8256	-0,838	81,779	0	1009,86	5,4	7,7	7,4	1	1	1	1	1	1	1	1	1	0	1	-4,22833	272,950119	310,485777	0
15.01.2021	04:06:15	0	0	3,728649	3,06975	12,4884	-0,84	81,757	0	1009,96	5,4	7,7	7,4	1	1	1	1	1	1	1	1	1	0	1	-5,21494	272,875764	309,15638	0
15.01.2021	04:06:16	0	0	4,632565	3,024	4,8528	-0,843	81,777	0	1009,9	5,4	7,7	7,4	1	1	1	1	1	1	1	1	1	0	1	-8,245243	272,982476	306,618122	0
15.01.2021	04:06:17	0	0	3,389681	2,93025	12,8412	-0,839	81,78	0	1009,9	5,4	7,7	7,4	1	1	1	1	1	1	1	1	1	0	1	-3,312192	272,836599	310,878682	0
15.01.2021	04:06:18	0	0	4,745554	2,78925	11,7252	-0,838	81,783	0	1009,86	5,4	7,7	7,4	1	1	1	1	1	1	1	1	1	0	1	-1,973221	272,97966	312,877154	0
15.01.2021	04:06:19	0	0	3,163665	2,7855	8,6184	-0,838	81,764	0	1009,86	5,4	7,7	7,6	1	1	1	1	1	1	1	1	1	0	1	-3,946441	272,812859	310,135094	0
15.01.2021	04:06:20	0	0	4,632565	2,70525	23,9796	-0,833	81,781	0	1009,96	5,4	7,7	7,4	1	1	1	1	1	1	1	1	1	0	1	-8,527132	272,900984	305,960426	0
15.01.2021	04:06:21	0	0	3,389681	2,658	12,8628	-0,839	81,774	0	1009,92	5,4	7,7	7,4	1	1	1	1	1	1	1	1	1	0	1	-8,45666	272,81565	305,63773	0
15.01.2021	04:06:22	0	0	4,745554	2,6055	15,0444	-0,838	81,774	0	1009,92	5,5	7,7	7,4	1	1	1	1	1	1	1	1	1	0	1	-3,59408	272,992335	311,314772	0
15.01.2021	04:06:23	0	0	4,406586	2,48475	10,4508	-0,84	81,788	0	1009,94	5,4	7,7	7,4	1	1	1	1	1	1	1	1	1	0	1	-9,44327	272,97403	305,381129	0
15.01.2021	04:06:24	0	0	3,954628	2,3685	16,1064	-0,843	81,784	0	1009,76	5,4	7,7	7,4	1	1	1	1	1	1	1	1	1	0	1	-5,003524	272,804487	309,03946	0
15.01.2021	04:06:25	0	0	4,519575	2,26575	16,1064	-0,838	81,775	0	1009,86	5,5	7,7	7,4	1	1	1	1	1	1	1	1	1	0	1	-7,892882	272,871564	306,459083	0
15.01.2021	04:06:26	0	0	3,050713	2,22825	10,8252	-0,839	81,791	0	1009,98	5,5	7,7	7,4	1	1	1	1	1	1	1	1	1	0	1	-6,765328	272,805882	307,28408	0
15.01.2021	04:06:27	0	0	4,632565	2,2185	8,982	-0,84	81,777	0	1009,9	5,4	7,7	7,4	1	1	1	1	1	1	1	1	1	0	1	-6,8358	272,839394	307,367948	0
15.01.2021	04:06:28	0	0	2,485736	2,3475	1,1808	-0,839	81,781	0	1009,86	5,4	7,7	7,6	1	1	1	1	1	1	1	1	1	0	1	-3,453136	272,929046	311,163792	0
15.01.2021	04:06:29	0	0	4,858543	2,55225	8,2656	-0,841	81,788	0	1009,9	5,4	7,7	7,4	1	1	1	1	1	1	1	1	1	0	1	-4,439746	272,96418	310,339218	0
15.01.2021	04:06:30	0	0	4,745554	2,73525	9,8496	-0,84	81,778	0	1009,86	5,5	7,7	7,4	1	1	1	1	1	1	1	1	1	0	1	-8,668076	272,877164	305,709697	0
15.01.2021	04:06:31	0	0	4,180607	2,76225	4,0932	-0,84	81,772	0	1009,98	5,4	7,7	7,4	1	1	1	1	1	1	1	1	1	0	1	-2,818887	272,997971	312,115972	0
15.01.2021	04:06:32	0	0	4,858485	2,69775	19,1556	-0,84	81,791	0	1009,84	5,5	7,7	7,6	1	1	1	1	1	1	1	1	1	0	1	-6,976744	272,853374	307,291409	0
15.01.2021	04:06:33	0	0	4,519521	2,51925	22,8312	-0,842	81,783	0	1009,9	5,4	7,7	7,6	1	1	1	1	1	1	1	1	1	0	1	-11,134602	272,864566	303,185117	0
15.01.2021	04:06:34	0	0	2,259788	2,418	14,6592	-0,841	81,784	0	1009,86	5,5	7,7	7,4	1	1	1	1	1	1	1	1	1	0	1	-9,020437	272,805882	305,028971	0
15.01.2021	04:06:35	0	0	5,084522	2,4255	7,5132	-0,842	81,773	0	1009,76	5,4	7,7	7,4	1	1	1	1	1	1	1	1	1	0	1	-2,184637	272,863167	312,128634	0
15.01.2021	04:06:36	0	0	4,519521	2,34375	23,2236	-0,84	81,79	0	1009,92	5,5	7,7	7,6	1	1	1	1	1	1	1	1	1	0	1	-5,144468	272,985292	309,731891	0
15.01.2021	04:06:37	0	0	2,711713	2,22825	9,7488	-0,838	81,793	0	1009,82	5,5	7,7	7,6	1	1	1	1	1	1	1	1	1	0	1	-11,275546	272,821234	302,84456	0
15.01.2021	04:06:38	0	0	4,293596	2,20425	21,402	-0,837	81,791	0	1009,94	5,4	7,7	7,4	1	1	1	1	1	1	1	1	1	0	1	-2,184637	272,917816	312,380515	0
15.01.2021	04:06:39	0	0	3,050677	2,16975	7,1352	-0,84	81,787	0	1009,9	5,4	7,7	7,6	1	1	1	1	1	1	1	1	1	0	1	-10,288936	272,817046	303,811882	0
15.01.2021	04:06:40	0	0	2,824701	2,115	18,036	-0,836	81,786	0	1009,7	5,5	7,7	7,6	1	1	1	1	1	1	1	1	1	0	1	-1,338971	272,850577	312,916297	0
15.01.2021	04:06:41	0	0	3,050713	2,02875	9	-0,836	81,802	0	1009,98	5,5	7,7	7,4	1	1	1	1	1	1	1	1	1	0	1	-6,765328	272,957148	307,981201	0
15.01.2021	04:06:42	0	0	3,61566	1,9695	16,8444	-0,836	81,782	0	1009,82	5,5	7,7	7,4	1	1	1	1	1	1	1	1	1	0	1	-5,990134	273,005018	308,977244	0
15.01.2021	04:06:43	0	0	3,841639	1,9455	16,1136	-0,837	81,795	0	1009,88	5,4	7,7	7,4	1	1	1	1	1	1	1	1	1	0	1	-6,342495	272,871564	308,009471	0
15.01.2021	04:06:44	0	0	5,084522	1,971	10,9224	-0,834	81,79	0	1009,98	5,5	7,7	7,4	1	1	1	1	1	1	1	1	1	0	1	-8,668076	272,959961	306,091425	0
15.01.2021	04:06:45	0	0	3,728649	1,9395	23,5908	-0,837	81,79	0	1010,06	5,5	7,7	7,4	1	1	1	1	1	1	1	1	1	0	1	-3,523608	272,993743	311,391745	0
15.01.2021	04:06:46	0	0	5,084522	1,88625	18,8496	-0,841	81,789	0	1010,1	5,5	7,6	7,4	1	1	1	1	1	1	1	1	1	0	1	-6,765328	272,871564	307,586638	0
15.01.2021	04:06:47	0	0	4,745554	1,82925	19,908	-0,843	81,792	0	1009,82	5,5	7,7	7,4	1	1	1	1	1	1	1	1	1	0	1	-3,171247	272,997971	311,763611	0
15.01.2021	04:06:48	0	0	3,728649	1,71675	18,8316	-0,839	81,776	0	1009,88	5,5	7,7	7,4	1	1	1	1	1	1	1	1	1	0	1	-8,738548	272,969808	306,066375	0
15.01.2021	04:06:49	0	0	4,971533	1,6665	18,8316	-0,841	81,781	0	1009,96	5,5	7,6	7,4	1	1	1	1	1	1	1	1	1	0	1	-8,949965	272,924834	305,647543	0
15.01.2021	04:06:50	0	0	4,180607	1,69725	13,5612	-0,839	81,791	0	1009,84	5,4	7,6	7,4	1	1	1	1	1	1	1	1	1	0	1	-7,258633	272,986701	307,624224	0
15.01.2021	04:06:51	0	0	3,841639	1,89975	16,092	-0,838	81,79	0	1009,76	5,5	7,7	7,4	1	1	1	1	1	1	1	1	1	0	1	-2,677942	272,829613	311,480756	0
15.01.2021	04:06:52	0	0	2,485766	2,09025	12,4776	-0,839	81,79	0	1010,04	5,5	7,7	7,4	1	1	1	1	1	1	1	1	1	0	1	-3,24172	272,863167	311,071551	0
15.01.2021	04:06:53	0	0	3,276692	2,1255	24,336	-0,833	81,799	0	1009,82	5,5	7,7	7,4	1	1	1	1	1	1	1	1	1	0	1	-7,329105	272,825423	306,810295	0
15.01.2021	04:06:54	0	0	4,180557	2,12175	10,8252	-0,833	81,791	0	1009,76	5,5	7,6	7,6	1	1	1	1	1	1	1	1	1	0	1	-7,258633	272,903789	307,241852	0
15.01.2021	04:06:55	0	0	2,937689	2,1	16,8696	-0,837	81,8	0	1010,04	5,4	7,7	7,6	1	1	1	1	1	1	1	1	1	0	1	-3,59408	272,824027	310,538888	0
15.01.2021	04:06:56	0	0	3,502629	2,0775	18,846	-0,828	81,793	0	1009,82	5,4	7,7	7,6	1	1	1	1	1	1	1	1	1	0	1	-5,567301	272,943092	309,114398	0
15.01.2021	04:06:57	0	0	4,971473	2,0235	9,3564	-0,833	81,792	0	1009,94	5,5	7,6	7,6	1	1	1	1	1	1	1	1	1	0	1	-6,131078	273,003608	308,829795	0
15.01.2021	04:06:58	0	0	2,937724	2,17575	9,0036	-0,839	81,794	0	1009,82	5,5	7,7	7,4	1	1	1	1	1	1	1	1	1	0	1	-3,100775	272,886969	311,322183	0
15.01.2021	04:06:59	0	0	3,050677	2,26875	16,1172	-0,835	81,782	0	1009,94	5,5	7,7	7,6	1	1	1	1	1	1	1	1	1	0	1	-7,329105	272,817046	306,771713	0
15.01.2021	04:07:00	0	0	4,632509	2,31525	5,2308	-0,836	81,799	0	1009,88	5,5	7,6	7,6	1	1	1	1	1	1	1	1	1	0	1	-9,866103	272,99938	305,075258	0
15.01.2021	04:07:01	0	0	3,954628	2,46375	15,8004	-0,836	81,795	0	1009,96	5,5	7,6	7,4	1	1	1	1	1	1	1	1	1	0	1	-9,866103	272,99938	305,075258	0
15.01.2021	04:07:02	0	0	3,954628	2,46375	15,8004	-0,836	81,795	0	1009,96	5,5	7,6	7,4	1	1	1	1	1	1	1	1	1	0	1	-6,272023	272,88837	308,157393	0
15.01.2021	04:07:03	0	0	4,406533	2,4555	16,092	-0,836	81,801	0	1009,72	5,5	7,7	7,6	1	1	1	1	1	1	1	1	1	0	1	-8,033827	272,993743	306,881527	0
15.01.2021	04:07:04	0	0	4,067569	2,3715	13,9176	-0,84	81,79	0	1009,8	5,5	7,7	7,6	1	1	1	1	1	1	1	1	1	0	1	-9,725159	272,853374	304,542995	0
15.01.2021	04:07:05	0	0	3,389681	2,382	17,7084	-0,837	81,799	0	1009,82	5,5	7,8	7,4	1	1	1	1	1	1	1	1	1	0	1	-5,990134	272,99938	308,951227	0
15.01.2021	04:07:06	0	0	3,841593	2,2845	11,7324	-0,833	81,795	0	1009,84	5,5	7,6	7,6	1	1	1	1	1	1	1	1	1	0	1	-9,584214	272,850577	304,671054	0
15.01.2021	04:07:07	0	0	3,276692	2,316	8,2692	-0,837	81,802	0	1009,98	5,5	7,6	7,4	1	1	1	1	1	1	1	1	1	0	1	-9,725159	272,95293	305,001915	0
15.01.2021	04:07:08	0	0	4,180557	2,376	21,0024	-0,838	81,783	0	1009,88	5,5	7,6	7,6	1	1	1	1	1	1	1	1	1	0	1	-6,976744	272,997971	307,958114	0
15.01.2021	04:07:09	0	0	4,406533	2,45025	6,0768	-0,83	81,803	0	1009,88	5,5	7,6	7,6	1	1	1	1	1	1	1	1	1	0	1	-4,721635	272,936068	309,927672	0
15.01.2021	04:07:10	0	0	3,954605	2,5725	4,4748	-0,837	81,805	0	1009,78	5,5	7,7	7,5	1	1	1	1	1	1	1	1	1	0	1	-7,963354	273,005018	307,004024	0
15.01.2021	04:07:11	0	0	2,824718	2,65575	5,2272	-0,836	81,81	0	1009,92	5,5	7,6	7,5	1	1	1	1	1	1	1	1	1	0	1	-8,033827	272,907996	306,486052	0
15.01.2021	04:07:12	0	0	4,406533	2,778	8,6076	-0,831	81,786	0	1010	5,5	7,6	7,6	1	1	1	1	1	1	1	1	1	0	1	-3,523608	272,997971	311,41125	0
15.01.2021	04:07:13	0	0	4,519521	2,748	22,932	-0,834	81,799	0	1009,78	5,5	7,6	7,6	1	1	1	1	1	1	1	1	1	0	1	-8,245243	272,892574	306,203548	0
15.01.2021	04:07:14	0	0	4,858514	2,60325	23,2164	-0,827	81,806	0	1009,92	5,5	7,6	7,5	1	1	1	1	1	1	1	1	1	0	1	-5,003524	272,829613	309,155175	0
15.01.2021	04:07:15	0	0	2,824734	2,45325	15,0408	-0,834	81,793	0	1009,94	5,5	7,6	7,4	1	1	1	1	1	1	1	1	1	0	1	-5,21494	272,884167	309,195105	0
15.01.2021	04:07:16	0	0	2,711729	2,38125	25,7976	-0,832	81,803	0	1009,96	5,5	7,6	7,5	1	1	1	1	1	1	1	1	1	0	1	-6,624383	272,837996	307,572927	0
15.01.2021	04:07:17	0	0	3,50265	2,313	20,6604	-0,837	81,8	0	1009,88	5,5	7,6	7,5	1	1	1	1	1	1	1	1	1	0	1	-12,191684	272,959961	302,567817	0
15.01.2021	04:07:18	0	0	2,937706	2,3655	22,8492	-0,833	81,809	0	1009,9	5,5	7,6	7,5	1	1	1	1	1	1	1	1	1	0	1	-6,342495	272,978252	308,501385	0
15.01.2021	04:07:19	0	0	2,372748	2,3985	7,1316	-0,833	81,817	0	1009,8	5,5	7,6	7,6	1	1	1	1	1	1	1	1	1	0	1	-9,513742	272,839394	304,690006	0
15.01.2021	04:07:20	0	0	4,519548	2,3715	11,2068	-0,831	81,813	0	1009,92	5,5	7,6	7,5	1	1	1	1	1	1	1	1	1	0	1	-10,570825	272,909398	303,95552	0
15.01.2021	04:07:21	0	0	3,728627	2,3745	1,2024	-0,828	81,804	0	1009,86	5,4	7,6	7,5	1	1	1	1	1	1	1	1	1	0	1	-2,748414	272,993743	312,166939	0
15.01.2021	04:07:22	0	0	3,841616	2,49075	5,6952	-0,83	81,814	0	1009,94	5,4	7,6	7,5	1	1	1	1	1	1	1	1	1	0	1	-6,624383	272,958555	308,128631	0
15.01.2021	04:07:23	0	0	2,59874	2,55975	19,5264	-0,83	81,8	0	1009,94	5,5	7,7	7,5	1	1	1	1	1	1	1	1	1	0	1	-8,668076	272,82263	305,458461	0
15.01.2021	04:07:24	0	0	3,954605	2,61075	359,9352	-0,833	81,795	0	1009,86	5,5	7,7	7,5	1	1	1	1	1	1	1	1	1	0	1	-6,694856	272,924834	307,902652	0
15.01.2021	04:07:25	0	0	3,163684	2,83575	0,5112	-0,836	81,818	0	1009,92	5,5	7,6	7,5	1	1	1	1	1	1	1	1	1	0	1	-4,580691	272,965587	310,204763	0
15.01.2021	04:07:26	0	0	3,50265	2,955	4,104	-0,834	81,817	0	1009,82	5,5	7,7	7,5	1	1	1	1	1	1	1	1	1	0	1	-0,422833	272,861767	313,883991	0
15.01.2021	04:07:27	0	0	2,59874	2,88675	24,3396	-0,837	81,805	0	1009,88	5,5	7,6	7,5	1	1	1	1	1	1	1	1	1	0	1	-7,258633	272,951525	307,461957	0
15.01.2021	04:07:28	0	0	4,067593	2,71725	18,4644	-0,83	81,819	0	1009,98	5,4	7,6	7,5	1	1	1	1	1	1	1	1	1	0	1	-4,510218	272,99938	310,431143	0
15.01.2021	04:07:29	0	0	4,519548	2,59425	19,5372	-0,832	81,811	0	1009,88	5,5	7,7	7,5	1	1	1	1	1	1	1	1	1	0	1	-7,610994	272,927642	306,99946	0
15.01.2021	04:07:30	0	0	3,615638	2,68275	9,3708	-0,827	81,808	0	1009,94	5,5	7,7	7,5	1	1	1	1	1	1	1	1	1	0	1	-6,272023	272,824027	307,860946	0
15.01.2021	04:07:31	0	0	4,406559	2,772	23,9832	-0,832	81,821	0	1009,94	5,4	7,6	7,5	1	1	1	1	1	1	1	1	1	0	1	-6,906272	272,909398	307,620073	0
15.01.2021	04:07:32	0	0	4,858514	2,9385	10,9044	-0,827	81,817	0	1010,02	5,5	7,6	7,5	1	1	1	1	1	1	1	1	1	0	1	-7,188161	272,854773	307,086436	0
15.01.2021	04:07:33	0	0	3,728627	3,28575	25,7832	-0,836	81,813	0	1009,9	5,4	7,6	7,5	1	1	1	1	1	1	1	1	1	0	1	-4,721635	272,837996	309,475676	0
15.01.2021	04:07:34	0	0	4,745525	3,29625	24,7428	-0,831	81,82	0	1009,9	5,5	7,7	7,5	1	1	1	1	1	1	1	1	1	0	1	-0	272,937472	314,655784	0
15.01.2021	04:07:35	0	0	2,824718	3,132	25,812	-0,831	81,817	0	1009,88	5,5	7,7	7,5	1	1	1	1	1	1	1	1	1	0	1	-9,090909	272,82682	305,054923	0
15.01.2021	04:07:36	0	0	4,632537	3,024	21,0312	-0,832	81,819	0	1009,72	5,4	7,7	7,5	1	1	1	1	1	1	1	1	1	0	1	-7,399577	272,907996	307,120302	0
15.01.2021	04:07:37	0	0	3,389661	2,92875	1,9188	-0,83	81,828	0	1009,94	5,4	7,7	7,5	1	1	1	1	1	1	1	1	1	0	1	-3,171247	272,833804	311,006755	0
15.01.2021	04:07:38	0	0	3,163684	2,8695	5,6844	-0,829	81,828	0	1009,72	5,4	7,7	7,5	1	1	1	1	1	1	1	1	1	0	1	-4,651163	272,937472	310,004621	0
15.01.2021	04:07:39	0	0	3,615638	2,814	18,8352	-0,835	81,829	0	1010	5,4	7,7	7,5	1	1	1	1	1	1	1	1	1	0	1	-6,624383	272,993743	308,29097	0
15.01.2021	04:07:40	0	0	4,406559	2,7945	24,3504	-0,827	81,81	0	1009,8	5,5	7,7	7,5	1	1	1	1	1	1	1	1	1	0	1	-6,8358	272,828217	307,316465	0
15.01.2021	04:07:41	0	0	3,276672	2,61075	19,9188	-0,83	81,831	0	1010	5,4	7,6	7,5	1	1	1	1	1	1	1	1	1	0	1	-8,245243	272,948713	306,462381	0
15.01.2021	04:07:42	0	0	3,276672	2,36175	12,8448	-0,828	81,829	0	1010,06	5,4	7,7	7,5	1	1	1	1	1	1	1	1	1	0	1	-12,825934	272,82263	301,300603	0
15.01.2021	04:07:43	0	0	4,067593	2,43	20,0196	-0,831	81,811	0	1009,72	5,4	7,7	7,5	1	1	1	1	1	1	1	1	1	0	1	-8,315715	272,882766	306,087875	0
15.01.2021	04:07:44	0	0	3,728627	2,52975	19,5336	-0,831	81,816	0	1009,7	5,4	7,7	7,5	1	1	1	1	1	1	1	1	1	0	1	-11,275546	272,828217	302,876719	0
15.01.2021	04:07:45	0	0	4,406559	2,56575	25,0308	-0,829	81,842	0	1009,86	5,4	7,7	7,5	1	1	1	1	1	1	1	1	1	0	1	-6,906272	272,971215	307,905143	0
15.01.2021	04:07:46	0	0	4,519548	2,532	17,2404	-0,83	81,852	0	1010	5,5	7,7	7,5	1	1	1	1	1	1	1	1	1	0	1	-10,923185	272,843587	303,299878	0
15.01.2021	04:07:47	0	0	4,519548	2,61375	25,9092	-0,828	81,842	0	1009,84	5,4	7,7	7,5	1	1	1	1	1	1	1	1	1	0	1	-2,959831	272,989517	311,936023	0
15.01.2021	04:07:48	0	0	3,50265	2,74125	18,4608	-0,832	81,824	0	1009,96	5,4	7,7	7,5	1	1	1	1	1	1	1	1	1	0	1	-6,483439	272,874364	307,881429	0
15.01.2021	04:07:49	0	0	4,067593	2,67525	10,062	-0,83	81,846	0	1009,96	5,4	7,7	7,5	1	1	1	1	1	1	1	1	1	0	1	-5,708245	272,856171	308,572796	0
15.01.2021	04:07:50	0	0	3,163684	2,622	8,9964	-0,834	81,844	0	1009,84	5,4	7,7	7,5	1	1	1	1	1	1	1	1	1	0	1	-8,45666	272,870164	305,888855	0
15.01.2021	04:07:51	0	0	2,711729	2,67225	12,4992	-0,824	81,837	0	1009,88	5,4	7,7	7,5	1	1	1	1	1	1	1	1	1	0	1	-6,272023	272,82263	307,854515	0
15.01.2021	04:07:52	0	0	4,971503	2,79675	3,7836	-0,828	81,865	0	1009,92	5,4	7,7	7,5	1	1	1	1	1	1	1	1	1	0	1	-5,567301	272,950119	309,146806	0
15.01.2021	04:07:53	0	0	3,276672	2,88525	7,8912	-0,829	81,847	0	1009,8	5,4	7,7	7,5	1	1	1	1	1	1	1	1	1	0	1	-4,933051	273,013478	310,07337	0
15.01.2021	04:07:54	0	0	2,711729	2,841	10,0512	-0,825	81,847	0	1009,82	5,4	7,7	7,5	1	1	1	1	1	1	1	1	1	0	1	-7,82241	272,860368	306,477967	0
15.01.2021	04:07:55	0	0	3,163684	2,6175	360	-0,829	81,855	0	1009,84	5,4	7,7	7,5	1	1	1	1	1	1	1	1	1	0	1	-7,047216	273,000789	307,900648	0
15.01.2021	04:07:56	0	0	5,084492	2,64075	4,0896	-0,83	81,847	0	1009,9	5,4	7,7	7,5	1	1	1	1	1	1	1	1	1	0	1	-5,496829	272,992335	309,412024	0
15.01.2021	04:07:57	0	0	4,067593	2,589	16,4844	-0,825	81,86	0	1009,98	5,4	7,7	7,5	1	1	1	1	1	1	1	1	1	0	1	-8,527132	272,982476	306,336234	0
15.01.2021	04:07:58	0	0	5,536446	2,49975	18,4356	-0,83	81,857	0	1009,84	5,4	7,7	7,5	1	1	1	1	1	1	1	1	1	0	1	-4,792107	272,864566	309,527611	0
15.01.2021	04:07:59	0	0	3,050695	2,685	15,4224	-0,824	81,857	0	1009,7	5,4	7,7	7,5	1	1	1	1	1	1	1	1	1	0	1	-7,610994	272,96418	307,167971	0
15.01.2021	04:08:00	0	0	4,519548	3,1395	8,6148	-0,827	81,86	0	1009,9	5,4	7,7	7,5	1	1	1	1	1	1	1	1	1	0	1	-3,946441	272,91501	310,605773	0
15.01.2021	04:08:01	0	0	2,485751	3,3525	18,4608	-0,825	81,872	0	1009,8	5,4	7,7	7,5	1	1	1	1	1	1	1	1	1	0	1	-3,946441	272,91501	310,605773	0
15.01.2021	04:08:02	0	0	2,485751	3,3525	18,4608	-0,825	81,872	0	1009,8	5,4	7,7	7,5	1	1	1	1	1	1	1	1	1	0	1	-7,751938	273,007837	307,228452	0
15.01.2021	04:08:03	0	0	4,858514	3,48	15,408	-0,819	81,863	0	1009,96	5,4	7,7	7,5	1	1	1	1	1	1	1	1	1	0	1	-6,483439	272,944497	308,204741	0
15.01.2021	04:08:04	0	0	2,59874	3,4875	10,062	-0,822	81,866	0	1009,92	5,4	7,7	7,5	1	1	1	1	1	1	1	1	1	0	1	-7,399577	272,844985	306,829926	0
15.01.2021	04:08:05	0	0	4,180582	3,36375	7,1352	-0,825	81,868	0	1009,9	5,4	7,7	7,5	1	1	1	1	1	1	1	1	1	0	1	-5,778717	272,934663	308,864112	0
15.01.2021	04:08:06	0	0	2,711729	3,30075	4,0968	-0,823	81,863	0	1009,88	5,4	7,7	7,5	1	1	1	1	1	1	1	1	1	0	1	-9,584214	272,829613	304,574484	0
15.01.2021	04:08:07	0	0	4,971503	3,63	7,8984	-0,831	81,854	0	1009,78	5,4	7,7	7,5	1	1	1	1	1	1	1	1	1	0	1	-2,959831	272,927642	311,650623	0
15.01.2021	04:08:08	0	0	3,615638	3,76575	10,8216	-0,824	81,87	0	1009,86	5,4	7,7	7,5	1	1	1	1	1	1	1	1	1	0	1	-5,708245	273,027586	309,363294	0
15.01.2021	04:08:09	0	0	2,937706	3,81075	12,0888	-0,822	81,869	0	1009,86	5,4	7,7	7,5	1	1	1	1	1	1	1	1	1	0	1	-4,933051	272,910801	309,59976	0
15.01.2021	04:08:10	0	0	5,084492	3,444	16,8624	-0,825	81,875	0	1010	5,4	7,7	7,5	1	1	1	1	1	1	1	1	1	0	1	-9,302326	273,024763	305,756185	0
15.01.2021	04:08:11	0	0	2,824718	3,35925	18,0792	-0,819	81,868	0	1009,86	5,4	7,7	7,5	1	1	1	1	1	1	1	1	1	0	1	-7,258633	272,851976	307,003077	0
15.01.2021	04:08:12	0	0	4,745525	3,4845	360	-0,824	81,869	0	1009,9	5,4	7,7	7,5	1	1	1	1	1	1	1	1	1	0	1	-2,889359	272,868765	311,449706	0
15.01.2021	04:08:13	0	0	3,163684	3,62475	6,066	-0,806	81,867	0	1009,94	5,4	7,7	7,5	1	1	1	1	1	1	1	1	1	0	1	-7,470049	272,871564	306,881916	0
15.01.2021	04:08:14	0	0	2,711729	3,6465	8,6112	-0,825	81,876	0	1009,88	5,4	7,7	7,5	1	1	1	1	1	1	1	1	1	0	1	-2,255109	272,907996	312,26477	0
15.01.2021	04:08:15	0	0	3,615638	3,5655	10,4328	-0,826	81,863	0	1009,88	5,7	7,7	7,5	1	1	1	1	1	1	1	1	1	0	1	-7,82241	272,82263	306,304127	0
15.01.2021	04:08:16	0	0	3,728627	3,40575	13,9248	-0,823	81,878	0	1009,9	5,7	7,7	7,5	1	1	1	1	1	1	1	1	1	0	1	-6,272023	272,983884	308,597839	0
15.01.2021	04:08:17	0	0	4,519548	3,333	8,2692	-0,824	81,89	0	1009,9	5,4	7,7	7,5	1	1	1	1	1	1	1	1	1	0	1	-9,725159	272,986701	305,157698	0
15.01.2021	04:08:18	0	0	3,615638	3,3795	18,4536	-0,823	81,876	0	1009,86	5,4	7,7	7,5	1	1	1	1	1	1	1	1	1	0	1	-6,906272	272,871564	307,445693	0
15.01.2021	04:08:19	0	0	4,632537	3,1485	13,554	-0,825	81,891	0	1009,98	5,4	7,7	7,5	1	1	1	1	1	1	1	1	1	0	1	-7,610994	272,891173	306,831339	0
15.01.2021	04:08:20	0	0	3,163684	3,3195	9,0072	-0,826	81,883	0	1009,94	5,4	7,7	7,5	1	1	1	1	1	1	1	1	1	0	1	-8,315715	272,832407	305,855852	0
15.01.2021	04:08:21	0	0	4,067593	3,309	14,652	-0,824	81,894	0	1009,92	5,4	7,7	7,5	1	1	1	1	1	1	1	1	1	0	1	-8,245243	272,874364	306,119625	0
15.01.2021	04:08:22	0	0	2,711729	3,22725	18,8388	-0,822	81,893	0	1009,76	5,4	7,7	7,5	1	1	1	1	1	1	1	1	1	0	1	-7,470049	272,886969	306,952909	0
15.01.2021	04:08:23	0	0	3,276672	3,20325	6,444	-0,825	81,892	0	1009,84	5,4	7,7	7,5	1	1	1	1	1	1	1	1	1	0	1	-5,567301	273,009247	309,419596	0
15.01.2021	04:08:24	0	0	4,180607	3,1935	5,2236	-0,823	81,879	0	1009,78	5,4	7,7	7,4	1	1	1	1	1	1	1	1	1	0	1	-5,990134	272,872964	308,368282	0
15.01.2021	04:08:25	0	0	3,163684	3,18225	4,8348	-0,827	81,869	0	1010,08	5,4	7,7	7,5	1	1	1	1	1	1	1	1	1	0	1	-0,98661	272,881366	313,410524	0
15.01.2021	04:08:26	0	0	3,163684	3,147	10,062	-0,823	81,871	0	1009,98	5,3	7,7	7,5	1	1	1	1	1	1	1	1	1	0	1	-7,751938	272,909398	306,774407	0
15.01.2021	04:08:27	0	0	4,519548	3,00975	16,8588	-0,818	81,899	0	1009,94	5,4	7,7	7,5	1	1	1	1	1	1	1	1	1	0	1	-7,047216	273,027586	308,024323	0
15.01.2021	04:08:28	0	0	3,389681	2,8875	7,128	-0,81	81,883	0	1009,64	5,7	7,7	7,4	1	1	1	1	1	1	1	1	1	0	1	-3,312192	272,92343	311,278844	0
15.01.2021	04:08:29	0	0	2,937706	2,61825	3,402	-0,828	81,886	0	1009,86	5,4	7,7	7,5	1	1	1	1	1	1	1	1	1	0	1	-5,637773	273,017709	309,388177	0
15.01.2021	04:08:30	0	0	3,050695	2,4525	6,4368	-0,827	81,887	0	1009,88	5,4	7,7	7,5	1	1	1	1	1	1	1	1	1	0	1	-4,087385	273,030409	310,997184	0
15.01.2021	04:08:31	0	0	3,954605	2,42175	10,4508	-0,823	81,886	0	1009,96	5,7	7,7	7,5	1	1	1	1	1	1	1	1	1	0	1	-5,144468	272,895377	309,317243	0
15.01.2021	04:08:32	0	0	4,971533	2,41125	6,4332	-0,819	81,903	0	1009,98	5,7	7,7	7,4	1	1	1	1	1	1	1	1	1	0	1	-3,312192	273,013478	311,694229	0
15.01.2021	04:08:33	0	0	4,745554	2,406	7,5096	-0,822	81,889	0	1009,9	5,7	7,7	7,4	1	1	1	1	1	1	1	1	1	0	1	-4,087385	272,943092	310,594314	0
15.01.2021	04:08:34	0	0	3,61566	2,451	4,1112	-0,822	81,881	0	1010,02	5,7	7,7	7,4	1	1	1	1	1	1	1	1	1	0	1	-4,087385	272,849179	310,16144	0
15.01.2021	04:08:35	0	0	4,745554	2,523	354,7152	-0,831	81,89	0	1009,82	5,7	7,7	7,4	1	1	1	1	1	1	1	1	1	0	1	-7,399577	272,927642	307,210877	0
15.01.2021	04:08:36	0	0	4,180607	2,78475	16,11	-0,822	81,9	0	1009,84	5,7	7,7	7,4	1	1	1	1	1	1	1	1	1	0	1	-10,42988	272,850577	303,825388	0
15.01.2021	04:08:37	0	0	4,180582	2,835	13,1616	-0,824	81,903	0	1010	5,7	7,7	7,5	1	1	1	1	1	1	1	1	1	0	1	-4,298802	272,879965	310,091878	0
15.01.2021	04:08:38	0	0	4,406586	2,75175	6,822	-0,821	81,904	0	1009,92	5,7	7,7	7,4	1	1	1	1	1	1	1	1	1	0	1	-7,117689	272,962774	307,654787	0
15.01.2021	04:08:39	0	0	2,598756	2,6445	16,8552	-0,824	81,894	0	1009,88	5,7	7,7	7,4	1	1	1	1	1	1	1	1	1	0	1	-5,355884	272,849179	308,892941	0
15.01.2021	04:08:40	0	0	3,276672	2,40525	4,8384	-0,821	81,902	0	1009,9	5,7	7,7	7,5	1	1	1	1	1	1	1	1	1	0	1	-5,073996	272,896779	309,394176	0
15.01.2021	04:08:41	0	0	3,502671	2,25075	8,2692	-0,821	81,895	0	1009,94	5,6	7,7	7,4	1	1	1	1	1	1	1	1	1	0	1	-4,157858	272,849179	310,090968	0
15.01.2021	04:08:42	0	0	3,841639	2,13075	25,4124	-0,81	81,908	0	1009,98	5,7	7,7	7,4	1	1	1	1	1	1	1	1	1	0	1	-3,382664	272,92343	311,208372	0
15.01.2021	04:08:43	0	0	3,61566	2,157	359,1576	-0,819	81,897	0	1009,88	5,6	7,7	7,4	1	1	1	1	1	1	1	1	1	0	1	-5,567301	272,886969	308,855658	0
15.01.2021	04:08:44	0	0	4,858543	2,34675	26,91	-0,82	81,913	0	1009,94	5,6	7,7	7,4	1	1	1	1	1	1	1	1	1	0	1	-5,073996	272,961367	309,691992	0
15.01.2021	04:08:45	0	0	4,406559	2,526	352,4688	-0,821	81,905	0	1009,86	5,6	7,7	7,5	1	1	1	1	1	1	1	1	1	0	1	-6,060606	272,850577	308,194662	0
15.01.2021	04:08:46	0	0	3,389641	2,62125	26,9028	-0,821	81,902	0	1009,9	5,7	7,7	7,6	1	1	1	1	1	1	1	1	1	0	1	-3,875969	272,983884	310,993893	0
15.01.2021	04:08:47	0	0	3,841639	2,7345	35,8776	-0,815	81,905	0	1010,04	5,6	7,7	7,4	1	1	1	1	1	1	1	1	1	0	1	-6,272023	272,961367	308,493966	0
15.01.2021	04:08:48	0	0	4,745554	2,679	22,068	-0,82	81,915	0	1009,96	5,7	7,7	7,4	1	1	1	1	1	1	1	1	1	0	1	-9,020437	273,033232	306,077165	0
15.01.2021	04:08:49	0	0	2,711713	2,6805	23,5836	-0,819	81,895	0	1009,9	5,7	7,7	7,6	1	1	1	1	1	1	1	1	1	0	1	-4,157858	272,929046	310,45907	0
15.01.2021	04:08:50	0	0	4,519521	2,652	24,336	-0,816	81,897	0	1009,86	5,6	7,7	7,6	1	1	1	1	1	1	1	1	1	0	1	-6,272023	273,028997	308,806031	0
15.01.2021	04:08:51	0	0	3,389641	2,679	21,3948	-0,816	81,906	0	1009,84	5,7	7,7	7,6	1	1	1	1	1	1	1	1	1	0	1	-6,20155	272,872964	308,156866	0
15.01.2021	04:08:52	0	0	5,084522	2,72925	4,0824	-0,824	81,901	0	1009,96	5,6	7,7	7,4	1	1	1	1	1	1	1	1	1	0	1	-8,315715	272,988109	306,57364	0
15.01.2021	04:08:53	0	0	2,711713	2,8125	12,1068	-0,817	81,916	0	1009,82	5,6	7,7	7,6	1	1	1	1	1	1	1	1	1	0	1	-6,8358	272,853374	307,432354	0
15.01.2021	04:08:54	0	0	4,632509	3,0315	4,842	-0,82	81,911	0	1009,84	5,6	7,7	7,6	1	1	1	1	1	1	1	1	1	0	1	-7,047216	272,954336	307,686342	0
15.01.2021	04:08:55	0	0	3,502671	3,4335	17,7084	-0,82	81,898	0	1009,76	5,6	7,7	7,4	1	1	1	1	1	1	1	1	1	0	1	-8,245243	272,847781	305,997141	0
15.01.2021	04:08:56	0	0	3,728649	3,51525	1,0944	-0,815	81,905	0	1009,96	5,6	7,7	7,4	1	1	1	1	1	1	1	1	1	0	1	-5,637773	272,969808	309,16715	0
15.01.2021	04:08:57	0	0	4,293596	3,78075	9,7416	-0,816	81,915	0	1009,86	5,7	7,7	7,4	1	1	1	1	1	1	1	1	1	0	1	-3,523608	273,037468	311,593548	0
15.01.2021	04:08:58	0	0	3,163665	3,672	17,2368	-0,821	81,911	0	1010,02	5,7	7,7	7,6	1	1	1	1	1	1	1	1	1	0	1	-7,610994	272,982476	307,252372	0
15.01.2021	04:08:59	0	0	4,180557	3,73725	6,4332	-0,817	81,91	0	1009,82	5,6	7,7	7,6	1	1	1	1	1	1	1	1	1	0	1	-10,218464	273,028997	304,85959	0
15.01.2021	04:09:00	0	0	2,937689	3,762	22,4748	-0,818	81,915	0	1009,86	5,6	7,7	7,6	1	1	1	1	1	1	1	1	1	0	1	-9,584214	273,007837	305,396176	0
15.01.2021	04:09:01	0	0	2,937689	3,762	22,4748	-0,818	81,915	0	1009,86	5,6	7,7	7,6	1	1	1	1	1	1	1	1	1	0	1	-9,584214	273,007837	305,396176	0
15.01.2021	04:09:02	0	0	3,615617	3,55725	10,0764	-0,813	81,915	0	1009,8	5,6	7,7	7,6	1	1	1	1	1	1	1	1	1	0	1	-7,047216	272,864566	307,272502	0
15.01.2021	04:09:03	0	0	3,615617	3,609	15,0444	-0,815	81,906	0	1009,84	5,6	7,7	7,6	1	1	1	1	1	1	1	1	1	0	1	-4,792107	272,959961	309,967394	0
15.01.2021	04:09:04	0	0	4,858485	3,75375	10,4292	-0,815	81,912	0	1009,82	5,6	7,7	7,6	1	1	1	1	1	1	1	1	1	0	1	-8,245243	273,023352	306,806754	0
15.01.2021	04:09:05	0	0	3,61566	3,8235	14,3064	-0,816	81,903	0	1010,04	5,6	7,7	7,4	1	1	1	1	1	1	1	1	1	0	1	-5,426357	273,013478	309,580064	0
15.01.2021	04:09:06	0	0	4,632509	3,8355	4,0824	-0,824	81,905	0	1009,82	5,6	7,7	7,6	1	1	1	1	1	1	1	1	1	0	1	-10,782241	272,936068	303,867066	0
15.01.2021	04:09:07	0	0	3,728649	3,738	3,7944	-0,81	81,906	0	1009,72	5,6	7,7	7,4	1	1	1	1	1	1	1	1	1	0	1	-6,8358	272,871564	307,516165	0
15.01.2021	04:09:08	0	0	3,163665	3,66675	15,7896	-0,814	81,925	0	1009,96	5,6	7,7	7,6	1	1	1	1	1	1	1	1	1	0	1	-8,315715	273,007837	306,664675	0
15.01.2021	04:09:09	0	0	4,519521	3,55125	15,7896	-0,819	81,912	0	1009,98	5,6	7,7	7,6	1	1	1	1	1	1	1	1	1	0	1	-10,147992	272,97966	304,702383	0
15.01.2021	04:09:10	0	0	4,519521	3,34425	9,3924	-0,816	81,922	0	1009,74	5,6	7,7	7,6	1	1	1	1	1	1	1	1	1	0	1	-5,426357	273,045942	309,729923	0
15.01.2021	04:09:11	0	0	4,745497	3,32175	11,7252	-0,812	81,928	0	1010,06	5,6	7,7	7,6	1	1	1	1	1	1	1	1	1	0	1	-5,003524	272,965587	309,78193	0
15.01.2021	04:09:12	0	0	2,937689	3,35925	13,1688	-0,818	81,909	0	1009,88	5,6	7,7	7,6	1	1	1	1	1	1	1	1	1	0	1	-10,782241	272,997971	304,152617	0
15.01.2021	04:09:13	0	0	4,858543	3,327	12,096	-0,817	81,917	0	1009,86	5,6	7,7	7,4	1	1	1	1	1	1	1	1	1	0	1	-6,624383	273,014888	308,388547	0
15.01.2021	04:09:14	0	0	2,485736	3,177	17,2476	-0,811	81,91	0	1009,9	5,6	7,7	7,6	1	1	1	1	1	1	1	1	1	0	1	-4,651163	272,937472	310,004621	0
15.01.2021	04:09:15	0	0	3,050677	3,16125	18,9324	-0,819	81,922	0	1009,88	5,6	7,7	7,6	1	1	1	1	1	1	1	1	1	0	1	-9,302326	272,872964	305,056091	0
15.01.2021	04:09:16	0	0	2,711713	3,24675	21,0168	-0,81	81,924	0	1009,94	5,6	7,7	7,6	1	1	1	1	1	1	1	1	1	0	1	-6,342495	272,975437	308,488397	0
15.01.2021	04:09:17	0	0	4,067569	3,40125	12,87	-0,819	81,924	0	1009,9	5,6	7,7	7,6	1	1	1	1	1	1	1	1	1	0	1	-9,513742	272,865965	304,812425	0
15.01.2021	04:09:18	0	0	3,728605	3,34125	8,9928	-0,816	81,913	0	1009,86	5,6	7,7	7,6	1	1	1	1	1	1	1	1	1	0	1	-6,8358	272,891173	307,606532	0
15.01.2021	04:09:19	0	0	2,711713	3,25725	0,882	-0,812	81,908	0	1010	5,6	7,7	7,6	1	1	1	1	1	1	1	1	1	0	1	-3,59408	272,983884	311,275782	0
15.01.2021	04:09:20	0	0	2,25976	3,1635	12,4704	-0,81	81,919	0	1009,76	5,6	7,7	7,6	1	1	1	1	1	1	1	1	1	0	1	-5,637773	272,875764	308,733547	0
15.01.2021	04:09:21	0	0	3,728605	3,17175	6,8184	-0,812	81,918	0	1010,04	5,6	7,7	7,6	1	1	1	1	1	1	1	1	1	0	1	-7,470049	272,926238	307,133931	0
15.01.2021	04:09:22	0	0	3,163665	2,9835	11,1924	-0,818	81,922	0	1009,82	5,6	7,7	7,6	1	1	1	1	1	1	1	1	1	0	1	-6,272023	272,861767	308,034801	0
15.01.2021	04:09:23	0	0	3,389641	2,71125	13,9176	-0,812	81,923	0	1009,82	5,6	7,7	7,6	1	1	1	1	1	1	1	1	1	0	1	-1,832276	272,898181	312,642357	0
15.01.2021	04:09:24	0	0	2,711713	2,55375	352,4004	-0,815	81,919	0	1009,9	5,6	7,7	7,6	1	1	1	1	1	1	1	1	1	0	1	-3,453136	272,959961	311,306365	0
15.01.2021	04:09:25	0	0	4,971473	2,46825	356,2632	-0,812	81,926	0	1009,92	5,6	7,7	7,6	1	1	1	1	1	1	1	1	1	0	1	-7,963354	273,048768	307,20597	0
15.01.2021	04:09:26	0	0	5,310437	2,7255	6,4512	-0,808	81,926	0	1009,78	5,6	7,7	7,6	1	1	1	1	1	1	1	1	1	0	1	-10,007047	273,005018	304,960331	0
15.01.2021	04:09:27	0	0	3,389641	2,895	5,2272	-0,813	81,927	0	1009,82	5,6	7,8	7,6	1	1	1	1	1	1	1	1	1	0	1	-9,725159	272,989517	305,170695	0
15.01.2021	04:09:28	0	0	2,937689	3,0615	6,822	-0,813	81,908	0	1010,06	5,6	7,8	7,6	1	1	1	1	1	1	1	1	1	0	1	-8,45666	273,048768	306,712665	0
15.01.2021	04:09:29	0	0	4,180557	3,02925	12,87	-0,808	81,92	0	1009,96	5,6	7,7	7,6	1	1	1	1	1	1	1	1	1	0	1	-7,329105	272,907996	307,190774	0
15.01.2021	04:09:30	0	0	4,293545	2,997	19,5264	-0,806	81,916	0	1009,9	5,6	7,7	7,6	1	1	1	1	1	1	1	1	1	0	1	-5,426357	273,033232	309,671246	0
15.01.2021	04:09:31	0	0	4,519521	2,7825	22,0932	-0,811	81,927	0	1009,92	5,6	7,7	7,6	1	1	1	1	1	1	1	1	1	0	1	-8,527132	272,938877	306,13513	0
15.01.2021	04:09:32	0	0	3,841593	2,5845	20,61	-0,812	81,921	0	1009,82	5,6	7,7	7,6	1	1	1	1	1	1	1	1	1	0	1	-4,369274	273,05018	310,806574	0
15.01.2021	04:09:33	0	0	2,937689	2,63025	14,6484	-0,808	81,929	0	1009,78	5,6	7,7	7,6	1	1	1	1	1	1	1	1	1	0	1	-6,694856	272,976845	308,14253	0
15.01.2021	04:09:34	0	0	4,632509	2,958	352,8108	-0,813	81,921	0	1009,82	5,6	7,7	7,6	1	1	1	1	1	1	1	1	1	0	1	-7,751938	272,886969	306,67102	0
15.01.2021	04:09:35	0	0	3,728605	3,018	0,5004	-0,813	81,919	0	1009,82	5,6	7,7	7,6	1	1	1	1	1	1	1	1	1	0	1	-2,748414	272,884167	311,661631	0
15.01.2021	04:09:36	0	0	3,276653	2,8815	18,864	-0,808	81,937	0	1009,88	5,6	7,7	7,6	1	1	1	1	1	1	1	1	1	0	1	-5,637773	272,886969	308,785185	0
15.01.2021	04:09:37	0	0	4,971473	2,607	22,0644	-0,816	81,922	0	1009,86	5,6	7,8	7,6	1	1	1	1	1	1	1	1	1	0	1	-4,933051	273,01912	310,09941	0
15.01.2021	04:09:38	0	0	2,824701	2,3265	22,464	-0,809	81,924	0	1009,94	5,6	7,7	7,6	1	1	1	1	1	1	1	1	1	0	1	-6,20155	272,896779	308,266621	0
15.01.2021	04:09:39	0	0	4,067569	2,22675	18,846	-0,813	81,92	0	1009,92	5,6	7,7	7,6	1	1	1	1	1	1	1	1	1	0	1	-6,906272	272,868765	307,432793	0
15.01.2021	04:09:40	0	0	5,084461	2,39025	6,5736	-0,81	81,946	0	1009,92	5,6	7,7	7,6	1	1	1	1	1	1	1	1	1	0	1	-8,879493	273,023352	306,172505	0
15.01.2021	04:09:41	0	0	2,937689	2,907	13,5504	-0,806	81,943	0	1009,88	5,6	7,7	7,6	1	1	1	1	1	1	1	1	1	0	1	-6,906272	272,941687	307,768948	0
15.01.2021	04:09:42	0	0	3,728605	3,0855	15,426	-0,816	81,941	0	1009,76	5,6	7,7	7,6	1	1	1	1	1	1	1	1	1	0	1	-8,949965	273,041704	306,18675	0
15.01.2021	04:09:43	0	0	3,728605	3,3465	12,1068	-0,81	81,95	0	1009,84	5,5	7,6	7,6	1	1	1	1	1	1	1	1	1	0	1	-7,399577	272,943092	307,282122	0
15.01.2021	04:09:44	0	0	4,745497	3,56325	15,4152	-0,81	81,931	0	1009,82	5,6	7,6	7,6	1	1	1	1	1	1	1	1	1	0	1	-7,188161	272,893975	307,26709	0
15.01.2021	04:09:45	0	0	4,745525	3,58875	11,2032	-0,816	81,938	0	1009,92	5,6	7,7	7,5	1	1	1	1	1	1	1	1	1	0	1	-7,399577	273,045942	307,756702	0
15.01.2021	04:09:46	0	0	3,050677	3,74625	8,6076	-0,807	81,95	0	1009,92	5,6	7,7	7,6	1	1	1	1	1	1	1	1	1	0	1	-3,523608	272,982476	311,339757	0
15.01.2021	04:09:47	0	0	3,502629	3,75	12,4776	-0,807	81,944	0	1009,88	5,6	7,7	7,6	1	1	1	1	1	1	1	1	1	0	1	-5,84919	273,05018	309,326659	0
15.01.2021	04:09:48	0	0	4,519521	3,594	19,5516	-0,817	81,947	0	1009,82	5,7	7,8	7,6	1	1	1	1	1	1	1	1	1	0	1	-8,949965	272,933259	305,686389	0
15.01.2021	04:09:49	0	0	3,728605	3,26625	9,0072	-0,807	81,956	0	1009,88	5,6	7,7	7,6	1	1	1	1	1	1	1	1	1	0	1	-8,386187	273,057247	306,822288	0
15.01.2021	04:09:50	0	0	4,519521	3,12375	13,1688	-0,808	81,939	0	1009,92	5,6	7,7	7,6	1	1	1	1	1	1	1	1	1	0	1	-9,090909	272,91922	305,480713	0
15.01.2021	04:09:51	0	0	2,824718	3,027	16,1028	-0,809	81,943	0	1009,72	5,6	7,8	7,5	1	1	1	1	1	1	1	1	1	0	1	-11,980268	272,889771	302,455606	0
15.01.2021	04:09:52	0	0	4,180557	2,76375	18,108	-0,817	81,945	0	1009,9	5,6	7,8	7,6	1	1	1	1	1	1	1	1	1	0	1	-4,510218	273,005018	310,45716	0
15.01.2021	04:09:53	0	0	3,728605	2,835	7,8876	-0,807	81,93	0	1009,86	5,6	7,8	7,6	1	1	1	1	1	1	1	1	1	0	1	-6,483439	273,055833	308,71851	0
15.01.2021	04:09:54	0	0	3,163665	3,0225	2,7432	-0,807	81,932	0	1010,06	5,6	7,8	7,6	1	1	1	1	1	1	1	1	1	0	1	-6,20155	272,944497	308,486629	0
15.01.2021	04:09:55	0	0	4,067593	3,0375	31,3992	-0,806	81,94	0	1009,82	5,6	7,8	7,5	1	1	1	1	1	1	1	1	1	0	1	-5,637773	272,902386	308,856248	0
15.01.2021	04:09:56	0	0	4,293545	2,946	21,0096	-0,808	81,946	0	1009,96	5,6	7,8	7,6	1	1	1	1	1	1	1	1	1	0	1	-2,889359	272,931854	311,740519	0
15.01.2021	04:09:57	0	0	5,197449	2,7885	21,0168	-0,81	81,954	0	1009,72	5,6	7,7	7,6	1	1	1	1	1	1	1	1	1	0	1	-4,792107	272,882766	309,611483	0
15.01.2021	04:09:58	0	0	2,824701	2,52	19,5372	-0,805	81,959	0	1009,98	5,6	7,7	7,6	1	1	1	1	1	1	1	1	1	0	1	-12,403101	272,899582	302,077994	0
15.01.2021	04:09:59	0	0	3,389641	2,502	12,096	-0,805	81,947	0	1009,84	5,6	7,8	7,6	1	1	1	1	1	1	1	1	1	0	1	-3,030303	272,91501	311,521911	0
15.01.2021	04:10:00	0	0	5,084461	2,73675	16,488	-0,806	81,947	0	1009,88	5,5	7,8	7,6	1	1	1	1	1	1	1	1	1	0	1	-7,258633	272,961367	307,507355	0
15.01.2021	04:10:01	0	0	3,728627	2,6865	22,1184	-0,813	81,961	0	1009,9	5,7	7,8	7,5	1	1	1	1	1	1	1	1	1	0	1	-7,258633	272,961367	307,507355	0
15.01.2021	04:10:02	0	0	3,728627	2,6865	22,1184	-0,813	81,961	0	1009,9	5,7	7,8	7,5	1	1	1	1	1	1	1	1	1	0	1	-7,188161	272,885568	307,228341	0
15.01.2021	04:10:03	0	0	4,067593	2,61375	18,072	-0,807	81,94	0	1009,84	5,6	7,7	7,5	1	1	1	1	1	1	1	1	1	0	1	-7,399577	272,93045	307,223825	0
15.01.2021	04:10:04	0	0	4,293571	2,60625	14,67	-0,806	81,954	0	1009,92	5,5	7,7	7,5	1	1	1	1	1	1	1	1	1	0	1	-7,82241	273,005018	307,144968	0
15.01.2021	04:10:05	0	0	4,632509	2,46525	26,4996	-0,804	81,955	0	1009,92	5,5	7,7	7,6	1	1	1	1	1	1	1	1	1	0	1	-6,976744	272,895377	307,484967	0
15.01.2021	04:10:06	0	0	4,971503	2,3265	15,048	-0,808	81,947	0	1010	5,6	7,7	7,5	1	1	1	1	1	1	1	1	1	0	1	-8,738548	272,955742	306,001495	0
15.01.2021	04:10:07	0	0	2,937706	2,26425	19,5336	-0,804	81,953	0	1009,96	5,7	7,7	7,5	1	1	1	1	1	1	1	1	1	0	1	-10,711769	273,048768	304,457556	0
15.01.2021	04:10:08	0	0	4,745525	2,1825	20,2788	-0,81	81,952	0	1009,88	5,5	7,8	7,5	1	1	1	1	1	1	1	1	1	0	1	-7,681466	272,976845	307,15592	0
15.01.2021	04:10:09	0	0	3,615638	2,1915	15,0372	-0,801	81,965	0	1010	5,7	7,7	7,5	1	1	1	1	1	1	1	1	1	0	1	-8,949965	272,940282	305,718776	0
15.01.2021	04:10:10	0	0	2,824718	2,25975	12,8628	-0,802	81,967	0	1009,94	5,5	7,7	7,5	1	1	1	1	1	1	1	1	1	0	1	-6,131078	273,061488	309,096981	0
15.01.2021	04:10:11	0	0	3,841593	2,5155	16,4844	-0,805	81,95	0	1009,9	5,5	7,7	7,6	1	1	1	1	1	1	1	1	1	0	1	-8,315715	273,041704	306,821	0
15.01.2021	04:10:12	0	0	2,711729	2,64975	17,2332	-0,807	81,954	0	1009,8	5,6	7,7	7,5	1	1	1	1	1	1	1	1	1	0	1	-7,188161	272,96418	307,590804	0
15.01.2021	04:10:13	0	0	4,067593	2,8065	14,022	-0,803	81,945	0	1009,86	5,5	7,7	7,5	1	1	1	1	1	1	1	1	1	0	1	-8,597604	273,061488	306,630455	0
15.01.2021	04:10:14	0	0	4,519548	2,853	13,5396	-0,805	81,972	0	1009,9	5,5	7,7	7,5	1	1	1	1	1	1	1	1	1	0	1	-3,100775	272,926238	311,503206	0
15.01.2021	04:10:15	0	0	4,519548	2,81625	15,0552	-0,805	81,959	0	1009,88	5,5	7,7	7,5	1	1	1	1	1	1	1	1	1	0	1	-5,285412	272,898181	309,189221	0
15.01.2021	04:10:16	0	0	4,180582	2,73525	16,1028	-0,803	81,943	0	1009,72	5,5	7,7	7,5	1	1	1	1	1	1	1	1	1	0	1	-11,627907	273,064316	303,613211	0
15.01.2021	04:10:17	0	0	4,293571	2,601	12,4884	-0,805	81,962	0	1010	5,7	7,7	7,5	1	1	1	1	1	1	1	1	1	0	1	-8,668076	272,965587	306,117377	0
15.01.2021	04:10:18	0	0	3,841616	2,49225	18,4608	-0,805	81,967	0	1009,98	5,5	7,7	7,5	1	1	1	1	1	1	1	1	1	0	1	-10,782241	273,057247	304,426235	0
15.01.2021	04:10:19	0	0	4,745525	2,61375	15,4188	-0,807	81,974	0	1009,92	5,5	7,7	7,5	1	1	1	1	1	1	1	1	1	0	1	-12,825934	272,969808	301,97899	0
15.01.2021	04:10:20	0	0	2,937706	2,73825	5,2272	-0,806	81,963	0	1009,9	5,6	7,7	7,5	1	1	1	1	1	1	1	1	1	0	1	-8,668076	273,067144	306,586102	0
15.01.2021	04:10:21	0	0	4,971473	2,778	12,0924	-0,806	81,978	0	1010	5,6	7,7	7,6	1	1	1	1	1	1	1	1	1	0	1	-11,346018	273,027586	303,725521	0
15.01.2021	04:10:22	0	0	2,824718	2,9505	16,866	-0,801	81,971	0	1009,84	5,6	7,7	7,5	1	1	1	1	1	1	1	1	1	0	1	-9,161381	273,017709	305,864569	0
15.01.2021	04:10:23	0	0	4,519548	3,075	15,03	-0,807	81,972	0	1010,06	5,6	7,7	7,5	1	1	1	1	1	1	1	1	1	0	1	-6,694856	273,03888	308,42882	0
15.01.2021	04:10:24	0	0	2,937706	3,14475	13,9248	-0,811	81,965	0	1009,9	5,6	7,7	7,5	1	1	1	1	1	1	1	1	1	0	1	-9,584214	273,051594	305,598159	0
15.01.2021	04:10:25	0	0	3,276672	3,18	17,7876	-0,806	81,965	0	1009,86	5,5	7,7	7,5	1	1	1	1	1	1	1	1	1	0	1	-6,20155	272,906593	308,311863	0
15.01.2021	04:10:26	0	0	4,406559	3,13125	21,0096	-0,803	81,968	0	1009,94	5,6	7,7	7,5	1	1	1	1	1	1	1	1	1	0	1	-5,073996	272,99938	309,867365	0
15.01.2021	04:10:27	0	0	3,728627	3,084	23,58	-0,804	81,97	0	1009,84	5,6	7,7	7,5	1	1	1	1	1	1	1	1	1	0	1	-10,782241	272,891173	303,660091	0
15.01.2021	04:10:28	0	0	3,728627	2,901	11,7288	-0,809	81,963	0	1010,04	5,6	7,7	7,5	1	1	1	1	1	1	1	1	1	0	1	-9,020437	272,938877	305,641825	0
15.01.2021	04:10:29	0	0	3,050695	2,7525	19,9152	-0,797	81,968	0	1009,96	5,6	7,7	7,5	1	1	1	1	1	1	1	1	1	0	1	-11,557435	272,879965	302,833245	0
15.01.2021	04:10:30	0	0	4,858514	2,79525	12,0996	-0,797	81,97	0	1009,88	5,6	7,7	7,5	1	1	1	1	1	1	1	1	1	0	1	-10,077519	273,017709	304,948431	0
15.01.2021	04:10:31	0	0	3,389661	3,13575	7,1208	-0,799	81,976	0	1009,96	5,6	7,7	7,5	1	1	1	1	1	1	1	1	1	0	1	-5,426357	272,93045	309,197046	0
15.01.2021	04:10:32	0	0	4,180582	3,28575	16,8588	-0,796	81,971	0	1009,96	5,6	7,7	7,5	1	1	1	1	1	1	1	1	1	0	1	-10,852713	273,072802	304,427594	0
15.01.2021	04:10:33	0	0	3,502629	3,30225	10,0548	-0,797	81,981	0	1010	5,6	7,7	7,6	1	1	1	1	1	1	1	1	1	0	1	-6,765328	272,950119	307,948779	0
15.01.2021	04:10:34	0	0	2,59874	3,38775	13,1796	-0,796	81,974	0	1009,88	5,6	7,7	7,5	1	1	1	1	1	1	1	1	1	0	1	-13,530655	273,045942	301,625624	0
15.01.2021	04:10:35	0	0	3,163684	3,42525	13,662	-0,799	81,966	0	1009,98	5,6	7,7	7,5	1	1	1	1	1	1	1	1	1	0	1	-9,231853	272,893975	305,223397	0
15.01.2021	04:10:36	0	0	5,310469	3,23625	13,1688	-0,797	81,98	0	1010	5,6	7,7	7,5	1	1	1	1	1	1	1	1	1	0	1	-9,584214	272,92343	305,006821	0
15.01.2021	04:10:37	0	0	4,745525	3,087	18,45	-0,799	81,973	0	1009,84	5,6	7,7	7,5	1	1	1	1	1	1	1	1	1	0	1	-10,852713	273,06573	304,394935	0
15.01.2021	04:10:38	0	0	5,19748	3,00825	5,6772	-0,795	81,987	0	1009,9	5,6	7,7	7,5	1	1	1	1	1	1	1	1	1	0	1	-7,470049	273,03182	307,621036	0
15.01.2021	04:10:39	0	0	4,745525	2,96025	21,1104	-0,799	81,991	0	1010,02	5,6	7,7	7,5	1	1	1	1	1	1	1	1	1	0	1	-7,258633	273,069973	308,008609	0
15.01.2021	04:10:40	0	0	3,728627	2,994	8,6256	-0,797	81,98	0	1009,9	5,6	7,7	7,5	1	1	1	1	1	1	1	1	1	0	1	-5,144468	272,900984	309,34309	0
15.01.2021	04:10:41	0	0	2,824718	3,1185	12,0924	-0,797	81,989	0	1009,88	5,6	7,7	7,5	1	1	1	1	1	1	1	1	1	0	1	-9,302326	273,040292	305,827869	0
15.01.2021	04:10:42	0	0	5,536446	3,22875	8,28	-0,796	81,975	0	1009,96	5,6	7,7	7,5	1	1	1	1	1	1	1	1	1	0	1	-11,205074	273,060074	304,016457	0
15.01.2021	04:10:43	0	0	3,728627	3,16425	9,3636	-0,795	81,975	0	1010,04	5,6	7,7	7,5	1	1	1	1	1	1	1	1	1	0	1	-8,668076	272,965587	306,117377	0
15.01.2021	04:10:44	0	0	4,519521	3,10875	10,818	-0,802	81,977	0	1009,9	5,6	7,7	7,6	1	1	1	1	1	1	1	1	1	0	1	-12,896406	273,02053	302,142567	0
15.01.2021	04:10:45	0	0	4,632537	3,063	8,2692	-0,795	81,979	0	1009,94	5,6	7,7	7,5	1	1	1	1	1	1	1	1	1	0	1	-4,157858	272,895377	310,303853	0
15.01.2021	04:10:46	0	0	4,067593	2,93475	5,2272	-0,799	81,973	0	1009,74	5,5	7,7	7,5	1	1	1	1	1	1	1	1	1	0	1	-7,82241	272,947308	306,878732	0
15.01.2021	04:10:47	0	0	3,50265	2,751	7,1496	-0,802	81,987	0	1010,06	5,6	7,7	7,5	1	1	1	1	1	1	1	1	1	0	1	-7,82241	272,886969	306,600548	0
15.01.2021	04:10:48	0	0	5,084492	2,56575	7,1352	-0,802	81,982	0	1009,98	5,6	7,7	7,5	1	1	1	1	1	1	1	1	1	0	1	-8,245243	273,060074	306,976288	0
15.01.2021	04:10:49	0	0	2,937706	2,619	8,6148	-0,799	81,998	0	1009,92	5,6	7,7	7,5	1	1	1	1	1	1	1	1	1	0	1	-6,20155	272,962774	308,570926	0
15.01.2021	04:10:50	0	0	4,971503	2,69475	10,836	-0,797	81,994	0	1010	5,6	7,7	7,5	1	1	1	1	1	1	1	1	1	0	1	-4,651163	272,896779	309,817009	0
15.01.2021	04:10:51	0	0	4,406559	2,61375	14,292	-0,796	81,991	0	1009,94	5,6	7,7	7,5	1	1	1	1	1	1	1	1	1	0	1	-7,188161	273,037468	307,928995	0
15.01.2021	04:10:52	0	0	4,293571	2,75475	12,1104	-0,798	81,981	0	1010,08	5,6	7,7	7,5	1	1	1	1	1	1	1	1	1	0	1	-9,161381	272,950119	305,552725	0
15.01.2021	04:10:53	0	0	3,50265	2,96025	11,2176	-0,792	81,99	0	1009,88	5,6	7,7	7,5	1	1	1	1	1	1	1	1	1	0	1	-8,245243	272,910801	306,287568	0
15.01.2021	04:10:54	0	0	3,50265	3,52275	10,5588	-0,802	81,987	0	1009,9	5,6	7,7	7,5	1	1	1	1	1	1	1	1	1	0	1	-7,892882	272,93045	306,73052	0
15.01.2021	04:10:55	0	0	4,406533	3,9465	14,6556	-0,804	81,996	0	1009,9	5,6	7,7	7,6	1	1	1	1	1	1	1	1	1	0	1	-6,624383	272,891173	307,817949	0
15.01.2021	04:10:56	0	0	3,615638	3,93975	14,6556	-0,791	82	0	1009,92	5,6	7,7	7,5	1	1	1	1	1	1	1	1	1	0	1	-8,033827	272,951525	306,686763	0
15.01.2021	04:10:57	0	0	2,824701	3,74625	21,8664	-0,795	82,004	0	1009,78	5,6	7,7	7,6	1	1	1	1	1	1	1	1	1	0	1	-6,624383	273,034644	308,479736	0
15.01.2021	04:10:58	0	0	2,59874	3,5235	16,4952	-0,797	81,995	0	1009,82	5,6	7,7	7,5	1	1	1	1	1	1	1	1	1	0	1	-11,557435	272,895377	302,904276	0
15.01.2021	04:10:59	0	0	3,276653	3,531	10,0656	-0,799	81,979	0	1009,98	5,6	7,7	7,6	1	1	1	1	1	1	1	1	1	0	1	-4,580691	272,97966	310,269684	0
15.01.2021	04:11:00	0	0	4,858514	3,7035	18,4608	-0,799	82,004	0	1009,92	5,6	7,7	7,5	1	1	1	1	1	1	1	1	1	0	1	-6,060606	273,072802	309,219701	0
15.01.2021	04:11:01	0	0	4,858514	3,7035	18,4608	-0,799	82,004	0	1009,92	5,6	7,7	7,5	1	1	1	1	1	1	1	1	1	0	1	-6,060606	273,072802	309,219701	0
15.01.2021	04:11:02	0	0	4,180582	3,6825	8,6148	-0,798	81,999	0	1009,8	5,6	7,7	7,5	1	1	1	1	1	1	1	1	1	0	1	-5,637773	272,975437	309,193119	0
15.01.2021	04:11:03	0	0	4,519548	3,771	5,6988	-0,793	82,013	0	1010,04	5,6	7,7	7,5	1	1	1	1	1	1	1	1	1	0	1	-8,597604	273,06573	306,650044	0
15.01.2021	04:11:04	0	0	4,519521	4,04925	13,9176	-0,797	82,003	0	1009,74	5,6	7,7	7,6	1	1	1	1	1	1	1	1	1	0	1	-9,654686	273,044529	305,495071	0
15.01.2021	04:11:05	0	0	4,406533	4,05525	0	-0,799	82,006	0	1009,84	5,6	7,7	7,6	1	1	1	1	1	1	1	1	1	0	1	-7,82241	272,950119	306,891697	0
15.01.2021	04:11:06	0	0	3,954581	3,84675	352,4904	-0,798	81,999	0	1009,72	5,6	7,7	7,6	1	1	1	1	1	1	1	1	1	0	1	-7,047216	273,068558	308,213493	0
15.01.2021	04:11:07	0	0	3,615638	3,70725	3,7872	-0,802	82	0	1009,78	5,6	7,7	7,5	1	1	1	1	1	1	1	1	1	0	1	-9,090909	272,947308	305,610233	0
15.01.2021	04:11:08	0	0	4,632537	3,55875	14,6556	-0,797	81,996	0	1009,96	5,6	7,7	7,5	1	1	1	1	1	1	1	1	1	0	1	-5,708245	272,962774	309,064231	0
15.01.2021	04:11:09	0	0	2,937706	3,39075	19,8972	-0,797	82,002	0	1009,82	5,6	7,7	7,5	1	1	1	1	1	1	1	1	1	0	1	-5,496829	272,893975	308,958422	0
15.01.2021	04:11:10	0	0	3,163665	3,30075	13,1544	-0,799	82,002	0	1009,66	5,6	7,7	7,6	1	1	1	1	1	1	1	1	1	0	1	-1,550388	273,03888	313,573288	0
15.01.2021	04:11:11	0	0	4,519521	3,0735	21,3912	-0,798	81,997	0	1009,9	5,6	7,7	7,6	1	1	1	1	1	1	1	1	1	0	1	-4,933051	273,075631	310,360324	0
15.01.2021	04:11:12	0	0	3,841593	2,93475	12,852	-0,798	81,995	0	1009,9	5,6	7,7	7,6	1	1	1	1	1	1	1	1	1	0	1	-2,748414	273,041704	312,388301	0
15.01.2021	04:11:13	0	0	4,971473	2,8605	9,7596	-0,794	82,012	0	1010,06	5,6	7,7	7,6	1	1	1	1	1	1	1	1	1	0	1	-6,20155	272,971215	308,609864	0
15.01.2021	04:11:14	0	0	4,519521	2,853	24,3468	-0,797	82,022	0	1009,94	5,6	7,7	7,6	1	1	1	1	1	1	1	1	1	0	1	-5,355884	273,071387	309,91789	0
15.01.2021	04:11:15	0	0	5,084461	2,80875	22,8384	-0,797	82,02	0	1010	5,6	7,7	7,6	1	1	1	1	1	1	1	1	1	0	1	-6,060606	273,048768	309,108719	0
15.01.2021	04:11:16	0	0	2,485736	2,913	11,682	-0,794	82,006	0	1010,06	5,6	7,7	7,6	1	1	1	1	1	1	1	1	1	0	1	-8,80902	272,912204	305,730258	0
15.01.2021	04:11:17	0	0	4,293545	3,10575	0,8712	-0,793	82,025	0	1009,96	5,6	7,7	7,6	1	1	1	1	1	1	1	1	1	0	1	-5,778717	273,055833	309,423232	0
15.01.2021	04:11:18	0	0	4,406533	3,105	2,6604	-0,796	82,028	0	1010	5,6	7,7	7,6	1	1	1	1	1	1	1	1	1	0	1	-6,20155	272,96418	308,577414	0
15.01.2021	04:11:19	0	0	3,389641	3,09975	13,5576	-0,791	82,018	0	1009,96	5,6	7,7	7,6	1	1	1	1	1	1	1	1	1	0	1	-2,114165	273,060074	313,107366	0
15.01.2021	04:11:20	0	0	4,293545	2,95575	16,4808	-0,797	82,014	0	1009,92	5,6	7,7	7,6	1	1	1	1	1	1	1	1	1	0	1	-9,725159	272,936068	304,924148	0
15.01.2021	04:11:21	0	0	4,858485	2,82075	18,09	-0,789	82,019	0	1010,12	5,6	7,7	7,6	1	1	1	1	1	1	1	1	1	0	1	-7,188161	273,06573	308,059487	0
15.01.2021	04:11:22	0	0	4,293545	2,66625	19,53	-0,789	82,037	0	1009,96	5,6	7,7	7,6	1	1	1	1	1	1	1	1	1	0	1	-7,751938	273,079877	307,561043	0
15.01.2021	04:11:23	0	0	2,25976	2,667	16,8444	-0,795	82,017	0	1010	5,6	7,7	7,6	1	1	1	1	1	1	1	1	1	0	1	-4,087385	272,988109	310,801969	0
15.01.2021	04:11:24	0	0	3,615617	2,66325	12,096	-0,797	82,021	0	1009,98	5,6	7,7	7,6	1	1	1	1	1	1	1	1	1	0	1	-6,553911	273,051594	308,628462	0
15.01.2021	04:11:25	0	0	3,615638	2,6385	12,852	-0,797	82,012	0	1009,78	5,6	7,7	7,5	1	1	1	1	1	1	1	1	1	0	1	-10,288936	272,929046	304,327992	0
15.01.2021	04:11:26	0	0	3,954581	2,68275	5,3244	-0,794	82,026	0	1009,94	5,6	7,7	7,6	1	1	1	1	1	1	1	1	1	0	1	-4,862579	273,033232	310,235023	0
15.01.2021	04:11:27	0	0	2,937689	2,88975	13,6368	-0,799	82,027	0	1009,92	5,6	7,7	7,6	1	1	1	1	1	1	1	1	1	0	1	-6,060606	273,082707	309,265449	0
15.01.2021	04:11:28	0	0	4,632509	3,05025	15,0264	-0,794	82,024	0	1009,94	5,6	7,7	7,6	1	1	1	1	1	1	1	1	1	0	1	-4,157858	273,016298	310,861582	0
15.01.2021	04:11:29	0	0	4,519521	3,18225	12,1104	-0,792	82,041	0	1009,96	5,6	7,7	7,6	1	1	1	1	1	1	1	1	1	0	1	-3,312192	272,898181	311,162442	0
15.01.2021	04:11:30	0	0	4,632509	3,36825	10,818	-0,794	82,027	0	1010,04	5,6	7,7	7,6	1	1	1	1	1	1	1	1	1	0	1	-4,439746	273,055833	310,762203	0
15.01.2021	04:11:31	0	0	3,728605	3,50175	4,104	-0,791	82,038	0	1010,16	5,6	7,7	7,6	1	1	1	1	1	1	1	1	1	0	1	-7,681466	273,012067	307,318447	0
15.01.2021	04:11:32	0	0	2,824701	3,65625	6,066	-0,801	82,035	0	1010,02	5,6	7,7	7,6	1	1	1	1	1	1	1	1	1	0	1	-7,188161	273,086954	308,157509	0
15.01.2021	04:11:33	0	0	4,180557	3,55875	6,4476	-0,796	82,04	0	1010,04	5,6	7,7	7,6	1	1	1	1	1	1	1	1	1	0	1	-5,637773	272,982476	309,225592	0
15.01.2021	04:11:34	0	0	3,502629	3,5025	9,378	-0,791	82,035	0	1010	5,6	7,7	7,6	1	1	1	1	1	1	1	1	1	0	1	-6,412967	272,959961	308,346534	0
15.01.2021	04:11:35	0	0	3,276653	3,3495	10,836	-0,794	82,057	0	1010,28	5,6	7,7	7,6	1	1	1	1	1	1	1	1	1	0	1	-7,681466	272,899582	306,799629	0
15.01.2021	04:11:36	0	0	2,824701	3,183	10,0656	-0,791	82,046	0	1009,98	5,6	7,7	7,6	1	1	1	1	1	1	1	1	1	0	1	-3,664553	272,975437	311,16634	0
15.01.2021	04:11:37	0	0	4,067569	3,18	5,2344	-0,791	82,044	0	1009,9	5,6	7,7	7,6	1	1	1	1	1	1	1	1	1	0	1	-4,087385	272,903789	310,413099	0
15.01.2021	04:11:38	0	0	4,745497	3,2265	16,4736	-0,796	82,043	0	1009,78	5,6	7,7	7,6	1	1	1	1	1	1	1	1	1	0	1	-4,22833	273,023352	310,823668	0
15.01.2021	04:11:39	0	0	4,180557	3,3705	12,4776	-0,794	82,044	0	1009,86	5,6	7,7	7,6	1	1	1	1	1	1	1	1	1	0	1	-9,161381	272,962774	305,611095	0
15.01.2021	04:11:40	0	0	3,841593	3,34425	22,0968	-0,791	82,045	0	1009,96	5,6	7,7	7,6	1	1	1	1	1	1	1	1	1	0	1	-11,346018	273,074217	303,940822	0
15.01.2021	04:11:41	0	0	3,163665	3,57825	14,7204	-0,787	82,046	0	1009,98	5,6	7,7	7,6	1	1	1	1	1	1	1	1	1	0	1	-6,906272	272,944497	307,781908	0
15.01.2021	04:11:42	0	0	3,389641	3,87075	16,488	-0,789	82,042	0	1009,98	5,6	7,7	7,6	1	1	1	1	1	1	1	1	1	0	1	-7,681466	272,95293	307,045608	0
15.01.2021	04:11:43	0	0	3,389641	4,017	15,4116	-0,79	82,06	0	1009,96	5,6	7,7	7,6	1	1	1	1	1	1	1	1	1	0	1	-7,892882	273,089786	307,465867	0
15.01.2021	04:11:44	0	0	3,502629	4,08525	13,9356	-0,786	82,051	0	1009,96	5,6	7,7	7,6	1	1	1	1	1	1	1	1	1	0	1	-8,033827	272,971215	306,777588	0
15.01.2021	04:11:45	0	0	2,937689	4,08375	10,4616	-0,792	82,047	0	1010,1	5,6	7,7	7,6	1	1	1	1	1	1	1	1	1	0	1	-6,272023	273,085538	309,067108	0
15.01.2021	04:11:46	0	0	3,841593	4,227	23,2272	-0,791	82,053	0	1009,9	5,6	7,8	7,6	1	1	1	1	1	1	1	1	1	0	1	-3,24172	272,936068	311,407587	0
15.01.2021	04:11:47	0	0	3,163665	4,33125	15,7896	-0,79	82,056	0	1009,94	5,6	7,7	7,6	1	1	1	1	1	1	1	1	1	0	1	-7,540521	272,962774	307,231954	0
15.01.2021	04:11:48	0	0	2,598725	4,22925	17,712	-0,786	82,044	0	1010	5,6	7,7	7,6	1	1	1	1	1	1	1	1	1	0	1	-6,060606	273,084123	309,271986	0
15.01.2021	04:11:49	0	0	3,163665	4,01175	13,2588	-0,791	82,048	0	1009,98	5,6	7,7	7,6	1	1	1	1	1	1	1	1	1	0	1	-8,949965	272,996561	305,978391	0
15.01.2021	04:11:50	0	0	3,389641	3,8505	7,1424	-0,787	82,062	0	1010,12	5,6	7,7	7,6	1	1	1	1	1	1	1	1	1	0	1	-4,369274	273,085538	310,969857	0
15.01.2021	04:11:51	0	0	3,050677	3,6555	2,6388	-0,787	82,06	0	1009,9	5,6	7,7	7,6	1	1	1	1	1	1	1	1	1	0	1	-8,386187	272,95293	306,340886	0
15.01.2021	04:11:52	0	0	4,971473	3,42225	0,1296	-0,79	82,063	0	1010,04	5,6	7,7	7,6	1	1	1	1	1	1	1	1	1	0	1	-3,100775	272,91501	311,451439	0
15.01.2021	04:11:53	0	0	2,598725	3,2655	7,506	-0,787	82,058	0	1009,86	5,6	7,7	7,6	1	1	1	1	1	1	1	1	1	0	1	-4,439746	272,900984	310,047811	0
15.01.2021	04:11:54	0	0	4,858485	3,045	359,478	-0,785	82,065	0	1010	5,6	7,7	7,6	1	1	1	1	1	1	1	1	1	0	1	-3,735025	272,989517	311,160829	0
15.01.2021	04:11:55	0	0	4,406533	2,9535	3,7836	-0,787	82,04	0	1010,02	5,6	7,7	7,6	1	1	1	1	1	1	1	1	1	0	1	-5,567301	273,082707	309,758754	0
15.01.2021	04:11:56	0	0	4,971473	2,9745	7,1316	-0,785	82,065	0	1009,9	5,6	7,7	7,6	1	1	1	1	1	1	1	1	1	0	1	-5,919662	273,006427	309,054222	0
15.01.2021	04:11:57	0	0	2,824701	2,988	360	-0,794	82,057	0	1010,02	5,6	7,8	7,6	1	1	1	1	1	1	1	1	1	0	1	-5,144468	272,97403	309,679931	0
15.01.2021	04:11:58	0	0	2,372748	2,8755	359,1036	-0,786	82,065	0	1009,98	5,6	7,7	7,6	1	1	1	1	1	1	1	1	1	0	1	-5,144468	272,993743	309,770885	0
15.01.2021	04:11:59	0	0	4,971473	2,74425	2,2968	-0,79	82,065	0	1009,92	5,6	7,7	7,6	1	1	1	1	1	1	1	1	1	0	1	-6,342495	273,08837	309,009714	0
15.01.2021	04:12:00	0	0	3,954581	2,89875	13,9284	-0,792	82,066	0	1009,86	5,7	7,8	7,6	1	1	1	1	1	1	1	1	1	0	1	-6,8358	273,09545	308,549115	0
15.01.2021	04:12:01	0	0	3,954581	2,89875	13,9284	-0,792	82,066	0	1009,86	5,7	7,8	7,6	1	1	1	1	1	1	1	1	1	0	1	-6,8358	273,09545	308,549115	0
15.01.2021	04:12:02	0	0	2,711713	3,1635	20,2968	-0,786	82,066	0	1009,92	5,6	7,7	7,6	1	1	1	1	1	1	1	1	1	0	1	-6,060606	272,91501	308,491608	0
15.01.2021	04:12:03	0	0	4,971473	3,33825	19,1448	-0,786	82,055	0	1009,9	5,6	7,7	7,6	1	1	1	1	1	1	1	1	1	0	1	-6,20155	273,023352	308,850447	0
15.01.2021	04:12:04	0	0	3,389641	3,339	18,8388	-0,787	82,07	0	1010,04	5,7	7,7	7,6	1	1	1	1	1	1	1	1	1	0	1	-4,439746	272,924834	310,157762	0
15.01.2021	04:12:05	0	0	4,406533	3,26175	7,128	-0,786	82,064	0	1009,82	5,7	7,8	7,6	1	1	1	1	1	1	1	1	1	0	1	-3,171247	272,940282	311,497493	0
15.01.2021	04:12:06	0	0	3,954581	3,123	3,4056	-0,781	82,061	0	1010,06	5,7	7,8	7,6	1	1	1	1	1	1	1	1	1	0	1	-3,805497	272,922027	310,779067	0
15.01.2021	04:12:07	0	0	4,067569	3,08475	18,45	-0,784	82,052	0	1010,08	5,6	7,8	7,6	1	1	1	1	1	1	1	1	1	0	1	-2,677942	272,933259	311,958411	0
15.01.2021	04:12:08	0	0	3,954581	3,0165	10,4472	-0,788	82,075	0	1009,96	5,6	7,8	7,6	1	1	1	1	1	1	1	1	1	0	1	-7,681466	273,027586	307,390073	0
15.01.2021	04:12:09	0	0	4,858485	2,80275	17,2404	-0,786	82,063	0	1010	5,7	7,7	7,6	1	1	1	1	1	1	1	1	1	0	1	-8,879493	273,10395	306,544689	0
15.01.2021	04:12:10	0	0	3,728605	2,67225	0,1404	-0,784	82,063	0	1010,02	5,6	7,8	7,6	1	1	1	1	1	1	1	1	1	0	1	-8,315715	273,044529	306,834042	0
15.01.2021	04:12:11	0	0	4,406533	2,67975	7,5132	-0,786	82,056	0	1009,82	5,7	7,8	7,6	1	1	1	1	1	1	1	1	1	0	1	-6,8358	273,106784	308,601475	0
15.01.2021	04:12:12	0	0	3,050677	2,625	12,4704	-0,783	82,08	0	1009,94	5,7	7,8	7,6	1	1	1	1	1	1	1	1	1	0	1	-6,060606	273,027586	309,010933	0
15.01.2021	04:12:13	0	0	4,067569	2,604	3,0312	-0,791	82,067	0	1009,82	5,6	7,7	7,6	1	1	1	1	1	1	1	1	1	0	1	-4,087385	272,927642	310,523069	0
15.01.2021	04:12:14	0	0	4,632509	2,57025	12,8592	-0,787	82,1	0	1010,28	5,6	7,7	7,6	1	1	1	1	1	1	1	1	1	0	1	-5,003524	273,068558	310,257186	0
15.01.2021	04:12:15	0	0	4,858485	2,48175	5,688	-0,782	82,062	0	1009,9	5,6	7,7	7,6	1	1	1	1	1	1	1	1	1	0	1	-6,131078	273,044529	309,018679	0
15.01.2021	04:12:16	0	0	3,050677	2,5365	6,8076	-0,786	82,066	0	1009,88	5,7	7,8	7,6	1	1	1	1	1	1	1	1	1	0	1	-1,973221	272,936068	312,676086	0
15.01.2021	04:12:17	0	0	3,728605	2,625	0,144	-0,783	82,073	0	1010	5,7	7,8	7,6	1	1	1	1	1	1	1	1	1	0	1	-6,060606	272,962774	308,71187	0
15.01.2021	04:12:18	0	0	3,389641	2,6235	352,9368	-0,784	82,079	0	1010,02	5,6	7,8	7,6	1	1	1	1	1	1	1	1	1	0	1	-5,21494	272,954336	309,518618	0
15.01.2021	04:12:19	0	0	2,485736	2,6055	357,5304	-0,781	82,083	0	1009,88	5,7	7,8	7,6	1	1	1	1	1	1	1	1	1	0	1	-3,946441	272,936068	310,702865	0
15.01.2021	04:12:20	0	0	3,163665	2,598	6,8256	-0,785	82,072	0	1009,88	5,7	7,8	7,6	1	1	1	1	1	1	1	1	1	0	1	-7,399577	273,074217	307,887264	0
15.01.2021	04:12:21	0	0	2,824701	2,58975	7,866	-0,791	82,075	0	1009,82	5,6	7,8	7,6	1	1	1	1	1	1	1	1	1	0	1	-2,959831	272,969808	311,845093	0
15.01.2021	04:12:22	0	0	4,406533	2,5635	17,6832	-0,79	82,075	0	1010,02	5,6	7,7	7,6	1	1	1	1	1	1	1	1	1	0	1	-5,778717	273,094034	309,599655	0
15.01.2021	04:12:23	0	0	3,163665	2,63775	3,402	-0,786	82,06	0	1009,86	5,7	7,8	7,6	1	1	1	1	1	1	1	1	1	0	1	-1,832276	272,954336	312,901282	0
15.01.2021	04:12:24	0	0	3,615617	2,88225	8,9964	-0,782	82,079	0	1009,98	5,7	7,8	7,6	1	1	1	1	1	1	1	1	1	0	1	-8,386187	273,092618	306,985644	0
15.01.2021	04:12:25	0	0	2,711713	3,267	5,6808	-0,785	82,08	0	1009,96	5,7	7,8	7,6	1	1	1	1	1	1	1	1	1	0	1	-5,426357	272,947308	309,274785	0
15.01.2021	04:12:26	0	0	2,824701	3,24225	18,4608	-0,782	82,087	0	1009,84	5,7	7,8	7,6	1	1	1	1	1	1	1	1	1	0	1	-9,654686	272,989517	305,241167	0
15.01.2021	04:12:27	0	0	4,519521	3,25875	13,176	-0,779	82,068	0	1009,78	5,7	7,8	7,6	1	1	1	1	1	1	1	1	1	0	1	-7,188161	272,917816	307,376992	0
15.01.2021	04:12:28	0	0	3,389641	3,4515	7,1316	-0,779	82,083	0	1010,02	5,7	7,8	7,6	1	1	1	1	1	1	1	1	1	0	1	-0,634249	272,916413	313,924434	0
15.01.2021	04:12:29	0	0	3,276653	3,38925	9,7596	-0,784	82,084	0	1010,04	5,6	7,7	7,6	1	1	1	1	1	1	1	1	1	0	1	-5,285412	272,995152	309,636442	0
15.01.2021	04:12:30	0	0	2,824701	3,12	360	-0,783	82,063	0	1009,92	5,7	7,8	7,6	1	1	1	1	1	1	1	1	1	0	1	-6,060606	272,912204	308,478672	0
15.01.2021	04:12:31	0	0	4,858485	2,92575	19,9152	-0,784	82,085	0	1009,98	5,7	7,8	7,6	1	1	1	1	1	1	1	1	1	0	1	-5,426357	272,961367	309,339632	0
15.01.2021	04:12:32	0	0	4,858485	2,71875	17,7012	-0,775	82,088	0	1010	5,7	7,8	7,6	1	1	1	1	1	1	1	1	1	0	1	-4,862579	272,936068	309,786727	0
15.01.2021	04:12:33	0	0	2,824718	2,57925	19,512	-0,78	82,089	0	1009,96	5,7	7,8	7,5	1	1	1	1	1	1	1	1	1	0	1	-3,59408	272,917816	310,971072	0
15.01.2021	04:12:34	0	0	3,050677	2,53275	16,4844	-0,787	82,08	0	1010,06	5,7	7,8	7,6	1	1	1	1	1	1	1	1	1	0	1	-0,422833	273,030409	314,661737	0
15.01.2021	04:12:35	0	0	4,519521	2,529	3,3984	-0,782	82,091	0	1009,88	5,7	7,8	7,6	1	1	1	1	1	1	1	1	1	0	1	-5,637773	272,926238	308,966208	0
15.01.2021	04:12:36	0	0	4,632509	2,54475	18,0864	-0,782	82,086	0	1009,96	5,6	7,8	7,6	1	1	1	1	1	1	1	1	1	0	1	-4,22833	273,072802	311,051977	0
15.01.2021	04:12:37	0	0	3,389641	2,48325	13,5468	-0,781	82,087	0	1010,06	5,7	7,8	7,6	1	1	1	1	1	1	1	1	1	0	1	-5,496829	273,033232	309,600774	0
15.01.2021	04:12:38	0	0	2,485751	2,5395	17,2404	-0,779	82,095	0	1009,92	5,6	7,8	7,5	1	1	1	1	1	1	1	1	1	0	1	-4,298802	272,91922	310,27282	0
15.01.2021	04:12:39	0	0	2,937689	2,5335	21,384	-0,78	82,079	0	1009,86	5,7	7,7	7,6	1	1	1	1	1	1	1	1	1	0	1	-5,990134	272,96418	308,78883	0
15.01.2021	04:12:40	0	0	2,937689	2,37825	20,646	-0,779	82,074	0	1010,04	5,7	7,8	7,6	1	1	1	1	1	1	1	1	1	0	1	-2,889359	272,957148	311,85717	0
15.01.2021	04:12:41	0	0	3,050677	2,3505	15,1164	-0,778	82,081	0	1009,74	5,6	7,8	7,6	1	1	1	1	1	1	1	1	1	0	1	-3,664553	273,086954	311,681117	0
15.01.2021	04:12:42	0	0	3,050677	2,50275	8,2584	-0,779	82,077	0	1009,98	5,7	7,8	7,6	1	1	1	1	1	1	1	1	1	0	1	-2,536998	272,997971	312,39786	0
15.01.2021	04:12:43	0	0	4,632509	2,85825	7,5204	-0,785	82,096	0	1010,04	5,7	7,8	7,6	1	1	1	1	1	1	1	1	1	0	1	-3,946441	273,089786	311,412308	0
15.01.2021	04:12:44	0	0	4,067569	3,00825	20,0016	-0,781	82,076	0	1009,84	5,7	7,8	7,6	1	1	1	1	1	1	1	1	1	0	1	-6,906272	273,106784	308,531003	0
15.01.2021	04:12:45	0	0	3,954581	3,50025	9,3708	-0,786	82,087	0	1010,02	5,7	7,8	7,6	1	1	1	1	1	1	1	1	1	0	1	-6,272023	273,027586	308,799516	0
15.01.2021	04:12:46	0	0	3,615617	3,89475	9,3852	-0,779	82,1	0	1009,96	5,7	7,8	7,6	1	1	1	1	1	1	1	1	1	0	1	-8,949965	273,102533	306,467671	0
15.01.2021	04:12:47	0	0	5,310437	3,90975	13,9176	-0,781	82,103	0	1009,92	5,7	7,8	7,6	1	1	1	1	1	1	1	1	1	0	1	-7,329105	273,091201	308,036185	0
15.01.2021	04:12:48	0	0	4,745497	3,882	9,8604	-0,777	82,088	0	1009,94	5,7	7,8	7,6	1	1	1	1	1	1	1	1	1	0	1	-9,44327	273,006427	305,530614	0
15.01.2021	04:12:49	0	0	3,728627	3,96525	14,31	-0,779	82,082	0	1010,02	5,7	7,7	7,5	1	1	1	1	1	1	1	1	1	0	1	-3,805497	273,05442	311,389926	0
15.01.2021	04:12:50	0	0	4,632509	3,86925	10,8324	-0,777	82,103	0	1009,92	5,7	7,8	7,6	1	1	1	1	1	1	1	1	1	0	1	-7,470049	273,096866	307,921409	0
15.01.2021	04:12:51	0	0	4,858514	3,97575	17,2332	-0,78	82,09	0	1010,02	5,6	7,7	7,5	1	1	1	1	1	1	1	1	1	0	1	-6,412967	273,017709	308,612983	0
15.01.2021	04:12:52	0	0	3,389641	4,1445	7,1316	-0,78	82,089	0	1010,12	5,6	7,8	7,6	1	1	1	1	1	1	1	1	1	0	1	-2,466526	272,92343	312,12451	0
15.01.2021	04:12:53	0	0	4,519548	3,87225	1,9332	-0,779	82,097	0	1010	5,7	7,7	7,5	1	1	1	1	1	1	1	1	1	0	1	-3,312192	272,926238	311,291789	0
15.01.2021	04:12:54	0	0	4,067593	3,57975	359,4564	-0,781	82,079	0	1010,06	5,7	7,7	7,5	1	1	1	1	1	1	1	1	1	0	1	-3,312192	273,033232	311,785411	0
15.01.2021	04:12:55	0	0	2,711729	3,2445	355,842	-0,779	82,091	0	1009,94	5,7	7,8	7,5	1	1	1	1	1	1	1	1	1	0	1	-3,312192	272,934663	311,330638	0
15.01.2021	04:12:56	0	0	2,711713	2,87775	356,148	-0,775	82,108	0	1009,88	5,6	7,8	7,6	1	1	1	1	1	1	1	1	1	0	1	-2,466526	273,106784	312,97075	0
15.01.2021	04:12:57	0	0	2,711729	2,65875	5,2164	-0,784	82,106	0	1009,92	5,6	7,8	7,5	1	1	1	1	1	1	1	1	1	0	1	-1,902748	273,002198	313,05162	0
15.01.2021	04:12:58	0	0	4,971503	2,7465	9,3528	-0,776	82,106	0	1009,96	5,7	7,7	7,5	1	1	1	1	1	1	1	1	1	0	1	-5,990134	272,933259	308,64622	0
15.01.2021	04:12:59	0	0	2,937689	2,7375	15,0444	-0,786	82,084	0	1009,9	5,6	7,7	7,6	1	1	1	1	1	1	1	1	1	0	1	-3,312192	273,010657	311,681213	0
15.01.2021	04:13:00	0	0	4,406559	2,43825	12,096	-0,785	82,093	0	1009,92	5,6	7,8	7,5	1	1	1	1	1	1	1	1	1	0	1	-4,087385	273,062902	311,147203	0
15.01.2021	04:13:01	0	0	4,406559	2,43825	12,096	-0,785	82,093	0	1009,92	5,6	7,8	7,5	1	1	1	1	1	1	1	1	1	0	1	-4,087385	273,062902	311,147203	0
15.01.2021	04:13:02	0	0	4,180557	2,31675	20,7432	-0,777	82,093	0	1009,94	5,6	7,7	7,6	1	1	1	1	1	1	1	1	1	0	1	-5,990134	272,969808	308,81479	0
15.01.2021	04:13:03	0	0	4,632537	2,379	8,604	-0,781	82,087	0	1009,8	5,6	7,7	7,5	1	1	1	1	1	1	1	1	1	0	1	-4,298802	273,101116	311,112289	0
15.01.2021	04:13:04	0	0	3,502629	2,41125	18,8676	-0,775	82,087	0	1010,02	5,6	7,8	7,6	1	1	1	1	1	1	1	1	1	0	1	-6,060606	272,948713	308,647018	0
15.01.2021	04:13:05	0	0	4,632537	2,2755	23,2308	-0,779	82,091	0	1009,94	5,6	7,7	7,5	1	1	1	1	1	1	1	1	1	0	1	-2,466526	273,069973	312,800716	0
15.01.2021	04:13:06	0	0	3,841616	2,181	11,718	-0,777	82,088	0	1010,06	5,7	7,7	7,5	1	1	1	1	1	1	1	1	1	0	1	-7,82241	273,033232	307,275192	0
15.01.2021	04:13:07	0	0	3,728627	2,226	25,038	-0,774	82,107	0	1009,94	5,6	7,7	7,5	1	1	1	1	1	1	1	1	1	0	1	-4,862579	273,074217	310,424261	0
15.01.2021	04:13:08	0	0	5,084431	2,2935	3,0276	-0,771	82,093	0	1009,98	5,6	7,7	7,7	1	1	1	1	1	1	1	1	1	0	1	-0,916138	273,109619	314,534233	0
15.01.2021	04:13:09	0	0	3,276672	2,4705	1,5588	-0,777	82,104	0	1009,9	5,6	7,7	7,5	1	1	1	1	1	1	1	1	1	0	1	-5,426357	273,085538	309,912774	0
15.01.2021	04:13:10	0	0	4,293545	2,52075	10,4436	-0,776	82,077	0	1010,04	5,7	7,7	7,6	1	1	1	1	1	1	1	1	1	0	1	-5,778717	273,0997	309,625828	0
15.01.2021	04:13:11	0	0	4,067569	2,68875	28,3572	-0,78	82,146	0	1009,84	5,6	7,7	7,6	1	1	1	1	1	1	1	1	1	0	1	-4,933051	273,036056	310,177586	0
15.01.2021	04:13:12	0	0	4,745525	2,8215	16,1244	-0,772	82,114	0	1009,98	5,6	7,8	7,5	1	1	1	1	1	1	1	1	1	0	1	-1,973221	273,094034	313,405152	0
15.01.2021	04:13:13	0	0	5,19748	2,946	20,3832	-0,779	82,1	0	1009,78	5,6	7,7	7,5	1	1	1	1	1	1	1	1	1	0	1	-10,359408	273,08837	304,992801	0
15.01.2021	04:13:14	0	0	3,954605	2,907	12,1032	-0,777	82,104	0	1009,98	5,6	7,7	7,5	1	1	1	1	1	1	1	1	1	0	1	-3,382664	273,036056	311,727974	0
15.01.2021	04:13:15	0	0	3,502629	2,85375	24,7068	-0,779	82,103	0	1009,92	5,6	7,7	7,6	1	1	1	1	1	1	1	1	1	0	1	-4,721635	272,965587	310,063818	0
15.01.2021	04:13:16	0	0	2,824718	2,823	16,1064	-0,775	82,106	0	1009,88	5,6	7,7	7,5	1	1	1	1	1	1	1	1	1	0	1	-3,24172	273,064316	311,999398	0
15.01.2021	04:13:17	0	0	4,406533	2,75025	7,5168	-0,781	82,106	0	1010	5,6	7,8	7,6	1	1	1	1	1	1	1	1	1	0	1	-7,610994	272,934663	307,031836	0
15.01.2021	04:13:18	0	0	5,423425	2,83725	0,4968	-0,773	82,126	0	1010,3	5,6	7,7	7,6	1	1	1	1	1	1	1	1	1	0	1	-5,990134	273,096866	309,401324	0
15.01.2021	04:13:19	0	0	3,728627	3,0135	8,6364	-0,778	82,111	0	1009,98	5,6	7,7	7,5	1	1	1	1	1	1	1	1	1	0	1	-2,677942	273,045942	312,478337	0
15.01.2021	04:13:20	0	0	3,163684	3,2295	360	-0,768	82,109	0	1010,1	5,6	7,7	7,5	1	1	1	1	1	1	1	1	1	0	1	-8,597604	272,929046	306,019324	0
15.01.2021	04:13:21	0	0	4,858485	3,40575	1,5588	-0,77	82,103	0	1009,78	5,6	7,7	7,6	1	1	1	1	1	1	1	1	1	0	1	-4,933051	272,955742	309,806991	0
15.01.2021	04:13:22	0	0	5,19748	3,47025	6,444	-0,772	82,114	0	1010	5,6	7,7	7,5	1	1	1	1	1	1	1	1	1	0	1	-4,580691	273,08837	310,771518	0
15.01.2021	04:13:23	0	0	3,389641	3,6345	16,8408	-0,772	82,113	0	1009,76	5,6	7,8	7,6	1	1	1	1	1	1	1	1	1	0	1	-8,80902	273,037468	306,308136	0
15.01.2021	04:13:24	0	0	4,858456	3,55275	18,4536	-0,77	82,11	0	1009,98	5,6	7,7	7,7	1	1	1	1	1	1	1	1	1	0	1	-5,919662	272,948713	308,787962	0
15.01.2021	04:13:25	0	0	4,067593	3,47175	19,1592	-0,776	82,109	0	1009,88	5,6	7,7	7,5	1	1	1	1	1	1	1	1	1	0	1	-2,043693	273,113871	313,426327	0
15.01.2021	04:13:26	0	0	3,389641	3,492	17,2332	-0,77	82,12	0	1009,96	5,6	7,7	7,6	1	1	1	1	1	1	1	1	1	0	1	-5,919662	273,068558	309,341048	0
15.01.2021	04:13:27	0	0	4,067569	3,69	18,4716	-0,768	82,102	0	1010,02	5,6	7,7	7,6	1	1	1	1	1	1	1	1	1	0	1	-8,174771	273,111036	307,282149	0
15.01.2021	04:13:28	0	0	3,728627	3,93	19,2456	-0,772	82,106	0	1009,96	5,6	7,7	7,5	1	1	1	1	1	1	1	1	1	0	1	-6,906272	272,972622	307,911635	0
15.01.2021	04:13:29	0	0	3,163665	3,92025	19,5228	-0,77	82,101	0	1009,88	5,6	7,7	7,6	1	1	1	1	1	1	1	1	1	0	1	-2,889359	273,047355	312,273443	0
15.01.2021	04:13:30	0	0	4,406533	3,7035	7,8948	-0,771	82,104	0	1010	5,6	7,7	7,6	1	1	1	1	1	1	1	1	1	0	1	-7,751938	272,945902	306,942723	0
15.01.2021	04:13:31	0	0	3,954581	3,603	14,3136	-0,771	82,089	0	1010,04	5,6	7,7	7,6	1	1	1	1	1	1	1	1	1	0	1	-5,990134	273,033232	309,107469	0
15.01.2021	04:13:32	0	0	2,824718	3,56775	13,932	-0,772	82,107	0	1010,02	5,6	7,7	7,5	1	1	1	1	1	1	1	1	1	0	1	-1,761804	273,113871	313,708215	0
15.01.2021	04:13:33	0	0	3,389641	3,51825	6,4404	-0,767	82,117	0	1009,96	5,6	7,7	7,6	1	1	1	1	1	1	1	1	1	0	1	-3,100775	273,044529	312,048982	0
15.01.2021	04:13:34	0	0	4,858485	3,6465	3,0312	-0,772	82,106	0	1009,78	5,6	7,7	7,6	1	1	1	1	1	1	1	1	1	0	1	-5,426357	273,119543	310,069869	0
15.01.2021	04:13:35	0	0	5,310437	3,4635	1,9188	-0,771	82,121	0	1009,9	5,6	7,7	7,6	1	1	1	1	1	1	1	1	1	0	1	-9,795631	273,044529	305,354126	0
15.01.2021	04:13:36	0	0	4,180557	3,372	18,8496	-0,767	82,109	0	1010,02	5,6	7,7	7,6	1	1	1	1	1	1	1	1	1	0	1	-3,735025	273,125216	311,787416	0
15.01.2021	04:13:37	0	0	4,067569	3,36225	10,818	-0,77	82,104	0	1009,8	5,6	7,7	7,6	1	1	1	1	1	1	1	1	1	0	1	-6,765328	273,08837	308,586881	0
15.01.2021	04:13:38	0	0	4,632509	3,8445	12,474	-0,774	82,117	0	1009,96	5,6	7,7	7,6	1	1	1	1	1	1	1	1	1	0	1	-5,84919	273,055833	309,35276	0
15.01.2021	04:13:39	0	0	2,824701	4,203	14,3028	-0,768	82,122	0	1010,08	5,6	7,7	7,6	1	1	1	1	1	1	1	1	1	0	1	-4,157858	272,934663	310,484972	0
15.01.2021	04:13:40	0	0	4,519521	4,1445	11,7252	-0,771	82,096	0	1009,88	5,6	7,7	7,6	1	1	1	1	1	1	1	1	1	0	1	-4,862579	273,003608	310,098294	0
15.01.2021	04:13:41	0	0	4,632509	4,03575	16,4844	-0,771	82,104	0	1010,02	5,6	7,7	7,6	1	1	1	1	1	1	1	1	1	0	1	-6,272023	273,009247	308,714874	0
15.01.2021	04:13:42	0	0	2,937689	3,86925	18,936	-0,775	82,08	0	1009,78	5,6	7,7	7,6	1	1	1	1	1	1	1	1	1	0	1	-4,510218	273,130891	311,038447	0
15.01.2021	04:13:43	0	0	4,067569	3,73875	12,1104	-0,777	82,098	0	1009,86	5,6	7,7	7,6	1	1	1	1	1	1	1	1	1	0	1	-6,976744	273,091201	308,388546	0
15.01.2021	04:13:44	0	0	2,824701	3,993	6,0696	-0,77	82,094	0	1010	5,7	7,7	7,6	1	1	1	1	1	1	1	1	1	0	1	-6,553911	273,074217	308,73293	0
15.01.2021	04:13:45	0	0	3,276653	4,1205	350,604	-0,775	82,109	0	1009,98	5,6	7,7	7,6	1	1	1	1	1	1	1	1	1	0	1	-8,597604	273,116707	306,885517	0
15.01.2021	04:13:46	0	0	2,711713	3,7455	8,7768	-0,771	82,105	0	1010,02	5,6	7,7	7,6	1	1	1	1	1	1	1	1	1	0	1	-4,298802	273,014888	310,714128	0
15.01.2021	04:13:47	0	0	3,050677	3,24375	358,7436	-0,77	82,083	0	1009,96	5,6	7,7	7,6	1	1	1	1	1	1	1	1	1	0	1	-10,218464	273,136568	305,356436	0
15.01.2021	04:13:48	0	0	4,632509	3,3075	4,8456	-0,78	82,133	0	1010,14	5,6	7,7	7,6	1	1	1	1	1	1	1	1	1	0	1	-8,174771	272,992335	306,734082	0
15.01.2021	04:13:49	0	0	2,937689	3,6945	6,4368	-0,768	82,104	0	1009,96	5,6	7,7	7,6	1	1	1	1	1	1	1	1	1	0	1	-3,382664	272,947308	311,318478	0
15.01.2021	04:13:50	0	0	2,598725	3,6825	6,066	-0,776	82,09	0	1009,94	5,6	7,7	7,6	1	1	1	1	1	1	1	1	1	0	1	-6,976744	272,996561	307,951612	0
15.01.2021	04:13:51	0	0	4,632509	3,37275	30,3264	-0,766	82,113	0	1009,7	5,6	7,7	7,6	1	1	1	1	1	1	1	1	1	0	1	-4,862579	273,106784	310,574696	0
15.01.2021	04:13:52	0	0	2,937706	3,156	19,152	-0,768	82,105	0	1010,04	5,7	7,7	7,5	1	1	1	1	1	1	1	1	1	0	1	-3,875969	272,940282	310,792772	0
15.01.2021	04:13:53	0	0	4,858485	3,06075	33,2424	-0,769	82,093	0	1009,92	5,7	7,7	7,6	1	1	1	1	1	1	1	1	1	0	1	-4,721635	273,064316	310,519483	0
15.01.2021	04:13:54	0	0	3,502629	2,967	15,4116	-0,765	82,103	0	1009,94	5,6	7,7	7,6	1	1	1	1	1	1	1	1	1	0	1	-5,144468	273,128054	310,391084	0
15.01.2021	04:13:55	0	0	5,310437	2,7885	25,0452	-0,772	82,083	0	1010	5,7	7,7	7,6	1	1	1	1	1	1	1	1	1	0	1	-6,272023	273,0997	309,132523	0
15.01.2021	04:13:56	0	0	2,824701	2,73675	17,6976	-0,765	82,113	0	1009,98	5,6	7,7	7,6	1	1	1	1	1	1	1	1	1	0	1	-7,399577	273,077046	307,900333	0
15.01.2021	04:13:57	0	0	4,632509	2,78925	14,2992	-0,767	82,093	0	1009,98	5,6	7,7	7,6	1	1	1	1	1	1	1	1	1	0	1	-5,84919	273,129473	309,692919	0
15.01.2021	04:13:58	0	0	2,937689	3,06225	25,7832	-0,773	82,098	0	1010,08	5,7	7,7	7,6	1	1	1	1	1	1	1	1	1	0	1	-5,778717	273,026174	309,286307	0
15.01.2021	04:13:59	0	0	3,954581	2,95275	31,392	-0,772	82,096	0	1009,86	5,6	7,7	7,6	1	1	1	1	1	1	1	1	1	0	1	-3,735025	273,010657	311,25838	0
15.01.2021	04:14:00	0	0	4,858485	2,84475	37,4076	-0,766	82,099	0	1009,98	5,7	7,8	7,6	1	1	1	1	1	1	1	1	1	0	1	-5,355884	273,051594	309,826488	0
15.01.2021	04:14:01	0	0	4,858485	2,84475	37,4076	-0,766	82,099	0	1009,98	5,7	7,8	7,6	1	1	1	1	1	1	1	1	1	0	1	-5,355884	273,051594	309,826488	0
15.01.2021	04:14:02	0	0	4,745497	2,80575	17,6976	-0,765	82,107	0	1010,12	5,6	7,7	7,6	1	1	1	1	1	1	1	1	1	0	1	-1,973221	272,96418	312,805744	0
15.01.2021	04:14:03	0	0	4,406533	2,70825	13,1652	-0,767	82,102	0	1009,98	5,6	7,7	7,6	1	1	1	1	1	1	1	1	1	0	1	-7,329105	273,101116	308,081986	0
15.01.2021	04:14:04	0	0	3,502629	2,997	12,888	-0,767	82,111	0	1009,94	5,7	7,7	7,6	1	1	1	1	1	1	1	1	1	0	1	-5,637773	273,061488	309,590286	0
15.01.2021	04:14:05	0	0	4,519521	3,34275	0	-0,759	82,101	0	1010,08	5,6	7,7	7,6	1	1	1	1	1	1	1	1	1	0	1	-1,832276	273,113871	313,637743	0
15.01.2021	04:14:06	0	0	3,163665	3,86175	13,9104	-0,765	82,097	0	1009,96	5,7	7,7	7,6	1	1	1	1	1	1	1	1	1	0	1	-3,875969	273,092618	311,495862	0
15.01.2021	04:14:07	0	0	2,711713	3,96375	21,3912	-0,764	82,096	0	1010,02	5,7	7,7	7,6	1	1	1	1	1	1	1	1	1	0	1	-5,990134	273,136568	309,584765	0
15.01.2021	04:14:08	0	0	4,971503	3,765	16,4808	-0,764	82,103	0	1010,02	5,7	7,7	7,5	1	1	1	1	1	1	1	1	1	0	1	-2,889359	273,072802	312,390948	0
15.01.2021	04:14:09	0	0	3,954581	3,5655	24,3432	-0,765	82,098	0	1010,2	5,6	7,7	7,6	1	1	1	1	1	1	1	1	1	0	1	-3,453136	273,135149	312,115204	0
15.01.2021	04:14:10	0	0	4,858485	3,44625	27,9648	-0,764	82,092	0	1009,94	5,7	7,7	7,6	1	1	1	1	1	1	1	1	1	0	1	-1,198027	273,106784	314,239249	0
15.01.2021	04:14:11	0	0	3,163665	3,261	4,842	-0,765	82,092	0	1010	5,7	7,7	7,6	1	1	1	1	1	1	1	1	1	0	1	-2,818887	273,002198	312,135482	0
15.01.2021	04:14:12	0	0	3,050677	3,252	11,1924	-0,766	82,096	0	1010	5,7	7,7	7,6	1	1	1	1	1	1	1	1	1	0	1	-6,342495	272,985292	308,533864	0
15.01.2021	04:14:13	0	0	4,519521	3,14475	24,7248	-0,765	82,083	0	1010,02	5,7	7,7	7,6	1	1	1	1	1	1	1	1	1	0	1	-4,510218	273,082707	310,815836	0
15.01.2021	04:14:14	0	0	2,937689	2,93025	11,2068	-0,764	82,106	0	1009,96	5,7	7,8	7,6	1	1	1	1	1	1	1	1	1	0	1	-4,862579	273,150767	310,777946	0
15.01.2021	04:14:15	0	0	3,276653	2,94975	13,9176	-0,772	82,097	0	1009,94	5,7	7,8	7,6	1	1	1	1	1	1	1	1	1	0	1	-5,285412	273,062902	309,949176	0
15.01.2021	04:14:16	0	0	4,519521	3,14775	15,4152	-0,768	82,101	0	1010	5,7	7,8	7,6	1	1	1	1	1	1	1	1	1	0	1	-2,466526	272,972622	312,351381	0
15.01.2021	04:14:17	0	0	3,502629	3,291	13,554	-0,766	82,109	0	1010,02	5,7	7,7	7,6	1	1	1	1	1	1	1	1	1	0	1	-5,496829	273,102533	309,920807	0
15.01.2021	04:14:18	0	0	4,745497	3,20925	22,0824	-0,767	82,1	0	1010,3	5,7	7,8	7,6	1	1	1	1	1	1	1	1	1	0	1	-5,708245	273,13373	309,853536	0
15.01.2021	04:14:19	0	0	4,406533	3,168	359,7984	-0,766	82,09	0	1010,02	5,7	7,7	7,6	1	1	1	1	1	1	1	1	1	0	1	-8,879493	273,142247	306,72165	0
15.01.2021	04:14:20	0	0	4,858485	3,2355	10,8288	-0,764	82,101	0	1010	5,7	7,8	7,6	1	1	1	1	1	1	1	1	1	0	1	-2,889359	273,072802	312,390948	0
15.01.2021	04:14:21	0	0	3,841593	3,21825	8,2656	-0,761	82,088	0	1009,88	5,7	7,8	7,6	1	1	1	1	1	1	1	1	1	0	1	-2,536998	273,15645	313,129795	0
15.01.2021	04:14:22	0	0	3,841593	3,56925	6,8148	-0,762	82,097	0	1009,96	5,7	7,7	7,6	1	1	1	1	1	1	1	1	1	0	1	-3,946441	273,005018	311,020937	0
15.01.2021	04:14:23	0	0	4,406533	3,594	16,11	-0,768	82,102	0	1009,84	5,7	7,7	7,6	1	1	1	1	1	1	1	1	1	0	1	-4,087385	273,123798	311,4285	0
15.01.2021	04:14:24	0	0	3,050677	3,77775	360	-0,766	82,085	0	1009,94	5,7	7,7	7,6	1	1	1	1	1	1	1	1	1	0	1	-8,949965	273,084123	306,382628	0
15.01.2021	04:14:25	0	0	4,406533	3,9855	9,3528	-0,762	82,083	0	1009,96	5,7	7,7	7,6	1	1	1	1	1	1	1	1	1	0	1	-2,043693	273,137988	313,537767	0
15.01.2021	04:14:26	0	0	4,180557	3,98625	15,714	-0,766	82,09	0	1010,08	5,7	7,8	7,6	1	1	1	1	1	1	1	1	1	0	1	-5,144468	273,017709	309,881482	0
15.01.2021	04:14:27	0	0	2,937689	4,03875	10,8216	-0,771	82,093	0	1009,84	5,7	7,8	7,6	1	1	1	1	1	1	1	1	1	0	1	-5,144468	273,102533	310,273168	0
15.01.2021	04:14:28	0	0	2,711713	3,9315	9,0108	-0,763	82,087	0	1009,92	5,7	7,8	7,6	1	1	1	1	1	1	1	1	1	0	1	-5,778717	273,140827	309,815864	0
15.01.2021	04:14:29	0	0	3,728605	3,81075	13,9968	-0,763	82,089	0	1009,96	5,7	7,7	7,6	1	1	1	1	1	1	1	1	1	0	1	-5,003524	273,053007	310,185374	0
15.01.2021	04:14:30	0	0	4,745497	4,10775	13,9248	-0,767	82,093	0	1009,9	5,7	7,8	7,6	1	1	1	1	1	1	1	1	1	0	1	-6,272023	273,150767	309,368503	0
15.01.2021	04:14:31	0	0	3,050677	4,29375	9,7308	-0,763	82,091	0	1010	5,7	7,7	7,6	1	1	1	1	1	1	1	1	1	0	1	-5,708245	273,027586	309,363294	0
15.01.2021	04:14:32	0	0	4,858485	4,20525	8,9964	-0,762	82,097	0	1010,02	5,7	7,8	7,6	1	1	1	1	1	1	1	1	1	0	1	-5,21494	273,143666	310,392765	0
15.01.2021	04:14:33	0	0	4,745497	3,90675	12,1104	-0,762	82,092	0	1010,02	5,7	7,8	7,6	1	1	1	1	1	1	1	1	1	0	1	-3,171247	273,113871	312,298772	0
15.01.2021	04:14:34	0	0	3,389641	3,834	13,5576	-0,76	82,101	0	1010,02	5,7	7,7	7,6	1	1	1	1	1	1	1	1	1	0	1	-9,020437	272,97403	305,803962	0
15.01.2021	04:14:35	0	0	3,163665	3,69975	13,9356	-0,766	82,089	0	1010,04	5,6	7,8	7,6	1	1	1	1	1	1	1	1	1	0	1	-7,963354	273,037468	307,153802	0
15.01.2021	04:14:36	0	0	3,389641	3,69525	13,1724	-0,762	82,093	0	1009,96	5,7	7,8	7,6	1	1	1	1	1	1	1	1	1	0	1	-0	273,136568	315,574899	0
15.01.2021	04:14:37	0	0	3,502629	3,822	8,6256	-0,764	82,093	0	1009,88	5,7	7,7	7,6	1	1	1	1	1	1	1	1	1	0	1	-5,496829	273,02053	309,542144	0
15.01.2021	04:14:38	0	0	2,146772	3,95175	4,8564	-0,763	82,098	0	1010,02	5,7	7,8	7,6	1	1	1	1	1	1	1	1	1	0	1	-5,21494	273,026174	309,850084	0
15.01.2021	04:14:39	0	0	4,632509	3,996	7,5096	-0,756	82,098	0	1009,96	5,7	7,8	7,6	1	1	1	1	1	1	1	1	1	0	1	-2,043693	273,145086	313,570575	0
15.01.2021	04:14:40	0	0	4,858485	3,92625	7,8804	-0,762	82,098	0	1009,96	5,7	7,8	7,6	1	1	1	1	1	1	1	1	1	0	1	-7,82241	273,092618	307,549421	0
15.01.2021	04:14:41	0	0	4,971473	3,91725	9,7596	-0,765	82,094	0	1010,02	5,7	7,7	7,6	1	1	1	1	1	1	1	1	1	0	1	-6,694856	272,972622	308,123051	0
15.01.2021	04:14:42	0	0	5,084461	4,065	10,8324	-0,755	82,101	0	1009,74	5,7	7,8	7,6	1	1	1	1	1	1	1	1	1	0	1	-2,466526	273,096866	312,924932	0
15.01.2021	04:14:43	0	0	3,050677	4,2315	9,3888	-0,756	82,104	0	1010,2	5,7	7,8	7,6	1	1	1	1	1	1	1	1	1	0	1	-4,298802	273,13231	311,256421	0
15.01.2021	04:14:44	0	0	4,519521	4,08825	11,7396	-0,765	82,094	0	1009,96	5,7	7,8	7,6	1	1	1	1	1	1	1	1	1	0	1	-6,906272	273,157871	308,767089	0
15.01.2021	04:14:45	0	0	3,163665	3,75525	13,1652	-0,761	82,102	0	1009,8	5,7	7,8	7,6	1	1	1	1	1	1	1	1	1	0	1	-5,21494	273,074217	310,071901	0
15.01.2021	04:14:46	0	0	5,197449	3,7515	17,6976	-0,757	82,097	0	1010,06	5,7	7,7	7,6	1	1	1	1	1	1	1	1	1	0	1	-7,751938	273,163555	307,947702	0
15.01.2021	04:14:47	0	0	3,841593	3,8895	9,7632	-0,761	82,1	0	1009,9	5,7	7,8	7,6	1	1	1	1	1	1	1	1	1	0	1	-8,104299	273,072802	307,176008	0
15.01.2021	04:14:48	0	0	4,745497	3,9795	16,47	-0,758	82,101	0	1010	5,7	7,8	7,6	1	1	1	1	1	1	1	1	1	0	1	-8,033827	273,13231	307,521396	0
15.01.2021	04:14:49	0	0	2,598725	3,93675	0,1368	-0,757	82,105	0	1010,02	5,7	7,8	7,6	1	1	1	1	1	1	1	1	1	0	1	-8,668076	273,084123	306,664516	0
15.01.2021	04:14:50	0	0	4,745497	3,74475	0,144	-0,753	82,109	0	1009,96	5,7	7,8	7,6	1	1	1	1	1	1	1	1	1	0	1	-5,073996	272,972622	309,743911	0
15.01.2021	04:14:51	0	0	4,519521	3,58425	5,6844	-0,759	82,09	0	1009,78	5,7	7,8	7,6	1	1	1	1	1	1	1	1	1	0	1	-8,386187	273,106784	307,051088	0
15.01.2021	04:14:52	0	0	4,519521	3,5475	8,2872	-0,752	82,095	0	1009,92	5,7	7,8	7,6	1	1	1	1	1	1	1	1	1	0	1	-3,59408	273,164977	312,11213	0
15.01.2021	04:14:53	0	0	4,293545	3,6225	360	-0,759	82,09	0	1010	5,7	7,8	7,6	1	1	1	1	1	1	1	1	1	0	1	-5,990134	273,149347	309,643826	0
15.01.2021	04:14:54	0	0	4,632509	3,672	360	-0,759	82,093	0	1010,1	5,7	7,8	7,6	1	1	1	1	1	1	1	1	1	0	1	-7,540521	273,190581	308,284071	0
15.01.2021	04:14:55	0	0	3,050677	3,573	360	-0,757	82,085	0	1009,84	5,7	7,8	7,6	1	1	1	1	1	1	1	1	1	0	1	-4,721635	273,000789	310,22623	0
15.01.2021	04:14:56	0	0	3,389641	3,42375	346,824	-0,76	82,098	0	1010,02	5,7	7,8	7,6	1	1	1	1	1	1	1	1	1	0	1	-7,117689	273,112454	308,345781	0
15.01.2021	04:14:57	0	0	2,824701	3,4965	2,6424	-0,757	82,086	0	1009,96	5,7	7,8	7,6	1	1	1	1	1	1	1	1	1	0	1	-5,073996	273,139407	310,514024	0
15.01.2021	04:14:58	0	0	3,163665	3,4665	2,646	-0,76	82,091	0	1010,06	5,7	7,8	7,6	1	1	1	1	1	1	1	1	1	0	1	-1,691332	273,116707	313,791789	0
15.01.2021	04:14:59	0	0	3,163665	3,4365	7,1316	-0,757	82,094	0	1009,92	5,7	7,8	7,6	1	1	1	1	1	1	1	1	1	0	1	-3,382664	272,992335	311,526189	0
15.01.2021	04:15:00	0	0	4,632509	3,0195	9,3816	-0,755	82,094	0	1010,06	5,7	7,8	7,6	1	1	1	1	1	1	1	1	1	0	1	-3,382664	272,97966	311,467711	0
15.01.2021	04:15:01	0	0	4,632509	3,0195	9,3816	-0,755	82,094	0	1010,06	5,7	7,8	7,6	1	1	1	1	1	1	1	1	1	0	1	-3,382664	272,97966	311,467711	0
15.01.2021	04:15:02	0	0	4,067569	2,6445	13,5504	-0,762	82,093	0	1009,7	5,7	7,8	7,6	1	1	1	1	1	1	1	1	1	0	1	-8,949965	273,119543	306,546261	0
15.01.2021	04:15:03	0	0	2,711713	2,511	19,9152	-0,759	82,081	0	1009,86	5,7	7,8	7,6	1	1	1	1	1	1	1	1	1	0	1	-6,765328	272,975437	308,065564	0
15.01.2021	04:15:04	0	0	2,937689	2,4315	16,1028	-0,761	82,078	0	1009,92	5,7	7,8	7,6	1	1	1	1	1	1	1	1	1	0	1	-8,033827	273,079877	307,279154	0
15.01.2021	04:15:05	0	0	4,406533	2,36625	20,628	-0,758	82,082	0	1010,08	5,7	7,8	7,6	1	1	1	1	1	1	1	1	1	0	1	-6,342495	273,149347	309,291466	0
15.01.2021	04:15:06	0	0	4,180557	2,7435	23,2236	-0,761	82,087	0	1009,88	5,7	7,8	7,6	1	1	1	1	1	1	1	1	1	0	1	-5,84919	273,013478	309,157231	0
15.01.2021	04:15:07	0	0	3,502629	2,88	20,304	-0,757	82,088	0	1009,96	5,7	7,8	7,6	1	1	1	1	1	1	1	1	1	0	1	-6,8358	273,094034	308,542573	0
15.01.2021	04:15:08	0	0	4,406506	2,9625	13,176	-0,758	82,093	0	1009,86	5,7	7,8	7,7	1	1	1	1	1	1	1	1	1	0	1	-6,412967	273,169242	309,312961	0
15.01.2021	04:15:09	0	0	2,937671	2,844	10,4472	-0,759	82,093	0	1010	5,7	7,8	7,7	1	1	1	1	1	1	1	1	1	0	1	-5,84919	273,045942	309,30709	0
15.01.2021	04:15:10	0	0	3,954581	2,76825	1,6524	-0,758	82,089	0	1009,96	5,7	7,8	7,6	1	1	1	1	1	1	1	1	1	0	1	-0	273,162134	315,693069	0
15.01.2021	04:15:11	0	0	3,502629	2,607	357,9588	-0,756	82,095	0	1009,88	5,7	7,8	7,6	1	1	1	1	1	1	1	1	1	0	1	-5,778717	273,040292	309,351477	0
15.01.2021	04:15:12	0	0	3,050677	2,5755	0,8928	-0,756	82,1	0	1010,02	5,8	7,8	7,6	1	1	1	1	1	1	1	1	1	0	1	-4,369274	273,040292	310,760921	0
15.01.2021	04:15:13	0	0	2,937689	2,52525	16,8516	-0,753	82,096	0	1010,06	5,7	7,8	7,6	1	1	1	1	1	1	1	1	1	0	1	-3,312192	272,992335	311,596661	0
15.01.2021	04:15:14	0	0	3,050677	2,466	13,8996	-0,755	82,103	0	1010,12	5,7	7,8	7,6	1	1	1	1	1	1	1	1	1	0	1	-3,805497	273,112454	311,657973	0
15.01.2021	04:15:15	0	0	4,406533	2,44725	21,7656	-0,751	82,101	0	1010,1	5,7	7,8	7,6	1	1	1	1	1	1	1	1	1	0	1	-0	273,15645	315,666793	0
15.01.2021	04:15:16	0	0	3,84157	2,4015	9,7488	-0,759	82,068	0	1009,96	5,7	7,8	7,7	1	1	1	1	1	1	1	1	1	0	1	-10,077519	273,08837	305,27469	0
15.01.2021	04:15:17	0	0	2,25976	2,502	24,4476	-0,755	82,081	0	1010,14	5,7	7,8	7,6	1	1	1	1	1	1	1	1	1	0	1	-6,272023	273,146506	309,348809	0
15.01.2021	04:15:18	0	0	2,711696	2,51325	20,646	-0,751	82,082	0	1010,02	5,7	7,8	7,7	1	1	1	1	1	1	1	1	1	0	1	-2,184637	272,992335	312,724216	0
15.01.2021	04:15:19	0	0	5,310437	2,55825	28,35	-0,759	82,082	0	1010	5,7	7,8	7,6	1	1	1	1	1	1	1	1	1	0	1	-4,862579	273,105367	310,568149	0
15.01.2021	04:15:20	0	0	4,519521	2,63175	20,6424	-0,754	82,096	0	1009,88	5,7	7,8	7,6	1	1	1	1	1	1	1	1	1	0	1	-4,792107	273,140827	310,802474	0
15.01.2021	04:15:21	0	0	4,067544	2,47425	14,3064	-0,757	82,077	0	1010,1	5,7	7,8	7,7	1	1	1	1	1	1	1	1	1	0	1	-3,171247	273,009247	311,81565	0
15.01.2021	04:15:22	0	0	4,067544	2,41575	21,0168	-0,748	82,084	0	1010,08	5,7	7,8	7,7	1	1	1	1	1	1	1	1	1	0	1	-3,875969	273,120961	311,626809	0
15.01.2021	04:15:23	0	0	3,954557	2,34375	10,0764	-0,749	82,091	0	1009,9	5,7	7,8	7,7	1	1	1	1	1	1	1	1	1	0	1	-6,906272	272,993743	308,009081	0
15.01.2021	04:15:24	0	0	3,163646	2,52975	19,8972	-0,75	82,07	0	1009,98	5,6	7,8	7,7	1	1	1	1	1	1	1	1	1	0	1	-3,946441	273,000789	311,001423	0
15.01.2021	04:15:25	0	0	4,519521	2,70225	13,9212	-0,748	82,079	0	1010,1	5,7	7,8	7,6	1	1	1	1	1	1	1	1	1	0	1	-3,100775	273,102533	312,316861	0
15.01.2021	04:15:26	0	0	4,180557	2,82825	17,6976	-0,761	82,071	0	1009,94	5,7	7,8	7,6	1	1	1	1	1	1	1	1	1	0	1	-2,959831	273,164977	312,74638	0
15.01.2021	04:15:27	0	0	3,954557	2,68575	36,6264	-0,751	82,082	0	1009,84	5,6	7,8	7,7	1	1	1	1	1	1	1	1	1	0	1	-9,231853	273,101116	306,179237	0
15.01.2021	04:15:28	0	0	3,38962	2,5605	17,7048	-0,754	82,07	0	1009,94	5,7	7,8	7,7	1	1	1	1	1	1	1	1	1	0	1	-4,439746	272,997971	310,495112	0
15.01.2021	04:15:29	0	0	2,711713	2,47725	7,8912	-0,753	82,083	0	1010,02	5,6	7,8	7,6	1	1	1	1	1	1	1	1	1	0	1	-6,553911	273,077046	308,745999	0
15.01.2021	04:15:30	0	0	4,745468	2,5065	15,0372	-0,755	82,085	0	1009,92	5,7	7,8	7,7	1	1	1	1	1	1	1	1	1	0	1	-4,651163	272,996561	310,277193	0
15.01.2021	04:15:31	0	0	4,180532	2,50425	15,4188	-0,75	82,081	0	1010	5,6	7,8	7,7	1	1	1	1	1	1	1	1	1	0	1	-8,80902	273,012067	306,190892	0
15.01.2021	04:15:32	0	0	3,728582	2,39475	10,8252	-0,753	82,086	0	1009,88	5,8	7,8	7,7	1	1	1	1	1	1	1	1	1	0	1	-5,073996	273,102533	310,34364	0
15.01.2021	04:15:33	0	0	3,38962	2,39325	18,468	-0,762	82,072	0	1009,92	5,6	7,8	7,7	1	1	1	1	1	1	1	1	1	0	1	-3,875969	273,007837	311,104421	0
15.01.2021	04:15:34	0	0	3,84157	2,298	6,0696	-0,759	82,077	0	1010,02	5,6	7,8	7,7	1	1	1	1	1	1	1	1	1	0	1	-5,285412	273,023352	309,766585	0
15.01.2021	04:15:35	0	0	4,519494	2,0865	25,794	-0,753	82,064	0	1010,02	5,6	7,8	7,7	1	1	1	1	1	1	1	1	1	0	1	-3,805497	273,125216	311,716944	0
15.01.2021	04:15:36	0	0	3,84157	2,02425	6,822	-0,75	82,084	0	1010,1	5,7	7,8	7,7	1	1	1	1	1	1	1	1	1	0	1	-3,735025	273,162134	311,958044	0
15.01.2021	04:15:37	0	0	2,824684	1,983	21,7656	-0,751	82,074	0	1010,06	5,6	7,8	7,7	1	1	1	1	1	1	1	1	1	0	1	-7,82241	273,130891	307,726255	0
15.01.2021	04:15:38	0	0	2,937671	1,98525	15,7968	-0,75	82,077	0	1009,88	5,6	7,8	7,7	1	1	1	1	1	1	1	1	1	0	1	-6,906272	273,024763	308,152239	0
15.01.2021	04:15:39	0	0	4,632481	2,17725	7,5132	-0,747	82,075	0	1009,92	5,6	7,8	7,7	1	1	1	1	1	1	1	1	1	0	1	-6,8358	273,16782	308,883555	0
15.01.2021	04:15:40	0	0	3,38962	2,46975	13,1688	-0,75	82,086	0	1010,12	5,7	7,8	7,7	1	1	1	1	1	1	1	1	1	0	1	-4,298802	273,120961	311,203976	0
15.01.2021	04:15:41	0	0	4,293519	2,616	6,0696	-0,755	82,085	0	1010,04	5,7	7,8	7,7	1	1	1	1	1	1	1	1	1	0	1	-3,100775	273,170664	312,631726	0
15.01.2021	04:15:42	0	0	2,372734	2,952	9,3636	-0,754	82,081	0	1010	5,7	7,8	7,7	1	1	1	1	1	1	1	1	1	0	1	-6,976744	273,05018	308,199104	0
15.01.2021	04:15:43	0	0	3,954557	3,06525	10,0692	-0,751	82,088	0	1010,1	5,8	7,8	7,7	1	1	1	1	1	1	1	1	1	0	1	-3,100775	272,986701	311,782081	0
15.01.2021	04:15:44	0	0	3,954557	3,06825	18,45	-0,748	82,091	0	1009,98	5,6	7,8	7,7	1	1	1	1	1	1	1	1	1	0	1	-5,990134	273,026174	309,074891	0
15.01.2021	04:15:45	0	0	4,180532	2,9805	1,1952	-0,75	82,087	0	1010,1	5,6	7,8	7,7	1	1	1	1	1	1	1	1	1	0	1	-1,691332	273,101116	313,719759	0
15.01.2021	04:15:46	0	0	4,067569	3,11625	10,4616	-0,756	82,084	0	1010,06	5,6	7,8	7,6	1	1	1	1	1	1	1	1	1	0	1	-5,355884	273,157871	310,317476	0
15.01.2021	04:15:47	0	0	4,632509	3,19275	359,9316	-0,75	82,084	0	1009,94	5,6	7,8	7,6	1	1	1	1	1	1	1	1	1	0	1	-4,580691	273,109619	310,869681	0
15.01.2021	04:15:48	0	0	3,954557	3,03675	6,0732	-0,748	82,093	0	1010,1	5,6	7,8	7,7	1	1	1	1	1	1	1	1	1	0	1	-8,174771	272,993743	306,740582	0
15.01.2021	04:15:49	0	0	2,598709	2,95275	7,8876	-0,747	82,089	0	1010	5,6	7,8	7,7	1	1	1	1	1	1	1	1	1	0	1	-2,114165	273,027586	312,957374	0
15.01.2021	04:15:50	0	0	2,485736	2,97675	4,14	-0,755	82,08	0	1009,94	5,7	7,8	7,6	1	1	1	1	1	1	1	1	1	0	1	-4,016913	273,106784	311,420362	0
15.01.2021	04:15:51	0	0	4,406506	3,039	6,21	-0,748	82,089	0	1010,1	5,6	7,8	7,7	1	1	1	1	1	1	1	1	1	0	1	-3,805497	273,172086	311,933579	0
15.01.2021	04:15:52	0	0	2,824684	3,04125	4,842	-0,751	82,089	0	1009,96	5,6	7,8	7,7	1	1	1	1	1	1	1	1	1	0	1	-4,22833	273,017709	310,797621	0
15.01.2021	04:15:53	0	0	4,632481	2,88225	17,7084	-0,747	82,071	0	1010,02	5,7	7,8	7,7	1	1	1	1	1	1	1	1	1	0	1	-5,003524	272,995152	309,918331	0
15.01.2021	04:15:54	0	0	5,197418	2,58825	11,7216	-0,748	82,082	0	1009,92	5,7	7,8	7,7	1	1	1	1	1	1	1	1	1	0	1	-6,694856	273,143666	308,91285	0
15.01.2021	04:15:55	0	0	3,728582	2,49525	8,6148	-0,748	82,099	0	1009,96	5,6	7,8	7,7	1	1	1	1	1	1	1	1	1	0	1	-4,016913	273,000789	310,930951	0
15.01.2021	04:15:56	0	0	3,84157	2,7435	9,0144	-0,753	82,099	0	1010,04	5,7	7,7	7,7	1	1	1	1	1	1	1	1	1	0	1	-8,597604	273,123798	306,918282	0
15.01.2021	04:15:57	0	0	4,632481	2,9415	7,884	-0,754	82,085	0	1009,88	5,6	7,8	7,7	1	1	1	1	1	1	1	1	1	0	1	-1,479915	273,101116	313,931175	0
15.01.2021	04:15:58	0	0	4,858485	3,0765	14,382	-0,755	82,083	0	1009,82	5,7	7,8	7,6	1	1	1	1	1	1	1	1	1	0	1	-5,567301	273,166398	310,145482	0
15.01.2021	04:15:59	0	0	3,841593	3,13275	8,262	-0,746	82,095	0	1009,94	5,6	7,8	7,6	1	1	1	1	1	1	1	1	1	0	1	-6,060606	273,023352	308,991391	0
15.01.2021	04:16:00	0	0	4,406533	3,033	1,188	-0,753	82,081	0	1009,9	5,7	7,8	7,6	1	1	1	1	1	1	1	1	1	0	1	-5,426357	273,18062	310,352176	0
15.01.2021	04:16:01	0	0	4,406533	3,033	1,188	-0,753	82,081	0	1009,9	5,7	7,8	7,6	1	1	1	1	1	1	1	1	1	0	1	-5,426357	273,18062	310,352176	0
15.01.2021	04:16:02	0	0	4,293545	2,80725	358,4736	-0,749	82,095	0	1010,02	5,7	7,8	7,6	1	1	1	1	1	1	1	1	1	0	1	-7,82241	273,10395	307,601772	0
15.01.2021	04:16:03	0	0	3,389641	2,6865	355,0212	-0,749	82,073	0	1010	5,7	7,8	7,6	1	1	1	1	1	1	1	1	1	0	1	-0,493305	273,000789	314,454559	0
15.01.2021	04:16:04	0	0	4,293545	2,58225	359,8956	-0,75	82,073	0	1009,8	5,7	7,8	7,6	1	1	1	1	1	1	1	1	1	0	1	-5,426357	273,048768	309,742968	0
15.01.2021	04:16:05	0	0	3,615617	2,5665	11,7396	-0,752	82,083	0	1009,88	5,7	7,8	7,6	1	1	1	1	1	1	1	1	1	0	1	-5,496829	272,997971	309,43803	0
15.01.2021	04:16:06	0	0	4,745497	2,442	19,1268	-0,745	82,073	0	1009,96	5,6	7,8	7,6	1	1	1	1	1	1	1	1	1	0	1	-9,725159	273,034644	305,378961	0
15.01.2021	04:16:07	0	0	2,598725	2,2785	14,2884	-0,747	82,079	0	1010,02	5,7	7,8	7,6	1	1	1	1	1	1	1	1	1	0	1	-0	273,021941	315,045485	0
15.01.2021	04:16:08	0	0	2,824684	2,11875	8,6184	-0,744	82,079	0	1010	5,7	7,7	7,7	1	1	1	1	1	1	1	1	1	0	1	-5,21494	273,170664	310,517561	0
15.01.2021	04:16:09	0	0	2,824701	2,16975	10,818	-0,746	82,073	0	1010,02	5,7	7,7	7,6	1	1	1	1	1	1	1	1	1	0	1	-4,298802	273,05866	310,916201	0
15.01.2021	04:16:10	0	0	4,519521	2,349	32,8752	-0,745	82,085	0	1010,08	5,7	7,8	7,6	1	1	1	1	1	1	1	1	1	0	1	-5,567301	273,182042	310,21781	0
15.01.2021	04:16:11	0	0	3,389641	2,361	35,0712	-0,747	82,084	0	1009,88	5,6	7,7	7,6	1	1	1	1	1	1	1	1	1	0	1	-5,073996	273,027586	309,997543	0
15.01.2021	04:16:12	0	0	3,050658	2,36925	12,4812	-0,749	82,071	0	1010,02	5,7	7,7	7,7	1	1	1	1	1	1	1	1	1	0	1	-8,033827	273,169242	307,692101	0
15.01.2021	04:16:13	0	0	4,632509	2,41725	12,9636	-0,748	82,079	0	1009,8	5,7	7,7	7,6	1	1	1	1	1	1	1	1	1	0	1	-3,100775	273,145086	312,513493	0
15.01.2021	04:16:14	0	0	2,824701	2,5275	18,8316	-0,746	82,074	0	1010,04	5,7	7,8	7,6	1	1	1	1	1	1	1	1	1	0	1	-5,073996	273,125216	310,448445	0
15.01.2021	04:16:15	0	0	2,937689	2,523	19,9224	-0,747	82,079	0	1009,94	5,7	7,7	7,6	1	1	1	1	1	1	1	1	1	0	1	-6,342495	273,177775	309,422883	0
15.01.2021	04:16:16	0	0	4,067569	2,5155	11,718	-0,744	82,066	0	1010,1	5,7	7,8	7,6	1	1	1	1	1	1	1	1	1	0	1	-3,453136	273,094034	311,925237	0
15.01.2021	04:16:17	0	0	2,937671	2,5125	16,1064	-0,742	82,079	0	1010	5,7	7,8	7,7	1	1	1	1	1	1	1	1	1	0	1	-1,761804	273,030409	313,322765	0
15.01.2021	04:16:18	0	0	3,728605	2,4	9,3744	-0,745	82,071	0	1010,02	5,6	7,7	7,6	1	1	1	1	1	1	1	1	1	0	1	-9,725159	273,129473	305,81695	0
15.01.2021	04:16:19	0	0	2,824701	2,4315	4,4676	-0,743	82,058	0	1009,98	5,7	7,9	7,6	1	1	1	1	1	1	1	1	1	0	1	-6,624383	273,146506	308,996448	0
15.01.2021	04:16:20	0	0	3,502629	2,4495	10,1376	-0,746	82,083	0	1010,06	5,7	7,7	7,6	1	1	1	1	1	1	1	1	1	0	1	-5,355884	272,992335	309,552968	0
15.01.2021	04:16:21	0	0	4,406533	2,46525	6,0768	-0,74	82,081	0	1009,94	5,7	7,7	7,6	1	1	1	1	1	1	1	1	1	0	1	-4,933051	273,057247	310,275424	0
15.01.2021	04:16:22	0	0	4,406533	2,42475	8,6148	-0,743	82,08	0	1010,06	5,7	7,7	7,6	1	1	1	1	1	1	1	1	1	0	1	-3,946441	273,169242	311,779487	0
15.01.2021	04:16:23	0	0	4,519521	2,34375	21,3804	-0,741	82,081	0	1010,02	5,6	7,8	7,6	1	1	1	1	1	1	1	1	1	0	1	-5,21494	273,101116	310,19615	0
15.01.2021	04:16:24	0	0	4,406533	2,21025	3,402	-0,747	82,081	0	1009,96	5,7	7,7	7,6	1	1	1	1	1	1	1	1	1	0	1	-5,778717	273,18062	309,999815	0
15.01.2021	04:16:25	0	0	2,711713	2,17125	7,1316	-0,741	82,071	0	1010,12	5,7	7,8	7,6	1	1	1	1	1	1	1	1	1	0	1	-4,016913	273,028997	311,061141	0
15.01.2021	04:16:26	0	0	3,502629	2,169	7,524	-0,74	82,077	0	1010,12	5,7	7,7	7,6	1	1	1	1	1	1	1	1	1	0	1	-3,664553	273,003608	311,29632	0
15.01.2021	04:16:27	0	0	5,310437	2,28375	7,8876	-0,745	82,07	0	1010	5,7	7,7	7,6	1	1	1	1	1	1	1	1	1	0	1	-3,523608	273,160713	312,162891	0
15.01.2021	04:16:28	0	0	4,067569	2,4225	9,756	-0,741	82,061	0	1009,92	5,7	7,8	7,6	1	1	1	1	1	1	1	1	1	0	1	-4,016913	273,102533	311,400723	0
15.01.2021	04:16:29	0	0	3,050677	2,92725	12,0996	-0,744	82,078	0	1009,98	5,7	7,7	7,6	1	1	1	1	1	1	1	1	1	0	1	-3,24172	273,028997	311,836334	0
15.01.2021	04:16:30	0	0	3,954581	3,35925	8,2548	-0,746	82,084	0	1009,84	5,7	7,7	7,6	1	1	1	1	1	1	1	1	1	0	1	-5,990134	273,084123	309,342459	0
15.01.2021	04:16:31	0	0	3,728605	3,51525	8,2728	-0,744	82,064	0	1009,96	5,7	7,8	7,6	1	1	1	1	1	1	1	1	1	0	1	-7,540521	273,179197	308,231433	0
15.01.2021	04:16:32	0	0	3,502629	3,55875	8,6256	-0,744	82,065	0	1009,82	5,7	7,8	7,6	1	1	1	1	1	1	1	1	1	0	1	-4,721635	273,094034	310,656738	0
15.01.2021	04:16:33	0	0	2,824701	3,5475	8,2836	-0,742	82,082	0	1009,82	5,7	7,7	7,6	1	1	1	1	1	1	1	1	1	0	1	-11,06413	273,179197	304,707825	0
15.01.2021	04:16:34	0	0	3,050677	3,34725	12,1068	-0,74	82,05	0	1009,88	5,7	7,7	7,6	1	1	1	1	1	1	1	1	1	0	1	-4,298802	272,99938	310,642559	0
15.01.2021	04:16:35	0	0	2,598725	3,18225	7,8948	-0,74	82,071	0	1009,86	5,7	7,7	7,6	1	1	1	1	1	1	1	1	1	0	1	-7,82241	273,157871	307,850951	0
15.01.2021	04:16:36	0	0	3,841593	3,11325	10,8288	-0,747	82,066	0	1009,9	5,7	7,7	7,6	1	1	1	1	1	1	1	1	1	0	1	-3,946441	273,176352	311,81236	0
15.01.2021	04:16:37	0	0	3,841593	3,096	16,488	-0,74	82,074	0	1010	5,7	7,8	7,6	1	1	1	1	1	1	1	1	1	0	1	-8,315715	273,129473	307,226393	0
15.01.2021	04:16:38	0	0	3,841593	3,177	16,488	-0,739	82,071	0	1010,04	5,7	7,7	7,6	1	1	1	1	1	1	1	1	1	0	1	-3,946441	273,17493	311,805784	0
15.01.2021	04:16:39	0	0	3,276653	3,3	16,1064	-0,742	82,063	0	1010,08	5,7	7,8	7,6	1	1	1	1	1	1	1	1	1	0	1	-4,862579	273,03182	310,228506	0
15.01.2021	04:16:40	0	0	4,745497	3,333	7,1496	-0,739	82,072	0	1010,02	5,7	7,7	7,6	1	1	1	1	1	1	1	1	1	0	1	-4,862579	273,139407	310,725441	0
15.01.2021	04:16:41	0	0	5,423425	3,2685	12,114	-0,741	82,06	0	1010,04	5,7	7,7	7,6	1	1	1	1	1	1	1	1	1	0	1	-5,21494	272,995152	309,706914	0
15.01.2021	04:16:42	0	0	4,745497	3,243	359,8272	-0,741	82,068	0	1009,98	5,7	7,8	7,6	1	1	1	1	1	1	1	1	1	0	1	-2,818887	273,081292	312,500631	0
15.01.2021	04:16:43	0	0	3,954581	3,207	8,622	-0,741	82,048	0	1010	5,6	7,8	7,6	1	1	1	1	1	1	1	1	1	0	1	-5,637773	273,176352	310,121028	0
15.01.2021	04:16:44	0	0	4,519521	3,19125	12,8628	-0,745	82,066	0	1010,06	5,7	7,8	7,6	1	1	1	1	1	1	1	1	1	0	1	-5,073996	273,043117	310,06924	0
15.01.2021	04:16:45	0	0	3,389641	3,0825	15,4008	-0,746	82,074	0	1009,96	5,7	7,8	7,6	1	1	1	1	1	1	1	1	1	0	1	-3,523608	273,057247	311,684868	0
15.01.2021	04:16:46	0	0	3,276653	3,0105	14,634	-0,747	82,069	0	1009,9	5,7	7,8	7,6	1	1	1	1	1	1	1	1	1	0	1	-2,959831	273,030409	312,124739	0
15.01.2021	04:16:47	0	0	3,615617	2,874	12,474	-0,738	82,075	0	1010,04	5,7	7,7	7,6	1	1	1	1	1	1	1	1	1	0	1	-7,892882	273,05866	307,322121	0
15.01.2021	04:16:48	0	0	4,971473	2,733	14,6628	-0,741	82,065	0	1009,76	5,7	7,7	7,6	1	1	1	1	1	1	1	1	1	0	1	-7,258633	273,182042	308,526478	0
15.01.2021	04:16:49	0	0	4,632509	2,6265	19,5336	-0,737	82,075	0	1010,04	5,7	7,8	7,6	1	1	1	1	1	1	1	1	1	0	1	-4,510218	273,026174	310,554806	0
15.01.2021	04:16:50	0	0	2,824701	2,60775	15,0372	-0,742	82,062	0	1009,92	5,7	7,8	7,6	1	1	1	1	1	1	1	1	1	0	1	-5,144468	273,116707	310,338653	0
15.01.2021	04:16:51	0	0	3,728605	2,73975	16,1064	-0,741	82,076	0	1010,04	5,7	7,8	7,6	1	1	1	1	1	1	1	1	1	0	1	-6,272023	273,02053	308,76695	0
15.01.2021	04:16:52	0	0	4,745497	2,63625	16,5852	-0,743	82,068	0	1009,96	5,7	7,8	7,6	1	1	1	1	1	1	1	1	1	0	1	-7,610994	273,111036	307,845926	0
15.01.2021	04:16:53	0	0	2,824701	2,56875	15,0516	-0,736	82,062	0	1009,98	5,7	7,8	7,6	1	1	1	1	1	1	1	1	1	0	1	-4,298802	273,010657	310,694602	0
15.01.2021	04:16:54	0	0	5,084461	2,44275	7,1208	-0,741	82,073	0	1010,04	5,7	7,7	7,6	1	1	1	1	1	1	1	1	1	0	1	-5,84919	273,155029	309,811035	0
15.01.2021	04:16:55	0	0	4,293545	2,583	10,4472	-0,747	82,071	0	1009,92	5,7	7,7	7,6	1	1	1	1	1	1	1	1	1	0	1	-4,22833	273,074217	311,058511	0
15.01.2021	04:16:56	0	0	3,276653	2,90475	10,0692	-0,743	82,071	0	1009,96	5,7	7,8	7,6	1	1	1	1	1	1	1	1	1	0	1	-2,043693	273,013478	312,962728	0
15.01.2021	04:16:57	0	0	4,519521	2,93325	15,786	-0,743	82,067	0	1010,1	5,7	7,8	7,6	1	1	1	1	1	1	1	1	1	0	1	-6,8358	273,18062	308,942733	0
15.01.2021	04:16:58	0	0	3,050677	3,111	1,5408	-0,741	82,065	0	1010,06	5,7	7,8	7,6	1	1	1	1	1	1	1	1	1	0	1	-6,624383	273,064316	308,616734	0
15.01.2021	04:16:59	0	0	3,841593	3,26325	23,5872	-0,74	82,068	0	1010	5,7	7,8	7,6	1	1	1	1	1	1	1	1	1	0	1	-5,003524	273,17493	310,748702	0
15.01.2021	04:17:00	0	0	5,197449	3,06825	22,4712	-0,737	82,057	0	1009,88	5,7	7,8	7,6	1	1	1	1	1	1	1	1	1	0	1	-5,567301	273,101116	309,84379	0
15.01.2021	04:17:01	0	0	5,197449	3,06825	22,4712	-0,737	82,057	0	1009,88	5,7	7,8	7,6	1	1	1	1	1	1	1	1	1	0	1	-5,567301	273,101116	309,84379	0
15.01.2021	04:17:02	0	0	3,050677	3,054	19,1448	-0,735	82,075	0	1010,08	5,7	7,8	7,6	1	1	1	1	1	1	1	1	1	0	1	-6,412967	273,186311	309,391882	0
15.01.2021	04:17:03	0	0	4,406533	3,06825	19,5264	-0,741	82,071	0	1009,96	5,7	7,8	7,6	1	1	1	1	1	1	1	1	1	0	1	-6,412967	273,146506	309,207865	0
15.01.2021	04:17:04	0	0	3,276653	3,31125	11,7108	-0,738	82,074	0	1010,04	5,7	7,8	7,6	1	1	1	1	1	1	1	1	1	0	1	-4,510218	273,128054	311,025333	0
15.01.2021	04:17:05	0	0	3,728605	3,39675	8,9892	-0,738	82,058	0	1010,1	5,7	7,8	7,6	1	1	1	1	1	1	1	1	1	0	1	-3,100775	273,006427	311,873109	0
15.01.2021	04:17:06	0	0	3,728605	3,44025	17,7012	-0,741	82,065	0	1010	5,7	7,8	7,6	1	1	1	1	1	1	1	1	1	0	1	-7,610994	273,125216	307,911447	0
15.01.2021	04:17:07	0	0	4,632509	3,45375	14,3136	-0,732	82,062	0	1010,06	5,7	7,8	7,6	1	1	1	1	1	1	1	1	1	0	1	-2,889359	273,016298	312,130081	0
15.01.2021	04:17:08	0	0	2,824701	3,462	16,4808	-0,735	82,063	0	1010,06	5,7	7,8	7,6	1	1	1	1	1	1	1	1	1	0	1	-2,255109	273,021941	312,790376	0
15.01.2021	04:17:09	0	0	2,937689	3,393	19,1484	-0,735	82,047	0	1009,94	5,7	7,8	7,6	1	1	1	1	1	1	1	1	1	0	1	-0,775194	273,040292	314,355001	0
15.01.2021	04:17:10	0	0	2,937689	3,336	9,36	-0,735	82,055	0	1009,98	5,7	7,8	7,6	1	1	1	1	1	1	1	1	1	0	1	-4,298802	273,192004	311,532373	0
15.01.2021	04:17:11	0	0	4,180557	3,41025	15,48	-0,733	82,056	0	1010,02	5,7	7,8	7,6	1	1	1	1	1	1	1	1	1	0	1	-5,84919	273,159292	309,83074	0
15.01.2021	04:17:12	0	0	4,745497	3,53925	10,44	-0,734	82,058	0	1009,92	5,7	7,8	7,6	1	1	1	1	1	1	1	1	1	0	1	-10,288936	273,147927	305,33846	0
15.01.2021	04:17:13	0	0	4,180557	3,60375	15,4152	-0,737	82,056	0	1010,02	5,7	7,8	7,6	1	1	1	1	1	1	1	1	1	0	1	-5,919662	273,183465	309,872028	0
15.01.2021	04:17:14	0	0	2,372748	3,76575	9,0108	-0,738	82,061	0	1010,1	5,7	7,8	7,6	1	1	1	1	1	1	1	1	1	0	1	-7,399577	273,041704	307,737138	0
15.01.2021	04:17:15	0	0	4,858485	3,5505	11,1924	-0,741	82,053	0	1010,02	5,7	7,8	7,6	1	1	1	1	1	1	1	1	1	0	1	-5,708245	273,136568	309,866654	0
15.01.2021	04:17:16	0	0	2,259747	3,348	0,4896	-0,736	82,063	0	1010,14	5,7	7,8	7,7	1	1	1	1	1	1	1	1	1	0	1	-4,933051	273,163555	310,766588	0
15.01.2021	04:17:17	0	0	3,954581	3,40725	9,3636	-0,734	82,049	0	1010,08	5,7	7,8	7,6	1	1	1	1	1	1	1	1	1	0	1	-2,396054	273,091201	312,969236	0
15.01.2021	04:17:18	0	0	4,971473	3,57225	3,7836	-0,733	82,058	0	1010	5,7	7,8	7,6	1	1	1	1	1	1	1	1	1	0	1	-2,325581	273,17493	313,426644	0
15.01.2021	04:17:19	0	0	2,711713	3,45	1,278	-0,735	82,057	0	1010,06	5,7	7,8	7,6	1	1	1	1	1	1	1	1	1	0	1	-7,047216	273,194851	308,797125	0
15.01.2021	04:17:20	0	0	2,937689	3,65775	349,416	-0,733	82,054	0	1010,08	5,7	7,8	7,6	1	1	1	1	1	1	1	1	1	0	1	-3,946441	273,179197	311,825514	0
15.01.2021	04:17:21	0	0	4,745497	3,675	12,1104	-0,731	82,053	0	1009,98	5,7	7,8	7,6	1	1	1	1	1	1	1	1	1	0	1	-7,188161	273,002198	307,766208	0
15.01.2021	04:17:22	0	0	3,163665	3,55575	9,3636	-0,737	82,022	0	1009,96	5,7	7,8	7,6	1	1	1	1	1	1	1	1	1	0	1	-0,281889	273,091201	315,083401	0
15.01.2021	04:17:23	0	0	4,745468	3,429	4,4604	-0,735	82,047	0	1009,96	5,8	7,8	7,7	1	1	1	1	1	1	1	1	1	0	1	-2,536998	273,176352	313,221804	0
15.01.2021	04:17:24	0	0	4,632509	3,279	359,2188	-0,73	82,057	0	1010,02	5,7	7,8	7,6	1	1	1	1	1	1	1	1	1	0	1	-5,919662	273,276175	310,300924	0
15.01.2021	04:17:25	0	0	3,389641	3,03825	0,1404	-0,732	82,044	0	1010,18	5,7	7,8	7,6	1	1	1	1	1	1	1	1	1	0	1	-7,681466	272,948713	307,026158	0
15.01.2021	04:17:26	0	0	2,485736	2,97075	10,0764	-0,738	82,037	0	1009,94	5,7	7,8	7,6	1	1	1	1	1	1	1	1	1	0	1	-4,862579	273,034644	310,24154	0
15.01.2021	04:17:27	0	0	4,745497	2,9565	0,4968	-0,735	82,038	0	1009,88	5,7	7,8	7,6	1	1	1	1	1	1	1	1	1	0	1	-7,82241	273,009247	307,164487	0
15.01.2021	04:17:28	0	0	4,519521	3,12825	15,786	-0,733	82,02	0	1010	5,7	7,8	7,6	1	1	1	1	1	1	1	1	1	0	1	-9,020437	273,021941	306,025048	0
15.01.2021	04:17:29	0	0	3,502629	3,10425	16,866	-0,736	82,037	0	1010,04	5,7	7,8	7,6	1	1	1	1	1	1	1	1	1	0	1	-4,721635	273,096866	310,669823	0
15.01.2021	04:17:30	0	0	3,954557	3,16575	18,4464	-0,733	82,049	0	1009,98	5,7	7,8	7,7	1	1	1	1	1	1	1	1	1	0	1	-6,131078	273,170664	309,601423	0
15.01.2021	04:17:31	0	0	2,711713	3,14625	15,03	-0,736	82,046	0	1009,94	5,7	7,8	7,6	1	1	1	1	1	1	1	1	1	0	1	-2,466526	273,05018	312,709323	0
15.01.2021	04:17:32	0	0	2,598709	2,97675	15,426	-0,735	82,038	0	1009,98	5,7	7,8	7,7	1	1	1	1	1	1	1	1	1	0	1	-8,245243	273,126635	307,283753	0
15.01.2021	04:17:33	0	0	4,180557	2,8425	12,8592	-0,733	82,029	0	1010,06	5,7	7,8	7,6	1	1	1	1	1	1	1	1	1	0	1	-3,735025	273,190581	312,089568	0
15.01.2021	04:17:34	0	0	4,406506	2,83575	13,9356	-0,733	82,039	0	1009,96	5,7	7,8	7,7	1	1	1	1	1	1	1	1	1	0	1	-5,990134	273,150767	309,650392	0
15.01.2021	04:17:35	0	0	4,180532	2,91075	21,7764	-0,734	82,023	0	1010,04	5,7	7,8	7,7	1	1	1	1	1	1	1	1	1	0	1	-9,231853	273,113871	306,238166	0
15.01.2021	04:17:36	0	0	2,711713	2,9265	9,3744	-0,738	82,048	0	1010	5,7	7,8	7,6	1	1	1	1	1	1	1	1	1	0	1	-6,694856	273,028997	308,383198	0
15.01.2021	04:17:37	0	0	4,971473	2,976	14,4	-0,73	82,048	0	1010,06	5,7	7,8	7,6	1	1	1	1	1	1	1	1	1	0	1	-6,060606	273,177775	309,704772	0
15.01.2021	04:17:38	0	0	4,519494	2,98125	17,2548	-0,736	82,041	0	1009,94	5,7	7,8	7,7	1	1	1	1	1	1	1	1	1	0	1	-5,708245	273,021941	309,33724	0
15.01.2021	04:17:39	0	0	4,293545	2,94225	1,9188	-0,734	82,053	0	1009,96	5,7	7,8	7,6	1	1	1	1	1	1	1	1	1	0	1	-0,98661	272,836599	313,204264	0
15.01.2021	04:17:40	0	0	2,937689	2,80875	13,9248	-0,741	82,034	0	1009,96	5,7	7,8	7,6	1	1	1	1	1	1	1	1	1	0	1	-2,677942	273,123798	312,837944	0
15.01.2021	04:17:41	0	0	3,615595	2,73375	18,8496	-0,733	82,049	0	1010,08	5,7	7,8	7,7	1	1	1	1	1	1	1	1	1	0	1	-4,651163	273,062902	310,583425	0
15.01.2021	04:17:42	0	0	3,954581	2,77575	17,226	-0,734	82,039	0	1009,9	5,7	7,8	7,6	1	1	1	1	1	1	1	1	1	0	1	-3,030303	273,024763	312,028208	0
15.01.2021	04:17:43	0	0	2,711696	2,6475	12,8736	-0,734	82,043	0	1010,1	5,7	7,8	7,7	1	1	1	1	1	1	1	1	1	0	1	-3,946441	273,06573	311,301207	0
15.01.2021	04:17:44	0	0	4,180557	2,6175	9,0036	-0,735	82,054	0	1010,18	5,7	7,8	7,6	1	1	1	1	1	1	1	1	1	0	1	-3,805497	273,023352	311,246501	0
15.01.2021	04:17:45	0	0	2,824684	2,5275	22,1004	-0,738	82,032	0	1010,02	5,7	7,8	7,7	1	1	1	1	1	1	1	1	1	0	1	-8,386187	273,044529	306,76357	0
15.01.2021	04:17:46	0	0	3,615595	2,64225	10,8108	-0,74	82,036	0	1009,88	5,7	7,8	7,7	1	1	1	1	1	1	1	1	1	0	1	-2,184637	273,13373	313,377144	0
15.01.2021	04:17:47	0	0	3,841593	2,688	8,9964	-0,738	82,027	0	1009,9	5,7	7,8	7,6	1	1	1	1	1	1	1	1	1	0	1	-4,721635	273,196275	311,129291	0
15.01.2021	04:17:48	0	0	4,971443	2,59275	2,6604	-0,734	82,025	0	1009,94	5,8	7,8	7,7	1	1	1	1	1	1	1	1	1	0	1	-4,087385	273,149347	311,546575	0
15.01.2021	04:17:49	0	0	4,406506	2,59725	357,6528	-0,732	82,04	0	1009,88	5,7	7,8	7,7	1	1	1	1	1	1	1	1	1	0	1	-5,778717	273,186311	310,026132	0
15.01.2021	04:17:50	0	0	3,276653	2,5215	0,1224	-0,734	82,029	0	1010,08	5,7	7,8	7,6	1	1	1	1	1	1	1	1	1	0	1	-4,510218	273,150767	311,130307	0
15.01.2021	04:17:51	0	0	2,372734	2,487	6,8292	-0,731	82,038	0	1009,96	5,7	7,8	7,7	1	1	1	1	1	1	1	1	1	0	1	-4,933051	273,125216	310,589389	0
15.01.2021	04:17:52	0	0	4,858456	2,724	359,0532	-0,737	82,035	0	1009,98	5,7	7,8	7,7	1	1	1	1	1	1	1	1	1	0	1	-4,157858	273,20482	311,732586	0
15.01.2021	04:17:53	0	0	4,180557	2,84175	6,4512	-0,736	82,045	0	1009,74	5,7	7,8	7,6	1	1	1	1	1	1	1	1	1	0	1	-7,82241	273,190581	308,002183	0
15.01.2021	04:17:54	0	0	3,615595	2,65425	359,3844	-0,733	82,039	0	1010	5,7	7,8	7,7	1	1	1	1	1	1	1	1	1	0	1	-2,959831	273,116707	312,52329	0
15.01.2021	04:17:55	0	0	4,971473	2,50725	8,37	-0,731	82,025	0	1009,98	5,7	7,8	7,6	1	1	1	1	1	1	1	1	1	0	1	-2,748414	273,027586	312,323125	0
15.01.2021	04:17:56	0	0	3,84157	2,682	4,0932	-0,736	82,035	0	1009,92	5,8	7,8	7,7	1	1	1	1	1	1	1	1	1	0	1	-4,087385	273,150767	311,55314	0
15.01.2021	04:17:57	0	0	5,084431	3,03675	1,9116	-0,74	82,021	0	1009,9	5,7	7,8	7,7	1	1	1	1	1	1	1	1	1	0	1	-5,567301	273,112454	309,896169	0
15.01.2021	04:17:58	0	0	4,745497	3,2535	6,1668	-0,734	82,033	0	1009,94	5,8	7,8	7,6	1	1	1	1	1	1	1	1	1	0	1	-6,131078	273,18062	309,647454	0
15.01.2021	04:17:59	0	0	4,406506	3,2685	31,3884	-0,739	82,042	0	1009,86	5,7	7,8	7,7	1	1	1	1	1	1	1	1	1	0	1	-8,738548	273,186311	307,066301	0
15.01.2021	04:18:00	0	0	3,38962	2,88	28,7352	-0,731	82,04	0	1009,88	5,8	7,8	7,7	1	1	1	1	1	1	1	1	1	0	1	-5,990134	273,02053	309,048839	0
15.01.2021	04:18:01	0	0	3,38962	2,88	28,7352	-0,731	82,04	0	1009,88	5,8	7,8	7,7	1	1	1	1	1	1	1	1	1	0	1	-5,990134	273,02053	309,048839	0
15.01.2021	04:18:02	0	0	5,197418	2,7045	7,866	-0,734	82,035	0	1010	5,7	7,8	7,7	1	1	1	1	1	1	1	1	1	0	1	-6,976744	273,077046	308,323166	0
15.01.2021	04:18:03	0	0	3,84157	2,60925	15,8184	-0,735	82,019	0	1009,8	5,7	7,8	7,7	1	1	1	1	1	1	1	1	1	0	1	-7,117689	273,18062	308,660844	0
15.01.2021	04:18:04	0	0	4,632481	2,4195	20,2788	-0,734	82,046	0	1010,06	5,7	7,8	7,7	1	1	1	1	1	1	1	1	1	0	1	-4,792107	273,210519	311,124693	0
15.01.2021	04:18:05	0	0	3,163646	2,30025	17,712	-0,73	82,037	0	1010,04	5,8	7,8	7,7	1	1	1	1	1	1	1	1	1	0	1	-9,231853	273,044529	305,917904	0
15.01.2021	04:18:06	0	0	3,954557	2,2725	9,3852	-0,733	82,026	0	1009,98	5,7	7,8	7,7	1	1	1	1	1	1	1	1	1	0	1	-0,98661	273,036056	314,124027	0
15.01.2021	04:18:07	0	0	3,615595	2,27175	15,4116	-0,732	82,037	0	1010,06	5,7	7,8	7,7	1	1	1	1	1	1	1	1	1	0	1	-8,45666	273,067144	306,797519	0
15.01.2021	04:18:08	0	0	4,180532	2,42925	25,416	-0,734	82,044	0	1009,98	5,7	7,8	7,7	1	1	1	1	1	1	1	1	1	0	1	-4,087385	273,13231	311,467837	0
15.01.2021	04:18:09	0	0	3,276633	2,673	16,4844	-0,735	82,024	0	1010,02	5,8	7,8	7,7	1	1	1	1	1	1	1	1	1	0	1	-4,721635	273,024763	310,336876	0
15.01.2021	04:18:10	0	0	4,180532	3,02775	24,0624	-0,734	82,031	0	1010,16	5,8	7,8	7,7	1	1	1	1	1	1	1	1	1	0	1	-2,255109	273,169242	313,470819	0
15.01.2021	04:18:11	0	0	2,937671	3,20475	7,1424	-0,74	82,027	0	1010,04	5,7	7,8	7,7	1	1	1	1	1	1	1	1	1	0	1	-5,285412	273,170664	310,447089	0
15.01.2021	04:18:12	0	0	2,937671	3,11025	10,4472	-0,732	82,044	0	1010,14	5,8	7,8	7,7	1	1	1	1	1	1	1	1	1	0	1	-6,553911	273,209094	309,356299	0
15.01.2021	04:18:13	0	0	3,84157	2,9625	5,6988	-0,729	82,043	0	1009,98	5,8	7,8	7,7	1	1	1	1	1	1	1	1	1	0	1	-5,567301	273,075631	309,726074	0
15.01.2021	04:18:14	0	0	3,276633	2,688	10,818	-0,735	82,04	0	1009,9	5,7	7,8	7,7	1	1	1	1	1	1	1	1	1	0	1	-3,171247	273,150767	312,469278	0
15.01.2021	04:18:15	0	0	3,163646	2,37825	15,4116	-0,736	82,023	0	1009,82	5,7	7,8	7,7	1	1	1	1	1	1	1	1	1	0	1	-8,738548	273,203396	307,145307	0
15.01.2021	04:18:16	0	0	2,824684	2,25525	14,2992	-0,734	82,046	0	1009,96	5,8	7,8	7,7	1	1	1	1	1	1	1	1	1	0	1	-4,933051	273,111036	310,523869	0
15.01.2021	04:18:17	0	0	4,745468	2,25975	27,2772	-0,73	82,042	0	1010,12	5,8	7,8	7,7	1	1	1	1	1	1	1	1	1	0	1	-4,721635	273,024763	310,336876	0
15.01.2021	04:18:18	0	0	4,519494	2,18175	14,6448	-0,732	82,033	0	1010,04	5,8	7,8	7,7	1	1	1	1	1	1	1	1	1	0	1	-5,073996	273,157871	310,599365	0
15.01.2021	04:18:19	0	0	3,38962	2,20725	19,9044	-0,736	82,038	0	1009,92	5,8	7,8	7,7	1	1	1	1	1	1	1	1	1	0	1	-11,275546	273,172086	304,463529	0
15.01.2021	04:18:20	0	0	4,293519	2,3085	7,5024	-0,736	82,036	0	1009,92	5,8	7,8	7,7	1	1	1	1	1	1	1	1	1	0	1	-5,708245	273,199123	310,155851	0
15.01.2021	04:18:21	0	0	3,163646	2,3145	10,0656	-0,735	82,029	0	1010	5,7	7,8	7,7	1	1	1	1	1	1	1	1	1	0	1	-5,144468	273,123798	310,371418	0
15.01.2021	04:18:22	0	0	3,050658	2,3145	10,458	-0,732	82,034	0	1010,06	5,8	7,8	7,7	1	1	1	1	1	1	1	1	1	0	1	-5,355884	273,033232	309,741718	0
15.01.2021	04:18:23	0	0	4,858456	2,424	12,1104	-0,732	82,021	0	1010,02	5,7	7,8	7,7	1	1	1	1	1	1	1	1	1	0	1	-2,536998	273,09545	312,847917	0
15.01.2021	04:18:24	0	0	2,824684	2,25825	19,9008	-0,731	82,038	0	1009,86	5,8	7,8	7,7	1	1	1	1	1	1	1	1	1	0	1	-6,553911	273,200547	309,316771	0
15.01.2021	04:18:25	0	0	4,858456	2,39475	13,302	-0,733	82,04	0	1010,06	5,7	7,8	7,7	1	1	1	1	1	1	1	1	1	0	1	-8,174771	273,162134	307,518298	0
15.01.2021	04:18:26	0	0	3,84157	2,559	11,7288	-0,729	82,032	0	1010,04	5,7	7,8	7,7	1	1	1	1	1	1	1	1	1	0	1	-1,973221	273,034644	313,130899	0
15.01.2021	04:18:27	0	0	3,728582	2,7945	9,7524	-0,731	82,043	0	1010,06	5,7	7,8	7,7	1	1	1	1	1	1	1	1	1	0	1	-5,285412	273,043117	309,857824	0
15.01.2021	04:18:28	0	0	3,615595	3,2205	5,2416	-0,733	82,045	0	1009,86	5,7	7,8	7,7	1	1	1	1	1	1	1	1	1	0	1	-2,255109	273,203396	313,628746	0
15.01.2021	04:18:29	0	0	3,050658	3,31425	2,7252	-0,734	82,047	0	1010,02	5,7	7,8	7,7	1	1	1	1	1	1	1	1	1	0	1	-2,114165	273,03888	313,00951	0
15.01.2021	04:18:30	0	0	2,598709	3,339	11,7324	-0,737	82,043	0	1010,02	5,7	7,8	7,7	1	1	1	1	1	1	1	1	1	0	1	-6,412967	273,150767	309,227559	0
15.01.2021	04:18:31	0	0	4,406506	3,23175	12,942	-0,734	82,046	0	1010,02	5,8	7,8	7,7	1	1	1	1	1	1	1	1	1	0	1	-8,45666	273,199123	307,407436	0
15.01.2021	04:18:32	0	0	4,632481	3,37275	13,5396	-0,732	82,035	0	1010	5,8	7,8	7,7	1	1	1	1	1	1	1	1	1	0	1	-3,24172	273,111036	312,215201	0
15.01.2021	04:18:33	0	0	2,937671	3,41625	13,5504	-0,736	82,041	0	1009,92	5,8	7,8	7,7	1	1	1	1	1	1	1	1	1	0	1	-5,567301	273,197699	310,29021	0
15.01.2021	04:18:34	0	0	3,84157	3,27	23,2272	-0,732	82,039	0	1010,06	5,7	7,8	7,7	1	1	1	1	1	1	1	1	1	0	1	-2,959831	273,085538	312,3793	0
15.01.2021	04:18:35	0	0	3,050658	3,16875	16,9308	-0,729	82,034	0	1010,1	5,7	7,8	7,7	1	1	1	1	1	1	1	1	1	0	1	-7,610994	273,034644	307,493126	0
15.01.2021	04:18:36	0	0	4,745468	3,23025	3,7908	-0,736	82,033	0	1009,92	5,7	7,8	7,7	1	1	1	1	1	1	1	1	1	0	1	-11,205074	273,177775	304,560304	0
15.01.2021	04:18:37	0	0	3,38962	3,30225	10,0728	-0,729	82,041	0	1010,04	5,7	7,8	7,7	1	1	1	1	1	1	1	1	1	0	1	-8,033827	273,082707	307,292228	0
15.01.2021	04:18:38	0	0	4,519494	3,27975	21,3876	-0,729	82,038	0	1010,02	5,7	7,8	7,7	1	1	1	1	1	1	1	1	1	0	1	-7,892882	273,043117	307,250353	0
15.01.2021	04:18:39	0	0	3,050658	3,114	14,3352	-0,727	82,034	0	1009,98	5,7	7,8	7,7	1	1	1	1	1	1	1	1	1	0	1	-5,567301	273,072802	309,713006	0
15.01.2021	04:18:40	0	0	4,180532	3,05775	11,2176	-0,73	82,044	0	1009,94	5,8	7,8	7,7	1	1	1	1	1	1	1	1	1	0	1	-5,84919	273,211944	310,074201	0
15.01.2021	04:18:41	0	0	4,067544	3,1095	6,8148	-0,732	82,037	0	1010,12	5,8	7,8	7,7	1	1	1	1	1	1	1	1	1	0	1	-6,060606	273,060074	309,160925	0
15.01.2021	04:18:42	0	0	2,937671	3,20475	8,712	-0,731	82,028	0	1009,98	5,7	7,8	7,7	1	1	1	1	1	1	1	1	1	0	1	-5,84919	273,023352	309,202808	0
15.01.2021	04:18:43	0	0	3,163646	3,09975	18,0828	-0,73	82,035	0	1009,96	5,7	7,9	7,7	1	1	1	1	1	1	1	1	1	0	1	-5,003524	273,074217	310,283317	0
15.01.2021	04:18:44	0	0	2,937671	3,0825	4,8456	-0,727	82,044	0	1009,96	5,7	7,8	7,7	1	1	1	1	1	1	1	1	1	0	1	-7,610994	273,06573	307,636654	0
15.01.2021	04:18:45	0	0	2,711696	2,95125	1,548	-0,728	82,046	0	1010,04	5,8	7,8	7,7	1	1	1	1	1	1	1	1	1	0	1	-2,748414	273,033232	312,349188	0
15.01.2021	04:18:46	0	0	3,84157	2,811	5,2128	-0,738	82,029	0	1009,98	5,7	7,8	7,7	1	1	1	1	1	1	1	1	1	0	1	-5,003524	273,106784	310,433752	0
15.01.2021	04:18:47	0	0	4,519494	2,796	4,842	-0,728	82,037	0	1010,16	5,7	7,8	7,7	1	1	1	1	1	1	1	1	1	0	1	-5,567301	273,033232	309,530301	0
15.01.2021	04:18:48	0	0	4,293519	2,778	14,3208	-0,729	82,052	0	1010,02	5,7	7,8	7,7	1	1	1	1	1	1	1	1	1	0	1	-7,329105	273,194851	308,515237	0
15.01.2021	04:18:49	0	0	4,293519	2,75025	3,4128	-0,727	82,026	0	1009,98	5,7	7,8	7,7	1	1	1	1	1	1	1	1	1	0	1	-10,359408	273,139407	305,228612	0
15.01.2021	04:18:50	0	0	3,615595	2,6325	10,0692	-0,728	82,054	0	1010,08	5,8	7,8	7,7	1	1	1	1	1	1	1	1	1	0	1	-5,285412	273,023352	309,766585	0
15.01.2021	04:18:51	0	0	3,050658	2,69025	11,2068	-0,734	82,034	0	1010	5,7	7,8	7,7	1	1	1	1	1	1	1	1	1	0	1	-7,82241	273,128054	307,713142	0
15.01.2021	04:18:52	0	0	3,163646	2,691	19,5408	-0,728	82,049	0	1010,06	5,7	7,8	7,7	1	1	1	1	1	1	1	1	1	0	1	-8,527132	273,041704	306,609583	0
15.01.2021	04:18:53	0	0	4,406506	2,79075	1,5624	-0,73	82,045	0	1010,06	5,7	7,8	7,7	1	1	1	1	1	1	1	1	1	0	1	-9,302326	273,146506	306,318506	0
15.01.2021	04:18:54	0	0	2,937689	2,91375	13,9248	-0,725	82,03	0	1010,04	5,7	7,9	7,6	1	1	1	1	1	1	1	1	1	0	1	-8,45666	273,200547	307,414022	0
15.01.2021	04:18:55	0	0	2,711696	2,952	16,4952	-0,728	82,03	0	1009,66	5,7	7,8	7,7	1	1	1	1	1	1	1	1	1	0	1	-2,959831	273,060074	312,2617	0
15.01.2021	04:18:56	0	0	4,067544	2,94975	14,2992	-0,733	82,038	0	1009,94	5,7	7,8	7,7	1	1	1	1	1	1	1	1	1	0	1	-5,637773	273,094034	309,7406	0
15.01.2021	04:18:57	0	0	2,937671	3,3195	10,0728	-0,725	82,046	0	1009,96	5,7	7,8	7,7	1	1	1	1	1	1	1	1	1	0	1	-7,751938	273,030409	307,332632	0
15.01.2021	04:18:58	0	0	2,485722	3,5985	13,9248	-0,727	82,041	0	1010,02	5,7	7,8	7,7	1	1	1	1	1	1	1	1	1	0	1	-5,567301	273,0997	309,837245	0
15.01.2021	04:18:59	0	0	4,406506	3,5595	4,1148	-0,732	82,05	0	1009,98	5,7	7,9	7,7	1	1	1	1	1	1	1	1	1	0	1	-7,892882	273,021941	307,152603	0
15.01.2021	04:19:00	0	0	3,728582	3,72375	7,9056	-0,727	82,051	0	1010,06	5,7	7,8	7,7	1	1	1	1	1	1	1	1	1	0	1	-6,906272	273,184888	308,891997	0
15.01.2021	04:19:01	0	0	3,728582	3,72375	7,9056	-0,727	82,051	0	1010,06	5,7	7,8	7,7	1	1	1	1	1	1	1	1	1	0	1	-6,906272	273,184888	308,891997	0
15.01.2021	04:19:02	0	0	4,067544	3,351	23,22	-0,731	82,044	0	1009,98	5,7	7,8	7,7	1	1	1	1	1	1	1	1	1	0	1	-9,795631	273,193428	306,042127	0
15.01.2021	04:19:03	0	0	3,163646	3,44775	11,1996	-0,726	82,043	0	1010,16	5,7	7,8	7,7	1	1	1	1	1	1	1	1	1	0	1	-6,976744	273,150767	308,663781	0
15.01.2021	04:19:04	0	0	3,050658	3,55875	16,1028	-0,735	82,039	0	1010	5,7	7,8	7,7	1	1	1	1	1	1	1	1	1	0	1	-7,399577	273,199123	308,464519	0
15.01.2021	04:19:05	0	0	2,711713	3,70575	18,09	-0,727	82,054	0	1010	5,7	7,9	7,6	1	1	1	1	1	1	1	1	1	0	1	-5,990134	273,106784	309,447141	0
15.01.2021	04:19:06	0	0	2,711696	3,774	16,1064	-0,732	82,041	0	1010,02	5,7	7,8	7,7	1	1	1	1	1	1	1	1	1	0	1	-6,060606	273,199123	309,80349	0
15.01.2021	04:19:07	0	0	5,197449	3,96525	6,4332	-0,729	82,038	0	1009,98	5,7	7,9	7,6	1	1	1	1	1	1	1	1	1	0	1	-6,553911	273,173508	309,191739	0
15.01.2021	04:19:08	0	0	5,197418	3,99675	2,6424	-0,734	82,036	0	1009,98	5,7	7,8	7,7	1	1	1	1	1	1	1	1	1	0	1	-3,59408	273,203396	312,289775	0
15.01.2021	04:19:09	0	0	3,050677	3,68925	351,738	-0,733	82,048	0	1009,98	5,7	7,9	7,6	1	1	1	1	1	1	1	1	1	0	1	-2,325581	273,142247	313,275561	0
15.01.2021	04:19:10	0	0	3,841593	3,30975	355,0464	-0,726	82,049	0	1010,08	5,7	7,9	7,6	1	1	1	1	1	1	1	1	1	0	1	-5,003524	273,217644	310,946236	0
15.01.2021	04:19:11	0	0	2,25976	3,063	4,8384	-0,727	82,043	0	1010	5,7	7,7	7,6	1	1	1	1	1	1	1	1	1	0	1	-6,694856	273,102533	308,72278	0
15.01.2021	04:19:12	0	0	3,615595	3,117	7,974	-0,735	82,028	0	1009,96	5,7	7,8	7,7	1	1	1	1	1	1	1	1	1	0	1	-8,45666	273,037468	306,660496	0
15.01.2021	04:19:13	0	0	5,649367	3,28125	3,0276	-0,733	82,041	0	1010,02	5,7	7,7	7,7	1	1	1	1	1	1	1	1	1	0	1	-0	273,18062	315,778533	0
15.01.2021	04:19:14	0	0	2,485736	3,37275	7,1352	-0,728	82,047	0	1009,96	5,7	7,8	7,6	1	1	1	1	1	1	1	1	1	0	1	-0,775194	273,055833	314,426755	0
15.01.2021	04:19:15	0	0	4,858485	3,35325	11,1996	-0,734	82,035	0	1009,96	5,7	7,9	7,6	1	1	1	1	1	1	1	1	1	0	1	-3,523608	273,143666	312,084097	0
15.01.2021	04:19:16	0	0	4,519494	3,1905	12,4812	-0,726	82,04	0	1009,88	5,7	7,9	7,7	1	1	1	1	1	1	1	1	1	0	1	-3,875969	273,193428	311,961789	0
15.01.2021	04:19:17	0	0	4,406506	3,036	2,6532	-0,727	82,044	0	1010,08	5,7	7,8	7,7	1	1	1	1	1	1	1	1	1	0	1	-4,087385	273,210519	311,829415	0
15.01.2021	04:19:18	0	0	3,954581	2,92875	357,2352	-0,727	82,051	0	1009,96	5,7	7,9	7,6	1	1	1	1	1	1	1	1	1	0	1	-10,711769	273,152188	304,935323	0
15.01.2021	04:19:19	0	0	4,632509	3,1545	6,84	-0,73	82,056	0	1009,98	5,7	7,7	7,6	1	1	1	1	1	1	1	1	1	0	1	-6,553911	273,173508	309,191739	0
15.01.2021	04:19:20	0	0	2,937689	3,3345	0,594	-0,73	82,051	0	1010,08	5,7	7,8	7,6	1	1	1	1	1	1	1	1	1	0	1	-0	273,061488	315,228059	0
15.01.2021	04:19:21	0	0	2,259747	3,48	9,0036	-0,729	82,051	0	1009,88	5,7	7,9	7,7	1	1	1	1	1	1	1	1	1	0	1	-6,483439	273,153608	309,170219	0
15.01.2021	04:19:22	0	0	3,502608	3,60825	7,1388	-0,73	82,04	0	1010,08	5,7	7,9	7,7	1	1	1	1	1	1	1	1	1	0	1	-5,567301	273,030409	309,517269	0
15.01.2021	04:19:23	0	0	3,728605	3,72975	15,1164	-0,73	82,036	0	1010,12	5,7	7,9	7,6	1	1	1	1	1	1	1	1	1	0	1	-6,483439	273,169242	309,242489	0
15.01.2021	04:19:24	0	0	4,293519	3,804	9,7596	-0,735	82,05	0	1010,08	5,7	7,8	7,7	1	1	1	1	1	1	1	1	1	0	1	-6,342495	273,206245	309,554537	0
15.01.2021	04:19:25	0	0	3,050677	3,945	7,1424	-0,727	82,049	0	1010,08	5,7	7,8	7,6	1	1	1	1	1	1	1	1	1	0	1	-4,510218	273,051594	310,672154	0
15.01.2021	04:19:26	0	0	4,293545	3,6675	19,5444	-0,727	82,043	0	1010,1	5,7	7,8	7,6	1	1	1	1	1	1	1	1	1	0	1	-8,386187	273,196275	307,464738	0
15.01.2021	04:19:27	0	0	3,728605	3,3285	18,8424	-0,726	82,047	0	1010,02	5,7	7,8	7,6	1	1	1	1	1	1	1	1	1	0	1	-3,24172	273,053007	311,947178	0
15.01.2021	04:19:28	0	0	2,937689	3,02475	18,072	-0,724	82,036	0	1009,98	5,7	7,8	7,6	1	1	1	1	1	1	1	1	1	0	1	-10,42988	273,146506	305,190951	0
15.01.2021	04:19:29	0	0	3,841593	3,09375	4,4856	-0,728	82,052	0	1009,98	5,7	7,7	7,6	1	1	1	1	1	1	1	1	1	0	1	-6,272023	273,040292	308,858172	0
15.01.2021	04:19:30	0	0	2,937689	3,2775	3,4092	-0,726	82,046	0	1010,06	5,7	7,8	7,6	1	1	1	1	1	1	1	1	1	0	1	-5,285412	273,079877	310,027569	0
15.01.2021	04:19:31	0	0	4,858485	3,4755	9,3672	-0,73	82,032	0	1010,18	5,7	7,8	7,6	1	1	1	1	1	1	1	1	1	0	1	-2,889359	273,045942	312,26692	0
15.01.2021	04:19:32	0	0	3,841593	3,5115	10,8252	-0,724	82,053	0	1010,02	5,7	7,9	7,6	1	1	1	1	1	1	1	1	1	0	1	-10,570825	273,098283	304,827177	0
15.01.2021	04:19:33	0	0	2,711696	3,498	22,1004	-0,732	82,047	0	1010	5,7	7,7	7,7	1	1	1	1	1	1	1	1	1	0	1	-6,624383	273,02053	308,414589	0
15.01.2021	04:19:34	0	0	2,937689	3,42525	6,5268	-0,728	82,042	0	1010,02	5,7	7,8	7,6	1	1	1	1	1	1	1	1	1	0	1	-5,637773	273,098283	309,760229	0
15.01.2021	04:19:35	0	0	3,163665	3,4395	14,3136	-0,723	82,051	0	1010,08	5,7	7,9	7,6	1	1	1	1	1	1	1	1	1	0	1	-5,778717	273,223347	310,19742	0
15.01.2021	04:19:36	0	0	4,180557	3,366	11,196	-0,732	82,052	0	1010,04	5,7	7,9	7,6	1	1	1	1	1	1	1	1	1	0	1	-6,272023	273,091201	309,093267	0
15.01.2021	04:19:37	0	0	4,745497	3,33525	19,5372	-0,725	82,032	0	1009,84	5,7	7,9	7,6	1	1	1	1	1	1	1	1	1	0	1	-4,721635	273,13373	310,840146	0
15.01.2021	04:19:38	0	0	4,293545	3,47175	7,1388	-0,726	82,06	0	1010	5,7	7,9	7,6	1	1	1	1	1	1	1	1	1	0	1	-6,342495	273,026174	308,72253	0
15.01.2021	04:19:39	0	0	4,632509	3,39375	11,2068	-0,731	82,046	0	1010	5,7	7,8	7,6	1	1	1	1	1	1	1	1	1	0	1	-3,875969	273,13231	311,679254	0
15.01.2021	04:19:40	0	0	4,632509	3,09375	16,8624	-0,729	82,062	0	1009,92	5,7	7,8	7,6	1	1	1	1	1	1	1	1	1	0	1	-4,157858	273,034644	310,946262	0
15.01.2021	04:19:41	0	0	4,745497	2,9775	13,5468	-0,726	82,039	0	1010,12	5,7	7,8	7,6	1	1	1	1	1	1	1	1	1	0	1	-6,624383	273,155029	309,035842	0
15.01.2021	04:19:42	0	0	4,406533	2,76975	21,7728	-0,724	82,071	0	1010,18	5,7	7,8	7,6	1	1	1	1	1	1	1	1	1	0	1	-5,778717	273,221921	310,190825	0
15.01.2021	04:19:43	0	0	3,502629	2,8365	25,4196	-0,726	82,063	0	1009,96	5,7	7,8	7,6	1	1	1	1	1	1	1	1	1	0	1	-7,188161	273,129473	308,353948	0
15.01.2021	04:19:44	0	0	4,406533	2,98125	22,8492	-0,73	82,044	0	1010,04	5,7	7,8	7,6	1	1	1	1	1	1	1	1	1	0	1	-5,285412	273,21907	310,670941	0
15.01.2021	04:19:45	0	0	3,502629	3,0735	3,024	-0,726	82,058	0	1009,84	5,7	7,8	7,6	1	1	1	1	1	1	1	1	1	0	1	-0,422833	273,12238	315,086499	0
15.01.2021	04:19:46	0	0	3,954557	3,0585	360	-0,722	82,066	0	1010,18	5,7	7,8	7,7	1	1	1	1	1	1	1	1	1	0	1	-8,949965	273,223347	307,026173	0
15.01.2021	04:19:47	0	0	4,406533	3,05175	8,9892	-0,727	82,048	0	1010,1	5,7	7,9	7,6	1	1	1	1	1	1	1	1	1	0	1	-1,832276	273,200547	314,038406	0
15.01.2021	04:19:48	0	0	3,954581	3,0345	1,9296	-0,725	82,063	0	1010,1	5,7	7,8	7,6	1	1	1	1	1	1	1	1	1	0	1	-3,100775	273,155029	312,55945	0
15.01.2021	04:19:49	0	0	4,858485	2,9655	7,488	-0,73	82,057	0	1009,9	5,7	7,8	7,6	1	1	1	1	1	1	1	1	1	0	1	-5,285412	273,199123	310,578684	0
15.01.2021	04:19:50	0	0	4,632509	2,84325	20,304	-0,727	82,059	0	1009,82	5,7	7,8	7,6	1	1	1	1	1	1	1	1	1	0	1	-8,80902	273,169242	306,916907	0
15.01.2021	04:19:51	0	0	4,406533	2,63175	8,6328	-0,722	82,064	0	1010,12	5,7	7,8	7,6	1	1	1	1	1	1	1	1	1	0	1	-5,637773	273,210519	310,279027	0
15.01.2021	04:19:52	0	0	3,389641	2,54775	13,5432	-0,728	82,042	0	1010,1	5,7	7,8	7,6	1	1	1	1	1	1	1	1	1	0	1	-8,879493	273,069973	306,387749	0
15.01.2021	04:19:53	0	0	2,711696	2,67075	10,8252	-0,724	82,058	0	1010,06	5,7	7,8	7,7	1	1	1	1	1	1	1	1	1	0	1	-4,087385	273,111036	311,369535	0
15.01.2021	04:19:54	0	0	4,180532	2,81625	18,1008	-0,723	82,047	0	1010	5,7	7,8	7,7	1	1	1	1	1	1	1	1	1	0	1	-5,84919	273,021941	309,196295	0
15.01.2021	04:19:55	0	0	2,824701	2,74425	16,866	-0,728	82,043	0	1010,1	5,7	7,8	7,6	1	1	1	1	1	1	1	1	1	0	1	-8,245243	273,137988	307,336216	0
15.01.2021	04:19:56	0	0	4,971473	2,75175	20,3832	-0,721	82,063	0	1010	5,7	7,8	7,6	1	1	1	1	1	1	1	1	1	0	1	-7,047216	273,207669	308,856404	0
15.01.2021	04:19:57	0	0	3,728605	2,7255	12,4668	-0,725	82,059	0	1009,82	5,7	7,8	7,6	1	1	1	1	1	1	1	1	1	0	1	-5,285412	273,112454	310,178057	0
15.01.2021	04:19:58	0	0	2,937671	2,643	15,7932	-0,722	82,043	0	1010,04	5,7	7,8	7,7	1	1	1	1	1	1	1	1	1	0	1	-9,090909	273,197699	306,766602	0
15.01.2021	04:19:59	0	0	3,728582	2,517	12,4704	-0,724	82,051	0	1010,1	5,7	7,8	7,7	1	1	1	1	1	1	1	1	1	0	1	-5,003524	273,183465	310,788166	0
15.01.2021	04:20:00	0	0	2,598725	2,55525	7,2252	-0,726	82,052	0	1009,8	5,7	7,8	7,6	1	1	1	1	1	1	1	1	1	0	1	-8,879493	273,053007	306,309405	0
15.01.2021	04:20:01	0	0	2,598725	2,55525	7,2252	-0,726	82,052	0	1009,8	5,7	7,8	7,6	1	1	1	1	1	1	1	1	1	0	1	-8,879493	273,053007	306,309405	0
15.01.2021	04:20:02	0	0	4,971473	2,604	7,5204	-0,724	82,055	0	1010,12	5,7	7,8	7,6	1	1	1	1	1	1	1	1	1	0	1	-3,382664	273,157871	312,290697	0
15.01.2021	04:20:03	0	0	4,632481	2,6565	10,8252	-0,722	82,049	0	1009,94	5,7	7,8	7,7	1	1	1	1	1	1	1	1	1	0	1	-8,597604	273,048768	306,571721	0
15.01.2021	04:20:04	0	0	2,824701	2,58	4,8564	-0,726	82,056	0	1010,1	5,7	7,8	7,6	1	1	1	1	1	1	1	1	1	0	1	-7,329105	273,116707	308,154016	0
15.01.2021	04:20:05	0	0	4,858485	2,52225	18,8424	-0,725	82,051	0	1010,1	5,7	7,8	7,6	1	1	1	1	1	1	1	1	1	0	1	-4,087385	273,193428	311,750373	0
15.01.2021	04:20:06	0	0	2,937689	2,52375	18,0864	-0,726	82,04	0	1010,12	5,7	7,8	7,6	1	1	1	1	1	1	1	1	1	0	1	-2,677942	273,079877	312,635039	0
15.01.2021	04:20:07	0	0	4,406533	2,48625	13,1652	-0,725	82,047	0	1010	5,7	7,8	7,6	1	1	1	1	1	1	1	1	1	0	1	-3,59408	273,101116	311,81701	0
15.01.2021	04:20:08	0	0	3,502629	2,50725	16,8552	-0,722	82,06	0	1009,92	5,7	7,8	7,6	1	1	1	1	1	1	1	1	1	0	1	-6,624383	273,047355	308,538418	0
15.01.2021	04:20:09	0	0	4,971473	2,60625	10,4436	-0,729	82,045	0	1010,02	5,7	7,8	7,6	1	1	1	1	1	1	1	1	1	0	1	-5,708245	273,166398	310,004537	0
15.01.2021	04:20:10	0	0	4,632509	2,69625	11,736	-0,726	82,035	0	1010,02	5,7	7,8	7,6	1	1	1	1	1	1	1	1	1	0	1	-7,751938	273,172086	307,987138	0
15.01.2021	04:20:11	0	0	4,745468	2,76075	6,822	-0,731	82,046	0	1010,06	5,7	7,8	7,7	1	1	1	1	1	1	1	1	1	0	1	-7,047216	273,213369	308,882766	0
15.01.2021	04:20:12	0	0	2,711713	2,88075	1,1808	-0,723	82,062	0	1010,12	5,7	7,8	7,6	1	1	1	1	1	1	1	1	1	0	1	-4,721635	273,194851	311,122707	0
15.01.2021	04:20:13	0	0	2,937689	2,95575	358,7256	-0,726	82,056	0	1010,02	5,7	7,8	7,6	1	1	1	1	1	1	1	1	1	0	1	-0,281889	273,183465	315,509801	0
15.01.2021	04:20:14	0	0	3,84157	2,92875	4,4748	-0,725	82,054	0	1010,1	5,7	7,8	7,7	1	1	1	1	1	1	1	1	1	0	1	-3,030303	273,199123	312,833793	0
15.01.2021	04:20:15	0	0	4,858456	2,8005	0	-0,728	82,047	0	1010,08	5,7	7,8	7,7	1	1	1	1	1	1	1	1	1	0	1	-4,721635	273,21907	311,234718	0
15.01.2021	04:20:16	0	0	2,711696	2,67975	7,5024	-0,726	82,037	0	1009,86	5,7	7,8	7,7	1	1	1	1	1	1	1	1	1	0	1	-3,171247	273,13373	312,390534	0
15.01.2021	04:20:17	0	0	4,519494	2,4975	0,5004	-0,728	82,042	0	1009,94	5,7	7,8	7,7	1	1	1	1	1	1	1	1	1	0	1	-1,832276	273,160713	313,854223	0
15.01.2021	04:20:18	0	0	3,163646	2,25825	23,2308	-0,719	82,061	0	1010,08	5,8	7,8	7,7	1	1	1	1	1	1	1	1	1	0	1	-3,382664	273,082707	311,943391	0
15.01.2021	04:20:19	0	0	2,711696	2,19675	13,5576	-0,722	82,057	0	1010,04	5,7	7,8	7,7	1	1	1	1	1	1	1	1	1	0	1	-4,157858	273,216219	311,785309	0
15.01.2021	04:20:20	0	0	3,728605	2,10975	27,2772	-0,725	82,056	0	1010,1	5,7	7,8	7,6	1	1	1	1	1	1	1	1	1	0	1	-5,285412	273,068558	309,975298	0
15.01.2021	04:20:21	0	0	3,728605	2,08125	16,4988	-0,724	82,045	0	1009,92	5,7	7,8	7,6	1	1	1	1	1	1	1	1	1	0	1	-3,030303	273,21907	312,92605	0
15.01.2021	04:20:22	0	0	3,728605	2,06025	18,8388	-0,729	82,049	0	1010,02	5,7	7,8	7,6	1	1	1	1	1	1	1	1	1	0	1	-6,765328	273,155029	308,894897	0
15.01.2021	04:20:23	0	0	2,25976	2,085	19,9656	-0,721	82,047	0	1010,06	5,7	7,8	7,6	1	1	1	1	1	1	1	1	1	0	1	-5,073996	273,213369	310,855986	0
15.01.2021	04:20:24	0	0	3,502608	2,154	27,27	-0,729	82,054	0	1010	5,7	7,8	7,7	1	1	1	1	1	1	1	1	1	0	1	-3,805497	273,075631	311,487878	0
15.01.2021	04:20:25	0	0	2,824701	2,16975	15,7932	-0,723	82,069	0	1010,08	5,8	7,8	7,6	1	1	1	1	1	1	1	1	1	0	1	-9,44327	273,061488	305,784789	0
15.01.2021	04:20:26	0	0	3,84157	2,1105	19,1448	-0,729	82,043	0	1009,88	5,8	7,8	7,7	1	1	1	1	1	1	1	1	1	0	1	-8,174771	273,20482	307,715672	0
15.01.2021	04:20:27	0	0	2,711696	2,02275	3,78	-0,724	82,057	0	1010,1	5,8	7,8	7,7	1	1	1	1	1	1	1	1	1	0	1	-3,312192	273,082707	312,013863	0
15.01.2021	04:20:28	0	0	3,84157	2,1585	13,5612	-0,721	82,053	0	1009,96	5,7	7,8	7,7	1	1	1	1	1	1	1	1	1	0	1	-6,131078	273,216219	309,812088	0
15.01.2021	04:20:29	0	0	4,180557	2,193	16,8552	-0,731	82,064	0	1010,12	5,7	7,8	7,6	1	1	1	1	1	1	1	1	1	0	1	-4,510218	273,111036	310,946702	0
15.01.2021	04:20:30	0	0	3,163646	2,22375	24,0516	-0,726	82,046	0	1010	5,7	7,8	7,7	1	1	1	1	1	1	1	1	1	0	1	-6,412967	273,041704	308,723748	0
15.01.2021	04:20:31	0	0	2,711696	2,211	8,622	-0,72	82,069	0	1009,92	5,7	7,8	7,7	1	1	1	1	1	1	1	1	1	0	1	-4,580691	273,067144	310,673488	0
15.01.2021	04:20:32	0	0	3,163646	2,289	15,4008	-0,732	82,062	0	1009,98	5,7	7,8	7,7	1	1	1	1	1	1	1	1	1	0	1	-6,8358	273,108201	308,608023	0
15.01.2021	04:20:33	0	0	4,293519	2,244	17,6976	-0,726	82,05	0	1010,1	5,8	7,8	7,7	1	1	1	1	1	1	1	1	1	0	1	-7,399577	273,224773	308,583156	0
15.01.2021	04:20:34	0	0	3,163665	2,301	7,5168	-0,723	82,057	0	1010,1	5,8	7,8	7,6	1	1	1	1	1	1	1	1	1	0	1	-3,664553	273,113871	311,805467	0
15.01.2021	04:20:35	0	0	4,293519	2,142	26,5212	-0,727	82,062	0	1010,02	5,7	7,8	7,7	1	1	1	1	1	1	1	1	1	0	1	-4,792107	273,220495	311,17084	0
15.01.2021	04:20:36	0	0	4,632481	2,0895	10,8144	-0,724	82,059	0	1010,26	5,7	7,8	7,7	1	1	1	1	1	1	1	1	1	0	1	-1,338971	273,137988	314,242488	0
15.01.2021	04:20:37	0	0	5,310405	2,307	10,0728	-0,724	82,068	0	1010,04	5,7	7,8	7,7	1	1	1	1	1	1	1	1	1	0	1	-3,946441	273,037468	311,170715	0
15.01.2021	04:20:38	0	0	4,519494	2,6415	28,3356	-0,721	82,072	0	1009,98	5,8	7,8	7,7	1	1	1	1	1	1	1	1	1	0	1	-5,708245	273,08837	309,643964	0
15.01.2021	04:20:39	0	0	3,84157	2,80875	12,1068	-0,724	82,071	0	1010,14	5,8	7,8	7,7	1	1	1	1	1	1	1	1	1	0	1	-6,060606	273,209094	309,849604	0
15.01.2021	04:20:40	0	0	3,389641	2,89425	18,4428	-0,723	82,07	0	1010,02	5,8	7,8	7,6	1	1	1	1	1	1	1	1	1	0	1	-9,161381	273,077046	306,138528	0
15.01.2021	04:20:41	0	0	3,502608	2,7045	18,0936	-0,723	82,065	0	1010,14	5,7	7,8	7,7	1	1	1	1	1	1	1	1	1	0	1	-7,681466	273,20482	308,208977	0
15.01.2021	04:20:42	0	0	3,728582	2,739	6,8076	-0,721	82,078	0	1010	5,8	7,8	7,7	1	1	1	1	1	1	1	1	1	0	1	-0,775194	273,136568	314,799706	0
15.01.2021	04:20:43	0	0	3,615595	2,82225	11,2104	-0,723	82,07	0	1009,98	5,7	7,8	7,7	1	1	1	1	1	1	1	1	1	0	1	-3,664553	273,05442	311,530871	0
15.01.2021	04:20:44	0	0	4,067544	2,71725	16,8588	-0,728	82,086	0	1009,88	5,7	7,8	7,7	1	1	1	1	1	1	1	1	1	0	1	-7,610994	273,082707	307,715061	0
15.01.2021	04:20:45	0	0	3,050677	2,66325	10,0836	-0,726	82,069	0	1010,02	5,7	7,8	7,6	1	1	1	1	1	1	1	1	1	0	1	-5,84919	273,199123	310,014906	0
15.01.2021	04:20:46	0	0	4,971473	2,80125	18,0828	-0,73	82,07	0	1009,96	5,8	7,8	7,6	1	1	1	1	1	1	1	1	1	0	1	-11,06413	273,177775	304,701248	0
15.01.2021	04:20:47	0	0	2,598709	2,823	22,4604	-0,724	82,05	0	1009,96	5,7	7,8	7,7	1	1	1	1	1	1	1	1	1	0	1	-5,708245	273,044529	309,441512	0
15.01.2021	04:20:48	0	0	3,954557	3,06375	15,4116	-0,722	82,07	0	1009,98	5,8	7,8	7,7	1	1	1	1	1	1	1	1	1	0	1	-5,144468	273,199123	310,719628	0
15.01.2021	04:20:49	0	0	3,84157	3,12975	16,11	-0,718	82,075	0	1010,12	5,8	7,8	7,7	1	1	1	1	1	1	1	1	1	0	1	-4,016913	273,155029	311,643312	0
15.01.2021	04:20:50	0	0	4,519494	3,02325	12,8556	-0,724	82,083	0	1010,12	5,7	7,8	7,7	1	1	1	1	1	1	1	1	1	0	1	-9,795631	273,048768	305,373694	0
15.01.2021	04:20:51	0	0	3,615595	2,82075	18,1728	-0,725	82,086	0	1010,04	5,7	7,8	7,7	1	1	1	1	1	1	1	1	1	0	1	-5,637773	273,10395	309,786409	0
15.01.2021	04:20:52	0	0	3,38962	2,38275	22,0824	-0,723	82,087	0	1010,06	5,7	7,8	7,7	1	1	1	1	1	1	1	1	1	0	1	-9,936575	273,20482	305,953868	0
15.01.2021	04:20:53	0	0	3,728582	2,412	359,8416	-0,72	82,065	0	1009,9	5,8	7,8	7,7	1	1	1	1	1	1	1	1	1	0	1	-1,973221	273,129473	313,568888	0
15.01.2021	04:20:54	0	0	4,519494	2,73225	7,5132	-0,721	82,065	0	1009,98	5,8	7,8	7,7	1	1	1	1	1	1	1	1	1	0	1	-6,906272	273,209094	309,003938	0
15.01.2021	04:20:55	0	0	2,485722	3,0225	10,4508	-0,725	82,075	0	1010,06	5,7	7,8	7,7	1	1	1	1	1	1	1	1	1	0	1	-1,057082	273,159292	314,622847	0
15.01.2021	04:20:56	0	0	3,728582	3,234	10,4328	-0,72	82,079	0	1010	5,8	7,8	7,7	1	1	1	1	1	1	1	1	1	0	1	-6,131078	273,048768	309,038247	0
15.01.2021	04:20:57	0	0	3,050658	3,49425	9,3744	-0,723	82,081	0	1010,08	5,7	7,8	7,7	1	1	1	1	1	1	1	1	1	0	1	-7,610994	273,036056	307,499644	0
15.01.2021	04:20:58	0	0	2,711696	3,28875	19,1592	-0,721	82,08	0	1010,06	5,7	7,8	7,7	1	1	1	1	1	1	1	1	1	0	1	-7,329105	273,216219	308,614061	0
15.01.2021	04:20:59	0	0	2,937671	3,14475	17,6904	-0,717	82,082	0	1009,94	5,8	7,8	7,7	1	1	1	1	1	1	1	1	1	0	1	-9,020437	273,126635	306,508559	0
15.01.2021	04:21:00	0	0	4,632481	2,87325	10,8108	-0,722	82,084	0	1009,96	5,8	7,8	7,7	1	1	1	1	1	1	1	1	1	0	1	-3,59408	273,182042	312,191031	0
15.01.2021	04:21:01	0	0	4,632481	2,87325	10,8108	-0,722	82,084	0	1009,96	5,8	7,8	7,7	1	1	1	1	1	1	1	1	1	0	1	-3,59408	273,182042	312,191031	0
15.01.2021	04:21:02	0	0	3,276633	2,85975	10,458	-0,718	82,081	0	1009,98	5,8	7,8	7,7	1	1	1	1	1	1	1	1	1	0	1	-4,651163	273,207669	311,252458	0
15.01.2021	04:21:03	0	0	2,824684	2,838	7,8912	-0,722	82,081	0	1010,1	5,8	7,8	7,7	1	1	1	1	1	1	1	1	1	0	1	-5,567301	273,03182	309,523785	0
15.01.2021	04:21:04	0	0	3,954557	2,8845	7,8768	-0,724	82,083	0	1009,8	5,8	7,8	7,7	1	1	1	1	1	1	1	1	1	0	1	-1,479915	273,061488	313,748144	0
15.01.2021	04:21:05	0	0	2,824684	2,84625	7,5204	-0,721	82,09	0	1010,12	5,7	7,8	7,7	1	1	1	1	1	1	1	1	1	0	1	-8,174771	273,03888	306,948904	0
15.01.2021	04:21:06	0	0	5,084431	2,70375	22,0932	-0,718	82,089	0	1009,88	5,7	7,8	7,7	1	1	1	1	1	1	1	1	1	0	1	-5,919662	273,118125	309,570011	0
15.01.2021	04:21:07	0	0	3,84157	2,6685	12,8556	-0,719	82,092	0	1010,18	5,8	7,8	7,7	1	1	1	1	1	1	1	1	1	0	1	-1,057082	273,05866	314,157921	0
15.01.2021	04:21:08	0	0	3,954557	2,622	12,4812	-0,721	82,09	0	1010,08	5,8	7,8	7,7	1	1	1	1	1	1	1	1	1	0	1	-5,637773	273,03182	309,453313	0
15.01.2021	04:21:09	0	0	2,824684	2,5185	7,1316	-0,722	82,092	0	1010,12	5,8	7,8	7,7	1	1	1	1	1	1	1	1	1	0	1	-10,007047	273,170664	305,725454	0
15.01.2021	04:21:10	0	0	4,745468	2,54925	2,6568	-0,725	82,085	0	1010,06	5,7	7,8	7,7	1	1	1	1	1	1	1	1	1	0	1	-2,818887	273,214794	313,117687	0
15.01.2021	04:21:11	0	0	3,38962	2,62725	358,794	-0,721	82,088	0	1009,9	5,8	7,8	7,7	1	1	1	1	1	1	1	1	1	0	1	-3,946441	273,09545	311,438474	0
15.01.2021	04:21:12	0	0	4,745468	2,70075	3,8016	-0,727	82,058	0	1010,12	5,8	7,8	7,7	1	1	1	1	1	1	1	1	1	0	1	-5,496829	273,041704	309,639886	0
15.01.2021	04:21:13	0	0	3,84157	2,71275	10,44	-0,728	82,074	0	1010,02	5,8	7,8	7,7	1	1	1	1	1	1	1	1	1	0	1	-5,567301	273,164977	310,13891	0
15.01.2021	04:21:14	0	0	4,745468	2,622	356,1804	-0,721	82,084	0	1009,96	5,8	7,8	7,7	1	1	1	1	1	1	1	1	1	0	1	-3,875969	273,200547	311,994713	0
15.01.2021	04:21:15	0	0	3,163646	2,5665	7,1388	-0,721	82,076	0	1010,02	5,7	7,8	7,7	1	1	1	1	1	1	1	1	1	0	1	-6,483439	273,033232	308,614163	0
15.01.2021	04:21:16	0	0	3,38962	2,56575	10,0584	-0,725	82,079	0	1010,08	5,8	7,8	7,7	1	1	1	1	1	1	1	1	1	0	1	-0,211416	273,155029	315,448809	0
15.01.2021	04:21:17	0	0	3,38962	2,61525	10,44	-0,72	82,094	0	1010,16	5,8	7,8	7,7	1	1	1	1	1	1	1	1	1	0	1	-2,889359	273,207669	313,014262	0
15.01.2021	04:21:18	0	0	2,485722	2,7285	5,6988	-0,724	82,088	0	1010,06	5,8	7,8	7,7	1	1	1	1	1	1	1	1	1	0	1	-7,329105	273,15645	308,337688	0
15.01.2021	04:21:19	0	0	4,858456	2,9775	8,2764	-0,719	82,087	0	1009,96	5,8	7,8	7,7	1	1	1	1	1	1	1	1	1	0	1	-5,778717	273,047355	309,384084	0
15.01.2021	04:21:20	0	0	3,728582	3,10725	356,9004	-0,726	82,086	0	1010,12	5,8	7,8	7,7	1	1	1	1	1	1	1	1	1	0	1	-9,090909	273,060074	306,130622	0
15.01.2021	04:21:21	0	0	2,598709	2,94075	7,6464	-0,718	82,096	0	1010,24	5,8	7,8	7,7	1	1	1	1	1	1	1	1	1	0	1	-2,325581	273,176352	313,43322	0
15.01.2021	04:21:22	0	0	3,502608	2,6055	16,4844	-0,723	82,095	0	1010,02	5,8	7,8	7,7	1	1	1	1	1	1	1	1	1	0	1	-8,45666	273,211944	307,466731	0
15.01.2021	04:21:23	0	0	2,711696	2,499	357,66	-0,724	82,089	0	1010,08	5,7	7,8	7,7	1	1	1	1	1	1	1	1	1	0	1	-6,060606	273,159292	309,619324	0
15.01.2021	04:21:24	0	0	4,067544	2,6475	8,28	-0,727	82,081	0	1010,02	5,8	7,8	7,7	1	1	1	1	1	1	1	1	1	0	1	-4,298802	273,027586	310,772737	0
15.01.2021	04:21:25	0	0	2,711696	2,83275	22,842	-0,718	82,093	0	1010,1	5,7	7,8	7,7	1	1	1	1	1	1	1	1	1	0	1	-4,792107	273,08837	310,560102	0
15.01.2021	04:21:26	0	0	3,276633	3,219	12,8484	-0,722	82,078	0	1010,04	5,8	7,8	7,7	1	1	1	1	1	1	1	1	1	0	1	-2,818887	273,021941	312,226598	0
15.01.2021	04:21:27	0	0	2,824684	3,3015	17,7012	-0,722	82,084	0	1009,76	5,8	7,8	7,7	1	1	1	1	1	1	1	1	1	0	1	-6,906272	273,111036	308,550648	0
15.01.2021	04:21:28	0	0	4,632481	3,02625	19,512	-0,725	82,104	0	1009,98	5,8	7,8	7,7	1	1	1	1	1	1	1	1	1	0	1	-3,735025	273,209094	312,175185	0
15.01.2021	04:21:29	0	0	2,598709	2,6385	41,8428	-0,719	82,113	0	1010	5,8	7,8	7,7	1	1	1	1	1	1	1	1	1	0	1	-7,892882	273,082707	307,433172	0
15.01.2021	04:21:30	0	0	3,38962	2,25675	29,1132	-0,722	82,096	0	1009,94	5,8	7,8	7,7	1	1	1	1	1	1	1	1	1	0	1	-8,245243	273,079877	307,067738	0
15.01.2021	04:21:31	0	0	4,745468	2,0055	12,9492	-0,722	82,082	0	1010,06	5,8	7,8	7,7	1	1	1	1	1	1	1	1	1	0	1	-4,016913	273,223347	311,959224	0
15.01.2021	04:21:32	0	0	4,293519	2,022	28,728	-0,723	82,095	0	1010,02	5,8	7,8	7,7	1	1	1	1	1	1	1	1	1	0	1	-6,906272	273,152188	308,740819	0
15.01.2021	04:21:33	0	0	2,937671	2,09775	27,6624	-0,727	82,093	0	1010,02	5,8	7,8	7,7	1	1	1	1	1	1	1	1	1	0	1	-2,255109	273,034644	312,84901	0
15.01.2021	04:21:34	0	0	3,38962	2,145	27,6552	-0,724	82,108	0	1010,12	5,8	7,8	7,7	1	1	1	1	1	1	1	1	1	0	1	-5,778717	273,036056	309,33192	0
15.01.2021	04:21:35	0	0	2,824684	2,2335	25,4052	-0,72	82,111	0	1009,96	5,8	7,8	7,7	1	1	1	1	1	1	1	1	1	0	1	-2,396054	273,143666	313,211652	0
15.01.2021	04:21:36	0	0	4,858456	2,43525	16,632	-0,72	82,09	0	1010,04	5,8	7,8	7,7	1	1	1	1	1	1	1	1	1	0	1	-4,862579	273,033232	310,235023	0
15.01.2021	04:21:37	0	0	3,050658	2,679	28,3536	-0,721	82,117	0	1010,14	5,8	7,8	7,7	1	1	1	1	1	1	1	1	1	0	1	-5,567301	273,072802	309,713006	0
15.01.2021	04:21:38	0	0	2,824684	2,77725	8,622	-0,722	82,112	0	1010,02	5,8	7,8	7,7	1	1	1	1	1	1	1	1	1	0	1	-4,157858	273,18062	311,620675	0
15.01.2021	04:21:39	0	0	3,163646	2,937	9	-0,723	82,112	0	1010,18	5,8	7,8	7,7	1	1	1	1	1	1	1	1	1	0	1	-5,496829	273,044529	309,652928	0
15.01.2021	04:21:40	0	0	4,971443	2,93025	23,5908	-0,724	82,102	0	1010,04	5,8	7,8	7,7	1	1	1	1	1	1	1	1	1	0	1	-5,567301	273,196275	310,283625	0
15.01.2021	04:21:41	0	0	4,519494	2,925	18,8532	-0,72	82,099	0	1009,94	5,8	7,8	7,7	1	1	1	1	1	1	1	1	1	0	1	-3,946441	273,084123	311,386151	0
15.01.2021	04:21:42	0	0	2,259747	2,859	12,852	-0,718	82,116	0	1010,3	5,7	7,8	7,7	1	1	1	1	1	1	1	1	1	0	1	-2,255109	273,023352	312,796888	0
15.01.2021	04:21:43	0	0	3,050658	2,814	18,9396	-0,718	82,114	0	1010,04	5,8	7,8	7,7	1	1	1	1	1	1	1	1	1	0	1	-3,805497	273,136568	311,769403	0
15.01.2021	04:21:44	0	0	2,937671	2,889	16,5024	-0,72	82,104	0	1010,02	5,8	7,8	7,7	1	1	1	1	1	1	1	1	1	0	1	-4,580691	273,214794	311,355883	0
15.01.2021	04:21:45	0	0	2,937671	3,17175	10,818	-0,723	82,115	0	1009,98	5,8	7,8	7,7	1	1	1	1	1	1	1	1	1	0	1	-3,735025	273,041704	311,40169	0
15.01.2021	04:21:46	0	0	4,745468	3,447	12,8592	-0,725	82,112	0	1010,04	5,8	7,8	7,7	1	1	1	1	1	1	1	1	1	0	1	-3,312192	273,101116	312,098899	0
15.01.2021	04:21:47	0	0	5,084431	3,45375	14,6628	-0,717	82,109	0	1010,18	5,8	7,8	7,7	1	1	1	1	1	1	1	1	1	0	1	-5,003524	273,043117	310,139712	0
15.01.2021	04:21:48	0	0	2,598709	3,41475	17,676	-0,72	82,12	0	1009,82	5,8	7,8	7,7	1	1	1	1	1	1	1	1	1	0	1	-6,131078	273,071387	309,142696	0
15.01.2021	04:21:49	0	0	3,615595	3,26325	18,09	-0,722	82,103	0	1010,1	5,8	7,8	7,7	1	1	1	1	1	1	1	1	1	0	1	-3,453136	273,047355	311,709666	0
15.01.2021	04:21:50	0	0	4,180532	3,1245	7,8912	-0,723	82,128	0	1009,96	5,8	7,8	7,7	1	1	1	1	1	1	1	1	1	0	1	-3,382664	273,209094	312,527546	0
15.01.2021	04:21:51	0	0	2,824684	3,0765	5,2308	-0,725	82,128	0	1010,16	5,8	7,8	7,7	1	1	1	1	1	1	1	1	1	0	1	-1,973221	273,120961	313,529558	0
15.01.2021	04:21:52	0	0	3,615595	3,03975	12,8808	-0,721	82,115	0	1009,96	5,8	7,8	7,7	1	1	1	1	1	1	1	1	1	0	1	-3,875969	273,069973	311,391273	0
15.01.2021	04:21:53	0	0	3,163646	2,75775	15,4224	-0,726	82,123	0	1009,94	5,8	7,8	7,7	1	1	1	1	1	1	1	1	1	0	1	-9,513742	273,217644	306,436017	0
15.01.2021	04:21:54	0	0	3,050658	2,547	7,5276	-0,719	82,123	0	1010,04	5,8	7,8	7,7	1	1	1	1	1	1	1	1	1	0	1	-6,272023	273,111036	309,184898	0
15.01.2021	04:21:55	0	0	3,050658	2,6565	4,842	-0,719	82,123	0	1010,06	5,8	7,8	7,7	1	1	1	1	1	1	1	1	1	0	1	-6,272023	273,03182	308,819063	0
15.01.2021	04:21:56	0	0	3,502608	2,4495	23,2344	-0,718	82,13	0	1010,02	5,8	7,8	7,7	1	1	1	1	1	1	1	1	1	0	1	-5,003524	273,17493	310,748702	0
15.01.2021	04:21:57	0	0	3,954557	2,31225	11,8008	-0,724	82,127	0	1010,08	5,8	7,8	7,7	1	1	1	1	1	1	1	1	1	0	1	-2,60747	273,079877	312,705511	0
15.01.2021	04:21:58	0	0	2,824684	2,205	25,794	-0,723	82,142	0	1010,14	5,8	7,8	7,7	1	1	1	1	1	1	1	1	1	0	1	-4,157858	273,229051	311,844667	0
15.01.2021	04:21:59	0	0	4,632481	2,10075	6,066	-0,726	82,115	0	1009,98	5,7	7,8	7,7	1	1	1	1	1	1	1	1	1	0	1	-0,140944	273,078461	315,165501	0
15.01.2021	04:22:00	0	0	3,84157	2,33325	2,6532	-0,72	82,14	0	1010,14	5,8	7,8	7,7	1	1	1	1	1	1	1	1	1	0	1	-3,523608	273,069973	311,743633	0
15.01.2021	04:22:01	0	0	3,84157	2,33325	2,6532	-0,72	82,14	0	1010,14	5,8	7,8	7,7	1	1	1	1	1	1	1	1	1	0	1	-3,523608	273,069973	311,743633	0
15.01.2021	04:22:02	0	0	3,728582	2,30325	20,3076	-0,72	82,13	0	1010,14	5,8	7,8	7,7	1	1	1	1	1	1	1	1	1	0	1	-1,338971	273,209094	314,571239	0
15.01.2021	04:22:03	0	0	3,502608	2,313	21,4092	-0,715	82,14	0	1010,1	5,8	7,8	7,7	1	1	1	1	1	1	1	1	1	0	1	-7,258633	273,062902	307,975955	0
15.01.2021	04:22:04	0	0	4,293519	2,328	26,1864	-0,722	82,137	0	1010,04	5,7	7,9	7,7	1	1	1	1	1	1	1	1	1	0	1	-2,677942	273,153608	312,975716	0
15.01.2021	04:22:05	0	0	4,632481	2,5125	6,9264	-0,728	82,138	0	1009,98	5,7	7,8	7,7	1	1	1	1	1	1	1	1	1	0	1	-1,62086	273,216219	314,322307	0
15.01.2021	04:22:06	0	0	4,180532	2,754	14,6556	-0,728	82,148	0	1010,06	5,8	7,8	7,7	1	1	1	1	1	1	1	1	1	0	1	-9,936575	273,09545	305,44834	0
15.01.2021	04:22:07	0	0	3,163646	2,79	16,8696	-0,716	82,147	0	1010,08	5,7	7,8	7,7	1	1	1	1	1	1	1	1	1	0	1	-5,144468	273,187734	310,666962	0
15.01.2021	04:22:08	0	0	5,084431	2,76	23,6016	-0,718	82,147	0	1009,98	5,8	7,8	7,7	1	1	1	1	1	1	1	1	1	0	1	-5,990134	273,197699	309,867377	0
15.01.2021	04:22:09	0	0	4,406506	2,949	9,8676	-0,723	82,151	0	1010,16	5,8	7,8	7,7	1	1	1	1	1	1	1	1	1	0	1	-4,298802	273,189157	311,519209	0
15.01.2021	04:22:10	0	0	3,502608	3,11925	2,3076	-0,722	82,149	0	1009,84	5,8	7,8	7,7	1	1	1	1	1	1	1	1	1	0	1	-5,355884	273,045942	309,800395	0
15.01.2021	04:22:11	0	0	4,406506	3,198	10,8216	-0,722	82,146	0	1010,16	5,8	7,8	7,7	1	1	1	1	1	1	1	1	1	0	1	-5,990134	273,160713	309,696365	0
15.01.2021	04:22:12	0	0	3,615595	3,2955	13,554	-0,728	82,144	0	1010	5,8	7,8	7,7	1	1	1	1	1	1	1	1	1	0	1	-4,157858	273,064316	311,08326	0
15.01.2021	04:22:13	0	0	3,050658	3,23625	21,3912	-0,721	82,14	0	1010,16	5,7	7,9	7,7	1	1	1	1	1	1	1	1	1	0	1	-6,342495	273,125216	309,179946	0
15.01.2021	04:22:14	0	0	4,519494	3,306	21,0204	-0,721	82,137	0	1010,06	5,8	7,9	7,7	1	1	1	1	1	1	1	1	1	0	1	-7,047216	273,223347	308,928921	0
15.01.2021	04:22:15	0	0	2,937671	3,2145	17,7084	-0,722	82,144	0	1010,04	5,7	7,8	7,7	1	1	1	1	1	1	1	1	1	0	1	-5,84919	273,172086	309,889886	0
15.01.2021	04:22:16	0	0	3,615595	3,057	12,1068	-0,727	82,152	0	1010,22	5,7	7,8	7,7	1	1	1	1	1	1	1	1	1	0	1	-5,637773	273,199123	310,226323	0
15.01.2021	04:22:17	0	0	4,519494	3,17475	13,5396	-0,717	82,146	0	1009,92	5,8	7,8	7,7	1	1	1	1	1	1	1	1	1	0	1	-6,272023	273,199123	309,592073	0
15.01.2021	04:22:18	0	0	2,937671	3,3255	21,7584	-0,721	82,165	0	1010,1	5,8	7,8	7,7	1	1	1	1	1	1	1	1	1	0	1	-2,114165	273,201971	313,763104	0
15.01.2021	04:22:19	0	0	4,519494	3,306	16,8516	-0,715	82,169	0	1010,02	5,8	7,8	7,7	1	1	1	1	1	1	1	1	1	0	1	-5,778717	273,048768	309,390607	0
15.01.2021	04:22:20	0	0	3,615595	3,23325	13,9248	-0,716	82,167	0	1010,08	5,8	7,8	7,7	1	1	1	1	1	1	1	1	1	0	1	-5,355884	273,170664	310,376617	0
15.01.2021	04:22:21	0	0	4,293519	3,177	7,1316	-0,72	82,152	0	1010,1	5,7	7,8	7,7	1	1	1	1	1	1	1	1	1	0	1	-11,41649	273,229051	304,586035	0
15.01.2021	04:22:22	0	0	3,38962	3,13425	16,1064	-0,721	82,148	0	1010,12	5,8	7,8	7,7	1	1	1	1	1	1	1	1	1	0	1	-4,721635	273,125216	310,800806	0
15.01.2021	04:22:23	0	0	4,858456	3,15675	12,4884	-0,715	82,154	0	1010,16	5,8	7,8	7,7	1	1	1	1	1	1	1	1	1	0	1	-4,016913	273,048768	311,152411	0
15.01.2021	04:22:24	0	0	2,485722	3,17775	21,0312	-0,717	82,157	0	1010,14	5,7	7,8	7,7	1	1	1	1	1	1	1	1	1	0	1	-8,033827	273,072802	307,24648	0
15.01.2021	04:22:25	0	0	3,728582	3,02775	17,2404	-0,72	82,158	0	1010,1	5,7	7,8	7,7	1	1	1	1	1	1	1	1	1	0	1	-3,24172	273,162134	312,45135	0
15.01.2021	04:22:26	0	0	2,598709	2,93625	19,1592	-0,716	82,158	0	1010,12	5,8	7,8	7,7	1	1	1	1	1	1	1	1	1	0	1	-1,691332	273,055833	313,510617	0
15.01.2021	04:22:27	0	0	3,163646	2,9175	17,6976	-0,724	82,157	0	1009,92	5,8	7,8	7,7	1	1	1	1	1	1	1	1	1	0	1	-11,557435	273,118125	303,932238	0
15.01.2021	04:22:28	0	0	4,971443	2,83275	18,846	-0,721	82,142	0	1010,16	5,8	7,9	7,7	1	1	1	1	1	1	1	1	1	0	1	-4,087385	273,047355	311,075416	0
15.01.2021	04:22:29	0	0	3,050658	2,7525	17,226	-0,717	82,154	0	1009,98	5,7	7,8	7,7	1	1	1	1	1	1	1	1	1	0	1	-1,057082	273,079877	314,255899	0
15.01.2021	04:22:30	0	0	2,14676	2,73375	17,244	-0,718	82,167	0	1010,2	5,7	7,8	7,7	1	1	1	1	1	1	1	1	1	0	1	-9,161381	273,079877	306,1516	0
15.01.2021	04:22:31	0	0	4,519494	2,9745	5,22	-0,723	82,158	0	1010,04	5,8	7,9	7,7	1	1	1	1	1	1	1	1	1	0	1	-2,255109	273,05442	312,940314	0
15.01.2021	04:22:32	0	0	2,372734	3,0975	14,652	-0,723	82,157	0	1010,1	5,8	7,8	7,7	1	1	1	1	1	1	1	1	1	0	1	-3,382664	273,149347	312,251297	0
15.01.2021	04:22:33	0	0	4,406506	2,949	19,9188	-0,722	82,164	0	1010,14	5,8	7,8	7,7	1	1	1	1	1	1	1	1	1	0	1	-4,510218	273,047355	310,652583	0
15.01.2021	04:22:34	0	0	3,050677	2,68125	20,6424	-0,721	82,16	0	1010,1	5,7	7,8	7,6	1	1	1	1	1	1	1	1	1	0	1	-7,258633	273,186311	308,546216	0
15.01.2021	04:22:35	0	0	4,519494	2,562	19,9008	-0,726	82,173	0	1010,14	5,7	7,8	7,7	1	1	1	1	1	1	1	1	1	0	1	-3,030303	273,086954	312,315367	0
15.01.2021	04:22:36	0	0	5,084431	2,44875	8,6184	-0,723	82,168	0	1010,08	5,8	7,8	7,7	1	1	1	1	1	1	1	1	1	0	1	-5,84919	273,229051	310,153336	0
15.01.2021	04:22:37	0	0	2,824684	2,59575	13,914	-0,726	82,174	0	1010,1	5,7	7,8	7,7	1	1	1	1	1	1	1	1	1	0	1	-9,302326	273,130891	306,24634	0
15.01.2021	04:22:38	0	0	3,954557	2,7375	14,6664	-0,718	82,169	0	1010,2	5,7	7,9	7,7	1	1	1	1	1	1	1	1	1	0	1	-9,161381	273,224773	306,821352	0
15.01.2021	04:22:39	0	0	3,276633	2,7315	8,9964	-0,721	82,163	0	1010,04	5,7	7,8	7,7	1	1	1	1	1	1	1	1	1	0	1	-6,342495	273,089786	309,016254	0
15.01.2021	04:22:40	0	0	3,728582	2,67975	16,1352	-0,717	82,16	0	1010,16	5,7	7,8	7,7	1	1	1	1	1	1	1	1	1	0	1	-8,879493	273,10395	306,544689	0
15.01.2021	04:22:41	0	0	4,971443	2,62125	6,8076	-0,725	82,168	0	1010,1	5,7	7,8	7,7	1	1	1	1	1	1	1	1	1	0	1	-4,721635	273,203396	311,162221	0
15.01.2021	04:22:42	0	0	2,711696	2,88525	12,5748	-0,719	82,166	0	1010,12	5,7	7,8	7,7	1	1	1	1	1	1	1	1	1	0	1	-0	273,142247	315,601143	0
15.01.2021	04:22:43	0	0	3,050658	2,91525	358,434	-0,723	82,174	0	1010,14	5,7	7,9	7,7	1	1	1	1	1	1	1	1	1	0	1	-0,352361	273,253312	315,762418	0
15.01.2021	04:22:44	0	0	2,937671	2,784	8,6292	-0,723	82,175	0	1010,18	5,7	7,8	7,7	1	1	1	1	1	1	1	1	1	0	1	-3,171247	273,092618	312,200584	0
15.01.2021	04:22:45	0	0	4,519494	2,68125	8,2692	-0,722	82,177	0	1010,1	5,7	7,8	7,7	1	1	1	1	1	1	1	1	1	0	1	-3,24172	273,193428	312,596039	0
15.01.2021	04:22:46	0	0	4,293545	2,64525	5,6772	-0,724	82,169	0	1010,04	5,8	7,9	7,6	1	1	1	1	1	1	1	1	1	0	1	-5,567301	273,085538	309,77183	0
15.01.2021	04:22:47	0	0	2,598709	2,79075	7,1352	-0,727	82,172	0	1009,92	5,7	7,9	7,7	1	1	1	1	1	1	1	1	1	0	1	-3,382664	273,060074	311,838867	0
15.01.2021	04:22:48	0	0	3,84157	2,85825	10,0692	-0,725	82,161	0	1010,02	5,7	7,9	7,7	1	1	1	1	1	1	1	1	1	0	1	-2,748414	273,064316	312,492703	0
15.01.2021	04:22:49	0	0	2,598709	2,90025	19,1484	-0,724	82,179	0	1010,02	5,7	7,8	7,7	1	1	1	1	1	1	1	1	1	0	1	-6,906272	273,187734	308,905158	0
15.01.2021	04:22:50	0	0	2,598709	3,0945	7,128	-0,72	82,176	0	1010,14	5,8	7,8	7,7	1	1	1	1	1	1	1	1	1	0	1	-5,637773	273,055833	309,564176	0
15.01.2021	04:22:51	0	0	3,728582	3,34575	12,87	-0,718	82,174	0	1010,08	5,7	7,8	7,7	1	1	1	1	1	1	1	1	1	0	1	-9,513742	273,196275	306,337184	0
15.01.2021	04:22:52	0	0	4,519494	3,252	21,3912	-0,719	82,178	0	1010,16	5,7	7,8	7,7	1	1	1	1	1	1	1	1	1	0	1	-7,751938	273,047355	307,410864	0
15.01.2021	04:22:53	0	0	4,406506	3,012	19,9044	-0,718	82,191	0	1010,08	5,7	7,8	7,7	1	1	1	1	1	1	1	1	1	0	1	-8,104299	273,17493	307,647927	0
15.01.2021	04:22:54	0	0	2,598709	2,82525	15,0552	-0,719	82,179	0	1010,04	5,8	7,9	7,7	1	1	1	1	1	1	1	1	1	0	1	-3,59408	273,037468	311,523076	0
15.01.2021	04:22:55	0	0	3,276633	2,81025	20,2716	-0,719	82,177	0	1010,02	5,7	7,9	7,7	1	1	1	1	1	1	1	1	1	0	1	-3,875969	273,069973	311,391273	0
15.01.2021	04:22:56	0	0	3,84157	2,7825	18,0864	-0,721	82,183	0	1010,08	5,7	7,9	7,7	1	1	1	1	1	1	1	1	1	0	1	-3,946441	273,201971	311,930827	0
15.01.2021	04:22:57	0	0	3,954557	2,74125	21,78	-0,722	82,172	0	1010,26	5,7	7,8	7,7	1	1	1	1	1	1	1	1	1	0	1	-2,60747	273,05018	312,568378	0
15.01.2021	04:22:58	0	0	4,293519	2,655	17,2368	-0,722	82,183	0	1010	5,7	7,9	7,7	1	1	1	1	1	1	1	1	1	0	1	-7,540521	273,146506	308,08031	0
15.01.2021	04:22:59	0	0	3,615617	2,625	23,5944	-0,719	82,195	0	1010,12	5,7	7,8	7,6	1	1	1	1	1	1	1	1	1	0	1	-1,479915	273,075631	313,81346	0
15.01.2021	04:23:00	0	0	4,632481	2,43525	15,0444	-0,721	82,193	0	1009,98	5,7	7,9	7,7	1	1	1	1	1	1	1	1	1	0	1	-9,020437	273,112454	306,443033	0
15.01.2021	04:23:01	0	0	4,632481	2,43525	15,0444	-0,721	82,193	0	1009,98	5,7	7,9	7,7	1	1	1	1	1	1	1	1	1	0	1	-9,020437	273,112454	306,443033	0
15.01.2021	04:23:02	0	0	2,824701	2,5215	16,11	-0,726	82,19	0	1010,1	5,7	7,8	7,6	1	1	1	1	1	1	1	1	1	0	1	-4,721635	273,048768	310,44769	0
15.01.2021	04:23:03	0	0	3,276633	2,68425	7,1244	-0,721	82,19	0	1010,04	5,7	7,8	7,7	1	1	1	1	1	1	1	1	1	0	1	-8,315715	273,153608	307,337943	0
15.01.2021	04:23:04	0	0	3,615595	2,67675	14,6592	-0,723	82,18	0	1010,06	5,7	7,9	7,7	1	1	1	1	1	1	1	1	1	0	1	-6,553911	273,224773	309,428822	0
15.01.2021	04:23:05	0	0	4,519494	2,64675	6,4476	-0,72	82,19	0	1010,02	5,7	7,9	7,7	1	1	1	1	1	1	1	1	1	0	1	-0,98661	273,111036	314,47031	0
15.01.2021	04:23:06	0	0	4,745497	2,74125	8,2692	-0,723	82,2	0	1010,14	5,7	7,9	7,6	1	1	1	1	1	1	1	1	1	0	1	-3,171247	273,060074	312,050283	0
15.01.2021	04:23:07	0	0	5,310405	2,89125	13,9176	-0,723	82,196	0	1009,94	5,7	7,9	7,7	1	1	1	1	1	1	1	1	1	0	1	-5,708245	273,203396	310,17561	0
15.01.2021	04:23:08	0	0	2,711696	2,883	10,8252	-0,721	82,193	0	1010,08	5,7	7,9	7,7	1	1	1	1	1	1	1	1	1	0	1	-7,963354	273,16782	307,756	0
15.01.2021	04:23:09	0	0	5,310405	2,70225	9,3816	-0,725	82,184	0	1009,96	5,7	7,8	7,7	1	1	1	1	1	1	1	1	1	0	1	-4,792107	273,217644	311,157652	0
15.01.2021	04:23:10	0	0	3,841593	2,56725	360	-0,72	82,194	0	1010,04	5,7	7,9	7,6	1	1	1	1	1	1	1	1	1	0	1	-3,664553	273,091201	311,700737	0
15.01.2021	04:23:11	0	0	3,163646	2,55075	10,0548	-0,724	82,196	0	1010,06	5,7	7,8	7,7	1	1	1	1	1	1	1	1	1	0	1	-2,043693	273,041704	313,093022	0
15.01.2021	04:23:12	0	0	4,406506	2,51925	7,902	-0,723	82,202	0	1010,12	5,7	7,8	7,7	1	1	1	1	1	1	1	1	1	0	1	-2,889359	273,145086	312,724909	0
15.01.2021	04:23:13	0	0	5,084431	2,535	358,3656	-0,72	82,19	0	1010,06	5,7	7,9	7,7	1	1	1	1	1	1	1	1	1	0	1	-0	273,309087	316,372952	0
15.01.2021	04:23:14	0	0	2,824684	2,5005	19,53	-0,72	82,19	0	1010,12	5,7	7,9	7,7	1	1	1	1	1	1	1	1	1	0	1	-6,553911	273,183465	309,237778	0
15.01.2021	04:23:15	0	0	3,615595	2,65275	2,3472	-0,724	82,192	0	1010,12	5,7	7,9	7,7	1	1	1	1	1	1	1	1	1	0	1	-5,285412	273,062902	309,949176	0
15.01.2021	04:23:16	0	0	4,180532	2,9295	8,2656	-0,732	82,181	0	1010,02	5,7	7,9	7,7	1	1	1	1	1	1	1	1	1	0	1	-2,959831	273,209094	312,950379	0
15.01.2021	04:23:17	0	0	3,38962	3,0945	9,7704	-0,727	82,193	0	1010	5,7	7,9	7,7	1	1	1	1	1	1	1	1	1	0	1	-2,043693	273,164977	313,662518	0
15.01.2021	04:23:18	0	0	3,502608	3,1485	3,3804	-0,727	82,187	0	1010,04	5,7	7,8	7,7	1	1	1	1	1	1	1	1	1	0	1	-4,580691	273,033232	310,516912	0
15.01.2021	04:23:19	0	0	2,824684	3,3225	0,882	-0,722	82,201	0	1010,14	5,7	7,9	7,7	1	1	1	1	1	1	1	1	1	0	1	-3,664553	273,068558	311,596157	0
15.01.2021	04:23:20	0	0	3,163646	3,246	28,3608	-0,723	82,204	0	1009,98	5,7	7,9	7,7	1	1	1	1	1	1	1	1	1	0	1	-5,003524	273,145086	310,610744	0
15.01.2021	04:23:21	0	0	4,293519	2,9025	6,4512	-0,718	82,211	0	1010,06	5,7	7,8	7,7	1	1	1	1	1	1	1	1	1	0	1	-3,171247	273,23761	312,870877	0
15.01.2021	04:23:22	0	0	2,937671	3,0315	20,7324	-0,726	82,194	0	1010,16	5,7	7,9	7,7	1	1	1	1	1	1	1	1	1	0	1	-7,610994	273,160713	308,075505	0
15.01.2021	04:23:23	0	0	3,38962	3,231	21,3948	-0,718	82,199	0	1009,92	5,7	7,9	7,7	1	1	1	1	1	1	1	1	1	0	1	-2,60747	273,227625	313,388457	0
15.01.2021	04:23:24	0	0	4,632481	3,16875	18,828	-0,723	82,2	0	1010,12	5,7	7,9	7,7	1	1	1	1	1	1	1	1	1	0	1	-4,721635	273,194851	311,122707	0
15.01.2021	04:23:25	0	0	4,406506	3,282	10,0692	-0,717	82,202	0	1010,02	5,7	7,9	7,7	1	1	1	1	1	1	1	1	1	0	1	-8,033827	273,113871	307,436193	0
15.01.2021	04:23:26	0	0	3,163646	3,46125	15,0336	-0,721	82,207	0	1010,12	5,7	7,9	7,7	1	1	1	1	1	1	1	1	1	0	1	-3,100775	273,05866	312,114228	0
15.01.2021	04:23:27	0	0	3,728605	3,2925	20,6388	-0,729	82,191	0	1010,08	5,7	7,8	7,6	1	1	1	1	1	1	1	1	1	0	1	-4,298802	273,105367	311,131926	0
15.01.2021	04:23:28	0	0	4,293519	3,23175	12,4956	-0,723	82,21	0	1010,04	5,7	7,9	7,7	1	1	1	1	1	1	1	1	1	0	1	-9,090909	273,044529	306,058848	0
15.01.2021	04:23:29	0	0	4,519494	3,135	8,622	-0,724	82,212	0	1010,02	5,7	7,9	7,7	1	1	1	1	1	1	1	1	1	0	1	-4,721635	273,211944	311,201756	0
15.01.2021	04:23:30	0	0	3,84157	2,90025	20,6424	-0,722	82,204	0	1009,96	5,7	7,9	7,7	1	1	1	1	1	1	1	1	1	0	1	-6,483439	273,137988	309,09802	0
15.01.2021	04:23:31	0	0	4,519521	2,76975	13,5432	-0,72	82,216	0	1010,1	5,7	7,9	7,6	1	1	1	1	1	1	1	1	1	0	1	-3,171247	273,217644	312,778512	0
15.01.2021	04:23:32	0	0	4,858485	2,7945	14,6448	-0,724	82,214	0	1010,12	5,7	7,9	7,6	1	1	1	1	1	1	1	1	1	0	1	-6,412967	273,108201	309,030856	0
15.01.2021	04:23:33	0	0	3,276653	2,85675	15,426	-0,718	82,209	0	1010,16	5,7	7,9	7,6	1	1	1	1	1	1	1	1	1	0	1	-9,44327	273,03182	305,647816	0
15.01.2021	04:23:34	0	0	2,598725	3,13575	17,7048	-0,723	82,214	0	1009,92	5,7	7,9	7,6	1	1	1	1	1	1	1	1	1	0	1	-5,355884	273,18062	310,422648	0
15.01.2021	04:23:35	0	0	4,745497	3,5445	8,6184	-0,719	82,218	0	1010,02	5,7	7,8	7,6	1	1	1	1	1	1	1	1	1	0	1	-7,540521	273,096866	307,850937	0
15.01.2021	04:23:36	0	0	3,728605	3,82275	5,2272	-0,717	82,215	0	1010,2	5,8	7,9	7,6	1	1	1	1	1	1	1	1	1	0	1	-6,765328	273,214794	309,171246	0
15.01.2021	04:23:37	0	0	4,406506	3,7245	17,6652	-0,725	82,209	0	1010,12	5,7	7,9	7,7	1	1	1	1	1	1	1	1	1	0	1	-0,281889	273,150767	315,358637	0
15.01.2021	04:23:38	0	0	4,74544	3,657	16,1028	-0,718	82,229	0	1010,14	5,7	7,9	7,8	1	1	1	1	1	1	1	1	1	0	1	-5,003524	273,214794	310,93305	0
15.01.2021	04:23:39	0	0	4,858485	3,72675	17,6976	-0,723	82,228	0	1010,1	5,7	7,9	7,6	1	1	1	1	1	1	1	1	1	0	1	-6,342495	273,152188	309,304597	0
15.01.2021	04:23:40	0	0	4,406533	3,5235	17,2404	-0,723	82,208	0	1010	5,7	7,8	7,6	1	1	1	1	1	1	1	1	1	0	1	-3,100775	273,06573	312,146873	0
15.01.2021	04:23:41	0	0	4,745497	3,22875	16,8516	-0,722	82,224	0	1010,06	5,7	7,9	7,6	1	1	1	1	1	1	1	1	1	0	1	-9,725159	273,234757	306,303764	0
15.01.2021	04:23:42	0	0	2,824684	3,045	19,5336	-0,725	82,218	0	1010,2	5,7	7,9	7,7	1	1	1	1	1	1	1	1	1	0	1	-7,610994	273,145086	308,003274	0
15.01.2021	04:23:43	0	0	4,745497	2,916	15,0372	-0,721	82,23	0	1010,12	5,7	7,9	7,6	1	1	1	1	1	1	1	1	1	0	1	-5,144468	273,05866	310,070535	0
15.01.2021	04:23:44	0	0	3,728582	3,03525	11,718	-0,721	82,222	0	1010,16	5,7	7,9	7,7	1	1	1	1	1	1	1	1	1	0	1	-6,272023	273,128054	309,263529	0
15.01.2021	04:23:45	0	0	2,598725	2,99625	7,1316	-0,72	82,212	0	1010,06	5,7	7,9	7,6	1	1	1	1	1	1	1	1	1	0	1	-5,990134	273,217644	309,959625	0
15.01.2021	04:23:46	0	0	4,858485	3,0825	18,8352	-0,724	82,209	0	1010,2	5,7	7,8	7,6	1	1	1	1	1	1	1	1	1	0	1	-7,540521	273,194851	308,30382	0
15.01.2021	04:23:47	0	0	4,858485	3,10725	8,2656	-0,718	82,238	0	1010,18	5,7	7,9	7,6	1	1	1	1	1	1	1	1	1	0	1	-5,778717	273,074217	309,508123	0
15.01.2021	04:23:48	0	0	4,632481	3,018	10,4544	-0,72	82,23	0	1010,08	5,7	7,8	7,7	1	1	1	1	1	1	1	1	1	0	1	-2,043693	273,229051	313,958832	0
15.01.2021	04:23:49	0	0	3,84157	2,7285	22,8348	-0,719	82,226	0	1010,04	5,7	7,9	7,7	1	1	1	1	1	1	1	1	1	0	1	-8,104299	273,18062	307,674234	0
15.01.2021	04:23:50	0	0	5,197449	2,57025	22,0824	-0,719	82,219	0	1010,06	5,7	7,8	7,6	1	1	1	1	1	1	1	1	1	0	1	-4,933051	273,040292	310,197143	0
15.01.2021	04:23:51	0	0	3,276653	2,47275	17,7012	-0,72	82,225	0	1010,12	5,7	7,9	7,6	1	1	1	1	1	1	1	1	1	0	1	-4,933051	273,13231	310,622171	0
15.01.2021	04:23:52	0	0	4,745468	2,50275	25,794	-0,719	82,233	0	1010,08	5,7	7,9	7,7	1	1	1	1	1	1	1	1	1	0	1	-8,738548	273,21907	307,217805	0
15.01.2021	04:23:53	0	0	4,293519	2,44875	13,9284	-0,724	82,216	0	1010,12	5,7	7,9	7,7	1	1	1	1	1	1	1	1	1	0	1	-9,231853	273,199123	306,632243	0
15.01.2021	04:23:54	0	0	2,711713	2,42925	23,5836	-0,724	82,213	0	1010,2	5,7	7,9	7,6	1	1	1	1	1	1	1	1	1	0	1	-5,21494	273,040292	309,915255	0
15.01.2021	04:23:55	0	0	3,728582	2,34525	16,2	-0,723	82,201	0	1010,08	5,8	7,9	7,7	1	1	1	1	1	1	1	1	1	0	1	-10,570825	273,187734	305,240605	0
15.01.2021	04:23:56	0	0	2,598709	2,42325	21,7692	-0,719	82,231	0	1010,1	5,7	7,8	7,7	1	1	1	1	1	1	1	1	1	0	1	-5,144468	273,187734	310,666962	0
15.01.2021	04:23:57	0	0	2,598725	2,55375	29,9664	-0,719	82,215	0	1010,12	5,7	7,9	7,6	1	1	1	1	1	1	1	1	1	0	1	-10,641297	273,23761	305,400828	0
15.01.2021	04:23:58	0	0	4,519521	2,49975	22,0824	-0,724	82,229	0	1010,18	5,7	7,9	7,6	1	1	1	1	1	1	1	1	1	0	1	-7,82241	273,143666	307,785295	0
15.01.2021	04:23:59	0	0	2,598725	2,415	23,976	-0,718	82,223	0	1010,08	5,7	7,8	7,6	1	1	1	1	1	1	1	1	1	0	1	-8,668076	273,053007	306,520822	0
15.01.2021	04:24:00	0	0	4,745468	2,29875	15,0408	-0,716	82,218	0	1010,14	5,7	7,8	7,7	1	1	1	1	1	1	1	1	1	0	1	-7,963354	273,043117	307,179881	0
15.01.2021	04:24:01	0	0	4,745468	2,29875	15,0408	-0,716	82,218	0	1010,14	5,7	7,8	7,7	1	1	1	1	1	1	1	1	1	0	1	-7,963354	273,043117	307,179881	0
15.01.2021	04:24:02	0	0	3,276653	2,32725	8,3664	-0,718	82,226	0	1010,24	5,7	7,8	7,6	1	1	1	1	1	1	1	1	1	0	1	-1,338971	273,09545	314,045944	0
15.01.2021	04:24:03	0	0	4,632509	2,32275	5,688	-0,72	82,231	0	1010,16	5,7	7,9	7,6	1	1	1	1	1	1	1	1	1	0	1	-3,946441	273,060074	311,27509	0
15.01.2021	04:24:04	0	0	2,711713	2,33775	12,8592	-0,718	82,234	0	1009,92	5,7	7,8	7,6	1	1	1	1	1	1	1	1	1	0	1	-5,778717	273,229051	310,223808	0
15.01.2021	04:24:05	0	0	3,050677	2,223	15,4008	-0,724	82,226	0	1010,1	5,7	7,8	7,6	1	1	1	1	1	1	1	1	1	0	1	-4,016913	273,126635	311,512083	0
15.01.2021	04:24:06	0	0	3,954581	2,17725	16,4952	-0,723	82,237	0	1010,12	5,7	7,8	7,6	1	1	1	1	1	1	1	1	1	0	1	-3,523608	273,03888	311,600067	0
15.01.2021	04:24:07	0	0	2,598725	2,1615	11,2068	-0,724	82,232	0	1010,2	5,7	7,9	7,6	1	1	1	1	1	1	1	1	1	0	1	-8,104299	273,092618	307,267532	0
15.01.2021	04:24:08	0	0	3,276653	2,181	10,8252	-0,728	82,231	0	1010,1	5,7	7,8	7,6	1	1	1	1	1	1	1	1	1	0	1	-5,778717	273,209094	310,131493	0
15.01.2021	04:24:09	0	0	3,389641	2,16975	15,048	-0,724	82,232	0	1010,04	5,7	7,8	7,6	1	1	1	1	1	1	1	1	1	0	1	-8,315715	273,044529	306,834042	0
15.01.2021	04:24:10	0	0	4,632481	2,20125	12,1068	-0,725	82,238	0	1010,04	5,7	7,8	7,7	1	1	1	1	1	1	1	1	1	0	1	-6,412967	273,139407	309,175053	0
15.01.2021	04:24:11	0	0	2,937671	2,169	13,1796	-0,721	82,238	0	1010,2	5,8	7,8	7,7	1	1	1	1	1	1	1	1	1	0	1	-2,818887	273,047355	312,343915	0
15.01.2021	04:24:12	0	0	4,519494	2,2605	9,3708	-0,724	82,253	0	1010,18	5,7	7,8	7,7	1	1	1	1	1	1	1	1	1	0	1	-5,990134	273,112454	309,473336	0
15.01.2021	04:24:13	0	0	4,971443	2,5755	20,3004	-0,723	82,232	0	1010,2	5,8	7,9	7,7	1	1	1	1	1	1	1	1	1	0	1	-1,832276	273,211944	314,091114	0
15.01.2021	04:24:14	0	0	4,858485	2,808	10,818	-0,721	82,237	0	1010,06	5,7	7,8	7,6	1	1	1	1	1	1	1	1	1	0	1	-10,42988	273,071387	304,843894	0
15.01.2021	04:24:15	0	0	3,502608	2,98875	15,0336	-0,724	82,244	0	1010,1	5,8	7,9	7,7	1	1	1	1	1	1	1	1	1	0	1	-2,748414	273,123798	312,767472	0
15.01.2021	04:24:16	0	0	3,050677	2,9745	6,0732	-0,725	82,258	0	1010,1	5,7	7,9	7,6	1	1	1	1	1	1	1	1	1	0	1	-11,839323	273,036056	303,271314	0
15.01.2021	04:24:17	0	0	3,954581	3,08925	16,9416	-0,721	82,272	0	1010,02	5,7	7,8	7,6	1	1	1	1	1	1	1	1	1	0	1	-0,775194	273,187734	315,036236	0
15.01.2021	04:24:18	0	0	3,502608	3,05325	19,152	-0,722	82,257	0	1010,12	5,8	7,9	7,7	1	1	1	1	1	1	1	1	1	0	1	-7,188161	273,05866	308,026842	0
15.01.2021	04:24:19	0	0	3,389641	2,81775	22,8384	-0,721	82,24	0	1010,1	5,7	7,9	7,6	1	1	1	1	1	1	1	1	1	0	1	-5,778717	273,075631	309,514658	0
15.01.2021	04:24:20	0	0	4,180557	2,6295	12,8556	-0,723	82,26	0	1010,08	5,7	7,8	7,6	1	1	1	1	1	1	1	1	1	0	1	-5,84919	273,173508	309,896461	0
15.01.2021	04:24:21	0	0	4,858456	2,50875	11,7216	-0,718	82,25	0	1010,1	5,8	7,8	7,7	1	1	1	1	1	1	1	1	1	0	1	-1,973221	273,05018	313,202628	0
15.01.2021	04:24:22	0	0	2,598725	2,493	10,4472	-0,728	82,256	0	1010,04	5,7	7,8	7,6	1	1	1	1	1	1	1	1	1	0	1	-6,765328	273,140827	308,829253	0
15.01.2021	04:24:23	0	0	2,937671	2,6535	17,7048	-0,721	82,241	0	1010,14	5,7	7,8	7,7	1	1	1	1	1	1	1	1	1	0	1	-3,664553	273,210519	312,252248	0
15.01.2021	04:24:24	0	0	3,954581	2,70975	12,0924	-0,714	82,256	0	1010	5,7	7,9	7,6	1	1	1	1	1	1	1	1	1	0	1	-4,510218	273,187734	311,301211	0
15.01.2021	04:24:25	0	0	3,163665	2,6445	24,7464	-0,724	82,257	0	1010,16	5,8	7,8	7,6	1	1	1	1	1	1	1	1	1	0	1	-2,889359	273,05866	312,325644	0
15.01.2021	04:24:26	0	0	4,067569	2,5695	19,1556	-0,722	82,248	0	1010,3	5,7	7,8	7,6	1	1	1	1	1	1	1	1	1	0	1	-6,412967	273,196275	309,437959	0
15.01.2021	04:24:27	0	0	3,841593	2,7585	6,4548	-0,719	82,253	0	1010,12	5,7	7,8	7,6	1	1	1	1	1	1	1	1	1	0	1	-8,315715	273,081292	307,003802	0
15.01.2021	04:24:28	0	0	4,858485	2,7675	16,1028	-0,72	82,266	0	1010,14	5,7	7,8	7,6	1	1	1	1	1	1	1	1	1	0	1	-4,157858	273,045942	310,998421	0
15.01.2021	04:24:29	0	0	3,276633	2,8335	16,8624	-0,718	82,26	0	1010,16	5,7	7,8	7,7	1	1	1	1	1	1	1	1	1	0	1	-4,933051	273,140827	310,66153	0
15.01.2021	04:24:30	0	0	3,163646	2,73525	18,45	-0,719	82,256	0	1010,02	5,8	7,8	7,7	1	1	1	1	1	1	1	1	1	0	1	-4,439746	273,062902	310,794842	0
15.01.2021	04:24:31	0	0	4,519494	2,72925	17,2332	-0,727	82,309	0	1010,16	5,7	7,8	7,7	1	1	1	1	1	1	1	1	1	0	1	-2,184637	273,179197	313,587318	0
15.01.2021	04:24:32	0	0	4,406533	2,97075	12,8556	-0,724	82,253	0	1010,04	5,8	7,8	7,6	1	1	1	1	1	1	1	1	1	0	1	-8,738548	273,160713	306,947951	0
15.01.2021	04:24:33	0	0	2,372734	3,15975	12,1032	-0,717	82,264	0	1010,16	5,7	7,8	7,7	1	1	1	1	1	1	1	1	1	0	1	-10,007047	273,05018	305,168801	0
15.01.2021	04:24:34	0	0	3,954557	3,3045	8,622	-0,719	82,244	0	1010,1	5,7	7,8	7,7	1	1	1	1	1	1	1	1	1	0	1	-3,382664	273,160713	312,303835	0
15.01.2021	04:24:35	0	0	2,25976	3,24975	16,8804	-0,717	82,264	0	1010,18	5,8	7,8	7,6	1	1	1	1	1	1	1	1	1	0	1	-4,087385	273,229051	311,91514	0
15.01.2021	04:24:36	0	0	3,728582	3,1875	16,4844	-0,722	82,262	0	1010,2	5,8	7,8	7,7	1	1	1	1	1	1	1	1	1	0	1	-3,030303	273,149347	312,603657	0
15.01.2021	04:24:37	0	0	2,937671	3,0765	10,818	-0,717	82,272	0	1010,12	5,7	7,8	7,7	1	1	1	1	1	1	1	1	1	0	1	-3,453136	273,053007	311,735762	0
15.01.2021	04:24:38	0	0	3,050658	2,97225	13,5432	-0,698	82,275	0	1010,2	5,8	7,8	7,7	1	1	1	1	1	1	1	1	1	0	1	-3,171247	273,21907	312,785106	0
15.01.2021	04:24:39	0	0	3,841593	2,9085	1,6092	-0,719	82,269	0	1010,06	5,8	7,8	7,6	1	1	1	1	1	1	1	1	1	0	1	-5,285412	273,186311	310,519437	0
15.01.2021	04:24:40	0	0	3,84157	3,04275	8,6148	-0,719	82,273	0	1010,22	5,7	7,8	7,7	1	1	1	1	1	1	1	1	1	0	1	-3,664553	273,094034	311,71382	0
15.01.2021	04:24:41	0	0	2,598709	2,9385	12,8592	-0,72	82,25	0	1010,14	5,7	7,8	7,7	1	1	1	1	1	1	1	1	1	0	1	-4,862579	273,229051	311,139946	0
15.01.2021	04:24:42	0	0	2,824684	2,98275	10,8108	-0,718	82,27	0	1010,24	5,8	7,8	7,7	1	1	1	1	1	1	1	1	1	0	1	-2,889359	273,128054	312,646193	0
15.01.2021	04:24:43	0	0	2,598709	3,0795	10,8216	-0,722	82,261	0	1010,16	5,7	7,8	7,7	1	1	1	1	1	1	1	1	1	0	1	-2,677942	273,03888	312,445733	0
15.01.2021	04:24:44	0	0	3,615617	3,05625	18,8388	-0,721	82,27	0	1010,18	5,7	7,8	7,6	1	1	1	1	1	1	1	1	1	0	1	-9,090909	273,116707	306,392212	0
15.01.2021	04:24:45	0	0	3,163665	2,937	10,4616	-0,717	82,267	0	1010,22	5,8	7,8	7,6	1	1	1	1	1	1	1	1	1	0	1	-1,550388	273,048768	313,618937	0
15.01.2021	04:24:46	0	0	4,745468	3,14475	12,8592	-0,72	82,28	0	1010,14	5,7	7,8	7,7	1	1	1	1	1	1	1	1	1	0	1	-6,20155	273,089786	309,157199	0
15.01.2021	04:24:47	0	0	3,954557	3,3915	5,3388	-0,719	82,264	0	1010,12	5,8	7,8	7,7	1	1	1	1	1	1	1	1	1	0	1	-2,325581	273,221921	313,643961	0
15.01.2021	04:24:48	0	0	3,050658	3,62475	7,1316	-0,723	82,277	0	1010,14	5,8	7,8	7,7	1	1	1	1	1	1	1	1	1	0	1	-11,346018	273,086954	303,999651	0
15.01.2021	04:24:49	0	0	4,745468	3,47625	3,7872	-0,718	82,276	0	1010,04	5,8	7,8	7,7	1	1	1	1	1	1	1	1	1	0	1	-1,62086	273,166398	314,091923	0
15.01.2021	04:24:50	0	0	4,180532	3,56775	3,7872	-0,719	82,276	0	1010,16	5,8	7,8	7,7	1	1	1	1	1	1	1	1	1	0	1	-6,483439	273,177775	309,281939	0
15.01.2021	04:24:51	0	0	4,180532	3,25875	18,4608	-0,722	82,26	0	1010,3	5,8	7,8	7,7	1	1	1	1	1	1	1	1	1	0	1	-3,805497	273,221921	312,164045	0
15.01.2021	04:24:52	0	0	3,84157	3,1935	1,9188	-0,721	82,273	0	1009,96	5,8	7,8	7,7	1	1	1	1	1	1	1	1	1	0	1	-6,553911	273,170664	309,17859	0
15.01.2021	04:24:53	0	0	4,632481	3,35025	8,2584	-0,721	82,277	0	1010,14	5,8	7,8	7,7	1	1	1	1	1	1	1	1	1	0	1	-2,114165	273,082707	313,21189	0
15.01.2021	04:24:54	0	0	4,067544	3,258	11,2176	-0,72	82,276	0	1010,12	5,8	7,8	7,7	1	1	1	1	1	1	1	1	1	0	1	-5,073996	273,209094	310,836214	0
15.01.2021	04:24:55	0	0	4,745468	3,0435	8,6076	-0,717	82,273	0	1010,12	5,8	7,8	7,7	1	1	1	1	1	1	1	1	1	0	1	-5,144468	273,120961	310,35831	0
15.01.2021	04:24:56	0	0	2,937671	3,045	12,8664	-0,727	82,274	0	1010,06	5,8	7,8	7,7	1	1	1	1	1	1	1	1	1	0	1	-4,792107	273,206245	311,104924	0
15.01.2021	04:24:57	0	0	5,084431	3,28125	9,7488	-0,726	82,277	0	1010,06	5,8	7,8	7,7	1	1	1	1	1	1	1	1	1	0	1	-5,778717	273,177775	309,98666	0
15.01.2021	04:24:58	0	0	4,067544	3,4515	13,1724	-0,724	82,28	0	1009,94	5,8	7,8	7,7	1	1	1	1	1	1	1	1	1	0	1	-1,761804	273,224773	314,220929	0
15.01.2021	04:24:59	0	0	2,598709	3,537	19,5552	-0,715	82,278	0	1010,18	5,8	7,8	7,7	1	1	1	1	1	1	1	1	1	0	1	-10,218464	273,045942	304,937815	0
15.01.2021	04:25:00	0	0	4,745468	3,4515	357,9948	-0,723	82,278	0	1010,06	5,8	7,8	7,7	1	1	1	1	1	1	1	1	1	0	1	-0,775194	273,053007	314,413704	0
15.01.2021	04:25:01	0	0	4,745468	3,4515	357,9948	-0,723	82,278	0	1010,06	5,8	7,8	7,7	1	1	1	1	1	1	1	1	1	0	1	-0,775194	273,053007	314,413704	0
15.01.2021	04:25:02	0	0	4,067544	3,42075	10,0584	-0,721	82,277	0	1010,08	5,8	7,8	7,7	1	1	1	1	1	1	1	1	1	0	1	-6,553911	273,079877	308,75907	0
15.01.2021	04:25:03	0	0	4,632481	3,44625	4,8528	-0,721	82,291	0	1010,14	5,8	7,8	7,7	1	1	1	1	1	1	1	1	1	0	1	-2,325581	273,044529	312,824176	0
15.01.2021	04:25:04	0	0	3,84157	3,56325	10,0548	-0,724	82,275	0	1009,98	5,8	7,8	7,7	1	1	1	1	1	1	1	1	1	0	1	-1,479915	273,199123	314,384181	0
15.01.2021	04:25:05	0	0	4,858456	3,53475	14,3172	-0,718	82,29	0	1010,14	5,8	7,8	7,7	1	1	1	1	1	1	1	1	1	0	1	-1,127555	273,128054	314,407997	0
15.01.2021	04:25:06	0	0	4,067544	3,3345	24,7356	-0,72	82,293	0	1010	5,7	7,8	7,7	1	1	1	1	1	1	1	1	1	0	1	-2,043693	273,221921	313,925849	0
15.01.2021	04:25:07	0	0	4,519494	3,3015	16,8588	-0,717	82,305	0	1010,2	5,8	7,8	7,7	1	1	1	1	1	1	1	1	1	0	1	-7,82241	273,128054	307,713142	0
15.01.2021	04:25:08	0	0	4,180532	3,315	10,0944	-0,719	82,304	0	1010,22	5,8	7,8	7,7	1	1	1	1	1	1	1	1	1	0	1	-2,114165	273,05442	313,081258	0
15.01.2021	04:25:09	0	0	4,180532	3,42975	1,5732	-0,717	82,303	0	1010,12	5,8	7,8	7,7	1	1	1	1	1	1	1	1	1	0	1	-0	273,142247	315,601143	0
15.01.2021	04:25:10	0	0	2,711696	3,51525	2,6568	-0,722	82,295	0	1010,04	5,8	7,8	7,7	1	1	1	1	1	1	1	1	1	0	1	-6,060606	273,043117	309,08263	0
15.01.2021	04:25:11	0	0	4,406506	3,4455	19,5372	-0,721	82,299	0	1010,02	5,8	7,8	7,7	1	1	1	1	1	1	1	1	1	0	1	-5,003524	273,177775	310,761854	0
15.01.2021	04:25:12	0	0	2,372734	3,339	11,2104	-0,717	82,294	0	1010,24	5,8	7,8	7,7	1	1	1	1	1	1	1	1	1	0	1	-1,338971	273,085538	314,00016	0
15.01.2021	04:25:13	0	0	3,276633	3,27675	12,0996	-0,722	82,304	0	1010,2	5,7	7,8	7,7	1	1	1	1	1	1	1	1	1	0	1	-9,866103	273,201971	306,011166	0
15.01.2021	04:25:14	0	0	4,067544	3,1305	14,67	-0,726	82,311	0	1010,14	5,8	7,8	7,7	1	1	1	1	1	1	1	1	1	0	1	-1,409443	273,173508	314,336207	0
15.01.2021	04:25:15	0	0	4,067544	3,18075	7,8912	-0,723	82,293	0	1010,2	5,8	7,8	7,7	1	1	1	1	1	1	1	1	1	0	1	-7,117689	273,229051	308,884837	0
15.01.2021	04:25:16	0	0	4,406506	3,243	20,1636	-0,722	82,299	0	1009,98	5,8	7,8	7,7	1	1	1	1	1	1	1	1	1	0	1	-6,8358	273,149347	308,79816	0
15.01.2021	04:25:17	0	0	2,937671	2,98875	14,6592	-0,726	82,3	0	1010,1	5,8	7,8	7,7	1	1	1	1	1	1	1	1	1	0	1	-4,651163	273,221921	311,318379	0
15.01.2021	04:25:18	0	0	2,937671	2,75925	16,1208	-0,722	82,31	0	1010,16	5,8	7,8	7,7	1	1	1	1	1	1	1	1	1	0	1	-5,567301	273,17493	310,184925	0
15.01.2021	04:25:19	0	0	2,824684	2,70075	16,8624	-0,717	82,312	0	1010,14	5,8	7,8	7,7	1	1	1	1	1	1	1	1	1	0	1	-5,496829	273,23333	310,525493	0
15.01.2021	04:25:20	0	0	3,841593	2,86275	19,1412	-0,722	82,294	0	1009,96	5,8	7,8	7,6	1	1	1	1	1	1	1	1	1	0	1	-2,677942	273,08837	312,674267	0
15.01.2021	04:25:21	0	0	4,406506	2,964	12,4704	-0,728	82,313	0	1010	5,8	7,8	7,7	1	1	1	1	1	1	1	1	1	0	1	-2,466526	273,177775	313,298852	0
15.01.2021	04:25:22	0	0	3,276633	2,95875	11,7432	-0,719	82,313	0	1010,22	5,8	7,8	7,7	1	1	1	1	1	1	1	1	1	0	1	-3,453136	273,23333	312,569186	0
15.01.2021	04:25:23	0	0	4,745468	2,742	12,8628	-0,724	82,323	0	1010,4	5,8	7,8	7,7	1	1	1	1	1	1	1	1	1	0	1	-6,060606	273,179197	309,711349	0
15.01.2021	04:25:24	0	0	2,937671	2,823	7,1352	-0,722	82,294	0	1010,14	5,8	7,8	7,7	1	1	1	1	1	1	1	1	1	0	1	-0,775194	273,094034	314,603179	0
15.01.2021	04:25:25	0	0	3,954557	2,76525	7,8768	-0,72	82,317	0	1010,14	5,8	7,8	7,7	1	1	1	1	1	1	1	1	1	0	1	-3,735025	273,23333	312,287297	0
15.01.2021	04:25:26	0	0	3,84157	2,679	11,2032	-0,721	82,312	0	1010,3	5,8	7,8	7,7	1	1	1	1	1	1	1	1	1	0	1	-4,439746	273,09545	310,945169	0
15.01.2021	04:25:27	0	0	4,067544	2,66775	9,3708	-0,718	82,312	0	1010,08	5,8	7,8	7,7	1	1	1	1	1	1	1	1	1	0	1	-3,946441	273,05866	311,268562	0
15.01.2021	04:25:28	0	0	3,38962	2,74575	3,0276	-0,723	82,322	0	1010,18	5,8	7,8	7,7	1	1	1	1	1	1	1	1	1	0	1	-2,959831	273,096866	312,431627	0
15.01.2021	04:25:29	0	0	3,276633	2,62425	18,0684	-0,723	82,327	0	1010,14	5,8	7,8	7,7	1	1	1	1	1	1	1	1	1	0	1	-2,255109	273,064316	312,986008	0
15.01.2021	04:25:30	0	0	3,163646	2,805	24,3396	-0,718	82,309	0	1010,18	5,8	7,8	7,7	1	1	1	1	1	1	1	1	1	0	1	-7,188161	273,186311	308,616688	0
15.01.2021	04:25:31	0	0	4,406506	2,9715	27,27	-0,723	82,316	0	1010,26	5,8	7,8	7,7	1	1	1	1	1	1	1	1	1	0	1	-1,62086	273,051594	313,561513	0
15.01.2021	04:25:32	0	0	3,163646	2,928	21,762	-0,72	82,296	0	1010,08	5,8	7,8	7,7	1	1	1	1	1	1	1	1	1	0	1	-2,396054	273,173508	313,349597	0
15.01.2021	04:25:33	0	0	4,293519	2,799	358,8696	-0,726	82,317	0	1009,96	5,8	7,8	7,7	1	1	1	1	1	1	1	1	1	0	1	-3,946441	273,220495	312,016506	0
15.01.2021	04:25:34	0	0	2,598709	2,76675	2,7324	-0,72	82,328	0	1010,12	5,8	7,8	7,7	1	1	1	1	1	1	1	1	1	0	1	-0,563777	273,109619	314,886594	0
15.01.2021	04:25:35	0	0	3,502608	3,20175	12,8628	-0,717	82,317	0	1010,22	5,8	7,8	7,7	1	1	1	1	1	1	1	1	1	0	1	-0,98661	273,057247	314,221866	0
15.01.2021	04:25:36	0	0	3,502608	3,52875	10,4292	-0,72	82,317	0	1010,28	5,8	7,8	7,7	1	1	1	1	1	1	1	1	1	0	1	-1,691332	273,091201	313,673958	0
15.01.2021	04:25:37	0	0	4,406506	3,54675	12,0924	-0,719	82,312	0	1010,18	5,8	7,8	7,7	1	1	1	1	1	1	1	1	1	0	1	-2,748414	273,214794	313,188159	0
15.01.2021	04:25:38	0	0	5,197418	3,4365	17,6796	-0,721	82,319	0	1010,24	5,8	7,8	7,7	1	1	1	1	1	1	1	1	1	0	1	-6,765328	273,220495	309,19762	0
15.01.2021	04:25:39	0	0	4,858456	3,381	5,2308	-0,72	82,331	0	1010,08	5,8	7,8	7,7	1	1	1	1	1	1	1	1	1	0	1	-4,580691	273,101116	310,8304	0
15.01.2021	04:25:40	0	0	2,937671	3,6135	16,0992	-0,719	82,332	0	1010,32	5,8	7,8	7,7	1	1	1	1	1	1	1	1	1	0	1	-0,211416	273,05442	314,984007	0
15.01.2021	04:25:41	0	0	4,293519	3,68475	9,7452	-0,72	82,321	0	1010,18	5,8	7,8	7,7	1	1	1	1	1	1	1	1	1	0	1	-2,536998	273,182042	313,248113	0
15.01.2021	04:25:42	0	0	2,711696	3,915	8,604	-0,726	82,31	0	1010,16	5,8	7,8	7,7	1	1	1	1	1	1	1	1	1	0	1	-4,087385	273,177775	311,677992	0
15.01.2021	04:25:43	0	0	4,858456	3,9345	8,2584	-0,728	82,301	0	1010,22	5,8	7,8	7,7	1	1	1	1	1	1	1	1	1	0	1	-2,466526	273,200547	313,404156	0
15.01.2021	04:25:44	0	0	3,38962	3,864	11,1996	-0,725	82,32	0	1010,08	5,8	7,8	7,7	1	1	1	1	1	1	1	1	1	0	1	-1,268499	273,169242	314,457429	0
15.01.2021	04:25:45	0	0	3,728582	3,9855	11,7252	-0,722	82,327	0	1010,18	5,8	7,8	7,7	1	1	1	1	1	1	1	1	1	0	1	-0	273,244746	316,07514	0
15.01.2021	04:25:46	0	0	2,598725	4,0365	5,2164	-0,721	82,322	0	1010,12	5,8	7,8	7,6	1	1	1	1	1	1	1	1	1	0	1	-2,677942	273,109619	312,772429	0
15.01.2021	04:25:47	0	0	5,197418	3,92025	15,7968	-0,72	82,326	0	1010,24	5,8	7,8	7,7	1	1	1	1	1	1	1	1	1	0	1	-3,875969	273,230477	312,133155	0
15.01.2021	04:25:48	0	0	4,745497	3,789	6,066	-0,721	82,311	0	1010,1	5,8	7,8	7,6	1	1	1	1	1	1	1	1	1	0	1	-2,889359	273,182042	312,895752	0
15.01.2021	04:25:49	0	0	5,084431	3,7455	7,884	-0,73	82,322	0	1010,1	5,8	7,8	7,7	1	1	1	1	1	1	1	1	1	0	1	-0,563777	273,061488	314,664282	0
15.01.2021	04:25:50	0	0	4,180532	3,57525	2,6532	-0,728	82,31	0	1010,1	5,8	7,8	7,7	1	1	1	1	1	1	1	1	1	0	1	-0,775194	273,200547	315,095488	0
15.01.2021	04:25:51	0	0	2,711713	3,44625	3,3984	-0,726	82,307	0	1010,26	5,8	7,8	7,6	1	1	1	1	1	1	1	1	1	0	1	-5,567301	273,113871	309,902719	0
15.01.2021	04:25:52	0	0	3,163665	3,45075	13,1724	-0,726	82,325	0	1010,26	5,8	7,8	7,6	1	1	1	1	1	1	1	1	1	0	1	-2,396054	273,043117	312,747182	0
15.01.2021	04:25:53	0	0	4,632481	3,4335	18,8352	-0,727	82,319	0	1010,04	5,8	7,8	7,7	1	1	1	1	1	1	1	1	1	0	1	-3,24172	273,10395	312,182462	0
15.01.2021	04:25:54	0	0	2,598709	3,303	13,9284	-0,723	82,313	0	1010,16	5,8	7,8	7,7	1	1	1	1	1	1	1	1	1	0	1	-4,016913	273,062902	311,217675	0
15.01.2021	04:25:55	0	0	5,197418	3,10575	12,0924	-0,721	82,331	0	1010,26	5,8	7,8	7,7	1	1	1	1	1	1	1	1	1	0	1	-4,721635	273,192004	311,10954	0
15.01.2021	04:25:56	0	0	4,067544	2,89425	8,6148	-0,725	82,331	0	1010,16	5,8	7,8	7,7	1	1	1	1	1	1	1	1	1	0	1	-2,536998	273,069973	312,730244	0
15.01.2021	04:25:57	0	0	3,163646	2,6985	13,1796	-0,727	82,339	0	1010,18	5,8	7,8	7,7	1	1	1	1	1	1	1	1	1	0	1	-2,60747	273,060074	312,614061	0
15.01.2021	04:25:58	0	0	4,858485	2,62575	14,2956	-0,72	82,329	0	1009,98	5,8	7,8	7,6	1	1	1	1	1	1	1	1	1	0	1	-5,84919	273,108201	309,594633	0
15.01.2021	04:25:59	0	0	4,519521	2,7405	16,8768	-0,731	82,324	0	1010,18	5,8	7,8	7,6	1	1	1	1	1	1	1	1	1	0	1	-6,272023	273,078461	309,034423	0
15.01.2021	04:26:00	0	0	3,276633	3,02325	356,5908	-0,727	82,327	0	1010,1	5,8	7,8	7,7	1	1	1	1	1	1	1	1	1	0	1	-3,030303	273,172086	312,708772	0
15.01.2021	04:26:01	0	0	3,276633	3,02325	356,5908	-0,727	82,327	0	1010,1	5,8	7,8	7,7	1	1	1	1	1	1	1	1	1	0	1	-3,030303	273,172086	312,708772	0
15.01.2021	04:26:02	0	0	3,728605	2,949	21,0132	-0,728	82,322	0	1010,12	5,8	7,8	7,6	1	1	1	1	1	1	1	1	1	0	1	-6,483439	273,229051	309,519086	0
15.01.2021	04:26:03	0	0	3,389641	3,06075	356,2884	-0,725	82,32	0	1009,98	5,8	7,8	7,6	1	1	1	1	1	1	1	1	1	0	1	-6,131078	273,086954	309,214591	0
15.01.2021	04:26:04	0	0	4,406506	3,102	6,0516	-0,725	82,318	0	1010,1	5,8	7,8	7,7	1	1	1	1	1	1	1	1	1	0	1	-0	273,147927	315,627396	0
15.01.2021	04:26:05	0	0	3,276633	3,081	11,7072	-0,721	82,333	0	1010,16	5,8	7,8	7,7	1	1	1	1	1	1	1	1	1	0	1	-5,073996	273,057247	310,13448	0
15.01.2021	04:26:06	0	0	4,745468	2,928	7,1136	-0,727	82,336	0	1010,02	5,8	7,8	7,7	1	1	1	1	1	1	1	1	1	0	1	-3,312192	273,157871	312,361169	0
15.01.2021	04:26:07	0	0	2,711713	2,88825	14,6628	-0,726	82,339	0	1010,26	5,8	7,8	7,6	1	1	1	1	1	1	1	1	1	0	1	-6,272023	273,055833	308,929927	0
15.01.2021	04:26:08	0	0	2,937689	2,94225	9,7452	-0,726	82,323	0	1010,1	5,8	7,8	7,6	1	1	1	1	1	1	1	1	1	0	1	-1,409443	273,091201	313,955846	0
15.01.2021	04:26:09	0	0	3,615595	3,27525	12,852	-0,723	82,336	0	1010,22	5,8	7,8	7,7	1	1	1	1	1	1	1	1	1	0	1	-4,016913	273,075631	311,276462	0
15.01.2021	04:26:10	0	0	4,519521	3,5625	15,4152	-0,727	82,337	0	1010,16	5,8	7,8	7,6	1	1	1	1	1	1	1	1	1	0	1	-0	273,230477	316,009124	0
15.01.2021	04:26:11	0	0	3,276653	3,77775	10,5516	-0,716	82,333	0	1010,18	5,8	7,8	7,6	1	1	1	1	1	1	1	1	1	0	1	-2,677942	273,239037	313,370784	0
15.01.2021	04:26:12	0	0	4,519521	3,9225	12,1032	-0,721	82,339	0	1010,24	5,8	7,8	7,6	1	1	1	1	1	1	1	1	1	0	1	-5,778717	273,230477	310,230406	0
15.01.2021	04:26:13	0	0	4,745468	3,936	17,226	-0,722	82,339	0	1010,2	5,8	7,8	7,7	1	1	1	1	1	1	1	1	1	0	1	-6,553911	273,15645	309,112881	0
15.01.2021	04:26:14	0	0	4,180532	3,6015	18,4608	-0,722	82,328	0	1010,14	5,8	7,8	7,7	1	1	1	1	1	1	1	1	1	0	1	-4,792107	273,239037	311,256619	0
15.01.2021	04:26:15	0	0	4,971443	3,4125	15,4044	-0,726	82,331	0	1010,14	5,8	7,8	7,7	1	1	1	1	1	1	1	1	1	0	1	-3,664553	273,234757	312,36437	0
15.01.2021	04:26:16	0	0	2,598725	3,3945	2,3004	-0,721	82,34	0	1010,14	5,8	7,8	7,6	1	1	1	1	1	1	1	1	1	0	1	-2,043693	273,074217	313,243148	0
15.01.2021	04:26:17	0	0	3,502608	3,453	7,1172	-0,72	82,337	0	1010,06	5,8	7,8	7,7	1	1	1	1	1	1	1	1	1	0	1	-7,047216	273,08837	308,304993	0
15.01.2021	04:26:18	0	0	3,841593	3,60675	10,926	-0,716	82,344	0	1010,32	5,8	7,8	7,6	1	1	1	1	1	1	1	1	1	0	1	-4,721635	273,102533	310,696001	0
15.01.2021	04:26:19	0	0	4,632509	3,618	17,2548	-0,718	82,347	0	1010,18	5,7	7,8	7,6	1	1	1	1	1	1	1	1	1	0	1	-9,44327	273,246173	306,638475	0
15.01.2021	04:26:20	0	0	3,050677	3,702	10,0728	-0,725	82,338	0	1009,94	5,8	7,8	7,6	1	1	1	1	1	1	1	1	1	0	1	-1,62086	273,157871	314,052501	0
15.01.2021	04:26:21	0	0	3,841593	3,807	7,902	-0,725	82,317	0	1010,12	5,8	7,8	7,6	1	1	1	1	1	1	1	1	1	0	1	-0,845666	273,221921	315,123876	0
15.01.2021	04:26:22	0	0	4,067569	3,6315	12,2184	-0,723	82,329	0	1010,16	5,8	7,8	7,6	1	1	1	1	1	1	1	1	1	0	1	-3,59408	273,060074	311,62745	0
15.01.2021	04:26:23	0	0	3,163665	3,63075	13,9104	-0,725	82,338	0	1010,08	5,8	7,8	7,6	1	1	1	1	1	1	1	1	1	0	1	-5,426357	273,109619	310,024015	0
15.01.2021	04:26:24	0	0	4,858456	3,38925	12,114	-0,728	82,33	0	1010,08	5,8	7,8	7,7	1	1	1	1	1	1	1	1	1	0	1	-3,100775	273,081292	312,218742	0
15.01.2021	04:26:25	0	0	2,824684	3,11925	7,5204	-0,719	82,341	0	1010,12	5,8	7,8	7,7	1	1	1	1	1	1	1	1	1	0	1	-1,409443	273,06573	313,838205	0
15.01.2021	04:26:26	0	0	2,937689	3,33825	8,6076	-0,722	82,328	0	1010,1	5,7	7,8	7,6	1	1	1	1	1	1	1	1	1	0	1	-7,329105	273,251884	308,779066	0
15.01.2021	04:26:27	0	0	5,197449	3,7035	7,1388	-0,726	82,341	0	1010,1	5,7	7,8	7,6	1	1	1	1	1	1	1	1	1	0	1	-2,60747	273,173508	313,13818	0
15.01.2021	04:26:28	0	0	2,937689	3,9105	7,5024	-0,719	82,344	0	1010,36	5,8	7,8	7,6	1	1	1	1	1	1	1	1	1	0	1	-4,22833	273,176352	311,530472	0
15.01.2021	04:26:29	0	0	4,632509	3,6855	17,2404	-0,721	82,327	0	1010,12	5,8	7,8	7,6	1	1	1	1	1	1	1	1	1	0	1	-7,751938	273,207669	308,151683	0
15.01.2021	04:26:30	0	0	4,858485	3,576	20,3004	-0,726	82,336	0	1010,24	5,8	7,8	7,6	1	1	1	1	1	1	1	1	1	0	1	-5,778717	273,220495	310,18423	0
15.01.2021	04:26:31	0	0	2,711713	3,54375	22,0896	-0,72	82,348	0	1010,26	5,8	8	7,6	1	1	1	1	1	1	1	1	1	0	1	-8,597604	273,053007	306,591294	0
15.01.2021	04:26:32	0	0	4,745497	3,59475	13,5504	-0,723	82,328	0	1010,26	5,7	7,9	7,6	1	1	1	1	1	1	1	1	1	0	1	-4,510218	273,149347	311,123742	0
15.01.2021	04:26:33	0	0	4,293545	3,71775	6,4404	-0,729	82,337	0	1010,04	5,8	7,8	7,6	1	1	1	1	1	1	1	1	1	0	1	-4,298802	273,244746	311,776338	0
15.01.2021	04:26:34	0	0	5,084461	3,72675	3,7872	-0,719	82,341	0	1010,14	5,7	7,8	7,6	1	1	1	1	1	1	1	1	1	0	1	-5,426357	273,128054	310,109195	0
15.01.2021	04:26:35	0	0	3,954581	3,8355	10,8288	-0,721	82,336	0	1010,14	5,7	7,8	7,6	1	1	1	1	1	1	1	1	1	0	1	-5,496829	273,229051	310,505696	0
15.01.2021	04:26:36	0	0	4,858485	3,87225	11,2176	-0,724	82,348	0	1010,12	5,8	7,8	7,6	1	1	1	1	1	1	1	1	1	0	1	-4,792107	273,176352	310,966694	0
15.01.2021	04:26:37	0	0	3,615617	3,5715	18,8352	-0,721	82,333	0	1010,14	5,8	7,8	7,6	1	1	1	1	1	1	1	1	1	0	1	-6,694856	273,249029	309,400101	0
15.01.2021	04:26:38	0	0	4,406533	3,46425	10,4328	-0,722	82,332	0	1010,08	5,8	7,8	7,6	1	1	1	1	1	1	1	1	1	0	1	-8,245243	273,160713	307,441256	0
15.01.2021	04:26:39	0	0	2,824701	3,58575	9,3708	-0,722	82,342	0	1010,16	5,7	7,8	7,6	1	1	1	1	1	1	1	1	1	0	1	-5,496829	273,240464	310,5585	0
15.01.2021	04:26:40	0	0	2,485736	3,95325	8,622	-0,72	82,332	0	1010,04	5,8	7,8	7,6	1	1	1	1	1	1	1	1	1	0	1	-10,42988	273,196275	305,421046	0
15.01.2021	04:26:41	0	0	2,937689	4,14225	19,908	-0,722	82,326	0	1010,16	5,8	7,8	7,6	1	1	1	1	1	1	1	1	1	0	1	-10,570825	273,239037	305,477902	0
15.01.2021	04:26:42	0	0	3,163665	3,97575	17,7048	-0,723	82,35	0	1010,14	5,8	7,8	7,6	1	1	1	1	1	1	1	1	1	0	1	-5,355884	273,096866	310,035574	0
15.01.2021	04:26:43	0	0	4,858485	3,74175	13,9176	-0,72	82,34	0	1010,18	5,8	7,8	7,6	1	1	1	1	1	1	1	1	1	0	1	-4,510218	273,187734	311,301211	0
15.01.2021	04:26:44	0	0	3,276653	3,45375	12,4884	-0,719	82,347	0	1010,2	5,8	7,8	7,6	1	1	1	1	1	1	1	1	1	0	1	-7,047216	273,075631	308,246159	0
15.01.2021	04:26:45	0	0	4,406533	3,23175	14,2956	-0,728	82,319	0	1010,18	5,8	7,8	7,6	1	1	1	1	1	1	1	1	1	0	1	-4,298802	273,163555	311,400838	0
15.01.2021	04:26:46	0	0	2,711713	2,937	29,1132	-0,721	82,33	0	1009,94	5,7	7,8	7,6	1	1	1	1	1	1	1	1	1	0	1	-3,59408	273,06573	311,653567	0
15.01.2021	04:26:47	0	0	3,954581	2,68875	21,0132	-0,722	82,35	0	1009,96	5,7	7,8	7,6	1	1	1	1	1	1	1	1	1	0	1	-10,007047	273,147927	305,620348	0
15.01.2021	04:26:48	0	0	2,598725	2,5665	3,7908	-0,718	82,345	0	1010,26	5,7	7,8	7,6	1	1	1	1	1	1	1	1	1	0	1	-2,466526	273,077046	312,833384	0
15.01.2021	04:26:49	0	0	3,050677	2,7585	4,0896	-0,722	82,343	0	1010,2	5,7	7,8	7,6	1	1	1	1	1	1	1	1	1	0	1	-4,721635	273,081292	310,597883	0
15.01.2021	04:26:50	0	0	2,937689	3,02475	12,8628	-0,722	82,351	0	1010,18	5,7	7,8	7,6	1	1	1	1	1	1	1	1	1	0	1	-3,735025	273,164977	311,971186	0
15.01.2021	04:26:51	0	0	2,937689	3,1845	13,5468	-0,722	82,351	0	1010,2	5,7	7,8	7,6	1	1	1	1	1	1	1	1	1	0	1	-5,355884	273,061488	309,872175	0
15.01.2021	04:26:52	0	0	4,180557	3,228	10,062	-0,722	82,334	0	1010,18	5,7	7,8	7,6	1	1	1	1	1	1	1	1	1	0	1	-8,80902	273,146506	306,811811	0
15.01.2021	04:26:53	0	0	3,389641	3,2775	9,3888	-0,727	82,344	0	1010,22	5,7	7,8	7,6	1	1	1	1	1	1	1	1	1	0	1	-5,144468	273,069973	310,122774	0
15.01.2021	04:26:54	0	0	4,745497	3,20175	21,7692	-0,717	82,358	0	1010,16	5,7	7,8	7,6	1	1	1	1	1	1	1	1	1	0	1	-7,329105	273,20482	308,561338	0
15.01.2021	04:26:55	0	0	4,632509	2,91975	17,6976	-0,724	82,353	0	1010,3	5,7	7,9	7,6	1	1	1	1	1	1	1	1	1	0	1	-5,426357	273,182042	310,358754	0
15.01.2021	04:26:56	0	0	2,598725	2,6745	21,0168	-0,726	82,344	0	1010,08	5,7	8	7,6	1	1	1	1	1	1	1	1	1	0	1	-7,188161	273,062902	308,046427	0
15.01.2021	04:26:57	0	0	4,632509	2,42475	11,7072	-0,721	82,362	0	1010,18	5,7	7,8	7,6	1	1	1	1	1	1	1	1	1	0	1	-5,003524	273,182042	310,781587	0
15.01.2021	04:26:58	0	0	4,745497	2,55075	358,578	-0,721	82,367	0	1009,96	5,8	7,8	7,6	1	1	1	1	1	1	1	1	1	0	1	-3,030303	273,247601	313,058048	0
15.01.2021	04:26:59	0	0	4,632509	2,61	19,8972	-0,724	82,344	0	1010,04	5,8	7,8	7,6	1	1	1	1	1	1	1	1	1	0	1	-5,778717	273,223347	310,19742	0
15.01.2021	04:27:00	0	0	4,632509	2,24475	10,0656	-0,727	82,359	0	1010,06	5,7	7,8	7,6	1	1	1	1	1	1	1	1	1	0	1	-7,117689	273,246173	308,964057	0
15.01.2021	04:27:01	0	0	4,067569	2,262	13,6476	-0,719	82,355	0	1010,22	5,7	7,8	7,6	1	1	1	1	1	1	1	1	1	0	1	-7,117689	273,246173	308,964057	0
15.01.2021	04:27:02	0	0	4,067569	2,262	13,6476	-0,719	82,355	0	1010,22	5,7	7,8	7,6	1	1	1	1	1	1	1	1	1	0	1	-2,255109	273,111036	313,201811	0
15.01.2021	04:27:03	0	0	3,050677	2,316	10,4436	-0,724	82,368	0	1010,06	5,7	7,8	7,6	1	1	1	1	1	1	1	1	1	0	1	-8,104299	273,067144	307,14988	0
15.01.2021	04:27:04	0	0	4,406533	2,30775	7,8732	-0,723	82,338	0	1009,96	5,8	7,8	7,6	1	1	1	1	1	1	1	1	1	0	1	-2,889359	273,207669	313,014262	0
15.01.2021	04:27:05	0	0	2,25976	2,30025	3,0348	-0,73	82,359	0	1010,18	5,7	7,8	7,6	1	1	1	1	1	1	1	1	1	0	1	-6,060606	273,164977	309,645605	0
15.01.2021	04:27:06	0	0	3,954581	2,3025	6,0696	-0,719	82,357	0	1010,16	5,8	7,8	7,6	1	1	1	1	1	1	1	1	1	0	1	-4,721635	273,200547	311,149047	0
15.01.2021	04:27:07	0	0	3,502629	2,4045	3,7872	-0,723	82,353	0	1010,06	5,7	7,8	7,6	1	1	1	1	1	1	1	1	1	0	1	-5,21494	273,211944	310,708451	0
15.01.2021	04:27:08	0	0	3,954581	2,5845	12,9204	-0,723	82,35	0	1010,18	5,8	7,8	7,6	1	1	1	1	1	1	1	1	1	0	1	-4,22833	273,092618	311,143501	0
15.01.2021	04:27:09	0	0	2,372748	2,81175	9,7596	-0,723	82,363	0	1010,14	5,7	8	7,6	1	1	1	1	1	1	1	1	1	0	1	-6,694856	273,226199	309,294475	0
15.01.2021	04:27:10	0	0	3,954581	3,11925	10,0728	-0,719	82,37	0	1010,2	5,8	7,8	7,6	1	1	1	1	1	1	1	1	1	0	1	-1,198027	273,139407	314,389993	0
15.01.2021	04:27:11	0	0	4,858485	3,1845	20,9376	-0,722	82,343	0	1010,06	5,8	7,8	7,6	1	1	1	1	1	1	1	1	1	0	1	-2,466526	273,071387	312,807248	0
15.01.2021	04:27:12	0	0	3,050677	3,168	23,9724	-0,718	82,367	0	1010,22	5,8	7,8	7,6	1	1	1	1	1	1	1	1	1	0	1	-0,140944	273,091201	315,224345	0
15.01.2021	04:27:13	0	0	3,276653	3,06525	12,852	-0,716	82,381	0	1010,28	5,7	7,8	7,6	1	1	1	1	1	1	1	1	1	0	1	-3,171247	273,128054	312,364304	0
15.01.2021	04:27:14	0	0	4,406533	2,88225	359,4312	-0,722	82,376	0	1010,32	5,7	7,9	7,6	1	1	1	1	1	1	1	1	1	0	1	-1,902748	273,075631	313,390627	0
15.01.2021	04:27:15	0	0	5,197449	2,94675	3,7908	-0,723	82,374	0	1010,16	5,7	7,8	7,6	1	1	1	1	1	1	1	1	1	0	1	-6,624383	273,08837	308,727826	0
15.01.2021	04:27:16	0	0	4,293545	3,1965	8,604	-0,721	82,37	0	1010,22	5,8	7,8	7,6	1	1	1	1	1	1	1	1	1	0	1	-6,131078	273,253312	309,9837	0
15.01.2021	04:27:17	0	0	3,502629	3,5745	5,2092	-0,72	82,364	0	1009,96	5,7	7,8	7,6	1	1	1	1	1	1	1	1	1	0	1	-6,553911	273,189157	309,2641	0
15.01.2021	04:27:18	0	0	3,615617	3,678	10,818	-0,722	82,384	0	1010,26	5,7	7,9	7,6	1	1	1	1	1	1	1	1	1	0	1	-4,510218	273,229051	311,492307	0
15.01.2021	04:27:19	0	0	4,632509	3,54525	13,1724	-0,718	82,374	0	1010,24	5,7	7,9	7,6	1	1	1	1	1	1	1	1	1	0	1	-3,453136	273,231904	312,562586	0
15.01.2021	04:27:20	0	0	2,937689	3,45075	16,11	-0,721	82,406	0	1010,58	5,7	7,8	7,6	1	1	1	1	1	1	1	1	1	0	1	-7,610994	273,140827	307,983587	0
15.01.2021	04:27:21	0	0	4,293545	3,2655	16,0992	-0,726	82,362	0	1010,22	5,7	7,8	7,6	1	1	1	1	1	1	1	1	1	0	1	-0	273,06573	315,247648	0
15.01.2021	04:27:22	0	0	4,971473	3,135	12,4704	-0,72	82,371	0	1010,06	5,7	7,9	7,6	1	1	1	1	1	1	1	1	1	0	1	-4,721635	273,109619	310,728736	0
15.01.2021	04:27:23	0	0	2,824701	3,192	12,8592	-0,726	82,369	0	1010,2	5,7	7,9	7,6	1	1	1	1	1	1	1	1	1	0	1	-6,272023	273,227625	309,723905	0
15.01.2021	04:27:24	0	0	4,293545	3,18075	3,7872	-0,725	82,371	0	1009,98	5,7	7,9	7,6	1	1	1	1	1	1	1	1	1	0	1	-3,030303	273,207669	312,873317	0
15.01.2021	04:27:25	0	0	4,293545	3,14475	8,2656	-0,72	82,365	0	1010,2	5,7	7,8	7,6	1	1	1	1	1	1	1	1	1	0	1	-5,990134	273,231904	310,025589	0
15.01.2021	04:27:26	0	0	3,954581	3,15675	11,196	-0,72	82,387	0	1010,18	5,7	7,8	7,6	1	1	1	1	1	1	1	1	1	0	1	-6,976744	273,213369	308,953238	0
15.01.2021	04:27:27	0	0	4,406533	3,078	9,3816	-0,722	82,383	0	1010,2	5,7	7,8	7,6	1	1	1	1	1	1	1	1	1	0	1	-2,255109	273,194851	313,589232	0
15.01.2021	04:27:28	0	0	3,841593	2,91675	23,2128	-0,725	82,371	0	1010,16	5,7	7,8	7,6	1	1	1	1	1	1	1	1	1	0	1	-3,59408	273,250457	312,507483	0
15.01.2021	04:27:29	0	0	4,067569	2,78475	22,8348	-0,722	82,377	0	1010,12	5,7	7,8	7,6	1	1	1	1	1	1	1	1	1	0	1	-4,016913	273,074217	311,269927	0
15.01.2021	04:27:30	0	0	3,502629	2,80125	13,1652	-0,723	82,374	0	1010,02	5,7	7,9	7,6	1	1	1	1	1	1	1	1	1	0	1	-4,087385	273,149347	311,546575	0
15.01.2021	04:27:31	0	0	3,050677	2,901	9,7668	-0,728	82,38	0	1010,12	5,7	7,8	7,6	1	1	1	1	1	1	1	1	1	0	1	-3,875969	273,241891	312,185963	0
15.01.2021	04:27:32	0	0	4,519521	3,10575	360	-0,722	82,397	0	1010,08	5,7	7,8	7,6	1	1	1	1	1	1	1	1	1	0	1	-5,426357	273,229051	310,576169	0
15.01.2021	04:27:33	0	0	2,711713	3,2775	0,8604	-0,719	82,408	0	1010,26	5,8	7,8	7,6	1	1	1	1	1	1	1	1	1	0	1	-5,355884	273,082707	309,97017	0
15.01.2021	04:27:34	0	0	4,406533	3,225	359,0424	-0,721	82,407	0	1010,28	5,7	7,9	7,6	1	1	1	1	1	1	1	1	1	0	1	-7,047216	273,214794	308,889358	0
15.01.2021	04:27:35	0	0	2,824701	3,1605	5,2056	-0,727	82,382	0	1010,24	5,8	7,9	7,6	1	1	1	1	1	1	1	1	1	0	1	-3,735025	273,230477	312,274099	0
15.01.2021	04:27:36	0	0	4,293545	3,07425	8,5968	-0,72	82,394	0	1009,96	5,7	7,9	7,6	1	1	1	1	1	1	1	1	1	0	1	-7,610994	273,17493	308,141232	0
15.01.2021	04:27:37	0	0	2,598725	2,9535	6,0552	-0,72	82,403	0	1010,14	5,7	7,9	7,6	1	1	1	1	1	1	1	1	1	0	1	-0	273,060074	315,221531	0
15.01.2021	04:27:38	0	0	4,971413	2,95875	14,3064	-0,718	82,408	0	1010,18	5,8	7,9	7,8	1	1	1	1	1	1	1	1	1	0	1	-4,792107	273,106784	310,645168	0
15.01.2021	04:27:39	0	0	3,841593	3,06	14,6448	-0,722	82,403	0	1010,1	5,7	7,8	7,6	1	1	1	1	1	1	1	1	1	0	1	-1,761804	273,089786	313,596945	0
15.01.2021	04:27:40	0	0	4,858485	3,147	19,53	-0,723	82,398	0	1010,28	5,7	7,9	7,6	1	1	1	1	1	1	1	1	1	0	1	-3,875969	273,23333	312,146353	0
15.01.2021	04:27:41	0	0	2,485736	3,24225	9,7452	-0,721	82,413	0	1010,34	5,7	7,8	7,6	1	1	1	1	1	1	1	1	1	0	1	-1,691332	273,113871	313,778688	0
15.01.2021	04:27:42	0	0	3,389641	3,312	13,1724	-0,719	82,402	0	1010,16	5,8	7,8	7,6	1	1	1	1	1	1	1	1	1	0	1	-9,090909	273,231904	306,924813	0
15.01.2021	04:27:43	0	0	3,163665	3,2145	7,9884	-0,725	82,403	0	1010,16	5,8	7,9	7,6	1	1	1	1	1	1	1	1	1	0	1	-6,765328	273,186311	309,039521	0
15.01.2021	04:27:44	0	0	3,502629	3,2355	13,1796	-0,721	82,399	0	1010,08	5,7	7,9	7,6	1	1	1	1	1	1	1	1	1	0	1	-6,272023	273,06573	308,975625	0
15.01.2021	04:27:45	0	0	4,406533	3,1485	7,5132	-0,718	82,412	0	1010,16	5,8	7,9	7,6	1	1	1	1	1	1	1	1	1	0	1	-5,84919	273,213369	310,080792	0
15.01.2021	04:27:46	0	0	4,180557	3,1065	13,9176	-0,723	82,409	0	1010,18	5,7	7,8	7,6	1	1	1	1	1	1	1	1	1	0	1	-4,862579	273,182042	310,922532	0
15.01.2021	04:27:47	0	0	3,954581	2,952	357,2964	-0,725	82,406	0	1010,18	5,7	7,9	7,6	1	1	1	1	1	1	1	1	1	0	1	-2,255109	273,060074	312,966422	0
15.01.2021	04:27:48	0	0	4,858485	2,7855	10,8144	-0,722	82,417	0	1010,18	5,7	7,9	7,6	1	1	1	1	1	1	1	1	1	0	1	-2,396054	273,159292	313,283876	0
15.01.2021	04:27:49	0	0	4,293545	2,73825	13,914	-0,72	82,416	0	1010,22	5,7	7,9	7,6	1	1	1	1	1	1	1	1	1	0	1	-0,98661	273,079877	314,326371	0
15.01.2021	04:27:50	0	0	2,372748	2,62125	2,0196	-0,723	82,393	0	1009,92	5,7	7,9	7,6	1	1	1	1	1	1	1	1	1	0	1	-9,44327	273,129473	306,098838	0
15.01.2021	04:27:51	0	0	3,389641	2,52	3,7764	-0,719	82,42	0	1010,1	5,8	7,8	7,6	1	1	1	1	1	1	1	1	1	0	1	-2,959831	273,111036	312,497089	0
15.01.2021	04:27:52	0	0	4,293493	2,55225	4,086	-0,721	82,4	0	1010,18	5,7	7,9	7,8	1	1	1	1	1	1	1	1	1	0	1	-2,818887	273,246173	313,262858	0
15.01.2021	04:27:53	0	0	2,824667	2,59125	11,8044	-0,722	82,408	0	1010,2	5,8	7,9	7,8	1	1	1	1	1	1	1	1	1	0	1	-4,933051	273,169242	310,792876	0
15.01.2021	04:27:54	0	0	2,25976	2,553	7,902	-0,717	82,416	0	1010,26	5,8	7,9	7,6	1	1	1	1	1	1	1	1	1	0	1	-4,439746	273,061488	310,788313	0
15.01.2021	04:27:55	0	0	4,632509	2,56875	12,8556	-0,723	82,411	0	1010,08	5,8	7,9	7,6	1	1	1	1	1	1	1	1	1	0	1	-3,24172	273,216219	312,701447	0
15.01.2021	04:27:56	0	0	3,502629	2,586	16,1064	-0,72	82,425	0	1010,18	5,7	7,9	7,6	1	1	1	1	1	1	1	1	1	0	1	-5,285412	273,21907	310,670941	0
15.01.2021	04:27:57	0	0	2,824667	2,60175	22,4676	-0,721	82,429	0	1010,18	5,8	7,8	7,8	1	1	1	1	1	1	1	1	1	0	1	-4,862579	273,057247	310,345897	0
15.01.2021	04:27:58	0	0	4,406533	2,74875	24,3468	-0,72	82,423	0	1010,18	5,8	7,8	7,6	1	1	1	1	1	1	1	1	1	0	1	-5,84919	273,157871	309,824171	0
15.01.2021	04:27:59	0	0	3,050677	2,83875	22,8384	-0,719	82,412	0	1010,22	5,7	7,8	7,6	1	1	1	1	1	1	1	1	1	0	1	-3,59408	273,074217	311,69276	0
15.01.2021	04:28:00	0	0	2,598725	3,50325	21,0204	-0,725	82,415	0	1010,14	5,8	7,9	7,6	1	1	1	1	1	1	1	1	1	0	1	-1,409443	273,067144	313,844735	0
15.01.2021	04:28:01	0	0	2,598725	3,50325	21,0204	-0,725	82,415	0	1010,14	5,8	7,9	7,6	1	1	1	1	1	1	1	1	1	0	1	-1,409443	273,067144	313,844735	0
15.01.2021	04:28:02	0	0	4,067569	3,54525	20,6316	-0,721	82,405	0	1010,1	5,7	7,8	7,6	1	1	1	1	1	1	1	1	1	0	1	-3,171247	273,13231	312,383976	0
15.01.2021	04:28:03	0	0	4,745497	3,44325	17,6976	-0,712	82,427	0	1010,24	5,7	7,7	7,6	1	1	1	1	1	1	1	1	1	0	1	-3,100775	273,227625	312,895152	0
15.01.2021	04:28:04	0	0	4,858485	3,33375	2,6532	-0,724	82,423	0	1010,14	5,7	7,9	7,6	1	1	1	1	1	1	1	1	1	0	1	-7,540521	273,20482	308,349922	0
15.01.2021	04:28:05	0	0	4,519467	3,24	6,822	-0,719	82,433	0	1010,12	5,8	7,9	7,8	1	1	1	1	1	1	1	1	1	0	1	-0,563777	273,221921	315,405765	0
15.01.2021	04:28:06	0	0	4,632509	3,1125	5,22	-0,721	82,422	0	1010,18	5,8	7,9	7,6	1	1	1	1	1	1	1	1	1	0	1	-6,20155	273,194851	309,642791	0
15.01.2021	04:28:07	0	0	3,163665	2,87475	9,7596	-0,73	82,425	0	1010,12	5,8	7,9	7,6	1	1	1	1	1	1	1	1	1	0	1	-11,346018	273,244746	304,729122	0
15.01.2021	04:28:08	0	0	3,050677	2,70375	16,4808	-0,725	82,411	0	1009,9	5,7	7,8	7,6	1	1	1	1	1	1	1	1	1	0	1	-8,386187	273,10395	307,037994	0
15.01.2021	04:28:09	0	0	2,485707	2,553	9,0108	-0,72	82,401	0	1010,12	5,8	7,8	7,8	1	1	1	1	1	1	1	1	1	0	1	-3,664553	273,10395	311,759629	0
15.01.2021	04:28:10	0	0	3,615617	2,4825	8,28	-0,726	82,412	0	1010,22	5,7	7,8	7,6	1	1	1	1	1	1	1	1	1	0	1	-7,82241	273,053007	307,366488	0
15.01.2021	04:28:11	0	0	4,632509	2,59725	7,524	-0,721	82,427	0	1010,18	5,8	7,9	7,6	1	1	1	1	1	1	1	1	1	0	1	-4,792107	273,17493	310,960118	0
15.01.2021	04:28:12	0	0	4,74544	2,6415	2,3076	-0,718	82,417	0	1010,08	5,8	7,8	7,8	1	1	1	1	1	1	1	1	1	0	1	-10,570825	273,240464	305,484504	0
15.01.2021	04:28:13	0	0	3,389641	2,70975	0,144	-0,726	82,411	0	1010,08	5,7	7,8	7,6	1	1	1	1	1	1	1	1	1	0	1	-3,100775	273,166398	312,612007	0
15.01.2021	04:28:14	0	0	4,971413	2,7825	4,8384	-0,724	82,417	0	1010	5,8	7,8	7,8	1	1	1	1	1	1	1	1	1	0	1	-4,862579	273,23333	311,159743	0
15.01.2021	04:28:15	0	0	3,163627	2,95875	8,2656	-0,727	82,424	0	1010,18	5,7	7,9	7,8	1	1	1	1	1	1	1	1	1	0	1	-2,114165	273,098283	313,283837	0
15.01.2021	04:28:16	0	0	4,745497	3,237	2,6676	-0,723	82,439	0	1010,2	5,8	7,9	7,6	1	1	1	1	1	1	1	1	1	0	1	-3,100775	273,069973	312,166466	0
15.01.2021	04:28:17	0	0	3,615617	3,40425	3,4092	-0,724	82,423	0	1010,24	5,8	7,9	7,6	1	1	1	1	1	1	1	1	1	0	1	-6,624383	273,092618	308,747448	0
15.01.2021	04:28:18	0	0	2,824701	3,42375	8,28	-0,723	82,421	0	1010,2	5,7	7,9	7,6	1	1	1	1	1	1	1	1	1	0	1	-6,412967	273,187734	309,398463	0
15.01.2021	04:28:19	0	0	3,728605	3,29025	354,294	-0,727	82,429	0	1010,14	5,8	7,9	7,6	1	1	1	1	1	1	1	1	1	0	1	-0,422833	273,243319	315,645703	0
15.01.2021	04:28:20	0	0	4,293493	3,13725	1,9152	-0,719	82,408	0	1010,1	5,8	7,8	7,8	1	1	1	1	1	1	1	1	1	0	1	-2,677942	273,186311	313,126907	0
15.01.2021	04:28:21	0	0	5,084461	3,06	2,6604	-0,722	82,428	0	1010,22	5,8	7,9	7,6	1	1	1	1	1	1	1	1	1	0	1	-3,735025	273,210519	312,181775	0
15.01.2021	04:28:22	0	0	2,711713	2,9685	1,5516	-0,719	82,434	0	1010,22	5,7	7,9	7,6	1	1	1	1	1	1	1	1	1	0	1	-5,355884	273,23761	310,68624	0
15.01.2021	04:28:23	0	0	4,971473	2,742	4,8456	-0,726	82,431	0	1010,12	5,8	7,9	7,6	1	1	1	1	1	1	1	1	1	0	1	-6,624383	273,196275	309,226543	0
15.01.2021	04:28:24	0	0	3,502629	2,66325	2,6496	-0,723	82,44	0	1010,08	5,8	7,9	7,6	1	1	1	1	1	1	1	1	1	0	1	-5,567301	273,118125	309,922372	0
15.01.2021	04:28:25	0	0	2,372748	2,61375	2,646	-0,714	82,441	0	1010,24	5,7	7,9	7,6	1	1	1	1	1	1	1	1	1	0	1	-4,157858	273,060074	311,063673	0
15.01.2021	04:28:26	0	0	4,180557	2,568	17,3232	-0,726	82,433	0	1010,16	5,7	7,9	7,6	1	1	1	1	1	1	1	1	1	0	1	-7,258633	273,209094	308,651577	0
15.01.2021	04:28:27	0	0	5,197387	2,439	8,6292	-0,72	82,444	0	1010,2	5,8	7,8	7,8	1	1	1	1	1	1	1	1	1	0	1	-4,510218	273,092618	310,861613	0
15.01.2021	04:28:28	0	0	2,824701	2,469	9,7596	-0,721	82,444	0	1010,22	5,7	7,9	7,6	1	1	1	1	1	1	1	1	1	0	1	-0,845666	273,05442	314,349757	0
15.01.2021	04:28:29	0	0	2,372748	2,62725	10,0584	-0,721	82,421	0	1010,12	5,8	7,9	7,6	1	1	1	1	1	1	1	1	1	0	1	-3,453136	273,166398	312,259647	0
15.01.2021	04:28:30	0	0	4,519521	2,71275	16,1964	-0,721	82,447	0	1010,22	5,7	7,9	7,6	1	1	1	1	1	1	1	1	1	0	1	-6,272023	273,227625	309,723905	0
15.01.2021	04:28:31	0	0	4,971473	3,01425	15,4116	-0,72	82,434	0	1010,2	5,7	7,8	7,6	1	1	1	1	1	1	1	1	1	0	1	-7,751938	273,214794	308,184636	0
15.01.2021	04:28:32	0	0	4,519467	3,28425	8,2656	-0,723	82,42	0	1010,18	5,7	7,9	7,8	1	1	1	1	1	1	1	1	1	0	1	-0,493305	273,182042	315,291806	0
15.01.2021	04:28:33	0	0	2,485707	3,40575	7,1424	-0,725	82,436	0	1010,2	5,7	7,9	7,8	1	1	1	1	1	1	1	1	1	0	1	-2,748414	273,241891	313,313518	0
15.01.2021	04:28:34	0	0	4,632509	3,435	12,8628	-0,72	82,443	0	1010,16	5,7	7,9	7,6	1	1	1	1	1	1	1	1	1	0	1	-0,916138	273,123798	314,599748	0
15.01.2021	04:28:35	0	0	4,858427	3,276	18,8388	-0,717	82,458	0	1010,34	5,8	7,9	7,8	1	1	1	1	1	1	1	1	1	0	1	-3,735025	273,055833	311,466925	0
15.01.2021	04:28:36	0	0	4,406533	3,07875	11,718	-0,72	82,449	0	1010,26	5,8	7,9	7,6	1	1	1	1	1	1	1	1	1	0	1	-4,651163	273,085538	310,687968	0
15.01.2021	04:28:37	0	0	3,72856	2,88075	17,2476	-0,721	82,432	0	1010,22	5,8	7,9	7,8	1	1	1	1	1	1	1	1	1	0	1	-5,567301	273,136568	310,007598	0
15.01.2021	04:28:38	0	0	4,180507	2,60025	29,1132	-0,72	82,454	0	1010,14	5,8	7,9	7,8	1	1	1	1	1	1	1	1	1	0	1	-9,231853	273,239037	306,816873	0
15.01.2021	04:28:39	0	0	3,841593	2,4945	19,9044	-0,724	82,45	0	1010,22	5,8	7,8	7,6	1	1	1	1	1	1	1	1	1	0	1	-4,580691	273,172086	311,158385	0
15.01.2021	04:28:40	0	0	3,389641	2,34675	21,3804	-0,723	82,454	0	1010,2	5,8	7,9	7,6	1	1	1	1	1	1	1	1	1	0	1	-0,634249	273,060074	314,587281	0
15.01.2021	04:28:41	0	0	4,858427	2,31975	17,7876	-0,725	82,454	0	1010,16	5,8	7,9	7,8	1	1	1	1	1	1	1	1	1	0	1	-6,412967	273,230477	309,596157	0
15.01.2021	04:28:42	0	0	3,050677	2,29575	23,976	-0,727	82,448	0	1010,08	5,8	7,9	7,6	1	1	1	1	1	1	1	1	1	0	1	-3,100775	273,17493	312,65145	0
15.01.2021	04:28:43	0	0	3,05064	2,28675	25,4268	-0,719	82,447	0	1010,04	5,7	7,9	7,8	1	1	1	1	1	1	1	1	1	0	1	-4,087385	273,06573	311,160262	0
15.01.2021	04:28:44	0	0	4,406533	2,1795	34,7076	-0,719	82,439	0	1010,06	5,8	7,9	7,6	1	1	1	1	1	1	1	1	1	0	1	-3,946441	273,247601	312,141909	0
15.01.2021	04:28:45	0	0	3,163627	2,15625	20,6568	-0,721	82,456	0	1010,22	5,7	7,8	7,8	1	1	1	1	1	1	1	1	1	0	1	-3,171247	273,126635	312,357749	0
15.01.2021	04:28:46	0	0	4,858485	2,283	32,1624	-0,718	82,455	0	1010,2	5,8	7,9	7,6	1	1	1	1	1	1	1	1	1	0	1	-8,033827	273,045942	307,122453	0
15.01.2021	04:28:47	0	0	4,519521	2,16525	24,3216	-0,724	82,452	0	1010,26	5,8	7,9	7,6	1	1	1	1	1	1	1	1	1	0	1	-2,114165	273,163555	313,585475	0
15.01.2021	04:28:48	0	0	2,711713	2,253	10,1448	-0,729	82,449	0	1010,06	5,7	7,9	7,6	1	1	1	1	1	1	1	1	1	0	1	-3,312192	273,239037	312,736535	0
15.01.2021	04:28:49	0	0	3,276653	2,58075	36,234	-0,721	82,458	0	1010,16	5,8	7,8	7,6	1	1	1	1	1	1	1	1	1	0	1	-6,765328	273,089786	308,593421	0
15.01.2021	04:28:50	0	0	3,502629	2,5425	12,0924	-0,722	82,455	0	1010,18	5,7	7,9	7,6	1	1	1	1	1	1	1	1	1	0	1	-6,906272	273,082707	308,419783	0
15.01.2021	04:28:51	0	0	2,71168	2,4645	34,6968	-0,721	82,453	0	1010,14	5,7	7,9	7,8	1	1	1	1	1	1	1	1	1	0	1	-7,329105	273,102533	308,088531	0
15.01.2021	04:28:52	0	0	4,971473	2,30775	18,8352	-0,721	82,465	0	1010,18	5,8	7,9	7,6	1	1	1	1	1	1	1	1	1	0	1	-2,255109	273,157871	313,418252	0
15.01.2021	04:28:53	0	0	3,72856	2,3235	15,0372	-0,722	82,441	0	1010,16	5,8	7,9	7,8	1	1	1	1	1	1	1	1	1	0	1	-5,003524	273,243319	311,065012	0
15.01.2021	04:28:54	0	0	2,937653	2,62275	23,22	-0,725	82,457	0	1010,2	5,8	7,9	7,8	1	1	1	1	1	1	1	1	1	0	1	-5,21494	273,162134	310,478129	0
15.01.2021	04:28:55	0	0	4,858485	2,8485	23,6844	-0,723	82,477	0	1010,22	5,8	7,9	7,6	1	1	1	1	1	1	1	1	1	0	1	-3,171247	273,061488	312,056812	0
15.01.2021	04:28:56	0	0	4,971413	3,03225	30,3264	-0,719	82,461	0	1010,32	5,8	7,9	7,8	1	1	1	1	1	1	1	1	1	0	1	-2,959831	273,111036	312,497089	0
15.01.2021	04:28:57	0	0	2,824701	2,9625	29,1168	-0,725	82,457	0	1010,26	5,8	7,9	7,6	1	1	1	1	1	1	1	1	1	0	1	-4,933051	273,251884	311,175119	0
15.01.2021	04:28:58	0	0	4,632453	2,87325	20,2716	-0,72	82,465	0	1010,28	5,8	7,9	7,8	1	1	1	1	1	1	1	1	1	0	1	-4,933051	273,072802	310,347256	0
15.01.2021	04:28:59	0	0	4,858427	2,85825	11,7144	-0,719	82,468	0	1010,24	5,8	7,8	7,8	1	1	1	1	1	1	1	1	1	0	1	-6,412967	273,135149	309,155373	0
15.01.2021	04:29:00	0	0	3,389641	2,53875	1,5624	-0,724	82,459	0	1010,2	5,8	7,9	7,6	1	1	1	1	1	1	1	1	1	0	1	-7,82241	273,113871	307,647609	0
15.01.2021	04:29:01	0	0	3,389641	2,53875	1,5624	-0,724	82,459	0	1010,2	5,8	7,9	7,6	1	1	1	1	1	1	1	1	1	0	1	-7,82241	273,113871	307,647609	0
15.01.2021	04:29:02	0	0	3,841593	2,40525	355,0536	-0,724	82,445	0	1010,2	5,8	7,9	7,6	1	1	1	1	1	1	1	1	1	0	1	-7,540521	273,071387	307,733253	0
15.01.2021	04:29:03	0	0	3,05064	2,35575	16,0992	-0,724	82,469	0	1010,18	5,8	7,9	7,8	1	1	1	1	1	1	1	1	1	0	1	-3,523608	273,108201	311,920215	0
15.01.2021	04:29:04	0	0	4,971473	2,37225	9,378	-0,729	82,462	0	1010,28	5,8	7,9	7,6	1	1	1	1	1	1	1	1	1	0	1	-5,567301	273,23333	310,455021	0
15.01.2021	04:29:05	0	0	4,632453	2,30325	19,134	-0,721	82,473	0	1010,2	5,8	7,9	7,8	1	1	1	1	1	1	1	1	1	0	1	-4,651163	273,247601	311,437188	0
15.01.2021	04:29:06	0	0	3,954533	2,12175	6,804	-0,72	82,466	0	1009,96	5,8	7,8	7,8	1	1	1	1	1	1	1	1	1	0	1	-8,668076	273,169242	307,057852	0
15.01.2021	04:29:07	0	0	2,71168	2,01825	8,622	-0,721	82,473	0	1010,3	5,8	7,9	7,8	1	1	1	1	1	1	1	1	1	0	1	-3,59408	273,062902	311,640508	0
15.01.2021	04:29:08	0	0	4,745497	1,9785	8,9928	-0,724	82,441	0	1010,08	5,8	7,9	7,6	1	1	1	1	1	1	1	1	1	0	1	-5,990134	273,108201	309,453689	0
15.01.2021	04:29:09	0	0	2,937653	1,83	5,2236	-0,727	82,464	0	1010,14	5,7	7,9	7,8	1	1	1	1	1	1	1	1	1	0	1	-2,959831	273,044529	312,189926	0
15.01.2021	04:29:10	0	0	2,937689	1,72875	5,2236	-0,724	82,451	0	1010,12	5,8	7,8	7,6	1	1	1	1	1	1	1	1	1	0	1	-2,043693	273,137988	313,537767	0
15.01.2021	04:29:11	0	0	2,937653	1,83225	6,066	-0,725	82,463	0	1010,18	5,8	7,9	7,8	1	1	1	1	1	1	1	1	1	0	1	-3,946441	273,078461	311,360004	0
15.01.2021	04:29:12	0	0	4,632453	2,061	348,0876	-0,721	82,451	0	1010,16	5,8	7,9	7,8	1	1	1	1	1	1	1	1	1	0	1	-2,818887	273,069973	312,448355	0
15.01.2021	04:29:13	0	0	4,180507	2,41875	5,2236	-0,721	82,468	0	1010,04	5,7	7,9	7,8	1	1	1	1	1	1	1	1	1	0	1	-6,342495	273,128054	309,193057	0
15.01.2021	04:29:14	0	0	5,310437	2,577	2,664	-0,719	82,479	0	1010,22	5,8	7,9	7,6	1	1	1	1	1	1	1	1	1	0	1	-3,664553	273,240464	312,390776	0
15.01.2021	04:29:15	0	0	3,3896	2,41575	17,226	-0,722	82,471	0	1010,22	5,8	7,9	7,8	1	1	1	1	1	1	1	1	1	0	1	-8,527132	273,139407	307,060888	0
15.01.2021	04:29:16	0	0	2,824667	2,16525	25,7796	-0,722	82,478	0	1010,2	5,8	7,9	7,8	1	1	1	1	1	1	1	1	1	0	1	-7,82241	273,239037	308,226316	0
15.01.2021	04:29:17	0	0	3,841547	2,028	359,9388	-0,719	82,471	0	1010,16	5,8	7,9	7,8	1	1	1	1	1	1	1	1	1	0	1	-3,59408	273,201971	312,283188	0
15.01.2021	04:29:18	0	0	2,824667	1,875	23,2236	-0,72	82,468	0	1010,2	5,7	7,9	7,8	1	1	1	1	1	1	1	1	1	0	1	-5,426357	273,119543	310,069869	0
15.01.2021	04:29:19	0	0	3,163665	1,9845	18,1044	-0,719	82,476	0	1010,14	5,8	7,9	7,6	1	1	1	1	1	1	1	1	1	0	1	-6,060606	273,253312	310,054173	0
15.01.2021	04:29:20	0	0	4,632453	2,41125	8,2548	-0,718	82,477	0	1010,28	5,8	7,8	7,8	1	1	1	1	1	1	1	1	1	0	1	-3,030303	273,135149	312,538037	0
15.01.2021	04:29:21	0	0	3,954533	2,75175	11,718	-0,721	82,479	0	1010,2	5,8	7,7	7,8	1	1	1	1	1	1	1	1	1	0	1	-4,298802	273,075631	310,994573	0
15.01.2021	04:29:22	0	0	4,180507	2,8485	12,1104	-0,725	82,483	0	1010,22	5,8	7,9	7,8	1	1	1	1	1	1	1	1	1	0	1	-5,21494	273,244746	310,8602	0
15.01.2021	04:29:23	0	0	2,711713	2,95125	9,0144	-0,727	82,477	0	1010,18	5,7	7,8	7,6	1	1	1	1	1	1	1	1	1	0	1	-4,792107	273,143666	310,815598	0
15.01.2021	04:29:24	0	0	3,276653	3,23625	3,3984	-0,716	82,489	0	1010,22	5,8	7,9	7,6	1	1	1	1	1	1	1	1	1	0	1	-5,919662	273,077046	309,380248	0
15.01.2021	04:29:25	0	0	3,163627	3,23025	9,3744	-0,721	82,492	0	1010,32	5,8	7,8	7,8	1	1	1	1	1	1	1	1	1	0	1	-6,976744	273,160713	308,709755	0
15.01.2021	04:29:26	0	0	4,406533	3,20625	2,2932	-0,718	82,486	0	1010,24	5,8	7,8	7,6	1	1	1	1	1	1	1	1	1	0	1	-2,396054	273,067144	312,858125	0
15.01.2021	04:29:27	0	0	2,598693	3,3645	13,1688	-0,72	82,491	0	1010,16	5,8	7,9	7,8	1	1	1	1	1	1	1	1	1	0	1	-4,087385	273,078461	311,21906	0
15.01.2021	04:29:28	0	0	4,632509	3,39075	19,1412	-0,717	82,489	0	1010,14	5,8	7,9	7,6	1	1	1	1	1	1	1	1	1	0	1	-4,792107	273,164977	310,914104	0
15.01.2021	04:29:29	0	0	2,598725	3,312	13,9248	-0,721	82,48	0	1010,26	5,8	7,8	7,6	1	1	1	1	1	1	1	1	1	0	1	-3,664553	273,210519	312,252248	0
15.01.2021	04:29:30	0	0	4,74544	3,20325	21,3732	-0,722	82,481	0	1010,2	5,8	7,9	7,8	1	1	1	1	1	1	1	1	1	0	1	-8,949965	273,060074	306,271566	0
15.01.2021	04:29:31	0	0	3,502587	2,95875	2,6568	-0,726	82,487	0	1010,14	5,8	7,8	7,8	1	1	1	1	1	1	1	1	1	0	1	-4,933051	273,203396	310,950804	0
15.01.2021	04:29:32	0	0	4,74544	2,80875	23,2056	-0,722	82,5	0	1010,18	5,8	7,8	7,8	1	1	1	1	1	1	1	1	1	0	1	-7,470049	273,206245	308,426982	0
15.01.2021	04:29:33	0	0	4,519467	2,64075	15,408	-0,721	82,494	0	1010,24	5,8	7,8	7,8	1	1	1	1	1	1	1	1	1	0	1	-3,523608	273,182042	312,261503	0
15.01.2021	04:29:34	0	0	4,519467	2,49225	29,9556	-0,722	82,488	0	1010,18	5,8	7,8	7,8	1	1	1	1	1	1	1	1	1	0	1	-5,567301	273,186311	310,237548	0
15.01.2021	04:29:35	0	0	4,519467	2,5245	9,0036	-0,72	82,504	0	1010,2	5,8	7,9	7,8	1	1	1	1	1	1	1	1	1	0	1	-1,550388	273,210519	314,366412	0
15.01.2021	04:29:36	0	0	2,71168	2,63175	18,4608	-0,723	82,497	0	1010,08	5,8	7,9	7,8	1	1	1	1	1	1	1	1	1	0	1	-6,8358	273,189157	308,982211	0
15.01.2021	04:29:37	0	0	3,163627	2,5635	15,4224	-0,718	82,506	0	1010,38	5,8	7,8	7,8	1	1	1	1	1	1	1	1	1	0	1	-8,527132	273,05866	306,687871	0
15.01.2021	04:29:38	0	0	3,615617	2,562	23,2272	-0,726	82,487	0	1010,2	5,8	7,8	7,6	1	1	1	1	1	1	1	1	1	0	1	-6,694856	273,201971	309,182413	0
15.01.2021	04:29:39	0	0	3,05064	2,607	9,3672	-0,724	82,512	0	1010,24	5,7	7,9	7,8	1	1	1	1	1	1	1	1	1	0	1	-7,047216	273,12238	308,462115	0
15.01.2021	04:29:40	0	0	4,971413	2,59575	22,4568	-0,724	82,504	0	1010,22	5,8	7,8	7,8	1	1	1	1	1	1	1	1	1	0	1	-6,20155	273,240464	309,853778	0
15.01.2021	04:29:41	0	0	2,824701	2,70675	15,4116	-0,722	82,482	0	1010,12	5,8	7,8	7,6	1	1	1	1	1	1	1	1	1	0	1	-4,369274	273,091201	310,996016	0
15.01.2021	04:29:42	0	0	2,824701	2,709	7,146	-0,722	82,502	0	1010,26	5,8	7,8	7,6	1	1	1	1	1	1	1	1	1	0	1	-6,342495	273,068558	308,918215	0
15.01.2021	04:29:43	0	0	3,05064	2,78475	10,8324	-0,724	82,502	0	1010,22	5,8	7,8	7,8	1	1	1	1	1	1	1	1	1	0	1	-7,399577	273,074217	307,887264	0
15.01.2021	04:29:44	0	0	2,824667	2,94375	9,378	-0,72	82,501	0	1010,16	5,8	7,8	7,8	1	1	1	1	1	1	1	1	1	0	1	-5,567301	273,196275	310,283625	0
15.01.2021	04:29:45	0	0	2,598693	3,024	10,0548	-0,724	82,514	0	1010,22	5,8	7,8	7,8	1	1	1	1	1	1	1	1	1	0	1	-6,765328	273,23761	309,276797	0
15.01.2021	04:29:46	0	0	3,502587	3,0375	3,7872	-0,72	82,505	0	1010,32	5,8	7,8	7,8	1	1	1	1	1	1	1	1	1	0	1	-3,453136	273,12238	312,056196	0
15.01.2021	04:29:47	0	0	2,598693	3,21675	3,8808	-0,723	82,497	0	1010,1	5,8	7,8	7,8	1	1	1	1	1	1	1	1	1	0	1	-7,610994	273,246173	308,470751	0
15.01.2021	04:29:48	0	0	4,632453	3,1425	12,4776	-0,725	82,51	0	1010,22	5,8	7,8	7,8	1	1	1	1	1	1	1	1	1	0	1	-2,959831	273,145086	312,654437	0
15.01.2021	04:29:49	0	0	3,72856	2,949	359,8452	-0,724	82,497	0	1010,2	5,8	7,8	7,8	1	1	1	1	1	1	1	1	1	0	1	-0,140944	273,239037	315,907782	0
15.01.2021	04:29:50	0	0	2,937653	3,147	13,9212	-0,723	82,507	0	1010,24	5,8	7,8	7,8	1	1	1	1	1	1	1	1	1	0	1	-4,369274	273,08837	310,982935	0
15.01.2021	04:29:51	0	0	3,615573	3,279	12,8592	-0,726	82,512	0	1010,22	5,8	7,9	7,8	1	1	1	1	1	1	1	1	1	0	1	-9,513742	273,214794	306,422832	0
15.01.2021	04:29:52	0	0	2,824667	3,447	16,8336	-0,726	82,501	0	1009,94	5,8	7,9	7,8	1	1	1	1	1	1	1	1	1	0	1	-4,792107	273,21907	311,164246	0
15.01.2021	04:29:53	0	0	4,971413	3,4095	16,4772	-0,721	82,509	0	1010,22	5,8	7,8	7,8	1	1	1	1	1	1	1	1	1	0	1	-5,285412	273,129473	310,256696	0
15.01.2021	04:29:54	0	0	3,841593	3,501	6,174	-0,728	82,507	0	1010,14	5,8	7,8	7,6	1	1	1	1	1	1	1	1	1	0	1	-9,090909	273,05018	306,084939	0
15.01.2021	04:29:55	0	0	5,197387	3,6435	6,8184	-0,721	82,509	0	1010,2	5,8	7,8	7,8	1	1	1	1	1	1	1	1	1	0	1	-8,104299	273,192004	307,726876	0
15.01.2021	04:29:56	0	0	3,163627	3,63825	12,096	-0,721	82,497	0	1010,16	5,8	7,8	7,8	1	1	1	1	1	1	1	1	1	0	1	-1,902748	273,115289	313,573822	0
15.01.2021	04:29:57	0	0	3,841547	3,702	9,3744	-0,721	82,504	0	1010,28	5,8	7,8	7,8	1	1	1	1	1	1	1	1	1	0	1	-6,553911	273,057247	308,654565	0
15.01.2021	04:29:58	0	0	4,293493	3,79425	2,1384	-0,72	82,512	0	1010,14	5,8	7,8	7,8	1	1	1	1	1	1	1	1	1	0	1	-5,21494	273,199123	310,649156	0
15.01.2021	04:29:59	0	0	3,954533	3,77925	8,2764	-0,724	82,508	0	1010,2	5,8	7,8	7,8	1	1	1	1	1	1	1	1	1	0	1	-6,553911	273,109619	308,89646	0
15.01.2021	04:30:00	0	0	4,519467	3,43425	22,4712	-0,73	82,495	0	1010,2	5,8	7,8	7,8	1	1	1	1	1	1	1	1	1	0	1	-4,298802	273,10395	311,12538	0
15.01.2021	04:30:01	0	0	2,937689	3,309	1,566	-0,723	82,482	0	1010,02	5,8	7,9	7,6	1	1	1	1	1	1	1	1	1	0	1	-4,298802	273,10395	311,12538	0
15.01.2021	04:30:02	0	0	2,937689	3,309	1,566	-0,723	82,482	0	1010,02	5,8	7,9	7,6	1	1	1	1	1	1	1	1	1	0	1	-3,312192	273,170664	312,42031	0
15.01.2021	04:30:03	0	0	3,841547	3,35025	2,6388	-0,722	82,496	0	1010	5,8	7,8	7,8	1	1	1	1	1	1	1	1	1	0	1	-3,100775	273,201971	312,776493	0
15.01.2021	04:30:04	0	0	4,519467	3,2715	6,4404	-0,725	82,49	0	1010,12	5,8	7,7	7,8	1	1	1	1	1	1	1	1	1	0	1	-3,171247	273,123798	312,344639	0
15.01.2021	04:30:05	0	0	4,40648	2,9745	5,2308	-0,721	82,499	0	1010,24	5,8	7,8	7,8	1	1	1	1	1	1	1	1	1	0	1	-0	273,231904	316,015723	0
15.01.2021	04:30:06	0	0	3,841547	3,04425	4,842	-0,724	82,502	0	1010,22	5,8	7,8	7,8	1	1	1	1	1	1	1	1	1	0	1	-9,44327	273,157871	306,230091	0
15.01.2021	04:30:07	0	0	2,598693	2,96925	13,9212	-0,732	82,507	0	1010,2	5,8	7,8	7,8	1	1	1	1	1	1	1	1	1	0	1	-7,399577	273,229051	308,602948	0
15.01.2021	04:30:08	0	0	4,06752	2,9625	11,7396	-0,721	82,507	0	1010,26	5,8	7,8	7,8	1	1	1	1	1	1	1	1	1	0	1	-4,580691	273,231904	311,435032	0
15.01.2021	04:30:09	0	0	3,389641	3,01875	2,304	-0,727	82,501	0	1010,2	5,8	7,8	7,6	1	1	1	1	1	1	1	1	1	0	1	-2,889359	273,135149	312,678981	0
15.01.2021	04:30:10	0	0	3,05064	2,9115	8,64	-0,723	82,503	0	1010,22	5,8	7,8	7,8	1	1	1	1	1	1	1	1	1	0	1	-2,396054	273,068558	312,864656	0
15.01.2021	04:30:11	0	0	2,598693	2,829	5,2308	-0,722	82,508	0	1010,2	5,8	7,8	7,8	1	1	1	1	1	1	1	1	1	0	1	-4,369274	273,113871	311,100745	0
15.01.2021	04:30:12	0	0	4,632509	2,643	2,3112	-0,725	82,486	0	1010,02	5,8	7,8	7,6	1	1	1	1	1	1	1	1	1	0	1	-8,315715	273,241891	307,746217	0
15.01.2021	04:30:13	0	0	2,598693	2,48025	358,3368	-0,728	82,487	0	1010,18	5,8	7,9	7,8	1	1	1	1	1	1	1	1	1	0	1	-5,567301	273,210519	310,349499	0
15.01.2021	04:30:14	0	0	3,3896	2,53875	355,3308	-0,726	82,496	0	1010,26	5,8	7,8	7,8	1	1	1	1	1	1	1	1	1	0	1	-2,114165	273,199123	313,749931	0
15.01.2021	04:30:15	0	0	3,615573	2,70375	0,4968	-0,717	82,499	0	1010,26	5,8	7,9	7,8	1	1	1	1	1	1	1	1	1	0	1	-5,708245	273,146506	309,912586	0
15.01.2021	04:30:16	0	0	3,276613	2,64075	6,912	-0,728	82,495	0	1010,02	5,8	7,8	7,8	1	1	1	1	1	1	1	1	1	0	1	-2,466526	273,147927	313,16087	0
15.01.2021	04:30:17	0	0	4,406533	2,77125	4,8312	-0,726	82,487	0	1010,2	5,8	7,8	7,6	1	1	1	1	1	1	1	1	1	0	1	-0,916138	273,236183	315,119385	0
15.01.2021	04:30:18	0	0	3,841547	2,99025	7,146	-0,732	82,496	0	1010,18	5,8	7,8	7,8	1	1	1	1	1	1	1	1	1	0	1	-6,765328	273,199123	309,098768	0
15.01.2021	04:30:19	0	0	3,615573	3,07125	14,6628	-0,732	82,495	0	1010,1	5,8	7,8	7,8	1	1	1	1	1	1	1	1	1	0	1	-5,778717	273,223347	310,19742	0
15.01.2021	04:30:20	0	0	2,485707	2,99925	10,8144	-0,725	82,503	0	1010,32	5,8	7,8	7,8	1	1	1	1	1	1	1	1	1	0	1	-6,060606	273,053007	309,128292	0
15.01.2021	04:30:21	0	0	4,40648	2,943	9,3816	-0,725	82,505	0	1010,22	5,8	7,8	7,8	1	1	1	1	1	1	1	1	1	0	1	-6,906272	273,143666	308,701433	0
15.01.2021	04:30:22	0	0	4,858427	2,89275	5,2236	-0,725	82,501	0	1010,22	5,8	7,8	7,8	1	1	1	1	1	1	1	1	1	0	1	-6,553911	273,234757	309,475011	0
15.01.2021	04:30:23	0	0	3,05064	2,77725	7,506	-0,731	82,488	0	1010,12	5,8	7,8	7,8	1	1	1	1	1	1	1	1	1	0	1	-4,298802	273,184888	311,499467	0
15.01.2021	04:30:24	0	0	2,598693	2,63775	3,78	-0,727	82,501	0	1010,16	5,8	7,9	7,8	1	1	1	1	1	1	1	1	1	0	1	-6,342495	273,229051	309,66003	0
15.01.2021	04:30:25	0	0	5,197387	2,60775	5,67	-0,732	82,49	0	1010,24	5,8	7,8	7,8	1	1	1	1	1	1	1	1	1	0	1	-8,45666	273,203396	307,427196	0
15.01.2021	04:30:26	0	0	4,971413	2,62725	9,3672	-0,724	82,489	0	1010,14	5,8	7,9	7,8	1	1	1	1	1	1	1	1	1	0	1	-7,963354	273,108201	307,480469	0
15.01.2021	04:30:27	0	0	4,74544	2,559	19,9044	-0,725	82,496	0	1010,08	5,8	7,8	7,8	1	1	1	1	1	1	1	1	1	0	1	-6,765328	273,23333	309,256994	0
15.01.2021	04:30:28	0	0	4,74544	2,418	10,8144	-0,723	82,503	0	1010,34	5,8	7,8	7,8	1	1	1	1	1	1	1	1	1	0	1	-3,453136	273,120961	312,049642	0
15.01.2021	04:30:29	0	0	3,163627	2,4315	11,7288	-0,725	82,505	0	1010,32	5,8	7,8	7,8	1	1	1	1	1	1	1	1	1	0	1	-9,44327	273,089786	305,915479	0
15.01.2021	04:30:30	0	0	4,180507	2,42025	2,3148	-0,724	82,5	0	1010,34	5,8	7,8	7,8	1	1	1	1	1	1	1	1	1	0	1	-8,386187	273,231904	307,629535	0
15.01.2021	04:30:31	0	0	3,3896	2,421	8,2872	-0,726	82,511	0	1010,36	5,8	7,8	7,8	1	1	1	1	1	1	1	1	1	0	1	-6,765328	273,164977	308,940883	0
15.01.2021	04:30:32	0	0	3,615617	2,50425	12,1248	-0,732	82,495	0	1010,18	5,8	7,8	7,6	1	1	1	1	1	1	1	1	1	0	1	-5,919662	273,239037	310,129065	0
15.01.2021	04:30:33	0	0	4,180507	2,67375	14,31	-0,733	82,507	0	1010,18	5,8	7,8	7,8	1	1	1	1	1	1	1	1	1	0	1	-4,087385	273,166398	311,625397	0
15.01.2021	04:30:34	0	0	4,06752	2,64825	6,4512	-0,728	82,496	0	1010,28	5,8	7,8	7,8	1	1	1	1	1	1	1	1	1	0	1	-6,272023	273,05866	308,94298	0
15.01.2021	04:30:35	0	0	4,632453	2,523	6,2316	-0,728	82,506	0	1010,18	5,8	7,8	7,8	1	1	1	1	1	1	1	1	1	0	1	-6,131078	273,216219	309,812088	0
15.01.2021	04:30:36	0	0	2,824667	2,454	0,8784	-0,723	82,508	0	1010,16	5,8	7,8	7,8	1	1	1	1	1	1	1	1	1	0	1	-5,567301	273,170664	310,1652	0
15.01.2021	04:30:37	0	0	3,954533	2,44725	4,0932	-0,728	82,5	0	1010,22	5,8	7,8	7,8	1	1	1	1	1	1	1	1	1	0	1	-5,637773	273,081292	309,681745	0
15.01.2021	04:30:38	0	0	4,632453	2,709	4,4712	-0,725	82,501	0	1010,2	5,8	7,8	7,8	1	1	1	1	1	1	1	1	1	0	1	-7,399577	273,05866	307,815426	0
15.01.2021	04:30:39	0	0	3,05064	2,80725	7,1388	-0,726	82,506	0	1010,22	5,8	7,8	7,8	1	1	1	1	1	1	1	1	1	0	1	-5,778717	273,0997	309,625828	0
15.01.2021	04:30:40	0	0	4,858427	2,676	18,4608	-0,728	82,51	0	1010,28	5,8	7,8	7,8	1	1	1	1	1	1	1	1	1	0	1	-8,527132	273,226199	307,462198	0
15.01.2021	04:30:41	0	0	3,163627	2,66925	5,6952	-0,732	82,504	0	1010,2	5,8	7,8	7,8	1	1	1	1	1	1	1	1	1	0	1	-8,386187	273,0997	307,018358	0
15.01.2021	04:30:42	0	0	4,632453	2,83875	6,0768	-0,738	82,501	0	1010,22	5,8	7,8	7,8	1	1	1	1	1	1	1	1	1	0	1	-5,919662	273,113871	309,550358	0
15.01.2021	04:30:43	0	0	4,74544	2,79	6,444	-0,732	82,508	0	1010,2	5,8	7,8	7,8	1	1	1	1	1	1	1	1	1	0	1	-2,536998	273,05442	312,658425	0
15.01.2021	04:30:44	0	0	4,971413	2,763	23,2092	-0,731	82,504	0	1010,18	5,8	7,8	7,8	1	1	1	1	1	1	1	1	1	0	1	-6,483439	273,149347	309,150521	0
15.01.2021	04:30:45	0	0	4,519521	2,6925	11,7216	-0,734	82,5	0	1010,18	5,8	7,8	7,6	1	1	1	1	1	1	1	1	1	0	1	-4,087385	273,226199	311,901945	0
15.01.2021	04:30:46	0	0	3,615573	2,634	12,852	-0,728	82,504	0	1010,28	5,8	7,8	7,8	1	1	1	1	1	1	1	1	1	0	1	-4,298802	273,153608	311,354856	0
15.01.2021	04:30:47	0	0	4,40648	2,52525	3,024	-0,734	82,499	0	1010,34	5,8	7,8	7,8	1	1	1	1	1	1	1	1	1	0	1	-5,21494	273,236183	310,820583	0
15.01.2021	04:30:48	0	0	4,858427	2,52225	8,9892	-0,732	82,49	0	1010,28	5,8	7,8	7,8	1	1	1	1	1	1	1	1	1	0	1	-8,949965	273,201971	306,927304	0
15.01.2021	04:30:49	0	0	4,293493	2,42775	360	-0,73	82,518	0	1010,28	5,8	7,7	7,8	1	1	1	1	1	1	1	1	1	0	1	-4,792107	273,183465	310,999583	0
15.01.2021	04:30:50	0	0	4,519467	2,4405	21,7764	-0,731	82,508	0	1010,18	5,8	7,8	7,8	1	1	1	1	1	1	1	1	1	0	1	-5,990134	273,067144	309,264045	0
15.01.2021	04:30:51	0	0	3,163627	2,4255	3,0276	-0,739	82,511	0	1010,16	5,8	7,8	7,8	1	1	1	1	1	1	1	1	1	0	1	-6,131078	273,143666	309,476627	0
15.01.2021	04:30:52	0	0	2,598693	2,48175	0,1116	-0,728	82,513	0	1010,04	5,8	7,8	7,8	1	1	1	1	1	1	1	1	1	0	1	-4,792107	273,036056	310,31853	0
15.01.2021	04:30:53	0	0	4,40648	2,52375	10,2456	-0,73	82,5	0	1010,1	5,8	7,8	7,8	1	1	1	1	1	1	1	1	1	0	1	-9,725159	273,206245	306,171873	0
15.01.2021	04:30:54	0	0	4,971413	2,652	13,914	-0,734	82,504	0	1010,16	5,8	7,8	7,8	1	1	1	1	1	1	1	1	1	0	1	-2,959831	273,15645	312,706962	0
15.01.2021	04:30:55	0	0	5,197387	2,634	8,28	-0,731	82,523	0	1010,3	5,8	7,8	7,8	1	1	1	1	1	1	1	1	1	0	1	-6,412967	273,057247	308,795509	0
15.01.2021	04:30:56	0	0	4,971413	2,47725	1,9224	-0,729	82,518	0	1010,12	5,8	7,8	7,8	1	1	1	1	1	1	1	1	1	0	1	-2,959831	273,197699	312,89768	0
15.01.2021	04:30:57	0	0	2,71168	2,457	8,6184	-0,733	82,516	0	1010,2	5,8	7,8	7,8	1	1	1	1	1	1	1	1	1	0	1	-5,990134	273,09545	309,394781	0
15.01.2021	04:30:58	0	0	4,06752	2,42625	3,024	-0,736	82,51	0	1010,16	5,8	7,8	7,8	1	1	1	1	1	1	1	1	1	0	1	-9,302326	273,241891	306,759606	0
15.01.2021	04:30:59	0	0	2,937653	2,5035	7,1352	-0,731	82,522	0	1010,2	5,8	7,8	7,8	1	1	1	1	1	1	1	1	1	0	1	-7,540521	273,190581	308,284071	0
15.01.2021	04:31:00	0	0	4,971413	2,39925	5,2272	-0,735	82,506	0	1010,22	5,8	7,8	7,8	1	1	1	1	1	1	1	1	1	0	1	-9,090909	273,224773	306,891824	0
15.01.2021	04:31:01	0	0	4,971413	2,39925	5,2272	-0,735	82,506	0	1010,22	5,8	7,8	7,8	1	1	1	1	1	1	1	1	1	0	1	-9,090909	273,224773	306,891824	0
15.01.2021	04:31:02	0	0	4,06752	2,4765	10,0728	-0,735	82,52	0	1010,14	5,8	7,8	7,8	1	1	1	1	1	1	1	1	1	0	1	-6,624383	273,177775	309,140994	0
15.01.2021	04:31:03	0	0	4,293493	2,4495	4,842	-0,734	82,514	0	1010,24	5,8	7,8	7,8	1	1	1	1	1	1	1	1	1	0	1	-7,258633	273,227625	308,737294	0
15.01.2021	04:31:04	0	0	2,937653	2,4405	6,0588	-0,73	82,527	0	1010,14	5,8	7,8	7,8	1	1	1	1	1	1	1	1	1	0	1	-5,496829	273,166398	310,215954	0
15.01.2021	04:31:05	0	0	5,42336	2,3445	4,482	-0,731	82,534	0	1010,12	5,8	7,8	7,8	1	1	1	1	1	1	1	1	1	0	1	-4,298802	273,060074	310,922729	0
15.01.2021	04:31:06	0	0	2,485707	2,32275	7,1388	-0,73	82,528	0	1010,16	5,8	7,8	7,8	1	1	1	1	1	1	1	1	1	0	1	-4,580691	273,092618	310,79114	0
15.01.2021	04:31:07	0	0	2,824667	2,3445	6,8292	-0,73	82,521	0	1010,24	5,8	7,8	7,8	1	1	1	1	1	1	1	1	1	0	1	-5,285412	273,082707	310,040642	0
15.01.2021	04:31:08	0	0	5,0844	2,3925	10,5372	-0,733	82,53	0	1010,22	5,8	7,8	7,8	1	1	1	1	1	1	1	1	1	0	1	-4,22833	273,200547	311,642352	0
15.01.2021	04:31:09	0	0	2,71168	2,34675	12,1104	-0,727	82,51	0	1010,26	5,8	7,8	7,8	1	1	1	1	1	1	1	1	1	0	1	-5,285412	273,200547	310,58527	0
15.01.2021	04:31:10	0	0	2,937671	2,3535	7,5132	-0,731	82,534	0	1010,06	5,8	7,8	7,7	1	1	1	1	1	1	1	1	1	0	1	-3,875969	273,210519	312,040831	0
15.01.2021	04:31:11	0	0	5,0844	2,44575	10,8324	-0,727	82,535	0	1010,34	5,8	7,8	7,8	1	1	1	1	1	1	1	1	1	0	1	-7,329105	273,150767	308,311421	0
15.01.2021	04:31:12	0	0	2,598693	2,478	15,4008	-0,732	82,533	0	1010,28	5,8	7,8	7,8	1	1	1	1	1	1	1	1	1	0	1	-3,875969	273,055833	311,32598	0
15.01.2021	04:31:13	0	0	3,615573	2,38875	15,03	-0,73	82,512	0	1010,12	5,8	7,8	7,8	1	1	1	1	1	1	1	1	1	0	1	-5,567301	273,157871	310,10606	0
15.01.2021	04:31:14	0	0	4,632453	2,3025	14,3028	-0,736	82,532	0	1010,06	5,8	7,8	7,8	1	1	1	1	1	1	1	1	1	0	1	-4,721635	273,23333	311,300687	0
15.01.2021	04:31:15	0	0	4,74544	2,35875	8,9964	-0,735	82,511	0	1010,16	5,8	7,8	7,8	1	1	1	1	1	1	1	1	1	0	1	-7,047216	273,155029	308,613009	0
15.01.2021	04:31:16	0	0	4,74544	2,412	17,2368	-0,73	82,54	0	1010,28	5,8	7,8	7,8	1	1	1	1	1	1	1	1	1	0	1	-5,990134	273,075631	309,303241	0
15.01.2021	04:31:17	0	0	2,71168	2,27025	16,8588	-0,727	82,532	0	1010,26	5,8	7,8	7,8	1	1	1	1	1	1	1	1	1	0	1	-3,171247	273,074217	312,115593	0
15.01.2021	04:31:18	0	0	3,163627	2,268	9,3708	-0,728	82,546	0	1010,22	5,8	7,8	7,8	1	1	1	1	1	1	1	1	1	0	1	-3,100775	273,21907	312,855578	0
15.01.2021	04:31:19	0	0	3,3896	2,43975	7,6068	-0,73	82,523	0	1010,28	5,8	7,8	7,8	1	1	1	1	1	1	1	1	1	0	1	-10,077519	273,074217	305,209321	0
15.01.2021	04:31:20	0	0	4,519467	2,76675	7,8912	-0,727	82,535	0	1010,3	5,8	7,8	7,8	1	1	1	1	1	1	1	1	1	0	1	-8,527132	273,201971	307,350137	0
15.01.2021	04:31:21	0	0	3,728582	2,847	12,8592	-0,727	82,543	0	1010,3	5,8	7,8	7,7	1	1	1	1	1	1	1	1	1	0	1	-8,386187	273,229051	307,616338	0
15.01.2021	04:31:22	0	0	3,72856	2,94225	18,09	-0,727	82,531	0	1010,18	5,8	7,8	7,8	1	1	1	1	1	1	1	1	1	0	1	-11,980268	273,157871	303,693093	0
15.01.2021	04:31:23	0	0	3,615573	2,99325	13,5396	-0,727	82,528	0	1010,28	5,8	7,8	7,8	1	1	1	1	1	1	1	1	1	0	1	-6,8358	273,231904	309,179923	0
15.01.2021	04:31:24	0	0	4,858427	3,15675	5,2236	-0,729	82,538	0	1010,22	5,8	7,8	7,8	1	1	1	1	1	1	1	1	1	0	1	-5,567301	273,08837	309,784908	0
15.01.2021	04:31:25	0	0	4,632453	3,31875	9,3636	-0,733	82,547	0	1010,36	5,8	7,8	7,8	1	1	1	1	1	1	1	1	1	0	1	-9,936575	273,230477	306,072548	0
15.01.2021	04:31:26	0	0	3,276613	3,255	11,718	-0,732	82,522	0	1010,1	5,8	7,8	7,8	1	1	1	1	1	1	1	1	1	0	1	-7,399577	273,190581	308,425016	0
15.01.2021	04:31:27	0	0	4,74544	3,06825	6,0732	-0,735	82,541	0	1010,22	5,8	7,8	7,8	1	1	1	1	1	1	1	1	1	0	1	-2,60747	273,16782	313,111885	0
15.01.2021	04:31:28	0	0	4,519494	2,93625	4,0896	-0,728	82,539	0	1010,26	5,8	7,8	7,7	1	1	1	1	1	1	1	1	1	0	1	-5,426357	273,226199	310,562974	0
15.01.2021	04:31:29	0	0	3,841547	2,8365	6,8292	-0,731	82,549	0	1010,26	5,8	7,8	7,8	1	1	1	1	1	1	1	1	1	0	1	-6,412967	273,08837	308,939242	0
15.01.2021	04:31:30	0	0	3,050658	2,80875	12,1068	-0,734	82,551	0	1010,22	5,8	7,8	7,7	1	1	1	1	1	1	1	1	1	0	1	-8,174771	273,118125	307,314902	0
15.01.2021	04:31:31	0	0	4,519467	2,66475	10,8072	-0,729	82,547	0	1010,36	5,8	7,8	7,8	1	1	1	1	1	1	1	1	1	0	1	-4,510218	273,240464	311,54511	0
15.01.2021	04:31:32	0	0	4,632481	2,64	6,426	-0,734	82,555	0	1010,16	5,8	7,8	7,7	1	1	1	1	1	1	1	1	1	0	1	-7,258633	273,203396	308,625223	0
15.01.2021	04:31:33	0	0	2,937653	2,751	3,0312	-0,73	82,56	0	1010,26	5,8	7,8	7,8	1	1	1	1	1	1	1	1	1	0	1	-8,315715	273,072802	306,964592	0
15.01.2021	04:31:34	0	0	3,954533	2,92725	10,062	-0,731	82,542	0	1010,26	5,8	7,8	7,8	1	1	1	1	1	1	1	1	1	0	1	-9,090909	273,23333	306,931413	0
15.01.2021	04:31:35	0	0	4,406506	3,093	13,1652	-0,73	82,558	0	1010,18	5,8	7,8	7,7	1	1	1	1	1	1	1	1	1	0	1	-3,735025	273,157871	311,938336	0
15.01.2021	04:31:36	0	0	4,519467	3,114	10,0584	-0,726	82,553	0	1010,22	5,8	7,8	7,8	1	1	1	1	1	1	1	1	1	0	1	-6,412967	273,221921	309,556575	0
15.01.2021	04:31:37	0	0	4,858427	3,08025	19,1448	-0,729	82,556	0	1010,3	5,8	7,8	7,8	1	1	1	1	1	1	1	1	1	0	1	-4,792107	273,06573	310,455541	0
15.01.2021	04:31:38	0	0	4,632453	2,89725	19,5192	-0,73	82,541	0	1010,14	5,8	7,8	7,8	1	1	1	1	1	1	1	1	1	0	1	-7,82241	273,123798	307,693476	0
15.01.2021	04:31:39	0	0	4,632453	2,8395	6,0732	-0,731	82,557	0	1010,22	5,8	7,8	7,8	1	1	1	1	1	1	1	1	1	0	1	-7,399577	273,216219	308,543589	0
15.01.2021	04:31:40	0	0	2,937671	2,7495	7,1316	-0,727	82,548	0	1010,1	5,8	7,8	7,7	1	1	1	1	1	1	1	1	1	0	1	-0,211416	273,08837	315,140793	0
15.01.2021	04:31:41	0	0	2,937653	2,62425	10,062	-0,731	82,56	0	1010,18	5,8	7,8	7,8	1	1	1	1	1	1	1	1	1	0	1	-8,80902	273,084123	306,523572	0
15.01.2021	04:31:42	0	0	4,067544	2,6805	357,264	-0,729	82,546	0	1010,22	5,8	7,8	7,7	1	1	1	1	1	1	1	1	1	0	1	-4,510218	273,203396	311,373637	0
15.01.2021	04:31:43	0	0	3,615573	2,7795	7,5312	-0,731	82,566	0	1010,34	5,8	7,8	7,8	1	1	1	1	1	1	1	1	1	0	1	-2,536998	273,170664	313,195503	0
15.01.2021	04:31:44	0	0	4,519467	2,6865	10,4544	-0,731	82,556	0	1010,18	5,8	7,8	7,8	1	1	1	1	1	1	1	1	1	0	1	-6,624383	273,21907	309,33197	0
15.01.2021	04:31:45	0	0	5,197387	2,658	0	-0,735	82,544	0	1010,16	5,8	7,8	7,8	1	1	1	1	1	1	1	1	1	0	1	-3,100775	273,145086	312,513493	0
15.01.2021	04:31:46	0	0	4,858427	2,52375	14,6664	-0,727	82,563	0	1010,34	5,8	7,8	7,8	1	1	1	1	1	1	1	1	1	0	1	-7,329105	273,05442	307,866318	0
15.01.2021	04:31:47	0	0	3,163646	2,4465	8,2692	-0,738	82,559	0	1010,22	5,8	7,8	7,7	1	1	1	1	1	1	1	1	1	0	1	-3,453136	273,075631	311,840239	0
15.01.2021	04:31:48	0	0	3,502587	2,3655	14,652	-0,729	82,571	0	1010,28	5,8	7,8	7,8	1	1	1	1	1	1	1	1	1	0	1	-4,157858	273,057247	311,050618	0
15.01.2021	04:31:49	0	0	2,824667	2,24325	15,4152	-0,732	82,563	0	1010,22	5,8	7,8	7,8	1	1	1	1	1	1	1	1	1	0	1	-0	273,060074	315,221531	0
15.01.2021	04:31:50	0	0	4,180507	2,241	10,062	-0,728	82,541	0	1010,1	5,8	7,8	7,8	1	1	1	1	1	1	1	1	1	0	1	-3,875969	273,136568	311,69893	0
15.01.2021	04:31:51	0	0	3,954557	2,391	26,5248	-0,729	82,556	0	1010,24	5,8	7,8	7,7	1	1	1	1	1	1	1	1	1	0	1	-1,338971	273,064316	313,902147	0
15.01.2021	04:31:52	0	0	3,615595	2,41425	27,9612	-0,729	82,561	0	1010,22	5,8	7,8	7,7	1	1	1	1	1	1	1	1	1	0	1	-8,104299	273,190581	307,720294	0
15.01.2021	04:31:53	0	0	4,632481	2,3025	12,1032	-0,733	82,568	0	1010,18	5,8	7,8	7,7	1	1	1	1	1	1	1	1	1	0	1	-6,342495	273,108201	309,101328	0
15.01.2021	04:31:54	0	0	4,971413	2,3025	25,4232	-0,736	82,543	0	1010,26	5,8	7,8	7,8	1	1	1	1	1	1	1	1	1	0	1	-0,070472	273,053007	315,118426	0
15.01.2021	04:31:55	0	0	4,293493	2,4555	22,1652	-0,729	82,565	0	1010,28	5,8	7,8	7,8	1	1	1	1	1	1	1	1	1	0	1	-5,003524	273,094034	310,374849	0
15.01.2021	04:31:56	0	0	4,632481	2,57025	19,9008	-0,738	82,557	0	1010,06	5,8	7,8	7,7	1	1	1	1	1	1	1	1	1	0	1	-5,285412	273,164977	310,420799	0
15.01.2021	04:31:57	0	0	2,824667	2,68875	19,53	-0,731	82,577	0	1010,2	5,8	7,8	7,8	1	1	1	1	1	1	1	1	1	0	1	-4,651163	273,048768	310,518162	0
15.01.2021	04:31:58	0	0	4,858427	2,8545	23,5872	-0,734	82,569	0	1010,16	5,7	7,8	7,8	1	1	1	1	1	1	1	1	1	0	1	-6,694856	273,123798	308,82103	0
15.01.2021	04:31:59	0	0	4,632453	2,937	17,3448	-0,732	82,572	0	1010,2	5,8	7,7	7,8	1	1	1	1	1	1	1	1	1	0	1	-5,708245	273,226199	310,281085	0
15.01.2021	04:32:00	0	0	3,84157	2,66925	16,4808	-0,726	82,564	0	1010,14	5,8	7,8	7,7	1	1	1	1	1	1	1	1	1	0	1	-5,355884	273,234757	310,673038	0
15.01.2021	04:32:01	0	0	3,84157	2,66925	16,4808	-0,726	82,564	0	1010,14	5,8	7,8	7,7	1	1	1	1	1	1	1	1	1	0	1	-5,355884	273,234757	310,673038	0
15.01.2021	04:32:02	0	0	3,84157	2,48625	18,0864	-0,741	82,57	0	1010,22	5,8	7,8	7,7	1	1	1	1	1	1	1	1	1	0	1	-5,567301	273,184888	310,230968	0
15.01.2021	04:32:03	0	0	2,598709	2,4735	21,0204	-0,732	82,579	0	1010,12	5,8	7,8	7,7	1	1	1	1	1	1	1	1	1	0	1	-6,624383	273,109619	308,825988	0
15.01.2021	04:32:04	0	0	2,711696	2,4735	19,1448	-0,73	82,571	0	1010,2	5,8	7,8	7,7	1	1	1	1	1	1	1	1	1	0	1	-4,298802	273,048768	310,870523	0
15.01.2021	04:32:05	0	0	3,502608	2,60775	10,4508	-0,737	82,563	0	1010,2	5,8	7,8	7,7	1	1	1	1	1	1	1	1	1	0	1	-7,892882	273,162134	307,800187	0
15.01.2021	04:32:06	0	0	3,38962	2,5035	25,794	-0,729	82,566	0	1010,2	5,7	7,8	7,7	1	1	1	1	1	1	1	1	1	0	1	-7,399577	273,159292	308,280352	0
15.01.2021	04:32:07	0	0	3,502608	2,46225	6,0732	-0,73	82,561	0	1010,1	5,8	7,7	7,7	1	1	1	1	1	1	1	1	1	0	1	-2,959831	273,045942	312,196448	0
15.01.2021	04:32:08	0	0	3,05064	2,46	7,8876	-0,738	82,57	0	1010,2	5,8	7,8	7,8	1	1	1	1	1	1	1	1	1	0	1	-2,889359	273,081292	312,430159	0
15.01.2021	04:32:09	0	0	3,3896	2,3145	4,1112	-0,73	82,578	0	1010,22	5,8	7,8	7,8	1	1	1	1	1	1	1	1	1	0	1	-5,919662	273,051594	309,262711	0
15.01.2021	04:32:10	0	0	5,197387	2,1375	14,3028	-0,732	82,563	0	1010,14	5,8	7,8	7,8	1	1	1	1	1	1	1	1	1	0	1	-5,84919	273,118125	309,640483	0
15.01.2021	04:32:11	0	0	4,858456	2,14275	23,9688	-0,737	82,57	0	1010,24	5,8	7,8	7,7	1	1	1	1	1	1	1	1	1	0	1	-6,906272	273,23333	309,11605	0
15.01.2021	04:32:12	0	0	4,180507	2,50125	6,8292	-0,732	82,577	0	1010,14	5,8	7,8	7,8	1	1	1	1	1	1	1	1	1	0	1	-4,087385	273,075631	311,205989	0
15.01.2021	04:32:13	0	0	4,06752	2,7675	4,4712	-0,734	82,561	0	1010,2	5,8	7,8	7,8	1	1	1	1	1	1	1	1	1	0	1	-8,245243	273,102533	307,172393	0
15.01.2021	04:32:14	0	0	2,937671	2,6415	12,8628	-0,734	82,579	0	1010,26	5,8	7,8	7,7	1	1	1	1	1	1	1	1	1	0	1	-8,527132	273,246173	307,554613	0
15.01.2021	04:32:15	0	0	2,937671	2,60475	17,7012	-0,732	82,578	0	1010,06	5,8	7,8	7,7	1	1	1	1	1	1	1	1	1	0	1	-3,24172	273,074217	312,045121	0
15.01.2021	04:32:16	0	0	3,502587	2,62725	16,488	-0,739	82,575	0	1010,18	5,8	7,8	7,8	1	1	1	1	1	1	1	1	1	0	1	-9,725159	273,221921	306,244384	0
15.01.2021	04:32:17	0	0	3,163646	2,95725	26,9064	-0,736	82,585	0	1010,14	5,8	7,8	7,7	1	1	1	1	1	1	1	1	1	0	1	-9,654686	273,129473	305,887422	0
15.01.2021	04:32:18	0	0	4,293493	2,92125	10,818	-0,734	82,588	0	1010,38	5,8	7,8	7,8	1	1	1	1	1	1	1	1	1	0	1	-7,329105	273,082707	307,99695	0
15.01.2021	04:32:19	0	0	2,598693	2,985	7,8912	-0,731	82,594	0	1010,12	5,8	7,8	7,8	1	1	1	1	1	1	1	1	1	0	1	-6,483439	273,03182	308,607647	0
15.01.2021	04:32:20	0	0	4,067544	2,958	16,092	-0,738	82,583	0	1010,22	5,8	7,8	7,7	1	1	1	1	1	1	1	1	1	0	1	-4,369274	273,109619	311,081097	0
15.01.2021	04:32:21	0	0	2,71168	2,86125	15,408	-0,73	82,595	0	1010,2	5,8	7,8	7,8	1	1	1	1	1	1	1	1	1	0	1	-9,231853	273,216219	306,711313	0
15.01.2021	04:32:22	0	0	3,84157	2,667	42,2064	-0,741	82,588	0	1010,2	5,8	7,8	7,7	1	1	1	1	1	1	1	1	1	0	1	-10,993658	273,09545	304,391258	0
15.01.2021	04:32:23	0	0	4,180532	2,38425	7,1424	-0,741	82,579	0	1010,2	5,8	7,9	7,7	1	1	1	1	1	1	1	1	1	0	1	-11,909796	273,146506	303,711036	0
15.01.2021	04:32:24	0	0	3,050658	2,4075	16,8444	-0,735	82,586	0	1010,14	5,8	7,8	7,7	1	1	1	1	1	1	1	1	1	0	1	-6,060606	273,047355	309,102196	0
15.01.2021	04:32:25	0	0	4,519494	2,5635	28,3428	-0,734	82,591	0	1010,18	5,8	7,7	7,7	1	1	1	1	1	1	1	1	1	0	1	-5,84919	273,203396	310,034666	0
15.01.2021	04:32:26	0	0	5,084431	2,6205	17,244	-0,735	82,601	0	1010,24	5,7	7,8	7,7	1	1	1	1	1	1	1	1	1	0	1	-7,258633	273,092618	308,113198	0
15.01.2021	04:32:27	0	0	2,485722	2,57175	20,2824	-0,732	82,597	0	1010,24	5,8	7,8	7,7	1	1	1	1	1	1	1	1	1	0	1	-3,664553	273,081292	311,654965	0
15.01.2021	04:32:28	0	0	2,711696	2,5605	37,998	-0,735	82,598	0	1010,1	5,8	7,8	7,7	1	1	1	1	1	1	1	1	1	0	1	-9,302326	273,061488	305,925734	0
15.01.2021	04:32:29	0	0	5,310405	2,42175	33,9444	-0,74	82,602	0	1010,12	5,8	7,8	7,7	1	1	1	1	1	1	1	1	1	0	1	-8,668076	273,184888	307,130193	0
15.01.2021	04:32:30	0	0	3,502608	2,39925	23,5944	-0,735	82,603	0	1010,2	5,8	7,7	7,7	1	1	1	1	1	1	1	1	1	0	1	-10,641297	273,206245	305,255735	0
15.01.2021	04:32:31	0	0	3,728582	2,28075	33,642	-0,739	82,601	0	1010,26	5,8	7,8	7,7	1	1	1	1	1	1	1	1	1	0	1	-7,329105	273,226199	308,660225	0
15.01.2021	04:32:32	0	0	4,067544	2,12625	19,5408	-0,735	82,598	0	1010,08	5,8	7,8	7,7	1	1	1	1	1	1	1	1	1	0	1	-7,329105	273,145086	308,285163	0
15.01.2021	04:32:33	0	0	4,971443	2,08275	25,7796	-0,711	82,613	0	1010,34	5,7	7,8	7,7	1	1	1	1	1	1	1	1	1	0	1	-10,077519	273,227625	305,918408	0
15.01.2021	04:32:34	0	0	2,937671	1,9275	14,3208	-0,731	82,607	0	1010,14	5,7	7,7	7,7	1	1	1	1	1	1	1	1	1	0	1	-10,42988	273,071387	304,843894	0
15.01.2021	04:32:35	0	0	4,067544	1,8615	12,5712	-0,737	82,61	0	1010,08	5,7	7,8	7,7	1	1	1	1	1	1	1	1	1	0	1	-5,144468	273,08837	310,207741	0
15.01.2021	04:32:36	0	0	2,937671	1,86975	29,1096	-0,728	82,598	0	1010,26	5,8	7,8	7,7	1	1	1	1	1	1	1	1	1	0	1	-6,624383	273,06573	308,623264	0
15.01.2021	04:32:37	0	0	3,3896	1,977	27,9684	-0,734	82,6	0	1010,18	5,8	7,8	7,8	1	1	1	1	1	1	1	1	1	0	1	-9,090909	273,213369	306,839073	0
15.01.2021	04:32:38	0	0	4,406506	1,96425	15,7896	-0,738	82,606	0	1010,24	5,8	7,8	7,7	1	1	1	1	1	1	1	1	1	0	1	-7,470049	273,047355	307,692752	0
15.01.2021	04:32:39	0	0	4,971443	2,04525	24,3432	-0,732	82,607	0	1010,3	5,7	7,7	7,7	1	1	1	1	1	1	1	1	1	0	1	-6,412967	273,128054	309,122585	0
15.01.2021	04:32:40	0	0	4,632481	2,0775	23,22	-0,733	82,606	0	1010,22	5,8	7,8	7,7	1	1	1	1	1	1	1	1	1	0	1	-5,567301	273,05442	309,628122	0
15.01.2021	04:32:41	0	0	2,824684	2,19525	49,9644	-0,733	82,597	0	1010,18	5,8	7,8	7,7	1	1	1	1	1	1	1	1	1	0	1	-12,191684	273,21907	303,764669	0
15.01.2021	04:32:42	0	0	3,163646	2,229	12,4776	-0,739	82,604	0	1010,08	5,7	7,8	7,7	1	1	1	1	1	1	1	1	1	0	1	-8,45666	273,159292	307,22327	0
15.01.2021	04:32:43	0	0	2,824684	2,2785	19,1628	-0,732	82,611	0	1010,4	5,8	7,8	7,7	1	1	1	1	1	1	1	1	1	0	1	-4,580691	273,220495	311,382257	0
15.01.2021	04:32:44	0	0	2,937671	2,23125	22,4604	-0,734	82,592	0	1010,2	5,7	7,7	7,7	1	1	1	1	1	1	1	1	1	0	1	-7,329105	273,075631	307,96427	0
15.01.2021	04:32:45	0	0	4,406506	2,433	4,4748	-0,734	82,61	0	1010,28	5,8	7,8	7,7	1	1	1	1	1	1	1	1	1	0	1	-5,003524	273,216219	310,939643	0
15.01.2021	04:32:46	0	0	4,858456	2,68425	6,444	-0,736	82,595	0	1010,16	5,8	7,8	7,7	1	1	1	1	1	1	1	1	1	0	1	-6,412967	273,075631	308,880408	0
15.01.2021	04:32:47	0	0	3,163646	2,679	14,7564	-0,738	82,616	0	1010,42	5,7	7,8	7,7	1	1	1	1	1	1	1	1	1	0	1	-4,087385	273,116707	311,395736	0
15.01.2021	04:32:48	0	0	3,502608	2,53125	22,8492	-0,738	82,595	0	1010,1	5,8	7,8	7,7	1	1	1	1	1	1	1	1	1	0	1	-7,188161	273,223347	308,787977	0
15.01.2021	04:32:49	0	0	5,084431	2,391	8,2656	-0,734	82,614	0	1010,36	5,7	7,8	7,7	1	1	1	1	1	1	1	1	1	0	1	-3,735025	273,189157	312,082986	0
15.01.2021	04:32:50	0	0	2,711696	2,3175	19,9044	-0,736	82,62	0	1010,18	5,7	7,7	7,7	1	1	1	1	1	1	1	1	1	0	1	-5,426357	273,146506	310,194475	0
15.01.2021	04:32:51	0	0	4,293519	2,2155	2,3076	-0,732	82,617	0	1010,36	5,7	7,8	7,7	1	1	1	1	1	1	1	1	1	0	1	-6,272023	273,053007	308,916875	0
15.01.2021	04:32:52	0	0	3,84157	2,1645	10,4544	-0,735	82,59	0	1010,22	5,7	7,8	7,7	1	1	1	1	1	1	1	1	1	0	1	-8,949965	273,081292	306,369553	0
15.01.2021	04:32:53	0	0	3,954557	2,09625	17,7012	-0,733	82,601	0	1010,18	5,7	7,8	7,7	1	1	1	1	1	1	1	1	1	0	1	-7,399577	273,15645	308,267215	0
15.01.2021	04:32:54	0	0	4,519494	2,181	15,7932	-0,732	82,605	0	1010,18	5,7	7,7	7,7	1	1	1	1	1	1	1	1	1	0	1	-7,047216	273,214794	308,889358	0
15.01.2021	04:32:55	0	0	3,163646	2,271	16,1136	-0,734	82,609	0	1010,18	5,7	7,8	7,7	1	1	1	1	1	1	1	1	1	0	1	-9,795631	273,085538	305,5435	0
15.01.2021	04:32:56	0	0	4,180532	2,42925	3,0312	-0,737	82,604	0	1010,16	5,8	7,8	7,7	1	1	1	1	1	1	1	1	1	0	1	-4,22833	273,216219	311,714837	0
15.01.2021	04:32:57	0	0	4,858456	2,6385	13,194	-0,734	82,597	0	1010,28	5,7	7,8	7,7	1	1	1	1	1	1	1	1	1	0	1	-11,557435	273,113871	303,912585	0
15.01.2021	04:32:58	0	0	3,728582	2,86425	12,1104	-0,739	82,601	0	1010,28	5,7	7,8	7,7	1	1	1	1	1	1	1	1	1	0	1	-11,205074	273,053007	303,983824	0
15.01.2021	04:32:59	0	0	3,050658	2,90925	4,1004	-0,736	82,599	0	1010,14	5,7	7,8	7,7	1	1	1	1	1	1	1	1	1	0	1	-7,751938	273,028997	307,326116	0
15.01.2021	04:33:00	0	0	3,954557	2,847	1,278	-0,736	82,622	0	1010,14	5,7	7,7	7,7	1	1	1	1	1	1	1	1	1	0	1	-9,161381	273,166398	306,551401	0
15.01.2021	04:33:01	0	0	3,954557	2,847	1,278	-0,736	82,622	0	1010,14	5,7	7,7	7,7	1	1	1	1	1	1	1	1	1	0	1	-9,161381	273,166398	306,551401	0
15.01.2021	04:33:02	0	0	3,163646	2,85375	358,3656	-0,736	82,614	0	1010,4	5,7	7,8	7,7	1	1	1	1	1	1	1	1	1	0	1	-3,59408	273,194851	312,250261	0
15.01.2021	04:33:03	0	0	2,937671	3,01875	0,864	-0,737	82,605	0	1010,16	5,8	7,7	7,7	1	1	1	1	1	1	1	1	1	0	1	-7,82241	273,150767	307,818115	0
15.01.2021	04:33:04	0	0	2,485722	3,024	358,3728	-0,734	82,607	0	1010,24	5,7	7,7	7,7	1	1	1	1	1	1	1	1	1	0	1	-4,439746	273,239037	311,60898	0
15.01.2021	04:33:05	0	0	3,276633	2,8305	25,4016	-0,742	82,62	0	1010,1	5,7	7,7	7,7	1	1	1	1	1	1	1	1	1	0	1	-3,100775	273,190581	312,723818	0
15.01.2021	04:33:06	0	0	4,632481	2,7165	22,4892	-0,732	82,625	0	1010,2	5,7	7,8	7,7	1	1	1	1	1	1	1	1	1	0	1	-4,369274	273,224773	311,613459	0
15.01.2021	04:33:07	0	0	4,067544	2,62275	19,4976	-0,738	82,619	0	1010,26	5,7	7,7	7,7	1	1	1	1	1	1	1	1	1	0	1	-6,342495	273,0997	309,062051	0
15.01.2021	04:33:08	0	0	4,858456	2,56875	356,6628	-0,738	82,624	0	1010,28	5,9	7,8	7,7	1	1	1	1	1	1	1	1	1	0	1	-6,624383	273,236183	309,41114	0
15.01.2021	04:33:09	0	0	3,38962	2,59575	6,0444	-0,732	82,608	0	1010,14	5,7	7,7	7,7	1	1	1	1	1	1	1	1	1	0	1	-4,22833	273,15645	311,438463	0
15.01.2021	04:33:10	0	0	4,067544	2,8665	16,0956	-0,738	82,621	0	1010,3	5,8	7,7	7,7	1	1	1	1	1	1	1	1	1	0	1	-4,862579	273,221921	311,106963	0
15.01.2021	04:33:11	0	0	3,615595	3,1875	18,4392	-0,737	82,621	0	1010,06	5,7	7,7	7,7	1	1	1	1	1	1	1	1	1	0	1	-5,990134	273,203396	309,893722	0
15.01.2021	04:33:12	0	0	2,711696	3,2325	17,712	-0,736	82,628	0	1010,2	5,7	7,7	7,7	1	1	1	1	1	1	1	1	1	0	1	-5,637773	273,112454	309,825696	0
15.01.2021	04:33:13	0	0	2,824684	3,13425	12,4884	-0,725	82,619	0	1010,24	5,7	7,8	7,7	1	1	1	1	1	1	1	1	1	0	1	-4,369274	273,044529	310,780483	0
15.01.2021	04:33:14	0	0	4,971443	2,95125	19,8936	-0,738	82,608	0	1010	5,7	7,7	7,7	1	1	1	1	1	1	1	1	1	0	1	-5,637773	273,119543	309,858452	0
15.01.2021	04:33:15	0	0	4,180532	2,80575	16,1064	-0,744	82,626	0	1010,26	5,7	7,8	7,7	1	1	1	1	1	1	1	1	1	0	1	-2,396054	273,227625	313,599874	0
15.01.2021	04:33:16	0	0	4,180532	2,79075	3,0312	-0,735	82,629	0	1010,28	5,7	7,7	7,7	1	1	1	1	1	1	1	1	1	0	1	-7,047216	273,184888	308,751053	0
15.01.2021	04:33:17	0	0	4,293519	3,25575	9,7668	-0,738	82,624	0	1010,24	5,7	7,7	7,7	1	1	1	1	1	1	1	1	1	0	1	-5,21494	273,067144	310,039238	0
15.01.2021	04:33:18	0	0	2,824684	3,6	10,0548	-0,735	82,643	0	1010,4	5,7	7,7	7,7	1	1	1	1	1	1	1	1	1	0	1	-9,936575	273,045942	305,219704	0
15.01.2021	04:33:19	0	0	3,05064	3,71325	12,9528	-0,742	82,64	0	1010,28	5,7	7,8	7,8	1	1	1	1	1	1	1	1	1	0	1	-2,677942	273,18062	313,10059	0
15.01.2021	04:33:20	0	0	4,519494	3,69525	10,8108	-0,738	82,653	0	1010,24	5,8	7,7	7,7	1	1	1	1	1	1	1	1	1	0	1	-3,24172	273,203396	312,642136	0
15.01.2021	04:33:21	0	0	3,276633	3,50025	14,2992	-0,736	82,622	0	1010,08	5,7	7,8	7,7	1	1	1	1	1	1	1	1	1	0	1	-8,879493	273,217644	307,070267	0
15.01.2021	04:33:22	0	0	3,502608	3,588	8,6184	-0,739	82,644	0	1010,3	5,7	7,7	7,7	1	1	1	1	1	1	1	1	1	0	1	-6,272023	273,159292	309,407907	0
15.01.2021	04:33:23	0	0	3,050658	3,77325	12,8592	-0,733	82,642	0	1010,3	5,7	7,7	7,7	1	1	1	1	1	1	1	1	1	0	1	-9,44327	273,176352	306,315531	0
15.01.2021	04:33:24	0	0	4,858456	3,417	15,7932	-0,734	82,64	0	1010,28	5,7	7,7	7,7	1	1	1	1	1	1	1	1	1	0	1	-6,553911	273,220495	309,409036	0
15.01.2021	04:33:25	0	0	2,937671	3,0855	15,4188	-0,731	82,642	0	1010,34	5,7	7,8	7,7	1	1	1	1	1	1	1	1	1	0	1	-5,637773	273,15645	310,02902	0
15.01.2021	04:33:26	0	0	5,197418	2,9985	16,11	-0,738	82,625	0	1010,18	5,7	7,7	7,7	1	1	1	1	1	1	1	1	1	0	1	-4,016913	273,210519	311,899887	0
15.01.2021	04:33:27	0	0	4,519494	2,928	21,7728	-0,742	82,633	0	1010,06	5,7	7,7	7,7	1	1	1	1	1	1	1	1	1	0	1	-6,272023	273,184888	309,526247	0
15.01.2021	04:33:28	0	0	4,293519	2,80875	26,5248	-0,736	82,642	0	1010,24	5,7	7,7	7,7	1	1	1	1	1	1	1	1	1	0	1	-4,933051	273,0997	310,471494	0
15.01.2021	04:33:29	0	0	3,276633	2,59275	10,836	-0,738	82,646	0	1010,3	5,7	7,7	7,7	1	1	1	1	1	1	1	1	1	0	1	-6,8358	273,037468	308,281356	0
15.01.2021	04:33:30	0	0	3,38962	2,655	18,0792	-0,737	82,654	0	1010,1	5,8	7,7	7,7	1	1	1	1	1	1	1	1	1	0	1	-4,651163	273,170664	311,081339	0
15.01.2021	04:33:31	0	0	3,84157	2,808	25,0452	-0,735	82,636	0	1010,22	5,8	7,7	7,7	1	1	1	1	1	1	1	1	1	0	1	-2,60747	273,162134	313,085599	0
15.01.2021	04:33:32	0	0	3,728582	2,955	20,286	-0,738	82,647	0	1010,22	5,7	7,7	7,7	1	1	1	1	1	1	1	1	1	0	1	-6,694856	273,21907	309,261497	0
15.01.2021	04:33:33	0	0	5,197418	3,0345	6,8148	-0,736	82,643	0	1010,08	5,7	7,7	7,7	1	1	1	1	1	1	1	1	1	0	1	-4,721635	273,079877	310,591346	0
15.01.2021	04:33:34	0	0	2,937671	3,2235	10,4472	-0,734	82,626	0	1010,08	5,7	7,7	7,7	1	1	1	1	1	1	1	1	1	0	1	-4,721635	273,189157	311,096376	0
15.01.2021	04:33:35	0	0	2,937671	3,46575	16,11	-0,734	82,65	0	1010,3	5,7	7,7	7,7	1	1	1	1	1	1	1	1	1	0	1	-6,906272	273,034644	308,197848	0
15.01.2021	04:33:36	0	0	4,406506	3,73275	25,0416	-0,735	82,631	0	1010,14	5,7	7,7	7,7	1	1	1	1	1	1	1	1	1	0	1	-1,973221	273,143666	313,634485	0
15.01.2021	04:33:37	0	0	3,163627	3,624	9,8496	-0,74	82,648	0	1010,24	5,7	7,7	7,8	1	1	1	1	1	1	1	1	1	0	1	-8,315715	273,05018	306,860133	0
15.01.2021	04:33:38	0	0	4,180532	3,55875	33,642	-0,74	82,644	0	1010,16	5,7	7,8	7,7	1	1	1	1	1	1	1	1	1	0	1	-7,470049	273,140827	308,124532	0
15.01.2021	04:33:39	0	0	3,502608	3,5055	24,7248	-0,739	82,653	0	1010,28	5,7	7,7	7,7	1	1	1	1	1	1	1	1	1	0	1	-5,003524	273,062902	310,231065	0
15.01.2021	04:33:40	0	0	3,615595	3,282	23,2128	-0,738	82,655	0	1010,04	5,7	7,7	7,7	1	1	1	1	1	1	1	1	1	0	1	-5,496829	273,034644	309,607291	0
15.01.2021	04:33:41	0	0	3,276633	3,069	26,8992	-0,737	82,651	0	1010,22	5,7	7,7	7,7	1	1	1	1	1	1	1	1	1	0	1	-2,114165	273,086954	313,231505	0
15.01.2021	04:33:42	0	0	3,615595	2,817	17,7156	-0,738	82,651	0	1010,14	5,7	7,7	7,7	1	1	1	1	1	1	1	1	1	0	1	-5,567301	273,061488	309,660758	0
15.01.2021	04:33:43	0	0	4,293519	2,60475	36,918	-0,734	82,655	0	1010,2	5,7	7,7	7,7	1	1	1	1	1	1	1	1	1	0	1	-7,117689	273,053007	308,071209	0
15.01.2021	04:33:44	0	0	4,745468	2,44725	20,2896	-0,743	82,639	0	1010	5,7	7,7	7,7	1	1	1	1	1	1	1	1	1	0	1	-6,272023	273,120961	309,230756	0
15.01.2021	04:33:45	0	0	2,372734	2,40825	10,0728	-0,736	82,645	0	1010,3	5,7	7,7	7,7	1	1	1	1	1	1	1	1	1	0	1	-3,453136	273,051594	311,729237	0
15.01.2021	04:33:46	0	0	3,728582	2,64975	6,4404	-0,737	82,658	0	1010,36	5,7	7,7	7,7	1	1	1	1	1	1	1	1	1	0	1	-6,483439	273,036056	308,627199	0
15.01.2021	04:33:47	0	0	3,615595	2,853	9,3744	-0,734	82,664	0	1010,3	5,7	7,7	7,7	1	1	1	1	1	1	1	1	1	0	1	-7,892882	273,105367	307,537846	0
15.01.2021	04:33:48	0	0	3,050658	3,01125	11,718	-0,733	82,653	0	1010,28	5,7	7,7	7,7	1	1	1	1	1	1	1	1	1	0	1	-1,479915	273,051594	313,702457	0
15.01.2021	04:33:49	0	0	2,824684	2,93625	18,0864	-0,738	82,655	0	1010,26	5,7	7,8	7,7	1	1	1	1	1	1	1	1	1	0	1	-6,483439	273,160713	309,20306	0
15.01.2021	04:33:50	0	0	2,485722	2,865	353,2968	-0,739	82,656	0	1010,16	5,7	7,7	7,7	1	1	1	1	1	1	1	1	1	0	1	-5,84919	273,207669	310,054431	0
15.01.2021	04:33:51	0	0	2,937671	2,77425	360	-0,743	82,646	0	1010,04	5,7	7,7	7,7	1	1	1	1	1	1	1	1	1	0	1	-6,694856	273,221921	309,274687	0
15.01.2021	04:33:52	0	0	3,050658	2,88075	9,3708	-0,742	82,64	0	1010,32	5,7	7,8	7,7	1	1	1	1	1	1	1	1	1	0	1	-1,409443	273,068558	313,851267	0
15.01.2021	04:33:53	0	0	3,050658	2,835	11,7144	-0,736	82,662	0	1010,12	5,7	7,7	7,7	1	1	1	1	1	1	1	1	1	0	1	-1,902748	273,207669	314,000872	0
15.01.2021	04:33:54	0	0	3,502608	2,81925	12,852	-0,737	82,634	0	1010,18	5,7	7,8	7,7	1	1	1	1	1	1	1	1	1	0	1	-6,8358	273,026174	308,229225	0
15.01.2021	04:33:55	0	0	4,632481	2,91975	9,0036	-0,743	82,652	0	1010,28	5,7	7,7	7,7	1	1	1	1	1	1	1	1	1	0	1	-3,664553	273,118125	311,825121	0
15.01.2021	04:33:56	0	0	3,163646	2,91825	13,9428	-0,742	82,644	0	1010,28	5,7	7,8	7,7	1	1	1	1	1	1	1	1	1	0	1	-5,285412	273,214794	310,651162	0
15.01.2021	04:33:57	0	0	3,615595	2,78025	359,8524	-0,741	82,642	0	1010,1	5,7	7,7	7,7	1	1	1	1	1	1	1	1	1	0	1	-5,144468	273,057247	310,064008	0
15.01.2021	04:33:58	0	0	4,180532	2,76525	3,4056	-0,739	82,656	0	1010,18	5,7	7,7	7,7	1	1	1	1	1	1	1	1	1	0	1	-2,677942	273,150767	312,962583	0
15.01.2021	04:33:59	0	0	3,38962	2,76225	16,8552	-0,738	82,653	0	1010,24	5,7	7,7	7,7	1	1	1	1	1	1	1	1	1	0	1	-2,325581	273,209094	313,584629	0
15.01.2021	04:34:00	0	0	3,728582	2,7945	18,8424	-0,746	82,644	0	1010,24	5,7	7,7	7,7	1	1	1	1	1	1	1	1	1	0	1	-5,778717	273,210519	310,138083	0
15.01.2021	04:34:01	0	0	3,728582	2,7945	18,8424	-0,746	82,644	0	1010,24	5,7	7,7	7,7	1	1	1	1	1	1	1	1	1	0	1	-5,778717	273,210519	310,138083	0
15.01.2021	04:34:02	0	0	3,615595	2,91675	359,5896	-0,738	82,638	0	1010,26	5,7	7,7	7,7	1	1	1	1	1	1	1	1	1	0	1	-6,20155	273,270457	309,99257	0
15.01.2021	04:34:03	0	0	4,745468	3,4215	4,0932	-0,742	82,641	0	1010,28	5,7	7,7	7,7	1	1	1	1	1	1	1	1	1	0	1	-2,60747	273,071387	312,666304	0
15.01.2021	04:34:04	0	0	4,293519	3,85725	11,1924	-0,741	82,66	0	1010,48	5,7	7,7	7,7	1	1	1	1	1	1	1	1	1	0	1	-4,439746	273,210519	311,477054	0
15.01.2021	04:34:05	0	0	4,745468	4,1265	5,2092	-0,747	82,643	0	1010,02	5,7	7,7	7,7	1	1	1	1	1	1	1	1	1	0	1	-2,536998	273,143666	313,070707	0
15.01.2021	04:34:06	0	0	2,598709	4,131	7,1316	-0,739	82,651	0	1010,2	5,7	7,7	7,7	1	1	1	1	1	1	1	1	1	0	1	-7,117689	273,062902	308,1169	0
15.01.2021	04:34:07	0	0	4,745468	4,04325	8,748	-0,739	82,655	0	1010,4	5,7	7,7	7,7	1	1	1	1	1	1	1	1	1	0	1	-3,805497	273,214794	312,131077	0
15.01.2021	04:34:08	0	0	3,276633	3,834	10,0656	-0,746	82,644	0	1010,24	5,7	7,7	7,7	1	1	1	1	1	1	1	1	1	0	1	-5,990134	273,123798	309,525752	0
15.01.2021	04:34:09	0	0	3,728582	3,6555	19,1556	-0,738	82,652	0	1010,3	5,7	7,7	7,7	1	1	1	1	1	1	1	1	1	0	1	-3,382664	273,028997	311,69539	0
15.01.2021	04:34:10	0	0	3,163646	3,8175	15,0444	-0,742	82,655	0	1010,22	5,8	7,7	7,7	1	1	1	1	1	1	1	1	1	0	1	-5,919662	273,077046	309,380248	0
15.01.2021	04:34:11	0	0	3,954557	3,71775	13,5576	-0,735	82,656	0	1010,22	5,8	7,7	7,7	1	1	1	1	1	1	1	1	1	0	1	-4,580691	273,113871	310,889329	0
15.01.2021	04:34:12	0	0	3,050658	3,55275	10,8108	-0,738	82,634	0	1010,16	5,7	7,7	7,7	1	1	1	1	1	1	1	1	1	0	1	-8,315715	273,214794	307,620859	0
15.01.2021	04:34:13	0	0	3,163646	3,3975	10,4364	-0,741	82,644	0	1010,2	5,7	7,7	7,7	1	1	1	1	1	1	1	1	1	0	1	-3,030303	273,041704	312,106412	0
15.01.2021	04:34:14	0	0	5,423393	3,24825	9,0144	-0,743	82,642	0	1010,24	5,8	7,7	7,7	1	1	1	1	1	1	1	1	1	0	1	-6,20155	273,173508	309,5441	0
15.01.2021	04:34:15	0	0	2,824684	3,15975	7,524	-0,744	82,644	0	1010,22	5,7	7,7	7,7	1	1	1	1	1	1	1	1	1	0	1	-2,677942	273,226199	313,311388	0
15.01.2021	04:34:16	0	0	4,971443	3,3495	10,8216	-0,745	82,651	0	1010,24	5,7	7,7	7,7	1	1	1	1	1	1	1	1	1	0	1	-10,288936	273,182042	305,496175	0
15.01.2021	04:34:17	0	0	3,050658	3,525	8,2656	-0,744	82,633	0	1010,26	5,7	7,7	7,7	1	1	1	1	1	1	1	1	1	0	1	-7,329105	273,111036	308,127815	0
15.01.2021	04:34:18	0	0	4,293519	3,55125	8,28	-0,735	82,647	0	1010,3	5,8	7,7	7,7	1	1	1	1	1	1	1	1	1	0	1	-8,315715	273,053007	306,873182	0
15.01.2021	04:34:19	0	0	4,067544	3,582	19,8936	-0,743	82,637	0	1010,36	5,7	7,7	7,7	1	1	1	1	1	1	1	1	1	0	1	-4,721635	273,135149	310,846705	0
15.01.2021	04:34:20	0	0	3,502608	3,28425	17,7012	-0,743	82,65	0	1010,08	5,7	7,8	7,7	1	1	1	1	1	1	1	1	1	0	1	-9,513742	273,20482	306,376701	0
15.01.2021	04:34:21	0	0	3,050658	3,2505	15,03	-0,741	82,654	0	1010,28	5,7	7,8	7,7	1	1	1	1	1	1	1	1	1	0	1	-4,369274	273,067144	310,884904	0
15.01.2021	04:34:22	0	0	5,084431	3,22125	13,1616	-0,742	82,659	0	1010,3	5,7	7,7	7,7	1	1	1	1	1	1	1	1	1	0	1	-6,765328	273,057247	308,443148	0
15.01.2021	04:34:23	0	0	2,824684	3,20025	3,4092	-0,743	82,661	0	1010,26	5,7	7,7	7,7	1	1	1	1	1	1	1	1	1	0	1	-6,060606	273,041704	309,076109	0
15.01.2021	04:34:24	0	0	3,954557	3,03225	14,31	-0,746	82,662	0	1010,24	5,7	7,7	7,7	1	1	1	1	1	1	1	1	1	0	1	-5,990134	273,159292	309,689796	0
15.01.2021	04:34:25	0	0	4,632481	2,955	5,6844	-0,743	82,649	0	1010,2	5,8	7,7	7,7	1	1	1	1	1	1	1	1	1	0	1	-10,852713	273,155029	304,807512	0
15.01.2021	04:34:26	0	0	2,824684	2,922	20,2932	-0,742	82,654	0	1010,24	5,7	7,7	7,7	1	1	1	1	1	1	1	1	1	0	1	-7,610994	273,220495	308,351954	0
15.01.2021	04:34:27	0	0	3,502608	2,805	16,4844	-0,743	82,638	0	1010,12	5,7	7,7	7,7	1	1	1	1	1	1	1	1	1	0	1	-9,231853	273,126635	306,297142	0
15.01.2021	04:34:28	0	0	2,937671	2,91075	5,2272	-0,74	82,637	0	1010,24	5,8	7,7	7,7	1	1	1	1	1	1	1	1	1	0	1	-3,312192	273,03182	311,778894	0
15.01.2021	04:34:29	0	0	3,615595	3,216	2,6568	-0,742	82,655	0	1010,24	5,7	7,7	7,7	1	1	1	1	1	1	1	1	1	0	1	-5,496829	273,187734	310,314601	0
15.01.2021	04:34:30	0	0	2,937653	3,43725	3,7836	-0,745	82,654	0	1010,1	5,7	7,7	7,8	1	1	1	1	1	1	1	1	1	0	1	-4,651163	273,077046	310,648747	0
15.01.2021	04:34:31	0	0	5,310405	3,3645	5,238	-0,74	82,64	0	1010,22	5,7	7,7	7,7	1	1	1	1	1	1	1	1	1	0	1	-5,990134	273,231904	310,025589	0
15.01.2021	04:34:32	0	0	4,971443	3,29475	12,8664	-0,745	82,653	0	1010,34	5,8	7,7	7,7	1	1	1	1	1	1	1	1	1	0	1	-6,20155	273,128054	309,334001	0
15.01.2021	04:34:33	0	0	4,293519	3,26775	14,31	-0,746	82,642	0	1010,12	5,7	7,8	7,7	1	1	1	1	1	1	1	1	1	0	1	-7,399577	273,21907	308,556776	0
15.01.2021	04:34:34	0	0	4,067544	3,189	12,8664	-0,745	82,642	0	1010,16	5,7	7,7	7,7	1	1	1	1	1	1	1	1	1	0	1	-6,765328	273,071387	308,508446	0
15.01.2021	04:34:35	0	0	4,858456	3,43275	6,4404	-0,746	82,652	0	1010,24	5,7	7,7	7,7	1	1	1	1	1	1	1	1	1	0	1	-5,285412	273,186311	310,519437	0
15.01.2021	04:34:36	0	0	3,050658	3,62325	4,1112	-0,751	82,657	0	1010,28	5,7	7,7	7,7	1	1	1	1	1	1	1	1	1	0	1	-9,936575	273,229051	306,06595	0
15.01.2021	04:34:37	0	0	3,050658	3,546	10,8144	-0,743	82,658	0	1010,22	5,8	7,7	7,7	1	1	1	1	1	1	1	1	1	0	1	-6,624383	273,15645	309,042409	0
15.01.2021	04:34:38	0	0	4,858456	3,3435	5,6844	-0,744	82,663	0	1010,34	5,8	7,7	7,7	1	1	1	1	1	1	1	1	1	0	1	-4,792107	273,084123	310,540485	0
15.01.2021	04:34:39	0	0	2,598709	3,0885	359,8452	-0,747	82,656	0	1010,24	5,7	7,7	7,7	1	1	1	1	1	1	1	1	1	0	1	-7,470049	273,030409	307,61452	0
15.01.2021	04:34:40	0	0	4,632481	3,26475	8,6184	-0,747	82,643	0	1010,22	5,7	7,8	7,7	1	1	1	1	1	1	1	1	1	0	1	-4,087385	273,120961	311,415393	0
15.01.2021	04:34:41	0	0	4,067544	3,3525	12,852	-0,749	82,653	0	1010,2	5,7	7,7	7,7	1	1	1	1	1	1	1	1	1	0	1	-4,510218	273,051594	310,672154	0
15.01.2021	04:34:42	0	0	3,163646	3,41175	9,36	-0,748	82,664	0	1010,2	5,8	7,7	7,7	1	1	1	1	1	1	1	1	1	0	1	-2,043693	273,060074	313,177838	0
15.01.2021	04:34:43	0	0	3,276633	3,393	5,2272	-0,749	82,66	0	1010,2	5,8	7,7	7,7	1	1	1	1	1	1	1	1	1	0	1	-4,369274	273,140827	311,225307	0
15.01.2021	04:34:44	0	0	3,163646	3,35775	18,4572	-0,745	82,668	0	1010,2	5,7	7,7	7,7	1	1	1	1	1	1	1	1	1	0	1	-4,510218	273,209094	311,399992	0
15.01.2021	04:34:45	0	0	4,180532	3,1095	19,152	-0,746	82,67	0	1010,18	5,7	7,8	7,7	1	1	1	1	1	1	1	1	1	0	1	-5,144468	273,21907	310,811885	0
15.01.2021	04:34:46	0	0	3,502608	3,01875	5,22	-0,743	82,663	0	1010,2	5,7	7,7	7,7	1	1	1	1	1	1	1	1	1	0	1	-6,342495	273,177775	309,422883	0
15.01.2021	04:34:47	0	0	3,84157	3,024	10,818	-0,743	82,661	0	1010,38	5,7	7,7	7,7	1	1	1	1	1	1	1	1	1	0	1	-1,832276	273,187734	313,979154	0
15.01.2021	04:34:48	0	0	4,745468	3,09525	9,7704	-0,745	82,662	0	1010,14	5,8	7,7	7,7	1	1	1	1	1	1	1	1	1	0	1	-7,188161	273,201971	308,689108	0
15.01.2021	04:34:49	0	0	3,050658	3,07875	30,3192	-0,746	82,667	0	1010,28	5,8	7,7	7,7	1	1	1	1	1	1	1	1	1	0	1	-7,258633	273,109619	308,191738	0
15.01.2021	04:34:50	0	0	4,293519	2,9265	22,4604	-0,749	82,669	0	1010,28	5,8	7,7	7,7	1	1	1	1	1	1	1	1	1	0	1	-5,21494	273,211944	310,708451	0
15.01.2021	04:34:51	0	0	4,632481	2,90325	4,086	-0,752	82,669	0	1010,3	5,8	7,7	7,7	1	1	1	1	1	1	1	1	1	0	1	-8,033827	273,153608	307,619831	0
15.01.2021	04:34:52	0	0	3,276633	2,9355	6,4584	-0,753	82,672	0	1010,1	5,7	7,7	7,7	1	1	1	1	1	1	1	1	1	0	1	-6,20155	273,199123	309,662546	0
15.01.2021	04:34:53	0	0	2,485722	2,934	13,5396	-0,746	82,663	0	1010,16	5,7	7,7	7,7	1	1	1	1	1	1	1	1	1	0	1	-5,426357	273,211944	310,497034	0
15.01.2021	04:34:54	0	0	3,502608	2,90925	6,0588	-0,744	82,673	0	1010,26	5,7	7,7	7,7	1	1	1	1	1	1	1	1	1	0	1	-10,218464	273,069973	305,048778	0
15.01.2021	04:34:55	0	0	4,067544	2,83125	19,9044	-0,747	82,677	0	1010,14	5,8	7,7	7,7	1	1	1	1	1	1	1	1	1	0	1	-6,906272	273,125216	308,616169	0
15.01.2021	04:34:56	0	0	3,84157	2,63625	9,3708	-0,745	82,681	0	1010,32	5,7	7,7	7,7	1	1	1	1	1	1	1	1	1	0	1	-10,147992	273,03888	304,975684	0
15.01.2021	04:34:57	0	0	3,954557	2,45325	18,0792	-0,742	82,674	0	1010,36	5,8	7,7	7,7	1	1	1	1	1	1	1	1	1	0	1	-10,147992	273,221921	305,821551	0
15.01.2021	04:34:58	0	0	3,84157	2,5335	9,7452	-0,747	82,672	0	1010,28	5,7	7,7	7,7	1	1	1	1	1	1	1	1	1	0	1	-9,44327	273,078461	305,863175	0
15.01.2021	04:34:59	0	0	2,598709	2,766	9,3816	-0,747	82,66	0	1010,2	5,8	7,7	7,7	1	1	1	1	1	1	1	1	1	0	1	-6,412967	273,206245	309,484065	0
15.01.2021	04:35:00	0	0	3,615595	3,7065	15,7968	-0,746	82,681	0	1010,28	5,7	7,7	7,7	1	1	1	1	1	1	1	1	1	0	1	-4,298802	273,214794	311,637772	0
15.01.2021	04:35:01	0	0	3,615595	3,7065	15,7968	-0,746	82,681	0	1010,28	5,7	7,7	7,7	1	1	1	1	1	1	1	1	1	0	1	-8,949965	273,098283	306,448037	0
15.01.2021	04:35:02	0	0	4,406506	3,92025	16,4844	-0,745	82,68	0	1010,34	5,8	7,8	7,7	1	1	1	1	1	1	1	1	1	0	1	-7,610994	273,214794	308,32558	0
15.01.2021	04:35:03	0	0	2,711696	4,04325	7,5276	-0,747	82,676	0	1010,38	5,8	7,7	7,7	1	1	1	1	1	1	1	1	1	0	1	-5,637773	273,152188	310,009318	0
15.01.2021	04:35:04	0	0	2,824684	4,15425	6,4404	-0,744	82,686	0	1010,32	5,7	7,7	7,7	1	1	1	1	1	1	1	1	1	0	1	-5,355884	273,041704	309,780831	0
15.01.2021	04:35:05	0	0	4,180532	4,04025	3,7728	-0,748	82,674	0	1010,26	5,7	7,7	7,7	1	1	1	1	1	1	1	1	1	0	1	-4,298802	273,061488	310,929257	0
15.01.2021	04:35:06	0	0	3,276633	3,81825	359,946	-0,745	82,686	0	1010,26	5,8	7,7	7,7	1	1	1	1	1	1	1	1	1	0	1	-5,567301	273,094034	309,811072	0
15.01.2021	04:35:07	0	0	3,502608	3,471	358,632	-0,745	82,681	0	1010,22	5,8	7,8	7,7	1	1	1	1	1	1	1	1	1	0	1	-5,285412	273,047355	309,877389	0
15.01.2021	04:35:08	0	0	3,84157	3,2685	359,8848	-0,749	82,676	0	1010,18	5,8	7,7	7,7	1	1	1	1	1	1	1	1	1	0	1	-5,21494	273,157871	310,458421	0
15.01.2021	04:35:09	0	0	3,615595	3,1905	7,5096	-0,743	82,687	0	1010,24	5,7	7,7	7,7	1	1	1	1	1	1	1	1	1	0	1	-8,174771	273,045942	306,981508	0
15.01.2021	04:35:10	0	0	4,406506	3,0555	351,0432	-0,748	82,68	0	1010,32	5,8	7,8	7,7	1	1	1	1	1	1	1	1	1	0	1	-5,990134	273,221921	309,979408	0
15.01.2021	04:35:11	0	0	3,163646	3,06975	7,1136	-0,747	82,66	0	1010,12	5,8	7,7	7,7	1	1	1	1	1	1	1	1	1	0	1	-4,721635	273,108201	310,722188	0
15.01.2021	04:35:12	0	0	4,745468	3,17175	359,8524	-0,752	82,678	0	1010,1	5,7	7,7	7,7	1	1	1	1	1	1	1	1	1	0	1	-7,258633	273,370771	309,400029	0
15.01.2021	04:35:13	0	0	2,937671	3,03525	360	-0,748	82,69	0	1010,14	5,8	7,7	7,7	1	1	1	1	1	1	1	1	1	0	1	-4,298802	273,197699	311,558709	0
15.01.2021	04:35:14	0	0	2,598709	2,9505	1,9224	-0,747	82,687	0	1010,12	5,7	7,7	7,7	1	1	1	1	1	1	1	1	1	0	1	-10,852713	273,170664	304,879788	0
15.01.2021	04:35:15	0	0	2,937671	2,9925	6,8184	-0,746	82,68	0	1010,24	5,8	7,8	7,7	1	1	1	1	1	1	1	1	1	0	1	-7,82241	273,03182	307,268676	0
15.01.2021	04:35:16	0	0	4,293519	3,06075	7,8732	-0,751	82,676	0	1010,28	5,8	7,8	7,7	1	1	1	1	1	1	1	1	1	0	1	-6,131078	273,112454	309,332391	0
15.01.2021	04:35:17	0	0	2,937671	3,04125	13,5504	-0,747	82,683	0	1010,32	5,8	7,7	7,7	1	1	1	1	1	1	1	1	1	0	1	-11,275546	273,21907	304,680807	0
15.01.2021	04:35:18	0	0	3,502608	2,91825	4,4892	-0,749	82,681	0	1010,3	5,7	7,7	7,7	1	1	1	1	1	1	1	1	1	0	1	-2,466526	273,23761	313,575599	0
15.01.2021	04:35:19	0	0	4,067544	2,93625	14,652	-0,751	82,679	0	1010,34	5,7	7,7	7,7	1	1	1	1	1	1	1	1	1	0	1	-5,496829	273,125216	310,025612	0
15.01.2021	04:35:20	0	0	3,728582	3,07725	359,478	-0,747	82,682	0	1010,26	5,8	7,8	7,7	1	1	1	1	1	1	1	1	1	0	1	-3,664553	273,512098	313,649441	0
15.01.2021	04:35:21	0	0	3,050658	3,51525	0,4968	-0,747	82,683	0	1010,22	5,8	7,7	7,7	1	1	1	1	1	1	1	1	1	0	1	-6,8358	273,045942	308,320479	0
15.01.2021	04:35:22	0	0	3,615595	3,83475	359,928	-0,744	82,689	0	1010,34	5,8	7,8	7,7	1	1	1	1	1	1	1	1	1	0	1	-3,664553	273,10395	311,759629	0
15.01.2021	04:35:23	0	0	4,632481	4,149	4,824	-0,75	82,689	0	1010,2	5,7	7,7	7,7	1	1	1	1	1	1	1	1	1	0	1	-3,59408	273,045942	311,562199	0
15.01.2021	04:35:24	0	0	2,824684	4,26675	6,8292	-0,747	82,677	0	1010	5,7	7,7	7,7	1	1	1	1	1	1	1	1	1	0	1	-5,073996	273,146506	310,546836	0
15.01.2021	04:35:25	0	0	3,615595	4,0185	7,5996	-0,75	82,666	0	1010,04	5,8	7,7	7,7	1	1	1	1	1	1	1	1	1	0	1	-3,312192	273,21907	312,644161	0
15.01.2021	04:35:26	0	0	3,615595	3,62625	19,152	-0,745	82,689	0	1010,32	5,8	7,7	7,7	1	1	1	1	1	1	1	1	1	0	1	-3,24172	273,061488	311,98634	0
15.01.2021	04:35:27	0	0	4,971443	3,51	12,5784	-0,745	82,694	0	1010,12	5,8	7,7	7,7	1	1	1	1	1	1	1	1	1	0	1	-6,131078	273,129473	309,41103	0
15.01.2021	04:35:28	0	0	3,050658	3,35475	9,8532	-0,75	82,684	0	1010,34	5,8	7,7	7,7	1	1	1	1	1	1	1	1	1	0	1	-4,933051	273,05018	310,242797	0
15.01.2021	04:35:29	0	0	4,293519	3,12975	10,4688	-0,745	82,704	0	1010,34	5,8	7,8	7,7	1	1	1	1	1	1	1	1	1	0	1	-7,892882	273,051594	307,289491	0
15.01.2021	04:35:30	0	0	4,632481	2,97675	15,03	-0,75	82,693	0	1010,12	5,8	7,7	7,7	1	1	1	1	1	1	1	1	1	0	1	-6,8358	273,137988	308,745659	0
15.01.2021	04:35:31	0	0	3,502608	2,7375	6,0732	-0,745	82,695	0	1010,2	5,8	7,7	7,7	1	1	1	1	1	1	1	1	1	0	1	-3,312192	273,03888	311,811483	0
15.01.2021	04:35:32	0	0	2,711696	2,433	22,932	-0,744	82,697	0	1010,28	5,8	7,7	7,7	1	1	1	1	1	1	1	1	1	0	1	-9,020437	273,12238	306,488895	0
15.01.2021	04:35:33	0	0	4,519494	2,40075	10,8288	-0,756	82,696	0	1010,12	5,7	7,7	7,7	1	1	1	1	1	1	1	1	1	0	1	-7,82241	273,157871	307,850951	0
15.01.2021	04:35:34	0	0	4,858456	2,616	11,7216	-0,755	82,702	0	1010,36	5,8	7,7	7,7	1	1	1	1	1	1	1	1	1	0	1	-4,087385	273,224773	311,895348	0
15.01.2021	04:35:35	0	0	2,824667	2,8095	358,398	-0,751	82,697	0	1010,32	5,8	7,7	7,8	1	1	1	1	1	1	1	1	1	0	1	-2,677942	273,142247	312,923201	0
15.01.2021	04:35:36	0	0	3,276633	2,97225	10,0584	-0,751	82,698	0	1010,14	5,7	7,7	7,7	1	1	1	1	1	1	1	1	1	0	1	-1,832276	273,040292	313,297919	0
15.01.2021	04:35:37	0	0	4,293519	3,33675	14,652	-0,753	82,704	0	1010,26	5,8	7,8	7,7	1	1	1	1	1	1	1	1	1	0	1	-9,866103	273,177775	305,899275	0
15.01.2021	04:35:38	0	0	2,711696	3,5685	1,9332	-0,753	82,679	0	1010,12	5,8	7,8	7,7	1	1	1	1	1	1	1	1	1	0	1	-4,087385	273,17493	311,66484	0
15.01.2021	04:35:39	0	0	3,38962	3,51975	6,8184	-0,751	82,681	0	1010,16	5,8	7,8	7,7	1	1	1	1	1	1	1	1	1	0	1	-6,906272	273,211944	309,017119	0
15.01.2021	04:35:40	0	0	3,615595	3,34275	19,9296	-0,751	82,707	0	1010,22	5,8	7,7	7,7	1	1	1	1	1	1	1	1	1	0	1	-5,778717	273,150767	309,861808	0
15.01.2021	04:35:41	0	0	3,502608	3,08175	13,5576	-0,75	82,699	0	1010,1	5,7	7,8	7,7	1	1	1	1	1	1	1	1	1	0	1	-8,033827	273,05018	307,142022	0
15.01.2021	04:35:42	0	0	3,38962	2,81175	17,694	-0,757	82,684	0	1010,24	5,8	7,7	7,7	1	1	1	1	1	1	1	1	1	0	1	-3,100775	273,169242	312,625153	0
15.01.2021	04:35:43	0	0	3,728582	2,80125	26,172	-0,75	82,704	0	1010,26	5,8	7,7	7,7	1	1	1	1	1	1	1	1	1	0	1	-6,906272	273,177775	308,859106	0
15.01.2021	04:35:44	0	0	5,084431	2,784	17,7012	-0,748	82,704	0	1010,3	5,8	7,7	7,7	1	1	1	1	1	1	1	1	1	0	1	-8,174771	273,236183	307,860752	0
15.01.2021	04:35:45	0	0	3,276633	2,8035	2,3184	-0,756	82,684	0	1010,1	5,8	7,7	7,7	1	1	1	1	1	1	1	1	1	0	1	-8,245243	273,139407	307,342777	0
15.01.2021	04:35:46	0	0	3,276633	2,928	9,846	-0,752	82,695	0	1010,14	5,8	7,7	7,7	1	1	1	1	1	1	1	1	1	0	1	-6,906272	273,043117	308,236964	0
15.01.2021	04:35:47	0	0	4,745468	2,87025	25,8876	-0,756	82,675	0	1010,34	5,8	7,7	7,7	1	1	1	1	1	1	1	1	1	0	1	-3,946441	273,173508	311,799209	0
15.01.2021	04:35:48	0	0	4,858456	2,88525	13,1724	-0,748	82,711	0	1010,34	5,7	7,7	7,7	1	1	1	1	1	1	1	1	1	0	1	-2,748414	273,149347	312,885546	0
15.01.2021	04:35:49	0	0	4,519494	2,79075	9,3744	-0,747	82,708	0	1010,34	5,8	7,7	7,7	1	1	1	1	1	1	1	1	1	0	1	-3,735025	273,211944	312,188366	0
15.01.2021	04:35:50	0	0	3,163646	2,9895	9,7704	-0,753	82,7	0	1010,3	5,8	7,7	7,7	1	1	1	1	1	1	1	1	1	0	1	-11,134602	273,119543	304,361624	0
15.01.2021	04:35:51	0	0	3,615595	3,171	356,5764	-0,751	82,695	0	1010,18	5,8	7,8	7,7	1	1	1	1	1	1	1	1	1	0	1	-5,355884	273,21907	310,600469	0
15.01.2021	04:35:52	0	0	4,067544	3,33	4,4748	-0,755	82,706	0	1010,34	5,7	7,7	7,7	1	1	1	1	1	1	1	1	1	0	1	-3,59408	273,05442	311,601343	0
15.01.2021	04:35:53	0	0	3,502608	3,264	18,8388	-0,753	82,678	0	1010,24	5,8	7,7	7,7	1	1	1	1	1	1	1	1	1	0	1	-7,047216	273,041704	308,089499	0
15.01.2021	04:35:54	0	0	4,971443	3,0705	7,8732	-0,754	82,697	0	1010,2	5,8	7,8	7,7	1	1	1	1	1	1	1	1	1	0	1	-7,258633	273,207669	308,644988	0
15.01.2021	04:35:55	0	0	4,406506	3,01425	7,5204	-0,754	82,699	0	1010,28	5,8	7,7	7,7	1	1	1	1	1	1	1	1	1	0	1	-0	273,153608	315,653658	0
15.01.2021	04:35:56	0	0	4,858456	3,08025	5,6844	-0,757	82,687	0	1010,2	5,8	7,7	7,7	1	1	1	1	1	1	1	1	1	0	1	-6,342495	273,043117	308,800741	0
15.01.2021	04:35:57	0	0	3,615595	3,02475	13,9356	-0,757	82,705	0	1010,22	5,8	7,7	7,7	1	1	1	1	1	1	1	1	1	0	1	-6,906272	273,147927	308,721124	0
15.01.2021	04:35:58	0	0	4,293519	2,81325	5,2236	-0,753	82,69	0	1010,2	5,8	7,7	7,7	1	1	1	1	1	1	1	1	1	0	1	-1,62086	273,044529	313,528897	0
15.01.2021	04:35:59	0	0	3,050658	2,6175	8,6328	-0,754	82,697	0	1010,24	5,8	7,8	7,7	1	1	1	1	1	1	1	1	1	0	1	-5,708245	273,15645	309,958547	0
15.01.2021	04:36:00	0	0	3,163646	2,5965	2,6532	-0,748	82,689	0	1010,1	5,8	7,7	7,7	1	1	1	1	1	1	1	1	1	0	1	-3,171247	273,086954	312,174422	0
15.01.2021	04:36:01	0	0	3,163646	2,5965	2,6532	-0,748	82,689	0	1010,1	5,8	7,7	7,7	1	1	1	1	1	1	1	1	1	0	1	-3,171247	273,086954	312,174422	0
15.01.2021	04:36:02	0	0	4,519494	2,64675	8,2764	-0,751	82,68	0	1010,28	5,8	7,7	7,7	1	1	1	1	1	1	1	1	1	0	1	-11,06413	273,082707	304,261925	0
15.01.2021	04:36:03	0	0	4,632481	3,012	10,0476	-0,754	82,687	0	1010,22	5,7	7,7	7,7	1	1	1	1	1	1	1	1	1	0	1	-5,21494	273,045942	309,941339	0
15.01.2021	04:36:04	0	0	2,824684	3,37725	360	-0,75	82,687	0	1010,24	5,8	7,7	7,7	1	1	1	1	1	1	1	1	1	0	1	-2,114165	273,203396	313,769691	0
15.01.2021	04:36:05	0	0	4,067544	3,38175	0,504	-0,756	82,703	0	1010,34	5,8	7,7	7,7	1	1	1	1	1	1	1	1	1	0	1	-4,510218	273,041704	310,626497	0
15.01.2021	04:36:06	0	0	2,824684	3,31125	349,1316	-0,757	82,701	0	1010,24	5,8	7,7	7,7	1	1	1	1	1	1	1	1	1	0	1	-5,708245	273,17493	310,04398	0
15.01.2021	04:36:07	0	0	3,502608	3,26925	2,3112	-0,754	82,699	0	1010,22	5,7	7,7	7,7	1	1	1	1	1	1	1	1	1	0	1	-7,963354	273,053007	307,225543	0
15.01.2021	04:36:08	0	0	3,84157	3,039	31,7628	-0,759	82,689	0	1010,14	5,8	7,7	7,7	1	1	1	1	1	1	1	1	1	0	1	-7,751938	273,192004	308,079237	0
15.01.2021	04:36:09	0	0	5,53638	2,74575	19,89	-0,757	82,694	0	1010,22	5,8	7,8	7,7	1	1	1	1	1	1	1	1	1	0	1	-4,721635	273,224773	311,261099	0
15.01.2021	04:36:10	0	0	3,728582	2,5905	16,4844	-0,755	82,69	0	1010,24	5,8	7,7	7,7	1	1	1	1	1	1	1	1	1	0	1	-5,426357	273,098283	309,971645	0
15.01.2021	04:36:11	0	0	3,38962	2,6775	6,066	-0,752	82,695	0	1010,22	5,8	7,7	7,7	1	1	1	1	1	1	1	1	1	0	1	-7,258633	273,172086	308,480443	0
15.01.2021	04:36:12	0	0	2,598709	2,826	18,09	-0,755	82,696	0	1010,34	5,8	7,7	7,7	1	1	1	1	1	1	1	1	1	0	1	-3,735025	273,239037	312,313702	0
15.01.2021	04:36:13	0	0	3,3896	2,835	24,3576	-0,759	82,694	0	1010,2	5,8	7,7	7,8	1	1	1	1	1	1	1	1	1	0	1	-4,157858	273,112454	311,305612	0
15.01.2021	04:36:14	0	0	3,841547	2,85375	28,3608	-0,754	82,7	0	1010,24	5,8	7,7	7,8	1	1	1	1	1	1	1	1	1	0	1	-7,892882	273,045942	307,263397	0
15.01.2021	04:36:15	0	0	4,519467	2,835	19,638	-0,756	82,705	0	1010,22	5,8	7,8	7,8	1	1	1	1	1	1	1	1	1	0	1	-7,117689	273,192004	308,713487	0
15.01.2021	04:36:16	0	0	4,858456	2,73375	25,8084	-0,753	82,696	0	1010,26	5,8	7,7	7,7	1	1	1	1	1	1	1	1	1	0	1	-4,298802	273,199123	311,565294	0
15.01.2021	04:36:17	0	0	5,197418	2,74275	3,0276	-0,759	82,7	0	1010,26	5,8	7,8	7,7	1	1	1	1	1	1	1	1	1	0	1	-1,127555	273,051594	314,054818	0
15.01.2021	04:36:18	0	0	4,406506	2,69475	12,8484	-0,753	82,692	0	1010,2	5,8	7,8	7,7	1	1	1	1	1	1	1	1	1	0	1	-2,959831	273,111036	312,497089	0
15.01.2021	04:36:19	0	0	2,485722	2,694	7,128	-0,752	82,714	0	1010,3	5,8	7,7	7,7	1	1	1	1	1	1	1	1	1	0	1	-3,946441	273,05018	311,229407	0
15.01.2021	04:36:20	0	0	3,38962	2,63325	2,6424	-0,756	82,693	0	1010,04	5,8	7,7	7,7	1	1	1	1	1	1	1	1	1	0	1	-5,003524	273,072802	310,276784	0
15.01.2021	04:36:21	0	0	3,615595	2,457	358,758	-0,754	82,695	0	1010,18	5,8	7,7	7,7	1	1	1	1	1	1	1	1	1	0	1	-5,567301	273,116707	309,91582	0
15.01.2021	04:36:22	0	0	3,3896	2,3625	8,9928	-0,762	82,703	0	1010,26	5,8	7,7	7,8	1	1	1	1	1	1	1	1	1	0	1	-5,355884	273,223347	310,620253	0
15.01.2021	04:36:23	0	0	4,406506	2,44875	14,3136	-0,752	82,703	0	1010,2	5,8	7,8	7,7	1	1	1	1	1	1	1	1	1	0	1	-4,933051	273,155029	310,727174	0
15.01.2021	04:36:24	0	0	3,163646	2,68275	17,2152	-0,767	82,706	0	1010,2	5,8	7,7	7,7	1	1	1	1	1	1	1	1	1	0	1	-5,990134	273,057247	309,218342	0
15.01.2021	04:36:25	0	0	4,745468	2,8455	3,78	-0,759	82,702	0	1010,3	5,8	7,8	7,7	1	1	1	1	1	1	1	1	1	0	1	-6,976744	273,091201	308,388546	0
15.01.2021	04:36:26	0	0	3,38962	2,826	7,1316	-0,751	82,704	0	1010,26	5,8	7,7	7,7	1	1	1	1	1	1	1	1	1	0	1	-5,990134	273,157871	309,683227	0
15.01.2021	04:36:27	0	0	2,824684	2,7735	6,4584	-0,757	82,71	0	1010,32	5,8	7,7	7,7	1	1	1	1	1	1	1	1	1	0	1	-6,553911	273,085538	308,78522	0
15.01.2021	04:36:28	0	0	3,050658	2,775	3,3984	-0,754	82,713	0	1010,26	5,8	7,8	7,7	1	1	1	1	1	1	1	1	1	0	1	-2,396054	273,162134	313,297015	0
15.01.2021	04:36:29	0	0	2,824684	2,7555	7,128	-0,762	82,709	0	1010,14	5,8	7,7	7,7	1	1	1	1	1	1	1	1	1	0	1	-3,946441	273,216219	311,996725	0
15.01.2021	04:36:30	0	0	5,084431	2,739	16,0956	-0,759	82,721	0	1010,3	5,8	7,7	7,7	1	1	1	1	1	1	1	1	1	0	1	-5,708245	273,142247	309,892898	0
15.01.2021	04:36:31	0	0	3,728582	2,60925	9,3672	-0,76	82,715	0	1010,3	5,8	7,8	7,7	1	1	1	1	1	1	1	1	1	0	1	-4,933051	273,053007	310,255846	0
15.01.2021	04:36:32	0	0	4,632481	2,499	4,8384	-0,755	82,709	0	1010,22	5,8	7,7	7,7	1	1	1	1	1	1	1	1	1	0	1	-1,973221	273,139407	313,614799	0
15.01.2021	04:36:33	0	0	4,745468	2,544	0	-0,756	82,716	0	1010,24	5,8	7,8	7,7	1	1	1	1	1	1	1	1	1	0	1	-3,312192	273,069973	311,95505	0
15.01.2021	04:36:34	0	0	3,276633	2,81025	7,1388	-0,763	82,723	0	1010,24	5,8	7,7	7,7	1	1	1	1	1	1	1	1	1	0	1	-8,033827	273,23761	308,008298	0
15.01.2021	04:36:35	0	0	4,180532	2,955	9,7488	-0,761	82,729	0	1010,22	5,8	7,7	7,7	1	1	1	1	1	1	1	1	1	0	1	-7,681466	273,164977	308,024745	0
15.01.2021	04:36:36	0	0	4,180532	3,0195	7,8768	-0,753	82,709	0	1010,2	5,8	7,8	7,7	1	1	1	1	1	1	1	1	1	0	1	-0	273,201971	315,877268	0
15.01.2021	04:36:37	0	0	3,502608	3,057	3,3948	-0,765	82,721	0	1010,26	5,8	7,8	7,7	1	1	1	1	1	1	1	1	1	0	1	-8,104299	273,071387	307,169475	0
15.01.2021	04:36:38	0	0	4,180532	3,15825	19,5408	-0,761	82,723	0	1010,14	5,8	7,8	7,7	1	1	1	1	1	1	1	1	1	0	1	-4,862579	273,072802	310,417728	0
15.01.2021	04:36:39	0	0	4,519494	3,579	7,128	-0,754	82,723	0	1010,24	5,8	7,7	7,7	1	1	1	1	1	1	1	1	1	0	1	-2,60747	273,086954	312,7382	0
15.01.2021	04:36:40	0	0	2,598709	3,86175	7,5204	-0,758	82,729	0	1010,24	5,8	7,7	7,7	1	1	1	1	1	1	1	1	1	0	1	-6,412967	273,194851	309,431375	0
15.01.2021	04:36:41	0	0	3,954557	4,04175	9,7632	-0,755	82,719	0	1010,3	5,8	7,8	7,7	1	1	1	1	1	1	1	1	1	0	1	-1,973221	273,055833	313,228729	0
15.01.2021	04:36:42	0	0	3,615595	4,0635	9,756	-0,755	82,72	0	1010,26	5,8	7,8	7,7	1	1	1	1	1	1	1	1	1	0	1	-3,171247	273,152188	312,475844	0
15.01.2021	04:36:43	0	0	4,067544	4,22025	9,378	-0,759	82,739	0	1010,28	5,8	7,7	7,7	1	1	1	1	1	1	1	1	1	0	1	-4,157858	273,048768	311,011467	0
15.01.2021	04:36:44	0	0	4,971443	4,17825	9,378	-0,761	82,724	0	1010,26	5,8	7,8	7,7	1	1	1	1	1	1	1	1	1	0	1	-5,285412	273,129473	310,256696	0
15.01.2021	04:36:45	0	0	3,276633	4,35825	359,0748	-0,753	82,723	0	1010,24	5,8	7,7	7,7	1	1	1	1	1	1	1	1	1	0	1	-6,765328	273,03888	308,358347	0
15.01.2021	04:36:46	0	0	3,276613	4,51125	13,1544	-0,759	82,73	0	1010,3	5,8	7,7	7,8	1	1	1	1	1	1	1	1	1	0	1	-9,584214	273,159292	306,095715	0
15.01.2021	04:36:47	0	0	3,38962	4,17675	17,6868	-0,761	82,729	0	1010,16	5,8	7,7	7,7	1	1	1	1	1	1	1	1	1	0	1	-4,933051	273,061488	310,295008	0
15.01.2021	04:36:48	0	0	4,971443	3,68325	0	-0,761	82,713	0	1010,12	5,8	7,8	7,7	1	1	1	1	1	1	1	1	1	0	1	-3,312192	273,234757	312,716731	0
15.01.2021	04:36:49	0	0	2,824684	3,4575	8,6292	-0,755	82,731	0	1010,38	5,8	7,7	7,7	1	1	1	1	1	1	1	1	1	0	1	-4,157858	273,16782	311,561497	0
15.01.2021	04:36:50	0	0	4,406506	3,33225	16,8408	-0,768	82,731	0	1010,22	5,8	7,7	7,7	1	1	1	1	1	1	1	1	1	0	1	-1,62086	273,101116	313,790231	0
15.01.2021	04:36:51	0	0	2,937671	3,10425	21,024	-0,758	82,728	0	1010,22	5,8	7,7	7,7	1	1	1	1	1	1	1	1	1	0	1	-1,761804	273,094034	313,616569	0
15.01.2021	04:36:52	0	0	3,954557	3,06525	3,0312	-0,761	82,724	0	1010,12	5,8	7,7	7,7	1	1	1	1	1	1	1	1	1	0	1	-8,80902	273,224773	307,173713	0
15.01.2021	04:36:53	0	0	2,711696	3,17625	3,0348	-0,763	82,736	0	1010,28	5,8	7,8	7,7	1	1	1	1	1	1	1	1	1	0	1	-1,057082	273,143666	314,550623	0
15.01.2021	04:36:54	0	0	5,423393	3,02925	5,688	-0,762	82,72	0	1010,32	5,8	7,7	7,7	1	1	1	1	1	1	1	1	1	0	1	-4,087385	273,224773	311,895348	0
15.01.2021	04:36:55	0	0	3,502608	3	3,0384	-0,765	82,72	0	1010,16	5,8	7,8	7,7	1	1	1	1	1	1	1	1	1	0	1	-4,087385	273,140827	311,507196	0
15.01.2021	04:36:56	0	0	4,971443	2,9445	2,3184	-0,763	82,713	0	1010,22	5,8	7,7	7,7	1	1	1	1	1	1	1	1	1	0	1	-6,906272	273,067144	308,347906	0
15.01.2021	04:36:57	0	0	3,954557	3,01275	14,2992	-0,763	82,72	0	1010,38	5,8	7,8	7,7	1	1	1	1	1	1	1	1	1	0	1	-3,453136	273,213369	312,476846	0
15.01.2021	04:36:58	0	0	4,406506	3,35475	12,4812	-0,76	82,714	0	1010,18	5,8	7,8	7,7	1	1	1	1	1	1	1	1	1	0	1	-6,906272	273,119543	308,589953	0
15.01.2021	04:36:59	0	0	3,728582	3,41475	16,8624	-0,762	82,713	0	1010,3	5,8	7,7	7,7	1	1	1	1	1	1	1	1	1	0	1	-9,795631	273,044529	305,354126	0
15.01.2021	04:37:00	0	0	4,519494	3,33375	21,0132	-0,761	82,71	0	1010,18	5,8	7,7	7,7	1	1	1	1	1	1	1	1	1	0	1	-6,624383	273,196275	309,226543	0
15.01.2021	04:37:01	0	0	4,519494	3,33375	21,0132	-0,761	82,71	0	1010,18	5,8	7,7	7,7	1	1	1	1	1	1	1	1	1	0	1	-10,147992	273,17493	305,604234	0
15.01.2021	04:37:02	0	0	4,632481	3,492	11,7324	-0,761	82,715	0	1010,32	5,8	7,8	7,7	1	1	1	1	1	1	1	1	1	0	1	-7,610994	273,214794	308,32558	0
15.01.2021	04:37:03	0	0	2,71168	3,543	10,0656	-0,758	82,722	0	1010,24	5,8	7,7	7,8	1	1	1	1	1	1	1	1	1	0	1	-6,765328	273,163555	308,934312	0
15.01.2021	04:37:04	0	0	5,197418	3,52575	3,7836	-0,757	82,706	0	1010,32	5,8	7,7	7,7	1	1	1	1	1	1	1	1	1	0	1	-9,584214	273,211944	306,339177	0
15.01.2021	04:37:05	0	0	3,954533	3,43875	360	-0,764	82,692	0	1010,04	5,8	7,7	7,8	1	1	1	1	1	1	1	1	1	0	1	-5,637773	273,092618	309,734058	0
15.01.2021	04:37:06	0	0	4,971443	3,24225	360	-0,761	82,716	0	1010,22	5,8	7,7	7,7	1	1	1	1	1	1	1	1	1	0	1	-3,946441	273,234757	312,082481	0
15.01.2021	04:37:07	0	0	5,197418	3,1065	354,654	-0,764	82,705	0	1010,08	5,8	7,7	7,7	1	1	1	1	1	1	1	1	1	0	1	-9,090909	273,142247	306,510234	0
15.01.2021	04:37:08	0	0	3,954533	3,1965	0	-0,77	82,707	0	1010,14	5,8	7,7	7,8	1	1	1	1	1	1	1	1	1	0	1	-2,818887	273,211944	313,104504	0
15.01.2021	04:37:09	0	0	3,276633	3,13425	360	-0,766	82,706	0	1010,18	5,8	7,7	7,7	1	1	1	1	1	1	1	1	1	0	1	-6,131078	273,140827	309,463503	0
15.01.2021	04:37:10	0	0	3,84157	3,10425	10,0548	-0,765	82,711	0	1010,2	5,8	7,7	7,7	1	1	1	1	1	1	1	1	1	0	1	-6,906272	273,226199	309,083058	0
15.01.2021	04:37:11	0	0	4,858456	3,06525	7,1352	-0,759	82,71	0	1010,28	5,8	7,7	7,7	1	1	1	1	1	1	1	1	1	0	1	-7,188161	273,241891	308,873771	0
15.01.2021	04:37:12	0	0	4,067544	3,0975	6,8112	-0,764	82,709	0	1010,26	5,8	7,8	7,7	1	1	1	1	1	1	1	1	1	0	1	-6,483439	273,13231	309,071784	0
15.01.2021	04:37:13	0	0	3,728582	3	9,7632	-0,762	82,7	0	1010,22	5,8	7,7	7,7	1	1	1	1	1	1	1	1	1	0	1	-5,355884	273,230477	310,653239	0
15.01.2021	04:37:14	0	0	4,067544	3	17,7948	-0,761	82,709	0	1010,2	5,8	7,7	7,7	1	1	1	1	1	1	1	1	1	0	1	-5,567301	273,116707	309,91582	0
15.01.2021	04:37:15	0	0	3,050658	3,2655	12,474	-0,762	82,705	0	1010,36	5,8	7,7	7,7	1	1	1	1	1	1	1	1	1	0	1	-4,22833	273,226199	311,761	0
15.01.2021	04:37:16	0	0	4,971443	3,4755	12,8484	-0,758	82,712	0	1010,22	5,8	7,8	7,7	1	1	1	1	1	1	1	1	1	0	1	-6,131078	273,084123	309,201514	0
15.01.2021	04:37:17	0	0	2,598693	3,237	12,5748	-0,765	82,708	0	1010,32	5,8	7,8	7,8	1	1	1	1	1	1	1	1	1	0	1	-3,735025	273,074217	311,551816	0
15.01.2021	04:37:18	0	0	4,632481	2,982	20,628	-0,762	82,709	0	1010,08	5,8	7,7	7,7	1	1	1	1	1	1	1	1	1	0	1	-5,567301	273,193428	310,270457	0
15.01.2021	04:37:19	0	0	4,406506	2,9265	21,7764	-0,766	82,717	0	1010,18	5,8	7,7	7,7	1	1	1	1	1	1	1	1	1	0	1	-10,42988	273,231904	305,585842	0
15.01.2021	04:37:20	0	0	3,163646	2,8875	353,2176	-0,765	82,699	0	1010,28	5,8	7,7	7,7	1	1	1	1	1	1	1	1	1	0	1	-5,778717	273,140827	309,815864	0
15.01.2021	04:37:21	0	0	2,937671	3,0225	8,2728	-0,765	82,703	0	1010,24	5,8	7,8	7,7	1	1	1	1	1	1	1	1	1	0	1	-7,82241	273,240464	308,232919	0
15.01.2021	04:37:22	0	0	4,971413	3,12075	359,082	-0,764	82,718	0	1010,24	5,8	7,8	7,8	1	1	1	1	1	1	1	1	1	0	1	-4,087385	273,098283	311,310616	0
15.01.2021	04:37:23	0	0	4,067544	3,33525	9,738	-0,77	82,702	0	1010,16	5,8	7,8	7,7	1	1	1	1	1	1	1	1	1	0	1	-5,073996	273,081292	310,245522	0
15.01.2021	04:37:24	0	0	3,163646	3,333	360	-0,766	82,709	0	1010,48	5,8	7,7	7,7	1	1	1	1	1	1	1	1	1	0	1	-5,496829	273,199123	310,367267	0
15.01.2021	04:37:25	0	0	4,745468	3,01725	13,2552	-0,768	82,699	0	1010,08	5,8	7,8	7,7	1	1	1	1	1	1	1	1	1	0	1	-5,355884	273,224773	310,626849	0
15.01.2021	04:37:26	0	0	4,293519	2,742	3,78	-0,767	82,7	0	1010,24	5,8	7,7	7,7	1	1	1	1	1	1	1	1	1	0	1	-5,144468	273,223347	310,83167	0
15.01.2021	04:37:27	0	0	4,745468	2,50275	19,89	-0,766	82,706	0	1010,1	5,8	7,7	7,7	1	1	1	1	1	1	1	1	1	0	1	-2,889359	273,164977	312,816852	0
15.01.2021	04:37:28	0	0	2,598709	2,7195	20,6352	-0,765	82,712	0	1010,12	5,8	7,7	7,7	1	1	1	1	1	1	1	1	1	0	1	-4,298802	273,210519	311,617998	0
15.01.2021	04:37:29	0	0	4,858427	2,934	23,9616	-0,768	82,698	0	1010,08	5,8	7,8	7,8	1	1	1	1	1	1	1	1	1	0	1	-5,990134	273,078461	309,316311	0
15.01.2021	04:37:30	0	0	4,745468	3,02175	9,756	-0,77	82,701	0	1009,92	5,8	7,7	7,7	1	1	1	1	1	1	1	1	1	0	1	-1,409443	273,089786	313,949306	0
15.01.2021	04:37:31	0	0	4,06752	2,98125	2,304	-0,764	82,708	0	1010,26	5,8	7,7	7,8	1	1	1	1	1	1	1	1	1	0	1	-5,355884	273,078461	309,950561	0
15.01.2021	04:37:32	0	0	2,711696	2,8155	18,4608	-0,769	82,722	0	1010,2	5,8	7,7	7,7	1	1	1	1	1	1	1	1	1	0	1	-7,329105	273,152188	308,317986	0
15.01.2021	04:37:33	0	0	3,954557	2,826	14,6484	-0,766	82,695	0	1010,26	5,8	7,7	7,7	1	1	1	1	1	1	1	1	1	0	1	-5,567301	273,236183	310,468222	0
15.01.2021	04:37:34	0	0	4,519494	2,99925	15,0372	-0,762	82,768	0	1010,38	5,8	7,8	7,7	1	1	1	1	1	1	1	1	1	0	1	-7,681466	273,160713	308,005033	0
15.01.2021	04:37:35	0	0	3,72856	2,95725	15,048	-0,769	82,71	0	1010,3	5,8	7,8	7,8	1	1	1	1	1	1	1	1	1	0	1	-6,976744	273,23333	309,045578	0
15.01.2021	04:37:36	0	0	3,954557	2,63325	22,9284	-0,766	82,718	0	1010,14	5,8	7,7	7,7	1	1	1	1	1	1	1	1	1	0	1	-8,45666	273,190581	307,367933	0
15.01.2021	04:37:37	0	0	2,598709	2,24925	25,0164	-0,771	82,706	0	1010,2	5,8	7,8	7,7	1	1	1	1	1	1	1	1	1	0	1	-3,523608	273,115289	311,952962	0
15.01.2021	04:37:38	0	0	4,180507	2,025	19,1628	-0,764	82,713	0	1010,2	5,8	7,7	7,8	1	1	1	1	1	1	1	1	1	0	1	-8,597604	273,236183	307,437919	0
15.01.2021	04:37:39	0	0	3,841547	1,932	19,152	-0,767	82,707	0	1010,2	5,8	7,7	7,8	1	1	1	1	1	1	1	1	1	0	1	-5,919662	273,149347	309,714299	0
15.01.2021	04:37:40	0	0	4,180532	1,96875	7,6032	-0,766	82,706	0	1010,22	5,8	7,8	7,7	1	1	1	1	1	1	1	1	1	0	1	-3,805497	273,201971	312,071772	0
15.01.2021	04:37:41	0	0	5,42336	2,01975	20,628	-0,765	82,701	0	1010,24	5,8	7,7	7,8	1	1	1	1	1	1	1	1	1	0	1	-5,073996	273,192004	310,757179	0
15.01.2021	04:37:42	0	0	4,858427	2,1015	18,8496	-0,767	82,719	0	1010,34	5,8	7,7	7,8	1	1	1	1	1	1	1	1	1	0	1	-5,073996	273,068558	310,186714	0
15.01.2021	04:37:43	0	0	4,632481	2,37375	26,8848	-0,765	82,723	0	1010,26	5,8	7,8	7,7	1	1	1	1	1	1	1	1	1	0	1	-4,439746	273,211944	311,483644	0
15.01.2021	04:37:44	0	0	2,937671	2,46675	10,0656	-0,767	82,718	0	1010,22	5,8	7,7	7,7	1	1	1	1	1	1	1	1	1	0	1	-6,553911	273,179197	309,218044	0
15.01.2021	04:37:45	0	0	4,519494	2,69475	11,1924	-0,768	82,717	0	1010,28	5,8	7,7	7,7	1	1	1	1	1	1	1	1	1	0	1	-3,59408	273,243319	312,474455	0
15.01.2021	04:37:46	0	0	4,067544	2,793	0,4824	-0,774	82,729	0	1010,22	5,8	7,8	7,7	1	1	1	1	1	1	1	1	1	0	1	-0,98661	272,902386	313,50741	0
15.01.2021	04:37:47	0	0	2,711696	2,9025	13,5504	-0,774	82,711	0	1010,3	5,8	7,8	7,7	1	1	1	1	1	1	1	1	1	0	1	-3,59408	273,069973	311,673161	0
15.01.2021	04:37:48	0	0	3,163646	2,8155	356,5332	-0,777	82,722	0	1010,18	5,8	7,8	7,7	1	1	1	1	1	1	1	1	1	0	1	-7,188161	273,21907	308,768192	0
15.01.2021	04:37:49	0	0	3,728582	2,832	10,062	-0,774	82,723	0	1010,4	5,8	7,7	7,7	1	1	1	1	1	1	1	1	1	0	1	-3,805497	273,172086	311,933579	0
15.01.2021	04:37:50	0	0	3,615595	3,16275	8,7228	-0,773	82,738	0	1010,24	5,8	7,8	7,7	1	1	1	1	1	1	1	1	1	0	1	-6,694856	273,048768	308,474469	0
15.01.2021	04:37:51	0	0	3,163646	3,41775	10,4328	-0,77	82,713	0	1010,22	5,8	7,8	7,7	1	1	1	1	1	1	1	1	1	0	1	-3,312192	273,101116	312,098899	0
15.01.2021	04:37:52	0	0	3,38962	3,47475	16,8444	-0,774	82,722	0	1010,18	5,8	7,7	7,7	1	1	1	1	1	1	1	1	1	0	1	-10,923185	273,060074	304,298345	0
15.01.2021	04:37:53	0	0	3,502587	3,3465	17,226	-0,779	82,73	0	1010,16	5,8	7,8	7,8	1	1	1	1	1	1	1	1	1	0	1	-5,426357	273,094034	309,952016	0
15.01.2021	04:37:54	0	0	5,197418	3,45	18,432	-0,773	82,721	0	1010,16	5,8	7,7	7,7	1	1	1	1	1	1	1	1	1	0	1	-4,016913	273,064316	311,224204	0
15.01.2021	04:37:55	0	0	3,615573	3,3825	25,038	-0,769	82,726	0	1010,22	5,8	7,7	7,8	1	1	1	1	1	1	1	1	1	0	1	-2,889359	273,211944	313,034032	0
15.01.2021	04:37:56	0	0	4,971443	3,324	31,7844	-0,771	82,727	0	1010,22	5,8	7,7	7,7	1	1	1	1	1	1	1	1	1	0	1	-4,510218	273,18062	311,268314	0
15.01.2021	04:37:57	0	0	2,937671	3,18225	19,9008	-0,766	82,734	0	1010,22	5,8	7,8	7,7	1	1	1	1	1	1	1	1	1	0	1	-4,439746	273,241891	311,622186	0
15.01.2021	04:37:58	0	0	4,632481	3,31725	7,128	-0,772	82,73	0	1010,2	5,8	7,7	7,7	1	1	1	1	1	1	1	1	1	0	1	-1,902748	273,164977	313,803462	0
15.01.2021	04:37:59	0	0	3,954557	3,2235	18,4716	-0,765	82,73	0	1010,22	5,8	7,7	7,7	1	1	1	1	1	1	1	1	1	0	1	-2,184637	273,082707	313,141418	0
15.01.2021	04:38:00	0	0	2,824684	3,37125	6,0768	-0,766	82,74	0	1010,24	5,8	7,8	7,7	1	1	1	1	1	1	1	1	1	0	1	-8,033827	273,05442	307,161597	0
15.01.2021	04:38:01	0	0	2,824684	3,37125	6,0768	-0,766	82,74	0	1010,24	5,8	7,8	7,7	1	1	1	1	1	1	1	1	1	0	1	-8,033827	273,05442	307,161597	0
15.01.2021	04:38:02	0	0	3,38962	3,393	15,8832	-0,769	82,731	0	1010,38	5,8	7,8	7,7	1	1	1	1	1	1	1	1	1	0	1	-7,047216	273,13373	308,514565	0
15.01.2021	04:38:03	0	0	4,40648	3,33075	3,3984	-0,767	82,747	0	1010,2	5,8	7,8	7,8	1	1	1	1	1	1	1	1	1	0	1	-0	273,221921	315,969542	0
15.01.2021	04:38:04	0	0	3,050658	3,0135	9,3564	-0,772	82,731	0	1010,22	5,8	7,7	7,7	1	1	1	1	1	1	1	1	1	0	1	-0,563777	273,164977	315,142433	0
15.01.2021	04:38:05	0	0	3,84157	2,92875	11,7252	-0,775	82,72	0	1010,22	5,8	7,8	7,7	1	1	1	1	1	1	1	1	1	0	1	-5,003524	273,221921	310,966018	0
15.01.2021	04:38:06	0	0	4,293493	2,91825	359,4744	-0,773	82,749	0	1010,32	5,8	7,7	7,8	1	1	1	1	1	1	1	1	1	0	1	-3,805497	273,206245	312,091535	0
15.01.2021	04:38:07	0	0	2,824667	2,721	10,8216	-0,773	82,734	0	1010,06	5,8	7,8	7,8	1	1	1	1	1	1	1	1	1	0	1	-4,933051	273,106784	310,504224	0
15.01.2021	04:38:08	0	0	3,615573	2,36625	15,0408	-0,768	82,737	0	1010,22	5,8	7,8	7,8	1	1	1	1	1	1	1	1	1	0	1	-3,100775	273,223347	312,875362	0
15.01.2021	04:38:09	0	0	3,276633	2,17425	5,6628	-0,77	82,748	0	1010,3	5,8	7,8	7,7	1	1	1	1	1	1	1	1	1	0	1	-2,184637	273,17493	313,567588	0
15.01.2021	04:38:10	0	0	4,519494	2,1645	7,1424	-0,766	82,757	0	1010,24	5,8	7,8	7,7	1	1	1	1	1	1	1	1	1	0	1	-6,342495	273,20482	309,547949	0
15.01.2021	04:38:11	0	0	4,632481	2,58075	6,066	-0,77	82,751	0	1010,16	5,8	7,8	7,7	1	1	1	1	1	1	1	1	1	0	1	-8,738548	273,130891	306,810117	0
15.01.2021	04:38:12	0	0	2,711696	3,04725	2,6496	-0,768	82,762	0	1010,28	5,8	7,8	7,7	1	1	1	1	1	1	1	1	1	0	1	-1,761804	273,231904	314,253918	0
15.01.2021	04:38:13	0	0	5,0844	3,3105	8,3556	-0,773	82,758	0	1010,32	5,8	7,7	7,8	1	1	1	1	1	1	1	1	1	0	1	-7,540521	273,216219	308,402645	0
15.01.2021	04:38:14	0	0	2,485722	3,31575	14,6628	-0,772	82,765	0	1010,24	5,9	7,8	7,7	1	1	1	1	1	1	1	1	1	0	1	-4,298802	273,118125	311,190871	0
15.01.2021	04:38:15	0	0	3,163627	3,18675	10,0512	-0,77	82,767	0	1010,34	5,8	7,7	7,8	1	1	1	1	1	1	1	1	1	0	1	-4,933051	273,216219	311,010115	0
15.01.2021	04:38:16	0	0	3,276613	2,97075	9,3636	-0,773	82,772	0	1010,38	5,8	7,8	7,8	1	1	1	1	1	1	1	1	1	0	1	-4,792107	273,17493	310,960118	0
15.01.2021	04:38:17	0	0	4,406506	2,65725	18,4572	-0,774	82,766	0	1010,32	5,8	7,7	7,7	1	1	1	1	1	1	1	1	1	0	1	-9,513742	273,231904	306,50198	0
15.01.2021	04:38:18	0	0	2,71168	2,409	24,7356	-0,773	82,767	0	1010,24	5,8	7,7	7,8	1	1	1	1	1	1	1	1	1	0	1	-5,567301	273,09545	309,817614	0
15.01.2021	04:38:19	0	0	3,72856	2,40675	3,762	-0,772	82,771	0	1010,22	5,8	7,7	7,8	1	1	1	1	1	1	1	1	1	0	1	-5,990134	273,116707	309,492987	0
15.01.2021	04:38:20	0	0	4,971443	2,7405	13,5468	-0,769	82,757	0	1010,34	5,8	7,7	7,7	1	1	1	1	1	1	1	1	1	0	1	-4,651163	273,217644	311,298597	0
15.01.2021	04:38:21	0	0	3,728582	3,0615	13,932	-0,771	82,767	0	1010,28	5,8	7,8	7,7	1	1	1	1	1	1	1	1	1	0	1	-3,805497	273,082707	311,520558	0
15.01.2021	04:38:22	0	0	5,0844	3,04575	9,7704	-0,77	82,767	0	1010,22	5,8	7,8	7,8	1	1	1	1	1	1	1	1	1	0	1	-4,22833	273,236183	311,807193	0
15.01.2021	04:38:23	0	0	3,954533	2,9505	10,4436	-0,769	82,783	0	1010,34	5,8	7,8	7,8	1	1	1	1	1	1	1	1	1	0	1	-6,694856	273,183465	309,096834	0
15.01.2021	04:38:24	0	0	3,05064	2,919	11,718	-0,772	82,779	0	1010,16	5,8	7,7	7,8	1	1	1	1	1	1	1	1	1	0	1	-8,45666	273,226199	307,532671	0
15.01.2021	04:38:25	0	0	5,197418	2,93475	17,6904	-0,77	82,791	0	1010,34	5,8	7,8	7,7	1	1	1	1	1	1	1	1	1	0	1	-9,654686	273,210519	306,262114	0
15.01.2021	04:38:26	0	0	4,180507	3,14325	4,8456	-0,77	82,784	0	1010,28	5,8	7,8	7,8	1	1	1	1	1	1	1	1	1	0	1	-1,409443	273,116707	314,073678	0
15.01.2021	04:38:27	0	0	4,971443	3,087	6,4404	-0,778	82,782	0	1010,24	5,8	7,8	7,7	1	1	1	1	1	1	1	1	1	0	1	-8,879493	273,20482	307,010951	0
15.01.2021	04:38:28	0	0	2,598709	3,18	9,756	-0,773	82,767	0	1010,06	5,8	7,8	7,7	1	1	1	1	1	1	1	1	1	0	1	-3,382664	273,176352	312,376138	0
15.01.2021	04:38:29	0	0	3,615573	3,23775	10,4364	-0,774	82,77	0	1010,3	5,8	7,8	7,8	1	1	1	1	1	1	1	1	1	0	1	-5,285412	273,061488	309,942647	0
15.01.2021	04:38:30	0	0	4,858456	3,1965	16,488	-0,773	82,777	0	1010,18	5,8	7,8	7,7	1	1	1	1	1	1	1	1	1	0	1	-9,654686	273,16782	306,064669	0
15.01.2021	04:38:31	0	0	3,38962	3,39225	4,4856	-0,776	82,788	0	1010,1	5,8	7,7	7,7	1	1	1	1	1	1	1	1	1	0	1	-5,567301	273,05866	309,647702	0
15.01.2021	04:38:32	0	0	3,728582	3,636	26,5176	-0,776	82,789	0	1010,26	5,8	7,8	7,7	1	1	1	1	1	1	1	1	1	0	1	-7,188161	273,139407	308,399859	0
15.01.2021	04:38:33	0	0	3,841547	3,61125	20,2896	-0,774	82,777	0	1010,22	5,8	7,7	7,8	1	1	1	1	1	1	1	1	1	0	1	-5,708245	273,244746	310,366895	0
15.01.2021	04:38:34	0	0	3,163646	3,474	8,2584	-0,769	82,781	0	1010,3	5,8	7,8	7,7	1	1	1	1	1	1	1	1	1	0	1	-4,792107	273,05866	310,422896	0
15.01.2021	04:38:35	0	0	4,293493	3,54675	9,0108	-0,774	82,78	0	1010,24	5,8	7,8	7,8	1	1	1	1	1	1	1	1	1	0	1	-4,439746	273,08837	310,912463	0
15.01.2021	04:38:36	0	0	2,937653	3,4035	20,628	-0,775	82,782	0	1010,2	5,8	7,8	7,8	1	1	1	1	1	1	1	1	1	0	1	-5,285412	273,05442	309,910011	0
15.01.2021	04:38:37	0	0	4,632453	3,14325	16,8732	-0,775	82,774	0	1010,18	5,8	7,8	7,8	1	1	1	1	1	1	1	1	1	0	1	-6,131078	273,116707	309,352043	0
15.01.2021	04:38:38	0	0	4,632481	3,0585	15,7824	-0,776	82,777	0	1010,16	5,8	7,8	7,7	1	1	1	1	1	1	1	1	1	0	1	-6,131078	273,060074	309,090453	0
15.01.2021	04:38:39	0	0	3,163627	3,081	17,6976	-0,783	82,774	0	1010,14	5,8	7,7	7,8	1	1	1	1	1	1	1	1	1	0	1	-10,782241	273,189157	305,03577	0
15.01.2021	04:38:40	0	0	3,841547	3,02475	8,6184	-0,768	82,786	0	1010,3	5,8	7,8	7,8	1	1	1	1	1	1	1	1	1	0	1	-5,708245	273,060074	309,513286	0
15.01.2021	04:38:41	0	0	4,632453	3,05775	10,4364	-0,772	82,772	0	1010,12	5,8	7,8	7,8	1	1	1	1	1	1	1	1	1	0	1	-5,708245	273,201971	310,169023	0
15.01.2021	04:38:42	0	0	4,858427	3,06225	8,6256	-0,768	82,788	0	1010,24	5,8	7,8	7,8	1	1	1	1	1	1	1	1	1	0	1	-5,919662	273,108201	309,524161	0
15.01.2021	04:38:43	0	0	2,71168	2,92575	4,8564	-0,774	82,771	0	1010,34	5,8	7,8	7,8	1	1	1	1	1	1	1	1	1	0	1	-5,708245	273,06573	309,539403	0
15.01.2021	04:38:44	0	0	4,632481	2,7525	360	-0,772	82,781	0	1010,14	5,8	7,7	7,7	1	1	1	1	1	1	1	1	1	0	1	-5,21494	273,196275	310,635986	0
15.01.2021	04:38:45	0	0	2,71168	2,76375	360	-0,773	82,77	0	1010,42	5,8	7,8	7,8	1	1	1	1	1	1	1	1	1	0	1	-6,412967	273,230477	309,596157	0
15.01.2021	04:38:46	0	0	2,824667	2,76375	0,1188	-0,772	82,782	0	1010,3	5,7	7,8	7,8	1	1	1	1	1	1	1	1	1	0	1	-5,426357	273,089786	309,932393	0
15.01.2021	04:38:47	0	0	3,841547	2,78925	359,8848	-0,773	82,785	0	1010,24	5,8	7,8	7,8	1	1	1	1	1	1	1	1	1	0	1	-6,8358	273,123798	308,680086	0
15.01.2021	04:38:48	0	0	3,05064	2,73075	351,018	-0,776	82,774	0	1010,14	5,8	7,8	7,8	1	1	1	1	1	1	1	1	1	0	1	-2,255109	273,071387	313,018665	0
15.01.2021	04:38:49	0	0	5,0844	2,712	0	-0,774	82,793	0	1010,32	5,8	7,8	7,8	1	1	1	1	1	1	1	1	1	0	1	-3,453136	273,105367	311,977592	0
15.01.2021	04:38:50	0	0	4,632453	2,733	0,4896	-0,775	82,78	0	1010,22	5,8	7,8	7,8	1	1	1	1	1	1	1	1	1	0	1	-4,369274	273,028997	310,70878	0
15.01.2021	04:38:51	0	0	3,276633	2,87175	7,1352	-0,774	82,791	0	1010,22	5,8	7,7	7,7	1	1	1	1	1	1	1	1	1	0	1	-4,933051	273,159292	310,746878	0
15.01.2021	04:38:52	0	0	4,519467	2,88675	6,1056	-0,775	82,778	0	1010,08	5,8	7,8	7,8	1	1	1	1	1	1	1	1	1	0	1	-6,553911	273,234757	309,475011	0
15.01.2021	04:38:53	0	0	4,971413	2,99175	0,8784	-0,772	82,777	0	1010,28	5,7	7,7	7,8	1	1	1	1	1	1	1	1	1	0	1	-5,496829	273,197699	310,360682	0
15.01.2021	04:38:54	0	0	3,276613	3,195	5,2308	-0,772	82,783	0	1010,26	5,8	7,8	7,8	1	1	1	1	1	1	1	1	1	0	1	-9,020437	273,143666	306,587268	0
15.01.2021	04:38:55	0	0	3,050658	3,345	13,1652	-0,774	82,794	0	1010,06	5,8	7,8	7,7	1	1	1	1	1	1	1	1	1	0	1	-1,832276	273,06573	313,415372	0
15.01.2021	04:38:56	0	0	2,937653	3,327	9	-0,774	82,788	0	1010,26	5,8	7,8	7,8	1	1	1	1	1	1	1	1	1	0	1	-5,496829	273,108201	309,946994	0
15.01.2021	04:38:57	0	0	5,0844	3,195	7,5132	-0,776	82,789	0	1010,32	5,8	7,8	7,8	1	1	1	1	1	1	1	1	1	0	1	-5,637773	273,057247	309,570703	0
15.01.2021	04:38:58	0	0	4,40648	3,25275	18,4536	-0,779	82,782	0	1010,22	5,9	7,8	7,8	1	1	1	1	1	1	1	1	1	0	1	-6,342495	273,163555	309,357145	0
15.01.2021	04:38:59	0	0	2,598709	3,27075	10,4436	-0,776	82,801	0	1010,32	5,7	7,8	7,7	1	1	1	1	1	1	1	1	1	0	1	-6,976744	273,078461	308,329701	0
15.01.2021	04:39:00	0	0	3,728582	3,621	345,7836	-0,773	82,799	0	1010,44	5,7	7,8	7,7	1	1	1	1	1	1	1	1	1	0	1	-2,536998	273,068558	312,723712	0
15.01.2021	04:39:01	0	0	3,728582	3,621	345,7836	-0,773	82,799	0	1010,44	5,7	7,8	7,7	1	1	1	1	1	1	1	1	1	0	1	-2,536998	273,068558	312,723712	0
15.01.2021	04:39:02	0	0	3,05064	3,4575	356,9796	-0,774	82,803	0	1010,24	5,7	7,7	7,8	1	1	1	1	1	1	1	1	1	0	1	-4,580691	273,159292	311,099239	0
15.01.2021	04:39:03	0	0	3,728582	3,59325	3,78	-0,785	82,79	0	1010,24	5,8	7,8	7,7	1	1	1	1	1	1	1	1	1	0	1	-5,84919	273,23333	310,173133	0
15.01.2021	04:39:04	0	0	4,293493	3,723	358,7184	-0,784	82,793	0	1010,22	5,7	7,8	7,8	1	1	1	1	1	1	1	1	1	0	1	-9,725159	273,176352	306,033643	0
15.01.2021	04:39:05	0	0	3,276613	3,75225	358,4124	-0,774	82,8	0	1010,24	5,9	7,8	7,8	1	1	1	1	1	1	1	1	1	0	1	-6,8358	273,06573	308,411848	0
15.01.2021	04:39:06	0	0	3,3896	3,86925	4,4748	-0,775	82,79	0	1010,24	5,8	7,8	7,8	1	1	1	1	1	1	1	1	1	0	1	-2,889359	273,082707	312,436696	0
15.01.2021	04:39:07	0	0	5,42336	3,89475	1,9332	-0,779	82,788	0	1010,2	5,8	7,8	7,8	1	1	1	1	1	1	1	1	1	0	1	-5,496829	273,227625	310,499099	0
15.01.2021	04:39:08	0	0	3,05064	3,78675	7,5024	-0,784	82,782	0	1010,16	5,7	7,8	7,8	1	1	1	1	1	1	1	1	1	0	1	-7,117689	273,084123	308,214904	0
15.01.2021	04:39:09	0	0	3,05064	3,78675	8,2692	-0,776	82,801	0	1010,22	5,8	7,8	7,8	1	1	1	1	1	1	1	1	1	0	1	-7,047216	273,200547	308,823466	0
15.01.2021	04:39:10	0	0	4,180507	3,46425	14,31	-0,774	82,796	0	1010,32	5,8	7,8	7,8	1	1	1	1	1	1	1	1	1	0	1	-6,20155	273,234757	309,827372	0
15.01.2021	04:39:11	0	0	4,06752	3,117	21,7872	-0,773	82,811	0	1010,42	5,8	7,7	7,8	1	1	1	1	1	1	1	1	1	0	1	-7,329105	273,096866	308,062353	0
15.01.2021	04:39:12	0	0	3,72856	2,8725	16,1064	-0,778	82,825	0	1010,14	5,7	7,8	7,8	1	1	1	1	1	1	1	1	1	0	1	-4,016913	273,194851	311,827428	0
15.01.2021	04:39:13	0	0	2,71168	2,7435	21,798	-0,775	82,815	0	1010,26	5,7	7,8	7,8	1	1	1	1	1	1	1	1	1	0	1	-2,325581	273,125216	313,196859	0
15.01.2021	04:39:14	0	0	4,40648	2,85375	8,2584	-0,777	82,811	0	1010,24	5,8	7,8	7,8	1	1	1	1	1	1	1	1	1	0	1	-7,82241	273,226199	308,16692	0
15.01.2021	04:39:15	0	0	3,276613	3,04425	7,5132	-0,777	82,8	0	1010,22	5,8	7,8	7,8	1	1	1	1	1	1	1	1	1	0	1	-5,496829	273,139407	310,091191	0
15.01.2021	04:39:16	0	0	4,971443	3,0285	12,8628	-0,777	82,796	0	1010,1	5,7	7,8	7,7	1	1	1	1	1	1	1	1	1	0	1	-2,60747	273,09545	312,777445	0
15.01.2021	04:39:17	0	0	3,163627	3,03675	13,1724	-0,763	82,82	0	1010,32	5,8	7,8	7,8	1	1	1	1	1	1	1	1	1	0	1	-7,963354	273,05018	307,212494	0
15.01.2021	04:39:18	0	0	2,71168	3,4755	7,8984	-0,777	82,808	0	1010,26	5,8	7,8	7,8	1	1	1	1	1	1	1	1	1	0	1	-3,453136	273,16782	312,266219	0
15.01.2021	04:39:19	0	0	4,40648	3,77925	5,2308	-0,777	82,807	0	1010,2	5,8	7,8	7,8	1	1	1	1	1	1	1	1	1	0	1	-6,20155	273,226199	309,78778	0
15.01.2021	04:39:20	0	0	3,954533	3,8925	6,804	-0,772	82,795	0	1010,18	5,8	7,8	7,8	1	1	1	1	1	1	1	1	1	0	1	-7,188161	273,120961	308,314618	0
15.01.2021	04:39:21	0	0	3,841547	3,5205	12,4884	-0,774	82,802	0	1010,34	5,7	7,8	7,8	1	1	1	1	1	1	1	1	1	0	1	-4,862579	273,06573	310,385069	0
15.01.2021	04:39:22	0	0	3,954533	3,16425	24,7284	-0,775	82,797	0	1010,26	5,8	7,8	7,8	1	1	1	1	1	1	1	1	1	0	1	-6,694856	273,098283	308,703146	0
15.01.2021	04:39:23	0	0	3,163646	3,072	27,666	-0,776	82,809	0	1010,34	5,7	7,8	7,7	1	1	1	1	1	1	1	1	1	0	1	-4,369274	273,194851	311,475068	0
15.01.2021	04:39:24	0	0	4,971413	3,14625	15,4188	-0,775	82,816	0	1010,26	5,7	7,8	7,8	1	1	1	1	1	1	1	1	1	0	1	-8,033827	273,193428	307,803931	0
15.01.2021	04:39:25	0	0	3,38962	3,4065	7,8804	-0,774	82,798	0	1010,28	5,7	7,8	7,7	1	1	1	1	1	1	1	1	1	0	1	-5,778717	273,213369	310,151265	0
15.01.2021	04:39:26	0	0	3,502587	3,74025	13,9284	-0,775	82,803	0	1010,3	5,7	7,8	7,8	1	1	1	1	1	1	1	1	1	0	1	-9,302326	273,060074	305,919205	0
15.01.2021	04:39:27	0	0	2,824667	4,02	15,7932	-0,778	82,788	0	1010,18	5,8	7,7	7,8	1	1	1	1	1	1	1	1	1	0	1	-8,033827	273,159292	307,646103	0
15.01.2021	04:39:28	0	0	3,050658	4,23225	15,0336	-0,778	82,8	0	1010,3	5,7	7,8	7,7	1	1	1	1	1	1	1	1	1	0	1	-2,748414	273,077046	312,551495	0
15.01.2021	04:39:29	0	0	4,74544	4,48425	13,9212	-0,776	82,798	0	1010,28	5,7	7,8	7,8	1	1	1	1	1	1	1	1	1	0	1	-7,610994	273,078461	307,695451	0
15.01.2021	04:39:30	0	0	2,824667	4,2945	14,6628	-0,778	82,801	0	1010,26	5,8	7,8	7,8	1	1	1	1	1	1	1	1	1	0	1	-7,751938	273,094034	307,626435	0
15.01.2021	04:39:31	0	0	4,632453	3,834	13,9212	-0,779	82,807	0	1010,32	5,8	7,8	7,8	1	1	1	1	1	1	1	1	1	0	1	-5,567301	273,23333	310,455021	0
15.01.2021	04:39:32	0	0	3,05064	3,621	14,3028	-0,779	82,804	0	1010,4	5,8	7,7	7,8	1	1	1	1	1	1	1	1	1	0	1	-7,82241	273,157871	307,850951	0
15.01.2021	04:39:33	0	0	3,3896	3,5475	12,8484	-0,784	82,797	0	1010,08	5,7	7,8	7,8	1	1	1	1	1	1	1	1	1	0	1	-6,553911	273,239037	309,494815	0
15.01.2021	04:39:34	0	0	3,050658	3,67425	16,11	-0,777	82,799	0	1010,32	5,7	7,8	7,7	1	1	1	1	1	1	1	1	1	0	1	-13,03735	273,13373	302,524431	0
15.01.2021	04:39:35	0	0	2,937671	3,7635	15,0408	-0,777	82,8	0	1010,32	5,7	7,7	7,7	1	1	1	1	1	1	1	1	1	0	1	-4,157858	273,053007	311,03104	0
15.01.2021	04:39:36	0	0	3,954533	3,7275	12,4524	-0,784	82,789	0	1010,2	5,7	7,8	7,8	1	1	1	1	1	1	1	1	1	0	1	-5,003524	273,089786	310,355226	0
15.01.2021	04:39:37	0	0	2,598693	3,76275	3,8736	-0,776	82,806	0	1010,28	5,7	7,8	7,8	1	1	1	1	1	1	1	1	1	0	1	-6,765328	273,062902	308,46926	0
15.01.2021	04:39:38	0	0	4,067544	3,834	360	-0,776	82,803	0	1010,36	5,7	7,8	7,7	1	1	1	1	1	1	1	1	1	0	1	-3,523608	273,109619	311,926763	0
15.01.2021	04:39:39	0	0	2,711696	3,55425	7,1316	-0,778	82,809	0	1010,24	5,8	7,8	7,7	1	1	1	1	1	1	1	1	1	0	1	-8,738548	273,18062	307,039984	0
15.01.2021	04:39:40	0	0	3,841547	3,2955	4,8348	-0,78	82,793	0	1010,28	5,7	7,8	7,8	1	1	1	1	1	1	1	1	1	0	1	-6,976744	273,23333	309,045578	0
15.01.2021	04:39:41	0	0	4,06752	2,964	359,5248	-0,783	82,799	0	1010,22	5,8	7,7	7,8	1	1	1	1	1	1	1	1	1	0	1	-0,98661	273,176352	314,772191	0
15.01.2021	04:39:42	0	0	4,858427	2,9325	3,0168	-0,777	82,809	0	1010,16	5,7	7,8	7,8	1	1	1	1	1	1	1	1	1	0	1	-4,510218	273,223347	311,465919	0
15.01.2021	04:39:43	0	0	2,71168	3,03	5,22	-0,781	82,795	0	1010,14	5,7	7,8	7,8	1	1	1	1	1	1	1	1	1	0	1	-5,84919	273,081292	309,470328	0
15.01.2021	04:39:44	0	0	3,954557	3,165	3,78	-0,784	82,802	0	1010,08	5,7	7,8	7,7	1	1	1	1	1	1	1	1	1	0	1	-4,510218	273,081292	310,809299	0
15.01.2021	04:39:45	0	0	2,937653	3,14925	6,4404	-0,779	82,794	0	1010,2	5,8	7,8	7,8	1	1	1	1	1	1	1	1	1	0	1	-7,610994	273,203396	308,272862	0
15.01.2021	04:39:46	0	0	3,841547	2,97225	1,9368	-0,775	82,796	0	1010,42	5,7	7,8	7,8	1	1	1	1	1	1	1	1	1	0	1	-2,818887	273,149347	312,815074	0
15.01.2021	04:39:47	0	0	4,858456	2,93925	5,6772	-0,779	82,803	0	1010,34	5,7	7,8	7,7	1	1	1	1	1	1	1	1	1	0	1	-0,845666	273,057247	314,36281	0
15.01.2021	04:39:48	0	0	4,971413	2,95575	5,6736	-0,784	82,77	0	1010,24	5,7	7,8	7,8	1	1	1	1	1	1	1	1	1	0	1	-10,993658	273,130891	304,555008	0
15.01.2021	04:39:49	0	0	2,937653	2,9625	10,062	-0,778	82,801	0	1010,2	5,8	7,8	7,8	1	1	1	1	1	1	1	1	1	0	1	-8,597604	273,21907	307,358749	0
15.01.2021	04:39:50	0	0	3,163627	2,88225	1,1916	-0,784	82,776	0	1010,12	5,7	7,8	7,8	1	1	1	1	1	1	1	1	1	0	1	-5,21494	273,089786	310,143809	0
15.01.2021	04:39:51	0	0	3,615595	2,7555	360	-0,779	82,789	0	1010,28	5,7	7,8	7,7	1	1	1	1	1	1	1	1	1	0	1	-4,651163	273,115289	310,825407	0
15.01.2021	04:39:52	0	0	5,42336	2,6955	1,566	-0,78	82,779	0	1010,12	5,7	7,8	7,8	1	1	1	1	1	1	1	1	1	0	1	-5,919662	273,199123	309,944434	0
15.01.2021	04:39:53	0	0	4,74544	2,63625	359,8848	-0,777	82,791	0	1010,3	5,8	7,8	7,8	1	1	1	1	1	1	1	1	1	0	1	-7,751938	273,147927	307,875458	0
15.01.2021	04:39:54	0	0	3,163627	2,64075	356,5116	-0,782	82,797	0	1010,16	5,7	7,8	7,8	1	1	1	1	1	1	1	1	1	0	1	-5,708245	273,231904	310,307477	0
15.01.2021	04:39:55	0	0	4,06752	2,68875	4,086	-0,778	82,792	0	1010,18	5,8	7,8	7,8	1	1	1	1	1	1	1	1	1	0	1	-6,412967	273,098283	308,985035	0
15.01.2021	04:39:56	0	0	4,632453	2,7075	3,0132	-0,78	82,804	0	1010,26	5,8	7,8	7,8	1	1	1	1	1	1	1	1	1	0	1	-5,355884	273,210519	310,560916	0
15.01.2021	04:39:57	0	0	2,824684	2,74725	1,9116	-0,781	82,789	0	1010,3	5,7	7,8	7,7	1	1	1	1	1	1	1	1	1	0	1	-7,117689	273,089786	308,241061	0
15.01.2021	04:39:58	0	0	4,632453	2,7675	5,6664	-0,777	82,783	0	1010,26	5,7	7,8	7,8	1	1	1	1	1	1	1	1	1	0	1	-3,59408	273,240464	312,461249	0
15.01.2021	04:39:59	0	0	3,841547	2,7735	13,914	-0,779	82,794	0	1010,26	5,8	7,8	7,8	1	1	1	1	1	1	1	1	1	0	1	-2,043693	273,096866	313,347765	0
15.01.2021	04:40:00	0	0	2,824667	3	36,234	-0,78	82,793	0	1010,3	5,7	7,8	7,8	1	1	1	1	1	1	1	1	1	0	1	-4,933051	273,086954	310,412618	0
15.01.2021	04:40:01	0	0	2,824667	2,8875	35,0892	-0,78	82,785	0	1010,24	5,7	7,8	7,8	1	1	1	1	1	1	1	1	1	0	1	-2,889359	273,075631	312,404016	0
15.01.2021	04:40:02	0	0	2,824667	2,8875	35,0892	-0,78	82,785	0	1010,24	5,7	7,8	7,8	1	1	1	1	1	1	1	1	1	0	1	-2,889359	273,075631	312,404016	0
15.01.2021	04:40:03	0	0	4,180507	2,93175	33,6456	-0,78	82,798	0	1010,28	5,7	7,8	7,8	1	1	1	1	1	1	1	1	1	0	1	-3,523608	273,06573	311,72404	0
15.01.2021	04:40:04	0	0	4,40648	3,057	23,9724	-0,776	82,795	0	1010,32	5,7	7,8	7,8	1	1	1	1	1	1	1	1	1	0	1	-7,258633	273,220495	308,704314	0
15.01.2021	04:40:05	0	0	3,954533	3,02325	18,45	-0,78	82,793	0	1010,36	5,7	7,8	7,8	1	1	1	1	1	1	1	1	1	0	1	-6,976744	273,211944	308,946647	0
15.01.2021	04:40:06	0	0	2,824667	2,9865	18,9036	-0,781	82,792	0	1010,28	5,7	7,8	7,8	1	1	1	1	1	1	1	1	1	0	1	-5,355884	273,155029	310,304341	0
15.01.2021	04:40:07	0	0	2,937653	2,9265	18,846	-0,781	82,787	0	1010,24	5,7	7,8	7,8	1	1	1	1	1	1	1	1	1	0	1	-8,104299	273,234757	307,924623	0
15.01.2021	04:40:08	0	0	4,632453	2,9025	26,1792	-0,781	82,766	0	1010,22	5,7	7,8	7,8	1	1	1	1	1	1	1	1	1	0	1	-3,946441	273,106784	311,490834	0
15.01.2021	04:40:09	0	0	3,841547	2,78775	14,31	-0,779	82,794	0	1010,3	5,8	7,8	7,8	1	1	1	1	1	1	1	1	1	0	1	-7,610994	273,051594	307,571379	0
15.01.2021	04:40:10	0	0	3,615595	2,63925	10,818	-0,782	82,793	0	1010,2	5,7	7,8	7,7	1	1	1	1	1	1	1	1	1	0	1	-3,312192	273,214794	312,624382	0
15.01.2021	04:40:11	0	0	3,72856	2,72625	359,1072	-0,775	82,785	0	1010,3	5,7	7,8	7,8	1	1	1	1	1	1	1	1	1	0	1	-4,721635	273,128054	310,813917	0
15.01.2021	04:40:12	0	0	4,74544	2,93325	343,5228	-0,779	82,782	0	1010,3	5,8	7,8	7,8	1	1	1	1	1	1	1	1	1	0	1	-0,704722	273,051594	314,477651	0
15.01.2021	04:40:13	0	0	5,084431	3	1,1736	-0,78	82,787	0	1010,22	5,7	7,8	7,7	1	1	1	1	1	1	1	1	1	0	1	-7,258633	273,120961	308,244145	0
15.01.2021	04:40:14	0	0	2,824667	3,0705	4,0752	-0,777	82,78	0	1010,28	5,8	7,8	7,8	1	1	1	1	1	1	1	1	1	0	1	-7,188161	273,203396	308,695695	0
15.01.2021	04:40:15	0	0	3,163646	3,01275	12,8304	-0,785	82,787	0	1010,08	5,7	7,8	7,7	1	1	1	1	1	1	1	1	1	0	1	-6,624383	273,064316	308,616734	0
15.01.2021	04:40:16	0	0	3,84157	2,8155	10,8216	-0,783	82,782	0	1010,2	5,7	7,8	7,7	1	1	1	1	1	1	1	1	1	0	1	-5,567301	273,082707	309,758754	0
15.01.2021	04:40:17	0	0	4,858456	2,481	20,628	-0,778	82,785	0	1010,02	5,8	7,8	7,7	1	1	1	1	1	1	1	1	1	0	1	-10,993658	273,06573	304,25399	0
15.01.2021	04:40:18	0	0	4,180507	2,379	12,096	-0,781	82,761	0	1010,22	5,7	7,8	7,8	1	1	1	1	1	1	1	1	1	0	1	-4,721635	273,186311	311,083214	0
15.01.2021	04:40:19	0	0	3,502608	2,64825	4,8456	-0,786	82,777	0	1010,16	5,8	7,8	7,7	1	1	1	1	1	1	1	1	1	0	1	-7,258633	273,112454	308,204837	0
15.01.2021	04:40:20	0	0	4,632453	3,25725	356,9688	-0,782	82,769	0	1010,34	5,7	7,8	7,8	1	1	1	1	1	1	1	1	1	0	1	-5,073996	273,064316	310,167122	0
15.01.2021	04:40:21	0	0	2,598693	3,85725	13,9356	-0,787	82,772	0	1010,16	5,7	7,8	7,8	1	1	1	1	1	1	1	1	1	0	1	-0	273,162134	315,693069	0
15.01.2021	04:40:22	0	0	3,3896	3,91125	8,6184	-0,781	82,779	0	1010,36	5,8	7,8	7,8	1	1	1	1	1	1	1	1	1	0	1	-5,355884	273,226199	310,633446	0
15.01.2021	04:40:23	0	0	5,536347	3,852	15,3936	-0,785	82,778	0	1010,24	5,7	7,8	7,8	1	1	1	1	1	1	1	1	1	0	1	-8,033827	273,048768	307,135498	0
15.01.2021	04:40:24	0	0	3,954557	3,77475	9,3564	-0,785	82,767	0	1010,32	5,8	7,8	7,7	1	1	1	1	1	1	1	1	1	0	1	-6,976744	273,229051	309,025781	0
15.01.2021	04:40:25	0	0	2,937671	3,642	358,3728	-0,782	82,773	0	1010,38	5,8	7,8	7,7	1	1	1	1	1	1	1	1	1	0	1	-3,664553	273,243319	312,403983	0
15.01.2021	04:40:26	0	0	3,502608	3,64125	6,4512	-0,774	82,778	0	1010,46	5,8	7,8	7,7	1	1	1	1	1	1	1	1	1	0	1	-3,24172	273,125216	312,280721	0
15.01.2021	04:40:27	0	0	4,745468	3,7245	6,4404	-0,779	82,781	0	1010,34	5,7	7,8	7,7	1	1	1	1	1	1	1	1	1	0	1	-5,426357	273,244746	310,648784	0
15.01.2021	04:40:28	0	0	3,276633	3,75	10,8108	-0,788	82,77	0	1010,18	5,8	7,8	7,7	1	1	1	1	1	1	1	1	1	0	1	-7,117689	273,12238	308,391643	0
15.01.2021	04:40:29	0	0	4,180507	3,66	7,5348	-0,78	82,765	0	1010,1	5,7	7,8	7,8	1	1	1	1	1	1	1	1	1	0	1	-9,020437	273,071387	306,253337	0
15.01.2021	04:40:30	0	0	3,163646	3,7245	6,8184	-0,783	82,758	0	1010,2	5,8	7,8	7,7	1	1	1	1	1	1	1	1	1	0	1	-2,60747	273,105367	312,823258	0
15.01.2021	04:40:31	0	0	3,728582	3,65025	8,9928	-0,785	82,765	0	1010,18	5,8	7,8	7,7	1	1	1	1	1	1	1	1	1	0	1	-2,677942	273,23333	313,34438	0
15.01.2021	04:40:32	0	0	3,954557	3,474	7,9848	-0,78	82,769	0	1010,08	5,7	7,8	7,7	1	1	1	1	1	1	1	1	1	0	1	-2,466526	273,210519	313,450274	0
15.01.2021	04:40:33	0	0	4,519494	3,53775	4,482	-0,777	82,758	0	1010,2	5,8	7,8	7,7	1	1	1	1	1	1	1	1	1	0	1	-2,818887	273,064316	312,422231	0
15.01.2021	04:40:34	0	0	3,615573	3,5145	1,9296	-0,784	82,769	0	1010,34	5,7	7,8	7,8	1	1	1	1	1	1	1	1	1	0	1	-2,114165	273,069973	313,153077	0
15.01.2021	04:40:35	0	0	4,858427	3,37425	10,0728	-0,78	82,739	0	1009,98	5,7	7,8	7,8	1	1	1	1	1	1	1	1	1	0	1	-10,852713	273,119543	304,643512	0
15.01.2021	04:40:36	0	0	3,502608	3,348	10,4472	-0,777	82,74	0	1010,02	5,8	7,8	7,7	1	1	1	1	1	1	1	1	1	0	1	-3,664553	273,051594	311,51782	0
15.01.2021	04:40:37	0	0	4,632481	3,26775	10,4364	-0,786	82,742	0	1010,18	5,7	7,8	7,7	1	1	1	1	1	1	1	1	1	0	1	-7,047216	273,116707	308,435905	0
15.01.2021	04:40:38	0	0	2,937671	3,08025	11,1996	-0,785	82,744	0	1010,22	5,7	7,8	7,7	1	1	1	1	1	1	1	1	1	0	1	-6,624383	273,05866	308,59062	0
15.01.2021	04:40:39	0	0	3,050658	3,024	10,8216	-0,779	82,752	0	1010,2	5,8	7,8	7,7	1	1	1	1	1	1	1	1	1	0	1	-4,862579	273,105367	310,568149	0
15.01.2021	04:40:40	0	0	3,163646	2,8785	9,3744	-0,78	82,764	0	1010,26	5,7	7,8	7,7	1	1	1	1	1	1	1	1	1	0	1	-4,22833	273,234757	311,800592	0
15.01.2021	04:40:41	0	0	4,519494	2,75475	9,3708	-0,783	82,743	0	1010,1	5,8	7,8	7,7	1	1	1	1	1	1	1	1	1	0	1	-7,470049	273,194851	308,374292	0
15.01.2021	04:40:42	0	0	2,937653	2,727	7,884	-0,784	82,749	0	1010,36	5,7	7,8	7,8	1	1	1	1	1	1	1	1	1	0	1	-5,144468	273,166398	310,568315	0
15.01.2021	04:40:43	0	0	3,38962	2,808	11,2104	-0,786	82,751	0	1010,22	5,8	7,8	7,7	1	1	1	1	1	1	1	1	1	0	1	-5,496829	273,05442	309,698594	0
15.01.2021	04:40:44	0	0	2,824684	2,79375	6,066	-0,782	82,75	0	1010,12	5,8	7,8	7,7	1	1	1	1	1	1	1	1	1	0	1	-3,59408	273,145086	312,020188	0
15.01.2021	04:40:45	0	0	4,858456	2,8995	9,7452	-0,788	82,745	0	1010,2	5,7	7,8	7,7	1	1	1	1	1	1	1	1	1	0	1	-3,312192	273,23333	312,71013	0
15.01.2021	04:40:46	0	0	3,38962	2,95725	12,4812	-0,785	82,755	0	1010,34	5,7	7,8	7,7	1	1	1	1	1	1	1	1	1	0	1	-6,483439	273,060074	308,738092	0
15.01.2021	04:40:47	0	0	2,711696	2,91	14,7564	-0,784	82,745	0	1010,36	5,7	7,8	7,7	1	1	1	1	1	1	1	1	1	0	1	-4,087385	273,159292	311,592544	0
15.01.2021	04:40:48	0	0	2,598693	2,85225	10,062	-0,781	82,752	0	1010,34	5,8	7,8	7,8	1	1	1	1	1	1	1	1	1	0	1	-2,396054	273,10395	313,028128	0
15.01.2021	04:40:49	0	0	3,502587	2,784	12,8664	-0,783	82,738	0	1010,28	5,8	7,8	7,8	1	1	1	1	1	1	1	1	1	0	1	-9,795631	273,069973	305,471611	0
15.01.2021	04:40:50	0	0	4,406506	2,6205	18,468	-0,782	82,754	0	1010,28	5,8	7,8	7,7	1	1	1	1	1	1	1	1	1	0	1	-8,245243	273,112454	307,218226	0
15.01.2021	04:40:51	0	0	3,954533	2,52225	11,1996	-0,785	82,732	0	1010,28	5,8	7,8	7,8	1	1	1	1	1	1	1	1	1	0	1	-7,963354	273,223347	308,012783	0
15.01.2021	04:40:52	0	0	4,971443	2,796	35,1108	-0,787	82,73	0	1010,1	5,8	7,8	7,7	1	1	1	1	1	1	1	1	1	0	1	-9,725159	273,119543	305,771067	0
15.01.2021	04:40:53	0	0	4,632453	3,033	24,7248	-0,779	82,736	0	1010,26	5,8	7,8	7,8	1	1	1	1	1	1	1	1	1	0	1	-6,553911	273,244746	309,521229	0
15.01.2021	04:40:54	0	0	2,937671	3,0165	16,4772	-0,785	82,75	0	1010,24	5,8	7,8	7,7	1	1	1	1	1	1	1	1	1	0	1	-4,721635	273,067144	310,532544	0
15.01.2021	04:40:55	0	0	3,615595	3,0735	10,4472	-0,779	82,756	0	1010,24	5,8	7,8	7,7	1	1	1	1	1	1	1	1	1	0	1	-7,047216	273,179197	308,724739	0
15.01.2021	04:40:56	0	0	3,050658	2,86875	16,4736	-0,782	82,745	0	1010,08	5,8	7,8	7,7	1	1	1	1	1	1	1	1	1	0	1	-5,285412	273,067144	309,968766	0
15.01.2021	04:40:57	0	0	3,38962	2,616	21,0204	-0,784	82,734	0	1010,26	5,8	7,8	7,7	1	1	1	1	1	1	1	1	1	0	1	-9,090909	273,108201	306,352914	0
15.01.2021	04:40:58	0	0	2,37272	2,44875	12,8664	-0,778	82,737	0	1010,34	5,8	7,8	7,8	1	1	1	1	1	1	1	1	1	0	1	-5,285412	273,231904	310,73031	0
15.01.2021	04:40:59	0	0	2,824684	2,427	14,2956	-0,782	82,743	0	1010,22	5,8	7,8	7,7	1	1	1	1	1	1	1	1	1	0	1	-2,889359	273,074217	312,397482	0
15.01.2021	04:41:00	0	0	4,858456	2,28525	16,092	-0,788	82,73	0	1010,24	5,8	7,8	7,7	1	1	1	1	1	1	1	1	1	0	1	-4,721635	273,220495	311,241312	0
15.01.2021	04:41:01	0	0	3,276633	2,41275	20,2932	-0,781	82,745	0	1010,28	5,8	7,8	7,7	1	1	1	1	1	1	1	1	1	0	1	-7,047216	273,119543	308,449009	0
15.01.2021	04:41:02	0	0	3,276633	2,41275	20,2932	-0,781	82,745	0	1010,28	5,8	7,8	7,7	1	1	1	1	1	1	1	1	1	0	1	-7,047216	273,119543	308,449009	0
15.01.2021	04:41:03	0	0	4,971443	2,5635	20,6352	-0,788	82,741	0	1010,28	5,7	7,8	7,7	1	1	1	1	1	1	1	1	1	0	1	-8,245243	273,244746	307,829897	0
15.01.2021	04:41:04	0	0	5,084431	2,69925	30,3264	-0,784	82,741	0	1010,34	5,8	7,8	7,7	1	1	1	1	1	1	1	1	1	0	1	-8,597604	273,13373	306,964177	0
15.01.2021	04:41:05	0	0	4,632481	2,74275	15,8796	-0,781	82,749	0	1010,3	5,7	7,8	7,7	1	1	1	1	1	1	1	1	1	0	1	-3,523608	273,081292	311,795909	0
15.01.2021	04:41:06	0	0	4,519494	2,769	22,8312	-0,782	82,759	0	1010,28	5,8	7,8	7,7	1	1	1	1	1	1	1	1	1	0	1	-7,117689	273,217644	308,832071	0
15.01.2021	04:41:07	0	0	3,163646	2,7255	16,4844	-0,785	82,753	0	1010,36	5,8	7,8	7,7	1	1	1	1	1	1	1	1	1	0	1	-7,188161	273,0997	308,216385	0
15.01.2021	04:41:08	0	0	2,824684	2,907	7,5132	-0,791	82,745	0	1010,16	5,8	7,8	7,7	1	1	1	1	1	1	1	1	1	0	1	-7,963354	273,061488	307,264705	0
15.01.2021	04:41:09	0	0	3,954533	3,20475	360	-0,783	82,769	0	1010,26	5,8	7,8	7,8	1	1	1	1	1	1	1	1	1	0	1	-4,933051	273,113871	310,536968	0
15.01.2021	04:41:10	0	0	4,745468	3,16425	21,3948	-0,789	82,749	0	1010,1	5,8	7,8	7,7	1	1	1	1	1	1	1	1	1	0	1	-2,959831	273,249029	313,135126	0
15.01.2021	04:41:11	0	0	4,745468	3,13575	4,4784	-0,785	82,744	0	1010,24	5,8	7,8	7,7	1	1	1	1	1	1	1	1	1	0	1	-7,681466	273,203396	308,20239	0
15.01.2021	04:41:12	0	0	3,502608	3,375	16,4772	-0,785	82,76	0	1010,32	5,8	7,8	7,7	1	1	1	1	1	1	1	1	1	0	1	-4,862579	273,239037	311,186147	0
15.01.2021	04:41:13	0	0	4,519494	3,432	9,3816	-0,782	82,764	0	1010,26	5,8	7,8	7,7	1	1	1	1	1	1	1	1	1	0	1	-8,738548	273,240464	307,316781	0
15.01.2021	04:41:14	0	0	4,293519	3,45825	7,902	-0,782	82,76	0	1010,3	5,7	7,8	7,7	1	1	1	1	1	1	1	1	1	0	1	-2,466526	273,176352	313,292276	0
15.01.2021	04:41:15	0	0	4,858456	3,501	15,0408	-0,777	82,763	0	1010,38	5,8	7,8	7,7	1	1	1	1	1	1	1	1	1	0	1	-10,359408	273,250457	305,742155	0
15.01.2021	04:41:16	0	0	3,163646	3,414	6,4332	-0,787	82,765	0	1010,34	5,8	7,8	7,7	1	1	1	1	1	1	1	1	1	0	1	-8,738548	273,163555	306,961091	0
15.01.2021	04:41:17	0	0	4,971443	3,3585	22,0896	-0,788	82,748	0	1010,28	5,8	7,8	7,7	1	1	1	1	1	1	1	1	1	0	1	-4,792107	273,229051	311,210418	0
15.01.2021	04:41:18	0	0	4,745468	3,31275	12,8484	-0,784	82,749	0	1010,3	5,8	7,8	7,7	1	1	1	1	1	1	1	1	1	0	1	-9,090909	273,149347	306,543051	0
15.01.2021	04:41:19	0	0	4,06752	3,1005	13,1796	-0,781	82,764	0	1010,36	5,8	7,7	7,8	1	1	1	1	1	1	1	1	1	0	1	-8,738548	273,074217	306,548292	0
15.01.2021	04:41:20	0	0	5,084431	2,86725	41,8356	-0,791	82,752	0	1010,28	5,8	7,8	7,7	1	1	1	1	1	1	1	1	1	0	1	-8,738548	273,20482	307,151895	0
15.01.2021	04:41:21	0	0	3,276633	2,7105	10,8252	-0,784	82,752	0	1010,22	5,8	7,8	7,7	1	1	1	1	1	1	1	1	1	0	1	-6,765328	273,223347	309,21081	0
15.01.2021	04:41:22	0	0	3,050658	2,52675	28,728	-0,788	82,762	0	1010,32	5,8	7,8	7,7	1	1	1	1	1	1	1	1	1	0	1	-7,399577	273,071387	307,874197	0
15.01.2021	04:41:23	0	0	3,163646	2,48775	10,0656	-0,791	82,766	0	1010,22	5,8	7,8	7,7	1	1	1	1	1	1	1	1	1	0	1	-6,8358	273,155029	308,824425	0
15.01.2021	04:41:24	0	0	4,745468	2,619	30,33	-0,787	82,765	0	1010,26	5,8	7,8	7,7	1	1	1	1	1	1	1	1	1	0	1	-4,298802	273,072802	310,981505	0
15.01.2021	04:41:25	0	0	4,632481	2,7795	26,1684	-0,788	82,768	0	1010,26	5,8	7,8	7,7	1	1	1	1	1	1	1	1	1	0	1	-6,342495	273,109619	309,107877	0
15.01.2021	04:41:26	0	0	3,728582	2,964	25,8012	-0,784	82,761	0	1010,28	5,8	7,8	7,7	1	1	1	1	1	1	1	1	1	0	1	-6,8358	273,13373	308,725981	0
15.01.2021	04:41:27	0	0	3,163646	3,012	19,9116	-0,786	82,769	0	1010,28	5,7	7,8	7,7	1	1	1	1	1	1	1	1	1	0	1	-5,919662	273,067144	309,334517	0
15.01.2021	04:41:28	0	0	2,711696	3,0855	3,0312	-0,786	82,756	0	1010,2	5,8	7,8	7,7	1	1	1	1	1	1	1	1	1	0	1	-5,84919	273,18062	309,929343	0
15.01.2021	04:41:29	0	0	4,519494	3,12825	18,0936	-0,789	82,759	0	1010,32	5,8	7,8	7,7	1	1	1	1	1	1	1	1	1	0	1	-6,20155	273,067144	309,052628	0
15.01.2021	04:41:30	0	0	3,276633	3,04725	20,6388	-0,787	82,769	0	1010,3	5,8	7,8	7,7	1	1	1	1	1	1	1	1	1	0	1	-7,399577	273,163555	308,300062	0
15.01.2021	04:41:31	0	0	3,728582	2,96025	12,2184	-0,783	82,777	0	1010,36	5,8	7,8	7,7	1	1	1	1	1	1	1	1	1	0	1	-4,298802	273,078461	311,007643	0
15.01.2021	04:41:32	0	0	4,067544	3,021	13,9284	-0,787	82,764	0	1010,08	5,8	7,8	7,7	1	1	1	1	1	1	1	1	1	0	1	-4,087385	273,214794	311,849188	0
15.01.2021	04:41:33	0	0	4,180532	3,29325	3,4056	-0,784	82,767	0	1010,28	5,8	7,8	7,7	1	1	1	1	1	1	1	1	1	0	1	-7,047216	273,105367	308,383512	0
15.01.2021	04:41:34	0	0	4,519494	3,3015	353,592	-0,786	82,778	0	1010,2	5,8	7,8	7,7	1	1	1	1	1	1	1	1	1	0	1	-4,087385	273,051594	311,094987	0
15.01.2021	04:41:35	0	0	3,050658	3,06225	13,1724	-0,786	82,755	0	1010,26	5,8	7,7	7,7	1	1	1	1	1	1	1	1	1	0	1	-4,792107	273,126635	310,736889	0
15.01.2021	04:41:36	0	0	2,824684	2,9145	13,1688	-0,783	82,775	0	1010,28	5,8	7,8	7,7	1	1	1	1	1	1	1	1	1	0	1	-6,131078	273,069973	309,136163	0
15.01.2021	04:41:37	0	0	4,971443	2,8215	3,7728	-0,789	82,769	0	1010,1	5,8	7,8	7,7	1	1	1	1	1	1	1	1	1	0	1	-2,889359	273,115289	312,587211	0
15.01.2021	04:41:38	0	0	2,937671	2,84325	9,8496	-0,784	82,77	0	1010,14	5,8	7,8	7,7	1	1	1	1	1	1	1	1	1	0	1	-5,919662	273,072802	309,360645	0
15.01.2021	04:41:39	0	0	2,711696	2,78625	21,3768	-0,79	82,767	0	1010,14	5,8	7,8	7,7	1	1	1	1	1	1	1	1	1	0	1	-5,637773	273,105367	309,792955	0
15.01.2021	04:41:40	0	0	2,598709	2,65725	10,8216	-0,785	82,772	0	1010,26	5,8	7,7	7,7	1	1	1	1	1	1	1	1	1	0	1	-5,778717	273,062902	309,455871	0
15.01.2021	04:41:41	0	0	2,824684	2,9295	11,1996	-0,784	82,773	0	1010,2	5,8	7,8	7,7	1	1	1	1	1	1	1	1	1	0	1	-8,033827	273,194851	307,810515	0
15.01.2021	04:41:42	0	0	2,824684	3,081	6,4548	-0,785	82,778	0	1010,3	5,8	7,8	7,7	1	1	1	1	1	1	1	1	1	0	1	-6,272023	273,249029	309,822934	0
15.01.2021	04:41:43	0	0	5,53638	2,94075	16,4916	-0,787	82,777	0	1010,32	5,8	7,8	7,7	1	1	1	1	1	1	1	1	1	0	1	-6,342495	273,13373	309,219286	0
15.01.2021	04:41:44	0	0	3,276633	2,9235	7,146	-0,783	82,766	0	1010,34	5,8	7,7	7,7	1	1	1	1	1	1	1	1	1	0	1	-3,59408	273,227625	312,401847	0
15.01.2021	04:41:45	0	0	3,38962	2,9565	17,2332	-0,782	82,781	0	1010,34	5,8	7,8	7,7	1	1	1	1	1	1	1	1	1	0	1	-5,003524	273,067144	310,250655	0
15.01.2021	04:41:46	0	0	4,180532	3,0135	22,464	-0,786	82,829	0	1010,26	5,8	7,8	7,7	1	1	1	1	1	1	1	1	1	0	1	-4,792107	273,187734	311,019323	0
15.01.2021	04:41:47	0	0	5,197418	2,92425	14,6484	-0,786	82,775	0	1010,2	5,8	7,8	7,7	1	1	1	1	1	1	1	1	1	0	1	-1,902748	273,078461	313,403697	0
15.01.2021	04:41:48	0	0	4,858456	2,93475	20,628	-0,788	82,758	0	1010,26	5,8	7,8	7,7	1	1	1	1	1	1	1	1	1	0	1	-8,245243	273,159292	307,434687	0
15.01.2021	04:41:49	0	0	3,276633	2,75625	17,2584	-0,789	82,78	0	1010,38	5,8	7,8	7,7	1	1	1	1	1	1	1	1	1	0	1	-6,483439	273,072802	308,796868	0
15.01.2021	04:41:50	0	0	3,728582	2,7585	10,818	-0,784	82,776	0	1010,38	5,7	7,7	7,7	1	1	1	1	1	1	1	1	1	0	1	-4,792107	273,105367	310,638621	0
15.01.2021	04:41:51	0	0	3,728582	2,697	4,842	-0,787	82,775	0	1010,18	5,8	7,8	7,7	1	1	1	1	1	1	1	1	1	0	1	-4,369274	273,071387	310,9045	0
15.01.2021	04:41:52	0	0	4,632481	2,77275	3,7656	-0,783	82,792	0	1010,24	5,8	7,8	7,7	1	1	1	1	1	1	1	1	1	0	1	-5,919662	273,162134	309,773407	0
15.01.2021	04:41:53	0	0	2,711696	2,6985	4,4784	-0,787	82,782	0	1010,26	5,8	7,8	7,7	1	1	1	1	1	1	1	1	1	0	1	-1,973221	273,064316	313,267897	0
15.01.2021	04:41:54	0	0	4,519494	2,52675	8,2656	-0,79	82,776	0	1010,14	5,8	7,8	7,7	1	1	1	1	1	1	1	1	1	0	1	-2,114165	273,16782	313,60519	0
15.01.2021	04:41:55	0	0	3,276633	2,41275	7,5168	-0,785	82,769	0	1010,18	5,8	7,8	7,7	1	1	1	1	1	1	1	1	1	0	1	-3,875969	273,240464	312,17936	0
15.01.2021	04:41:56	0	0	3,84157	2,3385	16,8624	-0,79	82,787	0	1010,32	5,8	7,8	7,7	1	1	1	1	1	1	1	1	1	0	1	-3,453136	273,0997	311,95141	0
15.01.2021	04:41:57	0	0	4,406506	2,3565	8,622	-0,782	82,798	0	1010,28	5,8	7,8	7,7	1	1	1	1	1	1	1	1	1	0	1	-2,255109	273,071387	313,018665	0
15.01.2021	04:41:58	0	0	4,519494	2,43525	10,458	-0,791	82,781	0	1010,24	5,8	7,8	7,7	1	1	1	1	1	1	1	1	1	0	1	-3,664553	273,09545	311,720363	0
15.01.2021	04:41:59	0	0	4,406506	2,715	18,0936	-0,793	82,785	0	1010,36	5,8	7,7	7,7	1	1	1	1	1	1	1	1	1	0	1	-3,100775	273,207669	312,802845	0
15.01.2021	04:42:00	0	0	4,067544	2,973	360	-0,786	82,794	0	1010,32	5,8	7,8	7,7	1	1	1	1	1	1	1	1	1	0	1	-2,60747	273,152188	313,039621	0
15.01.2021	04:42:01	0	0	3,615595	3,24675	0,144	-0,794	82,787	0	1010,32	5,8	7,8	7,7	1	1	1	1	1	1	1	1	1	0	1	-2,60747	273,152188	313,039621	0
15.01.2021	04:42:02	0	0	3,615595	3,24675	0,144	-0,794	82,787	0	1010,32	5,8	7,8	7,7	1	1	1	1	1	1	1	1	1	0	1	-9,584214	273,241891	306,477718	0
15.01.2021	04:42:03	0	0	4,745468	3,5025	0,4968	-0,782	82,794	0	1010,34	5,8	7,8	7,7	1	1	1	1	1	1	1	1	1	0	1	-5,003524	273,119543	310,492702	0
15.01.2021	04:42:04	0	0	3,615595	3,5325	8,6184	-0,794	82,791	0	1010,16	5,8	7,7	7,7	1	1	1	1	1	1	1	1	1	0	1	-7,610994	273,244746	308,464146	0
15.01.2021	04:42:05	0	0	2,711696	3,3285	11,7288	-0,787	82,8	0	1010,22	5,8	7,7	7,7	1	1	1	1	1	1	1	1	1	0	1	-8,45666	273,186311	307,34819	0
15.01.2021	04:42:06	0	0	3,728582	3,2955	22,4748	-0,789	82,806	0	1010,24	5,8	7,8	7,7	1	1	1	1	1	1	1	1	1	0	1	-5,637773	273,055833	309,564176	0
15.01.2021	04:42:07	0	0	2,824684	3,36	26,1756	-0,782	82,799	0	1010,36	5,8	7,7	7,7	1	1	1	1	1	1	1	1	1	0	1	-7,329105	273,176352	308,429696	0
15.01.2021	04:42:08	0	0	2,598709	3,22575	23,5872	-0,784	82,801	0	1010,34	5,8	7,8	7,7	1	1	1	1	1	1	1	1	1	0	1	-7,399577	273,246173	308,682168	0
15.01.2021	04:42:09	0	0	4,519494	3,4035	8,28	-0,788	82,799	0	1010,18	5,8	7,8	7,7	1	1	1	1	1	1	1	1	1	0	1	-3,875969	273,118125	311,613704	0
15.01.2021	04:42:10	0	0	4,745468	3,378	21,7728	-0,787	82,788	0	1010,16	5,8	7,7	7,7	1	1	1	1	1	1	1	1	1	0	1	-5,637773	273,221921	310,331769	0
15.01.2021	04:42:11	0	0	4,745468	3,357	21,0924	-0,784	82,799	0	1010,2	5,8	7,8	7,7	1	1	1	1	1	1	1	1	1	0	1	-6,765328	273,176352	308,993474	0
15.01.2021	04:42:12	0	0	3,38962	3,26175	20,2932	-0,788	82,806	0	1010,26	5,8	7,8	7,7	1	1	1	1	1	1	1	1	1	0	1	-7,047216	273,061488	308,180843	0
15.01.2021	04:42:13	0	0	4,293519	3,50175	5,688	-0,788	82,793	0	1010,24	5,8	7,8	7,7	1	1	1	1	1	1	1	1	1	0	1	-0,845666	273,143666	314,762039	0
15.01.2021	04:42:14	0	0	5,310405	3,7095	7,5096	-0,785	82,794	0	1010,44	5,8	7,8	7,7	1	1	1	1	1	1	1	1	1	0	1	-3,382664	273,231904	312,633059	0
15.01.2021	04:42:15	0	0	2,937671	3,44625	22,0896	-0,783	82,804	0	1010,2	5,8	7,7	7,7	1	1	1	1	1	1	1	1	1	0	1	-7,540521	273,177775	308,224856	0
15.01.2021	04:42:16	0	0	4,971443	3,29775	20,6352	-0,783	82,806	0	1010,32	5,8	7,7	7,7	1	1	1	1	1	1	1	1	1	0	1	-6,906272	273,250457	309,195291	0
15.01.2021	04:42:17	0	0	4,180532	3,16125	23,2128	-0,788	82,801	0	1010,26	5,8	7,7	7,7	1	1	1	1	1	1	1	1	1	0	1	-6,060606	273,116707	309,422515	0
15.01.2021	04:42:18	0	0	4,406506	3,165	11,7216	-0,785	82,809	0	1010,28	5,8	7,7	7,7	1	1	1	1	1	1	1	1	1	0	1	-5,567301	273,23333	310,455021	0
15.01.2021	04:42:19	0	0	3,276633	3,47025	9,7524	-0,781	82,815	0	1010,32	5,8	7,7	7,7	1	1	1	1	1	1	1	1	1	0	1	-2,677942	273,196275	313,172984	0
15.01.2021	04:42:20	0	0	4,745468	3,747	9,774	-0,788	82,79	0	1010,24	5,8	7,7	7,7	1	1	1	1	1	1	1	1	1	0	1	-8,80902	273,075631	306,484355	0
15.01.2021	04:42:21	0	0	4,632481	3,834	20,6424	-0,79	82,799	0	1010,08	5,8	7,7	7,7	1	1	1	1	1	1	1	1	1	0	1	-8,245243	273,149347	307,388717	0
15.01.2021	04:42:22	0	0	2,259747	3,534	15,8904	-0,782	82,81	0	1010,18	5,8	7,7	7,7	1	1	1	1	1	1	1	1	1	0	1	-1,409443	273,064316	313,831674	0
15.01.2021	04:42:23	0	0	4,293519	3,3555	17,2368	-0,788	82,81	0	1010,2	5,8	7,7	7,7	1	1	1	1	1	1	1	1	1	0	1	-3,523608	273,179197	312,248347	0
15.01.2021	04:42:24	0	0	4,858456	3,13875	25,0488	-0,787	82,795	0	1010,14	5,8	7,8	7,7	1	1	1	1	1	1	1	1	1	0	1	-6,624383	273,072802	308,655924	0
15.01.2021	04:42:25	0	0	3,050658	2,8665	18,09	-0,787	82,794	0	1010,3	5,8	7,8	7,7	1	1	1	1	1	1	1	1	1	0	1	-8,879493	273,10395	306,544689	0
15.01.2021	04:42:26	0	0	4,519494	2,7615	16,8588	-0,785	82,813	0	1010,28	5,8	7,7	7,7	1	1	1	1	1	1	1	1	1	0	1	-8,527132	273,123798	306,988754	0
15.01.2021	04:42:27	0	0	4,293519	2,658	11,7144	-0,789	82,814	0	1010,12	5,8	7,7	7,7	1	1	1	1	1	1	1	1	1	0	1	-4,933051	273,201971	310,944217	0
15.01.2021	04:42:28	0	0	2,937671	2,80125	7,5204	-0,782	82,822	0	1010,2	5,8	7,7	7,7	1	1	1	1	1	1	1	1	1	0	1	-4,298802	273,200547	311,57188	0
15.01.2021	04:42:29	0	0	4,293519	3,15375	6,4368	-0,784	82,812	0	1010,34	5,8	7,8	7,7	1	1	1	1	1	1	1	1	1	0	1	-6,765328	273,236183	309,270195	0
15.01.2021	04:42:30	0	0	4,858456	3,4845	6,4368	-0,785	82,792	0	1010,24	5,8	7,8	7,7	1	1	1	1	1	1	1	1	1	0	1	-6,8358	273,106784	308,601475	0
15.01.2021	04:42:31	0	0	4,632481	3,31725	21,006	-0,784	82,796	0	1010,3	5,8	7,7	7,7	1	1	1	1	1	1	1	1	1	0	1	-4,087385	273,072802	311,192922	0
15.01.2021	04:42:32	0	0	4,180532	2,91	6,8184	-0,787	82,802	0	1010,24	5,8	7,7	7,7	1	1	1	1	1	1	1	1	1	0	1	-6,412967	273,146506	309,207865	0
15.01.2021	04:42:33	0	0	2,824684	3,05625	26,1828	-0,782	82,815	0	1010,2	5,8	7,7	7,7	1	1	1	1	1	1	1	1	1	0	1	-7,117689	273,240464	308,93764	0
15.01.2021	04:42:34	0	0	4,067544	3,072	3,7908	-0,79	82,791	0	1010,02	5,8	7,8	7,7	1	1	1	1	1	1	1	1	1	0	1	-3,030303	273,213369	312,899679	0
15.01.2021	04:42:35	0	0	2,937671	2,907	359,1324	-0,782	82,798	0	1010,38	5,8	7,7	7,7	1	1	1	1	1	1	1	1	1	0	1	-7,963354	273,183465	307,828335	0
15.01.2021	04:42:36	0	0	3,615595	3,06375	3,7872	-0,783	82,792	0	1010,32	5,8	7,8	7,7	1	1	1	1	1	1	1	1	1	0	1	-2,043693	273,256169	314,084303	0
15.01.2021	04:42:37	0	0	3,728582	3,456	4,9248	-0,787	82,804	0	1010,34	5,8	7,8	7,7	1	1	1	1	1	1	1	1	1	0	1	-7,329105	273,096866	308,062353	0
15.01.2021	04:42:38	0	0	3,050658	3,43125	10,8252	-0,785	82,806	0	1010,18	5,8	7,8	7,7	1	1	1	1	1	1	1	1	1	0	1	-4,580691	273,199123	311,283405	0
15.01.2021	04:42:39	0	0	4,293519	3,129	8,2728	-0,787	82,806	0	1010,3	5,8	7,8	7,7	1	1	1	1	1	1	1	1	1	0	1	-6,765328	273,23761	309,276797	0
15.01.2021	04:42:40	0	0	4,858456	2,67675	13,1796	-0,789	82,813	0	1010,36	5,8	7,7	7,7	1	1	1	1	1	1	1	1	1	0	1	-6,624383	273,119543	308,871842	0
15.01.2021	04:42:41	0	0	4,293519	2,6145	13,1724	-0,784	82,805	0	1010,32	5,8	7,7	7,7	1	1	1	1	1	1	1	1	1	0	1	-3,171247	273,236183	312,864276	0
15.01.2021	04:42:42	0	0	3,38962	2,67375	4,1076	-0,789	82,796	0	1010,34	5,8	7,7	7,7	1	1	1	1	1	1	1	1	1	0	1	-9,513742	273,183465	306,277948	0
15.01.2021	04:42:43	0	0	4,971443	2,82975	8,262	-0,785	82,785	0	1010,28	5,8	7,8	7,7	1	1	1	1	1	1	1	1	1	0	1	-5,003524	273,234757	311,025399	0
15.01.2021	04:42:44	0	0	3,050658	2,9745	31,0068	-0,784	82,814	0	1010,18	5,8	7,7	7,7	1	1	1	1	1	1	1	1	1	0	1	-3,735025	273,143666	311,87268	0
15.01.2021	04:42:45	0	0	4,406506	2,97825	21,384	-0,781	82,809	0	1010,32	5,8	7,8	7,7	1	1	1	1	1	1	1	1	1	0	1	-6,976744	273,069973	308,290497	0
15.01.2021	04:42:46	0	0	3,050658	3,04125	21,3768	-0,79	82,805	0	1010,3	5,8	7,7	7,7	1	1	1	1	1	1	1	1	1	0	1	-3,946441	273,105367	311,484287	0
15.01.2021	04:42:47	0	0	2,598709	3,0495	26,5356	-0,785	82,819	0	1010,34	5,8	7,7	7,7	1	1	1	1	1	1	1	1	1	0	1	-5,285412	273,106784	310,151863	0
15.01.2021	04:42:48	0	0	3,502608	2,9145	9,36	-0,782	82,807	0	1010,28	5,8	7,7	7,7	1	1	1	1	1	1	1	1	1	0	1	-6,412967	273,234757	309,615955	0
15.01.2021	04:42:49	0	0	3,84157	3,2655	16,1136	-0,789	82,814	0	1010,22	5,8	7,7	7,7	1	1	1	1	1	1	1	1	1	0	1	-6,624383	273,115289	308,852187	0
15.01.2021	04:42:50	0	0	4,519494	3,05475	4,0968	-0,781	82,826	0	1010,28	5,8	7,7	7,7	1	1	1	1	1	1	1	1	1	0	1	-7,892882	273,243319	308,175653	0
15.01.2021	04:42:51	0	0	3,728582	2,79675	7,884	-0,793	82,804	0	1010,24	5,8	7,7	7,7	1	1	1	1	1	1	1	1	1	0	1	-6,553911	273,111036	308,903009	0
15.01.2021	04:42:52	0	0	3,050658	2,66025	10,4652	-0,782	82,815	0	1010,2	5,8	7,7	7,7	1	1	1	1	1	1	1	1	1	0	1	-7,399577	273,074217	307,887264	0
15.01.2021	04:42:53	0	0	5,084431	2,5035	17,2404	-0,785	82,807	0	1010,3	5,8	7,7	7,7	1	1	1	1	1	1	1	1	1	0	1	-7,399577	273,224773	308,583156	0
15.01.2021	04:42:54	0	0	3,615595	2,73375	26,19	-0,784	82,821	0	1010,26	5,8	7,7	7,7	1	1	1	1	1	1	1	1	1	0	1	-4,651163	273,17493	311,101063	0
15.01.2021	04:42:55	0	0	5,310405	3,27	29,5704	-0,784	82,814	0	1010,2	5,8	7,7	7,7	1	1	1	1	1	1	1	1	1	0	1	-5,496829	273,062902	309,737759	0
15.01.2021	04:42:56	0	0	3,954557	3,42	29,574	-0,785	82,809	0	1010,1	5,8	7,7	7,7	1	1	1	1	1	1	1	1	1	0	1	-6,694856	273,149347	308,939105	0
15.01.2021	04:42:57	0	0	2,711696	3,402	27,972	-0,784	82,822	0	1010,4	5,8	7,7	7,7	1	1	1	1	1	1	1	1	1	0	1	-4,22833	273,086954	311,11734	0
15.01.2021	04:42:58	0	0	3,163646	3,29025	17,7012	-0,786	82,826	0	1010,3	5,8	7,7	7,7	1	1	1	1	1	1	1	1	1	0	1	-9,584214	273,092618	305,787617	0
15.01.2021	04:42:59	0	0	2,598709	3,1515	19,6236	-0,786	82,806	0	1010,3	5,8	7,7	7,7	1	1	1	1	1	1	1	1	1	0	1	-6,272023	273,062902	308,962566	0
15.01.2021	04:43:00	0	0	2,14676	3,37275	23,9508	-0,788	82,82	0	1010,28	5,8	7,7	7,7	1	1	1	1	1	1	1	1	1	0	1	-5,567301	273,227625	310,428626	0
15.01.2021	04:43:01	0	0	2,14676	3,37275	23,9508	-0,788	82,82	0	1010,28	5,8	7,7	7,7	1	1	1	1	1	1	1	1	1	0	1	-5,567301	273,227625	310,428626	0
15.01.2021	04:43:02	0	0	2,937671	3,20475	19,5264	-0,782	82,837	0	1010,38	5,8	7,7	7,7	1	1	1	1	1	1	1	1	1	0	1	-8,033827	273,236183	308,001696	0
15.01.2021	04:43:03	0	0	3,276633	3,078	360	-0,785	82,8	0	1010,32	5,8	7,7	7,7	1	1	1	1	1	1	1	1	1	0	1	-8,104299	273,108201	307,339524	0
15.01.2021	04:43:04	0	0	4,745468	2,916	22,8384	-0,785	82,807	0	1010,3	5,8	7,7	7,7	1	1	1	1	1	1	1	1	1	0	1	-6,060606	273,243319	310,00793	0
15.01.2021	04:43:05	0	0	4,180532	2,8215	10,458	-0,778	82,828	0	1010,4	5,8	7,7	7,7	1	1	1	1	1	1	1	1	1	0	1	-5,003524	273,210519	310,913276	0
15.01.2021	04:43:06	0	0	2,598709	2,67075	9,3564	-0,784	82,823	0	1010,14	5,8	7,7	7,7	1	1	1	1	1	1	1	1	1	0	1	-0,422833	273,120961	315,079945	0
15.01.2021	04:43:07	0	0	3,728582	2,54325	7,5168	-0,781	82,828	0	1010,34	5,8	7,7	7,7	1	1	1	1	1	1	1	1	1	0	1	-4,439746	273,091201	310,925543	0
15.01.2021	04:43:08	0	0	2,937671	2,5305	7,5132	-0,783	82,835	0	1010,32	5,8	7,7	7,7	1	1	1	1	1	1	1	1	1	0	1	-9,302326	273,05442	305,893098	0
15.01.2021	04:43:09	0	0	3,84157	2,616	1,1844	-0,787	82,827	0	1010,28	5,8	7,7	7,7	1	1	1	1	1	1	1	1	1	0	1	-9,302326	272,947308	305,398816	0
15.01.2021	04:43:10	0	0	3,954557	2,69775	359,1216	-0,783	82,825	0	1010,3	5,8	7,7	7,7	1	1	1	1	1	1	1	1	1	0	1	-7,681466	273,254741	308,439921	0
15.01.2021	04:43:11	0	0	4,180532	2,61375	0,5112	-0,782	82,827	0	1010,28	5,8	7,7	7,7	1	1	1	1	1	1	1	1	1	0	1	-7,188161	273,182042	308,59695	0
15.01.2021	04:43:12	0	0	3,276633	2,5275	1,5552	-0,784	82,833	0	1010,32	5,8	7,8	7,7	1	1	1	1	1	1	1	1	1	0	1	-5,567301	273,085538	309,77183	0
15.01.2021	04:43:13	0	0	3,050658	2,3955	360	-0,788	82,815	0	1010,26	5,8	7,7	7,7	1	1	1	1	1	1	1	1	1	0	1	-8,45666	273,297633	307,86326	0
15.01.2021	04:43:14	0	0	3,276633	2,34975	1,188	-0,784	82,832	0	1010,26	5,8	7,7	7,7	1	1	1	1	1	1	1	1	1	0	1	-7,117689	273,101116	308,293402	0
15.01.2021	04:43:15	0	0	5,084431	2,3205	5,688	-0,778	82,82	0	1010,14	5,8	7,7	7,7	1	1	1	1	1	1	1	1	1	0	1	-3,946441	273,213369	311,983541	0
15.01.2021	04:43:16	0	0	2,824684	2,31825	6,0552	-0,786	82,804	0	1010,18	5,8	7,7	7,7	1	1	1	1	1	1	1	1	1	0	1	-2,466526	273,118125	313,023147	0
15.01.2021	04:43:17	0	0	4,067544	2,36325	11,7288	-0,784	82,824	0	1010,34	5,8	7,7	7,7	1	1	1	1	1	1	1	1	1	0	1	-5,708245	273,068558	309,552465	0
15.01.2021	04:43:18	0	0	4,632481	2,62875	5,2236	-0,786	82,82	0	1010,24	5,8	7,7	7,7	1	1	1	1	1	1	1	1	1	0	1	-7,047216	273,116707	308,435905	0
15.01.2021	04:43:19	0	0	3,728582	2,7375	6,4332	-0,78	82,819	0	1010,32	5,8	7,7	7,7	1	1	1	1	1	1	1	1	1	0	1	-11,909796	273,072802	303,370512	0
15.01.2021	04:43:20	0	0	3,050658	2,66625	20,2932	-0,782	82,827	0	1010,3	5,8	7,7	7,7	1	1	1	1	1	1	1	1	1	0	1	-3,805497	273,189157	312,012514	0
15.01.2021	04:43:21	0	0	4,406506	2,505	20,6388	-0,781	82,818	0	1010,34	5,8	7,7	7,7	1	1	1	1	1	1	1	1	1	0	1	-3,805497	273,069973	311,461745	0
15.01.2021	04:43:22	0	0	4,406506	2,50575	15,4116	-0,782	82,837	0	1010,34	5,8	7,7	7,7	1	1	1	1	1	1	1	1	1	0	1	-6,342495	273,250457	309,759069	0
15.01.2021	04:43:23	0	0	4,406506	2,58	9,3672	-0,782	82,82	0	1010,42	5,8	7,7	7,7	1	1	1	1	1	1	1	1	1	0	1	-2,818887	273,182042	312,966224	0
15.01.2021	04:43:24	0	0	4,293519	2,685	2,3076	-0,787	82,821	0	1010,26	5,8	7,7	7,7	1	1	1	1	1	1	1	1	1	0	1	-9,654686	273,230477	306,354437	0
15.01.2021	04:43:25	0	0	4,971443	2,69475	13,1688	-0,784	82,82	0	1010,14	5,8	7,7	7,7	1	1	1	1	1	1	1	1	1	0	1	-6,906272	273,166398	308,806511	0
15.01.2021	04:43:26	0	0	3,276633	2,6295	20,6316	-0,78	82,837	0	1010,34	5,8	7,7	7,7	1	1	1	1	1	1	1	1	1	0	1	-5,708245	273,062902	309,526343	0
15.01.2021	04:43:27	0	0	4,632481	2,71575	10,4508	-0,784	82,83	0	1010,26	5,8	7,7	7,7	1	1	1	1	1	1	1	1	1	0	1	-8,315715	273,187734	307,495714	0
15.01.2021	04:43:28	0	0	4,180532	2,7105	1,9296	-0,785	82,843	0	1010,2	5,8	7,7	7,7	1	1	1	1	1	1	1	1	1	0	1	-3,382664	273,06573	311,864984	0
15.01.2021	04:43:29	0	0	4,519494	2,7915	3,78	-0,793	82,823	0	1010,26	5,8	7,7	7,7	1	1	1	1	1	1	1	1	1	0	1	-5,637773	273,216219	310,305393	0
15.01.2021	04:43:30	0	0	4,971443	2,76375	10,8108	-0,786	82,838	0	1010,42	5,8	7,7	7,7	1	1	1	1	1	1	1	1	1	0	1	-5,285412	273,05866	309,929591	0
15.01.2021	04:43:31	0	0	4,858456	2,8215	15,0192	-0,786	82,84	0	1010,22	5,8	7,7	7,7	1	1	1	1	1	1	1	1	1	0	1	-6,8358	273,186311	308,969049	0
15.01.2021	04:43:32	0	0	2,711696	2,72025	9,3672	-0,785	82,842	0	1010,38	5,8	7,7	7,7	1	1	1	1	1	1	1	1	1	0	1	-1,338971	273,190581	314,485622	0
15.01.2021	04:43:33	0	0	2,711696	2,57925	4,8528	-0,787	82,823	0	1010,2	5,8	7,7	7,7	1	1	1	1	1	1	1	1	1	0	1	-4,792107	273,216219	311,151059	0
15.01.2021	04:43:34	0	0	2,824684	2,64825	13,9284	-0,787	82,83	0	1010,14	5,8	7,7	7,7	1	1	1	1	1	1	1	1	1	0	1	-3,875969	273,135149	311,692371	0
15.01.2021	04:43:35	0	0	4,180532	2,823	7,1352	-0,788	82,842	0	1010,32	5,8	7,7	7,7	1	1	1	1	1	1	1	1	1	0	1	-5,84919	273,069973	309,418052	0
15.01.2021	04:43:36	0	0	3,502608	2,88525	6,8076	-0,786	82,837	0	1010,22	5,8	7,7	7,7	1	1	1	1	1	1	1	1	1	0	1	-3,523608	273,098283	311,874394	0
15.01.2021	04:43:37	0	0	3,502608	2,94525	12,0996	-0,78	82,832	0	1010,28	5,8	7,7	7,7	1	1	1	1	1	1	1	1	1	0	1	-4,933051	273,072802	310,347256	0
15.01.2021	04:43:38	0	0	2,259747	2,91825	12,1068	-0,784	82,846	0	1010,38	5,8	7,7	7,7	1	1	1	1	1	1	1	1	1	0	1	-4,369274	273,211944	311,554117	0
15.01.2021	04:43:39	0	0	4,632481	2,82525	2,6604	-0,786	82,841	0	1010,24	5,8	7,7	7,7	1	1	1	1	1	1	1	1	1	0	1	-0,634249	273,105367	314,796479	0
15.01.2021	04:43:40	0	0	3,954557	2,8545	7,9812	-0,787	82,85	0	1010,28	5,8	7,7	7,7	1	1	1	1	1	1	1	1	1	0	1	-2,396054	273,051594	312,786319	0
15.01.2021	04:43:41	0	0	4,180532	2,88	2,6532	-0,791	82,853	0	1010,28	5,8	7,7	7,7	1	1	1	1	1	1	1	1	1	0	1	-5,637773	273,169242	310,088155	0
15.01.2021	04:43:42	0	0	5,197418	2,8395	21,78	-0,783	82,846	0	1010,28	5,8	7,7	7,7	1	1	1	1	1	1	1	1	1	0	1	-8,174771	273,227625	307,821156	0
15.01.2021	04:43:43	0	0	4,745468	2,8185	10,4256	-0,783	82,848	0	1010,34	5,8	7,7	7,7	1	1	1	1	1	1	1	1	1	0	1	-6,553911	273,17493	309,198314	0
15.01.2021	04:43:44	0	0	2,937671	3,0945	34,7076	-0,781	82,84	0	1010,32	5,8	7,7	7,7	1	1	1	1	1	1	1	1	1	0	1	-4,439746	273,243319	311,628789	0
15.01.2021	04:43:45	0	0	3,163646	3,066	14,6376	-0,787	82,841	0	1010,28	5,8	7,7	7,7	1	1	1	1	1	1	1	1	1	0	1	-3,805497	273,089786	311,553252	0
15.01.2021	04:43:46	0	0	2,824684	2,9895	5,6988	-0,783	82,834	0	1010,28	5,8	7,7	7,7	1	1	1	1	1	1	1	1	1	0	1	-5,919662	273,105367	309,511067	0
15.01.2021	04:43:47	0	0	4,971443	2,97375	9,0792	-0,792	82,852	0	1010,02	5,8	7,7	7,7	1	1	1	1	1	1	1	1	1	0	1	-2,60747	273,214794	313,329104	0
15.01.2021	04:43:48	0	0	4,971443	3,06675	6,4368	-0,781	82,85	0	1010,4	5,8	7,7	7,7	1	1	1	1	1	1	1	1	1	0	1	-3,875969	273,173508	311,869681	0
15.01.2021	04:43:49	0	0	4,293519	3,201	29,1096	-0,79	82,854	0	1010,2	5,8	7,7	7,7	1	1	1	1	1	1	1	1	1	0	1	-7,610994	273,213369	308,318988	0
15.01.2021	04:43:50	0	0	4,406506	3,23925	22,0716	-0,784	82,845	0	1010,36	5,8	7,7	7,7	1	1	1	1	1	1	1	1	1	0	1	-11,627907	273,20482	304,262536	0
15.01.2021	04:43:51	0	0	3,502608	3,03375	22,8456	-0,782	82,836	0	1010,26	5,8	7,7	7,7	1	1	1	1	1	1	1	1	1	0	1	-2,466526	273,189157	313,351485	0
15.01.2021	04:43:52	0	0	2,937671	2,93175	12,0996	-0,783	82,847	0	1010,26	5,8	7,7	7,7	1	1	1	1	1	1	1	1	1	0	1	-4,721635	273,227625	311,274292	0
15.01.2021	04:43:53	0	0	3,84157	2,7615	1,2024	-0,779	82,839	0	1010,22	5,8	7,7	7,7	1	1	1	1	1	1	1	1	1	0	1	-2,184637	273,135149	313,383703	0
15.01.2021	04:43:54	0	0	3,502608	2,62575	1,17	-0,788	82,853	0	1010,4	5,8	7,7	7,7	1	1	1	1	1	1	1	1	1	0	1	-5,073996	273,072802	310,206311	0
15.01.2021	04:43:55	0	0	4,632481	2,565	14,3064	-0,783	82,84	0	1010,28	5,8	7,7	7,7	1	1	1	1	1	1	1	1	1	0	1	-3,523608	273,152188	312,123483	0
15.01.2021	04:43:56	0	0	2,824684	2,6235	2,3292	-0,786	82,858	0	1010,32	5,8	7,7	7,7	1	1	1	1	1	1	1	1	1	0	1	-3,453136	273,194851	312,391206	0
15.01.2021	04:43:57	0	0	4,971443	2,757	358,002	-0,782	82,861	0	1010,38	5,8	7,7	7,7	1	1	1	1	1	1	1	1	1	0	1	-0	273,057247	315,208476	0
15.01.2021	04:43:58	0	0	3,615595	2,8665	1,9224	-0,782	82,838	0	1010,24	5,8	7,7	7,7	1	1	1	1	1	1	1	1	1	0	1	-2,889359	273,064316	312,351759	0
15.01.2021	04:43:59	0	0	4,745468	2,8305	7,5132	-0,783	82,848	0	1010,4	5,8	7,7	7,7	1	1	1	1	1	1	1	1	1	0	1	-9,44327	273,206245	306,453762	0
15.01.2021	04:44:00	0	0	4,406506	2,6445	6,444	-0,779	82,85	0	1010,24	5,8	7,7	7,7	1	1	1	1	1	1	1	1	1	0	1	-2,043693	273,064316	313,197425	0
15.01.2021	04:44:01	0	0	4,406506	2,6445	6,444	-0,779	82,85	0	1010,24	5,8	7,7	7,7	1	1	1	1	1	1	1	1	1	0	1	-2,043693	273,064316	313,197425	0
15.01.2021	04:44:02	0	0	3,163646	3,0135	9,756	-0,784	82,844	0	1010,18	5,8	7,7	7,7	1	1	1	1	1	1	1	1	1	0	1	-6,765328	273,106784	308,671948	0
15.01.2021	04:44:03	0	0	2,824684	3,40725	4,0932	-0,783	82,838	0	1010,22	5,8	7,7	7,7	1	1	1	1	1	1	1	1	1	0	1	-4,862579	273,044529	310,287178	0
15.01.2021	04:44:04	0	0	2,824684	3,84075	7,8948	-0,789	82,848	0	1010,3	5,8	7,7	7,7	1	1	1	1	1	1	1	1	1	0	1	-4,933051	273,164977	310,773159	0
15.01.2021	04:44:05	0	0	3,728582	4,0305	8,6184	-0,783	82,857	0	1010,2	5,8	7,7	7,7	1	1	1	1	1	1	1	1	1	0	1	-6,624383	273,05018	308,551465	0
15.01.2021	04:44:06	0	0	4,180532	3,84075	359,5104	-0,785	82,858	0	1010,38	5,8	7,7	7,7	1	1	1	1	1	1	1	1	1	0	1	-4,862579	273,085538	310,476551	0
15.01.2021	04:44:07	0	0	2,937671	3,8415	7,1424	-0,784	82,836	0	1010,16	5,8	7,7	7,7	1	1	1	1	1	1	1	1	1	0	1	-7,540521	273,16782	308,178833	0
15.01.2021	04:44:08	0	0	5,084431	4,13025	14,6592	-0,785	82,84	0	1010,38	5,8	7,7	7,7	1	1	1	1	1	1	1	1	1	0	1	-6,20155	273,221921	309,767992	0
15.01.2021	04:44:09	0	0	5,197418	4,11825	25,4988	-0,786	82,844	0	1010,22	5,8	7,7	7,7	1	1	1	1	1	1	1	1	1	0	1	-2,677942	273,084123	312,65465	0
15.01.2021	04:44:10	0	0	4,632481	4,11675	9,378	-0,786	82,848	0	1010,26	5,8	7,7	7,7	1	1	1	1	1	1	1	1	1	0	1	-2,114165	273,184888	313,684104	0
15.01.2021	04:44:11	0	0	2,711696	4,26975	17,7084	-0,784	82,833	0	1010,4	5,8	7,7	7,7	1	1	1	1	1	1	1	1	1	0	1	-6,694856	273,231904	309,320867	0
15.01.2021	04:44:12	0	0	3,84157	4,02225	6,4404	-0,776	82,856	0	1010,36	5,8	7,7	7,7	1	1	1	1	1	1	1	1	1	0	1	-5,003524	273,173508	310,742127	0
15.01.2021	04:44:13	0	0	2,824684	3,8415	0,8712	-0,776	82,851	0	1010,18	5,8	7,7	7,7	1	1	1	1	1	1	1	1	1	0	1	-5,708245	273,055833	309,493704	0
15.01.2021	04:44:14	0	0	3,38962	3,7995	16,4736	-0,779	82,848	0	1010,4	5,8	7,7	7,7	1	1	1	1	1	1	1	1	1	0	1	-4,087385	273,186311	311,717464	0
15.01.2021	04:44:15	0	0	4,971443	3,9555	6,8076	-0,782	82,849	0	1010,28	5,8	7,7	7,7	1	1	1	1	1	1	1	1	1	0	1	-2,255109	273,23333	313,767213	0
15.01.2021	04:44:16	0	0	3,050658	3,948	14,2884	-0,785	82,838	0	1010,18	5,8	7,7	7,7	1	1	1	1	1	1	1	1	1	0	1	-5,567301	273,086954	309,778369	0
15.01.2021	04:44:17	0	0	2,598709	3,9105	12,8556	-0,785	82,844	0	1010,3	5,8	7,7	7,7	1	1	1	1	1	1	1	1	1	0	1	-4,298802	273,160713	311,387697	0
15.01.2021	04:44:18	0	0	4,858456	4,083	7,1316	-0,777	82,833	0	1010,24	5,8	7,7	7,7	1	1	1	1	1	1	1	1	1	0	1	-0	273,051594	315,182373	0
15.01.2021	04:44:19	0	0	4,858456	4,04175	11,2032	-0,777	82,836	0	1010,32	5,8	7,7	7,7	1	1	1	1	1	1	1	1	1	0	1	-8,668076	273,17493	307,084149	0
15.01.2021	04:44:20	0	0	3,050658	4,068	14,3208	-0,782	82,844	0	1010,34	5,8	7,7	7,7	1	1	1	1	1	1	1	1	1	0	1	-2,959831	273,068558	312,300879	0
15.01.2021	04:44:21	0	0	3,276633	3,86325	34,3296	-0,785	82,847	0	1010,14	5,8	7,7	7,7	1	1	1	1	1	1	1	1	1	0	1	-1,902748	273,064316	313,338369	0
15.01.2021	04:44:22	0	0	4,745468	3,58125	23,598	-0,786	82,842	0	1010,42	5,8	7,7	7,7	1	1	1	1	1	1	1	1	1	0	1	-5,990134	273,116707	309,492987	0
15.01.2021	04:44:23	0	0	4,745468	3,2595	15,444	-0,784	82,831	0	1010,26	5,8	7,7	7,7	1	1	1	1	1	1	1	1	1	0	1	-8,245243	273,234757	307,783679	0
15.01.2021	04:44:24	0	0	2,937671	3,2955	10,3536	-0,786	82,834	0	1010,38	5,8	7,7	7,7	1	1	1	1	1	1	1	1	1	0	1	-6,20155	273,091201	309,163739	0
15.01.2021	04:44:25	0	0	2,937671	3,33	7,1388	-0,776	82,841	0	1010,4	5,8	7,7	7,7	1	1	1	1	1	1	1	1	1	0	1	-4,016913	273,05442	311,17851	0
15.01.2021	04:44:26	0	0	3,728582	3,477	12,8556	-0,781	82,82	0	1010,2	5,8	7,7	7,7	1	1	1	1	1	1	1	1	1	0	1	-8,45666	273,177775	307,308718	0
15.01.2021	04:44:27	0	0	4,067544	3,55725	17,694	-0,78	82,832	0	1010,28	5,8	7,7	7,7	1	1	1	1	1	1	1	1	1	0	1	-7,188161	273,23761	308,853964	0
15.01.2021	04:44:28	0	0	2,711696	3,53775	13,1832	-0,781	82,817	0	1010,24	5,8	7,7	7,7	1	1	1	1	1	1	1	1	1	0	1	-5,496829	273,155029	310,163396	0
15.01.2021	04:44:29	0	0	3,728582	3,513	14,3172	-0,78	82,838	0	1010,34	5,8	7,7	7,7	1	1	1	1	1	1	1	1	1	0	1	-6,8358	273,189157	308,982211	0
15.01.2021	04:44:30	0	0	3,38962	3,558	7,8876	-0,777	82,833	0	1010,32	5,8	7,7	7,7	1	1	1	1	1	1	1	1	1	0	1	-4,22833	273,079877	311,084651	0
15.01.2021	04:44:31	0	0	2,824684	3,4095	5,6988	-0,78	82,844	0	1010,44	5,8	7,7	7,7	1	1	1	1	1	1	1	1	1	0	1	-2,396054	273,157871	313,277307	0
15.01.2021	04:44:32	0	0	2,711696	3,36375	6,444	-0,782	82,817	0	1010,28	5,8	7,7	7,7	1	1	1	1	1	1	1	1	1	0	1	-7,258633	273,23761	308,783492	0
15.01.2021	04:44:33	0	0	2,824684	3,28275	9,378	-0,782	82,821	0	1010,26	5,8	7,7	7,7	1	1	1	1	1	1	1	1	1	0	1	-6,412967	273,140827	309,181614	0
15.01.2021	04:44:34	0	0	4,632481	3,08025	18,846	-0,788	82,826	0	1010,26	5,8	7,7	7,7	1	1	1	1	1	1	1	1	1	0	1	-4,933051	273,216219	311,010115	0
15.01.2021	04:44:35	0	0	2,937671	2,9325	11,2068	-0,788	82,829	0	1010,2	5,8	7,7	7,7	1	1	1	1	1	1	1	1	1	0	1	-1,761804	273,06573	313,485844	0
15.01.2021	04:44:36	0	0	3,276633	3,00675	22,8384	-0,78	82,833	0	1010,3	5,8	7,7	7,7	1	1	1	1	1	1	1	1	1	0	1	-2,818887	273,160713	312,867613	0
15.01.2021	04:44:37	0	0	4,632481	3,063	8,2692	-0,785	82,819	0	1010,22	5,8	7,7	7,7	1	1	1	1	1	1	1	1	1	0	1	-2,043693	273,231904	313,97203	0
15.01.2021	04:44:38	0	0	4,519494	3,05025	9,8568	-0,787	82,817	0	1010,22	5,8	7,7	7,7	1	1	1	1	1	1	1	1	1	0	1	-10,711769	273,152188	304,935323	0
15.01.2021	04:44:39	0	0	4,632481	3,075	9,756	-0,785	82,823	0	1010,28	5,8	7,7	7,7	1	1	1	1	1	1	1	1	1	0	1	-6,765328	273,06573	308,48232	0
15.01.2021	04:44:40	0	0	4,745468	3,20925	7,5168	-0,78	82,827	0	1010,3	5,8	7,7	7,7	1	1	1	1	1	1	1	1	1	0	1	-10,288936	273,192004	305,542239	0
15.01.2021	04:44:41	0	0	3,954557	3,24525	1,926	-0,779	82,835	0	1010,38	5,8	7,7	7,7	1	1	1	1	1	1	1	1	1	0	1	-10,641297	273,221921	305,328245	0
15.01.2021	04:44:42	0	0	4,406506	3,7725	8,6148	-0,784	82,82	0	1010,28	5,8	7,7	7,7	1	1	1	1	1	1	1	1	1	0	1	-5,637773	273,243319	310,430763	0
15.01.2021	04:44:43	0	0	4,406506	3,71025	16,0956	-0,785	82,823	0	1010,26	5,8	7,7	7,7	1	1	1	1	1	1	1	1	1	0	1	-7,258633	273,12238	308,250699	0
15.01.2021	04:44:44	0	0	3,276633	3,63825	11,7252	-0,779	82,83	0	1010,32	5,8	7,7	7,7	1	1	1	1	1	1	1	1	1	0	1	-4,510218	273,240464	311,54511	0
15.01.2021	04:44:45	0	0	3,163646	3,615	10,9152	-0,788	82,81	0	1010,3	5,8	7,7	7,7	1	1	1	1	1	1	1	1	1	0	1	-5,567301	273,112454	309,896169	0
15.01.2021	04:44:46	0	0	4,406506	3,576	13,1796	-0,781	82,813	0	1010,24	5,8	7,7	7,7	1	1	1	1	1	1	1	1	1	0	1	-5,073996	273,227625	310,921932	0
15.01.2021	04:44:47	0	0	3,050658	3,501	10,8216	-0,786	82,81	0	1010,28	5,8	7,7	7,7	1	1	1	1	1	1	1	1	1	0	1	-5,84919	273,129473	309,692919	0
15.01.2021	04:44:48	0	0	5,084431	3,28575	13,9068	-0,781	82,801	0	1010,36	5,8	7,7	7,7	1	1	1	1	1	1	1	1	1	0	1	-5,21494	273,229051	310,787585	0
15.01.2021	04:44:49	0	0	5,197418	3,29325	10,0512	-0,78	82,808	0	1010,34	5,8	7,7	7,7	1	1	1	1	1	1	1	1	1	0	1	-6,483439	273,199123	309,380657	0
15.01.2021	04:44:50	0	0	3,276633	3,285	8,2692	-0,779	82,811	0	1010,34	5,8	7,7	7,7	1	1	1	1	1	1	1	1	1	0	1	-7,047216	273,112454	308,416253	0
15.01.2021	04:44:51	0	0	2,598709	3,0645	12,4848	-0,783	82,81	0	1010,3	5,8	7,7	7,7	1	1	1	1	1	1	1	1	1	0	1	-7,751938	273,057247	307,456538	0
15.01.2021	04:44:52	0	0	2,485722	2,78775	17,2476	-0,784	82,804	0	1010,32	5,8	8	7,7	1	1	1	1	1	1	1	1	1	0	1	-5,990134	273,177775	309,775244	0
15.01.2021	04:44:53	0	0	3,276633	2,8485	19,9008	-0,781	82,8	0	1010,42	5,8	7,7	7,7	1	1	1	1	1	1	1	1	1	0	1	-9,936575	273,064316	305,304543	0
15.01.2021	04:44:54	0	0	3,502608	3,036	6,4404	-0,78	82,802	0	1010,34	5,8	7,7	7,7	1	1	1	1	1	1	1	1	1	0	1	-5,708245	273,128054	309,827307	0
15.01.2021	04:44:55	0	0	4,745468	3,18375	10,8252	-0,776	82,806	0	1010,42	5,8	7,7	7,7	1	1	1	1	1	1	1	1	1	0	1	-6,272023	273,0997	309,132523	0
15.01.2021	04:44:56	0	0	3,615595	3,29925	13,5504	-0,776	82,796	0	1010,26	5,8	7,7	7,7	1	1	1	1	1	1	1	1	1	0	1	-9,090909	273,118125	306,398764	0
15.01.2021	04:44:57	0	0	4,293519	3,25575	12,8448	-0,779	82,799	0	1010,3	5,8	7,7	7,7	1	1	1	1	1	1	1	1	1	0	1	-6,8358	273,249029	309,259157	0
15.01.2021	04:44:58	0	0	3,954557	3,08025	10,4508	-0,784	82,791	0	1010,36	5,8	7,7	7,7	1	1	1	1	1	1	1	1	1	0	1	-6,8358	273,160713	308,850699	0
15.01.2021	04:44:59	0	0	4,293519	2,83275	17,6976	-0,78	82,773	0	1010,4	5,8	7,7	7,7	1	1	1	1	1	1	1	1	1	0	1	-7,047216	273,239037	309,00151	0
15.01.2021	04:45:00	0	0	3,276633	2,60925	4,8348	-0,779	82,798	0	1010,34	5,8	7,7	7,7	1	1	1	1	1	1	1	1	1	0	1	-6,624383	273,08837	308,727826	0
15.01.2021	04:45:01	0	0	3,276633	2,60925	4,8348	-0,779	82,798	0	1010,34	5,8	7,7	7,7	1	1	1	1	1	1	1	1	1	0	1	-6,624383	273,08837	308,727826	0
15.01.2021	04:45:02	0	0	3,502608	2,9505	13,9068	-0,783	82,789	0	1010,16	5,8	7,7	7,7	1	1	1	1	1	1	1	1	1	0	1	-6,483439	273,190581	309,341154	0
15.01.2021	04:45:03	0	0	4,971443	3,05925	15,0228	-0,786	82,791	0	1010,2	5,8	7,7	7,7	1	1	1	1	1	1	1	1	1	0	1	-7,963354	273,062902	307,271234	0
15.01.2021	04:45:04	0	0	3,84157	3,09975	14,6556	-0,779	82,802	0	1010,4	5,8	7,7	7,7	1	1	1	1	1	1	1	1	1	0	1	-10,923185	273,177775	304,842193	0
15.01.2021	04:45:05	0	0	4,519494	3,26775	12,8484	-0,787	82,786	0	1010,3	5,8	7,7	7,7	1	1	1	1	1	1	1	1	1	0	1	-8,879493	273,23333	307,142829	0
15.01.2021	04:45:06	0	0	2,937671	3,201	6,8112	-0,784	82,786	0	1010,24	5,8	7,7	7,7	1	1	1	1	1	1	1	1	1	0	1	-8,879493	273,16782	306,839862	0
15.01.2021	04:45:07	0	0	3,163646	3,0945	15,0372	-0,784	82,774	0	1010,2	5,8	7,7	7,7	1	1	1	1	1	1	1	1	1	0	1	-3,875969	273,077046	311,423941	0
15.01.2021	04:45:08	0	0	3,502608	3,30375	15,7752	-0,782	82,79	0	1010,44	5,8	7,7	7,7	1	1	1	1	1	1	1	1	1	0	1	-8,597604	273,177775	307,167774	0
15.01.2021	04:45:09	0	0	3,954557	3,48225	17,694	-0,782	82,784	0	1010,3	5,8	7,7	7,7	1	1	1	1	1	1	1	1	1	0	1	-6,553911	273,246173	309,527834	0
15.01.2021	04:45:10	0	0	3,84157	3,696	12,8484	-0,789	82,782	0	1010,14	5,8	7,7	7,7	1	1	1	1	1	1	1	1	1	0	1	-7,540521	273,186311	308,264328	0
15.01.2021	04:45:11	0	0	4,858456	3,93975	10,44	-0,781	82,786	0	1010,34	5,8	7,7	7,7	1	1	1	1	1	1	1	1	1	0	1	-5,496829	273,077046	309,803081	0
15.01.2021	04:45:12	0	0	2,937671	3,87375	7,1496	-0,778	82,785	0	1010,44	5,8	7,7	7,7	1	1	1	1	1	1	1	1	1	0	1	-5,144468	273,089786	310,214281	0
15.01.2021	04:45:13	0	0	3,615595	3,7755	17,2368	-0,783	82,772	0	1010,36	5,8	7,7	7,7	1	1	1	1	1	1	1	1	1	0	1	-7,610994	273,075631	307,682381	0
15.01.2021	04:45:14	0	0	4,745468	3,699	6,8184	-0,779	82,778	0	1010,22	5,8	7,7	7,7	1	1	1	1	1	1	1	1	1	0	1	-9,302326	273,082707	306,023729	0
15.01.2021	04:45:15	0	0	2,937671	3,73425	7,1316	-0,78	82,773	0	1010,3	5,8	8	7,7	1	1	1	1	1	1	1	1	1	0	1	-3,875969	273,159292	311,803961	0
15.01.2021	04:45:16	0	0	3,615595	3,52425	6,0624	-0,786	82,771	0	1010,34	5,8	7,7	7,7	1	1	1	1	1	1	1	1	1	0	1	-5,144468	273,067144	310,109711	0
15.01.2021	04:45:17	0	0	5,084431	3,29775	19,1484	-0,779	82,767	0	1010,24	5,8	7,7	7,7	1	1	1	1	1	1	1	1	1	0	1	-4,792107	273,210519	311,124693	0
15.01.2021	04:45:18	0	0	4,293519	3,111	353,9988	-0,785	82,775	0	1010,18	5,8	7,7	7,7	1	1	1	1	1	1	1	1	1	0	1	-5,990134	273,240464	310,065195	0
15.01.2021	04:45:19	0	0	4,971443	3,10275	359,946	-0,782	82,785	0	1010,32	5,8	7,7	7,7	1	1	1	1	1	1	1	1	1	0	1	-5,496829	273,227625	310,499099	0
15.01.2021	04:45:20	0	0	4,406506	3,39	9,3888	-0,782	82,762	0	1010,16	5,8	7,7	7,7	1	1	1	1	1	1	1	1	1	0	1	-8,315715	273,115289	307,160855	0
15.01.2021	04:45:21	0	0	4,067544	3,606	14,2884	-0,785	82,761	0	1010,34	5,8	7,7	7,7	1	1	1	1	1	1	1	1	1	0	1	-5,778717	273,068558	309,481992	0
15.01.2021	04:45:22	0	0	4,519494	3,49125	16,4484	-0,786	82,789	0	1010,06	5,8	7,7	7,7	1	1	1	1	1	1	1	1	1	0	1	-7,610994	273,089786	307,747755	0
15.01.2021	04:45:23	0	0	5,197418	3,8235	13,1544	-0,769	82,77	0	1010,32	5,8	7,7	7,7	1	1	1	1	1	1	1	1	1	0	1	-7,82241	273,13231	307,732813	0
15.01.2021	04:45:24	0	0	2,711696	4,13625	12,474	-0,789	82,779	0	1010,24	5,8	7,7	7,7	1	1	1	1	1	1	1	1	1	0	1	-3,453136	273,240464	312,602193	0
15.01.2021	04:45:25	0	0	3,050658	4,2705	15,7932	-0,787	82,772	0	1010,22	5,8	8	7,7	1	1	1	1	1	1	1	1	1	0	1	-2,114165	273,0997	313,290381	0
15.01.2021	04:45:26	0	0	3,728582	4,17225	15,7932	-0,783	82,775	0	1010,32	5,8	7,7	7,7	1	1	1	1	1	1	1	1	1	0	1	-8,315715	273,229051	307,68681	0
15.01.2021	04:45:27	0	0	5,084431	3,96675	12,1032	-0,783	82,778	0	1010,34	5,8	7,7	7,7	1	1	1	1	1	1	1	1	1	0	1	-1,409443	273,201971	314,467825	0
15.01.2021	04:45:28	0	0	2,711696	3,717	12,1068	-0,78	82,786	0	1010,38	5,8	7,7	7,7	1	1	1	1	1	1	1	1	1	0	1	-4,22833	273,239037	311,820397	0
15.01.2021	04:45:29	0	0	3,163627	3,5235	6,0588	-0,785	82,764	0	1010,34	5,8	7,7	7,8	1	1	1	1	1	1	1	1	1	0	1	-5,778717	273,05866	309,436286	0
15.01.2021	04:45:30	0	0	2,711696	3,591	12,1032	-0,779	82,783	0	1010,38	5,8	7,7	7,7	1	1	1	1	1	1	1	1	1	0	1	-3,523608	273,189157	312,294403	0
15.01.2021	04:45:31	0	0	2,937671	3,45525	6,0768	-0,785	82,787	0	1010,34	5,8	7,7	7,7	1	1	1	1	1	1	1	1	1	0	1	-1,127555	273,092618	314,244276	0
15.01.2021	04:45:32	0	0	2,937671	3,48225	4,8492	-0,789	82,787	0	1010,18	5,8	7,7	7,7	1	1	1	1	1	1	1	1	1	0	1	-2,818887	273,196275	313,032039	0
15.01.2021	04:45:33	0	0	4,519494	3,4905	4,0896	-0,779	82,786	0	1010,3	5,8	7,7	7,7	1	1	1	1	1	1	1	1	1	0	1	-3,382664	273,239037	312,666062	0
15.01.2021	04:45:34	0	0	4,745468	3,39675	9,7596	-0,782	82,779	0	1010,24	5,8	7,7	7,7	1	1	1	1	1	1	1	1	1	0	1	-3,946441	273,160713	311,740058	0
15.01.2021	04:45:35	0	0	2,711696	3,396	15,03	-0,786	82,78	0	1010,4	5,8	7,7	7,7	1	1	1	1	1	1	1	1	1	0	1	-6,20155	273,05018	308,974298	0
15.01.2021	04:45:36	0	0	2,824684	3,47925	14,2992	-0,78	82,783	0	1010,32	5,8	7,7	7,7	1	1	1	1	1	1	1	1	1	0	1	-7,963354	273,0997	307,441191	0
15.01.2021	04:45:37	0	0	3,615595	3,5505	14,6664	-0,783	82,769	0	1010,14	5,8	7,7	7,7	1	1	1	1	1	1	1	1	1	0	1	-7,540521	273,067144	307,713657	0
15.01.2021	04:45:38	0	0	4,632481	3,537	5,2272	-0,786	82,792	0	1010,24	5,8	7,7	7,7	1	1	1	1	1	1	1	1	1	0	1	-7,329105	273,23761	308,713019	0
15.01.2021	04:45:39	0	0	5,310405	3,4635	4,4748	-0,785	82,777	0	1010,34	5,8	7,7	7,7	1	1	1	1	1	1	1	1	1	0	1	-8,245243	273,163555	307,454397	0
15.01.2021	04:45:40	0	0	3,84157	3,32625	5,112	-0,782	82,79	0	1010,28	5,8	7,7	7,7	1	1	1	1	1	1	1	1	1	0	1	-5,708245	273,064316	309,532872	0
15.01.2021	04:45:41	0	0	5,084431	3,33525	11,2068	-0,788	82,768	0	1010,34	5,8	7,7	7,7	1	1	1	1	1	1	1	1	1	0	1	-1,832276	273,182042	313,952835	0
15.01.2021	04:45:42	0	0	4,971413	3,37125	9,756	-0,782	82,775	0	1010,3	5,8	8	7,8	1	1	1	1	1	1	1	1	1	0	1	-6,20155	273,055833	309,000399	0
15.01.2021	04:45:43	0	0	2,259747	3,35925	7,1316	-0,786	82,752	0	1010,3	5,8	7,7	7,7	1	1	1	1	1	1	1	1	1	0	1	-6,060606	273,128054	309,474946	0
15.01.2021	04:45:44	0	0	2,598693	3,43575	6,8148	-0,784	82,768	0	1010,2	5,8	7,7	7,8	1	1	1	1	1	1	1	1	1	0	1	-8,315715	273,249029	307,779241	0
15.01.2021	04:45:45	0	0	4,971443	3,50775	8,2584	-0,784	82,762	0	1010,3	5,8	7,7	7,7	1	1	1	1	1	1	1	1	1	0	1	-5,778717	273,20482	310,111726	0
15.01.2021	04:45:46	0	0	4,180532	3,33225	7,5204	-0,78	82,782	0	1010,36	5,8	7,7	7,7	1	1	1	1	1	1	1	1	1	0	1	-5,708245	273,226199	310,281085	0
15.01.2021	04:45:47	0	0	4,067544	3,225	12,1104	-0,786	82,754	0	1010,2	5,8	7,7	7,7	1	1	1	1	1	1	1	1	1	0	1	-3,946441	273,196275	311,904485	0
15.01.2021	04:45:48	0	0	4,858456	3,1305	8,2692	-0,778	82,769	0	1010,26	5,8	7,7	7,7	1	1	1	1	1	1	1	1	1	0	1	-4,792107	273,101116	310,618983	0
15.01.2021	04:45:49	0	0	3,615595	3,09225	6,4368	-0,783	82,747	0	1010,4	5,8	7,7	7,7	1	1	1	1	1	1	1	1	1	0	1	-4,510218	273,060074	310,711312	0
15.01.2021	04:45:50	0	0	3,502587	3,0315	1,5696	-0,784	82,777	0	1010,28	5,8	7,7	7,8	1	1	1	1	1	1	1	1	1	0	1	-9,302326	273,182042	306,482785	0
15.01.2021	04:45:51	0	0	4,067544	3,00825	1,1844	-0,783	82,76	0	1010,26	5,8	7,7	7,7	1	1	1	1	1	1	1	1	1	0	1	-3,312192	273,057247	311,896284	0
15.01.2021	04:45:52	0	0	3,728582	3,00075	3,7836	-0,79	82,761	0	1010,22	5,8	8	7,7	1	1	1	1	1	1	1	1	1	0	1	-4,862579	273,186311	310,94227	0
15.01.2021	04:45:53	0	0	4,406506	2,96325	7,1352	-0,785	82,748	0	1010,3	5,8	7,7	7,7	1	1	1	1	1	1	1	1	1	0	1	-0	273,243319	316,068536	0
15.01.2021	04:45:54	0	0	3,163646	2,814	6,8148	-0,784	82,772	0	1010,16	5,8	7,7	7,7	1	1	1	1	1	1	1	1	1	0	1	-3,875969	273,190581	311,948624	0
15.01.2021	04:45:55	0	0	3,276633	2,64	8,7156	-0,781	82,768	0	1010,36	5,8	7,7	7,7	1	1	1	1	1	1	1	1	1	0	1	-3,100775	273,172086	312,6383	0
15.01.2021	04:45:56	0	0	2,824684	2,5245	7,8876	-0,787	82,749	0	1010,24	5,8	7,7	7,7	1	1	1	1	1	1	1	1	1	0	1	-10,077519	273,074217	305,209321	0
15.01.2021	04:45:57	0	0	3,050658	2,451	360	-0,778	82,77	0	1010,4	5,8	7,7	7,7	1	1	1	1	1	1	1	1	1	0	1	-7,540521	273,179197	308,231433	0
15.01.2021	04:45:58	0	0	4,858456	2,4855	1,9224	-0,781	82,768	0	1010,36	5,8	7,7	7,7	1	1	1	1	1	1	1	1	1	0	1	-0,845666	273,249029	315,249291	0
15.01.2021	04:45:59	0	0	3,954557	2,56425	7,8804	-0,782	82,756	0	1010,16	5,8	7,7	7,7	1	1	1	1	1	1	1	1	1	0	1	-3,523608	273,085538	311,815523	0
15.01.2021	04:46:00	0	0	4,180532	2,27025	15,786	-0,785	82,766	0	1010,34	5,8	7,7	7,7	1	1	1	1	1	1	1	1	1	0	1	-3,59408	273,23761	312,448044	0
15.01.2021	04:46:01	0	0	4,180532	2,27025	15,786	-0,785	82,766	0	1010,34	5,8	7,7	7,7	1	1	1	1	1	1	1	1	1	0	1	-3,59408	273,23761	312,448044	0
15.01.2021	04:46:02	0	0	4,745468	2,17875	359,4888	-0,779	82,77	0	1010,32	5,8	7,7	7,7	1	1	1	1	1	1	1	1	1	0	1	-7,188161	273,231904	308,827562	0
15.01.2021	04:46:03	0	0	3,615595	2,307	6,0804	-0,775	82,757	0	1010,3	5,8	7,7	7,7	1	1	1	1	1	1	1	1	1	0	1	-6,342495	273,190581	309,482098	0
15.01.2021	04:46:04	0	0	4,745468	2,56725	9	-0,781	82,776	0	1010,2	5,8	7,7	7,7	1	1	1	1	1	1	1	1	1	0	1	-7,399577	273,082707	307,926478	0
15.01.2021	04:46:05	0	0	3,615595	2,754	7,128	-0,785	82,771	0	1010,36	5,8	7,7	7,7	1	1	1	1	1	1	1	1	1	0	1	-3,59408	273,0997	311,810466	0
15.01.2021	04:46:06	0	0	3,163646	2,83425	4,8312	-0,789	82,763	0	1010,4	5,8	8	7,7	1	1	1	1	1	1	1	1	1	0	1	-1,338971	273,091201	314,026319	0
15.01.2021	04:46:07	0	0	3,163646	2,8995	0,8604	-0,781	82,784	0	1010,38	5,8	7,7	7,7	1	1	1	1	1	1	1	1	1	0	1	-4,510218	273,112454	310,953251	0
15.01.2021	04:46:08	0	0	2,824684	2,93175	0,504	-0,783	82,779	0	1010,18	5,8	7,7	7,7	1	1	1	1	1	1	1	1	1	0	1	-3,664553	273,026174	311,400472	0
15.01.2021	04:46:09	0	0	3,050658	2,9595	360	-0,784	82,754	0	1010,28	5,9	7,7	7,7	1	1	1	1	1	1	1	1	1	0	1	-3,030303	273,192004	312,800872	0
15.01.2021	04:46:10	0	0	3,84157	2,92575	357,8508	-0,784	82,77	0	1010,26	5,8	7,7	7,7	1	1	1	1	1	1	1	1	1	0	1	-5,426357	273,09545	309,958559	0
15.01.2021	04:46:11	0	0	2,711696	2,871	2,3184	-0,784	82,782	0	1010,24	5,7	7,7	7,7	1	1	1	1	1	1	1	1	1	0	1	-5,990134	273,082707	309,335921	0
15.01.2021	04:46:12	0	0	5,197387	2,844	5,6592	-0,787	82,77	0	1010,16	5,7	8	7,8	1	1	1	1	1	1	1	1	1	0	1	-7,258633	273,21907	308,69772	0
15.01.2021	04:46:13	0	0	3,615595	2,8665	5,2164	-0,783	82,78	0	1010,32	5,8	7,7	7,7	1	1	1	1	1	1	1	1	1	0	1	-5,567301	273,136568	310,007598	0
15.01.2021	04:46:14	0	0	3,84157	2,949	7,8948	-0,783	82,785	0	1010,44	5,8	7,7	7,7	1	1	1	1	1	1	1	1	1	0	1	-7,188161	273,246173	308,893584	0
15.01.2021	04:46:15	0	0	4,745468	2,96025	9,3816	-0,786	82,765	0	1010,16	5,8	7,7	7,7	1	1	1	1	1	1	1	1	1	0	1	-1,973221	273,123798	313,542665	0
15.01.2021	04:46:16	0	0	5,197418	3,11025	0,1368	-0,781	82,78	0	1010,34	5,8	7,7	7,7	1	1	1	1	1	1	1	1	1	0	1	-3,382664	273,072802	311,897643	0
15.01.2021	04:46:17	0	0	2,824684	3,2745	5,3136	-0,777	82,778	0	1010,46	5,7	8	7,7	1	1	1	1	1	1	1	1	1	0	1	-5,637773	273,17493	310,114452	0
15.01.2021	04:46:18	0	0	4,745468	3,62925	11,718	-0,779	82,786	0	1010,34	5,8	8	7,7	1	1	1	1	1	1	1	1	1	0	1	-3,24172	273,069973	312,025522	0
15.01.2021	04:46:19	0	0	4,06752	3,579	20,6316	-0,783	82,771	0	1010,28	5,8	7,7	7,8	1	1	1	1	1	1	1	1	1	0	1	-2,466526	273,203396	313,41733	0
15.01.2021	04:46:20	0	0	3,163646	3,19575	15,7968	-0,786	82,77	0	1010,3	5,8	7,7	7,7	1	1	1	1	1	1	1	1	1	0	1	-5,567301	273,223347	310,408837	0
15.01.2021	04:46:21	0	0	3,954557	2,8785	30,78	-0,786	82,784	0	1010,4	5,8	7,7	7,7	1	1	1	1	1	1	1	1	1	0	1	-3,805497	273,135149	311,762843	0
15.01.2021	04:46:22	0	0	2,824684	2,8065	29,1096	-0,786	82,785	0	1010,24	5,8	7,7	7,7	1	1	1	1	1	1	1	1	1	0	1	-8,80902	273,092618	306,562811	0
15.01.2021	04:46:23	0	0	3,72856	2,7915	17,2404	-0,782	82,795	0	1010,34	5,8	7,7	7,8	1	1	1	1	1	1	1	1	1	0	1	-5,567301	273,048768	309,602024	0
15.01.2021	04:46:24	0	0	3,163627	3,078	18,9324	-0,783	82,794	0	1010,4	5,8	7,7	7,8	1	1	1	1	1	1	1	1	1	0	1	-0,563777	273,164977	315,142433	0
15.01.2021	04:46:25	0	0	3,050658	3,126	17,2404	-0,781	82,793	0	1010,42	5,8	7,7	7,7	1	1	1	1	1	1	1	1	1	0	1	-11,134602	273,068558	304,126108	0
15.01.2021	04:46:26	0	0	3,954533	3,0105	21,3948	-0,781	82,783	0	1010,22	5,7	7,7	7,8	1	1	1	1	1	1	1	1	1	0	1	-7,82241	273,193428	308,015348	0
15.01.2021	04:46:27	0	0	4,74544	3,33825	7,5132	-0,787	82,784	0	1010,38	5,8	7,7	7,8	1	1	1	1	1	1	1	1	1	0	1	-5,567301	273,244746	310,507839	0
15.01.2021	04:46:28	0	0	3,502608	3,47925	15,1272	-0,784	82,785	0	1010,4	5,8	7,7	7,7	1	1	1	1	1	1	1	1	1	0	1	-6,8358	273,155029	308,824425	0
15.01.2021	04:46:29	0	0	4,180532	3,47625	18,8316	-0,785	82,795	0	1010,34	5,8	7,7	7,7	1	1	1	1	1	1	1	1	1	0	1	-0,211416	273,089786	315,147333	0
15.01.2021	04:46:30	0	0	4,40648	3,6315	15,0444	-0,783	82,784	0	1010,32	5,8	7,7	7,8	1	1	1	1	1	1	1	1	1	0	1	-5,778717	273,142247	309,822425	0
15.01.2021	04:46:31	0	0	4,632481	3,5595	4,086	-0,782	82,782	0	1010,3	5,8	7,7	7,7	1	1	1	1	1	1	1	1	1	0	1	-3,735025	273,078461	311,57142	0
15.01.2021	04:46:32	0	0	4,180532	3,49575	17,3124	-0,788	82,777	0	1010,36	5,8	7,7	7,7	1	1	1	1	1	1	1	1	1	0	1	-6,976744	273,166398	308,736038	0
15.01.2021	04:46:33	0	0	4,40648	3,42525	12,1032	-0,786	82,79	0	1010,26	5,8	7,7	7,8	1	1	1	1	1	1	1	1	1	0	1	-3,382664	273,249029	312,712293	0
15.01.2021	04:46:34	0	0	3,615595	3,3555	11,7108	-0,781	82,783	0	1010,22	5,8	7,7	7,7	1	1	1	1	1	1	1	1	1	0	1	-7,329105	273,137988	308,252354	0
15.01.2021	04:46:35	0	0	2,711696	3,4845	15,4116	-0,784	82,78	0	1010,26	5,8	7,7	7,7	1	1	1	1	1	1	1	1	1	0	1	-4,087385	273,250457	312,014178	0
15.01.2021	04:46:36	0	0	2,485722	3,66675	12,8556	-0,787	82,786	0	1010,3	5,9	7,9	7,7	1	1	1	1	1	1	1	1	1	0	1	-5,567301	273,179197	310,204654	0
15.01.2021	04:46:37	0	0	2,598693	3,77475	13,1688	-0,783	82,802	0	1010,18	5,8	8	7,8	1	1	1	1	1	1	1	1	1	0	1	-2,466526	273,06573	312,781122	0
15.01.2021	04:46:38	0	0	4,632481	3,564	11,7144	-0,784	82,781	0	1010,42	5,8	7,7	7,7	1	1	1	1	1	1	1	1	1	0	1	-4,862579	273,069973	310,404662	0
15.01.2021	04:46:39	0	0	3,954533	3,5535	6,444	-0,783	82,794	0	1010,32	5,8	7,7	7,8	1	1	1	1	1	1	1	1	1	0	1	-3,100775	273,217644	312,848984	0
15.01.2021	04:46:40	0	0	3,163627	3,5865	12,0924	-0,785	82,79	0	1010,22	5,8	7,7	7,8	1	1	1	1	1	1	1	1	1	0	1	-5,21494	273,120961	310,287838	0
15.01.2021	04:46:41	0	0	4,632481	3,37275	17,2476	-0,787	82,799	0	1010,38	5,8	7,7	7,7	1	1	1	1	1	1	1	1	1	0	1	-11,134602	273,184888	304,663667	0
15.01.2021	04:46:42	0	0	4,745468	3,09975	21,7692	-0,785	82,803	0	1010,4	5,7	8	7,7	1	1	1	1	1	1	1	1	1	0	1	-7,610994	273,234757	308,417929	0
15.01.2021	04:46:43	0	0	4,632481	3,26025	26,172	-0,784	82,771	0	1010,3	5,7	7,7	7,7	1	1	1	1	1	1	1	1	1	0	1	-10,641297	273,23761	305,400828	0
15.01.2021	04:46:44	0	0	4,519494	3,468	360	-0,784	82,796	0	1010,3	5,8	7,7	7,7	1	1	1	1	1	1	1	1	1	0	1	-1,479915	273,279035	314,753907	0
15.01.2021	04:46:45	0	0	2,937671	3,4905	3,0096	-0,788	82,791	0	1010,28	5,7	7,7	7,7	1	1	1	1	1	1	1	1	1	0	1	-1,832276	273,105367	313,598452	0
15.01.2021	04:46:46	0	0	3,72856	3,351	6,066	-0,786	82,789	0	1010,26	5,8	7,9	7,8	1	1	1	1	1	1	1	1	1	0	1	-2,466526	273,126635	313,06247	0
15.01.2021	04:46:47	0	0	4,971413	3,30975	12,8304	-0,787	82,796	0	1010,38	5,9	7,7	7,8	1	1	1	1	1	1	1	1	1	0	1	-5,990134	273,256169	310,137862	0
15.01.2021	04:46:48	0	0	3,615595	3,22275	4,8384	-0,791	82,785	0	1010,34	5,8	8	7,7	1	1	1	1	1	1	1	1	1	0	1	-5,990134	273,172086	309,748942	0
15.01.2021	04:46:49	0	0	2,711696	3,144	4,0968	-0,787	82,791	0	1010,32	5,8	7,7	7,7	1	1	1	1	1	1	1	1	1	0	1	-2,818887	273,256169	313,30911	0
15.01.2021	04:46:50	0	0	4,971413	3,0405	11,268	-0,781	82,786	0	1010,24	5,8	7,7	7,8	1	1	1	1	1	1	1	1	1	0	1	-4,087385	273,13373	311,474396	0
15.01.2021	04:46:51	0	0	5,42336	3,0945	9,0144	-0,781	82,788	0	1010,38	5,8	7,7	7,8	1	1	1	1	1	1	1	1	1	0	1	-3,312192	273,075631	311,981183	0
15.01.2021	04:46:52	0	0	4,745468	3,4155	6,0696	-0,786	82,79	0	1010,36	5,7	7,7	7,7	1	1	1	1	1	1	1	1	1	0	1	-2,748414	273,186311	313,056435	0
15.01.2021	04:46:53	0	0	2,711696	3,71475	359,9028	-0,783	82,801	0	1010,3	5,8	7,7	7,7	1	1	1	1	1	1	1	1	1	0	1	-4,721635	273,392336	312,036955	0
15.01.2021	04:46:54	0	0	2,598693	3,579	29,1096	-0,784	82,781	0	1010,28	5,8	7,7	7,8	1	1	1	1	1	1	1	1	1	0	1	-9,44327	273,152188	306,203822	0
15.01.2021	04:46:55	0	0	4,519467	3,17175	14,6484	-0,782	82,792	0	1010,38	5,7	7,9	7,8	1	1	1	1	1	1	1	1	1	0	1	-6,412967	273,236183	309,622556	0
15.01.2021	04:46:56	0	0	5,0844	3,0105	8,6004	-0,79	82,784	0	1010,3	5,9	7,7	7,8	1	1	1	1	1	1	1	1	1	0	1	-4,792107	273,224773	311,190626	0
15.01.2021	04:46:57	0	0	2,711696	2,86425	9,7452	-0,787	82,788	0	1010,4	5,7	7,7	7,7	1	1	1	1	1	1	1	1	1	0	1	-5,21494	273,09545	310,169975	0
15.01.2021	04:46:58	0	0	4,632481	2,88375	360	-0,784	82,793	0	1010,42	5,8	8	7,7	1	1	1	1	1	1	1	1	1	0	1	-1,973221	273,206245	313,923811	0
15.01.2021	04:46:59	0	0	5,310373	2,80125	12,8592	-0,786	82,798	0	1010,36	5,7	7,7	7,8	1	1	1	1	1	1	1	1	1	0	1	-9,231853	273,227625	306,764074	0
15.01.2021	04:47:00	0	0	4,180532	2,6775	14,0004	-0,785	82,784	0	1010,2	5,8	7,7	7,7	1	1	1	1	1	1	1	1	1	0	1	-5,073996	273,125216	310,448445	0
15.01.2021	04:47:01	0	0	4,180532	2,6775	14,0004	-0,785	82,784	0	1010,2	5,8	7,7	7,7	1	1	1	1	1	1	1	1	1	0	1	-5,073996	273,125216	310,448445	0
15.01.2021	04:47:02	0	0	4,971443	2,694	11,7252	-0,791	82,783	0	1010,2	5,7	7,7	7,7	1	1	1	1	1	1	1	1	1	0	1	-1,62086	273,247601	314,467491	0
15.01.2021	04:47:03	0	0	3,276633	2,823	11,7036	-0,787	82,778	0	1010,22	5,7	8	7,7	1	1	1	1	1	1	1	1	1	0	1	-3,805497	273,119543	311,690729	0
15.01.2021	04:47:04	0	0	4,406506	2,8935	7,128	-0,781	82,793	0	1010,38	5,8	7,7	7,7	1	1	1	1	1	1	1	1	1	0	1	-4,087385	273,240464	311,967943	0
15.01.2021	04:47:05	0	0	3,3896	2,97	18,0756	-0,789	82,787	0	1010,3	5,8	8	7,8	1	1	1	1	1	1	1	1	1	0	1	-4,439746	273,209094	311,470464	0
15.01.2021	04:47:06	0	0	4,858427	2,8395	15,4044	-0,791	82,801	0	1010,34	5,8	8	7,8	1	1	1	1	1	1	1	1	1	0	1	-6,131078	273,064316	309,110039	0
15.01.2021	04:47:07	0	0	2,711696	2,7165	7,506	-0,783	82,797	0	1010,28	5,7	7,7	7,7	1	1	1	1	1	1	1	1	1	0	1	-5,496829	273,189157	310,321182	0
15.01.2021	04:47:08	0	0	2,824684	2,799	20,628	-0,784	82,79	0	1010,32	5,7	7,9	7,7	1	1	1	1	1	1	1	1	1	0	1	-3,875969	273,254741	312,245418	0
15.01.2021	04:47:09	0	0	4,632481	2,8305	20,2644	-0,787	82,787	0	1010,1	5,7	7,7	7,7	1	1	1	1	1	1	1	1	1	0	1	-7,751938	273,187734	308,059492	0
15.01.2021	04:47:10	0	0	3,954533	2,85825	13,1688	-0,784	82,791	0	1010,16	5,8	7,7	7,8	1	1	1	1	1	1	1	1	1	0	1	-7,540521	273,075631	307,752853	0
15.01.2021	04:47:11	0	0	4,180532	2,886	10,9008	-0,785	82,785	0	1010,48	5,8	7,9	7,7	1	1	1	1	1	1	1	1	1	0	1	-8,245243	273,163555	307,454397	0
15.01.2021	04:47:12	0	0	4,745468	2,88675	14,6448	-0,783	82,797	0	1010,28	5,8	7,7	7,7	1	1	1	1	1	1	1	1	1	0	1	-6,412967	273,250457	309,688597	0
15.01.2021	04:47:13	0	0	4,632481	2,991	17,7048	-0,783	82,8	0	1010,36	5,9	7,9	7,7	1	1	1	1	1	1	1	1	1	0	1	-7,399577	273,173508	308,346073	0
15.01.2021	04:47:14	0	0	3,05064	2,9445	360	-0,783	82,789	0	1010,28	5,8	7,7	7,8	1	1	1	1	1	1	1	1	1	0	1	-1,832276	273,269027	314,355229	0
15.01.2021	04:47:15	0	0	4,40648	2,835	12,852	-0,785	82,797	0	1010,44	5,7	7,7	7,8	1	1	1	1	1	1	1	1	1	0	1	-3,24172	273,157871	312,431641	0
15.01.2021	04:47:16	0	0	3,72856	2,8005	12,0996	-0,781	82,788	0	1010,14	5,9	7,7	7,8	1	1	1	1	1	1	1	1	1	0	1	-4,157858	273,239037	311,890869	0
15.01.2021	04:47:17	0	0	4,971443	2,7675	8,6004	-0,785	82,791	0	1010,26	5,7	7,7	7,7	1	1	1	1	1	1	1	1	1	0	1	-9,654686	273,210519	306,262114	0
15.01.2021	04:47:18	0	0	4,519494	2,8125	8,622	-0,785	82,791	0	1010,22	5,9	7,9	7,7	1	1	1	1	1	1	1	1	1	0	1	-7,258633	273,068558	308,002077	0
15.01.2021	04:47:19	0	0	4,40648	2,86725	4,086	-0,785	82,78	0	1010,5	5,8	7,7	7,8	1	1	1	1	1	1	1	1	1	0	1	-6,976744	273,113871	308,493275	0
15.01.2021	04:47:20	0	0	2,711696	2,748	3,0276	-0,784	82,791	0	1010,28	5,9	7,9	7,7	1	1	1	1	1	1	1	1	1	0	1	-4,157858	273,256169	311,970139	0
15.01.2021	04:47:21	0	0	4,293519	2,55825	0	-0,783	82,794	0	1010,44	5,8	7,7	7,7	1	1	1	1	1	1	1	1	1	0	1	-1,198027	273,05018	313,977822	0
15.01.2021	04:47:22	0	0	2,937671	2,4	0,8928	-0,79	82,801	0	1010,32	5,7	7,7	7,7	1	1	1	1	1	1	1	1	1	0	1	-6,20155	273,186311	309,603299	0
15.01.2021	04:47:23	0	0	3,841547	2,3835	10,4472	-0,783	82,806	0	1010,44	5,8	8	7,8	1	1	1	1	1	1	1	1	1	0	1	-4,087385	273,074217	311,199455	0
15.01.2021	04:47:24	0	0	3,954557	2,39175	357,6096	-0,791	82,778	0	1010,34	5,7	7,7	7,7	1	1	1	1	1	1	1	1	1	0	1	-0,422833	273,09545	314,962082	0
15.01.2021	04:47:25	0	0	4,06752	2,60025	6,8292	-0,788	82,777	0	1010,38	5,8	7,7	7,8	1	1	1	1	1	1	1	1	1	0	1	-5,496829	273,214794	310,439745	0
15.01.2021	04:47:26	0	0	4,858427	2,763	19,9188	-0,785	82,809	0	1010,2	5,7	8	7,8	1	1	1	1	1	1	1	1	1	0	1	-5,708245	273,089786	309,650504	0
15.01.2021	04:47:27	0	0	3,502587	2,73375	23,9616	-0,785	82,797	0	1010,34	5,8	7,7	7,8	1	1	1	1	1	1	1	1	1	0	1	-3,312192	273,077046	311,987718	0
15.01.2021	04:47:28	0	0	2,598693	2,81625	354,6288	-0,784	82,794	0	1010,38	5,8	8	7,8	1	1	1	1	1	1	1	1	1	0	1	-5,84919	273,186311	309,95566	0
15.01.2021	04:47:29	0	0	3,728582	3,23625	6,4512	-0,786	82,789	0	1010,28	5,8	8	7,7	1	1	1	1	1	1	1	1	1	0	1	-3,523608	273,074217	311,763233	0
15.01.2021	04:47:30	0	0	3,050658	3,43125	8,9964	-0,786	82,803	0	1010,36	5,8	7,7	7,7	1	1	1	1	1	1	1	1	1	0	1	-1,902748	273,17493	313,849477	0
15.01.2021	04:47:31	0	0	2,598709	3,4755	4,464	-0,785	82,806	0	1010,34	5,7	7,7	7,7	1	1	1	1	1	1	1	1	1	0	1	-0	273,108201	315,443823	0
15.01.2021	04:47:32	0	0	3,615595	3,42675	4,0932	-0,784	82,78	0	1010,38	5,8	7,9	7,7	1	1	1	1	1	1	1	1	1	0	1	-6,342495	273,098283	309,055507	0
15.01.2021	04:47:33	0	0	4,971413	3,38025	0,504	-0,786	82,792	0	1010,3	5,7	7,9	7,8	1	1	1	1	1	1	1	1	1	0	1	-3,030303	273,21907	312,92605	0
15.01.2021	04:47:34	0	0	3,276633	3,20175	9,756	-0,784	82,804	0	1010,22	5,7	7,7	7,7	1	1	1	1	1	1	1	1	1	0	1	-2,818887	273,177775	312,946491	0
15.01.2021	04:47:35	0	0	2,598693	2,93775	11,7144	-0,784	82,794	0	1010,34	5,8	8	7,8	1	1	1	1	1	1	1	1	1	0	1	-6,060606	273,071387	309,213168	0
15.01.2021	04:47:36	0	0	4,293493	2,82375	18,8424	-0,783	82,824	0	1010,32	5,8	7,9	7,8	1	1	1	1	1	1	1	1	1	0	1	-2,818887	273,153608	312,834771	0
15.01.2021	04:47:37	0	0	4,632453	2,9265	8,3772	-0,791	82,815	0	1010,22	5,8	7,7	7,8	1	1	1	1	1	1	1	1	1	0	1	-2,255109	273,249029	313,839847	0
15.01.2021	04:47:38	0	0	3,72856	3,41175	5,6808	-0,789	82,805	0	1010,44	5,8	7,7	7,8	1	1	1	1	1	1	1	1	1	0	1	-6,906272	273,196275	308,944654	0
15.01.2021	04:47:39	0	0	3,728582	3,7785	15,4044	-0,79	82,816	0	1010,26	5,7	7,9	7,7	1	1	1	1	1	1	1	1	1	0	1	-7,610994	273,086954	307,734676	0
15.01.2021	04:47:40	0	0	3,05064	3,723	13,1616	-0,79	82,805	0	1010,28	5,8	7,9	7,8	1	1	1	1	1	1	1	1	1	0	1	-0	273,101116	315,411091	0
15.01.2021	04:47:41	0	0	3,276633	3,60375	17,334	-0,782	82,817	0	1010,12	5,8	7,9	7,7	1	1	1	1	1	1	1	1	1	0	1	-6,553911	273,250457	309,547652	0
15.01.2021	04:47:42	0	0	2,824667	3,43275	22,0824	-0,786	82,816	0	1010,34	5,8	7,9	7,8	1	1	1	1	1	1	1	1	1	0	1	-7,470049	273,182042	308,315062	0
15.01.2021	04:47:43	0	0	2,71168	3,15525	13,176	-0,785	82,813	0	1010,24	5,7	7,7	7,8	1	1	1	1	1	1	1	1	1	0	1	-4,933051	273,246173	311,148694	0
15.01.2021	04:47:44	0	0	4,74544	2,9925	18,8388	-0,785	82,805	0	1010,32	5,7	8	7,8	1	1	1	1	1	1	1	1	1	0	1	-5,285412	273,209094	310,624798	0
15.01.2021	04:47:45	0	0	3,615573	2,89125	18,072	-0,78	82,818	0	1010,42	5,7	7,7	7,8	1	1	1	1	1	1	1	1	1	0	1	-3,171247	273,084123	312,161345	0
15.01.2021	04:47:46	0	0	3,05064	2,80275	15,0336	-0,785	82,811	0	1010,48	5,7	7,9	7,8	1	1	1	1	1	1	1	1	1	0	1	-5,567301	273,213369	310,362681	0
15.01.2021	04:47:47	0	0	4,180532	3,0645	13,9248	-0,784	82,811	0	1010,38	5,9	7,7	7,7	1	1	1	1	1	1	1	1	1	0	1	-2,818887	273,125216	312,703554	0
15.01.2021	04:47:48	0	0	4,632453	3,10725	8,6256	-0,785	82,818	0	1010,3	5,8	8	7,8	1	1	1	1	1	1	1	1	1	0	1	-3,946441	273,253312	312,168337	0
15.01.2021	04:47:49	0	0	5,084431	3,26625	4,8384	-0,786	82,807	0	1010,46	5,8	7,9	7,7	1	1	1	1	1	1	1	1	1	0	1	-4,298802	273,183465	311,492888	0
15.01.2021	04:47:50	0	0	3,276613	3,47175	4,0896	-0,786	82,815	0	1010,42	5,8	7,9	7,8	1	1	1	1	1	1	1	1	1	0	1	-2,748414	273,246173	313,333331	0
15.01.2021	04:47:51	0	0	3,502587	3,5955	4,086	-0,789	82,815	0	1010,3	5,7	7,9	7,8	1	1	1	1	1	1	1	1	1	0	1	-9,090909	273,177775	306,674469	0
15.01.2021	04:47:52	0	0	4,180507	3,74175	4,0788	-0,785	82,82	0	1010,18	5,8	7,9	7,8	1	1	1	1	1	1	1	1	1	0	1	-7,117689	273,253312	308,99709	0
15.01.2021	04:47:53	0	0	2,71168	3,63975	17,7084	-0,788	82,814	0	1010,28	5,7	8	7,8	1	1	1	1	1	1	1	1	1	0	1	-1,902748	273,177775	313,862629	0
15.01.2021	04:47:54	0	0	4,06752	3,4245	11,7252	-0,787	82,806	0	1010,24	5,7	8	7,8	1	1	1	1	1	1	1	1	1	0	1	-4,439746	273,062902	310,794842	0
15.01.2021	04:47:55	0	0	4,632453	3,1695	10,8288	-0,784	82,807	0	1010,48	5,7	7,9	7,8	1	1	1	1	1	1	1	1	1	0	1	-3,664553	273,183465	312,127137	0
15.01.2021	04:47:56	0	0	3,728582	3,17325	5,2092	-0,782	82,799	0	1010,1	5,7	7,9	7,7	1	1	1	1	1	1	1	1	1	0	1	-5,637773	273,249029	310,457184	0
15.01.2021	04:47:57	0	0	4,74544	3,32325	359,8236	-0,788	82,808	0	1010,36	5,8	7,9	7,8	1	1	1	1	1	1	1	1	1	0	1	-8,597604	273,182042	307,187507	0
15.01.2021	04:47:58	0	0	3,954557	3,726	12,4776	-0,784	82,805	0	1010,42	5,9	7,9	7,7	1	1	1	1	1	1	1	1	1	0	1	-1,691332	273,082707	313,634723	0
15.01.2021	04:47:59	0	0	3,72856	3,828	9,378	-0,786	82,81	0	1010,42	5,8	7,7	7,8	1	1	1	1	1	1	1	1	1	0	1	-6,412967	273,223347	309,563171	0
15.01.2021	04:48:00	0	0	3,276613	3,69675	10,0584	-0,787	82,794	0	1010,28	5,8	7,9	7,8	1	1	1	1	1	1	1	1	1	0	1	-6,20155	273,130891	309,347115	0
15.01.2021	04:48:01	0	0	3,276613	3,69675	10,0584	-0,787	82,794	0	1010,28	5,8	7,9	7,8	1	1	1	1	1	1	1	1	1	0	1	-6,20155	273,130891	309,347115	0
15.01.2021	04:48:02	0	0	4,858427	3,7395	10,8324	-0,784	82,808	0	1010,42	5,8	7,7	7,8	1	1	1	1	1	1	1	1	1	0	1	-7,681466	273,0997	307,72308	0
15.01.2021	04:48:03	0	0	4,632481	3,81825	13,5504	-0,787	82,803	0	1010,4	5,8	7,9	7,7	1	1	1	1	1	1	1	1	1	0	1	-6,976744	273,247601	309,111606	0
15.01.2021	04:48:04	0	0	3,276613	3,7185	18,4752	-0,786	82,806	0	1010,3	5,8	7,9	7,8	1	1	1	1	1	1	1	1	1	0	1	-5,21494	273,0997	310,189606	0
15.01.2021	04:48:05	0	0	5,649333	3,3555	27,6444	-0,788	82,789	0	1010,16	5,8	7,7	7,8	1	1	1	1	1	1	1	1	1	0	1	-1,973221	273,16782	313,746134	0
15.01.2021	04:48:06	0	0	4,06752	3,255	19,9044	-0,791	82,8	0	1010,32	5,8	7,9	7,8	1	1	1	1	1	1	1	1	1	0	1	-5,990134	273,06573	309,257514	0
15.01.2021	04:48:07	0	0	3,841547	3,20625	13,9356	-0,791	82,788	0	1010,42	5,7	7,7	7,8	1	1	1	1	1	1	1	1	1	0	1	-5,285412	273,179197	310,486543	0
15.01.2021	04:48:08	0	0	2,711696	3,32175	21,0096	-0,786	82,801	0	1010,46	5,8	7,9	7,7	1	1	1	1	1	1	1	1	1	0	1	-4,298802	273,23333	311,72352	0
15.01.2021	04:48:09	0	0	3,954533	3,324	0,8604	-0,786	82,795	0	1010,38	5,8	7,9	7,8	1	1	1	1	1	1	1	1	1	0	1	-2,818887	273,259025	313,32233	0
15.01.2021	04:48:10	0	0	2,598693	3,3105	7,1244	-0,786	82,799	0	1010,34	5,8	7,7	7,8	1	1	1	1	1	1	1	1	1	0	1	-7,610994	273,145086	308,003274	0
15.01.2021	04:48:11	0	0	4,971413	3,459	2,304	-0,782	82,808	0	1010,22	5,7	7,9	7,8	1	1	1	1	1	1	1	1	1	0	1	-2,255109	273,247601	313,833241	0
15.01.2021	04:48:12	0	0	4,06752	3,4305	4,8384	-0,786	82,798	0	1010,28	5,8	7,9	7,8	1	1	1	1	1	1	1	1	1	0	1	-4,862579	273,101116	310,548511	0
15.01.2021	04:48:13	0	0	4,858427	3,423	10,0728	-0,783	82,793	0	1010,44	5,7	7,7	7,8	1	1	1	1	1	1	1	1	1	0	1	-6,20155	273,081292	309,117967	0
15.01.2021	04:48:14	0	0	4,519467	3,29925	12,4596	-0,784	82,774	0	1010,38	5,8	7,9	7,8	1	1	1	1	1	1	1	1	1	0	1	-4,087385	273,246173	311,99436	0
15.01.2021	04:48:15	0	0	2,824667	3,33525	18,4644	-0,787	82,806	0	1010,34	5,7	7,9	7,8	1	1	1	1	1	1	1	1	1	0	1	-2,536998	273,186311	313,267851	0
15.01.2021	04:48:16	0	0	4,519467	3,4035	12,0888	-0,784	82,793	0	1010,36	5,8	7,9	7,8	1	1	1	1	1	1	1	1	1	0	1	-1,127555	273,064316	314,113563	0
15.01.2021	04:48:17	0	0	3,276633	3,62025	9,36	-0,786	82,795	0	1010,36	5,8	7,9	7,7	1	1	1	1	1	1	1	1	1	0	1	-1,409443	273,213369	314,520539	0
15.01.2021	04:48:18	0	0	4,74544	3,5325	357,3288	-0,782	82,791	0	1010,24	5,8	7,9	7,8	1	1	1	1	1	1	1	1	1	0	1	-7,540521	273,259025	308,600695	0
15.01.2021	04:48:19	0	0	2,372734	3,267	353,862	-0,784	82,794	0	1010,34	5,8	7,7	7,7	1	1	1	1	1	1	1	1	1	0	1	-3,100775	273,128054	312,434777	0
15.01.2021	04:48:20	0	0	4,293493	3,03525	0	-0,785	82,795	0	1010,38	5,7	7,9	7,8	1	1	1	1	1	1	1	1	1	0	1	-8,527132	273,05866	306,687871	0
15.01.2021	04:48:21	0	0	3,276613	2,88225	359,082	-0,79	82,794	0	1010,3	5,8	7,7	7,8	1	1	1	1	1	1	1	1	1	0	1	-5,919662	273,111036	309,537258	0
15.01.2021	04:48:22	0	0	4,180507	2,74275	355,3452	-0,788	82,797	0	1010,24	5,7	7,9	7,8	1	1	1	1	1	1	1	1	1	0	1	-6,624383	273,106784	308,812892	0
15.01.2021	04:48:23	0	0	5,0844	2,72775	2,304	-0,787	82,803	0	1010,36	5,8	7,9	7,8	1	1	1	1	1	1	1	1	1	0	1	-2,818887	273,169242	312,907041	0
15.01.2021	04:48:24	0	0	3,276633	2,80425	21,0096	-0,789	82,796	0	1010,26	5,8	7,9	7,7	1	1	1	1	1	1	1	1	1	0	1	-6,412967	273,108201	309,030856	0
15.01.2021	04:48:25	0	0	2,937671	3,08325	10,8216	-0,784	82,785	0	1010,28	5,8	7,9	7,7	1	1	1	1	1	1	1	1	1	0	1	-4,369274	273,078461	310,937171	0
15.01.2021	04:48:26	0	0	3,276613	3,50325	15,4044	-0,788	82,805	0	1010,22	5,8	7,9	7,8	1	1	1	1	1	1	1	1	1	0	1	-5,637773	273,13231	309,91745	0
15.01.2021	04:48:27	0	0	4,519494	3,86775	24,7248	-0,787	82,807	0	1010,34	5,7	7,9	7,7	1	1	1	1	1	1	1	1	1	0	1	-3,382664	273,06573	311,864984	0
15.01.2021	04:48:28	0	0	4,632453	3,8535	19,89	-0,789	82,802	0	1010,34	5,8	7,9	7,8	1	1	1	1	1	1	1	1	1	0	1	-3,382664	273,111036	312,074256	0
15.01.2021	04:48:29	0	0	2,937653	3,5385	0	-0,788	82,8	0	1010,32	5,8	7,9	7,8	1	1	1	1	1	1	1	1	1	0	1	-4,157858	273,236183	311,877665	0
15.01.2021	04:48:30	0	0	3,841547	3,47175	4,086	-0,786	82,808	0	1010,42	5,8	7,9	7,8	1	1	1	1	1	1	1	1	1	0	1	-8,033827	273,209094	307,876383	0
15.01.2021	04:48:31	0	0	3,05064	3,345	6,444	-0,783	82,805	0	1010,26	5,7	7,9	7,8	1	1	1	1	1	1	1	1	1	0	1	-0,845666	273,229051	315,156859	0
15.01.2021	04:48:32	0	0	3,954533	3,213	7,8912	-0,785	82,813	0	1010,32	5,8	7,9	7,8	1	1	1	1	1	1	1	1	1	0	1	-5,003524	273,239037	311,045203	0
15.01.2021	04:48:33	0	0	4,06752	3,21825	14,6484	-0,789	82,798	0	1010,22	5,8	7,9	7,8	1	1	1	1	1	1	1	1	1	0	1	-0,634249	273,157871	315,039111	0
15.01.2021	04:48:34	0	0	2,71168	3,17625	12,0816	-0,783	82,819	0	1010,36	5,8	7,9	7,8	1	1	1	1	1	1	1	1	1	0	1	-3,171247	273,067144	312,082931	0
15.01.2021	04:48:35	0	0	2,71168	3,29925	1,9368	-0,789	82,816	0	1010,38	5,7	7,7	7,8	1	1	1	1	1	1	1	1	1	0	1	-7,047216	273,211944	308,876174	0
15.01.2021	04:48:36	0	0	4,74544	3,20025	17,6976	-0,783	82,812	0	1010,36	5,7	7,9	7,8	1	1	1	1	1	1	1	1	1	0	1	-7,751938	273,244746	308,323202	0
15.01.2021	04:48:37	0	0	3,276613	3,09975	8,2656	-0,788	82,822	0	1010,28	5,8	7,7	7,8	1	1	1	1	1	1	1	1	1	0	1	-4,22833	273,13373	311,333451	0
15.01.2021	04:48:38	0	0	3,72856	3,027	11,2068	-0,789	82,816	0	1010,38	5,8	7,7	7,8	1	1	1	1	1	1	1	1	1	0	1	-4,298802	273,071387	310,974972	0
15.01.2021	04:48:39	0	0	3,163627	2,93175	6,0696	-0,789	82,82	0	1010,36	5,8	7,7	7,8	1	1	1	1	1	1	1	1	1	0	1	-4,862579	273,142247	310,738564	0
15.01.2021	04:48:40	0	0	2,598693	2,73	360	-0,781	82,821	0	1010,46	5,8	7,9	7,8	1	1	1	1	1	1	1	1	1	0	1	-6,624383	273,375082	310,054253	0
15.01.2021	04:48:41	0	0	4,74544	2,51175	9,3672	-0,787	82,824	0	1010,36	5,8	7,9	7,8	1	1	1	1	1	1	1	1	1	0	1	-7,188161	273,162134	308,504908	0
15.01.2021	04:48:42	0	0	4,632453	2,48025	9,7488	-0,785	82,827	0	1010,4	5,8	7,9	7,8	1	1	1	1	1	1	1	1	1	0	1	-5,778717	273,243319	310,289818	0
15.01.2021	04:48:43	0	0	2,71168	2,379	8,262	-0,783	82,823	0	1010,32	5,8	7,9	7,8	1	1	1	1	1	1	1	1	1	0	1	-3,523608	273,069973	311,743633	0
15.01.2021	04:48:44	0	0	3,728582	2,3145	1,1772	-0,788	82,815	0	1010,38	5,8	7,7	7,7	1	1	1	1	1	1	1	1	1	0	1	-4,651163	273,17493	311,101063	0
15.01.2021	04:48:45	0	0	2,937671	2,39325	2,7432	-0,791	82,829	0	1010,36	5,8	7,9	7,7	1	1	1	1	1	1	1	1	1	0	1	-5,426357	273,244746	310,648784	0
15.01.2021	04:48:46	0	0	3,615573	2,367	0,8676	-0,783	82,82	0	1010,36	5,7	7,9	7,8	1	1	1	1	1	1	1	1	1	0	1	-3,875969	273,135149	311,692371	0
15.01.2021	04:48:47	0	0	2,71168	2,4825	1,9296	-0,781	82,823	0	1010,2	5,8	7,9	7,8	1	1	1	1	1	1	1	1	1	0	1	-1,691332	273,06573	313,556316	0
15.01.2021	04:48:48	0	0	3,954557	2,7525	9,36	-0,787	82,824	0	1010,4	5,8	7,9	7,7	1	1	1	1	1	1	1	1	1	0	1	-5,21494	273,217644	310,734819	0
15.01.2021	04:48:49	0	0	4,519467	2,742	15,7896	-0,785	82,831	0	1010,24	5,8	7,9	7,8	1	1	1	1	1	1	1	1	1	0	1	-5,567301	273,128054	309,968251	0
15.01.2021	04:48:50	0	0	4,180507	2,48475	18,0792	-0,786	82,83	0	1010,48	5,8	7,9	7,8	1	1	1	1	1	1	1	1	1	0	1	-3,875969	273,071387	311,397805	0
15.01.2021	04:48:51	0	0	2,71168	2,6505	8,6112	-0,786	82,83	0	1010,34	5,8	7,9	7,8	1	1	1	1	1	1	1	1	1	0	1	-2,536998	273,129473	313,00511	0
15.01.2021	04:48:52	0	0	2,71168	3,03375	3,3984	-0,786	82,822	0	1010,38	5,8	7,9	7,8	1	1	1	1	1	1	1	1	1	0	1	-4,298802	273,069973	310,96844	0
15.01.2021	04:48:53	0	0	3,163627	3,2475	9,3744	-0,788	82,838	0	1010,32	5,8	7,9	7,8	1	1	1	1	1	1	1	1	1	0	1	-1,338971	273,102533	314,078665	0
15.01.2021	04:48:54	0	0	4,293519	3,26775	8,6184	-0,782	82,831	0	1010,4	5,8	7,9	7,7	1	1	1	1	1	1	1	1	1	0	1	-2,959831	273,118125	312,529842	0
15.01.2021	04:48:55	0	0	3,72856	3,153	359,766	-0,783	82,825	0	1010,24	5,8	7,9	7,8	1	1	1	1	1	1	1	1	1	0	1	-0,98661	273,179197	314,785345	0
15.01.2021	04:48:56	0	0	2,598693	3,042	12,8376	-0,784	82,828	0	1010,24	5,8	7,9	7,8	1	1	1	1	1	1	1	1	1	0	1	-3,946441	273,155029	311,713784	0
15.01.2021	04:48:57	0	0	5,197387	3,06075	13,1868	-0,779	82,845	0	1010,34	5,8	7,9	7,8	1	1	1	1	1	1	1	1	1	0	1	-7,82241	273,240464	308,232919	0
15.01.2021	04:48:58	0	0	4,180507	2,90475	347,1732	-0,782	82,841	0	1010,26	5,8	7,9	7,8	1	1	1	1	1	1	1	1	1	0	1	-1,268499	273,140827	314,326082	0
15.01.2021	04:48:59	0	0	4,632453	2,7105	360	-0,782	82,838	0	1010,26	5,8	7,7	7,8	1	1	1	1	1	1	1	1	1	0	1	-3,664553	273,253312	312,450226	0
15.01.2021	04:49:00	0	0	4,632453	2,433	358,7508	-0,788	82,825	0	1010,24	5,8	7,7	7,8	1	1	1	1	1	1	1	1	1	0	1	-7,751938	273,130891	307,796727	0
15.01.2021	04:49:01	0	0	4,632453	2,433	358,7508	-0,788	82,825	0	1010,24	5,8	7,7	7,8	1	1	1	1	1	1	1	1	1	0	1	-7,751938	273,130891	307,796727	0
15.01.2021	04:49:02	0	0	3,954557	2,391	0,126	-0,786	82,848	0	1010,28	5,8	7,9	7,7	1	1	1	1	1	1	1	1	1	0	1	-7,470049	273,240464	308,58528	0
15.01.2021	04:49:03	0	0	4,745468	2,364	359,8884	-0,785	82,848	0	1010,28	5,8	7,9	7,7	1	1	1	1	1	1	1	1	1	0	1	-5,426357	273,249029	310,6686	0
15.01.2021	04:49:04	0	0	3,05064	2,4675	352,782	-0,787	82,829	0	1010,2	5,8	7,9	7,8	1	1	1	1	1	1	1	1	1	0	1	-4,087385	273,21907	311,868968	0
15.01.2021	04:49:05	0	0	3,615573	2,56725	9,3924	-0,783	82,851	0	1010,38	5,8	7,9	7,8	1	1	1	1	1	1	1	1	1	0	1	-4,439746	273,119543	311,056479	0
15.01.2021	04:49:06	0	0	4,519467	2,6895	12,8592	-0,786	82,845	0	1010,38	5,8	7,9	7,8	1	1	1	1	1	1	1	1	1	0	1	-7,188161	273,247601	308,90019	0
15.01.2021	04:49:07	0	0	4,180507	2,6985	20,2824	-0,784	82,834	0	1010,2	5,8	7,9	7,8	1	1	1	1	1	1	1	1	1	0	1	-4,016913	273,187734	311,794516	0
15.01.2021	04:49:08	0	0	3,954557	2,69175	4,104	-0,788	82,839	0	1010,28	5,7	7,7	7,7	1	1	1	1	1	1	1	1	1	0	1	-1,550388	273,250457	314,551176	0
15.01.2021	04:49:09	0	0	3,163627	2,619	29,1132	-0,791	82,829	0	1010,26	5,8	7,9	7,8	1	1	1	1	1	1	1	1	1	0	1	-7,751938	273,136568	307,822961	0
15.01.2021	04:49:10	0	0	3,841547	2,517	16,8624	-0,786	82,837	0	1010,14	5,8	7,7	7,8	1	1	1	1	1	1	1	1	1	0	1	-3,030303	273,254741	313,091084	0
15.01.2021	04:49:11	0	0	3,163627	2,72175	1,9944	-0,783	82,83	0	1010,38	5,7	7,9	7,8	1	1	1	1	1	1	1	1	1	0	1	-4,792107	273,137988	310,789352	0
15.01.2021	04:49:12	0	0	4,519467	2,922	359,4852	-0,781	82,852	0	1010,32	5,8	7,7	7,8	1	1	1	1	1	1	1	1	1	0	1	-6,624383	273,276175	309,596203	0
15.01.2021	04:49:13	0	0	4,519494	3,042	3,798	-0,787	82,855	0	1010,34	5,8	7,9	7,7	1	1	1	1	1	1	1	1	1	0	1	-5,84919	273,162134	309,843879	0
15.01.2021	04:49:14	0	0	3,615573	3,03675	6,4332	-0,785	82,826	0	1010,28	5,8	7,9	7,8	1	1	1	1	1	1	1	1	1	0	1	-4,933051	273,249029	311,161905	0
15.01.2021	04:49:15	0	0	4,632453	3,06675	10,8036	-0,789	82,844	0	1010,3	5,8	7,9	7,8	1	1	1	1	1	1	1	1	1	0	1	-7,188161	273,20482	308,702283	0
15.01.2021	04:49:16	0	0	4,293519	2,97375	13,5648	-0,786	82,836	0	1010,42	5,8	7,9	7,7	1	1	1	1	1	1	1	1	1	0	1	-2,818887	273,115289	312,657684	0
15.01.2021	04:49:17	0	0	3,954557	2,70225	16,8624	-0,785	82,842	0	1010,28	5,8	7,9	7,7	1	1	1	1	1	1	1	1	1	0	1	-4,22833	273,243319	311,840206	0
15.01.2021	04:49:18	0	0	4,971443	2,745	14,418	-0,779	82,85	0	1010,44	5,8	7,9	7,7	1	1	1	1	1	1	1	1	1	0	1	-3,100775	273,170664	312,631726	0
15.01.2021	04:49:19	0	0	2,71168	2,832	4,0824	-0,779	82,84	0	1010,38	5,8	7,9	7,8	1	1	1	1	1	1	1	1	1	0	1	-6,342495	273,084123	308,990098	0
15.01.2021	04:49:20	0	0	3,502608	2,829	10,0692	-0,779	82,857	0	1010,48	5,8	7,9	7,7	1	1	1	1	1	1	1	1	1	0	1	-5,567301	273,241891	310,494631	0
15.01.2021	04:49:21	0	0	3,84157	3,08175	12,1032	-0,785	82,844	0	1010,42	5,7	7,9	7,7	1	1	1	1	1	1	1	1	1	0	1	-7,681466	273,220495	308,281481	0
15.01.2021	04:49:22	0	0	2,598693	3,13425	8,2764	-0,782	82,845	0	1010,38	5,8	7,9	7,8	1	1	1	1	1	1	1	1	1	0	1	-5,355884	273,177775	310,409493	0
15.01.2021	04:49:23	0	0	2,937653	3,0165	19,5372	-0,784	82,839	0	1010,34	5,8	7,9	7,8	1	1	1	1	1	1	1	1	1	0	1	-10,500352	273,23333	305,52197	0
15.01.2021	04:49:24	0	0	4,632453	2,937	17,7084	-0,783	82,839	0	1010,14	5,8	7,9	7,8	1	1	1	1	1	1	1	1	1	0	1	-3,312192	273,182042	312,472919	0
15.01.2021	04:49:25	0	0	4,858427	2,8635	12,1104	-0,779	82,832	0	1010,3	5,8	7,9	7,8	1	1	1	1	1	1	1	1	1	0	1	-5,073996	273,243319	310,99454	0
15.01.2021	04:49:26	0	0	3,05064	3,13275	7,1388	-0,781	82,83	0	1010,24	5,8	7,9	7,8	1	1	1	1	1	1	1	1	1	0	1	-3,312192	273,17493	312,440034	0
15.01.2021	04:49:27	0	0	3,276633	3,054	6,0732	-0,785	82,835	0	1010,26	5,8	7,9	7,7	1	1	1	1	1	1	1	1	1	0	1	-5,919662	273,06573	309,327986	0
15.01.2021	04:49:28	0	0	4,519494	3,10875	13,1688	-0,791	82,838	0	1010,34	5,8	7,9	7,7	1	1	1	1	1	1	1	1	1	0	1	-3,805497	273,176352	311,953305	0
15.01.2021	04:49:29	0	0	3,502587	3,0495	12,8628	-0,786	82,836	0	1010,44	5,8	7,9	7,8	1	1	1	1	1	1	1	1	1	0	1	-5,990134	273,069973	309,277108	0
15.01.2021	04:49:30	0	0	4,180532	2,87925	20,6424	-0,782	82,84	0	1010,48	5,8	7,9	7,7	1	1	1	1	1	1	1	1	1	0	1	-3,24172	273,140827	312,352862	0
15.01.2021	04:49:31	0	0	3,276613	2,66925	7,5276	-0,789	82,83	0	1010,4	5,8	7,9	7,8	1	1	1	1	1	1	1	1	1	0	1	-2,325581	273,234757	313,703341	0
15.01.2021	04:49:32	0	0	4,632481	2,78475	25,7904	-0,786	82,833	0	1010,26	5,8	7,9	7,7	1	1	1	1	1	1	1	1	1	0	1	-4,862579	273,200547	311,008103	0
15.01.2021	04:49:33	0	0	4,971443	3,01875	22,4748	-0,781	82,844	0	1010,34	5,8	7,9	7,7	1	1	1	1	1	1	1	1	1	0	1	-4,721635	273,217644	311,228124	0
15.01.2021	04:49:34	0	0	3,841547	3,546	10,4328	-0,783	82,824	0	1010,32	5,8	7,9	7,8	1	1	1	1	1	1	1	1	1	0	1	-5,708245	273,074217	309,578596	0
15.01.2021	04:49:35	0	0	4,519494	4,02975	1,9404	-0,784	82,847	0	1010,28	5,8	7,9	7,7	1	1	1	1	1	1	1	1	1	0	1	-4,862579	273,0997	310,541967	0
15.01.2021	04:49:36	0	0	5,084431	3,9255	356,1624	-0,789	82,827	0	1010,36	5,8	7,9	7,7	1	1	1	1	1	1	1	1	1	0	1	-4,22833	273,077046	311,07158	0
15.01.2021	04:49:37	0	0	3,728582	3,63375	355,176	-0,778	82,845	0	1010,3	5,8	7,9	7,7	1	1	1	1	1	1	1	1	1	0	1	-1,761804	273,112454	313,701665	0
15.01.2021	04:49:38	0	0	4,067544	3,5115	354,6936	-0,785	82,841	0	1010,36	5,8	7,9	7,7	1	1	1	1	1	1	1	1	1	0	1	-7,82241	273,256169	308,305586	0
15.01.2021	04:49:39	0	0	2,71168	3,47175	347,8644	-0,787	82,838	0	1010,34	5,8	7,9	7,8	1	1	1	1	1	1	1	1	1	0	1	-5,708245	273,113871	309,761774	0
15.01.2021	04:49:40	0	0	3,954557	3,33525	6,804	-0,786	82,817	0	1010,12	5,8	7,9	7,7	1	1	1	1	1	1	1	1	1	0	1	-2,396054	273,183465	313,395636	0
15.01.2021	04:49:41	0	0	4,519494	3,1965	14,2812	-0,789	82,838	0	1010,22	5,8	7,9	7,7	1	1	1	1	1	1	1	1	1	0	1	-6,412967	273,247601	309,675384	0
15.01.2021	04:49:42	0	0	2,937671	3,17475	16,4916	-0,785	82,849	0	1010,44	5,8	7,9	7,7	1	1	1	1	1	1	1	1	1	0	1	-4,298802	273,196275	311,552124	0
15.01.2021	04:49:43	0	0	3,050658	3,44175	11,7252	-0,785	82,844	0	1010,4	5,8	7,9	7,7	1	1	1	1	1	1	1	1	1	0	1	-1,761804	273,092618	313,610027	0
15.01.2021	04:49:44	0	0	3,84157	3,43875	360	-0,784	82,838	0	1010,36	5,8	7,9	7,7	1	1	1	1	1	1	1	1	1	0	1	-2,677942	273,186311	313,126907	0
15.01.2021	04:49:45	0	0	4,632481	3,42375	4,086	-0,783	82,825	0	1010,32	5,8	7,9	7,7	1	1	1	1	1	1	1	1	1	0	1	-3,875969	273,244746	312,199171	0
15.01.2021	04:49:46	0	0	3,72856	3,56175	13,1652	-0,784	82,84	0	1010,3	5,8	7,9	7,8	1	1	1	1	1	1	1	1	1	0	1	-3,523608	273,13373	312,038173	0
15.01.2021	04:49:47	0	0	3,954557	3,46275	12,4632	-0,779	82,847	0	1010,34	5,8	7,9	7,7	1	1	1	1	1	1	1	1	1	0	1	-5,778717	273,246173	310,303028	0
15.01.2021	04:49:48	0	0	4,971413	3,1185	10,8108	-0,78	82,833	0	1010,2	5,8	7,9	7,8	1	1	1	1	1	1	1	1	1	0	1	-7,751938	273,166398	307,960845	0
15.01.2021	04:49:49	0	0	4,858456	2,91	15,7896	-0,775	82,85	0	1010,4	5,8	7,9	7,7	1	1	1	1	1	1	1	1	1	0	1	-5,496829	273,234757	310,532094	0
15.01.2021	04:49:50	0	0	4,971443	2,874	1,5624	-0,783	82,826	0	1010,3	5,8	7,9	7,7	1	1	1	1	1	1	1	1	1	0	1	-9,161381	273,184888	306,636888	0
15.01.2021	04:49:51	0	0	2,937671	2,88525	0,1404	-0,784	82,847	0	1010,44	5,8	7,9	7,7	1	1	1	1	1	1	1	1	1	0	1	-6,976744	273,057247	308,231732	0
15.01.2021	04:49:52	0	0	4,293519	3,00825	0,1296	-0,782	82,843	0	1010,54	5,8	7,9	7,7	1	1	1	1	1	1	1	1	1	0	1	-7,470049	273,136568	308,10485	0
15.01.2021	04:49:53	0	0	3,615595	3,1395	3,3768	-0,787	82,852	0	1010,44	5,8	7,9	7,7	1	1	1	1	1	1	1	1	1	0	1	-0,98661	273,243319	315,081925	0
15.01.2021	04:49:54	0	0	3,38962	3,066	7,5132	-0,786	82,831	0	1010,12	5,8	7,9	7,7	1	1	1	1	1	1	1	1	1	0	1	-4,298802	273,145086	311,315466	0
15.01.2021	04:49:55	0	0	4,40648	2,979	1,5408	-0,786	82,831	0	1010,32	5,8	7,9	7,8	1	1	1	1	1	1	1	1	1	0	1	-3,59408	273,217644	312,355679	0
15.01.2021	04:49:56	0	0	4,632481	3,10875	0,8676	-0,784	82,839	0	1010,1	5,8	7,9	7,7	1	1	1	1	1	1	1	1	1	0	1	-5,567301	273,130891	309,981364	0
15.01.2021	04:49:57	0	0	2,485722	3,5655	13,554	-0,782	82,843	0	1010,28	5,8	7,9	7,7	1	1	1	1	1	1	1	1	1	0	1	-5,003524	273,246173	311,078221	0
15.01.2021	04:49:58	0	0	3,502608	3,669	14,2956	-0,781	82,846	0	1010,38	5,8	7,9	7,7	1	1	1	1	1	1	1	1	1	0	1	-2,466526	273,18062	313,312007	0
15.01.2021	04:49:59	0	0	4,406506	3,612	2,3076	-0,777	82,847	0	1010,38	5,8	7,9	7,7	1	1	1	1	1	1	1	1	1	0	1	-3,100775	273,236183	312,934748	0
15.01.2021	04:50:00	0	0	4,632481	3,738	6,4476	-0,782	82,848	0	1010,36	5,8	7,9	7,7	1	1	1	1	1	1	1	1	1	0	1	-2,043693	273,064316	313,197425	0
15.01.2021	04:50:01	0	0	4,632481	3,738	6,4476	-0,782	82,848	0	1010,36	5,8	7,9	7,7	1	1	1	1	1	1	1	1	1	0	1	-2,043693	273,064316	313,197425	0
15.01.2021	04:50:02	0	0	4,858456	3,60975	11,7216	-0,783	82,835	0	1010,32	5,8	7,9	7,7	1	1	1	1	1	1	1	1	1	0	1	-7,751938	273,221921	308,217604	0
15.01.2021	04:50:03	0	0	2,937653	3,37425	9,7452	-0,782	82,837	0	1010,36	5,7	7,9	7,8	1	1	1	1	1	1	1	1	1	0	1	-2,889359	273,241891	313,172573	0
15.01.2021	04:50:04	0	0	5,649367	3,17925	16,4844	-0,785	82,836	0	1010,32	5,8	7,9	7,7	1	1	1	1	1	1	1	1	1	0	1	-2,255109	273,250457	313,846454	0
15.01.2021	04:50:05	0	0	3,276633	3,411	8,9964	-0,775	82,845	0	1010,4	5,8	7,9	7,7	1	1	1	1	1	1	1	1	1	0	1	-4,510218	273,105367	310,92051	0
15.01.2021	04:50:06	0	0	3,05064	3,86475	9,4572	-0,778	82,842	0	1010,38	5,8	7,9	7,8	1	1	1	1	1	1	1	1	1	0	1	-7,399577	273,251884	308,708594	0
15.01.2021	04:50:07	0	0	4,74544	3,975	10,818	-0,779	82,836	0	1010,28	5,8	7,9	7,8	1	1	1	1	1	1	1	1	1	0	1	-3,664553	273,170664	312,067949	0
15.01.2021	04:50:08	0	0	3,615595	3,795	9,7524	-0,784	82,845	0	1010,34	5,8	7,9	7,7	1	1	1	1	1	1	1	1	1	0	1	-7,681466	273,05866	307,533537	0
15.01.2021	04:50:09	0	0	2,824667	3,2385	16,4736	-0,783	82,832	0	1010,4	5,8	7,9	7,8	1	1	1	1	1	1	1	1	1	0	1	-10,147992	273,17493	305,604234	0
15.01.2021	04:50:10	0	0	2,259747	2,985	16,9596	-0,779	82,838	0	1010,22	5,8	7,9	7,7	1	1	1	1	1	1	1	1	1	0	1	-3,875969	273,074217	311,410872	0
15.01.2021	04:50:11	0	0	2,824684	3,0675	7,506	-0,785	82,841	0	1010,4	5,8	7,9	7,7	1	1	1	1	1	1	1	1	1	0	1	-6,412967	273,13373	309,148814	0
15.01.2021	04:50:12	0	0	2,259747	3,333	10,8144	-0,762	82,842	0	1010,54	5,8	7,9	7,7	1	1	1	1	1	1	1	1	1	0	1	-5,003524	273,244746	311,071616	0
15.01.2021	04:50:13	0	0	4,180532	3,4485	360	-0,785	82,841	0	1010,28	5,8	7,9	7,7	1	1	1	1	1	1	1	1	1	0	1	-3,523608	273,111036	311,933312	0
15.01.2021	04:50:14	0	0	5,197418	3,4515	25,4304	-0,78	82,839	0	1010,34	5,8	7,9	7,7	1	1	1	1	1	1	1	1	1	0	1	-8,45666	273,071387	306,817114	0
15.01.2021	04:50:15	0	0	3,502608	3,1875	15,4044	-0,782	82,834	0	1010,32	5,8	7,9	7,7	1	1	1	1	1	1	1	1	1	0	1	-5,708245	273,092618	309,663586	0
15.01.2021	04:50:16	0	0	3,502608	2,9895	18,45	-0,78	82,839	0	1010,32	5,8	7,9	7,7	1	1	1	1	1	1	1	1	1	0	1	-8,033827	273,096866	307,357632	0
15.01.2021	04:50:17	0	0	2,937671	2,9115	13,5504	-0,784	82,846	0	1010,42	5,8	7,9	7,7	1	1	1	1	1	1	1	1	1	0	1	-4,298802	273,254741	311,822585	0
15.01.2021	04:50:18	0	0	3,841547	2,77725	359,0604	-0,79	82,821	0	1010,34	5,8	7,9	7,8	1	1	1	1	1	1	1	1	1	0	1	-1,550388	273,139407	314,037632	0
15.01.2021	04:50:19	0	0	4,180532	2,811	9,7452	-0,78	82,813	0	1010,26	5,8	7,9	7,7	1	1	1	1	1	1	1	1	1	0	1	-9,302326	273,243319	306,76621	0
15.01.2021	04:50:20	0	0	5,084431	2,9325	1,1808	-0,781	82,81	0	1010,24	5,8	7,9	7,7	1	1	1	1	1	1	1	1	1	0	1	-3,523608	273,206245	312,373423	0
15.01.2021	04:50:21	0	0	2,824684	2,88525	355,8672	-0,787	82,819	0	1010,3	5,8	7,9	7,7	1	1	1	1	1	1	1	1	1	0	1	-5,778717	273,108201	309,665106	0
15.01.2021	04:50:22	0	0	2,937671	2,87025	2,3148	-0,78	82,815	0	1010,36	5,8	7,9	7,7	1	1	1	1	1	1	1	1	1	0	1	-0	273,064316	315,241118	0
15.01.2021	04:50:23	0	0	2,937671	2,76225	7,1532	-0,782	82,82	0	1010,38	5,8	7,9	7,7	1	1	1	1	1	1	1	1	1	0	1	-2,677942	273,074217	312,608899	0
15.01.2021	04:50:24	0	0	4,406506	2,6775	7,5852	-0,784	82,828	0	1010,28	5,8	7,9	7,7	1	1	1	1	1	1	1	1	1	0	1	-5,355884	273,216219	310,587282	0
15.01.2021	04:50:25	0	0	4,406506	2,82975	19,5228	-0,784	82,822	0	1010,2	5,8	7,9	7,7	1	1	1	1	1	1	1	1	1	0	1	-2,466526	273,176352	313,292276	0
15.01.2021	04:50:26	0	0	3,276633	2,952	23,9832	-0,785	82,825	0	1010,38	5,8	7,9	7,7	1	1	1	1	1	1	1	1	1	0	1	-2,325581	273,234757	313,703341	0
15.01.2021	04:50:27	0	0	4,293519	3,0855	360	-0,785	82,793	0	1010,18	5,8	7,9	7,7	1	1	1	1	1	1	1	1	1	0	1	-2,043693	273,273316	314,163659	0
15.01.2021	04:50:28	0	0	3,615573	3,28725	6,7032	-0,78	82,817	0	1010,12	5,8	7,9	7,8	1	1	1	1	1	1	1	1	1	0	1	-1,62086	273,074217	313,665981	0
15.01.2021	04:50:29	0	0	3,050658	3,35025	351,6984	-0,779	82,798	0	1010,36	5,8	7,9	7,7	1	1	1	1	1	1	1	1	1	0	1	-4,580691	273,143666	311,027015	0
15.01.2021	04:50:30	0	0	3,728582	3,35175	351,036	-0,782	82,805	0	1010,34	5,8	7,9	7,7	1	1	1	1	1	1	1	1	1	0	1	-0,140944	273,067144	315,113234	0
15.01.2021	04:50:31	0	0	2,937671	3,339	3,402	-0,776	82,805	0	1010,46	5,8	7,9	7,7	1	1	1	1	1	1	1	1	1	0	1	-1,761804	273,184888	314,036465	0
15.01.2021	04:50:32	0	0	2,598709	3,05175	346,8096	-0,778	82,8	0	1010,26	5,8	7,9	7,7	1	1	1	1	1	1	1	1	1	0	1	-6,765328	273,061488	308,462731	0
15.01.2021	04:50:33	0	0	3,954557	2,8095	356,9004	-0,785	82,796	0	1010,38	5,8	7,9	7,7	1	1	1	1	1	1	1	1	1	0	1	-2,396054	273,251884	313,712117	0
15.01.2021	04:50:34	0	0	3,050658	2,841	6,0732	-0,78	82,814	0	1010,32	5,8	7,9	7,7	1	1	1	1	1	1	1	1	1	0	1	-3,523608	273,209094	312,386602	0
15.01.2021	04:50:35	0	0	3,615595	2,9415	8,5932	-0,784	82,808	0	1010,44	5,8	7,9	7,7	1	1	1	1	1	1	1	1	1	0	1	-1,409443	273,060074	313,812088	0
15.01.2021	04:50:36	0	0	2,937671	2,889	6,0588	-0,789	82,802	0	1010,28	5,8	7,9	7,7	1	1	1	1	1	1	1	1	1	0	1	-2,184637	273,153608	313,469021	0
15.01.2021	04:50:37	0	0	4,406506	2,69775	354,9888	-0,779	82,813	0	1010,42	5,8	7,9	7,7	1	1	1	1	1	1	1	1	1	0	1	-2,677942	273,244746	313,397198	0
15.01.2021	04:50:38	0	0	4,745468	2,76	6,4296	-0,781	82,808	0	1010,28	5,8	7,9	7,7	1	1	1	1	1	1	1	1	1	0	1	-8,738548	273,118125	306,751125	0
15.01.2021	04:50:39	0	0	4,971443	2,8815	33,6384	-0,783	82,805	0	1010,34	5,8	7,9	7,7	1	1	1	1	1	1	1	1	1	0	1	-5,21494	273,069973	310,052302	0
15.01.2021	04:50:40	0	0	4,632481	2,9175	3,0276	-0,787	82,79	0	1010,34	5,8	7,8	7,7	1	1	1	1	1	1	1	1	1	0	1	-5,637773	273,163555	310,061867	0
15.01.2021	04:50:41	0	0	4,180532	2,89725	12,1104	-0,779	82,788	0	1010,2	5,8	7,9	7,7	1	1	1	1	1	1	1	1	1	0	1	-2,818887	273,072802	312,461421	0
15.01.2021	04:50:42	0	0	4,067544	2,6865	1,5552	-0,778	82,803	0	1010,18	5,8	7,8	7,7	1	1	1	1	1	1	1	1	1	0	1	-2,959831	273,21907	312,996522	0
15.01.2021	04:50:43	0	0	2,824684	2,40975	17,7156	-0,782	82,799	0	1010,46	5,8	7,9	7,7	1	1	1	1	1	1	1	1	1	0	1	-3,875969	273,250457	312,225594	0
15.01.2021	04:50:44	0	0	5,084431	2,21625	360	-0,778	82,802	0	1010,06	5,8	7,9	7,7	1	1	1	1	1	1	1	1	1	0	1	-6,060606	273,256169	310,06739	0
15.01.2021	04:50:45	0	0	3,38962	2,12925	10,4472	-0,786	82,802	0	1010,44	5,8	7,9	7,7	1	1	1	1	1	1	1	1	1	0	1	-1,198027	273,078461	314,108418	0
15.01.2021	04:50:46	0	0	2,824684	2,10675	9,3636	-0,78	82,799	0	1010,34	5,8	7,9	7,7	1	1	1	1	1	1	1	1	1	0	1	-4,369274	273,169242	311,356654	0
15.01.2021	04:50:47	0	0	2,485722	2,049	352,494	-0,781	82,791	0	1010,22	5,8	7,9	7,7	1	1	1	1	1	1	1	1	1	0	1	-5,003524	273,250457	311,09804	0
15.01.2021	04:50:48	0	0	3,954557	2,214	3,0276	-0,786	82,806	0	1010,34	5,8	7,9	7,7	1	1	1	1	1	1	1	1	1	0	1	-4,157858	273,227625	311,83807	0
15.01.2021	04:50:49	0	0	4,519494	2,30775	352,8648	-0,782	82,799	0	1010,46	5,8	7,9	7,7	1	1	1	1	1	1	1	1	1	0	1	-3,523608	273,089786	311,835141	0
15.01.2021	04:50:50	0	0	5,197418	2,5305	2,6532	-0,782	82,798	0	1010,3	5,8	7,9	7,7	1	1	1	1	1	1	1	1	1	0	1	-6,412967	273,234757	309,615955	0
15.01.2021	04:50:51	0	0	3,38962	2,69625	359,4384	-0,782	82,798	0	1010,36	5,8	7,9	7,7	1	1	1	1	1	1	1	1	1	0	1	-4,580691	273,20482	311,309753	0
15.01.2021	04:50:52	0	0	4,971443	2,76075	0,8532	-0,785	82,791	0	1010,3	5,8	7,9	7,7	1	1	1	1	1	1	1	1	1	0	1	-3,030303	273,120961	312,472475	0
15.01.2021	04:50:53	0	0	4,858456	2,58075	5,3388	-0,787	82,787	0	1010,28	5,8	7,9	7,7	1	1	1	1	1	1	1	1	1	0	1	-4,721635	273,077046	310,578275	0
15.01.2021	04:50:54	0	0	3,84157	2,4585	360	-0,781	82,793	0	1010,32	5,8	7,9	7,7	1	1	1	1	1	1	1	1	1	0	1	-3,664553	273,10395	311,759629	0
15.01.2021	04:50:55	0	0	4,406506	2,598	13,1652	-0,775	82,79	0	1010,36	5,8	7,9	7,7	1	1	1	1	1	1	1	1	1	0	1	-5,778717	273,13373	309,783064	0
15.01.2021	04:50:56	0	0	2,824684	2,69775	12,8592	-0,788	82,802	0	1010,38	5,8	7,9	7,7	1	1	1	1	1	1	1	1	1	0	1	-1,902748	273,075631	313,390627	0
15.01.2021	04:50:57	0	0	2,824684	2,59275	7,5168	-0,787	82,78	0	1010,3	5,8	7,9	7,7	1	1	1	1	1	1	1	1	1	0	1	-4,298802	273,160713	311,387697	0
15.01.2021	04:50:58	0	0	2,824684	2,38875	1,6488	-0,781	82,777	0	1010,4	5,8	7,9	7,7	1	1	1	1	1	1	1	1	1	0	1	-4,369274	273,072802	310,911033	0
15.01.2021	04:50:59	0	0	3,954557	2,1645	356,9724	-0,781	82,785	0	1010,24	5,8	7,8	7,7	1	1	1	1	1	1	1	1	1	0	1	-4,087385	273,230477	311,921738	0
15.01.2021	04:51:00	0	0	3,163646	2,238	4,8456	-0,782	82,8	0	1010,42	5,8	7,9	7,7	1	1	1	1	1	1	1	1	1	0	1	-3,875969	273,243319	312,192567	0
15.01.2021	04:51:01	0	0	3,163646	2,238	4,8456	-0,782	82,8	0	1010,42	5,8	7,9	7,7	1	1	1	1	1	1	1	1	1	0	1	-3,875969	273,243319	312,192567	0
15.01.2021	04:51:02	0	0	3,163646	2,08275	6,4188	-0,788	82,784	0	1010,38	5,8	7,9	7,7	1	1	1	1	1	1	1	1	1	0	1	-9,725159	273,20482	306,165285	0
15.01.2021	04:51:03	0	0	3,050658	2,02125	358,3224	-0,79	82,786	0	1010,32	5,8	7,9	7,7	1	1	1	1	1	1	1	1	1	0	1	-1,902748	273,074217	313,384092	0
15.01.2021	04:51:04	0	0	5,084431	2,01375	12,0996	-0,776	82,796	0	1010,34	5,8	7,9	7,7	1	1	1	1	1	1	1	1	1	0	1	-5,84919	273,187734	309,96224	0
15.01.2021	04:51:05	0	0	3,84157	2,079	6,7968	-0,782	82,775	0	1010,28	5,8	7,8	7,7	1	1	1	1	1	1	1	1	1	0	1	-3,453136	273,082707	311,872919	0
15.01.2021	04:51:06	0	0	3,84157	2,14875	13,158	-0,782	82,791	0	1010,4	5,8	7,9	7,7	1	1	1	1	1	1	1	1	1	0	1	-4,721635	273,091201	310,643655	0
15.01.2021	04:51:07	0	0	2,598709	2,1165	13,554	-0,782	82,801	0	1010,3	5,8	7,9	7,7	1	1	1	1	1	1	1	1	1	0	1	-0,98661	273,125216	314,53583	0
15.01.2021	04:51:08	0	0	3,84157	2,1405	16,1028	-0,781	82,794	0	1010,38	5,8	7,8	7,7	1	1	1	1	1	1	1	1	1	0	1	-5,990134	273,240464	310,065195	0
15.01.2021	04:51:09	0	0	4,180532	2,16075	7,884	-0,789	82,787	0	1010,24	5,8	7,9	7,7	1	1	1	1	1	1	1	1	1	0	1	-4,933051	273,072802	310,347256	0
15.01.2021	04:51:10	0	0	4,180532	2,2095	12,8412	-0,785	82,788	0	1010,38	5,8	7,9	7,7	1	1	1	1	1	1	1	1	1	0	1	-4,369274	273,159292	311,310656	0
15.01.2021	04:51:11	0	0	4,067544	2,172	9,0108	-0,784	82,769	0	1010,3	5,8	7,9	7,7	1	1	1	1	1	1	1	1	1	0	1	-4,580691	273,261883	311,573748	0
15.01.2021	04:51:12	0	0	3,954557	2,18625	10,4472	-0,782	82,785	0	1010,46	5,8	7,9	7,7	1	1	1	1	1	1	1	1	1	0	1	-5,637773	273,224773	310,34496	0
15.01.2021	04:51:13	0	0	2,711696	2,31825	0,5148	-0,779	82,798	0	1010,48	5,8	7,9	7,7	1	1	1	1	1	1	1	1	1	0	1	-0,563777	273,20482	315,326666	0
15.01.2021	04:51:14	0	0	3,615595	2,61975	9,378	-0,781	82,793	0	1010,3	5,8	7,9	7,7	1	1	1	1	1	1	1	1	1	0	1	-7,399577	273,207669	308,504043	0
15.01.2021	04:51:15	0	0	2,937671	2,766	350,334	-0,782	82,784	0	1010,32	5,8	7,9	7,7	1	1	1	1	1	1	1	1	1	0	1	-2,043693	273,256169	314,084303	0
15.01.2021	04:51:16	0	0	4,858456	2,8005	4,59	-0,781	82,802	0	1010,38	5,8	7,9	7,7	1	1	1	1	1	1	1	1	1	0	1	-6,624383	273,096866	308,767075	0
15.01.2021	04:51:17	0	0	4,632481	2,74875	4,842	-0,782	82,793	0	1010,3	5,8	7,9	7,7	1	1	1	1	1	1	1	1	1	0	1	-2,536998	273,142247	313,064145	0
15.01.2021	04:51:18	0	0	4,632481	2,709	7,8768	-0,782	82,778	0	1010,32	5,8	7,9	7,7	1	1	1	1	1	1	1	1	1	0	1	-3,735025	273,239037	312,313702	0
15.01.2021	04:51:19	0	0	4,067544	2,7255	6,4476	-0,78	82,785	0	1010,34	5,8	7,8	7,7	1	1	1	1	1	1	1	1	1	0	1	-6,272023	273,227625	309,723905	0
15.01.2021	04:51:20	0	0	3,050658	2,742	13,9212	-0,785	82,804	0	1010,5	5,8	7,9	7,7	1	1	1	1	1	1	1	1	1	0	1	-8,033827	273,092618	307,338004	0
15.01.2021	04:51:21	0	0	4,067544	2,63325	1,1808	-0,778	82,8	0	1010,38	5,8	7,9	7,7	1	1	1	1	1	1	1	1	1	0	1	-4,721635	273,077046	310,578275	0
15.01.2021	04:51:22	0	0	4,180532	2,763	15,0372	-0,78	82,791	0	1010,42	5,8	7,8	7,7	1	1	1	1	1	1	1	1	1	0	1	-0,916138	273,192004	314,915037	0
15.01.2021	04:51:23	0	0	4,858456	2,8935	13,0212	-0,789	82,787	0	1010,18	5,8	7,8	7,7	1	1	1	1	1	1	1	1	1	0	1	-5,84919	273,074217	309,437651	0
15.01.2021	04:51:24	0	0	2,937671	2,949	346,4964	-0,781	82,777	0	1010,34	5,8	7,9	7,7	1	1	1	1	1	1	1	1	1	0	1	-1,973221	273,0997	313,431325	0
15.01.2021	04:51:25	0	0	5,084431	3,1335	353,2392	-0,789	82,788	0	1010,38	5,8	7,9	7,7	1	1	1	1	1	1	1	1	1	0	1	-0	273,190581	315,824593	0
15.01.2021	04:51:26	0	0	2,824684	2,964	20,3688	-0,781	82,783	0	1010,24	5,8	7,8	7,7	1	1	1	1	1	1	1	1	1	0	1	-4,298802	273,084123	311,03379	0
15.01.2021	04:51:27	0	0	3,728582	2,94975	0	-0,78	82,797	0	1010,32	5,8	7,9	7,7	1	1	1	1	1	1	1	1	1	0	1	-0,211416	273,210519	315,705384	0
15.01.2021	04:51:28	0	0	5,197418	3,177	11,7072	-0,784	82,776	0	1010,22	5,8	7,9	7,7	1	1	1	1	1	1	1	1	1	0	1	-7,540521	273,247601	308,547829	0
15.01.2021	04:51:29	0	0	2,824684	3,14475	8,2584	-0,779	82,782	0	1010,42	5,8	7,9	7,7	1	1	1	1	1	1	1	1	1	0	1	-3,030303	273,135149	312,538037	0
15.01.2021	04:51:30	0	0	3,38962	3,2265	29,1132	-0,777	82,791	0	1010,46	5,8	7,8	7,7	1	1	1	1	1	1	1	1	1	0	1	-5,355884	273,260454	310,791943	0
15.01.2021	04:51:31	0	0	3,38962	3,024	4,4712	-0,775	82,793	0	1010,46	5,8	7,9	7,7	1	1	1	1	1	1	1	1	1	0	1	-3,24172	273,108201	312,202103	0
15.01.2021	04:51:32	0	0	3,615595	2,9865	0,4968	-0,785	82,788	0	1010,38	5,8	7,9	7,7	1	1	1	1	1	1	1	1	1	0	1	-2,677942	273,247601	313,410408	0
15.01.2021	04:51:33	0	0	4,632481	3,066	4,8456	-0,778	82,799	0	1010,46	5,8	7,8	7,7	1	1	1	1	1	1	1	1	1	0	1	-2,677942	273,23761	313,364182	0
15.01.2021	04:51:34	0	0	2,372734	3,04275	12,8556	-0,785	82,802	0	1010,4	5,8	7,9	7,7	1	1	1	1	1	1	1	1	1	0	1	-6,8358	273,137988	308,745659	0
15.01.2021	04:51:35	0	0	3,38962	3,015	15,4152	-0,776	82,8	0	1010,38	5,8	7,9	7,7	1	1	1	1	1	1	1	1	1	0	1	-5,567301	273,123798	309,948585	0
15.01.2021	04:51:36	0	0	3,163646	2,87925	10,062	-0,778	82,798	0	1010,46	5,8	7,8	7,7	1	1	1	1	1	1	1	1	1	0	1	-7,399577	273,118125	308,090096	0
15.01.2021	04:51:37	0	0	2,711696	2,98425	11,2068	-0,784	82,797	0	1010,3	5,8	7,9	7,7	1	1	1	1	1	1	1	1	1	0	1	-3,59408	273,253312	312,520698	0
15.01.2021	04:51:38	0	0	3,728582	3,09975	16,5888	-0,78	82,802	0	1010,34	5,8	7,9	7,7	1	1	1	1	1	1	1	1	1	0	1	-7,963354	273,211944	307,960036	0
15.01.2021	04:51:39	0	0	3,502608	3,22875	10,0656	-0,777	82,802	0	1010,48	5,8	7,9	7,7	1	1	1	1	1	1	1	1	1	0	1	-6,553911	273,20482	309,336532	0
15.01.2021	04:51:40	0	0	3,728582	3,465	29,5812	-0,776	82,802	0	1010,52	5,8	7,9	7,7	1	1	1	1	1	1	1	1	1	0	1	-7,258633	273,078461	308,047812	0
15.01.2021	04:51:41	0	0	3,38962	3,47025	22,4532	-0,772	82,795	0	1010,36	5,8	7,8	7,7	1	1	1	1	1	1	1	1	1	0	1	-2,748414	273,113871	312,721605	0
15.01.2021	04:51:42	0	0	4,632481	3,46425	12,0996	-0,782	82,8	0	1010,46	5,8	7,8	7,7	1	1	1	1	1	1	1	1	1	0	1	-5,144468	273,197699	310,713043	0
15.01.2021	04:51:43	0	0	2,937671	3,648	17,7048	-0,774	82,808	0	1010,42	5,8	7,9	7,7	1	1	1	1	1	1	1	1	1	0	1	-10,500352	273,092618	304,871479	0
15.01.2021	04:51:44	0	0	3,728582	3,47625	15,048	-0,775	82,806	0	1010,3	5,8	7,9	7,7	1	1	1	1	1	1	1	1	1	0	1	-3,24172	273,189157	312,576291	0
15.01.2021	04:51:45	0	0	4,745468	3,5505	10,8324	-0,776	82,781	0	1010,6	5,8	7,9	7,7	1	1	1	1	1	1	1	1	1	0	1	-4,510218	273,254741	311,611169	0
15.01.2021	04:51:46	0	0	3,276633	3,96975	18,4572	-0,781	82,799	0	1010,32	5,8	7,8	7,7	1	1	1	1	1	1	1	1	1	0	1	-8,315715	273,227625	307,680212	0
15.01.2021	04:51:47	0	0	2,711696	3,8355	17,6976	-0,776	82,797	0	1010,28	5,8	7,8	7,7	1	1	1	1	1	1	1	1	1	0	1	-7,681466	273,183465	308,110224	0
15.01.2021	04:51:48	0	0	3,615595	3,5445	359,0712	-0,773	82,803	0	1010,4	5,8	7,8	7,7	1	1	1	1	1	1	1	1	1	0	1	-1,479915	273,347796	315,072306	0
15.01.2021	04:51:49	0	0	4,067544	3,57225	357,6024	-0,778	82,795	0	1010,4	5,8	7,8	7,7	1	1	1	1	1	1	1	1	1	0	1	-8,315715	273,193428	307,522043	0
15.01.2021	04:51:50	0	0	2,824684	3,58125	354,618	-0,776	82,801	0	1010,38	5,8	7,9	7,7	1	1	1	1	1	1	1	1	1	0	1	-0,211416	273,20482	315,679027	0
15.01.2021	04:51:51	0	0	4,519494	3,62775	355,3704	-0,78	82,784	0	1010,34	5,8	7,8	7,7	1	1	1	1	1	1	1	1	1	0	1	-3,453136	273,271886	312,7476	0
15.01.2021	04:51:52	0	0	3,276633	3,66825	1,26	-0,779	82,805	0	1010,4	5,8	7,9	7,7	1	1	1	1	1	1	1	1	1	0	1	-4,298802	273,105367	311,131926	0
15.01.2021	04:51:53	0	0	4,519494	3,63375	17,2296	-0,777	82,798	0	1010,36	5,8	7,8	7,7	1	1	1	1	1	1	1	1	1	0	1	-5,003524	273,129473	310,538585	0
15.01.2021	04:51:54	0	0	4,180532	3,44175	7,1136	-0,777	82,795	0	1010,32	5,8	7,9	7,7	1	1	1	1	1	1	1	1	1	0	1	-10,782241	273,249029	305,312716	0
15.01.2021	04:51:55	0	0	3,728582	3,30075	5,2272	-0,784	82,799	0	1010,34	5,8	7,8	7,7	1	1	1	1	1	1	1	1	1	0	1	-3,805497	273,150767	311,835029	0
15.01.2021	04:51:56	0	0	4,293519	3,33525	20,7252	-0,784	82,791	0	1010,22	5,8	7,9	7,7	1	1	1	1	1	1	1	1	1	0	1	-6,624383	273,256169	309,503613	0
15.01.2021	04:51:57	0	0	3,954557	3,3915	4,8456	-0,777	82,801	0	1010,38	5,8	7,9	7,7	1	1	1	1	1	1	1	1	1	0	1	-2,325581	273,224773	313,657152	0
15.01.2021	04:51:58	0	0	4,519494	3,4365	5,688	-0,781	82,8	0	1010,3	5,8	7,9	7,7	1	1	1	1	1	1	1	1	1	0	1	-5,567301	273,091201	309,797989	0
15.01.2021	04:51:59	0	0	2,824684	3,4635	7,5132	-0,777	82,806	0	1010,38	5,8	7,8	7,7	1	1	1	1	1	1	1	1	1	0	1	-6,412967	273,079877	308,900014	0
15.01.2021	04:52:00	0	0	4,632481	3,1035	0,8784	-0,778	82,806	0	1010,34	5,8	7,8	7,7	1	1	1	1	1	1	1	1	1	0	1	-0	273,111036	315,45692	0
15.01.2021	04:52:01	0	0	4,632481	3,1035	0,8784	-0,778	82,806	0	1010,34	5,8	7,8	7,7	1	1	1	1	1	1	1	1	1	0	1	-0	273,111036	315,45692	0
15.01.2021	04:52:02	0	0	3,728582	2,844	5,22	-0,781	82,797	0	1010,4	5,8	7,8	7,7	1	1	1	1	1	1	1	1	1	0	1	-1,268499	273,155029	314,391726	0
15.01.2021	04:52:03	0	0	2,937671	2,50275	360	-0,773	82,799	0	1010,46	5,8	7,8	7,7	1	1	1	1	1	1	1	1	1	0	1	-3,664553	273,259025	312,476664	0
15.01.2021	04:52:04	0	0	3,728582	2,292	7,5132	-0,777	82,798	0	1010,3	5,8	7,8	7,7	1	1	1	1	1	1	1	1	1	0	1	-4,298802	273,106784	311,138473	0
15.01.2021	04:52:05	0	0	4,519494	2,25375	2,6568	-0,773	82,787	0	1010,32	5,8	7,8	7,7	1	1	1	1	1	1	1	1	1	0	1	-3,946441	273,239037	312,102285	0
15.01.2021	04:52:06	0	0	4,745468	2,169	354,2364	-0,774	82,799	0	1010,3	5,8	7,8	7,7	1	1	1	1	1	1	1	1	1	0	1	-2,889359	273,241891	313,172573	0
15.01.2021	04:52:07	0	0	5,084431	2,35275	14,3784	-0,778	82,792	0	1010,38	5,8	7,8	7,7	1	1	1	1	1	1	1	1	1	0	1	-5,426357	273,216219	310,51681	0
15.01.2021	04:52:08	0	0	3,276633	2,514	349,1064	-0,779	82,793	0	1010,34	5,8	7,8	7,7	1	1	1	1	1	1	1	1	1	0	1	-2,748414	273,075631	312,544961	0
15.01.2021	04:52:09	0	0	4,858456	2,6115	349,3692	-0,779	82,798	0	1010,78	5,8	7,9	7,7	1	1	1	1	1	1	1	1	1	0	1	-6,624383	273,143666	308,983322	0
15.01.2021	04:52:10	0	0	4,858456	2,5665	360	-0,777	82,79	0	1010,44	5,8	7,8	7,7	1	1	1	1	1	1	1	1	1	0	1	-7,399577	273,0997	308,004969	0
15.01.2021	04:52:11	0	0	2,711696	2,484	343,8936	-0,777	82,805	0	1010,34	5,8	7,8	7,7	1	1	1	1	1	1	1	1	1	0	1	-1,62086	273,209094	314,28935	0
15.01.2021	04:52:12	0	0	2,711696	2,55525	358,0056	-0,777	82,801	0	1010,46	5,8	7,8	7,7	1	1	1	1	1	1	1	1	1	0	1	-3,735025	273,084123	311,597568	0
15.01.2021	04:52:13	0	0	3,728582	2,77425	11,7072	-0,784	82,776	0	1010,26	5,8	7,8	7,7	1	1	1	1	1	1	1	1	1	0	1	-6,976744	273,15645	308,690048	0
15.01.2021	04:52:14	0	0	3,728582	2,7765	1,9152	-0,78	82,789	0	1010,36	5,8	7,8	7,7	1	1	1	1	1	1	1	1	1	0	1	-5,496829	273,077046	309,803081	0
15.01.2021	04:52:15	0	0	4,519494	2,62125	359,4924	-0,779	82,798	0	1010,36	5,8	7,9	7,7	1	1	1	1	1	1	1	1	1	0	1	-4,651163	273,209094	311,259047	0
15.01.2021	04:52:16	0	0	3,615595	2,574	11,196	-0,778	82,803	0	1010,42	5,8	7,8	7,7	1	1	1	1	1	1	1	1	1	0	1	-4,22833	273,250457	311,873234	0
15.01.2021	04:52:17	0	0	4,858456	2,52225	8,6148	-0,776	82,79	0	1010,36	5,8	7,8	7,7	1	1	1	1	1	1	1	1	1	0	1	-4,298802	273,172086	311,440274	0
15.01.2021	04:52:18	0	0	4,745468	2,52375	0,4968	-0,778	82,789	0	1010,4	5,8	7,8	7,7	1	1	1	1	1	1	1	1	1	0	1	-6,412967	273,082707	308,913088	0
15.01.2021	04:52:19	0	0	4,632481	2,45325	7,5096	-0,777	82,798	0	1010,46	5,8	7,8	7,7	1	1	1	1	1	1	1	1	1	0	1	-5,708245	273,079877	309,604736	0
15.01.2021	04:52:20	0	0	4,180532	2,38725	12,1068	-0,778	82,789	0	1010,38	5,8	7,9	7,7	1	1	1	1	1	1	1	1	1	0	1	-3,59408	273,203396	312,289775	0
15.01.2021	04:52:21	0	0	3,163646	2,33325	2,6424	-0,779	82,791	0	1010,26	5,8	7,8	7,7	1	1	1	1	1	1	1	1	1	0	1	-3,382664	273,085538	311,956467	0
15.01.2021	04:52:22	0	0	2,937671	2,29575	360	-0,776	82,793	0	1010,36	5,8	7,8	7,7	1	1	1	1	1	1	1	1	1	0	1	-3,735025	273,159292	311,944905	0
15.01.2021	04:52:23	0	0	4,067544	2,46	12,0924	-0,782	82,789	0	1010,32	5,8	7,8	7,7	1	1	1	1	1	1	1	1	1	0	1	-3,946441	273,256169	312,181555	0
15.01.2021	04:52:24	0	0	4,180532	2,67975	6,4476	-0,783	82,786	0	1010,28	5,8	7,8	7,7	1	1	1	1	1	1	1	1	1	0	1	-3,100775	273,184888	312,697494	0
15.01.2021	04:52:25	0	0	4,858456	2,91225	355,4244	-0,78	82,782	0	1010,34	5,8	7,8	7,7	1	1	1	1	1	1	1	1	1	0	1	-8,245243	273,271886	307,955492	0
15.01.2021	04:52:26	0	0	5,084431	3,0225	6,4296	-0,776	82,85	0	1010,42	5,8	7,8	7,7	1	1	1	1	1	1	1	1	1	0	1	-7,681466	273,250457	308,420098	0
15.01.2021	04:52:27	0	0	4,519494	3,381	4,086	-0,778	82,784	0	1010,26	5,8	7,9	7,7	1	1	1	1	1	1	1	1	1	0	1	-0,98661	273,166398	314,726172	0
15.01.2021	04:52:28	0	0	4,632481	3,8085	18,4356	-0,777	82,787	0	1010,48	5,8	7,8	7,7	1	1	1	1	1	1	1	1	1	0	1	-4,933051	273,247601	311,155299	0
15.01.2021	04:52:29	0	0	4,180532	3,8865	10,4652	-0,78	82,789	0	1010,52	5,8	7,8	7,7	1	1	1	1	1	1	1	1	1	0	1	-2,043693	273,231904	313,97203	0
15.01.2021	04:52:30	0	0	3,502608	3,759	15,4116	-0,78	82,795	0	1010,3	5,8	7,9	7,7	1	1	1	1	1	1	1	1	1	0	1	-4,298802	273,150767	311,341724	0
15.01.2021	04:52:31	0	0	4,406506	3,38325	31,0176	-0,779	82,799	0	1010,36	5,8	7,8	7,7	1	1	1	1	1	1	1	1	1	0	1	-5,496829	273,10395	309,927353	0
15.01.2021	04:52:32	0	0	3,615595	3,05475	10,0584	-0,772	82,808	0	1010,48	5,8	7,8	7,7	1	1	1	1	1	1	1	1	1	0	1	-1,973221	273,074217	313,31362	0
15.01.2021	04:52:33	0	0	3,050658	2,865	7,9956	-0,775	82,8	0	1010,46	5,8	7,8	7,7	1	1	1	1	1	1	1	1	1	0	1	-4,087385	273,135149	311,480954	0
15.01.2021	04:52:34	0	0	3,728582	2,727	3,7872	-0,773	82,79	0	1010,26	5,8	7,8	7,7	1	1	1	1	1	1	1	1	1	0	1	-2,818887	273,084123	312,513706	0
15.01.2021	04:52:35	0	0	3,954557	2,66925	23,2236	-0,773	82,803	0	1010,3	5,8	7,8	7,7	1	1	1	1	1	1	1	1	1	0	1	-2,60747	273,153608	313,046188	0
15.01.2021	04:52:36	0	0	3,954557	2,583	354,2904	-0,774	82,797	0	1010,46	5,8	7,8	7,7	1	1	1	1	1	1	1	1	1	0	1	-0,140944	273,089786	315,217805	0
15.01.2021	04:52:37	0	0	4,745468	2,5125	4,8456	-0,778	82,789	0	1010,3	5,8	7,8	7,7	1	1	1	1	1	1	1	1	1	0	1	-5,778717	273,169242	309,94721	0
15.01.2021	04:52:38	0	0	4,632481	2,418	359,4276	-0,772	82,813	0	1010,46	5,8	7,8	7,7	1	1	1	1	1	1	1	1	1	0	1	-0	273,074217	315,286841	0
15.01.2021	04:52:39	0	0	4,519494	2,42025	5,2056	-0,776	82,799	0	1010,36	5,8	7,8	7,7	1	1	1	1	1	1	1	1	1	0	1	-5,84919	273,105367	309,581539	0
15.01.2021	04:52:40	0	0	4,519494	2,44875	357,624	-0,78	82,804	0	1010,24	5,8	7,8	7,7	1	1	1	1	1	1	1	1	1	0	1	-3,875969	273,26474	312,291694	0
15.01.2021	04:52:41	0	0	4,519494	2,6175	6,0624	-0,777	82,808	0	1010,44	5,8	7,8	7,7	1	1	1	1	1	1	1	1	1	0	1	-1,409443	273,221921	314,560099	0
15.01.2021	04:52:42	0	0	3,84157	2,92725	6,0732	-0,773	82,808	0	1010,42	5,8	7,8	7,7	1	1	1	1	1	1	1	1	1	0	1	-5,073996	273,210519	310,842804	0
15.01.2021	04:52:43	0	0	4,632481	3,0405	4,8528	-0,779	82,807	0	1010,34	5,8	7,8	7,7	1	1	1	1	1	1	1	1	1	0	1	-6,131078	273,084123	309,201514	0
15.01.2021	04:52:44	0	0	3,276633	3,132	32,8716	-0,778	82,812	0	1010,4	5,8	7,8	7,7	1	1	1	1	1	1	1	1	1	0	1	-8,174771	273,157871	307,49859	0
15.01.2021	04:52:45	0	0	3,728582	3,084	25,7976	-0,776	82,803	0	1010,36	5,8	7,8	7,7	1	1	1	1	1	1	1	1	1	0	1	-5,355884	273,254741	310,765503	0
15.01.2021	04:52:46	0	0	4,858456	2,772	29,106	-0,781	82,804	0	1010,38	5,8	7,8	7,7	1	1	1	1	1	1	1	1	1	0	1	-1,973221	273,159292	313,706709	0
15.01.2021	04:52:47	0	0	4,519494	2,763	10,4472	-0,776	82,817	0	1010,36	5,8	7,8	7,7	1	1	1	1	1	1	1	1	1	0	1	-7,610994	273,251884	308,497177	0
15.01.2021	04:52:48	0	0	3,38962	2,80875	22,4676	-0,776	82,819	0	1010,32	5,8	7,8	7,7	1	1	1	1	1	1	1	1	1	0	1	-3,523608	273,116707	311,959513	0
15.01.2021	04:52:49	0	0	4,745468	2,93325	23,9688	-0,774	82,82	0	1010,54	5,8	7,8	7,7	1	1	1	1	1	1	1	1	1	0	1	-3,171247	273,214794	312,765327	0
15.01.2021	04:52:50	0	0	4,858456	3,039	25,0416	-0,773	82,816	0	1010,44	5,8	7,8	7,7	1	1	1	1	1	1	1	1	1	0	1	-3,664553	273,082707	311,661502	0
15.01.2021	04:52:51	0	0	2,598709	3,04875	20,6388	-0,777	82,822	0	1010,4	5,8	7,8	7,7	1	1	1	1	1	1	1	1	1	0	1	-4,792107	273,182042	310,993004	0
15.01.2021	04:52:52	0	0	4,971443	3,11625	23,9724	-0,771	82,817	0	1010,44	5,8	7,8	7,7	1	1	1	1	1	1	1	1	1	0	1	-5,567301	273,273316	310,640051	0
15.01.2021	04:52:53	0	0	3,050658	3,105	22,464	-0,778	82,808	0	1010,28	5,9	7,8	7,7	1	1	1	1	1	1	1	1	1	0	1	-2,677942	273,10395	312,74624	0
15.01.2021	04:52:54	0	0	2,485722	3,18525	28,7424	-0,774	82,818	0	1010,36	5,8	7,8	7,7	1	1	1	1	1	1	1	1	1	0	1	-3,523608	273,137988	312,057851	0
15.01.2021	04:52:55	0	0	4,067544	3,1395	26,5248	-0,775	82,82	0	1010,18	5,8	7,8	7,7	1	1	1	1	1	1	1	1	1	0	1	-3,805497	273,081292	311,514021	0
15.01.2021	04:52:56	0	0	4,745468	2,9175	22,4748	-0,774	82,828	0	1010,34	5,8	7,8	7,7	1	1	1	1	1	1	1	1	1	0	1	-8,668076	273,221921	307,301466	0
15.01.2021	04:52:57	0	0	4,745468	3,003	26,5212	-0,776	82,806	0	1010,5	5,8	7,8	7,7	1	1	1	1	1	1	1	1	1	0	1	-5,073996	273,263311	311,087055	0
15.01.2021	04:52:58	0	0	2,485722	2,9805	21,3912	-0,773	82,817	0	1010,6	5,8	7,8	7,7	1	1	1	1	1	1	1	1	1	0	1	-2,466526	273,170664	313,265976	0
15.01.2021	04:52:59	0	0	4,632481	2,86275	31,7952	-0,772	82,823	0	1010,46	5,8	7,8	7,7	1	1	1	1	1	1	1	1	1	0	1	-9,936575	273,079877	305,376406	0
15.01.2021	04:53:00	0	0	4,180532	2,6355	22,9248	-0,777	82,814	0	1010,34	5,8	7,8	7,7	1	1	1	1	1	1	1	1	1	0	1	-1,691332	273,147927	313,936064	0
15.01.2021	04:53:01	0	0	4,180532	2,6355	22,9248	-0,777	82,814	0	1010,34	5,8	7,8	7,7	1	1	1	1	1	1	1	1	1	0	1	-1,691332	273,147927	313,936064	0
15.01.2021	04:53:02	0	0	4,858456	2,5575	11,7144	-0,773	82,819	0	1010,5	5,8	7,8	7,7	1	1	1	1	1	1	1	1	1	0	1	-2,255109	273,079877	313,057872	0
15.01.2021	04:53:03	0	0	3,615595	2,526	9,378	-0,778	82,805	0	1010,28	5,8	7,8	7,7	1	1	1	1	1	1	1	1	1	0	1	-4,792107	273,182042	310,993004	0
15.01.2021	04:53:04	0	0	2,824684	2,60475	11,7108	-0,774	82,803	0	1010,36	5,8	7,8	7,7	1	1	1	1	1	1	1	1	1	0	1	-2,466526	273,089786	312,892223	0
15.01.2021	04:53:05	0	0	3,728582	2,65725	20,6316	-0,775	82,793	0	1010,44	5,8	7,8	7,7	1	1	1	1	1	1	1	1	1	0	1	-4,721635	273,109619	310,728736	0
15.01.2021	04:53:06	0	0	2,824684	2,66925	16,866	-0,777	82,803	0	1010,44	5,8	7,8	7,7	1	1	1	1	1	1	1	1	1	0	1	-3,312192	273,210519	312,604608	0
15.01.2021	04:53:07	0	0	2,937671	2,63775	23,2128	-0,774	82,814	0	1010,38	5,8	7,8	7,7	1	1	1	1	1	1	1	1	1	0	1	-2,184637	273,085538	313,154494	0
15.01.2021	04:53:08	0	0	4,067544	2,56875	15,0264	-0,778	82,81	0	1010,34	5,8	7,8	7,7	1	1	1	1	1	1	1	1	1	0	1	-7,329105	273,159292	308,350825	0
15.01.2021	04:53:09	0	0	2,824684	2,52525	12,852	-0,774	82,795	0	1010,42	5,8	7,8	7,7	1	1	1	1	1	1	1	1	1	0	1	-4,087385	273,256169	312,040611	0
15.01.2021	04:53:10	0	0	4,74544	2,50725	4,0896	-0,773	82,808	0	1010,5	5,8	7,8	7,8	1	1	1	1	1	1	1	1	1	0	1	-3,312192	273,129473	312,229917	0
15.01.2021	04:53:11	0	0	4,180532	2,7195	11,7252	-0,776	82,794	0	1010,26	5,8	7,8	7,7	1	1	1	1	1	1	1	1	1	0	1	-5,84919	273,247601	310,239161	0
15.01.2021	04:53:12	0	0	2,937671	2,7765	360	-0,773	82,815	0	1010,42	5,8	8	7,7	1	1	1	1	1	1	1	1	1	0	1	-1,902748	273,390897	314,849175	0
15.01.2021	04:53:13	0	0	3,84157	2,70825	3,0492	-0,776	82,8	0	1010,34	5,8	7,8	7,7	1	1	1	1	1	1	1	1	1	0	1	-3,59408	273,177775	312,171298	0
15.01.2021	04:53:14	0	0	3,38962	2,613	7,1388	-0,778	82,8	0	1010,46	5,9	7,8	7,7	1	1	1	1	1	1	1	1	1	0	1	-5,073996	273,26474	311,093668	0
15.01.2021	04:53:15	0	0	4,519494	2,62875	3,7656	-0,784	82,806	0	1010,44	5,8	7,8	7,7	1	1	1	1	1	1	1	1	1	0	1	-5,144468	273,247601	310,943883	0
15.01.2021	04:53:16	0	0	2,824684	2,67	2,646	-0,775	82,812	0	1010,38	5,8	7,8	7,7	1	1	1	1	1	1	1	1	1	0	1	-5,144468	273,142247	310,456675	0
15.01.2021	04:53:17	0	0	2,824667	2,7105	6,4404	-0,773	82,819	0	1010,28	5,8	7,8	7,8	1	1	1	1	1	1	1	1	1	0	1	-2,677942	273,096866	312,713516	0
15.01.2021	04:53:18	0	0	2,937671	2,8185	6,4332	-0,77	82,802	0	1010,34	5,8	7,8	7,7	1	1	1	1	1	1	1	1	1	0	1	-6,906272	273,162134	308,786797	0
15.01.2021	04:53:19	0	0	2,824684	2,787	6,4404	-0,778	82,812	0	1010,36	5,8	7,8	7,7	1	1	1	1	1	1	1	1	1	0	1	-4,016913	273,217644	311,932846	0
15.01.2021	04:53:20	0	0	3,728582	2,6355	1,1988	-0,779	82,814	0	1010,3	5,8	7,8	7,7	1	1	1	1	1	1	1	1	1	0	1	-10,147992	273,229051	305,854534	0
15.01.2021	04:53:21	0	0	3,05064	2,544	346,176	-0,777	82,805	0	1010,32	5,8	7,8	7,8	1	1	1	1	1	1	1	1	1	0	1	-7,258633	273,120961	308,244145	0
15.01.2021	04:53:22	0	0	3,728582	2,64975	3,3984	-0,774	82,827	0	1010,46	5,8	7,8	7,7	1	1	1	1	1	1	1	1	1	0	1	-7,329105	273,081292	307,990413	0
15.01.2021	04:53:23	0	0	2,259747	2,60025	355,4172	-0,773	82,819	0	1010,4	5,8	7,8	7,7	1	1	1	1	1	1	1	1	1	0	1	-2,677942	273,210519	313,238858	0
15.01.2021	04:53:24	0	0	2,824667	2,454	359,5068	-0,777	82,817	0	1010,32	5,8	7,8	7,8	1	1	1	1	1	1	1	1	1	0	1	-3,523608	273,257597	312,610998	0
15.01.2021	04:53:25	0	0	3,502608	2,33475	358,002	-0,772	82,828	0	1010,44	5,8	7,8	7,7	1	1	1	1	1	1	1	1	1	0	1	-4,510218	273,130891	311,038447	0
15.01.2021	04:53:26	0	0	4,858456	2,292	344,646	-0,778	82,825	0	1010,34	5,8	7,8	7,7	1	1	1	1	1	1	1	1	1	0	1	-4,298802	273,236183	311,736721	0
15.01.2021	04:53:27	0	0	2,259747	2,385	4,0716	-0,774	82,818	0	1010,42	5,8	7,8	7,7	1	1	1	1	1	1	1	1	1	0	1	-4,016913	273,199123	311,847183	0
15.01.2021	04:53:28	0	0	4,858456	2,74425	0,1116	-0,778	82,812	0	1010,36	5,8	7,8	7,7	1	1	1	1	1	1	1	1	1	0	1	-3,523608	273,253312	312,59117	0
15.01.2021	04:53:29	0	0	3,276613	3,21675	0	-0,77	82,829	0	1010,52	5,8	7,8	7,8	1	1	1	1	1	1	1	1	1	0	1	-6,694856	273,139407	308,893164	0
15.01.2021	04:53:30	0	0	3,841547	3,312	7,5204	-0,78	82,827	0	1010,54	5,8	7,8	7,8	1	1	1	1	1	1	1	1	1	0	1	-5,919662	273,234757	310,109261	0
15.01.2021	04:53:31	0	0	4,858456	3,08325	1,9188	-0,774	82,827	0	1010,44	5,8	8	7,7	1	1	1	1	1	1	1	1	1	0	1	-5,073996	273,106784	310,36328	0
15.01.2021	04:53:32	0	0	3,72856	3,003	1,5444	-0,778	82,824	0	1010,38	5,8	7,8	7,8	1	1	1	1	1	1	1	1	1	0	1	-2,677942	273,201971	313,199326	0
15.01.2021	04:53:33	0	0	4,971413	2,94675	10,8252	-0,773	82,825	0	1010,48	5,8	7,8	7,8	1	1	1	1	1	1	1	1	1	0	1	-7,540521	273,261883	308,613917	0
15.01.2021	04:53:34	0	0	3,728582	2,9205	8,622	-0,773	82,823	0	1010,54	5,8	8	7,7	1	1	1	1	1	1	1	1	1	0	1	-4,087385	273,247601	312,000965	0
15.01.2021	04:53:35	0	0	3,728582	2,862	1,1772	-0,778	82,826	0	1010,34	5,8	7,8	7,7	1	1	1	1	1	1	1	1	1	0	1	-4,721635	273,146506	310,899197	0
15.01.2021	04:53:36	0	0	3,502608	2,7585	10,4328	-0,779	82,832	0	1010,44	5,8	7,8	7,7	1	1	1	1	1	1	1	1	1	0	1	-5,355884	273,249029	310,739072	0
15.01.2021	04:53:37	0	0	3,050658	2,7285	3,0312	-0,777	82,837	0	1010,42	5,8	7,8	7,7	1	1	1	1	1	1	1	1	1	0	1	-4,369274	273,136568	311,205625	0
15.01.2021	04:53:38	0	0	3,841547	2,90325	17,6904	-0,768	82,891	0	1010,32	5,8	7,8	7,8	1	1	1	1	1	1	1	1	1	0	1	-4,792107	273,091201	310,573183	0
15.01.2021	04:53:39	0	0	4,406506	2,97375	15,0444	-0,769	82,839	0	1010,42	5,8	7,8	7,7	1	1	1	1	1	1	1	1	1	0	1	-9,513742	273,068558	305,746968	0
15.01.2021	04:53:40	0	0	3,163646	2,9325	27,9648	-0,775	82,838	0	1010,3	5,8	7,8	7,7	1	1	1	1	1	1	1	1	1	0	1	-6,272023	273,18062	309,50651	0
15.01.2021	04:53:41	0	0	4,180507	2,973	27,2808	-0,772	82,822	0	1010,32	5,8	7,8	7,8	1	1	1	1	1	1	1	1	1	0	1	-4,510218	273,078461	310,796227	0
15.01.2021	04:53:42	0	0	3,163627	2,832	23,2164	-0,772	82,849	0	1010,42	5,8	7,8	7,8	1	1	1	1	1	1	1	1	1	0	1	-3,664553	273,183465	312,127137	0
15.01.2021	04:53:43	0	0	4,74544	2,55075	12,0996	-0,774	82,837	0	1010,36	5,8	7,8	7,8	1	1	1	1	1	1	1	1	1	0	1	-3,453136	273,084123	311,879456	0
15.01.2021	04:53:44	0	0	3,05064	2,27925	15,7896	-0,772	82,842	0	1010,4	5,8	7,8	7,8	1	1	1	1	1	1	1	1	1	0	1	-4,933051	273,111036	310,523869	0
15.01.2021	04:53:45	0	0	2,598693	2,19	18,4356	-0,771	82,837	0	1010,48	5,8	7,8	7,8	1	1	1	1	1	1	1	1	1	0	1	-7,610994	273,197699	308,246517	0
15.01.2021	04:53:46	0	0	4,971443	2,23125	8,9964	-0,771	82,841	0	1010,28	5,8	8	7,7	1	1	1	1	1	1	1	1	1	0	1	-8,879493	273,256169	307,248504	0
15.01.2021	04:53:47	0	0	3,163646	2,40675	8,2764	-0,777	82,827	0	1010,44	5,8	7,8	7,7	1	1	1	1	1	1	1	1	1	0	1	-7,117689	273,109619	308,332683	0
15.01.2021	04:53:48	0	0	4,406506	2,727	7,1244	-0,78	82,828	0	1010,26	5,8	7,8	7,7	1	1	1	1	1	1	1	1	1	0	1	-5,144468	273,20482	310,745975	0
15.01.2021	04:53:49	0	0	2,711696	2,8125	18,1512	-0,776	82,836	0	1010,42	5,8	8	7,7	1	1	1	1	1	1	1	1	1	0	1	-6,272023	273,086954	309,073647	0
15.01.2021	04:53:50	0	0	3,502608	3,18	18,0756	-0,769	82,847	0	1010,3	5,8	7,8	7,7	1	1	1	1	1	1	1	1	1	0	1	-8,386187	273,182042	307,398923	0
15.01.2021	04:53:51	0	0	3,502608	3,73725	20,2896	-0,772	82,838	0	1010,36	5,8	7,8	7,7	1	1	1	1	1	1	1	1	1	0	1	-4,157858	273,257597	311,976748	0
15.01.2021	04:53:52	0	0	2,937653	4,0605	14,3064	-0,775	82,84	0	1010,44	5,8	7,8	7,8	1	1	1	1	1	1	1	1	1	0	1	-7,188161	273,223347	308,787977	0
15.01.2021	04:53:53	0	0	2,824684	4,2705	13,1688	-0,775	82,823	0	1010,42	5,8	7,8	7,7	1	1	1	1	1	1	1	1	1	0	1	-3,100775	273,150767	312,53975	0
15.01.2021	04:53:54	0	0	2,937653	4,36725	5,2272	-0,773	82,845	0	1010,42	5,8	7,8	7,8	1	1	1	1	1	1	1	1	1	0	1	-10,993658	273,254741	305,12773	0
15.01.2021	04:53:55	0	0	3,276633	4,44225	9,3708	-0,771	82,844	0	1010,36	5,8	7,8	7,7	1	1	1	1	1	1	1	1	1	0	1	-3,946441	273,166398	311,766341	0
15.01.2021	04:53:56	0	0	3,84157	4,32825	15,7644	-0,773	82,846	0	1010,42	5,8	7,8	7,7	1	1	1	1	1	1	1	1	1	0	1	-3,100775	273,256169	313,027221	0
15.01.2021	04:53:57	0	0	4,745468	4,19475	9,3816	-0,768	82,846	0	1010,42	5,8	7,8	7,7	1	1	1	1	1	1	1	1	1	0	1	-7,751938	273,177775	308,01344	0
15.01.2021	04:53:58	0	0	3,38962	4,2345	6,4296	-0,769	82,834	0	1010,3	5,8	7,8	7,7	1	1	1	1	1	1	1	1	1	0	1	-3,523608	273,078461	311,782837	0
15.01.2021	04:53:59	0	0	4,858456	4,15875	6,0696	-0,776	82,841	0	1010,34	5,8	7,8	7,7	1	1	1	1	1	1	1	1	1	0	1	-7,892882	273,17493	307,859343	0
15.01.2021	04:54:00	0	0	4,519467	3,45225	13,2624	-0,77	82,847	0	1010,26	5,8	7,8	7,8	1	1	1	1	1	1	1	1	1	0	1	-3,171247	273,146506	312,449584	0
15.01.2021	04:54:01	0	0	4,519467	3,45225	13,2624	-0,77	82,847	0	1010,26	5,8	7,8	7,8	1	1	1	1	1	1	1	1	1	0	1	-3,171247	273,146506	312,449584	0
15.01.2021	04:54:02	0	0	4,632481	3,09525	25,4196	-0,768	82,842	0	1010,5	5,8	7,8	7,7	1	1	1	1	1	1	1	1	1	0	1	-4,369274	273,08837	310,982935	0
15.01.2021	04:54:03	0	0	4,519467	2,8845	32,8716	-0,775	82,839	0	1010,32	5,9	7,8	7,8	1	1	1	1	1	1	1	1	1	0	1	-5,355884	273,240464	310,699444	0
15.01.2021	04:54:04	0	0	4,067544	2,77275	32,4936	-0,767	82,842	0	1010,52	5,9	8	7,7	1	1	1	1	1	1	1	1	1	0	1	-5,355884	273,189157	310,462127	0
15.01.2021	04:54:05	0	0	3,502608	2,715	23,5908	-0,775	82,833	0	1010,4	5,9	8	7,7	1	1	1	1	1	1	1	1	1	0	1	-7,681466	273,266169	308,492811	0
15.01.2021	04:54:06	0	0	3,3896	2,70825	33,2496	-0,766	82,832	0	1010,36	5,8	7,8	7,8	1	1	1	1	1	1	1	1	1	0	1	-6,906272	273,149347	308,727688	0
15.01.2021	04:54:07	0	0	3,163627	2,60925	16,866	-0,774	82,835	0	1010,42	5,8	7,8	7,8	1	1	1	1	1	1	1	1	1	0	1	-2,889359	273,089786	312,46939	0
15.01.2021	04:54:08	0	0	5,423393	2,6445	10,0764	-0,775	82,819	0	1010,36	5,8	8	7,7	1	1	1	1	1	1	1	1	1	0	1	-5,567301	273,214794	310,369273	0
15.01.2021	04:54:09	0	0	4,74544	2,57475	15,0516	-0,77	82,808	0	1010,22	5,8	7,8	7,8	1	1	1	1	1	1	1	1	1	0	1	-8,597604	273,259025	307,543612	0
15.01.2021	04:54:10	0	0	4,293519	2,41725	18,4608	-0,771	82,825	0	1010,4	5,8	7,8	7,7	1	1	1	1	1	1	1	1	1	0	1	-9,936575	273,213369	305,993407	0
15.01.2021	04:54:11	0	0	4,519494	2,23425	13,176	-0,775	82,824	0	1010,3	5,8	7,8	7,7	1	1	1	1	1	1	1	1	1	0	1	-4,580691	273,269027	311,606814	0
15.01.2021	04:54:12	0	0	3,72856	2,33925	21,8592	-0,771	82,82	0	1010,28	5,9	7,8	7,8	1	1	1	1	1	1	1	1	1	0	1	-5,426357	273,231904	310,589366	0
15.01.2021	04:54:13	0	0	3,163646	2,424	21,7728	-0,775	82,813	0	1010,36	5,8	7,8	7,7	1	1	1	1	1	1	1	1	1	0	1	-3,664553	273,200547	312,206129	0
15.01.2021	04:54:14	0	0	5,0844	2,41425	17,7012	-0,776	82,813	0	1010,38	5,8	7,8	7,8	1	1	1	1	1	1	1	1	1	0	1	-6,624383	273,246173	309,457362	0
15.01.2021	04:54:15	0	0	4,74544	2,502	351,0756	-0,773	82,821	0	1010,38	5,8	7,8	7,8	1	1	1	1	1	1	1	1	1	0	1	-2,889359	273,261883	313,26508	0
15.01.2021	04:54:16	0	0	3,954533	2,70375	7,5024	-0,768	82,818	0	1010,4	5,8	7,8	7,8	1	1	1	1	1	1	1	1	1	0	1	-5,144468	273,160713	310,542031	0
15.01.2021	04:54:17	0	0	3,050658	2,67	3,024	-0,77	82,801	0	1010,38	5,8	8	7,7	1	1	1	1	1	1	1	1	1	0	1	-6,060606	273,0997	309,34394	0
15.01.2021	04:54:18	0	0	2,824684	2,80875	0,864	-0,777	82,802	0	1010,38	5,8	7,8	7,7	1	1	1	1	1	1	1	1	1	0	1	-2,677942	273,152188	312,969149	0
15.01.2021	04:54:19	0	0	4,858456	3,03975	11,7288	-0,766	82,815	0	1010,32	5,8	7,8	7,7	1	1	1	1	1	1	1	1	1	0	1	-6,060606	273,263311	310,100445	0
15.01.2021	04:54:20	0	0	3,84157	3,2205	19,134	-0,771	82,806	0	1010,28	5,8	8	7,7	1	1	1	1	1	1	1	1	1	0	1	-8,668076	273,217644	307,281683	0
15.01.2021	04:54:21	0	0	2,824667	3,606	31,3992	-0,773	82,809	0	1010,22	5,8	7,8	7,8	1	1	1	1	1	1	1	1	1	0	1	-9,513742	273,203396	306,370113	0
15.01.2021	04:54:22	0	0	2,937653	3,73125	12,0996	-0,765	82,814	0	1010,36	5,8	8	7,8	1	1	1	1	1	1	1	1	1	0	1	-6,694856	273,115289	308,781715	0
15.01.2021	04:54:23	0	0	2,937671	3,6975	19,1484	-0,766	82,824	0	1010,4	5,8	7,8	7,7	1	1	1	1	1	1	1	1	1	0	1	-6,906272	273,146506	308,71456	0
15.01.2021	04:54:24	0	0	4,40648	3,612	12,1032	-0,771	82,814	0	1010,46	5,8	8	7,8	1	1	1	1	1	1	1	1	1	0	1	-9,44327	273,263311	306,717781	0
15.01.2021	04:54:25	0	0	4,067544	3,40725	22,8348	-0,774	82,81	0	1010,38	5,8	8	7,7	1	1	1	1	1	1	1	1	1	0	1	-6,131078	273,173508	309,614572	0
15.01.2021	04:54:26	0	0	2,824667	3,234	24,7356	-0,775	82,802	0	1010,22	5,9	7,8	7,8	1	1	1	1	1	1	1	1	1	0	1	-5,919662	273,139407	309,668358	0
15.01.2021	04:54:27	0	0	4,632453	3,093	22,0752	-0,775	82,812	0	1010,28	5,8	7,8	7,8	1	1	1	1	1	1	1	1	1	0	1	-4,157858	273,261883	311,996581	0
15.01.2021	04:54:28	0	0	4,180507	2,95425	10,0764	-0,773	82,819	0	1010,42	5,8	7,8	7,8	1	1	1	1	1	1	1	1	1	0	1	-6,483439	273,192004	309,347736	0
15.01.2021	04:54:29	0	0	3,841547	2,89875	357,2532	-0,772	82,808	0	1010,46	5,8	8	7,8	1	1	1	1	1	1	1	1	1	0	1	-4,298802	273,216219	311,644364	0
15.01.2021	04:54:30	0	0	4,180532	2,8365	9,7632	-0,77	82,818	0	1010,52	5,9	7,8	7,7	1	1	1	1	1	1	1	1	1	0	1	-8,315715	273,261883	307,838723	0
15.01.2021	04:54:31	0	0	4,519494	2,724	358,3548	-0,77	82,801	0	1010,34	5,8	7,8	7,7	1	1	1	1	1	1	1	1	1	0	1	-8,949965	273,172086	306,789111	0
15.01.2021	04:54:32	0	0	4,519467	2,7045	8,6004	-0,775	82,8	0	1010,24	5,8	8	7,8	1	1	1	1	1	1	1	1	1	0	1	-1,973221	273,256169	314,154776	0
15.01.2021	04:54:33	0	0	3,615595	2,601	13,9212	-0,772	82,817	0	1010,44	5,8	8	7,7	1	1	1	1	1	1	1	1	1	0	1	-5,84919	273,197699	310,008321	0
15.01.2021	04:54:34	0	0	4,40648	2,49375	13,9176	-0,774	82,816	0	1010,34	5,8	7,8	7,8	1	1	1	1	1	1	1	1	1	0	1	-4,933051	273,244746	311,142089	0
15.01.2021	04:54:35	0	0	4,40648	2,502	16,4988	-0,768	82,817	0	1010,42	5,9	7,8	7,8	1	1	1	1	1	1	1	1	1	0	1	-5,84919	273,229051	310,153336	0
15.01.2021	04:54:36	0	0	4,06752	2,66775	7,1352	-0,766	82,818	0	1010,44	5,8	8	7,8	1	1	1	1	1	1	1	1	1	0	1	-5,21494	273,129473	310,327168	0
15.01.2021	04:54:37	0	0	4,519494	2,793	17,154	-0,767	82,806	0	1010,44	5,8	7,8	7,7	1	1	1	1	1	1	1	1	1	0	1	-2,959831	273,260454	313,187996	0
15.01.2021	04:54:38	0	0	3,841547	2,7705	345,3948	-0,773	82,813	0	1010,52	5,8	7,8	7,8	1	1	1	1	1	1	1	1	1	0	1	-4,580691	273,189157	311,23732	0
15.01.2021	04:54:39	0	0	5,0844	2,88525	352,8144	-0,77	82,807	0	1010,34	5,9	8	7,8	1	1	1	1	1	1	1	1	1	0	1	-1,973221	273,259025	314,167996	0
15.01.2021	04:54:40	0	0	3,84157	3,393	5,6844	-0,772	82,82	0	1010,44	5,8	8	7,7	1	1	1	1	1	1	1	1	1	0	1	-7,188161	273,20482	308,702283	0
15.01.2021	04:54:41	0	0	2,71168	3,82275	21,384	-0,772	82,814	0	1010,26	5,9	7,8	7,8	1	1	1	1	1	1	1	1	1	0	1	-5,84919	273,109619	309,601182	0
15.01.2021	04:54:42	0	0	3,72856	3,978	9,3744	-0,77	82,816	0	1010,32	5,8	8	7,8	1	1	1	1	1	1	1	1	1	0	1	-1,338971	273,263311	314,82208	0
15.01.2021	04:54:43	0	0	5,0844	3,735	6,8184	-0,77	82,82	0	1010,38	5,8	8	7,8	1	1	1	1	1	1	1	1	1	0	1	-8,033827	273,184888	307,764442	0
15.01.2021	04:54:44	0	0	4,06752	3,19575	348,2388	-0,769	82,831	0	1010,48	5,8	8	7,8	1	1	1	1	1	1	1	1	1	0	1	-0,845666	273,260454	315,302161	0
15.01.2021	04:54:45	0	0	4,293519	2,8335	18,0756	-0,771	82,805	0	1010,28	5,8	7,8	7,7	1	1	1	1	1	1	1	1	1	0	1	-2,536998	273,183465	313,254692	0
15.01.2021	04:54:46	0	0	3,05064	2,82225	0,864	-0,768	82,83	0	1010,42	5,8	7,8	7,8	1	1	1	1	1	1	1	1	1	0	1	-0	272,993743	314,915353	0
15.01.2021	04:54:47	0	0	4,632453	3,258	8,9892	-0,769	82,83	0	1010,36	5,8	7,8	7,8	1	1	1	1	1	1	1	1	1	0	1	-4,651163	273,227625	311,344765	0
15.01.2021	04:54:48	0	0	4,180532	3,558	10,0656	-0,771	82,828	0	1010,4	5,9	8	7,7	1	1	1	1	1	1	1	1	1	0	1	-4,439746	273,123798	311,07614	0
15.01.2021	04:54:49	0	0	2,598709	3,65325	8,2728	-0,776	82,824	0	1010,36	5,8	7,8	7,7	1	1	1	1	1	1	1	1	1	0	1	-6,412967	273,257597	309,721639	0
15.01.2021	04:54:50	0	0	4,858427	3,51525	359,082	-0,77	82,829	0	1010,42	5,9	8	7,8	1	1	1	1	1	1	1	1	1	0	1	-10,923185	273,170664	304,809316	0
15.01.2021	04:54:51	0	0	5,53638	3,70275	12,1068	-0,768	82,826	0	1010,42	5,8	7,8	7,7	1	1	1	1	1	1	1	1	1	0	1	-9,513742	273,274745	306,700227	0
15.01.2021	04:54:52	0	0	3,72856	3,6795	16,8588	-0,764	82,83	0	1010,38	5,9	7,8	7,8	1	1	1	1	1	1	1	1	1	0	1	-5,496829	273,230477	310,512295	0
15.01.2021	04:54:53	0	0	2,146747	3,47775	14,6448	-0,772	82,814	0	1010,34	5,8	8	7,8	1	1	1	1	1	1	1	1	1	0	1	-9,372798	273,106784	306,064478	0
15.01.2021	04:54:54	0	0	3,841547	3,25425	20,2932	-0,776	82,834	0	1010,46	5,9	8	7,8	1	1	1	1	1	1	1	1	1	0	1	-5,919662	273,112454	309,543808	0
15.01.2021	04:54:55	0	0	2,598693	3,309	6,444	-0,773	82,829	0	1010,4	5,8	8	7,8	1	1	1	1	1	1	1	1	1	0	1	-0,704722	273,196275	315,146204	0
15.01.2021	04:54:56	0	0	3,841547	3,3435	19,53	-0,769	82,843	0	1010,48	5,9	8	7,8	1	1	1	1	1	1	1	1	1	0	1	-2,255109	273,086954	313,09056	0
15.01.2021	04:54:57	0	0	3,276613	3,231	18,0828	-0,769	82,83	0	1010,52	5,7	7,9	7,8	1	1	1	1	1	1	1	1	1	0	1	-6,694856	273,170664	309,037646	0
15.01.2021	04:54:58	0	0	2,598693	3,093	0,8784	-0,773	82,827	0	1010,56	5,9	7,8	7,8	1	1	1	1	1	1	1	1	1	0	1	-3,030303	273,257597	313,104303	0
15.01.2021	04:54:59	0	0	4,971413	3,26625	18,4464	-0,769	82,848	0	1010,52	5,9	7,8	7,8	1	1	1	1	1	1	1	1	1	0	1	-3,030303	273,098283	312,367699	0
15.01.2021	04:55:00	0	0	4,519494	3,504	11,718	-0,766	82,841	0	1010,5	5,9	8	7,7	1	1	1	1	1	1	1	1	1	0	1	-3,664553	273,084123	311,66804	0
15.01.2021	04:55:01	0	0	4,519494	3,504	11,718	-0,766	82,841	0	1010,5	5,9	8	7,7	1	1	1	1	1	1	1	1	1	0	1	-3,664553	273,084123	311,66804	0
15.01.2021	04:55:02	0	0	2,71168	3,378	12,474	-0,773	82,843	0	1010,32	5,8	7,8	7,8	1	1	1	1	1	1	1	1	1	0	1	-5,21494	273,157871	310,458421	0
15.01.2021	04:55:03	0	0	4,293519	3,1995	9,756	-0,77	82,829	0	1010,46	5,9	7,8	7,7	1	1	1	1	1	1	1	1	1	0	1	-5,355884	273,259025	310,785332	0
15.01.2021	04:55:04	0	0	3,050658	3,138	6,0696	-0,778	82,835	0	1010,32	5,9	8	7,7	1	1	1	1	1	1	1	1	1	0	1	-6,483439	273,177775	309,281939	0
15.01.2021	04:55:05	0	0	4,180507	3,07275	5,6844	-0,765	82,848	0	1010,46	5,8	8	7,8	1	1	1	1	1	1	1	1	1	0	1	-8,668076	273,263311	307,492975	0
15.01.2021	04:55:06	0	0	4,519467	3,0315	359,8128	-0,767	82,851	0	1010,42	5,8	8	7,8	1	1	1	1	1	1	1	1	1	0	1	-3,523608	273,533822	313,891208	0
15.01.2021	04:55:07	0	0	3,276633	3,0825	4,464	-0,766	82,835	0	1010,34	5,8	8	7,7	1	1	1	1	1	1	1	1	1	0	1	-3,382664	273,20482	312,507779	0
15.01.2021	04:55:08	0	0	3,3896	3,228	1,1952	-0,765	82,843	0	1010,46	5,7	8	7,8	1	1	1	1	1	1	1	1	1	0	1	-3,523608	273,231904	312,492114	0
15.01.2021	04:55:09	0	0	3,276633	3,33525	359,4276	-0,769	82,843	0	1010,38	5,9	8	7,7	1	1	1	1	1	1	1	1	1	0	1	-1,761804	273,186311	314,043045	0
15.01.2021	04:55:10	0	0	4,519467	3,2325	354,2292	-0,77	82,85	0	1010,34	5,8	8	7,8	1	1	1	1	1	1	1	1	1	0	1	-6,8358	273,251884	309,272371	0
15.01.2021	04:55:11	0	0	3,841547	3,0555	5,6772	-0,769	82,829	0	1010,34	5,8	7,8	7,8	1	1	1	1	1	1	1	1	1	0	1	-3,030303	273,187734	312,781127	0
15.01.2021	04:55:12	0	0	2,598693	2,80425	2,6316	-0,765	82,84	0	1010,44	5,9	7,8	7,8	1	1	1	1	1	1	1	1	1	0	1	-4,792107	273,249029	311,30285	0
15.01.2021	04:55:13	0	0	3,841547	2,7495	5,6664	-0,771	82,843	0	1010,32	5,8	8	7,8	1	1	1	1	1	1	1	1	1	0	1	-4,22833	273,199123	311,635766	0
15.01.2021	04:55:14	0	0	4,293493	2,88075	8,604	-0,776	82,842	0	1010,36	5,9	7,8	7,8	1	1	1	1	1	1	1	1	1	0	1	-9,090909	273,261883	307,063529	0
15.01.2021	04:55:15	0	0	2,71168	3,1305	6,066	-0,771	82,85	0	1010,38	5,9	8	7,8	1	1	1	1	1	1	1	1	1	0	1	-4,721635	273,206245	311,175397	0
15.01.2021	04:55:16	0	0	2,937653	3,474	10,44	-0,766	82,844	0	1010,42	5,8	8	7,8	1	1	1	1	1	1	1	1	1	0	1	-8,174771	273,145086	307,439497	0
15.01.2021	04:55:17	0	0	2,485707	3,819	5,2164	-0,768	82,834	0	1010,28	5,9	7,8	7,8	1	1	1	1	1	1	1	1	1	0	1	-4,580691	273,086954	310,764979	0
15.01.2021	04:55:18	0	0	4,180507	4,08825	13,536	-0,767	82,829	0	1010,38	5,9	8	7,8	1	1	1	1	1	1	1	1	1	0	1	-3,030303	273,16782	312,689052	0
15.01.2021	04:55:19	0	0	2,937653	4,12125	6,8112	-0,768	82,845	0	1010,52	5,9	7,9	7,8	1	1	1	1	1	1	1	1	1	0	1	-3,523608	273,09545	311,861307	0
15.01.2021	04:55:20	0	0	4,858456	4,11825	13,5432	-0,765	82,843	0	1010,5	5,8	7,9	7,7	1	1	1	1	1	1	1	1	1	0	1	-2,536998	273,201971	313,340271	0
15.01.2021	04:55:21	0	0	4,632453	3,86625	7,5168	-0,771	82,845	0	1010,38	5,8	7,8	7,8	1	1	1	1	1	1	1	1	1	0	1	-3,805497	273,072802	311,47481	0
15.01.2021	04:55:22	0	0	3,502587	3,55725	7,506	-0,768	82,843	0	1010,54	5,8	8	7,8	1	1	1	1	1	1	1	1	1	0	1	-6,483439	273,140827	309,111142	0
15.01.2021	04:55:23	0	0	4,293493	3,38025	359,8128	-0,767	82,847	0	1010,46	5,8	8	7,8	1	1	1	1	1	1	1	1	1	0	1	-5,708245	273,372208	310,957074	0
15.01.2021	04:55:24	0	0	2,598693	3,1425	360	-0,768	82,832	0	1010,26	5,9	7,8	7,8	1	1	1	1	1	1	1	1	1	0	1	-3,312192	273,254741	312,809195	0
15.01.2021	04:55:25	0	0	4,74544	3,1095	359,3772	-0,77	82,849	0	1010,42	5,9	7,9	7,8	1	1	1	1	1	1	1	1	1	0	1	-3,24172	273,211944	312,681671	0
15.01.2021	04:55:26	0	0	3,84157	3,35625	5,2236	-0,766	82,826	0	1010,4	5,8	8	7,7	1	1	1	1	1	1	1	1	1	0	1	-0,352361	273,082707	314,973694	0
15.01.2021	04:55:27	0	0	4,40648	3,5925	0,1188	-0,764	82,843	0	1010,58	5,8	8	7,8	1	1	1	1	1	1	1	1	1	0	1	-2,889359	273,135149	312,678981	0
15.01.2021	04:55:28	0	0	2,937653	3,7575	10,0512	-0,772	82,844	0	1010,16	5,8	7,9	7,8	1	1	1	1	1	1	1	1	1	0	1	-1,62086	273,152188	314,026232	0
15.01.2021	04:55:29	0	0	3,3896	3,5355	10,8216	-0,772	82,855	0	1010,3	5,8	8	7,8	1	1	1	1	1	1	1	1	1	0	1	-7,892882	273,244746	308,182258	0
15.01.2021	04:55:30	0	0	5,310405	3,49875	7,524	-0,769	82,854	0	1010,4	5,8	8	7,7	1	1	1	1	1	1	1	1	1	0	1	-6,20155	273,199123	309,662546	0
15.01.2021	04:55:31	0	0	3,841547	3,49425	11,7288	-0,766	82,851	0	1010,48	5,9	8	7,8	1	1	1	1	1	1	1	1	1	0	1	-3,453136	273,094034	311,925237	0
15.01.2021	04:55:32	0	0	3,72856	3,4785	19,1556	-0,769	82,842	0	1010,38	5,8	8	7,8	1	1	1	1	1	1	1	1	1	0	1	-3,100775	273,098283	312,297227	0
15.01.2021	04:55:33	0	0	3,615573	3,2265	9,756	-0,771	82,85	0	1010,32	5,9	8	7,8	1	1	1	1	1	1	1	1	1	0	1	-6,412967	273,23761	309,629158	0
15.01.2021	04:55:34	0	0	3,276613	3,18375	2,6568	-0,767	82,851	0	1010,48	5,8	8	7,8	1	1	1	1	1	1	1	1	1	0	1	-3,523608	273,094034	311,854765	0
15.01.2021	04:55:35	0	0	3,163627	3,2355	350,28	-0,771	82,829	0	1010,4	5,9	8	7,8	1	1	1	1	1	1	1	1	1	0	1	-1,832276	273,214794	314,104298	0
15.01.2021	04:55:36	0	0	4,858427	3,51675	8,2692	-0,767	82,83	0	1010,48	5,8	8	7,8	1	1	1	1	1	1	1	1	1	0	1	-1,268499	273,261883	314,88594	0
15.01.2021	04:55:37	0	0	2,598693	3,46125	19,5228	-0,766	82,858	0	1010,44	5,8	7,8	7,8	1	1	1	1	1	1	1	1	1	0	1	-3,735025	273,152188	311,912067	0
15.01.2021	04:55:38	0	0	2,937653	3,387	17,2188	-0,767	82,841	0	1010,46	5,9	8	7,8	1	1	1	1	1	1	1	1	1	0	1	-2,959831	273,260454	313,187996	0
15.01.2021	04:55:39	0	0	4,858427	3,222	12,852	-0,77	82,841	0	1010,26	5,9	8	7,8	1	1	1	1	1	1	1	1	1	0	1	-6,272023	273,234757	309,7569	0
15.01.2021	04:55:40	0	0	4,06752	3,0405	12,0996	-0,766	82,849	0	1010,48	5,8	8	7,8	1	1	1	1	1	1	1	1	1	0	1	-5,144468	273,193428	310,69329	0
15.01.2021	04:55:41	0	0	4,180507	2,9415	9,3816	-0,768	82,847	0	1010,4	5,7	7,9	7,8	1	1	1	1	1	1	1	1	1	0	1	-6,8358	273,267598	309,345091	0
15.01.2021	04:55:42	0	0	3,954533	2,87625	7,1424	-0,767	82,836	0	1010,3	5,9	8	7,8	1	1	1	1	1	1	1	1	1	0	1	-0	273,16782	315,719355	0
15.01.2021	04:55:43	0	0	2,485707	2,75475	7,8912	-0,766	82,834	0	1010,38	5,8	8	7,8	1	1	1	1	1	1	1	1	1	0	1	-0	273,256169	316,127996	0
15.01.2021	04:55:44	0	0	2,937671	2,7075	8,9928	-0,77	82,854	0	1010,56	5,8	7,8	7,7	1	1	1	1	1	1	1	1	1	0	1	-5,778717	273,111036	309,678203	0
15.01.2021	04:55:45	0	0	4,40648	2,829	10,0692	-0,768	82,849	0	1010,3	5,9	7,8	7,8	1	1	1	1	1	1	1	1	1	0	1	-6,412967	273,155029	309,247258	0
15.01.2021	04:55:46	0	0	2,598693	3,0735	4,0896	-0,77	82,85	0	1010,48	5,7	7,9	7,8	1	1	1	1	1	1	1	1	1	0	1	-3,382664	273,256169	312,745332	0
15.01.2021	04:55:47	0	0	3,841547	3,1995	17,3376	-0,762	82,847	0	1010,5	5,8	8	7,8	1	1	1	1	1	1	1	1	1	0	1	-1,832276	273,157871	313,841085	0
15.01.2021	04:55:48	0	0	4,293493	3,2295	18,8388	-0,764	82,851	0	1010,4	5,8	8	7,8	1	1	1	1	1	1	1	1	1	0	1	-8,738548	273,08837	306,613661	0
15.01.2021	04:55:49	0	0	4,40648	3,08175	14,3064	-0,766	82,858	0	1010,38	5,8	8	7,8	1	1	1	1	1	1	1	1	1	0	1	-4,933051	273,160713	310,753448	0
15.01.2021	04:55:50	0	0	4,632453	3,0495	20,2716	-0,766	82,831	0	1010,4	5,8	7,9	7,8	1	1	1	1	1	1	1	1	1	0	1	-5,990134	273,257597	310,144472	0
15.01.2021	04:55:51	0	0	3,841547	2,9115	14,4	-0,767	82,836	0	1010,48	5,7	7,9	7,8	1	1	1	1	1	1	1	1	1	0	1	-7,963354	273,199123	307,900741	0
15.01.2021	04:55:52	0	0	2,598693	2,84325	2,6496	-0,771	82,832	0	1010,48	5,7	8	7,8	1	1	1	1	1	1	1	1	1	0	1	-5,84919	273,229051	310,153336	0
15.01.2021	04:55:53	0	0	2,937653	2,84325	4,0968	-0,768	82,845	0	1010,48	5,8	8	7,8	1	1	1	1	1	1	1	1	1	0	1	-8,033827	273,257597	308,100779	0
15.01.2021	04:55:54	0	0	5,0844	2,68125	359,442	-0,766	82,84	0	1010,34	5,8	8	7,8	1	1	1	1	1	1	1	1	1	0	1	-4,22833	273,256169	311,899666	0
15.01.2021	04:55:55	0	0	4,74544	2,54025	1,926	-0,775	82,839	0	1010,36	5,9	8	7,8	1	1	1	1	1	1	1	1	1	0	1	-0	273,113871	315,470019	0
15.01.2021	04:55:56	0	0	2,937653	2,47125	7,1388	-0,767	82,844	0	1010,42	5,9	7,9	7,8	1	1	1	1	1	1	1	1	1	0	1	-1,62086	273,216219	314,322307	0
15.01.2021	04:55:57	0	0	3,954533	2,41725	3,762	-0,769	82,837	0	1010,26	5,8	7,8	7,8	1	1	1	1	1	1	1	1	1	0	1	-5,21494	273,254741	310,906447	0
15.01.2021	04:55:58	0	0	3,72856	2,37225	7,1496	-0,761	82,845	0	1010,52	5,7	7,9	7,8	1	1	1	1	1	1	1	1	1	0	1	-5,144468	273,193428	310,69329	0
15.01.2021	04:55:59	0	0	2,937653	2,175	352,494	-0,763	82,847	0	1010,56	5,8	8	7,8	1	1	1	1	1	1	1	1	1	0	1	-0	273,271886	316,200736	0
15.01.2021	04:56:00	0	0	4,632453	2,42175	359,8344	-0,761	82,85	0	1010,48	5,8	8	7,8	1	1	1	1	1	1	1	1	1	0	1	-3,946441	273,263311	312,214609	0
15.01.2021	04:56:01	0	0	4,632453	2,42175	359,8344	-0,761	82,85	0	1010,48	5,8	8	7,8	1	1	1	1	1	1	1	1	1	0	1	-3,946441	273,263311	312,214609	0
15.01.2021	04:56:02	0	0	3,276613	2,47875	9,7272	-0,768	82,836	0	1010,3	5,9	8	7,8	1	1	1	1	1	1	1	1	1	0	1	-4,721635	273,149347	310,912325	0
15.01.2021	04:56:03	0	0	4,180532	2,82525	11,7108	-0,774	82,842	0	1010,44	5,7	7,9	7,7	1	1	1	1	1	1	1	1	1	0	1	-4,510218	273,106784	310,927057	0
15.01.2021	04:56:04	0	0	4,858427	3,08025	5,2164	-0,773	82,84	0	1010,4	5,8	7,9	7,8	1	1	1	1	1	1	1	1	1	0	1	-1,479915	273,239037	314,568811	0
15.01.2021	04:56:05	0	0	4,971413	3,1725	18,8352	-0,769	82,837	0	1010,54	5,8	8	7,8	1	1	1	1	1	1	1	1	1	0	1	-6,906272	273,269027	309,281233	0
15.01.2021	04:56:06	0	0	2,937653	3,1665	12,1032	-0,77	82,902	0	1010,46	5,8	8	7,8	1	1	1	1	1	1	1	1	1	0	1	-4,439746	273,109619	311,010625	0
15.01.2021	04:56:07	0	0	4,632453	3,28575	15,786	-0,764	82,839	0	1010,2	5,8	7,9	7,8	1	1	1	1	1	1	1	1	1	0	1	-3,171247	273,216219	312,771919	0
15.01.2021	04:56:08	0	0	3,502587	3,1725	13,5432	-0,766	82,848	0	1010,4	5,8	8	7,8	1	1	1	1	1	1	1	1	1	0	1	-7,117689	273,26474	309,049975	0
15.01.2021	04:56:09	0	0	3,841547	2,9745	15,4188	-0,765	82,857	0	1010,48	5,8	7,9	7,8	1	1	1	1	1	1	1	1	1	0	1	-4,792107	273,194851	311,052235	0
15.01.2021	04:56:10	0	0	4,858427	2,8815	13,914	-0,775	82,837	0	1010,26	5,8	8	7,8	1	1	1	1	1	1	1	1	1	0	1	-6,272023	273,249029	309,822934	0
15.01.2021	04:56:11	0	0	5,310373	2,96625	13,1652	-0,766	82,848	0	1010,38	5,8	7,9	7,8	1	1	1	1	1	1	1	1	1	0	1	-6,483439	273,16782	309,235916	0
15.01.2021	04:56:12	0	0	4,40648	2,97975	12,8772	-0,775	82,84	0	1010,38	5,9	7,9	7,8	1	1	1	1	1	1	1	1	1	0	1	-4,369274	273,253312	311,745504	0
15.01.2021	04:56:13	0	0	3,276613	2,92875	6,0624	-0,772	82,848	0	1010,36	5,8	7,8	7,8	1	1	1	1	1	1	1	1	1	0	1	-1,832276	273,102533	313,58536	0
15.01.2021	04:56:14	0	0	2,824667	2,80875	1,5588	-0,769	82,846	0	1010,42	5,8	8	7,8	1	1	1	1	1	1	1	1	1	0	1	-3,664553	273,153608	311,989105	0
15.01.2021	04:56:15	0	0	3,05064	2,80275	360	-0,767	82,83	0	1010,4	5,9	7,9	7,8	1	1	1	1	1	1	1	1	1	0	1	-7,329105	273,259025	308,812111	0
15.01.2021	04:56:16	0	0	2,824667	2,79225	359,9388	-0,766	82,847	0	1010,46	5,8	7,9	7,8	1	1	1	1	1	1	1	1	1	0	1	-5,21494	273,17493	310,537285	0
15.01.2021	04:56:17	0	0	2,485707	2,79675	0,8676	-0,762	82,863	0	1010,46	5,9	7,9	7,8	1	1	1	1	1	1	1	1	1	0	1	-0,563777	273,253312	315,551001	0
15.01.2021	04:56:18	0	0	3,05064	2,9115	359,7876	-0,764	82,845	0	1010,28	5,8	7,9	7,8	1	1	1	1	1	1	1	1	1	0	1	-6,906272	273,159292	308,773658	0
15.01.2021	04:56:19	0	0	3,841547	3,003	9,3528	-0,775	82,831	0	1010,24	5,8	7,9	7,8	1	1	1	1	1	1	1	1	1	0	1	-3,664553	273,243319	312,403983	0
15.01.2021	04:56:20	0	0	4,40648	3,05025	10,9188	-0,771	82,841	0	1010,46	5,8	7,9	7,8	1	1	1	1	1	1	1	1	1	0	1	-2,325581	273,112454	313,137888	0
15.01.2021	04:56:21	0	0	3,276613	3,342	5,2056	-0,754	82,856	0	1010,48	5,8	7,8	7,8	1	1	1	1	1	1	1	1	1	0	1	-1,479915	273,20482	314,410528	0
15.01.2021	04:56:22	0	0	4,971413	3,52275	11,7144	-0,768	82,851	0	1010,34	5,8	7,9	7,8	1	1	1	1	1	1	1	1	1	0	1	-3,382664	273,234757	312,646258	0
15.01.2021	04:56:23	0	0	2,71168	3,63975	7,1424	-0,767	82,845	0	1010,4	5,7	7,9	7,8	1	1	1	1	1	1	1	1	1	0	1	-0,422833	273,129473	315,119275	0
15.01.2021	04:56:24	0	0	3,163627	3,88875	13,932	-0,775	82,853	0	1010,48	5,8	7,9	7,8	1	1	1	1	1	1	1	1	1	0	1	-4,933051	273,086954	310,412618	0
15.01.2021	04:56:25	0	0	3,72856	3,8925	18,8388	-0,774	82,833	0	1010,38	5,8	7,9	7,8	1	1	1	1	1	1	1	1	1	0	1	-6,483439	273,23333	309,538883	0
15.01.2021	04:56:26	0	0	2,824667	3,85875	13,9356	-0,771	82,839	0	1010,36	5,9	7,9	7,8	1	1	1	1	1	1	1	1	1	0	1	-4,087385	273,192004	311,74379	0
15.01.2021	04:56:27	0	0	3,276613	3,96675	14,6664	-0,766	82,855	0	1010,42	5,8	7,9	7,8	1	1	1	1	1	1	1	1	1	0	1	-2,818887	273,085538	312,520244	0
15.01.2021	04:56:28	0	0	4,40648	3,771	9,756	-0,771	82,847	0	1010,4	5,8	7,9	7,8	1	1	1	1	1	1	1	1	1	0	1	-9,654686	273,214794	306,281887	0
15.01.2021	04:56:29	0	0	3,954557	3,4395	10,8216	-0,769	82,853	0	1010,44	5,8	7,9	7,7	1	1	1	1	1	1	1	1	1	0	1	-0,916138	273,246173	315,165607	0
15.01.2021	04:56:30	0	0	4,180507	3,17625	13,9284	-0,764	82,849	0	1010,3	5,8	7,9	7,8	1	1	1	1	1	1	1	1	1	0	1	-1,409443	273,244746	314,665697	0
15.01.2021	04:56:31	0	0	3,615573	3,09075	14,6592	-0,768	82,841	0	1010,44	5,8	7,9	7,8	1	1	1	1	1	1	1	1	1	0	1	-5,073996	273,143666	310,533709	0
15.01.2021	04:56:32	0	0	3,841547	2,95425	13,1688	-0,773	82,857	0	1010,44	5,8	7,9	7,8	1	1	1	1	1	1	1	1	1	0	1	-6,272023	273,084123	309,06057	0
15.01.2021	04:56:33	0	0	3,3896	2,98275	12,4632	-0,767	82,845	0	1010,4	5,8	7,9	7,8	1	1	1	1	1	1	1	1	1	0	1	-0	273,217644	315,949759	0
15.01.2021	04:56:34	0	0	4,632453	3,051	10,4544	-0,767	82,838	0	1010,42	5,8	7,9	7,8	1	1	1	1	1	1	1	1	1	0	1	-4,580691	273,106784	310,856585	0
15.01.2021	04:56:35	0	0	4,519467	3,00975	7,5096	-0,768	82,85	0	1010,38	5,8	7,9	7,8	1	1	1	1	1	1	1	1	1	0	1	-7,117689	273,269027	309,069816	0
15.01.2021	04:56:36	0	0	4,858427	3,03675	4,8456	-0,765	82,845	0	1010,28	5,8	7,9	7,8	1	1	1	1	1	1	1	1	1	0	1	-5,637773	273,159292	310,042157	0
15.01.2021	04:56:37	0	0	2,598693	2,94375	0,5112	-0,769	82,855	0	1010,32	5,9	7,9	7,8	1	1	1	1	1	1	1	1	1	0	1	-3,664553	273,250457	312,437011	0
15.01.2021	04:56:38	0	0	2,259733	2,87625	3,7656	-0,768	82,846	0	1010,46	5,8	7,9	7,8	1	1	1	1	1	1	1	1	1	0	1	-5,144468	273,135149	310,423872	0
15.01.2021	04:56:39	0	0	3,276613	2,79225	2,304	-0,764	82,854	0	1010,48	5,8	7,9	7,8	1	1	1	1	1	1	1	1	1	0	1	-6,20155	273,106784	309,235725	0
15.01.2021	04:56:40	0	0	4,74544	2,68575	8,2656	-0,768	82,833	0	1010,3	5,7	7,9	7,8	1	1	1	1	1	1	1	1	1	0	1	-2,889359	273,147927	312,738037	0
15.01.2021	04:56:41	0	0	4,632481	2,57475	8,262	-0,766	82,848	0	1010,56	5,7	8	7,7	1	1	1	1	1	1	1	1	1	0	1	-6,906272	273,101116	308,504819	0
15.01.2021	04:56:42	0	0	4,40648	2,5335	13,2516	-0,76	82,854	0	1010,38	5,8	7,9	7,8	1	1	1	1	1	1	1	1	1	0	1	-3,312192	273,241891	312,74974	0
15.01.2021	04:56:43	0	0	3,841547	2,898	3,78	-0,771	82,836	0	1010,44	5,8	7,9	7,8	1	1	1	1	1	1	1	1	1	0	1	-5,073996	273,17493	310,67823	0
15.01.2021	04:56:44	0	0	2,598709	3,22875	13,914	-0,764	82,842	0	1010,48	5,8	7,9	7,7	1	1	1	1	1	1	1	1	1	0	1	-1,198027	273,084123	314,134566	0
15.01.2021	04:56:45	0	0	2,937653	3,3375	10,8216	-0,77	82,84	0	1010,4	5,8	7,9	7,8	1	1	1	1	1	1	1	1	1	0	1	-4,016913	273,194851	311,827428	0
15.01.2021	04:56:46	0	0	2,598693	3,22575	12,8556	-0,774	82,833	0	1010,44	5,7	7,9	7,8	1	1	1	1	1	1	1	1	1	0	1	-5,003524	273,092618	310,368307	0
15.01.2021	04:56:47	0	0	4,971413	3,0165	14,2848	-0,774	82,826	0	1010,48	5,8	7,9	7,8	1	1	1	1	1	1	1	1	1	0	1	-5,567301	273,216219	310,375865	0
15.01.2021	04:56:48	0	0	3,502587	2,937	3,4164	-0,766	82,858	0	1010,34	5,8	7,9	7,8	1	1	1	1	1	1	1	1	1	0	1	-2,536998	273,089786	312,821751	0
15.01.2021	04:56:49	0	0	4,858427	3,07275	17,2224	-0,773	82,848	0	1010,44	5,7	7,9	7,8	1	1	1	1	1	1	1	1	1	0	1	-3,664553	273,0997	311,739993	0
15.01.2021	04:56:50	0	0	3,72856	2,95875	7,8768	-0,77	82,849	0	1010,32	5,8	7,9	7,8	1	1	1	1	1	1	1	1	1	0	1	-5,778717	273,200547	310,091965	0
15.01.2021	04:56:51	0	0	4,180507	3,09375	360	-0,773	82,853	0	1010,26	5,8	7,9	7,8	1	1	1	1	1	1	1	1	1	0	1	-0	273,0997	315,404546	0
15.01.2021	04:56:52	0	0	2,937653	3,40725	9,7488	-0,763	82,86	0	1010,36	5,8	8	7,8	1	1	1	1	1	1	1	1	1	0	1	-4,298802	273,194851	311,54554	0
15.01.2021	04:56:53	0	0	3,728582	3,43125	4,4748	-0,764	82,837	0	1010,38	5,8	7,9	7,7	1	1	1	1	1	1	1	1	1	0	1	-5,567301	273,10395	309,856881	0
15.01.2021	04:56:54	0	0	2,824667	3,65925	4,824	-0,768	82,857	0	1010,34	5,8	7,9	7,8	1	1	1	1	1	1	1	1	1	0	1	-4,298802	273,112454	311,164668	0
15.01.2021	04:56:55	0	0	4,06752	3,89625	8,2548	-0,769	82,855	0	1010,48	5,8	7,9	7,8	1	1	1	1	1	1	1	1	1	0	1	-8,245243	273,126635	307,283753	0
15.01.2021	04:56:56	0	0	2,598693	3,69975	10,8252	-0,766	82,857	0	1010,46	5,8	7,9	7,8	1	1	1	1	1	1	1	1	1	0	1	-9,372798	273,246173	306,708947	0
15.01.2021	04:56:57	0	0	3,3896	3,31125	23,9724	-0,765	82,868	0	1010,48	5,8	7,9	7,8	1	1	1	1	1	1	1	1	1	0	1	-6,765328	273,172086	308,973748	0
15.01.2021	04:56:58	0	0	3,163627	3,10725	24,3396	-0,769	82,859	0	1010,52	5,8	7,9	7,8	1	1	1	1	1	1	1	1	1	0	1	-5,708245	273,086954	309,637424	0
15.01.2021	04:56:59	0	0	3,163627	3,08625	15,0264	-0,762	82,844	0	1010,54	5,8	7,9	7,8	1	1	1	1	1	1	1	1	1	0	1	-3,382664	273,082707	311,943391	0
15.01.2021	04:57:00	0	0	4,971413	3,41025	20,2932	-0,763	82,859	0	1010,46	5,8	7,9	7,8	1	1	1	1	1	1	1	1	1	0	1	-6,765328	273,086954	308,580342	0
15.01.2021	04:57:01	0	0	4,971413	3,41025	20,2932	-0,763	82,859	0	1010,46	5,8	7,9	7,8	1	1	1	1	1	1	1	1	1	0	1	-6,765328	273,086954	308,580342	0
15.01.2021	04:57:02	0	0	3,3896	3,2985	23,2236	-0,757	82,863	0	1010,34	5,8	7,9	7,8	1	1	1	1	1	1	1	1	1	0	1	-3,312192	273,128054	312,22336	0
15.01.2021	04:57:03	0	0	4,632453	3,063	18,8352	-0,763	82,844	0	1010,36	5,8	7,9	7,8	1	1	1	1	1	1	1	1	1	0	1	-4,016913	273,135149	311,551427	0
15.01.2021	04:57:04	0	0	3,72856	2,9535	2,6388	-0,765	82,863	0	1010,48	5,8	7,9	7,8	1	1	1	1	1	1	1	1	1	0	1	-4,439746	273,078461	310,866699	0
15.01.2021	04:57:05	0	0	3,72856	3,09975	8,2548	-0,766	82,841	0	1010,38	5,8	7,9	7,8	1	1	1	1	1	1	1	1	1	0	1	-4,651163	273,13231	310,90406	0
15.01.2021	04:57:06	0	0	3,163627	3,093	4,086	-0,765	82,861	0	1010,5	5,8	7,9	7,8	1	1	1	1	1	1	1	1	1	0	1	-2,396054	273,281895	313,851008	0
15.01.2021	04:57:07	0	0	2,824667	2,90925	5,22	-0,763	82,868	0	1010,52	5,8	7,9	7,8	1	1	1	1	1	1	1	1	1	0	1	-5,426357	273,251884	310,681814	0
15.01.2021	04:57:08	0	0	2,937671	2,7795	16,0956	-0,768	82,858	0	1010,36	5,8	7,9	7,7	1	1	1	1	1	1	1	1	1	0	1	-6,694856	273,120961	308,807923	0
15.01.2021	04:57:09	0	0	4,06752	2,625	18,0792	-0,765	82,87	0	1010,48	5,8	7,9	7,8	1	1	1	1	1	1	1	1	1	0	1	-4,510218	273,137988	311,071241	0
15.01.2021	04:57:10	0	0	2,824667	2,5455	13,9212	-0,764	82,864	0	1010,54	5,8	7,9	7,8	1	1	1	1	1	1	1	1	1	0	1	-5,144468	273,089786	310,214281	0
15.01.2021	04:57:11	0	0	4,971413	2,559	19,9044	-0,762	82,856	0	1010,26	5,8	7,9	7,8	1	1	1	1	1	1	1	1	1	0	1	-6,906272	273,243319	309,162264	0
15.01.2021	04:57:12	0	0	2,711696	2,4795	10,0584	-0,771	82,87	0	1010,48	5,8	7,9	7,7	1	1	1	1	1	1	1	1	1	0	1	-6,412967	273,143666	309,194738	0
15.01.2021	04:57:13	0	0	2,937653	2,382	18,4536	-0,773	82,867	0	1010,38	5,8	7,9	7,8	1	1	1	1	1	1	1	1	1	0	1	-1,479915	273,115289	313,996655	0
15.01.2021	04:57:14	0	0	4,067544	2,235	19,5228	-0,763	82,87	0	1010,46	5,8	7,9	7,7	1	1	1	1	1	1	1	1	1	0	1	-4,651163	273,159292	311,028767	0
15.01.2021	04:57:15	0	0	3,72856	2,166	354,006	-0,765	82,863	0	1010,56	5,8	7,9	7,8	1	1	1	1	1	1	1	1	1	0	1	-3,946441	273,105367	311,484287	0
15.01.2021	04:57:16	0	0	4,858427	2,2905	7,506	-0,766	82,864	0	1010,52	5,8	7,9	7,8	1	1	1	1	1	1	1	1	1	0	1	-8,033827	273,092618	307,338004	0
15.01.2021	04:57:17	0	0	3,276613	2,406	10,4436	-0,761	82,886	0	1010,52	5,8	7,9	7,8	1	1	1	1	1	1	1	1	1	0	1	-4,157858	273,105367	311,272871	0
15.01.2021	04:57:18	0	0	2,937671	2,46	12,078	-0,771	82,858	0	1010,3	5,8	7,9	7,7	1	1	1	1	1	1	1	1	1	0	1	-2,889359	273,207669	313,014262	0
15.01.2021	04:57:19	0	0	3,3896	2,607	8,9928	-0,765	82,879	0	1010,52	5,8	7,9	7,8	1	1	1	1	1	1	1	1	1	0	1	-7,892882	273,113871	307,577137	0
15.01.2021	04:57:20	0	0	3,05064	2,88525	5,2308	-0,772	82,867	0	1010,44	5,8	7,9	7,8	1	1	1	1	1	1	1	1	1	0	1	-4,439746	273,214794	311,496828	0
15.01.2021	04:57:21	0	0	2,71168	3,1905	15,786	-0,766	82,878	0	1010,4	5,8	7,9	7,8	1	1	1	1	1	1	1	1	1	0	1	-4,087385	273,266169	312,086891	0
15.01.2021	04:57:22	0	0	3,050658	3,429	15,4008	-0,765	82,877	0	1010,44	5,8	7,9	7,7	1	1	1	1	1	1	1	1	1	0	1	-3,100775	273,189157	312,717236	0
15.01.2021	04:57:23	0	0	3,954533	3,693	15,0372	-0,761	82,874	0	1010,4	5,8	7,9	7,8	1	1	1	1	1	1	1	1	1	0	1	-3,59408	273,269027	312,593425	0
15.01.2021	04:57:24	0	0	4,519467	3,7995	8,9964	-0,77	82,88	0	1010,3	5,8	7,9	7,8	1	1	1	1	1	1	1	1	1	0	1	-6,342495	273,119543	309,153731	0
15.01.2021	04:57:25	0	0	3,72856	3,66375	0,8784	-0,768	82,87	0	1010,44	5,8	7,9	7,8	1	1	1	1	1	1	1	1	1	0	1	-5,426357	273,251884	310,681814	0
15.01.2021	04:57:26	0	0	3,72856	3,40575	7,128	-0,763	82,879	0	1010,44	5,8	7,9	7,8	1	1	1	1	1	1	1	1	1	0	1	-2,748414	273,118125	312,741259	0
15.01.2021	04:57:27	0	0	3,728582	3,2835	357,588	-0,772	82,876	0	1010,38	5,8	7,9	7,7	1	1	1	1	1	1	1	1	1	0	1	-5,496829	273,119543	309,999397	0
15.01.2021	04:57:28	0	0	3,3896	3,2145	5,2308	-0,763	82,881	0	1010,48	5,8	7,9	7,8	1	1	1	1	1	1	1	1	1	0	1	-2,959831	273,10395	312,464351	0
15.01.2021	04:57:29	0	0	5,42336	3,057	15,0264	-0,764	82,891	0	1010,46	5,8	7,9	7,8	1	1	1	1	1	1	1	1	1	0	1	-5,778717	273,09545	309,606198	0
15.01.2021	04:57:30	0	0	3,615573	2,8335	21,0024	-0,772	82,886	0	1010,46	5,8	7,9	7,8	1	1	1	1	1	1	1	1	1	0	1	-6,131078	273,243319	309,937458	0
15.01.2021	04:57:31	0	0	2,711696	2,697	14,31	-0,764	82,898	0	1010,5	5,8	7,9	7,7	1	1	1	1	1	1	1	1	1	0	1	-5,708245	273,239037	310,340481	0
15.01.2021	04:57:32	0	0	4,858427	2,51175	18,4608	-0,764	82,878	0	1010,42	5,8	7,9	7,8	1	1	1	1	1	1	1	1	1	0	1	-9,654686	273,091201	305,710603	0
15.01.2021	04:57:33	0	0	4,293519	2,4495	7,524	-0,769	82,885	0	1010,28	5,8	7,9	7,7	1	1	1	1	1	1	1	1	1	0	1	-5,637773	273,143666	309,969932	0
15.01.2021	04:57:34	0	0	2,711696	2,676	7,8876	-0,764	82,878	0	1010,56	5,8	7,9	7,7	1	1	1	1	1	1	1	1	1	0	1	-3,875969	273,271886	312,324767	0
15.01.2021	04:57:35	0	0	5,197387	2,67825	15,0228	-0,761	82,885	0	1010,44	5,8	7,9	7,8	1	1	1	1	1	1	1	1	1	0	1	-6,20155	273,163555	309,498089	0
15.01.2021	04:57:36	0	0	4,971413	2,72925	4,842	-0,763	82,88	0	1010,38	5,8	7,9	7,8	1	1	1	1	1	1	1	1	1	0	1	-0,352361	273,08837	314,999848	0
15.01.2021	04:57:37	0	0	2,598709	2,68275	13,1616	-0,764	82,884	0	1010,5	5,8	7,9	7,7	1	1	1	1	1	1	1	1	1	0	1	-3,664553	273,224773	312,318181	0
15.01.2021	04:57:38	0	0	3,954557	2,625	14,2992	-0,767	82,863	0	1010,22	5,8	7,9	7,7	1	1	1	1	1	1	1	1	1	0	1	-5,708245	273,098283	309,689756	0
15.01.2021	04:57:39	0	0	4,519494	2,62275	10,0584	-0,765	82,887	0	1010,42	5,8	7,9	7,7	1	1	1	1	1	1	1	1	1	0	1	-7,117689	273,146506	308,503143	0
15.01.2021	04:57:40	0	0	4,293493	2,68875	5,6916	-0,766	82,868	0	1010,42	5,8	7,9	7,8	1	1	1	1	1	1	1	1	1	0	1	-0	273,091201	315,36529	0
15.01.2021	04:57:41	0	0	2,598709	2,70675	9	-0,764	82,904	0	1010,56	5,8	7,9	7,7	1	1	1	1	1	1	1	1	1	0	1	-6,20155	273,125216	309,32089	0
15.01.2021	04:57:42	0	0	4,406506	2,76	16,8624	-0,763	82,894	0	1010,42	5,7	7,9	7,7	1	1	1	1	1	1	1	1	1	0	1	-3,100775	273,091201	312,264515	0
15.01.2021	04:57:43	0	0	3,841547	2,91525	30,7008	-0,763	82,892	0	1010,44	5,8	7,9	7,8	1	1	1	1	1	1	1	1	1	0	1	-3,946441	273,12238	311,562891	0
15.01.2021	04:57:44	0	0	5,197418	3,08025	27,9864	-0,762	82,895	0	1010,4	5,8	7,9	7,7	1	1	1	1	1	1	1	1	1	0	1	-6,553911	273,243319	309,514625	0
15.01.2021	04:57:45	0	0	3,276633	3,123	19,53	-0,763	82,904	0	1010,5	5,8	7,9	7,7	1	1	1	1	1	1	1	1	1	0	1	-2,748414	273,074217	312,538426	0
15.01.2021	04:57:46	0	0	3,3896	3,3075	16,4772	-0,764	82,897	0	1010,46	5,8	7,9	7,8	1	1	1	1	1	1	1	1	1	0	1	-5,778717	273,15645	309,888075	0
15.01.2021	04:57:47	0	0	4,632453	3,40125	18,4716	-0,765	82,896	0	1010,5	5,8	7,9	7,8	1	1	1	1	1	1	1	1	1	0	1	-3,875969	273,251884	312,232202	0
15.01.2021	04:57:48	0	0	3,84157	3,447	19,5336	-0,763	82,887	0	1010,38	5,8	7,9	7,7	1	1	1	1	1	1	1	1	1	0	1	-3,453136	273,152188	312,193955	0
15.01.2021	04:57:49	0	0	2,824667	3,42675	0,4968	-0,765	82,893	0	1010,46	5,8	7,9	7,8	1	1	1	1	1	1	1	1	1	0	1	-6,624383	273,259025	309,516833	0
15.01.2021	04:57:50	0	0	4,858456	3,39375	6,0624	-0,762	82,891	0	1010,46	5,8	7,9	7,7	1	1	1	1	1	1	1	1	1	0	1	-6,906272	273,142247	308,694871	0
15.01.2021	04:57:51	0	0	4,40648	3,18675	7,2288	-0,764	82,881	0	1010,48	5,8	7,9	7,8	1	1	1	1	1	1	1	1	1	0	1	-7,610994	273,263311	308,550057	0
15.01.2021	04:57:52	0	0	3,615595	3,07875	1,9296	-0,761	82,899	0	1010,56	5,8	7,9	7,7	1	1	1	1	1	1	1	1	1	0	1	-5,778717	273,187734	310,032712	0
15.01.2021	04:57:53	0	0	4,406506	2,9115	21,0168	-0,765	82,895	0	1010,46	5,8	7,9	7,7	1	1	1	1	1	1	1	1	1	0	1	-6,694856	273,257597	309,43975	0
15.01.2021	04:57:54	0	0	3,728582	2,67	1,1844	-0,765	82,908	0	1010,52	5,8	7,9	7,7	1	1	1	1	1	1	1	1	1	0	1	-0	273,111036	315,45692	0
15.01.2021	04:57:55	0	0	4,40648	2,56275	13,1652	-0,768	82,883	0	1010,42	5,8	7,9	7,8	1	1	1	1	1	1	1	1	1	0	1	-4,22833	273,23761	311,813795	0
15.01.2021	04:57:56	0	0	2,485722	2,44425	10,8324	-0,764	82,915	0	1010,44	5,8	7,9	7,7	1	1	1	1	1	1	1	1	1	0	1	-5,919662	273,209094	309,990548	0
15.01.2021	04:57:57	0	0	3,050658	2,26425	10,4544	-0,768	82,905	0	1010,46	5,8	7,9	7,7	1	1	1	1	1	1	1	1	1	0	1	-6,131078	273,250457	309,970485	0
15.01.2021	04:57:58	0	0	2,598709	2,31	8,6184	-0,76	82,905	0	1010,38	5,8	7,9	7,7	1	1	1	1	1	1	1	1	1	0	1	-6,20155	273,243319	309,866985	0
15.01.2021	04:57:59	0	0	4,406506	2,63625	9,0864	-0,767	82,901	0	1010,32	5,8	7,9	7,7	1	1	1	1	1	1	1	1	1	0	1	-7,329105	273,211944	308,594286	0
15.01.2021	04:58:00	0	0	3,276633	2,85525	351,774	-0,759	82,908	0	1010,48	5,8	7,9	7,7	1	1	1	1	1	1	1	1	1	0	1	-7,892882	273,257597	308,241724	0
15.01.2021	04:58:01	0	0	3,276633	2,85525	351,774	-0,759	82,908	0	1010,48	5,8	7,9	7,7	1	1	1	1	1	1	1	1	1	0	1	-7,892882	273,257597	308,241724	0
15.01.2021	04:58:02	0	0	5,197387	2,8545	6,8292	-0,766	82,895	0	1010,32	5,8	7,9	7,8	1	1	1	1	1	1	1	1	1	0	1	-5,003524	273,194851	310,840818	0
15.01.2021	04:58:03	0	0	4,858456	3,039	0	-0,763	82,911	0	1010,34	5,8	7,9	7,7	1	1	1	1	1	1	1	1	1	0	1	-3,59408	273,086954	311,751589	0
15.01.2021	04:58:04	0	0	2,711696	3,25125	15,0192	-0,765	82,912	0	1010,54	5,8	7,9	7,7	1	1	1	1	1	1	1	1	1	0	1	-6,553911	273,230477	309,455212	0
15.01.2021	04:58:05	0	0	4,406506	2,97075	4,0932	-0,762	82,91	0	1010,56	5,8	7,9	7,7	1	1	1	1	1	1	1	1	1	0	1	-0	273,0997	315,404546	0
15.01.2021	04:58:06	0	0	2,372734	2,709	24,7356	-0,759	82,911	0	1010,52	5,8	7,9	7,7	1	1	1	1	1	1	1	1	1	0	1	-3,523608	273,143666	312,084097	0
15.01.2021	04:58:07	0	0	2,824684	2,77875	13,1688	-0,762	82,916	0	1010,46	5,8	7,9	7,7	1	1	1	1	1	1	1	1	1	0	1	-5,426357	273,257597	310,708249	0
15.01.2021	04:58:08	0	0	2,937671	3,012	9,3672	-0,761	82,917	0	1010,48	5,8	7,9	7,7	1	1	1	1	1	1	1	1	1	0	1	-4,157858	273,0997	311,246688	0
15.01.2021	04:58:09	0	0	4,858427	2,9445	19,8972	-0,762	82,914	0	1010,48	5,8	7,9	7,8	1	1	1	1	1	1	1	1	1	0	1	-2,959831	273,183465	312,831859	0
15.01.2021	04:58:10	0	0	3,615595	2,87475	10,8144	-0,761	82,922	0	1010,48	5,8	7,9	7,7	1	1	1	1	1	1	1	1	1	0	1	-1,62086	273,254741	314,500527	0
15.01.2021	04:58:11	0	0	4,858456	2,871	13,9248	-0,764	82,919	0	1010,26	5,8	7,9	7,7	1	1	1	1	1	1	1	1	1	0	1	-6,483439	273,159292	309,196491	0
15.01.2021	04:58:12	0	0	3,276633	2,877	0,8784	-0,761	82,912	0	1010,52	5,8	7,9	7,7	1	1	1	1	1	1	1	1	1	0	1	-4,087385	273,079877	311,225596	0
15.01.2021	04:58:13	0	0	3,276633	2,72775	2,2824	-0,761	82,915	0	1010,48	5,8	7,9	7,7	1	1	1	1	1	1	1	1	1	0	1	-4,862579	273,10395	310,561603	0
15.01.2021	04:58:14	0	0	3,615595	2,7225	359,8848	-0,763	82,919	0	1010,56	5,7	7,9	7,7	1	1	1	1	1	1	1	1	1	0	1	-7,963354	273,210519	307,953446	0
15.01.2021	04:58:15	0	0	3,163627	2,53125	17,2368	-0,758	82,914	0	1010,54	5,8	7,9	7,8	1	1	1	1	1	1	1	1	1	0	1	-3,875969	273,082707	311,450086	0
15.01.2021	04:58:16	0	0	4,632481	2,4705	0,1404	-0,761	82,925	0	1010,48	5,8	7,9	7,7	1	1	1	1	1	1	1	1	1	0	1	-5,073996	273,221921	310,895546	0
15.01.2021	04:58:17	0	0	3,84157	2,5965	10,0548	-0,762	82,898	0	1010,38	5,8	7,9	7,7	1	1	1	1	1	1	1	1	1	0	1	-7,82241	273,236183	308,213113	0
15.01.2021	04:58:18	0	0	4,06752	2,70825	0,4968	-0,762	82,924	0	1010,5	5,8	7,9	7,8	1	1	1	1	1	1	1	1	1	0	1	-1,691332	273,189157	314,126679	0
15.01.2021	04:58:19	0	0	2,71168	2,68275	6,0696	-0,763	82,923	0	1010,44	5,8	7,9	7,8	1	1	1	1	1	1	1	1	1	0	1	-6,272023	273,26474	309,895641	0
15.01.2021	04:58:20	0	0	2,937671	2,65575	6,0624	-0,764	82,916	0	1010,44	5,8	7,9	7,7	1	1	1	1	1	1	1	1	1	0	1	-4,510218	273,142247	311,090924	0
15.01.2021	04:58:21	0	0	2,937653	2,67825	21,0276	-0,764	82,928	0	1010,52	5,8	7,9	7,8	1	1	1	1	1	1	1	1	1	0	1	-7,751938	273,091201	307,613352	0
15.01.2021	04:58:22	0	0	5,197418	2,8695	6,066	-0,759	82,925	0	1010,4	5,8	7,9	7,7	1	1	1	1	1	1	1	1	1	0	1	-4,087385	273,12238	311,421946	0
15.01.2021	04:58:23	0	0	3,050658	3,12	1,5624	-0,758	82,938	0	1010,56	5,8	7,9	7,7	1	1	1	1	1	1	1	1	1	0	1	-3,312192	273,270457	312,881928	0
15.01.2021	04:58:24	0	0	3,050658	3,22875	10,8288	-0,759	82,927	0	1010,44	5,8	7,9	7,7	1	1	1	1	1	1	1	1	1	0	1	-7,751938	273,257597	308,382668	0
15.01.2021	04:58:25	0	0	3,615595	3,38925	23,22	-0,762	82,934	0	1010,46	5,8	7,9	7,7	1	1	1	1	1	1	1	1	1	0	1	-7,610994	273,210519	308,305806	0
15.01.2021	04:58:26	0	0	4,971413	3,69	11,7036	-0,759	82,93	0	1010,44	5,8	7,9	7,8	1	1	1	1	1	1	1	1	1	0	1	-4,862579	273,082707	310,463475	0
15.01.2021	04:58:27	0	0	4,971443	4,08	8,2656	-0,761	82,917	0	1010,42	5,8	7,9	7,7	1	1	1	1	1	1	1	1	1	0	1	-2,60747	273,253312	313,507309	0
15.01.2021	04:58:28	0	0	4,632481	3,9195	13,9248	-0,764	82,942	0	1010,56	5,8	7,9	7,7	1	1	1	1	1	1	1	1	1	0	1	-8,315715	273,226199	307,673615	0
15.01.2021	04:58:29	0	0	4,067544	3,9285	1,9332	-0,754	82,922	0	1010,48	5,8	7,9	7,7	1	1	1	1	1	1	1	1	1	0	1	-4,651163	273,094034	310,72721	0
15.01.2021	04:58:30	0	0	3,050658	3,9225	10,0584	-0,762	82,933	0	1010,44	5,8	7,9	7,7	1	1	1	1	1	1	1	1	1	0	1	-6,906272	273,109619	308,544099	0
15.01.2021	04:58:31	0	0	4,632453	3,70725	358,02	-0,764	82,927	0	1010,46	5,8	7,9	7,8	1	1	1	1	1	1	1	1	1	0	1	-6,20155	273,155029	309,458675	0
15.01.2021	04:58:32	0	0	4,406506	3,45675	14,3064	-0,764	82,927	0	1010,54	5,8	7,9	7,7	1	1	1	1	1	1	1	1	1	0	1	-5,637773	273,263311	310,523278	0
15.01.2021	04:58:33	0	0	2,937671	3,02925	2,2896	-0,765	82,93	0	1010,5	5,8	7,9	7,7	1	1	1	1	1	1	1	1	1	0	1	-1,62086	273,17493	314,131366	0
15.01.2021	04:58:34	0	0	4,745468	2,781	359,802	-0,765	82,923	0	1010,48	5,8	7,9	7,7	1	1	1	1	1	1	1	1	1	0	1	-2,466526	273,261883	313,687913	0
15.01.2021	04:58:35	0	0	4,519494	2,712	10,8936	-0,759	82,934	0	1010,52	5,8	7,9	7,7	1	1	1	1	1	1	1	1	1	0	1	-3,030303	273,139407	312,557717	0
15.01.2021	04:58:36	0	0	5,084431	2,79675	6,8076	-0,758	82,925	0	1010,48	5,8	7,9	7,7	1	1	1	1	1	1	1	1	1	0	1	-0	273,089786	315,358749	0
15.01.2021	04:58:37	0	0	4,745468	3,1875	9,7344	-0,76	82,937	0	1010,4	5,8	7,9	7,7	1	1	1	1	1	1	1	1	1	0	1	-2,748414	273,16782	312,970941	0
15.01.2021	04:58:38	0	0	4,406506	3,39	14,7528	-0,762	82,925	0	1010,52	5,8	7,9	7,7	1	1	1	1	1	1	1	1	1	0	1	-1,198027	273,094034	314,180346	0
15.01.2021	04:58:39	0	0	2,711696	3,39075	11,7108	-0,764	82,935	0	1010,38	5,8	7,9	7,7	1	1	1	1	1	1	1	1	1	0	1	-10,147992	273,169242	305,577936	0
15.01.2021	04:58:40	0	0	4,632481	3,37575	19,5264	-0,762	82,928	0	1010,44	5,8	7,9	7,7	1	1	1	1	1	1	1	1	1	0	1	-7,117689	273,261883	309,03675	0
15.01.2021	04:58:41	0	0	4,180532	3,606	17,2332	-0,758	82,924	0	1010,54	5,8	7,9	7,7	1	1	1	1	1	1	1	1	1	0	1	-6,20155	273,213369	309,728432	0
15.01.2021	04:58:42	0	0	4,519494	4,032	9,7524	-0,758	82,929	0	1010,58	5,8	7,9	7,7	1	1	1	1	1	1	1	1	1	0	1	-2,043693	273,08837	313,308516	0
15.01.2021	04:58:43	0	0	5,310405	4,11	16,4736	-0,76	82,931	0	1010,4	5,8	7,9	7,7	1	1	1	1	1	1	1	1	1	0	1	-4,510218	273,240464	311,54511	0
15.01.2021	04:58:44	0	0	4,519494	3,9915	8,2512	-0,762	82,937	0	1010,48	5,8	7,9	7,7	1	1	1	1	1	1	1	1	1	0	1	-6,412967	273,207669	309,490654	0
15.01.2021	04:58:45	0	0	2,485722	3,7245	7,1388	-0,76	82,921	0	1010,4	5,8	7,9	7,7	1	1	1	1	1	1	1	1	1	0	1	-5,003524	273,241891	311,058408	0
15.01.2021	04:58:46	0	0	4,745468	3,77625	3,3948	-0,757	82,928	0	1010,44	5,8	7,9	7,7	1	1	1	1	1	1	1	1	1	0	1	-4,933051	273,200547	310,93763	0
15.01.2021	04:58:47	0	0	3,728582	3,90075	6,8256	-0,757	82,926	0	1010,44	5,8	7,9	7,7	1	1	1	1	1	1	1	1	1	0	1	-8,174771	273,269027	308,012734	0
15.01.2021	04:58:48	0	0	4,858456	4,03275	356,5836	-0,76	82,937	0	1010,44	5,8	7,9	7,7	1	1	1	1	1	1	1	1	1	0	1	-1,902748	273,227625	314,093179	0
15.01.2021	04:58:49	0	0	4,745468	4,1835	15,4044	-0,759	82,951	0	1010,5	5,8	7,9	7,7	1	1	1	1	1	1	1	1	1	0	1	-6,976744	273,257597	309,157862	0
15.01.2021	04:58:50	0	0	2,937671	4,10475	16,8408	-0,758	82,937	0	1010,58	5,8	7,9	7,7	1	1	1	1	1	1	1	1	1	0	1	-1,268499	273,120961	314,234279	0
15.01.2021	04:58:51	0	0	5,310405	3,978	12,8448	-0,76	82,932	0	1010,46	5,8	7,9	7,7	1	1	1	1	1	1	1	1	1	0	1	-4,016913	273,096866	311,374545	0
15.01.2021	04:58:52	0	0	3,38962	3,8385	13,9284	-0,757	82,936	0	1010,46	5,8	7,9	7,7	1	1	1	1	1	1	1	1	1	0	1	-9,513742	273,164977	306,192469	0
15.01.2021	04:58:53	0	0	4,519494	3,636	10,5408	-0,762	82,926	0	1010,36	5,8	7,9	7,7	1	1	1	1	1	1	1	1	1	0	1	-0	273,260454	316,147827	0
15.01.2021	04:58:54	0	0	4,180532	3,63975	11,1888	-0,76	82,931	0	1010,54	5,8	7,9	7,7	1	1	1	1	1	1	1	1	1	0	1	-3,875969	273,234757	312,152953	0
15.01.2021	04:58:55	0	0	4,293519	3,6555	7,8912	-0,767	82,929	0	1010,5	5,8	7,9	7,7	1	1	1	1	1	1	1	1	1	0	1	-8,245243	273,140827	307,349338	0
15.01.2021	04:58:56	0	0	3,728582	3,7725	359,8236	-0,764	82,933	0	1010,42	5,8	7,9	7,7	1	1	1	1	1	1	1	1	1	0	1	-9,513742	273,290478	306,773051	0
15.01.2021	04:58:57	0	0	4,519494	3,744	14,6232	-0,755	82,944	0	1010,6	5,8	7,9	7,7	1	1	1	1	1	1	1	1	1	0	1	-2,043693	273,18062	313,73484	0
15.01.2021	04:58:58	0	0	2,598709	3,897	7,5168	-0,761	82,942	0	1010,44	5,8	7,9	7,7	1	1	1	1	1	1	1	1	1	0	1	-2,255109	273,086954	313,09056	0
15.01.2021	04:58:59	0	0	5,084431	3,9195	3,0276	-0,766	82,939	0	1010,48	5,8	7,9	7,7	1	1	1	1	1	1	1	1	1	0	1	-2,60747	273,221921	313,362072	0
15.01.2021	04:59:00	0	0	3,163646	3,53925	351,2736	-0,758	82,936	0	1010,32	5,8	7,9	7,7	1	1	1	1	1	1	1	1	1	0	1	-7,610994	273,115289	307,865576	0
15.01.2021	04:59:01	0	0	3,163646	3,53925	351,2736	-0,758	82,936	0	1010,32	5,8	7,9	7,7	1	1	1	1	1	1	1	1	1	0	1	-7,610994	273,115289	307,865576	0
15.01.2021	04:59:02	0	0	4,519494	3,33675	351,3204	-0,761	82,931	0	1010,46	5,8	7,8	7,7	1	1	1	1	1	1	1	1	1	0	1	-2,536998	273,084123	312,795595	0
15.01.2021	04:59:03	0	0	2,937671	3,23925	347,8968	-0,763	82,93	0	1010,44	5,8	7,9	7,7	1	1	1	1	1	1	1	1	1	0	1	-3,030303	273,143666	312,577402	0
15.01.2021	04:59:04	0	0	4,745468	3,0375	348,9732	-0,758	82,931	0	1010,46	5,8	7,9	7,7	1	1	1	1	1	1	1	1	1	0	1	-6,553911	273,249029	309,541045	0
15.01.2021	04:59:05	0	0	3,38962	2,89275	358,272	-0,757	82,933	0	1010,34	5,8	7,9	7,7	1	1	1	1	1	1	1	1	1	0	1	-0	273,213369	315,929982	0
15.01.2021	04:59:06	0	0	4,632481	2,751	355,7628	-0,759	82,937	0	1010,5	5,8	7,9	7,7	1	1	1	1	1	1	1	1	1	0	1	-3,382664	273,261883	312,771775	0
15.01.2021	04:59:07	0	0	4,519494	2,598	360	-0,758	82,913	0	1010,3	5,8	7,9	7,7	1	1	1	1	1	1	1	1	1	0	1	-13,319239	273,266169	302,855038	0
15.01.2021	04:59:08	0	0	3,050658	2,511	354,6072	-0,762	82,936	0	1010,52	5,8	7,8	7,7	1	1	1	1	1	1	1	1	1	0	1	-4,298802	273,120961	311,203976	0
15.01.2021	04:59:09	0	0	3,954557	2,59125	356,9364	-0,765	82,926	0	1010,28	5,8	7,9	7,7	1	1	1	1	1	1	1	1	1	0	1	-3,382664	273,253312	312,732115	0
15.01.2021	04:59:10	0	0	3,276633	2,6895	0,8604	-0,764	82,929	0	1010,42	5,8	7,9	7,7	1	1	1	1	1	1	1	1	1	0	1	-2,889359	273,193428	312,948399	0
15.01.2021	04:59:11	0	0	4,067544	2,70375	353,2032	-0,763	82,919	0	1010,3	5,8	7,9	7,7	1	1	1	1	1	1	1	1	1	0	1	-9,866103	273,250457	306,23546	0
15.01.2021	04:59:12	0	0	3,38962	2,7705	5,67	-0,76	82,936	0	1010,44	5,8	7,8	7,7	1	1	1	1	1	1	1	1	1	0	1	-5,285412	273,214794	310,651162	0
15.01.2021	04:59:13	0	0	3,728582	2,8725	1,926	-0,762	82,94	0	1010,56	5,8	7,9	7,7	1	1	1	1	1	1	1	1	1	0	1	-6,131078	273,096866	309,26038	0
15.01.2021	04:59:14	0	0	2,937671	2,8815	11,7144	-0,765	82,942	0	1010,46	5,8	7,9	7,7	1	1	1	1	1	1	1	1	1	0	1	-7,117689	273,125216	308,404752	0
15.01.2021	04:59:15	0	0	2,824684	3,189	7,5132	-0,758	82,932	0	1010,46	5,8	7,9	7,7	1	1	1	1	1	1	1	1	1	0	1	-3,59408	273,229051	312,408445	0
15.01.2021	04:59:16	0	0	4,858456	3,20475	20,286	-0,756	82,94	0	1010,48	5,8	7,9	7,7	1	1	1	1	1	1	1	1	1	0	1	-5,144468	273,266169	311,029809	0
15.01.2021	04:59:17	0	0	3,728582	3,21375	25,4088	-0,757	82,922	0	1010,46	5,8	7,9	7,7	1	1	1	1	1	1	1	1	1	0	1	-5,496829	273,15645	310,169964	0
15.01.2021	04:59:18	0	0	3,050658	3,06675	20,2932	-0,76	82,932	0	1010,52	5,8	7,9	7,7	1	1	1	1	1	1	1	1	1	0	1	-6,624383	273,079877	308,688598	0
15.01.2021	04:59:19	0	0	3,163646	2,868	13,2516	-0,762	82,943	0	1010,44	5,8	7,9	7,7	1	1	1	1	1	1	1	1	1	0	1	-4,087385	273,159292	311,592544	0
15.01.2021	04:59:20	0	0	3,615595	2,901	5,3352	-0,762	82,933	0	1010,42	5,8	7,9	7,7	1	1	1	1	1	1	1	1	1	0	1	-11,346018	273,254741	304,775369	0
15.01.2021	04:59:21	0	0	5,084431	2,90925	9,396	-0,757	82,921	0	1010,46	5,7	7,9	7,7	1	1	1	1	1	1	1	1	1	0	1	-3,875969	273,253312	312,23881	0
15.01.2021	04:59:22	0	0	4,858456	2,7	7,9776	-0,755	82,939	0	1010,54	5,8	7,9	7,7	1	1	1	1	1	1	1	1	1	0	1	-4,792107	273,201971	311,085161	0
15.01.2021	04:59:23	0	0	3,502608	2,54775	1,5624	-0,76	82,946	0	1010,44	5,8	7,9	7,7	1	1	1	1	1	1	1	1	1	0	1	-5,144468	273,226199	310,844862	0
15.01.2021	04:59:24	0	0	2,598709	2,56425	16,4952	-0,752	82,92	0	1010,44	5,8	7,8	7,7	1	1	1	1	1	1	1	1	1	0	1	-5,919662	273,209094	309,990548	0
15.01.2021	04:59:25	0	0	3,38962	2,6415	32,8788	-0,758	82,948	0	1010,46	5,8	7,9	7,7	1	1	1	1	1	1	1	1	1	0	1	-4,087385	273,111036	311,369535	0
15.01.2021	04:59:26	0	0	2,711696	2,75775	12,0924	-0,762	82,932	0	1010,28	5,8	7,9	7,7	1	1	1	1	1	1	1	1	1	0	1	-1,479915	273,183465	314,311774	0
15.01.2021	04:59:27	0	0	3,615595	2,64225	11,7036	-0,755	82,938	0	1010,6	5,8	7,9	7,7	1	1	1	1	1	1	1	1	1	0	1	-2,325581	273,082707	313,000473	0
15.01.2021	04:59:28	0	0	3,502608	2,373	16,1028	-0,758	82,911	0	1010,44	5,8	7,9	7,7	1	1	1	1	1	1	1	1	1	0	1	-5,285412	273,118125	310,204261	0
15.01.2021	04:59:29	0	0	3,050658	2,1825	15,4188	-0,759	82,922	0	1010,44	5,8	7,9	7,7	1	1	1	1	1	1	1	1	1	0	1	-6,976744	273,184888	308,821525	0
15.01.2021	04:59:30	0	0	2,372734	2,1555	10,4616	-0,762	82,926	0	1010,46	5,8	7,9	7,7	1	1	1	1	1	1	1	1	1	0	1	-7,117689	273,26474	309,049975	0
15.01.2021	04:59:31	0	0	4,632481	2,355	12,0924	-0,753	82,937	0	1010,44	5,8	7,8	7,7	1	1	1	1	1	1	1	1	1	0	1	-3,946441	273,227625	312,049486	0
15.01.2021	04:59:32	0	0	2,372734	2,39325	353,304	-0,755	82,942	0	1010,58	5,8	7,9	7,7	1	1	1	1	1	1	1	1	1	0	1	-6,8358	273,256169	309,292196	0
15.01.2021	04:59:33	0	0	2,824684	2,39625	14,652	-0,755	82,941	0	1010,52	5,8	7,9	7,7	1	1	1	1	1	1	1	1	1	0	1	-4,22833	273,10395	311,195852	0
15.01.2021	04:59:34	0	0	4,632481	2,31975	6,444	-0,756	82,928	0	1010,66	5,8	7,9	7,7	1	1	1	1	1	1	1	1	1	0	1	-5,778717	273,18062	309,999815	0
15.01.2021	04:59:35	0	0	5,310405	2,2515	356,0724	-0,755	82,937	0	1010,54	5,8	7,8	7,7	1	1	1	1	1	1	1	1	1	0	1	-1,127555	273,266169	315,046722	0
15.01.2021	04:59:36	0	0	2,711696	2,394	356,5692	-0,765	82,918	0	1010,38	5,8	7,9	7,7	1	1	1	1	1	1	1	1	1	0	1	-7,892882	273,169242	307,833046	0
15.01.2021	04:59:37	0	0	3,615595	2,6385	0,1332	-0,758	82,912	0	1010,5	5,8	7,8	7,7	1	1	1	1	1	1	1	1	1	0	1	-1,691332	272,981068	313,165538	0
15.01.2021	04:59:38	0	0	3,502608	2,91825	359,3412	-0,763	82,921	0	1010,34	5,7	7,9	7,7	1	1	1	1	1	1	1	1	1	0	1	-4,439746	273,130891	311,108919	0
15.01.2021	04:59:39	0	0	2,598709	3,05325	352,458	-0,761	82,93	0	1010,36	5,8	7,9	7,7	1	1	1	1	1	1	1	1	1	0	1	-0,845666	273,08837	314,506543	0
15.01.2021	04:59:40	0	0	3,728582	3,04575	20,2932	-0,756	82,933	0	1010,4	5,8	7,9	7,7	1	1	1	1	1	1	1	1	1	0	1	-5,990134	273,153608	309,663524	0
15.01.2021	04:59:41	0	0	3,163646	2,9715	2,304	-0,76	82,926	0	1010,42	5,8	7,9	7,7	1	1	1	1	1	1	1	1	1	0	1	-2,60747	273,086954	312,7382	0
15.01.2021	04:59:42	0	0	2,937671	2,93475	6,444	-0,756	82,934	0	1010,52	5,8	7,9	7,7	1	1	1	1	1	1	1	1	1	0	1	-4,933051	273,152188	310,71404	0
15.01.2021	04:59:43	0	0	4,293519	3,03075	355,4568	-0,766	82,933	0	1010,44	5,8	7,9	7,7	1	1	1	1	1	1	1	1	1	0	1	-2,889359	273,273316	313,317993	0
15.01.2021	04:59:44	0	0	4,067544	3,1335	358,4232	-0,759	82,938	0	1010,34	5,8	7,9	7,7	1	1	1	1	1	1	1	1	1	0	1	-4,933051	273,221921	311,036491	0
15.01.2021	04:59:45	0	0	2,824684	3,27675	3,7764	-0,752	82,939	0	1010,64	5,8	7,8	7,7	1	1	1	1	1	1	1	1	1	0	1	-7,751938	273,0997	307,652608	0
15.01.2021	04:59:46	0	0	4,858456	3,114	12,4704	-0,76	82,92	0	1010,36	5,8	7,9	7,7	1	1	1	1	1	1	1	1	1	0	1	-3,59408	273,092618	311,777751	0
15.01.2021	04:59:47	0	0	4,858456	2,8155	7,4988	-0,759	82,924	0	1010,58	5,8	7,9	7,7	1	1	1	1	1	1	1	1	1	0	1	-7,258633	273,230477	308,750491	0
15.01.2021	04:59:48	0	0	2,711696	2,7915	9,4608	-0,757	82,926	0	1010,32	5,8	7,9	7,7	1	1	1	1	1	1	1	1	1	0	1	-9,866103	273,283325	306,387579	0
15.01.2021	04:59:49	0	0	3,615595	3,054	10,8	-0,763	82,971	0	1010,72	5,7	7,9	7,7	1	1	1	1	1	1	1	1	1	0	1	-4,087385	273,169242	311,638542	0
15.01.2021	04:59:50	0	0	3,502608	3,16725	15,7932	-0,759	82,923	0	1010,54	5,8	7,8	7,7	1	1	1	1	1	1	1	1	1	0	1	-1,832276	273,098283	313,565725	0
15.01.2021	04:59:51	0	0	4,067544	3,23475	11,2032	-0,76	82,951	0	1010,56	5,8	7,8	7,7	1	1	1	1	1	1	1	1	1	0	1	-5,21494	273,130891	310,333725	0
15.01.2021	04:59:52	0	0	3,163646	3,2085	12,1032	-0,757	82,949	0	1010,42	5,8	7,9	7,7	1	1	1	1	1	1	1	1	1	0	1	-5,919662	273,266169	310,254615	0
15.01.2021	04:59:53	0	0	5,197418	3,129	10,8432	-0,756	82,944	0	1010,52	5,8	7,8	7,7	1	1	1	1	1	1	1	1	1	0	1	-5,285412	273,113871	310,184607	0
15.01.2021	04:59:54	0	0	3,276633	2,98875	0,8748	-0,755	82,947	0	1010,5	5,8	7,9	7,7	1	1	1	1	1	1	1	1	1	0	1	-2,889359	273,234757	313,139564	0
15.01.2021	04:59:55	0	0	4,519494	3,195	10,8324	-0,759	82,959	0	1010,48	5,8	7,8	7,7	1	1	1	1	1	1	1	1	1	0	1	-1,902748	273,079877	313,410233	0
15.01.2021	04:59:56	0	0	2,711696	3,219	19,8936	-0,76	82,943	0	1010,48	5,7	7,8	7,7	1	1	1	1	1	1	1	1	1	0	1	-0	273,184888	315,798269	0
15.01.2021	04:59:57	0	0	3,050658	3,12	14,6484	-0,757	82,954	0	1010,5	5,8	7,8	7,7	1	1	1	1	1	1	1	1	1	0	1	-7,892882	273,259025	308,248334	0
15.01.2021	04:59:58	0	0	3,728582	3,03225	8,6004	-0,759	82,948	0	1010,5	5,8	7,8	7,7	1	1	1	1	1	1	1	1	1	0	1	-7,963354	273,21907	307,992999	0
15.01.2021	04:59:59	0	0	4,293519	2,8905	13,5432	-0,756	82,951	0	1010,48	5,7	7,9	7,7	1	1	1	1	1	1	1	1	1	0	1	-6,694856	273,266169	309,479421	0
15.01.2021	05:00:00	0	0	3,050658	2,778	5,688	-0,754	82,962	0	1010,48	5,8	7,9	7,7	1	1	1	1	1	1	1	1	1	0	1	-2,536998	273,257597	313,597608	0
15.01.2021	05:00:01	0	0	3,050658	2,778	5,688	-0,754	82,962	0	1010,48	5,8	7,9	7,7	1	1	1	1	1	1	1	1	1	0	1	-2,536998	273,257597	313,597608	0
15.01.2021	05:00:02	0	0	4,180532	2,8125	14,6628	-0,755	82,941	0	1010,32	5,7	7,8	7,7	1	1	1	1	1	1	1	1	1	0	1	-3,523608	273,18062	312,254924	0
15.01.2021	05:00:03	0	0	4,971443	2,8005	0,5112	-0,753	82,963	0	1010,54	5,8	7,9	7,7	1	1	1	1	1	1	1	1	1	0	1	-4,298802	273,091201	311,066488	0
15.01.2021	05:00:04	0	0	2,937671	2,72625	7,506	-0,752	82,966	0	1010,56	5,7	7,8	7,7	1	1	1	1	1	1	1	1	1	0	1	-3,453136	273,217644	312,496623	0
15.01.2021	05:00:05	0	0	4,858456	2,87475	15,0336	-0,755	82,947	0	1010,4	5,7	7,8	7,7	1	1	1	1	1	1	1	1	1	0	1	-7,681466	273,256169	308,44653	0
15.01.2021	05:00:06	0	0	3,954557	2,7975	19,5264	-0,757	82,938	0	1010,36	5,8	7,8	7,7	1	1	1	1	1	1	1	1	1	0	1	-2,818887	273,153608	312,834771	0
15.01.2021	05:00:07	0	0	5,423393	2,808	8,3484	-0,758	82,941	0	1010,52	5,7	7,9	7,7	1	1	1	1	1	1	1	1	1	0	1	-1,479915	273,266169	314,694361	0
15.01.2021	05:00:08	0	0	4,971443	2,832	4,4568	-0,754	82,958	0	1010,52	5,8	7,8	7,7	1	1	1	1	1	1	1	1	1	0	1	-8,668076	273,200547	307,202606	0
15.01.2021	05:00:09	0	0	4,180532	2,86275	350,9964	-0,754	82,939	0	1010,38	5,8	7,8	7,7	1	1	1	1	1	1	1	1	1	0	1	-3,523608	273,273316	312,683744	0
15.01.2021	05:00:10	0	0	3,615595	2,80125	360	-0,752	82,957	0	1010,34	5,7	7,8	7,7	1	1	1	1	1	1	1	1	1	0	1	-7,540521	273,194851	308,30382	0
15.01.2021	05:00:11	0	0	2,937671	2,91075	357,5844	-0,753	82,948	0	1010,4	5,8	7,9	7,7	1	1	1	1	1	1	1	1	1	0	1	-7,963354	273,273316	308,243997	0
15.01.2021	05:00:12	0	0	3,276633	2,8395	3,0204	-0,753	82,958	0	1010,46	5,8	7,8	7,7	1	1	1	1	1	1	1	1	1	0	1	-6,20155	273,21907	309,754803	0
15.01.2021	05:00:13	0	0	5,084431	2,7345	1,9188	-0,755	82,938	0	1010,36	5,8	7,8	7,7	1	1	1	1	1	1	1	1	1	0	1	-4,862579	273,229051	311,139946	0
15.01.2021	05:00:14	0	0	3,615595	2,6235	6,4152	-0,76	82,957	0	1010,5	5,8	7,9	7,7	1	1	1	1	1	1	1	1	1	0	1	-0,98661	273,092618	314,385221	0
15.01.2021	05:00:15	0	0	4,745468	2,61525	9,7596	-0,751	82,959	0	1010,44	5,7	7,8	7,7	1	1	1	1	1	1	1	1	1	0	1	-3,100775	273,207669	312,802845	0
15.01.2021	05:00:16	0	0	4,745468	2,52675	6,4404	-0,753	82,953	0	1010,32	5,8	7,9	7,7	1	1	1	1	1	1	1	1	1	0	1	-3,523608	273,101116	311,887482	0
15.01.2021	05:00:17	0	0	2,937671	2,63325	9,3492	-0,75	82,962	0	1010,54	5,8	7,9	7,7	1	1	1	1	1	1	1	1	1	0	1	-3,453136	273,203396	312,43072	0
15.01.2021	05:00:18	0	0	3,163646	2,82525	5,6916	-0,749	82,963	0	1010,58	5,8	7,8	7,7	1	1	1	1	1	1	1	1	1	0	1	-2,889359	273,091201	312,475931	0
15.01.2021	05:00:19	0	0	3,954557	2,8815	9,3636	-0,755	82,947	0	1010,58	5,7	7,9	7,7	1	1	1	1	1	1	1	1	1	0	1	-7,188161	273,136568	308,386739	0
15.01.2021	05:00:20	0	0	4,632481	2,958	16,8552	-0,752	82,97	0	1010,48	5,8	7,9	7,7	1	1	1	1	1	1	1	1	1	0	1	-5,21494	273,26474	310,952723	0
15.01.2021	05:00:21	0	0	2,824684	2,9565	12,1572	-0,755	82,958	0	1010,52	5,8	7,8	7,7	1	1	1	1	1	1	1	1	1	0	1	-5,708245	273,089786	309,650504	0
15.01.2021	05:00:22	0	0	2,711696	2,81025	3,7728	-0,753	82,957	0	1010,38	5,7	7,8	7,7	1	1	1	1	1	1	1	1	1	0	1	-5,355884	273,251884	310,752286	0
15.01.2021	05:00:23	0	0	3,954557	2,532	0,4968	-0,751	82,97	0	1010,5	5,7	7,8	7,7	1	1	1	1	1	1	1	1	1	0	1	-3,805497	273,118125	311,684176	0
15.01.2021	05:00:24	0	0	4,971443	2,3805	2,3076	-0,754	82,964	0	1010,44	5,7	7,8	7,7	1	1	1	1	1	1	1	1	1	0	1	-1,338971	273,119543	314,157254	0
15.01.2021	05:00:25	0	0	4,519494	2,3895	15,3972	-0,757	82,964	0	1010,62	5,7	7,9	7,7	1	1	1	1	1	1	1	1	1	0	1	-7,892882	273,281895	308,35418	0
15.01.2021	05:00:26	0	0	3,276633	2,42625	7,1352	-0,755	82,963	0	1010,42	5,8	8	7,7	1	1	1	1	1	1	1	1	1	0	1	-2,255109	273,15645	313,411683	0
15.01.2021	05:00:27	0	0	2,711696	2,3985	17,2368	-0,753	82,966	0	1010,46	5,7	7,8	7,7	1	1	1	1	1	1	1	1	1	0	1	-7,188161	273,274745	309,025808	0
15.01.2021	05:00:28	0	0	3,276633	2,32725	23,2164	-0,75	82,962	0	1010,42	5,8	7,8	7,7	1	1	1	1	1	1	1	1	1	0	1	-4,510218	273,116707	310,972903	0
15.01.2021	05:00:29	0	0	3,84157	2,2935	13,9212	-0,75	82,972	0	1010,56	5,8	7,8	7,7	1	1	1	1	1	1	1	1	1	0	1	-3,312192	273,111036	312,144728	0
15.01.2021	05:00:30	0	0	2,598709	2,32275	10,4508	-0,759	82,966	0	1010,36	5,7	7,8	7,7	1	1	1	1	1	1	1	1	1	0	1	-1,902748	273,147927	313,724647	0
15.01.2021	05:00:31	0	0	3,615595	2,259	8,2584	-0,758	82,973	0	1010,44	5,7	7,9	7,7	1	1	1	1	1	1	1	1	1	0	1	-7,82241	273,260454	308,325417	0
15.01.2021	05:00:32	0	0	3,276613	2,30475	7,5096	-0,75	82,972	0	1010,48	5,7	7,8	7,8	1	1	1	1	1	1	1	1	1	0	1	-5,144468	273,096866	310,24699	0
15.01.2021	05:00:33	0	0	4,519494	2,286	5,2308	-0,75	82,967	0	1010,36	5,7	7,8	7,7	1	1	1	1	1	1	1	1	1	0	1	-3,24172	273,145086	312,372549	0
15.01.2021	05:00:34	0	0	4,180507	2,29725	10,8252	-0,746	82,962	0	1010,36	5,7	7,8	7,8	1	1	1	1	1	1	1	1	1	0	1	-8,527132	273,241891	307,5348	0
15.01.2021	05:00:35	0	0	4,067544	2,3175	360	-0,749	82,972	0	1010,64	5,8	7,8	7,7	1	1	1	1	1	1	1	1	1	0	1	-3,100775	273,152188	312,546316	0
15.01.2021	05:00:36	0	0	2,824684	2,4105	7,5132	-0,754	82,976	0	1010,58	5,7	7,8	7,7	1	1	1	1	1	1	1	1	1	0	1	-1,691332	273,105367	313,739396	0
15.01.2021	05:00:37	0	0	4,06752	2,415	352,8	-0,75	82,954	0	1010,46	5,7	7,8	7,8	1	1	1	1	1	1	1	1	1	0	1	-0	273,201971	315,877268	0
15.01.2021	05:00:38	0	0	5,084431	2,38125	356,5548	-0,757	82,955	0	1010,26	5,8	7,8	7,7	1	1	1	1	1	1	1	1	1	0	1	-3,030303	273,094034	312,34807	0
15.01.2021	05:00:39	0	0	4,067544	2,25075	2,6496	-0,753	82,956	0	1010,38	5,8	7,8	7,7	1	1	1	1	1	1	1	1	1	0	1	-2,889359	273,108201	312,554464	0
15.01.2021	05:00:40	0	0	3,502608	2,1945	7,488	-0,757	82,966	0	1010,56	5,7	7,8	7,7	1	1	1	1	1	1	1	1	1	0	1	-2,748414	273,106784	312,688861	0
15.01.2021	05:00:41	0	0	5,084431	2,151	8,604	-0,752	82,965	0	1010,48	5,8	7,8	7,7	1	1	1	1	1	1	1	1	1	0	1	-5,285412	273,194851	310,558929	0
15.01.2021	05:00:42	0	0	4,293519	2,0415	3,3948	-0,758	82,968	0	1010,54	5,8	7,8	7,7	1	1	1	1	1	1	1	1	1	0	1	-4,369274	273,280465	311,871168	0
15.01.2021	05:00:43	0	0	4,406506	1,99425	360	-0,747	82,976	0	1010,94	5,8	7,8	7,7	1	1	1	1	1	1	1	1	1	0	1	-4,087385	273,226199	311,901945	0
15.01.2021	05:00:44	0	0	3,276613	2,2545	4,0896	-0,751	82,969	0	1010,46	5,8	8	7,8	1	1	1	1	1	1	1	1	1	0	1	-4,792107	273,125216	310,730334	0
15.01.2021	05:00:45	0	0	2,937671	2,46225	1,9296	-0,75	82,975	0	1010,5	5,7	7,8	7,7	1	1	1	1	1	1	1	1	1	0	1	-4,792107	273,216219	311,151059	0
15.01.2021	05:00:46	0	0	4,180532	2,54775	6,066	-0,758	82,972	0	1010,5	5,7	7,8	7,7	1	1	1	1	1	1	1	1	1	0	1	-10,077519	273,276175	306,143067	0
15.01.2021	05:00:47	0	0	4,74544	2,6565	13,932	-0,756	82,964	0	1010,52	5,7	8	7,8	1	1	1	1	1	1	1	1	1	0	1	-2,043693	273,210519	313,873107	0
15.01.2021	05:00:48	0	0	2,259747	2,73225	15,7932	-0,729	82,965	0	1010,78	5,8	7,8	7,7	1	1	1	1	1	1	1	1	1	0	1	-11,980268	273,261883	304,174171	0
15.01.2021	05:00:49	0	0	3,728582	2,835	0,126	-0,747	82,958	0	1010,56	5,7	7,8	7,7	1	1	1	1	1	1	1	1	1	0	1	-4,721635	273,094034	310,656738	0
15.01.2021	05:00:50	0	0	4,971413	2,96175	2,664	-0,746	82,981	0	1010,6	5,7	7,8	7,8	1	1	1	1	1	1	1	1	1	0	1	-7,751938	273,098283	307,646064	0
15.01.2021	05:00:51	0	0	2,711696	3,09075	2,6568	-0,749	82,966	0	1010,48	5,7	8	7,7	1	1	1	1	1	1	1	1	1	0	1	-6,765328	273,187734	309,046102	0
15.01.2021	05:00:52	0	0	4,745468	3,258	12,8484	-0,756	82,96	0	1010,46	5,8	7,8	7,7	1	1	1	1	1	1	1	1	1	0	1	-8,033827	273,269027	308,153678	0
15.01.2021	05:00:53	0	0	4,971413	3,22425	18,8352	-0,746	82,962	0	1010,52	5,8	7,8	7,8	1	1	1	1	1	1	1	1	1	0	1	-7,751938	273,211944	308,171453	0
15.01.2021	05:00:54	0	0	4,067544	3,1815	16,1028	-0,747	82,977	0	1010,48	5,7	7,8	7,7	1	1	1	1	1	1	1	1	1	0	1	-4,933051	273,094034	310,445321	0
15.01.2021	05:00:55	0	0	4,180507	3,16575	8,6184	-0,749	82,97	0	1010,44	5,8	7,9	7,8	1	1	1	1	1	1	1	1	1	0	1	-4,721635	273,246173	311,36011	0
15.01.2021	05:00:56	0	0	2,372734	3,0525	10,062	-0,751	82,982	0	1010,52	5,7	8	7,7	1	1	1	1	1	1	1	1	1	0	1	-4,792107	273,084123	310,540485	0
15.01.2021	05:00:57	0	0	3,954557	2,83125	14,6448	-0,754	82,962	0	1010,44	5,7	7,8	7,7	1	1	1	1	1	1	1	1	1	0	1	-11,346018	273,231904	304,669704	0
15.01.2021	05:00:58	0	0	3,728582	2,69775	354,978	-0,755	82,975	0	1010,38	5,8	7,8	7,7	1	1	1	1	1	1	1	1	1	0	1	-6,694856	273,111036	308,762065	0
15.01.2021	05:00:59	0	0	4,745468	2,6565	3,7872	-0,752	82,987	0	1010,48	5,7	7,8	7,7	1	1	1	1	1	1	1	1	1	0	1	-8,80902	273,236183	307,226503	0
15.01.2021	05:01:00	0	0	4,971443	2,51325	354,942	-0,751	82,982	0	1010,44	5,7	7,8	7,7	1	1	1	1	1	1	1	1	1	0	1	-5,567301	273,241891	310,494631	0
15.01.2021	05:01:01	0	0	4,971443	2,51325	354,942	-0,751	82,982	0	1010,44	5,7	7,8	7,7	1	1	1	1	1	1	1	1	1	0	1	-2,889359	273,243319	313,179177	0
15.01.2021	05:01:02	0	0	2,937671	2,4855	357,2784	-0,744	82,98	0	1010,46	5,7	7,8	7,7	1	1	1	1	1	1	1	1	1	0	1	-10,782241	273,259025	305,358975	0
15.01.2021	05:01:03	0	0	4,971443	2,52075	351,63	-0,748	82,976	0	1010,32	5,7	7,8	7,7	1	1	1	1	1	1	1	1	1	0	1	-4,862579	273,135149	310,705761	0
15.01.2021	05:01:04	0	0	4,067544	2,4795	356,148	-0,749	82,979	0	1010,44	5,7	7,8	7,7	1	1	1	1	1	1	1	1	1	0	1	-2,396054	273,236183	313,639469	0
15.01.2021	05:01:05	0	0	3,050658	2,39025	347,9328	-0,75	82,977	0	1010,38	5,8	7,8	7,7	1	1	1	1	1	1	1	1	1	0	1	-7,681466	273,276175	308,53912	0
15.01.2021	05:01:06	0	0	3,276633	2,22075	355,4136	-0,752	82,979	0	1010,66	5,7	7,8	7,7	1	1	1	1	1	1	1	1	1	0	1	-6,272023	273,146506	309,348809	0
15.01.2021	05:01:07	0	0	4,293519	2,04	0	-0,752	82,977	0	1010,24	5,7	8	7,7	1	1	1	1	1	1	1	1	1	0	1	-1,62086	273,269027	314,566645	0
15.01.2021	05:01:08	0	0	2,71168	2,025	356,8464	-0,757	82,972	0	1010,42	5,7	8	7,8	1	1	1	1	1	1	1	1	1	0	1	-9,513742	273,21907	306,442611	0
15.01.2021	05:01:09	0	0	3,502608	2,04	359,4996	-0,753	82,983	0	1010,34	5,7	7,8	7,7	1	1	1	1	1	1	1	1	1	0	1	-6,976744	273,250457	309,124819	0
15.01.2021	05:01:10	0	0	3,615595	2,11575	355,8024	-0,748	82,982	0	1010,38	5,7	8	7,7	1	1	1	1	1	1	1	1	1	0	1	-3,946441	273,123798	311,569445	0
15.01.2021	05:01:11	0	0	3,38962	2,1	354,6504	-0,755	82,984	0	1010,44	5,7	7,8	7,7	1	1	1	1	1	1	1	1	1	0	1	-3,735025	273,129473	311,807084	0
15.01.2021	05:01:12	0	0	4,293519	2,1255	4,0932	-0,747	82,989	0	1010,5	5,8	7,8	7,7	1	1	1	1	1	1	1	1	1	0	1	-7,188161	273,078461	308,118284	0
15.01.2021	05:01:13	0	0	4,067544	2,16525	12,4776	-0,75	82,985	0	1010,56	5,7	7,8	7,7	1	1	1	1	1	1	1	1	1	0	1	-0,352361	273,196275	315,498565	0
15.01.2021	05:01:14	0	0	3,163627	2,349	3,0204	-0,754	82,983	0	1010,4	5,7	7,8	7,8	1	1	1	1	1	1	1	1	1	0	1	-0,775194	273,101116	314,635897	0
15.01.2021	05:01:15	0	0	3,728582	2,52825	7,1388	-0,745	82,983	0	1010,34	5,7	7,8	7,7	1	1	1	1	1	1	1	1	1	0	1	-7,329105	273,135149	308,239235	0
15.01.2021	05:01:16	0	0	3,502608	2,58825	21,3948	-0,75	82,992	0	1010,66	5,7	8	7,7	1	1	1	1	1	1	1	1	1	0	1	-10,42988	273,254741	305,691507	0
15.01.2021	05:01:17	0	0	3,615595	2,62125	360	-0,748	83,001	0	1010,56	5,7	7,8	7,7	1	1	1	1	1	1	1	1	1	0	1	-1,057082	273,257597	315,077523	0
15.01.2021	05:01:18	0	0	3,615573	2,751	6,0696	-0,747	82,999	0	1010,72	5,7	7,8	7,8	1	1	1	1	1	1	1	1	1	0	1	-4,651163	273,082707	310,674892	0
15.01.2021	05:01:19	0	0	3,84157	2,976	4,086	-0,746	82,991	0	1010,54	5,7	8	7,7	1	1	1	1	1	1	1	1	1	0	1	-7,047216	273,203396	308,836639	0
15.01.2021	05:01:20	0	0	4,293519	2,961	15,0264	-0,753	82,981	0	1010,48	5,7	7,8	7,7	1	1	1	1	1	1	1	1	1	0	1	-6,976744	273,267598	309,204146	0
15.01.2021	05:01:21	0	0	2,598709	2,7795	20,628	-0,756	82,991	0	1010,44	5,7	7,8	7,7	1	1	1	1	1	1	1	1	1	0	1	-4,157858	273,159292	311,522072	0
15.01.2021	05:01:22	0	0	3,954557	2,82675	360	-0,753	83,002	0	1010,42	5,7	8	7,7	1	1	1	1	1	1	1	1	1	0	1	-5,708245	273,18062	310,070287	0
15.01.2021	05:01:23	0	0	2,259747	3,36375	3,798	-0,745	82,998	0	1010,6	5,7	8	7,7	1	1	1	1	1	1	1	1	1	0	1	-6,694856	273,160713	308,991644	0
15.01.2021	05:01:24	0	0	3,841547	3,52125	16,5564	-0,747	83,001	0	1010,5	5,7	8	7,8	1	1	1	1	1	1	1	1	1	0	1	-7,610994	273,115289	307,865576	0
15.01.2021	05:01:25	0	0	2,259733	3,336	2,2932	-0,756	82,995	0	1010,36	5,7	8	7,8	1	1	1	1	1	1	1	1	1	0	1	-3,946441	273,126635	311,582555	0
15.01.2021	05:01:26	0	0	3,276633	3,645	4,8384	-0,751	82,977	0	1010,5	5,8	8	7,7	1	1	1	1	1	1	1	1	1	0	1	-1,198027	273,112454	314,265443	0
15.01.2021	05:01:27	0	0	2,485707	4,266	16,4808	-0,748	82,994	0	1010,28	5,7	7,8	7,8	1	1	1	1	1	1	1	1	1	0	1	-2,959831	273,111036	312,497089	0
15.01.2021	05:01:28	0	0	4,745468	4,005	18,0972	-0,746	83	0	1010,32	5,8	8	7,7	1	1	1	1	1	1	1	1	1	0	1	-6,060606	273,230477	309,948517	0
15.01.2021	05:01:29	0	0	3,728582	3,6585	13,9356	-0,746	83,002	0	1010,48	5,8	7,8	7,7	1	1	1	1	1	1	1	1	1	0	1	-5,355884	273,270457	310,838236	0
15.01.2021	05:01:30	0	0	5,310373	3,609	13,1652	-0,746	82,982	0	1010,34	5,7	7,8	7,8	1	1	1	1	1	1	1	1	1	0	1	-4,298802	273,20482	311,591641	0
15.01.2021	05:01:31	0	0	2,824667	3,4275	12,8484	-0,748	82,993	0	1010,44	5,7	7,8	7,8	1	1	1	1	1	1	1	1	1	0	1	-3,312192	273,089786	312,046557	0
15.01.2021	05:01:32	0	0	4,406506	3,471	10,4472	-0,746	83,017	0	1010,56	5,7	7,8	7,7	1	1	1	1	1	1	1	1	1	0	1	-7,047216	273,129473	308,494892	0
15.01.2021	05:01:33	0	0	2,824667	3,46275	5,2164	-0,749	82,995	0	1010,52	5,7	7,8	7,8	1	1	1	1	1	1	1	1	1	0	1	-3,382664	273,269027	312,804841	0
15.01.2021	05:01:34	0	0	4,858427	3,222	7,8912	-0,746	83,004	0	1010,58	5,7	7,8	7,8	1	1	1	1	1	1	1	1	1	0	1	-0,704722	273,13373	314,857059	0
15.01.2021	05:01:35	0	0	4,74544	3,1185	2,6496	-0,743	83,009	0	1010,44	5,7	8	7,8	1	1	1	1	1	1	1	1	1	0	1	-3,312192	273,246173	312,769553	0
15.01.2021	05:01:36	0	0	3,163646	3,02175	4,1076	-0,748	83,008	0	1010,42	5,7	8	7,7	1	1	1	1	1	1	1	1	1	0	1	-3,312192	273,129473	312,229917	0
15.01.2021	05:01:37	0	0	3,05064	3,0225	11,7216	-0,744	83,009	0	1010,5	5,8	8	7,8	1	1	1	1	1	1	1	1	1	0	1	-1,268499	273,09545	314,116416	0
15.01.2021	05:01:38	0	0	4,180532	3,2685	9,3708	-0,745	83,007	0	1010,5	5,7	8	7,7	1	1	1	1	1	1	1	1	1	0	1	-7,540521	273,0997	307,864024	0
15.01.2021	05:01:39	0	0	4,858427	3,52575	354,6288	-0,743	83,014	0	1010,52	5,7	7,8	7,8	1	1	1	1	1	1	1	1	1	0	1	-3,664553	273,220495	312,298395	0
15.01.2021	05:01:40	0	0	3,615595	3,741	0,1188	-0,743	83,012	0	1010,58	5,7	8	7,7	1	1	1	1	1	1	1	1	1	0	1	-3,523608	273,102533	311,894028	0
15.01.2021	05:01:41	0	0	4,180507	3,99525	354,2004	-0,746	82,995	0	1010,4	5,7	8	7,8	1	1	1	1	1	1	1	1	1	0	1	-3,382664	273,081292	311,936854	0
15.01.2021	05:01:42	0	0	4,971443	4,14825	12,8448	-0,753	83	0	1010,38	5,7	7,8	7,7	1	1	1	1	1	1	1	1	1	0	1	-9,725159	273,150767	305,915367	0
15.01.2021	05:01:43	0	0	4,293493	4,10325	17,7012	-0,742	82,994	0	1010,42	5,7	8	7,8	1	1	1	1	1	1	1	1	1	0	1	-5,567301	273,092618	309,80453	0
15.01.2021	05:01:44	0	0	3,502587	3,89925	18,8352	-0,752	83,001	0	1010,38	5,7	8	7,8	1	1	1	1	1	1	1	1	1	0	1	-5,426357	273,125216	310,096084	0
15.01.2021	05:01:45	0	0	3,276613	3,7815	13,9104	-0,752	83,001	0	1010,4	5,7	8	7,8	1	1	1	1	1	1	1	1	1	0	1	-5,778717	273,263311	310,382333	0
15.01.2021	05:01:46	0	0	5,197387	3,768	11,7936	-0,743	83,016	0	1010,52	5,7	7,8	7,8	1	1	1	1	1	1	1	1	1	0	1	-6,765328	273,164977	308,940883	0
15.01.2021	05:01:47	0	0	3,05064	3,8805	12,4776	-0,747	83,011	0	1010,28	5,7	8	7,8	1	1	1	1	1	1	1	1	1	0	1	-4,862579	273,075631	310,430796	0
15.01.2021	05:01:48	0	0	4,406506	3,75225	17,244	-0,746	83,004	0	1010,5	5,7	8	7,7	1	1	1	1	1	1	1	1	1	0	1	-4,580691	273,201971	311,296578	0
15.01.2021	05:01:49	0	0	4,745468	3,609	10,818	-0,749	82,997	0	1010,48	5,8	8	7,7	1	1	1	1	1	1	1	1	1	0	1	-4,933051	273,086954	310,412618	0
15.01.2021	05:01:50	0	0	3,276613	3,909	9,8352	-0,739	83,007	0	1010,54	5,7	7,8	7,8	1	1	1	1	1	1	1	1	1	0	1	-0,775194	273,159292	314,904736	0
15.01.2021	05:01:51	0	0	4,06752	4,15575	358,7472	-0,738	83,007	0	1010,5	5,7	7,8	7,8	1	1	1	1	1	1	1	1	1	0	1	-3,875969	273,102533	311,541667	0
15.01.2021	05:01:52	0	0	3,954533	4,2705	2,646	-0,743	82,992	0	1010,52	5,7	8	7,8	1	1	1	1	1	1	1	1	1	0	1	-0	273,069973	315,267242	0
15.01.2021	05:01:53	0	0	3,84157	4,0905	13,9212	-0,741	83,017	0	1010,48	5,7	7,8	7,7	1	1	1	1	1	1	1	1	1	0	1	-0,634249	273,231904	315,381473	0
15.01.2021	05:01:54	0	0	4,519494	3,89475	4,824	-0,746	83,009	0	1010,5	5,7	7,8	7,7	1	1	1	1	1	1	1	1	1	0	1	-4,369274	273,108201	311,074549	0
15.01.2021	05:01:55	0	0	4,632453	3,57975	6,8292	-0,741	83,02	0	1010,54	5,7	7,8	7,8	1	1	1	1	1	1	1	1	1	0	1	-5,708245	273,266169	310,466031	0
15.01.2021	05:01:56	0	0	5,0844	3,44175	0,1332	-0,745	83,012	0	1010,56	5,7	8	7,8	1	1	1	1	1	1	1	1	1	0	1	-2,396054	273,139407	313,191966	0
15.01.2021	05:01:57	0	0	4,632453	3,651	350,3412	-0,744	83,015	0	1010,36	5,8	8	7,8	1	1	1	1	1	1	1	1	1	0	1	-4,792107	273,239037	311,256619	0
15.01.2021	05:01:58	0	0	2,824684	3,83775	356,6232	-0,743	83,018	0	1010,46	5,7	8	7,7	1	1	1	1	1	1	1	1	1	0	1	-5,84919	273,26474	310,318474	0
15.01.2021	05:01:59	0	0	2,71168	3,666	353,9844	-0,737	83,01	0	1010,36	5,7	8	7,8	1	1	1	1	1	1	1	1	1	0	1	-8,245243	273,149347	307,388717	0
15.01.2021	05:02:00	0	0	4,06752	3,6615	1,5552	-0,744	83,013	0	1010,48	5,7	8	7,8	1	1	1	1	1	1	1	1	1	0	1	-4,933051	273,137988	310,648408	0
15.01.2021	05:02:01	0	0	4,06752	3,6615	1,5552	-0,744	83,013	0	1010,48	5,7	8	7,8	1	1	1	1	1	1	1	1	1	0	1	-4,933051	273,137988	310,648408	0
15.01.2021	05:02:02	0	0	4,858427	3,645	2,6316	-0,741	83,011	0	1010,5	5,7	7,8	7,8	1	1	1	1	1	1	1	1	1	0	1	-2,677942	273,101116	312,733148	0
15.01.2021	05:02:03	0	0	3,84157	3,43125	360	-0,75	83,002	0	1010,46	5,7	8	7,7	1	1	1	1	1	1	1	1	1	0	1	-1,902748	273,173508	313,842902	0
15.01.2021	05:02:04	0	0	2,71168	3,4305	3,402	-0,745	83,01	0	1010,5	5,7	8	7,8	1	1	1	1	1	1	1	1	1	0	1	-4,933051	273,267598	311,247839	0
15.01.2021	05:02:05	0	0	5,0844	3,60075	354,2508	-0,744	82,995	0	1010,32	5,7	8	7,8	1	1	1	1	1	1	1	1	1	0	1	-6,131078	273,153608	309,52258	0
15.01.2021	05:02:06	0	0	2,485707	3,966	360	-0,748	82,995	0	1010,44	5,7	7,8	7,8	1	1	1	1	1	1	1	1	1	0	1	-5,285412	273,116707	310,197709	0
15.01.2021	05:02:07	0	0	3,3896	3,93525	360	-0,745	83,006	0	1010,48	5,7	8	7,8	1	1	1	1	1	1	1	1	1	0	1	-4,087385	273,160713	311,599114	0
15.01.2021	05:02:08	0	0	5,42336	3,747	0,1224	-0,743	83,005	0	1010,5	5,7	8	7,8	1	1	1	1	1	1	1	1	1	0	1	-1,338971	273,118125	314,150702	0
15.01.2021	05:02:09	0	0	3,502587	3,732	4,464	-0,747	83,004	0	1010,48	5,7	8	7,8	1	1	1	1	1	1	1	1	1	0	1	-9,654686	273,259025	306,48653	0
15.01.2021	05:02:10	0	0	2,71168	3,81525	3,0168	-0,748	83,005	0	1010,42	5,7	8	7,8	1	1	1	1	1	1	1	1	1	0	1	-3,875969	273,082707	311,450086	0
15.01.2021	05:02:11	0	0	3,954533	3,7365	356,1732	-0,741	83,011	0	1010,5	5,7	8	7,8	1	1	1	1	1	1	1	1	1	0	1	-2,677942	273,276175	313,542644	0
15.01.2021	05:02:12	0	0	2,71168	3,4635	353,9592	-0,74	83,017	0	1010,5	5,7	8	7,8	1	1	1	1	1	1	1	1	1	0	1	-2,889359	273,193428	312,948399	0
15.01.2021	05:02:13	0	0	3,163627	3,4005	349,3944	-0,739	83,013	0	1010,52	5,7	8	7,8	1	1	1	1	1	1	1	1	1	0	1	-6,131078	273,098283	309,266923	0
15.01.2021	05:02:14	0	0	4,40648	3,5445	15,3936	-0,745	83	0	1010,58	5,7	7,8	7,8	1	1	1	1	1	1	1	1	1	0	1	-4,087385	273,106784	311,34989	0
15.01.2021	05:02:15	0	0	4,858427	3,58575	2,6172	-0,742	83,018	0	1010,46	5,7	8	7,8	1	1	1	1	1	1	1	1	1	0	1	-6,8358	273,084123	308,496793	0
15.01.2021	05:02:16	0	0	2,711696	3,7665	0,846	-0,724	83,008	0	1010,42	5,7	8	7,7	1	1	1	1	1	1	1	1	1	0	1	-7,188161	273,115289	308,288409	0
15.01.2021	05:02:17	0	0	2,937653	3,68175	353,6172	-0,745	82,999	0	1010,48	5,7	8	7,8	1	1	1	1	1	1	1	1	1	0	1	-3,735025	273,199123	312,129071	0
15.01.2021	05:02:18	0	0	4,293493	3,561	354,9672	-0,737	83,023	0	1010,52	5,7	8	7,8	1	1	1	1	1	1	1	1	1	0	1	-3,171247	273,263311	312,989803	0
15.01.2021	05:02:19	0	0	4,180507	3,42975	357,6348	-0,744	83,017	0	1010,6	5,7	8	7,8	1	1	1	1	1	1	1	1	1	0	1	-3,030303	273,201971	312,846965	0
15.01.2021	05:02:20	0	0	2,937653	3,39375	360	-0,746	83,008	0	1010,34	5,7	8	7,8	1	1	1	1	1	1	1	1	1	0	1	-2,396054	273,102533	313,021582	0
15.01.2021	05:02:21	0	0	3,841547	3,4635	9,7344	-0,739	83,032	0	1010,6	5,7	8	7,8	1	1	1	1	1	1	1	1	1	0	1	-5,990134	273,200547	309,880548	0
15.01.2021	05:02:22	0	0	4,40648	3,537	11,2032	-0,746	83,02	0	1010,46	5,7	8	7,8	1	1	1	1	1	1	1	1	1	0	1	-9,936575	273,274745	306,277394	0
15.01.2021	05:02:23	0	0	3,841547	3,3765	17,2296	-0,743	83,02	0	1010,42	5,7	8	7,8	1	1	1	1	1	1	1	1	1	0	1	-4,298802	273,203396	311,585054	0
15.01.2021	05:02:24	0	0	4,858427	3,1425	8,6292	-0,743	83,026	0	1010,44	5,7	8	7,8	1	1	1	1	1	1	1	1	1	0	1	-5,567301	273,072802	309,713006	0
15.01.2021	05:02:25	0	0	3,72856	2,79	20,2896	-0,74	83,022	0	1010,48	5,7	8	7,8	1	1	1	1	1	1	1	1	1	0	1	-3,735025	273,159292	311,944905	0
15.01.2021	05:02:26	0	0	3,841547	2,703	18,0792	-0,737	83,018	0	1010,54	5,7	8	7,8	1	1	1	1	1	1	1	1	1	0	1	-5,990134	273,108201	309,453689	0
15.01.2021	05:02:27	0	0	4,519467	2,58225	20,358	-0,743	83,027	0	1010,46	5,7	8	7,8	1	1	1	1	1	1	1	1	1	0	1	-4,651163	273,236183	311,38436	0
15.01.2021	05:02:28	0	0	4,858427	2,60475	1,1736	-0,737	83,026	0	1010,52	5,7	8	7,8	1	1	1	1	1	1	1	1	1	0	1	-4,792107	273,135149	310,776233	0
15.01.2021	05:02:29	0	0	3,163627	2,895	4,8312	-0,738	83,011	0	1010,48	5,7	8	7,8	1	1	1	1	1	1	1	1	1	0	1	-7,117689	273,240464	308,93764	0
15.01.2021	05:02:30	0	0	5,084431	3,144	9,3744	-0,735	83,027	0	1010,48	5,7	8	7,7	1	1	1	1	1	1	1	1	1	0	1	-5,144468	273,244746	310,930672	0
15.01.2021	05:02:31	0	0	4,858427	3,37275	19,1412	-0,742	83,02	0	1010,48	5,7	8	7,8	1	1	1	1	1	1	1	1	1	0	1	-5,778717	273,259025	310,362499	0
15.01.2021	05:02:32	0	0	4,180507	3,3675	12,1032	-0,738	83,019	0	1010,46	5,8	8	7,8	1	1	1	1	1	1	1	1	1	0	1	-6,342495	273,136568	309,232405	0
15.01.2021	05:02:33	0	0	2,71168	3,2865	16,4844	-0,741	83,031	0	1010,5	5,7	8	7,8	1	1	1	1	1	1	1	1	1	0	1	-4,510218	273,269027	311,677286	0
15.01.2021	05:02:34	0	0	4,06752	3,26625	16,092	-0,74	83,038	0	1010,56	5,7	8	7,8	1	1	1	1	1	1	1	1	1	0	1	-4,510218	273,177775	311,255159	0
15.01.2021	05:02:35	0	0	3,72856	3,306	16,8624	-0,737	83,02	0	1010,3	5,7	8	7,8	1	1	1	1	1	1	1	1	1	0	1	-6,483439	273,26474	309,684224	0
15.01.2021	05:02:36	0	0	4,858427	3,3135	21,3696	-0,745	83,031	0	1010,16	5,7	7,9	7,8	1	1	1	1	1	1	1	1	1	0	1	-1,973221	273,125216	313,54922	0
15.01.2021	05:02:37	0	0	5,42336	3,33225	20,6388	-0,734	83,039	0	1010,5	5,7	7,8	7,8	1	1	1	1	1	1	1	1	1	0	1	-5,708245	273,08837	309,643964	0
15.01.2021	05:02:38	0	0	4,971413	3,27675	20,6496	-0,738	83,035	0	1010,4	5,7	8	7,8	1	1	1	1	1	1	1	1	1	0	1	-4,933051	273,115289	310,543519	0
15.01.2021	05:02:39	0	0	4,74544	2,99925	17,2512	-0,733	83,026	0	1010,54	5,7	8	7,8	1	1	1	1	1	1	1	1	1	0	1	-3,453136	273,13373	312,108645	0
15.01.2021	05:02:40	0	0	4,858427	2,9925	10,8108	-0,739	83,031	0	1010,5	5,7	8	7,8	1	1	1	1	1	1	1	1	1	0	1	-3,805497	273,123798	311,710389	0
15.01.2021	05:02:41	0	0	5,310373	2,91525	12,852	-0,74	83,033	0	1010,42	5,7	8	7,8	1	1	1	1	1	1	1	1	1	0	1	-2,466526	273,231904	313,549197	0
15.01.2021	05:02:42	0	0	3,954533	3,05475	22,068	-0,739	83,044	0	1010,54	5,7	8	7,8	1	1	1	1	1	1	1	1	1	0	1	-1,479915	273,08837	313,872294	0
15.01.2021	05:02:43	0	0	3,276613	3,204	19,9152	-0,736	83,033	0	1010,34	5,7	8	7,8	1	1	1	1	1	1	1	1	1	0	1	-7,681466	273,189157	308,136545	0
15.01.2021	05:02:44	0	0	3,615573	3,18075	3,7836	-0,738	83,037	0	1010,52	5,7	8	7,8	1	1	1	1	1	1	1	1	1	0	1	-5,426357	273,081292	309,893161	0
15.01.2021	05:02:45	0	0	3,3896	3,2715	0,1404	-0,745	83,041	0	1010,4	5,7	8	7,8	1	1	1	1	1	1	1	1	1	0	1	-1,62086	272,940282	313,047881	0
15.01.2021	05:02:46	0	0	4,971413	3,42975	3,78	-0,742	83,046	0	1010,54	5,7	8	7,8	1	1	1	1	1	1	1	1	1	0	1	-3,59408	273,160713	312,092419	0
15.01.2021	05:02:47	0	0	5,310373	3,498	3,78	-0,731	83,049	0	1010,6	5,7	8	7,8	1	1	1	1	1	1	1	1	1	0	1	-3,946441	273,089786	311,412308	0
15.01.2021	05:02:48	0	0	3,276613	3,44925	354,2472	-0,739	83,03	0	1010,38	5,7	8	7,8	1	1	1	1	1	1	1	1	1	0	1	-3,59408	273,15645	312,072712	0
15.01.2021	05:02:49	0	0	3,72856	3,56775	6,4476	-0,737	83,037	0	1010,52	5,7	8	7,8	1	1	1	1	1	1	1	1	1	0	1	-2,748414	273,091201	312,616875	0
15.01.2021	05:02:50	0	0	4,40648	3,75525	13,5576	-0,737	83,026	0	1010,6	5,7	8	7,8	1	1	1	1	1	1	1	1	1	0	1	-3,030303	273,16782	312,689052	0
15.01.2021	05:02:51	0	0	3,163627	3,8535	15,0336	-0,74	83,04	0	1010,38	5,7	8	7,8	1	1	1	1	1	1	1	1	1	0	1	-3,382664	273,266169	312,791613	0
15.01.2021	05:02:52	0	0	4,858427	3,8895	17,244	-0,741	83,033	0	1010,34	5,7	8	7,8	1	1	1	1	1	1	1	1	1	0	1	-6,483439	273,203396	309,400417	0
15.01.2021	05:02:53	0	0	2,824667	3,69525	18,09	-0,734	83,029	0	1010,46	5,8	8	7,8	1	1	1	1	1	1	1	1	1	0	1	-3,664553	273,266169	312,509724	0
15.01.2021	05:02:54	0	0	4,632453	3,54675	25,038	-0,737	83,051	0	1010,36	5,7	8	7,8	1	1	1	1	1	1	1	1	1	0	1	-4,651163	273,172086	311,087913	0
15.01.2021	05:02:55	0	0	3,841547	3,72225	11,7288	-0,734	83,042	0	1010,52	5,7	7,8	7,8	1	1	1	1	1	1	1	1	1	0	1	-4,22833	273,091201	311,13696	0
15.01.2021	05:02:56	0	0	4,74544	3,951	25,7724	-0,736	83,043	0	1010,56	5,8	8	7,8	1	1	1	1	1	1	1	1	1	0	1	-4,298802	273,192004	311,532373	0
15.01.2021	05:02:57	0	0	3,3896	4,02225	18,0792	-0,734	83,052	0	1010,26	5,7	8	7,8	1	1	1	1	1	1	1	1	1	0	1	-5,003524	273,086954	310,342146	0
15.01.2021	05:02:58	0	0	3,05064	4,62225	25,7832	-0,73	83,052	0	1010,54	5,7	8	7,8	1	1	1	1	1	1	1	1	1	0	1	-6,20155	273,203396	309,682305	0
15.01.2021	05:02:59	0	0	4,74544	4,668	11,7108	-0,735	83,043	0	1010,34	5,7	8	7,8	1	1	1	1	1	1	1	1	1	0	1	-5,426357	273,267598	310,754534	0
15.01.2021	05:03:00	0	0	4,06752	3,89625	359,1	-0,739	83,045	0	1010,5	5,7	8	7,8	1	1	1	1	1	1	1	1	1	0	1	-0,845666	273,140827	314,748915	0
15.01.2021	05:03:01	0	0	4,06752	3,89625	359,1	-0,739	83,045	0	1010,5	5,7	8	7,8	1	1	1	1	1	1	1	1	1	0	1	-0,845666	273,140827	314,748915	0
15.01.2021	05:03:02	0	0	2,824667	4,0035	0,4896	-0,736	83,036	0	1010,56	5,7	8	7,8	1	1	1	1	1	1	1	1	1	0	1	-4,298802	273,017709	310,727148	0
15.01.2021	05:03:03	0	0	4,971413	4,2675	8,2656	-0,74	83,048	0	1010,5	5,7	8	7,8	1	1	1	1	1	1	1	1	1	0	1	-4,087385	273,256169	312,040611	0
15.01.2021	05:03:04	0	0	3,841547	4,6275	8,9748	-0,734	83,046	0	1010,56	5,8	8	7,8	1	1	1	1	1	1	1	1	1	0	1	-1,832276	273,230477	314,176847	0
15.01.2021	05:03:05	0	0	3,502587	4,8345	3,0384	-0,734	83,062	0	1010,58	5,7	8	7,8	1	1	1	1	1	1	1	1	1	0	1	-4,721635	273,147927	310,905761	0
15.01.2021	05:03:06	0	0	3,502587	4,9905	3,7944	-0,731	83,05	0	1010,46	5,8	8	7,8	1	1	1	1	1	1	1	1	1	0	1	-4,369274	273,267598	311,811616	0
15.01.2021	05:03:07	0	0	4,519467	5,064	6,156	-0,734	83,046	0	1010,38	5,8	8	7,8	1	1	1	1	1	1	1	1	1	0	1	-4,862579	273,16782	310,856776	0
15.01.2021	05:03:08	0	0	3,502587	4,97775	7,8768	-0,733	83,052	0	1010,28	5,7	8	7,8	1	1	1	1	1	1	1	1	1	0	1	-7,681466	273,085538	307,657665	0
15.01.2021	05:03:09	0	0	2,71168	5,06325	10,4364	-0,742	83,054	0	1010,44	5,7	8	7,8	1	1	1	1	1	1	1	1	1	0	1	-1,268499	273,13373	314,293282	0
15.01.2021	05:03:10	0	0	3,05064	5,01075	9,756	-0,737	83,061	0	1010,56	5,7	7,9	7,8	1	1	1	1	1	1	1	1	1	0	1	-6,624383	273,263311	309,536667	0
15.01.2021	05:03:11	0	0	4,293493	4,97475	2,6604	-0,733	83,052	0	1010,38	5,7	8	7,8	1	1	1	1	1	1	1	1	1	0	1	-2,959831	273,216219	312,983335	0
15.01.2021	05:03:12	0	0	2,37272	4,9185	4,0968	-0,729	83,061	0	1010,46	5,7	8	7,8	1	1	1	1	1	1	1	1	1	0	1	-6,483439	273,120961	309,019339	0
15.01.2021	05:03:13	0	0	4,74544	4,65	0	-0,741	83,066	0	1010,52	5,7	8	7,8	1	1	1	1	1	1	1	1	1	0	1	-3,312192	273,267598	312,868699	0
15.01.2021	05:03:14	0	0	3,502587	4,3425	8,2836	-0,736	83,066	0	1010,4	5,7	8	7,8	1	1	1	1	1	1	1	1	1	0	1	-6,20155	273,135149	309,36679	0
15.01.2021	05:03:15	0	0	3,954533	4,36875	4,842	-0,732	83,039	0	1010,46	5,7	8	7,8	1	1	1	1	1	1	1	1	1	0	1	-2,255109	273,243319	313,813427	0
15.01.2021	05:03:16	0	0	2,598693	4,206	0,8748	-0,733	83,062	0	1010,48	5,7	8	7,8	1	1	1	1	1	1	1	1	1	0	1	-4,721635	273,192004	311,10954	0
15.01.2021	05:03:17	0	0	3,72856	4,0335	2,6496	-0,733	83,065	0	1010,42	5,8	8	7,8	1	1	1	1	1	1	1	1	1	0	1	-2,677942	273,276175	313,542644	0
15.01.2021	05:03:18	0	0	4,06752	3,9615	8,9964	-0,733	83,059	0	1010,52	5,7	7,9	7,8	1	1	1	1	1	1	1	1	1	0	1	-8,033827	273,209094	307,876383	0
15.01.2021	05:03:19	0	0	4,06752	4,05525	9,0036	-0,729	83,062	0	1010,58	5,7	8	7,8	1	1	1	1	1	1	1	1	1	0	1	-1,479915	273,108201	313,963908	0
15.01.2021	05:03:20	0	0	4,406506	4,1715	5,688	-0,735	83,063	0	1010,56	5,7	8	7,7	1	1	1	1	1	1	1	1	1	0	1	-4,087385	273,159292	311,592544	0
15.01.2021	05:03:21	0	0	2,824667	4,25925	1,9404	-0,737	83,049	0	1010,52	5,8	8	7,8	1	1	1	1	1	1	1	1	1	0	1	-3,24172	273,17493	312,510506	0
15.01.2021	05:03:22	0	0	4,293493	3,87	7,128	-0,734	83,054	0	1010,54	5,7	8	7,8	1	1	1	1	1	1	1	1	1	0	1	-3,875969	273,239037	312,172757	0
15.01.2021	05:03:23	0	0	4,180507	3,603	17,6904	-0,729	83,066	0	1010,5	5,7	8	7,8	1	1	1	1	1	1	1	1	1	0	1	-3,100775	273,137988	312,480684	0
15.01.2021	05:03:24	0	0	3,615573	3,4485	11,196	-0,739	83,07	0	1010,34	5,8	7,8	7,8	1	1	1	1	1	1	1	1	1	0	1	-3,875969	273,091201	311,489321	0
15.01.2021	05:03:25	0	0	4,180507	3,498	21,0096	-0,733	83,058	0	1010,4	5,7	7,9	7,8	1	1	1	1	1	1	1	1	1	0	1	-5,355884	273,160713	310,330615	0
15.01.2021	05:03:26	0	0	4,858427	3,36375	14,6592	-0,732	83,084	0	1010,54	5,7	7,9	7,8	1	1	1	1	1	1	1	1	1	0	1	-3,664553	273,261883	312,489886	0
15.01.2021	05:03:27	0	0	3,3896	3,39675	17,2296	-0,733	83,075	0	1010,36	5,7	7,9	7,8	1	1	1	1	1	1	1	1	1	0	1	-3,312192	273,207669	312,591429	0
15.01.2021	05:03:28	0	0	5,197387	3,369	25,0344	-0,736	83,079	0	1010,48	5,8	8	7,8	1	1	1	1	1	1	1	1	1	0	1	-4,157858	273,106784	311,279418	0
15.01.2021	05:03:29	0	0	2,824667	3,4065	10,17	-0,738	83,072	0	1010,36	5,7	8	7,8	1	1	1	1	1	1	1	1	1	0	1	-7,329105	273,170664	308,403396	0
15.01.2021	05:03:30	0	0	2,824667	3,4425	3,7908	-0,736	83,066	0	1010,48	5,7	8	7,8	1	1	1	1	1	1	1	1	1	0	1	-5,21494	273,21907	310,741413	0
15.01.2021	05:03:31	0	0	4,180507	3,3495	1,1844	-0,735	83,077	0	1010,46	5,8	8	7,8	1	1	1	1	1	1	1	1	1	0	1	-4,862579	273,210519	311,054221	0
15.01.2021	05:03:32	0	0	3,72856	3,2145	350,2836	-0,737	83,079	0	1010,52	5,7	8	7,8	1	1	1	1	1	1	1	1	1	0	1	-3,805497	273,101116	311,605594	0
15.01.2021	05:03:33	0	0	4,858427	2,9625	350,28	-0,735	83,074	0	1010,66	5,8	7,9	7,8	1	1	1	1	1	1	1	1	1	0	1	-2,255109	273,223347	313,721028	0
15.01.2021	05:03:34	0	0	4,180507	2,958	358,7076	-0,735	83,082	0	1010,52	5,8	8	7,8	1	1	1	1	1	1	1	1	1	0	1	-4,22833	273,189157	311,589681	0
15.01.2021	05:03:35	0	0	3,276613	2,7555	1,17	-0,732	83,076	0	1010,62	5,7	8	7,8	1	1	1	1	1	1	1	1	1	0	1	-5,144468	273,091201	310,220822	0
15.01.2021	05:03:36	0	0	3,72856	2,6415	5,688	-0,731	83,057	0	1010,36	5,7	7,9	7,8	1	1	1	1	1	1	1	1	1	0	1	-6,342495	273,15645	309,324298	0
15.01.2021	05:03:37	0	0	4,632453	2,74425	9,3744	-0,736	83,078	0	1010,56	5,7	8	7,8	1	1	1	1	1	1	1	1	1	0	1	-9,161381	273,270457	307,032739	0
15.01.2021	05:03:38	0	0	2,937653	2,86725	23,2128	-0,732	83,074	0	1010,6	5,8	8	7,8	1	1	1	1	1	1	1	1	1	0	1	-5,355884	273,164977	310,350326	0
15.01.2021	05:03:39	0	0	3,841547	2,86875	21,762	-0,733	83,076	0	1010,58	5,7	7,9	7,8	1	1	1	1	1	1	1	1	1	0	1	-8,527132	273,094034	306,851241	0
15.01.2021	05:03:40	0	0	2,598693	2,9085	32,1444	-0,736	83,074	0	1010,48	5,8	8	7,8	1	1	1	1	1	1	1	1	1	0	1	-5,21494	273,113871	310,255079	0
15.01.2021	05:03:41	0	0	2,824667	2,9565	21,3948	-0,733	83,076	0	1010,56	5,7	8	7,8	1	1	1	1	1	1	1	1	1	0	1	-0	273,203396	315,883856	0
15.01.2021	05:03:42	0	0	4,971413	2,7045	359,388	-0,731	83,087	0	1010,64	5,8	8	7,8	1	1	1	1	1	1	1	1	1	0	1	-7,540521	273,274745	308,673447	0
15.01.2021	05:03:43	0	0	3,05064	2,529	359,8308	-0,732	83,078	0	1010,56	5,8	7,9	7,8	1	1	1	1	1	1	1	1	1	0	1	-5,21494	273,266169	310,959336	0
15.01.2021	05:03:44	0	0	4,40648	2,43225	359,082	-0,737	83,082	0	1010,46	5,7	8	7,8	1	1	1	1	1	1	1	1	1	0	1	-0	273,105367	315,430728	0
15.01.2021	05:03:45	0	0	5,197387	2,42175	354,186	-0,732	83,081	0	1010,46	5,8	8	7,8	1	1	1	1	1	1	1	1	1	0	1	-4,087385	273,260454	312,060442	0
15.01.2021	05:03:46	0	0	4,519467	2,43825	356,5044	-0,733	83,072	0	1010,38	5,7	8	7,8	1	1	1	1	1	1	1	1	1	0	1	-1,62086	273,152188	314,026232	0
15.01.2021	05:03:47	0	0	3,502587	2,4015	358,6716	-0,737	83,079	0	1010,44	5,7	7,9	7,8	1	1	1	1	1	1	1	1	1	0	1	-2,748414	273,274745	313,465554	0
15.01.2021	05:03:48	0	0	2,824667	2,442	358,452	-0,735	83,078	0	1010,42	5,7	8	7,8	1	1	1	1	1	1	1	1	1	0	1	-3,030303	273,13373	312,531478	0
15.01.2021	05:03:49	0	0	3,276613	2,505	2,3004	-0,73	83,087	0	1010,44	5,8	7,9	7,8	1	1	1	1	1	1	1	1	1	0	1	-0	273,226199	315,98933	0
15.01.2021	05:03:50	0	0	2,485707	2,7135	358,02	-0,741	83,08	0	1010,42	5,8	8	7,8	1	1	1	1	1	1	1	1	1	0	1	-7,610994	273,273316	308,596358	0
15.01.2021	05:03:51	0	0	3,72856	2,92875	23,5872	-0,739	83,091	0	1010,58	5,8	8	7,8	1	1	1	1	1	1	1	1	1	0	1	-5,778717	273,189157	310,039294	0
15.01.2021	05:03:52	0	0	3,502587	2,95575	359,5572	-0,731	83,09	0	1010,58	5,8	7,9	7,8	1	1	1	1	1	1	1	1	1	0	1	-1,409443	273,108201	314,03438	0
15.01.2021	05:03:53	0	0	4,858427	3,252	9,3636	-0,737	83,092	0	1010,42	5,7	8	7,8	1	1	1	1	1	1	1	1	1	0	1	-3,312192	273,283325	312,941491	0
15.01.2021	05:03:54	0	0	3,615573	3,48975	4,1148	-0,733	83,091	0	1010,6	5,8	8	7,8	1	1	1	1	1	1	1	1	1	0	1	-3,523608	273,229051	312,478917	0
15.01.2021	05:03:55	0	0	2,937653	3,56475	2,7396	-0,728	83,092	0	1010,42	5,8	7,9	7,8	1	1	1	1	1	1	1	1	1	0	1	-3,312192	273,105367	312,118537	0
15.01.2021	05:03:56	0	0	3,163627	3,51825	10,0656	-0,739	83,091	0	1010,44	5,8	7,9	7,8	1	1	1	1	1	1	1	1	1	0	1	-3,171247	273,170664	312,561254	0
15.01.2021	05:03:57	0	0	2,259733	3,537	360	-0,73	83,097	0	1010,52	5,8	7,9	7,8	1	1	1	1	1	1	1	1	1	0	1	-1,409443	273,098283	313,988558	0
15.01.2021	05:03:58	0	0	3,615573	3,5385	357,1884	-0,734	83,083	0	1010,54	5,8	7,9	7,8	1	1	1	1	1	1	1	1	1	0	1	-1,057082	273,234757	314,97184	0
15.01.2021	05:03:59	0	0	4,293493	3,54525	7,884	-0,729	83,1	0	1010,58	5,8	7,9	7,8	1	1	1	1	1	1	1	1	1	0	1	-1,057082	273,283325	315,1966	0
15.01.2021	05:04:00	0	0	2,485707	3,29625	10,0332	-0,736	83,105	0	1010,5	5,7	7,8	7,8	1	1	1	1	1	1	1	1	1	0	1	-0	273,270457	316,19412	0
15.01.2021	05:04:01	0	0	2,485707	3,29625	10,0332	-0,736	83,105	0	1010,5	5,7	7,8	7,8	1	1	1	1	1	1	1	1	1	0	1	-0	273,270457	316,19412	0
15.01.2021	05:04:02	0	0	2,937653	3,1395	356,0976	-0,732	83,101	0	1010,44	5,8	8	7,8	1	1	1	1	1	1	1	1	1	0	1	-6,8358	273,142247	308,765343	0
15.01.2021	05:04:03	0	0	5,310373	3,114	359,9568	-0,73	83,106	0	1010,6	5,8	8	7,8	1	1	1	1	1	1	1	1	1	0	1	-2,255109	273,216219	313,688057	0
15.01.2021	05:04:04	0	0	3,276613	3,114	2,6316	-0,735	83,085	0	1010,46	5,8	8	7,8	1	1	1	1	1	1	1	1	1	0	1	-0	273,128054	315,535552	0
15.01.2021	05:04:05	0	0	2,937653	3,153	15,0228	-0,731	83,088	0	1010,54	5,8	8	7,8	1	1	1	1	1	1	1	1	1	0	1	-0,140944	273,214794	315,79563	0
15.01.2021	05:04:06	0	0	3,615573	3,23175	6,8004	-0,738	83,112	0	1010,48	5,7	8	7,8	1	1	1	1	1	1	1	1	1	0	1	-10,711769	273,229051	305,290756	0
15.01.2021	05:04:07	0	0	4,74544	3,36075	11,7252	-0,725	83,11	0	1010,62	5,8	7,9	7,8	1	1	1	1	1	1	1	1	1	0	1	-0	273,120961	315,502778	0
15.01.2021	05:04:08	0	0	4,40648	3,37575	22,824	-0,73	83,113	0	1010,66	5,8	7,9	7,8	1	1	1	1	1	1	1	1	1	0	1	-3,946441	273,108201	311,497382	0
15.01.2021	05:04:09	0	0	3,615573	3,2325	9,3672	-0,735	83,111	0	1010,56	5,8	8	7,8	1	1	1	1	1	1	1	1	1	0	1	-3,523608	273,213369	312,406374	0
15.01.2021	05:04:10	0	0	2,937653	3,2295	16,4988	-0,727	83,113	0	1010,42	5,8	8	7,8	1	1	1	1	1	1	1	1	1	0	1	-5,144468	273,271886	311,056268	0
15.01.2021	05:04:11	0	0	2,824667	3,417	19,908	-0,74	83,109	0	1010,48	5,7	7,9	7,8	1	1	1	1	1	1	1	1	1	0	1	-4,016913	273,224773	311,96582	0
15.01.2021	05:04:12	0	0	4,632453	3,66225	13,932	-0,731	83,108	0	1010,48	5,7	8	7,8	1	1	1	1	1	1	1	1	1	0	1	-2,536998	273,231904	313,478725	0
15.01.2021	05:04:13	0	0	4,858427	3,79725	13,932	-0,726	83,114	0	1010,58	5,8	7,9	7,8	1	1	1	1	1	1	1	1	1	0	1	-4,157858	273,269027	312,029647	0
15.01.2021	05:04:14	0	0	5,197387	3,888	12,0996	-0,728	83,118	0	1010,42	5,8	7,9	7,8	1	1	1	1	1	1	1	1	1	0	1	-6,20155	273,200547	309,669132	0
15.01.2021	05:04:15	0	0	4,858427	3,714	360	-0,735	83,114	0	1010,52	5,8	8	7,8	1	1	1	1	1	1	1	1	1	0	1	-2,184637	273,09545	313,200278	0
15.01.2021	05:04:16	0	0	4,519467	3,36975	358,7148	-0,729	83,116	0	1010,5	5,8	7,9	7,8	1	1	1	1	1	1	1	1	1	0	1	-4,157858	273,246173	311,923887	0
15.01.2021	05:04:17	0	0	3,841547	3,2175	4,8456	-0,73	83,116	0	1010,38	5,8	7,9	7,8	1	1	1	1	1	1	1	1	1	0	1	-4,157858	273,113871	311,312162	0
15.01.2021	05:04:18	0	0	4,971413	3,0135	2,2968	-0,731	83,12	0	1010,46	5,8	7,9	7,8	1	1	1	1	1	1	1	1	1	0	1	-3,59408	273,236183	312,441443	0
15.01.2021	05:04:19	0	0	2,71168	2,88	356,9328	-0,731	83,104	0	1010,54	5,7	7,9	7,8	1	1	1	1	1	1	1	1	1	0	1	-4,510218	273,102533	310,907417	0
15.01.2021	05:04:20	0	0	3,615573	2,87175	5,2236	-0,727	83,127	0	1010,48	5,7	8	7,8	1	1	1	1	1	1	1	1	1	0	1	-3,664553	273,227625	312,331375	0
15.01.2021	05:04:21	0	0	2,824667	2,93625	9,3744	-0,727	83,117	0	1010,48	5,8	7,9	7,8	1	1	1	1	1	1	1	1	1	0	1	-5,567301	273,201971	310,309968	0
15.01.2021	05:04:22	0	0	4,293493	2,766	8,2512	-0,728	83,125	0	1010,5	5,8	8	7,8	1	1	1	1	1	1	1	1	1	0	1	-4,580691	273,277605	311,646514	0
15.01.2021	05:04:23	0	0	4,40648	2,90925	17,244	-0,73	83,118	0	1010,44	5,8	7,9	7,8	1	1	1	1	1	1	1	1	1	0	1	-14,023961	273,196275	301,826965	0
15.01.2021	05:04:24	0	0	4,519467	2,916	15,0444	-0,731	83,125	0	1010,4	5,8	7,9	7,8	1	1	1	1	1	1	1	1	1	0	1	-3,523608	273,286186	312,743317	0
15.01.2021	05:04:25	0	0	3,3896	2,93625	10,4544	-0,727	83,134	0	1010,42	5,8	8	7,8	1	1	1	1	1	1	1	1	1	0	1	-2,184637	273,153608	313,469021	0
15.01.2021	05:04:26	0	0	3,841547	3,0585	4,4892	-0,727	83,129	0	1010,52	5,8	8	7,8	1	1	1	1	1	1	1	1	1	0	1	-7,540521	273,227625	308,455406	0
15.01.2021	05:04:27	0	0	4,632453	3,192	2,304	-0,729	83,133	0	1010,48	5,8	7,9	7,8	1	1	1	1	1	1	1	1	1	0	1	-4,933051	273,274745	311,280917	0
15.01.2021	05:04:28	0	0	3,72856	3,17025	2,3184	-0,734	83,128	0	1010,66	5,7	7,9	7,8	1	1	1	1	1	1	1	1	1	0	1	-6,20155	273,153608	309,452108	0
15.01.2021	05:04:29	0	0	3,3896	3,10575	6,0768	-0,728	83,131	0	1010,62	5,8	7,9	7,8	1	1	1	1	1	1	1	1	1	0	1	-4,016913	273,283325	312,236769	0
15.01.2021	05:04:30	0	0	2,824667	3,02475	4,0896	-0,726	83,125	0	1010,54	5,8	7,9	7,8	1	1	1	1	1	1	1	1	1	0	1	-0,281889	273,184888	315,51638	0
15.01.2021	05:04:31	0	0	4,40648	2,898	12,0996	-0,73	83,123	0	1010,48	5,8	7,9	7,8	1	1	1	1	1	1	1	1	1	0	1	-5,426357	273,267598	310,754534	0
15.01.2021	05:04:32	0	0	3,163627	2,83425	7,5024	-0,731	83,126	0	1010,66	5,8	7,9	7,8	1	1	1	1	1	1	1	1	1	0	1	-2,255109	273,140827	313,339472	0
15.01.2021	05:04:33	0	0	3,954533	2,868	1,5588	-0,726	83,115	0	1010,4	5,8	7,9	7,8	1	1	1	1	1	1	1	1	1	0	1	-4,016913	273,214794	311,919661	0
15.01.2021	05:04:34	0	0	3,05064	2,86125	10,8108	-0,725	83,127	0	1010,48	5,8	8	7,8	1	1	1	1	1	1	1	1	1	0	1	-2,325581	273,147927	313,301814	0
15.01.2021	05:04:35	0	0	3,615573	2,87475	9,6948	-0,73	83,128	0	1010,56	5,8	7,9	7,8	1	1	1	1	1	1	1	1	1	0	1	-5,144468	273,270457	311,049652	0
15.01.2021	05:04:36	0	0	4,06752	2,919	8,6148	-0,729	83,131	0	1010,64	5,8	7,9	7,8	1	1	1	1	1	1	1	1	1	0	1	-7,540521	273,260454	308,607306	0
15.01.2021	05:04:37	0	0	3,163627	2,7645	12,8628	-0,728	83,118	0	1010,52	5,8	7,9	7,8	1	1	1	1	1	1	1	1	1	0	1	-2,536998	273,210519	313,379802	0
15.01.2021	05:04:38	0	0	2,937653	2,52825	10,0656	-0,726	83,133	0	1010,54	5,8	7,9	7,8	1	1	1	1	1	1	1	1	1	0	1	-7,188161	273,086954	308,157509	0
15.01.2021	05:04:39	0	0	2,937653	2,4165	4,0896	-0,726	83,132	0	1010,64	5,8	7,9	7,8	1	1	1	1	1	1	1	1	1	0	1	-2,536998	273,18062	313,241535	0
15.01.2021	05:04:40	0	0	4,632453	2,439	0,4932	-0,724	83,131	0	1010,62	5,8	7,9	7,8	1	1	1	1	1	1	1	1	1	0	1	-5,778717	273,113871	309,691302	0
15.01.2021	05:04:41	0	0	4,74544	2,52975	2,3076	-0,727	83,147	0	1010,64	5,8	7,9	7,8	1	1	1	1	1	1	1	1	1	0	1	-0,916138	273,256169	315,211858	0
15.01.2021	05:04:42	0	0	4,858427	2,6865	2,6496	-0,732	83,133	0	1010,48	5,8	7,9	7,8	1	1	1	1	1	1	1	1	1	0	1	-6,131078	273,203396	309,752777	0
15.01.2021	05:04:43	0	0	2,824667	3,0405	6,0768	-0,732	83,126	0	1010,46	5,8	7,9	7,8	1	1	1	1	1	1	1	1	1	0	1	-3,805497	273,271886	312,395239	0
15.01.2021	05:04:44	0	0	3,05064	3,084	360	-0,727	83,134	0	1010,46	5,8	7,9	7,8	1	1	1	1	1	1	1	1	1	0	1	-0	273,140827	315,594581	0
15.01.2021	05:04:45	0	0	3,05064	3,0045	9,7704	-0,723	83,145	0	1010,56	5,8	7,9	7,8	1	1	1	1	1	1	1	1	1	0	1	-6,342495	273,129473	309,199614	0
15.01.2021	05:04:46	0	0	4,971413	2,8845	2,6424	-0,727	83,132	0	1010,6	5,8	7,9	7,8	1	1	1	1	1	1	1	1	1	0	1	-6,8358	273,256169	309,292196	0
15.01.2021	05:04:47	0	0	3,615573	2,73975	352,8288	-0,736	83,135	0	1010,56	5,8	7,9	7,8	1	1	1	1	1	1	1	1	1	0	1	-1,691332	273,236183	314,344191	0
15.01.2021	05:04:48	0	0	3,502587	2,72175	3,7728	-0,732	83,12	0	1010,56	5,8	7,9	7,8	1	1	1	1	1	1	1	1	1	0	1	-0	273,082707	315,326055	0
15.01.2021	05:04:49	0	0	4,971413	2,70075	353,5992	-0,726	83,138	0	1010,5	5,8	7,9	7,8	1	1	1	1	1	1	1	1	1	0	1	-0,916138	273,201971	314,96113	0
15.01.2021	05:04:50	0	0	4,74544	2,84325	356,5476	-0,732	83,142	0	1010,48	5,8	7,9	7,8	1	1	1	1	1	1	1	1	1	0	1	-4,651163	273,10395	310,773019	0
15.01.2021	05:04:51	0	0	3,05064	2,9985	358,758	-0,728	83,149	0	1010,42	5,8	7,9	7,8	1	1	1	1	1	1	1	1	1	0	1	-4,22833	273,136568	311,34657	0
15.01.2021	05:04:52	0	0	4,180507	2,98875	356,094	-0,728	83,143	0	1010,46	5,8	7,9	7,8	1	1	1	1	1	1	1	1	1	0	1	-4,087385	273,115289	311,389185	0
15.01.2021	05:04:53	0	0	5,0844	3,1395	0,8568	-0,728	83,134	0	1010,38	5,8	7,9	7,8	1	1	1	1	1	1	1	1	1	0	1	-1,479915	273,250457	314,621648	0
15.01.2021	05:04:54	0	0	4,74544	3,3525	5,022	-0,728	83,143	0	1010,46	5,8	7,9	7,8	1	1	1	1	1	1	1	1	1	0	1	-0	273,126635	315,528996	0
15.01.2021	05:04:55	0	0	4,180507	3,44475	7,1352	-0,731	83,158	0	1010,48	5,8	7,9	7,8	1	1	1	1	1	1	1	1	1	0	1	-2,325581	273,279035	313,908241	0
15.01.2021	05:04:56	0	0	3,72856	3,4095	0	-0,728	83,136	0	1010,54	5,8	7,9	7,8	1	1	1	1	1	1	1	1	1	0	1	-3,735025	273,119543	311,761201	0
15.01.2021	05:04:57	0	0	4,40648	3,4545	3,0276	-0,733	83,147	0	1010,56	5,8	7,9	7,8	1	1	1	1	1	1	1	1	1	0	1	-1,62086	273,112454	313,84261	0
15.01.2021	05:04:58	0	0	3,3896	3,75	4,0824	-0,729	83,156	0	1010,48	5,8	7,9	7,8	1	1	1	1	1	1	1	1	1	0	1	-2,536998	273,240464	313,518331	0
15.01.2021	05:04:59	0	0	3,72856	3,81675	7,1388	-0,725	83,133	0	1010,62	5,8	7,9	7,8	1	1	1	1	1	1	1	1	1	0	1	-5,496829	273,257597	310,637777	0
15.01.2021	05:05:00	0	0	4,293493	3,7125	10,8288	-0,723	83,204	0	1010,4	5,8	7,9	7,8	1	1	1	1	1	1	1	1	1	0	1	-4,933051	273,213369	310,996931	0
15.01.2021	05:05:01	0	0	4,293493	3,7125	10,8288	-0,723	83,204	0	1010,4	5,8	7,9	7,8	1	1	1	1	1	1	1	1	1	0	1	-4,933051	273,213369	310,996931	0
15.01.2021	05:05:02	0	0	4,632453	3,55275	16,866	-0,723	83,153	0	1010,56	5,8	7,9	7,8	1	1	1	1	1	1	1	1	1	0	1	-1,268499	273,105367	314,162229	0
15.01.2021	05:05:03	0	0	3,954533	3,501	9,3708	-0,729	83,145	0	1010,44	5,8	7,9	7,8	1	1	1	1	1	1	1	1	1	0	1	-7,470049	273,236183	308,565474	0
15.01.2021	05:05:04	0	0	3,841547	3,71025	13,9104	-0,725	83,151	0	1010,5	5,8	7,9	7,8	1	1	1	1	1	1	1	1	1	0	1	-4,087385	273,164977	311,618825	0
15.01.2021	05:05:05	0	0	4,06752	3,68475	12,8412	-0,73	83,161	0	1010,44	5,7	8	7,8	1	1	1	1	1	1	1	1	1	0	1	-6,624383	273,290478	309,66241	0
15.01.2021	05:05:06	0	0	4,74544	3,903	13,1688	-0,726	83,162	0	1010,46	5,8	7,9	7,8	1	1	1	1	1	1	1	1	1	0	1	-5,21494	273,270457	310,97918	0
15.01.2021	05:05:07	0	0	4,06752	4,0095	7,8876	-0,72	83,167	0	1010,6	5,8	7,9	7,8	1	1	1	1	1	1	1	1	1	0	1	-4,721635	273,173508	311,024015	0
15.01.2021	05:05:08	0	0	2,71168	4,05075	11,8008	-0,733	83,166	0	1010,52	5,8	7,9	7,8	1	1	1	1	1	1	1	1	1	0	1	-0,98661	273,091201	314,378679	0
15.01.2021	05:05:09	0	0	3,954557	3,82575	9,0936	-0,727	83,169	0	1010,52	5,8	7,9	7,7	1	1	1	1	1	1	1	1	1	0	1	-0,916138	273,163555	314,783502	0
15.01.2021	05:05:10	0	0	3,05064	3,576	359,5032	-0,729	83,144	0	1010,52	5,8	7,9	7,8	1	1	1	1	1	1	1	1	1	0	1	-3,382664	273,291909	312,910754	0
15.01.2021	05:05:11	0	0	3,276613	3,38025	6,0876	-0,721	83,161	0	1010,54	5,8	7,9	7,8	1	1	1	1	1	1	1	1	1	0	1	-4,651163	273,113871	310,818857	0
15.01.2021	05:05:12	0	0	4,858427	3,51	10,4652	-0,732	83,154	0	1010,48	5,8	7,9	7,8	1	1	1	1	1	1	1	1	1	0	1	-3,523608	273,224773	312,459125	0
15.01.2021	05:05:13	0	0	4,632453	3,63225	19,5372	-0,727	83,169	0	1010,44	5,8	7,9	7,8	1	1	1	1	1	1	1	1	1	0	1	-5,21494	273,143666	310,392765	0
15.01.2021	05:05:14	0	0	5,0844	3,70875	359,5356	-0,727	83,159	0	1010,38	5,8	7,9	7,8	1	1	1	1	1	1	1	1	1	0	1	-5,003524	273,266169	311,170753	0
15.01.2021	05:05:15	0	0	4,40648	3,71325	1,9224	-0,732	83,156	0	1010,52	5,8	7,9	7,8	1	1	1	1	1	1	1	1	1	0	1	-8,104299	273,283325	308,149383	0
15.01.2021	05:05:16	0	0	4,632453	3,648	1,9116	-0,73	83,157	0	1010,56	5,8	7,9	7,8	1	1	1	1	1	1	1	1	1	0	1	-3,523608	273,270457	312,670512	0
15.01.2021	05:05:17	0	0	4,293493	3,32925	14,2956	-0,733	83,155	0	1010,48	5,8	7,9	7,8	1	1	1	1	1	1	1	1	1	0	1	-5,003524	273,169242	310,722404	0
15.01.2021	05:05:18	0	0	4,971413	3,189	1,1808	-0,724	83,176	0	1010,58	5,8	7,9	7,8	1	1	1	1	1	1	1	1	1	0	1	-4,016913	273,137988	311,564546	0
15.01.2021	05:05:19	0	0	4,180532	3,20325	353,5776	-0,726	83,171	0	1010,44	5,8	7,9	7,7	1	1	1	1	1	1	1	1	1	0	1	-5,708245	273,221921	310,261297	0
15.01.2021	05:05:20	0	0	4,971413	3,22725	353,6604	-0,731	83,169	0	1010,5	5,8	7,9	7,8	1	1	1	1	1	1	1	1	1	0	1	-4,721635	273,260454	311,426192	0
15.01.2021	05:05:21	0	0	2,485707	3,3765	352,8396	-0,729	83,17	0	1010,46	5,8	7,9	7,8	1	1	1	1	1	1	1	1	1	0	1	-1,902748	273,150767	313,737777	0
15.01.2021	05:05:22	0	0	4,06752	3,56175	17,7012	-0,728	83,159	0	1010,52	5,8	7,9	7,8	1	1	1	1	1	1	1	1	1	0	1	-3,735025	273,276175	312,485561	0
15.01.2021	05:05:23	0	0	4,40648	3,50925	1,548	-0,723	83,164	0	1010,54	5,8	7,9	7,8	1	1	1	1	1	1	1	1	1	0	1	-0	273,16782	315,719355	0
15.01.2021	05:05:24	0	0	2,824684	3,33975	9,36	-0,729	83,178	0	1010,48	5,8	7,9	7,7	1	1	1	1	1	1	1	1	1	0	1	-0	273,284755	316,260303	0
15.01.2021	05:05:25	0	0	5,649333	3,24225	4,8312	-0,726	83,168	0	1010,52	5,8	7,9	7,8	1	1	1	1	1	1	1	1	1	0	1	-2,677942	273,226199	313,311388	0
15.01.2021	05:05:26	0	0	2,824684	3,1605	356,9508	-0,73	83,161	0	1010,56	5,8	7,9	7,7	1	1	1	1	1	1	1	1	1	0	1	-1,268499	273,286186	314,998426	0
15.01.2021	05:05:27	0	0	4,971413	3,09825	7,5132	-0,724	83,166	0	1010,56	5,8	7,9	7,8	1	1	1	1	1	1	1	1	1	0	1	-7,047216	273,207669	308,856404	0
15.01.2021	05:05:28	0	0	3,615573	3,0225	5,2128	-0,722	83,166	0	1010,44	5,8	7,9	7,8	1	1	1	1	1	1	1	1	1	0	1	-3,382664	273,289047	312,897506	0
15.01.2021	05:05:29	0	0	4,632481	2,9805	357,1956	-0,729	83,168	0	1010,44	5,8	7,9	7,7	1	1	1	1	1	1	1	1	1	0	1	-8,033827	273,253312	308,080952	0
15.01.2021	05:05:30	0	0	4,74544	2,98425	12,4848	-0,722	83,15	0	1010,44	5,8	7,9	7,8	1	1	1	1	1	1	1	1	1	0	1	-3,59408	273,254741	312,527307	0
15.01.2021	05:05:31	0	0	3,3896	2,85375	0,8748	-0,724	83,193	0	1010,5	5,8	7,9	7,8	1	1	1	1	1	1	1	1	1	0	1	-1,973221	273,230477	314,035903	0
15.01.2021	05:05:32	0	0	2,824667	2,74425	0,8676	-0,723	83,18	0	1010,58	5,8	7,9	7,8	1	1	1	1	1	1	1	1	1	0	1	-3,59408	273,072802	311,686227	0
15.01.2021	05:05:33	0	0	3,72856	2,56275	358,722	-0,721	83,176	0	1010,52	5,8	7,9	7,8	1	1	1	1	1	1	1	1	1	0	1	-6,906272	273,209094	309,003938	0
15.01.2021	05:05:34	0	0	4,40648	2,32725	5,2308	-0,723	83,175	0	1010,48	5,8	7,9	7,8	1	1	1	1	1	1	1	1	1	0	1	-4,933051	273,115289	310,543519	0
15.01.2021	05:05:35	0	0	3,163627	2,2035	6,426	-0,721	83,181	0	1010,46	5,8	7,9	7,8	1	1	1	1	1	1	1	1	1	0	1	-3,171247	273,221921	312,798295	0
15.01.2021	05:05:36	0	0	4,293493	2,01975	21,3696	-0,723	83,167	0	1010,42	5,8	7,9	7,8	1	1	1	1	1	1	1	1	1	0	1	-4,298802	273,283325	311,95488	0
15.01.2021	05:05:37	0	0	3,615573	2,016	355,4172	-0,721	83,181	0	1010,6	5,8	7,9	7,8	1	1	1	1	1	1	1	1	1	0	1	-7,047216	273,197699	308,810294	0
15.01.2021	05:05:38	0	0	3,615573	2,454	1,9152	-0,723	83,181	0	1010,58	5,8	7,9	7,8	1	1	1	1	1	1	1	1	1	0	1	-1,832276	273,123798	313,68361	0
15.01.2021	05:05:39	0	0	4,06752	2,8665	3,0492	-0,719	83,182	0	1010,4	5,8	7,9	7,8	1	1	1	1	1	1	1	1	1	0	1	-5,84919	273,251884	310,258981	0
15.01.2021	05:05:40	0	0	4,74544	3,048	14,2884	-0,721	83,192	0	1010,56	5,8	7,9	7,8	1	1	1	1	1	1	1	1	1	0	1	-2,677942	273,241891	313,38399	0
15.01.2021	05:05:41	0	0	4,632453	3,02925	13,2624	-0,725	83,186	0	1010,48	5,8	7,9	7,8	1	1	1	1	1	1	1	1	1	0	1	-4,157858	273,116707	311,325264	0
15.01.2021	05:05:42	0	0	3,615573	3,13875	20,376	-0,724	83,184	0	1010,54	5,8	7,9	7,8	1	1	1	1	1	1	1	1	1	0	1	-3,312192	273,190581	312,512401	0
15.01.2021	05:05:43	0	0	4,632453	3,1125	17,226	-0,723	83,194	0	1010,48	5,8	7,9	7,8	1	1	1	1	1	1	1	1	1	0	1	-5,990134	273,115289	309,486436	0
15.01.2021	05:05:44	0	0	3,276613	3,0105	23,2128	-0,724	83,196	0	1010,58	5,8	7,9	7,8	1	1	1	1	1	1	1	1	1	0	1	-6,694856	273,241891	309,367076	0
15.01.2021	05:05:45	0	0	3,841547	3,0315	15,408	-0,73	83,192	0	1010,48	5,8	7,9	7,8	1	1	1	1	1	1	1	1	1	0	1	-5,708245	273,283325	310,545437	0
15.01.2021	05:05:46	0	0	4,632453	3,03825	17,6976	-0,727	83,183	0	1010,46	5,8	7,9	7,8	1	1	1	1	1	1	1	1	1	0	1	-5,355884	273,284755	310,904419	0
15.01.2021	05:05:47	0	0	2,711696	3,159	14,6484	-0,722	83,194	0	1010,62	5,8	7,9	7,7	1	1	1	1	1	1	1	1	1	0	1	-7,258633	273,223347	308,717505	0
15.01.2021	05:05:48	0	0	4,74544	2,925	19,1484	-0,719	83,183	0	1010,44	5,8	7,9	7,8	1	1	1	1	1	1	1	1	1	0	1	-4,439746	273,283325	311,813936	0
15.01.2021	05:05:49	0	0	3,954533	2,87025	24,4368	-0,73	83,184	0	1010,58	5,8	7,9	7,8	1	1	1	1	1	1	1	1	1	0	1	-5,285412	273,194851	310,558929	0
15.01.2021	05:05:50	0	0	4,632453	2,79225	19,5264	-0,721	83,196	0	1010,56	5,8	7,9	7,8	1	1	1	1	1	1	1	1	1	0	1	-6,8358	273,289047	309,44437	0
15.01.2021	05:05:51	0	0	3,050658	2,664	12,852	-0,719	83,207	0	1010,52	5,8	7,9	7,7	1	1	1	1	1	1	1	1	1	0	1	-6,694856	273,199123	309,16924	0
15.01.2021	05:05:52	0	0	2,259733	2,69625	6,822	-0,719	83,205	0	1010,68	5,8	7,9	7,8	1	1	1	1	1	1	1	1	1	0	1	-5,426357	273,105367	310,004372	0
15.01.2021	05:05:53	0	0	2,824684	2,67075	16,8516	-0,72	83,191	0	1010,54	5,8	7,9	7,7	1	1	1	1	1	1	1	1	1	0	1	-3,664553	273,13373	311,897229	0
15.01.2021	05:05:54	0	0	3,502587	2,712	7,506	-0,727	83,187	0	1010,48	5,8	7,9	7,8	1	1	1	1	1	1	1	1	1	0	1	-10,077519	273,098283	305,320482	0
15.01.2021	05:05:55	0	0	4,971443	2,97075	10,4508	-0,724	83,184	0	1010,38	5,8	7,9	7,7	1	1	1	1	1	1	1	1	1	0	1	-9,44327	273,253312	306,671509	0
15.01.2021	05:05:56	0	0	5,084431	3,05325	23,9688	-0,712	83,204	0	1010,56	5,8	7,9	7,7	1	1	1	1	1	1	1	1	1	0	1	-4,298802	273,126635	311,230194	0
15.01.2021	05:05:57	0	0	4,632453	2,9745	16,488	-0,723	83,218	0	1010,4	5,8	7,9	7,8	1	1	1	1	1	1	1	1	1	0	1	-5,990134	273,247601	310,098217	0
15.01.2021	05:05:58	0	0	4,971443	2,87175	7,8912	-0,722	83,205	0	1010,44	5,8	7,9	7,7	1	1	1	1	1	1	1	1	1	0	1	-8,879493	273,139407	306,708527	0
15.01.2021	05:05:59	0	0	3,72856	2,7495	10,0692	-0,717	83,248	0	1010,36	5,8	7,9	7,8	1	1	1	1	1	1	1	1	1	0	1	-10,711769	273,116707	304,771352	0
15.01.2021	05:06:00	0	0	2,937671	2,76525	10,818	-0,727	83,199	0	1010,46	5,8	7,9	7,7	1	1	1	1	1	1	1	1	1	0	1	-4,298802	273,108201	311,145021	0
15.01.2021	05:06:01	0	0	2,937671	2,76525	10,818	-0,727	83,199	0	1010,46	5,8	7,9	7,7	1	1	1	1	1	1	1	1	1	0	1	-4,298802	273,108201	311,145021	0
15.01.2021	05:06:02	0	0	5,310405	2,70525	7,8912	-0,722	83,191	0	1010,42	5,8	7,9	7,7	1	1	1	1	1	1	1	1	1	0	1	-3,24172	273,147927	312,385676	0
15.01.2021	05:06:03	0	0	3,38962	2,655	359,4996	-0,718	83,216	0	1010,42	5,8	7,9	7,7	1	1	1	1	1	1	1	1	1	0	1	-6,342495	273,130891	309,206171	0
15.01.2021	05:06:04	0	0	3,72856	2,787	4,086	-0,721	83,191	0	1010,4	5,8	7,9	7,8	1	1	1	1	1	1	1	1	1	0	1	-3,664553	273,129473	311,877556	0
15.01.2021	05:06:05	0	0	4,745468	2,8485	3,0204	-0,72	83,218	0	1010,6	5,8	7,9	7,7	1	1	1	1	1	1	1	1	1	0	1	-5,285412	273,274745	310,928556	0
15.01.2021	05:06:06	0	0	4,180532	3,40875	359,7588	-0,726	83,205	0	1010,5	5,8	7,9	7,7	1	1	1	1	1	1	1	1	1	0	1	-1,902748	273,241891	314,159184	0
15.01.2021	05:06:07	0	0	2,71168	3,6315	1,5552	-0,72	83,213	0	1010,46	5,8	7,9	7,8	1	1	1	1	1	1	1	1	1	0	1	-4,157858	273,129473	311,384251	0
15.01.2021	05:06:08	0	0	3,954557	3,501	6,0768	-0,72	83,226	0	1010,5	5,8	7,9	7,7	1	1	1	1	1	1	1	1	1	0	1	-9,020437	273,279035	307,213386	0
15.01.2021	05:06:09	0	0	4,067544	3,297	19,5264	-0,724	83,215	0	1010,4	5,8	7,9	7,7	1	1	1	1	1	1	1	1	1	0	1	-5,355884	273,187734	310,455545	0
15.01.2021	05:06:10	0	0	3,38962	3,444	1,6704	-0,718	83,225	0	1010,52	5,8	7,9	7,7	1	1	1	1	1	1	1	1	1	0	1	-0,704722	273,106784	314,732554	0
15.01.2021	05:06:11	0	0	4,406506	3,507	16,2	-0,721	83,216	0	1010,48	5,8	7,9	7,7	1	1	1	1	1	1	1	1	1	0	1	-4,439746	273,199123	311,42435	0
15.01.2021	05:06:12	0	0	4,745468	3,64575	360	-0,723	83,225	0	1010,22	5,8	7,9	7,7	1	1	1	1	1	1	1	1	1	0	1	-4,651163	273,281895	311,595899	0
15.01.2021	05:06:13	0	0	3,163646	3,8325	9,7668	-0,722	83,23	0	1010,54	5,8	7,9	7,7	1	1	1	1	1	1	1	1	1	0	1	-6,483439	273,290478	309,803354	0
15.01.2021	05:06:14	0	0	4,632481	3,6195	14,3244	-0,727	83,231	0	1010,42	5,8	7,9	7,7	1	1	1	1	1	1	1	1	1	0	1	-5,285412	273,21907	310,670941	0
15.01.2021	05:06:15	0	0	3,050658	3,513	20,0052	-0,725	83,223	0	1010,42	5,8	7,9	7,7	1	1	1	1	1	1	1	1	1	0	1	-6,624383	273,115289	308,852187	0
15.01.2021	05:06:16	0	0	2,824667	3,65025	9,3708	-0,72	83,231	0	1010,5	5,8	7,9	7,8	1	1	1	1	1	1	1	1	1	0	1	-1,902748	273,150767	313,737777	0
15.01.2021	05:06:17	0	0	2,711696	4,33725	3,0348	-0,721	83,24	0	1010,58	5,8	7,9	7,7	1	1	1	1	1	1	1	1	1	0	1	-1,832276	273,279035	314,401547	0
15.01.2021	05:06:18	0	0	3,38962	4,39575	356,2416	-0,718	83,229	0	1010,5	5,8	7,9	7,7	1	1	1	1	1	1	1	1	1	0	1	-9,372798	273,101116	306,038293	0
15.01.2021	05:06:19	0	0	4,067544	4,28925	356,5188	-0,722	83,239	0	1010,52	5,8	7,9	7,7	1	1	1	1	1	1	1	1	1	0	1	-3,24172	273,173508	312,503931	0
15.01.2021	05:06:20	0	0	4,632453	4,131	2,6604	-0,719	83,244	0	1010,56	5,8	7,9	7,8	1	1	1	1	1	1	1	1	1	0	1	-2,043693	273,239037	314,005034	0
15.01.2021	05:06:21	0	0	4,632481	3,819	0,1116	-0,723	83,229	0	1010,54	5,8	7,9	7,7	1	1	1	1	1	1	1	1	1	0	1	-4,157858	273,047355	311,004944	0
15.01.2021	05:06:22	0	0	3,841547	3,74775	7,5096	-0,721	83,236	0	1010,34	5,8	7,9	7,8	1	1	1	1	1	1	1	1	1	0	1	-3,030303	273,112454	312,433166	0
15.01.2021	05:06:23	0	0	4,632453	3,52575	19,9152	-0,719	83,229	0	1010,52	5,8	7,9	7,8	1	1	1	1	1	1	1	1	1	0	1	-7,329105	273,20482	308,561338	0
15.01.2021	05:06:24	0	0	2,824684	3,71175	10,4472	-0,717	83,23	0	1010,44	5,8	7,9	7,7	1	1	1	1	1	1	1	1	1	0	1	-7,188161	273,10395	308,236021	0
15.01.2021	05:06:25	0	0	4,745468	4,15725	11,2068	-0,721	83,221	0	1010,36	5,8	7,9	7,7	1	1	1	1	1	1	1	1	1	0	1	-7,540521	273,269027	308,646983	0
15.01.2021	05:06:26	0	0	2,82465	4,1505	4,4712	-0,721	83,243	0	1010,46	5,8	7,9	7,9	1	1	1	1	1	1	1	1	1	0	1	-4,580691	273,172086	311,158385	0
15.01.2021	05:06:27	0	0	2,598709	4,1445	7,8948	-0,718	83,224	0	1010,4	5,8	7,9	7,7	1	1	1	1	1	1	1	1	1	0	1	-4,369274	273,283325	311,884408	0
15.01.2021	05:06:28	0	0	4,180532	3,918	13,1616	-0,722	83,224	0	1010,38	5,8	7,9	7,7	1	1	1	1	1	1	1	1	1	0	1	-2,60747	273,169242	313,118458	0
15.01.2021	05:06:29	0	0	4,40648	3,68025	13,1724	-0,718	83,228	0	1010,42	5,8	7,9	7,8	1	1	1	1	1	1	1	1	1	0	1	-7,258633	273,273316	308,948719	0
15.01.2021	05:06:30	0	0	3,84157	3,696	5,6916	-0,718	83,231	0	1010,48	5,8	7,9	7,7	1	1	1	1	1	1	1	1	1	0	1	-10,007047	273,152188	305,640044	0
15.01.2021	05:06:31	0	0	3,050658	3,68625	18,0864	-0,715	83,241	0	1010,48	5,8	7,9	7,7	1	1	1	1	1	1	1	1	1	0	1	-3,875969	273,163555	311,823671	0
15.01.2021	05:06:32	0	0	4,293519	3,672	11,196	-0,717	83,236	0	1010,44	5,8	7,9	7,7	1	1	1	1	1	1	1	1	1	0	1	-2,60747	273,286186	313,659455	0
15.01.2021	05:06:33	0	0	4,067544	3,7455	4,4676	-0,723	83,236	0	1010,34	5,8	7,9	7,7	1	1	1	1	1	1	1	1	1	0	1	-3,946441	273,256169	312,181555	0
15.01.2021	05:06:34	0	0	4,067544	3,67875	6,0516	-0,716	83,245	0	1010,54	5,8	7,9	7,7	1	1	1	1	1	1	1	1	1	0	1	-3,805497	273,13373	311,756284	0
15.01.2021	05:06:35	0	0	4,180532	3,6285	10,0728	-0,724	83,244	0	1010,56	5,8	7,9	7,7	1	1	1	1	1	1	1	1	1	0	1	-1,409443	273,221921	314,560099	0
15.01.2021	05:06:36	0	0	3,38962	3,54675	3,0348	-0,717	83,243	0	1010,56	5,8	7,9	7,7	1	1	1	1	1	1	1	1	1	0	1	-9,654686	273,280465	306,585756	0
15.01.2021	05:06:37	0	0	5,310373	3,52575	3,3912	-0,719	83,236	0	1010,34	5,8	7,9	7,8	1	1	1	1	1	1	1	1	1	0	1	-2,818887	273,135149	312,749453	0
15.01.2021	05:06:38	0	0	4,745468	3,37725	0,8676	-0,718	83,244	0	1010,54	5,8	7,9	7,7	1	1	1	1	1	1	1	1	1	0	1	-6,20155	273,15645	309,465242	0
15.01.2021	05:06:39	0	0	2,372734	3,4305	0,864	-0,718	83,241	0	1010,6	5,8	7,9	7,7	1	1	1	1	1	1	1	1	1	0	1	-1,057082	273,280465	315,18336	0
15.01.2021	05:06:40	0	0	3,050658	3,55575	19,53	-0,717	83,261	0	1010,54	5,8	7,9	7,7	1	1	1	1	1	1	1	1	1	0	1	-2,184637	273,234757	313,844285	0
15.01.2021	05:06:41	0	0	3,050658	3,39	19,1484	-0,721	83,243	0	1010,48	5,8	7,9	7,7	1	1	1	1	1	1	1	1	1	0	1	-7,82241	273,115289	307,65416	0
15.01.2021	05:06:42	0	0	3,72856	3,3675	17,2368	-0,719	83,25	0	1010,46	5,8	7,9	7,8	1	1	1	1	1	1	1	1	1	0	1	-6,272023	273,187734	309,539407	0
15.01.2021	05:06:43	0	0	4,745468	3,453	5,2344	-0,718	83,246	0	1010,58	5,8	7,9	7,7	1	1	1	1	1	1	1	1	1	0	1	-2,677942	273,109619	312,772429	0
15.01.2021	05:06:44	0	0	2,485722	3,426	5,3172	-0,717	83,252	0	1010,52	5,8	7,9	7,7	1	1	1	1	1	1	1	1	1	0	1	-0,352361	273,166398	315,360422	0
15.01.2021	05:06:45	0	0	4,971443	3,3285	10,0584	-0,717	83,258	0	1010,5	5,8	7,9	7,7	1	1	1	1	1	1	1	1	1	0	1	-2,396054	273,299065	313,930493	0
15.01.2021	05:06:46	0	0	4,632481	3,312	11,718	-0,719	83,257	0	1010,34	5,8	7,9	7,7	1	1	1	1	1	1	1	1	1	0	1	-6,20155	273,253312	309,913228	0
15.01.2021	05:06:47	0	0	3,84157	3,309	17,2476	-0,716	83,244	0	1010,56	5,8	7,9	7,7	1	1	1	1	1	1	1	1	1	0	1	-3,664553	273,17493	312,087673	0
15.01.2021	05:06:48	0	0	3,38962	3,2655	13,5684	-0,716	83,259	0	1010,52	5,8	7,9	7,7	1	1	1	1	1	1	1	1	1	0	1	-5,708245	273,115289	309,768325	0
15.01.2021	05:06:49	0	0	4,745468	3,246	7,1244	-0,723	83,262	0	1010,4	5,8	7,9	7,7	1	1	1	1	1	1	1	1	1	0	1	-6,553911	273,162134	309,139158	0
15.01.2021	05:06:50	0	0	3,84157	3,1665	9,3708	-0,719	83,245	0	1010,44	5,8	7,9	7,7	1	1	1	1	1	1	1	1	1	0	1	-6,624383	273,244746	309,450757	0
15.01.2021	05:06:51	0	0	5,084431	3,36	355,0248	-0,716	83,249	0	1010,5	5,8	7,9	7,7	1	1	1	1	1	1	1	1	1	0	1	-0,352361	273,270457	315,841759	0
15.01.2021	05:06:52	0	0	3,728582	3,2595	1,5696	-0,719	83,239	0	1010,54	5,8	7,9	7,7	1	1	1	1	1	1	1	1	1	0	1	-4,22833	273,26474	311,939333	0
15.01.2021	05:06:53	0	0	4,858456	3,10425	354,2616	-0,721	83,245	0	1010,54	5,8	7,9	7,7	1	1	1	1	1	1	1	1	1	0	1	-5,003524	273,152188	310,643568	0
15.01.2021	05:06:54	0	0	2,937671	2,92425	0,486	-0,72	83,244	0	1010,4	5,8	7,9	7,7	1	1	1	1	1	1	1	1	1	0	1	-5,21494	273,142247	310,386203	0
15.01.2021	05:06:55	0	0	4,293519	2,9595	9,7488	-0,714	83,249	0	1010,62	5,8	7,9	7,7	1	1	1	1	1	1	1	1	1	0	1	-0	273,284755	316,260303	0
15.01.2021	05:06:56	0	0	4,067544	2,9625	3,0348	-0,72	83,257	0	1010,24	5,8	7,9	7,7	1	1	1	1	1	1	1	1	1	0	1	-2,536998	273,186311	313,267851	0
15.01.2021	05:06:57	0	0	4,293519	2,88225	4,0968	-0,717	83,264	0	1010,64	5,8	7,9	7,7	1	1	1	1	1	1	1	1	1	0	1	-6,906272	273,152188	308,740819	0
15.01.2021	05:06:58	0	0	3,163627	2,742	7,8732	-0,713	83,269	0	1010,56	5,8	7,9	7,8	1	1	1	1	1	1	1	1	1	0	1	-0,352361	273,259025	315,788855	0
15.01.2021	05:06:59	0	0	3,38962	2,66175	1,5444	-0,715	83,258	0	1010,56	5,8	7,9	7,7	1	1	1	1	1	1	1	1	1	0	1	-7,470049	273,108201	307,973774	0
15.01.2021	05:07:00	0	0	2,824667	2,811	3,042	-0,717	83,264	0	1010,58	5,8	7,9	7,8	1	1	1	1	1	1	1	1	1	0	1	-5,21494	273,108201	310,228883	0
15.01.2021	05:07:01	0	0	2,824667	2,811	3,042	-0,717	83,264	0	1010,58	5,8	7,9	7,8	1	1	1	1	1	1	1	1	1	0	1	-5,21494	273,108201	310,228883	0
15.01.2021	05:07:02	0	0	4,406506	3,20925	359,3952	-0,719	83,262	0	1010,4	5,8	7,9	7,7	1	1	1	1	1	1	1	1	1	0	1	-5,637773	273,224773	310,34496	0
15.01.2021	05:07:03	0	0	4,067544	3,732	7,1316	-0,715	83,277	0	1010,42	5,8	7,9	7,7	1	1	1	1	1	1	1	1	1	0	1	-1,550388	273,300496	314,782786	0
15.01.2021	05:07:04	0	0	3,615595	3,972	18,828	-0,717	83,26	0	1010,36	5,8	7,9	7,7	1	1	1	1	1	1	1	1	1	0	1	-2,818887	273,197699	313,038624	0
15.01.2021	05:07:05	0	0	3,050658	4,10475	16,8516	-0,726	83,266	0	1010,48	5,8	7,9	7,7	1	1	1	1	1	1	1	1	1	0	1	-7,188161	273,118125	308,301512	0
15.01.2021	05:07:06	0	0	3,615573	4,0875	17,6868	-0,718	83,263	0	1010,44	5,8	7,9	7,8	1	1	1	1	1	1	1	1	1	0	1	-4,580691	273,109619	310,869681	0
15.01.2021	05:07:07	0	0	3,276633	3,98775	18,4608	-0,714	83,269	0	1010,46	5,8	7,9	7,7	1	1	1	1	1	1	1	1	1	0	1	-7,610994	273,209094	308,299216	0
15.01.2021	05:07:08	0	0	2,824684	4,08075	9,7524	-0,712	83,268	0	1010,58	5,8	7,9	7,7	1	1	1	1	1	1	1	1	1	0	1	-7,610994	273,303359	308,735437	0
15.01.2021	05:07:09	0	0	2,937671	4,39275	3,7728	-0,716	83,252	0	1010,34	5,8	7,9	7,7	1	1	1	1	1	1	1	1	1	0	1	-0	273,189157	315,818011	0
15.01.2021	05:07:10	0	0	2,824684	4,22625	4,95	-0,72	83,276	0	1010,52	5,8	7,9	7,7	1	1	1	1	1	1	1	1	1	0	1	-5,919662	273,129473	309,622447	0
15.01.2021	05:07:11	0	0	4,745468	3,936	360	-0,721	83,272	0	1010,32	5,8	7,9	7,7	1	1	1	1	1	1	1	1	1	0	1	-3,453136	273,29334	312,846906	0
15.01.2021	05:07:12	0	0	4,971443	3,57975	4,4712	-0,713	83,278	0	1010,44	5,8	7,9	7,7	1	1	1	1	1	1	1	1	1	0	1	-1,832276	273,18062	313,946256	0
15.01.2021	05:07:13	0	0	4,745468	3,44325	5,2236	-0,715	83,274	0	1010,62	5,8	7,9	7,7	1	1	1	1	1	1	1	1	1	0	1	-2,114165	273,135149	313,454175	0
15.01.2021	05:07:14	0	0	3,84157	3,3675	6,8004	-0,713	83,269	0	1010,48	5,8	7,9	7,7	1	1	1	1	1	1	1	1	1	0	1	-5,003524	273,12238	310,505808	0
15.01.2021	05:07:15	0	0	3,38962	3,37575	5,2092	-0,715	83,277	0	1010,56	5,8	7,9	7,7	1	1	1	1	1	1	1	1	1	0	1	-4,298802	273,149347	311,335158	0
15.01.2021	05:07:16	0	0	2,937671	3,375	2,6532	-0,719	83,275	0	1010,5	5,8	7,9	7,7	1	1	1	1	1	1	1	1	1	0	1	-1,62086	273,224773	314,361874	0
15.01.2021	05:07:17	0	0	3,954533	3,40425	16,9308	-0,716	83,277	0	1010,58	5,8	7,8	7,8	1	1	1	1	1	1	1	1	1	0	1	-5,285412	273,294771	311,021255	0
15.01.2021	05:07:18	0	0	5,084431	3,525	16,9416	-0,716	83,271	0	1010,52	5,8	7,9	7,7	1	1	1	1	1	1	1	1	1	0	1	-3,100775	273,182042	312,684336	0
15.01.2021	05:07:19	0	0	3,276613	3,459	19,908	-0,715	83,28	0	1010,66	5,8	7,9	7,8	1	1	1	1	1	1	1	1	1	0	1	-6,906272	273,120961	308,596506	0
15.01.2021	05:07:20	0	0	2,824684	3,189	14,3136	-0,714	83,278	0	1010,54	5,8	7,9	7,7	1	1	1	1	1	1	1	1	1	0	1	-2,818887	273,21907	313,137466	0
15.01.2021	05:07:21	0	0	4,858456	3,057	12,4668	-0,719	83,276	0	1010,52	5,8	7,9	7,7	1	1	1	1	1	1	1	1	1	0	1	-4,087385	273,284755	312,172918	0
15.01.2021	05:07:22	0	0	3,050658	3,1605	6,0624	-0,713	83,287	0	1010,66	5,8	7,9	7,7	1	1	1	1	1	1	1	1	1	0	1	-1,268499	273,150767	314,372027	0
15.01.2021	05:07:23	0	0	4,745468	3,38025	8,6004	-0,71	83,287	0	1010,54	5,8	7,9	7,7	1	1	1	1	1	1	1	1	1	0	1	-2,466526	273,267598	313,714365	0
15.01.2021	05:07:24	0	0	3,728582	3,522	16,8588	-0,722	83,276	0	1010,48	5,8	7,9	7,7	1	1	1	1	1	1	1	1	1	0	1	-4,439746	273,289047	311,840424	0
15.01.2021	05:07:25	0	0	3,502587	3,40275	9,7524	-0,719	83,284	0	1010,46	5,8	7,9	7,8	1	1	1	1	1	1	1	1	1	0	1	-2,889359	273,217644	313,060401	0
15.01.2021	05:07:26	0	0	2,259733	3,29025	5,6916	-0,711	83,293	0	1010,54	5,8	7,9	7,8	1	1	1	1	1	1	1	1	1	0	1	-1,973221	273,125216	313,54922	0
15.01.2021	05:07:27	0	0	3,84157	3,2625	6,0768	-0,715	83,298	0	1010,5	5,8	7,9	7,7	1	1	1	1	1	1	1	1	1	0	1	-6,060606	273,257597	310,074	0
15.01.2021	05:07:28	0	0	4,632481	3,25125	10,8288	-0,714	83,274	0	1010,62	5,8	7,9	7,7	1	1	1	1	1	1	1	1	1	0	1	-6,060606	273,164977	309,645605	0
15.01.2021	05:07:29	0	0	2,937671	3,1065	7,1388	-0,713	83,293	0	1010,54	5,8	7,9	7,7	1	1	1	1	1	1	1	1	1	0	1	-4,933051	273,123798	310,582834	0
15.01.2021	05:07:30	0	0	4,519467	3,04725	6,8184	-0,714	83,278	0	1010,54	5,8	7,9	7,8	1	1	1	1	1	1	1	1	1	0	1	-6,412967	273,213369	309,517015	0
15.01.2021	05:07:31	0	0	3,163646	2,98575	0,126	-0,717	83,283	0	1010,44	5,8	7,9	7,7	1	1	1	1	1	1	1	1	1	0	1	-5,778717	273,304791	310,574343	0
15.01.2021	05:07:32	0	0	2,598693	2,93175	1,6452	-0,713	83,295	0	1010,7	5,8	7,9	7,8	1	1	1	1	1	1	1	1	1	0	1	-1,973221	273,136568	313,601679	0
15.01.2021	05:07:33	0	0	4,971443	2,87775	3,402	-0,717	83,279	0	1010,42	5,8	7,9	7,7	1	1	1	1	1	1	1	1	1	0	1	-4,439746	273,281895	311,807316	0
15.01.2021	05:07:34	0	0	5,084431	2,90325	6,4332	-0,712	83,288	0	1010,54	5,8	7,9	7,7	1	1	1	1	1	1	1	1	1	0	1	-7,329105	273,145086	308,285163	0
15.01.2021	05:07:35	0	0	4,293519	3,14775	7,5276	-0,715	83,28	0	1010,58	5,8	8	7,7	1	1	1	1	1	1	1	1	1	0	1	-1,127555	273,147927	314,499841	0
15.01.2021	05:07:36	0	0	4,745468	3,35025	6,1812	-0,712	83,269	0	1010,32	5,8	7,9	7,7	1	1	1	1	1	1	1	1	1	0	1	-5,073996	273,309087	311,298956	0
15.01.2021	05:07:37	0	0	3,615595	3,52275	12,1068	-0,71	83,294	0	1010,62	5,8	7,9	7,7	1	1	1	1	1	1	1	1	1	0	1	-1,761804	273,172086	313,977271	0
15.01.2021	05:07:38	0	0	4,293493	3,5835	13,1724	-0,713	83,297	0	1010,48	5,8	7,8	7,8	1	1	1	1	1	1	1	1	1	0	1	-4,721635	273,125216	310,800806	0
15.01.2021	05:07:39	0	0	2,824667	3,62025	14,3028	-0,715	83,305	0	1010,5	5,8	7,9	7,8	1	1	1	1	1	1	1	1	1	0	1	-4,510218	273,224773	311,472515	0
15.01.2021	05:07:40	0	0	3,3896	3,58575	15,7932	-0,712	83,293	0	1010,46	5,8	8	7,8	1	1	1	1	1	1	1	1	1	0	1	-4,933051	273,109619	310,51732	0
15.01.2021	05:07:41	0	0	2,937671	3,7635	14,6592	-0,711	83,302	0	1010,48	5,8	7,9	7,7	1	1	1	1	1	1	1	1	1	0	1	-6,272023	273,241891	309,789909	0
15.01.2021	05:07:42	0	0	2,598709	3,993	8,2656	-0,711	83,305	0	1010,44	5,8	7,9	7,7	1	1	1	1	1	1	1	1	1	0	1	-1,550388	273,112454	313,913082	0
15.01.2021	05:07:43	0	0	4,858456	3,8565	23,9616	-0,716	83,297	0	1010,52	5,8	7,9	7,7	1	1	1	1	1	1	1	1	1	0	1	-0,422833	273,23761	315,619291	0
15.01.2021	05:07:44	0	0	2,937653	3,46275	0,8604	-0,713	83,307	0	1010,56	5,8	7,9	7,8	1	1	1	1	1	1	1	1	1	0	1	-2,536998	273,139407	313,051022	0
15.01.2021	05:07:45	0	0	4,067544	3,36375	7,1244	-0,712	83,294	0	1010,7	5,8	7,9	7,7	1	1	1	1	1	1	1	1	1	0	1	-0,493305	273,281895	315,753757	0
15.01.2021	05:07:46	0	0	4,519494	3,32625	17,2512	-0,711	83,299	0	1010,46	5,8	7,9	7,7	1	1	1	1	1	1	1	1	1	0	1	-7,047216	273,234757	308,981706	0
15.01.2021	05:07:47	0	0	4,632481	3,354	15,7968	-0,712	83,309	0	1010,48	5,8	7,9	7,7	1	1	1	1	1	1	1	1	1	0	1	-5,496829	273,29334	310,803213	0
15.01.2021	05:07:48	0	0	3,615595	3,38175	18,4536	-0,71	83,314	0	1010,36	5,9	7,9	7,7	1	1	1	1	1	1	1	1	1	0	1	-4,721635	273,142247	310,879508	0
15.01.2021	05:07:49	0	0	4,406506	3,24675	13,9284	-0,712	83,311	0	1010,56	5,8	8	7,7	1	1	1	1	1	1	1	1	1	0	1	-5,637773	273,29334	310,662269	0
15.01.2021	05:07:50	0	0	3,05064	3,18	15,0372	-0,716	83,311	0	1010,5	5,8	7,9	7,8	1	1	1	1	1	1	1	1	1	0	1	-5,567301	273,118125	309,922372	0
15.01.2021	05:07:51	0	0	5,310373	3,2295	9,7344	-0,707	83,309	0	1010,56	5,8	7,9	7,8	1	1	1	1	1	1	1	1	1	0	1	-2,889359	273,140827	312,705222	0
15.01.2021	05:07:52	0	0	3,841547	3,231	4,4748	-0,716	83,31	0	1010,5	5,8	7,9	7,8	1	1	1	1	1	1	1	1	1	0	1	-3,805497	273,280465	312,434945	0
15.01.2021	05:07:53	0	0	5,197387	3,0045	357,0084	-0,714	83,314	0	1010,46	5,8	7,9	7,8	1	1	1	1	1	1	1	1	1	0	1	-9,654686	273,173508	306,090964	0
15.01.2021	05:07:54	0	0	3,954533	2,946	353,6028	-0,711	83,301	0	1010,48	5,8	8	7,8	1	1	1	1	1	1	1	1	1	0	1	-3,030303	273,266169	313,143974	0
15.01.2021	05:07:55	0	0	3,841547	3	353,934	-0,713	83,312	0	1010,6	5,8	7,9	7,8	1	1	1	1	1	1	1	1	1	0	1	-2,396054	273,277605	313,831151	0
15.01.2021	05:07:56	0	0	2,259733	3,0105	351,0108	-0,716	83,314	0	1010,44	5,8	8	7,8	1	1	1	1	1	1	1	1	1	0	1	-5,426357	273,159292	310,253573	0
15.01.2021	05:07:57	0	0	3,502608	2,94825	356,1012	-0,712	83,305	0	1010,44	5,8	8	7,7	1	1	1	1	1	1	1	1	1	0	1	-2,60747	273,119543	312,888755	0
15.01.2021	05:07:58	0	0	3,276633	2,88675	341,9316	-0,714	83,313	0	1010,56	5,8	8	7,7	1	1	1	1	1	1	1	1	1	0	1	-5,144468	273,164977	310,561743	0
15.01.2021	05:07:59	0	0	2,372734	2,90775	358,5456	-0,722	83,308	0	1010,4	5,8	7,9	7,7	1	1	1	1	1	1	1	1	1	0	1	-5,637773	273,142247	309,96337	0
15.01.2021	05:08:00	0	0	4,293519	3,21975	3,0132	-0,711	83,298	0	1010,4	5,8	7,9	7,7	1	1	1	1	1	1	1	1	1	0	1	-7,963354	273,214794	307,973219	0
15.01.2021	05:08:01	0	0	4,971443	3,12975	1,5624	-0,716	83,314	0	1010,36	5,8	7,9	7,7	1	1	1	1	1	1	1	1	1	0	1	-7,963354	273,214794	307,973219	0
15.01.2021	05:08:02	0	0	4,971443	3,12975	1,5624	-0,716	83,314	0	1010,36	5,8	7,9	7,7	1	1	1	1	1	1	1	1	1	0	1	-4,721635	273,267598	311,459255	0
15.01.2021	05:08:03	0	0	4,293493	3,1785	1,9116	-0,713	83,318	0	1010,54	5,8	8	7,8	1	1	1	1	1	1	1	1	1	0	1	-5,708245	273,279035	310,525578	0
15.01.2021	05:08:04	0	0	3,728582	3,17475	345,7908	-0,713	83,319	0	1010,6	5,8	7,9	7,7	1	1	1	1	1	1	1	1	1	0	1	-6,342495	273,186311	309,462354	0
15.01.2021	05:08:05	0	0	4,293519	3,06075	0,1836	-0,719	83,313	0	1010,58	5,7	7,8	7,7	1	1	1	1	1	1	1	1	1	0	1	-1,268499	273,303359	315,077932	0
15.01.2021	05:08:06	0	0	2,598693	3,05475	0,4932	-0,709	83,311	0	1010,44	5,8	7,8	7,8	1	1	1	1	1	1	1	1	1	0	1	-0,563777	273,229051	315,438748	0
15.01.2021	05:08:07	0	0	4,519494	3,13875	6,8076	-0,714	83,32	0	1010,5	5,8	7,9	7,7	1	1	1	1	1	1	1	1	1	0	1	-5,919662	273,111036	309,537258	0
15.01.2021	05:08:08	0	0	4,06752	3,33075	6,066	-0,712	83,323	0	1010,46	5,8	8	7,8	1	1	1	1	1	1	1	1	1	0	1	-4,580691	273,224773	311,402043	0
15.01.2021	05:08:09	0	0	3,615573	3,63375	10,4472	-0,708	83,323	0	1010,5	5,8	8	7,8	1	1	1	1	1	1	1	1	1	0	1	-4,369274	273,291909	311,924143	0
15.01.2021	05:08:10	0	0	3,615573	3,71175	17,2476	-0,715	83,318	0	1010,44	5,8	7,9	7,8	1	1	1	1	1	1	1	1	1	0	1	-0,493305	273,271886	315,70743	0
15.01.2021	05:08:11	0	0	2,71168	3,486	2,6568	-0,712	83,318	0	1010,52	5,8	8	7,8	1	1	1	1	1	1	1	1	1	0	1	-5,426357	273,243319	310,642179	0
15.01.2021	05:08:12	0	0	3,72856	3,54	3,42	-0,71	83,32	0	1010,5	5,8	7,9	7,8	1	1	1	1	1	1	1	1	1	0	1	-7,963354	273,299065	308,363192	0
15.01.2021	05:08:13	0	0	4,180507	3,7425	7,5168	-0,711	83,323	0	1010,56	5,8	8	7,8	1	1	1	1	1	1	1	1	1	0	1	-6,906272	273,23333	309,11605	0
15.01.2021	05:08:14	0	0	3,38962	3,78375	9,7452	-0,706	83,32	0	1010,42	5,7	8	7,7	1	1	1	1	1	1	1	1	1	0	1	-8,527132	273,296202	307,786161	0
15.01.2021	05:08:15	0	0	3,84157	3,79725	3,78	-0,712	83,322	0	1010,52	5,8	7,9	7,7	1	1	1	1	1	1	1	1	1	0	1	-1,832276	273,294771	314,474391	0
15.01.2021	05:08:16	0	0	4,519467	3,75975	360	-0,713	83,33	0	1010,48	5,8	8	7,8	1	1	1	1	1	1	1	1	1	0	1	-5,21494	273,169242	310,510988	0
15.01.2021	05:08:17	0	0	2,71168	3,4965	7,1352	-0,706	83,331	0	1010,52	5,8	8	7,8	1	1	1	1	1	1	1	1	1	0	1	-6,553911	273,301928	309,785891	0
15.01.2021	05:08:18	0	0	2,937653	3,29925	6,0732	-0,714	83,326	0	1010,46	5,8	7,9	7,8	1	1	1	1	1	1	1	1	1	0	1	-7,963354	273,176352	307,795447	0
15.01.2021	05:08:19	0	0	2,485707	3,336	4,8312	-0,713	83,316	0	1010,44	5,8	7,8	7,8	1	1	1	1	1	1	1	1	1	0	1	-3,664553	273,126635	311,864443	0
15.01.2021	05:08:20	0	0	3,84157	3,43875	1,1736	-0,714	83,331	0	1010,5	5,8	7,9	7,7	1	1	1	1	1	1	1	1	1	0	1	-6,20155	273,26474	309,966113	0
15.01.2021	05:08:21	0	0	3,615595	3,17775	15,0372	-0,706	83,342	0	1010,5	5,8	8	7,7	1	1	1	1	1	1	1	1	1	0	1	-6,553911	273,190581	309,270682	0
15.01.2021	05:08:22	0	0	3,276613	3,3165	5,6844	-0,713	83,335	0	1010,48	5,8	8	7,8	1	1	1	1	1	1	1	1	1	0	1	-6,20155	273,289047	310,07862	0
15.01.2021	05:08:23	0	0	4,519467	3,43275	16,8588	-0,709	83,347	0	1010,52	5,8	7,8	7,8	1	1	1	1	1	1	1	1	1	0	1	-3,523608	273,256169	312,604388	0
15.01.2021	05:08:24	0	0	3,954557	3,528	15,7968	-0,71	83,333	0	1010,58	5,8	8	7,7	1	1	1	1	1	1	1	1	1	0	1	-4,087385	273,155029	311,57284	0
15.01.2021	05:08:25	0	0	2,824667	3,522	15,4116	-0,708	83,344	0	1010,56	5,7	7,9	7,8	1	1	1	1	1	1	1	1	1	0	1	-2,466526	273,287616	313,807021	0
15.01.2021	05:08:26	0	0	3,615595	3,73125	14,3136	-0,712	83,324	0	1010,26	5,8	7,9	7,7	1	1	1	1	1	1	1	1	1	0	1	-13,883016	273,234757	302,145906	0
15.01.2021	05:08:27	0	0	3,728582	3,735	15,4008	-0,71	83,351	0	1010,6	5,8	7,9	7,7	1	1	1	1	1	1	1	1	1	0	1	-3,805497	273,277605	312,421707	0
15.01.2021	05:08:28	0	0	2,598693	3,56325	1,9368	-0,707	83,341	0	1010,34	5,8	8	7,8	1	1	1	1	1	1	1	1	1	0	1	-7,047216	273,277605	309,179988	0
15.01.2021	05:08:29	0	0	3,05064	3,44325	11,7216	-0,702	83,35	0	1010,56	5,8	7,9	7,8	1	1	1	1	1	1	1	1	1	0	1	-6,976744	273,229051	309,025781	0
15.01.2021	05:08:30	0	0	3,72856	3,2895	1,188	-0,711	83,357	0	1010,54	5,8	8	7,8	1	1	1	1	1	1	1	1	1	0	1	-5,355884	273,115289	310,120686	0
15.01.2021	05:08:31	0	0	4,74544	3,16725	9,7488	-0,704	83,342	0	1010,48	5,8	7,9	7,8	1	1	1	1	1	1	1	1	1	0	1	-5,567301	273,246173	310,514444	0
15.01.2021	05:08:32	0	0	4,858456	3,08775	360	-0,706	83,336	0	1010,5	5,8	7,9	7,7	1	1	1	1	1	1	1	1	1	0	1	-4,580691	273,254741	311,540696	0
15.01.2021	05:08:33	0	0	3,276613	3,07275	10,4544	-0,712	83,346	0	1010,6	5,8	8	7,8	1	1	1	1	1	1	1	1	1	0	1	-4,933051	273,120961	310,569727	0
15.01.2021	05:08:34	0	0	5,197387	3,19425	1,1808	-0,712	83,344	0	1010,46	5,8	8	7,8	1	1	1	1	1	1	1	1	1	0	1	-4,510218	273,216219	311,432948	0
15.01.2021	05:08:35	0	0	3,05064	3,26625	4,4568	-0,708	83,347	0	1010,52	5,8	7,8	7,8	1	1	1	1	1	1	1	1	1	0	1	-3,100775	273,118125	312,388898	0
15.01.2021	05:08:36	0	0	3,502587	3,11775	4,0932	-0,705	83,357	0	1010,48	5,7	8	7,8	1	1	1	1	1	1	1	1	1	0	1	-0,98661	273,159292	314,693319	0
15.01.2021	05:08:37	0	0	4,632481	3,078	355,0824	-0,708	83,351	0	1010,52	5,8	7,9	7,7	1	1	1	1	1	1	1	1	1	0	1	-3,453136	273,143666	312,154569	0
15.01.2021	05:08:38	0	0	2,485707	2,96175	0,1368	-0,713	83,344	0	1010,42	5,8	7,9	7,8	1	1	1	1	1	1	1	1	1	0	1	-7,681466	273,111036	307,775454	0
15.01.2021	05:08:39	0	0	3,72856	2,8305	5,3352	-0,708	83,353	0	1010,56	5,8	8	7,8	1	1	1	1	1	1	1	1	1	0	1	-6,694856	273,243319	309,37368	0
15.01.2021	05:08:40	0	0	4,971443	2,73	0,8676	-0,708	83,35	0	1010,46	5,8	7,9	7,7	1	1	1	1	1	1	1	1	1	0	1	-3,171247	273,297633	313,148672	0
15.01.2021	05:08:41	0	0	3,05064	2,727	3,0204	-0,709	83,343	0	1010,52	5,8	8	7,8	1	1	1	1	1	1	1	1	1	0	1	-8,386187	273,226199	307,603143	0
15.01.2021	05:08:42	0	0	3,276633	2,79525	0,576	-0,71	83,351	0	1010,48	5,8	8	7,7	1	1	1	1	1	1	1	1	1	0	1	-1,691332	273,136568	313,883567	0
15.01.2021	05:08:43	0	0	3,954533	2,9775	8,6364	-0,71	83,334	0	1010,56	5,8	8	7,8	1	1	1	1	1	1	1	1	1	0	1	-4,510218	273,304791	311,842842	0
15.01.2021	05:08:44	0	0	3,502587	3,00825	12,096	-0,708	83,358	0	1010,44	5,8	8	7,8	1	1	1	1	1	1	1	1	1	0	1	-3,24172	273,15645	312,425073	0
15.01.2021	05:08:45	0	0	4,74544	3,0675	10,062	-0,708	83,351	0	1010,42	5,9	8	7,8	1	1	1	1	1	1	1	1	1	0	1	-3,875969	273,170664	311,856532	0
15.01.2021	05:08:46	0	0	4,519467	3,162	3,0348	-0,709	83,339	0	1010,5	5,7	8	7,8	1	1	1	1	1	1	1	1	1	0	1	-4,510218	273,112454	310,953251	0
15.01.2021	05:08:47	0	0	4,632481	3,16125	14,6412	-0,708	83,345	0	1010,44	5,8	8	7,7	1	1	1	1	1	1	1	1	1	0	1	-6,906272	273,259025	309,234944	0
15.01.2021	05:08:48	0	0	3,3896	3,054	6,8292	-0,715	83,334	0	1010,48	5,8	8	7,8	1	1	1	1	1	1	1	1	1	0	1	-5,990134	273,280465	310,250308	0
15.01.2021	05:08:49	0	0	4,858456	2,96625	10,746	-0,705	83,339	0	1010,34	5,8	7,8	7,7	1	1	1	1	1	1	1	1	1	0	1	-2,536998	273,304791	313,816063	0
15.01.2021	05:08:50	0	0	3,163627	2,90925	7,1388	-0,704	83,347	0	1010,46	5,8	7,8	7,8	1	1	1	1	1	1	1	1	1	0	1	-4,933051	273,193428	310,904707	0
15.01.2021	05:08:51	0	0	4,632453	2,91825	4,8528	-0,707	83,353	0	1010,34	5,7	7,8	7,8	1	1	1	1	1	1	1	1	1	0	1	-0	273,301928	316,339802	0
15.01.2021	05:08:52	0	0	3,050658	2,8275	19,8972	-0,713	83,348	0	1010,56	5,8	8	7,7	1	1	1	1	1	1	1	1	1	0	1	-5,637773	273,234757	310,391149	0
15.01.2021	05:08:53	0	0	5,0844	2,79825	12,8448	-0,71	83,343	0	1010,52	5,8	8	7,8	1	1	1	1	1	1	1	1	1	0	1	-2,325581	273,303359	314,02085	0
15.01.2021	05:08:54	0	0	3,276613	2,886	14,6556	-0,706	83,348	0	1010,5	5,8	7,8	7,8	1	1	1	1	1	1	1	1	1	0	1	-9,020437	273,239037	307,028289	0
15.01.2021	05:08:55	0	0	3,502587	3,04725	15,7716	-0,706	83,356	0	1010,58	5,8	8	7,8	1	1	1	1	1	1	1	1	1	0	1	-3,382664	273,118125	312,107009	0
15.01.2021	05:08:56	0	0	3,3896	3,05175	7,5132	-0,709	83,343	0	1010,38	5,8	8	7,8	1	1	1	1	1	1	1	1	1	0	1	-2,114165	273,162134	313,578904	0
15.01.2021	05:08:57	0	0	2,937653	3,1305	10,9512	-0,702	83,344	0	1010,48	5,8	7,8	7,8	1	1	1	1	1	1	1	1	1	0	1	-0,775194	273,284755	315,48511	0
15.01.2021	05:08:58	0	0	4,40648	3,09075	2,646	-0,714	83,358	0	1010,5	5,7	8	7,8	1	1	1	1	1	1	1	1	1	0	1	-2,325581	273,250457	313,775982	0
15.01.2021	05:08:59	0	0	2,937653	3,19725	3,7728	-0,706	83,358	0	1010,48	5,8	8	7,8	1	1	1	1	1	1	1	1	1	0	1	-5,355884	273,273316	310,851467	0
15.01.2021	05:09:00	0	0	4,858427	3,3975	3,7728	-0,709	83,354	0	1010,38	5,9	8	7,8	1	1	1	1	1	1	1	1	1	0	1	-7,892882	273,203396	307,990973	0
15.01.2021	05:09:01	0	0	3,05064	3,549	12,0924	-0,703	83,349	0	1010,42	5,9	8	7,8	1	1	1	1	1	1	1	1	1	0	1	-7,892882	273,203396	307,990973	0
15.01.2021	05:09:02	0	0	3,05064	3,549	12,0924	-0,703	83,349	0	1010,42	5,9	8	7,8	1	1	1	1	1	1	1	1	1	0	1	-4,933051	273,289047	311,347119	0
15.01.2021	05:09:03	0	0	3,502587	3,44925	33,9372	-0,706	83,354	0	1010,5	5,8	8	7,8	1	1	1	1	1	1	1	1	1	0	1	-6,8358	273,286186	309,431125	0
15.01.2021	05:09:04	0	0	3,72856	3,1515	21,1104	-0,708	83,354	0	1010,46	5,8	7,9	7,8	1	1	1	1	1	1	1	1	1	0	1	-6,342495	273,13231	309,212728	0
15.01.2021	05:09:05	0	0	3,954533	3,23175	21,3732	-0,706	83,358	0	1010,5	5,8	8	7,8	1	1	1	1	1	1	1	1	1	0	1	-1,057082	273,115289	314,419488	0
15.01.2021	05:09:06	0	0	3,3896	3,34875	8,622	-0,707	83,369	0	1010,4	5,7	7,8	7,8	1	1	1	1	1	1	1	1	1	0	1	-1,127555	273,230477	314,881569	0
15.01.2021	05:09:07	0	0	4,40648	3,354	3,1104	-0,709	83,352	0	1010,56	5,8	8	7,8	1	1	1	1	1	1	1	1	1	0	1	-5,426357	273,119543	310,069869	0
15.01.2021	05:09:08	0	0	4,971413	3,3405	1,926	-0,71	83,354	0	1010,38	5,8	7,8	7,8	1	1	1	1	1	1	1	1	1	0	1	-6,342495	273,279035	309,891328	0
15.01.2021	05:09:09	0	0	4,519467	3,29625	359,8524	-0,711	83,357	0	1010,36	5,7	8	7,8	1	1	1	1	1	1	1	1	1	0	1	-7,82241	273,261883	308,332028	0
15.01.2021	05:09:10	0	0	4,06752	3,59625	5,2236	-0,707	83,339	0	1010,44	5,8	8	7,8	1	1	1	1	1	1	1	1	1	0	1	-7,117689	273,250457	308,983875	0
15.01.2021	05:09:11	0	0	2,937653	3,615	14,4	-0,707	83,361	0	1010,52	5,7	8	7,8	1	1	1	1	1	1	1	1	1	0	1	-7,540521	273,291909	308,752896	0
15.01.2021	05:09:12	0	0	2,937653	3,51	8,604	-0,717	83,349	0	1010,54	5,8	8	7,8	1	1	1	1	1	1	1	1	1	0	1	-2,466526	273,164977	313,239685	0
15.01.2021	05:09:13	0	0	5,310373	3,4755	7,5096	-0,71	83,362	0	1010,54	5,9	8	7,8	1	1	1	1	1	1	1	1	1	0	1	-2,043693	273,140827	313,550888	0
15.01.2021	05:09:14	0	0	3,728582	3,402	19,152	-0,705	83,359	0	1010,54	5,8	7,8	7,7	1	1	1	1	1	1	1	1	1	0	1	-1,902748	273,129473	313,63936	0
15.01.2021	05:09:15	0	0	4,06752	3,36825	18,8352	-0,708	83,356	0	1010,52	5,8	8	7,8	1	1	1	1	1	1	1	1	1	0	1	-7,610994	273,280465	308,629448	0
15.01.2021	05:09:16	0	0	2,937653	3,1635	15,408	-0,706	83,364	0	1010,5	5,8	8	7,8	1	1	1	1	1	1	1	1	1	0	1	-7,892882	273,123798	307,623004	0
15.01.2021	05:09:17	0	0	2,598693	3,06225	3,042	-0,709	83,359	0	1010,48	5,7	8	7,8	1	1	1	1	1	1	1	1	1	0	1	-8,386187	273,200547	307,484494	0
15.01.2021	05:09:18	0	0	4,745468	3,05775	10,836	-0,711	83,369	0	1010,46	5,7	8	7,7	1	1	1	1	1	1	1	1	1	0	1	-4,721635	273,296202	311,591658	0
15.01.2021	05:09:19	0	0	2,598693	2,9685	7,5132	-0,705	83,386	0	1010,52	5,8	8	7,8	1	1	1	1	1	1	1	1	1	0	1	-5,003524	273,197699	310,853987	0
15.01.2021	05:09:20	0	0	3,72856	3,141	9,3708	-0,706	83,346	0	1010,48	5,7	8	7,8	1	1	1	1	1	1	1	1	1	0	1	-2,325581	273,286186	313,941344	0
15.01.2021	05:09:21	0	0	4,293493	3,3765	7,5204	-0,704	83,359	0	1010,48	5,8	8	7,8	1	1	1	1	1	1	1	1	1	0	1	-5,426357	273,256169	310,70164	0
15.01.2021	05:09:22	0	0	2,71168	3,45	11,2068	-0,708	83,374	0	1010,44	5,8	8	7,8	1	1	1	1	1	1	1	1	1	0	1	-7,117689	273,260454	309,030139	0
15.01.2021	05:09:23	0	0	4,971413	3,46875	14,2992	-0,705	83,366	0	1010,58	5,8	7,8	7,8	1	1	1	1	1	1	1	1	1	0	1	-8,949965	273,286186	307,31696	0
15.01.2021	05:09:24	0	0	3,276613	3,417	9,3672	-0,706	83,367	0	1010,42	5,8	8	7,8	1	1	1	1	1	1	1	1	1	0	1	-7,610994	273,250457	308,49057	0
15.01.2021	05:09:25	0	0	3,72856	3,384	4,0932	-0,704	83,364	0	1010,58	5,8	8	7,8	1	1	1	1	1	1	1	1	1	0	1	-5,778717	273,300496	310,554457	0
15.01.2021	05:09:26	0	0	2,598693	3,35325	15,408	-0,705	83,379	0	1010,7	5,8	8	7,8	1	1	1	1	1	1	1	1	1	0	1	-4,298802	273,162134	311,394267	0
15.01.2021	05:09:27	0	0	3,05064	3,396	14,3136	-0,703	83,369	0	1010,52	5,7	8	7,8	1	1	1	1	1	1	1	1	1	0	1	-3,030303	273,123798	312,485583	0
15.01.2021	05:09:28	0	0	3,841547	3,2715	7,5168	-0,711	83,351	0	1010,44	5,7	8	7,8	1	1	1	1	1	1	1	1	1	0	1	-7,117689	273,263311	309,043362	0
15.01.2021	05:09:29	0	0	3,954533	3,087	8,604	-0,707	83,351	0	1010,48	5,8	8	7,8	1	1	1	1	1	1	1	1	1	0	1	-3,030303	273,279035	313,20352	0
15.01.2021	05:09:30	0	0	3,05064	2,96625	7,236	-0,708	83,371	0	1010,64	5,7	8	7,8	1	1	1	1	1	1	1	1	1	0	1	-0,916138	273,140827	314,678443	0
15.01.2021	05:09:31	0	0	4,293493	2,98125	12,114	-0,708	83,361	0	1010,52	5,7	7,8	7,8	1	1	1	1	1	1	1	1	1	0	1	-10,359408	273,291909	305,934009	0
15.01.2021	05:09:32	0	0	4,858427	3,05475	8,6112	-0,712	83,367	0	1010,52	5,8	8	7,8	1	1	1	1	1	1	1	1	1	0	1	-6,976744	273,263311	309,184306	0
15.01.2021	05:09:33	0	0	3,276613	3,1995	11,718	-0,708	83,382	0	1010,52	5,7	8	7,8	1	1	1	1	1	1	1	1	1	0	1	-5,144468	273,300496	311,188706	0
15.01.2021	05:09:34	0	0	3,05064	3,42225	4,842	-0,709	83,361	0	1010,5	5,7	8	7,8	1	1	1	1	1	1	1	1	1	0	1	-6,976744	273,146506	308,644087	0
15.01.2021	05:09:35	0	0	3,841547	3,6345	4,8564	-0,709	83,366	0	1010,46	5,7	8	7,8	1	1	1	1	1	1	1	1	1	0	1	-2,889359	273,217644	313,060401	0
15.01.2021	05:09:36	0	0	2,937653	3,81975	14,3064	-0,713	83,373	0	1010,4	5,7	8	7,8	1	1	1	1	1	1	1	1	1	0	1	-11,980268	273,125216	303,542173	0
15.01.2021	05:09:37	0	0	3,163627	3,8595	15,4296	-0,705	83,364	0	1010,34	5,7	7,8	7,8	1	1	1	1	1	1	1	1	1	0	1	-3,312192	273,169242	312,413736	0
15.01.2021	05:09:38	0	0	3,163646	3,8475	0,4932	-0,708	83,374	0	1010,56	5,7	8	7,7	1	1	1	1	1	1	1	1	1	0	1	-1,62086	273,106784	313,816416	0
15.01.2021	05:09:39	0	0	3,615573	3,76125	1,5372	-0,707	83,368	0	1010,54	5,8	8	7,8	1	1	1	1	1	1	1	1	1	0	1	-2,818887	273,150767	312,821639	0
15.01.2021	05:09:40	0	0	4,40648	3,90825	2,304	-0,705	83,369	0	1010,56	5,8	8	7,8	1	1	1	1	1	1	1	1	1	0	1	-1,338971	272,913607	313,206775	0
15.01.2021	05:09:41	0	0	4,632453	4,0575	6,4296	-0,705	83,381	0	1010,52	5,7	8	7,8	1	1	1	1	1	1	1	1	1	0	1	-4,933051	273,112454	310,530418	0
15.01.2021	05:09:42	0	0	3,502608	3,91725	16,1028	-0,703	83,376	0	1010,56	5,7	8	7,7	1	1	1	1	1	1	1	1	1	0	1	-8,527132	273,226199	307,462198	0
15.01.2021	05:09:43	0	0	4,971413	3,67275	10,8252	-0,705	83,365	0	1010,48	5,7	8	7,8	1	1	1	1	1	1	1	1	1	0	1	-2,60747	273,283325	313,646212	0
15.01.2021	05:09:44	0	0	2,71168	3,5205	10,4472	-0,708	83,345	0	1010,52	5,9	8	7,8	1	1	1	1	1	1	1	1	1	0	1	-5,496829	273,266169	310,677448	0
15.01.2021	05:09:45	0	0	4,971413	3,4545	7,1388	-0,707	83,38	0	1010,62	5,7	8	7,8	1	1	1	1	1	1	1	1	1	0	1	-6,342495	273,236183	309,693028	0
15.01.2021	05:09:46	0	0	2,824667	3,32175	7,8912	-0,712	83,372	0	1010,5	5,9	8	7,8	1	1	1	1	1	1	1	1	1	0	1	-1,409443	273,109619	314,040928	0
15.01.2021	05:09:47	0	0	3,502587	3,47625	6,4368	-0,707	83,371	0	1010,58	5,7	8	7,8	1	1	1	1	1	1	1	1	1	0	1	-10,147992	273,199123	305,716104	0
15.01.2021	05:09:48	0	0	3,276613	3,4365	356,49	-0,703	83,367	0	1010,24	5,7	8	7,8	1	1	1	1	1	1	1	1	1	0	1	-4,651163	273,286186	311,615762	0
15.01.2021	05:09:49	0	0	4,06752	3,27225	2,7216	-0,708	83,367	0	1010,48	5,9	7,8	7,8	1	1	1	1	1	1	1	1	1	0	1	-1,338971	273,249029	314,755986	0
15.01.2021	05:09:50	0	0	3,05064	2,976	359,874	-0,701	83,379	0	1010,56	5,8	8	7,8	1	1	1	1	1	1	1	1	1	0	1	-5,285412	273,309087	311,08754	0
15.01.2021	05:09:51	0	0	3,276613	2,7525	3,0132	-0,709	83,376	0	1010,44	5,8	8	7,8	1	1	1	1	1	1	1	1	1	0	1	-6,8358	273,269027	309,351705	0
15.01.2021	05:09:52	0	0	3,841547	2,51175	358,7544	-0,704	83,377	0	1010,48	5,9	8	7,8	1	1	1	1	1	1	1	1	1	0	1	-6,694856	273,231904	309,320867	0
15.01.2021	05:09:53	0	0	2,937653	2,478	1,5372	-0,709	83,357	0	1010,62	5,8	8	7,8	1	1	1	1	1	1	1	1	1	0	1	-5,496829	273,113871	309,973191	0
15.01.2021	05:09:54	0	0	4,632453	2,57025	6,0696	-0,711	83,377	0	1010,5	5,8	8	7,8	1	1	1	1	1	1	1	1	1	0	1	-7,470049	273,196275	308,380877	0
15.01.2021	05:09:55	0	0	2,937653	2,77275	3,3984	-0,707	83,373	0	1010,46	5,7	8	7,8	1	1	1	1	1	1	1	1	1	0	1	-3,664553	273,300496	312,668622	0
15.01.2021	05:09:56	0	0	3,72856	2,865	3,0348	-0,711	83,368	0	1010,46	5,7	8	7,8	1	1	1	1	1	1	1	1	1	0	1	-5,84919	273,216219	310,093977	0
15.01.2021	05:09:57	0	0	3,163627	3,06675	6,444	-0,708	83,373	0	1010,64	5,8	8	7,8	1	1	1	1	1	1	1	1	1	0	1	-4,298802	273,135149	311,269538	0
15.01.2021	05:09:58	0	0	3,615573	3,0585	6,8148	-0,708	83,376	0	1010,54	5,9	8	7,8	1	1	1	1	1	1	1	1	1	0	1	-4,439746	273,15645	311,227046	0
15.01.2021	05:09:59	0	0	3,954533	2,9685	7,902	-0,712	83,377	0	1010,46	5,8	8	7,8	1	1	1	1	1	1	1	1	1	0	1	-0	273,120961	315,502778	0
15.01.2021	05:10:00	0	0	4,74544	2,99625	353,0988	-0,71	83,388	0	1010,62	5,7	8	7,8	1	1	1	1	1	1	1	1	1	0	1	-7,470049	273,279035	308,763773	0
15.01.2021	05:10:01	0	0	4,74544	2,99625	353,0988	-0,71	83,388	0	1010,62	5,7	8	7,8	1	1	1	1	1	1	1	1	1	0	1	-7,470049	273,279035	308,763773	0
15.01.2021	05:10:02	0	0	5,310373	2,88525	2,6568	-0,71	83,383	0	1010,42	5,7	8	7,8	1	1	1	1	1	1	1	1	1	0	1	-5,637773	273,129473	309,904335	0
15.01.2021	05:10:03	0	0	4,40648	2,75025	360	-0,709	83,39	0	1010,56	5,7	8	7,8	1	1	1	1	1	1	1	1	1	0	1	-5,84919	273,236183	310,186333	0
15.01.2021	05:10:04	0	0	2,824667	2,742	356,2596	-0,709	83,383	0	1010,62	5,7	8	7,8	1	1	1	1	1	1	1	1	1	0	1	-0,070472	273,299065	316,256074	0
15.01.2021	05:10:05	0	0	2,824667	2,841	6,066	-0,707	83,384	0	1010,48	5,8	8	7,8	1	1	1	1	1	1	1	1	1	0	1	-6,060606	273,187734	309,750824	0
15.01.2021	05:10:06	0	0	4,971413	3,20475	10,0476	-0,707	83,388	0	1010,52	5,7	8	7,8	1	1	1	1	1	1	1	1	1	0	1	-7,610994	273,301928	308,728809	0
15.01.2021	05:10:07	0	0	2,824667	3,3105	359,982	-0,706	83,389	0	1010,44	5,7	8	7,8	1	1	1	1	1	1	1	1	1	0	1	-7,82241	273,241891	308,239522	0
15.01.2021	05:10:08	0	0	2,71168	3,2745	12,1212	-0,712	83,39	0	1010,54	5,7	8	7,8	1	1	1	1	1	1	1	1	1	0	1	-5,144468	273,29334	311,155574	0
15.01.2021	05:10:09	0	0	3,3896	2,9805	19,5264	-0,707	83,384	0	1010,56	5,8	8	7,8	1	1	1	1	1	1	1	1	1	0	1	-3,805497	273,177775	311,959881	0
15.01.2021	05:10:10	0	0	4,74544	2,772	13,1508	-0,716	83,384	0	1010,46	5,7	8	7,8	1	1	1	1	1	1	1	1	1	0	1	-5,144468	273,269027	311,043037	0
15.01.2021	05:10:11	0	0	2,937653	2,8815	7,5168	-0,709	83,397	0	1010,5	5,8	8	7,8	1	1	1	1	1	1	1	1	1	0	1	-6,060606	273,13373	309,501175	0
15.01.2021	05:10:12	0	0	4,74544	3,00675	8,9892	-0,713	83,399	0	1010,54	5,7	8	7,8	1	1	1	1	1	1	1	1	1	0	1	-5,21494	273,162134	310,478129	0
15.01.2021	05:10:13	0	0	4,858427	3,111	10,4544	-0,706	83,399	0	1010,58	5,8	8	7,8	1	1	1	1	1	1	1	1	1	0	1	-1,62086	273,115289	313,85571	0
15.01.2021	05:10:14	0	0	4,858427	3,027	1,188	-0,708	83,404	0	1010,52	5,8	8	7,8	1	1	1	1	1	1	1	1	1	0	1	-1,832276	273,197699	314,025234	0
15.01.2021	05:10:15	0	0	3,841547	3,08175	13,8996	-0,708	83,399	0	1010,6	5,9	8	7,8	1	1	1	1	1	1	1	1	1	0	1	-7,610994	273,128054	307,924558	0
15.01.2021	05:10:16	0	0	4,519467	3,192	0,1224	-0,713	83,401	0	1010,62	5,7	8	7,8	1	1	1	1	1	1	1	1	1	0	1	-1,268499	272,971215	313,542916	0
15.01.2021	05:10:17	0	0	4,180507	3,387	8,6364	-0,702	83,404	0	1010,5	5,7	8	7,8	1	1	1	1	1	1	1	1	1	0	1	-5,073996	273,207669	310,829625	0
15.01.2021	05:10:18	0	0	2,937653	3,56625	29,5776	-0,705	83,414	0	1010,48	5,7	8	7,8	1	1	1	1	1	1	1	1	1	0	1	-4,087385	273,119543	311,40884	0
15.01.2021	05:10:19	0	0	2,937653	3,438	19,1376	-0,707	83,393	0	1010,54	5,7	7,8	7,8	1	1	1	1	1	1	1	1	1	0	1	-6,553911	273,234757	309,475011	0
15.01.2021	05:10:20	0	0	3,954533	3,4395	20,2896	-0,704	83,412	0	1010,54	5,8	8	7,8	1	1	1	1	1	1	1	1	1	0	1	-5,567301	273,301928	310,772501	0
15.01.2021	05:10:21	0	0	2,824667	3,3465	6,4368	-0,708	83,416	0	1010,54	5,7	8	7,8	1	1	1	1	1	1	1	1	1	0	1	-2,889359	273,291909	313,404059	0
15.01.2021	05:10:22	0	0	3,72856	3,4365	18,8388	-0,708	83,415	0	1010,4	5,7	8	7,8	1	1	1	1	1	1	1	1	1	0	1	-4,792107	273,183465	310,999583	0
15.01.2021	05:10:23	0	0	3,05064	3,67425	25,794	-0,714	83,41	0	1010,44	5,7	8	7,8	1	1	1	1	1	1	1	1	1	0	1	-4,862579	273,29334	311,437463	0
15.01.2021	05:10:24	0	0	2,937653	3,75975	3,024	-0,71	83,407	0	1010,46	5,7	8	7,8	1	1	1	1	1	1	1	1	1	0	1	-5,567301	273,162134	310,125768	0
15.01.2021	05:10:25	0	0	4,180507	4,0755	8,262	-0,705	83,4	0	1010,5	5,9	8	7,8	1	1	1	1	1	1	1	1	1	0	1	-0	273,290478	316,286793	0
15.01.2021	05:10:26	0	0	4,40648	3,825	0	-0,707	83,41	0	1010,56	5,7	8	7,8	1	1	1	1	1	1	1	1	1	0	1	-2,396054	273,256169	313,731943	0
15.01.2021	05:10:27	0	0	3,502587	3,402	359,8596	-0,711	83,416	0	1010,56	5,8	8	7,8	1	1	1	1	1	1	1	1	1	0	1	-5,919662	273,289047	310,360508	0
15.01.2021	05:10:28	0	0	3,276613	3,08625	358,7472	-0,71	83,413	0	1010,5	5,7	8	7,8	1	1	1	1	1	1	1	1	1	0	1	-6,412967	273,251884	309,695204	0
15.01.2021	05:10:29	0	0	3,163627	3,0555	3,0312	-0,706	83,42	0	1010,46	5,8	8	7,8	1	1	1	1	1	1	1	1	1	0	1	-7,188161	273,294771	309,118507	0
15.01.2021	05:10:30	0	0	4,06752	3,24975	3,3912	-0,711	83,402	0	1010,1	5,8	8	7,8	1	1	1	1	1	1	1	1	1	0	1	-9,44327	273,251884	306,664901	0
15.01.2021	05:10:31	0	0	2,71168	3,6135	4,4496	-0,707	83,418	0	1010,38	5,7	8	7,8	1	1	1	1	1	1	1	1	1	0	1	-3,805497	273,274745	312,408472	0
15.01.2021	05:10:32	0	0	2,71168	3,9855	2,2968	-0,709	83,415	0	1010,38	5,7	8	7,8	1	1	1	1	1	1	1	1	1	0	1	-4,157858	273,126635	311,371138	0
15.01.2021	05:10:33	0	0	3,3896	4,1385	5,2344	-0,704	83,42	0	1010,48	5,8	8	7,8	1	1	1	1	1	1	1	1	1	0	1	-4,933051	273,182042	310,852059	0
15.01.2021	05:10:34	0	0	4,519467	4,203	4,842	-0,708	83,418	0	1010,52	5,8	8	7,8	1	1	1	1	1	1	1	1	1	0	1	-3,523608	273,115289	311,952962	0
15.01.2021	05:10:35	0	0	3,05064	4,164	4,4712	-0,703	83,433	0	1010,56	5,8	7,8	7,8	1	1	1	1	1	1	1	1	1	0	1	-1,479915	273,217644	314,469844	0
15.01.2021	05:10:36	0	0	3,841547	4,1025	12,1104	-0,708	83,426	0	1010,5	5,7	8	7,8	1	1	1	1	1	1	1	1	1	0	1	-8,597604	273,116707	306,885517	0
15.01.2021	05:10:37	0	0	2,937653	3,95325	4,4676	-0,708	83,424	0	1010,6	5,7	8	7,8	1	1	1	1	1	1	1	1	1	0	1	-7,751938	273,160713	307,934561	0
15.01.2021	05:10:38	0	0	4,06752	3,615	6,4404	-0,705	83,433	0	1010,6	5,7	8	7,8	1	1	1	1	1	1	1	1	1	0	1	-4,087385	273,163555	311,612254	0
15.01.2021	05:10:39	0	0	4,74544	3,4815	0,8676	-0,685	83,442	0	1010,74	5,8	7,8	7,8	1	1	1	1	1	1	1	1	1	0	1	-3,805497	273,290478	312,481297	0
15.01.2021	05:10:40	0	0	2,937653	3,507	7,5132	-0,713	83,384	0	1010,44	5,8	8	7,8	1	1	1	1	1	1	1	1	1	0	1	-8,104299	273,23761	307,937826	0
15.01.2021	05:10:41	0	0	4,06752	3,5415	6,0588	-0,712	83,433	0	1010,5	5,7	8	7,8	1	1	1	1	1	1	1	1	1	0	1	-6,694856	273,290478	309,591938	0
15.01.2021	05:10:42	0	0	3,72856	3,615	9,378	-0,71	83,439	0	1010,48	5,7	8	7,8	1	1	1	1	1	1	1	1	1	0	1	-0,916138	273,166398	314,796644	0
15.01.2021	05:10:43	0	0	4,40648	3,408	7,8768	-0,712	83,432	0	1010,52	5,8	8	7,8	1	1	1	1	1	1	1	1	1	0	1	-6,765328	273,303359	309,581103	0
15.01.2021	05:10:44	0	0	3,615573	3,31725	3,7908	-0,711	83,429	0	1010,5	5,7	8	7,8	1	1	1	1	1	1	1	1	1	0	1	-1,409443	273,187734	314,401986	0
15.01.2021	05:10:45	0	0	2,937653	3,3765	11,2032	-0,707	83,44	0	1010,44	5,8	8	7,8	1	1	1	1	1	1	1	1	1	0	1	-2,466526	273,260454	313,681301	0
15.01.2021	05:10:46	0	0	3,954533	3,30375	6,4476	-0,709	83,438	0	1010,46	5,8	7,8	7,8	1	1	1	1	1	1	1	1	1	0	1	-1,338971	273,299065	314,987575	0
15.01.2021	05:10:47	0	0	4,74544	3,279	10,5084	-0,71	83,446	0	1010,46	5,7	8	7,8	1	1	1	1	1	1	1	1	1	0	1	-2,255109	273,241891	313,806823	0
15.01.2021	05:10:48	0	0	3,3896	3,15675	8,9964	-0,71	83,442	0	1010,42	5,7	8	7,8	1	1	1	1	1	1	1	1	1	0	1	-3,100775	273,286186	313,16615	0
15.01.2021	05:10:49	0	0	3,615573	3,033	6,4404	-0,71	83,441	0	1010,5	5,8	8	7,8	1	1	1	1	1	1	1	1	1	0	1	-4,087385	273,146506	311,533446	0
15.01.2021	05:10:50	0	0	3,72856	2,9475	3,402	-0,71	83,435	0	1010,46	5,7	8	7,8	1	1	1	1	1	1	1	1	1	0	1	-1,832276	273,145086	313,781992	0
15.01.2021	05:10:51	0	0	3,72856	2,91225	7,884	-0,708	83,425	0	1010,5	5,7	8	7,8	1	1	1	1	1	1	1	1	1	0	1	-3,664553	273,297633	312,655367	0
15.01.2021	05:10:52	0	0	3,841547	2,91075	3,7836	-0,712	83,445	0	1010,52	5,7	8	7,8	1	1	1	1	1	1	1	1	1	0	1	-9,513742	273,217644	306,436017	0
15.01.2021	05:10:53	0	0	4,632453	3,06525	4,1076	-0,709	83,451	0	1010,38	5,7	7,8	7,8	1	1	1	1	1	1	1	1	1	0	1	-6,272023	273,300496	310,061152	0
15.01.2021	05:10:54	0	0	4,180507	3,303	4,14	-0,713	83,45	0	1010,6	5,8	8	7,8	1	1	1	1	1	1	1	1	1	0	1	-3,171247	273,153608	312,482411	0
15.01.2021	05:10:55	0	0	3,615573	3,5505	360	-0,717	83,446	0	1010,44	5,8	8	7,8	1	1	1	1	1	1	1	1	1	0	1	-3,946441	273,201971	311,930827	0
15.01.2021	05:10:56	0	0	2,824667	3,65475	7,1388	-0,705	83,449	0	1010,56	5,8	8	7,8	1	1	1	1	1	1	1	1	1	0	1	-3,946441	273,304791	312,406619	0
15.01.2021	05:10:57	0	0	2,937653	3,7905	9,7272	-0,711	83,441	0	1010,54	5,8	8	7,8	1	1	1	1	1	1	1	1	1	0	1	-0	273,145086	315,614268	0
15.01.2021	05:10:58	0	0	3,3896	3,90675	10,5264	-0,709	83,427	0	1010,5	5,8	8	7,8	1	1	1	1	1	1	1	1	1	0	1	-6,131078	273,111036	309,325842	0
15.01.2021	05:10:59	0	0	4,971413	4,113	9,378	-0,702	83,46	0	1010,34	5,7	8	7,8	1	1	1	1	1	1	1	1	1	0	1	-0,352361	273,210519	315,564439	0
15.01.2021	05:11:00	0	0	2,824667	3,80925	1,9368	-0,708	83,451	0	1010,54	5,8	8	7,8	1	1	1	1	1	1	1	1	1	0	1	-3,805497	273,140827	311,789084	0
15.01.2021	05:11:01	0	0	2,824667	3,80925	1,9368	-0,708	83,451	0	1010,54	5,8	8	7,8	1	1	1	1	1	1	1	1	1	0	1	-3,805497	273,140827	311,789084	0
15.01.2021	05:11:02	0	0	2,824667	3,61425	1,1844	-0,707	83,448	0	1010,46	5,7	8	7,8	1	1	1	1	1	1	1	1	1	0	1	-3,875969	273,145086	311,738299	0
15.01.2021	05:11:03	0	0	3,615573	3,65025	9,756	-0,71	83,437	0	1010,5	5,7	8	7,8	1	1	1	1	1	1	1	1	1	0	1	-6,976744	273,119543	308,519481	0
15.01.2021	05:11:04	0	0	4,293493	3,9225	6,444	-0,71	83,436	0	1010,5	5,8	8	7,8	1	1	1	1	1	1	1	1	1	0	1	-1,902748	273,164977	313,803462	0
15.01.2021	05:11:05	0	0	3,276613	3,8325	13,932	-0,707	83,439	0	1010,48	5,7	8	7,8	1	1	1	1	1	1	1	1	1	0	1	-6,060606	273,116707	309,422515	0
15.01.2021	05:11:06	0	0	3,841547	3,936	19,1412	-0,704	83,452	0	1010,48	5,8	8	7,8	1	1	1	1	1	1	1	1	1	0	1	-3,805497	273,152188	311,841595	0
15.01.2021	05:11:07	0	0	4,971413	3,8625	10,8216	-0,707	83,45	0	1010,56	5,7	8	7,8	1	1	1	1	1	1	1	1	1	0	1	-2,255109	273,173508	313,490541	0
15.01.2021	05:11:08	0	0	3,276613	3,65175	9,7524	-0,711	83,453	0	1010,48	5,8	8	7,8	1	1	1	1	1	1	1	1	1	0	1	-6,624383	273,105367	308,806345	0
15.01.2021	05:11:09	0	0	3,615573	3,58575	355,4316	-0,705	83,457	0	1010,38	5,8	8	7,8	1	1	1	1	1	1	1	1	1	0	1	-3,100775	273,257597	313,033831	0
15.01.2021	05:11:10	0	0	3,276613	3,6435	1,9332	-0,712	83,45	0	1010,54	5,8	8	7,8	1	1	1	1	1	1	1	1	1	0	1	-5,073996	273,130891	310,47467	0
15.01.2021	05:11:11	0	0	2,824667	3,807	359,5536	-0,709	83,448	0	1010,58	5,7	8	7,8	1	1	1	1	1	1	1	1	1	0	1	-4,298802	273,269027	311,888703	0
15.01.2021	05:11:12	0	0	2,824667	4,038	7,0416	-0,709	83,439	0	1010,36	5,8	8	7,8	1	1	1	1	1	1	1	1	1	0	1	-0	273,214794	315,936574	0
15.01.2021	05:11:13	0	0	2,824667	4,1505	6,4368	-0,715	83,452	0	1010,4	5,7	8	7,8	1	1	1	1	1	1	1	1	1	0	1	-1,198027	273,155029	314,462198	0
15.01.2021	05:11:14	0	0	2,485707	4,25625	13,5288	-0,713	83,449	0	1010,36	5,7	8	7,8	1	1	1	1	1	1	1	1	1	0	1	-11,557435	273,299065	304,769112	0
15.01.2021	05:11:15	0	0	2,71168	4,176	10,062	-0,71	83,442	0	1010,54	5,7	8	7,8	1	1	1	1	1	1	1	1	1	0	1	-6,342495	273,163555	309,357145	0
15.01.2021	05:11:16	0	0	4,519467	4,15125	12,8448	-0,714	83,447	0	1010,44	5,7	8	7,8	1	1	1	1	1	1	1	1	1	0	1	-4,792107	273,297633	311,527812	0
15.01.2021	05:11:17	0	0	3,954533	3,666	6,8256	-0,717	83,444	0	1010,4	5,7	8	7,8	1	1	1	1	1	1	1	1	1	0	1	-2,60747	273,209094	313,30274	0
15.01.2021	05:11:18	0	0	4,06752	3,23775	26,5212	-0,714	83,454	0	1010,52	5,8	8	7,8	1	1	1	1	1	1	1	1	1	0	1	-4,510218	273,300496	311,822956	0
15.01.2021	05:11:19	0	0	2,824667	3,06825	20,628	-0,714	83,464	0	1010,48	5,8	8	7,8	1	1	1	1	1	1	1	1	1	0	1	-0	273,137988	315,581459	0
15.01.2021	05:11:20	0	0	4,40648	3,024	16,2108	-0,714	83,461	0	1010,52	5,7	8	7,8	1	1	1	1	1	1	1	1	1	0	1	-4,510218	273,213369	311,419764	0
15.01.2021	05:11:21	0	0	3,276613	3,50325	4,4748	-0,712	83,47	0	1010,62	5,7	8	7,8	1	1	1	1	1	1	1	1	1	0	1	-3,382664	273,130891	312,166001	0
15.01.2021	05:11:22	0	0	4,06752	4,0485	11,7108	-0,716	83,461	0	1010,52	5,7	8	7,8	1	1	1	1	1	1	1	1	1	0	1	-4,792107	273,160713	310,894392	0
15.01.2021	05:11:23	0	0	2,937653	4,30875	358,038	-0,711	83,475	0	1010,44	5,8	8	7,8	1	1	1	1	1	1	1	1	1	0	1	-5,778717	273,166398	309,934065	0
15.01.2021	05:11:24	0	0	3,841547	4,509	0,126	-0,708	83,471	0	1010,48	5,8	8	7,8	1	1	1	1	1	1	1	1	1	0	1	-0,211416	273,269027	315,976088	0
15.01.2021	05:11:25	0	0	2,598693	4,3935	2,3076	-0,709	83,473	0	1010,46	5,8	8	7,8	1	1	1	1	1	1	1	1	1	0	1	-0,211416	273,166398	315,501366	0
15.01.2021	05:11:26	0	0	4,632453	4,08075	12,4488	-0,711	83,47	0	1010,5	5,8	8	7,8	1	1	1	1	1	1	1	1	1	0	1	-4,22833	273,284755	312,031974	0
15.01.2021	05:11:27	0	0	4,293493	3,74025	16,8624	-0,707	83,48	0	1010,64	5,8	8	7,8	1	1	1	1	1	1	1	1	1	0	1	-4,792107	273,213369	311,137875	0
15.01.2021	05:11:28	0	0	3,05064	3,4785	8,9928	-0,709	83,473	0	1010,54	5,7	8	7,8	1	1	1	1	1	1	1	1	1	0	1	-3,24172	273,108201	312,202103	0
15.01.2021	05:11:29	0	0	3,276613	3,29475	16,8588	-0,71	83,477	0	1010,44	5,8	8	7,8	1	1	1	1	1	1	1	1	1	0	1	-4,087385	273,160713	311,599114	0
15.01.2021	05:11:30	0	0	2,937653	3,34425	360	-0,707	83,468	0	1010,46	5,8	8	7,8	1	1	1	1	1	1	1	1	1	0	1	-2,396054	273,119543	313,100172	0
15.01.2021	05:11:31	0	0	4,40648	3,2595	7,4952	-0,709	83,474	0	1010,5	5,9	8	7,8	1	1	1	1	1	1	1	1	1	0	1	-0,211416	273,280465	316,029026	0
15.01.2021	05:11:32	0	0	4,632453	3,315	4,4784	-0,707	83,467	0	1010,44	5,8	8	7,8	1	1	1	1	1	1	1	1	1	0	1	-2,60747	273,169242	313,118458	0
15.01.2021	05:11:33	0	0	3,615573	3,3795	360	-0,707	83,478	0	1010,56	5,8	8	7,8	1	1	1	1	1	1	1	1	1	0	1	-6,906272	273,299065	309,420274	0
15.01.2021	05:11:34	0	0	2,71168	3,384	4,8528	-0,705	83,494	0	1010,48	5,8	8	7,8	1	1	1	1	1	1	1	1	1	0	1	-0	273,200547	315,870682	0
15.01.2021	05:11:35	0	0	3,05064	3,255	6,8292	-0,709	83,461	0	1010,56	5,7	8	7,8	1	1	1	1	1	1	1	1	1	0	1	-1,973221	273,130891	313,575445	0
15.01.2021	05:11:36	0	0	4,293493	3,222	353,484	-0,708	83,468	0	1010,6	5,8	8	7,8	1	1	1	1	1	1	1	1	1	0	1	-0	273,115289	315,47657	0
15.01.2021	05:11:37	0	0	3,05064	3,204	3,0384	-0,709	83,475	0	1010,6	5,8	8	7,8	1	1	1	1	1	1	1	1	1	0	1	-2,60747	273,234757	313,421452	0
15.01.2021	05:11:38	0	0	3,502587	3,64275	7,1352	-0,708	83,486	0	1010,54	5,7	8	7,8	1	1	1	1	1	1	1	1	1	0	1	-6,131078	273,125216	309,391362	0
15.01.2021	05:11:39	0	0	3,502587	3,7275	20,6244	-0,711	83,477	0	1010,48	5,7	8	7,8	1	1	1	1	1	1	1	1	1	0	1	-0,704722	273,224773	315,278012	0
15.01.2021	05:11:40	0	0	2,937653	3,4815	20,6424	-0,715	83,483	0	1010,42	5,8	8	7,8	1	1	1	1	1	1	1	1	1	0	1	-5,21494	273,120961	310,287838	0
15.01.2021	05:11:41	0	0	2,937653	3,1125	15,0372	-0,712	83,488	0	1010,4	5,8	8	7,8	1	1	1	1	1	1	1	1	1	0	1	-1,268499	273,120961	314,234279	0
15.01.2021	05:11:42	0	0	4,519467	2,90775	10,0728	-0,711	83,49	0	1010,46	5,7	8	7,8	1	1	1	1	1	1	1	1	1	0	1	-2,959831	273,177775	312,805547	0
15.01.2021	05:11:43	0	0	3,841547	3,0195	8,6148	-0,707	83,489	0	1010,52	5,7	8	7,8	1	1	1	1	1	1	1	1	1	0	1	-3,171247	273,290478	313,115546	0
15.01.2021	05:11:44	0	0	3,72856	3,168	8,6184	-0,705	83,494	0	1010,44	5,8	8	7,8	1	1	1	1	1	1	1	1	1	0	1	-4,157858	273,217644	311,791902	0
15.01.2021	05:11:45	0	0	3,841547	3,37275	11,2032	-0,706	83,483	0	1010,44	5,8	8	7,8	1	1	1	1	1	1	1	1	1	0	1	-2,959831	273,284755	313,300472	0
15.01.2021	05:11:46	0	0	4,40648	3,67725	12,096	-0,706	83,494	0	1010,58	5,7	8	7,8	1	1	1	1	1	1	1	1	1	0	1	-1,550388	273,256169	314,577609	0
15.01.2021	05:11:47	0	0	3,841547	4,0125	5,6916	-0,707	83,496	0	1010,56	5,8	8	7,8	1	1	1	1	1	1	1	1	1	0	1	-4,651163	273,123798	310,864723	0
15.01.2021	05:11:48	0	0	4,858427	3,9315	14,3028	-0,703	83,494	0	1010,46	5,7	8	7,8	1	1	1	1	1	1	1	1	1	0	1	-4,792107	273,119543	310,704118	0
15.01.2021	05:11:49	0	0	5,42336	3,83025	11,2032	-0,708	83,493	0	1010,5	5,7	8	7,8	1	1	1	1	1	1	1	1	1	0	1	-7,610994	273,192004	308,220181	0
15.01.2021	05:11:50	0	0	2,937653	3,81825	13,9176	-0,717	83,498	0	1010,46	5,7	8	7,8	1	1	1	1	1	1	1	1	1	0	1	-1,691332	273,281895	314,55573	0
15.01.2021	05:11:51	0	0	2,03376	3,61275	23,9724	-0,706	83,505	0	1010,44	5,8	8	7,8	1	1	1	1	1	1	1	1	1	0	1	-5,496829	273,203396	310,387027	0
15.01.2021	05:11:52	0	0	2,598693	3,41625	11,196	-0,712	83,494	0	1010,52	5,7	8	7,8	1	1	1	1	1	1	1	1	1	0	1	-3,735025	273,145086	311,879243	0
15.01.2021	05:11:53	0	0	4,858427	3,387	4,9464	-0,711	83,49	0	1010,56	5,8	8	7,8	1	1	1	1	1	1	1	1	1	0	1	-6,131078	273,299065	310,195468	0
15.01.2021	05:11:54	0	0	4,180507	3,35175	19,5372	-0,706	83,511	0	1010,5	5,7	8	7,8	1	1	1	1	1	1	1	1	1	0	1	-5,285412	273,224773	310,697321	0
15.01.2021	05:11:55	0	0	3,05064	3,3135	9,3744	-0,704	83,488	0	1010,42	5,7	8	7,8	1	1	1	1	1	1	1	1	1	0	1	-3,453136	273,12238	312,056196	0
15.01.2021	05:11:56	0	0	3,954533	3,22725	6,4332	-0,71	83,495	0	1010,36	5,8	8	7,8	1	1	1	1	1	1	1	1	1	0	1	-5,21494	273,257597	310,919666	0
15.01.2021	05:11:57	0	0	4,519467	3,22425	8,2728	-0,704	83,524	0	1010,5	5,8	8	7,8	1	1	1	1	1	1	1	1	1	0	1	-4,087385	273,294771	312,219282	0
15.01.2021	05:11:58	0	0	3,72856	3,0585	359,424	-0,704	83,508	0	1010,56	5,8	8	7,8	1	1	1	1	1	1	1	1	1	0	1	-6,20155	273,223347	309,774587	0
15.01.2021	05:11:59	0	0	2,937653	2,94975	352,8432	-0,708	83,494	0	1010,58	5,8	8	7,8	1	1	1	1	1	1	1	1	1	0	1	-7,188161	273,306223	309,17153	0
15.01.2021	05:12:00	0	0	3,72856	3,3525	4,8312	-0,71	83,496	0	1010,5	5,8	8	7,8	1	1	1	1	1	1	1	1	1	0	1	-3,030303	273,152188	312,616788	0
15.01.2021	05:12:01	0	0	3,72856	3,3525	4,8312	-0,71	83,496	0	1010,5	5,8	8	7,8	1	1	1	1	1	1	1	1	1	0	1	-3,030303	273,152188	312,616788	0
15.01.2021	05:12:02	0	0	4,971413	3,6435	360	-0,705	83,517	0	1010,58	5,8	8	7,8	1	1	1	1	1	1	1	1	1	0	1	-2,748414	273,396652	314,030177	0
15.01.2021	05:12:03	0	0	3,3896	4,1925	1,1664	-0,706	83,52	0	1010,54	5,8	8	7,8	1	1	1	1	1	1	1	1	1	0	1	-5,285412	273,150767	310,355113	0
15.01.2021	05:12:04	0	0	2,937653	4,42425	12,8556	-0,707	83,52	0	1010,6	5,8	8	7,8	1	1	1	1	1	1	1	1	1	0	1	-7,892882	273,149347	307,741078	0
15.01.2021	05:12:05	0	0	4,40648	4,32525	14,2956	-0,711	83,51	0	1010,38	5,8	8	7,8	1	1	1	1	1	1	1	1	1	0	1	-9,231853	273,123798	306,284033	0
15.01.2021	05:12:06	0	0	4,632453	4,2075	10,0656	-0,708	83,511	0	1010,42	5,7	8	7,8	1	1	1	1	1	1	1	1	1	0	1	-4,933051	273,170664	310,79945	0
15.01.2021	05:12:07	0	0	4,74544	4,01175	20,2716	-0,702	83,523	0	1010,48	5,8	8	7,8	1	1	1	1	1	1	1	1	1	0	1	-6,060606	273,15645	309,606187	0
15.01.2021	05:12:08	0	0	2,937653	3,83025	30,2256	-0,713	83,526	0	1010,4	5,8	8	7,8	1	1	1	1	1	1	1	1	1	0	1	-3,664553	273,106784	311,772723	0
15.01.2021	05:12:09	0	0	4,40648	3,73875	31,4064	-0,704	83,528	0	1010,3	5,7	8	7,8	1	1	1	1	1	1	1	1	1	0	1	-7,751938	273,194851	308,092404	0
15.01.2021	05:12:10	0	0	3,615573	3,2925	16,8624	-0,706	83,531	0	1010,52	5,7	8	7,8	1	1	1	1	1	1	1	1	1	0	1	-3,100775	273,116707	312,382346	0
15.01.2021	05:12:11	0	0	4,632453	3,31575	4,086	-0,71	83,526	0	1010,5	5,8	8	7,8	1	1	1	1	1	1	1	1	1	0	1	-4,792107	273,261883	311,362331	0
15.01.2021	05:12:12	0	0	3,954533	3,55725	8,6112	-0,706	83,537	0	1010,4	5,7	8	7,8	1	1	1	1	1	1	1	1	1	0	1	-7,470049	273,172086	308,269026	0
15.01.2021	05:12:13	0	0	4,632453	3,855	7,8912	-0,71	83,551	0	1010,5	5,8	8	7,8	1	1	1	1	1	1	1	1	1	0	1	-7,892882	273,120961	307,609896	0
15.01.2021	05:12:14	0	0	3,502587	3,90675	10,8288	-0,715	83,535	0	1010,46	5,8	8	7,8	1	1	1	1	1	1	1	1	1	0	1	-3,382664	273,190581	312,441929	0
15.01.2021	05:12:15	0	0	2,71168	3,94125	10,818	-0,708	83,549	0	1010,64	5,7	8	7,8	1	1	1	1	1	1	1	1	1	0	1	-0,916138	273,304791	315,436922	0
15.01.2021	05:12:16	0	0	3,841547	3,819	6,4476	-0,707	83,548	0	1010,62	5,7	8	7,8	1	1	1	1	1	1	1	1	1	0	1	-6,060606	273,146506	309,560226	0
15.01.2021	05:12:17	0	0	3,615573	3,68025	13,9248	-0,706	83,538	0	1010,4	5,8	8	7,8	1	1	1	1	1	1	1	1	1	0	1	-2,396054	273,173508	313,349597	0
15.01.2021	05:12:18	0	0	2,824667	3,273	7,5096	-0,708	83,557	0	1010,58	5,7	8	7,8	1	1	1	1	1	1	1	1	1	0	1	-7,188161	273,279035	309,045662	0
15.01.2021	05:12:19	0	0	2,71168	3,0615	22,824	-0,709	83,529	0	1010,44	5,8	8	7,8	1	1	1	1	1	1	1	1	1	0	1	-11,205074	273,159292	304,474856	0
15.01.2021	05:12:20	0	0	3,3896	3,345	17,2368	-0,706	83,562	0	1010,54	5,7	8	7,8	1	1	1	1	1	1	1	1	1	0	1	-4,22833	273,291909	312,065088	0
15.01.2021	05:12:21	0	0	4,632453	3,378	13,1616	-0,705	83,558	0	1010,56	5,8	8	7,8	1	1	1	1	1	1	1	1	1	0	1	-8,527132	273,269027	307,660373	0
15.01.2021	05:12:22	0	0	4,971413	3,44025	18,8208	-0,707	83,559	0	1010,34	5,7	8	7,8	1	1	1	1	1	1	1	1	1	0	1	-6,131078	273,20482	309,759365	0
15.01.2021	05:12:23	0	0	2,937653	3,582	9,3564	-0,713	83,549	0	1010,42	5,8	8	7,8	1	1	1	1	1	1	1	1	1	0	1	-3,171247	273,116707	312,311874	0
15.01.2021	05:12:24	0	0	3,954533	3,49125	5,6808	-0,705	83,558	0	1010,62	5,7	8	7,8	1	1	1	1	1	1	1	1	1	0	1	-4,862579	273,213369	311,067403	0
15.01.2021	05:12:25	0	0	4,971413	3,37725	16,8624	-0,704	83,574	0	1010,54	5,8	8	7,8	1	1	1	1	1	1	1	1	1	0	1	-5,990134	273,12238	309,519198	0
15.01.2021	05:12:26	0	0	3,72856	3,279	15,7788	-0,705	83,565	0	1010,44	5,8	8	7,8	1	1	1	1	1	1	1	1	1	0	1	-3,664553	273,142247	311,93659	0
15.01.2021	05:12:27	0	0	3,615573	3,35775	13,1544	-0,704	83,566	0	1010,66	5,7	8	7,8	1	1	1	1	1	1	1	1	1	0	1	-3,664553	273,221921	312,30499	0
15.01.2021	05:12:28	0	0	2,37272	3,41775	16,8552	-0,705	83,564	0	1010,48	5,7	8	7,8	1	1	1	1	1	1	1	1	1	0	1	-6,483439	273,123798	309,032447	0
15.01.2021	05:12:29	0	0	3,72856	3,3825	11,2104	-0,707	83,567	0	1010,5	5,8	8	7,8	1	1	1	1	1	1	1	1	1	0	1	-3,735025	273,108201	311,708798	0
15.01.2021	05:12:30	0	0	3,954533	3,26925	19,9008	-0,706	83,581	0	1010,54	5,8	8	7,8	1	1	1	1	1	1	1	1	1	0	1	-2,818887	273,192004	313,012289	0
15.01.2021	05:12:31	0	0	4,971413	3,18375	17,2404	-0,707	83,575	0	1010,52	5,8	8	7,8	1	1	1	1	1	1	1	1	1	0	1	-9,513742	273,279035	306,720081	0
15.01.2021	05:12:32	0	0	2,937653	3,3135	17,2404	-0,708	83,575	0	1010,5	5,7	8	7,8	1	1	1	1	1	1	1	1	1	0	1	-2,677942	273,15645	312,98885	0
15.01.2021	05:12:33	0	0	4,519467	3,303	6,0624	-0,705	83,569	0	1010,56	5,8	8	7,8	1	1	1	1	1	1	1	1	1	0	1	-8,033827	273,163555	307,665813	0
15.01.2021	05:12:34	0	0	2,146747	3,17025	11,7072	-0,704	83,581	0	1010,56	5,8	8	7,8	1	1	1	1	1	1	1	1	1	0	1	-6,20155	273,111036	309,25537	0
15.01.2021	05:12:35	0	0	3,615573	2,95125	20,6388	-0,706	83,577	0	1010,66	5,8	8	7,8	1	1	1	1	1	1	1	1	1	0	1	-4,933051	273,163555	310,766588	0
15.01.2021	05:12:36	0	0	2,485707	2,75175	23,5872	-0,707	83,585	0	1010,56	5,8	8	7,8	1	1	1	1	1	1	1	1	1	0	1	-1,198027	273,26474	314,969637	0
15.01.2021	05:12:37	0	0	3,72856	2,80875	13,9968	-0,71	83,579	0	1010,52	5,7	8	7,8	1	1	1	1	1	1	1	1	1	0	1	-8,033827	273,290478	308,252967	0
15.01.2021	05:12:38	0	0	4,632453	3,03	10,8216	-0,711	83,57	0	1010,46	5,8	8	7,8	1	1	1	1	1	1	1	1	1	0	1	-9,936575	273,159292	305,743355	0
15.01.2021	05:12:39	0	0	4,632453	3,0105	12,1068	-0,706	83,591	0	1010,58	5,8	8	7,8	1	1	1	1	1	1	1	1	1	0	1	-3,946441	273,253312	312,168337	0
15.01.2021	05:12:40	0	0	4,858427	2,9505	11,7144	-0,71	83,567	0	1010,5	5,7	8	7,8	1	1	1	1	1	1	1	1	1	0	1	-11,557435	273,281895	304,689627	0
15.01.2021	05:12:41	0	0	4,74544	3,0165	9,7596	-0,708	83,571	0	1010,54	5,8	8	7,8	1	1	1	1	1	1	1	1	1	0	1	-7,751938	273,129473	307,79017	0
15.01.2021	05:12:42	0	0	4,858427	3,15825	5,22	-0,709	83,567	0	1010,44	5,8	8	7,8	1	1	1	1	1	1	1	1	1	0	1	-5,496829	273,301928	310,842974	0
15.01.2021	05:12:43	0	0	3,615573	3,11325	3,0492	-0,714	83,587	0	1010,48	5,8	8	7,8	1	1	1	1	1	1	1	1	1	0	1	-5,355884	273,16782	310,36347	0
15.01.2021	05:12:44	0	0	4,74544	3,08325	2,6532	-0,713	83,585	0	1010,48	5,8	8	7,8	1	1	1	1	1	1	1	1	1	0	1	-1,832276	273,113871	313,637743	0
15.01.2021	05:12:45	0	0	3,72856	3,11475	7,1208	-0,707	83,59	0	1010,54	5,8	8	7,8	1	1	1	1	1	1	1	1	1	0	1	-4,792107	273,23333	311,230215	0
15.01.2021	05:12:46	0	0	3,954533	3,03	9,3744	-0,704	83,602	0	1010,58	5,8	8	7,8	1	1	1	1	1	1	1	1	1	0	1	-8,104299	273,126635	307,424697	0
15.01.2021	05:12:47	0	0	4,74544	3,16725	7,1352	-0,711	83,589	0	1010,5	5,8	8	7,8	1	1	1	1	1	1	1	1	1	0	1	-3,805497	273,261883	312,348942	0
15.01.2021	05:12:48	0	0	2,937653	3,14325	16,092	-0,709	83,59	0	1010,54	5,8	8	7,8	1	1	1	1	1	1	1	1	1	0	1	-1,832276	273,281895	314,414786	0
15.01.2021	05:12:49	0	0	4,40648	3,024	8,6148	-0,706	83,596	0	1010,4	5,7	8	7,8	1	1	1	1	1	1	1	1	1	0	1	-3,453136	273,259025	312,68808	0
15.01.2021	05:12:50	0	0	3,3896	3,009	10,4544	-0,708	83,598	0	1010,56	5,8	8	7,8	1	1	1	1	1	1	1	1	1	0	1	-5,919662	273,162134	309,773407	0
15.01.2021	05:12:51	0	0	4,632453	2,895	5,6916	-0,706	83,598	0	1010,56	5,8	8	7,8	1	1	1	1	1	1	1	1	1	0	1	-0,98661	273,311952	315,399606	0
15.01.2021	05:12:52	0	0	3,3896	2,85225	9,4644	-0,708	83,595	0	1010,52	5,8	8	7,8	1	1	1	1	1	1	1	1	1	0	1	-6,906272	273,207669	308,997348	0
15.01.2021	05:12:53	0	0	4,519467	2,733	2,6424	-0,707	83,605	0	1010,54	5,8	8	7,8	1	1	1	1	1	1	1	1	1	0	1	-5,708245	273,29334	310,591797	0
15.01.2021	05:12:54	0	0	4,06752	2,664	18,4572	-0,708	83,593	0	1010,34	5,8	8	7,8	1	1	1	1	1	1	1	1	1	0	1	-5,003524	273,163555	310,696116	0
15.01.2021	05:12:55	0	0	3,841547	2,5815	22,086	-0,71	83,597	0	1010,52	5,8	8	7,8	1	1	1	1	1	1	1	1	1	0	1	-6,131078	273,113871	309,338941	0
15.01.2021	05:12:56	0	0	4,519467	2,562	19,5228	-0,705	83,598	0	1010,52	5,8	8	7,8	1	1	1	1	1	1	1	1	1	0	1	-10,500352	273,266169	305,673924	0
15.01.2021	05:12:57	0	0	2,937653	2,78925	16,866	-0,703	83,609	0	1010,54	5,7	8	7,8	1	1	1	1	1	1	1	1	1	0	1	-5,073996	273,299065	311,252551	0
15.01.2021	05:12:58	0	0	4,519467	3,1395	0,4824	-0,704	83,612	0	1010,64	5,8	8	7,8	1	1	1	1	1	1	1	1	1	0	1	-1,057082	273,072802	314,223225	0
15.01.2021	05:12:59	0	0	4,858427	3,32025	8,5968	-0,713	83,602	0	1010,52	5,8	8	7,8	1	1	1	1	1	1	1	1	1	0	1	-4,933051	273,287616	311,340496	0
15.01.2021	05:13:00	0	0	3,615573	2,84925	23,2236	-0,704	83,652	0	1010,56	5,7	8	7,8	1	1	1	1	1	1	1	1	1	0	1	-4,580691	273,184888	311,217578	0
15.01.2021	05:13:01	0	0	3,615573	2,84925	23,2236	-0,704	83,652	0	1010,56	5,7	8	7,8	1	1	1	1	1	1	1	1	1	0	1	-4,580691	273,184888	311,217578	0
15.01.2021	05:13:02	0	0	4,74544	2,80875	30,3156	-0,708	83,629	0	1010,48	5,8	8	7,8	1	1	1	1	1	1	1	1	1	0	1	-1,127555	273,29334	315,172487	0
15.01.2021	05:13:03	0	0	2,259733	2,75925	9,1044	-0,707	83,599	0	1010,62	5,8	8	7,8	1	1	1	1	1	1	1	1	1	0	1	-3,805497	273,213369	312,124485	0
15.01.2021	05:13:04	0	0	3,163627	2,7795	11,7108	-0,708	83,627	0	1010,64	5,8	8	7,8	1	1	1	1	1	1	1	1	1	0	1	-10,077519	273,296202	306,235774	0
15.01.2021	05:13:05	0	0	2,598693	2,7975	14,2956	-0,706	83,618	0	1010,52	5,8	8	7,8	1	1	1	1	1	1	1	1	1	0	1	-3,664553	273,199123	312,199543	0
15.01.2021	05:13:06	0	0	3,502587	2,75925	21,762	-0,706	83,627	0	1010,56	5,8	8	7,8	1	1	1	1	1	1	1	1	1	0	1	-3,171247	273,10395	312,252934	0
15.01.2021	05:13:07	0	0	2,598693	2,79225	13,5432	-0,703	83,624	0	1010,66	5,8	8	7,8	1	1	1	1	1	1	1	1	1	0	1	-2,818887	273,149347	312,815074	0
15.01.2021	05:13:08	0	0	2,71168	2,895	12,096	-0,704	83,634	0	1010,54	5,8	8	7,8	1	1	1	1	1	1	1	1	1	0	1	-7,188161	273,172086	308,550915	0
15.01.2021	05:13:09	0	0	4,632453	2,8095	11,7216	-0,703	83,631	0	1010,52	5,8	8	7,8	1	1	1	1	1	1	1	1	1	0	1	-9,090909	273,291909	307,202508	0
15.01.2021	05:13:10	0	0	2,485707	2,7435	16,8588	-0,705	83,63	0	1010,52	5,8	8	7,8	1	1	1	1	1	1	1	1	1	0	1	-2,60747	273,186311	313,197379	0
15.01.2021	05:13:11	0	0	5,0844	2,57175	23,9652	-0,71	83,62	0	1010,58	5,8	8	7,8	1	1	1	1	1	1	1	1	1	0	1	-4,862579	273,13231	310,692644	0
15.01.2021	05:13:12	0	0	3,276613	2,50725	18,072	-0,708	83,608	0	1010,56	5,8	8	7,8	1	1	1	1	1	1	1	1	1	0	1	-4,157858	273,194851	311,686484	0
15.01.2021	05:13:13	0	0	3,276613	2,44275	352,0332	-0,714	83,635	0	1010,28	5,8	8	7,8	1	1	1	1	1	1	1	1	1	0	1	-5,637773	273,125216	309,884668	0
15.01.2021	05:13:14	0	0	4,06752	2,51475	6,0768	-0,712	83,627	0	1010,58	5,7	8	7,8	1	1	1	1	1	1	1	1	1	0	1	-6,8358	273,112454	308,62767	0
15.01.2021	05:13:15	0	0	3,72856	2,57175	8,2728	-0,706	83,64	0	1010,64	5,8	8	7,8	1	1	1	1	1	1	1	1	1	0	1	-7,188161	273,211944	308,73523	0
15.01.2021	05:13:16	0	0	4,632453	2,904	32,5044	-0,712	83,635	0	1010,24	5,7	8	7,8	1	1	1	1	1	1	1	1	1	0	1	-7,399577	273,259025	308,741639	0
15.01.2021	05:13:17	0	0	2,598693	3,21075	16,56	-0,704	83,634	0	1010,42	5,8	8	7,8	1	1	1	1	1	1	1	1	1	0	1	-3,030303	273,271886	313,170433	0
15.01.2021	05:13:18	0	0	4,971413	3,42075	24,7896	-0,719	83,637	0	1010,54	5,8	8	7,8	1	1	1	1	1	1	1	1	1	0	1	-7,681466	273,246173	308,400279	0
15.01.2021	05:13:19	0	0	3,502587	3,3735	31,7772	-0,71	83,642	0	1010,44	5,8	8	7,8	1	1	1	1	1	1	1	1	1	0	1	-8,597604	273,254741	307,523783	0
15.01.2021	05:13:20	0	0	3,954533	3,19275	3,7764	-0,71	83,635	0	1010,6	5,8	8	7,8	1	1	1	1	1	1	1	1	1	0	1	-3,805497	273,115289	311,671073	0
15.01.2021	05:13:21	0	0	2,37272	3,28125	19,6236	-0,705	83,658	0	1010,42	5,8	8	7,8	1	1	1	1	1	1	1	1	1	0	1	-2,818887	273,224773	313,163847	0
15.01.2021	05:13:22	0	0	2,824667	3,2415	15,4044	-0,71	83,633	0	1010,52	5,8	8	7,8	1	1	1	1	1	1	1	1	1	0	1	-7,610994	273,112454	307,852476	0
15.01.2021	05:13:23	0	0	3,05064	3,26325	10,0836	-0,713	83,647	0	1010,76	5,8	8	7,8	1	1	1	1	1	1	1	1	1	0	1	-2,114165	273,192004	313,71701	0
15.01.2021	05:13:24	0	0	3,276613	3,258	9,7596	-0,708	83,652	0	1010,58	5,8	8	7,8	1	1	1	1	1	1	1	1	1	0	1	-1,268499	273,281895	314,978563	0
15.01.2021	05:13:25	0	0	4,180507	3,0165	15,03	-0,705	83,645	0	1010,64	5,8	8	7,8	1	1	1	1	1	1	1	1	1	0	1	-8,386187	273,257597	307,748418	0
15.01.2021	05:13:26	0	0	4,632453	2,916	10,8144	-0,707	83,644	0	1010,52	5,7	8	7,8	1	1	1	1	1	1	1	1	1	0	1	-7,399577	273,179197	308,372378	0
15.01.2021	05:13:27	0	0	2,937653	2,8635	18,4572	-0,707	83,66	0	1010,4	5,8	8	7,8	1	1	1	1	1	1	1	1	1	0	1	-5,919662	273,119543	309,576564	0
15.01.2021	05:13:28	0	0	3,163627	2,84475	16,0992	-0,708	83,659	0	1010,62	5,8	8	7,8	1	1	1	1	1	1	1	1	1	0	1	-4,087385	273,259025	312,053831	0
15.01.2021	05:13:29	0	0	3,841547	2,883	19,1484	-0,705	83,658	0	1010,5	5,8	8	7,8	1	1	1	1	1	1	1	1	1	0	1	-2,60747	273,142247	312,993673	0
15.01.2021	05:13:30	0	0	3,05064	2,69625	0,4896	-0,707	83,667	0	1010,6	5,8	8	7,8	1	1	1	1	1	1	1	1	1	0	1	-3,523608	273,259025	312,617608	0
15.01.2021	05:13:31	0	0	3,841547	2,478	19,9008	-0,7	83,666	0	1010,5	5,8	8	7,8	1	1	1	1	1	1	1	1	1	0	1	-5,637773	273,274745	310,576196	0
15.01.2021	05:13:32	0	0	2,485707	2,38575	6,8184	-0,705	83,678	0	1010,56	5,8	8	7,8	1	1	1	1	1	1	1	1	1	0	1	-6,20155	273,143666	309,406155	0
15.01.2021	05:13:33	0	0	3,3896	2,601	7,506	-0,709	83,666	0	1010,46	5,8	8	7,8	1	1	1	1	1	1	1	1	1	0	1	-1,62086	273,13231	313,934363	0
15.01.2021	05:13:34	0	0	4,293493	2,973	18,4536	-0,708	83,678	0	1010,66	5,8	8	7,8	1	1	1	1	1	1	1	1	1	0	1	-6,694856	273,145086	308,919413	0
15.01.2021	05:13:35	0	0	4,293493	3,201	19,134	-0,712	83,674	0	1010,58	5,8	8	7,8	1	1	1	1	1	1	1	1	1	0	1	-8,033827	273,284755	308,226477	0
15.01.2021	05:13:36	0	0	4,06752	3,0555	17,7012	-0,705	83,674	0	1010,54	5,8	8	7,8	1	1	1	1	1	1	1	1	1	0	1	-4,580691	273,217644	311,369069	0
15.01.2021	05:13:37	0	0	2,71168	3,108	9,3708	-0,71	83,677	0	1010,56	5,8	8	7,8	1	1	1	1	1	1	1	1	1	0	1	-1,127555	273,294771	315,179113	0
15.01.2021	05:13:38	0	0	4,06752	3,3765	22,8312	-0,718	83,679	0	1010,46	5,8	8	7,8	1	1	1	1	1	1	1	1	1	0	1	-7,610994	273,184888	308,187275	0
15.01.2021	05:13:39	0	0	4,858427	3,58725	9,738	-0,706	83,68	0	1010,52	5,8	7,9	7,8	1	1	1	1	1	1	1	1	1	0	1	-4,792107	273,120961	310,710671	0
15.01.2021	05:13:40	0	0	3,163627	3,59325	9,3636	-0,708	83,692	0	1010,52	5,8	8	7,8	1	1	1	1	1	1	1	1	1	0	1	-3,030303	273,159292	312,649627	0
15.01.2021	05:13:41	0	0	3,05064	3,56925	18,4644	-0,703	83,688	0	1010,58	5,8	8	7,8	1	1	1	1	1	1	1	1	1	0	1	-6,553911	273,173508	309,191739	0
15.01.2021	05:13:42	0	0	3,05064	3,486	10,8252	-0,71	83,69	0	1010,54	5,8	8	7,8	1	1	1	1	1	1	1	1	1	0	1	-7,610994	273,105367	307,819735	0
15.01.2021	05:13:43	0	0	3,615573	3,516	11,7072	-0,705	83,697	0	1010,54	5,8	8	7,8	1	1	1	1	1	1	1	1	1	0	1	-9,090909	273,179197	306,681046	0
15.01.2021	05:13:44	0	0	4,74544	3,51825	16,4844	-0,705	83,699	0	1010,6	5,8	7,9	7,8	1	1	1	1	1	1	1	1	1	0	1	-3,382664	273,119543	312,113562	0
15.01.2021	05:13:45	0	0	3,72856	3,66225	13,1724	-0,708	83,692	0	1010,5	5,8	8	7,8	1	1	1	1	1	1	1	1	1	0	1	-3,664553	273,192004	312,166623	0
15.01.2021	05:13:46	0	0	2,598693	3,7245	11,7216	-0,712	83,697	0	1010,66	5,7	8	7,8	1	1	1	1	1	1	1	1	1	0	1	-10,500352	273,280465	305,74009	0
15.01.2021	05:13:47	0	0	2,485707	3,717	6,0804	-0,707	83,697	0	1010,56	5,8	8	7,8	1	1	1	1	1	1	1	1	1	0	1	-5,637773	273,116707	309,845348	0
15.01.2021	05:13:48	0	0	5,42336	3,81675	5,688	-0,716	83,695	0	1010,54	5,8	8	7,8	1	1	1	1	1	1	1	1	1	0	1	-3,735025	273,190581	312,089568	0
15.01.2021	05:13:49	0	0	3,3896	3,8385	13,9248	-0,711	83,696	0	1010,42	5,8	8	7,8	1	1	1	1	1	1	1	1	1	0	1	-4,298802	273,273316	311,90855	0
15.01.2021	05:13:50	0	0	4,519467	3,75975	13,5396	-0,709	83,711	0	1010,38	5,8	8	7,8	1	1	1	1	1	1	1	1	1	0	1	-5,84919	273,18062	309,929343	0
15.01.2021	05:13:51	0	0	4,74544	3,546	9,7596	-0,709	83,704	0	1010,52	5,8	8	7,8	1	1	1	1	1	1	1	1	1	0	1	-7,470049	273,283325	308,783633	0
15.01.2021	05:13:52	0	0	3,05064	3,37425	16,8552	-0,711	83,709	0	1010,48	5,8	8	7,8	1	1	1	1	1	1	1	1	1	0	1	-7,470049	273,139407	308,117971	0
15.01.2021	05:13:53	0	0	3,954533	3,1875	8,604	-0,705	83,715	0	1010,46	5,8	8	7,8	1	1	1	1	1	1	1	1	1	0	1	-6,412967	273,259025	309,728249	0
15.01.2021	05:13:54	0	0	3,841547	3,228	7,4088	-0,714	83,709	0	1010,42	5,8	8	7,8	1	1	1	1	1	1	1	1	1	0	1	-4,369274	273,273316	311,838078	0
15.01.2021	05:13:55	0	0	4,74544	3,34725	4,8492	-0,71	83,719	0	1010,56	5,8	8	7,8	1	1	1	1	1	1	1	1	1	0	1	-2,748414	273,286186	313,518511	0
15.01.2021	05:13:56	0	0	3,3896	3,237	18,4536	-0,711	83,697	0	1010,44	5,8	8	7,8	1	1	1	1	1	1	1	1	1	0	1	-5,990134	273,253312	310,124645	0
15.01.2021	05:13:57	0	0	3,954533	2,9205	10,8396	-0,712	83,72	0	1010,6	5,8	8	7,8	1	1	1	1	1	1	1	1	1	0	1	-6,765328	273,149347	308,868633	0
15.01.2021	05:13:58	0	0	3,163627	2,66325	14,0292	-0,707	83,72	0	1010,56	5,8	8	7,8	1	1	1	1	1	1	1	1	1	0	1	-6,272023	273,136568	309,302877	0
15.01.2021	05:13:59	0	0	2,824667	2,6085	6,0696	-0,708	83,72	0	1010,6	5,8	8	7,8	1	1	1	1	1	1	1	1	1	0	1	-6,8358	273,18062	308,942733	0
15.01.2021	05:14:00	0	0	3,276613	2,601	0,8856	-0,707	83,728	0	1010,52	5,7	8	7,8	1	1	1	1	1	1	1	1	1	0	1	-2,959831	273,16782	312,759524	0
15.01.2021	05:14:01	0	0	3,276613	2,601	0,8856	-0,707	83,728	0	1010,52	5,7	8	7,8	1	1	1	1	1	1	1	1	1	0	1	-2,959831	273,16782	312,759524	0
15.01.2021	05:14:02	0	0	3,841547	2,65125	6,8148	-0,707	83,729	0	1010,5	5,8	8	7,8	1	1	1	1	1	1	1	1	1	0	1	-5,144468	273,120961	310,35831	0
15.01.2021	05:14:03	0	0	5,310373	2,694	13,1688	-0,705	83,725	0	1010,46	5,8	8	7,8	1	1	1	1	1	1	1	1	1	0	1	-7,681466	273,244746	308,393674	0
15.01.2021	05:14:04	0	0	3,276613	2,928	0,8748	-0,707	83,727	0	1010,44	5,7	8	7,8	1	1	1	1	1	1	1	1	1	0	1	-1,691332	273,105367	313,739396	0
15.01.2021	05:14:05	0	0	3,72856	3,072	2,2968	-0,703	83,73	0	1010,4	5,8	8	7,8	1	1	1	1	1	1	1	1	1	0	1	-0,281889	273,146506	315,338943	0
15.01.2021	05:14:06	0	0	2,598693	2,91225	5,6988	-0,71	83,724	0	1010,5	5,8	8	7,8	1	1	1	1	1	1	1	1	1	0	1	-4,016913	273,143666	311,590792	0
15.01.2021	05:14:07	0	0	3,954533	2,9085	5,2308	-0,709	83,72	0	1010,54	5,8	8	7,8	1	1	1	1	1	1	1	1	1	0	1	-4,22833	273,159292	311,4516	0
15.01.2021	05:14:08	0	0	3,3896	2,775	13,9176	-0,705	83,731	0	1010,36	5,8	8	7,8	1	1	1	1	1	1	1	1	1	0	1	-1,198027	273,227625	314,797901	0
15.01.2021	05:14:09	0	0	3,3896	2,69025	18,0864	-0,715	83,739	0	1010,38	5,8	8	7,8	1	1	1	1	1	1	1	1	1	0	1	-2,889359	273,105367	312,54137	0
15.01.2021	05:14:10	0	0	4,180507	2,5425	18,0864	-0,708	83,739	0	1010,54	5,8	8	7,8	1	1	1	1	1	1	1	1	1	0	1	-6,20155	273,209094	309,70866	0
15.01.2021	05:14:11	0	0	5,0844	2,53425	3,78	-0,708	83,736	0	1010,62	5,8	8	7,8	1	1	1	1	1	1	1	1	1	0	1	-5,990134	273,296202	310,323159	0
15.01.2021	05:14:12	0	0	4,293493	2,78475	10,44	-0,707	83,747	0	1010,58	5,7	8	7,8	1	1	1	1	1	1	1	1	1	0	1	-3,946441	273,163555	311,753198	0
15.01.2021	05:14:13	0	0	4,06752	3,0285	21,7656	-0,705	83,727	0	1010,54	5,7	8	7,8	1	1	1	1	1	1	1	1	1	0	1	-2,255109	273,289047	314,025061	0
15.01.2021	05:14:14	0	0	4,74544	2,78025	27,648	-0,709	83,747	0	1010,48	5,8	8	7,8	1	1	1	1	1	1	1	1	1	0	1	-5,21494	273,197699	310,642571	0
15.01.2021	05:14:15	0	0	2,937653	2,58	29,9484	-0,707	83,75	0	1010,48	5,8	8	7,8	1	1	1	1	1	1	1	1	1	0	1	-5,21494	273,116707	310,268181	0
15.01.2021	05:14:16	0	0	2,71168	2,43675	6,4332	-0,706	83,743	0	1010,62	5,8	8	7,8	1	1	1	1	1	1	1	1	1	0	1	-1,479915	273,183465	314,311774	0
15.01.2021	05:14:17	0	0	2,71168	2,3505	8,9892	-0,708	83,752	0	1010,48	5,8	8	7,8	1	1	1	1	1	1	1	1	1	0	1	-0,845666	273,108201	314,598157	0
15.01.2021	05:14:18	0	0	3,72856	2,38875	4,8564	-0,709	83,75	0	1010,3	5,8	7,9	7,8	1	1	1	1	1	1	1	1	1	0	1	-3,523608	273,221921	312,445934	0
15.01.2021	05:14:19	0	0	4,293493	2,511	7,146	-0,71	83,76	0	1010,52	5,8	8	7,8	1	1	1	1	1	1	1	1	1	0	1	-2,60747	273,118125	312,882203	0
15.01.2021	05:14:20	0	0	3,954533	2,6325	20,6928	-0,708	83,748	0	1010,34	5,8	8	7,8	1	1	1	1	1	1	1	1	1	0	1	-4,933051	273,150767	310,707474	0
15.01.2021	05:14:21	0	0	3,3896	2,55375	19,5372	-0,716	83,763	0	1010,48	5,8	8	7,8	1	1	1	1	1	1	1	1	1	0	1	-2,818887	273,111036	312,638034	0
15.01.2021	05:14:22	0	0	4,519467	2,59125	11,7324	-0,709	83,758	0	1010,38	5,8	8	7,8	1	1	1	1	1	1	1	1	1	0	1	-3,24172	273,256169	312,886277	0
15.01.2021	05:14:23	0	0	3,163627	2,5785	14,31	-0,708	83,747	0	1010,44	5,8	8	7,8	1	1	1	1	1	1	1	1	1	0	1	-5,285412	273,126635	310,243584	0
15.01.2021	05:14:24	0	0	3,954533	2,73225	1,998	-0,704	83,783	0	1010,72	5,8	7,9	7,8	1	1	1	1	1	1	1	1	1	0	1	-3,171247	273,155029	312,488978	0
15.01.2021	05:14:25	0	0	4,632453	3,024	11,7036	-0,713	83,768	0	1010,46	5,8	8	7,8	1	1	1	1	1	1	1	1	1	0	1	-5,637773	273,126635	309,891223	0
15.01.2021	05:14:26	0	0	4,519467	2,9205	7,1424	-0,706	83,764	0	1010,54	5,8	8	7,8	1	1	1	1	1	1	1	1	1	0	1	-2,396054	273,270457	313,798066	0
15.01.2021	05:14:27	0	0	4,971413	2,8305	10,8324	-0,705	83,76	0	1010,46	5,8	8	7,8	1	1	1	1	1	1	1	1	1	0	1	-2,114165	273,189157	313,703846	0
15.01.2021	05:14:28	0	0	4,519467	3,0435	12,852	-0,709	83,765	0	1010,5	5,8	8	7,8	1	1	1	1	1	1	1	1	1	0	1	-8,386187	273,296202	307,927106	0
15.01.2021	05:14:29	0	0	4,180507	3,1005	14,2992	-0,706	83,771	0	1010,52	5,8	8	7,8	1	1	1	1	1	1	1	1	1	0	1	-3,664553	273,17493	312,087673	0
15.01.2021	05:14:30	0	0	4,858427	3,03675	27,2736	-0,705	83,776	0	1010,48	5,8	8	7,8	1	1	1	1	1	1	1	1	1	0	1	-4,510218	273,111036	310,946702	0
15.01.2021	05:14:31	0	0	4,293493	2,86275	22,8276	-0,711	83,772	0	1010,48	5,8	8	7,8	1	1	1	1	1	1	1	1	1	0	1	-4,721635	273,199123	311,142461	0
15.01.2021	05:14:32	0	0	3,163627	2,73525	18,0792	-0,712	83,774	0	1010,54	5,8	8	7,8	1	1	1	1	1	1	1	1	1	0	1	-5,355884	273,284755	310,904419	0
15.01.2021	05:14:33	0	0	5,0844	2,835	9,3672	-0,709	83,769	0	1010,48	5,8	8	7,8	1	1	1	1	1	1	1	1	1	0	1	-5,285412	273,259025	310,855804	0
15.01.2021	05:14:34	0	0	4,858427	2,8785	9	-0,703	83,794	0	1010,54	5,8	8	7,8	1	1	1	1	1	1	1	1	1	0	1	-5,285412	273,15645	310,38138	0
15.01.2021	05:14:35	0	0	2,598693	2,874	12,4596	-0,708	83,789	0	1010,52	5,8	8	7,8	1	1	1	1	1	1	1	1	1	0	1	-4,933051	273,145086	310,681217	0
15.01.2021	05:14:36	0	0	2,937653	2,68575	19,5552	-0,709	83,764	0	1010,54	5,8	8	7,8	1	1	1	1	1	1	1	1	1	0	1	-5,708245	273,118125	309,781428	0
15.01.2021	05:14:37	0	0	2,146747	2,57175	30,6864	-0,709	83,782	0	1010,6	5,8	8	7,8	1	1	1	1	1	1	1	1	1	0	1	-0,704722	273,130891	314,843944	0
15.01.2021	05:14:38	0	0	3,841547	2,52825	6,1416	-0,703	83,778	0	1010,44	5,7	8	7,8	1	1	1	1	1	1	1	1	1	0	1	-4,087385	273,169242	311,638542	0
15.01.2021	05:14:39	0	0	4,40648	2,56125	15,0336	-0,707	83,793	0	1010,48	5,8	8	7,8	1	1	1	1	1	1	1	1	1	0	1	-3,382664	273,286186	312,884261	0
15.01.2021	05:14:40	0	0	3,276613	2,51475	354,2616	-0,711	83,79	0	1010,5	5,8	8	7,8	1	1	1	1	1	1	1	1	1	0	1	-3,523608	273,137988	312,057851	0
15.01.2021	05:14:41	0	0	4,40648	2,70675	3,7512	-0,71	83,799	0	1010,54	5,8	8	7,8	1	1	1	1	1	1	1	1	1	0	1	-1,057082	273,294771	315,249585	0
15.01.2021	05:14:42	0	0	4,06752	2,72175	342,9108	-0,706	83,804	0	1010,56	5,8	8	7,8	1	1	1	1	1	1	1	1	1	0	1	-3,735025	273,247601	312,353326	0
15.01.2021	05:14:43	0	0	4,632453	2,661	5,67	-0,705	83,798	0	1010,5	5,8	7,9	7,8	1	1	1	1	1	1	1	1	1	0	1	-1,268499	273,102533	314,149137	0
15.01.2021	05:14:44	0	0	3,841547	2,60625	1,1664	-0,705	83,801	0	1010,56	5,8	8	7,8	1	1	1	1	1	1	1	1	1	0	1	-6,483439	273,120961	309,019339	0
15.01.2021	05:14:45	0	0	3,05064	2,5695	357,2676	-0,708	83,785	0	1010,42	5,7	8	7,8	1	1	1	1	1	1	1	1	1	0	1	-4,651163	273,226199	311,338167	0
15.01.2021	05:14:46	0	0	4,519467	2,54475	4,4676	-0,709	83,809	0	1010,6	5,8	8	7,8	1	1	1	1	1	1	1	1	1	0	1	-2,043693	273,289047	314,236477	0
15.01.2021	05:14:47	0	0	3,954533	2,5185	358,2396	-0,707	83,802	0	1010,4	5,8	8	7,8	1	1	1	1	1	1	1	1	1	0	1	-3,171247	273,207669	312,732373	0
15.01.2021	05:14:48	0	0	3,502587	2,5515	9,7308	-0,705	83,807	0	1010,52	5,8	8	7,8	1	1	1	1	1	1	1	1	1	0	1	-5,637773	273,300496	310,695401	0
15.01.2021	05:14:49	0	0	3,163627	2,487	11,3004	-0,71	83,806	0	1010,54	5,8	8	7,8	1	1	1	1	1	1	1	1	1	0	1	-1,409443	273,160713	314,277056	0
15.01.2021	05:14:50	0	0	3,954533	2,481	359,4564	-0,708	83,804	0	1010,54	5,8	7,9	7,8	1	1	1	1	1	1	1	1	1	0	1	-1,409443	273,113871	314,060576	0
15.01.2021	05:14:51	0	0	4,06752	2,65125	10,4436	-0,708	83,81	0	1010,58	5,8	8	7,8	1	1	1	1	1	1	1	1	1	0	1	-4,298802	273,259025	311,842414	0
15.01.2021	05:14:52	0	0	4,632453	2,6625	7,1316	-0,708	83,825	0	1010,48	5,8	8	7,8	1	1	1	1	1	1	1	1	1	0	1	-4,792107	273,271886	311,408628	0
15.01.2021	05:14:53	0	0	5,0844	2,70375	6,8004	-0,713	83,821	0	1010,44	5,8	8	7,8	1	1	1	1	1	1	1	1	1	0	1	-2,255109	273,207669	313,648511	0
15.01.2021	05:14:54	0	0	3,05064	2,937	5,2344	-0,705	83,827	0	1010,54	5,8	8	7,8	1	1	1	1	1	1	1	1	1	0	1	-8,45666	273,239037	307,592067	0
15.01.2021	05:14:55	0	0	3,163627	3,1365	8,2728	-0,705	83,821	0	1010,48	5,8	8	7,8	1	1	1	1	1	1	1	1	1	0	1	-5,708245	273,281895	310,538817	0
15.01.2021	05:14:56	0	0	3,163627	3,16425	7,4952	-0,706	83,816	0	1010,42	5,8	7,9	7,8	1	1	1	1	1	1	1	1	1	0	1	-2,60747	273,172086	313,131605	0
15.01.2021	05:14:57	0	0	3,72856	3,11475	33,2604	-0,707	83,802	0	1010,48	5,8	8	7,8	1	1	1	1	1	1	1	1	1	0	1	-6,412967	273,155029	309,247258	0
15.01.2021	05:14:58	0	0	3,615573	3,0165	21,384	-0,706	83,828	0	1010,52	5,8	7,9	7,8	1	1	1	1	1	1	1	1	1	0	1	-1,761804	273,106784	313,675471	0
15.01.2021	05:14:59	0	0	4,971413	2,9205	22,4856	-0,705	83,831	0	1010,42	5,8	8	7,8	1	1	1	1	1	1	1	1	1	0	1	-5,637773	273,183465	310,153917	0
15.01.2021	05:15:00	0	0	3,841547	2,919	10,0332	-0,705	83,83	0	1010,46	5,8	8	7,8	1	1	1	1	1	1	1	1	1	0	1	-5,567301	273,247601	310,52105	0
15.01.2021	05:15:01	0	0	3,841547	2,919	10,0332	-0,705	83,83	0	1010,46	5,8	8	7,8	1	1	1	1	1	1	1	1	1	0	1	-5,567301	273,247601	310,52105	0
15.01.2021	05:15:02	0	0	4,858427	2,93925	18,8244	-0,706	83,827	0	1010,5	5,8	8	7,8	1	1	1	1	1	1	1	1	1	0	1	-4,580691	273,170664	311,151811	0
15.01.2021	05:15:03	0	0	2,598693	2,8845	16,1856	-0,705	83,833	0	1010,42	5,8	8	7,8	1	1	1	1	1	1	1	1	1	0	1	-5,778717	273,109619	309,671654	0
15.01.2021	05:15:04	0	0	4,180507	2,721	22,0896	-0,71	83,819	0	1010,44	5,8	8	7,8	1	1	1	1	1	1	1	1	1	0	1	-5,355884	273,246173	310,725861	0
15.01.2021	05:15:05	0	0	2,824667	2,682	6,444	-0,709	83,83	0	1010,5	5,8	7,9	7,8	1	1	1	1	1	1	1	1	1	0	1	-8,45666	273,257597	307,677946	0
15.01.2021	05:15:06	0	0	2,598693	3,03225	10,4616	-0,707	83,84	0	1010,56	5,8	8	7,8	1	1	1	1	1	1	1	1	1	0	1	-9,090909	273,267598	307,089981	0
15.01.2021	05:15:07	0	0	4,858427	3,09075	8,2512	-0,709	83,839	0	1010,6	5,8	7,9	7,8	1	1	1	1	1	1	1	1	1	0	1	-1,62086	273,23333	314,401462	0
15.01.2021	05:15:08	0	0	5,310373	3,0705	1,1808	-0,706	83,853	0	1010,52	5,8	8	7,8	1	1	1	1	1	1	1	1	1	0	1	-1,691332	273,26474	314,476331	0
15.01.2021	05:15:09	0	0	4,180507	2,91375	1,5552	-0,706	83,841	0	1010,36	5,8	8	7,8	1	1	1	1	1	1	1	1	1	0	1	-4,862579	273,164977	310,843632	0
15.01.2021	05:15:10	0	0	4,06752	2,81025	16,4844	-0,703	83,843	0	1010,52	5,8	8	7,8	1	1	1	1	1	1	1	1	1	0	1	-2,959831	273,116707	312,52329	0
15.01.2021	05:15:11	0	0	2,937653	2,67	0,9936	-0,708	83,854	0	1010,42	5,8	7,9	7,8	1	1	1	1	1	1	1	1	1	0	1	-4,087385	273,159292	311,592544	0
15.01.2021	05:15:12	0	0	2,598693	2,81325	5,2164	-0,706	83,838	0	1010,48	5,8	7,9	7,8	1	1	1	1	1	1	1	1	1	0	1	-6,060606	273,109619	309,389765	0
15.01.2021	05:15:13	0	0	3,615573	2,8695	14,3028	-0,704	83,857	0	1010,64	5,8	7,9	7,8	1	1	1	1	1	1	1	1	1	0	1	-4,087385	273,231904	311,928337	0
15.01.2021	05:15:14	0	0	3,163627	2,90025	17,6904	-0,704	83,867	0	1010,44	5,8	8	7,8	1	1	1	1	1	1	1	1	1	0	1	-1,127555	273,10395	314,296627	0
15.01.2021	05:15:15	0	0	3,276613	3,069	4,8456	-0,709	83,849	0	1010,48	5,8	8	7,8	1	1	1	1	1	1	1	1	1	0	1	-3,312192	273,162134	312,380877	0
15.01.2021	05:15:16	0	0	5,0844	3,12525	0,144	-0,705	83,85	0	1010,56	5,8	8	7,8	1	1	1	1	1	1	1	1	1	0	1	-5,426357	273,266169	310,74792	0
15.01.2021	05:15:17	0	0	4,632453	3,07275	14,652	-0,709	83,851	0	1010,2	5,8	8	7,8	1	1	1	1	1	1	1	1	1	0	1	-3,59408	273,236183	312,441443	0
15.01.2021	05:15:18	0	0	3,3896	2,98575	1,1772	-0,706	83,863	0	1010,54	5,8	7,9	7,8	1	1	1	1	1	1	1	1	1	0	1	-0,775194	273,112454	314,688276	0
15.01.2021	05:15:19	0	0	2,937653	2,95125	7,1388	-0,703	83,856	0	1010,54	5,8	8	7,8	1	1	1	1	1	1	1	1	1	0	1	-8,45666	273,120961	307,046119	0
15.01.2021	05:15:20	0	0	4,293493	3,07725	8,6184	-0,707	83,868	0	1010,54	5,8	8	7,8	1	1	1	1	1	1	1	1	1	0	1	-6,483439	273,157871	309,189922	0
15.01.2021	05:15:21	0	0	4,632453	3,11625	21,0168	-0,701	83,87	0	1010,48	5,8	7,9	7,8	1	1	1	1	1	1	1	1	1	0	1	-8,738548	273,270457	307,455572	0
15.01.2021	05:15:22	0	0	2,485707	3,3405	18,54	-0,705	83,875	0	1010,54	5,8	8	7,8	1	1	1	1	1	1	1	1	1	0	1	-2,466526	273,142247	313,134617	0
15.01.2021	05:15:23	0	0	4,293493	3,5715	8,6184	-0,706	83,868	0	1010,54	5,8	8	7,8	1	1	1	1	1	1	1	1	1	0	1	-5,567301	273,126635	309,961695	0
15.01.2021	05:15:24	0	0	3,615573	3,72525	1,926	-0,701	83,852	0	1010,56	5,8	8	7,8	1	1	1	1	1	1	1	1	1	0	1	-0,211416	273,274745	316,002552	0
15.01.2021	05:15:25	0	0	3,276613	3,6345	360	-0,706	83,869	0	1010,46	5,8	7,9	7,8	1	1	1	1	1	1	1	1	1	0	1	-4,016913	273,273316	312,190439	0
15.01.2021	05:15:26	0	0	4,40648	3,507	13,9392	-0,702	83,884	0	1010,46	5,8	8	7,8	1	1	1	1	1	1	1	1	1	0	1	-3,24172	273,163555	312,45792	0
15.01.2021	05:15:27	0	0	4,40648	3,18825	12,4632	-0,701	83,876	0	1010,58	5,8	8	7,8	1	1	1	1	1	1	1	1	1	0	1	-6,060606	273,271886	310,14013	0
15.01.2021	05:15:28	0	0	4,40648	2,994	5,2092	-0,705	83,883	0	1010,44	5,8	8	7,8	1	1	1	1	1	1	1	1	1	0	1	-4,22833	273,214794	311,708244	0
15.01.2021	05:15:29	0	0	3,615573	3,0465	26,1648	-0,708	83,891	0	1010,38	5,8	8	7,8	1	1	1	1	1	1	1	1	1	0	1	-2,818887	273,273316	313,388465	0
15.01.2021	05:15:30	0	0	3,276613	3,159	19,5408	-0,704	83,871	0	1010,5	5,8	8	7,8	1	1	1	1	1	1	1	1	1	0	1	-2,677942	273,209094	313,232268	0
15.01.2021	05:15:31	0	0	4,519467	3,2175	16,4952	-0,707	83,864	0	1010,44	5,8	7,9	7,8	1	1	1	1	1	1	1	1	1	0	1	-6,20155	273,280465	310,038892	0
15.01.2021	05:15:32	0	0	4,74544	3,16125	21,7692	-0,707	83,873	0	1010,44	5,8	7,9	7,8	1	1	1	1	1	1	1	1	1	0	1	-7,117689	273,216219	308,825478	0
15.01.2021	05:15:33	0	0	3,841547	3,13875	26,892	-0,702	83,902	0	1010,52	5,8	8	7,8	1	1	1	1	1	1	1	1	1	0	1	-4,721635	273,105367	310,709093	0
15.01.2021	05:15:34	0	0	4,74544	3,0675	16,4952	-0,702	83,898	0	1010,5	5,7	8	7,8	1	1	1	1	1	1	1	1	1	0	1	-6,483439	273,243319	309,585097	0
15.01.2021	05:15:35	0	0	4,180507	2,7675	17,7048	-0,702	83,889	0	1010,4	5,8	7,9	7,8	1	1	1	1	1	1	1	1	1	0	1	-1,761804	273,123798	313,754082	0
15.01.2021	05:15:36	0	0	3,05064	2,53875	9,0036	-0,7	83,895	0	1010,5	5,8	7,9	7,8	1	1	1	1	1	1	1	1	1	0	1	-6,553911	273,111036	308,903009	0
15.01.2021	05:15:37	0	0	4,632453	2,55225	11,1924	-0,701	83,901	0	1010,46	5,8	8	7,8	1	1	1	1	1	1	1	1	1	0	1	-4,087385	273,18062	311,691147	0
15.01.2021	05:15:38	0	0	4,632453	2,8815	13,176	-0,707	83,892	0	1010,46	5,8	7,9	7,8	1	1	1	1	1	1	1	1	1	0	1	-2,325581	273,267598	313,855309	0
15.01.2021	05:15:39	0	0	3,163627	3,243	25,794	-0,704	83,897	0	1010,48	5,8	8	7,8	1	1	1	1	1	1	1	1	1	0	1	-5,778717	273,177775	309,98666	0
15.01.2021	05:15:40	0	0	4,74544	3,25725	30,708	-0,706	83,918	0	1010,52	5,8	8	7,8	1	1	1	1	1	1	1	1	1	0	1	-7,047216	273,108201	308,396607	0
15.01.2021	05:15:41	0	0	4,858427	2,9865	11,7432	-0,706	83,899	0	1010,48	5,8	7,9	7,8	1	1	1	1	1	1	1	1	1	0	1	-5,990134	273,150767	309,650392	0
15.01.2021	05:15:42	0	0	3,05064	3,22425	7,5168	-0,711	83,898	0	1010,38	5,8	8	7,8	1	1	1	1	1	1	1	1	1	0	1	-7,188161	273,271886	309,012575	0
15.01.2021	05:15:43	0	0	2,71168	3,48225	1,1772	-0,706	83,91	0	1010,48	5,8	8	7,8	1	1	1	1	1	1	1	1	1	0	1	-3,24172	272,959961	311,517781	0
15.01.2021	05:15:44	0	0	4,40648	3,59175	0,5832	-0,706	83,898	0	1010,52	5,8	7,9	7,8	1	1	1	1	1	1	1	1	1	0	1	-3,100775	273,145086	312,513493	0
15.01.2021	05:15:45	0	0	2,37272	3,6975	8,622	-0,703	83,91	0	1010,44	5,8	8	7,8	1	1	1	1	1	1	1	1	1	0	1	-6,20155	273,094034	309,176822	0
15.01.2021	05:15:46	0	0	4,519467	3,4725	12,8448	-0,703	83,914	0	1010,52	5,8	8	7,8	1	1	1	1	1	1	1	1	1	0	1	-9,090909	273,190581	306,733684	0
15.01.2021	05:15:47	0	0	2,937653	3,0975	21,0168	-0,702	83,922	0	1010,58	5,8	8	7,8	1	1	1	1	1	1	1	1	1	0	1	-3,523608	273,287616	312,749939	0
15.01.2021	05:15:48	0	0	3,502587	2,8965	22,8312	-0,705	83,92	0	1010,56	5,8	8	7,8	1	1	1	1	1	1	1	1	1	0	1	-2,466526	273,140827	313,128055	0
15.01.2021	05:15:49	0	0	4,632453	2,77425	23,9796	-0,705	83,918	0	1010,54	5,8	7,9	7,8	1	1	1	1	1	1	1	1	1	0	1	-3,171247	273,209094	312,738963	0
15.01.2021	05:15:50	0	0	4,06752	2,589	20,6244	-0,7	83,916	0	1010,46	5,7	8	7,8	1	1	1	1	1	1	1	1	1	0	1	-2,396054	273,096866	312,995405	0
15.01.2021	05:15:51	0	0	4,519467	2,5695	12,0888	-0,705	83,923	0	1010,52	5,8	7,9	7,8	1	1	1	1	1	1	1	1	1	0	1	-2,466526	273,129473	313,075583	0
15.01.2021	05:15:52	0	0	4,180507	2,4015	15,7824	-0,703	83,922	0	1010,66	5,8	8	7,8	1	1	1	1	1	1	1	1	1	0	1	-3,171247	273,112454	312,292222	0
15.01.2021	05:15:53	0	0	4,293493	2,25375	2,6424	-0,702	83,909	0	1010,46	5,8	8	7,8	1	1	1	1	1	1	1	1	1	0	1	-1,62086	273,190581	314,203733	0
15.01.2021	05:15:54	0	0	3,163627	2,36775	10,0656	-0,701	83,914	0	1010,56	5,8	8	7,8	1	1	1	1	1	1	1	1	1	0	1	-8,386187	273,231904	307,629535	0
15.01.2021	05:15:55	0	0	4,74544	2,478	20,2752	-0,7	83,928	0	1010,72	5,8	7,9	7,8	1	1	1	1	1	1	1	1	1	0	1	-1,550388	273,098283	313,847614	0
15.01.2021	05:15:56	0	0	4,180507	2,5245	13,1616	-0,706	83,922	0	1010,44	5,8	8	7,8	1	1	1	1	1	1	1	1	1	0	1	-6,272023	273,274745	309,941946	0
15.01.2021	05:15:57	0	0	4,519467	2,47275	12,0996	-0,704	83,926	0	1010,56	5,8	8	7,8	1	1	1	1	1	1	1	1	1	0	1	-9,020437	273,187734	306,790993	0
15.01.2021	05:15:58	0	0	3,841547	2,382	14,3064	-0,703	83,916	0	1010,54	5,8	7,9	7,8	1	1	1	1	1	1	1	1	1	0	1	-6,20155	273,279035	310,032272	0
15.01.2021	05:15:59	0	0	4,971413	2,31	5,2272	-0,707	83,943	0	1010,5	5,8	8	7,8	1	1	1	1	1	1	1	1	1	0	1	-0,845666	273,243319	315,22287	0
15.01.2021	05:16:00	0	0	3,276613	2,2695	18,0828	-0,697	83,949	0	1010,56	5,8	8	7,8	1	1	1	1	1	1	1	1	1	0	1	-5,84919	273,111036	309,607731	0
15.01.2021	05:16:01	0	0	3,276613	2,2695	18,0828	-0,697	83,949	0	1010,56	5,8	8	7,8	1	1	1	1	1	1	1	1	1	0	1	-5,84919	273,111036	309,607731	0
15.01.2021	05:16:02	0	0	2,937653	2,21325	17,2296	-0,703	83,944	0	1010,6	5,8	8	7,8	1	1	1	1	1	1	1	1	1	0	1	-4,510218	273,216219	311,432948	0
15.01.2021	05:16:03	0	0	4,858427	2,27025	16,4844	-0,696	83,943	0	1010,5	5,8	7,9	7,8	1	1	1	1	1	1	1	1	1	0	1	-5,567301	273,260454	310,580526	0
15.01.2021	05:16:04	0	0	3,954533	2,238	6,0696	-0,704	83,943	0	1010,5	5,8	8	7,8	1	1	1	1	1	1	1	1	1	0	1	-3,59408	273,150767	312,046445	0
15.01.2021	05:16:05	0	0	4,519467	2,295	10,4508	-0,705	83,936	0	1010,54	5,8	8	7,8	1	1	1	1	1	1	1	1	1	0	1	-4,439746	273,287616	311,833801	0
15.01.2021	05:16:06	0	0	4,858427	2,445	16,8552	-0,702	83,96	0	1010,68	5,8	8	7,8	1	1	1	1	1	1	1	1	1	0	1	-4,933051	273,206245	310,96398	0
15.01.2021	05:16:07	0	0	4,74544	2,676	2,6568	-0,699	83,946	0	1010,38	5,8	7,9	7,8	1	1	1	1	1	1	1	1	1	0	1	-6,342495	273,101116	309,068596	0
15.01.2021	05:16:08	0	0	2,937653	2,9325	21,3804	-0,702	83,958	0	1010,58	5,8	8	7,8	1	1	1	1	1	1	1	1	1	0	1	-1,338971	273,16782	314,380384	0
15.01.2021	05:16:09	0	0	3,276613	3,0465	13,9356	-0,701	83,937	0	1010,54	5,8	7,9	7,8	1	1	1	1	1	1	1	1	1	0	1	-3,030303	273,0997	312,374243	0
15.01.2021	05:16:10	0	0	3,615573	3,48225	11,7072	-0,701	83,964	0	1010,56	5,8	7,9	7,8	1	1	1	1	1	1	1	1	1	0	1	-5,426357	273,143666	310,181349	0
15.01.2021	05:16:11	0	0	4,858427	3,603	7,2072	-0,705	83,958	0	1010,46	5,8	8	7,8	1	1	1	1	1	1	1	1	1	0	1	-7,540521	273,160713	308,145978	0
15.01.2021	05:16:12	0	0	3,502587	3,672	7,1352	-0,7	83,953	0	1010,44	5,8	7,9	7,8	1	1	1	1	1	1	1	1	1	0	1	-7,963354	273,273316	308,243997	0
15.01.2021	05:16:13	0	0	3,3896	3,9	18,4536	-0,703	83,952	0	1010,44	5,8	8	7,8	1	1	1	1	1	1	1	1	1	0	1	-5,919662	273,176352	309,83914	0
15.01.2021	05:16:14	0	0	3,05064	3,81	9,7452	-0,702	83,958	0	1010,62	5,8	8	7,8	1	1	1	1	1	1	1	1	1	0	1	-4,862579	273,284755	311,397724	0
15.01.2021	05:16:15	0	0	4,858427	3,75825	15,3972	-0,698	83,963	0	1010,48	5,8	7,9	7,8	1	1	1	1	1	1	1	1	1	0	1	-5,003524	273,250457	311,09804	0
15.01.2021	05:16:16	0	0	4,519467	3,744	9,3636	-0,706	83,966	0	1010,46	5,8	7,9	7,8	1	1	1	1	1	1	1	1	1	0	1	-4,298802	273,216219	311,644364	0
15.01.2021	05:16:17	0	0	3,72856	3,6075	16,488	-0,699	83,967	0	1010,44	5,8	7,9	7,8	1	1	1	1	1	1	1	1	1	0	1	-5,919662	273,283325	310,334021	0
15.01.2021	05:16:18	0	0	2,598693	3,6765	19,1448	-0,702	83,961	0	1010,5	5,8	8	7,8	1	1	1	1	1	1	1	1	1	0	1	-9,020437	273,159292	306,659493	0
15.01.2021	05:16:19	0	0	4,293493	3,837	24,3396	-0,711	83,976	0	1010,44	5,8	7,9	7,8	1	1	1	1	1	1	1	1	1	0	1	-4,22833	273,276175	311,992256	0
15.01.2021	05:16:20	0	0	3,841547	3,813	17,7012	-0,704	83,958	0	1010,48	5,8	7,9	7,8	1	1	1	1	1	1	1	1	1	0	1	-4,510218	273,13373	311,051563	0
15.01.2021	05:16:21	0	0	4,06752	3,7335	7,1244	-0,707	83,963	0	1010,4	5,8	8	7,8	1	1	1	1	1	1	1	1	1	0	1	-1,268499	273,230477	314,740625	0
15.01.2021	05:16:22	0	0	3,72856	3,5835	8,6148	-0,709	83,968	0	1010,48	5,8	7,9	7,8	1	1	1	1	1	1	1	1	1	0	1	-6,8358	273,283325	309,417882	0
15.01.2021	05:16:23	0	0	3,05064	3,61125	15,0336	-0,704	83,976	0	1010,32	5,8	7,9	7,8	1	1	1	1	1	1	1	1	1	0	1	-4,298802	273,164977	311,407409	0
15.01.2021	05:16:24	0	0	5,197387	3,50475	9,3636	-0,703	83,971	0	1010,52	5,8	8	7,8	1	1	1	1	1	1	1	1	1	0	1	-4,510218	273,115289	310,966352	0
15.01.2021	05:16:25	0	0	3,163627	3,33	11,718	-0,705	83,984	0	1010,58	5,8	8	7,8	1	1	1	1	1	1	1	1	1	0	1	-8,45666	273,256169	307,671337	0
15.01.2021	05:16:26	0	0	4,293493	3,05625	16,956	-0,7	83,967	0	1010,44	5,8	8	7,8	1	1	1	1	1	1	1	1	1	0	1	-4,439746	273,214794	311,496828	0
15.01.2021	05:16:27	0	0	4,74544	2,90625	18,4428	-0,704	83,972	0	1010,54	5,8	7,9	7,8	1	1	1	1	1	1	1	1	1	0	1	-4,862579	273,279035	311,371244	0
15.01.2021	05:16:28	0	0	2,37272	2,79075	18,4572	-0,703	83,995	0	1010,6	5,8	8	7,8	1	1	1	1	1	1	1	1	1	0	1	-2,255109	273,143666	313,352596	0
15.01.2021	05:16:29	0	0	4,519467	2,7195	22,4604	-0,708	83,981	0	1010,22	5,8	8	7,8	1	1	1	1	1	1	1	1	1	0	1	-4,22833	273,223347	311,747808	0
15.01.2021	05:16:30	0	0	4,06752	2,71425	12,4812	-0,708	83,984	0	1010,5	5,8	8	7,8	1	1	1	1	1	1	1	1	1	0	1	-9,795631	273,281895	306,451431	0
15.01.2021	05:16:31	0	0	4,519467	2,835	7,1388	-0,704	83,989	0	1010,38	5,8	7,9	7,8	1	1	1	1	1	1	1	1	1	0	1	-3,875969	273,159292	311,803961	0
15.01.2021	05:16:32	0	0	4,632453	3,015	8,2728	-0,702	83,991	0	1010,46	5,8	7,9	7,8	1	1	1	1	1	1	1	1	1	0	1	-2,60747	273,270457	313,58665	0
15.01.2021	05:16:33	0	0	4,632453	3,0645	13,5504	-0,705	83,996	0	1010,56	5,8	8	7,8	1	1	1	1	1	1	1	1	1	0	1	-5,003524	273,139407	310,584496	0
15.01.2021	05:16:34	0	0	3,163627	3,02025	23,5944	-0,708	83,992	0	1010,44	5,8	7,9	7,8	1	1	1	1	1	1	1	1	1	0	1	-6,412967	273,280465	309,827475	0
15.01.2021	05:16:35	0	0	4,74544	2,907	46,2132	-0,704	84,003	0	1010,58	5,8	7,9	7,8	1	1	1	1	1	1	1	1	1	0	1	-10,711769	273,273316	305,495583	0
15.01.2021	05:16:36	0	0	5,0844	2,793	17,2476	-0,702	84,006	0	1010,54	5,8	7,9	7,8	1	1	1	1	1	1	1	1	1	0	1	-5,919662	273,172086	309,819414	0
15.01.2021	05:16:37	0	0	4,293493	2,8515	7,4988	-0,701	84,01	0	1010,56	5,8	8	7,8	1	1	1	1	1	1	1	1	1	0	1	-6,906272	273,227625	309,089655	0
15.01.2021	05:16:38	0	0	4,971413	2,84475	17,7012	-0,703	84,004	0	1010,68	5,7	7,9	7,8	1	1	1	1	1	1	1	1	1	0	1	-5,073996	273,271886	311,12674	0
15.01.2021	05:16:39	0	0	3,163627	2,8425	17,7084	-0,706	83,981	0	1010,44	5,8	7,9	7,8	1	1	1	1	1	1	1	1	1	0	1	-4,087385	273,125216	311,435055	0
15.01.2021	05:16:40	0	0	3,3896	2,7285	12,1176	-0,695	84,007	0	1010,54	5,8	7,9	7,8	1	1	1	1	1	1	1	1	1	0	1	-9,584214	273,173508	306,161436	0
15.01.2021	05:16:41	0	0	4,519467	2,59275	17,712	-0,701	83,985	0	1010,52	5,8	8	7,8	1	1	1	1	1	1	1	1	1	0	1	-5,919662	273,291909	310,373756	0
15.01.2021	05:16:42	0	0	3,841547	2,50275	21,0312	-0,7	84,021	0	1010,74	5,8	8	7,8	1	1	1	1	1	1	1	1	1	0	1	-6,553911	273,213369	309,376071	0
15.01.2021	05:16:43	0	0	4,519467	2,46675	17,694	-0,704	84,012	0	1010,6	5,8	8	7,8	1	1	1	1	1	1	1	1	1	0	1	-4,298802	273,284755	311,961501	0
15.01.2021	05:16:44	0	0	3,72856	2,40075	14,4072	-0,701	84,006	0	1010,46	5,8	7,9	7,8	1	1	1	1	1	1	1	1	1	0	1	-8,104299	273,236183	307,931224	0
15.01.2021	05:16:45	0	0	2,937653	2,4075	13,5504	-0,697	84,022	0	1010,6	5,8	8	7,8	1	1	1	1	1	1	1	1	1	0	1	-4,721635	273,163555	310,978005	0
15.01.2021	05:16:46	0	0	4,40648	2,41125	9,0072	-0,703	84,021	0	1010,58	5,8	7,9	7,8	1	1	1	1	1	1	1	1	1	0	1	-6,8358	273,09545	308,549115	0
15.01.2021	05:16:47	0	0	4,293493	2,5455	3,0384	-0,704	84,032	0	1010,5	5,8	8	7,8	1	1	1	1	1	1	1	1	1	0	1	-6,272023	273,13373	309,289759	0
15.01.2021	05:16:48	0	0	4,180507	2,71425	11,2176	-0,71	84,028	0	1010,54	5,8	7,9	7,8	1	1	1	1	1	1	1	1	1	0	1	-4,298802	273,231904	311,716921	0
15.01.2021	05:16:49	0	0	2,71168	2,74275	33,9696	-0,703	84,016	0	1010,58	5,8	7,9	7,8	1	1	1	1	1	1	1	1	1	0	1	-7,470049	273,284755	308,790254	0
15.01.2021	05:16:50	0	0	4,858427	2,682	11,7216	-0,7	84,03	0	1010,56	5,8	8	7,8	1	1	1	1	1	1	1	1	1	0	1	-6,553911	273,187734	309,257519	0
15.01.2021	05:16:51	0	0	2,937653	2,5935	15,4116	-0,704	84,046	0	1010,44	5,8	7,9	7,8	1	1	1	1	1	1	1	1	1	0	1	-8,315715	273,140827	307,278866	0
15.01.2021	05:16:52	0	0	4,74544	2,88	7,8912	-0,704	84,042	0	1010,72	5,8	7,9	7,8	1	1	1	1	1	1	1	1	1	0	1	-0,916138	273,118125	314,573535	0
15.01.2021	05:16:53	0	0	2,824667	3,2025	1,566	-0,706	84,038	0	1010,48	5,8	7,9	7,8	1	1	1	1	1	1	1	1	1	0	1	-5,637773	273,210519	310,279027	0
15.01.2021	05:16:54	0	0	3,954533	3,44475	0	-0,703	84,03	0	1010,5	5,8	7,9	7,8	1	1	1	1	1	1	1	1	1	0	1	-3,24172	273,279035	312,992103	0
15.01.2021	05:16:55	0	0	5,0844	3,60675	359,8632	-0,699	84,037	0	1010,58	5,8	7,9	7,8	1	1	1	1	1	1	1	1	1	0	1	-1,409443	273,184888	314,388826	0
15.01.2021	05:16:56	0	0	4,40648	3,69225	358,3116	-0,704	84,036	0	1010,44	5,8	7,9	7,8	1	1	1	1	1	1	1	1	1	0	1	-6,976744	273,294771	309,329923	0
15.01.2021	05:16:57	0	0	4,180507	3,48075	12,456	-0,697	84,044	0	1010,5	5,8	7,9	7,8	1	1	1	1	1	1	1	1	1	0	1	-3,171247	273,23333	312,851075	0
15.01.2021	05:16:58	0	0	4,06752	3,13425	16,5168	-0,7	84,027	0	1010,36	5,8	8	7,8	1	1	1	1	1	1	1	1	1	0	1	-3,664553	273,23761	312,377572	0
15.01.2021	05:16:59	0	0	2,37272	2,8845	16,848	-0,701	84,045	0	1010,5	5,8	8	7,8	1	1	1	1	1	1	1	1	1	0	1	-3,664553	273,101116	311,746538	0
15.01.2021	05:17:00	0	0	4,971413	2,92575	30,3228	-0,68	84,058	0	1010,6	5,8	7,9	7,8	1	1	1	1	1	1	1	1	1	0	1	-2,677942	273,270457	313,516178	0
15.01.2021	05:17:01	0	0	4,971413	2,92575	30,3228	-0,68	84,058	0	1010,6	5,8	7,9	7,8	1	1	1	1	1	1	1	1	1	0	1	-2,677942	273,270457	313,516178	0
15.01.2021	05:17:02	0	0	4,971413	3,078	23,976	-0,697	84,053	0	1010,68	5,8	7,9	7,8	1	1	1	1	1	1	1	1	1	0	1	-1,691332	273,116707	313,791789	0
15.01.2021	05:17:03	0	0	5,310341	3,0315	24,3504	-0,701	84,045	0	1010,52	5,8	7,9	7,9	1	1	1	1	1	1	1	1	1	0	1	-0,704722	273,229051	315,297803	0
15.01.2021	05:17:04	0	0	4,971413	2,94225	14,3136	-0,682	84,058	0	1010,62	5,8	7,9	7,8	1	1	1	1	1	1	1	1	1	0	1	-1,057082	273,281895	315,189979	0
15.01.2021	05:17:05	0	0	4,06752	2,97825	15,0336	-0,698	84,048	0	1010,56	5,8	7,9	7,8	1	1	1	1	1	1	1	1	1	0	1	-3,24172	273,184888	312,55655	0
15.01.2021	05:17:06	0	0	4,74544	2,90175	15,8256	-0,7	84,064	0	1010,52	5,8	8	7,8	1	1	1	1	1	1	1	1	1	0	1	-5,355884	273,108201	310,087939	0
15.01.2021	05:17:07	0	0	4,74544	2,76225	8,2584	-0,697	84,064	0	1010,52	5,8	7,9	7,8	1	1	1	1	1	1	1	1	1	0	1	-6,131078	273,270457	310,063042	0
15.01.2021	05:17:08	0	0	3,163627	2,56125	22,0824	-0,697	84,058	0	1010,6	5,8	7,9	7,8	1	1	1	1	1	1	1	1	1	0	1	-5,285412	273,179197	310,486543	0
15.01.2021	05:17:09	0	0	3,163627	2,63625	10,818	-0,696	84,064	0	1010,62	5,8	7,9	7,8	1	1	1	1	1	1	1	1	1	0	1	-5,637773	273,0997	309,766773	0
15.01.2021	05:17:10	0	0	4,293493	2,74275	26,9712	-0,7	84,056	0	1010,44	5,8	7,9	7,8	1	1	1	1	1	1	1	1	1	0	1	-6,060606	273,234757	309,968316	0
15.01.2021	05:17:11	0	0	2,937653	2,8455	19,908	-0,701	84,081	0	1010,54	5,8	7,9	7,8	1	1	1	1	1	1	1	1	1	0	1	-7,047216	273,10395	308,376965	0
15.01.2021	05:17:12	0	0	3,276613	3,03975	21,3732	-0,701	84,08	0	1010,62	5,8	7,9	7,8	1	1	1	1	1	1	1	1	1	0	1	-0,634249	273,139407	314,95377	0
15.01.2021	05:17:13	0	0	2,259733	2,9265	26,1792	-0,693	84,072	0	1010,6	5,7	7,9	7,8	1	1	1	1	1	1	1	1	1	0	1	-7,751938	273,274745	308,462031	0
15.01.2021	05:17:14	0	0	4,519467	2,70825	13,932	-0,696	84,074	0	1010,54	5,8	7,9	7,8	1	1	1	1	1	1	1	1	1	0	1	-1,691332	273,289047	314,588838	0
15.01.2021	05:17:15	0	0	3,3896	2,61375	7,1316	-0,706	84,077	0	1010,54	5,8	7,9	7,8	1	1	1	1	1	1	1	1	1	0	1	-0,140944	273,21907	315,815409	0
15.01.2021	05:17:16	0	0	4,06752	2,676	15,4116	-0,699	84,058	0	1010,54	5,8	8	7,8	1	1	1	1	1	1	1	1	1	0	1	-9,866103	273,111036	305,590817	0
15.01.2021	05:17:17	0	0	4,06752	2,946	9,7632	-0,699	84,079	0	1010,52	5,8	7,9	7,8	1	1	1	1	1	1	1	1	1	0	1	-3,875969	273,209094	312,034241	0
15.01.2021	05:17:18	0	0	3,3896	3,159	355,0572	-0,694	84,064	0	1010,62	5,8	7,9	7,8	1	1	1	1	1	1	1	1	1	0	1	-3,171247	273,273316	313,036104	0
15.01.2021	05:17:19	0	0	4,40648	3,51975	6,0552	-0,695	84,073	0	1010,46	5,7	7,9	7,8	1	1	1	1	1	1	1	1	1	0	1	-7,681466	273,277605	308,545738	0
15.01.2021	05:17:20	0	0	4,40648	3,8895	359,8776	-0,694	84,073	0	1010,52	5,8	7,9	7,8	1	1	1	1	1	1	1	1	1	0	1	-2,536998	273,457175	314,522194	0
15.01.2021	05:17:21	0	0	3,276613	4,191	6,5016	-0,694	84,084	0	1010,54	5,8	7,9	7,8	1	1	1	1	1	1	1	1	1	0	1	-3,664553	273,102533	311,753083	0
15.01.2021	05:17:22	0	0	3,163627	4,29	12,096	-0,694	84,085	0	1010,56	5,8	8	7,8	1	1	1	1	1	1	1	1	1	0	1	-7,610994	273,17493	308,141232	0
15.01.2021	05:17:23	0	0	3,841547	4,098	13,5252	-0,7	84,075	0	1010,46	5,8	7,9	7,8	1	1	1	1	1	1	1	1	1	0	1	-1,832276	273,118125	313,657397	0
15.01.2021	05:17:24	0	0	4,858427	3,68625	21,3876	-0,697	84,077	0	1010,52	5,8	7,9	7,8	1	1	1	1	1	1	1	1	1	0	1	-5,355884	273,172086	310,383191	0
15.01.2021	05:17:25	0	0	4,06752	3,486	3,7764	-0,696	84,098	0	1010,6	5,8	7,9	7,8	1	1	1	1	1	1	1	1	1	0	1	-2,818887	273,12238	312,690445	0
15.01.2021	05:17:26	0	0	3,3896	3,3075	18,8208	-0,701	84,092	0	1010,5	5,8	7,9	7,8	1	1	1	1	1	1	1	1	1	0	1	-6,765328	273,116707	308,717794	0
15.01.2021	05:17:27	0	0	5,0844	3,11475	12,9456	-0,699	84,089	0	1010,44	5,8	7,9	7,8	1	1	1	1	1	1	1	1	1	0	1	-1,973221	273,21907	313,983132	0
15.01.2021	05:17:28	0	0	3,05064	3,29025	3,78	-0,698	84,077	0	1010,52	5,8	7,9	7,8	1	1	1	1	1	1	1	1	1	0	1	-2,114165	273,290478	314,172628	0
15.01.2021	05:17:29	0	0	3,276613	3,6165	8,5968	-0,698	84,085	0	1010,54	5,8	8	7,8	1	1	1	1	1	1	1	1	1	0	1	-3,382664	273,210519	312,534136	0
15.01.2021	05:17:30	0	0	2,598693	4,00125	7,4988	-0,694	84,097	0	1010,44	5,8	7,9	7,8	1	1	1	1	1	1	1	1	1	0	1	-6,412967	273,289047	309,867203	0
15.01.2021	05:17:31	0	0	4,971413	3,93375	13,9176	-0,697	84,11	0	1010,52	5,8	7,9	7,8	1	1	1	1	1	1	1	1	1	0	1	-0,845666	273,263311	315,315385	0
15.01.2021	05:17:32	0	0	4,180507	4,038	4,1004	-0,697	84,097	0	1010,58	5,8	8	7,8	1	1	1	1	1	1	1	1	1	0	1	-1,902748	273,146506	313,718083	0
15.01.2021	05:17:33	0	0	2,598693	4,08675	21,3912	-0,7	84,105	0	1010,54	5,8	7,9	7,8	1	1	1	1	1	1	1	1	1	0	1	-5,990134	273,283325	310,263548	0
15.01.2021	05:17:34	0	0	3,841547	3,63525	7,1352	-0,698	84,101	0	1010,48	5,8	7,9	7,8	1	1	1	1	1	1	1	1	1	0	1	-2,889359	273,244746	313,185781	0
15.01.2021	05:17:35	0	0	3,615573	3,495	11,196	-0,694	84,101	0	1010,46	5,8	7,9	7,8	1	1	1	1	1	1	1	1	1	0	1	-4,580691	273,267598	311,6002	0
15.01.2021	05:17:36	0	0	3,502587	3,672	11,1816	-0,697	84,099	0	1010,58	5,8	7,9	7,8	1	1	1	1	1	1	1	1	1	0	1	-4,439746	273,201971	311,437522	0
15.01.2021	05:17:37	0	0	2,937636	3,579	20,6316	-0,698	84,119	0	1010,42	5,8	7,9	7,9	1	1	1	1	1	1	1	1	1	0	1	-3,875969	273,109619	311,574402	0
15.01.2021	05:17:38	0	0	5,76232	3,459	16,4772	-0,701	84,094	0	1010,46	5,8	7,9	7,8	1	1	1	1	1	1	1	1	1	0	1	-4,651163	273,194851	311,193179	0
15.01.2021	05:17:39	0	0	4,293493	3,45825	10,5408	-0,699	84,094	0	1010,56	5,8	7,9	7,8	1	1	1	1	1	1	1	1	1	0	1	-6,624383	273,284755	309,63592	0
15.01.2021	05:17:40	0	0	4,858427	3,50925	21,7548	-0,693	84,128	0	1010,52	5,8	7,9	7,8	1	1	1	1	1	1	1	1	1	0	1	-0,211416	273,197699	315,646094	0
15.01.2021	05:17:41	0	0	3,72856	3,5805	19,908	-0,697	84,104	0	1010,44	5,8	7,9	7,8	1	1	1	1	1	1	1	1	1	0	1	-5,003524	273,106784	310,433752	0
15.01.2021	05:17:42	0	0	3,3896	3,5745	17,2332	-0,696	84,113	0	1010,44	5,8	7,9	7,8	1	1	1	1	1	1	1	1	1	0	1	-2,536998	273,145086	313,07727	0
15.01.2021	05:17:43	0	0	4,406454	3,27225	39,5532	-0,694	84,121	0	1010,52	5,8	7,9	7,9	1	1	1	1	1	1	1	1	1	0	1	-3,382664	273,281895	312,864398	0
15.01.2021	05:17:44	0	0	4,858427	2,916	25,0488	-0,698	84,116	0	1010,56	5,8	8	7,8	1	1	1	1	1	1	1	1	1	0	1	-6,20155	273,287616	310,071997	0
15.01.2021	05:17:45	0	0	4,519467	2,60325	45,8352	-0,693	84,127	0	1010,46	5,8	7,9	7,8	1	1	1	1	1	1	1	1	1	0	1	-7,610994	273,263311	308,550057	0
15.01.2021	05:17:46	0	0	2,146747	2,406	31,788	-0,697	84,118	0	1010,54	5,8	7,9	7,8	1	1	1	1	1	1	1	1	1	0	1	-5,003524	273,094034	310,374849	0
15.01.2021	05:17:47	0	0	3,38962	2,5065	20,3724	-0,697	84,133	0	1010,52	5,8	7,9	7,7	1	1	1	1	1	1	1	1	1	0	1	-3,805497	273,160713	311,881002	0
15.01.2021	05:17:48	0	0	4,971413	2,72475	20,2932	-0,694	84,144	0	1010,54	5,8	7,9	7,8	1	1	1	1	1	1	1	1	1	0	1	-5,919662	273,247601	310,168689	0
15.01.2021	05:17:49	0	0	3,841547	3,06225	15,7788	-0,696	84,13	0	1010,52	5,8	7,9	7,8	1	1	1	1	1	1	1	1	1	0	1	-3,735025	273,290478	312,551769	0
15.01.2021	05:17:50	0	0	4,858427	3,26175	22,1796	-0,696	84,132	0	1010,46	5,8	7,9	7,8	1	1	1	1	1	1	1	1	1	0	1	-2,889359	273,217644	313,060401	0
15.01.2021	05:17:51	0	0	3,72856	3,3765	33,9552	-0,7	84,129	0	1010,46	5,8	7,9	7,8	1	1	1	1	1	1	1	1	1	0	1	-4,651163	273,102533	310,766473	0
15.01.2021	05:17:52	0	0	4,971413	3,45525	35,0892	-0,701	84,132	0	1010,54	5,8	7,9	7,8	1	1	1	1	1	1	1	1	1	0	1	-7,681466	273,23761	308,360659	0
15.01.2021	05:17:53	0	0	4,74544	3,3435	19,9044	-0,693	84,139	0	1010,56	5,8	7,9	7,8	1	1	1	1	1	1	1	1	1	0	1	-9,372798	273,115289	306,103772	0
15.01.2021	05:17:54	0	0	4,971413	2,9745	32,9796	-0,695	84,146	0	1010,64	5,8	7,9	7,8	1	1	1	1	1	1	1	1	1	0	1	-5,637773	273,155029	310,022452	0
15.01.2021	05:17:55	0	0	4,06752	2,82	26,1684	-0,693	84,141	0	1010,58	5,8	7,9	7,8	1	1	1	1	1	1	1	1	1	0	1	-4,862579	273,145086	310,751689	0
15.01.2021	05:17:56	0	0	3,163627	2,76525	31,41	-0,692	84,136	0	1010,42	5,8	7,9	7,8	1	1	1	1	1	1	1	1	1	0	1	-2,959831	273,277605	313,267373	0
15.01.2021	05:17:57	0	0	3,615573	3,03075	14,3244	-0,7	84,132	0	1010,52	5,8	7,9	7,8	1	1	1	1	1	1	1	1	1	0	1	-2,325581	273,254741	313,795806	0
15.01.2021	05:17:58	0	0	3,72856	3,14175	19,8936	-0,703	84,14	0	1010,46	5,8	7,9	7,8	1	1	1	1	1	1	1	1	1	0	1	-7,117689	273,276175	309,102898	0
15.01.2021	05:17:59	0	0	4,40648	3,05625	20,2932	-0,693	84,15	0	1010,68	5,8	7,9	7,8	1	1	1	1	1	1	1	1	1	0	1	-8,45666	273,20482	307,433784	0
15.01.2021	05:18:00	0	0	3,954533	3,153	21,7692	-0,694	84,151	0	1010,52	5,8	7,9	7,8	1	1	1	1	1	1	1	1	1	0	1	-2,536998	273,246173	313,544747	0
15.01.2021	05:18:01	0	0	3,954533	3,153	21,7692	-0,694	84,151	0	1010,52	5,8	7,9	7,8	1	1	1	1	1	1	1	1	1	0	1	-2,536998	273,246173	313,544747	0
15.01.2021	05:18:02	0	0	2,598693	3,24825	34,3296	-0,694	84,15	0	1010,44	5,8	7,9	7,8	1	1	1	1	1	1	1	1	1	0	1	-6,412967	273,106784	309,024308	0
15.01.2021	05:18:03	0	0	3,615573	2,976	28,3644	-0,699	84,15	0	1010,44	5,8	7,9	7,8	1	1	1	1	1	1	1	1	1	0	1	-6,131078	273,125216	309,391362	0
15.01.2021	05:18:04	0	0	4,293493	2,80875	18,846	-0,691	84,167	0	1010,66	5,8	7,9	7,8	1	1	1	1	1	1	1	1	1	0	1	-6,765328	273,216219	309,177839	0
15.01.2021	05:18:05	0	0	4,180532	2,8305	20,7108	-0,694	84,145	0	1010,42	5,8	7,9	7,7	1	1	1	1	1	1	1	1	1	0	1	-4,298802	273,274745	311,915167	0
15.01.2021	05:18:06	0	0	4,971413	2,796	5,6772	-0,692	84,151	0	1010,54	5,8	7,9	7,8	1	1	1	1	1	1	1	1	1	0	1	-8,668076	273,152188	306,979015	0
15.01.2021	05:18:07	0	0	3,05064	2,57475	30,33	-0,694	84,16	0	1010,56	5,8	7,9	7,8	1	1	1	1	1	1	1	1	1	0	1	-5,003524	273,229051	310,999002	0
15.01.2021	05:18:08	0	0	3,163627	2,54925	25,7832	-0,692	84,17	0	1010,54	5,8	7,9	7,8	1	1	1	1	1	1	1	1	1	0	1	-3,946441	273,135149	311,621899	0
15.01.2021	05:18:09	0	0	2,71168	2,59425	13,914	-0,688	84,177	0	1010,58	5,8	7,9	7,8	1	1	1	1	1	1	1	1	1	0	1	-8,527132	273,159292	307,152798	0
15.01.2021	05:18:10	0	0	3,163627	2,5755	21,024	-0,69	84,164	0	1010,54	5,8	7,9	7,8	1	1	1	1	1	1	1	1	1	0	1	-2,818887	273,273316	313,388465	0
15.01.2021	05:18:11	0	0	3,163646	2,53575	16,488	-0,701	84,171	0	1010,54	5,8	7,9	7,7	1	1	1	1	1	1	1	1	1	0	1	-7,82241	273,276175	308,398176	0
15.01.2021	05:18:12	0	0	4,293493	2,54325	19,9008	-0,696	84,158	0	1010,54	5,8	7,9	7,8	1	1	1	1	1	1	1	1	1	0	1	-6,131078	273,186311	309,673771	0
15.01.2021	05:18:13	0	0	2,824667	2,619	11,2104	-0,699	84,167	0	1010,5	5,8	7,9	7,8	1	1	1	1	1	1	1	1	1	0	1	-7,399577	273,276175	308,821009	0
15.01.2021	05:18:14	0	0	4,519467	2,83425	8,2656	-0,693	84,175	0	1010,5	5,8	7,9	7,8	1	1	1	1	1	1	1	1	1	0	1	-3,523608	273,214794	312,412966	0
15.01.2021	05:18:15	0	0	4,06752	2,9295	358,7652	-0,697	84,187	0	1010,46	5,8	7,9	7,8	1	1	1	1	1	1	1	1	1	0	1	-0	273,09545	315,384915	0
15.01.2021	05:18:16	0	0	4,06752	2,8335	2,0052	-0,69	84,172	0	1010,5	5,8	7,9	7,8	1	1	1	1	1	1	1	1	1	0	1	-3,805497	273,149347	311,828464	0
15.01.2021	05:18:17	0	0	4,180507	2,8425	358,326	-0,692	84,174	0	1010,48	5,8	7,9	7,8	1	1	1	1	1	1	1	1	1	0	1	-0	273,16782	315,719355	0
15.01.2021	05:18:18	0	0	4,293493	2,88	6,8184	-0,688	84,188	0	1010,52	5,8	7,9	7,8	1	1	1	1	1	1	1	1	1	0	1	-3,453136	273,286186	312,813789	0
15.01.2021	05:18:19	0	0	5,42336	2,7975	9,4716	-0,698	84,176	0	1010,46	5,8	7,9	7,8	1	1	1	1	1	1	1	1	1	0	1	-5,708245	273,196275	310,142681	0
15.01.2021	05:18:20	0	0	2,824667	2,451	9,7452	-0,687	84,151	0	1010,54	5,8	7,9	7,8	1	1	1	1	1	1	1	1	1	0	1	-7,258633	273,126635	308,270363	0
15.01.2021	05:18:21	0	0	2,033748	2,27025	28,7316	-0,694	84,177	0	1010,36	5,8	7,9	7,9	1	1	1	1	1	1	1	1	1	0	1	-5,426357	273,224773	310,556377	0
15.01.2021	05:18:22	0	0	4,858427	2,18325	15,786	-0,693	84,179	0	1010,58	5,8	7,9	7,8	1	1	1	1	1	1	1	1	1	0	1	-0	273,287616	316,273547	0
15.01.2021	05:18:23	0	0	2,37272	1,95825	19,5372	-0,688	84,185	0	1010,46	5,8	7,9	7,8	1	1	1	1	1	1	1	1	1	0	1	-4,298802	273,18062	311,479731	0
15.01.2021	05:18:24	0	0	3,841547	1,8	22,8456	-0,692	84,177	0	1010,62	5,8	7,9	7,8	1	1	1	1	1	1	1	1	1	0	1	-3,312192	273,279035	312,921631	0
15.01.2021	05:18:25	0	0	3,84157	1,803	16,8624	-0,693	84,179	0	1010,5	5,8	7,9	7,7	1	1	1	1	1	1	1	1	1	0	1	-5,144468	273,209094	310,765742	0
15.01.2021	05:18:26	0	0	2,71168	2,03175	4,86	-0,696	84,189	0	1010,66	5,8	7,9	7,8	1	1	1	1	1	1	1	1	1	0	1	-2,959831	273,109619	312,49054	0
15.01.2021	05:18:27	0	0	5,197387	2,2095	10,818	-0,691	84,197	0	1010,48	5,8	7,9	7,8	1	1	1	1	1	1	1	1	1	0	1	-7,047216	273,257597	309,08739	0
15.01.2021	05:18:28	0	0	3,954533	2,235	13,176	-0,688	84,201	0	1010,64	5,8	7,9	7,8	1	1	1	1	1	1	1	1	1	0	1	-7,610994	273,125216	307,911447	0
15.01.2021	05:18:29	0	0	2,485707	2,19675	33,9516	-0,69	84,194	0	1010,64	5,8	7,9	7,8	1	1	1	1	1	1	1	1	1	0	1	-3,59408	273,111036	311,86284	0
15.01.2021	05:18:30	0	0	3,841547	2,1285	24,336	-0,691	84,207	0	1010,56	5,8	7,9	7,8	1	1	1	1	1	1	1	1	1	0	1	-8,104299	273,160713	307,5822	0
15.01.2021	05:18:31	0	0	2,824667	2,31525	30,7008	-0,692	84,199	0	1010,62	5,8	7,9	7,8	1	1	1	1	1	1	1	1	1	0	1	-12,473573	273,146506	303,147259	0
15.01.2021	05:18:32	0	0	3,276613	2,39475	25,416	-0,696	84,212	0	1010,46	5,8	7,9	7,8	1	1	1	1	1	1	1	1	1	0	1	-5,778717	273,17493	309,973508	0
15.01.2021	05:18:33	0	0	4,971413	2,2545	16,4916	-0,694	84,201	0	1010,58	5,8	7,9	7,8	1	1	1	1	1	1	1	1	1	0	1	-5,355884	273,269027	310,83162	0
15.01.2021	05:18:34	0	0	3,502608	2,30925	29,1024	-0,69	84,203	0	1010,66	5,8	7,9	7,7	1	1	1	1	1	1	1	1	1	0	1	-8,245243	273,214794	307,691331	0
15.01.2021	05:18:35	0	0	3,502587	2,35125	18,4572	-0,691	84,204	0	1010,54	5,8	7,9	7,8	1	1	1	1	1	1	1	1	1	0	1	-3,030303	273,256169	313,097693	0
15.01.2021	05:18:36	0	0	2,824684	2,39625	25,0416	-0,696	84,207	0	1010,5	5,8	7,9	7,7	1	1	1	1	1	1	1	1	1	0	1	-0	273,273316	316,207352	0
15.01.2021	05:18:37	0	0	4,971413	2,44125	21,3804	-0,696	84,198	0	1010,5	5,8	7,9	7,8	1	1	1	1	1	1	1	1	1	0	1	-1,127555	273,259025	315,013662	0
15.01.2021	05:18:38	0	0	4,06752	2,50425	22,8384	-0,69	84,209	0	1010,56	5,8	7,9	7,8	1	1	1	1	1	1	1	1	1	0	1	-4,510218	273,280465	311,730224	0
15.01.2021	05:18:39	0	0	4,06752	2,58375	22,0752	-0,692	84,197	0	1010,52	5,8	7,9	7,8	1	1	1	1	1	1	1	1	1	0	1	-7,117689	273,176352	308,641113	0
15.01.2021	05:18:40	0	0	2,71168	2,658	11,718	-0,687	84,219	0	1010,54	5,8	7,9	7,8	1	1	1	1	1	1	1	1	1	0	1	-0,140944	273,10395	315,283237	0
15.01.2021	05:18:41	0	0	3,502587	2,6895	16,11	-0,692	84,212	0	1010,42	5,8	7,9	7,8	1	1	1	1	1	1	1	1	1	0	1	-6,976744	273,192004	308,854431	0
15.01.2021	05:18:42	0	0	3,841547	2,5425	17,7048	-0,696	84,227	0	1010,6	5,8	7,9	7,8	1	1	1	1	1	1	1	1	1	0	1	-2,396054	273,111036	313,060867	0
15.01.2021	05:18:43	0	0	3,05064	2,409	21,0132	-0,689	84,221	0	1010,56	5,8	7,9	7,8	1	1	1	1	1	1	1	1	1	0	1	-1,902748	273,266169	314,271528	0
15.01.2021	05:18:44	0	0	3,05064	2,27925	17,6976	-0,69	84,219	0	1010,4	5,8	7,9	7,8	1	1	1	1	1	1	1	1	1	0	1	-8,80902	273,172086	306,930055	0
15.01.2021	05:18:45	0	0	4,293493	2,25525	6,0696	-0,69	84,218	0	1010,48	5,8	7,9	7,8	1	1	1	1	1	1	1	1	1	0	1	-4,298802	273,105367	311,131926	0
15.01.2021	05:18:46	0	0	4,971443	2,30475	0,8676	-0,69	84,21	0	1010,62	5,8	7,9	7,7	1	1	1	1	1	1	1	1	1	0	1	-0,704722	273,270457	315,489398	0
15.01.2021	05:18:47	0	0	4,632453	2,4795	20,2932	-0,693	84,218	0	1010,64	5,8	7,9	7,8	1	1	1	1	1	1	1	1	1	0	1	-0	273,209094	315,91021	0
15.01.2021	05:18:48	0	0	4,293493	2,4825	6,0696	-0,694	84,218	0	1010,44	5,8	7,9	7,8	1	1	1	1	1	1	1	1	1	0	1	-3,523608	273,115289	311,952962	0
15.01.2021	05:18:49	0	0	3,502608	2,379	13,5432	-0,678	84,246	0	1010,68	5,8	7,9	7,7	1	1	1	1	1	1	1	1	1	0	1	-1,902748	273,276175	314,317838	0
15.01.2021	05:18:50	0	0	3,615595	2,24025	3,78	-0,692	84,237	0	1010,6	5,8	7,9	7,7	1	1	1	1	1	1	1	1	1	0	1	-3,453136	273,221921	312,516406	0
15.01.2021	05:18:51	0	0	4,519467	2,22975	19,8972	-0,694	84,235	0	1010,54	5,8	7,9	7,8	1	1	1	1	1	1	1	1	1	0	1	-0	273,271886	316,200736	0
15.01.2021	05:18:52	0	0	4,519467	2,23575	16,8588	-0,689	84,23	0	1010,52	5,8	7,9	7,8	1	1	1	1	1	1	1	1	1	0	1	-1,691332	273,209094	314,218878	0
15.01.2021	05:18:53	0	0	5,197418	2,256	34,3332	-0,691	84,247	0	1010,6	5,8	7,9	7,7	1	1	1	1	1	1	1	1	1	0	1	-5,990134	273,29334	310,309908	0
15.01.2021	05:18:54	0	0	3,954533	2,22375	15,0336	-0,69	84,247	0	1010,7	5,8	7,9	7,8	1	1	1	1	1	1	1	1	1	0	1	-3,946441	273,192004	311,884734	0
15.01.2021	05:18:55	0	0	3,163627	2,64	9,7596	-0,688	84,24	0	1010,54	5,8	7,9	7,8	1	1	1	1	1	1	1	1	1	0	1	-3,24172	273,143666	312,365986	0
15.01.2021	05:18:56	0	0	3,38962	3,14175	1,1916	-0,692	84,25	0	1010,56	5,8	7,9	7,7	1	1	1	1	1	1	1	1	1	0	1	-2,466526	273,116707	313,016596	0
15.01.2021	05:18:57	0	0	3,72856	3,03	21,0168	-0,695	84,243	0	1010,54	5,8	7,9	7,8	1	1	1	1	1	1	1	1	1	0	1	-1,268499	273,172086	314,470577	0
15.01.2021	05:18:58	0	0	3,163627	2,78625	24,354	-0,688	84,257	0	1010,46	5,8	7,9	7,8	1	1	1	1	1	1	1	1	1	0	1	-4,933051	273,213369	310,996931	0
15.01.2021	05:18:59	0	0	2,824667	2,4825	15,4044	-0,687	84,246	0	1010,66	5,8	7,9	7,8	1	1	1	1	1	1	1	1	1	0	1	-2,818887	273,109619	312,631485	0
15.01.2021	05:19:00	0	0	2,824667	2,18025	18,0756	-0,691	84,246	0	1010,46	5,8	7,9	7,8	1	1	1	1	1	1	1	1	1	0	1	-5,567301	273,112454	309,896169	0
15.01.2021	05:19:01	0	0	2,824667	2,18025	18,0756	-0,691	84,246	0	1010,46	5,8	7,9	7,8	1	1	1	1	1	1	1	1	1	0	1	-5,567301	273,112454	309,896169	0
15.01.2021	05:19:02	0	0	5,197387	2,15175	15,7896	-0,693	84,251	0	1010,5	5,8	7,9	7,8	1	1	1	1	1	1	1	1	1	0	1	-1,268499	273,254741	314,852888	0
15.01.2021	05:19:03	0	0	3,72856	2,13375	12,8592	-0,688	84,256	0	1010,5	5,8	7,9	7,8	1	1	1	1	1	1	1	1	1	0	1	-6,20155	273,221921	309,767992	0
15.01.2021	05:19:04	0	0	2,71168	2,331	25,0416	-0,688	84,251	0	1010,5	5,8	7,9	7,8	1	1	1	1	1	1	1	1	1	0	1	-6,20155	273,096866	309,189908	0
15.01.2021	05:19:05	0	0	3,276633	2,43225	15,03	-0,69	84,254	0	1010,54	5,8	7,9	7,7	1	1	1	1	1	1	1	1	1	0	1	-8,245243	273,257597	307,889363	0
15.01.2021	05:19:06	0	0	4,971443	2,54475	6,822	-0,693	84,248	0	1010,34	5,8	7,9	7,7	1	1	1	1	1	1	1	1	1	0	1	-1,409443	273,084123	313,923149	0
15.01.2021	05:19:07	0	0	4,74544	2,5965	1,1916	-0,695	84,255	0	1010,56	5,8	7,9	7,8	1	1	1	1	1	1	1	1	1	0	1	-2,748414	273,231904	313,267308	0
15.01.2021	05:19:08	0	0	2,711696	2,553	20,286	-0,691	84,243	0	1010,66	5,8	7,9	7,7	1	1	1	1	1	1	1	1	1	0	1	-1,62086	273,283325	314,632823	0
15.01.2021	05:19:09	0	0	3,05064	2,673	17,2404	-0,688	84,25	0	1010,5	5,8	7,9	7,8	1	1	1	1	1	1	1	1	1	0	1	-6,483439	273,113871	308,98658	0
15.01.2021	05:19:10	0	0	3,728582	3,08025	10,458	-0,694	84,257	0	1010,52	5,8	7,9	7,7	1	1	1	1	1	1	1	1	1	0	1	-0,422833	273,21907	315,53352	0
15.01.2021	05:19:11	0	0	3,163627	3,2685	9,3672	-0,691	84,242	0	1010,44	5,8	7,9	7,8	1	1	1	1	1	1	1	1	1	0	1	-0,140944	273,277605	316,08626	0
15.01.2021	05:19:12	0	0	3,050658	3,73125	11,2032	-0,69	84,268	0	1010,6	5,8	7,9	7,7	1	1	1	1	1	1	1	1	1	0	1	-6,624383	273,176352	309,134418	0
15.01.2021	05:19:13	0	0	4,180507	3,89625	12,0924	-0,685	84,274	0	1010,58	5,8	7,9	7,8	1	1	1	1	1	1	1	1	1	0	1	-0	273,283325	316,253682	0
15.01.2021	05:19:14	0	0	2,824667	3,8325	10,44	-0,691	84,279	0	1010,54	5,8	7,9	7,8	1	1	1	1	1	1	1	1	1	0	1	-9,372798	273,260454	306,775029	0
15.01.2021	05:19:15	0	0	4,632453	3,74475	6,4332	-0,688	84,273	0	1010,5	5,8	7,9	7,8	1	1	1	1	1	1	1	1	1	0	1	-3,312192	273,164977	312,394019	0
15.01.2021	05:19:16	0	0	3,841547	3,807	360	-0,69	84,255	0	1010,48	5,8	7,9	7,8	1	1	1	1	1	1	1	1	1	0	1	-4,157858	273,149347	311,476103	0
15.01.2021	05:19:17	0	0	4,632481	3,90675	9,7344	-0,669	84,297	0	1010,7	5,8	7,9	7,7	1	1	1	1	1	1	1	1	1	0	1	-0,775194	273,176352	314,983608	0
15.01.2021	05:19:18	0	0	3,615595	3,70125	11,718	-0,688	84,271	0	1010,52	5,8	7,9	7,7	1	1	1	1	1	1	1	1	1	0	1	-0,775194	273,263311	315,385857	0
15.01.2021	05:19:19	0	0	4,293519	3,6795	15,0048	-0,688	84,284	0	1010,52	5,8	7,9	7,7	1	1	1	1	1	1	1	1	1	0	1	-0	273,105367	315,430728	0
15.01.2021	05:19:20	0	0	4,745412	3,46425	19,53	-0,696	84,268	0	1010,42	5,8	7,9	7,9	1	1	1	1	1	1	1	1	1	0	1	-1,479915	273,194851	314,364426	0
15.01.2021	05:19:21	0	0	4,067496	3,141	20,2896	-0,687	84,28	0	1010,38	5,8	7,9	7,9	1	1	1	1	1	1	1	1	1	0	1	-4,792107	273,273316	311,415245	0
15.01.2021	05:19:22	0	0	4,632481	3,16125	22,0716	-0,697	84,281	0	1010,48	5,8	7,9	7,7	1	1	1	1	1	1	1	1	1	0	1	-5,778717	273,243319	310,289818	0
15.01.2021	05:19:23	0	0	4,858427	3,099	32,5116	-0,686	84,286	0	1010,48	5,8	7,9	7,8	1	1	1	1	1	1	1	1	1	0	1	-3,59408	273,224773	312,388653	0
15.01.2021	05:19:24	0	0	3,163646	2,949	27,6588	-0,685	84,286	0	1010,52	5,8	7,9	7,7	1	1	1	1	1	1	1	1	1	0	1	-5,003524	273,109619	310,446848	0
15.01.2021	05:19:25	0	0	2,824667	2,75025	18,4536	-0,686	84,293	0	1010,48	5,8	7,9	7,8	1	1	1	1	1	1	1	1	1	0	1	-2,536998	273,207669	313,366623	0
15.01.2021	05:19:26	0	0	4,858427	2,934	10,8396	-0,682	84,289	0	1010,56	5,8	7,9	7,8	1	1	1	1	1	1	1	1	1	0	1	-2,325581	273,140827	313,269	0
15.01.2021	05:19:27	0	0	3,728582	3,1125	358,4196	-0,689	84,303	0	1010,56	5,8	7,9	7,7	1	1	1	1	1	1	1	1	1	0	1	-3,523608	273,211944	312,399783	0
15.01.2021	05:19:28	0	0	3,954533	2,9235	13,5648	-0,687	84,301	0	1010,54	5,8	7,9	7,8	1	1	1	1	1	1	1	1	1	0	1	-5,778717	273,109619	309,671654	0
15.01.2021	05:19:29	0	0	3,728582	2,89275	16,0992	-0,685	84,306	0	1010,52	5,8	7,9	7,7	1	1	1	1	1	1	1	1	1	0	1	-0,211416	273,221921	315,758126	0
15.01.2021	05:19:30	0	0	2,824667	2,76675	16,092	-0,689	84,301	0	1010,56	5,8	7,9	7,8	1	1	1	1	1	1	1	1	1	0	1	-4,510218	273,270457	311,683901	0
15.01.2021	05:19:31	0	0	2,937671	2,844	18,8352	-0,687	84,299	0	1010,48	5,8	7,9	7,7	1	1	1	1	1	1	1	1	1	0	1	-0,352361	273,146506	315,268471	0
15.01.2021	05:19:32	0	0	2,711696	2,87625	24,3504	-0,687	84,313	0	1010,58	5,8	7,9	7,7	1	1	1	1	1	1	1	1	1	0	1	-3,664553	273,140827	311,930029	0
15.01.2021	05:19:33	0	0	2,598693	2,62875	16,8552	-0,692	84,303	0	1010,46	5,8	7,9	7,8	1	1	1	1	1	1	1	1	1	0	1	-0,634249	273,284755	315,626054	0
15.01.2021	05:19:34	0	0	3,3896	2,58825	359,9028	-0,683	84,308	0	1010,52	5,8	7,9	7,8	1	1	1	1	1	1	1	1	1	0	1	-1,479915	273,18062	314,298617	0
15.01.2021	05:19:35	0	0	3,050658	2,76975	22,8456	-0,687	84,325	0	1010,62	5,8	8	7,7	1	1	1	1	1	1	1	1	1	0	1	-4,369274	273,105367	311,061454	0
15.01.2021	05:19:36	0	0	4,74544	3,28575	9,3672	-0,686	84,296	0	1010,5	5,8	7,9	7,8	1	1	1	1	1	1	1	1	1	0	1	-3,100775	273,213369	312,829207	0
15.01.2021	05:19:37	0	0	2,937653	3,207	10,4292	-0,688	84,318	0	1010,46	5,8	7,9	7,8	1	1	1	1	1	1	1	1	1	0	1	-3,735025	273,112454	311,728445	0
15.01.2021	05:19:38	0	0	4,293519	3,34875	24,7068	-0,691	84,326	0	1010,32	5,8	7,9	7,7	1	1	1	1	1	1	1	1	1	0	1	-3,946441	273,224773	312,036292	0
15.01.2021	05:19:39	0	0	5,310405	3,66375	20,6352	-0,686	84,326	0	1010,62	5,8	8	7,7	1	1	1	1	1	1	1	1	1	0	1	-2,889359	273,109619	312,561013	0
15.01.2021	05:19:40	0	0	2,937671	3,6975	24,0624	-0,685	84,312	0	1010,6	5,8	7,9	7,7	1	1	1	1	1	1	1	1	1	0	1	-2,325581	273,243319	313,742954	0
15.01.2021	05:19:41	0	0	2,937671	3,45975	33,246	-0,688	84,32	0	1010,62	5,8	7,9	7,7	1	1	1	1	1	1	1	1	1	0	1	-2,536998	273,274745	313,676971	0
15.01.2021	05:19:42	0	0	4,293519	3,25725	26,1792	-0,686	84,315	0	1010,58	5,8	7,9	7,7	1	1	1	1	1	1	1	1	1	0	1	-3,664553	273,111036	311,792368	0
15.01.2021	05:19:43	0	0	5,0844	3,453	24,3396	-0,681	84,336	0	1010,64	5,8	7,9	7,8	1	1	1	1	1	1	1	1	1	0	1	-3,030303	273,164977	312,675908	0
15.01.2021	05:19:44	0	0	2,824684	3,45075	18,8388	-0,688	84,331	0	1010,52	5,8	7,9	7,7	1	1	1	1	1	1	1	1	1	0	1	-3,382664	273,111036	312,074256	0
15.01.2021	05:19:45	0	0	3,615573	3,40725	21,7656	-0,688	84,34	0	1010,48	5,8	7,9	7,8	1	1	1	1	1	1	1	1	1	0	1	-3,59408	273,203396	312,289775	0
15.01.2021	05:19:46	0	0	2,598709	3,315	15,4008	-0,689	84,325	0	1010,46	5,8	7,9	7,7	1	1	1	1	1	1	1	1	1	0	1	-8,527132	273,279035	307,706691	0
15.01.2021	05:19:47	0	0	4,406506	3,2265	19,5192	-0,682	84,334	0	1010,52	5,8	7,9	7,7	1	1	1	1	1	1	1	1	1	0	1	-0,775194	273,256169	315,352802	0
15.01.2021	05:19:48	0	0	4,293519	3,7875	29,9592	-0,689	84,326	0	1010,54	5,8	8	7,7	1	1	1	1	1	1	1	1	1	0	1	-5,496829	273,162134	310,19624	0
15.01.2021	05:19:49	0	0	3,050658	4,17225	7,1388	-0,684	84,338	0	1010,5	5,8	7,9	7,7	1	1	1	1	1	1	1	1	1	0	1	-2,114165	273,280465	314,126277	0
15.01.2021	05:19:50	0	0	4,067544	4,4325	10,4184	-0,691	84,341	0	1010,4	5,8	8	7,7	1	1	1	1	1	1	1	1	1	0	1	-5,144468	273,105367	310,28626	0
15.01.2021	05:19:51	0	0	4,745468	4,40025	13,9212	-0,689	84,343	0	1010,58	5,8	8	7,7	1	1	1	1	1	1	1	1	1	0	1	-2,325581	273,173508	313,420069	0
15.01.2021	05:19:52	0	0	3,163627	4,275	17,2368	-0,69	84,356	0	1010,56	5,8	7,9	7,8	1	1	1	1	1	1	1	1	1	0	1	-6,765328	273,283325	309,488355	0
15.01.2021	05:19:53	0	0	3,502608	4,51275	16,4916	-0,688	84,33	0	1010,52	5,8	7,9	7,7	1	1	1	1	1	1	1	1	1	0	1	-4,651163	273,173508	311,094487	0
15.01.2021	05:19:54	0	0	4,519494	4,644	12,1032	-0,683	84,344	0	1010,42	5,8	7,9	7,7	1	1	1	1	1	1	1	1	1	0	1	-0	273,256169	316,127996	0
15.01.2021	05:19:55	0	0	2,937671	4,6545	13,9248	-0,693	84,347	0	1010,5	5,8	7,9	7,7	1	1	1	1	1	1	1	1	1	0	1	-4,651163	273,116707	310,831958	0
15.01.2021	05:19:56	0	0	4,632481	4,47075	15,0408	-0,684	84,346	0	1010,38	5,8	7,9	7,7	1	1	1	1	1	1	1	1	1	0	1	-2,748414	273,130891	312,800251	0
15.01.2021	05:19:57	0	0	4,519467	4,25475	19,152	-0,684	84,356	0	1010,42	5,8	7,9	7,8	1	1	1	1	1	1	1	1	1	0	1	-6,906272	273,253312	309,208507	0
15.01.2021	05:19:58	0	0	4,519494	4,0425	12,1896	-0,684	84,363	0	1010,5	5,8	7,9	7,7	1	1	1	1	1	1	1	1	1	0	1	-3,946441	273,220495	312,016506	0
15.01.2021	05:19:59	0	0	3,502608	3,768	16,092	-0,689	84,361	0	1010,42	5,8	7,9	7,7	1	1	1	1	1	1	1	1	1	0	1	-10,42988	273,294771	305,876787	0
15.01.2021	05:20:00	0	0	2,937671	3,53025	18,0864	-0,69	84,37	0	1010,52	5,8	8	7,7	1	1	1	1	1	1	1	1	1	0	1	-7,188161	273,129473	308,353948	0
15.01.2021	05:20:01	0	0	4,180532	3,43425	9,3708	-0,686	84,372	0	1010,52	5,8	7,9	7,7	1	1	1	1	1	1	1	1	1	0	1	-3,453136	273,217644	312,496623	0
15.01.2021	05:20:02	0	0	4,180532	3,43425	9,3708	-0,686	84,372	0	1010,52	5,8	7,9	7,7	1	1	1	1	1	1	1	1	1	0	1	-3,453136	273,217644	312,496623	0
15.01.2021	05:20:03	0	0	2,937671	3,31725	13,176	-0,682	84,371	0	1010,66	5,8	7,9	7,7	1	1	1	1	1	1	1	1	1	0	1	-7,329105	273,109619	308,121266	0
15.01.2021	05:20:04	0	0	3,38962	3,063	9,378	-0,686	84,375	0	1010,48	5,8	7,9	7,7	1	1	1	1	1	1	1	1	1	0	1	-1,338971	273,15645	314,327822	0
15.01.2021	05:20:05	0	0	3,728582	3,12	16,1028	-0,682	84,378	0	1010,52	5,8	7,9	7,7	1	1	1	1	1	1	1	1	1	0	1	-6,412967	273,159292	309,266963	0
15.01.2021	05:20:06	0	0	3,050622	2,94525	18,8316	-0,686	84,365	0	1010,56	5,8	7,9	7,9	1	1	1	1	1	1	1	1	1	0	1	-6,20155	273,106784	309,235725	0
15.01.2021	05:20:07	0	0	3,050658	3,0525	25,0488	-0,686	84,376	0	1010,5	5,8	7,9	7,7	1	1	1	1	1	1	1	1	1	0	1	-1,62086	273,189157	314,197151	0
15.01.2021	05:20:08	0	0	4,519494	3,08025	18,09	-0,679	84,395	0	1010,66	5,8	7,9	7,7	1	1	1	1	1	1	1	1	1	0	1	-5,708245	273,276175	310,512341	0
15.01.2021	05:20:09	0	0	2,71168	3,1485	17,2584	-0,679	84,394	0	1010,64	5,8	8	7,8	1	1	1	1	1	1	1	1	1	0	1	-4,298802	273,216219	311,644364	0
15.01.2021	05:20:10	0	0	4,180507	3,537	16,4736	-0,682	84,391	0	1010,5	5,8	7,9	7,8	1	1	1	1	1	1	1	1	1	0	1	-0,140944	273,102533	315,276692	0
15.01.2021	05:20:11	0	0	3,3896	3,50775	22,4712	-0,681	84,395	0	1010,5	5,8	8	7,8	1	1	1	1	1	1	1	1	1	0	1	-5,84919	273,230477	310,159934	0
15.01.2021	05:20:12	0	0	3,954533	3,46575	22,4856	-0,682	84,399	0	1010,58	5,8	7,9	7,8	1	1	1	1	1	1	1	1	1	0	1	-6,272023	273,102533	309,145613	0
15.01.2021	05:20:13	0	0	2,937653	3,5685	17,7048	-0,679	84,396	0	1010,6	5,8	8	7,8	1	1	1	1	1	1	1	1	1	0	1	-4,651163	273,241891	311,410769	0
15.01.2021	05:20:14	0	0	4,519494	3,27675	27,9756	-0,686	84,394	0	1010,56	5,8	7,9	7,7	1	1	1	1	1	1	1	1	1	0	1	-1,761804	273,112454	313,701665	0
15.01.2021	05:20:15	0	0	3,3896	2,9955	6,066	-0,682	84,386	0	1010,52	5,8	8	7,8	1	1	1	1	1	1	1	1	1	0	1	-5,496829	273,115289	309,979741	0
15.01.2021	05:20:16	0	0	3,841547	2,95125	11,2104	-0,682	84,37	0	1010,44	5,8	8	7,8	1	1	1	1	1	1	1	1	1	0	1	-2,466526	273,23761	313,575599	0
15.01.2021	05:20:17	0	0	3,276613	3,03075	13,1616	-0,678	84,383	0	1010,54	5,8	7,9	7,8	1	1	1	1	1	1	1	1	1	0	1	-3,875969	273,106784	311,561306	0
15.01.2021	05:20:18	0	0	2,937671	3,0555	32,148	-0,679	84,401	0	1010,64	5,8	7,9	7,7	1	1	1	1	1	1	1	1	1	0	1	-3,664553	273,183465	312,127137	0
15.01.2021	05:20:19	0	0	3,163646	3,1035	36,2268	-0,68	84,412	0	1010,52	5,8	7,9	7,7	1	1	1	1	1	1	1	1	1	0	1	-7,329105	273,29334	308,970937	0
15.01.2021	05:20:20	0	0	4,293519	2,946	23,9472	-0,684	84,392	0	1010,6	5,8	7,9	7,7	1	1	1	1	1	1	1	1	1	0	1	-4,510218	273,210519	311,406582	0
15.01.2021	05:20:21	0	0	3,502608	2,883	20,2896	-0,689	84,4	0	1010,56	5,8	8	7,7	1	1	1	1	1	1	1	1	1	0	1	-5,567301	273,113871	309,902719	0
15.01.2021	05:20:22	0	0	4,632453	2,83575	25,0344	-0,681	84,464	0	1010,56	5,8	7,9	7,8	1	1	1	1	1	1	1	1	1	0	1	-5,84919	273,234757	310,179733	0
15.01.2021	05:20:23	0	0	2,937671	2,93925	14,6592	-0,684	84,4	0	1010,54	5,8	7,9	7,7	1	1	1	1	1	1	1	1	1	0	1	-4,862579	273,284755	311,397724	0
15.01.2021	05:20:24	0	0	3,163627	3,0975	14,0184	-0,686	84,41	0	1010,56	5,8	7,9	7,8	1	1	1	1	1	1	1	1	1	0	1	-1,198027	273,163555	314,501613	0
15.01.2021	05:20:25	0	0	4,406506	3,237	18,072	-0,682	84,42	0	1010,62	5,8	7,9	7,7	1	1	1	1	1	1	1	1	1	0	1	-3,100775	273,280465	313,139667	0
15.01.2021	05:20:26	0	0	4,06752	3,1005	16,4988	-0,683	84,406	0	1010,48	5,8	8	7,8	1	1	1	1	1	1	1	1	1	0	1	-7,188161	273,200547	308,682521	0
15.01.2021	05:20:27	0	0	2,937653	3,1365	9,0072	-0,682	84,417	0	1010,68	5,8	8	7,8	1	1	1	1	1	1	1	1	1	0	1	-4,721635	273,129473	310,820473	0
15.01.2021	05:20:28	0	0	3,502587	3,0585	8,9928	-0,688	84,399	0	1010,6	5,8	7,9	7,8	1	1	1	1	1	1	1	1	1	0	1	-2,748414	273,126635	312,780582	0
15.01.2021	05:20:29	0	0	3,954557	2,7405	21,7728	-0,682	84,423	0	1010,6	5,8	7,9	7,7	1	1	1	1	1	1	1	1	1	0	1	-1,62086	273,115289	313,85571	0
15.01.2021	05:20:30	0	0	4,40648	2,5275	12,4632	-0,685	84,404	0	1010,5	5,8	7,9	7,8	1	1	1	1	1	1	1	1	1	0	1	-4,933051	273,254741	311,188336	0
15.01.2021	05:20:31	0	0	4,74544	2,7045	18,8532	-0,68	84,409	0	1010,52	5,8	7,9	7,8	1	1	1	1	1	1	1	1	1	0	1	-3,664553	273,281895	312,582509	0
15.01.2021	05:20:32	0	0	2,824684	2,78025	19,53	-0,68	84,423	0	1010,56	5,8	7,9	7,7	1	1	1	1	1	1	1	1	1	0	1	-2,184637	273,176352	313,574164	0
15.01.2021	05:20:33	0	0	4,293519	2,8035	16,4772	-0,681	84,423	0	1010,62	5,8	7,9	7,7	1	1	1	1	1	1	1	1	1	0	1	-1,761804	273,286186	314,505121	0
15.01.2021	05:20:34	0	0	2,711696	2,81175	0,8604	-0,684	84,422	0	1010,6	5,8	7,9	7,7	1	1	1	1	1	1	1	1	1	0	1	-3,453136	273,162134	312,239933	0
15.01.2021	05:20:35	0	0	3,72856	2,82525	11,7108	-0,676	84,437	0	1010,44	5,8	7,9	7,8	1	1	1	1	1	1	1	1	1	0	1	-5,073996	273,13231	310,481227	0
15.01.2021	05:20:36	0	0	3,05064	2,8005	22,8384	-0,686	84,424	0	1010,54	5,8	7,9	7,8	1	1	1	1	1	1	1	1	1	0	1	-8,949965	273,126635	306,579031	0
15.01.2021	05:20:37	0	0	3,050658	2,72775	11,7288	-0,68	84,441	0	1010,58	5,8	7,9	7,7	1	1	1	1	1	1	1	1	1	0	1	-6,131078	273,276175	310,089508	0
15.01.2021	05:20:38	0	0	2,937671	2,61075	20,3076	-0,676	84,457	0	1010,48	5,8	7,9	7,7	1	1	1	1	1	1	1	1	1	0	1	-4,298802	273,102533	311,118834	0
15.01.2021	05:20:39	0	0	3,502608	2,58825	12,852	-0,68	84,446	0	1010,48	5,8	8	7,7	1	1	1	1	1	1	1	1	1	0	1	-2,466526	273,230477	313,542598	0
15.01.2021	05:20:40	0	0	2,824684	2,53275	12,8628	-0,676	84,434	0	1010,54	5,8	7,9	7,7	1	1	1	1	1	1	1	1	1	0	1	-2,325581	273,111036	313,131339	0
15.01.2021	05:20:41	0	0	2,711696	2,523	15,0336	-0,678	84,457	0	1010,62	5,8	7,9	7,7	1	1	1	1	1	1	1	1	1	0	1	-5,285412	273,16782	310,433943	0
15.01.2021	05:20:42	0	0	4,971443	2,55525	19,9188	-0,677	84,463	0	1010,66	5,8	7,8	7,7	1	1	1	1	1	1	1	1	1	0	1	-4,369274	273,286186	311,897651	0
15.01.2021	05:20:43	0	0	3,728582	2,5545	6,8256	-0,677	84,448	0	1010,42	5,8	7,9	7,7	1	1	1	1	1	1	1	1	1	0	1	-2,114165	273,244746	313,960975	0
15.01.2021	05:20:44	0	0	3,276613	2,5275	19,9188	-0,675	84,45	0	1010,54	5,8	7,9	7,8	1	1	1	1	1	1	1	1	1	0	1	-3,030303	273,276175	313,190283	0
15.01.2021	05:20:45	0	0	3,276633	2,6625	20,286	-0,682	84,45	0	1010,58	5,8	7,9	7,7	1	1	1	1	1	1	1	1	1	0	1	-5,637773	273,125216	309,884668	0
15.01.2021	05:20:46	0	0	2,937671	2,706	18,918	-0,674	84,46	0	1010,64	5,8	7,9	7,7	1	1	1	1	1	1	1	1	1	0	1	-6,20155	273,226199	309,78778	0
15.01.2021	05:20:47	0	0	3,615595	2,96175	15,0408	-0,678	84,467	0	1010,56	5,8	8	7,7	1	1	1	1	1	1	1	1	1	0	1	-4,510218	273,116707	310,972903	0
15.01.2021	05:20:48	0	0	3,954533	3,23925	17,7012	-0,682	84,465	0	1010,54	5,8	8	7,8	1	1	1	1	1	1	1	1	1	0	1	-7,117689	273,187734	308,693741	0
15.01.2021	05:20:49	0	0	4,293493	3,44625	12,1032	-0,677	84,487	0	1010,62	5,8	7,9	7,8	1	1	1	1	1	1	1	1	1	0	1	-4,933051	273,299065	311,393495	0
15.01.2021	05:20:50	0	0	2,824684	3,3255	1,926	-0,678	84,477	0	1010,7	5,8	8	7,7	1	1	1	1	1	1	1	1	1	0	1	-9,090909	273,184888	306,70736	0
15.01.2021	05:20:51	0	0	3,502608	3,04875	18,4464	-0,675	84,474	0	1010,58	5,8	8	7,7	1	1	1	1	1	1	1	1	1	0	1	-8,315715	273,251884	307,792455	0
15.01.2021	05:20:52	0	0	5,197387	2,8425	12,1068	-0,678	84,468	0	1010,52	5,8	8	7,8	1	1	1	1	1	1	1	1	1	0	1	-8,245243	273,266169	307,929033	0
15.01.2021	05:20:53	0	0	2,598693	2,78775	12,114	-0,683	84,477	0	1010,48	5,9	7,9	7,8	1	1	1	1	1	1	1	1	1	0	1	-0,845666	273,224773	315,137068	0
15.01.2021	05:20:54	0	0	3,954557	2,736	11,1816	-0,676	84,489	0	1010,56	5,8	8	7,7	1	1	1	1	1	1	1	1	1	0	1	-3,100775	273,291909	313,192642	0
15.01.2021	05:20:55	0	0	4,180507	2,8605	16,1028	-0,681	84,462	0	1010,5	5,8	7,9	7,8	1	1	1	1	1	1	1	1	1	0	1	-4,651163	273,227625	311,344765	0
15.01.2021	05:20:56	0	0	2,71168	2,94675	19,1448	-0,676	84,475	0	1010,56	5,8	8	7,8	1	1	1	1	1	1	1	1	1	0	1	-1,691332	273,129473	313,850776	0
15.01.2021	05:20:57	0	0	4,293493	2,7975	18,8388	-0,678	84,478	0	1010,38	5,8	7,9	7,8	1	1	1	1	1	1	1	1	1	0	1	-4,792107	273,287616	311,48144	0
15.01.2021	05:20:58	0	0	4,632453	2,64	21,3948	-0,679	84,478	0	1010,56	5,8	8	7,8	1	1	1	1	1	1	1	1	1	0	1	-5,496829	273,217644	310,452931	0
15.01.2021	05:20:59	0	0	2,711696	2,78475	28,3536	-0,677	84,493	0	1010,62	5,8	7,9	7,7	1	1	1	1	1	1	1	1	1	0	1	-2,959831	273,10395	312,464351	0
15.01.2021	05:21:00	0	0	3,163627	2,829	20,268	-0,673	84,5	0	1010,62	5,8	8	7,8	1	1	1	1	1	1	1	1	1	0	1	-2,114165	273,123798	313,401721	0
15.01.2021	05:21:01	0	0	3,163627	2,829	20,268	-0,673	84,5	0	1010,62	5,8	8	7,8	1	1	1	1	1	1	1	1	1	0	1	-2,114165	273,123798	313,401721	0
15.01.2021	05:21:02	0	0	2,937671	2,8305	26,5176	-0,675	84,494	0	1010,48	5,8	8	7,7	1	1	1	1	1	1	1	1	1	0	1	-6,20155	273,13231	309,353673	0
15.01.2021	05:21:03	0	0	2,146747	2,706	30,312	-0,678	84,489	0	1010,62	5,8	7,9	7,8	1	1	1	1	1	1	1	1	1	0	1	-2,677942	273,155029	312,982283	0
15.01.2021	05:21:04	0	0	2,937653	2,505	17,2368	-0,675	84,508	0	1010,56	5,8	7,9	7,8	1	1	1	1	1	1	1	1	1	0	1	-5,84919	273,120961	309,653589	0
15.01.2021	05:21:05	0	0	4,971443	2,58	13,9248	-0,672	84,512	0	1010,5	5,8	8	7,7	1	1	1	1	1	1	1	1	1	0	1	-5,355884	273,182042	310,429226	0
15.01.2021	05:21:06	0	0	4,858427	2,7075	19,8936	-0,673	84,485	0	1010,46	5,8	7,9	7,8	1	1	1	1	1	1	1	1	1	0	1	-1,973221	273,118125	313,516452	0
15.01.2021	05:21:07	0	0	4,74544	2,88525	15,7788	-0,673	84,508	0	1010,58	5,8	8	7,8	1	1	1	1	1	1	1	1	1	0	1	-3,664553	273,220495	312,298395	0
15.01.2021	05:21:08	0	0	4,632481	3,0885	13,9968	-0,672	84,511	0	1010,66	5,8	8	7,7	1	1	1	1	1	1	1	1	1	0	1	-5,355884	273,289047	310,924286	0
15.01.2021	05:21:09	0	0	4,745468	3,08775	22,1076	-0,674	84,506	0	1010,38	5,8	7,9	7,7	1	1	1	1	1	1	1	1	1	0	1	-8,80902	273,280465	307,431422	0
15.01.2021	05:21:10	0	0	3,05064	2,9085	6,8292	-0,679	84,51	0	1010,56	5,8	8	7,8	1	1	1	1	1	1	1	1	1	0	1	-2,536998	273,281895	313,710064	0
15.01.2021	05:21:11	0	0	3,3896	2,8275	16,4952	-0,673	84,506	0	1010,66	5,8	8	7,8	1	1	1	1	1	1	1	1	1	0	1	-1,198027	273,259025	314,943189	0
15.01.2021	05:21:12	0	0	4,858427	2,95725	7,524	-0,678	84,514	0	1010,62	5,8	7,8	7,8	1	1	1	1	1	1	1	1	1	0	1	-3,312192	273,239037	312,736535	0
15.01.2021	05:21:13	0	0	4,293493	2,928	0,882	-0,674	84,508	0	1010,48	5,8	7,8	7,8	1	1	1	1	1	1	1	1	1	0	1	-2,818887	273,12238	312,690445	0
15.01.2021	05:21:14	0	0	3,05064	3,01425	5,6988	-0,681	84,509	0	1010,52	5,8	8	7,8	1	1	1	1	1	1	1	1	1	0	1	-1,409443	273,217644	314,540316	0
15.01.2021	05:21:15	0	0	3,3896	3,02025	8,622	-0,677	84,512	0	1010,62	5,8	8	7,8	1	1	1	1	1	1	1	1	1	0	1	-1,761804	273,299065	314,564742	0
15.01.2021	05:21:16	0	0	4,40648	2,74425	23,1984	-0,678	84,511	0	1010,44	5,8	8	7,8	1	1	1	1	1	1	1	1	1	0	1	-3,382664	273,259025	312,758552	0
15.01.2021	05:21:17	0	0	2,937653	2,64	17,2224	-0,676	84,511	0	1010,56	5,8	8	7,8	1	1	1	1	1	1	1	1	1	0	1	-2,255109	273,116707	313,228012	0
15.01.2021	05:21:18	0	0	4,858456	2,643	1,5588	-0,68	84,533	0	1010,48	5,8	8	7,7	1	1	1	1	1	1	1	1	1	0	1	-5,073996	273,182042	310,711115	0
15.01.2021	05:21:19	0	0	3,954557	2,5095	25,6536	-0,675	84,535	0	1010,46	5,8	8	7,7	1	1	1	1	1	1	1	1	1	0	1	-3,030303	273,116707	312,452818	0
15.01.2021	05:21:20	0	0	3,05064	2,45925	5,688	-0,677	84,514	0	1010,5	5,8	8	7,8	1	1	1	1	1	1	1	1	1	0	1	-2,959831	273,207669	312,94379	0
15.01.2021	05:21:21	0	0	2,598693	2,3685	14,3172	-0,678	84,522	0	1010,48	5,8	7,8	7,8	1	1	1	1	1	1	1	1	1	0	1	-3,382664	273,283325	312,871018	0
15.01.2021	05:21:22	0	0	4,293493	2,691	13,158	-0,674	84,525	0	1010,56	5,8	8	7,8	1	1	1	1	1	1	1	1	1	0	1	-3,946441	273,290478	312,340352	0
15.01.2021	05:21:23	0	0	4,519467	2,8545	21,0024	-0,679	84,518	0	1010,54	5,8	7,9	7,8	1	1	1	1	1	1	1	1	1	0	1	-3,875969	273,26474	312,291694	0
15.01.2021	05:21:24	0	0	3,615573	2,6505	9,7488	-0,673	84,542	0	1010,58	5,8	7,9	7,8	1	1	1	1	1	1	1	1	1	0	1	-9,231853	273,211944	306,691537	0
15.01.2021	05:21:25	0	0	3,615573	2,51475	8,9964	-0,671	84,533	0	1010,56	5,8	8	7,8	1	1	1	1	1	1	1	1	1	0	1	-5,990134	273,128054	309,545418	0
15.01.2021	05:21:26	0	0	4,067544	2,547	18,4572	-0,678	84,535	0	1010,58	5,8	8	7,7	1	1	1	1	1	1	1	1	1	0	1	-3,030303	273,211944	312,893088	0
15.01.2021	05:21:27	0	0	4,519494	2,32425	14,2992	-0,676	84,55	0	1010,52	5,8	8	7,7	1	1	1	1	1	1	1	1	1	0	1	-0,422833	273,120961	315,079945	0
15.01.2021	05:21:28	0	0	4,06752	2,16675	24,7248	-0,67	84,553	0	1010,62	5,8	8	7,8	1	1	1	1	1	1	1	1	1	0	1	-6,8358	273,23761	309,206325	0
15.01.2021	05:21:29	0	0	3,841547	2,05425	1,1736	-0,676	84,549	0	1010,52	5,8	7,9	7,8	1	1	1	1	1	1	1	1	1	0	1	-4,792107	273,15645	310,874686	0
15.01.2021	05:21:30	0	0	4,519467	2,067	1,5516	-0,67	84,557	0	1010,58	5,8	8	7,8	1	1	1	1	1	1	1	1	1	0	1	-4,22833	273,273316	311,979022	0
15.01.2021	05:21:31	0	0	3,954533	2,0565	29,1024	-0,671	84,554	0	1010,6	5,8	8	7,8	1	1	1	1	1	1	1	1	1	0	1	-6,342495	273,173508	309,403155	0
15.01.2021	05:21:32	0	0	4,519467	2,03775	10,8	-0,678	84,554	0	1010,48	5,8	8	7,8	1	1	1	1	1	1	1	1	1	0	1	-4,22833	273,135149	311,34001	0
15.01.2021	05:21:33	0	0	4,293493	1,89675	11,718	-0,676	84,555	0	1010,6	5,8	8	7,8	1	1	1	1	1	1	1	1	1	0	1	-3,312192	273,153608	312,341466	0
15.01.2021	05:21:34	0	0	3,276613	1,695	15,0444	-0,672	84,549	0	1010,62	5,8	8	7,8	1	1	1	1	1	1	1	1	1	0	1	-7,751938	273,29334	308,548104	0
15.01.2021	05:21:35	0	0	3,954533	1,67325	5,688	-0,672	84,558	0	1010,62	5,8	8	7,8	1	1	1	1	1	1	1	1	1	0	1	-4,298802	273,294771	312,007865	0
15.01.2021	05:21:36	0	0	5,649333	1,896	23,2272	-0,672	84,563	0	1010,52	5,8	8	7,8	1	1	1	1	1	1	1	1	1	0	1	-7,610994	273,241891	308,450938	0
15.01.2021	05:21:37	0	0	3,502608	1,92675	19,2384	-0,674	84,565	0	1010,6	5,8	8	7,7	1	1	1	1	1	1	1	1	1	0	1	-7,470049	273,160713	308,21645	0
15.01.2021	05:21:38	0	0	4,632453	1,89225	12,8448	-0,673	84,564	0	1010,62	5,8	8	7,8	1	1	1	1	1	1	1	1	1	0	1	-0,070472	273,303359	316,275959	0
15.01.2021	05:21:39	0	0	5,0844	2,2065	7,8804	-0,677	84,562	0	1010,58	5,8	8	7,8	1	1	1	1	1	1	1	1	1	0	1	-4,510218	273,239037	311,538508	0
15.01.2021	05:21:40	0	0	2,824667	2,62575	15,4152	-0,666	84,563	0	1010,7	5,7	8	7,8	1	1	1	1	1	1	1	1	1	0	1	-9,302326	273,128054	306,233226	0
15.01.2021	05:21:41	0	0	4,06752	2,78625	13,248	-0,674	84,547	0	1010,62	5,8	8	7,8	1	1	1	1	1	1	1	1	1	0	1	-5,003524	273,259025	311,137693	0
15.01.2021	05:21:42	0	0	4,971413	2,77425	12,1068	-0,669	84,573	0	1010,66	5,8	8	7,8	1	1	1	1	1	1	1	1	1	0	1	-6,20155	273,23333	309,820772	0
15.01.2021	05:21:43	0	0	2,937671	2,7795	9,3816	-0,673	84,557	0	1010,6	5,8	8	7,7	1	1	1	1	1	1	1	1	1	0	1	-1,409443	273,291909	314,883974	0
15.01.2021	05:21:44	0	0	2,937653	2,6295	18,99	-0,673	84,559	0	1010,6	5,8	8	7,8	1	1	1	1	1	1	1	1	1	0	1	-5,144468	273,291909	311,148949	0
15.01.2021	05:21:45	0	0	3,05064	2,64975	15,4224	-0,672	84,582	0	1010,62	5,8	8	7,8	1	1	1	1	1	1	1	1	1	0	1	-5,073996	273,249029	311,020961	0
15.01.2021	05:21:46	0	0	4,858427	2,54025	19,53	-0,672	84,577	0	1010,66	5,8	7,8	7,8	1	1	1	1	1	1	1	1	1	0	1	-2,184637	273,294771	314,12203	0
15.01.2021	05:21:47	0	0	4,40648	2,46075	22,464	-0,674	84,584	0	1010,62	5,8	8	7,8	1	1	1	1	1	1	1	1	1	0	1	-0,563777	273,16782	315,155578	0
15.01.2021	05:21:48	0	0	5,197387	2,18775	40,9968	-0,666	84,579	0	1010,64	5,8	8	7,8	1	1	1	1	1	1	1	1	1	0	1	-4,721635	273,273316	311,485717	0
15.01.2021	05:21:49	0	0	2,711696	2,01	23,5944	-0,668	84,572	0	1010,6	5,8	8	7,7	1	1	1	1	1	1	1	1	1	0	1	-2,677942	273,31052	313,701642	0
15.01.2021	05:21:50	0	0	4,858427	2,16075	21,0168	-0,664	84,581	0	1010,62	5,8	8	7,8	1	1	1	1	1	1	1	1	1	0	1	-0,352361	273,239037	315,696366	0
15.01.2021	05:21:51	0	0	4,06752	2,37375	14,31	-0,669	84,582	0	1010,52	5,8	8	7,8	1	1	1	1	1	1	1	1	1	0	1	-5,073996	273,299065	311,252551	0
15.01.2021	05:21:52	0	0	3,05064	2,44575	10,062	-0,67	84,57	0	1010,46	5,7	8	7,8	1	1	1	1	1	1	1	1	1	0	1	-8,245243	273,223347	307,730894	0
15.01.2021	05:21:53	0	0	3,728582	2,4495	7,1388	-0,666	84,586	0	1010,46	5,7	8	7,7	1	1	1	1	1	1	1	1	1	0	1	-4,933051	273,123798	310,582834	0
15.01.2021	05:21:54	0	0	4,519467	2,53725	19,5264	-0,669	84,569	0	1010,44	5,9	8	7,8	1	1	1	1	1	1	1	1	1	0	1	-5,496829	273,146506	310,124003	0
15.01.2021	05:21:55	0	0	3,163627	2,48175	18,9324	-0,665	84,586	0	1010,74	5,8	8	7,8	1	1	1	1	1	1	1	1	1	0	1	-7,540521	273,173508	308,205129	0
15.01.2021	05:21:56	0	0	3,05064	2,44275	39,8628	-0,666	84,596	0	1010,56	5,8	8	7,8	1	1	1	1	1	1	1	1	1	0	1	-6,765328	273,159292	308,914602	0
15.01.2021	05:21:57	0	0	3,728582	2,41275	12,8556	-0,671	84,591	0	1010,42	5,8	8	7,7	1	1	1	1	1	1	1	1	1	0	1	-7,188161	273,12238	308,321171	0
15.01.2021	05:21:58	0	0	3,72856	2,34375	32,5116	-0,674	84,587	0	1010,56	5,8	8	7,8	1	1	1	1	1	1	1	1	1	0	1	-6,060606	273,136568	309,514293	0
15.01.2021	05:21:59	0	0	2,824667	2,3475	7,5096	-0,668	84,586	0	1010,56	5,8	8	7,8	1	1	1	1	1	1	1	1	1	0	1	-6,483439	273,240464	309,57189	0
15.01.2021	05:22:00	0	0	2,824667	2,259	21,3948	-0,671	84,594	0	1010,62	5,8	8	7,8	1	1	1	1	1	1	1	1	1	0	1	-5,778717	273,160713	309,907782	0
15.01.2021	05:22:01	0	0	2,824667	2,259	21,3948	-0,671	84,594	0	1010,62	5,8	8	7,8	1	1	1	1	1	1	1	1	1	0	1	-5,778717	273,160713	309,907782	0
15.01.2021	05:22:02	0	0	3,841547	2,343	7,1424	-0,665	84,58	0	1010,56	5,9	7,8	7,8	1	1	1	1	1	1	1	1	1	0	1	-2,677942	273,300496	313,655232	0
15.01.2021	05:22:03	0	0	3,05064	2,418	6,8256	-0,67	84,597	0	1010,48	5,8	8	7,8	1	1	1	1	1	1	1	1	1	0	1	-5,919662	273,13373	309,642119	0
15.01.2021	05:22:04	0	0	4,06752	2,34675	14,6592	-0,666	84,583	0	1010,46	5,8	8	7,8	1	1	1	1	1	1	1	1	1	0	1	-6,412967	273,21907	309,543386	0
15.01.2021	05:22:05	0	0	3,276613	2,2785	4,104	-0,666	84,606	0	1010,64	5,7	8	7,8	1	1	1	1	1	1	1	1	1	0	1	-3,100775	273,281895	313,146287	0
15.01.2021	05:22:06	0	0	3,615573	2,4075	12,852	-0,665	84,598	0	1010,7	5,7	8	7,8	1	1	1	1	1	1	1	1	1	0	1	-10,711769	273,145086	304,902499	0
15.01.2021	05:22:07	0	0	4,067544	2,27025	20,2968	-0,672	84,617	0	1010,52	5,7	8	7,7	1	1	1	1	1	1	1	1	1	0	1	-7,047216	273,246173	309,034529	0
15.01.2021	05:22:08	0	0	3,615573	2,211	29,1204	-0,671	84,583	0	1010,4	5,8	8	7,8	1	1	1	1	1	1	1	1	1	0	1	-5,990134	273,296202	310,323159	0
15.01.2021	05:22:09	0	0	3,276613	2,169	23,58	-0,662	84,664	0	1010,5	5,8	8	7,8	1	1	1	1	1	1	1	1	1	0	1	-7,470049	273,155029	308,190176	0
15.01.2021	05:22:10	0	0	4,74544	2,1045	20,376	-0,664	84,606	0	1010,48	5,7	8	7,8	1	1	1	1	1	1	1	1	1	0	1	-4,721635	273,115289	310,754935	0
15.01.2021	05:22:11	0	0	2,824684	2,15775	9,3672	-0,67	84,602	0	1010,48	5,9	8	7,7	1	1	1	1	1	1	1	1	1	0	1	-4,510218	273,13373	311,051563	0
15.01.2021	05:22:12	0	0	3,615573	2,2725	18,8352	-0,668	84,6	0	1010,58	5,8	8	7,8	1	1	1	1	1	1	1	1	1	0	1	-4,792107	273,170664	310,940394	0
15.01.2021	05:22:13	0	0	2,259733	2,13075	16,1856	-0,664	84,614	0	1010,62	5,8	8	7,8	1	1	1	1	1	1	1	1	1	0	1	-2,748414	273,15645	312,918378	0
15.01.2021	05:22:14	0	0	3,05064	1,9275	26,892	-0,668	84,597	0	1010,54	5,8	8	7,8	1	1	1	1	1	1	1	1	1	0	1	-5,426357	273,240464	310,628972	0
15.01.2021	05:22:15	0	0	2,71168	1,82925	26,8884	-0,67	84,607	0	1010,54	5,7	8	7,8	1	1	1	1	1	1	1	1	1	0	1	-5,778717	273,263311	310,382333	0
15.01.2021	05:22:16	0	0	2,71168	1,788	21,0204	-0,665	84,614	0	1010,56	5,9	8	7,8	1	1	1	1	1	1	1	1	1	0	1	-4,651163	273,108201	310,79266	0
15.01.2021	05:22:17	0	0	5,197387	1,749	20,6388	-0,665	84,604	0	1010,54	5,8	8	7,8	1	1	1	1	1	1	1	1	1	0	1	-5,144468	273,274745	311,069501	0
15.01.2021	05:22:18	0	0	4,519467	1,83225	24,7284	-0,669	84,606	0	1010,56	5,7	8	7,8	1	1	1	1	1	1	1	1	1	0	1	-3,875969	273,169242	311,849959	0
15.01.2021	05:22:19	0	0	4,06752	1,8495	21,0096	-0,666	84,614	0	1010,66	5,8	8	7,8	1	1	1	1	1	1	1	1	1	0	1	-4,016913	273,260454	312,130914	0
15.01.2021	05:22:20	0	0	4,293493	1,91325	19,53	-0,668	84,605	0	1010,72	5,8	8	7,8	1	1	1	1	1	1	1	1	1	0	1	-3,59408	273,251884	312,51409	0
15.01.2021	05:22:21	0	0	3,954533	2,15625	13,9212	-0,669	84,609	0	1010,62	5,7	8	7,8	1	1	1	1	1	1	1	1	1	0	1	-12,121212	273,123798	303,394674	0
15.01.2021	05:22:22	0	0	4,74544	2,32875	7,8804	-0,673	84,632	0	1010,56	5,8	8	7,8	1	1	1	1	1	1	1	1	1	0	1	-5,708245	273,254741	310,413142	0
15.01.2021	05:22:23	0	0	4,74544	2,4525	26,1792	-0,666	84,62	0	1010,6	5,9	8	7,8	1	1	1	1	1	1	1	1	1	0	1	-6,342495	273,304791	310,010566	0
15.01.2021	05:22:24	0	0	3,841547	2,46375	32,1372	-0,67	84,62	0	1010,54	5,8	8	7,8	1	1	1	1	1	1	1	1	1	0	1	-9,44327	273,270457	306,75085	0
15.01.2021	05:22:25	0	0	4,632453	2,40675	29,9628	-0,667	84,636	0	1010,6	5,7	8	7,8	1	1	1	1	1	1	1	1	1	0	1	-6,694856	273,251884	309,413315	0
15.01.2021	05:22:26	0	0	4,06752	2,21775	18,8352	-0,667	84,614	0	1010,52	5,7	8	7,8	1	1	1	1	1	1	1	1	1	0	1	-5,919662	273,31625	310,486455	0
15.01.2021	05:22:27	0	0	4,971413	2,07975	12,096	-0,667	84,62	0	1010,58	5,8	8	7,8	1	1	1	1	1	1	1	1	1	0	1	-4,651163	273,177775	311,114215	0
15.01.2021	05:22:28	0	0	3,841547	2,2035	7,1352	-0,669	84,607	0	1010,44	5,8	8	7,8	1	1	1	1	1	1	1	1	1	0	1	-8,386187	273,128054	307,149364	0
15.01.2021	05:22:29	0	0	4,971413	2,20425	10,8216	-0,663	84,629	0	1010,56	5,8	8	7,8	1	1	1	1	1	1	1	1	1	0	1	-8,386187	273,266169	307,788089	0
15.01.2021	05:22:30	0	0	4,971413	2,1075	15,7824	-0,67	84,632	0	1010,56	5,7	8	7,8	1	1	1	1	1	1	1	1	1	0	1	-7,329105	273,15645	308,337688	0
15.01.2021	05:22:31	0	0	2,937653	2,20275	15,408	-0,666	84,626	0	1010,48	5,8	8	7,8	1	1	1	1	1	1	1	1	1	0	1	-7,610994	273,128054	307,924558	0
15.01.2021	05:22:32	0	0	2,71168	2,17425	12,834	-0,664	84,612	0	1010,56	5,7	8	7,8	1	1	1	1	1	1	1	1	1	0	1	-8,597604	273,227625	307,398323	0
15.01.2021	05:22:33	0	0	2,937653	2,076	26,9172	-0,662	84,642	0	1010,6	5,8	8	7,8	1	1	1	1	1	1	1	1	1	0	1	-2,889359	273,299065	313,437188	0
15.01.2021	05:22:34	0	0	5,197387	2,0955	15,3936	-0,662	84,677	0	1010,58	5,8	8	7,8	1	1	1	1	1	1	1	1	1	0	1	-5,778717	273,137988	309,802742	0
15.01.2021	05:22:35	0	0	4,519467	2,187	25,7976	-0,663	84,636	0	1010,6	5,8	8	7,8	1	1	1	1	1	1	1	1	1	0	1	-7,047216	273,210519	308,869584	0
15.01.2021	05:22:36	0	0	4,180507	2,2005	19,1556	-0,667	84,629	0	1010,48	5,8	8	7,8	1	1	1	1	1	1	1	1	1	0	1	-7,540521	273,266169	308,633755	0
15.01.2021	05:22:37	0	0	4,632453	2,223	25,0344	-0,663	84,638	0	1010,44	5,7	8	7,8	1	1	1	1	1	1	1	1	1	0	1	-3,664553	273,190581	312,16004	0
15.01.2021	05:22:38	0	0	4,74544	2,26425	18,4536	-0,665	84,636	0	1010,66	5,9	8	7,8	1	1	1	1	1	1	1	1	1	0	1	-8,45666	273,125216	307,065781	0
15.01.2021	05:22:39	0	0	4,06752	2,22075	27,6696	-0,663	84,635	0	1010,66	5,8	8	7,8	1	1	1	1	1	1	1	1	1	0	1	-5,426357	273,256169	310,70164	0
15.01.2021	05:22:40	0	0	2,598693	2,18625	19,89	-0,656	84,698	0	1010,54	5,7	8	7,8	1	1	1	1	1	1	1	1	1	0	1	-3,664553	273,251884	312,443618	0
15.01.2021	05:22:41	0	0	2,71168	2,1615	17,6976	-0,661	84,648	0	1010,6	5,9	8	7,8	1	1	1	1	1	1	1	1	1	0	1	-6,483439	273,13373	309,078342	0
15.01.2021	05:22:42	0	0	4,06752	2,235	13,9284	-0,658	84,646	0	1010,8	5,9	8	7,8	1	1	1	1	1	1	1	1	1	0	1	-8,738548	273,179197	307,033407	0
15.01.2021	05:22:43	0	0	4,180507	2,382	13,1724	-0,665	84,641	0	1010,54	5,8	8	7,8	1	1	1	1	1	1	1	1	1	0	1	-5,144468	273,297633	311,175452	0
15.01.2021	05:22:44	0	0	3,3896	2,74425	41,4756	-0,658	84,646	0	1010,46	5,8	8	7,8	1	1	1	1	1	1	1	1	1	0	1	-5,84919	273,184888	309,94908	0
15.01.2021	05:22:45	0	0	4,971413	3,10725	28,35	-0,669	84,654	0	1010,52	5,8	8	7,8	1	1	1	1	1	1	1	1	1	0	1	-8,45666	273,289047	307,82351	0
15.01.2021	05:22:46	0	0	4,971413	3,156	43,2864	-0,662	84,654	0	1010,62	5,8	8	7,8	1	1	1	1	1	1	1	1	1	0	1	-5,567301	273,301928	310,772501	0
15.01.2021	05:22:47	0	0	3,615573	2,89875	9,7668	-0,661	84,653	0	1010,48	5,8	8	7,8	1	1	1	1	1	1	1	1	1	0	1	-4,721635	273,254741	311,399752	0
15.01.2021	05:22:48	0	0	3,502587	2,6985	22,086	-0,658	84,655	0	1010,66	5,8	8	7,8	1	1	1	1	1	1	1	1	1	0	1	-5,637773	273,260454	310,510054	0
15.01.2021	05:22:49	0	0	4,971413	2,60025	359,1072	-0,658	84,657	0	1010,56	5,8	8	7,8	1	1	1	1	1	1	1	1	1	0	1	-5,708245	273,142247	309,892898	0
15.01.2021	05:22:50	0	0	2,71168	2,58075	18,0828	-0,661	84,654	0	1010,58	5,9	8	7,8	1	1	1	1	1	1	1	1	1	0	1	-4,439746	273,244746	311,635394	0
15.01.2021	05:22:51	0	0	4,519467	2,5815	11,7108	-0,663	84,665	0	1010,6	5,9	8	7,8	1	1	1	1	1	1	1	1	1	0	1	-3,59408	273,128054	311,941471	0
15.01.2021	05:22:52	0	0	5,310373	2,51775	25,794	-0,664	84,66	0	1010,64	5,8	8	7,8	1	1	1	1	1	1	1	1	1	0	1	-4,721635	273,220495	311,241312	0
15.01.2021	05:22:53	0	0	4,06752	2,643	28,7136	-0,667	84,654	0	1010,36	5,8	8	7,8	1	1	1	1	1	1	1	1	1	0	1	-5,84919	273,309087	310,523763	0
15.01.2021	05:22:54	0	0	3,615573	2,5095	34,7076	-0,666	84,66	0	1010,52	5,8	8	7,8	1	1	1	1	1	1	1	1	1	0	1	-1,832276	273,187734	313,979154	0
15.01.2021	05:22:55	0	0	2,824667	2,34225	26,5212	-0,663	84,652	0	1010,6	5,7	8	7,8	1	1	1	1	1	1	1	1	1	0	1	-2,959831	273,186311	312,845018	0
15.01.2021	05:22:56	0	0	4,519467	2,2665	19,1376	-0,668	84,654	0	1010,48	5,8	8	7,8	1	1	1	1	1	1	1	1	1	0	1	-2,466526	273,313385	313,926324	0
15.01.2021	05:22:57	0	0	4,180507	2,39325	26,514	-0,663	84,663	0	1010,64	5,8	8	7,8	1	1	1	1	1	1	1	1	1	0	1	-8,668076	273,220495	307,294871	0
15.01.2021	05:22:58	0	0	4,74544	2,40975	18,8532	-0,661	84,664	0	1010,54	5,9	8	7,8	1	1	1	1	1	1	1	1	1	0	1	-0,916138	273,129473	314,62597	0
15.01.2021	05:22:59	0	0	2,824667	2,27025	19,1484	-0,667	84,655	0	1010,6	5,8	8	7,8	1	1	1	1	1	1	1	1	1	0	1	-5,567301	273,162134	310,125768	0
15.01.2021	05:23:00	0	0	2,71168	2,1345	21,024	-0,662	84,66	0	1010,62	5,7	7,8	7,8	1	1	1	1	1	1	1	1	1	0	1	-0,845666	273,130891	314,702999	0
15.01.2021	05:23:01	0	0	5,310373	2,30325	24,3468	-0,659	84,662	0	1010,5	5,8	8	7,8	1	1	1	1	1	1	1	1	1	0	1	-0,845666	273,130891	314,702999	0
15.01.2021	05:23:02	0	0	5,310373	2,30325	24,3468	-0,659	84,662	0	1010,5	5,8	8	7,8	1	1	1	1	1	1	1	1	1	0	1	-5,708245	273,261883	310,446193	0
15.01.2021	05:23:03	0	0	2,598693	2,34675	28,3428	-0,663	84,68	0	1010,58	5,7	8	7,8	1	1	1	1	1	1	1	1	1	0	1	-3,875969	273,249029	312,218988	0
15.01.2021	05:23:04	0	0	2,71168	2,29875	21,0096	-0,667	84,663	0	1010,46	5,9	8	7,8	1	1	1	1	1	1	1	1	1	0	1	-2,043693	273,314817	314,35579	0
15.01.2021	05:23:05	0	0	3,615573	2,38125	30,8016	-0,644	84,661	0	1010,58	5,8	8	7,8	1	1	1	1	1	1	1	1	1	0	1	-3,382664	273,300496	312,95051	0
15.01.2021	05:23:06	0	0	2,598693	2,382	31,392	-0,666	84,676	0	1010,6	5,9	8	7,8	1	1	1	1	1	1	1	1	1	0	1	-7,047216	273,15645	308,619576	0
15.01.2021	05:23:07	0	0	3,05064	2,47275	25,0416	-0,662	84,675	0	1010,56	5,8	8	7,8	1	1	1	1	1	1	1	1	1	0	1	-5,496829	273,164977	310,209382	0
15.01.2021	05:23:08	0	0	4,74544	2,52075	28,3356	-0,664	84,667	0	1010,64	5,8	8	7,8	1	1	1	1	1	1	1	1	1	0	1	-0	273,299065	316,326546	0
15.01.2021	05:23:09	0	0	4,74544	2,79975	32,5044	-0,664	84,674	0	1010,58	5,8	8	7,8	1	1	1	1	1	1	1	1	1	0	1	-5,144468	273,170664	310,588033	0
15.01.2021	05:23:10	0	0	4,971413	2,7705	21,3768	-0,66	84,682	0	1010,62	5,8	8	7,8	1	1	1	1	1	1	1	1	1	0	1	-5,073996	273,303359	311,272435	0
15.01.2021	05:23:11	0	0	3,276613	2,57625	22,8456	-0,662	84,677	0	1010,56	5,8	8	7,8	1	1	1	1	1	1	1	1	1	0	1	-7,540521	273,193428	308,297237	0
15.01.2021	05:23:12	0	0	2,937653	2,37075	28,3572	-0,661	84,69	0	1010,5	5,7	8	7,8	1	1	1	1	1	1	1	1	1	0	1	-4,933051	273,303359	311,41338	0
15.01.2021	05:23:13	0	0	3,954533	2,328	20,2788	-0,657	84,679	0	1010,5	5,8	8	7,8	1	1	1	1	1	1	1	1	1	0	1	-6,272023	273,277605	309,955182	0
15.01.2021	05:23:14	0	0	4,40648	2,3625	21,7692	-0,663	84,664	0	1010,62	5,8	8	7,8	1	1	1	1	1	1	1	1	1	0	1	-4,510218	273,146506	311,110613	0
15.01.2021	05:23:15	0	0	2,937653	2,32425	15,4152	-0,657	84,686	0	1010,54	5,8	8	7,8	1	1	1	1	1	1	1	1	1	0	1	-3,24172	273,157871	312,431641	0
15.01.2021	05:23:16	0	0	3,615573	2,2815	15,7896	-0,659	84,688	0	1010,74	5,8	8	7,8	1	1	1	1	1	1	1	1	1	0	1	-5,708245	273,147927	309,91915	0
15.01.2021	05:23:17	0	0	2,824667	2,36625	21,7728	-0,658	84,683	0	1010,62	5,8	8	7,8	1	1	1	1	1	1	1	1	1	0	1	-4,087385	273,13231	311,467837	0
15.01.2021	05:23:18	0	0	4,519467	2,41875	11,7	-0,659	84,693	0	1010,62	5,8	8	7,8	1	1	1	1	1	1	1	1	1	0	1	-5,778717	273,207669	310,124903	0
15.01.2021	05:23:19	0	0	3,841547	2,51175	18,5616	-0,664	84,672	0	1010,48	5,8	8	7,8	1	1	1	1	1	1	1	1	1	0	1	-2,114165	273,143666	313,49354	0
15.01.2021	05:23:20	0	0	3,163627	2,658	17,2332	-0,666	84,688	0	1010,56	5,8	8	7,8	1	1	1	1	1	1	1	1	1	0	1	-0,140944	273,153608	315,512714	0
15.01.2021	05:23:21	0	0	2,824667	2,87025	16,0992	-0,665	84,686	0	1010,58	5,8	8	7,8	1	1	1	1	1	1	1	1	1	0	1	-6,8358	273,220495	309,127147	0
15.01.2021	05:23:22	0	0	2,824667	2,81775	22,0896	-0,658	84,687	0	1010,38	5,8	8	7,8	1	1	1	1	1	1	1	1	1	0	1	-10,641297	273,306223	305,718394	0
15.01.2021	05:23:23	0	0	3,615573	2,74125	19,9152	-0,666	84,689	0	1010,7	5,8	8	7,8	1	1	1	1	1	1	1	1	1	0	1	-7,610994	273,217644	308,338766	0
15.01.2021	05:23:24	0	0	3,72856	2,66175	13,914	-0,664	84,693	0	1010,58	5,7	8	7,8	1	1	1	1	1	1	1	1	1	0	1	-9,584214	273,130891	305,964451	0
15.01.2021	05:23:25	0	0	4,40648	2,72625	10,0692	-0,654	84,692	0	1010,58	5,8	8	7,8	1	1	1	1	1	1	1	1	1	0	1	-5,21494	273,289047	311,06523	0
15.01.2021	05:23:26	0	0	3,72856	2,74125	11,718	-0,659	84,678	0	1010,62	5,8	8	7,8	1	1	1	1	1	1	1	1	1	0	1	-5,990134	273,196275	309,860792	0
15.01.2021	05:23:27	0	0	3,3896	2,75025	18,8316	-0,656	84,699	0	1010,48	5,8	8	7,8	1	1	1	1	1	1	1	1	1	0	1	-7,540521	273,139407	308,047498	0
15.01.2021	05:23:28	0	0	3,163627	2,7195	8,6112	-0,659	84,701	0	1010,7	5,8	8	7,8	1	1	1	1	1	1	1	1	1	0	1	-2,959831	273,23333	313,062491	0
15.01.2021	05:23:29	0	0	3,954533	2,81325	39,5532	-0,662	84,7	0	1010,6	5,8	8	7,8	1	1	1	1	1	1	1	1	1	0	1	-6,765328	273,300496	309,567846	0
15.01.2021	05:23:30	0	0	3,276613	2,745	22,0896	-0,663	84,698	0	1010,72	5,7	8	7,8	1	1	1	1	1	1	1	1	1	0	1	-0,916138	273,16782	314,803217	0
15.01.2021	05:23:31	0	0	4,06752	2,58	13,2624	-0,656	84,699	0	1010,68	5,7	8	7,8	1	1	1	1	1	1	1	1	1	0	1	-5,144468	273,240464	310,910861	0
15.01.2021	05:23:32	0	0	3,3896	2,64	14,6412	-0,655	84,711	0	1010,66	5,8	8	7,8	1	1	1	1	1	1	1	1	1	0	1	-2,818887	273,300496	313,514288	0
15.01.2021	05:23:33	0	0	2,37272	3,08025	5,7024	-0,66	84,699	0	1010,5	5,8	8	7,8	1	1	1	1	1	1	1	1	1	0	1	-3,523608	273,283325	312,730074	0
15.01.2021	05:23:34	0	0	4,632453	3,6375	7,2324	-0,637	84,704	0	1010,68	5,8	8	7,8	1	1	1	1	1	1	1	1	1	0	1	-9,44327	273,207669	306,460351	0
15.01.2021	05:23:35	0	0	4,971413	3,846	10,458	-0,664	84,703	0	1010,52	5,8	8	7,8	1	1	1	1	1	1	1	1	1	0	1	-5,003524	273,307655	311,362797	0
15.01.2021	05:23:36	0	0	2,937653	3,7425	6,0732	-0,658	84,715	0	1010,56	5,8	8	7,8	1	1	1	1	1	1	1	1	1	0	1	-4,792107	273,301928	311,547695	0
15.01.2021	05:23:37	0	0	4,971413	3,81	7,8912	-0,658	84,703	0	1010,52	5,7	8	7,8	1	1	1	1	1	1	1	1	1	0	1	-3,312192	273,157871	312,361169	0
15.01.2021	05:23:38	0	0	2,71168	3,7605	7,5204	-0,655	84,724	0	1010,64	5,8	8	7,8	1	1	1	1	1	1	1	1	1	0	1	-3,664553	273,136568	311,910347	0
15.01.2021	05:23:39	0	0	3,163627	3,63225	16,866	-0,659	84,702	0	1010,62	5,8	8	7,8	1	1	1	1	1	1	1	1	1	0	1	-5,990134	273,216219	309,953032	0
15.01.2021	05:23:40	0	0	3,954533	3,61275	0	-0,663	84,7	0	1010,66	5,8	8	7,8	1	1	1	1	1	1	1	1	1	0	1	-4,792107	273,261883	311,362331	0
15.01.2021	05:23:41	0	0	5,0844	3,39525	26,9136	-0,659	84,702	0	1010,62	5,8	8	7,8	1	1	1	1	1	1	1	1	1	0	1	-4,651163	273,146506	310,969669	0
15.01.2021	05:23:42	0	0	4,519467	3,441	29,9448	-0,659	84,707	0	1010,56	5,8	8	7,8	1	1	1	1	1	1	1	1	1	0	1	-4,298802	273,234757	311,73012	0
15.01.2021	05:23:43	0	0	5,0844	3,31425	22,4676	-0,656	84,71	0	1010,62	5,8	8	7,8	1	1	1	1	1	1	1	1	1	0	1	-4,933051	273,139407	310,654968	0
15.01.2021	05:23:44	0	0	3,163627	3,174	17,6832	-0,665	84,705	0	1010,52	5,8	8	7,8	1	1	1	1	1	1	1	1	1	0	1	-5,990134	273,190581	309,834459	0
15.01.2021	05:23:45	0	0	2,824667	3,32175	17,6904	-0,657	84,73	0	1010,64	5,8	8	7,8	1	1	1	1	1	1	1	1	1	0	1	-5,073996	273,145086	310,540272	0
15.01.2021	05:23:46	0	0	4,971413	3,49575	28,3464	-0,652	84,726	0	1010,46	5,8	8	7,8	1	1	1	1	1	1	1	1	1	0	1	-4,439746	273,213369	311,490236	0
15.01.2021	05:23:47	0	0	3,3896	3,50625	19,8972	-0,654	84,724	0	1010,62	5,8	8	7,8	1	1	1	1	1	1	1	1	1	0	1	-2,043693	273,143666	313,564012	0
15.01.2021	05:23:48	0	0	2,71168	3,50925	18,828	-0,658	84,71	0	1010,54	5,8	8	7,8	1	1	1	1	1	1	1	1	1	0	1	-3,100775	273,169242	312,625153	0
15.01.2021	05:23:49	0	0	4,632453	3,44325	24,7356	-0,655	84,735	0	1010,56	5,8	8	7,8	1	1	1	1	1	1	1	1	1	0	1	-4,087385	273,190581	311,737207	0
15.01.2021	05:23:50	0	0	3,615573	3,231	17,6976	-0,651	84,726	0	1010,6	5,8	8	7,8	1	1	1	1	1	1	1	1	1	0	1	-1,479915	273,313385	314,912934	0
15.01.2021	05:23:51	0	0	4,632453	2,991	23,2236	-0,661	84,727	0	1010,56	5,8	8	7,8	1	1	1	1	1	1	1	1	1	0	1	-5,708245	273,236183	310,327278	0
15.01.2021	05:23:52	0	0	4,293493	2,979	18,9396	-0,653	84,718	0	1010,42	5,8	8	7,8	1	1	1	1	1	1	1	1	1	0	1	-6,060606	273,291909	310,232811	0
15.01.2021	05:23:53	0	0	4,74544	3,16425	30,3264	-0,653	84,719	0	1010,48	5,8	8	7,8	1	1	1	1	1	1	1	1	1	0	1	-2,959831	273,270457	313,234289	0
15.01.2021	05:23:54	0	0	3,502587	3,33375	24,7212	-0,654	84,72	0	1010,52	5,8	8	7,8	1	1	1	1	1	1	1	1	1	0	1	-2,748414	273,18062	313,030118	0
15.01.2021	05:23:55	0	0	3,276613	3,34575	35,4924	-0,66	84,733	0	1010,54	5,8	8	7,8	1	1	1	1	1	1	1	1	1	0	1	-7,399577	273,130891	308,149088	0
15.01.2021	05:23:56	0	0	2,824667	3,219	23,5692	-0,655	84,733	0	1010,6	5,8	8	7,8	1	1	1	1	1	1	1	1	1	0	1	-4,510218	273,189157	311,307793	0
15.01.2021	05:23:57	0	0	2,824667	3,18375	16,8516	-0,663	84,736	0	1010,42	5,8	8	7,8	1	1	1	1	1	1	1	1	1	0	1	-7,399577	273,317683	309,013175	0
15.01.2021	05:23:58	0	0	4,971413	3,09	6,8148	-0,665	84,734	0	1010,4	5,8	8	7,8	1	1	1	1	1	1	1	1	1	0	1	-10,077519	273,217644	305,87224	0
15.01.2021	05:23:59	0	0	4,74544	2,98275	23,9688	-0,654	84,734	0	1010,62	5,8	8	7,8	1	1	1	1	1	1	1	1	1	0	1	-4,157858	273,311952	312,228359	0
15.01.2021	05:24:00	0	0	3,615573	3,4815	25,4376	-0,654	84,724	0	1010,54	5,8	8	7,8	1	1	1	1	1	1	1	1	1	0	1	-8,315715	273,31625	308,090402	0
15.01.2021	05:24:01	0	0	3,615573	3,4815	25,4376	-0,654	84,724	0	1010,54	5,8	8	7,8	1	1	1	1	1	1	1	1	1	0	1	-8,315715	273,31625	308,090402	0
15.01.2021	05:24:02	0	0	3,163627	3,57825	31,77	-0,648	84,743	0	1010,64	5,8	8	7,8	1	1	1	1	1	1	1	1	1	0	1	-2,325581	273,128054	313,20997	0
15.01.2021	05:24:03	0	0	4,06752	3,231	31,014	-0,654	84,738	0	1010,54	5,8	8	7,8	1	1	1	1	1	1	1	1	1	0	1	-4,651163	273,214794	311,285411	0
15.01.2021	05:24:04	0	0	4,74544	2,9625	24,732	-0,652	84,745	0	1010,42	5,8	8	7,8	1	1	1	1	1	1	1	1	1	0	1	-2,959831	273,313385	313,433019	0
15.01.2021	05:24:05	0	0	5,0844	2,934	27,2664	-0,659	84,715	0	1010,52	5,9	8	7,8	1	1	1	1	1	1	1	1	1	0	1	-5,355884	273,250457	310,745679	0
15.01.2021	05:24:06	0	0	5,0844	2,91975	23,2128	-0,653	84,743	0	1010,58	5,8	8	7,8	1	1	1	1	1	1	1	1	1	0	1	-2,184637	273,307655	314,181684	0
15.01.2021	05:24:07	0	0	3,05064	3,02025	27,9864	-0,663	84,745	0	1010,52	5,8	8	7,8	1	1	1	1	1	1	1	1	1	0	1	-6,272023	273,260454	309,875805	0
15.01.2021	05:24:08	0	0	3,954533	3,1065	19,1664	-0,658	84,755	0	1010,54	5,8	8	7,8	1	1	1	1	1	1	1	1	1	0	1	-8,668076	273,31052	307,711508	0
15.01.2021	05:24:09	0	0	3,163627	3,06075	17,7048	-0,655	84,749	0	1010,52	5,8	8	7,8	1	1	1	1	1	1	1	1	1	0	1	-5,144468	273,15645	310,522325	0
15.01.2021	05:24:10	0	0	3,502587	3,03675	21,7728	-0,658	84,738	0	1010,52	5,8	8	7,8	1	1	1	1	1	1	1	1	1	0	1	-9,020437	273,223347	306,955701	0
15.01.2021	05:24:11	0	0	2,71168	3,18375	16,5564	-0,649	84,751	0	1010,38	5,8	8	7,8	1	1	1	1	1	1	1	1	1	0	1	-4,651163	273,145086	310,963105	0
15.01.2021	05:24:12	0	0	5,649333	3,32175	17,6976	-0,651	84,744	0	1010,66	5,8	8	7,8	1	1	1	1	1	1	1	1	1	0	1	-4,016913	273,26474	312,15075	0
15.01.2021	05:24:13	0	0	3,276613	3,42975	15,408	-0,656	84,759	0	1010,42	5,8	8	7,8	1	1	1	1	1	1	1	1	1	0	1	-2,466526	273,297633	313,853394	0
15.01.2021	05:24:14	0	0	4,40648	3,4605	18,072	-0,652	84,759	0	1010,58	5,8	8	7,8	1	1	1	1	1	1	1	1	1	0	1	-4,157858	273,309087	312,215095	0
15.01.2021	05:24:15	0	0	4,74544	3,3285	18,9756	-0,655	84,754	0	1010,58	5,8	8	7,8	1	1	1	1	1	1	1	1	1	0	1	-4,157858	273,196275	311,693068	0
15.01.2021	05:24:16	0	0	3,3896	3,1755	18,8244	-0,652	84,752	0	1010,5	5,8	8	7,8	1	1	1	1	1	1	1	1	1	0	1	-5,003524	273,157871	310,669837	0
15.01.2021	05:24:17	0	0	2,824667	2,95875	6,8292	-0,655	84,764	0	1010,48	5,8	8	7,8	1	1	1	1	1	1	1	1	1	0	1	-4,369274	273,125216	311,153166	0
15.01.2021	05:24:18	0	0	3,841547	3,04275	13,9284	-0,651	84,736	0	1010,58	5,8	8	7,8	1	1	1	1	1	1	1	1	1	0	1	-4,298802	273,239037	311,749924	0
15.01.2021	05:24:19	0	0	3,954533	3,02025	17,8308	-0,662	84,756	0	1010,54	5,8	8	7,8	1	1	1	1	1	1	1	1	1	0	1	-7,751938	273,299065	308,574608	0
15.01.2021	05:24:20	0	0	2,485707	2,94975	19,548	-0,648	84,766	0	1010,78	5,8	8	7,8	1	1	1	1	1	1	1	1	1	0	1	-4,439746	273,263311	311,721304	0
15.01.2021	05:24:21	0	0	4,519467	2,93025	16,1064	-0,649	84,765	0	1010,6	5,8	8	7,8	1	1	1	1	1	1	1	1	1	0	1	-3,59408	273,31625	312,812037	0
15.01.2021	05:24:22	0	0	5,0844	2,85675	21,3804	-0,657	84,749	0	1010,52	5,8	8	7,8	1	1	1	1	1	1	1	1	1	0	1	-4,298802	273,211944	311,624589	0
15.01.2021	05:24:23	0	0	4,858427	2,763	9,3636	-0,658	84,746	0	1010,58	5,8	7,9	7,8	1	1	1	1	1	1	1	1	1	0	1	-3,453136	273,321982	312,979524	0
15.01.2021	05:24:24	0	0	5,649333	2,811	24,7176	-0,65	84,738	0	1010,48	5,8	8	7,8	1	1	1	1	1	1	1	1	1	0	1	-7,751938	273,226199	308,237392	0
15.01.2021	05:24:25	0	0	3,841547	2,6775	7,8804	-0,653	84,757	0	1010,72	5,8	8	7,8	1	1	1	1	1	1	1	1	1	0	1	-5,919662	273,163555	309,779978	0
15.01.2021	05:24:26	0	0	4,632453	2,7165	25,0272	-0,653	84,754	0	1010,48	5,8	8	7,8	1	1	1	1	1	1	1	1	1	0	1	-6,060606	273,31625	310,345511	0
15.01.2021	05:24:27	0	0	3,502587	2,72325	19,1628	-0,655	84,749	0	1010,44	5,8	8	7,8	1	1	1	1	1	1	1	1	1	0	1	-2,114165	273,200547	313,756517	0
15.01.2021	05:24:28	0	0	4,40648	2,7585	22,824	-0,656	84,758	0	1010,4	5,8	8	7,8	1	1	1	1	1	1	1	1	1	0	1	-1,973221	273,182042	313,81189	0
15.01.2021	05:24:29	0	0	3,502587	2,8545	27,9648	-0,65	84,747	0	1010,42	5,8	8	7,8	1	1	1	1	1	1	1	1	1	0	1	-4,298802	273,31625	312,107315	0
15.01.2021	05:24:30	0	0	5,310373	2,87625	24,3324	-0,659	84,766	0	1010,52	5,8	8	7,8	1	1	1	1	1	1	1	1	1	0	1	-5,84919	273,211944	310,074201	0
15.01.2021	05:24:31	0	0	2,937653	2,748	12,8592	-0,649	84,761	0	1010,72	5,8	8	7,8	1	1	1	1	1	1	1	1	1	0	1	-8,104299	273,321982	308,328361	0
15.01.2021	05:24:32	0	0	3,276613	2,685	18,8496	-0,652	84,764	0	1010,6	5,8	8	7,8	1	1	1	1	1	1	1	1	1	0	1	-5,21494	273,221921	310,754602	0
15.01.2021	05:24:33	0	0	3,163627	2,71725	16,4844	-0,653	84,773	0	1010,62	5,8	8	7,8	1	1	1	1	1	1	1	1	1	0	1	-5,708245	273,307655	310,658076	0
15.01.2021	05:24:34	0	0	3,615573	2,92425	22,4676	-0,657	84,754	0	1010,5	5,8	8	7,8	1	1	1	1	1	1	1	1	1	0	1	-6,765328	273,16782	308,954027	0
15.01.2021	05:24:35	0	0	4,632453	3,123	31,392	-0,651	84,775	0	1010,7	5,8	7,9	7,8	1	1	1	1	1	1	1	1	1	0	1	-8,245243	273,269027	307,942262	0
15.01.2021	05:24:36	0	0	4,293493	3,14775	17,6832	-0,65	84,767	0	1010,54	5,8	8	7,8	1	1	1	1	1	1	1	1	1	0	1	-0,916138	273,157871	314,757223	0
15.01.2021	05:24:37	0	0	3,05064	3,0975	25,7796	-0,657	84,771	0	1010,5	5,8	8	7,8	1	1	1	1	1	1	1	1	1	0	1	-5,990134	273,179197	309,781821	0
15.01.2021	05:24:38	0	0	3,72856	3,1755	19,1376	-0,654	84,766	0	1010,48	5,8	8	7,8	1	1	1	1	1	1	1	1	1	0	1	-5,355884	273,143666	310,251821	0
15.01.2021	05:24:39	0	0	3,954533	2,98425	27,288	-0,654	84,767	0	1010,62	5,8	8	7,8	1	1	1	1	1	1	1	1	1	0	1	-9,936575	273,200547	305,934107	0
15.01.2021	05:24:40	0	0	3,3896	2,86125	8,7084	-0,652	84,769	0	1010,34	5,8	8	7,8	1	1	1	1	1	1	1	1	1	0	1	-4,087385	273,31625	312,318732	0
15.01.2021	05:24:41	0	0	3,841547	2,6355	10,8144	-0,657	84,762	0	1010,54	5,8	8	7,8	1	1	1	1	1	1	1	1	1	0	1	-6,8358	273,267598	309,345091	0
15.01.2021	05:24:42	0	0	4,632453	2,48175	10,4472	-0,656	84,772	0	1010,7	5,8	8	7,8	1	1	1	1	1	1	1	1	1	0	1	-5,637773	273,31052	310,741811	0
15.01.2021	05:24:43	0	0	4,40648	2,4225	11,7216	-0,656	84,756	0	1010,56	5,8	8	7,8	1	1	1	1	1	1	1	1	1	0	1	-5,355884	273,210519	310,560916	0
15.01.2021	05:24:44	0	0	4,632453	2,58975	10,8108	-0,65	84,778	0	1010,54	5,8	8	7,8	1	1	1	1	1	1	1	1	1	0	1	-2,184637	273,319116	314,23475	0
15.01.2021	05:24:45	0	0	3,72856	2,799	6,804	-0,656	84,76	0	1010,64	5,8	8	7,8	1	1	1	1	1	1	1	1	1	0	1	-7,117689	273,279035	309,116134	0
15.01.2021	05:24:46	0	0	4,06752	2,80875	12,492	-0,657	84,772	0	1010,52	5,8	8	7,8	1	1	1	1	1	1	1	1	1	0	1	-3,664553	273,254741	312,456835	0
15.01.2021	05:24:47	0	0	3,841547	2,6205	26,1684	-0,65	84,755	0	1010,58	5,8	8	7,8	1	1	1	1	1	1	1	1	1	0	1	-6,412967	273,313385	309,979883	0
15.01.2021	05:24:48	0	0	4,632453	2,35875	13,1616	-0,652	84,763	0	1010,72	5,8	8	7,8	1	1	1	1	1	1	1	1	1	0	1	-5,144468	273,231904	310,871255	0
15.01.2021	05:24:49	0	0	4,519467	2,1405	22,4712	-0,647	84,769	0	1010,54	5,8	8	7,8	1	1	1	1	1	1	1	1	1	0	1	-7,117689	273,311952	309,268528	0
15.01.2021	05:24:50	0	0	3,954533	2,145	15,4116	-0,647	84,79	0	1010,62	5,8	8	7,8	1	1	1	1	1	1	1	1	1	0	1	-7,188161	273,307655	309,17816	0
15.01.2021	05:24:51	0	0	3,05064	2,4435	26,892	-0,652	84,773	0	1010,62	5,8	8	7,8	1	1	1	1	1	1	1	1	1	0	1	-6,765328	273,261883	309,389111	0
15.01.2021	05:24:52	0	0	3,05064	2,6145	22,086	-0,656	84,777	0	1010,52	5,8	8	7,8	1	1	1	1	1	1	1	1	1	0	1	-10,42988	273,139407	305,15814	0
15.01.2021	05:24:53	0	0	3,615573	2,5935	15,8004	-0,649	84,789	0	1010,72	5,8	8	7,8	1	1	1	1	1	1	1	1	1	0	1	-2,818887	273,261883	313,335552	0
15.01.2021	05:24:54	0	0	3,050622	2,595	20,6424	-0,651	84,771	0	1010,62	5,8	8	7,9	1	1	1	1	1	1	1	1	1	0	1	-8,879493	273,31625	307,526625	0
15.01.2021	05:24:55	0	0	2,598693	2,51625	13,1724	-0,648	84,775	0	1010,54	5,8	8	7,8	1	1	1	1	1	1	1	1	1	0	1	-3,59408	273,243319	312,474455	0
15.01.2021	05:24:56	0	0	2,598693	2,60325	46,6236	-0,65	84,79	0	1010,54	5,8	8	7,8	1	1	1	1	1	1	1	1	1	0	1	-7,117689	273,169242	308,608239	0
15.01.2021	05:24:57	0	0	2,598693	2,4825	16,8588	-0,648	84,801	0	1010,6	5,8	8	7,8	1	1	1	1	1	1	1	1	1	0	1	-6,412967	273,319116	310,006421	0
15.01.2021	05:24:58	0	0	4,74544	2,43075	20,6388	-0,65	84,79	0	1010,56	5,8	8	7,8	1	1	1	1	1	1	1	1	1	0	1	-5,567301	273,271886	310,633435	0
15.01.2021	05:24:59	0	0	4,74544	2,181	23,9904	-0,644	84,8	0	1010,56	5,8	8	7,8	1	1	1	1	1	1	1	1	1	0	1	-6,272023	273,143666	309,335683	0
15.01.2021	05:25:00	0	0	4,632453	2,31825	32,1552	-0,649	84,802	0	1010,6	5,8	7,9	7,8	1	1	1	1	1	1	1	1	1	0	1	-2,325581	273,194851	313,51876	0
15.01.2021	05:25:01	0	0	4,632453	2,31825	32,1552	-0,649	84,802	0	1010,6	5,8	7,9	7,8	1	1	1	1	1	1	1	1	1	0	1	-2,325581	273,194851	313,51876	0
15.01.2021	05:25:02	0	0	4,632453	2,45625	19,9872	-0,646	84,796	0	1010,66	5,8	8	7,8	1	1	1	1	1	1	1	1	1	0	1	-5,355884	273,314817	311,043599	0
15.01.2021	05:25:03	0	0	4,180507	2,63625	20,2824	-0,655	84,796	0	1010,44	5,8	8	7,8	1	1	1	1	1	1	1	1	1	0	1	-6,906272	273,16782	308,813083	0
15.01.2021	05:25:04	0	0	3,72856	2,6985	23,9724	-0,643	84,813	0	1010,58	5,8	8	7,8	1	1	1	1	1	1	1	1	1	0	1	-7,117689	273,162134	308,575381	0
15.01.2021	05:25:05	0	0	3,841547	2,67	19,9116	-0,652	84,802	0	1010,58	5,8	8	7,8	1	1	1	1	1	1	1	1	1	0	1	-6,976744	273,313385	309,416105	0
15.01.2021	05:25:06	0	0	4,519467	2,703	17,244	-0,654	84,808	0	1010,58	5,8	7,9	7,8	1	1	1	1	1	1	1	1	1	0	1	-6,624383	273,194851	309,219958	0
15.01.2021	05:25:07	0	0	3,72856	2,7375	27,2556	-0,649	84,823	0	1010,68	5,8	8	7,8	1	1	1	1	1	1	1	1	1	0	1	-5,567301	273,139407	310,020719	0
15.01.2021	05:25:08	0	0	3,163627	2,86875	18,45	-0,646	84,806	0	1010,56	5,8	7,9	7,8	1	1	1	1	1	1	1	1	1	0	1	-8,033827	273,256169	308,09417	0
15.01.2021	05:25:09	0	0	3,615573	2,75625	26,172	-0,652	84,803	0	1010,62	5,8	8	7,8	1	1	1	1	1	1	1	1	1	0	1	-4,298802	273,313385	312,094047	0
15.01.2021	05:25:10	0	0	2,937653	2,72775	30,7116	-0,649	84,818	0	1010,5	5,8	8	7,8	1	1	1	1	1	1	1	1	1	0	1	-7,751938	273,164977	307,954273	0
15.01.2021	05:25:11	0	0	3,163627	2,73975	37,2996	-0,644	84,813	0	1010,62	5,8	8	7,8	1	1	1	1	1	1	1	1	1	0	1	-6,131078	273,263311	310,029972	0
15.01.2021	05:25:12	0	0	4,858427	2,637	16,8552	-0,652	84,808	0	1010,52	5,8	7,9	7,8	1	1	1	1	1	1	1	1	1	0	1	-11,486963	273,306223	304,872728	0
15.01.2021	05:25:13	0	0	4,406454	2,556	20,628	-0,648	84,816	0	1010,5	5,8	7,9	7,9	1	1	1	1	1	1	1	1	1	0	1	-9,936575	273,261883	306,217863	0
15.01.2021	05:25:14	0	0	4,40648	2,643	23,2164	-0,65	84,816	0	1010,48	5,8	8,1	7,8	1	1	1	1	1	1	1	1	1	0	1	-9,513742	273,140827	306,080839	0
15.01.2021	05:25:15	0	0	4,293493	3,111	6,0516	-0,648	84,807	0	1010,56	5,8	8	7,8	1	1	1	1	1	1	1	1	1	0	1	-5,426357	273,15645	310,240436	0
15.01.2021	05:25:16	0	0	2,937653	3,06375	21,4056	-0,646	84,803	0	1010,52	5,8	8	7,8	1	1	1	1	1	1	1	1	1	0	1	-6,483439	273,261883	309,670999	0
15.01.2021	05:25:17	0	0	4,40648	2,9325	5,2884	-0,65	84,817	0	1010,78	5,8	8	7,8	1	1	1	1	1	1	1	1	1	0	1	-3,453136	273,320549	312,972887	0
15.01.2021	05:25:18	0	0	4,06752	2,95125	5,6808	-0,645	84,817	0	1010,36	5,8	7,9	7,8	1	1	1	1	1	1	1	1	1	0	1	-3,382664	273,286186	312,884261	0
15.01.2021	05:25:19	0	0	2,824667	3,17025	17,694	-0,647	84,824	0	1010,38	5,8	8	7,8	1	1	1	1	1	1	1	1	1	0	1	-3,171247	273,286186	313,095678	0
15.01.2021	05:25:20	0	0	2,82465	3,3405	10,836	-0,651	84,82	0	1010,54	5,8	8,1	7,9	1	1	1	1	1	1	1	1	1	0	1	-4,439746	273,326282	312,012827	0
15.01.2021	05:25:21	0	0	3,3896	3,5415	3,0384	-0,65	84,823	0	1010,56	5,8	8	7,8	1	1	1	1	1	1	1	1	1	0	1	-3,171247	273,177775	312,594131	0
15.01.2021	05:25:22	0	0	4,40648	3,4365	359,8452	-0,645	84,826	0	1010,68	5,8	8	7,8	1	1	1	1	1	1	1	1	1	0	1	-2,959831	273,372208	313,705489	0
15.01.2021	05:25:23	0	0	4,858427	3,21375	1,9224	-0,649	84,818	0	1010,52	5,8	8,1	7,8	1	1	1	1	1	1	1	1	1	0	1	-10,218464	273,224773	305,76427	0
15.01.2021	05:25:24	0	0	3,72856	3,03825	5,6844	-0,645	84,799	0	1010,52	5,8	7,9	7,8	1	1	1	1	1	1	1	1	1	0	1	-2,114165	273,209094	313,796045	0
15.01.2021	05:25:25	0	0	4,74544	2,6925	17,2296	-0,643	84,826	0	1010,48	5,8	7,9	7,8	1	1	1	1	1	1	1	1	1	0	1	-1,268499	273,311952	315,117718	0
15.01.2021	05:25:26	0	0	2,485707	2,55	10,8216	-0,644	84,818	0	1010,56	5,8	7,9	7,8	1	1	1	1	1	1	1	1	1	0	1	-5,426357	273,160713	310,260142	0
15.01.2021	05:25:27	0	0	2,485707	2,53875	22,4784	-0,646	84,815	0	1010,64	5,8	8	7,8	1	1	1	1	1	1	1	1	1	0	1	-2,184637	273,143666	313,423068	0
15.01.2021	05:25:28	0	0	4,971413	2,2875	22,8636	-0,648	84,823	0	1010,58	5,8	7,9	7,8	1	1	1	1	1	1	1	1	1	0	1	-4,721635	273,304791	311,631426	0
15.01.2021	05:25:29	0	0	4,632453	2,271	353,9808	-0,649	84,822	0	1010,42	5,8	7,9	7,8	1	1	1	1	1	1	1	1	1	0	1	-3,735025	273,286186	312,5319	0
15.01.2021	05:25:30	0	0	5,0844	2,2995	28,3464	-0,644	84,838	0	1010,72	5,8	8	7,8	1	1	1	1	1	1	1	1	1	0	1	-0	273,334885	316,492416	0
15.01.2021	05:25:31	0	0	5,310373	2,20725	20,628	-0,648	84,823	0	1010,52	5,8	8,1	7,8	1	1	1	1	1	1	1	1	1	0	1	-5,355884	273,244746	310,719256	0
15.01.2021	05:25:32	0	0	5,0844	2,19975	25,0704	-0,648	84,836	0	1010,56	5,8	8	7,8	1	1	1	1	1	1	1	1	1	0	1	-2,114165	273,314817	314,285318	0
15.01.2021	05:25:33	0	0	3,841547	2,4045	40,2336	-0,647	84,826	0	1010,6	5,8	7,9	7,8	1	1	1	1	1	1	1	1	1	0	1	-4,580691	273,281895	311,666371	0
15.01.2021	05:25:34	0	0	4,632453	2,724	21,7656	-0,646	84,829	0	1010,66	5,8	8,1	7,8	1	1	1	1	1	1	1	1	1	0	1	-4,016913	273,160713	311,669586	0
15.01.2021	05:25:35	0	0	4,74544	2,88375	10,5372	-0,645	84,827	0	1010,66	5,8	7,9	7,8	1	1	1	1	1	1	1	1	1	0	1	-4,22833	273,142247	311,372813	0
15.01.2021	05:25:36	0	0	4,858427	3,09375	12,8592	-0,648	84,833	0	1010,5	5,8	7,9	7,8	1	1	1	1	1	1	1	1	1	0	1	-2,396054	273,229051	313,606472	0
15.01.2021	05:25:37	0	0	3,3896	3,327	12,8628	-0,641	84,829	0	1010,56	5,8	7,9	7,8	1	1	1	1	1	1	1	1	1	0	1	-1,268499	273,216219	314,674667	0
15.01.2021	05:25:38	0	0	2,824667	3,31275	12,1104	-0,643	84,829	0	1010,52	5,8	7,9	7,8	1	1	1	1	1	1	1	1	1	0	1	-0	273,143666	315,607705	0
15.01.2021	05:25:39	0	0	4,858427	3,267	7,128	-0,64	84,841	0	1010,58	5,8	8	7,8	1	1	1	1	1	1	1	1	1	0	1	-4,721635	273,257597	311,412971	0
15.01.2021	05:25:40	0	0	4,632426	3,303	2,2968	-0,646	84,835	0	1010,52	5,8	7,9	7,9	1	1	1	1	1	1	1	1	1	0	1	-3,453136	273,319116	312,966251	0
15.01.2021	05:25:41	0	0	3,95451	3,34275	357,9948	-0,643	84,844	0	1010,56	5,8	7,9	7,9	1	1	1	1	1	1	1	1	1	0	1	-5,144468	273,301928	311,195334	0
15.01.2021	05:25:42	0	0	2,485692	3,16275	351,234	-0,642	84,835	0	1010,44	5,8	8	7,9	1	1	1	1	1	1	1	1	1	0	1	-1,761804	273,263311	314,399247	0
15.01.2021	05:25:43	0	0	2,937653	3,0105	10,8324	-0,643	84,846	0	1010,56	5,8	8	7,8	1	1	1	1	1	1	1	1	1	0	1	-4,157858	273,320549	312,268166	0
15.01.2021	05:25:44	0	0	4,74544	2,7585	9,7416	-0,649	84,834	0	1010,54	5,8	8	7,8	1	1	1	1	1	1	1	1	1	0	1	-1,198027	273,240464	314,857302	0
15.01.2021	05:25:45	0	0	4,40648	2,78775	9,3636	-0,645	84,838	0	1010,56	5,8	7,9	7,8	1	1	1	1	1	1	1	1	1	0	1	-1,62086	273,15645	314,045933	0
15.01.2021	05:25:46	0	0	3,05064	2,74275	18,072	-0,646	84,852	0	1010,52	5,8	7,9	7,8	1	1	1	1	1	1	1	1	1	0	1	-6,553911	273,330583	309,918581	0
15.01.2021	05:25:47	0	0	4,06752	3,012	27,9612	-0,647	84,845	0	1010,56	5,8	8	7,8	1	1	1	1	1	1	1	1	1	0	1	-3,875969	273,306223	312,483721	0
15.01.2021	05:25:48	0	0	2,824667	3,096	29,9484	-0,645	84,846	0	1010,46	5,8	8,1	7,8	1	1	1	1	1	1	1	1	1	0	1	-3,100775	273,189157	312,717236	0
15.01.2021	05:25:49	0	0	3,05064	3,12375	25,4304	-0,64	84,846	0	1010,6	5,8	8	7,8	1	1	1	1	1	1	1	1	1	0	1	-0	273,159292	315,67993	0
15.01.2021	05:25:50	0	0	3,841524	2,8935	13,5432	-0,645	84,859	0	1010,5	5,8	7,9	7,9	1	1	1	1	1	1	1	1	1	0	1	-1,973221	273,23761	314,068904	0
15.01.2021	05:25:51	0	0	3,05064	2,8095	2,6568	-0,647	84,853	0	1010,44	5,8	7,9	7,8	1	1	1	1	1	1	1	1	1	0	1	-0,98661	273,135149	314,58173	0
15.01.2021	05:25:52	0	0	3,05064	3,12375	354,7368	-0,645	84,853	0	1010,48	5,8	8	7,8	1	1	1	1	1	1	1	1	1	0	1	-5,708245	273,17493	310,04398	0
15.01.2021	05:25:53	0	0	4,180507	3,177	2,6424	-0,649	84,865	0	1010,54	5,8	7,9	7,8	1	1	1	1	1	1	1	1	1	0	1	-3,171247	273,214794	312,765327	0
15.01.2021	05:25:54	0	0	2,824667	2,95425	356,2524	-0,641	84,871	0	1010,6	5,8	7,9	7,8	1	1	1	1	1	1	1	1	1	0	1	-2,184637	273,319116	314,23475	0
15.01.2021	05:25:55	0	0	4,06752	2,85525	14,292	-0,644	84,857	0	1010,48	5,8	8	7,8	1	1	1	1	1	1	1	1	1	0	1	-2,677942	273,176352	313,080859	0
15.01.2021	05:25:56	0	0	3,276594	2,57625	2,6604	-0,645	84,855	0	1010,68	5,8	8	7,9	1	1	1	1	1	1	1	1	1	0	1	-1,691332	273,20482	314,199111	0
15.01.2021	05:25:57	0	0	3,163627	2,3355	29,934	-0,643	84,863	0	1010,54	5,8	8	7,8	1	1	1	1	1	1	1	1	1	0	1	-0,775194	273,164977	314,931017	0
15.01.2021	05:25:58	0	0	3,841547	2,37975	30,3228	-0,638	84,878	0	1010,56	5,8	8	7,8	1	1	1	1	1	1	1	1	1	0	1	-5,778717	273,276175	310,441869	0
15.01.2021	05:25:59	0	0	3,72856	2,4885	35,8632	-0,642	84,867	0	1010,66	5,8	8	7,8	1	1	1	1	1	1	1	1	1	0	1	-6,412967	273,327715	310,046245	0
15.01.2021	05:26:00	0	0	4,632453	2,613	21,402	-0,647	84,873	0	1010,46	5,8	7,9	7,8	1	1	1	1	1	1	1	1	1	0	1	-8,879493	273,332016	307,59964	0
15.01.2021	05:26:01	0	0	4,632453	2,613	21,402	-0,647	84,873	0	1010,46	5,8	7,9	7,8	1	1	1	1	1	1	1	1	1	0	1	-8,879493	273,332016	307,59964	0
15.01.2021	05:26:02	0	0	5,084369	2,838	12,852	-0,644	84,865	0	1010,62	5,8	7,9	7,9	1	1	1	1	1	1	1	1	1	0	1	-7,470049	273,303359	308,876382	0
15.01.2021	05:26:03	0	0	2,71168	3,25725	17,2512	-0,64	84,856	0	1010,56	5,8	7,9	7,8	1	1	1	1	1	1	1	1	1	0	1	-6,060606	273,182042	309,724505	0
15.01.2021	05:26:04	0	0	4,180507	3,597	15,0372	-0,646	84,866	0	1010,62	5,8	7,9	7,8	1	1	1	1	1	1	1	1	1	0	1	-8,386187	273,300496	307,946987	0
15.01.2021	05:26:05	0	0	3,841547	3,60075	21,4668	-0,643	84,861	0	1010,66	5,8	7,9	7,8	1	1	1	1	1	1	1	1	1	0	1	-0,98661	273,21907	314,969743	0
15.01.2021	05:26:06	0	0	4,180482	3,63375	25,7976	-0,637	84,878	0	1010,66	5,8	7,9	7,9	1	1	1	1	1	1	1	1	1	0	1	-2,536998	273,149347	313,096962	0
15.01.2021	05:26:07	0	0	3,502587	3,40425	12,4704	-0,638	84,853	0	1010,7	5,8	8,1	7,8	1	1	1	1	1	1	1	1	1	0	1	-6,20155	273,213369	309,728432	0
15.01.2021	05:26:08	0	0	3,954533	3,273	29,5668	-0,643	84,868	0	1010,56	5,8	7,9	7,8	1	1	1	1	1	1	1	1	1	0	1	-7,610994	273,153608	308,042664	0
15.01.2021	05:26:09	0	0	4,293468	3,29625	15,8544	-0,642	84,876	0	1010,46	5,8	7,9	7,9	1	1	1	1	1	1	1	1	1	0	1	-4,933051	273,307655	311,43327	0
15.01.2021	05:26:10	0	0	2,824667	3,522	9,7452	-0,642	84,877	0	1010,68	5,8	8	7,8	1	1	1	1	1	1	1	1	1	0	1	-6,131078	273,271886	310,069657	0
15.01.2021	05:26:11	0	0	3,276613	3,46275	3,024	-0,637	84,882	0	1010,62	5,8	8	7,8	1	1	1	1	1	1	1	1	1	0	1	-2,043693	273,024763	313,014818	0
15.01.2021	05:26:12	0	0	2,485707	3,1695	29,916	-0,64	84,878	0	1010,62	5,8	8	7,8	1	1	1	1	1	1	1	1	1	0	1	-7,329105	273,243319	308,739431	0
15.01.2021	05:26:13	0	0	3,3896	3,00225	16,4736	-0,64	84,873	0	1010,58	5,8	8	7,8	1	1	1	1	1	1	1	1	1	0	1	-10,147992	273,15645	305,518801	0
15.01.2021	05:26:14	0	0	3,841524	3,0135	14,3028	-0,639	84,879	0	1010,6	5,8	7,9	7,9	1	1	1	1	1	1	1	1	1	0	1	-3,805497	273,286186	312,461428	0
15.01.2021	05:26:15	0	0	4,971384	2,8995	32,5116	-0,643	84,871	0	1010,56	5,8	7,9	7,9	1	1	1	1	1	1	1	1	1	0	1	-2,748414	273,196275	313,102511	0
15.01.2021	05:26:16	0	0	4,632453	2,84175	18,8388	-0,636	84,891	0	1010,62	5,8	8,1	7,8	1	1	1	1	1	1	1	1	1	0	1	-5,285412	273,342057	311,240223	0
15.01.2021	05:26:17	0	0	3,841524	2,81625	17,6904	-0,642	84,879	0	1010,7	5,8	8	7,9	1	1	1	1	1	1	1	1	1	0	1	-7,470049	273,177775	308,295329	0
15.01.2021	05:26:18	0	0	4,406454	2,93475	17,2512	-0,643	84,885	0	1010,56	5,8	7,9	7,9	1	1	1	1	1	1	1	1	1	0	1	-4,862579	273,257597	311,272027	0
15.01.2021	05:26:19	0	0	2,485707	2,9745	11,718	-0,642	84,892	0	1010,6	5,8	8	7,8	1	1	1	1	1	1	1	1	1	0	1	-5,84919	273,15645	309,817603	0
15.01.2021	05:26:20	0	0	3,050622	2,94	14,7276	-0,643	84,881	0	1010,36	5,8	8	7,9	1	1	1	1	1	1	1	1	1	0	1	-6,342495	273,246173	309,73925	0
15.01.2021	05:26:21	0	0	2,146747	2,83875	12,8592	-0,647	84,877	0	1010,52	5,8	8	7,8	1	1	1	1	1	1	1	1	1	0	1	-8,668076	273,324848	307,777859	0
15.01.2021	05:26:22	0	0	3,728538	2,98275	10,8108	-0,637	84,873	0	1010,62	5,8	8	7,9	1	1	1	1	1	1	1	1	1	0	1	-8,033827	273,177775	307,731551	0
15.01.2021	05:26:23	0	0	3,728538	3,1905	13,1616	-0,637	84,887	0	1010,58	5,8	7,9	7,9	1	1	1	1	1	1	1	1	1	0	1	-4,22833	273,226199	311,761	0
15.01.2021	05:26:24	0	0	3,615552	3,243	14,2992	-0,642	84,887	0	1010,5	5,8	8	7,9	1	1	1	1	1	1	1	1	1	0	1	-5,84919	273,339187	310,663156	0
15.01.2021	05:26:25	0	0	3,38958	3,21975	14,6628	-0,637	84,89	0	1010,6	5,8	8	7,9	1	1	1	1	1	1	1	1	1	0	1	-0,845666	273,16782	314,873689	0
15.01.2021	05:26:26	0	0	3,615552	3,06525	22,0788	-0,638	84,884	0	1010,6	5,8	8	7,9	1	1	1	1	1	1	1	1	1	0	1	-4,439746	273,276175	311,78084	0
15.01.2021	05:26:27	0	0	4,40648	2,916	13,9248	-0,636	84,886	0	1010,58	5,8	7,9	7,8	1	1	1	1	1	1	1	1	1	0	1	-3,382664	273,314817	313,016819	0
15.01.2021	05:26:28	0	0	3,728538	2,9445	22,0896	-0,638	84,872	0	1010,6	5,8	7,9	7,9	1	1	1	1	1	1	1	1	1	0	1	-5,496829	273,337753	311,008873	0
15.01.2021	05:26:29	0	0	2,824667	2,8845	16,488	-0,634	84,892	0	1010,58	5,8	8	7,8	1	1	1	1	1	1	1	1	1	0	1	-7,610994	273,283325	308,642689	0
15.01.2021	05:26:30	0	0	2,598693	2,89275	22,176	-0,638	84,887	0	1010,58	5,8	8	7,8	1	1	1	1	1	1	1	1	1	0	1	-8,45666	273,327715	308,002553	0
15.01.2021	05:26:31	0	0	3,728538	2,99325	14,3208	-0,64	84,885	0	1010,58	5,8	8	7,9	1	1	1	1	1	1	1	1	1	0	1	-6,553911	273,280465	309,686531	0
15.01.2021	05:26:32	0	0	2,937653	3,21675	6,4512	-0,636	84,892	0	1010,5	5,8	8	7,8	1	1	1	1	1	1	1	1	1	0	1	-3,382664	273,311952	313,003553	0
15.01.2021	05:26:33	0	0	2,824667	3,40275	5,6664	-0,639	84,881	0	1010,64	5,8	8	7,8	1	1	1	1	1	1	1	1	1	0	1	-3,382664	273,306223	312,977027	0
15.01.2021	05:26:34	0	0	4,745412	3,504	10,4508	-0,638	84,878	0	1010,56	5,8	7,9	7,9	1	1	1	1	1	1	1	1	1	0	1	-5,778717	273,23333	310,243605	0
15.01.2021	05:26:35	0	0	5,084369	3,49125	16,8588	-0,635	84,892	0	1010,64	5,8	8	7,9	1	1	1	1	1	1	1	1	1	0	1	-5,355884	273,319116	311,063503	0
15.01.2021	05:26:36	0	0	3,615552	3,387	13,9284	-0,64	84,891	0	1010,54	5,8	7,9	7,9	1	1	1	1	1	1	1	1	1	0	1	-2,818887	273,23333	313,203436	0
15.01.2021	05:26:37	0	0	4,406454	3,27075	16,8588	-0,637	84,889	0	1010,66	5,8	8	7,9	1	1	1	1	1	1	1	1	1	0	1	-4,369274	273,329149	312,096578	0
15.01.2021	05:26:38	0	0	2,711664	3,1065	14,3064	-0,633	84,89	0	1010,44	5,8	8	7,9	1	1	1	1	1	1	1	1	1	0	1	-1,832276	273,166398	313,880506	0
15.01.2021	05:26:39	0	0	3,163627	3,05625	21,7728	-0,634	84,887	0	1010,64	5,8	7,9	7,8	1	1	1	1	1	1	1	1	1	0	1	-3,875969	273,26474	312,291694	0
15.01.2021	05:26:40	0	0	2,82465	2,865	15,7968	-0,639	84,897	0	1010,64	5,8	8	7,9	1	1	1	1	1	1	1	1	1	0	1	-0,493305	273,159292	315,186625	0
15.01.2021	05:26:41	0	0	3,95451	2,49	14,6556	-0,636	84,892	0	1010,68	5,8	8	7,9	1	1	1	1	1	1	1	1	1	0	1	-5,708245	273,291909	310,585172	0
15.01.2021	05:26:42	0	0	3,05064	2,31825	21,0132	-0,638	84,902	0	1010,72	5,8	7,9	7,8	1	1	1	1	1	1	1	1	1	0	1	-8,45666	273,276175	307,763927	0
15.01.2021	05:26:43	0	0	2,598678	2,29725	22,482	-0,638	84,888	0	1010,54	5,8	8	7,9	1	1	1	1	1	1	1	1	1	0	1	-7,82241	273,159292	307,85752	0
15.01.2021	05:26:44	0	0	4,632426	2,379	29,0952	-0,634	84,894	0	1010,54	5,8	8	7,9	1	1	1	1	1	1	1	1	1	0	1	-1,691332	273,283325	314,56235	0
15.01.2021	05:26:45	0	0	2,82465	2,4885	21,1032	-0,638	84,897	0	1010,36	5,8	8	7,9	1	1	1	1	1	1	1	1	1	0	1	-7,188161	273,33345	309,297614	0
15.01.2021	05:26:46	0	0	4,971384	2,52225	9,3564	-0,644	84,885	0	1010,48	5,8	8	7,9	1	1	1	1	1	1	1	1	1	0	1	-2,255109	273,311952	314,131107	0
15.01.2021	05:26:47	0	0	4,632453	2,379	1,1808	-0,637	84,903	0	1010,48	5,8	8	7,8	1	1	1	1	1	1	1	1	1	0	1	-5,355884	273,329149	311,109968	0
15.01.2021	05:26:48	0	0	4,745412	2,28225	21,0024	-0,635	84,899	0	1010,62	5,8	7,9	7,9	1	1	1	1	1	1	1	1	1	0	1	-4,087385	273,339187	312,42496	0
15.01.2021	05:26:49	0	0	3,163608	2,35275	10,44	-0,64	84,895	0	1010,58	5,8	7,9	7,9	1	1	1	1	1	1	1	1	1	0	1	-9,44327	273,239037	306,605456	0
15.01.2021	05:26:50	0	0	3,728538	2,502	11,7144	-0,636	84,901	0	1010,46	5,8	8	7,9	1	1	1	1	1	1	1	1	1	0	1	-3,875969	273,327715	312,583243	0
15.01.2021	05:26:51	0	0	3,841524	2,75325	9,36	-0,633	84,91	0	1010,62	5,8	8	7,9	1	1	1	1	1	1	1	1	1	0	1	-2,396054	273,340622	314,122937	0
15.01.2021	05:26:52	0	0	3,3896	2,8575	25,0308	-0,636	84,898	0	1010,56	5,8	8	7,8	1	1	1	1	1	1	1	1	1	0	1	-5,708245	273,249029	310,386711	0
15.01.2021	05:26:53	0	0	4,293468	2,91375	17,244	-0,637	84,892	0	1010,68	5,8	8	7,9	1	1	1	1	1	1	1	1	1	0	1	-5,84919	273,162134	309,843879	0
15.01.2021	05:26:54	0	0	3,163608	2,87775	24,7212	-0,639	84,89	0	1010,5	5,8	8	7,9	1	1	1	1	1	1	1	1	1	0	1	-5,637773	273,221921	310,331769	0
15.01.2021	05:26:55	0	0	4,067496	2,7975	21,3984	-0,635	84,904	0	1010,56	5,8	8	7,9	1	1	1	1	1	1	1	1	1	0	1	-4,651163	273,343491	311,881118	0
15.01.2021	05:26:56	0	0	3,3896	2,682	33,6312	-0,633	84,915	0	1010,46	5,8	8	7,8	1	1	1	1	1	1	1	1	1	0	1	-4,792107	273,339187	311,720239	0
15.01.2021	05:26:57	0	0	3,163608	2,556	35,0856	-0,639	84,906	0	1010,5	5,8	8	7,9	1	1	1	1	1	1	1	1	1	0	1	-4,933051	273,239037	311,115675	0
15.01.2021	05:26:58	0	0	3,276594	2,5095	39,1644	-0,639	84,92	0	1010,5	5,8	8	7,9	1	1	1	1	1	1	1	1	1	0	1	-1,691332	273,192004	314,139843	0
15.01.2021	05:26:59	0	0	3,050622	2,41425	47,7396	-0,636	84,902	0	1010,5	5,8	8	7,9	1	1	1	1	1	1	1	1	1	0	1	-4,933051	273,187734	310,878378	0
15.01.2021	05:27:00	0	0	3,502566	2,44275	3,78	-0,642	84,91	0	1010,58	5,8	8	7,9	1	1	1	1	1	1	1	1	1	0	1	-4,510218	273,173508	311,235432	0
15.01.2021	05:27:01	0	0	2,598678	2,4315	359,8272	-0,637	84,909	0	1010,6	5,8	8	7,9	1	1	1	1	1	1	1	1	1	0	1	-4,510218	273,173508	311,235432	0
15.01.2021	05:27:02	0	0	2,598678	2,4315	359,8272	-0,637	84,909	0	1010,6	5,8	8	7,9	1	1	1	1	1	1	1	1	1	0	1	-7,963354	273,413924	308,8953	0
15.01.2021	05:27:03	0	0	4,74544	2,4045	7,524	-0,64	84,904	0	1010,52	5,8	7,9	7,8	1	1	1	1	1	1	1	1	1	0	1	-5,990134	273,274745	310,223835	0
15.01.2021	05:27:04	0	0	5,084369	2,29425	25,5024	-0,633	84,899	0	1010,58	5,8	8	7,9	1	1	1	1	1	1	1	1	1	0	1	-0,563777	273,157871	315,109584	0
15.01.2021	05:27:05	0	0	5,084369	2,154	21,366	-0,64	84,9	0	1010,48	5,8	8	7,9	1	1	1	1	1	1	1	1	1	0	1	-5,144468	273,247601	310,943883	0
15.01.2021	05:27:06	0	0	4,51944	2,097	7,5348	-0,642	84,895	0	1010,44	5,8	8	7,9	1	1	1	1	1	1	1	1	1	0	1	-4,933051	273,330583	311,539441	0
15.01.2021	05:27:07	0	0	3,050622	1,905	13,9104	-0,633	84,902	0	1010,64	5,8	8	7,9	1	1	1	1	1	1	1	1	1	0	1	-6,412967	273,343491	310,119314	0
15.01.2021	05:27:08	0	0	4,745412	1,761	31,0212	-0,637	84,913	0	1010,62	5,8	8	7,9	1	1	1	1	1	1	1	1	1	0	1	-5,003524	273,271886	311,197212	0
15.01.2021	05:27:09	0	0	3,050622	1,719	6,0804	-0,632	84,908	0	1010,68	5,9	8	7,9	1	1	1	1	1	1	1	1	1	0	1	-1,62086	273,164977	314,085351	0
15.01.2021	05:27:10	0	0	4,293493	1,83375	16,8444	-0,64	84,893	0	1010,58	5,8	8	7,8	1	1	1	1	1	1	1	1	1	0	1	-6,906272	273,26474	309,261391	0
15.01.2021	05:27:11	0	0	5,084369	2,0175	12,4812	-0,641	84,906	0	1010,6	5,8	8	7,9	1	1	1	1	1	1	1	1	1	0	1	-2,043693	273,337753	314,462009	0
15.01.2021	05:27:12	0	0	2,598693	2,7165	12,8556	-0,637	84,902	0	1010,6	5,8	8	7,8	1	1	1	1	1	1	1	1	1	0	1	-1,832276	273,337753	314,673426	0
15.01.2021	05:27:13	0	0	2,598678	3,48525	22,0896	-0,638	84,906	0	1010,6	5,8	8	7,9	1	1	1	1	1	1	1	1	1	0	1	-9,302326	273,23333	306,719996	0
15.01.2021	05:27:14	0	0	3,276613	3,9405	28,35	-0,634	84,904	0	1010,54	5,8	8	7,8	1	1	1	1	1	1	1	1	1	0	1	-2,60747	273,346361	313,938104	0
15.01.2021	05:27:15	0	0	4,858398	4,01475	21,006	-0,643	84,913	0	1010,54	5,9	8	7,9	1	1	1	1	1	1	1	1	1	0	1	-2,818887	273,196275	313,032039	0
15.01.2021	05:27:16	0	0	3,728538	3,8205	17,2404	-0,637	84,895	0	1010,58	5,8	8	7,9	1	1	1	1	1	1	1	1	1	0	1	-2,325581	273,329149	314,140271	0
15.01.2021	05:27:17	0	0	4,180482	3,66225	20,6352	-0,635	84,911	0	1010,6	5,8	8	7,9	1	1	1	1	1	1	1	1	1	0	1	-3,59408	273,352102	312,978087	0
15.01.2021	05:27:18	0	0	5,310373	3,6165	14,2992	-0,642	84,901	0	1010,56	5,8	8	7,8	1	1	1	1	1	1	1	1	1	0	1	-4,369274	273,253312	311,745504	0
15.01.2021	05:27:19	0	0	2,82465	3,56925	12,4776	-0,633	84,906	0	1010,66	5,8	8	7,9	1	1	1	1	1	1	1	1	1	0	1	-2,114165	273,31625	314,291952	0
15.01.2021	05:27:20	0	0	3,841524	3,58575	18,0864	-0,627	84,919	0	1010,72	5,8	8	7,9	1	1	1	1	1	1	1	1	1	0	1	-0,916138	273,17493	314,836087	0
15.01.2021	05:27:21	0	0	4,745412	3,5295	7,1316	-0,634	84,913	0	1010,56	5,8	8	7,9	1	1	1	1	1	1	1	1	1	0	1	-4,721635	273,173508	311,024015	0
15.01.2021	05:27:22	0	0	4,971413	3,38625	13,5504	-0,631	84,902	0	1010,42	5,9	8	7,8	1	1	1	1	1	1	1	1	1	0	1	-5,990134	273,301928	310,349668	0
15.01.2021	05:27:23	0	0	4,858398	3,2145	36,918	-0,629	84,918	0	1010,46	5,8	8	7,9	1	1	1	1	1	1	1	1	1	0	1	-2,536998	273,319116	313,88239	0
15.01.2021	05:27:24	0	0	4,74544	3,051	19,9044	-0,637	84,908	0	1010,6	5,8	8	7,8	1	1	1	1	1	1	1	1	1	0	1	-8,315715	273,344926	308,223212	0
15.01.2021	05:27:25	0	0	3,050622	3,006	26,622	-0,638	84,899	0	1010,54	5,8	8	7,9	1	1	1	1	1	1	1	1	1	0	1	-4,792107	273,229051	311,210418	0
15.01.2021	05:27:26	0	0	4,293468	2,82825	12,4776	-0,633	84,899	0	1010,58	5,8	8	7,9	1	1	1	1	1	1	1	1	1	0	1	-2,184637	273,342057	314,340998	0
15.01.2021	05:27:27	0	0	4,180482	2,658	29,9592	-0,629	84,912	0	1010,58	5,8	7,9	7,9	1	1	1	1	1	1	1	1	1	0	1	-2,959831	273,213369	312,970151	0
15.01.2021	05:27:28	0	0	4,74544	2,61	23,2236	-0,632	84,92	0	1010,56	5,8	8	7,8	1	1	1	1	1	1	1	1	1	0	1	-4,369274	273,336319	312,129785	0
15.01.2021	05:27:29	0	0	3,615552	2,619	11,2896	-0,635	84,908	0	1010,52	5,9	8	7,9	1	1	1	1	1	1	1	1	1	0	1	-4,862579	273,290478	311,424214	0
15.01.2021	05:27:30	0	0	2,937636	2,613	14,6664	-0,633	84,91	0	1010,48	5,8	8	7,9	1	1	1	1	1	1	1	1	1	0	1	-8,245243	273,17493	307,506982	0
15.01.2021	05:27:31	0	0	3,05064	2,70975	31,7808	-0,631	84,924	0	1010,64	5,8	8	7,8	1	1	1	1	1	1	1	1	1	0	1	-5,285412	273,193428	310,552346	0
15.01.2021	05:27:32	0	0	4,180482	2,7315	15,0264	-0,632	84,927	0	1010,56	5,8	8	7,9	1	1	1	1	1	1	1	1	1	0	1	-7,047216	273,284755	309,213087	0
15.01.2021	05:27:33	0	0	3,841524	2,889	13,9176	-0,631	84,906	0	1010,72	5,8	8	7,9	1	1	1	1	1	1	1	1	1	0	1	-0,634249	273,244746	315,440891	0
15.01.2021	05:27:34	0	0	2,598678	3,03	21,024	-0,63	84,923	0	1010,56	5,9	8	7,9	1	1	1	1	1	1	1	1	1	0	1	-4,510218	273,164977	311,195992	0
15.01.2021	05:27:35	0	0	4,293493	2,97	16,1172	-0,631	84,924	0	1010,58	5,8	8	7,8	1	1	1	1	1	1	1	1	1	0	1	-5,073996	273,323415	311,365301	0
15.01.2021	05:27:36	0	0	3,163608	3,14625	24,0912	-0,63	84,918	0	1010,6	5,8	8	7,9	1	1	1	1	1	1	1	1	1	0	1	-6,694856	273,189157	309,123155	0
15.01.2021	05:27:37	0	0	4,858427	3,24525	21,0096	-0,632	84,923	0	1010,58	5,8	8	7,8	1	1	1	1	1	1	1	1	1	0	1	-3,805497	273,33345	312,680278	0
15.01.2021	05:27:38	0	0	2,485722	3,204	14,3064	-0,633	84,923	0	1010,58	5,9	8	7,7	1	1	1	1	1	1	1	1	1	0	1	-4,580691	273,23333	311,441631	0
15.01.2021	05:27:39	0	0	3,72856	3,2865	5,6916	-0,631	84,924	0	1010,64	5,8	8	7,8	1	1	1	1	1	1	1	1	1	0	1	-3,875969	273,352102	312,696198	0
15.01.2021	05:27:40	0	0	5,197387	3,21975	13,5504	-0,636	84,916	0	1010,62	5,8	8	7,8	1	1	1	1	1	1	1	1	1	0	1	-8,245243	273,324848	308,200692	0
15.01.2021	05:27:41	0	0	4,293468	3,16575	16,4772	-0,633	84,937	0	1010,52	5,8	8	7,9	1	1	1	1	1	1	1	1	1	0	1	-3,805497	273,266169	312,36878	0
15.01.2021	05:27:42	0	0	2,598678	3,3225	3,7872	-0,633	84,931	0	1010,62	5,9	8	7,9	1	1	1	1	1	1	1	1	1	0	1	-7,047216	273,163555	308,652423	0
15.01.2021	05:27:43	0	0	4,519467	3,489	12,4704	-0,636	84,922	0	1010,66	5,9	8	7,8	1	1	1	1	1	1	1	1	1	0	1	-7,751938	273,313385	308,640911	0
15.01.2021	05:27:44	0	0	4,180507	3,516	7,5168	-0,631	84,926	0	1010,66	5,9	8	7,8	1	1	1	1	1	1	1	1	1	0	1	-4,087385	273,304791	312,265675	0
15.01.2021	05:27:45	0	0	2,485707	3,47025	16,4916	-0,633	84,932	0	1010,54	5,8	8	7,8	1	1	1	1	1	1	1	1	1	0	1	-10,007047	273,347796	306,545174	0
15.01.2021	05:27:46	0	0	3,05064	3,16875	30,3048	-0,636	84,928	0	1010,7	5,8	8	7,8	1	1	1	1	1	1	1	1	1	0	1	-7,329105	273,201971	308,548163	0
15.01.2021	05:27:47	0	0	3,3896	2,913	13,1724	-0,636	84,928	0	1010,52	5,9	8	7,8	1	1	1	1	1	1	1	1	1	0	1	-4,22833	273,244746	311,84681	0
15.01.2021	05:27:48	0	0	4,74544	2,835	17,2404	-0,633	84,913	0	1010,62	5,8	8	7,8	1	1	1	1	1	1	1	1	1	0	1	-7,681466	273,206245	308,215566	0
15.01.2021	05:27:49	0	0	2,598678	2,83875	26,1756	-0,636	84,925	0	1010,54	5,8	8	7,9	1	1	1	1	1	1	1	1	1	0	1	-10,500352	273,200547	305,37033	0
15.01.2021	05:27:50	0	0	4,632453	2,85075	20,628	-0,627	84,928	0	1010,52	5,9	8	7,8	1	1	1	1	1	1	1	1	1	0	1	-4,369274	273,217644	311,580485	0
15.01.2021	05:27:51	0	0	2,598693	2,8455	13,9212	-0,63	84,934	0	1010,6	5,9	8	7,8	1	1	1	1	1	1	1	1	1	0	1	-7,329105	273,162134	308,363964	0
15.01.2021	05:27:52	0	0	2,82465	2,93025	16,4772	-0,632	84,914	0	1010,5	5,8	8	7,9	1	1	1	1	1	1	1	1	1	0	1	-5,144468	273,241891	310,917464	0
15.01.2021	05:27:53	0	0	4,40648	2,9835	15,3936	-0,628	84,941	0	1010,48	5,8	8	7,8	1	1	1	1	1	1	1	1	1	0	1	-5,355884	273,207669	310,547736	0
15.01.2021	05:27:54	0	0	2,824667	3,01575	16,1136	-0,629	84,937	0	1010,54	5,8	8	7,8	1	1	1	1	1	1	1	1	1	0	1	-2,536998	273,169242	313,18893	0
15.01.2021	05:27:55	0	0	2,598693	2,9925	13,1724	-0,632	84,945	0	1010,64	5,8	8	7,8	1	1	1	1	1	1	1	1	1	0	1	-5,637773	273,241891	310,424159	0
15.01.2021	05:27:56	0	0	3,72856	2,97975	12,1032	-0,632	84,93	0	1010,64	5,9	8	7,8	1	1	1	1	1	1	1	1	1	0	1	-8,033827	273,350666	308,531691	0
15.01.2021	05:27:57	0	0	4,632453	2,988	11,718	-0,632	84,916	0	1010,54	5,8	8	7,8	1	1	1	1	1	1	1	1	1	0	1	-7,540521	273,314817	308,858962	0
15.01.2021	05:27:58	0	0	4,632453	2,919	7,5384	-0,63	84,939	0	1010,5	5,8	8	7,8	1	1	1	1	1	1	1	1	1	0	1	-5,355884	273,260454	310,791943	0
15.01.2021	05:27:59	0	0	2,598693	2,74575	17,2512	-0,626	84,934	0	1010,58	5,9	8	7,8	1	1	1	1	1	1	1	1	1	0	1	-6,412967	273,353537	310,16585	0
15.01.2021	05:28:00	0	0	4,858427	2,56575	22,8348	-0,631	84,931	0	1010,62	5,8	8	7,8	1	1	1	1	1	1	1	1	1	0	1	-4,157858	273,309087	312,215095	0
15.01.2021	05:28:01	0	0	4,858427	2,56575	22,8348	-0,631	84,931	0	1010,62	5,8	8	7,8	1	1	1	1	1	1	1	1	1	0	1	-4,157858	273,309087	312,215095	0
15.01.2021	05:28:02	0	0	2,937653	2,52075	7,2216	-0,624	84,946	0	1010,58	5,9	8	7,8	1	1	1	1	1	1	1	1	1	0	1	-6,20155	273,172086	309,537525	0
15.01.2021	05:28:03	0	0	5,197387	2,51175	12,1572	-0,628	84,946	0	1010,68	5,8	8	7,8	1	1	1	1	1	1	1	1	1	0	1	-4,22833	273,297633	312,09159	0
15.01.2021	05:28:04	0	0	3,163627	2,4435	9,7596	-0,625	84,941	0	1010,44	5,9	8	7,8	1	1	1	1	1	1	1	1	1	0	1	-1,338971	273,347796	315,21325	0
15.01.2021	05:28:05	0	0	4,74544	2,514	4,0932	-0,627	84,937	0	1010,72	5,8	8	7,8	1	1	1	1	1	1	1	1	1	0	1	-6,976744	273,344926	309,562183	0
15.01.2021	05:28:06	0	0	2,71168	2,7825	8,3664	-0,629	84,933	0	1010,48	5,9	8	7,8	1	1	1	1	1	1	1	1	1	0	1	-6,272023	273,313385	310,120827	0
15.01.2021	05:28:07	0	0	4,180507	2,90625	8,6148	-0,629	84,942	0	1010,56	5,9	8	7,8	1	1	1	1	1	1	1	1	1	0	1	-9,372798	273,349231	307,186072	0
15.01.2021	05:28:08	0	0	2,824667	2,802	22,0932	-0,625	84,947	0	1010,66	5,9	8	7,8	1	1	1	1	1	1	1	1	1	0	1	-6,976744	273,274745	309,237224	0
15.01.2021	05:28:09	0	0	3,615573	2,87775	15,7788	-0,629	84,941	0	1010,58	5,9	8	7,8	1	1	1	1	1	1	1	1	1	0	1	-4,580691	273,16782	311,138664	0
15.01.2021	05:28:10	0	0	2,485707	3,1245	18,828	-0,631	84,929	0	1010,48	5,9	8	7,8	1	1	1	1	1	1	1	1	1	0	1	-5,073996	273,236183	310,961527	0
15.01.2021	05:28:11	0	0	4,40648	3,26925	18,468	-0,629	84,926	0	1010,62	5,9	8	7,8	1	1	1	1	1	1	1	1	1	0	1	-6,8358	273,172086	308,903276	0
15.01.2021	05:28:12	0	0	4,858427	3,1095	16,8552	-0,628	84,942	0	1010,6	5,9	8	7,8	1	1	1	1	1	1	1	1	1	0	1	-7,047216	273,321982	309,385444	0
15.01.2021	05:28:13	0	0	3,72856	3,00375	15,4116	-0,624	84,945	0	1010,6	5,9	8	7,8	1	1	1	1	1	1	1	1	1	0	1	-6,483439	273,173508	309,262211	0
15.01.2021	05:28:14	0	0	5,0844	2,8335	14,2992	-0,624	84,947	0	1010,56	5,9	8	7,8	1	1	1	1	1	1	1	1	1	0	1	-8,949965	273,330583	307,522527	0
15.01.2021	05:28:15	0	0	4,06752	2,802	8,2692	-0,627	84,946	0	1010,66	5,9	8	7,8	1	1	1	1	1	1	1	1	1	0	1	-7,188161	273,289047	309,092009	0
15.01.2021	05:28:16	0	0	4,971413	2,871	9,378	-0,627	84,96	0	1010,58	5,9	8	7,8	1	1	1	1	1	1	1	1	1	0	1	-3,735025	273,207669	312,168596	0
15.01.2021	05:28:17	0	0	4,519467	2,88225	12,2004	-0,624	84,955	0	1010,66	5,9	8	7,8	1	1	1	1	1	1	1	1	1	0	1	-6,624383	273,357844	309,974387	0
15.01.2021	05:28:18	0	0	2,71168	2,82075	14,652	-0,629	84,942	0	1010,56	5,9	8	7,8	1	1	1	1	1	1	1	1	1	0	1	-9,020437	273,266169	307,15384	0
15.01.2021	05:28:19	0	0	4,293493	2,80425	14,3208	-0,631	84,945	0	1010,62	5,9	8	7,8	1	1	1	1	1	1	1	1	1	0	1	-7,047216	273,347796	309,505005	0
15.01.2021	05:28:20	0	0	2,37272	2,92575	27,27	-0,624	84,945	0	1010,58	5,9	8	7,8	1	1	1	1	1	1	1	1	1	0	1	-5,84919	273,217644	310,10057	0
15.01.2021	05:28:21	0	0	2,937653	2,874	15,0372	-0,621	84,958	0	1010,64	5,9	8	7,8	1	1	1	1	1	1	1	1	1	0	1	-7,82241	273,23333	308,199912	0
15.01.2021	05:28:22	0	0	3,05064	2,9295	4,0824	-0,631	84,953	0	1010,56	5,9	8	7,8	1	1	1	1	1	1	1	1	1	0	1	-5,21494	273,184888	310,583329	0
15.01.2021	05:28:23	0	0	4,971413	3,3165	7,506	-0,629	84,956	0	1010,48	5,9	8	7,8	1	1	1	1	1	1	1	1	1	0	1	-5,990134	273,311952	310,396083	0
15.01.2021	05:28:24	0	0	3,502587	3,4455	11,7288	-0,633	84,958	0	1010,6	5,9	8	7,8	1	1	1	1	1	1	1	1	1	0	1	-9,866103	273,354973	306,719365	0
15.01.2021	05:28:25	0	0	3,954533	3,29325	5,22	-0,629	84,939	0	1010,6	5,9	8	7,8	1	1	1	1	1	1	1	1	1	0	1	-3,664553	273,243319	312,403983	0
15.01.2021	05:28:26	0	0	3,163627	3,15	11,7216	-0,627	84,955	0	1010,66	5,9	8	7,8	1	1	1	1	1	1	1	1	1	0	1	-7,188161	273,344926	309,350766	0
15.01.2021	05:28:27	0	0	3,841547	3,0465	14,2992	-0,623	84,947	0	1010,54	5,9	8	7,8	1	1	1	1	1	1	1	1	1	0	1	-4,933051	273,349231	311,625818	0
15.01.2021	05:28:28	0	0	4,971413	3,05625	16,1064	-0,628	84,958	0	1010,38	5,9	8	7,8	1	1	1	1	1	1	1	1	1	0	1	-10,147992	273,290478	306,138802	0
15.01.2021	05:28:29	0	0	4,74544	2,89575	15,7824	-0,627	84,957	0	1010,62	5,9	8	7,8	1	1	1	1	1	1	1	1	1	0	1	-5,073996	273,352102	311,498171	0
15.01.2021	05:28:30	0	0	3,954533	2,78775	17,7012	-0,626	84,971	0	1010,58	5,9	8	7,8	1	1	1	1	1	1	1	1	1	0	1	-6,624383	273,269027	309,563122	0
15.01.2021	05:28:31	0	0	2,937653	2,7705	22,0788	-0,626	84,969	0	1010,54	5,9	8	7,8	1	1	1	1	1	1	1	1	1	0	1	-6,765328	273,340622	309,753663	0
15.01.2021	05:28:32	0	0	4,40648	2,80275	19,242	-0,62	84,972	0	1010,66	5,9	8	7,8	1	1	1	1	1	1	1	1	1	0	1	-6,976744	273,184888	308,821525	0
15.01.2021	05:28:33	0	0	2,824667	2,84175	22,0788	-0,63	84,949	0	1010,54	5,9	8	7,8	1	1	1	1	1	1	1	1	1	0	1	-2,043693	273,289047	314,236477	0
15.01.2021	05:28:34	0	0	4,858427	2,88825	12,1068	-0,625	84,97	0	1010,58	5,9	8	7,8	1	1	1	1	1	1	1	1	1	0	1	-10,570825	273,18062	305,207708	0
15.01.2021	05:28:35	0	0	4,519467	2,91375	7,218	-0,632	84,943	0	1010,54	5,9	8	7,8	1	1	1	1	1	1	1	1	1	0	1	-6,906272	273,29334	309,39377	0
15.01.2021	05:28:36	0	0	4,971413	2,82525	12,8556	-0,628	84,953	0	1010,68	5,8	8	7,8	1	1	1	1	1	1	1	1	1	0	1	-4,580691	273,340622	311,9383	0
15.01.2021	05:28:37	0	0	2,937653	2,71875	20,2896	-0,628	84,953	0	1010,56	5,8	8	7,8	1	1	1	1	1	1	1	1	1	0	1	-5,567301	273,16782	310,152054	0
15.01.2021	05:28:38	0	0	3,502587	2,6055	20,2932	-0,631	84,951	0	1010,4	5,9	8	7,8	1	1	1	1	1	1	1	1	1	0	1	-4,792107	273,29334	311,507935	0
15.01.2021	05:28:39	0	0	3,72856	2,76825	5,6916	-0,623	84,972	0	1010,64	5,9	8	7,8	1	1	1	1	1	1	1	1	1	0	1	-0,070472	273,184888	315,727797	0
15.01.2021	05:28:40	0	0	4,74544	3,0015	15,0264	-0,628	84,966	0	1010,6	5,9	8	7,8	1	1	1	1	1	1	1	1	1	0	1	-4,369274	273,199123	311,494822	0
15.01.2021	05:28:41	0	0	4,74544	3,0885	14,6664	-0,631	84,97	0	1010,4	5,9	8	7,8	1	1	1	1	1	1	1	1	1	0	1	-5,003524	273,347796	311,548698	0
15.01.2021	05:28:42	0	0	2,937653	3,03375	21,0168	-0,624	84,956	0	1010,5	5,9	8	7,8	1	1	1	1	1	1	1	1	1	0	1	-7,540521	273,353537	309,038295	0
15.01.2021	05:28:43	0	0	2,824667	2,862	26,8992	-0,625	84,968	0	1010,62	5,9	8	7,8	1	1	1	1	1	1	1	1	1	0	1	-5,919662	273,226199	310,069668	0
15.01.2021	05:28:44	0	0	3,841547	2,74125	30,33	-0,633	84,968	0	1010,4	5,9	8	7,8	1	1	1	1	1	1	1	1	1	0	1	-4,439746	273,340622	312,079244	0
15.01.2021	05:28:45	0	0	5,536347	2,55525	19,5372	-0,624	84,977	0	1010,62	5,9	8	7,8	1	1	1	1	1	1	1	1	1	0	1	-7,610994	273,357844	308,987776	0
15.01.2021	05:28:46	0	0	3,841547	2,3805	20,6352	-0,628	84,97	0	1010,62	5,9	8	7,8	1	1	1	1	1	1	1	1	1	0	1	-7,540521	273,229051	308,462004	0
15.01.2021	05:28:47	0	0	4,180507	2,16	10,4436	-0,625	84,973	0	1010,5	5,9	8	7,8	1	1	1	1	1	1	1	1	1	0	1	-7,681466	273,349231	308,877404	0
15.01.2021	05:28:48	0	0	4,40648	2,12325	10,4472	-0,628	84,963	0	1010,66	5,9	8	7,8	1	1	1	1	1	1	1	1	1	0	1	-7,540521	273,309087	308,832431	0
15.01.2021	05:28:49	0	0	5,0844	2,466	14,2992	-0,622	84,98	0	1010,66	5,9	8	7,8	1	1	1	1	1	1	1	1	1	0	1	-5,708245	273,340622	310,810745	0
15.01.2021	05:28:50	0	0	3,05064	2,68425	15,0264	-0,626	84,973	0	1010,62	5,9	8	7,8	1	1	1	1	1	1	1	1	1	0	1	-3,030303	273,166398	312,68248	0
15.01.2021	05:28:51	0	0	5,197387	2,7255	15,7788	-0,623	84,984	0	1010,56	5,9	8	7,8	1	1	1	1	1	1	1	1	1	0	1	-8,879493	273,360716	307,732582	0
15.01.2021	05:28:52	0	0	4,06752	2,69475	12,4668	-0,629	84,97	0	1010,58	5,9	8	7,8	1	1	1	1	1	1	1	1	1	0	1	-13,530655	273,320549	302,895368	0
15.01.2021	05:28:53	0	0	4,858427	2,535	17,2548	-0,624	84,98	0	1010,7	5,9	8	7,8	1	1	1	1	1	1	1	1	1	0	1	-5,708245	273,206245	310,188786	0
15.01.2021	05:28:54	0	0	4,293493	2,3595	12,8628	-0,623	84,971	0	1010,62	5,9	8	7,8	1	1	1	1	1	1	1	1	1	0	1	-6,272023	273,353537	310,306794	0
15.01.2021	05:28:55	0	0	2,824667	2,361	8,6184	-0,625	84,962	0	1010,66	5,9	8	7,8	1	1	1	1	1	1	1	1	1	0	1	-7,681466	273,301928	308,658336	0
15.01.2021	05:28:56	0	0	4,632453	2,433	12,8556	-0,624	84,977	0	1010,64	5,9	8	7,8	1	1	1	1	1	1	1	1	1	0	1	-4,016913	273,192004	311,814262	0
15.01.2021	05:28:57	0	0	3,72856	2,51175	4,4748	-0,622	84,98	0	1010,64	5,9	8	7,8	1	1	1	1	1	1	1	1	1	0	1	-7,047216	273,267598	309,133674	0
15.01.2021	05:28:58	0	0	3,276613	2,85225	15,7932	-0,628	84,978	0	1010,56	5,9	8	7,8	1	1	1	1	1	1	1	1	1	0	1	-10,923185	273,354973	305,662282	0
15.01.2021	05:28:59	0	0	4,74544	2,922	11,2032	-0,626	84,967	0	1010,56	5,9	8	7,8	1	1	1	1	1	1	1	1	1	0	1	-8,315715	273,31052	308,063869	0
15.01.2021	05:29:00	0	0	3,502587	2,64075	22,5648	-0,622	84,981	0	1010,64	5,9	8	7,8	1	1	1	1	1	1	1	1	1	0	1	-4,510218	273,369335	312,141786	0
15.01.2021	05:29:01	0	0	3,163627	2,388	23,976	-0,623	84,969	0	1010,52	5,9	8	7,8	1	1	1	1	1	1	1	1	1	0	1	-11,486963	273,294771	304,819705	0
15.01.2021	05:29:02	0	0	3,163627	2,388	23,976	-0,623	84,969	0	1010,52	5,9	8	7,8	1	1	1	1	1	1	1	1	1	0	1	-11,486963	273,294771	304,819705	0
15.01.2021	05:29:03	0	0	3,502587	2,3775	11,196	-0,628	84,979	0	1010,6	5,9	8	7,8	1	1	1	1	1	1	1	1	1	0	1	-0,775194	273,213369	315,154788	0
15.01.2021	05:29:04	0	0	3,163627	2,511	12,0996	-0,623	84,991	0	1010,68	5,9	8	7,8	1	1	1	1	1	1	1	1	1	0	1	-7,892882	273,193428	307,944876	0
15.01.2021	05:29:05	0	0	4,74544	2,487	20,6388	-0,624	84,988	0	1010,56	5,9	8	7,8	1	1	1	1	1	1	1	1	1	0	1	-9,161381	273,246173	306,920364	0
15.01.2021	05:29:06	0	0	2,598693	2,406	16,8516	-0,628	84,984	0	1010,7	5,9	8	7,8	1	1	1	1	1	1	1	1	1	0	1	-4,510218	273,330583	311,962274	0
15.01.2021	05:29:07	0	0	3,841547	2,37675	19,1376	-0,621	84,985	0	1010,72	5,9	8	7,8	1	1	1	1	1	1	1	1	1	0	1	-5,285412	273,353537	311,293405	0
15.01.2021	05:29:08	0	0	4,858427	2,39625	9	-0,625	84,976	0	1010,56	5,9	8	7,8	1	1	1	1	1	1	1	1	1	0	1	-3,100775	273,286186	313,16615	0
15.01.2021	05:29:09	0	0	3,72856	2,2815	11,7288	-0,624	84,991	0	1010,6	5,8	8	7,8	1	1	1	1	1	1	1	1	1	0	1	-2,536998	273,182042	313,248113	0
15.01.2021	05:29:10	0	0	2,937653	2,15925	18,4428	-0,628	84,976	0	1010,46	5,9	8	7,8	1	1	1	1	1	1	1	1	1	0	1	-6,906272	273,200547	308,96441	0
15.01.2021	05:29:11	0	0	3,502587	1,9755	13,2768	-0,628	84,987	0	1010,6	5,9	8	7,8	1	1	1	1	1	1	1	1	1	0	1	-3,59408	273,20482	312,296363	0
15.01.2021	05:29:12	0	0	4,519467	1,848	7,1388	-0,621	84,991	0	1010,54	5,9	8,1	7,8	1	1	1	1	1	1	1	1	1	0	1	-6,765328	273,201971	309,111941	0
15.01.2021	05:29:13	0	0	3,163627	1,794	6,4332	-0,622	84,991	0	1010,74	5,9	8	7,8	1	1	1	1	1	1	1	1	1	0	1	-10,359408	273,244746	305,715732	0
15.01.2021	05:29:14	0	0	3,72856	1,746	12,8592	-0,622	84,975	0	1010,64	5,9	8	7,8	1	1	1	1	1	1	1	1	1	0	1	-4,369274	273,176352	311,389527	0
15.01.2021	05:29:15	0	0	4,293493	1,806	16,0992	-0,62	85	0	1010,56	5,8	8	7,8	1	1	1	1	1	1	1	1	1	0	1	-12,684989	273,317683	303,727763	0
15.01.2021	05:29:16	0	0	4,293493	1,932	8,622	-0,626	84,996	0	1010,58	5,9	8	7,8	1	1	1	1	1	1	1	1	1	0	1	-6,8358	273,207669	309,067821	0
15.01.2021	05:29:17	0	0	2,485707	2,17425	12,1104	-0,622	84,985	0	1010,7	5,8	8	7,8	1	1	1	1	1	1	1	1	1	0	1	-6,8358	273,179197	308,936155	0
15.01.2021	05:29:18	0	0	3,615573	2,3715	2,6568	-0,622	84,991	0	1010,7	5,9	8	7,8	1	1	1	1	1	1	1	1	1	0	1	-7,047216	273,274745	309,166752	0
15.01.2021	05:29:19	0	0	3,72856	2,442	10,8108	-0,623	84,982	0	1010,62	5,9	8	7,8	1	1	1	1	1	1	1	1	1	0	1	-2,818887	273,339187	313,693459	0
15.01.2021	05:29:20	0	0	4,180507	2,42925	15,4152	-0,621	85,005	0	1010,7	5,9	8	7,8	1	1	1	1	1	1	1	1	1	0	1	-5,355884	273,184888	310,442385	0
15.01.2021	05:29:21	0	0	3,3896	2,32425	16,1064	-0,624	84,984	0	1010,62	5,9	8	7,8	1	1	1	1	1	1	1	1	1	0	1	-11,134602	273,334885	305,357815	0
15.01.2021	05:29:22	0	0	2,71168	2,352	8,9892	-0,621	84,983	0	1010,7	5,9	8	7,8	1	1	1	1	1	1	1	1	1	0	1	-1,832276	273,169242	313,893652	0
15.01.2021	05:29:23	0	0	3,163627	2,4885	12,8448	-0,626	84,99	0	1010,5	5,9	8	7,8	1	1	1	1	1	1	1	1	1	0	1	-1,902748	273,287616	314,370799	0
15.01.2021	05:29:24	0	0	4,519467	2,61075	4,8456	-0,62	85,001	0	1010,64	5,9	8	7,8	1	1	1	1	1	1	1	1	1	0	1	-2,889359	273,18062	312,889174	0
15.01.2021	05:29:25	0	0	4,180507	2,5725	10,8216	-0,623	84,998	0	1010,66	5,8	8	7,8	1	1	1	1	1	1	1	1	1	0	1	-5,355884	273,26474	310,811779	0
15.01.2021	05:29:26	0	0	5,197387	2,43225	11,718	-0,623	84,995	0	1010,52	5,9	8	7,8	1	1	1	1	1	1	1	1	1	0	1	-6,060606	273,176352	309,698195	0
15.01.2021	05:29:27	0	0	2,824667	2,37825	10,818	-0,617	85,001	0	1010,6	5,9	8	7,8	1	1	1	1	1	1	1	1	1	0	1	-10,218464	273,23333	305,803858	0
15.01.2021	05:29:28	0	0	4,632453	2,3145	26,1864	-0,618	85,014	0	1010,58	5,8	8	7,8	1	1	1	1	1	1	1	1	1	0	1	-4,016913	273,349231	312,541956	0
15.01.2021	05:29:29	0	0	4,180507	2,2155	14,3064	-0,62	85,006	0	1010,52	5,9	8	7,8	1	1	1	1	1	1	1	1	1	0	1	-6,060606	273,321982	310,372054	0
15.01.2021	05:29:30	0	0	3,05064	2,08125	16,4808	-0,619	85,008	0	1010,5	5,9	8	7,8	1	1	1	1	1	1	1	1	1	0	1	-8,245243	273,247601	307,843107	0
15.01.2021	05:29:31	0	0	3,72856	1,899	8,6148	-0,625	85,009	0	1010,6	5,9	8	7,8	1	1	1	1	1	1	1	1	1	0	1	-6,624383	273,350666	309,941135	0
15.01.2021	05:29:32	0	0	4,858427	2,073	10,818	-0,625	85,008	0	1010,64	5,9	8	7,8	1	1	1	1	1	1	1	1	1	0	1	-7,329105	273,207669	308,574515	0
15.01.2021	05:29:33	0	0	2,824667	2,1915	358,362	-0,618	85,024	0	1010,7	5,9	8	7,8	1	1	1	1	1	1	1	1	1	0	1	-2,677942	273,197699	313,179568	0
15.01.2021	05:29:34	0	0	2,598693	2,238	4,8528	-0,621	85,001	0	1010,62	5,9	8	7,8	1	1	1	1	1	1	1	1	1	0	1	-1,127555	273,360716	315,48452	0
15.01.2021	05:29:35	0	0	3,72856	2,59575	5,6844	-0,626	84,999	0	1010,56	5,9	8	7,8	1	1	1	1	1	1	1	1	1	0	1	-6,272023	273,277605	309,955182	0
15.01.2021	05:29:36	0	0	2,824667	2,86425	21,3912	-0,624	85,002	0	1010,64	5,9	8,1	7,8	1	1	1	1	1	1	1	1	1	0	1	-6,624383	273,35928	309,981039	0
15.01.2021	05:29:37	0	0	3,163627	2,69175	16,4772	-0,62	85,018	0	1010,6	5,9	8	7,8	1	1	1	1	1	1	1	1	1	0	1	-3,100775	273,20482	312,789668	0
15.01.2021	05:29:38	0	0	5,197387	2,6175	9,36	-0,622	85,004	0	1010,62	5,8	8	7,8	1	1	1	1	1	1	1	1	1	0	1	-0	273,323415	316,439297	0
15.01.2021	05:29:39	0	0	4,40648	2,63775	7,1208	-0,622	85,01	0	1010,62	5,9	8	7,8	1	1	1	1	1	1	1	1	1	0	1	-2,889359	273,363589	313,736024	0
15.01.2021	05:29:40	0	0	5,197387	2,7045	10,4508	-0,617	85,009	0	1010,62	5,8	8	7,8	1	1	1	1	1	1	1	1	1	0	1	-3,805497	273,271886	312,395239	0
15.01.2021	05:29:41	0	0	4,858427	2,91975	4,8384	-0,621	85,003	0	1010,5	5,9	8	7,8	1	1	1	1	1	1	1	1	1	0	1	-4,369274	273,346361	312,1763	0
15.01.2021	05:29:42	0	0	3,163627	3,009	21,3912	-0,621	85,01	0	1010,68	5,9	8	7,8	1	1	1	1	1	1	1	1	1	0	1	-4,157858	273,206245	311,739174	0
15.01.2021	05:29:43	0	0	3,502587	2,86725	16,8552	-0,619	85,024	0	1010,52	5,9	8	7,8	1	1	1	1	1	1	1	1	1	0	1	-6,131078	273,321982	310,301582	0
15.01.2021	05:29:44	0	0	2,937653	2,59425	21,7728	-0,62	85,003	0	1010,7	5,9	8	7,8	1	1	1	1	1	1	1	1	1	0	1	-4,721635	273,234757	311,307287	0
15.01.2021	05:29:45	0	0	4,74544	2,442	21,7836	-0,615	85,016	0	1010,68	5,8	8	7,8	1	1	1	1	1	1	1	1	1	0	1	-7,892882	273,307655	308,473439	0
15.01.2021	05:29:46	0	0	3,05064	2,412	24,3432	-0,621	85,021	0	1010,64	5,8	8	7,8	1	1	1	1	1	1	1	1	1	0	1	-3,735025	273,173508	312,010626	0
15.01.2021	05:29:47	0	0	3,954533	2,4	25,02	-0,618	85,017	0	1010,84	5,9	8	7,8	1	1	1	1	1	1	1	1	1	0	1	-6,412967	273,289047	309,867203	0
15.01.2021	05:29:48	0	0	4,06752	2,34225	18,8352	-0,621	85	0	1010,56	5,9	8	7,8	1	1	1	1	1	1	1	1	1	0	1	-5,003524	273,336319	311,495535	0
15.01.2021	05:29:49	0	0	3,502587	2,42025	24,7248	-0,615	84,999	0	1010,66	5,9	8	7,8	1	1	1	1	1	1	1	1	1	0	1	-4,721635	273,21907	311,234718	0
15.01.2021	05:29:50	0	0	3,502587	2,544	8,6148	-0,615	84,995	0	1010,5	5,8	8	7,8	1	1	1	1	1	1	1	1	1	0	1	-4,016913	273,177775	311,748465	0
15.01.2021	05:29:51	0	0	3,954533	2,7945	27,2808	-0,622	85,02	0	1010,62	5,8	8	7,8	1	1	1	1	1	1	1	1	1	0	1	-5,285412	273,317683	311,12734	0
15.01.2021	05:29:52	0	0	4,74544	2,928	25,0308	-0,617	85,016	0	1010,76	5,8	8	7,8	1	1	1	1	1	1	1	1	1	0	1	-4,439746	273,200547	311,430936	0
15.01.2021	05:29:53	0	0	3,3896	2,958	33,2604	-0,62	85,019	0	1010,58	5,8	8,1	7,8	1	1	1	1	1	1	1	1	1	0	1	-4,369274	273,217644	311,580485	0
15.01.2021	05:29:54	0	0	4,40648	2,88225	26,91	-0,617	85,02	0	1010,58	5,8	8	7,8	1	1	1	1	1	1	1	1	1	0	1	-6,272023	273,243319	309,796513	0
15.01.2021	05:29:55	0	0	3,276613	2,694	29,5596	-0,613	85,021	0	1010,62	5,8	8	7,8	1	1	1	1	1	1	1	1	1	0	1	-5,990134	273,360716	310,621941	0
15.01.2021	05:29:56	0	0	3,954533	2,502	30,3552	-0,622	85,012	0	1010,58	5,8	8	7,8	1	1	1	1	1	1	1	1	1	0	1	-3,523608	273,304791	312,829452	0
15.01.2021	05:29:57	0	0	3,05064	2,4045	25,4196	-0,613	85,029	0	1010,64	5,8	8	7,8	1	1	1	1	1	1	1	1	1	0	1	-4,721635	273,337753	311,784067	0
15.01.2021	05:29:58	0	0	4,40648	2,43825	24,336	-0,619	85,028	0	1010,62	5,9	8	7,8	1	1	1	1	1	1	1	1	1	0	1	-2,466526	273,324848	313,979409	0
15.01.2021	05:29:59	0	0	3,954533	2,6265	27,2736	-0,615	85,008	0	1010,7	5,8	8,1	7,8	1	1	1	1	1	1	1	1	1	0	1	-2,889359	273,289047	313,390811	0
15.01.2021	05:30:00	0	0	4,40648	2,754	13,1652	-0,614	85,033	0	1010,7	5,9	8	7,8	1	1	1	1	1	1	1	1	1	0	1	-9,654686	273,230477	306,354437	0
15.01.2021	05:30:01	0	0	4,40648	2,754	13,1652	-0,614	85,033	0	1010,7	5,9	8	7,8	1	1	1	1	1	1	1	1	1	0	1	-9,654686	273,230477	306,354437	0
15.01.2021	05:30:02	0	0	3,615573	2,559	20,2716	-0,616	85,027	0	1010,52	5,8	8	7,8	1	1	1	1	1	1	1	1	1	0	1	-3,59408	273,362152	313,024648	0
15.01.2021	05:30:03	0	0	4,519467	2,61075	19,5228	-0,618	85,015	0	1010,66	5,9	8	7,8	1	1	1	1	1	1	1	1	1	0	1	-2,466526	273,286186	313,800399	0
15.01.2021	05:30:04	0	0	4,74544	2,6625	17,6868	-0,614	85,028	0	1010,62	5,8	8	7,8	1	1	1	1	1	1	1	1	1	0	1	-5,84919	273,192004	309,981986	0
15.01.2021	05:30:05	0	0	2,71168	2,78025	15,3936	-0,614	85,04	0	1010,64	5,9	8	7,8	1	1	1	1	1	1	1	1	1	0	1	-4,22833	273,353537	312,350487	0
15.01.2021	05:30:06	0	0	2,71168	3,0075	13,9248	-0,612	85,039	0	1010,6	5,8	8	7,8	1	1	1	1	1	1	1	1	1	0	1	-5,567301	273,244746	310,507839	0
15.01.2021	05:30:07	0	0	3,72856	3,0165	13,9248	-0,616	85,038	0	1010,58	5,9	8	7,8	1	1	1	1	1	1	1	1	1	0	1	-5,073996	273,372208	311,591324	0
15.01.2021	05:30:08	0	0	3,72856	3,1665	8,262	-0,622	85,025	0	1010,54	5,9	8	7,8	1	1	1	1	1	1	1	1	1	0	1	-4,933051	273,216219	311,010115	0
15.01.2021	05:30:09	0	0	4,06752	3,249	22,8384	-0,614	85,037	0	1010,58	5,8	8	7,8	1	1	1	1	1	1	1	1	1	0	1	-6,694856	273,324848	309,751079	0
15.01.2021	05:30:10	0	0	2,937653	3,05475	19,1448	-0,619	85,016	0	1010,64	5,8	8	7,8	1	1	1	1	1	1	1	1	1	0	1	-3,24172	273,173508	312,503931	0
15.01.2021	05:30:11	0	0	4,74544	2,93625	21,006	-0,617	85,031	0	1010,54	5,8	8	7,8	1	1	1	1	1	1	1	1	1	0	1	-7,399577	273,283325	308,854105	0
15.01.2021	05:30:12	0	0	3,3896	2,976	20,628	-0,611	85,047	0	1010,54	5,9	8,1	7,8	1	1	1	1	1	1	1	1	1	0	1	-7,963354	273,352102	308,608813	0
15.01.2021	05:30:13	0	0	2,598693	2,832	19,5228	-0,622	85,026	0	1010,66	5,8	8	7,8	1	1	1	1	1	1	1	1	1	0	1	-5,567301	273,266169	310,606976	0
15.01.2021	05:30:14	0	0	2,824667	2,748	27,9684	-0,613	85,026	0	1010,66	5,8	8	7,8	1	1	1	1	1	1	1	1	1	0	1	-8,174771	273,183465	307,616919	0
15.01.2021	05:30:15	0	0	4,293493	2,8785	18,0864	-0,615	85,046	0	1010,58	5,8	8	7,8	1	1	1	1	1	1	1	1	1	0	1	-8,879493	273,214794	307,057081	0
15.01.2021	05:30:16	0	0	3,502587	3,15675	24,3432	-0,611	85,035	0	1010,56	5,8	8,1	7,8	1	1	1	1	1	1	1	1	1	0	1	-3,946441	273,21907	312,009912	0
15.01.2021	05:30:17	0	0	3,841547	3,423	19,9908	-0,618	85,036	0	1010,6	5,8	8	7,8	1	1	1	1	1	1	1	1	1	0	1	-6,765328	273,360716	309,846747	0
15.01.2021	05:30:18	0	0	3,276613	3,5655	20,6388	-0,617	85,038	0	1010,56	5,9	8	7,8	1	1	1	1	1	1	1	1	1	0	1	-9,866103	273,259025	306,275113	0
15.01.2021	05:30:19	0	0	2,485707	3,52425	12,474	-0,613	85,046	0	1010,6	5,8	8	7,8	1	1	1	1	1	1	1	1	1	0	1	-4,580691	273,213369	311,349291	0
15.01.2021	05:30:20	0	0	3,502587	3,92025	14,652	-0,61	85,038	0	1010,64	5,8	8	7,8	1	1	1	1	1	1	1	1	1	0	1	-5,285412	273,353537	311,293405	0
15.01.2021	05:30:21	0	0	4,971413	3,945	4,842	-0,614	85,035	0	1010,58	5,8	8	7,8	1	1	1	1	1	1	1	1	1	0	1	-6,131078	273,290478	310,155715	0
15.01.2021	05:30:22	0	0	4,858427	3,80625	359,19	-0,61	85,053	0	1010,76	5,8	8	7,8	1	1	1	1	1	1	1	1	1	0	1	-6,624383	273,182042	309,160727	0
15.01.2021	05:30:23	0	0	2,71168	3,92025	14,2992	-0,611	85,048	0	1010,76	5,8	8,1	7,8	1	1	1	1	1	1	1	1	1	0	1	-11,06413	273,303359	305,282301	0
15.01.2021	05:30:24	0	0	3,502566	3,8085	23,9688	-0,619	85,048	0	1010,62	5,8	8	7,9	1	1	1	1	1	1	1	1	1	0	1	-2,325581	273,354973	314,259886	0
15.01.2021	05:30:25	0	0	3,163627	3,6945	22,9428	-0,617	85,038	0	1010,64	5,8	8	7,8	1	1	1	1	1	1	1	1	1	0	1	-4,933051	273,182042	310,852059	0
15.01.2021	05:30:26	0	0	4,40648	3,36225	31,7844	-0,607	85,045	0	1010,78	5,8	8	7,8	1	1	1	1	1	1	1	1	1	0	1	-3,735025	273,236183	312,300498	0
15.01.2021	05:30:27	0	0	3,276574	3,186	22,8348	-0,618	85,04	0	1010,6	5,8	8,1	8	1	1	1	1	1	1	1	1	1	0	1	-4,792107	273,187734	311,019323	0
15.01.2021	05:30:28	0	0	4,858427	2,9325	12,096	-0,617	85,043	0	1010,68	5,8	8	7,8	1	1	1	1	1	1	1	1	1	0	1	-4,369274	273,286186	311,897651	0
15.01.2021	05:30:29	0	0	4,519412	2,7045	20,2752	-0,614	85,056	0	1010,66	5,8	8	8	1	1	1	1	1	1	1	1	1	0	1	-4,651163	273,362152	311,967566	0
15.01.2021	05:30:30	0	0	3,841547	2,2965	17,7048	-0,614	85,057	0	1010,58	5,8	8	7,8	1	1	1	1	1	1	1	1	1	0	1	-0,775194	273,266169	315,399083	0
15.01.2021	05:30:31	0	0	3,05064	2,217	8,2872	-0,613	85,071	0	1010,76	5,8	8	7,8	1	1	1	1	1	1	1	1	1	0	1	-2,889359	273,197699	312,968152	0
15.01.2021	05:30:32	0	0	4,74544	2,35875	21,0168	-0,615	85,047	0	1010,6	5,8	8	7,8	1	1	1	1	1	1	1	1	1	0	1	-7,047216	273,20482	308,843227	0
15.01.2021	05:30:33	0	0	2,824667	2,616	21,402	-0,612	85,05	0	1010,58	5,8	8	7,8	1	1	1	1	1	1	1	1	1	0	1	-6,553911	273,313385	309,838938	0
15.01.2021	05:30:34	0	0	3,72856	2,754	12,114	-0,615	85,054	0	1010,66	5,9	8,1	7,8	1	1	1	1	1	1	1	1	1	0	1	-3,382664	273,186311	312,422185	0
15.01.2021	05:30:35	0	0	4,180507	2,72775	41,004	-0,611	85,056	0	1010,68	5,8	8	7,8	1	1	1	1	1	1	1	1	1	0	1	-9,020437	273,309087	307,352515	0
15.01.2021	05:30:36	0	0	3,163608	2,6715	17,712	-0,61	85,044	0	1010,74	5,8	8,1	7,9	1	1	1	1	1	1	1	1	1	0	1	-3,382664	273,360716	313,229411	0
15.01.2021	05:30:37	0	0	5,197387	2,55075	15,0372	-0,61	85,059	0	1010,58	5,8	8	7,8	1	1	1	1	1	1	1	1	1	0	1	-4,298802	273,365025	312,333235	0
15.01.2021	05:30:38	0	0	4,06752	2,53875	22,8276	-0,616	85,058	0	1010,74	5,8	8,1	7,8	1	1	1	1	1	1	1	1	1	0	1	-0,281889	273,263311	315,879162	0
15.01.2021	05:30:39	0	0	3,954533	2,49825	31,392	-0,616	85,04	0	1010,66	5,8	8,1	7,8	1	1	1	1	1	1	1	1	1	0	1	-6,20155	273,360716	310,410525	0
15.01.2021	05:30:40	0	0	4,293493	2,31375	19,5444	-0,609	85,062	0	1010,5	5,8	8,1	7,8	1	1	1	1	1	1	1	1	1	0	1	-5,778717	273,299065	310,547829	0
15.01.2021	05:30:41	0	0	3,3896	2,11125	12,8448	-0,61	85,069	0	1010,66	5,8	8,1	7,8	1	1	1	1	1	1	1	1	1	0	1	-3,805497	273,187734	312,005933	0
15.01.2021	05:30:42	0	0	3,615573	2,1225	8,2836	-0,618	85,063	0	1010,64	5,8	8	7,8	1	1	1	1	1	1	1	1	1	0	1	-1,902748	273,367898	314,7426	0
15.01.2021	05:30:43	0	0	2,485707	2,25225	12,4668	-0,61	85,053	0	1010,52	5,8	8	7,8	1	1	1	1	1	1	1	1	1	0	1	-7,188161	273,274745	309,025808	0
15.01.2021	05:30:44	0	0	4,971413	2,43975	16,4916	-0,61	85,077	0	1010,72	5,8	8,1	7,8	1	1	1	1	1	1	1	1	1	0	1	-1,62086	273,187734	314,19057	0
15.01.2021	05:30:45	0	0	3,841547	2,50725	16,4772	-0,618	85,076	0	1010,64	5,8	8,1	7,8	1	1	1	1	1	1	1	1	1	0	1	-5,355884	273,223347	310,620253	0
15.01.2021	05:30:46	0	0	3,276613	2,60025	23,5908	-0,614	85,06	0	1010,32	5,8	8	7,8	1	1	1	1	1	1	1	1	1	0	1	-7,258633	273,367898	309,386715	0
15.01.2021	05:30:47	0	0	4,632453	2,7285	26,1648	-0,612	85,068	0	1010,56	5,8	8	7,8	1	1	1	1	1	1	1	1	1	0	1	-3,24172	273,344926	313,297208	0
15.01.2021	05:30:48	0	0	2,259733	2,68125	20,3112	-0,612	85,057	0	1010,56	5,8	8	7,8	1	1	1	1	1	1	1	1	1	0	1	-4,933051	273,297633	311,386868	0
15.01.2021	05:30:49	0	0	2,824667	2,80575	24,3432	-0,608	85,075	0	1010,74	5,8	8	7,8	1	1	1	1	1	1	1	1	1	0	1	-12,544045	273,184888	303,254224	0
15.01.2021	05:30:50	0	0	5,197387	2,925	22,086	-0,613	85,075	0	1010,56	5,8	8	7,8	1	1	1	1	1	1	1	1	1	0	1	-6,060606	273,26474	310,107057	0
15.01.2021	05:30:51	0	0	2,71168	3,0855	17,712	-0,613	85,078	0	1010,62	5,8	8	7,8	1	1	1	1	1	1	1	1	1	0	1	-6,765328	273,360716	309,846747	0
15.01.2021	05:30:52	0	0	3,72856	2,88375	17,244	-0,618	85,062	0	1010,66	5,8	8,1	7,8	1	1	1	1	1	1	1	1	1	0	1	-6,272023	273,289047	310,008147	0
15.01.2021	05:30:53	0	0	3,05064	2,88525	18,0792	-0,608	85,079	0	1010,62	5,8	8,1	7,8	1	1	1	1	1	1	1	1	1	0	1	-1,198027	273,362152	315,420702	0
15.01.2021	05:30:54	0	0	5,42336	2,7225	17,6904	-0,614	85,081	0	1010,64	5,8	8,1	7,8	1	1	1	1	1	1	1	1	1	0	1	-8,386187	273,21907	307,570166	0
15.01.2021	05:30:55	0	0	3,72856	2,56875	18,8424	-0,609	85,079	0	1010,54	5,9	8,1	7,8	1	1	1	1	1	1	1	1	1	0	1	-9,090909	273,182042	306,694202	0
15.01.2021	05:30:56	0	0	5,42336	2,4975	13,9212	-0,612	85,064	0	1010,58	5,8	8	7,8	1	1	1	1	1	1	1	1	1	0	1	-4,651163	273,336319	311,847896	0
15.01.2021	05:30:57	0	0	3,502587	2,44575	19,1628	-0,616	85,074	0	1010,62	5,8	8,1	7,8	1	1	1	1	1	1	1	1	1	0	1	-6,20155	273,304791	310,15151	0
15.01.2021	05:30:58	0	0	4,632453	2,4645	19,9728	-0,613	85,133	0	1010,66	5,8	8,1	7,8	1	1	1	1	1	1	1	1	1	0	1	-6,906272	273,352102	309,665895	0
15.01.2021	05:30:59	0	0	4,632453	2,50425	21,7728	-0,608	85,077	0	1010,64	5,8	8,1	7,8	1	1	1	1	1	1	1	1	1	0	1	-4,721635	273,300496	311,611539	0
15.01.2021	05:31:00	0	0	2,824667	2,481	16,092	-0,61	85,077	0	1010,62	5,8	8,1	7,8	1	1	1	1	1	1	1	1	1	0	1	-3,312192	273,251884	312,795979	0
15.01.2021	05:31:01	0	0	2,824667	2,481	16,092	-0,61	85,077	0	1010,62	5,8	8,1	7,8	1	1	1	1	1	1	1	1	1	0	1	-3,312192	273,251884	312,795979	0
15.01.2021	05:31:02	0	0	2,711664	2,40675	21,4164	-0,612	85,065	0	1010,72	5,8	8	7,9	1	1	1	1	1	1	1	1	1	0	1	-5,003524	273,183465	310,788166	0
15.01.2021	05:31:03	0	0	4,632453	2,3625	17,7012	-0,603	85,082	0	1010,7	5,8	8,1	7,8	1	1	1	1	1	1	1	1	1	0	1	-9,020437	273,267598	307,160453	0
15.01.2021	05:31:04	0	0	4,858398	2,3745	16,4916	-0,605	85,089	0	1010,7	5,8	8	7,9	1	1	1	1	1	1	1	1	1	0	1	-1,479915	273,189157	314,338096	0
15.01.2021	05:31:05	0	0	4,632426	2,33475	1,17	-0,616	85,075	0	1010,54	5,8	8,1	7,9	1	1	1	1	1	1	1	1	1	0	1	-6,20155	273,26474	309,966113	0
15.01.2021	05:31:06	0	0	4,180507	2,2845	19,9296	-0,609	85,088	0	1010,66	5,8	8,1	7,8	1	1	1	1	1	1	1	1	1	0	1	-6,412967	273,172086	309,326109	0
15.01.2021	05:31:07	0	0	4,745383	2,109	11,7216	-0,608	85,085	0	1010,6	5,8	8,1	8	1	1	1	1	1	1	1	1	1	0	1	-8,668076	273,31052	307,711508	0
15.01.2021	05:31:08	0	0	4,858427	2,10075	10,8144	-0,61	85,083	0	1010,64	5,8	8,1	7,8	1	1	1	1	1	1	1	1	1	0	1	-5,637773	273,349231	310,921096	0
15.01.2021	05:31:09	0	0	5,310373	2,25075	14,0112	-0,614	85,082	0	1010,54	5,8	8,1	7,8	1	1	1	1	1	1	1	1	1	0	1	-7,399577	273,276175	308,821009	0
15.01.2021	05:31:10	0	0	2,711664	2,541	4,8492	-0,608	85,096	0	1010,76	5,8	8,1	7,9	1	1	1	1	1	1	1	1	1	0	1	-13,530655	273,367898	303,114693	0
15.01.2021	05:31:11	0	0	4,406454	2,6145	8,2656	-0,607	85,1	0	1010,74	5,9	8,1	7,9	1	1	1	1	1	1	1	1	1	0	1	-11,275546	273,21907	304,680807	0
15.01.2021	05:31:12	0	0	3,05064	2,613	21,7728	-0,606	85,103	0	1010,66	5,8	8,1	7,8	1	1	1	1	1	1	1	1	1	0	1	-6,20155	273,297633	310,118369	0
15.01.2021	05:31:13	0	0	3,276613	2,72475	18,8388	-0,605	85,099	0	1010,74	5,8	8,1	7,8	1	1	1	1	1	1	1	1	1	0	1	-3,59408	273,357844	313,00469	0
15.01.2021	05:31:14	0	0	3,72856	2,78175	22,842	-0,607	85,085	0	1010,64	5,9	8,1	7,8	1	1	1	1	1	1	1	1	1	0	1	-5,778717	273,221921	310,190825	0
15.01.2021	05:31:15	0	0	3,841524	2,89275	18,8424	-0,607	85,094	0	1010,46	5,8	8,1	7,9	1	1	1	1	1	1	1	1	1	0	1	-6,765328	273,184888	309,032941	0
15.01.2021	05:31:16	0	0	4,40648	2,9685	25,0272	-0,607	85,105	0	1010,68	5,8	8,1	7,8	1	1	1	1	1	1	1	1	1	0	1	-5,990134	273,357844	310,608636	0
15.01.2021	05:31:17	0	0	4,632453	3,10125	10,0512	-0,604	85,109	0	1010,6	5,8	8,1	7,8	1	1	1	1	1	1	1	1	1	0	1	-7,610994	273,304791	308,742067	0
15.01.2021	05:31:18	0	0	4,519467	3,32925	10,4544	-0,609	85,117	0	1010,62	5,8	8,1	7,8	1	1	1	1	1	1	1	1	1	0	1	-5,84919	273,352102	310,722978	0
15.01.2021	05:31:19	0	0	2,485692	3,198	10,4364	-0,605	85,106	0	1010,64	5,8	8,1	7,9	1	1	1	1	1	1	1	1	1	0	1	-6,906272	273,211944	309,017119	0
15.01.2021	05:31:20	0	0	2,711664	2,80725	29,1096	-0,61	85,097	0	1010,7	5,8	8,1	7,9	1	1	1	1	1	1	1	1	1	0	1	-5,144468	273,223347	310,83167	0
15.01.2021	05:31:21	0	0	3,050622	2,4825	10,4436	-0,613	85,087	0	1010,6	5,8	8,1	7,9	1	1	1	1	1	1	1	1	1	0	1	-5,285412	273,230477	310,723711	0
15.01.2021	05:31:22	0	0	3,728538	2,481	13,158	-0,607	85,119	0	1010,78	5,8	8,1	7,9	1	1	1	1	1	1	1	1	1	0	1	-4,651163	273,206245	311,245869	0
15.01.2021	05:31:23	0	0	3,728538	2,5395	12,1032	-0,611	85,114	0	1010,74	5,8	8,1	7,9	1	1	1	1	1	1	1	1	1	0	1	-4,721635	273,372208	311,943684	0
15.01.2021	05:31:24	0	0	4,067496	2,6535	12,8304	-0,605	85,13	0	1010,74	5,8	8,1	7,9	1	1	1	1	1	1	1	1	1	0	1	-10,782241	273,330583	305,690251	0
15.01.2021	05:31:25	0	0	4,067496	2,7885	18,4572	-0,605	85,118	0	1010,54	5,8	8,1	7,9	1	1	1	1	1	1	1	1	1	0	1	-2,184637	273,213369	313,745345	0
15.01.2021	05:31:26	0	0	3,841524	2,88975	5,22	-0,61	85,113	0	1010,58	5,8	8,1	7,9	1	1	1	1	1	1	1	1	1	0	1	-2,889359	273,353537	313,689458	0
15.01.2021	05:31:27	0	0	2,485692	2,784	354,0492	-0,607	85,098	0	1010,6	5,8	8,1	7,9	1	1	1	1	1	1	1	1	1	0	1	-8,104299	273,240464	307,95103	0
15.01.2021	05:31:28	0	0	2,937636	2,75025	9,3672	-0,607	85,106	0	1010,56	5,8	8,1	7,9	1	1	1	1	1	1	1	1	1	0	1	-1,832276	273,189157	313,985735	0
15.01.2021	05:31:29	0	0	2,485692	2,59725	358,7472	-0,603	85,119	0	1010,68	6	8,1	7,9	1	1	1	1	1	1	1	1	1	0	1	-3,382664	273,306223	312,977027	0
15.01.2021	05:31:30	0	0	2,937636	2,54025	46,5876	-0,612	85,117	0	1010,64	5,8	8,1	7,9	1	1	1	1	1	1	1	1	1	0	1	-8,104299	273,375082	308,574338	0
15.01.2021	05:31:31	0	0	5,0844	2,4165	13,554	-0,603	85,113	0	1010,7	5,8	8,1	7,8	1	1	1	1	1	1	1	1	1	0	1	-5,21494	273,294771	311,091727	0
15.01.2021	05:31:32	0	0	2,485707	2,41575	16,8444	-0,617	85,11	0	1010,54	5,8	8,1	7,8	1	1	1	1	1	1	1	1	1	0	1	-5,567301	273,201971	310,309968	0
15.01.2021	05:31:33	0	0	4,971384	2,40675	8,2692	-0,604	85,133	0	1010,8	5,8	8,1	7,9	1	1	1	1	1	1	1	1	1	0	1	-3,523608	273,339187	312,988738	0
15.01.2021	05:31:34	0	0	4,180507	2,418	6,4692	-0,606	85,116	0	1010,58	5,8	8,1	7,8	1	1	1	1	1	1	1	1	1	0	1	-5,567301	273,227625	310,428626	0
15.01.2021	05:31:35	0	0	2,485692	2,2665	10,0656	-0,608	85,117	0	1010,66	5,8	8,1	7,9	1	1	1	1	1	1	1	1	1	0	1	-0	273,370771	316,658662	0
15.01.2021	05:31:36	0	0	4,858398	2,2065	7,8876	-0,612	85,122	0	1010,64	5,8	8	7,9	1	1	1	1	1	1	1	1	1	0	1	-4,369274	273,291909	311,924143	0
15.01.2021	05:31:37	0	0	4,51944	2,25225	7,524	-0,605	85,135	0	1010,72	5,8	8,1	7,9	1	1	1	1	1	1	1	1	1	0	1	-2,255109	273,356409	314,337009	0
15.01.2021	05:31:38	0	0	3,276594	2,175	14,292	-0,606	85,134	0	1010,62	5,8	8,1	7,9	1	1	1	1	1	1	1	1	1	0	1	-2,466526	273,256169	313,66147	0
15.01.2021	05:31:39	0	0	4,51944	2,14575	355,0248	-0,603	85,12	0	1010,72	5,8	8,1	7,9	1	1	1	1	1	1	1	1	1	0	1	-2,677942	273,187734	313,133488	0
15.01.2021	05:31:40	0	0	4,745412	2,14725	25,4088	-0,604	85,134	0	1010,72	5,8	8	7,9	1	1	1	1	1	1	1	1	1	0	1	-7,047216	273,33345	309,438558	0
15.01.2021	05:31:41	0	0	3,276594	2,1465	2,646	-0,607	85,117	0	1010,7	5,8	8	7,9	1	1	1	1	1	1	1	1	1	0	1	-2,889359	273,307655	313,476962	0
15.01.2021	05:31:42	0	0	2,937653	2,2605	13,2516	-0,607	85,141	0	1010,58	5,8	8,1	7,8	1	1	1	1	1	1	1	1	1	0	1	-2,748414	273,189157	313,069597	0
15.01.2021	05:31:43	0	0	4,632453	2,32425	9,7452	-0,607	85,135	0	1010,68	5,8	8,1	7,8	1	1	1	1	1	1	1	1	1	0	1	-5,21494	273,249029	310,880017	0
15.01.2021	05:31:44	0	0	3,728538	2,3115	21,0132	-0,602	85,137	0	1010,66	5,8	8,1	7,9	1	1	1	1	1	1	1	1	1	0	1	-6,060606	273,362152	310,558122	0
15.01.2021	05:31:45	0	0	3,38958	2,2575	15,7824	-0,605	85,128	0	1010,76	5,8	8	7,9	1	1	1	1	1	1	1	1	1	0	1	-6,412967	273,213369	309,517015	0
15.01.2021	05:31:46	0	0	3,050622	2,25375	25,1028	-0,605	85,112	0	1010,58	5,8	8,1	7,9	1	1	1	1	1	1	1	1	1	0	1	-7,681466	273,26474	308,486197	0
15.01.2021	05:31:47	0	0	4,745412	2,31075	18,4392	-0,596	85,143	0	1010,72	6	8	7,9	1	1	1	1	1	1	1	1	1	0	1	-1,338971	273,200547	314,531711	0
15.01.2021	05:31:48	0	0	2,485692	2,41575	19,5192	-0,604	85,141	0	1010,68	5,8	8,1	7,9	1	1	1	1	1	1	1	1	1	0	1	-3,523608	273,224773	312,459125	0
15.01.2021	05:31:49	0	0	4,180482	2,52825	13,914	-0,601	85,151	0	1010,7	5,8	8	7,9	1	1	1	1	1	1	1	1	1	0	1	-6,906272	273,369335	309,745733	0
15.01.2021	05:31:50	0	0	2,711664	2,65275	12,0816	-0,607	85,13	0	1010,68	5,8	8,1	7,9	1	1	1	1	1	1	1	1	1	0	1	-4,933051	273,214794	311,003522	0
15.01.2021	05:31:51	0	0	4,40648	2,70075	23,2164	-0,603	85,13	0	1010,84	5,8	8	7,8	1	1	1	1	1	1	1	1	1	0	1	-2,325581	273,356409	314,266537	0
15.01.2021	05:31:52	0	0	4,51944	2,64675	31,0104	-0,604	85,143	0	1010,54	5,8	8,1	7,9	1	1	1	1	1	1	1	1	1	0	1	-3,875969	273,183465	311,915721	0
15.01.2021	05:31:53	0	0	3,050622	2,3955	22,0824	-0,603	85,139	0	1010,56	5,8	8,1	7,9	1	1	1	1	1	1	1	1	1	0	1	-6,060606	273,230477	309,948517	0
15.01.2021	05:31:54	0	0	4,632453	2,22825	24,732	-0,603	85,14	0	1010,6	5,8	8	7,8	1	1	1	1	1	1	1	1	1	0	1	-2,255109	273,241891	313,806823	0
15.01.2021	05:31:55	0	0	5,0844	2,0115	24,7104	-0,606	85,137	0	1010,58	5,8	8	7,8	1	1	1	1	1	1	1	1	1	0	1	-4,157858	273,337753	312,347844	0
15.01.2021	05:31:56	0	0	3,841524	1,91475	27,9756	-0,605	85,148	0	1010,64	5,8	8	7,9	1	1	1	1	1	1	1	1	1	0	1	-5,073996	273,31625	311,332121	0
15.01.2021	05:31:57	0	0	2,711664	1,82925	20,6352	-0,6	85,148	0	1010,62	5,8	8,1	7,9	1	1	1	1	1	1	1	1	1	0	1	-4,862579	273,183465	310,92911	0
15.01.2021	05:31:58	0	0	4,858427	1,78875	22,464	-0,605	85,148	0	1010,58	5,8	8,1	7,8	1	1	1	1	1	1	1	1	1	0	1	-7,963354	273,320549	308,462669	0
15.01.2021	05:31:59	0	0	4,406454	1,8015	25,7832	-0,601	85,151	0	1010,66	5,8	8,1	7,9	1	1	1	1	1	1	1	1	1	0	1	-4,933051	273,23333	311,089271	0
15.01.2021	05:32:00	0	0	4,745412	1,758	22,086	-0,601	85,149	0	1010,66	5,8	8,1	7,9	1	1	1	1	1	1	1	1	1	0	1	-6,553911	273,299065	309,772635	0
15.01.2021	05:32:01	0	0	4,745412	1,758	22,086	-0,601	85,149	0	1010,66	5,8	8,1	7,9	1	1	1	1	1	1	1	1	1	0	1	-6,553911	273,299065	309,772635	0
15.01.2021	05:32:02	0	0	3,276594	1,92	360	-0,599	85,156	0	1010,76	5,8	8,1	7,9	1	1	1	1	1	1	1	1	1	0	1	-5,426357	273,257597	310,708249	0
15.01.2021	05:32:03	0	0	4,067496	2,08425	10,8144	-0,606	85,143	0	1010,84	5,8	8	7,9	1	1	1	1	1	1	1	1	1	0	1	-0,211416	273,221921	315,758126	0
15.01.2021	05:32:04	0	0	4,745412	2,28525	4,8456	-0,603	85,175	0	1010,68	5,8	8,1	7,9	1	1	1	1	1	1	1	1	1	0	1	-10,007047	273,257597	306,127559	0
15.01.2021	05:32:05	0	0	2,711664	2,688	8,6004	-0,606	85,156	0	1010,52	5,8	8	7,9	1	1	1	1	1	1	1	1	1	0	1	-5,144468	273,370771	311,514194	0
15.01.2021	05:32:06	0	0	3,841524	3,0075	12,474	-0,597	85,161	0	1010,58	5,8	8,1	7,9	1	1	1	1	1	1	1	1	1	0	1	-6,8358	273,260454	309,312027	0
15.01.2021	05:32:07	0	0	2,937636	3,2175	8,2872	-0,601	85,157	0	1010,72	6	8	7,9	1	1	1	1	1	1	1	1	1	0	1	-6,060606	273,357844	310,538164	0
15.01.2021	05:32:08	0	0	2,485692	3,3285	8,352	-0,604	85,159	0	1010,76	5,8	8,1	7,9	1	1	1	1	1	1	1	1	1	0	1	-4,580691	273,342057	311,944945	0
15.01.2021	05:32:09	0	0	3,615552	3,228	3,0312	-0,607	85,175	0	1010,7	5,9	8,1	7,9	1	1	1	1	1	1	1	1	1	0	1	-8,174771	273,31625	308,231346	0
15.01.2021	05:32:10	0	0	4,632426	3,05025	4,842	-0,607	85,163	0	1010,72	5,9	8	7,9	1	1	1	1	1	1	1	1	1	0	1	-7,188161	273,194851	308,656181	0
15.01.2021	05:32:11	0	0	5,197355	2,88975	15,4008	-0,602	85,15	0	1010,68	5,8	8	7,9	1	1	1	1	1	1	1	1	1	0	1	-1,479915	273,273316	314,727436	0
15.01.2021	05:32:12	0	0	3,728538	2,90475	9,0108	-0,602	85,142	0	1010,6	5,8	8	7,9	1	1	1	1	1	1	1	1	1	0	1	-1,338971	273,362152	315,279757	0
15.01.2021	05:32:13	0	0	3,163608	2,97825	9,3636	-0,6	85,173	0	1010,7	5,8	8,1	7,9	1	1	1	1	1	1	1	1	1	0	1	-3,523608	273,210519	312,393192	0
15.01.2021	05:32:14	0	0	4,632426	3,06975	9	-0,599	85,161	0	1010,64	6	8,1	7,9	1	1	1	1	1	1	1	1	1	0	1	-5,073996	273,300496	311,259178	0
15.01.2021	05:32:15	0	0	3,38958	3,14925	21,0276	-0,596	85,166	0	1010,74	5,8	8	7,9	1	1	1	1	1	1	1	1	1	0	1	-6,976744	273,211944	308,946647	0
15.01.2021	05:32:16	0	0	2,82465	2,88975	15,3972	-0,597	85,157	0	1010,6	5,8	8,1	7,9	1	1	1	1	1	1	1	1	1	0	1	-7,258633	273,203396	308,625223	0
15.01.2021	05:32:17	0	0	4,406454	2,694	24,3468	-0,599	85,171	0	1010,62	5,8	8	7,9	1	1	1	1	1	1	1	1	1	0	1	-5,003524	273,31052	311,37606	0
15.01.2021	05:32:18	0	0	5,649299	2,562	23,9652	-0,597	85,17	0	1010,6	5,8	8	7,9	1	1	1	1	1	1	1	1	1	0	1	-7,188161	273,31625	309,217957	0
15.01.2021	05:32:19	0	0	3,95451	2,52225	29,1024	-0,597	85,17	0	1010,62	5,8	8	7,9	1	1	1	1	1	1	1	1	1	0	1	-8,949965	273,214794	306,986609	0
15.01.2021	05:32:20	0	0	4,180482	2,44275	34,3368	-0,595	85,166	0	1010,7	5,8	8	7,9	1	1	1	1	1	1	1	1	1	0	1	-2,60747	273,179197	313,164485	0
15.01.2021	05:32:21	0	0	4,293468	2,27025	35,082	-0,598	85,177	0	1010,72	5,8	8	7,9	1	1	1	1	1	1	1	1	1	0	1	-8,033827	273,267598	308,147064	0
15.01.2021	05:32:22	0	0	3,050622	2,12925	31,014	-0,578	85,192	0	1010,76	5,8	8	7,9	1	1	1	1	1	1	1	1	1	0	1	-5,073996	273,366461	311,564697	0
15.01.2021	05:32:23	0	0	5,084369	2,25825	32,8644	-0,599	85,184	0	1010,76	6	8,1	7,9	1	1	1	1	1	1	1	1	1	0	1	-6,765328	273,336319	309,733731	0
15.01.2021	05:32:24	0	0	3,728538	2,3235	34,3188	-0,605	85,172	0	1010,54	5,8	8	7,9	1	1	1	1	1	1	1	1	1	0	1	-3,875969	273,33345	312,609805	0
15.01.2021	05:32:25	0	0	4,293468	2,2875	24,3324	-0,598	85,172	0	1010,52	5,8	8	7,9	1	1	1	1	1	1	1	1	1	0	1	-3,523608	273,197699	312,333902	0
15.01.2021	05:32:26	0	0	2,598678	2,2575	25,2504	-0,6	85,175	0	1010,7	6	8	7,9	1	1	1	1	1	1	1	1	1	0	1	-6,8358	273,320549	309,590224	0
15.01.2021	05:32:27	0	0	2,82465	2,19525	15,0408	-0,601	85,151	0	1010,4	5,9	8,1	7,9	1	1	1	1	1	1	1	1	1	0	1	-8,45666	273,187734	307,35477	0
15.01.2021	05:32:28	0	0	3,276594	2,13975	21,0096	-0,602	85,182	0	1010,7	5,8	8	7,9	1	1	1	1	1	1	1	1	1	0	1	-3,312192	273,263311	312,848859	0
15.01.2021	05:32:29	0	0	4,180482	2,15625	22,5432	-0,596	85,176	0	1010,74	5,8	8,1	7,9	1	1	1	1	1	1	1	1	1	0	1	-5,21494	273,356409	311,377178	0
15.01.2021	05:32:30	0	0	4,51944	2,361	21,3876	-0,599	85,154	0	1010,56	5,8	8	7,9	1	1	1	1	1	1	1	1	1	0	1	-4,792107	273,307655	311,574214	0
15.01.2021	05:32:31	0	0	2,598678	2,337	16,4808	-0,598	85,178	0	1010,74	5,8	8	7,9	1	1	1	1	1	1	1	1	1	0	1	-3,805497	273,346361	312,740077	0
15.01.2021	05:32:32	0	0	3,050622	2,53575	25,4124	-0,594	85,182	0	1010,76	5,8	8	7,9	1	1	1	1	1	1	1	1	1	0	1	-4,087385	273,217644	311,862374	0
15.01.2021	05:32:33	0	0	4,632426	2,664	19,9116	-0,603	85,179	0	1010,66	5,8	8	7,9	1	1	1	1	1	1	1	1	1	0	1	-5,073996	273,274745	311,139973	0
15.01.2021	05:32:34	0	0	3,95451	2,66775	20,2932	-0,597	85,175	0	1010,62	5,8	8	7,9	1	1	1	1	1	1	1	1	1	0	1	-6,8358	273,196275	309,015126	0
15.01.2021	05:32:35	0	0	4,406454	2,6445	14,31	-0,599	85,176	0	1010,44	5,8	8	7,9	1	1	1	1	1	1	1	1	1	0	1	-1,761804	273,276175	314,458782	0
15.01.2021	05:32:36	0	0	4,858398	2,7105	23,5872	-0,601	85,168	0	1010,72	5,8	8	7,9	1	1	1	1	1	1	1	1	1	0	1	-7,540521	273,213369	308,389461	0
15.01.2021	05:32:37	0	0	3,163608	2,7645	9,0828	-0,601	85,178	0	1010,6	5,8	8	7,9	1	1	1	1	1	1	1	1	1	0	1	-4,298802	273,211944	311,624589	0
15.01.2021	05:32:38	0	0	2,937636	2,73675	16,8732	-0,605	85,182	0	1010,64	5,8	8	7,9	1	1	1	1	1	1	1	1	1	0	1	-4,721635	273,289047	311,558535	0
15.01.2021	05:32:39	0	0	3,841524	2,862	25,0452	-0,594	85,18	0	1010,74	5,8	8	7,9	1	1	1	1	1	1	1	1	1	0	1	-4,580691	273,35928	312,024732	0
15.01.2021	05:32:40	0	0	5,084369	2,77575	10,0584	-0,602	85,183	0	1010,64	5,8	8	7,9	1	1	1	1	1	1	1	1	1	0	1	-4,369274	273,332016	312,109859	0
15.01.2021	05:32:41	0	0	2,937636	2,691	12,4776	-0,6	85,169	0	1010,84	5,8	8	7,9	1	1	1	1	1	1	1	1	1	0	1	-8,104299	273,344926	308,434628	0
15.01.2021	05:32:42	0	0	4,51944	2,50575	8,2836	-0,6	85,171	0	1010,76	5,8	8	7,9	1	1	1	1	1	1	1	1	1	0	1	-1,550388	273,352102	315,02178	0
15.01.2021	05:32:43	0	0	4,971384	2,40375	13,1724	-0,603	85,186	0	1010,58	5,8	8	7,9	1	1	1	1	1	1	1	1	1	0	1	-7,540521	273,346361	309,005052	0
15.01.2021	05:32:44	0	0	2,711664	2,295	15,858	-0,607	85,179	0	1010,46	5,8	8	7,9	1	1	1	1	1	1	1	1	1	0	1	-7,399577	273,244746	308,675563	0
15.01.2021	05:32:45	0	0	5,084369	2,2725	3,0348	-0,603	85,181	0	1010,66	5,8	8	7,9	1	1	1	1	1	1	1	1	1	0	1	-4,862579	273,16782	310,856776	0
15.01.2021	05:32:46	0	0	2,82465	2,181	17,2404	-0,598	85,184	0	1010,74	5,8	8,1	7,9	1	1	1	1	1	1	1	1	1	0	1	-3,100775	273,309087	313,272177	0
15.01.2021	05:32:47	0	0	4,180482	2,36175	31,7664	-0,599	85,184	0	1010,7	5,8	8	7,9	1	1	1	1	1	1	1	1	1	0	1	-4,016913	273,365025	312,615124	0
15.01.2021	05:32:48	0	0	3,615552	2,62425	22,8528	-0,602	85,179	0	1010,48	5,8	8	7,9	1	1	1	1	1	1	1	1	1	0	1	-6,131078	273,334885	310,361338	0
15.01.2021	05:32:49	0	0	4,858398	2,706	19,9188	-0,606	85,184	0	1010,68	6	8	7,9	1	1	1	1	1	1	1	1	1	0	1	-3,100775	273,250457	313,000788	0
15.01.2021	05:32:50	0	0	3,728538	2,81325	28,7352	-0,599	85,191	0	1010,74	5,8	8,1	7,9	1	1	1	1	1	1	1	1	1	0	1	-3,453136	273,196275	312,39779	0
15.01.2021	05:32:51	0	0	4,858398	2,92125	12,096	-0,604	85,177	0	1010,56	5,8	8	7,9	1	1	1	1	1	1	1	1	1	0	1	-1,691332	273,300496	314,641842	0
15.01.2021	05:32:52	0	0	3,276594	2,96625	8,6184	-0,603	85,195	0	1010,68	5,8	8	7,9	1	1	1	1	1	1	1	1	1	0	1	-7,047216	273,217644	308,902543	0
15.01.2021	05:32:53	0	0	4,858398	2,916	48,1356	-0,596	85,193	0	1010,82	5,8	8	7,9	1	1	1	1	1	1	1	1	1	0	1	-7,470049	273,250457	308,631514	0
15.01.2021	05:32:54	0	0	3,841524	3,05925	27,288	-0,602	85,18	0	1010,76	5,8	8	7,9	1	1	1	1	1	1	1	1	1	0	1	-7,470049	273,356409	309,122069	0
15.01.2021	05:32:55	0	0	4,406454	3,141	8,37	-0,595	85,195	0	1010,7	5,8	8	7,9	1	1	1	1	1	1	1	1	1	0	1	-3,805497	273,324848	312,640438	0
15.01.2021	05:32:56	0	0	3,502566	3,2145	16,1064	-0,606	85,184	0	1010,68	5,8	8	7,9	1	1	1	1	1	1	1	1	1	0	1	-2,748414	273,31625	313,657703	0
15.01.2021	05:32:57	0	0	3,615552	3,3435	19,1448	-0,595	85,205	0	1010,78	5,8	8	7,9	1	1	1	1	1	1	1	1	1	0	1	-2,255109	273,184888	313,54316	0
15.01.2021	05:32:58	0	0	4,406454	3,126	15,408	-0,595	85,192	0	1010,6	6	8	7,9	1	1	1	1	1	1	1	1	1	0	1	-1,479915	273,301928	314,859887	0
15.01.2021	05:32:59	0	0	3,050622	3,16425	6,444	-0,596	85,208	0	1010,68	5,8	8	7,9	1	1	1	1	1	1	1	1	1	0	1	-2,043693	273,375082	314,634944	0
15.01.2021	05:33:00	0	0	3,615552	3,0885	14,6592	-0,598	85,187	0	1010,66	5,8	8	7,9	1	1	1	1	1	1	1	1	1	0	1	-3,735025	273,214794	312,201549	0
15.01.2021	05:33:01	0	0	3,615552	3,0885	14,6592	-0,598	85,187	0	1010,66	5,8	8	7,9	1	1	1	1	1	1	1	1	1	0	1	-3,735025	273,214794	312,201549	0
15.01.2021	05:33:02	0	0	3,163608	3,102	13,9104	-0,596	85,19	0	1010,84	5,8	8	7,9	1	1	1	1	1	1	1	1	1	0	1	-2,325581	273,190581	313,499011	0
15.01.2021	05:33:03	0	0	4,067496	3,14625	8,9928	-0,601	85,2	0	1010,7	5,8	8	7,9	1	1	1	1	1	1	1	1	1	0	1	-2,818887	273,221921	313,150656	0
15.01.2021	05:33:04	0	0	3,95451	3,129	10,836	-0,597	85,199	0	1010,74	5,8	8	7,9	1	1	1	1	1	1	1	1	1	0	1	-2,60747	273,199123	313,256626	0
15.01.2021	05:33:05	0	0	3,502566	3,21525	20,286	-0,602	85,204	0	1010,8	5,8	8	7,9	1	1	1	1	1	1	1	1	1	0	1	-4,721635	273,260454	311,426192	0
15.01.2021	05:33:06	0	0	2,598678	3,195	26,8992	-0,596	85,189	0	1010,72	5,8	8	7,9	1	1	1	1	1	1	1	1	1	0	1	-5,355884	273,353537	311,222933	0
15.01.2021	05:33:07	0	0	4,858398	3,0885	19,656	-0,594	85,209	0	1010,64	5,8	8	7,9	1	1	1	1	1	1	1	1	1	0	1	-3,664553	273,330583	312,80794	0
15.01.2021	05:33:08	0	0	3,841524	3,021	23,2128	-0,6	85,201	0	1010,54	5,8	8	7,9	1	1	1	1	1	1	1	1	1	0	1	-2,466526	273,287616	313,807021	0
15.01.2021	05:33:09	0	0	3,841524	3,2295	8,262	-0,597	85,208	0	1010,76	5,8	8	7,9	1	1	1	1	1	1	1	1	1	0	1	-5,637773	273,190581	310,18682	0
15.01.2021	05:33:10	0	0	2,82465	3,3525	24,3792	-0,602	85,205	0	1010,58	5,8	8	7,9	1	1	1	1	1	1	1	1	1	0	1	-5,496829	273,33345	310,988946	0
15.01.2021	05:33:11	0	0	3,163608	3,33675	9,3636	-0,599	85,215	0	1010,66	5,8	8	7,9	1	1	1	1	1	1	1	1	1	0	1	-5,073996	273,291909	311,219422	0
15.01.2021	05:33:12	0	0	4,858398	3,309	15,4188	-0,598	85,213	0	1010,6	5,8	8	7,9	1	1	1	1	1	1	1	1	1	0	1	-4,721635	273,209094	311,188575	0
15.01.2021	05:33:13	0	0	2,937636	3,1665	20,2788	-0,599	85,215	0	1010,68	5,8	8	7,9	1	1	1	1	1	1	1	1	1	0	1	-7,82241	273,221921	308,147132	0
15.01.2021	05:33:14	0	0	4,180482	2,8215	21,0024	-0,599	85,197	0	1010,68	6	8	7,9	1	1	1	1	1	1	1	1	1	0	1	-6,976744	273,251884	309,131427	0
15.01.2021	05:33:15	0	0	3,841524	2,83275	21,3876	-0,598	85,222	0	1010,64	5,8	8	7,9	1	1	1	1	1	1	1	1	1	0	1	-5,144468	273,377957	311,547488	0
15.01.2021	05:33:16	0	0	2,598693	2,8515	4,0824	-0,598	85,211	0	1010,64	5,8	8	7,8	1	1	1	1	1	1	1	1	1	0	1	-4,580691	273,259025	311,560526	0
15.01.2021	05:33:17	0	0	4,067496	2,835	9,4716	-0,597	85,219	0	1010,62	5,9	8	7,9	1	1	1	1	1	1	1	1	1	0	1	-3,523608	273,213369	312,406374	0
15.01.2021	05:33:18	0	0	3,163608	2,8125	25,4124	-0,599	85,217	0	1010,74	5,8	8	7,9	1	1	1	1	1	1	1	1	1	0	1	-9,795631	273,203396	306,088225	0
15.01.2021	05:33:19	0	0	3,163608	2,7	13,5576	-0,596	85,209	0	1010,48	5,8	8	7,9	1	1	1	1	1	1	1	1	1	0	1	-2,748414	273,286186	313,518511	0
15.01.2021	05:33:20	0	0	3,95451	2,79675	22,8348	-0,606	85,215	0	1010,66	5,8	8	7,9	1	1	1	1	1	1	1	1	1	0	1	-8,174771	273,37652	308,510525	0
15.01.2021	05:33:21	0	0	4,858398	2,77575	21,1032	-0,602	85,218	0	1010,72	5,8	8	7,9	1	1	1	1	1	1	1	1	1	0	1	-3,030303	273,240464	313,025026	0
15.01.2021	05:33:22	0	0	3,841524	2,6625	16,8588	-0,596	85,22	0	1010,64	5,8	8	7,9	1	1	1	1	1	1	1	1	1	0	1	-6,8358	273,201971	309,041469	0
15.01.2021	05:33:23	0	0	4,067496	2,6235	16,1028	-0,594	85,222	0	1010,76	5,8	8	7,9	1	1	1	1	1	1	1	1	1	0	1	-4,510218	273,354973	312,075249	0
15.01.2021	05:33:24	0	0	2,033748	2,484	20,2788	-0,597	85,22	0	1010,68	6	8	7,9	1	1	1	1	1	1	1	1	1	0	1	-6,553911	273,240464	309,501418	0
15.01.2021	05:33:25	0	0	3,163608	2,634	20,6352	-0,597	85,233	0	1010,78	6	8	7,9	1	1	1	1	1	1	1	1	1	0	1	-8,386187	273,209094	307,524023	0
15.01.2021	05:33:26	0	0	3,050622	2,66775	19,512	-0,595	85,215	0	1010,66	5,8	8	7,9	1	1	1	1	1	1	1	1	1	0	1	-3,59408	273,241891	312,467852	0
15.01.2021	05:33:27	0	0	2,937636	2,60775	16,4772	-0,599	85,231	0	1010,62	5,8	8	7,9	1	1	1	1	1	1	1	1	1	0	1	-4,580691	273,313385	311,812159	0
15.01.2021	05:33:28	0	0	5,197355	2,637	18,0792	-0,599	85,227	0	1010,68	5,9	8	7,9	1	1	1	1	1	1	1	1	1	0	1	-5,285412	273,366461	311,35328	0
15.01.2021	05:33:29	0	0	2,937636	2,808	13,5288	-0,603	85,227	0	1010,68	6	8	7,9	1	1	1	1	1	1	1	1	1	0	1	-6,906272	273,321982	309,526388	0
15.01.2021	05:33:30	0	0	3,841524	2,91825	17,2296	-0,593	85,215	0	1010,74	5,8	8	7,9	1	1	1	1	1	1	1	1	1	0	1	-3,59408	273,197699	312,26343	0
15.01.2021	05:33:31	0	0	4,180482	3,0645	8,262	-0,601	85,224	0	1010,56	5,8	8	7,9	1	1	1	1	1	1	1	1	1	0	1	-5,84919	273,337753	310,656513	0
15.01.2021	05:33:32	0	0	4,406454	3,22275	6,066	-0,602	85,226	0	1010,64	5,8	8	7,9	1	1	1	1	1	1	1	1	1	0	1	-0,070472	273,377957	316,621484	0
15.01.2021	05:33:33	0	0	3,502566	3,4185	4,8384	-0,59	85,234	0	1010,74	6	8	7,9	1	1	1	1	1	1	1	1	1	0	1	-9,302326	273,214794	306,634248	0
15.01.2021	05:33:34	0	0	4,971384	3,5175	6,084	-0,595	85,239	0	1010,68	5,8	8	7,9	1	1	1	1	1	1	1	1	1	0	1	-9,654686	273,321982	306,777974	0
15.01.2021	05:33:35	0	0	4,632426	3,50025	16,0956	-0,602	85,238	0	1010,66	5,9	8	7,9	1	1	1	1	1	1	1	1	1	0	1	-5,567301	273,31625	310,838816	0
15.01.2021	05:33:36	0	0	2,937636	3,40275	19,1484	-0,596	85,24	0	1010,72	5,8	8	7,9	1	1	1	1	1	1	1	1	1	0	1	-6,412967	273,377957	310,278989	0
15.01.2021	05:33:37	0	0	3,050622	3,13575	19,9044	-0,597	85,238	0	1010,82	5,8	8	7,9	1	1	1	1	1	1	1	1	1	0	1	-3,664553	273,311952	312,721664	0
15.01.2021	05:33:38	0	0	3,728538	3,09075	7,8912	-0,599	85,248	0	1010,68	5,9	8	7,9	1	1	1	1	1	1	1	1	1	0	1	-9,020437	273,377957	307,671519	0
15.01.2021	05:33:39	0	0	4,858398	3,14175	9,8244	-0,6	85,233	0	1010,74	5,9	8	7,9	1	1	1	1	1	1	1	1	1	0	1	-3,946441	273,290478	312,340352	0
15.01.2021	05:33:40	0	0	4,293468	3,1815	19,1556	-0,593	85,236	0	1010,7	5,8	8	7,9	1	1	1	1	1	1	1	1	1	0	1	-7,540521	273,200547	308,33016	0
15.01.2021	05:33:41	0	0	2,937636	3,189	14,3028	-0,596	85,243	0	1010,66	5,9	8	7,9	1	1	1	1	1	1	1	1	1	0	1	-7,470049	273,200547	308,400633	0
15.01.2021	05:33:42	0	0	3,728538	3,141	21,3804	-0,597	85,232	0	1010,76	6	8	7,9	1	1	1	1	1	1	1	1	1	0	1	-2,889359	273,277605	313,337845	0
15.01.2021	05:33:43	0	0	3,38958	2,937	13,554	-0,594	85,246	0	1010,58	5,8	8	7,9	1	1	1	1	1	1	1	1	1	0	1	-5,990134	273,372208	310,675185	0
15.01.2021	05:33:44	0	0	2,937653	2,80275	15,7824	-0,592	85,242	0	1010,66	6	8	7,8	1	1	1	1	1	1	1	1	1	0	1	-5,144468	273,257597	310,990138	0
15.01.2021	05:33:45	0	0	4,180482	2,73525	9,3744	-0,592	85,25	0	1010,58	5,8	8	7,9	1	1	1	1	1	1	1	1	1	0	1	-4,933051	273,334885	311,559365	0
15.01.2021	05:33:46	0	0	3,615552	2,60475	13,1688	-0,594	85,224	0	1010,7	5,8	8	7,9	1	1	1	1	1	1	1	1	1	0	1	-2,818887	273,383707	313,899716	0
15.01.2021	05:33:47	0	0	3,95451	2,67525	3,42	-0,591	85,25	0	1010,74	5,9	8	7,9	1	1	1	1	1	1	1	1	1	0	1	-8,104299	273,279035	308,129524	0
15.01.2021	05:33:48	0	0	4,51944	2,89575	2,6604	-0,592	85,236	0	1010,64	5,9	8	7,9	1	1	1	1	1	1	1	1	1	0	1	-4,369274	273,370771	312,289388	0
15.01.2021	05:33:49	0	0	3,615552	2,9805	13,9176	-0,597	85,248	0	1010,54	5,9	8	7,9	1	1	1	1	1	1	1	1	1	0	1	-4,157858	273,367898	312,487491	0
15.01.2021	05:33:50	0	0	3,050622	2,865	3,7836	-0,599	85,261	0	1010,58	5,9	8	7,9	1	1	1	1	1	1	1	1	1	0	1	-5,637773	273,329149	310,828079	0
15.01.2021	05:33:51	0	0	4,632426	2,91525	359,0928	-0,592	85,247	0	1010,74	6	8	7,9	1	1	1	1	1	1	1	1	1	0	1	-1,550388	273,206245	314,346644	0
15.01.2021	05:33:52	0	0	5,197355	2,757	17,7012	-0,591	85,251	0	1010,64	5,8	8	7,9	1	1	1	1	1	1	1	1	1	0	1	-4,157858	273,327715	312,301355	0
15.01.2021	05:33:53	0	0	3,502587	2,51325	36,684	-0,591	85,247	0	1010,74	5,9	8	7,8	1	1	1	1	1	1	1	1	1	0	1	-2,959831	273,350666	313,605687	0
15.01.2021	05:33:54	0	0	2,711664	2,31225	27,2736	-0,594	85,247	0	1010,64	5,8	8	7,9	1	1	1	1	1	1	1	1	1	0	1	-1,691332	273,21907	314,265021	0
15.01.2021	05:33:55	0	0	3,841524	2,35575	14,652	-0,597	85,245	0	1010,54	6	8	7,9	1	1	1	1	1	1	1	1	1	0	1	-0,98661	273,259025	315,154606	0
15.01.2021	05:33:56	0	0	3,841524	2,57925	3,024	-0,598	85,239	0	1010,6	5,9	8	7,9	1	1	1	1	1	1	1	1	1	0	1	-1,338971	273,382269	315,372969	0
15.01.2021	05:33:57	0	0	3,3896	3,063	357,6096	-0,594	85,247	0	1010,74	5,8	8	7,8	1	1	1	1	1	1	1	1	1	0	1	-2,396054	273,231904	313,619669	0
15.01.2021	05:33:58	0	0	4,745412	3,246	18,072	-0,593	85,243	0	1010,72	5,8	8	7,9	1	1	1	1	1	1	1	1	1	0	1	-5,21494	273,332016	311,264193	0
15.01.2021	05:33:59	0	0	2,711664	3,04125	9,0144	-0,591	85,251	0	1010,68	6	8	7,9	1	1	1	1	1	1	1	1	1	0	1	-5,708245	273,21907	310,248108	0
15.01.2021	05:34:00	0	0	4,51944	3,05325	8,2836	-0,595	85,26	0	1010,7	5,9	8	7,9	1	1	1	1	1	1	1	1	1	0	1	-3,946441	273,37652	312,738855	0
15.01.2021	05:34:01	0	0	4,51944	3,05325	8,2836	-0,595	85,26	0	1010,7	5,9	8	7,9	1	1	1	1	1	1	1	1	1	0	1	-3,946441	273,37652	312,738855	0
15.01.2021	05:34:02	0	0	4,180507	2,95425	18,4536	-0,596	85,254	0	1010,74	6	8	7,8	1	1	1	1	1	1	1	1	1	0	1	-1,409443	273,37652	315,275853	0
15.01.2021	05:34:03	0	0	5,310341	2,949	18,8424	-0,592	85,254	0	1010,64	5,9	8	7,9	1	1	1	1	1	1	1	1	1	0	1	-4,157858	273,301928	312,181945	0
15.01.2021	05:34:04	0	0	3,502587	2,934	25,0236	-0,59	85,255	0	1010,66	5,9	8	7,8	1	1	1	1	1	1	1	1	1	0	1	-2,889359	273,206245	313,007673	0
15.01.2021	05:34:05	0	0	4,180507	2,9595	19,998	-0,596	85,255	0	1010,68	5,9	8	7,8	1	1	1	1	1	1	1	1	1	0	1	-3,59408	273,365025	313,037957	0
15.01.2021	05:34:06	0	0	3,163608	3,168	21,7764	-0,596	85,258	0	1010,74	5,9	8	7,9	1	1	1	1	1	1	1	1	1	0	1	-3,312192	273,260454	312,835635	0
15.01.2021	05:34:07	0	0	4,632426	3,31725	31,4064	-0,587	85,233	0	1010,56	6	8	7,9	1	1	1	1	1	1	1	1	1	0	1	-2,60747	273,206245	313,289562	0
15.01.2021	05:34:08	0	0	4,067496	3,32325	31,3884	-0,588	85,26	0	1010,68	5,9	8	7,9	1	1	1	1	1	1	1	1	1	0	1	-1,479915	273,31052	314,899669	0
15.01.2021	05:34:09	0	0	2,82465	3,006	31,014	-0,59	85,269	0	1010,74	5,9	8	7,9	1	1	1	1	1	1	1	1	1	0	1	-3,875969	273,196275	311,974957	0
15.01.2021	05:34:10	0	0	3,163627	2,79975	27,6516	-0,591	85,26	0	1010,76	5,8	8	7,8	1	1	1	1	1	1	1	1	1	0	1	-3,875969	273,344926	312,662958	0
15.01.2021	05:34:11	0	0	4,858398	2,679	23,2128	-0,597	85,26	0	1010,64	5,9	8	7,9	1	1	1	1	1	1	1	1	1	0	1	-3,171247	273,33345	313,314527	0
15.01.2021	05:34:12	0	0	4,519467	2,586	20,2752	-0,594	85,269	0	1010,8	5,8	8	7,8	1	1	1	1	1	1	1	1	1	0	1	-1,198027	273,37652	315,487269	0
15.01.2021	05:34:13	0	0	5,310341	2,55	17,694	-0,591	85,255	0	1010,82	5,8	8	7,9	1	1	1	1	1	1	1	1	1	0	1	-4,439746	273,320549	311,986277	0
15.01.2021	05:34:14	0	0	4,632453	2,44275	15,0588	-0,59	85,271	0	1010,72	5,9	8	7,8	1	1	1	1	1	1	1	1	1	0	1	-5,637773	273,210519	310,279027	0
15.01.2021	05:34:15	0	0	4,632426	2,4285	21,384	-0,59	85,259	0	1010,66	6	8	7,9	1	1	1	1	1	1	1	1	1	0	1	-2,466526	273,214794	313,470048	0
15.01.2021	05:34:16	0	0	4,40648	2,58525	23,2092	-0,597	85,26	0	1010,66	5,9	8	7,8	1	1	1	1	1	1	1	1	1	0	1	-5,21494	273,257597	310,919666	0
15.01.2021	05:34:17	0	0	4,745412	2,63625	21,0168	-0,599	85,271	0	1010,68	5,9	8	7,9	1	1	1	1	1	1	1	1	1	0	1	-8,245243	273,250457	307,85632	0
15.01.2021	05:34:18	0	0	3,841524	2,742	25,0272	-0,59	85,26	0	1010,74	5,9	8	7,9	1	1	1	1	1	1	1	1	1	0	1	-6,976744	273,216219	308,966422	0
15.01.2021	05:34:19	0	0	3,841501	2,6955	35,478	-0,593	85,281	0	1010,68	5,8	8	8	1	1	1	1	1	1	1	1	1	0	1	-8,104299	273,33345	308,381476	0
15.01.2021	05:34:20	0	0	2,82465	2,50725	36,684	-0,592	85,268	0	1010,68	5,9	8	7,9	1	1	1	1	1	1	1	1	1	0	1	-5,285412	273,373645	311,386565	0
15.01.2021	05:34:21	0	0	4,632426	2,31075	23,5872	-0,596	85,261	0	1010,58	5,9	8	7,9	1	1	1	1	1	1	1	1	1	0	1	-7,117689	273,313385	309,275161	0
15.01.2021	05:34:22	0	0	5,0844	2,2275	21,7656	-0,595	85,258	0	1010,76	5,9	8	7,8	1	1	1	1	1	1	1	1	1	0	1	-2,043693	273,326282	314,408881	0
15.01.2021	05:34:23	0	0	2,937636	2,1675	20,2788	-0,588	85,274	0	1010,82	5,9	8	7,9	1	1	1	1	1	1	1	1	1	0	1	-4,016913	273,244746	312,058227	0
15.01.2021	05:34:24	0	0	5,084369	2,223	17,7192	-0,59	85,26	0	1010,6	5,8	8	7,9	1	1	1	1	1	1	1	1	1	0	1	-1,691332	273,23333	314,33099	0
15.01.2021	05:34:25	0	0	4,971384	2,32575	18,0936	-0,594	85,274	0	1010,74	5,9	8	7,9	1	1	1	1	1	1	1	1	1	0	1	-8,879493	273,386583	307,852436	0
15.01.2021	05:34:26	0	0	3,050622	2,37075	10,4364	-0,592	85,277	0	1010,76	5,9	8	7,9	1	1	1	1	1	1	1	1	1	0	1	-0,140944	273,307655	316,225377	0
15.01.2021	05:34:27	0	0	2,711664	2,4915	22,1004	-0,591	85,269	0	1010,74	5,9	8	7,9	1	1	1	1	1	1	1	1	1	0	1	-3,805497	273,213369	312,124485	0
15.01.2021	05:34:28	0	0	3,3896	2,61225	15,7824	-0,594	85,271	0	1010,72	5,9	8,1	7,8	1	1	1	1	1	1	1	1	1	0	1	-7,047216	273,240464	309,008113	0
15.01.2021	05:34:29	0	0	4,632453	2,76675	19,9224	-0,591	85,272	0	1010,68	5,9	8	7,8	1	1	1	1	1	1	1	1	1	0	1	-4,439746	273,226199	311,549584	0
15.01.2021	05:34:30	0	0	4,858398	2,63475	10,4508	-0,589	85,285	0	1010,7	5,9	8	7,9	1	1	1	1	1	1	1	1	1	0	1	-6,412967	273,379394	310,28565	0
15.01.2021	05:34:31	0	0	4,74544	2,57925	18,4392	-0,591	85,283	0	1010,72	5,9	8	7,8	1	1	1	1	1	1	1	1	1	0	1	-2,325581	273,340622	314,193409	0
15.01.2021	05:34:32	0	0	3,276613	2,52675	11,7288	-0,599	85,278	0	1010,66	5,9	8	7,8	1	1	1	1	1	1	1	1	1	0	1	-4,862579	273,226199	311,126751	0
15.01.2021	05:34:33	0	0	4,74544	2,676	1,9296	-0,589	85,268	0	1010,6	5,9	8	7,8	1	1	1	1	1	1	1	1	1	0	1	-2,114165	273,37652	314,571131	0
15.01.2021	05:34:34	0	0	4,858427	2,79375	28,3428	-0,591	85,29	0	1010,74	5,9	8	7,8	1	1	1	1	1	1	1	1	1	0	1	-5,21494	273,279035	311,018883	0
15.01.2021	05:34:35	0	0	2,71168	2,86125	31,788	-0,584	85,282	0	1010,76	5,9	8,1	7,8	1	1	1	1	1	1	1	1	1	0	1	-4,933051	273,209094	310,977159	0
15.01.2021	05:34:36	0	0	4,632453	2,84625	26,91	-0,589	85,264	0	1010,68	5,9	8	7,8	1	1	1	1	1	1	1	1	1	0	1	-5,496829	273,260454	310,650998	0
15.01.2021	05:34:37	0	0	4,180482	2,673	26,9136	-0,593	85,292	0	1010,66	5,9	8	7,9	1	1	1	1	1	1	1	1	1	0	1	-1,409443	273,220495	314,553504	0
15.01.2021	05:34:38	0	0	5,310341	2,5185	34,3368	-0,588	85,273	0	1010,58	5,9	8	7,9	1	1	1	1	1	1	1	1	1	0	1	-1,832276	273,356409	314,759842	0
15.01.2021	05:34:39	0	0	3,38958	2,511	29,5704	-0,591	85,289	0	1010,72	5,9	8	7,9	1	1	1	1	1	1	1	1	1	0	1	-4,087385	273,274745	312,126583	0
15.01.2021	05:34:40	0	0	2,937636	2,59275	21,7836	-0,588	85,291	0	1010,74	5,9	8,1	7,9	1	1	1	1	1	1	1	1	1	0	1	-3,312192	273,206245	312,58484	0
15.01.2021	05:34:41	0	0	5,310373	2,685	36,918	-0,588	85,297	0	1010,72	5,9	8	7,8	1	1	1	1	1	1	1	1	1	0	1	-9,161381	273,352102	307,410786	0
15.01.2021	05:34:42	0	0	5,310341	2,67975	22,4568	-0,592	85,274	0	1010,64	5,9	8,1	7,9	1	1	1	1	1	1	1	1	1	0	1	-5,778717	273,379394	310,919899	0
15.01.2021	05:34:43	0	0	3,38958	2,5905	19,9044	-0,585	85,297	0	1010,74	5,9	8	7,9	1	1	1	1	1	1	1	1	1	0	1	-4,721635	273,216219	311,221531	0
15.01.2021	05:34:44	0	0	5,42336	2,616	24,3468	-0,587	85,295	0	1010,86	5,9	8	7,8	1	1	1	1	1	1	1	1	1	0	1	-7,470049	273,287616	308,803498	0
15.01.2021	05:34:45	0	0	3,72856	2,65275	21,0168	-0,585	85,306	0	1010,82	5,9	8	7,8	1	1	1	1	1	1	1	1	1	0	1	-5,496829	273,216219	310,446338	0
15.01.2021	05:34:46	0	0	4,40648	2,685	18,4536	-0,585	85,286	0	1010,68	5,9	8	7,8	1	1	1	1	1	1	1	1	1	0	1	-6,060606	273,234757	309,968316	0
15.01.2021	05:34:47	0	0	3,05064	2,6715	21,3876	-0,592	85,291	0	1010,72	5,9	8	7,8	1	1	1	1	1	1	1	1	1	0	1	-4,510218	273,366461	312,128474	0
15.01.2021	05:34:48	0	0	2,598693	2,5665	22,0752	-0,59	85,287	0	1010,66	5,8	8	7,8	1	1	1	1	1	1	1	1	1	0	1	-6,20155	273,199123	309,662546	0
15.01.2021	05:34:49	0	0	3,841524	2,58075	14,004	-0,582	85,305	0	1010,76	5,9	8	7,9	1	1	1	1	1	1	1	1	1	0	1	-7,047216	273,313385	309,345633	0
15.01.2021	05:34:50	0	0	2,824667	2,68425	20,2932	-0,586	85,293	0	1010,74	5,9	8,1	7,8	1	1	1	1	1	1	1	1	1	0	1	-9,795631	273,383707	306,922972	0
15.01.2021	05:34:51	0	0	3,05064	2,68575	21,7872	-0,586	85,277	0	1010,66	5,9	8	7,8	1	1	1	1	1	1	1	1	1	0	1	-8,174771	273,395213	308,597153	0
15.01.2021	05:34:52	0	0	2,372706	2,68575	24,066	-0,583	85,272	0	1010,62	5,9	8	7,9	1	1	1	1	1	1	1	1	1	0	1	-7,258633	273,33345	309,227142	0
15.01.2021	05:34:53	0	0	3,050622	2,601	8,1216	-0,587	85,307	0	1010,74	5,8	8	7,9	1	1	1	1	1	1	1	1	1	0	1	-5,708245	273,203396	310,17561	0
15.01.2021	05:34:54	0	0	4,519467	2,71575	1,926	-0,584	85,299	0	1010,72	5,9	8,1	7,8	1	1	1	1	1	1	1	1	1	0	1	-9,725159	273,266169	306,449118	0
15.01.2021	05:34:55	0	0	4,519467	2,67	18,0936	-0,585	85,295	0	1010,5	5,9	8	7,8	1	1	1	1	1	1	1	1	1	0	1	-5,073996	273,201971	310,803273	0
15.01.2021	05:34:56	0	0	4,858427	2,7135	14,3028	-0,588	85,299	0	1010,74	5,9	8	7,8	1	1	1	1	1	1	1	1	1	0	1	-4,792107	273,388021	311,946486	0
15.01.2021	05:34:57	0	0	4,519467	2,6805	16,848	-0,583	85,301	0	1010,62	5,9	8	7,8	1	1	1	1	1	1	1	1	1	0	1	-5,567301	273,321982	310,865359	0
15.01.2021	05:34:58	0	0	4,180507	2,4405	23,5872	-0,582	85,289	0	1010,78	5,9	8,1	7,8	1	1	1	1	1	1	1	1	1	0	1	-3,382664	273,363589	313,242719	0
15.01.2021	05:34:59	0	0	2,937653	2,32425	19,5228	-0,579	85,305	0	1010,62	5,9	8	7,8	1	1	1	1	1	1	1	1	1	0	1	-5,073996	273,234757	310,954926	0
15.01.2021	05:35:00	0	0	3,050622	2,298	22,842	-0,587	85,294	0	1010,74	5,9	8	7,9	1	1	1	1	1	1	1	1	1	0	1	-6,060606	273,382269	310,651334	0
15.01.2021	05:35:01	0	0	3,050622	2,298	22,842	-0,587	85,294	0	1010,74	5,9	8	7,9	1	1	1	1	1	1	1	1	1	0	1	-6,060606	273,382269	310,651334	0
15.01.2021	05:35:02	0	0	2,598693	2,34675	23,22	-0,588	85,303	0	1010,76	5,9	8	7,8	1	1	1	1	1	1	1	1	1	0	1	-6,624383	273,291909	309,669034	0
15.01.2021	05:35:03	0	0	3,05064	2,47725	18,0828	-0,582	85,312	0	1010,76	5,9	8,1	7,8	1	1	1	1	1	1	1	1	1	0	1	-5,144468	273,206245	310,752564	0
15.01.2021	05:35:04	0	0	2,937636	2,4585	14,2956	-0,583	85,316	0	1010,74	5,9	8	7,9	1	1	1	1	1	1	1	1	1	0	1	-7,963354	273,230477	308,045769	0
15.01.2021	05:35:05	0	0	4,632453	2,3595	12,87	-0,587	85,313	0	1010,6	5,9	8	7,8	1	1	1	1	1	1	1	1	1	0	1	-5,285412	273,37652	311,399884	0
15.01.2021	05:35:06	0	0	4,632453	2,40525	15,0336	-0,583	85,302	0	1010,7	5,9	8	7,8	1	1	1	1	1	1	1	1	1	0	1	-6,765328	273,386583	309,966601	0
15.01.2021	05:35:07	0	0	2,71168	2,48325	14,0076	-0,584	85,313	0	1010,8	5,9	8	7,8	1	1	1	1	1	1	1	1	1	0	1	-3,664553	273,250457	312,437011	0
15.01.2021	05:35:08	0	0	3,05064	2,5335	15,0264	-0,581	85,299	0	1010,66	5,9	8,1	7,8	1	1	1	1	1	1	1	1	1	0	1	-5,567301	273,321982	310,865359	0
15.01.2021	05:35:09	0	0	3,72856	2,7135	12,8628	-0,581	85,316	0	1010,66	5,9	8	7,8	1	1	1	1	1	1	1	1	1	0	1	-2,255109	273,342057	314,270526	0
15.01.2021	05:35:10	0	0	2,824667	2,8815	19,1448	-0,583	85,302	0	1010,66	5,9	8	7,8	1	1	1	1	1	1	1	1	1	0	1	-8,879493	273,296202	307,4338	0
15.01.2021	05:35:11	0	0	4,519467	2,97	24,8292	-0,587	85,32	0	1010,74	5,9	8	7,8	1	1	1	1	1	1	1	1	1	0	1	-5,003524	273,389459	311,741735	0
15.01.2021	05:35:12	0	0	3,163608	2,964	18,0936	-0,587	85,299	0	1010,8	5,9	8	7,9	1	1	1	1	1	1	1	1	1	0	1	-8,315715	273,209094	307,594495	0
15.01.2021	05:35:13	0	0	4,858427	2,8725	21,024	-0,581	85,313	0	1010,78	5,9	8	7,8	1	1	1	1	1	1	1	1	1	0	1	-6,272023	273,29334	310,028019	0
15.01.2021	05:35:14	0	0	2,598693	2,7795	19,9908	-0,577	85,322	0	1010,88	5,9	8	7,8	1	1	1	1	1	1	1	1	1	0	1	-3,875969	273,221921	312,093573	0
15.01.2021	05:35:15	0	0	2,937653	2,65875	24,714	-0,585	85,3	0	1010,72	5,8	8	7,8	1	1	1	1	1	1	1	1	1	0	1	-7,188161	273,230477	308,820963	0
15.01.2021	05:35:16	0	0	4,293442	2,7525	10,458	-0,579	85,31	0	1010,78	5,9	8,1	8	1	1	1	1	1	1	1	1	1	0	1	-2,114165	273,31625	314,291952	0
15.01.2021	05:35:17	0	0	3,502566	3,02475	21,0312	-0,578	85,305	0	1010,76	5,8	8	7,9	1	1	1	1	1	1	1	1	1	0	1	-6,553911	273,379394	310,144705	0
15.01.2021	05:35:18	0	0	4,74544	3,20925	4,1904	-0,587	85,316	0	1010,74	5,9	8	7,8	1	1	1	1	1	1	1	1	1	0	1	-4,933051	273,37652	311,752244	0
15.01.2021	05:35:19	0	0	3,3896	3,20775	15,0444	-0,583	85,315	0	1010,62	5,9	8,1	7,8	1	1	1	1	1	1	1	1	1	0	1	-8,949965	273,313385	307,442885	0
15.01.2021	05:35:20	0	0	4,293468	3,1815	1,9404	-0,58	85,323	0	1010,78	6	8,1	7,9	1	1	1	1	1	1	1	1	1	0	1	-2,043693	273,336319	314,455366	0
15.01.2021	05:35:21	0	0	4,632453	3,183	3,024	-0,582	85,32	0	1010,68	5,9	8,1	7,8	1	1	1	1	1	1	1	1	1	0	1	-3,664553	273,251884	312,443618	0
15.01.2021	05:35:22	0	0	4,519467	2,997	6,0552	-0,583	85,329	0	1010,76	5,9	8,1	7,8	1	1	1	1	1	1	1	1	1	0	1	-4,087385	273,309087	312,285567	0
15.01.2021	05:35:23	0	0	3,615573	2,71575	20,6352	-0,577	85,333	0	1010,76	5,9	8	7,8	1	1	1	1	1	1	1	1	1	0	1	-9,372798	273,389459	307,37246	0
15.01.2021	05:35:24	0	0	4,632453	2,505	6,4404	-0,585	85,322	0	1010,7	5,9	8	7,8	1	1	1	1	1	1	1	1	1	0	1	-4,580691	273,349231	311,978179	0
15.01.2021	05:35:25	0	0	4,519467	2,36775	21,024	-0,585	85,32	0	1010,78	5,9	8	7,8	1	1	1	1	1	1	1	1	1	0	1	-1,832276	273,320549	314,593747	0
15.01.2021	05:35:26	0	0	3,954533	2,4735	26,5248	-0,581	85,336	0	1010,8	5,9	8	7,8	1	1	1	1	1	1	1	1	1	0	1	-8,104299	273,385145	308,620967	0
15.01.2021	05:35:27	0	0	5,310373	2,433	29,1024	-0,582	85,322	0	1010,72	5,9	8,1	7,8	1	1	1	1	1	1	1	1	1	0	1	-5,355884	273,349231	311,202985	0
15.01.2021	05:35:28	0	0	5,084339	2,42475	28,35	-0,581	85,329	0	1010,64	5,9	8,1	8	1	1	1	1	1	1	1	1	1	0	1	-3,523608	273,31052	312,855976	0
15.01.2021	05:35:29	0	0	4,971413	2,32575	28,3464	-0,59	85,313	0	1010,76	5,9	8	7,8	1	1	1	1	1	1	1	1	1	0	1	-5,708245	273,380832	310,997033	0
15.01.2021	05:35:30	0	0	4,180507	2,38575	21,762	-0,587	85,332	0	1010,58	5,9	8	7,8	1	1	1	1	1	1	1	1	1	0	1	-5,285412	273,229051	310,717113	0
15.01.2021	05:35:31	0	0	4,293468	2,42175	26,9136	-0,584	85,319	0	1010,8	5,9	8,1	7,9	1	1	1	1	1	1	1	1	1	0	1	-5,426357	273,23761	310,615768	0
15.01.2021	05:35:32	0	0	3,502587	2,37225	17,6904	-0,58	85,341	0	1010,78	5,9	8,1	7,8	1	1	1	1	1	1	1	1	1	0	1	-9,866103	273,20482	306,02434	0
15.01.2021	05:35:33	0	0	4,06752	2,286	18,8388	-0,579	85,337	0	1010,76	5,9	8	7,8	1	1	1	1	1	1	1	1	1	0	1	-6,20155	273,329149	310,264302	0
15.01.2021	05:35:34	0	0	4,293493	2,2545	11,1924	-0,583	85,324	0	1010,68	5,9	8,1	7,8	1	1	1	1	1	1	1	1	1	0	1	-3,453136	273,37652	313,23216	0
15.01.2021	05:35:35	0	0	2,711664	2,3085	16,4772	-0,581	85,332	0	1010,62	5,9	8	7,9	1	1	1	1	1	1	1	1	1	0	1	-1,761804	273,362152	314,856924	0
15.01.2021	05:35:36	0	0	3,276594	2,4255	20,6352	-0,584	85,326	0	1010,66	5,9	8,1	7,9	1	1	1	1	1	1	1	1	1	0	1	-4,369274	273,31625	312,036843	0
15.01.2021	05:35:37	0	0	4,632453	2,54175	14,6484	-0,582	85,338	0	1010,78	5,9	8,1	7,8	1	1	1	1	1	1	1	1	1	0	1	-2,959831	273,223347	313,016307	0
15.01.2021	05:35:38	0	0	3,95451	2,6985	1,9296	-0,586	85,326	0	1010,7	5,9	8	7,9	1	1	1	1	1	1	1	1	1	0	1	-4,721635	273,217644	311,228124	0
15.01.2021	05:35:39	0	0	3,728515	2,766	7,8912	-0,579	85,331	0	1010,78	5,9	8,1	8	1	1	1	1	1	1	1	1	1	0	1	-4,22833	273,290478	312,058464	0
15.01.2021	05:35:40	0	0	4,06752	2,793	6,0696	-0,58	85,338	0	1010,78	5,9	8	7,8	1	1	1	1	1	1	1	1	1	0	1	-7,963354	273,211944	307,960036	0
15.01.2021	05:35:41	0	0	2,937653	2,868	4,842	-0,584	85,318	0	1010,6	5,9	8,1	7,8	1	1	1	1	1	1	1	1	1	0	1	-6,20155	273,221921	309,767992	0
15.01.2021	05:35:42	0	0	4,745412	3,2025	10,4472	-0,583	85,339	0	1010,66	5,8	8,1	7,9	1	1	1	1	1	1	1	1	1	0	1	-6,8358	273,321982	309,59686	0
15.01.2021	05:35:43	0	0	4,06752	3,63225	3,3948	-0,578	85,347	0	1010,82	5,9	8,1	7,8	1	1	1	1	1	1	1	1	1	0	1	-4,651163	273,386583	312,080766	0
15.01.2021	05:35:44	0	0	2,937618	3,522	22,086	-0,581	85,337	0	1010,82	5,9	8,1	8	1	1	1	1	1	1	1	1	1	0	1	-2,466526	273,270457	313,727594	0
15.01.2021	05:35:45	0	0	4,406427	3,57525	16,8588	-0,584	85,348	0	1010,78	5,8	8,1	8	1	1	1	1	1	1	1	1	1	0	1	-5,84919	273,221921	310,120353	0
15.01.2021	05:35:46	0	0	4,971354	3,45225	21,7548	-0,581	85,341	0	1010,66	5,9	8,1	8	1	1	1	1	1	1	1	1	1	0	1	-6,8358	273,382269	309,87614	0
15.01.2021	05:35:47	0	0	5,310373	3,348	9,36	-0,583	85,34	0	1010,76	5,9	8	7,8	1	1	1	1	1	1	1	1	1	0	1	-9,302326	273,321982	307,130334	0
15.01.2021	05:35:48	0	0	4,406427	3,393	7,128	-0,581	85,351	0	1010,88	5,9	8,1	8	1	1	1	1	1	1	1	1	1	0	1	-6,342495	273,220495	309,620453	0
15.01.2021	05:35:49	0	0	4,180507	3,39675	17,2368	-0,579	85,342	0	1010,86	5,9	8,1	7,8	1	1	1	1	1	1	1	1	1	0	1	-3,664553	273,353537	312,914264	0
15.01.2021	05:35:50	0	0	4,632453	3,27375	3,7764	-0,577	85,336	0	1010,7	5,9	8,1	7,8	1	1	1	1	1	1	1	1	1	0	1	-6,624383	273,260454	309,523444	0
15.01.2021	05:35:51	0	0	3,276613	2,9145	4,8384	-0,579	85,338	0	1010,72	5,9	8,1	7,8	1	1	1	1	1	1	1	1	1	0	1	-1,62086	273,221921	314,348682	0
15.01.2021	05:35:52	0	0	2,824667	2,79	8,262	-0,581	85,352	0	1010,84	5,9	8,1	7,8	1	1	1	1	1	1	1	1	1	0	1	-5,073996	273,253312	311,040783	0
15.01.2021	05:35:53	0	0	4,632453	2,87025	0	-0,587	85,336	0	1010,72	6	8	7,8	1	1	1	1	1	1	1	1	1	0	1	-1,127555	273,259025	315,013662	0
15.01.2021	05:35:54	0	0	2,824667	3,24525	360	-0,576	85,343	0	1010,76	6	8,1	7,8	1	1	1	1	1	1	1	1	1	0	1	-4,651163	273,216219	311,292004	0
15.01.2021	05:35:55	0	0	3,728538	3,489	357,6852	-0,581	85,362	0	1010,8	5,9	8,1	7,9	1	1	1	1	1	1	1	1	1	0	1	-7,188161	273,304791	309,1649	0
15.01.2021	05:35:56	0	0	3,05064	3,49275	15,0264	-0,583	85,348	0	1010,64	5,9	8,1	7,8	1	1	1	1	1	1	1	1	1	0	1	-3,59408	273,380832	313,111198	0
15.01.2021	05:35:57	0	0	2,824667	3,5265	20,2644	-0,588	85,332	0	1010,66	5,9	8,1	7,8	1	1	1	1	1	1	1	1	1	0	1	-12,755462	273,239037	303,293265	0
15.01.2021	05:35:58	0	0	2,937653	3,5325	27,9504	-0,58	85,338	0	1010,62	5,9	8,1	7,8	1	1	1	1	1	1	1	1	1	0	1	-2,325581	273,271886	313,875154	0
15.01.2021	05:35:59	0	0	3,050603	3,2295	7,1316	-0,574	85,343	0	1010,8	5,9	8,1	8	1	1	1	1	1	1	1	1	1	0	1	-4,792107	273,367898	311,853241	0
15.01.2021	05:36:00	0	0	4,180456	2,83275	7,5276	-0,577	85,365	0	1010,84	5,9	8	8	1	1	1	1	1	1	1	1	1	0	1	-5,21494	273,373645	311,457038	0
15.01.2021	05:36:01	0	0	4,180456	2,83275	7,5276	-0,577	85,365	0	1010,84	5,9	8	8	1	1	1	1	1	1	1	1	1	0	1	-5,21494	273,373645	311,457038	0
15.01.2021	05:36:02	0	0	4,971413	2,769	10,4436	-0,577	85,362	0	1010,78	5,9	8	7,8	1	1	1	1	1	1	1	1	1	0	1	-5,708245	273,271886	310,49249	0
15.01.2021	05:36:03	0	0	3,61553	2,7045	18,8388	-0,58	85,358	0	1010,8	5,9	8	8	1	1	1	1	1	1	1	1	1	0	1	-2,466526	273,21907	313,489827	0
15.01.2021	05:36:04	0	0	4,40648	2,544	10,0656	-0,58	85,367	0	1010,7	5,9	8,1	7,8	1	1	1	1	1	1	1	1	1	0	1	-3,875969	273,369335	312,776036	0
15.01.2021	05:36:05	0	0	3,502587	2,59425	17,2404	-0,583	85,364	0	1010,64	5,9	8,1	7,8	1	1	1	1	1	1	1	1	1	0	1	-4,862579	273,274745	311,351389	0
15.01.2021	05:36:06	0	0	3,05064	2,8815	16,8516	-0,583	85,346	0	1010,6	5,9	8,1	7,8	1	1	1	1	1	1	1	1	1	0	1	-9,936575	273,220495	306,026372	0
15.01.2021	05:36:07	0	0	4,519467	3,17925	24,3396	-0,579	85,357	0	1010,68	5,9	8,1	7,8	1	1	1	1	1	1	1	1	1	0	1	-4,298802	273,332016	312,180331	0
15.01.2021	05:36:08	0	0	4,180456	3,456	25,4232	-0,583	85,358	0	1010,76	6	8,1	8	1	1	1	1	1	1	1	1	1	0	1	-6,624383	273,230477	309,38474	0
15.01.2021	05:36:09	0	0	3,276613	3,471	18,8388	-0,578	85,36	0	1010,76	5,9	8	7,8	1	1	1	1	1	1	1	1	1	0	1	-2,677942	273,240464	313,377387	0
15.01.2021	05:36:10	0	0	4,519467	3,36	19,1556	-0,576	85,363	0	1010,72	5,9	8,1	7,8	1	1	1	1	1	1	1	1	1	0	1	-3,805497	273,283325	312,448185	0
15.01.2021	05:36:11	0	0	3,841501	3,129	18,0828	-0,579	85,362	0	1010,82	5,9	8,1	8	1	1	1	1	1	1	1	1	1	0	1	-6,412967	273,386583	310,318962	0
15.01.2021	05:36:12	0	0	2,485677	3,1005	7,1244	-0,578	85,367	0	1010,64	5,9	8,1	8	1	1	1	1	1	1	1	1	1	0	1	-3,59408	273,319116	312,825307	0
15.01.2021	05:36:13	0	0	4,858368	2,964	17,2512	-0,576	85,378	0	1010,82	5,9	8	8	1	1	1	1	1	1	1	1	1	0	1	-4,651163	273,400968	312,147436	0
15.01.2021	05:36:14	0	0	3,3896	2,63925	12,8448	-0,579	85,358	0	1010,72	5,9	8,1	7,8	1	1	1	1	1	1	1	1	1	0	1	-9,44327	273,263311	306,717781	0
15.01.2021	05:36:15	0	0	3,05064	2,67825	12,8556	-0,575	85,376	0	1010,7	5,9	8,1	7,8	1	1	1	1	1	1	1	1	1	0	1	-6,976744	273,230477	309,032379	0
15.01.2021	05:36:16	0	0	3,841501	2,65125	26,604	-0,583	85,356	0	1010,6	5,9	8,1	8	1	1	1	1	1	1	1	1	1	0	1	-6,060606	273,362152	310,558122	0
15.01.2021	05:36:17	0	0	3,841547	2,48625	15,7968	-0,576	85,377	0	1010,8	5,9	8,1	7,8	1	1	1	1	1	1	1	1	1	0	1	-5,567301	273,339187	310,945045	0
15.01.2021	05:36:18	0	0	3,728515	2,58375	5,2272	-0,579	85,354	0	1010,78	5,9	8,1	8	1	1	1	1	1	1	1	1	1	0	1	-4,792107	273,216219	311,151059	0
15.01.2021	05:36:19	0	0	4,293493	2,847	10,0692	-0,578	85,362	0	1010,76	5,9	8,1	7,8	1	1	1	1	1	1	1	1	1	0	1	-4,721635	273,321982	311,711025	0
15.01.2021	05:36:20	0	0	3,050603	3,015	12,8628	-0,581	85,367	0	1010,72	5,9	8,1	8	1	1	1	1	1	1	1	1	1	0	1	-3,946441	273,246173	312,135304	0
15.01.2021	05:36:21	0	0	3,276574	3,03825	24,7284	-0,573	85,375	0	1010,74	5,8	8,1	8	1	1	1	1	1	1	1	1	1	0	1	-3,805497	273,211944	312,117894	0
15.01.2021	05:36:22	0	0	4,06752	3,05025	10,0548	-0,572	85,373	0	1010,74	5,9	8,1	7,8	1	1	1	1	1	1	1	1	1	0	1	-2,466526	273,377957	314,22543	0
15.01.2021	05:36:23	0	0	2,937618	2,93775	19,53	-0,575	85,374	0	1010,78	5,9	8,1	8	1	1	1	1	1	1	1	1	1	0	1	-6,412967	273,396652	310,365625	0
15.01.2021	05:36:24	0	0	4,406427	2,92425	29,9448	-0,573	85,374	0	1010,82	5,9	8	8	1	1	1	1	1	1	1	1	1	0	1	-5,567301	273,243319	310,501235	0
15.01.2021	05:36:25	0	0	4,519412	2,76075	25,0236	-0,578	85,371	0	1010,68	5,9	8,1	8	1	1	1	1	1	1	1	1	1	0	1	-8,879493	273,29334	307,420549	0
15.01.2021	05:36:26	0	0	3,276613	2,586	22,8276	-0,574	85,383	0	1010,82	5,8	8,1	7,8	1	1	1	1	1	1	1	1	1	0	1	-5,637773	273,388021	311,10082	0
15.01.2021	05:36:27	0	0	2,71168	2,5065	10,044	-0,581	85,378	0	1010,76	5,9	8,1	7,8	1	1	1	1	1	1	1	1	1	0	1	-7,258633	273,26474	308,90903	0
15.01.2021	05:36:28	0	0	4,632453	2,4015	19,5372	-0,574	85,371	0	1010,64	5,9	8,1	7,8	1	1	1	1	1	1	1	1	1	0	1	-6,412967	273,231904	309,602756	0
15.01.2021	05:36:29	0	0	4,406427	2,46225	4,8312	-0,572	85,374	0	1010,66	5,9	8,1	8	1	1	1	1	1	1	1	1	1	0	1	-7,892882	273,393774	308,872374	0
15.01.2021	05:36:30	0	0	3,163589	2,685	1,9152	-0,579	85,362	0	1010,66	5,9	8,1	8	1	1	1	1	1	1	1	1	1	0	1	-4,721635	273,337753	311,784067	0
15.01.2021	05:36:31	0	0	3,163589	2,9955	356,5296	-0,58	85,375	0	1010,8	5,8	8,1	8	1	1	1	1	1	1	1	1	1	0	1	-3,312192	273,396652	313,4664	0
15.01.2021	05:36:32	0	0	4,406427	3,024	12,0852	-0,579	85,376	0	1010,7	6	8,1	8	1	1	1	1	1	1	1	1	1	0	1	-1,691332	273,392336	315,067258	0
15.01.2021	05:36:33	0	0	4,858427	2,991	13,1724	-0,576	85,384	0	1010,78	5,9	8,1	7,8	1	1	1	1	1	1	1	1	1	0	1	-4,016913	273,263311	312,144137	0
15.01.2021	05:36:34	0	0	2,937618	3,19725	355,4532	-0,579	85,39	0	1010,92	5,9	8,1	8	1	1	1	1	1	1	1	1	1	0	1	-5,426357	273,402407	311,378913	0
15.01.2021	05:36:35	0	0	3,163589	3,42075	2,3004	-0,575	85,378	0	1010,74	5,9	8	8	1	1	1	1	1	1	1	1	1	0	1	-2,043693	273,329149	314,422159	0
15.01.2021	05:36:36	0	0	2,598662	3,4125	5,2272	-0,577	85,395	0	1010,74	5,8	8,1	8	1	1	1	1	1	1	1	1	1	0	1	-5,990134	273,393774	310,775123	0
15.01.2021	05:36:37	0	0	4,067471	3,258	15,3864	-0,575	85,391	0	1010,76	5,9	8,1	8	1	1	1	1	1	1	1	1	1	0	1	-5,637773	273,267598	310,543117	0
15.01.2021	05:36:38	0	0	2,937653	2,94825	10,8828	-0,572	85,397	0	1010,8	5,9	8,1	7,8	1	1	1	1	1	1	1	1	1	0	1	-5,285412	273,365025	311,346625	0
15.01.2021	05:36:39	0	0	2,824633	2,8305	26,1684	-0,576	85,398	0	1010,82	5,9	8,1	8	1	1	1	1	1	1	1	1	1	0	1	-3,030303	273,21907	312,92605	0
15.01.2021	05:36:40	0	0	3,163627	2,9865	34,3296	-0,576	85,396	0	1010,76	5,9	8,1	7,8	1	1	1	1	1	1	1	1	1	0	1	-4,298802	273,33345	312,186972	0
15.01.2021	05:36:41	0	0	3,389559	2,97675	19,5372	-0,578	85,384	0	1010,72	5,9	8,1	8	1	1	1	1	1	1	1	1	1	0	1	-4,721635	273,392336	312,036955	0
15.01.2021	05:36:42	0	0	4,180456	2,826	20,6352	-0,573	85,383	0	1010,78	5,9	8,1	8	1	1	1	1	1	1	1	1	1	0	1	-4,933051	273,399529	311,858878	0
15.01.2021	05:36:43	0	0	4,067471	2,62125	10,0692	-0,573	85,388	0	1010,68	5,8	8	8	1	1	1	1	1	1	1	1	1	0	1	-1,832276	273,314817	314,567207	0
15.01.2021	05:36:44	0	0	3,841501	2,508	16,8732	-0,575	85,389	0	1010,52	6	8,1	8	1	1	1	1	1	1	1	1	1	0	1	-6,20155	273,234757	309,827372	0
15.01.2021	05:36:45	0	0	4,180456	2,57175	20,286	-0,572	85,382	0	1010,76	5,9	8,1	8	1	1	1	1	1	1	1	1	1	0	1	-3,875969	273,389459	312,869289	0
15.01.2021	05:36:46	0	0	4,74544	2,42625	15,4116	-0,577	85,393	0	1010,76	5,9	8,1	7,8	1	1	1	1	1	1	1	1	1	0	1	-5,144468	273,304791	311,208593	0
15.01.2021	05:36:47	0	0	4,180456	2,37075	23,9832	-0,57	85,399	0	1010,9	5,9	8,1	8	1	1	1	1	1	1	1	1	1	0	1	-6,483439	273,249029	309,611518	0
15.01.2021	05:36:48	0	0	3,163589	2,47425	23,9868	-0,572	85,395	0	1010,66	5,9	8,1	8	1	1	1	1	1	1	1	1	1	0	1	-3,24172	273,246173	312,840026	0
15.01.2021	05:36:49	0	0	3,389559	2,448	21,7872	-0,57	85,39	0	1010,52	5,9	8,1	8	1	1	1	1	1	1	1	1	1	0	1	-2,677942	273,365025	313,954095	0
15.01.2021	05:36:50	0	0	4,858368	2,41425	26,1756	-0,577	85,39	0	1010,76	5,9	8,1	8	1	1	1	1	1	1	1	1	1	0	1	-2,255109	273,396652	314,523483	0
15.01.2021	05:36:51	0	0	5,084339	2,418	17,2224	-0,575	85,393	0	1010,7	5,9	8,1	8	1	1	1	1	1	1	1	1	1	0	1	-5,84919	273,31052	310,530394	0
15.01.2021	05:36:52	0	0	4,067471	2,4765	31,7628	-0,578	85,39	0	1010,74	5,9	8,1	8	1	1	1	1	1	1	1	1	1	0	1	-2,255109	273,221921	313,714433	0
15.01.2021	05:36:53	0	0	4,858368	2,68575	13,158	-0,578	85,375	0	1010,66	5,9	8,1	8	1	1	1	1	1	1	1	1	1	0	1	-7,258633	273,363589	309,36675	0
15.01.2021	05:36:54	0	0	3,728515	2,589	31,3848	-0,58	85,39	0	1010,58	5,9	8,1	8	1	1	1	1	1	1	1	1	1	0	1	-3,171247	273,346361	313,374327	0
15.01.2021	05:36:55	0	0	3,61553	2,41425	21,7656	-0,576	85,401	0	1010,78	5,8	8,1	8	1	1	1	1	1	1	1	1	1	0	1	-7,892882	273,396652	308,885709	0
15.01.2021	05:36:56	0	0	4,632453	2,346	11,1888	-0,577	85,397	0	1010,8	5,8	8,1	7,8	1	1	1	1	1	1	1	1	1	0	1	-7,540521	273,334885	308,951895	0
15.01.2021	05:36:57	0	0	2,485677	2,6205	10,44	-0,572	85,402	0	1010,88	5,9	8,1	8	1	1	1	1	1	1	1	1	1	0	1	-5,003524	273,229051	310,999002	0
15.01.2021	05:36:58	0	0	3,954486	2,784	20,2788	-0,574	85,406	0	1010,72	5,8	8,1	8	1	1	1	1	1	1	1	1	1	0	1	-2,396054	273,379394	314,302563	0
15.01.2021	05:36:59	0	0	4,632398	3,015	12,8556	-0,575	85,394	0	1010,72	5,9	8,1	8	1	1	1	1	1	1	1	1	1	0	1	-1,479915	273,350666	315,085603	0
15.01.2021	05:37:00	0	0	3,841501	2,802	27,2736	-0,576	85,404	0	1010,72	5,9	8,1	8	1	1	1	1	1	1	1	1	1	0	1	-2,818887	273,306223	313,540804	0
15.01.2021	05:37:01	0	0	3,954486	2,96025	7,1316	-0,575	85,39	0	1010,74	5,8	8,1	8	1	1	1	1	1	1	1	1	1	0	1	-2,818887	273,306223	313,540804	0
15.01.2021	05:37:02	0	0	3,954486	2,96025	7,1316	-0,575	85,39	0	1010,74	5,8	8,1	8	1	1	1	1	1	1	1	1	1	0	1	-5,637773	273,227625	310,358154	0
15.01.2021	05:37:03	0	0	5,197324	2,9115	7,1352	-0,577	85,389	0	1010,78	5,8	8,1	8	1	1	1	1	1	1	1	1	1	0	1	-4,580691	273,334885	311,911726	0
15.01.2021	05:37:04	0	0	4,067471	2,85525	15,4044	-0,58	85,38	0	1010,7	5,8	8,1	8	1	1	1	1	1	1	1	1	1	0	1	-5,285412	273,366461	311,35328	0
15.01.2021	05:37:05	0	0	2,598693	2,7855	7,1316	-0,573	85,396	0	1010,64	5,8	8,1	7,8	1	1	1	1	1	1	1	1	1	0	1	-4,862579	273,227625	311,133348	0
15.01.2021	05:37:06	0	0	3,954486	2,71425	8,2692	-0,574	85,399	0	1010,76	5,8	8,1	8	1	1	1	1	1	1	1	1	1	0	1	-1,832276	273,31052	314,547308	0
15.01.2021	05:37:07	0	0	3,841501	2,6265	6,4332	-0,573	85,383	0	1010,8	5,8	8,1	8	1	1	1	1	1	1	1	1	1	0	1	-0,140944	273,375082	316,537692	0
15.01.2021	05:37:08	0	0	4,293442	2,60475	10,0728	-0,578	85,391	0	1010,6	5,8	8,1	8	1	1	1	1	1	1	1	1	1	0	1	-3,171247	273,389459	313,574011	0
15.01.2021	05:37:09	0	0	3,163608	2,50875	4,0896	-0,573	85,388	0	1010,9	5,9	8,1	7,9	1	1	1	1	1	1	1	1	1	0	1	-7,117689	273,257597	309,016917	0
15.01.2021	05:37:10	0	0	3,95451	2,31075	13,1904	-0,571	85,403	0	1010,94	5,8	8,1	7,9	1	1	1	1	1	1	1	1	1	0	1	-3,875969	273,408165	312,955988	0
15.01.2021	05:37:11	0	0	3,61553	2,0805	18,4572	-0,578	85,399	0	1010,7	5,9	8,1	8	1	1	1	1	1	1	1	1	1	0	1	-2,889359	273,299065	313,437188	0
15.01.2021	05:37:12	0	0	3,954486	2,0025	9,378	-0,57	85,394	0	1010,68	5,9	8,1	8	1	1	1	1	1	1	1	1	1	0	1	-5,21494	273,227625	310,780987	0
15.01.2021	05:37:13	0	0	4,180482	1,932	20,2752	-0,577	85,455	0	1010,64	5,8	8,1	7,9	1	1	1	1	1	1	1	1	1	0	1	-0,845666	273,257597	315,28894	0
15.01.2021	05:37:14	0	0	4,971354	1,968	8,6256	-0,574	85,391	0	1010,7	5,8	8,1	8	1	1	1	1	1	1	1	1	1	0	1	-1,198027	273,332016	315,281106	0
15.01.2021	05:37:15	0	0	3,276574	2,31675	7,5276	-0,57	85,415	0	1010,78	5,8	8,1	8	1	1	1	1	1	1	1	1	1	0	1	-1,832276	273,224773	314,150457	0
15.01.2021	05:37:16	0	0	4,632426	2,42025	19,5228	-0,574	85,389	0	1010,62	5,8	8,1	7,9	1	1	1	1	1	1	1	1	1	0	1	-3,664553	273,284755	312,595751	0
15.01.2021	05:37:17	0	0	3,728515	2,2275	26,172	-0,57	85,407	0	1010,9	5,8	8,1	8	1	1	1	1	1	1	1	1	1	0	1	-1,902748	273,386583	314,829181	0
15.01.2021	05:37:18	0	0	4,293442	1,998	5,2164	-0,567	85,416	0	1010,78	5,8	8,1	8	1	1	1	1	1	1	1	1	1	0	1	-9,795631	273,406726	307,029653	0
15.01.2021	05:37:19	0	0	4,067471	1,85325	17,2296	-0,571	85,422	0	1010,7	5,8	8,1	8	1	1	1	1	1	1	1	1	1	0	1	-9,795631	273,379394	306,902986	0
15.01.2021	05:37:20	0	0	3,050603	1,8525	16,1136	-0,572	85,396	0	1010,7	5,8	8,1	8	1	1	1	1	1	1	1	1	1	0	1	-1,62086	273,388021	315,117734	0
15.01.2021	05:37:21	0	0	4,067471	2,1285	13,932	-0,577	85,409	0	1010,76	5,9	8,1	8	1	1	1	1	1	1	1	1	1	0	1	-3,875969	273,227625	312,119958	0
15.01.2021	05:37:22	0	0	5,649333	2,43225	8,9964	-0,572	85,397	0	1010,66	5,8	8,1	7,8	1	1	1	1	1	1	1	1	1	0	1	-2,959831	273,360716	313,652244	0
15.01.2021	05:37:23	0	0	4,406427	2,38275	12,1068	-0,573	85,411	0	1010,64	6	8,1	8	1	1	1	1	1	1	1	1	1	0	1	-6,131078	273,283325	310,122604	0
15.01.2021	05:37:24	0	0	3,502545	2,30475	26,9136	-0,578	85,407	0	1010,82	5,8	8,1	8	1	1	1	1	1	1	1	1	1	0	1	-3,523608	273,411045	313,321696	0
15.01.2021	05:37:25	0	0	3,050622	2,1765	9	-0,579	85,398	0	1010,7	5,8	8,1	7,9	1	1	1	1	1	1	1	1	1	0	1	-7,117689	273,354973	309,467779	0
15.01.2021	05:37:26	0	0	3,728515	2,04975	25,4268	-0,57	85,397	0	1010,62	5,8	8,1	8	1	1	1	1	1	1	1	1	1	0	1	-5,21494	273,227625	310,780987	0
15.01.2021	05:37:27	0	0	2,711647	2,022	16,4844	-0,574	85,414	0	1010,82	5,8	8,1	8	1	1	1	1	1	1	1	1	1	0	1	-7,610994	273,23333	308,411328	0
15.01.2021	05:37:28	0	0	2,711647	1,95	21,0276	-0,571	85,417	0	1010,76	5,8	8,1	8	1	1	1	1	1	1	1	1	1	0	1	-5,990134	273,340622	310,528856	0
15.01.2021	05:37:29	0	0	3,276574	1,8765	15,03	-0,571	85,423	0	1010,72	5,9	8,1	8	1	1	1	1	1	1	1	1	1	0	1	-5,84919	273,223347	310,126948	0
15.01.2021	05:37:30	0	0	3,841501	1,947	4,0752	-0,571	85,409	0	1010,78	5,8	8,1	8	1	1	1	1	1	1	1	1	1	0	1	-3,382664	273,356409	313,209455	0
15.01.2021	05:37:31	0	0	3,841501	2,253	12,474	-0,568	85,419	0	1010,78	5,8	8,1	8	1	1	1	1	1	1	1	1	1	0	1	-2,325581	273,243319	313,742954	0
15.01.2021	05:37:32	0	0	3,728515	2,4315	15,8004	-0,574	85,4	0	1010,66	5,9	8,1	8	1	1	1	1	1	1	1	1	1	0	1	-6,060606	273,224773	309,922127	0
15.01.2021	05:37:33	0	0	2,711647	2,43825	0,8856	-0,567	85,418	0	1010,7	5,9	8,1	8	1	1	1	1	1	1	1	1	1	0	1	-5,073996	273,31052	311,305588	0
15.01.2021	05:37:34	0	0	3,728515	2,58525	13,9176	-0,573	85,402	0	1010,66	5,9	8,1	8	1	1	1	1	1	1	1	1	1	0	1	-2,466526	273,239037	313,582201	0
15.01.2021	05:37:35	0	0	3,050603	2,6595	12,8484	-0,568	85,393	0	1010,7	6	8,1	8	1	1	1	1	1	1	1	1	1	0	1	-1,691332	273,271886	314,509404	0
15.01.2021	05:37:36	0	0	4,067496	2,78475	9,756	-0,573	85,409	0	1010,68	6	8,1	7,9	1	1	1	1	1	1	1	1	1	0	1	-2,536998	273,342057	313,988637	0
15.01.2021	05:37:37	0	0	2,711664	2,8095	12,4704	-0,577	85,42	0	1010,64	5,9	8,1	7,9	1	1	1	1	1	1	1	1	1	0	1	-7,188161	273,377957	309,503795	0
15.01.2021	05:37:38	0	0	4,406427	2,73375	13,6368	-0,569	85,4	0	1010,84	5,8	8,1	8	1	1	1	1	1	1	1	1	1	0	1	-2,184637	273,281895	314,062425	0
15.01.2021	05:37:39	0	0	4,745412	2,73825	8,9856	-0,567	85,405	0	1010,68	5,8	8,1	7,9	1	1	1	1	1	1	1	1	1	0	1	-3,946441	273,226199	312,042889	0
15.01.2021	05:37:40	0	0	3,050622	2,958	21,7692	-0,573	85,413	0	1010,74	6	8,1	7,9	1	1	1	1	1	1	1	1	1	0	1	-4,157858	273,314817	312,241625	0
15.01.2021	05:37:41	0	0	4,858398	3,18675	1,9188	-0,571	85,421	0	1010,8	5,8	8,1	7,9	1	1	1	1	1	1	1	1	1	0	1	-0	273,408165	316,831957	0
15.01.2021	05:37:42	0	0	3,050603	3,255	19,8864	-0,571	85,422	0	1010,64	5,8	8,1	8	1	1	1	1	1	1	1	1	1	0	1	-3,382664	273,256169	312,745332	0
15.01.2021	05:37:43	0	0	4,745383	2,9685	15,786	-0,575	85,422	0	1010,78	6	8,1	8	1	1	1	1	1	1	1	1	1	0	1	-0	273,23761	316,042124	0
15.01.2021	05:37:44	0	0	3,389559	2,7645	2,646	-0,571	85,403	0	1010,8	5,8	8,1	8	1	1	1	1	1	1	1	1	1	0	1	-0,563777	273,247601	315,524573	0
15.01.2021	05:37:45	0	0	3,841501	2,54175	10,0656	-0,569	85,421	0	1010,8	5,8	8,1	8	1	1	1	1	1	1	1	1	1	0	1	-4,580691	273,301928	311,759112	0
15.01.2021	05:37:46	0	0	3,728515	2,24625	11,2032	-0,57	85,425	0	1010,7	5,8	8,1	8	1	1	1	1	1	1	1	1	1	0	1	-9,161381	273,227625	306,834546	0
15.01.2021	05:37:47	0	0	3,276574	2,19375	12,4704	-0,569	85,42	0	1010,78	5,8	8,1	8	1	1	1	1	1	1	1	1	1	0	1	-3,875969	273,260454	312,271858	0
15.01.2021	05:37:48	0	0	3,276594	2,21475	16,0956	-0,572	85,411	0	1010,76	5,8	8,1	7,9	1	1	1	1	1	1	1	1	1	0	1	-2,536998	273,336319	313,962061	0
15.01.2021	05:37:49	0	0	4,632426	2,118	14,31	-0,575	85,43	0	1010,7	5,8	8,1	7,9	1	1	1	1	1	1	1	1	1	0	1	-7,82241	273,403847	308,98953	0
15.01.2021	05:37:50	0	0	4,293468	2,12175	24,3504	-0,573	85,423	0	1010,7	5,8	8,1	7,9	1	1	1	1	1	1	1	1	1	0	1	-5,778717	273,323415	310,66058	0
15.01.2021	05:37:51	0	0	3,728515	2,1885	10,4472	-0,576	85,418	0	1010,8	5,8	8,1	8	1	1	1	1	1	1	1	1	1	0	1	-2,818887	273,405286	313,999725	0
15.01.2021	05:37:52	0	0	4,519412	2,41275	9,3888	-0,574	85,407	0	1010,58	6	8,1	8	1	1	1	1	1	1	1	1	1	0	1	-5,355884	273,354973	311,229583	0
15.01.2021	05:37:53	0	0	2,82465	2,5815	13,1724	-0,567	85,423	0	1010,86	5,8	8,1	7,9	1	1	1	1	1	1	1	1	1	0	1	-1,198027	273,291909	315,095391	0
15.01.2021	05:37:54	0	0	3,050622	2,586	11,1996	-0,573	85,412	0	1010,7	5,8	8,1	7,9	1	1	1	1	1	1	1	1	1	0	1	-4,016913	273,23761	312,025211	0
15.01.2021	05:37:55	0	0	3,61553	2,631	8,6184	-0,571	85,392	0	1010,68	6	8,1	8	1	1	1	1	1	1	1	1	1	0	1	-0	273,270457	316,19412	0
15.01.2021	05:37:56	0	0	4,406454	2,53725	0,8784	-0,57	85,421	0	1010,78	5,8	8,1	7,9	1	1	1	1	1	1	1	1	1	0	1	-8,386187	273,339187	308,126158	0
15.01.2021	05:37:57	0	0	4,519412	2,44425	8,6256	-0,567	85,414	0	1010,64	6	8,1	8	1	1	1	1	1	1	1	1	1	0	1	-3,030303	273,408165	313,801654	0
15.01.2021	05:37:58	0	0	4,632426	2,424	3,7764	-0,565	85,419	0	1010,74	5,8	8,1	7,9	1	1	1	1	1	1	1	1	1	0	1	-2,466526	273,386583	314,265403	0
15.01.2021	05:37:59	0	0	4,745412	2,28375	359,1756	-0,566	85,419	0	1010,72	5,8	8,1	7,9	1	1	1	1	1	1	1	1	1	0	1	-4,22833	273,369335	312,423675	0
15.01.2021	05:38:00	0	0	3,38958	2,061	8,6256	-0,569	85,432	0	1010,78	5,8	8,1	7,9	1	1	1	1	1	1	1	1	1	0	1	-4,721635	273,289047	311,558535	0
15.01.2021	05:38:01	0	0	3,38958	2,061	8,6256	-0,569	85,432	0	1010,78	5,8	8,1	7,9	1	1	1	1	1	1	1	1	1	0	1	-4,721635	273,289047	311,558535	0
15.01.2021	05:38:02	0	0	3,615552	1,91775	21,0132	-0,572	85,42	0	1010,7	5,8	8,1	7,9	1	1	1	1	1	1	1	1	1	0	1	-5,144468	273,413924	311,714186	0
15.01.2021	05:38:03	0	0	2,033748	1,8345	25,4124	-0,565	85,43	0	1010,74	5,8	8,1	7,9	1	1	1	1	1	1	1	1	1	0	1	-5,919662	273,267598	310,261229	0
15.01.2021	05:38:04	0	0	4,51944	1,74075	15,408	-0,574	85,425	0	1010,64	5,8	8,1	7,9	1	1	1	1	1	1	1	1	1	0	1	-2,536998	273,287616	313,736549	0
15.01.2021	05:38:05	0	0	4,971354	1,66275	18,0828	-0,562	85,427	0	1010,8	5,8	8,1	8	1	1	1	1	1	1	1	1	1	0	1	-4,298802	273,411045	312,546502	0
15.01.2021	05:38:06	0	0	4,406454	1,5945	17,7048	-0,569	85,418	0	1010,9	5,8	8,1	7,9	1	1	1	1	1	1	1	1	1	0	1	-8,245243	273,276175	307,975343	0
15.01.2021	05:38:07	0	0	2,25972	1,58775	13,9284	-0,568	85,432	0	1010,86	6	8,1	7,9	1	1	1	1	1	1	1	1	1	0	1	-1,62086	273,343491	314,911421	0
15.01.2021	05:38:08	0	0	4,632426	1,65975	16,1028	-0,57	85,435	0	1010,8	6	8,1	7,9	1	1	1	1	1	1	1	1	1	0	1	-7,329105	273,403847	309,482835	0
15.01.2021	05:38:09	0	0	2,82465	1,72575	20,6316	-0,565	85,423	0	1010,68	5,8	8,1	7,9	1	1	1	1	1	1	1	1	1	0	1	-3,030303	273,289047	313,249867	0
15.01.2021	05:38:10	0	0	2,937636	1,79175	18,8316	-0,575	85,422	0	1010,76	6	8,1	7,9	1	1	1	1	1	1	1	1	1	0	1	-4,157858	273,247601	311,930493	0
15.01.2021	05:38:11	0	0	4,632398	1,88025	12,0996	-0,567	85,427	0	1010,68	5,8	8,1	8	1	1	1	1	1	1	1	1	1	0	1	-5,778717	273,276175	310,441869	0
15.01.2021	05:38:12	0	0	4,519412	2,04975	23,2308	-0,567	85,424	0	1010,72	6	8,1	8	1	1	1	1	1	1	1	1	1	0	1	-5,637773	273,259025	310,503443	0
15.01.2021	05:38:13	0	0	3,95451	2,01225	12,8592	-0,571	85,436	0	1010,72	6	8,1	7,9	1	1	1	1	1	1	1	1	1	0	1	-1,479915	273,406726	315,345369	0
15.01.2021	05:38:14	0	0	2,485677	2,01	17,244	-0,565	85,432	0	1010,8	6	8,1	8	1	1	1	1	1	1	1	1	1	0	1	-7,681466	273,309087	308,691486	0
15.01.2021	05:38:15	0	0	3,95451	1,94175	13,9284	-0,564	85,436	0	1010,74	6	8,1	7,9	1	1	1	1	1	1	1	1	1	0	1	-2,325581	273,402407	314,479688	0
15.01.2021	05:38:16	0	0	3,841524	1,9275	5,2236	-0,57	85,421	0	1010,7	5,8	8,1	7,9	1	1	1	1	1	1	1	1	1	0	1	-6,765328	273,259025	309,375888	0
15.01.2021	05:38:17	0	0	2,937618	1,872	15,0372	-0,567	85,414	0	1010,66	6	8,1	8	1	1	1	1	1	1	1	1	1	0	1	-6,131078	273,236183	309,904445	0
15.01.2021	05:38:18	0	0	2,937618	1,9125	14,6412	-0,562	85,431	0	1010,84	6	8,1	8	1	1	1	1	1	1	1	1	1	0	1	-7,047216	273,230477	308,961907	0
15.01.2021	05:38:19	0	0	3,502566	2,06475	15,7968	-0,563	85,437	0	1010,8	5,8	8,1	7,9	1	1	1	1	1	1	1	1	1	0	1	-4,016913	273,313385	312,375936	0
15.01.2021	05:38:20	0	0	3,38958	2,4255	16,4916	-0,572	85,419	0	1010,62	5,8	8	7,9	1	1	1	1	1	1	1	1	1	0	1	-5,567301	273,250457	310,534262	0
15.01.2021	05:38:21	0	0	4,067496	2,6775	22,14	-0,565	85,426	0	1010,74	5,8	8,1	7,9	1	1	1	1	1	1	1	1	1	0	1	-3,171247	273,396652	313,607344	0
15.01.2021	05:38:22	0	0	3,163608	2,832	24,12	-0,565	85,433	0	1010,9	5,8	8,1	7,9	1	1	1	1	1	1	1	1	1	0	1	-2,255109	273,273316	313,952243	0
15.01.2021	05:38:23	0	0	4,519412	2,80275	23,5908	-0,568	85,429	0	1010,84	5,8	8,1	8	1	1	1	1	1	1	1	1	1	0	1	-8,597604	273,396652	308,180988	0
15.01.2021	05:38:24	0	0	3,38958	2,7375	23,2056	-0,565	85,44	0	1010,92	5,8	8	7,9	1	1	1	1	1	1	1	1	1	0	1	-6,553911	273,273316	309,653441	0
15.01.2021	05:38:25	0	0	3,841501	2,625	13,6764	-0,559	85,45	0	1010,78	5,8	8,1	8	1	1	1	1	1	1	1	1	1	0	1	-2,748414	273,412484	314,103564	0
15.01.2021	05:38:26	0	0	3,502566	2,44575	18,0792	-0,554	85,437	0	1010,8	5,8	8,1	7,9	1	1	1	1	1	1	1	1	1	0	1	-1,268499	273,243319	314,800037	0
15.01.2021	05:38:27	0	0	4,51944	2,343	32,1552	-0,564	85,429	0	1010,76	6	8,1	7,9	1	1	1	1	1	1	1	1	1	0	1	-5,84919	273,307655	310,517131	0
15.01.2021	05:38:28	0	0	3,728538	2,2455	27,6444	-0,563	85,434	0	1010,74	5,8	8,1	7,9	1	1	1	1	1	1	1	1	1	0	1	-10,218464	273,227625	305,777464	0
15.01.2021	05:38:29	0	0	2,937636	2,27025	20,6244	-0,565	85,438	0	1010,64	6	8,1	7,9	1	1	1	1	1	1	1	1	1	0	1	-8,386187	273,271886	307,814548	0
15.01.2021	05:38:30	0	0	3,95451	2,21925	12,4704	-0,56	85,446	0	1010,84	6	8,1	7,9	1	1	1	1	1	1	1	1	1	0	1	-5,003524	273,263311	311,157527	0
15.01.2021	05:38:31	0	0	4,858398	2,30025	26,5248	-0,569	85,427	0	1010,7	5,8	8,1	7,9	1	1	1	1	1	1	1	1	1	0	1	-4,862579	273,400968	311,93602	0
15.01.2021	05:38:32	0	0	5,084369	2,388	18,4536	-0,56	85,446	0	1010,66	6	8,1	7,9	1	1	1	1	1	1	1	1	1	0	1	-7,610994	273,330583	308,861498	0
15.01.2021	05:38:33	0	0	2,937636	2,21775	24,3396	-0,567	85,422	0	1010,8	6	8	7,9	1	1	1	1	1	1	1	1	1	0	1	-4,580691	273,406726	312,244593	0
15.01.2021	05:38:34	0	0	5,084369	2,05575	11,7108	-0,568	85,43	0	1010,76	5,8	8	7,9	1	1	1	1	1	1	1	1	1	0	1	-4,721635	273,406726	312,103649	0
15.01.2021	05:38:35	0	0	5,197355	2,03775	12,474	-0,57	85,441	0	1010,7	5,8	8,1	7,9	1	1	1	1	1	1	1	1	1	0	1	-8,104299	273,296202	308,208994	0
15.01.2021	05:38:36	0	0	2,372706	2,00925	14,6592	-0,565	85,436	0	1010,72	6	8,1	7,9	1	1	1	1	1	1	1	1	1	0	1	-5,778717	273,400968	311,019882	0
15.01.2021	05:38:37	0	0	4,632398	1,98975	7,5096	-0,565	85,439	0	1010,8	5,8	8,1	8	1	1	1	1	1	1	1	1	1	0	1	-7,82241	273,303359	308,524021	0
15.01.2021	05:38:38	0	0	4,632426	2,08425	20,2896	-0,565	85,438	0	1010,82	5,8	8,1	7,9	1	1	1	1	1	1	1	1	1	0	1	-6,20155	273,392336	310,557039	0
15.01.2021	05:38:39	0	0	3,050622	2,37	27,954	-0,566	85,436	0	1010,56	6	8	7,9	1	1	1	1	1	1	1	1	1	0	1	-6,694856	273,344926	309,844072	0
15.01.2021	05:38:40	0	0	2,25972	2,439	18,4644	-0,564	85,443	0	1010,84	5,8	8,1	7,9	1	1	1	1	1	1	1	1	1	0	1	-8,668076	273,224773	307,314657	0
15.01.2021	05:38:41	0	0	3,728538	2,33925	10,44	-0,565	85,434	0	1010,76	6	8,1	7,9	1	1	1	1	1	1	1	1	1	0	1	-3,523608	273,269027	312,663897	0
15.01.2021	05:38:42	0	0	4,745412	2,31	2,646	-0,57	85,429	0	1010,82	5,8	8,1	7,9	1	1	1	1	1	1	1	1	1	0	1	-1,691332	273,357844	314,907438	0
15.01.2021	05:38:43	0	0	2,937636	2,298	7,9596	-0,565	85,439	0	1010,76	6	8,1	7,9	1	1	1	1	1	1	1	1	1	0	1	-1,550388	273,406726	315,274897	0
15.01.2021	05:38:44	0	0	3,38958	2,36175	12,8628	-0,564	85,423	0	1010,7	5,8	8	7,9	1	1	1	1	1	1	1	1	1	0	1	-5,567301	273,33345	310,918473	0
15.01.2021	05:38:45	0	0	2,937636	2,3505	11,7252	-0,563	85,436	0	1010,54	5,8	8,1	7,9	1	1	1	1	1	1	1	1	1	0	1	-4,369274	273,249029	311,725683	0
15.01.2021	05:38:46	0	0	2,485692	2,409	6,0624	-0,571	85,443	0	1010,7	5,8	8,1	7,9	1	1	1	1	1	1	1	1	1	0	1	-0	273,354973	316,585467	0
15.01.2021	05:38:47	0	0	2,372706	2,73375	11,3004	-0,559	85,442	0	1010,8	6	8	7,9	1	1	1	1	1	1	1	1	1	0	1	-1,409443	273,416805	315,462563	0
15.01.2021	05:38:48	0	0	4,51944	2,7585	13,9392	-0,567	85,443	0	1010,7	6	8,1	7,9	1	1	1	1	1	1	1	1	1	0	1	-2,536998	273,304791	313,816063	0
15.01.2021	05:38:49	0	0	3,38958	2,7465	27,9576	-0,569	85,439	0	1010,6	5,8	8,1	7,9	1	1	1	1	1	1	1	1	1	0	1	-2,325581	273,402407	314,479688	0
15.01.2021	05:38:50	0	0	3,95451	2,6505	7,8768	-0,568	85,448	0	1010,9	5,8	8,1	7,9	1	1	1	1	1	1	1	1	1	0	1	-8,033827	273,317683	308,378925	0
15.01.2021	05:38:51	0	0	4,858398	2,50425	24,7176	-0,564	85,432	0	1010,72	6	8,1	7,9	1	1	1	1	1	1	1	1	1	0	1	-3,523608	273,419685	313,361753	0
15.01.2021	05:38:52	0	0	2,82465	2,4105	22,842	-0,564	85,457	0	1010,78	5,8	8,1	7,9	1	1	1	1	1	1	1	1	1	0	1	-0,070472	273,320549	316,355551	0
15.01.2021	05:38:53	0	0	4,067496	2,29275	40,2372	-0,564	85,457	0	1010,8	5,8	8	7,9	1	1	1	1	1	1	1	1	1	0	1	-0	273,405286	316,818612	0
15.01.2021	05:38:54	0	0	4,406454	2,187	19,5264	-0,562	85,446	0	1010,76	6	8,1	7,9	1	1	1	1	1	1	1	1	1	0	1	-3,875969	273,294771	312,430698	0
15.01.2021	05:38:55	0	0	4,632426	2,3055	23,9688	-0,569	85,44	0	1010,72	6	8,1	7,9	1	1	1	1	1	1	1	1	1	0	1	-1,62086	273,390897	315,131064	0
15.01.2021	05:38:56	0	0	2,937636	2,5215	0,8784	-0,562	85,446	0	1010,74	6	8,1	7,9	1	1	1	1	1	1	1	1	1	0	1	-0,140944	273,261883	316,013494	0
15.01.2021	05:38:57	0	0	2,82465	2,76675	28,3428	-0,559	85,446	0	1010,76	5,8	8	7,9	1	1	1	1	1	1	1	1	1	0	1	-8,104299	273,403847	308,707642	0
15.01.2021	05:38:58	0	0	3,502566	2,895	16,1172	-0,564	85,431	0	1010,76	6	8,1	7,9	1	1	1	1	1	1	1	1	1	0	1	-3,100775	273,267598	313,080115	0
15.01.2021	05:38:59	0	0	4,406454	2,9295	11,7324	-0,563	85,449	0	1010,74	5,8	8	7,9	1	1	1	1	1	1	1	1	1	0	1	-3,453136	273,349231	313,105733	0
15.01.2021	05:39:00	0	0	2,711664	2,60025	4,1112	-0,564	85,457	0	1010,74	6	8,1	7,9	1	1	1	1	1	1	1	1	1	0	1	-3,030303	273,290478	313,25649	0
15.01.2021	05:39:01	0	0	2,711664	2,60025	4,1112	-0,564	85,457	0	1010,74	6	8,1	7,9	1	1	1	1	1	1	1	1	1	0	1	-3,030303	273,290478	313,25649	0
15.01.2021	05:39:02	0	0	4,745412	2,87625	8,6076	-0,565	85,443	0	1010,84	5,8	8,1	7,9	1	1	1	1	1	1	1	1	1	0	1	-3,523608	273,241891	312,538324	0
15.01.2021	05:39:03	0	0	4,858398	3,05025	14,6412	-0,558	85,448	0	1010,7	6	8,1	7,9	1	1	1	1	1	1	1	1	1	0	1	-7,540521	273,346361	309,005052	0
15.01.2021	05:39:04	0	0	4,067496	2,89575	27,9648	-0,564	85,449	0	1010,72	6	8	7,9	1	1	1	1	1	1	1	1	1	0	1	-6,553911	273,39809	310,231349	0
15.01.2021	05:39:05	0	0	4,745412	2,69025	8,2548	-0,567	85,441	0	1010,76	6	8	7,9	1	1	1	1	1	1	1	1	1	0	1	-5,003524	273,37652	311,681772	0
15.01.2021	05:39:06	0	0	3,38958	2,50575	19,5372	-0,559	85,442	0	1010,84	5,8	8	7,9	1	1	1	1	1	1	1	1	1	0	1	-5,567301	273,267598	310,613589	0
15.01.2021	05:39:07	0	0	2,485692	2,51775	7,5132	-0,564	85,453	0	1010,76	6	8	7,9	1	1	1	1	1	1	1	1	1	0	1	-6,553911	273,413924	310,304743	0
15.01.2021	05:39:08	0	0	4,745412	2,49675	19,9008	-0,561	85,446	0	1010,76	6	8	7,9	1	1	1	1	1	1	1	1	1	0	1	-4,933051	273,372208	311,732268	0
15.01.2021	05:39:09	0	0	2,937636	2,47125	25,4376	-0,563	85,451	0	1010,84	6	8	7,9	1	1	1	1	1	1	1	1	1	0	1	-8,668076	273,412484	308,183903	0
15.01.2021	05:39:10	0	0	4,067496	2,4825	25,7904	-0,564	85,445	0	1010,78	5,8	8	7,9	1	1	1	1	1	1	1	1	1	0	1	-7,047216	273,317683	309,365536	0
15.01.2021	05:39:11	0	0	4,067496	2,6415	16,092	-0,564	85,444	0	1010,74	6	8,2	7,9	1	1	1	1	1	1	1	1	1	0	1	-3,664553	273,390897	313,087371	0
15.01.2021	05:39:12	0	0	2,82465	2,84925	27,2772	-0,558	85,445	0	1010,84	6	8	7,9	1	1	1	1	1	1	1	1	1	0	1	-1,832276	273,260454	314,315551	0
15.01.2021	05:39:13	0	0	4,180482	2,895	39,2724	-0,557	85,448	0	1010,76	6	8,1	7,9	1	1	1	1	1	1	1	1	1	0	1	-3,171247	273,286186	313,095678	0
15.01.2021	05:39:14	0	0	2,82465	3,01425	28,728	-0,569	85,451	0	1010,64	5,8	8,1	7,9	1	1	1	1	1	1	1	1	1	0	1	-4,157858	273,260454	311,989969	0
15.01.2021	05:39:15	0	0	4,971384	2,98875	19,9116	-0,557	85,457	0	1010,78	6	8	7,9	1	1	1	1	1	1	1	1	1	0	1	-4,651163	273,281895	311,595899	0
15.01.2021	05:39:16	0	0	3,841524	3,07125	9,0036	-0,56	85,464	0	1010,74	6	8	7,9	1	1	1	1	1	1	1	1	1	0	1	-4,721635	273,424007	312,183762	0
15.01.2021	05:39:17	0	0	4,971384	3,0435	16,8588	-0,565	85,44	0	1010,86	6	8	7,9	1	1	1	1	1	1	1	1	1	0	1	-4,510218	273,373645	312,161759	0
15.01.2021	05:39:18	0	0	2,598678	3,01725	15,408	-0,567	85,459	0	1010,76	6	8,1	7,9	1	1	1	1	1	1	1	1	1	0	1	-5,144468	273,290478	311,142325	0
15.01.2021	05:39:19	0	0	4,745412	2,88825	21,7692	-0,567	85,456	0	1010,76	6	8,1	7,9	1	1	1	1	1	1	1	1	1	0	1	-6,765328	273,411045	310,079977	0
15.01.2021	05:39:20	0	0	4,632426	2,9055	21,7728	-0,563	85,46	0	1010,78	5,8	8,1	7,9	1	1	1	1	1	1	1	1	1	0	1	-4,157858	273,311952	312,228359	0
15.01.2021	05:39:21	0	0	4,632426	3,02175	34,3404	-0,563	85,46	0	1010,76	5,8	8	7,9	1	1	1	1	1	1	1	1	1	0	1	-6,131078	273,399529	310,660851	0
15.01.2021	05:39:22	0	0	3,050622	3,093	16,0992	-0,57	85,455	0	1010,68	6	8	7,9	1	1	1	1	1	1	1	1	1	0	1	-10,077519	273,367898	306,567829	0
15.01.2021	05:39:23	0	0	4,971384	3,2775	20,6352	-0,558	85,438	0	1010,76	6	8	7,9	1	1	1	1	1	1	1	1	1	0	1	-5,567301	273,280465	310,673141	0
15.01.2021	05:39:24	0	0	2,598678	3,26325	18,4464	-0,558	85,454	0	1010,78	6	8	7,9	1	1	1	1	1	1	1	1	1	0	1	-5,567301	273,231904	310,448422	0
15.01.2021	05:39:25	0	0	4,067496	3,2745	13,176	-0,564	85,447	0	1010,7	6	8	7,9	1	1	1	1	1	1	1	1	1	0	1	-5,567301	273,357844	311,031469	0
15.01.2021	05:39:26	0	0	2,711664	3,35625	24,3504	-0,558	85,439	0	1010,76	6	8	7,9	1	1	1	1	1	1	1	1	1	0	1	-7,82241	273,396652	308,956182	0
15.01.2021	05:39:27	0	0	4,293468	3,43725	19,512	-0,565	85,44	0	1010,72	6	8	7,9	1	1	1	1	1	1	1	1	1	0	1	-5,637773	273,257597	310,496833	0
15.01.2021	05:39:28	0	0	2,82465	3,426	19,8972	-0,565	85,46	0	1010,7	6	8	7,9	1	1	1	1	1	1	1	1	1	0	1	-3,59408	273,377957	313,097876	0
15.01.2021	05:39:29	0	0	4,067496	3,333	17,2332	-0,564	85,465	0	1010,86	6	8,1	7,9	1	1	1	1	1	1	1	1	1	0	1	-3,523608	273,415365	313,341722	0
15.01.2021	05:39:30	0	0	2,937636	3,3195	11,2068	-0,56	85,459	0	1010,8	6	8	7,9	1	1	1	1	1	1	1	1	1	0	1	-4,721635	273,267598	311,459255	0
15.01.2021	05:39:31	0	0	4,632426	3,135	8,6184	-0,569	85,467	0	1010,78	6	8	7,9	1	1	1	1	1	1	1	1	1	0	1	-3,523608	273,23761	312,518516	0
15.01.2021	05:39:32	0	0	3,615552	2,91675	7,506	-0,561	85,452	0	1010,8	6	8	7,9	1	1	1	1	1	1	1	1	1	0	1	-4,721635	273,263311	311,439416	0
15.01.2021	05:39:33	0	0	3,728538	2,84925	6,0696	-0,563	85,461	0	1010,74	6	8	7,9	1	1	1	1	1	1	1	1	1	0	1	-7,117689	273,405286	309,700923	0
15.01.2021	05:39:34	0	0	4,745412	2,82675	16,182	-0,566	85,455	0	1010,74	6	8	7,9	1	1	1	1	1	1	1	1	1	0	1	-2,536998	273,229051	313,465527	0
15.01.2021	05:39:35	0	0	4,632426	2,697	16,0956	-0,562	85,452	0	1010,78	6	8,1	7,9	1	1	1	1	1	1	1	1	1	0	1	-5,708245	273,35928	310,897177	0
15.01.2021	05:39:36	0	0	4,632426	2,613	15,7968	-0,56	85,454	0	1010,84	5,8	8,1	7,9	1	1	1	1	1	1	1	1	1	0	1	-7,540521	273,393774	309,224735	0
15.01.2021	05:39:37	0	0	2,372706	2,79075	22,8348	-0,561	85,46	0	1010,8	6	8	7,9	1	1	1	1	1	1	1	1	1	0	1	-5,567301	273,243319	310,501235	0
15.01.2021	05:39:38	0	0	4,293468	2,9355	28,8144	-0,557	85,471	0	1010,7	6	8	7,9	1	1	1	1	1	1	1	1	1	0	1	-9,302326	273,300496	307,030848	0
15.01.2021	05:39:39	0	0	4,745412	2,943	15,7896	-0,564	85,455	0	1010,78	6	8	7,9	1	1	1	1	1	1	1	1	1	0	1	-6,272023	273,39809	310,513238	0
15.01.2021	05:39:40	0	0	4,745412	2,8035	2,664	-0,56	85,451	0	1010,74	6	8	7,9	1	1	1	1	1	1	1	1	1	0	1	-5,21494	273,267598	310,96595	0
15.01.2021	05:39:41	0	0	3,38958	2,6715	21,0132	-0,558	85,468	0	1010,82	6	8	7,9	1	1	1	1	1	1	1	1	1	0	1	-7,751938	273,261883	308,402501	0
15.01.2021	05:39:42	0	0	4,971384	2,59275	17,2404	-0,564	85,452	0	1010,64	6	8	7,9	1	1	1	1	1	1	1	1	1	0	1	-7,751938	273,390897	308,999986	0
15.01.2021	05:39:43	0	0	2,937636	2,55075	19,9008	-0,554	85,461	0	1010,8	5,8	8	7,9	1	1	1	1	1	1	1	1	1	0	1	-4,298802	273,284755	311,961501	0
15.01.2021	05:39:44	0	0	4,632426	2,547	15,7896	-0,563	85,459	0	1010,7	6	8	7,9	1	1	1	1	1	1	1	1	1	0	1	-7,540521	273,385145	309,184744	0
15.01.2021	05:39:45	0	0	3,163608	2,6445	14,3064	-0,557	85,458	0	1010,68	6	8	7,9	1	1	1	1	1	1	1	1	1	0	1	-5,355884	273,291909	310,937533	0
15.01.2021	05:39:46	0	0	4,632426	2,63775	15,4332	-0,564	85,45	0	1010,68	6	8,2	7,9	1	1	1	1	1	1	1	1	1	0	1	-5,144468	273,37652	311,540828	0
15.01.2021	05:39:47	0	0	5,310341	2,60325	358,02	-0,559	85,467	0	1010,72	6	8	7,9	1	1	1	1	1	1	1	1	1	0	1	-1,268499	273,227625	314,727428	0
15.01.2021	05:39:48	0	0	3,276574	2,53725	3,7908	-0,557	85,466	0	1010,82	6	8	8	1	1	1	1	1	1	1	1	1	0	1	-2,959831	273,367898	313,685517	0
15.01.2021	05:39:49	0	0	3,050622	2,52075	1,9152	-0,555	85,463	0	1010,68	6	8	7,9	1	1	1	1	1	1	1	1	1	0	1	-0	273,382269	316,71194	0
15.01.2021	05:39:50	0	0	3,841524	2,67375	18,8244	-0,562	85,449	0	1010,8	6	8	7,9	1	1	1	1	1	1	1	1	1	0	1	-8,45666	273,31052	307,922924	0
15.01.2021	05:39:51	0	0	3,050622	2,8545	15,3972	-0,562	85,444	0	1010,76	6	8	7,9	1	1	1	1	1	1	1	1	1	0	1	-4,933051	273,250457	311,168512	0
15.01.2021	05:39:52	0	0	2,372706	3,0285	15,786	-0,555	85,478	0	1010,82	6	8,1	7,9	1	1	1	1	1	1	1	1	1	0	1	-2,114165	273,217644	313,835594	0
15.01.2021	05:39:53	0	0	3,841524	3,04425	17,6832	-0,558	85,466	0	1010,98	6	8	7,9	1	1	1	1	1	1	1	1	1	0	1	-3,030303	273,309087	313,342649	0
15.01.2021	05:39:54	0	0	3,502566	2,8245	18,0864	-0,556	85,462	0	1010,68	6	8,1	7,9	1	1	1	1	1	1	1	1	1	0	1	-3,59408	273,409605	313,24455	0
15.01.2021	05:39:55	0	0	3,95451	2,7075	16,488	-0,553	85,462	0	1010,86	6	8	7,9	1	1	1	1	1	1	1	1	1	0	1	-0,211416	273,249029	315,88354	0
15.01.2021	05:39:56	0	0	4,858398	2,688	10,8936	-0,559	85,457	0	1010,84	6	8	7,9	1	1	1	1	1	1	1	1	1	0	1	-1,832276	273,366461	314,806416	0
15.01.2021	05:39:57	0	0	2,598678	2,69175	10,062	-0,554	85,469	0	1010,9	5,8	8,1	7,9	1	1	1	1	1	1	1	1	1	0	1	-7,470049	273,393774	309,295207	0
15.01.2021	05:39:58	0	0	3,61553	2,8905	15,0336	-0,559	85,46	0	1010,74	6	8,1	8	1	1	1	1	1	1	1	1	1	0	1	-0	273,291909	316,293417	0
15.01.2021	05:39:59	0	0	3,050622	3,05025	6,822	-0,554	85,466	0	1010,86	6	8,1	7,9	1	1	1	1	1	1	1	1	1	0	1	-3,946441	273,297633	312,373478	0
15.01.2021	05:40:00	0	0	3,728515	2,853	18,0828	-0,558	85,457	0	1010,82	6	8	8	1	1	1	1	1	1	1	1	1	0	1	-7,963354	273,354973	308,622113	0
15.01.2021	05:40:01	0	0	3,728515	2,853	18,0828	-0,558	85,457	0	1010,82	6	8	8	1	1	1	1	1	1	1	1	1	0	1	-7,963354	273,354973	308,622113	0
15.01.2021	05:40:02	0	0	5,423327	2,6955	13,5468	-0,556	85,459	0	1010,72	6	8	7,9	1	1	1	1	1	1	1	1	1	0	1	-6,483439	273,412484	310,36854	0
15.01.2021	05:40:03	0	0	4,745412	2,67675	17,2404	-0,556	85,453	0	1010,76	6	8	7,9	1	1	1	1	1	1	1	1	1	0	1	-2,959831	273,301928	313,379971	0
15.01.2021	05:40:04	0	0	3,728538	2,715	4,0896	-0,56	85,482	0	1010,76	6	8	7,9	1	1	1	1	1	1	1	1	1	0	1	-4,016913	273,241891	312,045019	0
15.01.2021	05:40:05	0	0	4,858398	2,577	12,4776	-0,558	85,473	0	1010,72	6	8	7,9	1	1	1	1	1	1	1	1	1	0	1	-3,875969	273,353537	312,702848	0
15.01.2021	05:40:06	0	0	2,372706	2,5185	12,1032	-0,555	85,455	0	1010,76	6	8,1	7,9	1	1	1	1	1	1	1	1	1	0	1	-4,298802	273,421126	312,593237	0
15.01.2021	05:40:07	0	0	2,937636	2,42625	15,4008	-0,553	85,473	0	1010,76	6	8,1	7,9	1	1	1	1	1	1	1	1	1	0	1	-10,288936	273,329149	306,176916	0
15.01.2021	05:40:08	0	0	3,38958	2,40825	14,6592	-0,56	85,468	0	1010,68	6	8	7,9	1	1	1	1	1	1	1	1	1	0	1	-3,453136	273,380832	313,252142	0
15.01.2021	05:40:09	0	0	4,632426	2,50725	13,1688	-0,561	85,478	0	1010,68	6	8,1	7,9	1	1	1	1	1	1	1	1	1	0	1	-4,157858	273,231904	311,857865	0
15.01.2021	05:40:10	0	0	4,745412	2,4975	20,2788	-0,554	85,479	0	1010,74	6	8	7,9	1	1	1	1	1	1	1	1	1	0	1	-4,651163	273,336319	311,847896	0
15.01.2021	05:40:11	0	0	4,180482	2,37225	10,8072	-0,556	85,476	0	1010,84	6	8,1	7,9	1	1	1	1	1	1	1	1	1	0	1	-6,342495	273,411045	310,50281	0
15.01.2021	05:40:12	0	0	4,745412	2,2665	19,53	-0,553	85,48	0	1010,78	6	8	7,9	1	1	1	1	1	1	1	1	1	0	1	-4,087385	273,399529	312,704544	0
15.01.2021	05:40:13	0	0	4,858398	2,3235	15,7824	-0,564	85,471	0	1010,58	6	8	7,9	1	1	1	1	1	1	1	1	1	0	1	-10,218464	273,324848	306,227471	0
15.01.2021	05:40:14	0	0	4,51944	2,346	19,8936	-0,555	85,467	0	1010,82	6	8	7,9	1	1	1	1	1	1	1	1	1	0	1	-2,043693	273,239037	314,005034	0
15.01.2021	05:40:15	0	0	3,95451	2,3715	17,7084	-0,555	85,474	0	1010,76	6	8	7,9	1	1	1	1	1	1	1	1	1	0	1	-2,184637	273,383707	314,533965	0
15.01.2021	05:40:16	0	0	3,615552	2,436	19,5264	-0,553	85,476	0	1010,82	6	8	7,9	1	1	1	1	1	1	1	1	1	0	1	-3,735025	273,365025	312,897013	0
15.01.2021	05:40:17	0	0	2,824633	2,421	21,7656	-0,56	85,482	0	1010,76	5,9	8	8	1	1	1	1	1	1	1	1	1	0	1	-6,976744	273,270457	309,217376	0
15.01.2021	05:40:18	0	0	2,937636	2,49375	28,3644	-0,56	85,464	0	1010,8	6	8	7,9	1	1	1	1	1	1	1	1	1	0	1	-7,399577	273,379394	309,29904	0
15.01.2021	05:40:19	0	0	3,728538	2,44875	5,2128	-0,557	85,477	0	1010,82	6	8	7,9	1	1	1	1	1	1	1	1	1	0	1	-10,359408	273,236183	305,676115	0
15.01.2021	05:40:20	0	0	3,502566	2,39175	10,0728	-0,556	85,49	0	1010,86	6	8,1	7,9	1	1	1	1	1	1	1	1	1	0	1	-1,479915	273,349231	315,078954	0
15.01.2021	05:40:21	0	0	2,82465	2,4105	8,604	-0,558	85,483	0	1010,8	6	8	7,9	1	1	1	1	1	1	1	1	1	0	1	-4,933051	273,239037	311,115675	0
15.01.2021	05:40:22	0	0	4,632426	2,50125	13,1832	-0,56	85,473	0	1010,82	6	8	7,9	1	1	1	1	1	1	1	1	1	0	1	-5,285412	273,337753	311,22029	0
15.01.2021	05:40:23	0	0	2,937636	2,32725	12,8376	-0,549	85,486	0	1010,82	6	8	7,9	1	1	1	1	1	1	1	1	1	0	1	-1,902748	273,244746	314,172392	0
15.01.2021	05:40:24	0	0	4,971384	2,2965	11,7288	-0,56	85,493	0	1010,8	6	8,1	7,9	1	1	1	1	1	1	1	1	1	0	1	-4,580691	273,386583	312,151238	0
15.01.2021	05:40:25	0	0	4,971384	2,25675	15,7824	-0,554	85,481	0	1010,74	6	8	7,9	1	1	1	1	1	1	1	1	1	0	1	-6,342495	273,304791	310,010566	0
15.01.2021	05:40:26	0	0	4,745412	2,208	15,7968	-0,549	85,476	0	1010,78	6	8	7,9	1	1	1	1	1	1	1	1	1	0	1	-6,8358	273,419685	310,049561	0
15.01.2021	05:40:27	0	0	5,084369	2,19225	21,0276	-0,555	85,478	0	1010,78	5,9	8	7,9	1	1	1	1	1	1	1	1	1	0	1	-6,976744	273,300496	309,35643	0
15.01.2021	05:40:28	0	0	4,51944	2,178	19,908	-0,553	85,482	0	1010,82	6	8,1	7,9	1	1	1	1	1	1	1	1	1	0	1	-5,919662	273,383707	310,798941	0
15.01.2021	05:40:29	0	0	3,38958	2,2065	14,3028	-0,549	85,486	0	1010,94	6	8	7,9	1	1	1	1	1	1	1	1	1	0	1	-3,59408	273,256169	312,533916	0
15.01.2021	05:40:30	0	0	4,858368	2,4495	0,1152	-0,548	85,472	0	1010,88	6	8	8	1	1	1	1	1	1	1	1	1	0	1	-1,268499	273,33345	315,217275	0
15.01.2021	05:40:31	0	0	4,632398	2,58225	12,096	-0,55	85,471	0	1010,8	6	8	8	1	1	1	1	1	1	1	1	1	0	1	-6,624383	273,229051	309,378142	0
15.01.2021	05:40:32	0	0	3,615552	2,715	2,3076	-0,555	85,487	0	1010,8	6	8	7,9	1	1	1	1	1	1	1	1	1	0	1	-3,946441	273,257597	312,188165	0
15.01.2021	05:40:33	0	0	4,971384	2,736	7,8912	-0,556	85,485	0	1010,64	6	8	7,9	1	1	1	1	1	1	1	1	1	0	1	-4,721635	273,370771	311,937027	0
15.01.2021	05:40:34	0	0	3,276594	2,7	12,4632	-0,554	85,473	0	1010,8	6	8	7,9	1	1	1	1	1	1	1	1	1	0	1	-6,412967	273,266169	309,76131	0
15.01.2021	05:40:35	0	0	2,146734	2,5905	8,2764	-0,551	85,483	0	1010,76	5,9	8,1	7,9	1	1	1	1	1	1	1	1	1	0	1	-3,312192	273,346361	313,233382	0
15.01.2021	05:40:36	0	0	2,598678	2,5155	15,0264	-0,554	85,499	0	1010,82	5,9	8,1	7,9	1	1	1	1	1	1	1	1	1	0	1	-3,312192	273,436979	313,653348	0
15.01.2021	05:40:37	0	0	2,25972	2,5095	15,1272	-0,554	85,486	0	1010,84	5,9	8,1	7,9	1	1	1	1	1	1	1	1	1	0	1	-7,188161	273,320549	309,237863	0
15.01.2021	05:40:38	0	0	3,163608	2,3685	21,7728	-0,552	85,487	0	1010,7	6	8	7,9	1	1	1	1	1	1	1	1	1	0	1	-0,140944	273,253312	315,973834	0
15.01.2021	05:40:39	0	0	4,293468	2,16675	17,2332	-0,556	85,483	0	1010,72	6	8	7,9	1	1	1	1	1	1	1	1	1	0	1	-6,694856	273,279035	309,538967	0
15.01.2021	05:40:40	0	0	2,937636	2,05275	10,818	-0,553	85,495	0	1010,84	6	8	7,9	1	1	1	1	1	1	1	1	1	0	1	-3,735025	273,246173	312,34672	0
15.01.2021	05:40:41	0	0	2,937636	2,0445	22,464	-0,558	85,474	0	1010,76	6	8,1	7,9	1	1	1	1	1	1	1	1	1	0	1	-3,805497	273,33345	312,680278	0
15.01.2021	05:40:42	0	0	4,745412	2,0745	16,1028	-0,554	85,497	0	1010,96	6	8,1	7,9	1	1	1	1	1	1	1	1	1	0	1	-3,382664	273,247601	312,705687	0
15.01.2021	05:40:43	0	0	2,82465	2,16975	10,8216	-0,561	85,479	0	1010,76	6	8,1	7,9	1	1	1	1	1	1	1	1	1	0	1	-3,875969	273,261883	312,27847	0
15.01.2021	05:40:44	0	0	2,598678	2,244	22,8492	-0,554	85,478	0	1010,68	5,9	8,1	7,9	1	1	1	1	1	1	1	1	1	0	1	-3,805497	273,380832	312,899781	0
15.01.2021	05:40:45	0	0	4,632398	2,3385	20,6244	-0,552	85,495	0	1010,76	6	8	8	1	1	1	1	1	1	1	1	1	0	1	-4,369274	273,380832	312,336004	0
15.01.2021	05:40:46	0	0	3,050622	2,40375	354,9708	-0,557	85,481	0	1010,68	5,9	8,1	7,9	1	1	1	1	1	1	1	1	1	0	1	-2,325581	273,369335	314,326423	0
15.01.2021	05:40:47	0	0	3,276594	2,33175	23,5836	-0,55	85,493	0	1010,92	6	8	7,9	1	1	1	1	1	1	1	1	1	0	1	-4,22833	273,413924	312,630324	0
15.01.2021	05:40:48	0	0	3,050622	2,25	19,908	-0,556	85,496	0	1010,86	6	8	7,9	1	1	1	1	1	1	1	1	1	0	1	-0,775194	273,366461	315,863499	0
15.01.2021	05:40:49	0	0	3,050603	2,14125	28,3284	-0,559	85,484	0	1010,74	6	8,1	8	1	1	1	1	1	1	1	1	1	0	1	-3,030303	273,425448	313,881774	0
15.01.2021	05:40:50	0	0	3,163589	2,14275	13,9176	-0,552	85,491	0	1010,88	6	8,1	8	1	1	1	1	1	1	1	1	1	0	1	-4,016913	273,362152	312,601815	0
15.01.2021	05:40:51	0	0	4,406454	2,256	23,9472	-0,547	85,496	0	1010,78	5,9	8,1	7,9	1	1	1	1	1	1	1	1	1	0	1	-1,902748	273,421126	314,989291	0
15.01.2021	05:40:52	0	0	4,858398	2,36025	358,7436	-0,56	85,489	0	1010,68	5,9	8,1	7,9	1	1	1	1	1	1	1	1	1	0	1	-3,875969	273,352102	312,696198	0
15.01.2021	05:40:53	0	0	3,728538	2,3655	25,794	-0,553	85,495	0	1010,72	5,9	8,1	7,9	1	1	1	1	1	1	1	1	1	0	1	-8,949965	273,413924	307,908689	0
15.01.2021	05:40:54	0	0	4,745412	2,349	10,8108	-0,557	85,479	0	1010,62	5,9	8,1	7,9	1	1	1	1	1	1	1	1	1	0	1	-4,439746	273,311952	311,94647	0
15.01.2021	05:40:55	0	0	3,728515	2,20275	20,2932	-0,555	85,476	0	1010,74	5,9	8	8	1	1	1	1	1	1	1	1	1	0	1	-3,100775	273,424007	313,804622	0
15.01.2021	05:40:56	0	0	4,293493	2,163	16,4916	-0,551	85,522	0	1010,84	5,9	8	7,8	1	1	1	1	1	1	1	1	1	0	1	-5,919662	273,436979	311,045878	0
15.01.2021	05:40:57	0	0	2,937618	2,2095	18,8532	-0,552	85,497	0	1010,72	5,9	8	8	1	1	1	1	1	1	1	1	1	0	1	-0,352361	273,353537	316,226456	0
15.01.2021	05:40:58	0	0	2,598678	2,214	19,1556	-0,547	85,493	0	1010,84	5,9	8,1	7,9	1	1	1	1	1	1	1	1	1	0	1	-4,862579	273,418245	312,016104	0
15.01.2021	05:40:59	0	0	4,180456	2,20875	29,1024	-0,556	85,492	0	1010,78	6	8	8	1	1	1	1	1	1	1	1	1	0	1	-7,751938	273,365025	308,880099	0
15.01.2021	05:41:00	0	0	4,406454	2,004	32,8752	-0,557	85,495	0	1010,7	6	8,1	7,9	1	1	1	1	1	1	1	1	1	0	1	-1,832276	273,365025	314,799761	0
15.01.2021	05:41:01	0	0	4,406454	2,004	32,8752	-0,557	85,495	0	1010,7	6	8,1	7,9	1	1	1	1	1	1	1	1	1	0	1	-1,832276	273,365025	314,799761	0
15.01.2021	05:41:02	0	0	3,38958	1,776	29,1024	-0,554	85,5	0	1010,76	6	8,1	7,9	1	1	1	1	1	1	1	1	1	0	1	-4,510218	273,254741	311,611169	0
15.01.2021	05:41:03	0	0	2,598678	1,67475	23,2272	-0,554	85,498	0	1010,78	5,9	8	7,9	1	1	1	1	1	1	1	1	1	0	1	-5,637773	273,402407	311,167496	0
15.01.2021	05:41:04	0	0	3,05064	1,605	19,1556	-0,549	85,492	0	1010,76	5,9	8,1	7,8	1	1	1	1	1	1	1	1	1	0	1	-0	273,246173	316,081745	0
15.01.2021	05:41:05	0	0	3,276574	1,5975	23,5836	-0,548	85,498	0	1010,84	5,9	8,1	8	1	1	1	1	1	1	1	1	1	0	1	-6,342495	273,319116	310,076893	0
15.01.2021	05:41:06	0	0	4,406454	1,6665	34,0452	-0,551	85,497	0	1010,9	5,9	8,1	7,9	1	1	1	1	1	1	1	1	1	0	1	-6,8358	273,413924	310,022854	0
15.01.2021	05:41:07	0	0	4,406454	1,71525	26,1792	-0,556	85,486	0	1010,58	5,9	8	7,9	1	1	1	1	1	1	1	1	1	0	1	-0	273,313385	316,392849	0
15.01.2021	05:41:08	0	0	4,067471	1,8405	16,0992	-0,548	85,507	0	1010,76	5,9	8,1	8	1	1	1	1	1	1	1	1	1	0	1	-2,536998	273,418245	314,341685	0
15.01.2021	05:41:09	0	0	5,084369	1,87275	32,1372	-0,549	85,502	0	1010,78	5,9	8,1	7,9	1	1	1	1	1	1	1	1	1	0	1	-6,131078	273,31625	310,275039	0
15.01.2021	05:41:10	0	0	3,050622	1,93425	26,9028	-0,548	85,514	0	1010,86	5,9	8	7,9	1	1	1	1	1	1	1	1	1	0	1	-5,708245	273,289047	310,571925	0
15.01.2021	05:41:11	0	0	2,82465	2,00625	29,124	-0,547	85,522	0	1010,94	5,9	8,1	7,9	1	1	1	1	1	1	1	1	1	0	1	-2,043693	273,249029	314,051264	0
15.01.2021	05:41:12	0	0	5,423327	2,0025	24,714	-0,531	85,5	0	1010,72	5,9	8,1	7,9	1	1	1	1	1	1	1	1	1	0	1	-6,412967	273,304791	309,940094	0
15.01.2021	05:41:13	0	0	3,728538	1,9725	24,3468	-0,548	85,51	0	1010,88	5,9	8	7,9	1	1	1	1	1	1	1	1	1	0	1	-6,976744	273,419685	309,908617	0
15.01.2021	05:41:14	0	0	4,067496	1,986	22,086	-0,546	85,516	0	1010,82	5,9	8	7,9	1	1	1	1	1	1	1	1	1	0	1	-5,003524	273,344926	311,535404	0
15.01.2021	05:41:15	0	0	4,293468	2,0085	17,2404	-0,551	85,501	0	1010,78	5,9	8	7,9	1	1	1	1	1	1	1	1	1	0	1	-4,510218	273,246173	311,571527	0
15.01.2021	05:41:16	0	0	3,841524	2,097	8,6112	-0,555	85,51	0	1010,76	6	8,1	7,9	1	1	1	1	1	1	1	1	1	0	1	-2,959831	273,380832	313,745447	0
15.01.2021	05:41:17	0	0	3,841524	2,1015	18,4572	-0,545	85,52	0	1010,84	5,9	8	7,9	1	1	1	1	1	1	1	1	1	0	1	-7,540521	273,379394	309,158095	0
15.01.2021	05:41:18	0	0	3,95451	2,001	15,4116	-0,553	85,512	0	1010,72	5,9	8	7,9	1	1	1	1	1	1	1	1	1	0	1	-7,188161	273,253312	308,926618	0
15.01.2021	05:41:19	0	0	4,180456	1,869	16,0956	-0,553	85,513	0	1010,8	5,9	8,1	8	1	1	1	1	1	1	1	1	1	0	1	-2,60747	273,314817	313,792013	0
15.01.2021	05:41:20	0	0	2,25972	1,7505	9	-0,558	85,507	0	1010,8	5,9	8,1	7,9	1	1	1	1	1	1	1	1	1	0	1	-2,536998	273,429772	314,395123	0
15.01.2021	05:41:21	0	0	4,745412	1,71225	15,4116	-0,555	85,508	0	1010,76	5,9	8,1	7,9	1	1	1	1	1	1	1	1	1	0	1	-3,100775	273,301928	313,239027	0
15.01.2021	05:41:22	0	0	4,632453	1,887	21,3876	-0,553	85,521	0	1010,74	5,9	8	7,8	1	1	1	1	1	1	1	1	1	0	1	-4,087385	273,383707	312,631217	0
15.01.2021	05:41:23	0	0	2,824667	2,07225	25,8048	-0,553	85,51	0	1010,84	5,9	8,1	7,8	1	1	1	1	1	1	1	1	1	0	1	-3,382664	273,261883	312,771775	0
15.01.2021	05:41:24	0	0	3,163589	2,16	25,848	-0,553	85,5	0	1010,96	5,9	8	8	1	1	1	1	1	1	1	1	1	0	1	-6,272023	273,346361	310,273551	0
15.01.2021	05:41:25	0	0	2,711647	2,1405	21,384	-0,547	85,516	0	1010,84	5,9	8,1	8	1	1	1	1	1	1	1	1	1	0	1	-6,272023	273,274745	309,941946	0
15.01.2021	05:41:26	0	0	4,971384	2,094	26,1648	-0,555	85,52	0	1010,8	5,9	8,1	7,9	1	1	1	1	1	1	1	1	1	0	1	-8,104299	273,365025	308,527738	0
15.01.2021	05:41:27	0	0	3,954533	2,05875	26,8992	-0,555	85,506	0	1010,84	5,9	8,1	7,8	1	1	1	1	1	1	1	1	1	0	1	-5,21494	273,246173	310,866805	0
15.01.2021	05:41:28	0	0	4,067496	1,97775	33,6348	-0,551	85,519	0	1010,78	5,9	8	7,9	1	1	1	1	1	1	1	1	1	0	1	-4,721635	273,319116	311,697752	0
15.01.2021	05:41:29	0	0	2,937636	1,9185	24,7176	-0,551	85,52	0	1010,8	5,9	8,1	7,9	1	1	1	1	1	1	1	1	1	0	1	-4,369274	273,249029	311,725683	0
15.01.2021	05:41:30	0	0	4,971384	1,89825	23,5836	-0,549	85,516	0	1010,8	5,9	8	7,9	1	1	1	1	1	1	1	1	1	0	1	-7,470049	273,383707	309,248553	0
15.01.2021	05:41:31	0	0	3,050622	1,9815	18,4536	-0,548	85,524	0	1010,88	5,9	8,1	7,9	1	1	1	1	1	1	1	1	1	0	1	-5,426357	273,418245	311,452327	0
15.01.2021	05:41:32	0	0	3,615552	2,223	27,3348	-0,55	85,519	0	1010,82	6	8	7,9	1	1	1	1	1	1	1	1	1	0	1	-4,721635	273,307655	311,644686	0
15.01.2021	05:41:33	0	0	3,38958	2,30625	24,7104	-0,553	85,515	0	1010,88	5,9	8,1	7,9	1	1	1	1	1	1	1	1	1	0	1	-10,359408	273,247601	305,728943	0
15.01.2021	05:41:34	0	0	4,067496	2,2335	22,4568	-0,552	85,511	0	1010,74	5,9	8	7,9	1	1	1	1	1	1	1	1	1	0	1	-2,889359	273,354973	313,696109	0
15.01.2021	05:41:35	0	0	3,163608	2,21925	26,9064	-0,552	85,509	0	1010,74	5,9	8	7,9	1	1	1	1	1	1	1	1	1	0	1	-2,889359	273,246173	313,192386	0
15.01.2021	05:41:36	0	0	3,615573	2,10525	25,7724	-0,554	85,517	0	1010,88	5,9	8,1	7,8	1	1	1	1	1	1	1	1	1	0	1	-5,21494	273,31625	311,191177	0
15.01.2021	05:41:37	0	0	2,82465	1,9785	23,2056	-0,548	85,523	0	1010,86	5,9	8,1	7,9	1	1	1	1	1	1	1	1	1	0	1	-5,919662	273,425448	310,992416	0
15.01.2021	05:41:38	0	0	4,067496	1,91625	19,1268	-0,553	85,515	0	1010,64	5,9	8,1	7,9	1	1	1	1	1	1	1	1	1	0	1	-5,355884	273,399529	311,436045	0
15.01.2021	05:41:39	0	0	4,406454	1,90125	10,9224	-0,547	85,523	0	1010,86	5,9	8	7,9	1	1	1	1	1	1	1	1	1	0	1	-4,792107	273,303359	311,554324	0
15.01.2021	05:41:40	0	0	3,050622	2,0985	6,8256	-0,547	85,523	0	1010,76	5,9	8,1	7,9	1	1	1	1	1	1	1	1	1	0	1	-3,312192	273,244746	312,762948	0
15.01.2021	05:41:41	0	0	3,050622	2,3565	5,2308	-0,545	85,522	0	1010,74	5,9	8,1	7,9	1	1	1	1	1	1	1	1	1	0	1	-4,157858	273,306223	312,201833	0
15.01.2021	05:41:42	0	0	2,598678	2,6895	11,7216	-0,554	85,523	0	1010,76	5,9	8,1	7,9	1	1	1	1	1	1	1	1	1	0	1	-2,536998	273,263311	313,624053	0
15.01.2021	05:41:43	0	0	3,72856	2,802	17,2512	-0,548	85,523	0	1010,8	5,9	8,1	7,8	1	1	1	1	1	1	1	1	1	0	1	-3,24172	273,392336	313,51687	0
15.01.2021	05:41:44	0	0	2,711664	2,76825	18,4428	-0,548	85,52	0	1010,82	5,9	8,1	7,9	1	1	1	1	1	1	1	1	1	0	1	-1,198027	273,266169	314,97625	0
15.01.2021	05:41:45	0	0	4,180456	2,46975	1,5624	-0,551	85,51	0	1010,72	5,9	8,1	8	1	1	1	1	1	1	1	1	1	0	1	-4,721635	273,409605	312,116995	0
15.01.2021	05:41:46	0	0	3,728538	2,3835	27,3888	-0,545	85,52	0	1010,66	5,9	8	7,9	1	1	1	1	1	1	1	1	1	0	1	-4,087385	273,372208	312,577934	0
15.01.2021	05:41:47	0	0	5,197355	2,28375	13,914	-0,551	85,531	0	1010,8	5,9	8,1	7,9	1	1	1	1	1	1	1	1	1	0	1	-1,550388	273,415365	315,314942	0
15.01.2021	05:41:48	0	0	3,728515	2,27325	23,58	-0,549	85,529	0	1010,76	5,9	8,1	8	1	1	1	1	1	1	1	1	1	0	1	-3,312192	273,290478	312,974602	0
15.01.2021	05:41:49	0	0	4,180482	2,2545	22,8348	-0,552	85,531	0	1010,82	5,9	8,1	7,9	1	1	1	1	1	1	1	1	1	0	1	-8,174771	273,426889	308,743987	0
15.01.2021	05:41:50	0	0	3,72856	2,178	22,8384	-0,548	85,536	0	1010,88	5,9	8,1	7,8	1	1	1	1	1	1	1	1	1	0	1	-5,144468	273,277605	311,082736	0
15.01.2021	05:41:51	0	0	4,745412	2,0925	16,8516	-0,551	85,531	0	1010,78	5,9	8,1	7,9	1	1	1	1	1	1	1	1	1	0	1	-4,298802	273,247601	311,789549	0
15.01.2021	05:41:52	0	0	3,502545	2,043	10,062	-0,548	85,529	0	1010,72	5,9	8,1	8	1	1	1	1	1	1	1	1	1	0	1	-5,637773	273,346361	310,907801	0
15.01.2021	05:41:53	0	0	3,728538	2,01525	23,5908	-0,55	85,525	0	1010,74	5,9	8,1	7,9	1	1	1	1	1	1	1	1	1	0	1	-1,338971	273,250457	314,762592	0
15.01.2021	05:41:54	0	0	3,728538	2,3115	16,4772	-0,554	85,518	0	1010,78	5,9	8,1	7,9	1	1	1	1	1	1	1	1	1	0	1	-6,412967	273,344926	310,12596	0
15.01.2021	05:41:55	0	0	4,51944	2,7	19,1412	-0,548	85,546	0	1010,84	5,9	8,1	7,9	1	1	1	1	1	1	1	1	1	0	1	-0,845666	273,424007	316,059731	0
15.01.2021	05:41:56	0	0	3,95451	2,9355	16,0992	-0,543	85,532	0	1010,9	5,9	8,1	7,9	1	1	1	1	1	1	1	1	1	0	1	-0	273,277605	316,227204	0
15.01.2021	05:41:57	0	0	2,25972	3,2775	15,3828	-0,545	85,526	0	1010,74	5,9	8,1	7,9	1	1	1	1	1	1	1	1	1	0	1	-3,735025	273,327715	312,724188	0
15.01.2021	05:41:58	0	0	4,858368	3,48225	15,1092	-0,551	85,52	0	1010,84	5,9	8,1	8	1	1	1	1	1	1	1	1	1	0	1	-0,775194	273,254741	315,346193	0
15.01.2021	05:41:59	0	0	3,95451	3,58575	16,092	-0,549	85,54	0	1010,7	5,9	8,1	7,9	1	1	1	1	1	1	1	1	1	0	1	-6,060606	273,386583	310,671323	0
15.01.2021	05:42:00	0	0	2,598693	3,75675	16,8552	-0,546	85,545	0	1010,72	5,9	8,1	7,8	1	1	1	1	1	1	1	1	1	0	1	-4,298802	273,283325	311,95488	0
15.01.2021	05:42:01	0	0	2,598693	3,75675	16,8552	-0,546	85,545	0	1010,72	5,9	8,1	7,8	1	1	1	1	1	1	1	1	1	0	1	-4,298802	273,283325	311,95488	0
15.01.2021	05:42:02	0	0	3,502566	3,8985	18,4608	-0,543	85,546	0	1010,88	5,9	8,1	7,9	1	1	1	1	1	1	1	1	1	0	1	-4,651163	273,280465	311,589279	0
15.01.2021	05:42:03	0	0	3,050622	3,93825	19,9044	-0,545	85,538	0	1010,78	5,9	8,1	7,9	1	1	1	1	1	1	1	1	1	0	1	-3,453136	273,251884	312,655035	0
15.01.2021	05:42:04	0	0	4,519467	3,5205	26,8992	-0,551	85,54	0	1010,74	5,9	8,1	7,8	1	1	1	1	1	1	1	1	1	0	1	-2,818887	273,31052	313,560698	0
15.01.2021	05:42:05	0	0	4,971384	3,33525	15,0192	-0,554	85,538	0	1010,64	5,9	8,1	7,9	1	1	1	1	1	1	1	1	1	0	1	-4,016913	273,259025	312,124303	0
15.01.2021	05:42:06	0	0	3,841524	3,2325	13,536	-0,555	85,543	0	1010,7	5,9	8,1	7,9	1	1	1	1	1	1	1	1	1	0	1	-8,174771	273,343491	308,35751	0
15.01.2021	05:42:07	0	0	3,841524	3,20325	10,4616	-0,542	85,55	0	1010,88	5,9	8,1	7,9	1	1	1	1	1	1	1	1	1	0	1	-2,818887	273,26474	313,348777	0
15.01.2021	05:42:08	0	0	3,38958	3,32475	10,818	-0,548	85,542	0	1010,66	5,9	8,1	7,9	1	1	1	1	1	1	1	1	1	0	1	-6,906272	273,286186	309,360653	0
15.01.2021	05:42:09	0	0	3,163608	3,39225	14,3028	-0,544	85,542	0	1010,78	5,9	8,1	7,9	1	1	1	1	1	1	1	1	1	0	1	-6,976744	273,362152	309,641984	0
15.01.2021	05:42:10	0	0	4,293468	3,24825	18,45	-0,545	85,538	0	1010,8	5,9	8,1	7,9	1	1	1	1	1	1	1	1	1	0	1	-3,664553	273,434096	313,287618	0
15.01.2021	05:42:11	0	0	3,95451	3,13875	16,8552	-0,548	85,54	0	1010,84	5,9	8,1	7,9	1	1	1	1	1	1	1	1	1	0	1	-2,60747	273,370771	314,051192	0
15.01.2021	05:42:12	0	0	4,406454	2,9445	20,2788	-0,547	85,543	0	1010,6	5,9	8,1	7,9	1	1	1	1	1	1	1	1	1	0	1	-4,580691	273,246173	311,501054	0
15.01.2021	05:42:13	0	0	2,82465	2,7105	26,262	-0,547	85,544	0	1010,7	5,9	8,1	7,9	1	1	1	1	1	1	1	1	1	0	1	-7,117689	273,329149	309,348163	0
15.01.2021	05:42:14	0	0	3,050622	2,74875	30,708	-0,552	85,536	0	1010,8	6,1	8,1	7,9	1	1	1	1	1	1	1	1	1	0	1	-4,651163	273,291909	311,642255	0
15.01.2021	05:42:15	0	0	4,745412	2,7495	19,5336	-0,554	85,54	0	1010,84	5,9	8,1	7,9	1	1	1	1	1	1	1	1	1	0	1	-3,59408	273,426889	313,324678	0
15.01.2021	05:42:16	0	0	4,632426	2,724	18,0756	-0,545	85,513	0	1010,7	5,9	8,1	7,9	1	1	1	1	1	1	1	1	1	0	1	-8,174771	273,307655	308,19155	0
15.01.2021	05:42:17	0	0	3,163608	2,71575	19,62	-0,547	85,537	0	1010,82	5,9	8,1	7,9	1	1	1	1	1	1	1	1	1	0	1	-6,20155	273,251884	309,90662	0
15.01.2021	05:42:18	0	0	3,728538	2,86875	13,5504	-0,554	85,524	0	1010,66	5,9	8,1	7,9	1	1	1	1	1	1	1	1	1	0	1	-5,708245	273,339187	310,804101	0
15.01.2021	05:42:19	0	0	2,711664	3,2085	9,7452	-0,545	85,542	0	1010,84	5,9	8,1	7,9	1	1	1	1	1	1	1	1	1	0	1	-4,721635	273,412484	312,130344	0
15.01.2021	05:42:20	0	0	4,180482	3,39825	18,5436	-0,548	85,541	0	1010,7	5,9	8,1	7,9	1	1	1	1	1	1	1	1	1	0	1	-0,98661	273,271886	315,214125	0
15.01.2021	05:42:21	0	0	3,95451	3,41175	21,7872	-0,544	85,54	0	1010,8	5,9	8,1	7,9	1	1	1	1	1	1	1	1	1	0	1	-4,298802	273,380832	312,406476	0
15.01.2021	05:42:22	0	0	4,51944	3,222	12,8556	-0,546	85,547	0	1010,96	5,9	8,1	7,9	1	1	1	1	1	1	1	1	1	0	1	-1,057082	273,411045	315,788222	0
15.01.2021	05:42:23	0	0	4,293493	3,05175	13,5648	-0,546	85,538	0	1010,76	5,9	8,1	7,8	1	1	1	1	1	1	1	1	1	0	1	-7,047216	273,281895	309,199846	0
15.01.2021	05:42:24	0	0	4,632426	2,79	21,4596	-0,548	85,538	0	1010,82	5,9	8,1	7,9	1	1	1	1	1	1	1	1	1	0	1	-3,875969	273,415365	312,989361	0
15.01.2021	05:42:25	0	0	2,598678	2,68125	9,7704	-0,546	85,543	0	1010,84	5,9	8,1	7,9	1	1	1	1	1	1	1	1	1	0	1	-5,144468	273,367898	311,50088	0
15.01.2021	05:42:26	0	0	2,372706	2,6115	16,8552	-0,55	85,537	0	1010,82	5,9	8,1	7,9	1	1	1	1	1	1	1	1	1	0	1	-8,597604	273,419685	308,287757	0
15.01.2021	05:42:27	0	0	2,82465	2,625	11,7288	-0,546	85,535	0	1010,8	5,9	8,1	7,9	1	1	1	1	1	1	1	1	1	0	1	-3,523608	273,350666	313,04191	0
15.01.2021	05:42:28	0	0	3,050622	2,712	20,6316	-0,544	85,55	0	1010,84	5,9	8,1	7,9	1	1	1	1	1	1	1	1	1	0	1	-4,369274	273,421126	312,522765	0
15.01.2021	05:42:29	0	0	4,51944	2,568	17,2368	-0,544	85,551	0	1010,82	5,9	8,1	7,9	1	1	1	1	1	1	1	1	1	0	1	-6,412967	273,29334	309,887075	0
15.01.2021	05:42:30	0	0	2,485692	2,454	19,5336	-0,547	85,534	0	1010,66	5,9	8,1	7,9	1	1	1	1	1	1	1	1	1	0	1	-3,523608	273,253312	312,59117	0
15.01.2021	05:42:31	0	0	4,293493	2,37675	19,908	-0,551	85,53	0	1010,7	5,9	8	7,8	1	1	1	1	1	1	1	1	1	0	1	-7,540521	273,385145	309,184744	0
15.01.2021	05:42:32	0	0	2,25972	2,3205	15,03	-0,544	85,552	0	1010,72	5,9	8,1	7,9	1	1	1	1	1	1	1	1	1	0	1	-4,933051	273,426889	311,985706	0
15.01.2021	05:42:33	0	0	4,180482	2,454	19,5408	-0,549	85,543	0	1010,78	5,9	8,1	7,9	1	1	1	1	1	1	1	1	1	0	1	-4,510218	273,283325	311,743464	0
15.01.2021	05:42:34	0	0	3,841524	2,61	11,196	-0,544	85,556	0	1010,82	5,9	8,1	7,9	1	1	1	1	1	1	1	1	1	0	1	-5,990134	273,373645	310,681844	0
15.01.2021	05:42:35	0	0	4,632426	2,63775	16,8588	-0,55	85,537	0	1010,64	5,9	8,1	7,9	1	1	1	1	1	1	1	1	1	0	1	-2,255109	273,247601	313,833241	0
15.01.2021	05:42:36	0	0	3,728538	2,4705	19,9044	-0,544	85,542	0	1010,88	5,9	8,1	7,9	1	1	1	1	1	1	1	1	1	0	1	-4,933051	273,303359	311,41338	0
15.01.2021	05:42:37	0	0	3,38958	2,45625	19,1448	-0,549	85,542	0	1010,8	5,9	8,1	7,9	1	1	1	1	1	1	1	1	1	0	1	-2,396054	273,424007	314,509344	0
15.01.2021	05:42:38	0	0	3,95451	2,52825	12,564	-0,551	85,538	0	1010,68	5,9	8,1	7,9	1	1	1	1	1	1	1	1	1	0	1	-4,510218	273,297633	311,809701	0
15.01.2021	05:42:39	0	0	3,276594	2,51175	18,0828	-0,548	85,543	0	1010,84	5,9	8,1	7,9	1	1	1	1	1	1	1	1	1	0	1	-3,24172	273,323415	313,197578	0
15.01.2021	05:42:40	0	0	4,293468	2,44575	21,7656	-0,546	85,55	0	1010,84	5,9	8,1	7,9	1	1	1	1	1	1	1	1	1	0	1	-2,255109	273,261883	313,899329	0
15.01.2021	05:42:41	0	0	3,615552	2,42175	12,8556	-0,551	85,54	0	1010,76	5,9	8,1	7,9	1	1	1	1	1	1	1	1	1	0	1	-3,030303	273,334885	313,462113	0
15.01.2021	05:42:42	0	0	3,163608	2,4555	20,2896	-0,55	85,535	0	1010,76	5,9	8,1	7,9	1	1	1	1	1	1	1	1	1	0	1	-5,355884	273,42833	311,569555	0
15.01.2021	05:42:43	0	0	4,632426	2,454	6,444	-0,548	85,524	0	1010,76	5,9	8,1	7,9	1	1	1	1	1	1	1	1	1	0	1	-6,906272	273,304791	309,446788	0
15.01.2021	05:42:44	0	0	3,050622	2,3325	15,0408	-0,552	85,539	0	1010,76	5,9	8,1	7,9	1	1	1	1	1	1	1	1	1	0	1	-8,80902	273,426889	308,109737	0
15.01.2021	05:42:45	0	0	3,502566	2,307	13,1724	-0,554	85,54	0	1010,76	6,1	8,1	7,9	1	1	1	1	1	1	1	1	1	0	1	-3,523608	273,382269	313,188332	0
15.01.2021	05:42:46	0	0	4,406454	2,385	16,4844	-0,548	85,54	0	1010,78	5,9	8,1	7,9	1	1	1	1	1	1	1	1	1	0	1	-3,875969	273,445632	313,129692	0
15.01.2021	05:42:47	0	0	5,197355	2,3175	13,1544	-0,547	85,543	0	1010,78	5,9	8,1	7,9	1	1	1	1	1	1	1	1	1	0	1	-5,355884	273,366461	311,282808	0
15.01.2021	05:42:48	0	0	3,728538	2,2635	10,8108	-0,544	85,551	0	1010,8	6,1	8,1	7,9	1	1	1	1	1	1	1	1	1	0	1	-3,59408	273,257597	312,540526	0
15.01.2021	05:42:49	0	0	3,38958	2,23875	10,8108	-0,553	85,528	0	1010,74	5,9	8,1	7,9	1	1	1	1	1	1	1	1	1	0	1	-3,030303	273,314817	313,36918	0
15.01.2021	05:42:50	0	0	2,82465	2,181	21,7728	-0,543	85,545	0	1010,74	5,9	8,1	7,9	1	1	1	1	1	1	1	1	1	0	1	-6,412967	273,42833	310,512472	0
15.01.2021	05:42:51	0	0	4,745412	1,99425	18,8496	-0,546	85,544	0	1010,76	5,9	8,1	7,9	1	1	1	1	1	1	1	1	1	0	1	-4,298802	273,402407	312,506468	0
15.01.2021	05:42:52	0	0	4,632426	1,7895	14,67	-0,546	85,524	0	1010,74	5,9	8,1	7,9	1	1	1	1	1	1	1	1	1	0	1	-4,933051	273,415365	311,932278	0
15.01.2021	05:42:53	0	0	3,502566	1,69575	22,8384	-0,544	85,549	0	1010,88	5,9	8,1	7,9	1	1	1	1	1	1	1	1	1	0	1	-5,990134	273,392336	310,768456	0
15.01.2021	05:42:54	0	0	2,937636	1,87575	21,7728	-0,549	85,551	0	1010,88	5,9	8,1	7,9	1	1	1	1	1	1	1	1	1	0	1	-2,255109	273,412484	314,59687	0
15.01.2021	05:42:55	0	0	4,293468	1,989	24,3288	-0,543	85,542	0	1010,72	5,9	8,1	7,9	1	1	1	1	1	1	1	1	1	0	1	-6,131078	273,418245	310,747605	0
15.01.2021	05:42:56	0	0	2,598678	1,97475	17,694	-0,543	85,552	0	1010,74	5,9	8,1	7,9	1	1	1	1	1	1	1	1	1	0	1	-10,923185	273,304791	305,429875	0
15.01.2021	05:42:57	0	0	4,067496	2,025	19,6236	-0,547	85,542	0	1010,86	5,9	8,1	7,9	1	1	1	1	1	1	1	1	1	0	1	-7,681466	273,273316	308,525886	0
15.01.2021	05:42:58	0	0	4,51944	2,03775	23,2236	-0,542	85,553	0	1010,82	5,9	8,1	7,9	1	1	1	1	1	1	1	1	1	0	1	-3,875969	273,347796	312,676252	0
15.01.2021	05:42:59	0	0	4,745412	2,112	22,824	-0,541	85,541	0	1010,78	5,9	8,1	7,9	1	1	1	1	1	1	1	1	1	0	1	-3,664553	273,418245	313,214131	0
15.01.2021	05:43:00	0	0	2,82465	2,34225	18,8316	-0,545	85,55	0	1010,72	6,1	8,1	7,9	1	1	1	1	1	1	1	1	1	0	1	-9,020437	273,388021	307,718156	0
15.01.2021	05:43:01	0	0	2,82465	2,34225	18,8316	-0,545	85,55	0	1010,72	6,1	8,1	7,9	1	1	1	1	1	1	1	1	1	0	1	-9,020437	273,388021	307,718156	0
15.01.2021	05:43:02	0	0	2,485692	2,3865	21,7836	-0,547	85,552	0	1010,94	5,9	8,1	7,9	1	1	1	1	1	1	1	1	1	0	1	-7,047216	273,444189	309,951757	0
15.01.2021	05:43:03	0	0	3,050622	2,40825	18,4392	-0,551	85,531	0	1010,66	5,9	8,1	7,9	1	1	1	1	1	1	1	1	1	0	1	-5,144468	273,357844	311,454302	0
15.01.2021	05:43:04	0	0	4,293468	2,451	18,468	-0,553	85,549	0	1010,76	5,9	8,1	7,9	1	1	1	1	1	1	1	1	1	0	1	-0,634249	273,256169	315,493747	0
15.01.2021	05:43:05	0	0	4,632426	2,43675	23,9688	-0,544	85,551	0	1010,78	5,9	8,1	7,9	1	1	1	1	1	1	1	1	1	0	1	-4,933051	273,39809	311,852209	0
15.01.2021	05:43:06	0	0	3,163608	2,45475	28,3464	-0,544	85,551	0	1010,76	6,1	8,1	7,9	1	1	1	1	1	1	1	1	1	0	1	-5,21494	273,281895	311,032122	0
15.01.2021	05:43:07	0	0	3,95451	2,4135	21,3876	-0,542	85,554	0	1010,8	5,9	8,1	7,9	1	1	1	1	1	1	1	1	1	0	1	-4,651163	273,419685	312,234198	0
15.01.2021	05:43:08	0	0	4,971384	2,25825	20,6352	-0,548	85,558	0	1010,64	5,9	8,1	7,9	1	1	1	1	1	1	1	1	1	0	1	-7,470049	273,380832	309,235229	0
15.01.2021	05:43:09	0	0	2,485692	2,121	17,2584	-0,542	85,55	0	1010,76	5,9	8,1	7,9	1	1	1	1	1	1	1	1	1	0	1	-6,8358	273,434096	310,11637	0
15.01.2021	05:43:10	0	0	3,163608	2,1345	5,2236	-0,548	85,545	0	1010,62	5,9	8,1	7,9	1	1	1	1	1	1	1	1	1	0	1	-6,412967	273,286186	309,853958	0
15.01.2021	05:43:11	0	0	5,197355	2,07525	19,2456	-0,541	85,567	0	1010,76	6,1	8,1	7,9	1	1	1	1	1	1	1	1	1	0	1	-6,765328	273,372208	309,899992	0
15.01.2021	05:43:12	0	0	4,745412	2,097	7,0236	-0,542	85,548	0	1010,78	6,1	8,1	7,9	1	1	1	1	1	1	1	1	1	0	1	-2,396054	273,254741	313,725334	0
15.01.2021	05:43:13	0	0	4,971384	1,998	20,628	-0,542	85,559	0	1010,9	5,9	8,1	7,9	1	1	1	1	1	1	1	1	1	0	1	-7,117689	273,373645	309,554289	0
15.01.2021	05:43:14	0	0	3,38958	1,8255	13,5504	-0,542	85,555	0	1010,82	6,1	8,1	7,9	1	1	1	1	1	1	1	1	1	0	1	-7,751938	273,263311	308,409113	0
15.01.2021	05:43:15	0	0	4,51944	1,88925	6,9156	-0,54	85,563	0	1010,86	5,9	8,1	7,9	1	1	1	1	1	1	1	1	1	0	1	-8,174771	273,299065	308,151775	0
15.01.2021	05:43:16	0	0	3,728538	1,98225	18,81	-0,544	85,561	0	1010,82	5,9	8,1	7,9	1	1	1	1	1	1	1	1	1	0	1	-6,342495	273,360716	310,26958	0
15.01.2021	05:43:17	0	0	3,163608	2,01375	14,31	-0,545	85,568	0	1010,88	6,1	8,1	7,9	1	1	1	1	1	1	1	1	1	0	1	-10,007047	273,254741	306,11434	0
15.01.2021	05:43:18	0	0	4,745412	1,99875	23,562	-0,548	85,568	0	1010,82	6,1	8,1	7,9	1	1	1	1	1	1	1	1	1	0	1	-4,651163	273,392336	312,107427	0
15.01.2021	05:43:19	0	0	5,084369	1,923	19,5264	-0,546	85,551	0	1010,72	6,1	8,1	7,9	1	1	1	1	1	1	1	1	1	0	1	-4,933051	273,434096	312,019119	0
15.01.2021	05:43:20	0	0	3,163608	1,9065	6,4512	-0,546	85,549	0	1010,56	6,1	8,1	7,9	1	1	1	1	1	1	1	1	1	0	1	-4,933051	273,31052	311,446533	0
15.01.2021	05:43:21	0	0	2,372706	1,92525	20,6316	-0,55	85,562	0	1010,72	5,8	8,1	7,9	1	1	1	1	1	1	1	1	1	0	1	-3,664553	273,426889	313,254205	0
15.01.2021	05:43:22	0	0	3,841524	1,968	6,0696	-0,538	85,567	0	1010,88	5,9	8,1	7,9	1	1	1	1	1	1	1	1	1	0	1	-5,84919	273,405286	310,969422	0
15.01.2021	05:43:23	0	0	4,858398	1,91625	22,8384	-0,543	85,561	0	1010,8	6,1	8,1	7,9	1	1	1	1	1	1	1	1	1	0	1	-5,567301	273,31052	310,812283	0
15.01.2021	05:43:24	0	0	4,180482	1,86375	9,3744	-0,538	85,544	0	1010,92	5,9	8,1	7,9	1	1	1	1	1	1	1	1	1	0	1	-7,399577	273,439863	309,579334	0
15.01.2021	05:43:25	0	0	4,51944	1,91775	347,1948	-0,544	85,546	0	1010,86	6,1	8,1	7,9	1	1	1	1	1	1	1	1	1	0	1	-2,184637	273,362152	314,434091	0
15.01.2021	05:43:26	0	0	3,163608	2,02725	350,6544	-0,536	85,553	0	1010,82	6,1	8,1	7,9	1	1	1	1	1	1	1	1	1	0	1	-2,043693	273,263311	314,117358	0
15.01.2021	05:43:27	0	0	4,971384	2,214	1,188	-0,543	85,568	0	1010,76	5,9	8,1	7,9	1	1	1	1	1	1	1	1	1	0	1	-2,255109	273,406726	314,570175	0
15.01.2021	05:43:28	0	0	2,82465	2,397	13,536	-0,54	85,559	0	1010,7	5,9	8,1	7,9	1	1	1	1	1	1	1	1	1	0	1	-1,832276	273,426889	315,086482	0
15.01.2021	05:43:29	0	0	2,711664	2,64975	7,1244	-0,545	85,565	0	1010,54	5,8	8,1	7,9	1	1	1	1	1	1	1	1	1	0	1	-6,8358	273,42833	310,089639	0
15.01.2021	05:43:30	0	0	3,615552	2,71125	17,7048	-0,546	85,564	0	1010,72	5,9	8,1	7,9	1	1	1	1	1	1	1	1	1	0	1	-4,298802	273,306223	312,060888	0
15.01.2021	05:43:31	0	0	2,82465	2,71125	10,062	-0,54	85,564	0	1010,82	6,1	8,1	7,9	1	1	1	1	1	1	1	1	1	0	1	-2,184637	273,261883	313,969801	0
15.01.2021	05:43:32	0	0	4,632426	2,75025	2,6496	-0,542	85,563	0	1010,84	6,1	8,1	7,9	1	1	1	1	1	1	1	1	1	0	1	-2,60747	273,393774	314,157786	0
15.01.2021	05:43:33	0	0	4,632426	2,63925	29,1816	-0,545	85,571	0	1010,82	6,1	8,1	7,9	1	1	1	1	1	1	1	1	1	0	1	-1,338971	273,444189	315,660002	0
15.01.2021	05:43:34	0	0	2,711664	2,5905	27,9612	-0,541	85,579	0	1010,8	6,1	8,1	7,9	1	1	1	1	1	1	1	1	1	0	1	-1,550388	273,323415	314,88891	0
15.01.2021	05:43:35	0	0	3,728538	2,5275	20,2896	-0,545	85,566	0	1010,78	6,1	8,1	7,9	1	1	1	1	1	1	1	1	1	0	1	-2,959831	273,432654	313,985656	0
15.01.2021	05:43:36	0	0	3,38958	2,50425	27,9648	-0,547	85,561	0	1010,8	5,9	8,1	7,9	1	1	1	1	1	1	1	1	1	0	1	-2,466526	273,281895	313,780536	0
15.01.2021	05:43:37	0	0	3,502566	2,50275	27,3636	-0,543	85,567	0	1010,78	5,9	8,1	7,9	1	1	1	1	1	1	1	1	1	0	1	-3,875969	273,431213	313,062834	0
15.01.2021	05:43:38	0	0	3,38958	2,43375	23,5692	-0,543	85,56	0	1010,72	5,9	8,1	7,9	1	1	1	1	1	1	1	1	1	0	1	-3,735025	273,403847	313,076916	0
15.01.2021	05:43:39	0	0	3,38958	2,29275	19,1592	-0,539	85,582	0	1010,86	5,9	8,1	7,9	1	1	1	1	1	1	1	1	1	0	1	-4,016913	273,421126	312,875126	0
15.01.2021	05:43:40	0	0	4,406454	2,14875	9,45	-0,544	85,555	0	1010,84	5,9	8,1	7,9	1	1	1	1	1	1	1	1	1	0	1	-5,21494	273,431213	311,723863	0
15.01.2021	05:43:41	0	0	4,745412	1,99425	23,2452	-0,543	85,581	0	1010,8	6,1	8,1	7,9	1	1	1	1	1	1	1	1	1	0	1	-4,016913	273,314817	312,38257	0
15.01.2021	05:43:42	0	0	3,841524	1,881	24,7284	-0,541	85,577	0	1010,72	6,1	8,1	7,9	1	1	1	1	1	1	1	1	1	0	1	-5,637773	273,421126	311,254266	0
15.01.2021	05:43:43	0	0	2,937636	1,9275	15,7896	-0,541	85,582	0	1010,88	6,1	8,1	7,9	1	1	1	1	1	1	1	1	1	0	1	-5,919662	273,375082	310,758975	0
15.01.2021	05:43:44	0	0	2,598678	2,148	10,458	-0,541	85,573	0	1010,66	5,9	8,1	7,9	1	1	1	1	1	1	1	1	1	0	1	-1,198027	273,270457	314,996093	0
15.01.2021	05:43:45	0	0	4,632426	2,2485	15,0336	-0,544	85,579	0	1010,9	5,8	8,1	7,9	1	1	1	1	1	1	1	1	1	0	1	-7,117689	273,418245	309,760995	0
15.01.2021	05:43:46	0	0	2,372706	2,3595	22,464	-0,542	85,583	0	1010,9	6,1	8,1	7,9	1	1	1	1	1	1	1	1	1	0	1	-3,523608	273,383707	313,194994	0
15.01.2021	05:43:47	0	0	3,95451	2,32275	12,0888	-0,542	85,563	0	1010,68	6,1	8,1	7,9	1	1	1	1	1	1	1	1	1	0	1	-3,030303	273,256169	313,097693	0
15.01.2021	05:43:48	0	0	3,502566	2,08875	16,8336	-0,549	85,567	0	1010,68	5,8	8,1	7,9	1	1	1	1	1	1	1	1	1	0	1	-3,875969	273,297633	312,44395	0
15.01.2021	05:43:49	0	0	2,937636	1,8735	13,5576	-0,542	85,58	0	1010,82	6,1	8,1	7,9	1	1	1	1	1	1	1	1	1	0	1	-0,916138	273,445632	316,089523	0
15.01.2021	05:43:50	0	0	2,598678	1,92225	31,0176	-0,545	85,584	0	1010,8	6,1	8,1	7,9	1	1	1	1	1	1	1	1	1	0	1	-4,510218	273,284755	311,750085	0
15.01.2021	05:43:51	0	0	4,632426	2,10975	23,2128	-0,538	85,587	0	1010,82	5,9	8,1	7,9	1	1	1	1	1	1	1	1	1	0	1	-3,664553	273,254741	312,456835	0
15.01.2021	05:43:52	0	0	4,51944	2,33325	29,0988	-0,545	85,572	0	1010,82	6,1	8,1	7,9	1	1	1	1	1	1	1	1	1	0	1	-6,342495	273,418245	310,536188	0
15.01.2021	05:43:53	0	0	4,632426	2,304	31,4028	-0,542	85,572	0	1010,78	6,1	8,1	7,9	1	1	1	1	1	1	1	1	1	0	1	-10,42988	273,363589	306,195502	0
15.01.2021	05:43:54	0	0	4,632426	2,35275	31,0212	-0,537	85,581	0	1010,9	5,9	8,1	7,9	1	1	1	1	1	1	1	1	1	0	1	-4,933051	273,432654	312,012435	0
15.01.2021	05:43:55	0	0	2,824667	2,5275	16,8408	-0,544	85,565	0	1010,82	6,1	8,1	7,8	1	1	1	1	1	1	1	1	1	0	1	-6,060606	273,406726	310,764678	0
15.01.2021	05:43:56	0	0	4,067496	2,78325	26,9064	-0,544	85,568	0	1010,84	6,1	8,1	7,9	1	1	1	1	1	1	1	1	1	0	1	-6,060606	273,426889	310,858152	0
15.01.2021	05:43:57	0	0	2,598678	3,0435	18,8352	-0,542	85,572	0	1010,76	6,1	8,1	7,9	1	1	1	1	1	1	1	1	1	0	1	-4,087385	273,253312	312,027393	0
15.01.2021	05:43:58	0	0	4,067496	3,2265	15,3972	-0,54	85,563	0	1010,76	6,1	8,1	7,9	1	1	1	1	1	1	1	1	1	0	1	-2,889359	273,367898	313,75599	0
15.01.2021	05:43:59	0	0	4,745412	3,32025	23,5872	-0,538	85,581	0	1010,76	6,1	8,1	7,9	1	1	1	1	1	1	1	1	1	0	1	-7,610994	273,263311	308,550057	0
15.01.2021	05:44:00	0	0	3,276594	3,28575	16,47	-0,536	85,58	0	1010,88	6,1	8,1	7,9	1	1	1	1	1	1	1	1	1	0	1	-3,171247	273,294771	313,13542	0
15.01.2021	05:44:01	0	0	2,82465	3,35925	32,1444	-0,541	85,569	0	1010,6	6,1	8,1	7,9	1	1	1	1	1	1	1	1	1	0	1	-3,171247	273,294771	313,13542	0
15.01.2021	05:44:02	0	0	2,82465	3,35925	32,1444	-0,541	85,569	0	1010,6	6,1	8,1	7,9	1	1	1	1	1	1	1	1	1	0	1	-4,721635	273,441305	312,263963	0
15.01.2021	05:44:03	0	0	2,711664	3,396	27,2808	-0,537	85,588	0	1010,88	6,1	8,2	7,9	1	1	1	1	1	1	1	1	1	0	1	-5,285412	273,372208	311,379907	0
15.01.2021	05:44:04	0	0	4,51944	3,2985	13,158	-0,538	85,567	0	1010,92	6,1	8,1	7,9	1	1	1	1	1	1	1	1	1	0	1	-2,466526	273,426889	314,452232	0
15.01.2021	05:44:05	0	0	2,82465	3,22425	11,1996	-0,537	85,576	0	1010,84	6,1	8,1	7,9	1	1	1	1	1	1	1	1	1	0	1	-7,540521	273,375082	309,138115	0
15.01.2021	05:44:06	0	0	3,163608	3,03675	17,2368	-0,535	85,573	0	1010,8	6,1	8,1	7,9	1	1	1	1	1	1	1	1	1	0	1	-5,355884	273,254741	310,765503	0
15.01.2021	05:44:07	0	0	4,745412	2,8395	2,6496	-0,537	85,582	0	1010,7	6,1	8,1	7,9	1	1	1	1	1	1	1	1	1	0	1	-0	273,389459	316,745258	0
15.01.2021	05:44:08	0	0	3,38958	2,6325	12,114	-0,534	85,579	0	1010,84	6,1	8,1	7,9	1	1	1	1	1	1	1	1	1	0	1	-2,043693	273,408165	314,788264	0
15.01.2021	05:44:09	0	0	3,276594	2,5305	17,7048	-0,544	85,577	0	1010,78	6,1	8,1	7,9	1	1	1	1	1	1	1	1	1	0	1	-2,396054	273,436979	314,569486	0
15.01.2021	05:44:10	0	0	4,180482	2,3775	6,9156	-0,545	85,573	0	1010,76	5,9	8,1	7,9	1	1	1	1	1	1	1	1	1	0	1	-3,875969	273,323415	312,563328	0
15.01.2021	05:44:11	0	0	3,841524	2,25	9,7488	-0,541	85,569	0	1010,8	6,1	8,1	7,9	1	1	1	1	1	1	1	1	1	0	1	-0,98661	273,42833	315,938829	0
15.01.2021	05:44:12	0	0	3,95451	2,2245	19,9116	-0,544	85,555	0	1010,78	6,1	8,1	7,9	1	1	1	1	1	1	1	1	1	0	1	-0,775194	273,29334	315,524848	0
15.01.2021	05:44:13	0	0	4,067496	2,00475	25,4196	-0,537	85,586	0	1010,8	6,1	8,1	7,9	1	1	1	1	1	1	1	1	1	0	1	-5,637773	273,336319	310,861286	0
15.01.2021	05:44:14	0	0	3,38958	1,917	357,7176	-0,538	85,57	0	1010,68	6,1	8,1	7,9	1	1	1	1	1	1	1	1	1	0	1	-7,188161	273,261883	308,966278	0
15.01.2021	05:44:15	0	0	3,276594	1,935	24,7176	-0,541	85,562	0	1010,72	6,1	8,1	7,9	1	1	1	1	1	1	1	1	1	0	1	-2,889359	273,311952	313,496858	0
15.01.2021	05:44:16	0	0	3,38958	2,022	10,458	-0,532	85,573	0	1010,76	6,1	8,1	7,9	1	1	1	1	1	1	1	1	1	0	1	-2,748414	273,259025	313,392802	0
15.01.2021	05:44:17	0	0	3,163608	1,95975	20,9916	-0,547	85,56	0	1010,8	6,1	8,1	7,9	1	1	1	1	1	1	1	1	1	0	1	-8,174771	273,304791	308,17829	0
15.01.2021	05:44:18	0	0	4,180482	2,01525	19,5264	-0,54	85,579	0	1010,76	6,1	8,1	7,9	1	1	1	1	1	1	1	1	1	0	1	-3,312192	273,261883	312,842247	0
15.01.2021	05:44:19	0	0	3,050622	2,196	25,8012	-0,535	85,563	0	1010,96	6,1	8,1	7,9	1	1	1	1	1	1	1	1	1	0	1	-5,778717	273,413924	311,079937	0
15.01.2021	05:44:20	0	0	3,72856	2,12625	19,1448	-0,534	85,579	0	1010,82	6,1	8,1	7,8	1	1	1	1	1	1	1	1	1	0	1	-6,060606	273,386583	310,671323	0
15.01.2021	05:44:21	0	0	2,485692	2,202	25,7904	-0,537	85,577	0	1010,82	6,1	8,1	7,9	1	1	1	1	1	1	1	1	1	0	1	-1,761804	273,276175	314,458782	0
15.01.2021	05:44:22	0	0	4,858398	2,40075	19,1448	-0,541	85,568	0	1010,72	6,1	8,1	7,9	1	1	1	1	1	1	1	1	1	0	1	-5,355884	273,357844	311,242886	0
15.01.2021	05:44:23	0	0	3,615552	2,43825	22,8312	-0,537	85,554	0	1010,78	6,1	8,1	7,9	1	1	1	1	1	1	1	1	1	0	1	-1,832276	273,442747	315,160009	0
15.01.2021	05:44:24	0	0	3,502587	2,54175	27,6624	-0,534	85,587	0	1010,72	6,1	8,1	7,8	1	1	1	1	1	1	1	1	1	0	1	-4,087385	273,254741	312,034002	0
15.01.2021	05:44:25	0	0	4,971413	2,556	21,87	-0,535	85,572	0	1010,88	6,1	8,1	7,8	1	1	1	1	1	1	1	1	1	0	1	-3,030303	273,301928	313,309499	0
15.01.2021	05:44:26	0	0	4,406454	2,47575	21,402	-0,535	85,577	0	1010,84	6,1	8,1	7,9	1	1	1	1	1	1	1	1	1	0	1	-1,973221	273,392336	314,785369	0
15.01.2021	05:44:27	0	0	3,615573	2,64525	6,444	-0,534	85,577	0	1010,86	6,1	8,1	7,8	1	1	1	1	1	1	1	1	1	0	1	-9,725159	273,438421	307,247066	0
15.01.2021	05:44:28	0	0	4,51944	2,7015	22,4568	-0,544	85,565	0	1010,76	6,1	8,1	7,9	1	1	1	1	1	1	1	1	1	0	1	-5,355884	273,327715	311,103328	0
15.01.2021	05:44:29	0	0	4,51944	2,6355	14,3208	-0,536	85,557	0	1010,88	6,1	8,2	7,9	1	1	1	1	1	1	1	1	1	0	1	-4,580691	273,411045	312,264614	0
15.01.2021	05:44:30	0	0	4,74544	2,62725	32,8824	-0,536	85,553	0	1010,86	6,1	8,1	7,8	1	1	1	1	1	1	1	1	1	0	1	-5,003524	273,274745	311,210445	0
15.01.2021	05:44:31	0	0	5,084369	2,52825	18,8316	-0,536	85,555	0	1010,66	6,1	8,1	7,9	1	1	1	1	1	1	1	1	1	0	1	-2,466526	273,412484	314,385453	0
15.01.2021	05:44:32	0	0	2,937636	2,44425	18,8424	-0,535	85,577	0	1010,82	6,1	8,1	7,9	1	1	1	1	1	1	1	1	1	0	1	-2,889359	273,309087	313,483594	0
15.01.2021	05:44:33	0	0	2,82465	2,44875	17,7048	-0,54	85,575	0	1010,78	6,1	8,1	7,9	1	1	1	1	1	1	1	1	1	0	1	-2,889359	273,279035	313,344464	0
15.01.2021	05:44:34	0	0	5,197355	2,42175	19,134	-0,535	85,577	0	1010,66	6,1	8,1	7,9	1	1	1	1	1	1	1	1	1	0	1	-1,268499	273,365025	315,363538	0
15.01.2021	05:44:35	0	0	2,711664	2,43075	18,9396	-0,536	85,583	0	1010,84	6,1	8,1	7,9	1	1	1	1	1	1	1	1	1	0	1	-1,973221	273,421126	314,918818	0
15.01.2021	05:44:36	0	0	2,485707	2,48475	24,7248	-0,538	85,571	0	1010,78	6,1	8,1	7,8	1	1	1	1	1	1	1	1	1	0	1	-1,62086	273,254741	314,500527	0
15.01.2021	05:44:37	0	0	3,276594	2,40675	16,4844	-0,54	85,552	0	1010,86	6,1	8,1	7,9	1	1	1	1	1	1	1	1	1	0	1	-7,117689	273,323415	309,321609	0
15.01.2021	05:44:38	0	0	2,485707	2,49	8,2656	-0,538	85,571	0	1010,72	6,1	8,1	7,8	1	1	1	1	1	1	1	1	1	0	1	-4,933051	273,256169	311,194945	0
15.01.2021	05:44:39	0	0	3,05064	2,54925	22,4712	-0,539	85,571	0	1010,78	6,1	8,1	7,8	1	1	1	1	1	1	1	1	1	0	1	-7,188161	273,373645	309,483817	0
15.01.2021	05:44:40	0	0	3,72856	2,55225	25,398	-0,538	85,554	0	1010,82	6,1	8	7,8	1	1	1	1	1	1	1	1	1	0	1	-4,298802	273,421126	312,593237	0
15.01.2021	05:44:41	0	0	3,05064	2,43675	13,9392	-0,534	85,58	0	1010,82	6,1	8,1	7,8	1	1	1	1	1	1	1	1	1	0	1	-4,439746	273,442747	312,552539	0
15.01.2021	05:44:42	0	0	3,615573	2,23425	20,2932	-0,539	85,554	0	1010,94	6,1	8,1	7,8	1	1	1	1	1	1	1	1	1	0	1	-2,60747	273,336319	313,891589	0
15.01.2021	05:44:43	0	0	4,519467	2,247	22,4568	-0,534	85,567	0	1010,76	6,1	8,1	7,8	1	1	1	1	1	1	1	1	1	0	1	-7,963354	273,444189	309,035618	0
15.01.2021	05:44:44	0	0	3,276613	2,29425	14,6556	-0,535	85,572	0	1010,78	6,1	8,1	7,8	1	1	1	1	1	1	1	1	1	0	1	-4,721635	273,370771	311,937027	0
15.01.2021	05:44:45	0	0	3,728538	2,3775	23,5908	-0,542	85,559	0	1010,7	6,1	8,1	7,9	1	1	1	1	1	1	1	1	1	0	1	-6,060606	273,300496	310,272568	0
15.01.2021	05:44:46	0	0	3,163627	2,35125	13,5504	-0,54	85,618	0	1010,76	6,1	8,1	7,8	1	1	1	1	1	1	1	1	1	0	1	-5,144468	273,300496	311,188706	0
15.01.2021	05:44:47	0	0	4,180507	2,4705	12,1032	-0,541	85,573	0	1010,84	6,1	8,1	7,8	1	1	1	1	1	1	1	1	1	0	1	-8,879493	273,365025	307,752545	0
15.01.2021	05:44:48	0	0	3,72856	2,51925	21,006	-0,536	85,584	0	1010,84	6,1	8,2	7,8	1	1	1	1	1	1	1	1	1	0	1	-3,875969	273,261883	312,27847	0
15.01.2021	05:44:49	0	0	3,050603	2,47875	13,9068	-0,538	85,563	0	1010,74	6,1	8,1	8	1	1	1	1	1	1	1	1	1	0	1	-3,382664	273,31052	312,99692	0
15.01.2021	05:44:50	0	0	4,519467	2,46525	26,9028	-0,537	85,555	0	1010,82	6,1	8,1	7,8	1	1	1	1	1	1	1	1	1	0	1	-5,21494	273,438421	311,757285	0
15.01.2021	05:44:51	0	0	5,0844	2,4	27,6624	-0,538	85,56	0	1010,74	6,1	8,1	7,8	1	1	1	1	1	1	1	1	1	0	1	-6,694856	273,412484	310,157123	0
15.01.2021	05:44:52	0	0	3,3896	2,23575	25,0272	-0,538	85,562	0	1010,86	6,1	8,1	7,8	1	1	1	1	1	1	1	1	1	0	1	-7,258633	273,362152	309,360096	0
15.01.2021	05:44:53	0	0	4,74544	2,037	16,11	-0,541	85,573	0	1010,68	6,1	8,1	7,8	1	1	1	1	1	1	1	1	1	0	1	-6,624383	273,438421	310,347842	0
15.01.2021	05:44:54	0	0	3,615552	1,974	27,0072	-0,534	85,55	0	1010,72	6,1	8	7,9	1	1	1	1	1	1	1	1	1	0	1	-2,114165	273,408165	314,717792	0
15.01.2021	05:44:55	0	0	4,293468	2,1525	35,856	-0,536	85,578	0	1010,78	6,1	8,2	7,9	1	1	1	1	1	1	1	1	1	0	1	-6,553911	273,396652	310,224681	0
15.01.2021	05:44:56	0	0	2,82465	2,319	22,8384	-0,534	85,576	0	1010,78	6,1	8,2	7,9	1	1	1	1	1	1	1	1	1	0	1	-3,805497	273,267598	312,375394	0
15.01.2021	05:44:57	0	0	3,276594	2,4375	26,8956	-0,536	85,573	0	1010,72	6,1	8,1	7,9	1	1	1	1	1	1	1	1	1	0	1	-7,681466	273,324848	308,764469	0
15.01.2021	05:44:58	0	0	4,406454	2,49825	29,5596	-0,535	85,577	0	1010,8	6,1	8,1	7,9	1	1	1	1	1	1	1	1	1	0	1	-3,875969	273,442747	313,116316	0
15.01.2021	05:44:59	0	0	5,197387	2,469	32,4792	-0,531	85,573	0	1010,76	6,1	8,2	7,8	1	1	1	1	1	1	1	1	1	0	1	-3,382664	273,42833	313,542775	0
15.01.2021	05:45:00	0	0	3,163627	2,31075	23,9652	-0,532	85,568	0	1010,8	6,1	8,1	7,8	1	1	1	1	1	1	1	1	1	0	1	-2,818887	273,372208	313,846433	0
15.01.2021	05:45:01	0	0	3,163627	2,31075	23,9652	-0,532	85,568	0	1010,8	6,1	8,1	7,8	1	1	1	1	1	1	1	1	1	0	1	-4,22833	273,447074	312,784021	0
15.01.2021	05:45:02	0	0	2,937653	2,27925	23,9652	-0,53	85,572	0	1010,84	6,1	8,1	7,8	1	1	1	1	1	1	1	1	1	0	1	-3,030303	273,375082	313,648333	0
15.01.2021	05:45:03	0	0	4,632453	2,30775	32,1696	-0,535	85,582	0	1010,68	6,1	8,2	7,8	1	1	1	1	1	1	1	1	1	0	1	-7,82241	273,286186	308,444515	0
15.01.2021	05:45:04	0	0	4,293493	2,6865	18,8352	-0,535	85,562	0	1010,82	6,1	8,1	7,8	1	1	1	1	1	1	1	1	1	0	1	-3,100775	273,370771	313,557887	0
15.01.2021	05:45:05	0	0	4,632453	2,862	26,5032	-0,538	85,572	0	1010,58	6,1	8,1	7,8	1	1	1	1	1	1	1	1	1	0	1	-2,325581	273,279035	313,908241	0
15.01.2021	05:45:06	0	0	4,632453	3,03975	24,7176	-0,535	85,573	0	1010,8	6,1	8,2	7,8	1	1	1	1	1	1	1	1	1	0	1	-6,483439	273,400968	310,31516	0
15.01.2021	05:45:07	0	0	2,485707	3,0525	24,7248	-0,511	85,585	0	1010,86	6,1	8,2	7,8	1	1	1	1	1	1	1	1	1	0	1	-6,272023	273,270457	309,922097	0
15.01.2021	05:45:08	0	0	4,180507	3,03075	16,8444	-0,534	85,584	0	1010,86	6,1	8,1	7,8	1	1	1	1	1	1	1	1	1	0	1	-5,919662	273,324848	310,526273	0
15.01.2021	05:45:09	0	0	4,632426	2,9295	16,092	-0,536	85,585	0	1010,7	6,1	8,1	7,9	1	1	1	1	1	1	1	1	1	0	1	-2,818887	273,270457	313,375233	0
15.01.2021	05:45:10	0	0	5,197387	2,91675	14,6556	-0,537	85,573	0	1010,84	6,1	8,1	7,8	1	1	1	1	1	1	1	1	1	0	1	-5,355884	273,424007	311,549513	0
15.01.2021	05:45:11	0	0	4,40648	3,03975	19,89	-0,533	85,579	0	1010,86	6,1	8,1	7,8	1	1	1	1	1	1	1	1	1	0	1	-5,355884	273,377957	311,336072	0
15.01.2021	05:45:12	0	0	2,824667	3,126	19,5264	-0,532	85,582	0	1010,74	6,1	8	7,8	1	1	1	1	1	1	1	1	1	0	1	-6,8358	273,269027	309,351705	0
15.01.2021	05:45:13	0	0	2,824667	3,396	22,4568	-0,533	85,576	0	1010,8	6,1	8,1	7,8	1	1	1	1	1	1	1	1	1	0	1	-4,933051	273,356409	311,659067	0
15.01.2021	05:45:14	0	0	3,728538	3,3255	19,5336	-0,542	85,579	0	1010,78	6,1	8,1	7,9	1	1	1	1	1	1	1	1	1	0	1	-6,412967	273,270457	309,781153	0
15.01.2021	05:45:15	0	0	2,824667	3,2025	18,45	-0,532	85,566	0	1010,82	6,1	8,1	7,8	1	1	1	1	1	1	1	1	1	0	1	-7,258633	273,377957	309,433323	0
15.01.2021	05:45:16	0	0	2,146734	3,10725	12,8484	-0,532	85,578	0	1010,92	6,1	8,1	7,9	1	1	1	1	1	1	1	1	1	0	1	-4,862579	273,300496	311,470595	0
15.01.2021	05:45:17	0	0	3,163627	3,07125	9,7416	-0,533	85,573	0	1010,82	6,1	8,2	7,8	1	1	1	1	1	1	1	1	1	0	1	-7,470049	273,263311	308,691001	0
15.01.2021	05:45:18	0	0	4,06752	2,92575	8,9928	-0,534	85,568	0	1010,74	6,1	8,1	7,8	1	1	1	1	1	1	1	1	1	0	1	-7,963354	273,365025	308,668683	0
15.01.2021	05:45:19	0	0	2,82465	2,751	15,408	-0,533	85,58	0	1010,84	6,1	8,1	7,9	1	1	1	1	1	1	1	1	1	0	1	-1,973221	273,445632	315,032441	0
15.01.2021	05:45:20	0	0	5,42336	2,57025	17,3196	-0,535	85,58	0	1010,8	6,1	8	7,8	1	1	1	1	1	1	1	1	1	0	1	-8,174771	273,31052	308,204813	0
15.01.2021	05:45:21	0	0	2,824667	2,47425	15,4188	-0,537	85,582	0	1010,84	6,1	8,1	7,8	1	1	1	1	1	1	1	1	1	0	1	-7,329105	273,438421	309,64312	0
15.01.2021	05:45:22	0	0	4,632453	2,301	10,818	-0,53	85,588	0	1010,8	6,1	8,2	7,8	1	1	1	1	1	1	1	1	1	0	1	-4,510218	273,29334	311,789824	0
15.01.2021	05:45:23	0	0	4,06752	2,3085	11,7216	-0,535	85,579	0	1010,76	6,1	8,2	7,8	1	1	1	1	1	1	1	1	1	0	1	-4,862579	273,366461	311,776113	0
15.01.2021	05:45:24	0	0	4,74544	2,31075	22,086	-0,532	85,58	0	1010,82	6,1	8	7,8	1	1	1	1	1	1	1	1	1	0	1	-3,100775	273,269027	313,08673	0
15.01.2021	05:45:25	0	0	3,954533	2,22825	7,128	-0,542	85,557	0	1010,7	6,1	8,1	7,8	1	1	1	1	1	1	1	1	1	0	1	-9,090909	273,370771	307,567753	0
15.01.2021	05:45:26	0	0	3,276613	2,178	12,096	-0,534	85,585	0	1010,72	6,1	8,1	7,8	1	1	1	1	1	1	1	1	1	0	1	-6,765328	273,281895	309,481734	0
15.01.2021	05:45:27	0	0	3,954533	2,31525	12,0996	-0,532	85,592	0	1010,8	6,1	8,2	7,8	1	1	1	1	1	1	1	1	1	0	1	-3,59408	273,442747	313,398205	0
15.01.2021	05:45:28	0	0	2,937653	2,5125	7,866	-0,532	85,584	0	1010,8	6,1	8	7,8	1	1	1	1	1	1	1	1	1	0	1	-3,312192	273,342057	313,213444	0
15.01.2021	05:45:29	0	0	2,937653	2,63025	21,0168	-0,534	85,582	0	1010,72	6,1	8,2	7,8	1	1	1	1	1	1	1	1	1	0	1	-9,231853	273,445632	307,773808	0
15.01.2021	05:45:30	0	0	2,598693	2,847	27,2664	-0,538	85,576	0	1010,7	6,1	8,2	7,8	1	1	1	1	1	1	1	1	1	0	1	-2,959831	273,311952	313,426386	0
15.01.2021	05:45:31	0	0	3,728515	3,015	13,1616	-0,533	85,568	0	1010,76	6,1	8,1	8	1	1	1	1	1	1	1	1	1	0	1	-6,272023	273,396652	310,506569	0
15.01.2021	05:45:32	0	0	2,485707	3,273	12,4848	-0,533	85,594	0	1010,92	6,1	8,2	7,8	1	1	1	1	1	1	1	1	1	0	1	-8,033827	273,424007	308,871571	0
15.01.2021	05:45:33	0	0	4,06752	3,19575	23,2164	-0,536	85,582	0	1010,92	6,1	8,2	7,8	1	1	1	1	1	1	1	1	1	0	1	-2,325581	273,354973	314,259886	0
15.01.2021	05:45:34	0	0	4,971413	3,26475	28,35	-0,531	85,591	0	1010,92	6,1	8,2	7,8	1	1	1	1	1	1	1	1	1	0	1	-8,527132	273,283325	307,726551	0
15.01.2021	05:45:35	0	0	2,937653	3,16725	31,3812	-0,534	85,59	0	1010,92	6,1	8,1	7,8	1	1	1	1	1	1	1	1	1	0	1	-7,329105	273,392336	309,429485	0
15.01.2021	05:45:36	0	0	3,163627	2,925	18,4608	-0,534	85,591	0	1010,88	6,1	8,2	7,8	1	1	1	1	1	1	1	1	1	0	1	-4,651163	273,445632	312,354499	0
15.01.2021	05:45:37	0	0	3,163627	2,7435	14,6448	-0,535	85,586	0	1010,82	6,1	8,1	7,8	1	1	1	1	1	1	1	1	1	0	1	-11,06413	273,303359	305,282301	0
15.01.2021	05:45:38	0	0	3,163627	2,64	20,0124	-0,536	85,588	0	1010,88	6,1	8,2	7,8	1	1	1	1	1	1	1	1	1	0	1	-5,21494	273,286186	311,051985	0
15.01.2021	05:45:39	0	0	3,163589	2,448	12,1104	-0,535	85,599	0	1010,8	6,1	8,2	8	1	1	1	1	1	1	1	1	1	0	1	-4,298802	273,46728	312,807261	0
15.01.2021	05:45:40	0	0	3,163627	2,304	17,244	-0,533	85,582	0	1010,82	6,1	8,2	7,8	1	1	1	1	1	1	1	1	1	0	1	-7,681466	273,321982	308,751194	0
15.01.2021	05:45:41	0	0	2,71168	2,25825	22,8564	-0,529	85,59	0	1010,98	6,1	8,1	7,8	1	1	1	1	1	1	1	1	1	0	1	-2,255109	273,441305	314,730488	0
15.01.2021	05:45:42	0	0	3,163627	2,28675	9,36	-0,532	85,58	0	1010,74	6,1	8,2	7,8	1	1	1	1	1	1	1	1	1	0	1	-6,8358	273,314817	309,563683	0
15.01.2021	05:45:43	0	0	4,06752	2,29875	19,5372	-0,54	85,594	0	1010,7	6,1	8,1	7,8	1	1	1	1	1	1	1	1	1	0	1	-8,80902	273,424007	308,096377	0
15.01.2021	05:45:44	0	0	3,615573	2,24475	17,7048	-0,54	85,59	0	1010,7	6,1	8,1	7,8	1	1	1	1	1	1	1	1	1	0	1	-3,030303	273,311952	313,355913	0
15.01.2021	05:45:45	0	0	4,858427	2,27175	21,4308	-0,527	85,576	0	1010,8	6,1	8,2	7,8	1	1	1	1	1	1	1	1	1	0	1	-4,721635	273,330583	311,750857	0
15.01.2021	05:45:46	0	0	2,824667	2,25975	12,8664	-0,532	85,589	0	1010,88	6,1	8,1	7,8	1	1	1	1	1	1	1	1	1	0	1	-5,567301	273,432654	311,378186	0
15.01.2021	05:45:47	0	0	4,06752	2,442	13,9068	-0,531	85,587	0	1010,86	6,1	8,2	7,8	1	1	1	1	1	1	1	1	1	0	1	-5,426357	273,377957	311,265599	0
15.01.2021	05:45:48	0	0	3,954533	2,55675	12,852	-0,534	85,587	0	1010,82	6,1	8,1	7,8	1	1	1	1	1	1	1	1	1	0	1	-7,540521	273,274745	308,673447	0
15.01.2021	05:45:49	0	0	3,841501	2,75775	15,03	-0,53	85,599	0	1010,88	6,1	8,1	8	1	1	1	1	1	1	1	1	1	0	1	-4,721635	273,336319	311,777424	0
15.01.2021	05:45:50	0	0	3,841501	2,8965	16,8552	-0,53	85,596	0	1010,8	6,1	8,1	8	1	1	1	1	1	1	1	1	1	0	1	-2,396054	273,304791	313,957007	0
15.01.2021	05:45:51	0	0	4,293493	2,95575	4,0896	-0,531	85,595	0	1010,76	6,1	8,1	7,8	1	1	1	1	1	1	1	1	1	0	1	-6,483439	273,304791	309,869621	0
15.01.2021	05:45:52	0	0	3,841501	3,15225	7,524	-0,53	85,582	0	1010,78	6,1	8,1	8	1	1	1	1	1	1	1	1	1	0	1	-8,949965	273,395213	307,821959	0
15.01.2021	05:45:53	0	0	2,71168	3,1695	18,8316	-0,527	85,607	0	1010,8	6,1	8,2	7,8	1	1	1	1	1	1	1	1	1	0	1	-2,184637	273,280465	314,055805	0
15.01.2021	05:45:54	0	0	4,406427	2,9835	15,804	-0,531	85,572	0	1010,84	6,1	8,2	8	1	1	1	1	1	1	1	1	1	0	1	-7,399577	273,349231	309,159292	0
15.01.2021	05:45:55	0	0	2,598693	2,913	8,2692	-0,527	85,593	0	1010,84	6,1	8,1	7,8	1	1	1	1	1	1	1	1	1	0	1	-5,003524	273,270457	311,190596	0
15.01.2021	05:45:56	0	0	3,841547	2,94525	14,7492	-0,528	85,601	0	1010,78	6,1	8,1	7,8	1	1	1	1	1	1	1	1	1	0	1	-7,470049	273,31625	308,936068	0
15.01.2021	05:45:57	0	0	3,841547	2,82525	12,4776	-0,527	85,608	0	1010,8	6,1	8,1	7,8	1	1	1	1	1	1	1	1	1	0	1	-9,090909	273,455731	307,961589	0
15.01.2021	05:45:58	0	0	4,293493	2,7945	26,5176	-0,533	85,58	0	1010,84	6,1	8,1	7,8	1	1	1	1	1	1	1	1	1	0	1	-1,761804	273,426889	315,156954	0
15.01.2021	05:45:59	0	0	3,841547	2,8155	15,408	-0,528	85,61	0	1010,76	6,1	8,1	7,8	1	1	1	1	1	1	1	1	1	0	1	-6,342495	273,449959	310,683236	0
15.01.2021	05:46:00	0	0	4,293493	2,703	16,8588	-0,531	85,588	0	1010,72	6,1	8	7,8	1	1	1	1	1	1	1	1	1	0	1	-6,8358	273,449959	310,189931	0
15.01.2021	05:46:01	0	0	4,293493	2,703	16,8588	-0,531	85,588	0	1010,72	6,1	8	7,8	1	1	1	1	1	1	1	1	1	0	1	-6,8358	273,449959	310,189931	0
15.01.2021	05:46:02	0	0	4,74544	2,5575	19,1448	-0,535	85,6	0	1010,78	6,1	8,1	7,8	1	1	1	1	1	1	1	1	1	0	1	-5,990134	273,383707	310,728468	0
15.01.2021	05:46:03	0	0	2,824667	2,3715	19,9044	-0,526	85,607	0	1010,96	6,1	8,1	7,8	1	1	1	1	1	1	1	1	1	0	1	-5,426357	273,269027	310,761148	0
15.01.2021	05:46:04	0	0	3,163627	2,2995	10,8	-0,525	85,593	0	1010,74	6,1	8	7,8	1	1	1	1	1	1	1	1	1	0	1	-8,45666	273,330583	308,015833	0
15.01.2021	05:46:05	0	0	2,937653	2,0955	22,8456	-0,533	85,598	0	1010,8	6,1	8,2	7,8	1	1	1	1	1	1	1	1	1	0	1	-8,597604	273,271886	307,603132	0
15.01.2021	05:46:06	0	0	3,615573	2,0715	28,3536	-0,532	85,608	0	1010,7	6,1	8,1	7,8	1	1	1	1	1	1	1	1	1	0	1	-5,708245	273,380832	310,997033	0
15.01.2021	05:46:07	0	0	3,05064	2,21625	33,642	-0,53	85,601	0	1010,8	6,1	8,1	7,8	1	1	1	1	1	1	1	1	1	0	1	-10,500352	273,271886	305,700383	0
15.01.2021	05:46:08	0	0	4,74544	2,331	31,7844	-0,529	85,609	0	1010,86	6,1	8,1	7,8	1	1	1	1	1	1	1	1	1	0	1	-5,144468	273,405286	311,674144	0
15.01.2021	05:46:09	0	0	4,632453	2,49825	21,7656	-0,534	85,593	0	1010,84	6,1	8,1	7,8	1	1	1	1	1	1	1	1	1	0	1	-5,496829	273,458618	311,569057	0
15.01.2021	05:46:10	0	0	4,406427	2,47725	16,488	-0,531	85,608	0	1010,86	6,1	8,1	8	1	1	1	1	1	1	1	1	1	0	1	-3,664553	273,332016	312,81458	0
15.01.2021	05:46:11	0	0	2,937618	2,334	23,976	-0,534	85,603	0	1010,82	6,1	8,1	8	1	1	1	1	1	1	1	1	1	0	1	-7,329105	273,448517	309,689935	0
15.01.2021	05:46:12	0	0	3,72856	2,36025	21,024	-0,533	85,595	0	1010,82	6,1	8,1	7,8	1	1	1	1	1	1	1	1	1	0	1	-3,735025	273,342057	312,790611	0
15.01.2021	05:46:13	0	0	2,824667	2,40525	21,7764	-0,528	85,605	0	1010,76	6,1	8,1	7,8	1	1	1	1	1	1	1	1	1	0	1	-5,567301	273,274745	310,646668	0
15.01.2021	05:46:14	0	0	3,163627	2,37075	22,086	-0,526	85,605	0	1010,7	6,1	8,1	7,8	1	1	1	1	1	1	1	1	1	0	1	-2,60747	273,340622	313,91152	0
15.01.2021	05:46:15	0	0	2,824633	2,3205	21,7728	-0,531	85,617	0	1010,82	6,1	8,1	8	1	1	1	1	1	1	1	1	1	0	1	-6,976744	273,452845	310,062369	0
15.01.2021	05:46:16	0	0	3,728515	2,2515	26,1684	-0,529	85,604	0	1010,8	6,1	8,1	8	1	1	1	1	1	1	1	1	1	0	1	-7,751938	273,306223	308,607752	0
15.01.2021	05:46:17	0	0	4,406427	2,24325	32,8824	-0,531	85,604	0	1010,6	6,1	8,1	8	1	1	1	1	1	1	1	1	1	0	1	-5,778717	273,344926	310,76021	0
15.01.2021	05:46:18	0	0	3,954486	2,325	18,4644	-0,531	85,612	0	1010,8	6,1	8,1	8	1	1	1	1	1	1	1	1	1	0	1	-5,496829	273,279035	310,736994	0
15.01.2021	05:46:19	0	0	5,084339	2,433	18,8388	-0,53	85,605	0	1010,76	6,1	8,1	8	1	1	1	1	1	1	1	1	1	0	1	-6,20155	273,334885	310,290866	0
15.01.2021	05:46:20	0	0	4,519467	2,5035	13,1688	-0,531	85,603	0	1010,82	6,1	8,1	7,8	1	1	1	1	1	1	1	1	1	0	1	-5,567301	273,449959	311,45843	0
15.01.2021	05:46:21	0	0	3,389559	2,48625	13,9104	-0,528	85,593	0	1010,82	6,1	8,1	8	1	1	1	1	1	1	1	1	1	0	1	-5,919662	273,287616	310,353885	0
15.01.2021	05:46:22	0	0	3,050603	2,43975	17,7048	-0,529	85,598	0	1010,9	6,1	8,1	8	1	1	1	1	1	1	1	1	1	0	1	-5,355884	273,289047	310,924286	0
15.01.2021	05:46:23	0	0	3,389559	2,304	15,3936	-0,527	85,617	0	1010,84	6,1	8,1	8	1	1	1	1	1	1	1	1	1	0	1	-4,721635	273,317683	311,691117	0
15.01.2021	05:46:24	0	0	3,276574	2,418	13,932	-0,53	85,605	0	1010,84	6,1	8,1	8	1	1	1	1	1	1	1	1	1	0	1	-7,329105	273,389459	309,416153	0
15.01.2021	05:46:25	0	0	4,40648	2,619	352,782	-0,524	85,593	0	1010,86	6,1	8,1	7,8	1	1	1	1	1	1	1	1	1	0	1	-3,100775	273,455731	313,951723	0
15.01.2021	05:46:26	0	0	4,293493	2,51775	20,2788	-0,523	85,613	0	1010,8	6,1	8,1	7,8	1	1	1	1	1	1	1	1	1	0	1	-7,117689	273,385145	309,607577	0
15.01.2021	05:46:27	0	0	2,598693	2,241	16,8768	-0,527	85,614	0	1010,88	6,1	8,1	7,8	1	1	1	1	1	1	1	1	1	0	1	-2,325581	273,454288	314,720224	0
15.01.2021	05:46:28	0	0	3,954486	2,1405	15,3792	-0,526	85,621	0	1010,84	6,1	8,1	8	1	1	1	1	1	1	1	1	1	0	1	-5,003524	273,363589	311,621859	0
15.01.2021	05:46:29	0	0	3,163589	2,265	16,092	-0,532	85,606	0	1010,82	6,1	8,1	8	1	1	1	1	1	1	1	1	1	0	1	-3,664553	273,273316	312,542799	0
15.01.2021	05:46:30	0	0	2,824667	2,62275	29,1168	-0,525	85,607	0	1010,76	6,1	8,1	7,8	1	1	1	1	1	1	1	1	1	0	1	-6,553911	273,344926	309,985016	0
15.01.2021	05:46:31	0	0	3,276613	2,87325	26,8812	-0,528	85,587	0	1010,84	6,1	8,1	7,8	1	1	1	1	1	1	1	1	1	0	1	-3,382664	273,284755	312,877639	0
15.01.2021	05:46:32	0	0	4,745383	2,89875	23,2236	-0,525	85,652	0	1010,9	6,1	8,1	8	1	1	1	1	1	1	1	1	1	0	1	-0	273,347796	316,552221	0
15.01.2021	05:46:33	0	0	3,954486	2,7075	20,628	-0,528	85,591	0	1010,92	6,1	8,1	8	1	1	1	1	1	1	1	1	1	0	1	-3,382664	273,452845	313,656449	0
15.01.2021	05:46:34	0	0	4,971413	2,58975	18,0936	-0,533	85,612	0	1010,88	6	8,1	7,8	1	1	1	1	1	1	1	1	1	0	1	-3,664553	273,319116	312,754835	0
15.01.2021	05:46:35	0	0	4,745383	2,50125	15,7968	-0,532	85,595	0	1010,8	6,1	8,1	8	1	1	1	1	1	1	1	1	1	0	1	-4,862579	273,321982	311,570081	0
15.01.2021	05:46:36	0	0	3,61553	2,55525	18,8208	-0,505	85,597	0	1010,8	6	8,1	8	1	1	1	1	1	1	1	1	1	0	1	-8,597604	273,300496	307,73557	0
15.01.2021	05:46:37	0	0	3,728515	2,568	13,5396	-0,522	85,604	0	1010,9	6,1	8,1	8	1	1	1	1	1	1	1	1	1	0	1	-1,832276	273,390897	314,919647	0
15.01.2021	05:46:38	0	0	4,406427	2,622	19,5192	-0,53	85,6	0	1010,86	6,1	8,1	8	1	1	1	1	1	1	1	1	1	0	1	-5,990134	273,448517	311,028906	0
15.01.2021	05:46:39	0	0	4,74544	2,66925	18,8388	-0,526	85,611	0	1010,82	6,1	8,1	7,8	1	1	1	1	1	1	1	1	1	0	1	-6,20155	273,386583	310,530379	0
15.01.2021	05:46:40	0	0	2,824633	2,583	19,9872	-0,528	85,613	0	1010,8	6,1	8,1	8	1	1	1	1	1	1	1	1	1	0	1	-7,258633	273,452845	309,78048	0
15.01.2021	05:46:41	0	0	3,954486	2,49075	12,0996	-0,526	85,613	0	1010,9	6,1	8,1	8	1	1	1	1	1	1	1	1	1	0	1	-1,691332	273,42833	315,234107	0
15.01.2021	05:46:42	0	0	2,824667	2,55375	21,402	-0,531	85,616	0	1010,86	6,1	8,1	7,8	1	1	1	1	1	1	1	1	1	0	1	-4,510218	273,382269	312,201721	0
15.01.2021	05:46:43	0	0	4,519412	2,7345	5,2272	-0,525	85,605	0	1010,78	6,1	8,1	8	1	1	1	1	1	1	1	1	1	0	1	-4,580691	273,455731	312,471808	0
15.01.2021	05:46:44	0	0	3,276574	2,78775	31,0104	-0,532	85,607	0	1010,76	6,1	8,1	8	1	1	1	1	1	1	1	1	1	0	1	-3,382664	273,307655	312,983657	0
15.01.2021	05:46:45	0	0	3,954486	2,77425	31,3848	-0,523	85,605	0	1010,84	6,1	8,1	8	1	1	1	1	1	1	1	1	1	0	1	-4,651163	273,304791	311,701898	0
15.01.2021	05:46:46	0	0	3,163627	2,6775	18,8352	-0,527	85,629	0	1010,8	6,1	8,1	7,8	1	1	1	1	1	1	1	1	1	0	1	-2,818887	273,337753	313,686816	0
15.01.2021	05:46:47	0	0	4,519412	2,622	21,384	-0,525	85,592	0	1010,84	6,2	8,1	8	1	1	1	1	1	1	1	1	1	0	1	-6,8358	273,452845	310,203313	0
15.01.2021	05:46:48	0	0	4,74544	2,64825	26,6184	-0,526	85,611	0	1010,88	6,1	8,1	7,8	1	1	1	1	1	1	1	1	1	0	1	-4,298802	273,392336	312,459788	0
15.01.2021	05:46:49	0	0	4,406427	2,64975	24,3396	-0,532	85,601	0	1010,84	6,1	8,1	8	1	1	1	1	1	1	1	1	1	0	1	-5,285412	273,33345	311,200362	0
15.01.2021	05:46:50	0	0	4,971354	2,688	19,1448	-0,523	85,609	0	1010,92	6,1	8,1	8	1	1	1	1	1	1	1	1	1	0	1	-1,62086	273,413924	315,237794	0
15.01.2021	05:46:51	0	0	3,728515	2,71875	22,0824	-0,531	85,616	0	1010,82	6,1	8,1	8	1	1	1	1	1	1	1	1	1	0	1	-4,580691	273,39809	312,20457	0
15.01.2021	05:46:52	0	0	3,389559	2,709	23,9652	-0,523	85,601	0	1010,66	6,1	8,1	8	1	1	1	1	1	1	1	1	1	0	1	-6,624383	273,299065	309,702163	0
15.01.2021	05:46:53	0	0	2,711647	2,7975	25,0272	-0,522	85,61	0	1010,86	6,1	8,1	8	1	1	1	1	1	1	1	1	1	0	1	-3,59408	273,395213	313,177844	0
15.01.2021	05:46:54	0	0	3,954486	2,68575	17,7048	-0,524	85,606	0	1010,78	6,1	8,1	8	1	1	1	1	1	1	1	1	1	0	1	-7,329105	273,283325	308,924577	0
15.01.2021	05:46:55	0	0	4,971354	2,55075	20,2788	-0,526	85,608	0	1010,76	6,1	8,1	8	1	1	1	1	1	1	1	1	1	0	1	-6,976744	273,377957	309,715212	0
15.01.2021	05:46:56	0	0	4,067471	2,499	17,7048	-0,528	85,613	0	1010,92	6	8,1	8	1	1	1	1	1	1	1	1	1	0	1	-8,879493	273,277605	307,347712	0
15.01.2021	05:46:57	0	0	3,163589	2,5995	16,8516	-0,525	85,6	0	1010,76	6,1	8,1	8	1	1	1	1	1	1	1	1	1	0	1	-9,302326	273,424007	307,603072	0
15.01.2021	05:46:58	0	0	5,31031	2,7375	18,0828	-0,522	85,607	0	1010,76	6,1	8,1	8	1	1	1	1	1	1	1	1	1	0	1	-3,24172	273,429772	313,690401	0
15.01.2021	05:46:59	0	0	4,971354	2,82075	25,4124	-0,519	85,614	0	1010,86	6	8,1	8	1	1	1	1	1	1	1	1	1	0	1	-8,738548	273,419685	308,146812	0
15.01.2021	05:47:00	0	0	2,259706	2,694	20,6316	-0,528	85,627	0	1010,88	6	8,1	8	1	1	1	1	1	1	1	1	1	0	1	-6,694856	273,343491	309,837425	0
15.01.2021	05:47:01	0	0	2,259706	2,694	20,6316	-0,528	85,627	0	1010,88	6	8,1	8	1	1	1	1	1	1	1	1	1	0	1	-6,8358	273,457175	310,223392	0
15.01.2021	05:47:02	0	0	4,632398	2,64675	14,7492	-0,529	85,612	0	1010,8	6,1	8,1	8	1	1	1	1	1	1	1	1	1	0	1	-3,382664	273,339187	313,129682	0
15.01.2021	05:47:03	0	0	4,858368	2,66025	19,5264	-0,521	85,617	0	1010,94	6	8,1	8	1	1	1	1	1	1	1	1	1	0	1	-4,439746	273,434096	312,512424	0
15.01.2021	05:47:04	0	0	4,406427	2,64525	15,39	-0,527	85,609	0	1010,84	6,1	8,1	8	1	1	1	1	1	1	1	1	1	0	1	-2,255109	273,332016	314,224024	0
15.01.2021	05:47:05	0	0	4,406427	2,6205	20,2896	-0,532	85,612	0	1010,8	6,1	8,1	8	1	1	1	1	1	1	1	1	1	0	1	-5,778717	273,454288	311,267088	0
15.01.2021	05:47:06	0	0	2,937653	2,61525	15,7824	-0,526	85,608	0	1010,76	6	8,1	7,8	1	1	1	1	1	1	1	1	1	0	1	-6,20155	273,320549	310,224473	0
15.01.2021	05:47:07	0	0	4,74544	2,67675	26,91	-0,522	85,603	0	1010,66	6,1	8,1	7,8	1	1	1	1	1	1	1	1	1	0	1	-3,100775	273,294771	313,205892	0
15.01.2021	05:47:08	0	0	2,937618	2,60775	22,0788	-0,526	85,605	0	1010,82	6,1	8,1	8	1	1	1	1	1	1	1	1	1	0	1	-6,624383	273,386583	310,107546	0
15.01.2021	05:47:09	0	0	4,858368	2,502	25,8912	-0,525	85,607	0	1010,84	6,1	8,1	8	1	1	1	1	1	1	1	1	1	0	1	-5,073996	273,468724	312,038765	0
15.01.2021	05:47:10	0	0	4,519412	2,541	31,3848	-0,526	85,607	0	1010,72	6,1	8,1	8	1	1	1	1	1	1	1	1	1	0	1	-3,24172	273,372208	313,4236	0
15.01.2021	05:47:11	0	0	3,502545	2,46225	17,712	-0,526	85,597	0	1010,88	6,1	8,1	8	1	1	1	1	1	1	1	1	1	0	1	-3,735025	273,280465	312,505417	0
15.01.2021	05:47:12	0	0	3,728515	2,46525	32,8788	-0,526	85,619	0	1010,72	6,1	8,1	8	1	1	1	1	1	1	1	1	1	0	1	-7,470049	273,445632	309,535612	0
15.01.2021	05:47:13	0	0	4,067471	2,4045	23,5836	-0,524	85,6	0	1010,72	6	8,1	8	1	1	1	1	1	1	1	1	1	0	1	-1,62086	273,461505	315,458416	0
15.01.2021	05:47:14	0	0	3,728515	2,28075	16,1028	-0,523	85,61	0	1010,7	6,1	8,1	8	1	1	1	1	1	1	1	1	1	0	1	-5,073996	273,31052	311,305588	0
15.01.2021	05:47:15	0	0	2,711647	2,38425	16,1028	-0,523	85,619	0	1010,86	6	8,1	8	1	1	1	1	1	1	1	1	1	0	1	-5,778717	273,458618	311,287168	0
15.01.2021	05:47:16	0	0	4,632398	2,484	23,7132	-0,526	85,615	0	1010,74	6	8,1	8	1	1	1	1	1	1	1	1	1	0	1	-7,540521	273,426889	309,378236	0
15.01.2021	05:47:17	0	0	4,519412	2,529	21,384	-0,527	85,599	0	1010,84	6,1	8,1	8	1	1	1	1	1	1	1	1	1	0	1	-10,570825	273,435537	306,38803	0
15.01.2021	05:47:18	0	0	3,389559	2,4465	20,286	-0,524	85,609	0	1010,7	6,1	8,1	8	1	1	1	1	1	1	1	1	1	0	1	-5,073996	273,299065	311,252551	0
15.01.2021	05:47:19	0	0	2,824633	2,3955	19,1628	-0,522	85,617	0	1010,74	6	8,1	8	1	1	1	1	1	1	1	1	1	0	1	-5,355884	273,284755	310,904419	0
15.01.2021	05:47:20	0	0	3,163589	2,36925	22,4568	-0,526	85,619	0	1010,78	6,1	8,1	8	1	1	1	1	1	1	1	1	1	0	1	-4,862579	273,339187	311,649767	0
15.01.2021	05:47:21	0	0	4,406427	2,33625	22,0932	-0,526	85,621	0	1010,72	6,1	8,1	8	1	1	1	1	1	1	1	1	1	0	1	-6,765328	273,452845	310,273786	0
15.01.2021	05:47:22	0	0	3,163589	2,45175	11,7072	-0,53	85,607	0	1010,72	6,1	8,1	8	1	1	1	1	1	1	1	1	1	0	1	-3,664553	273,319116	312,754835	0
15.01.2021	05:47:23	0	0	3,954486	2,622	10,44	-0,526	85,616	0	1010,94	6,1	8,1	8	1	1	1	1	1	1	1	1	1	0	1	-5,355884	273,329149	311,109968	0
15.01.2021	05:47:24	0	0	2,598662	2,74725	9,0108	-0,522	85,615	0	1010,8	6	8,1	8	1	1	1	1	1	1	1	1	1	0	1	-6,20155	273,277605	310,025654	0
15.01.2021	05:47:25	0	0	4,180456	2,7375	16,092	-0,524	85,616	0	1010,8	6	8,1	8	1	1	1	1	1	1	1	1	1	0	1	-9,936575	273,411045	306,908729	0
15.01.2021	05:47:26	0	0	4,406427	2,589	22,0788	-0,52	85,622	0	1010,84	6,1	8,1	8	1	1	1	1	1	1	1	1	1	0	1	-5,073996	273,470169	312,045464	0
15.01.2021	05:47:27	0	0	2,824633	2,48775	7,5204	-0,523	85,616	0	1010,82	6,1	8,1	8	1	1	1	1	1	1	1	1	1	0	1	-3,382664	273,388021	313,355929	0
15.01.2021	05:47:28	0	0	3,276574	2,4375	23,9796	-0,525	85,605	0	1010,72	6	8,1	8	1	1	1	1	1	1	1	1	1	0	1	-5,778717	273,284755	310,481586	0
15.01.2021	05:47:29	0	0	4,067471	2,463	21,7656	-0,522	85,618	0	1010,76	6	8,1	8	1	1	1	1	1	1	1	1	1	0	1	-3,523608	273,35928	313,081814	0
15.01.2021	05:47:30	0	0	2,937618	2,5335	10,0728	-0,526	85,616	0	1010,66	6	8,1	8	1	1	1	1	1	1	1	1	1	0	1	-3,59408	273,256169	312,533916	0
15.01.2021	05:47:31	0	0	3,050622	2,58825	14,6556	-0,522	85,605	0	1010,8	6	8,1	7,9	1	1	1	1	1	1	1	1	1	0	1	-5,426357	273,402407	311,378913	0
15.01.2021	05:47:32	0	0	3,163589	2,4645	19,2564	-0,519	85,623	0	1010,98	6	8,1	8	1	1	1	1	1	1	1	1	1	0	1	-5,144468	273,458618	311,921418	0
15.01.2021	05:47:33	0	0	4,067471	2,44125	10,818	-0,528	85,623	0	1010,66	6,1	8,1	8	1	1	1	1	1	1	1	1	1	0	1	-3,100775	273,321982	313,331885	0
15.01.2021	05:47:34	0	0	2,372692	2,502	18,8388	-0,526	85,605	0	1010,7	6	8,1	8	1	1	1	1	1	1	1	1	1	0	1	-5,637773	273,281895	310,609289	0
15.01.2021	05:47:35	0	0	3,163589	2,682	13,9104	-0,523	85,61	0	1010,8	6	8,1	8	1	1	1	1	1	1	1	1	1	0	1	-2,184637	273,307655	314,181684	0
15.01.2021	05:47:36	0	0	2,711647	2,772	1,188	-0,525	85,623	0	1010,84	6	8,1	8	1	1	1	1	1	1	1	1	1	0	1	-8,45666	273,287616	307,816888	0
15.01.2021	05:47:37	0	0	4,745383	2,7015	8,6364	-0,521	85,616	0	1010,76	6,1	8,1	8	1	1	1	1	1	1	1	1	1	0	1	-4,439746	273,321982	311,992914	0
15.01.2021	05:47:38	0	0	3,95451	2,64975	8,9964	-0,525	85,617	0	1010,8	6	8,1	7,9	1	1	1	1	1	1	1	1	1	0	1	-2,396054	273,313385	313,996796	0
15.01.2021	05:47:39	0	0	4,406427	2,76375	10,0656	-0,518	85,617	0	1010,84	6	8,1	8	1	1	1	1	1	1	1	1	1	0	1	-5,073996	273,329149	311,391856	0
15.01.2021	05:47:40	0	0	3,163589	2,712	15,786	-0,52	85,612	0	1010,78	6	8,1	8	1	1	1	1	1	1	1	1	1	0	1	-7,188161	273,432654	309,757326	0
15.01.2021	05:47:41	0	0	4,632398	2,661	22,4604	-0,52	85,62	0	1010,9	6	8,1	8	1	1	1	1	1	1	1	1	1	0	1	-5,003524	273,416805	311,868483	0
15.01.2021	05:47:42	0	0	3,389559	2,6655	22,0968	-0,527	85,609	0	1010,74	6	8,1	8	1	1	1	1	1	1	1	1	1	0	1	-3,664553	273,461505	313,414723	0
15.01.2021	05:47:43	0	0	4,632426	2,7975	31,3992	-0,524	85,606	0	1010,8	6	8,1	7,9	1	1	1	1	1	1	1	1	1	0	1	-5,355884	273,475947	311,790377	0
15.01.2021	05:47:44	0	0	4,971354	2,79225	24,354	-0,517	85,627	0	1010,84	6	8,1	8	1	1	1	1	1	1	1	1	1	0	1	-5,778717	273,309087	310,594235	0
15.01.2021	05:47:45	0	0	4,180456	2,71275	5,3172	-0,525	85,614	0	1010,84	6	8,1	8	1	1	1	1	1	1	1	1	1	0	1	-6,694856	273,46728	310,411207	0
15.01.2021	05:47:46	0	0	2,937618	2,71725	21,3804	-0,522	85,612	0	1010,88	6,1	8,1	8	1	1	1	1	1	1	1	1	1	0	1	-3,100775	273,411045	313,744529	0
15.01.2021	05:47:47	0	0	4,51944	2,68275	22,0716	-0,521	85,607	0	1010,94	6,1	8,1	7,9	1	1	1	1	1	1	1	1	1	0	1	-4,792107	273,39809	311,993153	0
15.01.2021	05:47:48	0	0	2,711647	2,62725	18,8316	-0,521	85,61	0	1010,92	6	8,1	8	1	1	1	1	1	1	1	1	1	0	1	-2,466526	273,289047	313,813644	0
15.01.2021	05:47:49	0	0	3,615552	2,56125	16,0956	-0,523	85,604	0	1010,82	6	8,1	7,9	1	1	1	1	1	1	1	1	1	0	1	-6,765328	273,344926	309,773599	0
15.01.2021	05:47:50	0	0	4,180456	2,3985	19,5192	-0,52	85,613	0	1010,76	6	8,1	8	1	1	1	1	1	1	1	1	1	0	1	-6,272023	273,342057	310,253613	0
15.01.2021	05:47:51	0	0	3,728538	2,265	19,1412	-0,527	85,617	0	1010,84	6,1	8,1	7,9	1	1	1	1	1	1	1	1	1	0	1	-5,496829	273,289047	310,783341	0
15.01.2021	05:47:52	0	0	4,971384	2,19375	18,8316	-0,519	85,608	0	1010,84	6	8,1	7,9	1	1	1	1	1	1	1	1	1	0	1	-2,466526	273,435537	314,492329	0
15.01.2021	05:47:53	0	0	2,711647	2,187	17,3556	-0,518	85,618	0	1010,84	6	8,1	8	1	1	1	1	1	1	1	1	1	0	1	-6,624383	273,286186	309,642542	0
15.01.2021	05:47:54	0	0	4,971354	2,3745	29,5596	-0,523	85,621	0	1010,78	6,1	8,1	8	1	1	1	1	1	1	1	1	1	0	1	-1,057082	273,314817	315,342401	0
15.01.2021	05:47:55	0	0	4,406454	2,5695	17,2224	-0,521	85,621	0	1010,82	6	8,1	7,9	1	1	1	1	1	1	1	1	1	0	1	-3,171247	273,468724	313,941514	0
15.01.2021	05:47:56	0	0	3,728515	2,68875	16,8588	-0,524	85,617	0	1010,88	6	8	8	1	1	1	1	1	1	1	1	1	0	1	-9,725159	273,449959	307,300572	0
15.01.2021	05:47:57	0	0	3,841524	2,7765	20,2932	-0,523	85,62	0	1010,82	6,1	8,1	7,9	1	1	1	1	1	1	1	1	1	0	1	-3,664553	273,406726	313,160732	0
15.01.2021	05:47:58	0	0	3,954486	2,82375	20,6388	-0,518	85,598	0	1010,86	6	8,1	8	1	1	1	1	1	1	1	1	1	0	1	-3,171247	273,468724	313,941514	0
15.01.2021	05:47:59	0	0	2,598678	2,76675	19,5228	-0,525	85,595	0	1010,7	6	8,1	7,9	1	1	1	1	1	1	1	1	1	0	1	-0,704722	273,353537	315,874095	0
15.01.2021	05:48:00	0	0	3,38958	2,592	22,0788	-0,52	85,621	0	1010,84	6,1	8,1	7,9	1	1	1	1	1	1	1	1	1	0	1	-5,355884	273,342057	311,169751	0
15.01.2021	05:48:01	0	0	3,38958	2,592	22,0788	-0,52	85,621	0	1010,84	6,1	8,1	7,9	1	1	1	1	1	1	1	1	1	0	1	-5,355884	273,342057	311,169751	0
15.01.2021	05:48:02	0	0	4,519412	2,40675	35,8596	-0,517	85,608	0	1010,92	6,1	8,1	8	1	1	1	1	1	1	1	1	1	0	1	-1,761804	273,304791	314,591256	0
15.01.2021	05:48:03	0	0	4,632398	2,283	45,1368	-0,518	85,629	0	1010,86	6	8,1	8	1	1	1	1	1	1	1	1	1	0	1	-7,399577	273,31052	308,980007	0
15.01.2021	05:48:04	0	0	3,38958	2,12325	30,7008	-0,518	85,629	0	1011	6	8,1	7,9	1	1	1	1	1	1	1	1	1	0	1	-6,624383	273,464392	310,468284	0
15.01.2021	05:48:05	0	0	3,615552	1,99875	19,2528	-0,517	85,626	0	1010,94	6	8,1	7,9	1	1	1	1	1	1	1	1	1	0	1	-6,624383	273,441305	310,361214	0
15.01.2021	05:48:06	0	0	2,937636	1,92525	23,9724	-0,522	85,601	0	1010,76	6,1	8,1	7,9	1	1	1	1	1	1	1	1	1	0	1	-2,60747	273,356409	313,984648	0
15.01.2021	05:48:07	0	0	3,95451	1,98	14,3136	-0,52	85,622	0	1010,58	6	8,1	7,9	1	1	1	1	1	1	1	1	1	0	1	-6,412967	273,46728	310,693096	0
15.01.2021	05:48:08	0	0	2,82465	2,08725	21,3912	-0,521	85,604	0	1010,66	6,1	8,1	7,9	1	1	1	1	1	1	1	1	1	0	1	-6,412967	273,388021	310,325626	0
15.01.2021	05:48:09	0	0	4,632426	2,21175	17,2332	-0,515	85,62	0	1010,86	6	8,1	7,9	1	1	1	1	1	1	1	1	1	0	1	-8,949965	273,474502	308,189595	0
15.01.2021	05:48:10	0	0	3,954486	2,3775	23,2272	-0,517	85,626	0	1010,84	6	8,1	8	1	1	1	1	1	1	1	1	1	0	1	-5,21494	273,411045	311,630364	0
15.01.2021	05:48:11	0	0	2,711647	2,44575	11,7288	-0,529	85,621	0	1010,76	6,1	8,1	8	1	1	1	1	1	1	1	1	1	0	1	-5,637773	273,455731	311,414725	0
15.01.2021	05:48:12	0	0	2,372706	2,5545	17,6976	-0,523	85,614	0	1010,76	6	8,1	7,9	1	1	1	1	1	1	1	1	1	0	1	-5,003524	273,326282	311,44905	0
15.01.2021	05:48:13	0	0	3,841524	2,58525	28,3572	-0,517	85,623	0	1010,92	6	8,1	7,9	1	1	1	1	1	1	1	1	1	0	1	-2,255109	273,478836	314,904557	0
15.01.2021	05:48:14	0	0	3,163608	2,466	13,5504	-0,526	85,613	0	1010,78	6	8,1	7,9	1	1	1	1	1	1	1	1	1	0	1	-6,8358	273,400968	309,962799	0
15.01.2021	05:48:15	0	0	2,146721	2,39625	11,7324	-0,518	85,618	0	1010,64	6	8,1	8	1	1	1	1	1	1	1	1	1	0	1	-6,342495	273,468724	310,770266	0
15.01.2021	05:48:16	0	0	2,598678	2,4825	20,2788	-0,52	85,614	0	1010,7	6,1	8,1	7,9	1	1	1	1	1	1	1	1	1	0	1	-4,016913	273,340622	312,502077	0
15.01.2021	05:48:17	0	0	3,61553	2,56125	14,6484	-0,524	85,622	0	1010,76	6,1	8,1	8	1	1	1	1	1	1	1	1	1	0	1	-8,033827	273,455731	309,018672	0
15.01.2021	05:48:18	0	0	3,615552	2,61675	6,0624	-0,517	85,615	0	1010,86	6,1	8	7,9	1	1	1	1	1	1	1	1	1	0	1	-4,439746	273,403847	312,372194	0
15.01.2021	05:48:19	0	0	5,084369	2,6955	9,3564	-0,523	85,629	0	1010,86	6,2	8	7,9	1	1	1	1	1	1	1	1	1	0	1	-1,761804	273,477391	315,391159	0
15.01.2021	05:48:20	0	0	2,485692	2,664	16,1028	-0,521	85,608	0	1010,7	6,1	8,1	7,9	1	1	1	1	1	1	1	1	1	0	1	-9,231853	273,347796	307,320368	0
15.01.2021	05:48:21	0	0	4,632398	2,62425	14,3172	-0,519	85,609	0	1010,74	6,1	8,1	8	1	1	1	1	1	1	1	1	1	0	1	-7,751938	273,444189	309,247035	0
15.01.2021	05:48:22	0	0	3,728538	2,5665	11,1996	-0,519	85,621	0	1010,82	6,1	8,1	7,9	1	1	1	1	1	1	1	1	1	0	1	-9,725159	273,346361	306,820415	0
15.01.2021	05:48:23	0	0	4,406427	2,81025	22,8492	-0,514	85,611	0	1010,76	6,1	8	8	1	1	1	1	1	1	1	1	1	0	1	-3,664553	273,297633	312,655367	0
15.01.2021	05:48:24	0	0	4,51944	3,06975	23,2272	-0,517	85,625	0	1010,84	6,1	8,1	7,9	1	1	1	1	1	1	1	1	1	0	1	-6,272023	273,409605	310,566608	0
15.01.2021	05:48:25	0	0	2,25972	3,22575	24,7248	-0,515	85,618	0	1010,84	6	8,1	7,9	1	1	1	1	1	1	1	1	1	0	1	-4,369274	273,299065	311,957272	0
15.01.2021	05:48:26	0	0	3,61553	3,2085	35,8452	-0,517	85,624	0	1010,78	6	8	8	1	1	1	1	1	1	1	1	1	0	1	-3,523608	273,37652	313,161688	0
15.01.2021	05:48:27	0	0	2,372706	3,02175	19,9008	-0,521	85,601	0	1010,88	6,1	8,1	7,9	1	1	1	1	1	1	1	1	1	0	1	-4,933051	273,31052	311,446533	0
15.01.2021	05:48:28	0	0	3,841524	2,79075	20,6568	-0,516	85,629	0	1010,72	6,1	8,1	7,9	1	1	1	1	1	1	1	1	1	0	1	-5,708245	273,343491	310,824036	0
15.01.2021	05:48:29	0	0	2,711664	2,733	19,9044	-0,525	85,626	0	1010,92	6,1	8,1	7,9	1	1	1	1	1	1	1	1	1	0	1	-5,708245	273,477391	311,444718	0
15.01.2021	05:48:30	0	0	4,406454	2,955	27,9792	-0,518	85,636	0	1010,84	6,1	8	7,9	1	1	1	1	1	1	1	1	1	0	1	-7,751938	273,396652	309,026654	0
15.01.2021	05:48:31	0	0	3,276594	3,0615	36,2268	-0,521	85,612	0	1010,94	6	8,1	7,9	1	1	1	1	1	1	1	1	1	0	1	-7,610994	273,471613	309,515166	0
15.01.2021	05:48:32	0	0	4,745412	2,85675	26,5068	-0,52	85,634	0	1010,74	6,1	8	7,9	1	1	1	1	1	1	1	1	1	0	1	-4,510218	273,445632	312,495443	0
15.01.2021	05:48:33	0	0	3,38958	2,54775	23,58	-0,517	85,619	0	1010,74	6,1	8,1	7,9	1	1	1	1	1	1	1	1	1	0	1	-1,479915	273,329149	314,985937	0
15.01.2021	05:48:34	0	0	4,51944	2,46825	15,786	-0,524	85,626	0	1010,82	6,1	8	7,9	1	1	1	1	1	1	1	1	1	0	1	-3,59408	273,477391	313,558883	0
15.01.2021	05:48:35	0	0	4,632426	2,53125	19,8972	-0,521	85,606	0	1010,64	6,1	8,1	7,9	1	1	1	1	1	1	1	1	1	0	1	-4,721635	273,336319	311,777424	0
15.01.2021	05:48:36	0	0	2,711664	2,661	26,5176	-0,52	85,616	0	1010,92	6,1	8,1	7,9	1	1	1	1	1	1	1	1	1	0	1	-4,298802	273,31625	312,107315	0
15.01.2021	05:48:37	0	0	4,067496	2,661	20,9952	-0,516	85,63	0	1010,82	6,1	8,1	7,9	1	1	1	1	1	1	1	1	1	0	1	-4,439746	273,448517	312,579294	0
15.01.2021	05:48:38	0	0	4,406427	2,67	13,932	-0,522	85,623	0	1010,84	6,1	8,2	8	1	1	1	1	1	1	1	1	1	0	1	-10,570825	273,477391	306,582139	0
15.01.2021	05:48:39	0	0	2,937636	2,65275	16,1028	-0,517	85,619	0	1010,9	6,1	8	7,9	1	1	1	1	1	1	1	1	1	0	1	-5,990134	273,408165	310,841823	0
15.01.2021	05:48:40	0	0	2,937636	2,775	28,7208	-0,519	85,626	0	1010,74	6,1	8	7,9	1	1	1	1	1	1	1	1	1	0	1	-2,396054	273,309087	313,976899	0
15.01.2021	05:48:41	0	0	4,406454	2,955	18,4536	-0,52	85,611	0	1010,84	6,1	8	7,9	1	1	1	1	1	1	1	1	1	0	1	-6,765328	273,377957	309,926628	0
15.01.2021	05:48:42	0	0	4,51944	3,00225	19,5408	-0,512	85,621	0	1010,76	6,1	8	7,9	1	1	1	1	1	1	1	1	1	0	1	-3,523608	273,29334	312,776434	0
15.01.2021	05:48:43	0	0	3,615552	3,08025	22,824	-0,516	85,624	0	1010,82	6	8	7,9	1	1	1	1	1	1	1	1	1	0	1	-8,527132	273,383707	308,191471	0
15.01.2021	05:48:44	0	0	3,728538	2,98725	15,4224	-0,515	85,623	0	1010,88	6,1	8	7,9	1	1	1	1	1	1	1	1	1	0	1	-4,721635	273,452845	312,317478	0
15.01.2021	05:48:45	0	0	3,502566	2,85525	3,7836	-0,518	85,622	0	1010,68	6,1	8	7,9	1	1	1	1	1	1	1	1	1	0	1	-3,735025	273,418245	313,143658	0
15.01.2021	05:48:46	0	0	4,632426	2,63475	356,094	-0,514	85,622	0	1010,88	6,1	8,1	7,9	1	1	1	1	1	1	1	1	1	0	1	-2,043693	273,455731	315,008806	0
15.01.2021	05:48:47	0	0	4,406454	2,4525	357,6636	-0,519	85,616	0	1010,82	6,1	8,1	7,9	1	1	1	1	1	1	1	1	1	0	1	-1,902748	273,301928	314,437054	0
15.01.2021	05:48:48	0	0	3,841524	2,4555	340,1928	-0,513	85,632	0	1010,7	6,1	8	7,9	1	1	1	1	1	1	1	1	1	0	1	-3,030303	273,411045	313,815001	0
15.01.2021	05:48:49	0	0	4,406454	2,50575	351,0036	-0,514	85,613	0	1010,72	6,1	8,1	7,9	1	1	1	1	1	1	1	1	1	0	1	-0	273,483172	317,179777	0
15.01.2021	05:48:50	0	0	4,293468	2,47125	0,4932	-0,524	85,615	0	1010,72	6,1	8	7,9	1	1	1	1	1	1	1	1	1	0	1	-4,22833	273,402407	312,57694	0
15.01.2021	05:48:51	0	0	4,858398	2,157	14,2848	-0,525	85,62	0	1010,8	6,1	8,1	7,9	1	1	1	1	1	1	1	1	1	0	1	-4,298802	273,304791	312,054258	0
15.01.2021	05:48:52	0	0	4,293468	1,99425	7,5168	-0,518	85,612	0	1010,76	6,1	8,2	7,9	1	1	1	1	1	1	1	1	1	0	1	-3,735025	273,434096	313,217146	0
15.01.2021	05:48:53	0	0	4,067496	1,998	6,8184	-0,516	85,625	0	1010,86	6,1	8	7,9	1	1	1	1	1	1	1	1	1	0	1	-2,043693	273,470169	315,075767	0
15.01.2021	05:48:54	0	0	5,310341	2,337	21,7692	-0,522	85,603	0	1010,78	6,1	8,1	7,9	1	1	1	1	1	1	1	1	1	0	1	-6,131078	273,436979	310,834461	0
15.01.2021	05:48:55	0	0	3,050622	2,97675	14,6556	-0,519	85,623	0	1010,7	6,1	8	7,9	1	1	1	1	1	1	1	1	1	0	1	-4,22833	273,439863	312,750581	0
15.01.2021	05:48:56	0	0	2,82465	3,51225	17,2368	-0,513	85,625	0	1010,9	6,1	8,2	7,9	1	1	1	1	1	1	1	1	1	0	1	-5,144468	273,457175	311,914724	0
15.01.2021	05:48:57	0	0	4,293468	3,62175	11,196	-0,516	85,613	0	1010,74	6,1	8	7,9	1	1	1	1	1	1	1	1	1	0	1	-4,087385	273,372208	312,577934	0
15.01.2021	05:48:58	0	0	5,197355	3,71175	13,5468	-0,512	85,613	0	1010,8	6,1	8	7,9	1	1	1	1	1	1	1	1	1	0	1	-4,651163	273,468724	312,461598	0
15.01.2021	05:48:59	0	0	3,615552	3,762	10,4508	-0,516	85,626	0	1010,9	6,1	8	7,9	1	1	1	1	1	1	1	1	1	0	1	-3,946441	273,413924	312,912213	0
15.01.2021	05:49:00	0	0	4,745412	3,80925	18,45	-0,52	85,62	0	1010,82	6,1	8	7,9	1	1	1	1	1	1	1	1	1	0	1	-3,946441	273,445632	313,05922	0
15.01.2021	05:49:01	0	0	2,372706	3,80925	16,4772	-0,512	85,617	0	1010,94	6,1	8	7,9	1	1	1	1	1	1	1	1	1	0	1	-3,946441	273,445632	313,05922	0
15.01.2021	05:49:02	0	0	2,372706	3,80925	16,4772	-0,512	85,617	0	1010,94	6,1	8	7,9	1	1	1	1	1	1	1	1	1	0	1	-2,043693	273,399529	314,748237	0
15.01.2021	05:49:03	0	0	2,598678	3,8925	16,1784	-0,512	85,615	0	1010,82	6,1	8	7,9	1	1	1	1	1	1	1	1	1	0	1	-3,946441	273,31625	312,459676	0
15.01.2021	05:49:04	0	0	3,050622	3,89475	5,6808	-0,513	85,61	0	1010,86	6,1	8	7,9	1	1	1	1	1	1	1	1	1	0	1	-1,761804	273,342057	314,763831	0
15.01.2021	05:49:05	0	0	3,615552	3,81375	9,7632	-0,514	85,623	0	1010,78	6,1	8	7,9	1	1	1	1	1	1	1	1	1	0	1	-0,070472	273,432654	316,875014	0
15.01.2021	05:49:06	0	0	2,937636	3,699	1,5696	-0,51	85,621	0	1010,78	6,1	8	7,9	1	1	1	1	1	1	1	1	1	0	1	-5,637773	273,294771	310,668894	0
15.01.2021	05:49:07	0	0	2,937636	3,36225	18,0648	-0,512	85,627	0	1010,72	6,1	8,1	7,9	1	1	1	1	1	1	1	1	1	0	1	-6,272023	273,365025	310,360015	0
15.01.2021	05:49:08	0	0	3,163608	2,9235	19,5228	-0,519	85,618	0	1010,84	6,1	8	7,9	1	1	1	1	1	1	1	1	1	0	1	-0,845666	273,306223	315,514025	0
15.01.2021	05:49:09	0	0	2,711664	2,6385	32,5224	-0,513	85,624	0	1010,84	6,1	8	7,9	1	1	1	1	1	1	1	1	1	0	1	-2,60747	273,412484	314,244509	0
15.01.2021	05:49:10	0	0	3,615552	2,54025	19,9152	-0,51	85,617	0	1010,74	6,1	8	7,9	1	1	1	1	1	1	1	1	1	0	1	-4,298802	273,484617	312,88768	0
15.01.2021	05:49:11	0	0	4,745412	2,52	22,0788	-0,517	85,607	0	1010,76	6,1	8	7,9	1	1	1	1	1	1	1	1	1	0	1	-6,553911	273,454288	310,491894	0
15.01.2021	05:49:12	0	0	3,95451	2,4255	18,0792	-0,514	85,617	0	1010,82	6,1	8,1	7,9	1	1	1	1	1	1	1	1	1	0	1	-4,298802	273,425448	312,613275	0
15.01.2021	05:49:13	0	0	3,050622	2,28075	21,024	-0,507	85,619	0	1010,86	6,1	8	7,9	1	1	1	1	1	1	1	1	1	0	1	-3,875969	273,342057	312,649666	0
15.01.2021	05:49:14	0	0	3,95451	2,112	48,834	-0,518	85,624	0	1010,82	6,1	8,1	7,9	1	1	1	1	1	1	1	1	1	0	1	-4,862579	273,346361	311,682995	0
15.01.2021	05:49:15	0	0	2,711664	2,10525	16,4808	-0,513	85,623	0	1010,86	6,1	8	7,9	1	1	1	1	1	1	1	1	1	0	1	-4,721635	273,307655	311,644686	0
15.01.2021	05:49:16	0	0	2,82465	2,1885	27,6516	-0,519	85,612	0	1010,86	6,1	8	7,9	1	1	1	1	1	1	1	1	1	0	1	-1,973221	273,393774	314,792036	0
15.01.2021	05:49:17	0	0	4,745412	2,4405	32,8716	-0,513	85,619	0	1011,08	6,1	8	7,9	1	1	1	1	1	1	1	1	1	0	1	-5,21494	273,309087	311,158012	0
15.01.2021	05:49:18	0	0	4,406454	2,46975	24,444	-0,516	85,623	0	1010,74	6,1	8	7,9	1	1	1	1	1	1	1	1	1	0	1	-5,21494	273,445632	311,790721	0
15.01.2021	05:49:19	0	0	4,51944	2,32275	23,958	-0,513	85,629	0	1010,74	6,1	8,1	7,9	1	1	1	1	1	1	1	1	1	0	1	-1,268499	273,480281	315,89787	0
15.01.2021	05:49:20	0	0	3,050622	2,121	23,9868	-0,518	85,62	0	1010,88	6,1	8	7,9	1	1	1	1	1	1	1	1	1	0	1	-0,845666	273,385145	315,879599	0
15.01.2021	05:49:21	0	0	4,406454	1,89675	39,87	-0,512	85,617	0	1010,92	6,1	8	7,9	1	1	1	1	1	1	1	1	1	0	1	-2,396054	273,494737	314,837381	0
15.01.2021	05:49:22	0	0	3,728538	1,85625	7,506	-0,515	85,629	0	1010,84	6,1	8	7,9	1	1	1	1	1	1	1	1	1	0	1	-6,20155	273,352102	310,370617	0
15.01.2021	05:49:23	0	0	4,180482	2,0535	7,5168	-0,514	85,6	0	1010,88	6,1	8	7,9	1	1	1	1	1	1	1	1	1	0	1	-6,906272	273,380832	309,799006	0
15.01.2021	05:49:24	0	0	3,728538	2,403	29,1132	-0,512	85,618	0	1010,78	6,1	8	7,9	1	1	1	1	1	1	1	1	1	0	1	-3,312192	273,314817	313,087291	0
15.01.2021	05:49:25	0	0	3,050622	2,544	17,802	-0,507	85,614	0	1010,94	6,1	8,1	7,9	1	1	1	1	1	1	1	1	1	0	1	-1,268499	273,392336	315,490091	0
15.01.2021	05:49:26	0	0	4,971384	2,4585	38,7936	-0,517	85,619	0	1010,74	6,1	8	7,9	1	1	1	1	1	1	1	1	1	0	1	-5,84919	273,306223	310,510501	0
15.01.2021	05:49:27	0	0	3,502566	2,2455	24,7356	-0,515	85,606	0	1010,66	6,1	8	7,9	1	1	1	1	1	1	1	1	1	0	1	-1,409443	273,396652	315,369148	0
15.01.2021	05:49:28	0	0	4,406454	2,07825	16,83	-0,512	85,619	0	1010,82	6,1	8	7,9	1	1	1	1	1	1	1	1	1	0	1	-5,003524	273,311952	311,382693	0
15.01.2021	05:49:29	0	0	4,067496	2,10975	25,0344	-0,51	85,618	0	1010,68	6,1	8	7,9	1	1	1	1	1	1	1	1	1	0	1	-3,24172	273,370771	313,416942	0
15.01.2021	05:49:30	0	0	2,598678	2,196	14,6664	-0,518	85,618	0	1010,82	6,1	8	7,9	1	1	1	1	1	1	1	1	1	0	1	-6,060606	273,311952	310,32561	0
15.01.2021	05:49:31	0	0	2,711664	2,32875	7,5132	-0,509	85,624	0	1010,86	6,1	8	7,9	1	1	1	1	1	1	1	1	1	0	1	-5,003524	273,382269	311,708416	0
15.01.2021	05:49:32	0	0	2,82465	2,45175	17,2224	-0,514	85,623	0	1010,82	6,1	8,1	7,9	1	1	1	1	1	1	1	1	1	0	1	-3,664553	273,313385	312,728297	0
15.01.2021	05:49:33	0	0	4,293468	2,48175	18,0792	-0,511	85,623	0	1010,88	6,1	8	7,9	1	1	1	1	1	1	1	1	1	0	1	-7,117689	273,399529	309,674241	0
15.01.2021	05:49:34	0	0	4,406454	2,51925	21,7836	-0,51	85,629	0	1010,8	6,1	8	7,9	1	1	1	1	1	1	1	1	1	0	1	-2,325581	273,313385	314,067268	0
15.01.2021	05:49:35	0	0	5,084369	2,58375	15,0336	-0,512	85,613	0	1010,72	6,1	8,1	7,9	1	1	1	1	1	1	1	1	1	0	1	-4,298802	273,412484	312,553177	0
15.01.2021	05:49:36	0	0	3,050622	2,6175	19,5408	-0,519	85,603	0	1010,76	6,1	8,1	7,9	1	1	1	1	1	1	1	1	1	0	1	-0,563777	273,309087	315,809175	0
15.01.2021	05:49:37	0	0	3,276594	2,526	22,8348	-0,507	85,633	0	1010,82	6,1	8	7,9	1	1	1	1	1	1	1	1	1	0	1	-3,100775	273,425448	313,811302	0
15.01.2021	05:49:38	0	0	4,51944	2,49	20,6316	-0,51	85,627	0	1011	6,1	8,1	7,9	1	1	1	1	1	1	1	1	1	0	1	-5,073996	273,493291	312,152729	0
15.01.2021	05:49:39	0	0	2,82465	2,61075	29,9484	-0,511	85,626	0	1010,96	6,1	8,1	7,9	1	1	1	1	1	1	1	1	1	0	1	-1,62086	273,424007	315,284537	0
15.01.2021	05:49:40	0	0	3,728538	2,715	27,6552	-0,51	85,625	0	1010,84	6,1	8	7,9	1	1	1	1	1	1	1	1	1	0	1	-5,144468	273,317683	311,268284	0
15.01.2021	05:49:41	0	0	4,293468	2,691	28,71	-0,518	85,625	0	1010,76	6,1	8	7,9	1	1	1	1	1	1	1	1	1	0	1	-0	273,413924	316,858654	0
15.01.2021	05:49:42	0	0	3,502566	2,71725	31,0212	-0,509	85,631	0	1010,78	6,1	8,1	7,9	1	1	1	1	1	1	1	1	1	0	1	-3,523608	273,319116	312,895779	0
15.01.2021	05:49:43	0	0	4,745412	2,80275	23,9652	-0,512	85,622	0	1010,86	6,1	8,1	7,9	1	1	1	1	1	1	1	1	1	0	1	-1,268499	273,342057	315,257136	0
15.01.2021	05:49:44	0	0	3,95451	2,84175	23,5872	-0,51	85,614	0	1010,82	6,1	8,1	7,9	1	1	1	1	1	1	1	1	1	0	1	-6,624383	273,357844	309,974387	0
15.01.2021	05:49:45	0	0	5,084369	2,898	32,886	-0,511	85,605	0	1010,72	6,1	8	7,9	1	1	1	1	1	1	1	1	1	0	1	-5,21494	273,314817	311,184543	0
15.01.2021	05:49:46	0	0	5,423327	2,76	18,4572	-0,507	85,604	0	1010,68	6,1	8	7,9	1	1	1	1	1	1	1	1	1	0	1	-8,033827	273,415365	308,831503	0
15.01.2021	05:49:47	0	0	2,711664	2,9265	20,7864	-0,502	85,627	0	1010,92	6,1	8	7,9	1	1	1	1	1	1	1	1	1	0	1	-7,117689	273,50631	310,169442	0
15.01.2021	05:49:48	0	0	3,050622	3,02925	14,6484	-0,511	85,606	0	1010,78	6,1	8,1	7,9	1	1	1	1	1	1	1	1	1	0	1	-6,272023	273,353537	310,306794	0
15.01.2021	05:49:49	0	0	3,38958	3,1065	28,3464	-0,507	85,624	0	1010,84	6,1	8	7,9	1	1	1	1	1	1	1	1	1	0	1	-8,033827	273,500522	309,226451	0
15.01.2021	05:49:50	0	0	2,598678	3,09225	28,7136	-0,506	85,609	0	1010,84	6,1	8	7,9	1	1	1	1	1	1	1	1	1	0	1	-7,188161	273,373645	309,483817	0
15.01.2021	05:49:51	0	0	4,51944	3,03675	23,8176	-0,505	85,597	0	1010,66	6,1	8,1	7,9	1	1	1	1	1	1	1	1	1	0	1	-6,412967	273,323415	310,02633	0
15.01.2021	05:49:52	0	0	4,51944	2,898	21,0096	-0,508	85,613	0	1010,8	6,1	8,1	7,9	1	1	1	1	1	1	1	1	1	0	1	-5,144468	273,403847	311,667472	0
15.01.2021	05:49:53	0	0	2,146734	2,802	26,9244	-0,512	85,619	0	1010,72	6,1	8	7,9	1	1	1	1	1	1	1	1	1	0	1	-2,255109	273,329149	314,210743	0
15.01.2021	05:49:54	0	0	3,502566	2,7435	14,3028	-0,513	85,618	0	1010,82	6,1	8,1	7,9	1	1	1	1	1	1	1	1	1	0	1	-8,879493	273,369335	307,772512	0
15.01.2021	05:49:55	0	0	4,293468	2,7105	15,408	-0,506	85,609	0	1011,02	6,1	8,1	7,9	1	1	1	1	1	1	1	1	1	0	1	-6,060606	273,458618	311,00528	0
15.01.2021	05:49:56	0	0	4,971384	2,66025	16,4664	-0,506	85,61	0	1010,8	6,1	8	7,9	1	1	1	1	1	1	1	1	1	0	1	-5,144468	273,461505	311,934808	0
15.01.2021	05:49:57	0	0	3,38958	2,5395	20,6352	-0,51	85,6	0	1010,72	6,1	8	7,9	1	1	1	1	1	1	1	1	1	0	1	-5,355884	273,389459	311,389374	0
15.01.2021	05:49:58	0	0	3,050622	2,5155	21,3984	-0,507	85,622	0	1010,92	6,1	8	7,9	1	1	1	1	1	1	1	1	1	0	1	-9,936575	273,494737	307,296859	0
15.01.2021	05:49:59	0	0	3,276594	2,64225	24,3324	-0,507	85,622	0	1010,86	6,1	8,1	7,9	1	1	1	1	1	1	1	1	1	0	1	-7,470049	273,454288	309,575756	0
15.01.2021	05:50:00	0	0	3,163608	2,8515	13,1616	-0,503	85,609	0	1010,92	6,1	8	7,9	1	1	1	1	1	1	1	1	1	0	1	-7,399577	273,37652	309,285719	0
15.01.2021	05:50:01	0	0	3,163608	2,8515	13,1616	-0,503	85,609	0	1010,92	6,1	8	7,9	1	1	1	1	1	1	1	1	1	0	1	-7,399577	273,37652	309,285719	0
15.01.2021	05:50:02	0	0	4,51944	2,94075	23,2272	-0,504	85,617	0	1010,92	6,1	8,1	7,9	1	1	1	1	1	1	1	1	1	0	1	-7,470049	273,320549	308,955974	0
15.01.2021	05:50:03	0	0	4,067496	2,77125	13,5504	-0,507	85,614	0	1010,88	6,1	8,1	7,9	1	1	1	1	1	1	1	1	1	0	1	-7,610994	273,385145	309,114272	0
15.01.2021	05:50:04	0	0	3,38958	2,589	4,086	-0,506	85,618	0	1010,86	6,1	8,1	7,9	1	1	1	1	1	1	1	1	1	0	1	-3,100775	273,50631	314,186355	0
15.01.2021	05:50:05	0	0	3,276594	2,427	12,1068	-0,501	85,611	0	1010,92	6,1	8,1	7,9	1	1	1	1	1	1	1	1	1	0	1	-7,188161	273,377957	309,503795	0
15.01.2021	05:50:06	0	0	2,485692	2,24475	21,7656	-0,514	85,612	0	1010,84	6,1	8,1	7,9	1	1	1	1	1	1	1	1	1	0	1	-10,923185	273,499076	306,33038	0
15.01.2021	05:50:07	0	0	4,51944	2,1405	14,3136	-0,504	85,607	0	1010,9	6,1	8,1	7,9	1	1	1	1	1	1	1	1	1	0	1	-6,8358	273,431213	310,103004	0
15.01.2021	05:50:08	0	0	4,067471	2,11125	26,5248	-0,506	85,597	0	1010,86	6,1	8	8	1	1	1	1	1	1	1	1	1	0	1	-8,245243	273,478836	308,914423	0
15.01.2021	05:50:09	0	0	3,050622	2,06025	13,1724	-0,505	85,602	0	1010,78	6,1	8,1	7,9	1	1	1	1	1	1	1	1	1	0	1	-4,792107	273,365025	311,83993	0
15.01.2021	05:50:10	0	0	3,050622	1,9455	17,244	-0,511	85,612	0	1010,82	6,1	8,1	7,9	1	1	1	1	1	1	1	1	1	0	1	-7,751938	273,484617	309,434544	0
15.01.2021	05:50:11	0	0	4,180482	1,95375	31,0212	-0,502	85,608	0	1010,94	6,1	8,1	7,9	1	1	1	1	1	1	1	1	1	0	1	-4,510218	273,486062	312,682969	0
15.01.2021	05:50:12	0	0	4,406427	2,127	18,4572	-0,505	85,595	0	1010,72	6,1	8,1	8	1	1	1	1	1	1	1	1	1	0	1	-3,59408	273,388021	313,144513	0
15.01.2021	05:50:13	0	0	4,180482	2,2245	24,7248	-0,505	85,591	0	1010,92	6,1	8,1	7,9	1	1	1	1	1	1	1	1	1	0	1	-6,624383	273,501969	310,642606	0
15.01.2021	05:50:14	0	0	3,502566	2,15925	2,6532	-0,506	85,599	0	1010,9	6,1	8,1	7,9	1	1	1	1	1	1	1	1	1	0	1	-5,285412	273,402407	311,519857	0
15.01.2021	05:50:15	0	0	4,067496	2,235	19,8936	-0,51	85,593	0	1010,86	6,1	8,1	7,9	1	1	1	1	1	1	1	1	1	0	1	-3,664553	273,334885	312,827864	0
15.01.2021	05:50:16	0	0	4,632426	2,457	21,7584	-0,51	85,586	0	1010,9	6,1	8,1	7,9	1	1	1	1	1	1	1	1	1	0	1	-9,725159	273,46728	307,380904	0
15.01.2021	05:50:17	0	0	2,937636	2,7045	20,6352	-0,511	85,598	0	1010,76	6,1	8,1	7,9	1	1	1	1	1	1	1	1	1	0	1	-0,845666	273,452845	316,193447	0
15.01.2021	05:50:18	0	0	2,485692	2,67	15,0228	-0,505	85,609	0	1010,9	6,1	8,1	7,9	1	1	1	1	1	1	1	1	1	0	1	-1,550388	273,500522	315,70989	0
15.01.2021	05:50:19	0	0	3,163589	2,6235	26,1756	-0,506	85,614	0	1010,8	6,1	8,1	8	1	1	1	1	1	1	1	1	1	0	1	-5,003524	273,438421	311,968701	0
15.01.2021	05:50:20	0	0	4,971384	2,52675	14,6448	-0,504	85,592	0	1010,72	6,1	8,1	7,9	1	1	1	1	1	1	1	1	1	0	1	-4,862579	273,321982	311,570081	0
15.01.2021	05:50:21	0	0	2,937636	2,57475	15,7932	-0,511	85,596	0	1010,74	6,1	8,1	7,9	1	1	1	1	1	1	1	1	1	0	1	-5,708245	273,435537	311,250609	0
15.01.2021	05:50:22	0	0	2,711664	2,5575	21,7584	-0,503	85,602	0	1010,94	6,1	8,1	7,9	1	1	1	1	1	1	1	1	1	0	1	-1,832276	273,499076	315,421289	0
15.01.2021	05:50:23	0	0	3,841524	2,6715	10,8144	-0,507	85,601	0	1010,92	6,1	8,1	7,9	1	1	1	1	1	1	1	1	1	0	1	-5,567301	273,362152	311,051428	0
15.01.2021	05:50:24	0	0	4,971384	2,7495	22,8204	-0,505	85,598	0	1011,04	6,1	8,1	7,9	1	1	1	1	1	1	1	1	1	0	1	-8,80902	273,354973	307,776447	0
15.01.2021	05:50:25	0	0	4,632426	2,66625	17,2368	-0,51	85,589	0	1010,9	6,1	8,1	7,9	1	1	1	1	1	1	1	1	1	0	1	-6,342495	273,471613	310,783665	0
15.01.2021	05:50:26	0	0	3,276613	2,81175	8,2728	-0,503	85,596	0	1010,88	6,1	8,1	7,8	1	1	1	1	1	1	1	1	1	0	1	-2,959831	273,458618	314,106055	0
15.01.2021	05:50:27	0	0	4,858368	2,81025	16,8336	-0,503	85,592	0	1010,8	6,1	8	8	1	1	1	1	1	1	1	1	1	0	1	-7,117689	273,483172	310,062089	0
15.01.2021	05:50:28	0	0	4,406454	2,835	25,0344	-0,504	85,589	0	1010,88	6,1	8,1	7,9	1	1	1	1	1	1	1	1	1	0	1	-5,778717	273,46728	311,327345	0
15.01.2021	05:50:29	0	0	3,61553	2,72775	23,976	-0,505	85,6	0	1010,94	6,1	8,1	8	1	1	1	1	1	1	1	1	1	0	1	-4,369274	273,507757	312,924571	0
15.01.2021	05:50:30	0	0	3,276594	2,5755	22,4676	-0,503	85,595	0	1010,84	6,1	8,1	7,9	1	1	1	1	1	1	1	1	1	0	1	-0,775194	273,350666	315,790324	0
15.01.2021	05:50:31	0	0	3,95451	2,48625	18,8352	-0,508	85,595	0	1010,9	6,1	8,1	7,9	1	1	1	1	1	1	1	1	1	0	1	-9,302326	273,383707	307,416277	0
15.01.2021	05:50:32	0	0	3,050622	2,43075	15,408	-0,506	85,596	0	1010,92	6,1	8,1	7,9	1	1	1	1	1	1	1	1	1	0	1	-5,708245	273,343491	310,824036	0
15.01.2021	05:50:33	0	0	2,937618	2,4105	22,8384	-0,5	85,601	0	1010,92	6,1	8,1	8	1	1	1	1	1	1	1	1	1	0	1	-10,147992	273,475947	306,99827	0
15.01.2021	05:50:34	0	0	2,598662	2,295	19,2564	-0,504	85,597	0	1010,88	6,1	8,1	8	1	1	1	1	1	1	1	1	1	0	1	-8,245243	273,334885	308,247173	0
15.01.2021	05:50:35	0	0	4,51944	2,3595	29,1168	-0,504	85,586	0	1010,98	6,2	8,1	7,9	1	1	1	1	1	1	1	1	1	0	1	-5,426357	273,474502	311,713203	0
15.01.2021	05:50:36	0	0	4,745412	2,3955	16,47	-0,499	85,591	0	1010,86	6,1	8,1	7,9	1	1	1	1	1	1	1	1	1	0	1	-4,721635	273,380832	311,983643	0
15.01.2021	05:50:37	0	0	2,711664	2,4405	22,0752	-0,5	85,601	0	1010,88	6,1	8,1	7,9	1	1	1	1	1	1	1	1	1	0	1	-9,231853	273,514993	308,095575	0
15.01.2021	05:50:38	0	0	4,406427	2,5035	15,1344	-0,504	85,578	0	1010,92	6,1	8,1	8	1	1	1	1	1	1	1	1	1	0	1	-4,721635	273,415365	312,143695	0
15.01.2021	05:50:39	0	0	4,632398	2,505	21,0276	-0,507	85,576	0	1010,7	6,1	8,1	8	1	1	1	1	1	1	1	1	1	0	1	-5,708245	273,340622	310,810745	0
15.01.2021	05:50:40	0	0	3,163627	2,4615	23,5944	-0,501	85,602	0	1010,9	6,1	8,1	7,8	1	1	1	1	1	1	1	1	1	0	1	-7,82241	273,514993	309,505018	0
15.01.2021	05:50:41	0	0	4,406454	2,31825	16,1064	-0,504	85,598	0	1010,74	6,1	8,1	7,9	1	1	1	1	1	1	1	1	1	0	1	-6,412967	273,431213	310,525837	0
15.01.2021	05:50:42	0	0	4,632398	2,301	23,9508	-0,505	85,594	0	1010,8	6,1	8,1	8	1	1	1	1	1	1	1	1	1	0	1	-6,765328	273,33345	309,720447	0
15.01.2021	05:50:43	0	0	4,180456	2,4195	16,8444	-0,5	85,586	0	1010,78	6,1	8,1	8	1	1	1	1	1	1	1	1	1	0	1	-6,272023	273,499076	310,981543	0
15.01.2021	05:50:44	0	0	2,485677	2,62425	13,5648	-0,507	85,592	0	1010,82	6,1	8,1	8	1	1	1	1	1	1	1	1	1	0	1	-6,412967	273,465836	310,686398	0
15.01.2021	05:50:45	0	0	3,728515	2,8245	6,0624	-0,501	85,601	0	1010,96	6,1	8,1	8	1	1	1	1	1	1	1	1	1	0	1	-3,735025	273,513546	313,585686	0
15.01.2021	05:50:46	0	0	4,745412	2,8755	9,378	-0,497	85,597	0	1010,94	6,1	8,1	7,9	1	1	1	1	1	1	1	1	1	0	1	-4,510218	273,434096	312,441952	0
15.01.2021	05:50:47	0	0	3,38958	2,6355	13,5432	-0,501	85,6	0	1010,92	6,1	8,1	7,9	1	1	1	1	1	1	1	1	1	0	1	-7,963354	273,332016	308,515778	0
15.01.2021	05:50:48	0	0	3,615552	2,40075	7,8876	-0,501	85,6	0	1010,76	6,1	8,1	7,9	1	1	1	1	1	1	1	1	1	0	1	-7,963354	273,432654	308,982132	0
15.01.2021	05:50:49	0	0	2,82465	2,24325	20,6352	-0,502	85,602	0	1010,94	6,1	8,1	7,9	1	1	1	1	1	1	1	1	1	0	1	-9,161381	273,340622	307,357609	0
15.01.2021	05:50:50	0	0	3,163608	2,205	23,2128	-0,505	85,574	0	1010,8	6,1	8,1	7,9	1	1	1	1	1	1	1	1	1	0	1	-8,033827	273,473057	309,099033	0
15.01.2021	05:50:51	0	0	4,406427	2,196	16,1244	-0,504	85,585	0	1010,88	6,1	8,1	8	1	1	1	1	1	1	1	1	1	0	1	-3,171247	273,35928	313,434175	0
15.01.2021	05:50:52	0	0	4,632398	2,259	20,6244	-0,501	85,589	0	1010,84	6,1	8,1	8	1	1	1	1	1	1	1	1	1	0	1	-5,003524	273,33345	311,482251	0
15.01.2021	05:50:53	0	0	3,3896	2,2725	22,4568	-0,504	85,607	0	1010,94	6,1	8,1	7,8	1	1	1	1	1	1	1	1	1	0	1	-5,84919	273,383707	310,869413	0
15.01.2021	05:50:54	0	0	3,38958	2,229	16,8516	-0,501	85,594	0	1010,78	6,1	8,1	7,9	1	1	1	1	1	1	1	1	1	0	1	-6,976744	273,475947	310,169517	0
15.01.2021	05:50:55	0	0	2,711647	2,1585	14,3028	-0,506	85,599	0	1010,82	6,1	8,1	8	1	1	1	1	1	1	1	1	1	0	1	-5,144468	273,50631	312,142663	0
15.01.2021	05:50:56	0	0	2,82465	2,187	9,3672	-0,504	85,58	0	1011,04	6,1	8,1	7,9	1	1	1	1	1	1	1	1	1	0	1	-1,550388	273,356409	315,041731	0
15.01.2021	05:50:57	0	0	3,615552	2,45475	15,4188	-0,511	85,586	0	1010,78	6,1	8,1	7,9	1	1	1	1	1	1	1	1	1	0	1	-2,466526	273,447074	314,545825	0
15.01.2021	05:50:58	0	0	3,502566	2,45175	13,9392	-0,505	85,599	0	1010,96	6,2	8,1	7,9	1	1	1	1	1	1	1	1	1	0	1	-8,80902	273,340622	307,70997	0
15.01.2021	05:50:59	0	0	5,084339	2,5125	20,6244	-0,5	85,598	0	1010,92	6,1	8,1	8	1	1	1	1	1	1	1	1	1	0	1	-5,778717	273,372208	310,886602	0
15.01.2021	05:51:00	0	0	3,163589	2,47875	20,6316	-0,499	85,585	0	1010,76	6,1	8,1	8	1	1	1	1	1	1	1	1	1	0	1	-4,369274	273,329149	312,096578	0
15.01.2021	05:51:01	0	0	4,180456	2,26125	18,4428	-0,499	85,596	0	1010,84	6,1	8,1	8	1	1	1	1	1	1	1	1	1	0	1	-4,369274	273,329149	312,096578	0
15.01.2021	05:51:02	0	0	4,180456	2,26125	18,4428	-0,499	85,596	0	1010,84	6,1	8,1	8	1	1	1	1	1	1	1	1	1	0	1	-6,272023	273,455731	310,780476	0
15.01.2021	05:51:03	0	0	4,180456	2,2755	12,8628	-0,501	85,594	0	1010,9	6,1	8,1	8	1	1	1	1	1	1	1	1	1	0	1	-6,906272	273,481726	310,266801	0
15.01.2021	05:51:04	0	0	2,485677	2,3205	6,0696	-0,501	85,588	0	1010,82	6,1	8,1	8	1	1	1	1	1	1	1	1	1	0	1	-4,721635	273,488953	312,484966	0
15.01.2021	05:51:05	0	0	4,180456	2,259	8,604	-0,502	85,568	0	1010,68	6,1	8,1	8	1	1	1	1	1	1	1	1	1	0	1	-8,104299	273,441305	308,881299	0
15.01.2021	05:51:06	0	0	3,61553	2,091	8,64	-0,505	85,573	0	1010,92	6,1	8,1	8	1	1	1	1	1	1	1	1	1	0	1	-8,104299	273,519337	309,243287	0
15.01.2021	05:51:07	0	0	2,598662	1,8675	3,4056	-0,498	85,586	0	1010,9	6,1	8,1	8	1	1	1	1	1	1	1	1	1	0	1	-4,580691	273,442747	312,411594	0
15.01.2021	05:51:08	0	0	2,937618	1,8255	16,8588	-0,503	85,58	0	1010,84	6,1	8,1	8	1	1	1	1	1	1	1	1	1	0	1	-4,087385	273,357844	312,511385	0
15.01.2021	05:51:09	0	0	4,745383	1,788	35,0856	-0,501	85,575	0	1010,92	6,1	8,1	8	1	1	1	1	1	1	1	1	1	0	1	-9,795631	273,475947	307,350631	0
15.01.2021	05:51:10	0	0	4,406427	1,76325	35,8704	-0,502	85,583	0	1010,82	6,1	8,1	8	1	1	1	1	1	1	1	1	1	0	1	-6,553911	273,452845	310,485202	0
15.01.2021	05:51:11	0	0	3,615573	1,85025	28,8828	-0,502	85,576	0	1010,84	6,1	8,1	7,8	1	1	1	1	1	1	1	1	1	0	1	-2,396054	273,349231	314,162816	0
15.01.2021	05:51:12	0	0	3,163627	1,794	29,9448	-0,498	85,59	0	1010,88	6,1	8,1	7,8	1	1	1	1	1	1	1	1	1	0	1	-1,409443	273,337753	315,096259	0
15.01.2021	05:51:13	0	0	4,971354	1,869	16,4808	-0,503	85,571	0	1010,88	6,1	8,1	8	1	1	1	1	1	1	1	1	1	0	1	-6,20155	273,481726	310,971522	0
15.01.2021	05:51:14	0	0	3,389559	1,98	19,1448	-0,494	85,593	0	1010,84	6,1	8,1	8	1	1	1	1	1	1	1	1	1	0	1	-9,866103	273,393774	306,899154	0
15.01.2021	05:51:15	0	0	4,519412	2,02875	24,3432	-0,498	85,58	0	1010,76	6,2	8,1	8	1	1	1	1	1	1	1	1	1	0	1	-6,976744	273,512098	310,337249	0
15.01.2021	05:51:16	0	0	2,824667	2,05425	30,3228	-0,5	85,558	0	1010,78	6,1	8,1	7,8	1	1	1	1	1	1	1	1	1	0	1	-3,875969	273,522233	313,485058	0
15.01.2021	05:51:17	0	0	2,824633	2,1255	28,7244	-0,497	85,563	0	1010,92	6,2	8,1	8	1	1	1	1	1	1	1	1	1	0	1	-8,245243	273,411045	308,600061	0
15.01.2021	05:51:18	0	0	3,954533	2,12925	25,4196	-0,497	85,573	0	1010,98	6,1	8,1	7,8	1	1	1	1	1	1	1	1	1	0	1	-4,651163	273,35928	311,954259	0
15.01.2021	05:51:19	0	0	4,858427	2,061	36,2304	-0,505	85,568	0	1010,76	6,2	8,1	7,8	1	1	1	1	1	1	1	1	1	0	1	-5,426357	273,439863	311,552554	0
15.01.2021	05:51:20	0	0	3,163589	1,998	23,1984	-0,496	85,579	0	1010,86	6,2	8,1	8	1	1	1	1	1	1	1	1	1	0	1	-6,624383	273,346361	309,921191	0
15.01.2021	05:51:21	0	0	4,519412	2,00325	23,2128	-0,497	85,589	0	1010,96	6,1	8,1	8	1	1	1	1	1	1	1	1	1	0	1	-3,59408	273,517889	313,746785	0
15.01.2021	05:51:22	0	0	3,276613	2,0385	25,0272	-0,496	85,58	0	1010,96	6,1	8,1	7,8	1	1	1	1	1	1	1	1	1	0	1	-9,090909	273,411045	307,754395	0
15.01.2021	05:51:23	0	0	2,937618	2,07825	22,4712	-0,501	85,555	0	1010,8	6,1	8,1	8	1	1	1	1	1	1	1	1	1	0	1	-9,372798	273,504863	307,907619	0
15.01.2021	05:51:24	0	0	4,180456	2,109	23,2128	-0,502	85,568	0	1010,86	6,1	8,1	8	1	1	1	1	1	1	1	1	1	0	1	-0,704722	273,400968	316,093878	0
15.01.2021	05:51:25	0	0	2,711647	2,21625	24,7212	-0,496	85,585	0	1010,86	6,2	8,1	8	1	1	1	1	1	1	1	1	1	0	1	-7,329105	273,344926	309,209822	0
15.01.2021	05:51:26	0	0	3,276574	2,19375	31,4064	-0,498	85,579	0	1011	6,2	8,1	8	1	1	1	1	1	1	1	1	1	0	1	-4,22833	273,37652	312,456966	0
15.01.2021	05:51:27	0	0	4,293442	2,13375	19,5372	-0,499	85,576	0	1010,76	6,2	8,1	8	1	1	1	1	1	1	1	1	1	0	1	-0,140944	273,339187	316,371402	0
15.01.2021	05:51:28	0	0	3,841501	2,145	29,1168	-0,5	85,591	0	1010,84	6,1	8,1	8	1	1	1	1	1	1	1	1	1	0	1	-7,963354	273,490399	309,249954	0
15.01.2021	05:51:29	0	0	2,711647	2,0415	27,27	-0,499	85,574	0	1010,84	6,2	8,1	8	1	1	1	1	1	1	1	1	1	0	1	-3,805497	273,503416	313,468206	0
15.01.2021	05:51:30	0	0	4,632398	1,96125	36,2232	-0,505	85,575	0	1010,88	6,1	8,1	8	1	1	1	1	1	1	1	1	1	0	1	-2,60747	273,340622	313,91152	0
15.01.2021	05:51:31	0	0	2,711647	1,95225	25,4124	-0,503	85,569	0	1010,84	6,1	8,1	8	1	1	1	1	1	1	1	1	1	0	1	-6,412967	273,454288	310,632839	0
15.01.2021	05:51:32	0	0	4,180456	1,9485	29,9412	-0,495	85,583	0	1010,94	6,1	8,1	8	1	1	1	1	1	1	1	1	1	0	1	-5,990134	273,520785	311,364172	0
15.01.2021	05:51:33	0	0	3,276574	2,00925	30,7188	-0,5	85,569	0	1010,8	6,2	8,1	8	1	1	1	1	1	1	1	1	1	0	1	-3,523608	273,392336	313,234982	0
15.01.2021	05:51:34	0	0	5,084339	2,1	27,972	-0,496	85,562	0	1010,9	6,1	8,1	8	1	1	1	1	1	1	1	1	1	0	1	-6,412967	273,344926	310,12596	0
15.01.2021	05:51:35	0	0	4,632398	2,12625	25,7976	-0,495	85,582	0	1010,84	6,1	8,1	8	1	1	1	1	1	1	1	1	1	0	1	-7,540521	273,504863	309,739895	0
15.01.2021	05:51:36	0	0	3,163589	2,409	22,0716	-0,493	85,577	0	1010,9	6,1	8,1	8	1	1	1	1	1	1	1	1	1	0	1	-4,157858	273,462949	312,928114	0
15.01.2021	05:51:37	0	0	4,519412	2,439	7,146	-0,496	85,572	0	1010,8	6,2	8,1	8	1	1	1	1	1	1	1	1	1	0	1	-7,047216	273,514993	310,280212	0
15.01.2021	05:51:38	0	0	5,084339	2,42475	24,336	-0,496	85,556	0	1010,92	6,1	8,1	8	1	1	1	1	1	1	1	1	1	0	1	-6,976744	273,490399	310,236564	0
15.01.2021	05:51:39	0	0	2,71168	2,3535	11,7252	-0,496	85,581	0	1010,94	6,1	8,1	7,8	1	1	1	1	1	1	1	1	1	0	1	-9,302326	273,512098	308,011668	0
15.01.2021	05:51:40	0	0	3,61553	2,53575	3,7728	-0,498	85,567	0	1010,76	6,1	8,1	8	1	1	1	1	1	1	1	1	1	0	1	-5,144468	273,377957	311,547488	0
15.01.2021	05:51:41	0	0	4,745383	2,66175	16,5708	-0,496	85,579	0	1011,02	6,2	8,1	8	1	1	1	1	1	1	1	1	1	0	1	-5,355884	273,513546	311,964826	0
15.01.2021	05:51:42	0	0	5,197324	2,84625	20,9952	-0,494	85,571	0	1010,94	6,2	8,1	8	1	1	1	1	1	1	1	1	1	0	1	-5,21494	273,380832	311,490338	0
15.01.2021	05:51:43	0	0	4,406427	2,7915	10,4472	-0,493	85,572	0	1011,02	6,2	8,1	8	1	1	1	1	1	1	1	1	1	0	1	-7,892882	273,390897	308,859041	0
15.01.2021	05:51:44	0	0	4,180456	2,7435	35,8668	-0,497	85,573	0	1010,86	6,2	8,1	8	1	1	1	1	1	1	1	1	1	0	1	-6,412967	273,344926	310,12596	0
15.01.2021	05:51:45	0	0	4,406427	2,6385	26,8992	-0,494	85,574	0	1010,92	6,2	8,1	8	1	1	1	1	1	1	1	1	1	0	1	-7,82241	273,478836	309,337256	0
15.01.2021	05:51:46	0	0	4,971354	2,53575	21,0096	-0,493	85,58	0	1010,94	6,2	8,1	8	1	1	1	1	1	1	1	1	1	0	1	-8,315715	273,458618	308,75017	0
15.01.2021	05:51:47	0	0	4,293442	2,50425	27,2664	-0,495	85,58	0	1010,92	6,1	8,1	8	1	1	1	1	1	1	1	1	1	0	1	-7,047216	273,516441	310,28693	0
15.01.2021	05:51:48	0	0	3,841501	2,47725	27,3312	-0,499	85,562	0	1010,76	6,2	8,1	8	1	1	1	1	1	1	1	1	1	0	1	-0,070472	273,418245	316,808211	0
15.01.2021	05:51:49	0	0	3,050603	2,39175	25,0272	-0,494	85,58	0	1010,9	6,1	8,1	8	1	1	1	1	1	1	1	1	1	0	1	-1,761804	273,347796	314,790417	0
15.01.2021	05:51:50	0	0	4,406427	2,4075	16,8552	-0,491	85,568	0	1010,9	6,1	8,1	8	1	1	1	1	1	1	1	1	1	0	1	-6,976744	273,380832	309,728534	0
15.01.2021	05:51:51	0	0	4,406427	2,48775	37,2852	-0,492	85,582	0	1010,9	6,1	8,1	8	1	1	1	1	1	1	1	1	1	0	1	-2,536998	273,330583	313,935494	0
15.01.2021	05:51:52	0	0	2,598662	2,43825	32,1516	-0,496	85,57	0	1010,88	6	8,1	8	1	1	1	1	1	1	1	1	1	0	1	-4,651163	273,385145	312,074103	0
15.01.2021	05:51:53	0	0	3,728515	2,4225	30,3264	-0,497	85,566	0	1011,04	6,1	8,1	8	1	1	1	1	1	1	1	1	1	0	1	-7,399577	273,354973	309,18589	0
15.01.2021	05:51:54	0	0	4,745383	2,571	20,2824	-0,5	85,573	0	1010,86	6,2	8,1	8	1	1	1	1	1	1	1	1	1	0	1	-7,117689	273,354973	309,467779	0
15.01.2021	05:51:55	0	0	2,598662	2,6535	16,0992	-0,493	85,581	0	1010,8	6,2	8,1	8	1	1	1	1	1	1	1	1	1	0	1	-1,127555	273,447074	315,884796	0
15.01.2021	05:51:56	0	0	2,824633	2,577	17,7012	-0,498	85,559	0	1010,76	6,1	8,1	8	1	1	1	1	1	1	1	1	1	0	1	-4,721635	273,326282	311,730938	0
15.01.2021	05:51:57	0	0	4,632398	2,5815	17,6976	-0,493	85,563	0	1010,78	6,2	8,1	8	1	1	1	1	1	1	1	1	1	0	1	-3,805497	273,373645	312,866481	0
15.01.2021	05:51:58	0	0	2,824633	2,604	29,1204	-0,494	85,57	0	1011	6,1	8,1	8	1	1	1	1	1	1	1	1	1	0	1	-6,20155	273,516441	311,132596	0
15.01.2021	05:51:59	0	0	4,293442	2,49075	26,946	-0,492	85,561	0	1010,96	6,2	8,1	8	1	1	1	1	1	1	1	1	1	0	1	-4,087385	273,388021	312,651208	0
15.01.2021	05:52:00	0	0	4,180456	2,64825	16,8516	-0,496	85,566	0	1010,82	6,2	8,1	8	1	1	1	1	1	1	1	1	1	0	1	-4,721635	273,481726	312,451438	0
15.01.2021	05:52:01	0	0	3,502545	2,81025	23,5728	-0,495	85,556	0	1010,94	6,1	8,1	8	1	1	1	1	1	1	1	1	1	0	1	-4,721635	273,481726	312,451438	0
15.01.2021	05:52:02	0	0	3,502545	2,81025	23,5728	-0,495	85,556	0	1010,94	6,1	8,1	8	1	1	1	1	1	1	1	1	1	0	1	-6,8358	273,424007	310,069597	0
15.01.2021	05:52:03	0	0	4,632398	2,8365	34,776	-0,498	85,56	0	1011,08	6,2	8,1	8	1	1	1	1	1	1	1	1	1	0	1	-4,721635	273,499076	312,531931	0
15.01.2021	05:52:04	0	0	2,824633	2,87475	24,7284	-0,492	85,568	0	1010,68	6,2	8,1	8	1	1	1	1	1	1	1	1	1	0	1	-4,087385	273,519337	313,2602	0
15.01.2021	05:52:05	0	0	4,745383	2,87925	19,5228	-0,491	85,572	0	1010,86	6,2	8,1	8	1	1	1	1	1	1	1	1	1	0	1	-3,312192	273,517889	314,028674	0
15.01.2021	05:52:06	0	0	4,067471	2,75475	15,7932	-0,493	85,555	0	1010,86	6,2	8,1	8	1	1	1	1	1	1	1	1	1	0	1	-5,144468	273,432654	311,801019	0
15.01.2021	05:52:07	0	0	3,61553	2,748	35,0892	-0,492	85,566	0	1010,86	6,2	8,1	8	1	1	1	1	1	1	1	1	1	0	1	-5,21494	273,352102	311,357227	0
15.01.2021	05:52:08	0	0	2,824633	2,718	19,5192	-0,494	85,565	0	1010,86	6,1	8,1	8	1	1	1	1	1	1	1	1	1	0	1	-11,275546	273,462949	305,810425	0
15.01.2021	05:52:09	0	0	3,841501	2,64375	12,4632	-0,488	85,563	0	1011	6,2	8,1	8	1	1	1	1	1	1	1	1	1	0	1	-1,550388	273,514993	315,777041	0
15.01.2021	05:52:10	0	0	3,502545	2,73675	24,7176	-0,489	85,562	0	1011,14	6,2	8,1	8	1	1	1	1	1	1	1	1	1	0	1	-6,131078	273,344926	310,407849	0
15.01.2021	05:52:11	0	0	4,519412	2,85225	13,5324	-0,494	85,559	0	1010,92	6,1	8,1	8	1	1	1	1	1	1	1	1	1	0	1	-1,409443	273,457175	315,649748	0
15.01.2021	05:52:12	0	0	2,937618	2,991	15,4008	-0,487	85,551	0	1010,88	6,1	8,1	8	1	1	1	1	1	1	1	1	1	0	1	-3,171247	273,509204	314,129313	0
15.01.2021	05:52:13	0	0	4,632398	2,98575	22,8456	-0,494	85,559	0	1010,94	6,2	8,1	8	1	1	1	1	1	1	1	1	1	0	1	-6,342495	273,475947	310,803767	0
15.01.2021	05:52:14	0	0	4,519412	2,8245	21,0204	-0,49	85,552	0	1010,88	6,2	8,1	8	1	1	1	1	1	1	1	1	1	0	1	-2,536998	273,462949	314,548974	0
15.01.2021	05:52:15	0	0	4,293442	2,868	25,812	-0,492	85,548	0	1010,98	6,2	8,1	8	1	1	1	1	1	1	1	1	1	0	1	-1,057082	273,342057	315,468553	0
15.01.2021	05:52:16	0	0	4,293442	2,91525	9,378	-0,483	85,548	0	1010,72	6,1	8,1	8	1	1	1	1	1	1	1	1	1	0	1	-4,933051	273,451402	312,09937	0
15.01.2021	05:52:17	0	0	2,711647	2,88375	8,2656	-0,489	85,55	0	1010,78	6,2	8,1	8	1	1	1	1	1	1	1	1	1	0	1	-1,409443	273,504863	315,870973	0
15.01.2021	05:52:18	0	0	4,067471	2,793	14,292	-0,494	85,546	0	1010,82	6,1	8,1	8	1	1	1	1	1	1	1	1	1	0	1	-5,919662	273,483172	311,260115	0
15.01.2021	05:52:19	0	0	5,31031	2,799	21,0096	-0,486	85,538	0	1010,84	6,1	8,1	8	1	1	1	1	1	1	1	1	1	0	1	-5,355884	273,517889	311,984981	0
15.01.2021	05:52:20	0	0	3,61553	2,7135	19,8936	-0,488	85,547	0	1010,92	6,2	8,1	8	1	1	1	1	1	1	1	1	1	0	1	-1,973221	273,500522	315,287057	0
15.01.2021	05:52:21	0	0	4,519412	2,6535	18,4536	-0,489	85,548	0	1010,84	6,2	8,1	8	1	1	1	1	1	1	1	1	1	0	1	-5,567301	273,447074	311,44505	0
15.01.2021	05:52:22	0	0	2,598662	2,739	22,8348	-0,487	85,528	0	1010,74	6,2	8,1	8	1	1	1	1	1	1	1	1	1	0	1	-3,312192	273,342057	313,213444	0
15.01.2021	05:52:23	0	0	4,971354	2,871	27,6552	-0,488	85,541	0	1010,9	6,2	8,1	8	1	1	1	1	1	1	1	1	1	0	1	-3,735025	273,455731	313,317474	0
15.01.2021	05:52:24	0	0	2,485677	2,946	29,412	-0,487	85,542	0	1010,92	6,2	8,1	8	1	1	1	1	1	1	1	1	1	0	1	-3,312192	273,50631	313,974939	0
15.01.2021	05:52:25	0	0	4,519412	2,973	18,828	-0,49	85,535	0	1010,82	6,2	8,1	8	1	1	1	1	1	1	1	1	1	0	1	-4,792107	273,490399	312,421201	0
15.01.2021	05:52:26	0	0	4,180456	2,95875	22,8456	-0,485	85,547	0	1010,86	6,2	8,1	8	1	1	1	1	1	1	1	1	1	0	1	-6,694856	273,372208	309,970464	0
15.01.2021	05:52:27	0	0	5,084339	2,7945	19,5336	-0,487	85,537	0	1010,88	6,2	8,1	8	1	1	1	1	1	1	1	1	1	0	1	-7,047216	273,530924	310,354149	0
15.01.2021	05:52:28	0	0	3,61553	2,76	21,7548	-0,486	85,537	0	1010,84	6,1	8,1	8	1	1	1	1	1	1	1	1	1	0	1	-5,144468	273,416805	311,727538	0
15.01.2021	05:52:29	0	0	4,180456	2,6415	22,086	-0,488	85,533	0	1010,96	6,2	8,1	8	1	1	1	1	1	1	1	1	1	0	1	-4,651163	273,346361	311,894411	0
15.01.2021	05:52:30	0	0	3,728515	2,49075	15,4008	-0,487	85,518	0	1011,02	6,1	8,1	8	1	1	1	1	1	1	1	1	1	0	1	-6,412967	273,365025	310,21907	0
15.01.2021	05:52:31	0	0	4,745383	2,361	26,19	-0,485	85,543	0	1010,92	6,2	8,1	8	1	1	1	1	1	1	1	1	1	0	1	-4,157858	273,408165	312,674099	0
15.01.2021	05:52:32	0	0	2,824633	2,271	27,6444	-0,485	85,537	0	1010,92	6,2	8,1	8	1	1	1	1	1	1	1	1	1	0	1	-3,805497	273,507757	313,488348	0
15.01.2021	05:52:33	0	0	3,841501	2,115	22,842	-0,487	85,518	0	1010,84	6,1	8,1	8	1	1	1	1	1	1	1	1	1	0	1	-3,875969	273,425448	313,036108	0
15.01.2021	05:52:34	0	0	2,937618	2,02125	20,6172	-0,486	85,521	0	1010,88	6,1	8,1	8	1	1	1	1	1	1	1	1	1	0	1	-0,916138	273,337753	315,589564	0
15.01.2021	05:52:35	0	0	4,293442	1,96275	21,0132	-0,488	85,517	0	1011,04	6,2	8,1	8	1	1	1	1	1	1	1	1	1	0	1	-7,610994	273,438421	309,361231	0
15.01.2021	05:52:36	0	0	4,971354	2,0085	23,22	-0,49	85,525	0	1010,7	6,2	8,1	8	1	1	1	1	1	1	1	1	1	0	1	-6,342495	273,488953	310,864106	0
15.01.2021	05:52:37	0	0	2,824633	2,03925	23,2164	-0,487	85,53	0	1010,94	6,1	8,1	8	1	1	1	1	1	1	1	1	1	0	1	-1,479915	273,347796	315,072306	0
15.01.2021	05:52:38	0	0	3,050603	1,94325	23,9724	-0,486	85,536	0	1010,82	6,2	8,1	8	1	1	1	1	1	1	1	1	1	0	1	-8,738548	273,475947	308,407713	0
15.01.2021	05:52:39	0	0	3,163589	1,92825	12,7944	-0,484	85,529	0	1010,8	6,2	8,1	8	1	1	1	1	1	1	1	1	1	0	1	-2,748414	273,346361	313,79716	0
15.01.2021	05:52:40	0	0	3,276574	1,959	17,694	-0,486	85,528	0	1010,84	6,1	8,1	8	1	1	1	1	1	1	1	1	1	0	1	-4,298802	273,390897	312,453122	0
15.01.2021	05:52:41	0	0	4,067471	2,0865	5,2272	-0,487	85,538	0	1010,9	6,2	8,1	8	1	1	1	1	1	1	1	1	1	0	1	-5,637773	273,39809	311,147487	0
15.01.2021	05:52:42	0	0	3,61553	2,2935	18,4572	-0,487	85,538	0	1010,96	6,2	8,1	8	1	1	1	1	1	1	1	1	1	0	1	-4,580691	273,528027	312,807226	0
15.01.2021	05:52:43	0	0	2,937618	2,3985	12,0996	-0,484	85,537	0	1011	6,1	8,1	8	1	1	1	1	1	1	1	1	1	0	1	-3,523608	273,406726	313,301676	0
15.01.2021	05:52:44	0	0	3,276574	2,60625	13,1904	-0,488	85,535	0	1010,74	6,2	8,1	8	1	1	1	1	1	1	1	1	1	0	1	-2,60747	273,507757	314,686375	0
15.01.2021	05:52:45	0	0	3,728515	2,5515	18,8424	-0,482	85,527	0	1010,88	6,2	8,1	8	1	1	1	1	1	1	1	1	1	0	1	-4,016913	273,375082	312,661723	0
15.01.2021	05:52:46	0	0	3,954486	2,54475	34,3368	-0,485	85,524	0	1010,92	6,1	8,1	8	1	1	1	1	1	1	1	1	1	0	1	-5,285412	273,412484	311,566567	0
15.01.2021	05:52:47	0	0	2,711647	2,54475	23,5908	-0,485	85,526	0	1010,8	6,2	8,1	8	1	1	1	1	1	1	1	1	1	0	1	-0,704722	273,347796	315,8475	0
15.01.2021	05:52:48	0	0	5,31031	2,41575	28,7136	-0,486	85,524	0	1010,94	6,2	8,1	8	1	1	1	1	1	1	1	1	1	0	1	-5,637773	273,484617	311,548709	0
15.01.2021	05:52:49	0	0	4,293442	2,19375	26,5176	-0,48	85,528	0	1010,96	6,2	8,1	8	1	1	1	1	1	1	1	1	1	0	1	-8,174771	273,499076	309,078795	0
15.01.2021	05:52:50	0	0	4,519412	2,15175	30,3084	-0,487	85,526	0	1011,06	6	8,1	8	1	1	1	1	1	1	1	1	1	0	1	-7,82241	273,409605	309,01622	0
15.01.2021	05:52:51	0	0	4,971354	2,33025	19,5336	-0,482	85,532	0	1010,82	6,1	8,1	8	1	1	1	1	1	1	1	1	1	0	1	-5,426357	273,514993	311,901072	0
15.01.2021	05:52:52	0	0	3,502545	2,33625	36,2196	-0,487	85,516	0	1010,92	6,1	8,1	8	1	1	1	1	1	1	1	1	1	0	1	-3,59408	273,379394	313,104536	0
15.01.2021	05:52:53	0	0	3,276574	2,20875	34,7076	-0,487	85,516	0	1010,86	6,1	8,1	8	1	1	1	1	1	1	1	1	1	0	1	-5,84919	273,372208	310,81613	0
15.01.2021	05:52:54	0	0	2,146721	2,1735	31,7664	-0,48	85,523	0	1010,88	6,2	8,1	8	1	1	1	1	1	1	1	1	1	0	1	-5,708245	273,517889	311,632621	0
15.01.2021	05:52:55	0	0	4,067471	2,1165	33,6492	-0,487	85,518	0	1010,78	6,2	8,1	8	1	1	1	1	1	1	1	1	1	0	1	-5,990134	273,486062	311,203054	0
15.01.2021	05:52:56	0	0	2,824633	2,09325	25,4304	-0,487	85,533	0	1010,98	6,2	8,1	8	1	1	1	1	1	1	1	1	1	0	1	-4,580691	273,523681	312,787058	0
15.01.2021	05:52:57	0	0	4,293442	2,259	28,35	-0,488	85,524	0	1011	6,1	8,1	8	1	1	1	1	1	1	1	1	1	0	1	-4,369274	273,496183	312,87087	0
15.01.2021	05:52:58	0	0	2,598662	2,38575	11,2068	-0,483	85,528	0	1010,88	6,1	8,1	8	1	1	1	1	1	1	1	1	1	0	1	-6,060606	273,510651	311,246671	0
15.01.2021	05:52:59	0	0	3,728515	2,34675	9,0072	-0,484	85,528	0	1010,92	6,2	8,1	8	1	1	1	1	1	1	1	1	1	0	1	-4,510218	273,504863	312,770198	0
15.01.2021	05:53:00	0	0	4,858368	2,17275	15,7824	-0,484	85,515	0	1011,02	6,1	8,1	8	1	1	1	1	1	1	1	1	1	0	1	-0,493305	273,477391	316,659658	0
15.01.2021	05:53:01	0	0	4,858368	2,17275	15,7824	-0,484	85,515	0	1011,02	6,1	8,1	8	1	1	1	1	1	1	1	1	1	0	1	-0,493305	273,477391	316,659658	0
15.01.2021	05:53:02	0	0	2,711647	1,99575	14,3064	-0,487	85,531	0	1010,86	6,1	8,1	8	1	1	1	1	1	1	1	1	1	0	1	-2,114165	273,514993	315,213263	0
15.01.2021	05:53:03	0	0	4,745383	1,91775	22,4604	-0,485	85,515	0	1010,72	6,2	8,1	8	1	1	1	1	1	1	1	1	1	0	1	-1,973221	273,354973	314,612247	0
15.01.2021	05:53:04	0	0	4,293442	1,845	19,9116	-0,482	85,524	0	1010,86	6,2	8,1	8	1	1	1	1	1	1	1	1	1	0	1	-6,060606	273,412484	310,791373	0
15.01.2021	05:53:05	0	0	4,293442	1,8135	19,152	-0,491	85,524	0	1010,82	6,2	8,1	8	1	1	1	1	1	1	1	1	1	0	1	-2,536998	273,519337	314,810588	0
15.01.2021	05:53:06	0	0	3,841501	1,9095	10,0728	-0,488	85,514	0	1010,74	6,1	8,1	8	1	1	1	1	1	1	1	1	1	0	1	-2,818887	273,412484	314,033092	0
15.01.2021	05:53:07	0	0	2,372692	2,2125	12,0996	-0,483	85,506	0	1010,82	6,2	8,1	8	1	1	1	1	1	1	1	1	1	0	1	-3,664553	273,352102	312,907615	0
15.01.2021	05:53:08	0	0	4,745383	2,5485	17,6976	-0,485	85,517	0	1010,72	6,1	8,1	8	1	1	1	1	1	1	1	1	1	0	1	-10,147992	273,411045	306,697313	0
15.01.2021	05:53:09	0	0	2,598678	2,91225	7,6428	-0,483	85,534	0	1010,86	6,2	8,1	7,9	1	1	1	1	1	1	1	1	1	0	1	-7,470049	273,530924	309,931316	0
15.01.2021	05:53:10	0	0	3,954486	3,045	21,3948	-0,483	85,506	0	1010,88	6,1	8,1	8	1	1	1	1	1	1	1	1	1	0	1	-7,681466	273,369335	308,970539	0
15.01.2021	05:53:11	0	0	3,841501	3,225	26,9208	-0,479	85,515	0	1010,82	6,2	8,1	8	1	1	1	1	1	1	1	1	1	0	1	-6,765328	273,465836	310,334037	0
15.01.2021	05:53:12	0	0	4,745383	3,246	20,286	-0,48	85,523	0	1011,02	6,1	8,1	8	1	1	1	1	1	1	1	1	1	0	1	-7,610994	273,528027	309,776923	0
15.01.2021	05:53:13	0	0	4,067471	3,366	24,7032	-0,479	85,538	0	1011	6,1	8,2	8	1	1	1	1	1	1	1	1	1	0	1	-8,949965	273,486062	308,243223	0
15.01.2021	05:53:14	0	0	3,954486	3,32625	12,1068	-0,481	85,522	0	1010,94	6,1	8,1	8	1	1	1	1	1	1	1	1	1	0	1	-4,439746	273,501969	312,827243	0
15.01.2021	05:53:15	0	0	3,728515	3,3345	31,7736	-0,488	85,518	0	1010,88	6,1	8,1	8	1	1	1	1	1	1	1	1	1	0	1	-7,610994	273,519337	309,736592	0
15.01.2021	05:53:16	0	0	4,971354	3,1755	26,982	-0,483	85,525	0	1010,76	6,1	8,1	8	1	1	1	1	1	1	1	1	1	0	1	-0,845666	273,519337	316,50192	0
15.01.2021	05:53:17	0	0	3,163589	2,95575	43,29	-0,486	85,527	0	1010,78	6,1	8,1	8	1	1	1	1	1	1	1	1	1	0	1	-5,285412	273,449959	311,740318	0
15.01.2021	05:53:18	0	0	4,632398	2,82375	35,8524	-0,488	85,52	0	1010,84	6,1	8,1	8	1	1	1	1	1	1	1	1	1	0	1	-3,312192	273,539619	314,129534	0
15.01.2021	05:53:19	0	0	4,519412	2,8215	21,7728	-0,483	85,521	0	1010,82	6,1	8,2	8	1	1	1	1	1	1	1	1	1	0	1	-7,610994	273,422567	309,287724	0
15.01.2021	05:53:20	0	0	2,485692	2,96925	25,0236	-0,485	85,525	0	1010,66	6,1	8,1	7,9	1	1	1	1	1	1	1	1	1	0	1	-2,043693	273,353537	314,535124	0
15.01.2021	05:53:21	0	0	4,745383	2,922	22,8348	-0,48	85,511	0	1010,78	6,1	8,2	8	1	1	1	1	1	1	1	1	1	0	1	-5,21494	273,49763	312,031915	0
15.01.2021	05:53:22	0	0	4,632398	2,661	32,1444	-0,483	85,509	0	1010,96	6,1	8,1	8	1	1	1	1	1	1	1	1	1	0	1	-7,188161	273,452845	309,850953	0
15.01.2021	05:53:23	0	0	2,033748	2,52	24,3432	-0,479	85,515	0	1010,98	6,1	8,1	7,9	1	1	1	1	1	1	1	1	1	0	1	-6,976744	273,510651	310,330532	0
15.01.2021	05:53:24	0	0	4,858368	2,32875	12,8556	-0,488	85,504	0	1011,02	6,1	8,1	8	1	1	1	1	1	1	1	1	1	0	1	-2,466526	273,477391	314,686438	0
15.01.2021	05:53:25	0	0	3,050603	2,31225	22,8168	-0,483	85,515	0	1010,76	6,1	8,1	8	1	1	1	1	1	1	1	1	1	0	1	-3,875969	273,461505	313,203307	0
15.01.2021	05:53:26	0	0	4,180456	2,643	24,3396	-0,479	85,502	0	1011,04	6,1	8,2	8	1	1	1	1	1	1	1	1	1	0	1	-3,312192	273,516441	314,021955	0
15.01.2021	05:53:27	0	0	3,728493	2,982	25,4232	-0,482	85,502	0	1010,86	6,1	8,1	8,1	1	1	1	1	1	1	1	1	1	0	1	-4,157858	273,486062	313,03533	0
15.01.2021	05:53:28	0	0	2,598662	3,05625	23,5908	-0,482	85,524	0	1010,92	6,1	8,2	8	1	1	1	1	1	1	1	1	1	0	1	-6,765328	273,478836	310,394338	0
15.01.2021	05:53:29	0	0	4,406427	3,23025	22,4568	-0,484	85,49	0	1010,76	6,1	8,1	8	1	1	1	1	1	1	1	1	1	0	1	-1,902748	273,342057	314,622887	0
15.01.2021	05:53:30	0	0	2,711647	3,19275	19,5084	-0,481	85,508	0	1010,9	6,1	8,1	8	1	1	1	1	1	1	1	1	1	0	1	-1,902748	273,451402	315,129673	0
15.01.2021	05:53:31	0	0	3,050603	3,39975	26,1612	-0,479	85,504	0	1010,96	6,1	8,1	8	1	1	1	1	1	1	1	1	1	0	1	-1,761804	273,356409	314,830314	0
15.01.2021	05:53:32	0	0	3,954486	3,35925	21,3948	-0,482	85,503	0	1010,84	6,1	8,1	8	1	1	1	1	1	1	1	1	1	0	1	-5,355884	273,514993	311,971544	0
15.01.2021	05:53:33	0	0	5,53628	3,0225	25,4052	-0,485	85,484	0	1010,84	6,1	8,1	8	1	1	1	1	1	1	1	1	1	0	1	-2,536998	273,448517	314,482042	0
15.01.2021	05:53:34	0	0	4,519412	2,97525	10,0728	-0,481	85,505	0	1010,88	6,1	8,2	8	1	1	1	1	1	1	1	1	1	0	1	-5,990134	273,357844	310,608636	0
15.01.2021	05:53:35	0	0	4,180456	2,901	25,5096	-0,475	85,497	0	1010,88	6,1	8,1	8	1	1	1	1	1	1	1	1	1	0	1	-8,949965	273,438421	308,02226	0
15.01.2021	05:53:36	0	0	4,519412	3,003	23,9652	-0,479	85,508	0	1010,9	6,1	8,2	8	1	1	1	1	1	1	1	1	1	0	1	-7,258633	273,356409	309,333486	0
15.01.2021	05:53:37	0	0	2,485677	3,08325	23,5872	-0,477	85,497	0	1010,92	6,1	8,1	8	1	1	1	1	1	1	1	1	1	0	1	-4,087385	273,363589	312,537997	0
15.01.2021	05:53:38	0	0	3,728538	2,79675	35,4816	-0,485	85,505	0	1010,96	6,1	8,2	7,9	1	1	1	1	1	1	1	1	1	0	1	-7,610994	273,478836	309,548672	0
15.01.2021	05:53:39	0	0	4,067496	2,66775	27,9756	-0,484	85,505	0	1010,84	6,1	8,2	7,9	1	1	1	1	1	1	1	1	1	0	1	-2,466526	273,53817	314,968471	0
15.01.2021	05:53:40	0	0	2,82465	2,5905	31,4028	-0,48	85,487	0	1010,9	6,1	8,1	7,9	1	1	1	1	1	1	1	1	1	0	1	-9,936575	273,413924	306,922079	0
15.01.2021	05:53:41	0	0	4,293442	2,79675	23,3244	-0,477	85,494	0	1010,88	6,1	8,1	8	1	1	1	1	1	1	1	1	1	0	1	-8,527132	273,514993	308,800297	0
15.01.2021	05:53:42	0	0	3,050603	2,898	23,5764	-0,48	85,476	0	1010,78	6,1	8,1	8	1	1	1	1	1	1	1	1	1	0	1	-5,144468	273,395213	311,627456	0
15.01.2021	05:53:43	0	0	2,824633	2,847	32,1552	-0,481	85,476	0	1010,8	6,1	8,2	8	1	1	1	1	1	1	1	1	1	0	1	-6,624383	273,405286	310,194229	0
15.01.2021	05:53:44	0	0	3,841501	2,7285	26,5284	-0,483	85,493	0	1010,88	6,1	8,2	8	1	1	1	1	1	1	1	1	1	0	1	-9,161381	273,533822	308,253435	0
15.01.2021	05:53:45	0	0	5,084339	2,7225	19,1592	-0,479	85,488	0	1010,96	6,1	8,1	8	1	1	1	1	1	1	1	1	1	0	1	-5,708245	273,480281	311,458124	0
15.01.2021	05:53:46	0	0	3,276574	2,64975	21,7728	-0,479	85,497	0	1010,96	6,1	8,1	8	1	1	1	1	1	1	1	1	1	0	1	-2,184637	273,360716	314,427438	0
15.01.2021	05:53:47	0	0	5,197324	2,637	13,1724	-0,482	85,495	0	1010,9	6,1	8,2	8	1	1	1	1	1	1	1	1	1	0	1	-4,651163	273,517889	312,689703	0
15.01.2021	05:53:48	0	0	4,971354	2,814	17,6904	-0,48	85,483	0	1010,92	6,1	8,1	8	1	1	1	1	1	1	1	1	1	0	1	-6,694856	273,460061	310,377725	0
15.01.2021	05:53:49	0	0	2,9376	3,03525	19,1448	-0,485	85,476	0	1010,68	6,2	8,2	8,1	1	1	1	1	1	1	1	1	1	0	1	-4,862579	273,514993	312,464849	0
15.01.2021	05:53:50	0	0	4,180482	2,982	17,6904	-0,477	85,482	0	1010,96	6,1	8,2	7,9	1	1	1	1	1	1	1	1	1	0	1	-7,258633	273,49763	309,988222	0
15.01.2021	05:53:51	0	0	4,858398	3,123	19,1376	-0,479	85,473	0	1011,02	6,1	8,2	7,9	1	1	1	1	1	1	1	1	1	0	1	-4,016913	273,415365	312,848416	0
15.01.2021	05:53:52	0	0	2,711647	2,95275	19,5264	-0,485	85,489	0	1010,94	6,1	8,2	8	1	1	1	1	1	1	1	1	1	0	1	-2,043693	273,334885	314,448724	0
15.01.2021	05:53:53	0	0	4,067496	2,7435	22,8312	-0,48	85,478	0	1010,96	6,1	8,2	7,9	1	1	1	1	1	1	1	1	1	0	1	-3,664553	273,411045	313,180752	0
15.01.2021	05:53:54	0	0	3,050622	2,59575	19,5372	-0,482	85,485	0	1010,88	6,1	8,2	7,9	1	1	1	1	1	1	1	1	1	0	1	-7,329105	273,380832	309,376173	0
15.01.2021	05:53:55	0	0	3,276594	2,54775	29,9592	-0,481	85,484	0	1010,86	6,1	8,2	7,9	1	1	1	1	1	1	1	1	1	0	1	-6,060606	273,339187	310,45174	0
15.01.2021	05:53:56	0	0	3,276574	2,59725	17,3448	-0,479	85,486	0	1010,9	6,1	8,1	8	1	1	1	1	1	1	1	1	1	0	1	-5,426357	273,424007	311,479041	0
15.01.2021	05:53:57	0	0	4,293468	2,74125	21,7872	-0,482	85,477	0	1010,88	6	8,1	7,9	1	1	1	1	1	1	1	1	1	0	1	-5,073996	273,532373	312,334094	0
15.01.2021	05:53:58	0	0	2,824633	2,8125	20,6532	-0,477	85,478	0	1010,82	6,1	8,1	8	1	1	1	1	1	1	1	1	1	0	1	-6,272023	273,413924	310,586631	0
15.01.2021	05:53:59	0	0	2,711664	2,63325	23,9724	-0,479	85,488	0	1010,84	6,1	8,2	7,9	1	1	1	1	1	1	1	1	1	0	1	-6,483439	273,517889	310,857427	0
15.01.2021	05:54:00	0	0	4,632426	2,379	35,0892	-0,484	85,478	0	1010,76	6,1	8,2	7,9	1	1	1	1	1	1	1	1	1	0	1	-7,258633	273,470169	309,860827	0
15.01.2021	05:54:01	0	0	4,632426	2,379	35,0892	-0,484	85,478	0	1010,76	6,1	8,2	7,9	1	1	1	1	1	1	1	1	1	0	1	-7,258633	273,470169	309,860827	0
15.01.2021	05:54:02	0	0	5,084339	2,241	34,7004	-0,477	85,48	0	1010,92	6,1	8,1	8	1	1	1	1	1	1	1	1	1	0	1	-4,369274	273,523681	312,998474	0
15.01.2021	05:54:03	0	0	4,745412	2,19	24,4404	-0,482	85,476	0	1010,9	6,1	8,2	7,9	1	1	1	1	1	1	1	1	1	0	1	-0	273,385145	316,725265	0
15.01.2021	05:54:04	0	0	3,050603	2,18325	28,3572	-0,482	85,464	0	1010,86	6,1	8,1	8	1	1	1	1	1	1	1	1	1	0	1	-2,325581	273,500522	314,934696	0
15.01.2021	05:54:05	0	0	3,389559	2,334	16,0812	-0,481	85,485	0	1010,84	6,1	8,1	8	1	1	1	1	1	1	1	1	1	0	1	-8,315715	273,383707	308,402887	0
15.01.2021	05:54:06	0	0	3,389559	2,4045	14,3028	-0,482	85,464	0	1010,8	6,1	8,2	8	1	1	1	1	1	1	1	1	1	0	1	-8,597604	273,388021	308,140989	0
15.01.2021	05:54:07	0	0	4,293468	2,42025	18,8208	-0,479	85,472	0	1010,86	6,1	8,2	7,9	1	1	1	1	1	1	1	1	1	0	1	-8,738548	273,529475	308,656092	0
15.01.2021	05:54:08	0	0	2,485692	2,3745	16,848	-0,475	85,45	0	1010,84	6,1	8,2	7,9	1	1	1	1	1	1	1	1	1	0	1	-7,540521	273,449959	309,485209	0
15.01.2021	05:54:09	0	0	2,937636	2,33925	19,5372	-0,478	85,465	0	1010,88	6,1	8,2	7,9	1	1	1	1	1	1	1	1	1	0	1	-1,550388	273,347796	315,001834	0
15.01.2021	05:54:10	0	0	3,502566	2,30925	17,2512	-0,475	85,469	0	1010,9	6,1	8,1	7,9	1	1	1	1	1	1	1	1	1	0	1	-8,879493	273,393774	307,885764	0
15.01.2021	05:54:11	0	0	2,711664	2,39475	18,8424	-0,476	85,47	0	1010,9	6,1	8,2	7,9	1	1	1	1	1	1	1	1	1	0	1	-4,087385	273,388021	312,651208	0
15.01.2021	05:54:12	0	0	5,31031	2,49	16,4844	-0,48	85,466	0	1010,86	6,1	8,2	8	1	1	1	1	1	1	1	1	1	0	1	-6,483439	273,52513	310,891031	0
15.01.2021	05:54:13	0	0	4,293468	2,58375	14,3028	-0,472	85,476	0	1010,86	6,1	8,2	7,9	1	1	1	1	1	1	1	1	1	0	1	-3,946441	273,454288	313,099364	0
15.01.2021	05:54:14	0	0	4,971354	2,76075	5,238	-0,472	85,466	0	1010,86	6,1	8	8	1	1	1	1	1	1	1	1	1	0	1	-5,426357	273,514993	311,901072	0
15.01.2021	05:54:15	0	0	4,971384	2,889	21,3768	-0,473	85,467	0	1010,86	6,1	8,1	7,9	1	1	1	1	1	1	1	1	1	0	1	-5,003524	273,491845	312,216493	0
15.01.2021	05:54:16	0	0	5,084339	2,865	19,8972	-0,479	85,474	0	1010,82	6,1	8,1	8	1	1	1	1	1	1	1	1	1	0	1	-6,624383	273,439863	310,354528	0
15.01.2021	05:54:17	0	0	3,163608	3,141	32,5152	-0,48	85,467	0	1010,82	6,1	8,2	7,9	1	1	1	1	1	1	1	1	1	0	1	-4,651163	273,347796	311,901059	0
15.01.2021	05:54:18	0	0	2,937636	3,216	35,8632	-0,475	85,467	0	1010,64	6,1	8,2	7,9	1	1	1	1	1	1	1	1	1	0	1	-4,510218	273,405286	312,308394	0
15.01.2021	05:54:19	0	0	4,745383	3,83775	31,392	-0,477	85,471	0	1010,8	6,1	8,2	8	1	1	1	1	1	1	1	1	1	0	1	-4,22833	273,385145	312,496936	0
15.01.2021	05:54:20	0	0	3,38958	4,28325	44,0244	-0,476	85,473	0	1010,74	6,1	8,2	7,9	1	1	1	1	1	1	1	1	1	0	1	-0,422833	273,385145	316,302432	0
15.01.2021	05:54:21	0	0	4,406427	3,978	39,564	-0,471	85,481	0	1010,92	6,1	8,2	8	1	1	1	1	1	1	1	1	1	0	1	-5,567301	273,499076	311,686265	0
15.01.2021	05:54:22	0	0	2,82465	3,49125	29,9448	-0,475	85,486	0	1010,76	6,1	8,1	7,9	1	1	1	1	1	1	1	1	1	0	1	-6,483439	273,370771	310,175223	0
15.01.2021	05:54:23	0	0	4,293416	2,9745	16,4844	-0,473	85,474	0	1010,76	6,1	8,1	8,1	1	1	1	1	1	1	1	1	1	0	1	-5,21494	273,441305	311,770658	0
15.01.2021	05:54:24	0	0	2,598662	3,0105	18,4572	-0,472	85,469	0	1010,84	6,1	8,1	8	1	1	1	1	1	1	1	1	1	0	1	-4,439746	273,354973	312,145721	0
15.01.2021	05:54:25	0	0	4,971384	3,25275	14,2956	-0,475	85,451	0	1010,92	6,1	8,2	7,9	1	1	1	1	1	1	1	1	1	0	1	-4,651163	273,471613	312,474996	0
15.01.2021	05:54:26	0	0	2,372692	3,588	18,09	-0,472	85,468	0	1010,8	6,1	8,1	8	1	1	1	1	1	1	1	1	1	0	1	-6,553911	273,369335	310,098093	0
15.01.2021	05:54:27	0	0	3,163608	3,714	24,7392	-0,476	85,457	0	1010,76	6,1	8,2	7,9	1	1	1	1	1	1	1	1	1	0	1	-5,778717	273,354973	310,80675	0
15.01.2021	05:54:28	0	0	3,163608	3,68025	22,842	-0,474	85,456	0	1010,9	6,1	8,2	7,9	1	1	1	1	1	1	1	1	1	0	1	-3,523608	273,392336	313,234982	0
15.01.2021	05:54:29	0	0	4,180482	3,714	24,732	-0,477	85,468	0	1010,9	6,1	8,1	7,9	1	1	1	1	1	1	1	1	1	0	1	-5,003524	273,334885	311,488893	0
15.01.2021	05:54:30	0	0	3,95451	3,73725	22,8384	-0,477	85,44	0	1011,02	6,1	8,2	7,9	1	1	1	1	1	1	1	1	1	0	1	-1,761804	273,402407	315,043465	0
15.01.2021	05:54:31	0	0	3,841524	3,66375	22,8456	-0,477	85,457	0	1010,74	6,1	8	7,9	1	1	1	1	1	1	1	1	1	0	1	-4,22833	273,499076	313,025236	0
15.01.2021	05:54:32	0	0	4,180456	3,91725	23,5836	-0,476	85,452	0	1010,76	6,1	8,2	8	1	1	1	1	1	1	1	1	1	0	1	-5,355884	273,462949	311,730087	0
15.01.2021	05:54:33	0	0	2,937636	3,8865	17,334	-0,471	85,461	0	1010,88	6,1	8,1	7,9	1	1	1	1	1	1	1	1	1	0	1	-4,439746	273,526578	312,941447	0
15.01.2021	05:54:34	0	0	4,406454	3,52125	24,3396	-0,474	85,458	0	1010,98	6,1	8,1	7,9	1	1	1	1	1	1	1	1	1	0	1	-6,553911	273,530924	310,847454	0
15.01.2021	05:54:35	0	0	4,632398	3,378	25,7868	-0,48	85,45	0	1010,8	6,1	8,2	8	1	1	1	1	1	1	1	1	1	0	1	-4,933051	273,483172	312,246726	0
15.01.2021	05:54:36	0	0	4,406427	3,198	11,7288	-0,479	85,46	0	1010,82	6,1	8,1	8	1	1	1	1	1	1	1	1	1	0	1	-10,570825	273,460061	306,501756	0
15.01.2021	05:54:37	0	0	4,406454	3,15075	8,28	-0,474	85,441	0	1010,92	6,1	8,2	7,9	1	1	1	1	1	1	1	1	1	0	1	-5,637773	273,372208	311,027546	0
15.01.2021	05:54:38	0	0	3,389559	3,16575	10,0692	-0,476	85,457	0	1010,88	6,1	8,1	8	1	1	1	1	1	1	1	1	1	0	1	-8,315715	273,444189	308,683258	0
15.01.2021	05:54:39	0	0	4,51944	3,1815	20,6388	-0,472	85,451	0	1010,82	6,1	8,1	7,9	1	1	1	1	1	1	1	1	1	0	1	-7,610994	273,353537	308,967823	0
15.01.2021	05:54:40	0	0	3,841524	3,11175	22,0644	-0,475	85,428	0	1010,92	6,1	8,2	7,9	1	1	1	1	1	1	1	1	1	0	1	-4,016913	273,510651	313,290363	0
15.01.2021	05:54:41	0	0	2,824633	3,111	18,4572	-0,475	85,444	0	1010,88	6,1	8,1	8	1	1	1	1	1	1	1	1	1	0	1	-3,100775	273,411045	313,744529	0
15.01.2021	05:54:42	0	0	2,598678	3,1875	16,4844	-0,47	85,447	0	1010,98	6,1	8,2	7,9	1	1	1	1	1	1	1	1	1	0	1	-9,725159	273,528027	307,662758	0
15.01.2021	05:54:43	0	0	3,050622	3,126	19,9044	-0,47	85,457	0	1010,94	6,1	8,1	7,9	1	1	1	1	1	1	1	1	1	0	1	-6,060606	273,412484	310,791373	0
15.01.2021	05:54:44	0	0	4,180482	3,0465	27,6444	-0,47	85,457	0	1011,04	6,1	8,2	7,9	1	1	1	1	1	1	1	1	1	0	1	-5,496829	273,539619	311,944897	0
15.01.2021	05:54:45	0	0	4,406427	3,22425	20,2896	-0,473	85,441	0	1010,82	6,1	8,1	8	1	1	1	1	1	1	1	1	1	0	1	-4,369274	273,451402	312,663148	0
15.01.2021	05:54:46	0	0	4,519412	3,27	18,4464	-0,47	85,435	0	1010,76	6,1	8,1	8	1	1	1	1	1	1	1	1	1	0	1	-4,298802	273,516441	313,035345	0
15.01.2021	05:54:47	0	0	2,372692	3,23925	21,7728	-0,472	85,449	0	1011,02	6,1	8,1	8	1	1	1	1	1	1	1	1	1	0	1	-0,845666	273,366461	315,793026	0
15.01.2021	05:54:48	0	0	3,276594	3,3255	25,794	-0,473	85,445	0	1010,94	6,1	8,1	7,9	1	1	1	1	1	1	1	1	1	0	1	-7,963354	273,42833	308,962085	0
15.01.2021	05:54:49	0	0	3,276574	3,417	31,7592	-0,472	85,441	0	1010,92	6,1	8,1	8	1	1	1	1	1	1	1	1	1	0	1	-6,483439	273,373645	310,188539	0
15.01.2021	05:54:50	0	0	3,728538	3,49275	32,5044	-0,474	85,45	0	1010,94	6,1	8,1	7,9	1	1	1	1	1	1	1	1	1	0	1	-4,862579	273,448517	312,156461	0
15.01.2021	05:54:51	0	0	3,61553	3,63675	35,4816	-0,475	85,442	0	1010,86	6,1	8,1	8	1	1	1	1	1	1	1	1	1	0	1	-5,073996	273,522233	312,287031	0
15.01.2021	05:54:52	0	0	4,51944	3,585	38,394	-0,475	85,451	0	1010,78	6,1	8,1	7,9	1	1	1	1	1	1	1	1	1	0	1	-5,355884	273,496183	311,88426	0
15.01.2021	05:54:53	0	0	4,971354	3,42675	23,598	-0,473	85,438	0	1010,7	6,1	8,1	8	1	1	1	1	1	1	1	1	1	0	1	-4,651163	273,528027	312,736754	0
15.01.2021	05:54:54	0	0	3,050622	3,25725	31,4748	-0,475	85,453	0	1010,96	6,1	8,2	7,9	1	1	1	1	1	1	1	1	1	0	1	-5,355884	273,363589	311,269498	0
15.01.2021	05:54:55	0	0	2,146721	3,06225	33,9444	-0,47	85,445	0	1010,92	6,1	8,1	8	1	1	1	1	1	1	1	1	1	0	1	-2,748414	273,46728	314,357648	0
15.01.2021	05:54:56	0	0	3,502545	2,90925	20,286	-0,472	85,452	0	1010,9	6,1	8,1	8	1	1	1	1	1	1	1	1	1	0	1	-2,818887	273,344926	313,720041	0
15.01.2021	05:54:57	0	0	2,485677	2,9055	33,6384	-0,475	85,435	0	1010,92	6,1	8,1	8	1	1	1	1	1	1	1	1	1	0	1	-3,805497	273,411045	313,039807	0
15.01.2021	05:54:58	0	0	3,050622	2,95575	25,7976	-0,477	85,433	0	1010,72	6,1	8,1	7,9	1	1	1	1	1	1	1	1	1	0	1	-3,453136	273,411045	313,392168	0
15.01.2021	05:54:59	0	0	3,163608	2,86875	30,7044	-0,474	85,437	0	1010,84	6,1	8	7,9	1	1	1	1	1	1	1	1	1	0	1	-6,412967	273,363589	310,212416	0
15.01.2021	05:55:00	0	0	4,180456	2,8545	34,344	-0,475	85,437	0	1010,86	6,1	8,1	8	1	1	1	1	1	1	1	1	1	0	1	-7,329105	273,541069	310,119349	0
15.01.2021	05:55:01	0	0	4,180456	2,8545	34,344	-0,475	85,437	0	1010,86	6,1	8,1	8	1	1	1	1	1	1	1	1	1	0	1	-7,329105	273,541069	310,119349	0
15.01.2021	05:55:02	0	0	5,084339	2,69325	28,6956	-0,47	85,443	0	1010,88	6,1	8,1	8	1	1	1	1	1	1	1	1	1	0	1	-7,470049	273,494737	309,763385	0
15.01.2021	05:55:03	0	0	3,615552	2,5905	21,384	-0,471	85,454	0	1010,94	6,1	8,1	7,9	1	1	1	1	1	1	1	1	1	0	1	-6,20155	273,471613	310,924609	0
15.01.2021	05:55:04	0	0	3,728515	2,67675	16,11	-0,473	85,43	0	1010,88	6,1	8,1	8	1	1	1	1	1	1	1	1	1	0	1	-4,298802	273,523681	313,068946	0
15.01.2021	05:55:05	0	0	4,293468	2,76225	23,2308	-0,466	85,444	0	1010,8	6,1	8,1	7,9	1	1	1	1	1	1	1	1	1	0	1	-6,624383	273,481726	310,548689	0
15.01.2021	05:55:06	0	0	3,050603	2,8995	28,3536	-0,474	85,426	0	1010,96	6,1	8,1	8	1	1	1	1	1	1	1	1	1	0	1	-7,399577	273,353537	309,17924	0
15.01.2021	05:55:07	0	0	4,632398	2,76975	24,7212	-0,475	85,448	0	1010,88	6,1	8,2	8	1	1	1	1	1	1	1	1	1	0	1	-2,466526	273,464392	314,626142	0
15.01.2021	05:55:08	0	0	3,841501	2,598	33,6348	-0,467	85,443	0	1010,8	6,1	8,1	8	1	1	1	1	1	1	1	1	1	0	1	-7,963354	273,548318	309,518753	0
15.01.2021	05:55:09	0	0	4,406427	2,4555	36,2304	-0,471	85,442	0	1010,82	6,1	8,1	8	1	1	1	1	1	1	1	1	1	0	1	-2,60747	273,392336	314,15112	0
15.01.2021	05:55:10	0	0	3,502545	2,385	26,1828	-0,473	85,44	0	1010,88	6,1	8,1	8	1	1	1	1	1	1	1	1	1	0	1	-4,369274	273,532373	313,038816	0
15.01.2021	05:55:11	0	0	2,824633	2,3115	27,9756	-0,471	85,425	0	1010,78	6,1	8,1	8	1	1	1	1	1	1	1	1	1	0	1	-6,272023	273,390897	310,479901	0
15.01.2021	05:55:12	0	0	3,163589	2,322	21,3984	-0,467	85,442	0	1010,82	6,1	8,1	8	1	1	1	1	1	1	1	1	1	0	1	-5,144468	273,375082	311,534169	0
15.01.2021	05:55:13	0	0	2,937618	2,367	27,2844	-0,469	85,424	0	1010,92	6,1	8,1	8	1	1	1	1	1	1	1	1	1	0	1	-9,090909	273,373645	307,581069	0
15.01.2021	05:55:14	0	0	2,598662	2,5635	15,0372	-0,466	85,432	0	1011	6,1	8,1	8	1	1	1	1	1	1	1	1	1	0	1	-4,933051	273,400968	311,865548	0
15.01.2021	05:55:15	0	0	4,51944	2,7705	13,554	-0,473	85,421	0	1010,78	6,1	8,1	7,9	1	1	1	1	1	1	1	1	1	0	1	-4,298802	273,496183	312,941342	0
15.01.2021	05:55:16	0	0	3,050603	2,8335	16,8516	-0,468	85,434	0	1010,8	6,1	8,1	8	1	1	1	1	1	1	1	1	1	0	1	-1,973221	273,53672	315,455049	0
15.01.2021	05:55:17	0	0	3,728515	2,85075	16,4772	-0,472	85,422	0	1010,88	6,1	8,1	8	1	1	1	1	1	1	1	1	1	0	1	-5,990134	273,396652	310,788458	0
15.01.2021	05:55:18	0	0	3,276594	2,83425	18,45	-0,47	85,439	0	1010,8	6,1	8,1	7,9	1	1	1	1	1	1	1	1	1	0	1	-7,751938	273,532373	309,656152	0
15.01.2021	05:55:19	0	0	4,293442	2,73375	32,8896	-0,471	85,428	0	1010,94	6,1	8,1	8	1	1	1	1	1	1	1	1	1	0	1	-5,919662	273,490399	311,293647	0
15.01.2021	05:55:20	0	0	4,180482	2,70525	17,7048	-0,473	85,432	0	1010,88	6,2	8,1	7,9	1	1	1	1	1	1	1	1	1	0	1	-6,483439	273,413924	310,375215	0
15.01.2021	05:55:21	0	0	4,632398	2,778	15,4152	-0,478	85,416	0	1010,84	6,1	8,1	8	1	1	1	1	1	1	1	1	1	0	1	-2,255109	273,356409	314,337009	0
15.01.2021	05:55:22	0	0	3,163589	2,63775	19,1412	-0,471	85,43	0	1010,96	6,1	8,1	8	1	1	1	1	1	1	1	1	1	0	1	-2,114165	273,447074	314,898186	0
15.01.2021	05:55:23	0	0	4,745412	2,661	38,79	-0,471	85,429	0	1010,92	6,1	8,1	7,9	1	1	1	1	1	1	1	1	1	0	1	-3,664553	273,545418	313,804092	0
15.01.2021	05:55:24	0	0	4,180456	2,619	29,9412	-0,475	85,427	0	1010,94	6,1	8,1	8	1	1	1	1	1	1	1	1	1	0	1	-6,412967	273,488953	310,793634	0
15.01.2021	05:55:25	0	0	2,485677	2,58975	33,9516	-0,478	85,433	0	1010,68	6,1	8,1	8	1	1	1	1	1	1	1	1	1	0	1	-7,82241	273,551219	309,673164	0
15.01.2021	05:55:26	0	0	4,858398	2,469	30,708	-0,47	85,441	0	1010,88	6,1	8,1	7,9	1	1	1	1	1	1	1	1	1	0	1	-10,147992	273,405286	306,67062	0
15.01.2021	05:55:27	0	0	4,745383	2,3415	33,9552	-0,474	85,42	0	1010,78	6,1	8,1	8	1	1	1	1	1	1	1	1	1	0	1	-5,708245	273,380832	310,997033	0
15.01.2021	05:55:28	0	0	2,711647	2,25225	23,5908	-0,473	85,436	0	1010,78	6,2	8,1	8	1	1	1	1	1	1	1	1	1	0	1	-9,584214	273,458618	307,481671	0
15.01.2021	05:55:29	0	0	3,276574	2,241	21,0096	-0,476	85,43	0	1010,92	6,2	8,1	8	1	1	1	1	1	1	1	1	1	0	1	-4,016913	273,363589	312,608469	0
15.01.2021	05:55:30	0	0	2,598662	2,1945	21,7584	-0,473	85,408	0	1010,8	6,1	8,1	8	1	1	1	1	1	1	1	1	1	0	1	-4,510218	273,462949	312,575753	0
15.01.2021	05:55:31	0	0	3,050603	2,16825	29,0484	-0,468	85,414	0	1011,06	6,1	8,1	8	1	1	1	1	1	1	1	1	1	0	1	-3,59408	273,363589	313,031302	0
15.01.2021	05:55:32	0	0	3,61553	2,1135	19,5228	-0,474	85,424	0	1010,86	6,1	8,1	8	1	1	1	1	1	1	1	1	1	0	1	-5,355884	273,474502	311,783676	0
15.01.2021	05:55:33	0	0	4,632398	2,1015	17,2404	-0,474	85,419	0	1010,84	6,1	8,1	8	1	1	1	1	1	1	1	1	1	0	1	-1,832276	273,519337	315,515309	0
15.01.2021	05:55:34	0	0	3,61553	2,22525	16,4808	-0,468	85,431	0	1010,9	6,1	8,1	8	1	1	1	1	1	1	1	1	1	0	1	-4,580691	273,435537	312,378164	0
15.01.2021	05:55:35	0	0	3,728515	2,3235	22,0824	-0,469	85,432	0	1011	6,1	8,1	8	1	1	1	1	1	1	1	1	1	0	1	-5,919662	273,557021	311,602851	0
15.01.2021	05:55:36	0	0	2,824633	2,45025	22,0968	-0,469	85,423	0	1010,86	6,1	8,1	8	1	1	1	1	1	1	1	1	1	0	1	-2,60747	273,481726	314,565603	0
15.01.2021	05:55:37	0	0	4,858368	2,27325	21,3732	-0,474	85,418	0	1010,88	6,1	8,1	8	1	1	1	1	1	1	1	1	1	0	1	-2,184637	273,545418	315,284008	0
15.01.2021	05:55:38	0	0	2,598662	2,295	13,1544	-0,472	85,426	0	1010,78	6,1	8,1	8	1	1	1	1	1	1	1	1	1	0	1	-1,198027	273,455731	315,854472	0
15.01.2021	05:55:39	0	0	2,824633	2,29875	23,2308	-0,474	85,418	0	1010,66	6,1	8,1	8	1	1	1	1	1	1	1	1	1	0	1	-6,342495	273,53817	311,092502	0
15.01.2021	05:55:40	0	0	4,067471	2,26425	15,3828	-0,47	85,428	0	1010,96	6,2	8,1	8	1	1	1	1	1	1	1	1	1	0	1	-5,778717	273,50631	311,508413	0
15.01.2021	05:55:41	0	0	4,519412	2,319	12,4704	-0,475	85,427	0	1010,86	6,1	8,1	8	1	1	1	1	1	1	1	1	1	0	1	-3,664553	273,512098	313,649441	0
15.01.2021	05:55:42	0	0	2,711647	2,79375	11,2032	-0,466	85,438	0	1010,82	6,1	8,1	8	1	1	1	1	1	1	1	1	1	0	1	-0,98661	273,541069	316,461844	0
15.01.2021	05:55:43	0	0	2,485677	3,28575	11,7072	-0,468	85,477	0	1010,92	6,1	8,1	8	1	1	1	1	1	1	1	1	1	0	1	-0	273,441305	316,985598	0
15.01.2021	05:55:44	0	0	3,61553	3,61875	7,1352	-0,47	85,403	0	1010,8	6,1	8,1	8	1	1	1	1	1	1	1	1	1	0	1	-3,24172	273,539619	314,200006	0
15.01.2021	05:55:45	0	0	4,067471	3,87075	34,326	-0,467	85,426	0	1010,86	6,2	8,1	8	1	1	1	1	1	1	1	1	1	0	1	-0	273,528027	317,387916	0
15.01.2021	05:55:46	0	0	3,276574	3,579	27,6624	-0,472	85,429	0	1010,9	6,1	8,1	8	1	1	1	1	1	1	1	1	1	0	1	-4,792107	273,372208	311,873212	0
15.01.2021	05:55:47	0	0	3,276574	3,1875	15,4044	-0,466	85,424	0	1011	6,1	8,1	8	1	1	1	1	1	1	1	1	1	0	1	-4,439746	273,539619	313,001979	0
15.01.2021	05:55:48	0	0	4,293442	3,0345	12,474	-0,469	85,428	0	1010,94	6,1	8,1	8	1	1	1	1	1	1	1	1	1	0	1	-0	273,458618	317,065886	0
15.01.2021	05:55:49	0	0	4,519412	3,0855	10,818	-0,473	85,422	0	1010,84	6,2	8,1	8	1	1	1	1	1	1	1	1	1	0	1	-0,98661	273,373645	315,685367	0
15.01.2021	05:55:50	0	0	4,858368	2,94825	15,4116	-0,466	85,419	0	1010,88	6,1	8,1	8	1	1	1	1	1	1	1	1	1	0	1	-3,100775	273,552669	314,401532	0
15.01.2021	05:55:51	0	0	4,745383	2,9895	16,4736	-0,469	85,43	0	1010,88	6,1	8,1	8	1	1	1	1	1	1	1	1	1	0	1	-3,100775	273,486062	314,092413	0
15.01.2021	05:55:52	0	0	3,841501	3,33075	19,5372	-0,473	85,406	0	1010,76	6,1	8,1	8	1	1	1	1	1	1	1	1	1	0	1	-0,352361	273,35928	316,253061	0
15.01.2021	05:55:53	0	0	3,163589	3,78975	12,852	-0,476	85,41	0	1010,78	6,1	8,1	8	1	1	1	1	1	1	1	1	1	0	1	-4,157858	273,435537	312,800997	0
15.01.2021	05:55:54	0	0	4,406427	4,008	13,5432	-0,467	85,425	0	1010,82	6,1	8,1	8	1	1	1	1	1	1	1	1	1	0	1	-4,298802	273,373645	312,373176	0
15.01.2021	05:55:55	0	0	3,841501	3,8535	17,2332	-0,468	85,419	0	1010,74	6,1	8,1	8	1	1	1	1	1	1	1	1	1	0	1	-4,016913	273,510651	313,290363	0
15.01.2021	05:55:56	0	0	4,745383	3,501	15,408	-0,468	85,436	0	1010,82	6,2	8,1	8	1	1	1	1	1	1	1	1	1	0	1	-2,255109	273,377957	314,436847	0
15.01.2021	05:55:57	0	0	3,163589	3,33975	24,426	-0,466	85,434	0	1010,9	6,1	8,1	8	1	1	1	1	1	1	1	1	1	0	1	-4,792107	273,390897	311,959817	0
15.01.2021	05:55:58	0	0	2,824633	3,40575	14,6556	-0,467	85,428	0	1010,92	6,1	8,1	8	1	1	1	1	1	1	1	1	1	0	1	-4,721635	273,530924	312,67973	0
15.01.2021	05:55:59	0	0	3,954486	3,42525	16,11	-0,472	85,406	0	1010,86	6,1	8,1	8	1	1	1	1	1	1	1	1	1	0	1	-5,637773	273,365025	310,994264	0
15.01.2021	05:56:00	0	0	3,389559	3,13725	23,9724	-0,477	85,427	0	1010,86	6,1	8,1	8	1	1	1	1	1	1	1	1	1	0	1	-6,20155	273,494737	311,031884	0
15.01.2021	05:56:01	0	0	3,389559	3,13725	23,9724	-0,477	85,427	0	1010,86	6,1	8,1	8	1	1	1	1	1	1	1	1	1	0	1	-6,20155	273,494737	311,031884	0
15.01.2021	05:56:02	0	0	4,293442	2,92875	32,8932	-0,465	85,426	0	1010,78	6,1	8,1	8	1	1	1	1	1	1	1	1	1	0	1	-5,144468	273,557021	312,378045	0
15.01.2021	05:56:03	0	0	2,485677	2,889	31,3992	-0,468	85,412	0	1010,9	6,1	8,1	8	1	1	1	1	1	1	1	1	1	0	1	-4,298802	273,494737	312,934632	0
15.01.2021	05:56:04	0	0	4,519412	2,86125	23,9472	-0,463	85,416	0	1010,7	6,2	8,1	8	1	1	1	1	1	1	1	1	1	0	1	-4,510218	273,546868	312,965158	0
15.01.2021	05:56:05	0	0	4,632398	2,82225	19,8972	-0,473	85,402	0	1010,84	6,1	8,1	8	1	1	1	1	1	1	1	1	1	0	1	-2,396054	273,477391	314,75691	0
15.01.2021	05:56:06	0	0	4,180456	2,8335	25,0308	-0,467	85,4	0	1010,84	6,1	8,1	8	1	1	1	1	1	1	1	1	1	0	1	-5,637773	273,373645	311,034205	0
15.01.2021	05:56:07	0	0	2,372692	2,8845	34,7004	-0,47	85,402	0	1010,76	6,1	8,1	8	1	1	1	1	1	1	1	1	1	0	1	-4,933051	273,49763	312,313803	0
15.01.2021	05:56:08	0	0	2,711647	3,02025	24,732	-0,467	85,422	0	1010,84	6,1	8,1	8	1	1	1	1	1	1	1	1	1	0	1	-0,493305	273,37652	316,191991	0
15.01.2021	05:56:09	0	0	3,954486	3,1425	23,5908	-0,47	85,408	0	1010,8	6,1	8,1	8	1	1	1	1	1	1	1	1	1	0	1	-11,06413	273,501969	306,20286	0
15.01.2021	05:56:10	0	0	2,937618	3,12825	22,8276	-0,467	85,417	0	1010,84	6,2	8,1	8	1	1	1	1	1	1	1	1	1	0	1	-1,691332	273,541069	315,757122	0
15.01.2021	05:56:11	0	0	4,406427	2,9865	31,7736	-0,468	85,405	0	1010,76	6,1	8,1	8	1	1	1	1	1	1	1	1	1	0	1	-8,879493	273,512098	308,434501	0
15.01.2021	05:56:12	0	0	4,519412	2,86275	15,0408	-0,465	85,412	0	1010,84	6,1	8,1	8	1	1	1	1	1	1	1	1	1	0	1	-6,624383	273,475947	310,521878	0
15.01.2021	05:56:13	0	0	2,937618	2,88225	19,5516	-0,469	85,413	0	1010,84	6,1	8,1	8	1	1	1	1	1	1	1	1	1	0	1	-1,973221	273,545418	315,495424	0
15.01.2021	05:56:14	0	0	5,084339	2,85825	34,7112	-0,473	85,407	0	1010,9	6,1	8,1	8	1	1	1	1	1	1	1	1	1	0	1	-5,21494	273,509204	312,085621	0
15.01.2021	05:56:15	0	0	2,711647	2,72175	10,4436	-0,466	85,404	0	1010,82	6,1	8,1	8	1	1	1	1	1	1	1	1	1	0	1	-5,285412	273,445632	311,720249	0
15.01.2021	05:56:16	0	0	2,711647	2,7945	29,9556	-0,469	85,404	0	1010,86	6,1	8,1	8	1	1	1	1	1	1	1	1	1	0	1	-4,298802	273,370771	312,35986	0
15.01.2021	05:56:17	0	0	2,824633	3,05925	45,522	-0,468	85,404	0	1011	6,1	8,1	8	1	1	1	1	1	1	1	1	1	0	1	-7,399577	273,507757	309,894268	0
15.01.2021	05:56:18	0	0	5,084339	3,22875	38,0592	-0,471	85,401	0	1010,78	6,2	8,1	8	1	1	1	1	1	1	1	1	1	0	1	-5,567301	273,471613	311,558858	0
15.01.2021	05:56:19	0	0	3,728515	3,16725	29,9556	-0,468	85,382	0	1010,9	6,2	8,1	8	1	1	1	1	1	1	1	1	1	0	1	-1,62086	273,529475	315,773781	0
15.01.2021	05:56:20	0	0	4,406427	2,9745	30,9996	-0,463	85,401	0	1010,94	6,1	8,1	8	1	1	1	1	1	1	1	1	1	0	1	-8,104299	273,445632	308,901363	0
15.01.2021	05:56:21	0	0	5,31031	2,72925	21,7836	-0,464	85,406	0	1011,02	6,1	8,1	8	1	1	1	1	1	1	1	1	1	0	1	-5,426357	273,528027	311,96156	0
15.01.2021	05:56:22	0	0	2,824633	2,7915	29,5704	-0,463	85,398	0	1010,88	6,2	8,1	8	1	1	1	1	1	1	1	1	1	0	1	-3,523608	273,390897	313,228316	0
15.01.2021	05:56:23	0	0	2,937618	2,646	17,7048	-0,466	85,379	0	1010,92	6,2	8,1	8	1	1	1	1	1	1	1	1	1	0	1	-4,369274	273,491845	312,850742	0
15.01.2021	05:56:24	0	0	4,067471	2,841	13,5576	-0,462	85,391	0	1010,9	6,1	8,1	8	1	1	1	1	1	1	1	1	1	0	1	-7,82241	273,385145	308,902855	0
15.01.2021	05:56:25	0	0	3,502545	3,19575	24,7284	-0,465	85,397	0	1010,96	6,2	8,1	8	1	1	1	1	1	1	1	1	1	0	1	-1,057082	273,424007	315,848315	0
15.01.2021	05:56:26	0	0	4,745383	3,41325	22,0932	-0,469	85,404	0	1010,82	6,1	8,1	8	1	1	1	1	1	1	1	1	1	0	1	-3,664553	273,373645	313,007425	0
15.01.2021	05:56:27	0	0	3,728515	3,56025	25,8084	-0,47	85,39	0	1010,92	6,2	8,1	8	1	1	1	1	1	1	1	1	1	0	1	-3,664553	273,392336	313,094037	0
15.01.2021	05:56:28	0	0	4,971354	3,44475	17,2404	-0,466	85,385	0	1010,86	6,2	8,1	8	1	1	1	1	1	1	1	1	1	0	1	-7,470049	273,478836	309,689617	0
15.01.2021	05:56:29	0	0	3,954486	3,39825	18,4644	-0,458	85,387	0	1010,9	6,2	8,1	8	1	1	1	1	1	1	1	1	1	0	1	-11,06413	273,541069	306,384325	0
15.01.2021	05:56:30	0	0	4,293442	3,24675	11,7252	-0,47	85,389	0	1010,84	6,1	8,1	8	1	1	1	1	1	1	1	1	1	0	1	-8,245243	273,460061	308,827337	0
15.01.2021	05:56:31	0	0	3,841501	3,1725	6,8112	-0,466	85,375	0	1010,78	6,2	8,1	8	1	1	1	1	1	1	1	1	1	0	1	-4,580691	273,512098	312,733303	0
15.01.2021	05:56:32	0	0	3,841501	3,07575	23,598	-0,464	85,388	0	1010,88	6,1	8,1	8	1	1	1	1	1	1	1	1	1	0	1	-8,949965	273,509204	308,350596	0
15.01.2021	05:56:33	0	0	3,050603	2,99325	5,706	-0,463	85,386	0	1010,94	6,2	8,1	8	1	1	1	1	1	1	1	1	1	0	1	-8,668076	273,432654	308,27741	0
15.01.2021	05:56:34	0	0	3,050603	3,06375	26,6256	-0,465	85,379	0	1010,84	6,2	8,1	8	1	1	1	1	1	1	1	1	1	0	1	-5,144468	273,382269	311,567472	0
15.01.2021	05:56:35	0	0	4,406427	3,051	25,0236	-0,461	85,374	0	1010,96	6,1	8,1	8	1	1	1	1	1	1	1	1	1	0	1	-7,751938	273,460061	309,320642	0
15.01.2021	05:56:36	0	0	4,406427	3,06375	15,0336	-0,46	85,389	0	1011,06	6,2	8,1	8	1	1	1	1	1	1	1	1	1	0	1	-6,553911	273,542518	310,901273	0
15.01.2021	05:56:37	0	0	3,61553	3,08925	22,0824	-0,463	85,378	0	1010,92	6,1	8,1	8	1	1	1	1	1	1	1	1	1	0	1	-4,439746	273,503416	312,833956	0
15.01.2021	05:56:38	0	0	4,519412	2,98275	38,4984	-0,464	85,393	0	1010,88	6,2	8,1	8	1	1	1	1	1	1	1	1	1	0	1	-7,681466	273,37652	309,00383	0
15.01.2021	05:56:39	0	0	4,406427	2,88675	28,7136	-0,468	85,374	0	1010,72	6,2	8,1	8	1	1	1	1	1	1	1	1	1	0	1	-1,832276	273,421126	315,059763	0
15.01.2021	05:56:40	0	0	4,293442	2,8875	21,7656	-0,465	85,392	0	1010,98	6,2	8,1	8	1	1	1	1	1	1	1	1	1	0	1	-5,84919	273,439863	311,129721	0
15.01.2021	05:56:41	0	0	4,293442	2,82825	22,8276	-0,461	85,368	0	1010,8	6,2	8,1	8	1	1	1	1	1	1	1	1	1	0	1	-7,82241	273,539619	309,619315	0
15.01.2021	05:56:42	0	0	2,824633	2,86125	14,6664	-0,469	85,365	0	1010,76	6,2	8,1	8	1	1	1	1	1	1	1	1	1	0	1	-6,131078	273,488953	311,075523	0
15.01.2021	05:56:43	0	0	3,276574	2,763	29,1168	-0,469	85,374	0	1010,84	6,2	8,1	8	1	1	1	1	1	1	1	1	1	0	1	-2,466526	273,375082	314,212111	0
15.01.2021	05:56:44	0	0	4,745383	2,63475	29,1132	-0,467	85,377	0	1010,78	6,1	8,1	8	1	1	1	1	1	1	1	1	1	0	1	-5,637773	273,516441	311,696374	0
15.01.2021	05:56:45	0	0	3,841501	2,5815	26,2764	-0,466	85,36	0	1010,86	6,1	8,1	8	1	1	1	1	1	1	1	1	1	0	1	-5,919662	273,432654	311,025825	0
15.01.2021	05:56:46	0	0	4,858368	2,68125	24,3504	-0,46	85,375	0	1010,82	6,2	8,1	8	1	1	1	1	1	1	1	1	1	0	1	-8,174771	273,366461	308,463921	0
15.01.2021	05:56:47	0	0	4,180456	2,82825	33,2532	-0,462	85,38	0	1010,94	6,2	8,1	8	1	1	1	1	1	1	1	1	1	0	1	-3,523608	273,499076	313,729958	0
15.01.2021	05:56:48	0	0	5,31031	2,835	19,1628	-0,459	85,375	0	1010,86	6,2	8,1	8	1	1	1	1	1	1	1	1	1	0	1	-5,990134	273,386583	310,741795	0
15.01.2021	05:56:49	0	0	3,502545	2,946	20,2932	-0,465	85,378	0	1010,9	6,2	8,1	8	1	1	1	1	1	1	1	1	1	0	1	-3,24172	273,512098	314,072274	0
15.01.2021	05:56:50	0	0	3,163589	3,24525	11,1996	-0,461	85,374	0	1010,92	6,2	8,1	8	1	1	1	1	1	1	1	1	1	0	1	-6,412967	273,39809	310,372293	0
15.01.2021	05:56:51	0	0	3,841501	3,4395	360	-0,462	85,372	0	1010,94	6,2	8,1	8	1	1	1	1	1	1	1	1	1	0	1	-1,268499	273,517889	316,072367	0
15.01.2021	05:56:52	0	0	2,259706	3,54825	0,2052	-0,463	85,372	0	1010,86	6,2	8,1	8	1	1	1	1	1	1	1	1	1	0	1	-4,933051	273,552669	312,569256	0
15.01.2021	05:56:53	0	0	4,293442	3,3075	26,514	-0,471	85,372	0	1010,82	6,1	8,1	8	1	1	1	1	1	1	1	1	1	0	1	-5,144468	273,504863	312,135948	0
15.01.2021	05:56:54	0	0	3,728515	2,847	19,5228	-0,47	85,375	0	1010,82	6,1	8,1	8	1	1	1	1	1	1	1	1	1	0	1	-3,946441	273,392336	312,812149	0
15.01.2021	05:56:55	0	0	3,163589	2,6685	21,7584	-0,471	85,377	0	1011,04	6,2	8,1	8	1	1	1	1	1	1	1	1	1	0	1	-4,792107	273,429772	312,140014	0
15.01.2021	05:56:56	0	0	2,485677	2,69025	26,0064	-0,462	85,371	0	1010,86	6,1	8,1	8	1	1	1	1	1	1	1	1	1	0	1	-4,933051	273,522233	312,427975	0
15.01.2021	05:56:57	0	0	4,858368	2,92425	15,7824	-0,462	85,377	0	1010,92	6,2	8,1	8	1	1	1	1	1	1	1	1	1	0	1	-4,510218	273,382269	312,201721	0
15.01.2021	05:56:58	0	0	3,163589	3,04425	18,4464	-0,462	85,375	0	1011,02	6,2	8,1	8	1	1	1	1	1	1	1	1	1	0	1	-8,527132	273,520785	308,827174	0
15.01.2021	05:56:59	0	0	4,293442	3,13875	12,9384	-0,467	85,369	0	1010,94	6,2	8,1	8	1	1	1	1	1	1	1	1	1	0	1	-5,21494	273,548318	312,267168	0
15.01.2021	05:57:00	0	0	3,61553	3,042	6,822	-0,46	85,375	0	1010,92	6,2	8,1	8	1	1	1	1	1	1	1	1	1	0	1	-3,100775	273,449959	313,924956	0
15.01.2021	05:57:01	0	0	3,61553	3,042	6,822	-0,46	85,375	0	1010,92	6,2	8,1	8	1	1	1	1	1	1	1	1	1	0	1	-3,100775	273,449959	313,924956	0
15.01.2021	05:57:02	0	0	3,050603	2,98125	13,1652	-0,461	85,369	0	1010,86	6,2	8,1	8	1	1	1	1	1	1	1	1	1	0	1	-1,409443	273,56718	316,160236	0
15.01.2021	05:57:03	0	0	3,954486	3,1125	33,2748	-0,466	85,351	0	1010,72	6,2	8,1	8	1	1	1	1	1	1	1	1	1	0	1	-2,396054	273,496183	314,844091	0
15.01.2021	05:57:04	0	0	3,389559	3,1185	29,0988	-0,469	85,37	0	1010,9	6,2	8,1	8	1	1	1	1	1	1	1	1	1	0	1	-2,396054	273,532373	315,012037	0
15.01.2021	05:57:05	0	0	3,954486	2,862	23,5836	-0,465	85,352	0	1010,76	6,2	8,1	8	1	1	1	1	1	1	1	1	1	0	1	-0,281889	273,403847	316,530052	0
15.01.2021	05:57:06	0	0	4,406427	2,58975	26,8956	-0,462	85,369	0	1010,94	6,2	8,1	8	1	1	1	1	1	1	1	1	1	0	1	-0,493305	273,543968	316,968609	0
15.01.2021	05:57:07	0	0	4,745383	2,586	15,7932	-0,467	85,372	0	1010,9	6,2	8,1	8	1	1	1	1	1	1	1	1	1	0	1	-9,866103	273,499076	307,387463	0
15.01.2021	05:57:08	0	0	4,858368	2,7165	23,9796	-0,462	85,377	0	1011	6,2	8,1	8	1	1	1	1	1	1	1	1	1	0	1	-5,919662	273,541069	311,528793	0
15.01.2021	05:57:09	0	0	5,084339	2,823	6,4296	-0,462	85,365	0	1010,86	6,2	8,1	8	1	1	1	1	1	1	1	1	1	0	1	-3,171247	273,526578	314,209946	0
15.01.2021	05:57:10	0	0	4,067471	3,19125	7,65	-0,462	85,354	0	1010,84	6,2	8,1	8	1	1	1	1	1	1	1	1	1	0	1	-2,255109	273,462949	314,830862	0
15.01.2021	05:57:11	0	0	3,050603	3,6	14,6484	-0,459	85,382	0	1010,94	6,2	8,1	8	1	1	1	1	1	1	1	1	1	0	1	-5,003524	273,389459	311,741735	0
15.01.2021	05:57:12	0	0	4,745383	3,40875	21,0096	-0,465	85,362	0	1010,94	6,2	8,1	8	1	1	1	1	1	1	1	1	1	0	1	-8,033827	273,432654	308,91166	0
15.01.2021	05:57:13	0	0	4,293442	3,288	25,0344	-0,465	85,366	0	1010,92	6,2	8,1	8	1	1	1	1	1	1	1	1	1	0	1	-2,255109	273,372208	314,41021	0
15.01.2021	05:57:14	0	0	3,276574	3,054	35,856	-0,461	85,368	0	1010,94	6,2	8,1	8	1	1	1	1	1	1	1	1	1	0	1	-1,761804	273,50631	315,525326	0
15.01.2021	05:57:15	0	0	4,632398	2,68275	31,0212	-0,464	85,357	0	1010,88	6,2	8,1	8	1	1	1	1	1	1	1	1	1	0	1	-3,735025	273,539619	313,706701	0
15.01.2021	05:57:16	0	0	3,502545	2,4435	30,3336	-0,469	85,359	0	1010,84	6,2	8,1	8	1	1	1	1	1	1	1	1	1	0	1	-5,708245	273,512098	311,605748	0
15.01.2021	05:57:17	0	0	3,61553	2,38725	32,8896	-0,463	85,354	0	1010,86	6,2	8,1	8	1	1	1	1	1	1	1	1	1	0	1	-3,735025	273,517889	313,605841	0
15.01.2021	05:57:18	0	0	3,954486	2,31675	25,4232	-0,461	85,361	0	1010,94	6,2	8,1	8	1	1	1	1	1	1	1	1	1	0	1	-1,902748	273,431213	315,036055	0
15.01.2021	05:57:19	0	0	4,406427	2,27175	28,3644	-0,461	85,362	0	1010,92	6,2	8,1	8	1	1	1	1	1	1	1	1	1	0	1	-0	273,507757	317,293845	0
15.01.2021	05:57:20	0	0	4,519412	2,22675	18,8316	-0,462	85,36	0	1010,92	6,2	8,1	8	1	1	1	1	1	1	1	1	1	0	1	-2,677942	273,388021	314,060651	0
15.01.2021	05:57:21	0	0	2,824633	2,17425	26,1684	-0,465	85,361	0	1010,82	6,2	8,1	8	1	1	1	1	1	1	1	1	1	0	1	-8,738548	273,395213	308,033376	0
15.01.2021	05:57:22	0	0	4,519412	2,19675	23,5944	-0,459	85,343	0	1010,76	6,2	8,1	8	1	1	1	1	1	1	1	1	1	0	1	-4,792107	273,418245	312,086576	0
15.01.2021	05:57:23	0	0	4,971354	2,30925	24,3216	-0,463	85,357	0	1010,92	6,2	8,1	8	1	1	1	1	1	1	1	1	1	0	1	-3,664553	273,504863	313,615864	0
15.01.2021	05:57:24	0	0	3,163589	2,3715	15,408	-0,467	85,348	0	1010,96	6,2	8,1	8	1	1	1	1	1	1	1	1	1	0	1	-4,298802	273,520785	313,055504	0
15.01.2021	05:57:25	0	0	2,598662	2,49675	27,6696	-0,463	85,361	0	1010,84	6,2	8,1	8	1	1	1	1	1	1	1	1	1	0	1	-5,426357	273,385145	311,298909	0
15.01.2021	05:57:26	0	0	4,406427	2,697	26,1684	-0,463	85,333	0	1010,7	6,2	8,1	8	1	1	1	1	1	1	1	1	1	0	1	-2,677942	273,46728	314,42812	0
15.01.2021	05:57:27	0	0	2,485677	2,895	13,194	-0,46	85,355	0	1010,9	6,2	8,1	8	1	1	1	1	1	1	1	1	1	0	1	-3,875969	273,382269	312,835971	0
15.01.2021	05:57:28	0	0	3,276574	2,97375	7,1208	-0,463	85,355	0	1010,86	6,2	8,1	8	1	1	1	1	1	1	1	1	1	0	1	-2,889359	273,539619	314,552367	0
15.01.2021	05:57:29	0	0	2,372692	2,895	14,2956	-0,46	85,351	0	1010,88	6,2	8,1	8	1	1	1	1	1	1	1	1	1	0	1	-7,258633	273,413924	309,600021	0
15.01.2021	05:57:30	0	0	3,163589	2,8575	19,5336	-0,461	85,355	0	1010,82	6,1	8,1	8	1	1	1	1	1	1	1	1	1	0	1	-7,892882	273,377957	308,799074	0
15.01.2021	05:57:31	0	0	2,259706	2,75775	6,0732	-0,461	85,358	0	1010,86	6,2	8,1	8	1	1	1	1	1	1	1	1	1	0	1	-5,073996	273,442747	311,918289	0
15.01.2021	05:57:32	0	0	4,519412	2,73975	23,58	-0,463	85,339	0	1010,92	6,2	8,1	8	1	1	1	1	1	1	1	1	1	0	1	-1,127555	273,564277	316,428646	0
15.01.2021	05:57:33	0	0	2,372692	2,82825	22,9464	-0,465	85,346	0	1010,96	6,2	8,1	8	1	1	1	1	1	1	1	1	1	0	1	-7,399577	273,375082	309,279059	0
15.01.2021	05:57:34	0	0	2,824633	2,88975	25,7868	-0,463	85,349	0	1010,8	6,2	8,1	8	1	1	1	1	1	1	1	1	1	0	1	-1,409443	273,462949	315,676528	0
15.01.2021	05:57:35	0	0	5,53628	3,04875	22,0788	-0,47	85,341	0	1010,8	6,2	8,1	8	1	1	1	1	1	1	1	1	1	0	1	-11,839323	273,539619	305,602402	0
15.01.2021	05:57:36	0	0	3,61553	3,099	14,6484	-0,469	85,335	0	1010,88	6,2	8,2	8	1	1	1	1	1	1	1	1	1	0	1	-3,100775	273,441305	313,884823	0
15.01.2021	05:57:37	0	0	3,841501	3,08025	22,0752	-0,464	85,337	0	1010,92	6,2	8,1	8	1	1	1	1	1	1	1	1	1	0	1	-5,778717	273,377957	310,913239	0
15.01.2021	05:57:38	0	0	3,954486	3,2535	9,3816	-0,458	85,341	0	1010,72	6,2	8,1	8	1	1	1	1	1	1	1	1	1	0	1	-3,030303	273,532373	314,377787	0
15.01.2021	05:57:39	0	0	4,180456	3,33075	20,2968	-0,458	85,342	0	1010,86	6,2	8,1	8	1	1	1	1	1	1	1	1	1	0	1	-10,570825	273,37652	306,114471	0
15.01.2021	05:57:40	0	0	3,163589	3,0495	44,7552	-0,465	85,328	0	1011	6,2	8,1	8	1	1	1	1	1	1	1	1	1	0	1	-4,721635	273,403847	312,090305	0
15.01.2021	05:57:41	0	0	4,519412	2,96625	24,3576	-0,459	85,338	0	1010,88	6,2	8,1	8	1	1	1	1	1	1	1	1	1	0	1	-4,510218	273,558472	313,01903	0
15.01.2021	05:57:42	0	0	2,937618	2,85375	19,8972	-0,46	85,344	0	1010,98	6,2	8,1	8	1	1	1	1	1	1	1	1	1	0	1	-4,862579	273,422567	312,036139	0
15.01.2021	05:57:43	0	0	3,163589	2,96925	17,226	-0,46	85,337	0	1010,82	6,2	8,1	8	1	1	1	1	1	1	1	1	1	0	1	-6,765328	273,522233	310,595699	0
15.01.2021	05:57:44	0	0	3,050603	3,16125	22,4676	-0,459	85,331	0	1010,82	6,2	8,1	8	1	1	1	1	1	1	1	1	1	0	1	-5,919662	273,388021	310,818932	0
15.01.2021	05:57:45	0	0	4,858368	3,38025	13,1688	-0,46	85,333	0	1010,94	6,2	8,1	8	1	1	1	1	1	1	1	1	1	0	1	-5,285412	273,422567	311,613306	0
15.01.2021	05:57:46	0	0	3,163589	3,675	9,756	-0,455	85,333	0	1010,9	6,2	8,1	8	1	1	1	1	1	1	1	1	1	0	1	-8,315715	273,372208	308,349604	0
15.01.2021	05:57:47	0	0	4,406427	3,5715	13,1544	-0,463	85,323	0	1010,82	6,2	8,1	8	1	1	1	1	1	1	1	1	1	0	1	-6,060606	273,53817	311,374391	0
15.01.2021	05:57:48	0	0	4,632398	3,63375	25,0344	-0,459	85,325	0	1010,84	6,2	8,1	8	1	1	1	1	1	1	1	1	1	0	1	-9,44327	273,494737	307,790164	0
15.01.2021	05:57:49	0	0	4,858368	3,696	7,1316	-0,457	85,331	0	1010,94	6,2	8,1	8	1	1	1	1	1	1	1	1	1	0	1	-4,580691	273,561374	312,962033	0
15.01.2021	05:57:50	0	0	5,084339	3,66225	13,5504	-0,461	85,337	0	1010,86	6,2	8,1	8	1	1	1	1	1	1	1	1	1	0	1	-3,312192	273,465836	313,787173	0
15.01.2021	05:57:51	0	0	4,293442	3,27525	20,7144	-0,458	85,329	0	1010,96	6,2	8,1	8	1	1	1	1	1	1	1	1	1	0	1	-5,144468	273,55412	312,364574	0
15.01.2021	05:57:52	0	0	3,389559	2,9535	4,0932	-0,46	85,326	0	1010,98	6,2	8,1	8	1	1	1	1	1	1	1	1	1	0	1	-5,778717	273,513546	311,541993	0
15.01.2021	05:57:53	0	0	3,163589	2,71575	18,828	-0,459	85,326	0	1010,9	6,2	8,1	8	1	1	1	1	1	1	1	1	1	0	1	-6,412967	273,557021	311,109546	0
15.01.2021	05:57:54	0	0	3,389559	2,436	15,0444	-0,456	85,323	0	1010,72	6,2	8,2	8	1	1	1	1	1	1	1	1	1	0	1	-2,60747	273,493291	314,619255	0
15.01.2021	05:57:55	0	0	4,632398	2,46225	18,4464	-0,454	85,314	0	1010,98	6,1	8,1	8	1	1	1	1	1	1	1	1	1	0	1	-5,567301	273,39809	311,217959	0
15.01.2021	05:57:56	0	0	2,937618	2,52375	23,58	-0,456	85,335	0	1010,8	6,2	8,1	8	1	1	1	1	1	1	1	1	1	0	1	-2,396054	273,408165	314,435903	0
15.01.2021	05:57:57	0	0	2,711647	2,673	13,9248	-0,458	85,316	0	1010,86	6,2	8,1	8	1	1	1	1	1	1	1	1	1	0	1	-1,62086	273,548318	315,861248	0
15.01.2021	05:57:58	0	0	3,841501	2,9055	13,1652	-0,456	85,334	0	1010,98	6,2	8,1	8	1	1	1	1	1	1	1	1	1	0	1	-4,580691	273,529475	312,81395	0
15.01.2021	05:57:59	0	0	4,519412	2,95425	18,8496	-0,456	85,319	0	1010,9	6,2	8,1	8	1	1	1	1	1	1	1	1	1	0	1	-5,073996	273,431213	311,864808	0
15.01.2021	05:58:00	0	0	3,050603	2,8905	16,4916	-0,461	85,307	0	1010,98	6,2	8,1	8	1	1	1	1	1	1	1	1	1	0	1	-5,778717	273,491845	311,441299	0
15.01.2021	05:58:01	0	0	3,050603	2,8905	16,4916	-0,461	85,307	0	1010,98	6,2	8,1	8	1	1	1	1	1	1	1	1	1	0	1	-5,778717	273,491845	311,441299	0
15.01.2021	05:58:02	0	0	4,858368	2,73525	15,7788	-0,458	85,331	0	1011,04	6,2	8,1	8	1	1	1	1	1	1	1	1	1	0	1	-0,634249	273,389459	316,111009	0
15.01.2021	05:58:03	0	0	3,389559	2,6415	18,0792	-0,461	85,324	0	1010,94	6,2	8,1	8	1	1	1	1	1	1	1	1	1	0	1	-5,567301	273,55412	311,941741	0
15.01.2021	05:58:04	0	0	3,050603	2,67675	16,848	-0,458	85,328	0	1010,92	6,2	8,1	8	1	1	1	1	1	1	1	1	1	0	1	-6,553911	273,395213	310,218013	0
15.01.2021	05:58:05	0	0	2,824633	2,823	22,0716	-0,461	85,316	0	1010,94	6,2	8,2	8	1	1	1	1	1	1	1	1	1	0	1	-4,016913	273,481726	313,15616	0
15.01.2021	05:58:06	0	0	2,937618	2,93025	18,0936	-0,441	85,324	0	1011,08	6,2	8,1	8	1	1	1	1	1	1	1	1	1	0	1	-3,171247	273,549768	314,317593	0
15.01.2021	05:58:07	0	0	4,745383	3,021	19,5552	-0,459	85,327	0	1010,9	6,2	8,1	8	1	1	1	1	1	1	1	1	1	0	1	-1,761804	273,572987	315,834841	0
15.01.2021	05:58:08	0	0	3,728515	2,89725	27,972	-0,464	85,323	0	1010,98	6,2	8,1	8	1	1	1	1	1	1	1	1	1	0	1	-5,496829	273,529475	311,897812	0
15.01.2021	05:58:09	0	0	2,598662	2,81775	9,8604	-0,459	85,312	0	1010,84	6,2	8,1	8	1	1	1	1	1	1	1	1	1	0	1	-9,866103	273,564277	307,690097	0
15.01.2021	05:58:10	0	0	2,598662	2,835	22,842	-0,458	85,319	0	1010,92	6,2	8,2	8	1	1	1	1	1	1	1	1	1	0	1	-1,761804	273,490399	315,451504	0
15.01.2021	05:58:11	0	0	2,824633	2,91675	12,474	-0,458	85,328	0	1010,9	6,2	8,1	8	1	1	1	1	1	1	1	1	1	0	1	-4,298802	273,396652	312,47979	0
15.01.2021	05:58:12	0	0	3,61553	3,1995	9,0072	-0,46	85,32	0	1010,92	6,2	8,2	8	1	1	1	1	1	1	1	1	1	0	1	-5,567301	273,500522	311,692977	0
15.01.2021	05:58:13	0	0	2,711647	3,4095	13,1688	-0,463	85,328	0	1010,86	6,2	8,2	8	1	1	1	1	1	1	1	1	1	0	1	-8,174771	273,549768	309,31407	0
15.01.2021	05:58:14	0	0	4,406427	3,77925	11,2032	-0,461	85,311	0	1010,94	6,2	8,2	8	1	1	1	1	1	1	1	1	1	0	1	-1,691332	273,571535	315,898571	0
15.01.2021	05:58:15	0	0	3,954486	3,94425	18,09	-0,457	85,332	0	1010,84	6,2	8,1	8	1	1	1	1	1	1	1	1	1	0	1	-2,818887	273,416805	314,05312	0
15.01.2021	05:58:16	0	0	4,406427	3,83625	13,2624	-0,461	85,307	0	1010,92	6,2	8,2	8	1	1	1	1	1	1	1	1	1	0	1	-6,412967	273,552669	311,089341	0
15.01.2021	05:58:17	0	0	4,971354	3,50325	13,914	-0,456	85,318	0	1011,06	6,2	8,1	8	1	1	1	1	1	1	1	1	1	0	1	-6,553911	273,432654	310,391575	0
15.01.2021	05:58:18	0	0	3,841501	3,2895	23,6016	-0,456	85,33	0	1010,98	6,2	8,1	8	1	1	1	1	1	1	1	1	1	0	1	-3,946441	273,386583	312,785488	0
15.01.2021	05:58:19	0	0	2,824633	2,94975	31,7592	-0,458	85,315	0	1010,88	6,2	8,2	8	1	1	1	1	1	1	1	1	1	0	1	-2,818887	273,416805	314,05312	0
15.01.2021	05:58:20	0	0	2,372692	2,6535	30,3444	-0,456	85,328	0	1010,94	6,2	8,1	8	1	1	1	1	1	1	1	1	1	0	1	-2,114165	273,392336	314,644425	0
15.01.2021	05:58:21	0	0	2,937618	2,68275	15,0408	-0,46	85,318	0	1010,92	6,2	8,1	8	1	1	1	1	1	1	1	1	1	0	1	-0,845666	273,422567	316,053052	0
15.01.2021	05:58:22	0	0	4,067471	2,99475	6,4404	-0,452	85,307	0	1010,88	6,2	8,1	8	1	1	1	1	1	1	1	1	1	0	1	-4,721635	273,570083	312,861526	0
15.01.2021	05:58:23	0	0	4,971354	3,03075	22,842	-0,461	85,32	0	1010,8	6,2	8,1	8	1	1	1	1	1	1	1	1	1	0	1	-7,82241	273,522233	309,538617	0
15.01.2021	05:58:24	0	0	4,293442	3,1155	26,1828	-0,458	85,311	0	1010,8	6,2	8,2	8	1	1	1	1	1	1	1	1	1	0	1	-4,087385	273,409605	312,751245	0
15.01.2021	05:58:25	0	0	3,841501	3,201	14,3136	-0,464	85,307	0	1010,84	6,2	8,1	8	1	1	1	1	1	1	1	1	1	0	1	-3,875969	273,562825	313,673492	0
15.01.2021	05:58:26	0	0	4,067471	3,339	12,1032	-0,458	85,303	0	1010,9	6,1	8,1	8	1	1	1	1	1	1	1	1	1	0	1	-0	273,557021	317,522513	0
15.01.2021	05:58:27	0	0	4,406427	3,5775	19,6056	-0,454	85,305	0	1010,96	6,2	8,1	8	1	1	1	1	1	1	1	1	1	0	1	-7,329105	273,532373	310,078985	0
15.01.2021	05:58:28	0	0	3,728515	3,807	11,2104	-0,46	85,32	0	1010,72	6,2	8,1	8	1	1	1	1	1	1	1	1	1	0	1	-5,003524	273,395213	311,7684	0
15.01.2021	05:58:29	0	0	4,180456	3,8595	357,5916	-0,456	85,313	0	1010,84	6,2	8,2	8	1	1	1	1	1	1	1	1	1	0	1	-2,748414	273,557021	314,774098	0
15.01.2021	05:58:30	0	0	3,841501	3,76425	21,0312	-0,452	85,309	0	1010,84	6,2	8,1	8	1	1	1	1	1	1	1	1	1	0	1	-4,157858	273,431213	312,780946	0
15.01.2021	05:58:31	0	0	3,163589	3,831	14,6556	-0,456	85,294	0	1010,68	6,2	8,1	8	1	1	1	1	1	1	1	1	1	0	1	-3,664553	273,510651	313,642724	0
15.01.2021	05:58:32	0	0	4,745383	4,10475	18,4392	-0,465	85,302	0	1010,84	6,2	8,2	8	1	1	1	1	1	1	1	1	1	0	1	-7,540521	273,396652	309,23807	0
15.01.2021	05:58:33	0	0	3,050603	4,32075	24,336	-0,452	85,308	0	1010,92	6,2	8,1	8	1	1	1	1	1	1	1	1	1	0	1	-3,24172	273,519337	314,105866	0
15.01.2021	05:58:34	0	0	4,180456	4,4475	21,3912	-0,453	85,299	0	1010,88	6,2	8,2	8	1	1	1	1	1	1	1	1	1	0	1	-5,003524	273,55557	312,512253	0
15.01.2021	05:58:35	0	0	4,971354	4,41225	23,9832	-0,457	85,317	0	1011,06	6,2	8,1	8	1	1	1	1	1	1	1	1	1	0	1	-3,805497	273,575891	313,804635	0
15.01.2021	05:58:36	0	0	2,824633	4,4625	22,086	-0,454	85,31	0	1010,94	6,2	8,2	8	1	1	1	1	1	1	1	1	1	0	1	-3,453136	273,448517	313,565904	0
15.01.2021	05:58:37	0	0	4,406427	4,28775	15,4152	-0,465	85,31	0	1010,98	6,2	8,1	8	1	1	1	1	1	1	1	1	1	0	1	-5,84919	273,562825	311,700272	0
15.01.2021	05:58:38	0	0	3,050603	4,43475	7,2324	-0,461	85,314	0	1010,96	6,1	8,1	8	1	1	1	1	1	1	1	1	1	0	1	-1,198027	273,390897	315,553897	0
15.01.2021	05:58:39	0	0	5,084339	4,5075	12,474	-0,451	85,308	0	1010,86	6,2	8,2	8	1	1	1	1	1	1	1	1	1	0	1	-3,875969	273,52513	313,498501	0
15.01.2021	05:58:40	0	0	3,163589	4,36125	14,652	-0,462	85,305	0	1010,82	6,2	8,1	8	1	1	1	1	1	1	1	1	1	0	1	-1,832276	273,533822	315,58254	0
15.01.2021	05:58:41	0	0	3,728515	4,25625	14,3028	-0,459	85,285	0	1010,96	6,2	8,1	8	1	1	1	1	1	1	1	1	1	0	1	-3,100775	273,572987	314,49587	0
15.01.2021	05:58:42	0	0	4,406427	4,158	13,1616	-0,455	85,298	0	1010,88	6,2	8,1	8	1	1	1	1	1	1	1	1	1	0	1	-1,268499	273,530924	316,132866	0
15.01.2021	05:58:43	0	0	4,632398	4,02375	15,408	-0,455	85,298	0	1010,8	6,2	8,1	8	1	1	1	1	1	1	1	1	1	0	1	-4,721635	273,39809	312,063625	0
15.01.2021	05:58:44	0	0	3,954486	3,81975	20,2824	-0,463	85,294	0	1010,92	6,2	8,2	8	1	1	1	1	1	1	1	1	1	0	1	-6,483439	273,477391	310,669524	0
15.01.2021	05:58:45	0	0	2,824633	3,5505	32,9112	-0,457	85,299	0	1010,98	6,1	8,2	8	1	1	1	1	1	1	1	1	1	0	1	-4,862579	273,390897	311,889344	0
15.01.2021	05:58:46	0	0	4,293442	3,543	19,152	-0,46	85,298	0	1010,94	6,2	8,1	8	1	1	1	1	1	1	1	1	1	0	1	-4,439746	273,481726	312,733327	0
15.01.2021	05:58:47	0	0	4,519412	3,51675	15,7896	-0,455	85,298	0	1010,98	6,2	8,2	8	1	1	1	1	1	1	1	1	1	0	1	-5,073996	273,399529	311,717934	0
15.01.2021	05:58:48	0	0	3,61553	3,53475	11,718	-0,462	85,3	0	1010,8	6,2	8,1	8	1	1	1	1	1	1	1	1	1	0	1	-4,580691	273,499076	312,672875	0
15.01.2021	05:58:49	0	0	4,745383	3,74475	6,426	-0,459	85,311	0	1010,88	6,2	8,1	8	1	1	1	1	1	1	1	1	1	0	1	-5,84919	273,519337	311,498396	0
15.01.2021	05:58:50	0	0	3,050603	4,026	7,1352	-0,46	85,298	0	1010,96	6,2	8,1	8	1	1	1	1	1	1	1	1	1	0	1	-7,399577	273,389459	309,345681	0
15.01.2021	05:58:51	0	0	5,31031	4,2045	7,884	-0,462	85,299	0	1010,92	6,2	8,1	8	1	1	1	1	1	1	1	1	1	0	1	-6,765328	273,491845	310,454689	0
15.01.2021	05:58:52	0	0	3,16357	4,146	11,214	-0,458	85,311	0	1010,92	6,1	8,2	8,1	1	1	1	1	1	1	1	1	1	0	1	-3,312192	273,564277	314,244008	0
15.01.2021	05:58:53	0	0	4,858368	4,0125	7,8948	-0,461	85,287	0	1010,88	6,1	8,1	8	1	1	1	1	1	1	1	1	1	0	1	-5,84919	273,542518	311,605994	0
15.01.2021	05:58:54	0	0	4,632398	3,6045	14,3028	-0,46	85,302	0	1010,92	6,2	8,2	8	1	1	1	1	1	1	1	1	1	0	1	-4,933051	273,395213	311,838872	0
15.01.2021	05:58:55	0	0	4,745383	3,15075	17,6904	-0,454	85,291	0	1010,88	6,2	8,1	8	1	1	1	1	1	1	1	1	1	0	1	-3,312192	273,552669	314,190116	0
15.01.2021	05:58:56	0	0	4,519412	2,754	15,03	-0,453	85,301	0	1010,98	6,1	8,2	8	1	1	1	1	1	1	1	1	1	0	1	-3,312192	273,570083	314,27097	0
15.01.2021	05:58:57	0	0	3,389559	2,69475	18,0756	-0,455	85,294	0	1010,76	6,2	8,1	8	1	1	1	1	1	1	1	1	1	0	1	-0	273,445632	317,005661	0
15.01.2021	05:58:58	0	0	4,63237	2,616	8,2692	-0,457	85,294	0	1010,9	6,2	8,2	8,1	1	1	1	1	1	1	1	1	1	0	1	-0	273,565728	317,562939	0
15.01.2021	05:58:59	0	0	2,824633	2,4885	15,03	-0,457	85,296	0	1010,84	6,2	8,1	8	1	1	1	1	1	1	1	1	1	0	1	-7,329105	273,400968	309,469494	0
15.01.2021	05:59:00	0	0	2,937618	2,28825	20,2788	-0,452	85,3	0	1011	6,1	8,2	8	1	1	1	1	1	1	1	1	1	0	1	-4,651163	273,375082	312,027474	0
15.01.2021	05:59:01	0	0	2,937618	2,28825	20,2788	-0,452	85,3	0	1011	6,1	8,2	8	1	1	1	1	1	1	1	1	1	0	1	-4,651163	273,375082	312,027474	0
15.01.2021	05:59:02	0	0	3,389539	2,45175	27,306	-0,454	85,293	0	1010,92	6,1	8,1	8,1	1	1	1	1	1	1	1	1	1	0	1	-6,8358	273,499076	310,417766	0
15.01.2021	05:59:03	0	0	2,937618	2,68575	16,8444	-0,459	85,272	0	1011,08	6,2	8,2	8	1	1	1	1	1	1	1	1	1	0	1	-4,721635	273,562825	312,827826	0
15.01.2021	05:59:04	0	0	3,16357	2,82075	15,1308	-0,453	85,277	0	1010,76	6,2	8,2	8,1	1	1	1	1	1	1	1	1	1	0	1	-0,916138	273,522233	316,444889	0
15.01.2021	05:59:05	0	0	4,63237	3,057	27,6732	-0,453	85,291	0	1010,9	6,2	8,1	8,1	1	1	1	1	1	1	1	1	1	0	1	-2,748414	273,577343	314,868462	0
15.01.2021	05:59:06	0	0	2,824633	3,279	27,9612	-0,455	85,283	0	1010,92	6,2	8,1	8	1	1	1	1	1	1	1	1	1	0	1	-6,906272	273,465836	310,193093	0
15.01.2021	05:59:07	0	0	2,937618	3,1065	19,1484	-0,456	85,285	0	1010,98	6,2	8,1	8	1	1	1	1	1	1	1	1	1	0	1	-0,563777	273,386583	316,168152	0
15.01.2021	05:59:08	0	0	3,728493	3,0525	21,0096	-0,459	85,279	0	1010,92	6,2	8,1	8,1	1	1	1	1	1	1	1	1	1	0	1	-3,59408	273,503416	313,679622	0
15.01.2021	05:59:09	0	0	3,389559	3,25575	22,4676	-0,453	85,283	0	1010,94	6,2	8,2	8	1	1	1	1	1	1	1	1	1	0	1	-3,59408	273,403847	313,21786	0
15.01.2021	05:59:10	0	0	3,954486	3,57225	22,8312	-0,461	85,266	0	1010,88	6,2	8,2	8	1	1	1	1	1	1	1	1	1	0	1	-5,567301	273,441305	311,418297	0
15.01.2021	05:59:11	0	0	2,598647	3,651	16,1208	-0,462	85,267	0	1010,7	6,2	8,1	8,1	1	1	1	1	1	1	1	1	1	0	1	-2,60747	273,396652	314,171122	0
15.01.2021	05:59:12	0	0	4,745383	3,606	13,1724	-0,453	85,283	0	1010,96	6,1	8,1	8	1	1	1	1	1	1	1	1	1	0	1	-5,144468	273,465836	311,954897	0
15.01.2021	05:59:13	0	0	4,067471	3,4995	25,4088	-0,459	85,273	0	1010,94	6,2	8,1	8	1	1	1	1	1	1	1	1	1	0	1	-5,990134	273,575891	311,619998	0
15.01.2021	05:59:14	0	0	4,858368	3,354	12,852	-0,454	85,274	0	1010,9	6,1	8,2	8	1	1	1	1	1	1	1	1	1	0	1	-11,134602	273,477391	306,018362	0
15.01.2021	05:59:15	0	0	4,745383	3,16575	14,3064	-0,454	85,276	0	1010,86	6,2	8,2	8	1	1	1	1	1	1	1	1	1	0	1	-5,285412	273,571535	312,304491	0
15.01.2021	05:59:16	0	0	4,406401	3,303	13,1616	-0,454	85,286	0	1010,92	6,1	8,2	8,1	1	1	1	1	1	1	1	1	1	0	1	-3,24172	273,458618	313,824166	0
15.01.2021	05:59:17	0	0	3,163589	3,66975	20,2788	-0,462	85,265	0	1010,88	6,1	8,1	8	1	1	1	1	1	1	1	1	1	0	1	-5,84919	273,429772	311,082931	0
15.01.2021	05:59:18	0	0	5,084339	3,864	31,7772	-0,454	85,26	0	1010,98	6,1	8,2	8	1	1	1	1	1	1	1	1	1	0	1	-5,144468	273,575891	312,465664	0
15.01.2021	05:59:19	0	0	3,389559	3,81975	25,0272	-0,459	85,272	0	1010,88	6,1	8,2	8	1	1	1	1	1	1	1	1	1	0	1	-3,946441	273,52513	313,428029	0
15.01.2021	05:59:20	0	0	2,485677	3,74175	20,6316	-0,461	85,281	0	1010,96	6,1	8,2	8	1	1	1	1	1	1	1	1	1	0	1	-7,470049	273,406726	309,355235	0
15.01.2021	05:59:21	0	0	3,050603	3,72375	10,8216	-0,456	85,261	0	1010,78	6,1	8,2	8	1	1	1	1	1	1	1	1	1	0	1	-8,879493	273,510651	308,427784	0
15.01.2021	05:59:22	0	0	2,146721	3,89625	6,534	-0,459	85,259	0	1010,94	6,2	8,1	8	1	1	1	1	1	1	1	1	1	0	1	-4,792107	273,568631	312,784313	0
15.01.2021	05:59:23	0	0	2,937618	4,0575	18,774	-0,451	85,273	0	1010,76	6,1	8,1	8	1	1	1	1	1	1	1	1	1	0	1	-3,523608	273,507757	313,770237	0
15.01.2021	05:59:24	0	0	3,61553	3,72975	12,852	-0,457	85,274	0	1010,94	6,1	8,2	8	1	1	1	1	1	1	1	1	1	0	1	-5,496829	273,56718	312,072851	0
15.01.2021	05:59:25	0	0	3,954486	3,408	8,9928	-0,454	85,271	0	1010,88	6,1	8,2	8	1	1	1	1	1	1	1	1	1	0	1	-1,409443	273,438421	315,562782	0
15.01.2021	05:59:26	0	0	3,050603	3,47025	14,31	-0,451	85,274	0	1010,94	6,1	8,1	8	1	1	1	1	1	1	1	1	1	0	1	-1,62086	273,557021	315,901653	0
15.01.2021	05:59:27	0	0	2,711647	3,46125	26,9064	-0,456	85,259	0	1010,76	6,1	8,2	8	1	1	1	1	1	1	1	1	1	0	1	-1,550388	273,480281	315,615981	0
15.01.2021	05:59:28	0	0	5,197324	3,20325	18,4716	-0,457	85,264	0	1010,86	6,2	8,2	8	1	1	1	1	1	1	1	1	1	0	1	-5,144468	273,551219	312,351106	0
15.01.2021	05:59:29	0	0	3,163589	3,14625	10,0764	-0,456	85,261	0	1010,76	6,1	8,2	8	1	1	1	1	1	1	1	1	1	0	1	-2,325581	273,465836	314,773784	0
15.01.2021	05:59:30	0	0	4,180456	3,07125	8,7084	-0,459	85,259	0	1010,82	6,1	8,2	8	1	1	1	1	1	1	1	1	1	0	1	-5,285412	273,580248	312,344955	0
15.01.2021	05:59:31	0	0	3,502524	3,16875	359,8128	-0,457	85,277	0	1010,88	6,2	8,2	8,1	1	1	1	1	1	1	1	1	1	0	1	-3,59408	273,510651	313,713196	0
15.01.2021	05:59:32	0	0	4,067471	3,078	3,78	-0,455	85,283	0	1011,08	6,1	8,2	8	1	1	1	1	1	1	1	1	1	0	1	-2,325581	273,393774	314,439675	0
15.01.2021	05:59:33	0	0	3,389559	3,12	7,5276	-0,452	85,269	0	1010,88	6,1	8,1	8	1	1	1	1	1	1	1	1	1	0	1	-3,735025	273,512098	313,578969	0
15.01.2021	05:59:34	0	0	4,971354	3,303	11,7036	-0,459	85,277	0	1010,98	6,1	8,2	8	1	1	1	1	1	1	1	1	1	0	1	-1,761804	273,551219	315,73377	0
15.01.2021	05:59:35	0	0	2,711647	3,30075	19,1412	-0,454	85,274	0	1010,94	6,2	8,2	8	1	1	1	1	1	1	1	1	1	0	1	-1,62086	273,403847	315,191081	0
15.01.2021	05:59:36	0	0	4,971354	3,2865	19,8936	-0,46	85,272	0	1010,86	6,2	8,2	8	1	1	1	1	1	1	1	1	1	0	1	-0,422833	273,532373	316,985257	0
15.01.2021	05:59:37	0	0	4,519412	3,21225	32,1696	-0,455	85,27	0	1010,94	6,3	8,2	8	1	1	1	1	1	1	1	1	1	0	1	-5,637773	273,56718	311,931906	0
15.01.2021	05:59:38	0	0	3,276574	3,03525	12,0924	-0,454	85,269	0	1010,86	6,1	8,2	8	1	1	1	1	1	1	1	1	1	0	1	-6,20155	273,458618	310,864335	0
15.01.2021	05:59:39	0	0	3,728515	3,108	25,0452	-0,45	85,272	0	1010,94	6,2	8,2	8	1	1	1	1	1	1	1	1	1	0	1	-6,765328	273,438421	310,206897	0
15.01.2021	05:59:40	0	0	3,276574	3,195	13,932	-0,455	85,256	0	1011,04	6,1	8,2	8	1	1	1	1	1	1	1	1	1	0	1	-1,409443	273,478836	315,750223	0
15.01.2021	05:59:41	0	0	4,406427	3,168	19,9044	-0,457	85,249	0	1010,9	6,1	8,2	8	1	1	1	1	1	1	1	1	1	0	1	-0	273,411045	316,845304	0
15.01.2021	05:59:42	0	0	3,163589	3,273	18,4644	-0,457	85,255	0	1010,88	6,2	8,1	8	1	1	1	1	1	1	1	1	1	0	1	-3,664553	273,543968	313,797361	0
15.01.2021	05:59:43	0	0	3,050585	3,22725	14,6412	-0,457	85,256	0	1010,94	6,2	8,2	8,1	1	1	1	1	1	1	1	1	1	0	1	-7,047216	273,574439	310,556172	0
15.01.2021	05:59:44	0	0	2,598662	3,1485	14,6412	-0,456	85,268	0	1010,98	6,1	8,2	8	1	1	1	1	1	1	1	1	1	0	1	-9,936575	273,528027	307,451341	0
15.01.2021	05:59:45	0	0	3,050585	3,348	23,2236	-0,458	85,275	0	1011,08	6,2	8,2	8,1	1	1	1	1	1	1	1	1	1	0	1	-3,805497	273,380832	312,899781	0
15.01.2021	05:59:46	0	0	3,502524	3,90675	31,0212	-0,458	85,255	0	1011,06	6,1	8,2	8,1	1	1	1	1	1	1	1	1	1	0	1	-3,523608	273,558472	314,005641	0
15.01.2021	05:59:47	0	0	3,502524	4,14375	22,8492	-0,454	85,267	0	1010,9	6,1	8,2	8,1	1	1	1	1	1	1	1	1	1	0	1	-1,973221	273,539619	315,468505	0
15.01.2021	05:59:48	0	0	4,067471	4,16775	12,852	-0,45	85,27	0	1011,02	6,1	8,1	8	1	1	1	1	1	1	1	1	1	0	1	-1,127555	273,501969	316,139435	0
15.01.2021	05:59:49	0	0	2,711647	4,0905	23,5872	-0,454	85,261	0	1011,12	6,1	8,2	8	1	1	1	1	1	1	1	1	1	0	1	-5,990134	273,586059	311,667221	0
15.01.2021	05:59:50	0	0	4,293442	4,0515	18,8316	-0,458	85,247	0	1010,84	6,1	8,2	8	1	1	1	1	1	1	1	1	1	0	1	-3,735025	273,49763	313,51183	0
15.01.2021	05:59:51	0	0	4,406427	4,10925	22,0752	-0,46	85,248	0	1010,9	6,1	8,2	8	1	1	1	1	1	1	1	1	1	0	1	-1,902748	273,578796	315,720873	0
15.01.2021	05:59:52	0	0	3,050603	4,1205	19,9116	-0,456	85,242	0	1010,98	6,1	8,2	8	1	1	1	1	1	1	1	1	1	0	1	-0,563777	273,451402	316,468644	0
15.01.2021	05:59:53	0	0	4,632398	4,113	26,5248	-0,449	85,263	0	1010,94	6,2	8,1	8	1	1	1	1	1	1	1	1	1	0	1	-0,775194	273,408165	316,056763	0
15.01.2021	05:59:54	0	0	3,16357	4,0875	32,148	-0,454	85,252	0	1011,08	6,1	8,1	8,1	1	1	1	1	1	1	1	1	1	0	1	-5,355884	273,473057	311,776975	0
15.01.2021	05:59:55	0	0	2,598662	4,0755	23,2344	-0,454	85,257	0	1010,96	6,1	8,2	8	1	1	1	1	1	1	1	1	1	0	1	-1,409443	273,416805	315,462563	0
15.01.2021	05:59:56	0	0	4,971324	3,9075	32,1552	-0,454	85,251	0	1010,84	6,1	8,2	8,1	1	1	1	1	1	1	1	1	1	0	1	-3,312192	273,42833	313,613247	0
15.01.2021	05:59:57	0	0	3,163589	3,6975	37,674	-0,452	85,265	0	1010,88	6,1	8,2	8	1	1	1	1	1	1	1	1	1	0	1	-5,708245	273,528027	311,679671	0
15.01.2021	05:59:58	0	0	3,61553	3,585	38,07	-0,457	85,259	0	1010,84	6,1	8,2	8	1	1	1	1	1	1	1	1	1	0	1	-4,298802	273,571535	313,291101	0
15.01.2021	05:59:59	0	0	5,31031	3,48375	25,0452	-0,449	85,247	0	1010,98	6,2	8,2	8	1	1	1	1	1	1	1	1	1	0	1	-2,325581	273,539619	315,116144	0
15.01.2021	06:00:00	0	0	4,067471	3,18	15,408	-0,453	85,237	0	1010,98	6,1	8,2	8	1	1	1	1	1	1	1	1	1	0	1	-5,567301	273,431213	311,371503	0
15.01.2021	06:00:01	0	0	4,067471	3,18	15,408	-0,453	85,237	0	1010,98	6,1	8,2	8	1	1	1	1	1	1	1	1	1	0	1	-5,567301	273,431213	311,371503	0
15.01.2021	06:00:02	0	0	4,180431	2,98575	18,09	-0,451	85,245	0	1010,9	6,2	8,2	8,1	1	1	1	1	1	1	1	1	1	0	1	-6,131078	273,581701	311,506035	0
15.01.2021	06:00:03	0	0	3,728493	2,82975	22,9284	-0,451	85,255	0	1010,82	6,1	8,2	8,1	1	1	1	1	1	1	1	1	1	0	1	-2,748414	273,512098	314,565579	0
15.01.2021	06:00:04	0	0	4,293416	2,736	15,8004	-0,458	85,241	0	1010,82	6,1	8,2	8,1	1	1	1	1	1	1	1	1	1	0	1	-2,466526	273,570083	315,116636	0
15.01.2021	06:00:05	0	0	3,502524	2,82675	19,53	-0,451	85,235	0	1010,9	6,1	8,2	8,1	1	1	1	1	1	1	1	1	1	0	1	-2,255109	273,487508	314,944785	0
15.01.2021	06:00:06	0	0	3,050603	2,97675	18,9432	-0,459	85,252	0	1010,92	6,1	8,2	8	1	1	1	1	1	1	1	1	1	0	1	-4,087385	273,581701	313,549728	0
15.01.2021	06:00:07	0	0	2,711647	3,153	16,8408	-0,457	85,236	0	1010,84	6,1	8,2	8	1	1	1	1	1	1	1	1	1	0	1	-6,976744	273,488953	310,229857	0
15.01.2021	06:00:08	0	0	3,050585	3,2205	21,384	-0,451	85,261	0	1011,04	6,1	8,2	8,1	1	1	1	1	1	1	1	1	1	0	1	-5,426357	273,399529	311,365573	0
15.01.2021	06:00:09	0	0	2,598647	3,13575	18,0972	-0,455	85,233	0	1010,86	6,1	8,2	8,1	1	1	1	1	1	1	1	1	1	0	1	-5,567301	273,523681	311,800447	0
15.01.2021	06:00:10	0	0	3,61553	3,09975	17,6976	-0,454	85,244	0	1010,98	6,2	8,2	8	1	1	1	1	1	1	1	1	1	0	1	-5,708245	273,399529	311,083684	0
15.01.2021	06:00:11	0	0	5,310278	3,08475	18,0756	-0,454	85,244	0	1010,92	6,2	8,2	8,1	1	1	1	1	1	1	1	1	1	0	1	-5,990134	273,481726	311,182939	0
15.01.2021	06:00:12	0	0	2,824633	3,11025	18,4644	-0,454	85,232	0	1010,98	6,1	8,2	8	1	1	1	1	1	1	1	1	1	0	1	-0	273,395213	316,771924	0
15.01.2021	06:00:13	0	0	3,050585	3,144	18,0864	-0,452	85,236	0	1011	6,1	8,2	8,1	1	1	1	1	1	1	1	1	1	0	1	-5,567301	273,509204	311,73326	0
15.01.2021	06:00:14	0	0	3,163608	3,1875	17,7012	-0,451	85,238	0	1010,94	6,1	8,2	7,9	1	1	1	1	1	1	1	1	1	0	1	-4,510218	273,39809	312,275042	0
15.01.2021	06:00:15	0	0	4,180431	3,20925	16,1064	-0,453	85,228	0	1011	6,1	8,2	8,1	1	1	1	1	1	1	1	1	1	0	1	-0,775194	273,514993	316,552235	0
15.01.2021	06:00:16	0	0	2,711631	3,2175	13,1652	-0,452	85,221	0	1011,06	6,1	8,2	8,1	1	1	1	1	1	1	1	1	1	0	1	-6,20155	273,400968	310,597049	0
15.01.2021	06:00:17	0	0	4,180431	3,10875	19,152	-0,447	85,224	0	1010,86	6,2	8,2	8,1	1	1	1	1	1	1	1	1	1	0	1	-9,161381	273,458618	307,904504	0
15.01.2021	06:00:18	0	0	3,050585	3,01575	18,9144	-0,453	85,235	0	1010,78	6,1	8,2	8,1	1	1	1	1	1	1	1	1	1	0	1	-5,778717	273,570083	311,804444	0
15.01.2021	06:00:19	0	0	3,61553	3,01575	9,756	-0,453	85,215	0	1010,8	6,1	8,2	8	1	1	1	1	1	1	1	1	1	0	1	-8,597604	273,413924	308,26105	0
15.01.2021	06:00:20	0	0	3,615508	3,01725	16,4772	-0,451	85,226	0	1011,02	6,2	8,2	8,1	1	1	1	1	1	1	1	1	1	0	1	-3,382664	273,464392	313,710004	0
15.01.2021	06:00:21	0	0	4,406401	2,952	16,1064	-0,456	85,212	0	1010,9	6,2	8,2	8,1	1	1	1	1	1	1	1	1	1	0	1	-7,892882	273,583154	309,750977	0
15.01.2021	06:00:22	0	0	4,971354	3,08475	23,22	-0,453	85,219	0	1010,92	6,1	8,2	8	1	1	1	1	1	1	1	1	1	0	1	-4,439746	273,557021	313,082766	0
15.01.2021	06:00:23	0	0	3,615508	3,2385	22,8348	-0,454	85,225	0	1011,1	6,1	8,2	8,1	1	1	1	1	1	1	1	1	1	0	1	-5,426357	273,409605	311,412274	0
15.01.2021	06:00:24	0	0	4,971354	3,597	26,5176	-0,454	85,227	0	1011,02	6,1	8,1	8	1	1	1	1	1	1	1	1	1	0	1	-3,030303	273,449959	313,995428	0
15.01.2021	06:00:25	0	0	3,728493	3,8145	21,7656	-0,454	85,215	0	1010,96	6,1	8,2	8,1	1	1	1	1	1	1	1	1	1	0	1	-0,211416	273,591872	317,472937	0
15.01.2021	06:00:26	0	0	3,841478	3,657	25,416	-0,453	85,216	0	1011	6,1	8,2	8,1	1	1	1	1	1	1	1	1	1	0	1	-6,694856	273,593326	310,996249	0
15.01.2021	06:00:27	0	0	3,389559	3,627	30,7008	-0,454	85,212	0	1010,92	6,1	8,2	8	1	1	1	1	1	1	1	1	1	0	1	-4,369274	273,435537	312,58958	0
15.01.2021	06:00:28	0	0	2,824616	3,7425	26,5176	-0,452	85,216	0	1010,94	6,2	8,2	8,1	1	1	1	1	1	1	1	1	1	0	1	-7,751938	273,408165	309,080019	0
15.01.2021	06:00:29	0	0	3,389539	3,5895	15,4872	-0,453	85,23	0	1011,02	6,1	8,2	8,1	1	1	1	1	1	1	1	1	1	0	1	-4,369274	273,473057	312,763585	0
15.01.2021	06:00:30	0	0	4,293442	3,4275	19,9044	-0,454	85,207	0	1010,9	6,2	8,2	8	1	1	1	1	1	1	1	1	1	0	1	-4,087385	273,590419	313,590217	0
15.01.2021	06:00:31	0	0	4,63237	3,42375	8,2692	-0,45	85,229	0	1011,02	6,2	8,2	8,1	1	1	1	1	1	1	1	1	1	0	1	-7,892882	273,478836	309,266784	0
15.01.2021	06:00:32	0	0	4,745355	3,32475	18,4608	-0,45	85,199	0	1010,9	6,1	8,2	8,1	1	1	1	1	1	1	1	1	1	0	1	-1,198027	273,416805	315,673979	0
15.01.2021	06:00:33	0	0	3,615508	3,2325	2,3004	-0,45	85,205	0	1010,92	6,1	8,2	8,1	1	1	1	1	1	1	1	1	1	0	1	-6,765328	273,480281	310,401041	0
15.01.2021	06:00:34	0	0	4,745383	3,13125	356,8788	-0,46	85,197	0	1010,9	6,1	8,2	8	1	1	1	1	1	1	1	1	1	0	1	-2,677942	273,596233	315,026666	0
15.01.2021	06:00:35	0	0	3,16357	3,34125	357,3216	-0,454	85,207	0	1010,86	6,1	8,2	8,1	1	1	1	1	1	1	1	1	1	0	1	-3,805497	273,491845	313,41452	0
15.01.2021	06:00:36	0	0	3,502545	3,7365	17,2296	-0,457	85,203	0	1010,9	6,1	8,2	8	1	1	1	1	1	1	1	1	1	0	1	-3,805497	273,565728	313,757443	0
15.01.2021	06:00:37	0	0	4,63237	3,89625	4,0752	-0,455	85,19	0	1010,92	6,1	8,2	8,1	1	1	1	1	1	1	1	1	1	0	1	-0	273,416805	316,872006	0
15.01.2021	06:00:38	0	0	5,423262	3,7635	13,1472	-0,454	85,194	0	1010,8	6,1	8,2	8,1	1	1	1	1	1	1	1	1	1	0	1	-3,382664	273,474502	313,756896	0
15.01.2021	06:00:39	0	0	4,180431	3,88425	7,4988	-0,447	85,187	0	1010,92	6,1	8,2	8,1	1	1	1	1	1	1	1	1	1	0	1	-0	273,578796	317,623621	0
15.01.2021	06:00:40	0	0	3,728493	4,07475	5,2236	-0,453	85,185	0	1010,92	6,2	8,2	8,1	1	1	1	1	1	1	1	1	1	0	1	-0,916138	273,513546	316,404572	0
15.01.2021	06:00:41	0	0	3,728515	3,94575	3,0348	-0,454	85,199	0	1011,06	6,2	8,2	8	1	1	1	1	1	1	1	1	1	0	1	-1,409443	273,594779	316,288413	0
15.01.2021	06:00:42	0	0	2,824633	3,60825	17,712	-0,45	85,206	0	1010,94	6,1	8,2	8	1	1	1	1	1	1	1	1	1	0	1	-0	273,512098	317,313993	0
15.01.2021	06:00:43	0	0	2,9376	3,5805	18,0756	-0,45	85,187	0	1010,74	6,2	8,2	8,1	1	1	1	1	1	1	1	1	1	0	1	-1,409443	273,447074	315,602907	0
15.01.2021	06:00:44	0	0	5,084339	3,4395	6,4332	-0,454	85,202	0	1010,94	6,2	8,2	8	1	1	1	1	1	1	1	1	1	0	1	-4,439746	273,580248	313,190621	0
15.01.2021	06:00:45	0	0	3,163589	3,49425	5,2272	-0,443	85,204	0	1010,94	6,1	8,2	8	1	1	1	1	1	1	1	1	1	0	1	-4,933051	273,564277	312,623149	0
15.01.2021	06:00:46	0	0	2,9376	3,471	10,0728	-0,45	85,208	0	1010,8	6,1	8,2	8,1	1	1	1	1	1	1	1	1	1	0	1	-4,157858	273,580248	313,472509	0
15.01.2021	06:00:47	0	0	3,954486	3,201	21,402	-0,454	85,199	0	1010,96	6,2	8,2	8	1	1	1	1	1	1	1	1	1	0	1	-2,325581	273,457175	314,73361	0
15.01.2021	06:00:48	0	0	2,259693	3,10125	26,9172	-0,45	85,196	0	1010,92	6,2	8,2	8,1	1	1	1	1	1	1	1	1	1	0	1	-0	273,400968	316,798599	0
15.01.2021	06:00:49	0	0	4,067447	2,931	18,828	-0,453	85,201	0	1011	6,2	8,2	8,1	1	1	1	1	1	1	1	1	1	0	1	-1,62086	273,486062	315,572328	0
15.01.2021	06:00:50	0	0	2,598647	3,0015	25,4232	-0,453	85,198	0	1010,88	6,2	8,2	8,1	1	1	1	1	1	1	1	1	1	0	1	-5,919662	273,436979	311,045878	0
15.01.2021	06:00:51	0	0	3,728515	2,88375	36,3024	-0,447	85,204	0	1010,9	6,2	8,2	8	1	1	1	1	1	1	1	1	1	0	1	-5,637773	273,584606	312,012834	0
15.01.2021	06:00:52	0	0	4,406401	2,655	35,856	-0,449	85,201	0	1011,02	6,2	8,2	8,1	1	1	1	1	1	1	1	1	1	0	1	-5,919662	273,549768	311,569179	0
15.01.2021	06:00:53	0	0	4,519385	2,44125	26,1792	-0,451	85,207	0	1011	6,1	8,2	8,1	1	1	1	1	1	1	1	1	1	0	1	-0,845666	273,587513	316,818438	0
15.01.2021	06:00:54	0	0	4,971324	2,52	12,492	-0,448	85,186	0	1010,92	6,2	8,2	8,1	1	1	1	1	1	1	1	1	1	0	1	-0,352361	273,504863	316,928055	0
15.01.2021	06:00:55	0	0	2,9376	2,36475	29,0952	-0,451	85,193	0	1010,88	6,2	8,2	8,1	1	1	1	1	1	1	1	1	1	0	1	-0,634249	273,600595	317,090619	0
15.01.2021	06:00:56	0	0	3,61553	2,115	26,1576	-0,448	85,181	0	1010,96	6,2	8,2	8	1	1	1	1	1	1	1	1	1	0	1	-5,567301	273,487508	311,632593	0
15.01.2021	06:00:57	0	0	4,519385	2,07975	35,0856	-0,45	85,191	0	1010,92	6,2	8,2	8,1	1	1	1	1	1	1	1	1	1	0	1	-6,483439	273,594779	311,214417	0
15.01.2021	06:00:58	0	0	3,728493	2,016	36,2196	-0,449	85,201	0	1010,72	6,2	8,2	8,1	1	1	1	1	1	1	1	1	1	0	1	-5,990134	273,461505	311,089142	0
15.01.2021	06:00:59	0	0	3,502545	1,98675	23,6052	-0,456	85,197	0	1010,86	6,2	8,2	8	1	1	1	1	1	1	1	1	1	0	1	-1,268499	273,557021	316,254014	0
15.01.2021	06:01:00	0	0	4,858368	1,87275	15,3972	-0,446	85,201	0	1011,02	6,2	8,2	8	1	1	1	1	1	1	1	1	1	0	1	-1,268499	273,421126	315,62354	0
15.01.2021	06:01:01	0	0	4,858368	1,87275	15,3972	-0,446	85,201	0	1011,02	6,2	8,2	8	1	1	1	1	1	1	1	1	1	0	1	-1,268499	273,421126	315,62354	0
15.01.2021	06:01:02	0	0	4,519385	1,84875	7,884	-0,445	85,204	0	1010,94	6,2	8,2	8,1	1	1	1	1	1	1	1	1	1	0	1	-4,933051	273,455731	312,119447	0
15.01.2021	06:01:03	0	0	4,180456	2,0805	13,1616	-0,451	85,2	0	1011,02	6,2	8,2	8	1	1	1	1	1	1	1	1	1	0	1	-5,84919	273,588966	311,821663	0
15.01.2021	06:01:04	0	0	4,067447	2,1735	13,554	-0,445	85,202	0	1011,1	6,1	8,2	8,1	1	1	1	1	1	1	1	1	1	0	1	-3,312192	273,532373	314,095899	0
15.01.2021	06:01:05	0	0	4,067447	2,274	3,8304	-0,449	85,194	0	1011,02	6,2	8,2	8,1	1	1	1	1	1	1	1	1	1	0	1	-5,84919	273,575891	311,760943	0
15.01.2021	06:01:06	0	0	2,9376	2,60325	24,7284	-0,456	85,191	0	1010,88	6,2	8,1	8,1	1	1	1	1	1	1	1	1	1	0	1	-5,990134	273,425448	310,921943	0
15.01.2021	06:01:07	0	0	4,63237	2,84625	33,2604	-0,448	85,198	0	1010,96	6,2	8,2	8,1	1	1	1	1	1	1	1	1	1	0	1	-2,325581	273,490399	314,887727	0
15.01.2021	06:01:08	0	0	3,050603	3,0705	8,604	-0,45	85,179	0	1011,12	6,2	8,2	8	1	1	1	1	1	1	1	1	1	0	1	-1,691332	273,593326	315,999772	0
15.01.2021	06:01:09	0	0	4,406427	3,13875	15,3936	-0,447	85,199	0	1010,92	6,2	8,2	8	1	1	1	1	1	1	1	1	1	0	1	-3,875969	273,532373	313,532121	0
15.01.2021	06:01:10	0	0	3,389559	2,9895	12,4668	-0,449	85,195	0	1011,02	6,2	8,2	8	1	1	1	1	1	1	1	1	1	0	1	-3,312192	273,425448	313,599886	0
15.01.2021	06:01:11	0	0	3,728515	2,7645	18,846	-0,448	85,202	0	1010,88	6,2	8,2	8	1	1	1	1	1	1	1	1	1	0	1	-0	273,586059	317,657355	0
15.01.2021	06:01:12	0	0	4,293442	2,69325	2,2968	-0,444	85,2	0	1010,96	6,2	8,2	8	1	1	1	1	1	1	1	1	1	0	1	-4,933051	273,542518	312,522132	0
15.01.2021	06:01:13	0	0	4,293442	2,823	16,5024	-0,443	85,2	0	1010,8	6,2	8,2	8	1	1	1	1	1	1	1	1	1	0	1	-4,439746	273,591872	313,244607	0
15.01.2021	06:01:14	0	0	4,519412	3,30525	16,4772	-0,448	85,19	0	1010,96	6,1	8,2	8	1	1	1	1	1	1	1	1	1	0	1	-3,100775	273,528027	314,287141	0
15.01.2021	06:01:15	0	0	3,389559	3,58575	11,7252	-0,446	85,197	0	1010,9	6,2	8,2	8	1	1	1	1	1	1	1	1	1	0	1	-2,748414	273,422567	314,150303	0
15.01.2021	06:01:16	0	0	4,745383	3,59475	10,5336	-0,443	85,194	0	1010,98	6,2	8,1	8	1	1	1	1	1	1	1	1	1	0	1	-2,889359	273,539619	314,552367	0
15.01.2021	06:01:17	0	0	3,163589	3,786	12,8448	-0,454	85,188	0	1010,86	6,2	8,2	8	1	1	1	1	1	1	1	1	1	0	1	-5,355884	273,513546	311,964826	0
15.01.2021	06:01:18	0	0	4,971354	3,88875	5,22	-0,444	85,19	0	1011,02	6,2	8,2	8	1	1	1	1	1	1	1	1	1	0	1	-2,818887	273,606412	314,933005	0
15.01.2021	06:01:19	0	0	2,711647	4,02675	3,4128	-0,451	85,189	0	1010,84	6,2	8,2	8	1	1	1	1	1	1	1	1	1	0	1	-4,369274	273,448517	312,649766	0
15.01.2021	06:01:20	0	0	3,276574	4,29075	6,156	-0,447	85,196	0	1011	6,2	8,2	8	1	1	1	1	1	1	1	1	1	0	1	-5,567301	273,548318	311,914807	0
15.01.2021	06:01:21	0	0	4,067471	4,47975	3,042	-0,452	85,188	0	1010,84	6,2	8,2	8	1	1	1	1	1	1	1	1	1	0	1	-3,664553	273,596233	314,040056	0
15.01.2021	06:01:22	0	0	3,61553	4,3665	7,5132	-0,448	85,187	0	1011,12	6,2	8,2	8	1	1	1	1	1	1	1	1	1	0	1	-3,171247	273,522233	314,189779	0
15.01.2021	06:01:23	0	0	5,084339	3,89475	17,226	-0,449	85,179	0	1010,98	6,2	8,2	8	1	1	1	1	1	1	1	1	1	0	1	-1,832276	273,460061	315,240304	0
15.01.2021	06:01:24	0	0	2,711631	3,4875	16,9596	-0,448	85,178	0	1010,94	6,2	8,2	8,1	1	1	1	1	1	1	1	1	1	0	1	-4,933051	273,575891	312,677081	0
15.01.2021	06:01:25	0	0	4,293442	3,1875	20,286	-0,445	85,176	0	1010,96	6,2	8,2	8	1	1	1	1	1	1	1	1	1	0	1	-4,933051	273,513546	312,387659	0
15.01.2021	06:01:26	0	0	4,745383	2,9985	21,0132	-0,445	85,188	0	1010,92	6,2	8,2	8	1	1	1	1	1	1	1	1	1	0	1	-6,20155	273,597687	311,509811	0
15.01.2021	06:01:27	0	0	4,63237	2,805	21,3984	-0,448	85,193	0	1010,8	6,2	8,2	8,1	1	1	1	1	1	1	1	1	1	0	1	-6,060606	273,49763	311,186249	0
15.01.2021	06:01:28	0	0	3,615508	2,955	13,9176	-0,441	85,197	0	1010,94	6,2	8,2	8,1	1	1	1	1	1	1	1	1	1	0	1	-5,990134	273,458618	311,075752	0
15.01.2021	06:01:29	0	0	3,841478	2,9355	15,0516	-0,452	85,189	0	1010,98	6,2	8,2	8,1	1	1	1	1	1	1	1	1	1	0	1	-5,355884	273,588966	312,314969	0
15.01.2021	06:01:30	0	0	3,276554	3,006	19,5372	-0,447	85,173	0	1011	6,2	8,2	8,1	1	1	1	1	1	1	1	1	1	0	1	-3,664553	273,493291	313,562172	0
15.01.2021	06:01:31	0	0	3,050603	3,21525	18,5616	-0,453	85,171	0	1010,82	6,2	8,2	8	1	1	1	1	1	1	1	1	1	0	1	-5,637773	273,424007	311,267624	0
15.01.2021	06:01:32	0	0	4,858368	3,26475	15,0408	-0,445	85,167	0	1010,92	6,2	8,2	8	1	1	1	1	1	1	1	1	1	0	1	-9,654686	273,517889	307,686179	0
15.01.2021	06:01:33	0	0	4,180456	3,41025	17,2476	-0,45	85,179	0	1010,94	6,2	8,2	8	1	1	1	1	1	1	1	1	1	0	1	-2,325581	273,445632	314,68008	0
15.01.2021	06:01:34	0	0	4,632398	3,555	12,8592	-0,442	85,185	0	1010,98	6,2	8,2	8	1	1	1	1	1	1	1	1	1	0	1	-5,496829	273,422567	311,401889	0
15.01.2021	06:01:35	0	0	2,937618	3,522	21,4056	-0,448	85,169	0	1010,94	6,2	8,2	8	1	1	1	1	1	1	1	1	1	0	1	-0	273,52513	317,37447	0
15.01.2021	06:01:36	0	0	2,824633	3,3675	9,0108	-0,453	85,165	0	1010,94	6,2	8,1	8	1	1	1	1	1	1	1	1	1	0	1	-3,24172	273,406726	313,583565	0
15.01.2021	06:01:37	0	0	2,598662	3,41325	18,072	-0,445	85,178	0	1011,02	6,2	8,2	8	1	1	1	1	1	1	1	1	1	0	1	-6,20155	273,510651	311,105726	0
15.01.2021	06:01:38	0	0	2,598662	3,582	21,402	-0,448	85,156	0	1010,94	6,2	8,1	8	1	1	1	1	1	1	1	1	1	0	1	-4,580691	273,594779	313,117165	0
15.01.2021	06:01:39	0	0	4,745383	3,63	19,908	-0,446	85,169	0	1010,88	6,2	8,2	8	1	1	1	1	1	1	1	1	1	0	1	-2,818887	273,475947	314,327375	0
15.01.2021	06:01:40	0	0	3,050603	3,759	13,9212	-0,444	85,159	0	1010,98	6,2	8,2	8	1	1	1	1	1	1	1	1	1	0	1	-4,369274	273,470169	312,750186	0
15.01.2021	06:01:41	0	0	4,519412	4,05975	12,8592	-0,447	85,173	0	1011,02	6,2	8,2	8	1	1	1	1	1	1	1	1	1	0	1	-5,073996	273,603503	312,664383	0
15.01.2021	06:01:42	0	0	4,406427	4,22025	11,7324	-0,444	85,163	0	1011	6,2	8,2	8	1	1	1	1	1	1	1	1	1	0	1	-3,100775	273,539619	314,34095	0
15.01.2021	06:01:43	0	0	3,61553	4,22175	9,3708	-0,442	85,167	0	1010,92	6,2	8,2	8	1	1	1	1	1	1	1	1	1	0	1	-6,694856	273,596233	311,009753	0
15.01.2021	06:01:44	0	0	3,502545	4,06875	10,0656	-0,442	85,154	0	1010,9	6,2	8,2	8	1	1	1	1	1	1	1	1	1	0	1	-5,355884	273,604958	312,389251	0
15.01.2021	06:01:45	0	0	4,180456	3,80475	11,5272	-0,443	85,158	0	1010,94	6,2	8,2	8	1	1	1	1	1	1	1	1	1	0	1	-4,439746	273,484617	312,746736	0
15.01.2021	06:01:46	0	0	3,050603	3,84975	11,1996	-0,443	85,151	0	1011	6,2	8,2	8	1	1	1	1	1	1	1	1	1	0	1	-4,721635	273,478836	312,438031	0
15.01.2021	06:01:47	0	0	3,163589	3,71775	14,6772	-0,445	85,154	0	1010,92	6,2	8,2	8	1	1	1	1	1	1	1	1	1	0	1	-8,245243	273,588966	309,42561	0
15.01.2021	06:01:48	0	0	3,050603	3,46575	12,456	-0,447	85,147	0	1010,9	6,1	8,2	8	1	1	1	1	1	1	1	1	1	0	1	-3,382664	273,568631	314,193756	0
15.01.2021	06:01:49	0	0	4,293442	3,372	21,7656	-0,448	85,154	0	1011	6,2	8,2	8	1	1	1	1	1	1	1	1	1	0	1	-4,369274	273,599141	313,348841	0
15.01.2021	06:01:50	0	0	2,824633	3,33825	13,932	-0,442	85,153	0	1010,98	6,2	8,2	8	1	1	1	1	1	1	1	1	1	0	1	-3,875969	273,494737	313,357465	0
15.01.2021	06:01:51	0	0	4,406427	3,42675	14,3028	-0,443	85,151	0	1011,04	6,2	8,2	8	1	1	1	1	1	1	1	1	1	0	1	-7,329105	273,571535	310,260798	0
15.01.2021	06:01:52	0	0	3,954486	3,45075	9,3744	-0,441	85,143	0	1011,04	6,2	8,1	8	1	1	1	1	1	1	1	1	1	0	1	-5,990134	273,481726	311,182939	0
15.01.2021	06:01:53	0	0	4,632398	3,681	1,1916	-0,443	85,146	0	1010,98	6,2	8,2	8	1	1	1	1	1	1	1	1	1	0	1	-5,355884	273,465836	311,74348	0
15.01.2021	06:01:54	0	0	4,745383	3,6495	16,4736	-0,447	85,148	0	1010,9	6,2	8,2	8	1	1	1	1	1	1	1	1	1	0	1	-4,157858	273,597687	313,553504	0
15.01.2021	06:01:55	0	0	4,519412	3,3765	19,5264	-0,444	85,146	0	1011,02	6,2	8,2	8	1	1	1	1	1	1	1	1	1	0	1	-6,131078	273,500522	311,129199	0
15.01.2021	06:01:56	0	0	4,632398	3,108	7,5096	-0,441	85,143	0	1011	6,2	8,2	8	1	1	1	1	1	1	1	1	1	0	1	-3,382664	273,600595	314,342205	0
15.01.2021	06:01:57	0	0	3,163589	2,757	16,4808	-0,451	85,132	0	1010,98	6,2	8,2	8	1	1	1	1	1	1	1	1	1	0	1	-1,409443	273,590419	316,26816	0
15.01.2021	06:01:58	0	0	4,971354	2,55075	17,226	-0,44	85,141	0	1010,96	6,2	8,2	8	1	1	1	1	1	1	1	1	1	0	1	-2,818887	273,542518	314,636297	0
15.01.2021	06:01:59	0	0	2,598662	2,5125	19,152	-0,441	85,143	0	1010,98	6,2	8,1	8	1	1	1	1	1	1	1	1	1	0	1	-5,496829	273,594779	312,201027	0
15.01.2021	06:02:00	0	0	3,954486	2,58975	14,2992	-0,438	85,143	0	1010,92	6,2	8,2	8	1	1	1	1	1	1	1	1	1	0	1	-6,483439	273,609322	311,281968	0
15.01.2021	06:02:01	0	0	3,954486	2,58975	14,2992	-0,438	85,143	0	1010,92	6,2	8,2	8	1	1	1	1	1	1	1	1	1	0	1	-6,483439	273,609322	311,281968	0
15.01.2021	06:02:02	0	0	4,971354	2,61525	20,2932	-0,444	85,134	0	1010,98	6,2	8,2	8	1	1	1	1	1	1	1	1	1	0	1	-3,664553	273,593326	314,026552	0
15.01.2021	06:02:03	0	0	2,711647	2,90325	26,1684	-0,447	85,125	0	1010,96	6,2	8,1	8	1	1	1	1	1	1	1	1	1	0	1	-5,778717	273,504863	311,501699	0
15.01.2021	06:02:04	0	0	2,259706	2,964	22,086	-0,44	85,126	0	1010,96	6,2	8,2	8	1	1	1	1	1	1	1	1	1	0	1	-3,946441	273,422567	312,952277	0
15.01.2021	06:02:05	0	0	4,519412	3,18	28,7316	-0,445	85,133	0	1010,96	6,2	8,2	8	1	1	1	1	1	1	1	1	1	0	1	-4,439746	273,530924	312,961619	0
15.01.2021	06:02:06	0	0	3,841501	3,16425	360	-0,445	85,11	0	1010,94	6,2	8,2	8	1	1	1	1	1	1	1	1	1	0	1	-7,117689	273,526578	310,263505	0
15.01.2021	06:02:07	0	0	4,067471	3,108	13,9176	-0,444	85,119	0	1011	6,2	8,2	8	1	1	1	1	1	1	1	1	1	0	1	-3,59408	273,532373	313,81401	0
15.01.2021	06:02:08	0	0	2,711647	2,8935	13,914	-0,446	85,118	0	1010,98	6,2	8,1	8	1	1	1	1	1	1	1	1	1	0	1	-0,140944	273,46728	316,965118	0
15.01.2021	06:02:09	0	0	4,971354	2,62275	22,8204	-0,447	85,107	0	1010,84	6,2	8,2	8	1	1	1	1	1	1	1	1	1	0	1	-4,721635	273,568631	312,854785	0
15.01.2021	06:02:10	0	0	3,954486	2,475	16,866	-0,446	85,124	0	1010,86	6,2	8,2	8	1	1	1	1	1	1	1	1	1	0	1	-6,412967	273,471613	310,713192	0
15.01.2021	06:02:11	0	0	2,937618	2,4045	22,4568	-0,443	85,126	0	1010,96	6,2	8,2	8	1	1	1	1	1	1	1	1	1	0	1	-4,792107	273,429772	312,140014	0
15.01.2021	06:02:12	0	0	4,632398	2,54625	19,1412	-0,44	85,118	0	1011	6,2	8,2	8	1	1	1	1	1	1	1	1	1	0	1	-0,563777	273,488953	316,642824	0
15.01.2021	06:02:13	0	0	2,711647	2,53575	16,1136	-0,446	85,12	0	1010,82	6,2	8,1	8	1	1	1	1	1	1	1	1	1	0	1	-0,281889	273,441305	316,703709	0
15.01.2021	06:02:14	0	0	3,163589	2,44425	11,7108	-0,445	85,121	0	1010,88	6,2	8,1	8	1	1	1	1	1	1	1	1	1	0	1	-6,060606	273,529475	311,334034	0
15.01.2021	06:02:15	0	0	4,745383	2,487	24,7284	-0,439	85,134	0	1011,06	6,2	8,2	8	1	1	1	1	1	1	1	1	1	0	1	-3,24172	273,606412	314,510172	0
15.01.2021	06:02:16	0	0	4,067471	2,62575	19,5372	-0,447	85,114	0	1010,88	6,2	8,2	8	1	1	1	1	1	1	1	1	1	0	1	-2,043693	273,55412	315,465349	0
15.01.2021	06:02:17	0	0	4,180456	2,6475	20,6316	-0,444	85,115	0	1011,1	6,2	8,2	8	1	1	1	1	1	1	1	1	1	0	1	-4,651163	273,575891	312,958969	0
15.01.2021	06:02:18	0	0	2,937618	2,7135	21,762	-0,443	85,108	0	1011,02	6,2	8,1	8	1	1	1	1	1	1	1	1	1	0	1	-2,255109	273,602049	315,476514	0
15.01.2021	06:02:19	0	0	3,276574	2,7255	15,03	-0,441	85,125	0	1010,96	6,2	8,2	8	1	1	1	1	1	1	1	1	1	0	1	-7,82241	273,565728	309,740529	0
15.01.2021	06:02:20	0	0	4,293442	2,925	10,08	-0,439	85,111	0	1010,96	6,2	8,2	8	1	1	1	1	1	1	1	1	1	0	1	-3,171247	273,436979	313,794292	0
15.01.2021	06:02:21	0	0	3,050603	2,808	14,6664	-0,441	85,115	0	1010,98	6,2	8,2	8	1	1	1	1	1	1	1	1	1	0	1	-0	273,494737	317,233434	0
15.01.2021	06:02:22	0	0	3,841501	2,67975	14,6628	-0,438	85,127	0	1011,04	6,2	8,2	8	1	1	1	1	1	1	1	1	1	0	1	-2,959831	273,438421	314,012394	0
15.01.2021	06:02:23	0	0	4,406427	2,45625	18,0864	-0,439	85,113	0	1011,08	6,2	8,1	8	1	1	1	1	1	1	1	1	1	0	1	-2,60747	273,471613	314,518689	0
15.01.2021	06:02:24	0	0	2,937618	2,41275	16,4988	-0,443	85,116	0	1010,9	6,2	8,2	8	1	1	1	1	1	1	1	1	1	0	1	-4,298802	273,424007	312,606595	0
15.01.2021	06:02:25	0	0	4,519412	2,35725	7,128	-0,438	85,109	0	1010,92	6,2	8,1	8	1	1	1	1	1	1	1	1	1	0	1	-3,382664	273,481726	313,790409	0
15.01.2021	06:02:26	0	0	3,502545	2,33475	12,8592	-0,441	85,118	0	1010,96	6,2	8,2	8	1	1	1	1	1	1	1	1	1	0	1	-1,550388	273,473057	315,582472	0
15.01.2021	06:02:27	0	0	2,711647	2,3445	7,1352	-0,439	85,113	0	1010,92	6,2	8,2	8	1	1	1	1	1	1	1	1	1	0	1	-0,634249	273,431213	316,304554	0
15.01.2021	06:02:28	0	0	4,519412	2,2875	14,6448	-0,44	85,118	0	1010,96	6,2	8,2	8	1	1	1	1	1	1	1	1	1	0	1	-2,184637	273,535271	315,236905	0
15.01.2021	06:02:29	0	0	5,197324	2,2065	12,8664	-0,441	85,123	0	1011,04	6,2	8,1	8	1	1	1	1	1	1	1	1	1	0	1	-7,963354	273,594779	309,734502	0
15.01.2021	06:02:30	0	0	3,502545	2,16225	20,6244	-0,445	85,126	0	1010,98	6,2	8,1	8	1	1	1	1	1	1	1	1	1	0	1	-2,255109	273,493291	314,971616	0
15.01.2021	06:02:31	0	0	3,502545	2,3325	18,432	-0,444	85,115	0	1010,92	6,2	8,2	8	1	1	1	1	1	1	1	1	1	0	1	-4,298802	273,558472	313,230447	0
15.01.2021	06:02:32	0	0	3,728515	2,571	10,818	-0,44	85,118	0	1011,1	6,2	8,1	8	1	1	1	1	1	1	1	1	1	0	1	-3,312192	273,612231	314,466733	0
15.01.2021	06:02:33	0	0	3,841501	2,6715	15,8796	-0,444	85,107	0	1011,04	6,2	8,1	8	1	1	1	1	1	1	1	1	1	0	1	-5,778717	273,507757	311,515128	0
15.01.2021	06:02:34	0	0	3,163589	2,7915	21,006	-0,442	85,099	0	1011	6,2	8,1	8	1	1	1	1	1	1	1	1	1	0	1	-2,889359	273,42833	314,03608	0
15.01.2021	06:02:35	0	0	5,197324	2,8305	22,0824	-0,441	85,119	0	1011,02	6,2	8,2	8	1	1	1	1	1	1	1	1	1	0	1	-1,62086	273,55557	315,894917	0
15.01.2021	06:02:36	0	0	4,519412	2,8185	20,2716	-0,448	85,105	0	1010,94	6,2	8,2	8	1	1	1	1	1	1	1	1	1	0	1	-6,412967	273,618052	311,393	0
15.01.2021	06:02:37	0	0	4,519412	2,7555	28,35	-0,44	85,1	0	1010,88	6,2	8,2	8	1	1	1	1	1	1	1	1	1	0	1	-3,735025	273,444189	313,263948	0
15.01.2021	06:02:38	0	0	4,632398	2,90775	25,416	-0,44	85,111	0	1011,02	6,2	8,2	8	1	1	1	1	1	1	1	1	1	0	1	-5,990134	273,572987	311,606512	0
15.01.2021	06:02:39	0	0	3,502545	3,012	32,1516	-0,444	85,116	0	1010,88	6,2	8,2	8	1	1	1	1	1	1	1	1	1	0	1	-2,889359	273,597687	314,822003	0
15.01.2021	06:02:40	0	0	3,050603	2,928	16,956	-0,44	85,11	0	1011	6,2	8,1	8	1	1	1	1	1	1	1	1	1	0	1	-0	273,46728	317,106063	0
15.01.2021	06:02:41	0	0	5,31031	2,80875	16,4808	-0,44	85,106	0	1011,16	6,2	8,1	8	1	1	1	1	1	1	1	1	1	0	1	-3,100775	273,606412	314,651117	0
15.01.2021	06:02:42	0	0	2,824633	2,83575	29,1024	-0,436	85,115	0	1010,94	6,2	8,1	8	1	1	1	1	1	1	1	1	1	0	1	-6,8358	273,470169	310,28366	0
15.01.2021	06:02:43	0	0	2,711647	2,7855	9,7452	-0,44	85,13	0	1011,08	6,2	8,1	8	1	1	1	1	1	1	1	1	1	0	1	-2,255109	273,436979	314,71043	0
15.01.2021	06:02:44	0	0	3,389559	2,745	8,2692	-0,438	85,114	0	1010,96	6,2	8,1	8	1	1	1	1	1	1	1	1	1	0	1	-4,792107	273,529475	312,602533	0
15.01.2021	06:02:45	0	0	3,841501	2,75175	13,554	-0,439	85,113	0	1011,06	6,2	8,1	8	1	1	1	1	1	1	1	1	1	0	1	-5,990134	273,606412	311,761758	0
15.01.2021	06:02:46	0	0	4,180456	2,76075	9,378	-0,437	85,123	0	1011,12	6,2	8,1	8	1	1	1	1	1	1	1	1	1	0	1	-8,174771	273,583154	309,469089	0
15.01.2021	06:02:47	0	0	3,61553	2,80425	17,2512	-0,441	85,092	0	1010,96	6,2	8,2	8	1	1	1	1	1	1	1	1	1	0	1	-1,479915	273,478836	315,67975	0
15.01.2021	06:02:48	0	0	3,954486	2,79975	22,8564	-0,446	85,108	0	1010,86	6,2	8,1	8	1	1	1	1	1	1	1	1	1	0	1	-1,832276	273,607867	315,926373	0
15.01.2021	06:02:49	0	0	3,502545	2,81475	7,8912	-0,443	85,116	0	1010,88	6,2	8,2	8	1	1	1	1	1	1	1	1	1	0	1	-3,24172	273,572987	314,354926	0
15.01.2021	06:02:50	0	0	4,745383	2,8155	22,0824	-0,438	85,113	0	1010,98	6,2	8,1	8	1	1	1	1	1	1	1	1	1	0	1	-6,8358	273,575891	310,774332	0
15.01.2021	06:02:51	0	0	4,067471	2,8335	19,1412	-0,441	85,114	0	1010,94	6,2	8,2	8	1	1	1	1	1	1	1	1	1	0	1	-3,875969	273,606412	313,875923	0
15.01.2021	06:02:52	0	0	3,728515	2,8485	12,8592	-0,439	85,115	0	1011	6,2	8,1	8	1	1	1	1	1	1	1	1	1	0	1	-4,862579	273,517889	312,478287	0
15.01.2021	06:02:53	0	0	3,728515	2,8485	10,458	-0,445	85,1	0	1010,9	6,2	8,2	8	1	1	1	1	1	1	1	1	1	0	1	-4,651163	273,594779	313,046693	0
15.01.2021	06:02:54	0	0	4,180456	2,8005	9,7488	-0,442	85,1	0	1010,96	6,2	8,2	8	1	1	1	1	1	1	1	1	1	0	1	-0,775194	273,558472	316,754055	0
15.01.2021	06:02:55	0	0	4,293442	2,59725	11,1816	-0,44	85,106	0	1011,02	6,2	8,1	8	1	1	1	1	1	1	1	1	1	0	1	-8,45666	273,584606	309,193948	0
15.01.2021	06:02:56	0	0	4,406427	2,48475	13,9356	-0,438	85,11	0	1010,96	6,2	8,1	8	1	1	1	1	1	1	1	1	1	0	1	-1,973221	273,593326	315,717884	0
15.01.2021	06:02:57	0	0	4,858368	2,47125	13,1688	-0,44	85,112	0	1011,02	6,2	8,1	8	1	1	1	1	1	1	1	1	1	0	1	-6,412967	273,546868	311,062409	0
15.01.2021	06:02:58	0	0	2,937618	2,55975	12,8628	-0,436	85,115	0	1011,12	6,2	8,1	8	1	1	1	1	1	1	1	1	1	0	1	-3,664553	273,42833	313,260887	0
15.01.2021	06:02:59	0	0	2,598662	2,68875	9,7524	-0,44	85,101	0	1011	6,2	8,2	8	1	1	1	1	1	1	1	1	1	0	1	-1,973221	273,552669	315,529087	0
15.01.2021	06:03:00	0	0	4,180456	2,895	4,4784	-0,439	85,105	0	1011,14	6,2	8,2	8	1	1	1	1	1	1	1	1	1	0	1	-3,735025	273,422567	313,163693	0
15.01.2021	06:03:01	0	0	4,632398	3,144	6,444	-0,441	85,095	0	1011,12	6,2	8,1	8	1	1	1	1	1	1	1	1	1	0	1	-2,748414	273,541069	314,70004	0
15.01.2021	06:03:02	0	0	4,632398	3,144	6,444	-0,441	85,095	0	1011,12	6,2	8,1	8	1	1	1	1	1	1	1	1	1	0	1	-2,748414	273,541069	314,70004	0
15.01.2021	06:03:03	0	0	4,180456	3,09375	4,4712	-0,444	85,098	0	1010,88	6,2	8,1	8	1	1	1	1	1	1	1	1	1	0	1	-2,748414	273,593326	314,94269	0
15.01.2021	06:03:04	0	0	3,163589	3,093	8,6076	-0,435	85,099	0	1011,12	6,2	8,1	8	1	1	1	1	1	1	1	1	1	0	1	-1,691332	273,604958	316,053803	0
15.01.2021	06:03:05	0	0	4,745383	2,87025	18,8496	-0,438	85,108	0	1010,84	6,2	8,1	8	1	1	1	1	1	1	1	1	1	0	1	-1,057082	273,530924	316,344283	0
15.01.2021	06:03:06	0	0	4,745383	2,73675	12,474	-0,435	85,097	0	1011,04	6,2	8,1	8	1	1	1	1	1	1	1	1	1	0	1	-1,832276	273,604958	315,912859	0
15.01.2021	06:03:07	0	0	4,519412	2,856	10,818	-0,437	85,097	0	1010,96	6,2	8,1	8	1	1	1	1	1	1	1	1	1	0	1	-2,889359	273,507757	314,404487	0
15.01.2021	06:03:08	0	0	3,728515	3,159	16,866	-0,426	85,102	0	1011,06	6,2	8,2	8	1	1	1	1	1	1	1	1	1	0	1	-5,285412	273,604958	312,459723	0
15.01.2021	06:03:09	0	0	3,163589	3,399	4,1652	-0,439	85,112	0	1010,98	6,2	8,1	8	1	1	1	1	1	1	1	1	1	0	1	-2,325581	273,53817	315,109416	0
15.01.2021	06:03:10	0	0	3,389559	3,7455	1,5624	-0,438	85,102	0	1010,96	6,2	8,1	8	1	1	1	1	1	1	1	1	1	0	1	-0,98661	273,606412	316,765282	0
15.01.2021	06:03:11	0	0	2,824633	3,78675	1,5732	-0,439	85,097	0	1010,9	6,2	8,1	8	1	1	1	1	1	1	1	1	1	0	1	-3,946441	273,504863	313,333975	0
15.01.2021	06:03:12	0	0	3,728515	3,372	18,0828	-0,437	85,104	0	1010,88	6,2	8,2	8	1	1	1	1	1	1	1	1	1	0	1	-2,536998	273,570083	315,046163	0
15.01.2021	06:03:13	0	0	4,406427	3,09975	13,5504	-0,438	85,085	0	1010,86	6,2	8,2	8	1	1	1	1	1	1	1	1	1	0	1	-3,030303	273,600595	314,694566	0
15.01.2021	06:03:14	0	0	4,067471	2,8905	13,9284	-0,437	85,102	0	1011	6,2	8,1	8	1	1	1	1	1	1	1	1	1	0	1	-1,973221	273,519337	315,374365	0
15.01.2021	06:03:15	0	0	3,502545	2,817	17,2296	-0,44	85,092	0	1011,08	6,2	8,1	8	1	1	1	1	1	1	1	1	1	0	1	-7,892882	273,432654	309,052604	0
15.01.2021	06:03:16	0	0	4,632398	2,96175	6,822	-0,438	85,099	0	1010,96	6,2	8,1	8	1	1	1	1	1	1	1	1	1	0	1	-2,818887	273,49763	314,427968	0
15.01.2021	06:03:17	0	0	3,728515	3,129	12,096	-0,434	85,097	0	1010,98	6,2	8,1	8	1	1	1	1	1	1	1	1	1	0	1	-4,016913	273,610777	313,755252	0
15.01.2021	06:03:18	0	0	4,858368	3,04875	25,8012	-0,433	85,079	0	1010,96	6,2	8,1	8	1	1	1	1	1	1	1	1	1	0	1	-2,959831	273,55412	314,549211	0
15.01.2021	06:03:19	0	0	3,61553	3,018	22,086	-0,433	85,087	0	1010,84	6,2	8,1	8	1	1	1	1	1	1	1	1	1	0	1	-4,22833	273,600595	313,496539	0
15.01.2021	06:03:20	0	0	4,519412	3,10875	15,048	-0,436	85,078	0	1011	6,2	8,2	8	1	1	1	1	1	1	1	1	1	0	1	-5,637773	273,499076	311,615793	0
15.01.2021	06:03:21	0	0	4,067471	3,1905	12,8556	-0,435	85,079	0	1011	6,2	8,1	8	1	1	1	1	1	1	1	1	1	0	1	-1,973221	273,593326	315,717884	0
15.01.2021	06:03:22	0	0	3,502545	3,222	22,8276	-0,435	85,094	0	1010,96	6,2	8,1	8	1	1	1	1	1	1	1	1	1	0	1	-6,272023	273,501969	310,994967	0
15.01.2021	06:03:23	0	0	4,745383	3,3105	21,384	-0,434	85,092	0	1010,98	6,2	8,1	8	1	1	1	1	1	1	1	1	1	0	1	-6,060606	273,557021	311,461907	0
15.01.2021	06:03:24	0	0	4,858368	3,20625	22,842	-0,442	85,082	0	1010,96	6,2	8,1	8	1	1	1	1	1	1	1	1	1	0	1	-3,100775	273,470169	314,018685	0
15.01.2021	06:03:25	0	0	3,163589	3,333	26,172	-0,433	85,096	0	1010,94	6,2	8,1	8	1	1	1	1	1	1	1	1	1	0	1	-6,694856	273,425448	310,217222	0
15.01.2021	06:03:26	0	0	4,406427	3,513	23,2308	-0,434	85,075	0	1010,94	6,2	8,1	8	1	1	1	1	1	1	1	1	1	0	1	-6,8358	273,487508	310,364094	0
15.01.2021	06:03:27	0	0	3,163589	3,42675	17,694	-0,432	85,09	0	1010,98	6,2	8,1	8	1	1	1	1	1	1	1	1	1	0	1	-6,272023	273,572987	311,324623	0
15.01.2021	06:03:28	0	0	4,745383	3,234	19,1448	-0,431	85,094	0	1010,9	6,2	8,1	8	1	1	1	1	1	1	1	1	1	0	1	-6,765328	273,604958	310,979807	0
15.01.2021	06:03:29	0	0	4,858368	3,08025	12,4812	-0,433	85,085	0	1011,12	6,2	8,1	8	1	1	1	1	1	1	1	1	1	0	1	-7,188161	273,484617	309,998322	0
15.01.2021	06:03:30	0	0	4,971354	3,0075	10,0692	-0,433	85,083	0	1010,98	6,2	8,1	8	1	1	1	1	1	1	1	1	1	0	1	-7,82241	273,431213	309,116393	0
15.01.2021	06:03:31	0	0	4,519412	2,9445	8,2692	-0,435	85,084	0	1010,94	6,2	8,1	8	1	1	1	1	1	1	1	1	1	0	1	-4,298802	273,532373	313,109288	0
15.01.2021	06:03:32	0	0	4,632398	2,89725	6,0804	-0,431	85,087	0	1011,08	6,2	8,1	8	1	1	1	1	1	1	1	1	1	0	1	-2,677942	273,429772	314,254179	0
15.01.2021	06:03:33	0	0	4,745383	2,9715	359,8488	-0,433	85,084	0	1010,92	6,2	8,1	8	1	1	1	1	1	1	1	1	1	0	1	-4,157858	273,557021	313,364655	0
15.01.2021	06:03:34	0	0	4,858368	2,913	357,5664	-0,437	85,081	0	1010,84	6,2	8,2	8	1	1	1	1	1	1	1	1	1	0	1	-5,990134	273,471613	311,136025	0
15.01.2021	06:03:35	0	0	4,519412	2,72325	3,1212	-0,435	85,113	0	1011,14	6,2	8,1	8	1	1	1	1	1	1	1	1	1	0	1	-2,959831	273,619508	314,852899	0
15.01.2021	06:03:36	0	0	4,293442	2,754	3,762	-0,433	85,083	0	1010,94	6,2	8,1	8	1	1	1	1	1	1	1	1	1	0	1	-3,24172	273,52513	314,132751	0
15.01.2021	06:03:37	0	0	2,824633	2,901	4,4532	-0,44	85,079	0	1010,96	6,2	8,1	8	1	1	1	1	1	1	1	1	1	0	1	-3,100775	273,588966	314,570078	0
15.01.2021	06:03:38	0	0	4,632398	3,0705	15,7968	-0,43	85,09	0	1010,96	6,2	8,1	8	1	1	1	1	1	1	1	1	1	0	1	-3,100775	273,53672	314,327494	0
15.01.2021	06:03:39	0	0	3,276574	3,02625	12,1068	-0,434	85,087	0	1010,98	6,2	8,1	8	1	1	1	1	1	1	1	1	1	0	1	-5,708245	273,432654	311,237241	0
15.01.2021	06:03:40	0	0	4,858368	3,0285	1,9368	-0,434	85,071	0	1011,02	6,2	8,1	8	1	1	1	1	1	1	1	1	1	0	1	-0	273,558472	317,529249	0
15.01.2021	06:03:41	0	0	4,858368	2,95125	6,4476	-0,439	85,071	0	1010,9	6,2	8,1	8	1	1	1	1	1	1	1	1	1	0	1	-1,550388	273,431213	315,388416	0
15.01.2021	06:03:42	0	0	2,711647	2,84175	16,4844	-0,434	85,084	0	1011,08	6,2	8,1	8	1	1	1	1	1	1	1	1	1	0	1	-2,466526	273,444189	314,532447	0
15.01.2021	06:03:43	0	0	3,050603	2,79375	16,11	-0,438	85,08	0	1011,08	6,2	8,1	8	1	1	1	1	1	1	1	1	1	0	1	-5,990134	273,470169	311,129326	0
15.01.2021	06:03:44	0	0	3,276574	2,73225	9	-0,435	85,06	0	1010,9	6,2	8,2	8	1	1	1	1	1	1	1	1	1	0	1	-6,624383	273,612231	311,154541	0
15.01.2021	06:03:45	0	0	4,971354	2,598	21,402	-0,432	85,087	0	1011,04	6,2	8,1	8	1	1	1	1	1	1	1	1	1	0	1	-4,651163	273,50631	312,635968	0
15.01.2021	06:03:46	0	0	3,841501	2,81625	9,7236	-0,433	85,08	0	1010,92	6,2	8,1	8	1	1	1	1	1	1	1	1	1	0	1	-6,624383	273,465836	310,474982	0
15.01.2021	06:03:47	0	0	4,858368	3,1845	359,658	-0,43	85,085	0	1011	6,2	8,2	8	1	1	1	1	1	1	1	1	1	0	1	-4,016913	273,494737	313,216521	0
15.01.2021	06:03:48	0	0	2,598662	3,57375	0,5004	-0,436	85,08	0	1011,02	6,2	8,1	8	1	1	1	1	1	1	1	1	1	0	1	-3,382664	273,439863	313,596247	0
15.01.2021	06:03:49	0	0	5,31031	3,71925	9,3816	-0,435	85,077	0	1010,96	6,2	8,1	8	1	1	1	1	1	1	1	1	1	0	1	-3,382664	273,462949	313,703308	0
15.01.2021	06:03:50	0	0	2,598662	3,57075	10,7964	-0,434	85,079	0	1011,08	6,2	8,1	8	1	1	1	1	1	1	1	1	1	0	1	-5,003524	273,442747	311,988761	0
15.01.2021	06:03:51	0	0	2,937618	3,20475	2,6532	-0,428	85,088	0	1010,9	6,2	8,1	8	1	1	1	1	1	1	1	1	1	0	1	-3,875969	273,42833	313,04947	0
15.01.2021	06:03:52	0	0	3,163589	2,90325	3,7764	-0,433	85,085	0	1011	6,2	8,1	8	1	1	1	1	1	1	1	1	1	0	1	-1,409443	273,53672	316,018826	0
15.01.2021	06:03:53	0	0	4,293442	2,82525	1,5696	-0,432	85,087	0	1011,04	6,2	8,1	8	1	1	1	1	1	1	1	1	1	0	1	-3,59408	273,599141	314,124034	0
15.01.2021	06:03:54	0	0	4,180456	2,99925	9,45	-0,437	85,093	0	1011,02	6,2	8,1	8	1	1	1	1	1	1	1	1	1	0	1	-1,62086	273,574439	315,982529	0
15.01.2021	06:03:55	0	0	2,824633	2,961	4,842	-0,435	85,083	0	1010,92	6,2	8,1	8	1	1	1	1	1	1	1	1	1	0	1	-3,453136	273,609322	314,312271	0
15.01.2021	06:03:56	0	0	3,050603	2,781	7,8804	-0,428	85,09	0	1010,92	6,2	8,1	8	1	1	1	1	1	1	1	1	1	0	1	-9,231853	273,523681	308,135895	0
15.01.2021	06:03:57	0	0	4,632398	2,69175	12,852	-0,433	85,068	0	1010,82	6,2	8,1	8	1	1	1	1	1	1	1	1	1	0	1	-8,104299	273,578796	309,519323	0
15.01.2021	06:03:58	0	0	4,632398	2,70525	13,2444	-0,43	85,074	0	1010,94	6,2	8,1	8	1	1	1	1	1	1	1	1	1	0	1	-0,493305	273,613686	317,292379	0
15.01.2021	06:03:59	0	0	4,858368	2,7285	5,6844	-0,436	85,067	0	1011,04	6,2	8,1	8	1	1	1	1	1	1	1	1	1	0	1	-2,959831	273,480281	314,206538	0
15.01.2021	06:04:00	0	0	5,197324	2,748	10,4436	-0,432	85,067	0	1011,12	6,2	8,1	8	1	1	1	1	1	1	1	1	1	0	1	-3,735025	273,593326	313,95608	0
15.01.2021	06:04:01	0	0	5,197324	2,748	10,4436	-0,432	85,067	0	1011,12	6,2	8,1	8	1	1	1	1	1	1	1	1	1	0	1	-3,735025	273,593326	313,95608	0
15.01.2021	06:04:02	0	0	4,745383	2,90175	11,8116	-0,427	85,073	0	1010,88	6,2	8,2	8	1	1	1	1	1	1	1	1	1	0	1	-6,906272	273,575891	310,70386	0
15.01.2021	06:04:03	0	0	2,598662	3,06375	355,5072	-0,428	85,075	0	1010,98	6,2	8,1	8	1	1	1	1	1	1	1	1	1	0	1	-1,550388	273,477391	315,602576	0
15.01.2021	06:04:04	0	0	4,971354	3,066	1,9332	-0,435	85,072	0	1010,98	6,2	8,2	8	1	1	1	1	1	1	1	1	1	0	1	-1,479915	273,606412	316,271976	0
15.01.2021	06:04:05	0	0	3,389559	2,8755	11,214	-0,436	85,075	0	1011	6,2	8,1	8	1	1	1	1	1	1	1	1	1	0	1	-3,946441	273,468724	313,16632	0
15.01.2021	06:04:06	0	0	4,293442	3,06525	4,4784	-0,435	85,066	0	1010,96	6,2	8,1	8	1	1	1	1	1	1	1	1	1	0	1	-0,493305	273,561374	317,049418	0
15.01.2021	06:04:07	0	0	3,163589	3,372	10,4472	-0,436	85,068	0	1010,94	6,2	8,1	8	1	1	1	1	1	1	1	1	1	0	1	-6,483439	273,421126	310,4086	0
15.01.2021	06:04:08	0	0	4,180456	3,40725	12,8628	-0,429	85,063	0	1011	6,2	8,1	8	1	1	1	1	1	1	1	1	1	0	1	-4,016913	273,587513	313,64719	0
15.01.2021	06:04:09	0	0	3,841501	3,02025	22,0788	-0,43	85,065	0	1010,86	6,2	8,2	8	1	1	1	1	1	1	1	1	1	0	1	-5,708245	273,509204	311,592315	0
15.01.2021	06:04:10	0	0	2,711647	2,75625	2,304	-0,432	85,071	0	1010,84	6,2	8,1	8	1	1	1	1	1	1	1	1	1	0	1	-5,144468	273,599141	312,573647	0
15.01.2021	06:04:11	0	0	4,180456	2,56275	11,7072	-0,437	85,064	0	1011,02	6,2	8,1	8	1	1	1	1	1	1	1	1	1	0	1	-4,721635	273,486062	312,471553	0
15.01.2021	06:04:12	0	0	3,163589	2,445	1,5588	-0,433	85,08	0	1010,94	6,2	8,1	8	1	1	1	1	1	1	1	1	1	0	1	-4,651163	273,444189	312,34781	0
15.01.2021	06:04:13	0	0	4,180456	2,34	15,0372	-0,436	85,051	0	1010,94	6,2	8,1	8	1	1	1	1	1	1	1	1	1	0	1	-4,087385	273,56718	313,482294	0
15.01.2021	06:04:14	0	0	2,937618	2,292	7,5132	-0,431	85,08	0	1011,08	6,2	8,1	8	1	1	1	1	1	1	1	1	1	0	1	-8,668076	273,431213	308,270727	0
15.01.2021	06:04:15	0	0	3,728515	2,32275	13,9248	-0,429	85,068	0	1011	6,2	8,1	8	1	1	1	1	1	1	1	1	1	0	1	-6,483439	273,464392	310,609229	0
15.01.2021	06:04:16	0	0	2,598662	2,45475	13,1652	-0,426	85,076	0	1011,04	6,2	8,1	8	1	1	1	1	1	1	1	1	1	0	1	-0,634249	273,431213	316,304554	0
15.01.2021	06:04:17	0	0	3,728515	2,41575	17,694	-0,43	85,054	0	1010,94	6,2	8,1	8	1	1	1	1	1	1	1	1	1	0	1	-3,100775	273,501969	314,166215	0
15.01.2021	06:04:18	0	0	3,163589	2,364	27,9756	-0,434	85,064	0	1010,8	6,2	8,1	8	1	1	1	1	1	1	1	1	1	0	1	-6,131078	273,603503	311,607301	0
15.01.2021	06:04:19	0	0	3,502545	2,20875	16,488	-0,434	85,055	0	1010,82	6,2	8,1	8	1	1	1	1	1	1	1	1	1	0	1	-5,144468	273,519337	312,203118	0
15.01.2021	06:04:20	0	0	3,841501	2,16675	19,6272	-0,431	85,065	0	1011	6,2	8,2	8	1	1	1	1	1	1	1	1	1	0	1	-2,466526	273,431213	314,472278	0
15.01.2021	06:04:21	0	0	2,824633	2,133	18,4572	-0,433	85,073	0	1010,88	6,2	8,1	8	1	1	1	1	1	1	1	1	1	0	1	-3,875969	273,488953	313,330632	0
15.01.2021	06:04:22	0	0	4,632398	2,01225	14,3028	-0,437	85,062	0	1010,96	6,2	8,2	8	1	1	1	1	1	1	1	1	1	0	1	-4,933051	273,604958	312,812084	0
15.01.2021	06:04:23	0	0	4,406427	2,16825	11,1924	-0,437	85,064	0	1011,04	6,2	8,2	8	1	1	1	1	1	1	1	1	1	0	1	-0	273,528027	317,387916	0
15.01.2021	06:04:24	0	0	2,824633	2,3175	13,1616	-0,428	85,08	0	1010,98	6,2	8,1	8	1	1	1	1	1	1	1	1	1	0	1	-3,664553	273,419685	313,220808	0
15.01.2021	06:04:25	0	0	3,276574	2,3985	16,1028	-0,432	85,062	0	1010,98	6,2	8,1	8	1	1	1	1	1	1	1	1	1	0	1	-2,889359	273,480281	314,27701	0
15.01.2021	06:04:26	0	0	5,084339	2,3505	12,0996	-0,438	85,054	0	1010,96	6,2	8,2	8	1	1	1	1	1	1	1	1	1	0	1	-5,84919	273,53817	311,585808	0
15.01.2021	06:04:27	0	0	3,61553	2,4165	6,444	-0,433	85,067	0	1011	6,2	8,1	8	1	1	1	1	1	1	1	1	1	0	1	-8,45666	273,435537	308,502195	0
15.01.2021	06:04:28	0	0	3,276574	2,592	11,1996	-0,433	85,062	0	1010,96	6,2	8,1	8	1	1	1	1	1	1	1	1	1	0	1	-4,369274	273,462949	312,716697	0
15.01.2021	06:04:29	0	0	3,502545	2,79975	5,2308	-0,43	85,066	0	1011,06	6,2	8,1	8	1	1	1	1	1	1	1	1	1	0	1	-1,127555	273,604958	316,617581	0
15.01.2021	06:04:30	0	0	4,858368	3,0615	360	-0,428	85,066	0	1011,06	6,2	8,1	8	1	1	1	1	1	1	1	1	1	0	1	-2,959831	273,503416	314,313872	0
15.01.2021	06:04:31	0	0	3,61553	3,4095	15,8616	-0,435	85,065	0	1010,92	6,2	8,1	8	1	1	1	1	1	1	1	1	1	0	1	-4,721635	273,577343	312,895242	0
15.01.2021	06:04:32	0	0	4,519412	3,46425	9,3816	-0,434	85,057	0	1011	6,2	8,1	8	1	1	1	1	1	1	1	1	1	0	1	-3,24172	273,468724	313,871041	0
15.01.2021	06:04:33	0	0	3,728515	3,51975	24,3252	-0,432	85,055	0	1010,96	6,2	8,1	8	1	1	1	1	1	1	1	1	1	0	1	-5,144468	273,613686	312,641216	0
15.01.2021	06:04:34	0	0	4,745383	3,3435	23,5836	-0,438	85,062	0	1010,96	6,2	8,1	8	1	1	1	1	1	1	1	1	1	0	1	-1,268499	273,49763	315,978356	0
15.01.2021	06:04:35	0	0	2,824633	3,20325	21,7764	-0,43	85,063	0	1011,06	6,2	8,1	8	1	1	1	1	1	1	1	1	1	0	1	-5,708245	273,606412	312,043647	0
15.01.2021	06:04:36	0	0	5,084339	3,225	11,196	-0,427	85,065	0	1011	6,2	8,1	8	1	1	1	1	1	1	1	1	1	0	1	-5,144468	273,56718	312,425212	0
15.01.2021	06:04:37	0	0	2,598662	3,387	1,1664	-0,428	85,063	0	1011,02	6,2	8,2	8	1	1	1	1	1	1	1	1	1	0	1	-1,973221	273,449959	315,05251	0
15.01.2021	06:04:38	0	0	2,259706	3,645	2,322	-0,431	85,071	0	1010,96	6,2	8,1	8	1	1	1	1	1	1	1	1	1	0	1	-1,832276	273,483172	315,347501	0
15.01.2021	06:04:39	0	0	4,745383	3,77775	13,1544	-0,436	85,067	0	1010,98	6,2	8,1	8	1	1	1	1	1	1	1	1	1	0	1	-2,818887	273,606412	314,933005	0
15.01.2021	06:04:40	0	0	2,033736	3,6975	3,78	-0,429	85,066	0	1010,92	6,2	8,1	8	1	1	1	1	1	1	1	1	1	0	1	-2,184637	273,546868	315,290739	0
15.01.2021	06:04:41	0	0	3,61553	3,6765	10,08	-0,429	85,059	0	1011	6,2	8,1	8	1	1	1	1	1	1	1	1	1	0	1	-2,043693	273,613686	315,741992	0
15.01.2021	06:04:42	0	0	4,858368	3,6165	12,4776	-0,43	85,046	0	1010,88	6,2	8,1	8	1	1	1	1	1	1	1	1	1	0	1	-6,272023	273,532373	311,136068	0
15.01.2021	06:04:43	0	0	3,050603	3,459	35,0928	-0,426	85,058	0	1011,06	6,2	8,1	8	1	1	1	1	1	1	1	1	1	0	1	-2,255109	273,604958	315,490026	0
15.01.2021	06:04:44	0	0	2,259706	3,09375	15,8112	-0,427	85,07	0	1011,22	6,2	8,2	8	1	1	1	1	1	1	1	1	1	0	1	-2,748414	273,541069	314,70004	0
15.01.2021	06:04:45	0	0	3,163589	3,01425	15,0408	-0,429	85,06	0	1010,98	6,2	8,1	8	1	1	1	1	1	1	1	1	1	0	1	-2,536998	273,425448	314,375079	0
15.01.2021	06:04:46	0	0	2,598662	3,17475	10,8216	-0,426	85,056	0	1011	6,2	8,1	8	1	1	1	1	1	1	1	1	1	0	1	-3,805497	273,549768	313,683344	0
15.01.2021	06:04:47	0	0	3,954486	3,1425	21,7692	-0,43	85,054	0	1011,06	6,2	8,1	8	1	1	1	1	1	1	1	1	1	0	1	-5,990134	273,600595	311,734735	0
15.01.2021	06:04:48	0	0	4,971354	3,0855	20,286	-0,427	85,062	0	1011,04	6,2	8,1	8	1	1	1	1	1	1	1	1	1	0	1	-0,845666	273,543968	316,616248	0
15.01.2021	06:04:49	0	0	3,276554	2,913	18,0828	-0,433	85,042	0	1011,06	6,2	8,2	8,1	1	1	1	1	1	1	1	1	1	0	1	-2,889359	273,55412	314,619683	0
15.01.2021	06:04:50	0	0	4,519412	2,7105	6,0624	-0,428	85,049	0	1010,94	6,2	8,1	8	1	1	1	1	1	1	1	1	1	0	1	-3,171247	273,442747	313,821038	0
15.01.2021	06:04:51	0	0	3,728515	2,7195	12,8628	-0,429	85,044	0	1011,04	6,2	8,1	8	1	1	1	1	1	1	1	1	1	0	1	-0,775194	273,512098	316,538799	0
15.01.2021	06:04:52	0	0	3,841501	2,7345	14,6484	-0,426	85,053	0	1011	6,2	8,1	8	1	1	1	1	1	1	1	1	1	0	1	-8,738548	273,607867	309,020101	0
15.01.2021	06:04:53	0	0	2,598662	2,8095	3,4128	-0,432	85,049	0	1010,96	6,2	8,2	8	1	1	1	1	1	1	1	1	1	0	1	-3,030303	273,49763	314,216552	0
15.01.2021	06:04:54	0	0	4,067471	2,81775	1,5732	-0,424	85,06	0	1011,02	6,2	8,1	8	1	1	1	1	1	1	1	1	1	0	1	-4,087385	273,441305	312,898212	0
15.01.2021	06:04:55	0	0	2,824633	2,77425	16,8552	-0,43	85,051	0	1010,88	6,2	8,1	8	1	1	1	1	1	1	1	1	1	0	1	-5,990134	273,517889	311,350732	0
15.01.2021	06:04:56	0	0	3,841478	2,98275	12,4668	-0,433	85,042	0	1010,9	6,2	8,1	8,1	1	1	1	1	1	1	1	1	1	0	1	-4,369274	273,439863	312,609637	0
15.01.2021	06:04:57	0	0	3,163589	2,95725	18,0864	-0,428	85,047	0	1010,96	6,2	8,1	8	1	1	1	1	1	1	1	1	1	0	1	-0	273,507757	317,293845	0
15.01.2021	06:04:58	0	0	4,519412	3,04125	2,6568	-0,428	85,05	0	1010,98	6,2	8,1	8	1	1	1	1	1	1	1	1	1	0	1	-4,792107	273,599141	312,926008	0
15.01.2021	06:04:59	0	0	3,728515	3,4905	0,4968	-0,429	85,036	0	1010,96	6,2	8,1	8	1	1	1	1	1	1	1	1	1	0	1	-2,889359	273,55557	314,626418	0
15.01.2021	06:05:00	0	0	4,406401	3,60675	10,8288	-0,428	85,041	0	1011	6,2	8,1	8,1	1	1	1	1	1	1	1	1	1	0	1	-2,466526	273,529475	314,928115	0
15.01.2021	06:05:01	0	0	2,598662	3,5895	3,0276	-0,422	85,032	0	1010,82	6,2	8,1	8	1	1	1	1	1	1	1	1	1	0	1	-2,466526	273,529475	314,928115	0
15.01.2021	06:05:02	0	0	2,598662	3,5895	3,0276	-0,422	85,032	0	1010,82	6,2	8,1	8	1	1	1	1	1	1	1	1	1	0	1	-0	273,444189	316,998973	0
15.01.2021	06:05:03	0	0	3,163589	3,87375	9,7524	-0,431	85,038	0	1010,9	6,2	8,1	8	1	1	1	1	1	1	1	1	1	0	1	-6,906272	273,584606	310,744335	0
15.01.2021	06:05:04	0	0	2,824633	4,00425	9,7668	-0,428	85,047	0	1011,16	6,2	8,2	8	1	1	1	1	1	1	1	1	1	0	1	-6,412967	273,444189	310,586006	0
15.01.2021	06:05:05	0	0	4,858368	3,86025	7,128	-0,431	85,047	0	1011,04	6,2	8,1	8	1	1	1	1	1	1	1	1	1	0	1	-6,272023	273,580248	311,358344	0
15.01.2021	06:05:06	0	0	2,937618	3,603	33,6492	-0,425	85,049	0	1011	6,2	8,1	8	1	1	1	1	1	1	1	1	1	0	1	-3,946441	273,438421	313,025784	0
15.01.2021	06:05:07	0	0	5,197324	3,31275	20,2968	-0,428	85,034	0	1011,02	6,2	8,1	8	1	1	1	1	1	1	1	1	1	0	1	-4,016913	273,533822	313,397903	0
15.01.2021	06:05:08	0	0	3,050603	3,3705	31,3884	-0,429	85,033	0	1010,74	6,2	8,2	8	1	1	1	1	1	1	1	1	1	0	1	-1,409443	273,613686	316,376241	0
15.01.2021	06:05:09	0	0	5,197293	3,23175	26,5428	-0,431	85,023	0	1010,82	6,2	8,1	8,1	1	1	1	1	1	1	1	1	1	0	1	-5,144468	273,503416	312,129235	0
15.01.2021	06:05:10	0	0	3,050585	2,79675	17,7084	-0,435	85,04	0	1011,02	6,2	8,1	8,1	1	1	1	1	1	1	1	1	1	0	1	-3,382664	273,442747	313,609621	0
15.01.2021	06:05:11	0	0	4,745355	2,55375	9	-0,423	85,042	0	1011	6,2	8,2	8,1	1	1	1	1	1	1	1	1	1	0	1	-2,255109	273,510651	315,052167	0
15.01.2021	06:05:12	0	0	4,180456	2,55675	23,598	-0,427	85,053	0	1010,94	6,2	8,1	8	1	1	1	1	1	1	1	1	1	0	1	-4,651163	273,607867	313,107486	0
15.01.2021	06:05:13	0	0	2,937618	2,346	22,8348	-0,427	85,032	0	1011	6,2	8,1	8	1	1	1	1	1	1	1	1	1	0	1	-1,127555	273,510651	316,179722	0
15.01.2021	06:05:14	0	0	2,485677	2,29425	23,5872	-0,428	85,042	0	1011,16	6,2	8,1	8	1	1	1	1	1	1	1	1	1	0	1	-4,439746	273,431213	312,499057	0
15.01.2021	06:05:15	0	0	4,858339	2,43525	15,7932	-0,425	85,037	0	1011,04	6,2	8,2	8,1	1	1	1	1	1	1	1	1	1	0	1	-4,087385	273,533822	313,327431	0
15.01.2021	06:05:16	0	0	3,615508	2,79675	14,3028	-0,434	85,039	0	1011,02	6,2	8,1	8,1	1	1	1	1	1	1	1	1	1	0	1	-2,396054	273,449959	314,629677	0
15.01.2021	06:05:17	0	0	5,197324	2,8845	359,9244	-0,43	85,032	0	1010,98	6,2	8,1	8	1	1	1	1	1	1	1	1	1	0	1	-2,114165	273,464392	314,978503	0
15.01.2021	06:05:18	0	0	2,937618	2,895	2,6496	-0,429	85,048	0	1011	6,2	8,1	8	1	1	1	1	1	1	1	1	1	0	1	-0,704722	273,468724	316,408039	0
15.01.2021	06:05:19	0	0	3,61553	2,847	13,1688	-0,425	85,035	0	1010,88	6,2	8,1	8	1	1	1	1	1	1	1	1	1	0	1	-6,131078	273,577343	311,485798	0
15.01.2021	06:05:20	0	0	2,485677	2,88975	36,9072	-0,436	85,031	0	1010,86	6,2	8,1	8	1	1	1	1	1	1	1	1	1	0	1	-4,510218	273,434096	312,441952	0
15.01.2021	06:05:21	0	0	4,632398	2,89125	12,1032	-0,431	85,03	0	1010,94	6,2	8,1	8	1	1	1	1	1	1	1	1	1	0	1	-2,60747	273,481726	314,565603	0
15.01.2021	06:05:22	0	0	3,050603	2,95875	9,8676	-0,426	85,045	0	1011,06	6,2	8,1	8	1	1	1	1	1	1	1	1	1	0	1	-2,325581	273,436979	314,639958	0
15.01.2021	06:05:23	0	0	2,711647	2,832	10,4544	-0,428	85,021	0	1011,02	6,2	8,1	8	1	1	1	1	1	1	1	1	1	0	1	-1,198027	273,559923	316,337959	0
15.01.2021	06:05:24	0	0	3,276554	2,706	23,5656	-0,43	85,048	0	1010,98	6,2	8,1	8,1	1	1	1	1	1	1	1	1	1	0	1	-4,087385	273,436979	312,878154	0
15.01.2021	06:05:25	0	0	4,293442	2,616	2,304	-0,429	85,05	0	1010,98	6,2	8,2	8	1	1	1	1	1	1	1	1	1	0	1	-0	273,542518	317,455184	0
15.01.2021	06:05:26	0	0	3,050603	2,58075	9,3744	-0,431	85,02	0	1011,12	6,2	8,1	8	1	1	1	1	1	1	1	1	1	0	1	-3,453136	273,606412	314,298756	0
15.01.2021	06:05:27	0	0	4,745383	2,4855	24,336	-0,434	85,03	0	1011,06	6,2	8,1	8	1	1	1	1	1	1	1	1	1	0	1	-0	273,584606	317,650607	0
15.01.2021	06:05:28	0	0	3,163589	2,385	12,0888	-0,436	85,042	0	1010,92	6,2	8,1	8	1	1	1	1	1	1	1	1	1	0	1	-6,342495	273,501969	310,924495	0
15.01.2021	06:05:29	0	0	4,971354	2,54025	0,5004	-0,433	85,033	0	1011	6,2	8,1	8	1	1	1	1	1	1	1	1	1	0	1	-1,127555	273,594779	316,570301	0
15.01.2021	06:05:30	0	0	2,711647	2,68725	7,128	-0,426	85,042	0	1010,86	6,2	8,2	8	1	1	1	1	1	1	1	1	1	0	1	-0,845666	273,551219	316,649908	0
15.01.2021	06:05:31	0	0	3,728493	2,67225	8,6148	-0,429	85,025	0	1011,1	6,2	8,2	8,1	1	1	1	1	1	1	1	1	1	0	1	-6,8358	273,42833	310,089639	0
15.01.2021	06:05:32	0	0	3,050585	2,724	352,8396	-0,426	85,03	0	1010,9	6,2	8,1	8,1	1	1	1	1	1	1	1	1	1	0	1	-1,832276	273,542518	315,622908	0
15.01.2021	06:05:33	0	0	3,954486	2,66175	10,8108	-0,429	85,022	0	1011,06	6,2	8,1	8	1	1	1	1	1	1	1	1	1	0	1	-0,98661	273,444189	316,012363	0
15.01.2021	06:05:34	0	0	4,406427	2,40825	19,1484	-0,42	85,027	0	1011,1	6,2	8,2	8	1	1	1	1	1	1	1	1	1	0	1	-5,285412	273,494737	311,948022	0
15.01.2021	06:05:35	0	0	3,502545	2,34525	13,158	-0,428	85,011	0	1011,06	6,2	8,1	8	1	1	1	1	1	1	1	1	1	0	1	-2,889359	273,429772	314,042762	0
15.01.2021	06:05:36	0	0	2,824633	2,43975	17,2476	-0,425	85,028	0	1010,84	6,2	8,1	8	1	1	1	1	1	1	1	1	1	0	1	-3,523608	273,514993	313,80382	0
15.01.2021	06:05:37	0	0	2,711647	2,79975	358,6644	-0,425	85,028	0	1011,02	6,2	8,1	8	1	1	1	1	1	1	1	1	1	0	1	-4,510218	273,604958	313,234917	0
15.01.2021	06:05:38	0	0	4,406427	2,871	27,2664	-0,426	85,024	0	1010,96	6,2	8,1	8	1	1	1	1	1	1	1	1	1	0	1	-3,805497	273,474502	313,334063	0
15.01.2021	06:05:39	0	0	3,050603	2,84925	9,0072	-0,431	85,023	0	1010,98	6,2	8,2	8	1	1	1	1	1	1	1	1	1	0	1	-0,070472	273,432654	316,875014	0
15.01.2021	06:05:40	0	0	2,598662	2,7555	11,196	-0,432	85,019	0	1011,04	6,2	8,1	8	1	1	1	1	1	1	1	1	1	0	1	-1,832276	273,49763	315,414578	0
15.01.2021	06:05:41	0	0	2,711631	2,91975	7,1316	-0,433	85,016	0	1011,1	6,2	8,2	8,1	1	1	1	1	1	1	1	1	1	0	1	-5,144468	273,435537	311,814387	0
15.01.2021	06:05:42	0	0	3,954486	3,22725	6,4296	-0,435	85,025	0	1010,98	6,2	8,1	8	1	1	1	1	1	1	1	1	1	0	1	-0	273,510651	317,307277	0
15.01.2021	06:05:43	0	0	3,276574	3,41475	17,7084	-0,426	85,019	0	1010,92	6,2	8,1	8	1	1	1	1	1	1	1	1	1	0	1	-1,550388	273,612231	316,228537	0
15.01.2021	06:05:44	0	0	2,824616	3,50925	13,1652	-0,428	85,033	0	1011,02	6,2	8,2	8,1	1	1	1	1	1	1	1	1	1	0	1	-3,523608	273,53672	313,904661	0
15.01.2021	06:05:45	0	0	2,937618	3,50925	26,5392	-0,429	85,017	0	1010,98	6,2	8,1	8	1	1	1	1	1	1	1	1	1	0	1	-2,818887	273,422567	314,079831	0
15.01.2021	06:05:46	0	0	2,824633	3,384	12,0816	-0,424	85,005	0	1011,02	6,2	8,1	8	1	1	1	1	1	1	1	1	1	0	1	-2,114165	273,53672	315,314105	0
15.01.2021	06:05:47	0	0	2,711631	3,246	25,8048	-0,423	85,026	0	1011	6,2	8,1	8,1	1	1	1	1	1	1	1	1	1	0	1	-3,523608	273,442747	313,468677	0
15.01.2021	06:05:48	0	0	2,937618	3,2925	14,3064	-0,428	85,027	0	1010,98	6,2	8,2	8	1	1	1	1	1	1	1	1	1	0	1	-5,355884	273,452845	311,683229	0
15.01.2021	06:05:49	0	0	4,519385	3,336	19,89	-0,43	85,02	0	1010,98	6,2	8,2	8,1	1	1	1	1	1	1	1	1	1	0	1	-6,765328	273,494737	310,468107	0
15.01.2021	06:05:50	0	0	4,858368	3,3885	21,0348	-0,418	85,035	0	1010,98	6,2	8,1	8	1	1	1	1	1	1	1	1	1	0	1	-3,24172	273,604958	314,503416	0
15.01.2021	06:05:51	0	0	2,598662	3,546	19,9008	-0,425	85,024	0	1011,04	6,2	8,1	8	1	1	1	1	1	1	1	1	1	0	1	-2,325581	273,441305	314,660016	0
15.01.2021	06:05:52	0	0	3,163589	3,4425	20,628	-0,426	85,021	0	1011,06	6,2	8,2	8	1	1	1	1	1	1	1	1	1	0	1	-7,117689	273,46728	309,988374	0
15.01.2021	06:05:53	0	0	4,406427	3,21	23,5872	-0,43	85,009	0	1011	6,2	8,1	8	1	1	1	1	1	1	1	1	1	0	1	-2,748414	273,578796	314,875207	0
15.01.2021	06:05:54	0	0	5,084308	3,069	31,0104	-0,424	85,024	0	1011,08	6,2	8,1	8,1	1	1	1	1	1	1	1	1	1	0	1	-4,651163	273,559923	312,884823	0
15.01.2021	06:05:55	0	0	3,276574	3,05475	29,1168	-0,426	85,019	0	1010,94	6,2	8,1	8	1	1	1	1	1	1	1	1	1	0	1	-2,466526	273,602049	315,265098	0
15.01.2021	06:05:56	0	0	5,423295	3,021	15,786	-0,43	85,017	0	1010,88	6,2	8,1	8	1	1	1	1	1	1	1	1	1	0	1	-5,567301	273,455731	311,485197	0
15.01.2021	06:05:57	0	0	2,824633	3,05475	10,8216	-0,425	85,024	0	1011	6,2	8,2	8	1	1	1	1	1	1	1	1	1	0	1	-2,536998	273,451402	314,495424	0
15.01.2021	06:05:58	0	0	3,050603	3,048	19,5444	-0,425	85,014	0	1011,12	6,2	8,2	8	1	1	1	1	1	1	1	1	1	0	1	-4,298802	273,442747	312,693483	0
15.01.2021	06:05:59	0	0	4,858368	3,183	27,6552	-0,429	85,014	0	1011,08	6,2	8,1	8	1	1	1	1	1	1	1	1	1	0	1	-4,862579	273,493291	312,364146	0
15.01.2021	06:06:00	0	0	2,711647	3,73425	9,3708	-0,429	85,001	0	1011,12	6,2	8,1	8	1	1	1	1	1	1	1	1	1	0	1	-0	273,458618	317,065886	0
15.01.2021	06:06:01	0	0	4,406427	4,044	7,5024	-0,427	85,032	0	1010,92	6,2	8,1	8	1	1	1	1	1	1	1	1	1	0	1	-0	273,458618	317,065886	0
15.01.2021	06:06:02	0	0	4,406427	4,044	7,5024	-0,427	85,032	0	1010,92	6,2	8,1	8	1	1	1	1	1	1	1	1	1	0	1	-3,100775	273,432654	313,844711	0
15.01.2021	06:06:03	0	0	3,841501	4,305	4,086	-0,425	85,002	0	1010,94	6,2	8,2	8	1	1	1	1	1	1	1	1	1	0	1	-4,157858	273,480281	313,008511	0
15.01.2021	06:06:04	0	0	3,389559	4,35675	2,6496	-0,427	85,017	0	1011,08	6,2	8,1	8	1	1	1	1	1	1	1	1	1	0	1	-2,043693	273,429772	314,888428	0
15.01.2021	06:06:05	0	0	3,954462	4,434	13,5468	-0,43	84,997	0	1010,78	6,2	8,1	8,1	1	1	1	1	1	1	1	1	1	0	1	-4,298802	273,55412	313,21024	0
15.01.2021	06:06:06	0	0	3,276574	4,5255	9,7524	-0,425	85,002	0	1011,04	6,2	8,1	8	1	1	1	1	1	1	1	1	1	0	1	-4,087385	273,418245	312,791298	0
15.01.2021	06:06:07	0	0	2,485662	4,28775	10,0656	-0,423	85,008	0	1011,08	6,2	8,2	8,1	1	1	1	1	1	1	1	1	1	0	1	-0	273,501969	317,26699	0
15.01.2021	06:06:08	0	0	3,276554	3,96825	18,0684	-0,427	85,005	0	1010,96	6,2	8,2	8,1	1	1	1	1	1	1	1	1	1	0	1	-5,708245	273,604958	312,03689	0
15.01.2021	06:06:09	0	0	2,937618	3,4095	24,3576	-0,422	85,021	0	1010,92	6,2	8,1	8	1	1	1	1	1	1	1	1	1	0	1	-5,567301	273,500522	311,692977	0
15.01.2021	06:06:10	0	0	2,711631	3,0345	17,7732	-0,431	85,004	0	1010,9	6,2	8,2	8,1	1	1	1	1	1	1	1	1	1	0	1	-7,399577	273,432654	309,545909	0
15.01.2021	06:06:11	0	0	3,954462	3,0435	4,4748	-0,427	85,012	0	1011,18	6,2	8,2	8,1	1	1	1	1	1	1	1	1	1	0	1	-4,721635	273,571535	312,868268	0
15.01.2021	06:06:12	0	0	4,632398	3,21375	14,6484	-0,425	85,013	0	1010,96	6,2	8,2	8	1	1	1	1	1	1	1	1	1	0	1	-0,634249	273,441305	316,351348	0
15.01.2021	06:06:13	0	0	2,485662	3,34725	29,9484	-0,424	85,015	0	1010,98	6,2	8,2	8,1	1	1	1	1	1	1	1	1	1	0	1	-5,21494	273,541069	312,233514	0
15.01.2021	06:06:14	0	0	3,050585	3,405	22,0788	-0,42	85,018	0	1011,06	6,2	8,2	8,1	1	1	1	1	1	1	1	1	1	0	1	-4,933051	273,441305	312,052546	0
15.01.2021	06:06:15	0	0	3,502545	3,3915	20,628	-0,42	85,031	0	1011,12	6,2	8,2	8	1	1	1	1	1	1	1	1	1	0	1	-2,536998	273,53817	314,897999	0
15.01.2021	06:06:16	0	0	3,16357	3,45975	20,6172	-0,425	85,014	0	1011,04	6,2	8,2	8,1	1	1	1	1	1	1	1	1	1	0	1	-4,369274	273,626787	313,477276	0
15.01.2021	06:06:17	0	0	3,954486	3,43725	25,4124	-0,424	85,017	0	1010,92	6,2	8,1	8	1	1	1	1	1	1	1	1	1	0	1	-2,959831	273,501969	314,307159	0
15.01.2021	06:06:18	0	0	3,16357	3,29175	23,2128	-0,428	85,02	0	1011,02	6,2	8,1	8,1	1	1	1	1	1	1	1	1	1	0	1	-6,906272	273,424007	309,999125	0
15.01.2021	06:06:19	0	0	4,632398	3,0405	20,2788	-0,419	85,025	0	1011,06	6,2	8,1	8	1	1	1	1	1	1	1	1	1	0	1	-2,255109	273,552669	315,247198	0
15.01.2021	06:06:20	0	0	2,9376	2,868	20,6208	-0,417	85,013	0	1011,06	6,2	8,2	8,1	1	1	1	1	1	1	1	1	1	0	1	-1,127555	273,416805	315,744452	0
15.01.2021	06:06:21	0	0	4,632398	2,74275	20,2788	-0,426	85,017	0	1010,98	6,2	8,1	8	1	1	1	1	1	1	1	1	1	0	1	-10,218464	273,526578	307,162729	0
15.01.2021	06:06:22	0	0	3,16357	2,658	10,0512	-0,425	85,015	0	1011,04	6,2	8,2	8,1	1	1	1	1	1	1	1	1	1	0	1	-1,691332	273,593326	315,999772	0
15.01.2021	06:06:23	0	0	3,61553	2,58075	8,6184	-0,417	85,011	0	1010,98	6,2	8,1	8	1	1	1	1	1	1	1	1	1	0	1	-3,382664	273,532373	314,025426	0
15.01.2021	06:06:24	0	0	3,502524	2,84175	359,4168	-0,421	85,011	0	1011,06	6,2	8,1	8,1	1	1	1	1	1	1	1	1	1	0	1	-0,98661	273,425448	315,925467	0
15.01.2021	06:06:25	0	0	2,711647	3,3135	2,6496	-0,421	85,007	0	1010,98	6,2	8,1	8	1	1	1	1	1	1	1	1	1	0	1	-1,691332	273,483172	315,488445	0
15.01.2021	06:06:26	0	0	2,711647	3,43425	13,9104	-0,424	85,005	0	1010,9	6,2	8,1	8	1	1	1	1	1	1	1	1	1	0	1	-3,24172	273,610777	314,530446	0
15.01.2021	06:06:27	0	0	2,598662	3,47925	15,39	-0,427	85,002	0	1011	6,2	8,2	8	1	1	1	1	1	1	1	1	1	0	1	-5,426357	273,481726	311,746716	0
15.01.2021	06:06:28	0	0	3,163589	3,37875	22,5684	-0,428	85,002	0	1011,06	6,2	8,1	8	1	1	1	1	1	1	1	1	1	0	1	-0,98661	273,474502	316,15295	0
15.01.2021	06:06:29	0	0	2,372677	3,33975	16,1028	-0,427	85,006	0	1011,02	6,2	8,2	8,1	1	1	1	1	1	1	1	1	1	0	1	-2,396054	273,623875	315,436966	0
15.01.2021	06:06:30	0	0	4,067471	3,43725	10,8036	-0,421	85,002	0	1010,86	6,2	8,2	8	1	1	1	1	1	1	1	1	1	0	1	-4,510218	273,535271	312,911324	0
15.01.2021	06:06:31	0	0	5,31031	3,3765	23,598	-0,425	84,986	0	1010,92	6,3	8,1	8	1	1	1	1	1	1	1	1	1	0	1	-2,889359	273,429772	314,042762	0
15.01.2021	06:06:32	0	0	4,632398	3,1635	28,3536	-0,424	85,008	0	1011,08	6,2	8,1	8	1	1	1	1	1	1	1	1	1	0	1	-7,329105	273,530924	310,07226	0
15.01.2021	06:06:33	0	0	3,050603	2,982	11,196	-0,422	84,998	0	1011,04	6,2	8,1	8	1	1	1	1	1	1	1	1	1	0	1	-2,818887	273,426889	314,099871	0
15.01.2021	06:06:34	0	0	4,858368	2,82225	13,5684	-0,42	85,018	0	1010,96	6,2	8,2	8	1	1	1	1	1	1	1	1	1	0	1	-1,409443	273,565728	316,153496	0
15.01.2021	06:06:35	0	0	4,858339	2,79	7,9632	-0,429	85,012	0	1011,02	6,2	8,2	8,1	1	1	1	1	1	1	1	1	1	0	1	-2,677942	273,55557	314,837835	0
15.01.2021	06:06:36	0	0	4,858368	2,697	19,1592	-0,424	85,005	0	1011,04	6,2	8,2	8	1	1	1	1	1	1	1	1	1	0	1	-6,272023	273,602049	311,459601	0
15.01.2021	06:06:37	0	0	5,310278	2,655	2,6532	-0,422	84,999	0	1011	6,2	8,2	8,1	1	1	1	1	1	1	1	1	1	0	1	-5,778717	273,464392	311,31395	0
15.01.2021	06:06:38	0	0	2,937618	2,736	5,22	-0,425	84,998	0	1011	6,2	8,1	8	1	1	1	1	1	1	1	1	1	0	1	-5,708245	273,603503	312,030134	0
15.01.2021	06:06:39	0	0	3,502545	2,826	16,4844	-0,423	84,993	0	1010,92	6,2	8,2	8	1	1	1	1	1	1	1	1	1	0	1	-6,342495	273,557021	311,180018	0
15.01.2021	06:06:40	0	0	3,050585	3,0405	13,9356	-0,421	84,996	0	1011,06	6,2	8,2	8,1	1	1	1	1	1	1	1	1	1	0	1	-3,946441	273,435537	313,012413	0
15.01.2021	06:06:41	0	0	4,293416	3,123	12,8556	-0,415	85,002	0	1011,04	6,2	8,1	8,1	1	1	1	1	1	1	1	1	1	0	1	-3,735025	273,551219	313,760549	0
15.01.2021	06:06:42	0	0	4,293416	3,045	17,2404	-0,42	85,004	0	1011,06	6,2	8,2	8,1	1	1	1	1	1	1	1	1	1	0	1	-0,352361	273,439863	316,62655	0
15.01.2021	06:06:43	0	0	3,61553	3,165	6,4404	-0,419	84,993	0	1011,12	6,2	8,1	8	1	1	1	1	1	1	1	1	1	0	1	-0,704722	273,480281	316,461647	0
15.01.2021	06:06:44	0	0	4,745355	3,279	15,03	-0,426	84,987	0	1010,92	6,2	8,1	8,1	1	1	1	1	1	1	1	1	1	0	1	-4,721635	273,565728	312,841305	0
15.01.2021	06:06:45	0	0	3,050603	3,2445	10,4292	-0,421	85,001	0	1011,1	6,2	8,2	8	1	1	1	1	1	1	1	1	1	0	1	-0	273,490399	317,213308	0
15.01.2021	06:06:46	0	0	3,954462	3,24825	23,2308	-0,422	85,008	0	1011,02	6,2	8,2	8,1	1	1	1	1	1	1	1	1	1	0	1	-4,792107	273,421126	312,099932	0
15.01.2021	06:06:47	0	0	4,63237	3,30225	23,9724	-0,424	85,007	0	1011,06	6,2	8,2	8,1	1	1	1	1	1	1	1	1	1	0	1	-4,439746	273,501969	312,827243	0
15.01.2021	06:06:48	0	0	3,61553	3,1125	26,5212	-0,426	84,992	0	1010,96	6,2	8,2	8	1	1	1	1	1	1	1	1	1	0	1	-3,171247	273,451402	313,861174	0
15.01.2021	06:06:49	0	0	4,180431	2,898	28,3356	-0,422	85,005	0	1011,04	6,2	8,2	8,1	1	1	1	1	1	1	1	1	1	0	1	-2,60747	273,484617	314,579012	0
15.01.2021	06:06:50	0	0	2,711647	2,73525	25,0344	-0,421	85,002	0	1011,14	6,2	8,2	8	1	1	1	1	1	1	1	1	1	0	1	-5,21494	273,619508	312,597789	0
15.01.2021	06:06:51	0	0	3,163589	2,64825	28,3644	-0,423	84,999	0	1011,12	6,2	8,2	8	1	1	1	1	1	1	1	1	1	0	1	-1,479915	273,552669	316,022392	0
15.01.2021	06:06:52	0	0	4,406401	2,6775	21,0096	-0,42	85,005	0	1010,9	6,2	8,1	8,1	1	1	1	1	1	1	1	1	1	0	1	-6,412967	273,580248	311,2174	0
15.01.2021	06:06:53	0	0	4,63237	2,73825	25,128	-0,428	84,987	0	1010,9	6,2	8,2	8,1	1	1	1	1	1	1	1	1	1	0	1	-4,721635	273,587513	312,942469	0
15.01.2021	06:06:54	0	0	4,180456	2,70375	18,0864	-0,421	84,997	0	1010,98	6,2	8,1	8	1	1	1	1	1	1	1	1	1	0	1	-0,845666	273,523681	316,522082	0
15.01.2021	06:06:55	0	0	2,598647	2,7345	20,2752	-0,423	85,021	0	1011,14	6,2	8,1	8,1	1	1	1	1	1	1	1	1	1	0	1	-0,98661	273,603503	316,751769	0
15.01.2021	06:06:56	0	0	4,293416	2,80125	12,8628	-0,42	84,998	0	1011,06	6,2	8,2	8,1	1	1	1	1	1	1	1	1	1	0	1	-5,919662	273,558472	311,609587	0
15.01.2021	06:06:57	0	0	3,728493	2,72325	18,4572	-0,418	84,992	0	1011,14	6,2	8,2	8,1	1	1	1	1	1	1	1	1	1	0	1	-6,624383	273,56718	310,945296	0
15.01.2021	06:06:58	0	0	4,519385	2,76	13,9212	-0,429	85,007	0	1011,06	6,3	8,2	8,1	1	1	1	1	1	1	1	1	1	0	1	-2,536998	273,438421	314,435227	0
15.01.2021	06:06:59	0	0	3,050585	2,81775	25,4232	-0,419	85,003	0	1011,22	6,2	8,2	8,1	1	1	1	1	1	1	1	1	1	0	1	-3,100775	273,530924	314,30059	0
15.01.2021	06:07:00	0	0	4,406401	2,83575	12,9636	-0,423	84,994	0	1011,08	6,2	8,2	8,1	1	1	1	1	1	1	1	1	1	0	1	-6,272023	273,488953	310,934578	0
15.01.2021	06:07:01	0	0	4,406401	2,83575	12,9636	-0,423	84,994	0	1011,08	6,2	8,2	8,1	1	1	1	1	1	1	1	1	1	0	1	-6,272023	273,488953	310,934578	0
15.01.2021	06:07:02	0	0	4,971324	2,92125	13,5468	-0,421	84,985	0	1010,96	6,2	8,2	8,1	1	1	1	1	1	1	1	1	1	0	1	-3,664553	273,434096	313,287618	0
15.01.2021	06:07:03	0	0	3,16357	2,82525	12,114	-0,425	84,992	0	1011,04	6,2	8,1	8,1	1	1	1	1	1	1	1	1	1	0	1	-5,708245	273,484617	311,478237	0
15.01.2021	06:07:04	0	0	2,937618	2,86725	7,5168	-0,419	85,01	0	1011,02	6,2	8,2	8	1	1	1	1	1	1	1	1	1	0	1	-7,963354	273,593326	309,72775	0
15.01.2021	06:07:05	0	0	4,406401	3,15075	9,45	-0,423	85,001	0	1011,02	6,2	8,2	8,1	1	1	1	1	1	1	1	1	1	0	1	-7,188161	273,510651	310,119116	0
15.01.2021	06:07:06	0	0	2,711647	3,24825	18,8388	-0,418	85,006	0	1011	6,2	8,2	8	1	1	1	1	1	1	1	1	1	0	1	-8,315715	273,599141	309,402399	0
15.01.2021	06:07:07	0	0	2,9376	3,16275	10,818	-0,425	84,994	0	1011,1	6,2	8,2	8,1	1	1	1	1	1	1	1	1	1	0	1	-7,117689	273,434096	309,834482	0
15.01.2021	06:07:08	0	0	4,63237	3,21825	12,474	-0,421	85,003	0	1011,06	6,2	8,2	8,1	1	1	1	1	1	1	1	1	1	0	1	-3,946441	273,488953	313,26016	0
15.01.2021	06:07:09	0	0	4,519385	3,2385	16,4916	-0,424	84,983	0	1011,04	6,2	8,2	8,1	1	1	1	1	1	1	1	1	1	0	1	-4,933051	273,586059	312,724304	0
15.01.2021	06:07:10	0	0	2,824616	3,1425	11,214	-0,423	84,998	0	1011,06	6,2	8,2	8,1	1	1	1	1	1	1	1	1	1	0	1	-3,312192	273,439863	313,666719	0
15.01.2021	06:07:11	0	0	4,067447	2,9865	20,2824	-0,418	84,998	0	1011,1	6,2	8,2	8,1	1	1	1	1	1	1	1	1	1	0	1	-5,496829	273,571535	312,093074	0
15.01.2021	06:07:12	0	0	4,067447	2,769	16,5852	-0,423	84,988	0	1011,1	6,3	8,2	8,1	1	1	1	1	1	1	1	1	1	0	1	-4,157858	273,603503	313,580521	0
15.01.2021	06:07:13	0	0	3,728493	2,88975	24,7212	-0,418	84,999	0	1011,1	6,2	8,2	8,1	1	1	1	1	1	1	1	1	1	0	1	-4,862579	273,475947	312,283682	0
15.01.2021	06:07:14	0	0	3,841478	2,8185	25,398	-0,423	84,994	0	1010,86	6,2	8,1	8,1	1	1	1	1	1	1	1	1	1	0	1	-8,386187	273,584606	309,26442	0
15.01.2021	06:07:15	0	0	4,632398	2,76975	18,0756	-0,418	84,994	0	1011,06	6,3	8,2	8	1	1	1	1	1	1	1	1	1	0	1	-4,016913	273,591872	313,66744	0
15.01.2021	06:07:16	0	0	3,389539	2,754	18,8316	-0,418	85,007	0	1011	6,2	8,2	8,1	1	1	1	1	1	1	1	1	1	0	1	-2,255109	273,500522	315,005168	0
15.01.2021	06:07:17	0	0	4,293442	2,82375	16,8552	-0,42	84,994	0	1011,1	6,2	8,1	8	1	1	1	1	1	1	1	1	1	0	1	-4,298802	273,435537	312,660053	0
15.01.2021	06:07:18	0	0	4,858339	2,99475	14,3064	-0,42	85,002	0	1010,94	6,2	8,2	8,1	1	1	1	1	1	1	1	1	1	0	1	-3,664553	273,55557	313,851224	0
15.01.2021	06:07:19	0	0	4,971354	3,0195	7,4988	-0,417	84,979	0	1010,96	6,2	8,2	8	1	1	1	1	1	1	1	1	1	0	1	-7,540521	273,596233	310,164087	0
15.01.2021	06:07:20	0	0	4,858339	3,015	6,4116	-0,422	84,977	0	1010,94	6,2	8,2	8,1	1	1	1	1	1	1	1	1	1	0	1	-2,255109	273,588966	315,415744	0
15.01.2021	06:07:21	0	0	2,9376	2,859	11,196	-0,421	85,006	0	1011	6,2	8,1	8,1	1	1	1	1	1	1	1	1	1	0	1	-5,21494	273,462949	311,871031	0
15.01.2021	06:07:22	0	0	3,050585	2,75325	12,0996	-0,42	84,995	0	1011,08	6,2	8,1	8,1	1	1	1	1	1	1	1	1	1	0	1	-4,933051	273,435537	312,025803	0
15.01.2021	06:07:23	0	0	2,485662	2,67	19,5372	-0,419	85,004	0	1011,14	6,2	8,2	8,1	1	1	1	1	1	1	1	1	1	0	1	-5,355884	273,501969	311,911105	0
15.01.2021	06:07:24	0	0	4,745383	2,44875	13,1724	-0,417	84,99	0	1011,06	6,2	8,2	8	1	1	1	1	1	1	1	1	1	0	1	-4,721635	273,604958	313,0235	0
15.01.2021	06:07:25	0	0	4,406427	2,31525	17,226	-0,431	84,99	0	1010,9	6,2	8,2	8	1	1	1	1	1	1	1	1	1	0	1	-7,329105	273,571535	310,260798	0
15.01.2021	06:07:26	0	0	4,519385	2,42625	16,47	-0,424	84,991	0	1010,98	6,2	8,2	8,1	1	1	1	1	1	1	1	1	1	0	1	-5,426357	273,522233	311,93467	0
15.01.2021	06:07:27	0	0	4,519385	2,457	16,8588	-0,418	84,997	0	1011,06	6,2	8,2	8,1	1	1	1	1	1	1	1	1	1	0	1	-4,298802	273,436979	312,666737	0
15.01.2021	06:07:28	0	0	3,502524	2,71125	12,4668	-0,425	84,984	0	1011,12	6,2	8,1	8,1	1	1	1	1	1	1	1	1	1	0	1	-4,933051	273,546868	312,542325	0
15.01.2021	06:07:29	0	0	4,519412	3,0435	18,4428	-0,419	85,006	0	1011,16	6,2	8,1	8	1	1	1	1	1	1	1	1	1	0	1	-2,748414	273,578796	314,875207	0
15.01.2021	06:07:30	0	0	3,728493	3,0585	8,6184	-0,424	84,991	0	1011,04	6,2	8,2	8,1	1	1	1	1	1	1	1	1	1	0	1	-6,412967	273,444189	310,586006	0
15.01.2021	06:07:31	0	0	3,841478	2,87475	10,4436	-0,422	84,982	0	1011	6,2	8,2	8,1	1	1	1	1	1	1	1	1	1	0	1	-4,369274	273,49763	312,877581	0
15.01.2021	06:07:32	0	0	4,406401	2,697	13,9212	-0,423	84,993	0	1011,06	6,2	8,2	8,1	1	1	1	1	1	1	1	1	1	0	1	-6,412967	273,580248	311,2174	0
15.01.2021	06:07:33	0	0	4,858368	2,49075	13,1688	-0,424	84,997	0	1011,06	6,2	8,2	8	1	1	1	1	1	1	1	1	1	0	1	-5,426357	273,599141	312,291758	0
15.01.2021	06:07:34	0	0	2,372677	2,31225	7,1388	-0,422	84,998	0	1011,04	6,2	8,2	8,1	1	1	1	1	1	1	1	1	1	0	1	-4,298802	273,461505	312,780474	0
15.01.2021	06:07:35	0	0	4,63237	2,313	7,5096	-0,416	84,999	0	1011,02	6,2	8,2	8,1	1	1	1	1	1	1	1	1	1	0	1	-3,735025	273,568631	313,841395	0
15.01.2021	06:07:36	0	0	4,632398	2,44875	3,4092	-0,422	85,002	0	1011,04	6,2	8,2	8	1	1	1	1	1	1	1	1	1	0	1	-0,916138	273,571535	316,673765	0
15.01.2021	06:07:37	0	0	4,971324	2,6715	16,4952	-0,415	84,996	0	1011,08	6,2	8,2	8,1	1	1	1	1	1	1	1	1	1	0	1	-2,677942	273,588966	314,992911	0
15.01.2021	06:07:38	0	0	4,745355	2,60925	8,6364	-0,428	84,999	0	1011,06	6,2	8,2	8,1	1	1	1	1	1	1	1	1	1	0	1	-1,902748	273,588966	315,768105	0
15.01.2021	06:07:39	0	0	2,372692	2,66025	5,2308	-0,421	84,985	0	1011,02	6,2	8,2	8	1	1	1	1	1	1	1	1	1	0	1	-2,396054	273,609322	315,369353	0
15.01.2021	06:07:40	0	0	3,050585	2,51325	15,4152	-0,42	84,999	0	1011	6,2	8,2	8,1	1	1	1	1	1	1	1	1	1	0	1	-3,453136	273,490399	313,760172	0
15.01.2021	06:07:41	0	0	2,259693	2,45775	21,0204	-0,42	85,008	0	1011,04	6,2	8,1	8,1	1	1	1	1	1	1	1	1	1	0	1	-4,510218	273,603503	313,228161	0
15.01.2021	06:07:42	0	0	2,9376	2,4105	6,4224	-0,418	84,995	0	1010,98	6,2	8,2	8,1	1	1	1	1	1	1	1	1	1	0	1	-4,933051	273,447074	312,079299	0
15.01.2021	06:07:43	0	0	5,310278	2,37	11,7216	-0,418	84,996	0	1011,06	6,2	8,2	8,1	1	1	1	1	1	1	1	1	1	0	1	-4,933051	273,462949	312,15292	0
15.01.2021	06:07:44	0	0	4,858339	2,43675	9,7488	-0,416	85,009	0	1011,06	6,3	8,2	8,1	1	1	1	1	1	1	1	1	1	0	1	-5,637773	273,603503	312,100606	0
15.01.2021	06:07:45	0	0	3,502545	2,4795	4,4316	-0,422	85,001	0	1011,06	6,2	8,1	8	1	1	1	1	1	1	1	1	1	0	1	-7,540521	273,535271	309,881021	0
15.01.2021	06:07:46	0	0	3,389539	2,84025	9,36	-0,423	84,987	0	1010,88	6,2	8,1	8,1	1	1	1	1	1	1	1	1	1	0	1	-4,510218	273,606412	313,241673	0
15.01.2021	06:07:47	0	0	3,389559	3,1785	16,4664	-0,425	84,985	0	1011	6,2	8,1	8	1	1	1	1	1	1	1	1	1	0	1	-7,258633	273,53817	310,176364	0
15.01.2021	06:07:48	0	0	3,728493	3,1335	19,5264	-0,417	84,994	0	1011,18	6,2	8,2	8,1	1	1	1	1	1	1	1	1	1	0	1	-2,396054	273,457175	314,663138	0
15.01.2021	06:07:49	0	0	4,180431	3,0765	9,0036	-0,416	84,984	0	1011,04	6,2	8,1	8,1	1	1	1	1	1	1	1	1	1	0	1	-4,510218	273,612231	313,268706	0
15.01.2021	06:07:50	0	0	2,598647	3,02775	14,6556	-0,419	84,996	0	1010,9	6,2	8,1	8,1	1	1	1	1	1	1	1	1	1	0	1	-5,21494	273,543968	312,246974	0
15.01.2021	06:07:51	0	0	3,61553	3,01425	16,092	-0,419	84,992	0	1010,96	6,2	8,1	8	1	1	1	1	1	1	1	1	1	0	1	-3,24172	273,599141	314,476395	0
15.01.2021	06:07:52	0	0	3,16357	2,9655	15,7968	-0,419	84,996	0	1011	6,2	8,2	8,1	1	1	1	1	1	1	1	1	1	0	1	-2,748414	273,504863	314,532002	0
15.01.2021	06:07:53	0	0	3,954462	2,80275	13,9176	-0,424	84,991	0	1011,06	6,2	8,2	8,1	1	1	1	1	1	1	1	1	1	0	1	-6,694856	273,602049	311,036768	0
15.01.2021	06:07:54	0	0	2,711647	2,69475	3,0348	-0,424	85,022	0	1011,3	6,2	8,2	8	1	1	1	1	1	1	1	1	1	0	1	-2,325581	273,486062	314,867606	0
15.01.2021	06:07:55	0	0	4,63237	2,5875	16,488	-0,418	84,997	0	1011,24	6,2	8,2	8,1	1	1	1	1	1	1	1	1	1	0	1	-7,751938	273,593326	309,939166	0
15.01.2021	06:07:56	0	0	2,711647	2,52675	6,066	-0,421	84,987	0	1010,86	6,2	8,2	8	1	1	1	1	1	1	1	1	1	0	1	-1,338971	273,409605	315,499659	0
15.01.2021	06:07:57	0	0	4,406401	2,32425	17,2476	-0,42	85,005	0	1011,12	6,2	8,2	8,1	1	1	1	1	1	1	1	1	1	0	1	-4,721635	273,493291	312,50509	0
15.01.2021	06:07:58	0	0	4,293416	2,2155	12,8556	-0,424	84,984	0	1011,1	6,2	8,2	8,1	1	1	1	1	1	1	1	1	1	0	1	-2,466526	273,435537	314,492329	0
15.01.2021	06:07:59	0	0	3,389559	2,2215	13,9176	-0,416	84,996	0	1011,1	6,2	8,2	8	1	1	1	1	1	1	1	1	1	0	1	-2,325581	273,552669	315,176726	0
15.01.2021	06:08:00	0	0	3,728493	2,493	12,4632	-0,417	84,995	0	1010,98	6,2	8,2	8,1	1	1	1	1	1	1	1	1	1	0	1	-6,553911	273,447074	310,458439	0
15.01.2021	06:08:01	0	0	3,728493	2,493	12,4632	-0,417	84,995	0	1010,98	6,2	8,2	8,1	1	1	1	1	1	1	1	1	1	0	1	-6,553911	273,447074	310,458439	0
15.01.2021	06:08:02	0	0	3,728493	2,7705	12,4668	-0,425	84,98	0	1011,14	6,2	8,2	8,1	1	1	1	1	1	1	1	1	1	0	1	-8,104299	273,568631	309,472121	0
15.01.2021	06:08:03	0	0	3,954486	3,16425	13,9284	-0,422	84,989	0	1011,06	6,2	8,2	8	1	1	1	1	1	1	1	1	1	0	1	-6,060606	273,607867	311,698043	0
15.01.2021	06:08:04	0	0	2,824616	3,33825	13,914	-0,426	84,991	0	1010,96	6,2	8,2	8,1	1	1	1	1	1	1	1	1	1	0	1	-7,117689	273,481726	310,055384	0
15.01.2021	06:08:05	0	0	4,63237	3,354	11,2176	-0,419	84,989	0	1011,06	6,2	8,2	8,1	1	1	1	1	1	1	1	1	1	0	1	-9,584214	273,42833	307,341225	0
15.01.2021	06:08:06	0	0	3,728493	3,2025	14,6592	-0,425	84,988	0	1011	6,2	8,2	8,1	1	1	1	1	1	1	1	1	1	0	1	-5,21494	273,464392	311,877728	0
15.01.2021	06:08:07	0	0	3,16357	3,213	17,1108	-0,421	84,996	0	1011,04	6,2	8,1	8,1	1	1	1	1	1	1	1	1	1	0	1	-8,80902	273,438421	308,163204	0
15.01.2021	06:08:08	0	0	3,16357	3,33825	9,3456	-0,422	84,999	0	1010,98	6,2	8,2	8,1	1	1	1	1	1	1	1	1	1	0	1	-9,936575	273,475947	307,209686	0
15.01.2021	06:08:09	0	0	2,824616	3,60825	9,0108	-0,417	85,005	0	1010,94	6,2	8,2	8,1	1	1	1	1	1	1	1	1	1	0	1	-6,694856	273,580248	310,935511	0
15.01.2021	06:08:10	0	0	2,824633	3,669	8,28	-0,418	84,999	0	1011,1	6,2	8,1	8	1	1	1	1	1	1	1	1	1	0	1	-5,990134	273,424007	310,915263	0
15.01.2021	06:08:11	0	0	3,276554	3,70575	8,2692	-0,424	84,993	0	1011,08	6,2	8,2	8,1	1	1	1	1	1	1	1	1	1	0	1	-4,721635	273,53817	312,713362	0
15.01.2021	06:08:12	0	0	4,293416	3,666	7,5132	-0,42	84,985	0	1011,1	6,2	8,2	8,1	1	1	1	1	1	1	1	1	1	0	1	-4,157858	273,588966	313,512995	0
15.01.2021	06:08:13	0	0	4,745355	3,6885	13,1544	-0,423	85,005	0	1011,04	6,2	8,2	8,1	1	1	1	1	1	1	1	1	1	0	1	-3,875969	273,542518	313,579215	0
15.01.2021	06:08:14	0	0	4,63237	3,73425	15,372	-0,424	85,005	0	1011,1	6,2	8,2	8,1	1	1	1	1	1	1	1	1	1	0	1	-5,990134	273,596233	311,714474	0
15.01.2021	06:08:15	0	0	3,502524	3,585	19,1592	-0,423	84,988	0	1011,12	6,2	8,1	8,1	1	1	1	1	1	1	1	1	1	0	1	-3,664553	273,542518	313,790631	0
15.01.2021	06:08:16	0	0	3,16357	3,2565	25,7976	-0,419	84,994	0	1011	6,2	8,2	8,1	1	1	1	1	1	1	1	1	1	0	1	-2,043693	273,422567	314,855025	0
15.01.2021	06:08:17	0	0	2,711631	3,05175	14,652	-0,421	84,995	0	1011,02	6,2	8,2	8,1	1	1	1	1	1	1	1	1	1	0	1	-1,973221	273,512098	315,340773	0
15.01.2021	06:08:18	0	0	5,31031	2,96925	11,7144	-0,421	84,983	0	1010,98	6,2	8,2	8	1	1	1	1	1	1	1	1	1	0	1	-2,043693	273,564277	315,512507	0
15.01.2021	06:08:19	0	0	3,502524	2,99475	8,6076	-0,419	84,998	0	1010,82	6,2	8,1	8,1	1	1	1	1	1	1	1	1	1	0	1	-5,285412	273,416805	311,586594	0
15.01.2021	06:08:20	0	0	3,276554	3,117	14,31	-0,417	84,995	0	1011,1	6,2	8,2	8,1	1	1	1	1	1	1	1	1	1	0	1	-3,946441	273,491845	313,273575	0
15.01.2021	06:08:21	0	0	4,745355	3,1005	15,408	-0,417	85,008	0	1011,06	6,2	8,2	8,1	1	1	1	1	1	1	1	1	1	0	1	-5,426357	273,442747	311,565928	0
15.01.2021	06:08:22	0	0	4,971324	3,06975	10,9008	-0,421	84,983	0	1010,86	6,3	8,2	8,1	1	1	1	1	1	1	1	1	1	0	1	-4,369274	273,606412	313,382618	0
15.01.2021	06:08:23	0	0	4,632398	2,99475	7,8768	-0,418	84,978	0	1011,02	6,2	8,2	8	1	1	1	1	1	1	1	1	1	0	1	-6,272023	273,516441	311,062124	0
15.01.2021	06:08:24	0	0	2,485662	2,928	1,9224	-0,423	84,986	0	1011,08	6,3	8,2	8,1	1	1	1	1	1	1	1	1	1	0	1	-6,8358	273,477391	310,317163	0
15.01.2021	06:08:25	0	0	3,615508	3,0645	359,568	-0,421	84,993	0	1010,92	6,2	8,2	8,1	1	1	1	1	1	1	1	1	1	0	1	-3,100775	273,425448	313,811302	0
15.01.2021	06:08:26	0	0	4,971324	3,20325	5,6952	-0,419	84,998	0	1011,04	6,2	8,2	8,1	1	1	1	1	1	1	1	1	1	0	1	-1,409443	273,514993	315,917985	0
15.01.2021	06:08:27	0	0	4,406401	3,24	7,884	-0,419	84,998	0	1011,02	6,2	8,2	8,1	1	1	1	1	1	1	1	1	1	0	1	-1,198027	273,596233	316,506582	0
15.01.2021	06:08:28	0	0	4,971324	3,303	21,7728	-0,425	84,993	0	1010,96	6,2	8,2	8,1	1	1	1	1	1	1	1	1	1	0	1	-8,597604	273,574439	309,005785	0
15.01.2021	06:08:29	0	0	4,067447	3,249	13,1688	-0,416	85,008	0	1011,04	6,3	8,2	8,1	1	1	1	1	1	1	1	1	1	0	1	-6,060606	273,580248	311,569761	0
15.01.2021	06:08:30	0	0	3,954462	3,04425	13,1724	-0,418	85,001	0	1011,06	6,2	8,1	8,1	1	1	1	1	1	1	1	1	1	0	1	-7,329105	273,597687	310,382256	0
15.01.2021	06:08:31	0	0	2,711631	2,988	10,818	-0,421	85,001	0	1011,1	6,2	8,2	8,1	1	1	1	1	1	1	1	1	1	0	1	-7,82241	273,494737	309,411024	0
15.01.2021	06:08:32	0	0	5,197293	3,01425	4,1004	-0,42	85,004	0	1011	6,2	8,2	8,1	1	1	1	1	1	1	1	1	1	0	1	-2,677942	273,604958	315,067193	0
15.01.2021	06:08:33	0	0	2,711631	3,13725	0,8784	-0,417	84,997	0	1011,04	6,2	8,2	8,1	1	1	1	1	1	1	1	1	1	0	1	-5,144468	273,477391	312,008495	0
15.01.2021	06:08:34	0	0	2,711631	3,2745	359,8524	-0,418	85,009	0	1011,14	6,2	8,2	8,1	1	1	1	1	1	1	1	1	1	0	1	-6,272023	273,514993	311,055406	0
15.01.2021	06:08:35	0	0	2,485662	3,15975	360	-0,421	85,007	0	1011,16	6,3	8,2	8,1	1	1	1	1	1	1	1	1	1	0	1	-4,792107	273,623875	313,040913	0
15.01.2021	06:08:36	0	0	2,485662	2,97975	12,1032	-0,426	85,009	0	1011,08	6,2	8,2	8,1	1	1	1	1	1	1	1	1	1	0	1	-4,157858	273,429772	312,774263	0
15.01.2021	06:08:37	0	0	4,293416	2,84025	5,6772	-0,419	85,001	0	1010,94	6,2	8,2	8,1	1	1	1	1	1	1	1	1	1	0	1	-4,510218	273,458618	312,555667	0
15.01.2021	06:08:38	0	0	4,63237	2,8035	3,7692	-0,423	84,997	0	1010,96	6,2	8,2	8,1	1	1	1	1	1	1	1	1	1	0	1	-5,637773	273,425448	311,274304	0
15.01.2021	06:08:39	0	0	3,389539	2,81475	5,2056	-0,418	85,001	0	1010,94	6,2	8,2	8,1	1	1	1	1	1	1	1	1	1	0	1	-4,298802	273,42833	312,626637	0
15.01.2021	06:08:40	0	0	3,163589	2,826	12,6972	-0,42	84,99	0	1010,96	6,3	8,2	8	1	1	1	1	1	1	1	1	1	0	1	-1,127555	273,55412	316,381487	0
15.01.2021	06:08:41	0	0	3,954462	2,835	17,2368	-0,42	85,008	0	1011,14	6,2	8,2	8,1	1	1	1	1	1	1	1	1	1	0	1	-3,100775	273,584606	314,549832	0
15.01.2021	06:08:42	0	0	4,180431	2,89275	1,1916	-0,417	85,014	0	1011,12	6,2	8,2	8,1	1	1	1	1	1	1	1	1	1	0	1	-5,426357	273,526578	311,954837	0
15.01.2021	06:08:43	0	0	4,745383	3,02475	2,2932	-0,418	85,008	0	1011,12	6,2	8,2	8	1	1	1	1	1	1	1	1	1	0	1	-0,916138	273,23761	315,125986	0
15.01.2021	06:08:44	0	0	4,519385	2,95725	10,4436	-0,421	85,01	0	1011,02	6,2	8,2	8,1	1	1	1	1	1	1	1	1	1	0	1	-5,637773	273,431213	311,30103	0
15.01.2021	06:08:45	0	0	4,971324	2,85375	13,9104	-0,419	85,008	0	1011,04	6,2	8,2	8,1	1	1	1	1	1	1	1	1	1	0	1	-6,765328	273,558472	310,763921	0
15.01.2021	06:08:46	0	0	3,954462	2,9535	9,7776	-0,416	85,008	0	1011,1	6,2	8,2	8,1	1	1	1	1	1	1	1	1	1	0	1	-5,778717	273,483172	311,40106	0
15.01.2021	06:08:47	0	0	2,9376	3,00375	21,8772	-0,417	85,021	0	1011,14	6,2	8,2	8,1	1	1	1	1	1	1	1	1	1	0	1	-2,466526	273,607867	315,292123	0
15.01.2021	06:08:48	0	0	3,276574	2,904	26,892	-0,421	85,003	0	1011	6,2	8,2	8	1	1	1	1	1	1	1	1	1	0	1	-3,382664	273,487508	313,81723	0
15.01.2021	06:08:49	0	0	4,745355	2,70225	24,336	-0,42	85,007	0	1011,04	6,2	8,2	8,1	1	1	1	1	1	1	1	1	1	0	1	-3,59408	273,602049	314,137543	0
15.01.2021	06:08:50	0	0	4,858339	2,46375	25,4268	-0,424	85,009	0	1010,98	6,2	8,2	8,1	1	1	1	1	1	1	1	1	1	0	1	-5,919662	273,551219	311,575912	0
15.01.2021	06:08:51	0	0	2,9376	2,2845	30,8016	-0,42	84,998	0	1011,12	6,2	8,2	8,1	1	1	1	1	1	1	1	1	1	0	1	-2,889359	273,596233	314,81525	0
15.01.2021	06:08:52	0	0	3,389539	2,2575	14,652	-0,42	85,007	0	1011,1	6,3	8,2	8,1	1	1	1	1	1	1	1	1	1	0	1	-7,540521	273,516441	309,793625	0
15.01.2021	06:08:53	0	0	3,16357	2,451	21,3984	-0,424	85,01	0	1011,06	6,2	8,1	8,1	1	1	1	1	1	1	1	1	1	0	1	-4,22833	273,591872	313,456023	0
15.01.2021	06:08:54	0	0	2,824616	2,7105	21,3804	-0,419	85,002	0	1010,98	6,2	8,2	8,1	1	1	1	1	1	1	1	1	1	0	1	-7,610994	273,494737	309,622441	0
15.01.2021	06:08:55	0	0	2,824633	2,928	22,1832	-0,421	85,017	0	1011	6,3	8,2	8	1	1	1	1	1	1	1	1	1	0	1	-6,553911	273,606412	311,197981	0
15.01.2021	06:08:56	0	0	2,598647	2,9685	21,0096	-0,415	85,011	0	1011,1	6,2	8,2	8,1	1	1	1	1	1	1	1	1	1	0	1	-1,761804	273,462949	315,324167	0
15.01.2021	06:08:57	0	0	4,406401	2,8065	19,1412	-0,425	85,016	0	1011,02	6,2	8,2	8,1	1	1	1	1	1	1	1	1	1	0	1	-3,523608	273,473057	313,609251	0
15.01.2021	06:08:58	0	0	4,745355	2,703	14,2956	-0,423	85,015	0	1011,04	6,2	8,2	8,1	1	1	1	1	1	1	1	1	1	0	1	-1,198027	273,600595	316,526842	0
15.01.2021	06:08:59	0	0	3,954462	2,6925	22,4676	-0,421	85,022	0	1011,08	6,2	8,2	8,1	1	1	1	1	1	1	1	1	1	0	1	-4,087385	273,517889	313,25348	0
15.01.2021	06:09:00	0	0	2,485662	2,95875	5,6988	-0,42	85,008	0	1010,96	6,2	8,2	8,1	1	1	1	1	1	1	1	1	1	0	1	-4,651163	273,530924	312,750202	0
15.01.2021	06:09:01	0	0	2,485662	2,95875	5,6988	-0,42	85,008	0	1010,96	6,2	8,2	8,1	1	1	1	1	1	1	1	1	1	0	1	-4,651163	273,530924	312,750202	0
15.01.2021	06:09:02	0	0	4,745355	2,86425	14,3064	-0,42	85,019	0	1010,9	6,2	8,1	8,1	1	1	1	1	1	1	1	1	1	0	1	-8,245243	273,426889	308,673515	0
15.01.2021	06:09:03	0	0	4,858339	2,733	14,6484	-0,424	85,009	0	1011,06	6,2	8,2	8,1	1	1	1	1	1	1	1	1	1	0	1	-5,144468	273,457175	311,914724	0
15.01.2021	06:09:04	0	0	4,745355	2,75625	0,1224	-0,415	85,023	0	1011,16	6,2	8,2	8,1	1	1	1	1	1	1	1	1	1	0	1	-4,580691	273,512098	312,733303	0
15.01.2021	06:09:05	0	0	5,084308	2,81025	6,0696	-0,418	85,015	0	1011	6,2	8,2	8,1	1	1	1	1	1	1	1	1	1	0	1	-4,439746	273,594779	313,25811	0
15.01.2021	06:09:06	0	0	4,858339	2,925	18,4428	-0,417	85,025	0	1011,04	6,2	8,2	8,1	1	1	1	1	1	1	1	1	1	0	1	-2,255109	273,52513	315,119361	0
15.01.2021	06:09:07	0	0	4,971324	2,9415	9,3672	-0,419	84,998	0	1011,12	6,2	8,2	8,1	1	1	1	1	1	1	1	1	1	0	1	-3,382664	273,596233	314,321944	0
15.01.2021	06:09:08	0	0	4,632398	2,80575	16,8552	-0,42	85,022	0	1011,08	6,2	8,2	8	1	1	1	1	1	1	1	1	1	0	1	-3,171247	273,42833	313,754192	0
15.01.2021	06:09:09	0	0	5,310278	2,7915	18,4572	-0,417	84,999	0	1011,18	6,2	8,2	8,1	1	1	1	1	1	1	1	1	1	0	1	-6,624383	273,559923	310,911602	0
15.01.2021	06:09:10	0	0	3,841478	2,718	19,152	-0,423	85,011	0	1011,08	6,2	8,2	8,1	1	1	1	1	1	1	1	1	1	0	1	-9,161381	273,436979	307,804158	0
15.01.2021	06:09:11	0	0	3,841478	2,51775	30,7008	-0,417	85,018	0	1011,04	6,2	8,2	8,1	1	1	1	1	1	1	1	1	1	0	1	-1,479915	273,460061	315,592665	0
15.01.2021	06:09:12	0	0	3,615508	2,56425	18,4608	-0,42	85,017	0	1011,08	6,2	8,2	8,1	1	1	1	1	1	1	1	1	1	0	1	-6,412967	273,474502	310,726593	0
15.01.2021	06:09:13	0	0	2,711631	2,67075	30,3192	-0,417	85,031	0	1011,08	6,2	8,2	8,1	1	1	1	1	1	1	1	1	1	0	1	-6,8358	273,424007	310,069597	0
15.01.2021	06:09:14	0	0	3,389559	2,547	10,8108	-0,42	85,004	0	1011,12	6,2	8,2	8	1	1	1	1	1	1	1	1	1	0	1	-5,990134	273,543968	311,47178	0
15.01.2021	06:09:15	0	0	3,276554	2,4675	18,0756	-0,415	85,024	0	1011,14	6,3	8,2	8,1	1	1	1	1	1	1	1	1	1	0	1	-7,399577	273,421126	309,492462	0
15.01.2021	06:09:16	0	0	5,084308	2,3745	9,3744	-0,421	85,016	0	1011	6,3	8,2	8,1	1	1	1	1	1	1	1	1	1	0	1	-10,923185	273,513546	306,397525	0
15.01.2021	06:09:17	0	0	2,824616	2,3415	11,7144	-0,424	85,022	0	1011,02	6,2	8,2	8,1	1	1	1	1	1	1	1	1	1	0	1	-6,483439	273,607867	311,27521	0
15.01.2021	06:09:18	0	0	4,858339	2,21775	21,78	-0,414	85,044	0	1011,1	6,2	8,2	8,1	1	1	1	1	1	1	1	1	1	0	1	-3,312192	273,500522	313,948086	0
15.01.2021	06:09:19	0	0	3,050585	2,202	1,1808	-0,412	85,03	0	1010,96	6,2	8,2	8,1	1	1	1	1	1	1	1	1	1	0	1	-4,298802	273,593326	313,392302	0
15.01.2021	06:09:20	0	0	4,858339	2,175	22,8276	-0,425	85,019	0	1011,02	6,2	8,2	8,1	1	1	1	1	1	1	1	1	1	0	1	-5,285412	273,561374	312,257311	0
15.01.2021	06:09:21	0	0	3,16357	2,12325	9,7524	-0,42	85,024	0	1011,08	6,2	8,2	8,1	1	1	1	1	1	1	1	1	1	0	1	-3,453136	273,444189	313,545837	0
15.01.2021	06:09:22	0	0	3,728493	2,03175	16,0956	-0,425	85,022	0	1010,94	6,2	8,2	8,1	1	1	1	1	1	1	1	1	1	0	1	-5,285412	273,435537	311,673442	0
15.01.2021	06:09:23	0	0	3,502524	2,055	8,2764	-0,42	85,028	0	1011,04	6,2	8,2	8,1	1	1	1	1	1	1	1	1	1	0	1	-3,523608	273,504863	313,756808	0
15.01.2021	06:09:24	0	0	4,180431	2,064	4,1004	-0,417	85,032	0	1011,04	6,2	8,2	8,1	1	1	1	1	1	1	1	1	1	0	1	-2,889359	273,425448	314,022719	0
15.01.2021	06:09:25	0	0	3,050585	2,09175	4,482	-0,417	85,023	0	1011,16	6,3	8,2	8,1	1	1	1	1	1	1	1	1	1	0	1	-7,117689	273,552669	310,384619	0
15.01.2021	06:09:26	0	0	2,9376	2,20575	2,3112	-0,418	85,024	0	1011,1	6,2	8,2	8,1	1	1	1	1	1	1	1	1	1	0	1	-5,21494	273,487508	311,984954	0
15.01.2021	06:09:27	0	0	3,276554	2,21475	3,7764	-0,415	85,037	0	1011,06	6,2	8,2	8,1	1	1	1	1	1	1	1	1	1	0	1	-3,030303	273,415365	313,835027	0
15.01.2021	06:09:28	0	0	3,276554	2,25675	0,1332	-0,419	85,031	0	1011,2	6,1	8,2	8,1	1	1	1	1	1	1	1	1	1	0	1	-6,8358	273,486062	310,357388	0
15.01.2021	06:09:29	0	0	4,067447	2,33025	7,5276	-0,416	85,013	0	1011,02	6,2	8,2	8,1	1	1	1	1	1	1	1	1	1	0	1	-4,510218	273,432654	312,435268	0
15.01.2021	06:09:30	0	0	5,31031	2,3955	2,6388	-0,423	85,026	0	1011,08	6,2	8,2	8	1	1	1	1	1	1	1	1	1	0	1	-4,510218	273,562825	313,039243	0
15.01.2021	06:09:31	0	0	4,63237	2,46525	8,6112	-0,415	85,027	0	1010,92	6,2	8,2	8,1	1	1	1	1	1	1	1	1	1	0	1	-1,761804	273,491845	315,458212	0
15.01.2021	06:09:32	0	0	3,050585	2,445	6,4332	-0,408	85,038	0	1011,1	6,2	8,2	8,1	1	1	1	1	1	1	1	1	1	0	1	-1,550388	273,429772	315,381733	0
15.01.2021	06:09:33	0	0	3,841478	2,421	1,1808	-0,421	85,025	0	1011,1	6,3	8,2	8,1	1	1	1	1	1	1	1	1	1	0	1	-2,818887	273,539619	314,622839	0
15.01.2021	06:09:34	0	0	4,63237	2,54625	3,3984	-0,418	85,029	0	1011,12	6,2	8,1	8,1	1	1	1	1	1	1	1	1	1	0	1	-3,100775	273,586059	314,55658	0
15.01.2021	06:09:35	0	0	4,519385	2,8095	9,0792	-0,412	85,027	0	1011,06	6,2	8,2	8,1	1	1	1	1	1	1	1	1	1	0	1	-0,281889	273,574439	317,3215	0
15.01.2021	06:09:36	0	0	4,293416	2,96025	9,7596	-0,412	85,023	0	1010,98	6,2	8,2	8,1	1	1	1	1	1	1	1	1	1	0	1	-0	273,513546	317,32071	0
15.01.2021	06:09:37	0	0	3,050585	3,26325	20,6388	-0,416	85,032	0	1011,06	6,2	8,2	8,1	1	1	1	1	1	1	1	1	1	0	1	-4,087385	273,425448	312,824692	0
15.01.2021	06:09:38	0	0	4,63237	3,3015	15,7896	-0,414	85,021	0	1011,04	6,2	8,2	8,1	1	1	1	1	1	1	1	1	1	0	1	-2,748414	273,458618	314,317471	0
15.01.2021	06:09:39	0	0	4,63237	3,48825	10,908	-0,414	85,02	0	1010,96	6,2	8,2	8,1	1	1	1	1	1	1	1	1	1	0	1	-6,060606	273,584606	311,590001	0
15.01.2021	06:09:40	0	0	2,598647	3,50175	16,0956	-0,414	85,029	0	1011,06	6,3	8,2	8,1	1	1	1	1	1	1	1	1	1	0	1	-5,285412	273,559923	312,250574	0
15.01.2021	06:09:41	0	0	3,389539	3,429	20,2968	-0,415	85,037	0	1011,06	6,2	8,2	8,1	1	1	1	1	1	1	1	1	1	0	1	-6,624383	273,558472	310,904866	0
15.01.2021	06:09:42	0	0	4,519385	3,1935	17,6976	-0,415	85,031	0	1011,14	6,3	8,2	8,1	1	1	1	1	1	1	1	1	1	0	1	-3,030303	273,424007	313,875094	0
15.01.2021	06:09:43	0	0	3,276554	3,05625	26,1828	-0,416	85,031	0	1011,12	6,2	8,2	8,1	1	1	1	1	1	1	1	1	1	0	1	-3,312192	273,558472	314,217057	0
15.01.2021	06:09:44	0	0	2,711631	3,10125	17,2512	-0,418	85,035	0	1011,02	6,2	8,2	8,1	1	1	1	1	1	1	1	1	1	0	1	-6,272023	273,455731	310,780476	0
15.01.2021	06:09:45	0	0	3,276554	3,04575	10,4472	-0,418	85,033	0	1011	6,2	8,2	8,1	1	1	1	1	1	1	1	1	1	0	1	-9,090909	273,452845	307,948204	0
15.01.2021	06:09:46	0	0	4,406401	2,96925	16,4736	-0,423	85,02	0	1011,02	6,2	8,2	8,1	1	1	1	1	1	1	1	1	1	0	1	-5,426357	273,532373	311,981734	0
15.01.2021	06:09:47	0	0	3,389539	2,94	7,884	-0,414	85,018	0	1011,16	6,1	8,2	8,1	1	1	1	1	1	1	1	1	1	0	1	-9,161381	273,431213	307,777422	0
15.01.2021	06:09:48	0	0	3,841478	2,9205	4,8564	-0,42	85,019	0	1011	6,2	8,2	8,1	1	1	1	1	1	1	1	1	1	0	1	-5,426357	273,496183	311,813788	0
15.01.2021	06:09:49	0	0	2,711631	2,78925	6,8112	-0,411	85,027	0	1011,06	6,2	8,2	8,1	1	1	1	1	1	1	1	1	1	0	1	-3,24172	273,413924	313,616934	0
15.01.2021	06:09:50	0	0	4,745355	2,74275	7,2144	-0,414	85,027	0	1010,98	6,3	8,2	8,1	1	1	1	1	1	1	1	1	1	0	1	-9,866103	273,565728	307,696837	0
15.01.2021	06:09:51	0	0	4,180431	2,805	358,0236	-0,414	85,024	0	1011,18	6,2	8,2	8,1	1	1	1	1	1	1	1	1	1	0	1	-5,778717	273,522233	311,582309	0
15.01.2021	06:09:52	0	0	4,63237	2,9205	14,3064	-0,41	85,02	0	1011	6,2	8,2	8,1	1	1	1	1	1	1	1	1	1	0	1	-6,976744	273,594779	310,721112	0
15.01.2021	06:09:53	0	0	4,745355	2,976	14,6484	-0,416	85,021	0	1011,12	6,2	8,2	8,1	1	1	1	1	1	1	1	1	1	0	1	-6,20155	273,533822	311,213266	0
15.01.2021	06:09:54	0	0	3,276554	2,9895	1,5516	-0,417	85,018	0	1011,1	6,2	8,2	8,1	1	1	1	1	1	1	1	1	1	0	1	-4,510218	273,577343	313,106658	0
15.01.2021	06:09:55	0	0	3,276554	2,8845	6,0588	-0,41	85,024	0	1011,18	6,2	8,2	8,1	1	1	1	1	1	1	1	1	1	0	1	-3,664553	273,413924	313,194101	0
15.01.2021	06:09:56	0	0	3,502524	3,0885	15,0336	-0,422	85,007	0	1010,88	6,2	8,2	8,1	1	1	1	1	1	1	1	1	1	0	1	-6,483439	273,533822	310,931377	0
15.01.2021	06:09:57	0	0	4,519385	3,32325	19,1556	-0,42	85,013	0	1011,18	6,3	8,2	8,1	1	1	1	1	1	1	1	1	1	0	1	-1,550388	273,594779	316,147468	0
15.01.2021	06:09:58	0	0	4,63237	3,4395	10,0692	-0,418	85,021	0	1010,9	6,2	8,2	8,1	1	1	1	1	1	1	1	1	1	0	1	-8,386187	273,454288	308,659618	0
15.01.2021	06:09:59	0	0	2,9376	3,396	12,0996	-0,421	85,015	0	1011,04	6,2	8,2	8,1	1	1	1	1	1	1	1	1	1	0	1	-3,664553	273,564277	313,891648	0
15.01.2021	06:10:00	0	0	3,389539	3,81975	6,4404	-0,413	85,034	0	1011,14	6,2	8,2	8,1	1	1	1	1	1	1	1	1	1	0	1	-2,677942	273,588966	314,992911	0
15.01.2021	06:10:01	0	0	3,389539	3,81975	6,4404	-0,413	85,034	0	1011,14	6,2	8,2	8,1	1	1	1	1	1	1	1	1	1	0	1	-2,677942	273,588966	314,992911	0
15.01.2021	06:10:02	0	0	3,615508	4,095	13,914	-0,421	85,002	0	1010,94	6,2	8,2	8,1	1	1	1	1	1	1	1	1	1	0	1	-3,946441	273,451402	313,085981	0
15.01.2021	06:10:03	0	0	4,971324	4,18575	10,0764	-0,418	85,021	0	1011,12	6,2	8,2	8,1	1	1	1	1	1	1	1	1	1	0	1	-3,59408	273,468724	313,518681	0
15.01.2021	06:10:04	0	0	3,954462	4,12125	13,1616	-0,418	84,996	0	1011,1	6,2	8,2	8,1	1	1	1	1	1	1	1	1	1	0	1	-7,329105	273,590419	310,348498	0
15.01.2021	06:10:05	0	0	4,293416	4,1325	10,818	-0,427	85,014	0	1011	6,2	8,2	8,1	1	1	1	1	1	1	1	1	1	0	1	-1,550388	273,557021	315,972125	0
15.01.2021	06:10:06	0	0	3,728493	4,02675	5,6844	-0,419	85,004	0	1011,2	6,2	8,2	8,1	1	1	1	1	1	1	1	1	1	0	1	-7,188161	273,425448	309,723917	0
15.01.2021	06:10:07	0	0	2,824616	3,831	5,6844	-0,416	85,02	0	1011,06	6,2	8,2	8,1	1	1	1	1	1	1	1	1	1	0	1	-4,298802	273,561374	313,243921	0
15.01.2021	06:10:08	0	0	4,63237	3,97425	12,1212	-0,419	85,019	0	1011,08	6,2	8,2	8,1	1	1	1	1	1	1	1	1	1	0	1	-5,426357	273,591872	312,257997	0
15.01.2021	06:10:09	0	0	4,406401	4,1475	13,9248	-0,421	85,011	0	1011,04	6,2	8,2	8,1	1	1	1	1	1	1	1	1	1	0	1	-6,412967	273,565728	311,149973	0
15.01.2021	06:10:10	0	0	3,050585	4,0575	19,5408	-0,421	85,003	0	1011,12	6,2	8,2	8,1	1	1	1	1	1	1	1	1	1	0	1	-8,668076	273,486062	308,525112	0
15.01.2021	06:10:11	0	0	4,293416	3,76725	7,8876	-0,415	85,001	0	1010,88	6,2	8,2	8,1	1	1	1	1	1	1	1	1	1	0	1	-1,832276	273,600595	315,892593	0
15.01.2021	06:10:12	0	0	4,406401	3,537	9,7668	-0,418	85,021	0	1010,94	6,2	8,2	8,1	1	1	1	1	1	1	1	1	1	0	1	-3,24172	273,539619	314,200006	0
15.01.2021	06:10:13	0	0	3,276554	3,41775	9,738	-0,415	84,994	0	1010,98	6,2	8,2	8,1	1	1	1	1	1	1	1	1	1	0	1	-4,087385	273,411045	312,757919	0
15.01.2021	06:10:14	0	0	3,615508	3,453	9,7488	-0,416	85,013	0	1011,08	6,2	8,2	8,1	1	1	1	1	1	1	1	1	1	0	1	-5,144468	273,528027	312,243449	0
15.01.2021	06:10:15	0	0	3,615508	3,62625	14,4036	-0,416	85,007	0	1011,16	6,2	8,2	8,1	1	1	1	1	1	1	1	1	1	0	1	-0,775194	273,42833	316,150245	0
15.01.2021	06:10:16	0	0	3,615508	3,67425	13,914	-0,418	85,005	0	1010,98	6,3	8,2	8,1	1	1	1	1	1	1	1	1	1	0	1	-3,171247	273,558472	314,358002	0
15.01.2021	06:10:17	0	0	2,259693	3,552	14,652	-0,416	85,003	0	1011,12	6,3	8,2	8,1	1	1	1	1	1	1	1	1	1	0	1	-1,338971	273,435537	315,619883	0
15.01.2021	06:10:18	0	0	2,598647	3,52575	11,7252	-0,417	85,016	0	1011,12	6,2	8,2	8,1	1	1	1	1	1	1	1	1	1	0	1	-3,735025	273,42833	313,190414	0
15.01.2021	06:10:19	0	0	5,197293	3,5505	11,8332	-0,417	85,018	0	1011,14	6,2	8,2	8,1	1	1	1	1	1	1	1	1	1	0	1	-7,117689	273,461505	309,961587	0
15.01.2021	06:10:20	0	0	4,067447	3,3285	13,1652	-0,423	84,997	0	1011	6,2	8,2	8,1	1	1	1	1	1	1	1	1	1	0	1	-4,369274	273,441305	312,616324	0
15.01.2021	06:10:21	0	0	2,485662	3,2235	9,7668	-0,419	84,998	0	1011,02	6,3	8,2	8,1	1	1	1	1	1	1	1	1	1	0	1	-2,677942	273,533822	314,736874	0
15.01.2021	06:10:22	0	0	4,180431	3,09225	356,8896	-0,419	85,005	0	1011,08	6,2	8,2	8,1	1	1	1	1	1	1	1	1	1	0	1	-7,751938	273,609322	310,013469	0
15.01.2021	06:10:23	0	0	3,389539	3,0315	6,4296	-0,421	85,005	0	1011,08	6,2	8,2	8,1	1	1	1	1	1	1	1	1	1	0	1	-0	273,486062	317,193188	0
15.01.2021	06:10:24	0	0	4,745355	3,03375	16,0992	-0,42	85,003	0	1011,16	6,3	8,2	8,1	1	1	1	1	1	1	1	1	1	0	1	-4,016913	273,42833	312,908526	0
15.01.2021	06:10:25	0	0	4,745355	2,8995	9,3564	-0,419	85,004	0	1010,94	6,2	8,2	8,1	1	1	1	1	1	1	1	1	1	0	1	-0,563777	273,445632	316,441884	0
15.01.2021	06:10:26	0	0	3,841478	2,84625	15,7968	-0,418	85,008	0	1011	6,3	8,2	8,1	1	1	1	1	1	1	1	1	1	0	1	-6,8358	273,578796	310,787822	0
15.01.2021	06:10:27	0	0	3,16357	2,9235	12,5712	-0,42	85,004	0	1010,9	6,3	8,2	8,1	1	1	1	1	1	1	1	1	1	0	1	-7,681466	273,552669	309,820842	0
15.01.2021	06:10:28	0	0	4,519385	2,87925	15,0372	-0,42	85,02	0	1011,02	6,2	8,2	8,1	1	1	1	1	1	1	1	1	1	0	1	-0	273,519337	317,347585	0
15.01.2021	06:10:29	0	0	3,050585	2,71425	17,2368	-0,42	85,019	0	1011,06	6,3	8,2	8,1	1	1	1	1	1	1	1	1	1	0	1	-3,805497	273,587513	313,858607	0
15.01.2021	06:10:30	0	0	3,615508	2,58375	15,0264	-0,422	85,006	0	1011,02	6,3	8,2	8,1	1	1	1	1	1	1	1	1	1	0	1	-2,184637	273,53672	315,243632	0
15.01.2021	06:10:31	0	0	2,824616	2,55825	6,0768	-0,415	85,02	0	1010,96	6,2	8,2	8,1	1	1	1	1	1	1	1	1	1	0	1	-2,677942	273,429772	314,254179	0
15.01.2021	06:10:32	0	0	4,63237	2,589	1,188	-0,415	85,008	0	1011,14	6,2	8,2	8,1	1	1	1	1	1	1	1	1	1	0	1	-7,188161	273,558472	310,341088	0
15.01.2021	06:10:33	0	0	3,615508	2,64525	10,8324	-0,418	85,03	0	1011,2	6,2	8,2	8,1	1	1	1	1	1	1	1	1	1	0	1	-4,369274	273,429772	312,562847	0
15.01.2021	06:10:34	0	0	4,519385	2,6385	15,7824	-0,42	84,999	0	1011,06	6,2	8,2	8,1	1	1	1	1	1	1	1	1	1	0	1	-6,412967	273,593326	311,278137	0
15.01.2021	06:10:35	0	0	4,745355	2,54925	15,408	-0,418	85,002	0	1011,14	6,2	8,2	8,1	1	1	1	1	1	1	1	1	1	0	1	-4,087385	273,551219	313,408188	0
15.01.2021	06:10:36	0	0	4,406401	2,5725	5,2236	-0,42	85,002	0	1011,02	6,2	8,2	8,1	1	1	1	1	1	1	1	1	1	0	1	-3,030303	273,606412	314,721589	0
15.01.2021	06:10:37	0	0	3,502524	2,553	14,31	-0,422	85,016	0	1011,02	6,2	8,2	8,1	1	1	1	1	1	1	1	1	1	0	1	-1,761804	273,473057	315,371055	0
15.01.2021	06:10:38	0	0	3,050585	2,4375	13,176	-0,419	85,025	0	1011,02	6,2	8,1	8,1	1	1	1	1	1	1	1	1	1	0	1	-4,087385	273,462949	312,998586	0
15.01.2021	06:10:39	0	0	4,971324	2,37075	13,9176	-0,419	84,998	0	1011,1	6,2	8,2	8,1	1	1	1	1	1	1	1	1	1	0	1	-1,409443	273,557021	316,113069	0
15.01.2021	06:10:40	0	0	4,067447	2,4315	8,5968	-0,415	85,004	0	1011,04	6,2	8,2	8,1	1	1	1	1	1	1	1	1	1	0	1	-7,610994	273,477391	309,54197	0
15.01.2021	06:10:41	0	0	4,406401	2,64675	18,9216	-0,419	85,013	0	1011,02	6,3	8,2	8,1	1	1	1	1	1	1	1	1	1	0	1	-5,990134	273,584606	311,660473	0
15.01.2021	06:10:42	0	0	3,615508	2,745	8,982	-0,422	85,021	0	1011,04	6,2	8,2	8,1	1	1	1	1	1	1	1	1	1	0	1	-9,372798	273,552669	308,12951	0
15.01.2021	06:10:43	0	0	4,406401	2,6235	22,8276	-0,418	85,022	0	1011,06	6,2	8,2	8,1	1	1	1	1	1	1	1	1	1	0	1	-5,285412	273,562825	312,264049	0
15.01.2021	06:10:44	0	0	3,276554	2,32425	7,1244	-0,42	85,022	0	1011,18	6,2	8,2	8,1	1	1	1	1	1	1	1	1	1	0	1	-4,087385	273,449959	312,938345	0
15.01.2021	06:10:45	0	0	4,63237	2,3625	10,8108	-0,418	85,018	0	1011,08	6,3	8,2	8,1	1	1	1	1	1	1	1	1	1	0	1	-4,721635	273,447074	312,290716	0
15.01.2021	06:10:46	0	0	4,63237	2,51025	9,3744	-0,42	85,011	0	1010,96	6,2	8,2	8,1	1	1	1	1	1	1	1	1	1	0	1	-3,453136	273,415365	313,412194	0
15.01.2021	06:10:47	0	0	4,519385	2,589	360	-0,423	85,031	0	1010,94	6,2	8,2	8,1	1	1	1	1	1	1	1	1	1	0	1	-0,281889	273,72313	318,012549	0
15.01.2021	06:10:48	0	0	4,293416	2,80725	7,5204	-0,425	85,02	0	1011,18	6,2	8,2	8,1	1	1	1	1	1	1	1	1	1	0	1	-2,889359	273,409605	313,949272	0
15.01.2021	06:10:49	0	0	3,050585	2,8785	359,8848	-0,417	85,02	0	1011,08	6,2	8,2	8,1	1	1	1	1	1	1	1	1	1	0	1	-5,285412	273,516441	312,048734	0
15.01.2021	06:10:50	0	0	4,971324	2,79075	9,7308	-0,418	85,021	0	1011,04	6,2	8,2	8,1	1	1	1	1	1	1	1	1	1	0	1	-3,100775	273,590419	314,576828	0
15.01.2021	06:10:51	0	0	4,858339	2,60175	20,286	-0,419	85,03	0	1010,88	6,3	8,2	8,1	1	1	1	1	1	1	1	1	1	0	1	-10,852713	273,580248	306,777654	0
15.01.2021	06:10:52	0	0	3,841478	2,502	13,1508	-0,422	85,029	0	1011,02	6,2	8,2	8,1	1	1	1	1	1	1	1	1	1	0	1	-4,651163	273,504863	312,629253	0
15.01.2021	06:10:53	0	0	2,824616	2,40675	18,0828	-0,419	85,026	0	1011,02	6,2	8,2	8,1	1	1	1	1	1	1	1	1	1	0	1	-6,412967	273,578796	311,210654	0
15.01.2021	06:10:54	0	0	3,954462	2,4225	10,4508	-0,426	85,012	0	1011,02	6,3	8,2	8,1	1	1	1	1	1	1	1	1	1	0	1	-0	273,509204	317,300561	0
15.01.2021	06:10:55	0	0	2,372677	2,409	10,4328	-0,418	85,026	0	1011,16	6,2	8,2	8,1	1	1	1	1	1	1	1	1	1	0	1	-2,255109	273,421126	314,63693	0
15.01.2021	06:10:56	0	0	5,310278	2,4615	10,818	-0,419	85,016	0	1010,94	6,2	8,2	8,1	1	1	1	1	1	1	1	1	1	0	1	-5,285412	273,50631	312,001718	0
15.01.2021	06:10:57	0	0	3,841478	2,51325	7,8912	-0,421	85,02	0	1011,04	6,2	8,2	8,1	1	1	1	1	1	1	1	1	1	0	1	-7,681466	273,594779	310,01639	0
15.01.2021	06:10:58	0	0	4,971324	2,4675	16,1064	-0,418	85,026	0	1011,02	6,2	8,2	8,1	1	1	1	1	1	1	1	1	1	0	1	-5,919662	273,53817	311,515335	0
15.01.2021	06:10:59	0	0	2,711631	2,32275	14,67	-0,421	85,027	0	1011,1	6,1	8,2	8,1	1	1	1	1	1	1	1	1	1	0	1	-1,691332	273,551219	315,804242	0
15.01.2021	06:11:00	0	0	3,502524	2,52675	7,1244	-0,426	85,019	0	1010,92	6,3	8,2	8,1	1	1	1	1	1	1	1	1	1	0	1	-3,453136	273,50631	313,833994	0
15.01.2021	06:11:01	0	0	3,502524	2,52675	7,1244	-0,426	85,019	0	1010,92	6,3	8,2	8,1	1	1	1	1	1	1	1	1	1	0	1	-3,453136	273,50631	313,833994	0
15.01.2021	06:11:02	0	0	3,728493	2,67075	4,482	-0,423	85	0	1011,02	6,2	8,2	8,1	1	1	1	1	1	1	1	1	1	0	1	-2,959831	273,421126	313,932208	0
15.01.2021	06:11:03	0	0	3,615508	2,84025	7,2252	-0,414	85,024	0	1011,12	6,2	8,2	8,1	1	1	1	1	1	1	1	1	1	0	1	-4,22833	273,447074	312,784021	0
15.01.2021	06:11:04	0	0	3,728493	3,054	11,7396	-0,417	85,031	0	1011,1	6,2	8,2	8,1	1	1	1	1	1	1	1	1	1	0	1	-3,453136	273,602049	314,278488	0
15.01.2021	06:11:05	0	0	3,615508	3,21	7,5132	-0,42	85,027	0	1010,98	6,2	8,2	8,1	1	1	1	1	1	1	1	1	1	0	1	-3,735025	273,500522	313,525253	0
15.01.2021	06:11:06	0	0	2,146708	3,35325	12,0852	-0,42	85,015	0	1010,9	6,2	8,2	8,1	1	1	1	1	1	1	1	1	1	0	1	-5,21494	273,421126	311,677099	0
15.01.2021	06:11:07	0	0	4,971324	3,33075	18,4644	-0,422	85,032	0	1011,08	6,2	8,2	8,1	1	1	1	1	1	1	1	1	1	0	1	-2,466526	273,546868	315,00885	0
15.01.2021	06:11:08	0	0	3,050585	3,144	19,908	-0,417	85,013	0	1011,02	6,2	8,2	8,1	1	1	1	1	1	1	1	1	1	0	1	-7,329105	273,578796	310,294516	0
15.01.2021	06:11:09	0	0	2,9376	2,8935	21,0276	-0,427	85,025	0	1011	6,2	8,2	8,1	1	1	1	1	1	1	1	1	1	0	1	-0,563777	273,42833	316,361662	0
15.01.2021	06:11:10	0	0	4,519385	2,87325	9,3636	-0,426	85,023	0	1010,98	6,2	8,2	8,1	1	1	1	1	1	1	1	1	1	0	1	-4,298802	273,532373	313,109288	0
15.01.2021	06:11:11	0	0	4,971324	3,04725	15,48	-0,423	85,038	0	1011,02	6,2	8,2	8,1	1	1	1	1	1	1	1	1	1	0	1	-0,211416	273,438421	316,760808	0
15.01.2021	06:11:12	0	0	4,406401	3,23175	6,426	-0,42	85,041	0	1011,08	6,2	8,2	8,1	1	1	1	1	1	1	1	1	1	0	1	-0,98661	273,493291	316,240115	0
15.01.2021	06:11:13	0	0	4,858339	3,2835	6,4404	-0,423	85,032	0	1011,16	6,2	8,2	8,1	1	1	1	1	1	1	1	1	1	0	1	-5,637773	273,591872	312,04658	0
15.01.2021	06:11:14	0	0	2,9376	3,11475	3,024	-0,42	85,039	0	1011,1	6,2	8,2	8,1	1	1	1	1	1	1	1	1	1	0	1	-6,694856	273,510651	310,612421	0
15.01.2021	06:11:15	0	0	4,406401	2,92875	2,304	-0,417	85,032	0	1010,94	6,3	8,2	8,1	1	1	1	1	1	1	1	1	1	0	1	-3,664553	273,419685	313,220808	0
15.01.2021	06:11:16	0	0	2,9376	2,796	358,4124	-0,425	85,028	0	1011,04	6,2	8,2	8,1	1	1	1	1	1	1	1	1	1	0	1	-6,20155	273,473057	310,931309	0
15.01.2021	06:11:17	0	0	3,615508	2,694	6,4332	-0,427	85,031	0	1011,06	6,3	8,2	8,1	1	1	1	1	1	1	1	1	1	0	1	-4,087385	273,580248	313,542981	0
15.01.2021	06:11:18	0	0	4,63237	2,5215	16,4808	-0,422	85,031	0	1011	6,2	8,2	8,1	1	1	1	1	1	1	1	1	1	0	1	-2,114165	273,483172	315,065612	0
15.01.2021	06:11:19	0	0	4,63237	2,3715	12,1068	-0,425	85,039	0	1011,02	6,3	8,2	8,1	1	1	1	1	1	1	1	1	1	0	1	-2,677942	273,421126	314,214097	0
15.01.2021	06:11:20	0	0	3,276554	2,2425	19,9044	-0,422	85,045	0	1011,08	6,2	8,2	8,1	1	1	1	1	1	1	1	1	1	0	1	-3,312192	273,441305	313,673406	0
15.01.2021	06:11:21	0	0	2,598647	2,0745	13,176	-0,425	85,041	0	1011,1	6,2	8,2	8,1	1	1	1	1	1	1	1	1	1	0	1	-2,818887	273,474502	314,320674	0
15.01.2021	06:11:22	0	0	4,519385	2,0115	29,9628	-0,421	85,019	0	1011,1	6,2	8,2	8,1	1	1	1	1	1	1	1	1	1	0	1	-6,131078	273,424007	310,774319	0
15.01.2021	06:11:23	0	0	4,519385	1,85325	16,4808	-0,425	85,026	0	1011,02	6,2	8,2	8,1	1	1	1	1	1	1	1	1	1	0	1	-1,902748	273,501969	315,364241	0
15.01.2021	06:11:24	0	0	2,9376	1,79325	22,464	-0,419	85,049	0	1011,06	6,2	8,2	8,1	1	1	1	1	1	1	1	1	1	0	1	-1,691332	273,583154	315,952528	0
15.01.2021	06:11:25	0	0	2,9376	1,773	9,3708	-0,419	85,035	0	1011,12	6,2	8,2	8,1	1	1	1	1	1	1	1	1	1	0	1	-2,60747	273,545418	314,861175	0
15.01.2021	06:11:26	0	0	4,519385	2,03175	6,066	-0,422	85,038	0	1011,08	6,2	8,2	8,1	1	1	1	1	1	1	1	1	1	0	1	-4,087385	273,580248	313,542981	0
15.01.2021	06:11:27	0	0	4,858339	2,247	14,3172	-0,417	85,042	0	1011,24	6,2	8,2	8,1	1	1	1	1	1	1	1	1	1	0	1	-2,818887	273,455731	314,233612	0
15.01.2021	06:11:28	0	0	4,067447	2,478	14,9976	-0,415	85,035	0	1011,14	6,1	8,2	8,1	1	1	1	1	1	1	1	1	1	0	1	-4,933051	273,593326	312,758053	0
15.01.2021	06:11:29	0	0	3,16357	2,4735	15,4116	-0,422	85,047	0	1011,08	6,2	8,2	8,1	1	1	1	1	1	1	1	1	1	0	1	-6,483439	273,465836	310,615926	0
15.01.2021	06:11:30	0	0	4,519385	2,4645	4,842	-0,421	85,025	0	1011,02	6,2	8,2	8,1	1	1	1	1	1	1	1	1	1	0	1	-4,22833	273,477391	312,924634	0
15.01.2021	06:11:31	0	0	4,293416	2,526	16,1028	-0,424	85,046	0	1011,02	6,3	8,2	8,1	1	1	1	1	1	1	1	1	1	0	1	-6,20155	273,602049	311,530073	0
15.01.2021	06:11:32	0	0	4,63237	2,59575	16,1064	-0,423	85,044	0	1011,04	6,3	8,2	8,1	1	1	1	1	1	1	1	1	1	0	1	-3,805497	273,49763	313,441358	0
15.01.2021	06:11:33	0	0	5,084308	2,58225	14,6556	-0,417	85,042	0	1011,02	6,2	8,2	8,1	1	1	1	1	1	1	1	1	1	0	1	-8,45666	273,583154	309,1872	0
15.01.2021	06:11:34	0	0	3,954462	2,59425	17,6868	-0,424	85,043	0	1010,88	6,1	8,2	8,1	1	1	1	1	1	1	1	1	1	0	1	-7,117689	273,454288	309,928117	0
15.01.2021	06:11:35	0	0	2,598647	2,5215	358,3584	-0,427	85,044	0	1011,1	6,2	8,2	8,1	1	1	1	1	1	1	1	1	1	0	1	-4,157858	273,447074	312,854493	0
15.01.2021	06:11:36	0	0	4,745355	2,5605	8,2836	-0,421	85,045	0	1010,98	6,2	8,2	8,1	1	1	1	1	1	1	1	1	1	0	1	-6,483439	273,551219	311,012135	0
15.01.2021	06:11:37	0	0	4,293416	2,61	356,166	-0,426	85,037	0	1011,04	6,2	8,2	8,1	1	1	1	1	1	1	1	1	1	0	1	-4,22833	273,415365	312,637	0
15.01.2021	06:11:38	0	0	2,711631	2,643	13,1724	-0,423	85,058	0	1011	6,2	8,2	8,1	1	1	1	1	1	1	1	1	1	0	1	-3,100775	273,415365	313,764555	0
15.01.2021	06:11:39	0	0	3,050585	2,496	19,5408	-0,42	85,051	0	1011	6,2	8,2	8,1	1	1	1	1	1	1	1	1	1	0	1	-4,933051	273,528027	312,454865	0
15.01.2021	06:11:40	0	0	4,63237	2,4	15,156	-0,425	85,037	0	1011,02	6,2	8,2	8,1	1	1	1	1	1	1	1	1	1	0	1	-4,862579	273,559923	312,673407	0
15.01.2021	06:11:41	0	0	4,63237	2,33325	11,7288	-0,418	85,032	0	1011,04	6,2	8,2	8,1	1	1	1	1	1	1	1	1	1	0	1	-5,426357	273,49763	311,820498	0
15.01.2021	06:11:42	0	0	4,63237	2,38875	16,4844	-0,421	85,034	0	1011,04	6,1	8,2	8,1	1	1	1	1	1	1	1	1	1	0	1	-4,157858	273,559923	313,378128	0
15.01.2021	06:11:43	0	0	4,971324	2,37225	9,4356	-0,415	85,06	0	1011,12	6,3	8,2	8,1	1	1	1	1	1	1	1	1	1	0	1	-1,479915	273,610777	316,29225	0
15.01.2021	06:11:44	0	0	4,406401	2,39625	13,9212	-0,419	85,029	0	1010,98	6,3	8,2	8,1	1	1	1	1	1	1	1	1	1	0	1	-2,255109	273,494737	314,978325	0
15.01.2021	06:11:45	0	0	4,971324	2,6205	10,8216	-0,42	85,053	0	1011,02	6,2	8,2	8,1	1	1	1	1	1	1	1	1	1	0	1	-4,016913	273,412484	312,835065	0
15.01.2021	06:11:46	0	0	3,841478	2,78175	9,3708	-0,42	85,046	0	1011,06	6,2	8,2	8,1	1	1	1	1	1	1	1	1	1	0	1	-4,298802	273,581701	313,338311	0
15.01.2021	06:11:47	0	0	4,745355	2,70975	10,4364	-0,426	85,053	0	1011,04	6,1	8,2	8,1	1	1	1	1	1	1	1	1	1	0	1	-4,862579	273,584606	312,788028	0
15.01.2021	06:11:48	0	0	3,050585	2,847	9,7596	-0,418	85,054	0	1011,06	6,2	8,2	8,1	1	1	1	1	1	1	1	1	1	0	1	-5,073996	273,460061	311,998585	0
15.01.2021	06:11:49	0	0	3,615508	2,84025	15,0228	-0,424	85,035	0	1011,06	6,3	8,2	8,1	1	1	1	1	1	1	1	1	1	0	1	-3,523608	273,599141	314,194507	0
15.01.2021	06:11:50	0	0	3,728493	2,736	13,5396	-0,418	85,058	0	1011,1	6,2	8,2	8,1	1	1	1	1	1	1	1	1	1	0	1	-2,748414	273,504863	314,532002	0
15.01.2021	06:11:51	0	0	2,711631	2,64075	15,786	-0,419	85,056	0	1011,16	6,2	8,2	8,1	1	1	1	1	1	1	1	1	1	0	1	-3,100775	273,412484	313,751204	0
15.01.2021	06:11:52	0	0	4,519385	2,586	25,7796	-0,428	85,047	0	1011,02	6,2	8,2	8,1	1	1	1	1	1	1	1	1	1	0	1	-6,412967	273,457175	310,646225	0
15.01.2021	06:11:53	0	0	3,954462	2,60175	27,6516	-0,424	85,049	0	1010,72	6,3	8,2	8,1	1	1	1	1	1	1	1	1	1	0	1	-0	273,477391	317,152963	0
15.01.2021	06:11:54	0	0	4,180431	2,67225	13,1616	-0,421	85,038	0	1010,98	6,2	8,2	8,1	1	1	1	1	1	1	1	1	1	0	1	-5,708245	273,577343	311,908631	0
15.01.2021	06:11:55	0	0	3,615508	2,6235	23,2164	-0,423	85,042	0	1011,16	6,2	8,2	8,1	1	1	1	1	1	1	1	1	1	0	1	-4,369274	273,455731	312,683224	0
15.01.2021	06:11:56	0	0	3,954462	2,53575	22,0896	-0,427	85,051	0	1010,9	6,2	8,2	8,1	1	1	1	1	1	1	1	1	1	0	1	-5,144468	273,406726	311,680816	0
15.01.2021	06:11:57	0	0	4,745355	2,48925	18,072	-0,421	85,048	0	1011,1	6,2	8,2	8,1	1	1	1	1	1	1	1	1	1	0	1	-3,946441	273,477391	313,206522	0
15.01.2021	06:11:58	0	0	3,615508	2,43675	21,402	-0,42	85,056	0	1011,1	6,2	8,2	8,1	1	1	1	1	1	1	1	1	1	0	1	-6,412967	273,55412	311,096075	0
15.01.2021	06:11:59	0	0	3,954462	2,58675	25,7868	-0,419	85,032	0	1011,02	6,2	8,2	8,1	1	1	1	1	1	1	1	1	1	0	1	-3,735025	273,455731	313,317474	0
15.01.2021	06:12:00	0	0	2,598647	2,44875	21,384	-0,424	85,025	0	1011,1	6,2	8,2	8,1	1	1	1	1	1	1	1	1	1	0	1	-4,157858	273,599141	313,560257	0
15.01.2021	06:12:01	0	0	2,598647	2,44875	21,384	-0,424	85,025	0	1011,1	6,2	8,2	8,1	1	1	1	1	1	1	1	1	1	0	1	-4,157858	273,599141	313,560257	0
15.01.2021	06:12:02	0	0	3,389539	2,292	27,3636	-0,414	85,047	0	1011,04	6,2	8,2	8,1	1	1	1	1	1	1	1	1	1	0	1	-6,483439	273,484617	310,703043	0
15.01.2021	06:12:03	0	0	4,971324	2,094	21,7764	-0,416	85,046	0	1011,08	6,2	8,2	8,1	1	1	1	1	1	1	1	1	1	0	1	-5,355884	273,578796	312,267737	0
15.01.2021	06:12:04	0	0	3,050585	2,14125	17,6832	-0,418	85,04	0	1010,96	6,2	8,2	8,1	1	1	1	1	1	1	1	1	1	0	1	-6,060606	273,539619	311,381119	0
15.01.2021	06:12:05	0	0	3,389539	2,3955	17,2404	-0,414	85,032	0	1011	6,2	8,2	8,1	1	1	1	1	1	1	1	1	1	0	1	-6,20155	273,451402	310,830871	0
15.01.2021	06:12:06	0	0	2,824616	2,81325	11,7288	-0,415	85,048	0	1011,08	6,2	8,2	8,1	1	1	1	1	1	1	1	1	1	0	1	-6,765328	273,584606	310,885279	0
15.01.2021	06:12:07	0	0	4,067447	2,9895	5,6952	-0,424	85,028	0	1011,24	6,2	8,2	8,1	1	1	1	1	1	1	1	1	1	0	1	-6,906272	273,519337	310,441313	0
15.01.2021	06:12:08	0	0	2,824616	3,069	19,152	-0,415	85,052	0	1011,14	6,3	8,2	8,1	1	1	1	1	1	1	1	1	1	0	1	-8,245243	273,413924	308,613411	0
15.01.2021	06:12:09	0	0	4,63237	3,0645	12,9384	-0,418	85,049	0	1011,04	6,2	8,2	8,1	1	1	1	1	1	1	1	1	1	0	1	-4,298802	273,494737	312,934632	0
15.01.2021	06:12:10	0	0	4,745355	3,0495	4,8384	-0,421	85,03	0	1011,06	6,2	8,2	8,1	1	1	1	1	1	1	1	1	1	0	1	-2,255109	273,425448	314,656968	0
15.01.2021	06:12:11	0	0	3,841478	2,97975	5,2308	-0,418	85,044	0	1011,18	6,3	8,2	8,1	1	1	1	1	1	1	1	1	1	0	1	-10,500352	273,607867	307,258297	0
15.01.2021	06:12:12	0	0	2,824616	2,78025	31,77	-0,418	85,037	0	1011,06	6,2	8,2	8,1	1	1	1	1	1	1	1	1	1	0	1	-5,84919	273,517889	311,491676	0
15.01.2021	06:12:13	0	0	3,615508	2,40075	39,1752	-0,419	85,018	0	1011,12	6,2	8,2	8,1	1	1	1	1	1	1	1	1	1	0	1	-5,003524	273,400968	311,795076	0
15.01.2021	06:12:14	0	0	2,9376	2,5575	16,8552	-0,418	85,04	0	1011,06	6,3	8,2	8,1	1	1	1	1	1	1	1	1	1	0	1	-5,073996	273,465836	312,025369	0
15.01.2021	06:12:15	0	0	4,971354	2,69475	21,0204	-0,418	85,019	0	1011,1	6,2	8,2	8	1	1	1	1	1	1	1	1	1	0	1	-2,536998	273,529475	314,857643	0
15.01.2021	06:12:16	0	0	2,259693	2,5275	18,4608	-0,416	85,039	0	1011,2	6,3	8,2	8,1	1	1	1	1	1	1	1	1	1	0	1	-7,329105	273,583154	310,314755	0
15.01.2021	06:12:17	0	0	4,858339	2,298	20,2932	-0,418	85,04	0	1011,08	6,2	8,2	8,1	1	1	1	1	1	1	1	1	1	0	1	-8,245243	273,481726	308,92783	0
15.01.2021	06:12:18	0	0	3,276554	2,16825	6,0768	-0,416	85,021	0	1011,08	6,2	8,2	8,1	1	1	1	1	1	1	1	1	1	0	1	-3,24172	273,413924	313,616934	0
15.01.2021	06:12:19	0	0	3,276554	2,1285	12,4776	-0,422	85,038	0	1011,02	6,2	8,2	8,1	1	1	1	1	1	1	1	1	1	0	1	-3,875969	273,438421	313,096256	0
15.01.2021	06:12:20	0	0	2,9376	2,13525	5,2416	-0,417	85,035	0	1010,96	6,2	8,2	8,1	1	1	1	1	1	1	1	1	1	0	1	-4,016913	273,415365	312,848416	0
15.01.2021	06:12:21	0	0	4,067447	2,33325	7,8768	-0,422	85,044	0	1011,1	6,1	8,2	8,1	1	1	1	1	1	1	1	1	1	0	1	-1,409443	273,578796	316,214178	0
15.01.2021	06:12:22	0	0	2,485662	2,37975	1,5624	-0,419	85,046	0	1011,14	6,2	8,2	8,1	1	1	1	1	1	1	1	1	1	0	1	-2,748414	273,468724	314,364346	0
15.01.2021	06:12:23	0	0	4,63237	2,457	6,1668	-0,413	85,054	0	1011,1	6,3	8,2	8,1	1	1	1	1	1	1	1	1	1	0	1	-3,59408	273,408165	313,237877	0
15.01.2021	06:12:24	0	0	4,406401	2,56125	7,8948	-0,425	85,044	0	1011,22	6,3	8,2	8,1	1	1	1	1	1	1	1	1	1	0	1	-3,946441	273,468724	313,16632	0
15.01.2021	06:12:25	0	0	3,954462	2,5995	9,3744	-0,417	85,045	0	1011,14	6,2	8,2	8,1	1	1	1	1	1	1	1	1	1	0	1	-1,550388	273,588966	316,120465	0
15.01.2021	06:12:26	0	0	3,615508	2,694	11,1996	-0,418	85,049	0	1011,14	6,3	8,2	8,1	1	1	1	1	1	1	1	1	1	0	1	-7,610994	273,470169	309,508466	0
15.01.2021	06:12:27	0	0	3,276554	2,703	5,6808	-0,417	85,037	0	1011,04	6,3	8,2	8,1	1	1	1	1	1	1	1	1	1	0	1	-0,775194	273,418245	316,103489	0
15.01.2021	06:12:28	0	0	3,050585	2,538	12,0888	-0,423	85,044	0	1011,02	6,3	8,2	8,1	1	1	1	1	1	1	1	1	1	0	1	-2,536998	273,53672	314,891272	0
15.01.2021	06:12:29	0	0	3,841478	2,442	3,0276	-0,419	85,048	0	1011,26	6,2	8,2	8,1	1	1	1	1	1	1	1	1	1	0	1	-5,567301	273,587513	312,096803	0
15.01.2021	06:12:30	0	0	3,16357	2,23575	17,2368	-0,422	85,033	0	1010,98	6,2	8,2	8,1	1	1	1	1	1	1	1	1	1	0	1	-5,567301	273,442747	311,424984	0
15.01.2021	06:12:31	0	0	4,406401	1,98825	6,8256	-0,419	85,058	0	1011,1	6,3	8,2	8,1	1	1	1	1	1	1	1	1	1	0	1	-2,184637	273,445632	314,821024	0
15.01.2021	06:12:32	0	0	4,406401	1,76025	7,8876	-0,42	85,046	0	1011,06	6,2	8,2	8,1	1	1	1	1	1	1	1	1	1	0	1	-1,198027	273,431213	315,740777	0
15.01.2021	06:12:33	0	0	2,824616	1,815	7,128	-0,418	85,03	0	1011,1	6,3	8,2	8,1	1	1	1	1	1	1	1	1	1	0	1	-3,875969	273,493291	313,350756	0
15.01.2021	06:12:34	0	0	2,9376	1,854	18,4644	-0,424	85,05	0	1011,14	6,3	8,2	8,1	1	1	1	1	1	1	1	1	1	0	1	-0,704722	273,584606	316,945885	0
15.01.2021	06:12:35	0	0	3,389539	1,8915	15,3972	-0,42	85,039	0	1011,1	6,2	8,2	8,1	1	1	1	1	1	1	1	1	1	0	1	-4,580691	273,557021	312,941822	0
15.01.2021	06:12:36	0	0	3,050585	1,99725	15,4152	-0,423	85,036	0	1011,12	6,3	8,2	8,1	1	1	1	1	1	1	1	1	1	0	1	-1,268499	273,584606	316,382108	0
15.01.2021	06:12:37	0	0	4,067447	2,02425	7,1316	-0,421	85,05	0	1011,02	6,1	8,2	8,1	1	1	1	1	1	1	1	1	1	0	1	-4,721635	273,465836	312,37773	0
15.01.2021	06:12:38	0	0	2,9376	1,953	15,4152	-0,427	85,029	0	1011,06	6,2	8,2	8,1	1	1	1	1	1	1	1	1	1	0	1	-6,624383	273,572987	310,972262	0
15.01.2021	06:12:39	0	0	2,9376	1,73625	22,0896	-0,425	85,05	0	1011,1	6,2	8,2	8,1	1	1	1	1	1	1	1	1	1	0	1	-1,268499	273,539619	316,173226	0
15.01.2021	06:12:40	0	0	2,9376	1,64775	19,9152	-0,423	85,042	0	1011,08	6,2	8,2	8,1	1	1	1	1	1	1	1	1	1	0	1	-5,144468	273,435537	311,814387	0
15.01.2021	06:12:41	0	0	3,050585	1,68075	16,8588	-0,417	85,053	0	1011,02	6,2	8,2	8,1	1	1	1	1	1	1	1	1	1	0	1	-4,087385	273,421126	312,804653	0
15.01.2021	06:12:42	0	0	4,293416	1,815	19,5336	-0,427	85,048	0	1011,06	6,2	8,2	8,1	1	1	1	1	1	1	1	1	1	0	1	-2,748414	273,562825	314,801047	0
15.01.2021	06:12:43	0	0	3,389539	1,90125	16,1028	-0,417	85,052	0	1011,1	6,2	8,2	8,1	1	1	1	1	1	1	1	1	1	0	1	-3,59408	273,574439	314,009308	0
15.01.2021	06:12:44	0	0	2,824616	1,9995	19,152	-0,419	85,046	0	1011,12	6,2	8,2	8,1	1	1	1	1	1	1	1	1	1	0	1	-4,22833	273,539619	313,213396	0
15.01.2021	06:12:45	0	0	3,954462	2,02575	7,128	-0,419	85,058	0	1011,04	6,2	8,2	8,1	1	1	1	1	1	1	1	1	1	0	1	-8,033827	273,584606	309,61678	0
15.01.2021	06:12:46	0	0	4,067447	2,0655	13,554	-0,417	85,058	0	1011,12	6,3	8,2	8,1	1	1	1	1	1	1	1	1	1	0	1	-6,483439	273,493291	310,743286	0
15.01.2021	06:12:47	0	0	5,197293	2,1135	7,884	-0,416	85,07	0	1011,2	6,3	8,2	8,1	1	1	1	1	1	1	1	1	1	0	1	-5,708245	273,584606	311,942362	0
15.01.2021	06:12:48	0	0	4,745355	2,2575	18,4644	-0,414	85,062	0	1011,22	6,3	8,2	8,1	1	1	1	1	1	1	1	1	1	0	1	-2,818887	273,442747	314,173398	0
15.01.2021	06:12:49	0	0	2,711631	2,26425	12,8556	-0,421	85,063	0	1011	6,2	8,2	8,1	1	1	1	1	1	1	1	1	1	0	1	-1,268499	273,392336	315,490091	0
15.01.2021	06:12:50	0	0	4,63237	2,28825	15,4152	-0,418	85,053	0	1011,08	6,2	8,2	8,1	1	1	1	1	1	1	1	1	1	0	1	-5,144468	273,520785	312,209838	0
15.01.2021	06:12:51	0	0	3,728493	2,115	15,0372	-0,424	85,049	0	1011,14	6,2	8,2	8,1	1	1	1	1	1	1	1	1	1	0	1	-6,694856	273,597687	311,016506	0
15.01.2021	06:12:52	0	0	2,824616	2,0775	11,7144	-0,427	85,052	0	1010,98	6,2	8,2	8,1	1	1	1	1	1	1	1	1	1	0	1	-3,24172	273,519337	314,105866	0
15.01.2021	06:12:53	0	0	4,519385	2,11275	13,5648	-0,425	85,057	0	1011,12	6,3	8,2	8,1	1	1	1	1	1	1	1	1	1	0	1	-6,272023	273,571535	311,31788	0
15.01.2021	06:12:54	0	0	3,502524	2,04375	17,6976	-0,414	85,06	0	1011,04	6,2	8,2	8,1	1	1	1	1	1	1	1	1	1	0	1	-4,792107	273,439863	312,186804	0
15.01.2021	06:12:55	0	0	4,632398	2,109	18,09	-0,42	85,063	0	1011,04	6,3	8,2	8	1	1	1	1	1	1	1	1	1	0	1	-5,567301	273,400968	311,231298	0
15.01.2021	06:12:56	0	0	2,9376	2,2545	0,8676	-0,42	85,064	0	1011,1	6,2	8,2	8,1	1	1	1	1	1	1	1	1	1	0	1	-4,510218	273,517889	312,830647	0
15.01.2021	06:12:57	0	0	3,389539	2,5185	21,3876	-0,418	85,057	0	1011,1	6,2	8,2	8,1	1	1	1	1	1	1	1	1	1	0	1	-2,536998	273,594779	315,160858	0
15.01.2021	06:12:58	0	0	3,841478	2,51775	17,694	-0,419	85,062	0	1011,18	6,2	8,2	8,1	1	1	1	1	1	1	1	1	1	0	1	-4,721635	273,464392	312,371033	0
15.01.2021	06:12:59	0	0	2,824616	2,63025	16,1028	-0,423	85,059	0	1011,1	6,2	8,2	8,1	1	1	1	1	1	1	1	1	1	0	1	-5,355884	273,572987	312,240761	0
15.01.2021	06:13:00	0	0	2,598647	2,6715	9	-0,421	85,076	0	1011,1	6,2	8,2	8,1	1	1	1	1	1	1	1	1	1	0	1	-4,087385	273,55412	313,421656	0
15.01.2021	06:13:01	0	0	2,598647	2,6715	9	-0,421	85,076	0	1011,1	6,2	8,2	8,1	1	1	1	1	1	1	1	1	1	0	1	-4,087385	273,55412	313,421656	0
15.01.2021	06:13:02	0	0	2,824616	2,529	10,4616	-0,42	85,067	0	1011	6,2	8,2	8,1	1	1	1	1	1	1	1	1	1	0	1	-0,352361	273,451402	316,680061	0
15.01.2021	06:13:03	0	0	2,485662	2,61225	13,1832	-0,419	85,065	0	1011,14	6,2	8,2	8,1	1	1	1	1	1	1	1	1	1	0	1	-7,399577	273,425448	309,5125	0
15.01.2021	06:13:04	0	0	4,406401	2,6505	18,4536	-0,425	85,074	0	1011,02	6,2	8,2	8,1	1	1	1	1	1	1	1	1	1	0	1	-1,409443	273,586059	316,247912	0
15.01.2021	06:13:05	0	0	5,310278	2,628	12,4596	-0,424	85,059	0	1010,88	6,1	8,2	8,1	1	1	1	1	1	1	1	1	1	0	1	-4,157858	273,551219	313,337716	0
15.01.2021	06:13:06	0	0	4,971324	2,57775	21,3876	-0,416	85,071	0	1011,26	6,2	8,2	8,1	1	1	1	1	1	1	1	1	1	0	1	-3,875969	273,591872	313,808384	0
15.01.2021	06:13:07	0	0	3,728493	2,4315	15,786	-0,42	85,076	0	1011,1	6,2	8,2	8,1	1	1	1	1	1	1	1	1	1	0	1	-3,946441	273,509204	313,354119	0
15.01.2021	06:13:08	0	0	2,824616	2,19975	15,3972	-0,419	85,078	0	1011,12	6,2	8,2	8,1	1	1	1	1	1	1	1	1	1	0	1	-7,188161	273,402407	309,617109	0
15.01.2021	06:13:09	0	0	3,615508	2,14275	13,158	-0,419	85,07	0	1011,14	6,2	8,2	8,1	1	1	1	1	1	1	1	1	1	0	1	-9,161381	273,460061	307,911199	0
15.01.2021	06:13:10	0	0	4,519385	2,163	17,694	-0,422	85,063	0	1011,12	6,3	8,2	8,1	1	1	1	1	1	1	1	1	1	0	1	-4,580691	273,405286	312,237921	0
15.01.2021	06:13:11	0	0	3,502524	2,20425	12,8628	-0,421	85,073	0	1011,14	6,2	8,2	8,1	1	1	1	1	1	1	1	1	1	0	1	-1,832276	273,509204	315,468284	0
15.01.2021	06:13:12	0	0	3,841478	2,30025	7,5132	-0,418	85,07	0	1011,14	6,2	8,2	8,1	1	1	1	1	1	1	1	1	1	0	1	-7,188161	273,577343	310,428716	0
15.01.2021	06:13:13	0	0	4,519385	2,4675	14,3064	-0,419	85,076	0	1011,02	6,2	8,2	8,1	1	1	1	1	1	1	1	1	1	0	1	-1,973221	273,451402	315,059201	0
15.01.2021	06:13:14	0	0	4,519385	2,5785	360	-0,425	85,056	0	1011,12	6,2	8,2	8,1	1	1	1	1	1	1	1	1	1	0	1	-3,171247	273,429772	313,760874	0
15.01.2021	06:13:15	0	0	2,711631	2,772	6,1992	-0,418	85,065	0	1011,16	6,2	8,2	8,1	1	1	1	1	1	1	1	1	1	0	1	-4,298802	273,577343	313,318074	0
15.01.2021	06:13:16	0	0	4,406401	2,96775	9,7416	-0,421	85,074	0	1011,1	6,2	8,2	8,1	1	1	1	1	1	1	1	1	1	0	1	-3,312192	273,571535	314,277711	0
15.01.2021	06:13:17	0	0	2,9376	2,93625	8,262	-0,42	85,07	0	1011	6,2	8,2	8,1	1	1	1	1	1	1	1	1	1	0	1	-1,902748	273,583154	315,741111	0
15.01.2021	06:13:18	0	0	2,824616	2,8455	14,6484	-0,42	85,079	0	1011,06	6,2	8,2	8,1	1	1	1	1	1	1	1	1	1	0	1	-6,8358	273,454288	310,210006	0
15.01.2021	06:13:19	0	0	3,841478	2,69325	21,0168	-0,42	85,063	0	1011,08	6,2	8,2	8,1	1	1	1	1	1	1	1	1	1	0	1	-7,610994	273,584606	310,039613	0
15.01.2021	06:13:20	0	0	4,519385	2,66175	19,1412	-0,423	85,078	0	1010,98	6,2	8,2	8,1	1	1	1	1	1	1	1	1	1	0	1	-1,127555	273,501969	316,139435	0
15.01.2021	06:13:21	0	0	3,728493	2,6685	15,4152	-0,425	85,079	0	1011,14	6,2	8,2	8,1	1	1	1	1	1	1	1	1	1	0	1	-3,523608	273,570083	314,059553	0
15.01.2021	06:13:22	0	0	3,502545	2,55975	19,5336	-0,417	85,082	0	1011,1	6,3	8,1	8	1	1	1	1	1	1	1	1	1	0	1	-2,184637	273,526578	315,196556	0
15.01.2021	06:13:23	0	0	2,824616	2,5245	27,2844	-0,417	85,064	0	1011,04	6,2	8,2	8,1	1	1	1	1	1	1	1	1	1	0	1	-2,959831	273,415365	313,905499	0
15.01.2021	06:13:24	0	0	3,954462	2,4705	14,3064	-0,416	85,056	0	1011,06	6,3	8,2	8,1	1	1	1	1	1	1	1	1	1	0	1	-3,453136	273,55412	314,055906	0
15.01.2021	06:13:25	0	0	4,63237	2,694	23,2452	-0,425	85,067	0	1011,1	6,2	8,2	8,1	1	1	1	1	1	1	1	1	1	0	1	-6,553911	273,552669	310,948396	0
15.01.2021	06:13:26	0	0	3,615508	2,952	24,7176	-0,415	85,092	0	1011,18	6,2	8,2	8,1	1	1	1	1	1	1	1	1	1	0	1	-6,8358	273,392336	309,92279	0
15.01.2021	06:13:27	0	0	4,745355	2,9685	20,646	-0,419	85,07	0	1011,02	6,2	8,2	8,1	1	1	1	1	1	1	1	1	1	0	1	-4,016913	273,516441	313,317233	0
15.01.2021	06:13:28	0	0	4,971324	3,3885	5,6916	-0,418	85,081	0	1010,98	6,2	8,2	8,1	1	1	1	1	1	1	1	1	1	0	1	-4,298802	273,514993	313,028626	0
15.01.2021	06:13:29	0	0	4,180431	3,849	6,8436	-0,421	85,078	0	1011,12	6,2	8,2	8,1	1	1	1	1	1	1	1	1	1	0	1	-3,382664	273,405286	313,435948	0
15.01.2021	06:13:30	0	0	3,050585	3,972	11,286	-0,42	85,09	0	1011,1	6,2	8,2	8,1	1	1	1	1	1	1	1	1	1	0	1	-4,792107	273,528027	312,595809	0
15.01.2021	06:13:31	0	0	4,63237	3,97425	10,062	-0,421	85,073	0	1011	6,2	8,2	8,1	1	1	1	1	1	1	1	1	1	0	1	-0,845666	273,56718	316,724013	0
15.01.2021	06:13:32	0	0	3,16357	3,9195	6,066	-0,421	85,082	0	1011,1	6,2	8,2	8,1	1	1	1	1	1	1	1	1	1	0	1	-2,396054	273,587513	315,26805	0
15.01.2021	06:13:33	0	0	4,745355	3,72525	9,72	-0,415	85,088	0	1011,12	6,2	8,2	8,1	1	1	1	1	1	1	1	1	1	0	1	-7,188161	273,583154	310,455699	0
15.01.2021	06:13:34	0	0	3,954462	3,55425	17,6904	-0,425	85,08	0	1010,96	6,1	8,2	8,1	1	1	1	1	1	1	1	1	1	0	1	-3,453136	273,539619	313,988589	0
15.01.2021	06:13:35	0	0	3,954462	3,342	12,1032	-0,423	85,073	0	1011,04	6,2	8,2	8,1	1	1	1	1	1	1	1	1	1	0	1	-2,325581	273,392336	314,433008	0
15.01.2021	06:13:36	0	0	4,519385	3,168	8,2692	-0,42	85,075	0	1011,2	6,2	8,2	8,1	1	1	1	1	1	1	1	1	1	0	1	-5,567301	273,533822	311,847515	0
15.01.2021	06:13:37	0	0	3,502524	2,9685	23,9652	-0,424	85,072	0	1011,14	6,2	8,2	8,1	1	1	1	1	1	1	1	1	1	0	1	-6,976744	273,465836	310,122621	0
15.01.2021	06:13:38	0	0	4,406401	2,91525	20,628	-0,419	85,077	0	1011,04	6,2	8,2	8,1	1	1	1	1	1	1	1	1	1	0	1	-4,157858	273,590419	313,519745	0
15.01.2021	06:13:39	0	0	3,728493	3,1305	15,7896	-0,414	85,084	0	1011,06	6,2	8,2	8,1	1	1	1	1	1	1	1	1	1	0	1	-2,255109	273,441305	314,730488	0
15.01.2021	06:13:40	0	0	4,858339	3,15525	17,244	-0,417	85,083	0	1011,1	6,2	8,2	8,1	1	1	1	1	1	1	1	1	1	0	1	-2,959831	273,559923	314,576155	0
15.01.2021	06:13:41	0	0	2,824616	3,28125	26,9136	-0,42	85,082	0	1011,12	6,2	8,2	8,1	1	1	1	1	1	1	1	1	1	0	1	-1,832276	273,460061	315,240304	0
15.01.2021	06:13:42	0	0	4,293416	3,31575	28,3536	-0,422	85,083	0	1011,2	6,3	8,2	8,1	1	1	1	1	1	1	1	1	1	0	1	-2,536998	273,583154	315,106862	0
15.01.2021	06:13:43	0	0	4,858339	3,354	24,7392	-0,425	85,064	0	1011,2	6,2	8,2	8,1	1	1	1	1	1	1	1	1	1	0	1	-6,272023	273,545418	311,196622	0
15.01.2021	06:13:44	0	0	4,745355	3,44925	23,5944	-0,422	85,091	0	1011,16	6,2	8,2	8,1	1	1	1	1	1	1	1	1	1	0	1	-2,325581	273,432654	314,619905	0
15.01.2021	06:13:45	0	0	4,519385	3,39075	22,8348	-0,419	85,062	0	1011,08	6,2	8,2	8,1	1	1	1	1	1	1	1	1	1	0	1	-2,466526	273,441305	314,519072	0
15.01.2021	06:13:46	0	0	3,615508	3,23175	25,7868	-0,42	85,091	0	1010,98	6,2	8,2	8,1	1	1	1	1	1	1	1	1	1	0	1	-1,198027	273,56718	316,371653	0
15.01.2021	06:13:47	0	0	3,615508	3,0705	26,1684	-0,423	85,088	0	1011,2	6,2	8,2	8,1	1	1	1	1	1	1	1	1	1	0	1	-3,664553	273,545418	313,804092	0
15.01.2021	06:13:48	0	0	3,615508	3,0825	26,1792	-0,42	85,083	0	1011,1	6,2	8,2	8,1	1	1	1	1	1	1	1	1	1	0	1	-4,862579	273,545418	312,606065	0
15.01.2021	06:13:49	0	0	4,745355	3,0615	18,4536	-0,421	85,087	0	1011,1	6,2	8,2	8,1	1	1	1	1	1	1	1	1	1	0	1	-5,84919	273,526578	311,532004	0
15.01.2021	06:13:50	0	0	4,406401	2,91375	4,0968	-0,42	85,09	0	1011,16	6,2	8,2	8,1	1	1	1	1	1	1	1	1	1	0	1	-6,976744	273,570083	310,606417	0
15.01.2021	06:13:51	0	0	4,406401	2,637	17,7228	-0,421	85,094	0	1011	6,2	8,2	8,1	1	1	1	1	1	1	1	1	1	0	1	-6,412967	273,50631	310,874164	0
15.01.2021	06:13:52	0	0	4,63237	2,45775	18,8424	-0,423	85,087	0	1011,06	6,1	8,2	8,1	1	1	1	1	1	1	1	1	1	0	1	-8,104299	273,586059	309,553056	0
15.01.2021	06:13:53	0	0	3,615508	2,511	23,5872	-0,427	85,076	0	1011,06	6,2	8,2	8,1	1	1	1	1	1	1	1	1	1	0	1	-0	273,444189	316,998973	0
15.01.2021	06:13:54	0	0	3,050585	2,47575	13,1724	-0,424	85,071	0	1011,26	6,2	8,2	8,1	1	1	1	1	1	1	1	1	1	0	1	-4,792107	273,562825	312,757354	0
15.01.2021	06:13:55	0	0	4,406401	2,4465	10,8828	-0,419	85,091	0	1010,98	6,2	8,2	8,1	1	1	1	1	1	1	1	1	1	0	1	-4,580691	273,434096	312,37148	0
15.01.2021	06:13:56	0	0	3,615508	2,5245	10,0764	-0,421	85,088	0	1011,16	6,1	8,2	8,1	1	1	1	1	1	1	1	1	1	0	1	-4,580691	273,395213	312,191233	0
15.01.2021	06:13:57	0	0	4,519385	2,5275	13,5468	-0,424	85,088	0	1011,1	6,2	8,2	8,1	1	1	1	1	1	1	1	1	1	0	1	-8,879493	273,488953	308,327108	0
15.01.2021	06:13:58	0	0	4,406401	2,5035	19,53	-0,419	85,099	0	1011,06	6,1	8,2	8,1	1	1	1	1	1	1	1	1	1	0	1	-5,355884	273,562825	312,193577	0
15.01.2021	06:13:59	0	0	3,841478	2,4375	12,5568	-0,424	85,084	0	1011,06	6,2	8,2	8,1	1	1	1	1	1	1	1	1	1	0	1	-4,721635	273,496183	312,518509	0
15.01.2021	06:14:00	0	0	3,502524	2,487	6,0696	-0,425	85,075	0	1010,94	6,1	8,2	8,1	1	1	1	1	1	1	1	1	1	0	1	-5,426357	273,458618	311,639529	0
15.01.2021	06:14:01	0	0	3,502524	2,487	6,0696	-0,425	85,075	0	1010,94	6,1	8,2	8,1	1	1	1	1	1	1	1	1	1	0	1	-5,426357	273,458618	311,639529	0
15.01.2021	06:14:02	0	0	4,745355	2,44275	12,0924	-0,425	85,09	0	1011,16	6,2	8,2	8,1	1	1	1	1	1	1	1	1	1	0	1	-7,117689	273,56718	310,451991	0
15.01.2021	06:14:03	0	0	3,841478	2,51325	17,6904	-0,429	85,082	0	1011,02	6,2	8,2	8,1	1	1	1	1	1	1	1	1	1	0	1	-4,087385	273,484617	313,099097	0
15.01.2021	06:14:04	0	0	3,502524	2,4465	12,8556	-0,419	85,073	0	1011,08	6,2	8,2	8,1	1	1	1	1	1	1	1	1	1	0	1	-6,272023	273,570083	311,311139	0
15.01.2021	06:14:05	0	0	3,389539	2,32425	19,5192	-0,428	85,086	0	1011,18	6,2	8,2	8,1	1	1	1	1	1	1	1	1	1	0	1	-3,24172	273,494737	313,991715	0
15.01.2021	06:14:06	0	0	4,63237	2,301	16,1028	-0,417	85,101	0	1011,16	6,2	8,2	8,1	1	1	1	1	1	1	1	1	1	0	1	-2,396054	273,405286	314,422558	0
15.01.2021	06:14:07	0	0	2,824616	2,33625	18,09	-0,424	85,071	0	1011,06	6,2	8,2	8,1	1	1	1	1	1	1	1	1	1	0	1	-4,792107	273,436979	312,173432	0
15.01.2021	06:14:08	0	0	4,971324	2,35275	20,286	-0,416	85,092	0	1011,1	6,3	8,2	8,1	1	1	1	1	1	1	1	1	1	0	1	-10,993658	273,580248	306,636709	0
15.01.2021	06:14:09	0	0	4,180431	2,39775	13,9248	-0,421	85,077	0	1011,06	6,1	8,2	8,1	1	1	1	1	1	1	1	1	1	0	1	-5,285412	273,457175	311,773779	0
15.01.2021	06:14:10	0	0	3,615508	2,45325	24,7248	-0,421	85,077	0	1011,06	6,2	8,2	8,1	1	1	1	1	1	1	1	1	1	0	1	-9,584214	273,559923	307,951772	0
15.01.2021	06:14:11	0	0	5,536247	2,51325	5,2272	-0,424	85,077	0	1011,12	6,2	8,2	8,1	1	1	1	1	1	1	1	1	1	0	1	-9,584214	273,546868	307,891162	0
15.01.2021	06:14:12	0	0	3,050585	2,808	11,196	-0,422	85,102	0	1011	6,2	8,2	8,1	1	1	1	1	1	1	1	1	1	0	1	-3,030303	273,574439	314,573085	0
15.01.2021	06:14:13	0	0	4,067447	2,853	9,0036	-0,421	85,083	0	1011,08	6,2	8,2	8,1	1	1	1	1	1	1	1	1	1	0	1	-4,721635	273,516441	312,612512	0
15.01.2021	06:14:14	0	0	3,502524	2,76525	16,4844	-0,419	85,094	0	1011,08	6,3	8,2	8,1	1	1	1	1	1	1	1	1	1	0	1	-5,919662	273,411045	310,925642	0
15.01.2021	06:14:15	0	0	4,180431	2,70225	14,652	-0,423	85,1	0	1011,14	6,2	8,2	8,1	1	1	1	1	1	1	1	1	1	0	1	-3,523608	273,513546	313,797102	0
15.01.2021	06:14:16	0	0	3,954486	2,65725	9,7632	-0,424	85,08	0	1011,08	6,1	8,2	8	1	1	1	1	1	1	1	1	1	0	1	-2,255109	273,385145	314,470156	0
15.01.2021	06:14:17	0	0	2,372677	2,73	15,3972	-0,42	85,072	0	1011,04	6,1	8,2	8,1	1	1	1	1	1	1	1	1	1	0	1	-6,8358	273,499076	310,417766	0
15.01.2021	06:14:18	0	0	3,389539	2,862	14,3064	-0,419	85,106	0	1011,18	6,2	8,2	8,1	1	1	1	1	1	1	1	1	1	0	1	-7,610994	273,586059	310,046361	0
15.01.2021	06:14:19	0	0	2,711631	2,89875	25,0488	-0,417	85,102	0	1011,12	6,2	8,2	8,1	1	1	1	1	1	1	1	1	1	0	1	-4,651163	273,562825	312,898299	0
15.01.2021	06:14:20	0	0	3,502524	2,877	12,4668	-0,421	85,097	0	1011,08	6,2	8,2	8,1	1	1	1	1	1	1	1	1	1	0	1	-5,637773	273,419685	311,247588	0
15.01.2021	06:14:21	0	0	4,971324	2,8995	16,4736	-0,419	85,109	0	1011,2	6,1	8,2	8,1	1	1	1	1	1	1	1	1	1	0	1	-6,976744	273,546868	310,498632	0
15.01.2021	06:14:22	0	0	3,16357	2,83725	22,4712	-0,417	85,098	0	1011,16	6,2	8,2	8,1	1	1	1	1	1	1	1	1	1	0	1	-4,721635	273,431213	312,217169	0
15.01.2021	06:14:23	0	0	3,16357	2,78925	15,4296	-0,42	85,096	0	1011,1	6,2	8,2	8,1	1	1	1	1	1	1	1	1	1	0	1	-4,087385	273,445632	312,918276	0
15.01.2021	06:14:24	0	0	4,519385	2,76225	14,7456	-0,416	85,1	0	1011,22	6,2	8,2	8,1	1	1	1	1	1	1	1	1	1	0	1	-4,439746	273,562825	313,109715	0
15.01.2021	06:14:25	0	0	2,824616	2,844	10,062	-0,422	85,097	0	1011,14	6,2	8,2	8,1	1	1	1	1	1	1	1	1	1	0	1	-5,496829	273,580248	312,133538	0
15.01.2021	06:14:26	0	0	3,841478	2,92875	9,756	-0,42	85,103	0	1011,06	6,3	8,2	8,1	1	1	1	1	1	1	1	1	1	0	1	-0,98661	273,434096	315,96556	0
15.01.2021	06:14:27	0	0	4,858339	2,96175	9,7668	-0,42	85,087	0	1011,02	6,1	8,2	8,1	1	1	1	1	1	1	1	1	1	0	1	-1,479915	273,520785	315,87439	0
15.01.2021	06:14:28	0	0	4,519385	3,0015	3,3948	-0,425	85,102	0	1011,1	6,3	8,2	8,1	1	1	1	1	1	1	1	1	1	0	1	-3,453136	273,578796	314,170485	0
15.01.2021	06:14:29	0	0	3,050585	2,86875	22,0752	-0,433	85,089	0	1010,98	6,3	8,2	8,1	1	1	1	1	1	1	1	1	1	0	1	-2,255109	273,434096	314,697061	0
15.01.2021	06:14:30	0	0	3,16357	2,73675	14,3064	-0,423	85,095	0	1011,04	6,2	8,2	8,1	1	1	1	1	1	1	1	1	1	0	1	-5,708245	273,561374	311,834478	0
15.01.2021	06:14:31	0	0	3,502524	2,7615	14,3028	-0,425	85,084	0	1010,94	6,2	8,2	8,1	1	1	1	1	1	1	1	1	1	0	1	-4,933051	273,529475	312,461589	0
15.01.2021	06:14:32	0	0	3,841478	2,62725	16,4844	-0,42	85,107	0	1011,22	6,2	8,2	8,1	1	1	1	1	1	1	1	1	1	0	1	-6,624383	273,55557	310,891394	0
15.01.2021	06:14:33	0	0	5,197293	2,58975	357,6564	-0,424	85,104	0	1011,04	6,2	8,2	8,1	1	1	1	1	1	1	1	1	1	0	1	-1,691332	273,539619	315,750393	0
15.01.2021	06:14:34	0	0	2,711631	2,544	20,286	-0,42	85,096	0	1011,18	6,2	8,2	8,1	1	1	1	1	1	1	1	1	1	0	1	-3,030303	273,558472	314,498946	0
15.01.2021	06:14:35	0	0	5,084308	2,82075	7,8876	-0,424	85,094	0	1011,02	6,1	8,2	8,1	1	1	1	1	1	1	1	1	1	0	1	-3,946441	273,541069	313,502013	0
15.01.2021	06:14:36	0	0	3,050585	3,1245	10,4256	-0,422	85,094	0	1011,06	6,2	8,2	8,1	1	1	1	1	1	1	1	1	1	0	1	-3,875969	273,532373	313,532121	0
15.01.2021	06:14:37	0	0	2,9376	3,2655	9	-0,424	85,098	0	1011,1	6,2	8,2	8,1	1	1	1	1	1	1	1	1	1	0	1	-2,114165	273,413924	314,744489	0
15.01.2021	06:14:38	0	0	3,16357	3,2775	12,852	-0,425	85,1	0	1011,06	6,2	8,2	8,1	1	1	1	1	1	1	1	1	1	0	1	-3,030303	273,487508	314,169591	0
15.01.2021	06:14:39	0	0	2,598647	3,18825	6,0732	-0,42	85,091	0	1011,02	6,2	8,2	8,1	1	1	1	1	1	1	1	1	1	0	1	-5,003524	273,412484	311,848455	0
15.01.2021	06:14:40	0	0	4,971324	3,23475	5,2092	-0,423	85,1	0	1010,94	6,2	8,2	8,1	1	1	1	1	1	1	1	1	1	0	1	-0,704722	273,46728	316,401341	0
15.01.2021	06:14:41	0	0	3,276554	3,31125	18,4572	-0,426	85,101	0	1011,08	6,2	8,2	8,1	1	1	1	1	1	1	1	1	1	0	1	-4,016913	273,402407	312,788356	0
15.01.2021	06:14:42	0	0	4,519385	3,00075	16,4808	-0,421	85,114	0	1011,06	6,2	8,2	8,1	1	1	1	1	1	1	1	1	1	0	1	-5,073996	273,405286	311,744616	0
15.01.2021	06:14:43	0	0	3,502524	2,78025	17,712	-0,423	85,083	0	1011,1	6,1	8,2	8,1	1	1	1	1	1	1	1	1	1	0	1	-5,003524	273,564277	312,552677	0
15.01.2021	06:14:44	0	0	2,9376	2,6745	15,7932	-0,421	85,1	0	1011,14	6,2	8,2	8,1	1	1	1	1	1	1	1	1	1	0	1	-3,664553	273,532373	313,743538	0
15.01.2021	06:14:45	0	0	2,598647	2,565	18,45	-0,428	85,107	0	1011,14	6,1	8,2	8,1	1	1	1	1	1	1	1	1	1	0	1	-1,62086	273,39809	315,164401	0
15.01.2021	06:14:46	0	0	4,745355	2,64525	11,2968	-0,421	85,113	0	1011,3	6,2	8,2	8,1	1	1	1	1	1	1	1	1	1	0	1	-4,862579	273,483172	312,317198	0
15.01.2021	06:14:47	0	0	3,16357	2,5905	16,8552	-0,419	85,114	0	1011,12	6,3	8,2	8,1	1	1	1	1	1	1	1	1	1	0	1	-8,668076	273,392336	308,090514	0
15.01.2021	06:14:48	0	0	2,824616	2,41125	15,3864	-0,42	85,11	0	1011,16	6,2	8,2	8,1	1	1	1	1	1	1	1	1	1	0	1	-2,818887	273,458618	314,246999	0
15.01.2021	06:14:49	0	0	4,745355	2,238	15,0372	-0,42	85,112	0	1011,16	6,2	8,2	8,1	1	1	1	1	1	1	1	1	1	0	1	-8,104299	273,594779	309,593557	0
15.01.2021	06:14:50	0	0	5,084308	2,06625	15,4116	-0,427	85,103	0	1011,06	6,1	8,2	8,1	1	1	1	1	1	1	1	1	1	0	1	-1,479915	273,496183	315,760229	0
15.01.2021	06:14:51	0	0	2,9376	2,10975	354,69	-0,428	85,116	0	1011,12	6,2	8,2	8,1	1	1	1	1	1	1	1	1	1	0	1	-0	273,400968	316,798599	0
15.01.2021	06:14:52	0	0	2,824616	2,2605	20,6424	-0,425	85,118	0	1011,12	6,2	8,2	8,1	1	1	1	1	1	1	1	1	1	0	1	-2,396054	273,470169	314,723406	0
15.01.2021	06:14:53	0	0	3,728493	2,24325	19,1412	-0,425	85,115	0	1011,14	6,2	8,2	8,1	1	1	1	1	1	1	1	1	1	0	1	-4,933051	273,577343	312,683825	0
15.01.2021	06:14:54	0	0	5,197293	2,12325	21,0096	-0,42	85,123	0	1011,06	6,3	8,2	8,1	1	1	1	1	1	1	1	1	1	0	1	-1,832276	273,510651	315,475	0
15.01.2021	06:14:55	0	0	2,711631	2,14275	12,8844	-0,423	85,111	0	1010,94	6,1	8,2	8,1	1	1	1	1	1	1	1	1	1	0	1	-2,889359	273,412484	313,96262	0
15.01.2021	06:14:56	0	0	3,615508	2,33025	21,0204	-0,426	85,115	0	1011,04	6,2	8,2	8,1	1	1	1	1	1	1	1	1	1	0	1	-0,493305	273,52513	316,881165	0
15.01.2021	06:14:57	0	0	4,293416	2,4855	355,4136	-0,425	85,113	0	1011,2	6,1	8,2	8,1	1	1	1	1	1	1	1	1	1	0	1	-0	273,586059	317,657355	0
15.01.2021	06:14:58	0	0	4,293416	2,5335	12,9528	-0,428	85,116	0	1010,96	6,2	8,2	8,1	1	1	1	1	1	1	1	1	1	0	1	-3,664553	273,523681	313,703196	0
15.01.2021	06:14:59	0	0	2,9376	2,493	2,304	-0,421	85,113	0	1011,1	6,3	8,2	8,1	1	1	1	1	1	1	1	1	1	0	1	-4,298802	273,393774	312,466455	0
15.01.2021	06:15:00	0	0	2,824616	2,6415	358,8012	-0,42	85,122	0	1011,14	6,1	8,2	8,1	1	1	1	1	1	1	1	1	1	0	1	-3,312192	273,541069	314,136263	0
15.01.2021	06:15:01	0	0	2,824616	2,6415	358,8012	-0,42	85,122	0	1011,14	6,1	8,2	8,1	1	1	1	1	1	1	1	1	1	0	1	-3,312192	273,541069	314,136263	0
15.01.2021	06:15:02	0	0	4,63237	2,55975	30,3372	-0,427	85,108	0	1011,1	6,2	8,2	8,1	1	1	1	1	1	1	1	1	1	0	1	-6,483439	273,388021	310,255154	0
15.01.2021	06:15:03	0	0	3,16357	2,31825	9,3672	-0,419	85,116	0	1011,22	6,2	8,2	8,1	1	1	1	1	1	1	1	1	1	0	1	-6,906272	273,473057	310,226587	0
15.01.2021	06:15:04	0	0	3,954462	2,16225	33,6492	-0,428	85,11	0	1010,88	6,2	8,2	8,1	1	1	1	1	1	1	1	1	1	0	1	-4,298802	273,55412	313,21024	0
15.01.2021	06:15:05	0	0	3,615508	2,08875	6,0624	-0,422	85,12	0	1011,06	6,2	8,2	8,1	1	1	1	1	1	1	1	1	1	0	1	-5,144468	273,513546	312,176243	0
15.01.2021	06:15:06	0	0	4,745355	2,35425	17,6976	-0,421	85,121	0	1011,16	6,1	8,2	8,1	1	1	1	1	1	1	1	1	1	0	1	-2,677942	273,493291	314,548783	0
15.01.2021	06:15:07	0	0	3,16357	2,33175	16,4808	-0,423	85,115	0	1011,1	6,1	8,2	8,1	1	1	1	1	1	1	1	1	1	0	1	-4,439746	273,393774	312,32551	0
15.01.2021	06:15:08	0	0	3,050585	2,27925	16,4988	-0,421	85,123	0	1011,18	6,2	8,2	8,1	1	1	1	1	1	1	1	1	1	0	1	-3,171247	273,501969	314,095742	0
15.01.2021	06:15:09	0	0	2,598647	2,3745	29,5776	-0,43	85,113	0	1011,08	6,2	8,2	8,1	1	1	1	1	1	1	1	1	1	0	1	-3,382664	273,562825	314,166798	0
15.01.2021	06:15:10	0	0	3,841478	2,538	3,024	-0,428	85,123	0	1011,12	6,1	8,2	8,1	1	1	1	1	1	1	1	1	1	0	1	-4,439746	273,486062	312,753442	0
15.01.2021	06:15:11	0	0	4,406401	2,853	28,3608	-0,424	85,106	0	1011,18	6,1	8,2	8,1	1	1	1	1	1	1	1	1	1	0	1	-8,80902	273,559923	308,726965	0
15.01.2021	06:15:12	0	0	3,050585	2,6775	1,9188	-0,43	85,118	0	1011,28	6,1	8,2	8,1	1	1	1	1	1	1	1	1	1	0	1	-0,422833	273,438421	316,549392	0
15.01.2021	06:15:13	0	0	3,728493	2,42625	21,0312	-0,414	85,12	0	1011,12	6,1	8,2	8,1	1	1	1	1	1	1	1	1	1	0	1	-2,255109	273,581701	315,382004	0
15.01.2021	06:15:14	0	0	4,180431	2,46675	21,0096	-0,423	85,122	0	1011,1	6,2	8,2	8,1	1	1	1	1	1	1	1	1	1	0	1	-4,369274	273,546868	313,106102	0
15.01.2021	06:15:15	0	0	3,050585	2,54775	3,7656	-0,421	85,121	0	1011,1	6,2	8,2	8,1	1	1	1	1	1	1	1	1	1	0	1	-6,060606	273,465836	311,038759	0
15.01.2021	06:15:16	0	0	3,841478	2,79075	6,0696	-0,424	85,127	0	1011,02	6,1	8,2	8,1	1	1	1	1	1	1	1	1	1	0	1	-5,285412	273,575891	312,32472	0
15.01.2021	06:15:17	0	0	4,180431	2,88	8,9928	-0,422	85,127	0	1011,14	6,2	8,2	8,1	1	1	1	1	1	1	1	1	1	0	1	-5,567301	273,454288	311,478505	0
15.01.2021	06:15:18	0	0	4,519385	2,68575	18,0792	-0,429	85,119	0	1011,2	6,2	8,2	8,1	1	1	1	1	1	1	1	1	1	0	1	-2,396054	273,578796	315,227568	0
15.01.2021	06:15:19	0	0	2,824616	2,70075	21,3732	-0,428	85,107	0	1011,08	6,2	8,2	8,1	1	1	1	1	1	1	1	1	1	0	1	-2,466526	273,434096	314,485644	0
15.01.2021	06:15:20	0	0	2,372677	2,9055	25,8012	-0,425	85,122	0	1011,08	6,2	8,2	8,1	1	1	1	1	1	1	1	1	1	0	1	-2,466526	273,55412	315,042516	0
15.01.2021	06:15:21	0	0	3,050585	2,95725	18,4608	-0,431	85,119	0	1011,08	6,2	8,2	8,1	1	1	1	1	1	1	1	1	1	0	1	-5,567301	273,383707	311,151301	0
15.01.2021	06:15:22	0	0	4,63237	3,048	10,4544	-0,421	85,123	0	1011,14	6,2	8,2	8,1	1	1	1	1	1	1	1	1	1	0	1	-3,946441	273,406726	312,878843	0
15.01.2021	06:15:23	0	0	4,519385	3,25275	21,132	-0,424	85,115	0	1010,96	6,1	8,2	8,1	1	1	1	1	1	1	1	1	1	0	1	-0	273,399529	316,791929	0
15.01.2021	06:15:24	0	0	4,745355	3,3315	22,8384	-0,424	85,121	0	1011,18	6,2	8,2	8,1	1	1	1	1	1	1	1	1	1	0	1	-4,651163	273,512098	312,66283	0
15.01.2021	06:15:25	0	0	2,824616	3,4215	17,2368	-0,422	85,127	0	1011,06	6,1	8,2	8,1	1	1	1	1	1	1	1	1	1	0	1	-2,60747	273,561374	314,935253	0
15.01.2021	06:15:26	0	0	4,858339	3,2685	15,0372	-0,422	85,111	0	1011,18	6,1	8,2	8,1	1	1	1	1	1	1	1	1	1	0	1	-7,892882	273,455731	309,159616	0
15.01.2021	06:15:27	0	0	3,050585	3,0675	29,214	-0,424	85,111	0	1011	6,3	8,2	8,1	1	1	1	1	1	1	1	1	1	0	1	-5,990134	273,429772	310,941987	0
15.01.2021	06:15:28	0	0	4,63237	2,97	20,2824	-0,419	85,129	0	1011,16	6,1	8,2	8,1	1	1	1	1	1	1	1	1	1	0	1	-3,735025	273,528027	313,652892	0
15.01.2021	06:15:29	0	0	4,745355	2,91975	12,114	-0,425	85,116	0	1011,12	6,1	8,2	8,1	1	1	1	1	1	1	1	1	1	0	1	-3,805497	273,377957	312,886459	0
15.01.2021	06:15:30	0	0	4,858339	2,7645	18,4644	-0,423	85,122	0	1011,16	6,1	8,2	8,1	1	1	1	1	1	1	1	1	1	0	1	-2,959831	273,496183	314,280313	0
15.01.2021	06:15:31	0	0	2,711631	2,76975	4,0968	-0,425	85,125	0	1011,14	6,2	8,2	8,1	1	1	1	1	1	1	1	1	1	0	1	-3,171247	273,565728	314,391692	0
15.01.2021	06:15:32	0	0	3,050585	2,754	12,8628	-0,424	85,122	0	1011,08	6,1	8,2	8,1	1	1	1	1	1	1	1	1	1	0	1	-6,483439	273,455731	310,569059	0
15.01.2021	06:15:33	0	0	2,485662	2,76675	12,0888	-0,43	85,131	0	1011,06	6,3	8,2	8,1	1	1	1	1	1	1	1	1	1	0	1	-3,805497	273,474502	313,334063	0
15.01.2021	06:15:34	0	0	2,485662	2,78475	24,84	-0,423	85,138	0	1011,12	6,1	8,2	8,1	1	1	1	1	1	1	1	1	1	0	1	-2,325581	273,389459	314,419677	0
15.01.2021	06:15:35	0	0	5,084308	2,52975	14,652	-0,422	85,137	0	1011,14	6,2	8,2	8,1	1	1	1	1	1	1	1	1	1	0	1	-5,990134	273,447074	311,022217	0
15.01.2021	06:15:36	0	0	3,163589	2,382	24,3504	-0,429	85,127	0	1011,1	6,1	8,2	8	1	1	1	1	1	1	1	1	1	0	1	-5,073996	273,565728	312,488944	0
15.01.2021	06:15:37	0	0	3,050585	2,32725	21,7692	-0,433	85,132	0	1011,06	6,1	8,2	8,1	1	1	1	1	1	1	1	1	1	0	1	-9,020437	273,42833	307,905002	0
15.01.2021	06:15:38	0	0	4,067447	2,36625	19,134	-0,424	85,133	0	1011,26	6,2	8,2	8,1	1	1	1	1	1	1	1	1	1	0	1	-4,439746	273,55557	313,076031	0
15.01.2021	06:15:39	0	0	5,53628	2,8005	0,1296	-0,424	85,137	0	1011,24	6,1	8,2	8	1	1	1	1	1	1	1	1	1	0	1	-9,795631	273,539619	307,646095	0
15.01.2021	06:15:40	0	0	3,16357	3,498	5,2164	-0,421	85,137	0	1011,04	6,1	8,2	8,1	1	1	1	1	1	1	1	1	1	0	1	-5,21494	273,487508	311,984954	0
15.01.2021	06:15:41	0	0	2,711631	3,56625	18,8316	-0,422	85,141	0	1011,18	6,2	8,2	8,1	1	1	1	1	1	1	1	1	1	0	1	-6,8358	273,403847	309,976141	0
15.01.2021	06:15:42	0	0	4,067447	3,387	19,1556	-0,418	85,133	0	1011,16	6,1	8,2	8,1	1	1	1	1	1	1	1	1	1	0	1	-5,355884	273,442747	311,636401	0
15.01.2021	06:15:43	0	0	4,519385	3,3225	18,8316	-0,421	85,142	0	1011,1	6,1	8,2	8,1	1	1	1	1	1	1	1	1	1	0	1	-10,641297	273,558472	306,887952	0
15.01.2021	06:15:44	0	0	4,971324	3,0405	21,7728	-0,422	85,136	0	1011,06	6,1	8,2	8,1	1	1	1	1	1	1	1	1	1	0	1	-7,047216	273,575891	310,562916	0
15.01.2021	06:15:45	0	0	4,406401	2,811	28,7208	-0,419	85,145	0	1010,92	6,3	8,2	8,1	1	1	1	1	1	1	1	1	1	0	1	-6,553911	273,501969	310,713079	0
15.01.2021	06:15:46	0	0	3,276554	2,89575	19,998	-0,42	85,137	0	1011,18	6,1	8,2	8,1	1	1	1	1	1	1	1	1	1	0	1	-8,033827	273,409605	308,804804	0
15.01.2021	06:15:47	0	0	2,9376	2,92575	16,4952	-0,424	85,123	0	1011,24	6,1	8,2	8,1	1	1	1	1	1	1	1	1	1	0	1	-3,875969	273,513546	313,444741	0
15.01.2021	06:15:48	0	0	3,389539	2,98425	24,7464	-0,427	85,135	0	1011,06	6,1	8,2	8,1	1	1	1	1	1	1	1	1	1	0	1	-3,664553	273,399529	313,127377	0
15.01.2021	06:15:49	0	0	4,293416	3,117	21,3984	-0,421	85,152	0	1011,28	6,2	8,2	8,1	1	1	1	1	1	1	1	1	1	0	1	-4,439746	273,507757	312,854099	0
15.01.2021	06:15:50	0	0	5,197293	3,17925	21,762	-0,425	85,141	0	1011,04	6,1	8,2	8,1	1	1	1	1	1	1	1	1	1	0	1	-5,990134	273,526578	311,391059	0
15.01.2021	06:15:51	0	0	4,63237	3,063	15,4116	-0,426	85,144	0	1011,22	6,1	8,2	8,1	1	1	1	1	1	1	1	1	1	0	1	-4,439746	273,568631	313,136674	0
15.01.2021	06:15:52	0	0	4,63237	2,97825	20,286	-0,421	85,123	0	1011,06	6,1	8,2	8,1	1	1	1	1	1	1	1	1	1	0	1	-7,540521	273,520785	309,813784	0
15.01.2021	06:15:53	0	0	4,745355	2,97225	28,7352	-0,425	85,132	0	1011,18	6,1	8,2	8,1	1	1	1	1	1	1	1	1	1	0	1	-7,047216	273,403847	309,764724	0
15.01.2021	06:15:54	0	0	3,16357	2,88375	16,092	-0,424	85,151	0	1011,04	6,2	8,2	8,1	1	1	1	1	1	1	1	1	1	0	1	-7,892882	273,439863	309,086029	0
15.01.2021	06:15:55	0	0	2,937618	2,85975	22,4748	-0,423	85,141	0	1011,1	6,1	8,2	8	1	1	1	1	1	1	1	1	1	0	1	-6,131078	273,559923	311,404908	0
15.01.2021	06:15:56	0	0	3,276554	2,643	16,8624	-0,424	85,147	0	1011,12	6,1	8,2	8,1	1	1	1	1	1	1	1	1	1	0	1	-8,45666	273,514993	308,870769	0
15.01.2021	06:15:57	0	0	2,485662	2,60625	11,7216	-0,42	85,155	0	1011,18	6,2	8,2	8,1	1	1	1	1	1	1	1	1	1	0	1	-3,030303	273,56718	314,539376	0
15.01.2021	06:15:58	0	0	4,293442	2,5185	12,0924	-0,427	85,146	0	1011,12	6,2	8,2	8	1	1	1	1	1	1	1	1	1	0	1	-5,426357	273,545418	312,042288	0
15.01.2021	06:15:59	0	0	4,63237	2,54475	17,2404	-0,42	85,143	0	1011,18	6,2	8,2	8,1	1	1	1	1	1	1	1	1	1	0	1	-5,84919	273,510651	311,458087	0
15.01.2021	06:16:00	0	0	3,276554	2,58975	21,3912	-0,422	85,143	0	1011,2	6,1	8,2	8,1	1	1	1	1	1	1	1	1	1	0	1	-7,470049	273,392336	309,288541	0
15.01.2021	06:16:01	0	0	3,276554	2,58975	21,3912	-0,422	85,143	0	1011,2	6,1	8,2	8,1	1	1	1	1	1	1	1	1	1	0	1	-2,748414	273,448517	314,270626	0
15.01.2021	06:16:02	0	0	3,502524	2,3955	1,17	-0,419	85,154	0	1011	6,2	8,2	8,1	1	1	1	1	1	1	1	1	1	0	1	-8,245243	273,559923	309,290743	0
15.01.2021	06:16:03	0	0	4,067447	2,34225	20,6424	-0,42	85,145	0	1011,08	6,2	8,2	8,1	1	1	1	1	1	1	1	1	1	0	1	-7,610994	273,522233	309,750033	0
15.01.2021	06:16:04	0	0	4,519385	2,30025	8,6148	-0,427	85,142	0	1011	6,1	8,2	8,1	1	1	1	1	1	1	1	1	1	0	1	-8,80902	273,409605	308,02961	0
15.01.2021	06:16:05	0	0	4,519385	2,247	18,8352	-0,425	85,157	0	1011,28	6,1	8,2	8,1	1	1	1	1	1	1	1	1	1	0	1	-8,104299	273,572987	309,492347	0
15.01.2021	06:16:06	0	0	5,084308	2,23575	19,152	-0,424	85,146	0	1011,02	6,1	8,2	8,1	1	1	1	1	1	1	1	1	1	0	1	-7,540521	273,470169	309,578938	0
15.01.2021	06:16:07	0	0	3,050585	2,325	16,5456	-0,42	85,167	0	1011,18	6,2	8,2	8,1	1	1	1	1	1	1	1	1	1	0	1	-6,131078	273,56718	311,438601	0
15.01.2021	06:16:08	0	0	3,502524	2,442	15,7896	-0,418	85,142	0	1011,08	6,2	8,2	8,1	1	1	1	1	1	1	1	1	1	0	1	-6,342495	273,474502	310,797065	0
15.01.2021	06:16:09	0	0	4,293416	2,52	19,9116	-0,428	85,152	0	1011,08	6,2	8,2	8,1	1	1	1	1	1	1	1	1	1	0	1	-1,902748	273,551219	315,592825	0
15.01.2021	06:16:10	0	0	3,16357	2,71425	23,2308	-0,423	85,152	0	1011,26	6,2	8,2	8,1	1	1	1	1	1	1	1	1	1	0	1	-5,21494	273,529475	312,1797	0
15.01.2021	06:16:11	0	0	2,9376	2,6085	18,4572	-0,421	85,147	0	1011,1	6,2	8,2	8,1	1	1	1	1	1	1	1	1	1	0	1	-6,976744	273,464392	310,115924	0
15.01.2021	06:16:12	0	0	4,180456	2,51775	21,7908	-0,42	85,15	0	1011	6,1	8,2	8	1	1	1	1	1	1	1	1	1	0	1	-7,117689	273,39809	309,667572	0
15.01.2021	06:16:13	0	0	4,745355	2,5635	12,8484	-0,423	85,16	0	1011,3	6,1	8,2	8,1	1	1	1	1	1	1	1	1	1	0	1	-6,8358	273,50631	310,451331	0
15.01.2021	06:16:14	0	0	4,067447	2,8125	9,3708	-0,423	85,172	0	1011,24	6,1	8,2	8,1	1	1	1	1	1	1	1	1	1	0	1	-7,117689	273,393774	309,647568	0
15.01.2021	06:16:15	0	0	3,16357	3,05325	18,45	-0,419	85,17	0	1011,16	6,1	8,2	8,1	1	1	1	1	1	1	1	1	1	0	1	-8,174771	273,438421	308,797454	0
15.01.2021	06:16:16	0	0	4,63237	3	19,9116	-0,419	85,154	0	1011,16	6,1	8,2	8,1	1	1	1	1	1	1	1	1	1	0	1	-3,312192	273,429772	313,619929	0
15.01.2021	06:16:17	0	0	4,293416	3,27675	13,1616	-0,419	85,137	0	1011,06	6,1	8,2	8,1	1	1	1	1	1	1	1	1	1	0	1	-7,540521	273,571535	310,049382	0
15.01.2021	06:16:18	0	0	2,711631	3,62175	9,4644	-0,419	85,175	0	1011,18	6,2	8,2	8,1	1	1	1	1	1	1	1	1	1	0	1	-2,818887	273,439863	314,160024	0
15.01.2021	06:16:19	0	0	3,954462	3,813	19,1556	-0,421	85,163	0	1011,14	6,2	8,2	8,1	1	1	1	1	1	1	1	1	1	0	1	-7,188161	273,580248	310,442206	0
15.01.2021	06:16:20	0	0	4,067471	3,7155	15,0372	-0,424	85,148	0	1011,2	6,2	8,2	8	1	1	1	1	1	1	1	1	1	0	1	-2,748414	273,496183	314,49173	0
15.01.2021	06:16:21	0	0	4,971354	3,40275	17,6976	-0,425	85,161	0	1011,16	6,1	8,2	8	1	1	1	1	1	1	1	1	1	0	1	-5,144468	273,578796	312,479153	0
15.01.2021	06:16:22	0	0	3,728493	3,16275	20,3688	-0,421	85,164	0	1011,14	6,2	8,2	8,1	1	1	1	1	1	1	1	1	1	0	1	-6,624383	273,539619	310,817342	0
15.01.2021	06:16:23	0	0	2,824616	3,0705	8,2728	-0,427	85,157	0	1011,1	6,1	8,2	8,1	1	1	1	1	1	1	1	1	1	0	1	-5,144468	273,455731	311,90803	0
15.01.2021	06:16:24	0	0	3,389539	3,23775	13,1616	-0,429	85,161	0	1011,08	6,2	8,2	8,1	1	1	1	1	1	1	1	1	1	0	1	-9,654686	273,399529	307,137243	0
15.01.2021	06:16:25	0	0	4,293442	3,405	8,2692	-0,42	85,177	0	1011,38	6,1	8,2	8	1	1	1	1	1	1	1	1	1	0	1	-3,171247	273,412484	313,680731	0
15.01.2021	06:16:26	0	0	2,485662	3,22275	16,4808	-0,424	85,161	0	1011,2	6,2	8,2	8,1	1	1	1	1	1	1	1	1	1	0	1	-10,923185	273,545418	306,545459	0
15.01.2021	06:16:27	0	0	4,519385	2,9325	12,8664	-0,422	85,169	0	1011,1	6,2	8,2	8,1	1	1	1	1	1	1	1	1	1	0	1	-2,60747	273,535271	314,814072	0
15.01.2021	06:16:28	0	0	4,745355	2,9145	8,6112	-0,423	85,141	0	1010,86	6,2	8,2	8,1	1	1	1	1	1	1	1	1	1	0	1	-4,721635	273,400968	312,076964	0
15.01.2021	06:16:29	0	0	4,63237	2,844	10,8288	-0,42	85,17	0	1011,1	6,2	8,2	8,1	1	1	1	1	1	1	1	1	1	0	1	-4,721635	273,452845	312,317478	0
15.01.2021	06:16:30	0	0	4,293416	2,814	10,062	-0,418	85,174	0	1011,08	6,1	8,2	8,1	1	1	1	1	1	1	1	1	1	0	1	-1,268499	273,570083	316,314662	0
15.01.2021	06:16:31	0	0	3,954462	2,82675	12,4596	-0,422	85,169	0	1011,16	6,1	8,2	8,1	1	1	1	1	1	1	1	1	1	0	1	-6,694856	273,445632	310,310806	0
15.01.2021	06:16:32	0	0	4,519385	2,853	19,1304	-0,422	85,156	0	1011,06	6,1	8,2	8,1	1	1	1	1	1	1	1	1	1	0	1	-5,073996	273,55557	312,441781	0
15.01.2021	06:16:33	0	0	4,63237	2,745	13,1688	-0,431	85,165	0	1011,02	6,2	8,2	8,1	1	1	1	1	1	1	1	1	1	0	1	-6,131078	273,392336	310,627512	0
15.01.2021	06:16:34	0	0	3,502524	2,8185	13,9212	-0,425	85,174	0	1011,1	6,1	8,2	8,1	1	1	1	1	1	1	1	1	1	0	1	-4,439746	273,517889	312,90112	0
15.01.2021	06:16:35	0	0	3,276554	3,07425	8,9964	-0,425	85,175	0	1011,06	6,2	8,2	8,1	1	1	1	1	1	1	1	1	1	0	1	-6,483439	273,402407	310,32183	0
15.01.2021	06:16:36	0	0	4,406401	3,24375	6,0696	-0,429	85,166	0	1011,02	6,1	8,2	8,1	1	1	1	1	1	1	1	1	1	0	1	-4,580691	273,503416	312,693012	0
15.01.2021	06:16:37	0	0	3,389539	3,35925	10,4508	-0,422	85,195	0	1011,1	6,1	8,2	8,1	1	1	1	1	1	1	1	1	1	0	1	-6,976744	273,424007	309,928653	0
15.01.2021	06:16:38	0	0	3,276554	3,46875	9,3708	-0,422	85,171	0	1011,12	6,1	8,2	8,1	1	1	1	1	1	1	1	1	1	0	1	-9,725159	273,455731	307,32734	0
15.01.2021	06:16:39	0	0	4,406454	3,38325	19,1376	-0,42	85,171	0	1011,1	6,1	8,2	7,9	1	1	1	1	1	1	1	1	1	0	1	-6,624383	273,402407	310,180886	0
15.01.2021	06:16:40	0	0	2,824616	3,22875	13,1724	-0,422	85,174	0	1011,14	6,3	8,2	8,1	1	1	1	1	1	1	1	1	1	0	1	-5,144468	273,389459	311,60079	0
15.01.2021	06:16:41	0	0	2,485662	3,267	15,0444	-0,428	85,187	0	1011,1	6,1	8,2	8,1	1	1	1	1	1	1	1	1	1	0	1	-9,725159	273,526578	307,656035	0
15.01.2021	06:16:42	0	0	3,16357	3,06675	18,8388	-0,419	85,176	0	1011,06	6,2	8,2	8,1	1	1	1	1	1	1	1	1	1	0	1	-5,496829	273,403847	311,315112	0
15.01.2021	06:16:43	0	0	3,615508	2,8845	22,8384	-0,424	85,16	0	1011	6,2	8,2	8,1	1	1	1	1	1	1	1	1	1	0	1	-6,412967	273,546868	311,062409	0
15.01.2021	06:16:44	0	0	3,954462	2,772	15,4152	-0,423	85,173	0	1011,14	6,2	8,2	8,1	1	1	1	1	1	1	1	1	1	0	1	-5,567301	273,415365	311,298029	0
15.01.2021	06:16:45	0	0	2,9376	2,787	17,2584	-0,422	85,183	0	1011,14	6,1	8,2	8,1	1	1	1	1	1	1	1	1	1	0	1	-9,866103	273,395213	306,905821	0
15.01.2021	06:16:46	0	0	4,745355	2,86875	12,474	-0,423	85,167	0	1010,96	6,2	8,2	8,1	1	1	1	1	1	1	1	1	1	0	1	-6,553911	273,457175	310,50528	0
15.01.2021	06:16:47	0	0	5,310278	3,0705	10,4364	-0,423	85,191	0	1011,1	6,1	8,2	8,1	1	1	1	1	1	1	1	1	1	0	1	-3,805497	273,568631	313,770923	0
15.01.2021	06:16:48	0	0	4,067471	3,105	5,3208	-0,424	85,183	0	1011,08	6,3	8,2	8	1	1	1	1	1	1	1	1	1	0	1	-9,513742	273,432654	307,431744	0
15.01.2021	06:16:49	0	0	2,372677	2,97525	10,4544	-0,419	85,192	0	1011,16	6,1	8,2	8,1	1	1	1	1	1	1	1	1	1	0	1	-4,298802	273,55557	313,216975	0
15.01.2021	06:16:50	0	0	3,615508	2,838	5,238	-0,424	85,173	0	1011,16	6,2	8,2	8,1	1	1	1	1	1	1	1	1	1	0	1	-3,946441	273,562825	313,60302	0
15.01.2021	06:16:51	0	0	2,485662	2,805	1,5516	-0,427	85,179	0	1011,14	6,1	8,2	8,1	1	1	1	1	1	1	1	1	1	0	1	-2,184637	273,458618	314,881249	0
15.01.2021	06:16:52	0	0	4,63237	2,7225	7,524	-0,421	85,187	0	1010,98	6,2	8,2	8,1	1	1	1	1	1	1	1	1	1	0	1	-7,82241	273,403847	308,98953	0
15.01.2021	06:16:53	0	0	4,745355	2,69925	9,7488	-0,423	85,184	0	1011,08	6,2	8,2	8,1	1	1	1	1	1	1	1	1	1	0	1	-0	273,449959	317,025731	0
15.01.2021	06:16:54	0	0	2,372692	2,83725	6,4404	-0,422	85,192	0	1011,2	6,2	8,2	8	1	1	1	1	1	1	1	1	1	0	1	-1,832276	273,435537	315,126578	0
15.01.2021	06:16:55	0	0	3,276574	2,71875	17,7804	-0,421	85,181	0	1011,16	6,2	8,2	8	1	1	1	1	1	1	1	1	1	0	1	-3,805497	273,574439	313,797892	0
15.01.2021	06:16:56	0	0	4,63237	2,56425	18,4464	-0,425	85,178	0	1011,08	6,2	8,2	8,1	1	1	1	1	1	1	1	1	1	0	1	-1,973221	273,494737	315,260214	0
15.01.2021	06:16:57	0	0	3,615508	2,6415	356,8752	-0,412	85,196	0	1011,02	6,3	8,2	8,1	1	1	1	1	1	1	1	1	1	0	1	-7,117689	273,590419	310,559914	0
15.01.2021	06:16:58	0	0	4,971324	2,66775	11,2176	-0,421	85,19	0	1011,18	6,2	8,2	8,1	1	1	1	1	1	1	1	1	1	0	1	-5,003524	273,50631	312,283607	0
15.01.2021	06:16:59	0	0	3,050603	2,61975	357,516	-0,423	85,19	0	1011,06	6,1	8,2	8	1	1	1	1	1	1	1	1	1	0	1	-1,479915	273,402407	315,325354	0
15.01.2021	06:17:00	0	0	3,276554	2,595	3,7836	-0,428	85,18	0	1011,16	6,1	8,2	8,1	1	1	1	1	1	1	1	1	1	0	1	-4,721635	273,452845	312,317478	0
15.01.2021	06:17:01	0	0	3,276554	2,595	3,7836	-0,428	85,18	0	1011,16	6,1	8,2	8,1	1	1	1	1	1	1	1	1	1	0	1	-4,721635	273,452845	312,317478	0
15.01.2021	06:17:02	0	0	4,406401	2,4975	5,6664	-0,426	85,163	0	1010,98	6,2	8,2	8,1	1	1	1	1	1	1	1	1	1	0	1	-1,550388	273,577343	316,066489	0
15.01.2021	06:17:03	0	0	3,954462	2,49	12,8448	-0,426	85,177	0	1011,12	6,2	8,2	8,1	1	1	1	1	1	1	1	1	1	0	1	-7,399577	273,49763	309,847277	0
15.01.2021	06:17:04	0	0	3,728493	2,5695	12,4704	-0,418	85,203	0	1011,22	6,2	8,2	8,1	1	1	1	1	1	1	1	1	1	0	1	-2,043693	273,586059	315,613662	0
15.01.2021	06:17:05	0	0	4,180431	2,601	14,2956	-0,43	85,199	0	1011,12	6,2	8,2	8,1	1	1	1	1	1	1	1	1	1	0	1	-7,681466	273,487508	309,518428	0
15.01.2021	06:17:06	0	0	4,406401	2,61225	8,6184	-0,424	85,192	0	1011,06	6,1	8,2	8,1	1	1	1	1	1	1	1	1	1	0	1	-0	273,561374	317,542723	0
15.01.2021	06:17:07	0	0	3,954462	2,79225	30,708	-0,421	85,2	0	1011	6,1	8,2	8,1	1	1	1	1	1	1	1	1	1	0	1	-1,338971	273,532373	316,069119	0
15.01.2021	06:17:08	0	0	3,389539	2,8185	6,0732	-0,429	85,179	0	1011,14	6,1	8,2	8,1	1	1	1	1	1	1	1	1	1	0	1	-3,24172	273,448517	313,777321	0
15.01.2021	06:17:09	0	0	3,615508	2,83425	13,1832	-0,427	85,199	0	1011,14	6,1	8,2	8,1	1	1	1	1	1	1	1	1	1	0	1	-0,140944	273,402407	316,664325	0
15.01.2021	06:17:10	0	0	4,406427	2,649	11,2068	-0,428	85,197	0	1011,16	6,1	8,2	8	1	1	1	1	1	1	1	1	1	0	1	-4,721635	273,422567	312,177083	0
15.01.2021	06:17:11	0	0	3,841478	2,55525	19,5408	-0,423	85,192	0	1011,14	6,1	8,2	8,1	1	1	1	1	1	1	1	1	1	0	1	-0,98661	273,390897	315,765313	0
15.01.2021	06:17:12	0	0	3,615508	2,4495	18,45	-0,424	85,192	0	1011,18	6,1	8,2	8,1	1	1	1	1	1	1	1	1	1	0	1	-1,832276	273,488953	315,374325	0
15.01.2021	06:17:13	0	0	3,16357	2,43	15,0228	-0,427	85,188	0	1011,2	6,1	8,2	8,1	1	1	1	1	1	1	1	1	1	0	1	-5,637773	273,552669	311,864534	0
15.01.2021	06:17:14	0	0	2,9376	2,442	33,9444	-0,422	85,187	0	1011,04	6,2	8,2	8,1	1	1	1	1	1	1	1	1	1	0	1	-3,946441	273,416805	312,925565	0
15.01.2021	06:17:15	0	0	3,954462	2,31825	29,9556	-0,424	85,209	0	1011,1	6,2	8,2	8,1	1	1	1	1	1	1	1	1	1	0	1	-2,466526	273,53672	314,961744	0
15.01.2021	06:17:16	0	0	3,841478	2,23425	13,1652	-0,418	85,2	0	1011,06	6,1	8,2	8,1	1	1	1	1	1	1	1	1	1	0	1	-3,805497	273,435537	313,153358	0
15.01.2021	06:17:17	0	0	4,293416	2,25675	25,0344	-0,424	85,189	0	1011,16	6,2	8,2	8,1	1	1	1	1	1	1	1	1	1	0	1	-3,24172	273,494737	313,991715	0
15.01.2021	06:17:18	0	0	3,389539	2,349	10,0548	-0,418	85,196	0	1011,04	6,2	8,2	8,1	1	1	1	1	1	1	1	1	1	0	1	-4,862579	273,402407	311,94269	0
15.01.2021	06:17:19	0	0	4,180431	2,41875	26,5212	-0,431	85,197	0	1010,8	6,2	8,2	8,1	1	1	1	1	1	1	1	1	1	0	1	-1,268499	273,431213	315,670305	0
15.01.2021	06:17:20	0	0	5,197293	2,44575	16,1964	-0,423	85,212	0	1011,16	6,1	8,2	8,1	1	1	1	1	1	1	1	1	1	0	1	-5,355884	273,439863	311,623027	0
15.01.2021	06:17:21	0	0	3,389559	2,514	23,9688	-0,42	85,187	0	1011	6,2	8,2	8	1	1	1	1	1	1	1	1	1	0	1	-4,792107	273,584606	312,8585	0
15.01.2021	06:17:22	0	0	4,067471	2,574	22,842	-0,421	85,191	0	1011,2	6,1	8,2	8	1	1	1	1	1	1	1	1	1	0	1	-8,879493	273,46728	308,22657	0
15.01.2021	06:17:23	0	0	3,615508	2,6235	16,8516	-0,42	85,213	0	1011,18	6,1	8,2	8,1	1	1	1	1	1	1	1	1	1	0	1	-7,82241	273,568631	309,75401	0
15.01.2021	06:17:24	0	0	5,084339	2,7435	9,738	-0,422	85,191	0	1011,12	6,2	8,2	8	1	1	1	1	1	1	1	1	1	0	1	-6,342495	273,413924	310,516159	0
15.01.2021	06:17:25	0	0	4,406401	2,71575	353,2536	-0,425	85,208	0	1011,08	6,2	8,2	8,1	1	1	1	1	1	1	1	1	1	0	1	-7,047216	273,461505	310,032059	0
15.01.2021	06:17:26	0	0	4,745355	2,727	4,4712	-0,423	85,202	0	1011,1	6,2	8,2	8,1	1	1	1	1	1	1	1	1	1	0	1	-0	273,399529	316,791929	0
15.01.2021	06:17:27	0	0	3,050603	2,5155	360	-0,428	85,206	0	1011,02	6,2	8,2	8	1	1	1	1	1	1	1	1	1	0	1	-4,721635	273,568631	312,854785	0
15.01.2021	06:17:28	0	0	2,485662	2,51175	8,9964	-0,428	85,215	0	1011,12	6,1	8,2	8,1	1	1	1	1	1	1	1	1	1	0	1	-5,003524	273,562825	312,545938	0
15.01.2021	06:17:29	0	0	3,728515	2,55675	3,384	-0,417	85,218	0	1011,12	6,1	8,2	8	1	1	1	1	1	1	1	1	1	0	1	-4,439746	273,39809	312,345514	0
15.01.2021	06:17:30	0	0	4,745383	2,5365	7,128	-0,424	85,193	0	1011,12	6,1	8,2	8	1	1	1	1	1	1	1	1	1	0	1	-7,117689	273,519337	310,229897	0
15.01.2021	06:17:31	0	0	4,180456	2,6145	7,5996	-0,417	85,204	0	1011,1	6,2	8,2	8	1	1	1	1	1	1	1	1	1	0	1	-0	273,574439	317,603389	0
15.01.2021	06:17:32	0	0	3,276574	2,81625	4,1004	-0,42	85,21	0	1011,28	6,2	8,2	8	1	1	1	1	1	1	1	1	1	0	1	-2,184637	273,445632	314,821024	0
15.01.2021	06:17:33	0	0	4,293442	3,01875	8,9964	-0,421	85,212	0	1011,06	6,2	8,2	8	1	1	1	1	1	1	1	1	1	0	1	-6,906272	273,571535	310,683631	0
15.01.2021	06:17:34	0	0	4,632398	2,88825	11,2032	-0,432	85,206	0	1011,06	6,1	8,2	8	1	1	1	1	1	1	1	1	1	0	1	-6,483439	273,516441	310,850708	0
15.01.2021	06:17:35	0	0	2,9376	2,51325	24,5376	-0,419	85,185	0	1011,08	6,2	8,2	8,1	1	1	1	1	1	1	1	1	1	0	1	-4,510218	273,405286	312,308394	0
15.01.2021	06:17:36	0	0	2,711647	2,1885	19,152	-0,422	85,202	0	1011,18	6,2	8,2	8	1	1	1	1	1	1	1	1	1	0	1	-4,369274	273,523681	312,998474	0
15.01.2021	06:17:37	0	0	3,389539	1,86	17,6976	-0,42	85,212	0	1011,1	6,1	8,2	8,1	1	1	1	1	1	1	1	1	1	0	1	-4,157858	273,392336	312,600732	0
15.01.2021	06:17:38	0	0	4,519412	1,644	16,866	-0,426	85,196	0	1011,22	6,1	8,2	8	1	1	1	1	1	1	1	1	1	0	1	-2,818887	273,488953	314,387714	0
15.01.2021	06:17:39	0	0	4,519412	1,63725	13,9212	-0,42	85,216	0	1011,18	6,2	8,2	8	1	1	1	1	1	1	1	1	1	0	1	-1,479915	273,570083	316,103246	0
15.01.2021	06:17:40	0	0	3,728515	1,59	10,4364	-0,418	85,218	0	1011,12	6,1	8,2	8	1	1	1	1	1	1	1	1	1	0	1	-4,580691	273,561374	312,962033	0
15.01.2021	06:17:41	0	0	3,163589	1,635	10,4328	-0,423	85,211	0	1011,22	6,1	8,2	8	1	1	1	1	1	1	1	1	1	0	1	-1,62086	273,457175	315,438332	0
15.01.2021	06:17:42	0	0	2,824616	1,8465	5,6844	-0,429	85,204	0	1011,08	6,2	8,2	8,1	1	1	1	1	1	1	1	1	1	0	1	-2,184637	273,403847	314,627303	0
15.01.2021	06:17:43	0	0	4,632398	2,04825	1,9404	-0,423	85,209	0	1011,08	6,2	8,2	8	1	1	1	1	1	1	1	1	1	0	1	-1,973221	273,542518	315,481963	0
15.01.2021	06:17:44	0	0	4,63237	2,118	10,4472	-0,424	85,209	0	1011,1	6,2	8,2	8,1	1	1	1	1	1	1	1	1	1	0	1	-0,140944	273,39809	316,644316	0
15.01.2021	06:17:45	0	0	4,180456	2,18025	6,444	-0,426	85,216	0	1011,16	6,1	8,2	8	1	1	1	1	1	1	1	1	1	0	1	-5,21494	273,551219	312,280634	0
15.01.2021	06:17:46	0	0	2,711631	2,16825	9,8316	-0,42	85,202	0	1011,02	6,1	8,2	8,1	1	1	1	1	1	1	1	1	1	0	1	-5,778717	273,442747	311,213568	0
15.01.2021	06:17:47	0	0	3,050585	2,24325	8,2584	-0,423	85,189	0	1011,08	6,2	8,2	8,1	1	1	1	1	1	1	1	1	1	0	1	-3,735025	273,575891	313,875108	0
15.01.2021	06:17:48	0	0	4,293416	2,292	7,1316	-0,425	85,2	0	1011,02	6,2	8,2	8,1	1	1	1	1	1	1	1	1	1	0	1	-3,171247	273,452845	313,867866	0
15.01.2021	06:17:49	0	0	2,711647	2,4255	10,4472	-0,42	85,217	0	1011,08	6,2	8,2	8	1	1	1	1	1	1	1	1	1	0	1	-8,45666	273,39809	308,328601	0
15.01.2021	06:17:50	0	0	4,632398	2,40075	23,2416	-0,426	85,201	0	1011,1	6,2	8,2	8	1	1	1	1	1	1	1	1	1	0	1	-4,157858	273,451402	312,874564	0
15.01.2021	06:17:51	0	0	3,050603	2,361	17,6976	-0,418	85,219	0	1011,18	6,1	8,2	8	1	1	1	1	1	1	1	1	1	0	1	-5,355884	273,402407	311,449385	0
15.01.2021	06:17:52	0	0	4,632398	2,322	22,464	-0,422	85,204	0	1011,06	6,1	8,2	8	1	1	1	1	1	1	1	1	1	0	1	-8,174771	273,53817	309,260226	0
15.01.2021	06:17:53	0	0	4,180456	2,44575	22,0968	-0,421	85,219	0	1011,2	6,2	8,2	8	1	1	1	1	1	1	1	1	1	0	1	-8,315715	273,55557	309,200062	0
15.01.2021	06:17:54	0	0	3,954486	2,4675	26,2764	-0,425	85,208	0	1011,14	6,1	8,2	8	1	1	1	1	1	1	1	1	1	0	1	-4,439746	273,406726	312,385538	0
15.01.2021	06:17:55	0	0	3,276554	2,36925	13,1652	-0,424	85,196	0	1011,06	6,2	8,2	8,1	1	1	1	1	1	1	1	1	1	0	1	-7,82241	273,526578	309,558783	0
15.01.2021	06:17:56	0	0	3,61553	2,27475	16,4808	-0,42	85,22	0	1011,14	6,1	8,2	8	1	1	1	1	1	1	1	1	1	0	1	-3,100775	273,392336	313,657815	0
15.01.2021	06:17:57	0	0	3,389559	2,32725	6,066	-0,422	85,212	0	1011,12	6,1	8,2	8	1	1	1	1	1	1	1	1	1	0	1	-1,832276	273,488953	315,374325	0
15.01.2021	06:17:58	0	0	4,63237	2,43225	18,4392	-0,425	85,222	0	1011,14	6,2	8,2	8,1	1	1	1	1	1	1	1	1	1	0	1	-2,255109	273,552669	315,247198	0
15.01.2021	06:17:59	0	0	4,519412	2,625	20,2788	-0,426	85,219	0	1011,18	6,1	8,1	8	1	1	1	1	1	1	1	1	1	0	1	-5,144468	273,591872	312,539885	0
15.01.2021	06:18:00	0	0	4,406401	2,67825	16,4736	-0,424	85,217	0	1011,1	6,1	8,2	8,1	1	1	1	1	1	1	1	1	1	0	1	-4,721635	273,493291	312,50509	0
15.01.2021	06:18:01	0	0	4,406401	2,67825	16,4736	-0,424	85,217	0	1011,1	6,1	8,2	8,1	1	1	1	1	1	1	1	1	1	0	1	-5,003524	273,571535	312,586379	0
15.01.2021	06:18:02	0	0	4,745383	2,49375	11,718	-0,428	85,21	0	1011,02	6,2	8,2	8	1	1	1	1	1	1	1	1	1	0	1	-9,020437	273,468724	308,092324	0
15.01.2021	06:18:03	0	0	2,372692	2,41575	11,196	-0,418	85,231	0	1011,12	6,2	8,2	8	1	1	1	1	1	1	1	1	1	0	1	-6,624383	273,389459	310,120875	0
15.01.2021	06:18:04	0	0	4,745383	2,46375	7,6032	-0,422	85,216	0	1011,22	6,2	8,2	8	1	1	1	1	1	1	1	1	1	0	1	-2,396054	273,486062	314,797134	0
15.01.2021	06:18:05	0	0	2,485677	2,451	27,6444	-0,419	85,225	0	1011,22	6,2	8,2	8	1	1	1	1	1	1	1	1	1	0	1	-6,131078	273,559923	311,404908	0
15.01.2021	06:18:06	0	0	3,163589	2,31825	8,6256	-0,425	85,217	0	1011,12	6,2	8,2	8	1	1	1	1	1	1	1	1	1	0	1	-7,117689	273,559923	310,418297	0
15.01.2021	06:18:07	0	0	2,937618	2,2725	8,2692	-0,421	85,214	0	1011,18	6,2	8,2	8	1	1	1	1	1	1	1	1	1	0	1	-3,805497	273,447074	313,206854	0
15.01.2021	06:18:08	0	0	2,937618	2,31975	26,8992	-0,425	85,226	0	1011,14	6,2	8,2	8	1	1	1	1	1	1	1	1	1	0	1	-2,466526	273,432654	314,478961	0
15.01.2021	06:18:09	0	0	3,954486	2,346	15,0372	-0,42	85,226	0	1011,14	6,1	8,2	8	1	1	1	1	1	1	1	1	1	0	1	-5,21494	273,542518	312,240244	0
15.01.2021	06:18:10	0	0	4,519412	2,34525	19,5408	-0,423	85,208	0	1011,08	6,2	8,2	8	1	1	1	1	1	1	1	1	1	0	1	-7,963354	273,588966	309,707498	0
15.01.2021	06:18:11	0	0	4,519385	2,35125	9,3744	-0,419	85,229	0	1011,12	6,2	8,2	8,1	1	1	1	1	1	1	1	1	1	0	1	-6,976744	273,452845	310,062369	0
15.01.2021	06:18:12	0	0	4,180456	2,334	19,1628	-0,42	85,227	0	1011,2	6,2	8,2	8	1	1	1	1	1	1	1	1	1	0	1	-6,694856	273,386583	310,037074	0
15.01.2021	06:18:13	0	0	2,824633	2,319	13,5468	-0,42	85,223	0	1011,1	6,2	8,2	8	1	1	1	1	1	1	1	1	1	0	1	-9,584214	273,411045	307,26109	0
15.01.2021	06:18:14	0	0	3,389559	2,30625	14,6556	-0,422	85,23	0	1011,16	6,2	8,2	8	1	1	1	1	1	1	1	1	1	0	1	-5,144468	273,510651	312,162809	0
15.01.2021	06:18:15	0	0	4,858368	2,29875	11,7036	-0,424	85,233	0	1011,16	6,2	8,2	8	1	1	1	1	1	1	1	1	1	0	1	-7,751938	273,55412	309,757104	0
15.01.2021	06:18:16	0	0	2,711631	2,454	12,4632	-0,422	85,23	0	1011,12	6,2	8,2	8,1	1	1	1	1	1	1	1	1	1	0	1	-9,372798	273,42833	307,552641	0
15.01.2021	06:18:17	0	0	3,163589	2,541	7,8768	-0,42	85,228	0	1011,14	6,2	8,2	8	1	1	1	1	1	1	1	1	1	0	1	-7,681466	273,471613	309,444693	0
15.01.2021	06:18:18	0	0	4,519412	2,82075	13,1616	-0,42	85,223	0	1011,16	6,1	8,2	8	1	1	1	1	1	1	1	1	1	0	1	-3,523608	273,409605	313,315022	0
15.01.2021	06:18:19	0	0	4,293442	2,87775	358,3188	-0,418	85,221	0	1011,42	6,1	8,2	8	1	1	1	1	1	1	1	1	1	0	1	-1,198027	273,504863	316,08239	0
15.01.2021	06:18:20	0	0	2,372677	2,85	360	-0,426	85,22	0	1011,12	6,2	8,2	8,1	1	1	1	1	1	1	1	1	1	0	1	-6,976744	273,436979	309,988795	0
15.01.2021	06:18:21	0	0	3,728493	2,71125	9,3636	-0,429	85,22	0	1011	6,2	8,2	8,1	1	1	1	1	1	1	1	1	1	0	1	-6,483439	273,564277	311,072761	0
15.01.2021	06:18:22	0	0	2,711647	2,6985	16,4628	-0,424	85,213	0	1011,14	6,2	8,2	8	1	1	1	1	1	1	1	1	1	0	1	-8,879493	273,512098	308,434501	0
15.01.2021	06:18:23	0	0	3,502524	2,69775	17,7552	-0,423	85,216	0	1011,06	6,2	8,2	8,1	1	1	1	1	1	1	1	1	1	0	1	-2,677942	273,549768	314,810898	0
15.01.2021	06:18:24	0	0	3,841501	2,697	12,8484	-0,42	85,225	0	1011,1	6,2	8,2	8	1	1	1	1	1	1	1	1	1	0	1	-5,426357	273,429772	311,505764	0
15.01.2021	06:18:25	0	0	2,937618	2,7135	9,3816	-0,417	85,225	0	1011,2	6,2	8,2	8	1	1	1	1	1	1	1	1	1	0	1	-5,496829	273,545418	311,971816	0
15.01.2021	06:18:26	0	0	4,858368	2,7195	8,262	-0,428	85,237	0	1011,08	6,1	8,2	8	1	1	1	1	1	1	1	1	1	0	1	-3,100775	273,400968	313,697824	0
15.01.2021	06:18:27	0	0	3,728515	2,523	20,286	-0,425	85,23	0	1011,12	6,1	8,1	8	1	1	1	1	1	1	1	1	1	0	1	-4,862579	273,49763	312,384275	0
15.01.2021	06:18:28	0	0	4,519412	2,4495	21,762	-0,42	85,224	0	1011,02	6,2	8,2	8	1	1	1	1	1	1	1	1	1	0	1	-2,60747	273,385145	314,117795	0
15.01.2021	06:18:29	0	0	3,954486	2,4945	14,6448	-0,423	85,211	0	1011,06	6,1	8,2	8	1	1	1	1	1	1	1	1	1	0	1	-5,919662	273,510651	311,387615	0
15.01.2021	06:18:30	0	0	4,293442	2,57475	17,244	-0,419	85,228	0	1011,18	6,2	8,2	8	1	1	1	1	1	1	1	1	1	0	1	-4,157858	273,572987	313,438788	0
15.01.2021	06:18:31	0	0	3,502545	2,673	16,848	-0,422	85,23	0	1011,08	6,1	8,2	8	1	1	1	1	1	1	1	1	1	0	1	-0,563777	273,483172	316,616	0
15.01.2021	06:18:32	0	0	3,841501	2,736	17,244	-0,424	85,22	0	1011,16	6,2	8,2	8	1	1	1	1	1	1	1	1	1	0	1	-4,087385	273,406726	312,737899	0
15.01.2021	06:18:33	0	0	4,745383	2,82225	3,7872	-0,423	85,242	0	1011,1	6,2	8,2	8	1	1	1	1	1	1	1	1	1	0	1	-9,725159	273,546868	307,750217	0
15.01.2021	06:18:34	0	0	2,146721	3,0105	13,5648	-0,425	85,239	0	1011,16	6,1	8,2	8	1	1	1	1	1	1	1	1	1	0	1	-3,312192	273,487508	313,887702	0
15.01.2021	06:18:35	0	0	3,502545	3,11025	6,8184	-0,427	85,233	0	1011,1	6,2	8,2	8	1	1	1	1	1	1	1	1	1	0	1	-3,312192	273,55557	314,203585	0
15.01.2021	06:18:36	0	0	3,389559	3,15	1,5516	-0,42	85,236	0	1011,18	6,2	8,2	8	1	1	1	1	1	1	1	1	1	0	1	-2,466526	273,409605	314,372105	0
15.01.2021	06:18:37	0	0	4,971324	3,28575	355,482	-0,424	85,21	0	1011,14	6,1	8,2	8,1	1	1	1	1	1	1	1	1	1	0	1	-3,171247	273,441305	313,81435	0
15.01.2021	06:18:38	0	0	3,954486	3,44175	8,6436	-0,426	85,237	0	1011,12	6,2	8,2	8	1	1	1	1	1	1	1	1	1	0	1	-5,426357	273,56718	312,143323	0
15.01.2021	06:18:39	0	0	3,276554	3,4185	6,8112	-0,424	85,234	0	1011,14	6,2	8,2	8,1	1	1	1	1	1	1	1	1	1	0	1	-4,016913	273,490399	313,196395	0
15.01.2021	06:18:40	0	0	2,485677	3,4035	8,6004	-0,421	85,231	0	1010,98	6,2	8,2	8	1	1	1	1	1	1	1	1	1	0	1	-0,352361	273,395213	316,419563	0
15.01.2021	06:18:41	0	0	4,406427	3,08925	14,31	-0,42	85,226	0	1011,16	6,2	8,2	8	1	1	1	1	1	1	1	1	1	0	1	-1,338971	273,541069	316,109483	0
15.01.2021	06:18:42	0	0	4,858368	2,7405	34,3404	-0,421	85,224	0	1011,12	6,2	8,2	8	1	1	1	1	1	1	1	1	1	0	1	-3,171247	273,55557	314,34453	0
15.01.2021	06:18:43	0	0	3,276574	2,55	17,244	-0,421	85,214	0	1011,14	6,2	8,2	8	1	1	1	1	1	1	1	1	1	0	1	-3,946441	273,561374	313,596282	0
15.01.2021	06:18:44	0	0	4,406427	2,412	28,3572	-0,42	85,234	0	1011,16	6,1	8,2	8	1	1	1	1	1	1	1	1	1	0	1	-6,8358	273,513546	310,484911	0
15.01.2021	06:18:45	0	0	3,163589	2,19075	6,4296	-0,423	85,218	0	1010,94	6,2	8,2	8	1	1	1	1	1	1	1	1	1	0	1	-0,704722	273,575891	316,905411	0
15.01.2021	06:18:46	0	0	2,711647	2,16825	12,4668	-0,423	85,236	0	1011,16	6,2	8,1	8	1	1	1	1	1	1	1	1	1	0	1	-2,959831	273,461505	314,119445	0
15.01.2021	06:18:47	0	0	4,406427	2,10975	10,8036	-0,421	85,233	0	1011,14	6,2	8,2	8	1	1	1	1	1	1	1	1	1	0	1	-4,721635	273,385145	312,00363	0
15.01.2021	06:18:48	0	0	4,858368	1,9995	15,4224	-0,419	85,232	0	1011,14	6,2	8,2	8	1	1	1	1	1	1	1	1	1	0	1	-2,60747	273,522233	314,753557	0
15.01.2021	06:18:49	0	0	4,406427	2,03325	0,1224	-0,423	85,235	0	1011,28	6,2	8,2	8	1	1	1	1	1	1	1	1	1	0	1	-2,677942	273,432654	314,267544	0
15.01.2021	06:18:50	0	0	3,954486	2,19375	22,8456	-0,42	85,238	0	1011,14	6,1	8,2	8	1	1	1	1	1	1	1	1	1	0	1	-3,312192	273,565728	314,250748	0
15.01.2021	06:18:51	0	0	4,858368	2,21475	28,3392	-0,419	85,229	0	1010,96	6,1	8,2	8	1	1	1	1	1	1	1	1	1	0	1	-0,422833	273,461505	316,656443	0
15.01.2021	06:18:52	0	0	4,632398	2,17125	21,7692	-0,419	85,234	0	1010,96	6,2	8,2	8	1	1	1	1	1	1	1	1	1	0	1	-2,889359	273,568631	314,687061	0
15.01.2021	06:18:53	0	0	4,519412	2,0715	9,36	-0,42	85,239	0	1011,24	6,2	8,2	8	1	1	1	1	1	1	1	1	1	0	1	-2,255109	273,528027	315,132807	0
15.01.2021	06:18:54	0	0	2,711647	2,04975	18,4644	-0,417	85,241	0	1011,16	6,1	8,2	8	1	1	1	1	1	1	1	1	1	0	1	-0,563777	273,535271	316,857765	0
15.01.2021	06:18:55	0	0	3,050603	2,01975	10,458	-0,421	85,227	0	1011,08	6,1	8,2	8	1	1	1	1	1	1	1	1	1	0	1	-3,030303	273,549768	314,458538	0
15.01.2021	06:18:56	0	0	3,615508	2,02125	13,5468	-0,421	85,232	0	1011,16	6,2	8,2	8,1	1	1	1	1	1	1	1	1	1	0	1	-5,990134	273,461505	311,089142	0
15.01.2021	06:18:57	0	0	3,728515	2,1165	7,1316	-0,419	85,237	0	1011,16	6,2	8,2	8	1	1	1	1	1	1	1	1	1	0	1	-2,396054	273,385145	314,329212	0
15.01.2021	06:18:58	0	0	4,519412	2,1945	10,8252	-0,422	85,219	0	1011,12	6,1	8,2	8	1	1	1	1	1	1	1	1	1	0	1	-6,131078	273,528027	311,256838	0
15.01.2021	06:18:59	0	0	2,824633	2,2875	4,626	-0,42	85,247	0	1011,06	6,2	8,2	8	1	1	1	1	1	1	1	1	1	0	1	-2,466526	273,405286	314,352086	0
15.01.2021	06:19:00	0	0	4,293442	2,57325	3,78	-0,422	85,242	0	1011,18	6,2	8,2	8	1	1	1	1	1	1	1	1	1	0	1	-4,157858	273,50631	313,129273	0
15.01.2021	06:19:01	0	0	4,293442	2,57325	3,78	-0,422	85,242	0	1011,18	6,2	8,2	8	1	1	1	1	1	1	1	1	1	0	1	-4,157858	273,50631	313,129273	0
15.01.2021	06:19:02	0	0	3,954486	2,652	22,0788	-0,42	85,252	0	1011,26	6,2	8,2	8	1	1	1	1	1	1	1	1	1	0	1	-2,043693	273,559923	315,492293	0
15.01.2021	06:19:03	0	0	3,502545	2,6025	12,9168	-0,416	85,238	0	1010,96	6,2	8,1	8	1	1	1	1	1	1	1	1	1	0	1	-7,540521	273,411045	309,304783	0
15.01.2021	06:19:04	0	0	4,519412	2,55525	31,7628	-0,418	85,244	0	1011,22	6,1	8,2	8	1	1	1	1	1	1	1	1	1	0	1	-6,272023	273,546868	311,203353	0
15.01.2021	06:19:05	0	0	2,824633	2,4135	21,024	-0,423	85,242	0	1011,1	6,1	8,2	8	1	1	1	1	1	1	1	1	1	0	1	-0,281889	273,55412	317,227153	0
15.01.2021	06:19:06	0	0	2,824633	2,5245	25,7868	-0,425	85,228	0	1010,86	6,1	8,2	8	1	1	1	1	1	1	1	1	1	0	1	-8,80902	273,474502	308,33054	0
15.01.2021	06:19:07	0	0	3,389559	2,63625	15,4044	-0,419	85,239	0	1010,98	6,2	8,2	8	1	1	1	1	1	1	1	1	1	0	1	-1,832276	273,395213	314,939648	0
15.01.2021	06:19:08	0	0	3,502545	2,71575	24,7248	-0,42	85,224	0	1011,08	6,2	8,2	8	1	1	1	1	1	1	1	1	1	0	1	-0	273,399529	316,791929	0
15.01.2021	06:19:09	0	0	3,389559	2,853	16,0884	-0,424	85,241	0	1011,1	6,2	8,1	8	1	1	1	1	1	1	1	1	1	0	1	-0,352361	273,439863	316,62655	0
15.01.2021	06:19:10	0	0	4,858368	2,94075	20,7432	-0,428	85,246	0	1011,18	6,2	8,1	8	1	1	1	1	1	1	1	1	1	0	1	-1,761804	273,561374	315,780919	0
15.01.2021	06:19:11	0	0	3,276574	2,757	14,6412	-0,424	85,242	0	1010,94	6,2	8,2	8	1	1	1	1	1	1	1	1	1	0	1	-3,312192	273,462949	313,77378	0
15.01.2021	06:19:12	0	0	3,276574	2,6325	3,7908	-0,418	85,241	0	1011,12	6,2	8,2	8	1	1	1	1	1	1	1	1	1	0	1	-4,298802	273,393774	312,466455	0
15.01.2021	06:19:13	0	0	3,954486	2,58675	18,8424	-0,425	85,237	0	1011,08	6,1	8,2	8	1	1	1	1	1	1	1	1	1	0	1	-2,818887	273,419685	314,066474	0
15.01.2021	06:19:14	0	0	3,954486	2,60475	19,9008	-0,427	85,24	0	1011,04	6,2	8,2	8	1	1	1	1	1	1	1	1	1	0	1	-2,959831	273,449959	314,0659	0
15.01.2021	06:19:15	0	0	3,61553	2,673	18,4572	-0,424	85,245	0	1011,18	6,1	8,2	8	1	1	1	1	1	1	1	1	1	0	1	-9,866103	273,546868	307,609273	0
15.01.2021	06:19:16	0	0	3,163589	2,691	15,3972	-0,427	85,252	0	1011	6,2	8,1	8	1	1	1	1	1	1	1	1	1	0	1	-3,030303	273,444189	313,96867	0
15.01.2021	06:19:17	0	0	4,971354	2,71425	8,2584	-0,426	85,226	0	1011,04	6,2	8,2	8	1	1	1	1	1	1	1	1	1	0	1	-1,338971	273,56718	316,230708	0
15.01.2021	06:19:18	0	0	4,519412	3,00975	15,768	-0,419	85,249	0	1011,08	6,2	8,1	8	1	1	1	1	1	1	1	1	1	0	1	-2,466526	273,570083	315,116636	0
15.01.2021	06:19:19	0	0	2,259706	3,17025	14,3136	-0,422	85,237	0	1011,14	6,1	8,1	8	1	1	1	1	1	1	1	1	1	0	1	-6,412967	273,480281	310,753402	0
15.01.2021	06:19:20	0	0	4,180456	3,129	360	-0,432	85,241	0	1011,06	6,2	8,2	8	1	1	1	1	1	1	1	1	1	0	1	-1,902748	273,561374	315,639975	0
15.01.2021	06:19:21	0	0	2,824633	3,03	13,5576	-0,421	85,249	0	1011,14	6,1	8,2	8	1	1	1	1	1	1	1	1	1	0	1	-4,016913	273,415365	312,848416	0
15.01.2021	06:19:22	0	0	3,163589	3,0105	10,44	-0,417	85,249	0	1011,2	6,1	8,2	8	1	1	1	1	1	1	1	1	1	0	1	-2,184637	273,39809	314,600623	0
15.01.2021	06:19:23	0	0	4,293442	2,96775	9,3636	-0,426	85,234	0	1011,14	6,2	8,2	8	1	1	1	1	1	1	1	1	1	0	1	-6,694856	273,56718	310,874824	0
15.01.2021	06:19:24	0	0	3,61553	2,8605	10,4544	-0,422	85,245	0	1011,26	6,2	8,2	8	1	1	1	1	1	1	1	1	1	0	1	-2,325581	273,486062	314,867606	0
15.01.2021	06:19:25	0	0	3,050585	2,72775	18,0792	-0,418	85,251	0	1011,22	6,1	8,2	8,1	1	1	1	1	1	1	1	1	1	0	1	-8,738548	273,55412	308,770494	0
15.01.2021	06:19:26	0	0	3,841478	2,7465	25,8012	-0,418	85,257	0	1011,2	6,1	8,2	8,1	1	1	1	1	1	1	1	1	1	0	1	-12,755462	273,510651	304,551815	0
15.01.2021	06:19:27	0	0	5,084339	2,68125	23,9724	-0,424	85,262	0	1011,16	6,2	8,2	8	1	1	1	1	1	1	1	1	1	0	1	-0,704722	273,393774	316,060535	0
15.01.2021	06:19:28	0	0	3,841501	2,547	23,2092	-0,426	85,244	0	1011,12	6,2	8,2	8	1	1	1	1	1	1	1	1	1	0	1	-0	273,431213	316,938803	0
15.01.2021	06:19:29	0	0	4,745383	2,40975	30,4344	-0,426	85,251	0	1011,22	6,1	8,2	8	1	1	1	1	1	1	1	1	1	0	1	-8,668076	273,516441	308,666071	0
15.01.2021	06:19:30	0	0	3,050603	2,31525	33,6456	-0,419	85,257	0	1011,24	6,2	8,2	8	1	1	1	1	1	1	1	1	1	0	1	-3,24172	273,39809	313,543541	0
15.01.2021	06:19:31	0	0	4,180456	2,22375	15,0372	-0,431	85,254	0	1011,12	6,2	8,1	8	1	1	1	1	1	1	1	1	1	0	1	-3,523608	273,465836	313,575757	0
15.01.2021	06:19:32	0	0	3,841501	2,196	17,7696	-0,432	85,261	0	1010,96	6,2	8,2	8	1	1	1	1	1	1	1	1	1	0	1	-2,889359	273,561374	314,653365	0
15.01.2021	06:19:33	0	0	4,067471	2,256	17,2152	-0,421	85,265	0	1011,16	6,2	8,2	8	1	1	1	1	1	1	1	1	1	0	1	-5,003524	273,529475	312,391117	0
15.01.2021	06:19:34	0	0	4,858368	2,31825	21,3948	-0,422	85,244	0	1011,26	6,2	8,2	8	1	1	1	1	1	1	1	1	1	0	1	-0,916138	273,385145	315,809127	0
15.01.2021	06:19:35	0	0	2,711647	2,49675	4,482	-0,428	85,256	0	1011,16	6,2	8,2	8	1	1	1	1	1	1	1	1	1	0	1	-2,748414	273,564277	314,807786	0
15.01.2021	06:19:36	0	0	4,519412	2,5905	7,1316	-0,422	85,251	0	1011,08	6,2	8,2	8	1	1	1	1	1	1	1	1	1	0	1	-8,597604	273,474502	308,541956	0
15.01.2021	06:19:37	0	0	4,293442	2,6835	4,4604	-0,422	85,264	0	1011,08	6,1	8,2	8	1	1	1	1	1	1	1	1	1	0	1	-2,043693	273,561374	315,499031	0
15.01.2021	06:19:38	0	0	4,293442	2,742	13,1544	-0,425	85,259	0	1011	6,2	8,2	8	1	1	1	1	1	1	1	1	1	0	1	-3,805497	273,494737	313,427937	0
15.01.2021	06:19:39	0	0	3,841501	2,60925	27,2808	-0,424	85,254	0	1011,2	6,2	8,2	8	1	1	1	1	1	1	1	1	1	0	1	-2,255109	273,548318	315,226999	0
15.01.2021	06:19:40	0	0	3,050603	2,4855	20,6424	-0,424	85,251	0	1011,02	6,2	8,2	8	1	1	1	1	1	1	1	1	1	0	1	-5,355884	273,548318	312,126224	0
15.01.2021	06:19:41	0	0	3,276574	2,37075	21,0024	-0,428	85,256	0	1011,14	6,2	8,2	8	1	1	1	1	1	1	1	1	1	0	1	-5,285412	273,447074	311,726938	0
15.01.2021	06:19:42	0	0	4,971354	2,41125	22,464	-0,429	85,259	0	1011,14	6,2	8,2	8	1	1	1	1	1	1	1	1	1	0	1	-1,338971	273,494737	315,894463	0
15.01.2021	06:19:43	0	0	4,632398	2,3235	15,0192	-0,424	85,263	0	1011,24	6,1	8,1	8	1	1	1	1	1	1	1	1	1	0	1	-0	273,385145	316,725265	0
15.01.2021	06:19:44	0	0	4,858368	2,24025	19,89	-0,427	85,243	0	1011,06	6,2	8,1	8	1	1	1	1	1	1	1	1	1	0	1	-2,536998	273,470169	314,582462	0
15.01.2021	06:19:45	0	0	4,180456	2,2665	13,1724	-0,425	85,263	0	1011,2	6,1	8,2	8	1	1	1	1	1	1	1	1	1	0	1	-3,030303	273,571535	314,5596	0
15.01.2021	06:19:46	0	0	3,389559	2,39175	14,2956	-0,427	85,265	0	1011,14	6,2	8,1	8	1	1	1	1	1	1	1	1	1	0	1	-3,030303	273,549768	314,458538	0
15.01.2021	06:19:47	0	0	4,293442	2,379	20,286	-0,427	85,246	0	1011,18	6,1	8,1	8	1	1	1	1	1	1	1	1	1	0	1	-0,211416	273,504863	317,069	0
15.01.2021	06:19:48	0	0	2,937618	2,337	10,8	-0,422	85,257	0	1011,02	6,1	8,2	8	1	1	1	1	1	1	1	1	1	0	1	-1,057082	273,570083	316,526079	0
15.01.2021	06:19:49	0	0	3,389539	2,442	12,474	-0,424	85,259	0	1011,24	6,2	8,2	8,1	1	1	1	1	1	1	1	1	1	0	1	-0,422833	273,406726	316,402451	0
15.01.2021	06:19:50	0	0	3,276574	2,49975	10,8216	-0,423	85,258	0	1011,1	6,2	8,2	8	1	1	1	1	1	1	1	1	1	0	1	-3,875969	273,390897	312,875955	0
15.01.2021	06:19:51	0	0	3,389559	2,41275	18,9216	-0,421	85,259	0	1011,12	6,1	8,2	8	1	1	1	1	1	1	1	1	1	0	1	-3,805497	273,470169	313,313963	0
15.01.2021	06:19:52	0	0	3,728515	2,4495	16,4952	-0,423	85,269	0	1011,12	6,1	8,2	8	1	1	1	1	1	1	1	1	1	0	1	-0	273,395213	316,771924	0
15.01.2021	06:19:53	0	0	3,841501	2,4615	3,4056	-0,423	85,259	0	1011,16	6,2	8,2	8	1	1	1	1	1	1	1	1	1	0	1	-7,258633	273,416805	309,613373	0
15.01.2021	06:19:54	0	0	2,033736	2,433	18,8388	-0,425	85,261	0	1011,06	6,2	8,2	8	1	1	1	1	1	1	1	1	1	0	1	-7,82241	273,455731	309,230088	0
15.01.2021	06:19:55	0	0	2,937618	2,33925	4,1004	-0,42	85,265	0	1011,12	6,1	8,2	8	1	1	1	1	1	1	1	1	1	0	1	-4,510218	273,406726	312,315066	0
15.01.2021	06:19:56	0	0	4,067471	2,26725	18,828	-0,424	85,247	0	1011,14	6,1	8,2	8	1	1	1	1	1	1	1	1	1	0	1	-5,567301	273,462949	311,51867	0
15.01.2021	06:19:57	0	0	3,389559	2,1135	13,5576	-0,419	85,272	0	1011,16	6,2	8,1	8	1	1	1	1	1	1	1	1	1	0	1	-4,298802	273,55412	313,21024	0
15.01.2021	06:19:58	0	0	4,293442	2,0295	12,5712	-0,428	85,265	0	1011,26	6,1	8,1	8	1	1	1	1	1	1	1	1	1	0	1	-5,355884	273,377957	311,336072	0
15.01.2021	06:19:59	0	0	2,598662	1,9695	3,4056	-0,423	85,241	0	1011,12	6,2	8,2	8	1	1	1	1	1	1	1	1	1	0	1	-2,889359	273,412484	313,96262	0
15.01.2021	06:20:00	0	0	4,745383	1,9755	4,8348	-0,425	85,263	0	1011,06	6,2	8,2	8	1	1	1	1	1	1	1	1	1	0	1	-8,386187	273,519337	308,961398	0
15.01.2021	06:20:01	0	0	4,745383	1,9755	4,8348	-0,425	85,263	0	1011,06	6,2	8,2	8	1	1	1	1	1	1	1	1	1	0	1	-8,386187	273,519337	308,961398	0
15.01.2021	06:20:02	0	0	2,598662	2,01375	15,0264	-0,427	85,261	0	1011,08	6,2	8,2	8	1	1	1	1	1	1	1	1	1	0	1	-3,805497	273,455731	313,247001	0
15.01.2021	06:20:03	0	0	4,293442	1,9125	8,2476	-0,423	85,271	0	1011,22	6,2	8,2	8	1	1	1	1	1	1	1	1	1	0	1	-5,285412	273,559923	312,250574	0
15.01.2021	06:20:04	0	0	4,406427	1,98825	21,024	-0,423	85,279	0	1011,14	6,2	8,1	8	1	1	1	1	1	1	1	1	1	0	1	-1,268499	273,475947	315,877762	0
15.01.2021	06:20:05	0	0	3,050603	2,06175	11,1924	-0,431	85,272	0	1011,1	6,1	8,2	8	1	1	1	1	1	1	1	1	1	0	1	-3,59408	273,418245	313,284603	0
15.01.2021	06:20:06	0	0	4,745383	2,214	13,9212	-0,421	85,265	0	1011,08	6,2	8,2	8	1	1	1	1	1	1	1	1	1	0	1	-8,315715	273,559923	309,220271	0
15.01.2021	06:20:07	0	0	3,728515	2,337	21,3876	-0,429	85,258	0	1011,06	6,2	8,2	8	1	1	1	1	1	1	1	1	1	0	1	-5,21494	273,56718	312,354739	0
15.01.2021	06:20:08	0	0	2,259706	2,5845	10,4328	-0,418	85,27	0	1011,1	6,2	8,2	8	1	1	1	1	1	1	1	1	1	0	1	-6,20155	273,405286	310,617062	0
15.01.2021	06:20:09	0	0	4,858368	2,8515	18,5472	-0,431	85,271	0	1011,08	6,1	8,2	8	1	1	1	1	1	1	1	1	1	0	1	-8,949965	273,449959	308,075766	0
15.01.2021	06:20:10	0	0	4,293442	3,0165	2,3076	-0,426	85,277	0	1011,08	6,2	8,1	8	1	1	1	1	1	1	1	1	1	0	1	-5,496829	273,552669	312,005479	0
15.01.2021	06:20:11	0	0	4,067471	3,09	12,8484	-0,424	85,264	0	1011,1	6,2	8,1	8	1	1	1	1	1	1	1	1	1	0	1	-4,510218	273,575891	313,099914	0
15.01.2021	06:20:12	0	0	5,197324	3,23925	16,0956	-0,425	85,251	0	1011,18	6,2	8,2	8	1	1	1	1	1	1	1	1	1	0	1	-4,298802	273,501969	312,968188	0
15.01.2021	06:20:13	0	0	4,519412	3,15825	15,3972	-0,426	85,278	0	1011,2	6,2	8,1	8	1	1	1	1	1	1	1	1	1	0	1	-5,919662	273,571535	311,670241	0
15.01.2021	06:20:14	0	0	4,180456	3,426	1,5588	-0,422	85,277	0	1011,18	6,2	8,2	8	1	1	1	1	1	1	1	1	1	0	1	-3,453136	273,475947	313,693125	0
15.01.2021	06:20:15	0	0	3,61553	3,5085	0,486	-0,428	85,281	0	1011,2	6,2	8,2	8	1	1	1	1	1	1	1	1	1	0	1	-4,933051	273,388021	311,805542	0
15.01.2021	06:20:16	0	0	3,502545	3,318	355,3452	-0,424	85,281	0	1011,1	6,2	8,2	8	1	1	1	1	1	1	1	1	1	0	1	-1,550388	273,403847	315,261553	0
15.01.2021	06:20:17	0	0	4,745383	2,90625	21,0276	-0,421	85,287	0	1011,14	6,2	8,2	8	1	1	1	1	1	1	1	1	1	0	1	-3,875969	273,517889	313,464897	0
15.01.2021	06:20:18	0	0	3,954486	2,691	14,2848	-0,426	85,27	0	1011,16	6,2	8,1	8	1	1	1	1	1	1	1	1	1	0	1	-0	273,42833	316,925439	0
15.01.2021	06:20:19	0	0	4,745383	2,679	15,3936	-0,425	85,272	0	1011	6,2	8,2	8	1	1	1	1	1	1	1	1	1	0	1	-2,255109	273,477391	314,897854	0
15.01.2021	06:20:20	0	0	2,711647	2,62875	19,9008	-0,423	85,282	0	1011,16	6,2	8,1	8	1	1	1	1	1	1	1	1	1	0	1	-6,976744	273,390897	309,77518	0
15.01.2021	06:20:21	0	0	3,050603	2,673	10,8036	-0,429	85,277	0	1011,02	6,2	8,1	8	1	1	1	1	1	1	1	1	1	0	1	-2,466526	273,42833	314,458913	0
15.01.2021	06:20:22	0	0	4,632398	2,65875	9,3816	-0,423	85,273	0	1011,08	6,2	8,1	8	1	1	1	1	1	1	1	1	1	0	1	-6,8358	273,513546	310,484911	0
15.01.2021	06:20:23	0	0	3,61553	2,60175	15,7896	-0,423	85,281	0	1011,12	6,2	8,2	8	1	1	1	1	1	1	1	1	1	0	1	-4,933051	273,412484	311,918927	0
15.01.2021	06:20:24	0	0	2,824633	2,76075	11,718	-0,423	85,28	0	1011,18	6,2	8,2	8	1	1	1	1	1	1	1	1	1	0	1	-5,637773	273,546868	311,837603	0
15.01.2021	06:20:25	0	0	4,632398	2,94525	19,5264	-0,424	85,289	0	1011,2	6,2	8,2	8	1	1	1	1	1	1	1	1	1	0	1	-0,845666	273,535271	316,575876	0
15.01.2021	06:20:26	0	0	3,728515	2,87475	15,786	-0,43	85,292	0	1011,04	6,2	8,2	8	1	1	1	1	1	1	1	1	1	0	1	-8,315715	273,517889	309,025151	0
15.01.2021	06:20:27	0	0	3,502545	2,961	12,8412	-0,428	85,287	0	1011,08	6,2	8,2	8	1	1	1	1	1	1	1	1	1	0	1	-5,355884	273,383707	311,362718	0
15.01.2021	06:20:28	0	0	4,632398	3,08325	6,8256	-0,428	85,293	0	1011,2	6,2	8,1	8	1	1	1	1	1	1	1	1	1	0	1	-6,624383	273,480281	310,541986	0
15.01.2021	06:20:29	0	0	4,971354	3,078	13,9284	-0,426	85,287	0	1011,22	6,2	8,2	8	1	1	1	1	1	1	1	1	1	0	1	-0	273,399529	316,791929	0
15.01.2021	06:20:30	0	0	4,858368	2,94	19,8972	-0,432	85,284	0	1011,12	6,1	8,2	8	1	1	1	1	1	1	1	1	1	0	1	-2,466526	273,522233	314,894501	0
15.01.2021	06:20:31	0	0	4,519412	2,8935	23,5908	-0,427	85,29	0	1011,18	6,2	8,1	8	1	1	1	1	1	1	1	1	1	0	1	-6,483439	273,429772	310,448682	0
15.01.2021	06:20:32	0	0	4,067471	2,92875	19,1412	-0,424	85,288	0	1011,26	6,2	8,1	8	1	1	1	1	1	1	1	1	1	0	1	-1,973221	273,548318	315,508887	0
15.01.2021	06:20:33	0	0	4,519412	2,9805	23,5836	-0,428	85,293	0	1011,14	6,2	8,1	8	1	1	1	1	1	1	1	1	1	0	1	-5,84919	273,460061	311,223391	0
15.01.2021	06:20:34	0	0	3,954486	2,9565	15,498	-0,422	85,281	0	1011,06	6,2	8,2	8	1	1	1	1	1	1	1	1	1	0	1	-4,298802	273,390897	312,453122	0
15.01.2021	06:20:35	0	0	4,180456	2,87775	19,1628	-0,423	85,294	0	1011,14	6,2	8,1	8	1	1	1	1	1	1	1	1	1	0	1	-3,59408	273,478836	313,565586	0
15.01.2021	06:20:36	0	0	3,954486	2,679	20,628	-0,427	85,282	0	1010,98	6,2	8,2	8	1	1	1	1	1	1	1	1	1	0	1	-0	273,396652	316,778592	0
15.01.2021	06:20:37	0	0	2,372692	2,56575	16,4808	-0,425	85,296	0	1011,16	6,2	8,2	8	1	1	1	1	1	1	1	1	1	0	1	-6,906272	273,539619	310,535453	0
15.01.2021	06:20:38	0	0	3,61553	2,4975	21,3876	-0,424	85,309	0	1011,18	6,2	8,1	8	1	1	1	1	1	1	1	1	1	0	1	-4,580691	273,406726	312,244593	0
15.01.2021	06:20:39	0	0	2,937618	2,352	15,408	-0,424	85,294	0	1011,14	6,2	8,1	8	1	1	1	1	1	1	1	1	1	0	1	-0	273,399529	316,791929	0
15.01.2021	06:20:40	0	0	3,050603	2,21775	16,8588	-0,425	85,279	0	1011,2	6,2	8,1	8	1	1	1	1	1	1	1	1	1	0	1	-6,765328	273,548318	310,71678	0
15.01.2021	06:20:41	0	0	3,163589	2,2815	15,7896	-0,424	85,302	0	1011,18	6,2	8,2	8	1	1	1	1	1	1	1	1	1	0	1	-7,610994	273,528027	309,776923	0
15.01.2021	06:20:42	0	0	4,180456	2,30025	15,7968	-0,423	85,293	0	1011,12	6,2	8,1	8	1	1	1	1	1	1	1	1	1	0	1	-3,453136	273,500522	313,807141	0
15.01.2021	06:20:43	0	0	4,745383	2,49075	8,262	-0,423	85,295	0	1011,08	6,2	8,1	8	1	1	1	1	1	1	1	1	1	0	1	-2,325581	273,570083	315,25758	0
15.01.2021	06:20:44	0	0	3,163589	2,61	10,8252	-0,422	85,296	0	1011,22	6,2	8,1	8	1	1	1	1	1	1	1	1	1	0	1	-5,355884	273,517889	311,984981	0
15.01.2021	06:20:45	0	0	4,858368	2,57625	19,1556	-0,426	85,295	0	1011,12	6,1	8,2	8	1	1	1	1	1	1	1	1	1	0	1	-6,272023	273,50631	311,015108	0
15.01.2021	06:20:46	0	0	4,745383	2,61525	12,1932	-0,429	85,301	0	1011,24	6,2	8,1	8	1	1	1	1	1	1	1	1	1	0	1	-3,100775	273,552669	314,401532	0
15.01.2021	06:20:47	0	0	2,259706	2,69775	19,908	-0,42	85,302	0	1011,24	6,1	8,2	8	1	1	1	1	1	1	1	1	1	0	1	-8,738548	273,445632	308,267113	0
15.01.2021	06:20:48	0	0	2,598662	2,87175	18,0864	-0,423	85,312	0	1011,24	6,1	8,1	8	1	1	1	1	1	1	1	1	1	0	1	-4,369274	273,581701	313,267839	0
15.01.2021	06:20:49	0	0	3,841501	2,91075	27,666	-0,423	85,295	0	1011,22	6,1	8,2	8	1	1	1	1	1	1	1	1	1	0	1	-3,664553	273,473057	313,468307	0
15.01.2021	06:20:50	0	0	3,728515	2,84475	21,7764	-0,429	85,302	0	1011,24	6,2	8,1	8	1	1	1	1	1	1	1	1	1	0	1	-7,258633	273,388021	309,479961	0
15.01.2021	06:20:51	0	0	4,632398	2,64825	21,78	-0,425	85,285	0	1010,98	6,1	8,1	8	1	1	1	1	1	1	1	1	1	0	1	-2,818887	273,548318	314,663221	0
15.01.2021	06:20:52	0	0	3,61553	2,616	14,652	-0,425	85,302	0	1011,18	6,2	8,2	8	1	1	1	1	1	1	1	1	1	0	1	-3,171247	273,390897	313,580676	0
15.01.2021	06:20:53	0	0	5,31031	2,4525	17,6904	-0,425	85,281	0	1011,08	6,2	8,2	8	1	1	1	1	1	1	1	1	1	0	1	-3,805497	273,541069	313,642957	0
15.01.2021	06:20:54	0	0	4,971354	2,295	8,9964	-0,429	85,288	0	1011,32	6,2	8,2	8	1	1	1	1	1	1	1	1	1	0	1	-3,946441	273,425448	312,965636	0
15.01.2021	06:20:55	0	0	2,824633	2,20275	7,8912	-0,424	85,286	0	1011,1	6,2	8,1	8	1	1	1	1	1	1	1	1	1	0	1	-3,030303	273,377957	313,661653	0
15.01.2021	06:20:56	0	0	4,971354	2,12325	4,8528	-0,424	85,281	0	1011,14	6,2	8,1	8	1	1	1	1	1	1	1	1	1	0	1	-3,312192	273,46728	313,793871	0
15.01.2021	06:20:57	0	0	2,937618	2,103	0,1944	-0,42	85,29	0	1011,12	6,1	8,2	8	1	1	1	1	1	1	1	1	1	0	1	-4,298802	273,389459	312,446456	0
15.01.2021	06:20:58	0	0	3,502545	2,112	0,8712	-0,428	85,284	0	1011,1	6,2	8,2	8	1	1	1	1	1	1	1	1	1	0	1	-4,933051	273,422567	311,965666	0
15.01.2021	06:20:59	0	0	3,841501	2,0925	13,1832	-0,424	85,294	0	1011,02	6,2	8,1	8	1	1	1	1	1	1	1	1	1	0	1	-4,298802	273,517889	313,042064	0
15.01.2021	06:21:00	0	0	3,389559	2,32275	8,2584	-0,426	85,284	0	1011,14	6,2	8,1	8	1	1	1	1	1	1	1	1	1	0	1	-2,677942	273,562825	314,871519	0
15.01.2021	06:21:01	0	0	3,389559	2,32275	8,2584	-0,426	85,284	0	1011,14	6,2	8,1	8	1	1	1	1	1	1	1	1	1	0	1	-2,677942	273,562825	314,871519	0
15.01.2021	06:21:02	0	0	4,067471	2,328	19,1484	-0,428	85,278	0	1011,12	6,1	8,2	8	1	1	1	1	1	1	1	1	1	0	1	-3,171247	273,486062	314,02194	0
15.01.2021	06:21:03	0	0	2,711647	2,1165	10,818	-0,423	85,275	0	1011,14	6,2	8,1	8	1	1	1	1	1	1	1	1	1	0	1	-2,325581	273,390897	314,426342	0
15.01.2021	06:21:04	0	0	4,406427	2,02275	26,6184	-0,425	85,291	0	1011,08	6,2	8,2	8	1	1	1	1	1	1	1	1	1	0	1	-5,778717	273,50631	311,508413	0
15.01.2021	06:21:05	0	0	4,067471	1,9935	11,7144	-0,428	85,285	0	1011,1	6,2	8,1	8	1	1	1	1	1	1	1	1	1	0	1	-2,466526	273,548318	315,015582	0
15.01.2021	06:21:06	0	0	4,745383	2,163	15,4008	-0,428	85,283	0	1011,12	6,2	8,1	8	1	1	1	1	1	1	1	1	1	0	1	-3,100775	273,507757	314,19307	0
15.01.2021	06:21:07	0	0	2,937618	2,4165	11,7144	-0,424	85,276	0	1011,16	6,2	8,2	8	1	1	1	1	1	1	1	1	1	0	1	-4,22833	273,565728	313,33461	0
15.01.2021	06:21:08	0	0	5,084339	2,64825	18,4572	-0,423	85,284	0	1011,12	6,2	8,1	8	1	1	1	1	1	1	1	1	1	0	1	-5,567301	273,395213	311,204623	0
15.01.2021	06:21:09	0	0	4,519412	2,67525	359,118	-0,423	85,274	0	1011,1	6,2	8,1	8	1	1	1	1	1	1	1	1	1	0	1	-8,174771	273,514993	309,152657	0
15.01.2021	06:21:10	0	0	3,276574	2,61375	9,7416	-0,424	85,273	0	1011,14	6,2	8,1	8	1	1	1	1	1	1	1	1	1	0	1	-6,976744	273,543968	310,48517	0
15.01.2021	06:21:11	0	0	3,841501	2,61525	12,0888	-0,427	85,297	0	1011,3	6,2	8,1	8	1	1	1	1	1	1	1	1	1	0	1	-1,62086	273,403847	315,191081	0
15.01.2021	06:21:12	0	0	2,824633	2,56875	22,8276	-0,425	85,292	0	1011,2	6,2	8,2	8	1	1	1	1	1	1	1	1	1	0	1	-4,792107	273,509204	312,508453	0
15.01.2021	06:21:13	0	0	3,050603	2,5635	19,9008	-0,42	85,294	0	1011,26	6,2	8,2	8	1	1	1	1	1	1	1	1	1	0	1	-5,778717	273,373645	310,89326	0
15.01.2021	06:21:14	0	0	2,937618	2,64	20,6244	-0,423	85,296	0	1011,18	6,2	8,2	8	1	1	1	1	1	1	1	1	1	0	1	-2,114165	273,444189	314,884808	0
15.01.2021	06:21:15	0	0	4,632398	2,66325	25,4268	-0,434	85,29	0	1011,16	6,2	8,1	8	1	1	1	1	1	1	1	1	1	0	1	-4,933051	273,396652	311,84554	0
15.01.2021	06:21:16	0	0	4,632398	2,61825	25,4124	-0,43	85,275	0	1011,08	6,2	8,1	8	1	1	1	1	1	1	1	1	1	0	1	-9,231853	273,520785	308,122452	0
15.01.2021	06:21:17	0	0	4,858368	2,589	26,9028	-0,429	85,295	0	1011,14	6,1	8,2	8	1	1	1	1	1	1	1	1	1	0	1	-6,976744	273,435537	309,98211	0
15.01.2021	06:21:18	0	0	4,632398	2,40075	19,8936	-0,429	85,294	0	1011,14	6,2	8,1	8	1	1	1	1	1	1	1	1	1	0	1	-4,087385	273,570083	313,495776	0
15.01.2021	06:21:19	0	0	2,937618	2,39325	13,1688	-0,429	85,298	0	1011,04	6,2	8,2	8	1	1	1	1	1	1	1	1	1	0	1	-1,902748	273,481726	315,270324	0
15.01.2021	06:21:20	0	0	4,632398	2,36175	13,5612	-0,428	85,288	0	1011,18	6,2	8,1	8	1	1	1	1	1	1	1	1	1	0	1	-6,624383	273,568631	310,952037	0
15.01.2021	06:21:21	0	0	4,519412	2,331	17,694	-0,423	85,296	0	1011,14	6,2	8,1	8	1	1	1	1	1	1	1	1	1	0	1	-4,510218	273,431213	312,428585	0
15.01.2021	06:21:22	0	0	4,858368	2,3745	13,2552	-0,43	85,296	0	1011,14	6,2	8,2	8	1	1	1	1	1	1	1	1	1	0	1	-1,832276	273,504863	315,44814	0
15.01.2021	06:21:23	0	0	4,632398	2,43375	12,4632	-0,421	85,291	0	1010,96	6,1	8,2	8	1	1	1	1	1	1	1	1	1	0	1	-4,298802	273,389459	312,446456	0
15.01.2021	06:21:24	0	0	4,067471	2,50725	9,378	-0,423	85,307	0	1011,16	6,2	8,2	8	1	1	1	1	1	1	1	1	1	0	1	-7,258633	273,571535	310,33127	0
15.01.2021	06:21:25	0	0	3,728515	2,75625	12,8736	-0,428	85,297	0	1011,08	6,2	8,2	8	1	1	1	1	1	1	1	1	1	0	1	-7,540521	273,413924	309,318132	0
15.01.2021	06:21:26	0	0	4,519412	2,95275	6,4332	-0,423	85,296	0	1011,14	6,2	8,2	8	1	1	1	1	1	1	1	1	1	0	1	-4,651163	273,491845	312,568854	0
15.01.2021	06:21:27	0	0	2,598662	3,0105	23,2164	-0,424	85,304	0	1011,24	6,2	8,2	8	1	1	1	1	1	1	1	1	1	0	1	-4,721635	273,377957	311,970321	0
15.01.2021	06:21:28	0	0	3,841501	3,06825	17,2476	-0,424	85,313	0	1011,18	6,2	8,1	8	1	1	1	1	1	1	1	1	1	0	1	-4,651163	273,452845	312,387951	0
15.01.2021	06:21:29	0	0	3,050603	3,01425	19,908	-0,426	85,301	0	1011,14	6,2	8,1	8	1	1	1	1	1	1	1	1	1	0	1	-3,664553	273,565728	313,898387	0
15.01.2021	06:21:30	0	0	3,389559	3,02475	19,6092	-0,425	85,303	0	1011,16	6,2	8,1	8	1	1	1	1	1	1	1	1	1	0	1	-0,211416	273,402407	316,593853	0
15.01.2021	06:21:31	0	0	4,293442	3,04125	1,9116	-0,424	85,304	0	1011,18	6,1	8,2	8	1	1	1	1	1	1	1	1	1	0	1	-0	273,431213	316,938803	0
15.01.2021	06:21:32	0	0	2,937618	3,01725	15,0228	-0,424	85,309	0	1011,2	6,2	8,2	8	1	1	1	1	1	1	1	1	1	0	1	-5,708245	273,558472	311,821004	0
15.01.2021	06:21:33	0	0	3,276574	2,997	0,8676	-0,428	85,279	0	1011,12	6,2	8,1	8	1	1	1	1	1	1	1	1	1	0	1	-2,959831	273,519337	314,387755	0
15.01.2021	06:21:34	0	0	2,937618	2,8905	2,3004	-0,427	85,303	0	1011,16	6,2	8,2	8	1	1	1	1	1	1	1	1	1	0	1	-5,567301	273,415365	311,298029	0
15.01.2021	06:21:35	0	0	3,050603	2,919	11,7072	-0,42	85,305	0	1011,28	6,2	8,2	8	1	1	1	1	1	1	1	1	1	0	1	-2,396054	273,385145	314,329212	0
15.01.2021	06:21:36	0	0	4,406427	2,877	5,688	-0,424	85,302	0	1011,08	6,2	8,2	8	1	1	1	1	1	1	1	1	1	0	1	-5,355884	273,522233	312,005142	0
15.01.2021	06:21:37	0	0	4,519412	2,895	1,2744	-0,427	85,298	0	1011,14	6,2	8,2	8	1	1	1	1	1	1	1	1	1	0	1	-7,82241	273,523681	309,545338	0
15.01.2021	06:21:38	0	0	4,067471	2,86875	360	-0,424	85,307	0	1011,18	6,2	8,1	8	1	1	1	1	1	1	1	1	1	0	1	-7,117689	273,575891	310,492444	0
15.01.2021	06:21:39	0	0	3,050603	2,83575	11,1924	-0,421	85,311	0	1011,18	6,2	8,1	8	1	1	1	1	1	1	1	1	1	0	1	-3,100775	273,457175	313,958416	0
15.01.2021	06:21:40	0	0	3,050603	2,7195	19,5408	-0,421	85,306	0	1011,24	6,1	8,1	8	1	1	1	1	1	1	1	1	1	0	1	-3,59408	273,383707	313,124522	0
15.01.2021	06:21:41	0	0	2,711647	2,74425	9,7416	-0,438	85,28	0	1011	6,2	8,1	8	1	1	1	1	1	1	1	1	1	0	1	-3,100775	273,474502	314,038785	0
15.01.2021	06:21:42	0	0	2,372692	2,67675	21,3876	-0,42	85,307	0	1011,1	6,2	8,1	8	1	1	1	1	1	1	1	1	1	0	1	-3,453136	273,424007	313,452261	0
15.01.2021	06:21:43	0	0	4,632398	2,4885	19,1448	-0,429	85,298	0	1011,34	6,2	8,2	8	1	1	1	1	1	1	1	1	1	0	1	-9,020437	273,56718	308,549243	0
15.01.2021	06:21:44	0	0	4,180456	2,379	18,8352	-0,428	85,301	0	1011,18	6,1	8,1	8	1	1	1	1	1	1	1	1	1	0	1	-3,664553	273,503416	313,60915	0
15.01.2021	06:21:45	0	0	3,728515	2,36325	18,0828	-0,432	85,298	0	1011,02	6,2	8,1	8	1	1	1	1	1	1	1	1	1	0	1	-1,902748	273,562825	315,646713	0
15.01.2021	06:21:46	0	0	3,389559	2,391	21,0168	-0,428	85,295	0	1011,16	6,2	8,1	8	1	1	1	1	1	1	1	1	1	0	1	-6,906272	273,488953	310,300329	0
15.01.2021	06:21:47	0	0	5,197324	2,36175	37,3284	-0,429	85,298	0	1011,08	6,2	8,1	8	1	1	1	1	1	1	1	1	1	0	1	-5,073996	273,562825	312,475466	0
15.01.2021	06:21:48	0	0	4,180456	2,3595	17,7696	-0,428	85,295	0	1011,24	6,2	8,2	8	1	1	1	1	1	1	1	1	1	0	1	-8,033827	273,500522	309,226451	0
15.01.2021	06:21:49	0	0	2,711647	2,38425	19,1448	-0,426	85,311	0	1011,2	6,2	8,2	8	1	1	1	1	1	1	1	1	1	0	1	-2,60747	273,564277	314,94873	0
15.01.2021	06:21:50	0	0	3,502545	2,40825	21,3768	-0,422	85,307	0	1011,06	6,2	8,1	8	1	1	1	1	1	1	1	1	1	0	1	-1,761804	273,52513	315,612666	0
15.01.2021	06:21:51	0	0	3,841501	2,559	18,0756	-0,428	85,31	0	1011,16	6,2	8,1	8	1	1	1	1	1	1	1	1	1	0	1	-2,466526	273,386583	314,265403	0
15.01.2021	06:21:52	0	0	3,050603	2,43225	19,62	-0,417	85,298	0	1011,16	6,2	8,1	8	1	1	1	1	1	1	1	1	1	0	1	-3,030303	273,412484	313,821676	0
15.01.2021	06:21:53	0	0	4,293442	2,31075	29,1132	-0,421	85,292	0	1011,22	6,1	8,2	8	1	1	1	1	1	1	1	1	1	0	1	-1,479915	273,418245	315,398768	0
15.01.2021	06:21:54	0	0	3,163589	2,256	11,7252	-0,423	85,304	0	1011,18	6,2	8,1	8	1	1	1	1	1	1	1	1	1	0	1	-6,483439	273,411045	310,361865	0
15.01.2021	06:21:55	0	0	4,519412	2,3145	25,0416	-0,425	85,336	0	1011,54	6,2	8,2	8	1	1	1	1	1	1	1	1	1	0	1	-5,778717	273,403847	311,033223	0
15.01.2021	06:21:56	0	0	3,502545	2,2785	15,4116	-0,427	85,309	0	1011,14	6,2	8,1	8	1	1	1	1	1	1	1	1	1	0	1	-5,496829	273,377957	311,195127	0
15.01.2021	06:21:57	0	0	2,937618	2,3805	13,5468	-0,426	85,297	0	1011,14	6,2	8,2	8	1	1	1	1	1	1	1	1	1	0	1	-0,98661	273,484617	316,199872	0
15.01.2021	06:21:58	0	0	3,276574	2,5875	21,7764	-0,425	85,304	0	1011,18	6,2	8,2	8	1	1	1	1	1	1	1	1	1	0	1	-0,281889	273,380832	316,423389	0
15.01.2021	06:21:59	0	0	4,971354	2,65425	8,28	-0,423	85,298	0	1011,16	6,2	8,1	8	1	1	1	1	1	1	1	1	1	0	1	-3,24172	273,483172	313,938058	0
15.01.2021	06:22:00	0	0	5,423295	2,4765	14,6592	-0,425	85,296	0	1011,2	6,1	8,1	8	1	1	1	1	1	1	1	1	1	0	1	-3,453136	273,490399	313,760172	0
15.01.2021	06:22:01	0	0	5,423295	2,4765	14,6592	-0,425	85,296	0	1011,2	6,1	8,1	8	1	1	1	1	1	1	1	1	1	0	1	-3,453136	273,490399	313,760172	0
15.01.2021	06:22:02	0	0	3,954486	2,35125	36,9432	-0,427	85,307	0	1011,14	6,2	8,1	8	1	1	1	1	1	1	1	1	1	0	1	-2,60747	273,377957	314,084486	0
15.01.2021	06:22:03	0	0	4,406427	2,23575	18,0756	-0,425	85,308	0	1011,16	6,2	8,1	8	1	1	1	1	1	1	1	1	1	0	1	-6,483439	273,568631	311,092981	0
15.01.2021	06:22:04	0	0	5,084339	2,27775	23,5872	-0,419	85,304	0	1011,26	6,2	8,1	8	1	1	1	1	1	1	1	1	1	0	1	-6,20155	273,487508	310,998344	0
15.01.2021	06:22:05	0	0	4,180456	2,51325	8,2728	-0,428	85,31	0	1011,18	6,2	8,1	8	1	1	1	1	1	1	1	1	1	0	1	-2,677942	273,545418	314,790702	0
15.01.2021	06:22:06	0	0	4,858368	2,7405	17,3268	-0,423	85,315	0	1011	6,1	8,1	8	1	1	1	1	1	1	1	1	1	0	1	-3,735025	273,462949	313,350947	0
15.01.2021	06:22:07	0	0	4,858368	2,86125	14,652	-0,404	85,328	0	1011,32	6,2	8,1	8	1	1	1	1	1	1	1	1	1	0	1	-0,563777	273,37652	316,121519	0
15.01.2021	06:22:08	0	0	4,745383	2,9055	16,1028	-0,427	85,296	0	1011,08	6,2	8,1	8	1	1	1	1	1	1	1	1	1	0	1	-1,268499	273,447074	315,743852	0
15.01.2021	06:22:09	0	0	4,406427	3,0345	9,7596	-0,422	85,307	0	1011,22	6,2	8,1	8	1	1	1	1	1	1	1	1	1	0	1	-8,315715	273,385145	308,40955	0
15.01.2021	06:22:10	0	0	5,084339	3,31125	9,8388	-0,429	85,299	0	1011,18	6,2	8,1	8	1	1	1	1	1	1	1	1	1	0	1	-3,735025	273,490399	313,478284	0
15.01.2021	06:22:11	0	0	3,163589	3,3765	9,0072	-0,425	85,311	0	1011,22	6,2	8,1	8	1	1	1	1	1	1	1	1	1	0	1	-5,919662	273,55557	311,596115	0
15.01.2021	06:22:12	0	0	2,598662	3,4515	10,458	-0,422	85,316	0	1011,2	6,2	8,1	8	1	1	1	1	1	1	1	1	1	0	1	-2,959831	273,432654	313,985656	0
15.01.2021	06:22:13	0	0	2,711647	3,55425	8,9928	-0,422	85,3	0	1011,2	6,2	8,2	8	1	1	1	1	1	1	1	1	1	0	1	-1,479915	273,405286	315,338697	0
15.01.2021	06:22:14	0	0	4,519412	3,669	15,4188	-0,424	85,316	0	1011,28	6,2	8,1	8	1	1	1	1	1	1	1	1	1	0	1	-0	273,389459	316,745258	0
15.01.2021	06:22:15	0	0	3,728515	3,48825	13,1796	-0,421	85,32	0	1011,12	6,2	8,1	8	1	1	1	1	1	1	1	1	1	0	1	-6,8358	273,549768	310,653041	0
15.01.2021	06:22:16	0	0	5,197324	3,24075	22,8312	-0,426	85,309	0	1011,1	6,2	8,1	8	1	1	1	1	1	1	1	1	1	0	1	-4,087385	273,541069	313,361069	0
15.01.2021	06:22:17	0	0	3,276574	3,04125	16,866	-0,422	85,318	0	1011,26	6,2	8,1	8	1	1	1	1	1	1	1	1	1	0	1	-4,510218	273,512098	312,803775	0
15.01.2021	06:22:18	0	0	3,728515	2,8755	21,1032	-0,426	85,318	0	1011,22	6,1	8,2	8	1	1	1	1	1	1	1	1	1	0	1	-4,298802	273,578796	313,324819	0
15.01.2021	06:22:19	0	0	4,293442	2,7615	20,2824	-0,422	85,319	0	1011,08	6,2	8,1	8	1	1	1	1	1	1	1	1	1	0	1	-4,157858	273,483172	313,02192	0
15.01.2021	06:22:20	0	0	4,971354	2,69025	26,532	-0,424	85,314	0	1011,2	6,2	8,1	8	1	1	1	1	1	1	1	1	1	0	1	-3,523608	273,383707	313,194994	0
15.01.2021	06:22:21	0	0	3,61553	2,56575	18,45	-0,426	85,311	0	1011,1	6,2	8,1	8	1	1	1	1	1	1	1	1	1	0	1	-4,298802	273,509204	313,001759	0
15.01.2021	06:22:22	0	0	4,067471	2,66025	24,7068	-0,424	85,313	0	1011,28	6,2	8,1	8	1	1	1	1	1	1	1	1	1	0	1	-4,721635	273,570083	312,861526	0
15.01.2021	06:22:23	0	0	4,745383	2,51025	21,384	-0,432	85,321	0	1011,14	6,2	8,1	8	1	1	1	1	1	1	1	1	1	0	1	-5,21494	273,429772	311,717181	0
15.01.2021	06:22:24	0	0	4,519412	2,43075	33,9552	-0,43	85,315	0	1011,04	6,2	8,1	8	1	1	1	1	1	1	1	1	1	0	1	-4,651163	273,389459	312,094095	0
15.01.2021	06:22:25	0	0	4,293442	2,49375	21,7512	-0,424	85,323	0	1011,18	6,2	8,1	8	1	1	1	1	1	1	1	1	1	0	1	-5,285412	273,564277	312,270788	0
15.01.2021	06:22:26	0	0	3,728515	2,583	22,464	-0,427	85,318	0	1011,2	6,2	8,1	8	1	1	1	1	1	1	1	1	1	0	1	-5,84919	273,399529	310,94274	0
15.01.2021	06:22:27	0	0	4,406427	2,586	35,0712	-0,427	85,306	0	1011,16	6,2	8,1	8	1	1	1	1	1	1	1	1	1	0	1	-5,073996	273,535271	312,347547	0
15.01.2021	06:22:28	0	0	2,711647	2,37375	25,0308	-0,42	85,31	0	1011,1	6,2	8,2	8	1	1	1	1	1	1	1	1	1	0	1	-5,426357	273,454288	311,619449	0
15.01.2021	06:22:29	0	0	4,632398	2,26875	24,3576	-0,425	85,311	0	1011,12	6,2	8,1	8	1	1	1	1	1	1	1	1	1	0	1	-4,721635	273,379394	311,976982	0
15.01.2021	06:22:30	0	0	4,406427	2,127	23,6016	-0,427	85,299	0	1011,1	6,1	8,1	8	1	1	1	1	1	1	1	1	1	0	1	-4,721635	273,447074	312,290716	0
15.01.2021	06:22:31	0	0	2,937618	2,13525	12,87	-0,428	85,299	0	1011,16	6,2	8,1	8	1	1	1	1	1	1	1	1	1	0	1	-7,399577	273,389459	309,345681	0
15.01.2021	06:22:32	0	0	4,858368	2,22	16,4952	-0,425	85,32	0	1011,18	6,2	8,1	8	1	1	1	1	1	1	1	1	1	0	1	-3,312192	273,512098	314,001802	0
15.01.2021	06:22:33	0	0	3,389559	2,22	15,804	-0,427	85,299	0	1011,08	6,2	8,1	8	1	1	1	1	1	1	1	1	1	0	1	-4,439746	273,532373	312,968344	0
15.01.2021	06:22:34	0	0	3,841501	2,22525	20,6352	-0,426	85,317	0	1011,24	6,2	8,1	8	1	1	1	1	1	1	1	1	1	0	1	-6,906272	273,559923	310,629714	0
15.01.2021	06:22:35	0	0	3,728515	2,21775	358,7616	-0,424	85,317	0	1011,26	6,2	8,1	8	1	1	1	1	1	1	1	1	1	0	1	-0,704722	273,452845	316,334392	0
15.01.2021	06:22:36	0	0	2,937618	2,25525	6,822	-0,432	85,308	0	1011,2	6,2	8,1	8	1	1	1	1	1	1	1	1	1	0	1	-3,735025	273,557021	313,787488	0
15.01.2021	06:22:37	0	0	3,163589	2,27025	17,2296	-0,433	85,307	0	1010,94	6,2	8,1	8	1	1	1	1	1	1	1	1	1	0	1	-3,382664	273,458618	313,683222	0
15.01.2021	06:22:38	0	0	3,163589	2,17125	10,4364	-0,428	85,31	0	1011,12	6,2	8,1	8	1	1	1	1	1	1	1	1	1	0	1	-2,818887	273,385145	313,906379	0
15.01.2021	06:22:39	0	0	3,276574	2,10075	1,926	-0,426	85,301	0	1011,04	6,2	8,1	8	1	1	1	1	1	1	1	1	1	0	1	-0	273,399529	316,791929	0
15.01.2021	06:22:40	0	0	4,745383	2,00025	16,092	-0,428	85,317	0	1011,14	6,2	8,1	8	1	1	1	1	1	1	1	1	1	0	1	-1,127555	273,46728	315,978508	0
15.01.2021	06:22:41	0	0	4,632398	1,842	16,092	-0,425	85,314	0	1011,22	6,2	8,1	8	1	1	1	1	1	1	1	1	1	0	1	-4,651163	273,52513	312,723308	0
15.01.2021	06:22:42	0	0	4,745383	1,70325	20,628	-0,422	85,329	0	1011,24	6,2	8,1	8	1	1	1	1	1	1	1	1	1	0	1	-5,990134	273,562825	311,559328	0
15.01.2021	06:22:43	0	0	4,632398	1,65825	8,604	-0,428	85,316	0	1011,2	6,2	8,1	8	1	1	1	1	1	1	1	1	1	0	1	-5,778717	273,542518	311,676466	0
15.01.2021	06:22:44	0	0	2,598662	1,641	23,5872	-0,427	85,307	0	1011,2	6,2	8,1	8	1	1	1	1	1	1	1	1	1	0	1	-7,329105	273,564277	310,227095	0
15.01.2021	06:22:45	0	0	4,745383	1,5825	10,1628	-0,425	85,319	0	1011,18	6,2	8,1	8	1	1	1	1	1	1	1	1	1	0	1	-0,775194	273,474502	316,364366	0
15.01.2021	06:22:46	0	0	4,519412	1,61925	18,8352	-0,434	85,319	0	1011,02	6,2	8,2	8	1	1	1	1	1	1	1	1	1	0	1	-2,114165	273,55557	315,401612	0
15.01.2021	06:22:47	0	0	4,406427	1,69725	6,444	-0,427	85,296	0	1011,2	6,2	8,1	8	1	1	1	1	1	1	1	1	1	0	1	-4,792107	273,465836	312,307258	0
15.01.2021	06:22:48	0	0	2,824633	1,83375	17,7048	-0,425	85,3	0	1011,16	6,1	8,1	8	1	1	1	1	1	1	1	1	1	0	1	-2,536998	273,549768	314,951843	0
15.01.2021	06:22:49	0	0	4,858368	1,8645	3,0348	-0,427	85,316	0	1011,12	6,2	8,1	8	1	1	1	1	1	1	1	1	1	0	1	-2,889359	273,432654	314,056128	0
15.01.2021	06:22:50	0	0	3,050603	2,06475	15,03	-0,424	85,323	0	1011,24	6,2	8,1	8	1	1	1	1	1	1	1	1	1	0	1	-0	273,562825	317,549461	0
15.01.2021	06:22:51	0	0	4,971354	2,26425	17,2476	-0,428	85,309	0	1011,14	6,2	8,1	8	1	1	1	1	1	1	1	1	1	0	1	-0,281889	273,429772	316,650232	0
15.01.2021	06:22:52	0	0	2,598662	2,37525	8,7012	-0,422	85,349	0	1011,5	6,2	8,1	8	1	1	1	1	1	1	1	1	1	0	1	-6,624383	273,512098	310,68961	0
15.01.2021	06:22:53	0	0	4,519412	2,40825	14,6484	-0,428	85,312	0	1011,18	6,2	8,1	8	1	1	1	1	1	1	1	1	1	0	1	-6,20155	273,52513	311,17292	0
15.01.2021	06:22:54	0	0	4,406427	2,55075	20,3004	-0,425	85,327	0	1011,24	6,2	8,1	8	1	1	1	1	1	1	1	1	1	0	1	-0,98661	273,499076	316,266955	0
15.01.2021	06:22:55	0	0	5,084339	2,5935	16,8552	-0,427	85,333	0	1011,22	6,2	8,1	8	1	1	1	1	1	1	1	1	1	0	1	-4,369274	273,545418	313,099371	0
15.01.2021	06:22:56	0	0	4,293442	2,856	4,0716	-0,432	85,314	0	1011,1	6,2	8,1	8	1	1	1	1	1	1	1	1	1	0	1	-5,21494	273,411045	311,630364	0
15.01.2021	06:22:57	0	0	4,519412	3,177	16,47	-0,425	85,313	0	1011,24	6,2	8,1	8	1	1	1	1	1	1	1	1	1	0	1	-7,188161	273,393774	309,577096	0
15.01.2021	06:22:58	0	0	4,519412	3,18	21,7656	-0,43	85,32	0	1011,18	6,2	8,1	8	1	1	1	1	1	1	1	1	1	0	1	-0	273,477391	317,152963	0
15.01.2021	06:22:59	0	0	2,598662	2,91975	33,2496	-0,42	85,322	0	1011,22	6,1	8,1	8	1	1	1	1	1	1	1	1	1	0	1	-0,845666	273,55557	316,670111	0
15.01.2021	06:23:00	0	0	4,745383	2,78025	18,8388	-0,433	85,322	0	1011,16	6,2	8,1	8	1	1	1	1	1	1	1	1	1	0	1	-2,043693	273,490399	315,169616	0
15.01.2021	06:23:01	0	0	4,745383	2,78025	18,8388	-0,433	85,322	0	1011,16	6,2	8,1	8	1	1	1	1	1	1	1	1	1	0	1	-2,043693	273,490399	315,169616	0
15.01.2021	06:23:02	0	0	3,954486	2,8935	25,0344	-0,432	85,313	0	1011,16	6,2	8,1	8	1	1	1	1	1	1	1	1	1	0	1	-12,544045	273,405286	304,274567	0
15.01.2021	06:23:03	0	0	3,502545	2,92875	19,1412	-0,427	85,319	0	1011,18	6,2	8,1	8	1	1	1	1	1	1	1	1	1	0	1	-6,483439	273,412484	310,36854	0
15.01.2021	06:23:04	0	0	3,841501	2,87625	22,842	-0,429	85,31	0	1011,18	6,2	8,1	8	1	1	1	1	1	1	1	1	1	0	1	-2,184637	273,434096	314,767533	0
15.01.2021	06:23:05	0	0	2,711647	2,745	18,4536	-0,428	85,32	0	1011,04	6,2	8,1	8	1	1	1	1	1	1	1	1	1	0	1	-3,523608	273,542518	313,931576	0
15.01.2021	06:23:06	0	0	3,050603	2,55975	5,2488	-0,427	85,326	0	1011,3	6,2	8,1	8	1	1	1	1	1	1	1	1	1	0	1	-3,382664	273,438421	313,589561	0
15.01.2021	06:23:07	0	0	3,502545	2,58675	15,5052	-0,429	85,322	0	1011,16	6,2	8,1	8	1	1	1	1	1	1	1	1	1	0	1	-5,003524	273,413924	311,85513	0
15.01.2021	06:23:08	0	0	4,180456	2,65575	19,152	-0,426	85,311	0	1011,16	6,2	8,1	8	1	1	1	1	1	1	1	1	1	0	1	-5,144468	273,491845	312,075548	0
15.01.2021	06:23:09	0	0	2,824633	2,72475	10,0692	-0,432	85,304	0	1011,28	6,2	8,2	8	1	1	1	1	1	1	1	1	1	0	1	-0,98661	273,546868	316,488766	0
15.01.2021	06:23:10	0	0	4,858368	2,82225	21,384	-0,429	85,326	0	1011,16	6,2	8,1	8	1	1	1	1	1	1	1	1	1	0	1	-6,20155	273,458618	310,864335	0
15.01.2021	06:23:11	0	0	2,259706	2,7675	17,2584	-0,428	85,318	0	1011,18	6,2	8,1	8	1	1	1	1	1	1	1	1	1	0	1	-7,047216	273,55557	310,468561	0
15.01.2021	06:23:12	0	0	3,276574	2,7285	20,2716	-0,431	85,303	0	1011,02	6,2	8,1	8	1	1	1	1	1	1	1	1	1	0	1	-8,315715	273,442747	308,67657	0
15.01.2021	06:23:13	0	0	3,050603	2,5905	22,8456	-0,424	85,32	0	1011,2	6,2	8,1	8	1	1	1	1	1	1	1	1	1	0	1	-1,691332	273,403847	315,120609	0
15.01.2021	06:23:14	0	0	3,163589	2,55525	27,9504	-0,428	85,322	0	1011,12	6,2	8,1	8	1	1	1	1	1	1	1	1	1	0	1	-3,453136	273,386583	313,278793	0
15.01.2021	06:23:15	0	0	2,485677	2,4405	25,7976	-0,426	85,326	0	1011,04	6,2	8,1	8	1	1	1	1	1	1	1	1	1	0	1	-4,016913	273,454288	313,028892	0
15.01.2021	06:23:16	0	0	2,711647	2,28825	19,53	-0,424	85,325	0	1011,04	6,2	8,1	8	1	1	1	1	1	1	1	1	1	0	1	-5,144468	273,545418	312,324177	0
15.01.2021	06:23:17	0	0	3,276574	2,24325	20,286	-0,425	85,315	0	1011,16	6,1	8,1	8	1	1	1	1	1	1	1	1	1	0	1	-4,862579	273,510651	312,444697	0
15.01.2021	06:23:18	0	0	4,745383	2,265	23,3172	-0,428	85,31	0	1011,24	6,2	8,1	8	1	1	1	1	1	1	1	1	1	0	1	-2,959831	273,382269	313,752109	0
15.01.2021	06:23:19	0	0	2,937618	2,463	33,9372	-0,429	85,338	0	1011,08	6,2	8,1	8	1	1	1	1	1	1	1	1	1	0	1	-6,131078	273,448517	310,887962	0
15.01.2021	06:23:20	0	0	3,163589	2,5665	21,3912	-0,419	85,336	0	1011,24	6,1	8,1	8	1	1	1	1	1	1	1	1	1	0	1	-7,82241	273,393774	308,942846	0
15.01.2021	06:23:21	0	0	4,519412	2,63475	21,456	-0,429	85,312	0	1011,2	6,2	8,1	8	1	1	1	1	1	1	1	1	1	0	1	-3,59408	273,523681	313,773668	0
15.01.2021	06:23:22	0	0	2,937618	2,553	19,5372	-0,434	85,323	0	1011,12	6,1	8,1	8	1	1	1	1	1	1	1	1	1	0	1	-6,412967	273,514993	310,914461	0
15.01.2021	06:23:23	0	0	4,067471	2,62125	23,5764	-0,432	85,328	0	1011,14	6,2	8,1	8	1	1	1	1	1	1	1	1	1	0	1	-10,288936	273,533822	307,12588	0
15.01.2021	06:23:24	0	0	4,745383	2,652	20,286	-0,425	85,317	0	1011,26	6,2	8,2	8	1	1	1	1	1	1	1	1	1	0	1	-8,174771	273,52513	309,199699	0
15.01.2021	06:23:25	0	0	4,745383	2,583	19,1592	-0,427	85,323	0	1011,12	6,2	8,1	8	1	1	1	1	1	1	1	1	1	0	1	-3,030303	273,380832	313,674975	0
15.01.2021	06:23:26	0	0	4,971354	2,53425	27,9684	-0,426	85,32	0	1011,18	6,2	8,2	8	1	1	1	1	1	1	1	1	1	0	1	-6,412967	273,462949	310,673005	0
15.01.2021	06:23:27	0	0	3,841501	2,469	26,8992	-0,427	85,313	0	1011,06	6,2	8,1	8	1	1	1	1	1	1	1	1	1	0	1	-2,60747	273,548318	314,874638	0
15.01.2021	06:23:28	0	0	4,858368	2,38125	16,8552	-0,435	85,31	0	1011,12	6,2	8,1	8	1	1	1	1	1	1	1	1	1	0	1	-6,131078	273,496183	311,109066	0
15.01.2021	06:23:29	0	0	2,937618	2,4345	23,2344	-0,424	85,325	0	1011,28	6,2	8,1	8	1	1	1	1	1	1	1	1	1	0	1	-6,906272	273,388021	309,832321	0
15.01.2021	06:23:30	0	0	4,632398	2,57175	13,5504	-0,427	85,313	0	1011,22	6,2	8,1	8	1	1	1	1	1	1	1	1	1	0	1	-5,355884	273,418245	311,522799	0
15.01.2021	06:23:31	0	0	4,519412	2,6895	20,6316	-0,425	85,312	0	1011,08	6,2	8,1	8	1	1	1	1	1	1	1	1	1	0	1	-8,033827	273,396652	308,744765	0
15.01.2021	06:23:32	0	0	2,937618	2,66775	16,092	-0,423	85,319	0	1011,26	6,2	8,1	8	1	1	1	1	1	1	1	1	1	0	1	-9,725159	273,399529	307,066771	0
15.01.2021	06:23:33	0	0	4,971354	2,709	17,7084	-0,424	85,317	0	1011,06	6,2	8,1	8	1	1	1	1	1	1	1	1	1	0	1	-4,22833	273,503416	313,045373	0
15.01.2021	06:23:34	0	0	4,067471	2,93025	6,4296	-0,426	85,327	0	1011,14	6,2	8,1	8	1	1	1	1	1	1	1	1	1	0	1	-6,906272	273,55557	310,609505	0
15.01.2021	06:23:35	0	0	4,632398	3,3	4,8492	-0,427	85,33	0	1011,2	6,2	8,1	8	1	1	1	1	1	1	1	1	1	0	1	-5,778717	273,473057	311,354142	0
15.01.2021	06:23:36	0	0	2,937618	3,62175	2,0016	-0,43	85,324	0	1011,18	6,2	8,1	8	1	1	1	1	1	1	1	1	1	0	1	-5,990134	273,56718	311,579546	0
15.01.2021	06:23:37	0	0	3,050603	3,606	1,5516	-0,427	85,327	0	1011,18	6,2	8,1	8	1	1	1	1	1	1	1	1	1	0	1	-0,845666	273,411045	315,999638	0
15.01.2021	06:23:38	0	0	4,745383	3,58875	10,4508	-0,436	85,325	0	1011,14	6,1	8,1	8	1	1	1	1	1	1	1	1	1	0	1	-4,369274	273,500522	312,891003	0
15.01.2021	06:23:39	0	0	3,61553	3,36225	10,8252	-0,429	85,327	0	1011,16	6,2	8,1	8	1	1	1	1	1	1	1	1	1	0	1	-3,664553	273,385145	313,060713	0
15.01.2021	06:23:40	0	0	4,067471	3,07425	18,4572	-0,426	85,314	0	1011,16	6,1	8,1	8	1	1	1	1	1	1	1	1	1	0	1	-9,936575	273,510651	307,370702	0
15.01.2021	06:23:41	0	0	4,971354	2,8125	15,7824	-0,431	85,326	0	1011,26	6,2	8,1	8	1	1	1	1	1	1	1	1	1	0	1	-2,255109	273,557021	315,267403	0
15.01.2021	06:23:42	0	0	5,31031	2,6805	13,1688	-0,431	85,307	0	1011,08	6,1	8,1	8	1	1	1	1	1	1	1	1	1	0	1	-5,426357	273,539619	312,015369	0
15.01.2021	06:23:43	0	0	2,598662	2,616	5,688	-0,434	85,32	0	1011,14	6,2	8,1	8	1	1	1	1	1	1	1	1	1	0	1	-1,761804	273,504863	315,518612	0
15.01.2021	06:23:44	0	0	2,259706	2,4375	19,5516	-0,424	85,313	0	1011,1	6,1	8,1	8	1	1	1	1	1	1	1	1	1	0	1	-11,839323	273,389459	304,905935	0
15.01.2021	06:23:45	0	0	3,728493	2,1525	33,6348	-0,427	85,338	0	1011,2	6,2	8,1	8,1	1	1	1	1	1	1	1	1	1	0	1	-6,131078	273,426889	310,78768	0
15.01.2021	06:23:46	0	0	2,824633	1,9395	25,038	-0,429	85,333	0	1011,22	6,2	8,1	8	1	1	1	1	1	1	1	1	1	0	1	-3,875969	273,514993	313,451459	0
15.01.2021	06:23:47	0	0	3,841501	1,83075	14,6592	-0,427	85,326	0	1011,22	6,2	8,1	8	1	1	1	1	1	1	1	1	1	0	1	-8,033827	273,574439	309,569562	0
15.01.2021	06:23:48	0	0	3,502545	2,04675	21,3984	-0,431	85,319	0	1011,2	6,1	8,1	8	1	1	1	1	1	1	1	1	1	0	1	-8,245243	273,471613	308,880916	0
15.01.2021	06:23:49	0	0	3,841501	2,28525	19,9008	-0,434	85,332	0	1011,12	6,1	8,1	8	1	1	1	1	1	1	1	1	1	0	1	-5,073996	273,562825	312,475466	0
15.01.2021	06:23:50	0	0	4,971354	2,27475	9,0108	-0,427	85,321	0	1011,22	6,1	8,1	8	1	1	1	1	1	1	1	1	1	0	1	-4,298802	273,519337	313,048784	0
15.01.2021	06:23:51	0	0	4,745383	2,235	3,7872	-0,429	85,33	0	1011,22	6,1	8,1	8	1	1	1	1	1	1	1	1	1	0	1	-6,765328	273,400968	310,033271	0
15.01.2021	06:23:52	0	0	2,824633	2,2125	9,3744	-0,423	85,315	0	1011,32	6,2	8,1	8	1	1	1	1	1	1	1	1	1	0	1	-8,597604	273,539619	308,844121	0
15.01.2021	06:23:53	0	0	2,937618	2,166	11,7252	-0,432	85,314	0	1010,98	6,2	8,1	8	1	1	1	1	1	1	1	1	1	0	1	-4,721635	273,454288	312,324171	0
15.01.2021	06:23:54	0	0	3,841501	2,32275	4,1112	-0,428	85,324	0	1011,22	6,1	8,2	8	1	1	1	1	1	1	1	1	1	0	1	-5,355884	273,419685	311,529476	0
15.01.2021	06:23:55	0	0	4,180456	2,34675	18,1008	-0,43	85,331	0	1011,14	6,1	8,1	8	1	1	1	1	1	1	1	1	1	0	1	-7,399577	273,411045	309,445727	0
15.01.2021	06:23:56	0	0	2,259706	2,292	30,6972	-0,426	85,313	0	1011,14	6,2	8,2	8	1	1	1	1	1	1	1	1	1	0	1	-1,550388	273,447074	315,461963	0
15.01.2021	06:23:57	0	0	4,293442	2,2155	12,8556	-0,426	85,334	0	1011,06	6,2	8,2	8	1	1	1	1	1	1	1	1	1	0	1	-6,483439	273,393774	310,281817	0
15.01.2021	06:23:58	0	0	5,084339	2,1195	16,9452	-0,425	85,333	0	1011,22	6,1	8,1	8	1	1	1	1	1	1	1	1	1	0	1	-9,020437	273,470169	308,099023	0
15.01.2021	06:23:59	0	0	3,163589	2,0475	17,2368	-0,425	85,307	0	1011,08	6,1	8,2	8	1	1	1	1	1	1	1	1	1	0	1	-4,933051	273,393774	311,832205	0
15.01.2021	06:24:00	0	0	4,180456	2,2605	36,7056	-0,429	85,331	0	1011,14	6,1	8,1	8	1	1	1	1	1	1	1	1	1	0	1	-1,550388	273,488953	315,656213	0
15.01.2021	06:24:01	0	0	4,180456	2,2605	36,7056	-0,429	85,331	0	1011,14	6,1	8,1	8	1	1	1	1	1	1	1	1	1	0	1	-1,550388	273,488953	315,656213	0
15.01.2021	06:24:02	0	0	4,067471	2,247	26,9064	-0,427	85,338	0	1011,16	6,1	8,1	8	1	1	1	1	1	1	1	1	1	0	1	-5,144468	273,390897	311,607456	0
15.01.2021	06:24:03	0	0	4,858368	2,18925	21,0168	-0,43	85,338	0	1011,24	6,1	8,1	8	1	1	1	1	1	1	1	1	1	0	1	-5,496829	273,46728	311,609234	0
15.01.2021	06:24:04	0	0	4,519412	2,214	28,3572	-0,427	85,341	0	1011,2	6,1	8,1	8	1	1	1	1	1	1	1	1	1	0	1	-4,510218	273,388021	312,228375	0
15.01.2021	06:24:05	0	0	2,937618	2,2665	31,3992	-0,435	85,329	0	1011,1	6,1	8,1	8	1	1	1	1	1	1	1	1	1	0	1	-1,62086	273,462949	315,465112	0
15.01.2021	06:24:06	0	0	4,293442	2,259	26,9064	-0,425	85,335	0	1011,14	6,1	8,1	8	1	1	1	1	1	1	1	1	1	0	1	-3,100775	273,552669	314,401532	0
15.01.2021	06:24:07	0	0	4,519412	2,21025	15,0372	-0,427	85,334	0	1011,28	6,2	8,1	8	1	1	1	1	1	1	1	1	1	0	1	-2,396054	273,52513	314,978417	0
15.01.2021	06:24:08	0	0	3,050603	2,20575	21,402	-0,426	85,345	0	1011,26	6,1	8,1	8	1	1	1	1	1	1	1	1	1	0	1	-3,735025	273,413924	313,123629	0
15.01.2021	06:24:09	0	0	3,163589	2,2575	23,9652	-0,434	85,334	0	1011,16	6,1	8,2	8	1	1	1	1	1	1	1	1	1	0	1	-9,725159	273,499076	307,528407	0
15.01.2021	06:24:10	0	0	3,389559	2,41125	28,7424	-0,422	85,345	0	1011,24	6,1	8,1	8	1	1	1	1	1	1	1	1	1	0	1	-7,399577	273,500522	309,8607	0
15.01.2021	06:24:11	0	0	3,502545	2,3865	15,4296	-0,426	85,331	0	1011,14	6,1	8,1	8	1	1	1	1	1	1	1	1	1	0	1	-3,382664	273,37652	313,302632	0
15.01.2021	06:24:12	0	0	2,598662	2,385	18,0792	-0,425	85,346	0	1011,2	6,1	8,1	8	1	1	1	1	1	1	1	1	1	0	1	-2,818887	273,490399	314,394422	0
15.01.2021	06:24:13	0	0	3,163589	2,49	28,7388	-0,426	85,335	0	1011,16	6,2	8,1	8	1	1	1	1	1	1	1	1	1	0	1	-8,033827	273,562825	309,515635	0
15.01.2021	06:24:14	0	0	2,711647	2,52225	18,8388	-0,428	85,341	0	1011,18	6,1	8,1	8	1	1	1	1	1	1	1	1	1	0	1	-8,104299	273,418245	308,774384	0
15.01.2021	06:24:15	0	0	2,937618	2,79525	30,708	-0,43	85,344	0	1011,02	6,2	8,1	8	1	1	1	1	1	1	1	1	1	0	1	-6,694856	273,385145	310,03041	0
15.01.2021	06:24:16	0	0	3,502545	3,02775	15,0336	-0,431	85,341	0	1011,06	6,2	8,2	8	1	1	1	1	1	1	1	1	1	0	1	-2,325581	273,422567	314,573136	0
15.01.2021	06:24:17	0	0	4,632398	2,94825	13,554	-0,428	85,32	0	1011,16	6,1	8,2	8	1	1	1	1	1	1	1	1	1	0	1	-5,285412	273,438421	311,686813	0
15.01.2021	06:24:18	0	0	3,728515	2,913	17,712	-0,428	85,332	0	1011,14	6,2	8,1	8	1	1	1	1	1	1	1	1	1	0	1	-4,510218	273,403847	312,301722	0
15.01.2021	06:24:19	0	0	4,745383	2,8875	13,1616	-0,43	85,341	0	1011,04	6,1	8,1	8	1	1	1	1	1	1	1	1	1	0	1	-10,782241	273,475947	306,36402	0
15.01.2021	06:24:20	0	0	3,841501	2,89125	6,0768	-0,43	85,341	0	1011,24	6,1	8,1	8	1	1	1	1	1	1	1	1	1	0	1	-7,540521	273,559923	309,995464	0
15.01.2021	06:24:21	0	0	4,180456	3,051	11,7036	-0,429	85,349	0	1011,14	6,1	8,1	8	1	1	1	1	1	1	1	1	1	0	1	-8,174771	273,551219	309,320803	0
15.01.2021	06:24:22	0	0	4,180456	3,12975	19,9152	-0,422	85,376	0	1011,4	6,1	8,1	8	1	1	1	1	1	1	1	1	1	0	1	-2,748414	273,516441	314,585732	0
15.01.2021	06:24:23	0	0	2,598662	3,10275	10,4508	-0,433	85,332	0	1011,2	6,1	8,1	8	1	1	1	1	1	1	1	1	1	0	1	-5,144468	273,399529	311,647461	0
15.01.2021	06:24:24	0	0	4,632398	3,00375	22,086	-0,427	85,347	0	1011,06	6,1	8,1	8	1	1	1	1	1	1	1	1	1	0	1	-6,272023	273,458618	310,793863	0
15.01.2021	06:24:25	0	0	4,519412	2,92425	30,2976	-0,436	85,319	0	1011,1	6,2	8,1	8	1	1	1	1	1	1	1	1	1	0	1	-5,990134	273,552669	311,512174	0
15.01.2021	06:24:26	0	0	4,406427	3,02625	5,688	-0,429	85,337	0	1011,22	6,2	8,1	8	1	1	1	1	1	1	1	1	1	0	1	-3,523608	273,473057	313,609251	0
15.01.2021	06:24:27	0	0	3,163589	3,05775	15,5016	-0,426	85,342	0	1011,1	6,1	8,1	8	1	1	1	1	1	1	1	1	1	0	1	-5,355884	273,389459	311,389374	0
15.01.2021	06:24:28	0	0	3,841501	2,92125	6,822	-0,428	85,333	0	1011,28	6,1	8,1	8	1	1	1	1	1	1	1	1	1	0	1	-7,681466	273,522233	309,679561	0
15.01.2021	06:24:29	0	0	5,084339	2,95575	9,3744	-0,431	85,317	0	1011,36	6,2	8,1	8	1	1	1	1	1	1	1	1	1	0	1	-6,624383	273,399529	310,167546	0
15.01.2021	06:24:30	0	0	3,163589	2,91375	10,0692	-0,429	85,344	0	1011,28	6,1	8,1	8	1	1	1	1	1	1	1	1	1	0	1	-6,342495	273,377957	310,349461	0
15.01.2021	06:24:31	0	0	3,841501	2,63025	19,5444	-0,429	85,348	0	1011,16	6,1	8,1	8	1	1	1	1	1	1	1	1	1	0	1	-2,396054	273,516441	314,938093	0
15.01.2021	06:24:32	0	0	4,293442	2,46225	13,9104	-0,427	85,317	0	1011,1	6,1	8,1	8	1	1	1	1	1	1	1	1	1	0	1	-3,875969	273,546868	313,599407	0
15.01.2021	06:24:33	0	0	2,372692	2,53875	3,7872	-0,426	85,35	0	1011,2	6,2	8,1	8	1	1	1	1	1	1	1	1	1	0	1	-4,862579	273,458618	312,203306	0
15.01.2021	06:24:34	0	0	4,632398	2,913	13,6476	-0,425	85,345	0	1011,3	6,1	8,2	8	1	1	1	1	1	1	1	1	1	0	1	-2,466526	273,390897	314,285398	0
15.01.2021	06:24:35	0	0	2,824633	3,06375	21,3912	-0,426	85,338	0	1011,04	6,2	8,1	8	1	1	1	1	1	1	1	1	1	0	1	-6,412967	273,425448	310,49911	0
15.01.2021	06:24:36	0	0	3,728515	3,264	10,8108	-0,428	85,339	0	1011,12	6,1	8,1	8	1	1	1	1	1	1	1	1	1	0	1	-4,22833	273,557021	313,294183	0
15.01.2021	06:24:37	0	0	3,728515	3,432	12,1068	-0,432	85,315	0	1011	6,2	8,1	8	1	1	1	1	1	1	1	1	1	0	1	-5,426357	273,422567	311,472361	0
15.01.2021	06:24:38	0	0	4,406427	3,50325	11,2176	-0,429	85,326	0	1011,18	6,1	8,1	8	1	1	1	1	1	1	1	1	1	0	1	-1,761804	273,438421	315,210421	0
15.01.2021	06:24:39	0	0	5,197324	3,26175	23,9688	-0,423	85,342	0	1011,22	6,1	8,1	8	1	1	1	1	1	1	1	1	1	0	1	-2,396054	273,568631	315,180366	0
15.01.2021	06:24:40	0	0	2,824633	3,02175	6,066	-0,427	85,34	0	1011,06	6,1	8,1	8	1	1	1	1	1	1	1	1	1	0	1	-7,681466	273,52513	309,693005	0
15.01.2021	06:24:41	0	0	3,050603	2,9745	19,1376	-0,423	85,35	0	1011,22	6,2	8,1	8	1	1	1	1	1	1	1	1	1	0	1	-5,21494	273,565728	312,347999	0
15.01.2021	06:24:42	0	0	4,519412	2,88975	11,2716	-0,432	85,327	0	1011,02	6,1	8,1	8	1	1	1	1	1	1	1	1	1	0	1	-8,315715	273,526578	309,065478	0
15.01.2021	06:24:43	0	0	4,067471	2,73225	19,5372	-0,434	85,347	0	1011,04	6,1	8,1	8	1	1	1	1	1	1	1	1	1	0	1	-3,171247	273,389459	313,574011	0
15.01.2021	06:24:44	0	0	3,276574	2,658	22,0752	-0,424	85,347	0	1011,16	6,1	8,1	8	1	1	1	1	1	1	1	1	1	0	1	-4,087385	273,431213	312,851418	0
15.01.2021	06:24:45	0	0	3,276574	2,55675	21,3984	-0,43	85,348	0	1011,02	6,1	8,1	8	1	1	1	1	1	1	1	1	1	0	1	-0,98661	273,557021	316,535902	0
15.01.2021	06:24:46	0	0	2,937618	2,44425	17,3412	-0,425	85,344	0	1011,2	6,1	8,2	8	1	1	1	1	1	1	1	1	1	0	1	-3,523608	273,421126	313,368431	0
15.01.2021	06:24:47	0	0	3,841501	2,502	22,8384	-0,425	85,333	0	1011,06	6,2	8,2	8	1	1	1	1	1	1	1	1	1	0	1	-1,691332	273,49763	315,555523	0
15.01.2021	06:24:48	0	0	3,954486	2,4585	14,6376	-0,431	85,323	0	1011,12	6,2	8,1	8	1	1	1	1	1	1	1	1	1	0	1	-7,963354	273,546868	309,512022	0
15.01.2021	06:24:49	0	0	4,745383	2,41575	23,2092	-0,427	85,347	0	1011,22	6,1	8,1	8	1	1	1	1	1	1	1	1	1	0	1	-6,412967	273,438421	310,559258	0
15.01.2021	06:24:50	0	0	4,406427	2,47425	18,8424	-0,428	85,335	0	1011,12	6,1	8,2	8	1	1	1	1	1	1	1	1	1	0	1	-6,906272	273,422567	309,992446	0
15.01.2021	06:24:51	0	0	2,711647	2,5425	14,634	-0,424	85,354	0	1011,28	6,1	8,1	8	1	1	1	1	1	1	1	1	1	0	1	-3,946441	273,399529	312,845488	0
15.01.2021	06:24:52	0	0	3,841501	2,54775	24,3324	-0,427	85,348	0	1011,1	6,1	8,1	8	1	1	1	1	1	1	1	1	1	0	1	-6,412967	273,486062	310,780221	0
15.01.2021	06:24:53	0	0	4,180456	2,51175	17,2512	-0,433	85,346	0	1011,18	6,2	8,1	8	1	1	1	1	1	1	1	1	1	0	1	-4,792107	273,418245	312,086576	0
15.01.2021	06:24:54	0	0	3,276574	2,69025	12,8484	-0,424	85,345	0	1011,18	6,1	8,1	8	1	1	1	1	1	1	1	1	1	0	1	-2,396054	273,424007	314,509344	0
15.01.2021	06:24:55	0	0	4,180456	2,757	16,4772	-0,431	85,338	0	1011,1	6,1	8,2	8	1	1	1	1	1	1	1	1	1	0	1	-6,412967	273,473057	310,719892	0
15.01.2021	06:24:56	0	0	3,276574	2,6925	20,6316	-0,433	85,343	0	1011,2	6,1	8,1	8	1	1	1	1	1	1	1	1	1	0	1	-5,426357	273,574439	312,177032	0
15.01.2021	06:24:57	0	0	3,389559	2,70525	18,8244	-0,427	85,355	0	1011,24	6,1	8,1	8	1	1	1	1	1	1	1	1	1	0	1	-6,060606	273,39809	310,724654	0
15.01.2021	06:24:58	0	0	4,293442	2,67825	15,0444	-0,427	85,34	0	1011,2	6,1	8,1	8	1	1	1	1	1	1	1	1	1	0	1	-8,315715	273,496183	308,924429	0
15.01.2021	06:24:59	0	0	3,050603	2,55525	15,0408	-0,428	85,359	0	1011,16	6,1	8,1	8	1	1	1	1	1	1	1	1	1	0	1	-7,117689	273,386583	309,614241	0
15.01.2021	06:25:00	0	0	3,841501	2,49225	12,096	-0,424	85,342	0	1011,2	6,1	8,1	8	1	1	1	1	1	1	1	1	1	0	1	-7,047216	273,568631	310,529204	0
15.01.2021	06:25:01	0	0	3,841501	2,49225	12,096	-0,424	85,342	0	1011,2	6,1	8,1	8	1	1	1	1	1	1	1	1	1	0	1	-7,047216	273,568631	310,529204	0
15.01.2021	06:25:02	0	0	3,050603	2,4315	8,2584	-0,426	85,348	0	1011,18	6,1	8,1	8	1	1	1	1	1	1	1	1	1	0	1	-4,016913	273,418245	312,86177	0
15.01.2021	06:25:03	0	0	3,050603	2,28	16,4952	-0,433	85,342	0	1011,22	6,1	8,1	8	1	1	1	1	1	1	1	1	1	0	1	-2,959831	273,570083	314,62333	0
15.01.2021	06:25:04	0	0	4,293442	2,1435	1,9116	-0,426	85,349	0	1011,04	6,1	8,1	8	1	1	1	1	1	1	1	1	1	0	1	-5,496829	273,546868	311,978547	0
15.01.2021	06:25:05	0	0	3,389559	2,06625	4,842	-0,429	85,331	0	1011,22	6,1	8,1	8	1	1	1	1	1	1	1	1	1	0	1	-6,8358	273,552669	310,666508	0
15.01.2021	06:25:06	0	0	4,971354	2,03925	20,2896	-0,428	85,363	0	1011,14	6,1	8,1	8	1	1	1	1	1	1	1	1	1	0	1	-4,651163	273,542518	312,804021	0
15.01.2021	06:25:07	0	0	4,632398	2,08875	9,7596	-0,427	85,356	0	1011,32	6,1	8,1	8	1	1	1	1	1	1	1	1	1	0	1	-8,315715	273,448517	308,703325	0
15.01.2021	06:25:08	0	0	2,824633	2,367	21,0168	-0,429	85,35	0	1011,24	6,1	8,1	8	1	1	1	1	1	1	1	1	1	0	1	-5,073996	273,559923	312,46199	0
15.01.2021	06:25:09	0	0	4,293416	2,5485	18,846	-0,432	85,347	0	1011,02	6,1	8,1	8,1	1	1	1	1	1	1	1	1	1	0	1	-2,889359	273,424007	314,016039	0
15.01.2021	06:25:10	0	0	4,632398	2,53125	17,2512	-0,429	85,355	0	1011,22	6,1	8,1	8	1	1	1	1	1	1	1	1	1	0	1	-3,59408	273,523681	313,773668	0
15.01.2021	06:25:11	0	0	2,711647	2,33175	7,5096	-0,426	85,364	0	1011,08	6,1	8,2	8	1	1	1	1	1	1	1	1	1	0	1	-4,721635	273,388021	312,016958	0
15.01.2021	06:25:12	0	0	4,632398	2,13075	13,6332	-0,429	85,335	0	1011,16	6,1	8,2	8	1	1	1	1	1	1	1	1	1	0	1	-4,157858	273,52513	313,216613	0
15.01.2021	06:25:13	0	0	3,502545	2,28	5,2128	-0,429	85,343	0	1011,1	6,2	8,2	8	1	1	1	1	1	1	1	1	1	0	1	-7,399577	273,389459	309,345681	0
15.01.2021	06:25:14	0	0	3,61553	2,42025	15,048	-0,428	85,345	0	1011,2	6,1	8,1	8	1	1	1	1	1	1	1	1	1	0	1	-2,889359	273,501969	314,377631	0
15.01.2021	06:25:15	0	0	2,485677	2,47725	1,5588	-0,431	85,36	0	1011,28	6,2	8,1	8	1	1	1	1	1	1	1	1	1	0	1	-5,778717	273,39809	311,006543	0
15.01.2021	06:25:16	0	0	4,745383	2,4945	13,158	-0,424	85,362	0	1011,16	6,1	8,1	8	1	1	1	1	1	1	1	1	1	0	1	-4,933051	273,55557	312,582726	0
15.01.2021	06:25:17	0	0	2,937618	2,373	22,0788	-0,427	85,388	0	1011,22	6,1	8,1	8	1	1	1	1	1	1	1	1	1	0	1	-8,386187	273,422567	308,51253	0
15.01.2021	06:25:18	0	0	4,971354	2,3115	16,4772	-0,434	85,344	0	1011,28	6,1	8,2	8	1	1	1	1	1	1	1	1	1	0	1	-2,677942	273,571535	314,911961	0
15.01.2021	06:25:19	0	0	3,954486	2,34525	21,4812	-0,429	85,368	0	1011,16	6,1	8,1	8	1	1	1	1	1	1	1	1	1	0	1	-5,708245	273,484617	311,478237	0
15.01.2021	06:25:20	0	0	3,050585	2,4225	25,4304	-0,433	85,35	0	1011,2	6,1	8,1	8,1	1	1	1	1	1	1	1	1	1	0	1	-6,765328	273,431213	310,173476	0
15.01.2021	06:25:21	0	0	3,276574	2,5815	28,458	-0,428	85,362	0	1011,14	6,1	8,1	8	1	1	1	1	1	1	1	1	1	0	1	-9,231853	273,393774	307,533403	0
15.01.2021	06:25:22	0	0	3,276574	2,67	27,2376	-0,429	85,356	0	1011,04	6,1	8,2	8	1	1	1	1	1	1	1	1	1	0	1	-5,567301	273,499076	311,686265	0
15.01.2021	06:25:23	0	0	3,050603	2,72325	9,3672	-0,429	85,364	0	1011,06	6,1	8,2	8	1	1	1	1	1	1	1	1	1	0	1	-4,22833	273,565728	313,33461	0
15.01.2021	06:25:24	0	0	4,632398	2,93925	12,8592	-0,428	85,362	0	1011,14	6,1	8,2	8	1	1	1	1	1	1	1	1	1	0	1	-5,84919	273,516441	311,484957	0
15.01.2021	06:25:25	0	0	3,050603	2,9505	27,6696	-0,429	85,365	0	1011,08	6,1	8,1	8	1	1	1	1	1	1	1	1	1	0	1	-7,047216	273,583154	310,596643	0
15.01.2021	06:25:26	0	0	2,824633	2,787	12,1032	-0,427	85,359	0	1011,08	6,1	8,2	8	1	1	1	1	1	1	1	1	1	0	1	-4,087385	273,56718	313,482294	0
15.01.2021	06:25:27	0	0	4,632398	2,85225	19,9044	-0,432	85,359	0	1011	6,1	8,1	8	1	1	1	1	1	1	1	1	1	0	1	-3,312192	273,514993	314,015237	0
15.01.2021	06:25:28	0	0	4,858368	2,74725	14,3064	-0,428	85,371	0	1011,16	6,1	8,1	8	1	1	1	1	1	1	1	1	1	0	1	-2,60747	273,56718	314,962209	0
15.01.2021	06:25:29	0	0	3,954486	2,66775	17,712	-0,432	85,359	0	1011,14	6,1	8,1	8	1	1	1	1	1	1	1	1	1	0	1	-6,272023	273,541069	311,176432	0
15.01.2021	06:25:30	0	0	4,180456	2,682	30,33	-0,425	85,368	0	1011,22	6,1	8,2	8	1	1	1	1	1	1	1	1	1	0	1	-1,832276	273,439863	315,146635	0
15.01.2021	06:25:31	0	0	4,519412	2,7165	25,7868	-0,425	85,368	0	1011,16	6,1	8,2	8	1	1	1	1	1	1	1	1	1	0	1	-8,45666	273,396652	308,321932	0
15.01.2021	06:25:32	0	0	5,197324	2,7075	22,0932	-0,43	85,37	0	1011,1	6,1	8,2	8	1	1	1	1	1	1	1	1	1	0	1	-8,527132	273,543968	308,934782	0
15.01.2021	06:25:33	0	0	4,519412	2,73	19,1628	-0,433	85,353	0	1011,36	6,1	8,1	8	1	1	1	1	1	1	1	1	1	0	1	-1,973221	273,434096	314,97895	0
15.01.2021	06:25:34	0	0	3,163589	2,6775	0	-0,423	85,356	0	1011,14	6,1	8,1	8	1	1	1	1	1	1	1	1	1	0	1	-6,20155	273,396652	310,577041	0
15.01.2021	06:25:35	0	0	3,050603	2,72475	10,8216	-0,426	85,376	0	1011,34	6,1	8,1	8	1	1	1	1	1	1	1	1	1	0	1	-7,751938	273,491845	309,468078	0
15.01.2021	06:25:36	0	0	3,841501	2,81625	11,1888	-0,427	85,371	0	1011,12	6,1	8,2	8	1	1	1	1	1	1	1	1	1	0	1	-4,862579	273,571535	312,727324	0
15.01.2021	06:25:37	0	0	3,61553	2,87625	7,128	-0,43	85,365	0	1011,28	6,1	8,1	8	1	1	1	1	1	1	1	1	1	0	1	-5,567301	273,426889	311,351457	0
15.01.2021	06:25:38	0	0	3,954486	2,757	359,5068	-0,425	85,385	0	1011,32	6,1	8,1	8	1	1	1	1	1	1	1	1	1	0	1	-0	273,571535	317,589903	0
15.01.2021	06:25:39	0	0	4,632398	2,5425	21,3876	-0,426	85,372	0	1011,14	6,1	8,2	8	1	1	1	1	1	1	1	1	1	0	1	-0	273,530924	317,401365	0
15.01.2021	06:25:40	0	0	4,519412	2,6025	28,7496	-0,428	85,385	0	1011,18	6,1	8,1	8	1	1	1	1	1	1	1	1	1	0	1	-0	273,411045	316,845304	0
15.01.2021	06:25:41	0	0	3,163589	2,70525	18,0756	-0,432	85,355	0	1011,26	6,1	8,1	8	1	1	1	1	1	1	1	1	1	0	1	-1,973221	273,55412	315,535821	0
15.01.2021	06:25:42	0	0	3,163589	2,73525	29,5632	-0,429	85,369	0	1011,2	6,1	8,2	8	1	1	1	1	1	1	1	1	1	0	1	-2,043693	273,53672	315,384577	0
15.01.2021	06:25:43	0	0	4,519385	2,67	21,0276	-0,431	85,36	0	1011,06	6,1	8,1	8,1	1	1	1	1	1	1	1	1	1	0	1	-5,637773	273,570083	311,945388	0
15.01.2021	06:25:44	0	0	3,954486	2,48025	21,0168	-0,434	85,361	0	1011,18	6,1	8,1	8	1	1	1	1	1	1	1	1	1	0	1	-4,792107	273,447074	312,220244	0
15.01.2021	06:25:45	0	0	2,598662	2,47725	22,068	-0,434	85,372	0	1011,24	6,1	8,1	8	1	1	1	1	1	1	1	1	1	0	1	-6,131078	273,432654	310,814408	0
15.01.2021	06:25:46	0	0	4,406427	2,5365	18,072	-0,432	85,383	0	1011,18	6,1	8,2	8	1	1	1	1	1	1	1	1	1	0	1	-5,21494	273,588966	312,455913	0
15.01.2021	06:25:47	0	0	2,485677	2,66325	9,3672	-0,428	85,382	0	1011,16	6,1	8,2	8	1	1	1	1	1	1	1	1	1	0	1	-4,933051	273,546868	312,542325	0
15.01.2021	06:25:48	0	0	3,276574	2,70675	14,3928	-0,431	85,366	0	1011,1	6,1	8,2	8	1	1	1	1	1	1	1	1	1	0	1	-5,708245	273,491845	311,511771	0
15.01.2021	06:25:49	0	0	3,728515	2,66175	13,932	-0,427	85,383	0	1011,18	6,1	8,1	8	1	1	1	1	1	1	1	1	1	0	1	-1,62086	273,402407	315,18441	0
15.01.2021	06:25:50	0	0	3,841501	2,604	12,096	-0,432	85,371	0	1011,02	6,1	8,2	8	1	1	1	1	1	1	1	1	1	0	1	-4,439746	273,552669	313,062561	0
15.01.2021	06:25:51	0	0	4,632398	2,73675	19,9116	-0,429	85,376	0	1011,14	6,1	8,2	8	1	1	1	1	1	1	1	1	1	0	1	-3,100775	273,516441	314,233372	0
15.01.2021	06:25:52	0	0	3,61553	2,67675	19,6344	-0,424	85,37	0	1011,16	6,1	8,2	8	1	1	1	1	1	1	1	1	1	0	1	-4,298802	273,572987	313,297844	0
15.01.2021	06:25:53	0	0	4,971324	2,5515	13,9212	-0,428	85,383	0	1011,24	6,1	8,2	8,1	1	1	1	1	1	1	1	1	1	0	1	-4,298802	273,480281	312,867567	0
15.01.2021	06:25:54	0	0	3,841501	2,502	12,1032	-0,432	85,381	0	1011,18	6,1	8,1	8	1	1	1	1	1	1	1	1	1	0	1	-10,641297	273,559923	306,894689	0
15.01.2021	06:25:55	0	0	2,824633	2,601	13,9248	-0,432	85,379	0	1011,12	6,1	8,1	8	1	1	1	1	1	1	1	1	1	0	1	-4,298802	273,383707	312,4198	0
15.01.2021	06:25:56	0	0	3,050603	2,61825	10,0692	-0,427	85,382	0	1011,22	6,1	8,1	8	1	1	1	1	1	1	1	1	1	0	1	-2,818887	273,510651	314,48839	0
15.01.2021	06:25:57	0	0	2,937618	2,59125	1,1736	-0,429	85,369	0	1011,08	6,1	8,1	8	1	1	1	1	1	1	1	1	1	0	1	-4,510218	273,399529	312,281711	0
15.01.2021	06:25:58	0	0	3,276554	2,634	6,0624	-0,425	85,362	0	1011,18	6,1	8,2	8,1	1	1	1	1	1	1	1	1	1	0	1	-4,369274	273,475947	312,776987	0
15.01.2021	06:25:59	0	0	2,824633	2,682	12,4704	-0,425	85,382	0	1011,26	6,1	8,2	8	1	1	1	1	1	1	1	1	1	0	1	-6,412967	273,409605	310,425663	0
15.01.2021	06:26:00	0	0	3,389559	2,60025	16,8516	-0,432	85,372	0	1011,18	6,1	8,2	8	1	1	1	1	1	1	1	1	1	0	1	-6,765328	273,429772	310,166793	0
15.01.2021	06:26:01	0	0	3,389559	2,60025	16,8516	-0,432	85,372	0	1011,18	6,1	8,2	8	1	1	1	1	1	1	1	1	1	0	1	-6,765328	273,429772	310,166793	0
15.01.2021	06:26:02	0	0	3,389559	2,56425	18,8352	-0,43	85,354	0	1011,14	6,1	8,1	8	1	1	1	1	1	1	1	1	1	0	1	-4,369274	273,568631	313,207146	0
15.01.2021	06:26:03	0	0	3,276574	2,52525	16,4808	-0,431	85,376	0	1011,16	6,1	8,1	8	1	1	1	1	1	1	1	1	1	0	1	-6,20155	273,53817	311,233447	0
15.01.2021	06:26:04	0	0	3,728515	2,565	35,0712	-0,424	85,382	0	1011,18	6,1	8,2	8	1	1	1	1	1	1	1	1	1	0	1	-2,466526	273,578796	315,157096	0
15.01.2021	06:26:05	0	0	3,61553	2,70975	23,22	-0,429	85,371	0	1011,2	6,1	8,2	8	1	1	1	1	1	1	1	1	1	0	1	-1,761804	273,53817	315,673193	0
15.01.2021	06:26:06	0	0	5,084308	2,90325	24,3396	-0,432	85,36	0	1011,22	6,1	8,2	8,1	1	1	1	1	1	1	1	1	1	0	1	-2,114165	273,56718	315,455515	0
15.01.2021	06:26:07	0	0	5,084339	2,9055	30,3156	-0,426	85,387	0	1011,2	6,1	8,1	8	1	1	1	1	1	1	1	1	1	0	1	-3,946441	273,529475	313,448199	0
15.01.2021	06:26:08	0	0	3,61553	2,82675	18,8424	-0,429	85,386	0	1011,18	6,1	8,2	8	1	1	1	1	1	1	1	1	1	0	1	-2,325581	273,575891	315,284551	0
15.01.2021	06:26:09	0	0	5,084339	2,64525	27,2628	-0,429	85,375	0	1011,22	6,1	8,2	8	1	1	1	1	1	1	1	1	1	0	1	-7,047216	273,490399	310,166092	0
15.01.2021	06:26:10	0	0	4,632398	2,604	24,4224	-0,427	85,382	0	1011,2	6,1	8,2	8	1	1	1	1	1	1	1	1	1	0	1	-8,104299	273,575891	309,505833	0
15.01.2021	06:26:11	0	0	2,937618	2,51475	20,286	-0,431	85,367	0	1011,1	6,1	8,1	8	1	1	1	1	1	1	1	1	1	0	1	-5,355884	273,541069	312,09257	0
15.01.2021	06:26:12	0	0	4,519412	2,46975	23,2236	-0,427	85,378	0	1011,34	6,1	8,2	8	1	1	1	1	1	1	1	1	1	0	1	-8,174771	273,39809	308,610489	0
15.01.2021	06:26:13	0	0	4,067471	2,38725	17,2224	-0,428	85,38	0	1011,2	6,1	8,1	8	1	1	1	1	1	1	1	1	1	0	1	-1,409443	273,561374	316,13328	0
15.01.2021	06:26:14	0	0	3,954486	2,322	25,1352	-0,427	85,357	0	1011,4	6,1	8,2	8	1	1	1	1	1	1	1	1	1	0	1	-6,553911	273,574439	311,049477	0
15.01.2021	06:26:15	0	0	4,519412	2,28225	19,908	-0,43	85,383	0	1011,24	6,1	8,2	8	1	1	1	1	1	1	1	1	1	0	1	-5,496829	273,577343	312,120048	0
15.01.2021	06:26:16	0	0	3,502524	2,196	13,1652	-0,429	85,362	0	1011,12	6,1	8,2	8,1	1	1	1	1	1	1	1	1	1	0	1	-5,144468	273,454288	311,901338	0
15.01.2021	06:26:17	0	0	4,067471	2,1525	15,894	-0,43	85,382	0	1011,1	6,1	8,2	8	1	1	1	1	1	1	1	1	1	0	1	-7,540521	273,426889	309,378236	0
15.01.2021	06:26:18	0	0	3,728515	2,10225	9,3672	-0,43	85,382	0	1011,24	6,1	8,1	8	1	1	1	1	1	1	1	1	1	0	1	-1,409443	273,587513	316,25466	0
15.01.2021	06:26:19	0	0	4,858339	2,2665	359,4564	-0,432	85,367	0	1011,18	6,1	8,2	8,1	1	1	1	1	1	1	1	1	1	0	1	-2,255109	273,548318	315,226999	0
15.01.2021	06:26:20	0	0	4,745383	2,631	358,4232	-0,431	85,381	0	1011,24	6,1	8,1	8	1	1	1	1	1	1	1	1	1	0	1	-3,664553	273,583154	313,979307	0
15.01.2021	06:26:21	0	0	3,502545	2,802	14,7384	-0,425	85,383	0	1011,14	6,1	8,1	8	1	1	1	1	1	1	1	1	1	0	1	-5,84919	273,494737	311,384245	0
15.01.2021	06:26:22	0	0	4,293442	2,62275	20,628	-0,429	85,369	0	1011,02	6,1	8,2	8	1	1	1	1	1	1	1	1	1	0	1	-2,255109	273,442747	314,737176	0
15.01.2021	06:26:23	0	0	4,067471	2,53425	23,58	-0,426	85,385	0	1011,08	6,1	8,2	8	1	1	1	1	1	1	1	1	1	0	1	-3,523608	273,564277	314,032592	0
15.01.2021	06:26:24	0	0	4,858368	2,61375	21,0132	-0,423	85,382	0	1011,12	6,1	8,2	8	1	1	1	1	1	1	1	1	1	0	1	-8,597604	273,449959	308,428127	0
15.01.2021	06:26:25	0	0	4,180456	2,68425	21,0096	-0,431	85,376	0	1011,04	6,1	8,1	8	1	1	1	1	1	1	1	1	1	0	1	-6,342495	273,545418	311,12615	0
15.01.2021	06:26:26	0	0	3,841501	2,658	13,5396	-0,425	85,386	0	1011,18	6,1	8,1	8	1	1	1	1	1	1	1	1	1	0	1	-3,59408	273,529475	313,80056	0
15.01.2021	06:26:27	0	0	2,824633	2,56125	23,5908	-0,427	85,386	0	1011,18	6,1	8,1	8	1	1	1	1	1	1	1	1	1	0	1	-6,060606	273,581701	311,576507	0
15.01.2021	06:26:28	0	0	3,728515	2,41425	20,3544	-0,429	85,392	0	1011,28	6,1	8,2	8	1	1	1	1	1	1	1	1	1	0	1	-3,100775	273,523681	314,266973	0
15.01.2021	06:26:29	0	0	4,745383	2,7	6,0696	-0,427	85,38	0	1011,28	6,1	8,1	8	1	1	1	1	1	1	1	1	1	0	1	-5,990134	273,422567	310,908584	0
15.01.2021	06:26:30	0	0	3,841501	3,01575	1,9152	-0,424	85,387	0	1011,24	6,1	8,1	8	1	1	1	1	1	1	1	1	1	0	1	-2,255109	273,572987	315,341536	0
15.01.2021	06:26:31	0	0	3,61553	2,97225	5,2344	-0,428	85,384	0	1011,18	6,1	8,2	8	1	1	1	1	1	1	1	1	1	0	1	-4,298802	273,447074	312,713549	0
15.01.2021	06:26:32	0	0	4,971324	2,87025	1,1772	-0,423	85,387	0	1011,26	6,1	8,1	8,1	1	1	1	1	1	1	1	1	1	0	1	-2,748414	273,541069	314,70004	0
15.01.2021	06:26:33	0	0	4,519412	3,0945	7,1352	-0,427	85,377	0	1011,12	6,1	8,1	8	1	1	1	1	1	1	1	1	1	0	1	-7,540521	273,572987	310,056124	0
15.01.2021	06:26:34	0	0	4,406427	3,34425	6,0732	-0,427	85,369	0	1011,26	6,1	8,1	8	1	1	1	1	1	1	1	1	1	0	1	-6,483439	273,447074	310,528912	0
15.01.2021	06:26:35	0	0	3,163589	3,39225	7,884	-0,426	85,393	0	1011,2	6,1	8,2	8	1	1	1	1	1	1	1	1	1	0	1	-0	273,395213	316,771924	0
15.01.2021	06:26:36	0	0	2,937618	3,18525	360	-0,431	85,375	0	1011,2	6,1	8,1	8	1	1	1	1	1	1	1	1	1	0	1	-0,916138	273,449959	316,109593	0
15.01.2021	06:26:37	0	0	4,293442	3,081	7,866	-0,426	85,393	0	1011,22	6,1	8,1	8	1	1	1	1	1	1	1	1	1	0	1	-1,198027	273,588966	316,472826	0
15.01.2021	06:26:38	0	0	2,598662	2,81625	10,818	-0,422	85,388	0	1011,04	6,1	8,2	8	1	1	1	1	1	1	1	1	1	0	1	-8,879493	273,435537	308,079362	0
15.01.2021	06:26:39	0	0	2,711647	2,5695	9,378	-0,427	85,395	0	1011,14	6,1	8,1	8	1	1	1	1	1	1	1	1	1	0	1	-3,59408	273,55557	313,921697	0
15.01.2021	06:26:40	0	0	2,937618	2,691	21,0132	-0,424	85,389	0	1011,2	6,1	8,1	8	1	1	1	1	1	1	1	1	1	0	1	-1,198027	273,399529	315,593903	0
15.01.2021	06:26:41	0	0	4,180456	3,0825	19,5372	-0,428	85,4	0	1011,1	6,1	8,1	8	1	1	1	1	1	1	1	1	1	0	1	-6,412967	273,496183	310,827177	0
15.01.2021	06:26:42	0	0	4,745383	3,249	23,5836	-0,426	85,389	0	1011,08	6,1	8,2	8	1	1	1	1	1	1	1	1	1	0	1	-3,946441	273,571535	313,643462	0
15.01.2021	06:26:43	0	0	4,858339	3,37275	14,2956	-0,426	85,399	0	1011,14	6,1	8,2	8,1	1	1	1	1	1	1	1	1	1	0	1	-3,875969	273,53672	313,552301	0
15.01.2021	06:26:44	0	0	3,841501	3,366	15,408	-0,425	85,393	0	1011,2	6,1	8,2	8	1	1	1	1	1	1	1	1	1	0	1	-4,369274	273,411045	312,47603	0
15.01.2021	06:26:45	0	0	2,711631	3,366	21,3804	-0,425	85,39	0	1011,22	6,1	8,2	8,1	1	1	1	1	1	1	1	1	1	0	1	-2,396054	273,448517	314,622987	0
15.01.2021	06:26:46	0	0	4,745383	3,34725	20,2788	-0,422	85,396	0	1011,16	6,1	8,2	8	1	1	1	1	1	1	1	1	1	0	1	-3,523608	273,513546	313,797102	0
15.01.2021	06:26:47	0	0	4,180456	3,24675	17,2332	-0,426	85,395	0	1011	6,1	8,2	8	1	1	1	1	1	1	1	1	1	0	1	-5,355884	273,409605	311,482746	0
15.01.2021	06:26:48	0	0	3,954486	3,255	18,8352	-0,424	85,393	0	1011,32	6,1	8,2	8	1	1	1	1	1	1	1	1	1	0	1	-0,493305	273,474502	316,646255	0
15.01.2021	06:26:49	0	0	4,745383	3,198	21,0132	-0,432	85,395	0	1011,22	6,1	8,2	8	1	1	1	1	1	1	1	1	1	0	1	-3,59408	273,572987	314,002565	0
15.01.2021	06:26:50	0	0	4,406401	3,13425	16,848	-0,436	85,385	0	1011,24	6,1	8,2	8,1	1	1	1	1	1	1	1	1	1	0	1	-1,761804	273,542518	315,69338	0
15.01.2021	06:26:51	0	0	3,502524	3,078	19,5372	-0,431	85,395	0	1011,16	6,1	8,2	8,1	1	1	1	1	1	1	1	1	1	0	1	-6,272023	273,480281	310,894347	0
15.01.2021	06:26:52	0	0	3,841501	3,00675	15,0444	-0,43	85,393	0	1010,96	6,1	8,1	8	1	1	1	1	1	1	1	1	1	0	1	-0	273,574439	317,603389	0
15.01.2021	06:26:53	0	0	4,632398	3,15375	18,828	-0,427	85,372	0	1011,14	6,1	8,2	8	1	1	1	1	1	1	1	1	1	0	1	-6,060606	273,539619	311,381119	0
15.01.2021	06:26:54	0	0	5,197324	3,17925	15,408	-0,423	85,397	0	1011,24	6,1	8,2	8	1	1	1	1	1	1	1	1	1	0	1	-7,540521	273,580248	310,089845	0
15.01.2021	06:26:55	0	0	3,163589	3,05775	19,53	-0,435	85,387	0	1011,08	6,1	8,2	8	1	1	1	1	1	1	1	1	1	0	1	-6,131078	273,454288	310,914727	0
15.01.2021	06:26:56	0	0	4,406427	2,84175	13,1688	-0,429	85,376	0	1010,88	6,1	8,1	8	1	1	1	1	1	1	1	1	1	0	1	-0	273,438421	316,972225	0
15.01.2021	06:26:57	0	0	2,711631	2,832	7,8912	-0,427	85,368	0	1011,24	6,1	8,1	8,1	1	1	1	1	1	1	1	1	1	0	1	-10,359408	273,403847	306,452532	0
15.01.2021	06:26:58	0	0	4,519385	3,10425	15,03	-0,425	85,381	0	1011,16	6,1	8,1	8,1	1	1	1	1	1	1	1	1	1	0	1	-1,761804	273,496183	315,47834	0
15.01.2021	06:26:59	0	0	3,389559	2,8695	13,9248	-0,426	85,385	0	1011,06	6,1	8,2	8	1	1	1	1	1	1	1	1	1	0	1	-4,22833	273,416805	312,643676	0
15.01.2021	06:27:00	0	0	3,728493	2,49	19,1556	-0,426	85,378	0	1011,12	6,1	8,2	8,1	1	1	1	1	1	1	1	1	1	0	1	-4,439746	273,572987	313,156899	0
15.01.2021	06:27:01	0	0	5,084339	2,421	14,058	-0,417	85,381	0	1011,46	6,1	8,2	8	1	1	1	1	1	1	1	1	1	0	1	-4,439746	273,572987	313,156899	0
15.01.2021	06:27:02	0	0	5,084339	2,421	14,058	-0,417	85,381	0	1011,46	6,1	8,2	8	1	1	1	1	1	1	1	1	1	0	1	-3,312192	273,551219	314,183382	0
15.01.2021	06:27:03	0	0	2,259706	2,532	16,1064	-0,428	85,385	0	1011,22	6,1	8,2	8	1	1	1	1	1	1	1	1	1	0	1	-3,59408	273,507757	313,699765	0
15.01.2021	06:27:04	0	0	3,61553	2,61525	22,8348	-0,424	85,377	0	1011,1	6,1	8,2	8	1	1	1	1	1	1	1	1	1	0	1	-9,725159	273,392336	307,033431	0
15.01.2021	06:27:05	0	0	4,632398	2,634	19,6452	-0,422	85,393	0	1011,3	6,1	8,2	8	1	1	1	1	1	1	1	1	1	0	1	-3,100775	273,512098	314,213218	0
15.01.2021	06:27:06	0	0	4,745355	2,76675	13,5432	-0,424	85,365	0	1011,12	6,1	8,2	8,1	1	1	1	1	1	1	1	1	1	0	1	-4,651163	273,429772	312,280958	0
15.01.2021	06:27:07	0	0	3,163589	3,0375	23,22	-0,431	85,37	0	1011,14	6,1	8,2	8	1	1	1	1	1	1	1	1	1	0	1	-4,439746	273,435537	312,519108	0
15.01.2021	06:27:08	0	0	4,745383	3,23025	19,9008	-0,429	85,386	0	1011,2	6,1	8,2	8	1	1	1	1	1	1	1	1	1	0	1	-8,104299	273,545418	309,364346	0
15.01.2021	06:27:09	0	0	3,728493	3,07125	24,4584	-0,426	85,384	0	1011,24	6,1	8,2	8,1	1	1	1	1	1	1	1	1	1	0	1	-2,677942	273,570083	314,905219	0
15.01.2021	06:27:10	0	0	3,050585	2,8875	18,0864	-0,429	85,382	0	1011,3	6,1	8,1	8,1	1	1	1	1	1	1	1	1	1	0	1	-2,889359	273,486062	314,303829	0
15.01.2021	06:27:11	0	0	3,502545	2,99925	8,9928	-0,43	85,373	0	1011,12	6,1	8,2	8	1	1	1	1	1	1	1	1	1	0	1	-1,761804	273,568631	315,814616	0
15.01.2021	06:27:12	0	0	3,841501	2,96475	13,1652	-0,43	85,372	0	1011,08	6,1	8,2	8	1	1	1	1	1	1	1	1	1	0	1	-7,399577	273,543968	310,062337	0
15.01.2021	06:27:13	0	0	2,485677	2,98425	9,756	-0,422	85,381	0	1011,14	6,1	8,2	8	1	1	1	1	1	1	1	1	1	0	1	-6,765328	273,411045	310,079977	0
15.01.2021	06:27:14	0	0	3,502524	2,98875	20,2896	-0,428	85,388	0	1011,26	6,1	8,2	8,1	1	1	1	1	1	1	1	1	1	0	1	-1,832276	273,42833	315,093163	0
15.01.2021	06:27:15	0	0	3,841478	2,874	23,5944	-0,428	85,363	0	1011,14	6,1	8,2	8,1	1	1	1	1	1	1	1	1	1	0	1	-6,553911	273,46728	310,552151	0
15.01.2021	06:27:16	0	0	2,485677	2,77125	5,2272	-0,428	85,385	0	1010,96	6,1	8,2	8	1	1	1	1	1	1	1	1	1	0	1	-6,694856	273,396652	310,083736	0
15.01.2021	06:27:17	0	0	4,63237	2,50275	9,378	-0,426	85,388	0	1011,2	6,1	8,2	8,1	1	1	1	1	1	1	1	1	1	0	1	-6,412967	273,507757	310,880878	0
15.01.2021	06:27:18	0	0	2,824633	2,32275	18,09	-0,431	85,378	0	1011,12	6,1	8,2	8	1	1	1	1	1	1	1	1	1	0	1	-3,523608	273,413924	313,335046	0
15.01.2021	06:27:19	0	0	4,067447	2,25225	16,488	-0,425	85,364	0	1011,18	6,1	8,2	8,1	1	1	1	1	1	1	1	1	1	0	1	-8,668076	273,486062	308,525112	0
15.01.2021	06:27:20	0	0	2,9376	2,26875	20,6352	-0,428	85,376	0	1011,2	6,1	8,2	8,1	1	1	1	1	1	1	1	1	1	0	1	-3,59408	273,578796	314,029541	0
15.01.2021	06:27:21	0	0	4,293416	2,295	13,5432	-0,428	85,374	0	1011,16	6,1	8,2	8,1	1	1	1	1	1	1	1	1	1	0	1	-3,030303	273,452845	314,00881	0
15.01.2021	06:27:22	0	0	4,745383	2,382	27,648	-0,426	85,375	0	1011,18	6,1	8,2	8	1	1	1	1	1	1	1	1	1	0	1	-7,258633	273,580248	310,371734	0
15.01.2021	06:27:23	0	0	4,180456	2,39625	24,7248	-0,427	85,396	0	1011,16	6,1	8,2	8	1	1	1	1	1	1	1	1	1	0	1	-6,272023	273,500522	310,988255	0
15.01.2021	06:27:24	0	0	2,9376	2,46525	23,2236	-0,432	85,386	0	1011,16	6,1	8,2	8,1	1	1	1	1	1	1	1	1	1	0	1	-4,721635	273,39809	312,063625	0
15.01.2021	06:27:25	0	0	3,502545	2,45175	28,7208	-0,429	85,373	0	1011,32	6,2	8,2	8	1	1	1	1	1	1	1	1	1	0	1	-7,751938	273,519337	309,595648	0
15.01.2021	06:27:26	0	0	3,841478	2,36175	20,6352	-0,43	85,392	0	1011,24	6,1	8,2	8,1	1	1	1	1	1	1	1	1	1	0	1	-4,721635	273,581701	312,915478	0
15.01.2021	06:27:27	0	0	3,502524	2,19075	12,852	-0,426	85,378	0	1011,16	6,1	8,1	8,1	1	1	1	1	1	1	1	1	1	0	1	-6,976744	273,462949	310,109227	0
15.01.2021	06:27:28	0	0	2,937618	2,055	24,7248	-0,429	85,383	0	1011,16	6,1	8,1	8	1	1	1	1	1	1	1	1	1	0	1	-5,778717	273,578796	311,844904	0
15.01.2021	06:27:29	0	0	3,163589	1,96875	11,7216	-0,428	85,383	0	1011,1	6,1	8,2	8	1	1	1	1	1	1	1	1	1	0	1	-3,875969	273,418245	313,002714	0
15.01.2021	06:27:30	0	0	4,180431	2,037	18,072	-0,432	85,371	0	1011,06	6,1	8,2	8,1	1	1	1	1	1	1	1	1	1	0	1	-4,22833	273,572987	313,368316	0
15.01.2021	06:27:31	0	0	4,067471	2,262	26,91	-0,42	85,397	0	1011,28	6,1	8,2	8	1	1	1	1	1	1	1	1	1	0	1	-4,087385	273,512098	313,226608	0
15.01.2021	06:27:32	0	0	3,954486	2,42625	4,4784	-0,427	85,382	0	1011,22	6,2	8,2	8	1	1	1	1	1	1	1	1	1	0	1	-6,060606	273,568631	311,515814	0
15.01.2021	06:27:33	0	0	3,954486	2,32425	19,9008	-0,432	85,355	0	1011,16	6,1	8,2	8	1	1	1	1	1	1	1	1	1	0	1	-5,355884	273,425448	311,556193	0
15.01.2021	06:27:34	0	0	4,293442	2,21625	19,9116	-0,429	85,386	0	1011,16	6,1	8,2	8	1	1	1	1	1	1	1	1	1	0	1	-3,735025	273,449959	313,290706	0
15.01.2021	06:27:35	0	0	3,615508	2,1765	7,1388	-0,428	85,375	0	1011,26	6,1	8,2	8,1	1	1	1	1	1	1	1	1	1	0	1	-6,553911	273,548318	310,928197	0
15.01.2021	06:27:36	0	0	4,180456	2,22375	5,2308	-0,425	85,388	0	1011,24	6,1	8,2	8	1	1	1	1	1	1	1	1	1	0	1	-1,761804	273,539619	315,679921	0
15.01.2021	06:27:37	0	0	2,937618	2,313	12,4632	-0,43	85,377	0	1011,18	6,1	8,2	8	1	1	1	1	1	1	1	1	1	0	1	-8,879493	273,39809	307,905768	0
15.01.2021	06:27:38	0	0	2,711631	2,51925	9,0036	-0,428	85,385	0	1011,28	6,1	8,2	8,1	1	1	1	1	1	1	1	1	1	0	1	-7,892882	273,519337	309,454703	0
15.01.2021	06:27:39	0	0	3,163589	2,7	3,0312	-0,427	85,385	0	1011,16	6,1	8,1	8	1	1	1	1	1	1	1	1	1	0	1	-5,708245	273,409605	311,130385	0
15.01.2021	06:27:40	0	0	2,711631	2,793	10,458	-0,425	85,385	0	1011,16	6,1	8,2	8,1	1	1	1	1	1	1	1	1	1	0	1	-11,839323	273,444189	305,159649	0
15.01.2021	06:27:41	0	0	2,824633	2,688	22,8456	-0,433	85,376	0	1011,16	6,1	8,2	8	1	1	1	1	1	1	1	1	1	0	1	-3,664553	273,415365	313,200777	0
15.01.2021	06:27:42	0	0	4,63237	2,4225	13,5504	-0,435	85,386	0	1011,1	6,1	8,2	8,1	1	1	1	1	1	1	1	1	1	0	1	-5,778717	273,545418	311,689927	0
15.01.2021	06:27:43	0	0	3,841478	2,2185	13,5468	-0,422	85,389	0	1011,04	6,2	8,1	8,1	1	1	1	1	1	1	1	1	1	0	1	-7,681466	273,449959	309,344265	0
15.01.2021	06:27:44	0	0	2,711631	2,07675	26,1792	-0,425	85,384	0	1011,24	6,1	8,1	8,1	1	1	1	1	1	1	1	1	1	0	1	-7,399577	273,442747	309,592708	0
15.01.2021	06:27:45	0	0	3,841478	1,95525	25,0416	-0,428	85,37	0	1011,16	6,1	8,2	8,1	1	1	1	1	1	1	1	1	1	0	1	-5,003524	273,516441	312,330623	0
15.01.2021	06:27:46	0	0	4,067471	1,8345	32,508	-0,424	85,384	0	1011,2	6,1	8,2	8	1	1	1	1	1	1	1	1	1	0	1	-8,245243	273,53817	309,189754	0
15.01.2021	06:27:47	0	0	4,519385	1,81125	26,9028	-0,429	85,384	0	1011,08	6,1	8,1	8,1	1	1	1	1	1	1	1	1	1	0	1	-5,919662	273,551219	311,575912	0
15.01.2021	06:27:48	0	0	3,728493	1,929	35,082	-0,425	85,389	0	1011,24	6,1	8,2	8,1	1	1	1	1	1	1	1	1	1	0	1	-4,721635	273,587513	312,942469	0
15.01.2021	06:27:49	0	0	4,858339	1,93275	18,4644	-0,432	85,388	0	1011,16	6,1	8,1	8,1	1	1	1	1	1	1	1	1	1	0	1	-6,694856	273,519337	310,65273	0
15.01.2021	06:27:50	0	0	2,937618	1,92	30,7116	-0,43	85,377	0	1011,14	6,1	8,2	8	1	1	1	1	1	1	1	1	1	0	1	-8,033827	273,591872	309,650527	0
15.01.2021	06:27:51	0	0	3,276554	1,93275	29,5668	-0,431	85,385	0	1011,1	6,1	8,2	8,1	1	1	1	1	1	1	1	1	1	0	1	-6,412967	273,503416	310,860736	0
15.01.2021	06:27:52	0	0	2,711647	2,03625	32,1552	-0,43	85,39	0	1011,14	6,1	8,2	8	1	1	1	1	1	1	1	1	1	0	1	-1,62086	273,588966	316,049993	0
15.01.2021	06:27:53	0	0	3,050585	2,09025	21,0096	-0,427	85,392	0	1011,1	6,1	8,2	8,1	1	1	1	1	1	1	1	1	1	0	1	-4,157858	273,493291	313,068867	0
15.01.2021	06:27:54	0	0	4,519412	2,16075	25,794	-0,431	85,383	0	1011,2	6,1	8,2	8	1	1	1	1	1	1	1	1	1	0	1	-5,919662	273,570083	311,663499	0
15.01.2021	06:27:55	0	0	3,276554	2,30925	29,592	-0,424	85,4	0	1011,36	6,1	8,2	8,1	1	1	1	1	1	1	1	1	1	0	1	-7,329105	273,580248	310,301262	0
15.01.2021	06:27:56	0	0	2,711631	2,466	23,6124	-0,431	85,378	0	1011,22	6,2	8,2	8,1	1	1	1	1	1	1	1	1	1	0	1	-4,016913	273,520785	313,337392	0
15.01.2021	06:27:57	0	0	4,745383	2,541	32,9868	-0,434	85,393	0	1011,14	6,1	8,2	8	1	1	1	1	1	1	1	1	1	0	1	-7,751938	273,409605	309,086692	0
15.01.2021	06:27:58	0	0	3,502545	2,41275	14,652	-0,42	85,403	0	1011,22	6,1	8,2	8	1	1	1	1	1	1	1	1	1	0	1	-8,527132	273,55412	308,98191	0
15.01.2021	06:27:59	0	0	4,745355	2,388	11,7324	-0,424	85,397	0	1011,14	6,2	8,2	8,1	1	1	1	1	1	1	1	1	1	0	1	-10,147992	273,444189	306,850981	0
15.01.2021	06:28:00	0	0	3,276574	2,349	22,0752	-0,428	85,4	0	1011,2	6,1	8,1	8	1	1	1	1	1	1	1	1	1	0	1	-4,298802	273,460061	312,773778	0
15.01.2021	06:28:01	0	0	3,276574	2,349	22,0752	-0,428	85,4	0	1011,2	6,1	8,1	8	1	1	1	1	1	1	1	1	1	0	1	-4,298802	273,460061	312,773778	0
15.01.2021	06:28:02	0	0	2,9376	2,34975	26,172	-0,426	85,399	0	1011,3	6,1	8,2	8,1	1	1	1	1	1	1	1	1	1	0	1	-5,708245	273,409605	311,130385	0
15.01.2021	06:28:03	0	0	4,180431	2,24625	9,7596	-0,42	85,455	0	1011,24	6,1	8,2	8,1	1	1	1	1	1	1	1	1	1	0	1	-2,959831	273,513546	314,36088	0
15.01.2021	06:28:04	0	0	3,163589	2,15775	23,5836	-0,425	85,396	0	1011,1	6,1	8,2	8	1	1	1	1	1	1	1	1	1	0	1	-4,580691	273,424007	312,324707	0
15.01.2021	06:28:05	0	0	3,841478	2,166	19,53	-0,432	85,398	0	1011,06	6,2	8,2	8,1	1	1	1	1	1	1	1	1	1	0	1	-6,765328	273,53817	310,669669	0
15.01.2021	06:28:06	0	0	3,050603	2,0925	21,7692	-0,427	85,396	0	1011,2	6,1	8,2	8	1	1	1	1	1	1	1	1	1	0	1	-5,778717	273,562825	311,770744	0
15.01.2021	06:28:07	0	0	4,067447	1,998	20,2824	-0,428	85,384	0	1011,12	6,1	8,2	8,1	1	1	1	1	1	1	1	1	1	0	1	-5,778717	273,441305	311,20688	0
15.01.2021	06:28:08	0	0	2,711647	1,896	23,9652	-0,425	85,395	0	1011,26	6,1	8,2	8	1	1	1	1	1	1	1	1	1	0	1	-4,369274	273,46728	312,736788	0
15.01.2021	06:28:09	0	0	4,519385	1,98225	18,0792	-0,423	85,414	0	1011,22	6,1	8,2	8,1	1	1	1	1	1	1	1	1	1	0	1	-8,738548	273,587513	308,925555	0
15.01.2021	06:28:10	0	0	2,711631	2,01	27,6552	-0,434	85,398	0	1011,2	6,1	8,2	8,1	1	1	1	1	1	1	1	1	1	0	1	-5,003524	273,542518	312,45166	0
15.01.2021	06:28:11	0	0	4,180456	2,115	28,7244	-0,429	85,394	0	1011,32	6,1	8,2	8	1	1	1	1	1	1	1	1	1	0	1	-3,171247	273,431213	313,767556	0
15.01.2021	06:28:12	0	0	4,067447	2,211	17,2296	-0,429	85,398	0	1011,2	6,1	8,2	8,1	1	1	1	1	1	1	1	1	1	0	1	-9,372798	273,517889	307,968068	0
15.01.2021	06:28:13	0	0	4,067471	2,24625	19,5228	-0,428	85,387	0	1011,28	6,1	8,2	8	1	1	1	1	1	1	1	1	1	0	1	-4,016913	273,583154	313,626946	0
15.01.2021	06:28:14	0	0	4,293416	2,42775	21,762	-0,426	85,388	0	1011,18	6,1	8,2	8,1	1	1	1	1	1	1	1	1	1	0	1	-9,302326	273,452845	307,736788	0
15.01.2021	06:28:15	0	0	2,9376	2,45925	22,0788	-0,426	85,41	0	1011,38	6,2	8,2	8,1	1	1	1	1	1	1	1	1	1	0	1	-3,59408	273,416805	313,277926	0
15.01.2021	06:28:16	0	0	2,9376	2,487	24,7248	-0,429	85,394	0	1011,22	6,1	8,2	8,1	1	1	1	1	1	1	1	1	1	0	1	-4,22833	273,454288	312,817476	0
15.01.2021	06:28:17	0	0	3,050603	2,529	22,4748	-0,429	85,391	0	1011,1	6,1	8,1	8	1	1	1	1	1	1	1	1	1	0	1	-6,976744	273,449959	310,048987	0
15.01.2021	06:28:18	0	0	4,180431	2,4255	14,2848	-0,43	85,403	0	1011,18	6,2	8,2	8,1	1	1	1	1	1	1	1	1	1	0	1	-3,312192	273,432654	313,633295	0
15.01.2021	06:28:19	0	0	5,084308	2,469	10,4652	-0,425	85,402	0	1011,16	6,2	8,2	8,1	1	1	1	1	1	1	1	1	1	0	1	-4,510218	273,526578	312,870975	0
15.01.2021	06:28:20	0	0	2,824616	2,4945	4,086	-0,424	85,41	0	1011,3	6,1	8,2	8,1	1	1	1	1	1	1	1	1	1	0	1	-5,778717	273,406726	311,046567	0
15.01.2021	06:28:21	0	0	4,858368	2,53425	10,8324	-0,427	85,402	0	1011,34	6,1	8,2	8	1	1	1	1	1	1	1	1	1	0	1	-2,396054	273,473057	314,736806	0
15.01.2021	06:28:22	0	0	3,16357	2,463	9,5292	-0,425	85,39	0	1011,26	6,1	8,2	8,1	1	1	1	1	1	1	1	1	1	0	1	-7,892882	273,416805	308,979124	0
15.01.2021	06:28:23	0	0	2,372677	2,2995	9,7524	-0,433	85,399	0	1011,14	6,1	8,2	8,1	1	1	1	1	1	1	1	1	1	0	1	-9,725159	273,53672	307,703111	0
15.01.2021	06:28:24	0	0	3,276554	2,175	18,0792	-0,425	85,409	0	1011,2	6,1	8,2	8,1	1	1	1	1	1	1	1	1	1	0	1	-5,003524	273,419685	311,881837	0
15.01.2021	06:28:25	0	0	5,31031	2,043	19,9044	-0,426	85,395	0	1011,16	6,1	8,2	8	1	1	1	1	1	1	1	1	1	0	1	-6,412967	273,449959	310,612764	0
15.01.2021	06:28:26	0	0	4,519385	2,0235	12,1032	-0,429	85,408	0	1011,2	6,2	8,2	8,1	1	1	1	1	1	1	1	1	1	0	1	-7,610994	273,558472	309,918255	0
15.01.2021	06:28:27	0	0	3,615508	2,187	8,622	-0,43	85,407	0	1011,34	6,1	8,2	8,1	1	1	1	1	1	1	1	1	1	0	1	-4,721635	273,406726	312,103649	0
15.01.2021	06:28:28	0	0	3,276554	2,34975	21,7692	-0,43	85,395	0	1011,24	6,1	8,2	8,1	1	1	1	1	1	1	1	1	1	0	1	-6,8358	273,535271	310,585743	0
15.01.2021	06:28:29	0	0	4,858339	2,36925	23,9796	-0,433	85,41	0	1011,2	6,2	8,2	8,1	1	1	1	1	1	1	1	1	1	0	1	-5,567301	273,402407	311,237969	0
15.01.2021	06:28:30	0	0	3,389539	2,35275	15,4152	-0,428	85,395	0	1011,24	6,1	8,2	8,1	1	1	1	1	1	1	1	1	1	0	1	-9,936575	273,529475	307,458065	0
15.01.2021	06:28:31	0	0	3,050603	2,373	16,1028	-0,425	85,396	0	1011,12	6,2	8,2	8	1	1	1	1	1	1	1	1	1	0	1	-7,329105	273,602049	310,402519	0
15.01.2021	06:28:32	0	0	4,745355	2,466	15,0408	-0,426	85,407	0	1011,22	6,1	8,2	8,1	1	1	1	1	1	1	1	1	1	0	1	-6,906272	273,464392	310,186396	0
15.01.2021	06:28:33	0	0	5,310278	2,6685	19,5336	-0,427	85,408	0	1011,3	6,1	8,1	8,1	1	1	1	1	1	1	1	1	1	0	1	-7,751938	273,600595	309,972931	0
15.01.2021	06:28:34	0	0	4,180431	2,97525	34,7076	-0,43	85,403	0	1011,16	6,2	8,2	8,1	1	1	1	1	1	1	1	1	1	0	1	-6,8358	273,522233	310,525227	0
15.01.2021	06:28:35	0	0	3,276574	3,17175	22,0716	-0,424	85,408	0	1011,34	6,2	8,2	8	1	1	1	1	1	1	1	1	1	0	1	-6,765328	273,590419	310,912275	0
15.01.2021	06:28:36	0	0	3,276554	3,171	18,4392	-0,424	85,409	0	1011,28	6,2	8,2	8,1	1	1	1	1	1	1	1	1	1	0	1	-8,45666	273,546868	309,018716	0
15.01.2021	06:28:37	0	0	2,9376	3,1095	16,866	-0,428	85,412	0	1011,22	6,2	8,2	8,1	1	1	1	1	1	1	1	1	1	0	1	-4,087385	273,416805	312,784621	0
15.01.2021	06:28:38	0	0	4,971324	3,168	17,2296	-0,425	85,406	0	1011,26	6,1	8,2	8,1	1	1	1	1	1	1	1	1	1	0	1	-3,312192	273,558472	314,217057	0
15.01.2021	06:28:39	0	0	3,61553	3,15675	12,8484	-0,423	85,422	0	1011,24	6,2	8,2	8	1	1	1	1	1	1	1	1	1	0	1	-3,875969	273,574439	313,72742	0
15.01.2021	06:28:40	0	0	3,615508	3,162	20,6496	-0,427	85,404	0	1011,12	6,1	8,2	8,1	1	1	1	1	1	1	1	1	1	0	1	-4,22833	273,432654	312,717157	0
15.01.2021	06:28:41	0	0	4,519385	3,07425	13,9212	-0,428	85,405	0	1011,22	6,1	8,2	8,1	1	1	1	1	1	1	1	1	1	0	1	-6,624383	273,465836	310,474982	0
15.01.2021	06:28:42	0	0	3,728493	2,871	19,53	-0,427	85,415	0	1011,34	6,1	8,2	8,1	1	1	1	1	1	1	1	1	1	0	1	-3,030303	273,405286	313,788309	0
15.01.2021	06:28:43	0	0	2,598647	2,96025	7,5024	-0,429	85,394	0	1011,08	6,1	8,2	8,1	1	1	1	1	1	1	1	1	1	0	1	-1,057082	273,452845	315,982031	0
15.01.2021	06:28:44	0	0	2,711631	2,994	14,3064	-0,43	85,4	0	1011,22	6,2	8,2	8,1	1	1	1	1	1	1	1	1	1	0	1	-4,510218	273,425448	312,401859	0
15.01.2021	06:28:45	0	0	3,16357	2,946	26,9244	-0,423	85,402	0	1011,22	6,2	8,2	8,1	1	1	1	1	1	1	1	1	1	0	1	-7,470049	273,477391	309,682914	0
15.01.2021	06:28:46	0	0	2,824616	3,14925	21,7728	-0,435	85,407	0	1011,1	6,2	8,2	8,1	1	1	1	1	1	1	1	1	1	0	1	-6,131078	273,587513	311,533025	0
15.01.2021	06:28:47	0	0	3,841478	3,252	17,2404	-0,43	85,398	0	1011,28	6,2	8,1	8,1	1	1	1	1	1	1	1	1	1	0	1	-7,188161	273,516441	310,145986	0
15.01.2021	06:28:48	0	0	3,728493	3,17025	25,4016	-0,43	85,409	0	1011,26	6,1	8,2	8,1	1	1	1	1	1	1	1	1	1	0	1	-8,245243	273,594779	309,452613	0
15.01.2021	06:28:49	0	0	5,084308	3,01125	14,3028	-0,432	85,394	0	1011,24	6,1	8,2	8,1	1	1	1	1	1	1	1	1	1	0	1	-1,198027	273,46728	315,908036	0
15.01.2021	06:28:50	0	0	3,841478	2,86425	16,4808	-0,429	85,411	0	1011,08	6,2	8,2	8,1	1	1	1	1	1	1	1	1	1	0	1	-2,396054	273,46728	314,710009	0
15.01.2021	06:28:51	0	0	2,824616	2,9325	14,2956	-0,427	85,391	0	1011,26	6,1	8,2	8,1	1	1	1	1	1	1	1	1	1	0	1	-6,8358	273,583154	310,80806	0
15.01.2021	06:28:52	0	0	3,615508	3,0735	15,3936	-0,429	85,405	0	1011,22	6,1	8,2	8,1	1	1	1	1	1	1	1	1	1	0	1	-8,738548	273,55557	308,777229	0
15.01.2021	06:28:53	0	0	4,406401	3,09075	19,1556	-0,426	85,403	0	1011,26	6,2	8,2	8,1	1	1	1	1	1	1	1	1	1	0	1	-5,496829	273,526578	311,884364	0
15.01.2021	06:28:54	0	0	3,502524	3,12075	15,7932	-0,427	85,407	0	1011,2	6,1	8,2	8,1	1	1	1	1	1	1	1	1	1	0	1	-4,016913	273,409605	312,821717	0
15.01.2021	06:28:55	0	0	2,485662	3,06525	22,842	-0,427	85,397	0	1011,16	6,1	8,2	8,1	1	1	1	1	1	1	1	1	1	0	1	-9,372798	273,597687	308,338563	0
15.01.2021	06:28:56	0	0	3,954462	3,0915	23,2092	-0,426	85,409	0	1011,26	6,1	8,2	8,1	1	1	1	1	1	1	1	1	1	0	1	-5,567301	273,546868	311,908075	0
15.01.2021	06:28:57	0	0	3,050603	2,94375	25,8012	-0,429	85,399	0	1011,26	6,1	8,2	8	1	1	1	1	1	1	1	1	1	0	1	-10,077519	273,418245	306,801164	0
15.01.2021	06:28:58	0	0	2,824616	2,895	23,2128	-0,422	85,406	0	1011,14	6,2	8,2	8,1	1	1	1	1	1	1	1	1	1	0	1	-4,087385	273,449959	312,938345	0
15.01.2021	06:28:59	0	0	4,180431	2,99475	21,3912	-0,428	85,402	0	1011,28	6,1	8,2	8,1	1	1	1	1	1	1	1	1	1	0	1	-11,346018	273,411045	305,499286	0
15.01.2021	06:29:00	0	0	2,9376	3,066	26,19	-0,425	85,401	0	1011,36	6,1	8,2	8,1	1	1	1	1	1	1	1	1	1	0	1	-9,090909	273,56718	308,47877	0
15.01.2021	06:29:01	0	0	2,9376	3,066	26,19	-0,425	85,401	0	1011,36	6,1	8,2	8,1	1	1	1	1	1	1	1	1	1	0	1	-9,090909	273,56718	308,47877	0
15.01.2021	06:29:02	0	0	4,067447	3,05325	22,4712	-0,425	85,399	0	1011,26	6,2	8,2	8,1	1	1	1	1	1	1	1	1	1	0	1	-6,272023	273,504863	311,008394	0
15.01.2021	06:29:03	0	0	3,389559	3,01275	24,7284	-0,425	85,393	0	1011,32	6,1	8,2	8	1	1	1	1	1	1	1	1	1	0	1	-5,919662	273,561374	311,623062	0
15.01.2021	06:29:04	0	0	3,841478	2,83425	20,286	-0,429	85,386	0	1011,2	6,1	8,2	8,1	1	1	1	1	1	1	1	1	1	0	1	-4,22833	273,442747	312,763955	0
15.01.2021	06:29:05	0	0	3,050585	2,697	24,3468	-0,424	85,393	0	1011,24	6,2	8,2	8,1	1	1	1	1	1	1	1	1	1	0	1	-2,818887	273,413924	314,039767	0
15.01.2021	06:29:06	0	0	3,841478	2,57625	9,8532	-0,425	85,4	0	1011,12	6,2	8,2	8,1	1	1	1	1	1	1	1	1	1	0	1	-2,748414	273,454288	314,297391	0
15.01.2021	06:29:07	0	0	2,824616	2,6565	14,31	-0,423	85,404	0	1011,28	6,1	8,2	8,1	1	1	1	1	1	1	1	1	1	0	1	-5,84919	273,449959	311,176541	0
15.01.2021	06:29:08	0	0	3,728493	2,70975	19,1412	-0,421	85,403	0	1011,3	6,1	8,2	8,1	1	1	1	1	1	1	1	1	1	0	1	-2,536998	273,588966	315,133855	0
15.01.2021	06:29:09	0	0	4,180431	2,73975	13,9176	-0,425	85,394	0	1011,2	6,1	8,2	8,1	1	1	1	1	1	1	1	1	1	0	1	-3,946441	273,516441	313,387706	0
15.01.2021	06:29:10	0	0	3,389539	2,7015	21,7836	-0,422	85,404	0	1011,22	6,1	8,2	8,1	1	1	1	1	1	1	1	1	1	0	1	-3,382664	273,402407	313,422606	0
15.01.2021	06:29:11	0	0	5,197293	2,7675	15,0336	-0,427	85,375	0	1011,22	6,2	8,2	8,1	1	1	1	1	1	1	1	1	1	0	1	-8,315715	273,529475	309,078925	0
15.01.2021	06:29:12	0	0	4,067447	3,03075	10,4544	-0,428	85,394	0	1011,3	6,1	8,2	8,1	1	1	1	1	1	1	1	1	1	0	1	-5,919662	273,584606	311,730945	0
15.01.2021	06:29:13	0	0	2,9376	3,0825	25,4232	-0,429	85,398	0	1011,1	6,1	8,2	8,1	1	1	1	1	1	1	1	1	1	0	1	-5,567301	273,578796	312,05632	0
15.01.2021	06:29:14	0	0	4,63237	2,96625	14,652	-0,423	85,406	0	1011,4	6,2	8,2	8,1	1	1	1	1	1	1	1	1	1	0	1	-2,677942	273,545418	314,790702	0
15.01.2021	06:29:15	0	0	3,502524	2,805	18,8424	-0,425	85,378	0	1011,04	6,1	8,2	8,1	1	1	1	1	1	1	1	1	1	0	1	-6,412967	273,402407	310,392303	0
15.01.2021	06:29:16	0	0	3,050585	2,68725	19,53	-0,427	85,4	0	1011,22	6,2	8,2	8,1	1	1	1	1	1	1	1	1	1	0	1	-4,792107	273,52513	312,582363	0
15.01.2021	06:29:17	0	0	3,954462	2,7195	15,4152	-0,43	85,396	0	1011,18	6,2	8,2	8,1	1	1	1	1	1	1	1	1	1	0	1	-4,298802	273,411045	312,546502	0
15.01.2021	06:29:18	0	0	3,502524	2,84625	18,846	-0,432	85,393	0	1011,16	6,2	8,2	8,1	1	1	1	1	1	1	1	1	1	0	1	-7,892882	273,520785	309,461423	0
15.01.2021	06:29:19	0	0	4,293416	2,9025	18,1044	-0,422	85,408	0	1011,18	6,2	8,2	8,1	1	1	1	1	1	1	1	1	1	0	1	-5,355884	273,600595	312,368985	0
15.01.2021	06:29:20	0	0	2,372677	2,86575	22,8312	-0,424	85,404	0	1011,28	6,2	8,2	8,1	1	1	1	1	1	1	1	1	1	0	1	-7,82241	273,473057	309,310449	0
15.01.2021	06:29:21	0	0	3,615508	2,71725	27,27	-0,423	85,412	0	1011,3	6,1	8,2	8,1	1	1	1	1	1	1	1	1	1	0	1	-7,117689	273,583154	310,526171	0
15.01.2021	06:29:22	0	0	2,485662	2,616	16,4736	-0,423	85,403	0	1011,3	6,2	8,2	8,1	1	1	1	1	1	1	1	1	1	0	1	-4,087385	273,439863	312,891525	0
15.01.2021	06:29:23	0	0	4,180456	2,544	20,646	-0,426	85,377	0	1011,2	6,2	8,2	8	1	1	1	1	1	1	1	1	1	0	1	-7,610994	273,55557	309,904783	0
15.01.2021	06:29:24	0	0	3,954462	2,67225	22,4676	-0,427	85,392	0	1011,1	6,1	8,2	8,1	1	1	1	1	1	1	1	1	1	0	1	-6,976744	273,559923	310,559242	0
15.01.2021	06:29:25	0	0	2,711631	2,817	8,9856	-0,425	85,403	0	1011,36	6,2	8,2	8,1	1	1	1	1	1	1	1	1	1	0	1	-3,523608	273,522233	313,837419	0
15.01.2021	06:29:26	0	0	3,276554	3,024	18,8316	-0,426	85,396	0	1011,22	6,2	8,2	8,1	1	1	1	1	1	1	1	1	1	0	1	-9,231853	273,405286	307,586759	0
15.01.2021	06:29:27	0	0	2,824616	2,8845	17,2332	-0,423	85,393	0	1011,08	6,1	8,2	8,1	1	1	1	1	1	1	1	1	1	0	1	-5,84919	273,458618	311,216696	0
15.01.2021	06:29:28	0	0	2,598647	2,808	16,8516	-0,427	85,383	0	1011,28	6,2	8,2	8,1	1	1	1	1	1	1	1	1	1	0	1	-7,963354	273,577343	309,653522	0
15.01.2021	06:29:29	0	0	4,406401	2,86575	9,3708	-0,427	85,396	0	1011,22	6,1	8,2	8,1	1	1	1	1	1	1	1	1	1	0	1	-10,711769	273,545418	306,756876	0
15.01.2021	06:29:30	0	0	3,502545	3,04125	19,5264	-0,425	85,397	0	1011,18	6,1	8,2	8	1	1	1	1	1	1	1	1	1	0	1	-6,060606	273,574439	311,542782	0
15.01.2021	06:29:31	0	0	2,9376	2,92275	18,8568	-0,434	85,388	0	1011,1	6,2	8,2	8,1	1	1	1	1	1	1	1	1	1	0	1	-5,567301	273,448517	311,451739	0
15.01.2021	06:29:32	0	0	4,858339	2,73975	9,846	-0,423	85,399	0	1011,28	6,1	8,2	8,1	1	1	1	1	1	1	1	1	1	0	1	-6,624383	273,551219	310,87119	0
15.01.2021	06:29:33	0	0	3,16357	2,72025	8,6148	-0,428	85,376	0	1011,32	6,1	8,2	8,1	1	1	1	1	1	1	1	1	1	0	1	-7,751938	273,432654	309,193549	0
15.01.2021	06:29:34	0	0	4,971324	2,727	8,262	-0,428	85,376	0	1011,34	6,2	8,2	8,1	1	1	1	1	1	1	1	1	1	0	1	-5,567301	273,483172	311,612476	0
15.01.2021	06:29:35	0	0	4,180431	2,5695	16,1028	-0,42	85,398	0	1011,26	6,2	8,2	8,1	1	1	1	1	1	1	1	1	1	0	1	-7,963354	273,588966	309,707498	0
15.01.2021	06:29:36	0	0	3,502524	2,358	14,3136	-0,429	85,375	0	1011,32	6,2	8,2	8,1	1	1	1	1	1	1	1	1	1	0	1	-7,470049	273,528027	309,917867	0
15.01.2021	06:29:37	0	0	2,372677	2,34825	20,6388	-0,426	85,369	0	1011,38	6,2	8,2	8,1	1	1	1	1	1	1	1	1	1	0	1	-5,073996	273,584606	312,576611	0
15.01.2021	06:29:38	0	0	3,276554	2,2425	17,226	-0,431	85,38	0	1011,34	6,1	8,2	8,1	1	1	1	1	1	1	1	1	1	0	1	-1,691332	273,439863	315,287579	0
15.01.2021	06:29:39	0	0	4,858339	2,29275	19,5156	-0,422	85,38	0	1011,24	6,2	8,2	8,1	1	1	1	1	1	1	1	1	1	0	1	-4,721635	273,461505	312,357641	0
15.01.2021	06:29:40	0	0	4,519385	2,23425	20,016	-0,428	85,371	0	1011,18	6,2	8,2	8,1	1	1	1	1	1	1	1	1	1	0	1	-9,866103	273,557021	307,65641	0
15.01.2021	06:29:41	0	0	2,485662	2,28225	20,646	-0,426	85,378	0	1011,2	6,2	8,2	8,1	1	1	1	1	1	1	1	1	1	0	1	-5,355884	273,483172	311,823893	0
15.01.2021	06:29:42	0	0	2,711647	2,325	23,9688	-0,423	85,377	0	1011,2	6,1	8,2	8	1	1	1	1	1	1	1	1	1	0	1	-6,906272	273,429772	310,025849	0
15.01.2021	06:29:43	0	0	2,372692	2,42175	18,8424	-0,425	85,377	0	1011,14	6,2	8,2	8	1	1	1	1	1	1	1	1	1	0	1	-5,990134	273,477391	311,162829	0
15.01.2021	06:29:44	0	0	3,050585	2,44725	24,7176	-0,419	85,383	0	1011,36	6,2	8,2	8,1	1	1	1	1	1	1	1	1	1	0	1	-5,144468	273,558472	312,384781	0
15.01.2021	06:29:45	0	0	4,745355	2,41875	16,8624	-0,428	85,376	0	1011,24	6,2	8,2	8,1	1	1	1	1	1	1	1	1	1	0	1	-5,355884	273,587513	312,308219	0
15.01.2021	06:29:46	0	0	3,502524	2,44725	13,9248	-0,424	85,377	0	1011,06	6,2	8,2	8,1	1	1	1	1	1	1	1	1	1	0	1	-5,919662	273,535271	311,501881	0
15.01.2021	06:29:47	0	0	2,711631	2,51475	16,8768	-0,425	85,376	0	1011,14	6,2	8,2	8,1	1	1	1	1	1	1	1	1	1	0	1	-6,906272	273,419685	309,979089	0
15.01.2021	06:29:48	0	0	3,615508	2,7225	4,8456	-0,427	85,387	0	1011,16	6,1	8,2	8,1	1	1	1	1	1	1	1	1	1	0	1	-7,610994	273,519337	309,736592	0
15.01.2021	06:29:49	0	0	3,389539	2,71875	9,018	-0,422	85,367	0	1011,12	6,1	8,2	8,1	1	1	1	1	1	1	1	1	1	0	1	-6,8358	273,421126	310,056239	0
15.01.2021	06:29:50	0	0	3,954462	2,77575	16,0884	-0,431	85,362	0	1011,2	6,2	8,2	8,1	1	1	1	1	1	1	1	1	1	0	1	-6,412967	273,481726	310,760106	0
15.01.2021	06:29:51	0	0	3,615508	3,012	9,0072	-0,423	85,382	0	1011,18	6,1	8,2	8,1	1	1	1	1	1	1	1	1	1	0	1	-5,285412	273,438421	311,686813	0
15.01.2021	06:29:52	0	0	4,745355	3,0945	12,4812	-0,432	85,374	0	1011,16	6,2	8,2	8,1	1	1	1	1	1	1	1	1	1	0	1	-10,711769	273,523681	306,655979	0
15.01.2021	06:29:53	0	0	4,293416	2,97225	19,1556	-0,426	85,38	0	1011,26	6,1	8,2	8,1	1	1	1	1	1	1	1	1	1	0	1	-6,412967	273,572987	311,183679	0
15.01.2021	06:29:54	0	0	2,598647	2,70225	17,2908	-0,429	85,366	0	1011,14	6,1	8,2	8,1	1	1	1	1	1	1	1	1	1	0	1	-8,597604	273,444189	308,401369	0
15.01.2021	06:29:55	0	0	4,519385	2,511	19,1556	-0,419	85,378	0	1011,22	6,2	8,2	8,1	1	1	1	1	1	1	1	1	1	0	1	-10,218464	273,458618	306,847422	0
15.01.2021	06:29:56	0	0	4,293416	2,45625	27,6624	-0,426	85,39	0	1011,26	6,2	8,2	8,1	1	1	1	1	1	1	1	1	1	0	1	-10,570825	273,590419	307,106778	0
15.01.2021	06:29:57	0	0	3,61553	2,4495	26,9172	-0,425	85,391	0	1011,3	6,2	8,2	8	1	1	1	1	1	1	1	1	1	0	1	-6,342495	273,434096	310,609675	0
15.01.2021	06:29:58	0	0	3,615508	2,31	30,7944	-0,426	85,375	0	1011,32	6,2	8,2	8,1	1	1	1	1	1	1	1	1	1	0	1	-8,174771	273,559923	309,361215	0
15.01.2021	06:29:59	0	0	3,389539	2,21025	22,0716	-0,427	85,384	0	1011,2	6,2	8,2	8,1	1	1	1	1	1	1	1	1	1	0	1	-7,258633	273,528027	310,129284	0
15.01.2021	06:30:00	0	0	4,180431	2,30175	21,0096	-0,421	85,394	0	1011,2	6,2	8,2	8,1	1	1	1	1	1	1	1	1	1	0	1	-7,540521	273,56718	310,029158	0
15.01.2021	06:30:01	0	0	4,180431	2,30175	21,0096	-0,421	85,394	0	1011,2	6,2	8,2	8,1	1	1	1	1	1	1	1	1	1	0	1	-7,540521	273,56718	310,029158	0
15.01.2021	06:30:02	0	0	3,954462	2,36625	15,7968	-0,419	85,389	0	1011,34	6,2	8,2	8,1	1	1	1	1	1	1	1	1	1	0	1	-7,82241	273,461505	309,256865	0
15.01.2021	06:30:03	0	0	2,598662	2,64525	25,4124	-0,427	85,372	0	1011,2	6,2	8,2	8	1	1	1	1	1	1	1	1	1	0	1	-6,694856	273,461505	310,38442	0
15.01.2021	06:30:04	0	0	3,615508	2,6775	18,4248	-0,429	85,38	0	1011,22	6,2	8,2	8,1	1	1	1	1	1	1	1	1	1	0	1	-4,933051	273,564277	312,623149	0
15.01.2021	06:30:05	0	0	4,745355	2,85375	13,2552	-0,424	85,373	0	1011,16	6,2	8,2	8,1	1	1	1	1	1	1	1	1	1	0	1	-6,20155	273,584606	311,449057	0
15.01.2021	06:30:06	0	0	3,050585	2,86725	23,9724	-0,428	85,379	0	1011,28	6,2	8,2	8,1	1	1	1	1	1	1	1	1	1	0	1	-3,24172	273,513546	314,078991	0
15.01.2021	06:30:07	0	0	3,502545	2,754	1,1772	-0,426	85,384	0	1011,26	6,2	8,2	8	1	1	1	1	1	1	1	1	1	0	1	-3,523608	273,412484	313,328371	0
15.01.2021	06:30:08	0	0	4,519385	2,742	19,5372	-0,426	85,394	0	1011,28	6,1	8,2	8,1	1	1	1	1	1	1	1	1	1	0	1	-8,386187	273,488953	308,820413	0
15.01.2021	06:30:09	0	0	3,954462	2,7855	17,3268	-0,432	85,373	0	1011,14	6,2	8,2	8,1	1	1	1	1	1	1	1	1	1	0	1	-3,24172	273,581701	314,395393	0
15.01.2021	06:30:10	0	0	4,745355	2,829	26,172	-0,423	85,37	0	1011,22	6,1	8,2	8,1	1	1	1	1	1	1	1	1	1	0	1	-2,748414	273,413924	314,11024	0
15.01.2021	06:30:11	0	0	2,598647	2,8395	21,7656	-0,425	85,38	0	1011,28	6,2	8,2	8,1	1	1	1	1	1	1	1	1	1	0	1	-6,906272	273,464392	310,186396	0
15.01.2021	06:30:12	0	0	3,841478	2,7585	27,6732	-0,421	85,374	0	1011,34	6,1	8,2	8,1	1	1	1	1	1	1	1	1	1	0	1	-7,82241	273,594779	309,875446	0
15.01.2021	06:30:13	0	0	3,841478	2,67225	18,8424	-0,425	85,388	0	1011,28	6,2	8,2	8,1	1	1	1	1	1	1	1	1	1	0	1	-6,694856	273,557021	310,827657	0
15.01.2021	06:30:14	0	0	2,372677	2,499	19,1448	-0,423	85,384	0	1011,32	6,2	8,2	8,1	1	1	1	1	1	1	1	1	1	0	1	-6,8358	273,470169	310,28366	0
15.01.2021	06:30:15	0	0	3,050585	2,382	18,4464	-0,423	85,386	0	1011,24	6,2	8,2	8,1	1	1	1	1	1	1	1	1	1	0	1	-5,144468	273,421126	311,747571	0
15.01.2021	06:30:16	0	0	4,858339	2,31825	17,7048	-0,43	85,375	0	1011,18	6,2	8,2	8,1	1	1	1	1	1	1	1	1	1	0	1	-6,553911	273,529475	310,840729	0
15.01.2021	06:30:17	0	0	4,63237	2,31525	14,31	-0,423	85,394	0	1011,28	6,2	8,2	8,1	1	1	1	1	1	1	1	1	1	0	1	-4,157858	273,425448	312,75422	0
15.01.2021	06:30:18	0	0	4,519385	2,2905	358,7112	-0,422	85,37	0	1011,18	6,2	8,2	8,1	1	1	1	1	1	1	1	1	1	0	1	-0	273,457175	317,059192	0
15.01.2021	06:30:19	0	0	3,050585	2,2905	16,0992	-0,421	85,389	0	1011,32	6,2	8,2	8,1	1	1	1	1	1	1	1	1	1	0	1	-4,721635	273,465836	312,37773	0
15.01.2021	06:30:20	0	0	5,310278	2,457	10,5192	-0,423	85,381	0	1011,18	6,2	8,2	8,1	1	1	1	1	1	1	1	1	1	0	1	-0	273,490399	317,213308	0
15.01.2021	06:30:21	0	0	3,276554	2,385	23,5728	-0,429	85,382	0	1011,3	6,2	8,2	8,1	1	1	1	1	1	1	1	1	1	0	1	-6,060606	273,429772	310,871515	0
15.01.2021	06:30:22	0	0	2,598647	2,24025	10,0656	-0,424	85,377	0	1011,2	6,2	8,2	8,1	1	1	1	1	1	1	1	1	1	0	1	-4,157858	273,402407	312,647412	0
15.01.2021	06:30:23	0	0	3,276554	2,2725	9,0036	-0,424	85,374	0	1011,26	6,2	8,2	8,1	1	1	1	1	1	1	1	1	1	0	1	-5,285412	273,520785	312,068894	0
15.01.2021	06:30:24	0	0	3,954462	2,29725	6,084	-0,427	85,395	0	1011,06	6,2	8,2	8,1	1	1	1	1	1	1	1	1	1	0	1	-0	273,419685	316,885361	0
15.01.2021	06:30:25	0	0	3,502524	2,3745	10,0476	-0,414	85,385	0	1011,28	6,2	8,2	8,1	1	1	1	1	1	1	1	1	1	0	1	-6,976744	273,53817	310,458253	0
15.01.2021	06:30:26	0	0	4,745355	2,43225	11,2032	-0,429	85,375	0	1011,1	6,1	8,2	8,1	1	1	1	1	1	1	1	1	1	0	1	-5,144468	273,416805	311,727538	0
15.01.2021	06:30:27	0	0	3,16357	2,31075	8,7084	-0,402	85,399	0	1011,36	6,2	8,2	8,1	1	1	1	1	1	1	1	1	1	0	1	-2,466526	273,474502	314,673034	0
15.01.2021	06:30:28	0	0	3,841478	2,1765	4,086	-0,425	85,389	0	1011,2	6,2	8,2	8,1	1	1	1	1	1	1	1	1	1	0	1	-6,20155	273,418245	310,677133	0
15.01.2021	06:30:29	0	0	3,841478	2,2305	1,9332	-0,425	85,374	0	1011,16	6,1	8,2	8,1	1	1	1	1	1	1	1	1	1	0	1	-8,668076	273,572987	308,928569	0
15.01.2021	06:30:30	0	0	3,954462	2,3865	11,7252	-0,423	85,379	0	1011,28	6,2	8,2	8,1	1	1	1	1	1	1	1	1	1	0	1	-6,765328	273,42833	310,160111	0
15.01.2021	06:30:31	0	0	2,824616	2,25525	20,6352	-0,42	85,385	0	1011,28	6,2	8,2	8,1	1	1	1	1	1	1	1	1	1	0	1	-8,45666	273,609322	309,308747	0
15.01.2021	06:30:32	0	0	3,050585	2,15175	28,7352	-0,417	85,381	0	1011,06	6,2	8,2	8,1	1	1	1	1	1	1	1	1	1	0	1	-3,312192	273,442747	313,680093	0
15.01.2021	06:30:33	0	0	3,16357	2,02125	10,4508	-0,421	85,369	0	1011,08	6,2	8,2	8,1	1	1	1	1	1	1	1	1	1	0	1	-2,466526	273,416805	314,40548	0
15.01.2021	06:30:34	0	0	3,276554	1,93275	20,6352	-0,42	85,38	0	1011,36	6,2	8,2	8,1	1	1	1	1	1	1	1	1	1	0	1	-9,513742	273,507757	307,780103	0
15.01.2021	06:30:35	0	0	2,824616	1,99125	10,8108	-0,426	85,388	0	1011,2	6,1	8,2	8,1	1	1	1	1	1	1	1	1	1	0	1	-2,325581	273,581701	315,311532	0
15.01.2021	06:30:36	0	0	3,276554	2,20575	12,8484	-0,427	85,387	0	1011,3	6,2	8,2	8,1	1	1	1	1	1	1	1	1	1	0	1	-4,087385	273,541069	313,361069	0
15.01.2021	06:30:37	0	0	3,954462	2,3955	21,3948	-0,422	85,373	0	1011,2	6,2	8,2	8,1	1	1	1	1	1	1	1	1	1	0	1	-5,496829	273,593326	312,194276	0
15.01.2021	06:30:38	0	0	2,711631	2,46	7,5168	-0,427	85,386	0	1011,1	6,2	8,2	8,1	1	1	1	1	1	1	1	1	1	0	1	-6,624383	273,545418	310,844261	0
15.01.2021	06:30:39	0	0	4,293416	2,54625	22,0788	-0,423	85,387	0	1011,3	6,2	8,2	8,1	1	1	1	1	1	1	1	1	1	0	1	-4,22833	273,594779	313,469526	0
15.01.2021	06:30:40	0	0	3,389559	2,445	17,2296	-0,421	85,384	0	1011,16	6,2	8,2	8	1	1	1	1	1	1	1	1	1	0	1	-0	273,53672	317,428269	0
15.01.2021	06:30:41	0	0	3,728493	2,37975	16,1028	-0,421	85,384	0	1011,2	6,2	8,2	8,1	1	1	1	1	1	1	1	1	1	0	1	-8,386187	273,42833	308,539252	0
15.01.2021	06:30:42	0	0	3,16357	2,385	6,822	-0,424	85,391	0	1011,3	6,2	8,2	8,1	1	1	1	1	1	1	1	1	1	0	1	-6,131078	273,441305	310,854519	0
15.01.2021	06:30:43	0	0	3,841501	2,42025	21,3804	-0,418	85,397	0	1011,22	6,1	8,2	8	1	1	1	1	1	1	1	1	1	0	1	-1,409443	273,431213	315,52936	0
15.01.2021	06:30:44	0	0	3,050585	2,4075	18,09	-0,42	85,384	0	1011,18	6,2	8,2	8,1	1	1	1	1	1	1	1	1	1	0	1	-7,117689	273,464392	309,974979	0
15.01.2021	06:30:45	0	0	4,519412	2,32575	14,6484	-0,42	85,403	0	1011,56	6,2	8,2	8	1	1	1	1	1	1	1	1	1	0	1	-4,792107	273,575891	312,818025	0
15.01.2021	06:30:46	0	0	3,841478	2,286	11,7216	-0,427	85,394	0	1011,22	6,2	8,2	8,1	1	1	1	1	1	1	1	1	1	0	1	-5,919662	273,593326	311,771443	0
15.01.2021	06:30:47	0	0	4,971324	2,24325	13,9248	-0,426	85,368	0	1011,2	6,2	8,2	8,1	1	1	1	1	1	1	1	1	1	0	1	-4,369274	273,486062	312,823914	0
15.01.2021	06:30:48	0	0	3,050585	2,20725	16,1244	-0,422	85,388	0	1011,24	6,2	8,2	8,1	1	1	1	1	1	1	1	1	1	0	1	-3,100775	273,421126	313,791264	0
15.01.2021	06:30:49	0	0	4,406401	2,2665	18,8388	-0,419	85,393	0	1011,22	6,2	8,2	8,1	1	1	1	1	1	1	1	1	1	0	1	-0	273,571535	317,589903	0
15.01.2021	06:30:50	0	0	4,63237	2,38425	17,6832	-0,423	85,385	0	1011,28	6,2	8,2	8,1	1	1	1	1	1	1	1	1	1	0	1	-0,070472	273,593326	317,620632	0
15.01.2021	06:30:51	0	0	4,63237	2,5965	21,0204	-0,428	85,383	0	1011,32	6,2	8,2	8,1	1	1	1	1	1	1	1	1	1	0	1	-0,352361	273,528027	317,035556	0
15.01.2021	06:30:52	0	0	2,711631	2,625	15,0372	-0,425	85,383	0	1011,22	6,2	8,2	8,1	1	1	1	1	1	1	1	1	1	0	1	-5,708245	273,587513	311,955858	0
15.01.2021	06:30:53	0	0	4,519385	2,721	23,958	-0,421	85,395	0	1011,36	6,1	8,2	8,1	1	1	1	1	1	1	1	1	1	0	1	-5,567301	273,526578	311,813892	0
15.01.2021	06:30:54	0	0	3,389539	2,6385	16,4952	-0,425	85,397	0	1011,24	6,2	8,2	8,1	1	1	1	1	1	1	1	1	1	0	1	-1,832276	273,586059	315,825079	0
15.01.2021	06:30:55	0	0	4,067447	2,63475	18,0828	-0,427	85,376	0	1011,14	6,2	8,2	8,1	1	1	1	1	1	1	1	1	1	0	1	-6,765328	273,561374	310,777396	0
15.01.2021	06:30:56	0	0	3,954462	2,913	11,1996	-0,421	85,383	0	1011,24	6,2	8,2	8,1	1	1	1	1	1	1	1	1	1	0	1	-7,470049	273,451402	309,562372	0
15.01.2021	06:30:57	0	0	5,084308	2,94225	13,9068	-0,423	85,383	0	1011,2	6,2	8,2	8,1	1	1	1	1	1	1	1	1	1	0	1	-8,879493	273,435537	308,079362	0
15.01.2021	06:30:58	0	0	3,050585	2,80725	15,4008	-0,426	85,386	0	1011,26	6,2	8,2	8,1	1	1	1	1	1	1	1	1	1	0	1	-0,140944	273,474502	316,998616	0
15.01.2021	06:30:59	0	0	2,598662	2,84325	16,488	-0,417	85,403	0	1011,28	6,1	8,2	8	1	1	1	1	1	1	1	1	1	0	1	-4,439746	273,575891	313,170386	0
15.01.2021	06:31:00	0	0	2,824616	2,63175	11,6964	-0,425	85,394	0	1011,44	6,2	8,2	8,1	1	1	1	1	1	1	1	1	1	0	1	-2,536998	273,411045	314,308306	0
15.01.2021	06:31:01	0	0	2,824616	2,63175	11,6964	-0,425	85,394	0	1011,44	6,2	8,2	8,1	1	1	1	1	1	1	1	1	1	0	1	-2,536998	273,411045	314,308306	0
15.01.2021	06:31:02	0	0	4,519385	2,52975	23,9688	-0,427	85,376	0	1011,26	6,2	8,2	8,1	1	1	1	1	1	1	1	1	1	0	1	-6,272023	273,470169	310,847437	0
15.01.2021	06:31:03	0	0	4,971354	2,4285	10,062	-0,429	85,388	0	1011,2	6,2	8,2	8	1	1	1	1	1	1	1	1	1	0	1	-5,778717	273,583154	311,865142	0
15.01.2021	06:31:04	0	0	4,406401	2,49075	14,3028	-0,418	85,394	0	1011,2	6,2	8,2	8,1	1	1	1	1	1	1	1	1	1	0	1	-5,355884	273,448517	311,663156	0
15.01.2021	06:31:05	0	0	4,971324	2,46675	18,8424	-0,42	85,392	0	1011,26	6,2	8,2	8,1	1	1	1	1	1	1	1	1	1	0	1	-4,22833	273,471613	312,897829	0
15.01.2021	06:31:06	0	0	4,971324	2,37	16,8516	-0,422	85,39	0	1011,32	6,1	8,2	8,1	1	1	1	1	1	1	1	1	1	0	1	-3,312192	273,599141	314,405923	0
15.01.2021	06:31:07	0	0	3,954462	2,274	18,4572	-0,421	85,388	0	1011,14	6,2	8,2	8,1	1	1	1	1	1	1	1	1	1	0	1	-0,563777	273,53672	316,864492	0
15.01.2021	06:31:08	0	0	4,519385	2,2245	7,8732	-0,423	85,393	0	1011,28	6,2	8,2	8,1	1	1	1	1	1	1	1	1	1	0	1	-8,174771	273,588966	309,496082	0
15.01.2021	06:31:09	0	0	2,598647	2,10375	2,6532	-0,423	85,384	0	1011,28	6,2	8,2	8,1	1	1	1	1	1	1	1	1	1	0	1	-3,664553	273,468724	313,448208	0
15.01.2021	06:31:10	0	0	2,598647	2,199	4,0968	-0,42	85,393	0	1011,3	6,2	8,2	8,1	1	1	1	1	1	1	1	1	1	0	1	-0	273,402407	316,805269	0
15.01.2021	06:31:11	0	0	4,971354	2,3115	3,0312	-0,42	85,399	0	1011,32	6,2	8,2	8	1	1	1	1	1	1	1	1	1	0	1	-5,003524	273,541069	312,444931	0
15.01.2021	06:31:12	0	0	3,389539	2,31225	9,0108	-0,426	85,403	0	1011,24	6,2	8,2	8,1	1	1	1	1	1	1	1	1	1	0	1	-0	273,568631	317,57642	0
15.01.2021	06:31:13	0	0	3,163589	2,355	12,0996	-0,423	85,394	0	1011,24	6,2	8,2	8	1	1	1	1	1	1	1	1	1	0	1	-9,302326	273,399529	307,489604	0
15.01.2021	06:31:14	0	0	4,745355	2,2725	12,8556	-0,422	85,39	0	1011,12	6,2	8,2	8,1	1	1	1	1	1	1	1	1	1	0	1	-5,919662	273,535271	311,501881	0
15.01.2021	06:31:15	0	0	3,954486	2,1585	15,4908	-0,419	85,403	0	1011,28	6,2	8,2	8	1	1	1	1	1	1	1	1	1	0	1	-5,990134	273,591872	311,694219	0
15.01.2021	06:31:16	0	0	4,406401	2,229	13,9284	-0,424	85,417	0	1011,32	6,2	8,2	8,1	1	1	1	1	1	1	1	1	1	0	1	-5,144468	273,422567	311,75425	0
15.01.2021	06:31:17	0	0	2,9376	2,5095	10,0692	-0,426	85,393	0	1011,3	6,2	8,2	8,1	1	1	1	1	1	1	1	1	1	0	1	-1,62086	273,543968	315,841054	0
15.01.2021	06:31:18	0	0	4,745355	2,83575	8,262	-0,425	85,405	0	1011,3	6,2	8,2	8,1	1	1	1	1	1	1	1	1	1	0	1	-4,721635	273,402407	312,083635	0
15.01.2021	06:31:19	0	0	4,180431	3,045	22,8348	-0,423	85,401	0	1011,32	6,2	8,2	8,1	1	1	1	1	1	1	1	1	1	0	1	-7,188161	273,46728	309,917902	0
15.01.2021	06:31:20	0	0	4,180431	3,05175	22,086	-0,421	85,394	0	1011,26	6,2	8,2	8,1	1	1	1	1	1	1	1	1	1	0	1	-0,98661	273,599141	316,731504	0
15.01.2021	06:31:21	0	0	4,971324	2,73975	4,8384	-0,429	85,393	0	1011,26	6,2	8,2	8,1	1	1	1	1	1	1	1	1	1	0	1	-11,557435	273,522233	305,803592	0
15.01.2021	06:31:22	0	0	3,954462	2,55825	17,2512	-0,416	85,403	0	1011,34	6,2	8,2	8,1	1	1	1	1	1	1	1	1	1	0	1	-3,664553	273,418245	313,214131	0
15.01.2021	06:31:23	0	0	3,615508	2,46375	24,3396	-0,426	85,388	0	1011,3	6,2	8,2	8,1	1	1	1	1	1	1	1	1	1	0	1	-5,637773	273,509204	311,662788	0
15.01.2021	06:31:24	0	0	4,406401	2,3175	6,0588	-0,426	85,397	0	1011,22	6,1	8,2	8,1	1	1	1	1	1	1	1	1	1	0	1	-4,792107	273,568631	312,784313	0
15.01.2021	06:31:25	0	0	2,824616	2,2335	360	-0,421	85,408	0	1011,34	6,2	8,2	8,1	1	1	1	1	1	1	1	1	1	0	1	-4,087385	273,557021	313,435127	0
15.01.2021	06:31:26	0	0	3,050585	2,2275	1,5624	-0,415	85,4	0	1011,3	6,2	8,2	8,1	1	1	1	1	1	1	1	1	1	0	1	-3,805497	273,406726	313,019787	0
15.01.2021	06:31:27	0	0	2,937618	2,16975	6,8148	-0,421	85,394	0	1011,18	6,2	8,2	8	1	1	1	1	1	1	1	1	1	0	1	-0,140944	273,442747	316,851341	0
15.01.2021	06:31:28	0	0	3,728515	2,343	13,1436	-0,419	85,396	0	1011,28	6,2	8,2	8	1	1	1	1	1	1	1	1	1	0	1	-4,510218	273,454288	312,535587	0
15.01.2021	06:31:29	0	0	3,954462	2,5425	15,0372	-0,422	85,4	0	1011,22	6,2	8,2	8,1	1	1	1	1	1	1	1	1	1	0	1	-3,030303	273,588966	314,64055	0
15.01.2021	06:31:30	0	0	3,389539	2,61375	10,4472	-0,422	85,376	0	1011,28	6,2	8,2	8,1	1	1	1	1	1	1	1	1	1	0	1	-4,087385	273,484617	313,099097	0
15.01.2021	06:31:31	0	0	3,728515	2,4855	21,0204	-0,421	85,397	0	1011,34	6,2	8,2	8	1	1	1	1	1	1	1	1	1	0	1	-2,255109	273,572987	315,341536	0
15.01.2021	06:31:32	0	0	2,485677	2,64	23,5872	-0,422	85,406	0	1011,14	6,2	8,2	8	1	1	1	1	1	1	1	1	1	0	1	-3,664553	273,409605	313,174078	0
15.01.2021	06:31:33	0	0	3,841478	2,65425	21,7764	-0,423	85,374	0	1011,18	6,1	8,2	8,1	1	1	1	1	1	1	1	1	1	0	1	-5,355884	273,49763	311,89097	0
15.01.2021	06:31:34	0	0	3,61553	2,8155	356,994	-0,419	85,389	0	1011,34	6,2	8,2	8	1	1	1	1	1	1	1	1	1	0	1	-2,325581	273,583154	315,318278	0
15.01.2021	06:31:35	0	0	4,406401	3,1125	1,188	-0,424	85,406	0	1011,4	6,2	8,2	8,1	1	1	1	1	1	1	1	1	1	0	1	-3,100775	273,493291	314,12595	0
15.01.2021	06:31:36	0	0	3,954462	3,30375	15,4656	-0,42	85,405	0	1011,26	6,2	8,2	8,1	1	1	1	1	1	1	1	1	1	0	1	-0,704722	273,586059	316,952633	0
15.01.2021	06:31:37	0	0	3,954462	3,37725	31,3776	-0,428	85,409	0	1011,2	6,2	8,2	8,1	1	1	1	1	1	1	1	1	1	0	1	-8,597604	273,546868	308,877772	0
15.01.2021	06:31:38	0	0	2,146708	3,27975	16,4844	-0,419	85,399	0	1011,36	6,2	8,2	8,1	1	1	1	1	1	1	1	1	1	0	1	-5,637773	273,552669	311,864534	0
15.01.2021	06:31:39	0	0	3,276554	3,00825	28,7244	-0,421	85,387	0	1011,22	6,2	8,2	8,1	1	1	1	1	1	1	1	1	1	0	1	-2,396054	273,42833	314,529386	0
15.01.2021	06:31:40	0	0	2,372677	2,85225	18,0864	-0,421	85,4	0	1011,2	6,2	8,2	8,1	1	1	1	1	1	1	1	1	1	0	1	-6,272023	273,520785	311,082283	0
15.01.2021	06:31:41	0	0	4,406401	2,96325	19,152	-0,418	85,402	0	1011,36	6,2	8,2	8,1	1	1	1	1	1	1	1	1	1	0	1	-0,563777	273,591872	317,120576	0
15.01.2021	06:31:42	0	0	2,598662	3,012	16,0956	-0,419	85,399	0	1011,16	6,2	8,2	8	1	1	1	1	1	1	1	1	1	0	1	-0,352361	273,455731	316,700137	0
15.01.2021	06:31:43	0	0	4,519412	3,16425	11,196	-0,418	85,408	0	1011,34	6,2	8,2	8	1	1	1	1	1	1	1	1	1	0	1	-6,20155	273,542518	311,253633	0
15.01.2021	06:31:44	0	0	3,276554	3,41175	14,2956	-0,421	85,403	0	1011,3	6,2	8,2	8,1	1	1	1	1	1	1	1	1	1	0	1	-3,24172	273,422567	313,656998	0
15.01.2021	06:31:45	0	0	5,197324	3,5745	15,1272	-0,429	85,394	0	1011,2	6,2	8,2	8	1	1	1	1	1	1	1	1	1	0	1	-4,721635	273,504863	312,558781	0
15.01.2021	06:31:46	0	0	3,276574	3,62175	11,736	-0,42	85,395	0	1011,32	6,2	8,2	8	1	1	1	1	1	1	1	1	1	0	1	-5,637773	273,426889	311,280985	0
15.01.2021	06:31:47	0	0	2,485662	3,50775	22,824	-0,422	85,386	0	1011,2	6,2	8,2	8,1	1	1	1	1	1	1	1	1	1	0	1	-6,8358	273,499076	310,417766	0
15.01.2021	06:31:48	0	0	2,824616	3,33525	15,7932	-0,419	85,401	0	1011,36	6,2	8,2	8,1	1	1	1	1	1	1	1	1	1	0	1	-3,59408	273,558472	313,935169	0
15.01.2021	06:31:49	0	0	4,632398	3,366	7,5168	-0,423	85,402	0	1011,2	6,2	8,2	8	1	1	1	1	1	1	1	1	1	0	1	-4,580691	273,577343	313,036186	0
15.01.2021	06:31:50	0	0	3,841478	3,43125	23,5872	-0,421	85,396	0	1011,3	6,2	8,2	8,1	1	1	1	1	1	1	1	1	1	0	1	-2,677942	273,535271	314,7436	0
15.01.2021	06:31:51	0	0	3,502545	3,297	11,196	-0,421	85,378	0	1011,18	6,2	8,2	8	1	1	1	1	1	1	1	1	1	0	1	-7,258633	273,591872	310,42572	0
15.01.2021	06:31:52	0	0	2,824633	3,099	15,7932	-0,418	85,399	0	1011,16	6,1	8,2	8	1	1	1	1	1	1	1	1	1	0	1	-10,007047	273,451402	307,025374	0
15.01.2021	06:31:53	0	0	3,050603	3,00675	21,7656	-0,426	85,39	0	1011,22	6,2	8,2	8	1	1	1	1	1	1	1	1	1	0	1	-8,245243	273,593326	309,445861	0
15.01.2021	06:31:54	0	0	4,293442	3,04425	10,8324	-0,413	85,392	0	1011,1	6,2	8,2	8	1	1	1	1	1	1	1	1	1	0	1	-9,231853	273,517889	308,109012	0
15.01.2021	06:31:55	0	0	4,293442	3,03	18,54	-0,423	85,378	0	1011,24	6,2	8,2	8	1	1	1	1	1	1	1	1	1	0	1	-7,047216	273,575891	310,562916	0
15.01.2021	06:31:56	0	0	4,971354	2,96475	18,8388	-0,426	85,383	0	1011,22	6,2	8,2	8	1	1	1	1	1	1	1	1	1	0	1	-8,597604	273,52513	308,776866	0
15.01.2021	06:31:57	0	0	4,180456	2,922	18,8388	-0,424	85,397	0	1011,44	6,2	8,2	8	1	1	1	1	1	1	1	1	1	0	1	-7,329105	273,543968	310,132809	0
15.01.2021	06:31:58	0	0	2,824616	2,98725	21,0348	-0,418	85,398	0	1011,28	6,2	8,2	8,1	1	1	1	1	1	1	1	1	1	0	1	-5,567301	273,572987	312,029345	0
15.01.2021	06:31:59	0	0	4,632398	2,9535	18,558	-0,423	85,385	0	1011,36	6,2	8,2	8	1	1	1	1	1	1	1	1	1	0	1	-6,8358	273,517889	310,505066	0
15.01.2021	06:32:00	0	0	3,954462	3,318	13,1688	-0,422	85,383	0	1011,28	6,2	8,2	8,1	1	1	1	1	1	1	1	1	1	0	1	-4,510218	273,486062	312,682969	0
15.01.2021	06:32:01	0	0	3,954462	3,318	13,1688	-0,422	85,383	0	1011,28	6,2	8,2	8,1	1	1	1	1	1	1	1	1	1	0	1	-4,510218	273,486062	312,682969	0
15.01.2021	06:32:02	0	0	2,824616	3,18675	9,756	-0,417	85,393	0	1011,26	6,2	8,2	8,1	1	1	1	1	1	1	1	1	1	0	1	-3,100775	273,546868	314,374601	0
15.01.2021	06:32:03	0	0	3,954486	3,1155	12,0816	-0,423	85,387	0	1011,16	6,2	8,2	8	1	1	1	1	1	1	1	1	1	0	1	-5,778717	273,413924	311,079937	0
15.01.2021	06:32:04	0	0	4,858339	3,03	13,9176	-0,422	85,374	0	1011,36	6,2	8,2	8,1	1	1	1	1	1	1	1	1	1	0	1	-9,231853	273,477391	307,92111	0
15.01.2021	06:32:05	0	0	4,519412	2,9055	14,3172	-0,423	85,383	0	1011,32	6,2	8,2	8	1	1	1	1	1	1	1	1	1	0	1	-4,087385	273,572987	313,50926	0
15.01.2021	06:32:06	0	0	4,632398	2,799	14,2956	-0,419	85,386	0	1011,38	6,2	8,2	8	1	1	1	1	1	1	1	1	1	0	1	-5,355884	273,570083	312,227277	0
15.01.2021	06:32:07	0	0	4,519412	2,7105	16,0848	-0,419	85,388	0	1011,34	6,2	8,2	8	1	1	1	1	1	1	1	1	1	0	1	-6,483439	273,465836	310,615926	0
15.01.2021	06:32:08	0	0	3,954462	2,661	9,7524	-0,419	85,39	0	1011,36	6,2	8,2	8,1	1	1	1	1	1	1	1	1	1	0	1	-3,100775	273,596233	314,603833	0
15.01.2021	06:32:09	0	0	2,937618	2,62725	359,8092	-0,419	85,382	0	1011,28	6,1	8,2	8	1	1	1	1	1	1	1	1	1	0	1	-4,157858	273,486062	313,03533	0
15.01.2021	06:32:10	0	0	4,293442	2,715	16,4844	-0,421	85,388	0	1011,42	6,2	8,2	8	1	1	1	1	1	1	1	1	1	0	1	-3,24172	273,416805	313,630287	0
15.01.2021	06:32:11	0	0	3,389539	2,64975	12,8412	-0,421	85,369	0	1011,16	6,2	8,2	8,1	1	1	1	1	1	1	1	1	1	0	1	-2,255109	273,457175	314,804082	0
15.01.2021	06:32:12	0	0	3,389539	2,62725	15,012	-0,423	85,373	0	1011,22	6,2	8,2	8,1	1	1	1	1	1	1	1	1	1	0	1	-1,479915	273,53817	315,955082	0
15.01.2021	06:32:13	0	0	4,406427	2,60175	13,1724	-0,422	85,381	0	1011,26	6,2	8,2	8	1	1	1	1	1	1	1	1	1	0	1	-6,060606	273,596233	311,644002	0
15.01.2021	06:32:14	0	0	2,598647	2,532	10,4472	-0,412	85,387	0	1011,3	6,2	8,2	8,1	1	1	1	1	1	1	1	1	1	0	1	-2,959831	273,522233	314,401196	0
15.01.2021	06:32:15	0	0	4,067471	2,42925	359,8056	-0,424	85,38	0	1011,24	6,2	8,2	8	1	1	1	1	1	1	1	1	1	0	1	-0,140944	273,412484	316,711034	0
15.01.2021	06:32:16	0	0	3,163589	2,436	0,8604	-0,422	85,381	0	1011,12	6,2	8,2	8	1	1	1	1	1	1	1	1	1	0	1	-6,976744	273,483172	310,203033	0
15.01.2021	06:32:17	0	0	3,61553	2,4765	1,9152	-0,419	85,381	0	1011,24	6,2	8,2	8	1	1	1	1	1	1	1	1	1	0	1	-3,875969	273,409605	312,962661	0
15.01.2021	06:32:18	0	0	4,293442	2,3115	18,0828	-0,422	85,39	0	1011,2	6,2	8,2	8	1	1	1	1	1	1	1	1	1	0	1	-3,171247	273,481726	314,001825	0
15.01.2021	06:32:19	0	0	5,31031	2,36475	8,262	-0,42	85,375	0	1011,22	6,2	8,2	8	1	1	1	1	1	1	1	1	1	0	1	-0,281889	273,429772	316,650232	0
15.01.2021	06:32:20	0	0	4,180456	2,50425	7,488	-0,415	85,383	0	1011,08	6,2	8,2	8	1	1	1	1	1	1	1	1	1	0	1	-4,369274	273,419685	312,516087	0
15.01.2021	06:32:21	0	0	4,745383	2,6745	19,1556	-0,419	85,386	0	1011,28	6,2	8,2	8	1	1	1	1	1	1	1	1	1	0	1	-2,043693	273,559923	315,492293	0
15.01.2021	06:32:22	0	0	3,615508	2,54325	9,36	-0,425	85,369	0	1011,22	6,2	8,2	8,1	1	1	1	1	1	1	1	1	1	0	1	-6,483439	273,591872	311,200914	0
15.01.2021	06:32:23	0	0	4,519412	2,493	32,508	-0,418	85,36	0	1011,22	6,2	8,2	8	1	1	1	1	1	1	1	1	1	0	1	-7,329105	273,477391	309,823858	0
15.01.2021	06:32:24	0	0	3,050585	2,44725	21,0204	-0,419	85,38	0	1011,26	6,2	8,2	8,1	1	1	1	1	1	1	1	1	1	0	1	-3,523608	273,425448	313,388469	0
15.01.2021	06:32:25	0	0	3,954486	2,499	21,3876	-0,422	85,376	0	1011,2	6,2	8,2	8	1	1	1	1	1	1	1	1	1	0	1	-4,298802	273,460061	312,773778	0
15.01.2021	06:32:26	0	0	4,632398	2,51475	4,8492	-0,417	85,362	0	1011,24	6,2	8,2	8	1	1	1	1	1	1	1	1	1	0	1	-8,104299	273,562825	309,445163	0
15.01.2021	06:32:27	0	0	3,050603	2,4585	10,8072	-0,428	85,376	0	1011,3	6,2	8,2	8	1	1	1	1	1	1	1	1	1	0	1	-4,439746	273,558472	313,089503	0
15.01.2021	06:32:28	0	0	4,067471	2,35125	12,1032	-0,42	85,374	0	1011,22	6,2	8,2	8	1	1	1	1	1	1	1	1	1	0	1	-5,637773	273,583154	312,006087	0
15.01.2021	06:32:29	0	0	2,824633	2,355	12,4704	-0,417	85,376	0	1011,32	6,2	8,2	8	1	1	1	1	1	1	1	1	1	0	1	-7,963354	273,578796	309,660267	0
15.01.2021	06:32:30	0	0	5,31031	2,388	10,4436	-0,419	85,382	0	1011,16	6,2	8,2	8	1	1	1	1	1	1	1	1	1	0	1	-9,231853	273,503416	308,041849	0
15.01.2021	06:32:31	0	0	4,858368	2,47725	10,0512	-0,419	85,382	0	1011,22	6,2	8,2	8	1	1	1	1	1	1	1	1	1	0	1	-0,704722	273,600595	317,020147	0
15.01.2021	06:32:32	0	0	3,389539	2,65875	3,87	-0,418	85,36	0	1011,28	6,2	8,2	8,1	1	1	1	1	1	1	1	1	1	0	1	-2,748414	273,480281	314,417955	0
15.01.2021	06:32:33	0	0	4,632398	2,8005	9,3744	-0,42	85,375	0	1011,34	6,2	8,2	8	1	1	1	1	1	1	1	1	1	0	1	-4,862579	273,571535	312,727324	0
15.01.2021	06:32:34	0	0	2,824633	2,63175	15,7932	-0,42	85,371	0	1011,4	6,2	8,2	8	1	1	1	1	1	1	1	1	1	0	1	-2,60747	273,434096	314,3447	0
15.01.2021	06:32:35	0	0	3,276574	2,442	12,4704	-0,415	85,374	0	1011,26	6,2	8,2	8	1	1	1	1	1	1	1	1	1	0	1	-4,933051	273,475947	312,21321	0
15.01.2021	06:32:36	0	0	3,841501	2,37	10,8072	-0,416	85,357	0	1011,22	6,2	8,2	8	1	1	1	1	1	1	1	1	1	0	1	-3,171247	273,594779	314,526609	0
15.01.2021	06:32:37	0	0	4,745355	2,31975	11,718	-0,419	85,375	0	1011,3	6,2	8,2	8,1	1	1	1	1	1	1	1	1	1	0	1	-4,651163	273,55557	312,864614	0
15.01.2021	06:32:38	0	0	4,180456	2,556	5,2308	-0,415	85,361	0	1011,1	6,2	8,2	8	1	1	1	1	1	1	1	1	1	0	1	-2,255109	273,418245	314,623574	0
15.01.2021	06:32:39	0	0	4,067471	2,64	4,8456	-0,415	85,384	0	1011,26	6,2	8,2	8	1	1	1	1	1	1	1	1	1	0	1	-7,751938	273,557021	309,770575	0
15.01.2021	06:32:40	0	0	4,406401	2,45775	9,3708	-0,421	85,377	0	1011,22	6,2	8,2	8,1	1	1	1	1	1	1	1	1	1	0	1	-3,030303	273,447074	313,982048	0
15.01.2021	06:32:41	0	0	3,163589	2,30475	12,096	-0,417	85,374	0	1011,36	6,2	8,2	8	1	1	1	1	1	1	1	1	1	0	1	-8,45666	273,400968	308,34194	0
15.01.2021	06:32:42	0	0	4,406401	2,21025	18,09	-0,416	85,361	0	1011,2	6,2	8,2	8,1	1	1	1	1	1	1	1	1	1	0	1	-2,536998	273,520785	314,817308	0
15.01.2021	06:32:43	0	0	4,745383	2,1165	14,6412	-0,417	85,361	0	1011,14	6,1	8,2	8	1	1	1	1	1	1	1	1	1	0	1	-4,157858	273,411045	312,687447	0
15.01.2021	06:32:44	0	0	2,824633	2,10975	27,2664	-0,416	85,357	0	1011,24	6,2	8,2	8	1	1	1	1	1	1	1	1	1	0	1	-3,805497	273,529475	313,589144	0
15.01.2021	06:32:45	0	0	4,858368	2,1315	22,8456	-0,421	85,368	0	1011,24	6,2	8,2	8	1	1	1	1	1	1	1	1	1	0	1	-3,453136	273,594779	314,24472	0
15.01.2021	06:32:46	0	0	4,519412	2,13075	32,1624	-0,415	85,378	0	1011,26	6,2	8,2	8	1	1	1	1	1	1	1	1	1	0	1	-3,875969	273,514993	313,451459	0
15.01.2021	06:32:47	0	0	3,050603	2,09325	38,8908	-0,419	85,368	0	1011,26	6,2	8,2	8	1	1	1	1	1	1	1	1	1	0	1	-7,188161	273,578796	310,435461	0
15.01.2021	06:32:48	0	0	4,519412	2,0685	15,0264	-0,419	85,374	0	1011,24	6,2	8,2	8	1	1	1	1	1	1	1	1	1	0	1	-7,963354	273,548318	309,518753	0
15.01.2021	06:32:49	0	0	3,841478	2,058	25,0344	-0,423	85,379	0	1011,14	6,2	8,2	8,1	1	1	1	1	1	1	1	1	1	0	1	-4,933051	273,436979	312,032488	0
15.01.2021	06:32:50	0	0	3,61553	2,2875	357,9516	-0,418	85,38	0	1011,32	6,2	8,2	8	1	1	1	1	1	1	1	1	1	0	1	-5,285412	273,56718	312,284267	0
15.01.2021	06:32:51	0	0	4,519412	2,3535	11,1996	-0,419	85,365	0	1011,42	6,2	8,2	8	1	1	1	1	1	1	1	1	1	0	1	-3,030303	273,577343	314,586573	0
15.01.2021	06:32:52	0	0	3,954486	2,451	10,062	-0,414	85,372	0	1011,16	6,2	8,2	8	1	1	1	1	1	1	1	1	1	0	1	-2,60747	273,434096	314,3447	0
15.01.2021	06:32:53	0	0	4,519412	2,81175	8,6112	-0,418	85,373	0	1011,22	6,2	8,2	8	1	1	1	1	1	1	1	1	1	0	1	-2,60747	273,468724	314,505291	0
15.01.2021	06:32:54	0	0	4,067471	3,231	12,186	-0,416	85,384	0	1011,34	6,2	8,2	8	1	1	1	1	1	1	1	1	1	0	1	-4,792107	273,593326	312,898997	0
15.01.2021	06:32:55	0	0	3,954486	3,3135	7,1388	-0,417	85,393	0	1011,36	6,2	8,2	8	1	1	1	1	1	1	1	1	1	0	1	-4,22833	273,520785	313,125976	0
15.01.2021	06:32:56	0	0	2,259693	3,42825	14,652	-0,419	85,377	0	1011,26	6,2	8,2	8,1	1	1	1	1	1	1	1	1	1	0	1	-5,21494	273,429772	311,717181	0
15.01.2021	06:32:57	0	0	4,519385	3,42675	11,2032	-0,417	85,381	0	1011,26	6,2	8,2	8,1	1	1	1	1	1	1	1	1	1	0	1	-4,016913	273,449959	313,008817	0
15.01.2021	06:32:58	0	0	2,485677	3,273	355,4208	-0,414	85,389	0	1011,36	6,2	8,2	8	1	1	1	1	1	1	1	1	1	0	1	-9,302326	273,571535	308,287577	0
15.01.2021	06:32:59	0	0	2,598662	2,967	7,1316	-0,414	85,37	0	1011,22	6,2	8,2	8	1	1	1	1	1	1	1	1	1	0	1	-8,104299	273,588966	309,566554	0
15.01.2021	06:33:00	0	0	3,276574	2,61525	2,6316	-0,423	85,377	0	1011,24	6,2	8,2	8	1	1	1	1	1	1	1	1	1	0	1	-4,862579	273,403847	311,949361	0
15.01.2021	06:33:01	0	0	3,276574	2,61525	2,6316	-0,423	85,377	0	1011,24	6,2	8,2	8	1	1	1	1	1	1	1	1	1	0	1	-4,862579	273,403847	311,949361	0
15.01.2021	06:33:02	0	0	2,937618	2,703	17,712	-0,413	85,391	0	1011,28	6,2	8,2	8	1	1	1	1	1	1	1	1	1	0	1	-2,60747	273,520785	314,746836	0
15.01.2021	06:33:03	0	0	3,502545	2,5695	14,6484	-0,421	85,383	0	1011,46	6,2	8,2	8	1	1	1	1	1	1	1	1	1	0	1	-10,077519	273,583154	307,56634	0
15.01.2021	06:33:04	0	0	4,858368	2,41575	19,5372	-0,413	85,387	0	1011,34	6,2	8,2	8	1	1	1	1	1	1	1	1	1	0	1	-5,073996	273,581701	312,563117	0
15.01.2021	06:33:05	0	0	2,485677	2,36775	12,564	-0,42	85,379	0	1011,42	6,2	8,2	8	1	1	1	1	1	1	1	1	1	0	1	-7,540521	273,49763	309,706333	0
15.01.2021	06:33:06	0	0	2,824616	2,463	16,488	-0,417	85,386	0	1011,28	6,2	8,2	8,1	1	1	1	1	1	1	1	1	1	0	1	-3,946441	273,591872	313,737912	0
15.01.2021	06:33:07	0	0	3,050585	2,5395	17,2332	-0,413	85,394	0	1011,42	6,2	8,2	8,1	1	1	1	1	1	1	1	1	1	0	1	-12,191684	273,475947	304,954577	0
15.01.2021	06:33:08	0	0	3,276574	2,46075	24,3504	-0,414	85,392	0	1011,32	6,2	8,1	8	1	1	1	1	1	1	1	1	1	0	1	-7,470049	273,415365	309,39528	0
15.01.2021	06:33:09	0	0	4,519412	2,40375	14,6376	-0,416	85,385	0	1011,22	6,2	8,2	8	1	1	1	1	1	1	1	1	1	0	1	-1,973221	273,559923	315,562765	0
15.01.2021	06:33:10	0	0	3,050603	2,42625	15,7968	-0,42	85,381	0	1011,24	6,2	8,1	8	1	1	1	1	1	1	1	1	1	0	1	-3,664553	273,424007	313,240845	0
15.01.2021	06:33:11	0	0	3,61553	2,54325	17,7048	-0,417	85,392	0	1011,36	6,2	8,2	8	1	1	1	1	1	1	1	1	1	0	1	-5,567301	273,439863	311,41161	0
15.01.2021	06:33:12	0	0	3,276574	2,61975	1,926	-0,418	85,373	0	1011,26	6,2	8,1	8	1	1	1	1	1	1	1	1	1	0	1	-6,553911	273,552669	310,948396	0
15.01.2021	06:33:13	0	0	3,163589	2,7345	17,694	-0,417	85,379	0	1011,26	6,2	8,2	8	1	1	1	1	1	1	1	1	1	0	1	-2,184637	273,432654	314,760849	0
15.01.2021	06:33:14	0	0	4,632398	2,79825	19,1628	-0,422	85,391	0	1011,22	6,2	8,2	8	1	1	1	1	1	1	1	1	1	0	1	-2,184637	273,55412	315,324405	0
15.01.2021	06:33:15	0	0	4,519412	3,08175	11,7072	-0,415	85,378	0	1011,16	6,2	8,2	8	1	1	1	1	1	1	1	1	1	0	1	-6,624383	273,421126	310,267656	0
15.01.2021	06:33:16	0	0	4,858368	3,03225	15,4836	-0,417	85,377	0	1011,16	6,2	8,2	8	1	1	1	1	1	1	1	1	1	0	1	-7,610994	273,458618	309,454892	0
15.01.2021	06:33:17	0	0	4,180456	2,95425	15,7824	-0,403	85,392	0	1011,24	6,2	8,2	8	1	1	1	1	1	1	1	1	1	0	1	-5,84919	273,42833	311,07625	0
15.01.2021	06:33:18	0	0	2,824633	2,97825	11,196	-0,423	85,385	0	1011,32	6,2	8,3	8	1	1	1	1	1	1	1	1	1	0	1	-4,510218	273,461505	312,569057	0
15.01.2021	06:33:19	0	0	4,632398	2,973	9,7452	-0,421	85,39	0	1011,34	6,2	8,2	8	1	1	1	1	1	1	1	1	1	0	1	-6,060606	273,533822	311,35421	0
15.01.2021	06:33:20	0	0	2,485677	2,8755	15,0408	-0,422	85,389	0	1011,26	6,2	8,2	8	1	1	1	1	1	1	1	1	1	0	1	-4,157858	273,435537	312,800997	0
15.01.2021	06:33:21	0	0	3,502545	2,814	13,914	-0,418	85,383	0	1011,22	6,2	8,2	8	1	1	1	1	1	1	1	1	1	0	1	-6,342495	273,460061	310,730086	0
15.01.2021	06:33:22	0	0	4,067471	2,64075	21,7548	-0,412	85,381	0	1011,3	6,2	8,2	8	1	1	1	1	1	1	1	1	1	0	1	-3,523608	273,574439	314,07978	0
15.01.2021	06:33:23	0	0	2,711631	2,52825	20,628	-0,413	85,382	0	1011,24	6,2	8,1	8,1	1	1	1	1	1	1	1	1	1	0	1	-5,778717	273,458618	311,287168	0
15.01.2021	06:33:24	0	0	3,502545	2,592	27,6372	-0,419	85,361	0	1011,18	6,2	8,1	8	1	1	1	1	1	1	1	1	1	0	1	-5,426357	273,526578	311,954837	0
15.01.2021	06:33:25	0	0	4,63237	2,5935	23,58	-0,42	85,384	0	1011,24	6,2	8,1	8,1	1	1	1	1	1	1	1	1	1	0	1	-3,382664	273,594779	314,315192	0
15.01.2021	06:33:26	0	0	4,067471	2,51025	6,4368	-0,415	85,383	0	1011,26	6,2	8,2	8	1	1	1	1	1	1	1	1	1	0	1	-3,875969	273,552669	313,626339	0
15.01.2021	06:33:27	0	0	2,824633	2,481	8,6184	-0,419	85,38	0	1011,18	6,2	8,1	8	1	1	1	1	1	1	1	1	1	0	1	-3,875969	273,55412	313,633073	0
15.01.2021	06:33:28	0	0	4,632398	2,62725	1,188	-0,411	85,392	0	1011,36	6,2	8,2	8	1	1	1	1	1	1	1	1	1	0	1	-5,919662	273,597687	311,7917	0
15.01.2021	06:33:29	0	0	3,61553	2,6385	360	-0,415	85,384	0	1011,28	6,2	8,2	8	1	1	1	1	1	1	1	1	1	0	1	-8,80902	273,602049	308,922603	0
15.01.2021	06:33:30	0	0	2,937618	2,586	6,0552	-0,415	85,385	0	1011,3	6,2	8,2	8	1	1	1	1	1	1	1	1	1	0	1	-3,664553	273,581701	313,972561	0
15.01.2021	06:33:31	0	0	2,711647	2,529	8,6004	-0,416	85,385	0	1011,16	6,2	8,1	8	1	1	1	1	1	1	1	1	1	0	1	-2,60747	273,455731	314,445028	0
15.01.2021	06:33:32	0	0	4,632398	2,47275	13,5432	-0,415	85,379	0	1011,12	6,2	8,2	8	1	1	1	1	1	1	1	1	1	0	1	-3,735025	273,424007	313,170373	0
15.01.2021	06:33:33	0	0	2,259706	2,3625	9,7452	-0,422	85,373	0	1011,18	6,2	8,1	8	1	1	1	1	1	1	1	1	1	0	1	-5,144468	273,441305	311,84113	0
15.01.2021	06:33:34	0	0	3,841501	2,487	19,5336	-0,41	85,391	0	1011,24	6,2	8,2	8	1	1	1	1	1	1	1	1	1	0	1	-5,990134	273,500522	311,270144	0
15.01.2021	06:33:35	0	0	3,841501	2,6505	7,866	-0,415	85,383	0	1011,2	6,2	8,1	8	1	1	1	1	1	1	1	1	1	0	1	-3,735025	273,596233	313,969584	0
15.01.2021	06:33:36	0	0	4,406427	2,49225	17,244	-0,421	85,383	0	1011,18	6,2	8,1	8	1	1	1	1	1	1	1	1	1	0	1	-6,131078	273,447074	310,881272	0
15.01.2021	06:33:37	0	0	4,971354	2,2815	7,1424	-0,416	85,365	0	1011,28	6,2	8,2	8	1	1	1	1	1	1	1	1	1	0	1	-1,198027	273,533822	316,216789	0
15.01.2021	06:33:38	0	0	3,502545	2,28	11,7216	-0,412	85,383	0	1011,38	6,2	8,1	8	1	1	1	1	1	1	1	1	1	0	1	-3,59408	273,422567	313,304637	0
15.01.2021	06:33:39	0	0	2,824633	2,58825	12,4812	-0,415	85,381	0	1011,4	6,2	8,2	8	1	1	1	1	1	1	1	1	1	0	1	-1,973221	273,474502	315,16634	0
15.01.2021	06:33:40	0	0	4,745383	2,62875	15,3972	-0,413	85,393	0	1011,18	6,2	8,2	8	1	1	1	1	1	1	1	1	1	0	1	-2,466526	273,483172	314,713251	0
15.01.2021	06:33:41	0	0	5,084339	2,46525	14,6592	-0,412	85,389	0	1011,28	6,2	8,3	8	1	1	1	1	1	1	1	1	1	0	1	-4,439746	273,557021	313,082766	0
15.01.2021	06:33:42	0	0	4,067471	2,4675	7,218	-0,42	85,384	0	1011,16	6,2	8,2	8	1	1	1	1	1	1	1	1	1	0	1	-7,82241	273,461505	309,256865	0
15.01.2021	06:33:43	0	0	2,485677	2,51025	20,2896	-0,416	85,388	0	1011,3	6,2	8,2	8	1	1	1	1	1	1	1	1	1	0	1	-5,708245	273,429772	311,223876	0
15.01.2021	06:33:44	0	0	4,632398	2,57625	21,0096	-0,413	85,384	0	1011,26	6,2	8,2	8	1	1	1	1	1	1	1	1	1	0	1	-2,818887	273,584606	314,831721	0
15.01.2021	06:33:45	0	0	3,728515	2,76675	40,2732	-0,414	85,404	0	1011,32	6,1	8,2	8	1	1	1	1	1	1	1	1	1	0	1	-5,073996	273,473057	312,058864	0
15.01.2021	06:33:46	0	0	3,502545	2,87625	23,5944	-0,419	85,381	0	1011,3	6,2	8,1	8	1	1	1	1	1	1	1	1	1	0	1	-0	273,415365	316,86533	0
15.01.2021	06:33:47	0	0	2,598662	2,8035	28,3536	-0,415	85,396	0	1011,26	6,2	8,2	8	1	1	1	1	1	1	1	1	1	0	1	-2,114165	273,493291	315,11256	0
15.01.2021	06:33:48	0	0	2,937618	2,68875	18,4608	-0,413	85,403	0	1011,4	6,2	8,2	8	1	1	1	1	1	1	1	1	1	0	1	-3,030303	273,583154	314,613557	0
15.01.2021	06:33:49	0	0	4,858368	2,622	12,8556	-0,416	85,4	0	1011,22	6,2	8,2	8	1	1	1	1	1	1	1	1	1	0	1	-3,382664	273,548318	314,099444	0
15.01.2021	06:33:50	0	0	3,389559	2,88	13,9248	-0,412	85,391	0	1011,22	6,2	8,1	8	1	1	1	1	1	1	1	1	1	0	1	-2,255109	273,528027	315,132807	0
15.01.2021	06:33:51	0	0	3,728515	2,96025	2,6424	-0,412	85,392	0	1011,14	6,2	8,2	8	1	1	1	1	1	1	1	1	1	0	1	-4,298802	273,571535	313,291101	0
15.01.2021	06:33:52	0	0	3,389559	2,96625	358,092	-0,415	85,389	0	1011,44	6,1	8,2	8	1	1	1	1	1	1	1	1	1	0	1	-2,466526	273,460061	314,606055	0
15.01.2021	06:33:53	0	0	3,389559	2,9115	357,7428	-0,414	85,391	0	1011,24	6,2	8,2	8	1	1	1	1	1	1	1	1	1	0	1	-1,479915	273,571535	316,109988	0
15.01.2021	06:33:54	0	0	3,728515	2,7975	18,8352	-0,418	85,376	0	1011,26	6,2	8,2	8	1	1	1	1	1	1	1	1	1	0	1	-5,708245	273,533822	311,706571	0
15.01.2021	06:33:55	0	0	3,389559	2,57475	25,4088	-0,415	85,365	0	1011,14	6,2	8,2	8	1	1	1	1	1	1	1	1	1	0	1	-4,721635	273,431213	312,217169	0
15.01.2021	06:33:56	0	0	3,61553	2,328	15,858	-0,417	85,386	0	1011,18	6,2	8,1	8	1	1	1	1	1	1	1	1	1	0	1	-4,510218	273,552669	312,992089	0
15.01.2021	06:33:57	0	0	3,050603	2,3295	21,3876	-0,413	85,383	0	1011,06	6,2	8,1	8	1	1	1	1	1	1	1	1	1	0	1	-6,20155	273,570083	311,381611	0
15.01.2021	06:33:58	0	0	2,598662	2,34225	18,8496	-0,419	85,365	0	1011,28	6,2	8,1	8	1	1	1	1	1	1	1	1	1	0	1	-6,342495	273,490399	310,870814	0
15.01.2021	06:33:59	0	0	4,632398	2,44725	18,4608	-0,413	85,38	0	1011,26	6,2	8,1	8	1	1	1	1	1	1	1	1	1	0	1	-2,184637	273,581701	315,452476	0
15.01.2021	06:34:00	0	0	4,519412	2,376	20,6244	-0,421	85,392	0	1011,18	6,2	8,2	8	1	1	1	1	1	1	1	1	1	0	1	-0,140944	273,516441	317,193202	0
15.01.2021	06:34:01	0	0	4,519412	2,376	20,6244	-0,421	85,392	0	1011,18	6,2	8,2	8	1	1	1	1	1	1	1	1	1	0	1	-0,140944	273,516441	317,193202	0
15.01.2021	06:34:02	0	0	3,050603	2,29575	16,8588	-0,407	85,392	0	1011,38	6,2	8,1	8	1	1	1	1	1	1	1	1	1	0	1	-6,272023	273,415365	310,593307	0
15.01.2021	06:34:03	0	0	4,293442	2,31825	8,2548	-0,416	85,385	0	1011,2	6,2	8,1	8	1	1	1	1	1	1	1	1	1	0	1	-4,016913	273,562825	313,532548	0
15.01.2021	06:34:04	0	0	3,050603	2,32125	16,9524	-0,418	85,388	0	1011,26	6,2	8,2	8	1	1	1	1	1	1	1	1	1	0	1	-7,470049	273,562825	310,079412	0
15.01.2021	06:34:05	0	0	4,406427	2,27025	15,4044	-0,413	85,381	0	1011,22	6,2	8,1	8	1	1	1	1	1	1	1	1	1	0	1	-2,889359	273,402407	313,915911	0
15.01.2021	06:34:06	0	0	2,824633	2,3025	18,0648	-0,414	85,4	0	1011,42	6,2	8,2	8	1	1	1	1	1	1	1	1	1	0	1	-5,567301	273,451402	311,465121	0
15.01.2021	06:34:07	0	0	4,293442	2,3235	18,4716	-0,418	85,372	0	1011,16	6,2	8,1	8	1	1	1	1	1	1	1	1	1	0	1	-7,047216	273,470169	310,072243	0
15.01.2021	06:34:08	0	0	4,971354	2,223	24,3396	-0,415	85,393	0	1011,28	6,2	8,2	8	1	1	1	1	1	1	1	1	1	0	1	-5,003524	273,55557	312,512253	0
15.01.2021	06:34:09	0	0	4,067471	2,17275	18,4392	-0,414	85,385	0	1011,2	6,2	8,2	8	1	1	1	1	1	1	1	1	1	0	1	-2,325581	273,558472	315,203668	0
15.01.2021	06:34:10	0	0	3,954486	2,10075	16,1172	-0,415	85,37	0	1011,32	6,2	8,3	8	1	1	1	1	1	1	1	1	1	0	1	-2,325581	273,587513	315,338522	0
15.01.2021	06:34:11	0	0	4,971354	2,05125	16,11	-0,409	85,386	0	1011,28	6,2	8,1	8	1	1	1	1	1	1	1	1	1	0	1	-4,439746	273,552669	313,062561	0
15.01.2021	06:34:12	0	0	5,084339	2,07225	17,6868	-0,412	85,371	0	1011,4	6,2	8,1	8	1	1	1	1	1	1	1	1	1	0	1	-5,144468	273,564277	312,411732	0
15.01.2021	06:34:13	0	0	3,954486	2,178	14,292	-0,415	85,395	0	1011,28	6,2	8,1	8	1	1	1	1	1	1	1	1	1	0	1	-0	273,405286	316,818612	0
15.01.2021	06:34:14	0	0	4,519412	2,2065	13,9212	-0,412	85,394	0	1011,5	6,2	8,1	8	1	1	1	1	1	1	1	1	1	0	1	-3,59408	273,501969	313,672909	0
15.01.2021	06:34:15	0	0	3,728515	2,11125	15,4764	-0,416	85,389	0	1011,32	6,2	8,1	8	1	1	1	1	1	1	1	1	1	0	1	-3,171247	273,590419	314,506355	0
15.01.2021	06:34:16	0	0	3,841501	2,08575	18,4572	-0,418	85,389	0	1011,26	6,2	8,1	8	1	1	1	1	1	1	1	1	1	0	1	-2,818887	273,462949	314,267085	0
15.01.2021	06:34:17	0	0	4,067471	2,1285	15,4116	-0,417	85,38	0	1011,38	6,2	8,1	8	1	1	1	1	1	1	1	1	1	0	1	-3,312192	273,406726	313,513092	0
15.01.2021	06:34:18	0	0	4,180456	2,034	5,2128	-0,42	85,386	0	1011,26	6,2	8,1	8	1	1	1	1	1	1	1	1	1	0	1	-3,946441	273,551219	313,549133	0
15.01.2021	06:34:19	0	0	5,084339	2,0085	6,4476	-0,418	85,381	0	1011,3	6,2	8,1	8	1	1	1	1	1	1	1	1	1	0	1	-1,268499	273,514993	316,058929	0
15.01.2021	06:34:20	0	0	2,824633	2,004	19,9152	-0,409	85,399	0	1011,3	6,2	8,2	8	1	1	1	1	1	1	1	1	1	0	1	-1,550388	273,415365	315,314942	0
15.01.2021	06:34:21	0	0	5,084339	1,908	8,2692	-0,412	85,401	0	1011,3	6,2	8,2	8	1	1	1	1	1	1	1	1	1	0	1	-7,610994	273,445632	309,394668	0
15.01.2021	06:34:22	0	0	5,423295	1,84725	8,9964	-0,415	85,398	0	1011,26	6,2	8,2	8	1	1	1	1	1	1	1	1	1	0	1	-1,761804	273,571535	315,828099	0
15.01.2021	06:34:23	0	0	3,728515	1,89075	16,8588	-0,416	85,402	0	1011,22	6,2	8,1	8	1	1	1	1	1	1	1	1	1	0	1	-5,567301	273,575891	312,042831	0
15.01.2021	06:34:24	0	0	2,824633	2,04675	1,5624	-0,419	85,393	0	1011,18	6,2	8,1	8	1	1	1	1	1	1	1	1	1	0	1	-3,805497	273,484617	313,380985	0
15.01.2021	06:34:25	0	0	4,971354	2,14425	12,0996	-0,413	85,383	0	1011,22	6,2	8,2	8	1	1	1	1	1	1	1	1	1	0	1	-1,62086	273,408165	315,211097	0
15.01.2021	06:34:26	0	0	2,937618	2,229	13,1688	-0,416	85,398	0	1011,26	6,2	8,2	8	1	1	1	1	1	1	1	1	1	0	1	-0,845666	273,399529	315,946263	0
15.01.2021	06:34:27	0	0	4,858368	2,367	10,062	-0,416	85,405	0	1011,26	6,2	8,1	8	1	1	1	1	1	1	1	1	1	0	1	-3,875969	273,406726	312,949315	0
15.01.2021	06:34:28	0	0	2,937618	2,448	6,0516	-0,414	85,414	0	1011,22	6,2	8,2	8	1	1	1	1	1	1	1	1	1	0	1	-7,117689	273,429772	309,814432	0
15.01.2021	06:34:29	0	0	3,61553	2,4105	11,718	-0,413	85,395	0	1011,22	6,2	8,1	8	1	1	1	1	1	1	1	1	1	0	1	-3,382664	273,528027	314,005253	0
15.01.2021	06:34:30	0	0	3,276574	2,42025	359,4708	-0,415	85,411	0	1011,26	6,2	8,1	8	1	1	1	1	1	1	1	1	1	0	1	-3,382664	273,600595	314,342205	0
15.01.2021	06:34:31	0	0	4,632398	2,43375	10,0692	-0,418	85,385	0	1011,3	6,2	8,2	8	1	1	1	1	1	1	1	1	1	0	1	-9,725159	273,491845	307,494858	0
15.01.2021	06:34:32	0	0	4,632398	2,3355	22,4532	-0,415	85,386	0	1011,24	6,2	8,2	8	1	1	1	1	1	1	1	1	1	0	1	-5,003524	273,408165	311,828433	0
15.01.2021	06:34:33	0	0	4,632398	2,12175	14,2956	-0,419	85,397	0	1011,24	6,2	8,2	8	1	1	1	1	1	1	1	1	1	0	1	-6,412967	273,483172	310,76681	0
15.01.2021	06:34:34	0	0	3,050603	2,03625	13,9248	-0,416	85,408	0	1011,38	6,2	8,2	8	1	1	1	1	1	1	1	1	1	0	1	-8,245243	273,432654	308,700243	0
15.01.2021	06:34:35	0	0	2,937618	2,18325	26,5284	-0,413	85,419	0	1011,26	6,2	8,2	8	1	1	1	1	1	1	1	1	1	0	1	-6,483439	273,434096	310,468731	0
15.01.2021	06:34:36	0	0	3,050603	2,217	33,2748	-0,418	85,401	0	1011,26	6,2	8,1	8	1	1	1	1	1	1	1	1	1	0	1	-3,875969	273,445632	313,129692	0
15.01.2021	06:34:37	0	0	2,824633	2,27625	2,6496	-0,409	85,407	0	1011,26	6,2	8,1	8	1	1	1	1	1	1	1	1	1	0	1	-1,409443	273,408165	315,422514	0
15.01.2021	06:34:38	0	0	3,841501	2,27025	359,9136	-0,413	85,416	0	1011,5	6,2	8,2	8	1	1	1	1	1	1	1	1	1	0	1	-4,510218	273,438421	312,462006	0
15.01.2021	06:34:39	0	0	3,728515	2,1105	20,628	-0,417	85,406	0	1011,28	6,2	8,1	8	1	1	1	1	1	1	1	1	1	0	1	-3,523608	273,442747	313,468677	0
15.01.2021	06:34:40	0	0	3,276574	2,004	14,6952	-0,419	85,416	0	1011,28	6,2	8,1	8	1	1	1	1	1	1	1	1	1	0	1	-2,818887	273,458618	314,246999	0
15.01.2021	06:34:41	0	0	4,971354	2,0805	24,3252	-0,396	85,41	0	1011,26	6,2	8,1	8	1	1	1	1	1	1	1	1	1	0	1	-1,62086	273,586059	316,036495	0
15.01.2021	06:34:42	0	0	3,276574	2,38275	25,416	-0,412	85,422	0	1011,2	6,2	8,1	8	1	1	1	1	1	1	1	1	1	0	1	-0,493305	273,496183	316,746839	0
15.01.2021	06:34:43	0	0	2,824633	2,44425	16,128	-0,413	85,413	0	1011,18	6,2	8,1	8	1	1	1	1	1	1	1	1	1	0	1	-3,100775	273,411045	313,744529	0
15.01.2021	06:34:44	0	0	2,824633	2,47275	4,8384	-0,417	85,415	0	1011,28	6,2	8,2	8	1	1	1	1	1	1	1	1	1	0	1	-1,127555	273,46728	315,978508	0
15.01.2021	06:34:45	0	0	2,711647	2,64375	14,3784	-0,415	85,414	0	1011,2	6,2	8,1	8	1	1	1	1	1	1	1	1	1	0	1	-2,043693	273,412484	314,808286	0
15.01.2021	06:34:46	0	0	4,745383	2,8935	3,0276	-0,416	85,418	0	1011,26	6,2	8,1	8	1	1	1	1	1	1	1	1	1	0	1	-4,298802	273,545418	313,169843	0
15.01.2021	06:34:47	0	0	2,485677	3,0045	360	-0,415	85,415	0	1011,28	6,2	8,1	8	1	1	1	1	1	1	1	1	1	0	1	-5,990134	273,442747	311,002151	0
15.01.2021	06:34:48	0	0	3,61553	2,9835	2,4012	-0,413	85,413	0	1011,42	6,2	8,1	8	1	1	1	1	1	1	1	1	1	0	1	-1,832276	273,591872	315,852077	0
15.01.2021	06:34:49	0	0	4,067471	2,628	1,9152	-0,413	85,423	0	1011,22	6,2	8,1	8	1	1	1	1	1	1	1	1	1	0	1	-8,033827	273,442747	308,958458	0
15.01.2021	06:34:50	0	0	2,824633	2,3565	13,8924	-0,422	85,425	0	1011,38	6,2	8,1	8	1	1	1	1	1	1	1	1	1	0	1	-0	273,580248	317,630367	0
15.01.2021	06:34:51	0	0	5,423295	2,23725	21,7764	-0,424	85,409	0	1011,04	6,2	8,1	8	1	1	1	1	1	1	1	1	1	0	1	-3,875969	273,470169	313,243491	0
15.01.2021	06:34:52	0	0	2,485677	2,39325	18,18	-0,414	85,432	0	1011,36	6,2	8,1	8	1	1	1	1	1	1	1	1	1	0	1	-3,171247	273,416805	313,700759	0
15.01.2021	06:34:53	0	0	2,372692	2,595	30,7116	-0,418	85,415	0	1011,34	6,2	8,2	8	1	1	1	1	1	1	1	1	1	0	1	-3,171247	273,470169	313,948212	0
15.01.2021	06:34:54	0	0	3,841501	2,63325	26,19	-0,417	85,433	0	1011,32	6,2	8,2	8	1	1	1	1	1	1	1	1	1	0	1	-3,312192	273,421126	313,579847	0
15.01.2021	06:34:55	0	0	4,519412	2,55	10,062	-0,417	85,436	0	1011,34	6,2	8,1	8	1	1	1	1	1	1	1	1	1	0	1	-2,889359	273,50631	314,397772	0
15.01.2021	06:34:56	0	0	4,519412	2,63025	30,3228	-0,414	85,428	0	1011,2	6,2	8,1	8	1	1	1	1	1	1	1	1	1	0	1	-4,862579	273,559923	312,673407	0
15.01.2021	06:34:57	0	0	4,632398	2,58	24,3252	-0,415	85,431	0	1011,26	6,2	8,1	8	1	1	1	1	1	1	1	1	1	0	1	-3,312192	273,56718	314,257488	0
15.01.2021	06:34:58	0	0	2,598662	2,44575	16,4952	-0,411	85,438	0	1011,34	6,2	8,1	8	1	1	1	1	1	1	1	1	1	0	1	-2,818887	273,523681	314,548862	0
15.01.2021	06:34:59	0	0	2,937618	2,43675	7,5168	-0,414	85,424	0	1011,26	6,2	8,1	8	1	1	1	1	1	1	1	1	1	0	1	-4,087385	273,422567	312,811332	0
15.01.2021	06:35:00	0	0	4,632398	2,8395	13,9212	-0,415	85,432	0	1011,34	6,2	8,1	8	1	1	1	1	1	1	1	1	1	0	1	-5,003524	273,426889	311,915234	0
15.01.2021	06:35:01	0	0	4,632398	2,8395	13,9212	-0,415	85,432	0	1011,34	6,2	8,1	8	1	1	1	1	1	1	1	1	1	0	1	-6,131078	273,570083	311,452083	0
15.01.2021	06:35:02	0	0	4,745383	3,066	19,5336	-0,417	85,428	0	1011,24	6,2	8,1	8	1	1	1	1	1	1	1	1	1	0	1	-5,144468	273,509204	312,156093	0
15.01.2021	06:35:03	0	0	4,406427	2,96775	15,4008	-0,412	85,412	0	1011,24	6,2	8,1	8	1	1	1	1	1	1	1	1	1	0	1	-8,315715	273,402407	308,489554	0
15.01.2021	06:35:04	0	0	4,406427	2,91075	3,0168	-0,415	85,42	0	1011,28	6,2	8,1	8	1	1	1	1	1	1	1	1	1	0	1	-8,45666	273,552669	309,045648	0
15.01.2021	06:35:05	0	0	3,728515	3,1305	2,6424	-0,413	85,433	0	1011,32	6,2	8,2	8	1	1	1	1	1	1	1	1	1	0	1	-5,21494	273,507757	312,078905	0
15.01.2021	06:35:06	0	0	4,067471	3,4065	4,1616	-0,411	85,427	0	1011,2	6,2	8,1	8	1	1	1	1	1	1	1	1	1	0	1	-6,272023	273,415365	310,593307	0
15.01.2021	06:35:07	0	0	2,598662	3,24225	21,7584	-0,407	85,426	0	1011,26	6,2	8,2	8	1	1	1	1	1	1	1	1	1	0	1	-4,157858	273,455731	312,894641	0
15.01.2021	06:35:08	0	0	3,728515	2,93175	11,2104	-0,416	85,43	0	1011,2	6,2	8,1	8	1	1	1	1	1	1	1	1	1	0	1	-5,21494	273,528027	312,172976	0
15.01.2021	06:35:09	0	0	3,954486	2,69925	25,776	-0,413	85,435	0	1011,34	6,2	8,1	8	1	1	1	1	1	1	1	1	1	0	1	-3,030303	273,583154	314,613557	0
15.01.2021	06:35:10	0	0	3,728515	2,817	19,89	-0,409	85,426	0	1011,32	6,2	8,3	8	1	1	1	1	1	1	1	1	1	0	1	-3,875969	273,451402	313,156453	0
15.01.2021	06:35:11	0	0	4,519412	2,853	20,6352	-0,413	85,427	0	1011,38	6,2	8,1	8	1	1	1	1	1	1	1	1	1	0	1	-3,100775	273,535271	314,320767	0
15.01.2021	06:35:12	0	0	2,824633	2,58075	12,4704	-0,414	85,439	0	1011,34	6,2	8,1	8	1	1	1	1	1	1	1	1	1	0	1	-4,087385	273,395213	312,684538	0
15.01.2021	06:35:13	0	0	3,728515	2,50875	15,3972	-0,411	85,437	0	1011,26	6,2	8,2	8	1	1	1	1	1	1	1	1	1	0	1	-4,862579	273,549768	312,626261	0
15.01.2021	06:35:14	0	0	4,293442	2,7345	10,4472	-0,418	85,424	0	1011,28	6,2	8,2	8	1	1	1	1	1	1	1	1	1	0	1	-6,906272	273,578796	310,717349	0
15.01.2021	06:35:15	0	0	5,084339	2,874	8,2476	-0,411	85,415	0	1011,26	6,2	8,2	8	1	1	1	1	1	1	1	1	1	0	1	-2,255109	273,448517	314,763931	0
15.01.2021	06:35:16	0	0	4,632398	2,85675	22,086	-0,41	85,419	0	1011,28	6,2	8,1	8	1	1	1	1	1	1	1	1	1	0	1	-3,030303	273,528027	314,357613	0
15.01.2021	06:35:17	0	0	4,519412	2,883	19,8072	-0,409	85,427	0	1011,3	6,2	8,1	8	1	1	1	1	1	1	1	1	1	0	1	-6,624383	273,575891	310,985749	0
15.01.2021	06:35:18	0	0	2,259706	2,70225	19,1412	-0,411	85,413	0	1011,12	6,2	8,1	8	1	1	1	1	1	1	1	1	1	0	1	-1,902748	273,444189	315,096225	0
15.01.2021	06:35:19	0	0	4,745383	2,673	353,5704	-0,415	85,41	0	1011,22	6,2	8,1	8	1	1	1	1	1	1	1	1	1	0	1	-5,21494	273,583154	312,42892	0
15.01.2021	06:35:20	0	0	4,180456	2,87775	360	-0,412	85,431	0	1011,26	6,2	8,2	8	1	1	1	1	1	1	1	1	1	0	1	-5,003524	273,770016	313,509053	0
15.01.2021	06:35:21	0	0	2,824633	2,8335	0,5004	-0,408	85,424	0	1011,28	6,2	8,1	8	1	1	1	1	1	1	1	1	1	0	1	-5,637773	273,503416	311,63593	0
15.01.2021	06:35:22	0	0	2,485677	2,64375	359,082	-0,412	85,403	0	1011,22	6,2	8,2	8	1	1	1	1	1	1	1	1	1	0	1	-4,016913	273,583154	313,626946	0
15.01.2021	06:35:23	0	0	2,824633	2,559	7,5096	-0,415	85,423	0	1011,18	6,2	8,1	8	1	1	1	1	1	1	1	1	1	0	1	-3,523608	273,546868	313,951768	0
15.01.2021	06:35:24	0	0	3,954486	2,499	3,3768	-0,416	85,397	0	1011,36	6,2	8,1	8	1	1	1	1	1	1	1	1	1	0	1	-3,735025	273,412484	313,116954	0
15.01.2021	06:35:25	0	0	4,745383	2,41575	359,5968	-0,412	85,415	0	1011,2	6,2	8,2	8	1	1	1	1	1	1	1	1	1	0	1	-0	273,558472	317,529249	0
15.01.2021	06:35:26	0	0	3,841501	2,25225	2,6568	-0,413	85,401	0	1011,34	6,2	8,1	8	1	1	1	1	1	1	1	1	1	0	1	-3,735025	273,448517	313,284016	0
15.01.2021	06:35:27	0	0	3,276574	2,184	4,8456	-0,411	85,414	0	1011,52	6,2	8,2	8	1	1	1	1	1	1	1	1	1	0	1	-4,862579	273,572987	312,734066	0
15.01.2021	06:35:28	0	0	4,632398	2,2005	3,8484	-0,417	85,428	0	1011,32	6,2	8,1	8	1	1	1	1	1	1	1	1	1	0	1	-3,523608	273,568631	314,052812	0
15.01.2021	06:35:29	0	0	3,163589	2,09025	4,5828	-0,412	85,413	0	1011,3	6,2	8,2	8	1	1	1	1	1	1	1	1	1	0	1	-0	273,412484	316,851979	0
15.01.2021	06:35:30	0	0	3,276574	1,9665	4,0932	-0,41	85,423	0	1011,22	6,2	8,1	8	1	1	1	1	1	1	1	1	1	0	1	-3,946441	273,395213	312,825483	0
15.01.2021	06:35:31	0	0	3,276574	1,85475	11,7144	-0,415	85,415	0	1011,38	6,1	8,2	8	1	1	1	1	1	1	1	1	1	0	1	-2,396054	273,478836	314,763612	0
15.01.2021	06:35:32	0	0	2,485677	1,85025	18,0936	-0,413	85,417	0	1011,44	6,2	8,2	8	1	1	1	1	1	1	1	1	1	0	1	-3,875969	273,570083	313,707192	0
15.01.2021	06:35:33	0	0	4,632398	1,92225	23,1984	-0,421	85,412	0	1011,2	6,2	8,1	8	1	1	1	1	1	1	1	1	1	0	1	-0	273,42833	316,925439	0
15.01.2021	06:35:34	0	0	3,61553	2,06625	34,7148	-0,414	85,409	0	1011,4	6,2	8,1	8	1	1	1	1	1	1	1	1	1	0	1	-10,852713	273,481726	306,32036	0
15.01.2021	06:35:35	0	0	4,745383	2,21625	8,6364	-0,41	85,412	0	1011,34	6,2	8,2	8	1	1	1	1	1	1	1	1	1	0	1	-8,174771	273,392336	308,583819	0
15.01.2021	06:35:36	0	0	4,519412	2,148	12,8484	-0,409	85,403	0	1011,38	6,2	8,2	8	1	1	1	1	1	1	1	1	1	0	1	-5,426357	273,581701	312,210756	0
15.01.2021	06:35:37	0	0	2,711647	2,15325	12,456	-0,415	85,41	0	1011,38	6,1	8,2	8	1	1	1	1	1	1	1	1	1	0	1	-0	273,461505	317,079276	0
15.01.2021	06:35:38	0	0	3,389539	2,20725	18,4716	-0,416	85,394	0	1011,34	6,2	8,2	8,1	1	1	1	1	1	1	1	1	1	0	1	-6,412967	273,570083	311,170194	0
15.01.2021	06:35:39	0	0	3,163589	2,18475	24,3324	-0,415	85,412	0	1011,26	6,2	8,1	8	1	1	1	1	1	1	1	1	1	0	1	-3,523608	273,448517	313,495432	0
15.01.2021	06:35:40	0	0	4,971354	2,055	360	-0,41	85,412	0	1011,34	6,2	8,1	8	1	1	1	1	1	1	1	1	1	0	1	-2,959831	273,400968	313,838768	0
15.01.2021	06:35:41	0	0	4,971354	2,0145	12,4812	-0,413	85,41	0	1011,26	6,2	8,1	8	1	1	1	1	1	1	1	1	1	0	1	-3,735025	273,530924	313,66634	0
15.01.2021	06:35:42	0	0	3,61553	1,9065	10,0548	-0,411	85,395	0	1011,26	6,2	8,1	8	1	1	1	1	1	1	1	1	1	0	1	-5,637773	273,559923	311,898213	0
15.01.2021	06:35:43	0	0	4,745383	1,99425	20,6316	-0,423	85,395	0	1011,22	6,2	8,1	8	1	1	1	1	1	1	1	1	1	0	1	-6,272023	273,587513	311,392081	0
15.01.2021	06:35:44	0	0	3,954486	2,17575	16,848	-0,415	85,399	0	1011,18	6,2	8,1	8	1	1	1	1	1	1	1	1	1	0	1	-6,131078	273,539619	311,310647	0
15.01.2021	06:35:45	0	0	2,711647	2,304	12,852	-0,408	85,415	0	1011,3	6,2	8,2	8	1	1	1	1	1	1	1	1	1	0	1	-4,087385	273,546868	313,387991	0
15.01.2021	06:35:46	0	0	3,050603	2,37975	16,4736	-0,41	85,395	0	1011,2	6,2	8,1	8	1	1	1	1	1	1	1	1	1	0	1	-0,493305	273,424007	316,412092	0
15.01.2021	06:35:47	0	0	4,406427	2,32875	18,4572	-0,414	85,389	0	1011,28	6,2	8,2	8	1	1	1	1	1	1	1	1	1	0	1	-3,664553	273,449959	313,361178	0
15.01.2021	06:35:48	0	0	3,728515	2,505	21,3948	-0,417	85,399	0	1011,22	6,1	8,1	8	1	1	1	1	1	1	1	1	1	0	1	-7,963354	273,583154	309,680505	0
15.01.2021	06:35:49	0	0	4,293442	2,69025	7,128	-0,411	85,403	0	1011,28	6,2	8,1	8	1	1	1	1	1	1	1	1	1	0	1	-9,513742	273,460061	307,558838	0
15.01.2021	06:35:50	0	0	2,485677	2,90175	10,4472	-0,413	85,415	0	1011,32	6,2	8,1	8	1	1	1	1	1	1	1	1	1	0	1	-0,352361	273,584606	317,298246	0
15.01.2021	06:35:51	0	0	4,745383	2,9595	0,8784	-0,412	85,4	0	1011,26	6,1	8,1	8	1	1	1	1	1	1	1	1	1	0	1	-4,22833	273,416805	312,643676	0
15.01.2021	06:35:52	0	0	4,519412	2,85975	5,238	-0,411	85,402	0	1011,32	6,2	8,1	8	1	1	1	1	1	1	1	1	1	0	1	-2,818887	273,548318	314,663221	0
15.01.2021	06:35:53	0	0	3,050603	2,778	6,0588	-0,413	85,406	0	1011,28	6,2	8,2	8	1	1	1	1	1	1	1	1	1	0	1	-10,782241	273,419685	306,10312	0
15.01.2021	06:35:54	0	0	3,389559	2,775	6,066	-0,417	85,396	0	1011,3	6,2	8,1	8	1	1	1	1	1	1	1	1	1	0	1	-10,782241	273,493291	306,444484	0
15.01.2021	06:35:55	0	0	2,824633	2,90925	8,6148	-0,411	85,41	0	1011,16	6,2	8,2	8	1	1	1	1	1	1	1	1	1	0	1	-5,567301	273,578796	312,05632	0
15.01.2021	06:35:56	0	0	2,937618	2,673	15,4044	-0,412	85,412	0	1011,44	6,2	8,1	8	1	1	1	1	1	1	1	1	1	0	1	-5,84919	273,418245	311,029494	0
15.01.2021	06:35:57	0	0	4,745383	2,5875	16,8696	-0,414	85,397	0	1011,32	6,2	8,1	8	1	1	1	1	1	1	1	1	1	0	1	-5,567301	273,487508	311,632593	0
15.01.2021	06:35:58	0	0	4,745383	2,667	11,718	-0,41	85,408	0	1011,4	6,2	8,1	8	1	1	1	1	1	1	1	1	1	0	1	-4,087385	273,557021	313,435127	0
15.01.2021	06:35:59	0	0	2,824633	2,75925	9,3744	-0,413	85,405	0	1011,2	6,2	8,2	8	1	1	1	1	1	1	1	1	1	0	1	-4,016913	273,590419	313,660689	0
15.01.2021	06:36:00	0	0	2,937618	2,89875	351,72	-0,415	85,408	0	1011,4	6,2	8,1	8	1	1	1	1	1	1	1	1	1	0	1	-4,862579	273,389459	311,882679	0
15.01.2021	06:36:01	0	0	2,937618	2,89875	351,72	-0,415	85,408	0	1011,4	6,2	8,1	8	1	1	1	1	1	1	1	1	1	0	1	-4,862579	273,389459	311,882679	0
15.01.2021	06:36:02	0	0	3,841501	2,92875	5,202	-0,411	85,41	0	1011,34	6,2	8,2	8	1	1	1	1	1	1	1	1	1	0	1	-2,466526	273,541069	314,981929	0
15.01.2021	06:36:03	0	0	5,084339	3,0075	4,4784	-0,412	85,413	0	1011,22	6,1	8,1	8	1	1	1	1	1	1	1	1	1	0	1	-8,80902	273,46728	308,297042	0
15.01.2021	06:36:04	0	0	4,745383	2,805	9,738	-0,417	85,406	0	1011,26	6,2	8,2	8	1	1	1	1	1	1	1	1	1	0	1	-6,624383	273,572987	310,972262	0
15.01.2021	06:36:05	0	0	2,711647	2,67525	359,1	-0,412	85,417	0	1011,3	6,2	8,1	8	1	1	1	1	1	1	1	1	1	0	1	-3,523608	273,808195	315,166681	0
15.01.2021	06:36:06	0	0	3,050603	2,68425	4,4676	-0,412	85,404	0	1011,3	6,2	8,2	8	1	1	1	1	1	1	1	1	1	0	1	-4,22833	273,577343	313,388547	0
15.01.2021	06:36:07	0	0	3,276574	2,799	5,2128	-0,418	85,392	0	1011,2	6,1	8,1	8	1	1	1	1	1	1	1	1	1	0	1	-6,131078	273,424007	310,774319	0
15.01.2021	06:36:08	0	0	2,598662	2,871	1,9044	-0,415	85,394	0	1011,3	6,2	8,1	8	1	1	1	1	1	1	1	1	1	0	1	-4,016913	273,545418	313,451731	0
15.01.2021	06:36:09	0	0	4,067471	2,9145	9,7416	-0,413	85,391	0	1011,42	6,2	8,2	8	1	1	1	1	1	1	1	1	1	0	1	-1,127555	273,583154	316,516305	0
15.01.2021	06:36:10	0	0	3,163589	2,874	10,0764	-0,413	85,397	0	1011,36	6,2	8,2	8	1	1	1	1	1	1	1	1	1	0	1	-3,100775	273,470169	314,018685	0
15.01.2021	06:36:11	0	0	3,163589	2,7855	14,2992	-0,408	85,414	0	1011,28	6,2	8,2	8	1	1	1	1	1	1	1	1	1	0	1	-3,735025	273,409605	313,103606	0
15.01.2021	06:36:12	0	0	4,067471	2,78025	28,3572	-0,409	85,413	0	1011,24	6,2	8,2	8	1	1	1	1	1	1	1	1	1	0	1	-3,030303	273,399529	313,761626	0
15.01.2021	06:36:13	0	0	3,502545	2,61525	27,288	-0,415	85,402	0	1011,2	6,2	8,2	8	1	1	1	1	1	1	1	1	1	0	1	-5,778717	273,504863	311,501699	0
15.01.2021	06:36:14	0	0	3,954486	2,42625	26,9136	-0,413	85,414	0	1011,28	6,2	8,2	8	1	1	1	1	1	1	1	1	1	0	1	-4,016913	273,570083	313,566248	0
15.01.2021	06:36:15	0	0	2,824633	2,2515	4,4748	-0,421	85,397	0	1011,16	6,2	8,1	8	1	1	1	1	1	1	1	1	1	0	1	-8,245243	273,517889	309,095623	0
15.01.2021	06:36:16	0	0	2,598662	2,4375	13,1724	-0,414	85,408	0	1011,52	6,2	8,2	8	1	1	1	1	1	1	1	1	1	0	1	-4,157858	273,406726	312,667426	0
15.01.2021	06:36:17	0	0	2,937618	2,58	18,45	-0,414	85,423	0	1011,3	6,2	8,1	8	1	1	1	1	1	1	1	1	1	0	1	-5,285412	273,421126	311,606627	0
15.01.2021	06:36:18	0	0	4,632398	2,5575	14,652	-0,408	85,426	0	1011,4	6,2	8,2	8	1	1	1	1	1	1	1	1	1	0	1	-2,255109	273,56718	315,31457	0
15.01.2021	06:36:19	0	0	4,406427	2,43675	13,1688	-0,416	85,41	0	1011,26	6,2	8,2	8	1	1	1	1	1	1	1	1	1	0	1	-2,043693	273,530924	315,357672	0
15.01.2021	06:36:20	0	0	2,824633	2,376	10,836	-0,414	85,411	0	1011,26	6,2	8,2	8	1	1	1	1	1	1	1	1	1	0	1	-1,62086	273,568631	315,95556	0
15.01.2021	06:36:21	0	0	4,406427	2,268	6,822	-0,417	85,411	0	1011,22	6,2	8,2	8	1	1	1	1	1	1	1	1	1	0	1	-6,131078	273,55412	311,377964	0
15.01.2021	06:36:22	0	0	3,728515	2,178	8,262	-0,415	85,414	0	1011,42	6,2	8,1	8	1	1	1	1	1	1	1	1	1	0	1	-7,117689	273,517889	310,223177	0
15.01.2021	06:36:23	0	0	4,293442	1,98825	4,572	-0,411	85,391	0	1011,1	6,2	8,2	8	1	1	1	1	1	1	1	1	1	0	1	-5,285412	273,583154	312,358447	0
15.01.2021	06:36:24	0	0	4,067447	1,82175	9,7488	-0,416	85,401	0	1011,26	6,2	8,2	8,1	1	1	1	1	1	1	1	1	1	0	1	-6,131078	273,50631	311,156052	0
15.01.2021	06:36:25	0	0	4,519412	1,79625	12,4668	-0,416	85,408	0	1011,36	6,2	8,2	8	1	1	1	1	1	1	1	1	1	0	1	-4,016913	273,535271	313,404629	0
15.01.2021	06:36:26	0	0	4,745383	1,72875	10,44	-0,411	85,409	0	1011,34	6,2	8,1	8	1	1	1	1	1	1	1	1	1	0	1	-6,131078	273,405286	310,687534	0
15.01.2021	06:36:27	0	0	3,163589	1,72125	12,096	-0,41	85,417	0	1011,34	6,2	8,1	8	1	1	1	1	1	1	1	1	1	0	1	-5,003524	273,483172	312,176254	0
15.01.2021	06:36:28	0	0	3,050603	1,90575	10,0548	-0,411	85,412	0	1011,36	6,2	8,2	8	1	1	1	1	1	1	1	1	1	0	1	-7,047216	273,408165	309,784741	0
15.01.2021	06:36:29	0	0	3,276574	2,14875	10,4472	-0,416	85,4	0	1011,28	6,2	8,1	8	1	1	1	1	1	1	1	1	1	0	1	-4,087385	273,451402	312,945036	0
15.01.2021	06:36:30	0	0	4,293442	2,364	16,1028	-0,413	85,408	0	1011,36	6,1	8,2	8	1	1	1	1	1	1	1	1	1	0	1	-1,268499	273,562825	316,280962	0
15.01.2021	06:36:31	0	0	3,389559	2,42775	15,408	-0,415	85,397	0	1011,3	6,1	8,2	8	1	1	1	1	1	1	1	1	1	0	1	-0	273,409605	316,83863	0
15.01.2021	06:36:32	0	0	4,971354	2,42925	23,9724	-0,41	85,412	0	1011,28	6,1	8,2	8	1	1	1	1	1	1	1	1	1	0	1	-1,761804	273,520785	315,592502	0
15.01.2021	06:36:33	0	0	3,502545	2,41725	18,0792	-0,415	85,397	0	1011,34	6,2	8,2	8	1	1	1	1	1	1	1	1	1	0	1	-1,62086	273,412484	315,231119	0
15.01.2021	06:36:34	0	0	4,519412	2,38275	11,1924	-0,417	85,408	0	1011,28	6,2	8,1	8	1	1	1	1	1	1	1	1	1	0	1	-5,919662	273,588966	311,751191	0
15.01.2021	06:36:35	0	0	2,937618	2,679	18,5616	-0,416	85,408	0	1011,24	6,2	8,2	8	1	1	1	1	1	1	1	1	1	0	1	-7,258633	273,451402	309,773789	0
15.01.2021	06:36:36	0	0	4,858368	2,9235	6,8076	-0,412	85,401	0	1011,26	6,2	8,1	8	1	1	1	1	1	1	1	1	1	0	1	-3,171247	273,418245	313,707436	0
15.01.2021	06:36:37	0	0	3,61553	3,09675	12,8448	-0,41	85,429	0	1011,44	6,1	8,1	8	1	1	1	1	1	1	1	1	1	0	1	-4,721635	273,583154	312,922225	0
15.01.2021	06:36:38	0	0	2,711647	3,38625	4,9284	-0,416	85,393	0	1011,28	6,2	8,2	8	1	1	1	1	1	1	1	1	1	0	1	-3,946441	273,50631	313,340689	0
15.01.2021	06:36:39	0	0	3,050603	3,546	1,9188	-0,415	85,416	0	1011,32	6,2	8,1	8	1	1	1	1	1	1	1	1	1	0	1	-0	273,574439	317,603389	0
15.01.2021	06:36:40	0	0	3,954486	3,48525	12,0924	-0,419	85,394	0	1011,28	6,1	8,1	8	1	1	1	1	1	1	1	1	1	0	1	-0,493305	273,475947	316,652956	0
15.01.2021	06:36:41	0	0	2,711647	3,306	34,3332	-0,411	85,418	0	1011,16	6,1	8,2	8	1	1	1	1	1	1	1	1	1	0	1	-4,369274	273,416805	312,502732	0
15.01.2021	06:36:42	0	0	4,971354	3,1665	31,7664	-0,411	85,428	0	1011,34	6,2	8,1	8	1	1	1	1	1	1	1	1	1	0	1	-3,171247	273,557021	314,351265	0
15.01.2021	06:36:43	0	0	4,971354	3,096	27,3024	-0,412	85,421	0	1011,28	6,2	8,2	8	1	1	1	1	1	1	1	1	1	0	1	-0,140944	273,477391	317,012019	0
15.01.2021	06:36:44	0	0	3,61553	3,05775	13,5288	-0,41	85,418	0	1011,38	6,1	8,2	8	1	1	1	1	1	1	1	1	1	0	1	-0	273,418245	316,878683	0
15.01.2021	06:36:45	0	0	2,937618	3,2145	19,9008	-0,413	85,396	0	1011,24	6,1	8,2	8	1	1	1	1	1	1	1	1	1	0	1	-2,466526	273,439863	314,512385	0
15.01.2021	06:36:46	0	0	4,858368	3,2955	22,0896	-0,413	85,412	0	1011,18	6,2	8,2	8	1	1	1	1	1	1	1	1	1	0	1	-8,668076	273,559923	308,86791	0
15.01.2021	06:36:47	0	0	3,841501	3,228	27,9684	-0,414	85,424	0	1011,26	6,2	8,1	8	1	1	1	1	1	1	1	1	1	0	1	-3,735025	273,416805	313,136981	0
15.01.2021	06:36:48	0	0	4,971354	3,0645	19,152	-0,42	85,417	0	1011,26	6,2	8,2	8	1	1	1	1	1	1	1	1	1	0	1	-7,399577	273,545418	310,069067	0
15.01.2021	06:36:49	0	0	3,728515	3,01425	18,0828	-0,419	85,402	0	1011,16	6,1	8,2	8	1	1	1	1	1	1	1	1	1	0	1	-4,792107	273,577343	312,824769	0
15.01.2021	06:36:50	0	0	4,067471	2,9895	10,4472	-0,416	85,405	0	1011,42	6,2	8,2	8	1	1	1	1	1	1	1	1	1	0	1	-3,735025	273,465836	313,36434	0
15.01.2021	06:36:51	0	0	4,406427	3,045	360	-0,415	85,413	0	1011,18	6,2	8,2	8	1	1	1	1	1	1	1	1	1	0	1	-1,691332	273,600595	316,033537	0
15.01.2021	06:36:52	0	0	2,598662	3,0255	10,8216	-0,409	85,424	0	1011,34	6,2	8,2	8	1	1	1	1	1	1	1	1	1	0	1	-3,875969	273,403847	312,935971	0
15.01.2021	06:36:53	0	0	4,519412	3,039	7,5096	-0,415	85,406	0	1011,34	6,1	8,2	8	1	1	1	1	1	1	1	1	1	0	1	-2,536998	273,487508	314,662896	0
15.01.2021	06:36:54	0	0	4,745383	2,9115	9,7308	-0,413	85,416	0	1011,28	6,1	8,1	8	1	1	1	1	1	1	1	1	1	0	1	-5,355884	273,572987	312,240761	0
15.01.2021	06:36:55	0	0	3,389559	2,859	4,4604	-0,413	85,421	0	1011,22	6,1	8,1	8	1	1	1	1	1	1	1	1	1	0	1	-5,144468	273,494737	312,088966	0
15.01.2021	06:36:56	0	0	2,372692	2,97675	2,304	-0,416	85,42	0	1011,24	6,1	8,1	8	1	1	1	1	1	1	1	1	1	0	1	-4,369274	273,577343	313,247602	0
15.01.2021	06:36:57	0	0	4,971354	3,13125	3,024	-0,415	85,409	0	1011,32	6,2	8,2	8	1	1	1	1	1	1	1	1	1	0	1	-4,298802	273,552669	313,203506	0
15.01.2021	06:36:58	0	0	4,632398	2,964	11,1924	-0,418	85,416	0	1011,34	6,1	8,1	8	1	1	1	1	1	1	1	1	1	0	1	-0,704722	273,435537	316,254133	0
15.01.2021	06:36:59	0	0	3,276574	2,658	27,6588	-0,413	85,415	0	1011,26	6,1	8,1	8	1	1	1	1	1	1	1	1	1	0	1	-3,735025	273,539619	313,706701	0
15.01.2021	06:37:00	0	0	4,745383	2,2785	20,6208	-0,413	85,421	0	1011,34	6,1	8,2	8	1	1	1	1	1	1	1	1	1	0	1	-7,258633	273,408165	309,573324	0
15.01.2021	06:37:01	0	0	4,293442	2,2665	25,7904	-0,419	85,425	0	1011,16	6,1	8,1	8	1	1	1	1	1	1	1	1	1	0	1	-7,258633	273,408165	309,573324	0
15.01.2021	06:37:02	0	0	4,293442	2,2665	25,7904	-0,419	85,425	0	1011,16	6,1	8,1	8	1	1	1	1	1	1	1	1	1	0	1	-4,157858	273,490399	313,055451	0
15.01.2021	06:37:03	0	0	4,858368	2,346	20,6532	-0,412	85,401	0	1011,32	6,1	8,1	8	1	1	1	1	1	1	1	1	1	0	1	-2,748414	273,439863	314,230497	0
15.01.2021	06:37:04	0	0	3,389559	2,66775	3,7944	-0,408	85,429	0	1011,26	6,2	8,1	8	1	1	1	1	1	1	1	1	1	0	1	-1,338971	273,411045	315,506333	0
15.01.2021	06:37:05	0	0	4,293416	3,0465	6,8148	-0,409	85,427	0	1011,36	6,1	8,1	8,1	1	1	1	1	1	1	1	1	1	0	1	-4,510218	273,519337	312,837367	0
15.01.2021	06:37:06	0	0	4,293442	3,177	10,0584	-0,412	85,405	0	1011,28	6,2	8,2	8	1	1	1	1	1	1	1	1	1	0	1	-1,057082	273,46728	316,04898	0
15.01.2021	06:37:07	0	0	2,711631	3,0705	23,2272	-0,411	85,418	0	1011,3	6,1	8,1	8,1	1	1	1	1	1	1	1	1	1	0	1	-4,22833	273,583154	313,41553	0
15.01.2021	06:37:08	0	0	3,728515	2,99925	4,4604	-0,413	85,419	0	1011,32	6,1	8,2	8	1	1	1	1	1	1	1	1	1	0	1	-3,946441	273,445632	313,05922	0
15.01.2021	06:37:09	0	0	3,276574	2,87925	16,8624	-0,42	85,42	0	1011,28	6,2	8,2	8	1	1	1	1	1	1	1	1	1	0	1	-4,580691	273,526578	312,800502	0
15.01.2021	06:37:10	0	0	3,389539	2,7225	4,8276	-0,413	85,424	0	1011,36	6,2	8,2	8,1	1	1	1	1	1	1	1	1	1	0	1	-2,043693	273,574439	315,559696	0
15.01.2021	06:37:11	0	0	4,745383	2,907	1,998	-0,415	85,432	0	1011,36	6,2	8,1	8	1	1	1	1	1	1	1	1	1	0	1	-3,59408	273,441305	313,391517	0
15.01.2021	06:37:12	0	0	4,971354	3,20175	4,8492	-0,416	85,419	0	1011,26	6,1	8,2	8	1	1	1	1	1	1	1	1	1	0	1	-0,916138	273,561374	316,626585	0
15.01.2021	06:37:13	0	0	3,163589	3,177	13,5468	-0,415	85,404	0	1011,42	6,1	8,2	8	1	1	1	1	1	1	1	1	1	0	1	-4,510218	273,408165	312,321738	0
15.01.2021	06:37:14	0	0	3,502545	3,14175	18,4536	-0,413	85,415	0	1011,2	6,2	8,1	8	1	1	1	1	1	1	1	1	1	0	1	-8,45666	273,418245	308,422024	0
15.01.2021	06:37:15	0	0	4,519412	2,8545	8,3736	-0,409	85,427	0	1011,26	6,2	8,1	8	1	1	1	1	1	1	1	1	1	0	1	-5,778717	273,523681	311,589031	0
15.01.2021	06:37:16	0	0	2,711647	2,72775	18,4608	-0,412	85,431	0	1011,2	6,1	8,2	8	1	1	1	1	1	1	1	1	1	0	1	-2,959831	273,575891	314,650301	0
15.01.2021	06:37:17	0	0	4,858368	2,604	16,0848	-0,415	85,407	0	1011,36	6,2	8,2	8	1	1	1	1	1	1	1	1	1	0	1	-2,60747	273,481726	314,565603	0
15.01.2021	06:37:18	0	0	2,711647	2,469	22,464	-0,416	85,414	0	1011,32	6,2	8,1	8	1	1	1	1	1	1	1	1	1	0	1	-5,285412	273,419685	311,599949	0
15.01.2021	06:37:19	0	0	4,067471	2,5275	30,042	-0,408	85,429	0	1011,18	6,1	8,1	8	1	1	1	1	1	1	1	1	1	0	1	-0	273,452845	317,039113	0
15.01.2021	06:37:20	0	0	2,937618	2,44725	12,852	-0,419	85,422	0	1011,3	6,1	8,2	8	1	1	1	1	1	1	1	1	1	0	1	-2,959831	273,461505	314,119445	0
15.01.2021	06:37:21	0	0	2,146721	2,41425	21,3984	-0,416	85,404	0	1011,36	6,2	8,2	8	1	1	1	1	1	1	1	1	1	0	1	-5,285412	273,578796	312,338209	0
15.01.2021	06:37:22	0	0	4,745383	2,39775	18,8496	-0,413	85,424	0	1011,34	6,2	8,2	8	1	1	1	1	1	1	1	1	1	0	1	-2,466526	273,457175	314,592666	0
15.01.2021	06:37:23	0	0	4,63237	2,3925	16,4772	-0,419	85,422	0	1011,24	6,1	8,2	8,1	1	1	1	1	1	1	1	1	1	0	1	-5,567301	273,571535	312,022602	0
15.01.2021	06:37:24	0	0	2,485677	2,43975	23,5908	-0,414	85,42	0	1011,3	6,2	8,2	8	1	1	1	1	1	1	1	1	1	0	1	-1,62086	273,512098	315,693133	0
15.01.2021	06:37:25	0	0	4,519412	2,43375	13,9248	-0,41	85,418	0	1011,14	6,2	8,2	8	1	1	1	1	1	1	1	1	1	0	1	-7,892882	273,452845	309,146231	0
15.01.2021	06:37:26	0	0	4,632398	2,4285	15,5196	-0,41	85,408	0	1011,14	6,1	8,2	8	1	1	1	1	1	1	1	1	1	0	1	-2,959831	273,599141	314,758284	0
15.01.2021	06:37:27	0	0	2,711647	2,48925	19,5228	-0,414	85,427	0	1011,2	6,2	8,2	8	1	1	1	1	1	1	1	1	1	0	1	-3,735025	273,533822	313,679791	0
15.01.2021	06:37:28	0	0	2,937618	2,4675	18,4536	-0,406	85,422	0	1011,22	6,1	8,2	8	1	1	1	1	1	1	1	1	1	0	1	-5,84919	273,513546	311,471521	0
15.01.2021	06:37:29	0	0	2,485677	2,60025	38,0556	-0,419	85,401	0	1011,14	6,2	8,2	8	1	1	1	1	1	1	1	1	1	0	1	-0,281889	273,42833	316,64355	0
15.01.2021	06:37:30	0	0	4,180456	2,601	14,31	-0,419	85,406	0	1011,36	6,1	8,2	8	1	1	1	1	1	1	1	1	1	0	1	-4,580691	273,530924	312,820674	0
15.01.2021	06:37:31	0	0	2,146721	2,4645	18,8388	-0,414	85,394	0	1011,32	6,1	8,1	8	1	1	1	1	1	1	1	1	1	0	1	-5,990134	273,581701	311,646979	0
15.01.2021	06:37:32	0	0	3,954486	2,33925	15,0264	-0,408	85,418	0	1011,32	6,1	8,2	8	1	1	1	1	1	1	1	1	1	0	1	-9,44327	273,480281	307,723099	0
15.01.2021	06:37:33	0	0	3,276574	2,262	14,2956	-0,415	85,424	0	1011,32	6,1	8,2	8	1	1	1	1	1	1	1	1	1	0	1	-6,624383	273,396652	310,154208	0
15.01.2021	06:37:34	0	0	2,937618	2,289	18,828	-0,417	85,414	0	1011,32	6,1	8,2	8	1	1	1	1	1	1	1	1	1	0	1	-2,60747	273,422567	314,291248	0
15.01.2021	06:37:35	0	0	4,406427	2,28975	19,9224	-0,41	85,424	0	1011,4	6,1	8,1	8	1	1	1	1	1	1	1	1	1	0	1	-3,523608	273,526578	313,857585	0
15.01.2021	06:37:36	0	0	4,632398	2,3865	15,7896	-0,416	85,412	0	1011,22	6,1	8,2	8	1	1	1	1	1	1	1	1	1	0	1	-5,708245	273,392336	311,050345	0
15.01.2021	06:37:37	0	0	4,858368	2,46525	15,7824	-0,41	85,411	0	1011,36	6,1	8,2	8	1	1	1	1	1	1	1	1	1	0	1	-7,188161	273,512098	310,125833	0
15.01.2021	06:37:38	0	0	3,728515	2,42925	15,3972	-0,415	85,416	0	1011,36	6,1	8,2	8	1	1	1	1	1	1	1	1	1	0	1	-8,245243	273,400968	308,553356	0
15.01.2021	06:37:39	0	0	4,180431	2,47125	11,1924	-0,416	85,412	0	1011,36	6,1	8,1	8,1	1	1	1	1	1	1	1	1	1	0	1	-5,778717	273,530924	311,622648	0
15.01.2021	06:37:40	0	0	2,598662	2,69175	11,1996	-0,415	85,403	0	1011,18	6,1	8,2	8	1	1	1	1	1	1	1	1	1	0	1	-6,060606	273,56718	311,509073	0
15.01.2021	06:37:41	0	0	4,745383	2,883	9,7452	-0,419	85,4	0	1011,16	6,1	8,2	8	1	1	1	1	1	1	1	1	1	0	1	-7,610994	273,449959	309,414737	0
15.01.2021	06:37:42	0	0	3,61553	3,05925	7,524	-0,413	85,41	0	1011,42	6,1	8,2	8	1	1	1	1	1	1	1	1	1	0	1	-5,637773	273,454288	311,408032	0
15.01.2021	06:37:43	0	0	3,502545	3,132	14,2776	-0,41	85,414	0	1011,3	6,1	8,2	8	1	1	1	1	1	1	1	1	1	0	1	-10,711769	273,402407	306,093501	0
15.01.2021	06:37:44	0	0	3,16357	3,309	13,2552	-0,415	85,408	0	1011,34	6,1	8,2	8,1	1	1	1	1	1	1	1	1	1	0	1	-4,157858	273,546868	313,317518	0
15.01.2021	06:37:45	0	0	2,485677	3,35025	13,1796	-0,41	85,409	0	1011,2	6,2	8,2	8	1	1	1	1	1	1	1	1	1	0	1	-2,748414	273,461505	314,330861	0
15.01.2021	06:37:46	0	0	4,858368	3,44925	16,4916	-0,411	85,411	0	1011,34	6,1	8,1	8	1	1	1	1	1	1	1	1	1	0	1	-0,775194	273,575891	316,834938	0
15.01.2021	06:37:47	0	0	3,61553	3,489	14,292	-0,416	85,41	0	1011,34	6,1	8,2	8	1	1	1	1	1	1	1	1	1	0	1	-7,117689	273,53672	310,310581	0
15.01.2021	06:37:48	0	0	3,61553	3,45	7,452	-0,417	85,419	0	1011,3	6,1	8,2	8	1	1	1	1	1	1	1	1	1	0	1	-8,174771	273,562825	309,37469	0
15.01.2021	06:37:49	0	0	3,61553	3,3495	1,5516	-0,415	85,402	0	1011,26	6,1	8,1	8	1	1	1	1	1	1	1	1	1	0	1	-5,355884	273,596233	312,348724	0
15.01.2021	06:37:50	0	0	2,824633	3,24975	12,4776	-0,411	85,414	0	1011,34	6,1	8,2	8	1	1	1	1	1	1	1	1	1	0	1	-3,100775	273,490399	314,112533	0
15.01.2021	06:37:51	0	0	3,954486	3,37575	7,5204	-0,41	85,415	0	1011,32	6,1	8,2	8	1	1	1	1	1	1	1	1	1	0	1	-1,198027	273,421126	315,694012	0
15.01.2021	06:37:52	0	0	3,389559	3,3135	9,3708	-0,417	85,418	0	1011,34	6,1	8,2	8	1	1	1	1	1	1	1	1	1	0	1	-4,157858	273,491845	313,062159	0
15.01.2021	06:37:53	0	0	4,180456	3,1605	16,4808	-0,419	85,432	0	1011,34	6,1	8,2	8	1	1	1	1	1	1	1	1	1	0	1	-2,114165	273,539619	315,327561	0
15.01.2021	06:37:54	0	0	4,180456	2,97225	16,11	-0,418	85,414	0	1011,32	6,1	8,2	8	1	1	1	1	1	1	1	1	1	0	1	-5,21494	273,574439	312,388448	0
15.01.2021	06:37:55	0	0	3,163589	2,90775	7,8876	-0,396	85,405	0	1011,24	6,1	8,2	8	1	1	1	1	1	1	1	1	1	0	1	-2,255109	273,490399	314,958199	0
15.01.2021	06:37:56	0	0	4,293442	2,90025	10,8216	-0,413	85,414	0	1011,38	6,1	8,2	8	1	1	1	1	1	1	1	1	1	0	1	-6,765328	273,548318	310,71678	0
15.01.2021	06:37:57	0	0	3,16357	2,71725	17,6976	-0,415	85,414	0	1011,26	6,2	8,2	8,1	1	1	1	1	1	1	1	1	1	0	1	-8,80902	273,39809	307,97624	0
15.01.2021	06:37:58	0	0	3,389559	2,5395	17,7084	-0,415	85,395	0	1011,22	6,1	8,2	8	1	1	1	1	1	1	1	1	1	0	1	-5,84919	273,435537	311,109665	0
15.01.2021	06:37:59	0	0	2,824633	2,49825	9,7452	-0,411	85,431	0	1011,4	6,1	8,2	8	1	1	1	1	1	1	1	1	1	0	1	-3,805497	273,39809	312,979763	0
15.01.2021	06:38:00	0	0	5,084339	2,79375	20,286	-0,411	85,424	0	1011,32	6,1	8,2	8	1	1	1	1	1	1	1	1	1	0	1	-7,610994	273,478836	309,548672	0
15.01.2021	06:38:01	0	0	5,084339	2,79375	20,286	-0,411	85,424	0	1011,32	6,1	8,2	8	1	1	1	1	1	1	1	1	1	0	1	-7,610994	273,478836	309,548672	0
15.01.2021	06:38:02	0	0	4,971324	3,02325	24,3612	-0,417	85,408	0	1011,2	6,1	8,2	8,1	1	1	1	1	1	1	1	1	1	0	1	-4,862579	273,583154	312,78128	0
15.01.2021	06:38:03	0	0	2,824633	3,0825	19,152	-0,416	85,429	0	1011,4	6,1	8,2	8	1	1	1	1	1	1	1	1	1	0	1	-5,919662	273,526578	311,461531	0
15.01.2021	06:38:04	0	0	4,406427	3,13125	12,852	-0,417	85,414	0	1011,12	6,1	8,2	8	1	1	1	1	1	1	1	1	1	0	1	-7,329105	273,568631	310,247315	0
15.01.2021	06:38:05	0	0	4,293442	3,069	10,818	-0,414	85,406	0	1011,22	6,1	8,2	8	1	1	1	1	1	1	1	1	1	0	1	-3,946441	273,403847	312,865499	0
15.01.2021	06:38:06	0	0	2,485677	2,85675	10,8108	-0,414	85,42	0	1011,34	6,1	8,2	8	1	1	1	1	1	1	1	1	1	0	1	-9,020437	273,56718	308,549243	0
15.01.2021	06:38:07	0	0	4,971354	2,67975	24,7176	-0,415	85,406	0	1011,3	6,1	8,2	8	1	1	1	1	1	1	1	1	1	0	1	-4,510218	273,496183	312,729926	0
15.01.2021	06:38:08	0	0	3,050603	2,619	4,1004	-0,411	85,427	0	1011,36	6,1	8,2	8	1	1	1	1	1	1	1	1	1	0	1	-5,426357	273,408165	311,4056	0
15.01.2021	06:38:09	0	0	4,632398	2,4	27,9612	-0,414	85,417	0	1011,18	6,1	8,2	8	1	1	1	1	1	1	1	1	1	0	1	-7,751938	273,548318	309,73017	0
15.01.2021	06:38:10	0	0	2,372692	2,298	32,8896	-0,415	85,421	0	1011,2	6,1	8,2	8	1	1	1	1	1	1	1	1	1	0	1	-8,315715	273,431213	308,623088	0
15.01.2021	06:38:11	0	0	4,519412	2,169	26,8992	-0,416	85,435	0	1011,3	6,1	8,2	8	1	1	1	1	1	1	1	1	1	0	1	-2,677942	273,565728	314,884997	0
15.01.2021	06:38:12	0	0	4,858368	2,10075	26,154	-0,415	85,428	0	1011,28	6,2	8,2	8	1	1	1	1	1	1	1	1	1	0	1	-5,84919	273,478836	311,310476	0
15.01.2021	06:38:13	0	0	3,389539	2,043	17,2368	-0,415	85,423	0	1011,38	6,1	8,2	8,1	1	1	1	1	1	1	1	1	1	0	1	-7,188161	273,408165	309,643796	0
15.01.2021	06:38:14	0	0	3,615508	2,0685	12,1068	-0,413	85,424	0	1011,26	6,1	8,2	8,1	1	1	1	1	1	1	1	1	1	0	1	-2,255109	273,478836	314,904557	0
15.01.2021	06:38:15	0	0	2,824633	2,1525	9,738	-0,413	85,419	0	1011,38	6,1	8,2	8	1	1	1	1	1	1	1	1	1	0	1	-3,030303	273,403847	313,781637	0
15.01.2021	06:38:16	0	0	3,276574	2,15625	19,1304	-0,41	85,421	0	1011,18	6,1	8,2	8	1	1	1	1	1	1	1	1	1	0	1	-1,832276	273,409605	315,006354	0
15.01.2021	06:38:17	0	0	4,745383	2,1645	13,1616	-0,419	85,424	0	1011,36	6,1	8,2	8	1	1	1	1	1	1	1	1	1	0	1	-6,20155	273,500522	311,058727	0
15.01.2021	06:38:18	0	0	2,9376	2,262	10,8324	-0,412	85,414	0	1011,34	6,1	8,2	8,1	1	1	1	1	1	1	1	1	1	0	1	-5,355884	273,580248	312,274482	0
15.01.2021	06:38:19	0	0	4,745383	2,2395	17,2404	-0,415	85,406	0	1011,34	6,1	8,2	8	1	1	1	1	1	1	1	1	1	0	1	-2,677942	273,402407	314,127327	0
15.01.2021	06:38:20	0	0	4,745355	2,22075	25,0344	-0,421	85,423	0	1011,34	6,1	8,2	8,1	1	1	1	1	1	1	1	1	1	0	1	-5,990134	273,491845	311,229882	0
15.01.2021	06:38:21	0	0	3,163589	2,30175	29,1132	-0,414	85,421	0	1011,34	6,1	8,2	8	1	1	1	1	1	1	1	1	1	0	1	-5,073996	273,575891	312,536136	0
15.01.2021	06:38:22	0	0	3,276554	2,295	22,4604	-0,417	85,411	0	1011,2	6,1	8,2	8,1	1	1	1	1	1	1	1	1	1	0	1	-4,651163	273,539619	312,790563	0
15.01.2021	06:38:23	0	0	3,728515	2,27025	16,4916	-0,414	85,417	0	1011,16	6,2	8,2	8	1	1	1	1	1	1	1	1	1	0	1	-5,708245	273,448517	311,310795	0
15.01.2021	06:38:24	0	0	2,824616	2,4675	12,8556	-0,41	85,423	0	1011,14	6,1	8,2	8,1	1	1	1	1	1	1	1	1	1	0	1	-7,258633	273,402407	309,546637	0
15.01.2021	06:38:25	0	0	3,276574	2,89875	7,128	-0,418	85,429	0	1011,26	6,1	8,2	8	1	1	1	1	1	1	1	1	1	0	1	-5,355884	273,46728	311,750178	0
15.01.2021	06:38:26	0	0	3,050603	3,02325	13,9284	-0,414	85,418	0	1011,26	6,1	8,2	8	1	1	1	1	1	1	1	1	1	0	1	-6,060606	273,570083	311,522555	0
15.01.2021	06:38:27	0	0	4,406427	2,9385	26,8776	-0,415	85,412	0	1011,22	6,1	8,2	8	1	1	1	1	1	1	1	1	1	0	1	-8,033827	273,55557	309,48195	0
15.01.2021	06:38:28	0	0	3,954462	2,83575	13,1652	-0,405	85,434	0	1011,38	6,1	8,2	8,1	1	1	1	1	1	1	1	1	1	0	1	-5,637773	273,52513	311,736697	0
15.01.2021	06:38:29	0	0	4,293442	2,72025	19,9188	-0,413	85,422	0	1011,38	6,1	8,2	8	1	1	1	1	1	1	1	1	1	0	1	-5,355884	273,415365	311,509445	0
15.01.2021	06:38:30	0	0	4,180456	2,7465	7,4988	-0,412	85,424	0	1011,44	6,1	8,1	8	1	1	1	1	1	1	1	1	1	0	1	-2,255109	273,425448	314,656968	0
15.01.2021	06:38:31	0	0	2,711647	2,67375	4,4604	-0,417	85,425	0	1011,38	6,1	8,2	8	1	1	1	1	1	1	1	1	1	0	1	-0,070472	273,494737	317,162962	0
15.01.2021	06:38:32	0	0	4,067471	2,77125	1,926	-0,415	85,42	0	1011,3	6,1	8,2	8	1	1	1	1	1	1	1	1	1	0	1	-4,439746	273,415365	312,425583	0
15.01.2021	06:38:33	0	0	3,050603	2,97375	5,22	-0,418	85,413	0	1011,26	6,1	8,2	8	1	1	1	1	1	1	1	1	1	0	1	-7,610994	273,402407	309,194276	0
15.01.2021	06:38:34	0	0	4,180456	3,24525	13,1544	-0,415	85,411	0	1011,28	6,1	8,1	8	1	1	1	1	1	1	1	1	1	0	1	-5,144468	273,541069	312,303986	0
15.01.2021	06:38:35	0	0	4,745383	3,21075	10,4436	-0,412	85,416	0	1011,26	6,1	8,2	8	1	1	1	1	1	1	1	1	1	0	1	-7,399577	273,558472	310,129672	0
15.01.2021	06:38:36	0	0	4,406427	3,144	16,4808	-0,412	85,43	0	1011,34	6,2	8,2	8	1	1	1	1	1	1	1	1	1	0	1	-0,634249	273,406726	316,191035	0
15.01.2021	06:38:37	0	0	3,728515	3,096	7,1352	-0,411	85,425	0	1011,3	6,1	8,2	8	1	1	1	1	1	1	1	1	1	0	1	-3,312192	273,488953	313,894409	0
15.01.2021	06:38:38	0	0	4,63237	3,222	11,7324	-0,416	85,406	0	1011,38	6,1	8,2	8,1	1	1	1	1	1	1	1	1	1	0	1	-9,725159	273,415365	307,140171	0
15.01.2021	06:38:39	0	0	3,954462	3,0465	28,3536	-0,415	85,422	0	1011,36	6,1	8,2	8,1	1	1	1	1	1	1	1	1	1	0	1	-8,315715	273,438421	308,65651	0
15.01.2021	06:38:40	0	0	3,389559	2,79	18,4536	-0,412	85,428	0	1011,3	6,1	8,2	8	1	1	1	1	1	1	1	1	1	0	1	-3,382664	273,514993	313,944764	0
15.01.2021	06:38:41	0	0	5,084339	2,5275	25,038	-0,416	85,433	0	1011,36	6,1	8,2	8	1	1	1	1	1	1	1	1	1	0	1	-7,892882	273,572987	309,703763	0
15.01.2021	06:38:42	0	0	4,406401	2,30025	18,4536	-0,415	85,431	0	1011,28	6,1	8,2	8,1	1	1	1	1	1	1	1	1	1	0	1	-7,963354	273,577343	309,653522	0
15.01.2021	06:38:43	0	0	5,084339	2,21475	16,8336	-0,412	85,424	0	1011,2	6,1	8,2	8	1	1	1	1	1	1	1	1	1	0	1	-6,412967	273,545418	311,055678	0
15.01.2021	06:38:44	0	0	2,937618	2,283	17,7084	-0,416	85,426	0	1011,32	6,1	8,2	8	1	1	1	1	1	1	1	1	1	0	1	-6,272023	273,462949	310,813949	0
15.01.2021	06:38:45	0	0	3,16357	2,32575	11,7144	-0,41	85,425	0	1011,32	6,1	8,2	8,1	1	1	1	1	1	1	1	1	1	0	1	-8,033827	273,574439	309,569562	0
15.01.2021	06:38:46	0	0	4,180431	2,556	9,36	-0,42	85,416	0	1011,28	6,1	8,2	8,1	1	1	1	1	1	1	1	1	1	0	1	-5,708245	273,418245	311,170438	0
15.01.2021	06:38:47	0	0	3,389539	2,73	18,0864	-0,41	85,421	0	1011,32	6,1	8,2	8,1	1	1	1	1	1	1	1	1	1	0	1	-6,976744	273,522233	310,384283	0
15.01.2021	06:38:48	0	0	2,711631	2,577	18,8352	-0,41	85,432	0	1011,3	6,1	8,1	8,1	1	1	1	1	1	1	1	1	1	0	1	-2,889359	273,406726	313,935925	0
15.01.2021	06:38:49	0	0	3,728515	2,57775	13,9248	-0,415	85,414	0	1011,26	6,1	8,2	8	1	1	1	1	1	1	1	1	1	0	1	-2,184637	273,513546	315,136073	0
15.01.2021	06:38:50	0	0	2,824616	2,78325	14,4	-0,417	85,429	0	1011,26	6,1	8,2	8,1	1	1	1	1	1	1	1	1	1	0	1	-3,946441	273,418245	312,932242	0
15.01.2021	06:38:51	0	0	5,197324	2,92425	20,2968	-0,412	85,429	0	1011,34	6,1	8,2	8	1	1	1	1	1	1	1	1	1	0	1	-4,933051	273,454288	312,112754	0
15.01.2021	06:38:52	0	0	2,485677	2,67225	19,9044	-0,419	85,422	0	1011,14	6,1	8,2	8	1	1	1	1	1	1	1	1	1	0	1	-11,346018	273,442747	305,646267	0
15.01.2021	06:38:53	0	0	3,841501	2,541	0	-0,409	85,421	0	1011,44	6,1	8,2	8	1	1	1	1	1	1	1	1	1	0	1	-1,057082	273,405286	315,76153	0
15.01.2021	06:38:54	0	0	4,745383	2,517	18,8316	-0,414	85,434	0	1011,26	6,1	8,2	8	1	1	1	1	1	1	1	1	1	0	1	-10,570825	273,543968	306,891089	0
15.01.2021	06:38:55	0	0	3,050585	2,32875	360	-0,415	85,433	0	1011,28	6,1	8,2	8,1	1	1	1	1	1	1	1	1	1	0	1	-3,875969	273,557021	313,646544	0
15.01.2021	06:38:56	0	0	3,841478	2,3625	355,86	-0,41	85,414	0	1011,24	6,1	8,2	8,1	1	1	1	1	1	1	1	1	1	0	1	-5,496829	273,411045	311,348475	0
15.01.2021	06:38:57	0	0	2,824633	2,46375	358,398	-0,413	85,431	0	1011,22	6,1	8,1	8	1	1	1	1	1	1	1	1	1	0	1	-3,735025	273,475947	313,411237	0
15.01.2021	06:38:58	0	0	4,406401	2,53275	0	-0,416	85,426	0	1011,3	6,1	8,2	8,1	1	1	1	1	1	1	1	1	1	0	1	-0,98661	273,412484	315,865369	0
15.01.2021	06:38:59	0	0	4,632398	2,70075	7,4952	-0,412	85,418	0	1011,22	6,1	8,2	8	1	1	1	1	1	1	1	1	1	0	1	-2,677942	273,393774	314,087314	0
15.01.2021	06:39:00	0	0	2,937618	2,787	22,4676	-0,417	85,414	0	1011,18	6,1	8,2	8	1	1	1	1	1	1	1	1	1	0	1	-4,369274	273,432654	312,576212	0
15.01.2021	06:39:01	0	0	2,937618	2,787	22,4676	-0,417	85,414	0	1011,18	6,1	8,2	8	1	1	1	1	1	1	1	1	1	0	1	-4,369274	273,432654	312,576212	0
15.01.2021	06:39:02	0	0	4,971324	2,50425	12,8412	-0,417	85,406	0	1011,14	6,1	8,2	8,1	1	1	1	1	1	1	1	1	1	0	1	-6,20155	273,484617	310,984932	0
15.01.2021	06:39:03	0	0	3,841478	2,2965	16,11	-0,414	85,422	0	1011,36	6,1	8,2	8,1	1	1	1	1	1	1	1	1	1	0	1	-6,060606	273,581701	311,576507	0
15.01.2021	06:39:04	0	0	2,824616	2,2815	7,506	-0,413	85,411	0	1011,24	6,1	8,2	8,1	1	1	1	1	1	1	1	1	1	0	1	-4,157858	273,575891	313,452275	0
15.01.2021	06:39:05	0	0	4,745355	2,46975	8,6004	-0,414	85,4	0	1011,38	6,1	8,2	8,1	1	1	1	1	1	1	1	1	1	0	1	-6,272023	273,526578	311,109171	0
15.01.2021	06:39:06	0	0	3,389559	2,70375	6,444	-0,416	85,417	0	1011,4	6,1	8,2	8	1	1	1	1	1	1	1	1	1	0	1	-2,114165	273,572987	315,482481	0
15.01.2021	06:39:07	0	0	4,180431	2,6685	4,4676	-0,418	85,421	0	1011,26	6,1	8,2	8,1	1	1	1	1	1	1	1	1	1	0	1	-5,073996	273,561374	312,468728	0
15.01.2021	06:39:08	0	0	3,16357	2,67375	15,0192	-0,418	85,401	0	1011,22	6,1	8,2	8,1	1	1	1	1	1	1	1	1	1	0	1	-5,708245	273,491845	311,511771	0
15.01.2021	06:39:09	0	0	3,276574	2,70675	19,9008	-0,411	85,422	0	1011,46	6,1	8,2	8	1	1	1	1	1	1	1	1	1	0	1	-4,792107	273,426889	312,126651	0
15.01.2021	06:39:10	0	0	4,293442	2,9265	15,0408	-0,411	85,426	0	1011,44	6,1	8,2	8	1	1	1	1	1	1	1	1	1	0	1	-2,60747	273,570083	314,975691	0
15.01.2021	06:39:11	0	0	4,858339	2,97975	2,0016	-0,412	85,42	0	1011,26	6,1	8,1	8,1	1	1	1	1	1	1	1	1	1	0	1	-4,510218	273,549768	312,978622	0
15.01.2021	06:39:12	0	0	3,61553	2,934	0,126	-0,412	85,426	0	1011,3	6,1	8,2	8	1	1	1	1	1	1	1	1	1	0	1	-3,664553	273,421126	313,227486	0
15.01.2021	06:39:13	0	0	3,389559	3,096	12,852	-0,422	85,424	0	1011,3	6,1	8,2	8	1	1	1	1	1	1	1	1	1	0	1	-6,272023	273,602049	311,459601	0
15.01.2021	06:39:14	0	0	4,63237	3,30075	10,0548	-0,413	85,43	0	1011,18	6,1	8,2	8,1	1	1	1	1	1	1	1	1	1	0	1	-2,536998	273,514993	314,79043	0
15.01.2021	06:39:15	0	0	3,61553	3,47475	13,6332	-0,413	85,43	0	1011,36	6,1	8,2	8	1	1	1	1	1	1	1	1	1	0	1	-4,298802	273,522233	313,062225	0
15.01.2021	06:39:16	0	0	4,858339	3,62025	17,7084	-0,414	85,432	0	1011,38	6,1	8,2	8,1	1	1	1	1	1	1	1	1	1	0	1	-3,100775	273,403847	313,711165	0
15.01.2021	06:39:17	0	0	2,485677	3,67725	4,842	-0,419	85,424	0	1011,28	6,1	8,2	8	1	1	1	1	1	1	1	1	1	0	1	-4,298802	273,562825	313,250659	0
15.01.2021	06:39:18	0	0	3,050603	3,5205	18,8316	-0,413	85,427	0	1011,44	6,1	8,2	8	1	1	1	1	1	1	1	1	1	0	1	-2,114165	273,481726	315,058908	0
15.01.2021	06:39:19	0	0	3,276554	3,4215	39,1752	-0,416	85,422	0	1011,22	6,1	8,2	8,1	1	1	1	1	1	1	1	1	1	0	1	-4,369274	273,403847	312,442666	0
15.01.2021	06:39:20	0	0	3,728515	3,23775	13,1724	-0,41	85,43	0	1011,38	6,1	8,2	8	1	1	1	1	1	1	1	1	1	0	1	-3,382664	273,588966	314,288189	0
15.01.2021	06:39:21	0	0	2,9376	3,162	25,0344	-0,414	85,425	0	1011,3	6,1	8,2	8,1	1	1	1	1	1	1	1	1	1	0	1	-4,298802	273,517889	313,042064	0
15.01.2021	06:39:22	0	0	2,824633	3,03825	14,2992	-0,415	85,427	0	1011,32	6,1	8,2	8	1	1	1	1	1	1	1	1	1	0	1	-3,946441	273,412484	312,905538	0
15.01.2021	06:39:23	0	0	4,406427	2,93175	30,6936	-0,411	85,434	0	1011,3	6,1	8,2	8	1	1	1	1	1	1	1	1	1	0	1	-1,057082	273,575891	316,55305	0
15.01.2021	06:39:24	0	0	3,16357	2,67825	26,5248	-0,41	85,42	0	1011,2	6,1	8,2	8,1	1	1	1	1	1	1	1	1	1	0	1	-3,312192	273,513546	314,008519	0
15.01.2021	06:39:25	0	0	4,519385	2,41875	26,1792	-0,412	85,435	0	1011,34	6,1	8,2	8,1	1	1	1	1	1	1	1	1	1	0	1	-1,338971	273,425448	315,573106	0
15.01.2021	06:39:26	0	0	4,406401	2,17275	14,292	-0,416	85,44	0	1011,22	6,2	8,2	8,1	1	1	1	1	1	1	1	1	1	0	1	-7,047216	273,586059	310,610139	0
15.01.2021	06:39:27	0	0	3,050585	2,175	6,822	-0,408	85,444	0	1011,5	6,1	8,2	8,1	1	1	1	1	1	1	1	1	1	0	1	-3,664553	273,507757	313,629293	0
15.01.2021	06:39:28	0	0	3,728515	2,41125	29,1024	-0,421	85,426	0	1011,3	6,1	8,2	8	1	1	1	1	1	1	1	1	1	0	1	-4,933051	273,421126	311,958988	0
15.01.2021	06:39:29	0	0	4,180431	2,5455	14,3028	-0,417	85,424	0	1011,3	6,1	8,2	8,1	1	1	1	1	1	1	1	1	1	0	1	-5,073996	273,591872	312,610357	0
15.01.2021	06:39:30	0	0	3,050603	2,5695	29,5668	-0,412	85,418	0	1011,24	6,1	8,2	8	1	1	1	1	1	1	1	1	1	0	1	-1,832276	273,468724	315,280485	0
15.01.2021	06:39:31	0	0	4,180431	2,51325	33,2568	-0,411	85,441	0	1011,38	6,1	8,1	8,1	1	1	1	1	1	1	1	1	1	0	1	-7,751938	273,55412	309,757104	0
15.01.2021	06:39:32	0	0	3,841501	2,51175	22,4712	-0,408	85,435	0	1011,46	6,1	8,2	8	1	1	1	1	1	1	1	1	1	0	1	-1,973221	273,425448	314,938857	0
15.01.2021	06:39:33	0	0	4,293416	2,5935	41,832	-0,414	85,436	0	1011,26	6,1	8,2	8,1	1	1	1	1	1	1	1	1	1	0	1	-1,973221	273,580248	315,657146	0
15.01.2021	06:39:34	0	0	3,502545	2,64075	24,3648	-0,413	85,432	0	1011,36	6,1	8,2	8	1	1	1	1	1	1	1	1	1	0	1	-3,523608	273,516441	313,810539	0
15.01.2021	06:39:35	0	0	3,16357	2,58375	24,7176	-0,409	85,435	0	1011,38	6,1	8,2	8,1	1	1	1	1	1	1	1	1	1	0	1	-1,268499	273,406726	315,556785	0
15.01.2021	06:39:36	0	0	3,050603	2,59725	29,1096	-0,411	85,429	0	1011,36	6,1	8,2	8	1	1	1	1	1	1	1	1	1	0	1	-0	273,532373	317,40809	0
15.01.2021	06:39:37	0	0	3,728493	2,514	13,9176	-0,414	85,428	0	1011,16	6,1	8,2	8,1	1	1	1	1	1	1	1	1	1	0	1	-0,211416	273,405286	316,607195	0
15.01.2021	06:39:38	0	0	2,824616	2,274	11,736	-0,408	85,42	0	1011,28	6,1	8,2	8,1	1	1	1	1	1	1	1	1	1	0	1	-5,355884	273,584606	312,294723	0
15.01.2021	06:39:39	0	0	4,180431	2,2725	5,2308	-0,411	85,438	0	1011,4	6,1	8,2	8,1	1	1	1	1	1	1	1	1	1	0	1	-0,916138	273,493291	316,310587	0
15.01.2021	06:39:40	0	0	4,858368	2,3715	354,3732	-0,411	85,437	0	1011,38	6,1	8,2	8	1	1	1	1	1	1	1	1	1	0	1	-6,976744	273,583154	310,667116	0
15.01.2021	06:39:41	0	0	4,858339	2,5935	16,4736	-0,416	85,437	0	1011,34	6,1	8,2	8,1	1	1	1	1	1	1	1	1	1	0	1	-0	273,473057	317,132859	0
15.01.2021	06:39:42	0	0	3,841501	2,5635	16,0992	-0,409	85,441	0	1011,36	6,1	8,2	8	1	1	1	1	1	1	1	1	1	0	1	-1,691332	273,580248	315,939035	0
15.01.2021	06:39:43	0	0	4,745383	2,28825	40,5936	-0,415	85,428	0	1011,42	6,1	8,2	8	1	1	1	1	1	1	1	1	1	0	1	-4,298802	273,55412	313,21024	0
15.01.2021	06:39:44	0	0	5,197324	2,1525	15,408	-0,415	85,448	0	1011,22	6,1	8,2	8	1	1	1	1	1	1	1	1	1	0	1	-2,325581	273,481726	314,847491	0
15.01.2021	06:39:45	0	0	2,9376	2,22075	27,3852	-0,409	85,436	0	1011,42	6,1	8,2	8,1	1	1	1	1	1	1	1	1	1	0	1	-2,184637	273,403847	314,627303	0
15.01.2021	06:39:46	0	0	4,293442	2,12925	22,464	-0,416	85,422	0	1011,3	6,1	8,2	8	1	1	1	1	1	1	1	1	1	0	1	-4,862579	273,558472	312,66667	0
15.01.2021	06:39:47	0	0	3,841501	2,01	18,0756	-0,411	85,447	0	1011,38	6,1	8,2	8	1	1	1	1	1	1	1	1	1	0	1	-1,409443	273,558472	316,119806	0
15.01.2021	06:39:48	0	0	3,841501	1,971	22,8348	-0,416	85,429	0	1011,34	6,1	8,2	8	1	1	1	1	1	1	1	1	1	0	1	-4,369274	273,581701	313,267839	0
15.01.2021	06:39:49	0	0	5,084308	1,92075	29,6604	-0,412	85,438	0	1011,4	6,1	8,2	8,1	1	1	1	1	1	1	1	1	1	0	1	-5,496829	273,562825	312,052633	0
15.01.2021	06:39:50	0	0	4,067447	1,92075	22,086	-0,414	85,431	0	1011,16	6,1	8,2	8,1	1	1	1	1	1	1	1	1	1	0	1	-1,832276	273,526578	315,548917	0
15.01.2021	06:39:51	0	0	3,050585	1,95375	31,0104	-0,415	85,437	0	1011,44	6,1	8,2	8,1	1	1	1	1	1	1	1	1	1	0	1	-3,59408	273,413924	313,264574	0
15.01.2021	06:39:52	0	0	3,728493	1,86	30,708	-0,416	85,43	0	1011,38	6,1	8,2	8,1	1	1	1	1	1	1	1	1	1	0	1	-2,184637	273,458618	314,881249	0
15.01.2021	06:39:53	0	0	4,406401	1,87275	28,7136	-0,413	85,426	0	1011,32	6,1	8,2	8,1	1	1	1	1	1	1	1	1	1	0	1	-3,523608	273,575891	314,086524	0
15.01.2021	06:39:54	0	0	3,276554	1,82175	14,2956	-0,413	85,442	0	1011,34	6,2	8,2	8,1	1	1	1	1	1	1	1	1	1	0	1	-1,832276	273,439863	315,146635	0
15.01.2021	06:39:55	0	0	2,485662	1,7175	16,092	-0,413	85,439	0	1011,42	6,1	8,2	8,1	1	1	1	1	1	1	1	1	1	0	1	-5,637773	273,522233	311,723254	0
15.01.2021	06:39:56	0	0	4,745355	1,6185	24,7176	-0,413	85,429	0	1011,48	6,1	8,2	8,1	1	1	1	1	1	1	1	1	1	0	1	-5,84919	273,596233	311,855419	0
15.01.2021	06:39:57	0	0	4,745355	1,66425	5,3028	-0,41	85,434	0	1011,3	6,1	8,2	8,1	1	1	1	1	1	1	1	1	1	0	1	-1,409443	273,532373	315,998647	0
15.01.2021	06:39:58	0	0	4,180431	1,82325	10,8144	-0,412	85,438	0	1011,2	6,1	8,2	8,1	1	1	1	1	1	1	1	1	1	0	1	-2,466526	273,593326	315,224579	0
15.01.2021	06:39:59	0	0	4,745383	1,9545	10,8144	-0,411	85,44	0	1011,16	6,1	8,2	8	1	1	1	1	1	1	1	1	1	0	1	-7,399577	273,557021	310,122935	0
15.01.2021	06:40:00	0	0	4,971324	1,9245	18,0684	-0,414	85,429	0	1011,34	6,1	8,2	8,1	1	1	1	1	1	1	1	1	1	0	1	-6,412967	273,586059	311,244388	0
15.01.2021	06:40:01	0	0	4,971324	1,9245	18,0684	-0,414	85,429	0	1011,34	6,1	8,2	8,1	1	1	1	1	1	1	1	1	1	0	1	-6,412967	273,586059	311,244388	0
15.01.2021	06:40:02	0	0	4,293416	1,85775	12,8376	-0,41	85,433	0	1011,38	6,1	8,2	8,1	1	1	1	1	1	1	1	1	1	0	1	-6,20155	273,419685	310,68381	0
15.01.2021	06:40:03	0	0	3,389539	1,89225	4,914	-0,411	85,429	0	1011,26	6,1	8,2	8,1	1	1	1	1	1	1	1	1	1	0	1	-6,694856	273,491845	310,525161	0
15.01.2021	06:40:04	0	0	4,293416	1,944	11,7108	-0,41	85,435	0	1011,44	6,1	8,2	8,1	1	1	1	1	1	1	1	1	1	0	1	-4,862579	273,588966	312,808274	0
15.01.2021	06:40:05	0	0	3,728493	1,94325	14,6592	-0,417	85,432	0	1011,32	6,1	8,2	8,1	1	1	1	1	1	1	1	1	1	0	1	-7,188161	273,559923	310,347825	0
15.01.2021	06:40:06	0	0	4,406401	1,848	18,0792	-0,409	85,428	0	1011,34	6,1	8,2	8,1	1	1	1	1	1	1	1	1	1	0	1	-6,694856	273,52513	310,679615	0
15.01.2021	06:40:07	0	0	2,824616	1,9545	7,5132	-0,411	85,44	0	1011,28	6,1	8,2	8,1	1	1	1	1	1	1	1	1	1	0	1	-2,255109	273,416805	314,616897	0
15.01.2021	06:40:08	0	0	4,180431	1,98525	12,8592	-0,417	85,434	0	1011,36	6,1	8,2	8,1	1	1	1	1	1	1	1	1	1	0	1	-3,735025	273,516441	313,599122	0
15.01.2021	06:40:09	0	0	3,389539	2,0265	33,2568	-0,41	85,44	0	1011,32	6,1	8,2	8,1	1	1	1	1	1	1	1	1	1	0	1	-1,409443	273,418245	315,46924	0
15.01.2021	06:40:10	0	0	4,519385	1,99725	20,286	-0,415	85,471	0	1011,72	6,1	8,2	8,1	1	1	1	1	1	1	1	1	1	0	1	-6,483439	273,558472	311,04581	0
15.01.2021	06:40:11	0	0	3,615508	2,0625	19,5264	-0,419	85,441	0	1011,3	6,1	8,2	8,1	1	1	1	1	1	1	1	1	1	0	1	-7,751938	273,512098	309,562055	0
15.01.2021	06:40:12	0	0	3,615508	2,09625	21,7764	-0,412	85,449	0	1011,38	6,1	8,2	8,1	1	1	1	1	1	1	1	1	1	0	1	-6,553911	273,593326	311,137193	0
15.01.2021	06:40:13	0	0	3,502545	2,0115	17,2332	-0,417	85,425	0	1011,36	6,1	8,2	8	1	1	1	1	1	1	1	1	1	0	1	-8,315715	273,552669	309,186592	0
15.01.2021	06:40:14	0	0	3,728493	1,995	12,1068	-0,41	85,45	0	1011,38	6,1	8,2	8,1	1	1	1	1	1	1	1	1	1	0	1	-2,60747	273,431213	314,331333	0
15.01.2021	06:40:15	0	0	2,711631	1,89525	19,5264	-0,412	85,451	0	1011,34	6,1	8,2	8,1	1	1	1	1	1	1	1	1	1	0	1	-4,016913	273,408165	312,815044	0
15.01.2021	06:40:16	0	0	4,745383	1,887	358,4592	-0,413	85,459	0	1011,36	6,1	8,2	8	1	1	1	1	1	1	1	1	1	0	1	-2,818887	273,480281	314,347483	0
15.01.2021	06:40:17	0	0	3,841478	1,99575	5,6844	-0,412	85,447	0	1011,2	6,1	8,2	8,1	1	1	1	1	1	1	1	1	1	0	1	-6,553911	273,577343	311,062965	0
15.01.2021	06:40:18	0	0	3,389539	2,226	354,3768	-0,414	85,448	0	1011,26	6,1	8,2	8,1	1	1	1	1	1	1	1	1	1	0	1	-7,681466	273,451402	309,350956	0
15.01.2021	06:40:19	0	0	4,745355	2,41275	7,4988	-0,422	85,42	0	1011,26	6,1	8,2	8,1	1	1	1	1	1	1	1	1	1	0	1	-3,523608	273,516441	313,810539	0
15.01.2021	06:40:20	0	0	3,728493	2,49225	13,1688	-0,41	85,446	0	1011,5	6,1	8,2	8,1	1	1	1	1	1	1	1	1	1	0	1	-4,862579	273,562825	312,686882	0
15.01.2021	06:40:21	0	0	2,9376	2,421	3,3804	-0,413	85,444	0	1011,3	6,1	8,2	8,1	1	1	1	1	1	1	1	1	1	0	1	-8,245243	273,545418	309,223402	0
15.01.2021	06:40:22	0	0	3,841501	2,18775	13,9104	-0,411	85,45	0	1011,22	6,1	8,2	8	1	1	1	1	1	1	1	1	1	0	1	-2,043693	273,581701	315,59342	0
15.01.2021	06:40:23	0	0	3,050585	1,98225	24,7104	-0,412	85,445	0	1011,36	6,1	8,2	8,1	1	1	1	1	1	1	1	1	1	0	1	-1,902748	273,432654	315,042738	0
15.01.2021	06:40:24	0	0	4,519412	1,896	21,006	-0,408	85,44	0	1011,38	6,1	8,2	8	1	1	1	1	1	1	1	1	1	0	1	-5,990134	273,529475	311,404507	0
15.01.2021	06:40:25	0	0	2,9376	1,80825	18,5652	-0,422	85,437	0	1011,34	6,1	8,2	8,1	1	1	1	1	1	1	1	1	1	0	1	-3,312192	273,572987	314,284454	0
15.01.2021	06:40:26	0	0	4,63237	1,9395	22,1076	-0,411	85,436	0	1011,48	6,1	8,2	8,1	1	1	1	1	1	1	1	1	1	0	1	-5,637773	273,564277	311,918427	0
15.01.2021	06:40:27	0	0	3,16357	2,3205	7,1388	-0,418	85,433	0	1011,2	6,1	8,2	8,1	1	1	1	1	1	1	1	1	1	0	1	-3,030303	273,514993	314,297125	0
15.01.2021	06:40:28	0	0	4,63237	2,44275	4,8456	-0,415	85,439	0	1011,36	6,1	8,2	8,1	1	1	1	1	1	1	1	1	1	0	1	-1,479915	273,425448	315,432162	0
15.01.2021	06:40:29	0	0	3,050585	2,541	17,2332	-0,415	85,444	0	1011,22	6,1	8,2	8,1	1	1	1	1	1	1	1	1	1	0	1	-6,765328	273,449959	310,260403	0
15.01.2021	06:40:30	0	0	2,372677	2,7105	5,6988	-0,417	85,441	0	1011,34	6,2	8,2	8,1	1	1	1	1	1	1	1	1	1	0	1	-1,902748	273,512098	315,411245	0
15.01.2021	06:40:31	0	0	4,067447	2,69775	16,4772	-0,414	85,442	0	1011,34	6,1	8,2	8,1	1	1	1	1	1	1	1	1	1	0	1	-4,369274	273,586059	313,288081	0
15.01.2021	06:40:32	0	0	3,615508	2,604	21,7728	-0,413	85,455	0	1011,24	6,1	8,2	8,1	1	1	1	1	1	1	1	1	1	0	1	-4,721635	273,454288	312,324171	0
15.01.2021	06:40:33	0	0	2,598647	2,75925	25,0668	-0,407	85,445	0	1011,3	6,1	8,2	8,1	1	1	1	1	1	1	1	1	1	0	1	-2,466526	273,434096	314,485644	0
15.01.2021	06:40:34	0	0	5,197293	2,697	28,3644	-0,409	85,459	0	1011,36	6,1	8,2	8,1	1	1	1	1	1	1	1	1	1	0	1	-3,875969	273,587513	313,788135	0
15.01.2021	06:40:35	0	0	4,745355	2,337	25,0344	-0,412	85,428	0	1011,34	6,1	8,2	8,1	1	1	1	1	1	1	1	1	1	0	1	-3,453136	273,490399	313,760172	0
15.01.2021	06:40:36	0	0	3,276574	2,20875	22,0752	-0,411	85,433	0	1011,3	6,1	8,2	8	1	1	1	1	1	1	1	1	1	0	1	-4,510218	273,411045	312,335086	0
15.01.2021	06:40:37	0	0	4,519385	2,1465	29,6604	-0,41	85,458	0	1011,38	6,1	8,2	8,1	1	1	1	1	1	1	1	1	1	0	1	-2,677942	273,464392	314,414726	0
15.01.2021	06:40:38	0	0	4,180456	1,96725	22,0788	-0,412	85,447	0	1011,38	6,1	8,2	8	1	1	1	1	1	1	1	1	1	0	1	-7,047216	273,574439	310,556172	0
15.01.2021	06:40:39	0	0	3,728493	1,878	11,7072	-0,415	85,445	0	1011,4	6,1	8,2	8,1	1	1	1	1	1	1	1	1	1	0	1	-9,020437	273,561374	308,522286	0
15.01.2021	06:40:40	0	0	2,146708	1,971	21,4056	-0,412	85,455	0	1011,26	6,1	8,2	8,1	1	1	1	1	1	1	1	1	1	0	1	-2,184637	273,503416	315,089066	0
15.01.2021	06:40:41	0	0	3,389539	2,121	19,5336	-0,407	85,447	0	1011,32	6,1	8,2	8,1	1	1	1	1	1	1	1	1	1	0	1	-6,342495	273,422567	310,556223	0
15.01.2021	06:40:42	0	0	3,16357	2,18625	19,5336	-0,409	85,454	0	1011,3	6,1	8,2	8,1	1	1	1	1	1	1	1	1	1	0	1	-5,990134	273,435537	310,968721	0
15.01.2021	06:40:43	0	0	3,16357	2,19975	23,9724	-0,416	85,449	0	1011,46	6,1	8,2	8,1	1	1	1	1	1	1	1	1	1	0	1	-1,973221	273,475947	315,173041	0
15.01.2021	06:40:44	0	0	3,61553	2,13075	13,6368	-0,407	85,46	0	1011,4	6,2	8,2	8	1	1	1	1	1	1	1	1	1	0	1	-3,805497	273,436979	313,160043	0
15.01.2021	06:40:45	0	0	3,615508	2,0475	7,5168	-0,409	85,459	0	1011,42	6,1	8,2	8,1	1	1	1	1	1	1	1	1	1	0	1	-5,919662	273,586059	311,737693	0
15.01.2021	06:40:46	0	0	3,16357	2,06325	17,6868	-0,413	85,438	0	1011,34	6,1	8,2	8,1	1	1	1	1	1	1	1	1	1	0	1	-9,584214	273,481726	307,588859	0
15.01.2021	06:40:47	0	0	4,745383	2,20725	9,756	-0,411	85,431	0	1011,48	6,1	8,2	8	1	1	1	1	1	1	1	1	1	0	1	-4,580691	273,557021	312,941822	0
15.01.2021	06:40:48	0	0	3,615508	2,57625	22,4676	-0,409	85,453	0	1011,4	6,1	8,2	8,1	1	1	1	1	1	1	1	1	1	0	1	-8,033827	273,597687	309,677535	0
15.01.2021	06:40:49	0	0	2,824616	2,799	24,7248	-0,404	85,448	0	1011,44	6,1	8,2	8,1	1	1	1	1	1	1	1	1	1	0	1	-0,281889	273,517889	317,058977	0
15.01.2021	06:40:50	0	0	4,180431	2,8095	20,2896	-0,407	85,452	0	1011,2	6,1	8,2	8,1	1	1	1	1	1	1	1	1	1	0	1	-3,664553	273,557021	313,85796	0
15.01.2021	06:40:51	0	0	4,180431	2,91975	16,1964	-0,414	85,439	0	1011,34	6,1	8,2	8,1	1	1	1	1	1	1	1	1	1	0	1	-7,892882	273,606412	309,859009	0
15.01.2021	06:40:52	0	0	4,406401	2,856	16,1064	-0,41	85,439	0	1011,62	6,1	8,2	8,1	1	1	1	1	1	1	1	1	1	0	1	-8,527132	273,496183	308,713012	0
15.01.2021	06:40:53	0	0	3,954462	2,7765	9,7488	-0,41	85,458	0	1011,4	6,1	8,2	8,1	1	1	1	1	1	1	1	1	1	0	1	-6,20155	273,426889	310,717208	0
15.01.2021	06:40:54	0	0	3,841478	2,697	16,8588	-0,416	85,45	0	1011,32	6,1	8,2	8,1	1	1	1	1	1	1	1	1	1	0	1	-6,8358	273,432654	310,109687	0
15.01.2021	06:40:55	0	0	4,745383	2,62725	16,4916	-0,409	85,432	0	1011,38	6,1	8,2	8	1	1	1	1	1	1	1	1	1	0	1	-1,761804	273,484617	315,424678	0
15.01.2021	06:40:56	0	0	3,276554	2,601	16,4808	-0,412	85,44	0	1011,26	6,1	8,2	8,1	1	1	1	1	1	1	1	1	1	0	1	-9,795631	273,590419	307,881972	0
15.01.2021	06:40:57	0	0	4,180431	2,49225	22,464	-0,405	85,444	0	1011,44	6,1	8,2	8,1	1	1	1	1	1	1	1	1	1	0	1	-6,8358	273,447074	310,176551	0
15.01.2021	06:40:58	0	0	2,9376	2,42475	22,4496	-0,412	85,441	0	1011,28	6,1	8,2	8,1	1	1	1	1	1	1	1	1	1	0	1	-8,104299	273,571535	309,485604	0
15.01.2021	06:40:59	0	0	3,728493	2,4975	23,2236	-0,405	85,454	0	1011,28	6,2	8,2	8,1	1	1	1	1	1	1	1	1	1	0	1	-2,677942	273,583154	314,965918	0
15.01.2021	06:41:00	0	0	3,841478	2,43975	26,9064	-0,41	85,444	0	1011,42	6,1	8,2	8,1	1	1	1	1	1	1	1	1	1	0	1	-4,087385	273,432654	312,858101	0
15.01.2021	06:41:01	0	0	3,841478	2,43975	26,9064	-0,41	85,444	0	1011,42	6,1	8,2	8,1	1	1	1	1	1	1	1	1	1	0	1	-4,087385	273,432654	312,858101	0
15.01.2021	06:41:02	0	0	3,16357	2,39025	22,0788	-0,412	85,445	0	1011,3	6,1	8,2	8,1	1	1	1	1	1	1	1	1	1	0	1	-2,959831	273,413924	313,898823	0
15.01.2021	06:41:03	0	0	2,9376	2,38575	25,0452	-0,415	85,445	0	1011,46	6,1	8,2	8,1	1	1	1	1	1	1	1	1	1	0	1	-3,030303	273,488953	314,176298	0
15.01.2021	06:41:04	0	0	3,841478	2,412	27,6624	-0,413	85,46	0	1011,34	6,1	8,2	8,1	1	1	1	1	1	1	1	1	1	0	1	-6,976744	273,599141	310,741371	0
15.01.2021	06:41:05	0	0	3,389539	2,3595	17,694	-0,408	85,481	0	1011,54	6,1	8,2	8,1	1	1	1	1	1	1	1	1	1	0	1	-1,691332	273,455731	315,361166	0
15.01.2021	06:41:06	0	0	4,293416	2,30325	14,2992	-0,41	85,421	0	1011,22	6,1	8,2	8,1	1	1	1	1	1	1	1	1	1	0	1	-6,906272	273,584606	310,744335	0
15.01.2021	06:41:07	0	0	3,16357	2,36925	17,6832	-0,404	85,447	0	1011,48	6,1	8,2	8,1	1	1	1	1	1	1	1	1	1	0	1	-4,510218	273,447074	312,502132	0
15.01.2021	06:41:08	0	0	2,824616	2,3805	17,2512	-0,408	85,45	0	1011,34	6,1	8,2	8,1	1	1	1	1	1	1	1	1	1	0	1	-8,45666	273,470169	308,6628	0
15.01.2021	06:41:09	0	0	3,16357	2,24625	12,8628	-0,411	85,458	0	1011,34	6,1	8,2	8,1	1	1	1	1	1	1	1	1	1	0	1	-6,624383	273,568631	310,952037	0
15.01.2021	06:41:10	0	0	3,728493	2,2335	13,932	-0,406	85,458	0	1011,38	6,2	8,2	8,1	1	1	1	1	1	1	1	1	1	0	1	-3,312192	273,545418	314,156453	0
15.01.2021	06:41:11	0	0	3,841501	2,2185	13,932	-0,409	85,459	0	1011,34	6,1	8,2	8	1	1	1	1	1	1	1	1	1	0	1	-4,439746	273,415365	312,425583	0
15.01.2021	06:41:12	0	0	2,711631	2,22	14,3172	-0,414	85,448	0	1011,26	6,1	8,2	8,1	1	1	1	1	1	1	1	1	1	0	1	-5,567301	273,510651	311,739976	0
15.01.2021	06:41:13	0	0	3,61553	2,1195	15,1272	-0,414	85,426	0	1011,3	6,1	8,2	8	1	1	1	1	1	1	1	1	1	0	1	-6,20155	273,588966	311,469303	0
15.01.2021	06:41:14	0	0	4,858339	1,98825	20,2896	-0,41	85,45	0	1011,48	6,2	8,2	8,1	1	1	1	1	1	1	1	1	1	0	1	-3,875969	273,532373	313,532121	0
15.01.2021	06:41:15	0	0	2,259693	1,9395	10,8216	-0,41	85,432	0	1011,42	6,1	8,2	8,1	1	1	1	1	1	1	1	1	1	0	1	-3,030303	273,439863	313,948608	0
15.01.2021	06:41:16	0	0	4,858339	1,91625	20,286	-0,408	85,444	0	1011,2	6,1	8,2	8,1	1	1	1	1	1	1	1	1	1	0	1	-5,21494	273,409605	311,62369	0
15.01.2021	06:41:17	0	0	3,389559	1,93725	16,1028	-0,412	85,434	0	1011,18	6,1	8,2	8	1	1	1	1	1	1	1	1	1	0	1	-3,312192	273,559923	314,223794	0
15.01.2021	06:41:18	0	0	3,389539	1,99275	26,1792	-0,405	85,437	0	1011,32	6,1	8,2	8,1	1	1	1	1	1	1	1	1	1	0	1	-12,684989	273,424007	304,220408	0
15.01.2021	06:41:19	0	0	3,954462	1,89225	21,0312	-0,41	85,457	0	1011,4	6,1	8,2	8,1	1	1	1	1	1	1	1	1	1	0	1	-7,963354	273,597687	309,748007	0
15.01.2021	06:41:20	0	0	4,745355	1,88925	12,4632	-0,41	85,441	0	1011,38	6,1	8,2	8,1	1	1	1	1	1	1	1	1	1	0	1	-3,100775	273,535271	314,320767	0
15.01.2021	06:41:21	0	0	2,824616	1,97325	9,3744	-0,406	85,462	0	1011,26	6,1	8,2	8,1	1	1	1	1	1	1	1	1	1	0	1	-2,466526	273,590419	315,211077	0
15.01.2021	06:41:22	0	0	2,824616	2,0925	5,688	-0,412	85,441	0	1011,34	6,1	8,2	8,1	1	1	1	1	1	1	1	1	1	0	1	-1,268499	273,448517	315,750541	0
15.01.2021	06:41:23	0	0	3,841478	2,1795	13,9176	-0,408	85,455	0	1011,32	6,2	8,2	8,1	1	1	1	1	1	1	1	1	1	0	1	-5,708245	273,434096	311,243925	0
15.01.2021	06:41:24	0	0	2,711631	2,295	10,8216	-0,409	85,462	0	1011,4	6,1	8,2	8,1	1	1	1	1	1	1	1	1	1	0	1	-5,567301	273,408165	311,264656	0
15.01.2021	06:41:25	0	0	3,841478	2,2995	9,3564	-0,409	85,446	0	1011,3	6,1	8,2	8,1	1	1	1	1	1	1	1	1	1	0	1	-4,510218	273,475947	312,636043	0
15.01.2021	06:41:26	0	0	3,502524	2,214	20,3004	-0,408	85,453	0	1011,34	6,1	8,2	8,1	1	1	1	1	1	1	1	1	1	0	1	-6,131078	273,449959	310,894653	0
15.01.2021	06:41:27	0	0	3,16357	2,2875	8,6076	-0,412	85,447	0	1011,4	6,1	8,2	8,1	1	1	1	1	1	1	1	1	1	0	1	-8,033827	273,416805	308,83818	0
15.01.2021	06:41:28	0	0	4,63237	2,32125	30,996	-0,414	85,437	0	1011,28	6,1	8,2	8,1	1	1	1	1	1	1	1	1	1	0	1	-2,396054	273,441305	314,589544	0
15.01.2021	06:41:29	0	0	3,502524	2,169	18,4464	-0,417	85,452	0	1011,26	6,1	8,2	8,1	1	1	1	1	1	1	1	1	1	0	1	-7,610994	273,55412	309,898048	0
15.01.2021	06:41:30	0	0	2,824633	2,1675	32,4972	-0,409	85,447	0	1011,34	6,1	8,2	8	1	1	1	1	1	1	1	1	1	0	1	-9,513742	273,571535	308,076161	0
15.01.2021	06:41:31	0	0	3,502524	2,30775	30,708	-0,408	85,449	0	1011,4	6,1	8,2	8,1	1	1	1	1	1	1	1	1	1	0	1	-4,792107	273,496183	312,448037	0
15.01.2021	06:41:32	0	0	3,502524	2,35425	27,2592	-0,411	85,446	0	1011,3	6,1	8,2	8,1	1	1	1	1	1	1	1	1	1	0	1	-2,748414	273,574439	314,854974	0
15.01.2021	06:41:33	0	0	2,9376	2,22975	19,9152	-0,407	85,45	0	1011,34	6,2	8,2	8,1	1	1	1	1	1	1	1	1	1	0	1	-7,892882	273,597687	309,818479	0
15.01.2021	06:41:34	0	0	3,841478	2,1795	15,7896	-0,41	85,449	0	1011,36	6,1	8,2	8,1	1	1	1	1	1	1	1	1	1	0	1	-6,483439	273,523681	310,884309	0
15.01.2021	06:41:35	0	0	3,954462	2,13825	19,5444	-0,415	85,436	0	1011,3	6,1	8,2	8,1	1	1	1	1	1	1	1	1	1	0	1	-4,510218	273,403847	312,301722	0
15.01.2021	06:41:36	0	0	3,276554	2,21925	24,7068	-0,41	85,422	0	1011,34	6,1	8,2	8,1	1	1	1	1	1	1	1	1	1	0	1	-8,597604	273,583154	309,046256	0
15.01.2021	06:41:37	0	0	4,406401	2,2575	21,384	-0,411	85,443	0	1011,26	6,1	8,2	8,1	1	1	1	1	1	1	1	1	1	0	1	-3,100775	273,462949	313,985196	0
15.01.2021	06:41:38	0	0	3,389559	2,1495	21,3804	-0,404	85,452	0	1011,42	6,1	8,2	8	1	1	1	1	1	1	1	1	1	0	1	-5,778717	273,584606	311,87189	0
15.01.2021	06:41:39	0	0	2,485662	2,0385	13,1652	-0,407	85,429	0	1011,28	6,1	8,2	8,1	1	1	1	1	1	1	1	1	1	0	1	-9,44327	273,454288	307,602536	0
15.01.2021	06:41:40	0	0	4,180431	1,94625	12,4776	-0,411	85,434	0	1011,28	6,1	8,2	8,1	1	1	1	1	1	1	1	1	1	0	1	-5,567301	273,571535	312,022602	0
15.01.2021	06:41:41	0	0	2,824616	1,86375	22,0824	-0,412	85,441	0	1011,4	6,1	8,2	8,1	1	1	1	1	1	1	1	1	1	0	1	-1,761804	273,447074	315,250547	0
15.01.2021	06:41:42	0	0	2,711631	1,8975	15,3648	-0,408	85,451	0	1011,38	6,1	8,2	8,1	1	1	1	1	1	1	1	1	1	0	1	-8,386187	273,558472	309,143061	0
15.01.2021	06:41:43	0	0	3,502524	2,07225	9,3636	-0,411	85,444	0	1011,12	6,1	8,2	8,1	1	1	1	1	1	1	1	1	1	0	1	-8,80902	273,591872	308,875333	0
15.01.2021	06:41:44	0	0	4,293416	2,56875	3,0384	-0,407	85,448	0	1011,4	6,2	8,2	8,1	1	1	1	1	1	1	1	1	1	0	1	-4,016913	273,484617	313,169569	0
15.01.2021	06:41:45	0	0	3,502524	2,80575	7,5168	-0,402	85,457	0	1011,5	6,1	8,2	8,1	1	1	1	1	1	1	1	1	1	0	1	-4,369274	273,445632	312,636387	0
15.01.2021	06:41:46	0	0	2,711631	2,805	6,0696	-0,408	85,444	0	1011,34	6,1	8,2	8,1	1	1	1	1	1	1	1	1	1	0	1	-2,959831	273,405286	313,858781	0
15.01.2021	06:41:47	0	0	4,293416	2,589	14,2992	-0,408	85,455	0	1011,28	6,2	8,2	8,1	1	1	1	1	1	1	1	1	1	0	1	-6,342495	273,487508	310,857399	0
15.01.2021	06:41:48	0	0	4,180431	2,39925	8,2764	-0,41	85,451	0	1011,3	6,1	8,2	8,1	1	1	1	1	1	1	1	1	1	0	1	-5,496829	273,421126	311,39521	0
15.01.2021	06:41:49	0	0	3,502524	2,27775	12,4848	-0,411	85,447	0	1011,4	6,1	8,2	8,1	1	1	1	1	1	1	1	1	1	0	1	-7,681466	273,411045	309,163838	0
15.01.2021	06:41:50	0	0	4,745383	2,30625	3,0312	-0,414	85,455	0	1011,32	6,1	8,2	8	1	1	1	1	1	1	1	1	1	0	1	-8,527132	273,55412	308,98191	0
15.01.2021	06:41:51	0	0	3,16357	2,274	25,0164	-0,409	85,435	0	1011,3	6,1	8,2	8,1	1	1	1	1	1	1	1	1	1	0	1	-9,090909	273,580248	308,539458	0
15.01.2021	06:41:52	0	0	3,16357	2,23875	16,4772	-0,404	85,452	0	1011,4	6,1	8,2	8,1	1	1	1	1	1	1	1	1	1	0	1	-1,832276	273,458618	315,233609	0
15.01.2021	06:41:53	0	0	3,954462	2,11125	24,3396	-0,409	85,464	0	1011,36	6,1	8,2	8,1	1	1	1	1	1	1	1	1	1	0	1	-7,681466	273,528027	309,706451	0
15.01.2021	06:41:54	0	0	4,858339	2,0175	32,8824	-0,407	85,455	0	1011,38	6,1	8,2	8,1	1	1	1	1	1	1	1	1	1	0	1	-8,245243	273,402407	308,560026	0
15.01.2021	06:41:55	0	0	4,63237	1,917	27,2808	-0,408	85,457	0	1011,4	6,1	8,2	8,1	1	1	1	1	1	1	1	1	1	0	1	-5,21494	273,487508	311,984954	0
15.01.2021	06:41:56	0	0	5,423262	1,80375	23,5944	-0,407	85,448	0	1011,28	6,1	8,2	8,1	1	1	1	1	1	1	1	1	1	0	1	-7,681466	273,412484	309,170513	0
15.01.2021	06:41:57	0	0	3,615508	1,83375	26,5104	-0,403	85,455	0	1011,32	6,1	8,2	8,1	1	1	1	1	1	1	1	1	1	0	1	-8,104299	273,578796	309,519323	0
15.01.2021	06:41:58	0	0	3,728493	1,8615	10,818	-0,404	85,458	0	1011,22	6,1	8,2	8,1	1	1	1	1	1	1	1	1	1	0	1	-4,439746	273,580248	313,190621	0
15.01.2021	06:41:59	0	0	2,824616	1,9755	15,786	-0,412	85,439	0	1011,46	6,2	8,2	8,1	1	1	1	1	1	1	1	1	1	0	1	-7,610994	273,421126	309,281045	0
15.01.2021	06:42:00	0	0	3,16357	2,0415	23,5944	-0,407	85,461	0	1011,36	6,1	8,2	8,1	1	1	1	1	1	1	1	1	1	0	1	-7,540521	273,432654	309,404965	0
15.01.2021	06:42:01	0	0	3,16357	2,0415	23,5944	-0,407	85,461	0	1011,36	6,1	8,2	8,1	1	1	1	1	1	1	1	1	1	0	1	-7,540521	273,432654	309,404965	0
15.01.2021	06:42:02	0	0	4,745355	2,124	19,5192	-0,41	85,447	0	1011,26	6,2	8,2	8,1	1	1	1	1	1	1	1	1	1	0	1	-9,090909	273,571535	308,498994	0
15.01.2021	06:42:03	0	0	3,954462	2,11875	13,1652	-0,41	85,457	0	1011,44	6,1	8,2	8,1	1	1	1	1	1	1	1	1	1	0	1	-8,597604	273,483172	308,582173	0
15.01.2021	06:42:04	0	0	2,598647	2,172	9,378	-0,407	85,459	0	1011,36	6,1	8,2	8,1	1	1	1	1	1	1	1	1	1	0	1	-6,624383	273,416805	310,247623	0
15.01.2021	06:42:05	0	0	3,276554	2,31825	10,4616	-0,41	85,454	0	1011,34	6,1	8,2	8,1	1	1	1	1	1	1	1	1	1	0	1	-7,470049	273,468724	309,642712	0
15.01.2021	06:42:06	0	0	2,9376	2,33625	0,486	-0,41	85,433	0	1011,28	6,2	8,2	8,1	1	1	1	1	1	1	1	1	1	0	1	-4,298802	273,442747	312,693483	0
15.01.2021	06:42:07	0	0	3,502524	2,18625	13,1616	-0,408	85,463	0	1011,32	6,1	8,2	8,1	1	1	1	1	1	1	1	1	1	0	1	-1,62086	273,591872	316,063493	0
15.01.2021	06:42:08	0	0	4,63237	2,00775	24,4728	-0,407	85,462	0	1011,38	6,2	8,2	8,1	1	1	1	1	1	1	1	1	1	0	1	-5,285412	273,500522	311,974865	0
15.01.2021	06:42:09	0	0	3,841478	1,91775	16,1064	-0,409	85,465	0	1011,42	6,1	8,2	8,1	1	1	1	1	1	1	1	1	1	0	1	-4,580691	273,590419	313,096912	0
15.01.2021	06:42:10	0	0	3,615508	1,956	10,4544	-0,404	85,459	0	1011,34	6,1	8,2	8,1	1	1	1	1	1	1	1	1	1	0	1	-2,536998	273,551219	314,958576	0
15.01.2021	06:42:11	0	0	3,615508	1,953	20,2824	-0,409	85,443	0	1011,34	6,1	8,2	8,1	1	1	1	1	1	1	1	1	1	0	1	-6,906272	273,464392	310,186396	0
15.01.2021	06:42:12	0	0	4,519385	1,93725	23,5872	-0,405	85,465	0	1011,44	6,1	8,2	8,1	1	1	1	1	1	1	1	1	1	0	1	-6,976744	273,409605	309,861886	0
15.01.2021	06:42:13	0	0	3,954462	1,87275	19,9008	-0,405	85,447	0	1011,38	6,1	8,2	8,1	1	1	1	1	1	1	1	1	1	0	1	-6,624383	273,53672	310,803886	0
15.01.2021	06:42:14	0	0	3,050585	1,87425	23,2092	-0,403	85,469	0	1011,36	6,2	8,2	8,1	1	1	1	1	1	1	1	1	1	0	1	-7,258633	273,413924	309,600021	0
15.01.2021	06:42:15	0	0	3,954462	1,92075	18,4572	-0,402	85,464	0	1011,34	6,1	8,2	8,1	1	1	1	1	1	1	1	1	1	0	1	-6,976744	273,549768	310,512096	0
15.01.2021	06:42:16	0	0	3,16357	1,99725	16,8552	-0,409	85,446	0	1011,38	6,2	8,2	8,1	1	1	1	1	1	1	1	1	1	0	1	-1,973221	273,510651	315,334056	0
15.01.2021	06:42:17	0	0	2,598647	2,1735	10,062	-0,402	85,466	0	1011,28	6,1	8,2	8,1	1	1	1	1	1	1	1	1	1	0	1	-4,016913	273,419685	312,868447	0
15.01.2021	06:42:18	0	0	4,406401	2,20125	23,2164	-0,404	85,471	0	1011,46	6,1	8,2	8,1	1	1	1	1	1	1	1	1	1	0	1	-3,24172	273,578796	314,381902	0
15.01.2021	06:42:19	0	0	3,389539	2,11275	18,5292	-0,405	85,455	0	1011,34	6,1	8,2	8,1	1	1	1	1	1	1	1	1	1	0	1	-7,470049	273,447074	309,542301	0
15.01.2021	06:42:20	0	0	2,9376	2,208	22,086	-0,409	85,462	0	1011,28	6,1	8,2	8,1	1	1	1	1	1	1	1	1	1	0	1	-6,624383	273,454288	310,421422	0
15.01.2021	06:42:21	0	0	2,9376	2,32875	25,4196	-0,408	85,47	0	1011,42	6,1	8,2	8,1	1	1	1	1	1	1	1	1	1	0	1	-3,100775	273,452845	313,938338	0
15.01.2021	06:42:22	0	0	4,293416	2,38275	18,8316	-0,405	85,469	0	1011,34	6,1	8,2	8,1	1	1	1	1	1	1	1	1	1	0	1	-0,493305	273,519337	316,85428	0
15.01.2021	06:42:23	0	0	3,728493	2,38875	25,0308	-0,404	85,465	0	1011,3	6,1	8,2	8,1	1	1	1	1	1	1	1	1	1	0	1	-2,959831	273,55412	314,549211	0
15.01.2021	06:42:24	0	0	2,9376	2,34975	18,4392	-0,41	85,492	0	1011,64	6,2	8,2	8,1	1	1	1	1	1	1	1	1	1	0	1	-6,553911	273,606412	311,197981	0
15.01.2021	06:42:25	0	0	3,954462	2,36175	13,1688	-0,411	85,467	0	1011,34	6,2	8,2	8,1	1	1	1	1	1	1	1	1	1	0	1	-3,312192	273,55412	314,19685	0
15.01.2021	06:42:26	0	0	4,406401	2,35125	10,5264	-0,406	85,468	0	1011,4	6,2	8,2	8,1	1	1	1	1	1	1	1	1	1	0	1	-3,453136	273,470169	313,666324	0
15.01.2021	06:42:27	0	0	4,067447	2,34975	11,1888	-0,407	85,457	0	1011,28	6,1	8,2	8,1	1	1	1	1	1	1	1	1	1	0	1	-2,114165	273,587513	315,549939	0
15.01.2021	06:42:28	0	0	2,824616	2,36625	21,384	-0,411	85,474	0	1011,34	6,1	8,2	8,1	1	1	1	1	1	1	1	1	1	0	1	-2,325581	273,477391	314,827382	0
15.01.2021	06:42:29	0	0	5,197293	2,397	10,4436	-0,412	85,473	0	1011,3	6,2	8,2	8,1	1	1	1	1	1	1	1	1	1	0	1	-7,751938	273,484617	309,434544	0
15.01.2021	06:42:30	0	0	3,615508	2,3385	11,7252	-0,406	85,461	0	1011,32	6,1	8,2	8,1	1	1	1	1	1	1	1	1	1	0	1	-6,342495	273,591872	311,341859	0
15.01.2021	06:42:31	0	0	3,050585	2,36775	9	-0,404	85,477	0	1011,38	6,1	8,2	8,1	1	1	1	1	1	1	1	1	1	0	1	-8,949965	273,516441	308,384182	0
15.01.2021	06:42:32	0	0	4,745355	2,35575	18,8244	-0,4	85,467	0	1011,3	6,2	8,2	8,1	1	1	1	1	1	1	1	1	1	0	1	-6,976744	273,416805	309,895262	0
15.01.2021	06:42:33	0	0	4,293416	2,25675	20,6316	-0,412	85,472	0	1011,38	6,2	8,2	8,1	1	1	1	1	1	1	1	1	1	0	1	-13,883016	273,56718	303,686663	0
15.01.2021	06:42:34	0	0	4,745355	2,2005	18,4572	-0,404	85,456	0	1011,3	6,2	8,2	8,1	1	1	1	1	1	1	1	1	1	0	1	-9,795631	273,470169	307,323829	0
15.01.2021	06:42:35	0	0	4,745355	2,24475	15,7896	-0,408	85,458	0	1011,24	6,2	8,2	8,1	1	1	1	1	1	1	1	1	1	0	1	-3,735025	273,473057	313,397835	0
15.01.2021	06:42:36	0	0	3,615508	2,20275	17,2332	-0,4	85,465	0	1011,42	6,2	8,2	8,1	1	1	1	1	1	1	1	1	1	0	1	-3,312192	273,583154	314,331668	0
15.01.2021	06:42:37	0	0	4,745355	2,2125	16,0956	-0,409	85,451	0	1011,4	6,1	8,2	8,1	1	1	1	1	1	1	1	1	1	0	1	-5,285412	273,483172	311,894365	0
15.01.2021	06:42:38	0	0	3,050585	2,172	22,4784	-0,403	85,473	0	1011,32	6,1	8,2	8,1	1	1	1	1	1	1	1	1	1	0	1	-3,59408	273,594779	314,103776	0
15.01.2021	06:42:39	0	0	5,084308	2,127	17,2368	-0,406	85,475	0	1011,44	6,1	8,2	8,1	1	1	1	1	1	1	1	1	1	0	1	-10,993658	273,543968	306,468256	0
15.01.2021	06:42:40	0	0	3,16357	2,1405	24,336	-0,403	85,468	0	1011,46	6,1	8,2	8,1	1	1	1	1	1	1	1	1	1	0	1	-6,483439	273,418245	310,395244	0
15.01.2021	06:42:41	0	0	4,067447	2,21325	34,326	-0,407	85,456	0	1011,28	6,1	8,2	8,1	1	1	1	1	1	1	1	1	1	0	1	-5,567301	273,575891	312,042831	0
15.01.2021	06:42:42	0	0	2,485662	2,35425	24,3576	-0,406	85,474	0	1011,48	6,1	8,2	8,1	1	1	1	1	1	1	1	1	1	0	1	-10,218464	273,49763	307,028391	0
15.01.2021	06:42:43	0	0	2,9376	2,57625	8,2728	-0,405	85,456	0	1011,32	6,2	8,2	8,1	1	1	1	1	1	1	1	1	1	0	1	-7,681466	273,577343	309,935411	0
15.01.2021	06:42:44	0	0	3,389539	2,67375	19,1448	-0,4	85,46	0	1011,34	6,1	8,2	8,1	1	1	1	1	1	1	1	1	1	0	1	-5,003524	273,559923	312,532462	0
15.01.2021	06:42:45	0	0	4,63237	2,574	20,2896	-0,4	85,468	0	1011,36	6,1	8,2	8,1	1	1	1	1	1	1	1	1	1	0	1	-6,412967	273,541069	311,035487	0
15.01.2021	06:42:46	0	0	4,519385	2,619	4,0968	-0,401	85,462	0	1011,42	6,2	8,3	8,1	1	1	1	1	1	1	1	1	1	0	1	-7,188161	273,593326	310,502944	0
15.01.2021	06:42:47	0	0	4,63237	2,9055	11,7288	-0,396	85,474	0	1011,38	6,1	8,2	8,1	1	1	1	1	1	1	1	1	1	0	1	-2,677942	273,496183	314,562202	0
15.01.2021	06:42:48	0	0	4,63237	3,01125	20,6316	-0,407	85,464	0	1011,42	6,2	8,2	8,1	1	1	1	1	1	1	1	1	1	0	1	-5,355884	273,425448	311,556193	0
15.01.2021	06:42:49	0	0	3,16357	3,0825	29,9556	-0,405	85,469	0	1011,28	6,1	8,2	8,1	1	1	1	1	1	1	1	1	1	0	1	-8,597604	273,520785	308,756702	0
15.01.2021	06:42:50	0	0	2,485662	2,982	19,152	-0,407	85,457	0	1011,28	6,1	8,2	8,1	1	1	1	1	1	1	1	1	1	0	1	-3,453136	273,415365	313,412194	0
15.01.2021	06:42:51	0	0	3,841478	2,77875	25,7868	-0,406	85,472	0	1011,52	6,2	8,2	8,1	1	1	1	1	1	1	1	1	1	0	1	-2,677942	273,425448	314,234135	0
15.01.2021	06:42:52	0	0	5,084308	2,4405	12,8628	-0,407	85,47	0	1011,38	6,1	8,2	8,1	1	1	1	1	1	1	1	1	1	0	1	-4,580691	273,520785	312,773615	0
15.01.2021	06:42:53	0	0	4,293416	2,391	7,488	-0,397	85,47	0	1011,36	6,1	8,2	8,1	1	1	1	1	1	1	1	1	1	0	1	-4,651163	273,587513	313,012941	0
15.01.2021	06:42:54	0	0	3,16357	2,56425	19,1412	-0,405	85,481	0	1011,52	6,2	8,2	8,1	1	1	1	1	1	1	1	1	1	0	1	-8,45666	273,483172	308,723118	0
15.01.2021	06:42:55	0	0	3,502524	2,6415	26,9028	-0,407	85,462	0	1011,36	6,2	8,2	8,1	1	1	1	1	1	1	1	1	1	0	1	-7,751938	273,542518	309,703246	0
15.01.2021	06:42:56	0	0	4,63237	2,57025	360	-0,409	85,459	0	1011,34	6,1	8,2	8,1	1	1	1	1	1	1	1	1	1	0	1	-6,20155	273,411045	310,643754	0
15.01.2021	06:42:57	0	0	4,63237	2,4465	25,038	-0,402	85,471	0	1011,4	6,2	8,2	8,1	1	1	1	1	1	1	1	1	1	0	1	-8,033827	273,418245	308,844857	0
15.01.2021	06:42:58	0	0	3,841478	2,46075	29,5524	-0,408	85,466	0	1011,34	6,1	8,2	8,1	1	1	1	1	1	1	1	1	1	0	1	-6,342495	273,532373	311,065595	0
15.01.2021	06:42:59	0	0	4,858339	2,53575	22,8096	-0,406	85,449	0	1011,34	6,1	8,2	8,1	1	1	1	1	1	1	1	1	1	0	1	-3,875969	273,458618	313,189917	0
15.01.2021	06:43:00	0	0	3,276554	3,0075	16,4772	-0,407	85,456	0	1011,44	6,2	8,2	8,1	1	1	1	1	1	1	1	1	1	0	1	-6,976744	273,504863	310,303672	0
15.01.2021	06:43:01	0	0	3,276554	3,0075	16,4772	-0,407	85,456	0	1011,44	6,2	8,2	8,1	1	1	1	1	1	1	1	1	1	0	1	-6,976744	273,504863	310,303672	0
15.01.2021	06:43:02	0	0	4,067447	3,10275	7,8948	-0,406	85,461	0	1011,4	6,2	8,2	8,1	1	1	1	1	1	1	1	1	1	0	1	-6,342495	273,419685	310,542866	0
15.01.2021	06:43:03	0	0	2,372677	2,9595	16,8732	-0,403	85,475	0	1011,36	6,1	8,2	8,1	1	1	1	1	1	1	1	1	1	0	1	-0	273,447074	317,012351	0
15.01.2021	06:43:04	0	0	4,745355	2,871	359,0244	-0,411	85,456	0	1011,28	6,2	8,2	8,1	1	1	1	1	1	1	1	1	1	0	1	-2,114165	273,526578	315,267028	0
15.01.2021	06:43:05	0	0	4,067447	2,865	359,4672	-0,417	85,451	0	1011,24	6,1	8,2	8,1	1	1	1	1	1	1	1	1	1	0	1	-4,721635	273,704115	313,484367	0
15.01.2021	06:43:06	0	0	4,745355	2,70975	4,8492	-0,41	85,453	0	1011,36	6,1	8,2	8,1	1	1	1	1	1	1	1	1	1	0	1	-0,704722	273,56718	316,864958	0
15.01.2021	06:43:07	0	0	4,745355	2,69175	12,4632	-0,407	85,477	0	1011,44	6,1	8,2	8,1	1	1	1	1	1	1	1	1	1	0	1	-1,550388	273,441305	315,43521	0
15.01.2021	06:43:08	0	0	5,084308	2,56725	23,2056	-0,41	85,445	0	1011,36	6,1	8,2	8,1	1	1	1	1	1	1	1	1	1	0	1	-5,778717	273,419685	311,106643	0
15.01.2021	06:43:09	0	0	2,598647	2,538	16,83	-0,403	85,469	0	1011,32	6,1	8,2	8,1	1	1	1	1	1	1	1	1	1	0	1	-3,523608	273,484617	313,662874	0
15.01.2021	06:43:10	0	0	2,711631	2,45925	13,158	-0,407	85,459	0	1011,42	6,1	8,2	8,1	1	1	1	1	1	1	1	1	1	0	1	-2,677942	273,413924	314,180712	0
15.01.2021	06:43:11	0	0	2,598647	2,4	12,0996	-0,402	85,46	0	1011,46	6,2	8,2	8,1	1	1	1	1	1	1	1	1	1	0	1	-9,795631	273,444189	307,203342	0
15.01.2021	06:43:12	0	0	4,406401	2,442	25,8012	-0,411	85,456	0	1011,44	6,2	8,2	8,1	1	1	1	1	1	1	1	1	1	0	1	-3,171247	273,522233	314,189779	0
15.01.2021	06:43:13	0	0	4,63237	2,60025	27,954	-0,409	85,452	0	1011,26	6,2	8,2	8,1	1	1	1	1	1	1	1	1	1	0	1	-6,976744	273,412484	309,875235	0
15.01.2021	06:43:14	0	0	2,485662	2,7525	16,8444	-0,405	85,443	0	1011,36	6,2	8,2	8,1	1	1	1	1	1	1	1	1	1	0	1	-1,902748	273,596233	315,80186	0
15.01.2021	06:43:15	0	0	4,971324	2,8155	25,4088	-0,408	85,458	0	1011,52	6,2	8,2	8,1	1	1	1	1	1	1	1	1	1	0	1	-2,748414	273,541069	314,70004	0
15.01.2021	06:43:16	0	0	3,502524	2,874	21,7656	-0,412	85,453	0	1011,32	6,2	8,2	8,1	1	1	1	1	1	1	1	1	1	0	1	-3,030303	273,562825	314,519158	0
15.01.2021	06:43:17	0	0	2,485662	2,958	9,3708	-0,406	85,461	0	1011,38	6,2	8,2	8,1	1	1	1	1	1	1	1	1	1	0	1	-2,60747	273,452845	314,431643	0
15.01.2021	06:43:18	0	0	2,146708	3,06075	5,3064	-0,406	85,437	0	1011,26	6,1	8,2	8,1	1	1	1	1	1	1	1	1	1	0	1	-0	273,523681	317,367748	0
15.01.2021	06:43:19	0	0	4,406401	3,057	1,1844	-0,408	85,446	0	1011,24	6,1	8,2	8,1	1	1	1	1	1	1	1	1	1	0	1	-2,043693	273,424007	314,861704	0
15.01.2021	06:43:20	0	0	3,16357	3,00525	20,6244	-0,406	85,457	0	1011,5	6,1	8,2	8,1	1	1	1	1	1	1	1	1	1	0	1	-7,117689	273,548318	310,364419	0
15.01.2021	06:43:21	0	0	4,519385	2,841	0,2268	-0,411	85,469	0	1011,38	6,1	8,2	8,1	1	1	1	1	1	1	1	1	1	0	1	-0,211416	273,562825	317,338045	0
15.01.2021	06:43:22	0	0	3,502524	2,68725	9,7668	-0,407	85,464	0	1011,42	6,1	8,2	8,1	1	1	1	1	1	1	1	1	1	0	1	-5,426357	273,392336	311,332233	0
15.01.2021	06:43:23	0	0	3,728493	2,6235	0,8712	-0,402	85,474	0	1011,42	6,1	8,2	8,1	1	1	1	1	1	1	1	1	1	0	1	-1,832276	273,509204	315,468284	0
15.01.2021	06:43:24	0	0	2,824616	2,47725	13,176	-0,401	85,465	0	1011,46	6,1	8,2	8,1	1	1	1	1	1	1	1	1	1	0	1	-0,98661	273,432654	315,958876	0
15.01.2021	06:43:25	0	0	3,16357	2,244	11,7144	-0,402	85,468	0	1011,42	6,2	8,2	8,1	1	1	1	1	1	1	1	1	1	0	1	-5,708245	273,591872	311,976108	0
15.01.2021	06:43:26	0	0	3,16357	2,169	7,1352	-0,408	85,451	0	1011,42	6,1	8,2	8,1	1	1	1	1	1	1	1	1	1	0	1	-0	273,516441	317,334147	0
15.01.2021	06:43:27	0	0	3,615508	2,10075	23,9688	-0,409	85,465	0	1011,3	6,1	8,2	8,1	1	1	1	1	1	1	1	1	1	0	1	-5,426357	273,438421	311,545868	0
15.01.2021	06:43:28	0	0	3,502524	2,06475	33,2604	-0,411	85,466	0	1011,36	6,2	8,2	8,1	1	1	1	1	1	1	1	1	1	0	1	-1,62086	273,570083	315,962301	0
15.01.2021	06:43:29	0	0	3,841478	2,03025	18,1836	-0,412	85,458	0	1011,36	6,2	8,2	8,1	1	1	1	1	1	1	1	1	1	0	1	-4,087385	273,564277	313,468815	0
15.01.2021	06:43:30	0	0	4,63237	1,94925	17,6832	-0,408	85,473	0	1011,34	6,2	8,2	8,1	1	1	1	1	1	1	1	1	1	0	1	-5,355884	273,406726	311,4694	0
15.01.2021	06:43:31	0	0	3,276554	1,73775	12,8412	-0,402	85,463	0	1011,44	6,2	8,2	8,1	1	1	1	1	1	1	1	1	1	0	1	-0	273,513546	317,32071	0
15.01.2021	06:43:32	0	0	4,180431	1,59225	20,2752	-0,401	85,46	0	1011,42	6,2	8,2	8,1	1	1	1	1	1	1	1	1	1	0	1	-3,100775	273,581701	314,536338	0
15.01.2021	06:43:33	0	0	3,841478	1,7595	26,9028	-0,404	85,454	0	1011,38	6,2	8,2	8,1	1	1	1	1	1	1	1	1	1	0	1	-6,8358	273,574439	310,767589	0
15.01.2021	06:43:34	0	0	3,502524	1,965	13,9212	-0,404	85,447	0	1011,5	6,2	8,2	8,1	1	1	1	1	1	1	1	1	1	0	1	-3,030303	273,480281	314,136066	0
15.01.2021	06:43:35	0	0	3,389539	2,001	14,2956	-0,405	85,457	0	1011,4	6,2	8,2	8,1	1	1	1	1	1	1	1	1	1	0	1	-2,043693	273,590419	315,63391	0
15.01.2021	06:43:36	0	0	4,180431	2,17875	15,4836	-0,409	85,453	0	1011,32	6,1	8,2	8,1	1	1	1	1	1	1	1	1	1	0	1	-4,298802	273,435537	312,660053	0
15.01.2021	06:43:37	0	0	2,824616	2,3685	19,1376	-0,409	85,457	0	1011,24	6,2	8,2	8,1	1	1	1	1	1	1	1	1	1	0	1	-6,694856	273,519337	310,65273	0
15.01.2021	06:43:38	0	0	4,406401	2,68425	3,0204	-0,412	85,458	0	1011,2	6,1	8,2	8,1	1	1	1	1	1	1	1	1	1	0	1	-3,24172	273,565728	314,32122	0
15.01.2021	06:43:39	0	0	3,050585	2,91	16,0884	-0,407	85,45	0	1011,34	6,2	8,2	8,1	1	1	1	1	1	1	1	1	1	0	1	-7,329105	273,578796	310,294516	0
15.01.2021	06:43:40	0	0	4,63237	2,9385	16,1064	-0,406	85,449	0	1011,44	6,1	8,2	8,1	1	1	1	1	1	1	1	1	1	0	1	-1,409443	273,519337	315,938142	0
15.01.2021	06:43:41	0	0	3,502524	2,811	19,908	-0,406	85,448	0	1011,4	6,2	8,2	8,1	1	1	1	1	1	1	1	1	1	0	1	-3,664553	273,411045	313,180752	0
15.01.2021	06:43:42	0	0	4,180431	2,66775	32,1408	-0,403	85,436	0	1011,38	6,1	8,2	8,1	1	1	1	1	1	1	1	1	1	0	1	-5,073996	273,535271	312,347547	0
15.01.2021	06:43:43	0	0	4,745383	2,49075	26,514	-0,409	85,452	0	1011,48	6,2	8,2	8	1	1	1	1	1	1	1	1	1	0	1	-5,919662	273,578796	311,70396	0
15.01.2021	06:43:44	0	0	2,824616	2,38725	27,27	-0,407	85,448	0	1011,36	6,2	8,2	8,1	1	1	1	1	1	1	1	1	1	0	1	-4,651163	273,403847	312,160778	0
15.01.2021	06:43:45	0	0	3,502524	2,412	15,804	-0,399	85,462	0	1011,4	6,2	8,2	8,1	1	1	1	1	1	1	1	1	1	0	1	-5,496829	273,470169	311,622631	0
15.01.2021	06:43:46	0	0	3,615508	2,5215	16,4988	-0,405	85,443	0	1011,3	6,1	8,2	8,1	1	1	1	1	1	1	1	1	1	0	1	-2,536998	273,418245	314,341685	0
15.01.2021	06:43:47	0	0	3,276554	2,68275	21,3876	-0,405	85,45	0	1011,32	6,2	8,2	8,1	1	1	1	1	1	1	1	1	1	0	1	-7,82241	273,55412	309,686632	0
15.01.2021	06:43:48	0	0	2,598647	2,6385	23,58	-0,407	85,431	0	1011,54	6,2	8,2	8,1	1	1	1	1	1	1	1	1	1	0	1	-4,580691	273,542518	312,874493	0
15.01.2021	06:43:49	0	0	2,598647	2,523	24,3468	-0,401	85,45	0	1011,38	6,1	8,2	8,1	1	1	1	1	1	1	1	1	1	0	1	-5,073996	273,586059	312,583359	0
15.01.2021	06:43:50	0	0	4,63237	2,46825	18,8388	-0,406	85,437	0	1011,34	6,2	8,2	8,1	1	1	1	1	1	1	1	1	1	0	1	-5,567301	273,552669	311,935007	0
15.01.2021	06:43:51	0	0	2,598647	2,38575	24,3504	-0,406	85,455	0	1011,52	6,2	8,2	8,1	1	1	1	1	1	1	1	1	1	0	1	-5,496829	273,578796	312,126793	0
15.01.2021	06:43:52	0	0	4,858339	2,4945	29,9448	-0,408	85,445	0	1011,32	6,2	8,2	8,1	1	1	1	1	1	1	1	1	1	0	1	-5,919662	273,542518	311,535522	0
15.01.2021	06:43:53	0	0	2,598647	2,51775	35,874	-0,414	85,433	0	1011,3	6,1	8,2	8,1	1	1	1	1	1	1	1	1	1	0	1	-2,255109	273,581701	315,382004	0
15.01.2021	06:43:54	0	0	4,632398	2,44725	18,5436	-0,405	85,432	0	1011,26	6,2	8,2	8	1	1	1	1	1	1	1	1	1	0	1	-1,62086	273,418245	315,257823	0
15.01.2021	06:43:55	0	0	4,067447	2,3955	38,052	-0,405	85,445	0	1011,3	6,2	8,2	8,1	1	1	1	1	1	1	1	1	1	0	1	-3,59408	273,593326	314,097024	0
15.01.2021	06:43:56	0	0	3,502524	2,42925	24,336	-0,401	85,455	0	1011,44	6,1	8,2	8,1	1	1	1	1	1	1	1	1	1	0	1	-4,016913	273,504863	313,263503	0
15.01.2021	06:43:57	0	0	3,954462	2,45625	29,0988	-0,404	85,434	0	1011,42	6,1	8,2	8,1	1	1	1	1	1	1	1	1	1	0	1	-1,832276	273,412484	315,019703	0
15.01.2021	06:43:58	0	0	2,824616	2,4855	33,9624	-0,403	85,449	0	1011,26	6,2	8,2	8,1	1	1	1	1	1	1	1	1	1	0	1	-4,087385	273,436979	312,878154	0
15.01.2021	06:43:59	0	0	5,084308	2,478	22,8348	-0,403	85,448	0	1011,12	6,2	8,2	8,1	1	1	1	1	1	1	1	1	1	0	1	-11,06413	273,570083	306,519032	0
15.01.2021	06:44:00	0	0	3,16357	2,5035	18,0648	-0,404	85,452	0	1011,46	6,2	8,2	8,1	1	1	1	1	1	1	1	1	1	0	1	-3,171247	273,504863	314,109169	0
15.01.2021	06:44:01	0	0	2,9376	2,44425	16,0992	-0,405	85,456	0	1011,32	6,1	8,2	8,1	1	1	1	1	1	1	1	1	1	0	1	-3,171247	273,504863	314,109169	0
15.01.2021	06:44:02	0	0	2,9376	2,44425	16,0992	-0,405	85,456	0	1011,32	6,1	8,2	8,1	1	1	1	1	1	1	1	1	1	0	1	-1,62086	273,429772	315,311261	0
15.01.2021	06:44:03	0	0	4,971324	2,46825	18,0864	-0,413	85,435	0	1011,08	6,1	8,2	8,1	1	1	1	1	1	1	1	1	1	0	1	-3,030303	273,478836	314,129363	0
15.01.2021	06:44:04	0	0	3,389539	2,505	16,1064	-0,408	85,447	0	1011,22	6,2	8,2	8,1	1	1	1	1	1	1	1	1	1	0	1	-7,399577	273,451402	309,632845	0
15.01.2021	06:44:05	0	0	3,050585	2,67075	11,7252	-0,408	85,451	0	1011,26	6,2	8,2	8,1	1	1	1	1	1	1	1	1	1	0	1	-7,751938	273,413924	309,106716	0
15.01.2021	06:44:06	0	0	4,971324	2,7795	15,0228	-0,403	85,455	0	1011,4	6,2	8,2	8,1	1	1	1	1	1	1	1	1	1	0	1	-5,708245	273,549768	311,780595	0
15.01.2021	06:44:07	0	0	3,050585	2,72025	7,146	-0,405	85,455	0	1011,4	6,2	8,2	8,1	1	1	1	1	1	1	1	1	1	0	1	-4,721635	273,52513	312,652835	0
15.01.2021	06:44:08	0	0	4,745355	2,601	11,2068	-0,408	85,439	0	1011,36	6,2	8,2	8,1	1	1	1	1	1	1	1	1	1	0	1	-6,060606	273,424007	310,844791	0
15.01.2021	06:44:09	0	0	4,63237	2,6415	10,4436	-0,405	85,447	0	1011,38	6,1	8,2	8,1	1	1	1	1	1	1	1	1	1	0	1	-7,892882	273,545418	309,575762	0
15.01.2021	06:44:10	0	0	4,180431	2,7135	8,6148	-0,404	85,438	0	1011,44	6,2	8,2	8,1	1	1	1	1	1	1	1	1	1	0	1	-7,329105	273,444189	309,669868	0
15.01.2021	06:44:11	0	0	3,502524	2,604	8,9892	-0,409	85,44	0	1011,38	6,1	8,2	8,1	1	1	1	1	1	1	1	1	1	0	1	-2,255109	273,438421	314,717116	0
15.01.2021	06:44:12	0	0	3,954462	2,42475	3,402	-0,409	85,438	0	1011,4	6,1	8,2	8,1	1	1	1	1	1	1	1	1	1	0	1	-5,496829	273,455731	311,55567	0
15.01.2021	06:44:13	0	0	4,067447	2,22975	13,8924	-0,404	85,452	0	1011,28	6,2	8,2	8,1	1	1	1	1	1	1	1	1	1	0	1	-4,792107	273,587513	312,871997	0
15.01.2021	06:44:14	0	0	3,16357	2,10225	12,8556	-0,409	85,437	0	1011,34	6,2	8,2	8,1	1	1	1	1	1	1	1	1	1	0	1	-1,479915	273,468724	315,632845	0
15.01.2021	06:44:15	0	0	4,180431	2,0295	8,6292	-0,407	85,44	0	1011,46	6,2	8,2	8,1	1	1	1	1	1	1	1	1	1	0	1	-7,117689	273,586059	310,539667	0
15.01.2021	06:44:16	0	0	3,050585	2,07225	1,9296	-0,408	85,43	0	1011,52	6,2	8,2	8,1	1	1	1	1	1	1	1	1	1	0	1	-3,24172	273,593326	314,449385	0
15.01.2021	06:44:17	0	0	3,389539	2,22225	11,8224	-0,409	85,434	0	1011,36	6,1	8,2	8,1	1	1	1	1	1	1	1	1	1	0	1	-5,990134	273,522233	311,370893	0
15.01.2021	06:44:18	0	0	2,9376	2,3595	9,3672	-0,41	85,44	0	1011,36	6,2	8,2	8,1	1	1	1	1	1	1	1	1	1	0	1	-4,369274	273,419685	312,516087	0
15.01.2021	06:44:19	0	0	4,180431	2,346	15,408	-0,407	85,428	0	1011,34	6,2	8,2	8,1	1	1	1	1	1	1	1	1	1	0	1	-3,453136	273,451402	313,579286	0
15.01.2021	06:44:20	0	0	2,711631	2,223	22,086	-0,403	85,428	0	1011,14	6,2	8,2	8,1	1	1	1	1	1	1	1	1	1	0	1	-6,553911	273,581701	311,083202	0
15.01.2021	06:44:21	0	0	3,050585	2,13825	12,8664	-0,412	85,439	0	1011,36	6,2	8,2	8,1	1	1	1	1	1	1	1	1	1	0	1	-9,584214	273,602049	308,147409	0
15.01.2021	06:44:22	0	0	2,9376	2,1705	14,3028	-0,412	85,426	0	1011,3	6,2	8,2	8,1	1	1	1	1	1	1	1	1	1	0	1	-2,959831	273,431213	313,978973	0
15.01.2021	06:44:23	0	0	2,9376	2,06625	7,5132	-0,404	85,446	0	1011,48	6,2	8,2	8,1	1	1	1	1	1	1	1	1	1	0	1	-3,805497	273,473057	313,327363	0
15.01.2021	06:44:24	0	0	3,050585	2,0265	26,5248	-0,411	85,416	0	1011,38	6,1	8,2	8,1	1	1	1	1	1	1	1	1	1	0	1	-4,298802	273,400968	312,499797	0
15.01.2021	06:44:25	0	0	5,197293	2,07975	27,2628	-0,407	85,446	0	1011,5	6,1	8,2	8,1	1	1	1	1	1	1	1	1	1	0	1	-8,45666	273,558472	309,072589	0
15.01.2021	06:44:26	0	0	4,519385	2,1345	15,7932	-0,402	85,441	0	1011,46	6,1	8,2	8,1	1	1	1	1	1	1	1	1	1	0	1	-4,016913	273,599141	313,701201	0
15.01.2021	06:44:27	0	0	4,63237	2,0535	18,8208	-0,408	85,436	0	1011,24	6,1	8,2	8,1	1	1	1	1	1	1	1	1	1	0	1	-7,540521	273,55557	309,975255	0
15.01.2021	06:44:28	0	0	3,050585	1,97325	14,2956	-0,41	85,441	0	1011,4	6,1	8,2	8,1	1	1	1	1	1	1	1	1	1	0	1	-6,131078	273,541069	311,317376	0
15.01.2021	06:44:29	0	0	2,598647	1,95975	14,3064	-0,406	85,433	0	1011,2	6,2	8,2	8,1	1	1	1	1	1	1	1	1	1	0	1	-3,030303	273,584606	314,620304	0
15.01.2021	06:44:30	0	0	2,598647	2,00775	7,866	-0,404	85,447	0	1011,28	6,2	8,2	8,1	1	1	1	1	1	1	1	1	1	0	1	-3,382664	273,445632	313,622998	0
15.01.2021	06:44:31	0	0	3,276554	1,98525	1,6596	-0,408	85,443	0	1011,4	6,2	8,2	8,1	1	1	1	1	1	1	1	1	1	0	1	-5,285412	273,577343	312,331464	0
15.01.2021	06:44:32	0	0	2,711631	1,9485	23,202	-0,406	85,437	0	1011,38	6,2	8,2	8,1	1	1	1	1	1	1	1	1	1	0	1	-3,312192	273,462949	313,77378	0
15.01.2021	06:44:33	0	0	3,050585	1,95975	7,1496	-0,404	85,426	0	1011,42	6,2	8,2	8,1	1	1	1	1	1	1	1	1	1	0	1	-4,510218	273,571535	313,079685	0
15.01.2021	06:44:34	0	0	2,372677	1,9275	21,7764	-0,407	85,438	0	1011,44	6,2	8,2	8,1	1	1	1	1	1	1	1	1	1	0	1	-7,329105	273,594779	310,368751	0
15.01.2021	06:44:35	0	0	4,293416	1,9935	14,3136	-0,412	85,435	0	1011,44	6,2	8,2	8,1	1	1	1	1	1	1	1	1	1	0	1	-1,127555	273,513546	316,193156	0
15.01.2021	06:44:36	0	0	3,050585	2,03625	18,45	-0,405	85,441	0	1011,44	6,2	8,2	8,1	1	1	1	1	1	1	1	1	1	0	1	-7,681466	273,581701	309,955647	0
15.01.2021	06:44:37	0	0	4,180431	2,00175	27,6552	-0,404	85,44	0	1011,38	6,2	8,2	8,1	1	1	1	1	1	1	1	1	1	0	1	-6,694856	273,53672	310,733414	0
15.01.2021	06:44:38	0	0	2,824616	1,9935	21,384	-0,402	85,451	0	1011,4	6,2	8,2	8,1	1	1	1	1	1	1	1	1	1	0	1	-7,610994	273,468724	309,501767	0
15.01.2021	06:44:39	0	0	3,615508	1,8585	17,2368	-0,406	85,439	0	1011,3	6,2	8,2	8,1	1	1	1	1	1	1	1	1	1	0	1	-4,157858	273,434096	312,794313	0
15.01.2021	06:44:40	0	0	3,502524	1,851	19,5336	-0,4	85,44	0	1011,42	6,2	8,2	8,1	1	1	1	1	1	1	1	1	1	0	1	-9,090909	273,526578	308,290284	0
15.01.2021	06:44:41	0	0	3,841478	1,8675	15,0372	-0,411	85,446	0	1011,38	6,2	8,2	8,1	1	1	1	1	1	1	1	1	1	0	1	-9,795631	273,596233	307,908978	0
15.01.2021	06:44:42	0	0	4,63237	2,031	24,7356	-0,407	85,434	0	1011,4	6,2	8,2	8,1	1	1	1	1	1	1	1	1	1	0	1	-6,8358	273,578796	310,787822	0
15.01.2021	06:44:43	0	0	5,084308	2,09475	15,408	-0,399	85,436	0	1011,34	6,1	8,2	8,1	1	1	1	1	1	1	1	1	1	0	1	-1,973221	273,520785	315,381085	0
15.01.2021	06:44:44	0	0	3,16357	2,05275	25,038	-0,411	85,449	0	1011,36	6,2	8,2	8,1	1	1	1	1	1	1	1	1	1	0	1	-6,412967	273,593326	311,278137	0
15.01.2021	06:44:45	0	0	2,937618	1,97475	23,5908	-0,409	85,423	0	1011,44	6,2	8,2	8	1	1	1	1	1	1	1	1	1	0	1	-4,369274	273,419685	312,516087	0
15.01.2021	06:44:46	0	0	3,502524	1,93125	6,8112	-0,403	85,442	0	1011,36	6,2	8,2	8,1	1	1	1	1	1	1	1	1	1	0	1	-6,553911	273,500522	310,706366	0
15.01.2021	06:44:47	0	0	4,180431	1,8975	20,6172	-0,405	85,48	0	1011,76	6,1	8,2	8,1	1	1	1	1	1	1	1	1	1	0	1	-7,470049	273,451402	309,562372	0
15.01.2021	06:44:48	0	0	4,63237	1,84425	15,4008	-0,412	85,445	0	1011,42	6,2	8,2	8,1	1	1	1	1	1	1	1	1	1	0	1	-2,818887	273,587513	314,845217	0
15.01.2021	06:44:49	0	0	4,519385	1,68825	16,866	-0,409	85,447	0	1011,46	6,2	8,2	8,1	1	1	1	1	1	1	1	1	1	0	1	-1,409443	273,457175	315,649748	0
15.01.2021	06:44:50	0	0	3,841478	1,746	29,106	-0,411	85,447	0	1011,5	6,2	8,2	8,1	1	1	1	1	1	1	1	1	1	0	1	-5,990134	273,424007	310,915263	0
15.01.2021	06:44:51	0	0	3,728493	1,89675	16,1172	-0,403	85,445	0	1011,34	6,2	8,2	8,1	1	1	1	1	1	1	1	1	1	0	1	-6,060606	273,548318	311,421502	0
15.01.2021	06:44:52	0	0	3,16357	2,09025	14,3064	-0,412	85,433	0	1011,4	6,2	8,2	8,1	1	1	1	1	1	1	1	1	1	0	1	-3,59408	273,564277	313,96212	0
15.01.2021	06:44:53	0	0	2,9376	2,1825	23,9616	-0,409	85,446	0	1011,36	6,2	8,2	8,1	1	1	1	1	1	1	1	1	1	0	1	-5,355884	273,600595	312,368985	0
15.01.2021	06:44:54	0	0	5,084308	2,2755	10,44	-0,411	85,439	0	1011,36	6,2	8,2	8,1	1	1	1	1	1	1	1	1	1	0	1	-9,44327	273,496183	307,796874	0
15.01.2021	06:44:55	0	0	3,728493	2,26425	6,066	-0,405	85,443	0	1011,44	6,2	8,2	8,1	1	1	1	1	1	1	1	1	1	0	1	-4,933051	273,584606	312,717556	0
15.01.2021	06:44:56	0	0	4,406401	2,23875	14,0076	-0,406	85,455	0	1011,4	6,2	8,2	8,1	1	1	1	1	1	1	1	1	1	0	1	-5,21494	273,586059	312,442415	0
15.01.2021	06:44:57	0	0	4,406401	2,21625	10,4724	-0,41	85,436	0	1011,44	6,2	8,2	8,1	1	1	1	1	1	1	1	1	1	0	1	-8,033827	273,50631	309,253304	0
15.01.2021	06:44:58	0	0	2,711647	2,23425	23,976	-0,403	85,452	0	1011,36	6,2	8,2	8	1	1	1	1	1	1	1	1	1	0	1	-3,312192	273,587513	314,351912	0
15.01.2021	06:44:59	0	0	3,16357	2,2605	15,4044	-0,407	85,448	0	1011,44	6,2	8,2	8,1	1	1	1	1	1	1	1	1	1	0	1	-5,426357	273,578796	312,197265	0
15.01.2021	06:45:00	0	0	4,519385	2,2875	25,4124	-0,401	85,437	0	1011,5	6,2	8,2	8,1	1	1	1	1	1	1	1	1	1	0	1	-5,567301	273,588966	312,103552	0
15.01.2021	06:45:01	0	0	4,519385	2,2875	25,4124	-0,401	85,437	0	1011,5	6,2	8,2	8,1	1	1	1	1	1	1	1	1	1	0	1	-5,567301	273,588966	312,103552	0
15.01.2021	06:45:02	0	0	4,293416	2,385	18,4644	-0,412	85,434	0	1011,26	6,2	8,2	8,1	1	1	1	1	1	1	1	1	1	0	1	-10,218464	273,530924	307,182901	0
15.01.2021	06:45:03	0	0	3,276574	2,682	12,4704	-0,407	85,425	0	1011,48	6,2	8,2	8	1	1	1	1	1	1	1	1	1	0	1	-3,664553	273,562825	313,884909	0
15.01.2021	06:45:04	0	0	4,63237	2,8875	15,7824	-0,412	85,442	0	1011,42	6,2	8,2	8,1	1	1	1	1	1	1	1	1	1	0	1	-1,479915	273,406726	315,345369	0
15.01.2021	06:45:05	0	0	3,16357	2,99475	23,9652	-0,406	85,454	0	1011,46	6,2	8,2	8,1	1	1	1	1	1	1	1	1	1	0	1	-5,778717	273,501969	311,488272	0
15.01.2021	06:45:06	0	0	3,389539	3,12225	22,464	-0,407	85,458	0	1011,4	6,2	8,2	8,1	1	1	1	1	1	1	1	1	1	0	1	-4,22833	273,590419	313,449273	0
15.01.2021	06:45:07	0	0	4,180431	2,988	20,2824	-0,407	85,442	0	1011,48	6,2	8,2	8,1	1	1	1	1	1	1	1	1	1	0	1	-9,231853	273,558472	308,297395	0
15.01.2021	06:45:08	0	0	4,858339	2,79225	10,4544	-0,406	85,455	0	1011,44	6,2	8,2	8,1	1	1	1	1	1	1	1	1	1	0	1	-3,100775	273,441305	313,884823	0
15.01.2021	06:45:09	0	0	5,310278	2,71425	5,2236	-0,409	85,458	0	1011,34	6,2	8,2	8,1	1	1	1	1	1	1	1	1	1	0	1	-4,369274	273,42833	312,556165	0
15.01.2021	06:45:10	0	0	3,954462	2,7915	9,7488	-0,415	85,438	0	1011,38	6,2	8,2	8,1	1	1	1	1	1	1	1	1	1	0	1	-10,570825	273,529475	306,823816	0
15.01.2021	06:45:11	0	0	2,711631	2,73975	12,1032	-0,407	85,444	0	1011,42	6,2	8,2	8,1	1	1	1	1	1	1	1	1	1	0	1	-2,114165	273,602049	315,617459	0
15.01.2021	06:45:12	0	0	3,050585	2,6265	16,5744	-0,41	85,436	0	1011,3	6,2	8,2	8,1	1	1	1	1	1	1	1	1	1	0	1	-5,144468	273,458618	311,921418	0
15.01.2021	06:45:13	0	0	2,598647	2,68875	1,9152	-0,407	85,44	0	1011,3	6,2	8,2	8,1	1	1	1	1	1	1	1	1	1	0	1	-3,735025	273,548318	313,747083	0
15.01.2021	06:45:14	0	0	3,841478	2,73375	24,3504	-0,414	85,429	0	1011,38	6,2	8,3	8,1	1	1	1	1	1	1	1	1	1	0	1	-5,285412	273,413924	311,573242	0
15.01.2021	06:45:15	0	0	3,841478	2,6025	17,7012	-0,408	85,447	0	1011,36	6,2	8,2	8,1	1	1	1	1	1	1	1	1	1	0	1	-6,906272	273,522233	310,454755	0
15.01.2021	06:45:16	0	0	4,293416	2,493	25,0488	-0,414	85,447	0	1011,3	6,2	8,2	8,1	1	1	1	1	1	1	1	1	1	0	1	-8,738548	273,424007	308,166849	0
15.01.2021	06:45:17	0	0	3,16357	2,334	23,9652	-0,407	85,459	0	1011,44	6,2	8,2	8,1	1	1	1	1	1	1	1	1	1	0	1	-8,386187	273,444189	308,612785	0
15.01.2021	06:45:18	0	0	3,389539	2,3265	6,156	-0,411	85,453	0	1011,32	6,2	8,2	8,1	1	1	1	1	1	1	1	1	1	0	1	-5,426357	273,533822	311,988459	0
15.01.2021	06:45:19	0	0	2,711647	2,32425	10,4508	-0,41	85,449	0	1011,54	6,1	8,2	8	1	1	1	1	1	1	1	1	1	0	1	-7,188161	273,602049	310,543463	0
15.01.2021	06:45:20	0	0	4,63237	2,23875	13,5468	-0,404	85,455	0	1011,32	6,2	8,2	8,1	1	1	1	1	1	1	1	1	1	0	1	-6,976744	273,594779	310,721112	0
15.01.2021	06:45:21	0	0	2,824616	2,3445	21,3948	-0,408	85,437	0	1011,42	6,2	8,2	8,1	1	1	1	1	1	1	1	1	1	0	1	-9,44327	273,551219	308,052304	0
15.01.2021	06:45:22	0	0	3,728493	2,505	25,416	-0,408	85,45	0	1011,38	6,2	8,2	8,1	1	1	1	1	1	1	1	1	1	0	1	-3,946441	273,602049	313,785183	0
15.01.2021	06:45:23	0	0	4,858339	2,56875	20,646	-0,407	85,459	0	1011,32	6,2	8,2	8,1	1	1	1	1	1	1	1	1	1	0	1	-10,570825	273,533822	306,843991	0
15.01.2021	06:45:24	0	0	2,485662	2,54175	23,22	-0,412	85,463	0	1011,34	6,2	8,2	8,1	1	1	1	1	1	1	1	1	1	0	1	-3,312192	273,596233	314,392417	0
15.01.2021	06:45:25	0	0	2,9376	2,50575	21,0312	-0,409	85,467	0	1011,44	6,2	8,2	8,1	1	1	1	1	1	1	1	1	1	0	1	-2,043693	273,415365	314,821637	0
15.01.2021	06:45:26	0	0	4,293416	2,39025	27,972	-0,405	85,465	0	1011,34	6,2	8,2	8,1	1	1	1	1	1	1	1	1	1	0	1	-7,963354	273,481726	309,209718	0
15.01.2021	06:45:27	0	0	4,971354	2,2725	9,7344	-0,408	85,456	0	1011,52	6,2	8,2	8	1	1	1	1	1	1	1	1	1	0	1	-1,973221	273,419685	314,91214	0
15.01.2021	06:45:28	0	0	2,711631	1,96725	16,4808	-0,408	85,464	0	1011,44	6,2	8,2	8,1	1	1	1	1	1	1	1	1	1	0	1	-3,946441	273,464392	313,146227	0
15.01.2021	06:45:29	0	0	2,711647	1,85325	14,2992	-0,406	85,468	0	1011,34	6,2	8,2	8	1	1	1	1	1	1	1	1	1	0	1	-7,047216	273,403847	309,764724	0
15.01.2021	06:45:30	0	0	3,954462	1,947	2,0088	-0,412	85,443	0	1011,48	6,2	8,2	8,1	1	1	1	1	1	1	1	1	1	0	1	-5,355884	273,557021	312,166628	0
15.01.2021	06:45:31	0	0	4,067447	1,965	27,6552	-0,412	85,458	0	1011,34	6,2	8,2	8,1	1	1	1	1	1	1	1	1	1	0	1	-1,691332	273,441305	315,294266	0
15.01.2021	06:45:32	0	0	3,954462	2,1135	21,7692	-0,408	85,467	0	1011,42	6,1	8,3	8,1	1	1	1	1	1	1	1	1	1	0	1	-12,05074	273,577343	305,566137	0
15.01.2021	06:45:33	0	0	2,937618	2,283	22,9284	-0,408	85,48	0	1011,48	6,2	8,2	8	1	1	1	1	1	1	1	1	1	0	1	-6,976744	273,533822	310,438072	0
15.01.2021	06:45:34	0	0	4,519385	2,3085	13,176	-0,402	85,47	0	1011,54	6,2	8,2	8,1	1	1	1	1	1	1	1	1	1	0	1	-6,131078	273,587513	311,533025	0
15.01.2021	06:45:35	0	0	4,519385	2,20275	18,4428	-0,414	85,452	0	1011,36	6,2	8,2	8,1	1	1	1	1	1	1	1	1	1	0	1	-2,677942	273,451402	314,35448	0
15.01.2021	06:45:36	0	0	3,389539	2,112	22,086	-0,407	85,474	0	1011,42	6,2	8,2	8,1	1	1	1	1	1	1	1	1	1	0	1	-2,60747	273,575891	315,002662	0
15.01.2021	06:45:37	0	0	5,197324	2,07	27,9684	-0,405	85,463	0	1011,38	6,2	8,2	8	1	1	1	1	1	1	1	1	1	0	1	-5,144468	273,580248	312,485899	0
15.01.2021	06:45:38	0	0	4,406401	2,06175	17,2224	-0,407	85,444	0	1011,42	6,2	8,2	8,1	1	1	1	1	1	1	1	1	1	0	1	-9,795631	273,542518	307,659553	0
15.01.2021	06:45:39	0	0	4,63237	2,04	24,354	-0,407	85,473	0	1011,42	6,2	8,2	8,1	1	1	1	1	1	1	1	1	1	0	1	-6,976744	273,593326	310,71436	0
15.01.2021	06:45:40	0	0	3,954462	1,99575	16,8516	-0,407	85,448	0	1011,26	6,2	8,2	8,1	1	1	1	1	1	1	1	1	1	0	1	-7,610994	273,55412	309,898048	0
15.01.2021	06:45:41	0	0	3,050585	1,91325	17,6976	-0,41	85,463	0	1011,22	6,2	8,2	8,1	1	1	1	1	1	1	1	1	1	0	1	-1,198027	273,584606	316,45258	0
15.01.2021	06:45:42	0	0	3,050585	1,803	8,6184	-0,404	85,451	0	1011,5	6,2	8,2	8,1	1	1	1	1	1	1	1	1	1	0	1	-8,033827	273,412484	308,818152	0
15.01.2021	06:45:43	0	0	2,485677	1,74975	22,8276	-0,414	85,463	0	1011,4	6,2	8,2	8	1	1	1	1	1	1	1	1	1	0	1	-4,087385	273,501969	313,179604	0
15.01.2021	06:45:44	0	0	4,63237	1,8	31,77	-0,403	85,462	0	1011,26	6,2	8,2	8,1	1	1	1	1	1	1	1	1	1	0	1	-5,426357	273,42833	311,499083	0
15.01.2021	06:45:45	0	0	4,293416	1,932	8,604	-0,402	85,465	0	1011,46	6,2	8,2	8,1	1	1	1	1	1	1	1	1	1	0	1	-1,832276	273,543968	315,629638	0
15.01.2021	06:45:46	0	0	4,858339	1,965	29,1132	-0,403	85,467	0	1011,36	6,2	8,2	8,1	1	1	1	1	1	1	1	1	1	0	1	-6,624383	273,424007	310,281014	0
15.01.2021	06:45:47	0	0	4,519385	1,9095	17,226	-0,404	85,462	0	1011,44	6,2	8,2	8,1	1	1	1	1	1	1	1	1	1	0	1	-4,087385	273,484617	313,099097	0
15.01.2021	06:45:48	0	0	3,050585	1,87425	31,3992	-0,399	85,464	0	1011,54	6,2	8,2	8,1	1	1	1	1	1	1	1	1	1	0	1	-7,751938	273,426889	309,16682	0
15.01.2021	06:45:49	0	0	5,084308	2,00175	30,312	-0,406	85,462	0	1011,38	6,2	8,2	8,1	1	1	1	1	1	1	1	1	1	0	1	-6,412967	273,575891	311,197165	0
15.01.2021	06:45:50	0	0	4,63237	1,98675	31,0032	-0,403	85,459	0	1011,26	6,2	8,2	8,1	1	1	1	1	1	1	1	1	1	0	1	-3,453136	273,552669	314,049172	0
15.01.2021	06:45:51	0	0	4,180456	2,01825	20,2824	-0,403	85,465	0	1011,46	6,2	8,2	8	1	1	1	1	1	1	1	1	1	0	1	-3,735025	273,588966	313,935828	0
15.01.2021	06:45:52	0	0	2,485662	2,1345	23,5764	-0,405	85,458	0	1011,36	6,2	8,2	8,1	1	1	1	1	1	1	1	1	1	0	1	-3,805497	273,561374	313,737226	0
15.01.2021	06:45:53	0	0	3,954462	2,121	21,0132	-0,411	85,462	0	1011,5	6,2	8,2	8,1	1	1	1	1	1	1	1	1	1	0	1	-3,875969	273,586059	313,781386	0
15.01.2021	06:45:54	0	0	4,971354	2,15475	36,234	-0,407	85,455	0	1011,34	6,2	8,2	8	1	1	1	1	1	1	1	1	1	0	1	-3,735025	273,484617	313,451458	0
15.01.2021	06:45:55	0	0	4,406427	2,20725	26,1684	-0,405	85,451	0	1011,4	6,2	8,2	8	1	1	1	1	1	1	1	1	1	0	1	-6,131078	273,610777	311,641087	0
15.01.2021	06:45:56	0	0	3,16357	2,31675	26,28	-0,406	85,451	0	1011,52	6,2	8,1	8,1	1	1	1	1	1	1	1	1	1	0	1	-4,933051	273,507757	312,360794	0
15.01.2021	06:45:57	0	0	3,163589	2,3175	23,2164	-0,408	85,441	0	1011,28	6,2	8,2	8	1	1	1	1	1	1	1	1	1	0	1	-4,721635	273,405286	312,096977	0
15.01.2021	06:45:58	0	0	4,067471	2,283	20,6532	-0,409	85,439	0	1011,5	6,2	8,2	8	1	1	1	1	1	1	1	1	1	0	1	-2,466526	273,533822	314,94829	0
15.01.2021	06:45:59	0	0	3,954486	2,31525	21,3696	-0,402	85,473	0	1011,48	6,2	8,2	8	1	1	1	1	1	1	1	1	1	0	1	-8,949965	273,594779	308,747891	0
15.01.2021	06:46:00	0	0	4,406427	2,376	25,0452	-0,4	85,462	0	1011,5	6,2	8,2	8	1	1	1	1	1	1	1	1	1	0	1	-5,637773	273,568631	311,938647	0
15.01.2021	06:46:01	0	0	4,293416	2,292	23,5836	-0,412	85,453	0	1011,48	6,2	8,2	8,1	1	1	1	1	1	1	1	1	1	0	1	-4,792107	273,606412	312,959785	0
15.01.2021	06:46:02	0	0	4,293416	2,292	23,5836	-0,412	85,453	0	1011,48	6,2	8,2	8,1	1	1	1	1	1	1	1	1	1	0	1	-4,792107	273,606412	312,959785	0
15.01.2021	06:46:03	0	0	3,050603	2,2185	20,3004	-0,405	85,45	0	1011,3	6,2	8,2	8	1	1	1	1	1	1	1	1	1	0	1	-5,778717	273,474502	311,360843	0
15.01.2021	06:46:04	0	0	3,954486	2,23425	23,5872	-0,405	85,453	0	1011,38	6,2	8,2	8	1	1	1	1	1	1	1	1	1	0	1	-5,21494	273,618052	312,591027	0
15.01.2021	06:46:05	0	0	2,711631	2,27325	15,4116	-0,405	85,456	0	1011,44	6,2	8,2	8,1	1	1	1	1	1	1	1	1	1	0	1	-4,933051	273,542518	312,522132	0
15.01.2021	06:46:06	0	0	2,824633	2,41275	36,612	-0,404	85,441	0	1011,34	6,2	8,2	8	1	1	1	1	1	1	1	1	1	0	1	-6,483439	273,431213	310,455364	0
15.01.2021	06:46:07	0	0	4,180431	2,481	28,728	-0,406	85,462	0	1011,48	6,2	8,2	8,1	1	1	1	1	1	1	1	1	1	0	1	-7,681466	273,548318	309,800642	0
15.01.2021	06:46:08	0	0	3,841478	2,36625	20,6388	-0,406	85,448	0	1011,3	6,2	8,2	8,1	1	1	1	1	1	1	1	1	1	0	1	-5,84919	273,424007	311,056208	0
15.01.2021	06:46:09	0	0	4,745355	2,373	6,4296	-0,41	85,459	0	1011,42	6,2	8,2	8,1	1	1	1	1	1	1	1	1	1	0	1	-6,8358	273,471613	310,290359	0
15.01.2021	06:46:10	0	0	3,728515	2,34075	22,9428	-0,404	85,459	0	1011,34	6,2	8,2	8	1	1	1	1	1	1	1	1	1	0	1	-8,738548	273,606412	309,013344	0
15.01.2021	06:46:11	0	0	3,61553	2,3895	12,1032	-0,405	85,462	0	1011,4	6,2	8,2	8	1	1	1	1	1	1	1	1	1	0	1	-3,171247	273,418245	313,707436	0
15.01.2021	06:46:12	0	0	2,824616	2,52075	12,8772	-0,407	85,463	0	1011,4	6,2	8,2	8,1	1	1	1	1	1	1	1	1	1	0	1	-5,355884	273,541069	312,09257	0
15.01.2021	06:46:13	0	0	3,954462	2,499	12,8484	-0,401	85,467	0	1011,56	6,2	8,1	8,1	1	1	1	1	1	1	1	1	1	0	1	-7,047216	273,597687	310,664145	0
15.01.2021	06:46:14	0	0	3,389559	2,355	15,786	-0,405	85,47	0	1011,4	6,2	8,2	8	1	1	1	1	1	1	1	1	1	0	1	-2,184637	273,491845	315,035379	0
15.01.2021	06:46:15	0	0	4,067447	2,214	16,8264	-0,403	85,457	0	1011,44	6,2	8,2	8,1	1	1	1	1	1	1	1	1	1	0	1	-6,906272	273,590419	310,771331	0
15.01.2021	06:46:16	0	0	3,050585	2,32875	18,8388	-0,408	85,46	0	1011,4	6,2	8,2	8,1	1	1	1	1	1	1	1	1	1	0	1	-6,694856	273,458618	310,37103	0
15.01.2021	06:46:17	0	0	5,197324	2,496	19,9116	-0,401	85,454	0	1011,38	6,2	8,2	8	1	1	1	1	1	1	1	1	1	0	1	-4,22833	273,432654	312,717157	0
15.01.2021	06:46:18	0	0	2,824633	2,805	7,1316	-0,403	85,467	0	1011,44	6,2	8,1	8	1	1	1	1	1	1	1	1	1	0	1	-5,355884	273,434096	311,596286	0
15.01.2021	06:46:19	0	0	2,372692	3,19575	4,482	-0,41	85,455	0	1011,4	6,2	8,2	8	1	1	1	1	1	1	1	1	1	0	1	-2,043693	273,50631	315,243438	0
15.01.2021	06:46:20	0	0	2,824616	3,4125	12,8556	-0,4	85,465	0	1011,48	6,2	8,1	8,1	1	1	1	1	1	1	1	1	1	0	1	-5,144468	273,602049	312,587156	0
15.01.2021	06:46:21	0	0	5,53628	3,31575	8,6112	-0,401	85,47	0	1011,46	6,2	8,2	8	1	1	1	1	1	1	1	1	1	0	1	-8,45666	273,597687	309,254702	0
15.01.2021	06:46:22	0	0	3,276574	3,20475	15,3936	-0,408	85,466	0	1011,28	6,2	8,1	8	1	1	1	1	1	1	1	1	1	0	1	-5,426357	273,46728	311,679706	0
15.01.2021	06:46:23	0	0	3,050585	3,0765	8,2728	-0,403	85,473	0	1011,44	6,2	8,2	8,1	1	1	1	1	1	1	1	1	1	0	1	-4,510218	273,449959	312,515512	0
15.01.2021	06:46:24	0	0	4,632398	2,90175	19,1412	-0,41	85,462	0	1011,4	6,2	8,2	8	1	1	1	1	1	1	1	1	1	0	1	-6,906272	273,425448	310,005805	0
15.01.2021	06:46:25	0	0	3,728493	2,55	19,1448	-0,401	85,464	0	1011,34	6,2	8,2	8,1	1	1	1	1	1	1	1	1	1	0	1	-6,624383	273,481726	310,548689	0
15.01.2021	06:46:26	0	0	4,858368	2,37975	16,8516	-0,401	85,444	0	1011,34	6,2	8,2	8	1	1	1	1	1	1	1	1	1	0	1	-3,030303	273,586059	314,627052	0
15.01.2021	06:46:27	0	0	4,293442	2,34975	12,8592	-0,403	85,44	0	1011,32	6,2	8,2	8	1	1	1	1	1	1	1	1	1	0	1	-3,875969	273,574439	313,72742	0
15.01.2021	06:46:28	0	0	4,180456	2,334	16,0992	-0,406	85,453	0	1011,06	6,2	8,1	8	1	1	1	1	1	1	1	1	1	0	1	-7,047216	273,533822	310,3676	0
15.01.2021	06:46:29	0	0	2,485677	2,21625	22,8312	-0,399	85,456	0	1011,42	6,2	8,2	8	1	1	1	1	1	1	1	1	1	0	1	-6,412967	273,603503	311,325412	0
15.01.2021	06:46:30	0	0	4,180431	2,091	15,4008	-0,408	85,457	0	1011,32	6,2	8,1	8,1	1	1	1	1	1	1	1	1	1	0	1	-3,735025	273,56718	313,834655	0
15.01.2021	06:46:31	0	0	5,084339	2,1375	22,8456	-0,409	85,447	0	1011,4	6,2	8,1	8	1	1	1	1	1	1	1	1	1	0	1	-6,272023	273,55412	311,237019	0
15.01.2021	06:46:32	0	0	4,63237	2,11575	28,35	-0,41	85,459	0	1011,42	6,2	8,2	8,1	1	1	1	1	1	1	1	1	1	0	1	-3,735025	273,442747	313,25726	0
15.01.2021	06:46:33	0	0	2,711631	2,01525	27,972	-0,405	85,465	0	1011,44	6,2	8,2	8,1	1	1	1	1	1	1	1	1	1	0	1	-3,171247	273,564277	314,384953	0
15.01.2021	06:46:34	0	0	4,293416	1,971	23,9832	-0,406	85,451	0	1011,18	6,2	8,3	8,1	1	1	1	1	1	1	1	1	1	0	1	-8,738548	273,432654	308,206938	0
15.01.2021	06:46:35	0	0	3,163589	2,00625	17,244	-0,399	85,474	0	1011,46	6,2	8,2	8	1	1	1	1	1	1	1	1	1	0	1	-5,355884	273,490399	311,857424	0
15.01.2021	06:46:36	0	0	2,824633	2,1225	20,2932	-0,401	85,45	0	1011,52	6,2	8,1	8	1	1	1	1	1	1	1	1	1	0	1	-6,060606	273,425448	310,851471	0
15.01.2021	06:46:37	0	0	2,9376	2,328	20,2896	-0,407	85,447	0	1011,32	6,2	8,2	8,1	1	1	1	1	1	1	1	1	1	0	1	-9,090909	273,488953	308,115692	0
15.01.2021	06:46:38	0	0	3,61553	2,50875	22,0824	-0,406	85,471	0	1011,4	6,2	8,1	8	1	1	1	1	1	1	1	1	1	0	1	-5,21494	273,597687	312,496421	0
15.01.2021	06:46:39	0	0	3,728515	2,61	13,9248	-0,403	85,462	0	1011,5	6,2	8,3	8	1	1	1	1	1	1	1	1	1	0	1	-5,84919	273,591872	311,835164	0
15.01.2021	06:46:40	0	0	3,389559	2,57625	13,158	-0,409	85,458	0	1011,26	6,2	8,1	8	1	1	1	1	1	1	1	1	1	0	1	-5,84919	273,559923	311,686796	0
15.01.2021	06:46:41	0	0	4,180456	2,61075	10,062	-0,4	85,465	0	1011,54	6,2	8,3	8	1	1	1	1	1	1	1	1	1	0	1	-6,20155	273,594779	311,496306	0
15.01.2021	06:46:42	0	0	3,954486	2,736	12,8448	-0,407	85,458	0	1011,26	6,2	8,1	8	1	1	1	1	1	1	1	1	1	0	1	-1,62086	273,480281	315,545509	0
15.01.2021	06:46:43	0	0	2,824633	2,59125	15,408	-0,4	85,446	0	1011,3	6,2	8,3	8	1	1	1	1	1	1	1	1	1	0	1	-2,959831	273,599141	314,758284	0
15.01.2021	06:46:44	0	0	2,824633	2,40825	23,9724	-0,403	85,456	0	1011,48	6,2	8,3	8	1	1	1	1	1	1	1	1	1	0	1	-3,875969	273,451402	313,156453	0
15.01.2021	06:46:45	0	0	2,711647	2,283	25,4232	-0,407	85,465	0	1011,52	6,2	8,2	8	1	1	1	1	1	1	1	1	1	0	1	-2,959831	273,551219	314,535743	0
15.01.2021	06:46:46	0	0	4,745355	2,0985	10,818	-0,409	85,461	0	1011,48	6,2	8,2	8,1	1	1	1	1	1	1	1	1	1	0	1	-1,832276	273,600595	315,892593	0
15.01.2021	06:46:47	0	0	5,084339	2,11725	24,7176	-0,406	85,456	0	1011,44	6,2	8,2	8	1	1	1	1	1	1	1	1	1	0	1	-2,255109	273,604958	315,490026	0
15.01.2021	06:46:48	0	0	2,9376	2,058	16,092	-0,404	85,463	0	1011,48	6,2	8,2	8,1	1	1	1	1	1	1	1	1	1	0	1	-6,131078	273,480281	311,035291	0
15.01.2021	06:46:49	0	0	3,728515	1,935	23,2236	-0,41	85,449	0	1011,36	6,2	8,1	8	1	1	1	1	1	1	1	1	1	0	1	-5,919662	273,434096	311,032508	0
15.01.2021	06:46:50	0	0	2,711647	1,90575	22,4568	-0,406	85,458	0	1011,32	6,2	8,2	8	1	1	1	1	1	1	1	1	1	0	1	-5,285412	273,458618	311,780473	0
15.01.2021	06:46:51	0	0	4,745383	1,845	23,2128	-0,411	85,454	0	1011,4	6,2	8,1	8	1	1	1	1	1	1	1	1	1	0	1	-4,087385	273,572987	313,50926	0
15.01.2021	06:46:52	0	0	4,406427	1,8735	20,2932	-0,403	85,452	0	1011,44	6,2	8,1	8	1	1	1	1	1	1	1	1	1	0	1	-7,470049	273,594779	310,227807	0
15.01.2021	06:46:53	0	0	3,502524	1,91925	12,8484	-0,405	85,454	0	1011,4	6,2	8,2	8,1	1	1	1	1	1	1	1	1	1	0	1	-7,399577	273,422567	309,499141	0
15.01.2021	06:46:54	0	0	3,050603	2,01825	19,908	-0,406	85,473	0	1011,58	6,2	8,1	8	1	1	1	1	1	1	1	1	1	0	1	-3,171247	273,596233	314,533361	0
15.01.2021	06:46:55	0	0	4,971354	2,21775	30,3228	-0,406	85,458	0	1011,42	6,2	8,3	8	1	1	1	1	1	1	1	1	1	0	1	-1,832276	273,583154	315,811584	0
15.01.2021	06:46:56	0	0	2,824616	2,39475	19,53	-0,404	85,469	0	1011,44	6,2	8,1	8,1	1	1	1	1	1	1	1	1	1	0	1	-7,329105	273,474502	309,810455	0
15.01.2021	06:46:57	0	0	4,293442	2,43525	22,4568	-0,404	85,454	0	1011,34	6,2	8,2	8	1	1	1	1	1	1	1	1	1	0	1	-1,127555	273,622419	316,698701	0
15.01.2021	06:46:58	0	0	2,146721	2,37975	14,3028	-0,409	85,444	0	1011,26	6,2	8,2	8	1	1	1	1	1	1	1	1	1	0	1	-6,694856	273,529475	310,699785	0
15.01.2021	06:46:59	0	0	2,598662	2,42625	5,2308	-0,403	85,467	0	1011,5	6,2	8,2	8	1	1	1	1	1	1	1	1	1	0	1	-4,439746	273,42833	312,485693	0
15.01.2021	06:47:00	0	0	4,180431	3,039	10,0764	-0,399	85,46	0	1011,5	6,2	8,2	8,1	1	1	1	1	1	1	1	1	1	0	1	-5,778717	273,439863	311,200194	0
15.01.2021	06:47:01	0	0	4,180431	3,039	10,0764	-0,399	85,46	0	1011,5	6,2	8,2	8,1	1	1	1	1	1	1	1	1	1	0	1	-5,778717	273,439863	311,200194	0
15.01.2021	06:47:02	0	0	3,841501	3,057	18,8568	-0,403	85,451	0	1011,4	6,2	8,1	8	1	1	1	1	1	1	1	1	1	0	1	-8,104299	273,53817	309,330698	0
15.01.2021	06:47:03	0	0	2,598662	2,9895	13,9176	-0,398	85,484	0	1011,46	6,2	8,2	8	1	1	1	1	1	1	1	1	1	0	1	-5,778717	273,439863	311,200194	0
15.01.2021	06:47:04	0	0	4,180456	2,72775	17,7012	-0,405	85,447	0	1011,54	6,2	8,3	8	1	1	1	1	1	1	1	1	1	0	1	-3,664553	273,441305	313,321045	0
15.01.2021	06:47:05	0	0	4,519412	2,4135	11,7216	-0,407	85,462	0	1011,3	6,2	8,2	8	1	1	1	1	1	1	1	1	1	0	1	-1,761804	273,532373	315,646286	0
15.01.2021	06:47:06	0	0	2,937618	2,175	21,384	-0,401	85,451	0	1011,32	6,2	8,1	8	1	1	1	1	1	1	1	1	1	0	1	-6,20155	273,432654	310,743936	0
15.01.2021	06:47:07	0	0	4,632398	2,16075	22,4604	-0,411	85,449	0	1011,34	6,2	8,2	8	1	1	1	1	1	1	1	1	1	0	1	-4,298802	273,561374	313,243921	0
15.01.2021	06:47:08	0	0	4,519412	2,0865	22,842	-0,402	85,447	0	1011,44	6,2	8,2	8	1	1	1	1	1	1	1	1	1	0	1	-6,553911	273,596233	311,150697	0
15.01.2021	06:47:09	0	0	4,180456	2,07525	13,554	-0,407	85,464	0	1011,4	6,2	8,2	8	1	1	1	1	1	1	1	1	1	0	1	-4,510218	273,584606	313,140389	0
15.01.2021	06:47:10	0	0	3,163589	2,13825	31,0248	-0,404	85,458	0	1011,46	6,2	8,2	8	1	1	1	1	1	1	1	1	1	0	1	-10,218464	273,609322	307,546943	0
15.01.2021	06:47:11	0	0	5,084339	2,3205	18,4464	-0,406	85,45	0	1011,42	6,2	8,1	8	1	1	1	1	1	1	1	1	1	0	1	-5,496829	273,571535	312,093074	0
15.01.2021	06:47:12	0	0	2,485677	2,67	2,3004	-0,41	85,451	0	1011,42	6,2	8,2	8	1	1	1	1	1	1	1	1	1	0	1	-6,342495	273,549768	311,146346	0
15.01.2021	06:47:13	0	0	3,389559	2,904	12,4668	-0,406	85,453	0	1011,4	6,2	8,2	8	1	1	1	1	1	1	1	1	1	0	1	-5,21494	273,424007	311,690457	0
15.01.2021	06:47:14	0	0	3,841501	3,0105	26,1684	-0,404	85,446	0	1011,52	6,2	8,1	8	1	1	1	1	1	1	1	1	1	0	1	-7,258633	273,512098	310,05536	0
15.01.2021	06:47:15	0	0	4,632398	2,9265	10,4616	-0,403	85,455	0	1011,46	6,2	8,2	8	1	1	1	1	1	1	1	1	1	0	1	-3,805497	273,593326	313,885607	0
15.01.2021	06:47:16	0	0	3,954462	2,766	16,4844	-0,405	85,459	0	1011,36	6,2	8,2	8,1	1	1	1	1	1	1	1	1	1	0	1	-6,906272	273,590419	310,771331	0
15.01.2021	06:47:17	0	0	2,598662	2,66025	14,6556	-0,405	85,452	0	1011,46	6,2	8,1	8	1	1	1	1	1	1	1	1	1	0	1	-7,399577	273,53817	310,03542	0
15.01.2021	06:47:18	0	0	2,598662	2,56875	15,7896	-0,405	85,441	0	1011,44	6,1	8,1	8	1	1	1	1	1	1	1	1	1	0	1	-7,329105	273,422567	309,569613	0
15.01.2021	06:47:19	0	0	4,519412	2,4495	21,0276	-0,404	85,46	0	1011,52	6,2	8,3	8	1	1	1	1	1	1	1	1	1	0	1	-7,399577	273,55412	310,109465	0
15.01.2021	06:47:20	0	0	3,728515	2,41575	360	-0,407	85,46	0	1011,44	6,2	8,1	8	1	1	1	1	1	1	1	1	1	0	1	-3,523608	273,603503	314,214771	0
15.01.2021	06:47:21	0	0	3,728515	2,43375	7,1316	-0,41	85,455	0	1011,46	6,2	8,3	8	1	1	1	1	1	1	1	1	1	0	1	-2,536998	273,606412	315,214894	0
15.01.2021	06:47:22	0	0	4,858368	2,47575	11,7144	-0,399	85,454	0	1011,46	6,2	8,1	8	1	1	1	1	1	1	1	1	1	0	1	-8,80902	273,526578	308,572173	0
15.01.2021	06:47:23	0	0	3,050603	2,53575	17,694	-0,404	85,462	0	1011,22	6,2	8,2	8	1	1	1	1	1	1	1	1	1	0	1	-3,664553	273,604958	314,080583	0
15.01.2021	06:47:24	0	0	3,954486	2,71125	13,9176	-0,404	85,458	0	1011,52	6,2	8,1	8	1	1	1	1	1	1	1	1	1	0	1	-0,775194	273,481726	316,397879	0
15.01.2021	06:47:25	0	0	2,937618	2,76825	15,0408	-0,404	85,458	0	1011,48	6,2	8,2	8	1	1	1	1	1	1	1	1	1	0	1	-3,735025	273,449959	313,290706	0
15.01.2021	06:47:26	0	0	4,632398	2,71425	18,4572	-0,406	85,447	0	1011,46	6,2	8,1	8	1	1	1	1	1	1	1	1	1	0	1	-3,100775	273,609322	314,664632	0
15.01.2021	06:47:27	0	0	4,519412	2,62275	16,4808	-0,404	85,516	0	1011,38	6,2	8,2	8	1	1	1	1	1	1	1	1	1	0	1	-2,748414	273,532373	314,659676	0
15.01.2021	06:47:28	0	0	4,067471	2,6835	10,0476	-0,403	85,445	0	1011,48	6,2	8,3	8	1	1	1	1	1	1	1	1	1	0	1	-8,104299	273,429772	308,827822	0
15.01.2021	06:47:29	0	0	3,276574	2,71275	22,0824	-0,403	85,454	0	1011,5	6,2	8,3	8	1	1	1	1	1	1	1	1	1	0	1	-0,422833	273,441305	316,562765	0
15.01.2021	06:47:30	0	0	4,858339	2,80575	21,762	-0,402	85,462	0	1011,42	6,2	8,1	8,1	1	1	1	1	1	1	1	1	1	0	1	-0,070472	273,53817	317,364525	0
15.01.2021	06:47:31	0	0	4,519412	2,772	20,5632	-0,409	85,447	0	1011,3	6,2	8,1	8	1	1	1	1	1	1	1	1	1	0	1	-4,22833	273,594779	313,469526	0
15.01.2021	06:47:32	0	0	3,389559	2,556	36,6192	-0,403	85,456	0	1011,38	6,2	8,1	8	1	1	1	1	1	1	1	1	1	0	1	-0,845666	273,475947	316,300595	0
15.01.2021	06:47:33	0	0	4,632398	2,34	23,58	-0,407	85,43	0	1011,46	6,1	8,2	8	1	1	1	1	1	1	1	1	1	0	1	-0,281889	273,551219	317,213685	0
15.01.2021	06:47:34	0	0	4,180456	2,26575	29,1204	-0,402	85,455	0	1011,44	6,2	8,1	8	1	1	1	1	1	1	1	1	1	0	1	-3,171247	273,418245	313,707436	0
15.01.2021	06:47:35	0	0	3,728515	2,15175	28,3572	-0,406	85,448	0	1011,4	6,2	8,3	8	1	1	1	1	1	1	1	1	1	0	1	-1,691332	273,523681	315,676416	0
15.01.2021	06:47:36	0	0	3,728515	2,0205	19,9188	-0,408	85,447	0	1011,32	6,2	8,1	8	1	1	1	1	1	1	1	1	1	0	1	-4,087385	273,590419	313,590217	0
15.01.2021	06:47:37	0	0	4,745383	1,89	28,7172	-0,408	85,44	0	1011,22	6,2	8,1	8	1	1	1	1	1	1	1	1	1	0	1	-8,033827	273,575891	309,576306	0
15.01.2021	06:47:38	0	0	2,824633	2,025	18,9288	-0,407	85,449	0	1011,48	6,2	8,2	8	1	1	1	1	1	1	1	1	1	0	1	-2,889359	273,478836	314,270307	0
15.01.2021	06:47:39	0	0	5,084339	2,19825	18,4572	-0,404	85,456	0	1011,44	6,2	8,2	8	1	1	1	1	1	1	1	1	1	0	1	-3,312192	273,432654	313,633295	0
15.01.2021	06:47:40	0	0	3,841501	2,2425	20,2896	-0,404	85,455	0	1011,42	6,2	8,1	8	1	1	1	1	1	1	1	1	1	0	1	-3,312192	273,509204	313,988369	0
15.01.2021	06:47:41	0	0	4,632398	2,19075	16,1064	-0,405	85,45	0	1011,36	6,2	8,1	8	1	1	1	1	1	1	1	1	1	0	1	-3,664553	273,447074	313,347798	0
15.01.2021	06:47:42	0	0	4,519412	2,21025	19,6776	-0,401	85,455	0	1011,26	6,2	8,3	8	1	1	1	1	1	1	1	1	1	0	1	-7,258633	273,586059	310,398722	0
15.01.2021	06:47:43	0	0	5,423295	2,29125	21,3984	-0,408	85,444	0	1011,4	6,2	8,1	8	1	1	1	1	1	1	1	1	1	0	1	-4,298802	273,542518	313,156382	0
15.01.2021	06:47:44	0	0	2,598662	2,361	26,8956	-0,41	85,442	0	1011,34	6,1	8,2	8	1	1	1	1	1	1	1	1	1	0	1	-6,342495	273,421126	310,549544	0
15.01.2021	06:47:45	0	0	5,197324	2,3625	20,6496	-0,405	85,44	0	1011,34	6,2	8,2	8	1	1	1	1	1	1	1	1	1	0	1	-6,553911	273,503416	310,719792	0
15.01.2021	06:47:46	0	0	3,841501	2,397	9,756	-0,393	85,453	0	1011,2	6,1	8,1	8	1	1	1	1	1	1	1	1	1	0	1	-5,144468	273,429772	311,787653	0
15.01.2021	06:47:47	0	0	4,519412	2,49075	6,4368	-0,398	85,456	0	1011,38	6,2	8,1	8	1	1	1	1	1	1	1	1	1	0	1	-3,735025	273,468724	313,377736	0
15.01.2021	06:47:48	0	0	4,293442	2,5425	10,458	-0,402	85,461	0	1011,38	6,2	8,1	8	1	1	1	1	1	1	1	1	1	0	1	-3,100775	273,491845	314,119241	0
15.01.2021	06:47:49	0	0	4,067447	2,56125	11,1888	-0,404	85,452	0	1011,38	6,2	8,1	8,1	1	1	1	1	1	1	1	1	1	0	1	-4,792107	273,609322	312,9733	0
15.01.2021	06:47:50	0	0	3,61553	2,38275	11,7288	-0,402	85,451	0	1011,34	6,2	8,2	8	1	1	1	1	1	1	1	1	1	0	1	-6,8358	273,50631	310,451331	0
15.01.2021	06:47:51	0	0	4,632398	2,27925	14,3028	-0,402	85,46	0	1011,36	6,1	8,2	8	1	1	1	1	1	1	1	1	1	0	1	-8,245243	273,596233	309,459365	0
15.01.2021	06:47:52	0	0	3,841501	2,33625	4,0824	-0,406	85,456	0	1011,5	6,2	8,2	8	1	1	1	1	1	1	1	1	1	0	1	-3,453136	273,56718	314,116543	0
15.01.2021	06:47:53	0	0	4,519412	2,31675	17,3268	-0,409	85,45	0	1011,24	6,2	8,2	8	1	1	1	1	1	1	1	1	1	0	1	-6,20155	273,475947	310,944711	0
15.01.2021	06:47:54	0	0	3,615508	2,12475	12,8484	-0,401	85,46	0	1011,38	6,1	8,1	8,1	1	1	1	1	1	1	1	1	1	0	1	-7,540521	273,606412	310,21137	0
15.01.2021	06:47:55	0	0	2,485677	2,01375	6,8256	-0,405	85,446	0	1011,46	6,2	8,2	8	1	1	1	1	1	1	1	1	1	0	1	-10,077519	273,504863	307,202897	0
15.01.2021	06:47:56	0	0	3,276574	1,9755	18,4644	-0,403	85,454	0	1011,46	6,2	8,2	8	1	1	1	1	1	1	1	1	1	0	1	-1,409443	273,432654	315,536043	0
15.01.2021	06:47:57	0	0	3,954486	2,01525	0,8712	-0,41	85,458	0	1011,26	6,1	8,1	8	1	1	1	1	1	1	1	1	1	0	1	-5,778717	273,539619	311,663008	0
15.01.2021	06:47:58	0	0	4,632398	1,986	26,9028	-0,409	85,456	0	1011,28	6,2	8,2	8	1	1	1	1	1	1	1	1	1	0	1	-7,329105	273,457175	309,730087	0
15.01.2021	06:47:59	0	0	3,841501	2,00175	15,03	-0,409	85,447	0	1011,34	6,2	8,2	8	1	1	1	1	1	1	1	1	1	0	1	-6,272023	273,586059	311,385333	0
15.01.2021	06:48:00	0	0	3,276574	2,097	15,0372	-0,399	85,452	0	1011,58	6,1	8,2	8	1	1	1	1	1	1	1	1	1	0	1	-2,466526	273,422567	314,432192	0
15.01.2021	06:48:01	0	0	3,276574	2,097	15,0372	-0,399	85,452	0	1011,58	6,1	8,2	8	1	1	1	1	1	1	1	1	1	0	1	-2,466526	273,422567	314,432192	0
15.01.2021	06:48:02	0	0	2,598662	2,12325	19,5336	-0,402	85,451	0	1011,42	6,2	8,1	8	1	1	1	1	1	1	1	1	1	0	1	-6,906272	273,454288	310,139533	0
15.01.2021	06:48:03	0	0	3,050603	2,07	24,3504	-0,401	85,467	0	1011,42	6,2	8,2	8	1	1	1	1	1	1	1	1	1	0	1	-5,567301	273,448517	311,451739	0
15.01.2021	06:48:04	0	0	3,050603	2,0115	11,7144	-0,402	85,448	0	1011,38	6,2	8,2	8	1	1	1	1	1	1	1	1	1	0	1	-3,735025	273,42833	313,190414	0
15.01.2021	06:48:05	0	0	3,050603	1,968	16,4808	-0,405	85,461	0	1011,48	6,1	8,2	8	1	1	1	1	1	1	1	1	1	0	1	-4,651163	273,543968	312,810751	0
15.01.2021	06:48:06	0	0	3,841501	1,95	7,1352	-0,404	85,463	0	1011,42	6,2	8,2	8	1	1	1	1	1	1	1	1	1	0	1	-3,875969	273,445632	313,129692	0
15.01.2021	06:48:07	0	0	4,180456	1,896	9,8316	-0,408	85,447	0	1011,46	6,2	8,2	8	1	1	1	1	1	1	1	1	1	0	1	-6,412967	273,464392	310,679701	0
15.01.2021	06:48:08	0	0	4,745383	1,788	15,7788	-0,411	85,454	0	1011,44	6,1	8,2	8	1	1	1	1	1	1	1	1	1	0	1	-5,21494	273,436979	311,750599	0
15.01.2021	06:48:09	0	0	3,276574	1,85175	21,7656	-0,406	85,45	0	1011,38	6,2	8,2	8	1	1	1	1	1	1	1	1	1	0	1	-7,82241	273,429772	309,109711	0
15.01.2021	06:48:10	0	0	2,824633	2,022	39,8556	-0,404	85,443	0	1011,38	6,2	8,2	8	1	1	1	1	1	1	1	1	1	0	1	-4,369274	273,49763	312,877581	0
15.01.2021	06:48:11	0	0	4,858368	2,1	25,8768	-0,402	85,448	0	1011,36	6,2	8,1	8	1	1	1	1	1	1	1	1	1	0	1	-1,057082	273,570083	316,526079	0
15.01.2021	06:48:12	0	0	4,63237	2,0235	12,8556	-0,399	85,455	0	1011,44	6,1	8,2	8,1	1	1	1	1	1	1	1	1	1	0	1	-7,681466	273,42833	309,243973	0
15.01.2021	06:48:13	0	0	4,971354	1,935	14,652	-0,404	85,451	0	1011,5	6,2	8,2	8	1	1	1	1	1	1	1	1	1	0	1	-2,396054	273,510651	314,911223	0
15.01.2021	06:48:14	0	0	2,711647	1,8735	14,0148	-0,404	85,465	0	1011,48	6,2	8,2	8	1	1	1	1	1	1	1	1	1	0	1	-3,030303	273,606412	314,721589	0
15.01.2021	06:48:15	0	0	4,745383	1,88175	7,6176	-0,401	85,463	0	1011,28	6,2	8,2	8	1	1	1	1	1	1	1	1	1	0	1	-3,946441	273,542518	313,508743	0
15.01.2021	06:48:16	0	0	2,372677	1,91025	15,0372	-0,403	85,464	0	1011,44	6,2	8,2	8,1	1	1	1	1	1	1	1	1	1	0	1	-4,721635	273,562825	312,827826	0
15.01.2021	06:48:17	0	0	4,519412	1,8705	15,0228	-0,406	85,455	0	1011,4	6,2	8,2	8	1	1	1	1	1	1	1	1	1	0	1	-5,144468	273,615142	312,647977	0
15.01.2021	06:48:18	0	0	4,63237	1,8	6,8184	-0,402	85,467	0	1011,4	6,1	8,1	8,1	1	1	1	1	1	1	1	1	1	0	1	-4,721635	273,568631	312,854785	0
15.01.2021	06:48:19	0	0	3,502545	1,797	9,3708	-0,4	85,471	0	1011,52	6,2	8,2	8	1	1	1	1	1	1	1	1	1	0	1	-3,664553	273,484617	313,52193	0
15.01.2021	06:48:20	0	0	2,824633	1,866	4,8348	-0,403	85,457	0	1011,36	6,1	8,1	8	1	1	1	1	1	1	1	1	1	0	1	-7,188161	273,461505	309,891115	0
15.01.2021	06:48:21	0	0	3,954486	1,9125	23,5764	-0,406	85,466	0	1011,34	6,1	8,2	8	1	1	1	1	1	1	1	1	1	0	1	-7,117689	273,481726	310,055384	0
15.01.2021	06:48:22	0	0	4,745383	1,90425	12,1788	-0,403	85,463	0	1011,44	6,2	8,2	8	1	1	1	1	1	1	1	1	1	0	1	-1,268499	273,591872	316,415854	0
15.01.2021	06:48:23	0	0	3,389559	1,842	18,8352	-0,403	85,446	0	1011,36	6,2	8,1	8	1	1	1	1	1	1	1	1	1	0	1	-5,144468	273,507757	312,149377	0
15.01.2021	06:48:24	0	0	3,050603	1,791	12,852	-0,411	85,464	0	1011,44	6,1	8,2	8	1	1	1	1	1	1	1	1	1	0	1	-7,117689	273,487508	310,082206	0
15.01.2021	06:48:25	0	0	4,971354	1,80975	19,1376	-0,405	85,449	0	1011,56	6,2	8,2	8	1	1	1	1	1	1	1	1	1	0	1	-9,936575	273,561374	307,606148	0
15.01.2021	06:48:26	0	0	2,372692	1,9035	12,4704	-0,406	85,459	0	1011,38	6,2	8,3	8	1	1	1	1	1	1	1	1	1	0	1	-3,382664	273,452845	313,656449	0
15.01.2021	06:48:27	0	0	2,937618	1,95825	19,8792	-0,402	85,469	0	1011,46	6,2	8,1	8	1	1	1	1	1	1	1	1	1	0	1	-4,580691	273,424007	312,324707	0
15.01.2021	06:48:28	0	0	2,711647	1,902	21,006	-0,406	85,443	0	1011,4	6,2	8,2	8	1	1	1	1	1	1	1	1	1	0	1	-4,510218	273,522233	312,850808	0
15.01.2021	06:48:29	0	0	3,841501	1,851	18,1872	-0,403	85,462	0	1011,38	6,2	8,1	8	1	1	1	1	1	1	1	1	1	0	1	-8,668076	273,442747	308,324209	0
15.01.2021	06:48:30	0	0	3,841501	1,85175	19,1376	-0,405	85,454	0	1011,48	6,2	8,2	8	1	1	1	1	1	1	1	1	1	0	1	-8,315715	273,578796	309,307906	0
15.01.2021	06:48:31	0	0	3,954462	1,92525	17,2332	-0,397	85,456	0	1011,46	6,2	8,2	8,1	1	1	1	1	1	1	1	1	1	0	1	-1,268499	273,574439	316,33489	0
15.01.2021	06:48:32	0	0	2,824616	1,9395	19,908	-0,402	85,474	0	1011,42	6,1	8,2	8,1	1	1	1	1	1	1	1	1	1	0	1	-8,033827	273,609322	309,73158	0
15.01.2021	06:48:33	0	0	3,502545	1,87875	17,7696	-0,399	85,439	0	1011,36	6,2	8,2	8	1	1	1	1	1	1	1	1	1	0	1	-3,453136	273,514993	313,874292	0
15.01.2021	06:48:34	0	0	4,180456	1,85775	19,8936	-0,398	85,44	0	1011,5	6,2	8,2	8	1	1	1	1	1	1	1	1	1	0	1	-6,976744	273,599141	310,741371	0
15.01.2021	06:48:35	0	0	3,841501	1,80525	23,9688	-0,398	85,463	0	1011,42	6,1	8,2	8	1	1	1	1	1	1	1	1	1	0	1	-7,470049	273,499076	309,783516	0
15.01.2021	06:48:36	0	0	4,519412	1,74075	23,5872	-0,406	85,469	0	1011,38	6,2	8,2	8	1	1	1	1	1	1	1	1	1	0	1	-4,933051	273,603503	312,805328	0
15.01.2021	06:48:37	0	0	4,971324	1,7565	18,8172	-0,397	85,462	0	1011,38	6,2	8,2	8,1	1	1	1	1	1	1	1	1	1	0	1	-8,245243	273,587513	309,418861	0
15.01.2021	06:48:38	0	0	2,824633	1,9185	17,6904	-0,399	85,462	0	1011,46	6,2	8,1	8	1	1	1	1	1	1	1	1	1	0	1	-4,087385	273,484617	313,099097	0
15.01.2021	06:48:39	0	0	2,711647	1,959	20,6352	-0,404	85,458	0	1011,14	6,1	8,2	8	1	1	1	1	1	1	1	1	1	0	1	-9,090909	273,616597	308,708297	0
15.01.2021	06:48:40	0	0	4,971354	1,944	19,62	-0,405	85,459	0	1011,44	6,2	8,2	8	1	1	1	1	1	1	1	1	1	0	1	-5,285412	273,517889	312,055454	0
15.01.2021	06:48:41	0	0	4,632398	1,929	19,9044	-0,405	85,466	0	1011,46	6,2	8,2	8	1	1	1	1	1	1	1	1	1	0	1	-6,060606	273,439863	310,918305	0
15.01.2021	06:48:42	0	0	4,745383	1,95975	14,292	-0,411	85,464	0	1011,46	6,1	8,3	8	1	1	1	1	1	1	1	1	1	0	1	-4,510218	273,557021	313,012294	0
15.01.2021	06:48:43	0	0	4,067471	1,9905	10,4472	-0,398	85,464	0	1011,4	6,2	8,2	8	1	1	1	1	1	1	1	1	1	0	1	-5,637773	273,465836	311,461592	0
15.01.2021	06:48:44	0	0	4,293442	1,9995	23,598	-0,398	85,46	0	1011,48	6,1	8,2	8	1	1	1	1	1	1	1	1	1	0	1	-7,540521	273,607867	310,218128	0
15.01.2021	06:48:45	0	0	4,858368	2,01225	19,9116	-0,401	85,461	0	1011,22	6,2	8,2	8	1	1	1	1	1	1	1	1	1	0	1	-7,329105	273,516441	310,005042	0
15.01.2021	06:48:46	0	0	4,971354	2,0715	24,732	-0,409	85,473	0	1011,32	6,1	8,2	8	1	1	1	1	1	1	1	1	1	0	1	-7,399577	273,444189	309,599396	0
15.01.2021	06:48:47	0	0	3,276554	2,163	19,53	-0,405	85,471	0	1011,4	6,2	8,2	8,1	1	1	1	1	1	1	1	1	1	0	1	-9,161381	273,464392	307,931287	0
15.01.2021	06:48:48	0	0	4,971324	2,25975	9,3492	-0,407	85,454	0	1011,34	6,2	8,2	8,1	1	1	1	1	1	1	1	1	1	0	1	-4,651163	273,449959	312,374568	0
15.01.2021	06:48:49	0	0	3,276574	2,33625	25,7868	-0,406	85,456	0	1011,36	6,1	8,2	8	1	1	1	1	1	1	1	1	1	0	1	-2,818887	273,471613	314,307273	0
15.01.2021	06:48:50	0	0	4,858368	2,2065	23,5764	-0,392	85,455	0	1011,46	6,1	8,2	8	1	1	1	1	1	1	1	1	1	0	1	-3,171247	273,609322	314,59416	0
15.01.2021	06:48:51	0	0	4,632398	2,08875	23,1912	-0,402	85,464	0	1011,46	6,2	8,1	8	1	1	1	1	1	1	1	1	1	0	1	-9,231853	273,581701	308,40526	0
15.01.2021	06:48:52	0	0	3,163589	1,9605	24,3468	-0,404	85,459	0	1011,36	6,2	8,2	8	1	1	1	1	1	1	1	1	1	0	1	-5,567301	273,493291	311,659424	0
15.01.2021	06:48:53	0	0	3,163589	1,809	24,7068	-0,4	85,474	0	1011,28	6,2	8,2	8	1	1	1	1	1	1	1	1	1	0	1	-1,832276	273,452845	315,206837	0
15.01.2021	06:48:54	0	0	4,180431	1,7745	23,9688	-0,398	85,465	0	1011,3	6,1	8,2	8,1	1	1	1	1	1	1	1	1	1	0	1	-6,906272	273,559923	310,629714	0
15.01.2021	06:48:55	0	0	4,406427	1,8	17,2368	-0,396	85,458	0	1011,32	6,2	8,2	8	1	1	1	1	1	1	1	1	1	0	1	-6,20155	273,603503	311,536829	0
15.01.2021	06:48:56	0	0	3,050585	1,87725	350,7192	-0,4	85,468	0	1011,2	6,2	8,2	8,1	1	1	1	1	1	1	1	1	1	0	1	-1,550388	273,475947	315,595874	0
15.01.2021	06:48:57	0	0	4,858339	2,028	4,0824	-0,396	85,465	0	1011,46	6,1	8,2	8,1	1	1	1	1	1	1	1	1	1	0	1	-1,832276	273,552669	315,670031	0
15.01.2021	06:48:58	0	0	4,293442	1,992	1,926	-0,401	85,478	0	1011,44	6,1	8,2	8	1	1	1	1	1	1	1	1	1	0	1	-3,030303	273,431213	313,9085	0
15.01.2021	06:48:59	0	0	2,937618	1,9365	11,196	-0,403	85,462	0	1011,34	6,2	8,2	8	1	1	1	1	1	1	1	1	1	0	1	-0,140944	273,512098	317,173049	0
15.01.2021	06:49:00	0	0	2,485677	1,81875	13,1652	-0,397	85,475	0	1011,44	6,2	8,2	8	1	1	1	1	1	1	1	1	1	0	1	-1,691332	273,471613	315,434827	0
15.01.2021	06:49:01	0	0	2,485677	1,81875	13,1652	-0,397	85,475	0	1011,44	6,2	8,2	8	1	1	1	1	1	1	1	1	1	0	1	-1,691332	273,471613	315,434827	0
15.01.2021	06:49:02	0	0	3,728515	1,78725	21,0888	-0,4	85,48	0	1011,48	6,2	8,2	8	1	1	1	1	1	1	1	1	1	0	1	-1,268499	273,542518	316,186685	0
15.01.2021	06:49:03	0	0	2,824616	1,713	19,8972	-0,403	85,46	0	1011,28	6,2	8,2	8,1	1	1	1	1	1	1	1	1	1	0	1	-0,352361	273,421126	316,539678	0
15.01.2021	06:49:04	0	0	4,971354	1,77375	11,7144	-0,398	85,456	0	1011,3	6,2	8,2	8	1	1	1	1	1	1	1	1	1	0	1	-3,875969	273,575891	313,734163	0
15.01.2021	06:49:05	0	0	2,372692	1,92075	8,2764	-0,403	85,476	0	1011,46	6,2	8,1	8	1	1	1	1	1	1	1	1	1	0	1	-2,114165	273,418245	314,764518	0
15.01.2021	06:49:06	0	0	3,502545	1,92525	12,5712	-0,404	85,459	0	1011,42	6,2	8,2	8	1	1	1	1	1	1	1	1	1	0	1	-2,466526	273,591872	315,217828	0
15.01.2021	06:49:07	0	0	4,858368	1,98375	19,5444	-0,396	85,48	0	1011,42	6,1	8,1	8	1	1	1	1	1	1	1	1	1	0	1	-5,990134	273,551219	311,50544	0
15.01.2021	06:49:08	0	0	2,937618	2,11275	19,9008	-0,404	85,469	0	1011,42	6,1	8,2	8	1	1	1	1	1	1	1	1	1	0	1	-1,902748	273,607867	315,855901	0
15.01.2021	06:49:09	0	0	3,389559	2,19075	30,3264	-0,404	85,457	0	1011,36	6,2	8,2	8	1	1	1	1	1	1	1	1	1	0	1	-0	273,493291	317,226725	0
15.01.2021	06:49:10	0	0	2,372692	2,32725	18,0972	-0,395	85,485	0	1011,5	6,2	8,1	8	1	1	1	1	1	1	1	1	1	0	1	-2,255109	273,581701	315,382004	0
15.01.2021	06:49:11	0	0	5,423295	2,394	28,7172	-0,401	85,478	0	1011,34	6,1	8,2	8	1	1	1	1	1	1	1	1	1	0	1	-6,624383	273,574439	310,979005	0
15.01.2021	06:49:12	0	0	4,180431	2,3925	16,8588	-0,397	85,481	0	1011,38	6,1	8,2	8,1	1	1	1	1	1	1	1	1	1	0	1	-2,184637	273,53817	315,25036	0
15.01.2021	06:49:13	0	0	3,389559	2,2875	23,9724	-0,398	85,48	0	1011,42	6,2	8,2	8	1	1	1	1	1	1	1	1	1	0	1	-6,8358	273,612231	310,943125	0
15.01.2021	06:49:14	0	0	3,276574	2,24475	15,7824	-0,4	85,472	0	1011,4	6,1	8,2	8	1	1	1	1	1	1	1	1	1	0	1	-6,8358	273,543968	310,626114	0
15.01.2021	06:49:15	0	0	3,61553	2,205	22,4856	-0,395	85,481	0	1011,52	6,2	8,2	8	1	1	1	1	1	1	1	1	1	0	1	-5,567301	273,429772	311,36482	0
15.01.2021	06:49:16	0	0	2,9376	2,23875	8,262	-0,395	85,487	0	1011,46	6,2	8,2	8,1	1	1	1	1	1	1	1	1	1	0	1	-1,409443	273,532373	315,998647	0
15.01.2021	06:49:17	0	0	3,050585	2,361	28,71	-0,395	85,488	0	1011,46	6,1	8,2	8,1	1	1	1	1	1	1	1	1	1	0	1	-4,792107	273,607867	312,966542	0
15.01.2021	06:49:18	0	0	3,050585	2,463	13,536	-0,397	85,482	0	1011,44	6,2	8,2	8,1	1	1	1	1	1	1	1	1	1	0	1	-1,409443	273,454288	315,636362	0
15.01.2021	06:49:19	0	0	3,61553	2,529	1,5588	-0,396	85,472	0	1011,44	6,1	8,2	8	1	1	1	1	1	1	1	1	1	0	1	-3,100775	273,484617	314,085707	0
15.01.2021	06:49:20	0	0	2,937618	2,553	14,6484	-0,398	85,479	0	1011,6	6,2	8,2	8	1	1	1	1	1	1	1	1	1	0	1	-5,567301	273,607867	312,191348	0
15.01.2021	06:49:21	0	0	4,293416	2,51925	12,1968	-0,402	85,468	0	1011,38	6,2	8,2	8,1	1	1	1	1	1	1	1	1	1	0	1	-3,59408	273,545418	313,874564	0
15.01.2021	06:49:22	0	0	4,63237	2,787	3,402	-0,4	85,466	0	1011,22	6,2	8,2	8,1	1	1	1	1	1	1	1	1	1	0	1	-3,664553	273,587513	313,999551	0
15.01.2021	06:49:23	0	0	4,519412	3,0345	2,6604	-0,399	85,471	0	1011,42	6,1	8,2	8	1	1	1	1	1	1	1	1	1	0	1	-6,342495	273,568631	311,233925	0
15.01.2021	06:49:24	0	0	4,858368	3,30375	3,7764	-0,402	85,476	0	1011,38	6,1	8,2	8	1	1	1	1	1	1	1	1	1	0	1	-1,832276	273,441305	315,153321	0
15.01.2021	06:49:25	0	0	5,084339	3,40875	6,8256	-0,394	85,472	0	1011,32	6,2	8,2	8	1	1	1	1	1	1	1	1	1	0	1	-5,426357	273,577343	312,19052	0
15.01.2021	06:49:26	0	0	3,615508	3,40125	6,444	-0,402	85,472	0	1011,44	6,2	8,2	8,1	1	1	1	1	1	1	1	1	1	0	1	-5,355884	273,574439	312,247504	0
15.01.2021	06:49:27	0	0	2,598662	3,30225	10,4616	-0,399	85,486	0	1011,36	6,2	8,2	8	1	1	1	1	1	1	1	1	1	0	1	-2,889359	273,478836	314,270307	0
15.01.2021	06:49:28	0	0	4,180456	2,97975	19,3932	-0,4	85,483	0	1011,4	6,2	8,2	8	1	1	1	1	1	1	1	1	1	0	1	-2,184637	273,603503	315,553742	0
15.01.2021	06:49:29	0	0	3,61553	2,78175	26,514	-0,402	85,474	0	1011,36	6,2	8,2	8	1	1	1	1	1	1	1	1	1	0	1	-4,087385	273,571535	313,502518	0
15.01.2021	06:49:30	0	0	4,293442	2,658	26,1936	-0,396	85,48	0	1011,38	6,1	8,1	8	1	1	1	1	1	1	1	1	1	0	1	-3,453136	273,571535	314,136767	0
15.01.2021	06:49:31	0	0	3,163589	2,75325	26,1648	-0,397	85,477	0	1011,5	6,2	8,2	8	1	1	1	1	1	1	1	1	1	0	1	-7,751938	273,429772	309,180183	0
15.01.2021	06:49:32	0	0	3,954462	2,70375	17,6868	-0,399	85,456	0	1011,42	6,1	8,2	8,1	1	1	1	1	1	1	1	1	1	0	1	-4,439746	273,510651	312,86753	0
15.01.2021	06:49:33	0	0	4,519412	2,547	19,5156	-0,397	85,482	0	1011,4	6,2	8,2	8	1	1	1	1	1	1	1	1	1	0	1	-6,412967	273,432654	310,53252	0
15.01.2021	06:49:34	0	0	4,067471	2,5545	12,0924	-0,392	85,482	0	1011,34	6,2	8,2	8	1	1	1	1	1	1	1	1	1	0	1	-9,513742	273,493291	307,712983	0
15.01.2021	06:49:35	0	0	3,841501	2,72625	8,6184	-0,4	85,474	0	1011,26	6,2	8,2	8	1	1	1	1	1	1	1	1	1	0	1	-9,090909	273,426889	307,827849	0
15.01.2021	06:49:36	0	0	4,971324	2,80875	10,8072	-0,401	85,478	0	1011,38	6,1	8,2	8,1	1	1	1	1	1	1	1	1	1	0	1	-7,751938	273,477391	309,401025	0
15.01.2021	06:49:37	0	0	4,858339	2,79075	19,53	-0,401	85,482	0	1011,48	6,2	8,2	8,1	1	1	1	1	1	1	1	1	1	0	1	-2,043693	273,565728	315,519247	0
15.01.2021	06:49:38	0	0	2,485677	2,811	20,6388	-0,402	85,463	0	1011,38	6,2	8,2	8	1	1	1	1	1	1	1	1	1	0	1	-3,805497	273,426889	313,113261	0
15.01.2021	06:49:39	0	0	2,937618	2,79075	11,2104	-0,396	85,471	0	1011,42	6,2	8,2	8	1	1	1	1	1	1	1	1	1	0	1	-6,412967	273,503416	310,860736	0
15.01.2021	06:49:40	0	0	4,971354	2,93025	10,818	-0,397	85,473	0	1011,5	6,2	8,2	8	1	1	1	1	1	1	1	1	1	0	1	-5,637773	273,606412	312,114119	0
15.01.2021	06:49:41	0	0	3,841478	2,847	17,6904	-0,398	85,488	0	1011,42	6,1	8,2	8,1	1	1	1	1	1	1	1	1	1	0	1	-3,030303	273,465836	314,069062	0
15.01.2021	06:49:42	0	0	4,745355	2,64675	8,37	-0,4	85,461	0	1011,56	6,2	8,2	8,1	1	1	1	1	1	1	1	1	1	0	1	-3,382664	273,568631	314,193756	0
15.01.2021	06:49:43	0	0	4,63237	2,37075	12,4812	-0,397	85,472	0	1011,34	6,1	8,2	8,1	1	1	1	1	1	1	1	1	1	0	1	-2,959831	273,596233	314,744777	0
15.01.2021	06:49:44	0	0	2,824633	2,2725	12,852	-0,396	85,474	0	1011,5	6,2	8,2	8	1	1	1	1	1	1	1	1	1	0	1	-3,875969	273,491845	313,344047	0
15.01.2021	06:49:45	0	0	4,180456	2,50275	8,2692	-0,397	85,475	0	1011,42	6,2	8,2	8	1	1	1	1	1	1	1	1	1	0	1	-5,637773	273,439863	311,341138	0
15.01.2021	06:49:46	0	0	4,63237	2,58525	8,6112	-0,403	85,48	0	1011,28	6,2	8,2	8,1	1	1	1	1	1	1	1	1	1	0	1	-3,664553	273,493291	313,562172	0
15.01.2021	06:49:47	0	0	4,971354	2,80125	6,0732	-0,398	85,478	0	1011,5	6,2	8,2	8	1	1	1	1	1	1	1	1	1	0	1	-11,06413	273,436979	305,90141	0
15.01.2021	06:49:48	0	0	3,728515	2,97	6,8364	-0,397	85,487	0	1011,34	6,2	8,2	8	1	1	1	1	1	1	1	1	1	0	1	-4,933051	273,56718	312,636628	0
15.01.2021	06:49:49	0	0	4,180431	2,9685	5,2272	-0,395	85,475	0	1011,28	6,2	8,2	8,1	1	1	1	1	1	1	1	1	1	0	1	-4,651163	273,470169	312,468297	0
15.01.2021	06:49:50	0	0	4,63237	2,8845	5,2344	-0,403	85,468	0	1011,48	6,1	8,2	8,1	1	1	1	1	1	1	1	1	1	0	1	-4,22833	273,42833	312,697109	0
15.01.2021	06:49:51	0	0	2,711631	2,88225	9,018	-0,394	85,475	0	1011,44	6,1	8,1	8,1	1	1	1	1	1	1	1	1	1	0	1	-1,832276	273,574439	315,771112	0
15.01.2021	06:49:52	0	0	3,615508	3,0135	16,1136	-0,396	85,468	0	1011,38	6,1	8,2	8,1	1	1	1	1	1	1	1	1	1	0	1	-4,22833	273,619508	313,5844	0
15.01.2021	06:49:53	0	0	4,858339	2,9175	6,4512	-0,398	85,479	0	1011,46	6,2	8,2	8,1	1	1	1	1	1	1	1	1	1	0	1	-6,412967	273,465836	310,686398	0
15.01.2021	06:49:54	0	0	4,067447	2,78775	18,09	-0,402	85,475	0	1011,4	6,1	8,2	8,1	1	1	1	1	1	1	1	1	1	0	1	-8,315715	273,436979	308,649824	0
15.01.2021	06:49:55	0	0	4,180431	2,64	13,1724	-0,395	85,47	0	1011,36	6,2	8,2	8,1	1	1	1	1	1	1	1	1	1	0	1	-6,20155	273,570083	311,381611	0
15.01.2021	06:49:56	0	0	3,276554	2,5815	6,8328	-0,399	85,471	0	1011,44	6,1	8,2	8,1	1	1	1	1	1	1	1	1	1	0	1	-7,540521	273,439863	309,438389	0
15.01.2021	06:49:57	0	0	4,067447	2,74575	10,8216	-0,398	85,465	0	1011,38	6,1	8,2	8,1	1	1	1	1	1	1	1	1	1	0	1	-3,312192	273,421126	313,579847	0
15.01.2021	06:49:58	0	0	4,63237	2,79525	9,7596	-0,401	85,465	0	1011,32	6,2	8,2	8,1	1	1	1	1	1	1	1	1	1	0	1	-0	273,520785	317,354306	0
15.01.2021	06:49:59	0	0	3,841501	2,814	9,3744	-0,4	85,448	0	1011,52	6,1	8,2	8	1	1	1	1	1	1	1	1	1	0	1	-4,721635	273,588966	312,949218	0
15.01.2021	06:50:00	0	0	3,163589	2,7765	12,8772	-0,392	85,469	0	1011,5	6,1	8,2	8	1	1	1	1	1	1	1	1	1	0	1	-5,778717	273,517889	311,562148	0
15.01.2021	06:50:01	0	0	3,163589	2,7765	12,8772	-0,392	85,469	0	1011,5	6,1	8,2	8	1	1	1	1	1	1	1	1	1	0	1	-5,778717	273,517889	311,562148	0
15.01.2021	06:50:02	0	0	3,841501	2,727	6,0768	-0,399	85,473	0	1011,48	6,2	8,2	8	1	1	1	1	1	1	1	1	1	0	1	-5,919662	273,615142	311,872783	0
15.01.2021	06:50:03	0	0	3,050585	2,72175	9,0036	-0,402	85,462	0	1011,32	6,1	8,2	8,1	1	1	1	1	1	1	1	1	1	0	1	-11,275546	273,52513	306,098924	0
15.01.2021	06:50:04	0	0	3,389559	2,74125	9,3636	-0,396	85,464	0	1011,3	6,1	8,2	8	1	1	1	1	1	1	1	1	1	0	1	-7,540521	273,575891	310,069611	0
15.01.2021	06:50:05	0	0	3,389539	2,7645	6,0588	-0,397	85,456	0	1011,4	6,2	8,2	8,1	1	1	1	1	1	1	1	1	1	0	1	-7,470049	273,432654	309,475437	0
15.01.2021	06:50:06	0	0	4,519385	2,697	12,096	-0,403	85,463	0	1011,34	6,1	8,2	8,1	1	1	1	1	1	1	1	1	1	0	1	-7,399577	273,490399	309,813731	0
15.01.2021	06:50:07	0	0	2,259693	2,66175	13,536	-0,4	85,466	0	1011,38	6,2	8,2	8,1	1	1	1	1	1	1	1	1	1	0	1	-8,738548	273,447074	308,273802	0
15.01.2021	06:50:08	0	0	5,084308	2,769	7,1244	-0,395	85,464	0	1011,52	6,1	8,2	8,1	1	1	1	1	1	1	1	1	1	0	1	-9,795631	273,56718	307,774049	0
15.01.2021	06:50:09	0	0	4,63237	2,8575	8,28	-0,397	85,473	0	1011,46	6,1	8,2	8,1	1	1	1	1	1	1	1	1	1	0	1	-6,412967	273,487508	310,786927	0
15.01.2021	06:50:10	0	0	4,519412	2,8005	15,3972	-0,394	85,457	0	1011,46	6,1	8,2	8	1	1	1	1	1	1	1	1	1	0	1	-2,114165	273,434096	314,838005	0
15.01.2021	06:50:11	0	0	2,824616	2,69625	3,0348	-0,404	85,461	0	1011,42	6,1	8,2	8,1	1	1	1	1	1	1	1	1	1	0	1	-4,580691	273,471613	312,545469	0
15.01.2021	06:50:12	0	0	5,084308	2,61225	8,2548	-0,398	85,463	0	1011,3	6,2	8,2	8,1	1	1	1	1	1	1	1	1	1	0	1	-1,057082	273,507757	316,236763	0
15.01.2021	06:50:13	0	0	3,050603	2,58075	0,1332	-0,396	85,468	0	1011,6	6,1	8,2	8	1	1	1	1	1	1	1	1	1	0	1	-9,302326	273,612231	308,476599	0
15.01.2021	06:50:14	0	0	4,067471	2,57475	8,9964	-0,405	85,453	0	1011,44	6,1	8,2	8	1	1	1	1	1	1	1	1	1	0	1	-8,45666	273,565728	309,10628	0
15.01.2021	06:50:15	0	0	2,485662	2,43075	21,3876	-0,402	85,45	0	1011,54	6,1	8,2	8,1	1	1	1	1	1	1	1	1	1	0	1	-8,597604	273,473057	308,535255	0
15.01.2021	06:50:16	0	0	3,276554	2,32575	15,3972	-0,403	85,457	0	1011,5	6,1	8,2	8,1	1	1	1	1	1	1	1	1	1	0	1	-6,272023	273,419685	310,613338	0
15.01.2021	06:50:17	0	0	4,858339	2,38125	12,852	-0,397	85,459	0	1011,42	6,1	8,2	8,1	1	1	1	1	1	1	1	1	1	0	1	-5,990134	273,490399	311,223174	0
15.01.2021	06:50:18	0	0	3,502524	2,4015	13,1652	-0,399	85,461	0	1011,42	6,1	8,2	8,1	1	1	1	1	1	1	1	1	1	0	1	-3,523608	273,431213	313,415195	0
15.01.2021	06:50:19	0	0	5,084339	2,4645	7,8876	-0,403	85,451	0	1011,36	6,1	8,2	8	1	1	1	1	1	1	1	1	1	0	1	-0,140944	273,542518	317,314239	0
15.01.2021	06:50:20	0	0	4,745355	2,47125	13,9212	-0,391	85,458	0	1011,52	6,1	8,2	8,1	1	1	1	1	1	1	1	1	1	0	1	-3,100775	273,438421	313,87145	0
15.01.2021	06:50:21	0	0	3,841501	2,41725	5,2164	-0,401	85,459	0	1011,5	6,1	8,2	8	1	1	1	1	1	1	1	1	1	0	1	-5,073996	273,607867	312,684653	0
15.01.2021	06:50:22	0	0	4,406427	2,3925	11,1996	-0,401	85,454	0	1011,38	6,1	8,2	8	1	1	1	1	1	1	1	1	1	0	1	-3,100775	273,523681	314,266973	0
15.01.2021	06:50:23	0	0	3,728493	2,3715	8,6184	-0,4	85,438	0	1011,42	6,2	8,2	8,1	1	1	1	1	1	1	1	1	1	0	1	-3,312192	273,421126	313,579847	0
15.01.2021	06:50:24	0	0	2,937618	2,313	9	-0,4	85,453	0	1011,5	6,1	8,2	8	1	1	1	1	1	1	1	1	1	0	1	-6,8358	273,468724	310,276961	0
15.01.2021	06:50:25	0	0	5,084339	2,20875	13,5504	-0,4	85,452	0	1011,56	6,1	8,2	8	1	1	1	1	1	1	1	1	1	0	1	-5,21494	273,565728	312,347999	0
15.01.2021	06:50:26	0	0	4,63237	2,1945	10,152	-0,404	85,441	0	1011,46	6,1	8,2	8,1	1	1	1	1	1	1	1	1	1	0	1	-4,157858	273,606412	313,594034	0
15.01.2021	06:50:27	0	0	3,954462	2,26125	16,0956	-0,4	85,437	0	1011,46	6,2	8,2	8,1	1	1	1	1	1	1	1	1	1	0	1	-7,188161	273,516441	310,145986	0
15.01.2021	06:50:28	0	0	4,519412	2,35275	3,3948	-0,401	85,443	0	1011,5	6,1	8,2	8	1	1	1	1	1	1	1	1	1	0	1	-4,087385	273,562825	313,462076	0
15.01.2021	06:50:29	0	0	4,63237	2,39775	12,0996	-0,405	85,448	0	1011,22	6,1	8,2	8,1	1	1	1	1	1	1	1	1	1	0	1	-7,117689	273,604958	310,627447	0
15.01.2021	06:50:30	0	0	5,084339	2,2155	19,908	-0,398	85,465	0	1011,42	6,2	8,2	8	1	1	1	1	1	1	1	1	1	0	1	-10,42988	273,542518	307,025304	0
15.01.2021	06:50:31	0	0	3,050585	2,07	9,7524	-0,402	85,447	0	1011,36	6,2	8,2	8,1	1	1	1	1	1	1	1	1	1	0	1	-5,285412	273,572987	312,311233	0
15.01.2021	06:50:32	0	0	4,63237	2,0145	18,0864	-0,397	85,461	0	1011,36	6,1	8,2	8,1	1	1	1	1	1	1	1	1	1	0	1	-5,144468	273,441305	311,84113	0
15.01.2021	06:50:33	0	0	4,63237	2,067	17,7732	-0,399	85,448	0	1011,42	6,1	8,2	8,1	1	1	1	1	1	1	1	1	1	0	1	-5,21494	273,491845	312,005076	0
15.01.2021	06:50:34	0	0	3,16357	2,0115	25,0416	-0,4	85,436	0	1011,42	6,1	8,2	8,1	1	1	1	1	1	1	1	1	1	0	1	-5,778717	273,434096	311,173453	0
15.01.2021	06:50:35	0	0	4,406427	1,9485	20,2752	-0,4	85,453	0	1011,4	6,1	8,2	8	1	1	1	1	1	1	1	1	1	0	1	-3,100775	273,587513	314,563329	0
15.01.2021	06:50:36	0	0	2,9376	1,87875	25,0308	-0,393	85,452	0	1011,44	6,1	8,2	8,1	1	1	1	1	1	1	1	1	1	0	1	-8,668076	273,490399	308,545232	0
15.01.2021	06:50:37	0	0	3,728493	1,767	23,8212	-0,399	85,446	0	1011,44	6,1	8,2	8,1	1	1	1	1	1	1	1	1	1	0	1	-8,45666	273,602049	309,274964	0
15.01.2021	06:50:38	0	0	2,9376	1,68075	11,1924	-0,399	85,447	0	1011,42	6,1	8,2	8,1	1	1	1	1	1	1	1	1	1	0	1	-3,030303	273,475947	314,115958	0
15.01.2021	06:50:39	0	0	4,067447	1,725	9,3708	-0,398	85,443	0	1011,46	6,1	8,2	8,1	1	1	1	1	1	1	1	1	1	0	1	-4,369274	273,597687	313,342087	0
15.01.2021	06:50:40	0	0	4,519412	1,79475	15,4152	-0,403	85,444	0	1011,44	6,1	8,2	8	1	1	1	1	1	1	1	1	1	0	1	-4,933051	273,432654	312,012435	0
15.01.2021	06:50:41	0	0	3,615508	1,82925	1,1304	-0,395	85,438	0	1011,38	6,1	8,2	8,1	1	1	1	1	1	1	1	1	1	0	1	-5,708245	273,535271	311,713297	0
15.01.2021	06:50:42	0	0	4,180431	1,73775	15,498	-0,395	85,448	0	1011,44	6,1	8,2	8,1	1	1	1	1	1	1	1	1	1	0	1	-0,98661	273,606412	316,765282	0
15.01.2021	06:50:43	0	0	2,598647	1,77825	10,062	-0,398	85,435	0	1011,48	6,2	8,2	8,1	1	1	1	1	1	1	1	1	1	0	1	-0,775194	273,455731	316,277304	0
15.01.2021	06:50:44	0	0	2,711631	1,7415	22,8312	-0,403	85,45	0	1011,44	6,1	8,2	8,1	1	1	1	1	1	1	1	1	1	0	1	-4,933051	273,488953	312,273549	0
15.01.2021	06:50:45	0	0	3,728493	1,81425	14,3028	-0,395	85,443	0	1011,22	6,2	8,1	8,1	1	1	1	1	1	1	1	1	1	0	1	-4,862579	273,590419	312,815023	0
15.01.2021	06:50:46	0	0	4,293416	1,86525	8,244	-0,405	85,449	0	1011,36	6,1	8,2	8,1	1	1	1	1	1	1	1	1	1	0	1	-8,245243	273,509204	309,055317	0
15.01.2021	06:50:47	0	0	4,63237	1,824	9,7524	-0,398	85,457	0	1011,22	6,2	8,2	8,1	1	1	1	1	1	1	1	1	1	0	1	-5,426357	273,451402	311,606065	0
15.01.2021	06:50:48	0	0	3,389539	1,8375	3,3948	-0,4	85,45	0	1011,5	6,1	8,2	8,1	1	1	1	1	1	1	1	1	1	0	1	-6,20155	273,532373	311,20654	0
15.01.2021	06:50:49	0	0	2,598647	1,872	11,1852	-0,404	85,431	0	1011,38	6,1	8,2	8,1	1	1	1	1	1	1	1	1	1	0	1	-1,550388	273,435537	315,408467	0
15.01.2021	06:50:50	0	0	4,63237	1,902	15,7896	-0,399	85,454	0	1011,48	6,1	8,2	8,1	1	1	1	1	1	1	1	1	1	0	1	-2,396054	273,581701	315,241059	0
15.01.2021	06:50:51	0	0	2,711631	1,94925	10,4472	-0,4	85,451	0	1011,5	6,1	8,2	8,1	1	1	1	1	1	1	1	1	1	0	1	-3,946441	273,490399	313,266867	0
15.01.2021	06:50:52	0	0	4,63237	1,8765	16,47	-0,396	85,434	0	1011,38	6,1	8,2	8,1	1	1	1	1	1	1	1	1	1	0	1	-5,919662	273,602049	311,811962	0
15.01.2021	06:50:53	0	0	4,63237	1,95	16,0992	-0,404	85,445	0	1011,48	6,1	8,2	8,1	1	1	1	1	1	1	1	1	1	0	1	-9,161381	273,55412	308,347661	0
15.01.2021	06:50:54	0	0	3,502524	2,2305	9,3708	-0,397	85,453	0	1011,44	6,1	8,2	8,1	1	1	1	1	1	1	1	1	1	0	1	-1,691332	273,451402	315,34109	0
15.01.2021	06:50:55	0	0	2,9376	2,4795	360	-0,4	85,457	0	1011,24	6,1	8,2	8,1	1	1	1	1	1	1	1	1	1	0	1	-3,523608	273,597687	314,187753	0
15.01.2021	06:50:56	0	0	1,920739	2,5095	19,5264	-0,403	85,458	0	1011,34	6,1	8,2	8,1	1	1	1	1	1	1	1	1	1	0	1	-6,694856	273,501969	310,572134	0
15.01.2021	06:50:57	0	0	3,615508	2,31975	12,0996	-0,402	85,458	0	1011,38	6,1	8,2	8,1	1	1	1	1	1	1	1	1	1	0	1	-0	273,435537	316,958854	0
15.01.2021	06:50:58	0	0	4,519385	2,22	10,8072	-0,393	85,515	0	1011,5	6,1	8,2	8,1	1	1	1	1	1	1	1	1	1	0	1	-4,933051	273,434096	312,019119	0
15.01.2021	06:50:59	0	0	3,389539	2,27175	7,5276	-0,399	85,442	0	1011,34	6,1	8,2	8,1	1	1	1	1	1	1	1	1	1	0	1	-2,114165	273,53817	315,320832	0
15.01.2021	06:51:00	0	0	4,745355	2,32125	17,6976	-0,397	85,448	0	1011,28	6,1	8,2	8,1	1	1	1	1	1	1	1	1	1	0	1	-4,580691	273,546868	312,894685	0
15.01.2021	06:51:01	0	0	4,745355	2,32125	17,6976	-0,397	85,448	0	1011,28	6,1	8,2	8,1	1	1	1	1	1	1	1	1	1	0	1	-4,580691	273,546868	312,894685	0
15.01.2021	06:51:02	0	0	4,745383	2,53875	21,7764	-0,404	85,451	0	1011,46	6,2	8,2	8	1	1	1	1	1	1	1	1	1	0	1	-0,281889	273,559923	317,254097	0
15.01.2021	06:51:03	0	0	4,63237	2,9325	14,2848	-0,4	85,451	0	1011,36	6,1	8,2	8,1	1	1	1	1	1	1	1	1	1	0	1	-7,540521	273,588966	310,130331	0
15.01.2021	06:51:04	0	0	3,050585	3,195	13,5432	-0,396	85,453	0	1011,36	6,1	8,2	8,1	1	1	1	1	1	1	1	1	1	0	1	-4,580691	273,455731	312,471808	0
15.01.2021	06:51:05	0	0	2,824616	3,381	5,67	-0,404	85,456	0	1011,46	6,1	8,2	8,1	1	1	1	1	1	1	1	1	1	0	1	-1,973221	273,449959	315,05251	0
15.01.2021	06:51:06	0	0	3,728493	3,603	3,7368	-0,401	85,438	0	1011,5	6,1	8,2	8,1	1	1	1	1	1	1	1	1	1	0	1	-1,127555	273,413924	315,731099	0
15.01.2021	06:51:07	0	0	4,406401	3,46725	18,8532	-0,401	85,446	0	1011,56	6,1	8,2	8,1	1	1	1	1	1	1	1	1	1	0	1	-6,342495	273,541069	311,10596	0
15.01.2021	06:51:08	0	0	4,067471	3,28425	22,0824	-0,4	85,461	0	1011,44	6,2	8,2	8	1	1	1	1	1	1	1	1	1	0	1	-6,20155	273,557021	311,320962	0
15.01.2021	06:51:09	0	0	4,858339	3,12825	17,712	-0,409	85,455	0	1011,4	6,1	8,2	8,1	1	1	1	1	1	1	1	1	1	0	1	-6,8358	273,438421	310,136425	0
15.01.2021	06:51:10	0	0	3,050585	2,94	20,6352	-0,402	85,457	0	1011,42	6,1	8,2	8,1	1	1	1	1	1	1	1	1	1	0	1	-3,24172	273,455731	313,810779	0
15.01.2021	06:51:11	0	0	3,16357	2,877	15,7896	-0,401	85,457	0	1011,52	6,1	8,2	8,1	1	1	1	1	1	1	1	1	1	0	1	-4,157858	273,424007	312,74754	0
15.01.2021	06:51:12	0	0	3,276554	2,74875	25,0524	-0,397	85,456	0	1011,46	6,2	8,2	8,1	1	1	1	1	1	1	1	1	1	0	1	-6,20155	273,449959	310,82418	0
15.01.2021	06:51:13	0	0	2,9376	2,7555	11,7252	-0,395	85,453	0	1011,38	6,1	8,2	8,1	1	1	1	1	1	1	1	1	1	0	1	-5,990134	273,486062	311,203054	0
15.01.2021	06:51:14	0	0	4,519412	2,745	15,5124	-0,394	85,469	0	1011,38	6,1	8,2	8	1	1	1	1	1	1	1	1	1	0	1	-0,916138	273,596233	316,78847	0
15.01.2021	06:51:15	0	0	3,841478	2,66925	12,4704	-0,395	85,468	0	1011,42	6,1	8,2	8,1	1	1	1	1	1	1	1	1	1	0	1	-2,959831	273,436979	314,005709	0
15.01.2021	06:51:16	0	0	3,61553	2,6175	16,488	-0,395	85,453	0	1011,44	6,1	8,2	8	1	1	1	1	1	1	1	1	1	0	1	-4,651163	273,549768	312,837678	0
15.01.2021	06:51:17	0	0	2,598647	2,64225	4,0896	-0,396	85,45	0	1011,5	6,1	8,2	8,1	1	1	1	1	1	1	1	1	1	0	1	-6,765328	273,461505	310,313948	0
15.01.2021	06:51:18	0	0	3,841501	2,6205	18,0864	-0,395	85,462	0	1011,42	6,1	8,2	8	1	1	1	1	1	1	1	1	1	0	1	-3,523608	273,454288	313,522197	0
15.01.2021	06:51:19	0	0	3,728493	2,595	17,7012	-0,405	85,449	0	1011,54	6,1	8,2	8,1	1	1	1	1	1	1	1	1	1	0	1	-5,496829	273,431213	311,441975	0
15.01.2021	06:51:20	0	0	3,615508	2,64675	12,1104	-0,395	85,448	0	1011,44	6,1	8,2	8,1	1	1	1	1	1	1	1	1	1	0	1	-3,664553	273,519337	313,683033	0
15.01.2021	06:51:21	0	0	4,745383	2,69775	21,7764	-0,4	85,436	0	1011,38	6,1	8,2	8	1	1	1	1	1	1	1	1	1	0	1	-4,298802	273,445632	312,70686	0
15.01.2021	06:51:22	0	0	4,406401	2,63025	6,1776	-0,389	85,463	0	1011,46	6,1	8,2	8,1	1	1	1	1	1	1	1	1	1	0	1	-3,100775	273,451402	313,931647	0
15.01.2021	06:51:23	0	0	4,067471	2,658	10,062	-0,401	85,445	0	1011,44	6,1	8,2	8	1	1	1	1	1	1	1	1	1	0	1	-4,439746	273,53817	312,995251	0
15.01.2021	06:51:24	0	0	4,745355	2,63475	5,22	-0,397	85,451	0	1011,46	6,1	8,2	8,1	1	1	1	1	1	1	1	1	1	0	1	-1,62086	273,424007	315,284537	0
15.01.2021	06:51:25	0	0	2,711631	2,63025	7,8732	-0,399	85,438	0	1011,52	6,1	8,2	8,1	1	1	1	1	1	1	1	1	1	0	1	-6,483439	273,419685	310,401922	0
15.01.2021	06:51:26	0	0	4,293416	2,52675	7,128	-0,402	85,448	0	1011,36	6,2	8,2	8,1	1	1	1	1	1	1	1	1	1	0	1	-4,862579	273,491845	312,357437	0
15.01.2021	06:51:27	0	0	4,971324	2,484	14,31	-0,401	85,46	0	1011,46	6,2	8,2	8,1	1	1	1	1	1	1	1	1	1	0	1	-6,765328	273,600595	310,959541	0
15.01.2021	06:51:28	0	0	3,389539	2,472	24,7212	-0,394	85,461	0	1011,46	6,1	8,2	8,1	1	1	1	1	1	1	1	1	1	0	1	-7,892882	273,509204	309,407678	0
15.01.2021	06:51:29	0	0	3,728493	2,391	17,2476	-0,399	85,449	0	1011,32	6,1	8,2	8,1	1	1	1	1	1	1	1	1	1	0	1	-5,003524	273,591872	312,68083	0
15.01.2021	06:51:30	0	0	3,276554	2,3835	15,408	-0,393	85,453	0	1011,46	6,1	8,2	8,1	1	1	1	1	1	1	1	1	1	0	1	-2,959831	273,468724	314,15293	0
15.01.2021	06:51:31	0	0	5,310278	2,31975	33,2712	-0,399	85,447	0	1011,34	6,1	8,2	8,1	1	1	1	1	1	1	1	1	1	0	1	-7,540521	273,549768	309,948319	0
15.01.2021	06:51:32	0	0	2,598662	2,2425	30,6972	-0,396	85,455	0	1011,52	6,1	8,2	8	1	1	1	1	1	1	1	1	1	0	1	-3,735025	273,436979	313,230515	0
15.01.2021	06:51:33	0	0	4,971324	2,04	15,03	-0,392	85,46	0	1011,48	6,2	8,2	8,1	1	1	1	1	1	1	1	1	1	0	1	-6,412967	273,516441	310,92118	0
15.01.2021	06:51:34	0	0	4,406401	1,97625	19,5156	-0,393	85,47	0	1011,4	6,1	8,2	8,1	1	1	1	1	1	1	1	1	1	0	1	-3,735025	273,602049	313,996599	0
15.01.2021	06:51:35	0	0	5,197293	1,91925	12,8448	-0,394	85,465	0	1011,62	6,1	8,2	8,1	1	1	1	1	1	1	1	1	1	0	1	-5,496829	273,586059	312,160526	0
15.01.2021	06:51:36	0	0	3,954462	2,022	19,5228	-0,398	85,463	0	1011,48	6,1	8,2	8,1	1	1	1	1	1	1	1	1	1	0	1	-1,973221	273,543968	315,488693	0
15.01.2021	06:51:37	0	0	4,745355	2,06475	18,4536	-0,396	85,453	0	1011,34	6,1	8,2	8,1	1	1	1	1	1	1	1	1	1	0	1	-10,641297	273,612231	307,137628	0
15.01.2021	06:51:38	0	0	3,389539	2,25	26,9064	-0,402	85,474	0	1011,46	6,1	8,2	8,1	1	1	1	1	1	1	1	1	1	0	1	-6,906272	273,543968	310,555642	0
15.01.2021	06:51:39	0	0	2,598647	2,3925	27,9792	-0,397	85,437	0	1011,48	6,1	8,2	8,1	1	1	1	1	1	1	1	1	1	0	1	-3,664553	273,42833	313,260887	0
15.01.2021	06:51:40	0	0	3,389539	2,427	18,1692	-0,396	85,463	0	1011,44	6,1	8,2	8,1	1	1	1	1	1	1	1	1	1	0	1	-3,735025	273,543968	313,726889	0
15.01.2021	06:51:41	0	0	3,615508	2,31825	21,7692	-0,399	85,454	0	1011,58	6,1	8,2	8,1	1	1	1	1	1	1	1	1	1	0	1	-3,523608	273,586059	314,133747	0
15.01.2021	06:51:42	0	0	4,067447	2,256	19,1484	-0,401	85,441	0	1011,34	6,1	8,2	8,1	1	1	1	1	1	1	1	1	1	0	1	-9,231853	273,590419	308,445749	0
15.01.2021	06:51:43	0	0	3,728515	2,112	12,8592	-0,398	85,452	0	1011,52	6,1	8,2	8	1	1	1	1	1	1	1	1	1	0	1	-6,765328	273,510651	310,541949	0
15.01.2021	06:51:44	0	0	4,406401	2,049	25,0308	-0,395	85,453	0	1011,46	6,2	8,2	8,1	1	1	1	1	1	1	1	1	1	0	1	-5,073996	273,471613	312,052163	0
15.01.2021	06:51:45	0	0	2,824616	2,02275	21,0132	-0,391	85,455	0	1011,5	6,1	8,2	8,1	1	1	1	1	1	1	1	1	1	0	1	-4,862579	273,42833	312,06286	0
15.01.2021	06:51:46	0	0	3,276554	1,9755	12,8412	-0,395	85,454	0	1011,46	6,1	8,2	8,1	1	1	1	1	1	1	1	1	1	0	1	-4,933051	273,491845	312,286965	0
15.01.2021	06:51:47	0	0	3,841478	1,97775	15,4116	-0,396	85,453	0	1011,48	6,1	8,2	8,1	1	1	1	1	1	1	1	1	1	0	1	-2,043693	273,439863	314,935218	0
15.01.2021	06:51:48	0	0	3,728493	1,9665	8,2692	-0,393	85,45	0	1011,44	6,1	8,2	8,1	1	1	1	1	1	1	1	1	1	0	1	-9,44327	273,586059	308,214085	0
15.01.2021	06:51:49	0	0	2,824616	2,1075	17,6976	-0,39	85,455	0	1011,5	6,1	8,2	8,1	1	1	1	1	1	1	1	1	1	0	1	-5,355884	273,484617	311,830598	0
15.01.2021	06:51:50	0	0	4,519385	2,1465	17,6976	-0,392	85,451	0	1011,44	6,1	8,2	8,1	1	1	1	1	1	1	1	1	1	0	1	-6,131078	273,591872	311,553275	0
15.01.2021	06:51:51	0	0	3,16357	2,217	21,7692	-0,397	85,445	0	1011,34	6,1	8,2	8,1	1	1	1	1	1	1	1	1	1	0	1	-1,832276	273,53672	315,595993	0
15.01.2021	06:51:52	0	0	3,050585	2,298	24,7392	-0,394	85,453	0	1011,32	6,1	8,2	8,1	1	1	1	1	1	1	1	1	1	0	1	-2,818887	273,431213	314,119917	0
15.01.2021	06:51:53	0	0	3,502524	2,28225	12,096	-0,394	85,454	0	1011,38	6,1	8,2	8,1	1	1	1	1	1	1	1	1	1	0	1	-4,933051	273,458618	312,132834	0
15.01.2021	06:51:54	0	0	3,61553	2,2275	5,6844	-0,393	85,446	0	1011,58	6,1	8,2	8	1	1	1	1	1	1	1	1	1	0	1	-9,795631	273,461505	307,283645	0
15.01.2021	06:51:55	0	0	3,728493	2,229	19,5372	-0,393	85,432	0	1011,48	6,2	8,2	8,1	1	1	1	1	1	1	1	1	1	0	1	-7,540521	273,600595	310,184347	0
15.01.2021	06:51:56	0	0	3,050585	2,24025	13,9176	-0,39	85,455	0	1011,48	6,2	8,2	8,1	1	1	1	1	1	1	1	1	1	0	1	-4,298802	273,549768	313,190039	0
15.01.2021	06:51:57	0	0	4,858339	2,20425	9,3636	-0,397	85,443	0	1011,4	6,1	8,2	8,1	1	1	1	1	1	1	1	1	1	0	1	-4,933051	273,604958	312,812084	0
15.01.2021	06:51:58	0	0	3,954462	2,20875	15,7824	-0,4	85,442	0	1011,42	6,2	8,2	8,1	1	1	1	1	1	1	1	1	1	0	1	-7,047216	273,570083	310,535945	0
15.01.2021	06:51:59	0	0	4,293416	2,2245	16,1028	-0,394	85,444	0	1011,4	6,1	8,2	8,1	1	1	1	1	1	1	1	1	1	0	1	-7,681466	273,548318	309,800642	0
15.01.2021	06:52:00	0	0	4,63237	2,1825	20,6172	-0,394	85,454	0	1011,46	6,1	8,2	8,1	1	1	1	1	1	1	1	1	1	0	1	-2,889359	273,541069	314,559096	0
15.01.2021	06:52:01	0	0	4,63237	2,1825	20,6172	-0,394	85,454	0	1011,46	6,1	8,2	8,1	1	1	1	1	1	1	1	1	1	0	1	-2,889359	273,541069	314,559096	0
15.01.2021	06:52:02	0	0	3,16357	2,13075	358,4412	-0,393	85,453	0	1011,56	6,1	8,2	8,1	1	1	1	1	1	1	1	1	1	0	1	-4,369274	273,607867	313,389375	0
15.01.2021	06:52:03	0	0	3,389539	2,0565	3,0276	-0,392	85,455	0	1011,64	6,1	8,2	8,1	1	1	1	1	1	1	1	1	1	0	1	-0	273,419685	316,885361	0
15.01.2021	06:52:04	0	0	3,276574	2,00775	7,5132	-0,393	85,452	0	1011,38	6,1	8,2	8	1	1	1	1	1	1	1	1	1	0	1	-5,355884	273,483172	311,823893	0
15.01.2021	06:52:05	0	0	4,63237	1,96575	17,2332	-0,404	85,437	0	1011,34	6,1	8,2	8,1	1	1	1	1	1	1	1	1	1	0	1	-0,704722	273,600595	317,020147	0
15.01.2021	06:52:06	0	0	5,084308	1,9515	18,8316	-0,395	85,452	0	1011,7	6,1	8,2	8,1	1	1	1	1	1	1	1	1	1	0	1	-5,778717	273,603503	311,959662	0
15.01.2021	06:52:07	0	0	2,824616	1,9755	0	-0,39	85,452	0	1011,52	6,1	8,2	8,1	1	1	1	1	1	1	1	1	1	0	1	-1,198027	273,548318	316,284081	0
15.01.2021	06:52:08	0	0	4,63237	1,947	10,8216	-0,394	85,444	0	1011,44	6,1	8,2	8,1	1	1	1	1	1	1	1	1	1	0	1	-4,580691	273,431213	312,358113	0
15.01.2021	06:52:09	0	0	2,485662	2,0445	1,9224	-0,394	85,455	0	1011,42	6,1	8,2	8,1	1	1	1	1	1	1	1	1	1	0	1	-3,735025	273,562825	313,814437	0
15.01.2021	06:52:10	0	0	2,372677	2,15925	6,8184	-0,392	85,452	0	1011,46	6,1	8,2	8,1	1	1	1	1	1	1	1	1	1	0	1	-4,298802	273,596233	313,405806	0
15.01.2021	06:52:11	0	0	4,519385	2,3985	9,3636	-0,392	85,45	0	1011,48	6,1	8,2	8,1	1	1	1	1	1	1	1	1	1	0	1	-0	273,510651	317,307277	0
15.01.2021	06:52:12	0	0	4,971324	2,529	7,1316	-0,393	85,45	0	1011,5	6,1	8,2	8,1	1	1	1	1	1	1	1	1	1	0	1	-2,889359	273,599141	314,828756	0
15.01.2021	06:52:13	0	0	5,197293	2,523	22,0752	-0,392	85,458	0	1011,46	6,1	8,2	8,1	1	1	1	1	1	1	1	1	1	0	1	-5,990134	273,561374	311,552589	0
15.01.2021	06:52:14	0	0	4,745355	2,43675	15,7968	-0,394	85,446	0	1011,48	6,1	8,2	8,1	1	1	1	1	1	1	1	1	1	0	1	-0,422833	273,55412	317,086209	0
15.01.2021	06:52:15	0	0	3,728493	2,406	17,244	-0,398	85,443	0	1011,48	6,1	8,2	8,1	1	1	1	1	1	1	1	1	1	0	1	-4,298802	273,422567	312,599916	0
15.01.2021	06:52:16	0	0	2,485662	2,32725	10,4544	-0,393	85,453	0	1011,42	6,1	8,2	8,1	1	1	1	1	1	1	1	1	1	0	1	-0,845666	273,484617	316,340816	0
15.01.2021	06:52:17	0	0	3,050585	2,289	13,1724	-0,389	85,432	0	1011,4	6,1	8,2	8,1	1	1	1	1	1	1	1	1	1	0	1	-2,184637	273,488953	315,021964	0
15.01.2021	06:52:18	0	0	3,728493	2,1615	20,6532	-0,394	85,438	0	1011,36	6,1	8,2	8,1	1	1	1	1	1	1	1	1	1	0	1	-4,439746	273,612231	313,339178	0
15.01.2021	06:52:19	0	0	3,841478	2,007	22,8312	-0,398	85,434	0	1011,56	6,1	8,2	8,1	1	1	1	1	1	1	1	1	1	0	1	-2,114165	273,558472	315,415084	0
15.01.2021	06:52:20	0	0	2,824616	2,067	25,7976	-0,391	85,451	0	1011,48	6,1	8,2	8,1	1	1	1	1	1	1	1	1	1	0	1	-2,677942	273,586059	314,979413	0
15.01.2021	06:52:21	0	0	4,293416	2,0595	12,8484	-0,388	85,463	0	1011,52	6,2	8,2	8,1	1	1	1	1	1	1	1	1	1	0	1	-1,409443	273,594779	316,288413	0
15.01.2021	06:52:22	0	0	3,050585	2,1825	9,7452	-0,397	85,465	0	1011,46	6,1	8,2	8,1	1	1	1	1	1	1	1	1	1	0	1	-0,775194	273,475947	316,371068	0
15.01.2021	06:52:23	0	0	3,16357	2,2515	18,4608	-0,395	85,431	0	1011,48	6,2	8,2	8,1	1	1	1	1	1	1	1	1	1	0	1	-8,386187	273,481726	308,786885	0
15.01.2021	06:52:24	0	0	4,519385	2,34525	15,4044	-0,391	85,457	0	1011,4	6,2	8,2	8,1	1	1	1	1	1	1	1	1	1	0	1	-5,637773	273,439863	311,341138	0
15.01.2021	06:52:25	0	0	2,9376	2,277	13,5396	-0,394	85,443	0	1011,5	6,1	8,2	8,1	1	1	1	1	1	1	1	1	1	0	1	-4,933051	273,561374	312,609672	0
15.01.2021	06:52:26	0	0	4,63237	2,106	9,7488	-0,393	85,454	0	1011,58	6,1	8,2	8,1	1	1	1	1	1	1	1	1	1	0	1	-6,624383	273,603503	311,113996	0
15.01.2021	06:52:27	0	0	4,406401	1,9425	11,1924	-0,392	85,457	0	1011,36	6,1	8,2	8,1	1	1	1	1	1	1	1	1	1	0	1	-1,902748	273,571535	315,687155	0
15.01.2021	06:52:28	0	0	3,841478	1,905	17,6904	-0,389	85,435	0	1011,54	6,1	8,2	8,1	1	1	1	1	1	1	1	1	1	0	1	-6,342495	273,558472	311,186754	0
15.01.2021	06:52:29	0	0	4,519385	1,836	20,2896	-0,393	85,456	0	1011,5	6,1	8,2	8,1	1	1	1	1	1	1	1	1	1	0	1	-5,567301	273,584606	312,083306	0
15.01.2021	06:52:30	0	0	4,067447	1,82925	357,5772	-0,388	85,458	0	1011,28	6,1	8,2	8,1	1	1	1	1	1	1	1	1	1	0	1	-0,916138	273,533822	316,498678	0
15.01.2021	06:52:31	0	0	3,615508	1,94175	4,4748	-0,391	85,458	0	1011,46	6,1	8,2	8,1	1	1	1	1	1	1	1	1	1	0	1	-0	273,441305	316,985598	0
15.01.2021	06:52:32	0	0	4,63237	2,079	18,4536	-0,389	85,441	0	1011,44	6,1	8,2	8,1	1	1	1	1	1	1	1	1	1	0	1	-2,466526	273,575891	315,143606	0
15.01.2021	06:52:33	0	0	3,050585	2,13225	22,4532	-0,39	85,445	0	1011,34	6,1	8,2	8,1	1	1	1	1	1	1	1	1	1	0	1	-4,792107	273,478836	312,367559	0
15.01.2021	06:52:34	0	0	4,745355	2,253	18,0648	-0,387	85,444	0	1011,52	6,2	8,2	8,1	1	1	1	1	1	1	1	1	1	0	1	-5,003524	273,438421	311,968701	0
15.01.2021	06:52:35	0	0	4,293416	2,364	8,6112	-0,388	85,466	0	1011,52	6,2	8,2	8,1	1	1	1	1	1	1	1	1	1	0	1	-10,993658	273,586059	306,663698	0
15.01.2021	06:52:36	0	0	2,9376	2,439	29,5812	-0,391	85,455	0	1011,54	6,1	8,2	8,1	1	1	1	1	1	1	1	1	1	0	1	-3,382664	273,564277	314,173536	0
15.01.2021	06:52:37	0	0	3,502524	2,38275	19,9188	-0,398	85,455	0	1011,44	6,1	8,2	8,1	1	1	1	1	1	1	1	1	1	0	1	-2,396054	273,606412	315,355838	0
15.01.2021	06:52:38	0	0	2,9376	2,463	15,0228	-0,389	85,466	0	1011,46	6,1	8,2	8,1	1	1	1	1	1	1	1	1	1	0	1	-5,003524	273,528027	312,384393	0
15.01.2021	06:52:39	0	0	4,406401	2,4075	11,2068	-0,392	85,46	0	1011,56	6,1	8,2	8,1	1	1	1	1	1	1	1	1	1	0	1	-5,919662	273,429772	311,012459	0
15.01.2021	06:52:40	0	0	4,858339	2,14425	16,4628	-0,391	85,456	0	1011,5	6,1	8,2	8,1	1	1	1	1	1	1	1	1	1	0	1	-2,959831	273,593326	314,731273	0
15.01.2021	06:52:41	0	0	3,502524	2,02125	1,5588	-0,393	85,451	0	1011,48	6,1	8,2	8,1	1	1	1	1	1	1	1	1	1	0	1	-7,258633	273,523681	310,109115	0
15.01.2021	06:52:42	0	0	4,180431	2,10675	10,8072	-0,389	85,458	0	1011,38	6,1	8,2	8,1	1	1	1	1	1	1	1	1	1	0	1	-0,98661	273,607867	316,772039	0
15.01.2021	06:52:43	0	0	2,598647	2,19675	15,7788	-0,388	85,434	0	1011,48	6,1	8,2	8,1	1	1	1	1	1	1	1	1	1	0	1	-4,862579	273,471613	312,26358	0
15.01.2021	06:52:44	0	0	4,293416	2,11725	12,4704	-0,391	85,429	0	1011,34	6,1	8,2	8,1	1	1	1	1	1	1	1	1	1	0	1	-6,412967	273,501969	310,854023	0
15.01.2021	06:52:45	0	0	4,63237	2,0595	353,2104	-0,39	85,45	0	1011,56	6,1	8,2	8,1	1	1	1	1	1	1	1	1	1	0	1	-4,510218	273,593326	313,180886	0
15.01.2021	06:52:46	0	0	4,63237	2,103	3,0312	-0,391	85,458	0	1011,5	6,1	8,2	8,1	1	1	1	1	1	1	1	1	1	0	1	-0	273,561374	317,542723	0
15.01.2021	06:52:47	0	0	4,519385	2,16	7,1424	-0,391	85,463	0	1011,46	6,1	8,2	8,1	1	1	1	1	1	1	1	1	1	0	1	-3,946441	273,56718	313,623238	0
15.01.2021	06:52:48	0	0	3,389539	2,3205	2,646	-0,397	85,463	0	1011,42	6,2	8,2	8,1	1	1	1	1	1	1	1	1	1	0	1	-0,422833	273,457175	316,636359	0
15.01.2021	06:52:49	0	0	2,598647	2,38125	9,7452	-0,393	85,461	0	1011,4	6,1	8,2	8,1	1	1	1	1	1	1	1	1	1	0	1	-4,933051	273,435537	312,025803	0
15.01.2021	06:52:50	0	0	4,858339	2,292	356,7636	-0,39	85,476	0	1011,58	6,2	8,2	8,1	1	1	1	1	1	1	1	1	1	0	1	-0,98661	273,615142	316,805834	0
15.01.2021	06:52:51	0	0	4,180431	2,1345	4,0824	-0,396	85,443	0	1011,4	6,1	8,2	8,1	1	1	1	1	1	1	1	1	1	0	1	-4,087385	273,481726	313,085687	0
15.01.2021	06:52:52	0	0	4,519385	2,02275	356,508	-0,392	85,444	0	1011,42	6,2	8,2	8,1	1	1	1	1	1	1	1	1	1	0	1	-5,144468	273,464392	311,9482	0
15.01.2021	06:52:53	0	0	2,259693	2,0535	3,384	-0,402	85,453	0	1011,4	6,1	8,2	8,1	1	1	1	1	1	1	1	1	1	0	1	-1,127555	273,454288	315,918251	0
15.01.2021	06:52:54	0	0	4,971324	2,13525	347,562	-0,391	85,459	0	1011,58	6,1	8,2	8,1	1	1	1	1	1	1	1	1	1	0	1	-1,127555	273,512098	316,186439	0
15.01.2021	06:52:55	0	0	2,598647	2,115	357,1632	-0,395	85,462	0	1011,4	6,1	8,2	8,1	1	1	1	1	1	1	1	1	1	0	1	-2,959831	273,425448	313,952246	0
15.01.2021	06:52:56	0	0	4,180431	2,04675	9,3564	-0,39	85,455	0	1011,46	6,2	8,2	8,1	1	1	1	1	1	1	1	1	1	0	1	-4,22833	273,575891	313,381802	0
15.01.2021	06:52:57	0	0	3,502524	2,05875	6,0408	-0,392	85,461	0	1011,38	6,1	8,2	8,1	1	1	1	1	1	1	1	1	1	0	1	-3,946441	273,519337	313,401144	0
15.01.2021	06:52:58	0	0	3,276554	1,9935	17,226	-0,396	85,462	0	1011,4	6,1	8,2	8,1	1	1	1	1	1	1	1	1	1	0	1	-8,033827	273,588966	309,637026	0
15.01.2021	06:52:59	0	0	4,519385	2,325	18,4464	-0,392	85,445	0	1011,28	6,1	8,2	8,1	1	1	1	1	1	1	1	1	1	0	1	-2,677942	273,599141	315,040173	0
15.01.2021	06:53:00	0	0	3,841478	2,952	358,65	-0,393	85,441	0	1011,46	6,2	8,2	8,1	1	1	1	1	1	1	1	1	1	0	1	-4,22833	273,504863	313,052086	0
15.01.2021	06:53:01	0	0	4,406401	3,2565	0,8748	-0,391	85,461	0	1011,56	6,1	8,2	8,1	1	1	1	1	1	1	1	1	1	0	1	-4,22833	273,504863	313,052086	0
15.01.2021	06:53:02	0	0	4,406401	3,2565	0,8748	-0,391	85,461	0	1011,56	6,1	8,2	8,1	1	1	1	1	1	1	1	1	1	0	1	-4,933051	273,445632	312,07261	0
15.01.2021	06:53:03	0	0	4,180431	3,7185	9,756	-0,394	85,447	0	1011,52	6,2	8,2	8,1	1	1	1	1	1	1	1	1	1	0	1	-4,651163	273,449959	312,374568	0
15.01.2021	06:53:04	0	0	4,63237	3,9495	359,9172	-0,395	85,46	0	1011,44	6,1	8,2	8,1	1	1	1	1	1	1	1	1	1	0	1	-1,832276	273,565728	315,730663	0
15.01.2021	06:53:05	0	0	3,954462	4,04775	1,1808	-0,397	85,45	0	1011,34	6,2	8,2	8,1	1	1	1	1	1	1	1	1	1	0	1	-0,775194	273,56718	316,794486	0
15.01.2021	06:53:06	0	0	2,9376	3,861	14,3064	-0,392	85,466	0	1011,48	6,1	8,2	8,1	1	1	1	1	1	1	1	1	1	0	1	-5,355884	273,507757	311,937961	0
15.01.2021	06:53:07	0	0	4,293416	3,378	18,45	-0,396	85,446	0	1011,34	6,2	8,2	8,1	1	1	1	1	1	1	1	1	1	0	1	-3,805497	273,588966	313,865356	0
15.01.2021	06:53:08	0	0	3,615508	3,0135	26,1936	-0,395	85,461	0	1011,54	6,1	8,2	8,1	1	1	1	1	1	1	1	1	1	0	1	-0,493305	273,455731	316,559193	0
15.01.2021	06:53:09	0	0	4,293416	2,904	24,3504	-0,391	85,455	0	1011,48	6,1	8,2	8,1	1	1	1	1	1	1	1	1	1	0	1	-4,298802	273,468724	312,813959	0
15.01.2021	06:53:10	0	0	5,310278	2,93775	22,068	-0,398	85,441	0	1011,46	6,1	8,2	8,1	1	1	1	1	1	1	1	1	1	0	1	-6,412967	273,588966	311,257886	0
15.01.2021	06:53:11	0	0	4,406401	3,02625	13,9176	-0,392	85,457	0	1011,48	6,1	8,2	8,1	1	1	1	1	1	1	1	1	1	0	1	-1,832276	273,545418	315,636368	0
15.01.2021	06:53:12	0	0	3,389539	3,05625	9,756	-0,396	85,456	0	1011,5	6,1	8,2	8,1	1	1	1	1	1	1	1	1	1	0	1	-4,510218	273,425448	312,401859	0
15.01.2021	06:53:13	0	0	2,9376	2,94675	6,4332	-0,396	85,445	0	1011,5	6,1	8,2	8,1	1	1	1	1	1	1	1	1	1	0	1	-1,902748	273,464392	315,189919	0
15.01.2021	06:53:14	0	0	4,63237	2,90625	18,4464	-0,39	85,451	0	1011,4	6,1	8,2	8,1	1	1	1	1	1	1	1	1	1	0	1	-1,761804	273,480281	315,404565	0
15.01.2021	06:53:15	0	0	2,711631	2,86425	8,6148	-0,391	85,455	0	1011,48	6,1	8,2	8,1	1	1	1	1	1	1	1	1	1	0	1	-4,298802	273,434096	312,653368	0
15.01.2021	06:53:16	0	0	2,824616	2,7975	8,9964	-0,394	85,461	0	1011,44	6,2	8,2	8,1	1	1	1	1	1	1	1	1	1	0	1	-2,466526	273,468724	314,646235	0
15.01.2021	06:53:17	0	0	3,502524	2,55525	19,9116	-0,389	85,45	0	1011,46	6,1	8,2	8,1	1	1	1	1	1	1	1	1	1	0	1	-7,470049	273,491845	309,749967	0
15.01.2021	06:53:18	0	0	2,9376	2,3415	23,5836	-0,396	85,449	0	1011,48	6,1	8,2	8,1	1	1	1	1	1	1	1	1	1	0	1	-3,523608	273,594779	314,174248	0
15.01.2021	06:53:19	0	0	3,050585	2,42925	31,8672	-0,388	85,457	0	1011,58	6,1	8,2	8,1	1	1	1	1	1	1	1	1	1	0	1	-2,255109	273,464392	314,837559	0
15.01.2021	06:53:20	0	0	4,293416	2,4285	25,4016	-0,395	85,456	0	1011,56	6,1	8,2	8,1	1	1	1	1	1	1	1	1	1	0	1	-3,664553	273,583154	313,979307	0
15.01.2021	06:53:21	0	0	3,954462	2,31075	18,4572	-0,388	85,468	0	1011,62	6,1	8,2	8,1	1	1	1	1	1	1	1	1	1	0	1	-5,21494	273,597687	312,496421	0
15.01.2021	06:53:22	0	0	3,841478	2,2785	16,4772	-0,39	85,466	0	1011,56	6,1	8,2	8,1	1	1	1	1	1	1	1	1	1	0	1	-5,637773	273,543968	311,824141	0
15.01.2021	06:53:23	0	0	4,067447	2,31075	18,4464	-0,393	85,453	0	1011,32	6,1	8,2	8,1	1	1	1	1	1	1	1	1	1	0	1	-3,946441	273,607867	313,812208	0
15.01.2021	06:53:24	0	0	3,276554	2,4465	10,4472	-0,398	85,45	0	1011,48	6,1	8,2	8,1	1	1	1	1	1	1	1	1	1	0	1	-4,439746	273,513546	312,880964	0
15.01.2021	06:53:25	0	0	3,954462	2,57025	9,7524	-0,393	85,453	0	1011,44	6,1	8,2	8,1	1	1	1	1	1	1	1	1	1	0	1	-1,691332	273,557021	315,831181	0
15.01.2021	06:53:26	0	0	4,858339	2,85075	3,024	-0,387	85,461	0	1011,46	6,1	8,2	8,1	1	1	1	1	1	1	1	1	1	0	1	-5,708245	273,594779	311,989611	0
15.01.2021	06:53:27	0	0	3,728493	3,07275	360	-0,388	85,453	0	1011,48	6,1	8,2	8,1	1	1	1	1	1	1	1	1	1	0	1	-3,312192	273,496183	313,927952	0
15.01.2021	06:53:28	0	0	4,519385	3,1455	13,1688	-0,389	85,452	0	1011,46	6,1	8,2	8,1	1	1	1	1	1	1	1	1	1	0	1	-6,20155	273,594779	311,496306	0
15.01.2021	06:53:29	0	0	3,276554	3,0825	7,5096	-0,396	85,45	0	1011,42	6,1	8,2	8,1	1	1	1	1	1	1	1	1	1	0	1	-7,399577	273,454288	309,646228	0
15.01.2021	06:53:30	0	0	3,841478	3,0675	9,3456	-0,395	85,44	0	1011,46	6,2	8,2	8,1	1	1	1	1	1	1	1	1	1	0	1	-1,902748	273,50631	315,384382	0
15.01.2021	06:53:31	0	0	4,519385	2,97075	7,8948	-0,397	85,459	0	1011,44	6,2	8,2	8,1	1	1	1	1	1	1	1	1	1	0	1	-5,496829	273,590419	312,180774	0
15.01.2021	06:53:32	0	0	3,728493	2,946	7,128	-0,392	85,456	0	1011,42	6,1	8,2	8,1	1	1	1	1	1	1	1	1	1	0	1	-2,043693	273,432654	314,901794	0
15.01.2021	06:53:33	0	0	2,824616	2,72025	19,5192	-0,397	85,449	0	1011,5	6,2	8,2	8,1	1	1	1	1	1	1	1	1	1	0	1	-3,805497	273,46728	313,300566	0
15.01.2021	06:53:34	0	0	5,197293	2,67225	9,3744	-0,398	85,45	0	1011,66	6,2	8,2	8,1	1	1	1	1	1	1	1	1	1	0	1	-0,211416	273,549768	317,277424	0
15.01.2021	06:53:35	0	0	2,9376	2,9025	24,7284	-0,397	85,456	0	1011,44	6,1	8,2	8,1	1	1	1	1	1	1	1	1	1	0	1	-1,198027	273,447074	315,814324	0
15.01.2021	06:53:36	0	0	3,615508	2,8245	10,8144	-0,39	85,46	0	1011,52	6,2	8,2	8,1	1	1	1	1	1	1	1	1	1	0	1	-6,483439	273,431213	310,455364	0
15.01.2021	06:53:37	0	0	3,615508	2,87325	11,7252	-0,392	85,461	0	1011,5	6,1	8,2	8,1	1	1	1	1	1	1	1	1	1	0	1	-4,369274	273,493291	312,857451	0
15.01.2021	06:53:38	0	0	3,276554	2,99175	7,1316	-0,395	85,457	0	1011,48	6,2	8,2	8,1	1	1	1	1	1	1	1	1	1	0	1	-5,426357	273,46728	311,679706	0
15.01.2021	06:53:39	0	0	3,050585	2,94375	4,8456	-0,395	85,451	0	1011,42	6,1	8,2	8,1	1	1	1	1	1	1	1	1	1	0	1	-9,231853	273,452845	307,80726	0
15.01.2021	06:53:40	0	0	2,824616	2,859	10,0692	-0,389	85,463	0	1011,6	6,2	8,2	8,1	1	1	1	1	1	1	1	1	1	0	1	-4,721635	273,53672	312,706635	0
15.01.2021	06:53:41	0	0	4,067447	2,83125	24,354	-0,387	85,458	0	1011,3	6,2	8,2	8,1	1	1	1	1	1	1	1	1	1	0	1	-2,255109	273,431213	314,683694	0
15.01.2021	06:53:42	0	0	3,954462	2,72625	21,7764	-0,397	85,456	0	1011,5	6,2	8,2	8,1	1	1	1	1	1	1	1	1	1	0	1	-3,946441	273,442747	313,045844	0
15.01.2021	06:53:43	0	0	2,9376	2,802	10,0584	-0,398	85,444	0	1011,5	6,1	8,2	8,1	1	1	1	1	1	1	1	1	1	0	1	-5,355884	273,535271	312,065658	0
15.01.2021	06:53:44	0	0	3,276554	3,09075	15,7968	-0,387	85,459	0	1011,42	6,1	8,2	8,1	1	1	1	1	1	1	1	1	1	0	1	-8,104299	273,602049	309,627325	0
15.01.2021	06:53:45	0	0	5,084308	3,18825	19,9116	-0,389	85,46	0	1011,52	6,2	8,2	8,1	1	1	1	1	1	1	1	1	1	0	1	-7,963354	273,539619	309,478371	0
15.01.2021	06:53:46	0	0	3,841478	3,55725	357,6276	-0,385	85,461	0	1011,52	6,2	8,2	8,1	1	1	1	1	1	1	1	1	1	0	1	-1,338971	273,594779	316,358885	0
15.01.2021	06:53:47	0	0	3,502524	3,612	360	-0,391	85,452	0	1011,44	6,1	8,2	8,1	1	1	1	1	1	1	1	1	1	0	1	-2,889359	273,471613	314,236801	0
15.01.2021	06:53:48	0	0	3,615508	3,65925	0,8676	-0,394	85,449	0	1011,26	6,2	8,2	8,1	1	1	1	1	1	1	1	1	1	0	1	-3,312192	273,545418	314,156453	0
15.01.2021	06:53:49	0	0	3,16357	3,462	10,0512	-0,39	85,434	0	1011,36	6,1	8,2	8,1	1	1	1	1	1	1	1	1	1	0	1	-1,973221	273,602049	315,758403	0
15.01.2021	06:53:50	0	0	3,615508	3,01575	11,7036	-0,398	85,452	0	1011,4	6,1	8,2	8,1	1	1	1	1	1	1	1	1	1	0	1	-1,902748	273,55412	315,606294	0
15.01.2021	06:53:51	0	0	2,598647	2,75325	9,3744	-0,389	85,451	0	1011,46	6,2	8,2	8,1	1	1	1	1	1	1	1	1	1	0	1	-2,466526	273,447074	314,545825	0
15.01.2021	06:53:52	0	0	4,406401	2,586	10,1376	-0,397	85,454	0	1011,42	6,1	8,2	8,1	1	1	1	1	1	1	1	1	1	0	1	-6,131078	273,606412	311,620814	0
15.01.2021	06:53:53	0	0	3,389539	2,4015	13,9176	-0,395	85,435	0	1011,5	6,1	8,2	8,1	1	1	1	1	1	1	1	1	1	0	1	-4,157858	273,509204	313,142703	0
15.01.2021	06:53:54	0	0	2,711631	2,337	19,5228	-0,395	85,449	0	1011,54	6,2	8,2	8,1	1	1	1	1	1	1	1	1	1	0	1	-4,651163	273,478836	312,508503	0
15.01.2021	06:53:55	0	0	4,180431	2,418	13,5684	-0,39	85,444	0	1011,52	6,2	8,2	8,1	1	1	1	1	1	1	1	1	1	0	1	-6,906272	273,603503	310,832107	0
15.01.2021	06:53:56	0	0	3,954462	2,56425	27,2628	-0,396	85,445	0	1011,44	6,1	8,2	8,1	1	1	1	1	1	1	1	1	1	0	1	-5,496829	273,487508	311,703065	0
15.01.2021	06:53:57	0	0	2,824616	2,65875	7,8876	-0,387	85,454	0	1011,38	6,2	8,2	8,1	1	1	1	1	1	1	1	1	1	0	1	-4,157858	273,432654	312,787629	0
15.01.2021	06:53:58	0	0	3,16357	2,565	23,9508	-0,396	85,428	0	1011,36	6,2	8,2	8,1	1	1	1	1	1	1	1	1	1	0	1	-3,312192	273,52513	314,062279	0
15.01.2021	06:53:59	0	0	4,067447	2,41875	19,1484	-0,388	85,458	0	1011,5	6,2	8,2	8,1	1	1	1	1	1	1	1	1	1	0	1	-3,312192	273,606412	314,4397	0
15.01.2021	06:54:00	0	0	2,9376	2,45475	7,1352	-0,391	85,446	0	1011,52	6,2	8,2	8,1	1	1	1	1	1	1	1	1	1	0	1	-0	273,419685	316,885361	0
15.01.2021	06:54:01	0	0	2,9376	2,45475	7,1352	-0,391	85,446	0	1011,52	6,2	8,2	8,1	1	1	1	1	1	1	1	1	1	0	1	-4,22833	273,523681	313,139418	0
15.01.2021	06:54:02	0	0	3,954462	2,568	21,7764	-0,386	85,454	0	1011,54	6,2	8,2	8,1	1	1	1	1	1	1	1	1	1	0	1	-3,453136	273,431213	313,485667	0
15.01.2021	06:54:03	0	0	2,9376	2,3925	14,2992	-0,391	85,454	0	1011,58	6,1	8,2	8,1	1	1	1	1	1	1	1	1	1	0	1	-5,355884	273,452845	311,683229	0
15.01.2021	06:54:04	0	0	4,406401	2,448	12,474	-0,388	85,454	0	1011,36	6,2	8,2	8,1	1	1	1	1	1	1	1	1	1	0	1	-4,369274	273,483172	312,810503	0
15.01.2021	06:54:05	0	0	5,310278	2,6265	11,196	-0,387	85,445	0	1011,32	6,2	8,2	8,1	1	1	1	1	1	1	1	1	1	0	1	-4,087385	273,429772	312,844736	0
15.01.2021	06:54:06	0	0	3,728493	2,8035	11,1852	-0,386	85,451	0	1011,42	6,2	8,2	8,1	1	1	1	1	1	1	1	1	1	0	1	-4,016913	273,541069	313,431541	0
15.01.2021	06:54:07	0	0	4,519385	2,78025	11,7144	-0,391	85,461	0	1011,52	6,2	8,2	8,1	1	1	1	1	1	1	1	1	1	0	1	-3,100775	273,432654	313,844711	0
15.01.2021	06:54:08	0	0	2,9376	2,75025	12,0924	-0,389	85,443	0	1011,44	6,1	8,2	8,1	1	1	1	1	1	1	1	1	1	0	1	-2,536998	273,413924	314,321656	0
15.01.2021	06:54:09	0	0	4,858339	2,832	4,4712	-0,389	85,45	0	1011,48	6,2	8,2	8,1	1	1	1	1	1	1	1	1	1	0	1	-4,016913	273,516441	313,317233	0
15.01.2021	06:54:10	0	0	2,9376	3,07875	7,1352	-0,399	85,454	0	1011,26	6,1	8,2	8,1	1	1	1	1	1	1	1	1	1	0	1	-7,681466	273,612231	310,097459	0
15.01.2021	06:54:11	0	0	4,180431	3,26025	7,4988	-0,397	85,453	0	1011,52	6,2	8,2	8,1	1	1	1	1	1	1	1	1	1	0	1	-0,704722	273,452845	316,334392	0
15.01.2021	06:54:12	0	0	2,824616	3,3765	7,5276	-0,399	85,454	0	1011,46	6,1	8,2	8,1	1	1	1	1	1	1	1	1	1	0	1	-5,144468	273,522233	312,216559	0
15.01.2021	06:54:13	0	0	4,293416	3,36525	7,1244	-0,392	85,442	0	1011,38	6,2	8,2	8,1	1	1	1	1	1	1	1	1	1	0	1	-6,624383	273,606412	311,127508	0
15.01.2021	06:54:14	0	0	2,9376	3,37425	0,2124	-0,391	85,435	0	1011,54	6,2	8,2	8,1	1	1	1	1	1	1	1	1	1	0	1	-6,412967	273,474502	310,726593	0
15.01.2021	06:54:15	0	0	4,971324	3,31575	15,0336	-0,394	85,43	0	1011,4	6,1	8,2	8,1	1	1	1	1	1	1	1	1	1	0	1	-7,258633	273,471613	309,867526	0
15.01.2021	06:54:16	0	0	4,180431	3,267	9,3708	-0,393	85,464	0	1011,42	6,1	8,2	8,1	1	1	1	1	1	1	1	1	1	0	1	-5,21494	273,434096	311,73723	0
15.01.2021	06:54:17	0	0	4,745355	3,24	16,0884	-0,389	85,447	0	1011,48	6,1	8,2	8,1	1	1	1	1	1	1	1	1	1	0	1	-6,765328	273,578796	310,858294	0
15.01.2021	06:54:18	0	0	4,63237	3,372	19,1556	-0,393	85,464	0	1011,48	6,1	8,2	8,1	1	1	1	1	1	1	1	1	1	0	1	-1,761804	273,543968	315,70011	0
15.01.2021	06:54:19	0	0	5,084308	3,3645	13,1652	-0,391	85,454	0	1011,44	6,1	8,2	8,1	1	1	1	1	1	1	1	1	1	0	1	-5,21494	273,42833	311,710499	0
15.01.2021	06:54:20	0	0	4,406401	3,12075	24,3396	-0,402	85,44	0	1011,38	6,2	8,2	8,1	1	1	1	1	1	1	1	1	1	0	1	-4,651163	273,504863	312,629253	0
15.01.2021	06:54:21	0	0	2,598647	2,88225	4,8384	-0,393	85,457	0	1011,5	6,2	8,2	8,1	1	1	1	1	1	1	1	1	1	0	1	-5,003524	273,444189	311,995449	0
15.01.2021	06:54:22	0	0	3,954462	2,78475	0,486	-0,393	85,454	0	1011,4	6,2	8,2	8,1	1	1	1	1	1	1	1	1	1	0	1	-3,735025	273,548318	313,747083	0
15.01.2021	06:54:23	0	0	3,502524	2,70825	11,7216	-0,394	85,455	0	1011,5	6,1	8,2	8,1	1	1	1	1	1	1	1	1	1	0	1	-2,255109	273,584606	315,395498	0
15.01.2021	06:54:24	0	0	3,954462	2,39175	1,1772	-0,391	85,462	0	1011,46	6,1	8,2	8,1	1	1	1	1	1	1	1	1	1	0	1	-5,990134	273,565728	311,572806	0
15.01.2021	06:54:25	0	0	4,63237	2,316	10,44	-0,388	85,447	0	1011,42	6,1	8,2	8,1	1	1	1	1	1	1	1	1	1	0	1	-4,087385	273,457175	312,971806	0
15.01.2021	06:54:26	0	0	2,9376	2,271	13,1616	-0,398	85,454	0	1011,46	6,2	8,2	8,1	1	1	1	1	1	1	1	1	1	0	1	-3,171247	273,439863	313,807664	0
15.01.2021	06:54:27	0	0	4,63237	2,24925	10,4364	-0,393	85,453	0	1011,42	6,1	8,2	8,1	1	1	1	1	1	1	1	1	1	0	1	-4,439746	273,575891	313,170386	0
15.01.2021	06:54:28	0	0	4,293416	2,26275	15,4224	-0,39	85,452	0	1011,58	6,1	8,2	8,1	1	1	1	1	1	1	1	1	1	0	1	-6,272023	273,499076	310,981543	0
15.01.2021	06:54:29	0	0	4,406401	2,286	6,8256	-0,389	85,452	0	1011,34	6,1	8,2	8,1	1	1	1	1	1	1	1	1	1	0	1	-3,030303	273,600595	314,694566	0
15.01.2021	06:54:30	0	0	4,858339	2,33475	19,8972	-0,387	85,465	0	1011,46	6,1	8,2	8,1	1	1	1	1	1	1	1	1	1	0	1	-7,399577	273,551219	310,095997	0
15.01.2021	06:54:31	0	0	4,858339	2,376	16,8624	-0,39	85,438	0	1011,52	6,2	8,2	8,1	1	1	1	1	1	1	1	1	1	0	1	-6,060606	273,597687	311,650755	0
15.01.2021	06:54:32	0	0	2,9376	2,3565	16,488	-0,392	85,46	0	1011,5	6,2	8,2	8,1	1	1	1	1	1	1	1	1	1	0	1	-7,258633	273,604958	310,486502	0
15.01.2021	06:54:33	0	0	3,276554	2,349	9,7452	-0,391	85,449	0	1011,38	6,1	8,2	8,1	1	1	1	1	1	1	1	1	1	0	1	-5,285412	273,496183	311,954732	0
15.01.2021	06:54:34	0	0	2,824616	2,43225	16,8444	-0,393	85,451	0	1011,58	6,2	8,2	8,1	1	1	1	1	1	1	1	1	1	0	1	-4,580691	273,435537	312,378164	0
15.01.2021	06:54:35	0	0	3,389539	2,568	2,3148	-0,39	85,452	0	1011,24	6,2	8,2	8,1	1	1	1	1	1	1	1	1	1	0	1	-5,355884	273,425448	311,556193	0
15.01.2021	06:54:36	0	0	4,519385	2,5605	18,0828	-0,386	85,445	0	1011,52	6,2	8,2	8,1	1	1	1	1	1	1	1	1	1	0	1	-2,396054	273,541069	315,052401	0
15.01.2021	06:54:37	0	0	3,502524	2,50875	13,1688	-0,384	85,433	0	1011,46	6,2	8,2	8,1	1	1	1	1	1	1	1	1	1	0	1	-5,637773	273,593326	312,053331	0
15.01.2021	06:54:38	0	0	2,9376	2,56725	7,524	-0,39	85,455	0	1011,48	6,1	8,2	8,1	1	1	1	1	1	1	1	1	1	0	1	-3,24172	273,455731	313,810779	0
15.01.2021	06:54:39	0	0	2,711631	2,57925	9,3636	-0,389	85,446	0	1011,38	6,1	8,2	8,1	1	1	1	1	1	1	1	1	1	0	1	-10,218464	273,574439	307,384925	0
15.01.2021	06:54:40	0	0	4,858339	2,55975	17,2332	-0,389	85,453	0	1011,58	6,2	8,2	8,1	1	1	1	1	1	1	1	1	1	0	1	-7,188161	273,581701	310,448952	0
15.01.2021	06:54:41	0	0	2,711631	2,39925	19,5408	-0,396	85,438	0	1011,56	6,1	8,2	8,1	1	1	1	1	1	1	1	1	1	0	1	-4,510218	273,545418	312,958426	0
15.01.2021	06:54:42	0	0	2,824616	2,406	17,6976	-0,399	85,457	0	1011,48	6,2	8,2	8,1	1	1	1	1	1	1	1	1	1	0	1	-5,355884	273,604958	312,389251	0
15.01.2021	06:54:43	0	0	4,745355	2,40375	17,244	-0,394	85,47	0	1011,44	6,2	8,2	8,1	1	1	1	1	1	1	1	1	1	0	1	-2,889359	273,55412	314,619683	0
15.01.2021	06:54:44	0	0	2,598647	2,514	19,1628	-0,39	85,464	0	1011,5	6,2	8,2	8,1	1	1	1	1	1	1	1	1	1	0	1	-6,342495	273,471613	310,783665	0
15.01.2021	06:54:45	0	0	3,728493	2,58825	13,1724	-0,388	85,46	0	1011,44	6,2	8,2	8,1	1	1	1	1	1	1	1	1	1	0	1	-8,45666	273,596233	309,247949	0
15.01.2021	06:54:46	0	0	3,615508	2,598	8,2692	-0,393	85,462	0	1011,48	6,2	8,2	8,1	1	1	1	1	1	1	1	1	1	0	1	-5,637773	273,593326	312,053331	0
15.01.2021	06:54:47	0	0	3,615508	2,523	7,5168	-0,39	85,465	0	1011,38	6,2	8,2	8,1	1	1	1	1	1	1	1	1	1	0	1	-7,117689	273,618052	310,688279	0
15.01.2021	06:54:48	0	0	5,310278	2,42775	17,244	-0,395	85,449	0	1011,54	6,1	8,2	8,1	1	1	1	1	1	1	1	1	1	0	1	-6,624383	273,468724	310,488377	0
15.01.2021	06:54:49	0	0	2,485662	2,2845	15,408	-0,394	85,461	0	1011,32	6,1	8,2	8,1	1	1	1	1	1	1	1	1	1	0	1	-6,976744	273,477391	310,176219	0
15.01.2021	06:54:50	0	0	4,971324	2,2785	2,646	-0,391	85,445	0	1011,44	6,1	8,2	8,1	1	1	1	1	1	1	1	1	1	0	1	-4,157858	273,618052	313,64811	0
15.01.2021	06:54:51	0	0	4,63237	2,382	17,2296	-0,395	85,443	0	1011,38	6,1	8,2	8,1	1	1	1	1	1	1	1	1	1	0	1	-4,510218	273,557021	313,012294	0
15.01.2021	06:54:52	0	0	3,841478	2,433	17,712	-0,392	85,433	0	1011,54	6,2	8,2	8,1	1	1	1	1	1	1	1	1	1	0	1	-5,496829	273,577343	312,120048	0
15.01.2021	06:54:53	0	0	3,502524	2,394	12,87	-0,391	85,447	0	1011,42	6,2	8,2	8,1	1	1	1	1	1	1	1	1	1	0	1	-10,007047	273,586059	307,650308	0
15.01.2021	06:54:54	0	0	2,598647	2,5545	18,8676	-0,395	85,45	0	1011,34	6,1	8,2	8,1	1	1	1	1	1	1	1	1	1	0	1	-3,735025	273,551219	313,760549	0
15.01.2021	06:54:55	0	0	3,389539	2,697	13,9284	-0,387	85,455	0	1011,36	6,2	8,2	8,1	1	1	1	1	1	1	1	1	1	0	1	-4,651163	273,42833	312,274276	0
15.01.2021	06:54:56	0	0	4,293416	2,712	17,712	-0,396	85,448	0	1011,44	6,2	8,2	8,1	1	1	1	1	1	1	1	1	1	0	1	-6,765328	273,493291	310,461397	0
15.01.2021	06:54:57	0	0	4,63237	2,61225	21,0132	-0,399	85,445	0	1011,38	6,2	8,2	8,1	1	1	1	1	1	1	1	1	1	0	1	-4,721635	273,449959	312,304096	0
15.01.2021	06:54:58	0	0	4,63237	2,58225	15,8904	-0,396	85,45	0	1011,48	6,2	8,2	8,1	1	1	1	1	1	1	1	1	1	0	1	-5,355884	273,607867	312,402765	0
15.01.2021	06:54:59	0	0	4,406401	2,5965	11,2032	-0,389	85,447	0	1011,32	6,2	8,2	8,1	1	1	1	1	1	1	1	1	1	0	1	-4,933051	273,516441	312,401095	0
15.01.2021	06:55:00	0	0	4,067447	2,47725	19,908	-0,389	85,449	0	1011,5	6,2	8,2	8,1	1	1	1	1	1	1	1	1	1	0	1	-7,82241	273,564277	309,73379	0
15.01.2021	06:55:01	0	0	4,067447	2,47725	19,908	-0,389	85,449	0	1011,5	6,2	8,2	8,1	1	1	1	1	1	1	1	1	1	0	1	-7,82241	273,564277	309,73379	0
15.01.2021	06:55:02	0	0	4,293416	2,40975	16,0884	-0,388	85,46	0	1011,38	6,2	8,2	8,1	1	1	1	1	1	1	1	1	1	0	1	-9,584214	273,542518	307,87097	0
15.01.2021	06:55:03	0	0	3,615508	2,40975	17,7048	-0,388	85,448	0	1011,52	6,1	8,2	8,1	1	1	1	1	1	1	1	1	1	0	1	-4,862579	273,436979	312,10296	0
15.01.2021	06:55:04	0	0	4,63237	2,37225	7,5096	-0,39	85,45	0	1011,56	6,2	8,2	8,1	1	1	1	1	1	1	1	1	1	0	1	-5,003524	273,548318	312,478584	0
15.01.2021	06:55:05	0	0	4,519385	2,349	16,1064	-0,391	85,453	0	1011,46	6,1	8,2	8,1	1	1	1	1	1	1	1	1	1	0	1	-6,8358	273,588966	310,835053	0
15.01.2021	06:55:06	0	0	3,615508	2,34825	10,4472	-0,392	85,458	0	1011,4	6,2	8,2	8,1	1	1	1	1	1	1	1	1	1	0	1	-3,875969	273,594779	313,821887	0
15.01.2021	06:55:07	0	0	3,502524	2,358	1,9296	-0,391	85,437	0	1011,4	6,2	8,2	8,1	1	1	1	1	1	1	1	1	1	0	1	-6,412967	273,499076	310,840599	0
15.01.2021	06:55:08	0	0	3,389539	2,4255	1,926	-0,393	85,46	0	1011,54	6,2	8,2	8,1	1	1	1	1	1	1	1	1	1	0	1	-5,144468	273,426889	311,77429	0
15.01.2021	06:55:09	0	0	3,502524	2,508	10,8144	-0,395	85,445	0	1011,52	6,1	8,2	8,1	1	1	1	1	1	1	1	1	1	0	1	-5,708245	273,55412	311,800797	0
15.01.2021	06:55:10	0	0	2,824616	2,5215	7,5204	-0,387	85,441	0	1011,38	6,2	8,2	8,1	1	1	1	1	1	1	1	1	1	0	1	-7,188161	273,438421	309,784064	0
15.01.2021	06:55:11	0	0	2,598647	2,6145	6,444	-0,393	85,446	0	1011,52	6,2	8,2	8,1	1	1	1	1	1	1	1	1	1	0	1	-9,090909	273,609322	308,674498	0
15.01.2021	06:55:12	0	0	3,389539	2,58375	4,5612	-0,392	85,451	0	1011,6	6,2	8,2	8,1	1	1	1	1	1	1	1	1	1	0	1	-0,845666	273,543968	316,616248	0
15.01.2021	06:55:13	0	0	4,519385	2,61975	4,842	-0,395	85,459	0	1011,5	6,1	8,2	8,1	1	1	1	1	1	1	1	1	1	0	1	-8,879493	273,429772	308,052628	0
15.01.2021	06:55:14	0	0	3,389539	2,553	21,78	-0,4	85,458	0	1011,46	6,1	8,2	8,1	1	1	1	1	1	1	1	1	1	0	1	-3,171247	273,523681	314,196501	0
15.01.2021	06:55:15	0	0	3,502524	2,34975	27,288	-0,388	85,455	0	1011,34	6,1	8,2	8,1	1	1	1	1	1	1	1	1	1	0	1	-6,412967	273,613686	311,372717	0
15.01.2021	06:55:16	0	0	3,276554	2,187	17,3304	-0,389	85,455	0	1011,36	6,2	8,2	8,1	1	1	1	1	1	1	1	1	1	0	1	-3,453136	273,500522	313,807141	0
15.01.2021	06:55:17	0	0	2,711631	2,06925	22,8456	-0,391	85,459	0	1011,52	6,2	8,3	8,1	1	1	1	1	1	1	1	1	1	0	1	-0,775194	273,455731	316,277304	0
15.01.2021	06:55:18	0	0	3,276554	2,01225	17,2368	-0,389	85,459	0	1011,52	6,2	8,2	8,1	1	1	1	1	1	1	1	1	1	0	1	-8,033827	273,587513	309,630277	0
15.01.2021	06:55:19	0	0	3,050585	2,0775	15,4008	-0,394	85,444	0	1011,56	6,2	8,2	8,1	1	1	1	1	1	1	1	1	1	0	1	-3,59408	273,504863	313,686336	0
15.01.2021	06:55:20	0	0	4,858339	2,13375	27,6624	-0,39	85,466	0	1011,58	6,2	8,2	8,1	1	1	1	1	1	1	1	1	1	0	1	-7,470049	273,615142	310,322395	0
15.01.2021	06:55:21	0	0	2,711631	2,1	18,8496	-0,4	85,455	0	1011,44	6,1	8,2	8,1	1	1	1	1	1	1	1	1	1	0	1	-3,382664	273,604958	314,362471	0
15.01.2021	06:55:22	0	0	3,954462	2,02425	16,092	-0,389	85,464	0	1011,52	6,1	8,2	8,1	1	1	1	1	1	1	1	1	1	0	1	-3,523608	273,526578	313,857585	0
15.01.2021	06:55:23	0	0	3,954462	1,94925	14,3208	-0,39	85,461	0	1011,48	6,2	8,2	8,1	1	1	1	1	1	1	1	1	1	0	1	-2,114165	273,594779	315,583691	0
15.01.2021	06:55:24	0	0	4,63237	1,965	14,6592	-0,393	85,458	0	1011,4	6,2	8,2	8,1	1	1	1	1	1	1	1	1	1	0	1	-5,990134	273,581701	311,646979	0
15.01.2021	06:55:25	0	0	4,745355	2,007	8,6112	-0,393	85,461	0	1011,46	6,2	8,2	8,1	1	1	1	1	1	1	1	1	1	0	1	-4,298802	273,557021	313,223711	0
15.01.2021	06:55:26	0	0	2,485662	2,148	17,244	-0,392	85,463	0	1011,58	6,1	8,2	8,1	1	1	1	1	1	1	1	1	1	0	1	-5,84919	273,432654	311,096297	0
15.01.2021	06:55:27	0	0	2,711631	2,2275	7,5132	-0,395	85,454	0	1011,4	6,2	8,2	8,1	1	1	1	1	1	1	1	1	1	0	1	-2,466526	273,501969	314,800464	0
15.01.2021	06:55:28	0	0	4,519385	2,20275	18,4536	-0,396	85,455	0	1011,54	6,1	8,2	8,1	1	1	1	1	1	1	1	1	1	0	1	-4,933051	273,597687	312,77831	0
15.01.2021	06:55:29	0	0	4,63237	2,2455	6,8148	-0,391	85,459	0	1011,42	6,2	8,2	8,1	1	1	1	1	1	1	1	1	1	0	1	-2,325581	273,438421	314,646643	0
15.01.2021	06:55:30	0	0	4,971324	2,3205	1,5624	-0,391	85,475	0	1011,46	6,1	8,2	8,1	1	1	1	1	1	1	1	1	1	0	1	-2,889359	273,565728	314,673581	0
15.01.2021	06:55:31	0	0	3,954462	2,3205	0,4968	-0,389	85,465	0	1011,46	6,2	8,2	8,1	1	1	1	1	1	1	1	1	1	0	1	-4,22833	273,431213	312,710474	0
15.01.2021	06:55:32	0	0	4,858339	2,30925	9	-0,391	85,451	0	1011,48	6,2	8,2	8,1	1	1	1	1	1	1	1	1	1	0	1	-10,641297	273,613686	307,144388	0
15.01.2021	06:55:33	0	0	4,519385	2,2905	7,1244	-0,388	85,461	0	1011,58	6,2	8,2	8,1	1	1	1	1	1	1	1	1	1	0	1	-2,114165	273,496183	315,125979	0
15.01.2021	06:55:34	0	0	2,598647	2,268	7,884	-0,385	85,478	0	1011,52	6,1	8,2	8,1	1	1	1	1	1	1	1	1	1	0	1	-2,043693	273,432654	314,901794	0
15.01.2021	06:55:35	0	0	2,598647	2,439	3,0132	-0,396	85,46	0	1011,54	6,2	8,2	8,1	1	1	1	1	1	1	1	1	1	0	1	-2,889359	273,477391	314,263605	0
15.01.2021	06:55:36	0	0	4,406401	2,67	2,646	-0,397	85,468	0	1011,4	6,2	8,2	8,1	1	1	1	1	1	1	1	1	1	0	1	-1,691332	273,552669	315,810976	0
15.01.2021	06:55:37	0	0	4,067447	2,73675	4,8456	-0,394	85,472	0	1011,54	6,1	8,3	8,1	1	1	1	1	1	1	1	1	1	0	1	-0,98661	273,588966	316,684243	0
15.01.2021	06:55:38	0	0	4,067447	2,7585	17,2368	-0,391	85,474	0	1011,54	6,1	8,2	8,1	1	1	1	1	1	1	1	1	1	0	1	-3,805497	273,564277	313,750703	0
15.01.2021	06:55:39	0	0	2,824616	2,688	13,5576	-0,39	85,474	0	1011,48	6,2	8,2	8,1	1	1	1	1	1	1	1	1	1	0	1	-1,198027	273,591872	316,486326	0
15.01.2021	06:55:40	0	0	3,050585	2,3685	19,89	-0,398	85,481	0	1011,46	6,1	8,2	8,1	1	1	1	1	1	1	1	1	1	0	1	-7,82241	273,602049	309,909214	0
15.01.2021	06:55:41	0	0	3,050585	2,0625	12,096	-0,396	85,457	0	1011,52	6,2	8,2	8,1	1	1	1	1	1	1	1	1	1	0	1	-2,255109	273,488953	314,951492	0
15.01.2021	06:55:42	0	0	4,971324	1,893	10,8036	-0,394	85,474	0	1011,5	6,1	8,2	8,1	1	1	1	1	1	1	1	1	1	0	1	-0,704722	273,603503	317,033657	0
15.01.2021	06:55:43	0	0	3,16357	1,8945	13,5396	-0,393	85,474	0	1011,52	6,2	8,2	8,1	1	1	1	1	1	1	1	1	1	0	1	-5,073996	273,580248	312,556371	0
15.01.2021	06:55:44	0	0	5,310278	2,142	14,2992	-0,39	85,473	0	1011,32	6,2	8,2	8,1	1	1	1	1	1	1	1	1	1	0	1	-5,144468	273,494737	312,088966	0
15.01.2021	06:55:45	0	0	3,728493	2,3085	15,786	-0,388	85,474	0	1011,44	6,1	8,2	8,1	1	1	1	1	1	1	1	1	1	0	1	-4,862579	273,597687	312,848782	0
15.01.2021	06:55:46	0	0	2,9376	2,40975	5,7024	-0,39	85,452	0	1011,48	6,2	8,2	8,1	1	1	1	1	1	1	1	1	1	0	1	-6,20155	273,593326	311,489554	0
15.01.2021	06:55:47	0	0	2,598647	2,4225	2,7576	-0,384	85,468	0	1011,52	6,1	8,2	8,1	1	1	1	1	1	1	1	1	1	0	1	-3,24172	273,499076	314,011846	0
15.01.2021	06:55:48	0	0	3,615508	2,43525	7,9092	-0,392	85,476	0	1011,48	6,2	8,2	8,1	1	1	1	1	1	1	1	1	1	0	1	-4,510218	273,599141	313,207896	0
15.01.2021	06:55:49	0	0	3,728493	2,2635	19,53	-0,39	85,477	0	1011,46	6,2	8,2	8,1	1	1	1	1	1	1	1	1	1	0	1	-9,866103	273,535271	307,55544	0
15.01.2021	06:55:50	0	0	2,824616	2,175	19,1484	-0,386	85,471	0	1011,6	6,1	8,2	8,1	1	1	1	1	1	1	1	1	1	0	1	-1,409443	273,436979	315,556096	0
15.01.2021	06:55:51	0	0	4,858339	2,3715	6,4368	-0,387	85,46	0	1011,42	6,1	8,2	8,1	1	1	1	1	1	1	1	1	1	0	1	-3,805497	273,593326	313,885607	0
15.01.2021	06:55:52	0	0	4,293416	2,4345	11,7216	-0,385	85,477	0	1011,56	6,1	8,2	8,1	1	1	1	1	1	1	1	1	1	0	1	-0,845666	273,545418	316,622979	0
15.01.2021	06:55:53	0	0	3,502524	2,50425	10,818	-0,397	85,476	0	1011,46	6,2	8,2	8,1	1	1	1	1	1	1	1	1	1	0	1	-6,342495	273,432654	310,602992	0
15.01.2021	06:55:54	0	0	4,293416	2,84925	4,4676	-0,389	85,473	0	1011,5	6,2	8,2	8,1	1	1	1	1	1	1	1	1	1	0	1	-3,171247	273,526578	314,209946	0
15.01.2021	06:55:55	0	0	2,9376	3,24225	11,7252	-0,391	85,475	0	1011,38	6,1	8,2	8,1	1	1	1	1	1	1	1	1	1	0	1	-0	273,577343	317,616876	0
15.01.2021	06:55:56	0	0	3,389539	3,2475	3,7656	-0,386	85,477	0	1011,44	6,1	8,2	8,1	1	1	1	1	1	1	1	1	1	0	1	-2,255109	273,426889	314,663649	0
15.01.2021	06:55:57	0	0	4,406401	3,0435	16,848	-0,393	85,465	0	1011,54	6,1	8,2	8,1	1	1	1	1	1	1	1	1	1	0	1	-6,060606	273,513546	311,260104	0
15.01.2021	06:55:58	0	0	3,615508	2,83275	7,2396	-0,391	85,478	0	1011,52	6,1	8,2	8,1	1	1	1	1	1	1	1	1	1	0	1	-4,510218	273,594779	313,187638	0
15.01.2021	06:55:59	0	0	3,502524	2,65275	12,8664	-0,393	85,475	0	1011,38	6,2	8,2	8,1	1	1	1	1	1	1	1	1	1	0	1	-6,976744	273,487508	310,22315	0
15.01.2021	06:56:00	0	0	4,63237	2,4165	6,066	-0,398	85,476	0	1011,32	6,2	8,2	8,1	1	1	1	1	1	1	1	1	1	0	1	-2,255109	273,426889	314,663649	0
15.01.2021	06:56:01	0	0	4,63237	2,4165	6,066	-0,398	85,476	0	1011,32	6,2	8,2	8,1	1	1	1	1	1	1	1	1	1	0	1	-2,255109	273,426889	314,663649	0
15.01.2021	06:56:02	0	0	4,971324	2,31075	19,242	-0,392	85,473	0	1011,38	6,1	8,3	8,1	1	1	1	1	1	1	1	1	1	0	1	-5,144468	273,49763	312,102387	0
15.01.2021	06:56:03	0	0	3,841478	2,17275	23,2272	-0,385	85,489	0	1011,66	6,2	8,2	8,1	1	1	1	1	1	1	1	1	1	0	1	-3,24172	273,454288	313,804086	0
15.01.2021	06:56:04	0	0	3,615508	2,0355	20,6316	-0,389	85,457	0	1011,46	6,1	8,2	8,1	1	1	1	1	1	1	1	1	1	0	1	-3,664553	273,512098	313,649441	0
15.01.2021	06:56:05	0	0	3,502524	2,01975	21,0276	-0,388	85,482	0	1011,6	6,1	8,2	8,1	1	1	1	1	1	1	1	1	1	0	1	-3,24172	273,596233	314,462889	0
15.01.2021	06:56:06	0	0	3,389539	2,01375	18,8208	-0,39	85,464	0	1011,26	6,2	8,2	8,1	1	1	1	1	1	1	1	1	1	0	1	-3,664553	273,42833	313,260887	0
15.01.2021	06:56:07	0	0	4,63237	1,974	23,238	-0,387	85,477	0	1011,42	6,1	8,2	8,1	1	1	1	1	1	1	1	1	1	0	1	-6,8358	273,483172	310,343977	0
15.01.2021	06:56:08	0	0	4,519385	1,9815	19,9008	-0,393	85,487	0	1011,34	6,2	8,2	8,1	1	1	1	1	1	1	1	1	1	0	1	-5,355884	273,447074	311,656466	0
15.01.2021	06:56:09	0	0	3,841478	1,90275	22,086	-0,391	85,481	0	1011,18	6,2	8,2	8,1	1	1	1	1	1	1	1	1	1	0	1	-4,016913	273,441305	312,968684	0
15.01.2021	06:56:10	0	0	4,858339	2,082	2,6532	-0,39	85,491	0	1011,38	6,2	8,2	8,1	1	1	1	1	1	1	1	1	1	0	1	-4,933051	273,461505	312,146224	0
15.01.2021	06:56:11	0	0	2,711631	2,36025	12,474	-0,388	85,488	0	1011,44	6,1	8,3	8,1	1	1	1	1	1	1	1	1	1	0	1	-5,496829	273,610777	312,275337	0
15.01.2021	06:56:12	0	0	4,858339	2,46825	8,6112	-0,389	85,491	0	1011,4	6,2	8,2	8,1	1	1	1	1	1	1	1	1	1	0	1	-12,544045	273,480281	304,622324	0
15.01.2021	06:56:13	0	0	2,824616	2,59725	5,22	-0,389	85,483	0	1011,46	6,2	8,2	8,1	1	1	1	1	1	1	1	1	1	0	1	-3,171247	273,426889	313,747511	0
15.01.2021	06:56:14	0	0	3,728493	2,56725	15,03	-0,39	85,481	0	1011,5	6,2	8,2	8,1	1	1	1	1	1	1	1	1	1	0	1	-7,188161	273,470169	309,931299	0
15.01.2021	06:56:15	0	0	3,389539	2,487	10,5408	-0,383	85,483	0	1011,62	6,1	8,2	8,1	1	1	1	1	1	1	1	1	1	0	1	-4,439746	273,587513	313,224357	0
15.01.2021	06:56:16	0	0	3,389539	2,40075	17,6868	-0,385	85,464	0	1011,5	6,2	8,2	8,1	1	1	1	1	1	1	1	1	1	0	1	-5,919662	273,42833	311,005777	0
15.01.2021	06:56:17	0	0	3,389539	2,22	16,1064	-0,384	85,482	0	1011,54	6,2	8,2	8,1	1	1	1	1	1	1	1	1	1	0	1	-4,298802	273,552669	313,203506	0
15.01.2021	06:56:18	0	0	3,050585	2,17425	10,4364	-0,394	85,47	0	1011,5	6,1	8,2	8,1	1	1	1	1	1	1	1	1	1	0	1	-5,496829	273,435537	311,462026	0
15.01.2021	06:56:19	0	0	3,615508	2,15175	16,9272	-0,391	85,483	0	1011,48	6,2	8,2	8,1	1	1	1	1	1	1	1	1	1	0	1	-6,131078	273,461505	310,948197	0
15.01.2021	06:56:20	0	0	3,389539	2,17575	20,2968	-0,388	85,485	0	1011,4	6,2	8,2	8,1	1	1	1	1	1	1	1	1	1	0	1	-9,513742	273,541069	307,934712	0
15.01.2021	06:56:21	0	0	2,9376	2,22675	19,1484	-0,393	85,472	0	1011,44	6,2	8,2	8,1	1	1	1	1	1	1	1	1	1	0	1	-4,933051	273,447074	312,079299	0
15.01.2021	06:56:22	0	0	3,16357	2,22825	24,3432	-0,387	85,491	0	1011,62	6,1	8,3	8,1	1	1	1	1	1	1	1	1	1	0	1	-2,959831	273,596233	314,744777	0
15.01.2021	06:56:23	0	0	3,502524	2,2785	8,6148	-0,393	85,474	0	1011,38	6,1	8,2	8,1	1	1	1	1	1	1	1	1	1	0	1	-3,100775	273,581701	314,536338	0
15.01.2021	06:56:24	0	0	3,841478	2,38125	4,8348	-0,394	85,476	0	1011,62	6,2	8,2	8,1	1	1	1	1	1	1	1	1	1	0	1	-9,090909	273,474502	308,048651	0
15.01.2021	06:56:25	0	0	4,519385	2,6685	8,2692	-0,386	85,479	0	1011,36	6,1	8,2	8,1	1	1	1	1	1	1	1	1	1	0	1	-8,527132	273,549768	308,961709	0
15.01.2021	06:56:26	0	0	2,711631	2,958	12,474	-0,39	85,485	0	1011,5	6,2	8,3	8,1	1	1	1	1	1	1	1	1	1	0	1	-6,694856	273,462949	310,391116	0
15.01.2021	06:56:27	0	0	3,615508	2,9325	19,5372	-0,398	85,465	0	1011,44	6,2	8,2	8,1	1	1	1	1	1	1	1	1	1	0	1	-7,329105	273,434096	309,623065	0
15.01.2021	06:56:28	0	0	4,63237	2,8995	4,8348	-0,397	85,468	0	1011,46	6,1	8,2	8,1	1	1	1	1	1	1	1	1	1	0	1	-1,973221	273,526578	315,407973	0
15.01.2021	06:56:29	0	0	3,276554	2,748	25,8012	-0,388	85,485	0	1011,6	6,1	8,2	8,1	1	1	1	1	1	1	1	1	1	0	1	-1,409443	273,438421	315,562782	0
15.01.2021	06:56:30	0	0	2,824616	2,63625	20,2752	-0,392	85,485	0	1011,32	6,2	8,2	8,1	1	1	1	1	1	1	1	1	1	0	1	-0,352361	273,442747	316,639924	0
15.01.2021	06:56:31	0	0	4,180431	2,50725	5,2164	-0,393	85,477	0	1011,5	6,2	8,2	8,1	1	1	1	1	1	1	1	1	1	0	1	-0	273,435537	316,958854	0
15.01.2021	06:56:32	0	0	2,598647	2,44125	10,0728	-0,387	85,482	0	1011,36	6,2	8,2	8,1	1	1	1	1	1	1	1	1	1	0	1	-7,117689	273,421126	309,77435	0
15.01.2021	06:56:33	0	0	3,728493	2,50125	4,8276	-0,395	85,474	0	1011,32	6,1	8,3	8,1	1	1	1	1	1	1	1	1	1	0	1	-8,245243	273,53672	309,183026	0
15.01.2021	06:56:34	0	0	3,615508	2,56425	6,4548	-0,393	85,471	0	1011,5	6,2	8,2	8,1	1	1	1	1	1	1	1	1	1	0	1	-8,174771	273,600595	309,550098	0
15.01.2021	06:56:35	0	0	3,16357	2,5605	7,128	-0,39	85,479	0	1011,48	6,2	8,2	8,1	1	1	1	1	1	1	1	1	1	0	1	-3,664553	273,557021	313,85796	0
15.01.2021	06:56:36	0	0	3,615508	2,49825	25,038	-0,386	85,476	0	1011,56	6,2	8,3	8,1	1	1	1	1	1	1	1	1	1	0	1	-2,889359	273,425448	314,022719	0
15.01.2021	06:56:37	0	0	4,180431	2,2905	9,7488	-0,39	85,486	0	1011,44	6,1	8,2	8,1	1	1	1	1	1	1	1	1	1	0	1	-6,060606	273,565728	311,502333	0
15.01.2021	06:56:38	0	0	3,841478	2,2065	21,7728	-0,391	85,483	0	1011,5	6,2	8,2	8,1	1	1	1	1	1	1	1	1	1	0	1	-6,8358	273,442747	310,156485	0
15.01.2021	06:56:39	0	0	5,310278	2,24925	25,038	-0,394	85,483	0	1011,62	6,1	8,3	8,1	1	1	1	1	1	1	1	1	1	0	1	-3,24172	273,597687	314,469642	0
15.01.2021	06:56:40	0	0	4,180431	2,38125	22,4712	-0,394	85,478	0	1011,54	6,2	8,3	8,1	1	1	1	1	1	1	1	1	1	0	1	-2,043693	273,510651	315,263584	0
15.01.2021	06:56:41	0	0	5,310278	2,691	10,4436	-0,39	85,486	0	1011,46	6,2	8,2	8,1	1	1	1	1	1	1	1	1	1	0	1	-2,396054	273,415365	314,469276	0
15.01.2021	06:56:42	0	0	3,389539	2,952	12,0816	-0,396	85,472	0	1011,5	6,2	8,2	8,1	1	1	1	1	1	1	1	1	1	0	1	-4,933051	273,568631	312,643369	0
15.01.2021	06:56:43	0	0	3,050585	3,138	9,0036	-0,386	85,491	0	1011,64	6,2	8,2	8,1	1	1	1	1	1	1	1	1	1	0	1	-5,073996	273,552669	312,428312	0
15.01.2021	06:56:44	0	0	3,728493	3,204	360	-0,392	85,483	0	1011,52	6,2	8,2	8,1	1	1	1	1	1	1	1	1	1	0	1	-1,832276	273,458618	315,233609	0
15.01.2021	06:56:45	0	0	2,711631	3,25425	2,3148	-0,386	85,491	0	1011,52	6,1	8,2	8,1	1	1	1	1	1	1	1	1	1	0	1	-1,127555	273,455731	315,924944	0
15.01.2021	06:56:46	0	0	4,63237	3,2655	2,3148	-0,389	85,473	0	1011,4	6,2	8,2	8,1	1	1	1	1	1	1	1	1	1	0	1	-4,298802	273,594779	313,399054	0
15.01.2021	06:56:47	0	0	3,276554	3,168	7,506	-0,396	85,488	0	1011,46	6,2	8,2	8,1	1	1	1	1	1	1	1	1	1	0	1	-6,20155	273,484617	310,984932	0
15.01.2021	06:56:48	0	0	4,745355	3,08625	7,128	-0,392	85,492	0	1011,5	6,2	8,2	8,1	1	1	1	1	1	1	1	1	1	0	1	-9,372798	273,594779	308,325058	0
15.01.2021	06:56:49	0	0	5,423262	2,88225	22,8528	-0,389	85,489	0	1011,52	6,2	8,2	8,1	1	1	1	1	1	1	1	1	1	0	1	-7,892882	273,517889	309,447984	0
15.01.2021	06:56:50	0	0	3,389539	2,784	13,536	-0,399	85,477	0	1011,38	6,1	8,2	8,1	1	1	1	1	1	1	1	1	1	0	1	-2,184637	273,609322	315,58077	0
15.01.2021	06:56:51	0	0	4,519385	2,8905	6,8148	-0,389	85,485	0	1011,5	6,2	8,2	8,1	1	1	1	1	1	1	1	1	1	0	1	-4,369274	273,571535	313,220629	0
15.01.2021	06:56:52	0	0	2,9376	2,928	9,3744	-0,389	85,486	0	1011,48	6,1	8,2	8,1	1	1	1	1	1	1	1	1	1	0	1	-3,030303	273,549768	314,458538	0
15.01.2021	06:56:53	0	0	2,824616	2,817	10,458	-0,389	85,498	0	1011,52	6,2	8,2	8,1	1	1	1	1	1	1	1	1	1	0	1	-2,114165	273,416805	314,757841	0
15.01.2021	06:56:54	0	0	4,406401	2,64375	12,8448	-0,391	85,489	0	1011,46	6,2	8,2	8,1	1	1	1	1	1	1	1	1	1	0	1	-6,272023	273,535271	311,14952	0
15.01.2021	06:56:55	0	0	3,502524	2,46675	12,1032	-0,391	85,491	0	1011,68	6,2	8,2	8,1	1	1	1	1	1	1	1	1	1	0	1	-3,171247	273,431213	313,767556	0
15.01.2021	06:56:56	0	0	4,519385	2,37525	23,9724	-0,392	85,498	0	1011,46	6,1	8,2	8,1	1	1	1	1	1	1	1	1	1	0	1	-3,171247	273,583154	314,472612	0
15.01.2021	06:56:57	0	0	4,63237	2,37075	14,6484	-0,389	85,487	0	1011,52	6,2	8,2	8,1	1	1	1	1	1	1	1	1	1	0	1	-10,007047	273,513546	307,313663	0
15.01.2021	06:56:58	0	0	2,711631	2,51625	15,7788	-0,388	85,489	0	1011,48	6,2	8,2	8,1	1	1	1	1	1	1	1	1	1	0	1	-8,386187	273,580248	309,244179	0
15.01.2021	06:56:59	0	0	4,519385	2,7885	13,9212	-0,394	85,489	0	1011,6	6,2	8,2	8,1	1	1	1	1	1	1	1	1	1	0	1	-4,369274	273,523681	312,998474	0
15.01.2021	06:57:00	0	0	3,276554	2,76975	20,6352	-0,389	85,505	0	1011,64	6,2	8,2	8,1	1	1	1	1	1	1	1	1	1	0	1	-4,933051	273,588966	312,737801	0
15.01.2021	06:57:01	0	0	3,276554	2,76975	20,6352	-0,389	85,505	0	1011,64	6,2	8,2	8,1	1	1	1	1	1	1	1	1	1	0	1	-4,933051	273,588966	312,737801	0
15.01.2021	06:57:02	0	0	2,824616	2,637	26,5284	-0,397	85,495	0	1011,44	6,2	8,3	8,1	1	1	1	1	1	1	1	1	1	0	1	-6,272023	273,565728	311,290917	0
15.01.2021	06:57:03	0	0	2,711631	2,5305	26,172	-0,391	85,493	0	1011,56	6,2	8,2	8,1	1	1	1	1	1	1	1	1	1	0	1	-2,60747	273,583154	315,03639	0
15.01.2021	06:57:04	0	0	4,63237	2,40525	28,35	-0,39	85,486	0	1011,6	6,2	8,2	8,1	1	1	1	1	1	1	1	1	1	0	1	-5,990134	273,539619	311,451592	0
15.01.2021	06:57:05	0	0	2,598647	2,1615	12,8628	-0,39	85,482	0	1011,56	6,2	8,3	8,1	1	1	1	1	1	1	1	1	1	0	1	-5,708245	273,431213	311,230558	0
15.01.2021	06:57:06	0	0	4,519385	2,0115	12,4596	-0,386	85,502	0	1011,52	6,1	8,2	8,1	1	1	1	1	1	1	1	1	1	0	1	-4,298802	273,562825	313,250659	0
15.01.2021	06:57:07	0	0	4,067447	1,91775	13,1688	-0,392	85,51	0	1011,52	6,2	8,2	8,1	1	1	1	1	1	1	1	1	1	0	1	-1,62086	273,551219	315,874714	0
15.01.2021	06:57:08	0	0	4,180431	1,911	29,9376	-0,391	85,499	0	1011,6	6,2	8,2	8,1	1	1	1	1	1	1	1	1	1	0	1	-8,245243	273,425448	308,666834	0
15.01.2021	06:57:09	0	0	2,711631	1,9485	18,4572	-0,391	85,499	0	1011,6	6,1	8,2	8,1	1	1	1	1	1	1	1	1	1	0	1	-5,84919	273,516441	311,484957	0
15.01.2021	06:57:10	0	0	3,728493	1,98675	31,1184	-0,387	85,503	0	1011,54	6,2	8,3	8,1	1	1	1	1	1	1	1	1	1	0	1	-3,030303	273,574439	314,573085	0
15.01.2021	06:57:11	0	0	4,971324	1,884	7,8984	-0,388	85,495	0	1011,44	6,1	8,2	8,1	1	1	1	1	1	1	1	1	1	0	1	-5,496829	273,562825	312,052633	0
15.01.2021	06:57:12	0	0	4,745355	1,821	10,0692	-0,387	85,513	0	1011,54	6,2	8,2	8,1	1	1	1	1	1	1	1	1	1	0	1	-3,523608	273,520785	313,830698	0
15.01.2021	06:57:13	0	0	3,050585	1,785	10,062	-0,383	85,502	0	1011,48	6,2	8,2	8,1	1	1	1	1	1	1	1	1	1	0	1	-4,510218	273,416805	312,361788	0
15.01.2021	06:57:14	0	0	4,745355	1,6875	32,1516	-0,39	85,502	0	1011,46	6,2	8,3	8,1	1	1	1	1	1	1	1	1	1	0	1	-1,550388	273,528027	315,837529	0
15.01.2021	06:57:15	0	0	3,841478	1,608	13,1616	-0,388	85,509	0	1011,34	6,2	8,2	8,1	1	1	1	1	1	1	1	1	1	0	1	-5,355884	273,584606	312,294723	0
15.01.2021	06:57:16	0	0	3,276554	1,5675	25,776	-0,388	85,496	0	1011,6	6,1	8,3	8,1	1	1	1	1	1	1	1	1	1	0	1	-5,426357	273,483172	311,753421	0
15.01.2021	06:57:17	0	0	3,502524	1,635	15,0408	-0,387	85,51	0	1011,4	6,1	8,3	8,1	1	1	1	1	1	1	1	1	1	0	1	-9,795631	273,426889	307,123127	0
15.01.2021	06:57:18	0	0	5,197293	1,7085	18,45	-0,389	85,499	0	1011,58	6,1	8,3	8,1	1	1	1	1	1	1	1	1	1	0	1	-7,047216	273,615142	310,745228	0
15.01.2021	06:57:19	0	0	4,180431	1,85175	13,9068	-0,396	85,482	0	1011,48	6,2	8,2	8,1	1	1	1	1	1	1	1	1	1	0	1	-5,919662	273,503416	311,354041	0
15.01.2021	06:57:20	0	0	4,519385	1,99425	19,5372	-0,396	85,489	0	1011,44	6,2	8,2	8,1	1	1	1	1	1	1	1	1	1	0	1	-7,892882	273,578796	309,730739	0
15.01.2021	06:57:21	0	0	2,598647	2,0595	19,5084	-0,391	85,486	0	1011,44	6,1	8,2	8,1	1	1	1	1	1	1	1	1	1	0	1	-3,030303	273,449959	313,995428	0
15.01.2021	06:57:22	0	0	4,519385	2,0775	12,1032	-0,387	85,499	0	1011,68	6,2	8,2	8,1	1	1	1	1	1	1	1	1	1	0	1	-7,470049	273,591872	310,214304	0
15.01.2021	06:57:23	0	0	2,824616	2,154	10,8144	-0,388	85,5	0	1011,54	6,1	8,2	8,1	1	1	1	1	1	1	1	1	1	0	1	-7,399577	273,422567	309,499141	0
15.01.2021	06:57:24	0	0	3,389539	2,16825	21,7692	-0,388	85,483	0	1011,56	6,2	8,2	8,1	1	1	1	1	1	1	1	1	1	0	1	-4,651163	273,494737	312,582271	0
15.01.2021	06:57:25	0	0	4,519385	2,15025	13,1796	-0,382	85,492	0	1011,52	6,2	8,2	8,1	1	1	1	1	1	1	1	1	1	0	1	-5,708245	273,461505	311,37103	0
15.01.2021	06:57:26	0	0	4,745355	2,25975	23,2236	-0,385	85,48	0	1011,3	6,2	8,2	8,1	1	1	1	1	1	1	1	1	1	0	1	-2,677942	273,580248	314,952425	0
15.01.2021	06:57:27	0	0	3,615508	2,322	27,2736	-0,383	85,492	0	1011,44	6,2	8,2	8,1	1	1	1	1	1	1	1	1	1	0	1	-5,144468	273,486062	312,04872	0
15.01.2021	06:57:28	0	0	3,16357	2,229	22,0716	-0,389	85,496	0	1011,58	6,2	8,2	8,1	1	1	1	1	1	1	1	1	1	0	1	-5,355884	273,441305	311,629713	0
15.01.2021	06:57:29	0	0	5,084308	2,11575	17,8056	-0,389	85,48	0	1011,52	6,1	8,3	8,1	1	1	1	1	1	1	1	1	1	0	1	-5,073996	273,477391	312,078968	0
15.01.2021	06:57:30	0	0	2,598647	2,00175	19,908	-0,398	85,493	0	1011,48	6,1	8,2	8,1	1	1	1	1	1	1	1	1	1	0	1	-6,553911	273,581701	311,083202	0
15.01.2021	06:57:31	0	0	3,728493	1,86975	15,786	-0,387	85,494	0	1011,36	6,2	8,2	8,1	1	1	1	1	1	1	1	1	1	0	1	-2,889359	273,458618	314,176527	0
15.01.2021	06:57:32	0	0	3,841478	1,761	16,4844	-0,392	85,49	0	1011,46	6,1	8,2	8,1	1	1	1	1	1	1	1	1	1	0	1	-4,087385	273,53817	313,347612	0
15.01.2021	06:57:33	0	0	3,502524	1,74225	11,7108	-0,382	85,491	0	1011,54	6,2	8,3	8,1	1	1	1	1	1	1	1	1	1	0	1	-3,312192	273,438421	313,660033	0
15.01.2021	06:57:34	0	0	4,858339	1,9395	14,6664	-0,39	85,5	0	1011,54	6,2	8,2	8,1	1	1	1	1	1	1	1	1	1	0	1	-6,131078	273,481726	311,041995	0
15.01.2021	06:57:35	0	0	3,050603	2,23575	8,262	-0,391	85,461	0	1011,46	6,2	8,2	8	1	1	1	1	1	1	1	1	1	0	1	-7,117689	273,438421	309,854536	0
15.01.2021	06:57:36	0	0	4,858339	2,4825	15,8796	-0,393	85,493	0	1011,46	6,2	8,3	8,1	1	1	1	1	1	1	1	1	1	0	1	-5,637773	273,520785	311,716533	0
15.01.2021	06:57:37	0	0	4,067447	2,87925	9,7452	-0,386	85,497	0	1011,48	6,1	8,3	8,1	1	1	1	1	1	1	1	1	1	0	1	-3,735025	273,599141	313,98309	0
15.01.2021	06:57:38	0	0	2,9376	3,183	10,8108	-0,39	85,487	0	1011,36	6,2	8,2	8,1	1	1	1	1	1	1	1	1	1	0	1	-4,792107	273,471613	312,334052	0
15.01.2021	06:57:39	0	0	4,745355	3,26925	2,6604	-0,387	85,489	0	1011,36	6,2	8,2	8,1	1	1	1	1	1	1	1	1	1	0	1	-8,245243	273,435537	308,713611	0
15.01.2021	06:57:40	0	0	3,615508	3,12	16,938	-0,398	85,468	0	1011,44	6,2	8,2	8,1	1	1	1	1	1	1	1	1	1	0	1	-6,342495	273,581701	311,294618	0
15.01.2021	06:57:41	0	0	4,293416	2,997	2,646	-0,391	85,486	0	1011,68	6,2	8,2	8,1	1	1	1	1	1	1	1	1	1	0	1	-1,973221	273,539619	315,468505	0
15.01.2021	06:57:42	0	0	3,954462	2,82075	9	-0,39	85,491	0	1011,5	6,2	8,2	8,1	1	1	1	1	1	1	1	1	1	0	1	-8,879493	273,431213	308,059311	0
15.01.2021	06:57:43	0	0	4,971324	2,844	7,884	-0,393	85,493	0	1011,6	6,2	8,2	8,1	1	1	1	1	1	1	1	1	1	0	1	-12,191684	273,571535	305,398219	0
15.01.2021	06:57:44	0	0	4,180431	2,994	5,2236	-0,393	85,497	0	1011,46	6,1	8,2	8,1	1	1	1	1	1	1	1	1	1	0	1	-7,892882	273,444189	309,106091	0
15.01.2021	06:57:45	0	0	3,389559	2,8995	9,7596	-0,391	85,492	0	1011,54	6,2	8,2	8	1	1	1	1	1	1	1	1	1	0	1	-3,946441	273,571535	313,643462	0
15.01.2021	06:57:46	0	0	4,745355	2,73675	4,0896	-0,39	85,481	0	1011,34	6,2	8,2	8,1	1	1	1	1	1	1	1	1	1	0	1	-4,087385	273,546868	313,387991	0
15.01.2021	06:57:47	0	0	4,293416	2,44725	35,9568	-0,394	85,48	0	1011,48	6,2	8,2	8,1	1	1	1	1	1	1	1	1	1	0	1	-4,721635	273,581701	312,915478	0
15.01.2021	06:57:48	0	0	3,389539	2,2995	20,628	-0,387	85,5	0	1011,44	6,2	8,2	8,1	1	1	1	1	1	1	1	1	1	0	1	-7,751938	273,584606	309,898669	0
15.01.2021	06:57:49	0	0	3,502524	2,15175	25,0308	-0,394	85,483	0	1011,36	6,2	8,2	8,1	1	1	1	1	1	1	1	1	1	0	1	-7,399577	273,478836	309,760089	0
15.01.2021	06:57:50	0	0	3,502524	2,1015	9,7488	-0,389	85,496	0	1011,44	6,2	8,2	8,1	1	1	1	1	1	1	1	1	1	0	1	-5,426357	273,597687	312,285005	0
15.01.2021	06:57:51	0	0	4,406427	1,968	21,006	-0,391	85,501	0	1011,52	6,2	8,2	8	1	1	1	1	1	1	1	1	1	0	1	-2,889359	273,504863	314,391058	0
15.01.2021	06:57:52	0	0	3,16357	1,881	8,6076	-0,386	85,49	0	1011,54	6,2	8,3	8,1	1	1	1	1	1	1	1	1	1	0	1	-2,255109	273,432654	314,690377	0
15.01.2021	06:57:53	0	0	2,9376	1,785	37,3068	-0,39	85,487	0	1011,48	6,1	8,2	8,1	1	1	1	1	1	1	1	1	1	0	1	-3,171247	273,596233	314,533361	0
15.01.2021	06:57:54	0	0	3,16357	1,824	8,2656	-0,388	85,495	0	1011,48	6,1	8,2	8,1	1	1	1	1	1	1	1	1	1	0	1	-6,553911	273,513546	310,766799	0
15.01.2021	06:57:55	0	0	4,971324	1,74525	18,0792	-0,388	85,497	0	1011,52	6,2	8,3	8,1	1	1	1	1	1	1	1	1	1	0	1	-5,355884	273,610777	312,416281	0
15.01.2021	06:57:56	0	0	3,050585	1,70325	17,2296	-0,393	85,488	0	1011,4	6,1	8,3	8,1	1	1	1	1	1	1	1	1	1	0	1	-3,523608	273,484617	313,662874	0
15.01.2021	06:57:57	0	0	3,050585	1,833	15,0336	-0,388	85,488	0	1011,48	6,2	8,2	8,1	1	1	1	1	1	1	1	1	1	0	1	-2,466526	273,424007	314,438872	0
15.01.2021	06:57:58	0	0	4,858339	2,04675	5,688	-0,389	85,495	0	1011,56	6,2	8,2	8,1	1	1	1	1	1	1	1	1	1	0	1	-1,198027	273,429772	315,734094	0
15.01.2021	06:57:59	0	0	3,954462	2,067	10,4544	-0,39	85,478	0	1011,48	6,2	8,2	8,1	1	1	1	1	1	1	1	1	1	0	1	-4,016913	273,484617	313,169569	0
15.01.2021	06:58:00	0	0	4,293416	2,17875	10,4508	-0,388	85,493	0	1011,56	6,2	8,3	8,1	1	1	1	1	1	1	1	1	1	0	1	-0,352361	273,516441	316,981786	0
15.01.2021	06:58:01	0	0	4,293416	2,17875	10,4508	-0,388	85,493	0	1011,56	6,2	8,3	8,1	1	1	1	1	1	1	1	1	1	0	1	-0,352361	273,516441	316,981786	0
15.01.2021	06:58:02	0	0	4,293416	2,2875	6,8148	-0,387	85,492	0	1011,52	6,2	8,2	8,1	1	1	1	1	1	1	1	1	1	0	1	-3,100775	273,442747	313,89151	0
15.01.2021	06:58:03	0	0	4,63237	2,42175	20,6244	-0,387	85,494	0	1011,4	6,2	8,3	8,1	1	1	1	1	1	1	1	1	1	0	1	-0	273,545418	317,468645	0
15.01.2021	06:58:04	0	0	3,502524	2,4105	8,6256	-0,391	85,494	0	1011,48	6,2	8,3	8,1	1	1	1	1	1	1	1	1	1	0	1	-2,325581	273,583154	315,318278	0
15.01.2021	06:58:05	0	0	3,728493	2,442	3,132	-0,386	85,49	0	1011,5	6,2	8,2	8,1	1	1	1	1	1	1	1	1	1	0	1	-3,805497	273,422567	313,093221	0
15.01.2021	06:58:06	0	0	3,050585	2,52675	7,128	-0,393	85,494	0	1011,52	6,2	8,2	8,1	1	1	1	1	1	1	1	1	1	0	1	-5,144468	273,509204	312,156093	0
15.01.2021	06:58:07	0	0	2,372677	2,49375	7,8948	-0,392	85,496	0	1011,58	6,2	8,2	8,1	1	1	1	1	1	1	1	1	1	0	1	-1,338971	273,55412	316,170071	0
15.01.2021	06:58:08	0	0	2,824616	2,43	20,6352	-0,388	85,507	0	1011,44	6,2	8,2	8,1	1	1	1	1	1	1	1	1	1	0	1	-3,946441	273,411045	312,898863	0
15.01.2021	06:58:09	0	0	4,858339	2,4435	5,238	-0,394	85,5	0	1011,38	6,2	8,3	8,1	1	1	1	1	1	1	1	1	1	0	1	-3,312192	273,53672	314,116078	0
15.01.2021	06:58:10	0	0	3,841478	2,53275	18,4644	-0,392	85,492	0	1011,38	6,2	8,2	8,1	1	1	1	1	1	1	1	1	1	0	1	-5,496829	273,588966	312,174024	0
15.01.2021	06:58:11	0	0	2,598647	2,595	351,2952	-0,392	85,5	0	1011,48	6,2	8,2	8,1	1	1	1	1	1	1	1	1	1	0	1	-0,070472	273,49763	317,176382	0
15.01.2021	06:58:12	0	0	2,711631	2,51025	7,884	-0,391	85,499	0	1011,52	6,1	8,3	8,1	1	1	1	1	1	1	1	1	1	0	1	-0	273,602049	317,731624	0
15.01.2021	06:58:13	0	0	2,824616	2,38875	13,8996	-0,389	85,505	0	1011,52	6,2	8,2	8,1	1	1	1	1	1	1	1	1	1	0	1	-0	273,451402	317,032422	0
15.01.2021	06:58:14	0	0	2,824616	2,2665	19,8936	-0,383	85,503	0	1011,56	6,2	8,2	8,1	1	1	1	1	1	1	1	1	1	0	1	-1,268499	273,465836	315,830866	0
15.01.2021	06:58:15	0	0	4,63237	2,361	19,9044	-0,39	85,498	0	1011,5	6,2	8,2	8,1	1	1	1	1	1	1	1	1	1	0	1	-3,030303	273,602049	314,701321	0
15.01.2021	06:58:16	0	0	4,180431	2,27025	29,0988	-0,389	85,494	0	1011,48	6,1	8,2	8,1	1	1	1	1	1	1	1	1	1	0	1	-3,59408	273,549768	313,89476	0
15.01.2021	06:58:17	0	0	3,389539	2,06475	22,0824	-0,386	85,493	0	1011,72	6,2	8,2	8,1	1	1	1	1	1	1	1	1	1	0	1	-6,906272	273,429772	310,025849	0
15.01.2021	06:58:18	0	0	4,632398	1,9425	15,786	-0,385	85,503	0	1011,6	6,2	8,2	8	1	1	1	1	1	1	1	1	1	0	1	-4,510218	273,578796	313,113403	0
15.01.2021	06:58:19	0	0	3,389539	1,82625	24,7212	-0,386	85,5	0	1011,46	6,2	8,3	8,1	1	1	1	1	1	1	1	1	1	0	1	-6,412967	273,488953	310,793634	0
15.01.2021	06:58:20	0	0	3,16357	1,818	16,0992	-0,39	85,499	0	1011,46	6,2	8,2	8,1	1	1	1	1	1	1	1	1	1	0	1	-1,832276	273,415365	315,033054	0
15.01.2021	06:58:21	0	0	4,406401	1,7565	22,0716	-0,39	85,508	0	1011,52	6,1	8,2	8,1	1	1	1	1	1	1	1	1	1	0	1	-7,047216	273,461505	310,032059	0
15.01.2021	06:58:22	0	0	2,9376	1,7175	12,1068	-0,382	85,506	0	1011,38	6,2	8,2	8,1	1	1	1	1	1	1	1	1	1	0	1	-1,198027	273,599141	316,520088	0
15.01.2021	06:58:23	0	0	3,050585	1,67775	13,9068	-0,39	85,51	0	1011,52	6,2	8,2	8,1	1	1	1	1	1	1	1	1	1	0	1	-5,708245	273,509204	311,592315	0
15.01.2021	06:58:24	0	0	3,502524	1,68975	11,7144	-0,388	85,522	0	1011,56	6,2	8,2	8,1	1	1	1	1	1	1	1	1	1	0	1	-5,144468	273,442747	311,847817	0
15.01.2021	06:58:25	0	0	2,824616	1,7805	26,1684	-0,389	85,482	0	1011,46	6,2	8,2	8,1	1	1	1	1	1	1	1	1	1	0	1	-2,325581	273,458618	314,740304	0
15.01.2021	06:58:26	0	0	4,519385	1,92375	16,938	-0,386	85,5	0	1011,54	6,2	8,2	8,1	1	1	1	1	1	1	1	1	1	0	1	-2,889359	273,545418	314,579286	0
15.01.2021	06:58:27	0	0	4,745355	2,166	18,8352	-0,388	85,498	0	1011,6	6,2	8,2	8,1	1	1	1	1	1	1	1	1	1	0	1	-5,778717	273,442747	311,213568	0
15.01.2021	06:58:28	0	0	3,841478	2,35275	18,4356	-0,386	85,498	0	1011,58	6,2	8,2	8,1	1	1	1	1	1	1	1	1	1	0	1	-6,765328	273,455731	310,287171	0
15.01.2021	06:58:29	0	0	4,971324	2,54175	28,7208	-0,39	85,495	0	1011,62	6,2	8,3	8,1	1	1	1	1	1	1	1	1	1	0	1	-4,157858	273,442747	312,834427	0
15.01.2021	06:58:30	0	0	3,954486	2,62275	22,1544	-0,388	85,502	0	1011,54	6,2	8,2	8	1	1	1	1	1	1	1	1	1	0	1	-2,466526	273,530924	314,934839	0
15.01.2021	06:58:31	0	0	3,728493	2,61525	5,6844	-0,391	85,502	0	1011,4	6,2	8,2	8,1	1	1	1	1	1	1	1	1	1	0	1	-9,654686	273,597687	308,056675	0
15.01.2021	06:58:32	0	0	4,067471	2,64225	4,4748	-0,385	85,504	0	1011,6	6,2	8,2	8	1	1	1	1	1	1	1	1	1	0	1	-3,523608	273,539619	313,918117	0
15.01.2021	06:58:33	0	0	4,858339	2,57925	4,8492	-0,387	85,512	0	1011,54	6,2	8,2	8,1	1	1	1	1	1	1	1	1	1	0	1	-6,342495	273,602049	311,389129	0
15.01.2021	06:58:34	0	0	2,485662	2,52225	359,2368	-0,386	85,494	0	1011,46	6,1	8,2	8,1	1	1	1	1	1	1	1	1	1	0	1	-1,691332	273,488953	315,515269	0
15.01.2021	06:58:35	0	0	4,63237	2,54325	23,9796	-0,388	85,516	0	1011,54	6,2	8,3	8,1	1	1	1	1	1	1	1	1	1	0	1	-4,510218	273,426889	312,408539	0
15.01.2021	06:58:36	0	0	3,276554	2,53275	20,6496	-0,383	85,508	0	1011,48	6,2	8,2	8,1	1	1	1	1	1	1	1	1	1	0	1	-3,100775	273,570083	314,482386	0
15.01.2021	06:58:37	0	0	4,180431	2,643	5,2488	-0,393	85,492	0	1011,48	6,2	8,2	8,1	1	1	1	1	1	1	1	1	1	0	1	-4,157858	273,494737	313,075577	0
15.01.2021	06:58:38	0	0	5,310278	2,70075	21,0132	-0,384	85,521	0	1011,5	6,2	8,2	8,1	1	1	1	1	1	1	1	1	1	0	1	-8,174771	273,596233	309,529837	0
15.01.2021	06:58:39	0	0	2,711631	2,658	8,2764	-0,382	85,52	0	1011,46	6,1	8,2	8,1	1	1	1	1	1	1	1	1	1	0	1	-4,22833	273,528027	313,159587	0
15.01.2021	06:58:40	0	0	4,858339	2,48175	19,1556	-0,387	85,498	0	1011,52	6,1	8,2	8,1	1	1	1	1	1	1	1	1	1	0	1	-4,862579	273,599141	312,855536	0
15.01.2021	06:58:41	0	0	3,615508	2,4555	3,3948	-0,387	85,51	0	1011,5	6,2	8,3	8,1	1	1	1	1	1	1	1	1	1	0	1	-4,580691	273,530924	312,820674	0
15.01.2021	06:58:42	0	0	2,259693	2,505	2,862	-0,393	85,507	0	1011,58	6,2	8,2	8,1	1	1	1	1	1	1	1	1	1	0	1	-2,536998	273,449959	314,488733	0
15.01.2021	06:58:43	0	0	2,824616	2,45775	4,8456	-0,386	85,491	0	1011,52	6,1	8,3	8,1	1	1	1	1	1	1	1	1	1	0	1	-2,114165	273,432654	314,831322	0
15.01.2021	06:58:44	0	0	4,519385	2,37225	12,8484	-0,392	85,5	0	1011,52	6,2	8,2	8,1	1	1	1	1	1	1	1	1	1	0	1	-7,399577	273,501969	309,867413	0
15.01.2021	06:58:45	0	0	4,971324	2,34825	359,0424	-0,388	85,506	0	1011,52	6,2	8,2	8,1	1	1	1	1	1	1	1	1	1	0	1	-6,976744	273,593326	310,71436	0
15.01.2021	06:58:46	0	0	4,63237	2,35275	2,6352	-0,386	85,502	0	1011,68	6,2	8,3	8,1	1	1	1	1	1	1	1	1	1	0	1	-6,906272	273,494737	310,327162	0
15.01.2021	06:58:47	0	0	2,824616	2,322	4,086	-0,382	85,504	0	1011,48	6,2	8,3	8,1	1	1	1	1	1	1	1	1	1	0	1	-2,60747	273,426889	314,311288	0
15.01.2021	06:58:48	0	0	3,163589	2,21925	18,0612	-0,388	85,512	0	1011,54	6,2	8,3	8	1	1	1	1	1	1	1	1	1	0	1	-7,117689	273,487508	310,082206	0
15.01.2021	06:58:49	0	0	2,372677	2,21625	22,0788	-0,39	85,497	0	1011,34	6,2	8,3	8,1	1	1	1	1	1	1	1	1	1	0	1	-0	273,429772	316,932121	0
15.01.2021	06:58:50	0	0	4,971324	2,22975	25,7796	-0,39	85,506	0	1011,5	6,2	8,3	8,1	1	1	1	1	1	1	1	1	1	0	1	-5,073996	273,545418	312,394649	0
15.01.2021	06:58:51	0	0	2,824616	2,20875	14,6592	-0,386	85,517	0	1011,58	6,2	8,2	8,1	1	1	1	1	1	1	1	1	1	0	1	-3,875969	273,575891	313,734163	0
15.01.2021	06:58:52	0	0	3,954462	2,3085	31,392	-0,389	85,514	0	1011,5	6,2	8,3	8,1	1	1	1	1	1	1	1	1	1	0	1	-6,906272	273,429772	310,025849	0
15.01.2021	06:58:53	0	0	3,728493	2,4645	26,5176	-0,389	85,501	0	1011,4	6,2	8,2	8,1	1	1	1	1	1	1	1	1	1	0	1	-2,396054	273,474502	314,743507	0
15.01.2021	06:58:54	0	0	4,180431	2,37675	21,0168	-0,388	85,503	0	1011,46	6,2	8,3	8,1	1	1	1	1	1	1	1	1	1	0	1	-3,171247	273,421126	313,720792	0
15.01.2021	06:58:55	0	0	3,615508	2,21475	25,4448	-0,388	85,508	0	1011,44	6,1	8,2	8,1	1	1	1	1	1	1	1	1	1	0	1	-6,20155	273,509204	311,09901	0
15.01.2021	06:58:56	0	0	3,728493	2,05725	21,0168	-0,392	85,509	0	1011,54	6,2	8,2	8,1	1	1	1	1	1	1	1	1	1	0	1	-5,708245	273,565728	311,854694	0
15.01.2021	06:58:57	0	0	4,519385	1,947	1,5588	-0,393	85,502	0	1011,46	6,2	8,2	8,1	1	1	1	1	1	1	1	1	1	0	1	-2,396054	273,580248	315,234313	0
15.01.2021	06:58:58	0	0	2,485662	2,0655	26,172	-0,385	85,489	0	1011,46	6,2	8,2	8,1	1	1	1	1	1	1	1	1	1	0	1	-6,553911	273,451402	310,478511	0
15.01.2021	06:58:59	0	0	3,615508	2,184	0,8712	-0,388	85,514	0	1011,6	6,2	8,3	8,1	1	1	1	1	1	1	1	1	1	0	1	-4,792107	273,269027	311,395398	0
15.01.2021	06:59:00	0	0	3,502524	1,866	23,22	-0,388	85,515	0	1011,58	6,2	8,3	8,1	1	1	1	1	1	1	1	1	1	0	1	-2,677942	273,438421	314,294283	0
15.01.2021	06:59:01	0	0	3,050585	1,722	15,4116	-0,383	85,51	0	1011,4	6,2	8,2	8,1	1	1	1	1	1	1	1	1	1	0	1	-2,677942	273,438421	314,294283	0
15.01.2021	06:59:02	0	0	3,050585	1,722	15,4116	-0,383	85,51	0	1011,4	6,2	8,2	8,1	1	1	1	1	1	1	1	1	1	0	1	-2,536998	273,477391	314,615965	0
15.01.2021	06:59:03	0	0	4,406427	1,821	13,9104	-0,384	85,51	0	1011,62	6,2	8,2	8	1	1	1	1	1	1	1	1	1	0	1	-6,8358	273,609322	310,929607	0
15.01.2021	06:59:04	0	0	3,16357	1,929	6,516	-0,387	85,524	0	1011,5	6,2	8,2	8,1	1	1	1	1	1	1	1	1	1	0	1	-2,325581	273,526578	315,055612	0
15.01.2021	06:59:05	0	0	3,16357	2,25075	30,7116	-0,393	85,512	0	1011,34	6,2	8,2	8,1	1	1	1	1	1	1	1	1	1	0	1	-1,761804	273,438421	315,210421	0
15.01.2021	06:59:06	0	0	3,615508	2,358	3,7656	-0,386	85,521	0	1011,44	6,2	8,3	8,1	1	1	1	1	1	1	1	1	1	0	1	-8,245243	273,503416	309,02846	0
15.01.2021	06:59:07	0	0	3,16357	2,24625	15,4116	-0,381	85,516	0	1011,54	6,2	8,2	8,1	1	1	1	1	1	1	1	1	1	0	1	-0	273,415365	316,86533	0
15.01.2021	06:59:08	0	0	4,745355	2,1195	355,8492	-0,393	85,514	0	1011,52	6,2	8,3	8,1	1	1	1	1	1	1	1	1	1	0	1	-2,114165	273,445632	314,891497	0
15.01.2021	06:59:09	0	0	5,197293	2,115	7,5096	-0,384	85,525	0	1011,64	6,2	8,2	8,1	1	1	1	1	1	1	1	1	1	0	1	-3,875969	273,53817	313,559028	0
15.01.2021	06:59:10	0	0	3,16357	2,0925	1,188	-0,388	85,517	0	1011,4	6,1	8,2	8,1	1	1	1	1	1	1	1	1	1	0	1	-0	273,367898	316,645348	0
15.01.2021	06:59:11	0	0	2,372677	2,181	7,8732	-0,388	85,522	0	1011,48	6,2	8,2	8,1	1	1	1	1	1	1	1	1	1	0	1	-2,959831	273,488953	314,24677	0
15.01.2021	06:59:12	0	0	4,63237	2,298	4,4712	-0,384	85,524	0	1011,6	6,2	8,2	8,1	1	1	1	1	1	1	1	1	1	0	1	-5,778717	273,583154	311,865142	0
15.01.2021	06:59:13	0	0	4,519412	2,4495	16,4988	-0,391	85,529	0	1011,52	6,2	8,2	8	1	1	1	1	1	1	1	1	1	0	1	-2,959831	273,530924	314,441534	0
15.01.2021	06:59:14	0	0	3,163589	2,4285	3,78	-0,387	85,531	0	1011,56	6,2	8,2	8	1	1	1	1	1	1	1	1	1	0	1	-0	273,421126	316,892039	0
15.01.2021	06:59:15	0	0	5,084308	2,577	9,7452	-0,392	85,517	0	1011,48	6,2	8,3	8,1	1	1	1	1	1	1	1	1	1	0	1	-5,990134	273,565728	311,572806	0
15.01.2021	06:59:16	0	0	4,745355	2,7195	4,0788	-0,384	85,517	0	1011,46	6,1	8,2	8,1	1	1	1	1	1	1	1	1	1	0	1	-0	273,574439	317,603389	0
15.01.2021	06:59:17	0	0	3,615508	2,925	7,8768	-0,39	85,521	0	1011,54	6,2	8,3	8,1	1	1	1	1	1	1	1	1	1	0	1	-5,778717	273,568631	311,797703	0
15.01.2021	06:59:18	0	0	3,16357	3,0885	6,4368	-0,386	85,54	0	1011,54	6,1	8,2	8,1	1	1	1	1	1	1	1	1	1	0	1	-4,439746	273,442747	312,552539	0
15.01.2021	06:59:19	0	0	4,858339	3,22575	13,1688	-0,388	85,53	0	1011,42	6,2	8,3	8,1	1	1	1	1	1	1	1	1	1	0	1	-1,409443	273,416805	315,462563	0
15.01.2021	06:59:20	0	0	4,858368	3,3855	9,756	-0,384	85,526	0	1011,68	6,2	8,2	8	1	1	1	1	1	1	1	1	1	0	1	-2,114165	273,493291	315,11256	0
15.01.2021	06:59:21	0	0	3,954486	3,36225	16,4736	-0,388	85,538	0	1011,58	6,2	8,2	8	1	1	1	1	1	1	1	1	1	0	1	-6,20155	273,587513	311,462553	0
15.01.2021	06:59:22	0	0	3,615508	3,10875	6,9012	-0,384	85,529	0	1011,44	6,1	8,2	8,1	1	1	1	1	1	1	1	1	1	0	1	-0,211416	273,533822	317,2034	0
15.01.2021	06:59:23	0	0	4,293416	2,9325	20,6532	-0,383	85,521	0	1011,54	6,2	8,2	8,1	1	1	1	1	1	1	1	1	1	0	1	-2,255109	273,471613	314,87105	0
15.01.2021	06:59:24	0	0	2,9376	2,805	11,7216	-0,389	85,533	0	1011,58	6,2	8,2	8,1	1	1	1	1	1	1	1	1	1	0	1	-1,479915	273,593326	316,211189	0
15.01.2021	06:59:25	0	0	2,824616	2,775	0,1332	-0,384	85,538	0	1011,64	6,2	8,3	8,1	1	1	1	1	1	1	1	1	1	0	1	-2,60747	273,561374	314,935253	0
15.01.2021	06:59:26	0	0	2,824616	2,76225	359,1216	-0,383	85,536	0	1011,38	6,2	8,3	8,1	1	1	1	1	1	1	1	1	1	0	1	-4,510218	273,568631	313,066202	0
15.01.2021	06:59:27	0	0	2,824633	2,6415	4,0896	-0,389	85,527	0	1011,3	6,2	8,3	8	1	1	1	1	1	1	1	1	1	0	1	-4,298802	273,504863	312,981614	0
15.01.2021	06:59:28	0	0	4,180431	2,49225	7,506	-0,383	85,54	0	1011,44	6,2	8,2	8,1	1	1	1	1	1	1	1	1	1	0	1	-3,875969	273,597687	313,835392	0
15.01.2021	06:59:29	0	0	4,632398	2,38875	14,2848	-0,383	85,531	0	1011,5	6,2	8,2	8	1	1	1	1	1	1	1	1	1	0	1	-5,073996	273,520785	312,28031	0
15.01.2021	06:59:30	0	0	3,728493	2,244	10,0728	-0,39	85,527	0	1011,52	6,1	8,2	8,1	1	1	1	1	1	1	1	1	1	0	1	-2,043693	273,42833	314,881746	0
15.01.2021	06:59:31	0	0	3,61553	2,12325	9,378	-0,381	85,536	0	1011,58	6,1	8,2	8	1	1	1	1	1	1	1	1	1	0	1	-5,003524	273,596233	312,701085	0
15.01.2021	06:59:32	0	0	3,841501	2,223	6,066	-0,385	85,542	0	1011,62	6,2	8,2	8	1	1	1	1	1	1	1	1	1	0	1	-5,990134	273,470169	311,129326	0
15.01.2021	06:59:33	0	0	2,824616	2,547	4,4712	-0,386	85,526	0	1011,54	6,2	8,2	8,1	1	1	1	1	1	1	1	1	1	0	1	-4,721635	273,431213	312,217169	0
15.01.2021	06:59:34	0	0	2,824616	2,70975	9,3708	-0,387	85,515	0	1011,54	6,1	8,3	8,1	1	1	1	1	1	1	1	1	1	0	1	-1,902748	273,53672	315,525521	0
15.01.2021	06:59:35	0	0	3,728493	2,8005	10,8216	-0,386	85,528	0	1011,6	6,2	8,2	8,1	1	1	1	1	1	1	1	1	1	0	1	-5,073996	273,424007	311,831401	0
15.01.2021	06:59:36	0	0	4,180456	2,7675	7,5096	-0,389	85,52	0	1011,42	6,2	8,2	8	1	1	1	1	1	1	1	1	1	0	1	-6,20155	273,507757	311,092295	0
15.01.2021	06:59:37	0	0	2,711631	2,6085	15,858	-0,379	85,569	0	1011,54	6,1	8,2	8,1	1	1	1	1	1	1	1	1	1	0	1	-7,047216	273,409605	309,791414	0
15.01.2021	06:59:38	0	0	4,858368	2,5005	5,2308	-0,385	85,522	0	1011,7	6,1	8,3	8	1	1	1	1	1	1	1	1	1	0	1	-4,369274	273,523681	312,998474	0
15.01.2021	06:59:39	0	0	4,406401	2,538	7,5132	-0,382	85,539	0	1011,52	6,2	8,2	8,1	1	1	1	1	1	1	1	1	1	0	1	-1,057082	273,587513	316,607021	0
15.01.2021	06:59:40	0	0	4,067447	2,4645	20,2788	-0,388	85,515	0	1011,42	6,2	8,2	8,1	1	1	1	1	1	1	1	1	1	0	1	-0	273,448517	317,01904	0
15.01.2021	06:59:41	0	0	2,824616	2,4345	8,2584	-0,382	85,518	0	1011,46	6,1	8,2	8,1	1	1	1	1	1	1	1	1	1	0	1	-7,188161	273,429772	309,74396	0
15.01.2021	06:59:42	0	0	4,519412	2,586	12,1032	-0,38	85,533	0	1011,38	6,2	8,2	8	1	1	1	1	1	1	1	1	1	0	1	-4,439746	273,413924	312,418908	0
15.01.2021	06:59:43	0	0	3,728493	2,6805	8,6004	-0,391	85,512	0	1011,36	6,2	8,2	8,1	1	1	1	1	1	1	1	1	1	0	1	-3,171247	273,513546	314,149463	0
15.01.2021	06:59:44	0	0	3,502545	2,7375	11,1888	-0,387	85,529	0	1011,54	6,2	8,2	8	1	1	1	1	1	1	1	1	1	0	1	-4,439746	273,415365	312,425583	0
15.01.2021	06:59:45	0	0	3,050585	2,56125	18,4392	-0,388	85,522	0	1011,5	6,2	8,3	8,1	1	1	1	1	1	1	1	1	1	0	1	-5,637773	273,473057	311,495086	0
15.01.2021	06:59:46	0	0	2,372692	2,50575	16,8696	-0,38	85,535	0	1011,52	6,2	8,2	8	1	1	1	1	1	1	1	1	1	0	1	-6,483439	273,429772	310,448682	0
15.01.2021	06:59:47	0	0	4,858339	2,52075	12,8664	-0,384	85,537	0	1011,48	6,2	8,2	8,1	1	1	1	1	1	1	1	1	1	0	1	-10,218464	273,564277	307,337736	0
15.01.2021	06:59:48	0	0	3,389539	2,5275	6,0732	-0,386	85,528	0	1011,46	6,2	8,1	8,1	1	1	1	1	1	1	1	1	1	0	1	-5,003524	273,535271	312,418019	0
15.01.2021	06:59:49	0	0	2,824633	2,52525	12,1032	-0,378	85,526	0	1011,62	6,2	8,2	8	1	1	1	1	1	1	1	1	1	0	1	-2,466526	273,584606	315,184081	0
15.01.2021	06:59:50	0	0	4,180431	2,45625	22,0788	-0,385	85,53	0	1011,54	6,1	8,2	8,1	1	1	1	1	1	1	1	1	1	0	1	-3,875969	273,449959	313,149762	0
15.01.2021	06:59:51	0	0	3,728493	2,1735	29,5776	-0,387	85,532	0	1011,46	6,2	8,2	8,1	1	1	1	1	1	1	1	1	1	0	1	-1,479915	273,583154	316,163944	0
15.01.2021	06:59:52	0	0	4,406401	1,9875	32,4936	-0,383	85,528	0	1011,56	6,2	8,2	8,1	1	1	1	1	1	1	1	1	1	0	1	-10,007047	273,460061	307,065533	0
15.01.2021	06:59:53	0	0	3,050585	1,86675	22,0752	-0,383	85,528	0	1011,46	6,2	8,3	8,1	1	1	1	1	1	1	1	1	1	0	1	-3,59408	273,532373	313,81401	0
15.01.2021	06:59:54	0	0	2,824616	1,8225	16,8516	-0,388	85,524	0	1011,4	6,2	8,3	8,1	1	1	1	1	1	1	1	1	1	0	1	-0,845666	273,400968	315,952933	0
15.01.2021	06:59:55	0	0	3,728493	1,78275	24,3468	-0,389	85,53	0	1011,5	6,2	8,2	8,1	1	1	1	1	1	1	1	1	1	0	1	-9,936575	273,520785	307,417731	0
15.01.2021	06:59:56	0	0	5,084308	1,734	13,932	-0,39	85,524	0	1011,48	6,2	8,3	8,1	1	1	1	1	1	1	1	1	1	0	1	-6,342495	273,586059	311,31486	0
15.01.2021	06:59:57	0	0	2,9376	1,74525	20,6136	-0,393	85,528	0	1011,56	6,2	8,2	8,1	1	1	1	1	1	1	1	1	1	0	1	-7,892882	273,503416	309,38082	0
15.01.2021	06:59:58	0	0	4,519385	1,773	19,5372	-0,383	85,513	0	1011,46	6,2	8,3	8,1	1	1	1	1	1	1	1	1	1	0	1	-5,778717	273,587513	311,885386	0
15.01.2021	06:59:59	0	0	3,389539	1,78425	19,134	-0,381	85,514	0	1011,58	6,2	8,2	8,1	1	1	1	1	1	1	1	1	1	0	1	-5,637773	273,559923	311,898213	0
15.01.2021	07:00:00	0	0	4,63237	1,7385	18,4536	-0,383	85,523	0	1011,48	6,1	8,2	8,1	1	1	1	1	1	1	1	1	1	0	1	-6,624383	273,517889	310,716482	0
15.01.2021	07:00:01	0	0	4,63237	1,7385	18,4536	-0,383	85,523	0	1011,48	6,1	8,2	8,1	1	1	1	1	1	1	1	1	1	0	1	-6,624383	273,517889	310,716482	0
15.01.2021	07:00:02	0	0	2,485662	1,755	20,6424	-0,381	85,525	0	1011,4	6,2	8,2	8,1	1	1	1	1	1	1	1	1	1	0	1	-4,862579	273,593326	312,828525	0
15.01.2021	07:00:03	0	0	4,632398	1,86225	8,6328	-0,386	85,52	0	1011,46	6,2	8,3	8	1	1	1	1	1	1	1	1	1	0	1	-6,553911	273,474502	310,585649	0
15.01.2021	07:00:04	0	0	3,841478	1,968	13,9248	-0,381	85,534	0	1011,54	6,2	8,2	8,1	1	1	1	1	1	1	1	1	1	0	1	-8,104299	273,572987	309,492347	0
15.01.2021	07:00:05	0	0	3,502524	2,0115	15,7824	-0,379	85,523	0	1011,48	6,2	8,2	8,1	1	1	1	1	1	1	1	1	1	0	1	-3,875969	273,409605	312,962661	0
15.01.2021	07:00:06	0	0	4,180431	1,94775	18,5292	-0,381	85,53	0	1011,5	6,2	8,3	8,1	1	1	1	1	1	1	1	1	1	0	1	-4,016913	273,441305	312,968684	0
15.01.2021	07:00:07	0	0	3,389559	1,9485	18,8388	-0,375	85,534	0	1011,56	6,2	8,2	8	1	1	1	1	1	1	1	1	1	0	1	-5,426357	273,409605	311,412274	0
15.01.2021	07:00:08	0	0	5,197293	2,04675	7,1316	-0,378	85,53	0	1011,54	6,2	8,1	8,1	1	1	1	1	1	1	1	1	1	0	1	-2,748414	273,496183	314,49173	0
15.01.2021	07:00:09	0	0	3,841478	2,088	18,0864	-0,384	85,505	0	1011,46	6,1	8,2	8,1	1	1	1	1	1	1	1	1	1	0	1	-3,312192	273,574439	314,291197	0
15.01.2021	07:00:10	0	0	4,067471	2,17875	18,4572	-0,388	85,505	0	1011,58	6,2	8,2	8	1	1	1	1	1	1	1	1	1	0	1	-7,540521	273,435537	309,418333	0
15.01.2021	07:00:11	0	0	4,858368	2,1825	25,7904	-0,386	85,53	0	1011,54	6,2	8,3	8	1	1	1	1	1	1	1	1	1	0	1	-4,510218	273,500522	312,750059	0
15.01.2021	07:00:12	0	0	4,180431	2,18475	21,0096	-0,386	85,536	0	1011,58	6,2	8,2	8,1	1	1	1	1	1	1	1	1	1	0	1	-1,62086	273,574439	315,982529	0
15.01.2021	07:00:13	0	0	2,711647	2,06325	22,8312	-0,385	85,526	0	1011,38	6,2	8,3	8	1	1	1	1	1	1	1	1	1	0	1	-7,047216	273,487508	310,152678	0
15.01.2021	07:00:14	0	0	2,824633	2,06475	16,1064	-0,385	85,533	0	1011,54	6,1	8,2	8	1	1	1	1	1	1	1	1	1	0	1	-5,426357	273,578796	312,197265	0
15.01.2021	07:00:15	0	0	2,824616	2,0805	12,4668	-0,383	85,52	0	1011,66	6,2	8,2	8,1	1	1	1	1	1	1	1	1	1	0	1	-9,231853	273,447074	307,780497	0
15.01.2021	07:00:16	0	0	3,16357	2,16375	18,4536	-0,387	85,524	0	1011,52	6,2	8,1	8,1	1	1	1	1	1	1	1	1	1	0	1	-4,510218	273,474502	312,629342	0
15.01.2021	07:00:17	0	0	4,745383	2,18475	17,7012	-0,389	85,53	0	1011,2	6,2	8,2	8	1	1	1	1	1	1	1	1	1	0	1	-7,610994	273,415365	309,254336	0
15.01.2021	07:00:18	0	0	4,293416	2,30025	12,8592	-0,383	85,54	0	1011,52	6,1	8,2	8,1	1	1	1	1	1	1	1	1	1	0	1	-9,020437	273,483172	308,15934	0
15.01.2021	07:00:19	0	0	3,502524	2,29125	21,3984	-0,388	85,524	0	1011,46	6,2	8,3	8,1	1	1	1	1	1	1	1	1	1	0	1	-8,245243	273,412484	308,606736	0
15.01.2021	07:00:20	0	0	3,728493	2,187	24,7176	-0,384	85,535	0	1011,52	6,2	8,3	8,1	1	1	1	1	1	1	1	1	1	0	1	-6,906272	273,457175	310,15292	0
15.01.2021	07:00:21	0	0	4,519385	2,08875	9,8424	-0,388	85,528	0	1011,54	6,1	8,3	8,1	1	1	1	1	1	1	1	1	1	0	1	-8,104299	273,565728	309,458641	0
15.01.2021	07:00:22	0	0	5,084308	2,1075	16,4844	-0,383	85,539	0	1011,56	6,2	8,1	8,1	1	1	1	1	1	1	1	1	1	0	1	-5,144468	273,53672	312,283802	0
15.01.2021	07:00:23	0	0	2,824616	2,10975	8,6256	-0,383	85,529	0	1011,62	6,2	8,3	8,1	1	1	1	1	1	1	1	1	1	0	1	-3,453136	273,406726	313,372148	0
15.01.2021	07:00:24	0	0	4,632398	2,259	27,3744	-0,389	85,531	0	1011,4	6,2	8,3	8	1	1	1	1	1	1	1	1	1	0	1	-5,144468	273,464392	311,9482	0
15.01.2021	07:00:25	0	0	4,293416	2,38125	23,1984	-0,38	85,531	0	1011,52	6,2	8,3	8,1	1	1	1	1	1	1	1	1	1	0	1	-9,090909	273,548318	308,391199	0
15.01.2021	07:00:26	0	0	3,276554	2,199	27,2808	-0,384	85,525	0	1011,56	6,2	8,3	8,1	1	1	1	1	1	1	1	1	1	0	1	-3,382664	273,413924	313,47599	0
15.01.2021	07:00:27	0	0	4,63237	2,01825	4,0968	-0,384	85,524	0	1011,58	6,2	8,2	8,1	1	1	1	1	1	1	1	1	1	0	1	-9,231853	273,546868	308,243523	0
15.01.2021	07:00:28	0	0	3,050585	1,88175	11,718	-0,392	85,515	0	1011,46	6,2	8,3	8,1	1	1	1	1	1	1	1	1	1	0	1	-9,372798	273,571535	308,217105	0
15.01.2021	07:00:29	0	0	4,293416	1,8915	353,1528	-0,387	85,532	0	1011,52	6,2	8,3	8,1	1	1	1	1	1	1	1	1	1	0	1	-6,20155	273,517889	311,139315	0
15.01.2021	07:00:30	0	0	3,16357	2,004	1,1952	-0,388	85,527	0	1011,54	6,1	8,2	8,1	1	1	1	1	1	1	1	1	1	0	1	-5,84919	273,418245	311,029494	0
15.01.2021	07:00:31	0	0	5,310278	2,10825	7,5132	-0,385	85,511	0	1011,56	6,2	8,3	8,1	1	1	1	1	1	1	1	1	1	0	1	-1,409443	273,522233	315,951583	0
15.01.2021	07:00:32	0	0	2,937565	2,01075	358,3188	-0,384	85,51	0	1011,42	6,2	8,2	8,3	1	1	1	1	1	1	1	1	1	0	1	-7,470049	273,596233	310,234559	0
15.01.2021	07:00:33	0	0	2,824616	2,12175	12,8412	-0,387	85,53	0	1011,6	6,2	8,3	8,1	1	1	1	1	1	1	1	1	1	0	1	-2,959831	273,530924	314,441534	0
15.01.2021	07:00:34	0	0	4,745383	2,08725	17,2296	-0,381	85,516	0	1011,46	6,2	8,3	8	1	1	1	1	1	1	1	1	1	0	1	-4,862579	273,565728	312,70036	0
15.01.2021	07:00:35	0	0	3,276574	2,043	19,5192	-0,392	85,514	0	1011,36	6,2	8,3	8	1	1	1	1	1	1	1	1	1	0	1	-2,043693	273,491845	315,176324	0
15.01.2021	07:00:36	0	0	3,615508	1,96425	10,0548	-0,383	85,521	0	1011,42	6,2	8,3	8,1	1	1	1	1	1	1	1	1	1	0	1	-8,104299	273,425448	308,807778	0
15.01.2021	07:00:37	0	0	2,711631	1,8705	4,8492	-0,384	85,518	0	1011,54	6,2	8,2	8,1	1	1	1	1	1	1	1	1	1	0	1	-1,479915	273,577343	316,136961	0
15.01.2021	07:00:38	0	0	5,197324	1,85325	1,9188	-0,389	85,516	0	1011,46	6,2	8,3	8	1	1	1	1	1	1	1	1	1	0	1	-7,540521	273,516441	309,793625	0
15.01.2021	07:00:39	0	0	3,615508	1,9665	7,8948	-0,385	85,523	0	1011,52	6,1	8,2	8,1	1	1	1	1	1	1	1	1	1	0	1	-3,875969	273,572987	313,720676	0
15.01.2021	07:00:40	0	0	4,745355	2,06475	10,0728	-0,391	85,521	0	1011,44	6,2	8,2	8,1	1	1	1	1	1	1	1	1	1	0	1	-4,298802	273,481726	312,874271	0
15.01.2021	07:00:41	0	0	2,824616	2,0655	12,0996	-0,386	85,523	0	1011,56	6,1	8,3	8,1	1	1	1	1	1	1	1	1	1	0	1	-4,933051	273,393774	311,832205	0
15.01.2021	07:00:42	0	0	4,745355	2,02875	15,804	-0,382	85,531	0	1011,52	6,2	8,3	8,1	1	1	1	1	1	1	1	1	1	0	1	-3,875969	273,517889	313,464897	0
15.01.2021	07:00:43	0	0	3,841478	1,9185	10,4508	-0,386	85,517	0	1011,52	6,2	8,2	8,1	1	1	1	1	1	1	1	1	1	0	1	-2,818887	273,56718	314,750793	0
15.01.2021	07:00:44	0	0	4,971324	1,887	7,128	-0,385	85,509	0	1011,5	6,2	8,2	8,1	1	1	1	1	1	1	1	1	1	0	1	-5,84919	273,533822	311,565626	0
15.01.2021	07:00:45	0	0	5,423295	1,8525	354,6972	-0,389	85,529	0	1011,52	6,2	8,2	8	1	1	1	1	1	1	1	1	1	0	1	-0,070472	273,546868	317,404904	0
15.01.2021	07:00:46	0	0	4,745355	1,73025	1,9332	-0,385	85,529	0	1011,5	6,2	8,2	8,1	1	1	1	1	1	1	1	1	1	0	1	-0	273,587513	317,664104	0
15.01.2021	07:00:47	0	0	4,519412	1,63875	8,2584	-0,383	85,521	0	1011,48	6,1	8,2	8	1	1	1	1	1	1	1	1	1	0	1	-0,493305	273,523681	316,874443	0
15.01.2021	07:00:48	0	0	4,067447	1,56225	12,096	-0,382	85,521	0	1011,34	6,2	8,3	8,1	1	1	1	1	1	1	1	1	1	0	1	-2,889359	273,406726	313,935925	0
15.01.2021	07:00:49	0	0	3,954462	1,63425	13,9248	-0,392	85,531	0	1011,5	6,1	8,3	8,1	1	1	1	1	1	1	1	1	1	0	1	-2,043693	273,509204	315,256868	0
15.01.2021	07:00:50	0	0	2,598662	1,64475	24,732	-0,387	85,527	0	1011,54	6,2	8,2	8	1	1	1	1	1	1	1	1	1	0	1	-5,637773	273,403847	311,174167	0
15.01.2021	07:00:51	0	0	3,841478	1,614	5,6808	-0,39	85,528	0	1011,5	6,2	8,2	8,1	1	1	1	1	1	1	1	1	1	0	1	-4,510218	273,526578	312,870975	0
15.01.2021	07:00:52	0	0	2,711631	1,63125	18,828	-0,384	85,513	0	1011,56	6,2	8,2	8,1	1	1	1	1	1	1	1	1	1	0	1	-8,80902	273,588966	308,861832	0
15.01.2021	07:00:53	0	0	4,745298	1,8615	12,1032	-0,381	85,543	0	1011,4	6,2	8,3	8,3	1	1	1	1	1	1	1	1	1	0	1	-4,862579	273,431213	312,076224	0
15.01.2021	07:00:54	0	0	3,163551	2,334	2,6352	-0,385	85,541	0	1011,62	6,2	8,2	8,2	1	1	1	1	1	1	1	1	1	0	1	-2,536998	273,435537	314,421857	0
15.01.2021	07:00:55	0	0	2,824633	2,70525	15,786	-0,384	85,535	0	1011,64	6,2	8,2	8	1	1	1	1	1	1	1	1	1	0	1	-5,708245	273,429772	311,223876	0
15.01.2021	07:00:56	0	0	3,728493	2,814	8,6148	-0,386	85,54	0	1011,52	6,2	8,2	8,1	1	1	1	1	1	1	1	1	1	0	1	-6,976744	273,509204	310,323816	0
15.01.2021	07:00:57	0	0	3,050585	2,961	4,0932	-0,386	85,536	0	1011,5	6,2	8,2	8,1	1	1	1	1	1	1	1	1	1	0	1	-1,832276	273,416805	315,03973	0
15.01.2021	07:00:58	0	0	4,406427	2,994	9,3672	-0,381	85,524	0	1011,5	6,2	8,2	8	1	1	1	1	1	1	1	1	1	0	1	-3,875969	273,533822	313,538847	0
15.01.2021	07:00:59	0	0	3,728515	2,80275	26,9892	-0,382	85,544	0	1011,58	6,2	8,3	8	1	1	1	1	1	1	1	1	1	0	1	-6,412967	273,413924	310,445687	0
15.01.2021	07:01:00	0	0	5,084308	2,60775	8,604	-0,383	85,533	0	1011,42	6,2	8,3	8,1	1	1	1	1	1	1	1	1	1	0	1	-10,218464	273,549768	307,270377	0
15.01.2021	07:01:01	0	0	5,084308	2,60775	8,604	-0,383	85,533	0	1011,42	6,2	8,3	8,1	1	1	1	1	1	1	1	1	1	0	1	-10,218464	273,549768	307,270377	0
15.01.2021	07:01:02	0	0	2,372692	2,64525	19,9116	-0,383	85,541	0	1011,52	6,2	8,2	8	1	1	1	1	1	1	1	1	1	0	1	-8,879493	273,402407	307,925777	0
15.01.2021	07:01:03	0	0	3,163589	2,6805	13,932	-0,385	85,529	0	1011,4	6,2	8,3	8	1	1	1	1	1	1	1	1	1	0	1	-5,637773	273,520785	311,716533	0
15.01.2021	07:01:04	0	0	3,389498	2,661	22,8276	-0,377	85,538	0	1011,52	6,2	8,2	8,3	1	1	1	1	1	1	1	1	1	0	1	-5,003524	273,600595	312,721345	0
15.01.2021	07:01:05	0	0	3,16357	2,568	38,0736	-0,383	85,548	0	1011,42	6,1	8,2	8,1	1	1	1	1	1	1	1	1	1	0	1	-5,919662	273,475947	311,2266	0
15.01.2021	07:01:06	0	0	4,745383	2,60925	12,8556	-0,382	85,548	0	1011,48	6,2	8,3	8	1	1	1	1	1	1	1	1	1	0	1	-4,510218	273,597687	313,201143	0
15.01.2021	07:01:07	0	0	2,711647	2,601	10,8072	-0,38	85,55	0	1011,6	6,2	8,3	8	1	1	1	1	1	1	1	1	1	0	1	-2,959831	273,429772	313,97229	0
15.01.2021	07:01:08	0	0	3,61553	2,54925	12,8556	-0,384	85,531	0	1011,6	6,2	8,3	8	1	1	1	1	1	1	1	1	1	0	1	-9,090909	273,501969	308,176081	0
15.01.2021	07:01:09	0	0	3,050603	2,51625	6,0768	-0,384	85,537	0	1011,52	6,2	8,2	8	1	1	1	1	1	1	1	1	1	0	1	-0,775194	273,419685	316,110167	0
15.01.2021	07:01:10	0	0	2,372692	2,5275	6,0516	-0,387	85,535	0	1011,42	6,2	8,2	8	1	1	1	1	1	1	1	1	1	0	1	-5,144468	273,526578	312,236725	0
15.01.2021	07:01:11	0	0	4,293442	2,637	13,1796	-0,383	85,549	0	1011,56	6,2	8,2	8	1	1	1	1	1	1	1	1	1	0	1	-4,439746	273,406726	312,385538	0
15.01.2021	07:01:12	0	0	2,146695	2,75625	6,066	-0,384	85,548	0	1011,48	6,2	8,3	8,2	1	1	1	1	1	1	1	1	1	0	1	-0	273,475947	317,146261	0
15.01.2021	07:01:13	0	0	2,711647	2,85975	10,4472	-0,379	85,533	0	1011,5	6,2	8,2	8	1	1	1	1	1	1	1	1	1	0	1	-6,060606	273,402407	310,744663	0
15.01.2021	07:01:14	0	0	3,841478	2,77275	2,3004	-0,382	85,538	0	1011,6	6,1	8,3	8,1	1	1	1	1	1	1	1	1	1	0	1	-2,748414	273,494737	314,48502	0
15.01.2021	07:01:15	0	0	4,745355	2,61675	8,6076	-0,382	85,547	0	1011,46	6,2	8,1	8,1	1	1	1	1	1	1	1	1	1	0	1	-1,550388	273,413924	315,308266	0
15.01.2021	07:01:16	0	0	3,389559	2,55975	6,4404	-0,387	85,546	0	1011,48	6,2	8,3	8	1	1	1	1	1	1	1	1	1	0	1	-5,919662	273,517889	311,421204	0
15.01.2021	07:01:17	0	0	2,824616	2,48475	10,908	-0,384	85,54	0	1011,48	6,1	8,1	8,1	1	1	1	1	1	1	1	1	1	0	1	-7,540521	273,593326	310,150583	0
15.01.2021	07:01:18	0	0	2,9376	2,32725	3,3912	-0,39	85,547	0	1011,54	6,1	8,2	8,1	1	1	1	1	1	1	1	1	1	0	1	-0	273,572987	317,596645	0
15.01.2021	07:01:19	0	0	3,050603	2,166	7,8768	-0,383	85,538	0	1011,46	6,2	8,2	8	1	1	1	1	1	1	1	1	1	0	1	-3,735025	273,455731	313,317474	0
15.01.2021	07:01:20	0	0	4,632398	2,06925	10,818	-0,381	85,537	0	1011,52	6,2	8,3	8	1	1	1	1	1	1	1	1	1	0	1	-4,439746	273,409605	312,398884	0
15.01.2021	07:01:21	0	0	3,502545	1,98225	8,7048	-0,385	85,542	0	1011,56	6,2	8,3	8	1	1	1	1	1	1	1	1	1	0	1	-6,765328	273,532373	310,642763	0
15.01.2021	07:01:22	0	0	4,180456	1,86675	24,7248	-0,386	85,543	0	1011,38	6,2	8,2	8	1	1	1	1	1	1	1	1	1	0	1	-7,258633	273,586059	310,398722	0
15.01.2021	07:01:23	0	0	3,954415	1,842	11,7072	-0,385	85,528	0	1011,56	6,1	8,3	8,3	1	1	1	1	1	1	1	1	1	0	1	-7,117689	273,46728	309,988374	0
15.01.2021	07:01:24	0	0	5,197293	1,84575	22,8528	-0,389	85,527	0	1011,42	6,2	8,3	8,1	1	1	1	1	1	1	1	1	1	0	1	-9,302326	273,541069	308,146129	0
15.01.2021	07:01:25	0	0	3,61553	1,82475	18,0756	-0,386	85,545	0	1011,58	6,2	8,2	8	1	1	1	1	1	1	1	1	1	0	1	-7,117689	273,411045	309,727616	0
15.01.2021	07:01:26	0	0	2,824599	1,7775	18,45	-0,39	85,525	0	1011,44	6,2	8,2	8,2	1	1	1	1	1	1	1	1	1	0	1	-8,80902	273,464392	308,283647	0
15.01.2021	07:01:27	0	0	2,9376	1,84425	20,6496	-0,386	85,528	0	1011,62	6,2	8,3	8,1	1	1	1	1	1	1	1	1	1	0	1	-5,496829	273,416805	311,375177	0
15.01.2021	07:01:28	0	0	4,406401	1,82625	21,3804	-0,387	85,531	0	1011,44	6,2	8,2	8,1	1	1	1	1	1	1	1	1	1	0	1	-10,147992	273,478836	307,011674	0
15.01.2021	07:01:29	0	0	4,180456	1,8045	17,7084	-0,384	85,539	0	1011,58	6,2	8,2	8	1	1	1	1	1	1	1	1	1	0	1	-7,610994	273,419685	309,274367	0
15.01.2021	07:01:30	0	0	3,276554	1,93575	24,7284	-0,387	85,547	0	1011,52	6,2	8,2	8,1	1	1	1	1	1	1	1	1	1	0	1	-7,399577	273,528027	309,988339	0
15.01.2021	07:01:31	0	0	3,389559	2,12775	14,652	-0,389	85,536	0	1011,26	6,2	8,3	8	1	1	1	1	1	1	1	1	1	0	1	-7,82241	273,402407	308,982859	0
15.01.2021	07:01:32	0	0	4,293416	2,14575	17,712	-0,382	85,54	0	1011,5	6,2	8,2	8,1	1	1	1	1	1	1	1	1	1	0	1	-3,312192	273,451402	313,72023	0
15.01.2021	07:01:33	0	0	2,937618	2,1075	22,8384	-0,39	85,542	0	1011,5	6,2	8,3	8	1	1	1	1	1	1	1	1	1	0	1	-7,047216	273,396652	309,731375	0
15.01.2021	07:01:34	0	0	3,728515	2,07	21,762	-0,386	85,542	0	1011,5	6,2	8,2	8	1	1	1	1	1	1	1	1	1	0	1	-4,439746	273,470169	312,679713	0
15.01.2021	07:01:35	0	0	4,180456	2,02275	19,9008	-0,388	85,54	0	1011,64	6,2	8,3	8	1	1	1	1	1	1	1	1	1	0	1	-6,131078	273,565728	311,431861	0
15.01.2021	07:01:36	0	0	4,63237	1,92675	22,086	-0,386	85,543	0	1011,52	6,1	8,2	8,1	1	1	1	1	1	1	1	1	1	0	1	-9,866103	273,587513	307,798001	0
15.01.2021	07:01:37	0	0	3,502545	1,821	20,628	-0,382	85,534	0	1011,56	6,1	8,2	8	1	1	1	1	1	1	1	1	1	0	1	-4,933051	273,512098	312,380942	0
15.01.2021	07:01:38	0	0	3,050603	1,8105	16,8516	-0,384	85,551	0	1011,66	6,2	8,1	8	1	1	1	1	1	1	1	1	1	0	1	-1,550388	273,413924	315,308266	0
15.01.2021	07:01:39	0	0	4,632398	1,84125	0,8892	-0,38	85,558	0	1011,54	6,2	8,2	8	1	1	1	1	1	1	1	1	1	0	1	-3,735025	273,493291	313,4917	0
15.01.2021	07:01:40	0	0	3,276574	1,90725	19,2168	-0,384	85,548	0	1011,4	6,2	8,3	8	1	1	1	1	1	1	1	1	1	0	1	-4,862579	273,568631	312,713841	0
15.01.2021	07:01:41	0	0	3,841501	1,90725	7,5168	-0,384	85,548	0	1011,76	6,2	8,2	8	1	1	1	1	1	1	1	1	1	0	1	-7,117689	273,481726	310,055384	0
15.01.2021	07:01:42	0	0	3,16357	1,97775	13,5468	-0,385	85,54	0	1011,46	6,1	8,2	8,1	1	1	1	1	1	1	1	1	1	0	1	-6,20155	273,406726	310,623734	0
15.01.2021	07:01:43	0	0	3,16357	2,061	9,7596	-0,38	85,535	0	1011,5	6,2	8,2	8,1	1	1	1	1	1	1	1	1	1	0	1	-8,668076	273,425448	308,244001	0
15.01.2021	07:01:44	0	0	3,050567	2,4375	19,6128	-0,384	85,545	0	1011,46	6,1	8,3	8,2	1	1	1	1	1	1	1	1	1	0	1	-2,396054	273,436979	314,569486	0
15.01.2021	07:01:45	0	0	4,971324	2,649	11,1924	-0,383	85,533	0	1011,5	6,2	8,2	8,1	1	1	1	1	1	1	1	1	1	0	1	-5,990134	273,406726	310,83515	0
15.01.2021	07:01:46	0	0	4,971324	2,781	14,6628	-0,386	85,537	0	1011,56	6,2	8,3	8,1	1	1	1	1	1	1	1	1	1	0	1	-8,104299	273,559923	309,431687	0
15.01.2021	07:01:47	0	0	4,63237	2,739	10,0656	-0,382	85,557	0	1011,58	6,2	8,2	8,1	1	1	1	1	1	1	1	1	1	0	1	-8,45666	273,568631	309,11976	0
15.01.2021	07:01:48	0	0	3,61553	2,6865	15,4008	-0,387	85,549	0	1011,44	6,2	8,3	8	1	1	1	1	1	1	1	1	1	0	1	-0,704722	273,464392	316,387946	0
15.01.2021	07:01:49	0	0	2,711631	2,5785	4,0896	-0,384	85,544	0	1011,52	6,2	8,2	8,1	1	1	1	1	1	1	1	1	1	0	1	-0,563777	273,574439	317,039611	0
15.01.2021	07:01:50	0	0	4,858368	2,7195	6,0696	-0,382	85,564	0	1011,62	6,2	8,2	8	1	1	1	1	1	1	1	1	1	0	1	-7,047216	273,52513	310,327254	0
15.01.2021	07:01:51	0	0	4,067447	2,6385	8,2728	-0,388	85,554	0	1011,52	6,2	8,3	8,1	1	1	1	1	1	1	1	1	1	0	1	-2,536998	273,574439	315,066391	0
15.01.2021	07:01:52	0	0	3,728448	2,6415	15,4044	-0,39	85,547	0	1011,42	6,2	8,3	8,3	1	1	1	1	1	1	1	1	1	0	1	-3,24172	273,571535	314,348184	0
15.01.2021	07:01:53	0	0	2,485677	2,562	15,408	-0,389	85,551	0	1011,62	6,2	8,1	8	1	1	1	1	1	1	1	1	1	0	1	-5,919662	273,56718	311,650018	0
15.01.2021	07:01:54	0	0	3,728515	2,4465	14,652	-0,388	85,553	0	1011,56	6,2	8,2	8	1	1	1	1	1	1	1	1	1	0	1	-6,906272	273,562825	310,643189	0
15.01.2021	07:01:55	0	0	5,084247	2,4765	15,0408	-0,381	85,552	0	1011,54	6,1	8,2	8,3	1	1	1	1	1	1	1	1	1	0	1	-1,973221	273,490399	315,240088	0
15.01.2021	07:01:56	0	0	4,293442	2,63925	355,806	-0,391	85,552	0	1011,54	6,2	8,2	8	1	1	1	1	1	1	1	1	1	0	1	-4,510218	273,599141	313,207896	0
15.01.2021	07:01:57	0	0	5,42323	2,967	5,6772	-0,39	85,546	0	1011,44	6,1	8,2	8,2	1	1	1	1	1	1	1	1	1	0	1	-1,973221	273,451402	315,059201	0
15.01.2021	07:01:58	0	0	3,163589	3,0855	8,6328	-0,386	85,571	0	1011,36	6,2	8,3	8	1	1	1	1	1	1	1	1	1	0	1	-4,298802	273,412484	312,553177	0
15.01.2021	07:01:59	0	0	3,276574	2,84925	15,4008	-0,388	85,562	0	1011,52	6,2	8,2	8	1	1	1	1	1	1	1	1	1	0	1	-0	273,486062	317,193188	0
15.01.2021	07:02:00	0	0	2,485677	2,39925	15,4044	-0,387	85,562	0	1011,48	6,2	8,1	8	1	1	1	1	1	1	1	1	1	0	1	-6,412967	273,491845	310,807049	0
15.01.2021	07:02:01	0	0	2,485677	2,39925	15,4044	-0,387	85,562	0	1011,48	6,2	8,1	8	1	1	1	1	1	1	1	1	1	0	1	-6,412967	273,491845	310,807049	0
15.01.2021	07:02:02	0	0	4,180431	2,3955	18,4716	-0,391	85,561	0	1011,46	6,2	8,2	8,1	1	1	1	1	1	1	1	1	1	0	1	-2,818887	273,593326	314,872218	0
15.01.2021	07:02:03	0	0	2,711647	2,37975	19,9044	-0,385	85,57	0	1011,44	6,2	8,1	8	1	1	1	1	1	1	1	1	1	0	1	-0,422833	273,528027	316,965083	0
15.01.2021	07:02:04	0	0	4,406427	2,47875	17,226	-0,386	85,557	0	1011,5	6,2	8,2	8	1	1	1	1	1	1	1	1	1	0	1	-5,144468	273,588966	312,526385	0
15.01.2021	07:02:05	0	0	4,293442	2,81625	9,3708	-0,385	85,576	0	1011,6	6,2	8,2	8	1	1	1	1	1	1	1	1	1	0	1	-5,355884	273,481726	311,817188	0
15.01.2021	07:02:06	0	0	2,824633	3,1515	13,5432	-0,384	85,56	0	1011,46	6,1	8,2	8	1	1	1	1	1	1	1	1	1	0	1	-2,396054	273,422567	314,502664	0
15.01.2021	07:02:07	0	0	4,406427	3,2145	15,0372	-0,392	85,572	0	1011,44	6,2	8,2	8	1	1	1	1	1	1	1	1	1	0	1	-4,721635	273,491845	312,498381	0
15.01.2021	07:02:08	0	0	2,711615	2,994	9,3672	-0,385	85,578	0	1011,44	6,2	8,3	8,2	1	1	1	1	1	1	1	1	1	0	1	-5,21494	273,583154	312,42892	0
15.01.2021	07:02:09	0	0	4,745383	2,99925	15,408	-0,386	85,577	0	1011,5	6,1	8,2	8	1	1	1	1	1	1	1	1	1	0	1	-8,80902	273,532373	308,59907	0
15.01.2021	07:02:10	0	0	3,276574	3,02175	2,2932	-0,391	85,564	0	1011,52	6,2	8,3	8	1	1	1	1	1	1	1	1	1	0	1	-8,45666	273,416805	308,415347	0
15.01.2021	07:02:11	0	0	4,067471	3,09975	10,8252	-0,384	85,588	0	1011,5	6,2	8,2	8	1	1	1	1	1	1	1	1	1	0	1	-3,59408	273,504863	313,686336	0
15.01.2021	07:02:12	0	0	4,067447	3,0285	3,798	-0,389	85,572	0	1011,54	6,2	8,2	8,1	1	1	1	1	1	1	1	1	1	0	1	-1,127555	273,413924	315,731099	0
15.01.2021	07:02:13	0	0	4,519412	3,0795	14,7456	-0,385	85,567	0	1011,52	6,1	8,3	8	1	1	1	1	1	1	1	1	1	0	1	-5,144468	273,523681	312,22328	0
15.01.2021	07:02:14	0	0	2,9376	3,26775	11,7216	-0,381	85,581	0	1011,56	6,2	8,1	8,1	1	1	1	1	1	1	1	1	1	0	1	-1,127555	273,416805	315,744452	0
15.01.2021	07:02:15	0	0	4,63237	3,3555	9,7632	-0,384	85,568	0	1011,52	6,2	8,3	8,1	1	1	1	1	1	1	1	1	1	0	1	-3,523608	273,462949	313,562363	0
15.01.2021	07:02:16	0	0	3,954486	3,282	14,2956	-0,38	85,567	0	1011,56	6,2	8,3	8	1	1	1	1	1	1	1	1	1	0	1	-6,342495	273,552669	311,159813	0
15.01.2021	07:02:17	0	0	4,63237	3,0885	11,2968	-0,386	85,558	0	1011,54	6,2	8,2	8,1	1	1	1	1	1	1	1	1	1	0	1	-8,104299	273,408165	308,727658	0
15.01.2021	07:02:18	0	0	4,858368	3,09975	13,1616	-0,384	85,583	0	1011,46	6,1	8,2	8	1	1	1	1	1	1	1	1	1	0	1	-2,466526	273,572987	315,13012	0
15.01.2021	07:02:19	0	0	4,406427	3,10875	10,44	-0,385	85,568	0	1011,38	6,2	8,2	8	1	1	1	1	1	1	1	1	1	0	1	-2,748414	273,570083	314,834747	0
15.01.2021	07:02:20	0	0	3,16357	3,02175	18,0648	-0,388	85,571	0	1011,56	6,2	8,2	8,1	1	1	1	1	1	1	1	1	1	0	1	-5,708245	273,436979	311,257294	0
15.01.2021	07:02:21	0	0	3,050567	3,039	20,286	-0,385	85,576	0	1011,48	6,2	8,2	8,2	1	1	1	1	1	1	1	1	1	0	1	-4,933051	273,426889	311,985706	0
15.01.2021	07:02:22	0	0	4,067471	3,26025	30,3264	-0,388	85,575	0	1011,66	6,2	8,2	8	1	1	1	1	1	1	1	1	1	0	1	-7,82241	273,432654	309,123076	0
15.01.2021	07:02:23	0	0	2,598662	3,231	12,8556	-0,384	85,577	0	1011,62	6,2	8,2	8	1	1	1	1	1	1	1	1	1	0	1	-8,174771	273,408165	308,657186	0
15.01.2021	07:02:24	0	0	3,276574	3,16725	6,0588	-0,387	85,56	0	1011,54	6,2	8,2	8	1	1	1	1	1	1	1	1	1	0	1	-0,281889	273,475947	316,864373	0
15.01.2021	07:02:25	0	0	2,598662	3,13575	11,7108	-0,386	85,566	0	1011,5	6,2	8,3	8	1	1	1	1	1	1	1	1	1	0	1	-0,422833	273,432654	316,522654	0
15.01.2021	07:02:26	0	0	5,084278	3,15375	12,0924	-0,382	85,572	0	1011,64	6,1	8,2	8,2	1	1	1	1	1	1	1	1	1	0	1	-3,453136	273,543968	314,008778	0
15.01.2021	07:02:27	0	0	3,61553	3,24075	14,6664	-0,385	85,573	0	1011,62	6,2	8,2	8	1	1	1	1	1	1	1	1	1	0	1	-10,570825	273,580248	307,059542	0
15.01.2021	07:02:28	0	0	5,649266	3,12525	19,9116	-0,386	85,58	0	1011,54	6,2	8,3	8	1	1	1	1	1	1	1	1	1	0	1	-9,866103	273,452845	307,17301	0
15.01.2021	07:02:29	0	0	4,406427	3,0885	7,1424	-0,388	85,55	0	1011,48	6,2	8,3	8	1	1	1	1	1	1	1	1	1	0	1	-4,651163	273,55557	312,864614	0
15.01.2021	07:02:30	0	0	2,598662	3,0585	15,4188	-0,389	85,564	0	1011,28	6,2	8,2	8	1	1	1	1	1	1	1	1	1	0	1	-5,144468	273,447074	311,867883	0
15.01.2021	07:02:31	0	0	4,745383	3,00375	11,7144	-0,385	85,57	0	1011,5	6,2	8,3	8	1	1	1	1	1	1	1	1	1	0	1	-7,329105	273,455731	309,723393	0
15.01.2021	07:02:32	0	0	3,276574	2,80575	23,5944	-0,385	85,564	0	1011,3	6,2	8,2	8	1	1	1	1	1	1	1	1	1	0	1	-6,906272	273,412484	309,945707	0
15.01.2021	07:02:33	0	0	3,61553	2,4825	18,4536	-0,384	85,583	0	1011,5	6,2	8,2	8	1	1	1	1	1	1	1	1	1	0	1	-5,778717	273,413924	311,079937	0
15.01.2021	07:02:34	0	0	3,728515	2,199	26,1864	-0,393	85,564	0	1011,52	6,2	8,2	8	1	1	1	1	1	1	1	1	1	0	1	-1,198027	273,412484	315,653952	0
15.01.2021	07:02:35	0	0	4,180456	2,0205	10,4292	-0,387	85,573	0	1011,44	6,1	8,2	8	1	1	1	1	1	1	1	1	1	0	1	-6,553911	273,441305	310,431686	0
15.01.2021	07:02:36	0	0	2,598647	2,03775	19,9044	-0,384	85,573	0	1011,54	6,2	8,3	8,1	1	1	1	1	1	1	1	1	1	0	1	-3,100775	273,441305	313,884823	0
15.01.2021	07:02:37	0	0	2,711615	2,211	26,9028	-0,387	85,583	0	1011,52	6,2	8,3	8,2	1	1	1	1	1	1	1	1	1	0	1	-7,470049	273,449959	309,555681	0
15.01.2021	07:02:38	0	0	3,276574	2,3985	15,7824	-0,385	85,557	0	1011,5	6,2	8,2	8	1	1	1	1	1	1	1	1	1	0	1	-3,805497	273,571535	313,784406	0
15.01.2021	07:02:39	0	0	3,61553	2,3385	15,0336	-0,388	85,576	0	1011,54	6,2	8,3	8	1	1	1	1	1	1	1	1	1	0	1	-4,933051	273,552669	312,569256	0
15.01.2021	07:02:40	0	0	4,519412	2,2305	19,908	-0,385	85,566	0	1011,38	6,2	8,2	8	1	1	1	1	1	1	1	1	1	0	1	-7,681466	273,568631	309,894954	0
15.01.2021	07:02:41	0	0	3,050603	2,23575	22,068	-0,391	85,571	0	1011,42	6,2	8,3	8	1	1	1	1	1	1	1	1	1	0	1	-2,114165	273,436979	314,851374	0
15.01.2021	07:02:42	0	0	3,050603	2,19825	10,4472	-0,385	85,577	0	1011,58	6,2	8,1	8	1	1	1	1	1	1	1	1	1	0	1	-4,510218	273,564277	313,045982	0
15.01.2021	07:02:43	0	0	4,406374	2,169	12,852	-0,387	85,565	0	1011,54	6,2	8,2	8,2	1	1	1	1	1	1	1	1	1	0	1	-7,188161	273,55412	310,320881	0
15.01.2021	07:02:44	0	0	2,937618	2,0925	19,908	-0,384	85,578	0	1011,56	6,2	8,3	8	1	1	1	1	1	1	1	1	1	0	1	-6,060606	273,572987	311,536039	0
15.01.2021	07:02:45	0	0	3,954486	2,0145	9,7452	-0,382	85,569	0	1011,54	6,2	8,3	8	1	1	1	1	1	1	1	1	1	0	1	-5,496829	273,484617	311,689653	0
15.01.2021	07:02:46	0	0	4,745383	2,01675	19,53	-0,386	85,57	0	1011,7	6,2	8,2	8	1	1	1	1	1	1	1	1	1	0	1	-6,765328	273,578796	310,858294	0
15.01.2021	07:02:47	0	0	3,389559	1,97925	14,3244	-0,388	85,563	0	1011,52	6,2	8,2	8	1	1	1	1	1	1	1	1	1	0	1	-2,889359	273,449959	314,136372	0
15.01.2021	07:02:48	0	0	3,276574	2,0235	40,6152	-0,385	85,571	0	1011,7	6,2	8,2	8	1	1	1	1	1	1	1	1	1	0	1	-8,174771	273,572987	309,421875	0
15.01.2021	07:02:49	0	0	3,502503	1,92525	26,1576	-0,391	85,578	0	1011,52	6,2	8,2	8,2	1	1	1	1	1	1	1	1	1	0	1	-7,892882	273,510651	309,414394	0
15.01.2021	07:02:50	0	0	3,389539	1,82025	13,9176	-0,386	85,575	0	1011,52	6,2	8,3	8,1	1	1	1	1	1	1	1	1	1	0	1	-5,496829	273,402407	311,308441	0
15.01.2021	07:02:51	0	0	4,971354	1,72125	15,7896	-0,384	85,571	0	1011,5	6,2	8,1	8	1	1	1	1	1	1	1	1	1	0	1	-4,721635	273,513546	312,599076	0
15.01.2021	07:02:52	0	0	3,728515	1,752	32,5044	-0,385	85,567	0	1011,52	6,2	8,2	8	1	1	1	1	1	1	1	1	1	0	1	-3,664553	273,578796	313,959069	0
15.01.2021	07:02:53	0	0	4,858368	1,77375	12,8448	-0,389	85,559	0	1011,5	6,2	8,2	8	1	1	1	1	1	1	1	1	1	0	1	-3,875969	273,535271	313,545573	0
15.01.2021	07:02:54	0	0	4,858368	1,9305	22,464	-0,393	85,575	0	1011,46	6,1	8,3	8	1	1	1	1	1	1	1	1	1	0	1	-4,933051	273,588966	312,737801	0
15.01.2021	07:02:55	0	0	4,858368	1,96425	21,384	-0,391	85,56	0	1011,4	6,2	8,2	8	1	1	1	1	1	1	1	1	1	0	1	-11,346018	273,548318	306,13609	0
15.01.2021	07:02:56	0	0	5,084339	1,998	17,2404	-0,387	85,574	0	1011,56	6,2	8,2	8	1	1	1	1	1	1	1	1	1	0	1	-2,889359	273,413924	313,969295	0
15.01.2021	07:02:57	0	0	4,745383	2,091	10,4364	-0,39	85,57	0	1011,48	6,2	8,3	8	1	1	1	1	1	1	1	1	1	0	1	-5,990134	273,513546	311,330577	0
15.01.2021	07:02:58	0	0	4,745383	2,14425	12,8556	-0,393	85,575	0	1011,58	6,2	8,3	8	1	1	1	1	1	1	1	1	1	0	1	-8,738548	273,575891	308,871584	0
15.01.2021	07:02:59	0	0	3,841501	2,16975	13,914	-0,389	85,56	0	1011,54	6,2	8,3	8	1	1	1	1	1	1	1	1	1	0	1	-9,302326	273,493291	307,924399	0
15.01.2021	07:03:00	0	0	3,61553	2,10375	4,0968	-0,387	85,588	0	1011,44	6,2	8,2	8	1	1	1	1	1	1	1	1	1	0	1	-5,355884	273,452845	311,683229	0
15.01.2021	07:03:01	0	0	3,61553	2,10375	4,0968	-0,387	85,588	0	1011,44	6,2	8,2	8	1	1	1	1	1	1	1	1	1	0	1	-5,355884	273,452845	311,683229	0
15.01.2021	07:03:02	0	0	4,745355	2,15325	10,7928	-0,386	85,579	0	1011,54	6,2	8,1	8,1	1	1	1	1	1	1	1	1	1	0	1	-4,721635	273,571535	312,868268	0
15.01.2021	07:03:03	0	0	3,61553	2,08275	8,6112	-0,39	85,568	0	1011,44	6,2	8,2	8	1	1	1	1	1	1	1	1	1	0	1	-4,792107	273,509204	312,508453	0
15.01.2021	07:03:04	0	0	4,519385	2,12775	6,4224	-0,386	85,58	0	1011,48	6,1	8,3	8,1	1	1	1	1	1	1	1	1	1	0	1	-2,959831	273,56718	314,609849	0
15.01.2021	07:03:05	0	0	2,711647	2,19225	6,0696	-0,388	85,578	0	1011,6	6,2	8,2	8	1	1	1	1	1	1	1	1	1	0	1	-8,597604	273,458618	308,468282	0
15.01.2021	07:03:06	0	0	3,841501	2,16825	359,9352	-0,392	85,571	0	1011,5	6,2	8,2	8	1	1	1	1	1	1	1	1	1	0	1	-5,778717	273,406726	311,046567	0
15.01.2021	07:03:07	0	0	4,293442	2,259	3,4128	-0,385	85,584	0	1011,66	6,2	8,1	8	1	1	1	1	1	1	1	1	1	0	1	-5,144468	273,504863	312,135948	0
15.01.2021	07:03:08	0	0	3,389559	2,23125	11,7	-0,385	85,581	0	1011,6	6,2	8,1	8	1	1	1	1	1	1	1	1	1	0	1	-6,624383	273,546868	310,850993	0
15.01.2021	07:03:09	0	0	4,519412	2,13675	345,0348	-0,386	85,581	0	1011,52	6,2	8,3	8	1	1	1	1	1	1	1	1	1	0	1	-6,060606	273,580248	311,569761	0
15.01.2021	07:03:10	0	0	3,502545	2,2365	354,2724	-0,393	85,587	0	1011,46	6,2	8,1	8	1	1	1	1	1	1	1	1	1	0	1	-5,144468	273,557021	312,378045	0
15.01.2021	07:03:11	0	0	4,971354	2,394	15,4008	-0,383	85,589	0	1011,52	6,2	8,2	8	1	1	1	1	1	1	1	1	1	0	1	-5,567301	273,439863	311,41161	0
15.01.2021	07:03:12	0	0	3,163589	2,19525	9,3816	-0,392	85,581	0	1011,46	6,2	8,2	8	1	1	1	1	1	1	1	1	1	0	1	-2,255109	273,432654	314,690377	0
15.01.2021	07:03:13	0	0	2,598662	1,9485	13,1652	-0,392	85,579	0	1011,62	6,2	8,2	8	1	1	1	1	1	1	1	1	1	0	1	-6,906272	273,442747	310,086013	0
15.01.2021	07:03:14	0	0	4,406427	2,037	2,304	-0,387	85,592	0	1011,6	6,2	8,3	8	1	1	1	1	1	1	1	1	1	0	1	-8,104299	273,56718	309,465381	0
15.01.2021	07:03:15	0	0	4,406427	2,21025	6,0624	-0,387	85,565	0	1011,52	6,2	8,2	8	1	1	1	1	1	1	1	1	1	0	1	-5,708245	273,529475	311,686395	0
15.01.2021	07:03:16	0	0	4,293442	2,295	2,3076	-0,392	85,578	0	1011,48	6,2	8,1	8	1	1	1	1	1	1	1	1	1	0	1	-5,355884	273,400968	311,442715	0
15.01.2021	07:03:17	0	0	3,728515	2,12625	1,5804	-0,39	85,574	0	1011,32	6,2	8,3	8	1	1	1	1	1	1	1	1	1	0	1	-1,832276	273,473057	315,300583	0
15.01.2021	07:03:18	0	0	3,389559	1,938	9,7452	-0,389	85,575	0	1011,54	6,2	8,3	8	1	1	1	1	1	1	1	1	1	0	1	-5,84919	273,415365	311,01614	0
15.01.2021	07:03:19	0	0	3,954486	1,86525	11,322	-0,389	85,561	0	1011,46	6,2	8,2	8	1	1	1	1	1	1	1	1	1	0	1	-1,479915	273,53672	315,948354	0
15.01.2021	07:03:20	0	0	4,632398	2,1495	4,8492	-0,387	85,568	0	1011,62	6,2	8,1	8	1	1	1	1	1	1	1	1	1	0	1	-6,272023	273,39809	310,513238	0
15.01.2021	07:03:21	0	0	4,519412	2,65275	16,8624	-0,386	85,574	0	1011,5	6,2	8,2	8	1	1	1	1	1	1	1	1	1	0	1	-4,22833	273,510651	313,078947	0
15.01.2021	07:03:22	0	0	4,519385	2,63925	8,9928	-0,397	85,567	0	1011,5	6,2	8,2	8,1	1	1	1	1	1	1	1	1	1	0	1	-6,624383	273,561374	310,91834	0
15.01.2021	07:03:23	0	0	4,519412	2,96175	40,23	-0,387	85,58	0	1011,56	6,2	8,1	8	1	1	1	1	1	1	1	1	1	0	1	-3,030303	273,587513	314,633801	0
15.01.2021	07:03:24	0	0	3,502545	3,02775	39,546	-0,383	85,586	0	1011,6	6,2	8,1	8	1	1	1	1	1	1	1	1	1	0	1	-4,016913	273,475947	313,129348	0
15.01.2021	07:03:25	0	0	3,163589	2,75175	21,7836	-0,391	85,567	0	1011,4	6,2	8,2	8	1	1	1	1	1	1	1	1	1	0	1	-5,778717	273,444189	311,220256	0
15.01.2021	07:03:26	0	0	2,711647	2,50125	16,8804	-0,382	85,59	0	1011,46	6,2	8,2	8	1	1	1	1	1	1	1	1	1	0	1	-3,664553	273,421126	313,227486	0
15.01.2021	07:03:27	0	0	4,519412	2,35725	5,2344	-0,386	85,591	0	1011,52	6,2	8,3	8	1	1	1	1	1	1	1	1	1	0	1	-0,98661	273,438421	315,985615	0
15.01.2021	07:03:28	0	0	3,163589	2,292	33,2568	-0,39	85,575	0	1011,42	6,2	8,2	8	1	1	1	1	1	1	1	1	1	0	1	-7,188161	273,409605	309,65047	0
15.01.2021	07:03:29	0	0	3,502545	2,154	29,0916	-0,388	85,574	0	1011,58	6,2	8,1	8	1	1	1	1	1	1	1	1	1	0	1	-6,624383	273,578796	310,999238	0
15.01.2021	07:03:30	0	0	4,406427	2,15775	4,086	-0,392	85,582	0	1011,48	6,2	8,3	8	1	1	1	1	1	1	1	1	1	0	1	-5,778717	273,471613	311,347442	0
15.01.2021	07:03:31	0	0	2,711647	2,1465	16,0992	-0,388	85,588	0	1011,52	6,2	8,2	8	1	1	1	1	1	1	1	1	1	0	1	-0,493305	273,448517	316,525735	0
15.01.2021	07:03:32	0	0	3,841454	2,23875	360	-0,39	85,577	0	1011,56	6,2	8,3	8,2	1	1	1	1	1	1	1	1	1	0	1	-3,805497	273,558472	313,723752	0
15.01.2021	07:03:33	0	0	3,954486	2,27625	14,31	-0,386	85,584	0	1011,56	6,1	8,2	8	1	1	1	1	1	1	1	1	1	0	1	-5,84919	273,580248	311,781177	0
15.01.2021	07:03:34	0	0	3,841501	2,2575	13,9176	-0,389	85,571	0	1011,46	6,2	8,2	8	1	1	1	1	1	1	1	1	1	0	1	-5,073996	273,460061	311,998585	0
15.01.2021	07:03:35	0	0	3,728515	2,12925	26,4852	-0,394	85,563	0	1011,22	6,2	8,2	8	1	1	1	1	1	1	1	1	1	0	1	-2,043693	273,426889	314,875065	0
15.01.2021	07:03:36	0	0	4,632398	1,94775	21,7692	-0,39	85,571	0	1011,52	6,2	8,3	8	1	1	1	1	1	1	1	1	1	0	1	-3,453136	273,545418	314,015509	0
15.01.2021	07:03:37	0	0	3,163589	1,779	17,2332	-0,394	85,578	0	1011,6	6,2	8,3	8	1	1	1	1	1	1	1	1	1	0	1	-6,694856	273,449959	310,330875	0
15.01.2021	07:03:38	0	0	4,180456	1,842	16,8552	-0,392	85,577	0	1011,48	6,2	8,2	8	1	1	1	1	1	1	1	1	1	0	1	-7,751938	273,56718	309,817741	0
15.01.2021	07:03:39	0	0	3,276554	1,98	17,6868	-0,386	85,58	0	1011,66	6,2	8,2	8,1	1	1	1	1	1	1	1	1	1	0	1	-3,664553	273,392336	313,094037	0
15.01.2021	07:03:40	0	0	4,406401	2,08125	18,45	-0,395	85,582	0	1011,28	6,2	8,2	8,1	1	1	1	1	1	1	1	1	1	0	1	-4,721635	273,516441	312,612512	0
15.01.2021	07:03:41	0	0	4,519412	2,20725	4,8348	-0,385	85,582	0	1011,58	6,1	8,2	8	1	1	1	1	1	1	1	1	1	0	1	-8,668076	273,584606	308,982531	0
15.01.2021	07:03:42	0	0	2,598662	2,28	4,104	-0,392	85,581	0	1011,62	6,2	8,2	8	1	1	1	1	1	1	1	1	1	0	1	-5,073996	273,484617	312,112486	0
15.01.2021	07:03:43	0	0	3,728515	2,2485	16,4952	-0,396	85,568	0	1011,64	6,2	8,2	8	1	1	1	1	1	1	1	1	1	0	1	-4,862579	273,400968	311,93602	0
15.01.2021	07:03:44	0	0	4,858368	2,20575	8,6076	-0,384	85,583	0	1011,5	6,2	8,2	8	1	1	1	1	1	1	1	1	1	0	1	-7,681466	273,49763	309,565389	0
15.01.2021	07:03:45	0	0	4,406427	2,26575	7,8192	-0,389	85,586	0	1011,6	6,2	8,3	8	1	1	1	1	1	1	1	1	1	0	1	-2,114165	273,575891	315,495967	0
15.01.2021	07:03:46	0	0	2,824633	2,31375	7,1424	-0,392	85,575	0	1011,56	6,2	8,2	8	1	1	1	1	1	1	1	1	1	0	1	-1,198027	273,488953	316,008574	0
15.01.2021	07:03:47	0	0	3,841501	2,33175	10,44	-0,383	85,574	0	1011,44	6,2	8,3	8	1	1	1	1	1	1	1	1	1	0	1	-6,342495	273,413924	310,516159	0
15.01.2021	07:03:48	0	0	3,841501	2,24925	20,6316	-0,388	85,57	0	1011,48	6,2	8,2	8	1	1	1	1	1	1	1	1	1	0	1	-4,369274	273,510651	312,938002	0
15.01.2021	07:03:49	0	0	4,293442	2,17125	18,8388	-0,391	85,57	0	1011,44	6,2	8,2	8	1	1	1	1	1	1	1	1	1	0	1	-6,8358	273,578796	310,787822	0
15.01.2021	07:03:50	0	0	5,31031	2,058	16,8624	-0,392	85,569	0	1011,5	6,1	8,1	8	1	1	1	1	1	1	1	1	1	0	1	-5,003524	273,488953	312,203077	0
15.01.2021	07:03:51	0	0	4,406374	2,148	12,4776	-0,388	85,578	0	1011,56	6,2	8,2	8,2	1	1	1	1	1	1	1	1	1	0	1	-8,033827	273,581701	309,603286	0
15.01.2021	07:03:52	0	0	3,276574	2,274	16,992	-0,391	85,564	0	1011,36	6,2	8,1	8	1	1	1	1	1	1	1	1	1	0	1	-4,087385	273,475947	313,058876	0
15.01.2021	07:03:53	0	0	4,293442	2,3505	16,5024	-0,385	85,588	0	1011,4	6,1	8,2	8	1	1	1	1	1	1	1	1	1	0	1	-7,399577	273,591872	310,284776	0
15.01.2021	07:03:54	0	0	2,485677	2,43825	11,7216	-0,384	85,58	0	1011,56	6,1	8,1	8	1	1	1	1	1	1	1	1	1	0	1	-1,62086	273,419685	315,264501	0
15.01.2021	07:03:55	0	0	4,858368	2,5305	3,0348	-0,387	85,575	0	1011,52	6,2	8,2	8	1	1	1	1	1	1	1	1	1	0	1	-6,131078	273,543968	311,330836	0
15.01.2021	07:03:56	0	0	3,163589	2,583	12,8592	-0,393	85,586	0	1011,56	6,2	8,2	8	1	1	1	1	1	1	1	1	1	0	1	-3,171247	273,557021	314,351265	0
15.01.2021	07:03:57	0	0	2,711647	2,4495	19,5156	-0,39	85,569	0	1011,52	6,2	8,1	8	1	1	1	1	1	1	1	1	1	0	1	-5,355884	273,416805	311,516122	0
15.01.2021	07:03:58	0	0	3,61553	2,21175	9,3672	-0,386	85,565	0	1011,46	6,2	8,2	8	1	1	1	1	1	1	1	1	1	0	1	-8,245243	273,562825	309,304218	0
15.01.2021	07:03:59	0	0	4,293442	1,97175	24,714	-0,391	85,571	0	1011,52	6,2	8,3	8	1	1	1	1	1	1	1	1	1	0	1	-6,976744	273,56718	310,592935	0
15.01.2021	07:04:00	0	0	3,389559	1,7355	15,4116	-0,387	85,567	0	1011,62	6,2	8,2	8	1	1	1	1	1	1	1	1	1	0	1	-3,523608	273,406726	313,301676	0
15.01.2021	07:04:01	0	0	3,389559	1,7355	15,4116	-0,387	85,567	0	1011,62	6,2	8,2	8	1	1	1	1	1	1	1	1	1	0	1	-3,523608	273,406726	313,301676	0
15.01.2021	07:04:02	0	0	3,276574	1,7175	14,3028	-0,388	85,578	0	1011,58	6,2	8,2	8	1	1	1	1	1	1	1	1	1	0	1	-7,047216	273,528027	310,3407	0
15.01.2021	07:04:03	0	0	3,841501	1,89075	18,4428	-0,384	85,577	0	1011,54	6,2	8,2	8	1	1	1	1	1	1	1	1	1	0	1	-2,255109	273,408165	314,576848	0
15.01.2021	07:04:04	0	0	5,084339	1,9665	20,6388	-0,389	85,551	0	1011,58	6,2	8,3	8	1	1	1	1	1	1	1	1	1	0	1	-4,721635	273,53672	312,706635	0
15.01.2021	07:04:05	0	0	4,632398	2,073	28,7316	-0,392	85,564	0	1011,64	6,2	8,3	8	1	1	1	1	1	1	1	1	1	0	1	-5,567301	273,577343	312,049576	0
15.01.2021	07:04:06	0	0	3,050603	2,11725	21,3912	-0,384	85,559	0	1011,56	6,2	8,2	8	1	1	1	1	1	1	1	1	1	0	1	-5,778717	273,491845	311,441299	0
15.01.2021	07:04:07	0	0	2,937618	2,034	19,1556	-0,385	85,551	0	1011,6	6,2	8,2	8	1	1	1	1	1	1	1	1	1	0	1	-6,553911	273,402407	310,251358	0
15.01.2021	07:04:08	0	0	3,050603	2,06025	47,7576	-0,396	85,561	0	1011,56	6,2	8,2	8	1	1	1	1	1	1	1	1	1	0	1	-5,778717	273,474502	311,360843	0
15.01.2021	07:04:09	0	0	2,485677	2,1855	23,976	-0,387	85,563	0	1011,5	6,2	8,2	8	1	1	1	1	1	1	1	1	1	0	1	-1,832276	273,416805	315,03973	0
15.01.2021	07:04:10	0	0	3,163551	2,2245	23,2128	-0,387	85,563	0	1011,52	6,2	8,2	8,2	1	1	1	1	1	1	1	1	1	0	1	-2,396054	273,441305	314,589544	0
15.01.2021	07:04:11	0	0	4,745383	2,29425	21,7548	-0,388	85,571	0	1011,54	6,2	8,3	8	1	1	1	1	1	1	1	1	1	0	1	-7,188161	273,413924	309,670493	0
15.01.2021	07:04:12	0	0	3,61553	2,29425	9,7416	-0,388	85,573	0	1011,56	6,2	8,1	8	1	1	1	1	1	1	1	1	1	0	1	-7,82241	273,445632	309,183251	0
15.01.2021	07:04:13	0	0	4,745326	2,22675	14,6484	-0,388	85,555	0	1011,5	6,2	8,3	8,2	1	1	1	1	1	1	1	1	1	0	1	-7,047216	273,53817	310,387781	0
15.01.2021	07:04:14	0	0	4,406427	2,253	22,8348	-0,385	85,578	0	1011,54	6,2	8,2	8	1	1	1	1	1	1	1	1	1	0	1	-2,889359	273,565728	314,673581	0
15.01.2021	07:04:15	0	0	4,067471	2,3595	18,4608	-0,387	85,567	0	1011,6	6,2	8,2	8	1	1	1	1	1	1	1	1	1	0	1	-7,188161	273,526578	310,193032	0
15.01.2021	07:04:16	0	0	3,502545	2,47575	18,8388	-0,385	85,568	0	1011,54	6,2	8,2	8	1	1	1	1	1	1	1	1	1	0	1	-1,832276	273,422567	315,066442	0
15.01.2021	07:04:17	0	0	4,858368	2,5995	19,5408	-0,387	85,556	0	1011,52	6,2	8,2	8	1	1	1	1	1	1	1	1	1	0	1	-8,245243	273,530924	309,156122	0
15.01.2021	07:04:18	0	0	2,937618	2,613	21,5316	-0,392	85,56	0	1011,5	6,2	8,2	8	1	1	1	1	1	1	1	1	1	0	1	-4,862579	273,588966	312,808274	0
15.01.2021	07:04:19	0	0	3,841501	2,5635	19,1664	-0,389	85,58	0	1011,66	6,2	8,2	8	1	1	1	1	1	1	1	1	1	0	1	-7,681466	273,480281	309,484903	0
15.01.2021	07:04:20	0	0	3,050567	2,61225	21,006	-0,385	85,571	0	1011,54	6,2	8,1	8,2	1	1	1	1	1	1	1	1	1	0	1	-8,245243	273,580248	309,385124	0
15.01.2021	07:04:21	0	0	5,197324	2,895	19,152	-0,385	85,58	0	1011,56	6,2	8,2	8	1	1	1	1	1	1	1	1	1	0	1	-2,255109	273,449959	314,770622	0
15.01.2021	07:04:22	0	0	2,711615	3,069	23,5872	-0,392	85,579	0	1011,56	6,2	8,2	8,2	1	1	1	1	1	1	1	1	1	0	1	-5,84919	273,539619	311,592536	0
15.01.2021	07:04:23	0	0	4,632398	2,9685	21,0168	-0,393	85,571	0	1011,5	6,2	8,2	8	1	1	1	1	1	1	1	1	1	0	1	-1,761804	273,448517	315,257236	0
15.01.2021	07:04:24	0	0	3,502503	2,95875	17,7156	-0,392	85,562	0	1011,56	6,2	8,1	8,2	1	1	1	1	1	1	1	1	1	0	1	-10,42988	273,458618	306,636006	0
15.01.2021	07:04:25	0	0	2,824633	2,9355	21,0384	-0,392	85,561	0	1011,54	6,2	8,2	8	1	1	1	1	1	1	1	1	1	0	1	-7,117689	273,408165	309,714268	0
15.01.2021	07:04:26	0	0	4,858368	2,94	30,7008	-0,384	85,581	0	1011,54	6,2	8,2	8	1	1	1	1	1	1	1	1	1	0	1	-7,610994	273,522233	309,750033	0
15.01.2021	07:04:27	0	0	4,519412	2,90625	19,1412	-0,399	85,579	0	1011,38	6,2	8,2	8	1	1	1	1	1	1	1	1	1	0	1	-8,668076	273,581701	308,969037	0
15.01.2021	07:04:28	0	0	3,728515	2,85225	18,8388	-0,385	85,569	0	1011,52	6,1	8,1	8	1	1	1	1	1	1	1	1	1	0	1	-4,016913	273,461505	313,062362	0
15.01.2021	07:04:29	0	0	3,163589	2,80425	19,908	-0,391	85,564	0	1011,44	6,2	8,2	8	1	1	1	1	1	1	1	1	1	0	1	-6,412967	273,399529	310,378963	0
15.01.2021	07:04:30	0	0	4,632398	2,76375	10,4508	-0,392	85,572	0	1011,46	6,2	8,2	8	1	1	1	1	1	1	1	1	1	0	1	-4,792107	273,462949	312,293864	0
15.01.2021	07:04:31	0	0	5,197324	2,7585	12,852	-0,385	85,569	0	1011,5	6,2	8,1	8	1	1	1	1	1	1	1	1	1	0	1	-7,751938	273,583154	309,891922	0
15.01.2021	07:04:32	0	0	3,954438	2,77875	12,4704	-0,387	85,573	0	1011,52	6,2	8,2	8,2	1	1	1	1	1	1	1	1	1	0	1	-4,510218	273,458618	312,555667	0
15.01.2021	07:04:33	0	0	3,954486	2,757	12,8556	-0,388	85,571	0	1011,48	6,2	8,2	8	1	1	1	1	1	1	1	1	1	0	1	-11,205074	273,429772	305,727047	0
15.01.2021	07:04:34	0	0	2,598662	2,69325	18,0792	-0,394	85,571	0	1011,66	6,2	8,2	8	1	1	1	1	1	1	1	1	1	0	1	-10,077519	273,429772	306,854602	0
15.01.2021	07:04:35	0	0	5,423295	2,63475	6,8256	-0,394	85,559	0	1011,42	6,2	8,1	8	1	1	1	1	1	1	1	1	1	0	1	-8,597604	273,55557	308,918173	0
15.01.2021	07:04:36	0	0	3,502545	2,73825	16,4736	-0,393	85,575	0	1011,38	6,2	8,2	8	1	1	1	1	1	1	1	1	1	0	1	-5,990134	273,409605	310,848496	0
15.01.2021	07:04:37	0	0	4,745383	2,72325	9,7524	-0,394	85,565	0	1011,52	6,2	8,2	8	1	1	1	1	1	1	1	1	1	0	1	-5,426357	273,559923	312,109629	0
15.01.2021	07:04:38	0	0	3,728515	2,5875	20,2932	-0,387	85,581	0	1011,5	6,2	8,2	8	1	1	1	1	1	1	1	1	1	0	1	-6,553911	273,532373	310,854179	0
15.01.2021	07:04:39	0	0	3,954438	2,508	16,4736	-0,395	85,573	0	1011,52	6,2	8,2	8,2	1	1	1	1	1	1	1	1	1	0	1	-9,866103	273,411045	306,979201	0
15.01.2021	07:04:40	0	0	3,502545	2,442	16,1028	-0,388	85,564	0	1011,6	6,2	8,3	8	1	1	1	1	1	1	1	1	1	0	1	-6,483439	273,516441	310,850708	0
15.01.2021	07:04:41	0	0	4,632398	2,4105	13,914	-0,392	85,574	0	1011,52	6,2	8,2	8	1	1	1	1	1	1	1	1	1	0	1	-5,778717	273,411045	311,066587	0
15.01.2021	07:04:42	0	0	2,937583	2,37	23,22	-0,385	85,551	0	1011,48	6,2	8,2	8,2	1	1	1	1	1	1	1	1	1	0	1	-5,426357	273,528027	311,96156	0
15.01.2021	07:04:43	0	0	3,954486	2,316	18,8388	-0,392	85,571	0	1011,5	6,2	8,3	8	1	1	1	1	1	1	1	1	1	0	1	-1,902748	273,411045	314,942556	0
15.01.2021	07:04:44	0	0	3,389559	2,19225	18,8316	-0,384	85,57	0	1011,54	6,2	8,2	8	1	1	1	1	1	1	1	1	1	0	1	-6,060606	273,481726	311,112467	0
15.01.2021	07:04:45	0	0	3,276574	2,247	10,0512	-0,389	85,562	0	1011,54	6,2	8,1	8	1	1	1	1	1	1	1	1	1	0	1	-8,104299	273,421126	308,78774	0
15.01.2021	07:04:46	0	0	3,276535	2,32575	18,072	-0,392	85,575	0	1011,58	6,2	8,2	8,2	1	1	1	1	1	1	1	1	1	0	1	-5,990134	273,429772	310,941987	0
15.01.2021	07:04:47	0	0	3,728515	2,385	16,488	-0,392	85,557	0	1011,66	6,2	8,1	8	1	1	1	1	1	1	1	1	1	0	1	-4,510218	273,557021	313,012294	0
15.01.2021	07:04:48	0	0	3,389559	2,3025	20,628	-0,39	85,561	0	1011,44	6,2	8,2	8	1	1	1	1	1	1	1	1	1	0	1	-5,355884	273,546868	312,119492	0
15.01.2021	07:04:49	0	0	4,632398	2,20425	13,5468	-0,387	85,551	0	1011,54	6,2	8,2	8	1	1	1	1	1	1	1	1	1	0	1	-6,553911	273,572987	311,042734	0
15.01.2021	07:04:50	0	0	4,519358	2,20125	18,0792	-0,389	85,568	0	1011,54	6,2	8,1	8,2	1	1	1	1	1	1	1	1	1	0	1	-3,946441	273,55412	313,562601	0
15.01.2021	07:04:51	0	0	4,406427	2,3265	10,8216	-0,399	85,563	0	1011,52	6,2	8,2	8	1	1	1	1	1	1	1	1	1	0	1	-6,342495	273,435537	310,61636	0
15.01.2021	07:04:52	0	0	2,937618	2,36325	4,0896	-0,391	85,566	0	1011,54	6,2	8,2	8	1	1	1	1	1	1	1	1	1	0	1	-5,919662	273,588966	311,751191	0
15.01.2021	07:04:53	0	0	3,954438	2,35875	4,464	-0,389	85,542	0	1011,44	6,2	8,1	8,2	1	1	1	1	1	1	1	1	1	0	1	-7,117689	273,535271	310,303854	0
15.01.2021	07:04:54	0	0	4,29339	2,409	2,7252	-0,396	85,56	0	1011,44	6,2	8,1	8,2	1	1	1	1	1	1	1	1	1	0	1	-6,412967	273,458618	310,652919	0
15.01.2021	07:04:55	0	0	4,519412	2,4615	1,9224	-0,388	85,565	0	1011,58	6,2	8,2	8	1	1	1	1	1	1	1	1	1	0	1	-2,677942	273,413924	314,180712	0
15.01.2021	07:04:56	0	0	4,858368	2,62425	21,7836	-0,394	85,572	0	1011,56	6,2	8,2	8	1	1	1	1	1	1	1	1	1	0	1	-8,174771	273,539619	309,266954	0
15.01.2021	07:04:57	0	0	3,163589	2,58225	21,0132	-0,39	85,572	0	1011,6	6,2	8,2	8	1	1	1	1	1	1	1	1	1	0	1	-0	273,448517	317,01904	0
15.01.2021	07:04:58	0	0	3,163589	2,499	1,1772	-0,393	85,557	0	1011,52	6,2	8,2	8	1	1	1	1	1	1	1	1	1	0	1	-4,792107	273,557021	312,730406	0
15.01.2021	07:04:59	0	0	3,502503	2,35425	17,2368	-0,392	85,562	0	1011,54	6,2	8,2	8,2	1	1	1	1	1	1	1	1	1	0	1	-10,993658	273,438421	305,978567	0
15.01.2021	07:05:00	0	0	4,519412	2,14575	357,2604	-0,387	85,562	0	1011,4	6,2	8,2	8	1	1	1	1	1	1	1	1	1	0	1	-4,510218	273,422567	312,388499	0
15.01.2021	07:05:01	0	0	4,519412	2,14575	357,2604	-0,387	85,562	0	1011,4	6,2	8,2	8	1	1	1	1	1	1	1	1	1	0	1	-4,510218	273,422567	312,388499	0
15.01.2021	07:05:02	0	0	3,276574	1,97475	6,0804	-0,393	85,552	0	1011,7	6,2	8,1	8	1	1	1	1	1	1	1	1	1	0	1	-6,553911	273,412484	310,298068	0
15.01.2021	07:05:03	0	0	3,163589	1,7685	3,024	-0,39	85,571	0	1011,52	6,1	8,2	8	1	1	1	1	1	1	1	1	1	0	1	-3,171247	273,452845	313,867866	0
15.01.2021	07:05:04	0	0	3,050603	1,66425	17,2152	-0,393	85,574	0	1011,54	6,2	8,1	8	1	1	1	1	1	1	1	1	1	0	1	-6,060606	273,416805	310,8114	0
15.01.2021	07:05:05	0	0	4,180456	1,61475	17,2332	-0,395	85,563	0	1011,42	6,2	8,2	8	1	1	1	1	1	1	1	1	1	0	1	-5,073996	273,561374	312,468728	0
15.01.2021	07:05:06	0	0	3,389559	1,599	7,938	-0,388	85,57	0	1011,6	6,2	8,2	8	1	1	1	1	1	1	1	1	1	0	1	-4,298802	273,488953	312,907799	0
15.01.2021	07:05:07	0	0	2,711647	1,55475	25,0416	-0,389	85,58	0	1011,7	6,2	8,2	8	1	1	1	1	1	1	1	1	1	0	1	-2,043693	273,388021	314,694901	0
15.01.2021	07:05:08	0	0	3,050603	1,5165	10,0548	-0,397	85,57	0	1011,42	6,2	8,2	8	1	1	1	1	1	1	1	1	1	0	1	-3,664553	273,465836	313,434812	0
15.01.2021	07:05:09	0	0	4,858368	1,59075	28,8144	-0,387	85,579	0	1011,56	6,2	8,2	8	1	1	1	1	1	1	1	1	1	0	1	-6,342495	273,409605	310,496136	0
15.01.2021	07:05:10	0	0	2,485677	1,5885	20,2824	-0,392	85,567	0	1011,54	6,2	8,2	8	1	1	1	1	1	1	1	1	1	0	1	-0,422833	273,452845	316,61628	0
15.01.2021	07:05:11	0	0	2,711615	1,61625	9,7524	-0,393	85,556	0	1011,68	6,2	8,2	8,2	1	1	1	1	1	1	1	1	1	0	1	-2,60747	273,539619	314,834255	0
15.01.2021	07:05:12	0	0	3,728515	1,728	7,884	-0,389	85,574	0	1011,54	6,2	8,2	8	1	1	1	1	1	1	1	1	1	0	1	-5,919662	273,415365	310,945668	0
15.01.2021	07:05:13	0	0	4,406427	1,77825	7,8804	-0,391	85,573	0	1011,54	6,2	8,1	8	1	1	1	1	1	1	1	1	1	0	1	-6,060606	273,552669	311,441701	0
15.01.2021	07:05:14	0	0	4,519412	1,7895	7,8912	-0,388	85,573	0	1011,64	6,2	8,2	8	1	1	1	1	1	1	1	1	1	0	1	-8,45666	273,473057	308,6762	0
15.01.2021	07:05:15	0	0	4,067471	1,94025	6,0696	-0,39	85,578	0	1011,56	6,2	8,3	8	1	1	1	1	1	1	1	1	1	0	1	-2,466526	273,587513	315,197578	0
15.01.2021	07:05:16	0	0	3,841501	2,19675	8,5968	-0,396	85,583	0	1011,66	6,2	8,2	8	1	1	1	1	1	1	1	1	1	0	1	-2,255109	273,458618	314,810776	0
15.01.2021	07:05:17	0	0	4,858368	2,49225	12,4704	-0,386	85,576	0	1011,52	6,2	8,2	8	1	1	1	1	1	1	1	1	1	0	1	-4,580691	273,571535	313,009212	0
15.01.2021	07:05:18	0	0	3,61553	2,6475	9,3708	-0,391	85,57	0	1011,48	6,2	8,2	8	1	1	1	1	1	1	1	1	1	0	1	-5,708245	273,542518	311,746939	0
15.01.2021	07:05:19	0	0	3,389519	2,6535	17,2404	-0,387	85,599	0	1011,58	6,2	8,2	8,2	1	1	1	1	1	1	1	1	1	0	1	-8,104299	273,514993	309,223129	0
15.01.2021	07:05:20	0	0	4,632342	2,57325	12,474	-0,388	85,578	0	1011,6	6,2	8,2	8,2	1	1	1	1	1	1	1	1	1	0	1	-5,708245	273,412484	311,143734	0
15.01.2021	07:05:21	0	0	3,050603	2,48175	9,3636	-0,386	85,576	0	1011,6	6,2	8,2	8	1	1	1	1	1	1	1	1	1	0	1	-3,171247	273,455731	313,881251	0
15.01.2021	07:05:22	0	0	4,293442	2,45925	18,8388	-0,388	85,582	0	1011,62	6,2	8,3	8	1	1	1	1	1	1	1	1	1	0	1	-2,043693	273,439863	314,935218	0
15.01.2021	07:05:23	0	0	3,61553	2,376	15,4152	-0,387	85,585	0	1011,4	6,2	8,2	8	1	1	1	1	1	1	1	1	1	0	1	-5,496829	273,405286	311,321783	0
15.01.2021	07:05:24	0	0	4,067471	2,40375	22,9284	-0,392	85,581	0	1011,54	6,2	8,2	8	1	1	1	1	1	1	1	1	1	0	1	-6,553911	273,493291	310,672814	0
15.01.2021	07:05:25	0	0	4,293442	2,64225	25,4268	-0,393	85,581	0	1011,54	6,2	8,2	8	1	1	1	1	1	1	1	1	1	0	1	-3,312192	273,580248	314,318175	0
15.01.2021	07:05:26	0	0	2,824633	2,77125	19,9044	-0,39	85,571	0	1011,44	6,2	8,1	8	1	1	1	1	1	1	1	1	1	0	1	-5,496829	273,444189	311,502144	0
15.01.2021	07:05:27	0	0	3,728515	2,694	21,0384	-0,389	85,588	0	1011,6	6,2	8,2	8	1	1	1	1	1	1	1	1	1	0	1	-6,906272	273,590419	310,771331	0
15.01.2021	07:05:28	0	0	3,954486	2,472	4,464	-0,39	85,583	0	1011,52	6,2	8,2	8	1	1	1	1	1	1	1	1	1	0	1	-1,62086	273,539619	315,820866	0
15.01.2021	07:05:29	0	0	2,485677	2,463	9,7488	-0,389	85,59	0	1011,66	6,2	8,2	8	1	1	1	1	1	1	1	1	1	0	1	-4,510218	273,590419	313,167384	0
15.01.2021	07:05:30	0	0	3,841501	2,5635	357,6636	-0,391	85,582	0	1011,58	6,2	8,2	8	1	1	1	1	1	1	1	1	1	0	1	-1,832276	273,454288	315,213529	0
15.01.2021	07:05:31	0	0	2,824633	2,72625	4,0896	-0,388	85,578	0	1011,52	6,2	8,2	8	1	1	1	1	1	1	1	1	1	0	1	-0,98661	273,578796	316,637011	0
15.01.2021	07:05:32	0	0	3,163589	2,65125	4,4748	-0,385	85,579	0	1011,56	6,2	8,2	8	1	1	1	1	1	1	1	1	1	0	1	-1,550388	273,53817	315,88461	0
15.01.2021	07:05:33	0	0	2,485677	2,59725	5,6772	-0,395	85,572	0	1011,5	6,2	8,1	8	1	1	1	1	1	1	1	1	1	0	1	-2,255109	273,584606	315,395498	0
15.01.2021	07:05:34	0	0	3,276574	2,598	2,6388	-0,388	85,578	0	1011,62	6,2	8,2	8	1	1	1	1	1	1	1	1	1	0	1	-4,510218	273,35928	312,095204	0
15.01.2021	07:05:35	0	0	2,259706	2,76225	358,3836	-0,391	85,583	0	1011,62	6,2	8,2	8	1	1	1	1	1	1	1	1	1	0	1	-3,59408	273,552669	313,908227	0
15.01.2021	07:05:36	0	0	3,050603	3,003	352,5408	-0,391	85,578	0	1011,54	6,2	8,2	8	1	1	1	1	1	1	1	1	1	0	1	-0	273,438421	316,972225	0
15.01.2021	07:05:37	0	0	4,632398	3,114	6,8292	-0,387	85,566	0	1011,48	6,2	8,1	8	1	1	1	1	1	1	1	1	1	0	1	-1,409443	273,580248	316,220924	0
15.01.2021	07:05:38	0	0	4,632398	3,03375	15,5088	-0,398	85,574	0	1011,54	6,2	8,1	8	1	1	1	1	1	1	1	1	1	0	1	-5,144468	273,530924	312,256897	0
15.01.2021	07:05:39	0	0	4,858368	2,94375	3,762	-0,395	85,564	0	1011,42	6,2	8,1	8	1	1	1	1	1	1	1	1	1	0	1	-4,157858	273,415365	312,707472	0
15.01.2021	07:05:40	0	0	3,163589	2,922	11,7216	-0,392	85,575	0	1011,66	6,2	8,2	8	1	1	1	1	1	1	1	1	1	0	1	-5,073996	273,50631	312,213135	0
15.01.2021	07:05:41	0	0	2,937618	2,9595	7,524	-0,397	85,568	0	1011,58	6,2	8,2	8	1	1	1	1	1	1	1	1	1	0	1	-5,285412	273,590419	312,392191	0
15.01.2021	07:05:42	0	0	3,954486	2,91	16,542	-0,394	85,588	0	1011,56	6,2	8,2	8	1	1	1	1	1	1	1	1	1	0	1	-8,033827	273,539619	309,407899	0
15.01.2021	07:05:43	0	0	2,824633	2,832	12,8448	-0,392	85,569	0	1011,46	6,2	8,2	8	1	1	1	1	1	1	1	1	1	0	1	-7,047216	273,415365	309,818113	0
15.01.2021	07:05:44	0	0	4,858368	2,88825	12,8412	-0,395	85,571	0	1011,6	6,2	8,1	8	1	1	1	1	1	1	1	1	1	0	1	-7,188161	273,483172	309,991617	0
15.01.2021	07:05:45	0	0	3,050603	2,985	31,0068	-0,389	85,58	0	1011,62	6,2	8,2	8	1	1	1	1	1	1	1	1	1	0	1	-4,862579	273,422567	312,036139	0
15.01.2021	07:05:46	0	0	4,067471	2,946	22,0896	-0,394	85,577	0	1011,52	6,2	8,2	8	1	1	1	1	1	1	1	1	1	0	1	-8,245243	273,439863	308,733668	0
15.01.2021	07:05:47	0	0	3,050603	2,94975	7,5096	-0,394	85,581	0	1011,56	6,2	8,2	8	1	1	1	1	1	1	1	1	1	0	1	-2,184637	273,55412	315,324405	0
15.01.2021	07:05:48	0	0	2,711647	3,11175	22,8456	-0,395	85,573	0	1011,48	6,2	8,2	8	1	1	1	1	1	1	1	1	1	0	1	-1,973221	273,457175	315,085971	0
15.01.2021	07:05:49	0	0	2,259706	3,06675	22,824	-0,394	85,57	0	1011,46	6,2	8,2	8	1	1	1	1	1	1	1	1	1	0	1	-2,396054	273,565728	315,166886	0
15.01.2021	07:05:50	0	0	2,598662	2,85525	15,1416	-0,392	85,594	0	1011,56	6,2	8,2	8	1	1	1	1	1	1	1	1	1	0	1	-7,540521	273,568631	310,035899	0
15.01.2021	07:05:51	0	0	2,485677	2,64	11,2032	-0,393	85,585	0	1011,58	6,2	8,2	8	1	1	1	1	1	1	1	1	1	0	1	-1,62086	273,512098	315,693133	0
15.01.2021	07:05:52	0	0	3,841501	2,583	6,8148	-0,39	85,589	0	1011,6	6,2	8,2	8	1	1	1	1	1	1	1	1	1	0	1	-9,302326	273,583154	308,341534	0
15.01.2021	07:05:53	0	0	4,406427	2,832	8,2548	-0,392	85,591	0	1011,62	6,2	8,1	8	1	1	1	1	1	1	1	1	1	0	1	-0,281889	273,46728	316,824174	0
15.01.2021	07:05:54	0	0	4,067471	2,8575	15,4044	-0,385	85,572	0	1011,44	6,2	8,2	8	1	1	1	1	1	1	1	1	1	0	1	-1,198027	273,412484	315,653952	0
15.01.2021	07:05:55	0	0	4,180456	2,6805	3,0276	-0,393	85,593	0	1011,58	6,2	8,2	8	1	1	1	1	1	1	1	1	1	0	1	-2,466526	273,464392	314,626142	0
15.01.2021	07:05:56	0	0	4,632398	2,583	20,1456	-0,388	85,584	0	1011,78	6,2	8,3	8	1	1	1	1	1	1	1	1	1	0	1	-5,003524	273,409605	311,835107	0
15.01.2021	07:05:57	0	0	4,745383	2,58075	3,7908	-0,395	85,578	0	1011,5	6,2	8,2	8	1	1	1	1	1	1	1	1	1	0	1	-5,567301	273,49763	311,679554	0
15.01.2021	07:05:58	0	0	3,163551	3,048	0,486	-0,392	85,592	0	1011,64	6,2	8,2	8,2	1	1	1	1	1	1	1	1	1	0	1	-7,117689	273,577343	310,499188	0
15.01.2021	07:05:59	0	0	4,067471	3,5355	8,9892	-0,395	85,579	0	1011,7	6,2	8,2	8	1	1	1	1	1	1	1	1	1	0	1	-3,735025	273,484617	313,451458	0
15.01.2021	07:06:00	0	0	4,519412	3,17175	7,1316	-0,394	85,601	0	1011,72	6,2	8,2	8	1	1	1	1	1	1	1	1	1	0	1	-2,818887	273,503416	314,454816	0
15.01.2021	07:06:01	0	0	2,937618	2,94225	8,604	-0,392	85,591	0	1011,62	6,2	8,2	8	1	1	1	1	1	1	1	1	1	0	1	-2,818887	273,503416	314,454816	0
15.01.2021	07:06:02	0	0	2,937618	2,94225	8,604	-0,392	85,591	0	1011,62	6,2	8,2	8	1	1	1	1	1	1	1	1	1	0	1	-3,030303	273,577343	314,586573	0
15.01.2021	07:06:03	0	0	3,502545	2,84025	2,2932	-0,395	85,578	0	1011,36	6,2	8,3	8	1	1	1	1	1	1	1	1	1	0	1	-5,21494	273,539619	312,226785	0
15.01.2021	07:06:04	0	0	3,502545	2,79225	17,7768	-0,393	85,585	0	1011,58	6,2	8,2	8	1	1	1	1	1	1	1	1	1	0	1	-5,355884	273,571535	312,234019	0
15.01.2021	07:06:05	0	0	4,632342	2,7825	22,8564	-0,391	85,588	0	1011,58	6,2	8,2	8,2	1	1	1	1	1	1	1	1	1	0	1	-2,677942	273,513546	314,642768	0
15.01.2021	07:06:06	0	0	4,293442	2,64375	16,4664	-0,392	85,595	0	1011,64	6,2	8,1	8	1	1	1	1	1	1	1	1	1	0	1	-5,496829	273,591872	312,187524	0
15.01.2021	07:06:07	0	0	3,050603	2,65875	5,6628	-0,39	85,596	0	1011,5	6,2	8,2	8	1	1	1	1	1	1	1	1	1	0	1	-0,211416	273,451402	316,821005	0
15.01.2021	07:06:08	0	0	3,276574	2,67975	25,0668	-0,39	85,598	0	1011,54	6,2	8,2	8	1	1	1	1	1	1	1	1	1	0	1	-5,285412	273,516441	312,048734	0
15.01.2021	07:06:09	0	0	3,050603	2,655	9,7452	-0,392	85,6	0	1011,6	6,2	8,2	8	1	1	1	1	1	1	1	1	1	0	1	-8,315715	273,412484	308,536264	0
15.01.2021	07:06:10	0	0	4,971354	2,80575	13,5432	-0,393	85,574	0	1011,6	6,2	8,2	8	1	1	1	1	1	1	1	1	1	0	1	-6,976744	273,503416	310,296959	0
15.01.2021	07:06:11	0	0	3,389519	3,26325	10,062	-0,388	85,599	0	1011,48	6,2	8,2	8,2	1	1	1	1	1	1	1	1	1	0	1	-4,510218	273,396652	312,268373	0
15.01.2021	07:06:12	0	0	4,180456	3,5025	12,1068	-0,394	85,576	0	1011,58	6,2	8,1	8	1	1	1	1	1	1	1	1	1	0	1	-6,553911	273,512098	310,760082	0
15.01.2021	07:06:13	0	0	2,711647	3,7515	11,2068	-0,391	85,585	0	1011,48	6,2	8,2	8	1	1	1	1	1	1	1	1	1	0	1	-6,8358	273,584606	310,814807	0
15.01.2021	07:06:14	0	0	2,598662	3,7935	7,8732	-0,39	85,573	0	1011,44	6,2	8,2	8	1	1	1	1	1	1	1	1	1	0	1	-6,624383	273,403847	310,187557	0
15.01.2021	07:06:15	0	0	2,937618	3,90525	3,0276	-0,394	85,588	0	1011,62	6,2	8,2	8	1	1	1	1	1	1	1	1	1	0	1	-0,916138	273,503416	316,357565	0
15.01.2021	07:06:16	0	0	4,519412	3,7275	18,8496	-0,39	85,597	0	1011,62	6,2	8,1	8	1	1	1	1	1	1	1	1	1	0	1	-2,889359	273,424007	314,016039	0
15.01.2021	07:06:17	0	0	4,745383	3,40125	22,0824	-0,394	85,594	0	1011,62	6,2	8,2	8	1	1	1	1	1	1	1	1	1	0	1	-7,681466	273,457175	309,377726	0
15.01.2021	07:06:18	0	0	2,372692	3,36	10,8108	-0,385	85,593	0	1011,66	6,2	8,2	8	1	1	1	1	1	1	1	1	1	0	1	-6,694856	273,438421	310,277369	0
15.01.2021	07:06:19	0	0	2,824633	3,43575	17,6796	-0,394	85,586	0	1011,4	6,2	8,2	8	1	1	1	1	1	1	1	1	1	0	1	-3,382664	273,418245	313,496019	0
15.01.2021	07:06:20	0	0	3,163589	3,3285	17,2332	-0,394	85,576	0	1011,56	6,2	8,2	8	1	1	1	1	1	1	1	1	1	0	1	-2,677942	273,529475	314,716698	0
15.01.2021	07:06:21	0	0	4,519412	3,3705	19,8972	-0,395	85,584	0	1011,42	6,2	8,2	8	1	1	1	1	1	1	1	1	1	0	1	-7,540521	273,575891	310,069611	0
15.01.2021	07:06:22	0	0	3,502503	3,37575	7,5024	-0,391	85,598	0	1011,64	6,2	8,2	8,2	1	1	1	1	1	1	1	1	1	0	1	-4,157858	273,53817	313,27714	0
15.01.2021	07:06:23	0	0	4,971354	3,44775	3,0276	-0,392	85,578	0	1011,64	6,2	8,2	8	1	1	1	1	1	1	1	1	1	0	1	-1,338971	273,42833	315,586468	0
15.01.2021	07:06:24	0	0	4,745383	3,501	359,8056	-0,391	85,583	0	1011,6	6,2	8,2	8	1	1	1	1	1	1	1	1	1	0	1	-0	273,461505	317,079276	0
15.01.2021	07:06:25	0	0	3,050603	3,5655	11,7252	-0,391	85,588	0	1011,6	6,2	8,1	8	1	1	1	1	1	1	1	1	1	0	1	-8,949965	273,532373	308,458125	0
15.01.2021	07:06:26	0	0	2,598662	3,582	11,7216	-0,394	85,593	0	1011,58	6,2	8,2	8	1	1	1	1	1	1	1	1	1	0	1	-7,399577	273,572987	310,197068	0
15.01.2021	07:06:27	0	0	2,711647	3,534	8,5968	-0,393	85,582	0	1011,56	6,2	8,2	8	1	1	1	1	1	1	1	1	1	0	1	-3,523608	273,474502	313,615952	0
15.01.2021	07:06:28	0	0	2,598631	3,51975	0	-0,392	85,598	0	1011,66	6,2	8,2	8,2	1	1	1	1	1	1	1	1	1	0	1	-7,047216	273,55412	310,461826	0
15.01.2021	07:06:29	0	0	4,406427	3,59175	13,554	-0,392	85,574	0	1011,64	6,2	8,2	8	1	1	1	1	1	1	1	1	1	0	1	-2,184637	273,513546	315,136073	0
15.01.2021	07:06:30	0	0	4,632342	3,45825	4,842	-0,393	85,588	0	1011,58	6,2	8,2	8,2	1	1	1	1	1	1	1	1	1	0	1	-5,84919	273,587513	311,814914	0
15.01.2021	07:06:31	0	0	4,632398	3,3795	8,2548	-0,392	85,562	0	1011,46	6,2	8,1	8	1	1	1	1	1	1	1	1	1	0	1	-5,708245	273,545418	311,760399	0
15.01.2021	07:06:32	0	0	3,502503	3,192	18,468	-0,396	85,581	0	1011,7	6,2	8,2	8,2	1	1	1	1	1	1	1	1	1	0	1	-2,677942	273,583154	314,965918	0
15.01.2021	07:06:33	0	0	4,293442	3,06975	17,6976	-0,394	85,58	0	1011,64	6,2	8,2	8	1	1	1	1	1	1	1	1	1	0	1	-4,016913	273,552669	313,485394	0
15.01.2021	07:06:34	0	0	4,180406	2,89725	18,4536	-0,395	85,591	0	1011,56	6,2	8,2	8,2	1	1	1	1	1	1	1	1	1	0	1	-4,157858	273,436979	312,807682	0
15.01.2021	07:06:35	0	0	3,841501	2,718	18,0972	-0,395	85,588	0	1011,56	6,2	8,2	8	1	1	1	1	1	1	1	1	1	0	1	-1,057082	273,578796	316,566539	0
15.01.2021	07:06:36	0	0	2,824599	2,63925	13,536	-0,393	85,589	0	1011,52	6,2	8,2	8,2	1	1	1	1	1	1	1	1	1	0	1	-5,778717	273,460061	311,293863	0
15.01.2021	07:06:37	0	0	4,745383	2,73075	14,6916	-0,389	85,587	0	1011,56	6,2	8,2	8	1	1	1	1	1	1	1	1	1	0	1	-7,470049	273,574439	310,133339	0
15.01.2021	07:06:38	0	0	4,519412	2,70375	19,8936	-0,394	85,565	0	1011,44	6,2	8,2	8	1	1	1	1	1	1	1	1	1	0	1	-6,976744	273,577343	310,640132	0
15.01.2021	07:06:39	0	0	4,745383	2,7255	16,1136	-0,394	85,578	0	1011,48	6,2	8,2	8	1	1	1	1	1	1	1	1	1	0	1	-4,439746	273,526578	312,941447	0
15.01.2021	07:06:40	0	0	3,728515	2,769	6,0588	-0,394	85,577	0	1011,58	6,2	8,2	8	1	1	1	1	1	1	1	1	1	0	1	-3,664553	273,593326	314,026552	0
15.01.2021	07:06:41	0	0	3,276535	3,0345	10,08	-0,387	85,571	0	1011,64	6,2	8,1	8,2	1	1	1	1	1	1	1	1	1	0	1	-6,483439	273,510651	310,823838	0
15.01.2021	07:06:42	0	0	2,598662	3,294	4,464	-0,392	85,585	0	1011,64	6,2	8,2	8	1	1	1	1	1	1	1	1	1	0	1	-5,919662	273,477391	311,233302	0
15.01.2021	07:06:43	0	0	4,632398	3,44925	9,7524	-0,4	85,573	0	1011,54	6,2	8,2	8	1	1	1	1	1	1	1	1	1	0	1	-1,127555	273,583154	316,516305	0
15.01.2021	07:06:44	0	0	4,632342	3,474	8,6724	-0,395	85,557	0	1011,36	6,2	8,2	8,2	1	1	1	1	1	1	1	1	1	0	1	-6,272023	273,545418	311,196622	0
15.01.2021	07:06:45	0	0	4,180406	3,35475	12,096	-0,391	85,557	0	1011,46	6,2	8,1	8,2	1	1	1	1	1	1	1	1	1	0	1	-5,144468	273,422567	311,75425	0
15.01.2021	07:06:46	0	0	2,711615	3,0915	11,7036	-0,393	85,558	0	1011,5	6,2	8,2	8,2	1	1	1	1	1	1	1	1	1	0	1	-4,862579	273,474502	312,276981	0
15.01.2021	07:06:47	0	0	3,841501	3,04425	13,914	-0,395	85,567	0	1011,7	6,2	8,2	8	1	1	1	1	1	1	1	1	1	0	1	-2,677942	273,418245	314,200741	0
15.01.2021	07:06:48	0	0	4,067471	2,793	18,4572	-0,395	85,556	0	1011,4	6,2	8,2	8	1	1	1	1	1	1	1	1	1	0	1	-4,510218	273,577343	313,106658	0
15.01.2021	07:06:49	0	0	4,180456	2,67	16,866	-0,394	85,569	0	1011,56	6,2	8,2	8	1	1	1	1	1	1	1	1	1	0	1	-8,668076	273,520785	308,68623	0
15.01.2021	07:06:50	0	0	3,728471	2,55525	12,4668	-0,39	85,558	0	1011,4	6,2	8,2	8,2	1	1	1	1	1	1	1	1	1	0	1	-7,681466	273,594779	310,01639	0
15.01.2021	07:06:51	0	0	4,858368	2,6655	13,914	-0,394	85,544	0	1011,62	6,2	8,2	8	1	1	1	1	1	1	1	1	1	0	1	-5,84919	273,500522	311,411088	0
15.01.2021	07:06:52	0	0	4,519412	2,64	16,8516	-0,395	85,553	0	1011,42	6,2	8,2	8	1	1	1	1	1	1	1	1	1	0	1	-2,677942	273,583154	314,965918	0
15.01.2021	07:06:53	0	0	4,180456	2,67825	8,6148	-0,396	85,569	0	1011,56	6,2	8,2	8	1	1	1	1	1	1	1	1	1	0	1	-5,21494	273,557021	312,307573	0
15.01.2021	07:06:54	0	0	4,745383	2,742	8,2548	-0,396	85,567	0	1011,58	6,2	8,2	8	1	1	1	1	1	1	1	1	1	0	1	-5,003524	273,478836	312,156142	0
15.01.2021	07:06:55	0	0	5,084339	2,57775	0,972	-0,394	85,569	0	1011,72	6,2	8,2	8	1	1	1	1	1	1	1	1	1	0	1	-2,255109	273,408165	314,576848	0
15.01.2021	07:06:56	0	0	3,841501	2,44425	2,6532	-0,39	85,567	0	1011,52	6,2	8,2	8	1	1	1	1	1	1	1	1	1	0	1	-3,735025	273,468724	313,377736	0
15.01.2021	07:06:57	0	0	3,954486	2,42175	3,7836	-0,392	85,563	0	1011,52	6,2	8,2	8	1	1	1	1	1	1	1	1	1	0	1	-6,060606	273,449959	310,965125	0
15.01.2021	07:06:58	0	0	4,180456	2,427	9,0108	-0,389	85,566	0	1011,64	6,2	8,2	8	1	1	1	1	1	1	1	1	1	0	1	-3,523608	273,570083	314,059553	0
15.01.2021	07:06:59	0	0	3,61553	2,46375	5,6808	-0,398	85,554	0	1011,7	6,2	8,2	8	1	1	1	1	1	1	1	1	1	0	1	-3,875969	273,406726	312,949315	0
15.01.2021	07:07:00	0	0	3,163589	2,38125	19,1448	-0,392	85,561	0	1011,62	6,2	8,2	8	1	1	1	1	1	1	1	1	1	0	1	-2,536998	273,499076	314,716568	0
15.01.2021	07:07:01	0	0	3,163589	2,38125	19,1448	-0,392	85,561	0	1011,62	6,2	8,2	8	1	1	1	1	1	1	1	1	1	0	1	-2,536998	273,499076	314,716568	0
15.01.2021	07:07:02	0	0	2,711615	2,4525	6,4368	-0,391	85,555	0	1011,62	6,2	8,2	8,2	1	1	1	1	1	1	1	1	1	0	1	-2,184637	273,415365	314,680693	0
15.01.2021	07:07:03	0	0	5,197324	2,658	15,408	-0,392	85,558	0	1011,64	6,2	8,2	8	1	1	1	1	1	1	1	1	1	0	1	-5,637773	273,503416	311,63593	0
15.01.2021	07:07:04	0	0	2,598662	2,919	12,8592	-0,39	85,544	0	1011,64	6,2	8,2	8	1	1	1	1	1	1	1	1	1	0	1	-4,22833	273,580248	313,402037	0
15.01.2021	07:07:05	0	0	3,163551	3,0405	12,4704	-0,39	85,55	0	1011,52	6,2	8,2	8,2	1	1	1	1	1	1	1	1	1	0	1	-0	273,474502	317,13956	0
15.01.2021	07:07:06	0	0	3,502545	3,1425	9,3744	-0,391	85,559	0	1011,56	6,2	8,2	8	1	1	1	1	1	1	1	1	1	0	1	-7,892882	273,451402	309,139539	0
15.01.2021	07:07:07	0	0	2,598662	3,18675	19,1664	-0,392	85,565	0	1011,58	6,2	8,2	8	1	1	1	1	1	1	1	1	1	0	1	-5,778717	273,408165	311,053239	0
15.01.2021	07:07:08	0	0	4,632398	3,10125	13,554	-0,39	85,545	0	1011,66	6,2	8,2	8	1	1	1	1	1	1	1	1	1	0	1	-4,933051	273,445632	312,07261	0
15.01.2021	07:07:09	0	0	5,084339	3,05175	14,3064	-0,393	85,55	0	1011,68	6,2	8,2	8	1	1	1	1	1	1	1	1	1	0	1	-2,043693	273,406726	314,781591	0
15.01.2021	07:07:10	0	0	4,29339	2,90325	2,6424	-0,394	85,556	0	1011,6	6,2	8,2	8,2	1	1	1	1	1	1	1	1	1	0	1	-3,59408	273,50631	313,69305	0
15.01.2021	07:07:11	0	0	3,389559	2,81475	13,1796	-0,396	85,555	0	1011,58	6,2	8,2	8	1	1	1	1	1	1	1	1	1	0	1	-3,030303	273,432654	313,915183	0
15.01.2021	07:07:12	0	0	5,310246	2,76975	9	-0,395	85,534	0	1011,4	6,2	8,1	8,2	1	1	1	1	1	1	1	1	1	0	1	-3,24172	273,474502	313,897841	0
15.01.2021	07:07:13	0	0	4,971354	2,7045	6,0696	-0,39	85,563	0	1011,56	6,2	8,2	8	1	1	1	1	1	1	1	1	1	0	1	-5,84919	273,434096	311,102981	0
15.01.2021	07:07:14	0	0	4,067471	2,64675	11,2104	-0,396	85,547	0	1011,6	6,1	8,2	8	1	1	1	1	1	1	1	1	1	0	1	-3,946441	273,55557	313,569336	0
15.01.2021	07:07:15	0	0	4,293442	2,50125	12,1032	-0,389	85,552	0	1011,62	6,2	8,2	8	1	1	1	1	1	1	1	1	1	0	1	-4,22833	273,487508	312,971564	0
15.01.2021	07:07:16	0	0	4,29339	2,3955	20,2752	-0,391	85,563	0	1011,58	6,2	8,2	8,2	1	1	1	1	1	1	1	1	1	0	1	-4,721635	273,594779	312,976221	0
15.01.2021	07:07:17	0	0	4,971354	2,337	24,3468	-0,396	85,555	0	1011,56	6,2	8,2	8	1	1	1	1	1	1	1	1	1	0	1	-5,355884	273,486062	311,837303	0
15.01.2021	07:07:18	0	0	2,937618	2,3595	14,2992	-0,392	85,542	0	1011,72	6,2	8,2	8	1	1	1	1	1	1	1	1	1	0	1	-7,82241	273,580248	309,807957	0
15.01.2021	07:07:19	0	0	3,954438	2,40675	12,0996	-0,393	85,545	0	1011,68	6,2	8,2	8,2	1	1	1	1	1	1	1	1	1	0	1	-3,59408	273,460061	313,4785	0
15.01.2021	07:07:20	0	0	3,728515	2,3625	11,7144	-0,395	85,553	0	1011,62	6,2	8,2	8	1	1	1	1	1	1	1	1	1	0	1	-5,778717	273,578796	311,844904	0
15.01.2021	07:07:21	0	0	4,180406	2,25225	16,0992	-0,392	85,562	0	1011,58	6,2	8,2	8,2	1	1	1	1	1	1	1	1	1	0	1	-7,117689	273,557021	310,404824	0
15.01.2021	07:07:22	0	0	4,519358	2,28675	22,0788	-0,393	85,538	0	1011,46	6,2	8,2	8,2	1	1	1	1	1	1	1	1	1	0	1	-5,778717	273,559923	311,757268	0
15.01.2021	07:07:23	0	0	4,067471	2,30175	21,006	-0,396	85,559	0	1011,62	6,2	8,2	8	1	1	1	1	1	1	1	1	1	0	1	-4,087385	273,434096	312,864785	0
15.01.2021	07:07:24	0	0	3,163589	2,41875	9,7524	-0,392	85,544	0	1011,58	6,2	8,2	8	1	1	1	1	1	1	1	1	1	0	1	-3,171247	273,581701	314,465866	0
15.01.2021	07:07:25	0	0	3,050567	2,57025	9,3636	-0,395	85,548	0	1011,68	6,2	8,2	8,2	1	1	1	1	1	1	1	1	1	0	1	-9,725159	273,460061	307,347422	0
15.01.2021	07:07:26	0	0	3,163551	2,62875	12,8592	-0,395	85,549	0	1011,58	6,2	8,2	8,2	1	1	1	1	1	1	1	1	1	0	1	-7,82241	273,486062	309,370778	0
15.01.2021	07:07:27	0	0	2,485677	2,74725	9,7488	-0,394	85,549	0	1011,62	6,2	8,2	8	1	1	1	1	1	1	1	1	1	0	1	-4,087385	273,587513	313,576718	0
15.01.2021	07:07:28	0	0	3,389519	2,84925	20,3724	-0,396	85,542	0	1011,56	6,2	8,2	8,2	1	1	1	1	1	1	1	1	1	0	1	-3,664553	273,526578	313,716641	0
15.01.2021	07:07:29	0	0	3,61553	2,7855	15,408	-0,398	85,55	0	1011,62	6,2	8,1	8	1	1	1	1	1	1	1	1	1	0	1	-4,22833	273,584606	313,422277	0
15.01.2021	07:07:30	0	0	2,711647	2,7105	16,0956	-0,398	85,553	0	1011,52	6,2	8,2	8	1	1	1	1	1	1	1	1	1	0	1	-6,131078	273,532373	311,277012	0
15.01.2021	07:07:31	0	0	3,841454	2,60175	27,6444	-0,394	85,554	0	1011,66	6,2	8,2	8,2	1	1	1	1	1	1	1	1	1	0	1	-7,117689	273,596233	310,58692	0
15.01.2021	07:07:32	0	0	3,276574	2,38875	16,4736	-0,397	85,539	0	1011,58	6,2	8,2	8	1	1	1	1	1	1	1	1	1	0	1	-4,721635	273,513546	312,599076	0
15.01.2021	07:07:33	0	0	3,728515	2,364	20,6244	-0,402	85,559	0	1011,52	6,2	8,1	8	1	1	1	1	1	1	1	1	1	0	1	-3,453136	273,432654	313,492351	0
15.01.2021	07:07:34	0	0	4,406427	2,283	14,652	-0,402	85,549	0	1011,68	6,2	8,2	8	1	1	1	1	1	1	1	1	1	0	1	-4,510218	273,53672	312,918051	0
15.01.2021	07:07:35	0	0	4,293442	2,19075	12,4776	-0,399	85,551	0	1011,58	6,2	8,2	8	1	1	1	1	1	1	1	1	1	0	1	-3,664553	273,600595	314,060316	0
15.01.2021	07:07:36	0	0	4,067471	2,3085	9,0648	-0,396	85,553	0	1011,66	6,2	8,2	8	1	1	1	1	1	1	1	1	1	0	1	-5,990134	273,522233	311,370893	0
15.01.2021	07:07:37	0	0	4,745326	2,37225	19,1376	-0,395	85,557	0	1011,5	6,2	8,2	8,2	1	1	1	1	1	1	1	1	1	0	1	-6,20155	273,581701	311,435563	0
15.01.2021	07:07:38	0	0	2,711615	2,286	2,3004	-0,4	85,546	0	1011,68	6,2	8,2	8,2	1	1	1	1	1	1	1	1	1	0	1	-10,570825	273,539619	306,870901	0
15.01.2021	07:07:39	0	0	4,067471	2,298	10,44	-0,396	85,532	0	1011,64	6,2	8,2	8	1	1	1	1	1	1	1	1	1	0	1	-0,140944	273,429772	316,791177	0
15.01.2021	07:07:40	0	0	2,598662	2,41125	16,0992	-0,401	85,54	0	1011,66	6,2	8,2	8	1	1	1	1	1	1	1	1	1	0	1	-3,946441	273,514993	313,380987	0
15.01.2021	07:07:41	0	0	3,615487	2,57775	9,0036	-0,394	85,548	0	1011,46	6,1	8,2	8,2	1	1	1	1	1	1	1	1	1	0	1	-5,708245	273,432654	311,237241	0
15.01.2021	07:07:42	0	0	5,197324	3,0075	8,2548	-0,396	85,557	0	1011,64	6,2	8,2	8	1	1	1	1	1	1	1	1	1	0	1	-5,144468	273,484617	312,042014	0
15.01.2021	07:07:43	0	0	2,485677	3,18975	5,6844	-0,39	85,57	0	1011,7	6,2	8,2	8	1	1	1	1	1	1	1	1	1	0	1	-2,677942	273,597687	315,033419	0
15.01.2021	07:07:44	0	0	2,372692	3,11625	0,8784	-0,398	85,55	0	1011,58	6,2	8,2	8	1	1	1	1	1	1	1	1	1	0	1	-1,973221	273,473057	315,159639	0
15.01.2021	07:07:45	0	0	2,937618	3,039	7,1496	-0,398	85,555	0	1011,6	6,2	8,2	8	1	1	1	1	1	1	1	1	1	0	1	-0	273,425448	316,912077	0
15.01.2021	07:07:46	0	0	3,61553	3,11175	0,4968	-0,394	85,564	0	1011,64	6,2	8,2	8	1	1	1	1	1	1	1	1	1	0	1	-2,466526	273,445632	314,539136	0
15.01.2021	07:07:47	0	0	4,406374	3,26775	8,2584	-0,398	85,556	0	1011,62	6,2	8,2	8,2	1	1	1	1	1	1	1	1	1	0	1	-3,030303	273,475947	314,115958	0
15.01.2021	07:07:48	0	0	2,824633	3,4605	9,756	-0,398	85,565	0	1011,64	6,2	8,1	8	1	1	1	1	1	1	1	1	1	0	1	-6,272023	273,578796	311,351599	0
15.01.2021	07:07:49	0	0	3,050567	3,4665	15,4044	-0,396	85,554	0	1011,56	6,2	8,2	8,2	1	1	1	1	1	1	1	1	1	0	1	-2,255109	273,500522	315,005168	0
15.01.2021	07:07:50	0	0	3,615487	3,27525	13,5432	-0,393	85,56	0	1011,68	6,1	8,2	8,2	1	1	1	1	1	1	1	1	1	0	1	-3,382664	273,594779	314,315192	0
15.01.2021	07:07:51	0	0	3,841501	3,273	7,8768	-0,398	85,562	0	1011,6	6,2	8,2	8	1	1	1	1	1	1	1	1	1	0	1	-4,087385	273,600595	313,637483	0
15.01.2021	07:07:52	0	0	3,841501	3,219	12,1104	-0,398	85,555	0	1011,64	6,2	8,2	8	1	1	1	1	1	1	1	1	1	0	1	-5,637773	273,50631	311,649357	0
15.01.2021	07:07:53	0	0	2,711647	2,9685	6,8112	-0,394	85,549	0	1011,52	6,2	8,2	8	1	1	1	1	1	1	1	1	1	0	1	-3,100775	273,42833	313,824664	0
15.01.2021	07:07:54	0	0	2,824633	2,7945	17,3196	-0,392	85,546	0	1011,7	6,2	8,2	8	1	1	1	1	1	1	1	1	1	0	1	-4,933051	273,474502	312,206509	0
15.01.2021	07:07:55	0	0	2,372692	2,5695	5,688	-0,397	85,55	0	1011,62	6,2	8,2	8	1	1	1	1	1	1	1	1	1	0	1	-4,651163	273,483172	312,528614	0
15.01.2021	07:07:56	0	0	3,841501	2,56725	3,0312	-0,396	85,556	0	1011,6	6,2	8,2	8	1	1	1	1	1	1	1	1	1	0	1	-4,087385	273,457175	312,971806	0
15.01.2021	07:07:57	0	0	3,728515	2,631	0,1224	-0,394	85,546	0	1011,78	6,2	8,2	8	1	1	1	1	1	1	1	1	1	0	1	-2,536998	273,597687	315,174363	0
15.01.2021	07:07:58	0	0	4,519358	2,727	360	-0,396	85,551	0	1011,6	6,2	8,2	8,2	1	1	1	1	1	1	1	1	1	0	1	-3,100775	273,545418	314,367869	0
15.01.2021	07:07:59	0	0	2,937618	2,754	9,3672	-0,396	85,548	0	1011,42	6,2	8,2	8	1	1	1	1	1	1	1	1	1	0	1	-3,875969	273,462949	313,210002	0
15.01.2021	07:08:00	0	0	4,971354	2,90625	8,5932	-0,402	85,548	0	1011,46	6,2	8,2	8	1	1	1	1	1	1	1	1	1	0	1	-8,174771	273,610777	309,597394	0
15.01.2021	07:08:01	0	0	4,971354	2,90625	8,5932	-0,402	85,548	0	1011,46	6,2	8,2	8	1	1	1	1	1	1	1	1	1	0	1	-8,174771	273,610777	309,597394	0
15.01.2021	07:08:02	0	0	4,406427	2,9025	15,0444	-0,399	85,531	0	1011,68	6,2	8,2	8	1	1	1	1	1	1	1	1	1	0	1	-7,188161	273,483172	309,991617	0
15.01.2021	07:08:03	0	0	3,954486	2,9355	6,4224	-0,394	85,549	0	1011,62	6,1	8,2	8	1	1	1	1	1	1	1	1	1	0	1	-3,453136	273,600595	314,271733	0
15.01.2021	07:08:04	0	0	3,615487	2,88375	4,0788	-0,394	85,558	0	1011,68	6,2	8,2	8,2	1	1	1	1	1	1	1	1	1	0	1	-0	273,546868	317,475376	0
15.01.2021	07:08:05	0	0	3,615487	2,77125	5,3172	-0,395	85,547	0	1011,52	6,2	8,2	8,2	1	1	1	1	1	1	1	1	1	0	1	-0	273,606412	317,751892	0
15.01.2021	07:08:06	0	0	4,858368	2,556	19,8972	-0,388	85,55	0	1011,64	6,2	8,2	8	1	1	1	1	1	1	1	1	1	0	1	-2,466526	273,564277	315,089674	0
15.01.2021	07:08:07	0	0	2,711647	2,361	11,718	-0,39	85,552	0	1011,54	6,2	8,2	8	1	1	1	1	1	1	1	1	1	0	1	-6,624383	273,488953	310,582217	0
15.01.2021	07:08:08	0	0	4,745326	2,27025	17,2332	-0,389	85,549	0	1011,5	6,1	8,2	8,2	1	1	1	1	1	1	1	1	1	0	1	-4,087385	273,419685	312,797975	0
15.01.2021	07:08:09	0	0	4,745383	2,241	10,44	-0,398	85,556	0	1011,56	6,1	8,2	8	1	1	1	1	1	1	1	1	1	0	1	-4,087385	273,517889	313,25348	0
15.01.2021	07:08:10	0	0	4,632398	2,2095	18,8316	-0,396	85,572	0	1011,66	6,2	8,2	8	1	1	1	1	1	1	1	1	1	0	1	-3,030303	273,421126	313,861736	0
15.01.2021	07:08:11	0	0	4,85831	2,2785	16,848	-0,391	85,561	0	1011,62	6,2	8,2	8,2	1	1	1	1	1	1	1	1	1	0	1	-4,298802	273,519337	313,048784	0
15.01.2021	07:08:12	0	0	2,711647	2,39775	9,774	-0,393	85,553	0	1011,58	6,2	8,2	8	1	1	1	1	1	1	1	1	1	0	1	-5,637773	273,597687	312,073588	0
15.01.2021	07:08:13	0	0	2,824599	2,454	12,5568	-0,394	85,559	0	1011,72	6,2	8,2	8,2	1	1	1	1	1	1	1	1	1	0	1	-4,862579	273,441305	312,123018	0
15.01.2021	07:08:14	0	0	2,824633	2,50725	8,2728	-0,402	85,556	0	1011,62	6,2	8,2	8	1	1	1	1	1	1	1	1	1	0	1	-2,748414	273,493291	314,478311	0
15.01.2021	07:08:15	0	0	4,293442	2,6355	16,47	-0,399	85,559	0	1011,62	6,1	8,2	8	1	1	1	1	1	1	1	1	1	0	1	-3,946441	273,603503	313,791938	0
15.01.2021	07:08:16	0	0	3,276535	2,6385	357,318	-0,399	85,56	0	1011,64	6,1	8,2	8,2	1	1	1	1	1	1	1	1	1	0	1	-3,523608	273,548318	313,9585	0
15.01.2021	07:08:17	0	0	4,971354	2,64225	11,2032	-0,393	85,558	0	1011,64	6,2	8,2	8	1	1	1	1	1	1	1	1	1	0	1	-2,889359	273,431213	314,049445	0
15.01.2021	07:08:18	0	0	4,632398	2,8935	6,8256	-0,396	85,565	0	1011,58	6,2	8,2	8	1	1	1	1	1	1	1	1	1	0	1	-5,285412	273,53817	312,149585	0
15.01.2021	07:08:19	0	0	4,067422	3,2535	7,8876	-0,398	85,555	0	1011,54	6,1	8,2	8,2	1	1	1	1	1	1	1	1	1	0	1	-3,382664	273,545418	314,085981	0
15.01.2021	07:08:20	0	0	4,632342	3,32925	360	-0,396	85,557	0	1011,7	6,1	8,2	8,2	1	1	1	1	1	1	1	1	1	0	1	-4,439746	273,445632	312,565915	0
15.01.2021	07:08:21	0	0	5,310246	3,36	10,4364	-0,392	85,551	0	1011,68	6,2	8,2	8,2	1	1	1	1	1	1	1	1	1	0	1	-9,866103	273,559923	307,669883	0
15.01.2021	07:08:22	0	0	3,502545	3,38025	12,852	-0,397	85,564	0	1011,66	6,2	8,2	8	1	1	1	1	1	1	1	1	1	0	1	-1,198027	273,619508	316,614703	0
15.01.2021	07:08:23	0	0	3,163589	3,2625	18,45	-0,392	85,555	0	1011,5	6,2	8,2	8	1	1	1	1	1	1	1	1	1	0	1	-0,281889	273,513546	317,038822	0
15.01.2021	07:08:24	0	0	4,406427	3,26775	13,1652	-0,391	85,561	0	1011,66	6,1	8,2	8	1	1	1	1	1	1	1	1	1	0	1	-3,735025	273,445632	313,270637	0
15.01.2021	07:08:25	0	0	3,050567	3,68775	1,5552	-0,391	85,559	0	1011,76	6,1	8,2	8,2	1	1	1	1	1	1	1	1	1	0	1	-3,875969	273,461505	313,203307	0
15.01.2021	07:08:26	0	0	3,389519	3,70575	360	-0,393	85,564	0	1011,64	6,2	8,2	8,2	1	1	1	1	1	1	1	1	1	0	1	-2,60747	273,520785	314,746836	0
15.01.2021	07:08:27	0	0	2,598662	3,5715	7,1496	-0,395	85,566	0	1011,52	6,2	8,2	8	1	1	1	1	1	1	1	1	1	0	1	-6,272023	273,441305	310,713575	0
15.01.2021	07:08:28	0	0	3,389559	3,54975	5,688	-0,393	85,564	0	1011,8	6,2	8,2	8	1	1	1	1	1	1	1	1	1	0	1	-7,610994	273,559923	309,924992	0
15.01.2021	07:08:29	0	0	2,824633	3,4485	4,8384	-0,392	85,563	0	1011,58	6,1	8,1	8	1	1	1	1	1	1	1	1	1	0	1	-5,073996	273,451402	311,958426	0
15.01.2021	07:08:30	0	0	3,615487	3,3885	7,128	-0,393	85,56	0	1011,64	6,2	8,2	8,2	1	1	1	1	1	1	1	1	1	0	1	-4,580691	273,436979	312,384849	0
15.01.2021	07:08:31	0	0	4,067422	3,27675	16,11	-0,391	85,562	0	1011,68	6,1	8,2	8,2	1	1	1	1	1	1	1	1	1	0	1	-1,761804	273,530924	315,639561	0
15.01.2021	07:08:32	0	0	4,180456	3,12975	14,6556	-0,393	85,543	0	1011,54	6,2	8,2	8	1	1	1	1	1	1	1	1	1	0	1	-3,382664	273,435537	313,576191	0
15.01.2021	07:08:33	0	0	2,937583	3,261	14,2992	-0,395	85,556	0	1011,68	6,2	8,2	8,2	1	1	1	1	1	1	1	1	1	0	1	-3,24172	273,507757	314,052126	0
15.01.2021	07:08:34	0	0	3,050603	3,46125	6,444	-0,392	85,559	0	1011,68	6,2	8,2	8	1	1	1	1	1	1	1	1	1	0	1	-5,426357	273,580248	312,20401	0
15.01.2021	07:08:35	0	0	3,954486	3,59475	7,1244	-0,371	85,557	0	1011,78	6,2	8,2	8	1	1	1	1	1	1	1	1	1	0	1	-4,792107	273,625331	313,047677	0
15.01.2021	07:08:36	0	0	4,858368	3,66675	9,7668	-0,395	85,55	0	1011,68	6,2	8,2	8	1	1	1	1	1	1	1	1	1	0	1	-3,59408	273,465836	313,505285	0
15.01.2021	07:08:37	0	0	2,937618	3,5805	13,9284	-0,402	85,547	0	1011,58	6,1	8,2	8	1	1	1	1	1	1	1	1	1	0	1	-1,550388	273,483172	315,62939	0
15.01.2021	07:08:38	0	0	4,632342	3,5385	13,932	-0,396	85,539	0	1011,6	6,2	8,2	8,2	1	1	1	1	1	1	1	1	1	0	1	-5,567301	273,609322	312,198106	0
15.01.2021	07:08:39	0	0	4,745326	3,51525	6,1596	-0,392	85,56	0	1011,64	6,2	8,2	8,2	1	1	1	1	1	1	1	1	1	0	1	-0	273,615142	317,792445	0
15.01.2021	07:08:40	0	0	3,163589	3,55275	1,5552	-0,391	85,553	0	1011,48	6,1	8,2	8	1	1	1	1	1	1	1	1	1	0	1	-3,735025	273,473057	313,397835	0
15.01.2021	07:08:41	0	0	2,598662	3,63225	8,262	-0,4	85,545	0	1011,62	6,2	8,2	8	1	1	1	1	1	1	1	1	1	0	1	-0	273,575891	317,610132	0
15.01.2021	07:08:42	0	0	3,728471	3,459	4,4856	-0,393	85,544	0	1011,68	6,2	8,2	8,2	1	1	1	1	1	1	1	1	1	0	1	-5,21494	273,625331	312,624844	0
15.01.2021	07:08:43	0	0	3,841501	3,3615	9,7452	-0,395	85,54	0	1011,54	6,1	8,2	8	1	1	1	1	1	1	1	1	1	0	1	-9,302326	273,52513	308,072145	0
15.01.2021	07:08:44	0	0	2,711647	3,198	14,31	-0,392	85,558	0	1011,72	6,1	8,2	8	1	1	1	1	1	1	1	1	1	0	1	-5,355884	273,441305	311,629713	0
15.01.2021	07:08:45	0	0	2,937583	3,054	8,2656	-0,397	85,541	0	1011,74	6,2	8,2	8,2	1	1	1	1	1	1	1	1	1	0	1	-12,121212	273,462949	304,964759	0
15.01.2021	07:08:46	0	0	4,632398	3,108	6,066	-0,397	85,558	0	1011,6	6,2	8,2	8	1	1	1	1	1	1	1	1	1	0	1	-3,875969	273,548318	313,606139	0
15.01.2021	07:08:47	0	0	3,389519	3,34275	13,5432	-0,394	85,543	0	1011,66	6,2	8,2	8,2	1	1	1	1	1	1	1	1	1	0	1	-1,62086	273,435537	315,337995	0
15.01.2021	07:08:48	0	0	4,406374	3,50925	13,1868	-0,396	85,559	0	1011,64	6,1	8,2	8,2	1	1	1	1	1	1	1	1	1	0	1	-8,104299	273,516441	309,229848	0
15.01.2021	07:08:49	0	0	4,632398	3,7155	9,3744	-0,4	85,56	0	1011,54	6,1	8,2	8	1	1	1	1	1	1	1	1	1	0	1	-5,355884	273,600595	312,368985	0
15.01.2021	07:08:50	0	0	3,841501	3,99225	13,554	-0,397	85,53	0	1011,56	6,2	8,2	8	1	1	1	1	1	1	1	1	1	0	1	-2,959831	273,543968	314,502083	0
15.01.2021	07:08:51	0	0	3,728471	4,1835	5,22	-0,396	85,548	0	1011,64	6,2	8,2	8,2	1	1	1	1	1	1	1	1	1	0	1	-4,933051	273,474502	312,206509	0
15.01.2021	07:08:52	0	0	3,502503	4,38825	4,8456	-0,394	85,558	0	1011,54	6,1	8,2	8,2	1	1	1	1	1	1	1	1	1	0	1	-0,211416	273,425448	316,700661	0
15.01.2021	07:08:53	0	0	4,632342	4,20225	5,22	-0,396	85,538	0	1011,44	6,2	8,2	8,2	1	1	1	1	1	1	1	1	1	0	1	-5,84919	273,499076	311,404376	0
15.01.2021	07:08:54	0	0	3,954486	4,0005	10,4436	-0,398	85,553	0	1011,52	6,2	8,2	8	1	1	1	1	1	1	1	1	1	0	1	-6,342495	273,604958	311,40264	0
15.01.2021	07:08:55	0	0	2,824633	3,99	9,0144	-0,391	85,552	0	1011,58	6,1	8,2	8	1	1	1	1	1	1	1	1	1	0	1	-7,117689	273,477391	310,035275	0
15.01.2021	07:08:56	0	0	2,824599	3,88275	20,2788	-0,394	85,553	0	1011,5	6,1	8,2	8,2	1	1	1	1	1	1	1	1	1	0	1	-5,003524	273,438421	311,968701	0
15.01.2021	07:08:57	0	0	4,858368	3,7515	15,3972	-0,395	85,554	0	1011,7	6,1	8,2	8	1	1	1	1	1	1	1	1	1	0	1	-2,748414	273,596233	314,956194	0
15.01.2021	07:08:58	0	0	2,485647	3,573	13,9248	-0,397	85,554	0	1011,7	6,1	8,2	8,2	1	1	1	1	1	1	1	1	1	0	1	-8,45666	273,552669	309,045648	0
15.01.2021	07:08:59	0	0	2,711647	3,65475	12,4704	-0,389	85,565	0	1011,74	6,1	8,2	8	1	1	1	1	1	1	1	1	1	0	1	-5,073996	273,616597	312,72521	0
15.01.2021	07:09:00	0	0	4,180456	4,056	10,8288	-0,393	85,542	0	1011,52	6,1	8,2	8	1	1	1	1	1	1	1	1	1	0	1	-4,087385	273,603503	313,650994	0
15.01.2021	07:09:01	0	0	4,180456	4,056	10,8288	-0,393	85,542	0	1011,52	6,1	8,2	8	1	1	1	1	1	1	1	1	1	0	1	-4,087385	273,603503	313,650994	0
15.01.2021	07:09:02	0	0	4,067471	4,07625	13,554	-0,391	85,556	0	1011,7	6,1	8,2	8	1	1	1	1	1	1	1	1	1	0	1	-2,959831	273,49763	314,287024	0
15.01.2021	07:09:03	0	0	2,824633	3,732	10,818	-0,401	85,548	0	1011,54	6,2	8,2	8	1	1	1	1	1	1	1	1	1	0	1	-11,41649	273,602049	306,315133	0
15.01.2021	07:09:04	0	0	4,29339	3,651	359,784	-0,398	85,543	0	1011,58	6,1	8,2	8,2	1	1	1	1	1	1	1	1	1	0	1	-3,805497	273,580248	313,82487	0
15.01.2021	07:09:05	0	0	3,276535	3,591	4,0968	-0,388	85,547	0	1011,56	6,2	8,2	8,2	1	1	1	1	1	1	1	1	1	0	1	-5,21494	273,512098	312,099053	0
15.01.2021	07:09:06	0	0	3,389519	3,4845	1,548	-0,389	85,561	0	1011,72	6,2	8,2	8,2	1	1	1	1	1	1	1	1	1	0	1	-2,889359	273,436979	314,076181	0
15.01.2021	07:09:07	0	0	4,067422	3,402	6,7968	-0,389	85,556	0	1011,48	6,1	8,2	8,2	1	1	1	1	1	1	1	1	1	0	1	-6,342495	273,548318	311,139613	0
15.01.2021	07:09:08	0	0	2,937583	3,315	13,1832	-0,39	85,593	0	1011,94	6,2	8,2	8,2	1	1	1	1	1	1	1	1	1	0	1	-3,946441	273,607867	313,812208	0
15.01.2021	07:09:09	0	0	2,824599	3,26625	13,1832	-0,389	85,554	0	1011,58	6,1	8,2	8,2	1	1	1	1	1	1	1	1	1	0	1	-3,312192	273,622419	314,514064	0
15.01.2021	07:09:10	0	0	4,632342	3,19275	10,4364	-0,393	85,56	0	1011,64	6,2	8,2	8,2	1	1	1	1	1	1	1	1	1	0	1	-3,946441	273,522233	313,414586	0
15.01.2021	07:09:11	0	0	4,406374	3,0915	8,352	-0,39	85,543	0	1011,58	6,1	8,2	8,2	1	1	1	1	1	1	1	1	1	0	1	-0,281889	273,588966	317,388964	0
15.01.2021	07:09:12	0	0	2,824599	3,156	12,1068	-0,388	85,564	0	1011,74	6,2	8,2	8,2	1	1	1	1	1	1	1	1	1	0	1	-4,721635	273,439863	312,257276	0
15.01.2021	07:09:13	0	0	4,85831	3,03075	360	-0,385	85,561	0	1011,68	6,2	8,2	8,2	1	1	1	1	1	1	1	1	1	0	1	-4,087385	273,631156	313,779464	0
15.01.2021	07:09:14	0	0	3,163551	2,91225	2,2968	-0,386	85,569	0	1011,66	6,2	8,2	8,2	1	1	1	1	1	1	1	1	1	0	1	-6,20155	273,591872	311,482803	0
15.01.2021	07:09:15	0	0	3,954486	2,856	4,5648	-0,393	85,553	0	1011,62	6,2	8,2	8	1	1	1	1	1	1	1	1	1	0	1	-5,567301	273,513546	311,75341	0
15.01.2021	07:09:16	0	0	3,163551	2,757	356,0904	-0,391	85,571	0	1011,6	6,1	8,2	8,2	1	1	1	1	1	1	1	1	1	0	1	-2,114165	273,454288	314,931641	0
15.01.2021	07:09:17	0	0	2,485647	2,55075	0,8748	-0,391	85,559	0	1011,68	6,1	8,2	8,2	1	1	1	1	1	1	1	1	1	0	1	-6,8358	273,50631	310,451331	0
15.01.2021	07:09:18	0	0	4,971294	2,60775	4,842	-0,392	85,557	0	1011,74	6,2	8,2	8,2	1	1	1	1	1	1	1	1	1	0	1	-4,792107	273,609322	312,9733	0
15.01.2021	07:09:19	0	0	4,293442	2,70225	6,8004	-0,388	85,556	0	1011,58	6,1	8,2	8	1	1	1	1	1	1	1	1	1	0	1	-7,540521	273,545418	309,928123	0
15.01.2021	07:09:20	0	0	4,406374	3,06	6,444	-0,388	85,57	0	1011,48	6,1	8,2	8,2	1	1	1	1	1	1	1	1	1	0	1	-2,114165	273,447074	314,898186	0
15.01.2021	07:09:21	0	0	5,197262	3,16275	4,4676	-0,388	85,548	0	1011,56	6,1	8,2	8,2	1	1	1	1	1	1	1	1	1	0	1	-1,479915	273,581701	316,157198	0
15.01.2021	07:09:22	0	0	3,615487	2,95875	11,7144	-0,39	85,555	0	1011,68	6,1	8,2	8,2	1	1	1	1	1	1	1	1	1	0	1	-4,22833	273,481726	312,944743	0
15.01.2021	07:09:23	0	0	4,745326	2,925	16,1028	-0,393	85,55	0	1011,68	6,1	8,2	8,2	1	1	1	1	1	1	1	1	1	0	1	-5,708245	273,460061	311,364335	0
15.01.2021	07:09:24	0	0	3,841501	2,78025	13,1544	-0,393	85,552	0	1011,56	6,2	8,2	8	1	1	1	1	1	1	1	1	1	0	1	-4,016913	273,491845	313,203103	0
15.01.2021	07:09:25	0	0	4,632342	2,75025	7,1316	-0,39	85,564	0	1011,74	6,1	8,1	8,2	1	1	1	1	1	1	1	1	1	0	1	-4,721635	273,613686	313,064049	0
15.01.2021	07:09:26	0	0	3,050567	2,7645	11,7252	-0,392	85,561	0	1011,58	6,1	8,2	8,2	1	1	1	1	1	1	1	1	1	0	1	-0,352361	273,509204	316,9482	0
15.01.2021	07:09:27	0	0	4,85831	2,6085	12,8628	-0,394	85,555	0	1011,66	6,1	8,2	8,2	1	1	1	1	1	1	1	1	1	0	1	-5,355884	273,599141	312,36223	0
15.01.2021	07:09:28	0	0	4,632398	2,39025	15,786	-0,394	85,548	0	1011,66	6,1	8,2	8	1	1	1	1	1	1	1	1	1	0	1	-1,409443	273,444189	315,58953	0
15.01.2021	07:09:29	0	0	2,372663	2,292	4,0752	-0,387	85,556	0	1011,6	6,1	8,2	8,2	1	1	1	1	1	1	1	1	1	0	1	-2,60747	273,484617	314,579012	0
15.01.2021	07:09:30	0	0	3,163551	2,3985	11,7108	-0,391	85,55	0	1011,6	6,1	8,2	8,2	1	1	1	1	1	1	1	1	1	0	1	-1,268499	273,596233	316,436109	0
15.01.2021	07:09:31	0	0	4,632342	2,50575	8,6076	-0,387	85,543	0	1011,54	6,2	8,2	8,2	1	1	1	1	1	1	1	1	1	0	1	-3,312192	273,442747	313,680093	0
15.01.2021	07:09:32	0	0	4,406374	2,53125	3,78	-0,392	85,573	0	1011,52	6,1	8,2	8,2	1	1	1	1	1	1	1	1	1	0	1	-6,131078	273,55557	311,384699	0
15.01.2021	07:09:33	0	0	5,197262	2,457	13,1616	-0,392	85,565	0	1011,54	6,1	8,2	8,2	1	1	1	1	1	1	1	1	1	0	1	-1,338971	273,615142	316,453474	0
15.01.2021	07:09:34	0	0	4,632342	2,3865	25,7832	-0,389	85,557	0	1011,72	6,2	8,2	8,2	1	1	1	1	1	1	1	1	1	0	1	-4,510218	273,588966	313,160634	0
15.01.2021	07:09:35	0	0	4,858368	2,3505	35,0856	-0,388	85,568	0	1011,68	6,1	8,2	8	1	1	1	1	1	1	1	1	1	0	1	-3,664553	273,55412	313,844489	0
15.01.2021	07:09:36	0	0	4,632398	2,32275	16,8516	-0,387	85,557	0	1011,62	6,1	8,2	8	1	1	1	1	1	1	1	1	1	0	1	-5,496829	273,439863	311,482082	0
15.01.2021	07:09:37	0	0	2,598631	2,38125	20,286	-0,387	85,556	0	1011,7	6,1	8,2	8,2	1	1	1	1	1	1	1	1	1	0	1	-4,933051	273,504863	312,347365	0
15.01.2021	07:09:38	0	0	3,050603	2,45625	16,0956	-0,39	85,551	0	1011,56	6,1	8,2	8	1	1	1	1	1	1	1	1	1	0	1	-2,184637	273,447074	314,827714	0
15.01.2021	07:09:39	0	0	4,85831	2,397	21,0132	-0,392	85,563	0	1011,56	6,1	8,2	8,2	1	1	1	1	1	1	1	1	1	0	1	-5,567301	273,577343	312,049576	0
15.01.2021	07:09:40	0	0	3,728471	2,325	20,6352	-0,391	85,553	0	1011,58	6,2	8,2	8,2	1	1	1	1	1	1	1	1	1	0	1	-5,919662	273,577343	311,697215	0
15.01.2021	07:09:41	0	0	4,632398	2,40825	21,7656	-0,394	85,546	0	1011,56	6,2	8,2	8	1	1	1	1	1	1	1	1	1	0	1	-5,708245	273,448517	311,310795	0
15.01.2021	07:09:42	0	0	5,084278	2,43075	20,6244	-0,391	85,537	0	1011,6	6,2	8,2	8,2	1	1	1	1	1	1	1	1	1	0	1	-5,990134	273,543968	311,47178	0
15.01.2021	07:09:43	0	0	2,711615	2,4465	8,6076	-0,388	85,555	0	1011,58	6,1	8,2	8,2	1	1	1	1	1	1	1	1	1	0	1	-4,862579	273,444189	312,136394	0
15.01.2021	07:09:44	0	0	4,85831	2,46825	12,4776	-0,394	85,553	0	1011,64	6,1	8,2	8,2	1	1	1	1	1	1	1	1	1	0	1	-8,315715	273,494737	308,917719	0
15.01.2021	07:09:45	0	0	2,711647	2,451	13,1688	-0,388	85,541	0	1011,52	6,1	8,2	8	1	1	1	1	1	1	1	1	1	0	1	-5,567301	273,565728	311,995639	0
15.01.2021	07:09:46	0	0	2,711615	2,3385	6,0624	-0,392	85,553	0	1011,62	6,1	8,2	8,2	1	1	1	1	1	1	1	1	1	0	1	-6,412967	273,438421	310,559258	0
15.01.2021	07:09:47	0	0	2,598631	2,361	6,822	-0,389	85,545	0	1011,68	6,1	8,2	8,2	1	1	1	1	1	1	1	1	1	0	1	-4,22833	273,53672	313,19994	0
15.01.2021	07:09:48	0	0	4,85831	2,37075	15,4044	-0,391	85,548	0	1011,64	6,1	8,2	8,2	1	1	1	1	1	1	1	1	1	0	1	-3,805497	273,461505	313,273779	0
15.01.2021	07:09:49	0	0	3,728471	2,28	8,6184	-0,389	85,544	0	1011,64	6,1	8,2	8,2	1	1	1	1	1	1	1	1	1	0	1	-3,946441	273,541069	313,502013	0
15.01.2021	07:09:50	0	0	3,502503	2,343	8,6076	-0,385	85,55	0	1011,64	6,1	8,2	8,2	1	1	1	1	1	1	1	1	1	0	1	-5,919662	273,447074	311,092689	0
15.01.2021	07:09:51	0	0	3,728471	2,41575	3,3912	-0,389	85,546	0	1011,58	6,2	8,2	8,2	1	1	1	1	1	1	1	1	1	0	1	-7,399577	273,491845	309,820439	0
15.01.2021	07:09:52	0	0	3,163551	2,484	15,426	-0,385	85,554	0	1011,62	6,3	8,2	8,2	1	1	1	1	1	1	1	1	1	0	1	-8,104299	273,615142	309,688146	0
15.01.2021	07:09:53	0	0	4,519358	2,5095	3,024	-0,386	85,55	0	1011,52	6,2	8,2	8,2	1	1	1	1	1	1	1	1	1	0	1	-4,439746	273,471613	312,686413	0
15.01.2021	07:09:54	0	0	2,824599	2,47275	357,192	-0,396	85,554	0	1011,62	6,1	8,2	8,2	1	1	1	1	1	1	1	1	1	0	1	-7,047216	273,571535	310,542687	0
15.01.2021	07:09:55	0	0	2,824599	2,445	10,4508	-0,39	85,556	0	1011,62	6,1	8,2	8,2	1	1	1	1	1	1	1	1	1	0	1	-4,369274	273,454288	312,676531	0
15.01.2021	07:09:56	0	0	3,615487	2,35725	18,4536	-0,389	85,563	0	1011,62	6,1	8,2	8,2	1	1	1	1	1	1	1	1	1	0	1	-7,681466	273,490399	309,531842	0
15.01.2021	07:09:57	0	0	4,519358	2,43525	1,1808	-0,39	85,565	0	1011,52	6,1	8,2	8,2	1	1	1	1	1	1	1	1	1	0	1	-5,003524	273,478836	312,156142	0
15.01.2021	07:09:58	0	0	3,276535	2,74125	359,8452	-0,391	85,54	0	1011,62	6,1	8,2	8,2	1	1	1	1	1	1	1	1	1	0	1	-4,510218	273,616597	313,288987	0
15.01.2021	07:09:59	0	0	3,163551	2,94225	13,1832	-0,385	85,544	0	1011,66	6,2	8,2	8,2	1	1	1	1	1	1	1	1	1	0	1	-2,818887	273,590419	314,858716	0
15.01.2021	07:10:00	0	0	4,519358	2,94375	3,3804	-0,395	85,535	0	1011,5	6,2	8,2	8,2	1	1	1	1	1	1	1	1	1	0	1	-0,563777	273,542518	316,891407	0
15.01.2021	07:10:01	0	0	4,519358	2,94375	3,3804	-0,395	85,535	0	1011,5	6,2	8,2	8,2	1	1	1	1	1	1	1	1	1	0	1	-0,563777	273,542518	316,891407	0
15.01.2021	07:10:02	0	0	4,745326	2,901	5,2308	-0,382	85,549	0	1011,58	6,1	8,2	8,2	1	1	1	1	1	1	1	1	1	0	1	-2,325581	273,623875	315,507438	0
15.01.2021	07:10:03	0	0	3,050603	2,955	12,1896	-0,39	85,544	0	1011,54	6,1	8,2	8	1	1	1	1	1	1	1	1	1	0	1	-1,973221	273,50631	315,31391	0
15.01.2021	07:10:04	0	0	4,858368	2,91675	30,3192	-0,389	85,544	0	1011,64	6,1	8,2	8	1	1	1	1	1	1	1	1	1	0	1	-1,973221	273,597687	315,738141	0
15.01.2021	07:10:05	0	0	3,954438	2,80725	18,09	-0,385	85,555	0	1011,58	6,1	8,2	8,2	1	1	1	1	1	1	1	1	1	0	1	-7,399577	273,477391	309,753386	0
15.01.2021	07:10:06	0	0	3,502503	2,565	22,0968	-0,387	85,554	0	1011,64	6,1	8,2	8,2	1	1	1	1	1	1	1	1	1	0	1	-7,82241	273,620963	309,997082	0
15.01.2021	07:10:07	0	0	4,745326	2,47275	25,0344	-0,387	85,557	0	1011,44	6,2	8,2	8,2	1	1	1	1	1	1	1	1	1	0	1	-3,100775	273,581701	314,536338	0
15.01.2021	07:10:08	0	0	2,372663	2,4255	17,7048	-0,387	85,564	0	1011,6	6,2	8,2	8,2	1	1	1	1	1	1	1	1	1	0	1	-6,906272	273,462949	310,179699	0
15.01.2021	07:10:09	0	0	2,598631	2,41275	13,1652	-0,388	85,57	0	1011,66	6,2	8,2	8,2	1	1	1	1	1	1	1	1	1	0	1	-1,057082	273,473057	316,075777	0
15.01.2021	07:10:10	0	0	3,389519	2,535	10,9008	-0,391	85,54	0	1011,76	6,3	8,2	8,2	1	1	1	1	1	1	1	1	1	0	1	-6,20155	273,558472	311,327699	0
15.01.2021	07:10:11	0	0	4,519358	2,802	18,4644	-0,39	85,556	0	1011,74	6,1	8,2	8,2	1	1	1	1	1	1	1	1	1	0	1	-4,651163	273,462949	312,434809	0
15.01.2021	07:10:12	0	0	4,180456	2,85675	14,6592	-0,387	85,566	0	1011,78	6,2	8,2	8	1	1	1	1	1	1	1	1	1	0	1	-6,765328	273,631156	311,101522	0
15.01.2021	07:10:13	0	0	4,745326	2,75025	15,4152	-0,386	85,561	0	1011,7	6,1	8,2	8,2	1	1	1	1	1	1	1	1	1	0	1	-3,24172	273,520785	314,112586	0
15.01.2021	07:10:14	0	0	3,163551	2,628	17,2548	-0,387	85,557	0	1011,58	6,1	8,2	8,2	1	1	1	1	1	1	1	1	1	0	1	-6,483439	273,623875	311,349581	0
15.01.2021	07:10:15	0	0	3,615487	2,70675	1,5336	-0,382	85,558	0	1011,66	6,1	8,2	8,2	1	1	1	1	1	1	1	1	1	0	1	-4,721635	273,581701	312,915478	0
15.01.2021	07:10:16	0	0	3,841454	2,718	33,9696	-0,384	85,553	0	1011,7	6,1	8,2	8,2	1	1	1	1	1	1	1	1	1	0	1	-8,033827	273,628243	309,819489	0
15.01.2021	07:10:17	0	0	4,745326	2,601	9,828	-0,384	85,562	0	1011,68	6,1	8,2	8,2	1	1	1	1	1	1	1	1	1	0	1	-4,369274	273,561374	313,173449	0
15.01.2021	07:10:18	0	0	2,824599	2,66925	11,214	-0,39	85,552	0	1011,64	6,1	8,2	8,2	1	1	1	1	1	1	1	1	1	0	1	-3,100775	273,448517	313,918265	0
15.01.2021	07:10:19	0	0	4,745326	2,757	11,7072	-0,388	85,536	0	1011,66	6,2	8,2	8,2	1	1	1	1	1	1	1	1	1	0	1	-4,298802	273,55557	313,216975	0
15.01.2021	07:10:20	0	0	3,615487	2,74725	12,4704	-0,38	85,555	0	1011,6	6,2	8,2	8,2	1	1	1	1	1	1	1	1	1	0	1	-3,382664	273,484617	313,803818	0
15.01.2021	07:10:21	0	0	3,276535	2,8065	1,9188	-0,385	85,556	0	1011,68	6,2	8,2	8,2	1	1	1	1	1	1	1	1	1	0	1	-7,681466	273,441305	309,304132	0
15.01.2021	07:10:22	0	0	3,841454	2,9805	4,8456	-0,39	85,554	0	1011,62	6,3	8,2	8,2	1	1	1	1	1	1	1	1	1	0	1	-0,704722	273,570083	316,87844	0
15.01.2021	07:10:23	0	0	2,598631	3,12375	4,4784	-0,386	85,544	0	1011,62	6,1	8,2	8,2	1	1	1	1	1	1	1	1	1	0	1	-6,694856	273,447074	310,317495	0
15.01.2021	07:10:24	0	0	2,711615	3,237	7,8876	-0,39	85,554	0	1011,64	6,1	8,2	8,2	1	1	1	1	1	1	1	1	1	0	1	-4,016913	273,549768	313,471927	0
15.01.2021	07:10:25	0	0	4,180406	3,24675	10,0728	-0,392	85,555	0	1011,62	6,1	8,2	8,2	1	1	1	1	1	1	1	1	1	0	1	-5,073996	273,628243	312,77932	0
15.01.2021	07:10:26	0	0	4,85831	3,249	6,4404	-0,393	85,548	0	1011,58	6,2	8,2	8,2	1	1	1	1	1	1	1	1	1	0	1	-6,20155	273,542518	311,253633	0
15.01.2021	07:10:27	0	0	4,745326	3,111	13,1724	-0,383	85,571	0	1011,66	6,1	8,2	8,2	1	1	1	1	1	1	1	1	1	0	1	-2,466526	273,623875	315,366494	0
15.01.2021	07:10:28	0	0	2,711615	2,916	20,2932	-0,386	85,548	0	1011,7	6,1	8,2	8,2	1	1	1	1	1	1	1	1	1	0	1	-8,668076	273,503416	308,605627	0
15.01.2021	07:10:29	0	0	2,824599	2,73	17,2512	-0,384	85,57	0	1011,7	6,2	8,2	8,2	1	1	1	1	1	1	1	1	1	0	1	-1,973221	273,458618	315,092665	0
15.01.2021	07:10:30	0	0	4,067422	2,727	14,6448	-0,387	85,552	0	1011,74	6,2	8,2	8,2	1	1	1	1	1	1	1	1	1	0	1	-6,694856	273,574439	310,908533	0
15.01.2021	07:10:31	0	0	4,180406	2,77725	15,0372	-0,379	85,568	0	1011,66	6,1	8,2	8,2	1	1	1	1	1	1	1	1	1	0	1	-5,637773	273,56718	311,931906	0
15.01.2021	07:10:32	0	0	4,745326	2,9775	4,4676	-0,38	85,545	0	1011,72	6,2	8,2	8,2	1	1	1	1	1	1	1	1	1	0	1	-7,047216	273,622419	310,779039	0
15.01.2021	07:10:33	0	0	2,372663	3,17925	11,1852	-0,381	85,56	0	1011,68	6,1	8,2	8,2	1	1	1	1	1	1	1	1	1	0	1	-7,610994	273,519337	309,736592	0
15.01.2021	07:10:34	0	0	4,180406	3,32175	17,2404	-0,387	85,563	0	1011,64	6,2	8,2	8,2	1	1	1	1	1	1	1	1	1	0	1	-7,047216	273,615142	310,745228	0
15.01.2021	07:10:35	0	0	4,29339	3,249	11,196	-0,387	85,535	0	1011,7	6,1	8,2	8,2	1	1	1	1	1	1	1	1	1	0	1	-7,047216	273,581701	310,589897	0
15.01.2021	07:10:36	0	0	2,598631	3,07875	354,7404	-0,392	85,54	0	1011,66	6,1	8,2	8,2	1	1	1	1	1	1	1	1	1	0	1	-2,184637	273,504863	315,095779	0
15.01.2021	07:10:37	0	0	4,29339	2,8935	1,9296	-0,386	85,535	0	1011,72	6,1	8,2	8,2	1	1	1	1	1	1	1	1	1	0	1	-3,735025	273,625331	314,10476	0
15.01.2021	07:10:38	0	0	2,937583	2,7135	1,5516	-0,386	85,543	0	1011,6	6,2	8,2	8,2	1	1	1	1	1	1	1	1	1	0	1	-0	273,510651	317,307277	0
15.01.2021	07:10:39	0	0	4,632342	2,56875	360	-0,384	85,557	0	1011,58	6,2	8,2	8,2	1	1	1	1	1	1	1	1	1	0	1	-2,889359	273,454288	314,156447	0
15.01.2021	07:10:40	0	0	2,937583	2,62725	6,0696	-0,383	85,549	0	1011,76	6,1	8,2	8,2	1	1	1	1	1	1	1	1	1	0	1	-2,60747	273,448517	314,41157	0
15.01.2021	07:10:41	0	0	2,824599	2,604	13,5468	-0,383	85,561	0	1011,74	6,1	8,2	8,2	1	1	1	1	1	1	1	1	1	0	1	-5,84919	273,507757	311,444656	0
15.01.2021	07:10:42	0	0	4,632342	2,589	13,5432	-0,384	85,565	0	1011,66	6,1	8,2	8,2	1	1	1	1	1	1	1	1	1	0	1	-3,171247	273,618052	314,63472	0
15.01.2021	07:10:43	0	0	4,180406	2,52	9,8388	-0,382	85,546	0	1011,64	6,2	8,2	8,2	1	1	1	1	1	1	1	1	1	0	1	-2,677942	273,486062	314,515246	0
15.01.2021	07:10:44	0	0	4,971294	2,56125	354,2436	-0,384	85,55	0	1011,74	6,1	8,2	8,2	1	1	1	1	1	1	1	1	1	0	1	-5,567301	273,606412	312,184591	0
15.01.2021	07:10:45	0	0	3,841454	3,2025	7,8948	-0,388	85,545	0	1011,7	6,1	8,2	8,2	1	1	1	1	1	1	1	1	1	0	1	-5,919662	273,584606	311,730945	0
15.01.2021	07:10:46	0	0	4,180406	3,55875	356,8932	-0,391	85,546	0	1011,68	6,2	8,2	8,2	1	1	1	1	1	1	1	1	1	0	1	-1,338971	273,513546	315,981739	0
15.01.2021	07:10:47	0	0	2,146695	3,4935	358,6536	-0,391	85,53	0	1011,68	6,1	8,2	8,2	1	1	1	1	1	1	1	1	1	0	1	-5,778717	273,455731	311,273781	0
15.01.2021	07:10:48	0	0	4,406374	3,1515	0	-0,39	85,545	0	1011,5	6,1	8,2	8,2	1	1	1	1	1	1	1	1	1	0	1	-1,832276	273,514993	315,495152	0
15.01.2021	07:10:49	0	0	4,180406	2,84775	356,9436	-0,389	85,542	0	1011,54	6,1	8,2	8,2	1	1	1	1	1	1	1	1	1	0	1	-6,553911	273,628243	311,299405	0
15.01.2021	07:10:50	0	0	4,519358	3,17475	10,8072	-0,391	85,542	0	1011,56	6,2	8,2	8,2	1	1	1	1	1	1	1	1	1	0	1	-2,889359	273,475947	314,256903	0
15.01.2021	07:10:51	0	0	3,728471	3,30225	19,134	-0,384	85,544	0	1011,48	6,1	8,2	8,2	1	1	1	1	1	1	1	1	1	0	1	-5,355884	273,604958	312,389251	0
15.01.2021	07:10:52	0	0	3,389519	3,15825	8,586	-0,386	85,556	0	1011,48	6,1	8,2	8,2	1	1	1	1	1	1	1	1	1	0	1	-1,479915	273,565728	316,083024	0
15.01.2021	07:10:53	0	0	3,954438	3,02325	22,0932	-0,387	85,547	0	1011,64	6,1	8,2	8,2	1	1	1	1	1	1	1	1	1	0	1	-7,470049	273,460061	309,602531	0
15.01.2021	07:10:54	0	0	4,632342	2,8515	19,53	-0,385	85,534	0	1011,8	6,1	8,2	8,2	1	1	1	1	1	1	1	1	1	0	1	-4,298802	273,475947	312,847459	0
15.01.2021	07:10:55	0	0	4,85831	2,8455	354,6108	-0,386	85,544	0	1011,74	6,2	8,2	8,2	1	1	1	1	1	1	1	1	1	0	1	-1,902748	273,591872	315,781605	0
15.01.2021	07:10:56	0	0	3,050567	2,9625	2,2896	-0,387	85,552	0	1011,72	6,1	8,2	8,2	1	1	1	1	1	1	1	1	1	0	1	-4,087385	273,564277	313,468815	0
15.01.2021	07:10:57	0	0	2,372663	3,13575	13,1688	-0,386	85,554	0	1011,72	6,1	8,2	8,2	1	1	1	1	1	1	1	1	1	0	1	-8,386187	273,471613	308,739972	0
15.01.2021	07:10:58	0	0	4,745326	3,4695	3,384	-0,389	85,538	0	1011,52	6,2	8,2	8,2	1	1	1	1	1	1	1	1	1	0	1	-5,990134	273,574439	311,613255	0
15.01.2021	07:10:59	0	0	3,389519	3,52575	10,4364	-0,385	85,545	0	1011,66	6,2	8,2	8,2	1	1	1	1	1	1	1	1	1	0	1	-5,21494	273,616597	312,584266	0
15.01.2021	07:11:00	0	0	4,406374	3,4965	16,4772	-0,385	85,546	0	1011,7	6,2	8,2	8,2	1	1	1	1	1	1	1	1	1	0	1	-5,919662	273,613686	311,866023	0
15.01.2021	07:11:01	0	0	4,406374	3,4965	16,4772	-0,385	85,546	0	1011,7	6,2	8,2	8,2	1	1	1	1	1	1	1	1	1	0	1	-2,255109	273,53817	315,179888	0
15.01.2021	07:11:02	0	0	4,406374	3,3495	19,1376	-0,373	85,555	0	1011,74	6,2	8,2	8,2	1	1	1	1	1	1	1	1	1	0	1	-5,567301	273,647183	312,374029	0
15.01.2021	07:11:03	0	0	5,084278	3,2115	13,5468	-0,384	85,548	0	1011,66	6,1	8,2	8,2	1	1	1	1	1	1	1	1	1	0	1	-5,990134	273,565728	311,572806	0
15.01.2021	07:11:04	0	0	3,502503	3,18	21,8664	-0,385	85,544	0	1011,66	6,2	8,2	8,2	1	1	1	1	1	1	1	1	1	0	1	-3,946441	273,484617	313,240041	0
15.01.2021	07:11:05	0	0	4,406374	3,207	9,756	-0,389	85,534	0	1011,52	6,2	8,2	8,2	1	1	1	1	1	1	1	1	1	0	1	-6,20155	273,602049	311,530073	0
15.01.2021	07:11:06	0	0	4,406374	3,1515	13,1508	-0,385	85,552	0	1011,68	6,1	8,2	8,2	1	1	1	1	1	1	1	1	1	0	1	-5,637773	273,55557	311,878004	0
15.01.2021	07:11:07	0	0	3,163551	3,12375	13,5504	-0,383	85,529	0	1011,62	6,2	8,2	8,2	1	1	1	1	1	1	1	1	1	0	1	-0,634249	273,461505	316,445026	0
15.01.2021	07:11:08	0	0	3,728471	3,09225	8,2584	-0,391	85,543	0	1011,6	6,1	8,2	8,2	1	1	1	1	1	1	1	1	1	0	1	-0	273,541069	317,448454	0
15.01.2021	07:11:09	0	0	3,954438	2,94075	12,474	-0,378	85,546	0	1011,78	6,2	8,2	8,2	1	1	1	1	1	1	1	1	1	0	1	-3,664553	273,616597	314,134653	0
15.01.2021	07:11:10	0	0	4,406374	2,79525	9	-0,385	85,537	0	1011,7	6,1	8,2	8,2	1	1	1	1	1	1	1	1	1	0	1	-3,59408	273,628243	314,259235	0
15.01.2021	07:11:11	0	0	3,728471	2,916	1,5624	-0,384	85,544	0	1011,68	6,2	8,2	8,2	1	1	1	1	1	1	1	1	1	0	1	-2,677942	273,240464	313,377387	0
15.01.2021	07:11:12	0	0	3,276535	2,97075	17,7012	-0,377	85,534	0	1011,7	6,1	8,2	8,2	1	1	1	1	1	1	1	1	1	0	1	-3,382664	273,461505	313,696612	0
15.01.2021	07:11:13	0	0	4,180406	2,829	8,6148	-0,382	85,536	0	1011,68	6,2	8,2	8,2	1	1	1	1	1	1	1	1	1	0	1	-2,043693	273,53672	315,384577	0
15.01.2021	07:11:14	0	0	4,406374	2,6775	6,4224	-0,385	85,519	0	1011,54	6,2	8,2	8,2	1	1	1	1	1	1	1	1	1	0	1	-1,479915	273,622419	316,34634	0
15.01.2021	07:11:15	0	0	4,406374	2,4735	10,44	-0,384	85,549	0	1011,72	6,1	8,2	8,2	1	1	1	1	1	1	1	1	1	0	1	-2,184637	273,491845	315,035379	0
15.01.2021	07:11:16	0	0	4,745326	2,367	1,926	-0,376	85,532	0	1011,66	6,1	8,2	8,2	1	1	1	1	1	1	1	1	1	0	1	-0,916138	273,593326	316,774966	0
15.01.2021	07:11:17	0	0	3,841454	2,3865	6,8076	-0,377	85,532	0	1011,66	6,1	8,2	8,2	1	1	1	1	1	1	1	1	1	0	1	-5,426357	273,625331	312,413428	0
15.01.2021	07:11:18	0	0	2,711615	2,41425	0	-0,381	85,525	0	1011,68	6,1	8,2	8,2	1	1	1	1	1	1	1	1	1	0	1	-2,466526	273,575891	315,143606	0
15.01.2021	07:11:19	0	0	2,824599	2,39325	10,062	-0,387	85,522	0	1011,48	6,2	8,2	8,2	1	1	1	1	1	1	1	1	1	0	1	-4,369274	273,620963	313,450218	0
15.01.2021	07:11:20	0	0	3,954438	2,46975	7,5024	-0,383	85,537	0	1011,64	6,2	8,2	8,2	1	1	1	1	1	1	1	1	1	0	1	-2,043693	273,491845	315,176324	0
15.01.2021	07:11:21	0	0	5,084278	2,40225	9,3708	-0,382	85,528	0	1011,64	6,1	8,2	8,2	1	1	1	1	1	1	1	1	1	0	1	-3,312192	273,613686	314,473493	0
15.01.2021	07:11:22	0	0	3,163551	2,43975	5,22	-0,387	85,509	0	1011,54	6,1	8,2	8,2	1	1	1	1	1	1	1	1	1	0	1	-4,721635	273,509204	312,578926	0
15.01.2021	07:11:23	0	0	4,067422	2,4675	10,8252	-0,376	85,52	0	1011,68	6,1	8,2	8,2	1	1	1	1	1	1	1	1	1	0	1	-2,255109	273,574439	315,348279	0
15.01.2021	07:11:24	0	0	3,954438	2,3145	7,8876	-0,383	85,519	0	1011,6	6,1	8,2	8,2	1	1	1	1	1	1	1	1	1	0	1	-6,624383	273,650098	311,330496	0
15.01.2021	07:11:25	0	0	4,067422	2,1375	16,0956	-0,382	85,524	0	1011,72	6,2	8,2	8,2	1	1	1	1	1	1	1	1	1	0	1	-3,382664	273,55412	314,126378	0
15.01.2021	07:11:26	0	0	2,824599	2,13075	9,0144	-0,375	85,532	0	1011,72	6,2	8,2	8,2	1	1	1	1	1	1	1	1	1	0	1	-5,355884	273,628243	312,497431	0
15.01.2021	07:11:27	0	0	3,389519	2,30925	22,0788	-0,375	85,524	0	1011,68	6,2	8,2	8,2	1	1	1	1	1	1	1	1	1	0	1	-5,144468	273,53817	312,290529	0
15.01.2021	07:11:28	0	0	3,954438	2,39175	19,9152	-0,379	85,535	0	1011,68	6,2	8,2	8,2	1	1	1	1	1	1	1	1	1	0	1	-4,22833	273,600595	313,496539	0
15.01.2021	07:11:29	0	0	4,632342	2,35875	3,3984	-0,379	85,519	0	1011,62	6,2	8,2	8,2	1	1	1	1	1	1	1	1	1	0	1	-1,550388	273,597687	316,160974	0
15.01.2021	07:11:30	0	0	4,632342	2,32725	4,4712	-0,379	85,521	0	1011,66	6,2	8,2	8,2	1	1	1	1	1	1	1	1	1	0	1	-0	273,471613	317,126159	0
15.01.2021	07:11:31	0	0	3,276535	2,43225	2,2932	-0,379	85,52	0	1011,6	6,1	8,2	8,2	1	1	1	1	1	1	1	1	1	0	1	-3,171247	273,580248	314,45912	0
15.01.2021	07:11:32	0	0	4,632342	2,44725	7,8768	-0,386	85,504	0	1011,68	6,1	8,2	8,2	1	1	1	1	1	1	1	1	1	0	1	-6,624383	273,481726	310,548689	0
15.01.2021	07:11:33	0	0	3,502503	2,44725	4,0968	-0,378	85,519	0	1011,58	6,1	8,2	8,2	1	1	1	1	1	1	1	1	1	0	1	-8,949965	273,458618	308,115921	0
15.01.2021	07:11:34	0	0	3,276535	2,40825	15,408	-0,383	85,526	0	1011,68	6,2	8,2	8,2	1	1	1	1	1	1	1	1	1	0	1	-8,104299	273,571535	309,485604	0
15.01.2021	07:11:35	0	0	4,85831	2,40075	357,7212	-0,383	85,526	0	1011,68	6,2	8,2	8,2	1	1	1	1	1	1	1	1	1	0	1	-4,580691	273,634069	313,299695	0
15.01.2021	07:11:36	0	0	4,29339	2,57925	7,1352	-0,383	85,516	0	1011,68	6,1	8,2	8,2	1	1	1	1	1	1	1	1	1	0	1	-7,540521	273,542518	309,914662	0
15.01.2021	07:11:37	0	0	3,050567	2,67525	8,6076	-0,383	85,5	0	1011,64	6,2	8,2	8,2	1	1	1	1	1	1	1	1	1	0	1	-0,845666	273,46728	316,260397	0
15.01.2021	07:11:38	0	0	4,29339	2,6625	1,548	-0,381	85,51	0	1011,68	6,1	8,2	8,2	1	1	1	1	1	1	1	1	1	0	1	-0,281889	273,548318	317,200219	0
15.01.2021	07:11:39	0	0	4,632342	2,598	23,5944	-0,382	85,525	0	1011,68	6,2	8,2	8,2	1	1	1	1	1	1	1	1	1	0	1	-1,198027	273,464392	315,894641	0
15.01.2021	07:11:40	0	0	3,841454	2,61225	3,024	-0,384	85,503	0	1011,64	6,1	8,2	8,2	1	1	1	1	1	1	1	1	1	0	1	-6,412967	273,53672	311,015303	0
15.01.2021	07:11:41	0	0	3,728471	2,61075	7,5132	-0,378	85,525	0	1011,7	6,1	8,2	8,2	1	1	1	1	1	1	1	1	1	0	1	-3,946441	273,460061	313,126139	0
15.01.2021	07:11:42	0	0	3,163551	2,63325	9,0864	-0,376	85,514	0	1011,66	6,2	8,2	8,2	1	1	1	1	1	1	1	1	1	0	1	-5,496829	273,600595	312,22804	0
15.01.2021	07:11:43	0	0	3,276535	2,7165	6,066	-0,385	85,51	0	1011,62	6,1	8,2	8,2	1	1	1	1	1	1	1	1	1	0	1	-5,708245	273,470169	311,411215	0
15.01.2021	07:11:44	0	0	3,050567	2,667	10,818	-0,383	85,51	0	1011,48	6,1	8,2	8,2	1	1	1	1	1	1	1	1	1	0	1	-6,060606	273,496183	311,179538	0
15.01.2021	07:11:45	0	0	3,615487	2,514	12,4632	-0,374	85,515	0	1011,74	6,2	8,2	8,2	1	1	1	1	1	1	1	1	1	0	1	-3,523608	273,46728	313,582454	0
15.01.2021	07:11:46	0	0	4,971294	2,4165	12,096	-0,378	85,509	0	1011,54	6,2	8,2	8,2	1	1	1	1	1	1	1	1	1	0	1	-5,285412	273,606412	312,46648	0
15.01.2021	07:11:47	0	0	3,615487	2,29725	11,7216	-0,374	85,524	0	1011,74	6,1	8,2	8,2	1	1	1	1	1	1	1	1	1	0	1	-5,778717	273,620963	312,040775	0
15.01.2021	07:11:48	0	0	2,598631	2,34375	6,0588	-0,373	85,52	0	1011,68	6,2	8,2	8,2	1	1	1	1	1	1	1	1	1	0	1	-0	273,49763	317,246855	0
15.01.2021	07:11:49	0	0	4,519358	2,4	3,4128	-0,375	85,527	0	1011,64	6,1	8,2	8,2	1	1	1	1	1	1	1	1	1	0	1	-6,765328	273,487508	310,434566	0
15.01.2021	07:11:50	0	0	2,824599	2,40375	4,0896	-0,373	85,55	0	1012,02	6,1	8,2	8,2	1	1	1	1	1	1	1	1	1	0	1	-1,832276	273,473057	315,300583	0
15.01.2021	07:11:51	0	0	2,937583	2,51925	9,756	-0,378	85,516	0	1011,78	6,1	8,2	8,2	1	1	1	1	1	1	1	1	1	0	1	-2,114165	273,571535	315,475738	0
15.01.2021	07:11:52	0	0	3,954438	2,69625	9,0072	-0,378	85,503	0	1011,74	6,2	8,2	8,2	1	1	1	1	1	1	1	1	1	0	1	-4,792107	273,452845	312,247006	0
15.01.2021	07:11:53	0	0	4,745326	2,802	9,3888	-0,376	85,52	0	1011,82	6,2	8,2	8,2	1	1	1	1	1	1	1	1	1	0	1	-2,677942	273,571535	314,911961	0
15.01.2021	07:11:54	0	0	4,85831	2,7585	9,3744	-0,377	85,524	0	1011,72	6,2	8,2	8,2	1	1	1	1	1	1	1	1	1	0	1	-0,352361	273,448517	316,66668	0
15.01.2021	07:11:55	0	0	4,29339	2,67675	8,6184	-0,38	85,507	0	1011,7	6,2	8,2	8,2	1	1	1	1	1	1	1	1	1	0	1	-5,496829	273,578796	312,126793	0
15.01.2021	07:11:56	0	0	3,841454	2,5695	11,196	-0,382	85,499	0	1011,7	6,2	8,2	8,2	1	1	1	1	1	1	1	1	1	0	1	-3,875969	273,625331	313,963816	0
15.01.2021	07:11:57	0	0	4,406374	2,39925	4,086	-0,38	85,506	0	1011,62	6,2	8,2	8,2	1	1	1	1	1	1	1	1	1	0	1	-3,312192	273,462949	313,77378	0
15.01.2021	07:11:58	0	0	3,276535	2,373	15,0372	-0,384	85,524	0	1011,66	6,2	8,2	8,2	1	1	1	1	1	1	1	1	1	0	1	-6,20155	273,561374	311,341173	0
15.01.2021	07:11:59	0	0	3,389519	2,31975	10,8108	-0,38	85,503	0	1011,66	6,2	8,5	8,2	1	1	1	1	1	1	1	1	1	0	1	-4,792107	273,486062	312,401081	0
15.01.2021	07:12:00	0	0	3,163551	2,48025	4,0824	-0,377	85,515	0	1011,7	6,1	8,2	8,2	1	1	1	1	1	1	1	1	1	0	1	-1,268499	273,457175	315,790693	0
15.01.2021	07:12:01	0	0	3,163551	2,48025	4,0824	-0,377	85,515	0	1011,7	6,1	8,2	8,2	1	1	1	1	1	1	1	1	1	0	1	-1,268499	273,457175	315,790693	0
15.01.2021	07:12:02	0	0	4,745326	2,5545	5,2272	-0,384	85,519	0	1011,66	6,2	8,2	8,2	1	1	1	1	1	1	1	1	1	0	1	-1,409443	273,572987	316,187202	0
15.01.2021	07:12:03	0	0	5,310246	2,56125	353,61	-0,384	85,504	0	1011,64	6,2	8,2	8,2	1	1	1	1	1	1	1	1	1	0	1	-0,634249	273,626787	317,2123	0
15.01.2021	07:12:04	0	0	2,711615	2,67	15,1272	-0,378	85,507	0	1011,74	6,1	8,2	8,2	1	1	1	1	1	1	1	1	1	0	1	-5,426357	273,549768	312,062484	0
15.01.2021	07:12:05	0	0	2,711615	2,68425	13,1796	-0,377	85,513	0	1011,64	6,1	8,2	8,2	1	1	1	1	1	1	1	1	1	0	1	-5,637773	273,461505	311,441502	0
15.01.2021	07:12:06	0	0	3,050567	2,592	16,0776	-0,378	85,497	0	1011,62	6,2	8,2	8,2	1	1	1	1	1	1	1	1	1	0	1	-1,62086	273,522233	315,740167	0
15.01.2021	07:12:07	0	0	2,937583	2,53425	7,6068	-0,376	85,519	0	1011,88	6,2	8,2	8,2	1	1	1	1	1	1	1	1	1	0	1	-3,805497	273,477391	313,347467	0
15.01.2021	07:12:08	0	0	2,485647	2,73	15,0264	-0,383	85,519	0	1011,74	6,2	8,2	8,2	1	1	1	1	1	1	1	1	1	0	1	-3,24172	273,623875	314,5913	0
15.01.2021	07:12:09	0	0	5,084278	2,93775	7,1136	-0,374	85,506	0	1011,7	6,1	8,2	8,2	1	1	1	1	1	1	1	1	1	0	1	-4,369274	273,572987	313,227371	0
15.01.2021	07:12:10	0	0	3,728471	2,9475	0,8784	-0,377	85,522	0	1011,72	6,2	8,2	8,2	1	1	1	1	1	1	1	1	1	0	1	-3,735025	273,464392	313,357643	0
15.01.2021	07:12:11	0	0	2,937583	2,943	10,458	-0,378	85,51	0	1011,66	6,1	8,2	8,2	1	1	1	1	1	1	1	1	1	0	1	-4,016913	273,606412	313,734978	0
15.01.2021	07:12:12	0	0	3,276535	2,907	4,8384	-0,377	85,508	0	1011,58	6,1	8,2	8,2	1	1	1	1	1	1	1	1	1	0	1	-1,268499	273,52513	316,105971	0
15.01.2021	07:12:13	0	0	3,276535	2,844	12,8484	-0,381	85,506	0	1011,64	6,1	8,2	8,2	1	1	1	1	1	1	1	1	1	0	1	-2,889359	273,454288	314,156447	0
15.01.2021	07:12:14	0	0	4,406374	2,76075	7,8948	-0,378	85,501	0	1011,7	6,2	8,2	8,2	1	1	1	1	1	1	1	1	1	0	1	-6,20155	273,520785	311,152755	0
15.01.2021	07:12:15	0	0	3,954438	2,66025	13,536	-0,373	85,518	0	1011,72	6,1	8,2	8,2	1	1	1	1	1	1	1	1	1	0	1	-6,342495	273,618052	311,463473	0
15.01.2021	07:12:16	0	0	3,728471	2,62125	1,1736	-0,374	85,507	0	1011,68	6,2	8,2	8,2	1	1	1	1	1	1	1	1	1	0	1	-1,057082	273,594779	316,640774	0
15.01.2021	07:12:17	0	0	3,954438	2,6205	7,506	-0,377	85,5	0	1011,68	6,1	8,2	8,2	1	1	1	1	1	1	1	1	1	0	1	-0,352361	273,543968	317,109553	0
15.01.2021	07:12:18	0	0	4,519358	2,51025	8,352	-0,383	85,498	0	1011,68	6,2	8,2	8,2	1	1	1	1	1	1	1	1	1	0	1	-8,245243	273,442747	308,747042	0
15.01.2021	07:12:19	0	0	3,954438	2,5395	8,6112	-0,383	85,492	0	1011,66	6,2	8,2	8,2	1	1	1	1	1	1	1	1	1	0	1	-3,523608	273,593326	314,167496	0
15.01.2021	07:12:20	0	0	4,745326	2,58225	7,884	-0,382	85,504	0	1011,68	6,2	8,2	8,2	1	1	1	1	1	1	1	1	1	0	1	-2,466526	273,634069	315,41386	0
15.01.2021	07:12:21	0	0	2,824599	2,59725	13,5504	-0,379	85,487	0	1011,72	6,2	8,2	8,2	1	1	1	1	1	1	1	1	1	0	1	-6,412967	273,480281	310,753402	0
15.01.2021	07:12:22	0	0	3,502503	2,5605	9,3744	-0,375	85,511	0	1011,68	6,2	8,2	8,2	1	1	1	1	1	1	1	1	1	0	1	-2,60747	273,638439	315,293225	0
15.01.2021	07:12:23	0	0	4,632342	2,5095	9,3564	-0,382	85,509	0	1011,7	6,1	8,2	8,2	1	1	1	1	1	1	1	1	1	0	1	-2,255109	273,461505	314,824166	0
15.01.2021	07:12:24	0	0	3,163551	2,50875	6,4404	-0,38	85,512	0	1011,56	6,2	8,2	8,2	1	1	1	1	1	1	1	1	1	0	1	-2,184637	273,52513	315,189833	0
15.01.2021	07:12:25	0	0	4,29339	2,50425	4,2012	-0,382	85,502	0	1011,68	6,1	8,2	8,2	1	1	1	1	1	1	1	1	1	0	1	-2,60747	273,496183	314,632674	0
15.01.2021	07:12:26	0	0	3,163551	2,5245	12,8664	-0,382	85,497	0	1011,62	6,2	8,2	8,2	1	1	1	1	1	1	1	1	1	0	1	-6,342495	273,628243	311,510821	0
15.01.2021	07:12:27	0	0	4,632342	2,4825	1,1916	-0,376	85,509	0	1011,64	6,2	8,2	8,2	1	1	1	1	1	1	1	1	1	0	1	-5,21494	273,480281	311,951429	0
15.01.2021	07:12:28	0	0	4,519358	2,46825	358,038	-0,377	85,51	0	1011,7	6,2	8,2	8,2	1	1	1	1	1	1	1	1	1	0	1	-1,832276	273,559923	315,70371	0
15.01.2021	07:12:29	0	0	3,615487	2,51475	2,3976	-0,381	85,512	0	1011,64	6,2	8,2	8,2	1	1	1	1	1	1	1	1	1	0	1	-1,409443	273,631156	316,457406	0
15.01.2021	07:12:30	0	0	4,971294	2,661	12,4776	-0,378	85,506	0	1011,7	6,1	8,2	8,2	1	1	1	1	1	1	1	1	1	0	1	-9,090909	273,594779	308,606947	0
15.01.2021	07:12:31	0	0	4,632342	2,7015	14,6484	-0,387	85,502	0	1011,66	6,2	8,2	8,2	1	1	1	1	1	1	1	1	1	0	1	-4,510218	273,532373	312,897872	0
15.01.2021	07:12:32	0	0	2,598631	2,736	16,092	-0,378	85,509	0	1011,64	6,2	8,2	8,2	1	1	1	1	1	1	1	1	1	0	1	-4,22833	273,454288	312,817476	0
15.01.2021	07:12:33	0	0	4,519358	2,58525	23,3172	-0,375	85,507	0	1011,64	6,2	8,2	8,2	1	1	1	1	1	1	1	1	1	0	1	-2,466526	273,558472	315,062723	0
15.01.2021	07:12:34	0	0	3,954438	2,4225	16,47	-0,373	85,513	0	1011,78	6,2	8,2	8,2	1	1	1	1	1	1	1	1	1	0	1	-4,298802	273,626787	313,547748	0
15.01.2021	07:12:35	0	0	4,29339	2,3595	17,6724	-0,376	85,514	0	1011,54	6,2	8,2	8,2	1	1	1	1	1	1	1	1	1	0	1	-4,157858	273,599141	313,560257	0
15.01.2021	07:12:36	0	0	3,163551	2,44575	5,2416	-0,373	85,507	0	1011,72	6,1	8,2	8,2	1	1	1	1	1	1	1	1	1	0	1	-1,691332	273,631156	316,175518	0
15.01.2021	07:12:37	0	0	3,841454	2,577	33,9516	-0,374	85,504	0	1011,56	6,2	8,2	8,2	1	1	1	1	1	1	1	1	1	0	1	-3,030303	273,622419	314,795953	0
15.01.2021	07:12:38	0	0	3,728471	2,6355	36,6156	-0,376	85,515	0	1011,66	6,2	8,2	8,2	1	1	1	1	1	1	1	1	1	0	1	-3,312192	273,528027	314,075725	0
15.01.2021	07:12:39	0	0	2,937583	2,60025	8,2728	-0,374	85,509	0	1011,7	6,1	8,2	8,2	1	1	1	1	1	1	1	1	1	0	1	-4,580691	273,638439	313,320004	0
15.01.2021	07:12:40	0	0	3,954438	2,679	20,628	-0,373	85,515	0	1011,72	6,2	8,2	8,2	1	1	1	1	1	1	1	1	1	0	1	-3,523608	273,572987	314,073037	0
15.01.2021	07:12:41	0	0	4,85831	2,81175	3,78	-0,374	85,511	0	1011,72	6,2	8,2	8,2	1	1	1	1	1	1	1	1	1	0	1	-8,315715	273,618052	309,490252	0
15.01.2021	07:12:42	0	0	3,954438	3,03525	15,408	-0,378	85,507	0	1011,64	6,2	8,2	8,2	1	1	1	1	1	1	1	1	1	0	1	-2,536998	273,510651	314,770279	0
15.01.2021	07:12:43	0	0	2,824599	3,3105	8,6112	-0,368	85,538	0	1012,02	6,2	8,2	8,2	1	1	1	1	1	1	1	1	1	0	1	-3,946441	273,580248	313,683926	0
15.01.2021	07:12:44	0	0	3,163551	3,486	10,818	-0,379	85,513	0	1011,76	6,2	8,2	8,2	1	1	1	1	1	1	1	1	1	0	1	-1,832276	273,468724	315,280485	0
15.01.2021	07:12:45	0	0	2,824599	3,5535	9,0036	-0,371	85,492	0	1011,62	6,2	8,2	8,2	1	1	1	1	1	1	1	1	1	0	1	-3,453136	273,509204	313,847425	0
15.01.2021	07:12:46	0	0	4,632342	3,5475	7,1316	-0,378	85,496	0	1011,66	6,2	8,2	8,2	1	1	1	1	1	1	1	1	1	0	1	-2,959831	273,629699	314,900251	0
15.01.2021	07:12:47	0	0	3,050567	3,4365	15,408	-0,379	85,496	0	1011,6	6,2	8,2	8,2	1	1	1	1	1	1	1	1	1	0	1	-6,624383	273,56718	310,945296	0
15.01.2021	07:12:48	0	0	2,598631	3,3345	12,4668	-0,37	85,499	0	1011,64	6,1	8,2	8,2	1	1	1	1	1	1	1	1	1	0	1	-11,698379	273,561374	305,844344	0
15.01.2021	07:12:49	0	0	3,389519	3,16575	16,092	-0,374	85,494	0	1011,68	6,2	8,2	8,2	1	1	1	1	1	1	1	1	1	0	1	-6,20155	273,457175	310,857641	0
15.01.2021	07:12:50	0	0	4,745326	3,0195	14,6448	-0,375	85,489	0	1011,7	6,2	8,2	8,2	1	1	1	1	1	1	1	1	1	0	1	-8,949965	273,491845	308,270052	0
15.01.2021	07:12:51	0	0	3,389519	2,87475	20,646	-0,371	85,496	0	1011,8	6,2	8,2	8,2	1	1	1	1	1	1	1	1	1	0	1	-7,540521	273,494737	309,692913	0
15.01.2021	07:12:52	0	0	4,632342	2,90025	12,1068	-0,376	85,508	0	1011,72	6,2	8,2	8,2	1	1	1	1	1	1	1	1	1	0	1	-5,919662	273,623875	311,913358	0
15.01.2021	07:12:53	0	0	3,389519	3,14625	18,8136	-0,38	85,499	0	1011,68	6,1	8,2	8,2	1	1	1	1	1	1	1	1	1	0	1	-2,255109	273,517889	315,085757	0
15.01.2021	07:12:54	0	0	3,163551	3,18975	14,4108	-0,371	85,5	0	1011,78	6,2	8,2	8,2	1	1	1	1	1	1	1	1	1	0	1	-4,933051	273,604958	312,812084	0
15.01.2021	07:12:55	0	0	3,276535	3,40125	10,4364	-0,373	85,5	0	1011,76	6,2	8,2	8,2	1	1	1	1	1	1	1	1	1	0	1	-5,003524	273,565728	312,559416	0
15.01.2021	07:12:56	0	0	4,180406	3,57375	12,8448	-0,373	85,501	0	1011,68	6,2	8,2	8,2	1	1	1	1	1	1	1	1	1	0	1	-1,409443	273,468724	315,703318	0
15.01.2021	07:12:57	0	0	4,519358	3,58425	8,9928	-0,376	85,502	0	1011,72	6,2	8,2	8,2	1	1	1	1	1	1	1	1	1	0	1	-5,84919	273,631156	312,01766	0
15.01.2021	07:12:58	0	0	3,841454	3,56775	9,36	-0,379	85,507	0	1011,76	6,2	8,2	8,2	1	1	1	1	1	1	1	1	1	0	1	-6,8358	273,533822	310,579016	0
15.01.2021	07:12:59	0	0	3,276535	3,40575	6,4404	-0,375	85,518	0	1011,68	6,1	8,2	8,2	1	1	1	1	1	1	1	1	1	0	1	-5,919662	273,610777	311,852504	0
15.01.2021	07:13:00	0	0	4,85831	3,10575	6,066	-0,373	85,503	0	1011,72	6,1	8,2	8,2	1	1	1	1	1	1	1	1	1	0	1	-10,218464	273,438421	306,753761	0
15.01.2021	07:13:01	0	0	4,85831	3,10575	6,066	-0,373	85,503	0	1011,72	6,1	8,2	8,2	1	1	1	1	1	1	1	1	1	0	1	-6,131078	273,545418	311,337566	0
15.01.2021	07:13:02	0	0	4,067422	2,898	7,8696	-0,374	85,5	0	1011,82	6,2	8,2	8,2	1	1	1	1	1	1	1	1	1	0	1	-5,84919	273,620963	311,970303	0
15.01.2021	07:13:03	0	0	4,85831	2,6265	9,378	-0,371	85,509	0	1011,7	6,2	8,2	8,2	1	1	1	1	1	1	1	1	1	0	1	-3,735025	273,552669	313,767283	0
15.01.2021	07:13:04	0	0	4,067422	2,49225	9	-0,378	85,51	0	1011,64	6,2	8,2	8,2	1	1	1	1	1	1	1	1	1	0	1	-9,866103	273,480281	307,300266	0
15.01.2021	07:13:05	0	0	2,937583	2,5335	12,4668	-0,372	85,504	0	1011,7	6,2	8,2	8,2	1	1	1	1	1	1	1	1	1	0	1	-6,765328	273,487508	310,434566	0
15.01.2021	07:13:06	0	0	4,406374	2,6835	7,8984	-0,377	85,5	0	1011,68	6,2	8,2	8,2	1	1	1	1	1	1	1	1	1	0	1	-3,100775	273,581701	314,536338	0
15.01.2021	07:13:07	0	0	4,180406	2,67075	0	-0,368	85,512	0	1011,8	6,2	8,2	8,2	1	1	1	1	1	1	1	1	1	0	1	-5,496829	273,574439	312,10656	0
15.01.2021	07:13:08	0	0	4,406374	2,60175	1,1916	-0,376	85,513	0	1011,68	6,1	8,2	8,2	1	1	1	1	1	1	1	1	1	0	1	-2,466526	273,462949	314,619446	0
15.01.2021	07:13:09	0	0	2,711615	2,5425	0,4932	-0,376	85,493	0	1011,76	6,2	8,2	8,2	1	1	1	1	1	1	1	1	1	0	1	-2,325581	273,314817	314,073902	0
15.01.2021	07:13:10	0	0	4,406374	2,517	354,9888	-0,37	85,509	0	1011,8	6,2	8,2	8,2	1	1	1	1	1	1	1	1	1	0	1	-4,157858	273,623875	313,675162	0
15.01.2021	07:13:11	0	0	3,502503	2,625	4,4784	-0,373	85,481	0	1011,74	6,2	8,2	8,2	1	1	1	1	1	1	1	1	1	0	1	-7,82241	273,572987	309,774235	0
15.01.2021	07:13:12	0	0	2,937583	2,80425	3,0348	-0,37	85,493	0	1011,7	6,2	8,2	8,2	1	1	1	1	1	1	1	1	1	0	1	-0	273,449959	317,025731	0
15.01.2021	07:13:13	0	0	3,163551	2,7105	15,0156	-0,38	85,487	0	1011,64	6,2	8,2	8,2	1	1	1	1	1	1	1	1	1	0	1	-2,536998	273,541069	314,911456	0
15.01.2021	07:13:14	0	0	3,954438	2,55225	11,7216	-0,374	85,496	0	1011,68	6,2	8,2	8,2	1	1	1	1	1	1	1	1	1	0	1	-0	273,458618	317,065886	0
15.01.2021	07:13:15	0	0	4,971294	2,49075	13,158	-0,372	85,496	0	1011,66	6,2	8,2	8,2	1	1	1	1	1	1	1	1	1	0	1	-4,580691	273,583154	313,063169	0
15.01.2021	07:13:16	0	0	4,745326	2,391	7,1244	-0,377	85,484	0	1011,68	6,2	8,2	8,2	1	1	1	1	1	1	1	1	1	0	1	-0,704722	273,570083	316,87844	0
15.01.2021	07:13:17	0	0	3,728471	2,328	357,6384	-0,381	85,487	0	1011,72	6,2	8,2	8,2	1	1	1	1	1	1	1	1	1	0	1	-2,889359	273,465836	314,210006	0
15.01.2021	07:13:18	0	0	3,728471	2,4195	7,5132	-0,38	85,488	0	1011,66	6,2	8,2	8,2	1	1	1	1	1	1	1	1	1	0	1	-6,412967	273,591872	311,271386	0
15.01.2021	07:13:19	0	0	3,389519	2,7105	9,7524	-0,37	85,501	0	1011,78	6,2	8,2	8,2	1	1	1	1	1	1	1	1	1	0	1	-3,805497	273,481726	313,367576	0
15.01.2021	07:13:20	0	0	2,824599	2,65725	20,3544	-0,377	85,478	0	1011,66	6,2	8,2	8,2	1	1	1	1	1	1	1	1	1	0	1	-3,875969	273,451402	313,156453	0
15.01.2021	07:13:21	0	0	2,485647	2,58	18,4572	-0,371	85,503	0	1011,68	6,1	8,2	8,2	1	1	1	1	1	1	1	1	1	0	1	-3,875969	273,539619	313,565756	0
15.01.2021	07:13:22	0	0	3,841454	2,706	16,0992	-0,374	85,489	0	1011,7	6,1	8,2	8,2	1	1	1	1	1	1	1	1	1	0	1	-7,117689	273,465836	309,981676	0
15.01.2021	07:13:23	0	0	2,259679	2,856	19,1556	-0,375	85,494	0	1011,64	6,2	8,4	8,2	1	1	1	1	1	1	1	1	1	0	1	-4,157858	273,551219	313,337716	0
15.01.2021	07:13:24	0	0	3,728471	2,8395	15,3936	-0,368	85,496	0	1011,7	6,2	8,2	8,2	1	1	1	1	1	1	1	1	1	0	1	-3,24172	273,626787	314,60483	0
15.01.2021	07:13:25	0	0	4,85831	3,00675	8,2548	-0,372	85,508	0	1011,76	6,2	8,2	8,2	1	1	1	1	1	1	1	1	1	0	1	-2,889359	273,468724	314,223402	0
15.01.2021	07:13:26	0	0	4,745326	3,12075	5,6916	-0,373	85,486	0	1011,66	6,2	8,2	8,2	1	1	1	1	1	1	1	1	1	0	1	-3,171247	273,46728	313,934815	0
15.01.2021	07:13:27	0	0	3,276535	3,07425	11,196	-0,373	85,497	0	1011,72	6,1	8,2	8,2	1	1	1	1	1	1	1	1	1	0	1	-3,735025	273,475947	313,411237	0
15.01.2021	07:13:28	0	0	2,598631	3,01125	13,1724	-0,372	85,478	0	1011,78	6,2	8,2	8,2	1	1	1	1	1	1	1	1	1	0	1	-5,778717	273,491845	311,441299	0
15.01.2021	07:13:29	0	0	4,519358	2,958	13,5648	-0,372	85,491	0	1011,82	6,2	8,2	8,2	1	1	1	1	1	1	1	1	1	0	1	-5,567301	273,480281	311,599068	0
15.01.2021	07:13:30	0	0	4,519358	2,6895	14,2992	-0,375	85,492	0	1011,64	6,2	8,2	8,2	1	1	1	1	1	1	1	1	1	0	1	-3,664553	273,625331	314,175232	0
15.01.2021	07:13:31	0	0	4,067422	2,5905	10,8216	-0,374	85,487	0	1011,68	6,2	8,2	8,2	1	1	1	1	1	1	1	1	1	0	1	-7,329105	273,481726	309,843968	0
15.01.2021	07:13:32	0	0	3,050567	2,64675	7,8804	-0,377	85,477	0	1011,58	6,1	8,2	8,2	1	1	1	1	1	1	1	1	1	0	1	-4,580691	273,594779	313,117165	0
15.01.2021	07:13:33	0	0	4,971294	2,73375	13,5324	-0,378	85,474	0	1011,66	6,2	8,2	8,2	1	1	1	1	1	1	1	1	1	0	1	-9,302326	273,461505	307,77695	0
15.01.2021	07:13:34	0	0	4,519358	2,5635	4,4568	-0,37	85,479	0	1011,62	6,2	8,2	8,2	1	1	1	1	1	1	1	1	1	0	1	-3,875969	273,593326	313,815135	0
15.01.2021	07:13:35	0	0	5,197262	2,45025	12,1932	-0,378	85,468	0	1011,62	6,2	8,2	8,2	1	1	1	1	1	1	1	1	1	0	1	-9,654686	273,597687	308,056675	0
15.01.2021	07:13:36	0	0	3,276535	2,364	15,7896	-0,366	85,478	0	1011,88	6,2	8,2	8,2	1	1	1	1	1	1	1	1	1	0	1	-3,171247	273,441305	313,81435	0
15.01.2021	07:13:37	0	0	2,937583	2,295	5,6772	-0,373	85,478	0	1011,66	6,2	8,2	8,2	1	1	1	1	1	1	1	1	1	0	1	-4,933051	273,523681	312,434697	0
15.01.2021	07:13:38	0	0	3,050567	2,46525	9,8532	-0,369	85,482	0	1011,66	6,2	8,2	8,2	1	1	1	1	1	1	1	1	1	0	1	-5,144468	273,626787	312,702082	0
15.01.2021	07:13:39	0	0	5,084278	2,5755	17,2296	-0,372	85,477	0	1011,78	6,2	8,2	8,2	1	1	1	1	1	1	1	1	1	0	1	-9,161381	273,615142	308,631063	0
15.01.2021	07:13:40	0	0	3,389519	2,5575	18,0936	-0,373	85,453	0	1011,68	6,2	8,2	8,2	1	1	1	1	1	1	1	1	1	0	1	-10,147992	273,529475	307,246649	0
15.01.2021	07:13:41	0	0	4,519358	2,4555	21,7764	-0,377	85,482	0	1011,92	6,1	8,2	8,2	1	1	1	1	1	1	1	1	1	0	1	-3,523608	273,464392	313,56906	0
15.01.2021	07:13:42	0	0	3,163551	2,41425	19,1448	-0,375	85,471	0	1011,8	6,2	8,2	8,2	1	1	1	1	1	1	1	1	1	0	1	-5,778717	273,612231	312,000207	0
15.01.2021	07:13:43	0	0	3,502503	2,445	13,5612	-0,374	85,472	0	1011,64	6,2	8,2	8,2	1	1	1	1	1	1	1	1	1	0	1	-7,82241	273,634069	310,057976	0
15.01.2021	07:13:44	0	0	4,067422	2,499	12,114	-0,375	85,464	0	1011,7	6,2	8,2	8,2	1	1	1	1	1	1	1	1	1	0	1	-5,919662	273,616597	311,879544	0
15.01.2021	07:13:45	0	0	2,937583	2,511	7,8876	-0,373	85,465	0	1011,76	6,2	8,2	8,2	1	1	1	1	1	1	1	1	1	0	1	-6,20155	273,578796	311,422071	0
15.01.2021	07:13:46	0	0	3,502503	2,54175	1,6308	-0,379	85,477	0	1011,66	6,2	8,2	8,2	1	1	1	1	1	1	1	1	1	0	1	-0,98661	273,448517	316,03243	0
15.01.2021	07:13:47	0	0	4,29339	2,613	23,202	-0,37	85,469	0	1011,86	6,2	8,2	8,2	1	1	1	1	1	1	1	1	1	0	1	-4,510218	273,532373	312,897872	0
15.01.2021	07:13:48	0	0	2,711615	2,547	14,2992	-0,37	85,467	0	1011,76	6,2	8,2	8,2	1	1	1	1	1	1	1	1	1	0	1	-3,453136	273,634069	314,42725	0
15.01.2021	07:13:49	0	0	4,745326	2,3865	10,0656	-0,373	85,469	0	1011,76	6,2	8,2	8,2	1	1	1	1	1	1	1	1	1	0	1	-4,933051	273,593326	312,758053	0
15.01.2021	07:13:50	0	0	4,85831	2,3685	13,644	-0,373	85,486	0	1011,7	6,2	8,2	8,2	1	1	1	1	1	1	1	1	1	0	1	-8,668076	273,512098	308,645917	0
15.01.2021	07:13:51	0	0	3,389519	2,3535	16,8552	-0,371	85,455	0	1011,66	6,2	8,2	8,2	1	1	1	1	1	1	1	1	1	0	1	-7,540521	273,616597	310,258684	0
15.01.2021	07:13:52	0	0	4,519358	2,43	9,3708	-0,368	85,459	0	1011,64	6,2	8,2	8,2	1	1	1	1	1	1	1	1	1	0	1	-7,188161	273,522233	310,172866	0
15.01.2021	07:13:53	0	0	3,050567	2,466	18,8352	-0,372	85,47	0	1011,68	6,2	8,2	8,2	1	1	1	1	1	1	1	1	1	0	1	-3,805497	273,620963	314,013995	0
15.01.2021	07:13:54	0	0	3,163551	2,463	12,4704	-0,379	85,47	0	1011,56	6,2	8,2	8,2	1	1	1	1	1	1	1	1	1	0	1	-0,634249	273,460061	316,438331	0
15.01.2021	07:13:55	0	0	3,954438	2,45175	9,3852	-0,371	85,469	0	1011,82	6,2	8,2	8,2	1	1	1	1	1	1	1	1	1	0	1	-6,272023	273,512098	311,041971	0
15.01.2021	07:13:56	0	0	4,519358	2,3475	27,9756	-0,373	85,471	0	1011,58	6,2	8,2	8,2	1	1	1	1	1	1	1	1	1	0	1	-5,285412	273,513546	312,035298	0
15.01.2021	07:13:57	0	0	3,728471	2,15775	10,0836	-0,371	85,472	0	1011,7	6,1	8,2	8,2	1	1	1	1	1	1	1	1	1	0	1	-4,298802	273,442747	312,693483	0
15.01.2021	07:13:58	0	0	2,598631	2,11425	359,8344	-0,373	85,466	0	1011,68	6,2	8,2	8,2	1	1	1	1	1	1	1	1	1	0	1	-2,60747	273,56718	314,962209	0
15.01.2021	07:13:59	0	0	4,745326	2,226	3,0348	-0,377	85,468	0	1011,64	6,2	8,2	8,2	1	1	1	1	1	1	1	1	1	0	1	-3,875969	273,629699	313,984113	0
15.01.2021	07:14:00	0	0	2,485647	2,313	4,068	-0,373	85,458	0	1011,7	6,1	8,2	8,2	1	1	1	1	1	1	1	1	1	0	1	-1,409443	273,458618	315,656442	0
15.01.2021	07:14:01	0	0	2,485647	2,313	4,068	-0,373	85,458	0	1011,7	6,1	8,2	8,2	1	1	1	1	1	1	1	1	1	0	1	-1,409443	273,458618	315,656442	0
15.01.2021	07:14:02	0	0	5,42323	2,3355	358,7112	-0,374	85,471	0	1011,7	6,2	8,2	8,2	1	1	1	1	1	1	1	1	1	0	1	-5,919662	273,55412	311,58938	0
15.01.2021	07:14:03	0	0	3,050567	2,48775	16,8444	-0,374	85,466	0	1011,66	6,2	8,4	8,2	1	1	1	1	1	1	1	1	1	0	1	-5,990134	273,474502	311,149426	0
15.01.2021	07:14:04	0	0	4,29339	2,4945	18,5616	-0,367	85,471	0	1011,74	6,2	8,2	8,2	1	1	1	1	1	1	1	1	1	0	1	-4,439746	273,562825	313,109715	0
15.01.2021	07:14:05	0	0	4,406374	2,54325	25,0128	-0,372	85,467	0	1011,8	6,2	8,2	8,2	1	1	1	1	1	1	1	1	1	0	1	-2,255109	273,636982	315,638815	0
15.01.2021	07:14:06	0	0	3,841454	2,466	1,5552	-0,376	85,48	0	1011,7	6,2	8,2	8,2	1	1	1	1	1	1	1	1	1	0	1	-3,523608	273,607867	314,235041	0
15.01.2021	07:14:07	0	0	2,485647	2,57775	2,3004	-0,38	85,469	0	1011,64	6,2	8,2	8,2	1	1	1	1	1	1	1	1	1	0	1	-2,396054	273,557021	315,126459	0
15.01.2021	07:14:08	0	0	4,406374	2,73975	7,1316	-0,368	85,476	0	1011,68	6,2	8,2	8,2	1	1	1	1	1	1	1	1	1	0	1	-6,976744	273,465836	310,122621	0
15.01.2021	07:14:09	0	0	3,163551	2,9235	7,884	-0,375	85,455	0	1011,48	6,2	8,2	8,2	1	1	1	1	1	1	1	1	1	0	1	-2,325581	273,501969	314,941408	0
15.01.2021	07:14:10	0	0	3,615487	3,06075	359,4204	-0,37	85,468	0	1011,56	6,2	8,2	8,2	1	1	1	1	1	1	1	1	1	0	1	-7,751938	273,458618	309,313948	0
15.01.2021	07:14:11	0	0	3,615487	3,0975	8,9964	-0,374	85,449	0	1011,64	6,2	8,2	8,2	1	1	1	1	1	1	1	1	1	0	1	-3,523608	273,584606	314,126999	0
15.01.2021	07:14:12	0	0	4,180406	2,89725	1,926	-0,374	85,469	0	1011,62	6,2	8,2	8,2	1	1	1	1	1	1	1	1	1	0	1	-4,369274	273,619508	313,443455	0
15.01.2021	07:14:13	0	0	4,067422	2,86275	17,244	-0,37	85,47	0	1011,62	6,2	8,2	8,2	1	1	1	1	1	1	1	1	1	0	1	-6,131078	273,464392	310,96159	0
15.01.2021	07:14:14	0	0	3,615487	2,91525	20,6316	-0,373	85,45	0	1011,68	6,2	8,2	8,2	1	1	1	1	1	1	1	1	1	0	1	-5,144468	273,558472	312,384781	0
15.01.2021	07:14:15	0	0	4,85831	2,90025	20,6316	-0,368	85,471	0	1011,94	6,2	8,2	8,2	1	1	1	1	1	1	1	1	1	0	1	-4,510218	273,618052	313,295749	0
15.01.2021	07:14:16	0	0	3,841454	2,90325	22,8276	-0,373	85,467	0	1011,7	6,1	8,2	8,2	1	1	1	1	1	1	1	1	1	0	1	-6,906272	273,475947	310,239989	0
15.01.2021	07:14:17	0	0	4,406374	2,7615	27,9864	-0,367	85,472	0	1011,68	6,1	8,2	8,2	1	1	1	1	1	1	1	1	1	0	1	-1,973221	273,545418	315,495424	0
15.01.2021	07:14:18	0	0	2,937583	2,79	9,0144	-0,37	85,451	0	1011,76	6,2	8,2	8,2	1	1	1	1	1	1	1	1	1	0	1	-2,536998	273,618052	315,268969	0
15.01.2021	07:14:19	0	0	4,519358	2,86575	14,22	-0,376	85,469	0	1011,82	6,2	8,2	8,2	1	1	1	1	1	1	1	1	1	0	1	-5,496829	273,452845	311,542285	0
15.01.2021	07:14:20	0	0	4,632342	2,91975	16,4808	-0,369	85,467	0	1011,74	6,2	8,2	8,2	1	1	1	1	1	1	1	1	1	0	1	-2,184637	273,53817	315,25036	0
15.01.2021	07:14:21	0	0	3,841454	2,9385	10,4292	-0,373	85,455	0	1011,76	6,1	8,2	8,2	1	1	1	1	1	1	1	1	1	0	1	-1,902748	273,644268	316,025034	0
15.01.2021	07:14:22	0	0	4,632342	2,9625	22,4496	-0,369	85,473	0	1011,82	6,2	8,2	8,2	1	1	1	1	1	1	1	1	1	0	1	-3,875969	273,597687	313,835392	0
15.01.2021	07:14:23	0	0	3,954438	2,86725	21,3912	-0,366	85,477	0	1011,78	6,2	8,2	8,2	1	1	1	1	1	1	1	1	1	0	1	-2,677942	273,528027	314,709974	0
15.01.2021	07:14:24	0	0	4,632342	2,69775	9,3636	-0,373	85,46	0	1011,76	6,2	8,2	8,2	1	1	1	1	1	1	1	1	1	0	1	-5,073996	273,623875	312,759024	0
15.01.2021	07:14:25	0	0	3,050567	2,73525	12,8412	-0,376	85,467	0	1011,58	6,2	8,2	8,2	1	1	1	1	1	1	1	1	1	0	1	-6,624383	273,55557	310,891394	0
15.01.2021	07:14:26	0	0	4,632342	2,67825	11,196	-0,368	85,478	0	1011,74	6,2	8,2	8,2	1	1	1	1	1	1	1	1	1	0	1	-6,060606	273,470169	311,058854	0
15.01.2021	07:14:27	0	0	2,485647	2,7465	8,2728	-0,37	85,455	0	1011,8	6,2	8,2	8,2	1	1	1	1	1	1	1	1	1	0	1	-7,963354	273,600595	309,761514	0
15.01.2021	07:14:28	0	0	4,632342	2,86125	14,3028	-0,37	85,481	0	1011,72	6,2	8,2	8,2	1	1	1	1	1	1	1	1	1	0	1	-7,399577	273,507757	309,894268	0
15.01.2021	07:14:29	0	0	4,067422	2,8515	25,7868	-0,365	85,472	0	1011,88	6,2	8,2	8,2	1	1	1	1	1	1	1	1	1	0	1	-5,567301	273,638439	312,333394	0
15.01.2021	07:14:30	0	0	2,824599	2,79075	355,4532	-0,37	85,471	0	1011,68	6,2	8,2	8,2	1	1	1	1	1	1	1	1	1	0	1	-4,510218	273,549768	312,978622	0
15.01.2021	07:14:31	0	0	4,519358	2,94075	13,1724	-0,368	85,475	0	1011,64	6,2	8,2	8,2	1	1	1	1	1	1	1	1	1	0	1	-3,805497	273,613686	313,980187	0
15.01.2021	07:14:32	0	0	4,29339	2,94525	22,4568	-0,371	85,47	0	1011,72	6,2	8,2	8,2	1	1	1	1	1	1	1	1	1	0	1	-2,818887	273,618052	314,987081	0
15.01.2021	07:14:33	0	0	4,632342	2,6625	16,8408	-0,374	85,467	0	1011,72	6,2	8,2	8,2	1	1	1	1	1	1	1	1	1	0	1	-1,268499	273,583154	316,375361	0
15.01.2021	07:14:34	0	0	2,937583	2,48925	14,3064	-0,37	85,458	0	1011,7	6,2	8,2	8,2	1	1	1	1	1	1	1	1	1	0	1	-6,906272	273,477391	310,246691	0
15.01.2021	07:14:35	0	0	4,85831	2,33325	20,6424	-0,368	85,464	0	1011,66	6,2	8,4	8,2	1	1	1	1	1	1	1	1	1	0	1	-4,651163	273,629699	313,20892	0
15.01.2021	07:14:36	0	0	4,519358	2,24925	14,6448	-0,371	85,466	0	1011,56	6,2	8,2	8,2	1	1	1	1	1	1	1	1	1	0	1	-4,792107	273,517889	312,548759	0
15.01.2021	07:14:37	0	0	3,728471	2,37	15,7752	-0,373	85,463	0	1011,72	6,2	8,2	8,2	1	1	1	1	1	1	1	1	1	0	1	-1,409443	273,618052	316,396524	0
15.01.2021	07:14:38	0	0	3,728471	2,41575	10,4292	-0,371	85,454	0	1011,72	6,2	8,2	8,2	1	1	1	1	1	1	1	1	1	0	1	-6,342495	273,615142	311,44995	0
15.01.2021	07:14:39	0	0	4,632342	2,3715	13,914	-0,379	85,46	0	1011,68	6,2	8,2	8,2	1	1	1	1	1	1	1	1	1	0	1	-7,470049	273,590419	310,207553	0
15.01.2021	07:14:40	0	0	4,745326	2,35275	12,8556	-0,367	85,468	0	1011,76	6,2	8,2	8,2	1	1	1	1	1	1	1	1	1	0	1	-5,073996	273,610777	312,69817	0
15.01.2021	07:14:41	0	0	2,937583	2,57025	6,426	-0,372	85,461	0	1011,76	6,1	8,2	8,2	1	1	1	1	1	1	1	1	1	0	1	-3,24172	273,619508	314,57101	0
15.01.2021	07:14:42	0	0	4,519358	2,89875	9,7488	-0,371	85,451	0	1011,76	6,2	8,2	8,2	1	1	1	1	1	1	1	1	1	0	1	-8,315715	273,499076	308,93785	0
15.01.2021	07:14:43	0	0	2,372663	3,08325	7,902	-0,371	85,474	0	1011,7	6,2	8,2	8,2	1	1	1	1	1	1	1	1	1	0	1	-6,412967	273,584606	311,23764	0
15.01.2021	07:14:44	0	0	3,050567	3,228	6,4404	-0,377	85,469	0	1011,72	6,2	8,2	8,2	1	1	1	1	1	1	1	1	1	0	1	-2,043693	273,620963	315,7758	0
15.01.2021	07:14:45	0	0	3,615487	3,00825	25,0956	-0,377	85,456	0	1011,6	6,2	8,2	8,2	1	1	1	1	1	1	1	1	1	0	1	-8,245243	273,53817	309,189754	0
15.01.2021	07:14:46	0	0	3,163551	2,76975	6,8184	-0,371	85,463	0	1011,74	6,2	8,2	8,2	1	1	1	1	1	1	1	1	1	0	1	-0,352361	273,616597	317,446845	0
15.01.2021	07:14:47	0	0	5,084278	2,529	32,1372	-0,369	85,47	0	1011,72	6,2	8,2	8,2	1	1	1	1	1	1	1	1	1	0	1	-2,325581	273,599141	315,392533	0
15.01.2021	07:14:48	0	0	4,406374	2,2995	23,652	-0,368	85,467	0	1011,82	6,2	8,2	8,2	1	1	1	1	1	1	1	1	1	0	1	-7,82241	273,597687	309,888951	0
15.01.2021	07:14:49	0	0	3,276535	2,22675	16,578	-0,371	85,48	0	1011,8	6,2	8,2	8,2	1	1	1	1	1	1	1	1	1	0	1	-5,990134	273,619508	311,822596	0
15.01.2021	07:14:50	0	0	3,502503	2,379	15,39	-0,374	85,479	0	1011,58	6,2	8,2	8,2	1	1	1	1	1	1	1	1	1	0	1	-4,087385	273,557021	313,435127	0
15.01.2021	07:14:51	0	0	3,728471	2,57625	16,4664	-0,376	85,473	0	1011,7	6,2	8,2	8,2	1	1	1	1	1	1	1	1	1	0	1	-7,258633	273,470169	309,860827	0
15.01.2021	07:14:52	0	0	4,406348	2,70225	23,58	-0,373	85,469	0	1011,7	6,2	8,2	8,3	1	1	1	1	1	1	1	1	1	0	1	-9,513742	273,632612	308,359875	0
15.01.2021	07:14:53	0	0	2,937583	2,9655	4,086	-0,372	85,464	0	1011,76	6,2	8,2	8,2	1	1	1	1	1	1	1	1	1	0	1	-2,536998	273,55557	314,978779	0
15.01.2021	07:14:54	0	0	4,85831	3,19125	3,402	-0,374	85,466	0	1011,7	6,1	8,2	8,2	1	1	1	1	1	1	1	1	1	0	1	-2,818887	273,464392	314,273781	0
15.01.2021	07:14:55	0	0	2,598631	3,40425	4,0824	-0,373	85,459	0	1011,7	6,2	8,2	8,2	1	1	1	1	1	1	1	1	1	0	1	-2,114165	273,574439	315,489224	0
15.01.2021	07:14:56	0	0	4,180406	3,29475	16,488	-0,37	85,469	0	1011,64	6,2	8,2	8,2	1	1	1	1	1	1	1	1	1	0	1	-9,231853	273,461505	307,847422	0
15.01.2021	07:14:57	0	0	3,728471	2,96925	15,7896	-0,371	85,453	0	1011,68	6,2	8,2	8,2	1	1	1	1	1	1	1	1	1	0	1	-1,761804	273,628243	316,091512	0
15.01.2021	07:14:58	0	0	4,180406	2,805	27,27	-0,372	85,46	0	1011,6	6,2	8,2	8,2	1	1	1	1	1	1	1	1	1	0	1	-5,990134	273,530924	311,411231	0
15.01.2021	07:14:59	0	0	3,389519	2,61375	27,972	-0,366	85,463	0	1011,68	6,2	8,2	8,2	1	1	1	1	1	1	1	1	1	0	1	-5,637773	273,465836	311,461592	0
15.01.2021	07:15:00	0	0	3,163551	2,01825	7,1388	-0,367	85,472	0	1011,74	6,2	8,2	8,2	1	1	1	1	1	1	1	1	1	0	1	-4,22833	273,565728	313,33461	0
15.01.2021	07:15:01	0	0	3,163551	2,01825	7,1388	-0,367	85,472	0	1011,74	6,2	8,2	8,2	1	1	1	1	1	1	1	1	1	0	1	-4,22833	273,565728	313,33461	0
15.01.2021	07:15:02	0	0	4,745326	1,773	22,0788	-0,368	85,471	0	1011,72	6,2	8,2	8,2	1	1	1	1	1	1	1	1	1	0	1	-8,668076	273,46728	308,437986	0
15.01.2021	07:15:03	0	0	3,502503	1,779	15,03	-0,371	85,478	0	1011,58	6,2	8,2	8,2	1	1	1	1	1	1	1	1	1	0	1	-6,412967	273,587513	311,251137	0
15.01.2021	07:15:04	0	0	4,406374	1,929	27,2808	-0,371	85,469	0	1011,76	6,2	8,2	8,2	1	1	1	1	1	1	1	1	1	0	1	-6,272023	273,458618	310,793863	0
15.01.2021	07:15:05	0	0	4,971294	2,1015	27,27	-0,371	85,474	0	1011,76	6,2	8,2	8,2	1	1	1	1	1	1	1	1	1	0	1	-9,020437	273,602049	308,711187	0
15.01.2021	07:15:06	0	0	4,632342	2,21925	33,2676	-0,375	85,485	0	1011,78	6,2	8,2	8,2	1	1	1	1	1	1	1	1	1	0	1	-2,959831	273,513546	314,36088	0
15.01.2021	07:15:07	0	0	2,711615	2,355	32,4972	-0,372	85,478	0	1011,76	6,2	8,2	8,2	1	1	1	1	1	1	1	1	1	0	1	-6,765328	273,623875	311,067692	0
15.01.2021	07:15:08	0	0	4,745326	2,541	23,598	-0,369	85,478	0	1011,74	6,2	8,2	8,2	1	1	1	1	1	1	1	1	1	0	1	-8,45666	273,516441	308,877487	0
15.01.2021	07:15:09	0	0	3,502503	2,62425	11,718	-0,371	85,465	0	1011,68	6,2	8,2	8,2	1	1	1	1	1	1	1	1	1	0	1	-6,412967	273,448517	310,606074	0
15.01.2021	07:15:10	0	0	3,728471	2,6445	14,2884	-0,373	85,468	0	1011,62	6,2	8,2	8,2	1	1	1	1	1	1	1	1	1	0	1	-2,677942	273,581701	314,959171	0
15.01.2021	07:15:11	0	0	4,745326	2,5815	13,9176	-0,373	85,48	0	1011,8	6,2	8,2	8,2	1	1	1	1	1	1	1	1	1	0	1	-4,22833	273,620963	313,591162	0
15.01.2021	07:15:12	0	0	4,180406	2,5455	6,4332	-0,374	85,479	0	1011,72	6,2	8,2	8,2	1	1	1	1	1	1	1	1	1	0	1	-6,906272	273,55412	310,60277	0
15.01.2021	07:15:13	0	0	3,728471	2,421	7,884	-0,373	85,469	0	1011,8	6,2	8,2	8,2	1	1	1	1	1	1	1	1	1	0	1	-4,439746	273,620963	313,379746	0
15.01.2021	07:15:14	0	0	4,406374	2,331	16,0992	-0,371	85,479	0	1011,72	6,1	8,2	8,2	1	1	1	1	1	1	1	1	1	0	1	-5,496829	273,591872	312,187524	0
15.01.2021	07:15:15	0	0	4,745326	2,22975	20,628	-0,374	85,48	0	1011,8	6,2	8,2	8,2	1	1	1	1	1	1	1	1	1	0	1	-8,668076	273,571535	308,921827	0
15.01.2021	07:15:16	0	0	2,372663	2,20125	11,1996	-0,367	85,483	0	1011,76	6,1	8,2	8,2	1	1	1	1	1	1	1	1	1	0	1	-8,668076	273,606412	309,083816	0
15.01.2021	07:15:17	0	0	4,067422	2,24175	8,6112	-0,37	85,463	0	1011,7	6,2	8,2	8,2	1	1	1	1	1	1	1	1	1	0	1	-7,258633	273,533822	310,156183	0
15.01.2021	07:15:18	0	0	2,824599	2,349	18,0936	-0,369	85,467	0	1011,96	6,2	8,2	8,2	1	1	1	1	1	1	1	1	1	0	1	-6,131078	273,634069	311,749307	0
15.01.2021	07:15:19	0	0	2,485647	2,7135	13,1616	-0,37	85,485	0	1011,96	6,2	8,2	8,2	1	1	1	1	1	1	1	1	1	0	1	-5,637773	273,543968	311,824141	0
15.01.2021	07:15:20	0	0	4,180406	2,83725	13,9356	-0,372	85,469	0	1011,8	6,2	8,2	8,2	1	1	1	1	1	1	1	1	1	0	1	-3,946441	273,468724	313,16632	0
15.01.2021	07:15:21	0	0	4,406374	2,98875	33,3432	-0,367	85,463	0	1011,72	6,2	8,2	8,2	1	1	1	1	1	1	1	1	1	0	1	-6,694856	273,613686	311,090829	0
15.01.2021	07:15:22	0	0	4,85831	2,79675	22,8456	-0,367	85,491	0	1012,02	6,2	8,2	8,2	1	1	1	1	1	1	1	1	1	0	1	-7,681466	273,572987	309,91518	0
15.01.2021	07:15:23	0	0	4,29339	2,85525	13,5504	-0,37	85,467	0	1011,7	6,2	8,2	8,2	1	1	1	1	1	1	1	1	1	0	1	-4,862579	273,615142	312,929865	0
15.01.2021	07:15:24	0	0	5,310246	2,79825	11,7252	-0,371	85,462	0	1011,72	6,2	8,2	8,2	1	1	1	1	1	1	1	1	1	0	1	-8,315715	273,549768	309,173125	0
15.01.2021	07:15:25	0	0	2,824599	2,85975	9,0576	-0,376	85,456	0	1011,62	6,2	8,2	8,2	1	1	1	1	1	1	1	1	1	0	1	-7,681466	273,628243	310,17185	0
15.01.2021	07:15:26	0	0	2,598631	2,89275	10,4328	-0,37	85,474	0	1011,66	6,2	8,2	8,2	1	1	1	1	1	1	1	1	1	0	1	-6,906272	273,610777	310,865893	0
15.01.2021	07:15:27	0	0	4,180406	2,8965	10,8252	-0,37	85,468	0	1011,8	6,2	8,2	8,2	1	1	1	1	1	1	1	1	1	0	1	-2,466526	273,481726	314,706547	0
15.01.2021	07:15:28	0	0	3,163551	2,84925	10,0548	-0,367	85,468	0	1011,86	6,2	8,2	8,2	1	1	1	1	1	1	1	1	1	0	1	-7,047216	273,623875	310,785803	0
15.01.2021	07:15:29	0	0	3,841454	2,724	8,2656	-0,373	85,463	0	1011,72	6,2	8,2	8,2	1	1	1	1	1	1	1	1	1	0	1	-9,372798	273,510651	307,934479	0
15.01.2021	07:15:30	0	0	2,598631	2,556	0	-0,367	85,464	0	1011,72	6,2	8,4	8,2	1	1	1	1	1	1	1	1	1	0	1	-5,21494	273,623875	312,61808	0
15.01.2021	07:15:31	0	0	4,29339	2,472	1,1736	-0,372	85,462	0	1011,82	6,2	8,5	8,2	1	1	1	1	1	1	1	1	1	0	1	-2,60747	273,551219	314,888104	0
15.01.2021	07:15:32	0	0	2,711615	2,48175	360	-0,374	85,457	0	1011,72	6,2	8,2	8,2	1	1	1	1	1	1	1	1	1	0	1	-2,536998	273,628243	315,316318	0
15.01.2021	07:15:33	0	0	3,389519	2,44875	7,884	-0,364	85,465	0	1011,78	6,2	8,4	8,2	1	1	1	1	1	1	1	1	1	0	1	-6,20155	273,604958	311,543585	0
15.01.2021	07:15:34	0	0	3,276535	2,436	3,3984	-0,369	85,46	0	1011,8	6,2	8,4	8,2	1	1	1	1	1	1	1	1	1	0	1	-1,198027	273,574439	316,405362	0
15.01.2021	07:15:35	0	0	4,406374	2,3055	4,0824	-0,376	85,464	0	1011,74	6,2	8,2	8,2	1	1	1	1	1	1	1	1	1	0	1	-0,845666	273,444189	316,153307	0
15.01.2021	07:15:36	0	0	3,728471	2,3325	4,464	-0,372	85,447	0	1011,74	6,2	8,2	8,2	1	1	1	1	1	1	1	1	1	0	1	-0	273,56718	317,569679	0
15.01.2021	07:15:37	0	0	3,163551	2,57475	4,464	-0,371	85,461	0	1011,76	6,2	8,2	8,2	1	1	1	1	1	1	1	1	1	0	1	-5,708245	273,452845	311,330868	0
15.01.2021	07:15:38	0	0	4,519358	2,877	9,7488	-0,374	85,453	0	1011,76	6,2	8,2	8,2	1	1	1	1	1	1	1	1	1	0	1	-0,211416	273,543968	317,250497	0
15.01.2021	07:15:39	0	0	4,29339	3,07125	6,4548	-0,376	85,457	0	1011,74	6,2	8,4	8,2	1	1	1	1	1	1	1	1	1	0	1	-1,338971	273,616597	316,460235	0
15.01.2021	07:15:40	0	0	4,067422	3,123	14,0148	-0,369	85,457	0	1011,66	6,2	8,2	8,2	1	1	1	1	1	1	1	1	1	0	1	-1,057082	273,451402	315,975339	0
15.01.2021	07:15:41	0	0	3,163551	3,2625	0,126	-0,369	85,443	0	1011,7	6,2	8,2	8,2	1	1	1	1	1	1	1	1	1	0	1	-3,382664	273,55557	314,133113	0
15.01.2021	07:15:42	0	0	4,745326	3,32625	356,598	-0,369	85,45	0	1011,58	6,2	8,2	8,2	1	1	1	1	1	1	1	1	1	0	1	-5,496829	273,629699	312,363254	0
15.01.2021	07:15:43	0	0	3,728471	3,27225	9,7524	-0,374	85,445	0	1011,72	6,2	8,2	8,2	1	1	1	1	1	1	1	1	1	0	1	-4,510218	273,561374	313,032505	0
15.01.2021	07:15:44	0	0	2,937583	3,39975	9,756	-0,372	85,455	0	1011,72	6,2	8,2	8,2	1	1	1	1	1	1	1	1	1	0	1	-3,946441	273,439863	313,03247	0
15.01.2021	07:15:45	0	0	4,067422	3,348	9,3564	-0,376	85,449	0	1011,66	6,2	8,2	8,2	1	1	1	1	1	1	1	1	1	0	1	-8,104299	273,548318	309,377809	0
15.01.2021	07:15:46	0	0	3,841454	3,4545	14,292	-0,37	85,453	0	1011,62	6,2	8,4	8,2	1	1	1	1	1	1	1	1	1	0	1	-3,312192	273,623875	314,520828	0
15.01.2021	07:15:47	0	0	4,406374	3,636	16,2072	-0,372	85,458	0	1011,66	6,2	8,2	8,2	1	1	1	1	1	1	1	1	1	0	1	-2,818887	273,529475	314,575754	0
15.01.2021	07:15:48	0	0	4,632342	3,432	25,434	-0,367	85,447	0	1011,64	6,2	8,2	8,2	1	1	1	1	1	1	1	1	1	0	1	-4,510218	273,619508	313,302511	0
15.01.2021	07:15:49	0	0	3,841454	3,261	27,6516	-0,371	85,448	0	1011,78	6,2	8,2	8,2	1	1	1	1	1	1	1	1	1	0	1	-1,409443	273,53817	316,025554	0
15.01.2021	07:15:50	0	0	4,85831	3,03075	33,6456	-0,371	85,453	0	1011,62	6,2	8,2	8,2	1	1	1	1	1	1	1	1	1	0	1	-2,677942	273,619508	315,134787	0
15.01.2021	07:15:51	0	0	5,42323	2,7945	19,1448	-0,374	85,448	0	1011,68	6,2	8,2	8,2	1	1	1	1	1	1	1	1	1	0	1	-4,721635	273,591872	312,962718	0
15.01.2021	07:15:52	0	0	4,180406	2,5905	16,4736	-0,374	85,447	0	1011,72	6,2	8,2	8,2	1	1	1	1	1	1	1	1	1	0	1	-6,412967	273,615142	311,379478	0
15.01.2021	07:15:53	0	0	3,615487	2,53575	15,3864	-0,371	85,448	0	1011,66	6,2	8,2	8,2	1	1	1	1	1	1	1	1	1	0	1	-4,439746	273,483172	312,740031	0
15.01.2021	07:15:54	0	0	3,050567	2,376	27,2772	-0,375	85,461	0	1011,68	6,2	8,2	8,2	1	1	1	1	1	1	1	1	1	0	1	-5,637773	273,564277	311,918427	0
15.01.2021	07:15:55	0	0	4,406374	2,38725	16,8408	-0,373	85,465	0	1011,78	6,2	8,2	8,2	1	1	1	1	1	1	1	1	1	0	1	-6,976744	273,626787	310,869806	0
15.01.2021	07:15:56	0	0	4,632342	2,5545	20,2716	-0,373	85,448	0	1011,66	6,2	8,2	8,2	1	1	1	1	1	1	1	1	1	0	1	-1,409443	273,545418	316,059201	0
15.01.2021	07:15:57	0	0	4,971294	2,667	21,3912	-0,366	85,464	0	1011,72	6,2	8,2	8,2	1	1	1	1	1	1	1	1	1	0	1	-4,651163	273,618052	313,154804	0
15.01.2021	07:15:58	0	0	3,615487	2,62575	19,9188	-0,367	85,474	0	1011,7	6,2	8,2	8,2	1	1	1	1	1	1	1	1	1	0	1	-5,073996	273,494737	312,159438	0
15.01.2021	07:15:59	0	0	2,598631	2,55225	23,2164	-0,37	85,449	0	1011,7	6,2	8,2	8,2	1	1	1	1	1	1	1	1	1	0	1	-8,597604	273,486062	308,595584	0
15.01.2021	07:16:00	0	0	3,502503	2,646	3,0168	-0,371	85,472	0	1011,74	6,2	8,2	8,2	1	1	1	1	1	1	1	1	1	0	1	-8,174771	273,545418	309,293874	0
15.01.2021	07:16:01	0	0	3,502503	2,646	3,0168	-0,371	85,472	0	1011,74	6,2	8,2	8,2	1	1	1	1	1	1	1	1	1	0	1	-8,174771	273,545418	309,293874	0
15.01.2021	07:16:02	0	0	4,745326	2,799	357,0264	-0,365	85,464	0	1011,78	6,2	8,2	8,2	1	1	1	1	1	1	1	1	1	0	1	-0	273,626787	317,84655	0
15.01.2021	07:16:03	0	0	4,067422	2,77425	4,0896	-0,372	85,451	0	1011,62	6,2	8,2	8,2	1	1	1	1	1	1	1	1	1	0	1	-2,677942	273,606412	315,07395	0
15.01.2021	07:16:04	0	0	4,632342	2,664	19,5156	-0,369	85,464	0	1011,68	6,2	8,2	8,2	1	1	1	1	1	1	1	1	1	0	1	-5,84919	273,625331	311,990595	0
15.01.2021	07:16:05	0	0	2,824599	2,54325	17,226	-0,369	85,457	0	1011,46	6,2	8,4	8,2	1	1	1	1	1	1	1	1	1	0	1	-4,933051	273,583154	312,710808	0
15.01.2021	07:16:06	0	0	3,502503	2,523	14,6412	-0,371	85,469	0	1011,68	6,2	8,2	8,2	1	1	1	1	1	1	1	1	1	0	1	-4,792107	273,494737	312,441327	0
15.01.2021	07:16:07	0	0	5,310246	2,51025	20,2716	-0,373	85,454	0	1011,72	6,1	8,2	8,2	1	1	1	1	1	1	1	1	1	0	1	-7,892882	273,618052	309,913085	0
15.01.2021	07:16:08	0	0	4,519358	2,586	8,6112	-0,373	85,472	0	1011,58	6,2	8,2	8,2	1	1	1	1	1	1	1	1	1	0	1	-5,003524	273,55557	312,512253	0
15.01.2021	07:16:09	0	0	4,85831	2,751	4,8276	-0,371	85,452	0	1011,86	6,2	8,2	8,2	1	1	1	1	1	1	1	1	1	0	1	-4,721635	273,618052	313,084332	0
15.01.2021	07:16:10	0	0	3,163551	2,92125	10,44	-0,37	85,463	0	1011,72	6,2	8,4	8,2	1	1	1	1	1	1	1	1	1	0	1	-4,439746	273,578796	313,183875	0
15.01.2021	07:16:11	0	0	3,389498	2,9385	16,866	-0,364	85,46	0	1011,7	6,2	8,2	8,3	1	1	1	1	1	1	1	1	1	0	1	-4,510218	273,491845	312,709798	0
15.01.2021	07:16:12	0	0	2,824599	2,796	10,4436	-0,373	85,459	0	1011,62	6,2	8,2	8,2	1	1	1	1	1	1	1	1	1	0	1	-3,875969	273,462949	313,210002	0
15.01.2021	07:16:13	0	0	3,050567	2,76975	10,062	-0,373	85,464	0	1011,62	6,2	8,2	8,2	1	1	1	1	1	1	1	1	1	0	1	-3,312192	273,55412	314,19685	0
15.01.2021	07:16:14	0	0	3,163532	2,6025	23,5908	-0,368	85,465	0	1011,72	6,2	8,2	8,3	1	1	1	1	1	1	1	1	1	0	1	-9,020437	273,458618	308,045449	0
15.01.2021	07:16:15	0	0	5,084278	2,46375	19,1448	-0,37	85,47	0	1011,72	6,1	8,4	8,2	1	1	1	1	1	1	1	1	1	0	1	-4,016913	273,516441	313,317233	0
15.01.2021	07:16:16	0	0	3,276535	2,358	17,7984	-0,373	85,469	0	1011,7	6,2	8,2	8,2	1	1	1	1	1	1	1	1	1	0	1	-4,22833	273,50631	313,058801	0
15.01.2021	07:16:17	0	0	3,163551	2,196	2,6532	-0,379	85,464	0	1011,6	6,2	8,2	8,2	1	1	1	1	1	1	1	1	1	0	1	-3,664553	273,458618	313,401333	0
15.01.2021	07:16:18	0	0	4,519358	2,2605	14,3028	-0,374	85,476	0	1011,8	6,1	8,2	8,2	1	1	1	1	1	1	1	1	1	0	1	-2,043693	273,484617	315,142789	0
15.01.2021	07:16:19	0	0	3,615487	2,45325	8,28	-0,375	85,469	0	1011,66	6,2	8,2	8,2	1	1	1	1	1	1	1	1	1	0	1	-5,637773	273,583154	312,006087	0
15.01.2021	07:16:20	0	0	4,067422	2,4555	16,11	-0,369	85,476	0	1011,72	6,2	8,2	8,2	1	1	1	1	1	1	1	1	1	0	1	-5,990134	273,619508	311,822596	0
15.01.2021	07:16:21	0	0	3,954438	2,3505	11,7288	-0,373	85,464	0	1011,74	6,2	8,2	8,2	1	1	1	1	1	1	1	1	1	0	1	-8,668076	273,542518	308,787108	0
15.01.2021	07:16:22	0	0	4,745326	2,28525	17,712	-0,365	85,462	0	1011,66	6,2	8,2	8,2	1	1	1	1	1	1	1	1	1	0	1	-7,963354	273,460061	309,109226	0
15.01.2021	07:16:23	0	0	4,067422	2,229	360	-0,371	85,457	0	1011,54	6,2	8,2	8,2	1	1	1	1	1	1	1	1	1	0	1	-7,892882	273,581701	309,744231	0
15.01.2021	07:16:24	0	0	4,85831	2,24175	28,3536	-0,374	85,455	0	1011,74	6,2	8,2	8,2	1	1	1	1	1	1	1	1	1	0	1	-2,466526	273,622419	315,35973	0
15.01.2021	07:16:25	0	0	4,745326	2,286	35,082	-0,375	85,471	0	1011,72	6,2	8,2	8,2	1	1	1	1	1	1	1	1	1	0	1	-3,030303	273,449959	313,995428	0
15.01.2021	07:16:26	0	0	4,180406	2,27925	18,0684	-0,37	85,478	0	1011,6	6,1	8,2	8,2	1	1	1	1	1	1	1	1	1	0	1	-4,721635	273,530924	312,67973	0
15.01.2021	07:16:27	0	0	4,406374	2,23575	13,5504	-0,375	85,476	0	1011,84	6,2	8,2	8,2	1	1	1	1	1	1	1	1	1	0	1	-2,536998	273,619508	315,275732	0
15.01.2021	07:16:28	0	0	3,954438	2,2845	6,4332	-0,374	85,468	0	1011,8	6,2	8,2	8,2	1	1	1	1	1	1	1	1	1	0	1	-3,735025	273,481726	313,438048	0
15.01.2021	07:16:29	0	0	4,971294	2,48475	14,2992	-0,375	85,478	0	1011,72	6,2	8,2	8,2	1	1	1	1	1	1	1	1	1	0	1	-4,298802	273,562825	313,250659	0
15.01.2021	07:16:30	0	0	4,632342	2,6385	5,6808	-0,366	85,487	0	1011,78	6,2	8,2	8,2	1	1	1	1	1	1	1	1	1	0	1	-4,862579	273,618052	312,943388	0
15.01.2021	07:16:31	0	0	4,406374	2,643	15,4152	-0,375	85,48	0	1011,58	6,2	8,2	8,2	1	1	1	1	1	1	1	1	1	0	1	-3,382664	273,599141	314,335451	0
15.01.2021	07:16:32	0	0	4,632342	2,6265	12,114	-0,374	85,474	0	1011,74	6,2	8,2	8,2	1	1	1	1	1	1	1	1	1	0	1	-4,933051	273,470169	312,186408	0
15.01.2021	07:16:33	0	0	4,632342	2,5245	5,6772	-0,369	85,475	0	1011,7	6,2	8,2	8,2	1	1	1	1	1	1	1	1	1	0	1	-6,694856	273,590419	310,982747	0
15.01.2021	07:16:34	0	0	2,711615	2,565	10,08	-0,376	85,476	0	1011,66	6,2	8,4	8,2	1	1	1	1	1	1	1	1	1	0	1	-5,778717	273,590419	311,898885	0
15.01.2021	07:16:35	0	0	2,937583	2,49075	13,5648	-0,377	85,475	0	1011,72	6,2	8,2	8,2	1	1	1	1	1	1	1	1	1	0	1	-5,496829	273,439863	311,482082	0
15.01.2021	07:16:36	0	0	3,728471	2,39925	11,196	-0,375	85,472	0	1011,78	6,2	8,4	8,2	1	1	1	1	1	1	1	1	1	0	1	-2,043693	273,577343	315,573184	0
15.01.2021	07:16:37	0	0	2,937583	2,33775	14,6448	-0,371	85,478	0	1011,7	6,2	8,2	8,2	1	1	1	1	1	1	1	1	1	0	1	-3,171247	273,626787	314,675302	0
15.01.2021	07:16:38	0	0	2,598631	2,2725	348,6996	-0,377	85,476	0	1011,74	6,2	8,2	8,2	1	1	1	1	1	1	1	1	1	0	1	-4,651163	273,517889	312,689703	0
15.01.2021	07:16:39	0	0	4,971264	2,352	19,1556	-0,373	85,485	0	1011,8	6,2	8,2	8,3	1	1	1	1	1	1	1	1	1	0	1	-3,312192	273,606412	314,4397	0
15.01.2021	07:16:40	0	0	4,406374	2,3505	11,7252	-0,371	85,481	0	1011,68	6,2	8,2	8,2	1	1	1	1	1	1	1	1	1	0	1	-5,144468	273,565728	312,418472	0
15.01.2021	07:16:41	0	0	4,632342	2,2275	15,39	-0,374	85,474	0	1011,7	6,2	8,4	8,2	1	1	1	1	1	1	1	1	1	0	1	-7,117689	273,609322	310,647718	0
15.01.2021	07:16:42	0	0	4,745326	2,091	25,5132	-0,367	85,475	0	1011,88	6,2	8,2	8,2	1	1	1	1	1	1	1	1	1	0	1	-1,902748	273,542518	315,552435	0
15.01.2021	07:16:43	0	0	4,519358	2,01	21,7692	-0,377	85,471	0	1011,68	6,2	8,2	8,2	1	1	1	1	1	1	1	1	1	0	1	-5,496829	273,618052	312,309138	0
15.01.2021	07:16:44	0	0	3,163551	1,9395	16,8732	-0,363	85,48	0	1011,74	6,2	8,2	8,2	1	1	1	1	1	1	1	1	1	0	1	-7,470049	273,56718	310,09963	0
15.01.2021	07:16:45	0	0	3,050567	1,8915	16,1064	-0,365	85,485	0	1011,8	6,2	8,2	8,2	1	1	1	1	1	1	1	1	1	0	1	-4,22833	273,615142	313,564115	0
15.01.2021	07:16:46	0	0	3,728471	2,0025	8,6112	-0,367	85,478	0	1011,66	6,2	8,2	8,2	1	1	1	1	1	1	1	1	1	0	1	-2,818887	273,577343	314,79799	0
15.01.2021	07:16:47	0	0	2,937583	2,22525	8,9928	-0,373	85,474	0	1011,6	6,2	8,2	8,2	1	1	1	1	1	1	1	1	1	0	1	-5,073996	273,572987	312,52265	0
15.01.2021	07:16:48	0	0	4,519358	2,367	10,8252	-0,368	85,471	0	1011,86	6,2	8,2	8,2	1	1	1	1	1	1	1	1	1	0	1	-5,285412	273,444189	311,713561	0
15.01.2021	07:16:49	0	0	3,615487	2,382	15,4044	-0,366	85,496	0	1011,76	6,2	8,2	8,2	1	1	1	1	1	1	1	1	1	0	1	-7,329105	273,494737	309,904329	0
15.01.2021	07:16:50	0	0	5,197262	2,172	18,4644	-0,368	85,484	0	1011,78	6,2	8,2	8,2	1	1	1	1	1	1	1	1	1	0	1	-7,329105	273,452845	309,710008	0
15.01.2021	07:16:51	0	0	4,632342	2,1075	16,0992	-0,366	85,48	0	1011,82	6,2	8,2	8,2	1	1	1	1	1	1	1	1	1	0	1	-5,778717	273,55412	311,730325	0
15.01.2021	07:16:52	0	0	4,519358	1,995	23,5836	-0,381	85,478	0	1011,64	6,2	8,2	8,2	1	1	1	1	1	1	1	1	1	0	1	-4,087385	273,448517	312,931655	0
15.01.2021	07:16:53	0	0	4,745326	1,965	16,8264	-0,371	85,472	0	1011,78	6,2	8,2	8,2	1	1	1	1	1	1	1	1	1	0	1	-7,540521	273,55412	309,96852	0
15.01.2021	07:16:54	0	0	4,745298	1,914	24,7248	-0,367	85,475	0	1011,72	6,2	8,2	8,3	1	1	1	1	1	1	1	1	1	0	1	-5,073996	273,625331	312,765789	0
15.01.2021	07:16:55	0	0	3,841454	1,79475	20,286	-0,368	85,475	0	1011,74	6,2	8,2	8,2	1	1	1	1	1	1	1	1	1	0	1	-4,510218	273,486062	312,682969	0
15.01.2021	07:16:56	0	0	3,502503	1,6965	17,2404	-0,37	85,477	0	1011,72	6,2	8,2	8,2	1	1	1	1	1	1	1	1	1	0	1	-5,426357	273,613686	312,359328	0
15.01.2021	07:16:57	0	0	4,632342	1,63125	13,2732	-0,366	85,477	0	1011,7	6,1	8,2	8,2	1	1	1	1	1	1	1	1	1	0	1	-5,778717	273,625331	312,061067	0
15.01.2021	07:16:58	0	0	3,276535	1,644	19,89	-0,369	85,485	0	1011,64	6,2	8,2	8,2	1	1	1	1	1	1	1	1	1	0	1	-2,818887	273,507757	314,474959	0
15.01.2021	07:16:59	0	0	4,632342	1,66275	20,2896	-0,372	85,49	0	1011,72	6,1	8,2	8,2	1	1	1	1	1	1	1	1	1	0	1	-3,523608	273,455731	313,52889	0
15.01.2021	07:17:00	0	0	3,163551	2,166	10,0656	-0,373	85,464	0	1011,78	6,2	8,2	8,2	1	1	1	1	1	1	1	1	1	0	1	-2,043693	273,636982	315,850232	0
15.01.2021	07:17:01	0	0	3,163551	2,166	10,0656	-0,373	85,464	0	1011,78	6,2	8,2	8,2	1	1	1	1	1	1	1	1	1	0	1	-2,043693	273,636982	315,850232	0
15.01.2021	07:17:02	0	0	4,85831	2,4	18,8208	-0,375	85,465	0	1011,6	6,2	8,2	8,2	1	1	1	1	1	1	1	1	1	0	1	-2,889359	273,571535	314,700544	0
15.01.2021	07:17:03	0	0	4,519358	2,48025	16,8588	-0,373	85,478	0	1011,68	6,2	8,2	8,2	1	1	1	1	1	1	1	1	1	0	1	-9,372798	273,470169	307,746662	0
15.01.2021	07:17:04	0	0	4,406374	2,6535	7,8768	-0,378	85,48	0	1011,68	6,2	8,2	8,2	1	1	1	1	1	1	1	1	1	0	1	-5,84919	273,631156	312,01766	0
15.01.2021	07:17:05	0	0	3,276535	2,76825	14,2992	-0,37	85,477	0	1011,7	6,2	8,2	8,2	1	1	1	1	1	1	1	1	1	0	1	-6,412967	273,583154	311,230893	0
15.01.2021	07:17:06	0	0	3,954438	2,67975	14,31	-0,374	85,488	0	1011,84	6,1	8,2	8,2	1	1	1	1	1	1	1	1	1	0	1	-3,805497	273,575891	313,804635	0
15.01.2021	07:17:07	0	0	3,389519	2,5395	15,3972	-0,372	85,463	0	1011,66	6,2	8,2	8,2	1	1	1	1	1	1	1	1	1	0	1	-6,553911	273,501969	310,713079	0
15.01.2021	07:17:08	0	0	3,841454	2,532	2,6532	-0,377	85,475	0	1011,68	6,2	8,2	8,2	1	1	1	1	1	1	1	1	1	0	1	-1,902748	273,490399	315,31056	0
15.01.2021	07:17:09	0	0	3,389519	2,5065	6,066	-0,37	85,461	0	1011,62	6,2	8,2	8,2	1	1	1	1	1	1	1	1	1	0	1	-6,8358	273,632612	311,037817	0
15.01.2021	07:17:10	0	0	3,728471	2,4465	3,3912	-0,377	85,483	0	1011,72	6,2	8,2	8,2	1	1	1	1	1	1	1	1	1	0	1	-5,567301	273,580248	312,063066	0
15.01.2021	07:17:11	0	0	3,050567	2,54025	8,6256	-0,374	85,472	0	1011,74	6,2	8,2	8,2	1	1	1	1	1	1	1	1	1	0	1	-5,355884	273,609322	312,409523	0
15.01.2021	07:17:12	0	0	4,519358	2,505	10,8216	-0,375	85,476	0	1011,62	6,2	8,2	8,2	1	1	1	1	1	1	1	1	1	0	1	-5,21494	273,613686	312,570744	0
15.01.2021	07:17:13	0	0	3,050567	2,3085	18,45	-0,375	85,474	0	1011,72	6,2	8,2	8,2	1	1	1	1	1	1	1	1	1	0	1	-2,818887	273,462949	314,267085	0
15.01.2021	07:17:14	0	0	2,937583	2,1705	11,2932	-0,371	85,476	0	1011,7	6,2	8,2	8,2	1	1	1	1	1	1	1	1	1	0	1	-2,396054	273,578796	315,227568	0
15.01.2021	07:17:15	0	0	3,163551	2,17275	27,9756	-0,374	85,491	0	1011,72	6,2	8,2	8,2	1	1	1	1	1	1	1	1	1	0	1	-5,567301	273,461505	311,511975	0
15.01.2021	07:17:16	0	0	2,824599	2,16375	17,2368	-0,376	85,479	0	1011,7	6,2	8,2	8,2	1	1	1	1	1	1	1	1	1	0	1	-3,382664	273,561374	314,160059	0
15.01.2021	07:17:17	0	0	3,050567	2,31075	26,5356	-0,372	85,481	0	1011,8	6,2	8,2	8,2	1	1	1	1	1	1	1	1	1	0	1	-5,144468	273,625331	312,695317	0
15.01.2021	07:17:18	0	0	2,485632	2,40225	32,9004	-0,376	85,485	0	1011,72	6,2	8,2	8,3	1	1	1	1	1	1	1	1	1	0	1	-2,466526	273,50631	314,820605	0
15.01.2021	07:17:19	0	0	3,389519	2,38275	27,3708	-0,37	85,488	0	1011,78	6,2	8,2	8,2	1	1	1	1	1	1	1	1	1	0	1	-6,20155	273,609322	311,563857	0
15.01.2021	07:17:20	0	0	4,745326	2,28375	24,7284	-0,374	85,482	0	1011,84	6,2	8,2	8,2	1	1	1	1	1	1	1	1	1	0	1	-5,637773	273,458618	311,428113	0
15.01.2021	07:17:21	0	0	4,29339	2,1675	26,5248	-0,371	85,485	0	1011,76	6,1	8,2	8,2	1	1	1	1	1	1	1	1	1	0	1	-7,751938	273,623875	310,081082	0
15.01.2021	07:17:22	0	0	2,711615	2,06925	14,6448	-0,372	85,493	0	1011,6	6,2	8,2	8,2	1	1	1	1	1	1	1	1	1	0	1	-5,426357	273,565728	312,136583	0
15.01.2021	07:17:23	0	0	3,728471	2,20725	18,0864	-0,371	85,484	0	1011,7	6,2	8,2	8,2	1	1	1	1	1	1	1	1	1	0	1	-7,117689	273,620963	310,701804	0
15.01.2021	07:17:24	0	0	3,841454	2,22675	17,2404	-0,374	85,481	0	1011,78	6,2	8,4	8,2	1	1	1	1	1	1	1	1	1	0	1	-4,439746	273,513546	312,880964	0
15.01.2021	07:17:25	0	0	3,728471	2,205	8,6184	-0,374	85,483	0	1011,78	6,2	8,2	8,2	1	1	1	1	1	1	1	1	1	0	1	-2,466526	273,464392	314,626142	0
15.01.2021	07:17:26	0	0	3,163551	2,0835	5,6952	-0,37	85,498	0	1011,72	6,2	8,2	8,2	1	1	1	1	1	1	1	1	1	0	1	-5,778717	273,522233	311,582309	0
15.01.2021	07:17:27	0	0	3,615487	2,03175	8,28	-0,371	85,502	0	1011,74	6,2	8,2	8,2	1	1	1	1	1	1	1	1	1	0	1	-6,906272	273,618052	310,899695	0
15.01.2021	07:17:28	0	0	5,197262	1,91925	19,9008	-0,369	85,486	0	1011,68	6,2	8,2	8,2	1	1	1	1	1	1	1	1	1	0	1	-4,369274	273,546868	313,106102	0
15.01.2021	07:17:29	0	0	5,310214	1,905	16,4736	-0,38	85,479	0	1011,58	6,1	8,2	8,3	1	1	1	1	1	1	1	1	1	0	1	-5,073996	273,457175	311,985196	0
15.01.2021	07:17:30	0	0	2,937583	1,8585	15,7968	-0,371	85,493	0	1011,8	6,1	8,2	8,2	1	1	1	1	1	1	1	1	1	0	1	-7,399577	273,561374	310,143146	0
15.01.2021	07:17:31	0	0	3,502503	1,97025	15,4116	-0,371	85,487	0	1011,78	6,2	8,2	8,2	1	1	1	1	1	1	1	1	1	0	1	-2,114165	273,618052	315,691802	0
15.01.2021	07:17:32	0	0	3,841431	1,959	16,8444	-0,369	85,496	0	1011,76	6,2	8,2	8,3	1	1	1	1	1	1	1	1	1	0	1	-8,738548	273,609322	309,026859	0
15.01.2021	07:17:33	0	0	4,519358	1,93275	12,096	-0,373	85,471	0	1011,72	6,2	8,2	8,2	1	1	1	1	1	1	1	1	1	0	1	-9,584214	273,513546	307,736496	0
15.01.2021	07:17:34	0	0	2,598631	2,04225	7,1388	-0,37	85,472	0	1011,7	6,2	8,2	8,2	1	1	1	1	1	1	1	1	1	0	1	-6,8358	273,618052	310,970167	0
15.01.2021	07:17:35	0	0	4,29339	2,0295	26,1684	-0,372	85,502	0	1011,78	6,2	8,2	8,2	1	1	1	1	1	1	1	1	1	0	1	-7,82241	273,572987	309,774235	0
15.01.2021	07:17:36	0	0	3,954438	1,99725	360	-0,376	85,488	0	1011,66	6,2	8,2	8,2	1	1	1	1	1	1	1	1	1	0	1	-6,131078	273,720203	312,149747	0
15.01.2021	07:17:37	0	0	3,276535	2,08275	3,78	-0,367	85,468	0	1011,6	6,2	8,2	8,2	1	1	1	1	1	1	1	1	1	0	1	-4,792107	273,612231	312,986817	0
15.01.2021	07:17:38	0	0	4,745326	2,29275	6,8112	-0,37	85,494	0	1011,74	6,2	8,2	8,2	1	1	1	1	1	1	1	1	1	0	1	-6,483439	273,535271	310,938103	0
15.01.2021	07:17:39	0	0	2,824599	2,502	8,6148	-0,375	85,468	0	1011,76	6,2	8,2	8,2	1	1	1	1	1	1	1	1	1	0	1	-2,536998	273,451402	314,495424	0
15.01.2021	07:17:40	0	0	2,937583	2,59575	6,8328	-0,37	85,489	0	1011,66	6,2	8,2	8,2	1	1	1	1	1	1	1	1	1	0	1	-4,157858	273,465836	312,941507	0
15.01.2021	07:17:41	0	0	3,728471	2,64675	18,8496	-0,374	85,49	0	1011,78	6,2	8,2	8,2	1	1	1	1	1	1	1	1	1	0	1	-6,20155	273,593326	311,489554	0
15.01.2021	07:17:42	0	0	4,745326	2,61	10,818	-0,371	85,492	0	1011,76	6,2	8,2	8,2	1	1	1	1	1	1	1	1	1	0	1	-6,131078	273,609322	311,634329	0
15.01.2021	07:17:43	0	0	3,276535	2,436	20,2896	-0,373	85,477	0	1011,8	6,2	8,2	8,2	1	1	1	1	1	1	1	1	1	0	1	-2,889359	273,56718	314,680321	0
15.01.2021	07:17:44	0	0	3,050567	2,26875	22,0032	-0,372	85,495	0	1011,78	6,2	8,2	8,2	1	1	1	1	1	1	1	1	1	0	1	-7,82241	273,436979	309,143129	0
15.01.2021	07:17:45	0	0	3,502503	2,15775	16,848	-0,369	85,555	0	1011,74	6,2	8,2	8,2	1	1	1	1	1	1	1	1	1	0	1	-6,483439	273,548318	310,998669	0
15.01.2021	07:17:46	0	0	3,615487	2,202	24,3468	-0,378	85,489	0	1011,8	6,1	8,4	8,2	1	1	1	1	1	1	1	1	1	0	1	-6,483439	273,447074	310,528912	0
15.01.2021	07:17:47	0	0	2,824599	2,3715	8,6004	-0,366	85,494	0	1011,82	6,2	8,2	8,2	1	1	1	1	1	1	1	1	1	0	1	-3,453136	273,509204	313,847425	0
15.01.2021	07:17:48	0	0	4,85831	2,52525	19,152	-0,373	85,496	0	1011,72	6,2	8,2	8,2	1	1	1	1	1	1	1	1	1	0	1	-5,637773	273,588966	312,03308	0
15.01.2021	07:17:49	0	0	3,050567	2,51625	19,5408	-0,377	85,499	0	1011,68	6,2	8,2	8,2	1	1	1	1	1	1	1	1	1	0	1	-5,003524	273,483172	312,176254	0
15.01.2021	07:17:50	0	0	2,937583	2,49	28,3572	-0,375	85,492	0	1011,76	6,2	8,2	8,2	1	1	1	1	1	1	1	1	1	0	1	-3,946441	273,46728	313,159621	0
15.01.2021	07:17:51	0	0	4,29339	2,51175	29,9448	-0,374	85,508	0	1011,78	6,2	8,2	8,2	1	1	1	1	1	1	1	1	1	0	1	-6,765328	273,480281	310,401041	0
15.01.2021	07:17:52	0	0	3,163532	2,3025	13,9284	-0,372	85,47	0	1011,6	6,2	8,2	8,3	1	1	1	1	1	1	1	1	1	0	1	-4,510218	273,618052	313,295749	0
15.01.2021	07:17:53	0	0	5,197262	2,20125	16,0884	-0,375	85,487	0	1011,64	6,2	8,2	8,2	1	1	1	1	1	1	1	1	1	0	1	-6,060606	273,600595	311,664263	0
15.01.2021	07:17:54	0	0	5,310246	2,15475	10,4292	-0,37	85,489	0	1011,76	6,2	8,2	8,2	1	1	1	1	1	1	1	1	1	0	1	-6,765328	273,53817	310,669669	0
15.01.2021	07:17:55	0	0	4,971294	2,14875	11,2032	-0,375	85,495	0	1011,84	6,2	8,2	8,2	1	1	1	1	1	1	1	1	1	0	1	-7,751938	273,606412	309,999954	0
15.01.2021	07:17:56	0	0	2,937583	2,322	1,2636	-0,377	85,499	0	1011,82	6,2	8,2	8,2	1	1	1	1	1	1	1	1	1	0	1	-2,466526	273,457175	314,592666	0
15.01.2021	07:17:57	0	0	2,824599	2,442	15,4116	-0,375	85,469	0	1011,6	6,2	8,2	8,2	1	1	1	1	1	1	1	1	1	0	1	-2,677942	273,557021	314,84457	0
15.01.2021	07:17:58	0	0	2,711615	2,418	30,7008	-0,375	85,497	0	1011,64	6,2	8,2	8,2	1	1	1	1	1	1	1	1	1	0	1	-4,792107	273,486062	312,401081	0
15.01.2021	07:17:59	0	0	4,067422	2,32425	21,3912	-0,375	85,496	0	1011,74	6,2	8,2	8,2	1	1	1	1	1	1	1	1	1	0	1	-5,708245	273,50631	311,578885	0
15.01.2021	07:18:00	0	0	3,502503	2,226	30,7116	-0,374	85,486	0	1011,76	6,2	8,2	8,2	1	1	1	1	1	1	1	1	1	0	1	-5,003524	273,539619	312,438202	0
15.01.2021	07:18:01	0	0	3,502503	2,226	30,7116	-0,374	85,486	0	1011,76	6,2	8,2	8,2	1	1	1	1	1	1	1	1	1	0	1	-5,003524	273,539619	312,438202	0
15.01.2021	07:18:02	0	0	3,502503	2,16075	12,1968	-0,369	85,502	0	1011,82	6,1	8,2	8,2	1	1	1	1	1	1	1	1	1	0	1	-1,409443	273,461505	315,669832	0
15.01.2021	07:18:03	0	0	3,050585	2,3115	10,4292	-0,372	85,498	0	1011,7	6,2	8,2	8,1	1	1	1	1	1	1	1	1	1	0	1	-6,412967	273,475947	310,733295	0
15.01.2021	07:18:04	0	0	4,971294	2,7645	10,0584	-0,374	85,5	0	1011,74	6,2	8,2	8,2	1	1	1	1	1	1	1	1	1	0	1	-6,694856	273,460061	310,377725	0
15.01.2021	07:18:05	0	0	2,824599	3,0585	12,4668	-0,377	85,508	0	1011,72	6,2	8,2	8,2	1	1	1	1	1	1	1	1	1	0	1	-5,073996	273,449959	311,951735	0
15.01.2021	07:18:06	0	0	2,146695	3,195	6,0732	-0,374	85,503	0	1011,76	6,2	8,2	8,2	1	1	1	1	1	1	1	1	1	0	1	-5,919662	273,552669	311,582646	0
15.01.2021	07:18:07	0	0	3,615487	3,27825	12,8412	-0,375	85,503	0	1011,74	6,2	8,2	8,2	1	1	1	1	1	1	1	1	1	0	1	-0,98661	273,626787	316,85994	0
15.01.2021	07:18:08	0	0	3,163551	2,96775	14,2848	-0,372	85,503	0	1011,68	6,1	8,2	8,2	1	1	1	1	1	1	1	1	1	0	1	-3,805497	273,480281	313,360872	0
15.01.2021	07:18:09	0	0	3,502503	2,82525	18,8316	-0,371	85,499	0	1011,84	6,2	8,2	8,2	1	1	1	1	1	1	1	1	1	0	1	-5,355884	273,613686	312,4298	0
15.01.2021	07:18:10	0	0	3,276535	2,5845	16,0992	-0,374	85,5	0	1011,72	6,2	8,2	8,2	1	1	1	1	1	1	1	1	1	0	1	-5,708245	273,461505	311,37103	0
15.01.2021	07:18:11	0	0	4,180381	2,42925	25,4232	-0,372	85,494	0	1011,6	6,2	8,2	8,3	1	1	1	1	1	1	1	1	1	0	1	-3,382664	273,616597	314,416542	0
15.01.2021	07:18:12	0	0	3,050567	2,43225	27,972	-0,373	85,492	0	1011,76	6,1	8,2	8,2	1	1	1	1	1	1	1	1	1	0	1	-9,936575	273,590419	307,741028	0
15.01.2021	07:18:13	0	0	3,502503	2,56725	19,548	-0,379	85,503	0	1011,74	6,2	8,2	8,2	1	1	1	1	1	1	1	1	1	0	1	-5,426357	273,561374	312,116367	0
15.01.2021	07:18:14	0	0	4,745326	2,6085	25,038	-0,374	85,484	0	1011,66	6,2	8,2	8,2	1	1	1	1	1	1	1	1	1	0	1	-3,875969	273,597687	313,835392	0
15.01.2021	07:18:15	0	0	4,632342	2,655	24,7284	-0,37	85,502	0	1011,74	6,2	8,2	8,2	1	1	1	1	1	1	1	1	1	0	1	-7,681466	273,464392	309,411202	0
15.01.2021	07:18:16	0	0	3,050567	2,63175	26,1576	-0,371	85,506	0	1011,72	6,1	8,2	8,2	1	1	1	1	1	1	1	1	1	0	1	-0,98661	273,462949	316,099361	0
15.01.2021	07:18:17	0	0	2,937583	2,57325	26,8956	-0,385	85,499	0	1011,52	6,2	8,2	8,2	1	1	1	1	1	1	1	1	1	0	1	-5,355884	273,548318	312,126224	0
15.01.2021	07:18:18	0	0	3,389519	2,5845	2,628	-0,371	85,511	0	1011,7	6,2	8,2	8,2	1	1	1	1	1	1	1	1	1	0	1	-4,22833	273,442747	312,763955	0
15.01.2021	07:18:19	0	0	4,971294	2,4915	6,8256	-0,372	85,513	0	1011,72	6,2	8,4	8,2	1	1	1	1	1	1	1	1	1	0	1	-4,792107	273,486062	312,401081	0
15.01.2021	07:18:20	0	0	4,406374	2,32425	19,1484	-0,376	85,483	0	1011,72	6,1	8,2	8,2	1	1	1	1	1	1	1	1	1	0	1	-0,98661	273,610777	316,785555	0
15.01.2021	07:18:21	0	0	4,067422	2,33925	10,8108	-0,372	85,506	0	1011,76	6,2	8,2	8,2	1	1	1	1	1	1	1	1	1	0	1	-2,325581	273,493291	314,901144	0
15.01.2021	07:18:22	0	0	3,276535	2,496	7,8804	-0,374	85,501	0	1011,68	6,2	8,2	8,2	1	1	1	1	1	1	1	1	1	0	1	-6,342495	273,606412	311,409397	0
15.01.2021	07:18:23	0	0	4,067422	2,5425	12,8484	-0,372	85,487	0	1011,64	6,2	8,2	8,2	1	1	1	1	1	1	1	1	1	0	1	-5,708245	273,609322	312,057162	0
15.01.2021	07:18:24	0	0	3,728471	2,6205	9,7668	-0,369	85,505	0	1011,72	6,2	8,2	8,2	1	1	1	1	1	1	1	1	1	0	1	-5,285412	273,499076	311,968153	0
15.01.2021	07:18:25	0	0	2,937583	2,58675	7,6104	-0,371	85,511	0	1011,8	6,2	8,2	8,2	1	1	1	1	1	1	1	1	1	0	1	-3,100775	273,620963	314,718717	0
15.01.2021	07:18:26	0	0	4,067422	2,43375	13,9212	-0,378	85,509	0	1011,7	6,2	8,2	8,2	1	1	1	1	1	1	1	1	1	0	1	-5,285412	273,530924	312,115953	0
15.01.2021	07:18:27	0	0	4,406374	2,346	359,8488	-0,371	85,512	0	1011,86	6,2	8,2	8,2	1	1	1	1	1	1	1	1	1	0	1	-7,117689	273,679278	310,972827	0
15.01.2021	07:18:28	0	0	3,276535	2,325	19,1556	-0,379	85,493	0	1011,7	6,2	8,2	8,2	1	1	1	1	1	1	1	1	1	0	1	-3,100775	273,491845	314,119241	0
15.01.2021	07:18:29	0	0	4,067422	2,424	12,0924	-0,375	85,505	0	1011,68	6,2	8,2	8,2	1	1	1	1	1	1	1	1	1	0	1	-5,144468	273,568631	312,431952	0
15.01.2021	07:18:30	0	0	2,711615	2,706	15,39	-0,38	85,498	0	1011,68	6,2	8,2	8,2	1	1	1	1	1	1	1	1	1	0	1	-2,396054	273,625331	315,443731	0
15.01.2021	07:18:31	0	0	2,598631	2,74725	31,7664	-0,377	85,493	0	1011,64	6,2	8,2	8,2	1	1	1	1	1	1	1	1	1	0	1	-5,84919	273,516441	311,484957	0
15.01.2021	07:18:32	0	0	4,180406	2,51325	17,7048	-0,375	85,492	0	1011,74	6,2	8,2	8,2	1	1	1	1	1	1	1	1	1	0	1	-6,131078	273,438421	310,841147	0
15.01.2021	07:18:33	0	0	4,745326	2,44125	17,6976	-0,372	85,51	0	1011,7	6,1	8,2	8,2	1	1	1	1	1	1	1	1	1	0	1	-4,369274	273,588966	313,301579	0
15.01.2021	07:18:34	0	0	3,389519	2,505	19,9044	-0,37	85,506	0	1011,7	6,2	8,2	8,2	1	1	1	1	1	1	1	1	1	0	1	-2,677942	273,564277	314,878258	0
15.01.2021	07:18:35	0	0	2,824599	2,6685	10,0692	-0,376	85,508	0	1011,7	6,2	8,2	8,2	1	1	1	1	1	1	1	1	1	0	1	-1,057082	273,626787	316,789467	0
15.01.2021	07:18:36	0	0	4,632342	2,72325	12,5712	-0,376	85,504	0	1011,72	6,1	8,2	8,2	1	1	1	1	1	1	1	1	1	0	1	-4,933051	273,545418	312,535593	0
15.01.2021	07:18:37	0	0	5,42323	2,715	19,1412	-0,372	85,504	0	1011,92	6,2	8,2	8,2	1	1	1	1	1	1	1	1	1	0	1	-0	273,432654	316,945487	0
15.01.2021	07:18:38	0	0	4,85831	2,5695	17,2368	-0,379	85,499	0	1011,68	6,2	8,2	8,2	1	1	1	1	1	1	1	1	1	0	1	-1,832276	273,510651	315,475	0
15.01.2021	07:18:39	0	0	5,310246	2,50275	15,4224	-0,375	85,491	0	1011,92	6,2	8,2	8,2	1	1	1	1	1	1	1	1	1	0	1	-5,496829	273,597687	312,214532	0
15.01.2021	07:18:40	0	0	2,711615	2,5695	16,506	-0,372	85,509	0	1011,76	6,2	8,2	8,2	1	1	1	1	1	1	1	1	1	0	1	-4,721635	273,607867	313,037014	0
15.01.2021	07:18:41	0	0	4,067422	2,577	18,846	-0,373	85,509	0	1011,74	6,1	8,2	8,2	1	1	1	1	1	1	1	1	1	0	1	-4,862579	273,532373	312,545511	0
15.01.2021	07:18:42	0	0	4,519358	2,6295	20,6316	-0,371	85,506	0	1012	6,2	8,2	8,2	1	1	1	1	1	1	1	1	1	0	1	-6,483439	273,434096	310,468731	0
15.01.2021	07:18:43	0	0	3,276535	2,7345	17,7048	-0,376	85,492	0	1011,66	6,2	8,2	8,2	1	1	1	1	1	1	1	1	1	0	1	-6,906272	273,561374	310,636451	0
15.01.2021	07:18:44	0	0	3,615487	2,7015	18,4716	-0,375	85,508	0	1011,8	6,2	8,2	8,2	1	1	1	1	1	1	1	1	1	0	1	-7,470049	273,603503	310,26833	0
15.01.2021	07:18:45	0	0	3,502503	2,60325	20,2968	-0,371	85,506	0	1011,7	6,2	8,2	8,2	1	1	1	1	1	1	1	1	1	0	1	-2,889359	273,557021	314,633154	0
15.01.2021	07:18:46	0	0	2,711615	2,45775	22,4748	-0,375	85,513	0	1011,8	6,1	8,2	8,2	1	1	1	1	1	1	1	1	1	0	1	-6,765328	273,439863	310,213583	0
15.01.2021	07:18:47	0	0	2,937583	2,4495	11,736	-0,378	85,478	0	1011,7	6,2	8,2	8,2	1	1	1	1	1	1	1	1	1	0	1	-7,399577	273,50631	309,887553	0
15.01.2021	07:18:48	0	0	4,519358	2,5095	1,188	-0,384	85,494	0	1011,8	6,2	8,2	8,2	1	1	1	1	1	1	1	1	1	0	1	-0,775194	273,548318	316,706914	0
15.01.2021	07:18:49	0	0	2,824599	2,556	8,9964	-0,376	85,492	0	1011,74	6,2	8,2	8,2	1	1	1	1	1	1	1	1	1	0	1	-4,439746	273,541069	313,008708	0
15.01.2021	07:18:50	0	0	2,937583	2,8395	9,3564	-0,371	85,497	0	1011,72	6,2	8,2	8,2	1	1	1	1	1	1	1	1	1	0	1	-6,553911	273,616597	311,245294	0
15.01.2021	07:18:51	0	0	3,163551	2,988	15,8004	-0,373	85,484	0	1011,9	6,2	8,2	8,2	1	1	1	1	1	1	1	1	1	0	1	-6,694856	273,545418	310,773789	0
15.01.2021	07:18:52	0	0	2,598631	2,91675	19,152	-0,372	85,501	0	1011,76	6,2	8,4	8,2	1	1	1	1	1	1	1	1	1	0	1	-3,664553	273,447074	313,347798	0
15.01.2021	07:18:53	0	0	3,050567	2,71575	10,0584	-0,378	85,488	0	1011,7	6,2	8,2	8,2	1	1	1	1	1	1	1	1	1	0	1	-0,634249	273,46728	316,471813	0
15.01.2021	07:18:54	0	0	2,937583	2,82225	15,8796	-0,371	85,506	0	1011,74	6,2	8,4	8,2	1	1	1	1	1	1	1	1	1	0	1	-4,298802	273,603503	313,439577	0
15.01.2021	07:18:55	0	0	3,615487	2,823	2,2968	-0,372	85,485	0	1011,72	6,2	8,4	8,2	1	1	1	1	1	1	1	1	1	0	1	-2,325581	273,483172	314,854196	0
15.01.2021	07:18:56	0	0	3,389519	2,853	2,6604	-0,37	85,499	0	1011,74	6,2	8,2	8,2	1	1	1	1	1	1	1	1	1	0	1	-5,919662	273,513546	311,401049	0
15.01.2021	07:18:57	0	0	2,937583	2,99025	6,0624	-0,372	85,507	0	1011,72	6,2	8,2	8,2	1	1	1	1	1	1	1	1	1	0	1	-3,805497	273,448517	313,213544	0
15.01.2021	07:18:58	0	0	4,745326	2,88	360	-0,375	85,503	0	1011,8	6,2	8,2	8,2	1	1	1	1	1	1	1	1	1	0	1	-8,174771	273,587513	309,489333	0
15.01.2021	07:18:59	0	0	4,406374	2,74725	1,9368	-0,378	85,487	0	1011,8	6,2	8,2	8,2	1	1	1	1	1	1	1	1	1	0	1	-2,043693	273,501969	315,223297	0
15.01.2021	07:19:00	0	0	3,050567	2,445	14,292	-0,38	85,493	0	1011,78	6,2	8,2	8,2	1	1	1	1	1	1	1	1	1	0	1	-5,355884	273,549768	312,132956	0
15.01.2021	07:19:01	0	0	3,050567	2,445	14,292	-0,38	85,493	0	1011,78	6,2	8,2	8,2	1	1	1	1	1	1	1	1	1	0	1	-5,355884	273,549768	312,132956	0
15.01.2021	07:19:02	0	0	4,971294	2,31	13,9284	-0,369	85,519	0	1011,82	6,2	8,2	8,2	1	1	1	1	1	1	1	1	1	0	1	-7,188161	273,618052	310,617807	0
15.01.2021	07:19:03	0	0	4,632342	2,1975	8,6112	-0,378	85,497	0	1011,78	6,2	8,2	8,2	1	1	1	1	1	1	1	1	1	0	1	-6,483439	273,501969	310,783551	0
15.01.2021	07:19:04	0	0	4,632342	2,21625	13,914	-0,382	85,514	0	1011,74	6,1	8,2	8,2	1	1	1	1	1	1	1	1	1	0	1	-4,298802	273,607867	313,459847	0
15.01.2021	07:19:05	0	0	3,615487	2,271	12,852	-0,37	85,501	0	1011,8	6,2	8,2	8,2	1	1	1	1	1	1	1	1	1	0	1	-7,610994	273,597687	310,100368	0
15.01.2021	07:19:06	0	0	4,406374	2,21925	18,8316	-0,373	85,501	0	1011,66	6,2	8,4	8,2	1	1	1	1	1	1	1	1	1	0	1	-4,22833	273,613686	313,557354	0
15.01.2021	07:19:07	0	0	4,29339	2,25525	14,2956	-0,372	85,52	0	1011,86	6,2	8,2	8,2	1	1	1	1	1	1	1	1	1	0	1	-3,382664	273,583154	314,261196	0
15.01.2021	07:19:08	0	0	3,276535	2,586	1,188	-0,377	85,487	0	1011,82	6,2	8,2	8,2	1	1	1	1	1	1	1	1	1	0	1	-1,62086	273,53817	315,814137	0
15.01.2021	07:19:09	0	0	2,711615	2,99475	4,9248	-0,373	85,518	0	1011,68	6,2	8,2	8,2	1	1	1	1	1	1	1	1	1	0	1	-5,285412	273,610777	312,486753	0
15.01.2021	07:19:10	0	0	5,084278	3,009	12,852	-0,379	85,511	0	1011,64	6,2	8,2	8,2	1	1	1	1	1	1	1	1	1	0	1	-3,805497	273,590419	313,872106	0
15.01.2021	07:19:11	0	0	3,502503	2,955	5,6916	-0,379	85,513	0	1011,72	6,2	8,2	8,2	1	1	1	1	1	1	1	1	1	0	1	-5,144468	273,52513	312,230002	0
15.01.2021	07:19:12	0	0	3,050567	2,99625	2,7432	-0,378	85,509	0	1011,82	6,2	8,2	8,2	1	1	1	1	1	1	1	1	1	0	1	-5,285412	273,436979	311,680127	0
15.01.2021	07:19:13	0	0	4,29339	2,844	7,5096	-0,379	85,504	0	1011,66	6,1	8,2	8,2	1	1	1	1	1	1	1	1	1	0	1	-4,792107	273,588966	312,878746	0
15.01.2021	07:19:14	0	0	4,971294	2,703	6,048	-0,374	85,514	0	1011,74	6,2	8,2	8,2	1	1	1	1	1	1	1	1	1	0	1	-2,959831	273,568631	314,616589	0
15.01.2021	07:19:15	0	0	3,276535	2,54325	17,6904	-0,373	85,506	0	1011,74	6,2	8,2	8,2	1	1	1	1	1	1	1	1	1	0	1	-9,090909	273,471613	308,03525	0
15.01.2021	07:19:16	0	0	2,937583	2,38725	23,5836	-0,379	85,488	0	1011,78	6,2	8,2	8,2	1	1	1	1	1	1	1	1	1	0	1	-1,973221	273,565728	315,589719	0
15.01.2021	07:19:17	0	0	3,728471	2,4645	33,9516	-0,37	85,509	0	1011,7	6,2	8,2	8,2	1	1	1	1	1	1	1	1	1	0	1	-1,550388	273,606412	316,201504	0
15.01.2021	07:19:18	0	0	3,050567	2,42175	26,1792	-0,379	85,504	0	1011,7	6,1	8,2	8,2	1	1	1	1	1	1	1	1	1	0	1	-6,694856	273,517889	310,64601	0
15.01.2021	07:19:19	0	0	3,389519	2,20875	27,2772	-0,375	85,52	0	1011,64	6,2	8,2	8,2	1	1	1	1	1	1	1	1	1	0	1	-3,100775	273,612231	314,678149	0
15.01.2021	07:19:20	0	0	2,372663	2,082	17,3448	-0,371	85,513	0	1011,7	6,2	8,2	8,2	1	1	1	1	1	1	1	1	1	0	1	-2,043693	273,447074	314,968658	0
15.01.2021	07:19:21	0	0	4,85831	2,025	20,6244	-0,374	85,518	0	1011,88	6,2	8,2	8,2	1	1	1	1	1	1	1	1	1	0	1	-6,624383	273,520785	310,729922	0
15.01.2021	07:19:22	0	0	2,711615	2,15925	12,4704	-0,378	85,526	0	1011,86	6,2	8,4	8,2	1	1	1	1	1	1	1	1	1	0	1	-4,22833	273,599141	313,489785	0
15.01.2021	07:19:23	0	0	2,598631	2,38575	2,2932	-0,379	85,52	0	1011,7	6,1	8,2	8,2	1	1	1	1	1	1	1	1	1	0	1	-2,325581	273,461505	314,753694	0
15.01.2021	07:19:24	0	0	2,711615	2,6265	356,112	-0,377	85,528	0	1011,74	6,2	8,2	8,2	1	1	1	1	1	1	1	1	1	0	1	-7,047216	273,619508	310,765513	0
15.01.2021	07:19:25	0	0	5,197262	2,79525	4,8456	-0,372	85,527	0	1011,74	6,2	8,2	8,2	1	1	1	1	1	1	1	1	1	0	1	-5,637773	273,581701	311,99934	0
15.01.2021	07:19:26	0	0	4,85831	2,90325	360	-0,372	85,526	0	1011,7	6,2	8,4	8,2	1	1	1	1	1	1	1	1	1	0	1	-5,708245	273,529475	311,686395	0
15.01.2021	07:19:27	0	0	2,937583	2,8215	4,0752	-0,378	85,522	0	1011,56	6,2	8,2	8,2	1	1	1	1	1	1	1	1	1	0	1	-2,466526	273,435537	314,492329	0
15.01.2021	07:19:28	0	0	3,276535	2,70075	5,6844	-0,374	85,526	0	1011,78	6,2	8,2	8,2	1	1	1	1	1	1	1	1	1	0	1	-4,580691	273,574439	313,022698	0
15.01.2021	07:19:29	0	0	4,745326	2,6415	5,67	-0,377	85,516	0	1011,7	6,2	8,2	8,2	1	1	1	1	1	1	1	1	1	0	1	-0	273,455731	317,052498	0
15.01.2021	07:19:30	0	0	3,276535	2,51925	3,0312	-0,379	85,521	0	1011,64	6,1	8,2	8,2	1	1	1	1	1	1	1	1	1	0	1	-5,355884	273,559923	312,180101	0
15.01.2021	07:19:31	0	0	4,29339	2,547	11,8008	-0,375	85,526	0	1011,88	6,2	8,2	8,2	1	1	1	1	1	1	1	1	1	0	1	-2,255109	273,618052	315,550858	0
15.01.2021	07:19:32	0	0	3,163551	2,625	4,0716	-0,373	85,531	0	1011,72	6,2	8,2	8,2	1	1	1	1	1	1	1	1	1	0	1	-6,412967	273,491845	310,807049	0
15.01.2021	07:19:33	0	0	2,937583	2,71575	0,4968	-0,373	85,529	0	1011,88	6,2	8,2	8,2	1	1	1	1	1	1	1	1	1	0	1	-4,22833	273,441305	312,757268	0
15.01.2021	07:19:34	0	0	3,389519	2,6895	13,1472	-0,374	85,528	0	1011,72	6,2	8,2	8,2	1	1	1	1	1	1	1	1	1	0	1	-1,62086	273,475947	315,525402	0
15.01.2021	07:19:35	0	0	4,180406	2,51625	21,3804	-0,378	85,524	0	1011,66	6,2	8,2	8,2	1	1	1	1	1	1	1	1	1	0	1	-2,536998	273,458618	314,528888	0
15.01.2021	07:19:36	0	0	4,29339	2,46675	6,0552	-0,379	85,531	0	1011,78	6,2	8,2	8,2	1	1	1	1	1	1	1	1	1	0	1	-2,536998	273,587513	315,127106	0
15.01.2021	07:19:37	0	0	3,276535	2,472	10,9224	-0,382	85,529	0	1011,66	6,2	8,2	8,2	1	1	1	1	1	1	1	1	1	0	1	-4,298802	273,562825	313,250659	0
15.01.2021	07:19:38	0	0	4,519358	2,556	20,6424	-0,37	85,525	0	1011,78	6,2	8,2	8,2	1	1	1	1	1	1	1	1	1	0	1	-5,778717	273,620963	312,040775	0
15.01.2021	07:19:39	0	0	3,728471	2,64825	15,7788	-0,379	85,533	0	1011,92	6,1	8,2	8,2	1	1	1	1	1	1	1	1	1	0	1	-3,946441	273,53672	313,481828	0
15.01.2021	07:19:40	0	0	3,841454	2,8755	17,2332	-0,369	85,535	0	1011,72	6,2	8,2	8,2	1	1	1	1	1	1	1	1	1	0	1	-2,043693	273,460061	315,028888	0
15.01.2021	07:19:41	0	0	3,502503	2,9415	14,2992	-0,374	85,538	0	1011,82	6,2	8,2	8,2	1	1	1	1	1	1	1	1	1	0	1	-4,862579	273,465836	312,236786	0
15.01.2021	07:19:42	0	0	2,824599	2,81625	13,9176	-0,379	85,532	0	1011,72	6,2	8,2	8,2	1	1	1	1	1	1	1	1	1	0	1	-3,171247	273,533822	314,243569	0
15.01.2021	07:19:43	0	0	2,824599	2,63625	17,226	-0,374	85,527	0	1011,76	6,1	8,2	8,2	1	1	1	1	1	1	1	1	1	0	1	-3,382664	273,618052	314,423303	0
15.01.2021	07:19:44	0	0	3,728471	2,7375	15,786	-0,372	85,526	0	1011,86	6,2	8,2	8,2	1	1	1	1	1	1	1	1	1	0	1	-6,765328	273,604958	310,979807	0
15.01.2021	07:19:45	0	0	5,310246	2,8545	8,2728	-0,372	85,521	0	1011,82	6,2	8,2	8,2	1	1	1	1	1	1	1	1	1	0	1	-10,007047	273,558472	307,522202	0
15.01.2021	07:19:46	0	0	3,841454	2,81925	13,9932	-0,377	85,528	0	1011,74	6,2	8,2	8,2	1	1	1	1	1	1	1	1	1	0	1	-2,889359	273,613686	314,896326	0
15.01.2021	07:19:47	0	0	4,406374	2,74275	9,36	-0,373	85,531	0	1011,66	6,1	8,2	8,2	1	1	1	1	1	1	1	1	1	0	1	-6,553911	273,528027	310,834005	0
15.01.2021	07:19:48	0	0	4,067422	2,6775	14,2884	-0,373	85,539	0	1011,68	6,2	8,2	8,2	1	1	1	1	1	1	1	1	1	0	1	-9,795631	273,441305	307,189967	0
15.01.2021	07:19:49	0	0	4,29339	2,586	21,3732	-0,376	85,539	0	1011,8	6,2	8,2	8,2	1	1	1	1	1	1	1	1	1	0	1	-4,016913	273,572987	313,579732	0
15.01.2021	07:19:50	0	0	3,163551	2,50725	16,8624	-0,376	85,535	0	1011,74	6,1	8,4	8,2	1	1	1	1	1	1	1	1	1	0	1	-6,412967	273,55412	311,096075	0
15.01.2021	07:19:51	0	0	4,85831	2,529	9,7452	-0,376	85,544	0	1011,82	6,2	8,2	8,2	1	1	1	1	1	1	1	1	1	0	1	-6,765328	273,457175	310,293864	0
15.01.2021	07:19:52	0	0	2,937583	2,49	1,1736	-0,376	85,529	0	1011,56	6,2	8,2	8,2	1	1	1	1	1	1	1	1	1	0	1	-5,990134	273,535271	311,431409	0
15.01.2021	07:19:53	0	0	3,050567	2,44875	16,0884	-0,373	85,529	0	1011,76	6,2	8,4	8,2	1	1	1	1	1	1	1	1	1	0	1	-6,412967	273,435537	310,545888	0
15.01.2021	07:19:54	0	0	3,954438	2,4075	18,4464	-0,37	85,535	0	1011,74	6,1	8,2	8,2	1	1	1	1	1	1	1	1	1	0	1	-10,993658	273,53672	306,434612	0
15.01.2021	07:19:55	0	0	5,084278	2,514	355,3092	-0,371	85,54	0	1011,68	6,2	8,2	8,2	1	1	1	1	1	1	1	1	1	0	1	-2,677942	273,616597	315,121263	0
15.01.2021	07:19:56	0	0	4,632342	2,53425	0,9504	-0,377	85,532	0	1011,74	6,2	8,2	8,2	1	1	1	1	1	1	1	1	1	0	1	-5,073996	273,577343	312,542881	0
15.01.2021	07:19:57	0	0	3,954438	2,46075	12,1068	-0,377	85,536	0	1011,7	6,2	8,2	8,2	1	1	1	1	1	1	1	1	1	0	1	-2,114165	273,586059	315,54319	0
15.01.2021	07:19:58	0	0	4,29339	2,48325	10,8	-0,381	85,544	0	1011,68	6,2	8,2	8,2	1	1	1	1	1	1	1	1	1	0	1	-3,312192	273,486062	313,880996	0
15.01.2021	07:19:59	0	0	2,259679	2,6115	5,688	-0,373	85,543	0	1011,8	6,2	8,2	8,2	1	1	1	1	1	1	1	1	1	0	1	-2,818887	273,447074	314,193464	0
15.01.2021	07:20:00	0	0	4,85831	2,628	20,6316	-0,369	85,551	0	1011,86	6,2	8,2	8,2	1	1	1	1	1	1	1	1	1	0	1	-5,003524	273,512098	312,31047	0
15.01.2021	07:20:01	0	0	4,745326	2,49	18,072	-0,368	85,548	0	1011,84	6,2	8,2	8,2	1	1	1	1	1	1	1	1	1	0	1	-5,003524	273,512098	312,31047	0
15.01.2021	07:20:02	0	0	4,745326	2,49	18,072	-0,368	85,548	0	1011,84	6,2	8,2	8,2	1	1	1	1	1	1	1	1	1	0	1	-8,245243	273,439863	308,733668	0
15.01.2021	07:20:03	0	0	4,519358	2,39025	13,5504	-0,376	85,536	0	1011,56	6,2	8,2	8,2	1	1	1	1	1	1	1	1	1	0	1	-7,470049	273,526578	309,911144	0
15.01.2021	07:20:04	0	0	3,841454	2,21025	21,3804	-0,373	85,556	0	1011,78	6,2	8,2	8,2	1	1	1	1	1	1	1	1	1	0	1	-4,651163	273,436979	312,314377	0
15.01.2021	07:20:05	0	0	2,937583	2,17425	354,6576	-0,381	85,544	0	1011,72	6,2	8,2	8,2	1	1	1	1	1	1	1	1	1	0	1	-3,453136	273,519337	313,894449	0
15.01.2021	07:20:06	0	0	3,954438	2,38875	19,8972	-0,374	85,545	0	1011,76	6,2	8,2	8,2	1	1	1	1	1	1	1	1	1	0	1	-3,100775	273,568631	314,475645	0
15.01.2021	07:20:07	0	0	3,276535	2,4495	19,1448	-0,367	85,556	0	1011,76	6,2	8,2	8,2	1	1	1	1	1	1	1	1	1	0	1	-0,845666	273,625331	316,994119	0
15.01.2021	07:20:08	0	0	4,180406	2,45025	10,0656	-0,372	85,546	0	1011,66	6,1	8,2	8,2	1	1	1	1	1	1	1	1	1	0	1	-9,161381	273,513546	308,159329	0
15.01.2021	07:20:09	0	0	4,745326	2,37075	10,818	-0,372	85,54	0	1011,74	6,2	8,2	8,2	1	1	1	1	1	1	1	1	1	0	1	-7,751938	273,435537	309,206917	0
15.01.2021	07:20:10	0	0	3,163551	2,4435	17,2152	-0,373	85,559	0	1011,74	6,2	8,2	8,2	1	1	1	1	1	1	1	1	1	0	1	-3,59408	273,565728	313,968859	0
15.01.2021	07:20:11	0	0	4,29339	2,40525	7,9632	-0,365	85,556	0	1011,8	6,2	8,2	8,2	1	1	1	1	1	1	1	1	1	0	1	-2,536998	273,610777	315,235168	0
15.01.2021	07:20:12	0	0	3,389519	2,301	22,0896	-0,373	85,542	0	1011,7	6,2	8,4	8,2	1	1	1	1	1	1	1	1	1	0	1	-3,453136	273,586059	314,204219	0
15.01.2021	07:20:13	0	0	4,745326	2,48025	358,0272	-0,372	85,547	0	1011,6	6,2	8,2	8,2	1	1	1	1	1	1	1	1	1	0	1	-5,355884	273,516441	311,978262	0
15.01.2021	07:20:14	0	0	3,163551	2,73075	13,9176	-0,369	85,555	0	1011,82	6,2	8,2	8,2	1	1	1	1	1	1	1	1	1	0	1	-4,721635	273,441305	312,263963	0
15.01.2021	07:20:15	0	0	4,29339	2,85675	12,852	-0,381	85,553	0	1011,76	6,2	8,2	8,2	1	1	1	1	1	1	1	1	1	0	1	-2,889359	273,551219	314,606215	0
15.01.2021	07:20:16	0	0	4,29339	2,92275	14,6232	-0,381	85,554	0	1011,68	6,2	8,2	8,2	1	1	1	1	1	1	1	1	1	0	1	-5,990134	273,603503	311,748245	0
15.01.2021	07:20:17	0	0	3,163551	3,1155	16,0848	-0,376	85,552	0	1011,68	6,2	8,2	8,2	1	1	1	1	1	1	1	1	1	0	1	-6,553911	273,561374	310,988812	0
15.01.2021	07:20:18	0	0	3,389519	2,9235	24,75	-0,369	85,565	0	1011,8	6,2	8,2	8,2	1	1	1	1	1	1	1	1	1	0	1	-3,946441	273,606412	313,805451	0
15.01.2021	07:20:19	0	0	3,502503	2,72475	16,8588	-0,372	85,565	0	1011,7	6,2	8,2	8,2	1	1	1	1	1	1	1	1	1	0	1	-2,184637	273,593326	315,506467	0
15.01.2021	07:20:20	0	0	3,728471	2,7135	7,1316	-0,373	85,563	0	1011,72	6,2	8,2	8,2	1	1	1	1	1	1	1	1	1	0	1	-5,426357	273,535271	311,995186	0
15.01.2021	07:20:21	0	0	4,29339	2,70375	6,0588	-0,375	85,578	0	1012,06	6,2	8,2	8,2	1	1	1	1	1	1	1	1	1	0	1	-8,879493	273,612231	308,899432	0
15.01.2021	07:20:22	0	0	4,067422	2,742	8,2764	-0,37	85,567	0	1011,76	6,2	8,2	8,2	1	1	1	1	1	1	1	1	1	0	1	-7,470049	273,519337	309,877536	0
15.01.2021	07:20:23	0	0	2,711615	2,637	0,1332	-0,373	85,569	0	1011,7	6,1	8,2	8,2	1	1	1	1	1	1	1	1	1	0	1	-3,523608	273,441305	313,46199	0
15.01.2021	07:20:24	0	0	3,954438	2,51025	4,4676	-0,375	85,57	0	1011,6	6,2	8,2	8,2	1	1	1	1	1	1	1	1	1	0	1	-4,087385	273,587513	313,576718	0
15.01.2021	07:20:25	0	0	3,050567	2,484	11,7396	-0,378	85,565	0	1011,8	6,2	8,2	8,2	1	1	1	1	1	1	1	1	1	0	1	-3,805497	273,535271	313,616046	0
15.01.2021	07:20:26	0	0	2,598631	2,361	3,0204	-0,377	85,557	0	1011,78	6,1	8,2	8,2	1	1	1	1	1	1	1	1	1	0	1	-7,329105	273,603503	310,409274	0
15.01.2021	07:20:27	0	0	3,841454	2,313	12,8628	-0,37	85,568	0	1011,66	6,2	8,2	8,2	1	1	1	1	1	1	1	1	1	0	1	-3,59408	273,545418	313,874564	0
15.01.2021	07:20:28	0	0	2,711615	2,27925	3,7836	-0,37	85,568	0	1011,92	6,1	8,2	8,2	1	1	1	1	1	1	1	1	1	0	1	-9,020437	273,416805	307,851569	0
15.01.2021	07:20:29	0	0	3,841454	2,18925	19,5228	-0,375	85,572	0	1011,76	6,2	8,2	8,2	1	1	1	1	1	1	1	1	1	0	1	-1,902748	273,517889	315,438117	0
15.01.2021	07:20:30	0	0	2,711615	2,1495	14,3028	-0,378	85,57	0	1011,76	6,2	8,2	8,2	1	1	1	1	1	1	1	1	1	0	1	-7,540521	273,590419	310,137081	0
15.01.2021	07:20:31	0	0	4,632342	2,2185	20,646	-0,374	85,578	0	1011,5	6,2	8,2	8,2	1	1	1	1	1	1	1	1	1	0	1	-4,22833	273,565728	313,33461	0
15.01.2021	07:20:32	0	0	2,711615	2,26725	19,5372	-0,379	85,572	0	1011,88	6,2	8,2	8,2	1	1	1	1	1	1	1	1	1	0	1	-6,906272	273,481726	310,266801	0
15.01.2021	07:20:33	0	0	2,824599	2,3535	7,1244	-0,376	85,565	0	1011,76	6,2	8,2	8,2	1	1	1	1	1	1	1	1	1	0	1	-3,59408	273,619508	314,218649	0
15.01.2021	07:20:34	0	0	3,050567	2,418	6,822	-0,37	85,567	0	1011,76	6,1	8,2	8,2	1	1	1	1	1	1	1	1	1	0	1	-8,738548	273,470169	308,380911	0
15.01.2021	07:20:35	0	0	4,85831	2,3565	10,0692	-0,373	85,552	0	1011,8	6,2	8,2	8,2	1	1	1	1	1	1	1	1	1	0	1	-4,298802	273,600595	313,426067	0
15.01.2021	07:20:36	0	0	5,197262	2,6235	16,0956	-0,37	85,545	0	1011,74	6,1	8,2	8,2	1	1	1	1	1	1	1	1	1	0	1	-8,668076	273,612231	309,110848	0
15.01.2021	07:20:37	0	0	3,163551	2,652	16,5636	-0,377	85,566	0	1011,8	6,2	8,2	8,2	1	1	1	1	1	1	1	1	1	0	1	-3,030303	273,529475	314,364337	0
15.01.2021	07:20:38	0	0	4,067422	2,70225	15,0336	-0,372	85,576	0	1011,72	6,2	8,2	8,2	1	1	1	1	1	1	1	1	1	0	1	-2,255109	273,594779	315,442747	0
15.01.2021	07:20:39	0	0	3,276535	2,7975	1,1772	-0,375	85,574	0	1011,74	6,2	8,2	8,2	1	1	1	1	1	1	1	1	1	0	1	-4,721635	273,587513	312,942469	0
15.01.2021	07:20:40	0	0	4,067422	3,0345	0	-0,374	85,566	0	1011,68	6,2	8,2	8,2	1	1	1	1	1	1	1	1	1	0	1	-5,990134	273,445632	311,015528	0
15.01.2021	07:20:41	0	0	3,276535	3,02625	10,4436	-0,376	85,589	0	1011,74	6,2	8,2	8,2	1	1	1	1	1	1	1	1	1	0	1	-3,875969	273,465836	313,223396	0
15.01.2021	07:20:42	0	0	3,276535	2,89275	17,2296	-0,376	85,564	0	1011,86	6,2	8,2	8,2	1	1	1	1	1	1	1	1	1	0	1	-4,721635	273,548318	312,760473	0
15.01.2021	07:20:43	0	0	4,406374	3,0705	13,1796	-0,375	85,567	0	1011,66	6,2	8,2	8,2	1	1	1	1	1	1	1	1	1	0	1	-6,976744	273,622419	310,849512	0
15.01.2021	07:20:44	0	0	2,711615	3,00225	18,1692	-0,378	85,573	0	1011,76	6,2	8,2	8,2	1	1	1	1	1	1	1	1	1	0	1	-1,198027	273,529475	316,196614	0
15.01.2021	07:20:45	0	0	3,163551	2,8605	11,718	-0,374	85,568	0	1011,78	6,2	8,2	8,2	1	1	1	1	1	1	1	1	1	0	1	-1,479915	273,620963	316,339577	0
15.01.2021	07:20:46	0	0	2,937583	2,92425	13,1652	-0,369	85,582	0	1011,78	6,2	8,2	8,2	1	1	1	1	1	1	1	1	1	0	1	-4,016913	273,561374	313,52581	0
15.01.2021	07:20:47	0	0	4,632342	3,02775	13,1724	-0,369	85,585	0	1011,84	6,2	8,2	8,2	1	1	1	1	1	1	1	1	1	0	1	-3,523608	273,565728	314,039331	0
15.01.2021	07:20:48	0	0	2,937583	3,21075	13,1544	-0,37	85,564	0	1011,66	6,1	8,2	8,2	1	1	1	1	1	1	1	1	1	0	1	-5,355884	273,42833	311,569555	0
15.01.2021	07:20:49	0	0	4,29339	3,234	23,2128	-0,377	85,558	0	1011,8	6,2	8,2	8,2	1	1	1	1	1	1	1	1	1	0	1	-6,483439	273,53672	310,94483	0
15.01.2021	07:20:50	0	0	4,29339	3,05025	23,2308	-0,375	85,586	0	1011,76	6,2	8,2	8,2	1	1	1	1	1	1	1	1	1	0	1	-3,735025	273,622419	314,091231	0
15.01.2021	07:20:51	0	0	4,519358	3,003	14,3064	-0,378	85,559	0	1011,74	6,2	8,2	8,2	1	1	1	1	1	1	1	1	1	0	1	-5,778717	273,55557	311,73706	0
15.01.2021	07:20:52	0	0	3,502503	3,015	16,8552	-0,381	85,576	0	1011,7	6,2	8,2	8,2	1	1	1	1	1	1	1	1	1	0	1	-7,540521	273,565728	310,022418	0
15.01.2021	07:20:53	0	0	4,29339	3,03075	19,5228	-0,382	85,581	0	1011,74	6,2	8,2	8,2	1	1	1	1	1	1	1	1	1	0	1	-10,077519	273,610777	307,694646	0
15.01.2021	07:20:54	0	0	3,163551	2,81175	26,5248	-0,372	85,585	0	1011,88	6,2	8,2	8,2	1	1	1	1	1	1	1	1	1	0	1	-3,946441	273,470169	313,173019	0
15.01.2021	07:20:55	0	0	3,050567	2,62425	6,444	-0,37	85,581	0	1011,7	6,1	8,2	8,2	1	1	1	1	1	1	1	1	1	0	1	-4,792107	273,415365	312,073223	0
15.01.2021	07:20:56	0	0	3,615487	2,69325	12,1068	-0,374	85,588	0	1011,82	6,2	8,2	8,2	1	1	1	1	1	1	1	1	1	0	1	-2,748414	273,542518	314,706769	0
15.01.2021	07:20:57	0	0	3,615487	2,76825	11,718	-0,372	85,582	0	1011,8	6,2	8,2	8,2	1	1	1	1	1	1	1	1	1	0	1	-5,21494	273,604958	312,530195	0
15.01.2021	07:20:58	0	0	4,067422	2,682	24,7284	-0,374	85,573	0	1011,74	6,2	8,2	8,2	1	1	1	1	1	1	1	1	1	0	1	-5,285412	273,559923	312,250574	0
15.01.2021	07:20:59	0	0	3,841454	2,523	13,932	-0,373	85,581	0	1011,84	6,2	8,2	8,2	1	1	1	1	1	1	1	1	1	0	1	-5,567301	273,523681	311,800447	0
15.01.2021	07:21:00	0	0	4,632342	2,2965	10,0548	-0,376	85,553	0	1011,66	6,2	8,2	8,2	1	1	1	1	1	1	1	1	1	0	1	-5,919662	273,584606	311,730945	0
15.01.2021	07:21:01	0	0	4,632342	2,2965	10,0548	-0,376	85,553	0	1011,66	6,2	8,2	8,2	1	1	1	1	1	1	1	1	1	0	1	-5,919662	273,584606	311,730945	0
15.01.2021	07:21:02	0	0	2,711615	2,39325	4,464	-0,374	85,568	0	1011,94	6,2	8,2	8,2	1	1	1	1	1	1	1	1	1	0	1	-3,100775	273,613686	314,684909	0
15.01.2021	07:21:03	0	0	3,050567	2,50125	4,4748	-0,379	85,563	0	1011,64	6,2	8,2	8,2	1	1	1	1	1	1	1	1	1	0	1	-3,24172	273,522233	314,119307	0
15.01.2021	07:21:04	0	0	4,85831	2,5935	359,802	-0,378	85,552	0	1011,7	6,2	8,2	8,2	1	1	1	1	1	1	1	1	1	0	1	-4,862579	273,612231	312,916345	0
15.01.2021	07:21:05	0	0	3,276535	2,4945	3,024	-0,376	85,571	0	1011,78	6,2	8,2	8,2	1	1	1	1	1	1	1	1	1	0	1	-1,409443	273,526578	315,97175	0
15.01.2021	07:21:06	0	0	3,841454	2,3205	355,446	-0,377	85,576	0	1011,78	6,2	8,2	8,2	1	1	1	1	1	1	1	1	1	0	1	-4,933051	273,455731	312,119447	0
15.01.2021	07:21:07	0	0	4,406374	2,277	2,2932	-0,373	85,566	0	1011,74	6,1	8,4	8,2	1	1	1	1	1	1	1	1	1	0	1	-7,329105	273,464392	309,763563	0
15.01.2021	07:21:08	0	0	3,728471	2,166	356,5368	-0,377	85,57	0	1011,72	6,2	8,2	8,2	1	1	1	1	1	1	1	1	1	0	1	-7,399577	273,442747	309,592708	0
15.01.2021	07:21:09	0	0	4,180406	2,12175	11,1888	-0,378	85,567	0	1011,74	6,2	8,2	8,2	1	1	1	1	1	1	1	1	1	0	1	-6,342495	273,557021	311,180018	0
15.01.2021	07:21:10	0	0	3,163551	2,1225	0,4968	-0,379	85,542	0	1011,64	6,2	8,2	8,2	1	1	1	1	1	1	1	1	1	0	1	-6,131078	273,442747	310,861207	0
15.01.2021	07:21:11	0	0	3,276535	2,1465	13,1508	-0,379	85,557	0	1011,76	6,2	8,2	8,2	1	1	1	1	1	1	1	1	1	0	1	-5,144468	273,551219	312,351106	0
15.01.2021	07:21:12	0	0	3,389519	2,24925	17,2332	-0,378	85,565	0	1011,7	6,2	8,2	8,2	1	1	1	1	1	1	1	1	1	0	1	-4,369274	273,449959	312,656457	0
15.01.2021	07:21:13	0	0	3,163551	2,3925	22,4676	-0,376	85,544	0	1011,8	6,1	8,2	8,2	1	1	1	1	1	1	1	1	1	0	1	-3,453136	273,607867	314,305513	0
15.01.2021	07:21:14	0	0	4,632342	2,51325	20,2824	-0,374	85,551	0	1011,84	6,2	8,2	8,2	1	1	1	1	1	1	1	1	1	0	1	-6,412967	273,519337	310,934619	0
15.01.2021	07:21:15	0	0	2,259679	2,5875	16,848	-0,377	85,563	0	1011,74	6,2	8,2	8,2	1	1	1	1	1	1	1	1	1	0	1	-5,355884	273,604958	312,389251	0
15.01.2021	07:21:16	0	0	3,841454	2,4675	18,828	-0,375	85,567	0	1011,78	6,2	8,2	8,2	1	1	1	1	1	1	1	1	1	0	1	-6,694856	273,535271	310,726687	0
15.01.2021	07:21:17	0	0	4,971294	2,38275	1,2708	-0,377	85,571	0	1011,78	6,2	8,2	8,2	1	1	1	1	1	1	1	1	1	0	1	-1,832276	273,586059	315,825079	0
15.01.2021	07:21:18	0	0	3,728471	2,295	10,8108	-0,377	85,559	0	1011,78	6,1	8,2	8,2	1	1	1	1	1	1	1	1	1	0	1	-5,144468	273,478836	312,015198	0
15.01.2021	07:21:19	0	0	3,389519	2,17425	17,2332	-0,378	85,564	0	1011,76	6,2	8,2	8,2	1	1	1	1	1	1	1	1	1	0	1	-4,016913	273,588966	313,65394	0
15.01.2021	07:21:20	0	0	4,85831	2,1405	0,4968	-0,371	85,566	0	1011,6	6,1	8,2	8,2	1	1	1	1	1	1	1	1	1	0	1	-1,62086	273,452845	315,418254	0
15.01.2021	07:21:21	0	0	2,711615	2,24925	10,0764	-0,376	85,555	0	1011,58	6,2	8,4	8,2	1	1	1	1	1	1	1	1	1	0	1	-1,832276	273,500522	315,428001	0
15.01.2021	07:21:22	0	0	2,824599	2,2785	10,4436	-0,373	85,558	0	1011,8	6,2	8,2	8,2	1	1	1	1	1	1	1	1	1	0	1	-7,540521	273,600595	310,184347	0
15.01.2021	07:21:23	0	0	2,711615	2,2665	15,7752	-0,376	85,571	0	1011,68	6,2	8,2	8,2	1	1	1	1	1	1	1	1	1	0	1	-4,016913	273,561374	313,52581	0
15.01.2021	07:21:24	0	0	3,050567	2,2515	15,8004	-0,377	85,577	0	1011,84	6,2	8,2	8,2	1	1	1	1	1	1	1	1	1	0	1	-6,906272	273,604958	310,838863	0
15.01.2021	07:21:25	0	0	4,971294	2,3175	11,304	-0,379	85,551	0	1011,58	6,2	8,4	8,2	1	1	1	1	1	1	1	1	1	0	1	-4,510218	273,477391	312,642745	0
15.01.2021	07:21:26	0	0	4,519358	2,4765	15,0336	-0,376	85,554	0	1011,74	6,2	8,2	8,2	1	1	1	1	1	1	1	1	1	0	1	-1,550388	273,539619	315,891338	0
15.01.2021	07:21:27	0	0	2,711615	2,70825	9,3564	-0,372	85,56	0	1011,7	6,2	8,4	8,2	1	1	1	1	1	1	1	1	1	0	1	-4,016913	273,441305	312,968684	0
15.01.2021	07:21:28	0	0	3,954438	2,8035	9,3672	-0,376	85,567	0	1011,86	6,2	8,2	8,2	1	1	1	1	1	1	1	1	1	0	1	-4,087385	273,500522	313,172892	0
15.01.2021	07:21:29	0	0	3,050567	2,796	15,0408	-0,376	85,572	0	1011,76	6,2	8,2	8,2	1	1	1	1	1	1	1	1	1	0	1	-5,003524	273,620963	312,815969	0
15.01.2021	07:21:30	0	0	2,824599	2,83425	16,4772	-0,378	85,576	0	1011,8	6,2	8,2	8,2	1	1	1	1	1	1	1	1	1	0	1	-2,677942	273,503416	314,595761	0
15.01.2021	07:21:31	0	0	4,745326	2,7705	21,3804	-0,375	85,58	0	1011,78	6,2	8,2	8,2	1	1	1	1	1	1	1	1	1	0	1	-2,818887	273,451402	314,213535	0
15.01.2021	07:21:32	0	0	4,180406	2,68575	13,9248	-0,369	85,563	0	1011,72	6,2	8,2	8,2	1	1	1	1	1	1	1	1	1	0	1	-4,016913	273,586059	313,640442	0
15.01.2021	07:21:33	0	0	4,519358	2,685	15,03	-0,376	85,579	0	1011,82	6,2	8,2	8,2	1	1	1	1	1	1	1	1	1	0	1	-7,892882	273,542518	309,562301	0
15.01.2021	07:21:34	0	0	4,971294	2,688	7,146	-0,371	85,572	0	1011,76	6,2	8,2	8,2	1	1	1	1	1	1	1	1	1	0	1	-5,21494	273,580248	312,415427	0
15.01.2021	07:21:35	0	0	3,615487	2,7735	4,9284	-0,372	85,578	0	1011,84	6,2	8,2	8,2	1	1	1	1	1	1	1	1	1	0	1	-5,144468	273,577343	312,472409	0
15.01.2021	07:21:36	0	0	4,406374	2,95125	6,4404	-0,369	85,571	0	1011,72	6,1	8,2	8,2	1	1	1	1	1	1	1	1	1	0	1	-4,298802	273,623875	313,534218	0
15.01.2021	07:21:37	0	0	4,745326	3,37875	2,6496	-0,376	85,571	0	1011,74	6,2	8,2	8,2	1	1	1	1	1	1	1	1	1	0	1	-2,043693	273,52513	315,330778	0
15.01.2021	07:21:38	0	0	2,937583	3,666	12,0996	-0,38	85,572	0	1011,7	6,2	8,2	8,2	1	1	1	1	1	1	1	1	1	0	1	-3,946441	273,597687	313,76492	0
15.01.2021	07:21:39	0	0	4,180406	3,7095	7,9812	-0,374	85,579	0	1011,8	6,2	8,2	8,2	1	1	1	1	1	1	1	1	1	0	1	-1,761804	273,470169	315,357656	0
15.01.2021	07:21:40	0	0	2,937583	3,58575	15,7824	-0,369	85,581	0	1011,88	6,2	8,2	8,2	1	1	1	1	1	1	1	1	1	0	1	-4,22833	273,546868	313,247046	0
15.01.2021	07:21:41	0	0	3,163551	3,4515	15,0408	-0,376	85,575	0	1011,56	6,1	8,2	8,2	1	1	1	1	1	1	1	1	1	0	1	-3,030303	273,421126	313,861736	0
15.01.2021	07:21:42	0	0	3,954438	3,219	22,8384	-0,367	85,572	0	1011,74	6,2	8,2	8,2	1	1	1	1	1	1	1	1	1	0	1	-10,500352	273,526578	306,880841	0
15.01.2021	07:21:43	0	0	3,276535	3,1095	16,1028	-0,375	85,576	0	1011,74	6,2	8,2	8,2	1	1	1	1	1	1	1	1	1	0	1	-8,879493	273,618052	308,926475	0
15.01.2021	07:21:44	0	0	2,598631	3,04275	16,092	-0,373	85,566	0	1011,64	6,2	8,2	8,2	1	1	1	1	1	1	1	1	1	0	1	-7,610994	273,584606	310,039613	0
15.01.2021	07:21:45	0	0	4,745326	3,00525	16,1064	-0,373	85,567	0	1011,7	6,1	8,2	8,2	1	1	1	1	1	1	1	1	1	0	1	-3,805497	273,519337	313,542089	0
15.01.2021	07:21:46	0	0	2,937583	2,9325	19,1304	-0,373	85,561	0	1011,66	6,1	8,2	8,2	1	1	1	1	1	1	1	1	1	0	1	-5,003524	273,626787	312,843026	0
15.01.2021	07:21:47	0	0	2,937583	2,81325	16,848	-0,378	85,563	0	1011,62	6,2	8,2	8,2	1	1	1	1	1	1	1	1	1	0	1	-6,272023	273,561374	311,270701	0
15.01.2021	07:21:48	0	0	3,728471	2,8215	16,4808	-0,373	85,567	0	1011,98	6,2	8,2	8,2	1	1	1	1	1	1	1	1	1	0	1	-4,22833	273,458618	312,837556	0
15.01.2021	07:21:49	0	0	4,067422	2,92575	16,866	-0,377	85,559	0	1011,74	6,2	8,2	8,2	1	1	1	1	1	1	1	1	1	0	1	-6,694856	273,619508	311,117874	0
15.01.2021	07:21:50	0	0	4,85831	2,961	8,3664	-0,375	85,571	0	1011,78	6,2	8,2	8,2	1	1	1	1	1	1	1	1	1	0	1	-6,483439	273,491845	310,736577	0
15.01.2021	07:21:51	0	0	2,937583	3,0765	2,646	-0,367	85,568	0	1011,82	6,2	8,2	8,2	1	1	1	1	1	1	1	1	1	0	1	-5,073996	273,607867	312,684653	0
15.01.2021	07:21:52	0	0	2,937583	2,97525	21,0168	-0,373	85,56	0	1011,78	6,2	8,2	8,2	1	1	1	1	1	1	1	1	1	0	1	-6,694856	273,503416	310,578847	0
15.01.2021	07:21:53	0	0	2,824599	2,784	18,8352	-0,374	85,564	0	1011,84	6,2	8,2	8,2	1	1	1	1	1	1	1	1	1	0	1	-7,681466	273,448517	309,337575	0
15.01.2021	07:21:54	0	0	2,937583	2,61375	14,3352	-0,374	85,571	0	1011,74	6,2	8,2	8,2	1	1	1	1	1	1	1	1	1	0	1	-6,20155	273,439863	310,777361	0
15.01.2021	07:21:55	0	0	4,406374	2,5965	16,488	-0,379	85,576	0	1011,78	6,2	8,2	8,2	1	1	1	1	1	1	1	1	1	0	1	-5,355884	273,477391	311,797079	0
15.01.2021	07:21:56	0	0	3,050567	2,65875	1,9296	-0,375	85,556	0	1011,74	6,2	8,2	8,2	1	1	1	1	1	1	1	1	1	0	1	-5,919662	273,594779	311,778194	0
15.01.2021	07:21:57	0	0	4,85831	2,74275	12,1752	-0,373	85,545	0	1011,8	6,1	8,2	8,2	1	1	1	1	1	1	1	1	1	0	1	-7,329105	273,577343	310,287771	0
15.01.2021	07:21:58	0	0	4,067422	2,71425	0,1296	-0,377	85,567	0	1011,68	6,2	8,2	8,2	1	1	1	1	1	1	1	1	1	0	1	-6,20155	273,545418	311,267094	0
15.01.2021	07:21:59	0	0	4,180406	2,62425	6,4512	-0,372	85,563	0	1011,82	6,2	8,2	8,2	1	1	1	1	1	1	1	1	1	0	1	-7,399577	273,606412	310,352315	0
15.01.2021	07:22:00	0	0	3,728471	2,8425	9,99	-0,374	85,568	0	1011,72	6,2	8,2	8,2	1	1	1	1	1	1	1	1	1	0	1	-1,409443	273,606412	316,342449	0
15.01.2021	07:22:01	0	0	3,728471	2,8425	9,99	-0,374	85,568	0	1011,72	6,2	8,2	8,2	1	1	1	1	1	1	1	1	1	0	1	-1,409443	273,606412	316,342449	0
15.01.2021	07:22:02	0	0	3,954438	3,06675	4,8492	-0,372	85,567	0	1011,82	6,2	8,2	8,2	1	1	1	1	1	1	1	1	1	0	1	-9,44327	273,597687	308,268091	0
15.01.2021	07:22:03	0	0	3,841454	3,1095	9,3888	-0,378	85,553	0	1011,78	6,2	8,2	8,2	1	1	1	1	1	1	1	1	1	0	1	-3,664553	273,444189	313,33442	0
15.01.2021	07:22:04	0	0	3,728493	3,12225	6,4404	-0,37	85,568	0	1011,7	6,2	8,2	8,1	1	1	1	1	1	1	1	1	1	0	1	-3,735025	273,620963	314,084468	0
15.01.2021	07:22:05	0	0	4,067422	3,06675	5,2236	-0,375	85,577	0	1011,8	6,2	8,2	8,2	1	1	1	1	1	1	1	1	1	0	1	-3,382664	273,513546	313,938047	0
15.01.2021	07:22:06	0	0	2,711615	2,925	0,4896	-0,376	85,558	0	1011,54	6,2	8,2	8,2	1	1	1	1	1	1	1	1	1	0	1	-5,073996	273,382269	311,637944	0
15.01.2021	07:22:07	0	0	3,163551	2,9415	4,4676	-0,376	85,577	0	1011,86	6,2	8,2	8,2	1	1	1	1	1	1	1	1	1	0	1	-6,483439	273,484617	310,703043	0
15.01.2021	07:22:08	0	0	2,711615	2,83425	359,0352	-0,377	85,57	0	1011,76	6,2	8,2	8,2	1	1	1	1	1	1	1	1	1	0	1	-3,171247	273,620963	314,648245	0
15.01.2021	07:22:09	0	0	2,937583	2,7915	8,6184	-0,378	85,567	0	1011,8	6,2	8,2	8,2	1	1	1	1	1	1	1	1	1	0	1	-4,862579	273,522233	312,498447	0
15.01.2021	07:22:10	0	0	4,519358	2,859	4,1112	-0,374	85,56	0	1011,88	6,2	8,2	8,2	1	1	1	1	1	1	1	1	1	0	1	-6,8358	273,454288	310,210006	0
15.01.2021	07:22:11	0	0	4,745326	2,8185	4,8276	-0,382	85,562	0	1011,74	6,2	8,2	8,2	1	1	1	1	1	1	1	1	1	0	1	-8,386187	273,570083	309,196974	0
15.01.2021	07:22:12	0	0	4,29339	2,71875	18,09	-0,382	85,564	0	1011,78	6,2	8,2	8,2	1	1	1	1	1	1	1	1	1	0	1	-5,003524	273,559923	312,532462	0
15.01.2021	07:22:13	0	0	3,841454	2,67675	3,7836	-0,382	85,563	0	1011,64	6,2	8,2	8,2	1	1	1	1	1	1	1	1	1	0	1	-2,677942	273,42833	314,247497	0
15.01.2021	07:22:14	0	0	4,180406	2,7615	4,4712	-0,377	85,554	0	1011,72	6,1	8,2	8,2	1	1	1	1	1	1	1	1	1	0	1	-2,043693	273,493291	315,183032	0
15.01.2021	07:22:15	0	0	2,937583	2,763	10,4616	-0,383	85,575	0	1011,64	6,2	8,2	8,2	1	1	1	1	1	1	1	1	1	0	1	-3,664553	273,615142	314,127892	0
15.01.2021	07:22:16	0	0	4,067422	2,57775	15,03	-0,378	85,567	0	1011,78	6,2	8,2	8,2	1	1	1	1	1	1	1	1	1	0	1	-6,20155	273,571535	311,388353	0
15.01.2021	07:22:17	0	0	3,163551	2,40375	4,0968	-0,373	85,569	0	1011,74	6,2	8,2	8,2	1	1	1	1	1	1	1	1	1	0	1	-2,255109	273,602049	315,476514	0
15.01.2021	07:22:18	0	0	4,971294	2,30475	18,4428	-0,374	85,568	0	1011,74	6,2	8,2	8,2	1	1	1	1	1	1	1	1	1	0	1	-4,298802	273,575891	313,31133	0
15.01.2021	07:22:19	0	0	4,632342	2,2275	12,0996	-0,383	85,563	0	1011,78	6,2	8,2	8,2	1	1	1	1	1	1	1	1	1	0	1	-1,338971	273,542518	316,116213	0
15.01.2021	07:22:20	0	0	4,180406	2,2575	7,1244	-0,374	85,558	0	1011,72	6,2	8,2	8,2	1	1	1	1	1	1	1	1	1	0	1	-4,862579	273,596233	312,842029	0
15.01.2021	07:22:21	0	0	3,050567	2,2095	9,36	-0,38	85,545	0	1011,86	6,2	8,2	8,2	1	1	1	1	1	1	1	1	1	0	1	-1,832276	273,475947	315,313985	0
15.01.2021	07:22:22	0	0	5,084278	2,13375	18,8388	-0,379	85,564	0	1011,72	6,1	8,2	8,2	1	1	1	1	1	1	1	1	1	0	1	-8,668076	273,583154	308,975784	0
15.01.2021	07:22:23	0	0	2,146695	2,07075	12,8664	-0,372	85,581	0	1011,74	6,1	8,2	8,2	1	1	1	1	1	1	1	1	1	0	1	-4,157858	273,424007	312,74754	0
15.01.2021	07:22:24	0	0	3,050567	2,013	16,47	-0,374	85,559	0	1011,78	6,2	8,2	8,2	1	1	1	1	1	1	1	1	1	0	1	-4,298802	273,491845	312,921214	0
15.01.2021	07:22:25	0	0	4,632342	1,9065	14,3064	-0,379	85,554	0	1011,82	6,2	8,2	8,2	1	1	1	1	1	1	1	1	1	0	1	-7,963354	273,442747	309,028931	0
15.01.2021	07:22:26	0	0	3,954438	1,76625	27,6516	-0,379	85,571	0	1011,82	6,2	8,2	8,2	1	1	1	1	1	1	1	1	1	0	1	-6,131078	273,564277	311,425122	0
15.01.2021	07:22:27	0	0	4,85831	1,749	20,3112	-0,375	85,577	0	1011,94	6,2	8,2	8,2	1	1	1	1	1	1	1	1	1	0	1	-7,892882	273,439863	309,086029	0
15.01.2021	07:22:28	0	0	4,180406	1,76775	13,9104	-0,376	85,576	0	1011,88	6,1	8,2	8,2	1	1	1	1	1	1	1	1	1	0	1	-1,62086	273,46728	315,485203	0
15.01.2021	07:22:29	0	0	2,372663	1,923	11,7072	-0,374	85,569	0	1011,78	6,2	8,2	8,2	1	1	1	1	1	1	1	1	1	0	1	-6,20155	273,53672	311,226719	0
15.01.2021	07:22:30	0	0	4,632342	2,142	13,2552	-0,377	85,566	0	1011,8	6,2	8,2	8,2	1	1	1	1	1	1	1	1	1	0	1	-8,668076	273,607867	309,090573	0
15.01.2021	07:22:31	0	0	2,824599	2,094	16,4952	-0,376	85,567	0	1011,8	6,2	8,4	8,2	1	1	1	1	1	1	1	1	1	0	1	-7,540521	273,487508	309,659373	0
15.01.2021	07:22:32	0	0	4,29339	2,022	13,9248	-0,383	85,579	0	1011,88	6,2	8,2	8,2	1	1	1	1	1	1	1	1	1	0	1	-1,973221	273,572987	315,623425	0
15.01.2021	07:22:33	0	0	2,146695	2,0685	6,0552	-0,372	85,58	0	1011,8	6,2	8,2	8,2	1	1	1	1	1	1	1	1	1	0	1	-1,268499	273,448517	315,750541	0
15.01.2021	07:22:34	0	0	3,163551	2,049	11,7108	-0,378	85,565	0	1011,68	6,2	8,2	8,2	1	1	1	1	1	1	1	1	1	0	1	-5,990134	273,50631	311,296997	0
15.01.2021	07:22:35	0	0	3,954438	2,1225	11,1924	-0,375	85,586	0	1011,86	6,2	8,2	8,2	1	1	1	1	1	1	1	1	1	0	1	-7,399577	273,565728	310,163362	0
15.01.2021	07:22:36	0	0	3,728471	2,11575	14,31	-0,374	85,568	0	1011,9	6,2	8,2	8,2	1	1	1	1	1	1	1	1	1	0	1	-4,721635	273,610777	313,05053	0
15.01.2021	07:22:37	0	0	3,954438	2,27325	4,0824	-0,374	85,585	0	1011,88	6,2	8,2	8,2	1	1	1	1	1	1	1	1	1	0	1	-5,567301	273,548318	311,914807	0
15.01.2021	07:22:38	0	0	4,632342	2,53425	0,5004	-0,379	85,583	0	1011,8	6,2	8,2	8,2	1	1	1	1	1	1	1	1	1	0	1	-5,567301	273,436979	311,398238	0
15.01.2021	07:22:39	0	0	4,406374	2,583	345,1284	-0,375	85,562	0	1011,82	6,2	8,2	8,2	1	1	1	1	1	1	1	1	1	0	1	-2,536998	273,519337	314,810588	0
15.01.2021	07:22:40	0	0	2,372663	2,604	23,5908	-0,382	85,582	0	1011,84	6,2	8,2	8,2	1	1	1	1	1	1	1	1	1	0	1	-6,906272	273,616597	310,892934	0
15.01.2021	07:22:41	0	0	3,615487	2,376	31,8636	-0,373	85,568	0	1011,76	6,2	8,4	8,2	1	1	1	1	1	1	1	1	1	0	1	-8,174771	273,551219	309,320803	0
15.01.2021	07:22:42	0	0	2,937583	2,18175	21,7836	-0,377	85,56	0	1011,7	6,2	8,2	8,2	1	1	1	1	1	1	1	1	1	0	1	-3,453136	273,441305	313,532462	0
15.01.2021	07:22:43	0	0	4,406374	2,2215	29,97	-0,378	85,577	0	1011,8	6,2	8,4	8,2	1	1	1	1	1	1	1	1	1	0	1	-6,342495	273,564277	311,213705	0
15.01.2021	07:22:44	0	0	3,728471	2,38725	24,7104	-0,379	85,576	0	1011,82	6,2	8,2	8,2	1	1	1	1	1	1	1	1	1	0	1	-3,100775	273,434096	313,851395	0
15.01.2021	07:22:45	0	0	2,598631	2,5665	20,3076	-0,373	85,577	0	1011,76	6,2	8,2	8,2	1	1	1	1	1	1	1	1	1	0	1	-5,567301	273,478836	311,592365	0
15.01.2021	07:22:46	0	0	4,632342	2,868	16,0884	-0,375	85,568	0	1011,82	6,2	8,2	8,2	1	1	1	1	1	1	1	1	1	0	1	-3,453136	273,431213	313,485667	0
15.01.2021	07:22:47	0	0	5,084278	2,93775	9,36	-0,377	85,579	0	1011,72	6,2	8,2	8,2	1	1	1	1	1	1	1	1	1	0	1	-3,735025	273,484617	313,451458	0
15.01.2021	07:22:48	0	0	4,067422	2,91675	13,5468	-0,379	85,579	0	1011,82	6,2	8,2	8,2	1	1	1	1	1	1	1	1	1	0	1	-1,832276	273,607867	315,926373	0
15.01.2021	07:22:49	0	0	3,728471	2,9625	8,2584	-0,374	85,581	0	1011,7	6,2	8,2	8,2	1	1	1	1	1	1	1	1	1	0	1	-6,906272	273,545418	310,562373	0
15.01.2021	07:22:50	0	0	4,406374	2,8425	4,8492	-0,374	85,574	0	1011,82	6,2	8,2	8,2	1	1	1	1	1	1	1	1	1	0	1	-1,973221	273,503416	315,300482	0
15.01.2021	07:22:51	0	0	3,615487	2,556	15,7788	-0,377	85,586	0	1011,78	6,2	8,2	8,2	1	1	1	1	1	1	1	1	1	0	1	-5,426357	273,591872	312,257997	0
15.01.2021	07:22:52	0	0	3,163551	2,38725	3,0168	-0,381	85,554	0	1011,76	6,2	8,2	8,2	1	1	1	1	1	1	1	1	1	0	1	-6,906272	273,552669	310,596036	0
15.01.2021	07:22:53	0	0	4,85831	2,2575	7,5096	-0,376	85,573	0	1011,86	6,2	8,2	8,2	1	1	1	1	1	1	1	1	1	0	1	-3,453136	273,606412	314,298756	0
15.01.2021	07:22:54	0	0	4,406374	2,238	3,762	-0,376	85,568	0	1011,82	6,2	8,2	8,2	1	1	1	1	1	1	1	1	1	0	1	-7,681466	273,500522	309,578812	0
15.01.2021	07:22:55	0	0	3,389519	2,20125	358,7112	-0,376	85,557	0	1011,68	6,2	8,2	8,2	1	1	1	1	1	1	1	1	1	0	1	-5,426357	273,445632	311,579305	0
15.01.2021	07:22:56	0	0	4,745326	2,09925	356,9652	-0,379	85,576	0	1011,74	6,2	8,2	8,2	1	1	1	1	1	1	1	1	1	0	1	-4,510218	273,494737	312,723216	0
15.01.2021	07:22:57	0	0	4,29339	2,061	358,4664	-0,379	85,574	0	1011,78	6,2	8,2	8,2	1	1	1	1	1	1	1	1	1	0	1	-1,338971	273,441305	315,646627	0
15.01.2021	07:22:58	0	0	3,615487	2,058	355,8888	-0,376	85,571	0	1011,84	6,2	8,2	8,2	1	1	1	1	1	1	1	1	1	0	1	-6,624383	273,570083	310,958778	0
15.01.2021	07:22:59	0	0	4,519358	2,13075	359,7768	-0,374	85,572	0	1011,76	6,2	8,2	8,2	1	1	1	1	1	1	1	1	1	0	1	-4,580691	273,452845	312,458423	0
15.01.2021	07:23:00	0	0	5,084278	2,19525	344,7864	-0,368	85,582	0	1011,72	6,1	8,2	8,2	1	1	1	1	1	1	1	1	1	0	1	-2,184637	273,577343	315,432239	0
15.01.2021	07:23:01	0	0	5,084278	2,19525	344,7864	-0,368	85,582	0	1011,72	6,1	8,2	8,2	1	1	1	1	1	1	1	1	1	0	1	-2,184637	273,577343	315,432239	0
15.01.2021	07:23:02	0	0	4,971294	2,17125	356,202	-0,378	85,565	0	1011,66	6,2	8,2	8,2	1	1	1	1	1	1	1	1	1	0	1	-2,396054	273,594779	315,301802	0
15.01.2021	07:23:03	0	0	4,85831	2,1585	358,3008	-0,378	85,576	0	1011,72	6,2	8,2	8,2	1	1	1	1	1	1	1	1	1	0	1	-4,792107	273,442747	312,200178	0
15.01.2021	07:23:04	0	0	5,084278	2,0985	357,2856	-0,382	85,574	0	1011,74	6,2	8,2	8,2	1	1	1	1	1	1	1	1	1	0	1	-2,748414	273,578796	314,875207	0
15.01.2021	07:23:05	0	0	3,728471	2,05275	1,9188	-0,382	85,56	0	1011,8	6,2	8,2	8,2	1	1	1	1	1	1	1	1	1	0	1	-3,171247	273,477391	313,981716	0
15.01.2021	07:23:06	0	0	2,598631	2,03475	3,7584	-0,375	85,571	0	1011,86	6,2	8,2	8,2	1	1	1	1	1	1	1	1	1	0	1	-0	273,452845	317,039113	0
15.01.2021	07:23:07	0	0	4,29339	1,98975	7,6284	-0,376	85,569	0	1011,76	6,2	8,2	8,2	1	1	1	1	1	1	1	1	1	0	1	-0,140944	273,465836	316,958421	0
15.01.2021	07:23:08	0	0	5,649198	2,082	359,4384	-0,37	85,576	0	1011,9	6,2	8,2	8,2	1	1	1	1	1	1	1	1	1	0	1	-5,708245	273,596233	311,996363	0
15.01.2021	07:23:09	0	0	4,745326	2,28825	0,1296	-0,379	85,577	0	1011,9	6,2	8,2	8,2	1	1	1	1	1	1	1	1	1	0	1	-2,818887	273,454288	314,226919	0
15.01.2021	07:23:10	0	0	3,050567	2,42475	3,8664	-0,374	85,575	0	1011,84	6,2	8,2	8,2	1	1	1	1	1	1	1	1	1	0	1	-6,272023	273,542518	311,183161	0
15.01.2021	07:23:11	0	0	3,163551	2,58225	2,2896	-0,378	85,576	0	1011,78	6,2	8,2	8,2	1	1	1	1	1	1	1	1	1	0	1	-3,735025	273,445632	313,270637	0
15.01.2021	07:23:12	0	0	3,050567	2,574	358,0992	-0,382	85,562	0	1011,8	6,2	8,2	8,2	1	1	1	1	1	1	1	1	1	0	1	-5,567301	273,557021	311,955212	0
15.01.2021	07:23:13	0	0	3,502503	2,6175	23,5872	-0,379	85,58	0	1011,88	6,2	8,2	8,2	1	1	1	1	1	1	1	1	1	0	1	-4,510218	273,442747	312,482067	0
15.01.2021	07:23:14	0	0	4,745326	2,52825	16,4808	-0,379	85,567	0	1011,8	6,2	8,2	8,2	1	1	1	1	1	1	1	1	1	0	1	-4,721635	273,535271	312,699907	0
15.01.2021	07:23:15	0	0	4,180406	2,67375	12,4632	-0,374	85,559	0	1011,76	6,2	8,2	8,2	1	1	1	1	1	1	1	1	1	0	1	-6,906272	273,612231	310,872653	0
15.01.2021	07:23:16	0	0	4,406374	2,99775	11,2032	-0,378	85,551	0	1011,72	6,2	8,2	8,2	1	1	1	1	1	1	1	1	1	0	1	-5,003524	273,575891	312,606609	0
15.01.2021	07:23:17	0	0	4,519358	3,261	16,4772	-0,376	85,577	0	1011,78	6,2	8,2	8,2	1	1	1	1	1	1	1	1	1	0	1	-4,792107	273,53672	312,636162	0
15.01.2021	07:23:18	0	0	2,937583	3,34725	9,36	-0,377	85,583	0	1011,78	6,2	8,2	8,2	1	1	1	1	1	1	1	1	1	0	1	-7,188161	273,594779	310,509695	0
15.01.2021	07:23:19	0	0	4,745326	3,29925	15,0228	-0,38	85,572	0	1011,72	6,2	8,2	8,2	1	1	1	1	1	1	1	1	1	0	1	-2,60747	273,570083	314,975691	0
15.01.2021	07:23:20	0	0	4,29339	3,25125	12,852	-0,375	85,57	0	1011,76	6,2	8,2	8,2	1	1	1	1	1	1	1	1	1	0	1	-4,862579	273,594779	312,835277	0
15.01.2021	07:23:21	0	0	3,050567	3,294	3,3984	-0,376	85,559	0	1011,84	6,2	8,2	8,2	1	1	1	1	1	1	1	1	1	0	1	-5,426357	273,429772	311,505764	0
15.01.2021	07:23:22	0	0	4,29339	3,306	7,8804	-0,375	85,572	0	1011,86	6,2	8,2	8,2	1	1	1	1	1	1	1	1	1	0	1	-6,906272	273,53672	310,521997	0
15.01.2021	07:23:23	0	0	4,745326	3,207	14,6556	-0,379	85,578	0	1011,78	6,2	8,2	8,2	1	1	1	1	1	1	1	1	1	0	1	-0	273,426889	316,918758	0
15.01.2021	07:23:24	0	0	4,406374	2,8935	15,0372	-0,385	85,56	0	1011,72	6,2	8,2	8,2	1	1	1	1	1	1	1	1	1	0	1	-4,298802	273,597687	313,412559	0
15.01.2021	07:23:25	0	0	3,276535	2,91225	10,7712	-0,375	85,586	0	1011,9	6,2	8,2	8,2	1	1	1	1	1	1	1	1	1	0	1	-4,721635	273,565728	312,841305	0
15.01.2021	07:23:26	0	0	3,954438	3,00075	13,1796	-0,379	85,564	0	1011,86	6,2	8,2	8,2	1	1	1	1	1	1	1	1	1	0	1	-3,382664	273,449959	313,643067	0
15.01.2021	07:23:27	0	0	4,745326	3,042	8,9928	-0,377	85,584	0	1011,84	6,2	8,4	8,2	1	1	1	1	1	1	1	1	1	0	1	-5,990134	273,572987	311,606512	0
15.01.2021	07:23:28	0	0	2,824599	3,13575	11,8224	-0,374	85,584	0	1011,78	6,2	8,2	8,2	1	1	1	1	1	1	1	1	1	0	1	-5,003524	273,494737	312,229911	0
15.01.2021	07:23:29	0	0	3,050548	3,135	6,8328	-0,377	85,582	0	1011,74	6,2	8,2	8,3	1	1	1	1	1	1	1	1	1	0	1	-7,047216	273,46728	310,058846	0
15.01.2021	07:23:30	0	0	4,85831	3,15825	15,0372	-0,384	85,591	0	1011,64	6,2	8,2	8,2	1	1	1	1	1	1	1	1	1	0	1	-5,708245	273,546868	311,767131	0
15.01.2021	07:23:31	0	0	4,067422	3,0015	22,4784	-0,379	85,586	0	1011,84	6,2	8,2	8,2	1	1	1	1	1	1	1	1	1	0	1	-6,20155	273,445632	310,804111	0
15.01.2021	07:23:32	0	0	4,29339	2,823	17,6904	-0,375	85,592	0	1011,7	6,2	8,2	8,2	1	1	1	1	1	1	1	1	1	0	1	-8,315715	273,541069	309,132739	0
15.01.2021	07:23:33	0	0	4,519358	2,718	17,6904	-0,384	85,581	0	1011,76	6,2	8,2	8,2	1	1	1	1	1	1	1	1	1	0	1	-5,073996	273,449959	311,951735	0
15.01.2021	07:23:34	0	0	4,745326	2,733	10,0548	-0,378	85,589	0	1011,78	6,2	8,2	8,2	1	1	1	1	1	1	1	1	1	0	1	-4,016913	273,481726	313,15616	0
15.01.2021	07:23:35	0	0	4,406374	2,73375	13,1796	-0,373	85,586	0	1011,7	6,2	8,2	8,2	1	1	1	1	1	1	1	1	1	0	1	-3,382664	273,434096	313,569506	0
15.01.2021	07:23:36	0	0	4,632342	2,712	13,1652	-0,378	85,584	0	1011,86	6,1	8,4	8,2	1	1	1	1	1	1	1	1	1	0	1	-12,473573	273,429772	304,458548	0
15.01.2021	07:23:37	0	0	3,050567	2,75175	16,4772	-0,38	85,581	0	1011,76	6,2	8,2	8,2	1	1	1	1	1	1	1	1	1	0	1	-4,862579	273,551219	312,632994	0
15.01.2021	07:23:38	0	0	2,485647	2,7135	17,2368	-0,37	85,585	0	1011,78	6,2	8,2	8,2	1	1	1	1	1	1	1	1	1	0	1	-8,597604	273,455731	308,454894	0
15.01.2021	07:23:39	0	0	2,598631	2,64075	17,2296	-0,376	85,587	0	1011,8	6,2	8,2	8,2	1	1	1	1	1	1	1	1	1	0	1	-5,073996	273,460061	311,998585	0
15.01.2021	07:23:40	0	0	4,519358	2,6595	13,8672	-0,378	85,591	0	1011,84	6,2	8,2	8,2	1	1	1	1	1	1	1	1	1	0	1	-9,513742	273,464392	307,578926	0
15.01.2021	07:23:41	0	0	2,711615	2,757	14,6556	-0,377	85,565	0	1011,78	6,2	8,2	8,2	1	1	1	1	1	1	1	1	1	0	1	-5,144468	273,439863	311,834443	0
15.01.2021	07:23:42	0	0	3,502503	2,72025	13,1544	-0,377	85,58	0	1011,92	6,2	8,2	8,2	1	1	1	1	1	1	1	1	1	0	1	-5,990134	273,543968	311,47178	0
15.01.2021	07:23:43	0	0	2,485647	2,7375	22,8348	-0,375	85,588	0	1011,78	6,2	8,2	8,2	1	1	1	1	1	1	1	1	1	0	1	-4,862579	273,581701	312,774534	0
15.01.2021	07:23:44	0	0	3,050567	2,76225	12,8628	-0,38	85,587	0	1011,78	6,2	8,2	8,2	1	1	1	1	1	1	1	1	1	0	1	-5,144468	273,432654	311,801019	0
15.01.2021	07:23:45	0	0	2,711615	2,74875	15,7752	-0,377	85,59	0	1011,86	6,2	8,2	8,2	1	1	1	1	1	1	1	1	1	0	1	-5,285412	273,559923	312,250574	0
15.01.2021	07:23:46	0	0	4,519358	2,89875	3,042	-0,374	85,591	0	1011,88	6,2	8,2	8,2	1	1	1	1	1	1	1	1	1	0	1	-8,879493	273,436979	308,086047	0
15.01.2021	07:23:47	0	0	4,067422	3,12975	0,8604	-0,378	85,593	0	1011,9	6,2	8,2	8,2	1	1	1	1	1	1	1	1	1	0	1	-4,439746	273,591872	313,244607	0
15.01.2021	07:23:48	0	0	3,276535	3,1455	11,7216	-0,386	85,589	0	1011,74	6,2	8,2	8,2	1	1	1	1	1	1	1	1	1	0	1	-3,664553	273,541069	313,783902	0
15.01.2021	07:23:49	0	0	3,615487	3,00225	2,6568	-0,374	85,585	0	1011,72	6,2	8,2	8,2	1	1	1	1	1	1	1	1	1	0	1	-6,553911	273,448517	310,465129	0
15.01.2021	07:23:50	0	0	3,954438	2,7825	0,486	-0,38	85,582	0	1011,78	6,2	8,2	8,2	1	1	1	1	1	1	1	1	1	0	1	-6,976744	273,507757	310,317101	0
15.01.2021	07:23:51	0	0	4,632342	2,87325	5,2164	-0,376	85,596	0	1011,92	6,2	8,2	8,2	1	1	1	1	1	1	1	1	1	0	1	-0	273,441305	316,985598	0
15.01.2021	07:23:52	0	0	3,163551	2,97525	6,8148	-0,372	85,581	0	1011,8	6,1	8,2	8,2	1	1	1	1	1	1	1	1	1	0	1	-4,087385	273,442747	312,9049	0
15.01.2021	07:23:53	0	0	5,084278	2,96475	15,7896	-0,377	85,571	0	1011,78	6,2	8,2	8,2	1	1	1	1	1	1	1	1	1	0	1	-2,959831	273,586059	314,697524	0
15.01.2021	07:23:54	0	0	3,163551	2,85525	3,0348	-0,376	85,577	0	1011,76	6,2	8,2	8,2	1	1	1	1	1	1	1	1	1	0	1	-0,98661	273,494737	316,246824	0
15.01.2021	07:23:55	0	0	2,711615	2,811	12,4596	-0,375	85,591	0	1011,72	6,2	8,2	8,2	1	1	1	1	1	1	1	1	1	0	1	-0,98661	273,596233	316,717998	0
15.01.2021	07:23:56	0	0	3,276535	2,70675	14,2992	-0,38	85,575	0	1011,82	6,2	8,2	8,2	1	1	1	1	1	1	1	1	1	0	1	-3,453136	273,46728	313,652927	0
15.01.2021	07:23:57	0	0	4,632342	2,76825	6,0696	-0,378	85,581	0	1011,58	6,1	8,2	8,2	1	1	1	1	1	1	1	1	1	0	1	-1,691332	273,559923	315,844654	0
15.01.2021	07:23:58	0	0	4,85831	2,742	9,756	-0,382	85,572	0	1011,82	6,2	8,2	8,2	1	1	1	1	1	1	1	1	1	0	1	-3,59408	273,460061	313,4785	0
15.01.2021	07:23:59	0	0	4,406374	2,79075	1,5624	-0,376	85,586	0	1011,94	6,2	8,2	8,2	1	1	1	1	1	1	1	1	1	0	1	-11,205074	273,532373	306,203016	0
15.01.2021	07:24:00	0	0	2,937583	2,6985	6,0516	-0,378	85,588	0	1011,96	6,2	8,2	8,2	1	1	1	1	1	1	1	1	1	0	1	-3,664553	273,473057	313,468307	0
15.01.2021	07:24:01	0	0	2,937583	2,6985	6,0516	-0,378	85,588	0	1011,96	6,2	8,2	8,2	1	1	1	1	1	1	1	1	1	0	1	-3,664553	273,473057	313,468307	0
15.01.2021	07:24:02	0	0	4,745326	2,691	11,2032	-0,382	85,586	0	1011,78	6,2	8,2	8,2	1	1	1	1	1	1	1	1	1	0	1	-5,919662	273,447074	311,092689	0
15.01.2021	07:24:03	0	0	4,067422	2,69475	8,262	-0,38	85,579	0	1011,76	6,2	8,2	8,2	1	1	1	1	1	1	1	1	1	0	1	-6,624383	273,600595	311,100486	0
15.01.2021	07:24:04	0	0	3,728471	2,61375	11,7108	-0,378	85,591	0	1011,88	6,2	8,2	8,2	1	1	1	1	1	1	1	1	1	0	1	-4,862579	273,501969	312,404411	0
15.01.2021	07:24:05	0	0	4,406374	2,56875	11,196	-0,374	85,583	0	1011,8	6,2	8,2	8,2	1	1	1	1	1	1	1	1	1	0	1	-3,664553	273,444189	313,33442	0
15.01.2021	07:24:06	0	0	4,632342	2,72025	1,1916	-0,37	85,594	0	1011,84	6,2	8,2	8,2	1	1	1	1	1	1	1	1	1	0	1	-7,329105	273,603503	310,409274	0
15.01.2021	07:24:07	0	0	4,406374	2,79975	10,8252	-0,374	85,596	0	1011,82	6,2	8,2	8,2	1	1	1	1	1	1	1	1	1	0	1	-8,174771	273,575891	309,435361	0
15.01.2021	07:24:08	0	0	3,163551	2,65125	11,718	-0,377	85,589	0	1011,92	6,1	8,2	8,2	1	1	1	1	1	1	1	1	1	0	1	-3,100775	273,415365	313,764555	0
15.01.2021	07:24:09	0	0	4,745326	2,40675	20,3652	-0,377	85,593	0	1011,84	6,2	8,2	8,2	1	1	1	1	1	1	1	1	1	0	1	-8,45666	273,507757	308,837186	0
15.01.2021	07:24:10	0	0	3,050567	2,14875	21,024	-0,375	85,597	0	1011,86	6,2	8,2	8,2	1	1	1	1	1	1	1	1	1	0	1	-8,597604	273,615142	309,194841	0
15.01.2021	07:24:11	0	0	4,519358	2,0385	6,4296	-0,382	85,581	0	1011,82	6,2	8,2	8,2	1	1	1	1	1	1	1	1	1	0	1	-5,073996	273,439863	311,904915	0
15.01.2021	07:24:12	0	0	2,937583	2,14875	5,688	-0,378	85,584	0	1011,76	6,2	8,2	8,2	1	1	1	1	1	1	1	1	1	0	1	-5,778717	273,513546	311,541993	0
15.01.2021	07:24:13	0	0	3,163551	2,20275	3,0312	-0,376	85,575	0	1011,84	6,2	8,2	8,2	1	1	1	1	1	1	1	1	1	0	1	-1,550388	273,441305	315,43521	0
15.01.2021	07:24:14	0	0	4,519358	2,157	360	-0,375	85,582	0	1011,78	6,2	8,2	8,2	1	1	1	1	1	1	1	1	1	0	1	-1,62086	273,574439	315,982529	0
15.01.2021	07:24:15	0	0	5,084278	2,1975	6,4404	-0,384	85,586	0	1011,84	6,2	8,2	8,2	1	1	1	1	1	1	1	1	1	0	1	-5,637773	273,448517	311,381267	0
15.01.2021	07:24:16	0	0	4,745326	2,3505	7,1388	-0,375	85,596	0	1011,72	6,2	8,4	8,2	1	1	1	1	1	1	1	1	1	0	1	-3,664553	273,586059	313,992803	0
15.01.2021	07:24:17	0	0	4,519358	2,54325	4,4604	-0,378	85,597	0	1011,92	6,2	8,2	8,2	1	1	1	1	1	1	1	1	1	0	1	-2,255109	273,480281	314,91126	0
15.01.2021	07:24:18	0	0	4,632342	2,74725	17,2476	-0,38	85,583	0	1011,86	6,2	8,2	8,2	1	1	1	1	1	1	1	1	1	0	1	-4,580691	273,604958	313,164445	0
15.01.2021	07:24:19	0	0	2,711615	2,75475	14,6664	-0,375	85,589	0	1011,9	6,2	8,2	8,2	1	1	1	1	1	1	1	1	1	0	1	-1,973221	273,499076	315,280345	0
15.01.2021	07:24:20	0	0	4,519358	2,673	14,31	-0,376	85,601	0	1011,92	6,2	8,2	8,2	1	1	1	1	1	1	1	1	1	0	1	-6,412967	273,449959	310,612764	0
15.01.2021	07:24:21	0	0	4,519358	2,81625	8,6148	-0,375	85,58	0	1011,84	6,2	8,2	8,2	1	1	1	1	1	1	1	1	1	0	1	-2,396054	273,604958	315,349082	0
15.01.2021	07:24:22	0	0	4,745326	2,99175	11,718	-0,376	85,613	0	1012,1	6,1	8,2	8,2	1	1	1	1	1	1	1	1	1	0	1	-2,748414	273,496183	314,49173	0
15.01.2021	07:24:23	0	0	2,598631	3,05475	1,1772	-0,376	85,588	0	1011,76	6,2	8,2	8,2	1	1	1	1	1	1	1	1	1	0	1	-8,597604	273,612231	309,181321	0
15.01.2021	07:24:24	0	0	4,971294	3,01875	3,7836	-0,38	85,58	0	1011,82	6,2	8,2	8,2	1	1	1	1	1	1	1	1	1	0	1	-7,610994	273,529475	309,783647	0
15.01.2021	07:24:25	0	0	2,711615	2,92125	1,188	-0,375	85,592	0	1011,7	6,2	8,2	8,2	1	1	1	1	1	1	1	1	1	0	1	-2,818887	273,581701	314,818226	0
15.01.2021	07:24:26	0	0	3,954438	3,0465	4,4604	-0,375	85,582	0	1011,64	6,2	8,2	8,2	1	1	1	1	1	1	1	1	1	0	1	-4,510218	273,571535	313,079685	0
15.01.2021	07:24:27	0	0	3,050567	2,94375	25,434	-0,375	85,586	0	1011,76	6,2	8,2	8,2	1	1	1	1	1	1	1	1	1	0	1	-5,708245	273,455731	311,344253	0
15.01.2021	07:24:28	0	0	3,954438	2,69625	17,7012	-0,374	85,601	0	1011,82	6,1	8,2	8,2	1	1	1	1	1	1	1	1	1	0	1	-6,20155	273,594779	311,496306	0
15.01.2021	07:24:29	0	0	3,615487	2,613	9,7416	-0,374	85,596	0	1011,84	6,2	8,2	8,2	1	1	1	1	1	1	1	1	1	0	1	-6,412967	273,600595	311,311902	0
15.01.2021	07:24:30	0	0	3,502503	2,667	10,8288	-0,379	85,57	0	1011,78	6,1	8,2	8,2	1	1	1	1	1	1	1	1	1	0	1	-5,21494	273,483172	311,964837	0
15.01.2021	07:24:31	0	0	2,598631	2,69925	9,7452	-0,376	85,578	0	1011,78	6,2	8,2	8,2	1	1	1	1	1	1	1	1	1	0	1	-4,651163	273,426889	312,267595	0
15.01.2021	07:24:32	0	0	5,084278	2,65425	1,9224	-0,374	85,59	0	1011,82	6,1	8,2	8,2	1	1	1	1	1	1	1	1	1	0	1	-2,536998	273,570083	315,046163	0
15.01.2021	07:24:33	0	0	3,728471	2,5815	4,0932	-0,379	85,592	0	1011,78	6,1	8,2	8,2	1	1	1	1	1	1	1	1	1	0	1	-5,285412	273,483172	311,894365	0
15.01.2021	07:24:34	0	0	4,745326	2,5905	6,0768	-0,375	85,595	0	1011,84	6,1	8,2	8,2	1	1	1	1	1	1	1	1	1	0	1	-3,523608	273,599141	314,194507	0
15.01.2021	07:24:35	0	0	4,632342	2,52375	7,4952	-0,384	85,59	0	1011,72	6,2	8,2	8,2	1	1	1	1	1	1	1	1	1	0	1	-0,211416	273,593326	317,479688	0
15.01.2021	07:24:36	0	0	2,485647	2,44425	3,7836	-0,374	85,576	0	1011,84	6,2	8,2	8,2	1	1	1	1	1	1	1	1	1	0	1	-2,889359	273,551219	314,606215	0
15.01.2021	07:24:37	0	0	3,954438	2,3475	4,86	-0,378	85,594	0	1011,86	6,2	8,4	8,2	1	1	1	1	1	1	1	1	1	0	1	-2,889359	273,599141	314,828756	0
15.01.2021	07:24:38	0	0	2,824599	2,33175	8,3556	-0,377	85,598	0	1011,76	6,2	8,2	8,2	1	1	1	1	1	1	1	1	1	0	1	-2,043693	273,494737	315,189742	0
15.01.2021	07:24:39	0	0	3,389519	2,2935	14,652	-0,37	85,595	0	1011,74	6,2	8,2	8,2	1	1	1	1	1	1	1	1	1	0	1	-4,862579	273,535271	312,558963	0
15.01.2021	07:24:40	0	0	4,29339	2,292	16,1064	-0,379	85,586	0	1011,84	6,2	8,2	8,2	1	1	1	1	1	1	1	1	1	0	1	-2,889359	273,445632	314,116303	0
15.01.2021	07:24:41	0	0	4,180406	2,346	9,3708	-0,378	85,588	0	1011,64	6,2	8,2	8,2	1	1	1	1	1	1	1	1	1	0	1	-5,708245	273,431213	311,230558	0
15.01.2021	07:24:42	0	0	3,728471	2,49075	9,0864	-0,373	85,597	0	1011,8	6,2	8,2	8,2	1	1	1	1	1	1	1	1	1	0	1	-9,513742	273,509204	307,786819	0
15.01.2021	07:24:43	0	0	3,728471	2,649	7,1244	-0,375	85,604	0	1011,8	6,2	8,2	8,2	1	1	1	1	1	1	1	1	1	0	1	-5,919662	273,445632	311,086	0
15.01.2021	07:24:44	0	0	4,180406	2,60175	2,646	-0,376	85,593	0	1011,82	6,2	8,2	8,2	1	1	1	1	1	1	1	1	1	0	1	-6,906272	273,594779	310,791584	0
15.01.2021	07:24:45	0	0	3,502503	2,47125	0,8712	-0,378	85,598	0	1011,74	6,1	8,2	8,2	1	1	1	1	1	1	1	1	1	0	1	-5,990134	273,533822	311,424682	0
15.01.2021	07:24:46	0	0	4,519358	2,3835	6,8076	-0,377	85,597	0	1011,9	6,2	8,2	8,2	1	1	1	1	1	1	1	1	1	0	1	-2,889359	273,575891	314,720773	0
15.01.2021	07:24:47	0	0	3,276535	2,3415	359,514	-0,382	85,589	0	1011,76	6,2	8,2	8,2	1	1	1	1	1	1	1	1	1	0	1	-8,174771	273,464392	308,917897	0
15.01.2021	07:24:48	0	0	4,406374	2,1255	356,2668	-0,379	85,596	0	1011,82	6,2	8,2	8,2	1	1	1	1	1	1	1	1	1	0	1	-7,963354	273,607867	309,795295	0
15.01.2021	07:24:49	0	0	3,276535	1,9485	19,5372	-0,386	85,579	0	1011,82	6,2	8,2	8,2	1	1	1	1	1	1	1	1	1	0	1	-5,144468	273,616597	312,654738	0
15.01.2021	07:24:50	0	0	4,29339	1,80525	10,8108	-0,379	85,603	0	1011,76	6,2	8,2	8,2	1	1	1	1	1	1	1	1	1	0	1	-4,510218	273,512098	312,803775	0
15.01.2021	07:24:51	0	0	2,598631	1,92525	7,1244	-0,383	85,596	0	1011,66	6,2	8,2	8,2	1	1	1	1	1	1	1	1	1	0	1	-0,704722	273,610777	317,067444	0
15.01.2021	07:24:52	0	0	4,632342	2,20725	6,8148	-0,376	85,591	0	1011,76	6,2	8,2	8,2	1	1	1	1	1	1	1	1	1	0	1	-5,21494	273,449959	311,810791	0
15.01.2021	07:24:53	0	0	4,29339	2,442	6,9264	-0,378	85,6	0	1011,88	6,2	8,2	8,2	1	1	1	1	1	1	1	1	1	0	1	-7,117689	273,564277	310,438512	0
15.01.2021	07:24:54	0	0	4,632342	2,62875	14,292	-0,376	85,6	0	1011,9	6,2	8,2	8,2	1	1	1	1	1	1	1	1	1	0	1	-6,20155	273,609322	311,563857	0
15.01.2021	07:24:55	0	0	3,728471	2,68875	7,1244	-0,377	85,602	0	1011,72	6,2	8,2	8,2	1	1	1	1	1	1	1	1	1	0	1	-8,80902	273,588966	308,861832	0
15.01.2021	07:24:56	0	0	2,824599	2,8245	9,7524	-0,378	85,586	0	1011,84	6,2	8,2	8,2	1	1	1	1	1	1	1	1	1	0	1	-5,355884	273,542518	312,099299	0
15.01.2021	07:24:57	0	0	4,85831	2,802	3,0204	-0,378	85,589	0	1011,82	6,2	8,2	8,2	1	1	1	1	1	1	1	1	1	0	1	-6,131078	273,439863	310,847833	0
15.01.2021	07:24:58	0	0	2,372663	2,79375	1,1736	-0,383	85,598	0	1011,78	6,2	8,2	8,2	1	1	1	1	1	1	1	1	1	0	1	-4,157858	273,474502	312,981702	0
15.01.2021	07:24:59	0	0	3,276535	2,70225	4,8312	-0,378	85,61	0	1011,96	6,2	8,2	8,2	1	1	1	1	1	1	1	1	1	0	1	-1,62086	273,596233	316,083749	0
15.01.2021	07:25:00	0	0	4,971294	2,30925	3,3984	-0,372	85,618	0	1011,82	6,2	8,2	8,2	1	1	1	1	1	1	1	1	1	0	1	-4,087385	273,480281	313,078984	0
15.01.2021	07:25:01	0	0	4,971294	2,30925	3,3984	-0,372	85,618	0	1011,82	6,2	8,2	8,2	1	1	1	1	1	1	1	1	1	0	1	-4,087385	273,480281	313,078984	0
15.01.2021	07:25:02	0	0	4,632342	2,24175	7,1208	-0,38	85,6	0	1011,82	6,1	8,2	8,2	1	1	1	1	1	1	1	1	1	0	1	-3,382664	273,596233	314,321944	0
15.01.2021	07:25:03	0	0	2,259679	2,32725	8,982	-0,372	85,597	0	1011,82	6,2	8,2	8,2	1	1	1	1	1	1	1	1	1	0	1	-7,610994	273,478836	309,548672	0
15.01.2021	07:25:04	0	0	3,163551	2,42775	13,5432	-0,373	85,6	0	1011,74	6,2	8,2	8,2	1	1	1	1	1	1	1	1	1	0	1	-3,875969	273,431213	313,062834	0
15.01.2021	07:25:05	0	0	3,389519	2,4075	8,2692	-0,377	85,6	0	1011,82	6,2	8,2	8,2	1	1	1	1	1	1	1	1	1	0	1	-4,580691	273,574439	313,022698	0
15.01.2021	07:25:06	0	0	4,85831	2,34975	2,3004	-0,376	85,588	0	1011,78	6,2	8,2	8,2	1	1	1	1	1	1	1	1	1	0	1	-5,637773	273,230477	310,37135	0
15.01.2021	07:25:07	0	0	3,615487	2,379	0,126	-0,375	85,594	0	1011,9	6,2	8,2	8,2	1	1	1	1	1	1	1	1	1	0	1	-3,664553	273,616597	314,134653	0
15.01.2021	07:25:08	0	0	4,519358	2,43825	4,842	-0,376	85,588	0	1011,86	6,2	8,2	8,2	1	1	1	1	1	1	1	1	1	0	1	-3,312192	273,584606	314,338415	0
15.01.2021	07:25:09	0	0	3,276535	2,448	0,5076	-0,371	85,599	0	1011,7	6,1	8,2	8,2	1	1	1	1	1	1	1	1	1	0	1	-6,272023	273,542518	311,183161	0
15.01.2021	07:25:10	0	0	3,163551	2,49525	2,304	-0,374	85,597	0	1011,86	6,2	8,2	8,2	1	1	1	1	1	1	1	1	1	0	1	-0,845666	273,432654	316,099821	0
15.01.2021	07:25:11	0	0	4,745326	2,53425	3,492	-0,374	85,597	0	1011,86	6,2	8,2	8,2	1	1	1	1	1	1	1	1	1	0	1	-5,567301	273,545418	311,901344	0
15.01.2021	07:25:12	0	0	3,615487	2,43675	7,5024	-0,376	85,595	0	1011,9	6,2	8,2	8,2	1	1	1	1	1	1	1	1	1	0	1	-0,211416	273,602049	317,520207	0
15.01.2021	07:25:13	0	0	3,728471	2,307	3,78	-0,376	85,602	0	1011,9	6,2	8,2	8,2	1	1	1	1	1	1	1	1	1	0	1	-2,889359	273,468724	314,223402	0
15.01.2021	07:25:14	0	0	4,971294	2,16525	13,914	-0,365	85,602	0	1011,88	6,2	8,2	8,2	1	1	1	1	1	1	1	1	1	0	1	-9,936575	273,512098	307,377418	0
15.01.2021	07:25:15	0	0	3,502503	2,13675	357,6852	-0,375	85,594	0	1011,9	6,2	8,2	8,2	1	1	1	1	1	1	1	1	1	0	1	-4,862579	273,604958	312,882556	0
15.01.2021	07:25:16	0	0	2,598631	2,13525	0,504	-0,378	85,588	0	1011,84	6,2	8,2	8,2	1	1	1	1	1	1	1	1	1	0	1	-3,523608	273,468724	313,589153	0
15.01.2021	07:25:17	0	0	3,502503	2,12925	355,0212	-0,373	85,596	0	1011,86	6,2	8,2	8,2	1	1	1	1	1	1	1	1	1	0	1	-2,255109	273,53672	315,17316	0
15.01.2021	07:25:18	0	0	4,067422	2,25675	15,3936	-0,374	85,594	0	1011,84	6,2	8,2	8,2	1	1	1	1	1	1	1	1	1	0	1	-7,047216	273,429772	309,884905	0
15.01.2021	07:25:19	0	0	4,745326	2,39025	6,4476	-0,376	85,593	0	1011,7	6,2	8,2	8,2	1	1	1	1	1	1	1	1	1	0	1	-6,483439	273,452845	310,555674	0
15.01.2021	07:25:20	0	0	2,711615	2,529	19,8828	-0,379	85,602	0	1011,86	6,2	8,2	8,2	1	1	1	1	1	1	1	1	1	0	1	-0,211416	273,509204	317,089144	0
15.01.2021	07:25:21	0	0	4,85831	2,346	3,7728	-0,386	85,599	0	1011,76	6,2	8,2	8,2	1	1	1	1	1	1	1	1	1	0	1	-5,355884	273,462949	311,730087	0
15.01.2021	07:25:22	0	0	4,745326	2,382	6,822	-0,376	85,604	0	1011,78	6,1	8,2	8,2	1	1	1	1	1	1	1	1	1	0	1	-7,82241	273,618052	309,983557	0
15.01.2021	07:25:23	0	0	3,615487	2,4915	3,3948	-0,376	85,609	0	1011,8	6,2	8,2	8,2	1	1	1	1	1	1	1	1	1	0	1	-6,20155	273,557021	311,320962	0
15.01.2021	07:25:24	0	0	3,502503	2,598	13,5396	-0,375	85,605	0	1011,92	6,2	8,2	8,2	1	1	1	1	1	1	1	1	1	0	1	-4,792107	273,413924	312,066547	0
15.01.2021	07:25:25	0	0	3,728471	2,53275	16,8444	-0,39	85,6	0	1011,78	6,1	8,2	8,2	1	1	1	1	1	1	1	1	1	0	1	-5,990134	273,516441	311,344013	0
15.01.2021	07:25:26	0	0	3,615487	2,56875	8,2728	-0,373	85,586	0	1011,8	6,2	8,2	8,2	1	1	1	1	1	1	1	1	1	0	1	-1,691332	273,445632	315,31433	0
15.01.2021	07:25:27	0	0	4,29339	2,6715	4,464	-0,378	85,609	0	1011,82	6,2	8,2	8,2	1	1	1	1	1	1	1	1	1	0	1	-1,761804	273,622419	316,064452	0
15.01.2021	07:25:28	0	0	4,519358	2,832	15,7932	-0,379	85,6	0	1011,8	6,2	8,2	8,2	1	1	1	1	1	1	1	1	1	0	1	-5,708245	273,530924	311,69312	0
15.01.2021	07:25:29	0	0	3,050567	3,0435	7,8876	-0,375	85,608	0	1011,94	6,2	8,2	8,2	1	1	1	1	1	1	1	1	1	0	1	-1,127555	273,473057	316,005305	0
15.01.2021	07:25:30	0	0	3,276535	2,96925	4,086	-0,373	85,601	0	1011,66	6,2	8,2	8,2	1	1	1	1	1	1	1	1	1	0	1	-1,973221	273,422567	314,925497	0
15.01.2021	07:25:31	0	0	4,180406	3,021	2,3148	-0,382	85,599	0	1011,8	6,2	8,2	8,2	1	1	1	1	1	1	1	1	1	0	1	-5,073996	273,448517	311,945045	0
15.01.2021	07:25:32	0	0	4,519358	3,228	13,1652	-0,381	85,594	0	1011,64	6,2	8,2	8,2	1	1	1	1	1	1	1	1	1	0	1	-1,550388	273,610777	316,221778	0
15.01.2021	07:25:33	0	0	2,937583	3,27675	11,7216	-0,377	85,606	0	1011,72	6,2	8,2	8,2	1	1	1	1	1	1	1	1	1	0	1	-4,510218	273,513546	312,810492	0
15.01.2021	07:25:34	0	0	2,937583	3,24	10,0692	-0,377	85,6	0	1012	6,2	8,4	8,2	1	1	1	1	1	1	1	1	1	0	1	-1,198027	273,42833	315,727412	0
15.01.2021	07:25:35	0	0	2,485647	3,03975	12,4596	-0,373	85,605	0	1011,78	6,2	8,2	8,2	1	1	1	1	1	1	1	1	1	0	1	-6,906272	273,462949	310,179699	0
15.01.2021	07:25:36	0	0	3,276535	2,958	3,7836	-0,377	85,604	0	1011,54	6,2	8,2	8,2	1	1	1	1	1	1	1	1	1	0	1	-7,188161	273,599141	310,529954	0
15.01.2021	07:25:37	0	0	4,745326	2,8125	2,2752	-0,386	85,603	0	1011,74	6,2	8,2	8,2	1	1	1	1	1	1	1	1	1	0	1	-8,245243	273,571535	309,34466	0
15.01.2021	07:25:38	0	0	4,180406	2,68275	4,1076	-0,374	85,598	0	1011,78	6,2	8,2	8,2	1	1	1	1	1	1	1	1	1	0	1	-2,748414	273,487508	314,45148	0
15.01.2021	07:25:39	0	0	4,632342	2,592	15,4152	-0,371	85,62	0	1011,86	6,2	8,2	8,2	1	1	1	1	1	1	1	1	1	0	1	-4,369274	273,606412	313,382618	0
15.01.2021	07:25:40	0	0	2,711615	2,493	13,9212	-0,378	85,597	0	1011,78	6,2	8,2	8,2	1	1	1	1	1	1	1	1	1	0	1	-5,144468	273,473057	311,988391	0
15.01.2021	07:25:41	0	0	4,519358	2,4375	3,78	-0,38	85,599	0	1011,74	6,2	8,2	8,2	1	1	1	1	1	1	1	1	1	0	1	-5,285412	273,535271	312,13613	0
15.01.2021	07:25:42	0	0	5,084278	2,403	9,4428	-0,376	85,601	0	1011,84	6,2	8,2	8,2	1	1	1	1	1	1	1	1	1	0	1	-9,231853	273,593326	308,459251	0
15.01.2021	07:25:43	0	0	4,180406	2,25075	0,4896	-0,379	85,592	0	1011,96	6,2	8,2	8,2	1	1	1	1	1	1	1	1	1	0	1	-4,369274	273,552669	313,133033	0
15.01.2021	07:25:44	0	0	5,197262	2,06175	357,2172	-0,383	85,598	0	1011,82	6,2	8,2	8,2	1	1	1	1	1	1	1	1	1	0	1	-5,778717	273,449959	311,247013	0
15.01.2021	07:25:45	0	0	2,485647	1,98675	360	-0,375	85,595	0	1011,9	6,2	8,2	8,2	1	1	1	1	1	1	1	1	1	0	1	-4,087385	273,599141	313,630729	0
15.01.2021	07:25:46	0	0	4,180406	2,09625	12,5028	-0,379	85,594	0	1011,7	6,2	8,2	8,2	1	1	1	1	1	1	1	1	1	0	1	-3,312192	273,55557	314,203585	0
15.01.2021	07:25:47	0	0	2,824599	2,08275	6,4368	-0,376	85,592	0	1011,76	6,2	8,2	8,2	1	1	1	1	1	1	1	1	1	0	1	-2,043693	273,593326	315,647412	0
15.01.2021	07:25:48	0	0	4,745326	2,04075	9,738	-0,371	85,6	0	1011,78	6,2	8,2	8,2	1	1	1	1	1	1	1	1	1	0	1	-2,60747	273,454288	314,438335	0
15.01.2021	07:25:49	0	0	2,937583	2,00325	4,1004	-0,378	85,607	0	1011,84	6,2	8,2	8,2	1	1	1	1	1	1	1	1	1	0	1	-7,82241	273,526578	309,558783	0
15.01.2021	07:25:50	0	0	3,389519	1,95825	27,9864	-0,374	85,609	0	1011,88	6,2	8,2	8,2	1	1	1	1	1	1	1	1	1	0	1	-9,302326	273,460061	307,770255	0
15.01.2021	07:25:51	0	0	3,728471	1,87125	355,752	-0,377	85,601	0	1011,82	6,2	8,2	8,2	1	1	1	1	1	1	1	1	1	0	1	-4,721635	273,461505	312,357641	0
15.01.2021	07:25:52	0	0	2,485647	1,905	16,1028	-0,376	85,606	0	1011,82	6,2	8,2	8,2	1	1	1	1	1	1	1	1	1	0	1	-4,298802	273,578796	313,324819	0
15.01.2021	07:25:53	0	0	2,824599	2,0205	11,7216	-0,378	85,599	0	1011,78	6,2	8,2	8,2	1	1	1	1	1	1	1	1	1	0	1	-4,862579	273,429772	312,069542	0
15.01.2021	07:25:54	0	0	5,084278	1,9605	12,0852	-0,383	85,598	0	1011,86	6,1	8,2	8,2	1	1	1	1	1	1	1	1	1	0	1	-5,919662	273,486062	311,273526	0
15.01.2021	07:25:55	0	0	3,502503	1,94475	23,2308	-0,378	85,612	0	1011,84	6,2	8,2	8,2	1	1	1	1	1	1	1	1	1	0	1	-3,664553	273,445632	313,341109	0
15.01.2021	07:25:56	0	0	2,824599	1,9005	9,3672	-0,373	85,596	0	1011,78	6,2	8,2	8,2	1	1	1	1	1	1	1	1	1	0	1	-4,721635	273,600595	313,003234	0
15.01.2021	07:25:57	0	0	3,502503	1,90725	10,4364	-0,38	85,604	0	1011,7	6,2	8,2	8,2	1	1	1	1	1	1	1	1	1	0	1	-4,862579	273,486062	312,330609	0
15.01.2021	07:25:58	0	0	4,180406	2,058	357,5844	-0,38	85,605	0	1011,74	6,2	8,2	8,2	1	1	1	1	1	1	1	1	1	0	1	-6,765328	273,552669	310,73698	0
15.01.2021	07:25:59	0	0	3,163551	2,27025	12,0996	-0,378	85,597	0	1011,88	6,2	8,2	8,2	1	1	1	1	1	1	1	1	1	0	1	-0,352361	273,612231	317,426564	0
15.01.2021	07:26:00	0	0	2,711615	2,26275	4,0788	-0,384	85,588	0	1011,86	6,2	8,4	8,2	1	1	1	1	1	1	1	1	1	0	1	-3,030303	273,56718	314,539376	0
15.01.2021	07:26:01	0	0	4,067422	2,217	8,2548	-0,378	85,582	0	1011,9	6,1	8,2	8,2	1	1	1	1	1	1	1	1	1	0	1	-3,030303	273,56718	314,539376	0
15.01.2021	07:26:02	0	0	4,067422	2,217	8,2548	-0,378	85,582	0	1011,9	6,1	8,2	8,2	1	1	1	1	1	1	1	1	1	0	1	-6,624383	273,610777	311,147782	0
15.01.2021	07:26:03	0	0	3,389519	2,1495	349,4628	-0,38	85,595	0	1011,74	6,2	8,2	8,2	1	1	1	1	1	1	1	1	1	0	1	-3,664553	273,513546	313,656158	0
15.01.2021	07:26:04	0	0	3,276535	2,0085	10,4616	-0,377	85,614	0	1011,96	6,2	8,2	8,2	1	1	1	1	1	1	1	1	1	0	1	-4,157858	273,590419	313,519745	0
15.01.2021	07:26:05	0	0	3,502503	1,992	7,506	-0,375	85,611	0	1011,76	6,2	8,2	8,2	1	1	1	1	1	1	1	1	1	0	1	-9,090909	273,545418	308,377736	0
15.01.2021	07:26:06	0	0	4,406374	2,2815	357,2424	-0,389	85,604	0	1011,68	6,2	8,2	8,2	1	1	1	1	1	1	1	1	1	0	1	-3,946441	273,451402	313,085981	0
15.01.2021	07:26:07	0	0	4,29339	2,6625	7,5168	-0,379	85,611	0	1011,82	6,2	8,2	8,2	1	1	1	1	1	1	1	1	1	0	1	-6,20155	273,571535	311,388353	0
15.01.2021	07:26:08	0	0	3,841454	2,96025	14,3028	-0,377	85,612	0	1011,96	6,2	8,2	8,2	1	1	1	1	1	1	1	1	1	0	1	-6,976744	273,513546	310,343966	0
15.01.2021	07:26:09	0	0	4,406374	3,042	14,2884	-0,382	85,612	0	1011,86	6,2	8,2	8,2	1	1	1	1	1	1	1	1	1	0	1	-3,735025	273,609322	314,030382	0
15.01.2021	07:26:10	0	0	4,406374	3,06675	10,44	-0,376	85,593	0	1011,78	6,2	8,2	8,2	1	1	1	1	1	1	1	1	1	0	1	-3,59408	273,503416	313,679622	0
15.01.2021	07:26:11	0	0	3,954438	3,05625	8,9928	-0,378	85,609	0	1011,78	6,2	8,4	8,2	1	1	1	1	1	1	1	1	1	0	1	-2,677942	273,451402	314,35448	0
15.01.2021	07:26:12	0	0	3,954438	3,00675	2,1168	-0,372	85,609	0	1011,86	6,2	8,2	8,2	1	1	1	1	1	1	1	1	1	0	1	-6,20155	273,507757	311,092295	0
15.01.2021	07:26:13	0	0	3,050567	2,9805	13,1508	-0,379	85,614	0	1011,88	6,2	8,2	8,2	1	1	1	1	1	1	1	1	1	0	1	-4,439746	273,612231	313,339178	0
15.01.2021	07:26:14	0	0	3,163551	2,88	8,244	-0,378	85,607	0	1011,78	6,2	8,2	8,2	1	1	1	1	1	1	1	1	1	0	1	-1,832276	273,484617	315,354206	0
15.01.2021	07:26:15	0	0	2,937583	2,736	19,998	-0,37	85,64	0	1011,92	6,2	8,2	8,2	1	1	1	1	1	1	1	1	1	0	1	-6,976744	273,594779	310,721112	0
15.01.2021	07:26:16	0	0	4,29339	2,60625	11,7036	-0,379	85,61	0	1011,82	6,2	8,2	8,2	1	1	1	1	1	1	1	1	1	0	1	-3,030303	273,594779	314,667553	0
15.01.2021	07:26:17	0	0	3,276535	2,5995	11,1888	-0,374	85,62	0	1011,86	6,2	8,2	8,2	1	1	1	1	1	1	1	1	1	0	1	-7,258633	273,549768	310,230208	0
15.01.2021	07:26:18	0	0	2,485647	2,55375	6,0552	-0,378	85,612	0	1011,8	6,2	8,2	8,2	1	1	1	1	1	1	1	1	1	0	1	-8,174771	273,594779	309,523085	0
15.01.2021	07:26:19	0	0	4,180406	2,45775	17,7012	-0,374	85,607	0	1011,76	6,2	8,2	8,2	1	1	1	1	1	1	1	1	1	0	1	-10,711769	273,586059	306,945586	0
15.01.2021	07:26:20	0	0	4,067422	2,34	6,066	-0,383	85,611	0	1011,8	6,2	8,2	8,2	1	1	1	1	1	1	1	1	1	0	1	-3,735025	273,543968	313,726889	0
15.01.2021	07:26:21	0	0	4,971294	2,4135	13,1652	-0,379	85,61	0	1011,86	6,2	8,2	8,2	1	1	1	1	1	1	1	1	1	0	1	-1,62086	273,480281	315,545509	0
15.01.2021	07:26:22	0	0	3,276535	2,44275	19,1232	-0,379	85,62	0	1011,84	6,2	8,2	8,2	1	1	1	1	1	1	1	1	1	0	1	-5,567301	273,583154	312,076559	0
15.01.2021	07:26:23	0	0	4,632342	2,48025	6,822	-0,375	85,603	0	1011,88	6,2	8,2	8,2	1	1	1	1	1	1	1	1	1	0	1	-5,285412	273,557021	312,2371	0
15.01.2021	07:26:24	0	0	4,406374	2,49825	8,5968	-0,376	85,62	0	1011,82	6,2	8,2	8,2	1	1	1	1	1	1	1	1	1	0	1	-2,677942	273,449959	314,347789	0
15.01.2021	07:26:25	0	0	4,632342	2,62575	8,6112	-0,372	85,627	0	1011,8	6,2	8,2	8,2	1	1	1	1	1	1	1	1	1	0	1	-6,20155	273,578796	311,422071	0
15.01.2021	07:26:26	0	0	3,050567	2,8665	14,3064	-0,379	85,621	0	1011,88	6,1	8,2	8,2	1	1	1	1	1	1	1	1	1	0	1	-5,144468	273,490399	312,06884	0
15.01.2021	07:26:27	0	0	3,163551	3,02625	8,622	-0,375	85,619	0	1011,76	6,2	8,2	8,2	1	1	1	1	1	1	1	1	1	0	1	-3,664553	273,578796	313,959069	0
15.01.2021	07:26:28	0	0	2,598631	3,20175	12,4668	-0,382	85,607	0	1011,74	6,2	8,4	8,2	1	1	1	1	1	1	1	1	1	0	1	-5,567301	273,478836	311,592365	0
15.01.2021	07:26:29	0	0	3,841454	3,27225	10,4508	-0,382	85,597	0	1011,76	6,2	8,2	8,2	1	1	1	1	1	1	1	1	1	0	1	-3,946441	273,562825	313,60302	0
15.01.2021	07:26:30	0	0	4,745326	3,129	20,2896	-0,373	85,612	0	1011,88	6,2	8,2	8,2	1	1	1	1	1	1	1	1	1	0	1	-1,127555	273,442747	315,86473	0
15.01.2021	07:26:31	0	0	3,050567	3,036	12,0852	-0,377	85,604	0	1011,96	6,2	8,2	8,2	1	1	1	1	1	1	1	1	1	0	1	-5,003524	273,471613	312,122636	0
15.01.2021	07:26:32	0	0	2,824599	2,9625	17,694	-0,371	85,61	0	1011,86	6,2	8,2	8,2	1	1	1	1	1	1	1	1	1	0	1	-4,298802	273,56718	313,270877	0
15.01.2021	07:26:33	0	0	3,954438	2,99925	15,012	-0,378	85,613	0	1011,8	6,2	8,2	8,2	1	1	1	1	1	1	1	1	1	0	1	-1,691332	273,594779	316,006524	0
15.01.2021	07:26:34	0	0	2,824599	3,105	15,408	-0,377	85,604	0	1011,88	6,2	8,2	8,2	1	1	1	1	1	1	1	1	1	0	1	-6,553911	273,49763	310,692943	0
15.01.2021	07:26:35	0	0	3,841454	3,09375	17,7192	-0,378	85,614	0	1011,92	6,1	8,2	8,2	1	1	1	1	1	1	1	1	1	0	1	-5,003524	273,455731	312,048975	0
15.01.2021	07:26:36	0	0	3,502524	3,13125	2,6532	-0,375	85,618	0	1011,8	6,2	8,2	8,1	1	1	1	1	1	1	1	1	1	0	1	-0,634249	273,496183	316,605895	0
15.01.2021	07:26:37	0	0	4,632342	3,22425	12,8484	-0,376	85,591	0	1011,94	6,2	8,2	8,2	1	1	1	1	1	1	1	1	1	0	1	-5,426357	273,602049	312,305267	0
15.01.2021	07:26:38	0	0	3,841454	3,20925	9,378	-0,382	85,603	0	1011,72	6,2	8,2	8,2	1	1	1	1	1	1	1	1	1	0	1	-4,439746	273,583154	313,204113	0
15.01.2021	07:26:39	0	0	3,841454	3,03975	3,4056	-0,372	85,62	0	1011,94	6,2	8,4	8,2	1	1	1	1	1	1	1	1	1	0	1	-6,412967	273,574439	311,190422	0
15.01.2021	07:26:40	0	0	2,711615	2,88	18,4464	-0,378	85,605	0	1011,86	6,2	8,2	8,2	1	1	1	1	1	1	1	1	1	0	1	-5,990134	273,613686	311,79555	0
15.01.2021	07:26:41	0	0	2,824599	2,80125	15,7824	-0,373	85,621	0	1011,86	6,2	8,2	8,2	1	1	1	1	1	1	1	1	1	0	1	-5,073996	273,484617	312,112486	0
15.01.2021	07:26:42	0	0	3,728471	2,97375	7,5096	-0,378	85,603	0	1011,88	6,2	8,2	8,2	1	1	1	1	1	1	1	1	1	0	1	-5,355884	273,542518	312,099299	0
15.01.2021	07:26:43	0	0	4,519358	3,018	11,196	-0,374	85,61	0	1011,84	6,2	8,2	8,2	1	1	1	1	1	1	1	1	1	0	1	-7,188161	273,594779	310,509695	0
15.01.2021	07:26:44	0	0	3,050567	3,0405	16,848	-0,379	85,585	0	1011,82	6,2	8,2	8,2	1	1	1	1	1	1	1	1	1	0	1	-4,580691	273,470169	312,538769	0
15.01.2021	07:26:45	0	0	3,954438	2,90625	5,2164	-0,373	85,6	0	1011,78	6,2	8,2	8,2	1	1	1	1	1	1	1	1	1	0	1	-3,382664	273,425448	313,529413	0
15.01.2021	07:26:46	0	0	2,824599	2,76525	1,1808	-0,375	85,608	0	1011,84	6,2	8,2	8,2	1	1	1	1	1	1	1	1	1	0	1	-0	273,478836	317,159666	0
15.01.2021	07:26:47	0	0	4,406374	2,72925	7,4988	-0,37	85,61	0	1011,88	6,2	8,2	8,2	1	1	1	1	1	1	1	1	1	0	1	-4,792107	273,434096	312,160063	0
15.01.2021	07:26:48	0	0	3,389519	2,787	14,6484	-0,374	85,598	0	1011,82	6,2	8,2	8,2	1	1	1	1	1	1	1	1	1	0	1	-5,144468	273,520785	312,209838	0
15.01.2021	07:26:49	0	0	2,711615	2,74725	15,0336	-0,378	85,586	0	1011,8	6,2	8,2	8,2	1	1	1	1	1	1	1	1	1	0	1	-6,906272	273,604958	310,838863	0
15.01.2021	07:26:50	0	0	4,85831	2,7465	8,2476	-0,375	85,604	0	1011,82	6,1	8,2	8,2	1	1	1	1	1	1	1	1	1	0	1	-6,131078	273,588966	311,539775	0
15.01.2021	07:26:51	0	0	2,824599	2,79825	4,4784	-0,378	85,596	0	1011,86	6,2	8,4	8,2	1	1	1	1	1	1	1	1	1	0	1	-4,016913	273,596233	313,687695	0
15.01.2021	07:26:52	0	0	4,632342	2,814	9,7452	-0,376	85,61	0	1011,66	6,2	8,2	8,2	1	1	1	1	1	1	1	1	1	0	1	-4,721635	273,436979	312,243904	0
15.01.2021	07:26:53	0	0	4,067422	2,6415	357,2856	-0,374	85,595	0	1011,8	6,2	8,2	8,2	1	1	1	1	1	1	1	1	1	0	1	-7,963354	273,546868	309,512022	0
15.01.2021	07:26:54	0	0	2,9376	2,5755	6,0768	-0,374	85,594	0	1011,82	6,2	8,2	8,1	1	1	1	1	1	1	1	1	1	0	1	-3,875969	273,445632	313,129692	0
15.01.2021	07:26:55	0	0	3,615487	2,51925	3,0276	-0,379	85,598	0	1011,82	6,2	8,2	8,2	1	1	1	1	1	1	1	1	1	0	1	-6,20155	273,468724	310,91121	0
15.01.2021	07:26:56	0	0	4,406374	2,9925	12,8412	-0,379	85,577	0	1011,72	6,2	8,2	8,2	1	1	1	1	1	1	1	1	1	0	1	-7,258633	273,590419	310,41897	0
15.01.2021	07:26:57	0	0	2,937583	3,45525	13,9176	-0,378	85,597	0	1011,86	6,2	8,2	8,2	1	1	1	1	1	1	1	1	1	0	1	-4,792107	273,460061	312,280473	0
15.01.2021	07:26:58	0	0	4,85831	3,58125	16,4952	-0,369	85,6	0	1011,88	6,2	8,2	8,2	1	1	1	1	1	1	1	1	1	0	1	-2,325581	273,532373	315,082509	0
15.01.2021	07:26:59	0	0	2,824599	3,72825	22,4712	-0,382	85,591	0	1011,78	6,2	8,2	8,2	1	1	1	1	1	1	1	1	1	0	1	-3,805497	273,444189	313,193476	0
15.01.2021	07:27:00	0	0	2,711615	3,6945	16,0884	-0,383	85,586	0	1011,72	6,2	8,2	8,2	1	1	1	1	1	1	1	1	1	0	1	-2,889359	273,559923	314,646627	0
15.01.2021	07:27:01	0	0	3,502503	3,729	8,6004	-0,382	85,594	0	1011,78	6,2	8,2	8,2	1	1	1	1	1	1	1	1	1	0	1	-7,751938	273,504863	309,528478	0
15.01.2021	07:27:02	0	0	4,632342	3,5655	4,4604	-0,38	85,6	0	1011,96	6,2	8,2	8,2	1	1	1	1	1	1	1	1	1	0	1	-3,523608	273,445632	313,482053	0
15.01.2021	07:27:03	0	0	2,937583	3,519	0	-0,38	85,613	0	1011,84	6,2	8,2	8,2	1	1	1	1	1	1	1	1	1	0	1	-5,144468	273,574439	312,458921	0
15.01.2021	07:27:04	0	0	5,536214	3,52575	359,1072	-0,376	85,592	0	1011,86	6,2	8,4	8,2	1	1	1	1	1	1	1	1	1	0	1	-5,708245	273,606412	312,043647	0
15.01.2021	07:27:05	0	0	4,29339	3,49875	7,4988	-0,38	85,588	0	1011,84	6,2	8,2	8,2	1	1	1	1	1	1	1	1	1	0	1	-8,174771	273,496183	309,065373	0
15.01.2021	07:27:06	0	0	2,711615	3,39225	360	-0,374	85,59	0	1011,86	6,2	8,2	8,2	1	1	1	1	1	1	1	1	1	0	1	-6,20155	273,599141	311,516564	0
15.01.2021	07:27:07	0	0	5,084278	3,28875	354,6252	-0,376	85,591	0	1011,82	6,2	8,2	8,2	1	1	1	1	1	1	1	1	1	0	1	-1,761804	273,546868	315,713572	0
15.01.2021	07:27:08	0	0	3,502503	3,20325	349,4988	-0,372	85,597	0	1011,78	6,2	8,2	8,2	1	1	1	1	1	1	1	1	1	0	1	-2,325581	273,429772	314,60654	0
15.01.2021	07:27:09	0	0	4,745326	3,23175	3,762	-0,378	85,59	0	1011,7	6,2	8,2	8,2	1	1	1	1	1	1	1	1	1	0	1	-3,312192	273,546868	314,163184	0
15.01.2021	07:27:10	0	0	2,711615	3,2745	5,2128	-0,381	85,591	0	1011,74	6,2	8,2	8,2	1	1	1	1	1	1	1	1	1	0	1	-0,775194	273,42833	316,150245	0
15.01.2021	07:27:11	0	0	3,050567	3,4665	11,7036	-0,385	85,576	0	1011,82	6,2	8,2	8,2	1	1	1	1	1	1	1	1	1	0	1	-2,959831	273,475947	314,186431	0
15.01.2021	07:27:12	0	0	4,632342	3,61875	353,5668	-0,378	85,579	0	1011,82	6,2	8,2	8,2	1	1	1	1	1	1	1	1	1	0	1	-5,144468	273,494737	312,088966	0
15.01.2021	07:27:13	0	0	4,632342	3,53775	357,5952	-0,377	85,582	0	1011,84	6,2	8,2	8,2	1	1	1	1	1	1	1	1	1	0	1	-6,412967	273,606412	311,338925	0
15.01.2021	07:27:14	0	0	3,050567	3,24825	348,2892	-0,378	85,588	0	1011,78	6,2	8,2	8,2	1	1	1	1	1	1	1	1	1	0	1	-3,453136	273,50631	313,833994	0
15.01.2021	07:27:15	0	0	3,841454	3,0135	25,7796	-0,382	85,583	0	1011,76	6,2	8,4	8,2	1	1	1	1	1	1	1	1	1	0	1	-2,396054	273,600595	315,328815	0
15.01.2021	07:27:16	0	0	4,406374	2,70825	8,6076	-0,382	85,587	0	1011,8	6,2	8,2	8,2	1	1	1	1	1	1	1	1	1	0	1	-2,255109	273,532373	315,152981	0
15.01.2021	07:27:17	0	0	3,163551	2,7315	3,0096	-0,388	85,586	0	1011,64	6,2	8,2	8,2	1	1	1	1	1	1	1	1	1	0	1	-0	273,435537	316,958854	0
15.01.2021	07:27:18	0	0	3,163551	3,09225	10,8216	-0,378	85,58	0	1011,82	6,2	8,2	8,2	1	1	1	1	1	1	1	1	1	0	1	-1,550388	273,444189	315,448585	0
15.01.2021	07:27:19	0	0	4,406374	3,264	7,5132	-0,387	85,587	0	1011,78	6,2	8,2	8,2	1	1	1	1	1	1	1	1	1	0	1	-5,21494	273,532373	312,19315	0
15.01.2021	07:27:20	0	0	3,389519	3,1005	18,4356	-0,379	85,587	0	1011,88	6,2	8,2	8,2	1	1	1	1	1	1	1	1	1	0	1	-4,087385	273,436979	312,878154	0
15.01.2021	07:27:21	0	0	3,502503	3,21525	32,8896	-0,378	85,562	0	1011,92	6,2	8,2	8,2	1	1	1	1	1	1	1	1	1	0	1	-4,721635	273,500522	312,538643	0
15.01.2021	07:27:22	0	0	3,389519	3,3915	23,688	-0,388	85,578	0	1011,88	6,2	8,2	8,2	1	1	1	1	1	1	1	1	1	0	1	-7,117689	273,610777	310,654477	0
15.01.2021	07:27:23	0	0	4,180406	3,3495	18,4572	-0,38	85,592	0	1011,88	6,2	8,2	8,2	1	1	1	1	1	1	1	1	1	0	1	-7,540521	273,451402	309,4919	0
15.01.2021	07:27:24	0	0	4,632342	3,15825	18,4608	-0,379	85,583	0	1011,72	6,2	8,2	8,2	1	1	1	1	1	1	1	1	1	0	1	-3,382664	273,568631	314,193756	0
15.01.2021	07:27:25	0	0	2,937583	3,03225	29,1132	-0,383	85,585	0	1011,92	6,2	8,2	8,2	1	1	1	1	1	1	1	1	1	0	1	-2,043693	273,587513	315,620411	0
15.01.2021	07:27:26	0	0	2,937583	2,985	19,5336	-0,38	85,586	0	1011,72	6,2	8,2	8,2	1	1	1	1	1	1	1	1	1	0	1	-1,198027	273,470169	315,921433	0
15.01.2021	07:27:27	0	0	3,163551	3,024	11,7144	-0,382	85,584	0	1011,86	6,2	8,2	8,2	1	1	1	1	1	1	1	1	1	0	1	-4,298802	273,55557	313,216975	0
15.01.2021	07:27:28	0	0	2,937583	2,95275	18,0864	-0,378	85,589	0	1011,8	6,2	8,2	8,2	1	1	1	1	1	1	1	1	1	0	1	-5,355884	273,451402	311,676537	0
15.01.2021	07:27:29	0	0	3,276535	2,88	30,3156	-0,381	85,595	0	1011,78	6,2	8,2	8,2	1	1	1	1	1	1	1	1	1	0	1	-0	273,580248	317,630367	0
15.01.2021	07:27:30	0	0	4,519358	2,78925	19,9044	-0,378	85,602	0	1011,84	6,2	8,2	8,2	1	1	1	1	1	1	1	1	1	0	1	-5,84919	273,557021	311,673323	0
15.01.2021	07:27:31	0	0	4,180406	2,55525	21,78	-0,378	85,59	0	1011,86	6,2	8,2	8,2	1	1	1	1	1	1	1	1	1	0	1	-1,691332	273,603503	316,047047	0
15.01.2021	07:27:32	0	0	3,615487	2,47125	14,6484	-0,378	85,594	0	1011,72	6,2	8,2	8,2	1	1	1	1	1	1	1	1	1	0	1	-4,510218	273,541069	312,938236	0
15.01.2021	07:27:33	0	0	3,728471	2,4375	17,6976	-0,374	85,604	0	1011,9	6,2	8,2	8,2	1	1	1	1	1	1	1	1	1	0	1	-2,043693	273,612231	315,735232	0
15.01.2021	07:27:34	0	0	3,841454	2,45625	16,4772	-0,378	85,596	0	1011,8	6,2	8,2	8,2	1	1	1	1	1	1	1	1	1	0	1	-7,681466	273,501969	309,585524	0
15.01.2021	07:27:35	0	0	2,824599	2,484	8,6328	-0,378	85,581	0	1011,78	6,2	8,2	8,2	1	1	1	1	1	1	1	1	1	0	1	-5,708245	273,422567	311,190473	0
15.01.2021	07:27:36	0	0	4,180406	2,436	9,4716	-0,381	85,586	0	1011,9	6,2	8,2	8,2	1	1	1	1	1	1	1	1	1	0	1	-6,765328	273,533822	310,649488	0
15.01.2021	07:27:37	0	0	4,29339	2,334	15,03	-0,381	85,601	0	1011,82	6,2	8,2	8,2	1	1	1	1	1	1	1	1	1	0	1	-4,439746	273,452845	312,599367	0
15.01.2021	07:27:38	0	0	3,050567	2,235	18,8316	-0,376	85,598	0	1011,76	6,2	8,2	8,2	1	1	1	1	1	1	1	1	1	0	1	-2,748414	273,488953	314,458186	0
15.01.2021	07:27:39	0	0	3,841454	2,12925	16,4808	-0,383	85,596	0	1011,82	6,2	8,2	8,2	1	1	1	1	1	1	1	1	1	0	1	-8,879493	273,465836	308,219872	0
15.01.2021	07:27:40	0	0	4,85831	2,13675	24,4368	-0,375	85,593	0	1011,9	6,2	8,2	8,2	1	1	1	1	1	1	1	1	1	0	1	-4,439746	273,597687	313,271615	0
15.01.2021	07:27:41	0	0	4,745326	2,07225	2,664	-0,376	85,59	0	1011,84	6,2	8,2	8,2	1	1	1	1	1	1	1	1	1	0	1	-5,84919	273,549768	311,639651	0
15.01.2021	07:27:42	0	0	3,163551	2,202	12,4632	-0,38	85,587	0	1011,78	6,2	8,2	8,2	1	1	1	1	1	1	1	1	1	0	1	-7,751938	273,594779	309,945918	0
15.01.2021	07:27:43	0	0	3,728471	2,3325	10,5516	-0,376	85,6	0	1011,82	6,2	8,2	8,2	1	1	1	1	1	1	1	1	1	0	1	-1,338971	273,559923	316,197015	0
15.01.2021	07:27:44	0	0	2,937583	2,475	8,2764	-0,375	85,593	0	1011,82	6,2	8,2	8,2	1	1	1	1	1	1	1	1	1	0	1	-5,426357	273,455731	311,626142	0
15.01.2021	07:27:45	0	0	3,728471	2,553	9,7596	-0,377	85,574	0	1011,68	6,2	8,2	8,2	1	1	1	1	1	1	1	1	1	0	1	-1,268499	273,620963	316,550993	0
15.01.2021	07:27:46	0	0	3,728471	2,65725	11,718	-0,374	85,605	0	1011,86	6,2	8,2	8,2	1	1	1	1	1	1	1	1	1	0	1	-6,483439	273,574439	311,119949	0
15.01.2021	07:27:47	0	0	4,067422	2,63775	7,1424	-0,376	85,601	0	1011,88	6,2	8,2	8,2	1	1	1	1	1	1	1	1	1	0	1	-4,22833	273,447074	312,784021	0
15.01.2021	07:27:48	0	0	4,519358	2,799	12,1104	-0,374	85,597	0	1011,96	6,2	8,2	8,2	1	1	1	1	1	1	1	1	1	0	1	-6,272023	273,539619	311,169703	0
15.01.2021	07:27:49	0	0	4,632342	2,88825	0,1404	-0,374	85,605	0	1011,98	6,2	8,2	8,2	1	1	1	1	1	1	1	1	1	0	1	-4,651163	273,413924	312,207491	0
15.01.2021	07:27:50	0	0	3,615487	2,88825	7,8876	-0,381	85,584	0	1011,82	6,2	8,2	8,2	1	1	1	1	1	1	1	1	1	0	1	-0	273,486062	317,193188	0
15.01.2021	07:27:51	0	0	4,745326	2,6835	8,6256	-0,375	85,586	0	1011,98	6,2	8,2	8,2	1	1	1	1	1	1	1	1	1	0	1	-5,990134	273,500522	311,270144	0
15.01.2021	07:27:52	0	0	3,502503	2,5125	23,2128	-0,376	85,592	0	1011,88	6,1	8,2	8,2	1	1	1	1	1	1	1	1	1	0	1	-3,735025	273,436979	313,230515	0
15.01.2021	07:27:53	0	0	3,954438	2,3415	16,1136	-0,38	85,572	0	1011,82	6,2	8,2	8,2	1	1	1	1	1	1	1	1	1	0	1	-2,184637	273,504863	315,095779	0
15.01.2021	07:27:54	0	0	3,954438	2,32275	16,5924	-0,377	85,592	0	1011,82	6,2	8,2	8,2	1	1	1	1	1	1	1	1	1	0	1	-1,973221	273,607867	315,785428	0
15.01.2021	07:27:55	0	0	3,163551	2,3055	19,5228	-0,376	85,591	0	1011,88	6,2	8,2	8,2	1	1	1	1	1	1	1	1	1	0	1	-1,832276	273,618052	315,973691	0
15.01.2021	07:27:56	0	0	2,824599	2,652	18,4608	-0,381	85,595	0	1011,84	6,2	8,2	8,2	1	1	1	1	1	1	1	1	1	0	1	-6,765328	273,493291	310,461397	0
15.01.2021	07:27:57	0	0	3,276535	2,79	22,086	-0,378	85,59	0	1011,84	6,2	8,2	8,2	1	1	1	1	1	1	1	1	1	0	1	-4,157858	273,442747	312,834427	0
15.01.2021	07:27:58	0	0	3,163551	2,877	19,98	-0,381	85,574	0	1011,76	6,2	8,2	8,2	1	1	1	1	1	1	1	1	1	0	1	-4,439746	273,477391	312,713217	0
15.01.2021	07:27:59	0	0	3,841454	2,82075	21,384	-0,383	85,576	0	1011,96	6,2	8,2	8,2	1	1	1	1	1	1	1	1	1	0	1	-3,100775	273,613686	314,684909	0
15.01.2021	07:28:00	0	0	2,711615	2,7345	25,8732	-0,382	85,595	0	1011,76	6,2	8,2	8,2	1	1	1	1	1	1	1	1	1	0	1	-5,355884	273,55557	312,159893	0
15.01.2021	07:28:01	0	0	2,711615	2,7345	25,8732	-0,382	85,595	0	1011,76	6,2	8,2	8,2	1	1	1	1	1	1	1	1	1	0	1	-5,355884	273,55557	312,159893	0
15.01.2021	07:28:02	0	0	3,502503	2,64075	6,4332	-0,377	85,602	0	1011,88	6,2	8,2	8,2	1	1	1	1	1	1	1	1	1	0	1	-6,20155	273,600595	311,523319	0
15.01.2021	07:28:03	0	0	4,745326	2,73375	3,3876	-0,38	85,594	0	1011,84	6,2	8,2	8,2	1	1	1	1	1	1	1	1	1	0	1	-7,188161	273,549768	310,30068	0
15.01.2021	07:28:04	0	0	3,502503	2,7795	3,4056	-0,378	85,604	0	1011,84	6,2	8,2	8,2	1	1	1	1	1	1	1	1	1	0	1	-0	273,432654	316,945487	0
15.01.2021	07:28:05	0	0	3,841454	2,7255	13,1652	-0,384	85,59	0	1011,92	6,2	8,2	8,2	1	1	1	1	1	1	1	1	1	0	1	-8,174771	273,50631	309,112359	0
15.01.2021	07:28:06	0	0	3,276535	2,65575	15,408	-0,374	85,583	0	1011,86	6,2	8,2	8,2	1	1	1	1	1	1	1	1	1	0	1	-5,355884	273,487508	311,84401	0
15.01.2021	07:28:07	0	0	4,29339	2,59275	13,5432	-0,376	85,583	0	1011,82	6,2	8,2	8,2	1	1	1	1	1	1	1	1	1	0	1	-8,033827	273,620963	309,785666	0
15.01.2021	07:28:08	0	0	2,824599	2,7045	15,0372	-0,378	85,597	0	1011,92	6,2	8,2	8,2	1	1	1	1	1	1	1	1	1	0	1	-3,875969	273,533822	313,538847	0
15.01.2021	07:28:09	0	0	4,29339	2,99625	3,78	-0,376	85,6	0	1011,94	6,2	8,2	8,2	1	1	1	1	1	1	1	1	1	0	1	-2,043693	273,457175	315,015499	0
15.01.2021	07:28:10	0	0	3,502503	3,31725	3,3912	-0,379	85,586	0	1011,8	6,2	8,2	8,2	1	1	1	1	1	1	1	1	1	0	1	-5,637773	273,480281	311,528596	0
15.01.2021	07:28:11	0	0	3,163551	3,60075	11,7216	-0,381	85,599	0	1011,86	6,2	8,2	8,2	1	1	1	1	1	1	1	1	1	0	1	-0,775194	273,487508	316,4247	0
15.01.2021	07:28:12	0	0	5,084278	3,83625	16,8552	-0,378	85,598	0	1011,82	6,2	8,2	8,2	1	1	1	1	1	1	1	1	1	0	1	-11,486963	273,447074	305,525388	0
15.01.2021	07:28:13	0	0	3,389519	3,85875	9,3744	-0,382	85,589	0	1011,76	6,2	8,2	8,2	1	1	1	1	1	1	1	1	1	0	1	-5,426357	273,545418	312,042288	0
15.01.2021	07:28:14	0	0	4,85831	3,80325	16,1064	-0,38	85,598	0	1011,92	6,2	8,2	8,2	1	1	1	1	1	1	1	1	1	0	1	-3,664553	273,449959	313,361178	0
15.01.2021	07:28:15	0	0	3,389519	3,42375	16,4808	-0,38	85,596	0	1011,82	6,2	8,2	8,2	1	1	1	1	1	1	1	1	1	0	1	-3,100775	273,458618	313,965111	0
15.01.2021	07:28:16	0	0	5,084278	3,20325	1,1808	-0,383	85,582	0	1011,9	6,2	8,2	8,2	1	1	1	1	1	1	1	1	1	0	1	-5,919662	273,444189	311,079311	0
15.01.2021	07:28:17	0	0	5,084278	3,288	3,8484	-0,377	85,592	0	1011,76	6,2	8,2	8,2	1	1	1	1	1	1	1	1	1	0	1	-2,466526	273,490399	314,746783	0
15.01.2021	07:28:18	0	0	5,197262	3,30075	16,4772	-0,377	85,593	0	1011,84	6,2	8,2	8,2	1	1	1	1	1	1	1	1	1	0	1	-4,087385	273,597687	313,623976	0
15.01.2021	07:28:19	0	0	4,632342	3,15975	14,2956	-0,377	85,589	0	1011,74	6,2	8,2	8,2	1	1	1	1	1	1	1	1	1	0	1	-3,735025	273,438421	313,2372	0
15.01.2021	07:28:20	0	0	4,85831	3,35775	4,842	-0,38	85,599	0	1012	6,2	8,2	8,2	1	1	1	1	1	1	1	1	1	0	1	-2,818887	273,523681	314,548862	0
15.01.2021	07:28:21	0	0	4,745326	3,4665	15,0336	-0,384	85,602	0	1011,78	6,2	8,2	8,2	1	1	1	1	1	1	1	1	1	0	1	-2,184637	273,448517	314,834403	0
15.01.2021	07:28:22	0	0	2,937583	3,05775	13,9284	-0,381	85,598	0	1011,82	6,2	8,2	8,2	1	1	1	1	1	1	1	1	1	0	1	-2,396054	273,460061	314,676527	0
15.01.2021	07:28:23	0	0	4,180406	2,91375	5,3244	-0,388	85,604	0	1011,8	6,2	8,2	8,2	1	1	1	1	1	1	1	1	1	0	1	-7,188161	273,559923	310,347825	0
15.01.2021	07:28:24	0	0	3,050567	2,97075	4,8384	-0,385	85,595	0	1011,62	6,2	8,2	8,2	1	1	1	1	1	1	1	1	1	0	1	-2,396054	273,451402	314,636368	0
15.01.2021	07:28:25	0	0	2,824599	3,33675	8,6112	-0,38	85,609	0	1011,7	6,2	8,2	8,2	1	1	1	1	1	1	1	1	1	0	1	-2,114165	273,478836	315,045501	0
15.01.2021	07:28:26	0	0	4,180406	3,60075	17,7048	-0,383	85,607	0	1011,96	6,2	8,4	8,2	1	1	1	1	1	1	1	1	1	0	1	-5,355884	273,52513	312,018586	0
15.01.2021	07:28:27	0	0	4,067422	3,62775	11,7108	-0,381	85,6	0	1011,88	6,2	8,2	8,2	1	1	1	1	1	1	1	1	1	0	1	-6,8358	273,461505	310,243476	0
15.01.2021	07:28:28	0	0	3,502503	3,58275	15,0444	-0,381	85,599	0	1011,74	6,2	8,2	8,2	1	1	1	1	1	1	1	1	1	0	1	-4,721635	273,613686	313,064049	0
15.01.2021	07:28:29	0	0	3,841454	3,62025	13,5504	-0,377	85,613	0	1012,04	6,2	8,2	8,2	1	1	1	1	1	1	1	1	1	0	1	-4,651163	273,549768	312,837678	0
15.01.2021	07:28:30	0	0	2,598631	3,6225	10,4508	-0,381	85,588	0	1011,92	6,2	8,2	8,2	1	1	1	1	1	1	1	1	1	0	1	-5,21494	273,452845	311,824173	0
15.01.2021	07:28:31	0	0	4,745326	3,2655	16,1028	-0,381	85,595	0	1011,78	6,2	8,2	8,2	1	1	1	1	1	1	1	1	1	0	1	-6,131078	273,586059	311,526277	0
15.01.2021	07:28:32	0	0	4,632342	3,0075	0	-0,38	85,586	0	1012	6,2	8,2	8,2	1	1	1	1	1	1	1	1	1	0	1	-3,453136	273,457175	313,606056	0
15.01.2021	07:28:33	0	0	4,745326	2,93325	6,4188	-0,381	85,603	0	1011,78	6,2	8,2	8,2	1	1	1	1	1	1	1	1	1	0	1	-5,990134	273,583154	311,653726	0
15.01.2021	07:28:34	0	0	3,276535	2,9355	360	-0,382	85,605	0	1011,88	6,2	8,2	8,2	1	1	1	1	1	1	1	1	1	0	1	-5,426357	273,55557	312,08942	0
15.01.2021	07:28:35	0	0	2,711615	2,81625	0,8892	-0,378	85,603	0	1011,88	6,2	8,2	8,2	1	1	1	1	1	1	1	1	1	0	1	-3,030303	273,435537	313,928551	0
15.01.2021	07:28:36	0	0	4,632342	2,83575	12,8556	-0,387	85,6	0	1011,84	6,2	8,2	8,2	1	1	1	1	1	1	1	1	1	0	1	-3,312192	273,562825	314,23727	0
15.01.2021	07:28:37	0	0	3,389519	2,83425	9,756	-0,382	85,608	0	1011,84	6,2	8,2	8,2	1	1	1	1	1	1	1	1	1	0	1	-0,634249	273,490399	316,579059	0
15.01.2021	07:28:38	0	0	3,050567	2,889	18,5436	-0,383	85,602	0	1011,82	6,2	8,2	8,2	1	1	1	1	1	1	1	1	1	0	1	-4,933051	273,426889	311,985706	0
15.01.2021	07:28:39	0	0	4,745326	2,985	3,78	-0,382	85,597	0	1011,94	6,2	8,2	8,2	1	1	1	1	1	1	1	1	1	0	1	-7,047216	273,535271	310,374326	0
15.01.2021	07:28:40	0	0	3,841454	3,12	3,4128	-0,384	85,593	0	1011,84	6,2	8,2	8,2	1	1	1	1	1	1	1	1	1	0	1	-3,523608	273,562825	314,025853	0
15.01.2021	07:28:41	0	0	2,485647	3,15225	1,9404	-0,377	85,586	0	1011,84	6,2	8,2	8,2	1	1	1	1	1	1	1	1	1	0	1	-3,946441	273,266169	312,227835	0
15.01.2021	07:28:42	0	0	4,85831	3,12825	1,5588	-0,379	85,59	0	1011,9	6,2	8,2	8,2	1	1	1	1	1	1	1	1	1	0	1	-3,664553	273,501969	313,602437	0
15.01.2021	07:28:43	0	0	3,954438	3,20925	6,0768	-0,384	85,596	0	1011,86	6,2	8,2	8,2	1	1	1	1	1	1	1	1	1	0	1	-7,399577	273,455731	309,652921	0
15.01.2021	07:28:44	0	0	3,163551	3,16575	3,0096	-0,385	85,57	0	1011,76	6,2	8,2	8,2	1	1	1	1	1	1	1	1	1	0	1	-5,355884	273,586059	312,301471	0
15.01.2021	07:28:45	0	0	3,050567	3,246	12,6396	-0,385	85,591	0	1011,92	6,2	8,4	8,2	1	1	1	1	1	1	1	1	1	0	1	-3,664553	273,552669	313,837755	0
15.01.2021	07:28:46	0	0	4,519358	3,4095	4,0788	-0,38	85,578	0	1011,84	6,2	8,2	8,2	1	1	1	1	1	1	1	1	1	0	1	-5,919662	273,487508	311,280232	0
15.01.2021	07:28:47	0	0	2,711615	3,4365	6,0624	-0,38	85,589	0	1011,86	6,2	8,2	8,2	1	1	1	1	1	1	1	1	1	0	1	-1,832276	273,426889	315,086482	0
15.01.2021	07:28:48	0	0	3,502503	3,42975	6,4332	-0,381	85,599	0	1011,78	6,2	8,2	8,2	1	1	1	1	1	1	1	1	1	0	1	-3,030303	273,581701	314,60681	0
15.01.2021	07:28:49	0	0	4,632342	3,5325	7,8768	-0,382	85,605	0	1011,88	6,2	8,2	8,2	1	1	1	1	1	1	1	1	1	0	1	-4,862579	273,448517	312,156461	0
15.01.2021	07:28:50	0	0	5,084278	3,5985	8,7408	-0,377	85,596	0	1011,86	6,2	8,2	8,2	1	1	1	1	1	1	1	1	1	0	1	-3,312192	273,55412	314,19685	0
15.01.2021	07:28:51	0	0	4,29339	3,52125	6,0696	-0,373	85,607	0	1012,1	6,2	8,2	8,2	1	1	1	1	1	1	1	1	1	0	1	-5,567301	273,500522	311,692977	0
15.01.2021	07:28:52	0	0	4,632342	3,40425	13,9248	-0,379	85,598	0	1011,88	6,1	8,2	8,2	1	1	1	1	1	1	1	1	1	0	1	-6,412967	273,607867	311,345682	0
15.01.2021	07:28:53	0	0	4,519358	3,25575	10,4364	-0,381	85,594	0	1011,9	6,2	8,2	8,2	1	1	1	1	1	1	1	1	1	0	1	-4,157858	273,574439	313,445531	0
15.01.2021	07:28:54	0	0	2,937583	3,13275	20,2932	-0,377	85,589	0	1011,76	6,2	8,2	8,2	1	1	1	1	1	1	1	1	1	0	1	-5,778717	273,484617	311,407765	0
15.01.2021	07:28:55	0	0	2,824599	2,937	14,6592	-0,376	85,604	0	1011,96	6,2	8,2	8,2	1	1	1	1	1	1	1	1	1	0	1	-0	273,618052	317,805967	0
15.01.2021	07:28:56	0	0	4,85831	2,95125	19,5192	-0,385	85,592	0	1011,82	6,2	8,2	8,2	1	1	1	1	1	1	1	1	1	0	1	-5,426357	273,557021	312,096156	0
15.01.2021	07:28:57	0	0	3,502503	2,9715	18,0828	-0,379	85,594	0	1011,88	6,2	8,2	8,2	1	1	1	1	1	1	1	1	1	0	1	-5,144468	273,460061	311,928112	0
15.01.2021	07:28:58	0	0	4,180406	2,919	21,0132	-0,375	85,608	0	1011,98	6,2	8,2	8,2	1	1	1	1	1	1	1	1	1	0	1	-9,020437	273,623875	308,812583	0
15.01.2021	07:28:59	0	0	5,084278	2,85525	10,8216	-0,378	85,599	0	1012	6,2	8,2	8,2	1	1	1	1	1	1	1	1	1	0	1	-3,805497	273,490399	313,407811	0
15.01.2021	07:29:00	0	0	3,163551	2,8425	9,7524	-0,383	85,591	0	1011,7	6,2	8,2	8,2	1	1	1	1	1	1	1	1	1	0	1	-3,735025	273,488953	313,471576	0
15.01.2021	07:29:01	0	0	2,937583	2,99475	9,3672	-0,383	85,592	0	1011,8	6,2	8,2	8,2	1	1	1	1	1	1	1	1	1	0	1	-4,651163	273,528027	312,736754	0
15.01.2021	07:29:02	0	0	2,937583	2,99475	9,3672	-0,383	85,592	0	1011,8	6,2	8,2	8,2	1	1	1	1	1	1	1	1	1	0	1	-4,651163	273,528027	312,736754	0
15.01.2021	07:29:03	0	0	4,632342	3,1635	7,5168	-0,383	85,583	0	1011,92	6,2	8,2	8,2	1	1	1	1	1	1	1	1	1	0	1	-1,479915	273,591872	316,204438	0
15.01.2021	07:29:04	0	0	3,728471	3,23925	7,1352	-0,384	85,601	0	1011,7	6,2	8,2	8,2	1	1	1	1	1	1	1	1	1	0	1	-3,664553	273,629699	314,19553	0
15.01.2021	07:29:05	0	0	3,163551	3,1395	15,7824	-0,382	85,596	0	1011,92	6,2	8,2	8,2	1	1	1	1	1	1	1	1	1	0	1	-3,24172	273,526578	314,139474	0
15.01.2021	07:29:06	0	0	3,163551	3,267	8,262	-0,383	85,599	0	1011,88	6,2	8,2	8,2	1	1	1	1	1	1	1	1	1	0	1	-6,131078	273,454288	310,914727	0
15.01.2021	07:29:07	0	0	3,841454	3,37725	11,718	-0,384	85,597	0	1011,7	6,2	8,2	8,2	1	1	1	1	1	1	1	1	1	0	1	-10,570825	273,590419	307,106778	0
15.01.2021	07:29:08	0	0	3,615487	3,129	19,1484	-0,381	85,607	0	1011,84	6,2	8,2	8,2	1	1	1	1	1	1	1	1	1	0	1	-3,523608	273,577343	314,093268	0
15.01.2021	07:29:09	0	0	2,711615	2,7135	9,7524	-0,383	85,604	0	1011,94	6,2	8,2	8,2	1	1	1	1	1	1	1	1	1	0	1	-2,043693	273,442747	314,948592	0
15.01.2021	07:29:10	0	0	4,85831	2,57325	8,2692	-0,384	85,599	0	1011,84	6,2	8,2	8,2	1	1	1	1	1	1	1	1	1	0	1	-11,980268	273,602049	305,751356	0
15.01.2021	07:29:11	0	0	3,389519	2,5965	2,6568	-0,386	85,593	0	1011,78	6,2	8,2	8,2	1	1	1	1	1	1	1	1	1	0	1	-7,470049	273,526578	309,911144	0
15.01.2021	07:29:12	0	0	2,937583	2,67525	18,4608	-0,383	85,582	0	1011,9	6,2	8,2	8,2	1	1	1	1	1	1	1	1	1	0	1	-6,483439	273,449959	310,542292	0
15.01.2021	07:29:13	0	0	3,954438	2,68425	17,2332	-0,388	85,599	0	1011,88	6,2	8,2	8,2	1	1	1	1	1	1	1	1	1	0	1	-4,369274	273,55412	313,139768	0
15.01.2021	07:29:14	0	0	4,85831	2,649	18,0828	-0,387	85,585	0	1011,72	6,2	8,2	8,2	1	1	1	1	1	1	1	1	1	0	1	-8,879493	273,483172	308,300285	0
15.01.2021	07:29:15	0	0	4,406374	2,874	12,96	-0,375	85,582	0	1011,9	6,2	8,2	8,2	1	1	1	1	1	1	1	1	1	0	1	-8,668076	273,631156	309,198773	0
15.01.2021	07:29:16	0	0	3,728471	2,98575	0	-0,383	85,601	0	1011,84	6,2	8,2	8,2	1	1	1	1	1	1	1	1	1	0	1	-8,174771	273,513546	309,145939	0
15.01.2021	07:29:17	0	0	3,050567	3,057	13,158	-0,381	85,605	0	1011,74	6,2	8,2	8,2	1	1	1	1	1	1	1	1	1	0	1	-1,479915	273,602049	316,251708	0
15.01.2021	07:29:18	0	0	4,745326	2,93775	7,8948	-0,38	85,596	0	1011,96	6,2	8,2	8,2	1	1	1	1	1	1	1	1	1	0	1	-8,245243	273,628243	309,608073	0
15.01.2021	07:29:19	0	0	3,389519	2,832	7,902	-0,38	85,604	0	1011,8	6,2	8,2	8,2	1	1	1	1	1	1	1	1	1	0	1	-1,268499	273,562825	316,280962	0
15.01.2021	07:29:20	0	0	2,711615	2,8905	10,062	-0,381	85,602	0	1011,82	6,2	8,2	8,2	1	1	1	1	1	1	1	1	1	0	1	-4,369274	273,622419	313,456982	0
15.01.2021	07:29:21	0	0	3,728471	2,99475	7,5132	-0,381	85,583	0	1011,9	6,2	8,4	8,2	1	1	1	1	1	1	1	1	1	0	1	-9,866103	273,625331	307,973682	0
15.01.2021	07:29:22	0	0	3,954438	3,1245	5,2128	-0,378	85,592	0	1011,88	6,2	8,2	8,2	1	1	1	1	1	1	1	1	1	0	1	-9,584214	273,55412	307,924828	0
15.01.2021	07:29:23	0	0	2,598631	3,099	18,8388	-0,379	85,597	0	1011,92	6,2	8,2	8,2	1	1	1	1	1	1	1	1	1	0	1	-5,990134	273,607867	311,768515	0
15.01.2021	07:29:24	0	0	3,502503	2,9385	15,7788	-0,383	85,602	0	1011,84	6,2	8,2	8,2	1	1	1	1	1	1	1	1	1	0	1	-4,369274	273,532373	313,038816	0
15.01.2021	07:29:25	0	0	3,163551	2,82525	10,062	-0,381	85,587	0	1011,82	6,2	8,2	8,2	1	1	1	1	1	1	1	1	1	0	1	-5,637773	273,444189	311,3612	0
15.01.2021	07:29:26	0	0	3,276535	2,67225	29,5596	-0,391	85,599	0	1011,78	6,2	8,2	8,2	1	1	1	1	1	1	1	1	1	0	1	-1,902748	273,535271	315,518794	0
15.01.2021	07:29:27	0	0	4,85831	2,5635	6,0732	-0,387	85,599	0	1011,7	6,2	8,2	8,2	1	1	1	1	1	1	1	1	1	0	1	-1,479915	273,500522	315,780362	0
15.01.2021	07:29:28	0	0	3,615487	2,6175	23,2236	-0,385	85,605	0	1011,96	6,2	8,2	8,2	1	1	1	1	1	1	1	1	1	0	1	-6,8358	273,454288	310,210006	0
15.01.2021	07:29:29	0	0	4,745326	2,541	8,9856	-0,386	85,604	0	1011,98	6,2	8,2	8,2	1	1	1	1	1	1	1	1	1	0	1	-6,8358	273,55557	310,679977	0
15.01.2021	07:29:30	0	0	2,598631	2,44575	6,8184	-0,389	85,601	0	1011,74	6,2	8,2	8,2	1	1	1	1	1	1	1	1	1	0	1	-6,342495	273,587513	311,321609	0
15.01.2021	07:29:31	0	0	3,276535	2,4195	5,2128	-0,38	85,607	0	1011,88	6,2	8,2	8,2	1	1	1	1	1	1	1	1	1	0	1	-2,818887	273,462949	314,267085	0
15.01.2021	07:29:32	0	0	3,954438	2,54175	7,524	-0,38	85,601	0	1011,84	6,2	8,2	8,2	1	1	1	1	1	1	1	1	1	0	1	-5,496829	273,486062	311,696359	0
15.01.2021	07:29:33	0	0	4,85831	2,6535	12,8556	-0,378	85,601	0	1011,76	6,2	8,2	8,2	1	1	1	1	1	1	1	1	1	0	1	-4,792107	273,620963	313,027385	0
15.01.2021	07:29:34	0	0	4,971294	2,66025	13,1688	-0,381	85,606	0	1011,76	6,2	8,2	8,2	1	1	1	1	1	1	1	1	1	0	1	-0,916138	273,451402	316,116284	0
15.01.2021	07:29:35	0	0	4,180406	2,68275	10,4508	-0,383	85,595	0	1011,72	6,2	8,2	8,2	1	1	1	1	1	1	1	1	1	0	1	-3,875969	273,565728	313,68697	0
15.01.2021	07:29:36	0	0	2,824599	2,78175	9,3636	-0,378	85,606	0	1011,94	6,2	8,2	8,2	1	1	1	1	1	1	1	1	1	0	1	-4,721635	273,461505	312,357641	0
15.01.2021	07:29:37	0	0	4,632342	2,94975	9,3636	-0,377	85,606	0	1011,92	6,2	8,2	8,2	1	1	1	1	1	1	1	1	1	0	1	-4,580691	273,49763	312,666164	0
15.01.2021	07:29:38	0	0	3,163551	3,18075	9,3744	-0,384	85,618	0	1011,9	6,2	8,2	8,2	1	1	1	1	1	1	1	1	1	0	1	-0,916138	273,447074	316,096213	0
15.01.2021	07:29:39	0	0	4,406374	3,23325	11,7072	-0,389	85,597	0	1011,86	6,2	8,2	8,2	1	1	1	1	1	1	1	1	1	0	1	-6,20155	273,580248	311,428816	0
15.01.2021	07:29:40	0	0	4,067422	3,17325	15,48	-0,383	85,601	0	1011,78	6,2	8,2	8,2	1	1	1	1	1	1	1	1	1	0	1	-7,963354	273,532373	309,444736	0
15.01.2021	07:29:41	0	0	3,163551	3,18075	13,554	-0,381	85,59	0	1011,86	6,2	8,2	8,2	1	1	1	1	1	1	1	1	1	0	1	-4,510218	273,613686	313,275466	0
15.01.2021	07:29:42	0	0	3,954438	3,135	3,7764	-0,383	85,598	0	1011,78	6,2	8,2	8,2	1	1	1	1	1	1	1	1	1	0	1	-7,610994	273,588966	310,059859	0
15.01.2021	07:29:43	0	0	3,502503	2,94225	4,4676	-0,382	85,599	0	1011,76	6,2	8,2	8,2	1	1	1	1	1	1	1	1	1	0	1	-3,59408	273,447074	313,41827	0
15.01.2021	07:29:44	0	0	3,050567	2,8335	16,488	-0,386	85,591	0	1011,78	6,2	8,2	8,2	1	1	1	1	1	1	1	1	1	0	1	-6,060606	273,46728	311,045457	0
15.01.2021	07:29:45	0	0	4,632342	2,7945	8,9784	-0,386	85,605	0	1011,94	6,2	8,2	8,2	1	1	1	1	1	1	1	1	1	0	1	-2,818887	273,542518	314,636297	0
15.01.2021	07:29:46	0	0	4,29339	2,64075	19,8972	-0,379	85,608	0	1011,92	6,2	8,2	8,2	1	1	1	1	1	1	1	1	1	0	1	-2,818887	273,458618	314,246999	0
15.01.2021	07:29:47	0	0	4,63237	2,56575	7,5132	-0,379	85,605	0	1011,9	6,2	8,2	8,1	1	1	1	1	1	1	1	1	1	0	1	-4,298802	273,597687	313,412559	0
15.01.2021	07:29:48	0	0	4,519358	2,40975	6,0732	-0,381	85,609	0	1011,9	6,2	8,2	8,2	1	1	1	1	1	1	1	1	1	0	1	-6,976744	273,610777	310,795421	0
15.01.2021	07:29:49	0	0	4,067422	2,3535	356,2164	-0,379	85,603	0	1011,88	6,2	8,2	8,2	1	1	1	1	1	1	1	1	1	0	1	-0,845666	273,461505	316,23361	0
15.01.2021	07:29:50	0	0	3,954438	2,38725	2,6568	-0,383	85,609	0	1011,9	6,2	8,2	8,2	1	1	1	1	1	1	1	1	1	0	1	-1,832276	273,581701	315,804837	0
15.01.2021	07:29:51	0	0	4,85831	2,40975	358,3728	-0,383	85,598	0	1011,9	6,2	8,2	8,2	1	1	1	1	1	1	1	1	1	0	1	-4,016913	273,619508	313,795816	0
15.01.2021	07:29:52	0	0	3,163551	2,34975	5,202	-0,385	85,586	0	1011,78	6,2	8,2	8,2	1	1	1	1	1	1	1	1	1	0	1	-1,832276	273,500522	315,428001	0
15.01.2021	07:29:53	0	0	3,615487	2,121	14,31	-0,384	85,591	0	1011,94	6,2	8,2	8,2	1	1	1	1	1	1	1	1	1	0	1	-0,704722	273,616597	317,094484	0
15.01.2021	07:29:54	0	0	3,502503	2,16525	17,2332	-0,386	85,594	0	1011,82	6,2	8,2	8,2	1	1	1	1	1	1	1	1	1	0	1	-3,312192	273,586059	314,345163	0
15.01.2021	07:29:55	0	0	3,954438	2,15025	12,834	-0,382	85,59	0	1011,96	6,2	8,2	8,2	1	1	1	1	1	1	1	1	1	0	1	-5,144468	273,619508	312,668261	0
15.01.2021	07:29:56	0	0	4,971294	2,15925	3,3984	-0,38	85,588	0	1011,68	6,2	8,2	8,2	1	1	1	1	1	1	1	1	1	0	1	-4,792107	273,623875	313,040913	0
15.01.2021	07:29:57	0	0	4,406374	2,2125	4,0824	-0,38	85,586	0	1011,76	6,2	8,2	8,2	1	1	1	1	1	1	1	1	1	0	1	-8,45666	273,509204	308,843901	0
15.01.2021	07:29:58	0	0	3,615465	2,259	4,0968	-0,386	85,587	0	1011,8	6,2	8,2	8,3	1	1	1	1	1	1	1	1	1	0	1	-1,902748	273,451402	315,129673	0
15.01.2021	07:29:59	0	0	4,632342	2,2035	359,9856	-0,384	85,583	0	1011,88	6,2	8,2	8,2	1	1	1	1	1	1	1	1	1	0	1	-7,047216	273,549768	310,441624	0
15.01.2021	07:30:00	0	0	3,728471	2,14725	11,7036	-0,381	85,6	0	1011,86	6,2	8,2	8,2	1	1	1	1	1	1	1	1	1	0	1	-5,426357	273,55557	312,08942	0
15.01.2021	07:30:01	0	0	3,728471	2,14725	11,7036	-0,381	85,6	0	1011,86	6,2	8,2	8,2	1	1	1	1	1	1	1	1	1	0	1	-5,426357	273,55557	312,08942	0
15.01.2021	07:30:02	0	0	4,632342	2,28075	15,0264	-0,384	85,606	0	1011,84	6,2	8,4	8,2	1	1	1	1	1	1	1	1	1	0	1	-3,664553	273,618052	314,141415	0
15.01.2021	07:30:03	0	0	2,598631	2,36475	12,0852	-0,388	85,588	0	1011,82	6,2	8,2	8,2	1	1	1	1	1	1	1	1	1	0	1	-5,21494	273,483172	311,964837	0
15.01.2021	07:30:04	0	0	3,276535	2,34525	13,1724	-0,378	85,595	0	1011,84	6,2	8,2	8,2	1	1	1	1	1	1	1	1	1	0	1	-5,567301	273,461505	311,511975	0
15.01.2021	07:30:05	0	0	4,067422	2,36925	11,7144	-0,38	85,604	0	1011,9	6,2	8,2	8,2	1	1	1	1	1	1	1	1	1	0	1	-6,553911	273,478836	310,605755	0
15.01.2021	07:30:06	0	0	5,084278	2,38725	9,756	-0,38	85,605	0	1011,78	6,2	8,2	8,2	1	1	1	1	1	1	1	1	1	0	1	-5,355884	273,53817	312,079113	0
15.01.2021	07:30:07	0	0	4,632342	2,3685	22,4856	-0,378	85,581	0	1011,86	6,2	8,2	8,2	1	1	1	1	1	1	1	1	1	0	1	-8,80902	273,464392	308,283647	0
15.01.2021	07:30:08	0	0	3,050567	2,23275	19,9008	-0,379	85,59	0	1011,7	6,2	8,2	8,2	1	1	1	1	1	1	1	1	1	0	1	-5,073996	273,474502	312,065564	0
15.01.2021	07:30:09	0	0	5,310214	2,14275	8,6148	-0,382	85,601	0	1011,82	6,2	8,2	8,3	1	1	1	1	1	1	1	1	1	0	1	-5,21494	273,535271	312,206602	0
15.01.2021	07:30:10	0	0	2,711615	2,0055	21,0204	-0,386	85,605	0	1011,82	6,2	8,2	8,2	1	1	1	1	1	1	1	1	1	0	1	-13,812544	273,619508	304,000185	0
15.01.2021	07:30:11	0	0	2,598631	1,91325	10,8144	-0,379	85,598	0	1011,86	6,2	8,2	8,2	1	1	1	1	1	1	1	1	1	0	1	-2,325581	273,539619	315,116144	0
15.01.2021	07:30:12	0	0	3,163551	1,8735	9,3708	-0,38	85,58	0	1011,86	6,2	8,2	8,2	1	1	1	1	1	1	1	1	1	0	1	-8,174771	273,470169	308,944689	0
15.01.2021	07:30:13	0	0	5,310246	1,86825	7,128	-0,381	85,602	0	1011,88	6,2	8,2	8,2	1	1	1	1	1	1	1	1	1	0	1	-5,003524	273,631156	312,863326	0
15.01.2021	07:30:14	0	0	3,050567	1,8585	3,0348	-0,377	85,583	0	1011,88	6,2	8,2	8,2	1	1	1	1	1	1	1	1	1	0	1	-1,550388	273,572987	316,046258	0
15.01.2021	07:30:15	0	0	4,632342	1,8285	13,5396	-0,373	85,611	0	1011,94	6,2	8,2	8,2	1	1	1	1	1	1	1	1	1	0	1	-3,805497	273,625331	314,034288	0
15.01.2021	07:30:16	0	0	3,163551	1,85925	17,6904	-0,377	85,587	0	1011,82	6,2	8,2	8,2	1	1	1	1	1	1	1	1	1	0	1	-8,315715	273,491845	308,904301	0
15.01.2021	07:30:17	0	0	4,180406	1,9575	10,8252	-0,381	85,602	0	1011,82	6,2	8,2	8,2	1	1	1	1	1	1	1	1	1	0	1	-5,84919	273,632612	312,024428	0
15.01.2021	07:30:18	0	0	4,745326	2,01975	358,7724	-0,376	85,608	0	1011,84	6,2	8,2	8,2	1	1	1	1	1	1	1	1	1	0	1	-3,382664	273,616597	314,416542	0
15.01.2021	07:30:19	0	0	3,050567	2,106	4,0932	-0,377	85,612	0	1011,8	6,2	8,2	8,2	1	1	1	1	1	1	1	1	1	0	1	-2,114165	273,541069	315,334289	0
15.01.2021	07:30:20	0	0	2,598631	2,217	1,926	-0,381	85,605	0	1011,9	6,2	8,2	8,2	1	1	1	1	1	1	1	1	1	0	1	-0	273,468724	317,112761	0
15.01.2021	07:30:21	0	0	3,615487	2,298	6,8112	-0,382	85,597	0	1011,84	6,2	8,2	8,2	1	1	1	1	1	1	1	1	1	0	1	-8,033827	273,545418	309,434818	0
15.01.2021	07:30:22	0	0	4,067422	2,1585	17,7048	-0,383	85,603	0	1011,9	6,2	8,2	8,2	1	1	1	1	1	1	1	1	1	0	1	-4,22833	273,461505	312,850946	0
15.01.2021	07:30:23	0	0	4,632342	2,1165	6,4296	-0,384	85,602	0	1011,92	6,2	8,2	8,2	1	1	1	1	1	1	1	1	1	0	1	-4,651163	273,491845	312,568854	0
15.01.2021	07:30:24	0	0	2,598631	2,10825	12,4704	-0,38	85,602	0	1011,92	6,2	8,2	8,2	1	1	1	1	1	1	1	1	1	0	1	-4,298802	273,604958	313,446333	0
15.01.2021	07:30:25	0	0	4,067422	2,316	7,8804	-0,387	85,6	0	1011,94	6,2	8,4	8,2	1	1	1	1	1	1	1	1	1	0	1	-2,396054	273,628243	315,457262	0
15.01.2021	07:30:26	0	0	2,598631	2,4945	5,22	-0,38	85,595	0	1011,96	6,2	8,2	8,2	1	1	1	1	1	1	1	1	1	0	1	-2,959831	273,520785	314,394475	0
15.01.2021	07:30:27	0	0	4,745326	2,508	13,5432	-0,382	85,602	0	1011,88	6,2	8,2	8,2	1	1	1	1	1	1	1	1	1	0	1	-1,761804	273,468724	315,350957	0
15.01.2021	07:30:28	0	0	3,050548	2,4435	11,7252	-0,384	85,61	0	1011,84	6,2	8,2	8,3	1	1	1	1	1	1	1	1	1	0	1	-4,510218	273,622419	313,316037	0
15.01.2021	07:30:29	0	0	2,711615	2,547	11,718	-0,383	85,602	0	1011,96	6,2	8,2	8,2	1	1	1	1	1	1	1	1	1	0	1	-3,24172	273,558472	314,287529	0
15.01.2021	07:30:30	0	0	4,067422	2,562	4,4676	-0,381	85,604	0	1011,9	6,2	8,2	8,2	1	1	1	1	1	1	1	1	1	0	1	-8,104299	273,618052	309,701668	0
15.01.2021	07:30:31	0	0	4,067422	2,83125	0,8676	-0,383	85,599	0	1011,92	6,2	8,2	8,2	1	1	1	1	1	1	1	1	1	0	1	-6,553911	273,599141	311,164204	0
15.01.2021	07:30:32	0	0	4,29339	2,82	17,6832	-0,391	85,602	0	1011,72	6,2	8,2	8,2	1	1	1	1	1	1	1	1	1	0	1	-1,127555	273,549768	316,361286	0
15.01.2021	07:30:33	0	0	4,519358	2,69775	19,512	-0,379	85,589	0	1011,94	6,2	8,2	8,2	1	1	1	1	1	1	1	1	1	0	1	-6,624383	273,609322	311,141024	0
15.01.2021	07:30:34	0	0	3,502503	2,583	12,4668	-0,379	85,599	0	1011,82	6,2	8,2	8,2	1	1	1	1	1	1	1	1	1	0	1	-3,171247	273,486062	314,02194	0
15.01.2021	07:30:35	0	0	3,502503	2,6805	14,3136	-0,384	85,612	0	1011,96	6,2	8,2	8,2	1	1	1	1	1	1	1	1	1	0	1	-5,355884	273,619508	312,456845	0
15.01.2021	07:30:36	0	0	3,954438	2,5875	23,9688	-0,376	85,607	0	1011,88	6,2	8,2	8,2	1	1	1	1	1	1	1	1	1	0	1	-1,338971	273,593326	316,352133	0
15.01.2021	07:30:37	0	0	3,728471	2,2995	11,196	-0,38	85,598	0	1011,86	6,2	8,2	8,2	1	1	1	1	1	1	1	1	1	0	1	-2,536998	273,575891	315,073134	0
15.01.2021	07:30:38	0	0	4,745326	2,0835	17,694	-0,377	85,609	0	1012,06	6,2	8,2	8,2	1	1	1	1	1	1	1	1	1	0	1	-7,188161	273,602049	310,543463	0
15.01.2021	07:30:39	0	0	4,180406	2,0445	20,2932	-0,379	85,619	0	1011,92	6,2	8,2	8,2	1	1	1	1	1	1	1	1	1	0	1	-3,946441	273,473057	313,186418	0
15.01.2021	07:30:40	0	0	3,163551	1,96725	29,5776	-0,382	85,605	0	1011,84	6,2	8,2	8,2	1	1	1	1	1	1	1	1	1	0	1	-3,312192	273,470169	313,807268	0
15.01.2021	07:30:41	0	0	4,180406	1,9515	21,0204	-0,38	85,61	0	1011,76	6,2	8,2	8,2	1	1	1	1	1	1	1	1	1	0	1	-3,24172	273,478836	313,917946	0
15.01.2021	07:30:42	0	0	2,711615	1,93875	22,8312	-0,379	85,614	0	1011,92	6,2	8,2	8,2	1	1	1	1	1	1	1	1	1	0	1	-1,62086	273,451402	315,411562	0
15.01.2021	07:30:43	0	0	3,276535	1,78275	24,4584	-0,378	85,609	0	1011,62	6,2	8,2	8,2	1	1	1	1	1	1	1	1	1	0	1	-5,144468	273,577343	312,472409	0
15.01.2021	07:30:44	0	0	3,615487	1,6335	14,3172	-0,386	85,6	0	1012,04	6,2	8,2	8,2	1	1	1	1	1	1	1	1	1	0	1	-9,584214	273,610777	308,187951	0
15.01.2021	07:30:45	0	0	3,502503	1,58775	25,0416	-0,387	85,576	0	1012	6,2	8,2	8,2	1	1	1	1	1	1	1	1	1	0	1	-7,681466	273,480281	309,484903	0
15.01.2021	07:30:46	0	0	4,406374	1,6815	0,4896	-0,379	85,611	0	1012	6,2	8,2	8,2	1	1	1	1	1	1	1	1	1	0	1	-4,862579	273,500522	312,397698	0
15.01.2021	07:30:47	0	0	3,502503	1,7715	21,0096	-0,382	85,602	0	1011,8	6,2	8,2	8,2	1	1	1	1	1	1	1	1	1	0	1	-5,21494	273,462949	311,871031	0
15.01.2021	07:30:48	0	0	3,841454	2,00775	17,2332	-0,378	85,594	0	1011,82	6,2	8,2	8,2	1	1	1	1	1	1	1	1	1	0	1	-2,536998	273,436979	314,428541	0
15.01.2021	07:30:49	0	0	3,502503	2,118	32,8824	-0,385	85,597	0	1011,88	6,2	8,2	8,2	1	1	1	1	1	1	1	1	1	0	1	-6,553911	273,500522	310,706366	0
15.01.2021	07:30:50	0	0	4,29339	2,06025	4,842	-0,382	85,596	0	1011,82	6,2	8,2	8,2	1	1	1	1	1	1	1	1	1	0	1	-2,959831	273,457175	314,099361	0
15.01.2021	07:30:51	0	0	4,519358	2,03625	18,0936	-0,377	85,605	0	1011,68	6,2	8,2	8,2	1	1	1	1	1	1	1	1	1	0	1	-3,453136	273,591872	314,231217	0
15.01.2021	07:30:52	0	0	5,197262	1,88175	8,2764	-0,376	85,618	0	1011,84	6,2	8,2	8,2	1	1	1	1	1	1	1	1	1	0	1	-5,567301	273,542518	311,887883	0
15.01.2021	07:30:53	0	0	3,16357	1,8465	8,6292	-0,374	85,62	0	1011,9	6,2	8,2	8,1	1	1	1	1	1	1	1	1	1	0	1	-5,426357	273,457175	311,632835	0
15.01.2021	07:30:54	0	0	2,824599	1,82325	17,6976	-0,376	85,633	0	1012,1	6,2	8,2	8,2	1	1	1	1	1	1	1	1	1	0	1	-5,355884	273,484617	311,830598	0
15.01.2021	07:30:55	0	0	4,85831	1,836	20,6316	-0,377	85,596	0	1011,86	6,2	8,2	8,2	1	1	1	1	1	1	1	1	1	0	1	-5,708245	273,530924	311,69312	0
15.01.2021	07:30:56	0	0	2,485647	1,7295	15,408	-0,382	85,599	0	1011,86	6,2	8,2	8,2	1	1	1	1	1	1	1	1	1	0	1	-7,681466	273,616597	310,11774	0
15.01.2021	07:30:57	0	0	4,29339	1,599	5,3136	-0,383	85,594	0	1011,92	6,2	8,4	8,2	1	1	1	1	1	1	1	1	1	0	1	-6,131078	273,548318	311,35103	0
15.01.2021	07:30:58	0	0	2,937583	1,47825	23,9688	-0,377	85,608	0	1011,86	6,2	8,2	8,2	1	1	1	1	1	1	1	1	1	0	1	-4,721635	273,470169	312,397825	0
15.01.2021	07:30:59	0	0	4,180406	1,485	13,5396	-0,375	85,604	0	1011,84	6,2	8,2	8,2	1	1	1	1	1	1	1	1	1	0	1	-12,825934	273,629699	305,034149	0
15.01.2021	07:31:00	0	0	3,502503	1,64475	9,3636	-0,38	85,592	0	1011,92	6,2	8,2	8,2	1	1	1	1	1	1	1	1	1	0	1	-7,963354	273,626787	309,883195	0
15.01.2021	07:31:01	0	0	3,502503	1,64475	9,3636	-0,38	85,592	0	1011,92	6,2	8,2	8,2	1	1	1	1	1	1	1	1	1	0	1	-7,963354	273,626787	309,883195	0
15.01.2021	07:31:02	0	0	4,858339	1,68675	7,0704	-0,379	85,606	0	1011,78	6,2	8,2	8,1	1	1	1	1	1	1	1	1	1	0	1	-5,567301	273,53817	311,867696	0
15.01.2021	07:31:03	0	0	2,598631	1,81725	3,7836	-0,385	85,605	0	1011,86	6,2	8,2	8,2	1	1	1	1	1	1	1	1	1	0	1	-5,708245	273,487508	311,491649	0
15.01.2021	07:31:04	0	0	3,841454	1,83975	5,67	-0,38	85,608	0	1011,96	6,2	8,2	8,2	1	1	1	1	1	1	1	1	1	0	1	-8,597604	273,438421	308,374621	0
15.01.2021	07:31:05	0	0	4,745355	1,88325	355,3236	-0,386	85,591	0	1011,88	6,2	8,2	8,1	1	1	1	1	1	1	1	1	1	0	1	-0	273,570083	317,583161	0
15.01.2021	07:31:06	0	0	4,406374	2,2215	4,8492	-0,381	85,593	0	1011,78	6,2	8,2	8,2	1	1	1	1	1	1	1	1	1	0	1	-1,550388	273,600595	316,174481	0
15.01.2021	07:31:07	0	0	3,615487	2,4855	353,952	-0,383	85,603	0	1011,9	6,2	8,2	8,2	1	1	1	1	1	1	1	1	1	0	1	-9,302326	273,584606	308,348282	0
15.01.2021	07:31:08	0	0	4,632342	2,66175	3,0204	-0,382	85,606	0	1011,76	6,2	8,2	8,2	1	1	1	1	1	1	1	1	1	0	1	-1,479915	273,583154	316,163944	0
15.01.2021	07:31:09	0	0	4,067447	2,655	8,622	-0,381	85,606	0	1011,94	6,2	8,2	8,1	1	1	1	1	1	1	1	1	1	0	1	-4,792107	273,628243	313,061209	0
15.01.2021	07:31:10	0	0	3,163551	2,55825	15,7608	-0,381	85,605	0	1011,88	6,2	8,2	8,2	1	1	1	1	1	1	1	1	1	0	1	-4,016913	273,504863	313,263503	0
15.01.2021	07:31:11	0	0	2,824599	2,7315	10,8108	-0,379	85,61	0	1011,98	6,2	8,2	8,2	1	1	1	1	1	1	1	1	1	0	1	-6,624383	273,616597	311,174822	0
15.01.2021	07:31:12	0	0	3,163551	2,84025	12,9528	-0,385	85,605	0	1011,98	6,2	8,2	8,2	1	1	1	1	1	1	1	1	1	0	1	-6,483439	273,436979	310,4821	0
15.01.2021	07:31:13	0	0	4,745326	2,757	7,1352	-0,379	85,604	0	1011,76	6,2	8,2	8,2	1	1	1	1	1	1	1	1	1	0	1	-8,45666	273,558472	309,072589	0
15.01.2021	07:31:14	0	0	3,728471	2,8755	3,7872	-0,378	85,621	0	1012,02	6,2	8,2	8,2	1	1	1	1	1	1	1	1	1	0	1	-0,775194	273,447074	316,237157	0
15.01.2021	07:31:15	0	0	2,9376	3,08175	9,7452	-0,377	85,607	0	1011,82	6,2	8,2	8,1	1	1	1	1	1	1	1	1	1	0	1	-4,721635	273,517889	312,619231	0
15.01.2021	07:31:16	0	0	2,824599	3,30975	8,6112	-0,376	85,612	0	1011,86	6,2	8,2	8,2	1	1	1	1	1	1	1	1	1	0	1	-1,409443	273,623875	316,423577	0
15.01.2021	07:31:17	0	0	3,615487	3,28725	16,0992	-0,384	85,615	0	1011,88	6,2	8,4	8,2	1	1	1	1	1	1	1	1	1	0	1	-4,651163	273,606412	313,100729	0
15.01.2021	07:31:18	0	0	3,615487	3,21525	19,5192	-0,383	85,607	0	1011,92	6,2	8,2	8,2	1	1	1	1	1	1	1	1	1	0	1	-2,043693	273,564277	315,512507	0
15.01.2021	07:31:19	0	0	2,824599	3,204	12,852	-0,383	85,621	0	1011,88	6,2	8,2	8,2	1	1	1	1	1	1	1	1	1	0	1	-3,875969	273,597687	313,835392	0
15.01.2021	07:31:20	0	0	4,632342	3,279	10,4472	-0,389	85,613	0	1011,9	6,2	8,2	8,2	1	1	1	1	1	1	1	1	1	0	1	-4,933051	273,541069	312,515403	0
15.01.2021	07:31:21	0	0	3,389539	3,57375	17,6976	-0,385	85,609	0	1011,82	6,2	8,2	8,1	1	1	1	1	1	1	1	1	1	0	1	-3,523608	273,449959	313,502123	0
15.01.2021	07:31:22	0	0	2,711615	3,95775	14,2992	-0,383	85,598	0	1012	6,2	8,2	8,2	1	1	1	1	1	1	1	1	1	0	1	-5,003524	273,628243	312,849792	0
15.01.2021	07:31:23	0	0	2,937583	4,00125	13,1616	-0,385	85,615	0	1011,76	6,2	8,2	8,2	1	1	1	1	1	1	1	1	1	0	1	-5,84919	273,520785	311,505116	0
15.01.2021	07:31:24	0	0	4,519358	3,90975	14,3064	-0,382	85,597	0	1011,8	6,2	8,2	8,2	1	1	1	1	1	1	1	1	1	0	1	-1,198027	273,613686	316,587658	0
15.01.2021	07:31:25	0	0	4,406374	3,75675	13,9212	-0,376	85,604	0	1011,66	6,2	8,2	8,2	1	1	1	1	1	1	1	1	1	0	1	-7,258633	273,501969	310,008357	0
15.01.2021	07:31:26	0	0	3,841454	3,61275	0	-0,379	85,611	0	1011,88	6,2	8,2	8,2	1	1	1	1	1	1	1	1	1	0	1	-3,100775	273,610777	314,67139	0
15.01.2021	07:31:27	0	0	5,310278	3,528	8,2548	-0,377	85,614	0	1011,92	6,2	8,2	8,1	1	1	1	1	1	1	1	1	1	0	1	-1,761804	273,602049	315,96982	0
15.01.2021	07:31:28	0	0	2,937583	3,57525	6,0624	-0,379	85,612	0	1011,86	6,2	8,2	8,2	1	1	1	1	1	1	1	1	1	0	1	-5,285412	273,496183	311,954732	0
15.01.2021	07:31:29	0	0	4,632342	3,4875	8,622	-0,382	85,593	0	1011,66	6,2	8,2	8,2	1	1	1	1	1	1	1	1	1	0	1	-1,057082	273,626787	316,789467	0
15.01.2021	07:31:30	0	0	2,711631	3,43725	10,0584	-0,38	85,607	0	1011,96	6,2	8,2	8,1	1	1	1	1	1	1	1	1	1	0	1	-2,959831	273,493291	314,266894	0
15.01.2021	07:31:31	0	0	4,85831	3,23925	8,2764	-0,376	85,62	0	1011,88	6,2	8,2	8,2	1	1	1	1	1	1	1	1	1	0	1	-4,721635	273,623875	313,111385	0
15.01.2021	07:31:32	0	0	3,050585	3,22275	6,4404	-0,38	85,602	0	1011,92	6,2	8,2	8,1	1	1	1	1	1	1	1	1	1	0	1	-3,171247	273,458618	313,894638	0
15.01.2021	07:31:33	0	0	2,485647	3,288	16,0812	-0,385	85,608	0	1011,94	6,2	8,2	8,2	1	1	1	1	1	1	1	1	1	0	1	-4,510218	273,55557	313,005559	0
15.01.2021	07:31:34	0	0	2,711615	3,03225	19,89	-0,367	85,602	0	1011,86	6,2	8,2	8,2	1	1	1	1	1	1	1	1	1	0	1	-5,637773	273,610777	312,134392	0
15.01.2021	07:31:35	0	0	3,389519	2,6685	18,4464	-0,381	85,596	0	1011,78	6,2	8,2	8,2	1	1	1	1	1	1	1	1	1	0	1	-4,580691	273,490399	312,632618	0
15.01.2021	07:31:36	0	0	2,824599	2,42325	16,8516	-0,382	85,615	0	1011,96	6,2	8,4	8,2	1	1	1	1	1	1	1	1	1	0	1	-5,708245	273,514993	311,619183	0
15.01.2021	07:31:37	0	0	2,259679	2,343	15,4008	-0,378	85,592	0	1011,82	6,2	8,4	8,2	1	1	1	1	1	1	1	1	1	0	1	-4,157858	273,609322	313,607549	0
15.01.2021	07:31:38	0	0	4,067422	2,35425	8,9892	-0,38	85,607	0	1011,98	6,2	8,2	8,2	1	1	1	1	1	1	1	1	1	0	1	-2,043693	273,514993	315,283736	0
15.01.2021	07:31:39	0	0	3,050567	2,36775	354,6036	-0,385	85,612	0	1011,9	6,2	8,4	8,2	1	1	1	1	1	1	1	1	1	0	1	-4,933051	273,458618	312,132834	0
15.01.2021	07:31:40	0	0	3,050567	2,32275	3,762	-0,378	85,607	0	1011,98	6,2	8,2	8,2	1	1	1	1	1	1	1	1	1	0	1	-3,312192	273,441305	313,673406	0
15.01.2021	07:31:41	0	0	5,197262	2,36025	360	-0,376	85,595	0	1011,98	6,2	8,2	8,2	1	1	1	1	1	1	1	1	1	0	1	-4,792107	273,557021	312,730406	0
15.01.2021	07:31:42	0	0	4,971294	2,31525	4,8312	-0,381	85,603	0	1011,92	6,2	8,2	8,2	1	1	1	1	1	1	1	1	1	0	1	-3,523608	273,570083	314,059553	0
15.01.2021	07:31:43	0	0	3,050567	2,34225	360	-0,378	85,598	0	1011,8	6,2	8,2	8,2	1	1	1	1	1	1	1	1	1	0	1	-6,20155	273,645725	311,733005	0
15.01.2021	07:31:44	0	0	4,067422	2,469	1,5372	-0,384	85,608	0	1011,84	6,2	8,2	8,2	1	1	1	1	1	1	1	1	1	0	1	-5,919662	273,541069	311,528793	0
15.01.2021	07:31:45	0	0	4,406374	2,5065	357,228	-0,385	85,58	0	1011,8	6,2	8,2	8,2	1	1	1	1	1	1	1	1	1	0	1	-0,845666	273,455731	316,206832	0
15.01.2021	07:31:46	0	0	4,067422	2,41875	1,1628	-0,38	85,6	0	1011,76	6,2	8,4	8,2	1	1	1	1	1	1	1	1	1	0	1	-7,892882	273,590419	309,78472	0
15.01.2021	07:31:47	0	0	4,519358	2,2785	1,1808	-0,385	85,605	0	1011,88	6,2	8,2	8,2	1	1	1	1	1	1	1	1	1	0	1	-2,60747	273,628243	315,245846	0
15.01.2021	07:31:48	0	0	3,728493	2,1	6,4152	-0,383	85,602	0	1011,92	6,2	8,2	8,1	1	1	1	1	1	1	1	1	1	0	1	-6,624383	273,618052	311,181584	0
15.01.2021	07:31:49	0	0	2,9376	2,0655	20,4012	-0,381	85,599	0	1011,84	6,2	8,2	8,1	1	1	1	1	1	1	1	1	1	0	1	-2,255109	273,513546	315,065601	0
15.01.2021	07:31:50	0	0	3,502503	1,98525	19,9008	-0,376	85,603	0	1011,88	6,2	8,2	8,2	1	1	1	1	1	1	1	1	1	0	1	-3,030303	273,584606	314,620304	0
15.01.2021	07:31:51	0	0	3,389539	1,926	18,8352	-0,377	85,586	0	1011,88	6,2	8,4	8,1	1	1	1	1	1	1	1	1	1	0	1	-5,567301	273,618052	312,238666	0
15.01.2021	07:31:52	0	0	4,971294	1,92825	9,3564	-0,387	85,616	0	1011,82	6,2	8,2	8,2	1	1	1	1	1	1	1	1	1	0	1	-2,677942	273,574439	314,925446	0
15.01.2021	07:31:53	0	0	3,050567	2,061	15,0372	-0,379	85,619	0	1011,96	6,2	8,2	8,2	1	1	1	1	1	1	1	1	1	0	1	-3,664553	273,455731	313,387946	0
15.01.2021	07:31:54	0	0	4,293416	2,12325	12,0816	-0,382	85,601	0	1011,88	6,2	8,4	8,1	1	1	1	1	1	1	1	1	1	0	1	-7,117689	273,500522	310,142589	0
15.01.2021	07:31:55	0	0	2,711615	2,313	13,1688	-0,379	85,608	0	1011,86	6,2	8,2	8,2	1	1	1	1	1	1	1	1	1	0	1	-3,59408	273,590419	314,083522	0
15.01.2021	07:31:56	0	0	2,937583	2,32425	4,9104	-0,38	85,601	0	1011,9	6,2	8,2	8,2	1	1	1	1	1	1	1	1	1	0	1	-6,060606	273,620963	311,758886	0
15.01.2021	07:31:57	0	0	2,937583	2,3235	4,8312	-0,383	85,603	0	1011,7	6,2	8,2	8,2	1	1	1	1	1	1	1	1	1	0	1	-4,369274	273,473057	312,763585	0
15.01.2021	07:31:58	0	0	4,632342	2,36175	1,9368	-0,378	85,609	0	1011,74	6,2	8,2	8,2	1	1	1	1	1	1	1	1	1	0	1	-5,567301	273,584606	312,083306	0
15.01.2021	07:31:59	0	0	3,276554	2,3805	11,7252	-0,38	85,595	0	1011,9	6,2	8,2	8,1	1	1	1	1	1	1	1	1	1	0	1	-4,157858	273,454288	312,887948	0
15.01.2021	07:32:00	0	0	4,745326	2,2035	359,8236	-0,382	85,623	0	1012	6,2	8,2	8,2	1	1	1	1	1	1	1	1	1	0	1	-4,933051	273,603503	312,805328	0
15.01.2021	07:32:01	0	0	4,745326	2,2035	359,8236	-0,382	85,623	0	1012	6,2	8,2	8,2	1	1	1	1	1	1	1	1	1	0	1	-4,933051	273,603503	312,805328	0
15.01.2021	07:32:02	0	0	4,067422	2,14575	3,0204	-0,384	85,611	0	1011,78	6,2	8,2	8,2	1	1	1	1	1	1	1	1	1	0	1	-6,8358	273,493291	310,390925	0
15.01.2021	07:32:03	0	0	4,632342	2,127	1,5588	-0,384	85,621	0	1011,92	6,2	8,2	8,2	1	1	1	1	1	1	1	1	1	0	1	-2,114165	273,587513	315,549939	0
15.01.2021	07:32:04	0	0	3,615508	2,196	3,0132	-0,384	85,621	0	1011,92	6,2	8,2	8,1	1	1	1	1	1	1	1	1	1	0	1	-0,140944	273,636982	317,75298	0
15.01.2021	07:32:05	0	0	4,745326	2,25375	3,0312	-0,38	85,614	0	1011,86	6,2	8,2	8,2	1	1	1	1	1	1	1	1	1	0	1	-4,369274	273,481726	312,803799	0
15.01.2021	07:32:06	0	0	2,824599	2,32725	11,1924	-0,385	85,611	0	1011,88	6,2	8,2	8,2	1	1	1	1	1	1	1	1	1	0	1	-6,976744	273,620963	310,842748	0
15.01.2021	07:32:07	0	0	2,824616	2,48475	4,8456	-0,38	85,621	0	1011,86	6,2	8,2	8,1	1	1	1	1	1	1	1	1	1	0	1	-2,60747	273,528027	314,780446	0
15.01.2021	07:32:08	0	0	4,293365	2,54925	9	-0,386	85,607	0	1012,04	6,2	8,4	8,3	1	1	1	1	1	1	1	1	1	0	1	-6,553911	273,618052	311,252056	0
15.01.2021	07:32:09	0	0	3,16357	2,508	5,6808	-0,38	85,629	0	1011,98	6,2	8,2	8,1	1	1	1	1	1	1	1	1	1	0	1	-1,198027	273,441305	315,787571	0
15.01.2021	07:32:10	0	0	3,163551	2,33625	356,922	-0,38	85,611	0	1011,88	6,2	8,2	8,2	1	1	1	1	1	1	1	1	1	0	1	-10,923185	273,578796	306,700436	0
15.01.2021	07:32:11	0	0	2,711615	2,23875	7,5096	-0,378	85,63	0	1011,82	6,2	8,4	8,2	1	1	1	1	1	1	1	1	1	0	1	-6,272023	273,628243	311,581293	0
15.01.2021	07:32:12	0	0	4,971294	2,14875	18,4428	-0,382	85,62	0	1012	6,2	8,2	8,2	1	1	1	1	1	1	1	1	1	0	1	-3,59408	273,539619	313,847645	0
15.01.2021	07:32:13	0	0	4,067447	2,24325	4,0824	-0,382	85,617	0	1011,74	6,2	8,2	8,1	1	1	1	1	1	1	1	1	1	0	1	-6,412967	273,619508	311,399763	0
15.01.2021	07:32:14	0	0	2,824599	2,2575	12,4596	-0,382	85,6	0	1011,86	6,2	8,2	8,2	1	1	1	1	1	1	1	1	1	0	1	-6,483439	273,471613	310,64272	0
15.01.2021	07:32:15	0	0	4,519385	2,2545	14,6664	-0,382	85,619	0	1011,88	6,2	8,2	8,1	1	1	1	1	1	1	1	1	1	0	1	-3,24172	273,50631	314,045411	0
15.01.2021	07:32:16	0	0	2,824599	2,142	11,7072	-0,38	85,609	0	1011,98	6,2	8,4	8,2	1	1	1	1	1	1	1	1	1	0	1	-6,342495	273,454288	310,703311	0
15.01.2021	07:32:17	0	0	4,745326	2,12775	7,8768	-0,38	85,625	0	1011,82	6,2	8,2	8,2	1	1	1	1	1	1	1	1	1	0	1	-7,399577	273,543968	310,062337	0
15.01.2021	07:32:18	0	0	2,937565	2,1825	23,22	-0,381	85,625	0	1011,96	6,2	8,2	8,3	1	1	1	1	1	1	1	1	1	0	1	-1,550388	273,613686	316,235297	0
15.01.2021	07:32:19	0	0	4,632342	2,1885	15,7824	-0,378	85,612	0	1012	6,2	8,2	8,2	1	1	1	1	1	1	1	1	1	0	1	-6,694856	273,613686	311,090829	0
15.01.2021	07:32:20	0	0	3,276535	2,18775	18,4644	-0,378	85,623	0	1011,92	6,2	8,4	8,2	1	1	1	1	1	1	1	1	1	0	1	-2,818887	273,519337	314,528699	0
15.01.2021	07:32:21	0	0	2,598631	2,163	11,736	-0,379	85,639	0	1011,86	6,2	8,2	8,2	1	1	1	1	1	1	1	1	1	0	1	-4,933051	273,615142	312,859393	0
15.01.2021	07:32:22	0	0	3,841454	2,11425	22,464	-0,381	85,625	0	1011,96	6,2	8,2	8,2	1	1	1	1	1	1	1	1	1	0	1	-10,782241	273,503416	306,491462	0
15.01.2021	07:32:23	0	0	4,406374	2,1645	11,214	-0,379	85,625	0	1011,98	6,2	8,2	8,2	1	1	1	1	1	1	1	1	1	0	1	-2,396054	273,504863	314,884363	0
15.01.2021	07:32:24	0	0	2,824599	2,48325	11,7108	-0,381	85,626	0	1011,92	6,2	8,4	8,2	1	1	1	1	1	1	1	1	1	0	1	-1,198027	273,455731	315,854472	0
15.01.2021	07:32:25	0	0	3,389519	2,7465	10,8072	-0,38	85,626	0	1011,98	6,2	8,4	8,2	1	1	1	1	1	1	1	1	1	0	1	-3,100775	273,474502	314,038785	0
15.01.2021	07:32:26	0	0	4,745355	2,78025	11,2032	-0,379	85,623	0	1011,82	6,2	8,2	8,1	1	1	1	1	1	1	1	1	1	0	1	-5,355884	273,561374	312,186839	0
15.01.2021	07:32:27	0	0	3,050585	2,553	3,78	-0,385	85,623	0	1011,86	6,2	8,4	8,1	1	1	1	1	1	1	1	1	1	0	1	-1,338971	273,610777	316,433194	0
15.01.2021	07:32:28	0	0	4,858339	2,3235	18,4572	-0,377	85,631	0	1011,82	6,2	8,2	8,1	1	1	1	1	1	1	1	1	1	0	1	-3,805497	273,546868	313,669879	0
15.01.2021	07:32:29	0	0	3,276535	2,24025	17,2476	-0,38	85,622	0	1011,84	6,2	8,2	8,2	1	1	1	1	1	1	1	1	1	0	1	-4,22833	273,501969	313,03866	0
15.01.2021	07:32:30	0	0	3,841478	2,26125	16,8516	-0,38	85,632	0	1011,92	6,2	8,2	8,1	1	1	1	1	1	1	1	1	1	0	1	-3,100775	273,613686	314,684909	0
15.01.2021	07:32:31	0	0	4,632342	2,15325	12,1068	-0,377	85,617	0	1011,94	6,2	8,2	8,2	1	1	1	1	1	1	1	1	1	0	1	-11,41649	273,635525	306,470664	0
15.01.2021	07:32:32	0	0	2,711615	2,157	8,6076	-0,376	85,627	0	1011,74	6,2	8,2	8,2	1	1	1	1	1	1	1	1	1	0	1	-1,479915	273,520785	315,87439	0
15.01.2021	07:32:33	0	0	3,276554	2,2695	15,552	-0,376	85,64	0	1012,04	6,2	8,2	8,1	1	1	1	1	1	1	1	1	1	0	1	-9,020437	273,622419	308,805819	0
15.01.2021	07:32:34	0	0	3,615487	2,28075	12,0852	-0,381	85,613	0	1011,68	6,2	8,2	8,2	1	1	1	1	1	1	1	1	1	0	1	-5,285412	273,486062	311,907776	0
15.01.2021	07:32:35	0	0	4,519358	2,39625	12,4668	-0,381	85,62	0	1011,9	6,2	8,2	8,2	1	1	1	1	1	1	1	1	1	0	1	-7,610994	273,451402	309,421428	0
15.01.2021	07:32:36	0	0	3,163532	2,47875	18,8388	-0,378	85,639	0	1011,92	6,2	8,2	8,3	1	1	1	1	1	1	1	1	1	0	1	-6,412967	273,613686	311,372717	0
15.01.2021	07:32:37	0	0	4,745298	2,34075	18,0936	-0,38	85,639	0	1011,84	6,2	8,4	8,3	1	1	1	1	1	1	1	1	1	0	1	-4,721635	273,559923	312,814351	0
15.01.2021	07:32:38	0	0	3,16357	2,268	12,8484	-0,38	85,637	0	1012	6,2	8,4	8,1	1	1	1	1	1	1	1	1	1	0	1	-2,889359	273,444189	314,109614	0
15.01.2021	07:32:39	0	0	2,711631	2,24325	23,9724	-0,379	85,635	0	1011,78	6,2	8,2	8,1	1	1	1	1	1	1	1	1	1	0	1	-10,147992	273,514993	307,179437	0
15.01.2021	07:32:40	0	0	4,293416	2,145	14,3028	-0,385	85,622	0	1011,8	6,2	8,2	8,1	1	1	1	1	1	1	1	1	1	0	1	-9,372798	273,619508	308,439932	0
15.01.2021	07:32:41	0	0	2,711615	2,136	19,908	-0,378	85,623	0	1011,96	6,2	8,4	8,2	1	1	1	1	1	1	1	1	1	0	1	-4,862579	273,460061	312,210001	0
15.01.2021	07:32:42	0	0	2,824599	2,1915	6,0588	-0,372	85,626	0	1011,94	6,2	8,2	8,2	1	1	1	1	1	1	1	1	1	0	1	-2,959831	273,565728	314,603109	0
15.01.2021	07:32:43	0	0	4,406374	2,30175	9,756	-0,377	85,64	0	1011,92	6,2	8,2	8,2	1	1	1	1	1	1	1	1	1	0	1	-4,792107	273,615142	313,000338	0
15.01.2021	07:32:44	0	0	2,937583	2,28825	15,0336	-0,378	85,62	0	1011,84	6,2	8,2	8,2	1	1	1	1	1	1	1	1	1	0	1	-6,624383	273,55557	310,891394	0
15.01.2021	07:32:45	0	0	4,632342	2,2575	18,8424	-0,383	85,627	0	1011,86	6,2	8,2	8,2	1	1	1	1	1	1	1	1	1	0	1	-6,272023	273,454288	310,773783	0
15.01.2021	07:32:46	0	0	4,632342	2,3085	22,104	-0,385	85,608	0	1012,14	6,2	8,2	8,2	1	1	1	1	1	1	1	1	1	0	1	-6,131078	273,578796	311,492543	0
15.01.2021	07:32:47	0	0	2,711631	2,28	16,5132	-0,379	85,626	0	1011,8	6,2	8,2	8,1	1	1	1	1	1	1	1	1	1	0	1	-6,906272	273,465836	310,193093	0
15.01.2021	07:32:48	0	0	4,85831	2,295	20,286	-0,378	85,631	0	1011,82	6,2	8,2	8,2	1	1	1	1	1	1	1	1	1	0	1	-6,553911	273,454288	310,491894	0
15.01.2021	07:32:49	0	0	2,711615	2,2245	10,0728	-0,375	85,642	0	1011,94	6,2	8,4	8,2	1	1	1	1	1	1	1	1	1	0	1	-4,369274	273,491845	312,850742	0
15.01.2021	07:32:50	0	0	4,63237	2,33175	15,3972	-0,373	85,624	0	1011,8	6,2	8,2	8,1	1	1	1	1	1	1	1	1	1	0	1	-7,117689	273,483172	310,062089	0
15.01.2021	07:32:51	0	0	3,615487	2,445	17,7084	-0,376	85,633	0	1011,76	6,2	8,4	8,2	1	1	1	1	1	1	1	1	1	0	1	-6,412967	273,444189	310,586006	0
15.01.2021	07:32:52	0	0	2,937583	2,40375	16,1028	-0,379	85,64	0	1011,92	6,2	8,4	8,2	1	1	1	1	1	1	1	1	1	0	1	-4,792107	273,490399	312,421201	0
15.01.2021	07:32:53	0	0	3,389519	2,382	19,5408	-0,375	85,633	0	1011,9	6,2	8,2	8,2	1	1	1	1	1	1	1	1	1	0	1	-2,536998	273,56718	315,032682	0
15.01.2021	07:32:54	0	0	4,971294	2,406	5,2344	-0,378	85,631	0	1011,9	6,2	8,2	8,2	1	1	1	1	1	1	1	1	1	0	1	-7,540521	273,628243	310,312794	0
15.01.2021	07:32:55	0	0	4,632342	2,445	12,4848	-0,379	85,627	0	1011,88	6,2	8,4	8,2	1	1	1	1	1	1	1	1	1	0	1	-1,62086	273,548318	315,861248	0
15.01.2021	07:32:56	0	0	4,29339	2,36025	351,7704	-0,379	85,611	0	1011,86	6,2	8,4	8,2	1	1	1	1	1	1	1	1	1	0	1	-0,563777	273,46728	316,542285	0
15.01.2021	07:32:57	0	0	2,259679	2,2875	16,4844	-0,378	85,626	0	1011,9	6,2	8,2	8,2	1	1	1	1	1	1	1	1	1	0	1	-2,114165	273,517889	315,226701	0
15.01.2021	07:32:58	0	0	5,310246	2,42475	5,2308	-0,377	85,637	0	1011,98	6,2	8,4	8,2	1	1	1	1	1	1	1	1	1	0	1	-8,668076	273,596233	309,036532	0
15.01.2021	07:32:59	0	0	4,632342	2,35575	15,5088	-0,381	85,642	0	1011,98	6,2	8,2	8,2	1	1	1	1	1	1	1	1	1	0	1	-2,818887	273,632612	315,054731	0
15.01.2021	07:33:00	0	0	2,485632	2,12325	360	-0,376	85,633	0	1011,94	6,2	8,2	8,3	1	1	1	1	1	1	1	1	1	0	1	-7,470049	273,454288	309,575756	0
15.01.2021	07:33:01	0	0	2,485632	2,12325	360	-0,376	85,633	0	1011,94	6,2	8,2	8,3	1	1	1	1	1	1	1	1	1	0	1	-7,470049	273,454288	309,575756	0
15.01.2021	07:33:02	0	0	4,519358	2,0535	0,864	-0,376	85,633	0	1011,94	6,2	8,4	8,2	1	1	1	1	1	1	1	1	1	0	1	-5,285412	273,514993	312,042016	0
15.01.2021	07:33:03	0	0	4,067398	1,97175	10,0548	-0,378	85,647	0	1012,02	6,2	8,2	8,3	1	1	1	1	1	1	1	1	1	0	1	-3,664553	273,610777	314,107613	0
15.01.2021	07:33:04	0	0	4,29339	1,9635	6,0372	-0,378	85,645	0	1011,86	6,2	8,2	8,2	1	1	1	1	1	1	1	1	1	0	1	-5,990134	273,613686	311,79555	0
15.01.2021	07:33:05	0	0	3,615465	1,86675	8,2728	-0,381	85,624	0	1011,9	6,2	8,4	8,3	1	1	1	1	1	1	1	1	1	0	1	-7,892882	273,533822	309,521934	0
15.01.2021	07:33:06	0	0	3,050567	1,794	10,8288	-0,375	85,637	0	1011,92	6,2	8,2	8,2	1	1	1	1	1	1	1	1	1	0	1	-6,906272	273,447074	310,106079	0
15.01.2021	07:33:07	0	0	3,954415	1,91175	15,4188	-0,381	85,631	0	1011,86	6,2	8,4	8,3	1	1	1	1	1	1	1	1	1	0	1	-4,298802	273,444189	312,700171	0
15.01.2021	07:33:08	0	0	2,937583	1,9725	9,7524	-0,379	85,637	0	1011,96	6,2	8,4	8,2	1	1	1	1	1	1	1	1	1	0	1	-1,832276	273,517889	315,50859	0
15.01.2021	07:33:09	0	0	4,406401	2,01	12,0996	-0,384	85,631	0	1011,82	6,2	8,2	8,1	1	1	1	1	1	1	1	1	1	0	1	-4,22833	273,451402	312,804092	0
15.01.2021	07:33:10	0	0	3,502503	2,082	10,926	-0,377	85,639	0	1012,04	6,2	8,2	8,2	1	1	1	1	1	1	1	1	1	0	1	-2,325581	273,441305	314,660016	0
15.01.2021	07:33:11	0	0	4,85831	2,1165	11,7324	-0,378	85,634	0	1011,84	6,2	8,2	8,2	1	1	1	1	1	1	1	1	1	0	1	-2,818887	273,52513	314,555584	0
15.01.2021	07:33:12	0	0	2,9376	2,13975	10,4436	-0,38	85,635	0	1011,94	6,2	8,2	8,1	1	1	1	1	1	1	1	1	1	0	1	-5,919662	273,461505	311,159614	0
15.01.2021	07:33:13	0	0	4,519385	2,193	5,2164	-0,379	85,626	0	1011,82	6,2	8,2	8,1	1	1	1	1	1	1	1	1	1	0	1	-8,245243	273,596233	309,459365	0
15.01.2021	07:33:14	0	0	4,971294	2,1555	13,158	-0,379	85,645	0	1011,92	6,2	8,2	8,2	1	1	1	1	1	1	1	1	1	0	1	-10,359408	273,596233	307,3452	0
15.01.2021	07:33:15	0	0	3,276535	2,052	15,4008	-0,379	85,624	0	1012,04	6,2	8,4	8,2	1	1	1	1	1	1	1	1	1	0	1	-9,020437	273,623875	308,812583	0
15.01.2021	07:33:16	0	0	3,502482	2,06325	8,9964	-0,381	85,63	0	1011,94	6,2	8,4	8,3	1	1	1	1	1	1	1	1	1	0	1	-6,412967	273,486062	310,780221	0
15.01.2021	07:33:17	0	0	2,937565	2,025	23,2092	-0,38	85,636	0	1011,92	6,2	8,2	8,3	1	1	1	1	1	1	1	1	1	0	1	-8,527132	273,549768	308,961709	0
15.01.2021	07:33:18	0	0	4,067398	2,007	16,8588	-0,376	85,636	0	1011,8	6,2	8,2	8,3	1	1	1	1	1	1	1	1	1	0	1	-6,20155	273,620963	311,617942	0
15.01.2021	07:33:19	0	0	4,85831	1,97625	15,4008	-0,373	85,645	0	1011,88	6,2	8,2	8,2	1	1	1	1	1	1	1	1	1	0	1	-7,117689	273,53672	310,310581	0
15.01.2021	07:33:20	0	0	3,276554	2,16975	8,9964	-0,376	85,644	0	1011,98	6,2	8,2	8,1	1	1	1	1	1	1	1	1	1	0	1	-3,312192	273,606412	314,4397	0
15.01.2021	07:33:21	0	0	2,937583	2,511	4,4136	-0,377	85,63	0	1012	6,2	8,2	8,2	1	1	1	1	1	1	1	1	1	0	1	-1,127555	273,441305	315,858043	0
15.01.2021	07:33:22	0	0	4,745326	2,83425	4,4676	-0,377	85,632	0	1011,96	6,2	8,4	8,2	1	1	1	1	1	1	1	1	1	0	1	-7,117689	273,535271	310,303854	0
15.01.2021	07:33:23	0	0	2,824616	2,91	19,1556	-0,372	85,635	0	1012,06	6,2	8,2	8,1	1	1	1	1	1	1	1	1	1	0	1	-6,553911	273,448517	310,465129	0
15.01.2021	07:33:24	0	0	2,937583	2,77275	21,114	-0,376	85,644	0	1011,94	6,2	8,4	8,2	1	1	1	1	1	1	1	1	1	0	1	-6,20155	273,486062	310,991637	0
15.01.2021	07:33:25	0	0	4,067422	2,88375	8,262	-0,38	85,634	0	1011,86	6,2	8,4	8,2	1	1	1	1	1	1	1	1	1	0	1	-3,946441	273,464392	313,146227	0
15.01.2021	07:33:26	0	0	2,824616	2,95125	13,9248	-0,375	85,633	0	1011,96	6,2	8,2	8,1	1	1	1	1	1	1	1	1	1	0	1	-3,171247	273,434096	313,780923	0
15.01.2021	07:33:27	0	0	2,824599	2,9745	15,4044	-0,375	85,638	0	1011,92	6,2	8,4	8,2	1	1	1	1	1	1	1	1	1	0	1	-2,60747	273,503416	314,666233	0
15.01.2021	07:33:28	0	0	2,485647	2,9325	12,474	-0,373	85,634	0	1011,82	6,2	8,2	8,2	1	1	1	1	1	1	1	1	1	0	1	-7,82241	273,449959	309,203321	0
15.01.2021	07:33:29	0	0	4,180406	2,88375	16,4736	-0,377	85,644	0	1011,92	6,2	8,2	8,2	1	1	1	1	1	1	1	1	1	0	1	-7,399577	273,572987	310,197068	0
15.01.2021	07:33:30	0	0	3,502524	2,79825	16,8588	-0,381	85,629	0	1011,9	6,2	8,4	8,1	1	1	1	1	1	1	1	1	1	0	1	-6,765328	273,452845	310,273786	0
15.01.2021	07:33:31	0	0	5,197262	2,7015	18,0792	-0,379	85,644	0	1012	6,2	8,2	8,2	1	1	1	1	1	1	1	1	1	0	1	-6,131078	273,56718	311,438601	0
15.01.2021	07:33:32	0	0	4,519385	2,54175	22,464	-0,374	85,639	0	1011,98	6,2	8,2	8,1	1	1	1	1	1	1	1	1	1	0	1	-8,597604	273,590419	309,079999	0
15.01.2021	07:33:33	0	0	2,937583	2,32725	24,7104	-0,379	85,63	0	1011,82	6,2	8,2	8,2	1	1	1	1	1	1	1	1	1	0	1	-11,205074	273,461505	305,874202	0
15.01.2021	07:33:34	0	0	4,519385	2,25225	18,0756	-0,377	85,636	0	1011,92	6,2	8,2	8,1	1	1	1	1	1	1	1	1	1	0	1	-7,540521	273,52513	309,833949	0
15.01.2021	07:33:35	0	0	3,163551	2,2995	12,0924	-0,382	85,635	0	1011,9	6,2	8,4	8,2	1	1	1	1	1	1	1	1	1	0	1	-7,470049	273,607867	310,2886	0
15.01.2021	07:33:36	0	0	4,519358	2,448	10,062	-0,379	85,636	0	1011,98	6,2	8,2	8,2	1	1	1	1	1	1	1	1	1	0	1	-4,22833	273,516441	313,105817	0
15.01.2021	07:33:37	0	0	3,615508	2,46375	15,4008	-0,383	85,627	0	1011,8	6,2	8,2	8,1	1	1	1	1	1	1	1	1	1	0	1	-5,567301	273,452845	311,471812	0
15.01.2021	07:33:38	0	0	3,728471	2,3745	10,8216	-0,381	85,637	0	1011,92	6,2	8,2	8,2	1	1	1	1	1	1	1	1	1	0	1	-6,412967	273,460061	310,659613	0
15.01.2021	07:33:39	0	0	3,050585	2,214	16,4808	-0,379	85,634	0	1011,96	6,2	8,2	8,1	1	1	1	1	1	1	1	1	1	0	1	-7,470049	273,55557	310,045728	0
15.01.2021	07:33:40	0	0	4,180406	2,163	16,8516	-0,384	85,634	0	1011,8	6,2	8,2	8,2	1	1	1	1	1	1	1	1	1	0	1	-9,936575	273,600595	307,788294	0
15.01.2021	07:33:41	0	0	3,502524	2,0565	17,694	-0,38	85,631	0	1011,92	6,2	8,2	8,1	1	1	1	1	1	1	1	1	1	0	1	-6,976744	273,52513	310,397726	0
15.01.2021	07:33:42	0	0	3,163551	2,07075	9,378	-0,381	85,631	0	1011,92	6,2	8,4	8,2	1	1	1	1	1	1	1	1	1	0	1	-5,708245	273,600595	312,016624	0
15.01.2021	07:33:43	0	0	4,406401	2,1195	14,2884	-0,382	85,621	0	1011,94	6,2	8,2	8,1	1	1	1	1	1	1	1	1	1	0	1	-3,100775	273,606412	314,651117	0
15.01.2021	07:33:44	0	0	4,632342	2,0865	11,7072	-0,378	85,662	0	1012,18	6,2	8,4	8,2	1	1	1	1	1	1	1	1	1	0	1	-9,231853	273,50631	308,055277	0
15.01.2021	07:33:45	0	0	2,711615	2,001	9,756	-0,38	85,634	0	1011,94	6,2	8,4	8,2	1	1	1	1	1	1	1	1	1	0	1	-10,007047	273,426889	306,911711	0
15.01.2021	07:33:46	0	0	5,084278	1,88175	355,3596	-0,384	85,63	0	1011,92	6,2	8,2	8,2	1	1	1	1	1	1	1	1	1	0	1	-8,668076	273,575891	308,942056	0
15.01.2021	07:33:47	0	0	2,485647	1,7205	358,7004	-0,376	85,611	0	1012,06	6,2	8,4	8,2	1	1	1	1	1	1	1	1	1	0	1	-4,016913	273,631156	313,849936	0
15.01.2021	07:33:48	0	0	3,276535	1,6665	1,9368	-0,372	85,633	0	1011,8	6,2	8,2	8,2	1	1	1	1	1	1	1	1	1	0	1	-4,157858	273,572987	313,438788	0
15.01.2021	07:33:49	0	0	4,406401	1,608	359,7984	-0,381	85,622	0	1011,96	6,2	8,4	8,1	1	1	1	1	1	1	1	1	1	0	1	-5,567301	273,448517	311,451739	0
15.01.2021	07:33:50	0	0	3,728493	1,56375	6,4044	-0,379	85,641	0	1011,96	6,2	8,2	8,1	1	1	1	1	1	1	1	1	1	0	1	-7,892882	273,574439	309,710506	0
15.01.2021	07:33:51	0	0	3,050567	1,57875	7,1352	-0,378	85,62	0	1011,9	6,2	8,2	8,2	1	1	1	1	1	1	1	1	1	0	1	-1,057082	273,602049	316,674541	0
15.01.2021	07:33:52	0	0	2,9376	1,65675	3,3696	-0,377	85,637	0	1011,94	6,2	8,2	8,1	1	1	1	1	1	1	1	1	1	0	1	-0	273,452845	317,039113	0
15.01.2021	07:33:53	0	0	4,067422	1,9005	7,1424	-0,376	85,646	0	1012,02	6,2	8,2	8,2	1	1	1	1	1	1	1	1	1	0	1	-2,818887	273,596233	314,885722	0
15.01.2021	07:33:54	0	0	2,937583	2,09775	2,6424	-0,375	85,641	0	1011,94	6,2	8,2	8,2	1	1	1	1	1	1	1	1	1	0	1	-5,073996	273,451402	311,958426	0
15.01.2021	07:33:55	0	0	4,971294	2,19825	10,044	-0,378	85,648	0	1011,82	6,2	8,4	8,2	1	1	1	1	1	1	1	1	1	0	1	-8,668076	273,552669	308,834231	0
15.01.2021	07:33:56	0	0	4,63237	2,1765	9,756	-0,379	85,622	0	1011,74	6,2	8,4	8,1	1	1	1	1	1	1	1	1	1	0	1	-5,496829	273,620963	312,322664	0
15.01.2021	07:33:57	0	0	2,711615	2,08575	13,1904	-0,377	85,625	0	1011,86	6,2	8,4	8,2	1	1	1	1	1	1	1	1	1	0	1	-5,144468	273,597687	312,566893	0
15.01.2021	07:33:58	0	0	4,406401	1,9365	7,884	-0,38	85,635	0	1011,9	6,2	8,4	8,1	1	1	1	1	1	1	1	1	1	0	1	-6,342495	273,441305	310,643103	0
15.01.2021	07:33:59	0	0	4,293416	1,92	9,7488	-0,376	85,639	0	1012	6,2	8,4	8,1	1	1	1	1	1	1	1	1	1	0	1	-4,721635	273,593326	312,969469	0
15.01.2021	07:34:00	0	0	5,197293	2,13975	31,0248	-0,375	85,641	0	1012	6,2	8,4	8,1	1	1	1	1	1	1	1	1	1	0	1	-4,792107	273,602049	312,939517	0
15.01.2021	07:34:01	0	0	5,197293	2,13975	31,0248	-0,375	85,641	0	1012	6,2	8,4	8,1	1	1	1	1	1	1	1	1	1	0	1	-4,792107	273,602049	312,939517	0
15.01.2021	07:34:02	0	0	3,728493	2,1315	17,6796	-0,379	85,636	0	1011,92	6,2	8,2	8,1	1	1	1	1	1	1	1	1	1	0	1	-3,805497	273,493291	313,421228	0
15.01.2021	07:34:03	0	0	2,259693	2,169	18,8424	-0,383	85,635	0	1011,96	6,2	8,4	8,1	1	1	1	1	1	1	1	1	1	0	1	-10,007047	273,504863	307,273369	0
15.01.2021	07:34:04	0	0	3,728493	2,30625	8,2728	-0,384	85,639	0	1011,92	6,2	8,4	8,1	1	1	1	1	1	1	1	1	1	0	1	-5,637773	273,618052	312,168194	0
15.01.2021	07:34:05	0	0	3,841454	2,55675	6,4296	-0,377	85,633	0	1011,86	6,2	8,2	8,2	1	1	1	1	1	1	1	1	1	0	1	-8,174771	273,530924	309,226594	0
15.01.2021	07:34:06	0	0	3,954415	2,77125	4,842	-0,382	85,632	0	1012	6,2	8,4	8,3	1	1	1	1	1	1	1	1	1	0	1	-7,82241	273,622419	310,003846	0
15.01.2021	07:34:07	0	0	4,971264	2,8785	9,3708	-0,375	85,646	0	1011,9	6,2	8,4	8,3	1	1	1	1	1	1	1	1	1	0	1	-4,510218	273,444189	312,488754	0
15.01.2021	07:34:08	0	0	2,9376	2,976	6,8292	-0,379	85,639	0	1012,06	6,2	8,2	8,1	1	1	1	1	1	1	1	1	1	0	1	-6,906272	273,530924	310,495093	0
15.01.2021	07:34:09	0	0	4,745355	2,916	359,478	-0,377	85,642	0	1012,06	6,2	8,2	8,1	1	1	1	1	1	1	1	1	1	0	1	-3,171247	273,613686	314,614437	0
15.01.2021	07:34:10	0	0	2,9376	2,832	0,1188	-0,377	85,643	0	1011,9	6,2	8,2	8,1	1	1	1	1	1	1	1	1	1	0	1	-3,100775	273,583154	314,543085	0
15.01.2021	07:34:11	0	0	4,067422	2,721	0	-0,379	85,634	0	1012,02	6,2	8,2	8,2	1	1	1	1	1	1	1	1	1	0	1	-1,268499	273,584606	316,382108	0
15.01.2021	07:34:12	0	0	4,29339	2,54775	10,0584	-0,379	85,638	0	1011,7	6,2	8,2	8,2	1	1	1	1	1	1	1	1	1	0	1	-11,41649	273,631156	306,450359	0
15.01.2021	07:34:13	0	0	3,728493	2,40975	7,5204	-0,375	85,647	0	1011,88	6,2	8,2	8,1	1	1	1	1	1	1	1	1	1	0	1	-4,016913	273,512098	313,29708	0
15.01.2021	07:34:14	0	0	3,050567	2,26125	12,4668	-0,376	85,64	0	1012,02	6,2	8,2	8,2	1	1	1	1	1	1	1	1	1	0	1	-5,708245	273,604958	312,03689	0
15.01.2021	07:34:15	0	0	3,050567	2,14275	13,9212	-0,377	85,643	0	1011,82	6,2	8,2	8,2	1	1	1	1	1	1	1	1	1	0	1	-3,735025	273,571535	313,854878	0
15.01.2021	07:34:16	0	0	3,502503	2,1015	19,2528	-0,378	85,654	0	1011,98	6,2	8,2	8,2	1	1	1	1	1	1	1	1	1	0	1	-3,664553	273,499076	313,589013	0
15.01.2021	07:34:17	0	0	3,728493	2,29575	18,4572	-0,377	85,649	0	1011,92	6,2	8,2	8,1	1	1	1	1	1	1	1	1	1	0	1	-3,735025	273,455731	313,317474	0
15.01.2021	07:34:18	0	0	2,937583	2,62725	5,6808	-0,375	85,644	0	1011,86	6,2	8,2	8,2	1	1	1	1	1	1	1	1	1	0	1	-2,043693	273,470169	315,075767	0
15.01.2021	07:34:19	0	0	4,406401	2,7225	21,7728	-0,354	85,666	0	1012,18	6,2	8,2	8,1	1	1	1	1	1	1	1	1	1	0	1	-5,496829	273,549768	311,992012	0
15.01.2021	07:34:20	0	0	4,519385	2,595	20,286	-0,376	85,645	0	1012,04	6,2	8,1	8,1	1	1	1	1	1	1	1	1	1	0	1	-5,990134	273,448517	311,028906	0
15.01.2021	07:34:21	0	0	4,406374	2,6625	16,4736	-0,38	85,629	0	1011,8	6,2	8,4	8,2	1	1	1	1	1	1	1	1	1	0	1	-2,396054	273,557021	315,126459	0
15.01.2021	07:34:22	0	0	3,276535	2,6595	22,4712	-0,375	85,64	0	1011,92	6,2	8,4	8,2	1	1	1	1	1	1	1	1	1	0	1	-7,610994	273,439863	309,367917	0
15.01.2021	07:34:23	0	0	3,389519	2,65575	16,4916	-0,38	85,636	0	1011,96	6,2	8,2	8,2	1	1	1	1	1	1	1	1	1	0	1	-3,382664	273,591872	314,301689	0
15.01.2021	07:34:24	0	0	3,728493	2,649	10,8252	-0,371	85,644	0	1011,98	6,2	8,2	8,1	1	1	1	1	1	1	1	1	1	0	1	-7,399577	273,561374	310,143146	0
15.01.2021	07:34:25	0	0	4,519358	2,6985	11,2032	-0,374	85,634	0	1011,88	6,2	8,2	8,2	1	1	1	1	1	1	1	1	1	0	1	-6,694856	273,604958	311,05028	0
15.01.2021	07:34:26	0	0	4,406401	2,715	15,408	-0,377	85,634	0	1011,98	6,2	8,2	8,1	1	1	1	1	1	1	1	1	1	0	1	-4,439746	273,593326	313,251358	0
15.01.2021	07:34:27	0	0	3,954438	2,79825	10,818	-0,382	85,633	0	1011,88	6,2	8,2	8,2	1	1	1	1	1	1	1	1	1	0	1	-6,342495	273,584606	311,308112	0
15.01.2021	07:34:28	0	0	3,276535	2,86125	7,5096	-0,378	85,638	0	1011,88	6,2	8,2	8,2	1	1	1	1	1	1	1	1	1	0	1	-6,060606	273,461505	311,018669	0
15.01.2021	07:34:29	0	0	4,519358	2,77425	15,03	-0,376	85,647	0	1012	6,2	8,2	8,2	1	1	1	1	1	1	1	1	1	0	1	-7,540521	273,587513	310,123582	0
15.01.2021	07:34:30	0	0	3,163532	2,69925	13,9392	-0,376	85,657	0	1011,96	6,2	8,2	8,3	1	1	1	1	1	1	1	1	1	0	1	-4,933051	273,491845	312,286965	0
15.01.2021	07:34:31	0	0	3,841454	2,673	21,0132	-0,38	85,642	0	1011,86	6,2	8,2	8,2	1	1	1	1	1	1	1	1	1	0	1	-8,315715	273,478836	308,843951	0
15.01.2021	07:34:32	0	0	4,406374	2,74725	14,3172	-0,375	85,643	0	1011,96	6,2	8,2	8,2	1	1	1	1	1	1	1	1	1	0	1	-4,933051	273,50631	312,354079	0
15.01.2021	07:34:33	0	0	3,16357	2,99175	13,1688	-0,374	85,647	0	1011,96	6,2	8,4	8,1	1	1	1	1	1	1	1	1	1	0	1	-4,721635	273,444189	312,277338	0
15.01.2021	07:34:34	0	0	4,745326	3,0855	10,1304	-0,376	85,642	0	1011,9	6,2	8,2	8,2	1	1	1	1	1	1	1	1	1	0	1	-5,073996	273,56718	312,495684	0
15.01.2021	07:34:35	0	0	3,16357	3,0735	12,114	-0,373	85,649	0	1011,82	6,2	8,2	8,1	1	1	1	1	1	1	1	1	1	0	1	-7,258633	273,488953	309,947968	0
15.01.2021	07:34:36	0	0	2,259693	2,967	6,0732	-0,374	85,649	0	1011,9	6,2	8,2	8,1	1	1	1	1	1	1	1	1	1	0	1	-8,527132	273,620963	309,29236	0
15.01.2021	07:34:37	0	0	3,389498	2,80575	6,4296	-0,373	85,648	0	1011,9	6,2	8,2	8,3	1	1	1	1	1	1	1	1	1	0	1	-6,553911	273,475947	310,59235	0
15.01.2021	07:34:38	0	0	2,711599	2,59875	16,11	-0,377	85,647	0	1011,98	6,2	8,4	8,3	1	1	1	1	1	1	1	1	1	0	1	-7,540521	273,452845	309,498592	0
15.01.2021	07:34:39	0	0	3,615508	2,46975	11,214	-0,379	85,637	0	1011,84	6,2	8,2	8,1	1	1	1	1	1	1	1	1	1	0	1	-4,933051	273,612231	312,845873	0
15.01.2021	07:34:40	0	0	5,084278	2,35275	18,8496	-0,379	85,639	0	1011,72	6,2	8,4	8,2	1	1	1	1	1	1	1	1	1	0	1	-8,738548	273,545418	308,730096	0
15.01.2021	07:34:41	0	0	3,502524	2,35125	14,292	-0,38	85,637	0	1011,88	6,2	8,4	8,1	1	1	1	1	1	1	1	1	1	0	1	-4,510218	273,449959	312,515512	0
15.01.2021	07:34:42	0	0	5,42323	2,37975	16,1064	-0,372	85,639	0	1011,92	6,2	8,2	8,2	1	1	1	1	1	1	1	1	1	0	1	-12,473573	273,587513	305,190531	0
15.01.2021	07:34:43	0	0	3,728493	2,3955	16,4844	-0,37	85,648	0	1012,04	6,2	8,2	8,1	1	1	1	1	1	1	1	1	1	0	1	-5,144468	273,490399	312,06884	0
15.01.2021	07:34:44	0	0	4,29339	2,49225	14,67	-0,371	85,636	0	1011,98	6,2	8,2	8,2	1	1	1	1	1	1	1	1	1	0	1	-4,862579	273,42833	312,06286	0
15.01.2021	07:34:45	0	0	4,180406	2,33775	20,2716	-0,374	85,617	0	1011,84	6,2	8,2	8,2	1	1	1	1	1	1	1	1	1	0	1	-8,104299	273,552669	309,398009	0
15.01.2021	07:34:46	0	0	2,598647	2,31	10,8216	-0,374	85,619	0	1011,94	6,2	8,4	8,1	1	1	1	1	1	1	1	1	1	0	1	-6,131078	273,603503	311,607301	0
15.01.2021	07:34:47	0	0	3,389519	2,28675	15,7968	-0,37	85,646	0	1011,92	6,2	8,2	8,2	1	1	1	1	1	1	1	1	1	0	1	-6,483439	273,449959	310,542292	0
15.01.2021	07:34:48	0	0	3,502524	2,22975	12,096	-0,371	85,638	0	1011,98	6,2	8,2	8,1	1	1	1	1	1	1	1	1	1	0	1	-4,087385	273,545418	313,381259	0
15.01.2021	07:34:49	0	0	4,406401	2,2215	12,8556	-0,369	85,64	0	1011,96	6,2	8,2	8,1	1	1	1	1	1	1	1	1	1	0	1	-5,003524	273,607867	312,755125	0
15.01.2021	07:34:50	0	0	4,519358	2,2515	8,6148	-0,367	85,641	0	1011,92	6,2	8,2	8,2	1	1	1	1	1	1	1	1	1	0	1	-4,792107	273,571535	312,797796	0
15.01.2021	07:34:51	0	0	2,711615	2,20875	4,0788	-0,375	85,647	0	1011,88	6,2	8,4	8,2	1	1	1	1	1	1	1	1	1	0	1	-10,077519	273,461505	307,001756	0
15.01.2021	07:34:52	0	0	2,824599	2,118	5,2308	-0,373	85,646	0	1011,94	6,2	8,4	8,2	1	1	1	1	1	1	1	1	1	0	1	-4,087385	273,607867	313,671264	0
15.01.2021	07:34:53	0	0	4,63237	2,1675	1,926	-0,371	85,641	0	1012,02	6,2	8,2	8,1	1	1	1	1	1	1	1	1	1	0	1	-3,946441	273,530924	313,454924	0
15.01.2021	07:34:54	0	0	3,050585	2,27625	360	-0,377	85,628	0	1011,8	6,2	8,1	8,1	1	1	1	1	1	1	1	1	1	0	1	-5,285412	273,513546	312,035298	0
15.01.2021	07:34:55	0	0	4,406374	2,2905	12,8448	-0,375	85,631	0	1012,16	6,2	8,2	8,2	1	1	1	1	1	1	1	1	1	0	1	-3,59408	273,623875	314,238939	0
15.01.2021	07:34:56	0	0	3,615508	2,211	21,3732	-0,371	85,625	0	1011,94	6,2	8,4	8,1	1	1	1	1	1	1	1	1	1	0	1	-2,536998	273,564277	315,019202	0
15.01.2021	07:34:57	0	0	2,485662	2,1555	15,3864	-0,381	85,635	0	1011,74	6,2	8,2	8,1	1	1	1	1	1	1	1	1	1	0	1	-5,637773	273,449959	311,387958	0
15.01.2021	07:34:58	0	0	3,841478	2,08875	17,6832	-0,374	85,649	0	1011,98	6,2	8,4	8,1	1	1	1	1	1	1	1	1	1	0	1	-8,527132	273,535271	308,894411	0
15.01.2021	07:34:59	0	0	3,276535	2,034	19,8936	-0,368	85,643	0	1011,96	6,2	8,1	8,2	1	1	1	1	1	1	1	1	1	0	1	-6,060606	273,562825	311,488855	0
15.01.2021	07:35:00	0	0	4,745355	2,1525	16,8444	-0,375	85,641	0	1011,98	6,2	8,2	8,1	1	1	1	1	1	1	1	1	1	0	1	-4,369274	273,546868	313,106102	0
15.01.2021	07:35:01	0	0	4,745355	2,1525	16,8444	-0,375	85,641	0	1011,98	6,2	8,2	8,1	1	1	1	1	1	1	1	1	1	0	1	-4,369274	273,546868	313,106102	0
15.01.2021	07:35:02	0	0	2,937583	2,2305	6,0768	-0,366	85,642	0	1012	6,2	8,2	8,2	1	1	1	1	1	1	1	1	1	0	1	-8,245243	273,462949	308,840728	0
15.01.2021	07:35:03	0	0	4,745298	2,3925	12,1932	-0,368	85,654	0	1012,02	6,2	8,4	8,3	1	1	1	1	1	1	1	1	1	0	1	-5,496829	273,603503	312,24155	0
15.01.2021	07:35:04	0	0	3,841454	2,44425	2,3004	-0,374	85,645	0	1011,9	6,2	8,2	8,2	1	1	1	1	1	1	1	1	1	0	1	-0,98661	273,464392	316,106058	0
15.01.2021	07:35:05	0	0	4,519331	2,38575	359,0784	-0,369	85,646	0	1011,96	6,2	8,4	8,3	1	1	1	1	1	1	1	1	1	0	1	-5,285412	273,535271	312,13613	0
15.01.2021	07:35:06	0	0	3,728448	2,35125	360	-0,369	85,632	0	1011,78	6,2	8,4	8,3	1	1	1	1	1	1	1	1	1	0	1	-5,144468	273,748024	313,265775	0
15.01.2021	07:35:07	0	0	3,050567	2,34075	4,4676	-0,37	85,647	0	1011,94	6,2	8,2	8,2	1	1	1	1	1	1	1	1	1	0	1	-7,188161	273,490399	310,025148	0
15.01.2021	07:35:08	0	0	2,485647	2,352	6,0516	-0,375	85,646	0	1011,82	6,2	8,4	8,2	1	1	1	1	1	1	1	1	1	0	1	-4,651163	273,571535	312,93874	0
15.01.2021	07:35:09	0	0	3,954462	2,43075	357,948	-0,377	85,621	0	1011,94	6,2	8,4	8,1	1	1	1	1	1	1	1	1	1	0	1	-3,523608	273,444189	313,475365	0
15.01.2021	07:35:10	0	0	2,824599	2,6115	357,9876	-0,375	85,642	0	1011,92	6,2	8,4	8,2	1	1	1	1	1	1	1	1	1	0	1	-0	273,539619	317,441725	0
15.01.2021	07:35:11	0	0	4,63237	2,78625	5,2056	-0,375	85,625	0	1011,78	6,2	8,4	8,1	1	1	1	1	1	1	1	1	1	0	1	-5,21494	273,609322	312,550467	0
15.01.2021	07:35:12	0	0	4,406374	2,826	7,506	-0,38	85,64	0	1011,86	6,2	8,2	8,2	1	1	1	1	1	1	1	1	1	0	1	-4,792107	273,529475	312,602533	0
15.01.2021	07:35:13	0	0	3,389519	2,685	13,5396	-0,371	85,646	0	1011,9	6,2	8,2	8,2	1	1	1	1	1	1	1	1	1	0	1	-4,651163	273,615142	313,141282	0
15.01.2021	07:35:14	0	0	4,632342	2,54475	19,5264	-0,371	85,648	0	1012,06	6,2	8,2	8,2	1	1	1	1	1	1	1	1	1	0	1	-3,664553	273,523681	313,703196	0
15.01.2021	07:35:15	0	0	3,050567	2,45775	16,4844	-0,369	85,638	0	1011,98	6,2	8,2	8,2	1	1	1	1	1	1	1	1	1	0	1	-6,20155	273,610777	311,570615	0
15.01.2021	07:35:16	0	0	3,050585	2,532	12,1104	-0,372	85,621	0	1011,88	6,2	8,2	8,1	1	1	1	1	1	1	1	1	1	0	1	-5,567301	273,602049	312,164323	0
15.01.2021	07:35:17	0	0	4,85831	2,59725	16,4844	-0,368	85,641	0	1011,86	6,2	8,2	8,2	1	1	1	1	1	1	1	1	1	0	1	-3,030303	273,509204	314,270258	0
15.01.2021	07:35:18	0	0	3,050585	2,65275	21,78	-0,375	85,647	0	1012,12	6,2	8,2	8,1	1	1	1	1	1	1	1	1	1	0	1	-3,382664	273,596233	314,321944	0
15.01.2021	07:35:19	0	0	5,084278	2,6625	2,304	-0,375	85,641	0	1011,92	6,2	8,4	8,2	1	1	1	1	1	1	1	1	1	0	1	-6,8358	273,438421	310,136425	0
15.01.2021	07:35:20	0	0	3,16357	2,685	8,2584	-0,371	85,642	0	1012,02	6,2	8,4	8,1	1	1	1	1	1	1	1	1	1	0	1	-6,342495	273,478836	310,817171	0
15.01.2021	07:35:21	0	0	4,858339	2,688	4,842	-0,375	85,642	0	1011,78	6,2	8,4	8,1	1	1	1	1	1	1	1	1	1	0	1	-5,708245	273,588966	311,962608	0
15.01.2021	07:35:22	0	0	4,745326	2,72925	9,144	-0,366	85,639	0	1011,92	6,2	8,2	8,2	1	1	1	1	1	1	1	1	1	0	1	-10,288936	273,619508	307,523794	0
15.01.2021	07:35:23	0	0	2,711615	2,54175	0,4896	-0,374	85,638	0	1011,84	6,2	8,2	8,2	1	1	1	1	1	1	1	1	1	0	1	-4,933051	273,549768	312,555789	0
15.01.2021	07:35:24	0	0	3,954415	2,57325	360	-0,369	85,643	0	1012	6,2	8,4	8,3	1	1	1	1	1	1	1	1	1	0	1	-3,171247	273,432654	313,774239	0
15.01.2021	07:35:25	0	0	4,971294	2,56125	10,4436	-0,377	85,644	0	1011,86	6,2	8,2	8,2	1	1	1	1	1	1	1	1	1	0	1	-5,21494	273,528027	312,172976	0
15.01.2021	07:35:26	0	0	4,406401	2,41275	10,0656	-0,368	85,645	0	1011,96	6,2	8,2	8,1	1	1	1	1	1	1	1	1	1	0	1	-6,412967	273,607867	311,345682	0
15.01.2021	07:35:27	0	0	2,824616	2,2965	13,1508	-0,369	85,645	0	1011,96	6,2	8,4	8,1	1	1	1	1	1	1	1	1	1	0	1	-7,610994	273,455731	309,441505	0
15.01.2021	07:35:28	0	0	4,63237	2,5395	21,0204	-0,37	85,654	0	1011,94	6,2	8,2	8,1	1	1	1	1	1	1	1	1	1	0	1	-6,8358	273,548318	310,646308	0
15.01.2021	07:35:29	0	0	3,954438	2,817	15,1452	-0,37	85,654	0	1012	6,2	8,4	8,2	1	1	1	1	1	1	1	1	1	0	1	-6,553911	273,610777	311,218254	0
15.01.2021	07:35:30	0	0	2,824616	3,276	8,6148	-0,374	85,649	0	1011,82	6,2	8,4	8,1	1	1	1	1	1	1	1	1	1	0	1	-0	273,464392	317,092668	0
15.01.2021	07:35:31	0	0	4,63237	3,29625	3,0096	-0,373	85,647	0	1011,78	6,2	8,4	8,1	1	1	1	1	1	1	1	1	1	0	1	-6,906272	273,625331	310,933512	0
15.01.2021	07:35:32	0	0	4,85831	3,099	1,9332	-0,369	85,643	0	1011,94	6,2	8,4	8,2	1	1	1	1	1	1	1	1	1	0	1	-4,298802	273,565728	313,264138	0
15.01.2021	07:35:33	0	0	3,389519	3,045	10,4508	-0,371	85,652	0	1011,96	6,2	8,2	8,2	1	1	1	1	1	1	1	1	1	0	1	-3,664553	273,513546	313,656158	0
15.01.2021	07:35:34	0	0	4,29339	3,039	357,03	-0,376	85,65	0	1011,96	6,2	8,2	8,2	1	1	1	1	1	1	1	1	1	0	1	-4,510218	273,448517	312,508822	0
15.01.2021	07:35:35	0	0	3,050585	3,174	17,244	-0,375	85,631	0	1011,98	6,2	8,4	8,1	1	1	1	1	1	1	1	1	1	0	1	-1,832276	273,462949	315,253695	0
15.01.2021	07:35:36	0	0	4,519385	3,0105	26,172	-0,368	85,649	0	1012,02	6,2	8,3	8,1	1	1	1	1	1	1	1	1	1	0	1	-5,285412	273,455731	311,767086	0
15.01.2021	07:35:37	0	0	3,615487	2,87025	21,0024	-0,371	85,645	0	1011,9	6,2	8,4	8,2	1	1	1	1	1	1	1	1	1	0	1	-4,439746	273,421126	312,452293	0
15.01.2021	07:35:38	0	0	3,502503	2,73675	22,464	-0,375	85,62	0	1011,8	6,2	8,2	8,2	1	1	1	1	1	1	1	1	1	0	1	-2,466526	273,535271	314,955017	0
15.01.2021	07:35:39	0	0	2,598615	2,7645	19,9008	-0,365	85,641	0	1012	6,2	8,2	8,3	1	1	1	1	1	1	1	1	1	0	1	-2,255109	273,613686	315,530575	0
15.01.2021	07:35:40	0	0	2,9376	2,69325	11,2032	-0,37	85,634	0	1011,9	6,2	8,4	8,1	1	1	1	1	1	1	1	1	1	0	1	-5,355884	273,439863	311,623027	0
15.01.2021	07:35:41	0	0	4,406374	2,59275	16,8624	-0,372	85,641	0	1011,94	6,2	8,2	8,2	1	1	1	1	1	1	1	1	1	0	1	-7,470049	273,549768	310,018791	0
15.01.2021	07:35:42	0	0	3,050567	2,41125	25,0308	-0,37	85,649	0	1011,9	6,2	8,2	8,2	1	1	1	1	1	1	1	1	1	0	1	-5,144468	273,435537	311,814387	0
15.01.2021	07:35:43	0	0	4,180431	2,2005	22,8384	-0,367	85,642	0	1011,78	6,2	8,4	8,1	1	1	1	1	1	1	1	1	1	0	1	-5,144468	273,571535	312,445435	0
15.01.2021	07:35:44	0	0	4,745355	2,26125	16,8624	-0,376	85,648	0	1011,98	6,2	8,2	8,1	1	1	1	1	1	1	1	1	1	0	1	-8,527132	273,552669	308,975176	0
15.01.2021	07:35:45	0	0	4,406374	2,4555	3,7728	-0,373	85,636	0	1011,98	6,2	8,4	8,2	1	1	1	1	1	1	1	1	1	0	1	-3,312192	273,622419	314,514064	0
15.01.2021	07:35:46	0	0	4,745326	2,78325	1,17	-0,372	85,642	0	1012,04	6,2	8,4	8,2	1	1	1	1	1	1	1	1	1	0	1	-4,792107	273,548318	312,690001	0
15.01.2021	07:35:47	0	0	4,519385	2,95875	2,2968	-0,366	85,645	0	1012,12	6,2	8,4	8,1	1	1	1	1	1	1	1	1	1	0	1	-4,157858	273,429772	312,774263	0
15.01.2021	07:35:48	0	0	4,858339	2,80875	4,4676	-0,375	85,628	0	1011,84	6,2	8,4	8,1	1	1	1	1	1	1	1	1	1	0	1	-6,131078	273,565728	311,431861	0
15.01.2021	07:35:49	0	0	3,163532	2,787	9,3816	-0,375	85,635	0	1011,82	6,2	8,4	8,3	1	1	1	1	1	1	1	1	1	0	1	-4,016913	273,602049	313,71471	0
15.01.2021	07:35:50	0	0	2,824582	2,8275	13,5504	-0,373	85,637	0	1012,02	6,2	8,2	8,3	1	1	1	1	1	1	1	1	1	0	1	-1,479915	273,590419	316,197687	0
15.01.2021	07:35:51	0	0	3,615487	3,00525	12,0924	-0,375	85,625	0	1011,72	6,2	8,2	8,2	1	1	1	1	1	1	1	1	1	0	1	-6,20155	273,529475	311,19309	0
15.01.2021	07:35:52	0	0	2,937583	3,33525	6,0768	-0,371	85,641	0	1011,96	6,2	8,4	8,2	1	1	1	1	1	1	1	1	1	0	1	-6,131078	273,434096	310,821092	0
15.01.2021	07:35:53	0	0	3,389539	3,369	7,128	-0,37	85,63	0	1012,02	6,2	8,4	8,1	1	1	1	1	1	1	1	1	1	0	1	-0	273,484617	317,186482	0
15.01.2021	07:35:54	0	0	4,519358	3,327	15,4152	-0,371	85,658	0	1012,24	6,2	8,2	8,2	1	1	1	1	1	1	1	1	1	0	1	-3,100775	273,53817	314,334222	0
15.01.2021	07:35:55	0	0	3,276554	3,1995	18,0936	-0,371	85,637	0	1011,86	6,2	8,3	8,1	1	1	1	1	1	1	1	1	1	0	1	-7,892882	273,557021	309,62963	0
15.01.2021	07:35:56	0	0	4,745326	3,093	9,3744	-0,369	85,621	0	1011,92	6,2	8,4	8,2	1	1	1	1	1	1	1	1	1	0	1	-3,030303	273,586059	314,627052	0
15.01.2021	07:35:57	0	0	4,745355	3,22275	14,6484	-0,374	85,645	0	1011,92	6,2	8,2	8,1	1	1	1	1	1	1	1	1	1	0	1	-3,875969	273,549768	313,612872	0
15.01.2021	07:35:58	0	0	4,519358	3,26175	10,0728	-0,369	85,649	0	1012,06	6,2	8,1	8,2	1	1	1	1	1	1	1	1	1	0	1	-4,157858	273,439863	312,821053	0
15.01.2021	07:35:59	0	0	3,728493	3,30975	8,6148	-0,372	85,653	0	1011,68	6,2	8,2	8,1	1	1	1	1	1	1	1	1	1	0	1	-4,298802	273,451402	312,73362	0
15.01.2021	07:36:00	0	0	4,85831	3,3615	6,8076	-0,376	85,647	0	1011,86	6,2	8,2	8,2	1	1	1	1	1	1	1	1	1	0	1	-2,748414	273,599141	314,9697	0
15.01.2021	07:36:01	0	0	4,85831	3,3615	6,8076	-0,376	85,647	0	1011,86	6,2	8,2	8,2	1	1	1	1	1	1	1	1	1	0	1	-2,748414	273,599141	314,9697	0
15.01.2021	07:36:02	0	0	4,632342	3,36375	9,2016	-0,371	85,651	0	1011,9	6,2	8,4	8,2	1	1	1	1	1	1	1	1	1	0	1	-5,567301	273,548318	311,914807	0
15.01.2021	07:36:03	0	0	3,615465	3,39675	11,718	-0,379	85,644	0	1011,96	6,2	8,4	8,3	1	1	1	1	1	1	1	1	1	0	1	-10,077519	273,444189	306,921454	0
15.01.2021	07:36:04	0	0	3,728471	3,3315	10,4472	-0,374	85,646	0	1011,98	6,2	8,2	8,2	1	1	1	1	1	1	1	1	1	0	1	-3,523608	273,490399	313,6897	0
15.01.2021	07:36:05	0	0	4,293416	3,165	9,4644	-0,368	85,631	0	1012,04	6,2	8,4	8,1	1	1	1	1	1	1	1	1	1	0	1	-6,765328	273,549768	310,723513	0
15.01.2021	07:36:06	0	0	3,954415	3,09375	7,9092	-0,373	85,647	0	1011,84	6,2	8,4	8,3	1	1	1	1	1	1	1	1	1	0	1	-9,44327	273,628243	308,410046	0
15.01.2021	07:36:07	0	0	3,276554	3,04575	10,0548	-0,382	85,63	0	1011,9	6,2	8,2	8,1	1	1	1	1	1	1	1	1	1	0	1	-9,513742	273,512098	307,800251	0
15.01.2021	07:36:08	0	0	3,389519	3,0735	6,8256	-0,37	85,672	0	1012,24	6,2	8,4	8,2	1	1	1	1	1	1	1	1	1	0	1	-4,862579	273,436979	312,10296	0
15.01.2021	07:36:09	0	0	4,745355	2,98425	4,482	-0,376	85,632	0	1011,86	6,2	8,2	8,1	1	1	1	1	1	1	1	1	1	0	1	-5,84919	273,471613	311,27697	0
15.01.2021	07:36:10	0	0	4,406374	2,9805	6,084	-0,369	85,646	0	1012,02	6,2	8,4	8,2	1	1	1	1	1	1	1	1	1	0	1	-8,315715	273,613686	309,469969	0
15.01.2021	07:36:11	0	0	2,485647	3,02025	1,188	-0,374	85,647	0	1012	6,2	8,3	8,2	1	1	1	1	1	1	1	1	1	0	1	-3,523608	273,610777	314,248557	0
15.01.2021	07:36:12	0	0	4,406401	3,20475	2,3004	-0,374	85,635	0	1011,88	6,2	8,2	8,1	1	1	1	1	1	1	1	1	1	0	1	-2,748414	273,532373	314,659676	0
15.01.2021	07:36:13	0	0	3,728493	3,23775	11,7216	-0,367	85,623	0	1012,06	6,2	8,2	8,1	1	1	1	1	1	1	1	1	1	0	1	-5,567301	273,436979	311,398238	0
15.01.2021	07:36:14	0	0	4,971294	3,237	8,9964	-0,366	85,646	0	1011,98	6,2	8,2	8,2	1	1	1	1	1	1	1	1	1	0	1	-3,735025	273,442747	313,25726	0
15.01.2021	07:36:15	0	0	4,180406	3,14925	3,0312	-0,375	85,644	0	1011,94	6,2	8,2	8,2	1	1	1	1	1	1	1	1	1	0	1	-1,127555	273,55412	316,381487	0
15.01.2021	07:36:16	0	0	4,067447	3,15075	353,9772	-0,376	85,642	0	1011,88	6,2	8,4	8,1	1	1	1	1	1	1	1	1	1	0	1	-1,902748	273,603503	315,835631	0
15.01.2021	07:36:17	0	0	3,050585	3,13575	7,5204	-0,38	85,623	0	1011,86	6,2	8,3	8,1	1	1	1	1	1	1	1	1	1	0	1	-2,818887	273,507757	314,474959	0
15.01.2021	07:36:18	0	0	3,841454	2,84475	10,0692	-0,368	85,653	0	1011,92	6,2	8,4	8,2	1	1	1	1	1	1	1	1	1	0	1	-3,735025	273,454288	313,310781	0
15.01.2021	07:36:19	0	0	2,824599	2,5035	3,0096	-0,376	85,633	0	1011,94	6,2	8,4	8,2	1	1	1	1	1	1	1	1	1	0	1	-4,580691	273,609322	313,184716	0
15.01.2021	07:36:20	0	0	4,067422	2,3475	353,6208	-0,376	85,645	0	1011,88	6,2	8,3	8,2	1	1	1	1	1	1	1	1	1	0	1	-5,426357	273,551219	312,069217	0
15.01.2021	07:36:21	0	0	3,841478	2,36025	10,4508	-0,378	85,636	0	1011,9	6,2	8,3	8,1	1	1	1	1	1	1	1	1	1	0	1	-4,087385	273,599141	313,630729	0
15.01.2021	07:36:22	0	0	4,067422	2,1765	10,4472	-0,374	85,634	0	1011,96	6,2	8,3	8,2	1	1	1	1	1	1	1	1	1	0	1	-5,21494	273,548318	312,267168	0
15.01.2021	07:36:23	0	0	3,728493	2,04975	19,5156	-0,375	85,638	0	1011,96	6,2	8,4	8,1	1	1	1	1	1	1	1	1	1	0	1	-4,862579	273,594779	312,835277	0
15.01.2021	07:36:24	0	0	4,519385	1,97625	17,6832	-0,377	85,623	0	1011,86	6,2	8,4	8,1	1	1	1	1	1	1	1	1	1	0	1	-4,721635	273,600595	313,003234	0
15.01.2021	07:36:25	0	0	4,067447	1,94025	16,0956	-0,376	85,628	0	1011,9	6,2	8,4	8,1	1	1	1	1	1	1	1	1	1	0	1	-0,634249	273,539619	316,807476	0
15.01.2021	07:36:26	0	0	3,728471	1,8765	11,7216	-0,374	85,62	0	1011,92	6,2	8,2	8,2	1	1	1	1	1	1	1	1	1	0	1	-2,536998	273,599141	315,181117	0
15.01.2021	07:36:27	0	0	4,293416	1,94775	8,9892	-0,376	85,63	0	1011,92	6,2	8,4	8,1	1	1	1	1	1	1	1	1	1	0	1	-5,567301	273,587513	312,096803	0
15.01.2021	07:36:28	0	0	3,389539	2,0955	0,1332	-0,375	85,634	0	1011,82	6,2	8,4	8,1	1	1	1	1	1	1	1	1	1	0	1	-1,198027	273,462949	315,887945	0
15.01.2021	07:36:29	0	0	3,502482	2,33775	359,4132	-0,368	85,644	0	1011,88	6,2	8,4	8,3	1	1	1	1	1	1	1	1	1	0	1	-0,98661	273,636982	316,907314	0
15.01.2021	07:36:30	0	0	4,067447	2,5425	6,066	-0,372	85,628	0	1012,02	6,2	8,2	8,1	1	1	1	1	1	1	1	1	1	0	1	-2,677942	273,543968	314,783972	0
15.01.2021	07:36:31	0	0	2,372677	2,7435	12,852	-0,368	85,636	0	1012	6,2	8,2	8,1	1	1	1	1	1	1	1	1	1	0	1	-6,131078	273,465836	310,968287	0
15.01.2021	07:36:32	0	0	3,728471	2,9715	5,6808	-0,373	85,632	0	1011,9	6,2	8,4	8,2	1	1	1	1	1	1	1	1	1	0	1	-3,664553	273,439863	313,314358	0
15.01.2021	07:36:33	0	0	2,824616	3,174	6,0696	-0,379	85,627	0	1011,76	6,2	8,2	8,1	1	1	1	1	1	1	1	1	1	0	1	-1,550388	273,546868	315,924988	0
15.01.2021	07:36:34	0	0	4,406401	3,249	10,4436	-0,372	85,631	0	1011,96	6,2	8,4	8,1	1	1	1	1	1	1	1	1	1	0	1	-4,157858	273,606412	313,594034	0
15.01.2021	07:36:35	0	0	2,711631	3,2385	6,0696	-0,373	85,611	0	1011,88	6,2	8,4	8,1	1	1	1	1	1	1	1	1	1	0	1	-7,047216	273,454288	309,998589	0
15.01.2021	07:36:36	0	0	2,711631	3,18225	5,6952	-0,371	85,627	0	1011,86	6,2	8,4	8,1	1	1	1	1	1	1	1	1	1	0	1	-5,84919	273,503416	311,424513	0
15.01.2021	07:36:37	0	0	4,63237	3,30975	7,5132	-0,372	85,634	0	1011,82	6,2	8,4	8,1	1	1	1	1	1	1	1	1	1	0	1	-5,84919	273,599141	311,868925	0
15.01.2021	07:36:38	0	0	3,163551	3,15525	9,738	-0,374	85,634	0	1011,92	6,2	8,2	8,2	1	1	1	1	1	1	1	1	1	0	1	-3,664553	273,532373	313,743538	0
15.01.2021	07:36:39	0	0	3,502524	3,24525	13,1616	-0,368	85,629	0	1011,96	6,2	8,2	8,1	1	1	1	1	1	1	1	1	1	0	1	-2,536998	273,454288	314,508808	0
15.01.2021	07:36:40	0	0	3,16357	3,12675	9,756	-0,37	85,642	0	1011,98	6,2	8,2	8,1	1	1	1	1	1	1	1	1	1	0	1	-5,84919	273,461505	311,230086	0
15.01.2021	07:36:41	0	0	2,485662	3,10725	2,3148	-0,366	85,641	0	1012,02	6,2	8,4	8,1	1	1	1	1	1	1	1	1	1	0	1	-9,44327	273,56718	308,12641	0
15.01.2021	07:36:42	0	0	4,406401	3,06375	355,8564	-0,369	85,635	0	1011,96	6,2	8,2	8,1	1	1	1	1	1	1	1	1	1	0	1	-5,567301	273,632612	312,306316	0
15.01.2021	07:36:43	0	0	3,728493	3,12075	7,128	-0,372	85,642	0	1012	6,2	8,1	8,1	1	1	1	1	1	1	1	1	1	0	1	-3,312192	273,559923	314,223794	0
15.01.2021	07:36:44	0	0	4,745355	3,04725	354,4812	-0,371	85,667	0	1012,26	6,2	8,4	8,1	1	1	1	1	1	1	1	1	1	0	1	-8,315715	273,434096	308,636455	0
15.01.2021	07:36:45	0	0	3,502524	2,91975	0	-0,374	85,632	0	1011,96	6,2	8,2	8,1	1	1	1	1	1	1	1	1	1	0	1	-8,45666	273,514993	308,870769	0
15.01.2021	07:36:46	0	0	4,067422	2,80125	1,9224	-0,373	85,642	0	1011,92	6,2	8,4	8,2	1	1	1	1	1	1	1	1	1	0	1	-2,677942	273,442747	314,314343	0
15.01.2021	07:36:47	0	0	3,389539	2,59575	15,0156	-0,367	85,641	0	1011,96	6,2	8,4	8,1	1	1	1	1	1	1	1	1	1	0	1	-5,21494	273,488953	311,991661	0
15.01.2021	07:36:48	0	0	4,971324	2,4465	6,4476	-0,373	85,632	0	1012	6,2	8,2	8,1	1	1	1	1	1	1	1	1	1	0	1	-2,889359	273,503416	314,384344	0
15.01.2021	07:36:49	0	0	2,9376	2,307	24,7176	-0,371	85,65	0	1011,9	6,2	8,4	8,1	1	1	1	1	1	1	1	1	1	0	1	-5,073996	273,435537	311,884859	0
15.01.2021	07:36:50	0	0	2,937583	2,064	13,5576	-0,37	85,627	0	1011,84	6,2	8,4	8,2	1	1	1	1	1	1	1	1	1	0	1	-6,624383	273,551219	310,87119	0
15.01.2021	07:36:51	0	0	4,406401	1,94925	13,158	-0,374	85,634	0	1011,82	6,2	8,4	8,1	1	1	1	1	1	1	1	1	1	0	1	-7,188161	273,610777	310,584005	0
15.01.2021	07:36:52	0	0	4,745355	2,085	18,0864	-0,368	85,63	0	1011,92	6,2	8,2	8,1	1	1	1	1	1	1	1	1	1	0	1	-1,62086	273,452845	315,418254	0
15.01.2021	07:36:53	0	0	3,502503	2,16225	20,628	-0,367	85,635	0	1011,9	6,2	8,4	8,2	1	1	1	1	1	1	1	1	1	0	1	-2,043693	273,546868	315,431683	0
15.01.2021	07:36:54	0	0	2,824599	2,12325	20,2932	-0,374	85,638	0	1011,96	6,2	8,2	8,2	1	1	1	1	1	1	1	1	1	0	1	-4,22833	273,473057	312,90453	0
15.01.2021	07:36:55	0	0	3,615487	2,103	16,4808	-0,374	85,634	0	1011,9	6,2	8,2	8,2	1	1	1	1	1	1	1	1	1	0	1	-5,003524	273,565728	312,559416	0
15.01.2021	07:36:56	0	0	2,824599	2,02125	16,488	-0,361	85,638	0	1011,86	6,2	8,4	8,2	1	1	1	1	1	1	1	1	1	0	1	-3,523608	273,50631	313,763522	0
15.01.2021	07:36:57	0	0	4,745326	2,2035	21,7728	-0,367	85,645	0	1011,96	6,2	8,4	8,2	1	1	1	1	1	1	1	1	1	0	1	-3,664553	273,441305	313,321045	0
15.01.2021	07:36:58	0	0	3,841454	2,229	13,1508	-0,374	85,645	0	1011,92	6,2	8,2	8,2	1	1	1	1	1	1	1	1	1	0	1	-4,651163	273,493291	312,575562	0
15.01.2021	07:36:59	0	0	4,067447	2,2215	18,4572	-0,374	85,646	0	1012,06	6,2	8,2	8,1	1	1	1	1	1	1	1	1	1	0	1	-10,852713	273,445632	306,152948	0
15.01.2021	07:37:00	0	0	4,406401	2,09325	6,0624	-0,373	85,649	0	1011,88	6,2	8,3	8,1	1	1	1	1	1	1	1	1	1	0	1	-8,949965	273,532373	308,458125	0
15.01.2021	07:37:01	0	0	4,406401	2,09325	6,0624	-0,373	85,649	0	1011,88	6,2	8,3	8,1	1	1	1	1	1	1	1	1	1	0	1	-8,949965	273,532373	308,458125	0
15.01.2021	07:37:02	0	0	3,276554	2,20575	17,7084	-0,373	85,645	0	1012,04	6,2	8,2	8,1	1	1	1	1	1	1	1	1	1	0	1	-1,62086	273,607867	316,137789	0
15.01.2021	07:37:03	0	0	3,16357	2,3085	6,0696	-0,371	85,641	0	1011,96	6,2	8,4	8,1	1	1	1	1	1	1	1	1	1	0	1	-5,003524	273,519337	312,344062	0
15.01.2021	07:37:04	0	0	3,728471	2,61375	8,2584	-0,367	85,642	0	1011,96	6,2	8,3	8,2	1	1	1	1	1	1	1	1	1	0	1	-6,553911	273,470169	310,565549	0
15.01.2021	07:37:05	0	0	4,293416	2,80275	12,4704	-0,373	85,63	0	1011,96	6,2	8,4	8,1	1	1	1	1	1	1	1	1	1	0	1	-3,805497	273,625331	314,034288	0
15.01.2021	07:37:06	0	0	5,197262	2,94	1,9368	-0,372	85,639	0	1011,84	6,2	8,4	8,2	1	1	1	1	1	1	1	1	1	0	1	-5,426357	273,570083	312,156805	0
15.01.2021	07:37:07	0	0	4,519358	3,19125	348,7104	-0,375	85,625	0	1011,88	6,2	8,2	8,2	1	1	1	1	1	1	1	1	1	0	1	-5,355884	273,593326	312,33522	0
15.01.2021	07:37:08	0	0	4,519385	3,33075	8,2584	-0,375	85,636	0	1011,78	6,2	8,2	8,1	1	1	1	1	1	1	1	1	1	0	1	-5,285412	273,575891	312,32472	0
15.01.2021	07:37:09	0	0	3,954462	3,3765	12,8556	-0,378	85,637	0	1011,88	6,2	8,4	8,1	1	1	1	1	1	1	1	1	1	0	1	-4,016913	273,56718	313,552766	0
15.01.2021	07:37:10	0	0	2,598647	3,30375	16,848	-0,371	85,63	0	1011,88	6,2	8,3	8,1	1	1	1	1	1	1	1	1	1	0	1	-3,312192	273,610777	314,459974	0
15.01.2021	07:37:11	0	0	3,276535	3,25425	19,53	-0,373	85,636	0	1011,92	6,2	8,4	8,2	1	1	1	1	1	1	1	1	1	0	1	-4,298802	273,444189	312,700171	0
15.01.2021	07:37:12	0	0	4,519385	3,17475	27,6516	-0,373	85,633	0	1011,94	6,2	8,4	8,1	1	1	1	1	1	1	1	1	1	0	1	-7,047216	273,442747	309,945069	0
15.01.2021	07:37:13	0	0	3,954462	2,82825	12,0852	-0,373	85,633	0	1011,96	6,2	8,4	8,1	1	1	1	1	1	1	1	1	1	0	1	-3,523608	273,474502	313,615952	0
15.01.2021	07:37:14	0	0	4,971324	2,65425	0	-0,376	85,628	0	1011,9	6,2	8,2	8,1	1	1	1	1	1	1	1	1	1	0	1	-2,255109	273,50631	315,032021	0
15.01.2021	07:37:15	0	0	3,050585	2,64525	13,1652	-0,369	85,627	0	1011,9	6,2	8,4	8,1	1	1	1	1	1	1	1	1	1	0	1	-4,721635	273,596233	312,982973	0
15.01.2021	07:37:16	0	0	3,163551	2,54175	2,6424	-0,375	85,621	0	1011,9	6,2	8,4	8,2	1	1	1	1	1	1	1	1	1	0	1	-3,171247	273,486062	314,02194	0
15.01.2021	07:37:17	0	0	3,276535	2,5635	8,2656	-0,379	85,633	0	1011,86	6,2	8,4	8,2	1	1	1	1	1	1	1	1	1	0	1	-5,355884	273,503416	311,917818	0
15.01.2021	07:37:18	0	0	2,485662	2,529	8,2764	-0,368	85,625	0	1011,96	6,2	8,4	8,1	1	1	1	1	1	1	1	1	1	0	1	-1,338971	273,462949	315,747	0
15.01.2021	07:37:19	0	0	2,711599	2,56875	3,402	-0,368	85,64	0	1012	6,2	8,3	8,3	1	1	1	1	1	1	1	1	1	0	1	-3,382664	273,583154	314,261196	0
15.01.2021	07:37:20	0	0	3,841478	2,6595	19,53	-0,371	85,625	0	1011,88	6,2	8,4	8,1	1	1	1	1	1	1	1	1	1	0	1	-7,047216	273,445632	309,958445	0
15.01.2021	07:37:21	0	0	5,310278	2,7555	3,0204	-0,373	85,623	0	1011,84	6,2	8,4	8,1	1	1	1	1	1	1	1	1	1	0	1	-7,117689	273,584606	310,532919	0
15.01.2021	07:37:22	0	0	2,824599	2,6445	358,0452	-0,373	85,643	0	1011,9	6,2	8,4	8,2	1	1	1	1	1	1	1	1	1	0	1	-1,832276	273,628243	316,021039	0
15.01.2021	07:37:23	0	0	4,29339	2,3595	2,2968	-0,37	85,648	0	1012,02	6,2	8,2	8,2	1	1	1	1	1	1	1	1	1	0	1	-7,329105	273,568631	310,247315	0
15.01.2021	07:37:24	0	0	2,711631	2,17125	2,3076	-0,372	85,632	0	1011,88	6,2	8,4	8,1	1	1	1	1	1	1	1	1	1	0	1	-0,704722	273,362152	315,914007	0
15.01.2021	07:37:25	0	0	3,276535	2,1015	10,044	-0,375	85,627	0	1011,92	6,2	8,4	8,2	1	1	1	1	1	1	1	1	1	0	1	-4,933051	273,470169	312,186408	0
15.01.2021	07:37:26	0	0	3,841454	2,058	13,1688	-0,371	85,633	0	1011,98	6,2	8,3	8,2	1	1	1	1	1	1	1	1	1	0	1	-0,281889	273,549768	317,206952	0
15.01.2021	07:37:27	0	0	4,067422	2,02425	15,048	-0,377	85,638	0	1011,78	6,2	8,4	8,2	1	1	1	1	1	1	1	1	1	0	1	-3,875969	273,622419	313,950287	0
15.01.2021	07:37:28	0	0	3,841478	2,028	7,5168	-0,376	85,635	0	1011,82	6,2	8,4	8,1	1	1	1	1	1	1	1	1	1	0	1	-3,805497	273,484617	313,380985	0
15.01.2021	07:37:29	0	0	3,841478	2,106	8,6184	-0,372	85,646	0	1011,98	6,2	8,2	8,1	1	1	1	1	1	1	1	1	1	0	1	-2,325581	273,55557	315,190196	0
15.01.2021	07:37:30	0	0	3,615508	2,19375	4,4712	-0,376	85,619	0	1011,88	6,2	8,4	8,1	1	1	1	1	1	1	1	1	1	0	1	-5,21494	273,457175	311,844252	0
15.01.2021	07:37:31	0	0	4,85831	2,05875	4,0824	-0,372	85,646	0	1011,96	6,2	8,2	8,2	1	1	1	1	1	1	1	1	1	0	1	-3,171247	273,487508	314,028647	0
15.01.2021	07:37:32	0	0	4,293416	1,92	6,4404	-0,371	85,634	0	1011,96	6,2	8,3	8,1	1	1	1	1	1	1	1	1	1	0	1	-0	273,570083	317,583161	0
15.01.2021	07:37:33	0	0	3,276554	1,91775	18,5472	-0,37	85,629	0	1012,22	6,2	8,4	8,1	1	1	1	1	1	1	1	1	1	0	1	-0,140944	273,448517	316,878096	0
15.01.2021	07:37:34	0	0	4,406374	1,9095	14,2992	-0,375	85,624	0	1012,02	6,2	8,2	8,2	1	1	1	1	1	1	1	1	1	0	1	-6,906272	273,493291	310,320453	0
15.01.2021	07:37:35	0	0	4,180431	2,02725	3,4128	-0,37	85,637	0	1011,92	6,2	8,2	8,1	1	1	1	1	1	1	1	1	1	0	1	-6,624383	273,619508	311,188346	0
15.01.2021	07:37:36	0	0	3,502503	2,09925	359,0784	-0,364	85,62	0	1012,08	6,2	8,3	8,2	1	1	1	1	1	1	1	1	1	0	1	-0,281889	273,488953	316,924712	0
15.01.2021	07:37:37	0	0	2,824616	2,157	17,694	-0,373	85,621	0	1012	6,2	8,1	8,1	1	1	1	1	1	1	1	1	1	0	1	-3,312192	273,557021	314,210321	0
15.01.2021	07:37:38	0	0	4,406401	2,11275	16,1064	-0,368	85,623	0	1012,02	6,2	8,4	8,1	1	1	1	1	1	1	1	1	1	0	1	-4,369274	273,461505	312,710001	0
15.01.2021	07:37:39	0	0	3,841478	2,1285	3,3804	-0,369	85,645	0	1011,86	6,2	8,3	8,1	1	1	1	1	1	1	1	1	1	0	1	-5,919662	273,623875	311,913358	0
15.01.2021	07:37:40	0	0	4,29339	2,19825	3,7764	-0,372	85,625	0	1011,78	6,2	8,4	8,2	1	1	1	1	1	1	1	1	1	0	1	-0,422833	273,50631	316,864297	0
15.01.2021	07:37:41	0	0	3,954438	2,313	14,0292	-0,369	85,638	0	1012,14	6,2	8,1	8,2	1	1	1	1	1	1	1	1	1	0	1	-3,875969	273,622419	313,950287	0
15.01.2021	07:37:42	0	0	4,971264	2,385	14,2884	-0,365	85,623	0	1011,94	6,2	8,4	8,3	1	1	1	1	1	1	1	1	1	0	1	-5,21494	273,522233	312,146087	0
15.01.2021	07:37:43	0	0	2,824599	2,5245	4,8456	-0,371	85,63	0	1011,94	6,2	8,4	8,2	1	1	1	1	1	1	1	1	1	0	1	-1,832276	273,600595	315,892593	0
15.01.2021	07:37:44	0	0	3,276535	2,643	15,1488	-0,37	85,63	0	1012	6,2	8,1	8,2	1	1	1	1	1	1	1	1	1	0	1	-2,959831	273,438421	314,012394	0
15.01.2021	07:37:45	0	0	4,858339	2,5545	357,66	-0,366	85,633	0	1011,82	6,2	8,3	8,1	1	1	1	1	1	1	1	1	1	0	1	-5,567301	273,551219	311,928273	0
15.01.2021	07:37:46	0	0	2,711615	2,52975	10,4436	-0,373	85,637	0	1012,02	6,2	8,4	8,2	1	1	1	1	1	1	1	1	1	0	1	-6,553911	273,625331	311,285873	0
15.01.2021	07:37:47	0	0	3,050585	2,394	1,9224	-0,371	85,626	0	1012,04	6,2	8,4	8,1	1	1	1	1	1	1	1	1	1	0	1	-6,8358	273,55557	310,679977	0
15.01.2021	07:37:48	0	0	2,711615	2,30775	16,578	-0,376	85,624	0	1011,96	6,2	8,4	8,2	1	1	1	1	1	1	1	1	1	0	1	-1,832276	273,578796	315,791345	0
15.01.2021	07:37:49	0	0	3,728493	2,253	8,9892	-0,37	85,638	0	1011,8	6,2	8,4	8,1	1	1	1	1	1	1	1	1	1	0	1	-6,20155	273,454288	310,844255	0
15.01.2021	07:37:50	0	0	4,067422	2,2035	15,786	-0,373	85,634	0	1011,86	6,2	8,4	8,2	1	1	1	1	1	1	1	1	1	0	1	-7,047216	273,510651	310,26006	0
15.01.2021	07:37:51	0	0	4,519358	2,133	5,2308	-0,376	85,609	0	1011,98	6,2	8,2	8,2	1	1	1	1	1	1	1	1	1	0	1	-5,21494	273,457175	311,844252	0
15.01.2021	07:37:52	0	0	3,050585	2,20575	16,1892	-0,37	85,636	0	1011,92	6,2	8,1	8,1	1	1	1	1	1	1	1	1	1	0	1	-0	273,486062	317,193188	0
15.01.2021	07:37:53	0	0	3,16357	2,0475	20,6352	-0,37	85,643	0	1012,1	6,2	8,4	8,1	1	1	1	1	1	1	1	1	1	0	1	-6,694856	273,599141	311,023259	0
15.01.2021	07:37:54	0	0	2,824599	1,92525	12,1032	-0,37	85,636	0	1011,86	6,2	8,1	8,2	1	1	1	1	1	1	1	1	1	0	1	-4,792107	273,448517	312,226933	0
15.01.2021	07:37:55	0	0	2,259693	1,84725	7,1352	-0,37	85,64	0	1012,02	6,2	8,3	8,1	1	1	1	1	1	1	1	1	1	0	1	-6,131078	273,520785	311,223228	0
15.01.2021	07:37:56	0	0	4,971324	1,78875	10,8288	-0,374	85,632	0	1011,98	6,2	8,4	8,1	1	1	1	1	1	1	1	1	1	0	1	-1,127555	273,606412	316,624337	0
15.01.2021	07:37:57	0	0	3,050585	1,737	9,3564	-0,371	85,616	0	1011,92	6,2	8,4	8,1	1	1	1	1	1	1	1	1	1	0	1	-8,315715	273,493291	308,91101	0
15.01.2021	07:37:58	0	0	2,598631	1,74	22,8312	-0,372	85,646	0	1011,98	6,2	8,2	8,2	1	1	1	1	1	1	1	1	1	0	1	-5,990134	273,604958	311,755001	0
15.01.2021	07:37:59	0	0	4,745355	1,731	18,4428	-0,372	85,65	0	1011,94	6,2	8,2	8,1	1	1	1	1	1	1	1	1	1	0	1	-4,369274	273,432654	312,576212	0
15.01.2021	07:38:00	0	0	3,728471	1,72875	12,852	-0,366	85,634	0	1011,88	6,2	8,4	8,2	1	1	1	1	1	1	1	1	1	0	1	-3,171247	273,477391	313,981716	0
15.01.2021	07:38:01	0	0	3,728471	1,72875	12,852	-0,366	85,634	0	1011,88	6,2	8,4	8,2	1	1	1	1	1	1	1	1	1	0	1	-3,171247	273,477391	313,981716	0
15.01.2021	07:38:02	0	0	4,293416	1,7715	16,8588	-0,37	85,642	0	1011,96	6,2	8,3	8,1	1	1	1	1	1	1	1	1	1	0	1	-2,818887	273,597687	314,892475	0
15.01.2021	07:38:03	0	0	4,406374	1,9575	7,1424	-0,37	85,639	0	1011,92	6,2	8,2	8,2	1	1	1	1	1	1	1	1	1	0	1	-5,003524	273,475947	312,142738	0
15.01.2021	07:38:04	0	0	3,954462	2,088	15,4224	-0,372	85,646	0	1011,94	6,2	8,3	8,1	1	1	1	1	1	1	1	1	1	0	1	-7,963354	273,444189	309,035618	0
15.01.2021	07:38:05	0	0	4,519385	2,12175	2,6568	-0,372	85,649	0	1011,9	6,2	8,4	8,1	1	1	1	1	1	1	1	1	1	0	1	-8,315715	273,596233	309,388893	0
15.01.2021	07:38:06	0	0	3,050567	2,0865	16,1028	-0,369	85,651	0	1011,8	6,2	8,3	8,2	1	1	1	1	1	1	1	1	1	0	1	-3,946441	273,558472	313,582808	0
15.01.2021	07:38:07	0	0	3,276515	2,163	12,1068	-0,369	85,634	0	1011,96	6,2	8,2	8,3	1	1	1	1	1	1	1	1	1	0	1	-6,624383	273,625331	311,215401	0
15.01.2021	07:38:08	0	0	2,372677	2,2695	10,8288	-0,369	85,652	0	1011,96	6,2	8,1	8,1	1	1	1	1	1	1	1	1	1	0	1	-7,681466	273,575891	309,928666	0
15.01.2021	07:38:09	0	0	3,728493	2,29875	13,1688	-0,371	85,658	0	1012	6,2	8,1	8,1	1	1	1	1	1	1	1	1	1	0	1	-2,325581	273,464392	314,767086	0
15.01.2021	07:38:10	0	0	3,050585	2,24325	27,2772	-0,369	85,638	0	1012,04	6,2	8,4	8,1	1	1	1	1	1	1	1	1	1	0	1	-7,82241	273,559923	309,713576	0
15.01.2021	07:38:11	0	0	4,067422	2,0775	18,8352	-0,37	85,641	0	1012	6,2	8,4	8,2	1	1	1	1	1	1	1	1	1	0	1	-7,399577	273,551219	310,095997	0
15.01.2021	07:38:12	0	0	3,615508	1,91175	22,086	-0,373	85,652	0	1012	6,2	8,4	8,1	1	1	1	1	1	1	1	1	1	0	1	-4,298802	273,457175	312,76039	0
15.01.2021	07:38:13	0	0	4,180406	1,8375	3,3984	-0,367	85,642	0	1011,9	6,2	8,4	8,2	1	1	1	1	1	1	1	1	1	0	1	-6,624383	273,572987	310,972262	0
15.01.2021	07:38:14	0	0	4,406374	1,8105	15,0372	-0,367	85,666	0	1012	6,2	8,3	8,2	1	1	1	1	1	1	1	1	1	0	1	-8,738548	273,55557	308,777229	0
15.01.2021	07:38:15	0	0	3,728493	1,8045	17,2368	-0,366	85,655	0	1011,9	6,2	8,4	8,1	1	1	1	1	1	1	1	1	1	0	1	-6,342495	273,618052	311,463473	0
15.01.2021	07:38:16	0	0	2,711615	1,926	3,7908	-0,365	85,661	0	1011,9	6,2	8,2	8,2	1	1	1	1	1	1	1	1	1	0	1	-3,312192	273,530924	314,089173	0
15.01.2021	07:38:17	0	0	4,63237	2,06625	17,244	-0,365	85,646	0	1011,9	6,2	8,4	8,1	1	1	1	1	1	1	1	1	1	0	1	-6,765328	273,613686	311,020357	0
15.01.2021	07:38:18	0	0	3,728493	2,1045	0,4932	-0,373	85,653	0	1011,92	6,2	8,3	8,1	1	1	1	1	1	1	1	1	1	0	1	-2,043693	273,448517	314,975348	0
15.01.2021	07:38:19	0	0	2,598647	2,0445	10,8072	-0,366	85,665	0	1012,16	6,2	8,4	8,1	1	1	1	1	1	1	1	1	1	0	1	-5,919662	273,480281	311,246707	0
15.01.2021	07:38:20	0	0	3,276515	1,9785	13,9212	-0,369	85,649	0	1011,92	6,2	8,2	8,3	1	1	1	1	1	1	1	1	1	0	1	-1,550388	273,606412	316,201504	0
15.01.2021	07:38:21	0	0	4,745326	1,998	5,688	-0,371	85,662	0	1012,12	6,2	8,4	8,2	1	1	1	1	1	1	1	1	1	0	1	-6,060606	273,590419	311,616997	0
15.01.2021	07:38:22	0	0	4,519385	1,97325	10,062	-0,369	85,667	0	1011,9	6,2	8,3	8,1	1	1	1	1	1	1	1	1	1	0	1	-5,496829	273,514993	311,8306	0
15.01.2021	07:38:23	0	0	2,711631	2,04525	3,7872	-0,367	85,661	0	1011,94	6,2	8,2	8,1	1	1	1	1	1	1	1	1	1	0	1	-4,792107	273,455731	312,260391	0
15.01.2021	07:38:24	0	0	3,502503	2,205	6,8256	-0,369	85,651	0	1011,98	6,2	8,4	8,2	1	1	1	1	1	1	1	1	1	0	1	-5,285412	273,581701	312,351701	0
15.01.2021	07:38:25	0	0	3,954438	2,2395	16,4844	-0,374	85,66	0	1011,98	6,2	8,4	8,2	1	1	1	1	1	1	1	1	1	0	1	-5,285412	273,565728	312,277527	0
15.01.2021	07:38:26	0	0	3,615508	2,334	17,2368	-0,372	85,66	0	1011,96	6,2	8,4	8,1	1	1	1	1	1	1	1	1	1	0	1	-5,355884	273,56718	312,213795	0
15.01.2021	07:38:27	0	0	4,29339	2,238	18,0792	-0,369	85,666	0	1011,96	6,2	8,4	8,2	1	1	1	1	1	1	1	1	1	0	1	-6,976744	273,615142	310,8157	0
15.01.2021	07:38:28	0	0	4,63237	2,14875	13,9248	-0,372	85,647	0	1011,84	6,2	8,3	8,1	1	1	1	1	1	1	1	1	1	0	1	-7,470049	273,604958	310,275086	0
15.01.2021	07:38:29	0	0	2,711615	2,3205	25,4088	-0,367	85,655	0	1012,02	6,2	8,3	8,2	1	1	1	1	1	1	1	1	1	0	1	-7,117689	273,587513	310,546415	0
15.01.2021	07:38:30	0	0	4,29339	2,517	19,8972	-0,375	85,651	0	1011,9	6,2	8,3	8,2	1	1	1	1	1	1	1	1	1	0	1	-4,157858	273,634069	313,722528	0
15.01.2021	07:38:31	0	0	4,971294	2,69475	23,5836	-0,367	85,653	0	1011,98	6,2	8,3	8,2	1	1	1	1	1	1	1	1	1	0	1	-5,285412	273,551219	312,210161	0
15.01.2021	07:38:32	0	0	4,858339	2,86275	8,6184	-0,365	85,64	0	1012	6,2	8,4	8,1	1	1	1	1	1	1	1	1	1	0	1	-2,959831	273,609322	314,805576	0
15.01.2021	07:38:33	0	0	3,389539	2,84025	9,36	-0,37	85,661	0	1011,96	6,2	8,3	8,1	1	1	1	1	1	1	1	1	1	0	1	-8,033827	273,470169	309,085633	0
15.01.2021	07:38:34	0	0	3,163551	2,8725	9,3636	-0,364	85,668	0	1012,08	6,2	8,3	8,2	1	1	1	1	1	1	1	1	1	0	1	-2,184637	273,461505	314,894638	0
15.01.2021	07:38:35	0	0	4,180406	2,70825	12,8448	-0,369	85,655	0	1011,94	6,2	8,3	8,2	1	1	1	1	1	1	1	1	1	0	1	-6,553911	273,480281	310,612458	0
15.01.2021	07:38:36	0	0	2,485647	2,526	357,7104	-0,372	85,637	0	1012,06	6,2	8,3	8,2	1	1	1	1	1	1	1	1	1	0	1	-5,708245	273,454288	311,33756	0
15.01.2021	07:38:37	0	0	3,841454	2,5185	18,0756	-0,373	85,65	0	1011,86	6,2	8,3	8,2	1	1	1	1	1	1	1	1	1	0	1	-2,748414	273,577343	314,868462	0
15.01.2021	07:38:38	0	0	3,615487	2,53575	9,7524	-0,366	85,651	0	1011,92	6,2	8,3	8,2	1	1	1	1	1	1	1	1	1	0	1	-6,060606	273,604958	311,684529	0
15.01.2021	07:38:39	0	0	4,180406	2,82825	2,6424	-0,37	85,651	0	1011,92	6,2	8,4	8,2	1	1	1	1	1	1	1	1	1	0	1	-5,708245	273,616597	312,09096	0
15.01.2021	07:38:40	0	0	4,971324	2,93475	10,8	-0,374	85,657	0	1011,92	6,2	8,1	8,1	1	1	1	1	1	1	1	1	1	0	1	-6,342495	273,500522	310,917783	0
15.01.2021	07:38:41	0	0	4,632342	2,8455	360	-0,371	85,644	0	1011,96	6,2	8,4	8,2	1	1	1	1	1	1	1	1	1	0	1	-3,664553	273,616597	314,134653	0
15.01.2021	07:38:42	0	0	4,180406	2,7285	2,2968	-0,371	85,64	0	1011,94	6,2	8,4	8,2	1	1	1	1	1	1	1	1	1	0	1	-5,355884	273,46728	311,750178	0
15.01.2021	07:38:43	0	0	3,502524	2,5695	2,646	-0,367	85,66	0	1012	6,2	8,4	8,1	1	1	1	1	1	1	1	1	1	0	1	-2,396054	273,494737	314,837381	0
15.01.2021	07:38:44	0	0	4,067422	2,439	4,0788	-0,37	85,65	0	1011,82	6,2	8,2	8,2	1	1	1	1	1	1	1	1	1	0	1	-1,691332	273,451402	315,34109	0
15.01.2021	07:38:45	0	0	3,728471	2,25525	357,6456	-0,368	85,655	0	1011,92	6,2	8,3	8,2	1	1	1	1	1	1	1	1	1	0	1	-8,668076	273,514993	308,659352	0
15.01.2021	07:38:46	0	0	2,485662	2,3145	11,1924	-0,372	85,651	0	1012,06	6,2	8,4	8,1	1	1	1	1	1	1	1	1	1	0	1	-5,637773	273,458618	311,428113	0
15.01.2021	07:38:47	0	0	3,502524	2,44875	5,2128	-0,374	85,656	0	1012,04	6,2	8,4	8,1	1	1	1	1	1	1	1	1	1	0	1	-5,567301	273,494737	311,666133	0
15.01.2021	07:38:48	0	0	4,406374	2,5605	8,2476	-0,371	85,647	0	1011,82	6,2	8,4	8,2	1	1	1	1	1	1	1	1	1	0	1	-4,016913	273,570083	313,566248	0
15.01.2021	07:38:49	0	0	4,745326	2,4525	24,7104	-0,371	85,64	0	1011,86	6,2	8,1	8,2	1	1	1	1	1	1	1	1	1	0	1	-7,188161	273,451402	309,844261	0
15.01.2021	07:38:50	0	0	4,632342	2,346	7,1136	-0,368	85,65	0	1011,96	6,2	8,3	8,2	1	1	1	1	1	1	1	1	1	0	1	-3,171247	273,574439	314,432141	0
15.01.2021	07:38:51	0	0	4,293416	2,52	14,3244	-0,366	85,66	0	1012,02	6,2	8,4	8,1	1	1	1	1	1	1	1	1	1	0	1	-5,778717	273,452845	311,260396	0
15.01.2021	07:38:52	0	0	3,954438	2,649	15,8004	-0,366	85,661	0	1011,94	6,2	8,3	8,2	1	1	1	1	1	1	1	1	1	0	1	-3,523608	273,602049	314,208016	0
15.01.2021	07:38:53	0	0	2,711615	2,8365	14,2956	-0,368	85,647	0	1012,04	6,2	8,4	8,2	1	1	1	1	1	1	1	1	1	0	1	-4,933051	273,470169	312,186408	0
15.01.2021	07:38:54	0	0	2,598631	3,06525	14,3064	-0,37	85,649	0	1012	6,2	8,3	8,2	1	1	1	1	1	1	1	1	1	0	1	-3,875969	273,620963	313,943523	0
15.01.2021	07:38:55	0	0	2,711615	3,1395	4,0716	-0,348	85,663	0	1012,22	6,2	8,4	8,2	1	1	1	1	1	1	1	1	1	0	1	-1,902748	273,539619	315,538977	0
15.01.2021	07:38:56	0	0	2,711631	3,39225	3,402	-0,365	85,653	0	1012,06	6,2	8,4	8,1	1	1	1	1	1	1	1	1	1	0	1	-5,285412	273,622419	312,540843	0
15.01.2021	07:38:57	0	0	3,615508	3,42825	4,1004	-0,366	85,658	0	1011,96	6,2	8,4	8,1	1	1	1	1	1	1	1	1	1	0	1	-3,171247	273,545418	314,297397	0
15.01.2021	07:38:58	0	0	4,632342	3,29475	10,0656	-0,366	85,662	0	1011,92	6,2	8,4	8,2	1	1	1	1	1	1	1	1	1	0	1	-6,412967	273,590419	311,264636	0
15.01.2021	07:38:59	0	0	3,728493	3,29175	17,7948	-0,367	85,65	0	1011,9	6,2	8,4	8,1	1	1	1	1	1	1	1	1	1	0	1	-8,668076	273,615142	309,124369	0
15.01.2021	07:39:00	0	0	3,954415	3,39675	22,4532	-0,363	85,65	0	1012,04	6,2	8,3	8,3	1	1	1	1	1	1	1	1	1	0	1	-5,144468	273,613686	312,641216	0
15.01.2021	07:39:01	0	0	3,954415	3,39675	22,4532	-0,363	85,65	0	1012,04	6,2	8,3	8,3	1	1	1	1	1	1	1	1	1	0	1	-5,144468	273,613686	312,641216	0
15.01.2021	07:39:02	0	0	2,824599	3,20175	16,8516	-0,363	85,659	0	1012,12	6,2	8,3	8,2	1	1	1	1	1	1	1	1	1	0	1	-5,708245	273,509204	311,592315	0
15.01.2021	07:39:03	0	0	3,728471	3,24225	23,58	-0,374	85,629	0	1012	6,2	8,3	8,2	1	1	1	1	1	1	1	1	1	0	1	-5,496829	273,434096	311,455341	0
15.01.2021	07:39:04	0	0	3,276554	3,19425	8,2584	-0,362	85,632	0	1011,94	6,2	8,4	8,1	1	1	1	1	1	1	1	1	1	0	1	-0,845666	273,507757	316,448179	0
15.01.2021	07:39:05	0	0	3,841454	3,2715	0,4896	-0,363	85,634	0	1012,06	6,2	8,3	8,2	1	1	1	1	1	1	1	1	1	0	1	-5,990134	273,603503	311,748245	0
15.01.2021	07:39:06	0	0	2,824599	3,246	358,398	-0,364	85,649	0	1012	6,2	8,4	8,2	1	1	1	1	1	1	1	1	1	0	1	-6,624383	273,447074	310,387967	0
15.01.2021	07:39:07	0	0	2,485647	3,37425	3,3984	-0,365	85,634	0	1012,04	6,2	8,3	8,2	1	1	1	1	1	1	1	1	1	0	1	-6,8358	273,528027	310,552117	0
15.01.2021	07:39:08	0	0	3,163532	3,49875	6,0696	-0,366	85,657	0	1011,9	6,2	8,4	8,3	1	1	1	1	1	1	1	1	1	0	1	-3,875969	273,620963	313,943523	0
15.01.2021	07:39:09	0	0	3,389519	3,5295	8,5968	-0,371	85,644	0	1011,88	6,2	8,4	8,2	1	1	1	1	1	1	1	1	1	0	1	-6,483439	273,53817	310,951558	0
15.01.2021	07:39:10	0	0	4,519358	3,42225	9,7524	-0,366	85,635	0	1011,96	6,2	8,3	8,2	1	1	1	1	1	1	1	1	1	0	1	-3,312192	273,451402	313,72023	0
15.01.2021	07:39:11	0	0	4,971294	3,34575	13,176	-0,374	85,655	0	1011,92	6,2	8,3	8,2	1	1	1	1	1	1	1	1	1	0	1	-4,439746	273,444189	312,559227	0
15.01.2021	07:39:12	0	0	3,841478	3,26025	9,7596	-0,364	85,643	0	1011,92	6,2	8,4	8,1	1	1	1	1	1	1	1	1	1	0	1	-7,681466	273,559923	309,85452	0
15.01.2021	07:39:13	0	0	2,485662	3,1605	19,9116	-0,369	85,645	0	1012,02	6,2	8,3	8,1	1	1	1	1	1	1	1	1	1	0	1	-4,721635	273,504863	312,558781	0
15.01.2021	07:39:14	0	0	2,824616	3,054	12,4812	-0,364	85,644	0	1011,92	6,2	8,3	8,1	1	1	1	1	1	1	1	1	1	0	1	-3,875969	273,452845	313,163144	0
15.01.2021	07:39:15	0	0	5,42323	2,74725	5,2272	-0,366	85,656	0	1011,8	6,2	8,3	8,2	1	1	1	1	1	1	1	1	1	0	1	-2,818887	273,539619	314,622839	0
15.01.2021	07:39:16	0	0	4,519385	2,76225	11,7252	-0,364	85,637	0	1011,9	6,2	8,2	8,1	1	1	1	1	1	1	1	1	1	0	1	-3,59408	273,606412	314,157811	0
15.01.2021	07:39:17	0	0	4,971324	2,94	6,4368	-0,364	85,651	0	1011,92	6,2	8,3	8,1	1	1	1	1	1	1	1	1	1	0	1	-5,496829	273,447074	311,515522	0
15.01.2021	07:39:18	0	0	4,63237	3,138	7,1244	-0,366	85,648	0	1011,98	6,2	8,4	8,1	1	1	1	1	1	1	1	1	1	0	1	-0,98661	273,494737	316,246824	0
15.01.2021	07:39:19	0	0	3,954438	3,162	1,1808	-0,364	85,644	0	1011,94	6,2	8,4	8,2	1	1	1	1	1	1	1	1	1	0	1	-5,073996	273,484617	312,112486	0
15.01.2021	07:39:20	0	0	2,824616	2,955	359,5104	-0,373	85,65	0	1011,98	6,2	8,3	8,1	1	1	1	1	1	1	1	1	1	0	1	-1,973221	273,474502	315,16634	0
15.01.2021	07:39:21	0	0	2,033711	3,00975	9,4896	-0,364	85,656	0	1011,96	6,2	8,3	8,2	1	1	1	1	1	1	1	1	1	0	1	-6,976744	273,557021	310,545768	0
15.01.2021	07:39:22	0	0	4,85831	3,05925	10,08	-0,359	85,664	0	1012,1	6,2	8,4	8,2	1	1	1	1	1	1	1	1	1	0	1	-4,792107	273,620963	313,027385	0
15.01.2021	07:39:23	0	0	4,067422	3,14925	2,3004	-0,372	85,648	0	1011,84	6,2	8,4	8,2	1	1	1	1	1	1	1	1	1	0	1	-3,030303	273,562825	314,519158	0
15.01.2021	07:39:24	0	0	3,163551	3,2235	11,2068	-0,366	85,647	0	1011,76	6,2	8,4	8,2	1	1	1	1	1	1	1	1	1	0	1	-2,184637	273,457175	314,874555	0
15.01.2021	07:39:25	0	0	4,519385	3,0435	16,956	-0,365	85,652	0	1011,96	6,2	8,4	8,1	1	1	1	1	1	1	1	1	1	0	1	-2,818887	273,603503	314,919493	0
15.01.2021	07:39:26	0	0	2,824599	2,88225	12,8448	-0,358	85,656	0	1012,02	6,3	8,4	8,2	1	1	1	1	1	1	1	1	1	0	1	-6,624383	273,574439	310,979005	0
15.01.2021	07:39:27	0	0	3,502503	2,871	11,718	-0,366	85,657	0	1012,02	6,2	8,4	8,2	1	1	1	1	1	1	1	1	1	0	1	-2,60747	273,607867	315,151179	0
15.01.2021	07:39:28	0	0	3,954438	3,054	12,4704	-0,36	85,653	0	1012	6,2	8,4	8,2	1	1	1	1	1	1	1	1	1	0	1	-2,325581	273,622419	315,500674	0
15.01.2021	07:39:29	0	0	4,180381	3,2565	1,5552	-0,364	85,637	0	1011,96	6,2	8,3	8,3	1	1	1	1	1	1	1	1	1	0	1	-3,523608	273,570083	314,059553	0
15.01.2021	07:39:30	0	0	3,050567	3,32325	6,0768	-0,365	85,654	0	1012	6,2	8,3	8,2	1	1	1	1	1	1	1	1	1	0	1	-4,157858	273,606412	313,594034	0
15.01.2021	07:39:31	0	0	4,632342	3,2655	13,1652	-0,368	85,641	0	1011,84	6,2	8,3	8,2	1	1	1	1	1	1	1	1	1	0	1	-4,933051	273,583154	312,710808	0
15.01.2021	07:39:32	0	0	2,824599	3,08775	8,406	-0,365	85,656	0	1012,04	6,2	8,3	8,2	1	1	1	1	1	1	1	1	1	0	1	-4,087385	273,500522	313,172892	0
15.01.2021	07:39:33	0	0	3,163551	2,78325	14,3064	-0,368	85,662	0	1011,94	6,2	8,4	8,2	1	1	1	1	1	1	1	1	1	0	1	-6,412967	273,616597	311,386239	0
15.01.2021	07:39:34	0	0	3,502524	2,51325	19,9116	-0,36	85,653	0	1012	6,2	8,3	8,1	1	1	1	1	1	1	1	1	1	0	1	-5,708245	273,510651	311,599031	0
15.01.2021	07:39:35	0	0	3,050567	2,31825	21,402	-0,361	85,658	0	1012,06	6,2	8,4	8,2	1	1	1	1	1	1	1	1	1	0	1	-4,016913	273,628243	313,836402	0
15.01.2021	07:39:36	0	0	3,954462	2,19975	18,0756	-0,362	85,65	0	1012,1	6,2	8,3	8,1	1	1	1	1	1	1	1	1	1	0	1	-4,510218	273,478836	312,649447	0
15.01.2021	07:39:37	0	0	4,519358	2,2785	21,024	-0,365	85,639	0	1011,86	6,2	8,3	8,2	1	1	1	1	1	1	1	1	1	0	1	-6,272023	273,626787	311,574527	0
15.01.2021	07:39:38	0	0	2,937583	2,36325	13,9284	-0,362	85,655	0	1012,04	6,2	8,3	8,2	1	1	1	1	1	1	1	1	1	0	1	-1,832276	273,444189	315,166697	0
15.01.2021	07:39:39	0	0	3,615487	2,4315	12,1068	-0,363	85,646	0	1011,98	6,2	8,4	8,2	1	1	1	1	1	1	1	1	1	0	1	-1,409443	273,568631	316,166977	0
15.01.2021	07:39:40	0	0	3,954438	2,44125	11,8188	-0,36	85,669	0	1011,98	6,2	8,3	8,2	1	1	1	1	1	1	1	1	1	0	1	-6,131078	273,449959	310,894653	0
15.01.2021	07:39:41	0	0	3,841454	2,40825	9,7344	-0,364	85,66	0	1012	6,2	8,4	8,2	1	1	1	1	1	1	1	1	1	0	1	-7,470049	273,522233	309,890977	0
15.01.2021	07:39:42	0	0	4,745355	2,439	7,1388	-0,367	85,66	0	1011,94	6,2	8,3	8,1	1	1	1	1	1	1	1	1	1	0	1	-6,553911	273,471613	310,572248	0
15.01.2021	07:39:43	0	0	3,163551	2,433	9,0036	-0,365	85,654	0	1011,94	6,2	8,4	8,2	1	1	1	1	1	1	1	1	1	0	1	-8,80902	273,516441	308,525126	0
15.01.2021	07:39:44	0	0	2,937583	2,367	8,2584	-0,362	85,665	0	1012,02	6,2	8,3	8,2	1	1	1	1	1	1	1	1	1	0	1	-8,879493	273,639896	309,027973	0
15.01.2021	07:39:45	0	0	4,406401	2,33175	5,6916	-0,365	85,648	0	1012,06	6,2	8,3	8,1	1	1	1	1	1	1	1	1	1	0	1	-8,45666	273,590419	309,220943	0
15.01.2021	07:39:46	0	0	5,084278	2,4075	7,1172	-0,363	85,655	0	1012,06	6,2	8,3	8,2	1	1	1	1	1	1	1	1	1	0	1	-5,073996	273,607867	312,684653	0
15.01.2021	07:39:47	0	0	3,276535	2,3835	6,0624	-0,36	85,663	0	1011,96	6,2	8,4	8,2	1	1	1	1	1	1	1	1	1	0	1	-5,355884	273,448517	311,663156	0
15.01.2021	07:39:48	0	0	2,824599	2,37225	3,78	-0,356	85,66	0	1012,04	6,2	8,4	8,2	1	1	1	1	1	1	1	1	1	0	1	-2,255109	273,562825	315,294352	0
15.01.2021	07:39:49	0	0	4,745355	2,4795	7,524	-0,362	85,66	0	1011,96	6,2	8,3	8,1	1	1	1	1	1	1	1	1	1	0	1	-5,637773	273,465836	311,461592	0
15.01.2021	07:39:50	0	0	4,29339	2,4555	8,2656	-0,367	85,661	0	1011,94	6,2	8,3	8,2	1	1	1	1	1	1	1	1	1	0	1	-6,483439	273,599141	311,234676	0
15.01.2021	07:39:51	0	0	2,9376	2,3715	3,3984	-0,367	85,658	0	1012,02	6,2	8,3	8,1	1	1	1	1	1	1	1	1	1	0	1	-6,272023	273,512098	311,041971	0
15.01.2021	07:39:52	0	0	3,502524	2,412	8,9964	-0,358	85,657	0	1011,98	6,2	8,3	8,1	1	1	1	1	1	1	1	1	1	0	1	-5,990134	273,455731	311,062364	0
15.01.2021	07:39:53	0	0	2,824599	2,397	14,31	-0,36	85,659	0	1011,96	6,2	8,4	8,2	1	1	1	1	1	1	1	1	1	0	1	-10,077519	273,523681	307,290229	0
15.01.2021	07:39:54	0	0	2,937583	2,376	9,4716	-0,359	85,658	0	1012,04	6,2	8,3	8,2	1	1	1	1	1	1	1	1	1	0	1	-5,567301	273,638439	312,333394	0
15.01.2021	07:39:55	0	0	3,050567	2,4615	12,1032	-0,359	85,66	0	1011,96	6,2	8,4	8,2	1	1	1	1	1	1	1	1	1	0	1	-10,42988	273,574439	307,173508	0
15.01.2021	07:39:56	0	0	2,259679	2,7045	15,7896	-0,357	85,657	0	1012,06	6,2	8,3	8,2	1	1	1	1	1	1	1	1	1	0	1	-5,84919	273,487508	311,350704	0
15.01.2021	07:39:57	0	0	5,197262	2,75775	5,6808	-0,363	85,647	0	1012,08	6,2	8,3	8,2	1	1	1	1	1	1	1	1	1	0	1	-10,852713	273,616597	306,946492	0
15.01.2021	07:39:58	0	0	4,632342	2,83425	10,818	-0,365	85,645	0	1011,9	6,2	8,3	8,2	1	1	1	1	1	1	1	1	1	0	1	-5,708245	273,514993	311,619183	0
15.01.2021	07:39:59	0	0	4,85831	2,745	7,1352	-0,36	85,661	0	1011,96	6,2	8,3	8,2	1	1	1	1	1	1	1	1	1	0	1	-6,553911	273,465836	310,545454	0
15.01.2021	07:40:00	0	0	3,163551	2,53725	12,4632	-0,366	85,663	0	1012,04	6,2	8,3	8,2	1	1	1	1	1	1	1	1	1	0	1	-5,285412	273,600595	312,439457	0
15.01.2021	07:40:01	0	0	3,163551	2,53725	12,4632	-0,366	85,663	0	1012,04	6,2	8,3	8,2	1	1	1	1	1	1	1	1	1	0	1	-5,285412	273,600595	312,439457	0
15.01.2021	07:40:02	0	0	2,824599	2,47875	22,464	-0,36	85,652	0	1011,98	6,2	8,3	8,2	1	1	1	1	1	1	1	1	1	0	1	-8,245243	273,462949	308,840728	0
15.01.2021	07:40:03	0	0	4,85831	2,667	10,8108	-0,36	85,662	0	1011,96	6,2	8,3	8,2	1	1	1	1	1	1	1	1	1	0	1	-3,030303	273,543968	314,431611	0
15.01.2021	07:40:04	0	0	2,711631	2,82975	4,0932	-0,356	85,652	0	1011,94	6,2	8,3	8,1	1	1	1	1	1	1	1	1	1	0	1	-3,875969	273,613686	313,909715	0
15.01.2021	07:40:05	0	0	3,841454	2,83575	13,2408	-0,361	85,671	0	1011,98	6,2	8,3	8,2	1	1	1	1	1	1	1	1	1	0	1	-4,651163	273,461505	312,428113	0
15.01.2021	07:40:06	0	0	4,63237	2,757	15,7896	-0,357	85,672	0	1012,08	6,2	8,3	8,1	1	1	1	1	1	1	1	1	1	0	1	-10,641297	273,615142	307,151148	0
15.01.2021	07:40:07	0	0	4,632342	2,70375	7,1316	-0,359	85,649	0	1011,92	6,2	8,3	8,2	1	1	1	1	1	1	1	1	1	0	1	-8,879493	273,478836	308,280173	0
15.01.2021	07:40:08	0	0	4,858339	2,67375	6,8256	-0,366	85,657	0	1011,9	6,2	8,3	8,1	1	1	1	1	1	1	1	1	1	0	1	-4,439746	273,53817	312,995251	0
15.01.2021	07:40:09	0	0	4,632342	2,496	11,718	-0,363	85,666	0	1011,94	6,2	8,3	8,2	1	1	1	1	1	1	1	1	1	0	1	-8,668076	273,471613	308,458083	0
15.01.2021	07:40:10	0	0	4,745326	2,30625	15,7896	-0,356	85,657	0	1011,88	6,2	8,3	8,2	1	1	1	1	1	1	1	1	1	0	1	-4,933051	273,464392	312,159616	0
15.01.2021	07:40:11	0	0	4,067447	2,28375	21,0132	-0,365	85,655	0	1012,02	6,2	8,4	8,1	1	1	1	1	1	1	1	1	1	0	1	-6,131078	273,583154	311,512782	0
15.01.2021	07:40:12	0	0	2,711631	2,42475	8,6184	-0,359	85,664	0	1012,02	6,2	8,3	8,1	1	1	1	1	1	1	1	1	1	0	1	-5,637773	273,457175	311,421419	0
15.01.2021	07:40:13	0	0	3,050567	2,718	8,262	-0,362	85,648	0	1011,78	6,2	8,3	8,2	1	1	1	1	1	1	1	1	1	0	1	-6,765328	273,507757	310,528518	0
15.01.2021	07:40:14	0	0	3,276535	3,06225	19,1484	-0,359	85,653	0	1012,02	6,2	8,3	8,2	1	1	1	1	1	1	1	1	1	0	1	-4,933051	273,622419	312,893204	0
15.01.2021	07:40:15	0	0	4,406401	3,34725	13,1724	-0,356	85,662	0	1012,04	6,2	8,3	8,1	1	1	1	1	1	1	1	1	1	0	1	-8,245243	273,620963	309,574249	0
15.01.2021	07:40:16	0	0	3,389519	3,45225	7,5132	-0,36	85,645	0	1011,98	6,2	8,3	8,2	1	1	1	1	1	1	1	1	1	0	1	-7,188161	273,564277	310,368039	0
15.01.2021	07:40:17	0	0	4,180406	3,4335	3,024	-0,362	85,652	0	1011,88	6,2	8,3	8,2	1	1	1	1	1	1	1	1	1	0	1	-9,866103	273,618052	307,939864	0
15.01.2021	07:40:18	0	0	2,485647	3,4335	2,6496	-0,367	85,656	0	1012,12	6,2	8,3	8,2	1	1	1	1	1	1	1	1	1	0	1	-6,272023	273,616597	311,527183	0
15.01.2021	07:40:19	0	0	2,937583	3,453	9,7452	-0,361	85,651	0	1011,88	6,2	8,3	8,2	1	1	1	1	1	1	1	1	1	0	1	-3,664553	273,642811	314,256457	0
15.01.2021	07:40:20	0	0	4,85831	3,36375	6,5232	-0,357	85,672	0	1012,1	6,2	8,4	8,2	1	1	1	1	1	1	1	1	1	0	1	-7,329105	273,50631	309,958025	0
15.01.2021	07:40:21	0	0	3,615487	3,3975	8,6148	-0,362	85,648	0	1012,04	6,2	8,3	8,2	1	1	1	1	1	1	1	1	1	0	1	-9,090909	273,522233	308,270118	0
15.01.2021	07:40:22	0	0	3,841454	3,339	12,1032	-0,359	85,651	0	1012,08	6,2	8,3	8,2	1	1	1	1	1	1	1	1	1	0	1	-4,298802	273,474502	312,840758	0
15.01.2021	07:40:23	0	0	4,180406	3,18675	6,4404	-0,361	85,643	0	1012,02	6,2	8,3	8,2	1	1	1	1	1	1	1	1	1	0	1	-6,412967	273,526578	310,968226	0
15.01.2021	07:40:24	0	0	3,728471	3,02025	12,9312	-0,354	85,664	0	1012,02	6,2	8,3	8,2	1	1	1	1	1	1	1	1	1	0	1	-11,346018	273,634069	306,534367	0
15.01.2021	07:40:25	0	0	4,858339	2,88675	0,8604	-0,36	85,646	0	1011,92	6,1	8,3	8,1	1	1	1	1	1	1	1	1	1	0	1	-4,933051	273,587513	312,731052	0
15.01.2021	07:40:26	0	0	4,85831	2,7885	13,1688	-0,357	85,652	0	1012	6,2	8,3	8,2	1	1	1	1	1	1	1	1	1	0	1	-8,033827	273,464392	309,058841	0
15.01.2021	07:40:27	0	0	4,745326	2,679	4,8528	-0,355	85,667	0	1012,14	6,2	8,4	8,2	1	1	1	1	1	1	1	1	1	0	1	-5,990134	273,622419	311,836122	0
15.01.2021	07:40:28	0	0	3,163551	2,63625	9,3816	-0,355	85,658	0	1012,04	6,2	8,4	8,2	1	1	1	1	1	1	1	1	1	0	1	-5,919662	273,591872	311,764691	0
15.01.2021	07:40:29	0	0	4,180431	2,6325	6,7932	-0,359	85,641	0	1011,98	6,2	8,3	8,1	1	1	1	1	1	1	1	1	1	0	1	-8,949965	273,629699	308,910118	0
15.01.2021	07:40:30	0	0	4,406374	2,81175	12,8556	-0,363	85,645	0	1011,9	6,2	8,3	8,2	1	1	1	1	1	1	1	1	1	0	1	-7,188161	273,532373	310,21993	0
15.01.2021	07:40:31	0	0	3,728471	2,84175	10,9152	-0,363	85,661	0	1011,9	6,1	8,3	8,2	1	1	1	1	1	1	1	1	1	0	1	-6,624383	273,468724	310,488377	0
15.01.2021	07:40:32	0	0	4,85831	2,79375	358,704	-0,356	85,658	0	1012,12	6,2	8,3	8,2	1	1	1	1	1	1	1	1	1	0	1	-5,567301	273,548318	311,914807	0
15.01.2021	07:40:33	0	0	3,389519	2,9025	20,6388	-0,36	85,643	0	1012,1	6,2	8,3	8,2	1	1	1	1	1	1	1	1	1	0	1	-6,483439	273,625331	311,356345	0
15.01.2021	07:40:34	0	0	2,824599	2,871	12,8592	-0,359	85,653	0	1011,9	6,2	8,4	8,2	1	1	1	1	1	1	1	1	1	0	1	-4,862579	273,549768	312,626261	0
15.01.2021	07:40:35	0	0	3,728471	3,02025	17,6796	-0,36	85,665	0	1011,98	6,2	8,3	8,2	1	1	1	1	1	1	1	1	1	0	1	-4,439746	273,634069	313,440639	0
15.01.2021	07:40:36	0	0	2,937583	2,979	13,1688	-0,344	85,66	0	1012,08	6,1	8,3	8,2	1	1	1	1	1	1	1	1	1	0	1	-5,84919	273,470169	311,27027	0
15.01.2021	07:40:37	0	0	4,85831	3,057	4,8312	-0,359	85,652	0	1011,96	6,2	8,3	8,2	1	1	1	1	1	1	1	1	1	0	1	-4,651163	273,578796	312,972459	0
15.01.2021	07:40:38	0	0	3,841478	3,15	7,632	-0,361	85,655	0	1012,02	6,2	8,3	8,1	1	1	1	1	1	1	1	1	1	0	1	-5,426357	273,628243	312,426959	0
15.01.2021	07:40:39	0	0	3,163551	3,32925	357,6204	-0,36	85,653	0	1011,96	6,2	8,3	8,2	1	1	1	1	1	1	1	1	1	0	1	-3,523608	273,596233	314,181	0
15.01.2021	07:40:40	0	0	3,050567	3,40125	1,566	-0,365	85,659	0	1012	6,2	8,3	8,2	1	1	1	1	1	1	1	1	1	0	1	-4,580691	273,449959	312,44504	0
15.01.2021	07:40:41	0	0	4,29339	3,444	15,408	-0,357	85,655	0	1012,14	6,2	8,3	8,2	1	1	1	1	1	1	1	1	1	0	1	-2,818887	273,561374	314,723837	0
15.01.2021	07:40:42	0	0	4,632342	3,41775	7,506	-0,365	85,657	0	1011,96	6,2	8,3	8,2	1	1	1	1	1	1	1	1	1	0	1	-3,735025	273,623875	314,097995	0
15.01.2021	07:40:43	0	0	3,389539	3,3135	2,6568	-0,355	85,641	0	1011,98	6,2	8,3	8,1	1	1	1	1	1	1	1	1	1	0	1	-7,82241	273,509204	309,47815	0
15.01.2021	07:40:44	0	0	2,824599	3,28275	16,1172	-0,357	85,654	0	1012	6,1	8,3	8,2	1	1	1	1	1	1	1	1	1	0	1	-5,003524	273,468724	312,109237	0
15.01.2021	07:40:45	0	0	3,615487	3,315	12,474	-0,365	85,658	0	1011,94	6,2	8,3	8,2	1	1	1	1	1	1	1	1	1	0	1	-8,527132	273,460061	308,545449	0
15.01.2021	07:40:46	0	0	4,745326	3,37725	2,6388	-0,357	85,643	0	1012,08	6,2	8,3	8,2	1	1	1	1	1	1	1	1	1	0	1	-3,171247	273,561374	314,371476	0
15.01.2021	07:40:47	0	0	4,067422	3,372	6,822	-0,357	85,649	0	1012,06	6,2	8,3	8,2	1	1	1	1	1	1	1	1	1	0	1	-6,624383	273,623875	311,208636	0
15.01.2021	07:40:48	0	0	4,85831	3,273	12,8484	-0,354	85,652	0	1011,78	6,2	8,3	8,2	1	1	1	1	1	1	1	1	1	0	1	-7,329105	273,626787	310,517445	0
15.01.2021	07:40:49	0	0	3,728471	3,09525	12,4668	-0,355	85,664	0	1011,96	6,1	8,3	8,2	1	1	1	1	1	1	1	1	1	0	1	-5,003524	273,591872	312,68083	0
15.01.2021	07:40:50	0	0	4,519358	2,97975	27,6552	-0,351	85,667	0	1012	6,2	8,3	8,2	1	1	1	1	1	1	1	1	1	0	1	-5,637773	273,632612	312,235844	0
15.01.2021	07:40:51	0	0	4,406374	2,74725	22,0824	-0,356	85,663	0	1012,06	6,2	8,4	8,2	1	1	1	1	1	1	1	1	1	0	1	-7,399577	273,483172	309,7802	0
15.01.2021	07:40:52	0	0	2,824599	2,54625	24,7356	-0,361	85,661	0	1011,98	6,1	8,3	8,2	1	1	1	1	1	1	1	1	1	0	1	-7,188161	273,528027	310,199756	0
15.01.2021	07:40:53	0	0	3,050567	2,28675	16,8624	-0,359	85,663	0	1011,92	6,2	8,3	8,2	1	1	1	1	1	1	1	1	1	0	1	-6,412967	273,46728	310,693096	0
15.01.2021	07:40:54	0	0	3,163551	2,06175	16,848	-0,359	85,648	0	1012,02	6,2	8,3	8,2	1	1	1	1	1	1	1	1	1	0	1	-2,748414	273,490399	314,464894	0
15.01.2021	07:40:55	0	0	4,519358	1,94475	14,328	-0,36	85,659	0	1012	6,2	8,3	8,2	1	1	1	1	1	1	1	1	1	0	1	-3,875969	273,471613	313,25019	0
15.01.2021	07:40:56	0	0	3,502503	1,899	24,7176	-0,352	85,645	0	1011,8	6,2	8,3	8,2	1	1	1	1	1	1	1	1	1	0	1	-7,329105	273,458618	309,736781	0
15.01.2021	07:40:57	0	0	4,519358	2,14275	30,3048	-0,358	85,663	0	1012,04	6,2	8,3	8,2	1	1	1	1	1	1	1	1	1	0	1	-8,45666	273,570083	309,126502	0
15.01.2021	07:40:58	0	0	3,050548	2,2875	17,2404	-0,354	85,665	0	1011,98	6,2	8,3	8,3	1	1	1	1	1	1	1	1	1	0	1	-9,44327	273,628243	308,410046	0
15.01.2021	07:40:59	0	0	4,632342	2,268	27,2592	-0,358	85,713	0	1012,12	6,2	8,3	8,2	1	1	1	1	1	1	1	1	1	0	1	-6,765328	273,632612	311,10829	0
15.01.2021	07:41:00	0	0	3,276535	2,124	15,786	-0,356	85,652	0	1011,98	6,2	8,3	8,2	1	1	1	1	1	1	1	1	1	0	1	-6,906272	273,447074	310,106079	0
15.01.2021	07:41:01	0	0	3,276535	2,124	15,786	-0,356	85,652	0	1011,98	6,2	8,3	8,2	1	1	1	1	1	1	1	1	1	0	1	-6,906272	273,447074	310,106079	0
15.01.2021	07:41:02	0	0	3,389519	2,2335	34,686	-0,353	85,662	0	1012,04	6,2	8,3	8,2	1	1	1	1	1	1	1	1	1	0	1	-4,580691	273,568631	312,995729	0
15.01.2021	07:41:03	0	0	2,598631	2,31	27,9792	-0,348	85,658	0	1011,96	6,1	8,3	8,2	1	1	1	1	1	1	1	1	1	0	1	-5,637773	273,613686	312,147911	0
15.01.2021	07:41:04	0	0	2,146695	2,229	29,106	-0,352	85,647	0	1012	6,1	8,3	8,2	1	1	1	1	1	1	1	1	1	0	1	-8,033827	273,641353	309,88041	0
15.01.2021	07:41:05	0	0	2,711615	2,01	31,0032	-0,357	85,654	0	1011,94	6,2	8,3	8,2	1	1	1	1	1	1	1	1	1	0	1	-9,302326	273,565728	308,260614	0
15.01.2021	07:41:06	0	0	2,259679	1,74075	20,3652	-0,351	85,663	0	1012,18	6,1	8,3	8,2	1	1	1	1	1	1	1	1	1	0	1	-6,131078	273,622419	311,695178	0
15.01.2021	07:41:07	0	0	3,841454	1,61925	6,0768	-0,356	85,668	0	1011,96	6,2	8,3	8,2	1	1	1	1	1	1	1	1	1	0	1	-4,22833	273,526578	313,152863	0
15.01.2021	07:41:08	0	0	4,519358	1,81275	14,6448	-0,361	85,65	0	1012,1	6,2	8,3	8,2	1	1	1	1	1	1	1	1	1	0	1	-10,147992	273,641353	307,766246	0
15.01.2021	07:41:09	0	0	4,519358	1,9215	9,756	-0,356	85,642	0	1012,08	6,3	8,3	8,2	1	1	1	1	1	1	1	1	1	0	1	-3,875969	273,593326	313,815135	0
15.01.2021	07:41:10	0	0	5,42323	1,9755	0,882	-0,353	85,66	0	1012,08	6,2	8,3	8,2	1	1	1	1	1	1	1	1	1	0	1	-0	273,584606	317,650607	0
15.01.2021	07:41:11	0	0	3,728471	1,926	11,7144	-0,349	85,653	0	1012,2	6,2	8,3	8,2	1	1	1	1	1	1	1	1	1	0	1	-4,580691	273,639896	313,326775	0
15.01.2021	07:41:12	0	0	3,050567	1,94625	6,8004	-0,354	85,636	0	1011,92	6,1	8,3	8,2	1	1	1	1	1	1	1	1	1	0	1	-2,325581	273,49763	314,921273	0
15.01.2021	07:41:13	0	0	2,937583	1,96425	9,3636	-0,353	85,651	0	1012,22	6,1	8,3	8,2	1	1	1	1	1	1	1	1	1	0	1	-5,919662	273,628243	311,933654	0
15.01.2021	07:41:14	0	0	5,084278	1,89225	5,31	-0,352	85,647	0	1012,06	6,2	8,3	8,2	1	1	1	1	1	1	1	1	1	0	1	-0,775194	273,631156	317,091656	0
15.01.2021	07:41:15	0	0	4,745326	1,84875	7,8876	-0,355	85,639	0	1011,94	6,3	8,3	8,2	1	1	1	1	1	1	1	1	1	0	1	-2,325581	273,499076	314,927984	0
15.01.2021	07:41:16	0	0	2,824599	1,872	6,066	-0,358	85,646	0	1011,96	6,3	8,3	8,2	1	1	1	1	1	1	1	1	1	0	1	-0,281889	273,514993	317,04554	0
15.01.2021	07:41:17	0	0	4,632342	1,96575	3,3984	-0,349	85,646	0	1011,96	6,2	8,3	8,2	1	1	1	1	1	1	1	1	1	0	1	-6,412967	273,636982	311,480958	0
15.01.2021	07:41:18	0	0	4,745326	2,223	5,2272	-0,349	85,652	0	1011,94	6,2	8,3	8,2	1	1	1	1	1	1	1	1	1	0	1	-3,735025	273,494737	313,49841	0
15.01.2021	07:41:19	0	0	4,406374	2,40525	6,0624	-0,353	85,65	0	1011,94	6,2	8,3	8,2	1	1	1	1	1	1	1	1	1	0	1	-4,721635	273,642811	313,199374	0
15.01.2021	07:41:20	0	0	4,745326	2,5785	10,8	-0,356	85,634	0	1011,98	6,2	8,3	8,2	1	1	1	1	1	1	1	1	1	0	1	-3,523608	273,561374	314,019115	0
15.01.2021	07:41:21	0	0	3,615487	2,6325	12,5604	-0,353	85,64	0	1011,86	6,2	8,3	8,2	1	1	1	1	1	1	1	1	1	0	1	-4,721635	273,516441	312,612512	0
15.01.2021	07:41:22	0	0	3,615487	2,5395	6,066	-0,354	85,653	0	1012,06	6,2	8,3	8,2	1	1	1	1	1	1	1	1	1	0	1	-5,567301	273,454288	311,478505	0
15.01.2021	07:41:23	0	0	4,067422	2,42925	8,6256	-0,355	85,651	0	1011,96	6,2	8,3	8,2	1	1	1	1	1	1	1	1	1	0	1	-8,80902	273,570083	308,774141	0
15.01.2021	07:41:24	0	0	4,632342	2,25225	21,762	-0,355	85,66	0	1012,02	6,2	8,3	8,2	1	1	1	1	1	1	1	1	1	0	1	-6,412967	273,634069	311,467419	0
15.01.2021	07:41:25	0	0	2,824599	2,05425	14,4	-0,347	85,635	0	1012,1	6,2	8,3	8,2	1	1	1	1	1	1	1	1	1	0	1	-3,312192	273,552669	314,190116	0
15.01.2021	07:41:26	0	0	3,841454	1,8855	9,738	-0,352	85,648	0	1011,88	6,2	8,3	8,2	1	1	1	1	1	1	1	1	1	0	1	-2,536998	273,493291	314,689727	0
15.01.2021	07:41:27	0	0	4,406374	1,79775	15,0336	-0,353	85,652	0	1011,96	6,2	8,3	8,2	1	1	1	1	1	1	1	1	1	0	1	-2,396054	273,639896	315,511412	0
15.01.2021	07:41:28	0	0	4,519358	1,69575	3,024	-0,356	85,667	0	1012,06	6,2	8,3	8,2	1	1	1	1	1	1	1	1	1	0	1	-6,272023	273,52513	311,102448	0
15.01.2021	07:41:29	0	0	2,711615	1,85775	7,2108	-0,355	85,656	0	1011,88	6,2	8,3	8,2	1	1	1	1	1	1	1	1	1	0	1	-1,691332	273,613686	316,094352	0
15.01.2021	07:41:30	0	0	3,389519	2,0055	15,0228	-0,351	85,651	0	1011,94	6,2	8,3	8,2	1	1	1	1	1	1	1	1	1	0	1	-4,369274	273,491845	312,850742	0
15.01.2021	07:41:31	0	0	3,841454	2,1165	7,8804	-0,351	85,658	0	1012,02	6,2	8,3	8,2	1	1	1	1	1	1	1	1	1	0	1	-5,84919	273,604958	311,895946	0
15.01.2021	07:41:32	0	0	2,937583	2,397	15,1344	-0,357	85,649	0	1012	6,2	8,3	8,2	1	1	1	1	1	1	1	1	1	0	1	-4,580691	273,636982	313,313234	0
15.01.2021	07:41:33	0	0	4,067422	2,4735	18,0756	-0,352	85,66	0	1011,96	6,2	8,3	8,2	1	1	1	1	1	1	1	1	1	0	1	-2,818887	273,590419	314,858716	0
15.01.2021	07:41:34	0	0	3,389519	2,50725	3,7656	-0,359	85,649	0	1012,06	6,2	8,3	8,2	1	1	1	1	1	1	1	1	1	0	1	-5,073996	273,500522	312,186282	0
15.01.2021	07:41:35	0	0	4,745326	2,592	6,8184	-0,348	85,663	0	1012,08	6,3	8,3	8,2	1	1	1	1	1	1	1	1	1	0	1	-5,708245	273,638439	312,192449	0
15.01.2021	07:41:36	0	0	4,85831	2,643	9,7488	-0,353	85,65	0	1011,94	6,2	8,3	8,2	1	1	1	1	1	1	1	1	1	0	1	-2,043693	273,575891	315,566439	0
15.01.2021	07:41:37	0	0	4,745326	2,5935	3,7692	-0,356	85,662	0	1012,02	6,1	8,3	8,2	1	1	1	1	1	1	1	1	1	0	1	-6,060606	273,636982	311,833318	0
15.01.2021	07:41:38	0	0	3,276535	2,4585	0	-0,351	85,676	0	1012,04	6,2	8,3	8,2	1	1	1	1	1	1	1	1	1	0	1	-0,775194	273,449959	316,250537	0
15.01.2021	07:41:39	0	0	5,310246	2,35125	7,8768	-0,356	85,642	0	1012,08	6,2	8,3	8,2	1	1	1	1	1	1	1	1	1	0	1	-8,386187	273,549768	309,102653	0
15.01.2021	07:41:40	0	0	3,389519	2,38275	18,8316	-0,345	85,669	0	1012,04	6,2	8,3	8,2	1	1	1	1	1	1	1	1	1	0	1	-4,510218	273,623875	313,322801	0
15.01.2021	07:41:41	0	0	2,711615	2,346	17,2296	-0,354	85,665	0	1012,08	6,3	8,3	8,2	1	1	1	1	1	1	1	1	1	0	1	-7,258633	273,494737	309,974801	0
15.01.2021	07:41:42	0	0	2,824599	2,60925	38,4048	-0,349	85,671	0	1011,94	6,2	8,3	8,2	1	1	1	1	1	1	1	1	1	0	1	-5,990134	273,634069	311,890252	0
15.01.2021	07:41:43	0	0	4,971294	2,67825	22,824	-0,353	85,656	0	1012,02	6,2	8,3	8,2	1	1	1	1	1	1	1	1	1	0	1	-4,933051	273,642811	312,987958	0
15.01.2021	07:41:44	0	0	3,276535	2,829	34,6932	-0,352	85,661	0	1011,9	6,2	8,3	8,2	1	1	1	1	1	1	1	1	1	0	1	-3,382664	273,549768	314,106177	0
15.01.2021	07:41:45	0	0	5,42323	2,919	31,7592	-0,353	85,666	0	1012	6,1	8,3	8,2	1	1	1	1	1	1	1	1	1	0	1	-5,355884	273,471613	311,770275	0
15.01.2021	07:41:46	0	0	3,163551	2,88	19,8936	-0,351	85,651	0	1012,02	6,3	8,3	8,2	1	1	1	1	1	1	1	1	1	0	1	-2,889359	273,55412	314,619683	0
15.01.2021	07:41:47	0	0	4,632342	2,628	33,948	-0,35	85,659	0	1011,92	6,3	8,3	8,2	1	1	1	1	1	1	1	1	1	0	1	-8,245243	273,623875	309,587777	0
15.01.2021	07:41:48	0	0	3,276535	2,27775	26,514	-0,354	85,662	0	1012,04	6,3	8,3	8,2	1	1	1	1	1	1	1	1	1	0	1	-7,892882	273,510651	309,414394	0
15.01.2021	07:41:49	0	0	5,197262	2,06325	27,27	-0,352	85,654	0	1012,1	6,1	8,3	8,2	1	1	1	1	1	1	1	1	1	0	1	-5,355884	273,494737	311,87755	0
15.01.2021	07:41:50	0	0	2,598631	1,99275	37,3176	-0,356	85,668	0	1012,08	6,2	8,3	8,2	1	1	1	1	1	1	1	1	1	0	1	-4,510218	273,452845	312,528895	0
15.01.2021	07:41:51	0	0	2,598631	2,0925	25,1208	-0,349	85,674	0	1012	6,1	8,3	8,2	1	1	1	1	1	1	1	1	1	0	1	-0,704722	273,539619	316,737004	0
15.01.2021	07:41:52	0	0	4,406374	2,01375	19,5264	-0,349	85,667	0	1012,1	6,2	8,3	8,2	1	1	1	1	1	1	1	1	1	0	1	-1,198027	273,636982	316,695898	0
15.01.2021	07:41:53	0	0	2,598631	1,9335	18,0684	-0,353	85,657	0	1012,08	6,2	8,3	8,2	1	1	1	1	1	1	1	1	1	0	1	-9,866103	273,593326	307,825001	0
15.01.2021	07:41:54	0	0	3,841454	1,9065	20,6388	-0,348	85,667	0	1012,04	6,1	8,3	8,2	1	1	1	1	1	1	1	1	1	0	1	-4,157858	273,594779	313,539998	0
15.01.2021	07:41:55	0	0	3,841454	1,90575	24,3432	-0,347	85,66	0	1012,06	6,1	8,3	8,2	1	1	1	1	1	1	1	1	1	0	1	-5,21494	273,468724	311,897821	0
15.01.2021	07:41:56	0	0	3,841454	1,8495	19,152	-0,345	85,664	0	1012,04	6,2	8,3	8,2	1	1	1	1	1	1	1	1	1	0	1	-3,946441	273,52513	313,428029	0
15.01.2021	07:41:57	0	0	2,824599	1,78425	18,9252	-0,347	85,656	0	1012,1	6,1	8,3	8,2	1	1	1	1	1	1	1	1	1	0	1	-5,144468	273,474502	311,995092	0
15.01.2021	07:41:58	0	0	4,519358	1,668	7,1316	-0,347	85,665	0	1012	6,1	8,3	8,2	1	1	1	1	1	1	1	1	1	0	1	-5,144468	273,565728	312,418472	0
15.01.2021	07:41:59	0	0	3,163551	1,61625	3,0168	-0,353	85,649	0	1011,94	6,1	8,3	8,2	1	1	1	1	1	1	1	1	1	0	1	-4,933051	273,464392	312,159616	0
15.01.2021	07:42:00	0	0	4,067422	2,1165	18,9144	-0,349	85,672	0	1012	6,2	8,3	8,2	1	1	1	1	1	1	1	1	1	0	1	-9,020437	273,623875	308,812583	0
15.01.2021	07:42:01	0	0	4,067422	2,1165	18,9144	-0,349	85,672	0	1012	6,2	8,3	8,2	1	1	1	1	1	1	1	1	1	0	1	-9,020437	273,623875	308,812583	0
15.01.2021	07:42:02	0	0	2,598631	2,32425	15,0372	-0,345	85,665	0	1012,22	6,2	8,3	8,2	1	1	1	1	1	1	1	1	1	0	1	-4,157858	273,499076	313,095708	0
15.01.2021	07:42:03	0	0	4,519358	2,403	20,2824	-0,346	85,666	0	1011,98	6,2	8,3	8,2	1	1	1	1	1	1	1	1	1	0	1	-5,21494	273,626787	312,63161	0
15.01.2021	07:42:04	0	0	2,711615	2,3145	12,4632	-0,352	85,631	0	1011,98	6,2	8,3	8,2	1	1	1	1	1	1	1	1	1	0	1	-6,906272	273,461505	310,173004	0
15.01.2021	07:42:05	0	0	2,824599	2,4255	3,4848	-0,352	85,657	0	1011,98	6,2	8,3	8,2	1	1	1	1	1	1	1	1	1	0	1	-7,610994	273,549768	309,877847	0
15.01.2021	07:42:06	0	0	3,050567	2,75325	10,818	-0,354	85,652	0	1012	6,2	8,3	8,2	1	1	1	1	1	1	1	1	1	0	1	-2,396054	273,464392	314,696614	0
15.01.2021	07:42:07	0	0	3,276535	2,83875	354,924	-0,349	85,656	0	1012,04	6,2	8,3	8,2	1	1	1	1	1	1	1	1	1	0	1	-3,875969	273,493291	313,350756	0
15.01.2021	07:42:08	0	0	3,728471	2,85075	6,0624	-0,346	85,664	0	1012,04	6,2	8,3	8,2	1	1	1	1	1	1	1	1	1	0	1	-3,523608	273,541069	313,924846	0
15.01.2021	07:42:09	0	0	4,29339	2,71425	1,9224	-0,355	85,654	0	1011,98	6,1	8,3	8,2	1	1	1	1	1	1	1	1	1	0	1	-0	273,629699	317,860082	0
15.01.2021	07:42:10	0	0	3,163551	2,56725	6,804	-0,353	85,655	0	1012	6,2	8,3	8,2	1	1	1	1	1	1	1	1	1	0	1	-4,580691	273,549768	312,90815	0
15.01.2021	07:42:11	0	0	3,502503	2,526	3,0312	-0,343	85,638	0	1012,04	6,2	8,3	8,2	1	1	1	1	1	1	1	1	1	0	1	-3,946441	273,46728	313,159621	0
15.01.2021	07:42:12	0	0	4,29339	2,55	15,4044	-0,347	85,676	0	1011,86	6,3	8,3	8,2	1	1	1	1	1	1	1	1	1	0	1	-2,959831	273,588966	314,711022	0
15.01.2021	07:42:13	0	0	3,050567	2,51325	14,652	-0,353	85,667	0	1012,04	6,1	8,3	8,2	1	1	1	1	1	1	1	1	1	0	1	-4,862579	273,632612	313,011038	0
15.01.2021	07:42:14	0	0	2,259679	2,41875	14,3028	-0,348	85,671	0	1012,02	6,1	8,3	8,2	1	1	1	1	1	1	1	1	1	0	1	-0	273,473057	317,132859	0
15.01.2021	07:42:15	0	0	2,824599	2,24775	10,4508	-0,346	85,665	0	1012,04	6,2	8,3	8,2	1	1	1	1	1	1	1	1	1	0	1	-1,761804	273,491845	315,458212	0
15.01.2021	07:42:16	0	0	3,615487	2,1165	7,8948	-0,348	85,648	0	1011,98	6,1	8,3	8,2	1	1	1	1	1	1	1	1	1	0	1	-9,936575	273,645725	307,99798	0
15.01.2021	07:42:17	0	0	2,824599	2,02575	9,3636	-0,346	85,66	0	1012,06	6,1	8,3	8,2	1	1	1	1	1	1	1	1	1	0	1	-6,412967	273,500522	310,847311	0
15.01.2021	07:42:18	0	0	4,067422	1,98675	12,8484	-0,344	85,661	0	1012,04	6,2	8,3	8,2	1	1	1	1	1	1	1	1	1	0	1	-8,104299	273,616597	309,694907	0
15.01.2021	07:42:19	0	0	2,711615	1,95075	8,6112	-0,349	85,65	0	1012,12	6,1	8,3	8,2	1	1	1	1	1	1	1	1	1	0	1	-1,761804	273,645725	316,172751	0
15.01.2021	07:42:20	0	0	4,632342	1,92825	9,1044	-0,35	85,662	0	1012,04	6,3	8,3	8,2	1	1	1	1	1	1	1	1	1	0	1	-5,919662	273,587513	311,744442	0
15.01.2021	07:42:21	0	0	4,406374	1,82025	18,0792	-0,348	85,658	0	1012,18	6,2	8,3	8,2	1	1	1	1	1	1	1	1	1	0	1	-8,033827	273,638439	309,866868	0
15.01.2021	07:42:22	0	0	3,841454	1,749	25,0344	-0,347	85,647	0	1012,1	6,2	8,3	8,2	1	1	1	1	1	1	1	1	1	0	1	-1,409443	273,517889	315,931423	0
15.01.2021	07:42:23	0	0	4,745326	1,75275	32,886	-0,351	85,659	0	1012,04	6,2	8,3	8,2	1	1	1	1	1	1	1	1	1	0	1	-3,312192	273,46728	313,793871	0
15.01.2021	07:42:24	0	0	3,502503	1,6695	16,9452	-0,347	85,648	0	1012,12	6,3	8,3	8,2	1	1	1	1	1	1	1	1	1	0	1	-7,188161	273,625331	310,651624	0
15.01.2021	07:42:25	0	0	4,067422	1,68	16,8444	-0,351	85,663	0	1012	6,2	8,3	8,2	1	1	1	1	1	1	1	1	1	0	1	-6,272023	273,549768	311,216818	0
15.01.2021	07:42:26	0	0	2,824599	1,731	38,4228	-0,347	85,667	0	1012	6,2	8,3	8,2	1	1	1	1	1	1	1	1	1	0	1	-3,382664	273,462949	313,703308	0
15.01.2021	07:42:27	0	0	2,711615	1,671	4,1832	-0,351	85,65	0	1012,06	6,3	8,3	8,2	1	1	1	1	1	1	1	1	1	0	1	-5,778717	273,496183	311,461427	0
15.01.2021	07:42:28	0	0	3,276535	1,55025	19,1592	-0,35	85,654	0	1012,04	6,3	8,3	8,2	1	1	1	1	1	1	1	1	1	0	1	-2,959831	273,587513	314,704273	0
15.01.2021	07:42:29	0	0	2,824599	1,63125	2,3292	-0,35	85,662	0	1012,02	6,3	8,3	8,2	1	1	1	1	1	1	1	1	1	0	1	-7,610994	273,622419	310,215262	0
15.01.2021	07:42:30	0	0	2,485647	2,03025	8,604	-0,349	85,643	0	1012,08	6,2	8,3	8,2	1	1	1	1	1	1	1	1	1	0	1	-4,510218	273,510651	312,797058	0
15.01.2021	07:42:31	0	0	2,937583	2,21475	7,5204	-0,345	85,646	0	1011,94	6,2	8,3	8,2	1	1	1	1	1	1	1	1	1	0	1	-4,862579	273,520785	312,491727	0
15.01.2021	07:42:32	0	0	4,29339	2,2305	3,3984	-0,342	85,65	0	1011,98	6,1	8,3	8,2	1	1	1	1	1	1	1	1	1	0	1	-3,735025	273,641353	314,179212	0
15.01.2021	07:42:33	0	0	3,389519	2,17275	10,4472	-0,354	85,651	0	1012,08	6,2	8,3	8,2	1	1	1	1	1	1	1	1	1	0	1	-3,100775	273,530924	314,30059	0
15.01.2021	07:42:34	0	0	3,163551	2,06175	23,3136	-0,343	85,661	0	1012,14	6,2	8,3	8,2	1	1	1	1	1	1	1	1	1	0	1	-5,567301	273,575891	312,042831	0
15.01.2021	07:42:35	0	0	4,29339	2,05875	28,3464	-0,345	85,653	0	1012,08	6,2	8,3	8,2	1	1	1	1	1	1	1	1	1	0	1	-6,342495	273,638439	311,5582	0
15.01.2021	07:42:36	0	0	3,276535	1,98675	35,8668	-0,35	85,648	0	1011,86	6,1	8,3	8,2	1	1	1	1	1	1	1	1	1	0	1	-7,751938	273,53817	309,683059	0
15.01.2021	07:42:37	0	0	4,632342	1,85475	23,5764	-0,343	85,661	0	1012,1	6,2	8,3	8,2	1	1	1	1	1	1	1	1	1	0	1	-4,721635	273,629699	313,138447	0
15.01.2021	07:42:38	0	0	3,163551	1,69125	22,0716	-0,345	85,659	0	1012,04	6,1	8,3	8,2	1	1	1	1	1	1	1	1	1	0	1	-2,889359	273,593326	314,801746	0
15.01.2021	07:42:39	0	0	2,485647	1,6095	13,9212	-0,348	85,657	0	1012,06	6,3	8,3	8,2	1	1	1	1	1	1	1	1	1	0	1	-9,161381	273,507757	308,132464	0
15.01.2021	07:42:40	0	0	4,632342	1,66125	351,2448	-0,342	85,668	0	1012,16	6,2	8,3	8,2	1	1	1	1	1	1	1	1	1	0	1	-6,342495	273,634069	311,537891	0
15.01.2021	07:42:41	0	0	4,29339	1,73475	6,804	-0,346	85,652	0	1011,96	6,1	8,3	8,2	1	1	1	1	1	1	1	1	1	0	1	-2,184637	273,564277	315,371563	0
15.01.2021	07:42:42	0	0	3,389519	1,82175	13,1688	-0,342	85,653	0	1012,04	6,2	8,3	8,2	1	1	1	1	1	1	1	1	1	0	1	-8,174771	273,635525	309,712384	0
15.01.2021	07:42:43	0	0	3,389519	1,72425	18,4392	-0,347	85,657	0	1012	6,2	8,3	8,2	1	1	1	1	1	1	1	1	1	0	1	-5,355884	273,500522	311,904393	0
15.01.2021	07:42:44	0	0	4,632342	1,86975	7,5204	-0,349	85,645	0	1011,94	6,2	8,3	8,2	1	1	1	1	1	1	1	1	1	0	1	-4,933051	273,500522	312,327226	0
15.01.2021	07:42:45	0	0	2,937583	2,1525	16,47	-0,343	85,652	0	1012,22	6,2	8,3	8,2	1	1	1	1	1	1	1	1	1	0	1	-7,329105	273,636982	310,564819	0
15.01.2021	07:42:46	0	0	4,29339	2,46225	15,5124	-0,342	85,651	0	1011,94	6,3	8,3	8,2	1	1	1	1	1	1	1	1	1	0	1	-1,973221	273,546868	315,502155	0
15.01.2021	07:42:47	0	0	4,067422	2,63325	16,4844	-0,343	85,66	0	1011,7	6,2	8,3	8,2	1	1	1	1	1	1	1	1	1	0	1	-5,355884	273,616597	312,443321	0
15.01.2021	07:42:48	0	0	4,745326	2,7615	10,8144	-0,346	85,659	0	1011,98	6,3	8,3	8,2	1	1	1	1	1	1	1	1	1	0	1	-7,399577	273,657389	310,589188	0
15.01.2021	07:42:49	0	0	4,29339	2,9265	10,8972	-0,343	85,659	0	1012,04	6,1	8,3	8,2	1	1	1	1	1	1	1	1	1	0	1	-6,976744	273,552669	310,525563	0
15.01.2021	07:42:50	0	0	5,084278	2,8725	10,0548	-0,344	85,648	0	1011,96	6,2	8,3	8,2	1	1	1	1	1	1	1	1	1	0	1	-3,523608	273,473057	313,609251	0
15.01.2021	07:42:51	0	0	3,276535	2,8305	6,426	-0,348	85,637	0	1012,12	6,1	8,3	8,2	1	1	1	1	1	1	1	1	1	0	1	-3,805497	273,541069	313,642957	0
15.01.2021	07:42:52	0	0	3,615487	2,7435	18,4608	-0,343	85,649	0	1012,14	6,1	8,3	8,2	1	1	1	1	1	1	1	1	1	0	1	-4,157858	273,603503	313,580521	0
15.01.2021	07:42:53	0	0	3,728471	2,63625	18,1656	-0,347	85,644	0	1011,98	6,2	8,3	8,2	1	1	1	1	1	1	1	1	1	0	1	-4,157858	273,648641	313,790246	0
15.01.2021	07:42:54	0	0	3,841454	2,52225	15,7824	-0,348	85,653	0	1012,02	6,1	8,3	8,2	1	1	1	1	1	1	1	1	1	0	1	-6,272023	273,549768	311,216818	0
15.01.2021	07:42:55	0	0	2,937583	2,28225	25,0344	-0,348	85,655	0	1012,04	6,2	8,3	8,2	1	1	1	1	1	1	1	1	1	0	1	-5,285412	273,46728	311,82065	0
15.01.2021	07:42:56	0	0	4,067422	2,193	16,0992	-0,346	85,641	0	1012	6,3	8,3	8,2	1	1	1	1	1	1	1	1	1	0	1	-5,567301	273,517889	311,773565	0
15.01.2021	07:42:57	0	0	4,406374	2,487	15,4116	-0,347	85,653	0	1012	6,2	8,3	8,2	1	1	1	1	1	1	1	1	1	0	1	-2,889359	273,597687	314,822003	0
15.01.2021	07:42:58	0	0	4,29339	2,8725	11,7144	-0,34	85,666	0	1012,12	6,1	8,3	8,2	1	1	1	1	1	1	1	1	1	0	1	-6,20155	273,623875	311,631469	0
15.01.2021	07:42:59	0	0	2,259679	3,294	5,238	-0,351	85,65	0	1012,08	6,1	8,3	8,2	1	1	1	1	1	1	1	1	1	0	1	-9,725159	273,55557	307,790618	0
15.01.2021	07:43:00	0	0	4,406374	3,645	5,22	-0,348	85,654	0	1012,06	6,1	8,3	8,2	1	1	1	1	1	1	1	1	1	0	1	-5,21494	273,549768	312,2739	0
15.01.2021	07:43:01	0	0	4,406374	3,645	5,22	-0,348	85,654	0	1012,06	6,1	8,3	8,2	1	1	1	1	1	1	1	1	1	0	1	-5,21494	273,549768	312,2739	0
15.01.2021	07:43:02	0	0	5,084278	3,52425	357,9516	-0,352	85,646	0	1011,92	6,1	8,3	8,2	1	1	1	1	1	1	1	1	1	0	1	-5,778717	273,638439	312,121977	0
15.01.2021	07:43:03	0	0	2,598631	3,189	356,4864	-0,345	85,649	0	1011,92	6,2	8,3	8,2	1	1	1	1	1	1	1	1	1	0	1	-6,20155	273,494737	311,031884	0
15.01.2021	07:43:04	0	0	2,711615	2,93475	7,1316	-0,343	85,666	0	1012,06	6,2	8,3	8,2	1	1	1	1	1	1	1	1	1	0	1	-1,550388	273,620963	316,269105	0
15.01.2021	07:43:05	0	0	3,615487	2,85	17,694	-0,346	85,65	0	1011,94	6,2	8,3	8,2	1	1	1	1	1	1	1	1	1	0	1	-2,043693	273,634069	315,836693	0
15.01.2021	07:43:06	0	0	2,711615	2,78175	17,2152	-0,347	85,648	0	1012,02	6,1	8,3	8,2	1	1	1	1	1	1	1	1	1	0	1	-8,668076	273,507757	308,625769	0
15.01.2021	07:43:07	0	0	5,197262	2,6325	17,7084	-0,354	85,658	0	1012,04	6,3	8,3	8,2	1	1	1	1	1	1	1	1	1	0	1	-6,131078	273,594779	311,566778	0
15.01.2021	07:43:08	0	0	4,745326	2,5425	19,62	-0,347	85,644	0	1012,02	6,1	8,3	8,2	1	1	1	1	1	1	1	1	1	0	1	-3,100775	273,471613	314,025384	0
15.01.2021	07:43:09	0	0	4,971294	2,2935	22,4712	-0,347	85,659	0	1011,9	6,2	8,3	8,2	1	1	1	1	1	1	1	1	1	0	1	-2,043693	273,588966	315,62716	0
15.01.2021	07:43:10	0	0	3,163551	2,0655	22,8384	-0,346	85,663	0	1012,06	6,2	8,3	8,2	1	1	1	1	1	1	1	1	1	0	1	-5,073996	273,529475	312,320645	0
15.01.2021	07:43:11	0	0	2,711615	1,84575	29,9664	-0,343	85,649	0	1012,04	6,2	8,3	8,2	1	1	1	1	1	1	1	1	1	0	1	-6,20155	273,458618	310,864335	0
15.01.2021	07:43:12	0	0	2,824599	1,878	13,2444	-0,351	85,65	0	1011,98	6,2	8,3	8,2	1	1	1	1	1	1	1	1	1	0	1	-5,355884	273,564277	312,200316	0
15.01.2021	07:43:13	0	0	2,824599	2,04225	11,1996	-0,351	85,647	0	1011,96	6,2	8,3	8,2	1	1	1	1	1	1	1	1	1	0	1	-1,268499	273,465836	315,830866	0
15.01.2021	07:43:14	0	0	2,937583	2,226	22,8276	-0,344	85,675	0	1012	6,2	8,3	8,2	1	1	1	1	1	1	1	1	1	0	1	-3,030303	273,653014	314,938129	0
15.01.2021	07:43:15	0	0	4,067422	2,33175	23,2848	-0,343	85,661	0	1012,08	6,1	8,3	8,2	1	1	1	1	1	1	1	1	1	0	1	-4,862579	273,609322	312,902828	0
15.01.2021	07:43:16	0	0	2,824599	2,4705	10,8216	-0,343	85,663	0	1012	6,2	8,3	8,2	1	1	1	1	1	1	1	1	1	0	1	-6,412967	273,53672	311,015303	0
15.01.2021	07:43:17	0	0	3,163551	2,526	5,6952	-0,344	85,668	0	1012,02	6,1	8,3	8,2	1	1	1	1	1	1	1	1	1	0	1	-5,84919	273,639896	312,058276	0
15.01.2021	07:43:18	0	0	3,615487	2,5485	12,8628	-0,343	85,661	0	1011,98	6,3	8,3	8,2	1	1	1	1	1	1	1	1	1	0	1	-4,580691	273,575891	313,029442	0
15.01.2021	07:43:19	0	0	4,519358	2,4405	21,7692	-0,349	85,666	0	1011,98	6,2	8,3	8,2	1	1	1	1	1	1	1	1	1	0	1	-5,708245	273,480281	311,458124	0
15.01.2021	07:43:20	0	0	4,519358	2,32725	10,8072	-0,35	85,665	0	1012,06	6,3	8,3	8,2	1	1	1	1	1	1	1	1	1	0	1	-5,990134	273,491845	311,229882	0
15.01.2021	07:43:21	0	0	3,050567	2,316	18,072	-0,347	85,659	0	1011,92	6,2	8,3	8,2	1	1	1	1	1	1	1	1	1	0	1	-5,496829	273,570083	312,086332	0
15.01.2021	07:43:22	0	0	3,050567	2,27325	18,0936	-0,345	85,667	0	1011,94	6,1	8,3	8,2	1	1	1	1	1	1	1	1	1	0	1	-2,255109	273,481726	314,917964	0
15.01.2021	07:43:23	0	0	4,745326	2,418	359,136	-0,346	85,663	0	1011,84	6,2	8,3	8,2	1	1	1	1	1	1	1	1	1	0	1	-10,147992	273,607867	307,610658	0
15.01.2021	07:43:24	0	0	3,050567	2,724	6,4548	-0,348	85,661	0	1012,02	6,2	8,3	8,2	1	1	1	1	1	1	1	1	1	0	1	-7,470049	273,501969	309,79694	0
15.01.2021	07:43:25	0	0	2,824599	2,976	4,8492	-0,347	85,647	0	1012,18	6,3	8,3	8,2	1	1	1	1	1	1	1	1	1	0	1	-5,990134	273,642811	311,930875	0
15.01.2021	07:43:26	0	0	4,406374	3,29925	3,006	-0,345	85,66	0	1012,06	6,1	8,3	8,2	1	1	1	1	1	1	1	1	1	0	1	-6,412967	273,564277	311,143233	0
15.01.2021	07:43:27	0	0	3,276535	3,573	7,1316	-0,343	85,672	0	1012,08	6,1	8,3	8,2	1	1	1	1	1	1	1	1	1	0	1	-2,043693	273,523681	315,324055	0
15.01.2021	07:43:28	0	0	4,406374	3,69825	7,5024	-0,344	85,653	0	1011,92	6,2	8,3	8,2	1	1	1	1	1	1	1	1	1	0	1	-6,976744	273,639896	310,930721	0
15.01.2021	07:43:29	0	0	4,745326	3,79875	17,2368	-0,342	85,668	0	1012	6,2	8,3	8,2	1	1	1	1	1	1	1	1	1	0	1	-2,959831	273,591872	314,724522	0
15.01.2021	07:43:30	0	0	3,954438	3,6375	23,5872	-0,341	85,668	0	1012	6,1	8,3	8,2	1	1	1	1	1	1	1	1	1	0	1	-4,792107	273,486062	312,401081	0
15.01.2021	07:43:31	0	0	3,502503	3,42075	23,9652	-0,348	85,658	0	1011,88	6,1	8,3	8,2	1	1	1	1	1	1	1	1	1	0	1	-6,765328	273,528027	310,622589	0
15.01.2021	07:43:32	0	0	3,276535	3,393	24,7212	-0,341	85,663	0	1012,02	6,1	8,3	8,2	1	1	1	1	1	1	1	1	1	0	1	-9,020437	273,597687	308,690924	0
15.01.2021	07:43:33	0	0	3,276535	3,228	23,58	-0,341	85,668	0	1012,1	6,1	8,3	8,2	1	1	1	1	1	1	1	1	1	0	1	-4,933051	273,477391	312,219912	0
15.01.2021	07:43:34	0	0	4,85831	3,03825	29,5668	-0,343	85,65	0	1012,18	6,2	8,3	8,2	1	1	1	1	1	1	1	1	1	0	1	-9,654686	273,594779	308,04317	0
15.01.2021	07:43:35	0	0	2,824599	2,77875	18,4536	-0,345	85,662	0	1012,08	6,1	8,3	8,2	1	1	1	1	1	1	1	1	1	0	1	-6,412967	273,622419	311,413289	0
15.01.2021	07:43:36	0	0	3,728471	2,78775	5,6916	-0,345	85,655	0	1012,14	6,2	8,3	8,2	1	1	1	1	1	1	1	1	1	0	1	-1,832276	273,629699	316,027806	0
15.01.2021	07:43:37	0	0	2,711615	2,74725	360	-0,346	85,658	0	1011,88	6,1	8,3	8,2	1	1	1	1	1	1	1	1	1	0	1	-4,298802	273,570083	313,284359	0
15.01.2021	07:43:38	0	0	3,728471	2,8275	6,0552	-0,335	85,672	0	1012,08	6,3	8,3	8,2	1	1	1	1	1	1	1	1	1	0	1	-6,272023	273,468724	310,840738	0
15.01.2021	07:43:39	0	0	2,485647	2,8365	18,4392	-0,341	85,665	0	1011,98	6,2	8,3	8,2	1	1	1	1	1	1	1	1	1	0	1	-3,312192	273,510651	313,995085	0
15.01.2021	07:43:40	0	0	5,084278	2,73975	19,5228	-0,345	85,655	0	1012,06	6,2	8,3	8,2	1	1	1	1	1	1	1	1	1	0	1	-1,127555	273,607867	316,631094	0
15.01.2021	07:43:41	0	0	4,745326	2,7285	18,0864	-0,34	85,675	0	1012,08	6,2	8,3	8,2	1	1	1	1	1	1	1	1	1	0	1	-2,255109	273,638439	315,645585	0
15.01.2021	07:43:42	0	0	2,937583	2,81925	23,22	-0,344	85,669	0	1012,08	6,2	8,3	8,2	1	1	1	1	1	1	1	1	1	0	1	-4,933051	273,548318	312,549057	0
15.01.2021	07:43:43	0	0	4,406374	2,8875	21,7728	-0,341	85,676	0	1012,14	6,2	8,3	8,2	1	1	1	1	1	1	1	1	1	0	1	-3,382664	273,486062	313,810524	0
15.01.2021	07:43:44	0	0	2,598631	2,844	18,4392	-0,346	85,651	0	1012,04	6,2	8,3	8,2	1	1	1	1	1	1	1	1	1	0	1	-4,510218	273,603503	313,228161	0
15.01.2021	07:43:45	0	0	3,050567	2,68725	11,7072	-0,343	85,661	0	1012,06	6,2	8,3	8,2	1	1	1	1	1	1	1	1	1	0	1	-2,396054	273,53817	315,038944	0
15.01.2021	07:43:46	0	0	2,146695	2,7495	11,7036	-0,347	85,663	0	1012,12	6,2	8,3	8,2	1	1	1	1	1	1	1	1	1	0	1	-3,171247	273,641353	314,74299	0
15.01.2021	07:43:47	0	0	4,632342	2,84325	13,5432	-0,348	85,657	0	1011,94	6,2	8,3	8,2	1	1	1	1	1	1	1	1	1	0	1	-4,22833	273,593326	313,462774	0
15.01.2021	07:43:48	0	0	5,084278	2,75025	9,8424	-0,345	85,641	0	1012,18	6,2	8,3	8,2	1	1	1	1	1	1	1	1	1	0	1	-8,597604	273,471613	308,528555	0
15.01.2021	07:43:49	0	0	3,841454	2,6565	16,0884	-0,346	85,655	0	1011,98	6,2	8,3	8,2	1	1	1	1	1	1	1	1	1	0	1	-6,553911	273,46728	310,552151	0
15.01.2021	07:43:50	0	0	3,050567	2,493	12,852	-0,344	85,664	0	1012,02	6,1	8,3	8,2	1	1	1	1	1	1	1	1	1	0	1	-2,114165	273,561374	315,428558	0
15.01.2021	07:43:51	0	0	2,711615	2,3355	16,0992	-0,349	85,658	0	1012	6,1	8,3	8,2	1	1	1	1	1	1	1	1	1	0	1	-10,359408	273,634069	307,520978	0
15.01.2021	07:43:52	0	0	4,180406	2,196	15,0264	-0,343	85,66	0	1012,02	6,1	8,3	8,2	1	1	1	1	1	1	1	1	1	0	1	-7,751938	273,645725	310,182617	0
15.01.2021	07:43:53	0	0	4,519358	2,13375	20,6352	-0,346	85,651	0	1011,96	6,3	8,3	8,2	1	1	1	1	1	1	1	1	1	0	1	-5,84919	273,509204	311,451371	0
15.01.2021	07:43:54	0	0	4,180406	2,1435	14,6376	-0,342	85,654	0	1012,12	6,2	8,3	8,2	1	1	1	1	1	1	1	1	1	0	1	-5,426357	273,618052	312,379611	0
15.01.2021	07:43:55	0	0	4,745326	2,27175	14,0148	-0,344	85,664	0	1012,08	6,2	8,3	8,2	1	1	1	1	1	1	1	1	1	0	1	-3,100775	273,475947	314,045486	0
15.01.2021	07:43:56	0	0	4,745326	2,47575	13,1724	-0,342	85,658	0	1012,12	6,1	8,3	8,2	1	1	1	1	1	1	1	1	1	0	1	-9,44327	273,545418	308,025375	0
15.01.2021	07:43:57	0	0	2,711615	2,541	20,2752	-0,339	85,658	0	1012,06	6,2	8,3	8,2	1	1	1	1	1	1	1	1	1	0	1	-3,664553	273,641353	314,249685	0
15.01.2021	07:43:58	0	0	4,85831	2,56725	9,7416	-0,345	85,661	0	1012,14	6,2	8,3	8,2	1	1	1	1	1	1	1	1	1	0	1	-7,399577	273,578796	310,224044	0
15.01.2021	07:43:59	0	0	3,615487	2,61	10,8144	-0,342	85,655	0	1012,06	6,2	8,3	8,2	1	1	1	1	1	1	1	1	1	0	1	-5,567301	273,612231	312,211624	0
15.01.2021	07:44:00	0	0	3,502503	2,601	7,5024	-0,345	85,655	0	1011,98	6,1	8,3	8,2	1	1	1	1	1	1	1	1	1	0	1	-5,919662	273,493291	311,307063	0
15.01.2021	07:44:01	0	0	3,502503	2,601	7,5024	-0,345	85,655	0	1011,98	6,1	8,3	8,2	1	1	1	1	1	1	1	1	1	0	1	-5,919662	273,493291	311,307063	0
15.01.2021	07:44:02	0	0	4,971294	2,91975	6,4332	-0,345	85,658	0	1011,96	6,2	8,3	8,2	1	1	1	1	1	1	1	1	1	0	1	-6,694856	273,575891	310,915277	0
15.01.2021	07:44:03	0	0	4,632342	3,19575	7,128	-0,348	85,659	0	1012,14	6,2	8,3	8,2	1	1	1	1	1	1	1	1	1	0	1	-3,453136	273,629699	314,406946	0
15.01.2021	07:44:04	0	0	3,728471	3,37425	3,78	-0,341	85,655	0	1011,98	6,1	8,3	8,2	1	1	1	1	1	1	1	1	1	0	1	-3,030303	273,584606	314,620304	0
15.01.2021	07:44:05	0	0	2,937583	3,381	11,7252	-0,342	85,655	0	1012,02	6,2	8,3	8,2	1	1	1	1	1	1	1	1	1	0	1	-9,020437	273,625331	308,819348	0
15.01.2021	07:44:06	0	0	4,067422	3,405	12,096	-0,348	85,65	0	1011,98	6,1	8,3	8,2	1	1	1	1	1	1	1	1	1	0	1	-4,721635	273,584606	312,928972	0
15.01.2021	07:44:07	0	0	3,502503	3,081	24,3468	-0,341	85,65	0	1011,94	6,2	8,3	8,2	1	1	1	1	1	1	1	1	1	0	1	-7,82241	273,581701	309,814703	0
15.01.2021	07:44:08	0	0	3,389519	2,91375	31,3956	-0,341	85,659	0	1012,08	6,2	8,3	8,2	1	1	1	1	1	1	1	1	1	0	1	-0,845666	273,629699	317,014416	0
15.01.2021	07:44:09	0	0	3,615487	2,74875	13,644	-0,34	85,663	0	1011,88	6,1	8,3	8,2	1	1	1	1	1	1	1	1	1	0	1	-3,664553	273,562825	313,884909	0
15.01.2021	07:44:10	0	0	2,937583	2,99775	12,9564	-0,338	85,665	0	1012,06	6,2	8,3	8,2	1	1	1	1	1	1	1	1	1	0	1	-8,104299	273,583154	309,539561	0
15.01.2021	07:44:11	0	0	3,389519	3,17175	15,0372	-0,347	85,659	0	1011,8	6,2	8,3	8,2	1	1	1	1	1	1	1	1	1	0	1	-7,540521	273,480281	309,625848	0
15.01.2021	07:44:12	0	0	2,598631	3,198	15,7932	-0,341	85,673	0	1012,08	6,1	8,3	8,2	1	1	1	1	1	1	1	1	1	0	1	-11,557435	273,493291	305,66929	0
15.01.2021	07:44:13	0	0	3,502503	3,21675	15,0336	-0,345	85,66	0	1012,14	6,2	8,3	8,2	1	1	1	1	1	1	1	1	1	0	1	-4,862579	273,526578	312,518614	0
15.01.2021	07:44:14	0	0	4,85831	3,363	11,2032	-0,337	85,663	0	1012,06	6,2	8,3	8,2	1	1	1	1	1	1	1	1	1	0	1	-7,751938	273,618052	310,054029	0
15.01.2021	07:44:15	0	0	3,841454	3,435	13,1688	-0,336	85,674	0	1012,02	6,2	8,3	8,2	1	1	1	1	1	1	1	1	1	0	1	-5,778717	273,496183	311,461427	0
15.01.2021	07:44:16	0	0	3,841454	3,396	7,5132	-0,338	85,676	0	1012,08	6,3	8,3	8,2	1	1	1	1	1	1	1	1	1	0	1	-2,466526	273,533822	314,94829	0
15.01.2021	07:44:17	0	0	4,180406	3,31275	2,6496	-0,344	85,672	0	1012,08	6,2	8,3	8,2	1	1	1	1	1	1	1	1	1	0	1	-6,694856	273,473057	310,438004	0
15.01.2021	07:44:18	0	0	3,728471	3,20175	359,8632	-0,343	85,669	0	1012,08	6,2	8,3	8,2	1	1	1	1	1	1	1	1	1	0	1	-3,805497	273,644268	314,122285	0
15.01.2021	07:44:19	0	0	2,598631	3,07875	6,426	-0,341	85,669	0	1012,04	6,1	8,3	8,2	1	1	1	1	1	1	1	1	1	0	1	-2,818887	273,516441	314,51526	0
15.01.2021	07:44:20	0	0	2,598631	3,174	7,9092	-0,337	85,669	0	1011,92	6,2	8,3	8,2	1	1	1	1	1	1	1	1	1	0	1	-3,24172	273,631156	314,62513	0
15.01.2021	07:44:21	0	0	3,728471	3,3195	7,4952	-0,348	85,655	0	1012,14	6,1	8,3	8,2	1	1	1	1	1	1	1	1	1	0	1	-4,439746	273,594779	313,25811	0
15.01.2021	07:44:22	0	0	3,050567	3,2955	10,8216	-0,34	85,656	0	1012,08	6,2	8,3	8,2	1	1	1	1	1	1	1	1	1	0	1	-4,439746	273,471613	312,686413	0
15.01.2021	07:44:23	0	0	5,084278	3,03825	11,7072	-0,339	85,672	0	1012,04	6,1	8,3	8,2	1	1	1	1	1	1	1	1	1	0	1	-6,131078	273,631156	311,735771	0
15.01.2021	07:44:24	0	0	4,067422	2,87625	19,8864	-0,338	85,674	0	1012,16	6,2	8,3	8,2	1	1	1	1	1	1	1	1	1	0	1	-2,889359	273,583154	314,754501	0
15.01.2021	07:44:25	0	0	5,197262	2,72175	22,8312	-0,342	85,663	0	1011,86	6,1	8,3	8,2	1	1	1	1	1	1	1	1	1	0	1	-5,84919	273,471613	311,27697	0
15.01.2021	07:44:26	0	0	3,841454	2,517	0,4824	-0,346	85,654	0	1011,8	6,2	8,3	8,2	1	1	1	1	1	1	1	1	1	0	1	-3,171247	273,559923	314,364738	0
15.01.2021	07:44:27	0	0	2,372663	2,50125	16,1028	-0,344	85,658	0	1012,02	6,2	8,3	8,2	1	1	1	1	1	1	1	1	1	0	1	-4,792107	273,477391	312,360856	0
15.01.2021	07:44:28	0	0	3,389519	2,394	12,0996	-0,34	85,676	0	1012	6,1	8,3	8,2	1	1	1	1	1	1	1	1	1	0	1	-6,694856	273,638439	311,205839	0
15.01.2021	07:44:29	0	0	4,29339	2,2065	19,9116	-0,344	85,668	0	1012,04	6,2	8,3	8,2	1	1	1	1	1	1	1	1	1	0	1	-4,087385	273,575891	313,522747	0
15.01.2021	07:44:30	0	0	3,954438	2,166	22,824	-0,341	85,676	0	1012,16	6,1	8,3	8,2	1	1	1	1	1	1	1	1	1	0	1	-4,862579	273,641353	313,051658	0
15.01.2021	07:44:31	0	0	4,29339	2,29725	23,6052	-0,342	85,666	0	1011,94	6,1	8,3	8,2	1	1	1	1	1	1	1	1	1	0	1	-10,147992	273,529475	307,246649	0
15.01.2021	07:44:32	0	0	3,050567	2,30325	7,902	-0,344	85,674	0	1011,98	6,2	8,3	8,2	1	1	1	1	1	1	1	1	1	0	1	-1,761804	273,629699	316,098278	0
15.01.2021	07:44:33	0	0	4,632342	2,26275	0,864	-0,34	85,681	0	1012	6,1	8,3	8,2	1	1	1	1	1	1	1	1	1	0	1	-2,959831	273,610777	314,812335	0
15.01.2021	07:44:34	0	0	3,728471	2,2485	9,7524	-0,342	85,676	0	1012,1	6,2	8,3	8,2	1	1	1	1	1	1	1	1	1	0	1	-6,976744	273,562825	310,572717	0
15.01.2021	07:44:35	0	0	4,29339	2,32875	7,9884	-0,34	85,671	0	1012,1	6,2	8,3	8,2	1	1	1	1	1	1	1	1	1	0	1	-0,563777	273,639896	317,343688	0
15.01.2021	07:44:36	0	0	3,050567	2,55375	4,1796	-0,341	85,667	0	1012,08	6,2	8,3	8,2	1	1	1	1	1	1	1	1	1	0	1	-4,651163	273,474502	312,488397	0
15.01.2021	07:44:37	0	0	2,711615	2,62275	15,0336	-0,339	85,683	0	1012,04	6,2	8,3	8,2	1	1	1	1	1	1	1	1	1	0	1	-3,171247	273,572987	314,425398	0
15.01.2021	07:44:38	0	0	3,389519	2,74125	21,0096	-0,338	85,673	0	1012,16	6,2	8,3	8,2	1	1	1	1	1	1	1	1	1	0	1	-5,919662	273,641353	311,994575	0
15.01.2021	07:44:39	0	0	3,050567	2,89725	9,0072	-0,335	85,672	0	1012,04	6,2	8,3	8,2	1	1	1	1	1	1	1	1	1	0	1	-4,157858	273,565728	313,405082	0
15.01.2021	07:44:40	0	0	3,502503	3,132	4,4568	-0,337	85,675	0	1011,92	6,3	8,3	8,2	1	1	1	1	1	1	1	1	1	0	1	-4,721635	273,628243	313,131681	0
15.01.2021	07:44:41	0	0	3,728471	3,40125	10,0512	-0,344	85,691	0	1011,98	6,2	8,3	8,2	1	1	1	1	1	1	1	1	1	0	1	-2,043693	273,507757	315,250152	0
15.01.2021	07:44:42	0	0	4,85831	3,49725	12,8556	-0,339	85,683	0	1012,04	6,2	8,3	8,2	1	1	1	1	1	1	1	1	1	0	1	-3,382664	273,586059	314,274691	0
15.01.2021	07:44:43	0	0	4,406374	3,4845	10,4436	-0,344	85,68	0	1012,08	6,1	8,3	8,2	1	1	1	1	1	1	1	1	1	0	1	-4,933051	273,639896	312,974414	0
15.01.2021	07:44:44	0	0	2,937583	3,357	15,3936	-0,339	85,689	0	1012,04	6,2	8,3	8,2	1	1	1	1	1	1	1	1	1	0	1	-4,933051	273,571535	312,656852	0
15.01.2021	07:44:45	0	0	4,632342	3,2505	11,1996	-0,337	85,691	0	1011,96	6,2	8,3	8,2	1	1	1	1	1	1	1	1	1	0	1	-2,889359	273,636982	315,004566	0
15.01.2021	07:44:46	0	0	3,389519	3,2985	6,066	-0,342	85,679	0	1012,06	6,2	8,3	8,2	1	1	1	1	1	1	1	1	1	0	1	-8,738548	273,612231	309,040376	0
15.01.2021	07:44:47	0	0	4,519358	3,47175	10,4436	-0,341	85,694	0	1012,08	6,2	8,3	8,2	1	1	1	1	1	1	1	1	1	0	1	-5,144468	273,52513	312,230002	0
15.01.2021	07:44:48	0	0	3,389519	3,46275	11,718	-0,336	85,691	0	1012	6,2	8,3	8,2	1	1	1	1	1	1	1	1	1	0	1	-5,496829	273,464392	311,595839	0
15.01.2021	07:44:49	0	0	2,824599	3,51525	10,8252	-0,334	85,687	0	1012,14	6,2	8,3	8,2	1	1	1	1	1	1	1	1	1	0	1	-6,765328	273,590419	310,912275	0
15.01.2021	07:44:50	0	0	2,824599	3,5475	12,4848	-0,334	85,7	0	1012,14	6,1	8,3	8,2	1	1	1	1	1	1	1	1	1	0	1	-8,245243	273,480281	308,921126	0
15.01.2021	07:44:51	0	0	4,519358	3,6015	12,4596	-0,332	85,689	0	1012,06	6,2	8,3	8,2	1	1	1	1	1	1	1	1	1	0	1	-8,245243	273,629699	309,614839	0
15.01.2021	07:44:52	0	0	3,163551	3,52875	8,6148	-0,337	85,695	0	1011,96	6,2	8,5	8,2	1	1	1	1	1	1	1	1	1	0	1	-3,735025	273,535271	313,686518	0
15.01.2021	07:44:53	0	0	3,728471	3,3855	13,5396	-0,339	85,686	0	1011,96	6,2	8,3	8,2	1	1	1	1	1	1	1	1	1	0	1	-6,20155	273,635525	311,685604	0
15.01.2021	07:44:54	0	0	5,197262	3,43275	12,0924	-0,34	85,696	0	1012,02	6,2	8,3	8,2	1	1	1	1	1	1	1	1	1	0	1	-7,399577	273,639896	310,507888	0
15.01.2021	07:44:55	0	0	2,937583	3,4335	11,7432	-0,338	85,697	0	1012,06	6,2	8,3	8,2	1	1	1	1	1	1	1	1	1	0	1	-5,778717	273,625331	312,061067	0
15.01.2021	07:44:56	0	0	2,598631	3,40275	9,0072	-0,343	85,689	0	1012	6,2	8,3	8,2	1	1	1	1	1	1	1	1	1	0	1	-7,399577	273,483172	309,7802	0
15.01.2021	07:44:57	0	0	3,954438	3,38775	7,8768	-0,337	85,687	0	1011,92	6,2	8,4	8,2	1	1	1	1	1	1	1	1	1	0	1	-6,412967	273,593326	311,278137	0
15.01.2021	07:44:58	0	0	4,745326	3,33	6,0588	-0,335	85,681	0	1012,1	6,2	8,3	8,2	1	1	1	1	1	1	1	1	1	0	1	-7,258633	273,529475	310,136008	0
15.01.2021	07:44:59	0	0	2,937583	3,23325	2,6676	-0,336	85,691	0	1012,04	6,2	8,3	8,2	1	1	1	1	1	1	1	1	1	0	1	-5,919662	273,484617	311,26682	0
15.01.2021	07:45:00	0	0	3,389519	3,00225	1,1808	-0,335	85,688	0	1012,12	6,2	8,3	8,2	1	1	1	1	1	1	1	1	1	0	1	-5,496829	273,487508	311,703065	0
15.01.2021	07:45:01	0	0	3,389519	3,00225	1,1808	-0,335	85,688	0	1012,12	6,2	8,3	8,2	1	1	1	1	1	1	1	1	1	0	1	-5,496829	273,487508	311,703065	0
15.01.2021	07:45:02	0	0	4,745298	2,97225	5,67	-0,338	85,688	0	1012,04	6,2	8,3	8,3	1	1	1	1	1	1	1	1	1	0	1	-5,919662	273,503416	311,354041	0
15.01.2021	07:45:03	0	0	4,29339	3,14475	8,9964	-0,337	85,682	0	1012	6,2	8,3	8,2	1	1	1	1	1	1	1	1	1	0	1	-8,386187	273,594779	309,311669	0
15.01.2021	07:45:04	0	0	2,485647	3,129	10,0548	-0,338	85,698	0	1012,1	6,1	8,3	8,2	1	1	1	1	1	1	1	1	1	0	1	-8,174771	273,473057	308,958088	0
15.01.2021	07:45:05	0	0	4,406374	3,0285	9,7596	-0,336	85,686	0	1012,04	6,1	8,3	8,2	1	1	1	1	1	1	1	1	1	0	1	-8,315715	273,658848	309,679829	0
15.01.2021	07:45:06	0	0	3,050567	2,808	19,548	-0,336	85,711	0	1012,2	6,2	8,5	8,2	1	1	1	1	1	1	1	1	1	0	1	-4,933051	273,533822	312,481765	0
15.01.2021	07:45:07	0	0	3,728471	2,64975	15,4008	-0,335	85,684	0	1012,02	6,2	8,3	8,2	1	1	1	1	1	1	1	1	1	0	1	-2,677942	273,641353	315,236295	0
15.01.2021	07:45:08	0	0	4,406374	2,67525	3,0204	-0,332	85,687	0	1011,96	6,2	8,3	8,2	1	1	1	1	1	1	1	1	1	0	1	-9,161381	273,641353	308,752856	0
15.01.2021	07:45:09	0	0	3,728471	2,67075	8,2692	-0,331	85,709	0	1012,06	6,2	8,3	8,2	1	1	1	1	1	1	1	1	1	0	1	-6,553911	273,52513	310,820559	0
15.01.2021	07:45:10	0	0	3,389519	2,589	357,7068	-0,334	85,699	0	1012,14	6,1	8,3	8,2	1	1	1	1	1	1	1	1	1	0	1	-2,889359	273,692423	315,262274	0
15.01.2021	07:45:11	0	0	4,406374	2,48625	3,0276	-0,333	85,708	0	1012	6,2	8,4	8,2	1	1	1	1	1	1	1	1	1	0	1	-1,902748	273,548318	315,57936	0
15.01.2021	07:45:12	0	0	3,276535	2,52375	2,304	-0,333	85,677	0	1012,08	6,2	8,3	8,2	1	1	1	1	1	1	1	1	1	0	1	-2,818887	273,648641	315,129218	0
15.01.2021	07:45:13	0	0	3,050567	2,586	3,762	-0,34	85,693	0	1011,98	6,2	8,3	8,2	1	1	1	1	1	1	1	1	1	0	1	-7,117689	273,522233	310,243338	0
15.01.2021	07:45:14	0	0	2,824599	2,5155	1,5624	-0,333	85,703	0	1012,06	6,2	8,3	8,2	1	1	1	1	1	1	1	1	1	0	1	-3,100775	273,484617	314,085707	0
15.01.2021	07:45:15	0	0	3,954438	2,45325	8,6184	-0,336	85,695	0	1012,06	6,1	8,3	8,2	1	1	1	1	1	1	1	1	1	0	1	-2,889359	273,655931	315,092628	0
15.01.2021	07:45:16	0	0	4,745298	2,56125	5,2272	-0,339	85,706	0	1012,08	6,2	8,3	8,3	1	1	1	1	1	1	1	1	1	0	1	-6,553911	273,597687	311,15745	0
15.01.2021	07:45:17	0	0	4,519358	2,7195	10,818	-0,333	85,703	0	1012,12	6,2	8,3	8,2	1	1	1	1	1	1	1	1	1	0	1	-8,597604	273,500522	308,662674	0
15.01.2021	07:45:18	0	0	3,050567	2,6895	12,4668	-0,326	85,714	0	1011,9	6,2	8,3	8,2	1	1	1	1	1	1	1	1	1	0	1	-4,792107	273,49763	312,454748	0
15.01.2021	07:45:19	0	0	4,519358	2,61975	8,622	-0,339	85,692	0	1012	6,2	8,3	8,2	1	1	1	1	1	1	1	1	1	0	1	-4,016913	273,56718	313,552766	0
15.01.2021	07:45:20	0	0	4,180406	2,532	14,3028	-0,342	85,719	0	1012,04	6,2	8,5	8,2	1	1	1	1	1	1	1	1	1	0	1	-7,047216	273,636982	310,846708	0
15.01.2021	07:45:21	0	0	4,85831	2,565	14,2992	-0,337	85,703	0	1012,04	6,2	8,3	8,2	1	1	1	1	1	1	1	1	1	0	1	-6,906272	273,561374	310,636451	0
15.01.2021	07:45:22	0	0	3,389519	2,52525	23,5872	-0,345	85,707	0	1011,84	6,2	8,3	8,2	1	1	1	1	1	1	1	1	1	0	1	-5,84919	273,642811	312,07182	0
15.01.2021	07:45:23	0	0	4,406374	2,4045	18,558	-0,335	85,705	0	1012	6,2	8,3	8,2	1	1	1	1	1	1	1	1	1	0	1	-7,963354	273,549768	309,525486	0
15.01.2021	07:45:24	0	0	4,180406	2,31075	17,7084	-0,33	85,719	0	1012,02	6,2	8,3	8,2	1	1	1	1	1	1	1	1	1	0	1	-4,862579	273,653014	313,105852	0
15.01.2021	07:45:25	0	0	4,180406	2,32575	16,1064	-0,336	85,706	0	1012,14	6,2	8,3	8,2	1	1	1	1	1	1	1	1	1	0	1	-6,20155	273,542518	311,253633	0
15.01.2021	07:45:26	0	0	2,824599	2,39325	13,9248	-0,333	85,713	0	1012,2	6,2	8,3	8,2	1	1	1	1	1	1	1	1	1	0	1	-4,651163	273,491845	312,568854	0
15.01.2021	07:45:27	0	0	2,937583	2,42625	7,2216	-0,338	85,699	0	1012,02	6,2	8,3	8,2	1	1	1	1	1	1	1	1	1	0	1	-5,567301	273,487508	311,632593	0
15.01.2021	07:45:28	0	0	3,954438	2,6025	9,7524	-0,332	85,701	0	1012,02	6,2	8,3	8,2	1	1	1	1	1	1	1	1	1	0	1	-7,681466	273,535271	309,740077	0
15.01.2021	07:45:29	0	0	4,29339	2,64975	9,7596	-0,332	85,72	0	1011,9	6,2	8,3	8,2	1	1	1	1	1	1	1	1	1	0	1	-5,567301	273,655931	312,414686	0
15.01.2021	07:45:30	0	0	4,519358	2,55525	24,7212	-0,34	85,709	0	1012	6,2	8,3	8,2	1	1	1	1	1	1	1	1	1	0	1	-1,62086	273,53672	315,80741	0
15.01.2021	07:45:31	0	0	4,632342	2,40225	24,066	-0,336	85,721	0	1012,02	6,2	8,3	8,2	1	1	1	1	1	1	1	1	1	0	1	-5,778717	273,496183	311,461427	0
15.01.2021	07:45:32	0	0	2,937583	2,24625	19,134	-0,334	85,718	0	1012,04	6,2	8,3	8,2	1	1	1	1	1	1	1	1	1	0	1	-9,090909	273,514993	308,236519	0
15.01.2021	07:45:33	0	0	2,259679	2,1105	21,0168	-0,333	85,716	0	1012,08	6,2	8,3	8,2	1	1	1	1	1	1	1	1	1	0	1	-7,329105	273,587513	310,334999	0
15.01.2021	07:45:34	0	0	2,824599	2,196	17,2368	-0,336	85,726	0	1012,16	6,2	8,5	8,2	1	1	1	1	1	1	1	1	1	0	1	-7,892882	273,481726	309,280191	0
15.01.2021	07:45:35	0	0	4,745326	2,40975	355,8204	-0,331	85,717	0	1012,1	6,2	8,3	8,2	1	1	1	1	1	1	1	1	1	0	1	-7,188161	273,599141	310,529954	0
15.01.2021	07:45:36	0	0	2,937583	2,7075	2,646	-0,339	85,722	0	1012	6,2	8,3	8,2	1	1	1	1	1	1	1	1	1	0	1	-6,131078	273,590419	311,546525	0
15.01.2021	07:45:37	0	0	4,971294	2,88375	12,1104	-0,336	85,73	0	1012,06	6,2	8,5	8,2	1	1	1	1	1	1	1	1	1	0	1	-3,100775	273,484617	314,085707	0
15.01.2021	07:45:38	0	0	4,29339	2,862	11,7	-0,341	85,727	0	1011,98	6,2	8,3	8,2	1	1	1	1	1	1	1	1	1	0	1	-3,523608	273,572987	314,073037	0
15.01.2021	07:45:39	0	0	2,937583	2,7135	19,53	-0,332	85,727	0	1011,94	6,2	8,3	8,2	1	1	1	1	1	1	1	1	1	0	1	-4,862579	273,654473	313,11263	0
15.01.2021	07:45:40	0	0	4,067422	2,634	13,5468	-0,332	85,711	0	1011,94	6,2	8,3	8,2	1	1	1	1	1	1	1	1	1	0	1	-4,933051	273,52513	312,441419	0
15.01.2021	07:45:41	0	0	4,971294	2,71275	4,086	-0,328	85,721	0	1012,22	6,2	8,3	8,2	1	1	1	1	1	1	1	1	1	0	1	-5,637773	273,49763	311,609082	0
15.01.2021	07:45:42	0	0	4,519358	2,79	10,782	-0,338	85,717	0	1011,72	6,2	8,4	8,2	1	1	1	1	1	1	1	1	1	0	1	-7,540521	273,619508	310,272208	0
15.01.2021	07:45:43	0	0	3,841454	2,7165	7,1316	-0,329	85,731	0	1012	6,1	8,3	8,2	1	1	1	1	1	1	1	1	1	0	1	-7,610994	273,587513	310,05311	0
15.01.2021	07:45:44	0	0	4,180406	2,8275	6,8148	-0,338	85,714	0	1011,98	6,2	8,3	8,2	1	1	1	1	1	1	1	1	1	0	1	-4,087385	273,650098	313,867494	0
15.01.2021	07:45:45	0	0	3,163551	2,98725	7,5204	-0,334	85,765	0	1012,34	6,2	8,3	8,2	1	1	1	1	1	1	1	1	1	0	1	-6,906272	273,490399	310,307036	0
15.01.2021	07:45:46	0	0	4,067422	3,07725	8,2908	-0,327	85,735	0	1012,14	6,2	8,3	8,2	1	1	1	1	1	1	1	1	1	0	1	-4,792107	273,584606	312,8585	0
15.01.2021	07:45:47	0	0	2,824599	3,11475	10,0548	-0,335	85,722	0	1012,16	6,2	8,3	8,2	1	1	1	1	1	1	1	1	1	0	1	-2,959831	273,635525	314,927324	0
15.01.2021	07:45:48	0	0	3,841454	3,06975	11,718	-0,338	85,727	0	1012	6,2	8,4	8,2	1	1	1	1	1	1	1	1	1	0	1	-6,906272	273,634069	310,974114	0
15.01.2021	07:45:49	0	0	2,824599	2,80575	21,3768	-0,333	85,721	0	1012,04	6,2	8,5	8,2	1	1	1	1	1	1	1	1	1	0	1	-3,875969	273,478836	313,283697	0
15.01.2021	07:45:50	0	0	4,29339	2,658	11,2032	-0,334	85,724	0	1012,12	6,2	8,4	8,2	1	1	1	1	1	1	1	1	1	0	1	-5,21494	273,516441	312,119207	0
15.01.2021	07:45:51	0	0	4,406374	2,45475	22,8312	-0,337	85,725	0	1012,04	6,2	8,5	8,2	1	1	1	1	1	1	1	1	1	0	1	-4,792107	273,594779	312,905749	0
15.01.2021	07:45:52	0	0	4,971294	2,4345	12,0924	-0,334	85,734	0	1012,12	6,2	8,5	8,2	1	1	1	1	1	1	1	1	1	0	1	-1,409443	273,645725	316,525112	0
15.01.2021	07:45:53	0	0	4,519358	2,63775	12,852	-0,336	85,722	0	1012,08	6,2	8,4	8,2	1	1	1	1	1	1	1	1	1	0	1	-5,778717	273,55557	311,73706	0
15.01.2021	07:45:54	0	0	3,615487	2,64975	19,5192	-0,332	85,714	0	1012,08	6,2	8,3	8,2	1	1	1	1	1	1	1	1	1	0	1	-8,668076	273,503416	308,605627	0
15.01.2021	07:45:55	0	0	4,85831	2,733	15,3972	-0,333	85,726	0	1012,12	6,2	8,3	8,2	1	1	1	1	1	1	1	1	1	0	1	-7,399577	273,631156	310,467272	0
15.01.2021	07:45:56	0	0	4,29339	2,78625	6,0588	-0,331	85,723	0	1012,04	6,2	8,4	8,2	1	1	1	1	1	1	1	1	1	0	1	-4,862579	273,594779	312,835277	0
15.01.2021	07:45:57	0	0	3,728471	2,64075	8,64	-0,339	85,723	0	1011,98	6,2	8,3	8,2	1	1	1	1	1	1	1	1	1	0	1	-5,21494	273,470169	311,90452	0
15.01.2021	07:45:58	0	0	4,180406	2,50575	2,6532	-0,335	85,722	0	1012,04	6,2	8,3	8,2	1	1	1	1	1	1	1	1	1	0	1	-6,060606	273,583154	311,583254	0
15.01.2021	07:45:59	0	0	4,632342	2,5485	6,0588	-0,334	85,724	0	1012,16	6,2	8,5	8,2	1	1	1	1	1	1	1	1	1	0	1	-9,372798	273,484617	307,813684	0
15.01.2021	07:46:00	0	0	4,519358	3,21075	4,8456	-0,335	85,736	0	1012,14	6,2	8,4	8,2	1	1	1	1	1	1	1	1	1	0	1	-5,84919	273,486062	311,343998	0
15.01.2021	07:46:01	0	0	4,519358	3,21075	4,8456	-0,335	85,736	0	1012,14	6,2	8,4	8,2	1	1	1	1	1	1	1	1	1	0	1	-5,84919	273,486062	311,343998	0
15.01.2021	07:46:02	0	0	4,632342	3,4425	15,4044	-0,332	85,736	0	1011,96	6,2	8,3	8,2	1	1	1	1	1	1	1	1	1	0	1	-9,372798	273,618052	308,433169	0
15.01.2021	07:46:03	0	0	3,954438	3,36	6,8184	-0,336	85,728	0	1012,02	6,2	8,4	8,2	1	1	1	1	1	1	1	1	1	0	1	-9,161381	273,513546	308,159329	0
15.01.2021	07:46:04	0	0	4,406374	3,30525	27,6624	-0,333	85,737	0	1011,96	6,2	8,3	8,2	1	1	1	1	1	1	1	1	1	0	1	-2,748414	273,500522	314,511863	0
15.01.2021	07:46:05	0	0	4,745326	3,1125	26,8992	-0,33	85,716	0	1012	6,2	8,3	8,2	1	1	1	1	1	1	1	1	1	0	1	-7,470049	273,604958	310,275086	0
15.01.2021	07:46:06	0	0	4,067422	2,859	30,6972	-0,329	85,741	0	1012,06	6,2	8,3	8,2	1	1	1	1	1	1	1	1	1	0	1	-8,386187	273,651556	309,575468	0
15.01.2021	07:46:07	0	0	2,824599	2,80275	19,5444	-0,334	85,741	0	1012,08	6,2	8,3	8,2	1	1	1	1	1	1	1	1	1	0	1	-8,033827	273,501969	309,233163	0
15.01.2021	07:46:08	0	0	3,163551	2,8695	16,4844	-0,329	85,741	0	1012,16	6,2	8,4	8,2	1	1	1	1	1	1	1	1	1	0	1	-6,553911	273,647183	311,387418	0
15.01.2021	07:46:09	0	0	2,711615	2,9145	10,062	-0,335	85,732	0	1012,06	6,2	8,4	8,2	1	1	1	1	1	1	1	1	1	0	1	-13,03735	273,470169	304,08211	0
15.01.2021	07:46:10	0	0	5,197262	3,16125	5,2272	-0,336	85,728	0	1012	6,2	8,3	8,2	1	1	1	1	1	1	1	1	1	0	1	-9,090909	273,612231	308,688015	0
15.01.2021	07:46:11	0	0	4,632342	3,21075	10,0836	-0,326	85,74	0	1011,98	6,2	8,5	8,2	1	1	1	1	1	1	1	1	1	0	1	-6,8358	273,483172	310,343977	0
15.01.2021	07:46:12	0	0	2,937583	3,09975	16,8516	-0,33	85,743	0	1012,1	6,2	8,3	8,2	1	1	1	1	1	1	1	1	1	0	1	-7,610994	273,526578	309,770199	0
15.01.2021	07:46:13	0	0	3,841454	2,9085	20,4012	-0,329	85,737	0	1012,06	6,2	8,4	8,2	1	1	1	1	1	1	1	1	1	0	1	-7,82241	273,53672	309,605859	0
15.01.2021	07:46:14	0	0	2,937583	2,84625	13,1724	-0,333	85,733	0	1012,04	6,2	8,3	8,2	1	1	1	1	1	1	1	1	1	0	1	-10,077519	273,496183	307,162625	0
15.01.2021	07:46:15	0	0	2,485647	2,733	7,8876	-0,33	85,743	0	1012,1	6,2	8,3	8,2	1	1	1	1	1	1	1	1	1	0	1	-10,570825	273,499076	306,682741	0
15.01.2021	07:46:16	0	0	2,711615	2,60025	0,216	-0,334	85,737	0	1011,88	6,2	8,3	8,2	1	1	1	1	1	1	1	1	1	0	1	-6,272023	273,612231	311,506902	0
15.01.2021	07:46:17	0	0	4,519358	2,5755	3,4092	-0,331	85,745	0	1012,08	6,2	8,3	8,2	1	1	1	1	1	1	1	1	1	0	1	-0,493305	273,634069	317,387081	0
15.01.2021	07:46:18	0	0	4,85831	2,49975	12,1104	-0,331	85,742	0	1012,02	6,2	8,3	8,2	1	1	1	1	1	1	1	1	1	0	1	-5,003524	273,581701	312,633589	0
15.01.2021	07:46:19	0	0	4,519358	2,499	3,0312	-0,328	85,728	0	1012,12	6,2	8,4	8,2	1	1	1	1	1	1	1	1	1	0	1	-2,818887	273,650098	315,135993	0
15.01.2021	07:46:20	0	0	5,084278	2,3235	10,5408	-0,327	85,736	0	1012,04	6,2	8,4	8,2	1	1	1	1	1	1	1	1	1	0	1	-4,510218	273,616597	313,288987	0
15.01.2021	07:46:21	0	0	3,276535	2,27625	11,1924	-0,326	85,736	0	1012,06	6,2	8,4	8,2	1	1	1	1	1	1	1	1	1	0	1	-7,610994	273,543968	309,85092	0
15.01.2021	07:46:22	0	0	4,85831	2,2575	13,9284	-0,329	85,728	0	1012,08	6,2	8,4	8,2	1	1	1	1	1	1	1	1	1	0	1	-7,681466	273,666142	310,347982	0
15.01.2021	07:46:23	0	0	3,502503	2,307	17,2224	-0,328	85,728	0	1012,08	6,2	8,5	8,2	1	1	1	1	1	1	1	1	1	0	1	-4,933051	273,516441	312,401095	0
15.01.2021	07:46:24	0	0	2,598631	2,4015	2,3184	-0,326	85,745	0	1012,14	6,2	8,3	8,2	1	1	1	1	1	1	1	1	1	0	1	-6,20155	273,580248	311,428816	0
15.01.2021	07:46:25	0	0	3,050567	2,36775	12,87	-0,328	85,736	0	1011,96	6,2	8,4	8,2	1	1	1	1	1	1	1	1	1	0	1	-6,342495	273,487508	310,857399	0
15.01.2021	07:46:26	0	0	4,067398	2,32725	359,7912	-0,332	85,725	0	1012,14	6,2	8,4	8,3	1	1	1	1	1	1	1	1	1	0	1	-6,976744	273,503416	310,296959	0
15.01.2021	07:46:27	0	0	3,728448	2,472	6,8184	-0,328	85,717	0	1012,04	6,2	8,5	8,3	1	1	1	1	1	1	1	1	1	0	1	-4,439746	273,591872	313,244607	0
15.01.2021	07:46:28	0	0	4,180381	2,61375	12,4812	-0,327	85,733	0	1012,18	6,2	8,5	8,3	1	1	1	1	1	1	1	1	1	0	1	-5,708245	273,647183	312,233084	0
15.01.2021	07:46:29	0	0	3,389519	2,6505	6,8184	-0,331	85,733	0	1012,04	6,2	8,4	8,2	1	1	1	1	1	1	1	1	1	0	1	-4,933051	273,583154	312,710808	0
15.01.2021	07:46:30	0	0	3,615487	2,7345	10,836	-0,333	85,711	0	1012,08	6,2	8,4	8,2	1	1	1	1	1	1	1	1	1	0	1	-10,641297	273,488953	306,565304	0
15.01.2021	07:46:31	0	0	3,050567	2,679	12,0852	-0,323	85,721	0	1011,92	6,2	8,3	8,2	1	1	1	1	1	1	1	1	1	0	1	-1,902748	273,478836	315,256917	0
15.01.2021	07:46:32	0	0	4,406374	2,72175	10,0728	-0,327	85,729	0	1012,4	6,2	8,3	8,2	1	1	1	1	1	1	1	1	1	0	1	-5,426357	273,503416	311,847346	0
15.01.2021	07:46:33	0	0	4,745326	2,79825	5,22	-0,331	85,729	0	1012,04	6,2	8,5	8,2	1	1	1	1	1	1	1	1	1	0	1	-1,550388	273,557021	315,972125	0
15.01.2021	07:46:34	0	0	3,841454	2,8125	13,932	-0,326	85,719	0	1012,14	6,2	8,3	8,2	1	1	1	1	1	1	1	1	1	0	1	-5,708245	273,657389	312,28052	0
15.01.2021	07:46:35	0	0	4,293365	2,77575	12,8556	-0,329	85,722	0	1012,12	6,2	8,3	8,3	1	1	1	1	1	1	1	1	1	0	1	-5,285412	273,546868	312,189964	0
15.01.2021	07:46:36	0	0	4,406374	2,706	11,2032	-0,326	85,733	0	1012,02	6,2	8,5	8,2	1	1	1	1	1	1	1	1	1	0	1	-2,396054	273,490399	314,817255	0
15.01.2021	07:46:37	0	0	4,632342	2,5845	360	-0,327	85,73	0	1012,02	6,2	8,5	8,2	1	1	1	1	1	1	1	1	1	0	1	-6,342495	273,952786	313,021496	0
15.01.2021	07:46:38	0	0	3,728471	2,3745	4,4532	-0,33	85,72	0	1012,06	6,2	8,3	8,2	1	1	1	1	1	1	1	1	1	0	1	-7,610994	273,604958	310,134141	0
15.01.2021	07:46:39	0	0	2,937583	2,20725	360	-0,329	85,746	0	1012	6,2	8,4	8,2	1	1	1	1	1	1	1	1	1	0	1	-6,272023	273,481726	310,90105	0
15.01.2021	07:46:40	0	0	3,276535	2,22525	17,694	-0,331	85,732	0	1011,96	6,2	8,3	8,2	1	1	1	1	1	1	1	1	1	0	1	-4,157858	273,564277	313,398342	0
15.01.2021	07:46:41	0	0	3,163551	2,184	10,4472	-0,325	85,744	0	1012,12	6,2	8,4	8,2	1	1	1	1	1	1	1	1	1	0	1	-4,369274	273,626787	313,477276	0
15.01.2021	07:46:42	0	0	3,389519	2,184	15,0264	-0,332	85,729	0	1012,04	6,2	8,5	8,2	1	1	1	1	1	1	1	1	1	0	1	-3,24172	273,491845	313,978297	0
15.01.2021	07:46:43	0	0	3,276535	2,17575	6,426	-0,324	85,739	0	1011,96	6,2	8,4	8,2	1	1	1	1	1	1	1	1	1	0	1	-4,651163	273,551219	312,844411	0
15.01.2021	07:46:44	0	0	2,937583	2,18625	13,9284	-0,334	85,729	0	1011,98	6,2	8,3	8,2	1	1	1	1	1	1	1	1	1	0	1	-10,147992	273,486062	307,045196	0
15.01.2021	07:46:45	0	0	2,485647	2,163	352,4832	-0,326	85,74	0	1012,06	6,2	8,4	8,2	1	1	1	1	1	1	1	1	1	0	1	-5,637773	273,618052	312,168194	0
15.01.2021	07:46:46	0	0	2,824582	2,02275	1,1772	-0,33	85,739	0	1011,98	6,2	8,4	8,3	1	1	1	1	1	1	1	1	1	0	1	-5,144468	273,642811	312,776541	0
15.01.2021	07:46:47	0	0	4,067422	1,84425	7,884	-0,325	85,741	0	1012,14	6,2	8,4	8,2	1	1	1	1	1	1	1	1	1	0	1	-5,426357	273,533822	311,988459	0
15.01.2021	07:46:48	0	0	2,711599	1,8075	18,8136	-0,331	85,727	0	1011,86	6,2	8,4	8,3	1	1	1	1	1	1	1	1	1	0	1	-3,171247	273,488953	314,035353	0
15.01.2021	07:46:49	0	0	5,536214	1,98375	16,4772	-0,327	85,729	0	1012,02	6,2	8,4	8,2	1	1	1	1	1	1	1	1	1	0	1	-0,352361	273,628243	317,500955	0
15.01.2021	07:46:50	0	0	4,406374	2,10825	10,0872	-0,327	85,747	0	1012,04	6,2	8,4	8,2	1	1	1	1	1	1	1	1	1	0	1	-3,312192	273,486062	313,880996	0
15.01.2021	07:46:51	0	0	3,050567	2,3955	8,2656	-0,33	85,732	0	1011,98	6,2	8,4	8,2	1	1	1	1	1	1	1	1	1	0	1	-0,634249	273,473057	316,49861	0
15.01.2021	07:46:52	0	0	4,519331	2,61675	2,6496	-0,332	85,74	0	1012,04	6,2	8,4	8,3	1	1	1	1	1	1	1	1	1	0	1	-6,694856	273,55557	310,820921	0
15.01.2021	07:46:53	0	0	3,954438	2,7135	20,6424	-0,328	85,732	0	1012,04	6,2	8,4	8,2	1	1	1	1	1	1	1	1	1	0	1	-3,382664	273,661765	314,62644	0
15.01.2021	07:46:54	0	0	3,163551	2,66925	5,2092	-0,328	85,745	0	1012,18	6,2	8,4	8,2	1	1	1	1	1	1	1	1	1	0	1	-7,258633	273,519337	310,088953	0
15.01.2021	07:46:55	0	0	2,937583	2,48325	6,8256	-0,326	85,739	0	1012,18	6,2	8,4	8,2	1	1	1	1	1	1	1	1	1	0	1	-1,338971	273,629699	316,521111	0
15.01.2021	07:46:56	0	0	3,615487	2,30325	4,464	-0,328	85,725	0	1012,22	6,2	8,4	8,2	1	1	1	1	1	1	1	1	1	0	1	-7,82241	273,474502	309,31715	0
15.01.2021	07:46:57	0	0	4,632342	2,33325	23,5836	-0,324	85,742	0	1012,02	6,2	8,3	8,2	1	1	1	1	1	1	1	1	1	0	1	-4,792107	273,602049	312,939517	0
15.01.2021	07:46:58	0	0	3,615487	2,232	12,8592	-0,325	85,726	0	1011,96	6,2	8,3	8,2	1	1	1	1	1	1	1	1	1	0	1	-10,218464	273,642811	307,702546	0
15.01.2021	07:46:59	0	0	3,615465	2,2995	7,5168	-0,321	85,74	0	1012,08	6,2	8,4	8,3	1	1	1	1	1	1	1	1	1	0	1	-4,862579	273,510651	312,444697	0
15.01.2021	07:47:00	0	0	2,711599	2,115	360	-0,327	85,725	0	1011,94	6,2	8,4	8,3	1	1	1	1	1	1	1	1	1	0	1	-1,127555	273,517889	316,213311	0
15.01.2021	07:47:01	0	0	2,711599	2,115	360	-0,327	85,725	0	1011,94	6,2	8,4	8,3	1	1	1	1	1	1	1	1	1	0	1	-1,127555	273,517889	316,213311	0
15.01.2021	07:47:02	0	0	4,632314	2,0655	15,7896	-0,331	85,736	0	1012,06	6,2	8,3	8,3	1	1	1	1	1	1	1	1	1	0	1	-7,470049	273,562825	310,079412	0
15.01.2021	07:47:03	0	0	5,084278	2,03175	17,7048	-0,328	85,74	0	1012	6,2	8,4	8,2	1	1	1	1	1	1	1	1	1	0	1	-5,144468	273,477391	312,008495	0
15.01.2021	07:47:04	0	0	3,163551	2,01225	14,6376	-0,327	85,742	0	1011,96	6,2	8,5	8,2	1	1	1	1	1	1	1	1	1	0	1	-1,268499	273,53672	316,159771	0
15.01.2021	07:47:05	0	0	4,519331	2,00925	5,2128	-0,327	85,741	0	1012	6,2	8,5	8,3	1	1	1	1	1	1	1	1	1	0	1	-6,694856	273,657389	311,293909	0
15.01.2021	07:47:06	0	0	4,971294	2,0655	10,4436	-0,326	85,717	0	1012,18	6,2	8,4	8,2	1	1	1	1	1	1	1	1	1	0	1	-7,047216	273,609322	310,718191	0
15.01.2021	07:47:07	0	0	3,502482	2,16225	13,9212	-0,325	85,718	0	1012	6,2	8,4	8,3	1	1	1	1	1	1	1	1	1	0	1	-6,624383	273,509204	310,676177	0
15.01.2021	07:47:08	0	0	3,050567	2,24625	6,4296	-0,327	85,725	0	1012,08	6,2	8,4	8,2	1	1	1	1	1	1	1	1	1	0	1	-5,990134	273,623875	311,842886	0
15.01.2021	07:47:09	0	0	3,163551	2,313	14,3028	-0,321	85,732	0	1012,1	6,2	8,4	8,2	1	1	1	1	1	1	1	1	1	0	1	-6,412967	273,654473	311,562242	0
15.01.2021	07:47:10	0	0	3,728448	2,334	6,8112	-0,327	85,727	0	1012,12	6,2	8,4	8,3	1	1	1	1	1	1	1	1	1	0	1	-3,946441	273,655931	314,035545	0
15.01.2021	07:47:11	0	0	3,502503	2,36625	13,9176	-0,327	85,737	0	1011,86	6,2	8,3	8,2	1	1	1	1	1	1	1	1	1	0	1	-6,694856	273,616597	311,10435	0
15.01.2021	07:47:12	0	0	4,067422	2,30475	18,0792	-0,323	85,73	0	1011,92	6,2	8,4	8,2	1	1	1	1	1	1	1	1	1	0	1	-5,567301	273,658848	312,428243	0
15.01.2021	07:47:13	0	0	3,954415	2,2275	19,1556	-0,322	85,723	0	1012,1	6,2	8,4	8,3	1	1	1	1	1	1	1	1	1	0	1	-5,567301	273,618052	312,238666	0
15.01.2021	07:47:14	0	0	3,276535	2,1735	22,8384	-0,324	85,734	0	1012,12	6,2	8,5	8,2	1	1	1	1	1	1	1	1	1	0	1	-6,483439	273,493291	310,743286	0
15.01.2021	07:47:15	0	0	4,632314	2,091	27,2844	-0,332	85,735	0	1012,06	6,2	8,3	8,3	1	1	1	1	1	1	1	1	1	0	1	-1,973221	273,628243	315,880095	0
15.01.2021	07:47:16	0	0	4,971294	1,95525	16,8552	-0,329	85,737	0	1011,94	6,2	8,4	8,2	1	1	1	1	1	1	1	1	1	0	1	-7,892882	273,543968	309,569032	0
15.01.2021	07:47:17	0	0	3,841431	1,9155	7,1244	-0,329	85,741	0	1012,08	6,2	8,4	8,3	1	1	1	1	1	1	1	1	1	0	1	-5,496829	273,666142	312,532619	0
15.01.2021	07:47:18	0	0	4,745326	1,9245	14,2992	-0,325	85,752	0	1012,14	6,2	8,4	8,2	1	1	1	1	1	1	1	1	1	0	1	-7,540521	273,517889	309,800344	0
15.01.2021	07:47:19	0	0	3,728448	1,89525	8,9892	-0,325	85,741	0	1012,08	6,2	8,4	8,3	1	1	1	1	1	1	1	1	1	0	1	-8,386187	273,533822	309,028629	0
15.01.2021	07:47:20	0	0	3,163551	1,81725	18,45	-0,326	85,736	0	1012,08	6,2	8,4	8,2	1	1	1	1	1	1	1	1	1	0	1	-4,651163	273,500522	312,609115	0
15.01.2021	07:47:21	0	0	4,632342	1,731	10,8036	-0,324	85,736	0	1012,24	6,2	8,4	8,2	1	1	1	1	1	1	1	1	1	0	1	-7,188161	273,559923	310,347825	0
15.01.2021	07:47:22	0	0	2,598615	1,6515	3,7836	-0,323	85,743	0	1012,16	6,2	8,4	8,3	1	1	1	1	1	1	1	1	1	0	1	-7,82241	273,484617	309,364072	0
15.01.2021	07:47:23	0	0	4,180406	1,6605	6,4368	-0,329	85,735	0	1012,02	6,2	8,4	8,2	1	1	1	1	1	1	1	1	1	0	1	-5,567301	273,578796	312,05632	0
15.01.2021	07:47:24	0	0	2,711615	1,7445	8,2692	-0,322	85,736	0	1012,14	6,2	8,4	8,2	1	1	1	1	1	1	1	1	1	0	1	-6,342495	273,513546	310,978216	0
15.01.2021	07:47:25	0	0	4,067422	1,695	15,408	-0,326	85,725	0	1012,02	6,2	8,4	8,2	1	1	1	1	1	1	1	1	1	0	1	-8,174771	273,655931	309,807216	0
15.01.2021	07:47:26	0	0	2,598631	1,68075	11,718	-0,322	85,739	0	1012,1	6,2	8,3	8,2	1	1	1	1	1	1	1	1	1	0	1	-7,610994	273,612231	310,167931	0
15.01.2021	07:47:27	0	0	2,824582	1,76625	16,4916	-0,324	85,728	0	1012,08	6,2	8,4	8,3	1	1	1	1	1	1	1	1	1	0	1	-7,047216	273,501969	310,219773	0
15.01.2021	07:47:28	0	0	4,406348	1,95075	0,4932	-0,322	85,742	0	1012,08	6,2	8,4	8,3	1	1	1	1	1	1	1	1	1	0	1	-5,21494	273,523681	312,152808	0
15.01.2021	07:47:29	0	0	4,067422	2,34375	8,6112	-0,324	85,726	0	1012,02	6,2	8,4	8,2	1	1	1	1	1	1	1	1	1	0	1	-6,765328	273,625331	311,074457	0
15.01.2021	07:47:30	0	0	2,937583	2,73075	7,5024	-0,321	85,736	0	1011,94	6,2	8,4	8,2	1	1	1	1	1	1	1	1	1	0	1	-6,131078	273,510651	311,176198	0
15.01.2021	07:47:31	0	0	2,824582	2,739	14,2956	-0,32	85,75	0	1012,08	6,2	8,5	8,3	1	1	1	1	1	1	1	1	1	0	1	-7,82241	273,634069	310,057976	0
15.01.2021	07:47:32	0	0	3,050548	2,60625	19,1448	-0,322	85,725	0	1012,04	6,2	8,4	8,3	1	1	1	1	1	1	1	1	1	0	1	-7,470049	273,503416	309,803653	0
15.01.2021	07:47:33	0	0	3,276515	2,55825	26,532	-0,324	85,742	0	1012,16	6,2	8,4	8,3	1	1	1	1	1	1	1	1	1	0	1	-7,470049	273,517889	309,870816	0
15.01.2021	07:47:34	0	0	3,050548	2,5935	15,7932	-0,32	85,737	0	1012,08	6,2	8,4	8,3	1	1	1	1	1	1	1	1	1	0	1	-5,073996	273,623875	312,759024	0
15.01.2021	07:47:35	0	0	4,180406	2,6655	12,8556	-0,326	85,729	0	1012,06	6,2	8,4	8,2	1	1	1	1	1	1	1	1	1	0	1	-4,651163	273,661765	313,357941	0
15.01.2021	07:47:36	0	0	2,372663	2,74575	15,03	-0,322	85,745	0	1011,98	6,2	8,4	8,2	1	1	1	1	1	1	1	1	1	0	1	-6,412967	273,520785	310,941339	0
15.01.2021	07:47:37	0	0	4,406348	2,8755	6,0732	-0,324	85,728	0	1012	6,2	8,4	8,3	1	1	1	1	1	1	1	1	1	0	1	-7,258633	273,651556	310,703022	0
15.01.2021	07:47:38	0	0	4,632342	3,01575	9,3672	-0,323	85,737	0	1012	6,2	8,4	8,2	1	1	1	1	1	1	1	1	1	0	1	-11,41649	273,622419	306,409765	0
15.01.2021	07:47:39	0	0	4,745326	2,92875	4,1004	-0,322	85,734	0	1011,96	6,2	8,4	8,2	1	1	1	1	1	1	1	1	1	0	1	-6,20155	273,546868	311,273826	0
15.01.2021	07:47:40	0	0	5,310214	2,80725	9,3744	-0,321	85,73	0	1012,16	6,2	8,4	8,3	1	1	1	1	1	1	1	1	1	0	1	-5,073996	273,494737	312,159438	0
15.01.2021	07:47:41	0	0	3,954438	2,72325	6,4296	-0,316	85,734	0	1012,1	6,2	8,4	8,2	1	1	1	1	1	1	1	1	1	0	1	-8,668076	273,620963	309,151416	0
15.01.2021	07:47:42	0	0	4,406374	2,58	14,2956	-0,324	85,725	0	1012,1	6,2	8,4	8,2	1	1	1	1	1	1	1	1	1	0	1	-7,82241	273,558472	309,706839	0
15.01.2021	07:47:43	0	0	3,841454	2,5005	16,488	-0,328	85,739	0	1012,12	6,2	8,4	8,2	1	1	1	1	1	1	1	1	1	0	1	-7,329105	273,673438	310,734263	0
15.01.2021	07:47:44	0	0	3,050548	2,50575	8,262	-0,322	85,739	0	1012,14	6,2	8,4	8,3	1	1	1	1	1	1	1	1	1	0	1	-10,782241	273,590419	306,895362	0
15.01.2021	07:47:45	0	0	3,615487	2,52675	23,6016	-0,324	85,721	0	1011,96	6,2	8,4	8,2	1	1	1	1	1	1	1	1	1	0	1	-9,231853	273,501969	308,035136	0
15.01.2021	07:47:46	0	0	3,163551	2,391	12,852	-0,319	85,735	0	1012,08	6,2	8,3	8,2	1	1	1	1	1	1	1	1	1	0	1	-5,003524	273,529475	312,391117	0
15.01.2021	07:47:47	0	0	4,180381	2,23275	17,2512	-0,329	85,736	0	1012,14	6,2	8,4	8,3	1	1	1	1	1	1	1	1	1	0	1	-7,470049	273,520785	309,884256	0
15.01.2021	07:47:48	0	0	2,598615	2,34525	7,1316	-0,328	85,727	0	1012,12	6,2	8,4	8,3	1	1	1	1	1	1	1	1	1	0	1	-3,59408	273,53817	313,840917	0
15.01.2021	07:47:49	0	0	2,824599	2,4	28,7316	-0,323	85,73	0	1012,04	6,2	8,4	8,2	1	1	1	1	1	1	1	1	1	0	1	-5,919662	273,50631	311,367469	0
15.01.2021	07:47:50	0	0	2,937583	2,36925	10,4544	-0,324	85,713	0	1012,18	6,2	8,4	8,2	1	1	1	1	1	1	1	1	1	0	1	-9,725159	273,647183	308,216171	0
15.01.2021	07:47:51	0	0	4,519331	2,47425	18,0864	-0,32	85,728	0	1012	6,2	8,4	8,3	1	1	1	1	1	1	1	1	1	0	1	-5,003524	273,623875	312,829496	0
15.01.2021	07:47:52	0	0	3,276515	2,4705	14,3136	-0,323	85,721	0	1011,9	6,2	8,3	8,3	1	1	1	1	1	1	1	1	1	0	1	-7,892882	273,541069	309,555572	0
15.01.2021	07:47:53	0	0	4,067422	2,3565	16,4916	-0,324	85,746	0	1012,16	6,2	8,4	8,2	1	1	1	1	1	1	1	1	1	0	1	-10,852713	273,670519	307,197085	0
15.01.2021	07:47:54	0	0	4,067422	2,211	12,8592	-0,323	85,743	0	1012,14	6,2	8,4	8,2	1	1	1	1	1	1	1	1	1	0	1	-5,426357	273,539619	312,015369	0
15.01.2021	07:47:55	0	0	3,728448	2,1585	8,622	-0,323	85,737	0	1012,04	6,2	8,4	8,3	1	1	1	1	1	1	1	1	1	0	1	-5,567301	273,49763	311,679554	0
15.01.2021	07:47:56	0	0	3,276515	2,259	6,0624	-0,328	85,722	0	1012	6,2	8,4	8,3	1	1	1	1	1	1	1	1	1	0	1	-9,090909	273,629699	308,769173	0
15.01.2021	07:47:57	0	0	2,711615	2,2395	359,838	-0,321	85,737	0	1012,34	6,2	8,4	8,2	1	1	1	1	1	1	1	1	1	0	1	-0,845666	273,602049	316,885958	0
15.01.2021	07:47:58	0	0	4,406348	2,12175	3,3912	-0,32	85,723	0	1012,08	6,2	8,4	8,3	1	1	1	1	1	1	1	1	1	0	1	-4,369274	273,658848	313,62627	0
15.01.2021	07:47:59	0	0	3,050548	2,11275	11,7288	-0,321	85,74	0	1012,04	6,2	8,4	8,3	1	1	1	1	1	1	1	1	1	0	1	-5,426357	273,516441	311,90779	0
15.01.2021	07:48:00	0	0	4,745298	2,13975	9,7416	-0,324	85,729	0	1012,12	6,2	8,4	8,3	1	1	1	1	1	1	1	1	1	0	1	-6,976744	273,638439	310,923951	0
15.01.2021	07:48:01	0	0	4,745298	2,13975	9,7416	-0,324	85,729	0	1012,12	6,2	8,4	8,3	1	1	1	1	1	1	1	1	1	0	1	-6,976744	273,638439	310,923951	0
15.01.2021	07:48:02	0	0	4,180381	2,19825	17,2476	-0,317	85,721	0	1011,98	6,2	8,4	8,3	1	1	1	1	1	1	1	1	1	0	1	-7,892882	273,580248	309,737485	0
15.01.2021	07:48:03	0	0	3,954438	2,31225	26,9244	-0,317	85,733	0	1012	6,2	8,4	8,2	1	1	1	1	1	1	1	1	1	0	1	-2,677942	273,500522	314,582335	0
15.01.2021	07:48:04	0	0	4,519331	2,325	8,6076	-0,323	85,718	0	1012	6,2	8,4	8,3	1	1	1	1	1	1	1	1	1	0	1	-12,755462	273,620963	305,064031	0
15.01.2021	07:48:05	0	0	2,485647	2,34525	15,408	-0,325	85,718	0	1011,94	6,2	8,4	8,2	1	1	1	1	1	1	1	1	1	0	1	-2,184637	273,543968	315,277277	0
15.01.2021	07:48:06	0	0	5,084247	2,5785	5,2128	-0,318	85,734	0	1012,04	6,2	8,4	8,3	1	1	1	1	1	1	1	1	1	0	1	-4,22833	273,634069	313,652056	0
15.01.2021	07:48:07	0	0	4,293365	2,667	16,092	-0,323	85,72	0	1012,08	6,2	8,4	8,3	1	1	1	1	1	1	1	1	1	0	1	-3,805497	273,548318	313,676611	0
15.01.2021	07:48:08	0	0	3,502503	2,48325	16,0956	-0,323	85,738	0	1012,08	6,2	8,4	8,2	1	1	1	1	1	1	1	1	1	0	1	-8,315715	273,496183	308,924429	0
15.01.2021	07:48:09	0	0	2,824582	2,45325	18,1008	-0,315	85,732	0	1012,06	6,2	8,4	8,3	1	1	1	1	1	1	1	1	1	0	1	-2,325581	273,517889	315,015284	0
15.01.2021	07:48:10	0	0	4,406348	2,421	16,1136	-0,32	85,721	0	1011,98	6,2	8,4	8,3	1	1	1	1	1	1	1	1	1	0	1	-3,946441	273,634069	313,933945	0
15.01.2021	07:48:11	0	0	4,406348	2,46225	27,9684	-0,323	85,721	0	1012,1	6,2	8,4	8,3	1	1	1	1	1	1	1	1	1	0	1	-3,382664	273,616597	314,416542	0
15.01.2021	07:48:12	0	0	3,050567	2,463	12,0888	-0,317	85,734	0	1012	6,2	8,4	8,2	1	1	1	1	1	1	1	1	1	0	1	-7,470049	273,588966	310,200804	0
15.01.2021	07:48:13	0	0	3,389498	2,44125	19,9152	-0,323	85,735	0	1011,9	6,2	8,4	8,3	1	1	1	1	1	1	1	1	1	0	1	-6,976744	273,638439	310,923951	0
15.01.2021	07:48:14	0	0	4,971264	2,40075	19,5228	-0,324	85,739	0	1011,96	6,2	8,4	8,3	1	1	1	1	1	1	1	1	1	0	1	-8,45666	273,580248	309,173707	0
15.01.2021	07:48:15	0	0	4,632342	2,412	7,5204	-0,319	85,735	0	1011,96	6,2	8,4	8,2	1	1	1	1	1	1	1	1	1	0	1	-7,047216	273,541069	310,401238	0
15.01.2021	07:48:16	0	0	3,615487	2,3625	4,8384	-0,322	85,728	0	1011,98	6,2	8,4	8,2	1	1	1	1	1	1	1	1	1	0	1	-4,721635	273,658848	313,273909	0
15.01.2021	07:48:17	0	0	2,485632	2,37975	23,2236	-0,319	85,727	0	1012,08	6,2	8,4	8,3	1	1	1	1	1	1	1	1	1	0	1	-4,862579	273,575891	312,747553	0
15.01.2021	07:48:18	0	0	2,824582	2,3235	3,7908	-0,322	85,724	0	1011,92	6,2	8,4	8,3	1	1	1	1	1	1	1	1	1	0	1	-8,033827	273,493291	309,192898	0
15.01.2021	07:48:19	0	0	2,711599	2,322	6,4296	-0,318	85,724	0	1012,04	6,2	8,4	8,3	1	1	1	1	1	1	1	1	1	0	1	-5,496829	273,53672	311,931441	0
15.01.2021	07:48:20	0	0	3,841454	2,4135	9,882	-0,315	85,726	0	1011,98	6,2	8,4	8,2	1	1	1	1	1	1	1	1	1	0	1	-1,198027	273,523681	316,169721	0
15.01.2021	07:48:21	0	0	2,598631	2,4585	5,6736	-0,325	85,729	0	1011,96	6,2	8,4	8,2	1	1	1	1	1	1	1	1	1	0	1	-6,553911	273,480281	310,612458	0
15.01.2021	07:48:22	0	0	4,29339	2,475	2,6532	-0,321	85,731	0	1012,14	6,2	8,3	8,2	1	1	1	1	1	1	1	1	1	0	1	-2,114165	273,549768	315,374676	0
15.01.2021	07:48:23	0	0	5,197231	2,5065	6,0588	-0,318	85,737	0	1012,16	6,2	8,4	8,3	1	1	1	1	1	1	1	1	1	0	1	-4,439746	273,653014	313,528685	0
15.01.2021	07:48:24	0	0	3,615465	2,45625	10,44	-0,317	85,714	0	1012,08	6,2	8,4	8,3	1	1	1	1	1	1	1	1	1	0	1	-8,80902	273,629699	309,051062	0
15.01.2021	07:48:25	0	0	3,502503	2,319	15,0408	-0,312	85,727	0	1011,98	6,2	8,4	8,2	1	1	1	1	1	1	1	1	1	0	1	-10,570825	273,542518	306,884359	0
15.01.2021	07:48:26	0	0	2,824582	2,21775	10,4364	-0,317	85,724	0	1011,98	6,2	8,4	8,3	1	1	1	1	1	1	1	1	1	0	1	-7,681466	273,650098	310,273414	0
15.01.2021	07:48:27	0	0	4,067398	2,307	4,4712	-0,319	85,708	0	1011,9	6,2	8,4	8,3	1	1	1	1	1	1	1	1	1	0	1	-2,396054	273,629699	315,464029	0
15.01.2021	07:48:28	0	0	3,163532	2,334	0,1368	-0,317	85,723	0	1012,12	6,2	8,4	8,3	1	1	1	1	1	1	1	1	1	0	1	-5,496829	273,660306	312,505495	0
15.01.2021	07:48:29	0	0	2,937565	2,28975	6,0768	-0,316	85,729	0	1012,02	6,2	8,4	8,3	1	1	1	1	1	1	1	1	1	0	1	-11,205074	273,666142	306,824374	0
15.01.2021	07:48:30	0	0	4,858281	2,19	1,1844	-0,317	85,743	0	1012,1	6,2	8,4	8,3	1	1	1	1	1	1	1	1	1	0	1	-8,245243	273,577343	309,371633	0
15.01.2021	07:48:31	0	0	2,711599	2,07075	18,4716	-0,317	85,712	0	1012,06	6,2	8,4	8,3	1	1	1	1	1	1	1	1	1	0	1	-4,22833	273,655931	313,753657	0
15.01.2021	07:48:32	0	0	3,050548	1,99875	357,7428	-0,322	85,716	0	1012,02	6,2	8,4	8,3	1	1	1	1	1	1	1	1	1	0	1	-5,84919	273,519337	311,498396	0
15.01.2021	07:48:33	0	0	4,067422	2,08125	15,4188	-0,323	85,725	0	1012,06	6,2	8,4	8,2	1	1	1	1	1	1	1	1	1	0	1	-7,399577	273,541069	310,048877	0
15.01.2021	07:48:34	0	0	2,824582	2,18925	6,4404	-0,321	85,727	0	1012,06	6,2	8,4	8,3	1	1	1	1	1	1	1	1	1	0	1	-7,188161	273,490399	310,025148	0
15.01.2021	07:48:35	0	0	4,293365	2,23875	16,47	-0,315	85,728	0	1012,12	6,2	8,4	8,3	1	1	1	1	1	1	1	1	1	0	1	-6,060606	273,603503	311,677773	0
15.01.2021	07:48:36	0	0	3,728448	2,11425	12,4704	-0,319	85,736	0	1012,08	6,2	8,4	8,3	1	1	1	1	1	1	1	1	1	0	1	-3,523608	273,658848	314,471936	0
15.01.2021	07:48:37	0	0	3,615487	2,16375	11,7072	-0,316	85,734	0	1012,12	6,2	8,4	8,2	1	1	1	1	1	1	1	1	1	0	1	-5,144468	273,55557	312,371309	0
15.01.2021	07:48:38	0	0	4,180381	2,2005	18,0936	-0,321	85,734	0	1012,08	6,2	8,4	8,3	1	1	1	1	1	1	1	1	1	0	1	-7,470049	273,642811	310,45096	0
15.01.2021	07:48:39	0	0	4,519331	2,23425	20,7144	-0,317	85,722	0	1011,96	6,2	8,4	8,3	1	1	1	1	1	1	1	1	1	0	1	-8,597604	273,613686	309,18808	0
15.01.2021	07:48:40	0	0	2,711599	2,28675	13,9248	-0,315	85,738	0	1012,22	6,2	8,4	8,3	1	1	1	1	1	1	1	1	1	0	1	-5,567301	273,486062	311,625887	0
15.01.2021	07:48:41	0	0	3,050567	2,39625	16,47	-0,313	85,732	0	1012,12	6,2	8,4	8,2	1	1	1	1	1	1	1	1	1	0	1	-6,060606	273,507757	311,233239	0
15.01.2021	07:48:42	0	0	2,711599	2,5455	19,242	-0,313	85,744	0	1012,2	6,2	8,4	8,3	1	1	1	1	1	1	1	1	1	0	1	-8,597604	273,520785	308,756702	0
15.01.2021	07:48:43	0	0	3,050567	2,76825	8,6112	-0,314	85,738	0	1012,18	6,2	8,4	8,2	1	1	1	1	1	1	1	1	1	0	1	-9,513742	273,484617	307,67274	0
15.01.2021	07:48:44	0	0	4,632342	2,94525	11,196	-0,312	85,739	0	1012,02	6,2	8,4	8,2	1	1	1	1	1	1	1	1	1	0	1	-9,302326	273,572987	308,29432	0
15.01.2021	07:48:45	0	0	3,276515	2,99775	15,0264	-0,316	85,725	0	1012,04	6,2	8,4	8,3	1	1	1	1	1	1	1	1	1	0	1	-4,369274	273,512098	312,944719	0
15.01.2021	07:48:46	0	0	3,389498	3,10725	11,7252	-0,314	85,727	0	1012,04	6,2	8,4	8,3	1	1	1	1	1	1	1	1	1	0	1	-5,073996	273,53672	312,354274	0
15.01.2021	07:48:47	0	0	4,406348	3,10275	2,6532	-0,311	85,738	0	1012,1	6,2	8,4	8,3	1	1	1	1	1	1	1	1	1	0	1	-6,412967	273,481726	310,760106	0
15.01.2021	07:48:48	0	0	3,276515	3,1305	7,8876	-0,315	85,743	0	1012,08	6,2	8,4	8,3	1	1	1	1	1	1	1	1	1	0	1	-5,990134	273,571535	311,599769	0
15.01.2021	07:48:49	0	0	2,598615	3,249	4,8564	-0,309	85,728	0	1012,1	6,2	8,4	8,3	1	1	1	1	1	1	1	1	1	0	1	-6,553911	273,504863	310,726505	0
15.01.2021	07:48:50	0	0	4,067398	3,37275	3,4992	-0,317	85,737	0	1012,14	6,2	8,4	8,3	1	1	1	1	1	1	1	1	1	0	1	-4,510218	273,504863	312,770198	0
15.01.2021	07:48:51	0	0	2,598615	3,4005	7,8804	-0,316	85,717	0	1012,14	6,2	8,4	8,3	1	1	1	1	1	1	1	1	1	0	1	-5,567301	273,638439	312,333394	0
15.01.2021	07:48:52	0	0	3,841454	3,42675	6,0624	-0,311	85,731	0	1012,1	6,2	8,4	8,2	1	1	1	1	1	1	1	1	1	0	1	-5,84919	273,660306	312,153134	0
15.01.2021	07:48:53	0	0	4,293365	3,32475	19,1484	-0,314	85,737	0	1012,06	6,2	8,4	8,3	1	1	1	1	1	1	1	1	1	0	1	-7,188161	273,596233	310,516448	0
15.01.2021	07:48:54	0	0	2,824582	3,16425	14,6484	-0,315	85,737	0	1011,9	6,2	8,4	8,3	1	1	1	1	1	1	1	1	1	0	1	-8,104299	273,658848	309,891245	0
15.01.2021	07:48:55	0	0	2,711599	3,0135	18,8316	-0,32	85,716	0	1012,06	6,2	8,4	8,3	1	1	1	1	1	1	1	1	1	0	1	-4,22833	273,551219	313,267244	0
15.01.2021	07:48:56	0	0	3,276515	2,814	10,458	-0,313	85,746	0	1012,04	6,2	8,3	8,3	1	1	1	1	1	1	1	1	1	0	1	-8,315715	273,654473	309,659494	0
15.01.2021	07:48:57	0	0	4,632314	2,85675	19,9008	-0,315	85,714	0	1012,04	6,2	8,4	8,3	1	1	1	1	1	1	1	1	1	0	1	-6,20155	273,615142	311,590894	0
15.01.2021	07:48:58	0	0	4,858281	2,9865	2,6568	-0,313	85,735	0	1012,16	6,2	8,4	8,3	1	1	1	1	1	1	1	1	1	0	1	-4,016913	273,530924	313,384452	0
15.01.2021	07:48:59	0	0	3,050548	3,198	8,262	-0,318	85,731	0	1012,1	6,2	8,4	8,3	1	1	1	1	1	1	1	1	1	0	1	-6,694856	273,660306	311,307468	0
15.01.2021	07:49:00	0	0	2,937565	3,6375	6,4404	-0,315	85,735	0	1012,12	6,2	8,4	8,3	1	1	1	1	1	1	1	1	1	0	1	-4,087385	273,50631	313,199745	0
15.01.2021	07:49:01	0	0	2,937565	3,6375	6,4404	-0,315	85,735	0	1012,12	6,2	8,4	8,3	1	1	1	1	1	1	1	1	1	0	1	-4,087385	273,50631	313,199745	0
15.01.2021	07:49:02	0	0	4,745298	3,63825	6,8184	-0,313	85,728	0	1012,2	6,2	8,4	8,3	1	1	1	1	1	1	1	1	1	0	1	-3,312192	273,606412	314,4397	0
15.01.2021	07:49:03	0	0	2,598631	3,70275	6,0732	-0,312	85,737	0	1012,1	6,2	8,4	8,2	1	1	1	1	1	1	1	1	1	0	1	-9,090909	273,660306	308,911414	0
15.01.2021	07:49:04	0	0	3,954415	3,75075	6,066	-0,322	85,728	0	1012,04	6,2	8,4	8,3	1	1	1	1	1	1	1	1	1	0	1	-9,020437	273,551219	308,475137	0
15.01.2021	07:49:05	0	0	4,293365	3,7035	6,8184	-0,314	85,724	0	1012,02	6,2	8,4	8,3	1	1	1	1	1	1	1	1	1	0	1	-4,087385	273,503416	313,186317	0
15.01.2021	07:49:06	0	0	2,711599	3,576	14,3064	-0,313	85,739	0	1012,18	6,2	8,4	8,3	1	1	1	1	1	1	1	1	1	0	1	-3,312192	273,533822	314,102624	0
15.01.2021	07:49:07	0	0	3,615465	3,35625	13,9212	-0,312	85,747	0	1012,16	6,2	8,4	8,3	1	1	1	1	1	1	1	1	1	0	1	-4,087385	273,580248	313,542981	0
15.01.2021	07:49:08	0	0	3,389498	3,147	14,3064	-0,317	85,73	0	1012,04	6,2	8,4	8,3	1	1	1	1	1	1	1	1	1	0	1	-6,553911	273,504863	310,726505	0
15.01.2021	07:49:09	0	0	3,163532	3,0015	11,7144	-0,314	85,736	0	1012,06	6,2	8,4	8,3	1	1	1	1	1	1	1	1	1	0	1	-8,597604	273,578796	309,026017	0
15.01.2021	07:49:10	0	0	4,519331	2,98575	19,1448	-0,311	85,74	0	1011,94	6,2	8,4	8,3	1	1	1	1	1	1	1	1	1	0	1	-8,668076	273,657389	309,320689	0
15.01.2021	07:49:11	0	0	3,050548	3,0435	27,9684	-0,315	85,732	0	1012,18	6,2	8,4	8,3	1	1	1	1	1	1	1	1	1	0	1	-3,453136	273,526578	313,928057	0
15.01.2021	07:49:12	0	0	3,163532	3,00975	17,7012	-0,317	85,736	0	1012,18	6,2	8,4	8,3	1	1	1	1	1	1	1	1	1	0	1	-4,721635	273,578796	312,901986	0
15.01.2021	07:49:13	0	0	4,632314	2,8485	19,9008	-0,311	85,739	0	1012,16	6,2	8,4	8,3	1	1	1	1	1	1	1	1	1	0	1	-4,510218	273,509204	312,790342	0
15.01.2021	07:49:14	0	0	3,050567	2,64675	20,646	-0,309	85,762	0	1012,16	6,2	8,4	8,2	1	1	1	1	1	1	1	1	1	0	1	-6,412967	273,542518	311,042217	0
15.01.2021	07:49:15	0	0	4,180381	2,691	19,9152	-0,309	85,75	0	1012,1	6,2	8,4	8,3	1	1	1	1	1	1	1	1	1	0	1	-5,708245	273,599141	312,00987	0
15.01.2021	07:49:16	0	0	2,598615	2,77725	16,4844	-0,308	85,741	0	1012,08	6,2	8,4	8,3	1	1	1	1	1	1	1	1	1	0	1	-6,8358	273,493291	310,390925	0
15.01.2021	07:49:17	0	0	3,389498	2,87775	15,0264	-0,313	85,751	0	1012,06	6,2	8,4	8,3	1	1	1	1	1	1	1	1	1	0	1	-5,708245	273,519337	311,63934	0
15.01.2021	07:49:18	0	0	5,084247	2,86875	8,6112	-0,317	85,743	0	1012	6,2	8,4	8,3	1	1	1	1	1	1	1	1	1	0	1	-8,668076	273,639896	309,239389	0
15.01.2021	07:49:19	0	0	3,615465	2,91525	10,4472	-0,318	85,732	0	1012,08	6,2	8,4	8,3	1	1	1	1	1	1	1	1	1	0	1	-6,20155	273,52513	311,17292	0
15.01.2021	07:49:20	0	0	2,711599	2,8545	6,0768	-0,313	85,741	0	1012,02	6,2	8,4	8,3	1	1	1	1	1	1	1	1	1	0	1	-4,651163	273,513546	312,669548	0
15.01.2021	07:49:21	0	0	4,519331	2,69025	359,514	-0,314	85,74	0	1012,04	6,2	8,4	8,3	1	1	1	1	1	1	1	1	1	0	1	-4,651163	273,596233	313,053446	0
15.01.2021	07:49:22	0	0	3,502482	2,565	4,842	-0,313	85,748	0	1012,14	6,2	8,4	8,3	1	1	1	1	1	1	1	1	1	0	1	-1,973221	273,658848	316,022323	0
15.01.2021	07:49:23	0	0	5,084247	2,3595	360	-0,314	85,748	0	1011,98	6,2	8,4	8,3	1	1	1	1	1	1	1	1	1	0	1	-1,902748	273,641353	316,011489	0
15.01.2021	07:49:24	0	0	4,180381	2,127	357,3216	-0,313	85,743	0	1011,98	6,2	8,4	8,3	1	1	1	1	1	1	1	1	1	0	1	-8,597604	273,514993	308,729824	0
15.01.2021	07:49:25	0	0	2,485632	2,0475	1,5516	-0,317	85,745	0	1012,06	6,2	8,4	8,3	1	1	1	1	1	1	1	1	1	0	1	-5,990134	273,509204	311,310427	0
15.01.2021	07:49:26	0	0	3,728448	2,0835	1,152	-0,321	85,742	0	1012	6,2	8,4	8,3	1	1	1	1	1	1	1	1	1	0	1	-8,033827	273,663224	309,982058	0
15.01.2021	07:49:27	0	0	3,615465	2,07	1,908	-0,315	85,746	0	1011,98	6,2	8,4	8,3	1	1	1	1	1	1	1	1	1	0	1	-7,047216	273,510651	310,26006	0
15.01.2021	07:49:28	0	0	2,598615	2,166	0,8748	-0,314	85,749	0	1012,02	6,2	8,4	8,3	1	1	1	1	1	1	1	1	1	0	1	-1,338971	273,473057	315,793888	0
15.01.2021	07:49:29	0	0	4,180381	2,1705	2,3148	-0,309	85,748	0	1012,22	6,2	8,4	8,3	1	1	1	1	1	1	1	1	1	0	1	-6,906272	273,528027	310,481644	0
15.01.2021	07:49:30	0	0	4,745298	2,30925	358,758	-0,318	85,743	0	1012,1	6,2	8,4	8,3	1	1	1	1	1	1	1	1	1	0	1	-7,82241	273,514993	309,505018	0
15.01.2021	07:49:31	0	0	2,937565	2,48325	3,8844	-0,313	85,737	0	1012,06	6,2	8,4	8,3	1	1	1	1	1	1	1	1	1	0	1	-5,144468	273,500522	312,11581	0
15.01.2021	07:49:32	0	0	3,954415	2,511	4,0896	-0,311	85,744	0	1012,12	6,2	8,4	8,3	1	1	1	1	1	1	1	1	1	0	1	-6,131078	273,593326	311,560026	0
15.01.2021	07:49:33	0	0	2,485632	2,26875	1,5516	-0,318	85,736	0	1011,96	6,2	8,4	8,3	1	1	1	1	1	1	1	1	1	0	1	-4,298802	273,503416	312,974901	0
15.01.2021	07:49:34	0	0	3,841431	2,178	4,8528	-0,313	85,743	0	1012,08	6,2	8,4	8,3	1	1	1	1	1	1	1	1	1	0	1	-6,272023	273,635525	311,615132	0
15.01.2021	07:49:35	0	0	3,841431	2,0985	7,8696	-0,31	85,737	0	1012,18	6,2	8,4	8,3	1	1	1	1	1	1	1	1	1	0	1	-5,919662	273,578796	311,70396	0
15.01.2021	07:49:36	0	0	3,841431	2,088	11,2068	-0,313	85,725	0	1012,08	6,2	8,4	8,3	1	1	1	1	1	1	1	1	1	0	1	-4,721635	273,494737	312,511799	0
15.01.2021	07:49:37	0	0	5,084247	2,1105	9,3816	-0,311	85,741	0	1012,1	6,2	8,4	8,3	1	1	1	1	1	1	1	1	1	0	1	-6,765328	273,603503	310,973051	0
15.01.2021	07:49:38	0	0	2,372649	2,217	10,4508	-0,318	85,742	0	1011,86	6,2	8,4	8,3	1	1	1	1	1	1	1	1	1	0	1	-4,862579	273,49763	312,384275	0
15.01.2021	07:49:39	0	0	4,519331	2,37825	8,6148	-0,311	85,738	0	1012,18	6,2	8,4	8,3	1	1	1	1	1	1	1	1	1	0	1	-8,668076	273,667601	309,368155	0
15.01.2021	07:49:40	0	0	4,180381	2,54325	5,2344	-0,309	85,753	0	1012,12	6,2	8,4	8,3	1	1	1	1	1	1	1	1	1	0	1	-3,664553	273,584606	313,986055	0
15.01.2021	07:49:41	0	0	3,728448	2,63025	6,4368	-0,314	85,727	0	1012	6,2	8,4	8,3	1	1	1	1	1	1	1	1	1	0	1	-3,805497	273,503416	313,468206	0
15.01.2021	07:49:42	0	0	3,728448	2,691	0,9684	-0,313	85,748	0	1012,02	6,2	8,4	8,3	1	1	1	1	1	1	1	1	1	0	1	-2,677942	273,532373	314,730148	0
15.01.2021	07:49:43	0	0	4,745298	2,5515	1,5696	-0,312	85,742	0	1012,14	6,2	8,4	8,3	1	1	1	1	1	1	1	1	1	0	1	-11,41649	273,655931	306,565496	0
15.01.2021	07:49:44	0	0	5,197231	2,3745	9,738	-0,314	85,717	0	1012,02	6,2	8,4	8,3	1	1	1	1	1	1	1	1	1	0	1	-5,567301	273,631156	312,299549	0
15.01.2021	07:49:45	0	0	3,050567	2,29275	0,1332	-0,311	85,737	0	1012,02	6,2	8,4	8,2	1	1	1	1	1	1	1	1	1	0	1	-7,258633	273,593326	310,432471	0
15.01.2021	07:49:46	0	0	3,615465	2,30925	357,2568	-0,313	85,744	0	1011,98	6,2	8,4	8,3	1	1	1	1	1	1	1	1	1	0	1	-5,285412	273,486062	311,907776	0
15.01.2021	07:49:47	0	0	4,858281	2,35575	3,3876	-0,309	85,731	0	1012,04	6,2	8,4	8,3	1	1	1	1	1	1	1	1	1	0	1	-5,355884	273,623875	312,477135	0
15.01.2021	07:49:48	0	0	4,067398	2,3325	2,6532	-0,308	85,743	0	1012,02	6,2	8,4	8,3	1	1	1	1	1	1	1	1	1	0	1	-1,057082	273,504863	316,223334	0
15.01.2021	07:49:49	0	0	2,937565	2,3025	4,0752	-0,311	85,742	0	1012,18	6,2	8,4	8,3	1	1	1	1	1	1	1	1	1	0	1	-4,580691	273,535271	312,840852	0
15.01.2021	07:49:50	0	0	3,163532	2,38425	0,4896	-0,31	85,73	0	1012,06	6,2	8,4	8,3	1	1	1	1	1	1	1	1	1	0	1	-3,24172	273,483172	313,938058	0
15.01.2021	07:49:51	0	0	3,502482	2,5215	352,0764	-0,31	85,737	0	1012	6,2	8,4	8,3	1	1	1	1	1	1	1	1	1	0	1	-6,694856	273,619508	311,117874	0
15.01.2021	07:49:52	0	0	4,745298	2,67	0,4932	-0,317	85,739	0	1011,9	6,2	8,4	8,3	1	1	1	1	1	1	1	1	1	0	1	-6,624383	273,639896	311,283082	0
15.01.2021	07:49:53	0	0	3,728448	2,706	351,8028	-0,307	85,742	0	1012,16	6,2	8,4	8,3	1	1	1	1	1	1	1	1	1	0	1	-7,610994	273,587513	310,05311	0
15.01.2021	07:49:54	0	0	4,858281	2,541	359,118	-0,317	85,728	0	1011,84	6,2	8,4	8,3	1	1	1	1	1	1	1	1	1	0	1	-6,272023	273,657389	311,716742	0
15.01.2021	07:49:55	0	0	3,389498	2,3625	351,3384	-0,322	85,732	0	1012,14	6,2	8,4	8,3	1	1	1	1	1	1	1	1	1	0	1	-4,016913	273,572987	313,579732	0
15.01.2021	07:49:56	0	0	4,745326	2,2905	10,8108	-0,311	85,743	0	1012,18	6,2	8,4	8,2	1	1	1	1	1	1	1	1	1	0	1	-4,298802	273,517889	313,042064	0
15.01.2021	07:49:57	0	0	2,937565	2,15325	1,9188	-0,318	85,742	0	1012,16	6,2	8,4	8,3	1	1	1	1	1	1	1	1	1	0	1	-7,610994	273,480281	309,555375	0
15.01.2021	07:49:58	0	0	3,050567	2,0625	1,1664	-0,312	85,74	0	1012,08	6,2	8,4	8,2	1	1	1	1	1	1	1	1	1	0	1	-5,21494	273,577343	312,401936	0
15.01.2021	07:49:59	0	0	2,937565	2,181	7,5132	-0,313	85,741	0	1012,22	6,2	8,4	8,3	1	1	1	1	1	1	1	1	1	0	1	-5,778717	273,657389	312,210048	0
15.01.2021	07:50:00	0	0	2,824582	2,586	10,818	-0,305	85,743	0	1012,16	6,2	8,4	8,3	1	1	1	1	1	1	1	1	1	0	1	-4,721635	273,613686	313,064049	0
15.01.2021	07:50:01	0	0	2,824582	2,586	10,818	-0,305	85,743	0	1012,16	6,2	8,4	8,3	1	1	1	1	1	1	1	1	1	0	1	-4,721635	273,613686	313,064049	0
15.01.2021	07:50:02	0	0	3,615465	2,901	4,8492	-0,311	85,739	0	1012,04	6,2	8,4	8,3	1	1	1	1	1	1	1	1	1	0	1	-3,664553	273,493291	313,562172	0
15.01.2021	07:50:03	0	0	3,615465	3,015	2,6424	-0,311	85,739	0	1011,92	6,2	8,4	8,3	1	1	1	1	1	1	1	1	1	0	1	-1,409443	273,549768	316,079397	0
15.01.2021	07:50:04	0	0	3,389498	2,94975	359,136	-0,312	85,742	0	1012,04	6,2	8,4	8,3	1	1	1	1	1	1	1	1	1	0	1	-5,003524	273,658848	312,99202	0
15.01.2021	07:50:05	0	0	2,937565	2,958	356,94	-0,31	85,749	0	1011,98	6,2	8,4	8,3	1	1	1	1	1	1	1	1	1	0	1	-2,959831	273,591872	314,724522	0
15.01.2021	07:50:06	0	0	4,745298	2,7465	0,8712	-0,307	85,757	0	1012,12	6,2	8,4	8,3	1	1	1	1	1	1	1	1	1	0	1	-4,510218	273,657389	313,478546	0
15.01.2021	07:50:07	0	0	3,615465	2,5935	11,7108	-0,313	85,738	0	1012,02	6,2	8,4	8,3	1	1	1	1	1	1	1	1	1	0	1	-7,82241	273,529475	309,57223	0
15.01.2021	07:50:08	0	0	2,485647	2,55975	8,9856	-0,312	85,749	0	1012,08	6,2	8,4	8,2	1	1	1	1	1	1	1	1	1	0	1	-6,342495	273,561374	311,200229	0
15.01.2021	07:50:09	0	0	3,728471	2,4465	16,488	-0,304	85,753	0	1012,16	6,2	8,4	8,2	1	1	1	1	1	1	1	1	1	0	1	-2,818887	273,530924	314,582478	0
15.01.2021	07:50:10	0	0	4,29339	2,346	12,1824	-0,311	85,739	0	1011,84	6,2	8,4	8,2	1	1	1	1	1	1	1	1	1	0	1	-4,298802	273,613686	313,486882	0
15.01.2021	07:50:11	0	0	4,067398	2,30775	12,1104	-0,308	85,753	0	1012,02	6,2	8,4	8,3	1	1	1	1	1	1	1	1	1	0	1	-3,664553	273,666142	314,364896	0
15.01.2021	07:50:12	0	0	3,728448	2,36775	8,622	-0,305	85,741	0	1011,92	6,2	8,4	8,3	1	1	1	1	1	1	1	1	1	0	1	-7,470049	273,644268	310,457733	0
15.01.2021	07:50:13	0	0	4,180381	2,4195	5,2308	-0,313	85,748	0	1012,06	6,2	8,4	8,3	1	1	1	1	1	1	1	1	1	0	1	-5,003524	273,626787	312,843026	0
15.01.2021	07:50:14	0	0	4,406374	2,39175	12,1104	-0,312	85,747	0	1012,1	6,2	8,4	8,2	1	1	1	1	1	1	1	1	1	0	1	-6,20155	273,658848	311,793994	0
15.01.2021	07:50:15	0	0	2,824582	2,529	11,7036	-0,312	85,741	0	1012,06	6,2	8,4	8,3	1	1	1	1	1	1	1	1	1	0	1	-0	273,639896	317,907466	0
15.01.2021	07:50:16	0	0	3,954415	2,62875	14,6484	-0,307	85,74	0	1012,04	6,2	8,4	8,3	1	1	1	1	1	1	1	1	1	0	1	-8,315715	273,519337	309,03187	0
15.01.2021	07:50:17	0	0	4,519331	2,69325	13,9212	-0,305	85,747	0	1012,12	6,2	8,4	8,3	1	1	1	1	1	1	1	1	1	0	1	-8,597604	273,676358	309,479336	0
15.01.2021	07:50:18	0	0	2,711615	2,7165	12,0708	-0,309	85,747	0	1012,14	6,2	8,4	8,2	1	1	1	1	1	1	1	1	1	0	1	-4,157858	273,625331	313,681927	0
15.01.2021	07:50:19	0	0	4,971294	2,697	13,9248	-0,307	85,73	0	1012,06	6,2	8,4	8,2	1	1	1	1	1	1	1	1	1	0	1	-5,144468	273,520785	312,209838	0
15.01.2021	07:50:20	0	0	4,067422	2,6085	18,8352	-0,31	85,739	0	1012,02	6,2	8,4	8,2	1	1	1	1	1	1	1	1	1	0	1	-5,708245	273,674898	312,361909	0
15.01.2021	07:50:21	0	0	3,050548	2,46075	16,9524	-0,311	85,742	0	1012,12	6,2	8,4	8,3	1	1	1	1	1	1	1	1	1	0	1	-6,694856	273,558472	310,834393	0
15.01.2021	07:50:22	0	0	3,502482	2,24625	15,7752	-0,309	85,74	0	1012,06	6,2	8,4	8,3	1	1	1	1	1	1	1	1	1	0	1	-1,268499	273,526578	316,112694	0
15.01.2021	07:50:23	0	0	3,163532	2,14275	1,548	-0,304	85,747	0	1012,04	6,2	8,4	8,3	1	1	1	1	1	1	1	1	1	0	1	-4,016913	273,56718	313,552766	0
15.01.2021	07:50:24	0	0	4,29339	2,15175	1,1808	-0,306	85,749	0	1012,12	6,2	8,4	8,2	1	1	1	1	1	1	1	1	1	0	1	-5,567301	273,671979	312,489282	0
15.01.2021	07:50:25	0	0	3,276515	2,181	11,7216	-0,312	85,734	0	1011,96	6,2	8,4	8,3	1	1	1	1	1	1	1	1	1	0	1	-5,426357	273,609322	312,33905	0
15.01.2021	07:50:26	0	0	4,180381	2,199	0,5004	-0,307	85,75	0	1012,02	6,2	8,4	8,3	1	1	1	1	1	1	1	1	1	0	1	-4,22833	273,610777	313,543836	0
15.01.2021	07:50:27	0	0	3,728448	2,244	22,8348	-0,31	85,734	0	1012,02	6,2	8,4	8,3	1	1	1	1	1	1	1	1	1	0	1	-2,466526	273,673438	315,596842	0
15.01.2021	07:50:28	0	0	3,728448	2,232	6,066	-0,304	85,76	0	1012,14	6,2	8,4	8,3	1	1	1	1	1	1	1	1	1	0	1	-7,329105	273,600595	310,395764	0
15.01.2021	07:50:29	0	0	2,937565	2,25525	18,0792	-0,305	85,758	0	1012,1	6,2	8,4	8,3	1	1	1	1	1	1	1	1	1	0	1	-3,735025	273,532373	313,673066	0
15.01.2021	07:50:30	0	0	3,050548	2,235	9,7344	-0,307	85,743	0	1012	6,2	8,4	8,3	1	1	1	1	1	1	1	1	1	0	1	-5,919662	273,519337	311,427924	0
15.01.2021	07:50:31	0	0	3,276515	2,27325	13,1652	-0,307	85,743	0	1012,14	6,2	8,4	8,3	1	1	1	1	1	1	1	1	1	0	1	-1,127555	273,600595	316,597314	0
15.01.2021	07:50:32	0	0	4,180406	2,32275	359,5284	-0,308	85,761	0	1011,98	6,2	8,4	8,2	1	1	1	1	1	1	1	1	1	0	1	-4,087385	273,800847	314,568695	0
15.01.2021	07:50:33	0	0	3,728448	2,265	10,8072	-0,308	85,74	0	1012,12	6,2	8,4	8,3	1	1	1	1	1	1	1	1	1	0	1	-7,470049	273,613686	310,315635	0
15.01.2021	07:50:34	0	0	3,841454	2,1195	12,4668	-0,305	85,739	0	1011,94	6,2	8,3	8,2	1	1	1	1	1	1	1	1	1	0	1	-4,016913	273,666142	314,012535	0
15.01.2021	07:50:35	0	0	3,502482	2,1585	13,9068	-0,307	85,781	0	1012,02	6,2	8,4	8,3	1	1	1	1	1	1	1	1	1	0	1	-6,694856	273,591872	310,989498	0
15.01.2021	07:50:36	0	0	3,728448	2,2455	10,8144	-0,313	85,749	0	1012,02	6,2	8,4	8,3	1	1	1	1	1	1	1	1	1	0	1	-5,637773	273,667601	312,398458	0
15.01.2021	07:50:37	0	0	4,971264	2,24925	11,2788	-0,305	85,748	0	1011,98	6,2	8,4	8,3	1	1	1	1	1	1	1	1	1	0	1	-3,100775	273,629699	314,759307	0
15.01.2021	07:50:38	0	0	3,502503	2,217	7,1316	-0,312	85,754	0	1012,18	6,2	8,4	8,2	1	1	1	1	1	1	1	1	1	0	1	-4,016913	273,66906	314,026101	0
15.01.2021	07:50:39	0	0	4,519331	2,2005	18,828	-0,309	85,745	0	1012,06	6,2	8,4	8,3	1	1	1	1	1	1	1	1	1	0	1	-4,087385	273,677818	313,996342	0
15.01.2021	07:50:40	0	0	3,728448	2,28825	4,0824	-0,305	85,762	0	1012,12	6,2	8,3	8,3	1	1	1	1	1	1	1	1	1	0	1	-3,735025	273,647183	314,206305	0
15.01.2021	07:50:41	0	0	4,293365	2,40225	9,7524	-0,305	85,748	0	1012,08	6,2	8,4	8,3	1	1	1	1	1	1	1	1	1	0	1	-5,21494	273,66906	312,828074	0
15.01.2021	07:50:42	0	0	2,937565	2,55675	10,0512	-0,309	85,754	0	1012,04	6,2	8,4	8,3	1	1	1	1	1	1	1	1	1	0	1	-0,140944	273,638439	317,75975	0
15.01.2021	07:50:43	0	0	3,276515	2,586	8,8272	-0,304	85,751	0	1012,14	6,2	8,4	8,3	1	1	1	1	1	1	1	1	1	0	1	-8,245243	273,667601	309,790988	0
15.01.2021	07:50:44	0	0	4,519331	2,769	4,086	-0,302	85,759	0	1012,1	6,2	8,4	8,3	1	1	1	1	1	1	1	1	1	0	1	-1,62086	273,604958	316,124275	0
15.01.2021	07:50:45	0	0	4,293365	2,83275	360	-0,307	85,739	0	1012,08	6,2	8,4	8,3	1	1	1	1	1	1	1	1	1	0	1	-3,805497	273,645725	314,129059	0
15.01.2021	07:50:46	0	0	2,485632	2,6865	2,646	-0,305	85,736	0	1012,04	6,2	8,4	8,3	1	1	1	1	1	1	1	1	1	0	1	-5,285412	273,623875	312,547608	0
15.01.2021	07:50:47	0	0	2,711599	2,66925	3,8772	-0,305	85,752	0	1012,1	6,2	8,4	8,3	1	1	1	1	1	1	1	1	1	0	1	-5,84919	273,501969	311,4178	0
15.01.2021	07:50:48	0	0	3,050548	2,7135	6,066	-0,303	85,744	0	1012,12	6,2	8,4	8,3	1	1	1	1	1	1	1	1	1	0	1	-4,651163	273,529475	312,743478	0
15.01.2021	07:50:49	0	0	2,937565	2,80125	13,1688	-0,307	85,751	0	1012,1	6,2	8,4	8,3	1	1	1	1	1	1	1	1	1	0	1	-3,030303	273,610777	314,741862	0
15.01.2021	07:50:50	0	0	4,067422	2,70225	16,5708	-0,309	85,725	0	1012,1	6,2	8,4	8,2	1	1	1	1	1	1	1	1	1	0	1	-6,553911	273,499076	310,699655	0
15.01.2021	07:50:51	0	0	3,389498	2,487	0,4824	-0,311	85,736	0	1012,04	6,2	8,4	8,3	1	1	1	1	1	1	1	1	1	0	1	-2,466526	273,55557	315,049251	0
15.01.2021	07:50:52	0	0	4,745298	2,34525	7,128	-0,311	85,743	0	1012,16	6,2	8,4	8,3	1	1	1	1	1	1	1	1	1	0	1	-3,312192	273,677818	314,771536	0
15.01.2021	07:50:53	0	0	3,276535	2,34975	7,1352	-0,306	85,748	0	1011,96	6,2	8,4	8,2	1	1	1	1	1	1	1	1	1	0	1	-3,805497	273,529475	313,589144	0
15.01.2021	07:50:54	0	0	4,406348	2,3265	359,892	-0,305	85,753	0	1012,1	6,2	8,4	8,3	1	1	1	1	1	1	1	1	1	0	1	-3,312192	273,685119	314,805481	0
15.01.2021	07:50:55	0	0	2,711615	2,24625	1,9224	-0,308	85,751	0	1012,04	6,2	8,4	8,2	1	1	1	1	1	1	1	1	1	0	1	-5,285412	273,546868	312,189964	0
15.01.2021	07:50:56	0	0	3,728448	2,24925	4,4748	-0,303	85,749	0	1012,02	6,2	8,4	8,3	1	1	1	1	1	1	1	1	1	0	1	-0,352361	273,516441	316,981786	0
15.01.2021	07:50:57	0	0	4,519358	2,259	7,4988	-0,307	85,745	0	1012,02	6,2	8,4	8,2	1	1	1	1	1	1	1	1	1	0	1	-2,818887	273,635525	315,068268	0
15.01.2021	07:50:58	0	0	4,180406	2,26125	9,3708	-0,307	85,74	0	1011,96	6,2	8,4	8,2	1	1	1	1	1	1	1	1	1	0	1	-4,933051	273,641353	312,981186	0
15.01.2021	07:50:59	0	0	4,632314	2,18625	13,6512	-0,304	85,745	0	1012	6,2	8,4	8,3	1	1	1	1	1	1	1	1	1	0	1	-5,003524	273,549768	312,485317	0
15.01.2021	07:51:00	0	0	4,519331	1,94325	7,1244	-0,305	85,732	0	1012,08	6,2	8,4	8,3	1	1	1	1	1	1	1	1	1	0	1	-7,751938	273,619508	310,060791	0
15.01.2021	07:51:01	0	0	4,519331	1,94325	7,1244	-0,305	85,732	0	1012,08	6,2	8,4	8,3	1	1	1	1	1	1	1	1	1	0	1	-7,751938	273,619508	310,060791	0
15.01.2021	07:51:02	0	0	3,615465	1,881	3,78	-0,308	85,71	0	1012,04	6,2	8,4	8,3	1	1	1	1	1	1	1	1	1	0	1	-1,198027	273,53672	316,230243	0
15.01.2021	07:51:03	0	0	4,180381	1,93575	7,1244	-0,3	85,733	0	1012,12	6,2	8,4	8,3	1	1	1	1	1	1	1	1	1	0	1	-2,536998	273,663224	315,478887	0
15.01.2021	07:51:04	0	0	4,180381	1,9455	5,2272	-0,305	85,744	0	1012,06	6,2	8,4	8,3	1	1	1	1	1	1	1	1	1	0	1	-4,439746	273,562825	313,109715	0
15.01.2021	07:51:05	0	0	3,841431	1,8315	0,1296	-0,312	85,731	0	1012,12	6,2	8,4	8,3	1	1	1	1	1	1	1	1	1	0	1	-3,100775	273,66906	314,942239	0
15.01.2021	07:51:06	0	0	3,954415	1,833	356,9868	-0,306	85,73	0	1012,1	6,2	8,4	8,3	1	1	1	1	1	1	1	1	1	0	1	-9,725159	273,526578	307,656035	0
15.01.2021	07:51:07	0	0	2,259679	1,83225	348,7248	-0,308	85,741	0	1012,06	6,3	8,4	8,2	1	1	1	1	1	1	1	1	1	0	1	-5,144468	273,514993	312,18296	0
15.01.2021	07:51:08	0	0	3,050548	1,76475	356,256	-0,304	85,739	0	1012,08	6,2	8,4	8,3	1	1	1	1	1	1	1	1	1	0	1	-2,818887	273,602049	314,912737	0
15.01.2021	07:51:09	0	0	4,29339	1,7475	354,6036	-0,308	85,742	0	1012,02	6,2	8,4	8,2	1	1	1	1	1	1	1	1	1	0	1	-3,453136	273,661765	314,555968	0
15.01.2021	07:51:10	0	0	3,841431	1,71225	352,0908	-0,308	85,741	0	1012,02	6,2	8,4	8,3	1	1	1	1	1	1	1	1	1	0	1	-4,298802	273,629699	313,56128	0
15.01.2021	07:51:11	0	0	4,406374	1,674	359,01	-0,307	85,737	0	1012,04	6,2	8,4	8,2	1	1	1	1	1	1	1	1	1	0	1	-5,990134	273,557021	311,532379	0
15.01.2021	07:51:12	0	0	4,406348	1,67175	355,4316	-0,308	85,735	0	1012	6,2	8,4	8,3	1	1	1	1	1	1	1	1	1	0	1	-4,22833	273,663224	313,787555	0
15.01.2021	07:51:13	0	0	3,050548	1,67925	357,0084	-0,305	85,747	0	1012,12	6,2	8,4	8,3	1	1	1	1	1	1	1	1	1	0	1	-4,22833	273,562825	313,321132	0
15.01.2021	07:51:14	0	0	3,276535	1,72275	1,8972	-0,308	85,739	0	1012	6,2	8,4	8,2	1	1	1	1	1	1	1	1	1	0	1	-5,355884	273,545418	312,11276	0
15.01.2021	07:51:15	0	0	4,406348	1,7115	353,178	-0,307	85,735	0	1011,82	6,2	8,4	8,3	1	1	1	1	1	1	1	1	1	0	1	-5,426357	273,650098	312,528523	0
15.01.2021	07:51:16	0	0	2,711599	1,67325	358,6824	-0,303	85,737	0	1012	6,2	8,4	8,3	1	1	1	1	1	1	1	1	1	0	1	-1,550388	273,568631	316,026032	0
15.01.2021	07:51:17	0	0	3,163551	1,6305	359,8956	-0,303	85,737	0	1011,96	6,2	8,4	8,2	1	1	1	1	1	1	1	1	1	0	1	-2,043693	273,671979	316,01289	0
15.01.2021	07:51:18	0	0	4,067398	1,635	3,0168	-0,302	85,737	0	1012	6,2	8,4	8,3	1	1	1	1	1	1	1	1	1	0	1	-5,496829	273,542518	311,958355	0
15.01.2021	07:51:19	0	0	3,615487	1,64175	6,4332	-0,303	85,734	0	1012,2	6,2	8,4	8,2	1	1	1	1	1	1	1	1	1	0	1	-3,312192	273,613686	314,473493	0
15.01.2021	07:51:20	0	0	3,389498	1,62825	358,3728	-0,308	85,727	0	1011,98	6,2	8,4	8,3	1	1	1	1	1	1	1	1	1	0	1	-4,580691	273,679278	313,509825	0
15.01.2021	07:51:21	0	0	4,632314	1,64175	1,926	-0,301	85,74	0	1012,26	6,2	8,4	8,3	1	1	1	1	1	1	1	1	1	0	1	-2,184637	273,623875	315,648383	0
15.01.2021	07:51:22	0	0	3,050567	1,67175	3,3984	-0,297	85,749	0	1012,16	6,2	8,4	8,2	1	1	1	1	1	1	1	1	1	0	1	-5,073996	273,501969	312,192994	0
15.01.2021	07:51:23	0	0	3,954438	1,73475	0,1224	-0,304	85,741	0	1012,02	6,2	8,4	8,2	1	1	1	1	1	1	1	1	1	0	1	-5,567301	273,618052	312,238666	0
15.01.2021	07:51:24	0	0	2,598631	1,91475	359,9388	-0,307	85,725	0	1011,94	6,2	8,4	8,2	1	1	1	1	1	1	1	1	1	0	1	-3,171247	273,501969	314,095742	0
15.01.2021	07:51:25	0	0	4,406374	2,001	13,1616	-0,303	85,731	0	1012,16	6,2	8,4	8,2	1	1	1	1	1	1	1	1	1	0	1	-3,171247	273,575891	314,438885	0
15.01.2021	07:51:26	0	0	4,85831	2,08125	14,6484	-0,306	85,755	0	1012,36	6,2	8,4	8,2	1	1	1	1	1	1	1	1	1	0	1	-0	273,507757	317,293845	0
15.01.2021	07:51:27	0	0	3,954438	2,12925	10,422	-0,304	85,749	0	1012,1	6,2	8,4	8,2	1	1	1	1	1	1	1	1	1	0	1	-3,664553	273,577343	313,952324	0
15.01.2021	07:51:28	0	0	4,745326	2,22375	16,8624	-0,304	85,727	0	1012,12	6,2	8,4	8,2	1	1	1	1	1	1	1	1	1	0	1	-5,637773	273,671979	312,41881	0
15.01.2021	07:51:29	0	0	3,615487	2,313	11,2176	-0,3	85,739	0	1012,08	6,2	8,4	8,2	1	1	1	1	1	1	1	1	1	0	1	-3,59408	273,631156	314,272769	0
15.01.2021	07:51:30	0	0	3,954438	2,3595	13,9248	-0,303	85,741	0	1012,24	6,2	8,4	8,2	1	1	1	1	1	1	1	1	1	0	1	-0	273,519337	317,347585	0
15.01.2021	07:51:31	0	0	4,745298	2,442	25,7976	-0,304	85,736	0	1012,2	6,2	8,4	8,3	1	1	1	1	1	1	1	1	1	0	1	-3,171247	273,626787	314,675302	0
15.01.2021	07:51:32	0	0	2,372663	2,48625	16,4988	-0,308	85,736	0	1012,02	6,2	8,4	8,2	1	1	1	1	1	1	1	1	1	0	1	-5,144468	273,557021	312,378045	0
15.01.2021	07:51:33	0	0	3,389519	2,40375	15,0444	-0,307	85,741	0	1012	6,2	8,3	8,2	1	1	1	1	1	1	1	1	1	0	1	-1,409443	273,68804	316,721811	0
15.01.2021	07:51:34	0	0	4,971264	2,34525	353,9124	-0,303	85,751	0	1012,02	6,2	8,4	8,3	1	1	1	1	1	1	1	1	1	0	1	-6,342495	273,572987	311,254151	0
15.01.2021	07:51:35	0	0	4,180406	2,36475	11,7216	-0,3	85,752	0	1012,26	6,2	8,4	8,2	1	1	1	1	1	1	1	1	1	0	1	-4,933051	273,512098	312,380942	0
15.01.2021	07:51:36	0	0	4,180406	2,3085	9,738	-0,306	85,746	0	1012,18	6,2	8,4	8,2	1	1	1	1	1	1	1	1	1	0	1	-3,946441	273,587513	313,717663	0
15.01.2021	07:51:37	0	0	4,632314	2,298	5,2164	-0,305	85,721	0	1012,06	6,2	8,4	8,3	1	1	1	1	1	1	1	1	1	0	1	-5,708245	273,658848	312,287299	0
15.01.2021	07:51:38	0	0	3,502482	2,283	2,6388	-0,304	85,743	0	1012,16	6,2	8,4	8,3	1	1	1	1	1	1	1	1	1	0	1	-3,312192	273,631156	314,554658	0
15.01.2021	07:51:39	0	0	3,389519	2,175	4,0824	-0,301	85,741	0	1012,04	6,2	8,4	8,2	1	1	1	1	1	1	1	1	1	0	1	-6,8358	273,535271	310,585743	0
15.01.2021	07:51:40	0	0	4,293365	2,10225	1,9224	-0,301	85,744	0	1012,02	6,2	8,4	8,3	1	1	1	1	1	1	1	1	1	0	1	-1,62086	273,516441	315,713287	0
15.01.2021	07:51:41	0	0	4,180406	2,00625	0,864	-0,302	85,746	0	1012,08	6,2	8,4	8,2	1	1	1	1	1	1	1	1	1	0	1	-7,329105	273,613686	310,456579	0
15.01.2021	07:51:42	0	0	4,067422	1,932	5,22	-0,304	85,732	0	1012,08	6,2	8,3	8,2	1	1	1	1	1	1	1	1	1	0	1	-3,171247	273,673438	314,892121	0
15.01.2021	07:51:43	0	0	3,050567	1,9125	7,506	-0,303	85,742	0	1012,08	6,2	8,4	8,2	1	1	1	1	1	1	1	1	1	0	1	-4,016913	273,602049	313,71471	0
15.01.2021	07:51:44	0	0	2,711615	2,0175	2,6388	-0,296	85,75	0	1012,14	6,2	8,4	8,2	1	1	1	1	1	1	1	1	1	0	1	-8,104299	273,654473	309,87091	0
15.01.2021	07:51:45	0	0	3,841454	2,2005	4,0932	-0,3	85,755	0	1012,12	6,2	8,4	8,2	1	1	1	1	1	1	1	1	1	0	1	-7,610994	273,645725	310,323562	0
15.01.2021	07:51:46	0	0	4,180381	2,34375	12,8484	-0,308	85,734	0	1011,94	6,2	8,4	8,3	1	1	1	1	1	1	1	1	1	0	1	-4,721635	273,638439	313,17906	0
15.01.2021	07:51:47	0	0	4,745298	2,54925	10,4436	-0,303	85,725	0	1012,14	6,2	8,4	8,3	1	1	1	1	1	1	1	1	1	0	1	-4,510218	273,503416	312,763484	0
15.01.2021	07:51:48	0	0	3,163551	2,53275	10,818	-0,307	85,738	0	1012,02	6,2	8,4	8,2	1	1	1	1	1	1	1	1	1	0	1	-7,117689	273,572987	310,478957	0
15.01.2021	07:51:49	0	0	2,824599	2,4405	17,2332	-0,308	85,741	0	1011,96	6,2	8,4	8,2	1	1	1	1	1	1	1	1	1	0	1	-5,21494	273,666142	312,814508	0
15.01.2021	07:51:50	0	0	4,406348	2,26875	15,786	-0,301	85,733	0	1012,02	6,2	8,4	8,3	1	1	1	1	1	1	1	1	1	0	1	-5,285412	273,647183	312,655917	0
15.01.2021	07:51:51	0	0	3,841454	2,166	20,6388	-0,301	85,742	0	1012,1	6,2	8,4	8,2	1	1	1	1	1	1	1	1	1	0	1	-2,466526	273,516441	314,867621	0
15.01.2021	07:51:52	0	0	3,050548	2,2125	14,2956	-0,305	85,737	0	1012,1	6,2	8,4	8,3	1	1	1	1	1	1	1	1	1	0	1	-8,033827	273,522233	309,3272	0
15.01.2021	07:51:53	0	0	3,502503	2,1045	16,4844	-0,3	85,728	0	1012,06	6,2	8,4	8,2	1	1	1	1	1	1	1	1	1	0	1	-4,933051	273,514993	312,394377	0
15.01.2021	07:51:54	0	0	3,954438	2,1255	23,5836	-0,301	85,735	0	1012,08	6,2	8,4	8,2	1	1	1	1	1	1	1	1	1	0	1	-7,470049	273,679278	310,620466	0
15.01.2021	07:51:55	0	0	3,615465	2,13825	16,5024	-0,298	85,744	0	1012,12	6,2	8,4	8,3	1	1	1	1	1	1	1	1	1	0	1	-1,62086	273,549768	315,867981	0
15.01.2021	07:51:56	0	0	2,937583	2,253	12,8448	-0,304	85,741	0	1012,04	6,2	8,4	8,2	1	1	1	1	1	1	1	1	1	0	1	-4,22833	273,507757	313,065515	0
15.01.2021	07:51:57	0	0	4,180381	2,39025	16,0956	-0,3	85,734	0	1012,08	6,2	8,4	8,3	1	1	1	1	1	1	1	1	1	0	1	-7,117689	273,625331	310,722096	0
15.01.2021	07:51:58	0	0	3,615487	2,394	4,8564	-0,295	85,742	0	1012,18	6,2	8,4	8,2	1	1	1	1	1	1	1	1	1	0	1	-5,567301	273,655931	312,414686	0
15.01.2021	07:51:59	0	0	2,146695	2,451	8,6184	-0,298	85,752	0	1012,08	6,2	8,4	8,2	1	1	1	1	1	1	1	1	1	0	1	-4,510218	273,526578	312,870975	0
15.01.2021	07:52:00	0	0	2,711615	2,496	9,7524	-0,3	85,747	0	1011,9	6,2	8,4	8,2	1	1	1	1	1	1	1	1	1	0	1	-10,007047	273,663224	308,008837	0
15.01.2021	07:52:01	0	0	2,711615	2,496	9,7524	-0,3	85,747	0	1011,9	6,2	8,4	8,2	1	1	1	1	1	1	1	1	1	0	1	-10,007047	273,663224	308,008837	0
15.01.2021	07:52:02	0	0	3,050567	2,58375	6,0624	-0,305	85,722	0	1012	6,2	8,4	8,2	1	1	1	1	1	1	1	1	1	0	1	-6,131078	273,546868	311,344298	0
15.01.2021	07:52:03	0	0	2,485647	2,7255	6,822	-0,3	85,757	0	1012,08	6,2	8,4	8,2	1	1	1	1	1	1	1	1	1	0	1	-4,22833	273,541069	313,220125	0
15.01.2021	07:52:04	0	0	3,502503	2,79075	5,2128	-0,293	85,746	0	1012,22	6,2	8,4	8,2	1	1	1	1	1	1	1	1	1	0	1	-8,245243	273,514993	309,082185	0
15.01.2021	07:52:05	0	0	4,632342	2,9145	9,756	-0,297	85,753	0	1012,14	6,2	8,4	8,2	1	1	1	1	1	1	1	1	1	0	1	-4,157858	273,52513	313,216613	0
15.01.2021	07:52:06	0	0	4,180381	2,80875	1,9188	-0,299	85,764	0	1012,16	6,2	8,4	8,3	1	1	1	1	1	1	1	1	1	0	1	-5,144468	273,509204	312,156093	0
15.01.2021	07:52:07	0	0	5,084278	2,6355	10,4472	-0,299	85,749	0	1012,02	6,2	8,4	8,2	1	1	1	1	1	1	1	1	1	0	1	-6,412967	273,650098	311,541912	0
15.01.2021	07:52:08	0	0	4,067422	2,5515	4,0824	-0,303	85,741	0	1012,14	6,2	8,4	8,2	1	1	1	1	1	1	1	1	1	0	1	-10,711769	273,664683	307,310897	0
15.01.2021	07:52:09	0	0	5,42323	2,4	24,7392	-0,3	85,757	0	1012,08	6,2	8,3	8,2	1	1	1	1	1	1	1	1	1	0	1	-5,355884	273,512098	311,958109	0
15.01.2021	07:52:10	0	0	4,745326	2,29575	22,4712	-0,3	85,748	0	1012,08	6,3	8,4	8,2	1	1	1	1	1	1	1	1	1	0	1	-8,174771	273,580248	309,455596	0
15.01.2021	07:52:11	0	0	3,954438	2,18775	6,426	-0,299	85,752	0	1012,08	6,2	8,4	8,2	1	1	1	1	1	1	1	1	1	0	1	-12,755462	273,533822	304,659354	0
15.01.2021	07:52:12	0	0	4,745326	2,1645	10,9116	-0,295	85,741	0	1012,06	6,2	8,4	8,2	1	1	1	1	1	1	1	1	1	0	1	-4,510218	273,638439	313,390476	0
15.01.2021	07:52:13	0	0	3,276535	2,1945	6,426	-0,306	85,747	0	1012,08	6,2	8,4	8,2	1	1	1	1	1	1	1	1	1	0	1	-2,60747	273,503416	314,666233	0
15.01.2021	07:52:14	0	0	3,954438	2,21325	12,852	-0,296	85,765	0	1012,08	6,2	8,4	8,2	1	1	1	1	1	1	1	1	1	0	1	-2,818887	273,590419	314,858716	0
15.01.2021	07:52:15	0	0	4,406374	2,1705	15,0264	-0,299	85,756	0	1011,94	6,3	8,4	8,2	1	1	1	1	1	1	1	1	1	0	1	-5,84919	273,663224	312,166695	0
15.01.2021	07:52:16	0	0	2,937583	2,1345	5,2128	-0,306	85,737	0	1012,1	6,2	8,4	8,2	1	1	1	1	1	1	1	1	1	0	1	-7,258633	273,568631	310,317787	0
15.01.2021	07:52:17	0	0	4,406374	2,1165	13,1796	-0,297	85,749	0	1012,08	6,2	8,4	8,2	1	1	1	1	1	1	1	1	1	0	1	-3,59408	273,512098	313,719913	0
15.01.2021	07:52:18	0	0	4,067422	2,00025	358,3764	-0,298	85,747	0	1011,98	6,2	8,4	8,2	1	1	1	1	1	1	1	1	1	0	1	-6,906272	273,979462	312,582129	0
15.01.2021	07:52:19	0	0	3,276535	1,95075	1,9368	-0,297	85,766	0	1012,1	6,3	8,4	8,2	1	1	1	1	1	1	1	1	1	0	1	-4,510218	273,597687	313,201143	0
15.01.2021	07:52:20	0	0	4,067422	1,87725	355,0896	-0,301	85,753	0	1012,12	6,2	8,4	8,2	1	1	1	1	1	1	1	1	1	0	1	-4,510218	273,507757	312,783627	0
15.01.2021	07:52:21	0	0	3,728471	1,85325	0,1116	-0,304	85,758	0	1012,08	6,2	8,3	8,2	1	1	1	1	1	1	1	1	1	0	1	-3,24172	273,425448	313,670358	0
15.01.2021	07:52:22	0	0	4,180406	1,7955	357,678	-0,297	85,756	0	1012,06	6,2	8,4	8,2	1	1	1	1	1	1	1	1	1	0	1	-4,580691	273,647183	313,360639	0
15.01.2021	07:52:23	0	0	4,971264	1,8105	0,5004	-0,301	85,758	0	1012,04	6,2	8,3	8,3	1	1	1	1	1	1	1	1	1	0	1	-4,298802	273,581701	313,338311	0
15.01.2021	07:52:24	0	0	2,485647	1,84425	7,1388	-0,298	85,769	0	1012,02	6,2	8,4	8,2	1	1	1	1	1	1	1	1	1	0	1	-4,580691	273,634069	313,299695	0
15.01.2021	07:52:25	0	0	2,711615	1,914	11,718	-0,302	85,768	0	1012,04	6,2	8,4	8,2	1	1	1	1	1	1	1	1	1	0	1	-8,597604	273,679278	309,492911	0
15.01.2021	07:52:26	0	0	4,971294	1,87575	8,6076	-0,297	85,764	0	1012,14	6,3	8,4	8,2	1	1	1	1	1	1	1	1	1	0	1	-3,875969	273,571535	313,713934	0
15.01.2021	07:52:27	0	0	3,163551	1,854	4,0824	-0,297	85,766	0	1012,2	6,2	8,4	8,2	1	1	1	1	1	1	1	1	1	0	1	-6,412967	273,512098	310,901026	0
15.01.2021	07:52:28	0	0	3,050567	1,88775	10,44	-0,297	85,769	0	1012,16	6,3	8,4	8,2	1	1	1	1	1	1	1	1	1	0	1	-9,302326	273,636982	308,591599	0
15.01.2021	07:52:29	0	0	4,745326	1,8675	19,5372	-0,294	85,77	0	1012,16	6,2	8,3	8,2	1	1	1	1	1	1	1	1	1	0	1	-7,470049	273,680738	310,627254	0
15.01.2021	07:52:30	0	0	3,389519	1,779	5,22	-0,3	85,773	0	1012,14	6,2	8,4	8,2	1	1	1	1	1	1	1	1	1	0	1	-1,691332	273,552669	315,810976	0
15.01.2021	07:52:31	0	0	4,406374	1,9485	3,0312	-0,303	85,761	0	1012,14	6,2	8,4	8,2	1	1	1	1	1	1	1	1	1	0	1	-3,735025	273,647183	314,206305	0
15.01.2021	07:52:32	0	0	4,632342	2,097	3,0348	-0,297	85,766	0	1012,18	6,2	8,4	8,2	1	1	1	1	1	1	1	1	1	0	1	-8,879493	273,655931	309,102494	0
15.01.2021	07:52:33	0	0	4,519358	2,22075	6,4404	-0,293	85,767	0	1012,04	6,2	8,3	8,2	1	1	1	1	1	1	1	1	1	0	1	-1,691332	273,558472	315,837917	0
15.01.2021	07:52:34	0	0	4,519358	2,415	7,884	-0,297	85,765	0	1012,1	6,2	8,3	8,2	1	1	1	1	1	1	1	1	1	0	1	-7,82241	273,513546	309,4983	0
15.01.2021	07:52:35	0	0	2,937583	2,4075	4,8276	-0,292	85,766	0	1012,1	6,2	8,4	8,2	1	1	1	1	1	1	1	1	1	0	1	-6,131078	273,545418	311,337566	0
15.01.2021	07:52:36	0	0	3,954438	2,3055	8,622	-0,292	85,767	0	1012,16	6,2	8,4	8,2	1	1	1	1	1	1	1	1	1	0	1	-5,21494	273,603503	312,523439	0
15.01.2021	07:52:37	0	0	3,163551	2,24175	6,0624	-0,296	85,765	0	1012	6,2	8,5	8,2	1	1	1	1	1	1	1	1	1	0	1	-7,117689	273,514993	310,20974	0
15.01.2021	07:52:38	0	0	3,615487	2,199	4,4712	-0,295	85,766	0	1012,02	6,2	8,4	8,2	1	1	1	1	1	1	1	1	1	0	1	-3,453136	273,615142	314,339309	0
15.01.2021	07:52:39	0	0	3,389498	2,08575	9,3492	-0,298	85,752	0	1012,1	6,2	8,4	8,3	1	1	1	1	1	1	1	1	1	0	1	-7,399577	273,528027	309,988339	0
15.01.2021	07:52:40	0	0	3,163551	1,965	360	-0,303	85,76	0	1011,94	6,2	8,3	8,2	1	1	1	1	1	1	1	1	1	0	1	-5,496829	273,674898	312,573325	0
15.01.2021	07:52:41	0	0	4,85831	1,911	12,4596	-0,299	85,749	0	1011,98	6,2	8,4	8,2	1	1	1	1	1	1	1	1	1	0	1	-6,20155	273,610777	311,570615	0
15.01.2021	07:52:42	0	0	4,85831	1,9455	3,7836	-0,292	85,754	0	1012,12	6,3	8,4	8,2	1	1	1	1	1	1	1	1	1	0	1	-3,382664	273,677818	314,701064	0
15.01.2021	07:52:43	0	0	3,615487	1,92825	9,3564	-0,3	85,738	0	1012,1	6,3	8,4	8,2	1	1	1	1	1	1	1	1	1	0	1	-3,59408	273,636982	314,299844	0
15.01.2021	07:52:44	0	0	5,084278	1,94775	8,6292	-0,296	85,778	0	1012,24	6,2	8,4	8,2	1	1	1	1	1	1	1	1	1	0	1	-7,399577	273,628243	310,453739	0
15.01.2021	07:52:45	0	0	4,745326	1,899	4,4496	-0,296	85,759	0	1012,18	6,2	8,3	8,2	1	1	1	1	1	1	1	1	1	0	1	-4,439746	273,674898	313,630408	0
15.01.2021	07:52:46	0	0	4,85831	1,89975	6,4404	-0,297	85,758	0	1012,12	6,3	8,4	8,2	1	1	1	1	1	1	1	1	1	0	1	-3,59408	273,680738	314,503223	0
15.01.2021	07:52:47	0	0	2,937583	1,803	13,1688	-0,294	85,765	0	1012,08	6,2	8,4	8,2	1	1	1	1	1	1	1	1	1	0	1	-2,043693	273,526578	315,3375	0
15.01.2021	07:52:48	0	0	4,406374	1,7895	6,066	-0,296	85,765	0	1012,06	6,2	8,3	8,2	1	1	1	1	1	1	1	1	1	0	1	-5,567301	273,520785	311,787005	0
15.01.2021	07:52:49	0	0	3,502503	1,842	4,0968	-0,295	85,77	0	1012,12	6,2	8,4	8,2	1	1	1	1	1	1	1	1	1	0	1	-6,906272	273,513546	310,414438	0
15.01.2021	07:52:50	0	0	4,180406	2,01825	13,9068	-0,3	85,762	0	1012,02	6,2	8,4	8,2	1	1	1	1	1	1	1	1	1	0	1	-8,738548	273,570083	308,844613	0
15.01.2021	07:52:51	0	0	4,632342	2,1465	10,4364	-0,293	85,759	0	1012,06	6,2	8,4	8,2	1	1	1	1	1	1	1	1	1	0	1	-3,312192	273,49763	313,934663	0
15.01.2021	07:52:52	0	0	2,485647	2,1675	16,0956	-0,295	85,752	0	1012,06	6,2	8,4	8,2	1	1	1	1	1	1	1	1	1	0	1	-5,355884	273,574439	312,247504	0
15.01.2021	07:52:53	0	0	4,067398	2,1195	8,2692	-0,295	85,765	0	1012,1	6,2	8,3	8,3	1	1	1	1	1	1	1	1	1	0	1	-5,990134	273,671979	312,066449	0
15.01.2021	07:52:54	0	0	4,632342	2,0505	0,1332	-0,294	85,755	0	1012,16	6,2	8,4	8,2	1	1	1	1	1	1	1	1	1	0	1	-1,62086	273,549768	315,867981	0
15.01.2021	07:52:55	0	0	4,632342	1,9335	360	-0,299	85,747	0	1011,98	6,2	8,3	8,2	1	1	1	1	1	1	1	1	1	0	1	-2,043693	273,648641	315,904411	0
15.01.2021	07:52:56	0	0	4,180406	1,89975	360	-0,3	85,751	0	1012,04	6,3	8,4	8,2	1	1	1	1	1	1	1	1	1	0	1	-2,818887	273,671979	315,237696	0
15.01.2021	07:52:57	0	0	4,632342	1,974	8,2728	-0,293	85,74	0	1012,08	6,2	8,3	8,2	1	1	1	1	1	1	1	1	1	0	1	-0,845666	273,533822	316,56915	0
15.01.2021	07:52:58	0	0	3,502503	2,04075	359,4276	-0,301	85,745	0	1012,02	6,3	8,4	8,2	1	1	1	1	1	1	1	1	1	0	1	-4,439746	273,523681	312,928002	0
15.01.2021	07:52:59	0	0	3,841454	2,0595	0,8568	-0,303	85,752	0	1011,9	6,3	8,4	8,2	1	1	1	1	1	1	1	1	1	0	1	-0,845666	273,639896	317,0618	0
15.01.2021	07:53:00	0	0	2,937583	1,9605	11,7144	-0,299	85,76	0	1012	6,2	8,4	8,2	1	1	1	1	1	1	1	1	1	0	1	-7,470049	273,587513	310,194054	0
15.01.2021	07:53:01	0	0	2,937583	1,9605	11,7144	-0,299	85,76	0	1012	6,2	8,4	8,2	1	1	1	1	1	1	1	1	1	0	1	-7,470049	273,587513	310,194054	0
15.01.2021	07:53:02	0	0	4,406374	1,88025	2,646	-0,295	85,74	0	1011,96	6,2	8,4	8,2	1	1	1	1	1	1	1	1	1	0	1	-4,157858	273,507757	313,135988	0
15.01.2021	07:53:03	0	0	3,728471	1,76325	14,31	-0,292	85,773	0	1012,12	6,2	8,5	8,2	1	1	1	1	1	1	1	1	1	0	1	-5,073996	273,650098	312,880884	0
15.01.2021	07:53:04	0	0	2,824599	1,6905	7,5204	-0,284	85,756	0	1012,14	6,3	8,4	8,2	1	1	1	1	1	1	1	1	1	0	1	-4,862579	273,491845	312,357437	0
15.01.2021	07:53:05	0	0	3,954415	1,6335	4,842	-0,291	85,743	0	1012	6,2	8,4	8,3	1	1	1	1	1	1	1	1	1	0	1	-5,919662	273,607867	311,838987	0
15.01.2021	07:53:06	0	0	3,728471	1,63725	6,4296	-0,294	85,754	0	1011,96	6,3	8,4	8,2	1	1	1	1	1	1	1	1	1	0	1	-3,805497	273,517889	313,535369	0
15.01.2021	07:53:07	0	0	2,711615	1,626	4,86	-0,298	85,754	0	1012	6,2	8,3	8,2	1	1	1	1	1	1	1	1	1	0	1	-5,426357	273,634069	312,454029	0
15.01.2021	07:53:08	0	0	4,406374	1,578	1,2672	-0,292	85,771	0	1012,02	6,2	8,4	8,2	1	1	1	1	1	1	1	1	1	0	1	-2,396054	273,512098	314,91794	0
15.01.2021	07:53:09	0	0	4,29339	1,5975	356,9436	-0,296	85,758	0	1012,22	6,3	8,5	8,2	1	1	1	1	1	1	1	1	1	0	1	-6,483439	273,535271	310,938103	0
15.01.2021	07:53:10	0	0	2,485647	1,5945	1,9188	-0,296	85,771	0	1012,06	6,2	8,4	8,2	1	1	1	1	1	1	1	1	1	0	1	-3,946441	273,522233	313,414586	0
15.01.2021	07:53:11	0	0	4,971294	1,542	357,246	-0,296	85,754	0	1012,06	6,2	8,3	8,2	1	1	1	1	1	1	1	1	1	0	1	-4,157858	273,653014	313,810574	0
15.01.2021	07:53:12	0	0	3,389519	1,581	351,3528	-0,3	85,749	0	1011,9	6,2	8,4	8,2	1	1	1	1	1	1	1	1	1	0	1	-5,919662	273,635525	311,967493	0
15.01.2021	07:53:13	0	0	4,632342	1,63275	359,91	-0,295	85,757	0	1012,1	6,2	8,4	8,2	1	1	1	1	1	1	1	1	1	0	1	-5,567301	273,667601	312,46893	0
15.01.2021	07:53:14	0	0	3,615487	1,68525	355,3992	-0,295	85,754	0	1012,04	6,2	8,4	8,2	1	1	1	1	1	1	1	1	1	0	1	-2,677942	273,564277	314,878258	0
15.01.2021	07:53:15	0	0	2,711615	1,8285	356,2596	-0,305	85,76	0	1012,04	6,3	8,3	8,2	1	1	1	1	1	1	1	1	1	0	1	-4,298802	273,679278	313,791713	0
15.01.2021	07:53:16	0	0	2,937583	1,983	358,398	-0,292	85,759	0	1012,12	6,2	8,3	8,2	1	1	1	1	1	1	1	1	1	0	1	-4,157858	273,568631	313,418562	0
15.01.2021	07:53:17	0	0	3,389519	2,142	0,4932	-0,292	85,776	0	1012,14	6,2	8,3	8,2	1	1	1	1	1	1	1	1	1	0	1	-6,694856	273,510651	310,612421	0
15.01.2021	07:53:18	0	0	4,406374	2,34525	359,7408	-0,291	85,757	0	1012,02	6,3	8,5	8,2	1	1	1	1	1	1	1	1	1	0	1	-5,496829	273,628243	312,356487	0
15.01.2021	07:53:19	0	0	2,711615	2,4285	4,8276	-0,298	85,76	0	1011,92	6,2	8,3	8,2	1	1	1	1	1	1	1	1	1	0	1	-4,580691	273,661765	313,428413	0
15.01.2021	07:53:20	0	0	4,85831	2,3505	1,5552	-0,292	85,765	0	1012,06	6,2	8,3	8,2	1	1	1	1	1	1	1	1	1	0	1	-8,033827	273,625331	309,805958	0
15.01.2021	07:53:21	0	0	3,389519	2,25	1,1736	-0,291	85,776	0	1012,1	6,2	8,3	8,2	1	1	1	1	1	1	1	1	1	0	1	-4,22833	273,523681	313,139418	0
15.01.2021	07:53:22	0	0	2,485647	2,2425	347,3424	-0,294	85,756	0	1012,16	6,2	8,4	8,2	1	1	1	1	1	1	1	1	1	0	1	-4,439746	273,533822	312,97507	0
15.01.2021	07:53:23	0	0	2,824599	2,1795	11,7108	-0,291	85,763	0	1012,02	6,2	8,3	8,2	1	1	1	1	1	1	1	1	1	0	1	-5,003524	273,610777	312,768642	0
15.01.2021	07:53:24	0	0	3,050567	2,17425	7,1496	-0,298	85,762	0	1012,14	6,2	8,3	8,2	1	1	1	1	1	1	1	1	1	0	1	-6,553911	273,664683	311,468755	0
15.01.2021	07:53:25	0	0	4,180406	2,2275	7,128	-0,29	85,783	0	1012,14	6,2	8,3	8,2	1	1	1	1	1	1	1	1	1	0	1	-4,087385	273,676358	313,989555	0
15.01.2021	07:53:26	0	0	4,519358	2,37375	3,78	-0,292	85,768	0	1012,08	6,2	8,3	8,2	1	1	1	1	1	1	1	1	1	0	1	-5,84919	273,648641	312,098914	0
15.01.2021	07:53:27	0	0	4,85831	2,28675	12,852	-0,291	85,77	0	1012,2	6,2	8,4	8,2	1	1	1	1	1	1	1	1	1	0	1	-7,399577	273,654473	310,575632	0
15.01.2021	07:53:28	0	0	4,29339	2,2065	4,8348	-0,289	85,769	0	1012,12	6,2	8,3	8,2	1	1	1	1	1	1	1	1	1	0	1	-2,889359	273,496183	314,350785	0
15.01.2021	07:53:29	0	0	3,502503	2,34	18,09	-0,292	85,777	0	1012,18	6,2	8,4	8,2	1	1	1	1	1	1	1	1	1	0	1	-7,399577	273,541069	310,048877	0
15.01.2021	07:53:30	0	0	2,711615	2,43	13,9068	-0,295	85,765	0	1012,1	6,2	8,3	8,2	1	1	1	1	1	1	1	1	1	0	1	-3,875969	273,572987	313,720676	0
15.01.2021	07:53:31	0	0	4,632342	2,574	13,1724	-0,289	85,769	0	1012,12	6,3	8,5	8,2	1	1	1	1	1	1	1	1	1	0	1	-4,792107	273,677818	313,29162	0
15.01.2021	07:53:32	0	0	2,824599	2,45475	17,2404	-0,292	85,763	0	1012,1	6,2	8,3	8,2	1	1	1	1	1	1	1	1	1	0	1	-5,919662	273,594779	311,778194	0
15.01.2021	07:53:33	0	0	2,259679	2,382	18,4608	-0,291	85,773	0	1012,2	6,3	8,4	8,2	1	1	1	1	1	1	1	1	1	0	1	-8,45666	273,503416	308,817043	0
15.01.2021	07:53:34	0	0	4,067422	2,33175	10,4508	-0,29	85,776	0	1012,12	6,2	8,3	8,2	1	1	1	1	1	1	1	1	1	0	1	-5,990134	273,653014	311,978298	0
15.01.2021	07:53:35	0	0	3,163551	2,3835	14,3064	-0,294	85,761	0	1012,1	6,2	8,3	8,2	1	1	1	1	1	1	1	1	1	0	1	-3,523608	273,581701	314,113505	0
15.01.2021	07:53:36	0	0	4,519358	2,523	19,53	-0,287	85,783	0	1012,16	6,2	8,3	8,2	1	1	1	1	1	1	1	1	1	0	1	-2,60747	273,647183	315,333859	0
15.01.2021	07:53:37	0	0	3,615487	2,81475	10,4472	-0,286	85,78	0	1012,08	6,2	8,3	8,2	1	1	1	1	1	1	1	1	1	0	1	-8,033827	273,655931	309,94816	0
15.01.2021	07:53:38	0	0	2,485647	3,012	17,2404	-0,297	85,776	0	1012,08	6,2	8,4	8,2	1	1	1	1	1	1	1	1	1	0	1	-3,312192	273,599141	314,405923	0
15.01.2021	07:53:39	0	0	4,971294	2,988	10,4292	-0,291	85,776	0	1012,06	6,2	8,3	8,2	1	1	1	1	1	1	1	1	1	0	1	-5,21494	273,673438	312,848428	0
15.01.2021	07:53:40	0	0	4,632342	3,12975	12,4704	-0,285	85,779	0	1012,02	6,3	8,4	8,2	1	1	1	1	1	1	1	1	1	0	1	-3,946441	273,683659	314,164441	0
15.01.2021	07:53:41	0	0	4,067422	3,03	17,3088	-0,292	85,773	0	1012,12	6,2	8,3	8,2	1	1	1	1	1	1	1	1	1	0	1	-6,976744	273,634069	310,903642	0
15.01.2021	07:53:42	0	0	2,711615	2,83125	7,5204	-0,292	85,76	0	1012	6,2	8,5	8,2	1	1	1	1	1	1	1	1	1	0	1	-7,82241	273,631156	310,044439	0
15.01.2021	07:53:43	0	0	4,85831	2,5485	20,6316	-0,29	85,773	0	1012,1	6,2	8,3	8,2	1	1	1	1	1	1	1	1	1	0	1	-4,298802	273,674898	313,771352	0
15.01.2021	07:53:44	0	0	4,519358	2,38725	29,1096	-0,282	85,768	0	1012,06	6,2	8,3	8,2	1	1	1	1	1	1	1	1	1	0	1	-6,765328	273,604958	310,979807	0
15.01.2021	07:53:45	0	0	3,841454	2,30025	27,6624	-0,285	85,778	0	1012,2	6,2	8,3	8,2	1	1	1	1	1	1	1	1	1	0	1	-4,22833	273,512098	313,085663	0
15.01.2021	07:53:46	0	0	3,389519	2,337	19,1376	-0,287	85,759	0	1012,28	6,2	8,3	8,2	1	1	1	1	1	1	1	1	1	0	1	-6,765328	273,664683	311,257338	0
15.01.2021	07:53:47	0	0	4,067422	2,244	7,8876	-0,284	85,761	0	1012,1	6,2	8,3	8,2	1	1	1	1	1	1	1	1	1	0	1	-11,980268	273,574439	305,623121	0
15.01.2021	07:53:48	0	0	3,954438	2,20125	349,8912	-0,283	85,764	0	1012,08	6,3	8,5	8,2	1	1	1	1	1	1	1	1	1	0	1	-6,976744	273,517889	310,364122	0
15.01.2021	07:53:49	0	0	3,728471	2,28	12,1032	-0,287	85,756	0	1012,16	6,2	8,3	8,2	1	1	1	1	1	1	1	1	1	0	1	-10,993658	273,634069	306,886728	0
15.01.2021	07:53:50	0	0	4,29339	2,1975	30,6936	-0,286	85,763	0	1012,12	6,2	8,3	8,2	1	1	1	1	1	1	1	1	1	0	1	-3,805497	273,609322	313,95991	0
15.01.2021	07:53:51	0	0	2,711615	2,02725	2,6208	-0,29	85,766	0	1012,16	6,2	8,4	8,2	1	1	1	1	1	1	1	1	1	0	1	-5,073996	273,52513	312,300475	0
15.01.2021	07:53:52	0	0	3,389519	2,106	0	-0,295	85,756	0	1012,06	6,2	8,3	8,2	1	1	1	1	1	1	1	1	1	0	1	-8,033827	273,615142	309,758618	0
15.01.2021	07:53:53	0	0	4,180406	2,1855	360	-0,289	85,747	0	1012,08	6,3	8,3	8,2	1	1	1	1	1	1	1	1	1	0	1	-13,6716	273,698268	304,507213	0
15.01.2021	07:53:54	0	0	4,971294	2,2515	359,46	-0,288	85,759	0	1012,12	6,2	8,3	8,2	1	1	1	1	1	1	1	1	1	0	1	-5,355884	273,628243	312,497431	0
15.01.2021	07:53:55	0	0	4,632342	2,32125	358,0488	-0,29	85,766	0	1012,16	6,2	8,3	8,2	1	1	1	1	1	1	1	1	1	0	1	-6,624383	273,493291	310,602342	0
15.01.2021	07:53:56	0	0	4,406374	2,40075	356,9544	-0,288	85,767	0	1012,22	6,2	8,3	8,2	1	1	1	1	1	1	1	1	1	0	1	-5,919662	273,632612	311,953956	0
15.01.2021	07:53:57	0	0	4,067422	2,3625	356,2776	-0,293	85,752	0	1011,76	6,2	8,3	8,2	1	1	1	1	1	1	1	1	1	0	1	-6,060606	273,673438	312,002762	0
15.01.2021	07:53:58	0	0	2,937583	2,27775	346,8708	-0,295	85,769	0	1012,04	6,3	8,4	8,2	1	1	1	1	1	1	1	1	1	0	1	-2,677942	273,548318	314,804166	0
15.01.2021	07:53:59	0	0	4,519358	2,31375	346,3236	-0,289	85,747	0	1012,02	6,2	8,3	8,2	1	1	1	1	1	1	1	1	1	0	1	-6,765328	273,658848	311,230216	0
15.01.2021	07:54:00	0	0	4,519358	2,2635	356,2308	-0,294	85,759	0	1012,08	6,3	8,4	8,2	1	1	1	1	1	1	1	1	1	0	1	-5,355884	273,682198	312,748208	0
15.01.2021	07:54:01	0	0	4,519358	2,2635	356,2308	-0,294	85,759	0	1012,08	6,3	8,4	8,2	1	1	1	1	1	1	1	1	1	0	1	-5,355884	273,682198	312,748208	0
15.01.2021	07:54:02	0	0	4,971294	2,2635	6,804	-0,295	85,757	0	1012,1	6,3	8,3	8,2	1	1	1	1	1	1	1	1	1	0	1	-6,20155	273,561374	311,341173	0
15.01.2021	07:54:03	0	0	2,824599	2,50725	1,89	-0,292	85,766	0	1012,02	6,3	8,5	8,2	1	1	1	1	1	1	1	1	1	0	1	-0,563777	273,503416	316,709925	0
15.01.2021	07:54:04	0	0	3,163551	2,64075	18,8388	-0,291	85,756	0	1012,16	6,2	8,3	8,2	1	1	1	1	1	1	1	1	1	0	1	-3,24172	273,501969	314,02527	0
15.01.2021	07:54:05	0	0	2,937583	2,50875	17,2404	-0,288	85,767	0	1012,12	6,3	8,3	8,2	1	1	1	1	1	1	1	1	1	0	1	-3,805497	273,542518	313,649687	0
15.01.2021	07:54:06	0	0	4,519358	2,5155	13,176	-0,284	85,767	0	1012,2	6,3	8,3	8,2	1	1	1	1	1	1	1	1	1	0	1	-4,651163	273,549768	312,837678	0
15.01.2021	07:54:07	0	0	3,389519	2,682	12,8556	-0,283	85,772	0	1012,22	6,2	8,3	8,2	1	1	1	1	1	1	1	1	1	0	1	-4,792107	273,671979	313,264476	0
15.01.2021	07:54:08	0	0	3,389519	2,7705	16,4844	-0,29	85,764	0	1011,94	6,2	8,5	8,2	1	1	1	1	1	1	1	1	1	0	1	-3,59408	273,520785	313,760225	0
15.01.2021	07:54:09	0	0	4,632342	2,8635	2,6604	-0,29	85,762	0	1012,24	6,2	8,5	8,2	1	1	1	1	1	1	1	1	1	0	1	-4,933051	273,557021	312,589461	0
15.01.2021	07:54:10	0	0	3,276535	3,0585	2,2932	-0,288	85,783	0	1012,12	6,2	8,3	8,2	1	1	1	1	1	1	1	1	1	0	1	-7,963354	273,50631	309,323776	0
15.01.2021	07:54:11	0	0	4,85831	3,1185	352,8108	-0,288	85,77	0	1012,24	6,2	8,3	8,2	1	1	1	1	1	1	1	1	1	0	1	-5,990134	273,625331	311,849651	0
15.01.2021	07:54:12	0	0	4,745326	2,91375	2,3004	-0,284	85,772	0	1012,04	6,3	8,5	8,2	1	1	1	1	1	1	1	1	1	0	1	-3,453136	273,673438	314,610232	0
15.01.2021	07:54:13	0	0	3,163551	2,74875	7,884	-0,286	85,768	0	1012,18	6,3	8,3	8,2	1	1	1	1	1	1	1	1	1	0	1	-5,778717	273,543968	311,683197	0
15.01.2021	07:54:14	0	0	3,163551	2,6325	11,178	-0,286	85,778	0	1012,18	6,2	8,3	8,2	1	1	1	1	1	1	1	1	1	0	1	-2,184637	273,620963	315,634855	0
15.01.2021	07:54:15	0	0	3,050567	2,613	2,6496	-0,288	85,773	0	1012,14	6,3	8,5	8,2	1	1	1	1	1	1	1	1	1	0	1	-5,003524	273,674898	313,06663	0
15.01.2021	07:54:16	0	0	2,711615	2,505	3,3912	-0,284	85,769	0	1012,1	6,2	8,3	8,2	1	1	1	1	1	1	1	1	1	0	1	-0,563777	273,650098	317,391102	0
15.01.2021	07:54:17	0	0	4,29339	2,433	7,5204	-0,285	85,78	0	1012,14	6,2	8,3	8,2	1	1	1	1	1	1	1	1	1	0	1	-6,412967	273,551219	311,082607	0
15.01.2021	07:54:18	0	0	4,971294	2,52375	0	-0,288	85,76	0	1011,98	6,3	8,5	8,2	1	1	1	1	1	1	1	1	1	0	1	-8,386187	273,68658	309,738276	0
15.01.2021	07:54:19	0	0	4,29339	2,6415	6,066	-0,283	85,766	0	1012,24	6,2	8,3	8,2	1	1	1	1	1	1	1	1	1	0	1	-1,198027	273,602049	316,533597	0
15.01.2021	07:54:20	0	0	3,163551	2,67075	10,8252	-0,286	85,772	0	1012,14	6,2	8,3	8,2	1	1	1	1	1	1	1	1	1	0	1	-11,698379	273,500522	305,561898	0
15.01.2021	07:54:21	0	0	2,824599	2,58075	18,4464	-0,286	85,785	0	1012,14	6,3	8,3	8,2	1	1	1	1	1	1	1	1	1	0	1	-4,369274	273,513546	312,951436	0
15.01.2021	07:54:22	0	0	3,389519	2,688	15,0372	-0,288	85,778	0	1012,14	6,2	8,3	8,2	1	1	1	1	1	1	1	1	1	0	1	-5,426357	273,606412	312,325535	0
15.01.2021	07:54:23	0	0	2,711615	2,82225	13,1688	-0,289	85,759	0	1012,04	6,2	8,3	8,2	1	1	1	1	1	1	1	1	1	0	1	-5,990134	273,514993	311,337294	0
15.01.2021	07:54:24	0	0	4,406374	2,8515	22,0932	-0,287	85,764	0	1012,06	6,2	8,3	8,2	1	1	1	1	1	1	1	1	1	0	1	-4,016913	273,631156	313,849936	0
15.01.2021	07:54:25	0	0	3,163551	2,78925	357,0408	-0,286	85,755	0	1012,14	6,2	8,3	8,2	1	1	1	1	1	1	1	1	1	0	1	-3,171247	273,523681	314,196501	0
15.01.2021	07:54:26	0	0	2,937583	2,79525	353,9592	-0,286	85,761	0	1012,06	6,2	8,4	8,2	1	1	1	1	1	1	1	1	1	0	1	-7,82241	273,507757	309,471435	0
15.01.2021	07:54:27	0	0	4,519358	2,5845	9,3528	-0,286	85,77	0	1012,1	6,3	8,5	8,2	1	1	1	1	1	1	1	1	1	0	1	-5,285412	273,613686	312,500272	0
15.01.2021	07:54:28	0	0	2,711615	2,45475	357,2352	-0,291	85,765	0	1012,06	6,2	8,3	8,2	1	1	1	1	1	1	1	1	1	0	1	-4,439746	273,50631	312,847384	0
15.01.2021	07:54:29	0	0	3,163551	2,3145	4,0752	-0,286	85,758	0	1012,1	6,2	8,5	8,2	1	1	1	1	1	1	1	1	1	0	1	-7,329105	273,620963	310,490387	0
15.01.2021	07:54:30	0	0	2,937583	2,23425	6,4368	-0,285	85,759	0	1012	6,2	8,3	8,2	1	1	1	1	1	1	1	1	1	0	1	-3,24172	273,673438	314,821649	0
15.01.2021	07:54:31	0	0	4,632342	2,376	8,2476	-0,285	85,771	0	1012	6,3	8,3	8,2	1	1	1	1	1	1	1	1	1	0	1	-0,352361	273,663224	317,663524	0
15.01.2021	07:54:32	0	0	2,485647	2,415	16,8444	-0,28	85,775	0	1012,1	6,2	8,3	8,2	1	1	1	1	1	1	1	1	1	0	1	-5,496829	273,580248	312,133538	0
15.01.2021	07:54:33	0	0	2,372663	2,33475	13,1472	-0,286	85,767	0	1012,02	6,2	8,3	8,2	1	1	1	1	1	1	1	1	1	0	1	-3,453136	273,516441	313,881011	0
15.01.2021	07:54:34	0	0	4,745326	2,1825	16,092	-0,291	85,759	0	1012	6,3	8,3	8,2	1	1	1	1	1	1	1	1	1	0	1	-2,536998	273,530924	314,864367	0
15.01.2021	07:54:35	0	0	3,728471	2,04975	16,4772	-0,289	85,768	0	1012,1	6,2	8,3	8,2	1	1	1	1	1	1	1	1	1	0	1	-6,906272	273,535271	310,51527	0
15.01.2021	07:54:36	0	0	3,389519	1,93725	11,7072	-0,289	85,775	0	1012,02	6,2	8,3	8,2	1	1	1	1	1	1	1	1	1	0	1	-8,668076	273,680738	309,429227	0
15.01.2021	07:54:37	0	0	3,502503	1,91475	11,7108	-0,286	85,769	0	1012	6,2	8,3	8,2	1	1	1	1	1	1	1	1	1	0	1	-6,342495	273,542518	311,112689	0
15.01.2021	07:54:38	0	0	3,389519	1,92	14,2956	-0,285	85,744	0	1012,1	6,3	8,3	8,2	1	1	1	1	1	1	1	1	1	0	1	-9,725159	273,588966	307,945694	0
15.01.2021	07:54:39	0	0	4,180406	1,89075	19,5336	-0,284	85,772	0	1012,08	6,2	8,3	8,2	1	1	1	1	1	1	1	1	1	0	1	-3,664553	273,513546	313,656158	0
15.01.2021	07:54:40	0	0	4,067422	1,818	8,2584	-0,283	85,759	0	1012,1	6,2	8,3	8,2	1	1	1	1	1	1	1	1	1	0	1	-3,59408	273,548318	313,888028	0
15.01.2021	07:54:41	0	0	4,29339	1,7835	6,444	-0,284	85,763	0	1012,06	6,2	8,5	8,2	1	1	1	1	1	1	1	1	1	0	1	-2,255109	273,623875	315,577911	0
15.01.2021	07:54:42	0	0	2,937583	1,8615	16,4844	-0,282	85,754	0	1012,18	6,2	8,5	8,2	1	1	1	1	1	1	1	1	1	0	1	-7,188161	273,673438	310,875207	0
15.01.2021	07:54:43	0	0	4,29339	2,03625	13,536	-0,281	85,759	0	1012,18	6,3	8,3	8,2	1	1	1	1	1	1	1	1	1	0	1	-7,470049	273,588966	310,200804	0
15.01.2021	07:54:44	0	0	4,519358	2,3415	10,0728	-0,287	85,767	0	1012,26	6,3	8,3	8,2	1	1	1	1	1	1	1	1	1	0	1	-4,933051	273,644268	312,994731	0
15.01.2021	07:54:45	0	0	3,050567	2,5905	13,554	-0,283	85,767	0	1012,16	6,2	8,3	8,2	1	1	1	1	1	1	1	1	1	0	1	-5,778717	273,645725	312,155838	0
15.01.2021	07:54:46	0	0	4,632342	2,77125	19,8972	-0,283	85,767	0	1012,16	6,2	8,3	8,2	1	1	1	1	1	1	1	1	1	0	1	-6,976744	273,543968	310,48517	0
15.01.2021	07:54:47	0	0	4,29339	3,16575	3,0276	-0,28	85,768	0	1012,1	6,2	8,3	8,2	1	1	1	1	1	1	1	1	1	0	1	-4,439746	273,670519	313,610052	0
15.01.2021	07:54:48	0	0	4,519358	3,0135	354,0132	-0,284	85,783	0	1012,14	6,3	8,5	8,2	1	1	1	1	1	1	1	1	1	0	1	-2,818887	273,683659	315,291996	0
15.01.2021	07:54:49	0	0	4,971294	2,775	349,9092	-0,28	85,762	0	1012,1	6,2	8,3	8,2	1	1	1	1	1	1	1	1	1	0	1	-4,933051	273,653014	313,03538	0
15.01.2021	07:54:50	0	0	4,406374	2,64	352,0764	-0,283	85,767	0	1012,1	6,2	8,3	8,2	1	1	1	1	1	1	1	1	1	0	1	-3,523608	273,655931	314,458378	0
15.01.2021	07:54:51	0	0	3,163551	2,59725	347,6232	-0,282	85,764	0	1012,32	6,2	8,4	8,2	1	1	1	1	1	1	1	1	1	0	1	-4,016913	273,648641	313,931191	0
15.01.2021	07:54:52	0	0	4,85831	2,38425	19,8936	-0,286	85,749	0	1012,16	6,2	8,5	8,2	1	1	1	1	1	1	1	1	1	0	1	-4,933051	273,66906	313,109963	0
15.01.2021	07:54:53	0	0	4,632342	2,2455	18,8316	-0,284	85,748	0	1012,12	6,2	8,3	8,2	1	1	1	1	1	1	1	1	1	0	1	-5,708245	273,541069	311,740209	0
15.01.2021	07:54:54	0	0	3,389519	2,33925	16,4628	-0,288	85,767	0	1012,16	6,2	8,3	8,2	1	1	1	1	1	1	1	1	1	0	1	-6,060606	273,52513	311,313864	0
15.01.2021	07:54:55	0	0	3,841454	2,37075	13,1832	-0,289	85,761	0	1012,06	6,2	8,5	8,2	1	1	1	1	1	1	1	1	1	0	1	-8,174771	273,541069	309,273683	0
15.01.2021	07:54:56	0	0	2,598615	2,25525	19,9044	-0,287	85,76	0	1012,12	6,2	8,3	8,3	1	1	1	1	1	1	1	1	1	0	1	-6,765328	273,526578	310,615865	0
15.01.2021	07:54:57	0	0	4,745326	2,27625	0,4932	-0,28	85,763	0	1012,26	6,2	8,5	8,2	1	1	1	1	1	1	1	1	1	0	1	-8,174771	273,504863	309,105645	0
15.01.2021	07:54:58	0	0	3,954438	2,718	9,3708	-0,279	85,758	0	1012,1	6,2	8,5	8,2	1	1	1	1	1	1	1	1	1	0	1	-3,523608	273,546868	313,951768	0
15.01.2021	07:54:59	0	0	3,615487	2,808	0,8784	-0,278	85,757	0	1012,16	6,2	8,5	8,2	1	1	1	1	1	1	1	1	1	0	1	-1,832276	273,517889	315,50859	0
15.01.2021	07:55:00	0	0	4,29339	2,71575	360	-0,284	85,756	0	1012,1	6,2	8,5	8,2	1	1	1	1	1	1	1	1	1	0	1	-4,016913	273,620963	313,802579	0
15.01.2021	07:55:01	0	0	4,29339	2,71575	360	-0,284	85,756	0	1012,1	6,2	8,5	8,2	1	1	1	1	1	1	1	1	1	0	1	-4,016913	273,620963	313,802579	0
15.01.2021	07:55:02	0	0	3,050567	2,82825	8,6112	-0,283	85,758	0	1012,1	6,2	8,3	8,2	1	1	1	1	1	1	1	1	1	0	1	-5,778717	273,685119	312,338955	0
15.01.2021	07:55:03	0	0	4,632342	2,883	11,1924	-0,277	85,78	0	1011,9	6,3	8,5	8,2	1	1	1	1	1	1	1	1	1	0	1	-5,285412	273,613686	312,500272	0
15.01.2021	07:55:04	0	0	3,163551	2,94075	2,628	-0,282	85,759	0	1011,98	6,2	8,3	8,2	1	1	1	1	1	1	1	1	1	0	1	-3,59408	273,663224	314,421804	0
15.01.2021	07:55:05	0	0	5,084278	3,09225	9,3636	-0,278	85,747	0	1012,22	6,3	8,5	8,2	1	1	1	1	1	1	1	1	1	0	1	-6,906272	273,658848	311,089272	0
15.01.2021	07:55:06	0	0	4,745326	3,183	18,1044	-0,277	85,77	0	1012,1	6,2	8,3	8,2	1	1	1	1	1	1	1	1	1	0	1	-5,21494	273,660306	312,787383	0
15.01.2021	07:55:07	0	0	3,954438	3,192	352,4688	-0,28	85,748	0	1011,98	6,3	8,3	8,2	1	1	1	1	1	1	1	1	1	0	1	-3,24172	273,539619	314,200006	0
15.01.2021	07:55:08	0	0	3,728471	3,201	10,0764	-0,276	85,755	0	1012,12	6,2	8,5	8,2	1	1	1	1	1	1	1	1	1	0	1	-2,748414	273,629699	315,111668	0
15.01.2021	07:55:09	0	0	3,841454	3,2805	8,6112	-0,283	85,75	0	1012,14	6,2	8,5	8,2	1	1	1	1	1	1	1	1	1	0	1	-6,20155	273,516441	311,132596	0
15.01.2021	07:55:10	0	0	4,632342	3,35475	360	-0,283	85,758	0	1012,24	6,2	8,5	8,2	1	1	1	1	1	1	1	1	1	0	1	-4,439746	273,728984	313,881923	0
15.01.2021	07:55:11	0	0	3,276535	3,4155	12,0888	-0,28	85,753	0	1012,2	6,3	8,3	8,2	1	1	1	1	1	1	1	1	1	0	1	-3,312192	273,676358	314,764749	0
15.01.2021	07:55:12	0	0	3,502503	3,21975	4,4712	-0,279	85,757	0	1012,02	6,2	8,5	8,2	1	1	1	1	1	1	1	1	1	0	1	-5,073996	273,610777	312,69817	0
15.01.2021	07:55:13	0	0	3,050567	2,892	9,3492	-0,277	85,766	0	1012,2	6,2	8,5	8,2	1	1	1	1	1	1	1	1	1	0	1	-1,057082	273,509204	316,243478	0
15.01.2021	07:55:14	0	0	3,502503	2,70525	13,1616	-0,278	85,751	0	1011,98	6,2	8,3	8,2	1	1	1	1	1	1	1	1	1	0	1	-3,875969	273,612231	313,902956	0
15.01.2021	07:55:15	0	0	3,502503	2,59125	6,8868	-0,278	85,754	0	1012,24	6,2	8,5	8,2	1	1	1	1	1	1	1	1	1	0	1	-5,84919	273,663224	312,166695	0
15.01.2021	07:55:16	0	0	2,485647	2,54025	4,8384	-0,275	85,759	0	1012,06	6,2	8,3	8,2	1	1	1	1	1	1	1	1	1	0	1	-4,087385	273,530924	313,31398	0
15.01.2021	07:55:17	0	0	3,276535	2,45475	4,8528	-0,277	85,768	0	1012,1	6,2	8,5	8,2	1	1	1	1	1	1	1	1	1	0	1	-0	273,590419	317,677603	0
15.01.2021	07:55:18	0	0	4,745326	2,40075	2,304	-0,281	85,769	0	1012,1	6,3	8,3	8,2	1	1	1	1	1	1	1	1	1	0	1	-3,59408	273,653014	314,374351	0
15.01.2021	07:55:19	0	0	2,937583	2,66925	3,0276	-0,285	85,753	0	1011,98	6,2	8,5	8,2	1	1	1	1	1	1	1	1	1	0	1	-7,188161	273,545418	310,280484	0
15.01.2021	07:55:20	0	0	3,954438	2,8245	1,9332	-0,278	85,755	0	1012,16	6,2	8,3	8,2	1	1	1	1	1	1	1	1	1	0	1	-5,144468	273,561374	312,398255	0
15.01.2021	07:55:21	0	0	2,937583	2,75325	358,3188	-0,277	85,758	0	1012,16	6,3	8,5	8,2	1	1	1	1	1	1	1	1	1	0	1	-2,255109	273,504863	315,025307	0
15.01.2021	07:55:22	0	0	2,824599	2,66175	4,8456	-0,276	85,764	0	1012,04	6,2	8,5	8,2	1	1	1	1	1	1	1	1	1	0	1	-3,24172	273,635525	314,645435	0
15.01.2021	07:55:23	0	0	2,824599	2,574	13,9176	-0,282	85,77	0	1012,16	6,2	8,5	8,2	1	1	1	1	1	1	1	1	1	0	1	-3,382664	273,504863	313,897752	0
15.01.2021	07:55:24	0	0	2,146695	2,45925	17,694	-0,281	85,758	0	1012,06	6,3	8,5	8,2	1	1	1	1	1	1	1	1	1	0	1	-4,721635	273,571535	312,868268	0
15.01.2021	07:55:25	0	0	3,615487	2,47275	6,8184	-0,277	85,76	0	1011,92	6,2	8,3	8,2	1	1	1	1	1	1	1	1	1	0	1	-3,946441	273,66906	314,096573	0
15.01.2021	07:55:26	0	0	4,519358	2,517	8,6076	-0,277	85,766	0	1012,08	6,2	8,5	8,2	1	1	1	1	1	1	1	1	1	0	1	-6,412967	273,641353	311,50127	0
15.01.2021	07:55:27	0	0	4,745326	2,46825	6,4476	-0,276	85,772	0	1012,2	6,2	8,3	8,2	1	1	1	1	1	1	1	1	1	0	1	-8,668076	273,542518	308,787108	0
15.01.2021	07:55:28	0	0	3,615487	2,4675	4,8348	-0,275	85,764	0	1012,16	6,3	8,5	8,2	1	1	1	1	1	1	1	1	1	0	1	-3,523608	273,677818	314,560119	0
15.01.2021	07:55:29	0	0	4,85831	2,4615	360	-0,276	85,769	0	1011,98	6,2	8,5	8,2	1	1	1	1	1	1	1	1	1	0	1	-2,255109	273,604958	315,490026	0
15.01.2021	07:55:30	0	0	4,406374	2,493	1,566	-0,281	85,768	0	1012,16	6,3	8,5	8,2	1	1	1	1	1	1	1	1	1	0	1	-3,24172	273,673438	314,821649	0
15.01.2021	07:55:31	0	0	4,180406	2,46375	355,4352	-0,276	85,775	0	1012,12	6,3	8,5	8,2	1	1	1	1	1	1	1	1	1	0	1	-4,933051	273,600595	312,791818	0
15.01.2021	07:55:32	0	0	2,598631	2,493	348,6852	-0,279	85,762	0	1012,06	6,2	8,5	8,2	1	1	1	1	1	1	1	1	1	0	1	-1,973221	273,510651	315,334056	0
15.01.2021	07:55:33	0	0	4,971294	2,51325	354,9636	-0,275	85,771	0	1011,96	6,2	8,3	8,2	1	1	1	1	1	1	1	1	1	0	1	-4,862579	273,586059	312,794776	0
15.01.2021	07:55:34	0	0	4,406374	2,481	348,7068	-0,284	85,744	0	1011,92	6,2	8,5	8,2	1	1	1	1	1	1	1	1	1	0	1	-7,751938	273,671979	310,304645	0
15.01.2021	07:55:35	0	0	4,519331	2,2665	6,4368	-0,275	85,75	0	1012,1	6,2	8,3	8,3	1	1	1	1	1	1	1	1	1	0	1	-4,721635	273,623875	313,111385	0
15.01.2021	07:55:36	0	0	3,276535	2,217	350,3232	-0,281	85,756	0	1012,1	6,3	8,5	8,2	1	1	1	1	1	1	1	1	1	0	1	-4,721635	273,660306	313,280689	0
15.01.2021	07:55:37	0	0	3,615487	2,352	14,7348	-0,276	85,765	0	1012,08	6,2	8,4	8,2	1	1	1	1	1	1	1	1	1	0	1	-1,902748	273,577343	315,714128	0
15.01.2021	07:55:38	0	0	2,937583	2,4405	8,2548	-0,277	85,76	0	1012,14	6,3	8,3	8,2	1	1	1	1	1	1	1	1	1	0	1	-2,184637	273,671979	315,871946	0
15.01.2021	07:55:39	0	0	2,824599	2,4345	10,4328	-0,278	85,769	0	1012,06	6,3	8,3	8,2	1	1	1	1	1	1	1	1	1	0	1	-5,285412	273,676358	312,791528	0
15.01.2021	07:55:40	0	0	2,937583	2,35125	8,9964	-0,277	85,773	0	1012,18	6,2	8,5	8,2	1	1	1	1	1	1	1	1	1	0	1	-6,412967	273,570083	311,170194	0
15.01.2021	07:55:41	0	0	4,29339	2,22225	12,1104	-0,275	85,755	0	1012,32	6,2	8,5	8,2	1	1	1	1	1	1	1	1	1	0	1	-2,889359	273,666142	315,14009	0
15.01.2021	07:55:42	0	0	4,180381	2,1735	13,9176	-0,286	85,771	0	1012,12	6,2	8,5	8,3	1	1	1	1	1	1	1	1	1	0	1	-5,708245	273,628243	312,145071	0
15.01.2021	07:55:43	0	0	2,937583	2,1915	12,8556	-0,274	85,767	0	1012,06	6,2	8,3	8,2	1	1	1	1	1	1	1	1	1	0	1	-4,369274	273,558472	313,159975	0
15.01.2021	07:55:44	0	0	4,519331	2,187	9,3708	-0,278	85,772	0	1012,2	6,3	8,5	8,3	1	1	1	1	1	1	1	1	1	0	1	-6,694856	273,487508	310,505038	0
15.01.2021	07:55:45	0	0	4,067422	2,12025	9,36	-0,28	85,779	0	1011,9	6,3	8,5	8,2	1	1	1	1	1	1	1	1	1	0	1	-7,117689	273,549768	310,371152	0
15.01.2021	07:55:46	0	0	3,615487	2,12625	5,2308	-0,281	85,768	0	1012,18	6,2	8,3	8,2	1	1	1	1	1	1	1	1	1	0	1	-2,255109	273,526578	315,126084	0
15.01.2021	07:55:47	0	0	3,276535	2,1135	7,5204	-0,271	85,768	0	1012,12	6,3	8,5	8,2	1	1	1	1	1	1	1	1	1	0	1	-5,144468	273,650098	312,810411	0
15.01.2021	07:55:48	0	0	3,163551	2,13525	10,8108	-0,279	85,773	0	1012,06	6,3	8,5	8,2	1	1	1	1	1	1	1	1	1	0	1	-3,523608	273,613686	314,262076	0
15.01.2021	07:55:49	0	0	4,29339	2,21475	6,4368	-0,275	85,761	0	1012,26	6,3	8,5	8,2	1	1	1	1	1	1	1	1	1	0	1	-9,584214	273,676358	308,492726	0
15.01.2021	07:55:50	0	0	3,276535	2,29275	4,842	-0,277	85,749	0	1012,1	6,3	8,3	8,2	1	1	1	1	1	1	1	1	1	0	1	-8,033827	273,542518	309,421357	0
15.01.2021	07:55:51	0	0	2,146682	2,42775	13,554	-0,277	85,778	0	1012,02	6,2	8,5	8,3	1	1	1	1	1	1	1	1	1	0	1	-4,862579	273,679278	313,227936	0
15.01.2021	07:55:52	0	0	3,050567	2,29875	14,6412	-0,276	85,778	0	1012,08	6,3	8,5	8,2	1	1	1	1	1	1	1	1	1	0	1	-4,651163	273,628243	313,202153	0
15.01.2021	07:55:53	0	0	5,084278	2,3355	16,8624	-0,278	85,757	0	1011,98	6,2	8,3	8,2	1	1	1	1	1	1	1	1	1	0	1	-9,513742	273,635525	308,373413	0
15.01.2021	07:55:54	0	0	4,745326	2,4525	15,0192	-0,275	85,768	0	1012,04	6,2	8,5	8,2	1	1	1	1	1	1	1	1	1	0	1	-5,144468	273,68658	312,979995	0
15.01.2021	07:55:55	0	0	5,42323	2,5695	2,646	-0,275	85,772	0	1012,1	6,3	8,5	8,2	1	1	1	1	1	1	1	1	1	0	1	-3,030303	273,599141	314,687812	0
15.01.2021	07:55:56	0	0	3,389519	2,58	360	-0,273	85,755	0	1012,16	6,3	8,5	8,2	1	1	1	1	1	1	1	1	1	0	1	-4,933051	273,696807	313,238965	0
15.01.2021	07:55:57	0	0	4,971294	2,457	18,45	-0,278	85,765	0	1012,16	6,2	8,3	8,2	1	1	1	1	1	1	1	1	1	0	1	-3,805497	273,520785	313,548809	0
15.01.2021	07:55:58	0	0	3,050548	2,34225	352,9656	-0,274	85,759	0	1012,12	6,2	8,5	8,3	1	1	1	1	1	1	1	1	1	0	1	-1,973221	273,503416	315,300482	0
15.01.2021	07:55:59	0	0	2,485647	2,35725	14,2848	-0,277	85,751	0	1012,24	6,2	8,3	8,2	1	1	1	1	1	1	1	1	1	0	1	-5,778717	273,535271	311,642825	0
15.01.2021	07:56:00	0	0	4,519358	2,268	11,1888	-0,279	85,744	0	1012,06	6,3	8,3	8,2	1	1	1	1	1	1	1	1	1	0	1	-1,761804	273,513546	315,558906	0
15.01.2021	07:56:01	0	0	4,519358	2,268	11,1888	-0,279	85,744	0	1012,06	6,3	8,3	8,2	1	1	1	1	1	1	1	1	1	0	1	-1,761804	273,513546	315,558906	0
15.01.2021	07:56:02	0	0	3,841454	2,33475	10,0584	-0,273	85,767	0	1012,08	6,3	8,3	8,2	1	1	1	1	1	1	1	1	1	0	1	-4,721635	273,648641	313,226469	0
15.01.2021	07:56:03	0	0	4,406374	2,32575	17,2368	-0,276	85,779	0	1012,16	6,2	8,5	8,2	1	1	1	1	1	1	1	1	1	0	1	-7,188161	273,625331	310,651624	0
15.01.2021	07:56:04	0	0	4,745326	2,37225	8,262	-0,279	85,751	0	1012,04	6,3	8,5	8,2	1	1	1	1	1	1	1	1	1	0	1	-4,792107	273,645725	313,142448	0
15.01.2021	07:56:05	0	0	4,180406	2,46225	12,1032	-0,272	85,739	0	1012,06	6,3	8,5	8,2	1	1	1	1	1	1	1	1	1	0	1	-5,003524	273,588966	312,667329	0
15.01.2021	07:56:06	0	0	4,519358	2,424	3,78	-0,275	85,758	0	1012,14	6,3	8,5	8,2	1	1	1	1	1	1	1	1	1	0	1	-2,043693	273,522233	315,317334	0
15.01.2021	07:56:07	0	0	3,389519	2,3085	4,824	-0,271	85,775	0	1012,14	6,2	8,5	8,2	1	1	1	1	1	1	1	1	1	0	1	-3,24172	273,504863	314,038697	0
15.01.2021	07:56:08	0	0	4,180406	2,17725	13,5612	-0,276	85,763	0	1012,2	6,2	8,5	8,2	1	1	1	1	1	1	1	1	1	0	1	-5,919662	273,599141	311,798453	0
15.01.2021	07:56:09	0	0	2,259679	2,17425	18,0936	-0,276	85,758	0	1012,14	6,2	8,5	8,2	1	1	1	1	1	1	1	1	1	0	1	-3,946441	273,514993	313,380987	0
15.01.2021	07:56:10	0	0	4,067422	2,01675	16,8372	-0,28	85,763	0	1012,18	6,3	8,5	8,2	1	1	1	1	1	1	1	1	1	0	1	-5,496829	273,667601	312,539402	0
15.01.2021	07:56:11	0	0	4,29339	1,92075	0,8748	-0,267	85,774	0	1012,18	6,2	8,5	8,2	1	1	1	1	1	1	1	1	1	0	1	-5,073996	273,600595	312,650873	0
15.01.2021	07:56:12	0	0	3,050567	2,03925	2,2968	-0,272	85,771	0	1012,26	6,2	8,5	8,2	1	1	1	1	1	1	1	1	1	0	1	-4,510218	273,674898	313,559935	0
15.01.2021	07:56:13	0	0	3,728471	2,1855	6,9228	-0,276	85,751	0	1012,02	6,3	8,5	8,2	1	1	1	1	1	1	1	1	1	0	1	-6,131078	273,593326	311,560026	0
15.01.2021	07:56:14	0	0	3,050567	2,18625	9,0036	-0,274	85,751	0	1012,18	6,2	8,3	8,2	1	1	1	1	1	1	1	1	1	0	1	-3,030303	273,507757	314,263542	0
15.01.2021	07:56:15	0	0	4,85831	2,18625	4,8384	-0,27	85,767	0	1012,24	6,2	8,5	8,2	1	1	1	1	1	1	1	1	1	0	1	-3,664553	273,644268	314,26323	0
15.01.2021	07:56:16	0	0	4,519358	2,1375	14,652	-0,269	85,76	0	1012,16	6,3	8,5	8,2	1	1	1	1	1	1	1	1	1	0	1	-4,298802	273,549768	313,190039	0
15.01.2021	07:56:17	0	0	3,389519	2,1315	13,9284	-0,278	85,756	0	1012,12	6,3	8,5	8,2	1	1	1	1	1	1	1	1	1	0	1	-4,016913	273,514993	313,310515	0
15.01.2021	07:56:18	0	0	4,632342	2,08725	14,2956	-0,278	85,75	0	1012,04	6,3	8,3	8,2	1	1	1	1	1	1	1	1	1	0	1	-1,832276	273,546868	315,6431	0
15.01.2021	07:56:19	0	0	4,180406	2,064	10,0548	-0,279	85,767	0	1012,14	6,2	8,5	8,2	1	1	1	1	1	1	1	1	1	0	1	-4,721635	273,535271	312,699907	0
15.01.2021	07:56:20	0	0	3,276535	2,04375	14,3064	-0,276	85,75	0	1012,28	6,3	8,5	8,2	1	1	1	1	1	1	1	1	1	0	1	-2,325581	273,49763	314,921273	0
15.01.2021	07:56:21	0	0	2,711615	2,10525	8,2692	-0,274	85,752	0	1011,96	6,3	8,5	8,2	1	1	1	1	1	1	1	1	1	0	1	-5,778717	273,56718	311,790962	0
15.01.2021	07:56:22	0	0	3,163532	2,241	6,0696	-0,274	85,776	0	1012,2	6,3	8,5	8,3	1	1	1	1	1	1	1	1	1	0	1	-5,073996	273,501969	312,192994	0
15.01.2021	07:56:23	0	0	3,050548	2,316	13,1724	-0,27	85,761	0	1012,28	6,3	8,5	8,3	1	1	1	1	1	1	1	1	1	0	1	-3,100775	273,628243	314,752541	0
15.01.2021	07:56:24	0	0	3,163551	2,232	8,262	-0,27	85,768	0	1012,06	6,3	8,5	8,2	1	1	1	1	1	1	1	1	1	0	1	-4,510218	273,639896	313,397247	0
15.01.2021	07:56:25	0	0	2,937583	2,13075	5,6844	-0,272	85,769	0	1012,24	6,3	8,5	8,2	1	1	1	1	1	1	1	1	1	0	1	-8,949965	273,676358	309,126976	0
15.01.2021	07:56:26	0	0	3,276535	2,11275	1,5588	-0,274	85,768	0	1012,2	6,3	8,5	8,2	1	1	1	1	1	1	1	1	1	0	1	-6,342495	273,535271	311,079048	0
15.01.2021	07:56:27	0	0	3,389519	2,13825	1,1916	-0,272	85,762	0	1012,14	6,2	8,5	8,2	1	1	1	1	1	1	1	1	1	0	1	-5,355884	273,532373	312,052206	0
15.01.2021	07:56:28	0	0	2,824599	2,08725	1,1844	-0,268	85,765	0	1012,12	6,2	8,5	8,2	1	1	1	1	1	1	1	1	1	0	1	-5,708245	273,622419	312,11801	0
15.01.2021	07:56:29	0	0	3,502482	2,05275	15,4116	-0,271	85,78	0	1012,18	6,3	8,5	8,3	1	1	1	1	1	1	1	1	1	0	1	-4,22833	273,499076	313,025236	0
15.01.2021	07:56:30	0	0	3,841454	2,118	351,3528	-0,272	85,771	0	1012,08	6,3	8,5	8,2	1	1	1	1	1	1	1	1	1	0	1	-4,933051	273,625331	312,906733	0
15.01.2021	07:56:31	0	0	4,29339	2,20725	10,8108	-0,271	85,776	0	1012,04	6,3	8,5	8,2	1	1	1	1	1	1	1	1	1	0	1	-5,990134	273,679278	312,100381	0
15.01.2021	07:56:32	0	0	4,85831	2,499	19,1448	-0,283	85,759	0	1012,24	6,3	8,5	8,2	1	1	1	1	1	1	1	1	1	0	1	-4,933051	273,609322	312,832355	0
15.01.2021	07:56:33	0	0	3,050567	2,703	23,9652	-0,269	85,763	0	1012,04	6,3	8,5	8,2	1	1	1	1	1	1	1	1	1	0	1	-3,030303	273,661765	314,978801	0
15.01.2021	07:56:34	0	0	5,084278	2,72775	6,0696	-0,272	85,772	0	1012,12	6,3	8,5	8,2	1	1	1	1	1	1	1	1	1	0	1	-5,496829	273,631156	312,370021	0
15.01.2021	07:56:35	0	0	3,163551	2,83275	7,884	-0,271	85,777	0	1012,08	6,3	8,5	8,2	1	1	1	1	1	1	1	1	1	0	1	-2,889359	273,660306	315,112965	0
15.01.2021	07:56:36	0	0	3,163551	2,955	7,128	-0,272	85,776	0	1012,16	6,3	8,3	8,2	1	1	1	1	1	1	1	1	1	0	1	-7,82241	273,509204	309,47815	0
15.01.2021	07:56:37	0	0	3,389519	2,92425	22,4784	-0,273	85,775	0	1012,18	6,3	8,5	8,2	1	1	1	1	1	1	1	1	1	0	1	-2,184637	273,543968	315,277277	0
15.01.2021	07:56:38	0	0	2,711615	2,75925	20,2932	-0,27	85,785	0	1012,18	6,3	8,5	8,2	1	1	1	1	1	1	1	1	1	0	1	-5,567301	273,666142	312,462147	0
15.01.2021	07:56:39	0	0	5,084278	2,73075	10,0656	-0,272	85,781	0	1012,12	6,3	8,5	8,2	1	1	1	1	1	1	1	1	1	0	1	-6,412967	273,645725	311,521589	0
15.01.2021	07:56:40	0	0	4,745326	2,5905	20,646	-0,271	85,762	0	1012,14	6,3	8,5	8,2	1	1	1	1	1	1	1	1	1	0	1	-5,778717	273,548318	311,703391	0
15.01.2021	07:56:41	0	0	4,858281	2,4495	18,432	-0,273	85,779	0	1012,12	6,3	8,5	8,3	1	1	1	1	1	1	1	1	1	0	1	-6,060606	273,504863	311,21981	0
15.01.2021	07:56:42	0	0	4,632342	2,36325	17,316	-0,272	85,774	0	1012,06	6,3	8,5	8,2	1	1	1	1	1	1	1	1	1	0	1	-7,399577	273,654473	310,575632	0
15.01.2021	07:56:43	0	0	3,502503	2,30625	2,6532	-0,272	85,774	0	1012,08	6,3	8,5	8,2	1	1	1	1	1	1	1	1	1	0	1	-5,285412	273,564277	312,270788	0
15.01.2021	07:56:44	0	0	2,824599	2,244	2,6496	-0,28	85,765	0	1012,12	6,3	8,5	8,2	1	1	1	1	1	1	1	1	1	0	1	-3,805497	273,66906	314,237517	0
15.01.2021	07:56:45	0	0	2,937583	2,2935	0,486	-0,271	85,774	0	1012,04	6,3	8,5	8,2	1	1	1	1	1	1	1	1	1	0	1	-3,030303	273,421126	313,861736	0
15.01.2021	07:56:46	0	0	3,841454	2,44725	14,742	-0,278	85,771	0	1012,08	6,3	8,5	8,2	1	1	1	1	1	1	1	1	1	0	1	-6,483439	273,674898	311,586715	0
15.01.2021	07:56:47	0	0	2,598631	2,55	9,3528	-0,27	85,772	0	1012,02	6,3	8,5	8,2	1	1	1	1	1	1	1	1	1	0	1	-4,510218	273,559923	313,025767	0
15.01.2021	07:56:48	0	0	2,485647	2,56875	9,7668	-0,265	85,779	0	1012,1	6,3	8,5	8,2	1	1	1	1	1	1	1	1	1	0	1	-3,312192	273,516441	314,021955	0
15.01.2021	07:56:49	0	0	4,745298	2,61675	15,786	-0,275	85,771	0	1012,18	6,3	8,3	8,3	1	1	1	1	1	1	1	1	1	0	1	-2,466526	273,561374	315,076198	0
15.01.2021	07:56:50	0	0	4,406374	2,874	12,4704	-0,263	85,792	0	1012,2	6,3	8,5	8,2	1	1	1	1	1	1	1	1	1	0	1	-4,721635	273,660306	313,280689	0
15.01.2021	07:56:51	0	0	3,502503	2,99325	6,4296	-0,269	85,773	0	1012,18	6,3	8,5	8,2	1	1	1	1	1	1	1	1	1	0	1	-4,22833	273,490399	312,984978	0
15.01.2021	07:56:52	0	0	4,85831	3,0435	13,1616	-0,271	85,774	0	1012	6,3	8,5	8,2	1	1	1	1	1	1	1	1	1	0	1	-7,540521	273,634069	310,339864	0
15.01.2021	07:56:53	0	0	4,632314	2,853	23,2308	-0,264	85,788	0	1012,24	6,2	8,3	8,3	1	1	1	1	1	1	1	1	1	0	1	-4,087385	273,670519	313,962413	0
15.01.2021	07:56:54	0	0	3,389519	2,69325	13,9248	-0,268	85,773	0	1012,12	6,3	8,5	8,2	1	1	1	1	1	1	1	1	1	0	1	-2,255109	273,645725	315,679446	0
15.01.2021	07:56:55	0	0	4,293365	2,58075	4,1004	-0,268	85,775	0	1012,1	6,3	8,5	8,3	1	1	1	1	1	1	1	1	1	0	1	-6,483439	273,516441	310,850708	0
15.01.2021	07:56:56	0	0	3,615487	2,68275	16,4772	-0,265	85,803	0	1012,22	6,3	8,5	8,2	1	1	1	1	1	1	1	1	1	0	1	-7,470049	273,658848	310,525495	0
15.01.2021	07:56:57	0	0	4,29339	2,685	22,4532	-0,276	85,791	0	1012,2	6,3	8,5	8,2	1	1	1	1	1	1	1	1	1	0	1	-6,342495	273,648641	311,605609	0
15.01.2021	07:56:58	0	0	4,519358	2,62575	27,6552	-0,27	85,792	0	1012	6,2	8,5	8,2	1	1	1	1	1	1	1	1	1	0	1	-5,778717	273,545418	311,689927	0
15.01.2021	07:56:59	0	0	2,824599	2,51625	16,4592	-0,268	85,788	0	1012,22	6,3	8,5	8,2	1	1	1	1	1	1	1	1	1	0	1	-6,483439	273,674898	311,586715	0
15.01.2021	07:57:00	0	0	4,29339	2,3385	15,786	-0,271	85,774	0	1012,22	6,3	8,5	8,2	1	1	1	1	1	1	1	1	1	0	1	-3,805497	273,66906	314,237517	0
15.01.2021	07:57:01	0	0	4,29339	2,3385	15,786	-0,271	85,774	0	1012,22	6,3	8,5	8,2	1	1	1	1	1	1	1	1	1	0	1	-3,805497	273,66906	314,237517	0
15.01.2021	07:57:02	0	0	4,067398	2,30175	0,5256	-0,262	85,794	0	1012,14	6,3	8,5	8,3	1	1	1	1	1	1	1	1	1	0	1	-4,157858	273,609322	313,607549	0
15.01.2021	07:57:03	0	0	2,937583	2,2455	3,0312	-0,267	85,797	0	1012,1	6,2	8,5	8,2	1	1	1	1	1	1	1	1	1	0	1	-5,84919	273,514993	311,478239	0
15.01.2021	07:57:04	0	0	3,615487	2,28	2,3076	-0,27	85,786	0	1012,2	6,3	8,5	8,2	1	1	1	1	1	1	1	1	1	0	1	-2,536998	273,671979	315,519585	0
15.01.2021	07:57:05	0	0	3,050548	2,23425	1,9152	-0,275	85,786	0	1012,04	6,3	8,5	8,3	1	1	1	1	1	1	1	1	1	0	1	-3,453136	273,616597	314,34607	0
15.01.2021	07:57:06	0	0	2,711599	2,232	3,402	-0,268	85,767	0	1012,08	6,3	8,5	8,3	1	1	1	1	1	1	1	1	1	0	1	-1,338971	273,503416	315,934732	0
15.01.2021	07:57:07	0	0	3,276515	2,187	360	-0,265	85,801	0	1012,1	6,3	8,5	8,3	1	1	1	1	1	1	1	1	1	0	1	-7,188161	273,600595	310,536708	0
15.01.2021	07:57:08	0	0	3,276535	2,19525	360	-0,268	85,778	0	1011,94	6,3	8,5	8,2	1	1	1	1	1	1	1	1	1	0	1	-8,315715	273,664683	309,706951	0
15.01.2021	07:57:09	0	0	4,745326	2,169	6,0516	-0,267	85,791	0	1012,18	6,3	8,5	8,2	1	1	1	1	1	1	1	1	1	0	1	-2,466526	273,503416	314,807177	0
15.01.2021	07:57:10	0	0	2,711615	2,40825	5,2092	-0,275	85,786	0	1012,14	6,3	8,5	8,2	1	1	1	1	1	1	1	1	1	0	1	-4,862579	273,541069	312,585875	0
15.01.2021	07:57:11	0	0	3,389519	2,5515	357,4008	-0,276	85,797	0	1012,08	6,3	8,5	8,2	1	1	1	1	1	1	1	1	1	0	1	-5,778717	273,628243	312,074598	0
15.01.2021	07:57:12	0	0	3,954415	2,41575	4,0752	-0,27	85,797	0	1012,18	6,2	8,5	8,3	1	1	1	1	1	1	1	1	1	0	1	-4,651163	273,644268	313,276619	0
15.01.2021	07:57:13	0	0	2,372663	2,289	9,7524	-0,269	85,777	0	1012,12	6,3	8,5	8,2	1	1	1	1	1	1	1	1	1	0	1	-1,691332	273,623875	316,141688	0
15.01.2021	07:57:14	0	0	3,050567	2,22825	13,1616	-0,269	85,796	0	1012,02	6,3	8,3	8,2	1	1	1	1	1	1	1	1	1	0	1	-5,003524	273,514993	312,323905	0
15.01.2021	07:57:15	0	0	3,050567	2,28	9,8388	-0,268	85,813	0	1012,18	6,3	8,5	8,2	1	1	1	1	1	1	1	1	1	0	1	-2,536998	273,56718	315,032682	0
15.01.2021	07:57:16	0	0	3,050567	2,19825	11,196	-0,266	85,782	0	1012,1	6,3	8,5	8,2	1	1	1	1	1	1	1	1	1	0	1	-6,906272	273,66906	311,136742	0
15.01.2021	07:57:17	0	0	2,824599	2,1735	10,4508	-0,265	85,811	0	1012,16	6,3	8,5	8,2	1	1	1	1	1	1	1	1	1	0	1	-7,540521	273,510651	309,766755	0
15.01.2021	07:57:18	0	0	4,519358	2,406	25,416	-0,266	85,807	0	1012,18	6,3	8,5	8,2	1	1	1	1	1	1	1	1	1	0	1	-5,637773	273,561374	311,90495	0
15.01.2021	07:57:19	0	0	2,259679	2,5095	10,0692	-0,27	85,783	0	1012,12	6,2	8,5	8,2	1	1	1	1	1	1	1	1	1	0	1	-0,422833	273,499076	316,830733	0
15.01.2021	07:57:20	0	0	3,728448	2,63325	13,5468	-0,263	85,799	0	1012,16	6,3	8,5	8,3	1	1	1	1	1	1	1	1	1	0	1	-7,610994	273,610777	310,161172	0
15.01.2021	07:57:21	0	0	4,180381	2,64825	13,5504	-0,272	85,786	0	1011,92	6,3	8,5	8,3	1	1	1	1	1	1	1	1	1	0	1	-7,117689	273,666142	310,91176	0
15.01.2021	07:57:22	0	0	2,937583	2,586	9,0072	-0,268	85,795	0	1012,2	6,3	8,5	8,2	1	1	1	1	1	1	1	1	1	0	1	-6,412967	273,49763	310,833888	0
15.01.2021	07:57:23	0	0	4,971264	2,637	10,908	-0,268	85,788	0	1012,14	6,3	8,5	8,3	1	1	1	1	1	1	1	1	1	0	1	-11,134602	273,635525	306,752553	0
15.01.2021	07:57:24	0	0	3,389498	2,7165	10,4436	-0,264	85,815	0	1012,2	6,3	8,5	8,3	1	1	1	1	1	1	1	1	1	0	1	-7,329105	273,677818	310,754622	0
15.01.2021	07:57:25	0	0	2,259693	2,75025	356,616	-0,269	85,795	0	1012,1	6,3	8,5	8,1	1	1	1	1	1	1	1	1	1	0	1	-2,748414	273,628243	315,104901	0
15.01.2021	07:57:26	0	0	2,485647	2,81625	357,2568	-0,266	85,805	0	1012,1	6,3	8,5	8,2	1	1	1	1	1	1	1	1	1	0	1	-5,990134	273,532373	311,417956	0
15.01.2021	07:57:27	0	0	4,29339	2,99475	11,7108	-0,264	85,802	0	1012,22	6,3	8,5	8,2	1	1	1	1	1	1	1	1	1	0	1	-5,144468	273,667601	312,891763	0
15.01.2021	07:57:28	0	0	4,406374	3,138	7,8732	-0,268	85,791	0	1011,96	6,3	8,5	8,2	1	1	1	1	1	1	1	1	1	0	1	-0,98661	273,609322	316,778797	0
15.01.2021	07:57:29	0	0	3,276554	2,937	3,0024	-0,273	85,786	0	1011,84	6,3	8,5	8,1	1	1	1	1	1	1	1	1	1	0	1	-4,439746	273,660306	313,562577	0
15.01.2021	07:57:30	0	0	4,406348	2,72925	7,5024	-0,269	85,8	0	1012,18	6,3	8,5	8,3	1	1	1	1	1	1	1	1	1	0	1	-7,610994	273,596233	310,093615	0
15.01.2021	07:57:31	0	0	3,728471	2,6055	7,5132	-0,261	85,808	0	1012,1	6,3	8,5	8,2	1	1	1	1	1	1	1	1	1	0	1	-5,003524	273,685119	313,114149	0
15.01.2021	07:57:32	0	0	4,180406	2,631	5,22	-0,267	85,804	0	1012,16	6,3	8,5	8,2	1	1	1	1	1	1	1	1	1	0	1	-9,936575	273,509204	307,363986	0
15.01.2021	07:57:33	0	0	4,519331	2,589	9,7524	-0,265	85,793	0	1012,1	6,3	8,5	8,3	1	1	1	1	1	1	1	1	1	0	1	-4,369274	273,625331	313,47051	0
15.01.2021	07:57:34	0	0	4,180381	2,5665	13,6404	-0,269	85,801	0	1012,18	6,2	8,5	8,3	1	1	1	1	1	1	1	1	1	0	1	-3,312192	273,632612	314,561426	0
15.01.2021	07:57:35	0	0	2,598631	2,35575	13,9356	-0,262	85,793	0	1012,12	6,2	8,5	8,2	1	1	1	1	1	1	1	1	1	0	1	-10,288936	273,509204	307,011625	0
15.01.2021	07:57:36	0	0	4,29339	2,33925	14,2956	-0,264	85,807	0	1012,24	6,3	8,5	8,2	1	1	1	1	1	1	1	1	1	0	1	-7,117689	273,586059	310,539667	0
15.01.2021	07:57:37	0	0	3,050567	2,574	10,4616	-0,259	85,794	0	1012,16	6,3	8,5	8,2	1	1	1	1	1	1	1	1	1	0	1	-4,298802	273,50631	312,988328	0
15.01.2021	07:57:38	0	0	3,841454	2,68575	8,6796	-0,26	85,8	0	1012,24	6,3	8,5	8,2	1	1	1	1	1	1	1	1	1	0	1	-4,157858	273,523681	313,209891	0
15.01.2021	07:57:39	0	0	3,841454	2,559	4,8456	-0,263	85,802	0	1012,02	6,3	8,5	8,2	1	1	1	1	1	1	1	1	1	0	1	-4,933051	273,597687	312,77831	0
15.01.2021	07:57:40	0	0	4,519385	2,3265	17,6976	-0,265	85,789	0	1012,16	6,3	8,5	8,1	1	1	1	1	1	1	1	1	1	0	1	-7,892882	273,528027	309,495034	0
15.01.2021	07:57:41	0	0	3,050567	2,4	16,5852	-0,264	85,798	0	1012,1	6,3	8,5	8,2	1	1	1	1	1	1	1	1	1	0	1	-2,959831	273,600595	314,765038	0
15.01.2021	07:57:42	0	0	2,711599	2,47725	6,8184	-0,263	85,8	0	1012,42	6,3	8,5	8,3	1	1	1	1	1	1	1	1	1	0	1	-11,486963	273,666142	306,542486	0
15.01.2021	07:57:43	0	0	3,276515	2,51475	8,9964	-0,265	85,802	0	1012,1	6,3	8,5	8,3	1	1	1	1	1	1	1	1	1	0	1	-3,735025	273,570083	313,848137	0
15.01.2021	07:57:44	0	0	3,615487	2,598	7,8876	-0,261	85,809	0	1012,18	6,3	8,5	8,2	1	1	1	1	1	1	1	1	1	0	1	-5,073996	273,651556	312,887659	0
15.01.2021	07:57:45	0	0	4,406348	2,7525	4,8312	-0,259	85,79	0	1012,16	6,3	8,5	8,3	1	1	1	1	1	1	1	1	1	0	1	-6,765328	273,501969	310,501662	0
15.01.2021	07:57:46	0	0	3,728471	2,54175	15,4008	-0,262	85,789	0	1012,24	6,3	8,5	8,2	1	1	1	1	1	1	1	1	1	0	1	-6,412967	273,619508	311,399763	0
15.01.2021	07:57:47	0	0	2,824616	2,4195	12,8448	-0,271	85,795	0	1012,06	6,3	8,5	8,1	1	1	1	1	1	1	1	1	1	0	1	-9,795631	273,523681	307,572117	0
15.01.2021	07:57:48	0	0	3,615465	2,472	8,6148	-0,27	85,793	0	1012,08	6,3	8,5	8,3	1	1	1	1	1	1	1	1	1	0	1	-6,8358	273,638439	311,064895	0
15.01.2021	07:57:49	0	0	3,502503	2,46825	6,444	-0,262	85,773	0	1012,06	6,3	8,5	8,2	1	1	1	1	1	1	1	1	1	0	1	-6,8358	273,623875	310,99722	0
15.01.2021	07:57:50	0	0	4,632314	2,376	8,6112	-0,266	85,79	0	1012,18	6,3	8,5	8,3	1	1	1	1	1	1	1	1	1	0	1	-5,637773	273,674898	312,432381	0
15.01.2021	07:57:51	0	0	4,971264	2,316	12,0816	-0,262	85,791	0	1012,26	6,2	8,5	8,3	1	1	1	1	1	1	1	1	1	0	1	-9,725159	273,543968	307,736755	0
15.01.2021	07:57:52	0	0	4,067422	2,328	0,8748	-0,263	85,77	0	1012,14	6,3	8,5	8,2	1	1	1	1	1	1	1	1	1	0	1	-8,879493	273,532373	308,528598	0
15.01.2021	07:57:53	0	0	3,050548	2,313	9,7632	-0,261	85,791	0	1012,16	6,3	8,5	8,3	1	1	1	1	1	1	1	1	1	0	1	-7,540521	273,546868	309,934855	0
15.01.2021	07:57:54	0	0	2,485647	2,28675	7,4988	-0,263	85,802	0	1012,24	6,3	8,5	8,2	1	1	1	1	1	1	1	1	1	0	1	-4,510218	273,613686	313,275466	0
15.01.2021	07:57:55	0	0	4,519358	2,36325	4,5648	-0,257	85,802	0	1012,14	6,3	8,5	8,2	1	1	1	1	1	1	1	1	1	0	1	-4,087385	273,677818	313,996342	0
15.01.2021	07:57:56	0	0	5,084278	2,3715	359,8344	-0,263	85,812	0	1012,12	6,1	8,5	8,2	1	1	1	1	1	1	1	1	1	0	1	-8,033827	273,574439	309,569562	0
15.01.2021	07:57:57	0	0	3,276535	2,3865	356,2524	-0,261	85,796	0	1012,22	6,3	8,5	8,2	1	1	1	1	1	1	1	1	1	0	1	-4,369274	273,520785	312,985032	0
15.01.2021	07:57:58	0	0	3,502482	2,49	359,514	-0,265	85,779	0	1012,26	6,3	8,5	8,3	1	1	1	1	1	1	1	1	1	0	1	-7,329105	273,56718	310,240574	0
15.01.2021	07:57:59	0	0	4,745298	2,59725	357,2712	-0,266	85,795	0	1012,26	6,3	8,5	8,3	1	1	1	1	1	1	1	1	1	0	1	-2,60747	273,514993	314,719958	0
15.01.2021	07:58:00	0	0	4,971264	2,47125	8,2548	-0,266	85,785	0	1012,14	6,3	8,5	8,3	1	1	1	1	1	1	1	1	1	0	1	-5,426357	273,565728	312,136583	0
15.01.2021	07:58:01	0	0	3,276515	2,34675	14,6376	-0,263	85,793	0	1012,18	6,3	8,5	8,3	1	1	1	1	1	1	1	1	1	0	1	-5,426357	273,565728	312,136583	0
15.01.2021	07:58:02	0	0	3,276515	2,34675	14,6376	-0,263	85,793	0	1012,18	6,3	8,5	8,3	1	1	1	1	1	1	1	1	1	0	1	-4,792107	273,510651	312,51517	0
15.01.2021	07:58:03	0	0	3,050567	2,154	5,7528	-0,264	85,797	0	1012,24	6,3	8,5	8,2	1	1	1	1	1	1	1	1	1	0	1	-2,818887	273,545418	314,649758	0
15.01.2021	07:58:04	0	0	2,598615	2,09325	16,8588	-0,267	85,799	0	1012,18	6,3	8,5	8,3	1	1	1	1	1	1	1	1	1	0	1	-4,369274	273,660306	313,633049	0
15.01.2021	07:58:05	0	0	4,519358	2,06625	15,786	-0,263	85,789	0	1012,22	6,3	8,5	8,2	1	1	1	1	1	1	1	1	1	0	1	-9,866103	273,689501	308,271944	0
15.01.2021	07:58:06	0	0	3,276515	2,11275	16,4808	-0,267	85,8	0	1012,1	6,2	8,5	8,3	1	1	1	1	1	1	1	1	1	0	1	-7,610994	273,612231	310,167931	0
15.01.2021	07:58:07	0	0	4,519358	2,121	2,646	-0,264	85,793	0	1012,28	6,3	8,5	8,2	1	1	1	1	1	1	1	1	1	0	1	-2,959831	273,674898	315,110323	0
15.01.2021	07:58:08	0	0	2,9376	2,1105	9,378	-0,262	85,779	0	1011,96	6,3	8,5	8,1	1	1	1	1	1	1	1	1	1	0	1	-5,355884	273,683659	312,754998	0
15.01.2021	07:58:09	0	0	2,824582	2,00925	359,5392	-0,262	85,783	0	1012,08	6,3	8,5	8,3	1	1	1	1	1	1	1	1	1	0	1	-4,580691	273,580248	313,049676	0
15.01.2021	07:58:10	0	0	3,163532	1,99425	4,8348	-0,269	85,791	0	1012,1	6,3	8,5	8,3	1	1	1	1	1	1	1	1	1	0	1	-7,117689	273,50631	310,169442	0
15.01.2021	07:58:11	0	0	4,85831	2,0775	1,5588	-0,264	85,79	0	1011,94	6,3	8,5	8,2	1	1	1	1	1	1	1	1	1	0	1	-6,412967	273,604958	311,332168	0
15.01.2021	07:58:12	0	0	3,050548	2,0895	9,3564	-0,263	85,799	0	1012,02	6,3	8,5	8,3	1	1	1	1	1	1	1	1	1	0	1	-5,990134	273,513546	311,330577	0
15.01.2021	07:58:13	0	0	3,389498	2,019	2,2788	-0,261	85,806	0	1012,14	6,2	8,5	8,3	1	1	1	1	1	1	1	1	1	0	1	-6,553911	273,535271	310,867631	0
15.01.2021	07:58:14	0	0	4,971264	1,932	6,5304	-0,257	85,792	0	1012,02	6,3	8,5	8,3	1	1	1	1	1	1	1	1	1	0	1	-5,073996	273,613686	312,711689	0
15.01.2021	07:58:15	0	0	3,050567	1,9245	3,0384	-0,264	85,788	0	1012,38	6,3	8,5	8,2	1	1	1	1	1	1	1	1	1	0	1	-5,426357	273,660306	312,575967	0
15.01.2021	07:58:16	0	0	4,406348	2,0145	11,7252	-0,264	85,794	0	1012,14	6,3	8,5	8,3	1	1	1	1	1	1	1	1	1	0	1	-13,03735	273,620963	304,782142	0
15.01.2021	07:58:17	0	0	2,598615	2,109	0,8748	-0,261	85,797	0	1012,16	6,3	8,5	8,3	1	1	1	1	1	1	1	1	1	0	1	-1,198027	273,50631	316,089104	0
15.01.2021	07:58:18	0	0	3,954415	2,15475	352,6308	-0,262	85,791	0	1012,06	6,3	8,5	8,3	1	1	1	1	1	1	1	1	1	0	1	-0,98661	273,549768	316,50223	0
15.01.2021	07:58:19	0	0	3,502482	2,232	14,31	-0,256	85,781	0	1012,18	6,3	8,5	8,3	1	1	1	1	1	1	1	1	1	0	1	-9,795631	273,512098	307,518363	0
15.01.2021	07:58:20	0	0	2,598631	2,26125	356,5332	-0,262	85,794	0	1012,16	6,3	8,5	8,2	1	1	1	1	1	1	1	1	1	0	1	-9,302326	273,570083	308,280836	0
15.01.2021	07:58:21	0	0	4,745326	2,56575	4,842	-0,267	85,787	0	1011,98	6,3	8,5	8,2	1	1	1	1	1	1	1	1	1	0	1	-7,82241	273,677818	310,261317	0
15.01.2021	07:58:22	0	0	4,406374	2,8245	5,778	-0,261	85,788	0	1012,14	6,3	8,4	8,2	1	1	1	1	1	1	1	1	1	0	1	-7,610994	273,530924	309,790371	0
15.01.2021	07:58:23	0	0	3,954415	3,09975	7,8768	-0,266	85,785	0	1012,06	6,3	8,5	8,3	1	1	1	1	1	1	1	1	1	0	1	-6,20155	273,645725	311,733005	0
15.01.2021	07:58:24	0	0	3,050585	3,23775	12,1176	-0,259	85,797	0	1012,26	6,2	8,5	8,1	1	1	1	1	1	1	1	1	1	0	1	-1,268499	273,682198	316,835594	0
15.01.2021	07:58:25	0	0	4,406374	3,255	6,4476	-0,265	85,777	0	1012,08	6,3	8,5	8,2	1	1	1	1	1	1	1	1	1	0	1	-5,144468	273,607867	312,614181	0
15.01.2021	07:58:26	0	0	2,824599	3,2265	11,7288	-0,259	85,778	0	1012,02	6,3	8,5	8,2	1	1	1	1	1	1	1	1	1	0	1	-5,285412	273,682198	312,81868	0
15.01.2021	07:58:27	0	0	4,180381	3,2475	14,31	-0,258	85,801	0	1012,12	6,3	8,5	8,3	1	1	1	1	1	1	1	1	1	0	1	-10,42988	273,619508	307,382849	0
15.01.2021	07:58:28	0	0	4,180381	3,23475	8,622	-0,26	85,791	0	1011,96	6,3	8,5	8,3	1	1	1	1	1	1	1	1	1	0	1	-5,144468	273,682198	312,959625	0
15.01.2021	07:58:29	0	0	5,310214	3,14475	9,45	-0,256	85,794	0	1012,1	6,3	8,5	8,3	1	1	1	1	1	1	1	1	1	0	1	-6,412967	273,644268	311,514815	0
15.01.2021	07:58:30	0	0	3,841431	3,01875	5,2128	-0,259	85,792	0	1012,24	6,3	8,5	8,3	1	1	1	1	1	1	1	1	1	0	1	-8,668076	273,530924	308,733289	0
15.01.2021	07:58:31	0	0	4,067398	3,12225	8,2584	-0,266	85,788	0	1012,1	6,3	8,4	8,3	1	1	1	1	1	1	1	1	1	0	1	-5,567301	273,648641	312,380803	0
15.01.2021	07:58:32	0	0	2,824582	3,348	7,524	-0,261	85,793	0	1012,2	6,3	8,5	8,3	1	1	1	1	1	1	1	1	1	0	1	-5,567301	273,513546	311,75341	0
15.01.2021	07:58:33	0	0	3,050567	3,43875	5,202	-0,263	85,783	0	1012,04	6,3	8,5	8,2	1	1	1	1	1	1	1	1	1	0	1	-6,765328	273,542518	310,689856	0
15.01.2021	07:58:34	0	0	4,067422	3,4845	3,7764	-0,259	85,792	0	1012,24	6,3	8,4	8,2	1	1	1	1	1	1	1	1	1	0	1	-3,875969	273,533822	313,538847	0
15.01.2021	07:58:35	0	0	4,632314	3,3735	357,5988	-0,259	85,796	0	1012,08	6,3	8,5	8,3	1	1	1	1	1	1	1	1	1	0	1	-6,060606	273,528027	311,32731	0
15.01.2021	07:58:36	0	0	3,389519	3,1695	360	-0,258	85,791	0	1012,1	6,3	8,4	8,2	1	1	1	1	1	1	1	1	1	0	1	-6,20155	273,597687	311,509811	0
15.01.2021	07:58:37	0	0	4,067398	2,93775	4,0932	-0,257	85,791	0	1012,16	6,3	8,5	8,3	1	1	1	1	1	1	1	1	1	0	1	-6,412967	273,519337	310,934619	0
15.01.2021	07:58:38	0	0	4,180406	2,8695	6,8292	-0,265	85,777	0	1011,98	6,3	8,5	8,2	1	1	1	1	1	1	1	1	1	0	1	-4,933051	273,619508	312,879678	0
15.01.2021	07:58:39	0	0	4,745326	2,78325	12,852	-0,259	85,801	0	1012,18	6,3	8,5	8,2	1	1	1	1	1	1	1	1	1	0	1	-5,073996	273,520785	312,28031	0
15.01.2021	07:58:40	0	0	3,050567	2,6595	10,8216	-0,255	85,799	0	1012,18	6,3	8,5	8,2	1	1	1	1	1	1	1	1	1	0	1	-4,510218	273,638439	313,390476	0
15.01.2021	07:58:41	0	0	3,276535	2,60775	360	-0,256	85,782	0	1012,2	6,3	8,4	8,2	1	1	1	1	1	1	1	1	1	0	1	-3,312192	273,664683	314,710474	0
15.01.2021	07:58:42	0	0	4,745326	2,5455	357,2388	-0,254	85,792	0	1012,24	6,3	8,5	8,2	1	1	1	1	1	1	1	1	1	0	1	-6,272023	273,523681	311,095726	0
15.01.2021	07:58:43	0	0	5,084247	2,56575	0	-0,263	85,802	0	1012,1	6,3	8,5	8,3	1	1	1	1	1	1	1	1	1	0	1	-3,523608	273,583154	314,120252	0
15.01.2021	07:58:44	0	0	4,519358	2,544	6,8112	-0,266	85,791	0	1012,02	6,3	8,5	8,2	1	1	1	1	1	1	1	1	1	0	1	-4,580691	273,517889	312,760175	0
15.01.2021	07:58:45	0	0	3,954438	2,32875	355,8132	-0,267	85,79	0	1012,16	6,3	8,5	8,2	1	1	1	1	1	1	1	1	1	0	1	-6,412967	273,606412	311,338925	0
15.01.2021	07:58:46	0	0	4,745298	2,08725	357,5196	-0,257	85,797	0	1012,22	6,3	8,5	8,3	1	1	1	1	1	1	1	1	1	0	1	-2,466526	273,690962	315,678314	0
15.01.2021	07:58:47	0	0	4,745326	2,1375	3,87	-0,262	85,813	0	1012,28	6,2	8,5	8,2	1	1	1	1	1	1	1	1	1	0	1	-2,748414	273,628243	315,104901	0
15.01.2021	07:58:48	0	0	3,841454	2,23125	9,7632	-0,263	85,798	0	1012,16	6,3	8,5	8,2	1	1	1	1	1	1	1	1	1	0	1	-1,62086	273,648641	316,327244	0
15.01.2021	07:58:49	0	0	3,050567	2,35275	352,8792	-0,263	85,794	0	1012,16	6,3	8,5	8,2	1	1	1	1	1	1	1	1	1	0	1	-0,775194	273,55557	316,740583	0
15.01.2021	07:58:50	0	0	4,971294	2,529	9,0072	-0,254	85,801	0	1012,22	6,3	8,5	8,2	1	1	1	1	1	1	1	1	1	0	1	-4,298802	273,543968	313,163112	0
15.01.2021	07:58:51	0	0	3,954438	2,73525	6,9228	-0,255	85,804	0	1012,08	6,3	8,5	8,2	1	1	1	1	1	1	1	1	1	0	1	-4,157858	273,523681	313,209891	0
15.01.2021	07:58:52	0	0	3,502482	2,7015	1,548	-0,259	85,805	0	1012,08	6,3	8,5	8,3	1	1	1	1	1	1	1	1	1	0	1	-4,862579	273,606412	312,889313	0
15.01.2021	07:58:53	0	0	4,519358	2,6055	13,5504	-0,255	85,816	0	1012,24	6,3	8,5	8,2	1	1	1	1	1	1	1	1	1	0	1	-7,329105	273,666142	310,700343	0
15.01.2021	07:58:54	0	0	4,406374	2,3895	13,914	-0,26	85,807	0	1012,2	6,3	8,5	8,2	1	1	1	1	1	1	1	1	1	0	1	-4,721635	273,532373	312,686455	0
15.01.2021	07:58:55	0	0	4,293365	2,36475	16,1136	-0,258	85,801	0	1012,26	6,3	8,5	8,3	1	1	1	1	1	1	1	1	1	0	1	-7,610994	273,577343	310,005883	0
15.01.2021	07:58:56	0	0	3,276535	2,63025	11,736	-0,251	85,823	0	1012,22	6,3	8,5	8,2	1	1	1	1	1	1	1	1	1	0	1	-7,047216	273,682198	311,056876	0
15.01.2021	07:58:57	0	0	3,163551	2,70225	9,7344	-0,264	85,812	0	1012,18	6,3	8,5	8,2	1	1	1	1	1	1	1	1	1	0	1	-6,8358	273,562825	310,713662	0
15.01.2021	07:58:58	0	0	2,824599	2,49975	16,4844	-0,255	85,811	0	1012,16	6,3	8,5	8,2	1	1	1	1	1	1	1	1	1	0	1	-7,681466	273,607867	310,077183	0
15.01.2021	07:58:59	0	0	2,711615	2,28075	352,8684	-0,257	85,822	0	1012,22	6,3	8,4	8,2	1	1	1	1	1	1	1	1	1	0	1	-9,513742	273,695345	308,651479	0
15.01.2021	07:59:00	0	0	2,9376	2,3145	356,9616	-0,256	85,816	0	1012,26	6,3	8,5	8,1	1	1	1	1	1	1	1	1	1	0	1	-4,862579	273,529475	312,532061	0
15.01.2021	07:59:01	0	0	2,9376	2,3145	356,9616	-0,256	85,816	0	1012,26	6,3	8,5	8,1	1	1	1	1	1	1	1	1	1	0	1	-4,862579	273,529475	312,532061	0
15.01.2021	07:59:02	0	0	2,937583	2,31975	358,4772	-0,261	85,807	0	1012,14	6,3	8,4	8,2	1	1	1	1	1	1	1	1	1	0	1	-7,329105	273,572987	310,26754	0
15.01.2021	07:59:03	0	0	2,598631	2,394	2,6388	-0,26	85,817	0	1012,14	6,2	8,5	8,2	1	1	1	1	1	1	1	1	1	0	1	-4,933051	273,494737	312,300383	0
15.01.2021	07:59:04	0	0	2,485647	2,568	0,4788	-0,261	85,819	0	1012,2	6,3	8,5	8,2	1	1	1	1	1	1	1	1	1	0	1	-4,369274	273,542518	313,08591	0
15.01.2021	07:59:05	0	0	2,372663	2,64225	20,268	-0,258	85,827	0	1012,32	6,3	8,5	8,2	1	1	1	1	1	1	1	1	1	0	1	-9,725159	273,574439	307,87823	0
15.01.2021	07:59:06	0	0	4,858281	2,5725	11,1996	-0,257	85,818	0	1012,2	6,3	8,5	8,3	1	1	1	1	1	1	1	1	1	0	1	-3,24172	273,693884	314,916707	0
15.01.2021	07:59:07	0	0	2,824599	2,63925	10,4364	-0,26	85,833	0	1012,14	6,3	8,5	8,2	1	1	1	1	1	1	1	1	1	0	1	-4,087385	273,619508	313,725344	0
15.01.2021	07:59:08	0	0	2,598631	2,6085	9,3744	-0,256	85,826	0	1012,22	6,3	8,5	8,2	1	1	1	1	1	1	1	1	1	0	1	-6,553911	273,528027	310,834005	0
15.01.2021	07:59:09	0	0	4,971294	2,493	4,086	-0,26	85,83	0	1012,18	6,3	8,5	8,2	1	1	1	1	1	1	1	1	1	0	1	-5,990134	273,648641	311,95797	0
15.01.2021	07:59:10	0	0	4,971294	2,38725	8,9964	-0,254	85,826	0	1012,26	6,3	8,5	8,2	1	1	1	1	1	1	1	1	1	0	1	-11,980268	273,535271	305,441275	0
15.01.2021	07:59:11	0	0	2,937583	2,28975	20,646	-0,253	85,832	0	1012,24	6,3	8,5	8,2	1	1	1	1	1	1	1	1	1	0	1	-12,191684	273,68804	305,93957	0
15.01.2021	07:59:12	0	0	3,728471	2,32725	1,1844	-0,257	85,818	0	1012,22	6,3	8,4	8,2	1	1	1	1	1	1	1	1	1	0	1	-4,510218	273,591872	313,174135	0
15.01.2021	07:59:13	0	0	3,728471	2,508	9,6876	-0,253	85,824	0	1012,28	6,3	8,5	8,2	1	1	1	1	1	1	1	1	1	0	1	-4,862579	273,685119	313,255093	0
15.01.2021	07:59:14	0	0	5,310246	2,73075	14,6376	-0,258	85,836	0	1012,1	6,3	8,5	8,2	1	1	1	1	1	1	1	1	1	0	1	-4,016913	273,655931	313,965073	0
15.01.2021	07:59:15	0	0	2,937583	2,8065	2,6496	-0,257	85,815	0	1012,18	6,3	8,5	8,2	1	1	1	1	1	1	1	1	1	0	1	-4,933051	273,628243	312,920264	0
15.01.2021	07:59:16	0	0	3,841431	2,79525	3,0204	-0,256	85,811	0	1012,22	6,2	8,5	8,3	1	1	1	1	1	1	1	1	1	0	1	-6,906272	273,674898	311,163882	0
15.01.2021	07:59:17	0	0	3,502503	2,68125	1,1772	-0,257	85,819	0	1012,04	6,3	8,4	8,2	1	1	1	1	1	1	1	1	1	0	1	-3,59408	273,625331	314,245704	0
15.01.2021	07:59:18	0	0	4,180406	2,6025	7,884	-0,258	85,816	0	1012,12	6,3	8,4	8,2	1	1	1	1	1	1	1	1	1	0	1	-3,875969	273,676358	314,200971	0
15.01.2021	07:59:19	0	0	2,824599	2,64825	4,4748	-0,259	85,826	0	1012,3	6,3	8,5	8,2	1	1	1	1	1	1	1	1	1	0	1	-4,22833	273,591872	313,456023	0
15.01.2021	07:59:20	0	0	3,954438	2,9265	360	-0,26	85,836	0	1012,06	6,3	8,4	8,2	1	1	1	1	1	1	1	1	1	0	1	-2,536998	273,698268	315,641814	0
15.01.2021	07:59:21	0	0	2,824599	3,1395	359,8416	-0,255	85,82	0	1012,2	6,2	8,5	8,2	1	1	1	1	1	1	1	1	1	0	1	-3,24172	273,571535	314,348184	0
15.01.2021	07:59:22	0	0	4,745326	3,17025	355,8708	-0,256	85,831	0	1012,32	6,3	8,5	8,2	1	1	1	1	1	1	1	1	1	0	1	-7,82241	273,677818	310,261317	0
15.01.2021	07:59:23	0	0	3,163551	3,17625	357,9552	-0,258	85,827	0	1012,1	6,2	8,5	8,2	1	1	1	1	1	1	1	1	1	0	1	-5,778717	273,620963	312,040775	0
15.01.2021	07:59:24	0	0	4,180406	3,13425	2,9952	-0,257	85,826	0	1012,16	6,3	8,4	8,2	1	1	1	1	1	1	1	1	1	0	1	-7,117689	273,661765	310,891415	0
15.01.2021	07:59:25	0	0	3,615487	3,10425	2,3004	-0,256	85,827	0	1012,2	6,3	8,4	8,2	1	1	1	1	1	1	1	1	1	0	1	-1,127555	273,615142	316,66489	0
15.01.2021	07:59:26	0	0	3,615487	3,00525	355,4604	-0,259	85,812	0	1012,1	6,3	8,5	8,2	1	1	1	1	1	1	1	1	1	0	1	-5,567301	273,679278	312,523214	0
15.01.2021	07:59:27	0	0	4,85831	2,892	0,126	-0,251	85,834	0	1012,2	6,3	8,5	8,2	1	1	1	1	1	1	1	1	1	0	1	-2,677942	273,622419	315,148314	0
15.01.2021	07:59:28	0	0	2,937583	2,757	351,0432	-0,257	85,832	0	1012,3	6,3	8,4	8,2	1	1	1	1	1	1	1	1	1	0	1	-4,933051	273,671979	313,123531	0
15.01.2021	07:59:29	0	0	4,180406	2,838	2,2932	-0,257	85,824	0	1012,02	6,3	8,5	8,2	1	1	1	1	1	1	1	1	1	0	1	-4,721635	273,653014	313,246797	0
15.01.2021	07:59:30	0	0	4,519331	3,03825	5,2128	-0,256	85,837	0	1012,22	6,3	8,4	8,3	1	1	1	1	1	1	1	1	1	0	1	-3,946441	273,516441	313,387706	0
15.01.2021	07:59:31	0	0	4,519358	3,2025	7,1136	-0,257	85,833	0	1012,22	6,3	8,4	8,2	1	1	1	1	1	1	1	1	1	0	1	-11,346018	273,557021	306,176494	0
15.01.2021	07:59:32	0	0	3,502503	3,40125	4,4748	-0,255	85,84	0	1012,26	6,3	8,5	8,2	1	1	1	1	1	1	1	1	1	0	1	-7,329105	273,575891	310,281027	0
15.01.2021	07:59:33	0	0	3,276515	3,42675	3,0276	-0,253	85,84	0	1012,24	6,3	8,5	8,3	1	1	1	1	1	1	1	1	1	0	1	-5,355884	273,535271	312,065658	0
15.01.2021	07:59:34	0	0	4,29339	3,17325	11,1924	-0,256	85,84	0	1012,28	6,2	8,5	8,2	1	1	1	1	1	1	1	1	1	0	1	-3,875969	273,641353	314,038268	0
15.01.2021	07:59:35	0	0	2,711615	3,09825	10,4436	-0,255	85,848	0	1012,2	6,3	8,5	8,2	1	1	1	1	1	1	1	1	1	0	1	-3,664553	273,546868	313,810823	0
15.01.2021	07:59:36	0	0	2,824582	2,9385	20,2752	-0,245	85,84	0	1012,22	6,3	8,5	8,3	1	1	1	1	1	1	1	1	1	0	1	-6,20155	273,530924	311,199815	0
15.01.2021	07:59:37	0	0	3,276515	3,093	3,7728	-0,255	85,834	0	1011,96	6,3	8,4	8,3	1	1	1	1	1	1	1	1	1	0	1	-2,043693	273,424007	314,861704	0
15.01.2021	07:59:38	0	0	3,050567	3,20475	25,7976	-0,254	85,839	0	1012,14	6,3	8,5	8,2	1	1	1	1	1	1	1	1	1	0	1	-7,329105	273,597687	310,382256	0
15.01.2021	07:59:39	0	0	2,824582	3,087	24,7176	-0,251	85,835	0	1012,2	6,3	8,5	8,3	1	1	1	1	1	1	1	1	1	0	1	-8,45666	273,660306	309,545664	0
15.01.2021	07:59:40	0	0	4,519358	3,03075	36,9108	-0,254	85,84	0	1012,22	6,3	8,4	8,2	1	1	1	1	1	1	1	1	1	0	1	-13,248767	273,654473	304,726442	0
15.01.2021	07:59:41	0	0	4,745326	3,162	35,4816	-0,258	85,85	0	1012,28	6,2	8,4	8,2	1	1	1	1	1	1	1	1	1	0	1	-6,694856	273,517889	310,64601	0
15.01.2021	07:59:42	0	0	5,084247	2,92575	25,3872	-0,252	85,835	0	1012,24	6,3	8,5	8,3	1	1	1	1	1	1	1	1	1	0	1	-4,933051	273,660306	313,069272	0
15.01.2021	07:59:43	0	0	4,971294	2,48925	20,6424	-0,254	85,838	0	1012,12	6,3	8,5	8,2	1	1	1	1	1	1	1	1	1	0	1	-7,610994	273,645725	310,323562	0
15.01.2021	07:59:44	0	0	4,29339	2,196	17,694	-0,255	85,836	0	1012,18	6,2	8,4	8,2	1	1	1	1	1	1	1	1	1	0	1	-4,298802	273,680738	313,798502	0
15.01.2021	07:59:45	0	0	4,519358	2,08125	360	-0,254	85,849	0	1012,2	6,3	8,4	8,2	1	1	1	1	1	1	1	1	1	0	1	-2,255109	273,562825	315,294352	0
15.01.2021	07:59:46	0	0	4,519358	2,08725	10,17	-0,26	85,837	0	1012,18	6,2	8,5	8,2	1	1	1	1	1	1	1	1	1	0	1	-5,919662	273,528027	311,468255	0
15.01.2021	07:59:47	0	0	4,180406	2,41875	1,5624	-0,249	85,847	0	1012,22	6,2	8,5	8,2	1	1	1	1	1	1	1	1	1	0	1	-5,355884	273,609322	312,409523	0
15.01.2021	07:59:48	0	0	4,29339	2,62725	17,7084	-0,26	85,832	0	1012,2	6,2	8,5	8,2	1	1	1	1	1	1	1	1	1	0	1	-5,778717	273,533822	311,636099	0
15.01.2021	07:59:49	0	0	4,180406	2,65125	1,1808	-0,253	85,848	0	1012,1	6,2	8,4	8,2	1	1	1	1	1	1	1	1	1	0	1	-5,355884	273,653014	312,612547	0
15.01.2021	07:59:50	0	0	3,389519	2,6175	0,8784	-0,256	85,834	0	1012,22	6,3	8,5	8,2	1	1	1	1	1	1	1	1	1	0	1	-5,778717	273,559923	311,757268	0
15.01.2021	07:59:51	0	0	4,406348	2,70675	3,7692	-0,263	85,835	0	1012,26	6,2	8,5	8,3	1	1	1	1	1	1	1	1	1	0	1	-3,030303	273,676358	315,046637	0
15.01.2021	07:59:52	0	0	3,050567	2,7	2,3004	-0,253	85,861	0	1012,26	6,3	8,4	8,2	1	1	1	1	1	1	1	1	1	0	1	-4,22833	273,512098	313,085663	0
15.01.2021	07:59:53	0	0	4,745298	2,6865	7,8804	-0,254	85,858	0	1012,06	6,3	8,4	8,3	1	1	1	1	1	1	1	1	1	0	1	-6,272023	273,552669	311,230285	0
15.01.2021	07:59:54	0	0	4,745326	2,63175	12,132	-0,254	85,834	0	1012,1	6,2	8,4	8,2	1	1	1	1	1	1	1	1	1	0	1	-3,59408	273,551219	313,901493	0
15.01.2021	07:59:55	0	0	4,745326	2,5095	15,4044	-0,249	85,859	0	1012,26	6,3	8,5	8,2	1	1	1	1	1	1	1	1	1	0	1	-5,426357	273,677818	312,657371	0
15.01.2021	07:59:56	0	0	3,276515	2,48775	11,7144	-0,257	85,851	0	1012,04	6,3	8,4	8,3	1	1	1	1	1	1	1	1	1	0	1	-6,272023	273,657389	311,716742	0
15.01.2021	07:59:57	0	0	3,502503	2,40825	16,0884	-0,253	85,841	0	1012,24	6,3	8,5	8,2	1	1	1	1	1	1	1	1	1	0	1	-4,439746	273,693884	313,71868	0
15.01.2021	07:59:58	0	0	3,615487	2,2845	11,196	-0,252	85,857	0	1012,1	6,3	8,5	8,2	1	1	1	1	1	1	1	1	1	0	1	-5,003524	273,631156	312,863326	0
15.01.2021	07:59:59	0	0	2,824599	2,30325	12,4776	-0,255	85,856	0	1012,18	6,3	8,5	8,2	1	1	1	1	1	1	1	1	1	0	1	-5,144468	273,701191	313,047938	0
15.01.2021	08:00:00	0	0	4,745326	2,46975	11,7972	-0,257	85,852	0	1012,1	6,2	8,5	8,2	1	1	1	1	1	1	1	1	1	0	1	-4,933051	273,701191	313,259354	0
15.01.2021	08:00:01	0	0	4,745326	2,46975	11,7972	-0,257	85,852	0	1012,1	6,2	8,5	8,2	1	1	1	1	1	1	1	1	1	0	1	-4,933051	273,701191	313,259354	0
15.01.2021	08:00:02	0	0	3,389519	2,44875	20,2824	-0,25	85,856	0	1011,96	6,3	8,4	8,2	1	1	1	1	1	1	1	1	1	0	1	-6,20155	273,535271	311,219992	0
15.01.2021	08:00:03	0	0	4,406348	2,40975	31,7772	-0,25	85,9	0	1012,64	6,3	8,4	8,3	1	1	1	1	1	1	1	1	1	0	1	-5,84919	273,542518	311,605994	0
15.01.2021	08:00:04	0	0	3,389519	2,382	40,9932	-0,253	85,877	0	1012,3	6,3	8,4	8,2	1	1	1	1	1	1	1	1	1	0	1	-8,597604	273,519337	308,749982	0
15.01.2021	08:00:05	0	0	5,084278	2,4165	38,1564	-0,25	85,868	0	1012,22	6,2	8,5	8,2	1	1	1	1	1	1	1	1	1	0	1	-8,104299	273,590419	309,573304	0
15.01.2021	08:00:06	0	0	3,728471	2,27625	13,1652	-0,248	85,855	0	1012,2	6,2	8,4	8,2	1	1	1	1	1	1	1	1	1	0	1	-8,174771	273,526578	309,206422	0
15.01.2021	08:00:07	0	0	2,485647	2,40525	24,7428	-0,25	85,869	0	1012,12	6,3	8,5	8,2	1	1	1	1	1	1	1	1	1	0	1	-5,496829	273,549768	311,992012	0
15.01.2021	08:00:08	0	0	3,502503	2,4075	10,8288	-0,245	85,864	0	1012,08	6,3	8,5	8,2	1	1	1	1	1	1	1	1	1	0	1	-6,976744	273,638439	310,923951	0
15.01.2021	08:00:09	0	0	3,276535	2,3145	0,126	-0,251	85,877	0	1012,06	6,2	8,4	8,2	1	1	1	1	1	1	1	1	1	0	1	-4,510218	273,517889	312,830647	0
15.01.2021	08:00:10	0	0	4,632342	2,28075	348,3216	-0,252	85,859	0	1012,16	6,3	8,4	8,2	1	1	1	1	1	1	1	1	1	0	1	-1,832276	273,676358	316,244664	0
15.01.2021	08:00:11	0	0	4,745326	2,2065	351,0288	-0,252	85,862	0	1012,22	6,3	8,4	8,2	1	1	1	1	1	1	1	1	1	0	1	-7,399577	273,641353	310,51466	0
15.01.2021	08:00:12	0	0	4,406374	2,29275	337,23	-0,26	85,865	0	1012,16	6,2	8,4	8,2	1	1	1	1	1	1	1	1	1	0	1	-5,355884	273,682198	312,748208	0
15.01.2021	08:00:13	0	0	4,519358	2,7915	356,5332	-0,253	85,864	0	1012,2	6,2	8,4	8,2	1	1	1	1	1	1	1	1	1	0	1	-4,510218	273,651556	313,451437	0
15.01.2021	08:00:14	0	0	2,372663	2,74575	356,5872	-0,258	85,862	0	1012,08	6,3	8,5	8,2	1	1	1	1	1	1	1	1	1	0	1	-5,426357	273,698268	312,752456	0
15.01.2021	08:00:15	0	0	2,711615	2,3205	26,8992	-0,254	85,868	0	1012,2	6,2	8,4	8,2	1	1	1	1	1	1	1	1	1	0	1	-2,325581	273,55557	315,190196	0
15.01.2021	08:00:16	0	0	3,163551	2,04975	25,0128	-0,249	85,869	0	1012,02	6,3	8,4	8,2	1	1	1	1	1	1	1	1	1	0	1	-6,483439	273,663224	311,532446	0
15.01.2021	08:00:17	0	0	4,180406	2,00025	11,196	-0,254	85,871	0	1012	6,2	8,4	8,2	1	1	1	1	1	1	1	1	1	0	1	-2,889359	273,53817	314,545638	0
15.01.2021	08:00:18	0	0	3,954438	2,14425	18,072	-0,258	85,857	0	1012,22	6,3	8,4	8,2	1	1	1	1	1	1	1	1	1	0	1	-3,735025	273,657389	314,25374	0
15.01.2021	08:00:19	0	0	4,180406	2,307	24,732	-0,256	85,881	0	1012,04	6,2	8,4	8,2	1	1	1	1	1	1	1	1	1	0	1	-5,567301	273,552669	311,935007	0
15.01.2021	08:00:20	0	0	3,276535	2,32125	23,9832	-0,257	85,87	0	1012,22	6,2	8,4	8,2	1	1	1	1	1	1	1	1	1	0	1	-4,862579	273,519337	312,485006	0
15.01.2021	08:00:21	0	0	4,067422	2,253	28,7208	-0,251	85,873	0	1012,16	6,3	8,4	8,2	1	1	1	1	1	1	1	1	1	0	1	-4,369274	273,679278	313,721241	0
15.01.2021	08:00:22	0	0	3,502503	2,0655	12,8664	-0,247	85,871	0	1012,2	6,2	8,4	8,2	1	1	1	1	1	1	1	1	1	0	1	-5,708245	273,613686	312,077439	0
15.01.2021	08:00:23	0	0	3,728471	2,05725	15,0336	-0,245	85,884	0	1012,32	6,2	8,4	8,2	1	1	1	1	1	1	1	1	1	0	1	-2,748414	273,512098	314,565579	0
15.01.2021	08:00:24	0	0	2,259679	2,139	5,688	-0,255	85,871	0	1012,26	6,2	8,4	8,2	1	1	1	1	1	1	1	1	1	0	1	-2,889359	273,620963	314,930134	0
15.01.2021	08:00:25	0	0	4,067422	2,2185	1,9224	-0,253	85,876	0	1012,22	6,2	8,4	8,2	1	1	1	1	1	1	1	1	1	0	1	-4,016913	273,526578	313,36428	0
15.01.2021	08:00:26	0	0	2,598631	2,24325	3,0312	-0,252	85,857	0	1012,26	6,2	8,4	8,2	1	1	1	1	1	1	1	1	1	0	1	-2,043693	273,648641	315,904411	0
15.01.2021	08:00:27	0	0	5,084278	2,196	348,3072	-0,251	85,868	0	1012,22	6,2	8,4	8,2	1	1	1	1	1	1	1	1	1	0	1	-6,342495	273,622419	311,483761	0
15.01.2021	08:00:28	0	0	5,084278	2,178	355,0752	-0,253	85,881	0	1012,22	6,2	8,4	8,2	1	1	1	1	1	1	1	1	1	0	1	-3,735025	273,689501	314,403022	0
15.01.2021	08:00:29	0	0	2,824582	2,2515	348,2892	-0,248	85,879	0	1012,28	6,2	8,4	8,3	1	1	1	1	1	1	1	1	1	0	1	-4,721635	273,673438	313,341733	0
15.01.2021	08:00:30	0	0	3,276535	2,301	3,7836	-0,251	85,86	0	1012,14	6,2	8,4	8,2	1	1	1	1	1	1	1	1	1	0	1	-1,761804	273,558472	315,767445	0
15.01.2021	08:00:31	0	0	4,29339	2,27325	359,4492	-0,255	85,878	0	1012,18	6,2	8,5	8,2	1	1	1	1	1	1	1	1	1	0	1	-7,258633	273,530924	310,142732	0
15.01.2021	08:00:32	0	0	4,632342	2,2875	350,1756	-0,25	85,86	0	1012,14	6,2	8,4	8,2	1	1	1	1	1	1	1	1	1	0	1	-5,426357	273,603503	312,312023	0
15.01.2021	08:00:33	0	0	4,519358	2,5125	360	-0,252	85,875	0	1012,24	6,3	8,4	8,2	1	1	1	1	1	1	1	1	1	0	1	-5,84919	273,696807	312,322827	0
15.01.2021	08:00:34	0	0	3,050567	2,733	353,9268	-0,254	85,861	0	1012,02	6,2	8,4	8,2	1	1	1	1	1	1	1	1	1	0	1	-4,157858	273,636982	313,736067	0
15.01.2021	08:00:35	0	0	3,728471	2,7765	0,1188	-0,25	85,881	0	1012,18	6,3	8,4	8,2	1	1	1	1	1	1	1	1	1	0	1	-3,805497	273,647183	314,135833	0
15.01.2021	08:00:36	0	0	2,485647	2,7825	360	-0,255	85,863	0	1012,16	6,2	8,4	8,2	1	1	1	1	1	1	1	1	1	0	1	-6,553911	273,696807	311,618105	0
15.01.2021	08:00:37	0	0	4,29339	2,8725	16,9308	-0,252	85,871	0	1012,06	6,2	8,4	8,2	1	1	1	1	1	1	1	1	1	0	1	-0,845666	273,574439	316,757723	0
15.01.2021	08:00:38	0	0	2,259679	2,75925	10,4508	-0,255	85,878	0	1012,1	6,2	8,4	8,2	1	1	1	1	1	1	1	1	1	0	1	-7,470049	273,529475	309,924591	0
15.01.2021	08:00:39	0	0	3,502503	2,5425	17,6832	-0,255	85,867	0	1012,24	6,2	8,4	8,2	1	1	1	1	1	1	1	1	1	0	1	-0,563777	273,597687	317,147584	0
15.01.2021	08:00:40	0	0	4,180406	2,523	32,5008	-0,247	85,881	0	1012,18	6,2	8,5	8,2	1	1	1	1	1	1	1	1	1	0	1	-3,24172	273,69973	314,943889	0
15.01.2021	08:00:41	0	0	2,711615	2,535	20,6352	-0,25	85,88	0	1012,28	6,3	8,4	8,2	1	1	1	1	1	1	1	1	1	0	1	-6,060606	273,612231	311,718318	0
15.01.2021	08:00:42	0	0	2,937583	2,35575	18,4608	-0,252	85,882	0	1012,22	6,3	8,5	8,2	1	1	1	1	1	1	1	1	1	0	1	-7,188161	273,702653	311,011043	0
15.01.2021	08:00:43	0	0	2,937583	2,16525	21,0168	-0,247	85,893	0	1012,18	6,2	8,4	8,2	1	1	1	1	1	1	1	1	1	0	1	-7,751938	273,647183	310,189391	0
15.01.2021	08:00:44	0	0	3,502503	2,046	21,3804	-0,246	85,897	0	1012,24	6,2	8,4	8,2	1	1	1	1	1	1	1	1	1	0	1	-7,610994	273,636982	310,282931	0
15.01.2021	08:00:45	0	0	2,937583	2,07675	27,27	-0,253	85,89	0	1012,2	6,2	8,4	8,2	1	1	1	1	1	1	1	1	1	0	1	-6,694856	273,69973	311,490753	0
15.01.2021	08:00:46	0	0	2,824599	2,07975	8,604	-0,246	85,898	0	1012,46	6,2	8,4	8,2	1	1	1	1	1	1	1	1	1	0	1	-6,342495	273,597687	311,368867	0
15.01.2021	08:00:47	0	0	4,067422	2,1945	8,9964	-0,248	85,889	0	1012,3	6,2	8,5	8,2	1	1	1	1	1	1	1	1	1	0	1	-4,087385	273,679278	314,00313	0
15.01.2021	08:00:48	0	0	4,519358	2,382	9,3708	-0,251	85,884	0	1012,32	6,2	8,4	8,2	1	1	1	1	1	1	1	1	1	0	1	-6,412967	273,657389	311,575798	0
15.01.2021	08:00:49	0	0	3,954438	2,65575	8,6148	-0,244	85,888	0	1012,14	6,3	8,4	8,2	1	1	1	1	1	1	1	1	1	0	1	-8,104299	273,645725	309,830257	0
15.01.2021	08:00:50	0	0	4,519358	2,8425	10,0692	-0,258	85,883	0	1012,14	6,2	8,4	8,2	1	1	1	1	1	1	1	1	1	0	1	-7,82241	273,693884	310,336017	0
15.01.2021	08:00:51	0	0	4,406374	3,04875	6,822	-0,256	85,881	0	1012,24	6,3	8,4	8,2	1	1	1	1	1	1	1	1	1	0	1	-4,862579	273,574439	312,740809	0
15.01.2021	08:00:52	0	0	2,824599	3,0255	11,7216	-0,251	85,889	0	1012,28	6,2	8,4	8,2	1	1	1	1	1	1	1	1	1	0	1	-6,624383	273,543968	310,837531	0
15.01.2021	08:00:53	0	0	3,502503	2,961	22,824	-0,249	85,884	0	1012,24	6,2	8,4	8,2	1	1	1	1	1	1	1	1	1	0	1	-7,329105	273,644268	310,598677	0
15.01.2021	08:00:54	0	0	3,728471	2,78175	23,2164	-0,247	85,9	0	1012,28	6,2	8,4	8,2	1	1	1	1	1	1	1	1	1	0	1	-7,540521	273,690962	310,604318	0
15.01.2021	08:00:55	0	0	4,180406	2,598	13,1544	-0,246	85,89	0	1012,22	6,2	8,4	8,2	1	1	1	1	1	1	1	1	1	0	1	-10,007047	273,526578	307,374146	0
15.01.2021	08:00:56	0	0	4,85831	2,415	21,0204	-0,248	85,87	0	1012,12	6,2	8,4	8,2	1	1	1	1	1	1	1	1	1	0	1	-5,708245	273,593326	311,982859	0
15.01.2021	08:00:57	0	0	3,050567	2,3715	23,9724	-0,245	85,892	0	1012,24	6,3	8,4	8,2	1	1	1	1	1	1	1	1	1	0	1	-5,144468	273,516441	312,189679	0
15.01.2021	08:00:58	0	0	5,084278	2,289	7,4952	-0,247	85,895	0	1012,2	6,3	8,4	8,2	1	1	1	1	1	1	1	1	1	0	1	-4,651163	273,625331	313,188622	0
15.01.2021	08:00:59	0	0	4,067422	2,22075	19,9152	-0,245	85,893	0	1012,1	6,2	8,5	8,2	1	1	1	1	1	1	1	1	1	0	1	-9,231853	273,526578	308,14934	0
15.01.2021	08:01:00	0	0	4,180406	2,57325	15,7896	-0,241	85,937	0	1012,54	6,2	8,4	8,2	1	1	1	1	1	1	1	1	1	0	1	-3,735025	273,561374	313,807699	0
15.01.2021	08:01:01	0	0	4,180406	2,57325	15,7896	-0,241	85,937	0	1012,54	6,2	8,4	8,2	1	1	1	1	1	1	1	1	1	0	1	-3,735025	273,561374	313,807699	0
15.01.2021	08:01:02	0	0	2,372663	2,832	360	-0,249	85,891	0	1012,26	6,2	8,4	8,2	1	1	1	1	1	1	1	1	1	0	1	-5,21494	273,844978	313,64663	0
15.01.2021	08:01:03	0	0	5,084278	2,9775	7,5132	-0,242	85,9	0	1012,28	6,3	8,4	8,2	1	1	1	1	1	1	1	1	1	0	1	-9,090909	273,651556	308,870746	0
15.01.2021	08:01:04	0	0	3,163551	2,88	17,7084	-0,246	85,893	0	1012,24	6,3	8,4	8,2	1	1	1	1	1	1	1	1	1	0	1	-6,342495	273,692423	311,809138	0
15.01.2021	08:01:05	0	0	2,711615	2,91675	10,4292	-0,251	85,899	0	1012,22	6,2	8,4	8,2	1	1	1	1	1	1	1	1	1	0	1	-7,892882	273,658848	310,102662	0
15.01.2021	08:01:06	0	0	4,745326	2,94075	7,1388	-0,254	85,902	0	1012,28	6,3	8,4	8,2	1	1	1	1	1	1	1	1	1	0	1	-7,470049	273,682198	310,634043	0
15.01.2021	08:01:07	0	0	2,937583	2,91975	9,0036	-0,244	85,912	0	1012,24	6,3	8,4	8,2	1	1	1	1	1	1	1	1	1	0	1	-5,21494	273,591872	312,469413	0
15.01.2021	08:01:08	0	0	3,502503	3,02775	21,7728	-0,248	85,918	0	1012,14	6,2	8,4	8,2	1	1	1	1	1	1	1	1	1	0	1	-9,654686	273,520785	307,699619	0
15.01.2021	08:01:09	0	0	4,180406	3,189	24,3288	-0,242	85,92	0	1012,32	6,2	8,4	8,2	1	1	1	1	1	1	1	1	1	0	1	-3,100775	273,564277	314,455425	0
15.01.2021	08:01:10	0	0	2,485647	3,44925	25,434	-0,244	85,917	0	1012,16	6,2	8,4	8,2	1	1	1	1	1	1	1	1	1	0	1	-4,580691	273,565728	312,982249	0
15.01.2021	08:01:11	0	0	3,841454	3,42825	29,9304	-0,24	85,914	0	1012,24	6,2	8,4	8,2	1	1	1	1	1	1	1	1	1	0	1	-6,412967	273,696807	311,75905	0
15.01.2021	08:01:12	0	0	3,163551	3,26175	19,1556	-0,249	85,924	0	1012,08	6,2	8,4	8,2	1	1	1	1	1	1	1	1	1	0	1	-2,959831	273,52513	314,414639	0
15.01.2021	08:01:13	0	0	3,841454	3,26775	22,0752	-0,245	85,892	0	1012,16	6,2	8,4	8,2	1	1	1	1	1	1	1	1	1	0	1	-5,073996	273,609322	312,691411	0
15.01.2021	08:01:14	0	0	4,632342	3,123	0,5004	-0,249	85,903	0	1012,22	6,2	8,4	8,2	1	1	1	1	1	1	1	1	1	0	1	-5,567301	273,530924	311,834064	0
15.01.2021	08:01:15	0	0	4,745326	3,036	349,1244	-0,248	85,889	0	1012,22	6,3	8,4	8,2	1	1	1	1	1	1	1	1	1	0	1	-8,527132	273,603503	309,211247	0
15.01.2021	08:01:16	0	0	3,615487	2,97225	356,6088	-0,246	85,91	0	1011,98	6,2	8,4	8,2	1	1	1	1	1	1	1	1	1	0	1	-1,832276	273,568631	315,744144	0
15.01.2021	08:01:17	0	0	3,389519	3,327	360	-0,241	85,922	0	1012,24	6,2	8,5	8,2	1	1	1	1	1	1	1	1	1	0	1	-5,21494	273,522233	312,146087	0
15.01.2021	08:01:18	0	0	4,067422	3,4785	21,0096	-0,245	85,909	0	1012,08	6,2	8,4	8,2	1	1	1	1	1	1	1	1	1	0	1	-7,82241	273,551219	309,673164	0
15.01.2021	08:01:19	0	0	4,406374	3,46275	13,9068	-0,25	85,894	0	1012,14	6,2	8,4	8,2	1	1	1	1	1	1	1	1	1	0	1	-6,8358	273,628243	311,017516	0
15.01.2021	08:01:20	0	0	4,519358	3,36975	1,9044	-0,24	85,926	0	1012,26	6,3	8,4	8,2	1	1	1	1	1	1	1	1	1	0	1	-4,016913	273,689501	314,121133	0
15.01.2021	08:01:21	0	0	4,29339	3,32775	7,5132	-0,249	85,922	0	1012,18	6,2	8,4	8,2	1	1	1	1	1	1	1	1	1	0	1	-6,976744	273,638439	310,923951	0
15.01.2021	08:01:22	0	0	3,163551	3,86925	5,9112	-0,248	85,905	0	1012,2	6,2	8,4	8,2	1	1	1	1	1	1	1	1	1	0	1	-6,976744	273,523681	310,391004	0
15.01.2021	08:01:23	0	0	2,711615	4,07925	1,1664	-0,247	85,903	0	1012,16	6,2	8,4	8,2	1	1	1	1	1	1	1	1	1	0	1	-5,073996	273,513546	312,246715	0
15.01.2021	08:01:24	0	0	4,632342	3,9525	8,9964	-0,24	85,928	0	1012,26	6,3	8,4	8,2	1	1	1	1	1	1	1	1	1	0	1	-1,691332	273,635525	316,195823	0
15.01.2021	08:01:25	0	0	4,745326	3,53025	16,8552	-0,24	85,932	0	1012,32	6,2	8,4	8,2	1	1	1	1	1	1	1	1	1	0	1	-6,8358	273,704115	311,370202	0
15.01.2021	08:01:26	0	0	2,937583	3,6405	2,3148	-0,243	85,921	0	1012,24	6,2	8,4	8,2	1	1	1	1	1	1	1	1	1	0	1	-2,325581	273,600595	315,399288	0
15.01.2021	08:01:27	0	0	4,632342	3,88575	25,02	-0,243	85,924	0	1012,22	6,2	8,4	8,2	1	1	1	1	1	1	1	1	1	0	1	-7,82241	273,711426	310,417593	0
15.01.2021	08:01:28	0	0	4,29339	3,75825	11,1852	-0,245	85,908	0	1012,16	6,2	8,4	8,2	1	1	1	1	1	1	1	1	1	0	1	-5,285412	273,634069	312,594973	0
15.01.2021	08:01:29	0	0	2,824599	3,62775	13,9212	-0,238	85,926	0	1012,3	6,2	8,4	8,2	1	1	1	1	1	1	1	1	1	0	1	-5,84919	273,558472	311,680059	0
15.01.2021	08:01:30	0	0	3,615487	3,3885	13,5432	-0,243	85,926	0	1012,24	6,2	8,4	8,2	1	1	1	1	1	1	1	1	1	0	1	-4,016913	273,680738	314,08039	0
15.01.2021	08:01:31	0	0	4,519358	3,369	17,7012	-0,241	85,927	0	1012,1	6,2	8,4	8,2	1	1	1	1	1	1	1	1	1	0	1	-7,258633	273,580248	310,371734	0
15.01.2021	08:01:32	0	0	4,29339	3,2925	27,9612	-0,241	85,922	0	1012,2	6,2	8,4	8,2	1	1	1	1	1	1	1	1	1	0	1	-7,117689	273,535271	310,303854	0
15.01.2021	08:01:33	0	0	4,180406	3,1485	25,0236	-0,241	85,935	0	1012,06	6,2	8,5	8,2	1	1	1	1	1	1	1	1	1	0	1	-5,426357	273,616597	312,372849	0
15.01.2021	08:01:34	0	0	2,711615	2,99625	36,5976	-0,242	85,933	0	1012,34	6,2	8,4	8,2	1	1	1	1	1	1	1	1	1	0	1	-6,553911	273,522233	310,807115	0
15.01.2021	08:01:35	0	0	4,85831	2,87325	18,828	-0,243	85,924	0	1012,28	6,3	8,4	8,2	1	1	1	1	1	1	1	1	1	0	1	-7,329105	273,545418	310,13954	0
15.01.2021	08:01:36	0	0	4,180406	2,95875	14,3028	-0,241	85,924	0	1012,24	6,2	8,4	8,2	1	1	1	1	1	1	1	1	1	0	1	-6,8358	273,615142	310,956645	0
15.01.2021	08:01:37	0	0	4,85831	2,90475	18,8424	-0,241	85,918	0	1012,18	6,2	8,4	8,2	1	1	1	1	1	1	1	1	1	0	1	-5,778717	273,532373	311,629373	0
15.01.2021	08:01:38	0	0	3,163551	2,89125	11,2068	-0,24	85,941	0	1012,06	6,2	8,4	8,2	1	1	1	1	1	1	1	1	1	0	1	-6,272023	273,587513	311,392081	0
15.01.2021	08:01:39	0	0	2,598631	3,00675	13,9176	-0,239	85,942	0	1012,28	6,2	8,4	8,2	1	1	1	1	1	1	1	1	1	0	1	-4,439746	273,533822	312,97507	0
15.01.2021	08:01:40	0	0	2,937583	2,96475	15,0228	-0,238	85,937	0	1012,1	6,2	8,5	8,2	1	1	1	1	1	1	1	1	1	0	1	-7,963354	273,631156	309,903495	0
15.01.2021	08:01:41	0	0	4,85831	3,003	23,5872	-0,238	85,947	0	1012,14	6,2	8,4	8,2	1	1	1	1	1	1	1	1	1	0	1	-5,355884	273,677818	312,727843	0
15.01.2021	08:01:42	0	0	4,745326	2,922	18,09	-0,244	85,931	0	1012,2	6,2	8,5	8,2	1	1	1	1	1	1	1	1	1	0	1	-4,087385	273,68804	314,043869	0
15.01.2021	08:01:43	0	0	2,711615	2,82375	22,842	-0,239	85,947	0	1012,02	6,2	8,4	8,2	1	1	1	1	1	1	1	1	1	0	1	-5,84919	273,562825	311,700272	0
15.01.2021	08:01:44	0	0	2,033711	2,814	14,3064	-0,242	85,94	0	1012,26	6,2	8,4	8,2	1	1	1	1	1	1	1	1	1	0	1	-11,275546	273,552669	306,226761	0
15.01.2021	08:01:45	0	0	3,615487	2,84175	18,4428	-0,238	85,955	0	1012,18	6,2	8,4	8,2	1	1	1	1	1	1	1	1	1	0	1	-7,540521	273,647183	310,400808	0
15.01.2021	08:01:46	0	0	4,85831	2,8665	21,0132	-0,238	85,957	0	1012,24	6,3	8,4	8,2	1	1	1	1	1	1	1	1	1	0	1	-3,664553	273,528027	313,723364	0
15.01.2021	08:01:47	0	0	4,29339	2,77875	24,354	-0,237	85,952	0	1012,26	6,2	8,4	8,2	1	1	1	1	1	1	1	1	1	0	1	-6,553911	273,55557	310,961866	0
15.01.2021	08:01:48	0	0	2,824599	2,82825	21,3948	-0,238	85,963	0	1012,24	6,2	8,4	8,2	1	1	1	1	1	1	1	1	1	0	1	-7,610994	273,692423	310,540639	0
15.01.2021	08:01:49	0	0	4,067422	2,976	23,598	-0,245	85,955	0	1012,12	6,2	8,4	8,2	1	1	1	1	1	1	1	1	1	0	1	-8,668076	273,561374	308,874647	0
15.01.2021	08:01:50	0	0	3,276535	3,03375	24,336	-0,241	85,966	0	1012,06	6,2	8,4	8,2	1	1	1	1	1	1	1	1	1	0	1	-1,761804	273,552669	315,740503	0
15.01.2021	08:01:51	0	0	3,276535	2,95575	14,2992	-0,238	85,981	0	1012,22	6,2	8,5	8,2	1	1	1	1	1	1	1	1	1	0	1	-8,315715	273,696807	309,856301	0
15.01.2021	08:01:52	0	0	4,406374	2,89725	18,0936	-0,236	85,973	0	1012,26	6,2	8,5	8,2	1	1	1	1	1	1	1	1	1	0	1	-6,694856	273,591872	310,989498	0
15.01.2021	08:01:53	0	0	3,050567	2,7195	22,842	-0,243	85,968	0	1012,18	6,2	8,4	8,2	1	1	1	1	1	1	1	1	1	0	1	-5,355884	273,557021	312,166628	0
15.01.2021	08:01:54	0	0	2,937583	3,012	25,5312	-0,236	85,964	0	1012,18	6,2	8,5	8,2	1	1	1	1	1	1	1	1	1	0	1	-10,007047	273,545418	307,461597	0
15.01.2021	08:01:55	0	0	4,406374	3,04275	27,972	-0,242	85,973	0	1012,14	6,2	8,4	8,2	1	1	1	1	1	1	1	1	1	0	1	-8,80902	273,696807	309,362996	0
15.01.2021	08:01:56	0	0	4,29339	3,09225	25,4376	-0,239	85,97	0	1012,1	6,2	8,4	8,2	1	1	1	1	1	1	1	1	1	0	1	-3,875969	273,561374	313,666754	0
15.01.2021	08:01:57	0	0	3,615487	3,087	23,9724	-0,238	85,987	0	1012,2	6,2	8,4	8,2	1	1	1	1	1	1	1	1	1	0	1	-9,372798	273,572987	308,223848	0
15.01.2021	08:01:58	0	0	3,050567	3,0705	26,9892	-0,238	85,978	0	1012,06	6,3	8,4	8,2	1	1	1	1	1	1	1	1	1	0	1	-5,285412	273,701191	312,906994	0
15.01.2021	08:01:59	0	0	4,067422	3,144	12,4704	-0,235	85,982	0	1012,42	6,2	8,4	8,2	1	1	1	1	1	1	1	1	1	0	1	-14,65821	273,602049	303,073414	0
15.01.2021	08:02:00	0	0	3,615487	3,417	17,2512	-0,239	85,987	0	1012,3	6,2	8,4	8,2	1	1	1	1	1	1	1	1	1	0	1	-4,862579	273,599141	312,855536	0
15.01.2021	08:02:01	0	0	3,615487	3,417	17,2512	-0,239	85,987	0	1012,3	6,2	8,4	8,2	1	1	1	1	1	1	1	1	1	0	1	-4,862579	273,599141	312,855536	0
15.01.2021	08:02:02	0	0	3,728471	3,3945	22,4604	-0,234	85,981	0	1012,18	6,2	8,4	8,2	1	1	1	1	1	1	1	1	1	0	1	-6,483439	273,682198	311,620653	0
15.01.2021	08:02:03	0	0	4,180406	3,56325	11,214	-0,241	85,986	0	1012,14	6,2	8,4	8,2	1	1	1	1	1	1	1	1	1	0	1	-5,567301	273,660306	312,435023	0
15.01.2021	08:02:04	0	0	4,067422	3,89025	8,262	-0,236	85,992	0	1012,1	6,2	8,5	8,2	1	1	1	1	1	1	1	1	1	0	1	-4,792107	273,578796	312,831514	0
15.01.2021	08:02:05	0	0	3,728471	3,8415	16,0956	-0,239	86	0	1011,96	6,2	8,4	8,2	1	1	1	1	1	1	1	1	1	0	1	-3,523608	273,705577	314,689193	0
15.01.2021	08:02:06	0	0	4,971294	3,71775	21,7728	-0,236	86,005	0	1012,16	6,2	8,5	8,2	1	1	1	1	1	1	1	1	1	0	1	-2,818887	273,695345	315,346335	0
15.01.2021	08:02:07	0	0	2,711615	3,6675	25,4232	-0,233	86,014	0	1012,24	6,2	8,4	8,2	1	1	1	1	1	1	1	1	1	0	1	-3,030303	273,639896	314,877163	0
15.01.2021	08:02:08	0	0	4,406374	3,564	13,2588	-0,23	86,011	0	1012,18	6,2	8,4	8,2	1	1	1	1	1	1	1	1	1	0	1	-2,536998	273,532373	314,871092	0
15.01.2021	08:02:09	0	0	4,180406	3,63075	13,9248	-0,234	86,004	0	1012,12	6,2	8,4	8,2	1	1	1	1	1	1	1	1	1	0	1	-5,144468	273,565728	312,418472	0
15.01.2021	08:02:10	0	0	4,067422	3,666	19,1412	-0,231	86,012	0	1012,16	6,2	8,4	8,2	1	1	1	1	1	1	1	1	1	0	1	-4,721635	273,709964	313,511567	0
15.01.2021	08:02:11	0	0	4,29339	3,5085	8,6328	-0,237	86,016	0	1012,16	6,2	8,4	8,2	1	1	1	1	1	1	1	1	1	0	1	-7,610994	273,664683	310,411672	0
15.01.2021	08:02:12	0	0	3,615487	3,39225	13,1724	-0,23	86,02	0	1012,24	6,2	8,4	8,2	1	1	1	1	1	1	1	1	1	0	1	-4,298802	273,695345	313,866419	0
15.01.2021	08:02:13	0	0	4,180406	3,4245	24,0408	-0,233	86,013	0	1012,08	6,2	8,4	8,2	1	1	1	1	1	1	1	1	1	0	1	-4,580691	273,651556	313,380965	0
15.01.2021	08:02:14	0	0	4,519358	3,54225	19,9008	-0,235	86,009	0	1012,16	6,2	8,4	8,2	1	1	1	1	1	1	1	1	1	0	1	-4,22833	273,548318	313,253778	0
15.01.2021	08:02:15	0	0	4,745326	3,597	20,6316	-0,233	86,032	0	1012,12	6,2	8,4	8,2	1	1	1	1	1	1	1	1	1	0	1	-7,329105	273,654473	310,646104	0
15.01.2021	08:02:16	0	0	4,971294	3,70125	31,0212	-0,231	86,033	0	1012,08	6,2	8,4	8,2	1	1	1	1	1	1	1	1	1	0	1	-7,892882	273,664683	310,129784	0
15.01.2021	08:02:17	0	0	4,745326	3,55575	20,286	-0,234	86,037	0	1012,16	6,2	8,4	8,2	1	1	1	1	1	1	1	1	1	0	1	-8,949965	273,69973	309,235644	0
15.01.2021	08:02:18	0	0	4,406374	3,54525	17,2404	-0,229	86,029	0	1012,34	6,3	8,4	8,2	1	1	1	1	1	1	1	1	1	0	1	-10,007047	273,683659	308,103835	0
15.01.2021	08:02:19	0	0	2,485647	3,48075	29,9664	-0,227	86,046	0	1012,28	6,2	8,4	8,2	1	1	1	1	1	1	1	1	1	0	1	-10,077519	273,551219	307,418054	0
15.01.2021	08:02:20	0	0	4,406374	3,3405	27,9684	-0,226	86,037	0	1012,26	6,2	8,5	8,2	1	1	1	1	1	1	1	1	1	0	1	-6,765328	273,657389	311,223437	0
15.01.2021	08:02:21	0	0	4,29339	3,243	18,8352	-0,234	86,047	0	1012,36	6,2	8,4	8,2	1	1	1	1	1	1	1	1	1	0	1	-2,60747	273,720203	315,673355	0
15.01.2021	08:02:22	0	0	3,728471	3,4665	24,714	-0,233	86,041	0	1012,22	6,2	8,4	8,2	1	1	1	1	1	1	1	1	1	0	1	-8,174771	273,588966	309,496082	0
15.01.2021	08:02:23	0	0	4,067422	3,50625	26,1612	-0,232	86,038	0	1012,14	6,2	8,4	8,2	1	1	1	1	1	1	1	1	1	0	1	-12,05074	273,572987	305,545906	0
15.01.2021	08:02:24	0	0	3,841454	3,54375	20,6208	-0,223	86,055	0	1012,36	6,2	8,5	8,2	1	1	1	1	1	1	1	1	1	0	1	-6,553911	273,541069	310,894543	0
15.01.2021	08:02:25	0	0	2,824582	3,6165	22,4604	-0,231	86,075	0	1012,28	6,2	8,5	8,3	1	1	1	1	1	1	1	1	1	0	1	-2,396054	273,629699	315,464029	0
15.01.2021	08:02:26	0	0	4,519358	3,714	17,7012	-0,229	86,056	0	1012,22	6,2	8,4	8,2	1	1	1	1	1	1	1	1	1	0	1	-6,553911	273,720203	311,726914	0
15.01.2021	08:02:27	0	0	5,310246	3,64725	19,152	-0,23	86,055	0	1012,1	6,2	8,4	8,2	1	1	1	1	1	1	1	1	1	0	1	-7,258633	273,604958	310,486502	0
15.01.2021	08:02:28	0	0	3,050567	3,50625	17,2404	-0,228	86,055	0	1012,24	6,2	8,4	8,2	1	1	1	1	1	1	1	1	1	0	1	-7,470049	273,546868	310,005327	0
15.01.2021	08:02:29	0	0	4,632342	3,60225	14,3064	-0,23	86,062	0	1012,22	6,2	8,4	8,2	1	1	1	1	1	1	1	1	1	0	1	-8,386187	273,570083	309,196974	0
15.01.2021	08:02:30	0	0	2,598631	3,5535	18,8424	-0,231	86,071	0	1012,3	6,2	8,5	8,2	1	1	1	1	1	1	1	1	1	0	1	-10,077519	273,714352	308,176088	0
15.01.2021	08:02:31	0	0	4,519358	3,4995	19,1448	-0,228	86,069	0	1012,26	6,2	8,4	8,2	1	1	1	1	1	1	1	1	1	0	1	-7,892882	273,631156	309,973967	0
15.01.2021	08:02:32	0	0	2,937583	3,4635	27,6552	-0,232	86,054	0	1012,34	6,2	8,5	8,2	1	1	1	1	1	1	1	1	1	0	1	-2,959831	273,581701	314,677282	0
15.01.2021	08:02:33	0	0	2,372663	3,3075	32,1444	-0,224	86,075	0	1012,24	6,2	8,4	8,2	1	1	1	1	1	1	1	1	1	0	1	-6,976744	273,584606	310,673863	0
15.01.2021	08:02:34	0	0	4,971294	3,13425	26,5176	-0,227	86,056	0	1012,24	6,2	8,4	8,2	1	1	1	1	1	1	1	1	1	0	1	-3,59408	273,730448	314,734399	0
15.01.2021	08:02:35	0	0	3,502503	3,0585	20,376	-0,224	86,059	0	1012,08	6,2	8,5	8,2	1	1	1	1	1	1	1	1	1	0	1	-7,963354	273,674898	310,106799	0
15.01.2021	08:02:36	0	0	4,519358	3,0285	23,5908	-0,223	86,071	0	1012,3	6,2	8,5	8,2	1	1	1	1	1	1	1	1	1	0	1	-7,188161	273,552669	310,314147	0
15.01.2021	08:02:37	0	0	2,711615	3,108	21,384	-0,228	86,071	0	1012,22	6,3	8,4	8,2	1	1	1	1	1	1	1	1	1	0	1	-5,990134	273,663224	312,025751	0
15.01.2021	08:02:38	0	0	4,406374	3,19125	31,014	-0,221	86,08	0	1012,18	6,3	8,4	8,2	1	1	1	1	1	1	1	1	1	0	1	-6,624383	273,596233	311,080225	0
15.01.2021	08:02:39	0	0	4,632342	3,16125	25,416	-0,221	86,085	0	1012,36	6,2	8,5	8,2	1	1	1	1	1	1	1	1	1	0	1	-4,792107	273,721667	313,495524	0
15.01.2021	08:02:40	0	0	2,711615	2,982	22,8204	-0,222	86,082	0	1012,14	6,2	8,5	8,2	1	1	1	1	1	1	1	1	1	0	1	-7,188161	273,650098	310,766719	0
15.01.2021	08:02:41	0	0	3,615487	2,8125	20,6388	-0,23	86,085	0	1012,2	6,2	8,5	8,2	1	1	1	1	1	1	1	1	1	0	1	-6,553911	273,701191	311,638495	0
15.01.2021	08:02:42	0	0	4,29339	2,6865	16,8336	-0,221	86,087	0	1012,22	6,2	8,4	8,2	1	1	1	1	1	1	1	1	1	0	1	-10,923185	273,683659	307,187697	0
15.01.2021	08:02:43	0	0	4,519358	2,77125	12,1176	-0,221	86,076	0	1012,26	6,2	8,4	8,2	1	1	1	1	1	1	1	1	1	0	1	-7,540521	273,698268	310,638291	0
15.01.2021	08:02:44	0	0	3,050567	3,087	13,9104	-0,225	86,095	0	1012,26	6,2	8,4	8,2	1	1	1	1	1	1	1	1	1	0	1	-7,751938	273,644268	310,175844	0
15.01.2021	08:02:45	0	0	2,824599	3,29925	18,4464	-0,223	86,092	0	1012,2	6,2	8,5	8,2	1	1	1	1	1	1	1	1	1	0	1	-8,104299	273,543968	309,357615	0
15.01.2021	08:02:46	0	0	4,632342	3,42375	25,5096	-0,225	86,1	0	1012,26	6,2	8,4	8,2	1	1	1	1	1	1	1	1	1	0	1	-7,82241	273,619508	309,990319	0
15.01.2021	08:02:47	0	0	3,841454	3,45	25,0272	-0,225	86,093	0	1012,16	6,2	8,4	8,2	1	1	1	1	1	1	1	1	1	0	1	-6,060606	273,541069	311,387848	0
15.01.2021	08:02:48	0	0	2,598631	3,435	24,3288	-0,224	86,095	0	1012,28	6,2	8,4	8,2	1	1	1	1	1	1	1	1	1	0	1	-8,104299	273,609322	309,661108	0
15.01.2021	08:02:49	0	0	3,163551	3,363	21,384	-0,227	86,093	0	1012,34	6,2	8,4	8,2	1	1	1	1	1	1	1	1	1	0	1	-1,761804	273,577343	315,855072	0
15.01.2021	08:02:50	0	0	4,632342	3,28275	18,0972	-0,219	86,126	0	1012,48	6,3	8,5	8,2	1	1	1	1	1	1	1	1	1	0	1	-8,949965	273,600595	308,774904	0
15.01.2021	08:02:51	0	0	3,389519	3,33675	21,0168	-0,224	86,094	0	1012,2	6,2	8,5	8,2	1	1	1	1	1	1	1	1	1	0	1	-7,399577	273,539619	310,042148	0
15.01.2021	08:02:52	0	0	4,632342	3,54	19,5156	-0,223	86,093	0	1012,32	6,2	8,4	8,2	1	1	1	1	1	1	1	1	1	0	1	-7,540521	273,650098	310,414358	0
15.01.2021	08:02:53	0	0	2,485647	3,8595	12,8412	-0,219	86,098	0	1012,26	6,2	8,5	8,2	1	1	1	1	1	1	1	1	1	0	1	-5,355884	273,73777	313,006652	0
15.01.2021	08:02:54	0	0	3,841454	3,95325	15,7788	-0,221	86,105	0	1012,16	6,2	8,5	8,2	1	1	1	1	1	1	1	1	1	0	1	-9,020437	273,635525	308,866718	0
15.01.2021	08:02:55	0	0	2,824599	3,993	15,3972	-0,222	86,099	0	1012,54	6,2	8,4	8,2	1	1	1	1	1	1	1	1	1	0	1	-9,936575	273,543968	307,525339	0
15.01.2021	08:02:56	0	0	3,502503	3,94575	9,7488	-0,222	86,101	0	1012,3	6,2	8,5	8,2	1	1	1	1	1	1	1	1	1	0	1	-4,792107	273,658848	313,203437	0
15.01.2021	08:02:57	0	0	2,711615	4,023	15,0336	-0,221	86,095	0	1012,3	6,2	8,5	8,2	1	1	1	1	1	1	1	1	1	0	1	-8,174771	273,731912	310,160518	0
15.01.2021	08:02:58	0	0	4,632342	4,062	16,0992	-0,217	86,107	0	1012,2	6,3	8,4	8,2	1	1	1	1	1	1	1	1	1	0	1	-9,654686	273,660306	308,347637	0
15.01.2021	08:02:59	0	0	3,050567	3,873	11,7108	-0,217	86,103	0	1012,14	6,3	8,4	8,2	1	1	1	1	1	1	1	1	1	0	1	-10,007047	273,734841	308,341864	0
15.01.2021	08:03:00	0	0	4,29339	3,6795	15,498	-0,221	86,121	0	1012,24	6,2	8,5	8,2	1	1	1	1	1	1	1	1	1	0	1	-5,778717	273,695345	312,386504	0
15.01.2021	08:03:01	0	0	4,29339	3,6795	15,498	-0,221	86,121	0	1012,24	6,2	8,5	8,2	1	1	1	1	1	1	1	1	1	0	1	-5,778717	273,695345	312,386504	0
15.01.2021	08:03:02	0	0	2,711615	3,954	21,7692	-0,222	86,1	0	1012,16	6,2	8,5	8,2	1	1	1	1	1	1	1	1	1	0	1	-8,315715	273,577343	309,301161	0
15.01.2021	08:03:03	0	0	4,971294	4,1325	21,7728	-0,22	86,11	0	1012,32	6,2	8,5	8,2	1	1	1	1	1	1	1	1	1	0	1	-6,8358	273,594779	310,862056	0
15.01.2021	08:03:04	0	0	2,146695	4,06575	22,0896	-0,219	86,119	0	1012,32	6,2	8,5	8,2	1	1	1	1	1	1	1	1	1	0	1	-8,386187	273,581701	309,250926	0
15.01.2021	08:03:05	0	0	3,841454	4,236	17,2332	-0,217	86,114	0	1012,24	6,3	8,4	8,2	1	1	1	1	1	1	1	1	1	0	1	-3,805497	273,704115	314,400505	0
15.01.2021	08:03:06	0	0	4,406374	4,03575	15,0372	-0,216	86,122	0	1012,34	6,2	8,5	8,2	1	1	1	1	1	1	1	1	1	0	1	-7,751938	273,727521	310,562922	0
15.01.2021	08:03:07	0	0	4,745326	3,771	9,3672	-0,222	86,114	0	1012,18	6,3	8,5	8,2	1	1	1	1	1	1	1	1	1	0	1	-11,980268	273,632612	305,893349	0
15.01.2021	08:03:08	0	0	2,937583	3,8985	17,7156	-0,218	86,106	0	1012,14	6,3	8,4	8,2	1	1	1	1	1	1	1	1	1	0	1	-7,963354	273,715814	310,297057	0
15.01.2021	08:03:09	0	0	4,29339	3,96075	14,2956	-0,219	86,122	0	1012,2	6,2	8,4	8,2	1	1	1	1	1	1	1	1	1	0	1	-5,21494	273,655931	312,767046	0
15.01.2021	08:03:10	0	0	3,728471	4,02825	13,9212	-0,218	86,122	0	1012,1	6,2	8,4	8,2	1	1	1	1	1	1	1	1	1	0	1	-6,553911	273,743629	311,835883	0
15.01.2021	08:03:11	0	0	3,163551	3,822	15,1452	-0,216	86,133	0	1012,3	6,2	8,5	8,2	1	1	1	1	1	1	1	1	1	0	1	-9,090909	273,644268	308,836873	0
15.01.2021	08:03:12	0	0	4,632342	3,6225	23,5944	-0,213	86,135	0	1012,36	6,2	8,4	8,2	1	1	1	1	1	1	1	1	1	0	1	-6,553911	273,711426	311,686092	0
15.01.2021	08:03:13	0	0	4,180406	3,642	23,9724	-0,214	86,135	0	1012,4	6,3	8,5	8,2	1	1	1	1	1	1	1	1	1	0	1	-2,396054	273,698268	315,782759	0
15.01.2021	08:03:14	0	0	3,276535	3,7935	4,8204	-0,219	86,135	0	1012,28	6,2	8,4	8,2	1	1	1	1	1	1	1	1	1	0	1	-9,936575	273,564277	307,619625	0
15.01.2021	08:03:15	0	0	4,406374	3,672	26,1792	-0,216	86,125	0	1012,2	6,2	8,5	8,2	1	1	1	1	1	1	1	1	1	0	1	-7,82241	273,666142	310,207038	0
15.01.2021	08:03:16	0	0	2,711615	3,56625	14,292	-0,215	86,142	0	1012,32	6,2	8,5	8,2	1	1	1	1	1	1	1	1	1	0	1	-8,527132	273,708501	309,699269	0
15.01.2021	08:03:17	0	0	3,389519	3,417	7,1352	-0,221	86,135	0	1012,26	6,3	8,5	8,2	1	1	1	1	1	1	1	1	1	0	1	-9,936575	273,696807	308,235441	0
15.01.2021	08:03:18	0	0	4,067422	3,47175	17,2476	-0,215	86,136	0	1012,12	6,2	8,5	8,2	1	1	1	1	1	1	1	1	1	0	1	-6,906272	273,692423	311,245361	0
15.01.2021	08:03:19	0	0	3,163551	3,82875	12,114	-0,213	86,146	0	1012,26	6,3	8,5	8,2	1	1	1	1	1	1	1	1	1	0	1	-10,923185	273,667601	307,113046	0
15.01.2021	08:03:20	0	0	4,632342	3,92175	10,8216	-0,219	86,138	0	1012,1	6,2	8,4	8,2	1	1	1	1	1	1	1	1	1	0	1	-7,681466	273,727521	310,633395	0
15.01.2021	08:03:21	0	0	3,163551	3,96525	9,7488	-0,217	86,15	0	1012,24	6,3	8,5	8,2	1	1	1	1	1	1	1	1	1	0	1	-8,033827	273,623875	309,799193	0
15.01.2021	08:03:22	0	0	4,067422	4,122	14,3136	-0,218	86,136	0	1012,14	6,3	8,5	8,2	1	1	1	1	1	1	1	1	1	0	1	-7,470049	273,736305	310,885674	0
15.01.2021	08:03:23	0	0	3,050567	3,801	15,048	-0,214	86,157	0	1012,2	6,2	8,5	8,2	1	1	1	1	1	1	1	1	1	0	1	-7,751938	273,607867	310,006711	0
15.01.2021	08:03:24	0	0	2,937583	3,51975	12,078	-0,216	86,147	0	1012,32	6,3	8,5	8,2	1	1	1	1	1	1	1	1	1	0	1	-11,205074	273,743629	307,18472	0
15.01.2021	08:03:25	0	0	3,954415	3,76425	19,5408	-0,216	86,144	0	1012,22	6,3	8,5	8,3	1	1	1	1	1	1	1	1	1	0	1	-2,677942	273,679278	315,412573	0
15.01.2021	08:03:26	0	0	3,050567	3,81525	19,9008	-0,211	86,157	0	1012,24	6,3	8,5	8,2	1	1	1	1	1	1	1	1	1	0	1	-10,852713	273,565728	306,710226	0
15.01.2021	08:03:27	0	0	3,389519	3,7065	21,024	-0,218	86,147	0	1012,28	6,3	8,5	8,2	1	1	1	1	1	1	1	1	1	0	1	-8,668076	273,612231	309,110848	0
15.01.2021	08:03:28	0	0	4,067422	3,59925	33,2496	-0,206	86,212	0	1012,16	6,3	8,5	8,2	1	1	1	1	1	1	1	1	1	0	1	-5,637773	273,603503	312,100606	0
15.01.2021	08:03:29	0	0	3,502503	3,4005	25,0308	-0,213	86,153	0	1012	6,3	8,4	8,2	1	1	1	1	1	1	1	1	1	0	1	-9,231853	273,746559	309,171573	0
15.01.2021	08:03:30	0	0	4,632342	3,03225	12,1032	-0,217	86,143	0	1012,1	6,3	8,5	8,2	1	1	1	1	1	1	1	1	1	0	1	-10,852713	273,666142	307,176735	0
15.01.2021	08:03:31	0	0	3,728471	3,06225	8,2584	-0,216	86,153	0	1012,42	6,3	8,5	8,2	1	1	1	1	1	1	1	1	1	0	1	-5,778717	273,730448	312,549762	0
15.01.2021	08:03:32	0	0	5,084278	3,10125	30,3192	-0,211	86,17	0	1012,2	6,3	8,5	8,2	1	1	1	1	1	1	1	1	1	0	1	-3,946441	273,701191	314,245965	0
15.01.2021	08:03:33	0	0	4,180406	3,23475	27,4104	-0,212	86,162	0	1012,34	6,3	8,5	8,2	1	1	1	1	1	1	1	1	1	0	1	-9,936575	273,596233	307,768033	0
15.01.2021	08:03:34	0	0	2,485647	3,13275	23,6016	-0,213	86,166	0	1012,2	6,3	8,5	8,2	1	1	1	1	1	1	1	1	1	0	1	-8,597604	273,739234	309,771746	0
15.01.2021	08:03:35	0	0	3,502503	3,24075	36,9144	-0,213	86,167	0	1012,34	6,3	8,5	8,2	1	1	1	1	1	1	1	1	1	0	1	-3,875969	273,692423	314,275664	0
15.01.2021	08:03:36	0	0	3,615487	3,36	23,5764	-0,214	86,152	0	1012,12	6,3	8,5	8,2	1	1	1	1	1	1	1	1	1	0	1	-11,839323	273,745094	306,557286	0
15.01.2021	08:03:37	0	0	5,084278	3,4455	9,3672	-0,212	86,164	0	1012,18	6,3	8,5	8,2	1	1	1	1	1	1	1	1	1	0	1	-5,073996	273,66906	312,969019	0
15.01.2021	08:03:38	0	0	4,632314	3,528	16,4808	-0,211	86,17	0	1012,36	6,3	8,5	8,3	1	1	1	1	1	1	1	1	1	0	1	-6,20155	273,571535	311,388353	0
15.01.2021	08:03:39	0	0	4,85831	3,53325	16,4952	-0,208	86,157	0	1012,3	6,3	8,5	8,2	1	1	1	1	1	1	1	1	1	0	1	-5,355884	273,623875	312,477135	0
15.01.2021	08:03:40	0	0	2,937583	3,49875	7,128	-0,212	86,168	0	1012,36	6,3	8,5	8,2	1	1	1	1	1	1	1	1	1	0	1	-6,8358	273,559923	310,700186	0
15.01.2021	08:03:41	0	0	2,033711	3,42675	6,444	-0,214	86,166	0	1012,26	6,2	8,5	8,2	1	1	1	1	1	1	1	1	1	0	1	-5,778717	273,71874	312,495302	0
15.01.2021	08:03:42	0	0	3,050567	3,30525	6,8112	-0,209	86,14	0	1012,18	6,3	8,5	8,2	1	1	1	1	1	1	1	1	1	0	1	-9,936575	273,552669	307,565732	0
15.01.2021	08:03:43	0	0	4,406374	3,30375	23,2344	-0,205	86,163	0	1012,18	6,3	8,5	8,2	1	1	1	1	1	1	1	1	1	0	1	-4,157858	273,692423	313,993775	0
15.01.2021	08:03:44	0	0	2,937583	3,189	16,2108	-0,201	86,159	0	1012,34	6,3	8,5	8,2	1	1	1	1	1	1	1	1	1	0	1	-9,725159	273,55557	307,790618	0
15.01.2021	08:03:45	0	0	4,745326	3,1875	17,7156	-0,205	86,153	0	1012,1	6,3	8,5	8,2	1	1	1	1	1	1	1	1	1	0	1	-11,557435	273,632612	306,316182	0
15.01.2021	08:03:46	0	0	3,954438	3,09975	4,8312	-0,207	86,148	0	1012,4	6,3	8,4	8,2	1	1	1	1	1	1	1	1	1	0	1	-4,087385	273,724593	314,213859	0
15.01.2021	08:03:47	0	0	2,372663	3,26175	8,622	-0,209	86,166	0	1012,32	6,3	8,5	8,2	1	1	1	1	1	1	1	1	1	0	1	-4,862579	273,574439	312,740809	0
15.01.2021	08:03:48	0	0	4,519358	3,1635	12,8592	-0,205	86,168	0	1012,26	6,3	8,5	8,2	1	1	1	1	1	1	1	1	1	0	1	-7,117689	273,705577	311,095112	0
15.01.2021	08:03:49	0	0	3,615465	3,084	13,554	-0,206	86,171	0	1012,32	6,3	8,5	8,3	1	1	1	1	1	1	1	1	1	0	1	-9,231853	273,728984	309,089816	0
15.01.2021	08:03:50	0	0	4,519358	3,1155	19,5444	-0,204	86,172	0	1012,3	6,3	8,5	8,2	1	1	1	1	1	1	1	1	1	0	1	-5,285412	273,574439	312,317976	0
15.01.2021	08:03:51	0	0	2,711615	3,30975	9,3672	-0,207	86,168	0	1012,16	6,3	8,5	8,2	1	1	1	1	1	1	1	1	1	0	1	-7,047216	273,714352	311,206391	0
15.01.2021	08:03:52	0	0	3,728471	3,8865	11,7792	-0,204	86,173	0	1012,34	6,3	8,5	8,2	1	1	1	1	1	1	1	1	1	0	1	-8,245243	273,628243	309,608073	0
15.01.2021	08:03:53	0	0	4,406348	4,026	23,9688	-0,205	86,151	0	1012,34	6,3	8,5	8,3	1	1	1	1	1	1	1	1	1	0	1	-13,178295	273,739234	305,191055	0
15.01.2021	08:03:54	0	0	3,163551	3,88425	21,3912	-0,206	86,178	0	1012,3	6,3	8,5	8,2	1	1	1	1	1	1	1	1	1	0	1	-10,007047	273,606412	307,744845	0
15.01.2021	08:03:55	0	0	3,163551	3,4815	19,152	-0,206	86,185	0	1012,16	6,3	8,5	8,2	1	1	1	1	1	1	1	1	1	0	1	-1,691332	273,580248	315,939035	0
15.01.2021	08:03:56	0	0	3,050567	3,45525	21,7692	-0,209	86,165	0	1012,32	6,3	8,5	8,2	1	1	1	1	1	1	1	1	1	0	1	-4,439746	273,622419	313,386509	0
15.01.2021	08:03:57	0	0	2,824599	3,53325	12,852	-0,204	86,177	0	1012,26	6,3	8,5	8,2	1	1	1	1	1	1	1	1	1	0	1	-5,144468	273,584606	312,506139	0
15.01.2021	08:03:58	0	0	4,519358	3,756	22,842	-0,207	86,168	0	1012,34	6,2	8,5	8,2	1	1	1	1	1	1	1	1	1	0	1	-7,892882	273,610777	309,879283	0
15.01.2021	08:03:59	0	0	4,29339	4,0575	33,948	-0,206	86,172	0	1012,3	6,3	8,5	8,2	1	1	1	1	1	1	1	1	1	0	1	-5,919662	273,570083	311,663499	0
15.01.2021	08:04:00	0	0	4,632342	4,01475	38,8044	-0,206	86,172	0	1012,32	6,3	8,5	8,2	1	1	1	1	1	1	1	1	1	0	1	-5,84919	273,740699	312,526974	0
15.01.2021	08:04:01	0	0	4,632342	4,01475	38,8044	-0,206	86,172	0	1012,32	6,3	8,5	8,2	1	1	1	1	1	1	1	1	1	0	1	-5,84919	273,740699	312,526974	0
15.01.2021	08:04:02	0	0	3,276515	3,4935	27,6624	-0,204	86,175	0	1012,26	6,3	8,5	8,3	1	1	1	1	1	1	1	1	1	0	1	-4,22833	273,676358	313,848611	0
15.01.2021	08:04:03	0	0	3,050567	3,237	10,0512	-0,212	86,165	0	1011,84	6,3	8,5	8,2	1	1	1	1	1	1	1	1	1	0	1	-9,020437	273,580248	308,60993	0
15.01.2021	08:04:04	0	0	4,29339	3,1725	16,5024	-0,205	86,188	0	1012,38	6,3	8,5	8,2	1	1	1	1	1	1	1	1	1	0	1	-5,84919	273,620963	311,970303	0
15.01.2021	08:04:05	0	0	4,067422	3,30825	37,6884	-0,209	86,175	0	1012,3	6,3	8,5	8,2	1	1	1	1	1	1	1	1	1	0	1	-9,231853	273,564277	308,324347	0
15.01.2021	08:04:06	0	0	4,406348	3,26925	26,9028	-0,198	86,191	0	1012,3	6,3	8,5	8,3	1	1	1	1	1	1	1	1	1	0	1	-7,82241	273,683659	310,288472	0
15.01.2021	08:04:07	0	0	2,598615	3,627	12,852	-0,202	86,169	0	1012,2	6,3	8,5	8,3	1	1	1	1	1	1	1	1	1	0	1	-8,104299	273,767082	310,394625	0
15.01.2021	08:04:08	0	0	4,180381	4,24125	13,9176	-0,207	86,174	0	1012,12	6,3	8,5	8,3	1	1	1	1	1	1	1	1	1	0	1	-6,342495	273,69973	311,843114	0
15.01.2021	08:04:09	0	0	4,519331	4,725	11,2068	-0,203	86,185	0	1012,26	6,3	8,4	8,3	1	1	1	1	1	1	1	1	1	0	1	-5,496829	273,587513	312,167275	0
15.01.2021	08:04:10	0	0	4,180406	4,8225	360	-0,205	86,173	0	1012,28	6,3	8,5	8,2	1	1	1	1	1	1	1	1	1	0	1	-6,483439	273,712889	311,763366	0
15.01.2021	08:04:11	0	0	2,711615	4,5165	10,818	-0,2	86,186	0	1012,3	6,3	8,5	8,2	1	1	1	1	1	1	1	1	1	0	1	-3,382664	273,602049	314,34896	0
15.01.2021	08:04:12	0	0	2,259666	3,99225	17,2224	-0,199	86,164	0	1012,14	6,3	8,5	8,3	1	1	1	1	1	1	1	1	1	0	1	-4,298802	273,628243	313,554514	0
15.01.2021	08:04:13	0	0	3,389498	3,74475	23,5584	-0,203	86,17	0	1012,18	6,3	8,5	8,3	1	1	1	1	1	1	1	1	1	0	1	-0	273,591872	317,684353	0
15.01.2021	08:04:14	0	0	5,197231	3,7905	16,1964	-0,199	86,19	0	1012,24	6,3	8,4	8,3	1	1	1	1	1	1	1	1	1	0	1	-8,527132	273,73777	309,835405	0
15.01.2021	08:04:15	0	0	4,180406	3,7155	17,2368	-0,198	86,199	0	1012,26	6,3	8,5	8,2	1	1	1	1	1	1	1	1	1	0	1	-6,272023	273,581701	311,36509	0
15.01.2021	08:04:16	0	0	4,971264	3,65025	9,7524	-0,202	86,189	0	1012,24	6,3	8,5	8,3	1	1	1	1	1	1	1	1	1	0	1	-8,104299	273,733377	310,237801	0
15.01.2021	08:04:17	0	0	3,389498	3,62925	19,5192	-0,203	86,175	0	1012,32	6,3	8,5	8,3	1	1	1	1	1	1	1	1	1	0	1	-3,805497	273,692423	314,346136	0
15.01.2021	08:04:18	0	0	2,598631	3,693	25,4232	-0,201	86,193	0	1012,3	6,3	8,4	8,2	1	1	1	1	1	1	1	1	1	0	1	-6,20155	273,748024	312,208693	0
15.01.2021	08:04:19	0	0	3,050567	3,57675	28,7208	-0,206	86,187	0	1012,2	6,3	8,5	8,2	1	1	1	1	1	1	1	1	1	0	1	-5,567301	273,708501	312,6591	0
15.01.2021	08:04:20	0	0	3,050548	3,45675	27,2808	-0,197	86,189	0	1012,34	6,3	8,5	8,3	1	1	1	1	1	1	1	1	1	0	1	-3,875969	273,761216	314,595657	0
15.01.2021	08:04:21	0	0	4,180406	3,141	21,7728	-0,198	86,19	0	1012,24	6,3	8,5	8,2	1	1	1	1	1	1	1	1	1	0	1	-6,624383	273,701191	311,568022	0
15.01.2021	08:04:22	0	0	4,971264	3,0975	29,1024	-0,194	86,21	0	1012,3	6,3	8,5	8,3	1	1	1	1	1	1	1	1	1	0	1	-6,906272	273,583154	310,737588	0
15.01.2021	08:04:23	0	0	2,824582	3,13125	25,776	-0,198	86,208	0	1012,28	6,3	8,5	8,3	1	1	1	1	1	1	1	1	1	0	1	-3,59408	273,695345	314,571141	0
15.01.2021	08:04:24	0	0	3,954438	3,1095	26,8956	-0,195	86,194	0	1012,16	6,3	8,5	8,2	1	1	1	1	1	1	1	1	1	0	1	-5,84919	273,761216	312,622437	0
15.01.2021	08:04:25	0	0	3,050548	3,0825	14,3064	-0,197	86,216	0	1012,34	6,3	8,4	8,3	1	1	1	1	1	1	1	1	1	0	1	-8,668076	273,673438	309,395292	0
15.01.2021	08:04:26	0	0	3,389498	3,078	19,5192	-0,195	86,207	0	1012,3	6,3	8,5	8,3	1	1	1	1	1	1	1	1	1	0	1	-9,020437	273,607867	308,738212	0
15.01.2021	08:04:27	0	0	2,824582	3,1035	23,5944	-0,195	86,215	0	1012,26	6,3	8,5	8,3	1	1	1	1	1	1	1	1	1	0	1	-5,778717	273,750955	312,645162	0
15.01.2021	08:04:28	0	0	2,485632	3,2805	29,5632	-0,198	86,199	0	1012,3	6,3	8,4	8,3	1	1	1	1	1	1	1	1	1	0	1	-4,22833	273,650098	313,72655	0
15.01.2021	08:04:29	0	0	4,519358	3,291	26,1792	-0,195	86,196	0	1012,26	6,3	8,4	8,2	1	1	1	1	1	1	1	1	1	0	1	-4,933051	273,604958	312,812084	0
15.01.2021	08:04:30	0	0	4,632314	3,375	29,0952	-0,198	86,189	0	1012,28	6,3	8,5	8,3	1	1	1	1	1	1	1	1	1	0	1	-5,84919	273,748024	312,561054	0
15.01.2021	08:04:31	0	0	2,937565	3,363	36,216	-0,202	86,211	0	1012,24	6,3	8,5	8,3	1	1	1	1	1	1	1	1	1	0	1	-7,963354	273,616597	309,835851	0
15.01.2021	08:04:32	0	0	4,632342	3,25725	29,574	-0,197	86,199	0	1012,2	6,3	8,5	8,2	1	1	1	1	1	1	1	1	1	0	1	-8,104299	273,705577	310,108502	0
15.01.2021	08:04:33	0	0	2,711599	3,10575	23,9796	-0,194	86,203	0	1012,22	6,3	8,4	8,3	1	1	1	1	1	1	1	1	1	0	1	-6,483439	273,771483	312,035964	0
15.01.2021	08:04:34	0	0	3,728448	3,13425	17,7012	-0,192	86,223	0	1012,26	6,3	8,5	8,3	1	1	1	1	1	1	1	1	1	0	1	-7,963354	273,780288	310,597026	0
15.01.2021	08:04:35	0	0	3,389498	3,282	13,1616	-0,196	86,221	0	1012,26	6,3	8,5	8,3	1	1	1	1	1	1	1	1	1	0	1	-6,342495	273,704115	311,863507	0
15.01.2021	08:04:36	0	0	2,485632	3,48225	19,1304	-0,196	86,217	0	1012,4	6,3	8,5	8,3	1	1	1	1	1	1	1	1	1	0	1	-8,527132	273,768549	309,978618	0
15.01.2021	08:04:37	0	0	3,502482	3,5595	15,7788	-0,194	86,213	0	1012,26	6,3	8,4	8,3	1	1	1	1	1	1	1	1	1	0	1	-8,386187	273,696807	309,785829	0
15.01.2021	08:04:38	0	0	3,050567	3,63	23,2308	-0,189	86,226	0	1012,24	6,3	8,5	8,2	1	1	1	1	1	1	1	1	1	0	1	-6,976744	273,75975	311,488059	0
15.01.2021	08:04:39	0	0	3,502503	3,81075	29,5632	-0,196	86,214	0	1012,22	6,3	8,4	8,2	1	1	1	1	1	1	1	1	1	0	1	-6,8358	273,654473	311,139409	0
15.01.2021	08:04:40	0	0	4,293365	3,6945	33,7356	-0,192	86,215	0	1012,28	6,3	8,4	8,3	1	1	1	1	1	1	1	1	1	0	1	-7,117689	273,603503	310,620691	0
15.01.2021	08:04:41	0	0	3,841431	3,351	27,9576	-0,197	86,22	0	1012,14	6,3	8,4	8,3	1	1	1	1	1	1	1	1	1	0	1	-10,500352	273,764149	307,984921	0
15.01.2021	08:04:42	0	0	3,163532	3,09825	24,714	-0,194	86,219	0	1012,4	6,3	8,4	8,3	1	1	1	1	1	1	1	1	1	0	1	-4,721635	273,701191	313,470771	0
15.01.2021	08:04:43	0	0	2,824582	3,0975	23,2056	-0,189	86,222	0	1012,24	6,3	8,5	8,3	1	1	1	1	1	1	1	1	1	0	1	-4,510218	273,590419	313,167384	0
15.01.2021	08:04:44	0	0	4,519331	3,291	25,0308	-0,195	86,228	0	1012,26	6,3	8,5	8,3	1	1	1	1	1	1	1	1	1	0	1	-5,637773	273,750955	312,786107	0
15.01.2021	08:04:45	0	0	4,745298	3,384	27,972	-0,194	86,223	0	1012,32	6,3	8,4	8,3	1	1	1	1	1	1	1	1	1	0	1	-7,188161	273,781755	311,379051	0
15.01.2021	08:04:46	0	0	4,067398	3,3765	21,7656	-0,198	86,226	0	1012,28	6,3	8,5	8,3	1	1	1	1	1	1	1	1	1	0	1	-7,047216	273,680738	311,050087	0
15.01.2021	08:04:47	0	0	4,632314	3,29625	25,7832	-0,198	86,22	0	1012,16	6,3	8,4	8,3	1	1	1	1	1	1	1	1	1	0	1	-8,315715	273,768549	310,190034	0
15.01.2021	08:04:48	0	0	4,519331	3,15375	30,708	-0,192	86,219	0	1012,28	6,3	8,4	8,3	1	1	1	1	1	1	1	1	1	0	1	-8,386187	273,72313	309,90825	0
15.01.2021	08:04:49	0	0	2,937565	3,20475	26,1792	-0,196	86,208	0	1012,32	6,3	8,4	8,3	1	1	1	1	1	1	1	1	1	0	1	-5,567301	273,629699	312,292781	0
15.01.2021	08:04:50	0	0	4,632314	3,378	27,2772	-0,185	86,222	0	1012,3	6,3	8,4	8,3	1	1	1	1	1	1	1	1	1	0	1	-10,641297	273,733377	307,700803	0
15.01.2021	08:04:51	0	0	2,711615	3,45675	22,8348	-0,185	86,222	0	1012,28	6,3	8,5	8,2	1	1	1	1	1	1	1	1	1	0	1	-5,708245	273,636982	312,185679	0
15.01.2021	08:04:52	0	0	3,728471	3,36825	18,8604	-0,185	86,235	0	1012,34	6,3	8,4	8,2	1	1	1	1	1	1	1	1	1	0	1	-7,540521	273,657389	310,448243	0
15.01.2021	08:04:53	0	0	2,711599	3,15075	19,1448	-0,187	86,203	0	1012,16	6,3	8,4	8,3	1	1	1	1	1	1	1	1	1	0	1	-11,346018	273,616597	306,453187	0
15.01.2021	08:04:54	0	0	3,728448	2,9145	17,8128	-0,183	86,23	0	1012,22	6,3	8,5	8,3	1	1	1	1	1	1	1	1	1	0	1	-6,20155	273,660306	311,800773	0
15.01.2021	08:04:55	0	0	2,598615	2,99025	21,7728	-0,19	86,209	0	1012,24	6,3	8,5	8,3	1	1	1	1	1	1	1	1	1	0	1	-8,668076	273,610777	309,104089	0
15.01.2021	08:04:56	0	0	4,29339	3,09675	32,5008	-0,185	86,227	0	1012,4	6,3	8,5	8,2	1	1	1	1	1	1	1	1	1	0	1	-5,637773	273,609322	312,127634	0
15.01.2021	08:04:57	0	0	2,485632	3,06675	16,8444	-0,186	86,232	0	1012,24	6,3	8,5	8,3	1	1	1	1	1	1	1	1	1	0	1	-6,624383	273,631156	311,242466	0
15.01.2021	08:04:58	0	0	3,728448	3,1005	10,8144	-0,19	86,231	0	1012,22	6,3	8,5	8,3	1	1	1	1	1	1	1	1	1	0	1	-7,751938	273,726057	310,556114	0
15.01.2021	08:04:59	0	0	3,389498	3,273	6,444	-0,191	86,224	0	1012,3	6,3	8,4	8,3	1	1	1	1	1	1	1	1	1	0	1	-9,936575	273,771483	308,582828	0
15.01.2021	08:05:00	0	0	3,163532	3,38925	14,3136	-0,189	86,217	0	1012,28	6,3	8,5	8,3	1	1	1	1	1	1	1	1	1	0	1	-8,174771	273,698268	310,004041	0
15.01.2021	08:05:01	0	0	3,163532	3,38925	14,3136	-0,189	86,217	0	1012,28	6,3	8,5	8,3	1	1	1	1	1	1	1	1	1	0	1	-8,174771	273,698268	310,004041	0
15.01.2021	08:05:02	0	0	4,632314	3,32475	24,3468	-0,182	86,223	0	1012,32	6,3	8,4	8,3	1	1	1	1	1	1	1	1	1	0	1	-1,198027	273,616597	316,601179	0
15.01.2021	08:05:03	0	0	4,067398	3,2805	23,202	-0,18	86,229	0	1012,2	6,3	8,4	8,3	1	1	1	1	1	1	1	1	1	0	1	-11,06413	273,647183	306,8772	0
15.01.2021	08:05:04	0	0	2,824582	3,219	16,4916	-0,186	86,228	0	1012,22	6,3	8,4	8,3	1	1	1	1	1	1	1	1	1	0	1	-7,258633	273,625331	310,581152	0
15.01.2021	08:05:05	0	0	4,180381	3,207	34,812	-0,184	86,215	0	1012,14	6,3	8,4	8,3	1	1	1	1	1	1	1	1	1	0	1	-7,117689	273,638439	310,783006	0
15.01.2021	08:05:06	0	0	3,502482	3,23175	8,2512	-0,177	86,242	0	1012,14	6,3	8,5	8,3	1	1	1	1	1	1	1	1	1	0	1	-9,090909	273,599141	308,627206	0
15.01.2021	08:05:07	0	0	3,389498	3,0885	26,5176	-0,178	86,232	0	1012,24	6,3	8,4	8,3	1	1	1	1	1	1	1	1	1	0	1	-1,127555	273,749489	317,289507	0
15.01.2021	08:05:08	0	0	3,841431	2,83275	359,5068	-0,186	86,227	0	1012,24	6,3	8,4	8,3	1	1	1	1	1	1	1	1	1	0	1	-5,073996	273,661765	312,935108	0
15.01.2021	08:05:09	0	0	3,389498	2,84325	2,3076	-0,179	86,233	0	1012,12	6,3	8,4	8,3	1	1	1	1	1	1	1	1	1	0	1	-4,22833	273,613686	313,557354	0
15.01.2021	08:05:10	0	0	3,502482	2,92425	359,0604	-0,177	86,234	0	1012,12	6,3	8,4	8,3	1	1	1	1	1	1	1	1	1	0	1	-4,439746	273,685119	313,677926	0
15.01.2021	08:05:11	0	0	2,711599	2,83725	8,2584	-0,18	86,24	0	1012,28	6,3	8,4	8,3	1	1	1	1	1	1	1	1	1	0	1	-6,906272	273,783223	311,667772	0
15.01.2021	08:05:12	0	0	4,067398	2,6055	7,128	-0,177	86,231	0	1012,42	6,3	8,4	8,3	1	1	1	1	1	1	1	1	1	0	1	-5,144468	273,708501	313,081933	0
15.01.2021	08:05:13	0	0	3,841431	2,38725	19,9836	-0,181	86,226	0	1012,32	6,3	8,4	8,3	1	1	1	1	1	1	1	1	1	0	1	-9,231853	273,770016	309,280723	0
15.01.2021	08:05:14	0	0	4,745298	2,25675	18,0828	-0,178	86,234	0	1012,24	6,3	8,4	8,3	1	1	1	1	1	1	1	1	1	0	1	-8,245243	273,736305	310,110481	0
15.01.2021	08:05:15	0	0	4,293365	2,12775	11,1924	-0,176	86,244	0	1012,3	6,3	8,4	8,3	1	1	1	1	1	1	1	1	1	0	1	-7,399577	273,767082	311,099346	0
15.01.2021	08:05:16	0	0	3,276515	2,13675	28,3572	-0,176	86,248	0	1012,34	6,3	8,4	8,3	1	1	1	1	1	1	1	1	1	0	1	-3,453136	273,750955	314,970744	0
15.01.2021	08:05:17	0	0	2,711599	2,30925	22,446	-0,174	86,241	0	1012,28	6,3	8,4	8,3	1	1	1	1	1	1	1	1	1	0	1	-7,470049	273,787628	311,124495	0
15.01.2021	08:05:18	0	0	3,954415	2,424	16,8552	-0,185	86,233	0	1012,24	6,3	8,4	8,3	1	1	1	1	1	1	1	1	1	0	1	-3,382664	273,685119	314,735008	0
15.01.2021	08:05:19	0	0	3,163532	2,5395	19,1556	-0,184	86,233	0	1011,96	6,3	8,5	8,3	1	1	1	1	1	1	1	1	1	0	1	-5,21494	273,78616	313,37277	0
15.01.2021	08:05:20	0	0	2,937565	2,53275	11,268	-0,177	86,219	0	1012,26	6,3	8,4	8,3	1	1	1	1	1	1	1	1	1	0	1	-5,144468	273,644268	312,783314	0
15.01.2021	08:05:21	0	0	3,050548	2,3475	17,7012	-0,177	86,236	0	1012,14	6,3	8,4	8,3	1	1	1	1	1	1	1	1	1	0	1	-7,963354	273,677818	310,120373	0
15.01.2021	08:05:22	0	0	4,067398	2,2515	7,488	-0,176	86,244	0	1012,32	6,3	8,4	8,3	1	1	1	1	1	1	1	1	1	0	1	-8,104299	273,77882	310,44925	0
15.01.2021	08:05:23	0	0	3,841431	2,205	12,0888	-0,182	86,219	0	1012,26	6,3	8,4	8,3	1	1	1	1	1	1	1	1	1	0	1	-5,426357	273,661765	312,582747	0
15.01.2021	08:05:24	0	0	3,276515	2,16375	27,6732	-0,173	86,244	0	1012,16	6,3	8,5	8,3	1	1	1	1	1	1	1	1	1	0	1	-4,298802	273,615142	313,493643	0
15.01.2021	08:05:25	0	0	4,293365	2,187	18,0864	-0,176	86,237	0	1012,36	6,3	8,5	8,3	1	1	1	1	1	1	1	1	1	0	1	-8,45666	273,745094	309,93995	0
15.01.2021	08:05:26	0	0	3,050548	2,3805	18,8424	-0,178	86,222	0	1012,28	6,3	8,4	8,3	1	1	1	1	1	1	1	1	1	0	1	-6,765328	273,727521	311,549533	0
15.01.2021	08:05:27	0	0	3,050548	2,682	20,0052	-0,18	86,229	0	1012,04	6,3	8,4	8,3	1	1	1	1	1	1	1	1	1	0	1	-2,184637	273,664683	315,838029	0
15.01.2021	08:05:28	0	0	2,259666	2,7195	7,1316	-0,17	86,242	0	1012,24	6,3	8,4	8,3	1	1	1	1	1	1	1	1	1	0	1	-5,567301	273,742164	312,815678	0
15.01.2021	08:05:29	0	0	2,598615	2,7675	10,062	-0,176	86,237	0	1012,3	6,3	8,5	8,3	1	1	1	1	1	1	1	1	1	0	1	-3,312192	273,655931	314,669795	0
15.01.2021	08:05:30	0	0	2,937565	2,6265	22,0824	-0,175	86,234	0	1012,24	6,3	8,4	8,3	1	1	1	1	1	1	1	1	1	0	1	-2,396054	273,728984	315,925616	0
15.01.2021	08:05:31	0	0	4,293365	2,823	19,1412	-0,172	86,23	0	1012,24	6,4	8,4	8,3	1	1	1	1	1	1	1	1	1	0	1	-10,42988	273,771483	308,089523	0
15.01.2021	08:05:32	0	0	2,824582	3,06225	12,1068	-0,175	86,228	0	1012,26	6,3	8,5	8,3	1	1	1	1	1	1	1	1	1	0	1	-3,875969	273,682198	314,228123	0
15.01.2021	08:05:33	0	0	2,711599	3,2955	13,5468	-0,176	86,217	0	1012,34	6,3	8,4	8,3	1	1	1	1	1	1	1	1	1	0	1	-6,765328	273,634069	311,115058	0
15.01.2021	08:05:34	0	0	3,389498	3,28275	21,0996	-0,176	86,225	0	1012,28	6,3	8,4	8,3	1	1	1	1	1	1	1	1	1	0	1	-9,866103	273,727521	308,448758	0
15.01.2021	08:05:35	0	0	3,615465	3,246	15,7896	-0,172	86,23	0	1012,14	6,3	8,4	8,3	1	1	1	1	1	1	1	1	1	0	1	-3,875969	273,781755	314,691243	0
15.01.2021	08:05:36	0	0	3,728448	3,28875	12,1104	-0,176	86,228	0	1012,32	6,3	8,4	8,3	1	1	1	1	1	1	1	1	1	0	1	-7,470049	273,66906	310,572965	0
15.01.2021	08:05:37	0	0	3,615465	3,58725	12,852	-0,173	86,234	0	1012,4	6,3	8,4	8,3	1	1	1	1	1	1	1	1	1	0	1	-6,553911	273,79644	312,081652	0
15.01.2021	08:05:38	0	0	2,259666	3,87375	19,6272	-0,173	86,229	0	1012,3	6,3	8,4	8,3	1	1	1	1	1	1	1	1	1	0	1	-8,45666	273,805256	310,219944	0
15.01.2021	08:05:39	0	0	4,406348	4,1505	27,2772	-0,173	86,23	0	1012,22	6,4	8,4	8,3	1	1	1	1	1	1	1	1	1	0	1	-6,131078	273,632612	311,742539	0
15.01.2021	08:05:40	0	0	5,084247	4,236	20,2788	-0,173	86,236	0	1012,44	6,3	8,4	8,3	1	1	1	1	1	1	1	1	1	0	1	-5,990134	273,803786	312,679628	0
15.01.2021	08:05:41	0	0	3,163532	4,197	15,4044	-0,173	86,246	0	1012,28	6,3	8,4	8,3	1	1	1	1	1	1	1	1	1	0	1	-8,45666	273,636982	309,437265	0
15.01.2021	08:05:42	0	0	3,502482	4,422	12,1788	-0,17	86,236	0	1012,34	6,3	8,4	8,3	1	1	1	1	1	1	1	1	1	0	1	-5,355884	273,790565	313,25233	0
15.01.2021	08:05:43	0	0	5,310214	4,48875	14,3064	-0,17	86,239	0	1012,32	6,3	8,4	8,3	1	1	1	1	1	1	1	1	1	0	1	-10,42988	273,634069	307,450506	0
15.01.2021	08:05:44	0	0	2,824582	4,4025	16,4844	-0,17	86,229	0	1012,22	6,3	8,4	8,3	1	1	1	1	1	1	1	1	1	0	1	-7,540521	273,666142	310,488927	0
15.01.2021	08:05:45	0	0	4,293365	4,48575	9,7632	-0,172	86,21	0	1012,32	6,3	8,4	8,3	1	1	1	1	1	1	1	1	1	0	1	-6,624383	273,632612	311,249234	0
15.01.2021	08:05:46	0	0	3,276515	4,67625	11,718	-0,171	86,23	0	1012,2	6,3	8,4	8,3	1	1	1	1	1	1	1	1	1	0	1	-5,003524	273,666142	313,025925	0
15.01.2021	08:05:47	0	0	2,711599	4,64925	13,5576	-0,171	86,226	0	1012,3	6,3	8,4	8,3	1	1	1	1	1	1	1	1	1	0	1	-6,976744	273,628243	310,876572	0
15.01.2021	08:05:48	0	0	4,293365	4,71225	24,066	-0,168	86,233	0	1012,34	6,3	8,4	8,3	1	1	1	1	1	1	1	1	1	0	1	-9,44327	273,632612	308,430347	0
15.01.2021	08:05:49	0	0	4,632314	4,77375	21,0204	-0,171	86,231	0	1012,3	6,3	8,4	8,3	1	1	1	1	1	1	1	1	1	0	1	-7,470049	273,71874	310,80397	0
15.01.2021	08:05:50	0	0	2,824582	4,72875	21,3876	-0,171	86,214	0	1012,24	6,3	8,4	8,3	1	1	1	1	1	1	1	1	1	0	1	-7,681466	273,799378	310,967775	0
15.01.2021	08:05:51	0	0	3,389498	4,79775	29,106	-0,172	86,221	0	1012,28	6,3	8,4	8,3	1	1	1	1	1	1	1	1	1	0	1	-5,778717	273,705577	312,434083	0
15.01.2021	08:05:52	0	0	3,050548	4,8015	34,722	-0,168	86,234	0	1012,34	6,3	8,5	8,3	1	1	1	1	1	1	1	1	1	0	1	-4,016913	273,629699	313,843169	0
15.01.2021	08:05:53	0	0	2,937565	4,416	37,3104	-0,167	86,236	0	1012,14	6,3	8,4	8,3	1	1	1	1	1	1	1	1	1	0	1	-3,523608	273,677818	314,560119	0
15.01.2021	08:05:54	0	0	4,067398	3,951	26,9028	-0,167	86,238	0	1012,14	6,3	8,5	8,3	1	1	1	1	1	1	1	1	1	0	1	-7,188161	273,793502	311,433727	0
15.01.2021	08:05:55	0	0	3,276515	3,67125	25,7796	-0,174	86,23	0	1012,26	6,3	8,4	8,3	1	1	1	1	1	1	1	1	1	0	1	-7,82241	273,728984	310,499259	0
15.01.2021	08:05:56	0	0	4,858281	3,4725	21,7764	-0,176	86,226	0	1012,28	6,3	8,4	8,3	1	1	1	1	1	1	1	1	1	0	1	-4,298802	273,797909	314,343599	0
15.01.2021	08:05:57	0	0	2,937565	3,432	18,4536	-0,169	86,24	0	1012,32	6,4	8,4	8,3	1	1	1	1	1	1	1	1	1	0	1	-8,386187	273,781755	310,181024	0
15.01.2021	08:05:58	0	0	4,632314	3,4095	16,848	-0,168	86,225	0	1012,28	6,3	8,4	8,3	1	1	1	1	1	1	1	1	1	0	1	-8,668076	273,682198	309,436016	0
15.01.2021	08:05:59	0	0	4,180381	3,37125	9,7524	-0,166	86,233	0	1012,24	6,3	8,4	8,3	1	1	1	1	1	1	1	1	1	0	1	-8,949965	273,667601	309,086266	0
15.01.2021	08:06:00	0	0	4,971264	2,9805	25,4124	-0,169	86,245	0	1012,36	6,3	8,4	8,3	1	1	1	1	1	1	1	1	1	0	1	-5,637773	273,806726	313,045673	0
15.01.2021	08:06:01	0	0	3,276515	3,1095	31,3848	-0,171	86,24	0	1012,08	6,4	8,4	8,3	1	1	1	1	1	1	1	1	1	0	1	-6,342495	273,638439	311,5582	0
15.01.2021	08:06:02	0	0	3,276515	3,1095	31,3848	-0,171	86,24	0	1012,08	6,4	8,4	8,3	1	1	1	1	1	1	1	1	1	0	1	-6,342495	273,638439	311,5582	0
15.01.2021	08:06:03	0	0	2,937565	2,99325	23,5872	-0,17	86,226	0	1012,12	6,4	8,4	8,3	1	1	1	1	1	1	1	1	1	0	1	-7,540521	273,685119	310,577151	0
15.01.2021	08:06:04	0	0	3,050548	2,9475	17,244	-0,169	86,231	0	1012,3	6,4	8,4	8,3	1	1	1	1	1	1	1	1	1	0	1	-7,681466	273,639896	310,226	0
15.01.2021	08:06:05	0	0	3,841431	3,0555	26,1828	-0,153	86,258	0	1012,42	6,3	8,4	8,3	1	1	1	1	1	1	1	1	1	0	1	-5,426357	273,767082	313,072567	0
15.01.2021	08:06:06	0	0	4,180381	3,02475	23,2128	-0,17	86,24	0	1012,26	6,3	8,4	8,3	1	1	1	1	1	1	1	1	1	0	1	-4,933051	273,75975	313,531752	0
15.01.2021	08:06:07	0	0	2,711599	3,01725	24,732	-0,169	86,257	0	1012,44	6,4	8,4	8,3	1	1	1	1	1	1	1	1	1	0	1	-10,42988	273,66906	307,613134	0
15.01.2021	08:06:08	0	0	2,937565	3,0495	14,2992	-0,168	86,241	0	1012,28	6,4	8,4	8,3	1	1	1	1	1	1	1	1	1	0	1	-5,637773	273,720203	312,643052	0
15.01.2021	08:06:09	0	0	4,180381	3,0585	20,2752	-0,162	86,237	0	1012,3	6,4	8,4	8,3	1	1	1	1	1	1	1	1	1	0	1	-3,312192	273,800847	315,343889	0
15.01.2021	08:06:10	0	0	2,711599	3,0975	23,9832	-0,162	86,237	0	1012,34	6,4	8,4	8,3	1	1	1	1	1	1	1	1	1	0	1	-5,355884	273,695345	312,809337	0
15.01.2021	08:06:11	0	0	4,858281	3,174	21,7656	-0,159	86,239	0	1012,16	6,4	8,4	8,3	1	1	1	1	1	1	1	1	1	0	1	-4,580691	273,806726	314,102756	0
15.01.2021	08:06:12	0	0	3,389498	3,23475	23,5872	-0,164	86,238	0	1012,28	6,4	8,4	8,3	1	1	1	1	1	1	1	1	1	0	1	-5,285412	273,75242	313,145286	0
15.01.2021	08:06:13	0	0	4,632314	3,4065	20,6424	-0,17	86,225	0	1012,12	6,4	8,4	8,3	1	1	1	1	1	1	1	1	1	0	1	-2,114165	273,645725	315,820391	0
15.01.2021	08:06:14	0	0	2,937565	3,41625	21,4776	-0,167	86,239	0	1012,28	6,4	8,4	8,3	1	1	1	1	1	1	1	1	1	0	1	-5,073996	273,724593	313,227249	0
15.01.2021	08:06:15	0	0	2,485632	3,3945	21,0096	-0,161	86,233	0	1012,24	6,3	8,4	8,3	1	1	1	1	1	1	1	1	1	0	1	-5,778717	273,802317	312,884203	0
15.01.2021	08:06:16	0	0	4,858281	3,534	22,068	-0,163	86,253	0	1012,26	6,4	8,4	8,3	1	1	1	1	1	1	1	1	1	0	1	-7,047216	273,739234	311,322134	0
15.01.2021	08:06:17	0	0	4,858281	3,59025	18,828	-0,172	86,238	0	1012,22	6,4	8,4	8,3	1	1	1	1	1	1	1	1	1	0	1	-3,453136	273,771483	315,066267	0
15.01.2021	08:06:18	0	0	2,711599	3,84825	21,7548	-0,162	86,254	0	1012,44	6,4	8,4	8,3	1	1	1	1	1	1	1	1	1	0	1	-5,144468	273,667601	312,891763	0
15.01.2021	08:06:19	0	0	3,502482	4,1355	22,086	-0,162	86,248	0	1012,32	6,4	8,4	8,3	1	1	1	1	1	1	1	1	1	0	1	-3,382664	273,802317	315,280257	0
15.01.2021	08:06:20	0	0	2,824582	4,0365	21,3912	-0,163	86,237	0	1012,44	6,3	8,4	8,3	1	1	1	1	1	1	1	1	1	0	1	-7,963354	273,667601	310,072876	0
15.01.2021	08:06:21	0	0	3,276515	4,1265	27,9756	-0,166	86,244	0	1012,4	6,4	8,4	8,3	1	1	1	1	1	1	1	1	1	0	1	-4,087385	273,783223	314,486658	0
15.01.2021	08:06:22	0	0	2,598615	3,9165	23,958	-0,168	86,226	0	1012,24	6,3	8,4	8,3	1	1	1	1	1	1	1	1	1	0	1	-5,285412	273,834672	313,528159	0
15.01.2021	08:06:23	0	0	3,050548	3,66675	22,8384	-0,166	86,241	0	1012,24	6,4	8,4	8,3	1	1	1	1	1	1	1	1	1	0	1	-6,8358	273,75242	311,594899	0
15.01.2021	08:06:24	0	0	3,841431	3,39525	29,5668	-0,165	86,241	0	1012,1	6,4	8,4	8,3	1	1	1	1	1	1	1	1	1	0	1	-8,738548	273,803786	309,931214	0
15.01.2021	08:06:25	0	0	2,937565	3,51675	23,9724	-0,161	86,227	0	1012,3	6,4	8,4	8,3	1	1	1	1	1	1	1	1	1	0	1	-6,906272	273,724593	311,394972	0
15.01.2021	08:06:26	0	0	3,050548	3,603	33,9552	-0,157	86,235	0	1012,24	6,4	8,4	8,3	1	1	1	1	1	1	1	1	1	0	1	-6,624383	273,670519	311,425415	0
15.01.2021	08:06:27	0	0	4,519331	3,56475	35,0928	-0,161	86,243	0	1012,3	6,3	8,4	8,3	1	1	1	1	1	1	1	1	1	0	1	-9,936575	273,755352	308,507764	0
15.01.2021	08:06:28	0	0	4,180381	3,4125	32,1588	-0,161	86,252	0	1012,24	6,4	8,4	8,3	1	1	1	1	1	1	1	1	1	0	1	-10,782241	273,642811	307,138768	0
15.01.2021	08:06:29	0	0	2,937565	3,52725	25,0344	-0,16	86,239	0	1012,2	6,4	8,4	8,3	1	1	1	1	1	1	1	1	1	0	1	-8,315715	273,758284	310,142266	0
15.01.2021	08:06:30	0	0	2,711599	3,73725	22,0896	-0,162	86,238	0	1012,32	6,4	8,4	8,3	1	1	1	1	1	1	1	1	1	0	1	-9,513742	273,815546	309,210772	0
15.01.2021	08:06:31	0	0	3,389498	3,68025	25,7724	-0,159	86,248	0	1012,34	6,4	8,4	8,3	1	1	1	1	1	1	1	1	1	0	1	-7,188161	273,727521	311,1267	0
15.01.2021	08:06:32	0	0	3,728448	3,6705	22,0824	-0,159	86,255	0	1012,3	6,4	8,5	8,3	1	1	1	1	1	1	1	1	1	0	1	-8,45666	273,806726	310,226787	0
15.01.2021	08:06:33	0	0	4,971294	3,5325	24,3216	-0,161	86,246	0	1012,24	6,4	8,4	8,2	1	1	1	1	1	1	1	1	1	0	1	-9,302326	273,745094	309,094284	0
15.01.2021	08:06:34	0	0	2,937565	3,42225	19,5228	-0,159	86,23	0	1012,28	6,4	8,4	8,3	1	1	1	1	1	1	1	1	1	0	1	-11,06413	273,654473	306,911079	0
15.01.2021	08:06:35	0	0	3,502482	3,3345	26,8848	-0,163	86,232	0	1012,34	6,2	8,4	8,3	1	1	1	1	1	1	1	1	1	0	1	-3,453136	273,666142	314,576312	0
15.01.2021	08:06:36	0	0	3,163532	3,37725	33,6456	-0,163	86,234	0	1012,42	6,4	8,4	8,3	1	1	1	1	1	1	1	1	1	0	1	-6,906272	273,679278	311,184243	0
15.01.2021	08:06:37	0	0	2,937565	3,41175	23,5872	-0,165	86,235	0	1012,22	6,4	8,4	8,3	1	1	1	1	1	1	1	1	1	0	1	-6,131078	273,830256	312,661932	0
15.01.2021	08:06:38	0	0	4,406348	3,6495	25,416	-0,159	86,239	0	1012,36	6,3	8,4	8,3	1	1	1	1	1	1	1	1	1	0	1	-8,033827	273,705577	310,178974	0
15.01.2021	08:06:39	0	0	3,954415	3,93675	12,8556	-0,171	86,212	0	1012,06	6,4	8,4	8,3	1	1	1	1	1	1	1	1	1	0	1	-5,778717	273,814076	312,93895	0
15.01.2021	08:06:40	0	0	3,615465	4,06875	17,6976	-0,155	86,242	0	1012,26	6,3	8,4	8,3	1	1	1	1	1	1	1	1	1	0	1	-5,21494	273,698268	312,963872	0
15.01.2021	08:06:41	0	0	4,858281	4,18275	11,718	-0,157	86,248	0	1012,4	6,4	8,4	8,3	1	1	1	1	1	1	1	1	1	0	1	-9,302326	273,647183	308,639004	0
15.01.2021	08:06:42	0	0	4,519331	4,236	22,842	-0,156	86,232	0	1012,34	6,4	8,4	8,3	1	1	1	1	1	1	1	1	1	0	1	-7,258633	273,765616	311,233465	0
15.01.2021	08:06:43	0	0	3,615465	4,02675	19,2924	-0,157	86,241	0	1012,12	6,4	8,4	8,3	1	1	1	1	1	1	1	1	1	0	1	-6,624383	273,639896	311,283082	0
15.01.2021	08:06:44	0	0	4,519331	3,97875	20,646	-0,161	86,241	0	1012,22	6,4	8,4	8,3	1	1	1	1	1	1	1	1	1	0	1	-7,470049	273,714352	310,783558	0
15.01.2021	08:06:45	0	0	2,824582	3,9315	27,648	-0,158	86,237	0	1012,42	6,3	8,5	8,3	1	1	1	1	1	1	1	1	1	0	1	-10,570825	273,827313	308,208481	0
15.01.2021	08:06:46	0	0	4,971264	3,885	24,0516	-0,159	86,225	0	1012,4	6,3	8,4	8,3	1	1	1	1	1	1	1	1	1	0	1	-4,439746	273,740699	313,936418	0
15.01.2021	08:06:47	0	0	2,598615	3,97875	21,78	-0,162	86,239	0	1012,16	6,3	8,4	8,3	1	1	1	1	1	1	1	1	1	0	1	-8,45666	273,831728	310,343204	0
15.01.2021	08:06:48	0	0	5,423197	3,69375	13,8996	-0,163	86,231	0	1012,34	6,4	8,4	8,3	1	1	1	1	1	1	1	1	1	0	1	-8,949965	273,740699	309,426199	0
15.01.2021	08:06:49	0	0	4,858281	3,45	11,7108	-0,155	86,242	0	1012,36	6,3	8,4	8,3	1	1	1	1	1	1	1	1	1	0	1	-7,470049	273,814076	311,247618	0
15.01.2021	08:06:50	0	0	5,084247	3,31125	358,8192	-0,161	86,233	0	1011,98	6,4	8,5	8,3	1	1	1	1	1	1	1	1	1	0	1	-8,80902	273,789096	309,792359	0
15.01.2021	08:06:51	0	0	2,824582	3,54225	10,0692	-0,162	86,239	0	1012,24	6,3	8,4	8,3	1	1	1	1	1	1	1	1	1	0	1	-4,22833	273,768549	314,27742	0
15.01.2021	08:06:52	0	0	2,372663	3,53325	17,694	-0,157	86,256	0	1012,22	6,3	8,4	8,2	1	1	1	1	1	1	1	1	1	0	1	-3,875969	273,831728	314,923895	0
15.01.2021	08:06:53	0	0	4,180381	3,4155	18,8388	-0,158	86,254	0	1012,54	6,3	8,4	8,3	1	1	1	1	1	1	1	1	1	0	1	-8,315715	273,695345	309,849506	0
15.01.2021	08:06:54	0	0	3,050548	3,44775	12,1104	-0,16	86,251	0	1012,24	6,3	8,5	8,3	1	1	1	1	1	1	1	1	1	0	1	-7,047216	273,847923	311,828074	0
15.01.2021	08:06:55	0	0	2,937565	3,294	16,4808	-0,159	86,258	0	1012,26	6,3	8,4	8,3	1	1	1	1	1	1	1	1	1	0	1	-10,852713	273,756818	307,598446	0
15.01.2021	08:06:56	0	0	2,937565	3,24975	16,488	-0,154	86,258	0	1012,2	6,4	8,5	8,3	1	1	1	1	1	1	1	1	1	0	1	-2,325581	273,661765	315,683522	0
15.01.2021	08:06:57	0	0	3,615465	3,414	14,6448	-0,156	86,252	0	1012,32	6,3	8,5	8,3	1	1	1	1	1	1	1	1	1	0	1	-7,047216	273,753886	311,390302	0
15.01.2021	08:06:58	0	0	2,937565	3,46275	15,786	-0,155	86,259	0	1012,46	6,3	8,4	8,3	1	1	1	1	1	1	1	1	1	0	1	-5,708245	273,827313	313,071061	0
15.01.2021	08:06:59	0	0	2,598631	3,348	15,3936	-0,154	86,26	0	1012,4	6,4	8,4	8,2	1	1	1	1	1	1	1	1	1	0	1	-7,540521	273,75242	310,890177	0
15.01.2021	08:07:00	0	0	3,389498	3,615	11,718	-0,162	86,252	0	1012,22	6,4	8,4	8,3	1	1	1	1	1	1	1	1	1	0	1	-9,513742	273,824371	309,251862	0
15.01.2021	08:07:01	0	0	4,293365	4,03575	10,44	-0,155	86,238	0	1012,3	6,3	8,4	8,3	1	1	1	1	1	1	1	1	1	0	1	-9,513742	273,824371	309,251862	0
15.01.2021	08:07:02	0	0	4,293365	4,03575	10,44	-0,155	86,238	0	1012,3	6,3	8,4	8,3	1	1	1	1	1	1	1	1	1	0	1	-3,100775	273,768549	315,404974	0
15.01.2021	08:07:03	0	0	4,406348	4,36425	6,0588	-0,151	86,261	0	1012,14	6,3	8,4	8,3	1	1	1	1	1	1	1	1	1	0	1	-5,778717	273,843505	313,075994	0
15.01.2021	08:07:04	0	0	4,519331	4,35975	7,1424	-0,159	86,236	0	1012,32	6,3	8,4	8,3	1	1	1	1	1	1	1	1	1	0	1	-12,191684	273,748024	306,218559	0
15.01.2021	08:07:05	0	0	4,406374	4,296	11,7144	-0,153	86,251	0	1012,32	6,3	8,5	8,2	1	1	1	1	1	1	1	1	1	0	1	-8,738548	273,825842	310,033906	0
15.01.2021	08:07:06	0	0	3,163532	4,15125	14,31	-0,153	86,264	0	1012,28	6,3	8,5	8,3	1	1	1	1	1	1	1	1	1	0	1	-3,59408	273,746559	314,809346	0
15.01.2021	08:07:07	0	0	2,824582	3,85125	15,4008	-0,154	86,25	0	1012,18	6,3	8,5	8,3	1	1	1	1	1	1	1	1	1	0	1	-6,694856	273,828785	312,091302	0
15.01.2021	08:07:08	0	0	4,745298	3,41175	27,27	-0,154	86,248	0	1012,26	6,4	8,5	8,3	1	1	1	1	1	1	1	1	1	0	1	-5,073996	273,789096	313,527384	0
15.01.2021	08:07:09	0	0	3,502482	3,15375	13,5504	-0,156	86,258	0	1012,3	6,3	8,5	8,3	1	1	1	1	1	1	1	1	1	0	1	-3,382664	273,828785	315,403494	0
15.01.2021	08:07:10	0	0	4,180381	3,042	17,712	-0,152	86,265	0	1012,22	6,3	8,5	8,3	1	1	1	1	1	1	1	1	1	0	1	-12,966878	273,727521	305,347982	0
15.01.2021	08:07:11	0	0	2,711599	2,928	30,708	-0,152	86,236	0	1012,3	6,3	8,4	8,3	1	1	1	1	1	1	1	1	1	0	1	-3,664553	273,661765	314,344551	0
15.01.2021	08:07:12	0	0	4,632314	2,75925	1,566	-0,147	86,25	0	1012,18	6,3	8,5	8,3	1	1	1	1	1	1	1	1	1	0	1	-4,510218	273,724593	313,791026	0
15.01.2021	08:07:13	0	0	3,163551	2,7495	32,8824	-0,15	86,259	0	1012,34	6,3	8,5	8,2	1	1	1	1	1	1	1	1	1	0	1	-4,510218	273,654473	313,46499	0
15.01.2021	08:07:14	0	0	3,954415	2,86575	22,0932	-0,159	86,258	0	1012,24	6,3	8,4	8,3	1	1	1	1	1	1	1	1	1	0	1	-8,879493	273,762683	309,598957	0
15.01.2021	08:07:15	0	0	2,937548	3,054	20,6352	-0,153	86,259	0	1012,16	6,3	8,4	8,4	1	1	1	1	1	1	1	1	1	0	1	-4,439746	273,673438	313,623622	0
15.01.2021	08:07:16	0	0	3,163532	3,339	21,3768	-0,151	86,25	0	1012,16	6,3	8,4	8,3	1	1	1	1	1	1	1	1	1	0	1	-1,832276	273,68658	316,292187	0
15.01.2021	08:07:17	0	0	3,163532	3,6675	23,202	-0,149	86,255	0	1012,28	6,3	8,5	8,3	1	1	1	1	1	1	1	1	1	0	1	-2,043693	273,777352	316,503026	0
15.01.2021	08:07:18	0	0	3,276515	3,77025	29,574	-0,146	86,266	0	1012,38	6,3	8,5	8,3	1	1	1	1	1	1	1	1	1	0	1	-6,060606	273,8332	312,746111	0
15.01.2021	08:07:19	0	0	4,067398	3,54075	20,6352	-0,15	86,235	0	1012,3	6,3	8,4	8,3	1	1	1	1	1	1	1	1	1	0	1	-10,570825	273,762683	307,907625	0
15.01.2021	08:07:20	0	0	4,632314	3,2775	19,1484	-0,15	86,26	0	1012,34	6,3	8,5	8,3	1	1	1	1	1	1	1	1	1	0	1	-5,567301	273,831728	313,232563	0
15.01.2021	08:07:21	0	0	4,858252	3,08475	17,2404	-0,152	86,263	0	1012,3	6,3	8,4	8,4	1	1	1	1	1	1	1	1	1	0	1	-7,892882	273,792033	310,722168	0
15.01.2021	08:07:22	0	0	4,180381	3,1245	8,622	-0,146	86,243	0	1012,14	6,3	8,5	8,3	1	1	1	1	1	1	1	1	1	0	1	-3,382664	273,690962	314,762176	0
15.01.2021	08:07:23	0	0	3,502503	3,1065	16,8516	-0,144	86,244	0	1012,28	6,3	8,5	8,2	1	1	1	1	1	1	1	1	1	0	1	-6,624383	273,847923	312,250907	0
15.01.2021	08:07:24	0	0	3,163513	3,14775	24,7212	-0,146	86,261	0	1012,38	6,3	8,5	8,4	1	1	1	1	1	1	1	1	1	0	1	-5,84919	273,727521	312,465671	0
15.01.2021	08:07:25	0	0	2,485647	3,189	23,2236	-0,148	86,254	0	1012,18	6,3	8,5	8,2	1	1	1	1	1	1	1	1	1	0	1	-6,553911	273,705577	311,65889	0
15.01.2021	08:07:26	0	0	3,954391	3,027	34,3332	-0,146	86,256	0	1012,34	6,3	8,5	8,4	1	1	1	1	1	1	1	1	1	0	1	-5,285412	273,670519	312,764386	0
15.01.2021	08:07:27	0	0	3,276515	2,8695	21,7764	-0,14	86,263	0	1012,4	6,3	8,5	8,3	1	1	1	1	1	1	1	1	1	0	1	-10,852713	273,724593	307,448531	0
15.01.2021	08:07:28	0	0	4,406374	2,75175	23,9652	-0,145	86,263	0	1012,26	6,3	8,4	8,2	1	1	1	1	1	1	1	1	1	0	1	-9,372798	273,844978	309,488773	0
15.01.2021	08:07:29	0	0	2,598631	2,57025	12,8664	-0,145	86,266	0	1012,42	6,3	8,5	8,2	1	1	1	1	1	1	1	1	1	0	1	-2,748414	273,746559	315,655012	0
15.01.2021	08:07:30	0	0	3,728448	2,47575	17,6904	-0,142	86,261	0	1012,3	6,3	8,5	8,3	1	1	1	1	1	1	1	1	1	0	1	-11,275546	273,682198	306,828546	0
15.01.2021	08:07:31	0	0	5,084247	2,37225	22,1472	-0,147	86,272	0	1012,36	6,3	8,4	8,3	1	1	1	1	1	1	1	1	1	0	1	-7,681466	273,792033	310,933585	0
15.01.2021	08:07:32	0	0	2,937565	2,4255	35,4816	-0,147	86,262	0	1012,28	6,3	8,5	8,3	1	1	1	1	1	1	1	1	1	0	1	-8,527132	273,828785	310,259026	0
15.01.2021	08:07:33	0	0	3,841454	2,577	41,0112	-0,146	86,248	0	1012,34	6,3	8,4	8,2	1	1	1	1	1	1	1	1	1	0	1	-4,651163	273,680738	313,446141	0
15.01.2021	08:07:34	0	0	2,937565	2,772	44,7804	-0,145	86,253	0	1012,32	6,3	8,5	8,3	1	1	1	1	1	1	1	1	1	0	1	-8,597604	273,790565	310,010611	0
15.01.2021	08:07:35	0	0	5,084247	2,86425	43,2864	-0,144	86,255	0	1012,3	6,3	8,5	8,3	1	1	1	1	1	1	1	1	1	0	1	-11,486963	273,842033	307,360891	0
15.01.2021	08:07:36	0	0	4,745298	2,72175	36,918	-0,145	86,248	0	1012,34	6,3	8,5	8,3	1	1	1	1	1	1	1	1	1	0	1	-6,483439	273,72313	311,810998	0
15.01.2021	08:07:37	0	0	3,163551	2,4675	22,4712	-0,14	86,262	0	1012,36	6,4	8,5	8,2	1	1	1	1	1	1	1	1	1	0	1	-6,412967	273,685119	311,704705	0
15.01.2021	08:07:38	0	0	2,711615	2,2605	26,4708	-0,145	86,255	0	1012,28	6,4	8,5	8,2	1	1	1	1	1	1	1	1	1	0	1	-7,681466	273,728984	310,640204	0
15.01.2021	08:07:39	0	0	2,711615	2,11275	31,014	-0,149	86,242	0	1012,4	6,3	8,5	8,2	1	1	1	1	1	1	1	1	1	0	1	-5,073996	273,842033	313,773858	0
15.01.2021	08:07:40	0	0	4,519358	1,99875	9,3564	-0,149	86,253	0	1012,34	6,3	8,5	8,2	1	1	1	1	1	1	1	1	1	0	1	-5,355884	273,805256	313,320719	0
15.01.2021	08:07:41	0	0	3,615443	2,127	5,2272	-0,141	86,247	0	1012,36	6,3	8,5	8,4	1	1	1	1	1	1	1	1	1	0	1	-9,513742	273,805256	309,162862	0
15.01.2021	08:07:42	0	0	3,615465	2,31675	16,8408	-0,145	86,232	0	1012,34	6,3	8,5	8,3	1	1	1	1	1	1	1	1	1	0	1	-7,540521	273,862658	311,403405	0
15.01.2021	08:07:43	0	0	3,954415	2,40825	13,9176	-0,143	86,232	0	1012,32	6,3	8,5	8,3	1	1	1	1	1	1	1	1	1	0	1	-6,765328	273,808195	311,924961	0
15.01.2021	08:07:44	0	0	4,293365	2,7885	9,756	-0,144	86,228	0	1012,22	6,3	8,5	8,3	1	1	1	1	1	1	1	1	1	0	1	-8,668076	273,843505	310,186636	0
15.01.2021	08:07:45	0	0	4,067398	3,08775	12,9384	-0,142	86,242	0	1012,3	6,3	8,4	8,3	1	1	1	1	1	1	1	1	1	0	1	-4,510218	273,852343	314,385656	0
15.01.2021	08:07:46	0	0	4,519331	3,0975	21,7656	-0,145	86,234	0	1012,4	6,3	8,4	8,3	1	1	1	1	1	1	1	1	1	0	1	-7,963354	273,790565	310,64486	0
15.01.2021	08:07:47	0	0	4,406348	3,22725	22,4712	-0,142	86,253	0	1012,32	6,3	8,5	8,3	1	1	1	1	1	1	1	1	1	0	1	-5,778717	273,834672	313,034854	0
15.01.2021	08:07:48	0	0	3,615487	3,21075	26,8956	-0,145	86,228	0	1012,26	6,3	8,5	8,2	1	1	1	1	1	1	1	1	1	0	1	-7,258633	273,842033	311,589221	0
15.01.2021	08:07:49	0	0	2,937583	2,99475	23,5764	-0,143	86,229	0	1012,32	6,3	8,5	8,2	1	1	1	1	1	1	1	1	1	0	1	-9,725159	273,800847	308,930922	0
15.01.2021	08:07:50	0	0	4,406348	2,79225	17,6976	-0,144	86,256	0	1012,28	6,3	8,5	8,3	1	1	1	1	1	1	1	1	1	0	1	-6,20155	273,674898	311,868604	0
15.01.2021	08:07:51	0	0	4,406374	2,58975	14,3028	-0,147	86,249	0	1012,28	6,3	8,5	8,2	1	1	1	1	1	1	1	1	1	0	1	-5,778717	273,730448	312,549762	0
15.01.2021	08:07:52	0	0	4,632314	2,766	21,0132	-0,135	86,239	0	1012,36	6,3	8,5	8,3	1	1	1	1	1	1	1	1	1	0	1	-5,567301	273,680738	312,530003	0
15.01.2021	08:07:53	0	0	4,067398	2,9715	18,4536	-0,144	86,247	0	1012,22	6,3	8,5	8,3	1	1	1	1	1	1	1	1	1	0	1	-5,003524	273,721667	313,284107	0
15.01.2021	08:07:54	0	0	3,728448	3,087	23,22	-0,141	86,237	0	1012,28	6,3	8,5	8,3	1	1	1	1	1	1	1	1	1	0	1	-3,100775	273,68658	315,023688	0
15.01.2021	08:07:55	0	0	4,519304	3,057	15,408	-0,143	86,246	0	1012,26	6,3	8,5	8,4	1	1	1	1	1	1	1	1	1	0	1	-6,976744	273,856763	311,93972	0
15.01.2021	08:07:56	0	0	3,502482	3,276	23,5692	-0,148	86,228	0	1012,26	6,3	8,5	8,3	1	1	1	1	1	1	1	1	1	0	1	-6,765328	273,790565	311,842887	0
15.01.2021	08:07:57	0	0	4,29339	3,495	2,2968	-0,144	86,248	0	1012,36	6,3	8,5	8,2	1	1	1	1	1	1	1	1	1	0	1	-4,792107	273,676358	313,284833	0
15.01.2021	08:07:58	0	0	4,519358	3,501	19,1412	-0,141	86,252	0	1012,22	6,3	8,5	8,2	1	1	1	1	1	1	1	1	1	0	1	-6,412967	273,800847	312,243114	0
15.01.2021	08:07:59	0	0	4,632314	3,72675	21,0276	-0,137	86,247	0	1012,36	6,3	8,5	8,3	1	1	1	1	1	1	1	1	1	0	1	-6,342495	273,797909	312,299907	0
15.01.2021	08:08:00	0	0	3,050548	3,95925	17,7012	-0,146	86,238	0	1012,4	6,3	8,5	8,3	1	1	1	1	1	1	1	1	1	0	1	-4,157858	273,730448	314,170621	0
15.01.2021	08:08:01	0	0	3,050548	3,95925	17,7012	-0,146	86,238	0	1012,4	6,3	8,5	8,3	1	1	1	1	1	1	1	1	1	0	1	-4,157858	273,730448	314,170621	0
15.01.2021	08:08:02	0	0	2,937565	3,87675	18,0648	-0,141	86,242	0	1012,34	6,3	8,5	8,3	1	1	1	1	1	1	1	1	1	0	1	-8,527132	273,704115	309,67887	0
15.01.2021	08:08:03	0	0	4,406374	3,7455	15,39	-0,139	86,249	0	1012,36	6,3	8,5	8,2	1	1	1	1	1	1	1	1	1	0	1	-4,016913	273,72313	314,277524	0
15.01.2021	08:08:04	0	0	2,146682	3,70875	12,8484	-0,136	86,242	0	1012,36	6,3	8,5	8,3	1	1	1	1	1	1	1	1	1	0	1	-13,601128	273,680738	304,496176	0
15.01.2021	08:08:05	0	0	5,084278	3,885	18,8208	-0,139	86,233	0	1012,2	6,3	8,5	8,2	1	1	1	1	1	1	1	1	1	0	1	-12,403101	273,806726	306,280345	0
15.01.2021	08:08:06	0	0	3,163532	4,02975	19,1484	-0,134	86,221	0	1012,32	6,3	8,5	8,3	1	1	1	1	1	1	1	1	1	0	1	-8,386187	273,712889	309,860618	0
15.01.2021	08:08:07	0	0	2,937565	3,70575	15,0228	-0,136	86,218	0	1012,38	6,3	8,5	8,3	1	1	1	1	1	1	1	1	1	0	1	-7,329105	273,808195	311,361184	0
15.01.2021	08:08:08	0	0	5,197231	3,76125	21,3876	-0,14	86,233	0	1012,4	6,3	8,5	8,3	1	1	1	1	1	1	1	1	1	0	1	-12,332629	273,814076	306,385039	0
15.01.2021	08:08:09	0	0	4,858252	3,77025	23,976	-0,143	86,239	0	1012,3	6,3	8,5	8,4	1	1	1	1	1	1	1	1	1	0	1	-7,610994	273,852343	311,284881	0
15.01.2021	08:08:10	0	0	5,423197	3,76275	21,7728	-0,137	86,231	0	1012,3	6,3	8,5	8,3	1	1	1	1	1	1	1	1	1	0	1	-7,82241	273,806726	310,861036	0
15.01.2021	08:08:11	0	0	3,050548	3,85575	34,6968	-0,141	86,228	0	1012,22	6,3	8,5	8,3	1	1	1	1	1	1	1	1	1	0	1	-5,21494	273,792033	313,400111	0
15.01.2021	08:08:12	0	0	3,615465	3,70125	17,226	-0,139	86,22	0	1012,12	6,3	8,5	8,3	1	1	1	1	1	1	1	1	1	0	1	-8,80902	273,847923	310,06627	0
15.01.2021	08:08:13	0	0	3,502482	3,41775	24,336	-0,137	86,23	0	1012,38	6,3	8,5	8,3	1	1	1	1	1	1	1	1	1	0	1	-5,84919	273,806726	312,834257	0
15.01.2021	08:08:14	0	0	3,502482	3,4785	35,1144	-0,137	86,235	0	1012,36	6,3	8,5	8,3	1	1	1	1	1	1	1	1	1	0	1	-9,725159	273,858237	309,19817	0
15.01.2021	08:08:15	0	0	2,937583	3,6735	34,3332	-0,139	86,227	0	1012,34	6,3	8,5	8,2	1	1	1	1	1	1	1	1	1	0	1	-12,191684	273,777352	306,355034	0
15.01.2021	08:08:16	0	0	2,598615	3,8025	35,0928	-0,138	86,233	0	1012,3	6,3	8,5	8,3	1	1	1	1	1	1	1	1	1	0	1	-7,258633	273,837616	311,56865	0
15.01.2021	08:08:17	0	0	4,519304	3,6435	35,8524	-0,138	86,243	0	1012,22	6,3	8,5	8,4	1	1	1	1	1	1	1	1	1	0	1	-9,161381	273,825842	309,611073	0
15.01.2021	08:08:18	0	0	4,406374	3,5115	26,2728	-0,138	86,236	0	1012,36	6,3	8,5	8,2	1	1	1	1	1	1	1	1	1	0	1	-7,047216	273,728984	311,274453	0
15.01.2021	08:08:19	0	0	4,067422	3,291	31,0104	-0,138	86,234	0	1012,32	6,4	8,5	8,2	1	1	1	1	1	1	1	1	1	0	1	-8,45666	273,720203	309,824165	0
15.01.2021	08:08:20	0	0	4,858281	2,99175	32,5044	-0,133	86,23	0	1012,34	6,3	8,5	8,3	1	1	1	1	1	1	1	1	1	0	1	-1,832276	273,680738	316,265027	0
15.01.2021	08:08:21	0	0	4,406321	2,80125	17,6976	-0,133	86,219	0	1012,32	6,3	8,5	8,4	1	1	1	1	1	1	1	1	1	0	1	-5,567301	273,720203	312,713524	0
15.01.2021	08:08:22	0	0	4,519331	2,778	19,8936	-0,137	86,213	0	1012,3	6,3	8,5	8,3	1	1	1	1	1	1	1	1	1	0	1	-7,188161	273,721667	311,09947	0
15.01.2021	08:08:23	0	0	2,598615	2,80875	29,0988	-0,133	86,221	0	1012,18	6,3	8,5	8,3	1	1	1	1	1	1	1	1	1	0	1	-5,919662	273,682198	312,184431	0
15.01.2021	08:08:24	0	0	4,067398	2,796	19,8936	-0,128	86,226	0	1012,52	6,3	8,5	8,3	1	1	1	1	1	1	1	1	1	0	1	-7,047216	273,803786	311,622546	0
15.01.2021	08:08:25	0	0	4,519331	2,65425	16,8624	-0,132	86,211	0	1012,28	6,3	8,5	8,3	1	1	1	1	1	1	1	1	1	0	1	-2,818887	273,673438	315,244482	0
15.01.2021	08:08:26	0	0	4,180381	2,634	16,2072	-0,128	86,224	0	1012,38	6,3	8,5	8,3	1	1	1	1	1	1	1	1	1	0	1	-9,936575	273,800847	308,719505	0
15.01.2021	08:08:27	0	0	4,632314	2,718	19,134	-0,133	86,221	0	1012,24	6,3	8,5	8,3	1	1	1	1	1	1	1	1	1	0	1	-8,386187	273,855289	310,523413	0
15.01.2021	08:08:28	0	0	3,163551	2,7405	20,9988	-0,133	86,224	0	1012,26	6,3	8,5	8,2	1	1	1	1	1	1	1	1	1	0	1	-6,765328	273,815546	311,959186	0
15.01.2021	08:08:29	0	0	4,519331	2,637	22,4784	-0,14	86,232	0	1012,22	6,3	8,5	8,3	1	1	1	1	1	1	1	1	1	0	1	-6,8358	273,811135	311,868177	0
15.01.2021	08:08:30	0	0	4,858281	2,628	21,006	-0,132	86,228	0	1012,3	6,3	8,5	8,3	1	1	1	1	1	1	1	1	1	0	1	-10,007047	273,853816	308,89569	0
15.01.2021	08:08:31	0	0	3,954438	2,58525	18,846	-0,134	86,205	0	1012,32	6,3	8,5	8,2	1	1	1	1	1	1	1	1	1	0	1	-11,06413	273,733377	307,27797	0
15.01.2021	08:08:32	0	0	4,180381	2,60175	18,4644	-0,131	86,224	0	1012,18	6,3	8,5	8,3	1	1	1	1	1	1	1	1	1	0	1	-12,05074	273,858237	306,872589	0
15.01.2021	08:08:33	0	0	4,745298	2,619	22,4928	-0,133	86,227	0	1012,46	6,3	8,5	8,3	1	1	1	1	1	1	1	1	1	0	1	-5,637773	273,749489	312,779288	0
15.01.2021	08:08:34	0	0	3,050548	2,913	16,4736	-0,133	86,21	0	1012,32	6,3	8,5	8,3	1	1	1	1	1	1	1	1	1	0	1	-8,949965	273,853816	309,952772	0
15.01.2021	08:08:35	0	0	4,180381	3,198	22,8456	-0,132	86,215	0	1012,4	6,4	8,5	8,3	1	1	1	1	1	1	1	1	1	0	1	-11,698379	273,808195	306,99191	0
15.01.2021	08:08:36	0	0	3,050567	3,19575	21,7728	-0,13	86,22	0	1012,34	6,3	8,5	8,2	1	1	1	1	1	1	1	1	1	0	1	-9,090909	273,858237	309,83242	0
15.01.2021	08:08:37	0	0	3,841431	3,23775	4,8492	-0,131	86,222	0	1012,34	6,3	8,5	8,3	1	1	1	1	1	1	1	1	1	0	1	-4,298802	273,750955	314,125078	0
15.01.2021	08:08:38	0	0	2,485632	3,327	15,048	-0,13	86,225	0	1012,4	6,3	8,5	8,3	1	1	1	1	1	1	1	1	1	0	1	-6,272023	273,683659	311,83886	0
15.01.2021	08:08:39	0	0	3,389519	3,50025	20,268	-0,134	86,214	0	1012,36	6,3	8,5	8,2	1	1	1	1	1	1	1	1	1	0	1	-5,919662	273,69973	312,265947	0
15.01.2021	08:08:40	0	0	2,711599	3,35625	12,474	-0,133	86,214	0	1012,22	6,3	8,5	8,3	1	1	1	1	1	1	1	1	1	0	1	-16,420014	273,839088	302,414125	0
15.01.2021	08:08:41	0	0	3,728471	3,41775	13,5432	-0,135	86,213	0	1012,42	6,3	8,5	8,2	1	1	1	1	1	1	1	1	1	0	1	-7,117689	273,837616	311,709594	0
15.01.2021	08:08:42	0	0	2,937548	3,2295	18,0828	-0,128	86,2	0	1012,26	6,4	8,5	8,4	1	1	1	1	1	1	1	1	1	0	1	-8,033827	273,815546	310,690687	0
15.01.2021	08:08:43	0	0	4,180381	3,03375	18,0972	-0,132	86,209	0	1012,32	6,3	8,5	8,3	1	1	1	1	1	1	1	1	1	0	1	-8,80902	273,856763	310,107444	0
15.01.2021	08:08:44	0	0	3,502482	3,01725	7,884	-0,13	86,212	0	1012,18	6,3	8,5	8,3	1	1	1	1	1	1	1	1	1	0	1	-12,896406	273,734841	305,452506	0
15.01.2021	08:08:45	0	0	4,858281	3,09975	10,476	-0,132	86,191	0	1012,32	6,3	8,5	8,3	1	1	1	1	1	1	1	1	1	0	1	-9,020437	273,802317	309,642484	0
15.01.2021	08:08:46	0	0	2,485632	2,95125	5,22	-0,132	86,211	0	1012,32	6,3	8,5	8,3	1	1	1	1	1	1	1	1	1	0	1	-7,258633	273,877405	311,753994	0
15.01.2021	08:08:47	0	0	3,163532	3,0105	16,11	-0,133	86,217	0	1012,4	6,3	8,5	8,3	1	1	1	1	1	1	1	1	1	0	1	-5,778717	273,818487	312,959491	0
15.01.2021	08:08:48	0	0	4,632314	3,0795	13,932	-0,129	86,217	0	1012,34	6,3	8,5	8,3	1	1	1	1	1	1	1	1	1	0	1	-6,131078	273,855289	312,778522	0
15.01.2021	08:08:49	0	0	4,293365	3,108	11,7036	-0,129	86,221	0	1012,32	6,3	8,5	8,3	1	1	1	1	1	1	1	1	1	0	1	-3,946441	273,817017	314,784919	0
15.01.2021	08:08:50	0	0	3,050548	2,805	7,524	-0,137	86,219	0	1012,42	6,3	8,5	8,3	1	1	1	1	1	1	1	1	1	0	1	-5,778717	273,858237	313,144611	0
15.01.2021	08:08:51	0	0	2,259666	2,712	11,7144	-0,136	86,207	0	1012,3	6,3	8,5	8,3	1	1	1	1	1	1	1	1	1	0	1	-8,315715	273,734841	310,033196	0
15.01.2021	08:08:52	0	0	4,632314	2,71275	17,2476	-0,126	86,225	0	1012,32	6,3	8,5	8,3	1	1	1	1	1	1	1	1	1	0	1	-4,157858	273,794971	314,470867	0
15.01.2021	08:08:53	0	0	2,937565	2,6205	26,1648	-0,13	86,202	0	1012,38	6,3	8,5	8,3	1	1	1	1	1	1	1	1	1	0	1	-6,272023	273,84056	312,568973	0
15.01.2021	08:08:54	0	0	2,598615	2,56425	19,9152	-0,126	86,225	0	1012,32	6,3	8,5	8,3	1	1	1	1	1	1	1	1	1	0	1	-8,597604	273,717277	309,669611	0
15.01.2021	08:08:55	0	0	4,632314	2,53125	19,8972	-0,129	86,208	0	1012,38	6,3	8,5	8,3	1	1	1	1	1	1	1	1	1	0	1	-7,470049	273,875929	311,535704	0
15.01.2021	08:08:56	0	0	4,406348	2,568	31,032	-0,132	86,216	0	1012,22	6,3	8,5	8,3	1	1	1	1	1	1	1	1	1	0	1	-8,386187	273,762683	310,092262	0
15.01.2021	08:08:57	0	0	2,711599	2,6745	31,41	-0,128	86,207	0	1012,34	6,3	8,5	8,3	1	1	1	1	1	1	1	1	1	0	1	-7,258633	273,865607	311,699029	0
15.01.2021	08:08:58	0	0	4,293365	2,71425	23,9796	-0,131	86,209	0	1012,26	6,3	8,5	8,3	1	1	1	1	1	1	1	1	1	0	1	-5,637773	273,815546	313,086741	0
15.01.2021	08:08:59	0	0	3,389498	2,8095	33,714	-0,126	86,204	0	1012,26	6,4	8,5	8,3	1	1	1	1	1	1	1	1	1	0	1	-7,188161	273,702653	311,011043	0
15.01.2021	08:09:00	0	0	4,067398	2,7885	34,3332	-0,126	86,197	0	1012,38	6,3	8,5	8,3	1	1	1	1	1	1	1	1	1	0	1	-3,523608	273,701191	314,668798	0
15.01.2021	08:09:01	0	0	4,067398	2,7885	34,3332	-0,126	86,197	0	1012,38	6,3	8,5	8,3	1	1	1	1	1	1	1	1	1	0	1	-3,523608	273,701191	314,668798	0
15.01.2021	08:09:02	0	0	4,971264	2,83425	16,8696	-0,128	86,212	0	1012,3	6,3	8,5	8,3	1	1	1	1	1	1	1	1	1	0	1	-4,087385	273,880355	314,938989	0
15.01.2021	08:09:03	0	0	3,276535	2,94375	27,2592	-0,125	86,195	0	1012,4	6,3	8,5	8,2	1	1	1	1	1	1	1	1	1	0	1	-3,946441	273,75242	314,484257	0
15.01.2021	08:09:04	0	0	4,293365	2,919	23,9796	-0,134	86,211	0	1012,34	6,3	8,5	8,3	1	1	1	1	1	1	1	1	1	0	1	-7,258633	273,867081	311,705897	0
15.01.2021	08:09:05	0	0	4,519331	2,8365	18,8424	-0,125	86,188	0	1012,3	6,3	8,5	8,3	1	1	1	1	1	1	1	1	1	0	1	-3,523608	273,753886	314,91391	0
15.01.2021	08:09:06	0	0	3,163532	2,76825	20,6388	-0,127	86,198	0	1012,36	6,3	8,5	8,3	1	1	1	1	1	1	1	1	1	0	1	-1,902748	273,853816	316,999989	0
15.01.2021	08:09:07	0	0	3,276515	2,63625	30,8016	-0,126	86,209	0	1012,36	6,3	8,5	8,3	1	1	1	1	1	1	1	1	1	0	1	-7,188161	273,750955	311,235719	0
15.01.2021	08:09:08	0	0	4,632314	2,5275	14,3064	-0,129	86,204	0	1012,28	6,3	8,5	8,3	1	1	1	1	1	1	1	1	1	0	1	-4,933051	273,855289	313,976549	0
15.01.2021	08:09:09	0	0	2,937565	2,52975	14,31	-0,116	86,199	0	1012,42	6,3	8,5	8,3	1	1	1	1	1	1	1	1	1	0	1	-3,946441	273,849396	314,93571	0
15.01.2021	08:09:10	0	0	3,502482	2,5455	16,8588	-0,124	86,201	0	1012,42	6,4	8,5	8,3	1	1	1	1	1	1	1	1	1	0	1	-5,84919	273,709964	312,384012	0
15.01.2021	08:09:11	0	0	2,598615	2,68575	24,336	-0,13	86,186	0	1012,36	6,3	8,5	8,3	1	1	1	1	1	1	1	1	1	0	1	-7,117689	273,837616	311,709594	0
15.01.2021	08:09:12	0	0	2,711599	2,8665	18,4536	-0,129	86,198	0	1012,28	6,3	8,5	8,3	1	1	1	1	1	1	1	1	1	0	1	-8,668076	273,808195	310,022213	0
15.01.2021	08:09:13	0	0	3,502482	2,94075	14,022	-0,132	86,206	0	1012,1	6,4	8,5	8,3	1	1	1	1	1	1	1	1	1	0	1	-4,933051	273,867081	314,031478	0
15.01.2021	08:09:14	0	0	4,067398	2,91825	10,8324	-0,124	86,195	0	1012,38	6,4	8,5	8,3	1	1	1	1	1	1	1	1	1	0	1	-2,959831	273,742164	315,423148	0
15.01.2021	08:09:15	0	0	2,598615	2,889	6,0696	-0,123	86,205	0	1012,38	6,4	8,5	8,3	1	1	1	1	1	1	1	1	1	0	1	-4,651163	273,731912	313,684126	0
15.01.2021	08:09:16	0	0	4,632314	2,96025	22,8384	-0,122	86,21	0	1012,32	6,4	8,5	8,3	1	1	1	1	1	1	1	1	1	0	1	-3,382664	273,842033	315,46519	0
15.01.2021	08:09:17	0	0	4,293365	3,045	26,892	-0,13	86,204	0	1012,34	6,4	8,5	8,3	1	1	1	1	1	1	1	1	1	0	1	-9,936575	273,861184	309,000485	0
15.01.2021	08:09:18	0	0	2,937565	2,90625	29,9448	-0,13	86,192	0	1012,3	6,3	8,5	8,3	1	1	1	1	1	1	1	1	1	0	1	-6,272023	273,720203	312,008802	0
15.01.2021	08:09:19	0	0	3,389498	2,80575	20,2896	-0,121	86,19	0	1012,22	6,3	8,5	8,3	1	1	1	1	1	1	1	1	1	0	1	-6,272023	273,753886	312,165496	0
15.01.2021	08:09:20	0	0	4,180381	2,77575	15,3972	-0,122	86,188	0	1012,24	6,4	8,5	8,3	1	1	1	1	1	1	1	1	1	0	1	-6,131078	273,865607	312,826583	0
15.01.2021	08:09:21	0	0	3,389498	2,93025	19,1556	-0,123	86,199	0	1012,22	6,4	8,5	8,3	1	1	1	1	1	1	1	1	1	0	1	-4,087385	273,812606	314,623437	0
15.01.2021	08:09:22	0	0	2,824582	3,0225	24,7356	-0,122	86,205	0	1012,14	6,3	8,5	8,3	1	1	1	1	1	1	1	1	1	0	1	-7,963354	273,711426	310,276648	0
15.01.2021	08:09:23	0	0	4,519331	3,072	19,1412	-0,128	86,177	0	1012,52	6,3	8,5	8,3	1	1	1	1	1	1	1	1	1	0	1	-6,060606	273,808195	312,629683	0
15.01.2021	08:09:24	0	0	4,406348	3,06975	16,848	-0,124	86,2	0	1012,3	6,3	8,5	8,3	1	1	1	1	1	1	1	1	1	0	1	-8,104299	273,881831	310,92895	0
15.01.2021	08:09:25	0	0	3,728448	3,11325	14,4072	-0,124	86,183	0	1012,26	6,4	8,5	8,3	1	1	1	1	1	1	1	1	1	0	1	-8,104299	273,77295	310,421932	0
15.01.2021	08:09:26	0	0	2,598615	3,186	14,67	-0,123	86,189	0	1012,32	6,4	8,5	8,3	1	1	1	1	1	1	1	1	1	0	1	-4,016913	273,73777	314,345623	0
15.01.2021	08:09:27	0	0	4,067398	3,40275	16,8552	-0,126	86,176	0	1012,44	6,3	8,5	8,3	1	1	1	1	1	1	1	1	1	0	1	-7,117689	273,875929	311,888065	0
15.01.2021	08:09:28	0	0	3,502482	3,84825	23,5908	-0,122	86,178	0	1012,4	6,3	8,5	8,3	1	1	1	1	1	1	1	1	1	0	1	-9,936575	273,756818	308,514584	0
15.01.2021	08:09:29	0	0	3,728448	4,005	18,4572	-0,125	86,185	0	1012,36	6,3	8,5	8,3	1	1	1	1	1	1	1	1	1	0	1	-8,174771	273,68658	309,949692	0
15.01.2021	08:09:30	0	0	3,502482	4,1325	11,1996	-0,127	86,159	0	1012,38	6,3	8,5	8,3	1	1	1	1	1	1	1	1	1	0	1	-10,42988	273,726057	307,878172	0
15.01.2021	08:09:31	0	0	4,519331	4,15575	9,7524	-0,122	86,18	0	1012,28	6,4	8,5	8,3	1	1	1	1	1	1	1	1	1	0	1	-3,030303	273,87003	315,947966	0
15.01.2021	08:09:32	0	0	2,711599	4,1985	14,9832	-0,122	86,184	0	1012,36	6,3	8,5	8,3	1	1	1	1	1	1	1	1	1	0	1	-7,047216	273,73777	311,31532	0
15.01.2021	08:09:33	0	0	3,502482	4,116	15,7932	-0,125	86,179	0	1012,4	6,3	8,5	8,3	1	1	1	1	1	1	1	1	1	0	1	-5,003524	273,872979	313,988486	0
15.01.2021	08:09:34	0	0	4,858281	4,0365	17,2296	-0,127	86,168	0	1012,3	6,4	8,5	8,3	1	1	1	1	1	1	1	1	1	0	1	-5,285412	273,78616	313,302298	0
15.01.2021	08:09:35	0	0	4,519331	3,88275	19,9008	-0,127	86,186	0	1012,44	6,4	8,5	8,3	1	1	1	1	1	1	1	1	1	0	1	-4,087385	273,87888	314,932115	0
15.01.2021	08:09:36	0	0	4,406348	3,84225	25,0488	-0,12	86,166	0	1012,26	6,4	8,5	8,3	1	1	1	1	1	1	1	1	1	0	1	-4,016913	273,701191	314,175493	0
15.01.2021	08:09:37	0	0	4,858281	3,7725	19,53	-0,122	86,186	0	1012,5	6,3	8,5	8,3	1	1	1	1	1	1	1	1	1	0	1	-9,584214	273,828785	309,201944	0
15.01.2021	08:09:38	0	0	2,824582	3,69675	24,7104	-0,123	86,168	0	1012,34	6,3	8,5	8,3	1	1	1	1	1	1	1	1	1	0	1	-4,510218	273,712889	313,736587	0
15.01.2021	08:09:39	0	0	2,824582	3,56775	12,0996	-0,123	86,178	0	1012,36	6,4	8,5	8,3	1	1	1	1	1	1	1	1	1	0	1	-10,007047	273,808195	308,683242	0
15.01.2021	08:09:40	0	0	3,050548	3,756	15,7716	-0,119	86,174	0	1012,3	6,4	8,5	8,3	1	1	1	1	1	1	1	1	1	0	1	-11,205074	273,707039	307,014526	0
15.01.2021	08:09:41	0	0	4,745298	3,67575	8,262	-0,121	86,171	0	1012,4	6,4	8,5	8,3	1	1	1	1	1	1	1	1	1	0	1	-1,198027	273,831728	317,601837	0
15.01.2021	08:09:42	0	0	3,728448	3,636	9,3672	-0,119	86,175	0	1012,34	6,4	8,5	8,3	1	1	1	1	1	1	1	1	1	0	1	-4,087385	273,811135	314,616592	0
15.01.2021	08:09:43	0	0	4,745298	3,5835	16,8516	-0,122	86,157	0	1012,34	6,3	8,5	8,3	1	1	1	1	1	1	1	1	1	0	1	-3,523608	273,702653	314,675595	0
15.01.2021	08:09:44	0	0	3,728448	3,28425	6,066	-0,125	86,162	0	1012,54	6,4	8,5	8,3	1	1	1	1	1	1	1	1	1	0	1	-10,500352	273,693884	307,658074	0
15.01.2021	08:09:45	0	0	4,067398	3,04275	14,3136	-0,119	86,167	0	1012,4	6,4	8,5	8,3	1	1	1	1	1	1	1	1	1	0	1	-4,721635	273,742164	313,661344	0
15.01.2021	08:09:46	0	0	3,050548	3,09525	13,1616	-0,12	86,162	0	1012,5	6,3	8,5	8,3	1	1	1	1	1	1	1	1	1	0	1	-7,540521	273,715814	310,71989	0
15.01.2021	08:09:47	0	0	3,728448	3,35025	10,0512	-0,121	86,168	0	1012,48	6,4	8,5	8,3	1	1	1	1	1	1	1	1	1	0	1	-7,610994	273,836144	311,209433	0
15.01.2021	08:09:48	0	0	3,502482	3,594	9,7452	-0,123	86,163	0	1012,4	6,4	8,5	8,3	1	1	1	1	1	1	1	1	1	0	1	-7,258633	273,831728	311,541231	0
15.01.2021	08:09:49	0	0	4,858281	3,6165	16,8624	-0,115	86,159	0	1012,22	6,4	8,5	8,3	1	1	1	1	1	1	1	1	1	0	1	-5,990134	273,707039	312,229467	0
15.01.2021	08:09:50	0	0	3,389498	3,6375	28,3428	-0,118	86,154	0	1012,38	6,3	8,5	8,3	1	1	1	1	1	1	1	1	1	0	1	-12,191684	273,756818	306,259475	0
15.01.2021	08:09:51	0	0	3,050548	3,53175	14,31	-0,118	86,166	0	1012,34	6,4	8,5	8,3	1	1	1	1	1	1	1	1	1	0	1	-3,664553	273,715814	314,595859	0
15.01.2021	08:09:52	0	0	3,615465	3,312	24,7248	-0,123	86,151	0	1012,28	6,4	8,5	8,3	1	1	1	1	1	1	1	1	1	0	1	-1,409443	273,770016	317,103133	0
15.01.2021	08:09:53	0	0	4,180381	3,09525	15,7752	-0,13	86,154	0	1012,32	6,3	8,5	8,3	1	1	1	1	1	1	1	1	1	0	1	-9,654686	273,883306	309,385438	0
15.01.2021	08:09:54	0	0	2,937565	2,9925	13,158	-0,123	86,166	0	1012,32	6,4	8,5	8,3	1	1	1	1	1	1	1	1	1	0	1	-10,923185	273,739234	307,446165	0
15.01.2021	08:09:55	0	0	4,519331	3,17175	5,2236	-0,118	86,157	0	1012,32	6,4	8,5	8,3	1	1	1	1	1	1	1	1	1	0	1	-3,946441	273,742164	314,436537	0
15.01.2021	08:09:56	0	0	4,519331	3,21075	9,3636	-0,117	86,158	0	1012,4	6,4	8,5	8,3	1	1	1	1	1	1	1	1	1	0	1	-8,668076	273,884782	310,378924	0
15.01.2021	08:09:57	0	0	3,728448	3,16725	10,4364	-0,117	86,164	0	1012,44	6,4	8,5	8,3	1	1	1	1	1	1	1	1	1	0	1	-8,386187	273,762683	310,092262	0
15.01.2021	08:09:58	0	0	2,937565	3,11775	7,1352	-0,116	86,157	0	1012,4	6,4	8,5	8,3	1	1	1	1	1	1	1	1	1	0	1	-8,315715	273,698268	309,863097	0
15.01.2021	08:09:59	0	0	3,163532	3,08625	8,9784	-0,119	86,143	0	1012,36	6,4	8,5	8,3	1	1	1	1	1	1	1	1	1	0	1	-9,513742	273,827313	309,265564	0
15.01.2021	08:10:00	0	0	2,937565	3,294	2,7288	-0,116	86,156	0	1012,24	6,4	8,5	8,3	1	1	1	1	1	1	1	1	1	0	1	-7,892882	273,896591	311,20915	0
15.01.2021	08:10:01	0	0	2,937565	3,294	2,7288	-0,116	86,156	0	1012,24	6,4	8,5	8,3	1	1	1	1	1	1	1	1	1	0	1	-7,892882	273,896591	311,20915	0
15.01.2021	08:10:02	0	0	3,502482	2,95575	23,5692	-0,118	86,142	0	1012,36	6,4	8,5	8,3	1	1	1	1	1	1	1	1	1	0	1	-10,218464	273,825842	308,553991	0
15.01.2021	08:10:03	0	0	4,971264	2,6055	16,8516	-0,12	86,136	0	1012,32	6,4	8,5	8,3	1	1	1	1	1	1	1	1	1	0	1	-6,694856	273,849396	312,187295	0
15.01.2021	08:10:04	0	0	2,485632	2,439	21,024	-0,121	86,148	0	1012,36	6,4	8,5	8,3	1	1	1	1	1	1	1	1	1	0	1	-6,483439	273,836144	312,336988	0
15.01.2021	08:10:05	0	0	3,728448	2,3685	12,852	-0,121	86,15	0	1012,42	6,4	8,5	8,3	1	1	1	1	1	1	1	1	1	0	1	-6,765328	273,69973	311,420281	0
15.01.2021	08:10:06	0	0	3,276515	2,475	5,2164	-0,123	86,149	0	1012,24	6,4	8,5	8,3	1	1	1	1	1	1	1	1	1	0	1	-8,668076	273,777352	309,878643	0
15.01.2021	08:10:07	0	0	4,406348	2,48625	16,4772	-0,115	86,158	0	1012,4	6,4	8,5	8,3	1	1	1	1	1	1	1	1	1	0	1	-6,976744	273,707039	311,242856	0
15.01.2021	08:10:08	0	0	2,711599	2,871	0,8676	-0,119	86,164	0	1012,34	6,4	8,5	8,3	1	1	1	1	1	1	1	1	1	0	1	-5,778717	273,8229	312,980037	0
15.01.2021	08:10:09	0	0	2,485632	3,23325	9,3636	-0,119	86,146	0	1012,28	6,4	8,5	8,3	1	1	1	1	1	1	1	1	1	0	1	-2,818887	273,702653	315,380317	0
15.01.2021	08:10:10	0	0	4,406348	3,591	10,0692	-0,114	86,14	0	1012,44	6,4	8,6	8,3	1	1	1	1	1	1	1	1	1	0	1	-7,82241	273,844978	311,03916	0
15.01.2021	08:10:11	0	0	4,293365	3,59775	358,4196	-0,112	86,141	0	1012,32	6,4	8,5	8,3	1	1	1	1	1	1	1	1	1	0	1	-4,439746	273,77295	314,086485	0
15.01.2021	08:10:12	0	0	2,711599	3,237	6,804	-0,114	86,145	0	1012,4	6,4	8,5	8,3	1	1	1	1	1	1	1	1	1	0	1	-5,919662	273,877405	313,092965	0
15.01.2021	08:10:13	0	0	4,745298	2,79975	18,09	-0,114	86,142	0	1012,38	6,4	8,5	8,3	1	1	1	1	1	1	1	1	1	0	1	-6,694856	273,71874	311,579164	0
15.01.2021	08:10:14	0	0	3,276515	2,63325	19,1304	-0,123	86,139	0	1012,42	6,4	8,5	8,3	1	1	1	1	1	1	1	1	1	0	1	-1,198027	273,743629	317,191767	0
15.01.2021	08:10:15	0	0	3,841431	2,6355	16,488	-0,108	86,158	0	1012,42	6,3	8,5	8,3	1	1	1	1	1	1	1	1	1	0	1	-5,21494	273,847923	313,66035	0
15.01.2021	08:10:16	0	0	4,180381	2,84025	18,45	-0,117	86,153	0	1012,26	6,4	8,5	8,3	1	1	1	1	1	1	1	1	1	0	1	-11,839323	273,87888	307,180177	0
15.01.2021	08:10:17	0	0	4,745298	2,958	15,0408	-0,113	86,153	0	1012,4	6,4	8,5	8,3	1	1	1	1	1	1	1	1	1	0	1	-6,976744	273,809665	311,720389	0
15.01.2021	08:10:18	0	0	4,519331	3,003	18,45	-0,112	86,15	0	1012,32	6,4	8,5	8,3	1	1	1	1	1	1	1	1	1	0	1	-7,681466	273,875929	311,324288	0
15.01.2021	08:10:19	0	0	4,293365	3,12075	34,6932	-0,112	86,143	0	1012,34	6,4	8,5	8,3	1	1	1	1	1	1	1	1	1	0	1	-9,090909	273,761216	309,380717	0
15.01.2021	08:10:20	0	0	4,519331	3,027	22,0752	-0,117	86,135	0	1012,28	6,4	8,5	8,3	1	1	1	1	1	1	1	1	1	0	1	-2,889359	273,721667	315,398272	0
15.01.2021	08:10:21	0	0	4,858281	2,9385	23,2272	-0,113	86,144	0	1012,42	6,4	8,5	8,3	1	1	1	1	1	1	1	1	1	0	1	-9,090909	273,842033	309,756944	0
15.01.2021	08:10:22	0	0	3,841431	2,736	22,8276	-0,12	86,145	0	1012,5	6,4	8,5	8,3	1	1	1	1	1	1	1	1	1	0	1	-5,84919	273,73777	312,513347	0
15.01.2021	08:10:23	0	0	3,841431	2,58975	18,0864	-0,114	86,159	0	1012,36	6,4	8,5	8,3	1	1	1	1	1	1	1	1	1	0	1	-5,990134	273,728984	312,331536	0
15.01.2021	08:10:24	0	0	3,050548	2,54475	15,3864	-0,115	86,137	0	1012,38	6,4	8,5	8,3	1	1	1	1	1	1	1	1	1	0	1	-5,144468	273,8229	313,614286	0
15.01.2021	08:10:25	0	0	4,406348	2,67225	16,092	-0,116	86,138	0	1012,44	6,4	8,5	8,3	1	1	1	1	1	1	1	1	1	0	1	-5,84919	273,701191	312,343216	0
15.01.2021	08:10:26	0	0	3,502482	2,7795	20,2788	-0,114	86,14	0	1012,26	6,4	8,5	8,3	1	1	1	1	1	1	1	1	1	0	1	-1,832276	273,768549	316,673473	0
15.01.2021	08:10:27	0	0	4,180381	2,83275	9,432	-0,109	86,139	0	1012,42	6,4	8,5	8,3	1	1	1	1	1	1	1	1	1	0	1	-5,990134	273,867081	312,974396	0
15.01.2021	08:10:28	0	0	4,293365	2,7975	8,2584	-0,12	86,13	0	1012,2	6,4	8,5	8,3	1	1	1	1	1	1	1	1	1	0	1	-5,073996	273,896591	314,028036	0
15.01.2021	08:10:29	0	0	3,389498	2,895	19,8972	-0,113	86,149	0	1012,26	6,4	8,5	8,3	1	1	1	1	1	1	1	1	1	0	1	-7,610994	273,774418	310,922066	0
15.01.2021	08:10:30	0	0	4,519331	2,8335	9,7596	-0,113	86,125	0	1012,16	6,4	8,5	8,3	1	1	1	1	1	1	1	1	1	0	1	-3,171247	273,721667	315,116383	0
15.01.2021	08:10:31	0	0	3,728448	2,78625	9,36	-0,11	86,127	0	1012,16	6,4	8,5	8,3	1	1	1	1	1	1	1	1	1	0	1	-9,302326	273,746559	309,101101	0
15.01.2021	08:10:32	0	0	4,519331	2,62125	9,378	-0,115	86,133	0	1012,26	6,4	8,5	8,3	1	1	1	1	1	1	1	1	1	0	1	-7,963354	273,775885	310,576534	0
15.01.2021	08:10:33	0	0	4,293365	2,37	12,0816	-0,115	86,131	0	1012,38	6,4	8,6	8,3	1	1	1	1	1	1	1	1	1	0	1	-7,963354	273,87888	311,056146	0
15.01.2021	08:10:34	0	0	4,406348	2,44575	5,6772	-0,112	86,135	0	1012,18	6,4	8,5	8,3	1	1	1	1	1	1	1	1	1	0	1	-4,580691	273,777352	313,966028	0
15.01.2021	08:10:35	0	0	2,937565	2,47425	19,5156	-0,111	86,123	0	1012,34	6,4	8,5	8,3	1	1	1	1	1	1	1	1	1	0	1	-8,315715	273,721667	309,971915	0
15.01.2021	08:10:36	0	0	4,293365	2,433	18,0792	-0,112	86,122	0	1012,54	6,4	8,5	8,3	1	1	1	1	1	1	1	1	1	0	1	-8,104299	273,836144	310,716128	0
15.01.2021	08:10:37	0	0	2,937565	2,48025	17,7048	-0,112	86,124	0	1012,52	6,4	8,5	8,3	1	1	1	1	1	1	1	1	1	0	1	-5,637773	273,837616	313,189509	0
15.01.2021	08:10:38	0	0	3,276515	2,55075	23,58	-0,114	86,13	0	1012,38	6,4	8,5	8,3	1	1	1	1	1	1	1	1	1	0	1	-8,386187	273,726057	309,921865	0
15.01.2021	08:10:39	0	0	3,276515	2,48475	12,0852	-0,11	86,13	0	1012,44	6,4	8,5	8,3	1	1	1	1	1	1	1	1	1	0	1	-5,990134	273,814076	312,727534	0
15.01.2021	08:10:40	0	0	3,615465	2,4975	7,128	-0,111	86,128	0	1012,54	6,4	8,5	8,3	1	1	1	1	1	1	1	1	1	0	1	-5,919662	273,734841	312,42925	0
15.01.2021	08:10:41	0	0	4,180381	2,49975	24,7104	-0,115	86,135	0	1012,32	6,4	8,5	8,3	1	1	1	1	1	1	1	1	1	0	1	-7,470049	273,839088	311,364089	0
15.01.2021	08:10:42	0	0	4,632314	2,42625	12,474	-0,114	86,132	0	1012,34	6,4	8,5	8,3	1	1	1	1	1	1	1	1	1	0	1	-6,765328	273,727521	311,549533	0
15.01.2021	08:10:43	0	0	5,084247	2,5155	12,0888	-0,115	86,104	0	1012,22	6,4	8,5	8,3	1	1	1	1	1	1	1	1	1	0	1	-9,090909	273,849396	309,791242	0
15.01.2021	08:10:44	0	0	4,519331	2,586	13,5432	-0,116	86,137	0	1012,36	6,4	8,5	8,3	1	1	1	1	1	1	1	1	1	0	1	-6,20155	273,886258	312,852327	0
15.01.2021	08:10:45	0	0	4,180381	2,83125	17,6472	-0,115	86,124	0	1012,34	6,4	8,5	8,3	1	1	1	1	1	1	1	1	1	0	1	-7,047216	273,85971	311,882978	0
15.01.2021	08:10:46	0	0	2,711599	3,06975	7,506	-0,112	86,125	0	1012,34	6,4	8,5	8,3	1	1	1	1	1	1	1	1	1	0	1	-5,144468	273,837616	313,682815	0
15.01.2021	08:10:47	0	0	2,824582	3,1695	18,4572	-0,114	86,098	0	1012,36	6,4	8,5	8,3	1	1	1	1	1	1	1	1	1	0	1	-9,584214	273,88921	309,483418	0
15.01.2021	08:10:48	0	0	4,971264	3,015	18,4392	-0,112	86,118	0	1012,52	6,4	8,5	8,3	1	1	1	1	1	1	1	1	1	0	1	-10,641297	273,811135	308,06268	0
15.01.2021	08:10:49	0	0	4,293365	3,08475	18,9432	-0,114	86,123	0	1012,32	6,4	8,5	8,3	1	1	1	1	1	1	1	1	1	0	1	-8,738548	273,715814	309,521863	0
15.01.2021	08:10:50	0	0	4,632314	3,282	21,7476	-0,112	86,121	0	1012,56	6,4	8,6	8,3	1	1	1	1	1	1	1	1	1	0	1	-6,8358	273,730448	311,492679	0
15.01.2021	08:10:51	0	0	2,372649	3,2775	15,786	-0,108	86,129	0	1012,42	6,4	8,5	8,3	1	1	1	1	1	1	1	1	1	0	1	-4,510218	273,809665	314,186914	0
15.01.2021	08:10:52	0	0	3,615465	3,1635	19,9044	-0,11	86,12	0	1012,54	6,4	8,5	8,3	1	1	1	1	1	1	1	1	1	0	1	-5,84919	273,717277	312,418026	0
15.01.2021	08:10:53	0	0	4,406348	3,00225	21,3768	-0,11	86,12	0	1012,48	6,4	8,5	8,3	1	1	1	1	1	1	1	1	1	0	1	-4,792107	273,880355	314,234267	0
15.01.2021	08:10:54	0	0	3,502482	2,95875	21,4056	-0,114	86,115	0	1012,36	6,4	8,5	8,3	1	1	1	1	1	1	1	1	1	0	1	-11,06413	273,731912	307,27116	0
15.01.2021	08:10:55	0	0	3,841431	2,937	23,2272	-0,115	86,117	0	1012,24	6,4	8,5	8,3	1	1	1	1	1	1	1	1	1	0	1	-10,288936	273,819958	308,45612	0
15.01.2021	08:10:56	0	0	4,745298	2,9775	25,4304	-0,112	86,122	0	1012,32	6,4	8,5	8,3	1	1	1	1	1	1	1	1	1	0	1	-7,117689	273,884782	311,929312	0
15.01.2021	08:10:57	0	0	3,615465	2,98725	16,8372	-0,112	86,124	0	1012,44	6,4	8,5	8,3	1	1	1	1	1	1	1	1	1	0	1	-10,711769	273,865607	308,245893	0
15.01.2021	08:10:58	0	0	3,728448	2,99025	24,7212	-0,113	86,125	0	1012,34	6,4	8,6	8,3	1	1	1	1	1	1	1	1	1	0	1	-5,567301	273,828785	313,218857	0
15.01.2021	08:10:59	0	0	4,971264	2,96775	28,3464	-0,114	86,106	0	1012,24	6,4	8,5	8,3	1	1	1	1	1	1	1	1	1	0	1	-9,161381	273,855289	309,748219	0
15.01.2021	08:11:00	0	0	4,858281	2,75025	20,6244	-0,118	86,107	0	1012,28	6,4	8,5	8,3	1	1	1	1	1	1	1	1	1	0	1	-9,513742	273,855289	309,395858	0
15.01.2021	08:11:01	0	0	4,858281	2,75025	20,6244	-0,118	86,107	0	1012,28	6,4	8,5	8,3	1	1	1	1	1	1	1	1	1	0	1	-9,513742	273,855289	309,395858	0
15.01.2021	08:11:02	0	0	4,519331	2,5095	24,714	-0,108	86,119	0	1012,34	6,4	8,6	8,3	1	1	1	1	1	1	1	1	1	0	1	-3,24172	273,756818	315,20944	0
15.01.2021	08:11:03	0	0	4,406348	2,325	14,6376	-0,106	86,116	0	1012,26	6,4	8,5	8,3	1	1	1	1	1	1	1	1	1	0	1	-4,369274	273,903976	314,767173	0
15.01.2021	08:11:04	0	0	3,954415	2,40525	15,786	-0,11	86,104	0	1012,34	6,4	8,6	8,3	1	1	1	1	1	1	1	1	1	0	1	-9,231853	273,783223	309,34219	0
15.01.2021	08:11:05	0	0	2,824582	2,53575	22,0824	-0,113	86,113	0	1012,26	6,4	8,5	8,3	1	1	1	1	1	1	1	1	1	0	1	-7,188161	273,702653	311,011043	0
15.01.2021	08:11:06	0	0	3,954415	2,6055	16,4628	-0,111	86,102	0	1012,36	6,4	8,5	8,3	1	1	1	1	1	1	1	1	1	0	1	-6,553911	273,79644	312,081652	0
15.01.2021	08:11:07	0	0	2,485632	2,62425	24,8184	-0,105	86,099	0	1012,44	6,4	8,6	8,3	1	1	1	1	1	1	1	1	1	0	1	-7,258633	273,726057	311,049419	0
15.01.2021	08:11:08	0	0	2,937565	2,5875	18,8244	-0,105	86,109	0	1012,28	6,4	8,5	8,3	1	1	1	1	1	1	1	1	1	0	1	-9,372798	273,765616	309,119301	0
15.01.2021	08:11:09	0	0	4,858281	2,56275	19,9008	-0,108	86,115	0	1012,72	6,4	8,5	8,3	1	1	1	1	1	1	1	1	1	0	1	-8,386187	273,721667	309,901443	0
15.01.2021	08:11:10	0	0	2,937565	2,5575	17,6976	-0,105	86,102	0	1012,22	6,4	8,5	8,3	1	1	1	1	1	1	1	1	1	0	1	-7,963354	273,780288	310,597026	0
15.01.2021	08:11:11	0	0	3,841431	2,565	18,45	-0,111	86,088	0	1012,52	6,4	8,5	8,3	1	1	1	1	1	1	1	1	1	0	1	-4,862579	273,721667	313,425051	0
15.01.2021	08:11:12	0	0	3,954415	2,5305	12,0924	-0,11	86,094	0	1012,34	6,4	8,5	8,3	1	1	1	1	1	1	1	1	1	0	1	-7,117689	273,871505	311,86745	0
15.01.2021	08:11:13	0	0	3,276515	2,56875	23,9544	-0,105	86,099	0	1012,36	6,4	8,5	8,3	1	1	1	1	1	1	1	1	1	0	1	-6,976744	273,777352	311,569974	0
15.01.2021	08:11:14	0	0	3,728448	2,53875	23,2092	-0,105	86,101	0	1012,3	6,4	8,5	8,3	1	1	1	1	1	1	1	1	1	0	1	-8,386187	273,721667	309,901443	0
15.01.2021	08:11:15	0	0	3,615465	2,529	16,4772	-0,108	86,11	0	1012,44	6,4	8,6	8,3	1	1	1	1	1	1	1	1	1	0	1	-6,976744	273,895115	312,118407	0
15.01.2021	08:11:16	0	0	4,971264	2,5515	25,4124	-0,111	86,097	0	1012,32	6,4	8,5	8,3	1	1	1	1	1	1	1	1	1	0	1	-9,513742	273,73777	308,848794	0
15.01.2021	08:11:17	0	0	3,502482	2,589	27,648	-0,111	86,094	0	1012,38	6,4	8,5	8,3	1	1	1	1	1	1	1	1	1	0	1	-5,778717	273,72313	312,51572	0
15.01.2021	08:11:18	0	0	3,163532	2,75775	22,0932	-0,107	86,104	0	1012,28	6,4	8,6	8,3	1	1	1	1	1	1	1	1	1	0	1	-5,003524	273,843505	313,851188	0
15.01.2021	08:11:19	0	0	4,632314	2,89875	15,0408	-0,108	86,085	0	1012,3	6,4	8,6	8,3	1	1	1	1	1	1	1	1	1	0	1	-8,174771	273,736305	310,180953	0
15.01.2021	08:11:20	0	0	2,937565	2,88525	21,0132	-0,109	86,101	0	1012,34	6,4	8,6	8,3	1	1	1	1	1	1	1	1	1	0	1	-6,131078	273,898068	312,977836	0
15.01.2021	08:11:21	0	0	2,711599	2,89275	23,5764	-0,105	86,099	0	1012,38	6,4	8,5	8,3	1	1	1	1	1	1	1	1	1	0	1	-6,624383	273,84056	312,216612	0
15.01.2021	08:11:22	0	0	4,519331	2,988	24,7212	-0,11	86,096	0	1012,46	6,4	8,5	8,3	1	1	1	1	1	1	1	1	1	0	1	-7,751938	273,707039	310,467662	0
15.01.2021	08:11:23	0	0	2,259666	3,01275	30,6936	-0,106	86,08	0	1012,42	6,4	8,5	8,3	1	1	1	1	1	1	1	1	1	0	1	-8,315715	273,871505	310,669424	0
15.01.2021	08:11:24	0	0	3,841431	3,054	16,0992	-0,105	86,089	0	1012,42	6,4	8,5	8,3	1	1	1	1	1	1	1	1	1	0	1	-8,033827	273,887734	311,026928	0
15.01.2021	08:11:25	0	0	3,615421	3,1185	16,848	-0,106	86,095	0	1012,36	6,4	8,5	8,5	1	1	1	1	1	1	1	1	1	0	1	-4,580691	273,79644	314,054872	0
15.01.2021	08:11:26	0	0	2,711599	3,102	25,0488	-0,103	86,09	0	1012,44	6,4	8,5	8,3	1	1	1	1	1	1	1	1	1	0	1	-7,258633	273,707039	310,960968	0
15.01.2021	08:11:27	0	0	3,389498	3,03975	34,3152	-0,108	86,09	0	1012,2	6,4	8,5	8,3	1	1	1	1	1	1	1	1	1	0	1	-5,496829	273,768549	313,008921	0
15.01.2021	08:11:28	0	0	2,937565	2,92125	31,4064	-0,101	86,091	0	1012,44	6,4	8,5	8,3	1	1	1	1	1	1	1	1	1	0	1	-7,610994	273,886258	311,442884	0
15.01.2021	08:11:29	0	0	3,502482	2,7705	31,392	-0,107	86,095	0	1012,36	6,4	8,6	8,3	1	1	1	1	1	1	1	1	1	0	1	-10,500352	273,815546	308,224161	0
15.01.2021	08:11:30	0	0	4,180381	2,559	25,038	-0,105	86,084	0	1012,3	6,4	8,6	8,3	1	1	1	1	1	1	1	1	1	0	1	-7,470049	273,872979	311,52196	0
15.01.2021	08:11:31	0	0	4,632314	2,32575	18,8424	-0,105	86,094	0	1012,28	6,4	8,6	8,3	1	1	1	1	1	1	1	1	1	0	1	-7,82241	273,865607	311,135251	0
15.01.2021	08:11:32	0	0	3,276515	2,24625	24,3432	-0,103	86,084	0	1012,3	6,4	8,6	8,3	1	1	1	1	1	1	1	1	1	0	1	-5,567301	273,755352	312,877038	0
15.01.2021	08:11:33	0	0	4,406348	2,25375	9,7452	-0,107	86,083	0	1012,52	6,4	8,5	8,3	1	1	1	1	1	1	1	1	1	0	1	-9,866103	273,743629	308,523691	0
15.01.2021	08:11:34	0	0	3,050548	2,29725	21,7728	-0,105	86,083	0	1012,34	6,4	8,5	8,3	1	1	1	1	1	1	1	1	1	0	1	-5,21494	273,740699	313,161224	0
15.01.2021	08:11:35	0	0	4,971264	2,47725	24,7176	-0,109	86,068	0	1012,34	6,4	8,5	8,3	1	1	1	1	1	1	1	1	1	0	1	-9,936575	273,800847	308,719505	0
15.01.2021	08:11:36	0	0	4,519304	2,53275	16,8408	-0,109	86,066	0	1012,2	6,4	8,5	8,4	1	1	1	1	1	1	1	1	1	0	1	-6,8358	273,880355	312,190574	0
15.01.2021	08:11:37	0	0	3,954391	2,54025	16,092	-0,109	86,066	0	1012,26	6,4	8,5	8,4	1	1	1	1	1	1	1	1	1	0	1	-12,684989	273,85971	306,245205	0
15.01.2021	08:11:38	0	0	3,954415	2,53425	13,9104	-0,106	86,074	0	1012,34	6,4	8,6	8,3	1	1	1	1	1	1	1	1	1	0	1	-7,117689	273,770016	311,394888	0
15.01.2021	08:11:39	0	0	4,180381	2,43975	18,0684	-0,114	86,075	0	1012,32	6,4	8,5	8,3	1	1	1	1	1	1	1	1	1	0	1	-5,708245	273,739234	312,661105	0
15.01.2021	08:11:40	0	0	4,632314	2,322	18,0828	-0,104	86,074	0	1012,42	6,4	8,5	8,3	1	1	1	1	1	1	1	1	1	0	1	-4,22833	273,855289	314,681271	0
15.01.2021	08:11:41	0	0	2,937565	2,2725	10,0656	-0,107	86,071	0	1012,36	6,4	8,6	8,3	1	1	1	1	1	1	1	1	1	0	1	-7,399577	273,892162	311,681813	0
15.01.2021	08:11:42	0	0	3,615465	2,241	15,3972	-0,113	86,071	0	1012,4	6,4	8,6	8,3	1	1	1	1	1	1	1	1	1	0	1	-6,483439	273,825842	312,289016	0
15.01.2021	08:11:43	0	0	4,180381	2,2005	17,694	-0,109	86,07	0	1012,38	6,4	8,5	8,3	1	1	1	1	1	1	1	1	1	0	1	-5,708245	273,880355	313,318129	0
15.01.2021	08:11:44	0	0	2,485632	2,2725	18,4464	-0,102	86,077	0	1012,36	6,4	8,6	8,3	1	1	1	1	1	1	1	1	1	0	1	-10,923185	273,728984	307,398484	0
15.01.2021	08:11:45	0	0	3,615465	2,5155	18,4536	-0,104	86,066	0	1012,38	6,4	8,5	8,3	1	1	1	1	1	1	1	1	1	0	1	-5,919662	273,831728	312,880202	0
15.01.2021	08:11:46	0	0	4,067398	2,814	32,1336	-0,107	86,07	0	1012,36	6,4	8,5	8,3	1	1	1	1	1	1	1	1	1	0	1	-8,879493	273,724593	309,421752	0
15.01.2021	08:11:47	0	0	4,519331	2,95725	28,6992	-0,107	86,062	0	1012,32	6,4	8,6	8,3	1	1	1	1	1	1	1	1	1	0	1	-5,919662	273,8229	312,839092	0
15.01.2021	08:11:48	0	0	2,598615	2,96775	18,072	-0,104	86,061	0	1012,36	6,4	8,6	8,3	1	1	1	1	1	1	1	1	1	0	1	-2,325581	273,881831	316,707668	0
15.01.2021	08:11:49	0	0	4,971264	3,10125	24,336	-0,102	86,064	0	1012,34	6,4	8,6	8,3	1	1	1	1	1	1	1	1	1	0	1	-9,090909	273,836144	309,729518	0
15.01.2021	08:11:50	0	0	4,406348	3,1485	20,2824	-0,101	86,069	0	1012,4	6,4	8,5	8,3	1	1	1	1	1	1	1	1	1	0	1	-6,906272	273,71874	311,367748	0
15.01.2021	08:11:51	0	0	2,711582	3,195	22,4532	-0,1	86,068	0	1012,3	6,4	8,6	8,4	1	1	1	1	1	1	1	1	1	0	1	-5,708245	273,805256	312,968359	0
15.01.2021	08:11:52	0	0	3,276476	3,2985	16,848	-0,103	86,06	0	1012,38	6,4	8,6	8,5	1	1	1	1	1	1	1	1	1	0	1	-3,664553	273,71874	314,609467	0
15.01.2021	08:11:53	0	0	2,937565	3,35625	18,8316	-0,104	86,047	0	1012,32	6,4	8,6	8,3	1	1	1	1	1	1	1	1	1	0	1	-5,21494	273,762683	313,263509	0
15.01.2021	08:11:54	0	0	4,293365	3,3255	11,7036	-0,106	86,061	0	1012,44	6,4	8,5	8,3	1	1	1	1	1	1	1	1	1	0	1	-8,315715	273,847923	310,559575	0
15.01.2021	08:11:55	0	0	4,519331	3,60675	12,8592	-0,102	86,058	0	1012,36	6,4	8,6	8,3	1	1	1	1	1	1	1	1	1	0	1	-10,993658	273,877405	308,018969	0
15.01.2021	08:11:56	0	0	4,067398	3,696	9,7452	-0,107	86,051	0	1012,3	6,4	8,6	8,3	1	1	1	1	1	1	1	1	1	0	1	-4,016913	273,877405	314,995713	0
15.01.2021	08:11:57	0	0	3,276515	3,84	6,066	-0,106	86,054	0	1012,32	6,4	8,5	8,3	1	1	1	1	1	1	1	1	1	0	1	-4,721635	273,712889	313,52517	0
15.01.2021	08:11:58	0	0	3,728448	3,9555	5,2128	-0,101	86,054	0	1012,4	6,4	8,6	8,3	1	1	1	1	1	1	1	1	1	0	1	-4,510218	273,819958	314,234838	0
15.01.2021	08:11:59	0	0	3,276515	3,8205	7,5924	-0,1	86,061	0	1012,4	6,4	8,6	8,3	1	1	1	1	1	1	1	1	1	0	1	-3,59408	273,739234	314,77527	0
15.01.2021	08:12:00	0	0	3,615465	3,216	15,0264	-0,102	86,048	0	1012,26	6,4	8,6	8,3	1	1	1	1	1	1	1	1	1	0	1	-10,570825	273,819958	308,174232	0
15.01.2021	08:12:01	0	0	3,615465	3,216	15,0264	-0,102	86,048	0	1012,26	6,4	8,6	8,3	1	1	1	1	1	1	1	1	1	0	1	-10,570825	273,819958	308,174232	0
15.01.2021	08:12:02	0	0	4,745298	3,105	27,9648	-0,105	86,054	0	1012,36	6,4	8,5	8,3	1	1	1	1	1	1	1	1	1	0	1	-8,738548	273,884782	310,308452	0
15.01.2021	08:12:03	0	0	4,858281	3,225	24,7392	-0,103	86,038	0	1012,36	6,4	8,6	8,3	1	1	1	1	1	1	1	1	1	0	1	-6,8358	273,8229	311,922954	0
15.01.2021	08:12:04	0	0	4,745269	3,20025	18,0648	-0,097	86,062	0	1012,34	6,4	8,6	8,4	1	1	1	1	1	1	1	1	1	0	1	-4,862579	273,880355	314,163795	0
15.01.2021	08:12:05	0	0	2,711599	2,88675	24,7212	-0,104	86,053	0	1012,36	6,4	8,6	8,3	1	1	1	1	1	1	1	1	1	0	1	-6,060606	273,768549	312,445144	0
15.01.2021	08:12:06	0	0	4,745241	2,74425	14,3064	-0,109	86,045	0	1012,34	6,4	8,5	8,5	1	1	1	1	1	1	1	1	1	0	1	-5,919662	273,726057	312,38839	0
15.01.2021	08:12:07	0	0	4,519331	2,68725	15,7716	-0,102	86,035	0	1012,32	6,4	8,6	8,3	1	1	1	1	1	1	1	1	1	0	1	-9,513742	273,912842	309,664025	0
15.01.2021	08:12:08	0	0	2,937548	2,67375	20,6388	-0,106	86,048	0	1012,48	6,4	8,5	8,4	1	1	1	1	1	1	1	1	1	0	1	-8,104299	273,877405	310,908328	0
15.01.2021	08:12:09	0	0	2,937565	2,54925	20,2716	-0,108	86,048	0	1012,34	6,4	8,6	8,3	1	1	1	1	1	1	1	1	1	0	1	-6,060606	273,756818	312,390553	0
15.01.2021	08:12:10	0	0	3,050548	2,589	18,738	-0,097	86,055	0	1012,48	6,4	8,6	8,3	1	1	1	1	1	1	1	1	1	0	1	-6,131078	273,72313	312,163359	0
15.01.2021	08:12:11	0	0	3,954367	2,9595	7,884	-0,103	86,051	0	1012,34	6,4	8,6	8,5	1	1	1	1	1	1	1	1	1	0	1	-2,325581	273,750955	316,098298	0
15.01.2021	08:12:12	0	0	2,485632	3,27375	12,4632	-0,104	86,042	0	1012,38	6,4	8,6	8,3	1	1	1	1	1	1	1	1	1	0	1	-3,946441	273,753886	314,491077	0
15.01.2021	08:12:13	0	0	3,276476	3,3165	25,0344	-0,1	86,046	0	1012,36	6,4	8,6	8,5	1	1	1	1	1	1	1	1	1	0	1	-12,05074	273,711426	306,189263	0
15.01.2021	08:12:14	0	0	4,971264	3,26775	22,4748	-0,101	86,046	0	1012,24	6,4	8,6	8,3	1	1	1	1	1	1	1	1	1	0	1	-5,708245	273,79644	312,927318	0
15.01.2021	08:12:15	0	0	4,519331	3,237	22,0716	-0,103	86,043	0	1012,38	6,4	8,6	8,3	1	1	1	1	1	1	1	1	1	0	1	-3,664553	273,728984	314,657117	0
15.01.2021	08:12:16	0	0	4,067398	3,3705	28,7244	-0,103	86,046	0	1012,4	6,4	8,6	8,3	1	1	1	1	1	1	1	1	1	0	1	-11,06413	273,862658	307,879797	0
15.01.2021	08:12:17	0	0	2,711599	3,56325	33,6348	-0,098	86,036	0	1012,28	6,4	8,6	8,3	1	1	1	1	1	1	1	1	1	0	1	-6,342495	273,75975	312,122309	0
15.01.2021	08:12:18	0	0	4,632314	3,53175	27,6624	-0,102	86,038	0	1012,42	6,4	8,6	8,3	1	1	1	1	1	1	1	1	1	0	1	-4,580691	273,781755	313,986521	0
15.01.2021	08:12:19	0	0	4,632314	3,32175	15,7788	-0,098	86,038	0	1012,42	6,4	8,6	8,3	1	1	1	1	1	1	1	1	1	0	1	-7,329105	273,728984	310,992564	0
15.01.2021	08:12:20	0	0	4,180381	3,23625	20,6136	-0,099	86,035	0	1012,38	6,4	8,6	8,3	1	1	1	1	1	1	1	1	1	0	1	-6,131078	273,895115	312,964073	0
15.01.2021	08:12:21	0	0	2,824582	3,189	31,7736	-0,107	86,038	0	1012,4	6,4	8,5	8,3	1	1	1	1	1	1	1	1	1	0	1	-6,8358	273,849396	312,046351	0
15.01.2021	08:12:22	0	0	2,824582	3,16875	13,1796	-0,107	86,028	0	1012,3	6,4	8,5	8,3	1	1	1	1	1	1	1	1	1	0	1	-7,963354	273,903976	311,173093	0
15.01.2021	08:12:23	0	0	4,406348	3	22,0644	-0,1	86,036	0	1012,4	6,4	8,6	8,3	1	1	1	1	1	1	1	1	1	0	1	-6,906272	273,819958	311,838784	0
15.01.2021	08:12:24	0	0	4,632259	2,79975	15,03	-0,1	86,025	0	1012,44	6,4	8,6	8,5	1	1	1	1	1	1	1	1	1	0	1	-7,399577	273,884782	311,647423	0
15.01.2021	08:12:25	0	0	4,519277	2,79375	13,914	-0,106	86,025	0	1012,3	6,4	8,6	8,5	1	1	1	1	1	1	1	1	1	0	1	-5,355884	273,762683	313,122565	0
15.01.2021	08:12:26	0	0	4,067349	2,72175	10,4292	-0,097	86,049	0	1012,4	6,4	8,5	8,5	1	1	1	1	1	1	1	1	1	0	1	-6,342495	273,715814	311,917916	0
15.01.2021	08:12:27	0	0	3,728448	2,7315	16,0884	-0,103	86,013	0	1012,06	6,4	8,5	8,3	1	1	1	1	1	1	1	1	1	0	1	-3,735025	273,84056	315,105971	0
15.01.2021	08:12:28	0	0	4,519277	2,76825	17,2404	-0,097	86,035	0	1012,34	6,4	8,6	8,5	1	1	1	1	1	1	1	1	1	0	1	-6,765328	273,899545	312,350469	0
15.01.2021	08:12:29	0	0	3,728448	2,65425	12,8484	-0,099	86,039	0	1012,34	6,4	8,6	8,3	1	1	1	1	1	1	1	1	1	0	1	-9,302326	273,852343	309,593549	0
15.01.2021	08:12:30	0	0	4,067398	2,69175	15,3936	-0,098	86,029	0	1012,48	6,4	8,6	8,3	1	1	1	1	1	1	1	1	1	0	1	-8,104299	273,905453	311,039034	0
15.01.2021	08:12:31	0	0	4,180381	2,77725	19,8828	-0,101	86,033	0	1012,34	6,4	8,5	8,3	1	1	1	1	1	1	1	1	1	0	1	-2,114165	273,770016	316,398411	0
15.01.2021	08:12:32	0	0	2,824582	2,61375	5,2164	-0,107	86,036	0	1012,38	6,4	8,6	8,3	1	1	1	1	1	1	1	1	1	0	1	-6,20155	273,874454	312,797331	0
15.01.2021	08:12:33	0	0	2,146682	2,49225	12,852	-0,1	86,029	0	1012,38	6,4	8,6	8,3	1	1	1	1	1	1	1	1	1	0	1	-11,557435	273,715814	306,702976	0
15.01.2021	08:12:34	0	0	3,276476	2,64975	9,7488	-0,101	86,024	0	1012,32	6,4	8,6	8,5	1	1	1	1	1	1	1	1	1	0	1	-2,255109	273,825842	316,517345	0
15.01.2021	08:12:35	0	0	3,954391	2,892	0,5004	-0,103	86,026	0	1012,5	6,4	8,6	8,4	1	1	1	1	1	1	1	1	1	0	1	-2,255109	273,743629	316,134685	0
15.01.2021	08:12:36	0	0	4,519304	3,0195	7,4988	-0,103	86,038	0	1012,44	6,4	8,6	8,4	1	1	1	1	1	1	1	1	1	0	1	-2,748414	273,818487	315,989794	0
15.01.2021	08:12:37	0	0	4,745269	3,51225	3,0204	-0,108	86,013	0	1012,16	6,4	8,5	8,4	1	1	1	1	1	1	1	1	1	0	1	-6,20155	273,898068	312,907363	0
15.01.2021	08:12:38	0	0	4,067374	3,948	26,9028	-0,107	86,03	0	1012,06	6,4	8,6	8,4	1	1	1	1	1	1	1	1	1	0	1	-6,483439	273,783223	312,090605	0
15.01.2021	08:12:39	0	0	3,050548	3,621	18,8352	-0,099	86,031	0	1012,4	6,4	8,6	8,3	1	1	1	1	1	1	1	1	1	0	1	-6,20155	273,895115	312,8936	0
15.01.2021	08:12:40	0	0	3,163513	3,3555	21,0168	-0,101	86,024	0	1012,44	6,4	8,5	8,4	1	1	1	1	1	1	1	1	1	0	1	-6,272023	273,761216	312,199604	0
15.01.2021	08:12:41	0	0	3,728448	3,0795	16,0884	-0,102	86,012	0	1012,42	6,4	8,6	8,3	1	1	1	1	1	1	1	1	1	0	1	-0,493305	273,750955	317,930574	0
15.01.2021	08:12:42	0	0	4,745298	2,916	19,5336	-0,109	86,013	0	1012,28	6,4	8,6	8,3	1	1	1	1	1	1	1	1	1	0	1	-11,768851	273,836144	307,051575	0
15.01.2021	08:12:43	0	0	4,745269	2,775	20,3436	-0,101	86,026	0	1012,32	6,4	8,6	8,4	1	1	1	1	1	1	1	1	1	0	1	-5,21494	273,734841	313,133972	0
15.01.2021	08:12:44	0	0	5,197231	2,6715	0,8676	-0,102	86,022	0	1012,34	6,4	8,6	8,3	1	1	1	1	1	1	1	1	1	0	1	-4,157858	273,825842	314,614597	0
15.01.2021	08:12:45	0	0	2,259666	2,6655	16,4772	-0,1	86,027	0	1012,56	6,4	8,6	8,3	1	1	1	1	1	1	1	1	1	0	1	-3,312192	273,77295	315,21404	0
15.01.2021	08:12:46	0	0	3,728448	2,67	5,6772	-0,096	86,019	0	1012,42	6,4	8,6	8,3	1	1	1	1	1	1	1	1	1	0	1	-5,073996	273,761216	313,39763	0
15.01.2021	08:12:47	0	0	3,389478	2,7465	17,2368	-0,098	86,021	0	1012,48	6,4	8,6	8,4	1	1	1	1	1	1	1	1	1	0	1	-5,003524	273,895115	314,091627	0
15.01.2021	08:12:48	0	0	3,954391	2,7855	6,426	-0,103	86,013	0	1012,36	6,4	8,6	8,4	1	1	1	1	1	1	1	1	1	0	1	-6,906272	273,88921	312,16136	0
15.01.2021	08:12:49	0	0	5,084186	2,84925	23,9616	-0,098	86,024	0	1012,48	6,4	8,6	8,5	1	1	1	1	1	1	1	1	1	0	1	-3,030303	273,846451	315,838127	0
15.01.2021	08:12:50	0	0	3,276495	2,844	18,4464	-0,1	86,011	0	1012,44	6,4	8,5	8,4	1	1	1	1	1	1	1	1	1	0	1	-1,62086	273,73777	316,741677	0
15.01.2021	08:12:51	0	0	4,406295	2,84925	13,9248	-0,105	86,019	0	1012,34	6,4	8,6	8,5	1	1	1	1	1	1	1	1	1	0	1	-6,8358	273,839088	311,998339	0
15.01.2021	08:12:52	0	0	3,389498	2,82225	22,4784	-0,095	86,012	0	1012,38	6,4	8,6	8,3	1	1	1	1	1	1	1	1	1	0	1	-3,946441	273,736305	314,409283	0
15.01.2021	08:12:53	0	0	4,180381	2,7945	6,804	-0,102	86,01	0	1012,34	6,4	8,6	8,3	1	1	1	1	1	1	1	1	1	0	1	-2,818887	273,77295	315,707345	0
15.01.2021	08:12:54	0	0	4,519331	2,59875	27,2556	-0,099	86,028	0	1012,44	6,4	8,6	8,3	1	1	1	1	1	1	1	1	1	0	1	-5,990134	273,745094	312,406476	0
15.01.2021	08:12:55	0	0	2,937548	2,39175	19,134	-0,095	86,02	0	1012,38	6,4	8,6	8,4	1	1	1	1	1	1	1	1	1	0	1	-5,919662	273,78616	312,668049	0
15.01.2021	08:12:56	0	0	4,293339	2,4465	32,4972	-0,097	86,021	0	1012,24	6,4	8,5	8,4	1	1	1	1	1	1	1	1	1	0	1	-5,426357	273,755352	313,017982	0
15.01.2021	08:12:57	0	0	4,067374	2,40075	28,0512	-0,103	86,02	0	1012,36	6,4	8,6	8,4	1	1	1	1	1	1	1	1	1	0	1	-3,875969	273,890686	315,198542	0
15.01.2021	08:12:58	0	0	3,615465	2,34225	5,2308	-0,1	86,014	0	1012,32	6,4	8,5	8,3	1	1	1	1	1	1	1	1	1	0	1	-6,553911	273,808195	312,136378	0
15.01.2021	08:12:59	0	0	2,711582	2,62725	27,6588	-0,102	86,021	0	1012,4	6,4	8,6	8,4	1	1	1	1	1	1	1	1	1	0	1	-7,117689	273,898068	311,991225	0
15.01.2021	08:13:00	0	0	3,389458	2,901	12,8592	-0,1	86,011	0	1012,32	6,4	8,6	8,5	1	1	1	1	1	1	1	1	1	0	1	-4,369274	273,905453	314,774058	0
15.01.2021	08:13:01	0	0	3,389458	2,901	12,8592	-0,1	86,011	0	1012,32	6,4	8,6	8,5	1	1	1	1	1	1	1	1	1	0	1	-4,369274	273,905453	314,774058	0
15.01.2021	08:13:02	0	0	3,841431	3,021	27,9504	-0,1	86,004	0	1012,34	6,4	8,6	8,3	1	1	1	1	1	1	1	1	1	0	1	-10,077519	273,91432	309,107136	0
15.01.2021	08:13:03	0	0	3,389478	3,33675	13,9032	-0,105	86,004	0	1012,3	6,4	8,6	8,4	1	1	1	1	1	1	1	1	1	0	1	-9,231853	273,858237	309,691475	0
15.01.2021	08:13:04	0	0	3,163513	3,339	18,0756	-0,1	86,019	0	1012,5	6,4	8,5	8,4	1	1	1	1	1	1	1	1	1	0	1	-5,355884	273,733377	312,986216	0
15.01.2021	08:13:05	0	0	4,745241	3,0465	1,9296	-0,097	86,006	0	1012,46	6,4	8,6	8,5	1	1	1	1	1	1	1	1	1	0	1	-2,255109	273,88921	316,812523	0
15.01.2021	08:13:06	0	0	4,745269	3,0315	9,378	-0,106	86,017	0	1012,56	6,4	8,5	8,4	1	1	1	1	1	1	1	1	1	0	1	-2,184637	273,902499	316,944926	0
15.01.2021	08:13:07	0	0	3,05053	2,88525	19,1376	-0,102	86,002	0	1012,3	6,4	8,6	8,4	1	1	1	1	1	1	1	1	1	0	1	-4,721635	273,794971	313,90709	0
15.01.2021	08:13:08	0	0	3,163513	2,7735	37,2996	-0,099	86,014	0	1012,4	6,4	8,6	8,4	1	1	1	1	1	1	1	1	1	0	1	-5,919662	273,745094	312,476948	0
15.01.2021	08:13:09	0	0	3,163513	2,53875	15,7788	-0,098	86,013	0	1012,38	6,4	8,6	8,4	1	1	1	1	1	1	1	1	1	0	1	-5,073996	273,790565	313,534219	0
15.01.2021	08:13:10	0	0	2,824565	2,3745	16,8372	-0,098	86,019	0	1012,44	6,4	8,6	8,4	1	1	1	1	1	1	1	1	1	0	1	-5,84919	273,733377	312,492911	0
15.01.2021	08:13:11	0	0	3,615443	2,427	19,1592	-0,098	86,018	0	1012,44	6,4	8,6	8,4	1	1	1	1	1	1	1	1	1	0	1	-8,738548	273,783223	309,835496	0
15.01.2021	08:13:12	0	0	4,519331	2,72025	17,2368	-0,096	86,013	0	1012,48	6,4	8,6	8,3	1	1	1	1	1	1	1	1	1	0	1	-4,22833	273,880355	314,798044	0
15.01.2021	08:13:13	0	0	2,937565	2,74875	14,2884	-0,096	86,02	0	1012,28	6,4	8,5	8,3	1	1	1	1	1	1	1	1	1	0	1	-12,191684	273,789096	306,409695	0
15.01.2021	08:13:14	0	0	2,937548	2,73675	28,3536	-0,094	86,01	0	1012,32	6,4	8,6	8,4	1	1	1	1	1	1	1	1	1	0	1	-8,738548	273,748024	309,671695	0
15.01.2021	08:13:15	0	0	2,485617	2,78625	26,1612	-0,105	86,002	0	1012,44	6,4	8,6	8,4	1	1	1	1	1	1	1	1	1	0	1	-8,315715	273,777352	310,231003	0
15.01.2021	08:13:16	0	0	5,1972	2,72175	17,694	-0,098	86,011	0	1012,34	6,4	8,6	8,4	1	1	1	1	1	1	1	1	1	0	1	-5,990134	273,748024	312,42011	0
15.01.2021	08:13:17	0	0	2,93753	2,817	20,2896	-0,1	86,011	0	1012,32	6,4	8,6	8,5	1	1	1	1	1	1	1	1	1	0	1	-7,540521	273,783223	311,033522	0
15.01.2021	08:13:18	0	0	4,745269	2,7675	26,8992	-0,099	85,996	0	1012,32	6,4	8,6	8,4	1	1	1	1	1	1	1	1	1	0	1	-4,651163	273,88921	314,41647	0
15.01.2021	08:13:19	0	0	2,598615	2,754	29,5632	-0,095	86,017	0	1012,46	6,4	8,6	8,3	1	1	1	1	1	1	1	1	1	0	1	-4,651163	273,780288	313,909217	0
15.01.2021	08:13:20	0	0	4,180356	2,721	19,908	-0,092	86,01	0	1012,48	6,4	8,6	8,4	1	1	1	1	1	1	1	1	1	0	1	-5,567301	273,874454	313,431581	0
15.01.2021	08:13:21	0	0	3,276515	2,75925	23,9688	-0,098	86,014	0	1012,46	6,4	8,6	8,3	1	1	1	1	1	1	1	1	1	0	1	-6,553911	273,739234	311,815439	0
15.01.2021	08:13:22	0	0	3,615465	2,65725	19,1376	-0,101	86,012	0	1012,4	6,4	8,6	8,3	1	1	1	1	1	1	1	1	1	0	1	-7,892882	273,748024	310,517361	0
15.01.2021	08:13:23	0	0	4,067398	2,8245	7,4952	-0,097	86,007	0	1012,32	6,4	8,6	8,3	1	1	1	1	1	1	1	1	1	0	1	-7,047216	273,756818	311,403943	0
15.01.2021	08:13:24	0	0	2,372649	2,892	18,0828	-0,1	85,997	0	1012,48	6,4	8,6	8,3	1	1	1	1	1	1	1	1	1	0	1	-5,144468	273,799378	313,504773	0
15.01.2021	08:13:25	0	0	3,163532	2,94675	6,4296	-0,096	86,02	0	1012,26	6,4	8,6	8,3	1	1	1	1	1	1	1	1	1	0	1	-2,184637	273,734841	316,164275	0
15.01.2021	08:13:26	0	0	4,632314	3,132	18,8064	-0,095	86,009	0	1012,34	6,4	8,6	8,3	1	1	1	1	1	1	1	1	1	0	1	-10,147992	273,847923	308,727299	0
15.01.2021	08:13:27	0	0	4,745269	3,33075	13,914	-0,095	86,005	0	1012,36	6,4	8,6	8,4	1	1	1	1	1	1	1	1	1	0	1	-5,990134	273,733377	312,351966	0
15.01.2021	08:13:28	0	0	3,05053	3,14925	12,834	-0,093	86,059	0	1012,32	6,4	8,6	8,4	1	1	1	1	1	1	1	1	1	0	1	-7,470049	273,902499	311,659514	0
15.01.2021	08:13:29	0	0	3,163513	2,7525	12,852	-0,097	85,988	0	1012,12	6,4	8,6	8,4	1	1	1	1	1	1	1	1	1	0	1	-5,285412	273,849396	313,596739	0
15.01.2021	08:13:30	0	0	4,406321	2,5485	22,0752	-0,096	85,992	0	1012,32	6,4	8,6	8,4	1	1	1	1	1	1	1	1	1	0	1	-2,043693	273,726057	316,264359	0
15.01.2021	08:13:31	0	0	3,615443	2,31075	35,9388	-0,095	86,001	0	1012,4	6,4	8,6	8,4	1	1	1	1	1	1	1	1	1	0	1	-7,188161	273,780288	311,372219	0
15.01.2021	08:13:32	0	0	4,293339	2,07525	15,3864	-0,098	85,995	0	1012,3	6,4	8,6	8,4	1	1	1	1	1	1	1	1	1	0	1	-5,144468	273,903976	313,991979	0
15.01.2021	08:13:33	0	0	4,632287	2,21775	14,3064	-0,099	85,991	0	1012,36	6,4	8,6	8,4	1	1	1	1	1	1	1	1	1	0	1	-7,470049	273,858237	311,45328	0
15.01.2021	08:13:34	0	0	3,389478	2,25075	18,0648	-0,1	85,998	0	1012,42	6,4	8,6	8,4	1	1	1	1	1	1	1	1	1	0	1	-4,510218	273,764149	313,975055	0
15.01.2021	08:13:35	0	0	4,632314	2,36925	21,3912	-0,093	86,014	0	1012,38	6,4	8,6	8,3	1	1	1	1	1	1	1	1	1	0	1	-6,20155	273,756818	312,249609	0
15.01.2021	08:13:36	0	0	4,067398	2,53575	35,0748	-0,097	86,008	0	1012,34	6,4	8,6	8,3	1	1	1	1	1	1	1	1	1	0	1	-11,134602	273,85971	307,795592	0
15.01.2021	08:13:37	0	0	3,050512	2,66325	22,842	-0,094	85,999	0	1012,36	6,4	8,6	8,5	1	1	1	1	1	1	1	1	1	0	1	-7,470049	273,843505	311,384662	0
15.01.2021	08:13:38	0	0	3,728426	2,57625	20,6352	-0,091	85,995	0	1012,4	6,4	8,6	8,4	1	1	1	1	1	1	1	1	1	0	1	-4,721635	273,92319	314,504367	0
15.01.2021	08:13:39	0	0	4,632287	2,52975	17,7048	-0,097	85,992	0	1012,36	6,4	8,6	8,4	1	1	1	1	1	1	1	1	1	0	1	-2,677942	273,85971	316,252252	0
15.01.2021	08:13:40	0	0	3,954391	2,64075	10,8072	-0,095	85,978	0	1012,4	6,4	8,6	8,4	1	1	1	1	1	1	1	1	1	0	1	-8,104299	273,749489	310,312762	0
15.01.2021	08:13:41	0	0	3,728426	2,60325	25,7868	-0,097	85,993	0	1012,44	6,4	8,6	8,4	1	1	1	1	1	1	1	1	1	0	1	-3,805497	273,849396	315,076654	0
15.01.2021	08:13:42	0	0	2,711582	2,6235	25,8048	-0,099	86,006	0	1012,42	6,4	8,6	8,4	1	1	1	1	1	1	1	1	1	0	1	-7,892882	273,901022	311,229797	0
15.01.2021	08:13:43	0	0	4,971264	2,643	18,4572	-0,102	85,98	0	1012,32	6,4	8,6	8,3	1	1	1	1	1	1	1	1	1	0	1	-8,668076	273,77882	309,885473	0
15.01.2021	08:13:44	0	0	3,389478	2,82	25,8012	-0,095	85,984	0	1012,38	6,4	8,6	8,4	1	1	1	1	1	1	1	1	1	0	1	-10,711769	273,77295	307,814462	0
15.01.2021	08:13:45	0	0	3,276476	2,8335	15,7752	-0,097	86,01	0	1012,52	6,4	8,6	8,5	1	1	1	1	1	1	1	1	1	0	1	-6,8358	273,753886	311,601718	0
15.01.2021	08:13:46	0	0	4,406321	2,853	15,408	-0,096	85,993	0	1012,46	6,4	8,5	8,4	1	1	1	1	1	1	1	1	1	0	1	-9,584214	273,808195	309,106075	0
15.01.2021	08:13:47	0	0	3,389478	2,84775	18,8208	-0,096	85,982	0	1012,34	6,4	8,6	8,4	1	1	1	1	1	1	1	1	1	0	1	-10,077519	273,739234	308,291831	0
15.01.2021	08:13:48	0	0	2,485617	2,89275	6,8184	-0,1	85,995	0	1012,4	6,4	8,6	8,4	1	1	1	1	1	1	1	1	1	0	1	-4,721635	273,761216	313,749991	0
15.01.2021	08:13:49	0	0	3,502461	3,03975	10,818	-0,096	85,973	0	1012,3	6,5	8,5	8,4	1	1	1	1	1	1	1	1	1	0	1	-9,090909	273,852343	309,804965	0
15.01.2021	08:13:50	0	0	3,841408	3,0615	1,5552	-0,088	85,997	0	1012,46	6,4	8,6	8,4	1	1	1	1	1	1	1	1	1	0	1	-4,862579	273,734841	313,486332	0
15.01.2021	08:13:51	0	0	3,728426	3,20325	9,3708	-0,089	85,99	0	1012,42	6,4	8,6	8,4	1	1	1	1	1	1	1	1	1	0	1	-9,090909	273,806726	309,592537	0
15.01.2021	08:13:52	0	0	3,841408	3,3765	11,7144	-0,095	85,971	0	1012,24	6,4	8,6	8,4	1	1	1	1	1	1	1	1	1	0	1	-8,879493	273,899545	310,236304	0
15.01.2021	08:13:53	0	0	5,310182	3,42075	7,4664	-0,096	85,997	0	1012,26	6,4	8,6	8,4	1	1	1	1	1	1	1	1	1	0	1	-7,188161	273,846451	311,680269	0
15.01.2021	08:13:54	0	0	4,293339	3,47775	8,28	-0,089	86	0	1012,4	6,4	8,6	8,4	1	1	1	1	1	1	1	1	1	0	1	-6,694856	273,903976	312,441592	0
15.01.2021	08:13:55	0	0	2,598615	3,429	10,0656	-0,093	85,977	0	1012,34	6,4	8,6	8,3	1	1	1	1	1	1	1	1	1	0	1	-6,976744	273,896591	312,125288	0
15.01.2021	08:13:56	0	0	4,519304	3,282	3,7764	-0,095	85,98	0	1012,4	6,4	8,6	8,4	1	1	1	1	1	1	1	1	1	0	1	-4,016913	273,745094	314,379696	0
15.01.2021	08:13:57	0	0	2,485617	3,18075	5,2092	-0,098	86,033	0	1012,34	6,4	8,6	8,4	1	1	1	1	1	1	1	1	1	0	1	-4,933051	273,806726	313,750395	0
15.01.2021	08:13:58	0	0	2,372635	3,23025	5,2272	-0,088	85,997	0	1012,44	6,4	8,6	8,4	1	1	1	1	1	1	1	1	1	0	1	-6,8358	273,748024	311,574444	0
15.01.2021	08:13:59	0	0	2,5986	3,22425	6,048	-0,093	85,991	0	1012,52	6,4	8,5	8,4	1	1	1	1	1	1	1	1	1	0	1	-5,426357	273,780288	313,134023	0
15.01.2021	08:14:00	0	0	4,519304	3,024	24,3468	-0,089	86,053	0	1012,48	6,4	8,6	8,4	1	1	1	1	1	1	1	1	1	0	1	-6,412967	273,903976	312,723481	0
15.01.2021	08:14:01	0	0	4,519304	3,024	24,3468	-0,089	86,053	0	1012,48	6,4	8,6	8,4	1	1	1	1	1	1	1	1	1	0	1	-6,412967	273,903976	312,723481	0
15.01.2021	08:14:02	0	0	3,050548	2,904	7,8768	-0,094	85,984	0	1012,38	6,4	8,6	8,3	1	1	1	1	1	1	1	1	1	0	1	-0,352361	273,87888	318,667139	0
15.01.2021	08:14:03	0	0	2,259652	2,8845	9	-0,089	85,989	0	1012,32	6,4	8,6	8,4	1	1	1	1	1	1	1	1	1	0	1	-9,372798	273,743629	309,016996	0
15.01.2021	08:14:04	0	0	4,180356	3,00075	10,8072	-0,093	85,989	0	1012,4	6,4	8,6	8,4	1	1	1	1	1	1	1	1	1	0	1	-7,681466	273,817017	311,049895	0
15.01.2021	08:14:05	0	0	3,954391	3,024	15,0372	-0,09	85,993	0	1012,44	6,4	8,6	8,4	1	1	1	1	1	1	1	1	1	0	1	-6,412967	273,921711	312,806143	0
15.01.2021	08:14:06	0	0	4,519304	3,0375	14,2992	-0,091	85,984	0	1012,4	6,4	8,6	8,4	1	1	1	1	1	1	1	1	1	0	1	-7,963354	273,843505	310,891357	0
15.01.2021	08:14:07	0	0	3,954391	2,9655	13,1508	-0,091	85,987	0	1012,44	6,4	8,6	8,4	1	1	1	1	1	1	1	1	1	0	1	-5,567301	273,884782	313,4797	0
15.01.2021	08:14:08	0	0	3,728426	2,9805	9,7524	-0,096	85,983	0	1012,36	6,4	8,6	8,4	1	1	1	1	1	1	1	1	1	0	1	-9,090909	273,850869	309,798103	0
15.01.2021	08:14:09	0	0	3,502461	2,95575	13,9212	-0,096	85,977	0	1012,38	6,4	8,6	8,4	1	1	1	1	1	1	1	1	1	0	1	-5,355884	273,905453	313,787448	0
15.01.2021	08:14:10	0	0	3,05053	2,96475	10,8144	-0,093	85,994	0	1012,34	6,4	8,5	8,4	1	1	1	1	1	1	1	1	1	0	1	-8,315715	273,789096	310,285664	0
15.01.2021	08:14:11	0	0	3,05053	2,99325	15,7896	-0,102	85,97	0	1012,4	6,4	8,6	8,4	1	1	1	1	1	1	1	1	1	0	1	-6,8358	273,87888	312,1837	0
15.01.2021	08:14:12	0	0	2,711582	3,093	14,2992	-0,095	85,958	0	1012,42	6,4	8,6	8,4	1	1	1	1	1	1	1	1	1	0	1	-1,409443	273,896591	317,692589	0
15.01.2021	08:14:13	0	0	4,406321	3,36075	7,5024	-0,099	85,968	0	1012,34	6,4	8,6	8,4	1	1	1	1	1	1	1	1	1	0	1	-5,84919	273,842033	312,998664	0
15.01.2021	08:14:14	0	0	2,824565	3,39075	13,914	-0,097	85,971	0	1012,4	6,4	8,6	8,4	1	1	1	1	1	1	1	1	1	0	1	-7,258633	273,899545	311,857163	0
15.01.2021	08:14:15	0	0	3,728426	3,264	22,464	-0,092	85,983	0	1012,46	6,4	8,6	8,4	1	1	1	1	1	1	1	1	1	0	1	-4,721635	273,731912	313,613654	0
15.01.2021	08:14:16	0	0	4,971234	3,3795	16,0992	-0,09	85,986	0	1012,46	6,4	8,6	8,4	1	1	1	1	1	1	1	1	1	0	1	-6,624383	273,825842	312,148071	0
15.01.2021	08:14:17	0	0	3,163513	3,53025	8,2692	-0,094	85,984	0	1012,56	6,4	8,6	8,4	1	1	1	1	1	1	1	1	1	0	1	-6,20155	273,733377	312,14055	0
15.01.2021	08:14:18	0	0	2,5986	3,36375	13,914	-0,096	85,984	0	1012,38	6,4	8,5	8,4	1	1	1	1	1	1	1	1	1	0	1	-7,470049	273,799378	311,179191	0
15.01.2021	08:14:19	0	0	2,5986	3,20025	18,0648	-0,095	85,981	0	1012,4	6,4	8,6	8,4	1	1	1	1	1	1	1	1	1	0	1	-1,268499	273,764149	317,216775	0
15.01.2021	08:14:20	0	0	4,406321	3,198	12,4596	-0,093	85,987	0	1012,44	6,4	8,6	8,4	1	1	1	1	1	1	1	1	1	0	1	-2,325581	273,893638	316,762689	0
15.01.2021	08:14:21	0	0	2,824565	3,0795	6,8184	-0,096	85,969	0	1012,36	6,4	8,5	8,4	1	1	1	1	1	1	1	1	1	0	1	-4,933051	273,792033	313,681999	0
15.01.2021	08:14:22	0	0	2,937548	2,96475	7,4988	-0,095	85,982	0	1012,36	6,4	8,6	8,4	1	1	1	1	1	1	1	1	1	0	1	-7,047216	273,903976	312,089231	0
15.01.2021	08:14:23	0	0	3,841408	2,78025	10,4364	-0,092	85,976	0	1012,36	6,4	8,6	8,4	1	1	1	1	1	1	1	1	1	0	1	-6,342495	273,862658	312,601432	0
15.01.2021	08:14:24	0	0	3,841408	2,928	17,2188	-0,091	85,991	0	1012,52	6,4	8,6	8,4	1	1	1	1	1	1	1	1	1	0	1	-5,21494	273,899545	313,900856	0
15.01.2021	08:14:25	0	0	4,971234	2,91075	17,226	-0,09	85,972	0	1012,44	6,4	8,6	8,4	1	1	1	1	1	1	1	1	1	0	1	-6,8358	273,926147	312,40399	0
15.01.2021	08:14:26	0	0	4,632287	2,84925	2,2932	-0,092	85,978	0	1012,4	6,4	8,5	8,4	1	1	1	1	1	1	1	1	1	0	1	-4,933051	273,827313	313,846255	0
15.01.2021	08:14:27	0	0	4,067374	2,829	16,4808	-0,094	85,977	0	1012,48	6,4	8,6	8,4	1	1	1	1	1	1	1	1	1	0	1	-2,114165	273,887734	316,94659	0
15.01.2021	08:14:28	0	0	3,276495	2,98425	0	-0,091	85,974	0	1012,36	6,4	8,6	8,4	1	1	1	1	1	1	1	1	1	0	1	-7,610994	273,761216	310,860632	0
15.01.2021	08:14:29	0	0	3,389478	2,97225	23,5728	-0,096	85,981	0	1012,48	6,4	8,6	8,4	1	1	1	1	1	1	1	1	1	0	1	-2,818887	273,793502	315,803001	0
15.01.2021	08:14:30	0	0	3,728426	3,15	22,464	-0,099	85,969	0	1012,44	6,4	8,5	8,4	1	1	1	1	1	1	1	1	1	0	1	-1,62086	273,903976	317,515588	0
15.01.2021	08:14:31	0	0	2,937548	3,32175	19,134	-0,094	85,982	0	1012,5	6,4	8,6	8,4	1	1	1	1	1	1	1	1	1	0	1	-2,043693	273,784691	316,537184	0
15.01.2021	08:14:32	0	0	4,632287	3,28275	10,8072	-0,095	85,976	0	1012,38	6,4	8,6	8,4	1	1	1	1	1	1	1	1	1	0	1	-3,946441	273,736305	314,409283	0
15.01.2021	08:14:33	0	0	2,711582	3,2445	7,5708	-0,097	85,976	0	1012,44	6,4	8,5	8,4	1	1	1	1	1	1	1	1	1	0	1	-7,751938	273,792033	310,863113	0
15.01.2021	08:14:34	0	0	3,954391	3,216	13,158	-0,091	85,978	0	1012,52	6,4	8,5	8,4	1	1	1	1	1	1	1	1	1	0	1	-6,906272	273,905453	312,23706	0
15.01.2021	08:14:35	0	0	3,163513	3,447	17,226	-0,096	85,97	0	1012,38	6,4	8,5	8,4	1	1	1	1	1	1	1	1	1	0	1	-4,298802	273,758284	314,159179	0
15.01.2021	08:14:36	0	0	4,858252	3,44625	7,5168	-0,088	85,972	0	1012,4	6,4	8,6	8,4	1	1	1	1	1	1	1	1	1	0	1	-8,245243	273,852343	310,650631	0
15.01.2021	08:14:37	0	0	3,389478	3,384	5,31	-0,092	85,962	0	1012,4	6,4	8,6	8,4	1	1	1	1	1	1	1	1	1	0	1	-4,298802	273,774418	314,234258	0
15.01.2021	08:14:38	0	0	4,067374	3,28125	11,7036	-0,089	85,966	0	1012,36	6,4	8,6	8,4	1	1	1	1	1	1	1	1	1	0	1	-8,45666	273,847923	310,418631	0
15.01.2021	08:14:39	0	0	4,180356	2,94525	17,6832	-0,093	85,971	0	1012,4	6,4	8,6	8,4	1	1	1	1	1	1	1	1	1	0	1	-4,016913	273,906931	315,133305	0
15.01.2021	08:14:40	0	0	3,728426	2,73	20,2752	-0,096	85,976	0	1012,34	6,4	8,6	8,4	1	1	1	1	1	1	1	1	1	0	1	-7,470049	273,777352	311,076669	0
15.01.2021	08:14:41	0	0	3,05053	2,76975	10,4544	-0,091	85,983	0	1012,48	6,4	8,6	8,4	1	1	1	1	1	1	1	1	1	0	1	-7,117689	273,767082	311,381235	0
15.01.2021	08:14:42	0	0	4,293339	3,1635	18,4572	-0,092	85,982	0	1012,42	6,4	8,5	8,4	1	1	1	1	1	1	1	1	1	0	1	-6,8358	273,915798	312,355746	0
15.01.2021	08:14:43	0	0	3,05053	3,43275	18,45	-0,09	85,987	0	1012,42	6,4	8,6	8,4	1	1	1	1	1	1	1	1	1	0	1	-6,553911	273,809665	312,143222	0
15.01.2021	08:14:44	0	0	5,084217	3,31875	13,914	-0,089	85,97	0	1012,54	6,4	8,6	8,4	1	1	1	1	1	1	1	1	1	0	1	-10,500352	273,921711	308,718757	0
15.01.2021	08:14:45	0	0	4,406321	3,23475	15,7788	-0,092	85,975	0	1012,5	6,5	8,6	8,4	1	1	1	1	1	1	1	1	1	0	1	-10,570825	273,825842	308,20163	0
15.01.2021	08:14:46	0	0	4,406321	3,27	15,3972	-0,094	85,973	0	1012,4	6,4	8,5	8,4	1	1	1	1	1	1	1	1	1	0	1	-7,610994	273,91432	311,573662	0
15.01.2021	08:14:47	0	0	4,858252	3,22575	15,03	-0,092	85,972	0	1012,42	6,4	8,6	8,4	1	1	1	1	1	1	1	1	1	0	1	-7,82241	273,868555	311,148989	0
15.01.2021	08:14:48	0	0	4,519304	3,15375	19,5336	-0,093	85,97	0	1012,34	6,4	8,6	8,4	1	1	1	1	1	1	1	1	1	0	1	-7,963354	273,733377	310,378746	0
15.01.2021	08:14:49	0	0	2,937548	3,0075	13,5432	-0,096	85,975	0	1012,38	6,4	8,5	8,4	1	1	1	1	1	1	1	1	1	0	1	-8,245243	273,827313	310,534063	0
15.01.2021	08:14:50	0	0	4,406321	3,04125	21,0096	-0,086	85,989	0	1012,5	6,4	8,5	8,4	1	1	1	1	1	1	1	1	1	0	1	-11,275546	273,896591	307,826486	0
15.01.2021	08:14:51	0	0	3,728426	3,15525	14,2992	-0,093	85,979	0	1012,44	6,4	8,6	8,4	1	1	1	1	1	1	1	1	1	0	1	-7,188161	273,87003	311,790108	0
15.01.2021	08:14:52	0	0	3,728426	3,31125	8,9964	-0,092	85,981	0	1012,42	6,5	8,6	8,4	1	1	1	1	1	1	1	1	1	0	1	-6,412967	273,912842	312,7648	0
15.01.2021	08:14:53	0	0	3,05053	3,55875	11,7036	-0,094	85,955	0	1012,4	6,4	8,6	8,4	1	1	1	1	1	1	1	1	1	0	1	-0,563777	273,784691	318,0171	0
15.01.2021	08:14:54	0	0	4,067374	3,70575	7,8768	-0,093	85,974	0	1012,38	6,4	8,5	8,4	1	1	1	1	1	1	1	1	1	0	1	-8,738548	273,901022	310,384131	0
15.01.2021	08:14:55	0	0	4,519304	3,77775	4,8384	-0,097	85,973	0	1012,44	6,4	8,5	8,4	1	1	1	1	1	1	1	1	1	0	1	-8,315715	273,858237	310,607614	0
15.01.2021	08:14:56	0	0	3,841408	3,65025	8,6148	-0,092	85,97	0	1012,42	6,4	8,6	8,4	1	1	1	1	1	1	1	1	1	0	1	-9,231853	273,872979	309,760156	0
15.01.2021	08:14:57	0	0	3,728426	3,66975	2,2896	-0,091	85,977	0	1012,48	6,4	8,5	8,4	1	1	1	1	1	1	1	1	1	0	1	-2,184637	273,745094	316,211973	0
15.01.2021	08:14:58	0	0	4,519304	3,7215	5,6808	-0,093	85,971	0	1012,48	6,4	8,6	8,4	1	1	1	1	1	1	1	1	1	0	1	-11,768851	273,856763	307,147613	0
15.01.2021	08:14:59	0	0	4,858252	3,792	4,842	-0,096	85,966	0	1012,52	6,4	8,5	8,4	1	1	1	1	1	1	1	1	1	0	1	-5,990134	273,927626	313,25655	0
15.01.2021	08:15:00	0	0	3,163513	3,627	18,8316	-0,09	85,975	0	1012,4	6,4	8,5	8,4	1	1	1	1	1	1	1	1	1	0	1	-8,527132	273,743629	309,862662	0
15.01.2021	08:15:01	0	0	3,163513	3,627	18,8316	-0,09	85,975	0	1012,4	6,4	8,5	8,4	1	1	1	1	1	1	1	1	1	0	1	-8,527132	273,743629	309,862662	0
15.01.2021	08:15:02	0	0	3,389478	3,402	17,5752	-0,091	85,971	0	1012,34	6,4	8,6	8,4	1	1	1	1	1	1	1	1	1	0	1	-10,42988	273,884782	308,61712	0
15.01.2021	08:15:03	0	0	2,5986	3,261	9,36	-0,088	85,976	0	1012,42	6,4	8,5	8,4	1	1	1	1	1	1	1	1	1	0	1	-8,033827	273,842033	310,814027	0
15.01.2021	08:15:04	0	0	3,05053	3,13725	17,2368	-0,091	85,963	0	1012,36	6,4	8,6	8,4	1	1	1	1	1	1	1	1	1	0	1	-7,610994	273,921711	311,608116	0
15.01.2021	08:15:05	0	0	3,276495	3,10725	12,0744	-0,098	85,963	0	1012,42	6,4	8,6	8,4	1	1	1	1	1	1	1	1	1	0	1	-4,792107	273,864132	314,158687	0
15.01.2021	08:15:06	0	0	3,163513	3,1845	10,044	-0,097	85,975	0	1012,36	6,4	8,6	8,4	1	1	1	1	1	1	1	1	1	0	1	-8,879493	273,762683	309,598957	0
15.01.2021	08:15:07	0	0	4,067374	2,9655	17,2476	-0,097	85,953	0	1012,38	6,5	8,6	8,4	1	1	1	1	1	1	1	1	1	0	1	-8,949965	273,834672	309,863607	0
15.01.2021	08:15:08	0	0	3,163513	2,8395	25,0344	-0,097	85,957	0	1012,52	6,4	8,5	8,4	1	1	1	1	1	1	1	1	1	0	1	-10,641297	273,908408	308,515808	0
15.01.2021	08:15:09	0	0	4,632287	2,9025	8,2476	-0,093	85,966	0	1012,34	6,4	8,6	8,4	1	1	1	1	1	1	1	1	1	0	1	-9,372798	273,847923	309,502492	0
15.01.2021	08:15:10	0	0	3,163513	2,97975	8,2764	-0,09	85,964	0	1012,42	6,4	8,6	8,4	1	1	1	1	1	1	1	1	1	0	1	-7,82241	273,77295	310,703821	0
15.01.2021	08:15:11	0	0	4,745269	3,0255	10,062	-0,094	85,964	0	1012,36	6,5	8,6	8,4	1	1	1	1	1	1	1	1	1	0	1	-8,668076	273,844978	310,193494	0
15.01.2021	08:15:12	0	0	2,824565	2,9745	13,1508	-0,087	85,964	0	1012,46	6,4	8,5	8,4	1	1	1	1	1	1	1	1	1	0	1	-6,765328	273,918754	312,439999	0
15.01.2021	08:15:13	0	0	5,1972	2,93925	17,2404	-0,087	85,968	0	1012,46	6,4	8,5	8,4	1	1	1	1	1	1	1	1	1	0	1	-9,231853	273,761216	309,239773	0
15.01.2021	08:15:14	0	0	3,389478	2,87775	19,6848	-0,089	85,966	0	1012,48	6,4	8,6	8,4	1	1	1	1	1	1	1	1	1	0	1	-6,553911	273,780288	312,006469	0
15.01.2021	08:15:15	0	0	4,519304	2,712	6,4296	-0,092	85,974	0	1012,32	6,4	8,5	8,4	1	1	1	1	1	1	1	1	1	0	1	-4,439746	273,895115	314,655404	0
15.01.2021	08:15:16	0	0	2,5986	2,57625	18,0792	-0,092	85,97	0	1012,4	6,4	8,6	8,4	1	1	1	1	1	1	1	1	1	0	1	-8,949965	273,912842	310,227802	0
15.01.2021	08:15:17	0	0	4,745269	2,361	23,9652	-0,091	85,97	0	1012,26	6,4	8,6	8,4	1	1	1	1	1	1	1	1	1	0	1	-6,412967	273,846451	312,455463	0
15.01.2021	08:15:18	0	0	3,954391	2,18025	11,2104	-0,092	85,964	0	1012,42	6,4	8,5	8,4	1	1	1	1	1	1	1	1	1	0	1	-4,510218	273,912842	314,667549	0
15.01.2021	08:15:19	0	0	2,824565	2,121	12,096	-0,089	85,955	0	1012,44	6,4	8,6	8,4	1	1	1	1	1	1	1	1	1	0	1	-3,946441	273,789096	314,654938	0
15.01.2021	08:15:20	0	0	3,05053	2,31	10,4436	-0,093	85,96	0	1012,4	6,4	8,6	8,4	1	1	1	1	1	1	1	1	1	0	1	-11,41649	273,861184	307,52057	0
15.01.2021	08:15:21	0	0	2,711582	2,39475	16,8588	-0,091	85,964	0	1012,36	6,4	8,6	8,4	1	1	1	1	1	1	1	1	1	0	1	-7,258633	273,917276	311,939803	0
15.01.2021	08:15:22	0	0	2,937548	2,4495	9,7452	-0,087	85,968	0	1012,46	6,4	8,6	8,4	1	1	1	1	1	1	1	1	1	0	1	-3,453136	273,78616	315,134574	0
15.01.2021	08:15:23	0	0	2,937548	2,41275	355,932	-0,09	85,963	0	1012,54	6,4	8,5	8,4	1	1	1	1	1	1	1	1	1	0	1	-6,765328	273,899545	312,350469	0
15.01.2021	08:15:24	0	0	3,05053	2,3985	21,024	-0,083	85,969	0	1012,5	6,5	8,6	8,4	1	1	1	1	1	1	1	1	1	0	1	-2,889359	273,902499	316,240204	0
15.01.2021	08:15:25	0	0	2,824565	2,32125	12,1824	-0,095	85,969	0	1012,44	6,4	8,6	8,4	1	1	1	1	1	1	1	1	1	0	1	-3,664553	273,8332	315,142165	0
15.01.2021	08:15:26	0	0	3,276495	2,3085	6,0624	-0,086	85,959	0	1012,36	6,5	8,6	8,4	1	1	1	1	1	1	1	1	1	0	1	-3,382664	273,926147	315,857126	0
15.01.2021	08:15:27	0	0	4,293339	2,27775	14,6448	-0,095	85,966	0	1012,5	6,4	8,5	8,4	1	1	1	1	1	1	1	1	1	0	1	-4,298802	273,930585	314,961674	0
15.01.2021	08:15:28	0	0	3,728426	2,253	18,5184	-0,091	85,95	0	1012,48	6,4	8,5	8,4	1	1	1	1	1	1	1	1	1	0	1	-8,738548	273,861184	310,198512	0
15.01.2021	08:15:29	0	0	3,954391	2,33325	9,3744	-0,091	85,949	0	1012,48	6,5	8,5	8,4	1	1	1	1	1	1	1	1	1	0	1	-5,144468	273,912842	314,033299	0
15.01.2021	08:15:30	0	0	3,05053	2,5005	14,2992	-0,085	85,968	0	1012,46	6,4	8,5	8,4	1	1	1	1	1	1	1	1	1	0	1	-6,272023	273,794971	312,356702	0
15.01.2021	08:15:31	0	0	4,406321	2,586	19,5264	-0,09	85,958	0	1012,32	6,4	8,6	8,4	1	1	1	1	1	1	1	1	1	0	1	-8,738548	273,915798	310,452997	0
15.01.2021	08:15:32	0	0	4,067374	2,47425	9	-0,093	85,959	0	1012,46	6,5	8,5	8,4	1	1	1	1	1	1	1	1	1	0	1	-11,980268	273,871505	307,004871	0
15.01.2021	08:15:33	0	0	3,276495	2,47725	15,7932	-0,087	85,969	0	1012,38	6,4	8,5	8,4	1	1	1	1	1	1	1	1	1	0	1	-9,44327	273,905453	309,700062	0
15.01.2021	08:15:34	0	0	4,745269	2,568	8,2584	-0,088	85,969	0	1012,36	6,4	8,5	8,4	1	1	1	1	1	1	1	1	1	0	1	-6,765328	273,924668	312,467568	0
15.01.2021	08:15:35	0	0	4,745269	2,6865	6,8256	-0,086	85,966	0	1012,42	6,4	8,5	8,4	1	1	1	1	1	1	1	1	1	0	1	-5,637773	273,774418	312,895287	0
15.01.2021	08:15:36	0	0	4,632287	2,5365	6,4332	-0,091	85,97	0	1012,34	6,4	8,5	8,4	1	1	1	1	1	1	1	1	1	0	1	-7,329105	273,896591	311,772927	0
15.01.2021	08:15:37	0	0	2,372635	2,49975	12,8376	-0,091	85,961	0	1012,54	6,5	8,5	8,4	1	1	1	1	1	1	1	1	1	0	1	-4,087385	273,750955	314,336494	0
15.01.2021	08:15:38	0	0	4,632287	2,46375	6,066	-0,089	85,964	0	1012,4	6,5	8,5	8,4	1	1	1	1	1	1	1	1	1	0	1	-7,963354	273,802317	310,699566	0
15.01.2021	08:15:39	0	0	3,615443	2,45025	7,506	-0,088	85,97	0	1012,38	6,4	8,6	8,4	1	1	1	1	1	1	1	1	1	0	1	-4,933051	273,91432	314,251604	0
15.01.2021	08:15:40	0	0	3,502461	2,34075	8,6076	-0,084	85,978	0	1012,46	6,4	8,5	8,4	1	1	1	1	1	1	1	1	1	0	1	-6,624383	273,836144	312,196043	0
15.01.2021	08:15:41	0	0	3,05053	2,424	6,0696	-0,092	85,959	0	1012,26	6,5	8,5	8,4	1	1	1	1	1	1	1	1	1	0	1	-9,020437	273,911364	310,150442	0
15.01.2021	08:15:42	0	0	3,841408	2,667	13,1616	-0,096	85,956	0	1012,32	6,4	8,5	8,4	1	1	1	1	1	1	1	1	1	0	1	-6,553911	273,887734	312,506843	0
15.01.2021	08:15:43	0	0	4,519304	3,27	13,9032	-0,092	85,944	0	1012,4	6,5	8,5	8,4	1	1	1	1	1	1	1	1	1	0	1	-9,090909	273,755352	309,35343	0
15.01.2021	08:15:44	0	0	2,372635	3,5175	9,7596	-0,087	85,975	0	1012,44	6,4	8,5	8,4	1	1	1	1	1	1	1	1	1	0	1	-7,047216	273,915798	312,144329	0
15.01.2021	08:15:45	0	0	3,05053	3,5115	6,0768	-0,088	85,966	0	1012,34	6,4	8,5	8,4	1	1	1	1	1	1	1	1	1	0	1	-4,439746	273,865607	314,517915	0
15.01.2021	08:15:46	0	0	4,180356	3,5595	357,5376	-0,087	85,965	0	1012,34	6,5	8,5	8,4	1	1	1	1	1	1	1	1	1	0	1	-6,412967	273,742164	311,970012	0
15.01.2021	08:15:47	0	0	4,745269	3,5265	5,7672	-0,082	85,966	0	1012,36	6,5	8,5	8,4	1	1	1	1	1	1	1	1	1	0	1	-2,60747	273,849396	316,274681	0
15.01.2021	08:15:48	0	0	2,711582	3,20175	13,1544	-0,086	85,978	0	1012,38	6,4	8,6	8,4	1	1	1	1	1	1	1	1	1	0	1	-5,355884	273,775885	313,184004	0
15.01.2021	08:15:49	0	0	3,389478	2,85975	359,514	-0,089	85,972	0	1012,34	6,5	8,5	8,4	1	1	1	1	1	1	1	1	1	0	1	-5,496829	274,219721	315,113712	0
15.01.2021	08:15:50	0	0	3,728426	2,53725	359,8632	-0,092	85,966	0	1012,4	6,4	8,6	8,4	1	1	1	1	1	1	1	1	1	0	1	-4,016913	273,867081	314,947616	0
15.01.2021	08:15:51	0	0	4,632287	2,46075	349,8768	-0,088	85,965	0	1012,4	6,5	8,5	8,4	1	1	1	1	1	1	1	1	1	0	1	-2,114165	273,765616	316,377933	0
15.01.2021	08:15:52	0	0	4,971234	2,98275	10,8036	-0,092	85,973	0	1012,46	6,5	8,5	8,4	1	1	1	1	1	1	1	1	1	0	1	-10,147992	273,867081	308,816538	0
15.01.2021	08:15:53	0	0	4,293339	3,543	9,7308	-0,09	85,98	0	1012,5	6,4	8,5	8,4	1	1	1	1	1	1	1	1	1	0	1	-6,765328	273,92319	312,460675	0
15.01.2021	08:15:54	0	0	4,745269	3,83475	8,982	-0,09	85,971	0	1012,38	6,4	8,6	8,4	1	1	1	1	1	1	1	1	1	0	1	-4,510218	273,881831	314,523031	0
15.01.2021	08:15:55	0	0	2,824565	3,828	6,7968	-0,085	85,965	0	1012,46	6,4	8,5	8,4	1	1	1	1	1	1	1	1	1	0	1	-9,161381	273,862658	309,782545	0
15.01.2021	08:15:56	0	0	4,745269	3,4635	360	-0,093	85,969	0	1012,42	6,4	8,5	8,4	1	1	1	1	1	1	1	1	1	0	1	-3,805497	273,790565	314,802718	0
15.01.2021	08:15:57	0	0	2,5986	3,44625	7,884	-0,089	85,969	0	1012,36	6,4	8,6	8,4	1	1	1	1	1	1	1	1	1	0	1	-0,704722	273,862658	318,239205	0
15.01.2021	08:15:58	0	0	4,406321	4,068	8,604	-0,086	85,959	0	1012,38	6,5	8,5	8,4	1	1	1	1	1	1	1	1	1	0	1	-6,20155	273,930585	313,058925	0
15.01.2021	08:15:59	0	0	2,5986	4,51425	13,8888	-0,084	85,973	0	1012,42	6,5	8,6	8,4	1	1	1	1	1	1	1	1	1	0	1	-6,483439	273,824371	312,282165	0
15.01.2021	08:16:00	0	0	3,954391	4,3905	24,066	-0,087	85,98	0	1012,48	6,4	8,5	8,4	1	1	1	1	1	1	1	1	1	0	1	-6,694856	273,911364	312,476023	0
15.01.2021	08:16:01	0	0	3,954391	4,3905	24,066	-0,087	85,98	0	1012,48	6,4	8,5	8,4	1	1	1	1	1	1	1	1	1	0	1	-6,694856	273,911364	312,476023	0
15.01.2021	08:16:02	0	0	3,502461	3,921	4,4604	-0,094	85,976	0	1012,32	6,4	8,5	8,4	1	1	1	1	1	1	1	1	1	0	1	-7,329105	273,903976	311,807342	0
15.01.2021	08:16:03	0	0	4,293339	3,6855	11,196	-0,086	85,978	0	1012,38	6,5	8,5	8,4	1	1	1	1	1	1	1	1	1	0	1	-7,047216	273,739234	311,322134	0
15.01.2021	08:16:04	0	0	3,163513	3,5775	4,4748	-0,094	85,963	0	1012,36	6,5	8,5	8,4	1	1	1	1	1	1	1	1	1	0	1	-2,959831	273,87003	316,018438	0
15.01.2021	08:16:05	0	0	3,954391	3,98025	10,4472	-0,089	85,962	0	1012,4	6,4	8,5	8,4	1	1	1	1	1	1	1	1	1	0	1	-7,258633	273,917276	311,939803	0
15.01.2021	08:16:06	0	0	3,276495	4,125	0,504	-0,091	85,98	0	1012,3	6,5	8,5	8,4	1	1	1	1	1	1	1	1	1	0	1	-6,553911	273,780288	312,006469	0
15.01.2021	08:16:07	0	0	4,632287	4,239	7,8768	-0,091	85,969	0	1012,3	6,5	8,5	8,4	1	1	1	1	1	1	1	1	1	0	1	-6,624383	273,924668	312,608512	0
15.01.2021	08:16:08	0	0	2,937548	3,75675	12,834	-0,092	85,963	0	1012,42	6,4	8,6	8,4	1	1	1	1	1	1	1	1	1	0	1	-4,087385	273,867081	314,877144	0
15.01.2021	08:16:09	0	0	3,389478	3,52125	19,0728	-0,091	85,981	0	1012,46	6,4	8,5	8,4	1	1	1	1	1	1	1	1	1	0	1	-4,157858	273,775885	314,382031	0
15.01.2021	08:16:10	0	0	3,276495	3,41475	23,202	-0,087	85,984	0	1012,38	6,4	8,5	8,4	1	1	1	1	1	1	1	1	1	0	1	-6,20155	273,867081	312,762979	0
15.01.2021	08:16:11	0	0	4,745269	3,17475	20,2968	-0,089	85,984	0	1012,34	6,4	8,5	8,4	1	1	1	1	1	1	1	1	1	0	1	-5,285412	273,892162	313,795978	0
15.01.2021	08:16:12	0	0	4,519304	2,97825	13,1436	-0,091	85,991	0	1012,46	6,5	8,5	8,4	1	1	1	1	1	1	1	1	1	0	1	-2,889359	273,915798	316,302187	0
15.01.2021	08:16:13	0	0	3,05053	2,89275	18,8136	-0,089	85,984	0	1012,4	6,4	8,5	8,4	1	1	1	1	1	1	1	1	1	0	1	-5,426357	273,877405	313,58627	0
15.01.2021	08:16:14	0	0	4,632287	3,105	25,7868	-0,088	85,986	0	1012,38	6,4	8,5	8,4	1	1	1	1	1	1	1	1	1	0	1	-5,21494	273,920233	313,997278	0
15.01.2021	08:16:15	0	0	3,05053	3,618	18,4608	-0,085	85,978	0	1012,5	6,4	8,5	8,4	1	1	1	1	1	1	1	1	1	0	1	-2,677942	273,789096	315,923437	0
15.01.2021	08:16:16	0	0	3,389478	3,89325	16,4808	-0,084	85,982	0	1012,48	6,5	8,5	8,4	1	1	1	1	1	1	1	1	1	0	1	-7,470049	273,827313	311,309257	0
15.01.2021	08:16:17	0	0	3,389478	4,07775	11,7036	-0,092	85,971	0	1012,26	6,5	8,6	8,4	1	1	1	1	1	1	1	1	1	0	1	-8,315715	273,753886	310,121803	0
15.01.2021	08:16:18	0	0	4,519304	4,16175	15,4008	-0,088	85,977	0	1012,34	6,5	8,5	8,4	1	1	1	1	1	1	1	1	1	0	1	-6,342495	273,887734	312,71826	0
15.01.2021	08:16:19	0	0	4,858252	4,08375	16,0812	-0,087	85,966	0	1012,48	6,4	8,5	8,4	1	1	1	1	1	1	1	1	1	0	1	-7,610994	273,898068	311,49792	0
15.01.2021	08:16:20	0	0	4,293339	3,74625	25,884	-0,085	85,978	0	1012,36	6,5	8,5	8,4	1	1	1	1	1	1	1	1	1	0	1	-6,976744	273,877405	312,035882	0
15.01.2021	08:16:21	0	0	4,406321	3,44025	13,1616	-0,082	85,993	0	1012,4	6,5	8,5	8,4	1	1	1	1	1	1	1	1	1	0	1	-4,792107	273,868555	314,179292	0
15.01.2021	08:16:22	0	0	2,937548	3,2655	31,392	-0,082	85,985	0	1012,48	6,4	8,5	8,4	1	1	1	1	1	1	1	1	1	0	1	-6,060606	273,918754	313,14472	0
15.01.2021	08:16:23	0	0	4,180356	3,14775	16,0956	-0,091	85,976	0	1012,36	6,5	8,6	8,4	1	1	1	1	1	1	1	1	1	0	1	-4,510218	273,812606	314,200604	0
15.01.2021	08:16:24	0	0	4,293339	3,49575	16,8516	-0,086	85,978	0	1012,44	6,5	8,5	8,4	1	1	1	1	1	1	1	1	1	0	1	-3,59408	273,771483	314,925323	0
15.01.2021	08:16:25	0	0	4,858252	3,654	24,7068	-0,083	85,984	0	1012,5	6,4	8,5	8,4	1	1	1	1	1	1	1	1	1	0	1	-8,104299	273,861184	310,832761	0
15.01.2021	08:16:26	0	0	4,180356	3,68625	27,2808	-0,084	85,963	0	1012,38	6,4	8,5	8,4	1	1	1	1	1	1	1	1	1	0	1	-9,302326	273,921711	309,916784	0
15.01.2021	08:16:27	0	0	4,632287	3,46575	23,5908	-0,084	85,992	0	1012,44	6,4	8,5	8,4	1	1	1	1	1	1	1	1	1	0	1	-2,889359	273,780288	315,671021	0
15.01.2021	08:16:28	0	0	3,389478	3,633	10,0512	-0,088	85,97	0	1012,42	6,4	8,5	8,4	1	1	1	1	1	1	1	1	1	0	1	-10,147992	273,87003	308,830277	0
15.01.2021	08:16:29	0	0	5,1972	3,663	23,9616	-0,084	85,982	0	1012,2	6,4	8,5	8,4	1	1	1	1	1	1	1	1	1	0	1	-7,82241	273,765616	310,669688	0
15.01.2021	08:16:30	0	0	4,745269	3,471	16,614	-0,088	85,967	0	1012,3	6,5	8,5	8,4	1	1	1	1	1	1	1	1	1	0	1	-10,42988	273,903976	308,706567	0
15.01.2021	08:16:31	0	0	4,858252	3,345	24,3432	-0,086	85,98	0	1012,4	6,4	8,5	8,4	1	1	1	1	1	1	1	1	1	0	1	-2,959831	273,912842	316,217936	0
15.01.2021	08:16:32	0	0	2,711582	3,363	28,3356	-0,086	85,991	0	1012,4	6,5	8,5	8,4	1	1	1	1	1	1	1	1	1	0	1	-8,949965	273,811135	309,754012	0
15.01.2021	08:16:33	0	0	4,745269	3,2745	27,2628	-0,079	86,001	0	1012,46	6,5	8,5	8,4	1	1	1	1	1	1	1	1	1	0	1	-2,889359	273,920233	316,322859	0
15.01.2021	08:16:34	0	0	3,05053	2,9745	34,3224	-0,085	85,981	0	1012,46	6,4	8,5	8,4	1	1	1	1	1	1	1	1	1	0	1	-7,188161	273,794971	311,440564	0
15.01.2021	08:16:35	0	0	4,406321	2,7015	24,732	-0,082	85,975	0	1012,46	6,5	8,5	8,4	1	1	1	1	1	1	1	1	1	0	1	-7,610994	273,890686	311,463517	0
15.01.2021	08:16:36	0	0	4,519304	2,5155	13,9068	-0,083	85,983	0	1012,44	6,5	8,5	8,4	1	1	1	1	1	1	1	1	1	0	1	-8,245243	273,899545	310,870553	0
15.01.2021	08:16:37	0	0	4,067374	2,5215	30,3192	-0,086	85,985	0	1012,46	6,5	8,5	8,4	1	1	1	1	1	1	1	1	1	0	1	-5,84919	273,837616	312,978093	0
15.01.2021	08:16:38	0	0	3,05053	2,535	25,4088	-0,08	85,984	0	1012,38	6,5	8,5	8,4	1	1	1	1	1	1	1	1	1	0	1	-9,936575	273,924668	309,296321	0
15.01.2021	08:16:39	0	0	2,711582	2,63625	22,8312	-0,081	85,979	0	1012,44	6,5	8,5	8,4	1	1	1	1	1	1	1	1	1	0	1	-5,778717	273,781755	312,788494	0
15.01.2021	08:16:40	0	0	4,858252	2,682	7,5168	-0,084	85,975	0	1012,36	6,5	8,5	8,4	1	1	1	1	1	1	1	1	1	0	1	-7,540521	273,875929	311,465232	0
15.01.2021	08:16:41	0	0	4,406321	2,793	23,2056	-0,083	85,978	0	1012,44	6,5	8,5	8,4	1	1	1	1	1	1	1	1	1	0	1	-9,795631	273,943903	309,526937	0
15.01.2021	08:16:42	0	0	4,293339	3,0705	25,0956	-0,081	85,98	0	1012,4	6,5	8,5	8,4	1	1	1	1	1	1	1	1	1	0	1	-3,312192	273,761216	315,159434	0
15.01.2021	08:16:43	0	0	4,745269	3,21825	23,9796	-0,083	85,969	0	1012,38	6,5	8,5	8,4	1	1	1	1	1	1	1	1	1	0	1	-6,342495	273,926147	312,897295	0
15.01.2021	08:16:44	0	0	4,519304	3,072	32,8968	-0,087	85,99	0	1012,4	6,5	8,5	8,4	1	1	1	1	1	1	1	1	1	0	1	-9,725159	273,865607	309,232503	0
15.01.2021	08:16:45	0	0	3,163513	3,1065	18,1764	-0,083	85,984	0	1012,3	6,5	8,5	8,4	1	1	1	1	1	1	1	1	1	0	1	-8,80902	273,909886	310,354971	0
15.01.2021	08:16:46	0	0	2,824565	3,084	16,0884	-0,084	85,988	0	1012,48	6,5	8,5	8,4	1	1	1	1	1	1	1	1	1	0	1	-2,466526	273,756818	315,984634	0
15.01.2021	08:16:47	0	0	2,824565	2,97075	29,9664	-0,083	85,983	0	1012,48	6,5	8,5	8,4	1	1	1	1	1	1	1	1	1	0	1	-5,567301	273,821429	313,184604	0
15.01.2021	08:16:48	0	0	4,519304	2,8965	16,4808	-0,085	85,977	0	1012,46	6,5	8,5	8,4	1	1	1	1	1	1	1	1	1	0	1	-6,694856	273,91432	312,4898	0
15.01.2021	08:16:49	0	0	4,632287	2,99625	30,3048	-0,084	85,971	0	1012,32	6,5	8,5	8,4	1	1	1	1	1	1	1	1	1	0	1	-9,020437	273,855289	309,889163	0
15.01.2021	08:16:50	0	0	2,5986	3,0105	31,3704	-0,084	85,963	0	1012,48	6,4	8,5	8,4	1	1	1	1	1	1	1	1	1	0	1	-1,832276	273,936503	317,455789	0
15.01.2021	08:16:51	0	0	3,276495	2,91225	33,2604	-0,087	85,976	0	1012,42	6,4	8,6	8,4	1	1	1	1	1	1	1	1	1	0	1	-2,114165	273,932064	317,153207	0
15.01.2021	08:16:52	0	0	3,502461	2,9115	33,6312	-0,086	85,969	0	1012,46	6,5	8,5	8,4	1	1	1	1	1	1	1	1	1	0	1	-6,412967	273,87003	312,565302	0
15.01.2021	08:16:53	0	0	3,389478	2,787	30,4056	-0,079	85,985	0	1012,36	6,5	8,5	8,4	1	1	1	1	1	1	1	1	1	0	1	-7,399577	273,924668	311,833319	0
15.01.2021	08:16:54	0	0	3,728426	2,679	23,2092	-0,081	85,977	0	1012,3	6,5	8,5	8,4	1	1	1	1	1	1	1	1	1	0	1	-10,42988	273,8229	308,328874	0
15.01.2021	08:16:55	0	0	4,745269	2,8185	32,148	-0,087	85,982	0	1012,44	6,5	8,5	8,4	1	1	1	1	1	1	1	1	1	0	1	-6,694856	273,926147	312,544934	0
15.01.2021	08:16:56	0	0	3,502461	2,86275	36,8928	-0,081	85,985	0	1012,22	6,5	8,5	8,4	1	1	1	1	1	1	1	1	1	0	1	-4,369274	273,799378	314,279966	0
15.01.2021	08:16:57	0	0	4,067374	2,85525	33,6312	-0,077	85,982	0	1012,48	6,5	8,5	8,4	1	1	1	1	1	1	1	1	1	0	1	-8,104299	273,875929	310,901455	0
15.01.2021	08:16:58	0	0	3,502461	2,7405	33,9444	-0,084	85,986	0	1012,42	6,5	8,5	8,4	1	1	1	1	1	1	1	1	1	0	1	-2,677942	273,905453	316,46539	0
15.01.2021	08:16:59	0	0	4,406321	2,85525	31,77	-0,084	85,956	0	1012,58	6,5	8,5	8,4	1	1	1	1	1	1	1	1	1	0	1	-5,637773	273,818487	313,100435	0
15.01.2021	08:17:00	0	0	2,937548	3,06	32,148	-0,084	85,989	0	1012,44	6,5	8,5	8,4	1	1	1	1	1	1	1	1	1	0	1	-9,584214	273,861184	309,352846	0
15.01.2021	08:17:01	0	0	2,937548	3,06	32,148	-0,084	85,989	0	1012,44	6,5	8,5	8,4	1	1	1	1	1	1	1	1	1	0	1	-9,584214	273,861184	309,352846	0
15.01.2021	08:17:02	0	0	2,372635	3,19875	26,8848	-0,087	85,969	0	1012,46	6,5	8,5	8,4	1	1	1	1	1	1	1	1	1	0	1	-6,20155	273,755352	312,242788	0
15.01.2021	08:17:03	0	0	3,728426	3,48	28,3392	-0,081	85,96	0	1012,32	6,5	8,5	8,4	1	1	1	1	1	1	1	1	1	0	1	-4,369274	273,906931	314,780944	0
15.01.2021	08:17:04	0	0	2,824565	3,59475	23,9724	-0,08	85,979	0	1012,52	6,5	8,6	8,4	1	1	1	1	1	1	1	1	1	0	1	-5,21494	273,812606	313,495882	0
15.01.2021	08:17:05	0	0	4,632287	3,32475	33,9516	-0,083	85,973	0	1012,34	6,4	8,5	8,4	1	1	1	1	1	1	1	1	1	0	1	-8,45666	273,898068	310,652254	0
15.01.2021	08:17:06	0	0	3,389478	3,15525	36,6048	-0,081	85,962	0	1012,54	6,4	8,5	8,4	1	1	1	1	1	1	1	1	1	0	1	-5,21494	273,864132	313,735854	0
15.01.2021	08:17:07	0	0	3,163513	3,0615	35,082	-0,081	85,957	0	1012,4	6,5	8,5	8,4	1	1	1	1	1	1	1	1	1	0	1	-6,694856	273,77295	311,831376	0
15.01.2021	08:17:08	0	0	3,728426	3,03	16,0812	-0,074	85,963	0	1012,34	6,5	8,5	8,4	1	1	1	1	1	1	1	1	1	0	1	-7,399577	273,811135	311,3044	0
15.01.2021	08:17:09	0	0	4,745269	2,96475	27,99	-0,08	85,954	0	1012,52	6,4	8,5	8,4	1	1	1	1	1	1	1	1	1	0	1	-7,963354	273,896591	311,138677	0
15.01.2021	08:17:10	0	0	3,389478	2,8245	31,7628	-0,08	85,976	0	1012,46	6,4	8,5	8,4	1	1	1	1	1	1	1	1	1	0	1	-6,060606	273,792033	312,554445	0
15.01.2021	08:17:11	0	0	4,632287	2,66325	30,3336	-0,085	85,943	0	1012,38	6,5	8,5	8,4	1	1	1	1	1	1	1	1	1	0	1	-5,567301	273,883306	313,472823	0
15.01.2021	08:17:12	0	0	5,1972	2,6865	21,0096	-0,08	85,957	0	1012,28	6,5	8,5	8,4	1	1	1	1	1	1	1	1	1	0	1	-4,298802	273,77882	314,254747	0
15.01.2021	08:17:13	0	0	3,728426	2,9925	31,3992	-0,084	85,964	0	1012,3	6,5	8,6	8,4	1	1	1	1	1	1	1	1	1	0	1	-8,033827	273,868555	310,937572	0
15.01.2021	08:17:14	0	0	3,502461	3,138	34,7004	-0,081	85,967	0	1012,46	6,4	8,5	8,4	1	1	1	1	1	1	1	1	1	0	1	-8,738548	273,78616	309,849162	0
15.01.2021	08:17:15	0	0	4,067374	3,16575	30,3192	-0,084	85,961	0	1012,52	6,4	8,5	8,4	1	1	1	1	1	1	1	1	1	0	1	-3,453136	273,789096	315,148243	0
15.01.2021	08:17:16	0	0	4,519304	3,237	32,5044	-0,081	85,951	0	1012,48	6,5	8,6	8,4	1	1	1	1	1	1	1	1	1	0	1	-6,765328	273,787628	311,829217	0
15.01.2021	08:17:17	0	0	2,5986	3,14775	27,2556	-0,078	85,965	0	1012,48	6,4	8,5	8,4	1	1	1	1	1	1	1	1	1	0	1	-4,862579	273,765616	313,629519	0
15.01.2021	08:17:18	0	0	4,632287	3,08625	19,5264	-0,084	85,964	0	1012,46	6,4	8,5	8,4	1	1	1	1	1	1	1	1	1	0	1	-9,302326	273,865607	309,655336	0
15.01.2021	08:17:19	0	0	3,954391	3,012	18,8352	-0,083	85,957	0	1012,42	6,4	8,5	8,4	1	1	1	1	1	1	1	1	1	0	1	-4,862579	273,762683	313,61587	0
15.01.2021	08:17:20	0	0	3,276495	2,949	26,8956	-0,079	85,963	0	1012,48	6,5	8,5	8,4	1	1	1	1	1	1	1	1	1	0	1	-9,584214	273,847923	309,291076	0
15.01.2021	08:17:21	0	0	2,824565	2,93475	34,3332	-0,079	85,969	0	1012,44	6,5	8,5	8,4	1	1	1	1	1	1	1	1	1	0	1	-5,355884	273,921711	313,863225	0
15.01.2021	08:17:22	0	0	3,163513	2,88825	33,6204	-0,08	85,964	0	1012,5	6,5	8,5	8,4	1	1	1	1	1	1	1	1	1	0	1	-8,45666	273,797909	310,185742	0
15.01.2021	08:17:23	0	0	4,519304	2,86125	37,2852	-0,08	85,964	0	1012,52	6,4	8,5	8,4	1	1	1	1	1	1	1	1	1	0	1	-4,510218	273,862658	314,433708	0
15.01.2021	08:17:24	0	0	4,180356	2,73975	32,1372	-0,076	85,96	0	1012,48	6,4	8,5	8,4	1	1	1	1	1	1	1	1	1	0	1	-4,087385	273,789096	314,513994	0
15.01.2021	08:17:25	0	0	4,293339	2,70225	30,798	-0,08	85,97	0	1012,26	6,4	8,5	8,4	1	1	1	1	1	1	1	1	1	0	1	-7,610994	273,902499	311,518569	0
15.01.2021	08:17:26	0	0	4,519304	2,61225	32,148	-0,083	85,96	0	1012,44	6,5	8,5	8,4	1	1	1	1	1	1	1	1	1	0	1	-6,131078	273,939462	313,170786	0
15.01.2021	08:17:27	0	0	3,163513	2,57025	25,4052	-0,079	85,954	0	1012,4	6,5	8,5	8,4	1	1	1	1	1	1	1	1	1	0	1	-8,033827	273,799378	310,615414	0
15.01.2021	08:17:28	0	0	4,519304	2,47575	27,27	-0,087	85,964	0	1012,38	6,5	8,5	8,4	1	1	1	1	1	1	1	1	1	0	1	-6,131078	273,777352	312,41564	0
15.01.2021	08:17:29	0	0	3,502461	2,53575	23,9688	-0,081	85,946	0	1012,4	6,4	8,5	8,4	1	1	1	1	1	1	1	1	1	0	1	-6,342495	273,783223	312,231549	0
15.01.2021	08:17:30	0	0	4,406321	2,69175	32,238	-0,08	85,969	0	1012,48	6,5	8,6	8,4	1	1	1	1	1	1	1	1	1	0	1	-6,483439	273,883306	312,556685	0
15.01.2021	08:17:31	0	0	4,745269	2,8245	29,9484	-0,075	85,962	0	1012,44	6,4	8,5	8,4	1	1	1	1	1	1	1	1	1	0	1	-6,272023	273,927626	312,974662	0
15.01.2021	08:17:32	0	0	4,971234	2,8485	31,014	-0,076	85,955	0	1012,42	6,5	8,5	8,4	1	1	1	1	1	1	1	1	1	0	1	-6,976744	273,903976	312,159703	0
15.01.2021	08:17:33	0	0	2,824565	2,8545	20,6244	-0,077	85,957	0	1012,4	6,5	8,5	8,4	1	1	1	1	1	1	1	1	1	0	1	-6,624383	273,777352	311,922335	0
15.01.2021	08:17:34	0	0	4,519304	2,9085	29,9304	-0,079	85,958	0	1012,34	6,5	8,5	8,4	1	1	1	1	1	1	1	1	1	0	1	-6,342495	273,825842	312,42996	0
15.01.2021	08:17:35	0	0	3,163513	2,886	23,2056	-0,076	85,964	0	1012,48	6,5	8,5	8,4	1	1	1	1	1	1	1	1	1	0	1	-6,412967	273,771483	312,106437	0
15.01.2021	08:17:36	0	0	3,954391	2,86875	18,81	-0,083	85,955	0	1012,5	6,4	8,5	8,4	1	1	1	1	1	1	1	1	1	0	1	-9,44327	273,775885	309,096619	0
15.01.2021	08:17:37	0	0	2,824565	2,916	26,1792	-0,08	85,964	0	1012,5	6,4	8,5	8,4	1	1	1	1	1	1	1	1	1	0	1	-4,22833	273,893638	314,85994	0
15.01.2021	08:17:38	0	0	3,954391	2,8155	19,1448	-0,081	85,951	0	1012,36	6,4	8,5	8,4	1	1	1	1	1	1	1	1	1	0	1	-5,990134	273,932064	313,277238	0
15.01.2021	08:17:39	0	0	3,615443	2,80725	18,0828	-0,081	85,967	0	1012,6	6,4	8,5	8,4	1	1	1	1	1	1	1	1	1	0	1	-5,919662	273,828785	312,866496	0
15.01.2021	08:17:40	0	0	4,067374	2,82675	21,3876	-0,077	85,971	0	1012,54	6,5	8,5	8,4	1	1	1	1	1	1	1	1	1	0	1	-8,738548	273,936503	310,549517	0
15.01.2021	08:17:41	0	0	4,067374	2,82975	16,092	-0,081	85,968	0	1012,48	6,4	8,5	8,4	1	1	1	1	1	1	1	1	1	0	1	-4,721635	273,802317	313,941286	0
15.01.2021	08:17:42	0	0	4,858252	2,74425	16,1028	-0,084	85,967	0	1012,5	6,5	8,5	8,4	1	1	1	1	1	1	1	1	1	0	1	-8,738548	273,924668	310,494347	0
15.01.2021	08:17:43	0	0	3,05053	2,7	22,0824	-0,08	85,956	0	1012,46	6,4	8,5	8,4	1	1	1	1	1	1	1	1	1	0	1	-6,8358	273,753886	311,601718	0
15.01.2021	08:17:44	0	0	2,937548	2,75925	14,6412	-0,085	85,95	0	1012,38	6,4	8,5	8,4	1	1	1	1	1	1	1	1	1	0	1	-7,188161	273,852343	311,707714	0
15.01.2021	08:17:45	0	0	2,824565	2,79975	15,0228	-0,078	85,955	0	1012,48	6,4	8,5	8,4	1	1	1	1	1	1	1	1	1	0	1	-9,090909	273,78616	309,496801	0
15.01.2021	08:17:46	0	0	3,276495	2,784	19,5228	-0,082	85,957	0	1012,42	6,4	8,5	8,4	1	1	1	1	1	1	1	1	1	0	1	-9,866103	273,850869	309,022909	0
15.01.2021	08:17:47	0	0	3,05053	2,766	17,2368	-0,08	85,954	0	1012,46	6,4	8,5	8,4	1	1	1	1	1	1	1	1	1	0	1	-7,188161	273,935023	312,093006	0
15.01.2021	08:17:48	0	0	4,745269	2,7795	10,4436	-0,081	85,938	0	1012,52	6,4	8,5	8,4	1	1	1	1	1	1	1	1	1	0	1	-3,664553	273,774418	314,868507	0
15.01.2021	08:17:49	0	0	4,067374	2,75475	9,3528	-0,076	85,952	0	1012,5	6,5	8,5	8,4	1	1	1	1	1	1	1	1	1	0	1	-13,530655	273,839088	305,303483	0
15.01.2021	08:17:50	0	0	4,067374	2,808	10,0548	-0,079	85,948	0	1012,24	6,3	8,5	8,4	1	1	1	1	1	1	1	1	1	0	1	-6,624383	273,940942	312,684381	0
15.01.2021	08:17:51	0	0	5,423165	2,676	19,6272	-0,077	85,961	0	1012,44	6,5	8,5	8,4	1	1	1	1	1	1	1	1	1	0	1	-11,627907	273,930585	307,632569	0
15.01.2021	08:17:52	0	0	3,276495	2,5905	18,4428	-0,085	85,954	0	1012,4	6,4	8,5	8,4	1	1	1	1	1	1	1	1	1	0	1	-5,21494	273,909886	313,949051	0
15.01.2021	08:17:53	0	0	2,372635	2,592	25,4232	-0,082	85,965	0	1012,44	6,5	8,5	8,4	1	1	1	1	1	1	1	1	1	0	1	-6,553911	273,774418	311,979149	0
15.01.2021	08:17:54	0	0	4,406321	2,54475	21,7548	-0,084	85,953	0	1012,36	6,4	8,5	8,4	1	1	1	1	1	1	1	1	1	0	1	-5,778717	273,825842	312,993737	0
15.01.2021	08:17:55	0	0	4,180356	2,41875	22,4532	-0,083	85,943	0	1012,54	6,4	8,5	8,4	1	1	1	1	1	1	1	1	1	0	1	-5,21494	273,917276	313,983495	0
15.01.2021	08:17:56	0	0	2,824565	2,385	17,6904	-0,08	85,962	0	1012,38	6,5	8,5	8,4	1	1	1	1	1	1	1	1	1	0	1	-7,540521	273,77882	311,013028	0
15.01.2021	08:17:57	0	0	2,711582	2,70675	24,3396	-0,079	85,957	0	1012,46	6,5	8,5	8,4	1	1	1	1	1	1	1	1	1	0	1	-3,523608	273,880355	315,502766	0
15.01.2021	08:17:58	0	0	3,615443	2,8785	25,4232	-0,081	85,957	0	1012,32	6,5	8,5	8,4	1	1	1	1	1	1	1	1	1	0	1	-7,399577	273,783223	311,174467	0
15.01.2021	08:17:59	0	0	4,067374	2,781	14,2992	-0,076	85,968	0	1012,5	6,5	8,5	8,4	1	1	1	1	1	1	1	1	1	0	1	-8,386187	273,952786	310,977804	0
15.01.2021	08:18:00	0	0	3,502461	3,14925	8,9856	-0,077	85,96	0	1012,5	6,4	8,5	8,4	1	1	1	1	1	1	1	1	1	0	1	-8,245243	273,783223	310,328801	0
15.01.2021	08:18:01	0	0	3,502461	3,14925	8,9856	-0,077	85,96	0	1012,5	6,4	8,5	8,4	1	1	1	1	1	1	1	1	1	0	1	-8,245243	273,783223	310,328801	0
15.01.2021	08:18:02	0	0	4,858252	2,99625	10,0548	-0,079	85,964	0	1012,46	6,5	8,5	8,4	1	1	1	1	1	1	1	1	1	0	1	-7,751938	273,883306	311,288186	0
15.01.2021	08:18:03	0	0	2,824565	2,91075	19,5228	-0,081	85,943	0	1012,54	6,5	8,5	8,4	1	1	1	1	1	1	1	1	1	0	1	-5,21494	273,945383	314,11453	0
15.01.2021	08:18:04	0	0	3,502461	2,87925	19,5156	-0,076	85,957	0	1012,48	6,4	8,5	8,4	1	1	1	1	1	1	1	1	1	0	1	-3,59408	273,908408	315,563024	0
15.01.2021	08:18:05	0	0	3,05053	2,9025	23,22	-0,077	85,965	0	1012,54	6,4	8,5	8,4	1	1	1	1	1	1	1	1	1	0	1	-4,933051	273,940942	314,375713	0
15.01.2021	08:18:06	0	0	2,711582	2,8695	16,5708	-0,08	85,955	0	1012,28	6,4	8,5	8,4	1	1	1	1	1	1	1	1	1	0	1	-9,513742	273,960193	309,884786	0
15.01.2021	08:18:07	0	0	4,858252	2,811	15,3972	-0,078	85,959	0	1012,44	6,4	8,5	8,4	1	1	1	1	1	1	1	1	1	0	1	-5,990134	273,853816	312,912603	0
15.01.2021	08:18:08	0	0	2,711582	2,98875	19,5408	-0,078	85,961	0	1012,5	6,4	8,5	8,4	1	1	1	1	1	1	1	1	1	0	1	-3,875969	273,794971	314,752756	0
15.01.2021	08:18:09	0	0	4,180356	3,04125	18,4464	-0,08	85,96	0	1012,48	6,4	8,5	8,4	1	1	1	1	1	1	1	1	1	0	1	-6,8358	273,903976	312,300648	0
15.01.2021	08:18:10	0	0	3,276476	3,09	25,0236	-0,081	85,968	0	1012,62	6,4	8,5	8,5	1	1	1	1	1	1	1	1	1	0	1	-5,496829	273,901022	313,625851	0
15.01.2021	08:18:11	0	0	2,711582	3,423	27,9828	-0,08	85,963	0	1012,5	6,5	8,5	8,4	1	1	1	1	1	1	1	1	1	0	1	-6,906272	273,935023	312,374895	0
15.01.2021	08:18:12	0	0	2,824565	3,525	17,2152	-0,079	85,977	0	1012,42	6,4	8,5	8,4	1	1	1	1	1	1	1	1	1	0	1	-3,59408	273,809665	315,103052	0
15.01.2021	08:18:13	0	0	4,180356	3,52575	10,8216	-0,077	85,967	0	1012,4	6,4	8,5	8,4	1	1	1	1	1	1	1	1	1	0	1	-10,641297	273,940942	308,667468	0
15.01.2021	08:18:14	0	0	3,502461	3,44325	7,506	-0,08	85,966	0	1012,44	6,4	8,5	8,4	1	1	1	1	1	1	1	1	1	0	1	-7,610994	273,918754	311,594333	0
15.01.2021	08:18:15	0	0	3,389478	3,3	6,4224	-0,079	85,957	0	1012,52	6,4	8,5	8,4	1	1	1	1	1	1	1	1	1	0	1	-5,496829	273,899545	313,618967	0
15.01.2021	08:18:16	0	0	2,937548	3,13275	19,1376	-0,078	85,967	0	1012,34	6,4	8,5	8,4	1	1	1	1	1	1	1	1	1	0	1	-0,563777	273,803786	318,105985	0
15.01.2021	08:18:17	0	0	2,824565	2,9985	13,1688	-0,083	85,945	0	1012,52	6,5	8,5	8,4	1	1	1	1	1	1	1	1	1	0	1	-11,06413	273,893638	308,024141	0
15.01.2021	08:18:18	0	0	3,389498	2,8215	7,4952	-0,076	85,951	0	1012,38	6,4	8,5	8,3	1	1	1	1	1	1	1	1	1	0	1	-3,523608	273,792033	315,091443	0
15.01.2021	08:18:19	0	0	4,406321	2,63325	3,0168	-0,081	85,946	0	1012,34	6,4	8,5	8,4	1	1	1	1	1	1	1	1	1	0	1	-8,174771	273,929105	311,078809	0
15.01.2021	08:18:20	0	0	3,728426	2,5875	4,086	-0,082	85,964	0	1012,6	6,4	8,5	8,4	1	1	1	1	1	1	1	1	1	0	1	-4,933051	273,896591	314,168981	0
15.01.2021	08:18:21	0	0	2,711582	2,8275	12,8592	-0,08	85,964	0	1012,4	6,4	8,5	8,4	1	1	1	1	1	1	1	1	1	0	1	-8,033827	273,777352	310,512892	0
15.01.2021	08:18:22	0	0	4,406321	2,95275	8,6076	-0,086	85,961	0	1012,42	6,4	8,5	8,4	1	1	1	1	1	1	1	1	1	0	1	-7,117689	273,87003	311,86058	0
15.01.2021	08:18:23	0	0	4,293339	3,2025	3,7764	-0,077	85,973	0	1012,38	6,4	8,5	8,4	1	1	1	1	1	1	1	1	1	0	1	-5,003524	273,940942	314,305241	0
15.01.2021	08:18:24	0	0	4,971234	3,34875	6,8184	-0,076	85,96	0	1012,52	6,5	8,5	8,4	1	1	1	1	1	1	1	1	1	0	1	-8,527132	273,809665	310,170001	0
15.01.2021	08:18:25	0	0	3,389478	3,29625	16,4736	-0,082	85,951	0	1012,46	6,4	8,5	8,4	1	1	1	1	1	1	1	1	1	0	1	-2,959831	273,808195	315,730458	0
15.01.2021	08:18:26	0	0	4,180356	3,1965	13,6368	-0,078	85,963	0	1012,42	6,4	8,5	8,4	1	1	1	1	1	1	1	1	1	0	1	-8,668076	273,827313	310,11123	0
15.01.2021	08:18:27	0	0	3,728426	3,0885	19,8936	-0,08	85,95	0	1012,3	6,4	8,5	8,4	1	1	1	1	1	1	1	1	1	0	1	-2,396054	273,939462	316,905811	0
15.01.2021	08:18:28	0	0	2,259652	2,9145	16,4664	-0,08	85,947	0	1012,4	6,4	8,5	8,4	1	1	1	1	1	1	1	1	1	0	1	-2,818887	273,836144	316,00154	0
15.01.2021	08:18:29	0	0	4,067374	2,89125	21,0168	-0,081	85,968	0	1012,4	6,4	8,5	8,4	1	1	1	1	1	1	1	1	1	0	1	-6,131078	273,793502	312,490809	0
15.01.2021	08:18:30	0	0	2,372635	2,868	22,0824	-0,08	85,976	0	1012,36	6,4	8,5	8,4	1	1	1	1	1	1	1	1	1	0	1	-3,664553	273,967602	315,768529	0
15.01.2021	08:18:31	0	0	4,632287	2,769	18,4428	-0,08	85,962	0	1012,38	6,5	8,5	8,4	1	1	1	1	1	1	1	1	1	0	1	-7,188161	273,846451	311,680269	0
15.01.2021	08:18:32	0	0	4,180356	2,70975	9,3708	-0,082	85,956	0	1012,42	6,4	8,5	8,4	1	1	1	1	1	1	1	1	1	0	1	-11,275546	273,797909	307,366855	0
15.01.2021	08:18:33	0	0	4,745269	2,49375	9,7416	-0,08	85,959	0	1012,38	6,4	8,5	8,4	1	1	1	1	1	1	1	1	1	0	1	-3,875969	273,915798	315,315576	0
15.01.2021	08:18:34	0	0	5,536147	2,56425	16,11	-0,076	85,971	0	1012,64	6,4	8,5	8,4	1	1	1	1	1	1	1	1	1	0	1	-7,540521	273,906931	311,609697	0
15.01.2021	08:18:35	0	0	4,971234	2,85225	15,3864	-0,081	85,962	0	1012,3	6,4	8,5	8,4	1	1	1	1	1	1	1	1	1	0	1	-5,21494	273,883306	313,825184	0
15.01.2021	08:18:36	0	0	3,163513	2,72325	8,262	-0,085	85,948	0	1012,46	6,5	8,5	8,4	1	1	1	1	1	1	1	1	1	0	1	-6,906272	273,783223	311,667772	0
15.01.2021	08:18:37	0	0	3,728403	2,50725	14,6556	-0,077	85,969	0	1012,62	6,4	8,5	8,5	1	1	1	1	1	1	1	1	1	0	1	-4,157858	273,847923	314,717432	0
15.01.2021	08:18:38	0	0	4,293365	2,27475	20,6316	-0,083	85,965	0	1012,42	6,3	8,5	8,3	1	1	1	1	1	1	1	1	1	0	1	-6,694856	273,955749	312,682948	0
15.01.2021	08:18:39	0	0	4,180356	2,28825	13,896	-0,082	85,967	0	1012,36	6,4	8,5	8,4	1	1	1	1	1	1	1	1	1	0	1	-3,453136	273,817017	315,278225	0
15.01.2021	08:18:40	0	0	2,824565	2,39025	3,8016	-0,082	85,946	0	1012,48	6,4	8,5	8,4	1	1	1	1	1	1	1	1	1	0	1	-7,963354	273,967602	311,469727	0
15.01.2021	08:18:41	0	0	5,084217	2,40075	16,4736	-0,08	85,974	0	1012,46	6,4	8,5	8,4	1	1	1	1	1	1	1	1	1	0	1	-6,765328	273,895115	312,329823	0
15.01.2021	08:18:42	0	0	4,632287	2,5545	23,2128	-0,079	85,962	0	1012,5	6,4	8,5	8,4	1	1	1	1	1	1	1	1	1	0	1	-8,174771	273,8332	310,631946	0
15.01.2021	08:18:43	0	0	2,824565	2,6505	36,2268	-0,085	85,959	0	1012,44	6,4	8,5	8,4	1	1	1	1	1	1	1	1	1	0	1	-9,372798	273,792033	309,242253	0
15.01.2021	08:18:44	0	0	4,632287	2,44275	2,2932	-0,082	85,959	0	1012,48	6,4	8,5	8,4	1	1	1	1	1	1	1	1	1	0	1	-3,805497	273,903976	315,330951	0
15.01.2021	08:18:45	0	0	4,406321	2,74425	9,3744	-0,08	85,972	0	1012,6	6,4	8,5	8,4	1	1	1	1	1	1	1	1	1	0	1	-6,624383	273,936503	312,663682	0
15.01.2021	08:18:46	0	0	4,971234	3,0645	4,4568	-0,075	85,969	0	1012,5	6,4	8,5	8,4	1	1	1	1	1	1	1	1	1	0	1	-5,637773	273,800847	313,018307	0
15.01.2021	08:18:47	0	0	2,711582	3,46875	7,5996	-0,077	85,953	0	1012,52	6,4	8,5	8,4	1	1	1	1	1	1	1	1	1	0	1	-3,100775	273,88921	315,966857	0
15.01.2021	08:18:48	0	0	3,728426	3,6795	5,2272	-0,077	85,967	0	1012,28	6,4	8,5	8,4	1	1	1	1	1	1	1	1	1	0	1	-8,315715	273,960193	311,082813	0
15.01.2021	08:18:49	0	0	3,841408	3,66975	8,6184	-0,082	85,96	0	1012,52	6,4	8,5	8,4	1	1	1	1	1	1	1	1	1	0	1	-4,087385	273,868555	314,884013	0
15.01.2021	08:18:50	0	0	4,971264	3,57375	18,0756	-0,08	85,977	0	1012,46	6,4	8,5	8,3	1	1	1	1	1	1	1	1	1	0	1	-5,778717	273,79644	312,856845	0
15.01.2021	08:18:51	0	0	4,519304	3,6615	16,4628	-0,077	85,978	0	1012,5	6,4	8,5	8,4	1	1	1	1	1	1	1	1	1	0	1	-7,470049	273,842033	311,377804	0
15.01.2021	08:18:52	0	0	2,5986	3,7455	10,0476	-0,08	85,957	0	1012,52	6,4	8,5	8,4	1	1	1	1	1	1	1	1	1	0	1	-4,510218	273,92319	314,715784	0
15.01.2021	08:18:53	0	0	4,406321	3,51825	14,2992	-0,076	85,976	0	1012,5	6,4	8,5	8,4	1	1	1	1	1	1	1	1	1	0	1	-6,8358	273,95723	312,548912	0
15.01.2021	08:18:54	0	0	4,745269	3,11925	22,068	-0,076	85,978	0	1012,54	6,4	8,5	8,4	1	1	1	1	1	1	1	1	1	0	1	-8,738548	273,898068	310,370365	0
15.01.2021	08:18:55	0	0	3,163513	2,994	8,9856	-0,075	85,966	0	1012,36	6,4	8,5	8,4	1	1	1	1	1	1	1	1	1	0	1	-3,946441	273,818487	314,791767	0
15.01.2021	08:18:56	0	0	4,180356	2,853	8,604	-0,077	85,969	0	1012,46	6,4	8,5	8,4	1	1	1	1	1	1	1	1	1	0	1	-8,245243	273,932064	311,022129	0
15.01.2021	08:18:57	0	0	3,502461	2,8035	21,762	-0,074	85,959	0	1012,5	6,4	8,5	8,4	1	1	1	1	1	1	1	1	1	0	1	-9,302326	273,946863	310,034047	0
15.01.2021	08:18:58	0	0	4,180356	2,8725	19,8864	-0,078	85,962	0	1012,46	6,4	8,5	8,4	1	1	1	1	1	1	1	1	1	0	1	-8,738548	273,930585	310,521927	0
15.01.2021	08:18:59	0	0	3,954391	2,934	12,8664	-0,076	85,965	0	1012,46	6,4	8,5	8,4	1	1	1	1	1	1	1	1	1	0	1	-3,030303	273,8229	315,728451	0
15.01.2021	08:19:00	0	0	2,937548	2,967	13,5468	-0,073	85,982	0	1012,46	6,4	8,5	8,4	1	1	1	1	1	1	1	1	1	0	1	-4,651163	273,961674	314,754275	0
15.01.2021	08:19:01	0	0	2,5986	2,80275	13,5432	-0,083	85,959	0	1012,2	6,4	8,5	8,4	1	1	1	1	1	1	1	1	1	0	1	-4,651163	273,961674	314,754275	0
15.01.2021	08:19:02	0	0	2,5986	2,80275	13,5432	-0,083	85,959	0	1012,2	6,4	8,5	8,4	1	1	1	1	1	1	1	1	1	0	1	-4,087385	273,831728	314,712478	0
15.01.2021	08:19:03	0	0	4,632287	2,71125	22,0824	-0,074	85,967	0	1012,52	6,4	8,5	8,4	1	1	1	1	1	1	1	1	1	0	1	-5,990134	273,921711	313,228976	0
15.01.2021	08:19:04	0	0	4,519331	2,715	12,8376	-0,079	85,978	0	1012,5	6,4	8,5	8,3	1	1	1	1	1	1	1	1	1	0	1	-4,721635	273,954267	314,649262	0
15.01.2021	08:19:05	0	0	2,824565	2,70675	18,8388	-0,084	85,953	0	1012,4	6,4	8,5	8,4	1	1	1	1	1	1	1	1	1	0	1	-2,255109	273,828785	316,531049	0
15.01.2021	08:19:06	0	0	3,389478	2,61525	17,2368	-0,077	85,96	0	1012,44	6,4	8,5	8,4	1	1	1	1	1	1	1	1	1	0	1	-6,624383	273,952786	312,739608	0
15.01.2021	08:19:07	0	0	3,276495	2,5875	13,5432	-0,077	85,98	0	1012,42	6,4	8,5	8,4	1	1	1	1	1	1	1	1	1	0	1	-8,245243	273,818487	310,492965	0
15.01.2021	08:19:08	0	0	4,067374	2,634	7,8876	-0,079	85,964	0	1012,48	6,4	8,5	8,4	1	1	1	1	1	1	1	1	1	0	1	-8,738548	273,855289	310,171052	0
15.01.2021	08:19:09	0	0	2,259652	2,80275	9,378	-0,075	85,959	0	1012,44	6,4	8,5	8,4	1	1	1	1	1	1	1	1	1	0	1	-4,157858	273,821429	314,594047	0
15.01.2021	08:19:10	0	0	3,502482	2,82675	16,0992	-0,079	85,968	0	1012,58	6,4	8,5	8,3	1	1	1	1	1	1	1	1	1	0	1	-6,694856	273,954267	312,676042	0
15.01.2021	08:19:11	0	0	2,824565	2,77875	14,6448	-0,074	85,962	0	1012,48	6,4	8,5	8,4	1	1	1	1	1	1	1	1	1	0	1	-4,721635	273,77882	313,831914	0
15.01.2021	08:19:12	0	0	4,971234	2,69025	4,4676	-0,074	85,971	0	1012,44	6,4	8,5	8,4	1	1	1	1	1	1	1	1	1	0	1	-6,483439	273,861184	312,453621	0
15.01.2021	08:19:13	0	0	3,389498	2,457	21,384	-0,076	85,979	0	1012,56	6,4	8,5	8,3	1	1	1	1	1	1	1	1	1	0	1	-3,805497	273,775885	314,734392	0
15.01.2021	08:19:14	0	0	3,05053	2,2665	15,8652	-0,079	85,955	0	1012,42	6,4	8,5	8,4	1	1	1	1	1	1	1	1	1	0	1	-5,567301	273,887734	313,493454	0
15.01.2021	08:19:15	0	0	3,502461	2,27775	22,4748	-0,075	85,968	0	1012,48	6,4	8,5	8,4	1	1	1	1	1	1	1	1	1	0	1	-8,738548	273,939462	310,563316	0
15.01.2021	08:19:16	0	0	2,598615	2,39475	19,8828	-0,081	85,963	0	1012,36	6,4	8,5	8,3	1	1	1	1	1	1	1	1	1	0	1	-5,285412	273,781755	313,281799	0
15.01.2021	08:19:17	0	0	4,293339	2,562	19,1412	-0,078	85,964	0	1012,36	6,4	8,5	8,4	1	1	1	1	1	1	1	1	1	0	1	-3,875969	273,85971	315,054225	0
15.01.2021	08:19:18	0	0	3,841408	2,685	21,0024	-0,077	85,957	0	1012,32	6,4	8,5	8,4	1	1	1	1	1	1	1	1	1	0	1	-10,007047	273,964638	309,412211	0
15.01.2021	08:19:19	0	0	3,389458	2,73375	20,628	-0,075	85,983	0	1012,5	6,4	8,5	8,5	1	1	1	1	1	1	1	1	1	0	1	-5,708245	273,856763	313,208219	0
15.01.2021	08:19:20	0	0	3,05053	2,6805	31,3956	-0,079	85,974	0	1012,48	6,4	8,5	8,4	1	1	1	1	1	1	1	1	1	0	1	-6,272023	273,946863	313,06435	0
15.01.2021	08:19:21	0	0	3,163513	2,64675	23,2272	-0,072	85,968	0	1012,62	6,4	8,5	8,4	1	1	1	1	1	1	1	1	1	0	1	-1,198027	273,96612	318,228143	0
15.01.2021	08:19:22	0	0	4,745241	2,77275	6,0552	-0,073	85,958	0	1012,44	6,4	8,5	8,5	1	1	1	1	1	1	1	1	1	0	1	-6,483439	273,898068	312,625475	0
15.01.2021	08:19:23	0	0	4,406321	2,84625	22,0716	-0,085	85,957	0	1012,46	6,4	8,5	8,4	1	1	1	1	1	1	1	1	1	0	1	-4,580691	273,806726	314,102756	0
15.01.2021	08:19:24	0	0	4,745269	2,9115	25,776	-0,084	85,96	0	1012,46	6,4	8,5	8,4	1	1	1	1	1	1	1	1	1	0	1	-6,694856	273,886258	312,359022	0
15.01.2021	08:19:25	0	0	3,163532	2,70825	12,8484	-0,08	85,973	0	1012,64	6,4	8,5	8,3	1	1	1	1	1	1	1	1	1	0	1	-7,188161	273,794971	311,440564	0
15.01.2021	08:19:26	0	0	3,276495	2,61075	16,8444	-0,074	85,968	0	1012,6	6,4	8,5	8,4	1	1	1	1	1	1	1	1	1	0	1	-10,147992	273,825842	308,624463	0
15.01.2021	08:19:27	0	0	4,519304	2,66325	18,0576	-0,077	85,971	0	1012,5	6,4	8,5	8,4	1	1	1	1	1	1	1	1	1	0	1	-4,721635	273,864132	314,229159	0
15.01.2021	08:19:28	0	0	2,5986	3,0465	23,598	-0,075	85,954	0	1012,42	6,4	8,5	8,4	1	1	1	1	1	1	1	1	1	0	1	-6,906272	273,949825	312,443909	0
15.01.2021	08:19:29	0	0	2,711599	3,17325	18,4392	-0,076	85,956	0	1012,5	6,4	8,5	8,3	1	1	1	1	1	1	1	1	1	0	1	-7,329105	273,819958	311,415951	0
15.01.2021	08:19:30	0	0	4,406321	3,18225	22,8312	-0,078	85,967	0	1012,5	6,4	8,5	8,4	1	1	1	1	1	1	1	1	1	0	1	-5,637773	273,949825	313,712407	0
15.01.2021	08:19:31	0	0	4,293339	3,09	13,9284	-0,08	85,96	0	1012,44	6,4	8,5	8,4	1	1	1	1	1	1	1	1	1	0	1	-8,738548	273,954267	310,632349	0
15.01.2021	08:19:32	0	0	4,180356	3,07575	16,848	-0,08	85,953	0	1012,44	6,4	8,5	8,4	1	1	1	1	1	1	1	1	1	0	1	-6,483439	273,930585	312,777036	0
15.01.2021	08:19:33	0	0	4,745269	3,1305	10,0728	-0,082	85,961	0	1012,38	6,4	8,5	8,4	1	1	1	1	1	1	1	1	1	0	1	-7,117689	273,809665	311,579444	0
15.01.2021	08:19:34	0	0	3,389498	3,147	11,1996	-0,078	85,952	0	1012,44	6,4	8,5	8,3	1	1	1	1	1	1	1	1	1	0	1	-12,966878	273,958711	306,424741	0
15.01.2021	08:19:35	0	0	4,745269	3,0465	3,024	-0,078	85,963	0	1012,46	6,4	8,5	8,4	1	1	1	1	1	1	1	1	1	0	1	-4,439746	273,92319	314,786256	0
15.01.2021	08:19:36	0	0	3,728448	3,108	15,03	-0,08	85,965	0	1012,38	6,4	8,5	8,3	1	1	1	1	1	1	1	1	1	0	1	-5,567301	273,952786	313,79669	0
15.01.2021	08:19:37	0	0	4,406321	2,93025	19,8936	-0,076	85,962	0	1012,38	6,4	8,5	8,4	1	1	1	1	1	1	1	1	1	0	1	-3,946441	273,939462	315,355423	0
15.01.2021	08:19:38	0	0	2,937548	2,90325	18,0684	-0,076	85,967	0	1012,52	6,4	8,5	8,4	1	1	1	1	1	1	1	1	1	0	1	-7,329105	273,84056	311,511891	0
15.01.2021	08:19:39	0	0	3,050512	2,82225	17,694	-0,079	85,946	0	1012,4	6,4	8,5	8,5	1	1	1	1	1	1	1	1	1	0	1	-8,668076	273,792033	309,946975	0
15.01.2021	08:19:40	0	0	4,632287	2,68425	8,6256	-0,08	85,955	0	1012,38	6,5	8,5	8,4	1	1	1	1	1	1	1	1	1	0	1	-4,439746	273,973531	315,02099	0
15.01.2021	08:19:41	0	0	3,05053	2,658	7,8876	-0,073	85,956	0	1012,44	6,4	8,5	8,4	1	1	1	1	1	1	1	1	1	0	1	-5,919662	273,814076	312,798006	0
15.01.2021	08:19:42	0	0	5,1972	2,8935	21,006	-0,075	85,956	0	1012,5	6,4	8,5	8,4	1	1	1	1	1	1	1	1	1	0	1	-8,879493	273,932064	310,387879	0
15.01.2021	08:19:43	0	0	3,163513	2,94	10,8252	-0,08	85,961	0	1012,4	6,4	8,5	8,4	1	1	1	1	1	1	1	1	1	0	1	-5,355884	273,893638	313,732386	0
15.01.2021	08:19:44	0	0	2,485632	2,95575	12,8556	-0,082	85,968	0	1012,46	6,4	8,5	8,3	1	1	1	1	1	1	1	1	1	0	1	-4,721635	273,793502	313,900253	0
15.01.2021	08:19:45	0	0	4,971264	3,12675	4,086	-0,078	85,962	0	1012,4	6,4	8,6	8,3	1	1	1	1	1	1	1	1	1	0	1	-5,84919	273,843505	313,005522	0
15.01.2021	08:19:46	0	0	2,824565	3,11175	3,0204	-0,076	85,972	0	1012,5	6,4	8,5	8,4	1	1	1	1	1	1	1	1	1	0	1	-6,624383	273,964638	312,794875	0
15.01.2021	08:19:47	0	0	3,389498	3,18225	10,44	-0,075	85,97	0	1012,54	6,4	8,5	8,3	1	1	1	1	1	1	1	1	1	0	1	-11,980268	273,935023	307,300899	0
15.01.2021	08:19:48	0	0	4,971234	3,19575	4,824	-0,079	85,968	0	1012,32	6,4	8,5	8,4	1	1	1	1	1	1	1	1	1	0	1	-8,315715	273,912842	310,862052	0
15.01.2021	08:19:49	0	0	2,937548	3,3105	6,048	-0,078	85,966	0	1012,56	6,4	8,5	8,4	1	1	1	1	1	1	1	1	1	0	1	-10,993658	273,774418	307,539402	0
15.01.2021	08:19:50	0	0	2,824548	3,58275	9,7488	-0,079	85,963	0	1012,44	6,4	8,5	8,5	1	1	1	1	1	1	1	1	1	0	1	-3,453136	273,91432	315,73152	0
15.01.2021	08:19:51	0	0	3,163494	3,86175	21,7656	-0,084	85,955	0	1012,26	6,4	8,5	8,5	1	1	1	1	1	1	1	1	1	0	1	-6,765328	273,800847	311,890753	0
15.01.2021	08:19:52	0	0	3,615443	3,732	13,1832	-0,077	85,956	0	1012,38	6,4	8,6	8,4	1	1	1	1	1	1	1	1	1	0	1	-5,990134	273,78616	312,597576	0
15.01.2021	08:19:53	0	0	2,937548	3,5835	8,9892	-0,075	85,967	0	1012,5	6,4	8,5	8,4	1	1	1	1	1	1	1	1	1	0	1	-5,778717	273,836144	313,041709	0
15.01.2021	08:19:54	0	0	4,067374	3,5745	17,2368	-0,077	85,952	0	1012,5	6,4	8,5	8,4	1	1	1	1	1	1	1	1	1	0	1	-6,483439	273,960193	312,915089	0
15.01.2021	08:19:55	0	0	4,180356	3,28275	18,4536	-0,076	85,972	0	1012,58	6,4	8,5	8,4	1	1	1	1	1	1	1	1	1	0	1	-12,825934	273,815546	305,89858	0
15.01.2021	08:19:56	0	0	2,93753	3,04125	0,8748	-0,075	85,97	0	1012,44	6,4	8,5	8,5	1	1	1	1	1	1	1	1	1	0	1	-8,245243	273,909886	310,918748	0
15.01.2021	08:19:57	0	0	3,954391	2,96325	22,8204	-0,076	85,966	0	1012,46	6,4	8,5	8,4	1	1	1	1	1	1	1	1	1	0	1	-8,80902	273,960193	310,589508	0
15.01.2021	08:19:58	0	0	3,389498	2,89275	13,1652	-0,075	85,97	0	1012,54	6,4	8,5	8,3	1	1	1	1	1	1	1	1	1	0	1	-3,523608	273,797909	315,118793	0
15.01.2021	08:19:59	0	0	4,519331	2,835	15,0408	-0,078	85,97	0	1012,44	6,4	8,5	8,3	1	1	1	1	1	1	1	1	1	0	1	-10,288936	273,867081	308,675594	0
15.01.2021	08:20:00	0	0	2,937565	2,739	18,0612	-0,074	85,959	0	1012,42	6,4	8,5	8,3	1	1	1	1	1	1	1	1	1	0	1	-6,412967	273,952786	312,951024	0
15.01.2021	08:20:01	0	0	2,937565	2,739	18,0612	-0,074	85,959	0	1012,42	6,4	8,5	8,3	1	1	1	1	1	1	1	1	1	0	1	-6,412967	273,952786	312,951024	0
15.01.2021	08:20:02	0	0	2,937565	2,7465	16,0812	-0,077	85,977	0	1012,54	6,4	8,5	8,3	1	1	1	1	1	1	1	1	1	0	1	-10,218464	273,899545	308,897332	0
15.01.2021	08:20:03	0	0	3,502482	2,8665	22,4676	-0,073	85,958	0	1012,44	6,4	8,5	8,3	1	1	1	1	1	1	1	1	1	0	1	-9,090909	273,805256	309,585695	0
15.01.2021	08:20:04	0	0	4,632287	3,19425	11,178	-0,075	85,972	0	1012,46	6,4	8,5	8,4	1	1	1	1	1	1	1	1	1	0	1	-8,949965	273,836144	309,870462	0
15.01.2021	08:20:05	0	0	4,406321	3,34275	13,914	-0,077	85,969	0	1012,54	6,4	8,5	8,4	1	1	1	1	1	1	1	1	1	0	1	-7,540521	273,824371	311,225083	0
15.01.2021	08:20:06	0	0	3,276476	3,3435	13,9356	-0,085	85,967	0	1012,56	6,4	8,5	8,5	1	1	1	1	1	1	1	1	1	0	1	-7,117689	273,96612	312,308481	0
15.01.2021	08:20:07	0	0	3,954391	3,26775	15,8148	-0,079	85,953	0	1012,54	6,4	8,5	8,4	1	1	1	1	1	1	1	1	1	0	1	-7,610994	273,861184	311,326066	0
15.01.2021	08:20:08	0	0	4,180331	3,28125	18,1656	-0,085	85,956	0	1012,48	6,4	8,5	8,5	1	1	1	1	1	1	1	1	1	0	1	-6,20155	273,961674	313,203887	0
15.01.2021	08:20:09	0	0	3,389478	3,31725	8,604	-0,075	85,954	0	1012,5	6,4	8,5	8,4	1	1	1	1	1	1	1	1	1	0	1	-5,84919	273,918754	313,356137	0
15.01.2021	08:20:10	0	0	4,632287	3,42075	4,4568	-0,078	85,962	0	1012,46	6,4	8,5	8,4	1	1	1	1	1	1	1	1	1	0	1	-9,231853	273,961674	310,173584	0
15.01.2021	08:20:11	0	0	3,841431	3,28875	8,604	-0,074	85,968	0	1012,54	6,4	8,5	8,3	1	1	1	1	1	1	1	1	1	0	1	-3,453136	273,939462	315,848728	0
15.01.2021	08:20:12	0	0	2,598584	2,98725	14,0004	-0,075	85,972	0	1012,5	6,4	8,5	8,5	1	1	1	1	1	1	1	1	1	0	1	-6,483439	273,903976	312,653008	0
15.01.2021	08:20:13	0	0	2,711599	2,6745	17,2296	-0,074	85,973	0	1012,56	6,4	8,5	8,3	1	1	1	1	1	1	1	1	1	0	1	-8,597604	273,95723	310,787107	0
15.01.2021	08:20:14	0	0	3,841385	2,5785	19,89	-0,078	85,964	0	1012,48	6,4	8,5	8,5	1	1	1	1	1	1	1	1	1	0	1	-4,721635	273,834672	314,091937	0
15.01.2021	08:20:15	0	0	3,841385	2,538	25,7904	-0,078	85,952	0	1012,58	6,4	8,6	8,5	1	1	1	1	1	1	1	1	1	0	1	-5,778717	273,969084	313,661277	0
15.01.2021	08:20:16	0	0	3,954415	2,5785	12,2652	-0,081	85,964	0	1012,5	6,4	8,5	8,3	1	1	1	1	1	1	1	1	1	0	1	-8,386187	273,935023	310,89498	0
15.01.2021	08:20:17	0	0	4,519331	2,49075	18,0864	-0,078	85,952	0	1012,44	6,4	8,6	8,3	1	1	1	1	1	1	1	1	1	0	1	-4,580691	273,8332	314,226027	0
15.01.2021	08:20:18	0	0	4,519304	2,6895	16,0776	-0,075	85,971	0	1012,46	6,4	8,5	8,4	1	1	1	1	1	1	1	1	1	0	1	-3,875969	273,79644	314,759594	0
15.01.2021	08:20:19	0	0	3,841431	3,075	13,6332	-0,076	85,972	0	1012,5	6,4	8,5	8,3	1	1	1	1	1	1	1	1	1	0	1	-5,285412	273,827313	313,493894	0
15.01.2021	08:20:20	0	0	4,067374	3,30825	13,1652	-0,074	85,964	0	1012,62	6,4	8,5	8,4	1	1	1	1	1	1	1	1	1	0	1	-8,879493	273,887734	310,181262	0
15.01.2021	08:20:21	0	0	2,711566	3,396	13,5504	-0,075	85,965	0	1012,52	6,4	8,5	8,5	1	1	1	1	1	1	1	1	1	0	1	-3,382664	273,79644	315,252899	0
15.01.2021	08:20:22	0	0	3,841408	3,3	21,7728	-0,068	85,956	0	1012,48	6,4	8,5	8,4	1	1	1	1	1	1	1	1	1	0	1	-7,681466	273,834672	311,132106	0
15.01.2021	08:20:23	0	0	5,084217	3,1935	18,9288	-0,072	85,959	0	1012,52	6,4	8,5	8,4	1	1	1	1	1	1	1	1	1	0	1	-6,342495	273,821429	312,40941	0
15.01.2021	08:20:24	0	0	4,745241	3,19125	22,446	-0,078	85,956	0	1012,54	6,4	8,5	8,5	1	1	1	1	1	1	1	1	1	0	1	-9,090909	273,800847	309,565171	0
15.01.2021	08:20:25	0	0	5,197231	3,1905	13,554	-0,074	85,96	0	1012,5	6,4	8,5	8,3	1	1	1	1	1	1	1	1	1	0	1	-11,557435	273,877405	307,455192	0
15.01.2021	08:20:26	0	0	3,50244	3,2055	14,3028	-0,072	85,962	0	1012,54	6,4	8,5	8,5	1	1	1	1	1	1	1	1	1	0	1	-6,694856	273,792033	311,920195	0
15.01.2021	08:20:27	0	0	4,858281	3,171	29,0952	-0,073	85,977	0	1012,52	6,4	8,5	8,3	1	1	1	1	1	1	1	1	1	0	1	-9,936575	273,906931	309,213643	0
15.01.2021	08:20:28	0	0	2,93753	3,0495	21,0024	-0,075	85,965	0	1012,46	6,4	8,5	8,5	1	1	1	1	1	1	1	1	1	0	1	-4,298802	273,952786	315,065189	0
15.01.2021	08:20:29	0	0	5,1972	2,9025	18,8244	-0,07	85,957	0	1012,62	6,4	8,5	8,4	1	1	1	1	1	1	1	1	1	0	1	-8,527132	273,980945	310,968187	0
15.01.2021	08:20:30	0	0	4,745298	2,77725	16,8552	-0,074	85,968	0	1012,46	6,4	8,5	8,3	1	1	1	1	1	1	1	1	1	0	1	-7,610994	273,871505	311,374145	0
15.01.2021	08:20:31	0	0	4,519304	2,79525	19,9008	-0,074	85,966	0	1012,62	6,4	8,5	8,4	1	1	1	1	1	1	1	1	1	0	1	-8,949965	273,958711	310,441655	0
15.01.2021	08:20:32	0	0	5,084186	2,778	12,456	-0,082	85,963	0	1012,46	6,4	8,5	8,5	1	1	1	1	1	1	1	1	1	0	1	-6,131078	273,943903	313,191489	0
15.01.2021	08:20:33	0	0	4,406348	2,95275	21,384	-0,077	85,962	0	1012,52	6,4	8,5	8,3	1	1	1	1	1	1	1	1	1	0	1	-9,866103	273,939462	309,435761	0
15.01.2021	08:20:34	0	0	4,858252	3,38025	27,0072	-0,081	85,955	0	1012,46	6,4	8,5	8,4	1	1	1	1	1	1	1	1	1	0	1	-8,597604	273,806726	310,085842	0
15.01.2021	08:20:35	0	0	4,067374	3,327	23,5872	-0,076	85,969	0	1012,68	6,4	8,5	8,4	1	1	1	1	1	1	1	1	1	0	1	-4,651163	273,875929	314,354591	0
15.01.2021	08:20:36	0	0	4,745298	3,29925	13,1688	-0,079	85,956	0	1012,48	6,4	8,5	8,3	1	1	1	1	1	1	1	1	1	0	1	-7,892882	273,794971	310,735842	0
15.01.2021	08:20:37	0	0	3,841385	3,22875	21,3696	-0,082	85,949	0	1012,58	6,4	8,5	8,5	1	1	1	1	1	1	1	1	1	0	1	-8,527132	273,908408	310,629973	0
15.01.2021	08:20:38	0	0	2,937565	3,17625	16,0956	-0,078	85,966	0	1012,4	6,4	8,5	8,3	1	1	1	1	1	1	1	1	1	0	1	-5,21494	273,954267	314,155957	0
15.01.2021	08:20:39	0	0	3,954415	3,1635	16,4772	-0,079	85,962	0	1012,52	6,4	8,5	8,3	1	1	1	1	1	1	1	1	1	0	1	-6,694856	273,849396	312,187295	0
15.01.2021	08:20:40	0	0	4,745241	3,345	23,5908	-0,082	85,95	0	1012,5	6,4	8,5	8,5	1	1	1	1	1	1	1	1	1	0	1	-8,386187	273,958711	311,005432	0
15.01.2021	08:20:41	0	0	3,389478	3,3705	17,6832	-0,077	85,947	0	1012,34	6,4	8,5	8,4	1	1	1	1	1	1	1	1	1	0	1	-6,765328	273,837616	312,061955	0
15.01.2021	08:20:42	0	0	4,632259	3,29475	17,6904	-0,075	85,975	0	1012,42	6,4	8,5	8,5	1	1	1	1	1	1	1	1	1	0	1	-9,866103	273,945383	309,463367	0
15.01.2021	08:20:43	0	0	4,519331	3,402	17,2332	-0,073	85,959	0	1012,46	6,4	8,5	8,3	1	1	1	1	1	1	1	1	1	0	1	-5,355884	273,803786	313,313878	0
15.01.2021	08:20:44	0	0	3,163494	3,34575	10,8216	-0,072	85,975	0	1012,58	6,4	8,5	8,5	1	1	1	1	1	1	1	1	1	0	1	-2,325581	273,827313	316,453725	0
15.01.2021	08:20:45	0	0	3,615421	3,40425	11,7108	-0,084	85,964	0	1012,44	6,4	8,5	8,5	1	1	1	1	1	1	1	1	1	0	1	-9,795631	273,96612	309,630539	0
15.01.2021	08:20:46	0	0	3,954415	3,42525	14,6412	-0,077	85,974	0	1012,5	6,4	8,5	8,3	1	1	1	1	1	1	1	1	1	0	1	-5,708245	273,906931	313,441973	0
15.01.2021	08:20:47	0	0	2,711599	3,41025	17,226	-0,075	85,956	0	1012,54	6,4	8,6	8,3	1	1	1	1	1	1	1	1	1	0	1	-10,42988	273,932064	308,837492	0
15.01.2021	08:20:48	0	0	3,841408	3,31425	9,3708	-0,079	85,953	0	1012,4	6,5	8,5	8,4	1	1	1	1	1	1	1	1	1	0	1	-4,651163	273,970566	314,795745	0
15.01.2021	08:20:49	0	0	3,05053	3,24975	11,1888	-0,077	85,954	0	1012,58	6,4	8,5	8,4	1	1	1	1	1	1	1	1	1	0	1	-6,906272	273,8229	311,852482	0
15.01.2021	08:20:50	0	0	2,824565	3,30525	8,6076	-0,078	85,972	0	1012,48	6,4	8,5	8,4	1	1	1	1	1	1	1	1	1	0	1	-5,708245	273,815546	313,016268	0
15.01.2021	08:20:51	0	0	2,93753	3,2025	16,0884	-0,076	85,98	0	1012,52	6,4	8,5	8,5	1	1	1	1	1	1	1	1	1	0	1	-8,879493	273,982429	310,622744	0
15.01.2021	08:20:52	0	0	4,632314	3,07425	21,7548	-0,087	85,966	0	1012,42	6,4	8,5	8,3	1	1	1	1	1	1	1	1	1	0	1	-6,483439	273,842033	312,364414	0
15.01.2021	08:20:53	0	0	2,5986	2,84325	12,096	-0,078	85,954	0	1012,58	6,4	8,5	8,4	1	1	1	1	1	1	1	1	1	0	1	-5,003524	273,952786	314,360467	0
15.01.2021	08:20:54	0	0	4,406348	2,76	14,3028	-0,078	85,97	0	1012,54	6,4	8,5	8,3	1	1	1	1	1	1	1	1	1	0	1	-5,708245	273,967602	313,724836	0
15.01.2021	08:20:55	0	0	4,519331	2,96475	18,072	-0,072	85,967	0	1012,52	6,4	8,5	8,3	1	1	1	1	1	1	1	1	1	0	1	-8,738548	273,886258	310,315329	0
15.01.2021	08:20:56	0	0	4,632259	3,12375	16,4664	-0,079	85,965	0	1012,54	6,4	8,5	8,5	1	1	1	1	1	1	1	1	1	0	1	-8,386187	273,954267	310,98471	0
15.01.2021	08:20:57	0	0	3,276476	3,1245	17,244	-0,077	85,961	0	1012,48	6,4	8,5	8,5	1	1	1	1	1	1	1	1	1	0	1	-6,694856	273,797909	311,947546	0
15.01.2021	08:20:58	0	0	3,389458	3,0495	20,628	-0,078	85,96	0	1012,46	6,4	8,5	8,5	1	1	1	1	1	1	1	1	1	0	1	-4,22833	273,867081	314,7362	0
15.01.2021	08:20:59	0	0	4,406295	3,06975	14,0256	-0,082	85,968	0	1012,5	6,4	8,5	8,5	1	1	1	1	1	1	1	1	1	0	1	-4,22833	273,827313	314,550976	0
15.01.2021	08:21:00	0	0	3,05053	3,171	11,196	-0,075	85,976	0	1012,5	6,4	8,5	8,4	1	1	1	1	1	1	1	1	1	0	1	-5,355884	273,825842	313,41657	0
15.01.2021	08:21:01	0	0	3,05053	3,171	11,196	-0,075	85,976	0	1012,5	6,4	8,5	8,4	1	1	1	1	1	1	1	1	1	0	1	-5,355884	273,825842	313,41657	0
15.01.2021	08:21:02	0	0	4,745269	3,1755	12,8376	-0,076	85,972	0	1012,5	6,4	8,5	8,4	1	1	1	1	1	1	1	1	1	0	1	-11,557435	273,955749	307,820369	0
15.01.2021	08:21:03	0	0	3,163532	3,2775	15,7824	-0,082	85,978	0	1012,56	6,4	8,5	8,3	1	1	1	1	1	1	1	1	1	0	1	-8,104299	273,924668	311,128597	0
15.01.2021	08:21:04	0	0	2,711599	3,204	5,6916	-0,072	85,974	0	1012,6	6,4	8,5	8,3	1	1	1	1	1	1	1	1	1	0	1	-1,832276	273,932064	317,435096	0
15.01.2021	08:21:05	0	0	2,37262	3,135	4,4712	-0,075	85,955	0	1012,66	6,4	8,5	8,5	1	1	1	1	1	1	1	1	1	0	1	-8,245243	273,963156	311,167105	0
15.01.2021	08:21:06	0	0	4,632287	3,25725	6,066	-0,078	85,97	0	1012,52	6,4	8,5	8,4	1	1	1	1	1	1	1	1	1	0	1	-7,047216	273,802317	311,615705	0
15.01.2021	08:21:07	0	0	2,711582	3,47775	11,196	-0,081	85,972	0	1012,56	6,4	8,5	8,4	1	1	1	1	1	1	1	1	1	0	1	-7,681466	273,970566	311,765442	0
15.01.2021	08:21:08	0	0	4,180331	3,4785	4,8384	-0,076	85,977	0	1012,36	6,4	8,5	8,5	1	1	1	1	1	1	1	1	1	0	1	-5,919662	273,880355	313,106712	0
15.01.2021	08:21:09	0	0	2,711582	3,31275	359,1	-0,079	85,978	0	1012,42	6,4	8,5	8,4	1	1	1	1	1	1	1	1	1	0	1	-2,466526	273,933543	316,807743	0
15.01.2021	08:21:10	0	0	4,745298	3,0885	0,4788	-0,072	85,971	0	1012,5	6,4	8,5	8,3	1	1	1	1	1	1	1	1	1	0	1	-8,738548	273,939462	310,563316	0
15.01.2021	08:21:11	0	0	3,50244	2,82075	16,0884	-0,074	85,974	0	1012,5	6,4	8,5	8,5	1	1	1	1	1	1	1	1	1	0	1	-7,188161	273,890686	311,88635	0
15.01.2021	08:21:12	0	0	2,824548	2,604	11,6964	-0,077	85,97	0	1012,5	6,4	8,5	8,5	1	1	1	1	1	1	1	1	1	0	1	-7,117689	273,960193	312,28084	0
15.01.2021	08:21:13	0	0	3,841431	2,589	8,2584	-0,075	85,975	0	1012,52	6,4	8,5	8,3	1	1	1	1	1	1	1	1	1	0	1	-4,933051	273,92319	314,292951	0
15.01.2021	08:21:14	0	0	5,084247	2,556	1,566	-0,077	85,95	0	1012,64	6,4	8,5	8,3	1	1	1	1	1	1	1	1	1	0	1	-9,161381	273,912842	310,016386	0
15.01.2021	08:21:15	0	0	3,841385	2,47425	7,5168	-0,067	85,986	0	1012,54	6,4	8,5	8,5	1	1	1	1	1	1	1	1	1	0	1	-10,641297	273,790565	307,966918	0
15.01.2021	08:21:16	0	0	4,067349	2,34525	3,0312	-0,077	85,976	0	1012,52	6,4	8,5	8,5	1	1	1	1	1	1	1	1	1	0	1	-5,073996	273,797909	313,568406	0
15.01.2021	08:21:17	0	0	4,067349	2,36925	7,1208	-0,078	85,983	0	1012,56	6,4	8,5	8,5	1	1	1	1	1	1	1	1	1	0	1	-5,990134	273,850869	312,898878	0
15.01.2021	08:21:18	0	0	3,163494	2,31525	11,7216	-0,07	85,973	0	1012,54	6,4	8,5	8,5	1	1	1	1	1	1	1	1	1	0	1	-5,21494	273,792033	313,400111	0
15.01.2021	08:21:19	0	0	4,858281	2,244	360	-0,073	85,973	0	1012,48	6,4	8,5	8,3	1	1	1	1	1	1	1	1	1	0	1	-8,879493	273,908408	310,277612	0
15.01.2021	08:21:20	0	0	4,519304	2,06025	7,8804	-0,071	85,977	0	1012,58	6,4	8,5	8,4	1	1	1	1	1	1	1	1	1	0	1	-3,664553	273,951305	315,692533	0
15.01.2021	08:21:21	0	0	3,50244	1,95825	9,7596	-0,077	85,976	0	1012,54	6,4	8,5	8,5	1	1	1	1	1	1	1	1	1	0	1	-1,550388	273,808195	317,139902	0
15.01.2021	08:21:22	0	0	3,841431	1,93425	6,8076	-0,083	85,967	0	1012,46	6,4	8,5	8,3	1	1	1	1	1	1	1	1	1	0	1	-6,272023	273,906931	312,878195	0
15.01.2021	08:21:23	0	0	3,615465	1,96275	7,1244	-0,072	85,983	0	1012,36	6,4	8,5	8,3	1	1	1	1	1	1	1	1	1	0	1	-5,21494	273,967602	314,218142	0
15.01.2021	08:21:24	0	0	4,519277	1,944	14,3064	-0,073	85,973	0	1012,54	6,4	8,5	8,5	1	1	1	1	1	1	1	1	1	0	1	-8,80902	273,899545	310,306776	0
15.01.2021	08:21:25	0	0	3,389458	1,977	25,1028	-0,077	85,964	0	1012,44	6,4	8,5	8,5	1	1	1	1	1	1	1	1	1	0	1	-5,496829	273,808195	313,19346	0
15.01.2021	08:21:26	0	0	3,50244	1,97175	13,9068	-0,083	85,966	0	1012,46	6,4	8,5	8,5	1	1	1	1	1	1	1	1	1	0	1	-1,902748	273,84056	316,938247	0
15.01.2021	08:21:27	0	0	3,276476	2,085	10,8144	-0,076	85,98	0	1012,6	6,4	8,5	8,5	1	1	1	1	1	1	1	1	1	0	1	-4,298802	273,932064	314,96857	0
15.01.2021	08:21:28	0	0	4,406295	2,301	8,9748	-0,084	85,97	0	1012,54	6,4	8,5	8,5	1	1	1	1	1	1	1	1	1	0	1	-8,315715	273,951305	311,04137	0
15.01.2021	08:21:29	0	0	2,824582	2,31075	14,0436	-0,079	85,972	0	1012,56	6,4	8,5	8,3	1	1	1	1	1	1	1	1	1	0	1	-3,946441	273,853816	314,956296	0
15.01.2021	08:21:30	0	0	4,632314	2,4165	5,2164	-0,077	85,969	0	1012,68	6,4	8,5	8,3	1	1	1	1	1	1	1	1	1	0	1	-5,637773	273,975014	313,829878	0
15.01.2021	08:21:31	0	0	3,050548	2,646	12,4704	-0,074	85,973	0	1012,4	6,4	8,5	8,3	1	1	1	1	1	1	1	1	1	0	1	-6,131078	273,927626	313,115606	0
15.01.2021	08:21:32	0	0	3,728448	2,78775	13,1688	-0,075	85,986	0	1012,56	6,4	8,5	8,3	1	1	1	1	1	1	1	1	1	0	1	-1,62086	273,79644	317,014703	0
15.01.2021	08:21:33	0	0	4,406295	2,85975	10,5444	-0,074	85,981	0	1012,56	6,4	8,5	8,5	1	1	1	1	1	1	1	1	1	0	1	-10,147992	273,96612	309,278178	0
15.01.2021	08:21:34	0	0	3,50244	2,79075	19,1412	-0,078	85,957	0	1012,6	6,4	8,5	8,5	1	1	1	1	1	1	1	1	1	0	1	-4,016913	273,936503	315,271152	0
15.01.2021	08:21:35	0	0	3,954415	2,60025	22,0788	-0,075	85,974	0	1012,56	6,4	8,5	8,3	1	1	1	1	1	1	1	1	1	0	1	-2,959831	273,958711	316,431789	0
15.01.2021	08:21:36	0	0	2,824565	2,565	18,4392	-0,076	85,982	0	1012,38	6,4	8,5	8,4	1	1	1	1	1	1	1	1	1	0	1	-4,439746	273,805256	314,236857	0
15.01.2021	08:21:37	0	0	3,163494	2,5995	11,214	-0,077	85,982	0	1012,52	6,4	8,5	8,5	1	1	1	1	1	1	1	1	1	0	1	-7,963354	273,924668	311,269541	0
15.01.2021	08:21:38	0	0	2,5986	2,5665	358,3728	-0,077	85,99	0	1012,48	6,4	8,5	8,4	1	1	1	1	1	1	1	1	1	0	1	-4,510218	273,908408	314,646886	0
15.01.2021	08:21:39	0	0	5,084247	2,57625	358,7472	-0,079	85,967	0	1012,68	6,4	8,5	8,3	1	1	1	1	1	1	1	1	1	0	1	-1,691332	273,979462	317,797069	0
15.01.2021	08:21:40	0	0	4,745269	2,8665	15,4044	-0,075	85,981	0	1012,52	6,4	8,5	8,4	1	1	1	1	1	1	1	1	1	0	1	-3,100775	273,92319	316,125227	0
15.01.2021	08:21:41	0	0	3,50244	3,0915	15,3864	-0,078	85,983	0	1012,62	6,4	8,5	8,5	1	1	1	1	1	1	1	1	1	0	1	-5,496829	273,920233	313,715389	0
15.01.2021	08:21:42	0	0	3,728426	3,036	11,1888	-0,077	85,983	0	1012,44	6,4	8,5	8,4	1	1	1	1	1	1	1	1	1	0	1	-3,805497	273,96612	315,620673	0
15.01.2021	08:21:43	0	0	3,389498	2,88825	16,0956	-0,076	85,988	0	1012,68	6,4	8,5	8,3	1	1	1	1	1	1	1	1	1	0	1	-5,567301	273,844978	313,29427	0
15.01.2021	08:21:44	0	0	3,615465	2,78475	354,276	-0,076	85,982	0	1012,5	6,4	8,5	8,3	1	1	1	1	1	1	1	1	1	0	1	-2,466526	273,960193	316,932003	0
15.01.2021	08:21:45	0	0	4,971264	2,5815	4,8456	-0,074	85,965	0	1012,48	6,4	8,5	8,3	1	1	1	1	1	1	1	1	1	0	1	-3,875969	273,945383	315,453501	0
15.01.2021	08:21:46	0	0	4,406348	2,232	6,8076	-0,072	85,981	0	1012,56	6,4	8,5	8,3	1	1	1	1	1	1	1	1	1	0	1	-3,453136	273,935023	315,828031	0
15.01.2021	08:21:47	0	0	4,519277	1,9635	24,3144	-0,076	85,985	0	1012,44	6,4	8,5	8,5	1	1	1	1	1	1	1	1	1	0	1	-5,285412	273,800847	313,370668	0
15.01.2021	08:21:48	0	0	3,163494	1,95975	25,4088	-0,077	85,975	0	1012,54	6,4	8,5	8,5	1	1	1	1	1	1	1	1	1	0	1	-5,990134	273,901022	313,132545	0
15.01.2021	08:21:49	0	0	2,824548	1,91925	17,2224	-0,076	85,978	0	1012,56	6,4	8,5	8,5	1	1	1	1	1	1	1	1	1	0	1	-4,580691	273,982429	314,921546	0
15.01.2021	08:21:50	0	0	3,163513	1,93425	21,0168	-0,079	85,976	0	1012,48	6,4	8,5	8,4	1	1	1	1	1	1	1	1	1	0	1	-5,144468	273,84056	313,696528	0
15.01.2021	08:21:51	0	0	3,389458	2,0055	22,0716	-0,077	85,975	0	1012,54	6,4	8,5	8,5	1	1	1	1	1	1	1	1	1	0	1	-4,933051	273,814076	313,784616	0
15.01.2021	08:21:52	0	0	2,5986	2,0025	21,0096	-0,07	85,984	0	1012,62	6,4	8,5	8,4	1	1	1	1	1	1	1	1	1	0	1	-8,45666	273,973531	311,004076	0
15.01.2021	08:21:53	0	0	3,841385	2,0445	23,5692	-0,079	85,979	0	1012,44	6,4	8,5	8,5	1	1	1	1	1	1	1	1	1	0	1	-8,949965	273,926147	310,289825	0
15.01.2021	08:21:54	0	0	4,745241	2,157	30,0276	-0,074	85,982	0	1012,54	6,4	8,5	8,5	1	1	1	1	1	1	1	1	1	0	1	-6,412967	273,806726	312,270479	0
15.01.2021	08:21:55	0	0	3,615421	2,25075	20,9952	-0,079	85,993	0	1012,54	6,4	8,5	8,5	1	1	1	1	1	1	1	1	1	0	1	-3,030303	273,784691	315,550574	0
15.01.2021	08:21:56	0	0	3,841408	2,1705	13,1508	-0,081	85,987	0	1012,52	6,4	8,5	8,4	1	1	1	1	1	1	1	1	1	0	1	-5,990134	273,895115	313,105017	0
15.01.2021	08:21:57	0	0	3,389458	2,23875	9,7596	-0,078	85,992	0	1012,56	6,4	8,6	8,5	1	1	1	1	1	1	1	1	1	0	1	-5,990134	273,815546	312,73438	0
15.01.2021	08:21:58	0	0	4,519331	2,3715	8,6184	-0,076	85,975	0	1012,58	6,4	8,5	8,3	1	1	1	1	1	1	1	1	1	0	1	-2,889359	273,824371	315,876245	0
15.01.2021	08:21:59	0	0	4,406321	2,2935	25,0524	-0,075	85,977	0	1012,58	6,4	8,5	8,4	1	1	1	1	1	1	1	1	1	0	1	-4,157858	273,892162	314,923533	0
15.01.2021	08:22:00	0	0	4,745269	2,067	33,6276	-0,079	85,992	0	1012,62	6,4	8,6	8,4	1	1	1	1	1	1	1	1	1	0	1	-7,82241	273,942422	311,493256	0
15.01.2021	08:22:01	0	0	4,745269	2,067	33,6276	-0,079	85,992	0	1012,62	6,4	8,6	8,4	1	1	1	1	1	1	1	1	1	0	1	-7,82241	273,942422	311,493256	0
15.01.2021	08:22:02	0	0	4,519277	1,989	31,7448	-0,08	85,983	0	1012,5	6,4	8,5	8,5	1	1	1	1	1	1	1	1	1	0	1	-5,778717	273,924668	313,454178	0
15.01.2021	08:22:03	0	0	3,50244	1,8435	24,3468	-0,078	85,976	0	1012,38	6,4	8,5	8,5	1	1	1	1	1	1	1	1	1	0	1	-6,624383	273,963156	312,787964	0
15.01.2021	08:22:04	0	0	2,598584	1,67925	21,006	-0,083	85,974	0	1012,62	6,4	8,5	8,5	1	1	1	1	1	1	1	1	1	0	1	-11,486963	273,806726	307,196483	0
15.01.2021	08:22:05	0	0	3,954367	1,5585	15,7752	-0,077	85,981	0	1012,44	6,4	8,5	8,5	1	1	1	1	1	1	1	1	1	0	1	-2,889359	273,940942	316,419406	0
15.01.2021	08:22:06	0	0	4,519277	1,5975	26,5212	-0,075	85,986	0	1012,48	6,4	8,5	8,5	1	1	1	1	1	1	1	1	1	0	1	-5,84919	273,805256	312,827414	0
15.01.2021	08:22:07	0	0	4,745241	1,62	18,432	-0,079	85,97	0	1012,46	6,4	8,5	8,5	1	1	1	1	1	1	1	1	1	0	1	-7,751938	273,911364	311,418941	0
15.01.2021	08:22:08	0	0	2,598584	1,70625	30,7044	-0,075	85,986	0	1012,52	6,4	8,5	8,5	1	1	1	1	1	1	1	1	1	0	1	-8,527132	273,942422	310,788534	0
15.01.2021	08:22:09	0	0	4,632259	1,7535	19,9044	-0,08	85,986	0	1012,48	6,4	8,5	8,5	1	1	1	1	1	1	1	1	1	0	1	-9,725159	273,830256	309,067852	0
15.01.2021	08:22:10	0	0	4,180331	1,73925	4,0824	-0,078	85,982	0	1012,52	6,4	8,5	8,5	1	1	1	1	1	1	1	1	1	0	1	-3,735025	273,803786	314,934737	0
15.01.2021	08:22:11	0	0	4,632259	1,87725	8,5932	-0,075	85,985	0	1012,48	6,4	8,5	8,5	1	1	1	1	1	1	1	1	1	0	1	-8,104299	273,808195	310,58599	0
15.01.2021	08:22:12	0	0	3,502461	2,21475	7,488	-0,083	85,986	0	1012,54	6,4	8,5	8,4	1	1	1	1	1	1	1	1	1	0	1	-7,681466	273,890686	311,393045	0
15.01.2021	08:22:13	0	0	4,519277	2,22075	17,7912	-0,081	85,994	0	1012,52	6,4	8,5	8,5	1	1	1	1	1	1	1	1	1	0	1	-11,06413	273,79644	307,571433	0
15.01.2021	08:22:14	0	0	4,745241	2,1105	15,3936	-0,078	85,993	0	1012,56	6,4	8,5	8,5	1	1	1	1	1	1	1	1	1	0	1	-6,412967	273,828785	312,373191	0
15.01.2021	08:22:15	0	0	2,598584	2,3055	12,8484	-0,072	85,978	0	1012,5	6,4	8,5	8,5	1	1	1	1	1	1	1	1	1	0	1	-6,765328	273,963156	312,64702	0
15.01.2021	08:22:16	0	0	4,745241	2,4375	19,1412	-0,073	85,99	0	1012,5	6,4	8,6	8,5	1	1	1	1	1	1	1	1	1	0	1	-9,866103	273,908408	309,291001	0
15.01.2021	08:22:17	0	0	3,615465	2,292	20,718	-0,071	85,989	0	1012,58	6,4	8,5	8,3	1	1	1	1	1	1	1	1	1	0	1	-5,567301	273,95723	313,81741	0
15.01.2021	08:22:18	0	0	4,180331	2,3415	33,2712	-0,076	85,989	0	1012,46	6,4	8,5	8,5	1	1	1	1	1	1	1	1	1	0	1	-6,412967	273,821429	312,338938	0
15.01.2021	08:22:19	0	0	4,180331	2,44275	12,1176	-0,075	85,997	0	1012,44	6,4	8,5	8,5	1	1	1	1	1	1	1	1	1	0	1	-5,778717	273,88921	313,288915	0
15.01.2021	08:22:20	0	0	3,841408	2,628	19,53	-0,074	85,991	0	1012,58	6,4	8,5	8,4	1	1	1	1	1	1	1	1	1	0	1	-11,275546	273,963156	308,136802	0
15.01.2021	08:22:21	0	0	4,180331	2,823	4,842	-0,076	85,979	0	1012,66	6,4	8,5	8,5	1	1	1	1	1	1	1	1	1	0	1	-8,033827	273,903976	311,102621	0
15.01.2021	08:22:22	0	0	2,824548	3,09825	9,7416	-0,076	86,004	0	1012,56	6,4	8,5	8,5	1	1	1	1	1	1	1	1	1	0	1	-7,047216	273,95723	312,337495	0
15.01.2021	08:22:23	0	0	3,163494	3,0015	16,8408	-0,08	85,972	0	1012,52	6,4	8,5	8,5	1	1	1	1	1	1	1	1	1	0	1	-8,386187	273,918754	310,819139	0
15.01.2021	08:22:24	0	0	4,632259	2,9295	18,072	-0,077	85,998	0	1012,56	6,4	8,5	8,5	1	1	1	1	1	1	1	1	1	0	1	-7,329105	273,905453	311,814227	0
15.01.2021	08:22:25	0	0	3,050512	2,84475	13,896	-0,078	85,982	0	1012,58	6,4	8,5	8,5	1	1	1	1	1	1	1	1	1	0	1	-5,073996	273,834672	313,739576	0
15.01.2021	08:22:26	0	0	4,971205	2,87325	14,2992	-0,075	85,981	0	1012,56	6,4	8,5	8,5	1	1	1	1	1	1	1	1	1	0	1	-4,580691	273,946863	314,755682	0
15.01.2021	08:22:27	0	0	3,954367	2,9385	18,1584	-0,078	85,984	0	1012,52	6,4	8,5	8,5	1	1	1	1	1	1	1	1	1	0	1	-7,610994	273,960193	311,787535	0
15.01.2021	08:22:28	0	0	3,05053	2,89125	23,9472	-0,077	85,98	0	1012,3	6,4	8,5	8,4	1	1	1	1	1	1	1	1	1	0	1	-3,805497	273,908408	315,351608	0
15.01.2021	08:22:29	0	0	4,519277	2,7795	11,2032	-0,075	85,999	0	1012,56	6,4	8,6	8,5	1	1	1	1	1	1	1	1	1	0	1	-8,668076	273,952786	310,695915	0
15.01.2021	08:22:30	0	0	3,050548	2,6955	8,9856	-0,079	85,995	0	1012,4	6,4	8,5	8,3	1	1	1	1	1	1	1	1	1	0	1	-4,369274	273,794971	314,259451	0
15.01.2021	08:22:31	0	0	3,389458	2,742	1,1052	-0,072	86,006	0	1012,7	6,4	8,5	8,5	1	1	1	1	1	1	1	1	1	0	1	-9,866103	273,847923	309,009187	0
15.01.2021	08:22:32	0	0	5,084186	2,793	19,1376	-0,069	85,994	0	1012,52	6,4	8,5	8,5	1	1	1	1	1	1	1	1	1	0	1	-8,245243	273,780288	310,315137	0
15.01.2021	08:22:33	0	0	4,519331	2,9205	10,8144	-0,079	85,997	0	1012,36	6,4	8,6	8,3	1	1	1	1	1	1	1	1	1	0	1	-8,033827	273,834672	310,779745	0
15.01.2021	08:22:34	0	0	2,598584	3,138	6,0516	-0,074	85,997	0	1012,58	6,4	8,5	8,5	1	1	1	1	1	1	1	1	1	0	1	-7,258633	273,815546	311,465881	0
15.01.2021	08:22:35	0	0	5,084247	3,219	7,8876	-0,072	85,981	0	1012,6	6,4	8,5	8,3	1	1	1	1	1	1	1	1	1	0	1	-5,708245	273,970566	313,738662	0
15.01.2021	08:22:36	0	0	4,858281	3,39225	8,262	-0,075	85,998	0	1012,66	6,4	8,5	8,3	1	1	1	1	1	1	1	1	1	0	1	-7,540521	273,824371	311,225083	0
15.01.2021	08:22:37	0	0	3,163494	3,42825	7,1352	-0,072	86,004	0	1012,6	6,4	8,5	8,5	1	1	1	1	1	1	1	1	1	0	1	-6,20155	273,918754	313,003776	0
15.01.2021	08:22:38	0	0	4,180356	3,42	8,9964	-0,079	85,991	0	1012,5	6,4	8,5	8,4	1	1	1	1	1	1	1	1	1	0	1	-2,114165	273,789096	316,487214	0
15.01.2021	08:22:39	0	0	3,954415	3,27	12,0996	-0,075	85,987	0	1012,58	6,4	8,5	8,3	1	1	1	1	1	1	1	1	1	0	1	-6,976744	273,893638	312,111526	0
15.01.2021	08:22:40	0	0	4,519277	3,1095	13,5468	-0,074	86,006	0	1012,64	6,4	8,5	8,5	1	1	1	1	1	1	1	1	1	0	1	-2,677942	273,784691	315,902935	0
15.01.2021	08:22:41	0	0	2,93753	3,07425	14,2848	-0,073	86,002	0	1012,6	6,4	8,5	8,5	1	1	1	1	1	1	1	1	1	0	1	-7,258633	273,79644	311,37693	0
15.01.2021	08:22:42	0	0	3,50244	2,94825	27,6552	-0,074	85,989	0	1012,78	6,4	8,5	8,5	1	1	1	1	1	1	1	1	1	0	1	-9,302326	273,847923	309,572965	0
15.01.2021	08:22:43	0	0	4,632287	2,8305	27,2772	-0,08	85,985	0	1012,44	6,4	8,5	8,4	1	1	1	1	1	1	1	1	1	0	1	-5,21494	273,937982	314,080024	0
15.01.2021	08:22:44	0	0	4,406295	2,7615	10,8252	-0,077	85,974	0	1012,56	6,4	8,5	8,5	1	1	1	1	1	1	1	1	1	0	1	-6,694856	273,935023	312,586311	0
15.01.2021	08:22:45	0	0	3,389498	2,8545	13,5396	-0,078	85,97	0	1012,5	6,4	8,5	8,3	1	1	1	1	1	1	1	1	1	0	1	-7,047216	273,92319	312,178786	0
15.01.2021	08:22:46	0	0	2,937565	3,13575	17,2116	-0,076	85,988	0	1012,6	6,4	8,5	8,3	1	1	1	1	1	1	1	1	1	0	1	-6,765328	273,818487	311,97288	0
15.01.2021	08:22:47	0	0	4,067398	3,084	13,9212	-0,077	85,998	0	1012,56	6,4	8,5	8,3	1	1	1	1	1	1	1	1	1	0	1	-4,369274	273,787628	314,22527	0
15.01.2021	08:22:48	0	0	4,293365	2,946	13,1652	-0,073	85,983	0	1012,5	6,4	8,5	8,3	1	1	1	1	1	1	1	1	1	0	1	-7,399577	273,967602	312,033504	0
15.01.2021	08:22:49	0	0	4,180331	2,71875	22,464	-0,074	85,993	0	1012,52	6,4	8,5	8,5	1	1	1	1	1	1	1	1	1	0	1	-8,597604	273,864132	310,35319	0
15.01.2021	08:22:50	0	0	3,841431	2,3655	41,8284	-0,079	85,977	0	1012,5	6,4	8,5	8,3	1	1	1	1	1	1	1	1	1	0	1	-8,597604	273,764149	309,88767	0
15.01.2021	08:22:51	0	0	4,971205	2,00025	40,986	-0,073	85,971	0	1012,58	6,4	8,5	8,5	1	1	1	1	1	1	1	1	1	0	1	-9,513742	273,864132	309,437052	0
15.01.2021	08:22:52	0	0	3,276515	1,764	23,22	-0,078	85,992	0	1012,52	6,4	8,5	8,3	1	1	1	1	1	1	1	1	1	0	1	-10,007047	273,77882	308,546502	0
15.01.2021	08:22:53	0	0	4,971264	1,638	22,8348	-0,08	85,977	0	1012,48	6,4	8,5	8,3	1	1	1	1	1	1	1	1	1	0	1	-11,698379	273,850869	307,190633	0
15.01.2021	08:22:54	0	0	3,954391	1,569	24,3252	-0,077	85,992	0	1012,54	6,4	8,5	8,4	1	1	1	1	1	1	1	1	1	0	1	-6,483439	273,952786	312,880552	0
15.01.2021	08:22:55	0	0	4,519331	1,64475	1,9224	-0,077	85,972	0	1012,56	6,4	8,5	8,3	1	1	1	1	1	1	1	1	1	0	1	-7,188161	273,871505	311,796978	0
15.01.2021	08:22:56	0	0	3,389458	1,92	358,7256	-0,076	85,98	0	1012,5	6,4	8,5	8,5	1	1	1	1	1	1	1	1	1	0	1	-7,892882	273,975014	311,574769	0
15.01.2021	08:22:57	0	0	5,1972	2,4075	23,22	-0,079	85,956	0	1012,6	6,4	8,5	8,4	1	1	1	1	1	1	1	1	1	0	1	-5,21494	273,872979	313,77707	0
15.01.2021	08:22:58	0	0	3,841408	2,57625	22,068	-0,079	85,981	0	1012,68	6,4	8,5	8,4	1	1	1	1	1	1	1	1	1	0	1	-5,708245	273,790565	312,899969	0
15.01.2021	08:22:59	0	0	4,858223	2,45175	13,5216	-0,079	85,99	0	1012,56	6,4	8,5	8,5	1	1	1	1	1	1	1	1	1	0	1	-3,805497	273,952786	315,558494	0
15.01.2021	08:23:00	0	0	3,276476	2,2275	52,2144	-0,08	85,97	0	1012,52	6,4	8,5	8,5	1	1	1	1	1	1	1	1	1	0	1	-1,691332	273,948344	317,651944	0
15.01.2021	08:23:01	0	0	3,276476	2,2275	52,2144	-0,08	85,97	0	1012,52	6,4	8,5	8,5	1	1	1	1	1	1	1	1	1	0	1	-1,691332	273,948344	317,651944	0
15.01.2021	08:23:02	0	0	4,632259	2,019	40,2372	-0,071	85,984	0	1012,38	6,4	8,5	8,5	1	1	1	1	1	1	1	1	1	0	1	-3,664553	273,852343	315,231322	0
15.01.2021	08:23:03	0	0	2,824548	1,95225	36,5904	-0,074	85,987	0	1012,64	6,4	8,5	8,5	1	1	1	1	1	1	1	1	1	0	1	-5,003524	273,831728	313,79634	0
15.01.2021	08:23:04	0	0	3,050548	1,95075	46,2096	-0,074	85,988	0	1012,64	6,4	8,5	8,3	1	1	1	1	1	1	1	1	1	0	1	-8,45666	273,781755	310,110552	0
15.01.2021	08:23:05	0	0	3,841385	2,24925	35,0676	-0,074	85,982	0	1012,54	6,4	8,5	8,5	1	1	1	1	1	1	1	1	1	0	1	-3,453136	273,911364	315,717743	0
15.01.2021	08:23:06	0	0	3,954415	2,6205	43,6608	-0,08	85,985	0	1012,56	6,4	8,5	8,3	1	1	1	1	1	1	1	1	1	0	1	-8,527132	273,939462	310,774733	0
15.01.2021	08:23:07	0	0	2,824548	2,9175	45,1404	-0,081	85,983	0	1012,52	6,4	8,5	8,5	1	1	1	1	1	1	1	1	1	0	1	-8,386187	273,783223	310,187856	0
15.01.2021	08:23:08	0	0	3,615465	2,8095	13,9068	-0,08	85,973	0	1012,46	6,4	8,5	8,3	1	1	1	1	1	1	1	1	1	0	1	-8,245243	273,862658	310,698683	0
15.01.2021	08:23:09	0	0	4,519277	2,69175	23,5764	-0,074	85,979	0	1012,6	6,4	8,5	8,5	1	1	1	1	1	1	1	1	1	0	1	-6,342495	273,954267	313,028402	0
15.01.2021	08:23:10	0	0	4,519277	2,62275	40,6008	-0,079	85,971	0	1012,58	6,4	8,5	8,5	1	1	1	1	1	1	1	1	1	0	1	-2,043693	273,890686	317,030818	0
15.01.2021	08:23:11	0	0	4,067349	2,70075	18,0828	-0,072	85,992	0	1012,74	6,4	8,5	8,5	1	1	1	1	1	1	1	1	1	0	1	-3,312192	273,946863	316,024181	0
15.01.2021	08:23:12	0	0	4,632314	2,84025	29,646	-0,074	85,983	0	1012,58	6,4	8,5	8,3	1	1	1	1	1	1	1	1	1	0	1	-4,792107	273,906931	314,358111	0
15.01.2021	08:23:13	0	0	3,615421	2,6655	24,3324	-0,077	85,978	0	1012,68	6,4	8,5	8,5	1	1	1	1	1	1	1	1	1	0	1	-6,272023	273,949825	313,078158	0
15.01.2021	08:23:14	0	0	4,067398	2,50875	9,7452	-0,085	85,98	0	1012,62	6,4	8,5	8,3	1	1	1	1	1	1	1	1	1	0	1	-4,016913	273,92319	315,209089	0
15.01.2021	08:23:15	0	0	4,745241	2,37225	11,1888	-0,077	85,978	0	1012,5	6,4	8,5	8,5	1	1	1	1	1	1	1	1	1	0	1	-10,288936	273,830256	308,504075	0
15.01.2021	08:23:16	0	0	3,050548	2,33775	7,5096	-0,08	85,989	0	1012,52	6,4	8,6	8,3	1	1	1	1	1	1	1	1	1	0	1	-6,20155	273,937982	313,093414	0
15.01.2021	08:23:17	0	0	4,406348	2,25525	14,6556	-0,082	85,999	0	1012,54	6,4	8,6	8,3	1	1	1	1	1	1	1	1	1	0	1	-3,735025	273,937982	315,55994	0
15.01.2021	08:23:18	0	0	4,067349	2,0595	7,5168	-0,081	85,991	0	1012,52	6,4	8,5	8,5	1	1	1	1	1	1	1	1	1	0	1	-5,778717	273,943903	313,54385	0
15.01.2021	08:23:19	0	0	3,841431	1,923	16,4736	-0,081	85,993	0	1012,46	6,4	8,5	8,3	1	1	1	1	1	1	1	1	1	0	1	-5,778717	273,91432	313,405938	0
15.01.2021	08:23:20	0	0	3,615421	1,94325	23,5836	-0,075	86	0	1012,66	6,4	8,5	8,5	1	1	1	1	1	1	1	1	1	0	1	-8,315715	273,830256	310,477295	0
15.01.2021	08:23:21	0	0	2,93753	2,09325	13,536	-0,083	86	0	1012,52	6,4	8,5	8,5	1	1	1	1	1	1	1	1	1	0	1	-8,315715	273,969084	311,124279	0
15.01.2021	08:23:22	0	0	4,180331	2,394	26,1684	-0,078	86	0	1012,6	6,4	8,5	8,5	1	1	1	1	1	1	1	1	1	0	1	-9,795631	273,892162	309,28576	0
15.01.2021	08:23:23	0	0	3,728403	2,53875	25,4088	-0,075	85,997	0	1012,6	6,4	8,5	8,5	1	1	1	1	1	1	1	1	1	0	1	-6,20155	273,964638	313,217708	0
15.01.2021	08:23:24	0	0	3,954367	2,44125	34,7076	-0,083	85,988	0	1012,54	6,4	8,5	8,5	1	1	1	1	1	1	1	1	1	0	1	-8,315715	273,890686	310,758796	0
15.01.2021	08:23:25	0	0	2,93753	2,208	16,4808	-0,079	85,999	0	1012,64	6,4	8,5	8,5	1	1	1	1	1	1	1	1	1	0	1	-7,963354	273,777352	310,583364	0
15.01.2021	08:23:26	0	0	4,180381	2,04375	14,3856	-0,081	85,988	0	1012,54	6,4	8,5	8,3	1	1	1	1	1	1	1	1	1	0	1	-5,990134	273,819958	312,754922	0
15.01.2021	08:23:27	0	0	3,615421	2,03025	34,7076	-0,077	85,984	0	1012,56	6,4	8,5	8,5	1	1	1	1	1	1	1	1	1	0	1	-7,188161	273,792033	311,42689	0
15.01.2021	08:23:28	0	0	4,406295	2,0295	41,4324	-0,082	85,996	0	1012,56	6,4	8,5	8,5	1	1	1	1	1	1	1	1	1	0	1	-4,22833	273,84056	314,612666	0
15.01.2021	08:23:29	0	0	4,519304	1,9365	13,5432	-0,085	85,988	0	1012,56	6,4	8,6	8,4	1	1	1	1	1	1	1	1	1	0	1	-5,84919	273,79644	312,786373	0
15.01.2021	08:23:30	0	0	2,711566	2,01	27,9576	-0,08	86,003	0	1012,6	6,4	8,5	8,5	1	1	1	1	1	1	1	1	1	0	1	-4,862579	273,828785	313,923579	0
15.01.2021	08:23:31	0	0	2,485632	1,9485	22,4604	-0,084	86	0	1012,46	6,4	8,5	8,3	1	1	1	1	1	1	1	1	1	0	1	-10,641297	273,905453	308,502036	0
15.01.2021	08:23:32	0	0	4,858281	1,9005	22,8168	-0,076	85,988	0	1012,56	6,4	8,5	8,3	1	1	1	1	1	1	1	1	1	0	1	-9,44327	273,951305	309,913816	0
15.01.2021	08:23:33	0	0	2,937548	1,878	26,1756	-0,076	86,002	0	1012,62	6,4	8,5	8,4	1	1	1	1	1	1	1	1	1	0	1	-10,077519	273,862658	308,866407	0
15.01.2021	08:23:34	0	0	2,37262	1,8825	4,0824	-0,078	85,985	0	1012,56	6,4	8,5	8,5	1	1	1	1	1	1	1	1	1	0	1	-2,748414	273,783223	315,82563	0
15.01.2021	08:23:35	0	0	4,632259	2,232	33,6348	-0,079	85,997	0	1012,58	6,4	8,5	8,5	1	1	1	1	1	1	1	1	1	0	1	-9,231853	273,895115	309,863297	0
15.01.2021	08:23:36	0	0	3,841385	2,421	31,0176	-0,077	86,005	0	1012,6	6,4	8,5	8,5	1	1	1	1	1	1	1	1	1	0	1	-7,188161	273,920233	312,024057	0
15.01.2021	08:23:37	0	0	2,37262	2,4555	27,2808	-0,082	85,997	0	1012,56	6,4	8,5	8,5	1	1	1	1	1	1	1	1	1	0	1	-8,879493	273,963156	310,532855	0
15.01.2021	08:23:38	0	0	4,632259	2,46825	22,0752	-0,076	86,001	0	1012,62	6,4	8,5	8,5	1	1	1	1	1	1	1	1	1	0	1	-9,725159	273,87888	309,294341	0
15.01.2021	08:23:39	0	0	4,406295	2,73975	31,3992	-0,077	86,003	0	1012,52	6,4	8,5	8,5	1	1	1	1	1	1	1	1	1	0	1	-3,805497	273,784691	314,77538	0
15.01.2021	08:23:40	0	0	3,050548	2,967	35,8488	-0,075	86,008	0	1012,6	6,4	8,6	8,3	1	1	1	1	1	1	1	1	1	0	1	-10,923185	273,803786	307,746577	0
15.01.2021	08:23:41	0	0	3,841385	2,82825	11,2896	-0,08	86,011	0	1012,6	6,4	8,5	8,5	1	1	1	1	1	1	1	1	1	0	1	-7,470049	273,792033	311,145001	0
15.01.2021	08:23:42	0	0	2,485632	2,697	26,5248	-0,075	85,998	0	1012,52	6,4	8,5	8,3	1	1	1	1	1	1	1	1	1	0	1	-6,483439	273,787628	312,111105	0
15.01.2021	08:23:43	0	0	2,37262	2,70075	23,2164	-0,073	86,008	0	1012,58	6,4	8,5	8,5	1	1	1	1	1	1	1	1	1	0	1	-7,399577	273,927626	311,847107	0
15.01.2021	08:23:44	0	0	4,745241	2,78475	32,5836	-0,074	86,018	0	1012,62	6,4	8,5	8,5	1	1	1	1	1	1	1	1	1	0	1	-13,178295	273,945383	306,151175	0
15.01.2021	08:23:45	0	0	2,598584	2,997	26,154	-0,077	86,01	0	1012,64	6,4	8,5	8,5	1	1	1	1	1	1	1	1	1	0	1	-5,496829	273,849396	313,385322	0
15.01.2021	08:23:46	0	0	2,824582	3,12	32,886	-0,081	86	0	1012,48	6,4	8,5	8,3	1	1	1	1	1	1	1	1	1	0	1	-8,949965	273,952786	310,414026	0
15.01.2021	08:23:47	0	0	4,632314	3,13125	29,9448	-0,077	86,006	0	1012,58	6,4	8,5	8,3	1	1	1	1	1	1	1	1	1	0	1	-9,725159	273,856763	309,191306	0
15.01.2021	08:23:48	0	0	4,519277	3,0465	28,7208	-0,055	86,026	0	1012,78	6,4	8,5	8,5	1	1	1	1	1	1	1	1	1	0	1	-10,42988	273,943903	308,892687	0
15.01.2021	08:23:49	0	0	4,519304	3,045	26,91	-0,084	86,001	0	1012,64	6,4	8,5	8,4	1	1	1	1	1	1	1	1	1	0	1	-7,610994	273,881831	311,422255	0
15.01.2021	08:23:50	0	0	3,389458	3,05025	15,39	-0,078	86,008	0	1012,62	6,4	8,5	8,5	1	1	1	1	1	1	1	1	1	0	1	-6,272023	273,768549	312,233727	0
15.01.2021	08:23:51	0	0	4,293365	2,98875	19,1412	-0,074	86,01	0	1012,64	6,4	8,5	8,3	1	1	1	1	1	1	1	1	1	0	1	-3,453136	273,908408	315,703968	0
15.01.2021	08:23:52	0	0	3,050548	2,64975	19,9908	-0,078	86,008	0	1012,68	6,4	8,5	8,3	1	1	1	1	1	1	1	1	1	0	1	-5,778717	273,8229	312,980037	0
15.01.2021	08:23:53	0	0	3,050548	2,40525	7,8624	-0,074	86,019	0	1012,66	6,4	8,6	8,3	1	1	1	1	1	1	1	1	1	0	1	-7,047216	273,797909	311,595185	0
15.01.2021	08:23:54	0	0	4,067398	2,442	26,1648	-0,079	86,011	0	1012,54	6,4	8,6	8,3	1	1	1	1	1	1	1	1	1	0	1	-6,765328	273,8332	312,04139	0
15.01.2021	08:23:55	0	0	4,406295	2,59275	27	-0,078	85,993	0	1012,6	6,4	8,5	8,5	1	1	1	1	1	1	1	1	1	0	1	-7,751938	273,784691	310,828939	0
15.01.2021	08:23:56	0	0	3,276515	2,7615	16,092	-0,078	86,007	0	1012,52	6,4	8,6	8,3	1	1	1	1	1	1	1	1	1	0	1	-7,047216	273,887734	312,013538	0
15.01.2021	08:23:57	0	0	4,519277	2,68125	26,1612	-0,075	86	0	1012,54	6,4	8,5	8,5	1	1	1	1	1	1	1	1	1	0	1	-9,725159	273,948344	309,618118	0
15.01.2021	08:23:58	0	0	4,519277	2,682	17,7192	-0,079	85,989	0	1012,62	6,4	8,5	8,5	1	1	1	1	1	1	1	1	1	0	1	-7,681466	273,808195	311,008823	0
15.01.2021	08:23:59	0	0	4,519277	2,78475	21,0096	-0,076	85,998	0	1012,56	6,4	8,5	8,5	1	1	1	1	1	1	1	1	1	0	1	-4,580691	273,903976	314,555757	0
15.01.2021	08:24:00	0	0	3,389498	2,79825	33,246	-0,076	86,005	0	1012,42	6,4	8,5	8,3	1	1	1	1	1	1	1	1	1	0	1	-6,483439	273,856763	312,433025	0
15.01.2021	08:24:01	0	0	3,389498	2,79825	33,246	-0,076	86,005	0	1012,42	6,4	8,5	8,3	1	1	1	1	1	1	1	1	1	0	1	-6,483439	273,856763	312,433025	0
15.01.2021	08:24:02	0	0	3,050512	2,73225	19,1304	-0,077	86,016	0	1012,54	6,4	8,5	8,5	1	1	1	1	1	1	1	1	1	0	1	-7,963354	273,945383	311,366115	0
15.01.2021	08:24:03	0	0	4,745241	2,66925	20,2932	-0,072	86,015	0	1012,44	6,4	8,5	8,5	1	1	1	1	1	1	1	1	1	0	1	-5,355884	273,875929	313,649869	0
15.01.2021	08:24:04	0	0	3,615421	2,57925	21,7692	-0,075	86,017	0	1012,46	6,4	8,5	8,5	1	1	1	1	1	1	1	1	1	0	1	-3,382664	273,78616	315,205046	0
15.01.2021	08:24:05	0	0	3,276515	2,41275	13,9104	-0,074	86,024	0	1012,58	6,4	8,5	8,3	1	1	1	1	1	1	1	1	1	0	1	-10,288936	273,790565	308,319279	0
15.01.2021	08:24:06	0	0	4,632314	2,2575	10,8108	-0,076	86,015	0	1012,64	6,4	8,5	8,3	1	1	1	1	1	1	1	1	1	0	1	-8,527132	273,91432	310,657524	0
15.01.2021	08:24:07	0	0	2,598584	2,25225	18,4536	-0,071	86,014	0	1012,4	6,4	8,5	8,5	1	1	1	1	1	1	1	1	1	0	1	-4,721635	273,877405	314,290992	0
15.01.2021	08:24:08	0	0	2,711599	2,2965	28,71	-0,081	86,015	0	1012,6	6,4	8,5	8,3	1	1	1	1	1	1	1	1	1	0	1	-5,567301	273,936503	313,720765	0
15.01.2021	08:24:09	0	0	2,93753	2,25225	12,8448	-0,074	86,019	0	1012,52	6,4	8,5	8,5	1	1	1	1	1	1	1	1	1	0	1	-7,470049	273,846451	311,398381	0
15.01.2021	08:24:10	0	0	4,293313	2,2635	2,394	-0,08	86,022	0	1012,58	6,4	8,5	8,5	1	1	1	1	1	1	1	1	1	0	1	-4,862579	273,948344	314,480697	0
15.01.2021	08:24:11	0	0	3,276476	2,1195	21,3876	-0,081	86,015	0	1012,54	6,4	8,5	8,5	1	1	1	1	1	1	1	1	1	0	1	-5,073996	273,864132	313,876798	0
15.01.2021	08:24:12	0	0	3,954367	2,13075	18,8316	-0,08	86,022	0	1012,6	6,4	8,5	8,5	1	1	1	1	1	1	1	1	1	0	1	-3,875969	273,927626	315,370715	0
15.01.2021	08:24:13	0	0	3,954367	2,24925	23,1948	-0,078	86,009	0	1012,64	6,4	8,6	8,5	1	1	1	1	1	1	1	1	1	0	1	-9,654686	273,943903	309,667881	0
15.01.2021	08:24:14	0	0	3,050512	2,1525	26,5032	-0,077	86,019	0	1012,62	6,4	8,5	8,5	1	1	1	1	1	1	1	1	1	0	1	-7,963354	273,915798	311,228191	0
15.01.2021	08:24:15	0	0	2,711566	2,11725	12,852	-0,077	86,025	0	1012,6	6,4	8,5	8,5	1	1	1	1	1	1	1	1	1	0	1	-7,470049	273,77882	311,0835	0
15.01.2021	08:24:16	0	0	4,067398	2,36475	21,0168	-0,073	86,032	0	1012,76	6,4	8,6	8,3	1	1	1	1	1	1	1	1	1	0	1	-8,949965	273,831728	309,849899	0
15.01.2021	08:24:17	0	0	4,519277	2,49375	7,128	-0,084	86,026	0	1012,54	6,4	8,6	8,5	1	1	1	1	1	1	1	1	1	0	1	-5,355884	273,942422	313,959781	0
15.01.2021	08:24:18	0	0	4,745298	2,625	1,5444	-0,081	86,022	0	1012,5	6,4	8,5	8,3	1	1	1	1	1	1	1	1	1	0	1	-9,372798	273,871505	309,612341	0
15.01.2021	08:24:19	0	0	3,728403	2,5635	24,7176	-0,073	86,02	0	1012,54	6,4	8,5	8,5	1	1	1	1	1	1	1	1	1	0	1	-8,45666	273,78616	310,131051	0
15.01.2021	08:24:20	0	0	2,824548	2,4585	23,22	-0,075	86,022	0	1012,46	6,4	8,5	8,5	1	1	1	1	1	1	1	1	1	0	1	-9,725159	273,780288	308,835221	0
15.01.2021	08:24:21	0	0	3,615421	2,391	9,3852	-0,076	86,041	0	1012,66	6,4	8,5	8,5	1	1	1	1	1	1	1	1	1	0	1	-7,610994	273,901022	311,511686	0
15.01.2021	08:24:22	0	0	3,050512	2,724	10,062	-0,076	86,027	0	1012,48	6,4	8,5	8,5	1	1	1	1	1	1	1	1	1	0	1	-9,161381	273,955749	310,216423	0
15.01.2021	08:24:23	0	0	4,519277	3,08175	8,2584	-0,08	86,016	0	1012,62	6,4	8,5	8,5	1	1	1	1	1	1	1	1	1	0	1	-5,496829	273,909886	313,667163	0
15.01.2021	08:24:24	0	0	4,406348	3,26475	18,8244	-0,079	86,035	0	1012,74	6,4	8,5	8,3	1	1	1	1	1	1	1	1	1	0	1	-11,557435	273,95723	307,827277	0
15.01.2021	08:24:25	0	0	3,276476	3,26025	12,4632	-0,07	86,034	0	1012,78	6,4	8,5	8,5	1	1	1	1	1	1	1	1	1	0	1	-5,990134	273,909886	313,173857	0
15.01.2021	08:24:26	0	0	3,389458	3,34875	11,2032	-0,074	86,043	0	1012,64	6,4	8,5	8,5	1	1	1	1	1	1	1	1	1	0	1	-9,584214	273,787628	309,01033	0
15.01.2021	08:24:27	0	0	3,841431	3,3465	8,2512	-0,075	86,033	0	1012,46	6,4	8,5	8,3	1	1	1	1	1	1	1	1	1	0	1	-7,047216	273,815546	311,677297	0
15.01.2021	08:24:28	0	0	3,728403	3,18675	5,2164	-0,083	86,032	0	1012,56	6,4	8,5	8,5	1	1	1	1	1	1	1	1	1	0	1	-5,285412	273,915798	313,906133	0
15.01.2021	08:24:29	0	0	4,519277	2,96175	17,6904	-0,075	86,028	0	1012,54	6,4	8,5	8,5	1	1	1	1	1	1	1	1	1	0	1	-8,879493	273,768549	309,626257	0
15.01.2021	08:24:30	0	0	3,276515	2,78625	28,7064	-0,08	86,028	0	1012,58	6,4	8,5	8,3	1	1	1	1	1	1	1	1	1	0	1	-6,20155	273,839088	312,632588	0
15.01.2021	08:24:31	0	0	4,406295	2,619	17,6976	-0,077	86,027	0	1012,52	6,4	8,5	8,5	1	1	1	1	1	1	1	1	1	0	1	-4,792107	273,940942	314,516658	0
15.01.2021	08:24:32	0	0	3,389458	2,514	18,8316	-0,074	86,03	0	1012,54	6,4	8,5	8,5	1	1	1	1	1	1	1	1	1	0	1	-4,933051	273,868555	314,038347	0
15.01.2021	08:24:33	0	0	4,406295	2,607	22,068	-0,078	86,027	0	1012,54	6,4	8,5	8,5	1	1	1	1	1	1	1	1	1	0	1	-7,188161	273,937982	312,106804	0
15.01.2021	08:24:34	0	0	3,163494	2,69025	26,8812	-0,08	86,028	0	1012,6	6,4	8,5	8,5	1	1	1	1	1	1	1	1	1	0	1	-10,147992	273,909886	309,016	0
15.01.2021	08:24:35	0	0	4,067349	2,81475	31,0212	-0,071	86,05	0	1012,52	6,4	8,5	8,5	1	1	1	1	1	1	1	1	1	0	1	-3,171247	273,88921	315,896385	0
15.01.2021	08:24:36	0	0	4,519277	2,77125	29,9592	-0,067	86,046	0	1012,62	6,4	8,5	8,5	1	1	1	1	1	1	1	1	1	0	1	-5,637773	273,940942	313,670992	0
15.01.2021	08:24:37	0	0	2,824548	2,63775	17,2188	-0,075	86,032	0	1012,72	6,4	8,5	8,5	1	1	1	1	1	1	1	1	1	0	1	-6,412967	273,827313	312,366339	0
15.01.2021	08:24:38	0	0	3,841385	2,604	8,262	-0,075	86,041	0	1012,66	6,4	8,5	8,5	1	1	1	1	1	1	1	1	1	0	1	-9,231853	273,945383	310,097616	0
15.01.2021	08:24:39	0	0	2,824548	2,44875	10,0512	-0,076	86,037	0	1012,7	6,4	8,5	8,5	1	1	1	1	1	1	1	1	1	0	1	-3,946441	273,821429	314,805464	0
15.01.2021	08:24:40	0	0	3,502482	2,3235	1,1772	-0,077	86,023	0	1012,66	6,4	8,5	8,3	1	1	1	1	1	1	1	1	1	0	1	-0	273,799378	318,649241	0
15.01.2021	08:24:41	0	0	2,937565	2,21175	4,4748	-0,075	86,039	0	1012,54	6,4	8,6	8,3	1	1	1	1	1	1	1	1	1	0	1	-6,483439	273,927626	312,763245	0
15.01.2021	08:24:42	0	0	3,615421	2,21775	8,262	-0,076	86,045	0	1012,58	6,4	8,5	8,5	1	1	1	1	1	1	1	1	1	0	1	-5,073996	273,836144	313,746431	0
15.01.2021	08:24:43	0	0	2,598584	2,26275	0,4968	-0,072	86,042	0	1012,56	6,4	8,5	8,5	1	1	1	1	1	1	1	1	1	0	1	-8,104299	273,949825	311,245882	0
15.01.2021	08:24:44	0	0	3,954367	2,361	358,6896	-0,081	86,027	0	1012,54	6,4	8,5	8,5	1	1	1	1	1	1	1	1	1	0	1	-9,020437	273,839088	309,813702	0
15.01.2021	08:24:45	0	0	4,745241	2,34825	353,9016	-0,071	86,04	0	1012,44	6,4	8,5	8,5	1	1	1	1	1	1	1	1	1	0	1	-5,708245	273,937982	313,586719	0
15.01.2021	08:24:46	0	0	3,615421	2,3655	353,5812	-0,083	86,035	0	1012,5	6,4	8,5	8,5	1	1	1	1	1	1	1	1	1	0	1	-9,936575	273,933543	309,337694	0
15.01.2021	08:24:47	0	0	4,180381	2,40225	354,798	-0,078	86,045	0	1012,62	6,4	8,5	8,3	1	1	1	1	1	1	1	1	1	0	1	-2,889359	273,943903	316,433209	0
15.01.2021	08:24:48	0	0	3,954367	2,274	2,628	-0,074	86,046	0	1012,5	6,4	8,5	8,5	1	1	1	1	1	1	1	1	1	0	1	-2,748414	273,821429	316,00349	0
15.01.2021	08:24:49	0	0	4,632259	2,06925	12,0816	-0,076	86,034	0	1012,52	6,4	8,5	8,5	1	1	1	1	1	1	1	1	1	0	1	-0,845666	273,789096	317,755713	0
15.01.2021	08:24:50	0	0	2,824548	1,968	25,7724	-0,079	86,035	0	1012,52	6,4	8,5	8,5	1	1	1	1	1	1	1	1	1	0	1	-4,580691	273,799378	314,06855	0
15.01.2021	08:24:51	0	0	3,163494	1,92075	28,7136	-0,075	86,059	0	1012,56	6,4	8,6	8,5	1	1	1	1	1	1	1	1	1	0	1	-4,22833	273,802317	314,434591	0
15.01.2021	08:24:52	0	0	5,084247	1,8975	27,2736	-0,078	86,033	0	1012,52	6,4	8,6	8,3	1	1	1	1	1	1	1	1	1	0	1	-3,382664	273,780288	315,177716	0
15.01.2021	08:24:53	0	0	3,841385	1,8495	9,36	-0,074	86,042	0	1012,58	6,4	8,5	8,5	1	1	1	1	1	1	1	1	1	0	1	-6,624383	273,884782	312,422617	0
15.01.2021	08:24:54	0	0	4,971264	1,905	17,2152	-0,079	86,06	0	1012,48	6,4	8,5	8,3	1	1	1	1	1	1	1	1	1	0	1	-10,007047	273,783223	308,566997	0
15.01.2021	08:24:55	0	0	4,632314	1,94925	29,5668	-0,075	86,057	0	1012,66	6,4	8,5	8,3	1	1	1	1	1	1	1	1	1	0	1	-2,255109	273,868555	316,71629	0
15.01.2021	08:24:56	0	0	4,971205	1,9905	8,6004	-0,072	86,055	0	1012,64	6,4	8,5	8,5	1	1	1	1	1	1	1	1	1	0	1	-8,245243	273,802317	310,417678	0
15.01.2021	08:24:57	0	0	4,406348	2,04525	3,3984	-0,072	86,059	0	1012,58	6,4	8,5	8,3	1	1	1	1	1	1	1	1	1	0	1	-0	273,952786	319,363991	0
15.01.2021	08:24:58	0	0	4,519277	2,03175	351,36	-0,075	86,069	0	1012,82	6,4	8,5	8,5	1	1	1	1	1	1	1	1	1	0	1	-2,325581	273,814076	316,392086	0
15.01.2021	08:24:59	0	0	4,067349	2,12925	354,6432	-0,077	86,056	0	1012,44	6,4	8,5	8,5	1	1	1	1	1	1	1	1	1	0	1	-3,100775	273,793502	315,521112	0
15.01.2021	08:25:00	0	0	3,615421	2,6685	355,0356	-0,081	86,065	0	1012,56	6,4	8,5	8,5	1	1	1	1	1	1	1	1	1	0	1	-4,862579	273,961674	314,542858	0
15.01.2021	08:25:01	0	0	3,615421	2,6685	355,0356	-0,081	86,065	0	1012,56	6,4	8,5	8,5	1	1	1	1	1	1	1	1	1	0	1	-4,862579	273,961674	314,542858	0
15.01.2021	08:25:02	0	0	2,598584	2,79375	352,8144	-0,072	86,062	0	1012,58	6,4	8,5	8,5	1	1	1	1	1	1	1	1	1	0	1	-5,637773	273,940942	313,670992	0
15.01.2021	08:25:03	0	0	2,711566	2,8005	350,6364	-0,075	86,042	0	1012,56	6,4	8,5	8,5	1	1	1	1	1	1	1	1	1	0	1	-2,536998	273,821429	316,214907	0
15.01.2021	08:25:04	0	0	2,37262	2,7285	352,7712	-0,078	86,052	0	1012,5	6,4	8,5	8,5	1	1	1	1	1	1	1	1	1	0	1	-2,959831	273,787628	315,634714	0
15.01.2021	08:25:05	0	0	2,711599	2,67225	359,4744	-0,073	86,055	0	1012,62	6,4	8,5	8,3	1	1	1	1	1	1	1	1	1	0	1	-2,536998	273,954267	316,833899	0
15.01.2021	08:25:06	0	0	3,615421	2,69175	12,0708	-0,077	86,058	0	1012,56	6,4	8,5	8,5	1	1	1	1	1	1	1	1	1	0	1	-7,188161	273,903976	311,948287	0
15.01.2021	08:25:07	0	0	4,519277	2,715	355,374	-0,076	86,095	0	1012,7	6,4	8,6	8,5	1	1	1	1	1	1	1	1	1	0	1	-8,879493	273,958711	310,512127	0
15.01.2021	08:25:08	0	0	3,615465	2,62275	15,0228	-0,074	86,069	0	1012,5	6,4	8,5	8,3	1	1	1	1	1	1	1	1	1	0	1	-3,735025	273,842033	315,112829	0
15.01.2021	08:25:09	0	0	3,841385	2,54475	13,5468	-0,07	86,062	0	1012,48	6,4	8,5	8,5	1	1	1	1	1	1	1	1	1	0	1	-0,704722	273,78616	317,882989	0
15.01.2021	08:25:10	0	0	4,406295	2,4255	14,2812	-0,072	86,069	0	1012,48	6,4	8,5	8,5	1	1	1	1	1	1	1	1	1	0	1	-3,59408	273,825842	315,178374	0
15.01.2021	08:25:11	0	0	3,050548	2,39175	8,9892	-0,08	86,069	0	1012,58	6,4	8,5	8,3	1	1	1	1	1	1	1	1	1	0	1	-6,553911	273,777352	311,992807	0
15.01.2021	08:25:12	0	0	4,858223	2,57625	17,6976	-0,073	86,08	0	1012,5	6,4	8,5	8,5	1	1	1	1	1	1	1	1	1	0	1	-5,496829	273,88921	313,570804	0
15.01.2021	08:25:13	0	0	4,406295	2,754	18,8316	-0,071	86,066	0	1012,42	6,4	8,5	8,5	1	1	1	1	1	1	1	1	1	0	1	-7,540521	273,954267	311,830376	0
15.01.2021	08:25:14	0	0	2,598615	2,84025	3,402	-0,078	86,077	0	1012,6	6,4	8,6	8,3	1	1	1	1	1	1	1	1	1	0	1	-5,778717	273,895115	313,316433	0
15.01.2021	08:25:15	0	0	3,502482	2,71725	19,2852	-0,072	86,081	0	1012,56	6,4	8,5	8,3	1	1	1	1	1	1	1	1	1	0	1	-4,792107	273,946863	314,544266	0
15.01.2021	08:25:16	0	0	3,50244	2,61075	31,7592	-0,079	86,075	0	1012,56	6,4	8,5	8,5	1	1	1	1	1	1	1	1	1	0	1	-1,691332	273,853816	317,211405	0
15.01.2021	08:25:17	0	0	3,389498	2,6445	29,1096	-0,074	86,087	0	1012,5	6,4	8,5	8,3	1	1	1	1	1	1	1	1	1	0	1	-4,792107	273,917276	314,406328	0
15.01.2021	08:25:18	0	0	2,937565	2,6115	10,0512	-0,076	86,066	0	1012,46	6,4	8,6	8,3	1	1	1	1	1	1	1	1	1	0	1	-6,412967	273,8229	312,345787	0
15.01.2021	08:25:19	0	0	3,50244	2,5995	36,612	-0,073	86,072	0	1012,56	6,4	8,5	8,5	1	1	1	1	1	1	1	1	1	0	1	-10,077519	273,946863	309,258853	0
15.01.2021	08:25:20	0	0	4,067349	2,78625	15,03	-0,076	86,076	0	1012,6	6,4	8,5	8,5	1	1	1	1	1	1	1	1	1	0	1	-8,174771	273,91432	311,009885	0
15.01.2021	08:25:21	0	0	3,163532	2,73	13,5468	-0,076	86,084	0	1012,64	6,4	8,5	8,3	1	1	1	1	1	1	1	1	1	0	1	-5,144468	273,881831	313,888781	0
15.01.2021	08:25:22	0	0	2,937565	2,64	13,9104	-0,076	86,071	0	1012,62	6,4	8,6	8,3	1	1	1	1	1	1	1	1	1	0	1	-0,916138	273,783223	317,657906	0
15.01.2021	08:25:23	0	0	3,276476	2,48475	15,3972	-0,071	86,09	0	1012,72	6,4	8,6	8,5	1	1	1	1	1	1	1	1	1	0	1	-9,231853	273,88921	309,835779	0
15.01.2021	08:25:24	0	0	3,050548	2,50875	15,7716	-0,069	86,065	0	1012,54	6,4	8,5	8,3	1	1	1	1	1	1	1	1	1	0	1	-6,483439	273,775885	312,05645	0
15.01.2021	08:25:25	0	0	3,163494	2,643	19,5228	-0,073	86,076	0	1012,62	6,4	8,5	8,5	1	1	1	1	1	1	1	1	1	0	1	-6,20155	273,812606	312,509272	0
15.01.2021	08:25:26	0	0	4,632259	2,69175	19,908	-0,073	86,081	0	1012,42	6,4	8,5	8,5	1	1	1	1	1	1	1	1	1	0	1	-6,624383	273,84056	312,216612	0
15.01.2021	08:25:27	0	0	4,632259	2,84475	15,7788	-0,072	86,085	0	1012,64	6,4	8,5	8,5	1	1	1	1	1	1	1	1	1	0	1	-5,84919	273,781755	312,718022	0
15.01.2021	08:25:28	0	0	3,389498	2,877	10,0656	-0,078	86,064	0	1012,44	6,4	8,5	8,3	1	1	1	1	1	1	1	1	1	0	1	-3,735025	273,818487	315,003183	0
15.01.2021	08:25:29	0	0	4,180331	2,85975	11,7108	-0,074	86,061	0	1012,72	6,4	8,5	8,5	1	1	1	1	1	1	1	1	1	0	1	-3,453136	273,935023	315,828031	0
15.01.2021	08:25:30	0	0	4,067398	2,63325	3,006	-0,074	86,077	0	1012,56	6,4	8,5	8,3	1	1	1	1	1	1	1	1	1	0	1	-7,329105	273,940942	311,97966	0
15.01.2021	08:25:31	0	0	2,259652	2,511	21,024	-0,076	86,081	0	1012,56	6,4	8,5	8,4	1	1	1	1	1	1	1	1	1	0	1	-4,721635	273,887734	314,33912	0
15.01.2021	08:25:32	0	0	4,293365	2,39175	16,4736	-0,079	86,063	0	1012,46	6,4	8,5	8,3	1	1	1	1	1	1	1	1	1	0	1	-7,751938	273,926147	311,487852	0
15.01.2021	08:25:33	0	0	2,711566	2,31825	17,6724	-0,077	86,067	0	1012,48	6,4	8,5	8,5	1	1	1	1	1	1	1	1	1	0	1	-7,751938	273,861184	311,185122	0
15.01.2021	08:25:34	0	0	3,954367	2,1555	13,158	-0,077	86,073	0	1012,54	6,4	8,5	8,5	1	1	1	1	1	1	1	1	1	0	1	-6,906272	273,777352	311,640447	0
15.01.2021	08:25:35	0	0	2,937565	2,10225	12,8412	-0,074	86,071	0	1012,56	6,4	8,5	8,3	1	1	1	1	1	1	1	1	1	0	1	-7,610994	273,839088	311,223145	0
15.01.2021	08:25:36	0	0	3,615421	2,124	13,9068	-0,072	86,072	0	1012,36	6,4	8,6	8,5	1	1	1	1	1	1	1	1	1	0	1	-4,933051	273,77882	313,620498	0
15.01.2021	08:25:37	0	0	4,293365	2,1825	6,0588	-0,076	86,086	0	1012,6	6,4	8,5	8,3	1	1	1	1	1	1	1	1	1	0	1	-6,624383	273,91432	312,560273	0
15.01.2021	08:25:38	0	0	3,50244	2,2155	8,3592	-0,074	86,086	0	1012,6	6,4	8,5	8,5	1	1	1	1	1	1	1	1	1	0	1	-7,963354	273,898068	311,145559	0
15.01.2021	08:25:39	0	0	4,632259	2,2395	16,8516	-0,078	86,074	0	1012,58	6,4	8,6	8,5	1	1	1	1	1	1	1	1	1	0	1	-7,892882	273,949825	311,457298	0
15.01.2021	08:25:40	0	0	4,745298	2,1705	12,096	-0,074	86,078	0	1012,52	6,4	8,5	8,3	1	1	1	1	1	1	1	1	1	0	1	-9,372798	273,880355	309,653576	0
15.01.2021	08:25:41	0	0	4,858223	2,00925	342,3924	-0,078	86,081	0	1012,6	6,4	8,5	8,5	1	1	1	1	1	1	1	1	1	0	1	-3,100775	273,936503	316,18729	0
15.01.2021	08:25:42	0	0	2,93753	1,82925	356,274	-0,078	86,059	0	1012,6	6,4	8,6	8,5	1	1	1	1	1	1	1	1	1	0	1	-3,453136	273,842033	315,394717	0
15.01.2021	08:25:43	0	0	3,163532	1,77525	3,7872	-0,071	86,09	0	1012,62	6,4	8,5	8,3	1	1	1	1	1	1	1	1	1	0	1	-4,369274	273,784691	314,211603	0
15.01.2021	08:25:44	0	0	3,50244	1,70325	9,7272	-0,077	86,08	0	1012,62	6,4	8,5	8,5	1	1	1	1	1	1	1	1	1	0	1	-2,818887	273,932064	316,448485	0
15.01.2021	08:25:45	0	0	2,93753	1,6095	343,1196	-0,079	86,072	0	1012,48	6,4	8,5	8,5	1	1	1	1	1	1	1	1	1	0	1	-5,637773	273,812606	313,073049	0
15.01.2021	08:25:46	0	0	3,389458	1,70025	356,6376	-0,077	86,082	0	1012,56	6,4	8,5	8,5	1	1	1	1	1	1	1	1	1	0	1	-5,708245	273,948344	313,635031	0
15.01.2021	08:25:47	0	0	3,163532	1,785	20,2788	-0,076	86,062	0	1012,52	6,4	8,5	8,3	1	1	1	1	1	1	1	1	1	0	1	-0,704722	273,887734	318,356033	0
15.01.2021	08:25:48	0	0	3,163532	1,69725	7,8624	-0,077	86,082	0	1012,6	6,4	8,5	8,3	1	1	1	1	1	1	1	1	1	0	1	-3,875969	273,936503	315,412096	0
15.01.2021	08:25:49	0	0	4,632314	1,614	2,358	-0,076	86,082	0	1012,5	6,4	8,5	8,3	1	1	1	1	1	1	1	1	1	0	1	-6,20155	273,933543	313,072719	0
15.01.2021	08:25:50	0	0	4,293313	1,626	8,2548	-0,077	86,073	0	1012,48	6,4	8,5	8,5	1	1	1	1	1	1	1	1	1	0	1	-4,933051	273,77882	313,620498	0
15.01.2021	08:25:51	0	0	3,389458	1,7565	355,3884	-0,083	86,071	0	1012,42	6,4	8,6	8,5	1	1	1	1	1	1	1	1	1	0	1	-5,919662	273,762683	312,558788	0
15.01.2021	08:25:52	0	0	2,485602	1,926	4,0932	-0,077	86,089	0	1012,58	6,4	8,5	8,5	1	1	1	1	1	1	1	1	1	0	1	-5,285412	273,774418	313,247647	0
15.01.2021	08:25:53	0	0	4,406295	1,962	359,4996	-0,074	86,081	0	1012,58	6,4	8,5	8,5	1	1	1	1	1	1	1	1	1	0	1	-5,637773	273,886258	313,416104	0
15.01.2021	08:25:54	0	0	3,954415	2,01675	0,4752	-0,084	86,092	0	1012,6	6,4	8,5	8,3	1	1	1	1	1	1	1	1	1	0	1	-1,832276	273,881831	317,200973	0
15.01.2021	08:25:55	0	0	3,276476	2,01225	359,9028	-0,07	86,07	0	1012,52	6,4	8,5	8,5	1	1	1	1	1	1	1	1	1	0	1	-8,597604	274,086537	311,390531	0
15.01.2021	08:25:56	0	0	2,824548	2,00925	1,9044	-0,076	86,074	0	1012,52	6,4	8,5	8,5	1	1	1	1	1	1	1	1	1	0	1	-6,20155	273,92319	313,024452	0
15.01.2021	08:25:57	0	0,118977	4,180381	2,0115	0,4932	-0,077	86,079	0	1012,56	6,4	8,5	8,3	1	1	1	1	1	1	1	1	1	0	1	-6,906272	273,898068	312,202642	0
15.01.2021	08:25:58	0	0	3,276515	2,0415	354,5964	-0,083	86,088	0	1012,48	6,4	8,5	8,3	1	1	1	1	1	1	1	1	1	0	1	-2,889359	273,767082	315,609565	0
15.01.2021	08:25:59	0	0,118977	4,293313	2,13975	1,1592	-0,077	86,095	0	1012,66	6,4	8,5	8,5	1	1	1	1	1	1	1	1	1	0	1	-4,298802	273,91432	314,885854	0
15.01.2021	08:26:00	0	0	4,180331	2,3265	360	-0,078	86,084	0	1012,64	6,4	8,5	8,5	1	1	1	1	1	1	1	1	1	0	1	-8,315715	273,853816	310,587022	0
15.01.2021	08:26:01	0	0	4,180331	2,3265	360	-0,078	86,084	0	1012,64	6,4	8,5	8,5	1	1	1	1	1	1	1	1	1	0	1	-8,315715	273,853816	310,587022	0
15.01.2021	08:26:02	0	0	2,485602	2,3235	1,1736	-0,073	86,09	0	1012,6	6,4	8,5	8,5	1	1	1	1	1	1	1	1	1	0	1	-6,342495	273,918754	312,862832	0
15.01.2021	08:26:03	0	0	3,50244	2,2845	0,1116	-0,083	86,071	0	1012,38	6,4	8,5	8,5	1	1	1	1	1	1	1	1	1	0	1	-3,875969	273,918754	315,329357	0
15.01.2021	08:26:04	0	0	2,93753	2,2035	11,7036	-0,077	86,091	0	1012,56	6,4	8,5	8,5	1	1	1	1	1	1	1	1	1	0	1	-8,949965	273,883306	310,09016	0
15.01.2021	08:26:05	0	0	4,745241	2,11725	6,0552	-0,075	86,089	0	1012,56	6,4	8,6	8,5	1	1	1	1	1	1	1	1	1	0	1	-6,906272	273,780288	311,654108	0
15.01.2021	08:26:06	0	0	4,971205	2,02125	6,0588	-0,081	86,081	0	1012,48	6,4	8,5	8,5	1	1	1	1	1	1	1	1	1	0	1	-4,651163	273,912842	314,526604	0
15.01.2021	08:26:07	0	0	2,598584	1,8975	11,196	-0,072	86,094	0	1012,66	6,4	8,5	8,5	1	1	1	1	1	1	1	1	1	0	1	-9,302326	273,809665	309,394807	0
15.01.2021	08:26:08	0	0	2,372649	1,93725	5,22	-0,073	86,1	0	1012,66	6,4	8,5	8,3	1	1	1	1	1	1	1	1	1	0	1	-4,933051	273,775885	313,606837	0
15.01.2021	08:26:09	0	0	2,824548	2,10675	8,982	-0,077	86,103	0	1012,48	6,4	8,5	8,5	1	1	1	1	1	1	1	1	1	0	1	-6,765328	273,858237	312,158001	0
15.01.2021	08:26:10	0	0	2,93753	2,154	21,3876	-0,074	86,089	0	1012,6	6,4	8,5	8,5	1	1	1	1	1	1	1	1	1	0	1	-8,668076	273,940942	310,640689	0
15.01.2021	08:26:11	0	0	4,293313	2,12475	15,408	-0,074	86,099	0	1012,6	6,4	8,5	8,5	1	1	1	1	1	1	1	1	1	0	1	-3,59408	273,862658	315,349846	0
15.01.2021	08:26:12	0	0	3,615421	2,08425	9,0036	-0,074	86,088	0	1012,48	6,4	8,5	8,5	1	1	1	1	1	1	1	1	1	0	1	-7,82241	273,935023	311,458757	0
15.01.2021	08:26:13	0	0,118977	4,180331	2,0835	356,6448	-0,075	86,09	0	1012,5	6,4	8,5	8,5	1	1	1	1	1	1	1	1	1	0	1	-6,553911	273,8229	312,204843	0
15.01.2021	08:26:14	0	0	2,37262	2,082	13,9248	-0,071	86,082	0	1012,5	6,4	8,5	8,5	1	1	1	1	1	1	1	1	1	0	1	-4,933051	273,943903	314,389516	0
15.01.2021	08:26:15	0	0	3,163494	1,9425	19,1268	-0,074	86,093	0	1012,48	6,4	8,5	8,5	1	1	1	1	1	1	1	1	1	0	1	-6,976744	273,880355	312,04963	0
15.01.2021	08:26:16	0	0	2,259666	1,9845	13,1544	-0,076	86,1	0	1012,56	6,4	8,6	8,3	1	1	1	1	1	1	1	1	1	0	1	-2,889359	273,799378	315,759882	0
15.01.2021	08:26:17	0	0	4,067398	2,25	6,426	-0,072	86,091	0	1012,52	6,4	8,5	8,3	1	1	1	1	1	1	1	1	1	0	1	-5,496829	273,948344	313,846448	0
15.01.2021	08:26:18	0	0	2,598584	2,46	359,1216	-0,072	86,095	0	1012,44	6,4	8,5	8,5	1	1	1	1	1	1	1	1	1	0	1	-6,20155	273,877405	312,811076	0
15.01.2021	08:26:19	0	0	3,728403	2,574	4,0968	-0,076	86,089	0	1012,56	6,4	8,5	8,5	1	1	1	1	1	1	1	1	1	0	1	-8,104299	273,768549	310,401451	0
15.01.2021	08:26:20	0	0	4,519277	2,59725	5,2236	-0,073	86,093	0	1012,66	6,4	8,5	8,5	1	1	1	1	1	1	1	1	1	0	1	-5,778717	273,868555	313,192681	0
15.01.2021	08:26:21	0	0	2,824582	2,63475	6,0696	-0,07	86,092	0	1012,38	6,4	8,5	8,3	1	1	1	1	1	1	1	1	1	0	1	-7,82241	273,945383	311,50706	0
15.01.2021	08:26:22	0	0,237954	3,163494	2,64525	360	-0,071	86,088	0	1012,68	6,4	8,5	8,5	1	1	1	1	1	1	1	1	1	0	1	-1,902748	273,87888	317,116752	0
15.01.2021	08:26:23	0	0,118977	4,519331	2,48775	359,4852	-0,074	86,072	0	1012,56	6,4	8,5	8,3	1	1	1	1	1	1	1	1	1	0	1	-2,748414	273,940942	316,56035	0
15.01.2021	08:26:24	0	0	3,05053	2,24325	0,8676	-0,074	86,092	0	1012,58	6,4	8,6	8,4	1	1	1	1	1	1	1	1	1	0	1	-2,818887	273,812606	315,891935	0
15.01.2021	08:26:25	0	0	3,841385	1,932	356,184	-0,078	86,09	0	1012,56	6,4	8,5	8,5	1	1	1	1	1	1	1	1	1	0	1	-2,959831	273,781755	315,607381	0
15.01.2021	08:26:26	0	0	2,824548	1,87875	13,518	-0,08	86,076	0	1012,44	6,4	8,5	8,5	1	1	1	1	1	1	1	1	1	0	1	-4,087385	273,800847	314,568695	0
15.01.2021	08:26:27	0	0	4,632259	1,779	20,2932	-0,078	86,096	0	1012,56	6,4	8,5	8,5	1	1	1	1	1	1	1	1	1	0	1	-3,735025	273,898068	315,373889	0
15.01.2021	08:26:28	0	0	3,954415	1,7145	12,456	-0,076	86,081	0	1012,48	6,4	8,5	8,3	1	1	1	1	1	1	1	1	1	0	1	-3,523608	273,952786	315,840383	0
15.01.2021	08:26:29	0	0	3,841385	1,74525	8,6004	-0,077	86,082	0	1012,58	6,4	8,6	8,5	1	1	1	1	1	1	1	1	1	0	1	-1,973221	273,809665	316,723912	0
15.01.2021	08:26:30	0	0	3,050512	1,79775	15,4044	-0,078	86,081	0	1012,44	6,4	8,5	8,5	1	1	1	1	1	1	1	1	1	0	1	-9,302326	273,815546	309,422188	0
15.01.2021	08:26:31	0	0	4,293313	1,85625	21,0132	-0,073	86,096	0	1012,76	6,4	8,5	8,5	1	1	1	1	1	1	1	1	1	0	1	-7,540521	273,77295	310,98571	0
15.01.2021	08:26:32	0	0	4,180356	1,71375	19,5336	-0,075	86,091	0	1012,6	6,4	8,5	8,4	1	1	1	1	1	1	1	1	1	0	1	-0,916138	273,777352	317,63058	0
15.01.2021	08:26:33	0	0	3,276476	1,57725	16,0992	-0,076	86,078	0	1012,56	6,4	8,5	8,5	1	1	1	1	1	1	1	1	1	0	1	-4,157858	273,95723	315,226854	0
15.01.2021	08:26:34	0	0,118977	4,632314	1,4355	19,116	-0,073	86,092	0	1012,54	6,4	8,5	8,3	1	1	1	1	1	1	1	1	1	0	1	-5,567301	273,901022	313,555378	0
15.01.2021	08:26:35	0	0	3,050512	1,40625	19,8936	-0,073	86,09	0	1012,54	6,4	8,5	8,5	1	1	1	1	1	1	1	1	1	0	1	-3,735025	273,942422	315,580641	0
15.01.2021	08:26:36	0	0	3,615421	1,467	1,9188	-0,078	86,082	0	1012,44	6,4	8,5	8,5	1	1	1	1	1	1	1	1	1	0	1	-5,496829	273,790565	313,111386	0
15.01.2021	08:26:37	0	0	4,293313	1,40175	358,0092	-0,055	86,146	0	1012,74	6,4	8,6	8,5	1	1	1	1	1	1	1	1	1	0	1	-6,553911	273,884782	312,493089	0
15.01.2021	08:26:38	0	0	4,519331	1,2525	12,0852	-0,075	86,095	0	1012,58	6,4	8,5	8,3	1	1	1	1	1	1	1	1	1	0	1	-5,285412	273,77882	313,268137	0
15.01.2021	08:26:39	0	0,118976	2,824548	1,17375	9,7452	-0,074	86,09	0	1012,54	6,4	8,6	8,5	1	1	1	1	1	1	1	1	1	0	1	-5,567301	273,809665	313,129832	0
15.01.2021	08:26:40	0	0	2,937565	1,278	10,0368	-0,071	86,079	0	1012,54	6,4	8,5	8,3	1	1	1	1	1	1	1	1	1	0	1	-1,761804	273,898068	317,34711	0
15.01.2021	08:26:41	0	0	5,197168	1,4085	1,17	-0,07	86,093	0	1012,5	6,4	8,5	8,5	1	1	1	1	1	1	1	1	1	0	1	-0	273,940942	319,308765	0
15.01.2021	08:26:42	0	0	3,163532	1,42725	17,2332	-0,074	86,091	0	1012,62	6,4	8,6	8,3	1	1	1	1	1	1	1	1	1	0	1	-6,553911	273,867081	312,410619	0
15.01.2021	08:26:43	0	0,118976	4,858223	1,4985	13,5432	-0,065	86,092	0	1012,6	6,4	8,6	8,5	1	1	1	1	1	1	1	1	1	0	1	-3,523608	273,761216	314,948018	0
15.01.2021	08:26:44	0	0	3,050512	1,56525	3,1212	-0,072	86,074	0	1012,68	6,4	8,5	8,5	1	1	1	1	1	1	1	1	1	0	1	-4,862579	273,827313	313,916727	0
15.01.2021	08:26:45	0	0	3,389458	1,626	15,03	-0,076	86,083	0	1012,52	6,4	8,5	8,5	1	1	1	1	1	1	1	1	1	0	1	-9,090909	273,926147	310,148881	0
15.01.2021	08:26:46	0	0	4,632259	1,644	17,2152	-0,078	86,084	0	1012,56	6,4	8,6	8,5	1	1	1	1	1	1	1	1	1	0	1	-4,369274	273,909886	314,794717	0
15.01.2021	08:26:47	0	0	3,841385	1,58325	18,0756	-0,074	86,078	0	1012,72	6,4	8,6	8,5	1	1	1	1	1	1	1	1	1	0	1	-8,668076	273,8332	310,138641	0
15.01.2021	08:26:48	0	0	4,406295	1,49325	12,0744	-0,067	86,086	0	1012,72	6,4	8,5	8,5	1	1	1	1	1	1	1	1	1	0	1	-2,60747	273,770016	315,905106	0
15.01.2021	08:26:49	0	0	4,519331	1,48125	12,8448	-0,07	86,073	0	1012,72	6,4	8,5	8,3	1	1	1	1	1	1	1	1	1	0	1	-7,681466	273,834672	311,132106	0
15.01.2021	08:26:50	0	0	3,276476	1,49025	15,7788	-0,074	86,082	0	1012,66	6,4	8,5	8,5	1	1	1	1	1	1	1	1	1	0	1	-4,721635	273,78616	313,866075	0
15.01.2021	08:26:51	0	0,237954	3,163513	1,569	12,8556	-0,076	86,074	0	1012,58	6,4	8,5	8,4	1	1	1	1	1	1	1	1	1	0	1	-0,493305	273,792033	318,121746	0
15.01.2021	08:26:52	0	0	4,406295	1,57575	10,4436	-0,073	86,079	0	1012,58	6,4	8,5	8,5	1	1	1	1	1	1	1	1	1	0	1	-6,483439	273,809665	312,213694	0
15.01.2021	08:26:53	0	0	2,485602	1,60875	12,0888	-0,083	86,08	0	1012,58	6,4	8,5	8,5	1	1	1	1	1	1	1	1	1	0	1	-0,563777	273,750955	317,860102	0
15.01.2021	08:26:54	0	0	3,163494	1,69575	6,4224	-0,067	86,084	0	1012,58	6,4	8,5	8,5	1	1	1	1	1	1	1	1	1	0	1	-6,8358	273,892162	312,24559	0
15.01.2021	08:26:55	0	0	4,180381	1,77225	10,062	-0,069	86,077	0	1012,48	6,4	8,5	8,3	1	1	1	1	1	1	1	1	1	0	1	-10,500352	273,920233	308,711865	0
15.01.2021	08:26:56	0	0	4,180331	1,8045	6,8076	-0,07	86,092	0	1012,56	6,4	8,5	8,5	1	1	1	1	1	1	1	1	1	0	1	-7,258633	273,808195	311,431656	0
15.01.2021	08:26:57	0	0	4,858281	1,8885	0,4716	-0,076	86,082	0	1012,52	6,4	8,5	8,3	1	1	1	1	1	1	1	1	1	0	1	-5,84919	273,906931	313,301028	0
15.01.2021	08:26:58	0	0	3,163494	1,9665	7,506	-0,074	86,08	0	1012,58	6,4	8,5	8,5	1	1	1	1	1	1	1	1	1	0	1	-7,540521	273,824371	311,225083	0
15.01.2021	08:26:59	0	0	4,293313	1,99575	0,864	-0,074	86,071	0	1012,48	6,4	8,5	8,5	1	1	1	1	1	1	1	1	1	0	1	-5,990134	273,949825	313,360047	0
15.01.2021	08:27:00	0	0	2,93753	2,0325	5,6808	-0,078	86,084	0	1012,58	6,4	8,6	8,5	1	1	1	1	1	1	1	1	1	0	1	-4,862579	273,742164	313,520399	0
15.01.2021	08:27:01	0	0	2,93753	2,0325	5,6808	-0,078	86,084	0	1012,58	6,4	8,6	8,5	1	1	1	1	1	1	1	1	1	0	1	-4,862579	273,742164	313,520399	0
15.01.2021	08:27:02	0	0,118977	4,745241	1,9845	11,7144	-0,068	86,082	0	1012,58	6,4	8,5	8,5	1	1	1	1	1	1	1	1	1	0	1	-3,59408	273,864132	315,356713	0
15.01.2021	08:27:03	0	0	4,406295	1,88025	13,1652	-0,073	86,081	0	1012,6	6,4	8,6	8,5	1	1	1	1	1	1	1	1	1	0	1	-5,073996	273,924668	314,1589	0
15.01.2021	08:27:04	0	0	3,841408	1,9125	13,5324	-0,072	86,068	0	1012,56	6,4	8,5	8,4	1	1	1	1	1	1	1	1	1	0	1	-7,188161	273,948344	312,155116	0
15.01.2021	08:27:05	0	0,118977	2,93753	1,94175	12,0888	-0,073	86,076	0	1012,56	6,4	8,5	8,5	1	1	1	1	1	1	1	1	1	0	1	-0,916138	273,880355	318,110236	0
15.01.2021	08:27:06	0	0	4,519277	1,94175	8,2476	-0,074	86,069	0	1012,66	6,4	8,5	8,5	1	1	1	1	1	1	1	1	1	0	1	-8,033827	273,939462	311,268038	0
15.01.2021	08:27:07	0	0,118977	4,745298	1,92375	9,3816	-0,073	86,089	0	1012,46	6,4	8,5	8,3	1	1	1	1	1	1	1	1	1	0	1	-3,805497	273,887734	315,255258	0
15.01.2021	08:27:08	0	0	3,050548	1,95825	9,36	-0,074	86,085	0	1012,54	6,4	8,5	8,3	1	1	1	1	1	1	1	1	1	0	1	-6,765328	273,883306	312,274797	0
15.01.2021	08:27:09	0	0	4,632259	1,8945	16,8516	-0,069	86,086	0	1012,64	6,4	8,6	8,5	1	1	1	1	1	1	1	1	1	0	1	-5,355884	273,936503	313,932181	0
15.01.2021	08:27:10	0	0	2,711566	1,86375	6,0552	-0,072	86,072	0	1012,58	6,4	8,5	8,5	1	1	1	1	1	1	1	1	1	0	1	-4,016913	273,843505	314,837798	0
15.01.2021	08:27:11	0	0	4,632259	1,87125	10,8	-0,076	86,085	0	1012,58	6,4	8,5	8,5	1	1	1	1	1	1	1	1	1	0	1	-5,84919	273,777352	312,697529	0
15.01.2021	08:27:12	0	0,118977	2,937565	1,81725	15,0084	-0,07	86,085	0	1012,58	6,4	8,5	8,3	1	1	1	1	1	1	1	1	1	0	1	-5,355884	273,814076	313,361783	0
15.01.2021	08:27:13	0	0	3,50244	1,818	16,4412	-0,073	86,075	0	1012,56	6,4	8,5	8,5	1	1	1	1	1	1	1	1	1	0	1	-4,439746	273,775885	314,100143	0
15.01.2021	08:27:14	0	0	4,632314	1,773	21,8412	-0,071	86,081	0	1012,54	6,4	8,5	8,3	1	1	1	1	1	1	1	1	1	0	1	-6,765328	273,909886	312,398664	0
15.01.2021	08:27:15	0	0	4,406348	1,78125	20,286	-0,074	86,083	0	1012,64	6,4	8,5	8,3	1	1	1	1	1	1	1	1	1	0	1	-4,087385	273,92319	315,138617	0
15.01.2021	08:27:16	0	0,35693	4,067349	1,86975	19,5264	-0,073	86,079	0	1012,6	6,4	8,5	8,5	1	1	1	1	1	1	1	1	1	0	1	-5,778717	273,903976	313,35773	0
15.01.2021	08:27:17	0	0	4,406348	2,20875	21,7656	-0,074	86,092	0	1012,64	6,4	8,5	8,3	1	1	1	1	1	1	1	1	1	0	1	-7,82241	273,912842	311,355357	0
15.01.2021	08:27:18	0	0,237952	3,954415	2,376	22,8312	-0,07	86,087	0	1012,62	6,4	8,6	8,3	1	1	1	1	1	1	1	1	1	0	1	-2,043693	273,78616	316,544018	0
15.01.2021	08:27:19	0	0	4,293313	2,289	4,8492	-0,079	86,088	0	1012,66	6,4	8,5	8,5	1	1	1	1	1	1	1	1	1	0	1	-5,144468	273,808195	313,545821	0
15.01.2021	08:27:20	0	0	3,841385	2,13225	9,7488	-0,071	86,087	0	1012,78	6,4	8,5	8,5	1	1	1	1	1	1	1	1	1	0	1	-9,302326	273,765616	309,189773	0
15.01.2021	08:27:21	0	0,237952	2,93753	1,99425	359,4672	-0,08	86,084	0	1012,4	6,4	8,6	8,5	1	1	1	1	1	1	1	1	1	0	1	-6,483439	273,78616	312,104271	0
15.01.2021	08:27:22	0	0	4,067349	2,03775	352,854	-0,076	86,071	0	1012,48	6,4	8,5	8,5	1	1	1	1	1	1	1	1	1	0	1	-8,527132	273,815546	310,197382	0
15.01.2021	08:27:23	0	0	3,615421	2,118	12,8556	-0,077	86,075	0	1012,5	6,4	8,6	8,5	1	1	1	1	1	1	1	1	1	0	1	-1,832276	273,927626	317,414408	0
15.01.2021	08:27:24	0	0	2,93753	1,989	0,1152	-0,074	86,08	0	1012,58	6,4	8,5	8,5	1	1	1	1	1	1	1	1	1	0	1	-3,030303	273,783223	315,543741	0
15.01.2021	08:27:25	0	0	3,163494	1,9095	348,6564	-0,067	86,08	0	1012,62	6,4	8,5	8,5	1	1	1	1	1	1	1	1	1	0	1	-1,127555	273,898068	317,981359	0
15.01.2021	08:27:26	0	0	4,293313	2,0205	15,7824	-0,072	86,067	0	1012,58	6,4	8,5	8,5	1	1	1	1	1	1	1	1	1	0	1	-5,426357	273,895115	313,668794	0
15.01.2021	08:27:27	0	0	4,632259	2,04825	355,8384	-0,064	86,088	0	1012,6	6,4	8,5	8,5	1	1	1	1	1	1	1	1	1	0	1	-5,144468	273,895115	313,950683	0
15.01.2021	08:27:28	0	0	5,310214	2,13525	10,8036	-0,071	86,089	0	1012,5	6,4	8,5	8,3	1	1	1	1	1	1	1	1	1	0	1	-2,466526	273,753886	315,970993	0
15.01.2021	08:27:29	0	0	2,711599	2,13075	12,0924	-0,073	86,063	0	1012,52	6,4	8,6	8,3	1	1	1	1	1	1	1	1	1	0	1	-4,510218	273,789096	314,091161	0
15.01.2021	08:27:30	0	0	4,745241	2,03775	11,1924	-0,078	86,081	0	1012,6	6,4	8,5	8,5	1	1	1	1	1	1	1	1	1	0	1	-4,721635	273,930585	314,538841	0
15.01.2021	08:27:31	0	0,237952	4,067349	1,83975	27,648	-0,074	86,091	0	1012,58	6,4	8,6	8,5	1	1	1	1	1	1	1	1	1	0	1	-8,45666	273,844978	310,404911	0
15.01.2021	08:27:32	0	0	2,824548	1,70925	33,2568	-0,072	86,083	0	1012,62	6,4	8,5	8,5	1	1	1	1	1	1	1	1	1	0	1	-9,936575	273,75975	308,528228	0
15.01.2021	08:27:33	0	0,237952	3,276476	1,5765	29,5632	-0,075	86,083	0	1012,54	6,4	8,6	8,5	1	1	1	1	1	1	1	1	1	0	1	-5,708245	273,850869	313,180767	0
15.01.2021	08:27:34	0	0	3,050512	1,554	24,7212	-0,074	86,076	0	1012,56	6,4	8,5	8,5	1	1	1	1	1	1	1	1	1	0	1	-2,466526	273,926147	316,773264	0
15.01.2021	08:27:35	0	0	3,728448	1,572	26,8632	-0,072	86,085	0	1012,58	6,4	8,5	8,3	1	1	1	1	1	1	1	1	1	0	1	-8,949965	273,846451	309,918465	0
15.01.2021	08:27:36	0	0	5,197168	1,58325	18,4536	-0,076	86,071	0	1012,6	6,4	8,6	8,5	1	1	1	1	1	1	1	1	1	0	1	-6,624383	273,917276	312,574052	0
15.01.2021	08:27:37	0	0	4,293313	1,566	10,4292	-0,075	86,093	0	1012,54	6,4	8,5	8,5	1	1	1	1	1	1	1	1	1	0	1	-11,698379	273,937982	307,596585	0
15.01.2021	08:27:38	0	0	3,615421	1,578	26,5212	-0,071	86,084	0	1012,6	6,4	8,5	8,5	1	1	1	1	1	1	1	1	1	0	1	-9,090909	273,855289	309,818691	0
15.01.2021	08:27:39	0	0	4,180331	1,57875	25,0236	-0,073	86,083	0	1012,64	6,4	8,5	8,5	1	1	1	1	1	1	1	1	1	0	1	-6,976744	273,91432	312,207912	0
15.01.2021	08:27:40	0	0,35693	5,197168	1,64925	23,5764	-0,074	86,08	0	1012,52	6,4	8,5	8,5	1	1	1	1	1	1	1	1	1	0	1	-9,725159	273,881831	309,30809	0
15.01.2021	08:27:41	0	0,237952	4,293313	1,64925	7,8768	-0,072	86,079	0	1012,58	6,4	8,6	8,5	1	1	1	1	1	1	1	1	1	0	1	-0,98661	273,893638	318,10166	0
15.01.2021	08:27:42	0	0	2,711566	1,65675	23,5908	-0,075	86,081	0	1012,56	6,4	8,6	8,5	1	1	1	1	1	1	1	1	1	0	1	-4,439746	273,912842	314,738021	0
15.01.2021	08:27:43	0	0	4,293313	1,662	22,9356	-0,078	86,09	0	1012,46	6,4	8,6	8,5	1	1	1	1	1	1	1	1	1	0	1	-10,570825	273,819958	308,174232	0
15.01.2021	08:27:44	0	0	3,728403	1,73475	18,4392	-0,078	86,07	0	1012,64	6,4	8,5	8,5	1	1	1	1	1	1	1	1	1	0	1	-6,8358	273,926147	312,40399	0
15.01.2021	08:27:45	0	0	4,293365	1,81725	22,8348	-0,073	86,085	0	1012,62	6,4	8,5	8,3	1	1	1	1	1	1	1	1	1	0	1	-5,778717	273,877405	313,233909	0
15.01.2021	08:27:46	0	0,118976	3,050512	1,88475	23,9796	-0,072	86,081	0	1012,56	6,4	8,6	8,5	1	1	1	1	1	1	1	1	1	0	1	-10,007047	273,75975	308,457756	0
15.01.2021	08:27:47	0	0	2,937565	1,893	23,976	-0,072	86,089	0	1012,64	6,4	8,6	8,3	1	1	1	1	1	1	1	1	1	0	1	-6,624383	273,868555	312,347015	0
15.01.2021	08:27:48	0	0	2,711566	1,8555	20,2824	-0,077	86,088	0	1012,62	6,4	8,6	8,5	1	1	1	1	1	1	1	1	1	0	1	-4,369274	273,755352	314,075064	0
15.01.2021	08:27:49	0	0	3,841385	1,956	40,9824	-0,078	86,072	0	1012,4	6,4	8,6	8,5	1	1	1	1	1	1	1	1	1	0	1	-7,751938	273,887734	311,308817	0
15.01.2021	08:27:50	0	0	3,050512	1,90725	20,9808	-0,069	86,086	0	1012,56	6,4	8,5	8,5	1	1	1	1	1	1	1	1	1	0	1	-8,033827	273,858237	310,889502	0
15.01.2021	08:27:51	0	0	2,824548	1,79175	26,1684	-0,071	86,082	0	1012,6	6,4	8,5	8,5	1	1	1	1	1	1	1	1	1	0	1	-4,369274	273,764149	314,115999	0
15.01.2021	08:27:52	0	0	3,389498	1,66575	24,3396	-0,072	86,082	0	1012,62	6,4	8,5	8,3	1	1	1	1	1	1	1	1	1	0	1	-9,372798	273,802317	309,290123	0
15.01.2021	08:27:53	0	0	2,93753	1,575	22,1832	-0,072	86,064	0	1012,6	6,4	8,6	8,5	1	1	1	1	1	1	1	1	1	0	1	-9,725159	273,743629	308,664635	0
15.01.2021	08:27:54	0	0	2,93753	1,5315	21,7656	-0,078	86,073	0	1012,52	6,4	8,5	8,5	1	1	1	1	1	1	1	1	1	0	1	-5,567301	273,855289	313,342299	0
15.01.2021	08:27:55	0	0	4,067349	1,45725	24,336	-0,067	86,079	0	1012,6	6,4	8,6	8,5	1	1	1	1	1	1	1	1	1	0	1	-7,751938	273,765616	310,74016	0
15.01.2021	08:27:56	0	0,237954	3,615421	1,341	21,0168	-0,067	86,079	0	1012,6	6,4	8,5	8,5	1	1	1	1	1	1	1	1	1	0	1	-7,399577	273,905453	311,743755	0
15.01.2021	08:27:57	0	0	4,858223	1,34175	6,804	-0,074	86,069	0	1012,52	6,4	8,5	8,5	1	1	1	1	1	1	1	1	1	0	1	-11,839323	273,874454	307,159558	0
15.01.2021	08:27:58	0	0,118977	3,050512	1,3695	4,4604	-0,072	86,077	0	1012,58	6,4	8,5	8,5	1	1	1	1	1	1	1	1	1	0	1	-5,426357	273,768549	313,079393	0
15.01.2021	08:27:59	0	0	3,276476	1,43625	4,1004	-0,069	86,082	0	1012,64	6,4	8,5	8,5	1	1	1	1	1	1	1	1	1	0	1	-6,694856	273,793502	311,927032	0
15.01.2021	08:28:00	0	0,237952	2,711599	1,5495	10,44	-0,07	86,076	0	1012,58	6,4	8,6	8,3	1	1	1	1	1	1	1	1	1	0	1	-8,527132	273,872979	310,464878	0
15.01.2021	08:28:01	0	0,237952	2,711599	1,5495	10,44	-0,07	86,076	0	1012,58	6,4	8,6	8,3	1	1	1	1	1	1	1	1	1	0	1	-8,527132	273,872979	310,464878	0
15.01.2021	08:28:02	0	0	4,519331	1,70025	12,1032	-0,072	86,082	0	1012,68	6,4	8,5	8,3	1	1	1	1	1	1	1	1	1	0	1	-9,090909	273,886258	309,962968	0
15.01.2021	08:28:03	0	0	4,406295	1,7745	3,7548	-0,077	86,069	0	1012,38	6,4	8,5	8,5	1	1	1	1	1	1	1	1	1	0	1	-7,610994	273,872979	311,381016	0
15.01.2021	08:28:04	0	0	3,389458	1,85325	29,1996	-0,073	86,094	0	1012,54	6,4	8,5	8,5	1	1	1	1	1	1	1	1	1	0	1	-6,553911	273,78616	312,033799	0
15.01.2021	08:28:05	0	0	3,276476	1,9005	22,4532	-0,074	86,079	0	1012,5	6,4	8,5	8,5	1	1	1	1	1	1	1	1	1	0	1	-7,188161	273,75242	311,242538	0
15.01.2021	08:28:06	0	0	2,485632	1,78725	6,8184	-0,069	86,09	0	1012,52	6,4	8,5	8,3	1	1	1	1	1	1	1	1	1	0	1	-6,553911	273,818487	312,184297	0
15.01.2021	08:28:07	0	0	3,050548	1,73325	353,2608	-0,076	86,076	0	1012,56	6,4	8,5	8,3	1	1	1	1	1	1	1	1	1	0	1	-2,043693	273,745094	316,352917	0
15.01.2021	08:28:08	0	0	4,180331	1,719	11,1924	-0,074	86,092	0	1012,64	6,4	8,6	8,5	1	1	1	1	1	1	1	1	1	0	1	-7,329105	273,865607	311,628556	0
15.01.2021	08:28:09	0	0	3,615421	1,7025	6,8076	-0,07	86,092	0	1012,5	6,4	8,5	8,5	1	1	1	1	1	1	1	1	1	0	1	-2,043693	273,921711	317,175417	0
15.01.2021	08:28:10	0	0,118977	4,632259	1,677	7,1064	-0,067	86,083	0	1012,44	6,4	8,5	8,5	1	1	1	1	1	1	1	1	1	0	1	-4,22833	273,890686	314,846181	0
15.01.2021	08:28:11	0	0	2,824548	1,77525	1,566	-0,067	86,069	0	1012,48	6,4	8,5	8,5	1	1	1	1	1	1	1	1	1	0	1	-2,818887	273,87003	316,159382	0
15.01.2021	08:28:12	0	0	4,180356	1,767	3,852	-0,073	86,069	0	1012,62	6,4	8,5	8,4	1	1	1	1	1	1	1	1	1	0	1	-8,104299	273,750955	310,319581	0
15.01.2021	08:28:13	0	0,237954	3,163532	1,725	353,6388	-0,074	86,07	0	1012,74	6,4	8,5	8,3	1	1	1	1	1	1	1	1	1	0	1	-4,651163	273,886258	314,402714	0
15.01.2021	08:28:14	0	0	2,485602	1,69275	358,7832	-0,07	86,061	0	1012,62	6,4	8,6	8,5	1	1	1	1	1	1	1	1	1	0	1	-5,990134	273,915798	313,201411	0
15.01.2021	08:28:15	0	0,237952	5,084247	1,752	355,3848	-0,073	86,081	0	1012,46	6,4	8,6	8,3	1	1	1	1	1	1	1	1	1	0	1	-6,906272	273,836144	311,914155	0
15.01.2021	08:28:16	0	0	2,485632	1,78575	352,1412	-0,073	86,074	0	1012,7	6,4	8,5	8,3	1	1	1	1	1	1	1	1	1	0	1	-3,030303	273,755352	315,414036	0
15.01.2021	08:28:17	0	0,356928	4,180381	1,824	359,514	-0,072	86,063	0	1012,58	6,4	8,6	8,3	1	1	1	1	1	1	1	1	1	0	1	-4,651163	273,893638	314,437107	0
15.01.2021	08:28:18	0	0,237954	3,954367	1,76175	354,3084	-0,077	86,055	0	1012,58	6,4	8,5	8,5	1	1	1	1	1	1	1	1	1	0	1	-1,268499	273,755352	317,17584	0
15.01.2021	08:28:19	0	0,237954	3,276515	1,695	359,1	-0,077	86,081	0	1012,58	6,4	8,5	8,3	1	1	1	1	1	1	1	1	1	0	1	-3,805497	273,799378	314,843744	0
15.01.2021	08:28:20	0	0	4,632314	1,7205	2,304	-0,077	86,062	0	1012,66	6,4	8,6	8,3	1	1	1	1	1	1	1	1	1	0	1	-6,483439	273,926147	312,756351	0
15.01.2021	08:28:21	0	0	4,293313	1,84875	355,8744	-0,083	86,073	0	1012,48	6,4	8,5	8,5	1	1	1	1	1	1	1	1	1	0	1	-4,651163	273,867081	314,313367	0
15.01.2021	08:28:22	0	0	3,276476	1,91925	2,286	-0,074	86,058	0	1012,46	6,4	8,5	8,5	1	1	1	1	1	1	1	1	1	0	1	-4,016913	273,768549	314,488836	0
15.01.2021	08:28:23	0	0,237954	4,632314	1,9845	358,7688	-0,074	86,068	0	1012,58	6,4	8,5	8,3	1	1	1	1	1	1	1	1	1	0	1	-5,778717	273,890686	313,295794	0
15.01.2021	08:28:24	0	0	3,276515	1,95075	0,108	-0,078	86,075	0	1012,46	6,4	8,5	8,3	1	1	1	1	1	1	1	1	1	0	1	-5,990134	273,847923	312,885156	0
15.01.2021	08:28:25	0	0	4,632314	2,03625	0,864	-0,071	86,092	0	1012,74	6,4	8,5	8,3	1	1	1	1	1	1	1	1	1	0	1	-8,315715	273,828785	310,470443	0
15.01.2021	08:28:26	0	0	3,163494	2,00475	4,1508	-0,075	86,065	0	1012,54	6,4	8,6	8,5	1	1	1	1	1	1	1	1	1	0	1	-6,8358	273,87003	312,142469	0
15.01.2021	08:28:27	0	0	4,067349	2,025	1,5552	-0,067	86,082	0	1012,64	6,4	8,5	8,5	1	1	1	1	1	1	1	1	1	0	1	-5,708245	273,909886	313,455746	0
15.01.2021	08:28:28	0	0,237954	3,163532	1,93125	16,848	-0,07	86,103	0	1012,64	6,4	8,5	8,3	1	1	1	1	1	1	1	1	1	0	1	-7,751938	273,85971	311,178256	0
15.01.2021	08:28:29	0	0	4,858223	1,83225	11,7036	-0,077	86,067	0	1012,6	6,4	8,5	8,5	1	1	1	1	1	1	1	1	1	0	1	-5,144468	273,749489	313,272593	0
15.01.2021	08:28:30	0	0	3,502482	1,73625	0,4896	-0,068	86,087	0	1012,44	6,4	8,5	8,3	1	1	1	1	1	1	1	1	1	0	1	-7,117689	273,927626	312,128996	0
15.01.2021	08:28:31	0	0	3,050512	1,698	360	-0,068	86,08	0	1012,6	6,4	8,5	8,5	1	1	1	1	1	1	1	1	1	0	1	-3,523608	273,87003	315,45466	0
15.01.2021	08:28:32	0	0	3,954367	1,71525	358,4304	-0,079	86,076	0	1012,58	6,4	8,5	8,5	1	1	1	1	1	1	1	1	1	0	1	-3,030303	273,765616	315,461795	0
15.01.2021	08:28:33	0	0	3,50244	1,74675	358,7796	-0,074	86,082	0	1012,62	6,4	8,5	8,5	1	1	1	1	1	1	1	1	1	0	1	-8,104299	273,850869	310,784714	0
15.01.2021	08:28:34	0	0	4,632314	1,72425	0,5472	-0,075	86,057	0	1012,6	6,4	8,5	8,3	1	1	1	1	1	1	1	1	1	0	1	-4,862579	273,75975	313,602224	0
15.01.2021	08:28:35	0	0,118977	3,050548	1,73625	356,5224	-0,079	86,081	0	1012,48	6,4	8,5	8,3	1	1	1	1	1	1	1	1	1	0	1	-3,453136	273,768549	315,052614	0
15.01.2021	08:28:36	0	0	4,858223	1,731	3,384	-0,076	86,084	0	1012,54	6,4	8,5	8,5	1	1	1	1	1	1	1	1	1	0	1	-7,540521	273,831728	311,259342	0
15.01.2021	08:28:37	0	0	3,276515	1,70775	0,8712	-0,069	86,079	0	1012,6	6,4	8,5	8,3	1	1	1	1	1	1	1	1	1	0	1	-6,131078	273,926147	313,108711	0
15.01.2021	08:28:38	0	0	4,406295	1,6545	1,8972	-0,08	86,072	0	1012,58	6,4	8,5	8,5	1	1	1	1	1	1	1	1	1	0	1	-6,272023	273,797909	312,370379	0
15.01.2021	08:28:39	0	0	3,841385	1,66725	5,2236	-0,072	86,089	0	1012,64	6,4	8,5	8,5	1	1	1	1	1	1	1	1	1	0	1	-5,21494	273,917276	313,983495	0
15.01.2021	08:28:40	0	0,118977	5,084186	1,80975	10,4328	-0,074	86,068	0	1012,58	6,4	8,5	8,5	1	1	1	1	1	1	1	1	1	0	1	-6,20155	273,87003	312,776718	0
15.01.2021	08:28:41	0	0	4,745298	2,01975	12,852	-0,075	86,077	0	1012,44	6,4	8,5	8,3	1	1	1	1	1	1	1	1	1	0	1	-8,45666	273,815546	310,267854	0
15.01.2021	08:28:42	0	0	2,711566	2,367	5,6772	-0,068	86,095	0	1012,64	6,4	8,6	8,5	1	1	1	1	1	1	1	1	1	0	1	-3,24172	273,755352	315,202619	0
15.01.2021	08:28:43	0	0	3,954367	2,52675	4,464	-0,077	86,073	0	1012,54	6,4	8,5	8,5	1	1	1	1	1	1	1	1	1	0	1	-4,721635	273,827313	314,057671	0
15.01.2021	08:28:44	0	0	2,485602	2,688	13,5288	-0,073	86,082	0	1012,3	6,4	8,5	8,5	1	1	1	1	1	1	1	1	1	0	1	-1,479915	273,758284	316,978066	0
15.01.2021	08:28:45	0	0	5,31015	2,829	4,4604	-0,072	86,085	0	1012,6	6,4	8,5	8,5	1	1	1	1	1	1	1	1	1	0	1	-6,553911	273,85971	312,376283	0
15.01.2021	08:28:46	0	0	2,711566	2,9445	0,4788	-0,074	86,08	0	1012,56	6,4	8,5	8,5	1	1	1	1	1	1	1	1	1	0	1	-2,466526	273,793502	316,155362	0
15.01.2021	08:28:47	0	0	4,406348	3,042	355,3776	-0,076	86,076	0	1012,56	6,4	8,5	8,3	1	1	1	1	1	1	1	1	1	0	1	-4,22833	273,911364	314,942549	0
15.01.2021	08:28:48	0	0	4,067349	2,9745	3,0276	-0,07	86,076	0	1012,6	6,4	8,5	8,5	1	1	1	1	1	1	1	1	1	0	1	-10,782241	273,787628	307,812303	0
15.01.2021	08:28:49	0	0	2,93753	2,98125	4,8204	-0,074	86,083	0	1012,64	6,4	8,5	8,5	1	1	1	1	1	1	1	1	1	0	1	-3,100775	273,734841	315,248136	0
15.01.2021	08:28:50	0	0,118976	4,858281	2,94525	359,856	-0,07	86,073	0	1012,62	6,4	8,6	8,3	1	1	1	1	1	1	1	1	1	0	1	-3,382664	273,8332	315,424053	0
15.01.2021	08:28:51	0	0	3,954367	2,87625	14,292	-0,078	86,071	0	1012,54	6,4	8,6	8,5	1	1	1	1	1	1	1	1	1	0	1	-5,426357	273,917276	313,772079	0
15.01.2021	08:28:52	0	0	4,519277	2,78925	10,818	-0,076	86,083	0	1012,56	6,4	8,6	8,5	1	1	1	1	1	1	1	1	1	0	1	-11,205074	273,905453	307,938258	0
15.01.2021	08:28:53	0	0	4,858223	2,955	4,0788	-0,074	86,088	0	1012,5	6,4	8,5	8,5	1	1	1	1	1	1	1	1	1	0	1	-4,651163	273,799378	313,998078	0
15.01.2021	08:28:54	0	0	3,050512	3,258	4,4748	-0,076	86,084	0	1012,6	6,4	8,5	8,5	1	1	1	1	1	1	1	1	1	0	1	-10,570825	273,736305	307,784899	0
15.01.2021	08:28:55	0	0	3,389498	3,2925	8,604	-0,075	86,084	0	1012,54	6,4	8,6	8,3	1	1	1	1	1	1	1	1	1	0	1	-5,426357	273,821429	313,325548	0
15.01.2021	08:28:56	0	0	2,372649	3,30525	7,128	-0,071	86,09	0	1012,68	6,4	8,5	8,3	1	1	1	1	1	1	1	1	1	0	1	-9,584214	273,915798	309,607331	0
15.01.2021	08:28:57	0	0,237954	4,406348	3,0825	21,0024	-0,071	86,08	0	1012,62	6,4	8,5	8,3	1	1	1	1	1	1	1	1	1	0	1	-7,610994	273,871505	311,374145	0
15.01.2021	08:28:58	0	0	4,632259	3,054	10,0476	-0,07	86,073	0	1012,7	6,4	8,5	8,5	1	1	1	1	1	1	1	1	1	0	1	-6,624383	273,780288	311,935997	0
15.01.2021	08:28:59	0	0,237952	4,632259	3,00225	15,0336	-0,08	86,081	0	1012,54	6,4	8,6	8,5	1	1	1	1	1	1	1	1	1	0	1	-8,949965	273,898068	310,158949	0
15.01.2021	08:29:00	0	0	3,276476	2,95575	21,366	-0,076	86,065	0	1012,58	6,4	8,5	8,5	1	1	1	1	1	1	1	1	1	0	1	-4,651163	273,880355	314,375211	0
15.01.2021	08:29:01	0	0	3,276476	2,95575	21,366	-0,076	86,065	0	1012,58	6,4	8,5	8,5	1	1	1	1	1	1	1	1	1	0	1	-4,651163	273,880355	314,375211	0
15.01.2021	08:29:02	0	0	4,519277	2,79825	7,5204	-0,072	86,083	0	1012,72	6,4	8,6	8,5	1	1	1	1	1	1	1	1	1	0	1	-4,792107	273,762683	313,686342	0
15.01.2021	08:29:03	0	0	3,841385	2,8485	2,2968	-0,072	86,078	0	1012,64	6,4	8,5	8,5	1	1	1	1	1	1	1	1	1	0	1	-7,047216	273,731912	311,288073	0
15.01.2021	08:29:04	0	0	3,389458	2,91675	353,52	-0,067	86,08	0	1012,52	6,4	8,5	8,5	1	1	1	1	1	1	1	1	1	0	1	-5,003524	273,849396	313,878627	0
15.01.2021	08:29:05	0	0	2,93753	3,02625	0,1332	-0,07	86,09	0	1012,74	6,4	8,5	8,5	1	1	1	1	1	1	1	1	1	0	1	-2,818887	273,750955	315,604993	0
15.01.2021	08:29:06	0	0	3,389458	2,9655	6,4296	-0,068	86,087	0	1012,58	6,4	8,5	8,5	1	1	1	1	1	1	1	1	1	0	1	-4,933051	273,819958	313,812005	0
15.01.2021	08:29:07	0	0	4,745241	2,86425	350,3268	-0,078	86,092	0	1012,76	6,4	8,5	8,5	1	1	1	1	1	1	1	1	1	0	1	-6,765328	273,905453	312,378005	0
15.01.2021	08:29:08	0	0,118976	3,954367	2,82225	359,4924	-0,074	86,097	0	1012,38	6,4	8,6	8,5	1	1	1	1	1	1	1	1	1	0	1	-10,852713	273,874454	308,146168	0
15.01.2021	08:29:09	0	0	4,519277	2,63925	359,1216	-0,072	86,08	0	1012,52	6,4	8,5	8,5	1	1	1	1	1	1	1	1	1	0	1	-4,510218	273,767082	313,988705	0
15.01.2021	08:29:10	0	0,35693	5,084247	2,397	7,506	-0,079	86,077	0	1012,5	6,4	8,5	8,3	1	1	1	1	1	1	1	1	1	0	1	-3,453136	273,890686	315,621375	0
15.01.2021	08:29:11	0	0	3,163494	2,06775	15,7752	-0,065	86,081	0	1012,5	6,4	8,6	8,5	1	1	1	1	1	1	1	1	1	0	1	-3,100775	273,803786	315,568987	0
15.01.2021	08:29:12	0	0	3,276476	1,899	2,2968	-0,074	86,089	0	1012,56	6,4	8,5	8,5	1	1	1	1	1	1	1	1	1	0	1	-3,875969	273,734841	314,472943	0
15.01.2021	08:29:13	0	0	3,050512	2,1645	26,5104	-0,071	86,099	0	1012,58	6,4	8,5	8,5	1	1	1	1	1	1	1	1	1	0	1	-7,399577	273,846451	311,468853	0
15.01.2021	08:29:14	0	0	4,519277	2,589	36,6084	-0,074	86,086	0	1012,48	6,4	8,5	8,5	1	1	1	1	1	1	1	1	1	0	1	-4,721635	273,917276	314,476801	0
15.01.2021	08:29:15	0	0	2,372649	2,5455	10,44	-0,072	86,084	0	1012,42	6,4	8,5	8,3	1	1	1	1	1	1	1	1	1	0	1	-2,748414	273,775885	315,791474	0
15.01.2021	08:29:16	0	0	4,406295	2,6385	13,9212	-0,069	86,091	0	1012,56	6,4	8,5	8,5	1	1	1	1	1	1	1	1	1	0	1	-8,104299	273,906931	311,045919	0
15.01.2021	08:29:17	0	0	3,163494	2,7315	12,8592	-0,07	86,087	0	1012,5	6,4	8,5	8,5	1	1	1	1	1	1	1	1	1	0	1	-6,412967	273,789096	312,188412	0
15.01.2021	08:29:18	0	0	4,406348	2,547	2,6532	-0,069	86,079	0	1012,54	6,4	8,5	8,3	1	1	1	1	1	1	1	1	1	0	1	-1,691332	273,750955	316,732548	0
15.01.2021	08:29:19	0	0,237954	2,485602	2,50875	20,6316	-0,075	86,079	0	1012,56	6,4	8,5	8,5	1	1	1	1	1	1	1	1	1	0	1	-3,453136	273,767082	315,045788	0
15.01.2021	08:29:20	0	0	4,180381	2,48025	24,3396	-0,068	86,084	0	1012,62	6,4	8,5	8,3	1	1	1	1	1	1	1	1	1	0	1	-5,285412	273,768549	313,220337	0
15.01.2021	08:29:21	0	0,35693	5,423132	2,4405	22,0752	-0,068	86,073	0	1012,46	6,4	8,5	8,5	1	1	1	1	1	1	1	1	1	0	1	-4,510218	273,886258	314,543659	0
15.01.2021	08:29:22	0	0	4,632314	2,45475	21,708	-0,074	86,076	0	1012,56	6,4	8,6	8,3	1	1	1	1	1	1	1	1	1	0	1	-3,875969	273,846451	314,992461	0
15.01.2021	08:29:23	0	0	2,824582	2,49075	18,4464	-0,072	86,084	0	1012,54	6,4	8,6	8,3	1	1	1	1	1	1	1	1	1	0	1	-4,933051	273,756818	313,518108	0
15.01.2021	08:29:24	0	0	4,745298	2,51625	24,714	-0,072	86,071	0	1012,68	6,4	8,5	8,3	1	1	1	1	1	1	1	1	1	0	1	-5,496829	273,87003	313,48144	0
15.01.2021	08:29:25	0	0	4,067398	2,51775	36,7128	-0,071	86,067	0	1012,6	6,4	8,5	8,3	1	1	1	1	1	1	1	1	1	0	1	-7,329105	273,909886	311,834886	0
15.01.2021	08:29:26	0	0,35693	3,954367	2,445	28,332	-0,069	86,094	0	1012,66	6,4	8,5	8,5	1	1	1	1	1	1	1	1	1	0	1	-7,540521	273,887734	311,520233	0
15.01.2021	08:29:27	0	0	4,971264	2,325	26,892	-0,076	86,077	0	1012,68	6,4	8,5	8,3	1	1	1	1	1	1	1	1	1	0	1	-10,007047	273,865607	308,950614	0
15.01.2021	08:29:28	0	0	3,276515	2,32875	34,7004	-0,072	86,079	0	1012,48	6,4	8,6	8,3	1	1	1	1	1	1	1	1	1	0	1	-4,439746	273,749489	313,977315	0
15.01.2021	08:29:29	0	0	2,485632	2,1975	23,5836	-0,071	86,085	0	1012,62	6,4	8,5	8,3	1	1	1	1	1	1	1	1	1	0	1	-2,184637	273,811135	316,51934	0
15.01.2021	08:29:30	0	0	3,728448	2,1015	22,4676	-0,07	86,075	0	1012,64	6,4	8,6	8,3	1	1	1	1	1	1	1	1	1	0	1	-6,553911	273,903976	312,582536	0
15.01.2021	08:29:31	0	0,118976	3,954415	1,96575	15,03	-0,068	86,076	0	1012,64	6,4	8,6	8,3	1	1	1	1	1	1	1	1	1	0	1	-9,725159	273,871505	309,25998	0
15.01.2021	08:29:32	0	0	3,050548	1,8585	7,8912	-0,069	86,078	0	1012,44	6,4	8,6	8,3	1	1	1	1	1	1	1	1	1	0	1	-12,403101	273,906931	306,747117	0
15.01.2021	08:29:33	0	0	3,841431	1,77975	27,9648	-0,068	86,081	0	1012,6	6,4	8,5	8,3	1	1	1	1	1	1	1	1	1	0	1	-10,077519	273,761216	308,394107	0
15.01.2021	08:29:34	0	0	4,180331	1,72575	38,052	-0,071	86,077	0	1012,52	6,4	8,6	8,5	1	1	1	1	1	1	1	1	1	0	1	-6,131078	273,902499	312,998485	0
15.01.2021	08:29:35	0	0,118977	4,519277	1,6455	24,3432	-0,073	86,065	0	1012,58	6,4	8,5	8,5	1	1	1	1	1	1	1	1	1	0	1	-5,990134	273,88921	313,077499	0
15.01.2021	08:29:36	0	0	3,841431	1,64475	23,9544	-0,068	86,079	0	1012,6	6,4	8,5	8,3	1	1	1	1	1	1	1	1	1	0	1	-6,483439	273,755352	311,9609	0
15.01.2021	08:29:37	0	0	3,163494	1,713	18,828	-0,074	86,067	0	1012,7	6,4	8,6	8,5	1	1	1	1	1	1	1	1	1	0	1	-3,875969	273,72313	314,418468	0
15.01.2021	08:29:38	0	0	2,937565	1,8465	10,8216	-0,075	86,066	0	1012,48	6,4	8,6	8,3	1	1	1	1	1	1	1	1	1	0	1	-8,738548	273,850869	310,150464	0
15.01.2021	08:29:39	0	0	2,485632	2,025	8,622	-0,073	86,066	0	1012,72	6,4	8,6	8,3	1	1	1	1	1	1	1	1	1	0	1	-6,272023	273,75242	312,158676	0
15.01.2021	08:29:40	0	0,237952	4,180381	2,0115	29,106	-0,075	86,047	0	1012,5	6,4	8,6	8,3	1	1	1	1	1	1	1	1	1	0	1	-10,288936	273,831728	308,510928	0
15.01.2021	08:29:41	0	0	4,406348	1,983	12,0852	-0,07	86,067	0	1012,6	6,4	8,6	8,3	1	1	1	1	1	1	1	1	1	0	1	-8,033827	273,753886	310,403692	0
15.01.2021	08:29:42	0	0	3,050512	2,013	14,292	-0,073	86,065	0	1012,54	6,4	8,5	8,5	1	1	1	1	1	1	1	1	1	0	1	-9,302326	273,815546	309,422188	0
15.01.2021	08:29:43	0	0	4,067398	2,127	26,172	-0,07	86,061	0	1012,64	6,4	8,6	8,3	1	1	1	1	1	1	1	1	1	0	1	-8,386187	273,753886	310,051331	0
15.01.2021	08:29:44	0	0,237954	4,293365	2,283	22,8456	-0,069	86,068	0	1012,58	6,4	8,5	8,3	1	1	1	1	1	1	1	1	1	0	1	-7,117689	273,867081	311,846841	0
15.01.2021	08:29:45	0	0	4,293313	2,43675	19,5156	-0,067	86,075	0	1012,58	6,4	8,5	8,5	1	1	1	1	1	1	1	1	1	0	1	-8,597604	273,911364	310,573275	0
15.01.2021	08:29:46	0	0,237954	3,50244	2,508	13,1616	-0,073	86,066	0	1012,54	6,4	8,5	8,5	1	1	1	1	1	1	1	1	1	0	1	-4,651163	273,825842	314,121292	0
15.01.2021	08:29:47	0	0	3,050512	2,45025	13,5396	-0,068	86,079	0	1012,58	6,4	8,5	8,5	1	1	1	1	1	1	1	1	1	0	1	-10,782241	273,91432	308,402415	0
15.01.2021	08:29:48	0	0	2,937565	2,4855	4,4784	-0,074	86,058	0	1012,6	6,4	8,5	8,3	1	1	1	1	1	1	1	1	1	0	1	-6,694856	273,793502	311,927032	0
15.01.2021	08:29:49	0	0	4,293313	2,445	22,464	-0,077	86,072	0	1012,64	6,4	8,6	8,5	1	1	1	1	1	1	1	1	1	0	1	-10,359408	273,909886	308,804583	0
15.01.2021	08:29:50	0	0	4,858223	2,36325	7,128	-0,071	86,045	0	1012,56	6,4	8,6	8,5	1	1	1	1	1	1	1	1	1	0	1	-7,963354	273,874454	311,035527	0
15.01.2021	08:29:51	0	0	3,389498	2,427	12,8664	-0,07	86,067	0	1012,66	6,4	8,5	8,3	1	1	1	1	1	1	1	1	1	0	1	-9,584214	273,908408	309,57289	0
15.01.2021	08:29:52	0	0	4,406348	2,3205	15,3972	-0,074	86,057	0	1012,58	6,4	8,6	8,3	1	1	1	1	1	1	1	1	1	0	1	-9,513742	273,87888	309,505758	0
15.01.2021	08:29:53	0	0,237954	4,180381	2,18025	17,2332	-0,071	86,044	0	1012,56	6,4	8,5	8,3	1	1	1	1	1	1	1	1	1	0	1	-2,959831	273,858237	315,963498	0
15.01.2021	08:29:54	0	0	3,389498	2,124	13,5432	-0,074	86,065	0	1012,54	6,4	8,5	8,3	1	1	1	1	1	1	1	1	1	0	1	-4,792107	273,926147	314,447683	0
15.01.2021	08:29:55	0	0,237952	4,067349	2,1345	15,0264	-0,072	86,063	0	1012,68	6,4	8,6	8,5	1	1	1	1	1	1	1	1	1	0	1	-7,047216	273,802317	311,615705	0
15.01.2021	08:29:56	0	0	3,163532	2,157	5,2092	-0,069	86,079	0	1012,54	6,4	8,5	8,3	1	1	1	1	1	1	1	1	1	0	1	-5,990134	273,905453	313,153199	0
15.01.2021	08:29:57	0	0,118976	2,824548	2,2245	25,4376	-0,067	86,068	0	1012,62	6,4	8,6	8,5	1	1	1	1	1	1	1	1	1	0	1	-9,725159	273,808195	308,965131	0
15.01.2021	08:29:58	0	0	3,728448	2,33775	26,9172	-0,074	86,071	0	1012,68	6,4	8,6	8,3	1	1	1	1	1	1	1	1	1	0	1	-5,84919	273,73777	312,513347	0
15.01.2021	08:29:59	0	0,237954	4,858281	2,3445	20,7828	-0,077	86,057	0	1012,48	6,4	8,5	8,3	1	1	1	1	1	1	1	1	1	0	1	-7,117689	273,836144	311,702738	0
15.01.2021	08:30:00	0	0,237954	3,389458	2,2095	17,226	-0,068	86,073	0	1012,58	6,4	8,5	8,5	1	1	1	1	1	1	1	1	1	0	1	-8,315715	273,77295	310,210516	0
15.01.2021	08:30:01	0	0,237954	3,389458	2,2095	17,226	-0,068	86,073	0	1012,58	6,4	8,5	8,5	1	1	1	1	1	1	1	1	1	0	1	-8,315715	273,77295	310,210516	0
15.01.2021	08:30:02	0	0	2,824582	2,14275	10,0548	-0,069	86,054	0	1012,56	6,4	8,5	8,3	1	1	1	1	1	1	1	1	1	0	1	-6,694856	273,755352	311,749483	0
15.01.2021	08:30:03	0	0	2,93753	2,1345	6,066	-0,076	86,077	0	1012,54	6,4	8,5	8,5	1	1	1	1	1	1	1	1	1	0	1	-3,805497	273,777352	314,741222	0
15.01.2021	08:30:04	0	0	2,824582	2,03925	8,604	-0,076	86,055	0	1012,6	6,4	8,6	8,3	1	1	1	1	1	1	1	1	1	0	1	-6,694856	273,780288	311,865524	0
15.01.2021	08:30:05	0	0	4,293313	2,025	21,762	-0,069	86,082	0	1012,54	6,4	8,5	8,5	1	1	1	1	1	1	1	1	1	0	1	-11,909796	273,853816	306,992941	0
15.01.2021	08:30:06	0	0	3,163494	2,034	10,8108	-0,067	86,082	0	1012,68	6,4	8,6	8,5	1	1	1	1	1	1	1	1	1	0	1	-10,923185	273,911364	308,247693	0
15.01.2021	08:30:07	0	0	2,711566	2,016	25,4124	-0,076	86,086	0	1012,58	6,4	8,5	8,5	1	1	1	1	1	1	1	1	1	0	1	-9,795631	273,850869	309,093382	0
15.01.2021	08:30:08	0	0	2,146682	2,04375	360	-0,078	86,077	0	1012,54	6,4	8,5	8,3	1	1	1	1	1	1	1	1	1	0	1	-5,708245	273,77882	312,845304	0
15.01.2021	08:30:09	0	0	3,615421	2,01375	18,4428	-0,069	86,08	0	1012,54	6,4	8,6	8,5	1	1	1	1	1	1	1	1	1	0	1	-4,087385	273,896591	315,014646	0
15.01.2021	08:30:10	0	0,237952	5,084186	1,92525	10,4328	-0,071	86,076	0	1012,56	6,4	8,6	8,5	1	1	1	1	1	1	1	1	1	0	1	-6,20155	273,883306	312,838574	0
15.01.2021	08:30:11	0	0	4,745298	1,87875	21,006	-0,074	86,069	0	1012,54	6,4	8,6	8,3	1	1	1	1	1	1	1	1	1	0	1	-7,681466	273,883306	311,358659	0
15.01.2021	08:30:12	0	0	2,824582	1,779	19,8972	-0,053	86,088	0	1012,7	6,4	8,6	8,3	1	1	1	1	1	1	1	1	1	0	1	-6,272023	273,911364	312,898856	0
15.01.2021	08:30:13	0	0	2,711566	1,70925	26,5032	-0,073	86,081	0	1012,74	6,4	8,6	8,5	1	1	1	1	1	1	1	1	1	0	1	-9,231853	273,858237	309,691475	0
15.01.2021	08:30:14	0	0	3,276476	1,72875	14,652	-0,081	86,077	0	1012,66	6,4	8,6	8,5	1	1	1	1	1	1	1	1	1	0	1	-7,82241	273,727521	310,49245	0
15.01.2021	08:30:15	0	0,118977	4,519277	1,70025	24,714	-0,075	86,07	0	1012,54	6,4	8,5	8,5	1	1	1	1	1	1	1	1	1	0	1	-7,540521	273,828785	311,245636	0
15.01.2021	08:30:16	0	0	3,163494	1,6875	21,7584	-0,08	86,07	0	1012,56	6,4	8,6	8,5	1	1	1	1	1	1	1	1	1	0	1	-7,470049	273,748024	310,940194	0
15.01.2021	08:30:17	0	0	3,389458	1,71375	17,2296	-0,075	86,077	0	1012,46	6,4	8,5	8,5	1	1	1	1	1	1	1	1	1	0	1	-0	273,780288	318,56038	0
15.01.2021	08:30:18	0	0	4,406295	1,6965	22,068	-0,078	86,083	0	1012,66	6,4	8,6	8,5	1	1	1	1	1	1	1	1	1	0	1	-3,312192	273,893638	315,776079	0
15.01.2021	08:30:19	0	0	2,711566	1,737	24,7176	-0,073	86,064	0	1012,62	6,4	8,5	8,5	1	1	1	1	1	1	1	1	1	0	1	-8,949965	273,901022	310,172715	0
15.01.2021	08:30:20	0	0	3,841385	1,71075	12,4776	-0,079	86,086	0	1012,56	6,4	8,5	8,5	1	1	1	1	1	1	1	1	1	0	1	-8,386187	273,905453	310,757145	0
15.01.2021	08:30:21	0	0	3,276515	1,72875	21,762	-0,069	86,083	0	1012,52	6,4	8,5	8,3	1	1	1	1	1	1	1	1	1	0	1	-4,580691	273,748024	313,829553	0
15.01.2021	08:30:22	0	0	4,519331	1,70775	13,9032	-0,075	86,063	0	1012,46	6,4	8,5	8,3	1	1	1	1	1	1	1	1	1	0	1	-10,993658	273,830256	307,799353	0
15.01.2021	08:30:23	0	0	3,163532	1,7595	12,456	-0,076	86,074	0	1012,58	6,4	8,6	8,3	1	1	1	1	1	1	1	1	1	0	1	-5,285412	273,75242	313,145286	0
15.01.2021	08:30:24	0	0,237954	3,163532	1,8585	24,3432	-0,071	86,085	0	1012,56	6,4	8,5	8,3	1	1	1	1	1	1	1	1	1	0	1	-7,82241	273,839088	311,011729	0
15.01.2021	08:30:25	0	0	4,745241	2,037	27,9612	-0,076	86,088	0	1012,64	6,4	8,5	8,5	1	1	1	1	1	1	1	1	1	0	1	-7,117689	273,861184	311,819371	0
15.01.2021	08:30:26	0	0,118976	4,745298	2,14275	20,6316	-0,078	86,076	0	1012,62	6,4	8,6	8,3	1	1	1	1	1	1	1	1	1	0	1	-3,24172	273,908408	315,915385	0
15.01.2021	08:30:27	0	0	3,50244	2,139	17,244	-0,076	86,099	0	1012,64	6,4	8,5	8,5	1	1	1	1	1	1	1	1	1	0	1	-3,171247	273,770016	315,341329	0
15.01.2021	08:30:28	0	0	3,163494	2,1195	9,7452	-0,07	86,09	0	1012,58	6,4	8,5	8,5	1	1	1	1	1	1	1	1	1	0	1	-0,563777	273,793502	318,05811	0
15.01.2021	08:30:29	0	0	4,632259	2,184	14,6412	-0,071	86,1	0	1012,52	6,4	8,5	8,5	1	1	1	1	1	1	1	1	1	0	1	-8,597604	273,903976	310,538843	0
15.01.2021	08:30:30	0	0,237954	4,971205	2,18625	6,0696	-0,076	86,089	0	1012,7	6,4	8,5	8,5	1	1	1	1	1	1	1	1	1	0	1	-9,090909	273,842033	309,756944	0
15.01.2021	08:30:31	0	0	4,858281	2,23875	17,6904	-0,076	86,087	0	1012,4	6,4	8,5	8,3	1	1	1	1	1	1	1	1	1	0	1	-2,748414	273,895115	316,346736	0
15.01.2021	08:30:32	0	0	3,615465	2,23725	2,6388	-0,076	86,099	0	1012,54	6,4	8,5	8,3	1	1	1	1	1	1	1	1	1	0	1	-8,45666	273,872979	310,53535	0
15.01.2021	08:30:33	0	0	4,632314	2,2275	5,2272	-0,074	86,09	0	1012,46	6,4	8,5	8,3	1	1	1	1	1	1	1	1	1	0	1	-7,681466	273,758284	310,776515	0
15.01.2021	08:30:34	0	0	3,050548	2,45475	13,1508	-0,076	86,103	0	1012,62	6,4	8,6	8,3	1	1	1	1	1	1	1	1	1	0	1	-4,016913	273,77295	314,509318	0
15.01.2021	08:30:35	0	0	5,197231	2,68875	6,4332	-0,068	86,095	0	1012,6	6,4	8,5	8,3	1	1	1	1	1	1	1	1	1	0	1	-5,496829	273,890686	313,577682	0
15.01.2021	08:30:36	0	0	4,067349	2,84025	4,8204	-0,074	86,097	0	1012,44	6,4	8,6	8,5	1	1	1	1	1	1	1	1	1	0	1	-8,245243	273,88921	310,822389	0
15.01.2021	08:30:37	0	0	4,293313	2,9355	0,4968	-0,068	86,096	0	1012,58	6,4	8,5	8,5	1	1	1	1	1	1	1	1	1	0	1	-2,043693	273,906931	317,106525	0
15.01.2021	08:30:38	0	0	3,050548	2,9145	5,2128	-0,075	86,089	0	1012,5	6,4	8,6	8,3	1	1	1	1	1	1	1	1	1	0	1	-7,047216	273,794971	311,581508	0
15.01.2021	08:30:39	0	0	4,745298	2,66625	359,874	-0,068	86,107	0	1012,6	6,4	8,5	8,3	1	1	1	1	1	1	1	1	1	0	1	-5,003524	273,890686	314,070987	0
15.01.2021	08:30:40	0	0,237952	3,050548	2,5545	355,752	-0,073	86,101	0	1012,52	6,4	8,6	8,3	1	1	1	1	1	1	1	1	1	0	1	-3,805497	273,87888	315,214003	0
15.01.2021	08:30:41	0	0	4,632314	2,58825	0,864	-0,069	86,1	0	1012,56	6,4	8,6	8,3	1	1	1	1	1	1	1	1	1	0	1	-5,778717	273,908408	313,378387	0
15.01.2021	08:30:42	0	0	4,180331	2,61825	348,6636	-0,071	86,101	0	1012,52	6,4	8,5	8,5	1	1	1	1	1	1	1	1	1	0	1	-4,016913	273,717277	314,250302	0
15.01.2021	08:30:43	0	0	2,824582	2,36625	343,4976	-0,077	86,102	0	1012,58	6,4	8,6	8,3	1	1	1	1	1	1	1	1	1	0	1	-3,24172	273,908408	315,915385	0
15.01.2021	08:30:44	0	0,118977	2,711566	2,23275	3,7692	-0,074	86,108	0	1012,66	6,4	8,5	8,5	1	1	1	1	1	1	1	1	1	0	1	-8,597604	273,802317	310,065317	0
15.01.2021	08:30:45	0	0	4,858223	2,20275	12,0816	-0,074	86,099	0	1012,6	6,4	8,6	8,5	1	1	1	1	1	1	1	1	1	0	1	-2,60747	273,740699	315,768694	0
15.01.2021	08:30:46	0	0,237954	2,259638	2,08875	347,1876	-0,079	86,089	0	1012,56	6,4	8,5	8,5	1	1	1	1	1	1	1	1	1	0	1	-7,399577	273,853816	311,50316	0
15.01.2021	08:30:47	0	0,35693	4,180381	1,96125	351,1116	-0,073	86,108	0	1012,56	6,4	8,5	8,3	1	1	1	1	1	1	1	1	1	0	1	-3,030303	273,758284	315,427678	0
15.01.2021	08:30:48	0	0	4,067398	1,88475	5,2236	-0,074	86,091	0	1012,5	6,4	8,5	8,3	1	1	1	1	1	1	1	1	1	0	1	-8,033827	273,733377	310,308274	0
15.01.2021	08:30:49	0	0,118976	3,389498	1,824	19,5192	-0,081	86,1	0	1012,52	6,4	8,6	8,3	1	1	1	1	1	1	1	1	1	0	1	-6,272023	273,77295	312,254209	0
15.01.2021	08:30:50	0	0	2,937565	1,81425	41,4396	-0,075	86,102	0	1012,54	6,4	8,5	8,3	1	1	1	1	1	1	1	1	1	0	1	-7,470049	273,790565	311,138165	0
15.01.2021	08:30:51	0	0	3,954415	1,815	13,158	-0,069	86,106	0	1012,68	6,4	8,5	8,3	1	1	1	1	1	1	1	1	1	0	1	-3,030303	273,717277	315,236912	0
15.01.2021	08:30:52	0	0	4,632259	1,82175	27,288	-0,069	86,118	0	1012,58	6,4	8,5	8,5	1	1	1	1	1	1	1	1	1	0	1	-8,949965	273,856763	309,9665	0
15.01.2021	08:30:53	0	0	4,406348	1,78425	21,3768	-0,071	86,11	0	1012,6	6,4	8,6	8,3	1	1	1	1	1	1	1	1	1	0	1	-7,963354	273,909886	311,200637	0
15.01.2021	08:30:54	0	0	4,293365	1,815	36,6192	-0,068	86,112	0	1012,56	6,4	8,6	8,3	1	1	1	1	1	1	1	1	1	0	1	-5,003524	273,853816	313,899213	0
15.01.2021	08:30:55	0	0	3,728448	1,761	26,9028	-0,075	86,1	0	1012,6	6,4	8,5	8,3	1	1	1	1	1	1	1	1	1	0	1	-6,976744	273,915798	312,214801	0
15.01.2021	08:30:56	0	0,237952	2,824582	1,737	25,0272	-0,075	86,107	0	1012,6	6,4	8,6	8,3	1	1	1	1	1	1	1	1	1	0	1	-5,144468	273,831728	313,655396	0
15.01.2021	08:30:57	0	0	3,954415	1,737	22,4496	-0,074	86,117	0	1012,54	6,4	8,5	8,3	1	1	1	1	1	1	1	1	1	0	1	-10,500352	273,912842	308,677415	0
15.01.2021	08:30:58	0	0	3,050548	1,6455	18,8316	-0,074	86,099	0	1012,74	6,4	8,5	8,3	1	1	1	1	1	1	1	1	1	0	1	-4,792107	273,850869	314,096905	0
15.01.2021	08:30:59	0	0	3,615421	1,59525	11,1996	-0,076	86,085	0	1012,56	6,4	8,5	8,5	1	1	1	1	1	1	1	1	1	0	1	-5,567301	273,893638	313,520969	0
15.01.2021	08:31:00	0	0	4,180381	1,638	12,4776	-0,074	86,121	0	1012,68	6,4	8,6	8,3	1	1	1	1	1	1	1	1	1	0	1	-4,439746	273,898068	314,669167	0
15.01.2021	08:31:01	0	0	3,050548	1,75725	0,8712	-0,075	86,111	0	1012,58	6,4	8,5	8,3	1	1	1	1	1	1	1	1	1	0	1	-4,439746	273,898068	314,669167	0
15.01.2021	08:31:02	0	0	3,050548	1,75725	0,8712	-0,075	86,111	0	1012,58	6,4	8,5	8,3	1	1	1	1	1	1	1	1	1	0	1	-2,466526	273,844978	316,395045	0
15.01.2021	08:31:03	0	0	3,954367	1,78275	20,6316	-0,072	86,117	0	1012,64	6,4	8,5	8,5	1	1	1	1	1	1	1	1	1	0	1	-6,342495	273,901022	312,780185	0
15.01.2021	08:31:04	0	0	2,598584	1,69875	10,5372	-0,072	86,1	0	1012,64	6,4	8,6	8,5	1	1	1	1	1	1	1	1	1	0	1	-5,84919	273,842033	312,998664	0
15.01.2021	08:31:05	0	0	2,598584	1,6725	10,4328	-0,067	86,095	0	1012,5	6,4	8,6	8,5	1	1	1	1	1	1	1	1	1	0	1	-5,990134	273,75242	312,440565	0
15.01.2021	08:31:06	0	0,237952	4,745241	1,6425	20,628	-0,073	86,117	0	1012,64	6,4	8,6	8,5	1	1	1	1	1	1	1	1	1	0	1	-6,131078	273,843505	312,723633	0
15.01.2021	08:31:07	0	0	2,824548	1,73325	29,5812	-0,069	86,101	0	1012,52	6,4	8,6	8,5	1	1	1	1	1	1	1	1	1	0	1	-5,21494	273,758284	313,243041	0
15.01.2021	08:31:08	0	0	2,598584	1,74075	16,8624	-0,069	86,089	0	1012,46	6,4	8,6	8,5	1	1	1	1	1	1	1	1	1	0	1	-9,795631	273,908408	309,361474	0
15.01.2021	08:31:09	0	0	4,745298	1,82175	28,3572	-0,072	86,101	0	1012,56	6,4	8,5	8,3	1	1	1	1	1	1	1	1	1	0	1	-6,553911	273,790565	312,054304	0
15.01.2021	08:31:10	0	0	4,632259	1,929	22,0788	-0,074	86,112	0	1012,54	6,4	8,5	8,5	1	1	1	1	1	1	1	1	1	0	1	-3,24172	273,733377	315,100381	0
15.01.2021	08:31:11	0	0	4,519277	2,05575	15,3828	-0,068	86,107	0	1012,6	6,4	8,6	8,5	1	1	1	1	1	1	1	1	1	0	1	-8,174771	273,767082	310,324153	0
15.01.2021	08:31:12	0	0	3,50244	2,1015	49,2012	-0,069	86,11	0	1012,74	6,4	8,6	8,5	1	1	1	1	1	1	1	1	1	0	1	-8,315715	273,893638	310,772555	0
15.01.2021	08:31:13	0	0,118977	4,519331	2,2215	33,2568	-0,071	86,11	0	1012,68	6,4	8,5	8,3	1	1	1	1	1	1	1	1	1	0	1	-5,003524	273,78616	313,584187	0
15.01.2021	08:31:14	0	0	2,711599	2,271	49,1796	-0,067	86,106	0	1012,66	6,4	8,5	8,3	1	1	1	1	1	1	1	1	1	0	1	-3,59408	273,902499	315,535483	0
15.01.2021	08:31:15	0	0,118977	3,954367	2,26275	26,1576	-0,066	86,099	0	1012,62	6,4	8,5	8,5	1	1	1	1	1	1	1	1	1	0	1	-5,285412	273,790565	313,322802	0
15.01.2021	08:31:16	0	0	2,598584	2,29725	38,808	-0,069	86,112	0	1012,72	6,4	8,5	8,5	1	1	1	1	1	1	1	1	1	0	1	-7,963354	273,736305	310,392369	0
15.01.2021	08:31:17	0	0,237952	4,745241	2,1765	33,9372	-0,071	86,109	0	1012,5	6,4	8,6	8,5	1	1	1	1	1	1	1	1	1	0	1	-4,651163	273,806726	314,032283	0
15.01.2021	08:31:18	0	0	2,259638	2,115	27,648	-0,076	86,1	0	1012,62	6,4	8,6	8,5	1	1	1	1	1	1	1	1	1	0	1	-11,980268	273,884782	307,066733	0
15.01.2021	08:31:19	0	0,35693	4,745241	2,00025	36,6228	-0,071	86,095	0	1012,6	6,4	8,5	8,5	1	1	1	1	1	1	1	1	1	0	1	-9,795631	273,830256	308,99738	0
15.01.2021	08:31:20	0	0	2,598584	1,884	6,4332	-0,075	86,102	0	1012,56	6,4	8,6	8,5	1	1	1	1	1	1	1	1	1	0	1	-5,84919	273,742164	312,533789	0
15.01.2021	08:31:21	0	0,118976	4,745241	1,8135	9,7452	-0,075	86,095	0	1012,54	6,4	8,6	8,5	1	1	1	1	1	1	1	1	1	0	1	-8,879493	273,862658	310,064434	0
15.01.2021	08:31:22	0	0	5,197168	1,89525	20,2752	-0,07	86,109	0	1012,6	6,4	8,5	8,5	1	1	1	1	1	1	1	1	1	0	1	-7,610994	273,902499	311,518569	0
15.01.2021	08:31:23	0	0	4,858223	2,016	28,4436	-0,075	86,104	0	1012,7	6,4	8,5	8,5	1	1	1	1	1	1	1	1	1	0	1	-4,439746	273,88921	314,627886	0
15.01.2021	08:31:24	0	0	3,50244	2,31	8,6148	-0,073	86,092	0	1012,58	6,4	8,6	8,5	1	1	1	1	1	1	1	1	1	0	1	-8,668076	273,849396	310,214075	0
15.01.2021	08:31:25	0	0	4,406348	2,55	5,2092	-0,076	86,109	0	1012,6	6,4	8,6	8,3	1	1	1	1	1	1	1	1	1	0	1	-7,258633	273,898068	311,850281	0
15.01.2021	08:31:26	0	0	4,067349	2,65575	12,852	-0,08	86,109	0	1012,48	6,4	8,6	8,5	1	1	1	1	1	1	1	1	1	0	1	-6,553911	273,87888	312,465589	0
15.01.2021	08:31:27	0	0	3,50244	2,46525	12,852	-0,071	86,115	0	1012,62	6,4	8,5	8,5	1	1	1	1	1	1	1	1	1	0	1	-3,312192	273,834672	315,50138	0
15.01.2021	08:31:28	0	0	4,406348	2,39625	2,2968	-0,07	86,119	0	1012,72	6,4	8,5	8,3	1	1	1	1	1	1	1	1	1	0	1	-6,412967	273,892162	312,668423	0
15.01.2021	08:31:29	0	0	4,067349	2,33775	356,9184	-0,077	86,112	0	1012,58	6,4	8,5	8,5	1	1	1	1	1	1	1	1	1	0	1	-4,157858	273,858237	314,765471	0
15.01.2021	08:31:30	0	0	4,745241	2,27625	1,5624	-0,079	86,12	0	1012,54	6,4	8,5	8,5	1	1	1	1	1	1	1	1	1	0	1	-3,523608	273,899545	315,592188	0
15.01.2021	08:31:31	0	0	3,276515	2,17875	2,2932	-0,077	86,116	0	1012,62	6,4	8,6	8,3	1	1	1	1	1	1	1	1	1	0	1	-4,933051	273,756818	313,518108	0
15.01.2021	08:31:32	0	0	3,841385	2,139	3,7584	-0,078	86,121	0	1012,56	6,4	8,5	8,5	1	1	1	1	1	1	1	1	1	0	1	-1,338971	273,843505	317,515741	0
15.01.2021	08:31:33	0	0	3,841431	2,15475	2,6496	-0,072	86,126	0	1012,66	6,4	8,6	8,3	1	1	1	1	1	1	1	1	1	0	1	-3,171247	273,734841	315,177664	0
15.01.2021	08:31:34	0	0	2,711566	2,12175	359,1108	-0,07	86,126	0	1012,6	6,4	8,5	8,5	1	1	1	1	1	1	1	1	1	0	1	-0,704722	273,852343	318,191153	0
15.01.2021	08:31:35	0	0	4,406348	2,25	3,7728	-0,078	86,115	0	1012,48	6,4	8,5	8,3	1	1	1	1	1	1	1	1	1	0	1	-8,45666	273,906931	310,693558	0
15.01.2021	08:31:36	0	0	3,728448	2,32425	17,244	-0,073	86,124	0	1012,72	6,4	8,6	8,3	1	1	1	1	1	1	1	1	1	0	1	-4,792107	273,836144	314,02832	0
15.01.2021	08:31:37	0	0	4,745241	2,3295	13,9212	-0,071	86,136	0	1012,58	6,4	8,5	8,5	1	1	1	1	1	1	1	1	1	0	1	-6,060606	273,893638	313,027664	0
15.01.2021	08:31:38	0	0	3,615465	2,2425	16,4772	-0,081	86,118	0	1012,62	6,4	8,5	8,3	1	1	1	1	1	1	1	1	1	0	1	-10,993658	273,784691	307,587219	0
15.01.2021	08:31:39	0	0	2,711566	2,0715	16,4736	-0,07	86,126	0	1012,62	6,4	8,6	8,5	1	1	1	1	1	1	1	1	1	0	1	-4,580691	273,893638	314,50758	0
15.01.2021	08:31:40	0	0,237954	3,389498	1,96725	26,1792	-0,081	86,117	0	1012,6	6,4	8,5	8,3	1	1	1	1	1	1	1	1	1	0	1	-6,624383	273,802317	312,038538	0
15.01.2021	08:31:41	0	0	2,711566	2,15625	23,4792	-0,071	86,13	0	1012,64	6,4	8,5	8,5	1	1	1	1	1	1	1	1	1	0	1	-12,473573	273,893638	306,614697	0
15.01.2021	08:31:42	0	0	3,163532	2,37	30,3228	-0,064	86,138	0	1012,56	6,4	8,6	8,3	1	1	1	1	1	1	1	1	1	0	1	-8,033827	273,73777	310,32871	0
15.01.2021	08:31:43	0	0	4,519331	2,256	16,4772	-0,073	86,139	0	1012,72	6,4	8,5	8,3	1	1	1	1	1	1	1	1	1	0	1	-10,923185	273,844978	307,938385	0
15.01.2021	08:31:44	0	0	2,711566	2,2155	35,4744	-0,075	86,138	0	1012,62	6,4	8,5	8,5	1	1	1	1	1	1	1	1	1	0	1	-6,483439	273,896591	312,618593	0
15.01.2021	08:31:45	0	0	3,276476	2,06925	18,0864	-0,072	86,137	0	1012,72	6,4	8,5	8,5	1	1	1	1	1	1	1	1	1	0	1	-3,805497	273,824371	314,960107	0
15.01.2021	08:31:46	0	0	4,293313	1,986	25,0272	-0,073	86,133	0	1012,5	6,4	8,5	8,5	1	1	1	1	1	1	1	1	1	0	1	-5,84919	273,902499	313,280373	0
15.01.2021	08:31:47	0	0,237954	4,519331	1,9515	9,3708	-0,081	86,127	0	1012,6	6,4	8,5	8,3	1	1	1	1	1	1	1	1	1	0	1	-7,399577	273,842033	311,448276	0
15.01.2021	08:31:48	0	0	3,389498	1,97475	30,7944	-0,076	86,139	0	1012,54	6,4	8,5	8,3	1	1	1	1	1	1	1	1	1	0	1	-3,875969	273,91432	315,308687	0
15.01.2021	08:31:49	0	0	4,293365	1,94475	22,0644	-0,073	86,14	0	1012,48	6,4	8,5	8,3	1	1	1	1	1	1	1	1	1	0	1	-5,355884	273,762683	313,122565	0
15.01.2021	08:31:50	0	0	3,615465	1,9065	29,1024	-0,074	86,139	0	1012,66	6,4	8,5	8,3	1	1	1	1	1	1	1	1	1	0	1	-5,567301	273,784691	313,013576	0
15.01.2021	08:31:51	0	0,237952	3,163532	1,7895	18,828	-0,073	86,137	0	1012,6	6,4	8,6	8,3	1	1	1	1	1	1	1	1	1	0	1	-3,735025	273,728984	314,586645	0
15.01.2021	08:31:52	0	0	4,519277	1,62075	14,4036	-0,073	86,15	0	1012,42	6,4	8,6	8,5	1	1	1	1	1	1	1	1	1	0	1	-8,174771	273,85971	310,755423	0
15.01.2021	08:31:53	0	0	4,293365	1,52925	23,5836	-0,072	86,146	0	1012,68	6,4	8,6	8,3	1	1	1	1	1	1	1	1	1	0	1	-7,681466	273,918754	311,52386	0
15.01.2021	08:31:54	0	0,237952	3,728448	1,4115	16,488	-0,074	86,148	0	1012,6	6,4	8,6	8,3	1	1	1	1	1	1	1	1	1	0	1	-3,805497	273,783223	314,768547	0
15.01.2021	08:31:55	0	0	2,711566	1,40625	32,184	-0,078	86,141	0	1012,56	6,4	8,6	8,5	1	1	1	1	1	1	1	1	1	0	1	-4,510218	273,75975	313,954585	0
15.01.2021	08:31:56	0	0	2,598615	1,40475	25,0344	-0,084	86,143	0	1012,5	6,4	8,6	8,3	1	1	1	1	1	1	1	1	1	0	1	-0,845666	273,733377	317,496434	0
15.01.2021	08:31:57	0	0	3,163494	1,413	32,1408	-0,075	86,132	0	1012,48	6,4	8,5	8,5	1	1	1	1	1	1	1	1	1	0	1	-1,479915	273,903976	317,656532	0
15.01.2021	08:31:58	0	0	4,745298	1,368	7,8696	-0,074	86,153	0	1012,7	6,4	8,6	8,3	1	1	1	1	1	1	1	1	1	0	1	-2,466526	273,926147	316,773264	0
15.01.2021	08:31:59	0	0	5,084247	1,4985	6,9012	-0,078	86,144	0	1012,6	6,4	8,5	8,3	1	1	1	1	1	1	1	1	1	0	1	-5,496829	273,825842	313,275626	0
15.01.2021	08:32:00	0	0	3,050548	1,83	11,718	-0,076	86,132	0	1012,6	6,4	8,6	8,3	1	1	1	1	1	1	1	1	1	0	1	-7,963354	273,77882	310,590195	0
15.01.2021	08:32:01	0	0	3,050548	1,83	11,718	-0,076	86,132	0	1012,6	6,4	8,6	8,3	1	1	1	1	1	1	1	1	1	0	1	-7,963354	273,77882	310,590195	0
15.01.2021	08:32:02	0	0	3,050512	1,91625	15,7968	-0,069	86,149	0	1012,62	6,4	8,5	8,5	1	1	1	1	1	1	1	1	1	0	1	-5,21494	273,87888	313,80456	0
15.01.2021	08:32:03	0	0	3,050512	2,034	19,8864	-0,072	86,151	0	1012,56	6,4	8,5	8,5	1	1	1	1	1	1	1	1	1	0	1	-8,104299	273,734841	310,244613	0
15.01.2021	08:32:04	0	0,118976	4,858223	1,98675	4,8384	-0,071	86,15	0	1012,72	6,4	8,6	8,5	1	1	1	1	1	1	1	1	1	0	1	-7,963354	273,883306	311,07677	0
15.01.2021	08:32:05	0	0	2,937565	1,96875	24,3504	-0,078	86,136	0	1012,92	6,4	8,6	8,3	1	1	1	1	1	1	1	1	1	0	1	-8,949965	273,881831	310,083284	0
15.01.2021	08:32:06	0	0	2,93753	2,0955	17,6868	-0,069	86,166	0	1012,7	6,4	8,6	8,5	1	1	1	1	1	1	1	1	1	0	1	-4,157858	273,911364	315,013021	0
15.01.2021	08:32:07	0	0	3,728403	2,06475	21,7728	-0,07	86,128	0	1012,68	6,4	8,5	8,5	1	1	1	1	1	1	1	1	1	0	1	-7,681466	273,802317	310,981455	0
15.01.2021	08:32:08	0	0	4,519277	1,93575	9,3528	-0,075	86,159	0	1012,64	6,4	8,5	8,5	1	1	1	1	1	1	1	1	1	0	1	-6,906272	273,901022	312,216407	0
15.01.2021	08:32:09	0	0	3,728448	1,9635	2,2968	-0,074	86,156	0	1012,58	6,4	8,6	8,3	1	1	1	1	1	1	1	1	1	0	1	-1,62086	273,858237	317,302469	0
15.01.2021	08:32:10	0	0,237954	5,084186	1,96275	13,9356	-0,078	86,153	0	1012,5	6,4	8,5	8,5	1	1	1	1	1	1	1	1	1	0	1	-7,963354	273,908408	311,19375	0
15.01.2021	08:32:11	0	0	2,824582	1,96575	19,8972	-0,069	86,153	0	1012,56	6,4	8,6	8,3	1	1	1	1	1	1	1	1	1	0	1	-8,597604	273,881831	310,435645	0
15.01.2021	08:32:12	0	0	3,163494	2,06625	4,0788	-0,077	86,168	0	1012,64	6,4	8,6	8,5	1	1	1	1	1	1	1	1	1	0	1	-4,439746	273,87888	314,579754	0
15.01.2021	08:32:13	0	0	3,50244	2,28525	9,3528	-0,074	86,141	0	1012,6	6,4	8,5	8,5	1	1	1	1	1	1	1	1	1	0	1	-6,8358	273,761216	311,635826	0
15.01.2021	08:32:14	0	0	3,728403	2,3025	10,0548	-0,075	86,138	0	1012,46	6,4	8,5	8,5	1	1	1	1	1	1	1	1	1	0	1	-5,355884	273,874454	313,642997	0
15.01.2021	08:32:15	0	0,118977	2,937565	2,21025	16,47	-0,071	86,161	0	1012,66	6,4	8,5	8,3	1	1	1	1	1	1	1	1	1	0	1	-6,131078	273,918754	313,074248	0
15.01.2021	08:32:16	0	0,237954	3,50244	2,02275	16,0884	-0,074	86,175	0	1012,62	6,4	8,5	8,5	1	1	1	1	1	1	1	1	1	0	1	-6,694856	273,77295	311,831376	0
15.01.2021	08:32:17	0	0	3,276476	1,908	19,6272	-0,074	86,162	0	1012,42	6,4	8,6	8,5	1	1	1	1	1	1	1	1	1	0	1	-5,003524	273,895115	314,091627	0
15.01.2021	08:32:18	0	0,118976	4,406295	1,87425	17,2332	-0,077	86,162	0	1012,6	6,4	8,6	8,5	1	1	1	1	1	1	1	1	1	0	1	-7,963354	273,73777	310,399182	0
15.01.2021	08:32:19	0	0	2,711566	1,8675	34,704	-0,075	86,164	0	1012,68	6,4	8,6	8,5	1	1	1	1	1	1	1	1	1	0	1	-4,22833	273,846451	314,6401	0
15.01.2021	08:32:20	0	0	4,406295	1,8645	20,2752	-0,069	86,169	0	1012,6	6,4	8,6	8,5	1	1	1	1	1	1	1	1	1	0	1	-0	273,753886	318,437518	0
15.01.2021	08:32:21	0	0	3,163532	1,902	16,4736	-0,076	86,164	0	1012,52	6,4	8,6	8,3	1	1	1	1	1	1	1	1	1	0	1	-3,453136	273,858237	315,470193	0
15.01.2021	08:32:22	0	0	3,163532	2,05125	19,5228	-0,072	86,172	0	1012,66	6,4	8,6	8,3	1	1	1	1	1	1	1	1	1	0	1	-7,188161	273,750955	311,235719	0
15.01.2021	08:32:23	0	0,356928	4,632314	2,04375	25,0272	-0,074	86,17	0	1012,58	6,4	8,6	8,3	1	1	1	1	1	1	1	1	1	0	1	-9,231853	273,824371	309,533751	0
15.01.2021	08:32:24	0	0	3,954367	1,995	15,408	-0,072	86,181	0	1012,72	6,4	8,6	8,5	1	1	1	1	1	1	1	1	1	0	1	-6,553911	273,912842	312,623856	0
15.01.2021	08:32:25	0	0	4,067349	1,99125	16,0884	-0,073	86,174	0	1012,74	6,4	8,5	8,5	1	1	1	1	1	1	1	1	1	0	1	-5,990134	273,844978	312,871437	0
15.01.2021	08:32:26	0	0	2,598615	1,986	20,6316	-0,074	86,171	0	1012,6	6,4	8,6	8,3	1	1	1	1	1	1	1	1	1	0	1	-3,875969	273,908408	315,281135	0
15.01.2021	08:32:27	0	0,35693	4,858223	1,9695	22,8276	-0,074	86,157	0	1012,42	6,4	8,5	8,5	1	1	1	1	1	1	1	1	1	0	1	-7,540521	273,830256	311,252489	0
15.01.2021	08:32:28	0	0	4,406295	1,9305	24,3432	-0,076	86,165	0	1012,6	6,4	8,5	8,5	1	1	1	1	1	1	1	1	1	0	1	-6,20155	273,743629	312,188243	0
15.01.2021	08:32:29	0	0,237952	3,050512	1,842	18,1656	-0,071	86,168	0	1012,5	6,4	8,6	8,5	1	1	1	1	1	1	1	1	1	0	1	-8,45666	273,777352	310,090059	0
15.01.2021	08:32:30	0	0	3,050512	1,77675	15,4152	-0,072	86,164	0	1012,52	6,4	8,6	8,5	1	1	1	1	1	1	1	1	1	0	1	-10,711769	273,87003	308,2665	0
15.01.2021	08:32:31	0	0	4,293313	1,79925	14,6412	-0,077	86,158	0	1012,54	6,4	8,5	8,5	1	1	1	1	1	1	1	1	1	0	1	-3,805497	273,91432	315,379159	0
15.01.2021	08:32:32	0	0,356928	4,067349	1,839	12,8412	-0,073	86,164	0	1012,64	6,4	8,6	8,5	1	1	1	1	1	1	1	1	1	0	1	-6,8358	273,808195	311,854489	0
15.01.2021	08:32:33	0	0	3,728403	1,93275	9,7488	-0,08	86,162	0	1012,62	6,4	8,6	8,5	1	1	1	1	1	1	1	1	1	0	1	-7,399577	273,742164	310,983401	0
15.01.2021	08:32:34	0	0,237952	2,485632	2,0115	4,086	-0,073	86,17	0	1012,62	6,4	8,6	8,3	1	1	1	1	1	1	1	1	1	0	1	-5,708245	273,780288	312,852135	0
15.01.2021	08:32:35	0	0	4,745298	2,016	3,114	-0,082	86,164	0	1012,58	6,4	8,5	8,3	1	1	1	1	1	1	1	1	1	0	1	-7,258633	273,865607	311,699029	0
15.01.2021	08:32:36	0	0	2,711566	2,01375	6,4332	-0,074	86,164	0	1012,6	6,4	8,6	8,5	1	1	1	1	1	1	1	1	1	0	1	-3,875969	273,774418	314,657091	0
15.01.2021	08:32:37	0	0	3,728448	2,055	6,822	-0,07	86,178	0	1012,46	6,4	8,6	8,3	1	1	1	1	1	1	1	1	1	0	1	-3,523608	273,746559	314,879818	0
15.01.2021	08:32:38	0	0,237952	4,406348	2,007	6,0516	-0,072	86,176	0	1012,58	6,4	8,6	8,3	1	1	1	1	1	1	1	1	1	0	1	-8,668076	273,864132	310,282718	0
15.01.2021	08:32:39	0	0	3,728403	1,94925	12,0924	-0,078	86,175	0	1012,66	6,4	8,6	8,5	1	1	1	1	1	1	1	1	1	0	1	-6,20155	273,886258	312,852327	0
15.01.2021	08:32:40	0	0	3,841385	1,90575	11,718	-0,081	86,168	0	1012,44	6,4	8,6	8,5	1	1	1	1	1	1	1	1	1	0	1	-13,03735	273,901022	306,085329	0
15.01.2021	08:32:41	0	0	4,180381	1,899	21,3948	-0,071	86,178	0	1012,62	6,4	8,6	8,3	1	1	1	1	1	1	1	1	1	0	1	-6,342495	273,853816	312,560242	0
15.01.2021	08:32:42	0	0	2,93753	1,88925	10,8	-0,076	86,163	0	1012,7	6,4	8,5	8,5	1	1	1	1	1	1	1	1	1	0	1	-9,302326	273,901022	309,820354	0
15.01.2021	08:32:43	0	0	3,841385	1,8795	14,0184	-0,069	86,178	0	1012,7	6,4	8,5	8,5	1	1	1	1	1	1	1	1	1	0	1	-4,792107	273,858237	314,131222	0
15.01.2021	08:32:44	0	0	2,93753	1,9005	9,3708	-0,075	86,173	0	1012,7	6,4	8,5	8,5	1	1	1	1	1	1	1	1	1	0	1	-4,792107	273,756818	313,659052	0
15.01.2021	08:32:45	0	0	3,050512	1,88775	11,7036	-0,071	86,169	0	1012,62	6,4	8,5	8,5	1	1	1	1	1	1	1	1	1	0	1	-13,812544	273,864132	305,13825	0
15.01.2021	08:32:46	0	0	4,519277	1,92675	13,5432	-0,071	86,179	0	1012,58	6,4	8,6	8,5	1	1	1	1	1	1	1	1	1	0	1	-5,919662	273,911364	313,251217	0
15.01.2021	08:32:47	0	0,475904	3,50244	2,10225	8,6076	-0,075	86,185	0	1012,5	6,4	8,6	8,5	1	1	1	1	1	1	1	1	1	0	1	-8,45666	273,872979	310,53535	0
15.01.2021	08:32:48	0	0	4,519331	2,32725	12,8556	-0,074	86,159	0	1012,48	6,4	8,6	8,3	1	1	1	1	1	1	1	1	1	0	1	-9,020437	273,903976	310,11601	0
15.01.2021	08:32:49	0	0,475904	4,745241	2,41275	6,0624	-0,078	86,176	0	1012,62	6,4	8,6	8,5	1	1	1	1	1	1	1	1	1	0	1	-8,45666	273,868555	310,514739	0
15.01.2021	08:32:50	0	0	3,728403	2,421	9,3672	-0,073	86,172	0	1012,72	6,4	8,5	8,5	1	1	1	1	1	1	1	1	1	0	1	-7,399577	273,909886	311,764414	0
15.01.2021	08:32:51	0	0,237954	3,276476	2,3415	11,1924	-0,079	86,169	0	1012,54	6,4	8,5	8,5	1	1	1	1	1	1	1	1	1	0	1	-6,8358	273,905453	312,307533	0
15.01.2021	08:32:52	0	0	2,937565	2,2335	18,432	-0,076	86,178	0	1012,58	6,4	8,6	8,3	1	1	1	1	1	1	1	1	1	0	1	-8,527132	273,87888	310,492368	0
15.01.2021	08:32:53	0	0	2,824548	2,1615	14,6556	-0,074	86,181	0	1012,5	6,4	8,6	8,5	1	1	1	1	1	1	1	1	1	0	1	-3,59408	273,915798	315,597465	0
15.01.2021	08:32:54	0	0	3,050548	2,1165	11,7144	-0,075	86,179	0	1012,66	6,4	8,6	8,3	1	1	1	1	1	1	1	1	1	0	1	-10,147992	273,803786	308,52177	0
15.01.2021	08:32:55	0	0	4,293313	2,0505	16,4772	-0,075	86,171	0	1012,68	6,4	8,5	8,5	1	1	1	1	1	1	1	1	1	0	1	-7,540521	273,899545	311,575275	0
15.01.2021	08:32:56	0	0,356928	4,632259	2,00475	19,5228	-0,075	86,165	0	1012,56	6,4	8,6	8,5	1	1	1	1	1	1	1	1	1	0	1	-10,570825	273,843505	308,283887	0
15.01.2021	08:32:57	0	0	3,276476	1,92525	17,2404	-0,077	86,163	0	1012,58	6,4	8,6	8,5	1	1	1	1	1	1	1	1	1	0	1	-7,82241	273,748024	310,587833	0
15.01.2021	08:32:58	0	0,237952	3,050512	1,84575	17,2296	-0,08	86,163	0	1012,64	6,4	8,6	8,5	1	1	1	1	1	1	1	1	1	0	1	-10,147992	273,753886	308,289527	0
15.01.2021	08:32:59	0	0	3,050548	1,8315	15,0264	-0,078	86,155	0	1012,64	6,4	8,6	8,3	1	1	1	1	1	1	1	1	1	0	1	-9,090909	273,908408	310,066195	0
15.01.2021	08:33:00	0	0	4,519277	1,75575	4,8312	-0,076	86,182	0	1012,64	6,4	8,6	8,5	1	1	1	1	1	1	1	1	1	0	1	-8,738548	273,843505	310,116163	0
15.01.2021	08:33:01	0	0	4,519277	1,75575	4,8312	-0,076	86,182	0	1012,64	6,4	8,6	8,5	1	1	1	1	1	1	1	1	1	0	1	-8,738548	273,843505	310,116163	0
15.01.2021	08:33:02	0	0	3,615421	1,7385	12,1032	-0,077	86,175	0	1012,56	6,4	8,6	8,5	1	1	1	1	1	1	1	1	1	0	1	-6,483439	273,912842	312,694328	0
15.01.2021	08:33:03	0	0,237954	3,841431	1,72275	17,6976	-0,08	86,161	0	1012,6	6,4	8,5	8,3	1	1	1	1	1	1	1	1	1	0	1	-5,496829	273,793502	313,125059	0
15.01.2021	08:33:04	0	0	3,954367	1,7805	18,4536	-0,081	86,168	0	1012,5	6,4	8,6	8,5	1	1	1	1	1	1	1	1	1	0	1	-14,446794	273,927626	304,799891	0
15.01.2021	08:33:05	0	0	4,745298	1,89525	13,1724	-0,08	86,173	0	1012,7	6,4	8,6	8,3	1	1	1	1	1	1	1	1	1	0	1	-6,8358	273,792033	311,779251	0
15.01.2021	08:33:06	0	0	2,824565	2,07525	10,4328	-0,073	86,187	0	1012,58	6,4	8,6	8,4	1	1	1	1	1	1	1	1	1	0	1	-7,047216	273,739234	311,322134	0
15.01.2021	08:33:07	0	0,118976	4,745241	2,09325	13,9068	-0,079	86,174	0	1012,6	6,4	8,6	8,5	1	1	1	1	1	1	1	1	1	0	1	-9,020437	273,849396	309,861714	0
15.01.2021	08:33:08	0	0	3,841431	2,10525	10,0512	-0,076	86,179	0	1012,62	6,4	8,6	8,3	1	1	1	1	1	1	1	1	1	0	1	-7,82241	273,75242	310,608288	0
15.01.2021	08:33:09	0	0,35693	3,615421	2,1915	7,1316	-0,083	86,162	0	1012,6	6,4	8,5	8,5	1	1	1	1	1	1	1	1	1	0	1	-17,89993	273,853816	301,002808	0
15.01.2021	08:33:10	0	0	3,050512	2,2485	10,0512	-0,075	86,176	0	1012,66	6,4	8,6	8,5	1	1	1	1	1	1	1	1	1	0	1	-6,412967	273,886258	312,64091	0
15.01.2021	08:33:11	0	0,237954	3,276476	2,1825	4,0824	-0,075	86,18	0	1012,68	6,4	8,5	8,5	1	1	1	1	1	1	1	1	1	0	1	-6,976744	273,875929	312,029009	0
15.01.2021	08:33:12	0	0	4,293313	2,1435	7,2216	-0,073	86,175	0	1012,62	6,4	8,6	8,5	1	1	1	1	1	1	1	1	1	0	1	-6,8358	273,783223	311,738244	0
15.01.2021	08:33:13	0	0	3,163494	2,1915	3,7728	-0,068	86,194	0	1012,76	6,4	8,6	8,5	1	1	1	1	1	1	1	1	1	0	1	-2,60747	273,921711	316,61164	0
15.01.2021	08:33:14	0	0,118976	3,841385	2,15325	17,2332	-0,078	86,189	0	1012,6	6,4	8,6	8,5	1	1	1	1	1	1	1	1	1	0	1	-0,563777	273,875929	318,441976	0
15.01.2021	08:33:15	0	0	4,971205	2,196	357,3036	-0,072	86,191	0	1012,64	6,4	8,6	8,5	1	1	1	1	1	1	1	1	1	0	1	-4,298802	273,87888	314,720698	0
15.01.2021	08:33:16	0	0	4,632259	2,34	16,002	-0,078	86,181	0	1012,76	6,4	8,6	8,5	1	1	1	1	1	1	1	1	1	0	1	-4,087385	273,746559	314,316041	0
15.01.2021	08:33:17	0	0	4,519277	2,424	14,292	-0,079	86,167	0	1012,72	6,4	8,5	8,5	1	1	1	1	1	1	1	1	1	0	1	-8,80902	273,828785	309,977137	0
15.01.2021	08:33:18	0	0	3,841431	2,29275	20,2716	-0,079	86,185	0	1012,46	6,4	8,6	8,3	1	1	1	1	1	1	1	1	1	0	1	-5,496829	273,742164	312,88615	0
15.01.2021	08:33:19	0	0,237952	2,824548	2,19075	11,1888	-0,075	86,184	0	1012,54	6,4	8,6	8,5	1	1	1	1	1	1	1	1	1	0	1	-1,832276	273,868555	317,139123	0
15.01.2021	08:33:20	0	0	2,598584	2,2005	9,3744	-0,076	86,188	0	1012,46	6,4	8,6	8,5	1	1	1	1	1	1	1	1	1	0	1	-4,510218	273,868555	314,46118	0
15.01.2021	08:33:21	0	0	3,163494	2,139	13,9176	-0,08	86,176	0	1012,66	6,4	8,6	8,5	1	1	1	1	1	1	1	1	1	0	1	-12,403101	273,742164	305,979878	0
15.01.2021	08:33:22	0	0	3,615465	2,0295	6,4368	-0,072	86,191	0	1012,82	6,4	8,6	8,3	1	1	1	1	1	1	1	1	1	0	1	-7,82241	273,886258	311,231467	0
15.01.2021	08:33:23	0	0	4,180331	2,00925	16,488	-0,076	86,184	0	1012,62	6,4	8,6	8,5	1	1	1	1	1	1	1	1	1	0	1	-4,792107	273,75975	313,672696	0
15.01.2021	08:33:24	0	0,475904	5,197168	2,022	9,7416	-0,076	86,189	0	1012,64	6,4	8,6	8,5	1	1	1	1	1	1	1	1	1	0	1	-2,396054	273,806726	316,287393	0
15.01.2021	08:33:25	0	0	3,954367	2,07525	16,488	-0,076	86,206	0	1012,66	6,4	8,6	8,5	1	1	1	1	1	1	1	1	1	0	1	-4,369274	273,740699	314,00689	0
15.01.2021	08:33:26	0	0	4,293313	2,06325	16,866	-0,077	86,189	0	1012,76	6,4	8,5	8,5	1	1	1	1	1	1	1	1	1	0	1	-10,570825	273,890686	308,503687	0
15.01.2021	08:33:27	0	0,356928	2,824548	2,013	21,4236	-0,076	86,183	0	1012,68	6,4	8,6	8,5	1	1	1	1	1	1	1	1	1	0	1	-6,765328	273,825842	312,007127	0
15.01.2021	08:33:28	0	0	3,163494	2,00625	18,8352	-0,08	86,17	0	1012,5	6,4	8,6	8,5	1	1	1	1	1	1	1	1	1	0	1	-2,325581	273,739234	316,043769	0
15.01.2021	08:33:29	0	0	3,615421	2,022	21,762	-0,076	86,19	0	1012,62	6,4	8,6	8,5	1	1	1	1	1	1	1	1	1	0	1	-4,087385	273,843505	314,767326	0
15.01.2021	08:33:30	0	0,237952	3,050512	2,064	21,0096	-0,062	86,202	0	1012,72	6,4	8,6	8,5	1	1	1	1	1	1	1	1	1	0	1	-5,919662	273,740699	312,456502	0
15.01.2021	08:33:31	0	0,237952	3,050512	2,0295	29,9448	-0,077	86,191	0	1012,74	6,4	8,6	8,5	1	1	1	1	1	1	1	1	1	0	1	-7,117689	273,756818	311,333471	0
15.01.2021	08:33:32	0	0,118976	4,745241	1,9365	23,9652	-0,072	86,196	0	1012,66	6,4	8,6	8,5	1	1	1	1	1	1	1	1	1	0	1	-8,527132	273,856763	310,389333	0
15.01.2021	08:33:33	0	0	2,824548	1,87425	23,58	-0,082	86,18	0	1012,58	6,4	8,6	8,5	1	1	1	1	1	1	1	1	1	0	1	-2,818887	273,731912	315,516403	0
15.01.2021	08:33:34	0	0	2,37262	1,854	13,5468	-0,078	86,189	0	1012,74	6,4	8,5	8,5	1	1	1	1	1	1	1	1	1	0	1	-7,047216	273,844978	311,814354	0
15.01.2021	08:33:35	0	0	4,519277	1,84725	14,3028	-0,075	86,18	0	1012,64	6,4	8,6	8,5	1	1	1	1	1	1	1	1	1	0	1	-6,694856	273,908408	312,462249	0
15.01.2021	08:33:36	0	0,356928	5,31015	1,76925	23,9652	-0,067	86,184	0	1012,58	6,4	8,6	8,5	1	1	1	1	1	1	1	1	1	0	1	-9,513742	273,864132	309,437052	0
15.01.2021	08:33:37	0	0	2,711599	1,77975	12,8448	-0,076	86,178	0	1012,72	6,4	8,6	8,3	1	1	1	1	1	1	1	1	1	0	1	-8,315715	273,748024	310,094528	0
15.01.2021	08:33:38	0	0	2,93753	1,86375	10,53	-0,076	86,178	0	1012,68	6,4	8,6	8,5	1	1	1	1	1	1	1	1	1	0	1	-9,090909	273,726057	309,217143	0
15.01.2021	08:33:39	0	0,237952	4,293313	1,95975	11,1888	-0,074	86,17	0	1012,66	6,4	8,6	8,5	1	1	1	1	1	1	1	1	1	0	1	-10,147992	273,895115	308,947159	0
15.01.2021	08:33:40	0	0,118976	4,519277	1,9395	12,8484	-0,081	86,172	0	1012,54	6,4	8,6	8,5	1	1	1	1	1	1	1	1	1	0	1	-5,778717	273,764149	312,706556	0
15.01.2021	08:33:41	0	0	3,389458	1,818	15,7788	-0,074	86,177	0	1012,6	6,4	8,6	8,5	1	1	1	1	1	1	1	1	1	0	1	-7,329105	273,805256	311,347499	0
15.01.2021	08:33:42	0	0	4,180331	1,779	0,4968	-0,074	86,176	0	1012,7	6,4	8,6	8,5	1	1	1	1	1	1	1	1	1	0	1	-7,540521	273,890686	311,53399	0
15.01.2021	08:33:43	0	0	3,615421	1,70925	18,4644	-0,078	86,183	0	1012,7	6,4	8,6	8,5	1	1	1	1	1	1	1	1	1	0	1	-4,157858	273,764149	314,327416	0
15.01.2021	08:33:44	0	0,237952	2,711566	1,64175	16,47	-0,08	86,185	0	1012,66	6,4	8,6	8,5	1	1	1	1	1	1	1	1	1	0	1	-10,218464	273,787628	308,376081	0
15.01.2021	08:33:45	0	0	4,180331	1,515	16,8444	-0,079	86,174	0	1012,76	6,4	8,6	8,5	1	1	1	1	1	1	1	1	1	0	1	-3,24172	273,750955	315,18216	0
15.01.2021	08:33:46	0	0	3,615421	1,4175	12,8448	-0,073	86,162	0	1012,74	6,4	8,6	8,5	1	1	1	1	1	1	1	1	1	0	1	-6,8358	273,844978	312,025771	0
15.01.2021	08:33:47	0	0	3,050512	1,46025	10,4436	-0,082	86,171	0	1012,6	6,4	8,5	8,5	1	1	1	1	1	1	1	1	1	0	1	-10,711769	273,902499	308,417794	0
15.01.2021	08:33:48	0	0,237952	4,632259	1,47375	25,416	-0,078	86,175	0	1012,78	6,4	8,6	8,5	1	1	1	1	1	1	1	1	1	0	1	-9,090909	273,777352	309,45581	0
15.01.2021	08:33:49	0	0	4,745241	1,509	6,5124	-0,078	86,169	0	1012,64	6,4	8,6	8,5	1	1	1	1	1	1	1	1	1	0	1	-5,708245	273,77882	312,845304	0
15.01.2021	08:33:50	0	0	3,276495	1,49925	22,0932	-0,077	86,175	0	1012,66	6,4	8,6	8,4	1	1	1	1	1	1	1	1	1	0	1	-4,721635	273,748024	313,688608	0
15.01.2021	08:33:51	0	0	4,067349	1,4895	8,604	-0,084	86,18	0	1012,54	6,4	8,5	8,5	1	1	1	1	1	1	1	1	1	0	1	-7,258633	273,84056	311,582363	0
15.01.2021	08:33:52	0	0	5,084186	1,55925	23,22	-0,076	86,176	0	1012,62	6,4	8,5	8,5	1	1	1	1	1	1	1	1	1	0	1	-5,84919	273,72313	312,445248	0
15.01.2021	08:33:53	0	0,237952	4,406295	1,5825	12,834	-0,082	86,172	0	1012,64	6,4	8,6	8,5	1	1	1	1	1	1	1	1	1	0	1	-8,033827	273,830256	310,759184	0
15.01.2021	08:33:54	0	0	4,745241	1,55325	8,2656	-0,078	86,185	0	1012,68	6,4	8,6	8,5	1	1	1	1	1	1	1	1	1	0	1	-1,973221	273,762683	316,505229	0
15.01.2021	08:33:55	0	0	4,406295	1,5645	11,1888	-0,079	86,156	0	1012,64	6,4	8,6	8,5	1	1	1	1	1	1	1	1	1	0	1	-2,889359	273,899545	316,226438	0
15.01.2021	08:33:56	0	0	3,389498	1,602	9,45	-0,077	86,18	0	1012,54	6,4	8,6	8,3	1	1	1	1	1	1	1	1	1	0	1	-4,298802	273,843505	314,55591	0
15.01.2021	08:33:57	0	0,118976	3,389498	1,60425	11,826	-0,074	86,186	0	1012,82	6,4	8,6	8,3	1	1	1	1	1	1	1	1	1	0	1	-6,272023	273,898068	312,836891	0
15.01.2021	08:33:58	0	0,356928	4,406295	1,608	19,5264	-0,081	86,164	0	1012,78	6,4	8,6	8,5	1	1	1	1	1	1	1	1	1	0	1	-7,681466	273,793502	310,940422	0
15.01.2021	08:33:59	0	0	3,728448	1,557	17,7012	-0,083	86,18	0	1012,56	6,4	8,5	8,3	1	1	1	1	1	1	1	1	1	0	1	-3,875969	273,753886	314,561549	0
15.01.2021	08:34:00	0	0,356928	4,745241	1,40925	16,8516	-0,078	86,182	0	1012,44	6,4	8,6	8,5	1	1	1	1	1	1	1	1	1	0	1	-5,003524	273,824371	313,762081	0
15.01.2021	08:34:01	0	0,356928	4,745241	1,40925	16,8516	-0,078	86,182	0	1012,44	6,4	8,6	8,5	1	1	1	1	1	1	1	1	1	0	1	-5,003524	273,824371	313,762081	0
15.01.2021	08:34:02	0	0	4,971205	1,35675	357,246	-0,075	86,179	0	1012,7	6,4	8,6	8,5	1	1	1	1	1	1	1	1	1	0	1	-8,386187	273,898068	310,722726	0
15.01.2021	08:34:03	0	0	4,745241	1,38675	6,8112	-0,074	86,182	0	1012,76	6,4	8,5	8,5	1	1	1	1	1	1	1	1	1	0	1	-6,412967	273,844978	312,448604	0
15.01.2021	08:34:04	0	0	3,615421	1,43325	17,7012	-0,065	86,181	0	1012,78	6,4	8,6	8,5	1	1	1	1	1	1	1	1	1	0	1	-8,45666	273,748024	309,953584	0
15.01.2021	08:34:05	0	0,237952	4,745241	1,506	17,676	-0,074	86,179	0	1012,6	6,4	8,6	8,5	1	1	1	1	1	1	1	1	1	0	1	-6,694856	273,865607	312,262806	0
15.01.2021	08:34:06	0	0,237954	3,728403	1,602	18,4716	-0,074	86,188	0	1012,64	6,4	8,5	8,5	1	1	1	1	1	1	1	1	1	0	1	-4,933051	273,792033	313,681999	0
15.01.2021	08:34:07	0	0	3,276476	1,69125	12,096	-0,075	86,164	0	1012,76	6,4	8,6	8,5	1	1	1	1	1	1	1	1	1	0	1	-6,765328	273,731912	311,569962	0
15.01.2021	08:34:08	0	0	3,728403	1,70025	10,4364	-0,082	86,177	0	1012,66	6,4	8,6	8,5	1	1	1	1	1	1	1	1	1	0	1	-3,735025	273,844978	315,126546	0
15.01.2021	08:34:09	0	0	3,728403	1,692	14,2956	-0,074	86,186	0	1012,78	6,4	8,6	8,5	1	1	1	1	1	1	1	1	1	0	1	-5,285412	273,895115	313,809739	0
15.01.2021	08:34:10	0	0,237954	4,745241	1,6905	3,0204	-0,077	86,166	0	1012,7	6,4	8,5	8,5	1	1	1	1	1	1	1	1	1	0	1	-5,003524	273,827313	313,775782	0
15.01.2021	08:34:11	0	0	4,406295	1,7325	9,3708	-0,073	86,164	0	1012,68	6,4	8,6	8,5	1	1	1	1	1	1	1	1	1	0	1	-5,778717	273,903976	313,35773	0
15.01.2021	08:34:12	0	0	4,632259	1,87425	10,8108	-0,079	86,169	0	1012,66	6,4	8,6	8,5	1	1	1	1	1	1	1	1	1	0	1	-6,8358	273,849396	312,046351	0
15.01.2021	08:34:13	0	0	2,711566	2,03025	10,8144	-0,075	86,19	0	1012,7	6,4	8,6	8,5	1	1	1	1	1	1	1	1	1	0	1	-6,976744	273,868555	311,994655	0
15.01.2021	08:34:14	0	0,118976	3,389458	2,136	9,7344	-0,083	86,177	0	1012,64	6,4	8,6	8,5	1	1	1	1	1	1	1	1	1	0	1	-5,21494	273,777352	313,331779	0
15.01.2021	08:34:15	0	0	2,711566	2,14875	8,262	-0,081	86,173	0	1012,58	6,4	8,6	8,5	1	1	1	1	1	1	1	1	1	0	1	-3,523608	273,853816	315,379129	0
15.01.2021	08:34:16	0	0	2,598584	2,1585	4,0824	-0,075	86,168	0	1012,62	6,4	8,6	8,5	1	1	1	1	1	1	1	1	1	0	1	-7,610994	273,921711	311,608116	0
15.01.2021	08:34:17	0	0,237952	3,050548	2,094	4,4676	-0,077	86,17	0	1012,64	6,4	8,6	8,3	1	1	1	1	1	1	1	1	1	0	1	-2,959831	273,824371	315,805773	0
15.01.2021	08:34:18	0	0	2,93753	2,013	6,4332	-0,08	86,162	0	1012,68	6,4	8,6	8,5	1	1	1	1	1	1	1	1	1	0	1	-2,466526	273,903976	316,669922	0
15.01.2021	08:34:19	0	0,356928	3,163494	1,85925	7,2144	-0,081	86,163	0	1012,6	6,4	8,6	8,5	1	1	1	1	1	1	1	1	1	0	1	-7,892882	273,797909	310,749519	0
15.01.2021	08:34:20	0	0	3,615465	1,71	15,03	-0,078	86,185	0	1012,7	6,4	8,6	8,3	1	1	1	1	1	1	1	1	1	0	1	-7,681466	273,899545	311,43433	0
15.01.2021	08:34:21	0	0,475904	4,632259	1,59075	17,226	-0,081	86,176	0	1012,56	6,4	8,6	8,5	1	1	1	1	1	1	1	1	1	0	1	-3,312192	273,844978	315,549379	0
15.01.2021	08:34:22	0	0	4,519277	1,46325	19,5192	-0,077	86,185	0	1012,64	6,4	8,6	8,5	1	1	1	1	1	1	1	1	1	0	1	-9,372798	273,896591	309,729234	0
15.01.2021	08:34:23	0	0,356928	3,50244	1,482	15,4044	-0,075	86,187	0	1012,72	6,4	8,6	8,5	1	1	1	1	1	1	1	1	1	0	1	-6,8358	273,771483	311,683604	0
15.01.2021	08:34:24	0	0,356928	4,858223	1,491	16,4556	-0,078	86,171	0	1012,68	6,4	8,6	8,5	1	1	1	1	1	1	1	1	1	0	1	-5,990134	273,805256	312,68647	0
15.01.2021	08:34:25	0	0	2,93753	1,54575	16,0992	-0,08	86,177	0	1012,6	6,4	8,6	8,5	1	1	1	1	1	1	1	1	1	0	1	-5,567301	273,742164	312,815678	0
15.01.2021	08:34:26	0	0,356928	2,93753	1,5435	13,914	-0,071	86,192	0	1012,72	6,4	8,6	8,5	1	1	1	1	1	1	1	1	1	0	1	-4,862579	273,770016	313,649997	0
15.01.2021	08:34:27	0	0	4,067349	1,545	13,9248	-0,078	86,18	0	1012,62	6,4	8,6	8,5	1	1	1	1	1	1	1	1	1	0	1	-5,637773	273,898068	313,471141	0
15.01.2021	08:34:28	0	0,237952	3,163494	1,55475	16,47	-0,079	86,18	0	1012,76	6,4	8,6	8,5	1	1	1	1	1	1	1	1	1	0	1	-2,466526	273,875929	316,539228	0
15.01.2021	08:34:29	0	0,118976	3,163494	1,56	12,852	-0,077	86,189	0	1012,74	6,4	8,6	8,5	1	1	1	1	1	1	1	1	1	0	1	-8,597604	273,775885	309,942285	0
15.01.2021	08:34:30	0	0,356928	5,197168	1,61925	12,8412	-0,075	86,185	0	1012,78	6,4	8,6	8,5	1	1	1	1	1	1	1	1	1	0	1	-6,483439	273,898068	312,625475	0
15.01.2021	08:34:31	0	0	2,711566	1,71075	6,4296	-0,074	86,181	0	1012,6	6,4	8,6	8,5	1	1	1	1	1	1	1	1	1	0	1	-9,513742	273,749489	308,903319	0
15.01.2021	08:34:32	0	0,356928	3,389458	1,68975	7,1604	-0,076	86,186	0	1012,48	6,4	8,6	8,5	1	1	1	1	1	1	1	1	1	0	1	-1,338971	273,884782	317,708029	0
15.01.2021	08:34:33	0	0	2,146656	1,63275	20,2824	-0,076	86,186	0	1012,68	6,4	8,6	8,5	1	1	1	1	1	1	1	1	1	0	1	-3,59408	273,77882	314,959469	0
15.01.2021	08:34:34	0	0	2,824548	1,61475	11,7036	-0,076	86,188	0	1012,72	6,4	8,6	8,5	1	1	1	1	1	1	1	1	1	0	1	-8,033827	273,728984	310,287843	0
15.01.2021	08:34:35	0	0	4,519304	1,602	16,1028	-0,077	86,189	0	1012,68	6,4	8,6	8,4	1	1	1	1	1	1	1	1	1	0	1	-3,100775	273,8229	315,657979	0
15.01.2021	08:34:36	0	0,237952	3,841385	1,5915	12,4704	-0,077	86,186	0	1012,54	6,4	8,6	8,5	1	1	1	1	1	1	1	1	1	0	1	-7,047216	273,887734	312,013538	0
15.01.2021	08:34:37	0	0,237952	4,180381	1,59975	8,3304	-0,08	86,198	0	1012,8	6,4	8,6	8,3	1	1	1	1	1	1	1	1	1	0	1	-8,949965	273,797909	309,692437	0
15.01.2021	08:34:38	0	0	4,406295	1,6575	12,4596	-0,077	86,195	0	1012,66	6,4	8,6	8,5	1	1	1	1	1	1	1	1	1	0	1	-6,342495	273,890686	312,732016	0
15.01.2021	08:34:39	0	0	2,824565	1,641	19,5336	-0,083	86,185	0	1012,54	6,4	8,6	8,4	1	1	1	1	1	1	1	1	1	0	1	-8,174771	273,781755	310,392441	0
15.01.2021	08:34:40	0	0	4,745241	1,5795	25,1172	-0,084	86,186	0	1012,58	6,4	8,5	8,5	1	1	1	1	1	1	1	1	1	0	1	-8,174771	273,896591	310,927261	0
15.01.2021	08:34:41	0	0,475904	2,93753	1,515	29,5668	-0,082	86,189	0	1012,66	6,4	8,6	8,5	1	1	1	1	1	1	1	1	1	0	1	-5,003524	273,780288	313,556856	0
15.01.2021	08:34:42	0	0	3,050512	1,431	29,1168	-0,075	86,183	0	1012,54	6,4	8,6	8,5	1	1	1	1	1	1	1	1	1	0	1	-3,875969	273,893638	315,212301	0
15.01.2021	08:34:43	0	0,237952	2,598584	1,38975	23,2128	-0,081	86,194	0	1012,7	6,4	8,6	8,5	1	1	1	1	1	1	1	1	1	0	1	-8,597604	273,733377	309,744496	0
15.01.2021	08:34:44	0	0	4,858223	1,3365	7,1316	-0,078	86,198	0	1012,68	6,4	8,6	8,5	1	1	1	1	1	1	1	1	1	0	1	-4,651163	273,739234	313,718187	0
15.01.2021	08:34:45	0	0	4,745241	1,26525	3,3912	-0,083	86,187	0	1012,7	6,4	8,6	8,5	1	1	1	1	1	1	1	1	1	0	1	-6,8358	273,908408	312,321304	0
15.01.2021	08:34:46	0	0,237952	2,711566	1,293	19,9152	-0,083	86,183	0	1012,66	6,4	8,6	8,5	1	1	1	1	1	1	1	1	1	0	1	-3,100775	273,783223	315,473269	0
15.01.2021	08:34:47	0	0,237952	3,163513	1,28925	19,5336	-0,081	86,191	0	1012,66	6,4	8,6	8,4	1	1	1	1	1	1	1	1	1	0	1	-8,597604	273,834672	310,215968	0
15.01.2021	08:34:48	0	0	3,50244	1,32	23,5944	-0,08	86,186	0	1012,78	6,4	8,6	8,5	1	1	1	1	1	1	1	1	1	0	1	-7,963354	273,733377	310,378746	0
15.01.2021	08:34:49	0	0,118976	4,293313	1,36875	24,3288	-0,075	86,197	0	1012,76	6,4	8,6	8,5	1	1	1	1	1	1	1	1	1	0	1	-4,510218	273,774418	314,022841	0
15.01.2021	08:34:50	0	0	4,406295	1,46025	23,958	-0,08	86,188	0	1012,72	6,4	8,6	8,5	1	1	1	1	1	1	1	1	1	0	1	-7,399577	273,88921	311,668055	0
15.01.2021	08:34:51	0	0,237952	3,163494	1,52775	30,3156	-0,082	86,183	0	1012,56	6,4	8,6	8,5	1	1	1	1	1	1	1	1	1	0	1	-2,043693	273,750955	316,380187	0
15.01.2021	08:34:52	0	0	3,163494	1,4655	41,4576	-0,077	86,196	0	1012,82	6,4	8,6	8,5	1	1	1	1	1	1	1	1	1	0	1	-3,100775	273,774418	315,432285	0
15.01.2021	08:34:53	0	0	3,954367	1,41075	31,4028	-0,078	86,194	0	1012,76	6,4	8,6	8,5	1	1	1	1	1	1	1	1	1	0	1	-10,147992	273,909886	309,016	0
15.01.2021	08:34:54	0	0	2,711566	1,44525	31,4028	-0,077	86,189	0	1012,62	6,4	8,6	8,5	1	1	1	1	1	1	1	1	1	0	1	-6,624383	273,784691	311,956493	0
15.01.2021	08:34:55	0	0,118976	3,841385	1,43775	12,1032	-0,08	86,192	0	1012,7	6,4	8,6	8,5	1	1	1	1	1	1	1	1	1	0	1	-5,637773	273,890686	313,436738	0
15.01.2021	08:34:56	0	0,237954	2,711566	1,4505	11,7144	-0,082	86,188	0	1012,62	6,4	8,5	8,5	1	1	1	1	1	1	1	1	1	0	1	-9,866103	273,77882	308,687446	0
15.01.2021	08:34:57	0	0,237952	3,502461	1,422	20,2752	-0,079	86,2	0	1012,62	6,4	8,6	8,4	1	1	1	1	1	1	1	1	1	0	1	-8,949965	273,898068	310,158949	0
15.01.2021	08:34:58	0	0,475904	4,632259	1,40475	16,4772	-0,083	86,19	0	1012,72	6,4	8,6	8,5	1	1	1	1	1	1	1	1	1	0	1	-10,500352	273,864132	308,450441	0
15.01.2021	08:34:59	0	0,237952	3,389458	1,422	23,5944	-0,081	86,196	0	1012,68	6,4	8,6	8,5	1	1	1	1	1	1	1	1	1	0	1	-5,21494	273,884782	313,83206	0
15.01.2021	08:35:00	0	0	2,93753	1,5045	10,4256	-0,08	86,187	0	1012,94	6,4	8,5	8,5	1	1	1	1	1	1	1	1	1	0	1	-8,104299	273,886258	310,949578	0
15.01.2021	08:35:01	0	0	2,93753	1,5045	10,4256	-0,08	86,187	0	1012,94	6,4	8,5	8,5	1	1	1	1	1	1	1	1	1	0	1	-8,104299	273,886258	310,949578	0
15.01.2021	08:35:02	0	0,475904	3,50244	1,52025	23,5908	-0,08	86,193	0	1012,6	6,4	8,6	8,5	1	1	1	1	1	1	1	1	1	0	1	-6,412967	273,874454	312,585915	0
15.01.2021	08:35:03	0	0	3,389458	1,53	13,1688	-0,081	86,191	0	1012,76	6,4	8,6	8,5	1	1	1	1	1	1	1	1	1	0	1	-9,090909	273,789096	309,51047	0
15.01.2021	08:35:04	0	0,118976	4,858223	1,52175	32,1516	-0,078	86,189	0	1012,66	6,4	8,6	8,5	1	1	1	1	1	1	1	1	1	0	1	-3,59408	273,726057	314,713972	0
15.01.2021	08:35:05	0	0,59488	3,502461	1,57125	21,0096	-0,081	86,185	0	1012,68	6,4	8,6	8,4	1	1	1	1	1	1	1	1	1	0	1	-8,597604	273,78616	309,990106	0
15.01.2021	08:35:06	0	0,118976	3,50244	1,6245	26,9172	-0,08	86,183	0	1012,66	6,4	8,6	8,5	1	1	1	1	1	1	1	1	1	0	1	-7,82241	273,911364	311,348469	0
15.01.2021	08:35:07	0	0,237952	3,276476	1,62075	26,5212	-0,078	86,184	0	1012,6	6,4	8,6	8,5	1	1	1	1	1	1	1	1	1	0	1	-3,312192	273,783223	315,261852	0
15.01.2021	08:35:08	0	0	4,519304	1,64775	29,1024	-0,084	86,183	0	1012,7	6,4	8,6	8,4	1	1	1	1	1	1	1	1	1	0	1	-4,721635	273,728984	313,600034	0
15.01.2021	08:35:09	0	0,356928	2,824548	1,7235	9	-0,084	86,191	0	1012,7	6,4	8,6	8,5	1	1	1	1	1	1	1	1	1	0	1	-2,466526	273,758284	315,991455	0
15.01.2021	08:35:10	0	0,237952	2,5986	1,74825	16,8516	-0,076	86,174	0	1012,6	6,4	8,6	8,4	1	1	1	1	1	1	1	1	1	0	1	-6,765328	273,764149	311,719946	0
15.01.2021	08:35:11	0	0,594884	4,858223	1,75125	22,0788	-0,087	86,173	0	1012,62	6,4	8,5	8,5	1	1	1	1	1	1	1	1	1	0	1	-5,144468	273,871505	313,840671	0
15.01.2021	08:35:12	0	0,237952	4,293313	1,734	10,0656	-0,087	86,177	0	1012,58	6,4	8,6	8,5	1	1	1	1	1	1	1	1	1	0	1	-3,664553	273,821429	315,087352	0
15.01.2021	08:35:13	0	0,237952	2,93753	1,83075	18,5688	-0,08	86,174	0	1012,72	6,4	8,6	8,5	1	1	1	1	1	1	1	1	1	0	1	-7,047216	273,734841	311,301695	0
15.01.2021	08:35:14	0	0,356928	4,745298	1,86825	40,6008	-0,084	86,161	0	1012,56	6,4	8,6	8,3	1	1	1	1	1	1	1	1	1	0	1	-7,399577	273,765616	311,092521	0
15.01.2021	08:35:15	0	0,237952	4,632259	1,76325	23,5944	-0,08	86,182	0	1012,66	6,4	8,6	8,5	1	1	1	1	1	1	1	1	1	0	1	-5,144468	273,831728	313,655396	0
15.01.2021	08:35:16	0	0,475904	5,31015	1,7085	25,4016	-0,084	86,177	0	1012,74	6,4	8,6	8,5	1	1	1	1	1	1	1	1	1	0	1	-6,624383	273,883306	312,415741	0
15.01.2021	08:35:17	0	0	3,728403	1,5795	33,6384	-0,076	86,173	0	1012,74	6,4	8,6	8,5	1	1	1	1	1	1	1	1	1	0	1	-9,302326	273,780288	309,258054	0
15.01.2021	08:35:18	0	0	2,146669	1,5465	23,9652	-0,088	86,171	0	1012,5	6,4	8,6	8,4	1	1	1	1	1	1	1	1	1	0	1	-5,355884	273,733377	312,986216	0
15.01.2021	08:35:19	0	0	2,93753	1,5405	27,666	-0,079	86,186	0	1012,66	6,4	8,6	8,5	1	1	1	1	1	1	1	1	1	0	1	-8,45666	273,781755	310,110552	0
15.01.2021	08:35:20	0	0,237952	3,389478	1,584	28,3536	-0,081	86,184	0	1012,76	6,4	8,6	8,4	1	1	1	1	1	1	1	1	1	0	1	-5,708245	273,734841	312,640666	0
15.01.2021	08:35:21	0	0,475904	3,276495	1,5855	31,0032	-0,083	86,188	0	1012,7	6,4	8,6	8,4	1	1	1	1	1	1	1	1	1	0	1	-1,479915	273,758284	316,978066	0
15.01.2021	08:35:22	0	0	3,276476	1,602	25,0344	-0,084	86,17	0	1012,66	6,4	8,5	8,5	1	1	1	1	1	1	1	1	1	0	1	-7,188161	273,730448	311,140318	0
15.01.2021	08:35:23	0	0,118976	3,163513	1,63425	29,934	-0,078	86,174	0	1012,58	6,4	8,6	8,4	1	1	1	1	1	1	1	1	1	0	1	-8,104299	273,755352	310,34004	0
15.01.2021	08:35:24	0	0,35693	2,93753	1,71225	31,3884	-0,082	86,189	0	1012,66	6,4	8,5	8,5	1	1	1	1	1	1	1	1	1	0	1	-3,100775	273,821429	315,65113	0
15.01.2021	08:35:25	0	0	4,745241	1,719	26,8956	-0,077	86,185	0	1012,48	6,4	8,5	8,5	1	1	1	1	1	1	1	1	1	0	1	-7,117689	273,883306	311,922436	0
15.01.2021	08:35:26	0	0,356928	3,841385	1,6515	36,2376	-0,076	86,183	0	1012,64	6,4	8,6	8,5	1	1	1	1	1	1	1	1	1	0	1	-6,624383	273,75975	311,84042	0
15.01.2021	08:35:27	0	0,237952	3,615443	1,527	20,9988	-0,079	86,194	0	1012,74	6,4	8,6	8,4	1	1	1	1	1	1	1	1	1	0	1	-10,007047	273,877405	309,005579	0
15.01.2021	08:35:28	0	0,475904	4,519277	1,50675	9,342	-0,08	86,184	0	1012,68	6,4	8,6	8,5	1	1	1	1	1	1	1	1	1	0	1	-5,496829	273,746559	312,906597	0
15.01.2021	08:35:29	0	0	4,858223	1,425	17,6976	-0,084	86,193	0	1012,64	6,4	8,6	8,5	1	1	1	1	1	1	1	1	1	0	1	-5,285412	273,818487	313,452796	0
15.01.2021	08:35:30	0	0	4,745241	1,386	20,2968	-0,081	86,181	0	1012,62	6,4	8,6	8,5	1	1	1	1	1	1	1	1	1	0	1	-4,721635	273,736305	313,634089	0
15.01.2021	08:35:31	0	0	4,180331	1,308	4,4676	-0,08	86,18	0	1012,66	6,4	8,6	8,5	1	1	1	1	1	1	1	1	1	0	1	-5,919662	273,884782	313,127339	0
15.01.2021	08:35:32	0	0	4,406295	1,37325	6,4152	-0,079	86,196	0	1012,62	6,4	8,5	8,5	1	1	1	1	1	1	1	1	1	0	1	-5,778717	273,774418	312,754342	0
15.01.2021	08:35:33	0	0,118976	3,276476	1,58625	0,1116	-0,087	86,182	0	1012,74	6,4	8,6	8,5	1	1	1	1	1	1	1	1	1	0	1	-7,610994	273,677818	310,472734	0
15.01.2021	08:35:34	0	0	2,824548	2,03175	10,4508	-0,082	86,191	0	1012,7	6,4	8,6	8,5	1	1	1	1	1	1	1	1	1	0	1	-4,369274	273,728984	313,952395	0
15.01.2021	08:35:35	0	0,237952	3,728403	2,37675	358,3908	-0,082	86,173	0	1012,72	6,4	8,6	8,5	1	1	1	1	1	1	1	1	1	0	1	-2,255109	273,775885	316,28478	0
15.01.2021	08:35:36	0	0	3,728403	2,658	12,1104	-0,082	86,187	0	1012,66	6,4	8,6	8,5	1	1	1	1	1	1	1	1	1	0	1	-3,382664	273,884782	315,664337	0
15.01.2021	08:35:37	0	0,237952	4,180356	2,658	14,2992	-0,081	86,197	0	1012,66	6,4	8,6	8,4	1	1	1	1	1	1	1	1	1	0	1	-6,765328	273,883306	312,274797	0
15.01.2021	08:35:38	0	0	3,050512	2,5065	14,6448	-0,089	86,185	0	1012,62	6,4	8,6	8,5	1	1	1	1	1	1	1	1	1	0	1	-4,087385	273,780288	314,472995	0
15.01.2021	08:35:39	0	0	3,389478	2,499	4,4604	-0,08	86,176	0	1012,64	6,4	8,6	8,4	1	1	1	1	1	1	1	1	1	0	1	-2,466526	273,771483	316,052878	0
15.01.2021	08:35:40	0	0	4,519304	2,42775	12,1068	-0,081	86,192	0	1012,64	6,4	8,6	8,4	1	1	1	1	1	1	1	1	1	0	1	-2,889359	273,862658	316,054568	0
15.01.2021	08:35:41	0	0,59488	4,519277	2,37525	8,9784	-0,08	86,196	0	1012,62	6,4	8,6	8,5	1	1	1	1	1	1	1	1	1	0	1	-6,060606	273,868555	312,910793	0
15.01.2021	08:35:42	0	0,356928	4,293313	2,187	32,886	-0,087	86,191	0	1012,6	6,4	8,6	8,5	1	1	1	1	1	1	1	1	1	0	1	-5,355884	273,775885	313,184004	0
15.01.2021	08:35:43	0	0	2,93753	1,98375	21,0024	-0,083	86,184	0	1012,74	6,4	8,6	8,5	1	1	1	1	1	1	1	1	1	0	1	-1,057082	273,711426	317,182921	0
15.01.2021	08:35:44	0	0	3,163494	1,72575	29,5776	-0,084	86,192	0	1012,66	6,4	8,6	8,5	1	1	1	1	1	1	1	1	1	0	1	-5,144468	273,877405	313,868159	0
15.01.2021	08:35:45	0	0	4,858252	1,542	12,1068	-0,078	86,197	0	1012,8	6,4	8,6	8,4	1	1	1	1	1	1	1	1	1	0	1	-0	273,861184	318,93706	0
15.01.2021	08:35:46	0	0	2,93753	1,401	30,3228	-0,082	86,214	0	1012,88	6,4	8,5	8,5	1	1	1	1	1	1	1	1	1	0	1	-3,875969	273,770016	314,636607	0
15.01.2021	08:35:47	0	0,475904	3,728426	1,3845	13,9392	-0,084	86,197	0	1012,7	6,4	8,6	8,4	1	1	1	1	1	1	1	1	1	0	1	-2,748414	273,748024	315,661829	0
15.01.2021	08:35:48	0	0,237952	3,050512	1,284	22,8312	-0,086	86,217	0	1012,52	6,4	8,6	8,5	1	1	1	1	1	1	1	1	1	0	1	-2,255109	273,824371	316,510495	0
15.01.2021	08:35:49	0	0,237952	2,598584	1,254	7,1352	-0,085	86,211	0	1012,44	6,4	8,6	8,5	1	1	1	1	1	1	1	1	1	0	1	-3,171247	273,88921	315,896385	0
15.01.2021	08:35:50	0	0	3,163513	1,4775	3,0204	-0,081	86,216	0	1012,78	6,4	8,6	8,4	1	1	1	1	1	1	1	1	1	0	1	-2,536998	273,721667	315,750633	0
15.01.2021	08:35:51	0	0,237952	4,067349	1,6395	358,0776	-0,085	86,191	0	1012,64	6,4	8,6	8,5	1	1	1	1	1	1	1	1	1	0	1	-5,84919	273,853816	313,053547	0
15.01.2021	08:35:52	0	0,59488	4,745269	1,57875	4,8384	-0,083	86,202	0	1012,68	6,4	8,6	8,4	1	1	1	1	1	1	1	1	1	0	1	-3,59408	273,846451	315,27435	0
15.01.2021	08:35:53	0	0	2,711582	1,5705	18,5472	-0,088	86,203	0	1012,46	6,4	8,6	8,4	1	1	1	1	1	1	1	1	1	0	1	-4,862579	273,765616	313,629519	0
15.01.2021	08:35:54	0	0,118976	3,276515	1,74075	1,9944	-0,087	86,22	0	1012,54	6,4	8,6	8,3	1	1	1	1	1	1	1	1	1	0	1	-2,677942	273,731912	315,657347	0
15.01.2021	08:35:55	0	0,475904	4,519277	1,95825	357,2856	-0,09	86,209	0	1012,52	6,4	8,6	8,5	1	1	1	1	1	1	1	1	1	0	1	-3,453136	273,842033	315,394717	0
15.01.2021	08:35:56	0	0,475907	4,632287	2,1465	14,3064	-0,083	86,209	0	1012,68	6,4	8,5	8,4	1	1	1	1	1	1	1	1	1	0	1	-8,527132	273,8332	310,279586	0
15.01.2021	08:35:57	0	0,237952	3,050512	2,1465	15,4008	-0,085	86,221	0	1012,76	6,4	8,6	8,5	1	1	1	1	1	1	1	1	1	0	1	-4,862579	273,825842	313,909875	0
15.01.2021	08:35:58	0	0	3,050512	2,0805	12,9384	-0,091	86,209	0	1012,66	6,4	8,6	8,5	1	1	1	1	1	1	1	1	1	0	1	-1,832276	273,714352	316,421332	0
15.01.2021	08:35:59	0	0,356928	4,406321	1,95	29,106	-0,084	86,218	0	1012,66	6,4	8,6	8,4	1	1	1	1	1	1	1	1	1	0	1	-7,470049	273,75242	310,960649	0
15.01.2021	08:36:00	0	0,59488	3,728403	1,7175	33,318	-0,085	86,216	0	1012,76	6,4	8,6	8,5	1	1	1	1	1	1	1	1	1	0	1	-4,016913	273,865607	314,940748	0
15.01.2021	08:36:01	0	0,59488	3,728403	1,7175	33,318	-0,085	86,216	0	1012,76	6,4	8,6	8,5	1	1	1	1	1	1	1	1	1	0	1	-7,117689	273,731912	311,217601	0
15.01.2021	08:36:02	0	0,237952	4,180331	1,69875	31,77	-0,086	86,211	0	1012,68	6,4	8,6	8,5	1	1	1	1	1	1	1	1	1	0	1	-9,231853	273,88921	309,835779	0
15.01.2021	08:36:03	0	0,237952	3,841408	1,581	37,296	-0,078	86,22	0	1012,74	6,4	8,6	8,4	1	1	1	1	1	1	1	1	1	0	1	-2,677942	273,765616	315,814156	0
15.01.2021	08:36:04	0	0,237952	3,50244	1,45275	33,2496	-0,084	86,211	0	1012,64	6,4	8,6	8,5	1	1	1	1	1	1	1	1	1	0	1	-6,131078	273,707039	312,088522	0
15.01.2021	08:36:05	0	0,475904	4,180331	1,43625	47,736	-0,087	86,213	0	1012,66	6,4	8,6	8,5	1	1	1	1	1	1	1	1	1	0	1	-5,567301	273,836144	313,253126	0
15.01.2021	08:36:06	0	0,237952	3,389478	1,4865	24,336	-0,085	86,215	0	1012,58	6,4	8,6	8,4	1	1	1	1	1	1	1	1	1	0	1	-4,580691	273,712889	313,666114	0
15.01.2021	08:36:07	0	0	4,293313	1,69425	22,8348	-0,082	86,221	0	1012,7	6,4	8,6	8,5	1	1	1	1	1	1	1	1	1	0	1	-7,047216	273,8332	311,759501	0
15.01.2021	08:36:08	0	0	4,971205	1,86825	27,2736	-0,085	86,212	0	1012,66	6,4	8,6	8,5	1	1	1	1	1	1	1	1	1	0	1	-6,624383	273,746559	311,779043	0
15.01.2021	08:36:09	0	0,237952	2,711566	1,92075	40,6152	-0,084	86,204	0	1012,74	6,4	8,6	8,5	1	1	1	1	1	1	1	1	1	0	1	-4,510218	273,712889	313,736587	0
15.01.2021	08:36:10	0	0,713856	3,954391	1,89225	32,148	-0,084	86,216	0	1012,66	6,4	8,6	8,4	1	1	1	1	1	1	1	1	1	0	1	-7,540521	273,767082	310,958402	0
15.01.2021	08:36:11	0	0,118976	4,180331	1,7535	17,2224	-0,086	86,217	0	1012,68	6,4	8,6	8,5	1	1	1	1	1	1	1	1	1	0	1	-3,946441	273,853816	314,956296	0
15.01.2021	08:36:12	0	0	2,824548	1,695	24,7212	-0,085	86,209	0	1012,6	6,4	8,6	8,5	1	1	1	1	1	1	1	1	1	0	1	-7,82241	273,708501	310,403991	0
15.01.2021	08:36:13	0	0,475904	4,745269	1,6875	24,3432	-0,088	86,228	0	1012,68	6,4	8,6	8,4	1	1	1	1	1	1	1	1	1	0	1	-2,60747	273,77882	315,946079	0
15.01.2021	08:36:14	0	0,118976	3,05053	1,725	42,2172	-0,09	86,218	0	1012,56	6,4	8,6	8,4	1	1	1	1	1	1	1	1	1	0	1	-0	273,726057	318,308052	0
15.01.2021	08:36:15	0	0,59488	4,745241	1,761	31,0176	-0,084	86,212	0	1012,66	6,4	8,6	8,5	1	1	1	1	1	1	1	1	1	0	1	-8,527132	273,734841	309,82178	0
15.01.2021	08:36:16	0	0	4,180356	1,80525	23,58	-0,086	86,218	0	1012,58	6,4	8,6	8,4	1	1	1	1	1	1	1	1	1	0	1	-5,990134	273,812606	312,720688	0
15.01.2021	08:36:17	0	0	3,615443	1,803	27,6516	-0,083	86,204	0	1012,54	6,4	8,6	8,4	1	1	1	1	1	1	1	1	1	0	1	-6,8358	273,858237	312,087529	0
15.01.2021	08:36:18	0	0,237952	4,858223	1,884	23,22	-0,087	86,225	0	1012,78	6,4	8,6	8,5	1	1	1	1	1	1	1	1	1	0	1	-10,570825	273,890686	308,503687	0
15.01.2021	08:36:19	0	0,118976	5,197168	2,20875	14,2992	-0,09	86,218	0	1012,64	6,4	8,6	8,5	1	1	1	1	1	1	1	1	1	0	1	-4,157858	273,800847	314,498223	0
15.01.2021	08:36:20	0	0,356928	2,937548	2,39775	22,176	-0,085	86,22	0	1012,76	6,4	8,6	8,4	1	1	1	1	1	1	1	1	1	0	1	-8,668076	273,872979	310,323934	0
15.01.2021	08:36:21	0	0,356928	3,163494	2,56125	30,33	-0,083	86,21	0	1012,6	6,4	8,6	8,5	1	1	1	1	1	1	1	1	1	0	1	-6,624383	273,742164	311,758595	0
15.01.2021	08:36:22	0	0,59488	4,858252	2,565	28,7208	-0,084	86,216	0	1012,62	6,4	8,6	8,4	1	1	1	1	1	1	1	1	1	0	1	-4,792107	273,765616	313,699991	0
15.01.2021	08:36:23	0	0,237952	3,050512	2,355	6,8184	-0,083	86,231	0	1012,74	6,4	8,6	8,5	1	1	1	1	1	1	1	1	1	0	1	-0	273,877405	319,012627	0
15.01.2021	08:36:24	0	0,118976	4,293313	2,139	2,3004	-0,085	86,223	0	1012,78	6,4	8,6	8,5	1	1	1	1	1	1	1	1	1	0	1	-8,033827	273,749489	310,383235	0
15.01.2021	08:36:25	0	0	3,050512	2,118	355,068	-0,086	86,219	0	1012,66	6,4	8,6	8,5	1	1	1	1	1	1	1	1	1	0	1	-8,668076	273,758284	309,789905	0
15.01.2021	08:36:26	0	0,237952	4,632287	2,20425	1,9296	-0,086	86,221	0	1012,7	6,4	8,6	8,4	1	1	1	1	1	1	1	1	1	0	1	-6,20155	273,824371	312,564054	0
15.01.2021	08:36:27	0	0	3,163494	2,27775	358,4484	-0,082	86,21	0	1012,86	6,4	8,6	8,5	1	1	1	1	1	1	1	1	1	0	1	-2,466526	273,850869	316,422487	0
15.01.2021	08:36:28	0	0,59488	4,067374	2,478	349,8876	-0,085	86,211	0	1012,64	6,4	8,6	8,4	1	1	1	1	1	1	1	1	1	0	1	-3,171247	273,85971	315,758947	0
15.01.2021	08:36:29	0	0,118976	3,615443	2,6385	358,4664	-0,084	86,219	0	1012,72	6,4	8,6	8,4	1	1	1	1	1	1	1	1	1	0	1	-2,396054	273,728984	315,925616	0
15.01.2021	08:36:30	0	0,118976	5,084186	2,48475	352,476	-0,087	86,221	0	1012,6	6,4	8,6	8,5	1	1	1	1	1	1	1	1	1	0	1	-10,359408	273,871505	308,625731	0
15.01.2021	08:36:31	0	0	2,598584	2,21925	1,5408	-0,091	86,214	0	1012,66	6,4	8,6	8,5	1	1	1	1	1	1	1	1	1	0	1	-4,439746	273,708501	313,786654	0
15.01.2021	08:36:32	0	0,118976	4,632259	2,06625	12,456	-0,083	86,221	0	1012,6	6,4	8,6	8,5	1	1	1	1	1	1	1	1	1	0	1	-6,906272	273,850869	311,98274	0
15.01.2021	08:36:33	0	0,118976	3,728403	1,82925	4,8348	-0,087	86,212	0	1012,66	6,4	8,6	8,5	1	1	1	1	1	1	1	1	1	0	1	-4,792107	273,749489	313,624954	0
15.01.2021	08:36:34	0	0,118976	3,615421	1,63125	15,4008	-0,091	86,217	0	1012,62	6,4	8,6	8,5	1	1	1	1	1	1	1	1	1	0	1	-6,765328	273,714352	311,48828	0
15.01.2021	08:36:35	0	0,59488	4,858223	1,53525	15,4008	-0,088	86,222	0	1012,74	6,4	8,6	8,5	1	1	1	1	1	1	1	1	1	0	1	-6,412967	273,830256	312,380044	0
15.01.2021	08:36:36	0	0,237952	3,389478	1,599	14,6484	-0,09	86,228	0	1012,62	6,4	8,6	8,4	1	1	1	1	1	1	1	1	1	0	1	-2,677942	273,765616	315,814156	0
15.01.2021	08:36:37	0	0,118976	4,180356	2,03475	22,4604	-0,083	86,218	0	1012,82	6,4	8,6	8,4	1	1	1	1	1	1	1	1	1	0	1	-3,453136	273,715814	314,807275	0
15.01.2021	08:36:38	0	0,237952	4,858223	2,35275	27,0252	-0,089	86,234	0	1012,52	6,4	8,6	8,5	1	1	1	1	1	1	1	1	1	0	1	-4,510218	273,819958	314,234838	0
15.01.2021	08:36:39	0	0	2,824548	2,3925	18,846	-0,083	86,219	0	1012,74	6,4	8,6	8,5	1	1	1	1	1	1	1	1	1	0	1	-5,990134	273,874454	313,008748	0
15.01.2021	08:36:40	0	0,59488	3,728403	2,28675	19,5228	-0,082	86,23	0	1012,68	6,4	8,6	8,5	1	1	1	1	1	1	1	1	1	0	1	-6,553911	273,864132	312,396882	0
15.01.2021	08:36:41	0	0	4,067349	2,52675	0	-0,09	86,231	0	1012,6	6,4	8,6	8,5	1	1	1	1	1	1	1	1	1	0	1	-5,637773	273,736305	312,717951	0
15.01.2021	08:36:42	0	0,356928	5,084186	2,53725	21,006	-0,085	86,23	0	1012,58	6,4	8,6	8,5	1	1	1	1	1	1	1	1	1	0	1	-3,59408	273,87003	315,384188	0
15.01.2021	08:36:43	0	0,118976	4,519304	2,7225	30,7008	-0,083	86,227	0	1012,6	6,4	8,6	8,4	1	1	1	1	1	1	1	1	1	0	1	-3,171247	273,765616	315,320851	0
15.01.2021	08:36:44	0	0,237952	2,824548	2,652	34,7184	-0,083	86,238	0	1012,8	6,4	8,6	8,5	1	1	1	1	1	1	1	1	1	0	1	-5,003524	273,875929	314,00223	0
15.01.2021	08:36:45	0	0,713856	4,406295	2,54925	32,8824	-0,088	86,232	0	1012,64	6,4	8,6	8,5	1	1	1	1	1	1	1	1	1	0	1	-1,832276	273,727521	316,482584	0
15.01.2021	08:36:46	0	0	2,937548	2,553	20,6352	-0,087	86,239	0	1012,68	6,4	8,6	8,4	1	1	1	1	1	1	1	1	1	0	1	-4,087385	273,821429	314,664519	0
15.01.2021	08:36:47	0	0,475904	4,632259	2,47425	25,4124	-0,088	86,244	0	1012,58	6,4	8,6	8,5	1	1	1	1	1	1	1	1	1	0	1	-7,188161	273,877405	311,824466	0
15.01.2021	08:36:48	0	0,356928	2,93753	2,39175	28,7208	-0,086	86,249	0	1012,7	6,4	8,6	8,5	1	1	1	1	1	1	1	1	1	0	1	-4,862579	273,799378	313,786661	0
15.01.2021	08:36:49	0	0,356928	4,632287	2,36625	16,164	-0,085	86,246	0	1012,76	6,4	8,6	8,4	1	1	1	1	1	1	1	1	1	0	1	-5,285412	273,87888	313,734088	0
15.01.2021	08:36:50	0	0,356928	4,745269	2,4105	22,086	-0,086	86,237	0	1012,52	6,4	8,6	8,4	1	1	1	1	1	1	1	1	1	0	1	-4,439746	273,743629	313,950048	0
15.01.2021	08:36:51	0	0,237952	3,615443	2,59725	17,2548	-0,087	86,233	0	1012,74	6,4	8,6	8,4	1	1	1	1	1	1	1	1	1	0	1	-4,298802	273,871505	314,686337	0
15.01.2021	08:36:52	0	0,356928	4,067374	2,6535	36,6084	-0,09	86,247	0	1012,68	6,4	8,6	8,4	1	1	1	1	1	1	1	1	1	0	1	-9,584214	273,750955	308,839665	0
15.01.2021	08:36:53	0	0,475904	3,615443	2,51625	24,7248	-0,091	86,247	0	1012,68	6,4	8,6	8,4	1	1	1	1	1	1	1	1	1	0	1	-9,090909	273,861184	309,846151	0
15.01.2021	08:36:54	0	0,237952	3,050512	2,53725	22,464	-0,087	86,246	0	1012,68	6,4	8,6	8,5	1	1	1	1	1	1	1	1	1	0	1	-3,875969	273,746559	314,527457	0
15.01.2021	08:36:55	0	0,356928	3,163513	2,5485	16,1064	-0,094	86,239	0	1012,58	6,4	8,6	8,4	1	1	1	1	1	1	1	1	1	0	1	-7,540521	273,87003	311,437747	0
15.01.2021	08:36:56	0	0	4,180331	2,63925	10,8252	-0,086	86,239	0	1012,7	6,4	8,5	8,5	1	1	1	1	1	1	1	1	1	0	1	-5,355884	273,884782	313,691116	0
15.01.2021	08:36:57	0	0,237952	2,259638	2,706	10,0476	-0,089	86,259	0	1012,64	6,4	8,6	8,5	1	1	1	1	1	1	1	1	1	0	1	-8,80902	273,806726	309,874426	0
15.01.2021	08:36:58	0	0,118976	2,937548	2,664	19,5408	-0,089	86,252	0	1012,76	6,4	8,6	8,4	1	1	1	1	1	1	1	1	1	0	1	-8,527132	273,867081	310,437398	0
15.01.2021	08:36:59	0	0,475904	3,954391	2,55	4,0788	-0,084	86,251	0	1012,62	6,4	8,6	8,4	1	1	1	1	1	1	1	1	1	0	1	-9,161381	273,806726	309,522065	0
15.01.2021	08:37:00	0	0,59488	3,954367	2,6175	12,078	-0,085	86,257	0	1012,76	6,4	8,6	8,5	1	1	1	1	1	1	1	1	1	0	1	-4,22833	273,843505	314,626382	0
15.01.2021	08:37:01	0	0,59488	3,954367	2,6175	12,078	-0,085	86,257	0	1012,76	6,4	8,6	8,5	1	1	1	1	1	1	1	1	1	0	1	-4,22833	273,843505	314,626382	0
15.01.2021	08:37:02	0	0,356928	2,485617	2,8215	359,9208	-0,082	86,256	0	1012,72	6,4	8,6	8,4	1	1	1	1	1	1	1	1	1	0	1	-5,84919	273,852343	313,046685	0
15.01.2021	08:37:03	0	0,356928	2,937548	2,835	21,0312	-0,087	86,251	0	1012,62	6,4	8,6	8,4	1	1	1	1	1	1	1	1	1	0	1	-7,540521	273,877405	311,472105	0
15.01.2021	08:37:04	0	0,475904	3,841385	2,78025	12,8556	-0,081	86,263	0	1012,7	6,4	8,6	8,5	1	1	1	1	1	1	1	1	1	0	1	-4,157858	273,762683	314,320592	0
15.01.2021	08:37:05	0	0,118977	3,163513	2,643	19,1376	-0,087	86,244	0	1012,54	6,4	8,5	8,4	1	1	1	1	1	1	1	1	1	0	1	-7,047216	273,884782	311,999784	0
15.01.2021	08:37:06	0	0,59488	4,858223	2,66025	39,8556	-0,083	86,264	0	1012,76	6,4	8,6	8,5	1	1	1	1	1	1	1	1	1	0	1	-8,738548	273,749489	309,678513	0
15.01.2021	08:37:07	0	0,237952	4,858223	2,55225	11,1672	-0,091	86,257	0	1012,62	6,4	8,6	8,5	1	1	1	1	1	1	1	1	1	0	1	-9,161381	273,861184	309,775679	0
15.01.2021	08:37:08	0	0	4,293313	2,5095	43,65	-0,085	86,253	0	1012,48	6,4	8,6	8,5	1	1	1	1	1	1	1	1	1	0	1	-6,412967	273,87888	312,606533	0
15.01.2021	08:37:09	0	0,356928	3,502461	2,49	16,1064	-0,094	86,26	0	1012,66	6,4	8,6	8,4	1	1	1	1	1	1	1	1	1	0	1	-6,060606	273,8332	312,746111	0
15.01.2021	08:37:10	0	0,356928	4,632259	2,54025	21,7656	-0,086	86,264	0	1012,66	6,4	8,6	8,5	1	1	1	1	1	1	1	1	1	0	1	-2,536998	273,868555	316,434401	0
15.01.2021	08:37:11	0	0,237952	3,728403	2,5575	33,246	-0,085	86,27	0	1012,86	6,4	8,6	8,5	1	1	1	1	1	1	1	1	1	0	1	-6,342495	273,784691	312,238382	0
15.01.2021	08:37:12	0	0,475904	4,745241	2,4855	19,1448	-0,084	86,269	0	1012,58	6,4	8,6	8,5	1	1	1	1	1	1	1	1	1	0	1	-8,315715	273,715814	309,944696	0
15.01.2021	08:37:13	0	0,475904	4,858223	2,3205	16,4772	-0,095	86,264	0	1012,74	6,4	8,6	8,5	1	1	1	1	1	1	1	1	1	0	1	-4,721635	273,856763	314,194829	0
15.01.2021	08:37:14	0	0	2,937548	2,23275	24,3216	-0,085	86,286	0	1012,82	6,4	8,6	8,4	1	1	1	1	1	1	1	1	1	0	1	-4,792107	273,758284	313,665874	0
15.01.2021	08:37:15	0	0,35693	4,293339	2,2005	18,0936	-0,086	86,284	0	1012,78	6,4	8,5	8,4	1	1	1	1	1	1	1	1	1	0	1	-4,369274	273,88921	314,698358	0
15.01.2021	08:37:16	0	0,237952	3,954391	2,17425	18,4428	-0,087	86,278	0	1012,7	6,4	8,6	8,4	1	1	1	1	1	1	1	1	1	0	1	-6,624383	273,864132	312,32641	0
15.01.2021	08:37:17	0	0,356928	2,824565	2,05425	19,89	-0,088	86,286	0	1012,66	6,4	8,6	8,4	1	1	1	1	1	1	1	1	1	0	1	-7,751938	273,707039	310,467662	0
15.01.2021	08:37:18	0	0,475904	4,632287	2,001	18,4356	-0,086	86,276	0	1012,7	6,4	8,6	8,4	1	1	1	1	1	1	1	1	1	0	1	-6,624383	273,811135	312,079594	0
15.01.2021	08:37:19	0	0	2,711566	2,172	19,8756	-0,083	86,284	0	1012,74	6,4	8,6	8,5	1	1	1	1	1	1	1	1	1	0	1	-9,020437	273,726057	309,287615	0
15.01.2021	08:37:20	0	0,237952	3,276495	2,29725	24,3324	-0,087	86,289	0	1012,72	6,4	8,6	8,4	1	1	1	1	1	1	1	1	1	0	1	-5,496829	273,753886	312,94069	0
15.01.2021	08:37:21	0	0,59488	4,406295	2,23875	15,3972	-0,085	86,282	0	1012,62	6,4	8,6	8,5	1	1	1	1	1	1	1	1	1	0	1	-6,976744	273,881831	312,056505	0
15.01.2021	08:37:22	0	0,594884	3,954367	2,27175	8,6004	-0,084	86,288	0	1012,68	6,4	8,5	8,5	1	1	1	1	1	1	1	1	1	0	1	-4,933051	273,844978	313,928519	0
15.01.2021	08:37:23	0	0,237952	2,711582	2,39625	9,7452	-0,085	86,29	0	1012,54	6,4	8,6	8,4	1	1	1	1	1	1	1	1	1	0	1	-4,157858	273,72313	314,13658	0
15.01.2021	08:37:24	0	0,59488	3,841408	2,5275	18,4284	-0,086	86,293	0	1012,64	6,4	8,6	8,4	1	1	1	1	1	1	1	1	1	0	1	-10,570825	273,77295	307,955407	0
15.01.2021	08:37:25	0	0,475904	2,93753	2,61225	12,4632	-0,095	86,285	0	1012,56	6,4	8,6	8,5	1	1	1	1	1	1	1	1	1	0	1	-3,312192	273,880355	315,714183	0
15.01.2021	08:37:26	0	0,713856	4,745241	2,5845	6,4332	-0,088	86,271	0	1012,62	6,4	8,6	8,5	1	1	1	1	1	1	1	1	1	0	1	-8,668076	273,843505	310,186636	0
15.01.2021	08:37:27	0	0,356928	3,502461	2,391	22,0824	-0,086	86,27	0	1012,5	6,4	8,6	8,4	1	1	1	1	1	1	1	1	1	0	1	-7,258633	273,714352	310,994975	0
15.01.2021	08:37:28	0	0,59488	4,519304	2,29875	19,512	-0,082	86,291	0	1012,66	6,4	8,6	8,4	1	1	1	1	1	1	1	1	1	0	1	-5,496829	273,847923	313,378461	0
15.01.2021	08:37:29	0	0,356928	4,745269	2,25	11,178	-0,084	86,288	0	1012,7	6,4	8,6	8,4	1	1	1	1	1	1	1	1	1	0	1	-5,003524	273,731912	313,331766	0
15.01.2021	08:37:30	0	0,118976	3,05053	2,322	10,8108	-0,086	86,303	0	1012,66	6,4	8,6	8,4	1	1	1	1	1	1	1	1	1	0	1	-5,003524	273,707039	313,216077	0
15.01.2021	08:37:31	0	0,237952	2,711582	2,3985	23,5764	-0,089	86,305	0	1012,7	6,4	8,6	8,4	1	1	1	1	1	1	1	1	1	0	1	-7,047216	273,75975	311,417587	0
15.01.2021	08:37:32	0	0,237952	3,841385	2,349	24,336	-0,086	86,307	0	1012,78	6,4	8,6	8,5	1	1	1	1	1	1	1	1	1	0	1	-6,8358	273,72313	311,458637	0
15.01.2021	08:37:33	0	0,832832	4,971234	2,25525	9,7452	-0,092	86,299	0	1012,62	6,4	8,6	8,4	1	1	1	1	1	1	1	1	1	0	1	-7,047216	273,830256	311,745794	0
15.01.2021	08:37:34	0	0	3,163513	2,25675	13,158	-0,087	86,287	0	1012,72	6,4	8,6	8,4	1	1	1	1	1	1	1	1	1	0	1	-4,016913	273,731912	314,318376	0
15.01.2021	08:37:35	0	0,59488	4,067374	2,24475	13,1508	-0,085	86,306	0	1012,74	6,4	8,6	8,4	1	1	1	1	1	1	1	1	1	0	1	-6,20155	273,828785	312,584607	0
15.01.2021	08:37:36	0	0,237952	3,389478	2,03925	17,2476	-0,093	86,299	0	1012,7	6,4	8,6	8,4	1	1	1	1	1	1	1	1	1	0	1	-6,624383	273,886258	312,429494	0
15.01.2021	08:37:37	0	0,237952	4,180331	1,93425	10,4184	-0,089	86,288	0	1012,64	6,4	8,6	8,5	1	1	1	1	1	1	1	1	1	0	1	-9,654686	273,85971	309,275508	0
15.01.2021	08:37:38	0	0,356928	4,519304	1,872	13,554	-0,09	86,29	0	1012,68	6,4	8,6	8,4	1	1	1	1	1	1	1	1	1	0	1	-10,077519	273,844978	308,784051	0
15.01.2021	08:37:39	0	0	2,824565	1,85475	11,718	-0,085	86,304	0	1012,7	6,4	8,6	8,4	1	1	1	1	1	1	1	1	1	0	1	-7,751938	273,902499	311,377625	0
15.01.2021	08:37:40	0	0,475904	4,406321	1,86525	15,3864	-0,09	86,307	0	1012,64	6,4	8,6	8,4	1	1	1	1	1	1	1	1	1	0	1	-8,033827	273,77882	310,519722	0
15.01.2021	08:37:41	0	0,59488	4,067374	1,84575	15,4008	-0,087	86,319	0	1012,82	6,4	8,6	8,4	1	1	1	1	1	1	1	1	1	0	1	-5,355884	273,877405	313,656742	0
15.01.2021	08:37:42	0	0,118976	4,632259	1,746	13,9068	-0,085	86,308	0	1012,7	6,4	8,6	8,5	1	1	1	1	1	1	1	1	1	0	1	-6,624383	273,867081	312,340146	0
15.01.2021	08:37:43	0	0,475904	4,519304	1,67175	7,128	-0,081	86,326	0	1012,8	6,4	8,6	8,4	1	1	1	1	1	1	1	1	1	0	1	-8,386187	273,839088	310,447951	0
15.01.2021	08:37:44	0	0,35693	3,05053	1,63125	13,914	-0,088	86,307	0	1012,78	6,4	8,5	8,4	1	1	1	1	1	1	1	1	1	0	1	-4,298802	273,730448	314,029677	0
15.01.2021	08:37:45	0	0,475904	3,276495	1,58775	20,6244	-0,087	86,308	0	1012,68	6,4	8,6	8,4	1	1	1	1	1	1	1	1	1	0	1	-5,21494	273,775885	313,324949	0
15.01.2021	08:37:46	0	0,475904	5,310182	1,72875	22,8384	-0,09	86,315	0	1012,6	6,4	8,6	8,4	1	1	1	1	1	1	1	1	1	0	1	-9,725159	273,877405	309,287468	0
15.01.2021	08:37:47	0	0,59488	4,745269	1,87425	20,9952	-0,083	86,324	0	1012,74	6,4	8,6	8,4	1	1	1	1	1	1	1	1	1	0	1	-7,751938	273,843505	311,102774	0
15.01.2021	08:37:48	0	0,237952	4,858252	1,96125	17,2368	-0,082	86,324	0	1012,76	6,4	8,6	8,4	1	1	1	1	1	1	1	1	1	0	1	-5,285412	273,73777	313,077124	0
15.01.2021	08:37:49	0	0,356928	3,841408	2,01375	19,1664	-0,087	86,327	0	1012,68	6,4	8,6	8,4	1	1	1	1	1	1	1	1	1	0	1	-8,80902	273,87003	310,169248	0
15.01.2021	08:37:50	0	0,118976	3,728426	1,977	12,8448	-0,088	86,305	0	1012,66	6,4	8,6	8,4	1	1	1	1	1	1	1	1	1	0	1	-9,725159	273,802317	308,937762	0
15.01.2021	08:37:51	0	0,237952	3,728426	1,97325	15,1452	-0,081	86,337	0	1012,82	6,4	8,6	8,4	1	1	1	1	1	1	1	1	1	0	1	-7,117689	273,721667	311,169942	0
15.01.2021	08:37:52	0	0,356928	4,858252	1,96125	15,0228	-0,088	86,319	0	1012,68	6,4	8,6	8,4	1	1	1	1	1	1	1	1	1	0	1	-6,131078	273,770016	312,381498	0
15.01.2021	08:37:53	0	0,475904	4,971205	1,96875	25,4088	-0,087	86,326	0	1012,74	6,4	8,6	8,5	1	1	1	1	1	1	1	1	1	0	1	-8,245243	273,872979	310,746767	0
15.01.2021	08:37:54	0	0,59488	3,615443	2,001	20,2788	-0,088	86,329	0	1012,74	6,4	8,6	8,4	1	1	1	1	1	1	1	1	1	0	1	-6,412967	273,847923	312,462323	0
15.01.2021	08:37:55	0	0,356928	3,728426	1,944	15,786	-0,082	86,336	0	1012,76	6,4	8,6	8,4	1	1	1	1	1	1	1	1	1	0	1	-8,527132	273,768549	309,978618	0
15.01.2021	08:37:56	0	0,475904	3,954391	1,8555	19,5192	-0,081	86,337	0	1012,82	6,4	8,6	8,4	1	1	1	1	1	1	1	1	1	0	1	-4,862579	273,881831	314,17067	0
15.01.2021	08:37:57	0	0,713856	2,93753	1,791	11,196	-0,084	86,339	0	1012,7	6,4	8,6	8,5	1	1	1	1	1	1	1	1	1	0	1	-8,174771	273,77882	310,378778	0
15.01.2021	08:37:58	0	0,356928	4,180356	1,695	9,7524	-0,087	86,343	0	1012,68	6,4	8,6	8,4	1	1	1	1	1	1	1	1	1	0	1	-9,090909	273,726057	309,217143	0
15.01.2021	08:37:59	0	0,59488	2,711582	1,74975	9,3456	-0,089	86,338	0	1012,6	6,4	8,6	8,4	1	1	1	1	1	1	1	1	1	0	1	-6,20155	273,792033	312,4135	0
15.01.2021	08:38:00	0	0,59488	4,406321	1,803	22,0752	-0,083	86,338	0	1012,74	6,4	8,6	8,4	1	1	1	1	1	1	1	1	1	0	1	-7,117689	273,850869	311,771324	0
15.01.2021	08:38:01	0	0,59488	4,406321	1,803	22,0752	-0,083	86,338	0	1012,74	6,4	8,6	8,4	1	1	1	1	1	1	1	1	1	0	1	-7,117689	273,850869	311,771324	0
15.01.2021	08:38:02	0	0,118976	3,05053	1,8765	20,2788	-0,088	86,324	0	1012,68	6,4	8,6	8,4	1	1	1	1	1	1	1	1	1	0	1	-4,22833	273,727521	314,086531	0
15.01.2021	08:38:03	0	0,475904	3,615443	2,01675	27,2628	-0,083	86,35	0	1012,8	6,4	8,6	8,4	1	1	1	1	1	1	1	1	1	0	1	-6,272023	273,750955	312,151857	0
15.01.2021	08:38:04	0	0,475904	3,728426	2,0475	20,6352	-0,087	86,379	0	1012,74	6,4	8,6	8,4	1	1	1	1	1	1	1	1	1	0	1	-7,540521	273,767082	310,958402	0
15.01.2021	08:38:05	0	0,475904	3,728426	2,04	10,4472	-0,086	86,345	0	1012,56	6,4	8,6	8,4	1	1	1	1	1	1	1	1	1	0	1	-6,483439	273,855289	312,426161	0
15.01.2021	08:38:06	0	0,475904	3,954391	2,067	10,0692	-0,086	86,353	0	1012,84	6,4	8,6	8,4	1	1	1	1	1	1	1	1	1	0	1	-8,45666	273,858237	310,466669	0
15.01.2021	08:38:07	0	0	2,5986	2,1345	9,3528	-0,082	86,349	0	1012,72	6,4	8,6	8,4	1	1	1	1	1	1	1	1	1	0	1	-6,060606	273,71874	312,213414	0
15.01.2021	08:38:08	0	0,475904	3,615443	2,1945	10,8252	-0,084	86,345	0	1012,76	6,4	8,6	8,4	1	1	1	1	1	1	1	1	1	0	1	-11,839323	273,777352	306,707395	0
15.01.2021	08:38:09	0	0,356928	3,728426	2,2065	13,176	-0,082	86,351	0	1012,5	6,4	8,6	8,4	1	1	1	1	1	1	1	1	1	0	1	-7,681466	273,903976	311,454982	0
15.01.2021	08:38:10	0	0,475904	3,276495	2,12925	18,8316	-0,087	86,355	0	1012,74	6,4	8,6	8,4	1	1	1	1	1	1	1	1	1	0	1	-7,399577	273,821429	311,352328	0
15.01.2021	08:38:11	0	0,475904	3,05053	2,0055	18,4572	-0,088	86,352	0	1012,58	6,4	8,6	8,4	1	1	1	1	1	1	1	1	1	0	1	-10,923185	273,880355	308,103189	0
15.01.2021	08:38:12	0	0,356928	4,745269	1,81725	11,7108	-0,082	86,36	0	1012,78	6,4	8,6	8,4	1	1	1	1	1	1	1	1	1	0	1	-6,976744	273,846451	311,891686	0
15.01.2021	08:38:13	0	0,356928	4,745269	1,698	21,0168	-0,088	86,365	0	1012,6	6,4	8,6	8,4	1	1	1	1	1	1	1	1	1	0	1	-8,597604	273,8229	310,16115	0
15.01.2021	08:38:14	0	0,713856	3,841408	1,629	4,0896	-0,085	86,35	0	1012,66	6,4	8,6	8,4	1	1	1	1	1	1	1	1	1	0	1	-5,567301	273,862658	313,376626	0
15.01.2021	08:38:15	0	0,356928	3,276495	1,581	23,2308	-0,091	86,345	0	1012,58	6,4	8,6	8,4	1	1	1	1	1	1	1	1	1	0	1	-3,24172	273,775885	315,298169	0
15.01.2021	08:38:16	0	0,237952	3,615443	1,5945	4,0896	-0,08	86,352	0	1012,68	6,4	8,6	8,4	1	1	1	1	1	1	1	1	1	0	1	-7,82241	273,711426	310,417593	0
15.01.2021	08:38:17	0	0,475904	4,180356	1,575	25,4196	-0,089	86,338	0	1012,74	6,4	8,6	8,4	1	1	1	1	1	1	1	1	1	0	1	-5,21494	273,800847	313,44114	0
15.01.2021	08:38:18	0	0,356928	3,050512	1,512	16,0956	-0,086	86,348	0	1012,62	6,4	8,6	8,5	1	1	1	1	1	1	1	1	1	0	1	-7,047216	273,865607	311,910445	0
15.01.2021	08:38:19	0	0,475904	4,519304	1,48275	9,3636	-0,087	86,357	0	1012,76	6,4	8,6	8,4	1	1	1	1	1	1	1	1	1	0	1	-6,976744	273,721667	311,310887	0
15.01.2021	08:38:20	0	0,356928	3,615443	1,50825	8,6832	-0,083	86,354	0	1012,62	6,4	8,6	8,4	1	1	1	1	1	1	1	1	1	0	1	-7,470049	273,774418	311,06301	0
15.01.2021	08:38:21	0	0,356928	5,1972	1,55025	18,09	-0,089	86,351	0	1012,82	6,4	8,6	8,4	1	1	1	1	1	1	1	1	1	0	1	-5,144468	273,887734	313,916287	0
15.01.2021	08:38:22	0	0,475904	4,632287	1,5435	16,0956	-0,089	86,417	0	1012,72	6,4	8,6	8,4	1	1	1	1	1	1	1	1	1	0	1	-6,8358	273,825842	311,936655	0
15.01.2021	08:38:23	0	0,356928	2,372635	1,5525	21,384	-0,09	86,344	0	1012,58	6,4	8,6	8,4	1	1	1	1	1	1	1	1	1	0	1	-4,792107	273,890686	314,282404	0
15.01.2021	08:38:24	0	0,356928	3,728426	1,62525	9,3636	-0,082	86,359	0	1012,74	6,4	8,6	8,4	1	1	1	1	1	1	1	1	1	0	1	-9,44327	273,753886	308,994248	0
15.01.2021	08:38:25	0	0,237952	3,050512	1,66125	28,3572	-0,083	86,362	0	1012,7	6,4	8,6	8,5	1	1	1	1	1	1	1	1	1	0	1	-9,44327	273,881831	309,589979	0
15.01.2021	08:38:26	0	0,475904	4,519304	1,71825	21,006	-0,084	86,374	0	1012,72	6,4	8,6	8,4	1	1	1	1	1	1	1	1	1	0	1	-8,245243	273,856763	310,671221	0
15.01.2021	08:38:27	0	0,832832	4,971234	1,67775	13,5468	-0,086	86,348	0	1012,7	6,4	8,6	8,4	1	1	1	1	1	1	1	1	1	0	1	-6,976744	273,809665	311,720389	0
15.01.2021	08:38:28	0	0,356928	2,937548	1,65525	19,8936	-0,083	86,362	0	1012,7	6,4	8,6	8,4	1	1	1	1	1	1	1	1	1	0	1	-2,959831	273,880355	316,066543	0
15.01.2021	08:38:29	0	0,713856	4,632287	1,64325	20,2788	-0,088	86,376	0	1012,62	6,4	8,6	8,4	1	1	1	1	1	1	1	1	1	0	1	-4,157858	273,855289	314,751743	0
15.01.2021	08:38:30	0	0,237952	2,711582	1,6545	11,7144	-0,082	86,367	0	1012,68	6,4	8,6	8,4	1	1	1	1	1	1	1	1	1	0	1	-6,412967	273,827313	312,366339	0
15.01.2021	08:38:31	0	0,475904	4,858252	1,68675	18,8316	-0,081	86,371	0	1012,68	6,4	8,6	8,4	1	1	1	1	1	1	1	1	1	0	1	-4,721635	273,884782	314,325366	0
15.01.2021	08:38:32	0	0,59488	4,858252	1,65975	14,652	-0,087	86,374	0	1012,7	6,4	8,6	8,4	1	1	1	1	1	1	1	1	1	0	1	-5,567301	273,842033	313,280552	0
15.01.2021	08:38:33	0	0,475904	4,745241	1,608	8,2728	-0,083	86,37	0	1012,8	6,4	8,6	8,5	1	1	1	1	1	1	1	1	1	0	1	-4,087385	273,824371	314,678219	0
15.01.2021	08:38:34	0	0,356928	3,954391	1,5945	14,31	-0,087	86,361	0	1012,74	6,4	8,6	8,4	1	1	1	1	1	1	1	1	1	0	1	-8,315715	273,724593	309,985529	0
15.01.2021	08:38:35	0	0	4,632287	1,578	360	-0,087	86,37	0	1012,7	6,4	8,5	8,4	1	1	1	1	1	1	1	1	1	0	1	-9,936575	273,850869	308,952437	0
15.01.2021	08:38:36	0	0,356928	4,632287	1,53825	3,1176	-0,084	86,357	0	1012,7	6,4	8,6	8,4	1	1	1	1	1	1	1	1	1	0	1	-2,255109	273,867081	316,709421	0
15.01.2021	08:38:37	0	0,356928	3,615443	1,575	11,1852	-0,088	86,377	0	1012,64	6,4	8,6	8,4	1	1	1	1	1	1	1	1	1	0	1	-0	273,711426	318,240003	0
15.01.2021	08:38:38	0	0,713856	4,745269	1,6005	2,286	-0,094	86,378	0	1012,72	6,4	8,6	8,4	1	1	1	1	1	1	1	1	1	0	1	-5,426357	273,830256	313,366654	0
15.01.2021	08:38:39	0	0,356928	3,276495	1,65225	1,6344	-0,09	86,377	0	1012,72	6,4	8,6	8,4	1	1	1	1	1	1	1	1	1	0	1	-2,889359	273,739234	315,479991	0
15.01.2021	08:38:40	0	0,356928	4,406321	1,7685	1,5516	-0,083	86,382	0	1012,58	6,4	8,6	8,4	1	1	1	1	1	1	1	1	1	0	1	-4,157858	273,714352	314,09575	0
15.01.2021	08:38:41	0	0,59488	3,163513	2,08725	4,464	-0,089	86,378	0	1012,68	6,4	8,6	8,4	1	1	1	1	1	1	1	1	1	0	1	-0,98661	273,783223	317,587434	0
15.01.2021	08:38:42	0	0,59488	5,084217	2,21475	358,848	-0,084	86,381	0	1012,78	6,4	8,6	8,4	1	1	1	1	1	1	1	1	1	0	1	-1,973221	273,886258	317,080657	0
15.01.2021	08:38:43	0	0,356928	4,745269	2,1645	15,0264	-0,084	86,399	0	1012,76	6,4	8,6	8,4	1	1	1	1	1	1	1	1	1	0	1	-6,624383	273,843505	312,230328	0
15.01.2021	08:38:44	0	0,475904	3,163513	2,16975	17,694	-0,088	86,388	0	1012,56	6,4	8,6	8,4	1	1	1	1	1	1	1	1	1	0	1	-7,047216	273,824371	311,718388	0
15.01.2021	08:38:45	0	0	2,824548	2,2065	19,512	-0,089	86,378	0	1012,6	6,4	8,6	8,5	1	1	1	1	1	1	1	1	1	0	1	-10,711769	273,717277	307,555446	0
15.01.2021	08:38:46	0	0,832832	4,067374	2,21775	14,2956	-0,089	86,381	0	1012,7	6,4	8,6	8,4	1	1	1	1	1	1	1	1	1	0	1	-6,976744	273,797909	311,665657	0
15.01.2021	08:38:47	0	0,237952	3,050512	2,157	26,1648	-0,085	86,391	0	1012,72	6,4	8,6	8,5	1	1	1	1	1	1	1	1	1	0	1	-5,144468	273,724593	313,156776	0
15.01.2021	08:38:48	0	0,713856	4,632287	2,004	23,9544	-0,089	86,374	0	1012,74	6,4	8,6	8,4	1	1	1	1	1	1	1	1	1	0	1	-7,681466	273,777352	310,865253	0
15.01.2021	08:38:49	0	0,237952	2,937548	1,98975	32,5116	-0,083	86,385	0	1012,7	6,4	8,6	8,4	1	1	1	1	1	1	1	1	1	0	1	-6,976744	273,875929	312,029009	0
15.01.2021	08:38:50	0	0,237952	3,276495	1,84425	13,644	-0,085	86,395	0	1012,62	6,4	8,6	8,4	1	1	1	1	1	1	1	1	1	0	1	-5,990134	273,755352	312,454205	0
15.01.2021	08:38:51	0	0,59488	3,502461	1,7415	3,0384	-0,085	86,383	0	1012,72	6,4	8,6	8,4	1	1	1	1	1	1	1	1	1	0	1	-3,735025	273,780288	314,825355	0
15.01.2021	08:38:52	0	0,237954	3,389478	1,80075	6,066	-0,086	86,39	0	1012,74	6,4	8,5	8,4	1	1	1	1	1	1	1	1	1	0	1	-6,272023	273,721667	312,015608	0
15.01.2021	08:38:53	0	0,59488	2,598584	1,83525	354,6972	-0,087	86,379	0	1012,62	6,4	8,6	8,5	1	1	1	1	1	1	1	1	1	0	1	-5,919662	273,830256	312,873349	0
15.01.2021	08:38:54	0	0,59488	3,728426	1,87875	7,1352	-0,091	86,395	0	1012,68	6,4	8,6	8,4	1	1	1	1	1	1	1	1	1	0	1	-3,171247	273,87888	315,848253	0
15.01.2021	08:38:55	0	0,356928	3,954391	1,938	4,842	-0,088	86,379	0	1012,72	6,4	8,6	8,4	1	1	1	1	1	1	1	1	1	0	1	-3,523608	273,847923	315,351682	0
15.01.2021	08:38:56	0	1,070784	5,536147	2,0295	356,2092	-0,089	86,384	0	1012,62	6,4	8,6	8,4	1	1	1	1	1	1	1	1	1	0	1	-8,033827	273,762683	310,444623	0
15.01.2021	08:38:57	0	0,237952	2,824565	2,09025	0,1152	-0,087	86,381	0	1012,72	6,4	8,6	8,4	1	1	1	1	1	1	1	1	1	0	1	-1,902748	273,702653	316,296455	0
15.01.2021	08:38:58	0	0,951808	4,858252	2,097	1,656	-0,09	86,389	0	1012,74	6,4	8,6	8,4	1	1	1	1	1	1	1	1	1	0	1	-2,396054	273,812606	316,314768	0
15.01.2021	08:38:59	0	0,475907	4,293339	2,148	3,7584	-0,087	86,406	0	1012,74	6,4	8,5	8,4	1	1	1	1	1	1	1	1	1	0	1	-8,386187	273,883306	310,653937	0
15.01.2021	08:39:00	0	0,475904	4,519304	2,13075	13,9932	-0,096	86,391	0	1012,6	6,4	8,6	8,4	1	1	1	1	1	1	1	1	1	0	1	-4,721635	273,78616	313,866075	0
15.01.2021	08:39:01	0	0,475904	4,519304	2,13075	13,9932	-0,096	86,391	0	1012,6	6,4	8,6	8,4	1	1	1	1	1	1	1	1	1	0	1	-1,832276	273,728984	316,489393	0
15.01.2021	08:39:02	0	0,59488	5,1972	1,97775	19,53	-0,087	86,391	0	1012,64	6,4	8,6	8,4	1	1	1	1	1	1	1	1	1	0	1	-2,466526	273,709964	315,766676	0
15.01.2021	08:39:03	0	0,356928	3,05053	1,959	8,6076	-0,083	86,401	0	1012,78	6,4	8,6	8,4	1	1	1	1	1	1	1	1	1	0	1	-5,003524	273,790565	313,604691	0
15.01.2021	08:39:04	0	0,356928	4,406321	2,076	12,1032	-0,084	86,411	0	1012,72	6,4	8,6	8,4	1	1	1	1	1	1	1	1	1	0	1	-5,003524	273,865607	313,954138	0
15.01.2021	08:39:05	0	0,713861	4,971234	2,2395	20,7252	-0,084	86,398	0	1012,74	6,4	8,5	8,4	1	1	1	1	1	1	1	1	1	0	1	-5,073996	273,797909	313,568406	0
15.01.2021	08:39:06	0	0,118976	4,067374	2,30325	14,2956	-0,084	86,387	0	1012,8	6,4	8,6	8,4	1	1	1	1	1	1	1	1	1	0	1	-6,483439	273,871505	312,5017	0
15.01.2021	08:39:07	0	0,951808	3,841408	2,51625	19,1448	-0,089	86,395	0	1012,36	6,4	8,6	8,4	1	1	1	1	1	1	1	1	1	0	1	-7,258633	273,8332	311,548084	0
15.01.2021	08:39:08	0	0,475904	4,406321	2,71275	34,3368	-0,082	86,403	0	1012,74	6,4	8,6	8,4	1	1	1	1	1	1	1	1	1	0	1	-7,82241	273,874454	311,176471	0
15.01.2021	08:39:09	0	0,356928	4,406321	2,7375	26,9028	-0,085	86,408	0	1012,78	6,4	8,6	8,4	1	1	1	1	1	1	1	1	1	0	1	-3,312192	273,846451	315,556238	0
15.01.2021	08:39:10	0	0,356928	4,406321	2,895	17,7012	-0,081	86,405	0	1012,94	6,4	8,6	8,4	1	1	1	1	1	1	1	1	1	0	1	-2,255109	273,852343	316,640765	0
15.01.2021	08:39:11	0	0,59488	4,745269	3,0165	33,3324	-0,088	86,399	0	1012,72	6,4	8,6	8,4	1	1	1	1	1	1	1	1	1	0	1	-6,483439	273,88921	312,584193	0
15.01.2021	08:39:12	0	0,237954	2,485617	2,9805	30,8052	-0,088	86,393	0	1012,68	6,4	8,5	8,4	1	1	1	1	1	1	1	1	1	0	1	-3,664553	273,726057	314,6435	0
15.01.2021	08:39:13	0	0,475904	3,954391	3,018	22,4568	-0,09	86,393	0	1012,7	6,4	8,6	8,4	1	1	1	1	1	1	1	1	1	0	1	-6,906272	273,856763	312,010192	0
15.01.2021	08:39:14	0	0,475904	3,276495	2,9565	22,8384	-0,084	86,42	0	1012,74	6,4	8,6	8,4	1	1	1	1	1	1	1	1	1	0	1	-4,862579	273,77295	313,663652	0
15.01.2021	08:39:15	0	0,59488	4,858252	3,01575	23,9544	-0,088	86,408	0	1012,7	6,4	8,6	8,4	1	1	1	1	1	1	1	1	1	0	1	-7,892882	273,839088	310,941257	0
15.01.2021	08:39:16	0	0,475904	3,728426	3,16275	19,5264	-0,083	86,415	0	1012,74	6,4	8,6	8,4	1	1	1	1	1	1	1	1	1	0	1	-6,8358	273,877405	312,176827	0
15.01.2021	08:39:17	0	0,475904	3,728426	3,264	5,2164	-0,086	86,394	0	1012,7	6,4	8,6	8,4	1	1	1	1	1	1	1	1	1	0	1	-2,818887	273,756818	315,632273	0
15.01.2021	08:39:18	0	0,475904	4,858252	2,99325	32,4972	-0,086	86,417	0	1012,74	6,4	8,6	8,4	1	1	1	1	1	1	1	1	1	0	1	-4,22833	273,849396	314,653821	0
15.01.2021	08:39:19	0	0,356928	3,954391	2,8305	18,8244	-0,082	86,419	0	1012,74	6,4	8,6	8,4	1	1	1	1	1	1	1	1	1	0	1	-6,906272	273,877405	312,106355	0
15.01.2021	08:39:20	0	0,475907	4,632287	2,80425	6,8184	-0,088	86,403	0	1012,78	6,4	8,5	8,4	1	1	1	1	1	1	1	1	1	0	1	-7,188161	273,758284	311,26982	0
15.01.2021	08:39:21	0	0,713856	2,824565	2,751	360	-0,084	86,425	0	1012,8	6,4	8,6	8,4	1	1	1	1	1	1	1	1	1	0	1	-7,188161	273,874454	311,810721	0
15.01.2021	08:39:22	0	0,713856	4,293339	2,6625	4,0788	-0,086	86,421	0	1012,82	6,4	8,6	8,4	1	1	1	1	1	1	1	1	1	0	1	-4,439746	273,836144	314,380681	0
15.01.2021	08:39:23	0	0,832832	4,632287	2,5905	358,8336	-0,086	86,399	0	1012,64	6,4	8,6	8,4	1	1	1	1	1	1	1	1	1	0	1	-7,117689	273,764149	311,367585	0
15.01.2021	08:39:24	0	0,59488	4,406321	2,44875	15,7752	-0,093	86,408	0	1012,74	6,4	8,6	8,4	1	1	1	1	1	1	1	1	1	0	1	-1,338971	273,717277	316,928244	0
15.01.2021	08:39:25	0	0,356928	2,711582	2,32725	355,4244	-0,088	86,42	0	1012,68	6,4	8,6	8,4	1	1	1	1	1	1	1	1	1	0	1	-7,399577	273,775885	311,140312	0
15.01.2021	08:39:26	0	0,475904	4,745269	2,3055	345,4344	-0,09	86,404	0	1012,76	6,4	8,6	8,4	1	1	1	1	1	1	1	1	1	0	1	-4,792107	273,881831	314,241142	0
15.01.2021	08:39:27	0	0,713856	4,632287	2,2605	21,024	-0,083	86,411	0	1012,6	6,4	8,6	8,4	1	1	1	1	1	1	1	1	1	0	1	-5,567301	273,830256	313,225709	0
15.01.2021	08:39:28	0	0,356928	4,858252	2,2935	15,7644	-0,09	86,409	0	1012,64	6,4	8,6	8,4	1	1	1	1	1	1	1	1	1	0	1	-10,923185	273,721667	307,364445	0
15.01.2021	08:39:29	0	0,59488	3,163513	2,1825	19,8864	-0,095	86,397	0	1012,68	6,4	8,6	8,4	1	1	1	1	1	1	1	1	1	0	1	-5,355884	273,750955	313,067995	0
15.01.2021	08:39:30	0	0,59488	3,163513	1,96125	14,004	-0,084	86,404	0	1012,48	6,4	8,6	8,4	1	1	1	1	1	1	1	1	1	0	1	-5,21494	273,886258	313,838937	0
15.01.2021	08:39:31	0	0,594884	4,632287	1,78125	15,03	-0,086	86,42	0	1012,66	6,4	8,5	8,4	1	1	1	1	1	1	1	1	1	0	1	-6,412967	273,715814	311,847444	0
15.01.2021	08:39:32	0	0,475907	2,937548	1,713	12,0888	-0,092	86,411	0	1012,7	6,4	8,5	8,4	1	1	1	1	1	1	1	1	1	0	1	-9,654686	273,771483	308,864717	0
15.01.2021	08:39:33	0	0,35693	4,180356	1,77525	1,9332	-0,08	86,407	0	1012,72	6,4	8,5	8,4	1	1	1	1	1	1	1	1	1	0	1	-6,906272	273,880355	312,120102	0
15.01.2021	08:39:34	0	0,35693	4,858252	1,87875	4,0824	-0,089	86,405	0	1012,76	6,4	8,5	8,4	1	1	1	1	1	1	1	1	1	0	1	-4,298802	273,811135	314,405175	0
15.01.2021	08:39:35	0	0,356928	2,5986	2,05425	0,1188	-0,087	86,415	0	1012,76	6,4	8,6	8,4	1	1	1	1	1	1	1	1	1	0	1	-8,80902	273,733377	309,53308	0
15.01.2021	08:39:36	0	0,713856	4,971234	2,17125	3,7584	-0,087	86,418	0	1012,7	6,4	8,6	8,4	1	1	1	1	1	1	1	1	1	0	1	-5,285412	273,87003	313,692856	0
15.01.2021	08:39:37	0	0,475904	3,841408	2,136	13,158	-0,084	86,424	0	1012,64	6,4	8,6	8,4	1	1	1	1	1	1	1	1	1	0	1	-6,906272	273,830256	311,886738	0
15.01.2021	08:39:38	0	0,356928	2,824565	2,07	6,8076	-0,083	86,432	0	1012,84	6,4	8,6	8,4	1	1	1	1	1	1	1	1	1	0	1	-9,513742	273,895115	309,581409	0
15.01.2021	08:39:39	0	0,832832	4,858252	1,989	15,7752	-0,092	86,431	0	1012,66	6,4	8,6	8,4	1	1	1	1	1	1	1	1	1	0	1	-11,557435	273,775885	306,982454	0
15.01.2021	08:39:40	0	0,475904	4,293313	1,92	21,0168	-0,087	86,429	0	1012,82	6,4	8,6	8,5	1	1	1	1	1	1	1	1	1	0	1	-6,553911	273,872979	312,438099	0
15.01.2021	08:39:41	0	0,237952	3,163513	1,85625	12,8448	-0,085	86,422	0	1012,7	6,4	8,6	8,4	1	1	1	1	1	1	1	1	1	0	1	-9,513742	273,824371	309,251862	0
15.01.2021	08:39:42	0	0,237952	2,711582	1,923	26,8992	-0,087	86,428	0	1012,76	6,4	8,6	8,4	1	1	1	1	1	1	1	1	1	0	1	-9,44327	273,750955	308,98061	0
15.01.2021	08:39:43	0	0,356928	4,406321	1,911	19,9008	-0,086	86,408	0	1012,92	6,4	8,6	8,4	1	1	1	1	1	1	1	1	1	0	1	-4,369274	273,880355	314,6571	0
15.01.2021	08:39:44	0	0,475904	4,180356	2,00775	7,1136	-0,084	86,416	0	1012,74	6,4	8,6	8,4	1	1	1	1	1	1	1	1	1	0	1	-7,963354	273,775885	310,576534	0
15.01.2021	08:39:45	0	0,475904	3,05053	2,01525	25,776	-0,091	86,43	0	1012,72	6,4	8,6	8,4	1	1	1	1	1	1	1	1	1	0	1	-4,721635	273,875929	314,284119	0
15.01.2021	08:39:46	0	0,713856	3,728426	1,80075	6,4368	-0,084	86,484	0	1012,78	6,4	8,6	8,4	1	1	1	1	1	1	1	1	1	0	1	-5,567301	273,742164	312,815678	0
15.01.2021	08:39:47	0	0,237952	2,937548	1,695	345,7116	-0,091	86,419	0	1012,66	6,4	8,6	8,4	1	1	1	1	1	1	1	1	1	0	1	-2,325581	273,803786	316,344181	0
15.01.2021	08:39:48	0	0,59488	4,632287	1,68	8,6184	-0,088	86,409	0	1012,76	6,4	8,6	8,4	1	1	1	1	1	1	1	1	1	0	1	-5,778717	273,864132	313,172076	0
15.01.2021	08:39:49	0	0,713856	3,502461	1,71	1,5516	-0,086	86,427	0	1012,74	6,4	8,6	8,4	1	1	1	1	1	1	1	1	1	0	1	-4,792107	273,837616	314,035175	0
15.01.2021	08:39:50	0	0,475904	3,050548	1,9005	358,3656	-0,093	86,413	0	1012,7	6,4	8,6	8,3	1	1	1	1	1	1	1	1	1	0	1	-3,946441	273,693884	314,211986	0
15.01.2021	08:39:51	0	0,59488	3,276495	2,1165	13,5396	-0,081	86,427	0	1012,74	6,4	8,6	8,4	1	1	1	1	1	1	1	1	1	0	1	-3,805497	273,750955	314,618383	0
15.01.2021	08:39:52	0	0,594884	4,745269	2,2545	1,9152	-0,091	86,431	0	1012,6	6,4	8,5	8,4	1	1	1	1	1	1	1	1	1	0	1	-5,567301	273,491845	311,652715	0
15.01.2021	08:39:53	0	0,713856	4,067374	2,46075	6,048	-0,091	86,419	0	1012,64	6,4	8,6	8,4	1	1	1	1	1	1	1	1	1	0	1	-0	273,749489	318,417061	0
15.01.2021	08:39:54	0	0,475904	4,519304	2,436	8,6256	-0,082	86,429	0	1012,7	6,4	8,6	8,4	1	1	1	1	1	1	1	1	1	0	1	-6,624383	273,827313	312,154923	0
15.01.2021	08:39:55	0	0,35693	2,937548	2,385	9,0216	-0,085	86,418	0	1012,64	6,4	8,5	8,4	1	1	1	1	1	1	1	1	1	0	1	-5,496829	273,704115	312,709173	0
15.01.2021	08:39:56	0	0,475907	4,293339	2,355	12,474	-0,087	86,436	0	1012,72	6,4	8,5	8,4	1	1	1	1	1	1	1	1	1	0	1	-6,8358	273,824371	311,929804	0
15.01.2021	08:39:57	0	0,475904	4,180356	2,658	8,2548	-0,087	86,438	0	1012,64	6,4	8,6	8,4	1	1	1	1	1	1	1	1	1	0	1	-5,990134	273,87888	313,029366	0
15.01.2021	08:39:58	0	0,713856	3,163513	2,874	7,8732	-0,087	86,433	0	1012,76	6,4	8,6	8,4	1	1	1	1	1	1	1	1	1	0	1	-2,677942	273,73777	315,684594	0
15.01.2021	08:39:59	0	0,356928	3,841408	2,697	8,6904	-0,083	86,439	0	1012,92	6,4	8,6	8,4	1	1	1	1	1	1	1	1	1	0	1	-7,892882	273,731912	310,442407	0
15.01.2021	08:40:00	0	0,59488	3,728426	2,4045	9,3672	-0,084	86,443	0	1012,62	6,4	8,6	8,4	1	1	1	1	1	1	1	1	1	0	1	-8,597604	273,87888	310,421896	0
15.01.2021	08:40:01	0	0,237954	3,728426	2,32425	14,2956	-0,086	86,44	0	1012,84	6,4	8,5	8,4	1	1	1	1	1	1	1	1	1	0	1	-2,748414	273,803786	315,921348	0
15.01.2021	08:40:02	0	0,475904	3,954391	2,2575	39,1716	-0,092	86,429	0	1012,66	6,4	8,6	8,4	1	1	1	1	1	1	1	1	1	0	1	-4,016913	273,872979	314,975097	0
15.01.2021	08:40:03	0	0,713861	4,971234	2,22225	31,014	-0,089	86,437	0	1012,68	6,4	8,5	8,4	1	1	1	1	1	1	1	1	1	0	1	-4,933051	273,8229	313,825703	0
15.01.2021	08:40:04	0	0,35693	3,728426	2,1525	41,4432	-0,091	86,415	0	1012,56	6,4	8,5	8,4	1	1	1	1	1	1	1	1	1	0	1	-7,047216	273,714352	311,206391	0
15.01.2021	08:40:05	0	0,713856	3,502461	2,03325	26,8956	-0,087	86,436	0	1012,7	6,4	8,6	8,4	1	1	1	1	1	1	1	1	1	0	1	-2,043693	273,753886	316,393826	0
15.01.2021	08:40:06	0	0,356928	4,519304	1,914	30,4236	-0,083	86,448	0	1012,84	6,4	8,6	8,4	1	1	1	1	1	1	1	1	1	0	1	-3,735025	273,846451	315,133405	0
15.01.2021	08:40:07	0	0,951814	4,632287	1,82175	35,4672	-0,086	86,448	0	1012,72	6,4	8,5	8,4	1	1	1	1	1	1	1	1	1	0	1	-12,896406	273,853816	306,006331	0
15.01.2021	08:40:08	0	0,951808	4,180356	1,74	22,8168	-0,079	86,456	0	1012,8	6,4	8,6	8,4	1	1	1	1	1	1	1	1	1	0	1	-12,473573	273,828785	306,312585	0
15.01.2021	08:40:09	0	0,59488	3,728426	1,74525	22,464	-0,092	86,445	0	1012,68	6,4	8,6	8,4	1	1	1	1	1	1	1	1	1	0	1	-2,536998	273,887734	316,523757	0
15.01.2021	08:40:10	0	0,713861	3,05053	1,6575	22,8312	-0,082	86,45	0	1012,76	6,4	8,5	8,4	1	1	1	1	1	1	1	1	1	0	1	-6,272023	273,792033	312,343028	0
15.01.2021	08:40:11	0	0,475904	4,632287	1,719	13,9104	-0,087	86,447	0	1012,6	6,4	8,6	8,4	1	1	1	1	1	1	1	1	1	0	1	-3,24172	273,864132	315,709074	0
15.01.2021	08:40:12	0	0,594884	4,519304	1,77225	25,7904	-0,082	86,443	0	1012,58	6,4	8,5	8,4	1	1	1	1	1	1	1	1	1	0	1	-3,382664	273,740699	314,9935	0
15.01.2021	08:40:13	0	0,356928	2,937548	1,82025	15,7932	-0,085	86,443	0	1012,7	6,4	8,6	8,4	1	1	1	1	1	1	1	1	1	0	1	-3,171247	273,712889	315,075558	0
15.01.2021	08:40:14	0	0,951814	4,971234	2,09175	10,1376	-0,081	86,449	0	1012,72	6,4	8,5	8,4	1	1	1	1	1	1	1	1	1	0	1	-2,818887	273,73777	315,54365	0
15.01.2021	08:40:15	0	0,475907	4,519304	2,262	12,0924	-0,092	86,447	0	1012,7	6,4	8,5	8,4	1	1	1	1	1	1	1	1	1	0	1	-7,540521	273,877405	311,472105	0
15.01.2021	08:40:16	0	0,713861	2,937548	2,42175	16,4808	-0,085	86,451	0	1012,68	6,4	8,5	8,4	1	1	1	1	1	1	1	1	1	0	1	-4,580691	273,777352	313,966028	0
15.01.2021	08:40:17	0	0,475907	3,841408	2,47275	10,4508	-0,084	86,436	0	1012,72	6,4	8,5	8,4	1	1	1	1	1	1	1	1	1	0	1	-4,651163	273,867081	314,313367	0
15.01.2021	08:40:18	0	0,475904	2,372635	2,358	23,292	-0,08	86,452	0	1012,84	6,4	8,6	8,4	1	1	1	1	1	1	1	1	1	0	1	-5,567301	273,864132	313,383493	0
15.01.2021	08:40:19	0	0,713856	3,841408	2,20125	33,246	-0,085	86,435	0	1012,8	6,4	8,6	8,4	1	1	1	1	1	1	1	1	1	0	1	-3,735025	273,808195	314,955264	0
15.01.2021	08:40:20	0	0,475904	5,1972	2,18325	31,0176	-0,085	86,433	0	1012,78	6,4	8,6	8,4	1	1	1	1	1	1	1	1	1	0	1	-5,778717	273,711426	312,461286	0
15.01.2021	08:40:21	0	0,475907	4,519304	2,21325	0,504	-0,083	86,45	0	1012,7	6,4	8,5	8,4	1	1	1	1	1	1	1	1	1	0	1	-4,580691	273,877405	314,431936	0
15.01.2021	08:40:22	0	0,475904	2,033687	2,16375	8,622	-0,082	86,457	0	1012,78	6,4	8,6	8,4	1	1	1	1	1	1	1	1	1	0	1	-4,792107	273,790565	313,816108	0
15.01.2021	08:40:23	0	0,59488	3,728426	2,133	4,4676	-0,084	86,46	0	1012,74	6,4	8,6	8,4	1	1	1	1	1	1	1	1	1	0	1	-8,45666	273,861184	310,4804	0
15.01.2021	08:40:24	0	0,35693	3,163513	2,33625	6,0516	-0,087	86,444	0	1012,8	6,4	8,5	8,4	1	1	1	1	1	1	1	1	1	0	1	-8,104299	273,787628	310,490246	0
15.01.2021	08:40:25	0	0,713856	3,502461	2,4495	11,196	-0,09	86,451	0	1012,7	6,4	8,6	8,4	1	1	1	1	1	1	1	1	1	0	1	-5,496829	273,872979	313,495181	0
15.01.2021	08:40:26	0	0,713856	3,841408	2,41275	8,2584	-0,083	86,45	0	1012,74	6,4	8,6	8,4	1	1	1	1	1	1	1	1	1	0	1	-5,84919	273,746559	312,554237	0
15.01.2021	08:40:27	0	0,356928	4,632287	2,32875	13,9212	-0,093	86,441	0	1012,64	6,4	8,6	8,4	1	1	1	1	1	1	1	1	1	0	1	-7,258633	273,743629	311,131161	0
15.01.2021	08:40:28	0	0,475904	3,841408	2,364	7,8768	-0,085	86,448	0	1012,88	6,4	8,6	8,4	1	1	1	1	1	1	1	1	1	0	1	-7,188161	273,865607	311,769501	0
15.01.2021	08:40:29	0	0,59488	4,632287	2,292	358,074	-0,082	86,45	0	1012,5	6,4	8,6	8,4	1	1	1	1	1	1	1	1	1	0	1	-8,45666	273,790565	310,151555	0
15.01.2021	08:40:30	0	0,594884	2,5986	2,19825	356,274	-0,084	86,452	0	1012,7	6,4	8,5	8,4	1	1	1	1	1	1	1	1	1	0	1	-6,694856	273,712889	311,55195	0
15.01.2021	08:40:31	0	0,951808	3,841408	2,17875	8,6076	-0,088	86,448	0	1012,8	6,4	8,6	8,4	1	1	1	1	1	1	1	1	1	0	1	-6,765328	273,753886	311,672191	0
15.01.2021	08:40:32	0	0,594884	3,502461	2,29125	7,8732	-0,091	86,456	0	1012,72	6,4	8,5	8,4	1	1	1	1	1	1	1	1	1	0	1	-7,329105	273,767082	311,169819	0
15.01.2021	08:40:33	0	0,475904	3,05053	2,32425	16,8372	-0,093	86,43	0	1012,74	6,4	8,6	8,4	1	1	1	1	1	1	1	1	1	0	1	-5,990134	273,707039	312,229467	0
15.01.2021	08:40:34	0	0,832837	3,05053	2,22825	14,6592	-0,084	86,457	0	1012,8	6,4	8,5	8,4	1	1	1	1	1	1	1	1	1	0	1	-7,540521	273,825842	311,231933	0
15.01.2021	08:40:35	0	0,713861	3,502461	2,17425	10,062	-0,086	86,461	0	1012,8	6,4	8,5	8,4	1	1	1	1	1	1	1	1	1	0	1	-6,8358	273,881831	312,197449	0
15.01.2021	08:40:36	0	0,951814	3,841408	2,12775	10,0512	-0,088	86,464	0	1012,78	6,4	8,5	8,4	1	1	1	1	1	1	1	1	1	0	1	-4,721635	273,828785	314,064523	0
15.01.2021	08:40:37	0	0,594884	3,276495	2,184	4,0788	-0,082	86,45	0	1012,68	6,4	8,5	8,4	1	1	1	1	1	1	1	1	1	0	1	-5,567301	273,821429	313,184604	0
15.01.2021	08:40:38	0	0,475904	3,615443	2,25075	10,8036	-0,084	86,445	0	1012,78	6,4	8,6	8,4	1	1	1	1	1	1	1	1	1	0	1	-5,285412	273,714352	312,968196	0
15.01.2021	08:40:39	0	0,59488	4,519304	2,1975	8,2728	-0,084	86,466	0	1012,8	6,4	8,6	8,4	1	1	1	1	1	1	1	1	1	0	1	-2,325581	273,761216	316,146045	0
15.01.2021	08:40:40	0	0,35693	2,711582	2,124	14,2992	-0,086	86,461	0	1012,92	6,4	8,5	8,4	1	1	1	1	1	1	1	1	1	0	1	-0,634249	273,736305	317,721474	0
15.01.2021	08:40:41	0	0,475907	4,745269	1,94625	21,3804	-0,084	86,46	0	1012,76	6,4	8,5	8,4	1	1	1	1	1	1	1	1	1	0	1	-4,721635	273,739234	313,647715	0
15.01.2021	08:40:42	0	0,713861	3,163513	1,809	25,7832	-0,084	86,455	0	1012,84	6,4	8,5	8,4	1	1	1	1	1	1	1	1	1	0	1	-2,255109	273,728984	316,06656	0
15.01.2021	08:40:43	0	0,951814	4,293339	1,59825	12,0888	-0,083	86,473	0	1012,58	6,4	8,5	8,4	1	1	1	1	1	1	1	1	1	0	1	-10,218464	273,850869	308,670549	0
15.01.2021	08:40:44	0	0,951808	3,389478	1,5225	33,9408	-0,088	86,461	0	1012,92	6,4	8,6	8,4	1	1	1	1	1	1	1	1	1	0	1	-9,090909	273,768549	309,414841	0
15.01.2021	08:40:45	0	0,475904	4,519304	1,545	22,0788	-0,082	86,457	0	1012,76	6,4	8,6	8,4	1	1	1	1	1	1	1	1	1	0	1	-6,272023	273,868555	312,699376	0
15.01.2021	08:40:46	0	0,832832	4,858252	1,58325	21,006	-0,082	86,475	0	1012,72	6,4	8,6	8,4	1	1	1	1	1	1	1	1	1	0	1	-12,403101	273,817017	306,32826	0
15.01.2021	08:40:47	0	0,594884	4,067374	1,80225	27,27	-0,082	86,463	0	1012,66	6,4	8,5	8,4	1	1	1	1	1	1	1	1	1	0	1	-6,131078	273,862658	312,812848	0
15.01.2021	08:40:48	0	0,832837	2,937548	2,03625	21,384	-0,082	86,487	0	1012,9	6,4	8,5	8,4	1	1	1	1	1	1	1	1	1	0	1	-3,735025	273,736305	314,620699	0
15.01.2021	08:40:49	0	0,35693	2,937548	2,0955	12,8484	-0,081	86,479	0	1012,8	6,4	8,5	8,4	1	1	1	1	1	1	1	1	1	0	1	-6,412967	273,792033	312,202084	0
15.01.2021	08:40:50	0	0,237954	2,5986	2,0685	8,2548	-0,084	86,469	0	1012,88	6,4	8,5	8,4	1	1	1	1	1	1	1	1	1	0	1	-8,949965	273,724593	309,35128	0
15.01.2021	08:40:51	0	0,713856	4,745269	2,03025	358,0632	-0,086	86,463	0	1012,66	6,4	8,6	8,4	1	1	1	1	1	1	1	1	1	0	1	-3,59408	273,767082	314,904843	0
15.01.2021	08:40:52	0	0,713861	3,728426	2,00025	18,4464	-0,084	86,472	0	1012,82	6,4	8,5	8,4	1	1	1	1	1	1	1	1	1	0	1	-7,82241	273,837616	311,004872	0
15.01.2021	08:40:53	0	0,832832	2,937548	1,97925	0,1188	-0,084	86,469	0	1012,72	6,4	8,6	8,4	1	1	1	1	1	1	1	1	1	0	1	-4,087385	273,733377	314,254715	0
15.01.2021	08:40:54	0	0,475904	2,711582	1,9305	21,3768	-0,086	86,457	0	1012,78	6,4	8,6	8,4	1	1	1	1	1	1	1	1	1	0	1	-5,919662	273,756818	312,531498	0
15.01.2021	08:40:55	0	0,59488	2,824565	1,8525	8,9928	-0,084	86,47	0	1012,62	6,4	8,6	8,4	1	1	1	1	1	1	1	1	1	0	1	-7,82241	273,865607	311,135251	0
15.01.2021	08:40:56	0	0,594884	4,632287	1,86675	13,6332	-0,083	86,468	0	1012,68	6,4	8,5	8,4	1	1	1	1	1	1	1	1	1	0	1	-9,302326	273,802317	309,360595	0
15.01.2021	08:40:57	0	0,832837	2,485617	1,87425	11,7144	-0,083	86,485	0	1012,84	6,4	8,5	8,4	1	1	1	1	1	1	1	1	1	0	1	-8,45666	273,707039	309,762941	0
15.01.2021	08:40:58	0	0,475904	3,954391	1,896	10,44	-0,084	86,483	0	1012,92	6,4	8,6	8,4	1	1	1	1	1	1	1	1	1	0	1	-4,087385	273,837616	314,739897	0
15.01.2021	08:40:59	0	0,35693	3,954391	1,94175	13,914	-0,086	86,499	0	1012,72	6,4	8,5	8,4	1	1	1	1	1	1	1	1	1	0	1	-8,597604	273,720203	309,683221	0
15.01.2021	08:41:00	0	0,713861	4,180356	1,896	16,848	-0,09	86,455	0	1012,82	6,4	8,5	8,4	1	1	1	1	1	1	1	1	1	0	1	-7,82241	273,867081	311,14212	0
15.01.2021	08:41:01	0	0,713861	2,824565	1,76475	20,6244	-0,086	86,466	0	1012,6	6,4	8,5	8,4	1	1	1	1	1	1	1	1	1	0	1	-11,06413	273,75975	307,400674	0
15.01.2021	08:41:02	0	0,713861	2,824565	1,76475	20,6244	-0,086	86,466	0	1012,6	6,4	8,5	8,4	1	1	1	1	1	1	1	1	1	0	1	-0	273,715814	318,260411	0
15.01.2021	08:41:03	0	0,59488	4,180356	1,74675	23,9652	-0,083	86,457	0	1012,72	6,4	8,6	8,4	1	1	1	1	1	1	1	1	1	0	1	-12,05074	273,797909	306,591661	0
15.01.2021	08:41:04	0	0,713861	3,276495	1,82475	27,378	-0,08	86,489	0	1012,76	6,4	8,5	8,4	1	1	1	1	1	1	1	1	1	0	1	-4,721635	273,702653	313,477569	0
15.01.2021	08:41:05	0	0,475907	4,067374	1,95975	1,1664	-0,085	86,488	0	1012,68	6,4	8,5	8,4	1	1	1	1	1	1	1	1	1	0	1	-7,82241	273,749489	310,594651	0
15.01.2021	08:41:06	0	0,237952	2,824565	1,9605	14,2884	-0,09	86,485	0	1012,74	6,4	8,6	8,4	1	1	1	1	1	1	1	1	1	0	1	-7,540521	273,756818	310,910638	0
15.01.2021	08:41:07	0	0,237954	2,824565	1,872	19,8936	-0,084	86,491	0	1012,8	6,4	8,5	8,4	1	1	1	1	1	1	1	1	1	0	1	-5,496829	273,701191	312,695577	0
15.01.2021	08:41:08	0	0,475907	3,389478	1,7685	16,0812	-0,083	86,485	0	1012,74	6,4	8,5	8,4	1	1	1	1	1	1	1	1	1	0	1	-5,778717	273,824371	312,986887	0
15.01.2021	08:41:09	0	0,594884	4,745269	1,8405	12,8376	-0,086	86,489	0	1012,78	6,4	8,5	8,4	1	1	1	1	1	1	1	1	1	0	1	-4,157858	273,877405	314,854769	0
15.01.2021	08:41:10	0	0,832832	3,502461	1,94175	12,834	-0,09	86,47	0	1012,7	6,4	8,6	8,4	1	1	1	1	1	1	1	1	1	0	1	-3,312192	273,830256	315,480819	0
15.01.2021	08:41:11	0	0,475907	3,954391	1,9665	12,4632	-0,083	86,487	0	1012,76	6,4	8,5	8,4	1	1	1	1	1	1	1	1	1	0	1	-5,84919	273,852343	313,046685	0
15.01.2021	08:41:12	0	0,832837	2,824565	1,90275	8,2512	-0,083	86,488	0	1012,78	6,4	8,5	8,4	1	1	1	1	1	1	1	1	1	0	1	-6,412967	273,721667	311,874664	0
15.01.2021	08:41:13	0	0,59488	2,824565	1,88175	17,694	-0,086	86,487	0	1012,82	6,4	8,6	8,4	1	1	1	1	1	1	1	1	1	0	1	-6,272023	273,817017	312,459338	0
15.01.2021	08:41:14	0	0,713861	3,954391	1,8465	14,2992	-0,084	86,486	0	1012,82	6,4	8,5	8,4	1	1	1	1	1	1	1	1	1	0	1	-8,668076	273,85971	310,262118	0
15.01.2021	08:41:15	0	0,475907	2,5986	1,8375	12,8376	-0,089	86,483	0	1012,62	6,4	8,5	8,4	1	1	1	1	1	1	1	1	1	0	1	-7,681466	273,762683	310,796984	0
15.01.2021	08:41:16	0	0,356928	2,824565	1,89225	20,2752	-0,086	86,492	0	1012,92	6,4	8,6	8,4	1	1	1	1	1	1	1	1	1	0	1	-8,668076	273,748024	309,742167	0
15.01.2021	08:41:17	0	0,35693	3,954391	1,8915	19,1412	-0,085	86,484	0	1012,66	6,4	8,5	8,4	1	1	1	1	1	1	1	1	1	0	1	-9,795631	273,705577	308,41717	0
15.01.2021	08:41:18	0	0,832837	4,745269	1,935	13,914	-0,09	86,49	0	1012,66	6,4	8,5	8,4	1	1	1	1	1	1	1	1	1	0	1	-4,22833	273,777352	314,318389	0
15.01.2021	08:41:19	0	0,59488	4,406321	1,92975	18,0684	-0,088	86,489	0	1012,72	6,4	8,6	8,4	1	1	1	1	1	1	1	1	1	0	1	-7,399577	273,711426	310,840426	0
15.01.2021	08:41:20	0	0,475907	3,163513	1,95675	19,9008	-0,091	86,494	0	1012,76	6,4	8,5	8,4	1	1	1	1	1	1	1	1	1	0	1	-10,007047	273,877405	309,005579	0
15.01.2021	08:41:21	0	0,951814	3,276495	2,0805	15,3936	-0,09	86,485	0	1012,72	6,4	8,5	8,4	1	1	1	1	1	1	1	1	1	0	1	-5,567301	273,75975	312,897502	0
15.01.2021	08:41:22	0	0,475907	3,841408	2,03925	18,5472	-0,085	86,502	0	1012,8	6,4	8,5	8,4	1	1	1	1	1	1	1	1	1	0	1	-2,889359	273,837616	315,937924	0
15.01.2021	08:41:23	0	0,475904	3,389478	1,98525	7,884	-0,086	86,502	0	1012,78	6,4	8,6	8,4	1	1	1	1	1	1	1	1	1	0	1	-10,711769	273,871505	308,27337	0
15.01.2021	08:41:24	0	0,475907	3,276495	1,94775	17,2224	-0,082	86,506	0	1012,8	6,4	8,5	8,4	1	1	1	1	1	1	1	1	1	0	1	-7,188161	273,771483	311,331243	0
15.01.2021	08:41:25	0	0,475907	4,406321	2,00925	15,7788	-0,09	86,5	0	1012,72	6,4	8,5	8,4	1	1	1	1	1	1	1	1	1	0	1	-3,523608	273,862658	315,420318	0
15.01.2021	08:41:26	0	0,594884	2,711582	2,02875	13,914	-0,085	86,481	0	1012,68	6,4	8,5	8,4	1	1	1	1	1	1	1	1	1	0	1	-8,033827	273,79644	310,601736	0
15.01.2021	08:41:27	0	0,475904	3,841408	2,07525	13,554	-0,084	86,495	0	1012,64	6,4	8,6	8,4	1	1	1	1	1	1	1	1	1	0	1	-12,191684	273,87003	306,786584	0
15.01.2021	08:41:28	0	0,713861	2,711582	2,14575	18,072	-0,087	86,503	0	1012,74	6,4	8,5	8,4	1	1	1	1	1	1	1	1	1	0	1	-10,007047	273,874454	308,991834	0
15.01.2021	08:41:29	0	1,070791	2,824565	2,1705	14,3064	-0,09	86,491	0	1012,66	6,4	8,5	8,4	1	1	1	1	1	1	1	1	1	0	1	-4,157858	273,749489	314,259204	0
15.01.2021	08:41:30	0	0,59488	4,180356	2,20725	17,2224	-0,092	86,494	0	1012,8	6,4	8,6	8,4	1	1	1	1	1	1	1	1	1	0	1	-5,496829	273,865607	313,460833	0
15.01.2021	08:41:31	0	0,832837	2,824565	2,21025	17,6904	-0,085	86,508	0	1012,88	6,4	8,5	8,4	1	1	1	1	1	1	1	1	1	0	1	-3,030303	273,707039	315,189297	0
15.01.2021	08:41:32	0	0,475907	3,276495	2,274	20,628	-0,08	86,498	0	1012,84	6,4	8,5	8,4	1	1	1	1	1	1	1	1	1	0	1	-8,80902	273,755352	309,635318	0
15.01.2021	08:41:33	0	0,475907	2,937548	2,2215	18,8352	-0,084	86,502	0	1012,74	6,4	8,5	8,4	1	1	1	1	1	1	1	1	1	0	1	-7,188161	273,701191	311,004245	0
15.01.2021	08:41:34	0	0,475907	2,937548	2,1915	5,202	-0,085	86,505	0	1012,74	6,4	8,5	8,4	1	1	1	1	1	1	1	1	1	0	1	-3,24172	273,708501	314,984681	0
15.01.2021	08:41:35	0	0,475907	3,163513	2,15025	6,8076	-0,086	86,509	0	1012,84	6,4	8,5	8,4	1	1	1	1	1	1	1	1	1	0	1	-9,513742	273,765616	308,978356	0
15.01.2021	08:41:36	0	0,594884	3,841408	2,0415	4,1004	-0,08	86,507	0	1012,86	6,4	8,5	8,4	1	1	1	1	1	1	1	1	1	0	1	-5,144468	273,701191	313,047938	0
15.01.2021	08:41:37	0	0,475907	3,615443	1,90125	10,4544	-0,083	86,505	0	1012,88	6,4	8,5	8,4	1	1	1	1	1	1	1	1	1	0	1	-7,681466	273,784691	310,899411	0
15.01.2021	08:41:38	0	0,475907	2,485617	1,8045	0,8676	-0,076	86,509	0	1012,86	6,4	8,5	8,4	1	1	1	1	1	1	1	1	1	0	1	-5,708245	273,858237	313,215084	0
15.01.2021	08:41:39	0	0,713861	3,163513	1,76925	3,7656	-0,086	86,485	0	1012,8	6,4	8,5	8,4	1	1	1	1	1	1	1	1	1	0	1	-1,127555	273,743629	317,262239	0
15.01.2021	08:41:40	0	0,594884	2,5986	1,74225	18,8316	-0,083	86,498	0	1012,66	6,4	8,5	8,4	1	1	1	1	1	1	1	1	1	0	1	-5,21494	273,849396	313,667211	0
15.01.2021	08:41:41	0	0,35693	3,163513	1,734	17,226	-0,085	86,508	0	1012,68	6,4	8,5	8,4	1	1	1	1	1	1	1	1	1	0	1	-4,439746	273,704115	313,766256	0
15.01.2021	08:41:42	0	0,35693	2,937548	1,64475	9,7416	-0,084	86,506	0	1012,78	6,4	8,5	8,4	1	1	1	1	1	1	1	1	1	0	1	-5,073996	273,745094	313,322614	0
15.01.2021	08:41:43	0	0,35693	3,389478	1,6395	7,1316	-0,085	86,505	0	1012,74	6,4	8,5	8,4	1	1	1	1	1	1	1	1	1	0	1	-3,24172	273,748024	315,168524	0
15.01.2021	08:41:44	0	0,475907	4,745269	1,692	8,6112	-0,083	86,52	0	1012,74	6,4	8,5	8,4	1	1	1	1	1	1	1	1	1	0	1	-5,778717	273,872979	313,213292	0
15.01.2021	08:41:45	0	0,832837	4,858252	1,79475	5,6664	-0,085	86,506	0	1012,76	6,4	8,5	8,4	1	1	1	1	1	1	1	1	1	0	1	-5,637773	273,842033	313,21008	0
15.01.2021	08:41:46	0	0,59488	3,728426	1,932	7,128	-0,083	86,505	0	1012,86	6,4	8,6	8,4	1	1	1	1	1	1	1	1	1	0	1	-4,087385	273,764149	314,397888	0
15.01.2021	08:41:47	0	0,832837	3,163513	2,01525	10,0656	-0,086	86,514	0	1012,76	6,4	8,5	8,4	1	1	1	1	1	1	1	1	1	0	1	-8,80902	273,701191	309,383385	0
15.01.2021	08:41:48	0	0,951814	4,406321	2,1	11,1924	-0,082	86,514	0	1012,9	6,4	8,5	8,4	1	1	1	1	1	1	1	1	1	0	1	-5,285412	273,775885	313,254477	0
15.01.2021	08:41:49	0	0,713861	2,937548	2,26425	1,5588	-0,078	86,527	0	1012,8	6,4	8,5	8,4	1	1	1	1	1	1	1	1	1	0	1	-5,003524	273,711426	313,236479	0
15.01.2021	08:41:50	0	0,951814	3,163513	2,5485	8,2728	-0,087	86,517	0	1012,72	6,4	8,5	8,4	1	1	1	1	1	1	1	1	1	0	1	-2,043693	273,867081	316,920837	0
15.01.2021	08:41:51	0	1,070791	4,745269	2,6535	10,4544	-0,081	86,517	0	1012,76	6,4	8,5	8,4	1	1	1	1	1	1	1	1	1	0	1	-7,82241	273,79644	310,813153	0
15.01.2021	08:41:52	0	0,713861	3,502461	2,562	20,6208	-0,084	86,515	0	1012,78	6,4	8,5	8,4	1	1	1	1	1	1	1	1	1	0	1	-3,100775	273,705577	315,112026	0
15.01.2021	08:41:53	0	0,951814	4,406321	2,56125	19,1412	-0,088	86,508	0	1012,7	6,4	8,5	8,4	1	1	1	1	1	1	1	1	1	0	1	-5,355884	273,770016	313,156692	0
15.01.2021	08:41:54	0	0,594884	4,406321	2,50575	16,8588	-0,083	86,527	0	1012,86	6,4	8,5	8,4	1	1	1	1	1	1	1	1	1	0	1	-6,272023	273,704115	311,933979	0
15.01.2021	08:41:55	0	0,475907	2,937548	2,4525	13,158	-0,081	86,505	0	1012,76	6,4	8,5	8,4	1	1	1	1	1	1	1	1	1	0	1	-7,470049	273,87003	311,508219	0
15.01.2021	08:41:56	0	0,713861	3,163513	2,3775	22,0932	-0,087	86,525	0	1012,86	6,4	8,5	8,4	1	1	1	1	1	1	1	1	1	0	1	-6,412967	273,815546	312,311547	0
15.01.2021	08:41:57	0	0,832837	3,728426	2,295	18,4464	-0,088	86,519	0	1012,86	6,4	8,5	8,4	1	1	1	1	1	1	1	1	1	0	1	-5,637773	273,87003	313,340495	0
15.01.2021	08:41:58	0	0,594884	4,406321	2,2875	1,9152	-0,087	86,53	0	1012,8	6,4	8,5	8,4	1	1	1	1	1	1	1	1	1	0	1	-5,919662	273,803786	312,7501	0
15.01.2021	08:41:59	0	0,832837	3,276495	2,35125	356,5872	-0,082	86,522	0	1012,8	6,4	8,5	8,4	1	1	1	1	1	1	1	1	1	0	1	-8,104299	273,712889	310,142506	0
15.01.2021	08:42:00	0	0,713861	3,276495	2,49375	354,186	-0,082	86,518	0	1012,9	6,4	8,5	8,4	1	1	1	1	1	1	1	1	1	0	1	-0,070472	273,872979	318,921538	0
15.01.2021	08:42:01	0	0,713861	3,276495	2,49375	354,186	-0,082	86,518	0	1012,9	6,4	8,5	8,4	1	1	1	1	1	1	1	1	1	0	1	-0,070472	273,872979	318,921538	0
15.01.2021	08:42:02	0	1,070791	3,389478	2,42175	3,0096	-0,086	86,522	0	1012,78	6,4	8,5	8,4	1	1	1	1	1	1	1	1	1	0	1	-4,721635	273,780288	313,838745	0
15.01.2021	08:42:03	0	0,475907	2,937548	2,92425	1,1736	-0,084	86,522	0	1012,76	6,4	8,5	8,4	1	1	1	1	1	1	1	1	1	0	1	-3,875969	273,85971	315,054225	0
15.01.2021	08:42:04	0	0,713861	4,745269	3,3015	356,5548	-0,086	86,525	0	1012,7	6,4	8,5	8,4	1	1	1	1	1	1	1	1	1	0	1	-4,792107	273,727521	313,522753	0
15.01.2021	08:42:05	0	0,475907	2,711582	3,4935	5,2272	-0,087	86,529	0	1013,02	6,4	8,5	8,4	1	1	1	1	1	1	1	1	1	0	1	-2,466526	273,711426	315,773477	0
15.01.2021	08:42:06	0	1,070791	4,745269	3,426	359,082	-0,091	86,526	0	1012,78	6,4	8,5	8,4	1	1	1	1	1	1	1	1	1	0	1	-4,22833	273,739234	314,14102	0
15.01.2021	08:42:07	0	0,713861	4,406321	3,234	12,0816	-0,083	86,524	0	1012,78	6,4	8,5	8,4	1	1	1	1	1	1	1	1	1	0	1	-3,735025	273,834672	315,078547	0
15.01.2021	08:42:08	0	0,594884	4,180356	2,86125	9,3528	-0,083	86,524	0	1012,56	6,4	8,5	8,4	1	1	1	1	1	1	1	1	1	0	1	-9,090909	273,884782	309,956091	0
15.01.2021	08:42:09	0	0,951814	5,084217	2,745	2,6172	-0,085	86,537	0	1012,84	6,4	8,5	8,4	1	1	1	1	1	1	1	1	1	0	1	-2,396054	273,819958	316,349003	0
15.01.2021	08:42:10	0	0,594884	3,841408	2,625	20,2788	-0,086	86,512	0	1012,76	6,4	8,5	8,4	1	1	1	1	1	1	1	1	1	0	1	-5,567301	273,862658	313,376626	0
15.01.2021	08:42:11	0	1,189768	3,841408	2,66025	7,506	-0,084	86,543	0	1012,76	6,4	8,5	8,4	1	1	1	1	1	1	1	1	1	0	1	-5,778717	273,749489	312,638344	0
15.01.2021	08:42:12	0	0,713861	4,293339	2,772	10,8108	-0,085	86,525	0	1012,72	6,4	8,5	8,4	1	1	1	1	1	1	1	1	1	0	1	-4,721635	273,743629	313,668159	0
15.01.2021	08:42:13	0	0,594884	5,1972	2,75925	21,3912	-0,087	86,537	0	1012,76	6,4	8,5	8,4	1	1	1	1	1	1	1	1	1	0	1	-8,949965	273,880355	310,076409	0
15.01.2021	08:42:14	0	0,951814	5,084217	2,56725	17,6832	-0,086	86,544	0	1012,84	6,4	8,5	8,4	1	1	1	1	1	1	1	1	1	0	1	-6,483439	273,817017	312,247921	0
15.01.2021	08:42:15	0	0,832837	4,519304	2,4765	13,1508	-0,088	86,532	0	1012,74	6,4	8,5	8,4	1	1	1	1	1	1	1	1	1	0	1	-7,258633	273,85971	311,671561	0
15.01.2021	08:42:16	0	0,713861	2,711582	2,628	360	-0,085	86,546	0	1012,78	6,4	8,5	8,4	1	1	1	1	1	1	1	1	1	0	1	-6,553911	273,847923	312,321379	0
15.01.2021	08:42:17	0	0,713861	3,502461	2,89425	0,8748	-0,084	86,556	0	1012,7	6,4	8,5	8,4	1	1	1	1	1	1	1	1	1	0	1	-5,778717	273,72313	312,51572	0
15.01.2021	08:42:18	0	0,951814	2,824565	2,86875	358,4232	-0,08	86,554	0	1012,76	6,4	8,5	8,4	1	1	1	1	1	1	1	1	1	0	1	-4,933051	273,705577	313,279749	0
15.01.2021	08:42:19	0	0,951814	5,084217	3,066	10,4292	-0,087	86,526	0	1012,62	6,4	8,5	8,4	1	1	1	1	1	1	1	1	1	0	1	-0,352361	273,812606	318,358461	0
15.01.2021	08:42:20	0	0,832837	4,632287	3,32175	2,304	-0,088	86,541	0	1012,8	6,4	8,5	8,4	1	1	1	1	1	1	1	1	1	0	1	-1,761804	273,858237	317,161525	0
15.01.2021	08:42:21	0	0,713861	3,276495	3,2865	352,8252	-0,089	86,538	0	1012,68	6,4	8,5	8,4	1	1	1	1	1	1	1	1	1	0	1	-6,765328	273,733377	311,576772	0
15.01.2021	08:42:22	0	0,832837	4,519304	3,2445	353,898	-0,088	86,552	0	1012,82	6,4	8,5	8,4	1	1	1	1	1	1	1	1	1	0	1	-5,778717	273,855289	313,130883	0
15.01.2021	08:42:23	0	0,594884	3,615443	3,13425	350,6868	-0,091	86,55	0	1012,74	6,4	8,5	8,4	1	1	1	1	1	1	1	1	1	0	1	-3,875969	273,701191	314,316437	0
15.01.2021	08:42:24	0	0,832837	4,519304	3,08925	348,4188	-0,088	86,539	0	1012,78	6,4	8,5	8,4	1	1	1	1	1	1	1	1	1	0	1	-5,073996	273,819958	313,67106	0
15.01.2021	08:42:25	0	0,713861	4,406321	2,7975	10,0296	-0,083	86,554	0	1012,82	6,4	8,5	8,4	1	1	1	1	1	1	1	1	1	0	1	-8,80902	273,871505	310,176118	0
15.01.2021	08:42:26	0	0,951814	4,632287	2,5815	40,5828	-0,089	86,546	0	1012,62	6,4	8,5	8,4	1	1	1	1	1	1	1	1	1	0	1	-7,470049	273,812606	311,240773	0
15.01.2021	08:42:27	0	0,475907	4,067374	2,7345	23,2056	-0,084	86,542	0	1012,66	6,4	8,5	8,4	1	1	1	1	1	1	1	1	1	0	1	-2,396054	273,85971	316,534141	0
15.01.2021	08:42:28	0	1,070791	3,502461	3,01125	23,9688	-0,085	86,557	0	1012,78	6,5	8,5	8,4	1	1	1	1	1	1	1	1	1	0	1	-4,933051	273,8332	313,873666	0
15.01.2021	08:42:29	0	0,951814	3,615443	3,1035	30,9996	-0,087	86,555	0	1012,62	6,4	8,5	8,4	1	1	1	1	1	1	1	1	1	0	1	-4,580691	273,746559	313,822736	0
15.01.2021	08:42:30	0	0,713861	3,954391	3,11325	34,686	-0,086	86,542	0	1012,84	6,4	8,5	8,4	1	1	1	1	1	1	1	1	1	0	1	-0,352361	273,825842	318,420094	0
15.01.2021	08:42:31	0	0,59488	3,954391	3,11475	24,7068	-0,085	86,548	0	1012,92	6,4	8,6	8,4	1	1	1	1	1	1	1	1	1	0	1	-7,82241	273,75242	310,608288	0
15.01.2021	08:42:32	0	0,951814	3,502461	2,94675	26,1684	-0,085	86,553	0	1012,78	6,4	8,5	8,4	1	1	1	1	1	1	1	1	1	0	1	-4,862579	273,71874	313,41144	0
15.01.2021	08:42:33	0	0,713861	2,824565	2,82825	29,9448	-0,084	86,554	0	1012,84	6,4	8,5	8,4	1	1	1	1	1	1	1	1	1	0	1	-3,382664	273,755352	315,061675	0
15.01.2021	08:42:34	0	0,713861	3,389478	2,613	27,6552	-0,088	86,545	0	1012,68	6,4	8,5	8,4	1	1	1	1	1	1	1	1	1	0	1	-7,751938	273,714352	310,50167	0
15.01.2021	08:42:35	0	0,713861	2,937548	2,592	36,9324	-0,084	86,554	0	1012,58	6,4	8,5	8,4	1	1	1	1	1	1	1	1	1	0	1	-2,889359	273,72313	315,405079	0
15.01.2021	08:42:36	0	0,475907	4,293339	2,60775	30,762	-0,086	86,547	0	1012,8	6,4	8,5	8,4	1	1	1	1	1	1	1	1	1	0	1	-4,087385	273,849396	314,794765	0
15.01.2021	08:42:37	0	0,594884	2,824565	2,61675	3,0204	-0,084	86,557	0	1012,84	6,4	8,5	8,4	1	1	1	1	1	1	1	1	1	0	1	-3,453136	273,867081	315,511394	0
15.01.2021	08:42:38	0	0,713861	4,519304	2,7255	22,0716	-0,091	86,541	0	1012,76	6,4	8,5	8,4	1	1	1	1	1	1	1	1	1	0	1	-1,832276	273,828785	316,953882	0
15.01.2021	08:42:39	0	0,713861	3,163513	2,82375	22,1724	-0,087	86,555	0	1012,78	6,4	8,5	8,4	1	1	1	1	1	1	1	1	1	0	1	-0	273,739234	318,36935	0
15.01.2021	08:42:40	0	0,951814	3,728426	2,59275	40,6296	-0,086	86,538	0	1012,72	6,4	8,5	8,4	1	1	1	1	1	1	1	1	1	0	1	-7,470049	273,696807	310,701967	0
15.01.2021	08:42:41	0	0,832832	2,824565	2,361	25,4016	-0,088	86,549	0	1012,84	6,4	8,6	8,4	1	1	1	1	1	1	1	1	1	0	1	-8,738548	273,780288	309,821832	0
15.01.2021	08:42:42	0	0,951814	2,937548	2,502	28,7244	-0,09	86,532	0	1012,88	6,4	8,5	8,4	1	1	1	1	1	1	1	1	1	0	1	-7,540521	273,87003	311,437747	0
15.01.2021	08:42:43	0	1,070791	3,502461	2,556	360	-0,085	86,529	0	1012,86	6,4	8,5	8,4	1	1	1	1	1	1	1	1	1	0	1	-1,198027	273,733377	317,144073	0
15.01.2021	08:42:44	0	0,832837	4,632287	2,7945	23,2164	-0,086	86,543	0	1012,98	6,4	8,5	8,4	1	1	1	1	1	1	1	1	1	0	1	-5,073996	273,79644	313,561567	0
15.01.2021	08:42:45	0	0,832837	4,180356	2,868	22,8384	-0,092	86,547	0	1012,82	6,4	8,5	8,4	1	1	1	1	1	1	1	1	1	0	1	-7,963354	273,872979	311,028655	0
15.01.2021	08:42:46	0	1,070791	4,632287	2,8635	6,786	-0,092	86,542	0	1012,74	6,4	8,5	8,4	1	1	1	1	1	1	1	1	1	0	1	-5,073996	273,774418	313,459064	0
15.01.2021	08:42:47	0	0,832837	3,728426	3,12675	6,066	-0,091	86,546	0	1012,86	6,4	8,5	8,4	1	1	1	1	1	1	1	1	1	0	1	-10,852713	273,87003	308,125555	0
15.01.2021	08:42:48	0	0,832837	2,485617	3,495	5,2164	-0,081	86,553	0	1012,78	6,4	8,5	8,4	1	1	1	1	1	1	1	1	1	0	1	-1,127555	273,755352	317,316784	0
15.01.2021	08:42:49	0	0,832837	2,372635	3,77325	0,4824	-0,089	86,555	0	1012,84	6,4	8,5	8,4	1	1	1	1	1	1	1	1	1	0	1	-4,369274	273,724593	313,93197	0
15.01.2021	08:42:50	0	1,308745	4,632287	3,8235	7,128	-0,083	86,566	0	1012,82	6,5	8,5	8,4	1	1	1	1	1	1	1	1	1	0	1	-5,21494	273,847923	313,66035	0
15.01.2021	08:42:51	0	0,713861	4,406321	3,756	35,4852	-0,078	86,568	0	1012,84	6,4	8,5	8,4	1	1	1	1	1	1	1	1	1	0	1	-7,470049	273,75975	310,994754	0
15.01.2021	08:42:52	0	0,713861	4,971234	3,68475	35,0748	-0,081	86,557	0	1012,8	6,4	8,5	8,4	1	1	1	1	1	1	1	1	1	0	1	-0,140944	273,705577	318,071857	0
15.01.2021	08:42:53	0	1,427721	5,084217	3,48375	47,3436	-0,086	86,552	0	1012,84	6,4	8,5	8,4	1	1	1	1	1	1	1	1	1	0	1	-7,751938	273,815546	310,972576	0
15.01.2021	08:42:54	0	0,713861	5,310182	3,024	52,11	-0,087	86,555	0	1012,76	6,4	8,5	8,4	1	1	1	1	1	1	1	1	1	0	1	-5,778717	273,836144	313,041709	0
15.01.2021	08:42:55	0	0,951814	3,615443	2,6115	24,3576	-0,083	86,565	0	1012,8	6,4	8,5	8,4	1	1	1	1	1	1	1	1	1	0	1	-7,540521	273,733377	310,801579	0
15.01.2021	08:42:56	0	0,951814	2,711582	2,58	355,3092	-0,084	86,557	0	1012,8	6,4	8,5	8,4	1	1	1	1	1	1	1	1	1	0	1	-2,396054	273,8332	316,410664	0
15.01.2021	08:42:57	0	0,832837	3,05053	2,50275	22,5432	-0,083	86,564	0	1012,8	6,5	8,5	8,4	1	1	1	1	1	1	1	1	1	0	1	-0,98661	273,714352	317,266997	0
15.01.2021	08:42:58	0	0,951814	2,485617	2,283	19,152	-0,084	86,555	0	1012,8	6,4	8,5	8,4	1	1	1	1	1	1	1	1	1	0	1	-3,875969	273,819958	314,869087	0
15.01.2021	08:42:59	0	0,951814	4,519304	2,2695	24,3324	-0,085	86,559	0	1012,76	6,4	8,5	8,4	1	1	1	1	1	1	1	1	1	0	1	-5,567301	273,846451	313,301129	0
15.01.2021	08:43:00	0	0,951814	4,067374	2,59725	7,884	-0,089	86,569	0	1012,88	6,3	8,5	8,4	1	1	1	1	1	1	1	1	1	0	1	-5,708245	273,853816	313,194492	0
15.01.2021	08:43:01	0	0,951814	4,067374	2,59725	7,884	-0,089	86,569	0	1012,88	6,3	8,5	8,4	1	1	1	1	1	1	1	1	1	0	1	-5,708245	273,853816	313,194492	0
15.01.2021	08:43:02	0	0,713861	3,502461	2,65575	13,536	-0,088	86,549	0	1012,68	6,4	8,5	8,4	1	1	1	1	1	1	1	1	1	0	1	-5,637773	273,711426	312,60223	0
15.01.2021	08:43:03	0	0,832837	2,711582	2,5185	2,2968	-0,089	86,546	0	1012,86	6,4	8,5	8,4	1	1	1	1	1	1	1	1	1	0	1	-3,805497	273,736305	314,550227	0
15.01.2021	08:43:04	0	0,951814	4,632287	2,44725	25,3908	-0,091	86,567	0	1012,7	6,4	8,5	8,4	1	1	1	1	1	1	1	1	1	0	1	-3,453136	273,758284	315,004845	0
15.01.2021	08:43:05	0	0,951814	3,954391	2,70225	15,0264	-0,091	86,559	0	1012,78	6,4	8,5	8,4	1	1	1	1	1	1	1	1	1	0	1	-4,22833	273,864132	314,722464	0
15.01.2021	08:43:06	0	1,189768	3,276495	3,00825	25,7832	-0,089	86,568	0	1012,66	6,4	8,5	8,4	1	1	1	1	1	1	1	1	1	0	1	-1,479915	273,821429	317,271989	0
15.01.2021	08:43:07	0	1,070791	4,745269	3,31575	24,336	-0,082	86,568	0	1012,9	6,4	8,5	8,4	1	1	1	1	1	1	1	1	1	0	1	-7,399577	273,717277	310,867638	0
15.01.2021	08:43:08	0	0,713861	2,824565	3,795	26,1648	-0,087	86,559	0	1012,72	6,4	8,5	8,4	1	1	1	1	1	1	1	1	1	0	1	-7,188161	273,830256	311,60485	0
15.01.2021	08:43:09	0	0,832837	4,519304	4,00425	38,7936	-0,091	86,563	0	1012,64	6,4	8,5	8,4	1	1	1	1	1	1	1	1	1	0	1	-3,171247	273,704115	315,034755	0
15.01.2021	08:43:10	0	0,832837	3,163513	3,87975	27,6516	-0,091	86,55	0	1012,8	6,4	8,5	8,4	1	1	1	1	1	1	1	1	1	0	1	-4,651163	273,77295	313,875068	0
15.01.2021	08:43:11	0	1,070791	3,728426	3,67125	24,3432	-0,086	86,568	0	1012,82	6,4	8,5	8,4	1	1	1	1	1	1	1	1	1	0	1	-3,24172	273,819958	315,503337	0
15.01.2021	08:43:12	0	1,189768	3,389478	3,6015	28,3212	-0,084	86,557	0	1012,66	6,5	8,5	8,4	1	1	1	1	1	1	1	1	1	0	1	-7,610994	273,736305	310,74473	0
15.01.2021	08:43:13	0	0,951814	3,05053	3,31125	26,5068	-0,089	86,564	0	1012,8	6,5	8,5	8,4	1	1	1	1	1	1	1	1	1	0	1	-3,59408	273,728984	314,727589	0
15.01.2021	08:43:14	0	1,189768	2,937548	3,1125	24,3396	-0,088	86,574	0	1012,78	6,4	8,5	8,4	1	1	1	1	1	1	1	1	1	0	1	-5,355884	273,865607	313,601777	0
15.01.2021	08:43:15	0	1,070791	3,502461	2,97225	19,8936	-0,091	86,567	0	1012,8	6,3	8,5	8,4	1	1	1	1	1	1	1	1	1	0	1	-6,694856	273,765616	311,797243	0
15.01.2021	08:43:16	0	0,832837	3,502461	3,015	28,7172	-0,088	86,587	0	1012,74	6,4	8,5	8,4	1	1	1	1	1	1	1	1	1	0	1	-5,285412	273,872979	313,706598	0
15.01.2021	08:43:17	0	0,832837	4,406321	2,9025	23,5908	-0,087	86,578	0	1012,8	6,4	8,5	8,4	1	1	1	1	1	1	1	1	1	0	1	-11,486963	273,834672	307,326609	0
15.01.2021	08:43:18	0	0,713861	4,406321	2,7315	19,8972	-0,084	86,593	0	1012,84	6,4	8,5	8,4	1	1	1	1	1	1	1	1	1	0	1	-7,047216	273,847923	311,828074	0
15.01.2021	08:43:19	0	0,832837	2,824565	2,63775	23,9472	-0,084	86,596	0	1012,8	6,4	8,5	8,4	1	1	1	1	1	1	1	1	1	0	1	-5,285412	273,875929	313,720341	0
15.01.2021	08:43:20	0	1,070791	4,745269	2,73	20,2752	-0,084	86,59	0	1012,72	6,3	8,5	8,4	1	1	1	1	1	1	1	1	1	0	1	-7,681466	273,842033	311,166388	0
15.01.2021	08:43:21	0	0,832837	4,745269	2,75625	21,0132	-0,093	86,584	0	1012,76	6,4	8,5	8,4	1	1	1	1	1	1	1	1	1	0	1	-5,285412	273,814076	313,432255	0
15.01.2021	08:43:22	0	1,189768	3,954391	2,70375	17,2296	-0,087	86,591	0	1012,78	6,5	8,5	8,4	1	1	1	1	1	1	1	1	1	0	1	-7,540521	273,881831	311,492727	0
15.01.2021	08:43:23	0	0,832837	3,05053	2,7195	20,2824	-0,087	86,604	0	1012,78	6,4	8,5	8,4	1	1	1	1	1	1	1	1	1	0	1	-6,483439	273,780288	312,076941	0
15.01.2021	08:43:24	0	0,951814	4,293339	2,6595	22,0716	-0,088	86,589	0	1012,72	6,4	8,5	8,4	1	1	1	1	1	1	1	1	1	0	1	-5,919662	273,871505	313,065477	0
15.01.2021	08:43:25	0	1,070791	3,276495	2,64	19,9008	-0,081	86,589	0	1012,88	6,4	8,5	8,4	1	1	1	1	1	1	1	1	1	0	1	-5,003524	273,784691	313,577353	0
15.01.2021	08:43:26	0	0,832837	3,05053	2,68125	26,172	-0,09	86,601	0	1012,76	6,4	8,5	8,4	1	1	1	1	1	1	1	1	1	0	1	-8,668076	273,704115	309,537926	0
15.01.2021	08:43:27	0	1,070791	2,824565	2,67675	14,6484	-0,083	86,591	0	1012,74	6,4	8,5	8,4	1	1	1	1	1	1	1	1	1	0	1	-7,047216	273,743629	311,342577	0
15.01.2021	08:43:28	0	0,832837	2,711582	2,72325	20,6352	-0,087	86,603	0	1012,88	6,4	8,5	8,4	1	1	1	1	1	1	1	1	1	0	1	-9,302326	273,71874	308,971694	0
15.01.2021	08:43:29	0	0,951814	3,841408	2,805	23,5764	-0,085	86,603	0	1012,74	6,4	8,5	8,4	1	1	1	1	1	1	1	1	1	0	1	-5,426357	273,727521	312,888504	0
15.01.2021	08:43:30	0	0,713861	3,05053	2,7555	19,5336	-0,085	86,6	0	1012,84	6,4	8,5	8,4	1	1	1	1	1	1	1	1	1	0	1	-4,721635	273,755352	313,722704	0
15.01.2021	08:43:31	0	0,832837	3,502461	2,6895	22,8204	-0,087	86,612	0	1012,9	6,4	8,5	8,4	1	1	1	1	1	1	1	1	1	0	1	-7,399577	273,883306	311,640547	0
15.01.2021	08:43:32	0	0,713861	2,5986	2,733	29,9412	-0,087	86,606	0	1012,78	6,4	8,5	8,4	1	1	1	1	1	1	1	1	1	0	1	-2,396054	273,771483	316,12335	0
15.01.2021	08:43:33	0	0,951814	3,728426	2,841	18,0684	-0,09	86,592	0	1012,84	6,4	8,5	8,4	1	1	1	1	1	1	1	1	1	0	1	-6,412967	273,721667	311,874664	0
15.01.2021	08:43:34	0	1,070791	3,163513	2,7375	31,4964	-0,09	86,612	0	1012,6	6,4	8,5	8,4	1	1	1	1	1	1	1	1	1	0	1	-10,993658	273,867081	307,970872	0
15.01.2021	08:43:35	0	1,189768	3,276495	2,66025	28,7352	-0,086	86,608	0	1012,66	6,5	8,5	8,4	1	1	1	1	1	1	1	1	1	0	1	-1,902748	273,827313	316,876558	0
15.01.2021	08:43:36	0	0,713861	3,615443	2,8125	27,2628	-0,084	86,62	0	1012,84	6,3	8,5	8,4	1	1	1	1	1	1	1	1	1	0	1	-6,412967	273,712889	311,833838	0
15.01.2021	08:43:37	0	1,308745	3,841408	2,811	19,89	-0,088	86,609	0	1012,84	6,4	8,5	8,4	1	1	1	1	1	1	1	1	1	0	1	-9,725159	273,792033	308,889892	0
15.01.2021	08:43:38	0	0,832837	3,163513	2,7165	26,9136	-0,088	86,608	0	1012,82	6,5	8,5	8,4	1	1	1	1	1	1	1	1	1	0	1	-10,923185	273,721667	307,364445	0
15.01.2021	08:43:39	0	1,189768	4,745269	2,5695	19,8972	-0,085	86,607	0	1012,78	6,3	8,5	8,4	1	1	1	1	1	1	1	1	1	0	1	-3,59408	273,850869	315,294932	0
15.01.2021	08:43:40	0	0,832837	2,937548	2,448	16,4808	-0,089	86,615	0	1012,78	6,4	8,5	8,4	1	1	1	1	1	1	1	1	1	0	1	-8,668076	273,828785	310,118082	0
15.01.2021	08:43:41	0	1,070791	3,389478	2,27925	14,2956	-0,087	86,606	0	1012,84	6,4	8,5	8,4	1	1	1	1	1	1	1	1	1	0	1	-7,540521	273,702653	310,658682	0
15.01.2021	08:43:42	0	0,951814	3,954391	2,2695	16,956	-0,086	86,621	0	1012,98	6,5	8,5	8,4	1	1	1	1	1	1	1	1	1	0	1	-2,818887	273,742164	315,564092	0
15.01.2021	08:43:43	0	0,713861	4,745269	2,3025	18,8244	-0,094	86,618	0	1012,72	6,5	8,5	8,4	1	1	1	1	1	1	1	1	1	0	1	-4,651163	273,865607	314,306499	0
15.01.2021	08:43:44	0	1,308745	3,389478	2,331	27,6408	-0,093	86,619	0	1012,76	6,3	8,5	8,4	1	1	1	1	1	1	1	1	1	0	1	-10,641297	273,77295	307,884935	0
15.01.2021	08:43:45	0	0,832837	4,180356	2,469	20,6316	-0,086	86,639	0	1012,72	6,4	8,5	8,4	1	1	1	1	1	1	1	1	1	0	1	-8,174771	273,867081	310,789759	0
15.01.2021	08:43:46	0	1,189768	4,745269	2,478	26,9604	-0,09	86,618	0	1012,78	6,4	8,5	8,4	1	1	1	1	1	1	1	1	1	0	1	-3,664553	273,758284	314,793429	0
15.01.2021	08:43:47	0	0,832837	4,858252	2,51175	30,9996	-0,089	86,632	0	1012,64	6,5	8,5	8,4	1	1	1	1	1	1	1	1	1	0	1	-5,144468	273,858237	313,778861	0
15.01.2021	08:43:48	0	1,070791	3,276495	2,40525	22,0788	-0,082	86,642	0	1012,78	6,4	8,5	8,4	1	1	1	1	1	1	1	1	1	0	1	-2,60747	273,746559	315,795956	0
15.01.2021	08:43:49	0	0,594884	3,954391	2,253	27,9612	-0,083	86,65	0	1012,9	6,4	8,5	8,4	1	1	1	1	1	1	1	1	1	0	1	-5,355884	273,880355	313,67049	0
15.01.2021	08:43:50	0	0,713861	4,293339	2,22675	27,9648	-0,086	86,639	0	1012,7	6,4	8,5	8,4	1	1	1	1	1	1	1	1	1	0	1	-7,610994	273,886258	311,442884	0
15.01.2021	08:43:51	0	0,951814	3,163513	2,10975	38,8044	-0,087	86,626	0	1012,8	6,3	8,5	8,4	1	1	1	1	1	1	1	1	1	0	1	-9,020437	273,844978	309,841134	0
15.01.2021	08:43:52	0	1,070791	3,163513	1,89675	9,0036	-0,089	86,639	0	1012,82	6,5	8,5	8,4	1	1	1	1	1	1	1	1	1	0	1	-12,825934	273,708501	305,400467	0
15.01.2021	08:43:53	0	1,070791	3,05053	1,73625	29,9448	-0,086	86,647	0	1012,78	6,5	8,5	8,4	1	1	1	1	1	1	1	1	1	0	1	-7,258633	273,79644	311,37693	0
15.01.2021	08:43:54	0	1,070791	3,163513	1,6905	14,6448	-0,084	86,652	0	1012,94	6,3	8,5	8,4	1	1	1	1	1	1	1	1	1	0	1	-6,906272	273,886258	312,147605	0
15.01.2021	08:43:55	0	1,308745	4,519304	1,80375	19,134	-0,087	86,643	0	1012,66	6,3	8,5	8,4	1	1	1	1	1	1	1	1	1	0	1	-9,020437	273,79644	309,615126	0
15.01.2021	08:43:56	0	0,951814	4,406321	1,89525	18,0756	-0,092	86,653	0	1012,7	6,4	8,5	8,4	1	1	1	1	1	1	1	1	1	0	1	-7,681466	273,899545	311,43433	0
15.01.2021	08:43:57	0	1,070791	4,180356	2,07675	22,8348	-0,086	86,642	0	1012,58	6,4	8,5	8,4	1	1	1	1	1	1	1	1	1	0	1	-5,778717	273,827313	313,000589	0
15.01.2021	08:43:58	0	0,832837	3,05053	2,16225	15,03	-0,088	86,643	0	1012,72	6,4	8,5	8,4	1	1	1	1	1	1	1	1	1	0	1	-8,315715	273,71874	309,958304	0
15.01.2021	08:43:59	0	1,070791	3,502461	2,199	30,9996	-0,087	86,662	0	1012,9	6,5	8,5	8,4	1	1	1	1	1	1	1	1	1	0	1	-4,298802	273,728984	314,022867	0
15.01.2021	08:44:00	0	1,070791	2,937548	2,3145	28,0476	-0,09	86,647	0	1012,76	6,5	8,5	8,4	1	1	1	1	1	1	1	1	1	0	1	-10,923185	273,872979	308,068824	0
15.01.2021	08:44:01	0	1,070791	2,937548	2,3145	28,0476	-0,09	86,647	0	1012,76	6,5	8,5	8,4	1	1	1	1	1	1	1	1	1	0	1	-7,047216	273,749489	311,369845	0
15.01.2021	08:44:02	0	1,070791	4,745269	2,301	25,794	-0,087	86,646	0	1012,72	6,5	8,5	8,4	1	1	1	1	1	1	1	1	1	0	1	-9,795631	273,715814	308,46478	0
15.01.2021	08:44:03	0	1,189768	2,937548	2,23275	22,4496	-0,08	86,665	0	1012,76	6,3	8,5	8,4	1	1	1	1	1	1	1	1	1	0	1	-6,20155	273,864132	312,749243	0
15.01.2021	08:44:04	0	1,070791	4,745269	2,32575	6,5376	-0,083	86,674	0	1012,74	6,4	8,5	8,4	1	1	1	1	1	1	1	1	1	0	1	-10,42988	273,784691	308,150997	0
15.01.2021	08:44:05	0	0,832837	3,389478	2,6265	18,0648	-0,082	86,66	0	1012,8	6,5	8,5	8,4	1	1	1	1	1	1	1	1	1	0	1	-8,668076	273,731912	309,667213	0
15.01.2021	08:44:06	0	1,189768	3,276495	2,7165	4,0824	-0,087	86,662	0	1012,82	6,4	8,5	8,4	1	1	1	1	1	1	1	1	1	0	1	-8,104299	273,77882	310,44925	0
15.01.2021	08:44:07	0	0,951814	3,728426	2,64525	7,4952	-0,083	86,682	0	1012,94	6,4	8,5	8,4	1	1	1	1	1	1	1	1	1	0	1	-4,862579	273,887734	314,198175	0
15.01.2021	08:44:08	0	1,189768	3,05053	2,45175	19,9008	-0,091	86,676	0	1012,72	6,5	8,5	8,4	1	1	1	1	1	1	1	1	1	0	1	-4,22833	273,767082	314,270594	0
15.01.2021	08:44:09	0	0,951814	3,163513	2,26725	3,0132	-0,086	86,681	0	1012,9	6,4	8,5	8,4	1	1	1	1	1	1	1	1	1	0	1	-5,778717	273,871505	313,206421	0
15.01.2021	08:44:10	0	1,189768	3,163513	2,2785	10,8072	-0,084	86,67	0	1012,82	6,3	8,5	8,4	1	1	1	1	1	1	1	1	1	0	1	-6,553911	273,73777	311,808625	0
15.01.2021	08:44:11	0	1,070791	4,406321	2,298	26,1612	-0,09	86,675	0	1012,84	6,3	8,5	8,4	1	1	1	1	1	1	1	1	1	0	1	-3,875969	273,792033	314,739082	0
15.01.2021	08:44:12	0	0,832837	2,033687	2,25075	12,5496	-0,08	86,688	0	1012,72	6,5	8,5	8,4	1	1	1	1	1	1	1	1	1	0	1	-7,82241	273,890686	311,252101	0
15.01.2021	08:44:13	0	0,951814	4,971234	2,325	10,062	-0,088	86,673	0	1012,8	6,4	8,5	8,4	1	1	1	1	1	1	1	1	1	0	1	-3,171247	273,862658	315,772679	0
15.01.2021	08:44:14	0	0,951814	4,745269	2,34225	9,7596	-0,084	86,666	0	1012,78	6,4	8,5	8,4	1	1	1	1	1	1	1	1	1	0	1	-8,104299	273,790565	310,503916	0
15.01.2021	08:44:15	0	0,951814	3,728426	2,24775	6,048	-0,082	86,69	0	1012,84	6,5	8,5	8,4	1	1	1	1	1	1	1	1	1	0	1	-3,312192	273,87003	315,666077	0
15.01.2021	08:44:16	0	1,070791	4,293339	2,274	8,6076	-0,084	86,68	0	1012,76	6,4	8,5	8,4	1	1	1	1	1	1	1	1	1	0	1	-5,778717	273,842033	313,069136	0
15.01.2021	08:44:17	0	0,832837	4,632287	2,3445	19,1448	-0,084	86,673	0	1012,72	6,4	8,5	8,4	1	1	1	1	1	1	1	1	1	0	1	-6,272023	273,88921	312,79561	0
15.01.2021	08:44:18	0	0,951814	4,971234	2,22825	15,012	-0,093	86,674	0	1012,7	6,5	8,5	8,4	1	1	1	1	1	1	1	1	1	0	1	-5,285412	273,850869	313,6036	0
15.01.2021	08:44:19	0	0,713861	2,824582	2,13	11,7144	-0,086	86,678	0	1012,76	6,5	8,5	8,3	1	1	1	1	1	1	1	1	1	0	1	-2,959831	273,746559	315,443595	0
15.01.2021	08:44:20	0	1,189768	4,632287	2,0685	18,0684	-0,079	86,69	0	1012,78	6,4	8,5	8,4	1	1	1	1	1	1	1	1	1	0	1	-6,553911	273,877405	312,458715	0
15.01.2021	08:44:21	0	1,189768	4,858252	1,93275	17,6868	-0,085	86,678	0	1012,82	6,5	8,5	8,4	1	1	1	1	1	1	1	1	1	0	1	-8,668076	273,792033	309,946975	0
15.01.2021	08:44:22	0	1,189768	4,745269	1,75725	16,0884	-0,083	86,68	0	1012,84	6,5	8,5	8,4	1	1	1	1	1	1	1	1	1	0	1	-5,426357	273,843505	313,428355	0
15.01.2021	08:44:23	0	1,070791	2,824565	1,77225	12,8376	-0,087	86,685	0	1012,72	6,4	8,5	8,4	1	1	1	1	1	1	1	1	1	0	1	-6,131078	273,712889	312,115727	0
15.01.2021	08:44:24	0	1,189768	3,050548	1,8135	19,1196	-0,085	86,69	0	1012,84	6,4	8,5	8,3	1	1	1	1	1	1	1	1	1	0	1	-9,866103	273,830256	308,926907	0
15.01.2021	08:44:25	0	0,832837	2,372649	1,94475	31,0032	-0,09	86,693	0	1012,92	6,4	8,5	8,3	1	1	1	1	1	1	1	1	1	0	1	-2,60747	273,728984	315,714199	0
15.01.2021	08:44:26	0	1,308745	2,937548	2,12775	18,0756	-0,09	86,682	0	1012,8	6,4	8,5	8,4	1	1	1	1	1	1	1	1	1	0	1	-10,782241	273,765616	307,709857	0
15.01.2021	08:44:27	0	1,070791	3,954391	2,265	23,9724	-0,089	86,7	0	1012,76	6,5	8,5	8,4	1	1	1	1	1	1	1	1	1	0	1	-6,553911	273,85971	312,376283	0
15.01.2021	08:44:28	0	0,832837	3,163513	2,3055	7,8804	-0,085	86,701	0	1012,76	6,5	8,5	8,4	1	1	1	1	1	1	1	1	1	0	1	-6,342495	273,720203	311,93833	0
15.01.2021	08:44:29	0	1,070791	3,615443	2,38575	15,7824	-0,087	86,701	0	1012,8	6,5	8,5	8,4	1	1	1	1	1	1	1	1	1	0	1	-2,748414	273,839088	316,085724	0
15.01.2021	08:44:30	0	1,070791	4,406321	2,20875	24,3324	-0,086	86,695	0	1012,86	6,5	8,5	8,4	1	1	1	1	1	1	1	1	1	0	1	-7,470049	273,881831	311,5632	0
15.01.2021	08:44:31	0	0,951814	3,728448	2,10225	14,2956	-0,087	86,702	0	1012,8	6,4	8,5	8,3	1	1	1	1	1	1	1	1	1	0	1	-10,359408	273,892162	308,721982	0
15.01.2021	08:44:32	0	1,427721	2,598615	2,097	21,7692	-0,087	86,684	0	1012,8	6,5	8,5	8,3	1	1	1	1	1	1	1	1	1	0	1	-6,272023	273,827313	312,507283	0
15.01.2021	08:44:33	0	1,070791	4,632287	2,16675	31,3956	-0,087	86,713	0	1012,94	6,3	8,5	8,4	1	1	1	1	1	1	1	1	1	0	1	-3,875969	273,753886	314,561549	0
15.01.2021	08:44:34	0	1,189768	2,824565	2,17725	23,9508	-0,082	86,684	0	1012,76	6,5	8,5	8,4	1	1	1	1	1	1	1	1	1	0	1	-4,792107	273,740699	313,584057	0
15.01.2021	08:44:35	0	1,070791	4,519304	2,193	25,3944	-0,084	86,695	0	1012,66	6,3	8,5	8,4	1	1	1	1	1	1	1	1	1	0	1	-3,59408	273,774418	314,938979	0
15.01.2021	08:44:36	0	1,070791	3,050548	2,211	26,1612	-0,083	86,707	0	1012,9	6,5	8,5	8,3	1	1	1	1	1	1	1	1	1	0	1	-10,359408	273,720203	307,921417	0
15.01.2021	08:44:37	0	0,832837	4,293339	2,21925	21,0132	-0,084	86,715	0	1012,88	6,3	8,5	8,4	1	1	1	1	1	1	1	1	1	0	1	-7,399577	273,834672	311,413995	0
15.01.2021	08:44:38	0	0,951814	3,502461	2,22975	38,7972	-0,085	86,711	0	1012,86	6,4	8,5	8,4	1	1	1	1	1	1	1	1	1	0	1	-4,087385	273,736305	314,268338	0
15.01.2021	08:44:39	0	1,308745	4,519304	2,26575	21,7548	-0,086	86,723	0	1012,88	6,4	8,5	8,4	1	1	1	1	1	1	1	1	1	0	1	-6,976744	273,764149	311,508529	0
15.01.2021	08:44:40	0	1,189768	2,937565	2,08875	26,5356	-0,087	86,699	0	1012,76	6,4	8,5	8,3	1	1	1	1	1	1	1	1	1	0	1	-5,426357	273,88921	313,641276	0
15.01.2021	08:44:41	0	1,427721	4,632287	1,9605	16,848	-0,089	86,699	0	1012,56	6,5	8,5	8,4	1	1	1	1	1	1	1	1	1	0	1	-5,84919	273,853816	313,053547	0
15.01.2021	08:44:42	0	1,070791	4,406321	1,893	10,8072	-0,087	86,71	0	1012,74	6,3	8,5	8,4	1	1	1	1	1	1	1	1	1	0	1	-11,134602	273,846451	307,733828	0
15.01.2021	08:44:43	0	0,951814	2,711582	1,8435	16,4736	-0,085	86,706	0	1012,88	6,4	8,5	8,4	1	1	1	1	1	1	1	1	1	0	1	-8,949965	273,899545	310,165831	0
15.01.2021	08:44:44	0	1,070791	4,067374	1,78575	16,4808	-0,082	86,719	0	1012,82	6,4	8,5	8,4	1	1	1	1	1	1	1	1	1	0	1	-5,778717	273,847923	313,096573	0
15.01.2021	08:44:45	0	0,832837	2,033687	1,80375	15,7824	-0,088	86,708	0	1012,8	6,4	8,5	8,4	1	1	1	1	1	1	1	1	1	0	1	-7,329105	273,758284	311,128876	0
15.01.2021	08:44:46	0	1,189768	2,937565	2,01525	28,35	-0,088	86,716	0	1012,78	6,4	8,5	8,3	1	1	1	1	1	1	1	1	1	0	1	-1,973221	273,750955	316,450659	0
15.01.2021	08:44:47	0	1,070791	3,841408	2,1315	27,2772	-0,08	86,711	0	1012,74	6,4	8,5	8,4	1	1	1	1	1	1	1	1	1	0	1	-10,147992	273,836144	308,672435	0
15.01.2021	08:44:48	0	1,189768	4,632287	2,1885	16,9452	-0,086	86,722	0	1012,78	6,4	8,5	8,4	1	1	1	1	1	1	1	1	1	0	1	-9,090909	273,884782	309,956091	0
15.01.2021	08:44:49	0	1,546698	2,824565	2,286	30,0312	-0,083	86,726	0	1012,84	6,4	8,5	8,4	1	1	1	1	1	1	1	1	1	0	1	-10,218464	273,777352	308,328255	0
15.01.2021	08:44:50	0	1,070791	4,180356	2,23575	18,45	-0,088	86,716	0	1012,84	6,4	8,5	8,4	1	1	1	1	1	1	1	1	1	0	1	-1,268499	273,770016	317,244077	0
15.01.2021	08:44:51	0	1,189768	4,519304	2,16675	22,8312	-0,085	86,726	0	1012,84	6,4	8,5	8,4	1	1	1	1	1	1	1	1	1	0	1	-13,742072	273,895115	305,353079	0
15.01.2021	08:44:52	0	0,951814	2,5986	2,0745	17,6976	-0,081	86,727	0	1012,78	6,3	8,5	8,4	1	1	1	1	1	1	1	1	1	0	1	-6,8358	273,836144	311,984627	0
15.01.2021	08:44:53	0	0,832837	2,937548	2,0505	26,5284	-0,083	86,719	0	1012,86	6,4	8,5	8,4	1	1	1	1	1	1	1	1	1	0	1	-11,275546	273,72313	307,018891	0
15.01.2021	08:44:54	0	1,189768	3,163513	2,18025	32,1516	-0,094	86,721	0	1012,7	6,4	8,5	8,4	1	1	1	1	1	1	1	1	1	0	1	-10,218464	273,799378	308,430777	0
15.01.2021	08:44:55	0	1,308745	4,293339	2,2005	32,4972	-0,087	86,732	0	1012,8	6,4	8,5	8,4	1	1	1	1	1	1	1	1	1	0	1	-5,708245	273,715814	312,552166	0
15.01.2021	08:44:56	0	1,308745	4,858252	2,1675	29,5524	-0,092	86,73	0	1012,78	6,4	8,5	8,4	1	1	1	1	1	1	1	1	1	0	1	-8,033827	273,777352	310,512892	0
15.01.2021	08:44:57	0	1,189768	2,711582	2,0715	18,828	-0,083	86,725	0	1012,84	6,4	8,5	8,4	1	1	1	1	1	1	1	1	1	0	1	-3,805497	273,714352	314,448111	0
15.01.2021	08:44:58	0	1,427721	3,954391	2,004	20,2896	-0,087	86,715	0	1012,88	6,5	8,5	8,4	1	1	1	1	1	1	1	1	1	0	1	-6,20155	273,824371	312,564054	0
15.01.2021	08:44:59	0	1,189768	4,971234	2,0325	34,3224	-0,084	86,729	0	1012,78	6,5	8,5	8,4	1	1	1	1	1	1	1	1	1	0	1	-7,82241	273,730448	310,506069	0
15.01.2021	08:45:00	0	1,070791	5,197231	1,90425	26,9064	-0,085	86,744	0	1012,66	6,4	8,5	8,3	1	1	1	1	1	1	1	1	1	0	1	-6,553911	273,809665	312,143222	0
15.01.2021	08:45:01	0	1,070791	5,197231	1,90425	26,9064	-0,085	86,744	0	1012,66	6,4	8,5	8,3	1	1	1	1	1	1	1	1	1	0	1	-6,553911	273,809665	312,143222	0
15.01.2021	08:45:02	0	1,070791	4,293339	1,956	20,2824	-0,082	86,737	0	1012,84	6,3	8,5	8,4	1	1	1	1	1	1	1	1	1	0	1	-6,765328	273,875929	312,240426	0
15.01.2021	08:45:03	0	1,189768	4,858281	2,0685	30,42	-0,085	86,743	0	1012,96	6,4	8,5	8,3	1	1	1	1	1	1	1	1	1	0	1	-5,637773	273,824371	313,127831	0
15.01.2021	08:45:04	0	1,189768	4,406348	2,08725	7,8948	-0,083	86,743	0	1012,82	6,4	8,5	8,3	1	1	1	1	1	1	1	1	1	0	1	-7,892882	273,903976	311,243565	0
15.01.2021	08:45:05	0	1,070791	3,05053	2,2815	12,096	-0,086	86,728	0	1012,82	6,4	8,5	8,4	1	1	1	1	1	1	1	1	1	0	1	-6,20155	273,824371	312,564054	0
15.01.2021	08:45:06	0	1,308745	4,632287	2,2995	16,182	-0,082	86,735	0	1012,8	6,4	8,5	8,4	1	1	1	1	1	1	1	1	1	0	1	-5,21494	273,733377	313,12716	0
15.01.2021	08:45:07	0	1,070791	4,067374	2,268	18,846	-0,089	86,734	0	1012,74	6,4	8,5	8,4	1	1	1	1	1	1	1	1	1	0	1	-5,21494	273,753886	313,222578	0
15.01.2021	08:45:08	0	0,951814	3,728448	2,22675	18,4464	-0,084	86,737	0	1012,76	6,5	8,5	8,3	1	1	1	1	1	1	1	1	1	0	1	-3,382664	273,886258	315,671213	0
15.01.2021	08:45:09	0	0,832837	2,937548	2,2725	35,0712	-0,084	86,736	0	1012,96	6,4	8,5	8,4	1	1	1	1	1	1	1	1	1	0	1	-9,372798	273,794971	309,255927	0
15.01.2021	08:45:10	0	1,189768	3,163513	2,16225	18,0828	-0,087	86,748	0	1012,92	6,4	8,5	8,4	1	1	1	1	1	1	1	1	1	0	1	-12,121212	273,87888	306,898288	0
15.01.2021	08:45:11	0	1,427721	3,728426	2,1435	41,5404	-0,085	86,739	0	1012,84	6,4	8,5	8,4	1	1	1	1	1	1	1	1	1	0	1	-3,946441	273,764149	314,538832	0
15.01.2021	08:45:12	0	1,070791	2,824565	2,08425	29,5776	-0,085	86,735	0	1012,82	6,4	8,5	8,4	1	1	1	1	1	1	1	1	1	0	1	-5,990134	273,781755	312,577078	0
15.01.2021	08:45:13	0	1,189768	2,937565	1,9845	22,0752	-0,089	86,737	0	1012,76	6,3	8,5	8,3	1	1	1	1	1	1	1	1	1	0	1	-10,359408	273,708501	307,866993	0
15.01.2021	08:45:14	0	1,070791	4,519304	2,0505	17,7804	-0,085	86,742	0	1012,86	6,4	8,5	8,4	1	1	1	1	1	1	1	1	1	0	1	-14,094433	273,819958	304,650623	0
15.01.2021	08:45:15	0	0,951814	3,163513	2,19525	26,9136	-0,083	86,752	0	1012,84	6,4	8,5	8,4	1	1	1	1	1	1	1	1	1	0	1	-6,553911	273,893638	312,534359	0
15.01.2021	08:45:16	0	1,427721	4,632314	2,229	36,9216	-0,085	86,739	0	1012,8	6,4	8,5	8,3	1	1	1	1	1	1	1	1	1	0	1	-4,22833	273,846451	314,6401	0
15.01.2021	08:45:17	0	1,070791	3,163513	2,16225	32,508	-0,09	86,757	0	1013,26	6,3	8,5	8,4	1	1	1	1	1	1	1	1	1	0	1	-6,412967	273,886258	312,64091	0
15.01.2021	08:45:18	0	1,308745	4,519304	2,0895	26,9856	-0,086	86,745	0	1012,74	6,4	8,5	8,4	1	1	1	1	1	1	1	1	1	0	1	-1,902748	273,855289	317,006852	0
15.01.2021	08:45:19	0	1,070791	2,937548	2,016	30,3048	-0,082	86,752	0	1012,86	6,4	8,5	8,4	1	1	1	1	1	1	1	1	1	0	1	-4,721635	273,830256	314,071375	0
15.01.2021	08:45:20	0	1,070791	4,406348	1,98675	24,7248	-0,081	86,758	0	1012,66	6,4	8,5	8,3	1	1	1	1	1	1	1	1	1	0	1	-6,483439	273,903976	312,653008	0
15.01.2021	08:45:21	0	1,427721	4,519304	2,0415	20,6244	-0,087	86,73	0	1012,84	6,3	8,5	8,4	1	1	1	1	1	1	1	1	1	0	1	-10,641297	273,818487	308,096911	0
15.01.2021	08:45:22	0	1,189768	4,180356	2,06925	6,534	-0,092	86,755	0	1012,9	6,3	8,5	8,4	1	1	1	1	1	1	1	1	1	0	1	-5,919662	273,770016	312,592914	0
15.01.2021	08:45:23	0	1,189768	4,519331	2,10975	7,128	-0,086	86,746	0	1012,78	6,4	8,5	8,3	1	1	1	1	1	1	1	1	1	0	1	-7,610994	273,712889	310,635811	0
15.01.2021	08:45:24	0	0,832837	2,485617	2,16225	13,914	-0,084	86,757	0	1012,84	6,3	8,5	8,4	1	1	1	1	1	1	1	1	1	0	1	-0,98661	273,809665	317,710523	0
15.01.2021	08:45:25	0	0,951814	2,937548	2,1435	11,1996	-0,091	86,749	0	1012,74	6,4	8,5	8,4	1	1	1	1	1	1	1	1	1	0	1	-6,483439	273,875929	312,522315	0
15.01.2021	08:45:26	0	1,070791	2,824565	2,05575	20,2716	-0,081	86,762	0	1012,7	6,4	8,5	8,4	1	1	1	1	1	1	1	1	1	0	1	-6,272023	273,774418	312,261037	0
15.01.2021	08:45:27	0	1,070791	4,067398	2,05875	18,8388	-0,09	86,738	0	1012,8	6,4	8,5	8,3	1	1	1	1	1	1	1	1	1	0	1	-4,792107	273,743629	313,597687	0
15.01.2021	08:45:28	0	0,951808	4,180356	2,073	17,6868	-0,086	86,743	0	1012,64	6,4	8,6	8,4	1	1	1	1	1	1	1	1	1	0	1	-5,84919	273,903976	313,287258	0
15.01.2021	08:45:29	0	1,546698	3,615443	2,1705	21,366	-0,086	86,756	0	1012,84	6,4	8,5	8,4	1	1	1	1	1	1	1	1	1	0	1	-4,580691	273,755352	313,863648	0
15.01.2021	08:45:30	0	1,189768	4,858252	2,21025	17,2188	-0,081	86,763	0	1012,88	6,3	8,5	8,4	1	1	1	1	1	1	1	1	1	0	1	-7,117689	273,774418	311,415371	0
15.01.2021	08:45:31	0	1,308745	2,711582	2,24925	29,5524	-0,084	86,736	0	1012,82	6,4	8,5	8,4	1	1	1	1	1	1	1	1	1	0	1	-5,426357	273,880355	313,600018	0
15.01.2021	08:45:32	0	1,308745	3,05053	2,45475	21,3804	-0,085	86,765	0	1012,88	6,4	8,5	8,4	1	1	1	1	1	1	1	1	1	0	1	-4,157858	273,789096	314,443522	0
15.01.2021	08:45:33	0	1,070791	3,502461	2,66175	19,9008	-0,092	86,758	0	1012,66	6,4	8,5	8,4	1	1	1	1	1	1	1	1	1	0	1	-5,84919	273,886258	313,204688	0
15.01.2021	08:45:34	0	1,189768	2,711582	2,78775	15,8004	-0,085	86,769	0	1012,56	6,4	8,5	8,4	1	1	1	1	1	1	1	1	1	0	1	-4,157858	273,75242	314,272841	0
15.01.2021	08:45:35	0	0,951814	3,389478	2,90925	18,0648	-0,086	86,76	0	1012,88	6,3	8,5	8,4	1	1	1	1	1	1	1	1	1	0	1	-3,875969	273,78616	314,711741	0
15.01.2021	08:45:36	0	1,070791	4,180381	2,9535	18,8244	-0,094	86,767	0	1012,72	6,4	8,5	8,3	1	1	1	1	1	1	1	1	1	0	1	-5,567301	273,746559	312,836125	0
15.01.2021	08:45:37	0	1,070791	4,293339	2,8845	10,8072	-0,086	86,748	0	1012,8	6,4	8,5	8,4	1	1	1	1	1	1	1	1	1	0	1	-4,087385	273,892162	314,994005	0
15.01.2021	08:45:38	0	0,832837	3,841408	2,67225	15,0516	-0,084	86,772	0	1012,96	6,3	8,5	8,4	1	1	1	1	1	1	1	1	1	0	1	-6,624383	273,777352	311,922335	0
15.01.2021	08:45:39	0	1,070791	3,841431	2,5635	20,6208	-0,086	86,781	0	1012,8	6,4	8,5	8,3	1	1	1	1	1	1	1	1	1	0	1	-3,875969	273,881831	315,15728	0
15.01.2021	08:45:40	0	1,189768	4,632287	2,391	19,9008	-0,087	86,773	0	1012,8	6,4	8,5	8,4	1	1	1	1	1	1	1	1	1	0	1	-1,338971	273,777352	317,207748	0
15.01.2021	08:45:41	0	1,070791	2,824582	2,3385	17,694	-0,092	86,773	0	1012,78	6,3	8,5	8,3	1	1	1	1	1	1	1	1	1	0	1	-4,862579	273,736305	313,493145	0
15.01.2021	08:45:42	0	1,308745	3,389498	2,26875	17,226	-0,088	86,779	0	1012,82	6,5	8,5	8,3	1	1	1	1	1	1	1	1	1	0	1	-4,510218	273,711426	313,729784	0
15.01.2021	08:45:43	0	1,070791	4,406321	2,22375	18,4572	-0,082	86,771	0	1012,76	6,4	8,5	8,4	1	1	1	1	1	1	1	1	1	0	1	-9,584214	273,837616	309,243068	0
15.01.2021	08:45:44	0	1,189768	4,180356	2,31675	12,4776	-0,083	86,776	0	1012,8	6,4	8,5	8,4	1	1	1	1	1	1	1	1	1	0	1	-6,553911	273,714352	311,699697	0
15.01.2021	08:45:45	0	1,308745	4,632314	2,43525	15,4008	-0,093	86,776	0	1012,74	6,3	8,5	8,3	1	1	1	1	1	1	1	1	1	0	1	-8,738548	273,844978	310,123022	0
15.01.2021	08:45:46	0	1,308745	4,745298	2,4405	18,45	-0,086	86,782	0	1012,82	6,3	8,5	8,3	1	1	1	1	1	1	1	1	1	0	1	-8,033827	273,71874	310,240193	0
15.01.2021	08:45:47	0	1,427721	4,293365	2,32575	13,9104	-0,096	86,769	0	1012,62	6,4	8,5	8,3	1	1	1	1	1	1	1	1	1	0	1	-9,090909	273,867081	309,873621	0
15.01.2021	08:45:48	0	1,189768	2,711582	2,481	1,9188	-0,087	86,777	0	1012,64	6,4	8,5	8,4	1	1	1	1	1	1	1	1	1	0	1	-3,875969	273,844978	314,985601	0
15.01.2021	08:45:49	0	1,427721	4,180381	2,532	8,9892	-0,084	86,788	0	1012,86	6,4	8,5	8,3	1	1	1	1	1	1	1	1	1	0	1	-9,654686	273,886258	309,399191	0
15.01.2021	08:45:50	0	1,308745	3,163532	2,46825	7,1172	-0,085	86,783	0	1012,86	6,4	8,5	8,3	1	1	1	1	1	1	1	1	1	0	1	-9,936575	273,774418	308,596485	0
15.01.2021	08:45:51	0	1,189768	4,293365	2,4615	9,3744	-0,083	86,771	0	1012,88	6,5	8,5	8,3	1	1	1	1	1	1	1	1	1	0	1	-7,117689	273,877405	311,894938	0
15.01.2021	08:45:52	0	1,189768	3,163513	2,44875	18,8352	-0,085	86,788	0	1012,74	6,4	8,5	8,4	1	1	1	1	1	1	1	1	1	0	1	-7,963354	273,783223	310,610689	0
15.01.2021	08:45:53	0	0,951814	4,180356	2,23725	22,4712	-0,085	86,768	0	1012,84	6,4	8,5	8,4	1	1	1	1	1	1	1	1	1	0	1	-6,20155	273,884782	312,84545	0
15.01.2021	08:45:54	0	1,546698	4,180381	2,049	21,006	-0,084	86,797	0	1012,64	6,5	8,5	8,3	1	1	1	1	1	1	1	1	1	0	1	-4,792107	273,825842	313,980348	0
15.01.2021	08:45:55	0	1,070791	2,937565	1,8975	15,0372	-0,083	86,788	0	1012,82	6,4	8,5	8,3	1	1	1	1	1	1	1	1	1	0	1	-1,832276	273,733377	316,509824	0
15.01.2021	08:45:56	0	1,308745	2,937565	1,7985	25,776	-0,084	86,779	0	1012,76	6,5	8,5	8,3	1	1	1	1	1	1	1	1	1	0	1	-7,681466	273,739234	310,687884	0
15.01.2021	08:45:57	0	1,546698	4,293339	1,80375	33,2424	-0,087	86,797	0	1012,76	6,4	8,5	8,4	1	1	1	1	1	1	1	1	1	0	1	-4,792107	273,817017	313,939253	0
15.01.2021	08:45:58	0	1,070791	4,067374	1,8615	21,006	-0,086	86,794	0	1012,8	6,4	8,5	8,4	1	1	1	1	1	1	1	1	1	0	1	-9,795631	273,901022	309,327049	0
15.01.2021	08:45:59	0	1,189768	2,824582	1,88025	13,1652	-0,082	86,802	0	1012,84	6,4	8,5	8,3	1	1	1	1	1	1	1	1	1	0	1	-2,255109	273,71874	316,01891	0
15.01.2021	08:46:00	0	1,070791	2,711599	1,9035	19,908	-0,087	86,794	0	1012,94	6,4	8,5	8,3	1	1	1	1	1	1	1	1	1	0	1	-5,496829	273,715814	312,763582	0
15.01.2021	08:46:01	0	1,070791	2,711599	1,9035	19,908	-0,087	86,794	0	1012,94	6,4	8,5	8,3	1	1	1	1	1	1	1	1	1	0	1	-5,496829	273,715814	312,763582	0
15.01.2021	08:46:02	0	0,951814	3,615465	2,01075	15,786	-0,088	86,792	0	1012,76	6,4	8,5	8,3	1	1	1	1	1	1	1	1	1	0	1	-10,218464	273,831728	308,5814	0
15.01.2021	08:46:03	0	1,189768	4,067374	2,1375	10,818	-0,086	86,791	0	1012,8	6,3	8,5	8,4	1	1	1	1	1	1	1	1	1	0	1	-7,329105	273,895115	311,766046	0
15.01.2021	08:46:04	0	1,546698	4,180381	2,14125	23,5872	-0,085	86,78	0	1012,88	6,4	8,5	8,3	1	1	1	1	1	1	1	1	1	0	1	-5,355884	273,87003	313,622384	0
15.01.2021	08:46:05	0	1,070784	2,485632	2,037	18,4608	-0,087	86,798	0	1012,8	6,4	8,6	8,3	1	1	1	1	1	1	1	1	1	0	1	-7,117689	273,896591	311,984343	0
15.01.2021	08:46:06	0	1,427711	4,632287	2,0775	8,6112	-0,087	86,797	0	1012,88	6,4	8,6	8,4	1	1	1	1	1	1	1	1	1	0	1	-7,329105	273,865607	311,628556	0
15.01.2021	08:46:07	0	0,951814	4,632287	2,1165	9,7416	-0,084	86,804	0	1012,88	6,3	8,5	8,4	1	1	1	1	1	1	1	1	1	0	1	-3,523608	273,864132	315,427185	0
15.01.2021	08:46:08	0	0,951814	4,293339	2,15175	10,4472	-0,083	86,81	0	1012,8	6,3	8,5	8,4	1	1	1	1	1	1	1	1	1	0	1	-6,272023	273,893638	312,816248	0
15.01.2021	08:46:09	0	1,427721	4,971234	2,33025	7,8696	-0,079	86,819	0	1012,82	6,4	8,5	8,4	1	1	1	1	1	1	1	1	1	0	1	-7,047216	273,853816	311,855521	0
15.01.2021	08:46:10	0	1,308745	4,745269	2,391	7,5024	-0,083	86,81	0	1012,76	6,4	8,5	8,4	1	1	1	1	1	1	1	1	1	0	1	-2,677942	273,742164	315,705036	0
15.01.2021	08:46:11	0	1,189768	3,502461	2,69475	6,426	-0,076	86,826	0	1012,88	6,4	8,5	8,4	1	1	1	1	1	1	1	1	1	0	1	-6,20155	273,736305	312,154173	0
15.01.2021	08:46:12	0	1,189768	2,937565	2,78175	10,0584	-0,084	86,818	0	1012,8	6,4	8,5	8,3	1	1	1	1	1	1	1	1	1	0	1	-2,818887	273,85971	316,111308	0
15.01.2021	08:46:13	0	1,189768	4,519331	2,77425	6,444	-0,09	86,801	0	1012,86	6,5	8,5	8,3	1	1	1	1	1	1	1	1	1	0	1	-7,470049	273,906931	311,680169	0
15.01.2021	08:46:14	0	0,951814	2,711582	2,61975	8,3412	-0,086	86,802	0	1012,74	6,4	8,5	8,4	1	1	1	1	1	1	1	1	1	0	1	-6,765328	273,739234	311,604022	0
15.01.2021	08:46:15	0	1,070784	2,937565	2,43975	19,494	-0,081	86,815	0	1012,8	6,4	8,6	8,3	1	1	1	1	1	1	1	1	1	0	1	-9,584214	273,819958	309,160842	0
15.01.2021	08:46:16	0	1,070791	3,841431	2,259	12,1032	-0,078	86,825	0	1012,96	6,4	8,5	8,3	1	1	1	1	1	1	1	1	1	0	1	-4,862579	273,736305	313,493145	0
15.01.2021	08:46:17	0	1,546698	3,502482	2,09625	16,5528	-0,083	86,815	0	1012,76	6,5	8,5	8,3	1	1	1	1	1	1	1	1	1	0	1	-7,399577	273,789096	311,201802	0
15.01.2021	08:46:18	0	1,070791	3,389498	2,058	13,9176	-0,081	86,818	0	1012,84	6,3	8,5	8,3	1	1	1	1	1	1	1	1	1	0	1	-7,329105	273,893638	311,759165	0
15.01.2021	08:46:19	0	1,427721	3,163513	2,208	13,1652	-0,083	86,802	0	1012,76	6,4	8,5	8,4	1	1	1	1	1	1	1	1	1	0	1	-4,157858	273,75242	314,272841	0
15.01.2021	08:46:20	0	1,308745	2,937565	2,25675	25,4088	-0,086	86,809	0	1012,86	6,4	8,5	8,3	1	1	1	1	1	1	1	1	1	0	1	-6,272023	273,742164	312,110956	0
15.01.2021	08:46:21	0	1,189768	4,406348	2,31	10,818	-0,087	86,814	0	1012,78	6,4	8,5	8,3	1	1	1	1	1	1	1	1	1	0	1	-9,090909	273,726057	309,217143	0
15.01.2021	08:46:22	0	1,546687	4,519304	2,2725	21,006	-0,085	86,826	0	1012,94	6,4	8,6	8,4	1	1	1	1	1	1	1	1	1	0	1	-8,668076	273,784691	309,912801	0
15.01.2021	08:46:23	0	1,070791	4,067398	2,12625	20,6352	-0,087	86,811	0	1012,76	6,5	8,5	8,3	1	1	1	1	1	1	1	1	1	0	1	-3,664553	273,734841	314,684359	0
15.01.2021	08:46:24	0	1,189768	3,841431	2,0235	20,6244	-0,086	86,823	0	1012,84	6,4	8,5	8,3	1	1	1	1	1	1	1	1	1	0	1	-7,188161	273,821429	311,563744	0
15.01.2021	08:46:25	0	1,308745	4,180381	2,02125	23,58	-0,089	86,825	0	1012,76	6,4	8,5	8,3	1	1	1	1	1	1	1	1	1	0	1	-12,262156	273,895115	306,832994	0
15.01.2021	08:46:26	0	1,427721	3,050512	2,02425	22,0788	-0,089	86,806	0	1012,72	6,4	8,5	8,5	1	1	1	1	1	1	1	1	1	0	1	-7,963354	273,821429	310,78855	0
15.01.2021	08:46:27	0	1,189768	4,293365	2,028	19,5264	-0,082	86,816	0	1012,8	6,4	8,5	8,3	1	1	1	1	1	1	1	1	1	0	1	-5,990134	273,895115	313,105017	0
15.01.2021	08:46:28	0	1,070791	2,711582	2,187	26,1576	-0,083	86,83	0	1012,84	6,4	8,5	8,4	1	1	1	1	1	1	1	1	1	0	1	-5,496829	273,742164	312,88615	0
15.01.2021	08:46:29	0	1,189768	4,406321	2,2995	21,3876	-0,084	86,821	0	1012,76	6,4	8,5	8,4	1	1	1	1	1	1	1	1	1	0	1	-11,346018	273,736305	307,009705	0
15.01.2021	08:46:30	0	1,427721	4,406348	2,2935	25,4088	-0,081	86,835	0	1012,78	6,3	8,5	8,3	1	1	1	1	1	1	1	1	1	0	1	-7,258633	273,734841	311,090279	0
15.01.2021	08:46:31	0	1,308745	4,519331	2,238	25,0308	-0,084	86,819	0	1012,84	6,4	8,5	8,3	1	1	1	1	1	1	1	1	1	0	1	-9,090909	273,746559	309,312517	0
15.01.2021	08:46:32	0	1,308745	4,293365	2,18625	24,336	-0,082	86,833	0	1012,92	6,4	8,5	8,3	1	1	1	1	1	1	1	1	1	0	1	-7,82241	273,887734	311,238344	0
15.01.2021	08:46:33	0	1,070791	4,745269	2,18775	22,8384	-0,088	86,832	0	1012,7	6,4	8,5	8,4	1	1	1	1	1	1	1	1	1	0	1	-7,188161	273,774418	311,344899	0
15.01.2021	08:46:34	0	1,308745	3,163532	2,1765	31,4136	-0,085	86,834	0	1012,86	6,4	8,5	8,3	1	1	1	1	1	1	1	1	1	0	1	-3,523608	273,890686	315,550903	0
15.01.2021	08:46:35	0	1,070791	2,824582	2,127	19,6164	-0,082	86,842	0	1012,9	6,4	8,5	8,3	1	1	1	1	1	1	1	1	1	0	1	-9,513742	273,803786	309,15602	0
15.01.2021	08:46:36	0	1,427721	4,180356	2,05275	21,8592	-0,08	86,845	0	1012,84	6,4	8,5	8,4	1	1	1	1	1	1	1	1	1	0	1	-10,782241	273,884782	308,264759	0
15.01.2021	08:46:37	0	1,308745	2,824565	1,96875	30,6972	-0,086	86,831	0	1012,86	6,4	8,5	8,4	1	1	1	1	1	1	1	1	1	0	1	-4,157858	273,784691	314,423019	0
15.01.2021	08:46:38	0	1,546698	3,502461	1,87575	23,5764	-0,079	86,835	0	1012,74	6,4	8,5	8,4	1	1	1	1	1	1	1	1	1	0	1	-8,315715	273,886258	310,738162	0
15.01.2021	08:46:39	0	1,546698	3,615465	1,794	25,0308	-0,078	86,827	0	1012,84	6,4	8,5	8,3	1	1	1	1	1	1	1	1	1	0	1	-9,231853	273,797909	309,410548	0
15.01.2021	08:46:40	0	1,189768	3,615465	1,8015	24,3252	-0,082	86,83	0	1012,64	6,4	8,5	8,3	1	1	1	1	1	1	1	1	1	0	1	-10,007047	273,926147	309,232742	0
15.01.2021	08:46:41	0	1,308735	4,632314	1,74525	21,3876	-0,083	86,817	0	1012,78	6,4	8,6	8,3	1	1	1	1	1	1	1	1	1	0	1	-6,412967	273,865607	312,544695	0
15.01.2021	08:46:42	0	1,308745	3,05053	1,665	36,2232	-0,083	86,842	0	1012,84	6,4	8,5	8,4	1	1	1	1	1	1	1	1	1	0	1	-4,651163	273,743629	313,738631	0
15.01.2021	08:46:43	0	1,546698	4,632314	1,64625	32,8824	-0,083	86,823	0	1012,78	6,4	8,5	8,3	1	1	1	1	1	1	1	1	1	0	1	-7,329105	273,742164	311,053874	0
15.01.2021	08:46:44	0	1,189768	3,389478	1,6395	34,7004	-0,086	86,839	0	1012,78	6,4	8,5	8,4	1	1	1	1	1	1	1	1	1	0	1	-3,100775	273,805256	315,575829	0
15.01.2021	08:46:45	0	1,308745	4,519331	1,701	22,8348	-0,079	86,84	0	1012,92	6,4	8,5	8,3	1	1	1	1	1	1	1	1	1	0	1	-8,245243	273,743629	310,144551	0
15.01.2021	08:46:46	0	1,189768	4,406348	1,64175	37,3032	-0,078	86,843	0	1012,96	6,4	8,5	8,3	1	1	1	1	1	1	1	1	1	0	1	-4,933051	273,843505	313,92166	0
15.01.2021	08:46:47	0	1,308745	3,276515	1,6635	32,5008	-0,088	86,819	0	1012,74	6,4	8,5	8,3	1	1	1	1	1	1	1	1	1	0	1	-4,22833	273,887734	314,832425	0
15.01.2021	08:46:48	0	1,189768	1,920716	1,71675	38,394	-0,082	86,838	0	1012,86	6,4	8,5	8,3	1	1	1	1	1	1	1	1	1	0	1	-7,963354	273,847923	310,911936	0
15.01.2021	08:46:49	0	1,308745	3,163532	1,767	48,8124	-0,078	86,827	0	1012,72	6,4	8,5	8,3	1	1	1	1	1	1	1	1	1	0	1	-0,916138	273,892162	318,165252	0
15.01.2021	08:46:50	0	1,427721	4,745298	1,77525	41,022	-0,082	86,842	0	1012,84	6,4	8,5	8,3	1	1	1	1	1	1	1	1	1	0	1	-8,45666	273,864132	310,494134	0
15.01.2021	08:46:51	0	1,308745	4,180356	1,70925	27,6516	-0,082	86,826	0	1012,74	6,4	8,5	8,4	1	1	1	1	1	1	1	1	1	0	1	-7,258633	273,877405	311,753994	0
15.01.2021	08:46:52	0	1,427721	2,824582	1,551	36,2268	-0,091	86,819	0	1012,82	6,4	8,5	8,3	1	1	1	1	1	1	1	1	1	0	1	-4,862579	273,793502	313,759308	0
15.01.2021	08:46:53	0	0,951814	4,067398	1,422	25,7796	-0,085	86,822	0	1012,76	6,4	8,5	8,3	1	1	1	1	1	1	1	1	1	0	1	-7,258633	273,890686	311,815878	0
15.01.2021	08:46:54	0	1,308745	3,050548	1,37775	26,5104	-0,081	86,834	0	1012,88	6,4	8,5	8,3	1	1	1	1	1	1	1	1	1	0	1	-5,003524	273,862658	313,940403	0
15.01.2021	08:46:55	0	1,189768	4,519331	1,359	30,3048	-0,083	86,814	0	1012,86	6,4	8,5	8,3	1	1	1	1	1	1	1	1	1	0	1	-11,557435	273,88921	307,510198	0
15.01.2021	08:46:56	0	1,546698	4,067398	1,48425	17,6868	-0,084	86,825	0	1012,74	6,4	8,5	8,3	1	1	1	1	1	1	1	1	1	0	1	-6,906272	273,875929	312,099482	0
15.01.2021	08:46:57	0	1,189768	4,745298	1,59525	25,7796	-0,082	86,836	0	1012,9	6,4	8,5	8,3	1	1	1	1	1	1	1	1	1	0	1	-13,530655	273,880355	305,495719	0
15.01.2021	08:46:58	0	1,308745	3,276515	1,78275	26,5248	-0,08	86,837	0	1012,82	6,4	8,5	8,3	1	1	1	1	1	1	1	1	1	0	1	-6,20155	273,847923	312,67374	0
15.01.2021	08:46:59	0	1,308745	3,615465	1,88775	22,0752	-0,078	86,841	0	1012,94	6,4	8,5	8,3	1	1	1	1	1	1	1	1	1	0	1	-10,500352	273,91432	308,684304	0
15.01.2021	08:47:00	0	1,427721	3,502482	1,69275	32,9724	-0,081	86,839	0	1012,94	6,4	8,5	8,3	1	1	1	1	1	1	1	1	1	0	1	-4,369274	273,721667	313,918357	0
15.01.2021	08:47:01	0	1,427721	3,502482	1,69275	32,9724	-0,081	86,839	0	1012,94	6,4	8,5	8,3	1	1	1	1	1	1	1	1	1	0	1	-4,369274	273,721667	313,918357	0
15.01.2021	08:47:02	0	1,308745	4,067374	1,542	20,6172	-0,083	86,833	0	1012,74	6,4	8,5	8,4	1	1	1	1	1	1	1	1	1	0	1	-8,597604	273,856763	310,31886	0
15.01.2021	08:47:03	0	1,070791	4,632314	1,5375	23,9724	-0,08	86,823	0	1012,68	6,4	8,5	8,3	1	1	1	1	1	1	1	1	1	0	1	-5,990134	273,915798	313,201411	0
15.01.2021	08:47:04	0	1,427721	2,824582	1,61325	30,708	-0,076	86,83	0	1012,8	6,4	8,5	8,3	1	1	1	1	1	1	1	1	1	0	1	-6,412967	273,814076	312,304701	0
15.01.2021	08:47:05	0	1,308745	3,502482	1,7655	42,2856	-0,084	86,83	0	1012,8	6,4	8,5	8,3	1	1	1	1	1	1	1	1	1	0	1	-6,976744	273,748024	311,433499	0
15.01.2021	08:47:06	0	1,427721	2,824565	2,14725	42,1992	-0,08	86,831	0	1012,78	6,4	8,5	8,4	1	1	1	1	1	1	1	1	1	0	1	-7,82241	273,781755	310,744801	0
15.01.2021	08:47:07	0	1,427721	3,502461	2,59575	43,2828	-0,082	86,827	0	1012,9	6,4	8,5	8,4	1	1	1	1	1	1	1	1	1	0	1	-9,654686	273,908408	309,502418	0
15.01.2021	08:47:08	0	1,427721	2,824582	2,796	45,5292	-0,084	86,814	0	1012,86	6,4	8,5	8,3	1	1	1	1	1	1	1	1	1	0	1	-4,22833	273,843505	314,626382	0
15.01.2021	08:47:09	0	1,546698	3,389498	2,83875	49,9392	-0,088	86,832	0	1012,82	6,4	8,5	8,3	1	1	1	1	1	1	1	1	1	0	1	-6,906272	273,733377	311,435828	0
15.01.2021	08:47:10	0	1,546698	2,711599	2,7345	44,7804	-0,079	86,838	0	1012,66	6,4	8,5	8,3	1	1	1	1	1	1	1	1	1	0	1	-4,22833	273,817017	314,503031	0
15.01.2021	08:47:11	0	1,308745	4,180381	2,5995	44,3772	-0,087	86,846	0	1012,78	6,4	8,5	8,3	1	1	1	1	1	1	1	1	1	0	1	-7,540521	273,72313	310,753916	0
15.01.2021	08:47:12	0	1,546698	3,050548	2,36325	25,434	-0,083	86,815	0	1012,64	6,4	8,5	8,3	1	1	1	1	1	1	1	1	1	0	1	-9,302326	273,853816	309,600411	0
15.01.2021	08:47:13	0	1,546698	4,745298	2,37675	46,5804	-0,084	86,841	0	1012,96	6,4	8,5	8,3	1	1	1	1	1	1	1	1	1	0	1	-5,285412	273,73777	313,077124	0
15.01.2021	08:47:14	0	1,427721	4,745298	2,49	41,454	-0,086	86,828	0	1012,68	6,4	8,5	8,3	1	1	1	1	1	1	1	1	1	0	1	-5,990134	273,839088	312,844005	0
15.01.2021	08:47:15	0	1,308745	3,615465	2,4075	31,7664	-0,088	86,831	0	1012,8	6,4	8,5	8,3	1	1	1	1	1	1	1	1	1	0	1	-4,651163	273,902499	314,4784	0
15.01.2021	08:47:16	0	1,308745	4,519331	2,24475	32,1336	-0,089	86,835	0	1012,72	6,4	8,5	8,3	1	1	1	1	1	1	1	1	1	0	1	-8,245243	273,839088	310,588896	0
15.01.2021	08:47:17	0	1,189768	3,502482	2,049	38,7936	-0,082	86,865	0	1012,9	6,4	8,5	8,3	1	1	1	1	1	1	1	1	1	0	1	-3,875969	273,877405	315,136658	0
15.01.2021	08:47:18	0	1,546698	3,276515	1,92	31,3848	-0,082	86,839	0	1012,72	6,4	8,5	8,3	1	1	1	1	1	1	1	1	1	0	1	-8,80902	273,731912	309,526269	0
15.01.2021	08:47:19	0	1,665675	5,084247	1,8135	34,686	-0,084	86,84	0	1012,8	6,4	8,5	8,3	1	1	1	1	1	1	1	1	1	0	1	-6,765328	273,790565	311,842887	0
15.01.2021	08:47:20	0	1,308745	3,841431	1,71225	27,9648	-0,081	86,831	0	1012,64	6,4	8,5	8,3	1	1	1	1	1	1	1	1	1	0	1	-8,45666	273,730448	309,871819	0
15.01.2021	08:47:21	0	1,308735	4,293365	1,58025	20,2716	-0,08	86,839	0	1012,98	6,4	8,6	8,3	1	1	1	1	1	1	1	1	1	0	1	-9,725159	273,881831	309,30809	0
15.01.2021	08:47:22	0	1,189768	4,858281	1,44075	32,8716	-0,086	86,835	0	1012,86	6,4	8,5	8,3	1	1	1	1	1	1	1	1	1	0	1	-7,470049	273,858237	311,45328	0
15.01.2021	08:47:23	0	1,189768	2,711599	1,314	21,0096	-0,081	86,849	0	1012,84	6,4	8,5	8,3	1	1	1	1	1	1	1	1	1	0	1	-7,188161	273,884782	311,85884	0
15.01.2021	08:47:24	0	1,665663	3,163532	1,27875	18,4428	-0,084	86,832	0	1012,9	6,4	8,6	8,3	1	1	1	1	1	1	1	1	1	0	1	-8,45666	273,864132	310,494134	0
15.01.2021	08:47:25	0	1,308735	2,711599	1,263	39,1572	-0,085	86,828	0	1012,88	6,4	8,6	8,3	1	1	1	1	1	1	1	1	1	0	1	-2,748414	273,872979	316,243595	0
15.01.2021	08:47:26	0	1,308745	3,841431	1,23825	31,3956	-0,085	86,843	0	1012,68	6,4	8,5	8,3	1	1	1	1	1	1	1	1	1	0	1	-7,258633	273,734841	311,090279	0
15.01.2021	08:47:27	0	1,189768	2,485632	1,23675	13,554	-0,086	86,828	0	1012,92	6,4	8,5	8,3	1	1	1	1	1	1	1	1	1	0	1	-2,536998	273,843505	316,317714	0
15.01.2021	08:47:28	0	1,427721	4,632287	1,335	19,5156	-0,089	86,848	0	1012,72	6,4	8,5	8,4	1	1	1	1	1	1	1	1	1	0	1	-5,708245	273,746559	312,695181	0
15.01.2021	08:47:29	0	1,427721	2,033675	1,4265	16,488	-0,089	86,85	0	1012,78	6,4	8,5	8,5	1	1	1	1	1	1	1	1	1	0	1	-9,090909	273,761216	309,380717	0
15.01.2021	08:47:30	0	1,070791	4,180356	1,44	28,728	-0,081	86,855	0	1012,86	6,4	8,5	8,4	1	1	1	1	1	1	1	1	1	0	1	-7,963354	273,761216	310,508272	0
15.01.2021	08:47:31	0	1,189768	4,293365	1,5345	32,8788	-0,085	86,852	0	1012,86	6,4	8,5	8,3	1	1	1	1	1	1	1	1	1	0	1	-9,231853	273,899545	309,883943	0
15.01.2021	08:47:32	0	1,665675	3,728448	1,692	23,2128	-0,084	86,848	0	1012,78	6,4	8,5	8,3	1	1	1	1	1	1	1	1	1	0	1	-4,439746	273,787628	314,154798	0
15.01.2021	08:47:33	0	1,308745	3,954415	1,74825	22,8204	-0,086	86,852	0	1012,74	6,4	8,5	8,3	1	1	1	1	1	1	1	1	1	0	1	-13,03735	273,898068	306,071564	0
15.01.2021	08:47:34	0	1,308745	3,163532	1,7805	26,2476	-0,092	86,851	0	1012,74	6,4	8,5	8,3	1	1	1	1	1	1	1	1	1	0	1	-5,778717	273,758284	312,679264	0
15.01.2021	08:47:35	0	1,308745	3,050548	1,85475	23,5836	-0,085	86,846	0	1012,78	6,4	8,5	8,3	1	1	1	1	1	1	1	1	1	0	1	-7,188161	273,846451	311,680269	0
15.01.2021	08:47:36	0	1,308745	3,615465	1,8345	23,2128	-0,082	86,858	0	1012,76	6,4	8,5	8,3	1	1	1	1	1	1	1	1	1	0	1	-6,342495	273,895115	312,752656	0
15.01.2021	08:47:37	0	1,427721	4,293365	1,7505	12,852	-0,081	86,847	0	1012,94	6,4	8,5	8,3	1	1	1	1	1	1	1	1	1	0	1	-12,684989	273,815546	306,039524	0
15.01.2021	08:47:38	0	1,427711	3,728448	1,69725	10,818	-0,086	86,857	0	1013,02	6,4	8,6	8,3	1	1	1	1	1	1	1	1	1	0	1	-5,426357	273,730448	312,902122	0
15.01.2021	08:47:39	0	1,427711	2,937565	1,68825	17,2404	-0,087	86,842	0	1012,94	6,4	8,6	8,3	1	1	1	1	1	1	1	1	1	0	1	-7,82241	273,770016	310,690166	0
15.01.2021	08:47:40	0	1,189768	3,502482	1,5705	15,7752	-0,089	86,853	0	1012,78	6,4	8,5	8,3	1	1	1	1	1	1	1	1	1	0	1	-3,453136	273,830256	315,339874	0
15.01.2021	08:47:41	0	1,546698	4,519277	1,5375	27,9612	-0,085	86,833	0	1012,82	6,4	8,5	8,5	1	1	1	1	1	1	1	1	1	0	1	-9,584214	273,730448	308,744265	0
15.01.2021	08:47:42	0	1,189768	3,502461	1,67175	33,9552	-0,086	86,833	0	1012,8	6,4	8,5	8,4	1	1	1	1	1	1	1	1	1	0	1	-10,782241	273,875929	308,223513	0
15.01.2021	08:47:43	0	1,427721	4,745298	1,899	27,6588	-0,088	86,852	0	1012,86	6,4	8,5	8,3	1	1	1	1	1	1	1	1	1	0	1	-8,104299	273,88921	310,963334	0
15.01.2021	08:47:44	0	1,427711	4,519331	1,9815	23,94	-0,087	86,851	0	1012,98	6,4	8,6	8,3	1	1	1	1	1	1	1	1	1	0	1	-8,879493	273,753886	309,558026	0
15.01.2021	08:47:45	0	1,308745	3,276515	1,956	28,7172	-0,085	86,84	0	1012,72	6,4	8,5	8,3	1	1	1	1	1	1	1	1	1	0	1	-6,553911	273,852343	312,341963	0
15.01.2021	08:47:46	0	1,308745	3,502482	1,9575	29,9592	-0,084	86,855	0	1012,86	6,4	8,5	8,3	1	1	1	1	1	1	1	1	1	0	1	-7,82241	273,728984	310,499259	0
15.01.2021	08:47:47	0	1,665675	4,745298	1,97775	30,708	-0,084	86,849	0	1012,9	6,4	8,5	8,3	1	1	1	1	1	1	1	1	1	0	1	-11,557435	273,827313	307,221871	0
15.01.2021	08:47:48	0	1,427721	4,858281	2,031	30,3264	-0,085	86,842	0	1012,88	6,4	8,5	8,3	1	1	1	1	1	1	1	1	1	0	1	-10,007047	273,893638	309,081223	0
15.01.2021	08:47:49	0	1,308745	4,293365	2,1465	27,7272	-0,085	86,859	0	1012,8	6,4	8,5	8,3	1	1	1	1	1	1	1	1	1	0	1	-4,933051	273,844978	313,928519	0
15.01.2021	08:47:50	0	1,308735	2,824582	2,20725	30,33	-0,086	86,854	0	1012,82	6,4	8,6	8,3	1	1	1	1	1	1	1	1	1	0	1	-4,933051	273,734841	313,41586	0
15.01.2021	08:47:51	0	1,546698	4,406295	2,223	29,0952	-0,079	86,848	0	1012,8	6,4	8,5	8,5	1	1	1	1	1	1	1	1	1	0	1	-7,117689	273,877405	311,894938	0
15.01.2021	08:47:52	0	1,308745	3,276515	2,247	32,8896	-0,081	86,862	0	1012,9	6,4	8,5	8,3	1	1	1	1	1	1	1	1	1	0	1	-5,21494	273,818487	313,523268	0
15.01.2021	08:47:53	0	1,189768	4,406348	2,199	34,326	-0,085	86,852	0	1012,82	6,4	8,5	8,3	1	1	1	1	1	1	1	1	1	0	1	-6,272023	273,73777	312,090514	0
15.01.2021	08:47:54	0	1,070791	2,824582	2,11125	31,0176	-0,08	86,866	0	1012,82	6,4	8,5	8,3	1	1	1	1	1	1	1	1	1	0	1	-4,298802	273,734841	314,05011	0
15.01.2021	08:47:55	0	1,308745	4,293365	2,004	23,6052	-0,089	86,848	0	1012,8	6,4	8,5	8,3	1	1	1	1	1	1	1	1	1	0	1	-9,725159	273,793502	308,896729	0
15.01.2021	08:47:56	0	1,308745	2,824565	1,893	17,7912	-0,082	86,836	0	1012,76	6,4	8,5	8,4	1	1	1	1	1	1	1	1	1	0	1	-9,654686	273,893638	309,433584	0
15.01.2021	08:47:57	0	1,665675	5,084247	1,76475	20,2788	-0,085	86,869	0	1012,86	6,4	8,5	8,3	1	1	1	1	1	1	1	1	1	0	1	-5,567301	273,818487	313,170907	0
15.01.2021	08:47:58	0	1,427721	4,858252	1,764	19,1412	-0,083	86,851	0	1012,82	6,4	8,5	8,4	1	1	1	1	1	1	1	1	1	0	1	-5,637773	273,877405	313,374853	0
15.01.2021	08:47:59	0	1,308745	4,519331	1,7955	13,9284	-0,08	86,858	0	1012,82	6,4	8,5	8,3	1	1	1	1	1	1	1	1	1	0	1	-3,312192	273,899545	315,803605	0
15.01.2021	08:48:00	0	1,189768	3,841431	2,043	20,9988	-0,088	86,852	0	1012,98	6,4	8,5	8,3	1	1	1	1	1	1	1	1	1	0	1	-8,738548	273,771483	309,780855	0
15.01.2021	08:48:01	0	1,189768	3,841431	2,043	20,9988	-0,088	86,852	0	1012,98	6,4	8,5	8,3	1	1	1	1	1	1	1	1	1	0	1	-8,738548	273,771483	309,780855	0
15.01.2021	08:48:02	0	0,951808	4,632314	2,133	22,4568	-0,081	86,869	0	1013,02	6,4	8,6	8,3	1	1	1	1	1	1	1	1	1	0	1	-5,637773	273,903976	313,498674	0
15.01.2021	08:48:03	0	1,308745	4,180381	2,14575	16,4736	-0,09	86,854	0	1012,9	6,4	8,5	8,3	1	1	1	1	1	1	1	1	1	0	1	-6,976744	273,828785	311,809414	0
15.01.2021	08:48:04	0	1,546698	4,971205	2,26275	23,2272	-0,086	86,871	0	1012,72	6,4	8,5	8,5	1	1	1	1	1	1	1	1	1	0	1	-1,127555	273,71874	317,146465	0
15.01.2021	08:48:05	0	1,546687	3,163532	2,42775	18,8172	-0,082	86,86	0	1012,76	6,4	8,6	8,3	1	1	1	1	1	1	1	1	1	0	1	-5,426357	273,77882	313,127192	0
15.01.2021	08:48:06	0	1,189768	2,711599	2,631	14,2992	-0,085	86,851	0	1012,8	6,4	8,5	8,3	1	1	1	1	1	1	1	1	1	0	1	-9,090909	273,724593	309,210335	0
15.01.2021	08:48:07	0	1,665675	3,728448	2,58525	15,408	-0,086	86,875	0	1012,94	6,4	8,5	8,3	1	1	1	1	1	1	1	1	1	0	1	-9,090909	273,861184	309,846151	0
15.01.2021	08:48:08	0	1,427721	2,711599	2,595	10,0764	-0,09	86,862	0	1012,78	6,4	8,5	8,3	1	1	1	1	1	1	1	1	1	0	1	-9,866103	273,865607	309,091559	0
15.01.2021	08:48:09	0	1,308745	3,389498	2,634	10,4364	-0,086	86,859	0	1012,94	6,4	8,5	8,3	1	1	1	1	1	1	1	1	1	0	1	-9,090909	273,906931	310,059309	0
15.01.2021	08:48:10	0	1,546687	4,067398	2,75625	12,8412	-0,09	86,86	0	1012,9	6,4	8,6	8,3	1	1	1	1	1	1	1	1	1	0	1	-5,778717	273,78616	312,808993	0
15.01.2021	08:48:11	0	1,427721	4,180381	2,86575	23,2056	-0,087	86,869	0	1012,82	6,4	8,5	8,3	1	1	1	1	1	1	1	1	1	0	1	-6,20155	273,881831	312,831699	0
15.01.2021	08:48:12	0	1,665675	5,310214	2,844	19,8756	-0,084	86,863	0	1012,8	6,4	8,5	8,3	1	1	1	1	1	1	1	1	1	0	1	-8,527132	273,846451	310,341298	0
15.01.2021	08:48:13	0	1,665675	3,276515	2,66775	21,0096	-0,089	86,873	0	1012,86	6,4	8,5	8,3	1	1	1	1	1	1	1	1	1	0	1	-6,272023	273,734841	312,076889	0
15.01.2021	08:48:14	0	1,427721	4,293313	2,72475	23,3172	-0,086	86,874	0	1012,72	6,4	8,5	8,5	1	1	1	1	1	1	1	1	1	0	1	-6,412967	273,877405	312,59966	0
15.01.2021	08:48:15	0	1,427721	2,937565	2,82525	27,2556	-0,091	86,862	0	1012,8	6,4	8,5	8,3	1	1	1	1	1	1	1	1	1	0	1	-10,782241	273,793502	307,839646	0
15.01.2021	08:48:16	0	1,427721	4,067398	2,78475	28,7172	-0,088	86,872	0	1012,84	6,4	8,5	8,3	1	1	1	1	1	1	1	1	1	0	1	-7,188161	273,905453	311,955172	0
15.01.2021	08:48:17	0	1,665675	4,745298	2,8275	16,8372	-0,083	86,865	0	1012,92	6,4	8,5	8,3	1	1	1	1	1	1	1	1	1	0	1	-10,147992	273,839088	308,686147	0
15.01.2021	08:48:18	0	1,308735	3,050548	3,015	18,828	-0,088	86,876	0	1012,86	6,4	8,6	8,3	1	1	1	1	1	1	1	1	1	0	1	-10,077519	273,734841	308,271392	0
15.01.2021	08:48:19	0	1,546698	3,841431	3,21375	22,8312	-0,089	86,865	0	1012,8	6,4	8,5	8,3	1	1	1	1	1	1	1	1	1	0	1	-3,523608	273,733377	314,818492	0
15.01.2021	08:48:20	0	1,427711	4,067398	3,351	18,0828	-0,086	86,862	0	1012,94	6,4	8,6	8,3	1	1	1	1	1	1	1	1	1	0	1	-14,65821	273,87888	304,36129	0
15.01.2021	08:48:21	0	1,427721	4,632314	3,43125	20,628	-0,092	86,882	0	1012,74	6,4	8,5	8,3	1	1	1	1	1	1	1	1	1	0	1	-10,288936	273,903976	308,847512	0
15.01.2021	08:48:22	0	1,546698	4,745298	3,2565	8,9856	-0,089	86,868	0	1012,86	6,4	8,5	8,3	1	1	1	1	1	1	1	1	1	0	1	-8,104299	273,846451	310,764131	0
15.01.2021	08:48:23	0	1,189768	2,598615	3,12675	4,8528	-0,09	86,88	0	1012,7	6,4	8,5	8,3	1	1	1	1	1	1	1	1	1	0	1	-4,016913	273,899545	315,098883	0
15.01.2021	08:48:24	0	1,665675	4,632314	3,162	27,9648	-0,087	86,858	0	1012,84	6,4	8,5	8,3	1	1	1	1	1	1	1	1	1	0	1	-8,033827	273,758284	310,424154	0
15.01.2021	08:48:25	0	1,308745	3,502482	3,1335	6,4368	-0,083	86,873	0	1012,82	6,4	8,5	8,3	1	1	1	1	1	1	1	1	1	0	1	-9,795631	273,831728	309,004233	0
15.01.2021	08:48:26	0	1,546698	4,858281	3,117	18,0684	-0,089	86,874	0	1012,92	6,4	8,5	8,3	1	1	1	1	1	1	1	1	1	0	1	-10,007047	273,905453	309,136285	0
15.01.2021	08:48:27	0	1,546698	4,519331	3,369	18,8136	-0,087	86,858	0	1012,8	6,4	8,5	8,3	1	1	1	1	1	1	1	1	1	0	1	-5,919662	273,770016	312,592914	0
15.01.2021	08:48:28	0	1,427721	4,406348	3,8745	10,0548	-0,083	86,878	0	1012,76	6,4	8,5	8,3	1	1	1	1	1	1	1	1	1	0	1	-14,094433	273,903976	305,042015	0
15.01.2021	08:48:29	0	1,308735	3,954415	4,18575	23,9544	-0,085	86,877	0	1012,82	6,3	8,6	8,3	1	1	1	1	1	1	1	1	1	0	1	-7,751938	273,830256	311,041072	0
15.01.2021	08:48:30	0	1,546698	2,824582	3,84225	16,4772	-0,082	86,888	0	1012,84	6,4	8,5	8,3	1	1	1	1	1	1	1	1	1	0	1	-11,346018	273,727521	306,968842	0
15.01.2021	08:48:31	0	1,308745	2,485632	3,70725	17,2332	-0,097	86,888	0	1012,74	6,3	8,5	8,3	1	1	1	1	1	1	1	1	1	0	1	-11,909796	273,855289	306,999805	0
15.01.2021	08:48:32	0	1,18976	3,615465	3,5745	21,384	-0,082	86,884	0	1012,82	6,4	8,6	8,3	1	1	1	1	1	1	1	1	1	0	1	-9,090909	273,855289	309,818691	0
15.01.2021	08:48:33	0	1,903629	4,858223	3,61275	32,9616	-0,089	86,901	0	1012,88	6,4	8,5	8,5	1	1	1	1	1	1	1	1	1	0	1	-10,007047	273,867081	308,957483	0
15.01.2021	08:48:34	0	1,427721	3,163532	3,5355	18,8316	-0,089	86,882	0	1012,88	6,4	8,5	8,3	1	1	1	1	1	1	1	1	1	0	1	-8,738548	273,856763	310,177916	0
15.01.2021	08:48:35	0	1,784652	3,728448	3,495	26,1684	-0,093	86,891	0	1012,74	6,5	8,5	8,3	1	1	1	1	1	1	1	1	1	0	1	-9,231853	273,75242	309,198845	0
15.01.2021	08:48:36	0	1,546698	4,519331	3,48	23,9616	-0,086	86,893	0	1012,82	6,4	8,5	8,3	1	1	1	1	1	1	1	1	1	0	1	-4,933051	273,837616	313,894231	0
15.01.2021	08:48:37	0	1,070791	2,033699	3,552	25,0344	-0,086	86,904	0	1012,84	6,4	8,5	8,3	1	1	1	1	1	1	1	1	1	0	1	-9,231853	273,714352	309,021754	0
15.01.2021	08:48:38	0	1,903629	4,858281	3,495	25,0272	-0,094	86,893	0	1012,84	6,4	8,5	8,3	1	1	1	1	1	1	1	1	1	0	1	-3,100775	273,827313	315,678531	0
15.01.2021	08:48:39	0	1,308745	3,050548	3,41025	35,856	-0,082	86,878	0	1012,78	6,4	8,5	8,3	1	1	1	1	1	1	1	1	1	0	1	-2,748414	273,839088	316,085724	0
15.01.2021	08:48:40	0	1,427711	2,485632	3,261	39,564	-0,085	86,909	0	1012,78	6,4	8,6	8,3	1	1	1	1	1	1	1	1	1	0	1	-5,285412	273,746559	313,118014	0
15.01.2021	08:48:41	0	1,546698	3,841431	3,03675	19,8972	-0,085	86,912	0	1012,86	6,4	8,5	8,3	1	1	1	1	1	1	1	1	1	0	1	-5,990134	273,818487	312,748074	0
15.01.2021	08:48:42	0	1,546698	3,389498	2,9145	32,1372	-0,086	86,905	0	1012,76	6,4	8,5	8,3	1	1	1	1	1	1	1	1	1	0	1	-8,949965	273,898068	310,158949	0
15.01.2021	08:48:43	0	1,665675	4,406348	2,74275	31,7772	-0,092	86,905	0	1012,96	6,4	8,5	8,3	1	1	1	1	1	1	1	1	1	0	1	-6,8358	273,842033	312,012054	0
15.01.2021	08:48:44	0	1,308745	3,163532	2,58225	16,8552	-0,083	86,906	0	1012,78	6,4	8,5	8,3	1	1	1	1	1	1	1	1	1	0	1	-10,500352	273,849396	308,381799	0
15.01.2021	08:48:45	0	1,903629	3,050548	2,4825	35,4672	-0,086	86,924	0	1012,8	6,4	8,5	8,3	1	1	1	1	1	1	1	1	1	0	1	-5,919662	273,743629	312,470132	0
15.01.2021	08:48:46	0	1,189768	2,711599	2,478	27,666	-0,095	86,912	0	1012,7	6,4	8,5	8,3	1	1	1	1	1	1	1	1	1	0	1	-5,285412	273,88921	313,78222	0
15.01.2021	08:48:47	0	1,903629	3,050548	2,56425	33,246	-0,086	86,926	0	1012,94	6,4	8,5	8,3	1	1	1	1	1	1	1	1	1	0	1	-5,355884	273,742164	313,027094	0
15.01.2021	08:48:48	0	1,546698	2,937565	2,67225	47,7504	-0,087	86,924	0	1012,78	6,4	8,5	8,3	1	1	1	1	1	1	1	1	1	0	1	-7,751938	273,872979	311,240072	0
15.01.2021	08:48:49	0	1,546698	4,293313	2,6715	44,7912	-0,086	86,928	0	1012,86	6,4	8,5	8,5	1	1	1	1	1	1	1	1	1	0	1	-5,355884	273,733377	312,986216	0
15.01.2021	08:48:50	0	1,427721	4,971264	2,51775	24,3288	-0,09	86,914	0	1012,68	6,4	8,5	8,3	1	1	1	1	1	1	1	1	1	0	1	-7,82241	273,871505	311,162729	0
15.01.2021	08:48:51	0	1,427721	2,711599	2,55	24,7248	-0,084	86,93	0	1012,8	6,4	8,5	8,3	1	1	1	1	1	1	1	1	1	0	1	-2,043693	273,864132	316,907101	0
15.01.2021	08:48:52	0	1,546698	3,954415	2,7165	22,824	-0,086	86,908	0	1012,9	6,4	8,5	8,3	1	1	1	1	1	1	1	1	1	0	1	-8,386187	273,750955	310,037692	0
15.01.2021	08:48:53	0	1,546698	2,937565	2,736	30,6972	-0,085	86,92	0	1012,84	6,4	8,5	8,3	1	1	1	1	1	1	1	1	1	0	1	-10,288936	273,808195	308,401353	0
15.01.2021	08:48:54	0	1,308745	2,711599	2,82225	33,948	-0,09	86,929	0	1012,88	6,4	8,5	8,3	1	1	1	1	1	1	1	1	1	0	1	-8,879493	273,912842	310,298274	0
15.01.2021	08:48:55	0	1,784652	2,711599	3,09525	28,9116	-0,091	86,918	0	1012,76	6,4	8,5	8,3	1	1	1	1	1	1	1	1	1	0	1	-8,033827	273,77882	310,519722	0
15.01.2021	08:48:56	0	1,189768	3,502482	3,5205	26,5212	-0,081	86,937	0	1012,8	6,4	8,5	8,3	1	1	1	1	1	1	1	1	1	0	1	-6,412967	273,906931	312,737251	0
15.01.2021	08:48:57	0	1,546698	3,276515	3,56175	19,8936	-0,085	86,93	0	1012,78	6,4	8,5	8,3	1	1	1	1	1	1	1	1	1	0	1	-5,990134	273,765616	312,501964	0
15.01.2021	08:48:58	0	1,665675	3,615465	3,4365	32,4792	-0,09	86,934	0	1012,78	6,4	8,5	8,3	1	1	1	1	1	1	1	1	1	0	1	-5,003524	273,775885	313,536365	0
15.01.2021	08:48:59	0	1,546698	3,954415	3,4545	35,244	-0,084	86,933	0	1012,72	6,4	8,5	8,3	1	1	1	1	1	1	1	1	1	0	1	-7,117689	273,728984	311,203981	0
15.01.2021	08:49:00	0	1,308745	2,824582	3,28725	28,3536	-0,085	86,916	0	1012,76	6,4	8,5	8,3	1	1	1	1	1	1	1	1	1	0	1	-7,188161	273,893638	311,90011	0
15.01.2021	08:49:01	0	1,308745	2,824582	3,28725	28,3536	-0,085	86,916	0	1012,76	6,4	8,5	8,3	1	1	1	1	1	1	1	1	1	0	1	-7,188161	273,893638	311,90011	0
15.01.2021	08:49:02	0	1,546698	2,937565	3,15	31,4892	-0,09	86,935	0	1012,9	6,4	8,5	8,3	1	1	1	1	1	1	1	1	1	0	1	-11,134602	273,85971	307,795592	0
15.01.2021	08:49:03	0	1,546687	3,163532	3,024	32,8824	-0,084	86,936	0	1012,78	6,4	8,6	8,3	1	1	1	1	1	1	1	1	1	0	1	-3,946441	273,742164	314,436537	0
15.01.2021	08:49:04	0	1,784652	4,519331	2,99475	21,366	-0,083	86,945	0	1012,8	6,4	8,5	8,3	1	1	1	1	1	1	1	1	1	0	1	-7,540521	273,768549	310,965228	0
15.01.2021	08:49:05	0	1,189768	2,937565	2,8515	20,6316	-0,086	86,94	0	1012,86	6,4	8,5	8,3	1	1	1	1	1	1	1	1	1	0	1	-3,030303	273,730448	315,298176	0
15.01.2021	08:49:06	0	2,022605	4,745298	2,65425	21,7728	-0,086	86,934	0	1012,9	6,4	8,5	8,3	1	1	1	1	1	1	1	1	1	0	1	-6,906272	273,849396	311,975879	0
15.01.2021	08:49:07	0	1,189768	4,067398	2,49675	18,4608	-0,083	86,949	0	1012,82	6,4	8,5	8,3	1	1	1	1	1	1	1	1	1	0	1	-3,523608	273,895115	315,571543	0
15.01.2021	08:49:08	0	1,784652	4,406348	2,379	15,7896	-0,09	86,932	0	1012,76	6,4	8,5	8,3	1	1	1	1	1	1	1	1	1	0	1	-9,090909	273,896591	310,011123	0
15.01.2021	08:49:09	0	1,665663	3,728448	2,22	22,0788	-0,084	86,947	0	1012,76	6,4	8,6	8,3	1	1	1	1	1	1	1	1	1	0	1	-5,285412	273,899545	313,830384	0
15.01.2021	08:49:10	0	1,308745	4,632314	2,3325	27,9612	-0,081	86,949	0	1012,86	6,4	8,5	8,3	1	1	1	1	1	1	1	1	1	0	1	-7,470049	273,915798	311,721496	0
15.01.2021	08:49:11	0	1,903629	4,971205	2,51175	15,4008	-0,089	86,937	0	1012,86	6,4	8,5	8,5	1	1	1	1	1	1	1	1	1	0	1	-6,483439	273,809665	312,213694	0
15.01.2021	08:49:12	0	1,903629	3,389498	2,88525	38,0628	-0,087	86,932	0	1012,9	6,4	8,5	8,3	1	1	1	1	1	1	1	1	1	0	1	-6,272023	273,884782	312,774978	0
15.01.2021	08:49:13	0	1,665675	3,728448	3,1425	22,4604	-0,085	86,945	0	1012,8	6,4	8,5	8,3	1	1	1	1	1	1	1	1	1	0	1	-2,889359	273,758284	315,568622	0
15.01.2021	08:49:14	0	2,022605	2,937565	3,156	19,8972	-0,085	86,954	0	1012,9	6,4	8,5	8,3	1	1	1	1	1	1	1	1	1	0	1	-6,20155	273,819958	312,543506	0
15.01.2021	08:49:15	0	1,427721	3,841431	3,018	21,384	-0,085	86,939	0	1012,76	6,4	8,5	8,3	1	1	1	1	1	1	1	1	1	0	1	-3,59408	273,736305	314,761643	0
15.01.2021	08:49:16	0	1,903629	5,084247	3,10275	22,4532	-0,081	86,955	0	1012,74	6,4	8,5	8,3	1	1	1	1	1	1	1	1	1	0	1	-7,892882	273,849396	310,989269	0
15.01.2021	08:49:17	0	1,427711	3,954415	3,27825	40,2408	-0,09	86,953	0	1012,82	6,4	8,6	8,3	1	1	1	1	1	1	1	1	1	0	1	-10,42988	273,899545	308,685916	0
15.01.2021	08:49:18	0	1,546698	2,711599	3,19575	28,71	-0,084	86,948	0	1012,86	6,4	8,5	8,3	1	1	1	1	1	1	1	1	1	0	1	-2,60747	273,777352	315,939249	0
15.01.2021	08:49:19	0	1,665675	4,745241	3,18975	27,2592	-0,086	86,96	0	1012,8	6,4	8,5	8,5	1	1	1	1	1	1	1	1	1	0	1	-8,879493	273,781755	309,687719	0
15.01.2021	08:49:20	0	1,427721	3,163532	3,29325	26,172	-0,086	86,954	0	1012,7	6,4	8,5	8,3	1	1	1	1	1	1	1	1	1	0	1	-2,959831	273,73777	315,402706	0
15.01.2021	08:49:21	0	1,546698	3,728448	3,3675	26,154	-0,085	86,969	0	1012,86	6,4	8,5	8,3	1	1	1	1	1	1	1	1	1	0	1	-3,312192	273,88921	315,755441	0
15.01.2021	08:49:22	0	1,427721	2,93753	3,351	31,0068	-0,085	86,96	0	1012,84	6,4	8,5	8,5	1	1	1	1	1	1	1	1	1	0	1	-10,077519	273,736305	308,278204	0
15.01.2021	08:49:23	0	1,427711	3,954415	3,22875	30,312	-0,08	86,964	0	1012,8	6,4	8,6	8,3	1	1	1	1	1	1	1	1	1	0	1	-6,8358	273,846451	312,03263	0
15.01.2021	08:49:24	0	1,427721	3,728448	3,12375	27,9648	-0,085	86,969	0	1012,88	6,4	8,5	8,3	1	1	1	1	1	1	1	1	1	0	1	-6,906272	273,890686	312,168239	0
15.01.2021	08:49:25	0	1,546698	5,084186	2,9775	31,7448	-0,089	86,973	0	1012,88	6,4	8,5	8,5	1	1	1	1	1	1	1	1	1	0	1	-7,540521	273,880355	311,485853	0
15.01.2021	08:49:26	0	1,427721	2,598615	3,03825	26,1648	-0,081	86,963	0	1012,86	6,4	8,5	8,3	1	1	1	1	1	1	1	1	1	0	1	-6,553911	273,78616	312,033799	0
15.01.2021	08:49:27	0	1,903629	2,93753	2,90925	18,4356	-0,086	86,957	0	1012,92	6,4	8,5	8,5	1	1	1	1	1	1	1	1	1	0	1	-10,288936	273,748024	308,121308	0
15.01.2021	08:49:28	0	1,546687	3,841431	2,85675	18,45	-0,08	86,967	0	1012,76	6,4	8,6	8,3	1	1	1	1	1	1	1	1	1	0	1	-7,540521	273,806726	311,142925	0
15.01.2021	08:49:29	0	1,546698	4,180381	2,77575	16,4736	-0,092	86,958	0	1012,96	6,4	8,5	8,3	1	1	1	1	1	1	1	1	1	0	1	-11,134602	273,902499	307,994961	0
15.01.2021	08:49:30	0	1,784652	3,163532	2,72625	7,506	-0,085	86,968	0	1012,84	6,4	8,5	8,3	1	1	1	1	1	1	1	1	1	0	1	-4,510218	273,77295	314,016013	0
15.01.2021	08:49:31	0	1,784639	2,937565	2,78475	18,162	-0,082	86,968	0	1012,84	6,4	8,6	8,3	1	1	1	1	1	1	1	1	1	0	1	-6,906272	273,787628	311,688272	0
15.01.2021	08:49:32	0	1,665663	3,050548	2,733	26,1648	-0,085	86,962	0	1012,82	6,4	8,6	8,3	1	1	1	1	1	1	1	1	1	0	1	-9,372798	273,746559	309,030629	0
15.01.2021	08:49:33	0	1,427721	2,598584	2,63775	29,556	-0,084	86,973	0	1012,9	6,4	8,5	8,5	1	1	1	1	1	1	1	1	1	0	1	-3,805497	273,797909	314,836905	0
15.01.2021	08:49:34	0	1,427711	4,406295	2,60325	28,3464	-0,093	86,982	0	1012,66	6,4	8,6	8,5	1	1	1	1	1	1	1	1	1	0	1	-6,342495	273,733377	311,999605	0
15.01.2021	08:49:35	0	1,308745	2,711599	2,68425	30,6756	-0,085	86,978	0	1012,76	6,4	8,5	8,3	1	1	1	1	1	1	1	1	1	0	1	-9,795631	273,864132	309,155163	0
15.01.2021	08:49:36	0	1,784652	3,389458	2,68575	22,0896	-0,082	86,977	0	1012,9	6,4	8,5	8,5	1	1	1	1	1	1	1	1	1	0	1	-5,21494	273,726057	313,093112	0
15.01.2021	08:49:37	0	1,784652	3,502482	2,62125	28,3356	-0,082	86,981	0	1012,8	6,4	8,5	8,3	1	1	1	1	1	1	1	1	1	0	1	-8,668076	273,874454	310,330805	0
15.01.2021	08:49:38	0	1,665675	3,276515	2,59425	26,9064	-0,083	86,993	0	1012,74	6,4	8,5	8,3	1	1	1	1	1	1	1	1	1	0	1	-5,567301	273,739234	312,802049	0
15.01.2021	08:49:39	0	1,665675	3,841431	2,5455	29,178	-0,085	86,979	0	1012,9	6,4	8,5	8,3	1	1	1	1	1	1	1	1	1	0	1	-5,21494	273,748024	313,195303	0
15.01.2021	08:49:40	0	1,427721	4,293365	2,553	25,776	-0,089	86,992	0	1012,84	6,4	8,5	8,3	1	1	1	1	1	1	1	1	1	0	1	-4,369274	273,862658	314,574652	0
15.01.2021	08:49:41	0	1,665675	4,293365	2,63025	27,9576	-0,083	86,981	0	1012,86	6,4	8,5	8,3	1	1	1	1	1	1	1	1	1	0	1	-4,651163	273,743629	313,738631	0
15.01.2021	08:49:42	0	2,022605	3,389498	2,67225	27,2844	-0,082	86,984	0	1012,88	6,4	8,5	8,3	1	1	1	1	1	1	1	1	1	0	1	-6,906272	273,792033	311,708779	0
15.01.2021	08:49:43	0	1,427711	3,276515	2,622	31,4172	-0,083	86,987	0	1012,9	6,4	8,6	8,3	1	1	1	1	1	1	1	1	1	0	1	-6,060606	273,734841	312,288306	0
15.01.2021	08:49:44	0	1,665675	4,519277	2,67375	32,886	-0,084	86,971	0	1012,98	6,4	8,5	8,5	1	1	1	1	1	1	1	1	1	0	1	-7,610994	273,87003	311,367275	0
15.01.2021	08:49:45	0	1,784652	2,824582	2,757	31,7592	-0,087	86,989	0	1012,84	6,4	8,5	8,3	1	1	1	1	1	1	1	1	1	0	1	-6,342495	273,809665	312,354638	0
15.01.2021	08:49:46	0	1,665675	2,711566	2,703	40,6044	-0,082	86,998	0	1012,88	6,4	8,5	8,5	1	1	1	1	1	1	1	1	1	0	1	-8,104299	273,743629	310,285495	0
15.01.2021	08:49:47	0	1,665675	3,276476	2,6325	29,9448	-0,089	86,989	0	1012,74	6,4	8,5	8,5	1	1	1	1	1	1	1	1	1	0	1	-8,245243	273,828785	310,540915	0
15.01.2021	08:49:48	0	1,665675	4,519331	2,673	30,3192	-0,083	86,988	0	1012,76	6,4	8,5	8,3	1	1	1	1	1	1	1	1	1	0	1	-8,033827	273,758284	310,424154	0
15.01.2021	08:49:49	0	2,022591	4,293365	2,66475	28,3464	-0,086	86,992	0	1012,86	6,4	8,6	8,3	1	1	1	1	1	1	1	1	1	0	1	-7,82241	273,793502	310,799477	0
15.01.2021	08:49:50	0	1,546698	2,93753	2,64225	24,714	-0,086	87	0	1012,88	6,4	8,5	8,5	1	1	1	1	1	1	1	1	1	0	1	-6,553911	273,874454	312,44497	0
15.01.2021	08:49:51	0	1,784652	3,954415	2,55525	25,398	-0,086	86,973	0	1012,84	6,4	8,5	8,3	1	1	1	1	1	1	1	1	1	0	1	-7,329105	273,91432	311,855551	0
15.01.2021	08:49:52	0	1,427721	2,824582	2,54775	13,158	-0,084	86,997	0	1012,72	6,4	8,5	8,3	1	1	1	1	1	1	1	1	1	0	1	-6,060606	273,893638	313,027664	0
15.01.2021	08:49:53	0	1,903615	3,615465	2,5425	20,6244	-0,083	87,007	0	1012,86	6,4	8,6	8,3	1	1	1	1	1	1	1	1	1	0	1	-10,711769	273,902499	308,417794	0
15.01.2021	08:49:54	0	1,546698	4,180331	2,649	12,8484	-0,082	87,009	0	1012,92	6,4	8,5	8,5	1	1	1	1	1	1	1	1	1	0	1	-8,879493	273,843505	309,975219	0
15.01.2021	08:49:55	0	1,546698	2,824582	2,634	20,2896	-0,079	87,006	0	1012,86	6,4	8,5	8,3	1	1	1	1	1	1	1	1	1	0	1	-6,553911	273,749489	311,86315	0
15.01.2021	08:49:56	0	1,427721	4,293365	2,6025	13,554	-0,084	86,992	0	1012,74	6,4	8,5	8,3	1	1	1	1	1	1	1	1	1	0	1	-9,302326	273,85971	309,627869	0
15.01.2021	08:49:57	0	1,546698	2,824582	2,56575	22,4604	-0,086	86,992	0	1012,8	6,4	8,5	8,3	1	1	1	1	1	1	1	1	1	0	1	-10,359408	273,75242	308,071291	0
15.01.2021	08:49:58	0	2,022605	4,745298	2,64975	22,0968	-0,078	87,004	0	1012,86	6,4	8,5	8,3	1	1	1	1	1	1	1	1	1	0	1	-6,906272	273,837616	311,92101	0
15.01.2021	08:49:59	0	1,665663	5,310214	2,59725	22,0932	-0,077	87,017	0	1012,84	6,4	8,6	8,3	1	1	1	1	1	1	1	1	1	0	1	-3,312192	273,905453	315,831141	0
15.01.2021	08:50:00	0	1,427721	4,745298	2,5965	21,3804	-0,09	87,002	0	1012,78	6,4	8,5	8,3	1	1	1	1	1	1	1	1	1	0	1	-7,399577	273,756818	311,051582	0
15.01.2021	08:50:01	0	1,427721	4,745298	2,5965	21,3804	-0,09	87,002	0	1012,78	6,4	8,5	8,3	1	1	1	1	1	1	1	1	1	0	1	-7,399577	273,756818	311,051582	0
15.01.2021	08:50:02	0	2,022605	2,824548	2,709	29,5632	-0,081	87,017	0	1012,9	6,4	8,5	8,5	1	1	1	1	1	1	1	1	1	0	1	-9,725159	273,781755	308,842053	0
15.01.2021	08:50:03	0	1,784652	5,084247	2,72775	26,1684	-0,081	87,012	0	1012,92	6,4	8,5	8,3	1	1	1	1	1	1	1	1	1	0	1	-9,090909	273,811135	309,613068	0
15.01.2021	08:50:04	0	1,665675	3,276476	2,65275	20,9988	-0,084	87,021	0	1012,84	6,4	8,5	8,5	1	1	1	1	1	1	1	1	1	0	1	-8,315715	273,929105	310,937864	0
15.01.2021	08:50:05	0	1,903615	5,084247	2,69025	28,3392	-0,086	87,01	0	1013,06	6,4	8,6	8,3	1	1	1	1	1	1	1	1	1	0	1	-5,778717	273,862658	313,165209	0
15.01.2021	08:50:06	0	1,546687	4,519277	2,7615	22,446	-0,09	87,021	0	1012,78	6,4	8,6	8,5	1	1	1	1	1	1	1	1	1	0	1	-8,527132	273,750955	309,896748	0
15.01.2021	08:50:07	0	1,784652	4,519331	2,63175	21,006	-0,082	87,03	0	1012,98	6,4	8,5	8,3	1	1	1	1	1	1	1	1	1	0	1	-10,218464	273,827313	308,560842	0
15.01.2021	08:50:08	0	1,784639	3,050548	2,65275	21,8556	-0,083	87,013	0	1012,8	6,4	8,6	8,3	1	1	1	1	1	1	1	1	1	0	1	-10,993658	273,88921	308,073975	0
15.01.2021	08:50:09	0	1,665675	4,067349	2,655	19,5084	-0,08	87,028	0	1012,82	6,4	8,5	8,5	1	1	1	1	1	1	1	1	1	0	1	-9,513742	273,929105	309,739838	0
15.01.2021	08:50:10	0	1,665675	3,276515	2,62275	23,5692	-0,081	87,007	0	1012,84	6,4	8,5	8,3	1	1	1	1	1	1	1	1	1	0	1	-10,852713	273,880355	308,173661	0
15.01.2021	08:50:11	0	1,665675	3,163494	2,544	15,4008	-0,085	87,032	0	1012,78	6,3	8,5	8,5	1	1	1	1	1	1	1	1	1	0	1	-6,906272	273,748024	311,503971	0
15.01.2021	08:50:12	0	1,784652	4,180381	2,7045	28,0404	-0,079	87,024	0	1012,78	6,4	8,5	8,3	1	1	1	1	1	1	1	1	1	0	1	-7,047216	273,831728	311,752647	0
15.01.2021	08:50:13	0	1,546698	3,615465	2,856	34,3224	-0,083	87,034	0	1012,92	6,3	8,5	8,3	1	1	1	1	1	1	1	1	1	0	1	-3,875969	273,761216	314,595657	0
15.01.2021	08:50:14	0	1,903629	3,050512	2,78025	34,3296	-0,088	87,026	0	1012,7	6,4	8,5	8,5	1	1	1	1	1	1	1	1	1	0	1	-6,342495	273,756818	312,108665	0
15.01.2021	08:50:15	0	1,903629	5,084247	2,90025	38,79	-0,091	87,026	0	1012,84	6,4	8,5	8,3	1	1	1	1	1	1	1	1	1	0	1	-8,738548	273,874454	310,260333	0
15.01.2021	08:50:16	0	1,784652	4,293313	2,943	30,312	-0,083	87,039	0	1012,84	6,4	8,5	8,5	1	1	1	1	1	1	1	1	1	0	1	-0	273,736305	318,355724	0
15.01.2021	08:50:17	0	1,546698	5,084247	2,94375	26,5104	-0,087	87,019	0	1012,86	6,4	8,5	8,3	1	1	1	1	1	1	1	1	1	0	1	-7,681466	273,818487	311,056742	0
15.01.2021	08:50:18	0	1,546698	2,937565	2,943	11,1924	-0,084	87,035	0	1012,7	6,4	8,5	8,3	1	1	1	1	1	1	1	1	1	0	1	-10,007047	273,896591	309,094985	0
15.01.2021	08:50:19	0	1,903629	3,841431	3,1935	10,422	-0,084	87,031	0	1012,76	6,4	8,5	8,3	1	1	1	1	1	1	1	1	1	0	1	-4,157858	273,799378	314,491383	0
15.01.2021	08:50:20	0	1,665675	3,502482	3,291	18,4464	-0,078	87,047	0	1012,74	6,4	8,5	8,3	1	1	1	1	1	1	1	1	1	0	1	-9,584214	273,803786	309,085548	0
15.01.2021	08:50:21	0	1,903615	3,163532	3,261	23,5908	-0,08	87,043	0	1012,92	6,3	8,6	8,3	1	1	1	1	1	1	1	1	1	0	1	-8,245243	273,750955	310,178636	0
15.01.2021	08:50:22	0	1,784652	3,841385	3,1875	19,9008	-0,083	87,035	0	1012,8	6,4	8,5	8,5	1	1	1	1	1	1	1	1	1	0	1	-4,721635	273,787628	313,87291	0
15.01.2021	08:50:23	0	1,546698	4,406348	3,219	18,0792	-0,081	87,047	0	1012,86	6,4	8,5	8,3	1	1	1	1	1	1	1	1	1	0	1	-9,302326	273,893638	309,785945	0
15.01.2021	08:50:24	0	1,784652	4,406348	3,3735	33,6312	-0,083	87,038	0	1012,86	6,4	8,5	8,3	1	1	1	1	1	1	1	1	1	0	1	-6,060606	273,87888	312,958894	0
15.01.2021	08:50:25	0	1,784652	4,745241	3,29775	22,464	-0,081	87,049	0	1012,88	6,4	8,5	8,5	1	1	1	1	1	1	1	1	1	0	1	-7,681466	273,84056	311,15953	0
15.01.2021	08:50:26	0	1,546698	4,519331	2,922	30,69	-0,081	87,058	0	1012,98	6,4	8,5	8,3	1	1	1	1	1	1	1	1	1	0	1	-7,117689	273,755352	311,32665	0
15.01.2021	08:50:27	0	1,546698	4,858223	3,1965	24,7212	-0,083	87,043	0	1012,84	6,4	8,5	8,5	1	1	1	1	1	1	1	1	1	0	1	-12,614517	273,849396	306,267634	0
15.01.2021	08:50:28	0	1,903629	4,406348	3,74175	33,6276	-0,08	87,042	0	1012,94	6,4	8,5	8,3	1	1	1	1	1	1	1	1	1	0	1	-7,610994	273,917276	311,587442	0
15.01.2021	08:50:29	0	1,784652	2,93753	3,774	28,3392	-0,08	87,05	0	1012,84	6,4	8,5	8,5	1	1	1	1	1	1	1	1	1	0	1	-4,721635	273,792033	313,893416	0
15.01.2021	08:50:30	0	1,784652	4,406295	3,44775	8,9712	-0,078	87,043	0	1012,8	6,4	8,5	8,5	1	1	1	1	1	1	1	1	1	0	1	-9,161381	273,799378	309,487859	0
15.01.2021	08:50:31	0	1,665663	4,406348	3,14175	23,958	-0,089	87,05	0	1012,84	6,4	8,6	8,3	1	1	1	1	1	1	1	1	1	0	1	-3,030303	273,920233	316,181915	0
15.01.2021	08:50:32	0	1,903629	2,711599	2,8695	16,848	-0,089	87,038	0	1012,86	6,4	8,5	8,3	1	1	1	1	1	1	1	1	1	0	1	-6,412967	273,843505	312,441745	0
15.01.2021	08:50:33	0	1,784652	2,937565	2,799	11,2104	-0,087	87,041	0	1012,82	6,4	8,5	8,3	1	1	1	1	1	1	1	1	1	0	1	-6,342495	273,917276	312,855941	0
15.01.2021	08:50:34	0	1,665663	3,615421	2,95425	15,7896	-0,081	87,062	0	1012,92	6,4	8,6	8,5	1	1	1	1	1	1	1	1	1	0	1	-8,668076	273,825842	310,104379	0
15.01.2021	08:50:35	0	1,784652	4,971264	3,144	18,09	-0,08	87,062	0	1012,86	6,4	8,5	8,3	1	1	1	1	1	1	1	1	1	0	1	-5,84919	273,911364	313,321689	0
15.01.2021	08:50:36	0	2,022605	3,276515	3,12525	22,4532	-0,085	87,046	0	1012,8	6,4	8,5	8,3	1	1	1	1	1	1	1	1	1	0	1	-3,312192	273,828785	315,473966	0
15.01.2021	08:50:37	0	1,784652	4,632314	2,967	27,0036	-0,08	87,059	0	1012,84	6,3	8,5	8,3	1	1	1	1	1	1	1	1	1	0	1	-7,892882	273,91432	311,291774	0
15.01.2021	08:50:38	0	2,141567	5,197168	2,745	18,45	-0,079	87,055	0	1012,88	6,4	8,6	8,5	1	1	1	1	1	1	1	1	1	0	1	-9,090909	273,877405	309,921717	0
15.01.2021	08:50:39	0	1,665675	3,163494	2,652	16,8444	-0,084	87,046	0	1012,88	6,3	8,5	8,5	1	1	1	1	1	1	1	1	1	0	1	-9,513742	273,775885	309,026147	0
15.01.2021	08:50:40	0	1,903629	5,197168	2,73675	24,7104	-0,081	87,061	0	1012,96	6,4	8,5	8,5	1	1	1	1	1	1	1	1	1	0	1	-4,933051	273,864132	314,017742	0
15.01.2021	08:50:41	0	2,022591	4,067398	2,66325	20,7216	-0,082	87,066	0	1012,78	6,4	8,6	8,3	1	1	1	1	1	1	1	1	1	0	1	-10,923185	273,915798	308,26836	0
15.01.2021	08:50:42	0	1,665663	3,163532	2,48625	22,4532	-0,083	87,043	0	1012,88	6,4	8,6	8,3	1	1	1	1	1	1	1	1	1	0	1	-7,470049	273,780288	311,090331	0
15.01.2021	08:50:43	0	1,665663	4,067398	2,4615	27,6588	-0,08	87,063	0	1012,92	6,3	8,6	8,3	1	1	1	1	1	1	1	1	1	0	1	-12,05074	273,901022	307,071939	0
15.01.2021	08:50:44	0	1,903629	3,954415	2,46675	31,77	-0,081	87,064	0	1012,9	6,4	8,5	8,3	1	1	1	1	1	1	1	1	1	0	1	-8,668076	273,930585	310,592399	0
15.01.2021	08:50:45	0	1,784639	3,954367	2,43075	22,9824	-0,08	87,061	0	1012,86	6,3	8,6	8,5	1	1	1	1	1	1	1	1	1	0	1	-9,020437	273,856763	309,896027	0
15.01.2021	08:50:46	0	1,903629	3,050548	2,3385	25,776	-0,08	87,064	0	1012,84	6,4	8,5	8,3	1	1	1	1	1	1	1	1	1	0	1	-7,047216	273,756818	311,403943	0
15.01.2021	08:50:47	0	2,022591	4,858281	2,36925	19,89	-0,082	87,064	0	1012,84	6,3	8,6	8,3	1	1	1	1	1	1	1	1	1	0	1	-11,980268	273,750955	306,443612	0
15.01.2021	08:50:48	0	2,022591	3,615465	2,43675	22,086	-0,082	87,062	0	1012,78	6,4	8,6	8,3	1	1	1	1	1	1	1	1	1	0	1	-8,033827	273,805256	310,642777	0
15.01.2021	08:50:49	0	1,546698	4,745298	2,424	19,1484	-0,08	87,069	0	1012,86	6,4	8,5	8,3	1	1	1	1	1	1	1	1	1	0	1	-12,191684	273,91432	306,992972	0
15.01.2021	08:50:50	0	1,784639	4,745241	2,532	14,6412	-0,08	87,056	0	1012,78	6,4	8,6	8,5	1	1	1	1	1	1	1	1	1	0	1	-6,412967	273,884782	312,634034	0
15.01.2021	08:50:51	0	1,784652	3,050512	2,589	12,0996	-0,078	87,066	0	1012,84	6,4	8,5	8,5	1	1	1	1	1	1	1	1	1	0	1	-12,684989	273,911364	306,485889	0
15.01.2021	08:50:52	0	2,022605	3,389498	2,76675	11,1996	-0,08	87,077	0	1012,8	6,3	8,5	8,3	1	1	1	1	1	1	1	1	1	0	1	-16,701903	273,79644	301,93366	0
15.01.2021	08:50:53	0	1,784652	2,93753	2,8005	16,848	-0,082	87,078	0	1012,8	6,3	8,5	8,5	1	1	1	1	1	1	1	1	1	0	1	-10,711769	273,92319	308,514234	0
15.01.2021	08:50:54	0	2,141567	3,841431	2,58525	18,0864	-0,085	87,083	0	1012,82	6,4	8,6	8,3	1	1	1	1	1	1	1	1	1	0	1	-13,03735	273,800847	305,61873	0
15.01.2021	08:50:55	0	1,903629	4,180381	2,42925	15,4116	-0,074	87,07	0	1012,92	6,4	8,5	8,3	1	1	1	1	1	1	1	1	1	0	1	-4,721635	273,912842	314,456132	0
15.01.2021	08:50:56	0	1,903629	4,632259	2,4405	15,0228	-0,078	87,071	0	1012,88	6,4	8,5	8,5	1	1	1	1	1	1	1	1	1	0	1	-13,319239	273,872979	305,672771	0
15.01.2021	08:50:57	0	1,784652	3,276476	2,56575	22,0788	-0,082	87,083	0	1012,86	6,4	8,5	8,5	1	1	1	1	1	1	1	1	1	0	1	-4,369274	273,724593	313,93197	0
15.01.2021	08:50:58	0	2,022605	4,293365	2,7675	24,714	-0,082	87,065	0	1012,9	6,4	8,5	8,3	1	1	1	1	1	1	1	1	1	0	1	-5,567301	273,821429	313,184604	0
15.01.2021	08:50:59	0	1,784652	3,050548	2,83875	18,8388	-0,085	87,08	0	1012,88	6,6	8,5	8,3	1	1	1	1	1	1	1	1	1	0	1	-8,174771	273,92319	311,051231	0
15.01.2021	08:51:00	0	1,784652	4,293313	2,574	17,676	-0,081	87,075	0	1012,86	6,4	8,5	8,5	1	1	1	1	1	1	1	1	1	0	1	-8,033827	273,920233	311,178391	0
15.01.2021	08:51:01	0	1,784652	4,293313	2,574	17,676	-0,081	87,075	0	1012,86	6,4	8,5	8,5	1	1	1	1	1	1	1	1	1	0	1	-8,033827	273,920233	311,178391	0
15.01.2021	08:51:02	0	2,022591	3,841385	2,637	19,1304	-0,085	87,09	0	1012,88	6,3	8,6	8,5	1	1	1	1	1	1	1	1	1	0	1	-7,470049	273,872979	311,52196	0
15.01.2021	08:51:03	0	1,784652	3,389458	2,78025	29,1024	-0,082	87,063	0	1012,88	6,4	8,5	8,5	1	1	1	1	1	1	1	1	1	0	1	-9,372798	273,905453	309,770535	0
15.01.2021	08:51:04	0	1,784652	4,745241	2,742	37,3068	-0,083	87,095	0	1012,8	6,4	8,5	8,5	1	1	1	1	1	1	1	1	1	0	1	-10,42988	273,746559	307,973546	0
15.01.2021	08:51:05	0	2,260559	4,632259	2,6445	23,2164	-0,087	87,082	0	1012,82	6,4	8,5	8,5	1	1	1	1	1	1	1	1	1	0	1	-8,45666	273,847923	310,418631	0
15.01.2021	08:51:06	0	1,665675	2,711599	2,523	19,53	-0,081	87,095	0	1012,82	6,3	8,5	8,3	1	1	1	1	1	1	1	1	1	0	1	-11,134602	273,771483	307,384802	0
15.01.2021	08:51:07	0	2,022591	3,276515	2,523	20,6064	-0,084	87,098	0	1012,88	6,3	8,6	8,3	1	1	1	1	1	1	1	1	1	0	1	-7,188161	273,768549	311,317589	0
15.01.2021	08:51:08	0	1,903629	4,632259	2,4735	25,8012	-0,083	87,089	0	1012,92	6,4	8,5	8,5	1	1	1	1	1	1	1	1	1	0	1	-9,372798	273,79644	309,262765	0
15.01.2021	08:51:09	0	2,260559	4,858223	2,3415	31,3812	-0,083	87,097	0	1012,9	6,4	8,5	8,5	1	1	1	1	1	1	1	1	1	0	1	-9,866103	273,890686	309,208408	0
15.01.2021	08:51:10	0	2,022591	4,180331	2,2395	23,5764	-0,084	87,096	0	1012,76	6,4	8,6	8,5	1	1	1	1	1	1	1	1	1	0	1	-12,825934	273,787628	305,768611	0
15.01.2021	08:51:11	0	2,022605	3,954415	2,16975	26,8848	-0,088	87,082	0	1012,86	6,3	8,5	8,3	1	1	1	1	1	1	1	1	1	0	1	-10,147992	273,758284	308,30999	0
15.01.2021	08:51:12	0	1,903629	2,711566	2,13825	28,7208	-0,085	87,092	0	1012,76	6,4	8,5	8,5	1	1	1	1	1	1	1	1	1	0	1	-5,426357	273,828785	313,359801	0
15.01.2021	08:51:13	0	1,903629	4,293313	2,211	26,8956	-0,085	87,093	0	1012,94	6,4	8,5	8,5	1	1	1	1	1	1	1	1	1	0	1	-8,45666	273,929105	310,79692	0
15.01.2021	08:51:14	0	1,546698	2,93753	2,208	25,776	-0,082	87,094	0	1012,96	6,4	8,5	8,5	1	1	1	1	1	1	1	1	1	0	1	-6,906272	273,849396	311,975879	0
15.01.2021	08:51:15	0	1,784639	2,711566	2,24175	36,6012	-0,086	87,099	0	1012,86	6,4	8,6	8,5	1	1	1	1	1	1	1	1	1	0	1	-13,107822	273,921711	306,111287	0
15.01.2021	08:51:16	0	2,141567	4,293313	2,23875	29,088	-0,083	87,103	0	1012,86	6,4	8,6	8,5	1	1	1	1	1	1	1	1	1	0	1	-8,174771	273,802317	310,48815	0
15.01.2021	08:51:17	0	1,784652	4,745241	2,30175	24,4296	-0,078	87,091	0	1012,74	6,3	8,5	8,5	1	1	1	1	1	1	1	1	1	0	1	-11,134602	273,884782	307,912399	0
15.01.2021	08:51:18	0	1,903629	4,858223	2,48925	28,7136	-0,08	87,107	0	1013,06	6,4	8,5	8,5	1	1	1	1	1	1	1	1	1	0	1	-7,188161	273,753886	311,249358	0
15.01.2021	08:51:19	0	1,784639	3,163494	2,538	33,9372	-0,083	87,089	0	1012,76	6,4	8,6	8,5	1	1	1	1	1	1	1	1	1	0	1	-9,020437	273,819958	309,724619	0
15.01.2021	08:51:20	0	2,141582	3,050512	2,607	32,8788	-0,082	87,094	0	1012,84	6,3	8,5	8,5	1	1	1	1	1	1	1	1	1	0	1	-10,500352	273,805256	308,176251	0
15.01.2021	08:51:21	0	1,784639	3,954415	2,7525	32,8788	-0,081	87,101	0	1012,96	6,4	8,6	8,3	1	1	1	1	1	1	1	1	1	0	1	-8,174771	273,92319	311,051231	0
15.01.2021	08:51:22	0	2,141567	2,93753	2,81775	32,148	-0,081	87,105	0	1012,76	6,4	8,6	8,5	1	1	1	1	1	1	1	1	1	0	1	-7,892882	273,893638	311,195388	0
15.01.2021	08:51:23	0	1,665663	2,146656	2,9205	23,22	-0,077	87,101	0	1012,92	6,3	8,6	8,5	1	1	1	1	1	1	1	1	1	0	1	-9,584214	273,911364	309,586665	0
15.01.2021	08:51:24	0	1,665675	4,293313	3,31725	25,8012	-0,08	87,097	0	1012,86	6,3	8,5	8,5	1	1	1	1	1	1	1	1	1	0	1	-9,372798	273,927626	309,873887	0
15.01.2021	08:51:25	0	1,903615	4,067349	3,486	23,5872	-0,084	87,107	0	1012,94	6,3	8,6	8,5	1	1	1	1	1	1	1	1	1	0	1	-6,694856	273,814076	312,022812	0
15.01.2021	08:51:26	0	1,784652	3,841431	3,411	23,9616	-0,079	87,106	0	1012,78	6,4	8,5	8,3	1	1	1	1	1	1	1	1	1	0	1	-11,839323	273,929105	307,414256	0
15.01.2021	08:51:27	0	2,022605	3,276476	3,12525	14,292	-0,084	87,117	0	1012,9	6,4	8,5	8,5	1	1	1	1	1	1	1	1	1	0	1	-1,973221	273,78616	316,61449	0
15.01.2021	08:51:28	0	2,022605	3,954415	2,9235	24,7104	-0,084	87,111	0	1012,88	6,4	8,5	8,3	1	1	1	1	1	1	1	1	1	0	1	-9,584214	273,932064	309,683158	0
15.01.2021	08:51:29	0	1,903629	4,745241	2,96925	28,6992	-0,084	87,103	0	1012,86	6,4	8,5	8,5	1	1	1	1	1	1	1	1	1	0	1	-8,879493	273,87003	310,098776	0
15.01.2021	08:51:30	0	1,784639	3,728403	2,91225	13,9068	-0,083	87,123	0	1012,9	6,3	8,6	8,5	1	1	1	1	1	1	1	1	1	0	1	-9,090909	273,877405	309,921717	0
15.01.2021	08:51:31	0	2,379536	4,632259	2,70075	29,106	-0,079	87,109	0	1012,68	6,4	8,5	8,5	1	1	1	1	1	1	1	1	1	0	1	-8,879493	273,898068	310,229421	0
15.01.2021	08:51:32	0	2,141567	4,067349	2,68725	31,3992	-0,079	87,116	0	1012,88	6,4	8,6	8,5	1	1	1	1	1	1	1	1	1	0	1	-6,976744	273,852343	311,91913	0
15.01.2021	08:51:33	0	1,903615	4,632259	2,61375	25,0344	-0,083	87,111	0	1012,84	6,4	8,6	8,5	1	1	1	1	1	1	1	1	1	0	1	-7,470049	273,936503	311,818016	0
15.01.2021	08:51:34	0	2,022591	3,615421	2,61225	36,918	-0,08	87,113	0	1012,86	6,3	8,6	8,5	1	1	1	1	1	1	1	1	1	0	1	-6,906272	273,811135	311,797705	0
15.01.2021	08:51:35	0	2,022605	4,406348	2,59125	32,8752	-0,08	87,117	0	1012,9	6,3	8,5	8,3	1	1	1	1	1	1	1	1	1	0	1	-6,342495	273,761216	312,129131	0
15.01.2021	08:51:36	0	1,665663	3,163494	2,571	23,2236	-0,079	87,117	0	1012,86	6,4	8,6	8,5	1	1	1	1	1	1	1	1	1	0	1	-8,104299	273,790565	310,503916	0
15.01.2021	08:51:37	0	1,903629	3,276476	2,44575	29,952	-0,082	87,101	0	1012,9	6,4	8,5	8,5	1	1	1	1	1	1	1	1	1	0	1	-9,090909	273,88921	309,976723	0
15.01.2021	08:51:38	0	2,260559	4,293313	2,62425	33,246	-0,083	87,102	0	1012,9	6,4	8,5	8,5	1	1	1	1	1	1	1	1	1	0	1	-8,738548	273,927626	310,508136	0
15.01.2021	08:51:39	0	2,141582	4,293365	2,727	32,1444	-0,08	87,114	0	1012,8	6,3	8,5	8,3	1	1	1	1	1	1	1	1	1	0	1	-6,412967	273,802317	312,249954	0
15.01.2021	08:51:40	0	2,141582	4,519331	2,69475	26,2656	-0,078	87,125	0	1012,98	6,3	8,5	8,3	1	1	1	1	1	1	1	1	1	0	1	-7,470049	273,787628	311,124495	0
15.01.2021	08:51:41	0	1,784652	3,389458	2,78175	35,46	-0,081	87,119	0	1012,88	6,4	8,5	8,5	1	1	1	1	1	1	1	1	1	0	1	-10,218464	273,761216	308,253162	0
15.01.2021	08:51:42	0	2,379536	4,406295	3,009	35,478	-0,079	87,118	0	1012,88	6,3	8,5	8,5	1	1	1	1	1	1	1	1	1	0	1	-5,990134	273,862658	312,953793	0
15.01.2021	08:51:43	0	1,903615	3,615421	3,0195	29,1024	-0,083	87,119	0	1012,96	6,3	8,6	8,5	1	1	1	1	1	1	1	1	1	0	1	-8,104299	273,930585	311,156177	0
15.01.2021	08:51:44	0	2,260543	2,824548	2,92875	32,8716	-0,084	87,124	0	1012,86	6,4	8,6	8,5	1	1	1	1	1	1	1	1	1	0	1	-7,610994	273,85971	311,3192	0
15.01.2021	08:51:45	0	1,784639	2,598584	2,81025	20,286	-0,084	87,124	0	1012,78	6,4	8,6	8,5	1	1	1	1	1	1	1	1	1	0	1	-5,919662	273,792033	312,695389	0
15.01.2021	08:51:46	0	1,903615	3,276476	2,73375	31,0032	-0,079	87,12	0	1013	6,3	8,6	8,5	1	1	1	1	1	1	1	1	1	0	1	-4,510218	273,933543	314,764051	0
15.01.2021	08:51:47	0	1,784652	2,711566	2,60775	23,976	-0,081	87,103	0	1012,9	6,6	8,5	8,5	1	1	1	1	1	1	1	1	1	0	1	-8,033827	273,837616	310,793456	0
15.01.2021	08:51:48	0	1,784639	4,971205	2,61075	19,9008	-0,077	87,134	0	1012,88	6,4	8,6	8,5	1	1	1	1	1	1	1	1	1	0	1	-4,510218	273,915798	314,681327	0
15.01.2021	08:51:49	0	2,141582	4,293313	2,673	29,9412	-0,083	87,107	0	1012,82	6,4	8,5	8,5	1	1	1	1	1	1	1	1	1	0	1	-6,412967	273,794971	312,215758	0
15.01.2021	08:51:50	0	2,260559	4,293365	2,751	26,9028	-0,078	87,119	0	1012,86	6,3	8,5	8,3	1	1	1	1	1	1	1	1	1	0	1	-5,919662	273,927626	313,327023	0
15.01.2021	08:51:51	0	2,022605	3,728403	2,652	24,3252	-0,08	87,125	0	1012,86	6,4	8,5	8,5	1	1	1	1	1	1	1	1	1	0	1	-7,610994	273,929105	311,642586	0
15.01.2021	08:51:52	0	2,141567	5,649096	2,54925	18,0756	-0,078	87,108	0	1012,86	6,4	8,6	8,5	1	1	1	1	1	1	1	1	1	0	1	-12,825934	273,847923	306,049356	0
15.01.2021	08:51:53	0	1,903615	3,841385	2,61675	17,6868	-0,076	87,137	0	1012,9	6,4	8,6	8,5	1	1	1	1	1	1	1	1	1	0	1	-7,610994	273,765616	310,881105	0
15.01.2021	08:51:54	0	2,141567	4,745241	2,67525	16,0848	-0,079	87,16	0	1013,16	6,4	8,6	8,5	1	1	1	1	1	1	1	1	1	0	1	-9,090909	273,887734	309,969845	0
15.01.2021	08:51:55	0	1,784639	4,067349	2,673	15,3972	-0,083	87,134	0	1012,9	6,3	8,6	8,5	1	1	1	1	1	1	1	1	1	0	1	-8,949965	273,921711	310,269145	0
15.01.2021	08:51:56	0	2,141567	4,745241	2,7225	17,2296	-0,076	87,128	0	1012,84	6,4	8,6	8,5	1	1	1	1	1	1	1	1	1	0	1	-4,721635	273,887734	314,33912	0
15.01.2021	08:51:57	0	1,903629	3,163494	2,6325	15,0372	-0,086	87,126	0	1012,9	6,4	8,5	8,5	1	1	1	1	1	1	1	1	1	0	1	-4,651163	273,935023	314,630004	0
15.01.2021	08:51:58	0	2,141567	5,084247	2,493	19,5336	-0,079	87,139	0	1012,84	6,3	8,6	8,3	1	1	1	1	1	1	1	1	1	0	1	-9,44327	273,943903	309,879298	0
15.01.2021	08:51:59	0	2,379519	4,406348	2,535	28,818	-0,079	87,132	0	1012,8	6,4	8,6	8,3	1	1	1	1	1	1	1	1	1	0	1	-12,403101	273,830256	306,38991	0
15.01.2021	08:52:00	0	2,141567	4,406295	2,667	41,4576	-0,075	87,133	0	1012,88	6,4	8,6	8,5	1	1	1	1	1	1	1	1	1	0	1	-6,624383	273,767082	311,87454	0
15.01.2021	08:52:01	0	2,141567	4,406295	2,667	41,4576	-0,075	87,133	0	1012,88	6,4	8,6	8,5	1	1	1	1	1	1	1	1	1	0	1	-7,470049	273,899545	311,645747	0
15.01.2021	08:52:02	0	1,784652	4,519277	2,54475	34,6896	-0,085	87,122	0	1012,9	6,3	8,5	8,5	1	1	1	1	1	1	1	1	1	0	1	-9,584214	273,937982	309,71075	0
15.01.2021	08:52:03	0	2,022591	4,293365	2,55975	18,4608	-0,087	87,125	0	1013	6,3	8,6	8,3	1	1	1	1	1	1	1	1	1	0	1	-5,778717	273,915798	313,412828	0
15.01.2021	08:52:04	0	2,260559	2,711566	2,66475	24,3288	-0,081	87,133	0	1012,96	6,3	8,5	8,5	1	1	1	1	1	1	1	1	1	0	1	-6,624383	273,858237	312,298946	0
15.01.2021	08:52:05	0	2,022591	4,293313	2,69925	27,9576	-0,08	87,133	0	1012,76	6,3	8,6	8,5	1	1	1	1	1	1	1	1	1	0	1	-7,82241	273,780288	310,73797	0
15.01.2021	08:52:06	0	1,665675	2,485602	2,73225	23,9688	-0,085	87,137	0	1012,7	6,3	8,5	8,5	1	1	1	1	1	1	1	1	1	0	1	-8,174771	273,756818	310,276389	0
15.01.2021	08:52:07	0	2,260543	4,293313	2,71875	22,0644	-0,086	87,129	0	1012,92	6,4	8,6	8,5	1	1	1	1	1	1	1	1	1	0	1	-7,047216	273,932064	312,220156	0
15.01.2021	08:52:08	0	1,903629	3,841385	2,58525	22,8384	-0,082	87,144	0	1012,92	6,3	8,5	8,5	1	1	1	1	1	1	1	1	1	0	1	-5,003524	273,809665	313,693609	0
15.01.2021	08:52:09	0	2,022605	3,276476	2,4105	23,5944	-0,082	87,128	0	1012,86	6,3	8,5	8,5	1	1	1	1	1	1	1	1	1	0	1	-8,245243	273,926147	310,994547	0
15.01.2021	08:52:10	0	1,903629	3,615421	2,307	19,5264	-0,085	87,145	0	1012,88	6,3	8,5	8,5	1	1	1	1	1	1	1	1	1	0	1	-7,82241	273,924668	311,410486	0
15.01.2021	08:52:11	0	1,903615	4,971205	2,316	27,2808	-0,081	87,138	0	1013,04	6,3	8,6	8,5	1	1	1	1	1	1	1	1	1	0	1	-6,976744	273,844978	311,884826	0
15.01.2021	08:52:12	0	1,784639	2,598584	2,208	23,2308	-0,079	87,133	0	1013,02	6,4	8,6	8,5	1	1	1	1	1	1	1	1	1	0	1	-4,510218	273,755352	313,93412	0
15.01.2021	08:52:13	0	2,022591	3,163494	2,127	24,4152	-0,078	87,144	0	1013,06	6,3	8,6	8,5	1	1	1	1	1	1	1	1	1	0	1	-6,976744	273,871505	312,008395	0
15.01.2021	08:52:14	0	2,022605	4,293313	2,0775	20,6244	-0,088	87,138	0	1012,92	6,4	8,5	8,5	1	1	1	1	1	1	1	1	1	0	1	-7,188161	273,926147	312,051629	0
15.01.2021	08:52:15	0	1,903629	3,954367	2,18175	28,3176	-0,081	87,133	0	1012,9	6,4	8,5	8,5	1	1	1	1	1	1	1	1	1	0	1	-10,077519	273,906931	309,072699	0
15.01.2021	08:52:16	0	2,141567	4,632259	2,25075	28,3536	-0,076	87,127	0	1012,8	6,4	8,6	8,5	1	1	1	1	1	1	1	1	1	0	1	-8,386187	273,893638	310,702083	0
15.01.2021	08:52:17	0	2,141582	4,067349	2,2305	15,03	-0,083	87,149	0	1012,68	6,3	8,5	8,5	1	1	1	1	1	1	1	1	1	0	1	-11,627907	273,908408	307,529197	0
15.01.2021	08:52:18	0	2,498512	3,728403	2,25	25,038	-0,078	87,143	0	1012,86	6,3	8,5	8,5	1	1	1	1	1	1	1	1	1	0	1	-10,993658	273,915798	308,197888	0
15.01.2021	08:52:19	0	1,903615	2,937565	2,283	27,972	-0,085	87,15	0	1012,94	6,4	8,6	8,3	1	1	1	1	1	1	1	1	1	0	1	-5,990134	273,905453	313,153199	0
15.01.2021	08:52:20	0	1,903615	4,293313	2,31825	26,9028	-0,081	87,148	0	1012,9	6,4	8,6	8,5	1	1	1	1	1	1	1	1	1	0	1	-4,369274	273,756818	314,081885	0
15.01.2021	08:52:21	0	2,141567	4,519277	2,36025	29,556	-0,087	87,131	0	1012,84	6,3	8,6	8,5	1	1	1	1	1	1	1	1	1	0	1	-5,285412	273,856763	313,631052	0
15.01.2021	08:52:22	0	1,903615	3,954367	2,39775	34,7148	-0,081	87,157	0	1012,88	6,4	8,6	8,5	1	1	1	1	1	1	1	1	1	0	1	-10,993658	273,942422	308,322008	0
15.01.2021	08:52:23	0	2,260543	3,050512	2,214	30,312	-0,091	87,146	0	1012,76	6,3	8,6	8,5	1	1	1	1	1	1	1	1	1	0	1	-7,82241	273,890686	311,252101	0
15.01.2021	08:52:24	0	2,141567	2,93753	1,93875	39,546	-0,076	87,138	0	1012,96	6,3	8,6	8,5	1	1	1	1	1	1	1	1	1	0	1	-6,412967	273,917276	312,785469	0
15.01.2021	08:52:25	0	2,022591	3,841385	1,8495	15,3972	-0,087	87,141	0	1012,82	6,3	8,6	8,5	1	1	1	1	1	1	1	1	1	0	1	-12,614517	273,815546	306,109996	0
15.01.2021	08:52:26	0	2,022605	3,389458	1,8975	11,7036	-0,078	87,147	0	1012,94	6,4	8,5	8,5	1	1	1	1	1	1	1	1	1	0	1	-7,540521	273,886258	311,513356	0
15.01.2021	08:52:27	0	1,903615	3,050548	2,0505	10,4436	-0,077	87,145	0	1012,9	6,3	8,6	8,3	1	1	1	1	1	1	1	1	1	0	1	-8,738548	273,770016	309,774028	0
15.01.2021	08:52:28	0	2,260559	3,954367	2,169	17,2368	-0,08	87,134	0	1012,86	6,4	8,5	8,5	1	1	1	1	1	1	1	1	1	0	1	-9,725159	273,915798	309,466387	0
15.01.2021	08:52:29	0	2,141567	2,711566	2,148	22,8312	-0,081	87,143	0	1012,84	6,3	8,6	8,5	1	1	1	1	1	1	1	1	1	0	1	-12,825934	273,846451	306,042496	0
15.01.2021	08:52:30	0	2,379519	4,180331	2,05275	22,4604	-0,079	87,143	0	1012,84	6,3	8,6	8,5	1	1	1	1	1	1	1	1	1	0	1	-7,82241	273,92319	311,403592	0
15.01.2021	08:52:31	0	2,141567	3,728426	2,06475	6,8184	-0,081	87,154	0	1012,9	6,3	8,6	8,4	1	1	1	1	1	1	1	1	1	0	1	-6,765328	273,864132	312,185466	0
15.01.2021	08:52:32	0	1,903629	2,824548	2,10225	19,9224	-0,082	87,142	0	1012,86	6,3	8,5	8,5	1	1	1	1	1	1	1	1	1	0	1	-11,275546	273,915798	307,915999	0
15.01.2021	08:52:33	0	1,903615	4,745241	2,1825	31,014	-0,08	87,148	0	1012,96	6,3	8,6	8,5	1	1	1	1	1	1	1	1	1	0	1	-4,510218	273,881831	314,523031	0
15.01.2021	08:52:34	0	1,903615	3,050512	2,4015	29,9628	-0,082	87,149	0	1012,86	6,3	8,6	8,5	1	1	1	1	1	1	1	1	1	0	1	-5,84919	273,929105	313,40439	0
15.01.2021	08:52:35	0	1,903615	3,163494	2,39025	34,3224	-0,072	87,162	0	1012,92	6,4	8,6	8,5	1	1	1	1	1	1	1	1	1	0	1	-7,117689	273,802317	311,545232	0
15.01.2021	08:52:36	0	2,379536	3,276476	2,5575	30,7116	-0,084	87,149	0	1012,96	6,3	8,5	8,5	1	1	1	1	1	1	1	1	1	0	1	-5,355884	273,864132	313,594909	0
15.01.2021	08:52:37	0	2,022605	2,711566	2,84775	22,4424	-0,081	87,163	0	1012,98	6,4	8,5	8,5	1	1	1	1	1	1	1	1	1	0	1	-10,570825	273,92319	308,655178	0
15.01.2021	08:52:38	0	2,379519	4,858223	2,82075	16,4664	-0,083	87,155	0	1013	6,3	8,6	8,5	1	1	1	1	1	1	1	1	1	0	1	-7,117689	273,847923	311,757602	0
15.01.2021	08:52:39	0	2,260543	3,163494	2,6625	17,712	-0,082	87,164	0	1012,86	6,4	8,6	8,5	1	1	1	1	1	1	1	1	1	0	1	-7,047216	273,930585	312,213259	0
15.01.2021	08:52:40	0	2,260543	3,841385	2,78625	4,4676	-0,079	87,157	0	1012,82	6,3	8,6	8,5	1	1	1	1	1	1	1	1	1	0	1	-7,540521	273,792033	311,074529	0
15.01.2021	08:52:41	0	2,022591	4,632259	2,9445	16,4808	-0,083	87,164	0	1012,98	6,3	8,6	8,5	1	1	1	1	1	1	1	1	1	0	1	-4,510218	273,831728	314,289645	0
15.01.2021	08:52:42	0	2,141567	4,971205	2,97825	8,2764	-0,083	87,152	0	1012,86	6,3	8,6	8,5	1	1	1	1	1	1	1	1	1	0	1	-9,513742	273,930585	309,746733	0
15.01.2021	08:52:43	0	2,141567	2,485602	2,81775	10,8	-0,076	87,153	0	1012,88	6,3	8,6	8,5	1	1	1	1	1	1	1	1	1	0	1	-8,738548	273,881831	310,294701	0
15.01.2021	08:52:44	0	2,022591	3,615421	3,0345	15,7896	-0,079	87,163	0	1012,72	6,3	8,6	8,5	1	1	1	1	1	1	1	1	1	0	1	-9,302326	273,817017	309,429035	0
15.01.2021	08:52:45	0	1,784639	2,824548	3,1575	6,4332	-0,075	87,161	0	1012,92	6,3	8,6	8,5	1	1	1	1	1	1	1	1	1	0	1	-10,993658	273,949825	308,356523	0
15.01.2021	08:52:46	0	2,141567	2,711566	3,0705	16,8444	-0,081	87,165	0	1012,9	6,3	8,6	8,5	1	1	1	1	1	1	1	1	1	0	1	-9,866103	273,805256	308,810501	0
15.01.2021	08:52:47	0	1,903615	4,632259	2,89275	15,1236	-0,079	87,152	0	1012,94	6,4	8,6	8,5	1	1	1	1	1	1	1	1	1	0	1	-5,990134	273,926147	313,249656	0
15.01.2021	08:52:48	0	2,379519	3,728448	2,62125	23,5728	-0,083	87,161	0	1012,98	6,3	8,6	8,3	1	1	1	1	1	1	1	1	1	0	1	-6,765328	273,915798	312,426218	0
15.01.2021	08:52:49	0	2,141567	4,519277	2,51475	25,8048	-0,086	87,174	0	1012,92	6,4	8,6	8,5	1	1	1	1	1	1	1	1	1	0	1	-8,315715	273,784691	310,265162	0
15.01.2021	08:52:50	0	2,617471	4,858223	2,589	16,11	-0,08	87,169	0	1012,92	6,3	8,6	8,5	1	1	1	1	1	1	1	1	1	0	1	-11,980268	273,917276	307,218168	0
15.01.2021	08:52:51	0	2,260559	4,632259	2,9085	15,0264	-0,082	87,162	0	1012,84	6,3	8,5	8,5	1	1	1	1	1	1	1	1	1	0	1	-7,892882	273,844978	310,968688	0
15.01.2021	08:52:52	0	2,141567	4,745241	3,07575	23,9472	-0,08	87,173	0	1012,82	6,3	8,6	8,5	1	1	1	1	1	1	1	1	1	0	1	-8,174771	273,932064	311,092601	0
15.01.2021	08:52:53	0	2,141567	3,050548	3,00975	20,2716	-0,085	87,155	0	1012,82	6,3	8,6	8,3	1	1	1	1	1	1	1	1	1	0	1	-7,329105	273,880355	311,697269	0
15.01.2021	08:52:54	0	2,022591	4,406295	2,91525	27,9792	-0,082	87,17	0	1012,84	6,3	8,6	8,5	1	1	1	1	1	1	1	1	1	0	1	-9,302326	273,946863	310,034047	0
15.01.2021	08:52:55	0	2,141582	2,93753	2,67	29,0988	-0,083	87,162	0	1012,86	6,4	8,5	8,5	1	1	1	1	1	1	1	1	1	0	1	-3,875969	273,784691	314,704908	0
15.01.2021	08:52:56	0	2,022605	2,598584	2,61075	33,9408	-0,082	87,171	0	1012,8	6,3	8,5	8,5	1	1	1	1	1	1	1	1	1	0	1	-5,778717	273,775885	312,761171	0
15.01.2021	08:52:57	0	2,379536	4,180381	2,532	19,1448	-0,079	87,173	0	1012,94	6,3	8,5	8,3	1	1	1	1	1	1	1	1	1	0	1	-8,033827	273,903976	311,102621	0
15.01.2021	08:52:58	0	2,141567	3,615421	2,51925	32,4936	-0,081	87,168	0	1012,92	6,3	8,6	8,5	1	1	1	1	1	1	1	1	1	0	1	-6,906272	273,918754	312,299054	0
15.01.2021	08:52:59	0	2,260543	3,841385	2,664	24,3396	-0,088	87,165	0	1012,84	6,3	8,6	8,5	1	1	1	1	1	1	1	1	1	0	1	-8,949965	273,917276	310,248471	0
15.01.2021	08:53:00	0	2,141567	4,519277	2,76975	49,5648	-0,079	87,178	0	1012,8	6,4	8,6	8,5	1	1	1	1	1	1	1	1	1	0	1	-10,147992	273,771483	308,371412	0
15.01.2021	08:53:01	0	2,141567	3,05053	2,7795	34,7004	-0,084	87,17	0	1012,94	6,3	8,6	8,4	1	1	1	1	1	1	1	1	1	0	1	-10,147992	273,771483	308,371412	0
15.01.2021	08:53:02	0	2,141567	3,05053	2,7795	34,7004	-0,084	87,17	0	1012,94	6,3	8,6	8,4	1	1	1	1	1	1	1	1	1	0	1	-11,205074	273,875929	307,80068	0
15.01.2021	08:53:03	0	1,903629	2,711566	2,63625	27,2556	-0,083	87,177	0	1012,94	6,3	8,5	8,5	1	1	1	1	1	1	1	1	1	0	1	-11,205074	273,780288	307,355306	0
15.01.2021	08:53:04	0	2,022591	3,502461	2,6895	33,9624	-0,078	87,178	0	1012,92	6,4	8,6	8,4	1	1	1	1	1	1	1	1	1	0	1	-7,047216	273,827313	311,73209	0
15.01.2021	08:53:05	0	2,022591	4,293313	2,775	24,4332	-0,078	87,182	0	1012,98	6,4	8,6	8,5	1	1	1	1	1	1	1	1	1	0	1	-5,778717	273,767082	312,720206	0
15.01.2021	08:53:06	0	2,022591	2,711566	2,92875	29,934	-0,08	87,177	0	1012,96	6,3	8,6	8,5	1	1	1	1	1	1	1	1	1	0	1	-3,24172	273,895115	315,853431	0
15.01.2021	08:53:07	0	2,141567	3,615421	2,8095	29,574	-0,084	87,167	0	1012,82	6,3	8,6	8,5	1	1	1	1	1	1	1	1	1	0	1	-8,738548	273,77295	309,787683	0
15.01.2021	08:53:08	0	2,498495	2,824548	2,62275	27,2592	-0,078	87,181	0	1012,96	6,3	8,6	8,5	1	1	1	1	1	1	1	1	1	0	1	-8,80902	273,836144	310,011406	0
15.01.2021	08:53:09	0	2,379519	4,293313	2,57175	31,7556	-0,084	87,16	0	1012,86	6,3	8,6	8,5	1	1	1	1	1	1	1	1	1	0	1	-9,866103	273,933543	309,408166	0
15.01.2021	08:53:10	0	2,141567	3,050512	2,42475	25,4124	-0,074	87,197	0	1012,96	6,3	8,6	8,5	1	1	1	1	1	1	1	1	1	0	1	-1,550388	273,852343	317,345487	0
15.01.2021	08:53:11	0	2,141567	2,598584	2,3115	23,9508	-0,083	87,182	0	1012,86	6,3	8,6	8,5	1	1	1	1	1	1	1	1	1	0	1	-2,677942	273,927626	316,568742	0
15.01.2021	08:53:12	0	2,260559	4,745241	2,286	28,3356	-0,08	87,186	0	1012,86	6,3	8,5	8,5	1	1	1	1	1	1	1	1	1	0	1	-8,245243	273,780288	310,315137	0
15.01.2021	08:53:13	0	2,022591	4,406295	2,56725	24,7248	-0,084	87,186	0	1013,02	6,3	8,6	8,5	1	1	1	1	1	1	1	1	1	0	1	-4,721635	273,872979	314,270375	0
15.01.2021	08:53:14	0	2,141582	4,858223	2,7675	23,2128	-0,083	87,18	0	1012,86	6,3	8,5	8,5	1	1	1	1	1	1	1	1	1	0	1	-11,205074	273,761216	307,266552	0
15.01.2021	08:53:15	0	2,379519	4,519277	2,80425	22,0716	-0,082	87,171	0	1012,9	6,3	8,6	8,5	1	1	1	1	1	1	1	1	1	0	1	-9,725159	273,883306	309,314966	0
15.01.2021	08:53:16	0	1,784639	4,971205	2,91825	20,6208	-0,082	87,183	0	1013,06	6,3	8,6	8,5	1	1	1	1	1	1	1	1	1	0	1	-9,44327	273,932064	309,824102	0
15.01.2021	08:53:17	0	2,260559	3,615421	3,05925	19,8828	-0,087	87,174	0	1012,9	6,3	8,5	8,5	1	1	1	1	1	1	1	1	1	0	1	-11,839323	273,899545	307,276473	0
15.01.2021	08:53:18	0	2,141567	4,632314	3,177	17,2296	-0,078	87,189	0	1012,9	6,4	8,6	8,3	1	1	1	1	1	1	1	1	1	0	1	-7,540521	273,802317	311,122399	0
15.01.2021	08:53:19	0	2,141567	4,632259	3,1485	17,226	-0,087	87,168	0	1012,76	6,3	8,6	8,5	1	1	1	1	1	1	1	1	1	0	1	-9,161381	273,939462	310,140483	0
15.01.2021	08:53:20	0	2,022605	2,824565	3,0645	15,7788	-0,082	87,181	0	1012,86	6,3	8,5	8,4	1	1	1	1	1	1	1	1	1	0	1	-8,033827	273,85971	310,896367	0
15.01.2021	08:53:21	0	2,260559	4,067349	2,9745	17,6904	-0,09	87,192	0	1012,76	6,3	8,5	8,5	1	1	1	1	1	1	1	1	1	0	1	-7,258633	273,933543	312,015636	0
15.01.2021	08:53:22	0	2,141567	5,197168	2,91975	14,2884	-0,089	87,176	0	1012,8	6,3	8,6	8,5	1	1	1	1	1	1	1	1	1	0	1	-9,725159	273,92319	309,500844	0
15.01.2021	08:53:23	0	2,379519	3,276476	2,859	21,0168	-0,089	87,176	0	1013	6,3	8,6	8,5	1	1	1	1	1	1	1	1	1	0	1	-6,272023	273,877405	312,740604	0
15.01.2021	08:53:24	0	2,260543	4,632259	2,82075	22,4604	-0,085	87,177	0	1012,82	6,4	8,6	8,5	1	1	1	1	1	1	1	1	1	0	1	-9,44327	273,930585	309,817206	0
15.01.2021	08:53:25	0	2,617471	3,615421	2,83875	23,9544	-0,078	87,187	0	1012,9	6,3	8,6	8,5	1	1	1	1	1	1	1	1	1	0	1	-8,104299	273,8229	310,654455	0
15.01.2021	08:53:26	0	1,903615	4,519277	2,7345	22,1508	-0,078	87,185	0	1013,02	6,4	8,6	8,5	1	1	1	1	1	1	1	1	1	0	1	-10,077519	273,892162	309,003871	0
15.01.2021	08:53:27	0	2,498495	3,276476	2,55975	15,4008	-0,08	87,197	0	1012,88	6,3	8,6	8,5	1	1	1	1	1	1	1	1	1	0	1	-6,553911	273,918754	312,651415	0
15.01.2021	08:53:28	0	2,260543	3,05053	2,5215	19,134	-0,084	87,179	0	1012,88	6,3	8,6	8,4	1	1	1	1	1	1	1	1	1	0	1	-9,513742	273,8332	309,292975	0
15.01.2021	08:53:29	0	2,260543	4,293313	2,5305	25,0344	-0,082	87,189	0	1013,08	6,3	8,6	8,5	1	1	1	1	1	1	1	1	1	0	1	-10,782241	273,935023	308,498926	0
15.01.2021	08:53:30	0	2,379519	4,632259	2,658	21,024	-0,08	87,185	0	1012,92	6,4	8,6	8,5	1	1	1	1	1	1	1	1	1	0	1	-8,033827	273,875929	310,971927	0
15.01.2021	08:53:31	0	1,784639	3,163494	2,7195	16,4772	-0,079	87,193	0	1012,88	6,3	8,6	8,5	1	1	1	1	1	1	1	1	1	0	1	-6,272023	273,792033	312,343028	0
15.01.2021	08:53:32	0	2,260543	4,632259	2,65575	13,5324	-0,079	87,188	0	1012,98	6,3	8,6	8,5	1	1	1	1	1	1	1	1	1	0	1	-5,708245	273,784691	312,872632	0
15.01.2021	08:53:33	0	1,903615	4,406295	2,68725	14,6484	-0,072	87,192	0	1012,74	6,4	8,6	8,5	1	1	1	1	1	1	1	1	1	0	1	-7,047216	273,87003	311,931052	0
15.01.2021	08:53:34	0	2,141567	3,163494	2,649	13,2336	-0,081	87,185	0	1012,86	6,3	8,6	8,5	1	1	1	1	1	1	1	1	1	0	1	-6,20155	273,945383	313,127919	0
15.01.2021	08:53:35	0	2,617471	3,389458	2,51175	19,908	-0,077	87,178	0	1013,06	6,4	8,6	8,5	1	1	1	1	1	1	1	1	1	0	1	-8,245243	273,78616	310,342467	0
15.01.2021	08:53:36	0	2,260559	4,632259	2,43375	13,1616	-0,083	87,183	0	1012,88	6,3	8,5	8,5	1	1	1	1	1	1	1	1	1	0	1	-7,82241	273,793502	310,799477	0
15.01.2021	08:53:37	0	2,022591	4,293339	2,39175	24,7068	-0,079	87,193	0	1012,7	6,4	8,6	8,4	1	1	1	1	1	1	1	1	1	0	1	-5,144468	273,949825	314,205713	0
15.01.2021	08:53:38	0	2,379519	4,180331	2,34375	16,0812	-0,081	87,186	0	1012,88	6,3	8,6	8,5	1	1	1	1	1	1	1	1	1	0	1	-7,681466	273,844978	311,180105	0
15.01.2021	08:53:39	0	2,022591	2,824548	2,2815	12,8448	-0,086	87,185	0	1012,88	6,4	8,6	8,5	1	1	1	1	1	1	1	1	1	0	1	-4,510218	273,943903	314,812349	0
15.01.2021	08:53:40	0	2,379519	3,50244	2,2335	20,628	-0,085	87,195	0	1012,68	6,3	8,6	8,5	1	1	1	1	1	1	1	1	1	0	1	-5,84919	273,920233	313,363028	0
15.01.2021	08:53:41	0	2,260559	3,050512	2,2335	19,6272	-0,078	87,197	0	1012,8	6,4	8,5	8,5	1	1	1	1	1	1	1	1	1	0	1	-6,412967	273,935023	312,8682	0
15.01.2021	08:53:42	0	2,141567	4,971234	2,28375	21,384	-0,083	87,196	0	1013,02	6,3	8,6	8,4	1	1	1	1	1	1	1	1	1	0	1	-9,020437	273,784691	309,56044	0
15.01.2021	08:53:43	0	2,022591	4,406295	2,30025	22,4568	-0,078	87,198	0	1012,96	6,4	8,6	8,5	1	1	1	1	1	1	1	1	1	0	1	-8,527132	273,8229	310,231622	0
15.01.2021	08:53:44	0	2,260543	2,711566	2,24775	20,6352	-0,079	87,184	0	1012,8	6,4	8,6	8,5	1	1	1	1	1	1	1	1	1	0	1	-11,698379	273,758284	306,759602	0
15.01.2021	08:53:45	0	2,260543	3,276476	2,2335	15,0336	-0,08	87,205	0	1013,08	6,3	8,6	8,5	1	1	1	1	1	1	1	1	1	0	1	-6,342495	273,819958	312,402561	0
15.01.2021	08:53:46	0	2,260559	3,389458	2,21325	15,03	-0,084	87,201	0	1012,9	6,3	8,5	8,5	1	1	1	1	1	1	1	1	1	0	1	-7,258633	273,929105	311,994947	0
15.01.2021	08:53:47	0	2,260543	4,180331	2,2035	19,8972	-0,08	87,197	0	1012,86	6,4	8,6	8,5	1	1	1	1	1	1	1	1	1	0	1	-9,090909	273,915798	310,100636	0
15.01.2021	08:53:48	0	2,022591	2,598584	2,19	15,0372	-0,081	87,198	0	1012,96	6,3	8,6	8,5	1	1	1	1	1	1	1	1	1	0	1	-7,540521	273,775885	310,999367	0
15.01.2021	08:53:49	0	2,617471	3,615421	2,163	6,5484	-0,083	87,204	0	1012,84	6,4	8,6	8,5	1	1	1	1	1	1	1	1	1	0	1	-5,285412	273,827313	313,493894	0
15.01.2021	08:53:50	0	2,141567	2,711566	2,112	6,444	-0,082	87,198	0	1012,92	6,3	8,6	8,5	1	1	1	1	1	1	1	1	1	0	1	-13,248767	273,946863	306,087606	0
15.01.2021	08:53:51	0	2,617471	4,632259	2,11275	6,4404	-0,08	87,206	0	1013	6,3	8,6	8,5	1	1	1	1	1	1	1	1	1	0	1	-10,641297	273,915798	308,550249	0
15.01.2021	08:53:52	0	2,379519	4,293313	2,07225	9,3636	-0,083	87,203	0	1012,9	6,3	8,6	8,5	1	1	1	1	1	1	1	1	1	0	1	-7,963354	273,877405	311,049272	0
15.01.2021	08:53:53	0	2,260543	4,858223	2,0415	13,6116	-0,078	87,208	0	1012,88	6,3	8,6	8,5	1	1	1	1	1	1	1	1	1	0	1	-10,500352	273,949825	308,849828	0
15.01.2021	08:53:54	0	2,498495	2,824548	1,8165	13,1652	-0,082	87,206	0	1012,84	6,3	8,6	8,5	1	1	1	1	1	1	1	1	1	0	1	-10,359408	273,808195	308,330881	0
15.01.2021	08:53:55	0	2,498495	2,824548	1,8165	13,1652	-0,082	87,206	0	1012,84	6,3	8,6	8,5	1	1	1	1	1	1	1	1	1	0	1	-10,359408	273,808195	308,330881	0
15.01.2021	08:53:56	0	2,141567	4,293313	1,70325	9,3672	-0,083	87,193	0	1012,94	6,4	8,6	8,5	1	1	1	1	1	1	1	1	1	0	1	-15,221987	273,940942	304,086777	0
15.01.2021	08:53:57	0	2,379519	4,858223	1,5765	15,4944	-0,084	87,212	0	1012,8	6,4	8,6	8,5	1	1	1	1	1	1	1	1	1	0	1	-10,218464	273,884782	308,828537	0
15.01.2021	08:53:58	0	2,617471	4,406321	1,66425	2,304	-0,085	87,22	0	1012,98	6,3	8,6	8,4	1	1	1	1	1	1	1	1	1	0	1	-11,980268	273,930585	307,280208	0
15.01.2021	08:53:59	0	2,498495	2,485602	1,791	22,0788	-0,08	87,208	0	1012,92	6,4	8,6	8,5	1	1	1	1	1	1	1	1	1	0	1	-8,597604	273,902499	310,531959	0
15.01.2021	08:54:00	0	2,379519	2,598584	2,097	359,9532	-0,085	87,213	0	1012,94	6,3	8,6	8,5	1	1	1	1	1	1	1	1	1	0	1	-3,875969	273,909886	315,288022	0
15.01.2021	08:54:01	0	2,379519	2,598584	2,097	359,9532	-0,085	87,213	0	1012,94	6,3	8,6	8,5	1	1	1	1	1	1	1	1	1	0	1	-3,875969	273,909886	315,288022	0
15.01.2021	08:54:02	0	2,260543	2,937565	2,21175	13,9356	-0,076	87,277	0	1012,84	6,3	8,6	8,3	1	1	1	1	1	1	1	1	1	0	1	-1,973221	273,862658	316,970706	0
15.01.2021	08:54:03	0	2,379536	2,033687	2,1045	5,6736	-0,078	87,22	0	1012,96	6,3	8,5	8,4	1	1	1	1	1	1	1	1	1	0	1	-3,100775	273,774418	315,432285	0
15.01.2021	08:54:04	0	2,498495	3,163513	2,02425	20,2608	-0,088	87,21	0	1012,86	6,3	8,6	8,4	1	1	1	1	1	1	1	1	1	0	1	-4,369274	273,800847	314,286806	0
15.01.2021	08:54:05	0	2,141567	2,598584	2,25375	360	-0,081	87,225	0	1012,94	6,3	8,6	8,5	1	1	1	1	1	1	1	1	1	0	1	-4,651163	273,924668	314,581733	0
15.01.2021	08:54:06	0	2,617471	3,954367	2,58375	9,7452	-0,088	87,218	0	1012,86	6,3	8,6	8,5	1	1	1	1	1	1	1	1	1	0	1	-10,570825	273,949825	308,779356	0
15.01.2021	08:54:07	0	2,617471	4,632259	2,65575	10,4292	-0,08	87,215	0	1012,8	6,3	8,6	8,5	1	1	1	1	1	1	1	1	1	0	1	-7,892882	273,865607	311,064779	0
15.01.2021	08:54:08	0	2,498495	3,954367	2,64375	4,0824	-0,087	87,223	0	1012,94	6,3	8,6	8,5	1	1	1	1	1	1	1	1	1	0	1	-5,708245	273,936503	313,57982	0
15.01.2021	08:54:09	0	2,498495	2,711566	2,76	357,6708	-0,085	87,225	0	1013	6,4	8,6	8,5	1	1	1	1	1	1	1	1	1	0	1	-2,536998	273,875929	316,468756	0
15.01.2021	08:54:10	0	2,379536	3,389458	2,922	3,3912	-0,084	87,229	0	1013	6,3	8,5	8,5	1	1	1	1	1	1	1	1	1	0	1	-4,439746	273,814076	314,277921	0
15.01.2021	08:54:11	0	2,736447	4,067374	2,9625	11,1996	-0,078	87,221	0	1012,96	6,4	8,6	8,4	1	1	1	1	1	1	1	1	1	0	1	-4,298802	273,906931	314,851416	0
15.01.2021	08:54:12	0	2,617471	4,406295	2,775	14,6448	-0,083	87,212	0	1012,88	6,3	8,6	8,5	1	1	1	1	1	1	1	1	1	0	1	-4,933051	273,771483	313,586352	0
15.01.2021	08:54:13	0	2,141567	3,615421	2,59425	15,0336	-0,089	87,242	0	1012,9	6,3	8,6	8,5	1	1	1	1	1	1	1	1	1	0	1	-3,664553	273,940942	315,644212	0
15.01.2021	08:54:14	0	2,617471	3,728403	2,42775	5,3208	-0,082	87,232	0	1012,94	6,4	8,6	8,5	1	1	1	1	1	1	1	1	1	0	1	-6,272023	273,808195	312,418267	0
15.01.2021	08:54:15	0	2,260543	4,406295	2,2485	22,8204	-0,082	87,238	0	1013,02	6,3	8,6	8,5	1	1	1	1	1	1	1	1	1	0	1	-7,047216	273,933543	312,227053	0
15.01.2021	08:54:16	0	2,736447	4,745241	2,13225	24,3432	-0,085	87,204	0	1012,86	6,3	8,6	8,5	1	1	1	1	1	1	1	1	1	0	1	-7,610994	273,890686	311,463517	0
15.01.2021	08:54:17	0	2,617471	2,711566	2,10675	32,4864	-0,08	87,231	0	1012,98	6,4	8,6	8,5	1	1	1	1	1	1	1	1	1	0	1	-10,500352	273,893638	308,587918	0
15.01.2021	08:54:18	0	2,736466	4,293313	1,998	27,7416	-0,088	87,229	0	1012,82	6,3	8,5	8,5	1	1	1	1	1	1	1	1	1	0	1	-10,782241	273,886258	308,271636	0
15.01.2021	08:54:19	0	2,260543	3,954367	1,93125	15,4116	-0,078	87,23	0	1012,92	6,3	8,6	8,5	1	1	1	1	1	1	1	1	1	0	1	-5,567301	273,794971	313,061424	0
15.01.2021	08:54:20	0	2,379519	3,841385	1,86375	13,9104	-0,087	87,23	0	1012,84	6,4	8,6	8,5	1	1	1	1	1	1	1	1	1	0	1	-5,285412	273,777352	313,261306	0
15.01.2021	08:54:21	0	2,736466	4,745269	2,118	358,0092	-0,082	87,243	0	1012,9	6,4	8,5	8,4	1	1	1	1	1	1	1	1	1	0	1	-0,775194	273,849396	318,106957	0
15.01.2021	08:54:22	0	2,260543	2,824582	2,553	10,7964	-0,082	87,235	0	1013,02	6,3	8,6	8,3	1	1	1	1	1	1	1	1	1	0	1	-8,104299	273,764149	310,380975	0
15.01.2021	08:54:23	0	2,855423	3,050512	2,78175	5,6844	-0,083	87,228	0	1012,94	6,3	8,6	8,5	1	1	1	1	1	1	1	1	1	0	1	-7,892882	273,865607	311,064779	0
15.01.2021	08:54:24	0	2,379519	2,598584	2,8035	4,446	-0,086	87,241	0	1012,92	6,3	8,6	8,5	1	1	1	1	1	1	1	1	1	0	1	-6,624383	273,936503	312,663682	0
15.01.2021	08:54:25	0	2,855423	3,276476	2,7675	1,9188	-0,087	87,241	0	1012,88	6,3	8,6	8,5	1	1	1	1	1	1	1	1	1	0	1	-6,483439	273,79644	312,152124	0
15.01.2021	08:54:26	0	2,617489	4,067349	2,76675	0,1332	-0,087	87,217	0	1012,88	6,3	8,5	8,5	1	1	1	1	1	1	1	1	1	0	1	-6,20155	273,908408	312,955554	0
15.01.2021	08:54:27	0	2,855423	3,050512	2,72475	24,7212	-0,084	87,238	0	1013,02	6,3	8,6	8,5	1	1	1	1	1	1	1	1	1	0	1	-4,862579	273,806726	313,820867	0
15.01.2021	08:54:28	0	2,379519	2,711582	2,48925	7,8876	-0,086	87,231	0	1012,92	6,3	8,6	8,4	1	1	1	1	1	1	1	1	1	0	1	-7,470049	273,899545	311,645747	0
15.01.2021	08:54:29	0	2,498495	4,519277	2,35575	27,27	-0,078	87,223	0	1012,86	6,4	8,6	8,5	1	1	1	1	1	1	1	1	1	0	1	-8,033827	273,935023	311,24734	0
15.01.2021	08:54:30	0	2,855423	2,5986	2,15625	10,4328	-0,084	87,235	0	1012,8	6,3	8,6	8,4	1	1	1	1	1	1	1	1	1	0	1	-6,272023	273,817017	312,459338	0
15.01.2021	08:54:31	0	2,498495	4,745241	1,95225	20,3148	-0,083	87,223	0	1012,94	6,3	8,6	8,5	1	1	1	1	1	1	1	1	1	0	1	-4,016913	273,942422	315,298752	0
15.01.2021	08:54:32	0	2,498495	4,519277	1,848	8,6184	-0,086	87,233	0	1012,94	6,4	8,6	8,5	1	1	1	1	1	1	1	1	1	0	1	-5,496829	273,924668	313,736067	0
15.01.2021	08:54:33	0	2,736447	3,502461	1,9125	14,292	-0,087	87,224	0	1012,9	6,3	8,6	8,4	1	1	1	1	1	1	1	1	1	0	1	-6,976744	273,867081	311,987786	0
15.01.2021	08:54:34	0	2,498495	3,841385	1,80675	12,4596	-0,085	87,228	0	1012,86	6,3	8,6	8,5	1	1	1	1	1	1	1	1	1	0	1	-9,44327	273,936503	309,844796	0
15.01.2021	08:54:35	0	2,498495	3,954367	1,7085	14,3928	-0,091	87,242	0	1012,88	6,3	8,6	8,5	1	1	1	1	1	1	1	1	1	0	1	-7,82241	273,87003	311,155858	0
15.01.2021	08:54:36	0	2,736447	4,180331	1,64625	23,2128	-0,089	87,225	0	1012,84	6,3	8,6	8,5	1	1	1	1	1	1	1	1	1	0	1	-7,751938	273,935023	311,529229	0
15.01.2021	08:54:37	0	2,498495	3,728403	1,72275	11,7324	-0,088	87,237	0	1012,96	6,4	8,6	8,5	1	1	1	1	1	1	1	1	1	0	1	-4,933051	273,811135	313,770926	0
15.01.2021	08:54:38	0	2,498512	2,711566	1,803	18,9252	-0,081	87,24	0	1012,88	6,3	8,5	8,5	1	1	1	1	1	1	1	1	1	0	1	-9,020437	273,783223	309,553607	0
15.01.2021	08:54:39	0	2,736447	3,389458	1,76475	15,0264	-0,083	87,236	0	1012,9	6,3	8,6	8,5	1	1	1	1	1	1	1	1	1	0	1	-11,346018	273,92319	307,879984	0
15.01.2021	08:54:40	0	2,736447	4,519277	1,848	18,8316	-0,086	87,233	0	1013,02	6,4	8,6	8,5	1	1	1	1	1	1	1	1	1	0	1	-9,020437	273,836144	309,79999	0
15.01.2021	08:54:41	0	2,498495	2,93753	2,03925	4,0824	-0,083	87,242	0	1012,98	6,3	8,6	8,5	1	1	1	1	1	1	1	1	1	0	1	-6,976744	273,933543	312,297525	0
15.01.2021	08:54:42	0	2,617471	3,163494	2,24325	9,3528	-0,088	87,233	0	1012,98	6,3	8,6	8,5	1	1	1	1	1	1	1	1	1	0	1	-6,8358	273,775885	311,704089	0
15.01.2021	08:54:43	0	2,736447	3,728403	2,3265	8,2548	-0,085	87,228	0	1013,02	6,4	8,6	8,5	1	1	1	1	1	1	1	1	1	0	1	-7,610994	273,842033	311,23686	0
15.01.2021	08:54:44	0	2,498495	3,615421	2,304	14,3028	-0,081	87,288	0	1012,84	6,4	8,6	8,5	1	1	1	1	1	1	1	1	1	0	1	-4,933051	273,949825	314,417129	0
15.01.2021	08:54:45	0	2,736447	3,502461	2,17125	21,0888	-0,083	87,22	0	1012,96	6,4	8,6	8,4	1	1	1	1	1	1	1	1	1	0	1	-7,470049	273,893638	311,618221	0
15.01.2021	08:54:46	0	2,617471	3,163494	2,175	18,072	-0,083	87,238	0	1012,78	6,3	8,6	8,5	1	1	1	1	1	1	1	1	1	0	1	-9,090909	273,930585	310,169566	0
15.01.2021	08:54:47	0	2,736447	4,971205	2,29725	15,0156	-0,082	87,244	0	1012,92	6,4	8,6	8,5	1	1	1	1	1	1	1	1	1	0	1	-7,963354	273,906931	311,186864	0
15.01.2021	08:54:48	0	2,617471	4,067349	2,3775	28,7208	-0,085	87,251	0	1012,98	6,3	8,6	8,5	1	1	1	1	1	1	1	1	1	0	1	-7,188161	273,797909	311,454241	0
15.01.2021	08:54:49	0	2,736447	3,954367	2,47575	38,052	-0,087	87,243	0	1013,28	6,3	8,6	8,5	1	1	1	1	1	1	1	1	1	0	1	-7,540521	273,936503	311,747544	0
15.01.2021	08:54:50	0	2,736447	4,971205	2,51325	33,6348	-0,085	87,242	0	1012,82	6,4	8,6	8,5	1	1	1	1	1	1	1	1	1	0	1	-6,553911	273,846451	312,314519	0
15.01.2021	08:54:51	0	2,974399	4,519304	2,33775	27,2664	-0,083	87,231	0	1012,88	6,3	8,6	8,4	1	1	1	1	1	1	1	1	1	0	1	-8,174771	273,943903	311,147796	0
15.01.2021	08:54:52	0	2,498512	2,937548	2,0535	26,8956	-0,092	87,241	0	1012,98	6,4	8,5	8,4	1	1	1	1	1	1	1	1	1	0	1	-10,711769	273,828785	308,074389	0
15.01.2021	08:54:53	0	2,736447	4,632287	1,8645	18,0756	-0,085	87,243	0	1012,92	6,4	8,6	8,4	1	1	1	1	1	1	1	1	1	0	1	-9,090909	273,844978	309,770661	0
15.01.2021	08:54:54	0	2,617471	3,163494	1,911	6,4332	-0,089	87,239	0	1012,98	6,3	8,6	8,5	1	1	1	1	1	1	1	1	1	0	1	-8,738548	273,780288	309,821832	0
15.01.2021	08:54:55	0	2,736447	4,067374	2,10975	19,8792	-0,088	87,246	0	1012,84	6,3	8,6	8,4	1	1	1	1	1	1	1	1	1	0	1	-6,765328	273,824371	312,000276	0
15.01.2021	08:54:56	0	2,379519	2,93753	2,25225	2,646	-0,093	87,242	0	1012,9	6,4	8,6	8,5	1	1	1	1	1	1	1	1	1	0	1	-5,285412	273,875929	313,720341	0
15.01.2021	08:54:57	0	3,093375	3,615421	2,265	360	-0,086	87,253	0	1012,9	6,4	8,6	8,5	1	1	1	1	1	1	1	1	1	0	1	-9,866103	273,828785	308,920055	0
15.01.2021	08:54:58	0	2,617471	2,93753	2,29875	20,2788	-0,084	87,236	0	1013	6,4	8,6	8,5	1	1	1	1	1	1	1	1	1	0	1	-5,708245	273,830256	313,084765	0
15.01.2021	08:54:59	0	2,736447	4,632259	2,229	15,7824	-0,084	87,248	0	1012,9	6,4	8,6	8,5	1	1	1	1	1	1	1	1	1	0	1	-5,919662	273,948344	313,423615	0
15.01.2021	08:55:00	0	2,736447	5,084186	2,331	26,91	-0,087	87,261	0	1012,92	6,4	8,6	8,5	1	1	1	1	1	1	1	1	1	0	1	-0,422833	273,818487	318,315375	0
15.01.2021	08:55:01	0	2,736447	5,084186	2,331	26,91	-0,087	87,261	0	1012,92	6,4	8,6	8,5	1	1	1	1	1	1	1	1	1	0	1	-6,765328	273,955749	312,612476	0
15.01.2021	08:55:02	0	2,855423	2,937548	2,4195	31,7556	-0,085	87,249	0	1013,06	6,3	8,6	8,4	1	1	1	1	1	1	1	1	1	0	1	-4,580691	273,803786	314,089071	0
15.01.2021	08:55:03	0	2,736447	2,5986	2,36025	28,4544	-0,079	87,259	0	1012,92	6,3	8,6	8,4	1	1	1	1	1	1	1	1	1	0	1	-5,144468	273,921711	314,074642	0
15.01.2021	08:55:04	0	3,093375	4,519277	2,142	18,4428	-0,08	87,256	0	1012,86	6,3	8,6	8,5	1	1	1	1	1	1	1	1	1	0	1	-4,157858	273,901022	314,964822	0
15.01.2021	08:55:05	0	2,260543	2,93753	2,139	15,0444	-0,087	87,26	0	1012,96	6,4	8,6	8,5	1	1	1	1	1	1	1	1	1	0	1	-4,933051	273,787628	313,661493	0
15.01.2021	08:55:06	0	2,855423	4,180331	2,25675	23,2092	-0,084	87,239	0	1012,86	6,3	8,6	8,5	1	1	1	1	1	1	1	1	1	0	1	-3,523608	273,846451	315,344822	0
15.01.2021	08:55:07	0	2,855423	4,858252	2,481	18,4464	-0,076	87,266	0	1012,94	6,4	8,6	8,4	1	1	1	1	1	1	1	1	1	0	1	-5,073996	273,783223	313,500048	0
15.01.2021	08:55:08	0	2,736466	4,519277	2,59875	21,0204	-0,084	87,242	0	1012,84	6,3	8,5	8,5	1	1	1	1	1	1	1	1	1	0	1	-2,536998	273,942422	316,778668	0
15.01.2021	08:55:09	0	2,855423	4,745241	2,4945	18,4392	-0,085	87,253	0	1012,94	6,3	8,6	8,5	1	1	1	1	1	1	1	1	1	0	1	-8,949965	273,8229	309,808789	0
15.01.2021	08:55:10	0	2,855423	3,954367	2,5245	24,7032	-0,084	87,264	0	1012,94	6,3	8,6	8,5	1	1	1	1	1	1	1	1	1	0	1	-7,892882	273,890686	311,181629	0
15.01.2021	08:55:11	0	2,974399	4,067374	2,7945	19,5228	-0,082	87,256	0	1012,78	6,4	8,6	8,4	1	1	1	1	1	1	1	1	1	0	1	-0,281889	273,814076	318,435779	0
15.01.2021	08:55:12	0	2,97442	2,937548	2,98575	16,1028	-0,085	87,248	0	1012,96	6,4	8,5	8,4	1	1	1	1	1	1	1	1	1	0	1	-11,557435	273,929105	307,696145	0
15.01.2021	08:55:13	0	2,617471	3,954391	3,174	10,0512	-0,089	87,262	0	1013	6,3	8,6	8,4	1	1	1	1	1	1	1	1	1	0	1	-3,100775	273,909886	316,063216	0
15.01.2021	08:55:14	0	2,617471	4,745269	3,13575	15,4044	-0,084	87,259	0	1012,78	6,3	8,6	8,4	1	1	1	1	1	1	1	1	1	0	1	-3,171247	273,921711	316,047862	0
15.01.2021	08:55:15	0	2,498495	3,841385	2,94225	13,914	-0,078	87,256	0	1012,88	6,3	8,6	8,5	1	1	1	1	1	1	1	1	1	0	1	-4,439746	273,926147	314,800043	0
15.01.2021	08:55:16	0	3,093375	4,745241	2,63025	17,226	-0,087	87,264	0	1012,86	6,4	8,6	8,5	1	1	1	1	1	1	1	1	1	0	1	-4,016913	273,858237	314,906416	0
15.01.2021	08:55:17	0	2,736447	3,841408	2,74875	25,0236	-0,083	87,258	0	1012,8	6,3	8,6	8,4	1	1	1	1	1	1	1	1	1	0	1	-2,677942	273,921711	316,541168	0
15.01.2021	08:55:18	0	2,974399	3,276495	2,9085	22,5468	-0,086	87,248	0	1012,92	6,4	8,6	8,4	1	1	1	1	1	1	1	1	1	0	1	-1,268499	273,831728	317,531365	0
15.01.2021	08:55:19	0	2,498495	3,276476	2,868	24,7284	-0,092	87,244	0	1012,88	6,3	8,6	8,5	1	1	1	1	1	1	1	1	1	0	1	-4,510218	273,771483	314,009185	0
15.01.2021	08:55:20	0	2,736447	2,824565	2,793	21,3804	-0,091	87,263	0	1012,94	6,4	8,6	8,4	1	1	1	1	1	1	1	1	1	0	1	-8,80902	273,954267	310,561877	0
15.01.2021	08:55:21	0	2,736447	3,163494	2,6655	20,2644	-0,064	87,282	0	1013	6,3	8,6	8,5	1	1	1	1	1	1	1	1	1	0	1	-9,654686	273,834672	309,158885	0
15.01.2021	08:55:22	0	2,855423	3,05053	2,61675	13,1544	-0,082	87,263	0	1013,06	6,4	8,6	8,4	1	1	1	1	1	1	1	1	1	0	1	-1,268499	273,764149	317,216775	0
15.01.2021	08:55:23	0	2,855423	3,615421	2,74125	19,9044	-0,084	87,243	0	1013,02	6,3	8,6	8,5	1	1	1	1	1	1	1	1	1	0	1	-8,597604	273,871505	310,387535	0
15.01.2021	08:55:24	0	3,093396	3,050512	2,709	4,8312	-0,082	87,245	0	1012,88	6,3	8,5	8,5	1	1	1	1	1	1	1	1	1	0	1	-5,990134	273,787628	312,604411	0
15.01.2021	08:55:25	0	2,855423	4,519277	2,87475	12,8484	-0,081	87,261	0	1012,88	6,3	8,6	8,5	1	1	1	1	1	1	1	1	1	0	1	-5,21494	273,861184	313,72212	0
15.01.2021	08:55:26	0	2,736447	3,050512	3,057	8,2656	-0,078	87,264	0	1013	6,4	8,6	8,5	1	1	1	1	1	1	1	1	1	0	1	-3,382664	273,775885	315,157225	0
15.01.2021	08:55:27	0	2,855423	3,163494	3,06825	15,7716	-0,08	87,254	0	1012,92	6,3	8,6	8,5	1	1	1	1	1	1	1	1	1	0	1	-4,298802	273,803786	314,37096	0
15.01.2021	08:55:28	0	2,855423	4,067349	3,0915	17,7084	-0,085	87,25	0	1012,98	6,4	8,6	8,5	1	1	1	1	1	1	1	1	1	0	1	-6,20155	273,893638	312,88672	0
15.01.2021	08:55:29	0	2,736447	4,519304	3,11625	5,2092	-0,081	87,262	0	1012,9	6,4	8,6	8,4	1	1	1	1	1	1	1	1	1	0	1	-10,852713	273,939462	308,449151	0
15.01.2021	08:55:30	0	2,855423	3,728426	3,13275	7,8768	-0,081	87,25	0	1012,88	6,4	8,6	8,4	1	1	1	1	1	1	1	1	1	0	1	-3,946441	273,836144	314,873986	0
15.01.2021	08:55:31	0	2,617471	2,711566	3,234	8,2692	-0,081	87,264	0	1012,94	6,3	8,6	8,5	1	1	1	1	1	1	1	1	1	0	1	-5,355884	273,767082	313,143039	0
15.01.2021	08:55:32	0	2,855423	4,406321	3,4785	5,6736	-0,084	87,259	0	1012,98	6,4	8,6	8,4	1	1	1	1	1	1	1	1	1	0	1	-8,033827	273,821429	310,718078	0
15.01.2021	08:55:33	0	2,736447	4,180331	3,65175	13,9248	-0,085	87,26	0	1012,8	6,4	8,6	8,5	1	1	1	1	1	1	1	1	1	0	1	-7,470049	273,884782	311,576951	0
15.01.2021	08:55:34	0	2,736447	3,163494	3,705	17,2512	-0,082	87,26	0	1013,02	6,4	8,6	8,5	1	1	1	1	1	1	1	1	1	0	1	-5,708245	273,768549	312,797504	0
15.01.2021	08:55:35	0	2,617471	3,05053	3,65175	24,336	-0,077	87,262	0	1013	6,4	8,6	8,4	1	1	1	1	1	1	1	1	1	0	1	-1,127555	273,837616	317,699728	0
15.01.2021	08:55:36	0	2,855423	3,05053	3,46425	12,0924	-0,079	87,269	0	1012,96	6,4	8,6	8,4	1	1	1	1	1	1	1	1	1	0	1	-9,725159	273,780288	308,835221	0
15.01.2021	08:55:37	0	2,974399	4,067374	3,222	18,8064	-0,077	87,244	0	1012,96	6,4	8,6	8,4	1	1	1	1	1	1	1	1	1	0	1	-8,245243	273,908408	310,911861	0
15.01.2021	08:55:38	0	2,736447	4,632287	3,159	13,1544	-0,087	87,265	0	1012,86	6,4	8,6	8,4	1	1	1	1	1	1	1	1	1	0	1	-7,540521	273,830256	311,252489	0
15.01.2021	08:55:39	0	2,736447	2,93753	3,333	20,6208	-0,076	87,26	0	1012,9	6,3	8,6	8,5	1	1	1	1	1	1	1	1	1	0	1	-4,933051	273,945383	314,396418	0
15.01.2021	08:55:40	0	3,093375	3,050512	3,4365	25,4124	-0,085	87,257	0	1012,92	6,4	8,6	8,5	1	1	1	1	1	1	1	1	1	0	1	-12,121212	273,892162	306,960178	0
15.01.2021	08:55:41	0	2,736447	3,276476	3,3735	16,4844	-0,086	87,255	0	1012,96	6,3	8,6	8,5	1	1	1	1	1	1	1	1	1	0	1	-7,399577	273,799378	311,249663	0
15.01.2021	08:55:42	0	2,855423	2,824565	3,5415	11,7144	-0,082	87,268	0	1012,8	6,4	8,6	8,4	1	1	1	1	1	1	1	1	1	0	1	-9,372798	273,954267	309,998099	0
15.01.2021	08:55:43	0	2,736447	3,276495	3,51675	22,8348	-0,084	87,244	0	1012,88	6,3	8,6	8,4	1	1	1	1	1	1	1	1	1	0	1	-10,288936	273,868555	308,682463	0
15.01.2021	08:55:44	0	2,855423	3,615421	3,53325	12,1068	-0,088	87,27	0	1012,86	6,4	8,6	8,5	1	1	1	1	1	1	1	1	1	0	1	-2,043693	273,762683	316,434757	0
15.01.2021	08:55:45	0	2,97442	4,067349	3,5625	0,8676	-0,09	87,261	0	1012,9	6,4	8,5	8,5	1	1	1	1	1	1	1	1	1	0	1	-6,20155	273,868555	312,769848	0
15.01.2021	08:55:46	0	2,855423	3,615421	3,31575	360	-0,084	87,253	0	1012,9	6,4	8,6	8,5	1	1	1	1	1	1	1	1	1	0	1	-5,778717	273,91432	313,405938	0
15.01.2021	08:55:47	0	2,974399	2,711566	3,2655	4,068	-0,08	87,265	0	1012,86	6,4	8,6	8,5	1	1	1	1	1	1	1	1	1	0	1	-5,21494	273,812606	313,495882	0
15.01.2021	08:55:48	0	2,855423	5,084186	3,432	5,6736	-0,081	87,268	0	1012,9	6,3	8,6	8,5	1	1	1	1	1	1	1	1	1	0	1	-7,117689	273,932064	312,149684	0
15.01.2021	08:55:49	0	2,617471	3,276495	3,56625	10,4436	-0,089	87,253	0	1012,78	6,4	8,6	8,4	1	1	1	1	1	1	1	1	1	0	1	-2,184637	273,784691	316,39624	0
15.01.2021	08:55:50	0	2,736447	3,389458	3,636	10,8252	-0,088	87,26	0	1012,82	6,4	8,6	8,5	1	1	1	1	1	1	1	1	1	0	1	-2,959831	273,825842	315,812624	0
15.01.2021	08:55:51	0	2,855423	3,954367	3,62925	16,5672	-0,08	87,265	0	1012,92	6,3	8,6	8,5	1	1	1	1	1	1	1	1	1	0	1	-6,765328	273,952786	312,598663	0
15.01.2021	08:55:52	0	2,974399	5,1972	3,9195	12,096	-0,079	87,266	0	1013,06	6,4	8,6	8,4	1	1	1	1	1	1	1	1	1	0	1	-6,976744	273,908408	312,18036	0
15.01.2021	08:55:53	0	3,450303	4,745241	4,4745	18,8424	-0,082	87,267	0	1012,88	6,4	8,6	8,5	1	1	1	1	1	1	1	1	1	0	1	-7,681466	273,945383	311,648004	0
15.01.2021	08:55:54	0	2,974399	4,519277	4,5075	12,8412	-0,082	87,268	0	1012,9	6,4	8,6	8,5	1	1	1	1	1	1	1	1	1	0	1	-6,483439	273,853816	312,419298	0
15.01.2021	08:55:55	0	2,97442	4,293339	4,27875	19,8972	-0,083	87,276	0	1012,82	6,3	8,5	8,4	1	1	1	1	1	1	1	1	1	0	1	-3,382664	273,945383	315,946806	0
15.01.2021	08:55:56	0	2,736447	2,598584	4,13925	12,8412	-0,085	87,261	0	1012,88	6,4	8,6	8,5	1	1	1	1	1	1	1	1	1	0	1	-4,792107	273,809665	313,905026	0
15.01.2021	08:55:57	0	2,736447	2,93753	4,2855	7,1352	-0,081	87,272	0	1012,96	6,3	8,6	8,5	1	1	1	1	1	1	1	1	1	0	1	-5,637773	273,847923	313,237517	0
15.01.2021	08:55:58	0	2,617471	2,711566	4,22025	359,514	-0,082	87,281	0	1012,96	6,3	8,6	8,5	1	1	1	1	1	1	1	1	1	0	1	-5,144468	273,79644	313,491095	0
15.01.2021	08:55:59	0	3,093375	4,632287	4,07325	3,7872	-0,085	87,262	0	1012,72	6,4	8,6	8,4	1	1	1	1	1	1	1	1	1	0	1	-8,033827	273,861184	310,903233	0
15.01.2021	08:56:00	0	3,093375	3,163513	3,2115	18,0792	-0,091	87,26	0	1012,86	6,4	8,6	8,4	1	1	1	1	1	1	1	1	1	0	1	-4,933051	273,880355	314,093323	0
15.01.2021	08:56:01	0	3,093375	3,163513	3,2115	18,0792	-0,091	87,26	0	1012,86	6,4	8,6	8,4	1	1	1	1	1	1	1	1	1	0	1	-4,933051	273,880355	314,093323	0
15.01.2021	08:56:02	0	2,974399	3,954391	3,01575	17,6688	-0,08	87,266	0	1012,86	6,4	8,6	8,4	1	1	1	1	1	1	1	1	1	0	1	-6,060606	273,926147	313,179184	0
15.01.2021	08:56:03	0	2,974399	4,067349	3,003	10,8684	-0,084	87,271	0	1012,98	6,4	8,6	8,5	1	1	1	1	1	1	1	1	1	0	1	-1,902748	273,942422	317,412917	0
15.01.2021	08:56:04	0	2,974399	2,5986	3,04125	15,0192	-0,081	87,287	0	1012,98	6,4	8,6	8,4	1	1	1	1	1	1	1	1	1	0	1	-6,20155	273,906931	312,948668	0
15.01.2021	08:56:05	0	3,093396	3,954367	3,198	20,6244	-0,083	87,285	0	1012,94	6,3	8,5	8,5	1	1	1	1	1	1	1	1	1	0	1	-9,090909	273,946863	310,245464	0
15.01.2021	08:56:06	0	3,212351	2,824565	3,2715	13,158	-0,082	87,293	0	1012,96	6,3	8,6	8,4	1	1	1	1	1	1	1	1	1	0	1	-4,580691	273,874454	314,418191	0
15.01.2021	08:56:07	0	3,093375	4,180331	3,27825	359,5212	-0,083	87,293	0	1012,88	6,4	8,6	8,5	1	1	1	1	1	1	1	1	1	0	1	-12,614517	273,821429	306,137388	0
15.01.2021	08:56:08	0	3,093375	3,954391	3,561	0,864	-0,08	87,299	0	1012,96	6,4	8,6	8,4	1	1	1	1	1	1	1	1	1	0	1	-2,60747	273,942422	316,708196	0
15.01.2021	08:56:09	0	3,212351	4,632259	3,78	6,4332	-0,081	87,289	0	1013,04	6,4	8,6	8,5	1	1	1	1	1	1	1	1	1	0	1	-4,792107	273,896591	314,309925	0
15.01.2021	08:56:10	0	3,093375	4,632287	3,8325	10,17	-0,082	87,27	0	1012,86	6,4	8,6	8,4	1	1	1	1	1	1	1	1	1	0	1	-3,030303	273,775885	315,509586	0
15.01.2021	08:56:11	0	2,974399	4,519277	3,909	14,292	-0,079	87,29	0	1013,02	6,4	8,6	8,5	1	1	1	1	1	1	1	1	1	0	1	-1,127555	273,952786	318,236436	0
15.01.2021	08:56:12	0	2,974399	4,632259	3,86325	13,5504	-0,08	87,294	0	1012,94	6,4	8,6	8,5	1	1	1	1	1	1	1	1	1	0	1	-6,694856	273,836144	312,125571	0
15.01.2021	08:56:13	0	2,855423	4,180356	3,882	9,8388	-0,084	87,302	0	1012,94	6,4	8,6	8,4	1	1	1	1	1	1	1	1	1	0	1	-4,22833	273,929105	315,02525	0
15.01.2021	08:56:14	0	3,093396	3,276495	3,7605	10,9116	-0,082	87,296	0	1013,04	6,3	8,5	8,4	1	1	1	1	1	1	1	1	1	0	1	-2,748414	273,896591	316,353618	0
15.01.2021	08:56:15	0	3,093375	4,293339	3,69	9,7416	-0,077	87,292	0	1012,86	6,4	8,6	8,4	1	1	1	1	1	1	1	1	1	0	1	-6,906272	273,915798	312,285273	0
15.01.2021	08:56:16	0	2,974399	4,971205	3,639	5,6772	-0,086	87,289	0	1013,04	6,4	8,6	8,5	1	1	1	1	1	1	1	1	1	0	1	-3,59408	273,909886	315,569911	0
15.01.2021	08:56:17	0	3,093375	4,745269	3,5415	6,4188	-0,082	87,315	0	1012,9	6,4	8,6	8,4	1	1	1	1	1	1	1	1	1	0	1	-7,188161	273,781755	311,379051	0
15.01.2021	08:56:18	0	3,331327	3,841408	3,4365	6,8148	-0,079	87,28	0	1012,92	6,4	8,6	8,4	1	1	1	1	1	1	1	1	1	0	1	-8,315715	273,817017	310,415645	0
15.01.2021	08:56:19	0	3,212351	2,5986	3,4995	10,0584	-0,084	87,294	0	1012,98	6,3	8,6	8,4	1	1	1	1	1	1	1	1	1	0	1	-5,496829	273,828785	313,289329	0
15.01.2021	08:56:20	0	2,736447	4,406321	3,3645	15,0444	-0,081	87,297	0	1012,94	6,4	8,6	8,4	1	1	1	1	1	1	1	1	1	0	1	-7,470049	273,943903	311,852518	0
15.01.2021	08:56:21	0	3,331327	3,954391	3,153	5,7672	-0,083	87,293	0	1012,92	6,3	8,6	8,4	1	1	1	1	1	1	1	1	1	0	1	-2,818887	273,877405	316,19374	0
15.01.2021	08:56:22	0	2,974399	3,502461	2,9175	23,2056	-0,08	87,302	0	1013,02	6,3	8,6	8,4	1	1	1	1	1	1	1	1	1	0	1	-3,171247	273,799378	315,477993	0
15.01.2021	08:56:23	0	2,974399	2,033687	2,73375	15,0228	-0,079	87,293	0	1012,8	6,3	8,6	8,4	1	1	1	1	1	1	1	1	1	0	1	-8,738548	273,948344	310,604728	0
15.01.2021	08:56:24	0	2,974399	3,163513	2,76375	14,3028	-0,088	87,302	0	1012,96	6,4	8,6	8,4	1	1	1	1	1	1	1	1	1	0	1	-5,990134	273,852343	312,90574	0
15.01.2021	08:56:25	0	3,212351	5,197168	2,77125	22,4712	-0,082	87,29	0	1012,96	6,4	8,6	8,5	1	1	1	1	1	1	1	1	1	0	1	-7,047216	273,790565	311,560998	0
15.01.2021	08:56:26	0	3,093375	5,084217	2,75925	19,5228	-0,086	87,308	0	1013	6,4	8,6	8,4	1	1	1	1	1	1	1	1	1	0	1	-2,60747	273,918754	316,597856	0
15.01.2021	08:56:27	0	2,855423	2,485617	2,838	17,226	-0,084	87,302	0	1012,82	6,3	8,6	8,4	1	1	1	1	1	1	1	1	1	0	1	-5,990134	273,940942	313,318631	0
15.01.2021	08:56:28	0	3,331327	4,519304	2,92125	12,8484	-0,083	87,289	0	1012,86	6,4	8,6	8,4	1	1	1	1	1	1	1	1	1	0	1	-8,949965	273,915798	310,241581	0
15.01.2021	08:56:29	0	3,093375	2,598584	3,03675	10,8108	-0,089	87,296	0	1012,84	6,4	8,6	8,5	1	1	1	1	1	1	1	1	1	0	1	-6,8358	273,939462	312,466064	0
15.01.2021	08:56:30	0	3,450303	3,276476	3,18	14,6412	-0,084	87,31	0	1013,04	6,4	8,6	8,5	1	1	1	1	1	1	1	1	1	0	1	-4,721635	273,819958	314,023421	0
15.01.2021	08:56:31	0	3,093396	4,180331	3,12225	16,0848	-0,078	87,313	0	1012,98	6,3	8,5	8,5	1	1	1	1	1	1	1	1	1	0	1	-7,540521	273,929105	311,713058	0
15.01.2021	08:56:32	0	3,212351	3,728403	3,1635	15,7788	-0,085	87,287	0	1012,84	6,4	8,6	8,5	1	1	1	1	1	1	1	1	1	0	1	-8,668076	273,836144	310,152351	0
15.01.2021	08:56:33	0	2,855423	4,971234	3,1785	15,0336	-0,081	87,296	0	1012,88	6,4	8,6	8,4	1	1	1	1	1	1	1	1	1	0	1	-2,043693	273,942422	317,271973	0
15.01.2021	08:56:34	0	3,093375	2,937548	3,26025	16,0956	-0,084	87,318	0	1013	6,4	8,6	8,4	1	1	1	1	1	1	1	1	1	0	1	-4,510218	273,77882	314,043331	0
15.01.2021	08:56:35	0	3,093375	4,406321	3,2625	18,8244	-0,084	87,311	0	1012,98	6,4	8,6	8,4	1	1	1	1	1	1	1	1	1	0	1	-6,765328	273,901022	312,357352	0
15.01.2021	08:56:36	0	2,736447	2,711582	3,126	4,8456	-0,087	87,315	0	1013,06	6,3	8,6	8,4	1	1	1	1	1	1	1	1	1	0	1	-5,355884	273,802317	313,307036	0
15.01.2021	08:56:37	0	3,093375	3,05053	3,07125	7,5024	-0,089	87,297	0	1012,96	6,4	8,6	8,4	1	1	1	1	1	1	1	1	1	0	1	-5,285412	273,924668	313,947483	0
15.01.2021	08:56:38	0	3,093375	3,50244	2,88675	22,8384	-0,081	87,343	0	1013,36	6,4	8,6	8,5	1	1	1	1	1	1	1	1	1	0	1	-7,329105	273,920233	311,883113	0
15.01.2021	08:56:39	0	3,093375	3,954367	2,6955	9,3564	-0,081	87,316	0	1013,08	6,4	8,6	8,5	1	1	1	1	1	1	1	1	1	0	1	-3,805497	273,951305	315,551589	0
15.01.2021	08:56:40	0	3,093375	4,745241	2,68725	21,384	-0,084	87,319	0	1012,78	6,3	8,6	8,5	1	1	1	1	1	1	1	1	1	0	1	-6,20155	273,905453	312,941782	0
15.01.2021	08:56:41	0	2,974399	4,858252	2,69325	23,9832	-0,08	87,317	0	1012,92	6,4	8,6	8,4	1	1	1	1	1	1	1	1	1	0	1	-12,825934	273,955749	306,55187	0
15.01.2021	08:56:42	0	3,212351	3,841408	2,63325	16,4772	-0,084	87,322	0	1012,98	6,4	8,6	8,4	1	1	1	1	1	1	1	1	1	0	1	-4,721635	273,862658	314,222292	0
15.01.2021	08:56:43	0	2,974399	4,293339	2,5905	23,0508	-0,077	87,325	0	1012,96	6,4	8,6	8,4	1	1	1	1	1	1	1	1	1	0	1	-5,84919	273,954267	313,521708	0
15.01.2021	08:56:44	0	3,212351	3,841408	2,68425	12,4848	-0,087	87,33	0	1012,92	6,4	8,6	8,4	1	1	1	1	1	1	1	1	1	0	1	-8,738548	273,8332	310,068169	0
15.01.2021	08:56:45	0	3,331327	3,163513	2,7165	27,2772	-0,088	87,31	0	1013	6,4	8,6	8,4	1	1	1	1	1	1	1	1	1	0	1	-11,134602	273,940942	308,174163	0
15.01.2021	08:56:46	0	2,974399	3,389478	2,8215	38,0556	-0,08	87,319	0	1012,9	6,4	8,6	8,4	1	1	1	1	1	1	1	1	1	0	1	-5,84919	273,767082	312,649734	0
15.01.2021	08:56:47	0	3,331327	5,084186	2,79825	33,2532	-0,08	87,304	0	1013,04	6,3	8,6	8,5	1	1	1	1	1	1	1	1	1	0	1	-11,06413	273,887734	307,996625	0
15.01.2021	08:56:48	0	2,855423	3,389478	2,63025	18,828	-0,078	87,325	0	1012,76	6,4	8,6	8,4	1	1	1	1	1	1	1	1	1	0	1	-3,312192	273,771483	315,207212	0
15.01.2021	08:56:49	0	2,974399	4,406295	2,89275	8,604	-0,082	87,318	0	1012,9	6,4	8,6	8,5	1	1	1	1	1	1	1	1	1	0	1	-9,090909	273,892162	309,990481	0
15.01.2021	08:56:50	0	3,212351	3,954391	3,3165	25,2756	-0,078	87,327	0	1013,06	6,4	8,6	8,4	1	1	1	1	1	1	1	1	1	0	1	-5,003524	273,945383	314,325946	0
15.01.2021	08:56:51	0	3,212351	3,163513	3,615	19,8972	-0,08	87,321	0	1012,86	6,4	8,6	8,4	1	1	1	1	1	1	1	1	1	0	1	-4,439746	273,84056	314,401249	0
15.01.2021	08:56:52	0	2,736447	2,824548	3,69675	16,8516	-0,086	87,322	0	1012,72	6,3	8,6	8,5	1	1	1	1	1	1	1	1	1	0	1	-11,06413	273,77882	307,489419	0
15.01.2021	08:56:53	0	3,093375	4,858223	3,82875	11,7252	-0,079	87,318	0	1012,88	6,4	8,6	8,5	1	1	1	1	1	1	1	1	1	0	1	-8,45666	273,890686	310,617851	0
15.01.2021	08:56:54	0	2,974399	4,745269	3,636	20,6136	-0,081	87,317	0	1013,02	6,3	8,6	8,4	1	1	1	1	1	1	1	1	1	0	1	-5,144468	273,930585	314,116008	0
15.01.2021	08:56:55	0	3,212351	2,598584	3,741	4,464	-0,085	87,33	0	1013	6,4	8,6	8,5	1	1	1	1	1	1	1	1	1	0	1	-5,285412	273,858237	313,637917	0
15.01.2021	08:56:56	0	3,33135	4,632287	3,8715	16,848	-0,088	87,318	0	1012,92	6,4	8,5	8,4	1	1	1	1	1	1	1	1	1	0	1	-4,792107	273,939462	314,509757	0
15.01.2021	08:56:57	0	3,212351	3,728426	3,82125	18,4464	-0,087	87,33	0	1012,9	6,4	8,6	8,4	1	1	1	1	1	1	1	1	1	0	1	-8,45666	273,939462	310,845205	0
15.01.2021	08:56:58	0	3,093375	4,180356	3,66975	7,182	-0,08	87,321	0	1012,88	6,3	8,6	8,4	1	1	1	1	1	1	1	1	1	0	1	-8,104299	273,874454	310,894583	0
15.01.2021	08:56:59	0	2,974399	2,824548	3,53325	28,71	-0,08	87,327	0	1012,94	6,4	8,6	8,5	1	1	1	1	1	1	1	1	1	0	1	-9,090909	273,949825	310,259271	0
15.01.2021	08:57:00	0	3,450303	2,824565	3,46875	19,53	-0,082	87,321	0	1012,94	6,4	8,6	8,4	1	1	1	1	1	1	1	1	1	0	1	-10,711769	273,880355	308,314605	0
15.01.2021	08:57:01	0	3,450303	2,824565	3,46875	19,53	-0,082	87,321	0	1012,94	6,4	8,6	8,4	1	1	1	1	1	1	1	1	1	0	1	-10,711769	273,880355	308,314605	0
15.01.2021	08:57:02	0	3,450303	4,971205	3,5385	358,3584	-0,082	87,343	0	1012,96	6,4	8,6	8,5	1	1	1	1	1	1	1	1	1	0	1	-5,073996	273,96612	314,352174	0
15.01.2021	08:57:03	0	3,093375	3,05053	3,7095	10,44	-0,081	87,323	0	1013	6,4	8,6	8,4	1	1	1	1	1	1	1	1	1	0	1	-4,298802	273,893638	314,789468	0
15.01.2021	08:57:04	0	3,093375	3,841385	3,79425	12,0852	-0,081	87,338	0	1012,98	6,4	8,6	8,5	1	1	1	1	1	1	1	1	1	0	1	-6,8358	273,954267	312,535097	0
15.01.2021	08:57:05	0	3,450303	4,632287	3,88875	8,2476	-0,082	87,334	0	1012,96	6,4	8,6	8,4	1	1	1	1	1	1	1	1	1	0	1	-7,82241	273,918754	311,382916	0
15.01.2021	08:57:06	0	2,974399	2,5986	4,24125	12,8448	-0,083	87,311	0	1013,08	6,4	8,6	8,4	1	1	1	1	1	1	1	1	1	0	1	-6,8358	273,896591	312,266232	0
15.01.2021	08:57:07	0	2,974399	3,841408	4,32975	9,7488	-0,078	87,335	0	1012,92	6,4	8,6	8,4	1	1	1	1	1	1	1	1	1	0	1	-8,949965	273,783223	309,624079	0
15.01.2021	08:57:08	0	3,212351	4,632287	4,31625	11,1996	-0,082	87,331	0	1013,02	6,3	8,6	8,4	1	1	1	1	1	1	1	1	1	0	1	-2,60747	273,895115	316,487681	0
15.01.2021	08:57:09	0	3,450303	4,293313	4,122	15,4008	-0,08	87,324	0	1012,94	6,4	8,6	8,5	1	1	1	1	1	1	1	1	1	0	1	-2,184637	273,806726	316,498809	0
15.01.2021	08:57:10	0	3,450303	3,163494	3,612	14,6484	-0,082	87,318	0	1012,92	6,4	8,6	8,5	1	1	1	1	1	1	1	1	1	0	1	-10,923185	273,818487	307,815023	0
15.01.2021	08:57:11	0	3,093375	2,485617	3,3285	359,8704	-0,084	87,338	0	1012,96	6,4	8,6	8,4	1	1	1	1	1	1	1	1	1	0	1	-8,879493	273,976497	310,595074	0
15.01.2021	08:57:12	0	3,450303	3,276476	3,2055	20,286	-0,085	87,324	0	1012,88	6,4	8,6	8,5	1	1	1	1	1	1	1	1	1	0	1	-3,664553	273,893638	315,423718	0
15.01.2021	08:57:13	0	2,97442	3,389478	3,1335	16,1028	-0,082	87,319	0	1013,2	6,4	8,5	8,4	1	1	1	1	1	1	1	1	1	0	1	-8,033827	273,945383	311,295643	0
15.01.2021	08:57:14	0	2,974399	3,050512	3,195	12,8376	-0,083	87,314	0	1012,8	6,4	8,6	8,5	1	1	1	1	1	1	1	1	1	0	1	-6,765328	273,961674	312,64011	0
15.01.2021	08:57:15	0	3,093375	3,728426	3,3735	8,2656	-0,082	87,334	0	1012,74	6,4	8,6	8,4	1	1	1	1	1	1	1	1	1	0	1	-6,694856	273,800847	311,961225	0
15.01.2021	08:57:16	0	3,212351	3,163513	3,3525	0,1188	-0,083	87,342	0	1012,86	6,4	8,6	8,4	1	1	1	1	1	1	1	1	1	0	1	-0,98661	273,927626	318,260074	0
15.01.2021	08:57:17	0	2,855423	2,5986	3,36375	9,4428	-0,079	87,347	0	1012,98	6,4	8,6	8,4	1	1	1	1	1	1	1	1	1	0	1	-7,258633	273,79644	311,37693	0
15.01.2021	08:57:18	0	3,569279	4,519277	3,16275	8,6148	-0,08	87,336	0	1012,98	6,4	8,6	8,5	1	1	1	1	1	1	1	1	1	0	1	-5,496829	273,952786	313,867162	0
15.01.2021	08:57:19	0	3,212351	3,728426	3,00825	16,092	-0,082	87,337	0	1012,94	6,4	8,6	8,4	1	1	1	1	1	1	1	1	1	0	1	-2,466526	273,825842	316,305929	0
15.01.2021	08:57:20	0	3,093375	3,954367	2,9385	8,6148	-0,087	87,349	0	1012,98	6,4	8,6	8,5	1	1	1	1	1	1	1	1	1	0	1	-3,805497	273,946863	315,530876	0
15.01.2021	08:57:21	0	3,212351	3,163494	2,89275	14,6304	-0,081	87,348	0	1013	6,4	8,6	8,5	1	1	1	1	1	1	1	1	1	0	1	-6,624383	273,809665	312,072749	0
15.01.2021	08:57:22	0	3,331327	4,293339	2,9415	13,5504	-0,082	87,35	0	1012,96	6,4	8,6	8,4	1	1	1	1	1	1	1	1	1	0	1	-4,862579	273,844978	313,998991	0
15.01.2021	08:57:23	0	2,855423	4,519304	2,94525	24,3396	-0,081	87,349	0	1012,94	6,4	8,6	8,4	1	1	1	1	1	1	1	1	1	0	1	-2,677942	273,948344	316,665334	0
15.01.2021	08:57:24	0	3,569279	4,519304	2,7735	20,6316	-0,08	87,347	0	1013,02	6,4	8,6	8,4	1	1	1	1	1	1	1	1	1	0	1	-10,077519	273,861184	308,859541	0
15.01.2021	08:57:25	0	3,212351	2,824548	2,77725	8,6256	-0,08	87,342	0	1012,94	6,3	8,6	8,5	1	1	1	1	1	1	1	1	1	0	1	-6,765328	273,800847	311,890753	0
15.01.2021	08:57:26	0	3,331327	3,389458	2,8845	8,5896	-0,084	87,356	0	1012,96	6,4	8,6	8,5	1	1	1	1	1	1	1	1	1	0	1	-7,399577	273,917276	311,798858	0
15.01.2021	08:57:27	0	3,688255	4,406321	2,99625	5,6772	-0,081	87,348	0	1012,94	6,3	8,6	8,4	1	1	1	1	1	1	1	1	1	0	1	-8,597604	273,95723	310,787107	0
15.01.2021	08:57:28	0	3,569279	4,745269	2,7675	9,36	-0,086	87,344	0	1012,84	6,4	8,6	8,4	1	1	1	1	1	1	1	1	1	0	1	-2,60747	273,937982	316,687495	0
15.01.2021	08:57:29	0	3,212351	2,711566	2,52825	0,8712	-0,082	87,346	0	1012,72	6,4	8,6	8,5	1	1	1	1	1	1	1	1	1	0	1	-1,338971	273,886258	317,714906	0
15.01.2021	08:57:30	0	3,331327	2,937548	2,59275	1,638	-0,084	87,335	0	1013,06	6,4	8,6	8,4	1	1	1	1	1	1	1	1	1	0	1	-5,426357	273,95723	313,958355	0
15.01.2021	08:57:31	0	3,212351	2,711582	2,95425	10,8072	-0,076	87,356	0	1012,94	6,4	8,6	8,4	1	1	1	1	1	1	1	1	1	0	1	-8,668076	273,819958	310,07698	0
15.01.2021	08:57:32	0	3,450303	2,824548	3,19425	13,158	-0,085	87,338	0	1012,94	6,4	8,6	8,5	1	1	1	1	1	1	1	1	1	0	1	-4,087385	273,88921	314,980247	0
15.01.2021	08:57:33	0	3,212351	2,824565	3,4155	8,2692	-0,078	87,338	0	1012,92	6,4	8,6	8,4	1	1	1	1	1	1	1	1	1	0	1	-6,8358	273,949825	312,514381	0
15.01.2021	08:57:34	0	3,450303	4,180356	3,46875	9,3672	-0,078	87,35	0	1012,76	6,4	8,6	8,4	1	1	1	1	1	1	1	1	1	0	1	-2,959831	273,830256	315,83318	0
15.01.2021	08:57:35	0	3,212351	2,711582	3,34125	8,9892	-0,085	87,354	0	1013,02	6,4	8,6	8,4	1	1	1	1	1	1	1	1	1	0	1	-3,946441	273,824371	314,819163	0
15.01.2021	08:57:36	0	3,450303	3,728426	3,2235	14,2956	-0,084	87,338	0	1013,02	6,4	8,6	8,4	1	1	1	1	1	1	1	1	1	0	1	-8,879493	273,963156	310,532855	0
15.01.2021	08:57:37	0	3,331327	2,711566	3,135	2,7504	-0,088	87,342	0	1012,86	6,4	8,6	8,5	1	1	1	1	1	1	1	1	1	0	1	-2,466526	273,858237	316,456803	0
15.01.2021	08:57:38	0	2,974399	2,598584	3,072	0,8712	-0,082	87,354	0	1012,84	6,4	8,6	8,5	1	1	1	1	1	1	1	1	1	0	1	-6,8358	273,809665	311,861333	0
15.01.2021	08:57:39	0	3,450303	4,519304	2,976	349,8372	-0,087	87,345	0	1012,86	6,4	8,6	8,4	1	1	1	1	1	1	1	1	1	0	1	-5,003524	273,952786	314,360467	0
15.01.2021	08:57:40	0	3,80723	5,197168	2,89575	354,0096	-0,086	87,342	0	1013,04	6,4	8,6	8,5	1	1	1	1	1	1	1	1	1	0	1	-10,077519	273,828785	308,708638	0
15.01.2021	08:57:41	0	3,569279	5,197168	2,85975	359,8452	-0,083	87,358	0	1012,96	6,4	8,6	8,5	1	1	1	1	1	1	1	1	1	0	1	-8,527132	273,803786	310,14263	0
15.01.2021	08:57:42	0	3,450303	3,05053	2,8155	5,6664	-0,086	87,349	0	1012,88	6,4	8,6	8,4	1	1	1	1	1	1	1	1	1	0	1	-1,691332	273,940942	317,617433	0
15.01.2021	08:57:43	0	3,569279	4,632259	2,7045	354,9348	-0,084	87,35	0	1012,92	6,4	8,6	8,5	1	1	1	1	1	1	1	1	1	0	1	-8,386187	273,853816	310,51655	0
15.01.2021	08:57:44	0	3,688255	4,858223	2,6475	2,7144	-0,09	87,334	0	1012,88	6,4	8,6	8,5	1	1	1	1	1	1	1	1	1	0	1	-4,087385	273,954267	315,283512	0
15.01.2021	08:57:45	0	3,331327	2,711582	2,57025	357,3036	-0,082	87,347	0	1012,76	6,4	8,6	8,4	1	1	1	1	1	1	1	1	1	0	1	-2,889359	273,834672	315,924213	0
15.01.2021	08:57:46	0	3,331327	4,632287	2,5545	12,0708	-0,087	87,361	0	1013,08	6,4	8,6	8,4	1	1	1	1	1	1	1	1	1	0	1	-10,500352	273,964638	308,918906	0
15.01.2021	08:57:47	0	3,33135	2,711582	2,56125	3,7728	-0,082	87,375	0	1013	6,4	8,5	8,4	1	1	1	1	1	1	1	1	1	0	1	-5,496829	273,849396	313,385322	0
15.01.2021	08:57:48	0	3,569279	3,615421	2,5725	11,6856	-0,086	87,359	0	1012,96	6,4	8,6	8,5	1	1	1	1	1	1	1	1	1	0	1	-4,862579	273,951305	314,494506	0
15.01.2021	08:57:49	0	3,688255	4,180356	2,5515	13,5504	-0,09	87,35	0	1012,88	6,4	8,6	8,4	1	1	1	1	1	1	1	1	1	0	1	-6,20155	273,898068	312,907363	0
15.01.2021	08:57:50	0	3,331327	3,276495	2,63475	19,8864	-0,083	87,359	0	1012,88	6,4	8,6	8,4	1	1	1	1	1	1	1	1	1	0	1	-1,691332	273,777352	316,855387	0
15.01.2021	08:57:51	0	3,212351	3,389458	2,54175	17,7048	-0,089	87,36	0	1012,94	6,4	8,6	8,5	1	1	1	1	1	1	1	1	1	0	1	-7,963354	273,856763	310,95311	0
15.01.2021	08:57:52	0	3,569279	4,293339	2,65125	13,1616	-0,084	87,381	0	1012,98	6,4	8,6	8,4	1	1	1	1	1	1	1	1	1	0	1	-9,725159	273,961674	309,680279	0
15.01.2021	08:57:53	0	3,093375	3,615443	2,688	21,006	-0,084	87,366	0	1012,68	6,4	8,6	8,4	1	1	1	1	1	1	1	1	1	0	1	-3,312192	273,905453	315,831141	0
15.01.2021	08:57:54	0	3,569304	3,389478	2,75175	37,6704	-0,084	87,373	0	1012,86	6,4	8,5	8,4	1	1	1	1	1	1	1	1	1	0	1	-4,510218	273,793502	314,111669	0
15.01.2021	08:57:55	0	3,688255	3,389478	2,7615	10,0764	-0,085	87,377	0	1012,98	6,4	8,6	8,4	1	1	1	1	1	1	1	1	1	0	1	-6,483439	273,828785	312,302719	0
15.01.2021	08:57:56	0	3,331327	4,858252	2,6925	15,4044	-0,079	87,386	0	1012,98	6,4	8,6	8,4	1	1	1	1	1	1	1	1	1	0	1	-9,302326	273,954267	310,068572	0
15.01.2021	08:57:57	0	3,68828	4,293339	2,628	7,4844	-0,082	87,37	0	1012,84	6,4	8,5	8,4	1	1	1	1	1	1	1	1	1	0	1	-8,668076	273,915798	310,523469	0
15.01.2021	08:57:58	0	3,331327	3,841408	2,57175	14,6412	-0,089	87,377	0	1012,92	6,4	8,6	8,4	1	1	1	1	1	1	1	1	1	0	1	-4,22833	273,906931	314,921888	0
15.01.2021	08:57:59	0	3,331327	3,615443	2,6445	12,5604	-0,08	87,379	0	1013	6,4	8,6	8,4	1	1	1	1	1	1	1	1	1	0	1	-11,205074	273,955749	308,17273	0
15.01.2021	08:58:00	0	3,450303	3,502461	2,856	10,4544	-0,084	87,377	0	1013	6,4	8,6	8,4	1	1	1	1	1	1	1	1	1	0	1	-8,245243	273,864132	310,705551	0
15.01.2021	08:58:01	0	3,450303	3,502461	2,856	10,4544	-0,084	87,377	0	1013	6,4	8,6	8,4	1	1	1	1	1	1	1	1	1	0	1	-7,047216	273,952786	312,316775	0
15.01.2021	08:58:02	0	3,212373	3,389478	2,90625	7,1244	-0,084	87,371	0	1012,86	6,4	8,5	8,4	1	1	1	1	1	1	1	1	1	0	1	-6,976744	273,908408	312,18036	0
15.01.2021	08:58:03	0	3,212351	3,502461	2,8125	23,67	-0,084	87,378	0	1013,06	6,4	8,6	8,4	1	1	1	1	1	1	1	1	1	0	1	-6,131078	273,805256	312,545526	0
15.01.2021	08:58:04	0	3,688255	4,858252	2,70975	359,8596	-0,08	87,388	0	1012,92	6,4	8,6	8,4	1	1	1	1	1	1	1	1	1	0	1	-5,778717	273,960193	313,619811	0
15.01.2021	08:58:05	0	3,450303	2,93753	2,8665	4,0644	-0,084	87,368	0	1013,02	6,4	8,6	8,5	1	1	1	1	1	1	1	1	1	0	1	-4,369274	273,909886	314,794717	0
15.01.2021	08:58:06	0	3,926206	4,632287	2,76975	18,4392	-0,083	87,384	0	1013	6,4	8,6	8,4	1	1	1	1	1	1	1	1	1	0	1	-5,073996	273,970566	314,372912	0
15.01.2021	08:58:07	0	3,688255	4,406321	2,5605	14,2776	-0,087	87,372	0	1012,92	6,4	8,6	8,4	1	1	1	1	1	1	1	1	1	0	1	-9,725159	273,903976	309,411289	0
15.01.2021	08:58:08	0	3,331327	3,163513	2,37075	0,4896	-0,085	87,383	0	1012,98	6,4	8,6	8,4	1	1	1	1	1	1	1	1	1	0	1	-6,8358	273,951305	312,521286	0
15.01.2021	08:58:09	0	3,80723	4,632287	2,34	18,4392	-0,09	87,375	0	1012,78	6,4	8,6	8,4	1	1	1	1	1	1	1	1	1	0	1	-7,751938	273,939462	311,549926	0
15.01.2021	08:58:10	0	3,80723	4,293339	2,43375	7,5024	-0,083	87,392	0	1012,92	6,4	8,6	8,4	1	1	1	1	1	1	1	1	1	0	1	-6,342495	273,875929	312,663259	0
15.01.2021	08:58:11	0	3,212351	2,5986	2,436	15,408	-0,079	87,382	0	1012,92	6,4	8,6	8,4	1	1	1	1	1	1	1	1	1	0	1	-2,396054	273,949825	316,954127	0
15.01.2021	08:58:12	0	3,569279	4,180356	2,50425	7,8696	-0,088	87,389	0	1013,04	6,4	8,6	8,4	1	1	1	1	1	1	1	1	1	0	1	-5,708245	273,818487	313,029963	0
15.01.2021	08:58:13	0	3,688255	3,389478	2,559	17,2296	-0,087	87,396	0	1013,04	6,4	8,6	8,4	1	1	1	1	1	1	1	1	1	0	1	-8,668076	273,917276	310,530359	0
15.01.2021	08:58:14	0	3,450303	3,050512	2,4585	9,45	-0,084	87,395	0	1013	6,4	8,6	8,5	1	1	1	1	1	1	1	1	1	0	1	-4,439746	273,806726	314,2437	0
15.01.2021	08:58:15	0	3,569279	3,502461	2,5455	11,7216	-0,083	87,386	0	1012,92	6,4	8,6	8,4	1	1	1	1	1	1	1	1	1	0	1	-8,033827	273,906931	311,116391	0
15.01.2021	08:58:16	0	3,80723	4,293339	2,706	352,0692	-0,083	87,393	0	1012,96	6,4	8,6	8,4	1	1	1	1	1	1	1	1	1	0	1	-8,45666	273,789096	310,14472	0
15.01.2021	08:58:17	0	3,569279	3,163513	2,66175	26,6148	-0,078	87,376	0	1012,9	6,4	8,6	8,4	1	1	1	1	1	1	1	1	1	0	1	-6,765328	273,809665	311,931805	0
15.01.2021	08:58:18	0	3,688255	3,841385	2,52225	13,9104	-0,083	87,407	0	1012,92	6,4	8,6	8,5	1	1	1	1	1	1	1	1	1	0	1	-5,637773	273,799378	313,011467	0
15.01.2021	08:58:19	0	3,331327	2,711582	2,439	27,9468	-0,084	87,388	0	1012,96	6,4	8,6	8,4	1	1	1	1	1	1	1	1	1	0	1	-7,751938	273,955749	311,625866	0
15.01.2021	08:58:20	0	3,80723	3,728426	2,2185	15,3936	-0,089	87,395	0	1012,94	6,4	8,6	8,4	1	1	1	1	1	1	1	1	1	0	1	-5,919662	273,815546	312,804852	0
15.01.2021	08:58:21	0	3,68828	3,276476	2,1795	23,3028	-0,084	87,389	0	1012,8	6,3	8,5	8,5	1	1	1	1	1	1	1	1	1	0	1	-9,513742	273,908408	309,643362	0
15.01.2021	08:58:22	0	3,688255	4,858252	2,22225	19,5156	-0,085	87,391	0	1012,94	6,4	8,6	8,4	1	1	1	1	1	1	1	1	1	0	1	-3,946441	273,780288	314,613939	0
15.01.2021	08:58:23	0	3,450303	2,5986	2,298	19,152	-0,085	87,384	0	1013	6,3	8,6	8,4	1	1	1	1	1	1	1	1	1	0	1	-8,245243	273,884782	310,801757	0
15.01.2021	08:58:24	0	3,331327	4,067374	2,27925	29,5596	-0,081	87,393	0	1012,98	6,4	8,6	8,4	1	1	1	1	1	1	1	1	1	0	1	-12,191684	273,951305	307,165401	0
15.01.2021	08:58:25	0	3,80723	4,745269	2,3565	9,45	-0,078	87,404	0	1013,02	6,4	8,6	8,4	1	1	1	1	1	1	1	1	1	0	1	-6,131078	273,918754	313,074248	0
15.01.2021	08:58:26	0	3,450303	4,858223	2,42325	17,2332	-0,083	87,383	0	1012,9	6,4	8,6	8,5	1	1	1	1	1	1	1	1	1	0	1	-8,315715	273,933543	310,958554	0
15.01.2021	08:58:27	0	3,569279	2,937548	2,3715	21,384	-0,084	87,38	0	1013	6,4	8,6	8,4	1	1	1	1	1	1	1	1	1	0	1	-1,761804	273,790565	316,846411	0
15.01.2021	08:58:28	0	3,569279	2,5986	2,57775	23,9652	-0,077	87,395	0	1013,1	6,4	8,6	8,4	1	1	1	1	1	1	1	1	1	0	1	-5,496829	273,943903	313,825739	0
15.01.2021	08:58:29	0	3,688255	4,745241	2,74725	11,7072	-0,082	87,389	0	1012,86	6,4	8,6	8,5	1	1	1	1	1	1	1	1	1	0	1	-0,070472	273,92319	319,15553	0
15.01.2021	08:58:30	0	3,331327	2,937548	2,8275	6,4152	-0,081	87,409	0	1013,04	6,4	8,6	8,4	1	1	1	1	1	1	1	1	1	0	1	-7,963354	273,793502	310,658533	0
15.01.2021	08:58:31	0	3,80723	3,502461	2,95275	8,6004	-0,08	87,388	0	1012,96	6,4	8,6	8,4	1	1	1	1	1	1	1	1	1	0	1	-9,020437	273,831728	309,779427	0
15.01.2021	08:58:32	0	3,450303	4,293339	3,15825	0	-0,078	87,383	0	1013	6,4	8,6	8,4	1	1	1	1	1	1	1	1	1	0	1	-5,073996	273,828785	313,712162	0
15.01.2021	08:58:33	0	3,569279	3,50244	2,93325	32,8788	-0,079	87,406	0	1013,08	6,4	8,6	8,5	1	1	1	1	1	1	1	1	1	0	1	-4,22833	273,96612	315,19784	0
15.01.2021	08:58:34	0	4,045182	4,971234	2,73	12,4632	-0,083	87,407	0	1013,04	6,4	8,6	8,4	1	1	1	1	1	1	1	1	1	0	1	-9,372798	273,868555	309,598601	0
15.01.2021	08:58:35	0	3,569279	4,406295	2,808	19,5372	-0,083	87,391	0	1012,94	6,4	8,6	8,5	1	1	1	1	1	1	1	1	1	0	1	-7,329105	273,958711	312,062515	0
15.01.2021	08:58:36	0	3,331327	2,824565	3,0135	18,5508	-0,08	87,399	0	1013	6,4	8,6	8,4	1	1	1	1	1	1	1	1	1	0	1	-9,372798	273,936503	309,915268	0
15.01.2021	08:58:37	0	3,80723	4,632287	3,0495	18,0828	-0,085	87,398	0	1012,92	6,4	8,6	8,4	1	1	1	1	1	1	1	1	1	0	1	-9,020437	273,847923	309,854853	0
15.01.2021	08:58:38	0	3,450303	3,728426	3,057	17,6796	-0,09	87,392	0	1012,84	6,4	8,6	8,4	1	1	1	1	1	1	1	1	1	0	1	-4,651163	273,800847	314,004918	0
15.01.2021	08:58:39	0	3,331327	3,728426	3,15075	19,1412	-0,077	87,402	0	1012,94	6,4	8,6	8,4	1	1	1	1	1	1	1	1	1	0	1	-7,188161	273,911364	311,982718	0
15.01.2021	08:58:40	0	3,450303	3,389478	3,291	16,0884	-0,082	87,4	0	1013,08	6,4	8,6	8,4	1	1	1	1	1	1	1	1	1	0	1	-6,624383	273,850869	312,264629	0
15.01.2021	08:58:41	0	3,450303	3,502461	3,16275	22,0752	-0,084	87,403	0	1012,92	6,4	8,6	8,4	1	1	1	1	1	1	1	1	1	0	1	-4,721635	273,783223	313,852409	0
15.01.2021	08:58:42	0	3,926206	3,954391	3,081	26,5176	-0,081	87,431	0	1013,16	6,4	8,6	8,4	1	1	1	1	1	1	1	1	1	0	1	-9,372798	273,877405	309,639829	0
15.01.2021	08:58:43	0	3,212351	4,406321	2,91825	7,128	-0,086	87,396	0	1012,82	6,4	8,6	8,4	1	1	1	1	1	1	1	1	1	0	1	-9,725159	273,973531	309,735577	0
15.01.2021	08:58:44	0	3,80723	4,971205	2,70525	19,5264	-0,082	87,402	0	1012,96	6,4	8,6	8,5	1	1	1	1	1	1	1	1	1	0	1	-9,090909	273,890686	309,983602	0
15.01.2021	08:58:45	0	3,450303	3,728403	2,502	15,0264	-0,079	87,414	0	1013,02	6,3	8,6	8,5	1	1	1	1	1	1	1	1	1	0	1	-6,624383	273,806726	312,059063	0
15.01.2021	08:58:46	0	3,926206	5,310182	2,50875	14,2956	-0,08	87,418	0	1013,04	6,4	8,6	8,4	1	1	1	1	1	1	1	1	1	0	1	-9,161381	273,893638	309,926889	0
15.01.2021	08:58:47	0	3,450303	3,728426	2,6685	6,4332	-0,078	87,39	0	1012,96	6,4	8,6	8,4	1	1	1	1	1	1	1	1	1	0	1	-8,80902	273,800847	309,84706	0
15.01.2021	08:58:48	0	3,688255	4,067374	2,931	13,9176	-0,08	87,419	0	1012,78	6,4	8,6	8,4	1	1	1	1	1	1	1	1	1	0	1	-8,80902	273,819958	309,936036	0
15.01.2021	08:58:49	0	3,569279	3,841385	3,045	12,4776	-0,064	87,388	0	1013,08	6,4	8,6	8,5	1	1	1	1	1	1	1	1	1	0	1	-9,161381	273,825842	309,611073	0
15.01.2021	08:58:50	0	3,688255	3,389478	3,15225	12,0888	-0,082	87,411	0	1012,96	6,4	8,6	8,4	1	1	1	1	1	1	1	1	1	0	1	-5,778717	273,964638	313,640541	0
15.01.2021	08:58:51	0	3,688255	3,163494	3,1005	16,5744	-0,09	87,386	0	1012,94	6,4	8,6	8,5	1	1	1	1	1	1	1	1	1	0	1	-5,285412	273,843505	313,569299	0
15.01.2021	08:58:52	0	3,688255	4,180356	3,12525	10,8144	-0,083	87,406	0	1012,98	6,4	8,6	8,4	1	1	1	1	1	1	1	1	1	0	1	-8,386187	273,943903	310,93638	0
15.01.2021	08:58:53	0	3,569279	3,502461	3,18225	13,9068	-0,079	87,413	0	1013	6,4	8,6	8,4	1	1	1	1	1	1	1	1	1	0	1	-9,725159	273,964638	309,6941	0
15.01.2021	08:58:54	0	3,80723	3,502461	3,29775	18,0972	-0,08	87,407	0	1012,9	6,4	8,6	8,4	1	1	1	1	1	1	1	1	1	0	1	-5,073996	273,886258	313,979881	0
15.01.2021	08:58:55	0	3,688255	3,05053	3,47325	15,786	-0,081	87,411	0	1012,92	6,4	8,6	8,4	1	1	1	1	1	1	1	1	1	0	1	-9,44327	273,95723	309,941442	0
15.01.2021	08:58:56	0	3,450303	4,293339	3,54075	13,1796	-0,082	87,414	0	1012,94	6,4	8,6	8,4	1	1	1	1	1	1	1	1	1	0	1	-4,016913	273,91432	315,167743	0
15.01.2021	08:58:57	0	3,450303	3,728426	3,339	14,3172	-0,082	87,416	0	1013,02	6,4	8,6	8,4	1	1	1	1	1	1	1	1	1	0	1	-2,748414	273,79644	315,887148	0
15.01.2021	08:58:58	0	3,80723	4,180356	3,08175	13,158	-0,082	87,417	0	1012,84	6,4	8,6	8,4	1	1	1	1	1	1	1	1	1	0	1	-11,134602	273,921711	308,084508	0
15.01.2021	08:58:59	0	3,331327	2,824548	2,95125	21,0168	-0,076	87,42	0	1013,02	6,4	8,6	8,5	1	1	1	1	1	1	1	1	1	0	1	-6,906272	273,825842	311,866183	0
15.01.2021	08:59:00	0	3,569279	4,519304	3,02625	17,2368	-0,079	87,407	0	1012,94	6,4	8,6	8,4	1	1	1	1	1	1	1	1	1	0	1	-9,936575	273,842033	308,911278	0
15.01.2021	08:59:01	0	3,569279	4,519304	3,02625	17,2368	-0,079	87,407	0	1012,94	6,4	8,6	8,4	1	1	1	1	1	1	1	1	1	0	1	-9,936575	273,842033	308,911278	0
15.01.2021	08:59:02	0	3,450303	3,389478	3,1815	7,4952	-0,078	87,407	0	1012,84	6,4	8,6	8,4	1	1	1	1	1	1	1	1	1	0	1	-6,342495	273,78616	312,245216	0
15.01.2021	08:59:03	0	3,688255	2,259638	3,30375	7,8552	-0,077	87,408	0	1013,04	6,4	8,6	8,5	1	1	1	1	1	1	1	1	1	0	1	-10,077519	273,812606	308,633303	0
15.01.2021	08:59:04	0	3,450303	4,293339	3,42675	11,7108	-0,08	87,416	0	1013	6,4	8,6	8,4	1	1	1	1	1	1	1	1	1	0	1	-4,933051	273,954267	314,437846	0
15.01.2021	08:59:05	0	3,569279	3,502461	3,38625	13,914	-0,081	87,411	0	1013,04	6,4	8,6	8,4	1	1	1	1	1	1	1	1	1	0	1	-6,412967	273,780288	312,147413	0
15.01.2021	08:59:06	0	3,80723	3,276495	3,27525	10,4544	-0,081	87,416	0	1012,98	6,4	8,6	8,4	1	1	1	1	1	1	1	1	1	0	1	-6,906272	273,828785	311,879886	0
15.01.2021	08:59:07	0	3,569279	4,632287	3,2715	10,8	-0,088	87,419	0	1013,08	6,3	8,6	8,4	1	1	1	1	1	1	1	1	1	0	1	-4,792107	273,95723	314,592604	0
15.01.2021	08:59:08	0	3,80723	3,163513	3,267	12,4776	-0,083	87,404	0	1012,96	6,4	8,6	8,4	1	1	1	1	1	1	1	1	1	0	1	-7,892882	273,812606	310,81794	0
15.01.2021	08:59:09	0	3,688255	3,276495	3,26625	9,0576	-0,079	87,42	0	1013	6,4	8,6	8,4	1	1	1	1	1	1	1	1	1	0	1	-7,681466	273,856763	311,234998	0
15.01.2021	08:59:10	0	3,688255	3,841385	3,1965	13,158	-0,082	87,424	0	1013,02	6,4	8,6	8,5	1	1	1	1	1	1	1	1	1	0	1	-6,483439	273,969084	312,956555	0
15.01.2021	08:59:11	0	3,688255	3,05053	3,024	21,0132	-0,083	87,412	0	1013,02	6,4	8,6	8,4	1	1	1	1	1	1	1	1	1	0	1	-9,231853	273,844978	309,629717	0
15.01.2021	08:59:12	0	4,045182	3,163513	2,8605	17,6868	-0,087	87,414	0	1012,92	6,4	8,6	8,4	1	1	1	1	1	1	1	1	1	0	1	-4,22833	273,808195	314,461959	0
15.01.2021	08:59:13	0	3,688255	3,163513	2,9445	10,8	-0,08	87,412	0	1013	6,4	8,6	8,4	1	1	1	1	1	1	1	1	1	0	1	-3,946441	273,920233	315,265777	0
15.01.2021	08:59:14	0	3,80723	3,841408	2,901	21,3804	-0,08	87,418	0	1012,98	6,4	8,6	8,4	1	1	1	1	1	1	1	1	1	0	1	-10,711769	273,940942	308,596996	0
15.01.2021	08:59:15	0	4,045182	3,276495	2,757	15,0156	-0,087	87,406	0	1013,04	6,4	8,6	8,4	1	1	1	1	1	1	1	1	1	0	1	-7,470049	273,818487	311,268159	0
15.01.2021	08:59:16	0	3,80723	4,293339	2,724	7,8912	-0,087	87,407	0	1013,02	6,4	8,6	8,4	1	1	1	1	1	1	1	1	1	0	1	-3,523608	273,905453	315,619724	0
15.01.2021	08:59:17	0	3,688255	2,937548	2,7	2,6604	-0,085	87,412	0	1012,9	6,4	8,6	8,4	1	1	1	1	1	1	1	1	1	0	1	-5,637773	273,955749	313,740031	0
15.01.2021	08:59:18	0	3,569279	3,05053	2,53875	10,062	-0,083	87,399	0	1012,96	6,4	8,6	8,4	1	1	1	1	1	1	1	1	1	0	1	-6,976744	273,895115	312,118407	0
15.01.2021	08:59:19	0	3,569279	4,293313	2,45025	8,6076	-0,079	87,427	0	1013,02	6,4	8,6	8,5	1	1	1	1	1	1	1	1	1	0	1	-10,147992	273,789096	308,453388	0
15.01.2021	08:59:20	0	4,40211	4,971234	2,47425	22,0824	-0,072	87,412	0	1012,98	6,4	8,6	8,4	1	1	1	1	1	1	1	1	1	0	1	-7,117689	273,926147	312,122101	0
15.01.2021	08:59:21	0	3,688255	3,276495	2,358	18,072	-0,079	87,42	0	1013	6,4	8,6	8,4	1	1	1	1	1	1	1	1	1	0	1	-2,60747	273,849396	316,274681	0
15.01.2021	08:59:22	0	3,688255	4,745241	2,26725	359,4276	-0,085	87,399	0	1012,82	6,4	8,6	8,5	1	1	1	1	1	1	1	1	1	0	1	-5,355884	273,995783	314,208647	0
15.01.2021	08:59:23	0	3,688255	2,824565	2,3625	25,0452	-0,084	87,409	0	1012,88	6,4	8,6	8,4	1	1	1	1	1	1	1	1	1	0	1	-4,016913	273,865607	314,940748	0
15.01.2021	08:59:24	0	3,688255	4,632287	2,59875	23,6844	-0,081	87,409	0	1012,88	6,4	8,6	8,4	1	1	1	1	1	1	1	1	1	0	1	-3,664553	273,942422	315,651113	0
15.01.2021	08:59:25	0	3,80723	2,824565	2,82375	26,1468	-0,087	87,405	0	1012,92	6,4	8,6	8,4	1	1	1	1	1	1	1	1	1	0	1	-10,147992	273,825842	308,624463	0
15.01.2021	08:59:26	0	3,569279	3,954367	2,96625	24,732	-0,086	87,415	0	1012,94	6,4	8,6	8,5	1	1	1	1	1	1	1	1	1	0	1	-4,862579	273,939462	314,439285	0
15.01.2021	08:59:27	0	3,80723	3,163513	3,05025	12,834	-0,081	87,419	0	1013	6,4	8,6	8,4	1	1	1	1	1	1	1	1	1	0	1	-9,020437	273,808195	309,669852	0
15.01.2021	08:59:28	0	4,045182	2,711582	3,18975	356,2128	-0,078	87,416	0	1012,88	6,4	8,6	8,4	1	1	1	1	1	1	1	1	1	0	1	-6,412967	273,871505	312,572172	0
15.01.2021	08:59:29	0	3,569279	3,05053	3,12	4,086	-0,084	87,424	0	1013,02	6,4	8,6	8,4	1	1	1	1	1	1	1	1	1	0	1	-4,016913	273,792033	314,598137	0
15.01.2021	08:59:30	0	3,569279	2,824548	3,0435	3,7728	-0,081	87,418	0	1012,98	6,4	8,6	8,5	1	1	1	1	1	1	1	1	1	0	1	-6,131078	273,8229	312,627676	0
15.01.2021	08:59:31	0	3,688255	3,841408	2,88	13,9788	-0,086	87,419	0	1012,92	6,4	8,6	8,4	1	1	1	1	1	1	1	1	1	0	1	-8,104299	273,815546	310,620215	0
15.01.2021	08:59:32	0	4,283134	4,858252	2,634	3,4704	-0,082	87,433	0	1012,94	6,4	8,6	8,4	1	1	1	1	1	1	1	1	1	0	1	-7,117689	273,946863	312,218684	0
15.01.2021	08:59:33	0	3,80723	4,858252	2,32125	27,9684	-0,082	87,422	0	1012,9	6,4	8,6	8,4	1	1	1	1	1	1	1	1	1	0	1	-6,342495	273,917276	312,855941	0
15.01.2021	08:59:34	0	3,688255	4,519304	2,136	7,128	-0,082	87,423	0	1012,86	6,4	8,6	8,4	1	1	1	1	1	1	1	1	1	0	1	-4,510218	273,811135	314,193759	0
15.01.2021	08:59:35	0	3,450303	3,05053	1,92825	19,1268	-0,079	87,412	0	1012,9	6,4	8,6	8,4	1	1	1	1	1	1	1	1	1	0	1	-5,21494	273,834672	313,598632	0
15.01.2021	08:59:36	0	3,450303	2,372635	1,94175	23,2164	-0,078	87,429	0	1013,02	6,4	8,6	8,4	1	1	1	1	1	1	1	1	1	0	1	-7,117689	273,961674	312,287749	0
15.01.2021	08:59:37	0	4,045182	3,615421	1,944	15,7752	-0,083	87,423	0	1012,98	6,4	8,6	8,5	1	1	1	1	1	1	1	1	1	0	1	-5,355884	273,855289	313,553716	0
15.01.2021	08:59:38	0	3,569279	2,033687	1,90275	20,6316	-0,088	87,421	0	1013,1	6,4	8,6	8,4	1	1	1	1	1	1	1	1	1	0	1	-7,610994	273,805256	311,06561	0
15.01.2021	08:59:39	0	4,164158	3,389478	1,95375	4,4496	-0,084	87,415	0	1012,96	6,4	8,6	8,4	1	1	1	1	1	1	1	1	1	0	1	-3,100775	273,827313	315,678531	0
15.01.2021	08:59:40	0	3,688255	4,180356	1,9995	4,4712	-0,083	87,425	0	1013,04	6,4	8,6	8,4	1	1	1	1	1	1	1	1	1	0	1	-2,043693	273,836144	316,776734	0
15.01.2021	08:59:41	0	3,569279	2,937548	2,14725	8,2656	-0,08	87,433	0	1013,06	6,4	8,6	8,4	1	1	1	1	1	1	1	1	1	0	1	-5,355884	273,787628	313,23866	0
15.01.2021	08:59:42	0	4,045182	5,084217	2,271	7,5204	-0,081	87,413	0	1012,96	6,4	8,6	8,4	1	1	1	1	1	1	1	1	1	0	1	-10,500352	273,936503	308,787713	0
15.01.2021	08:59:43	0	3,569279	3,163513	2,3055	12,852	-0,082	87,415	0	1012,94	6,4	8,6	8,4	1	1	1	1	1	1	1	1	1	0	1	-8,104299	273,872979	310,887711	0
15.01.2021	08:59:44	0	3,688255	2,146669	2,2425	2,6496	-0,074	87,431	0	1013,18	6,4	8,6	8,4	1	1	1	1	1	1	1	1	1	0	1	-1,62086	273,800847	317,035221	0
15.01.2021	08:59:45	0	4,045182	3,276476	2,23275	29,556	-0,081	87,418	0	1012,9	6,4	8,6	8,5	1	1	1	1	1	1	1	1	1	0	1	-6,342495	273,839088	312,491644	0
15.01.2021	08:59:46	0	3,688255	3,841408	2,21175	12,852	-0,083	87,417	0	1012,94	6,4	8,6	8,4	1	1	1	1	1	1	1	1	1	0	1	-3,453136	273,91432	315,73152	0
15.01.2021	08:59:47	0	4,164158	4,180356	2,1825	24,7176	-0,083	87,426	0	1012,92	6,4	8,6	8,4	1	1	1	1	1	1	1	1	1	0	1	-8,245243	273,954267	311,125654	0
15.01.2021	08:59:48	0	3,688255	3,05053	2,1105	18,4428	-0,084	87,416	0	1012,94	6,4	8,6	8,4	1	1	1	1	1	1	1	1	1	0	1	-12,825934	273,853816	306,076803	0
15.01.2021	08:59:49	0	3,80723	4,971234	2,01075	15,0336	-0,082	87,409	0	1012,98	6,4	8,6	8,4	1	1	1	1	1	1	1	1	1	0	1	-7,258633	273,805256	311,417971	0
15.01.2021	08:59:50	0	4,164158	3,615443	1,95375	10,44	-0,08	87,418	0	1013,04	6,4	8,6	8,4	1	1	1	1	1	1	1	1	1	0	1	-5,567301	273,828785	313,218857	0
15.01.2021	08:59:51	0	3,926206	3,276476	1,97625	10,818	-0,077	87,44	0	1013,12	6,4	8,6	8,5	1	1	1	1	1	1	1	1	1	0	1	-7,610994	273,951305	311,746092	0
15.01.2021	08:59:52	0	3,926206	3,502461	2,22225	19,8972	-0,078	87,438	0	1013,04	6,4	8,6	8,4	1	1	1	1	1	1	1	1	1	0	1	-10,993658	273,92319	308,232345	0
15.01.2021	08:59:53	0	3,688255	3,841408	2,277	15,4008	-0,076	87,405	0	1013,12	6,4	8,6	8,4	1	1	1	1	1	1	1	1	1	0	1	-9,584214	273,850869	309,304798	0
15.01.2021	08:59:54	0	3,926206	3,163513	2,3145	8,6004	-0,079	87,417	0	1013,04	6,4	8,6	8,4	1	1	1	1	1	1	1	1	1	0	1	-8,104299	273,980945	311,39102	0
15.01.2021	08:59:55	0	4,164158	4,293339	2,5545	10,7928	-0,081	87,437	0	1013,02	6,4	8,6	8,4	1	1	1	1	1	1	1	1	1	0	1	-8,80902	273,850869	310,079992	0
15.01.2021	08:59:56	0	3,688255	3,276495	2,97375	4,824	-0,079	87,426	0	1012,96	6,4	8,6	8,4	1	1	1	1	1	1	1	1	1	0	1	-11,346018	273,808195	307,344271	0
15.01.2021	08:59:57	0	3,926206	3,389478	3,30675	9,7488	-0,08	87,433	0	1012,86	6,4	8,6	8,4	1	1	1	1	1	1	1	1	1	0	1	-6,906272	273,808195	311,784017	0
15.01.2021	08:59:58	0	3,80723	3,163513	3,32475	7,506	-0,08	87,426	0	1012,96	6,4	8,6	8,4	1	1	1	1	1	1	1	1	1	0	1	-12,262156	273,942422	307,053509	0
15.01.2021	08:59:59	0	4,045182	3,276495	3,369	3,7656	-0,086	87,439	0	1012,96	6,4	8,6	8,4	1	1	1	1	1	1	1	1	1	0	1	-4,298802	273,806726	314,384644	0
15.01.2021	09:00:00	0	3,80723	3,954391	3,05025	17,784	-0,085	87,412	0	1013,02	6,4	8,6	8,4	1	1	1	1	1	1	1	1	1	0	1	-3,59408	273,809665	315,103052	0
15.01.2021	09:00:01	0	3,80723	3,954391	3,05025	17,784	-0,085	87,412	0	1013,02	6,4	8,6	8,4	1	1	1	1	1	1	1	1	1	0	1	-3,59408	273,809665	315,103052	0
15.01.2021	09:00:02	0	4,164158	4,406321	2,8485	27,6516	-0,083	87,417	0	1012,94	6,4	8,6	8,4	1	1	1	1	1	1	1	1	1	0	1	-8,315715	273,868555	310,655684	0
15.01.2021	09:00:03	0	3,688255	2,5986	2,66325	30,7044	-0,077	87,434	0	1013,2	6,4	8,6	8,4	1	1	1	1	1	1	1	1	1	0	1	-13,178295	273,955749	306,199509	0
15.01.2021	09:00:04	0	3,688255	2,372635	2,691	26,172	-0,078	87,43	0	1012,94	6,4	8,6	8,4	1	1	1	1	1	1	1	1	1	0	1	-7,963354	273,958711	311,428265	0
15.01.2021	09:00:05	0	4,164158	4,519304	2,946	38,3832	-0,081	87,44	0	1012,94	6,4	8,6	8,4	1	1	1	1	1	1	1	1	1	0	1	-11,768851	273,867081	307,195679	0
15.01.2021	09:00:06	0	3,688255	3,276495	2,8605	29,9556	-0,078	87,443	0	1013,1	6,4	8,6	8,4	1	1	1	1	1	1	1	1	1	0	1	-5,990134	273,79644	312,645429	0
15.01.2021	09:00:07	0	4,045182	4,180356	2,85525	27,6444	-0,087	87,438	0	1012,98	6,4	8,6	8,4	1	1	1	1	1	1	1	1	1	0	1	-6,272023	273,970566	313,174885	0
15.01.2021	09:00:08	0	4,164158	4,632287	2,7435	26,8992	-0,085	87,43	0	1013	6,4	8,6	8,4	1	1	1	1	1	1	1	1	1	0	1	-9,372798	273,887734	309,687957	0
15.01.2021	09:00:09	0	3,926206	2,824565	2,59425	33,732	-0,082	87,438	0	1013,08	6,4	8,6	8,4	1	1	1	1	1	1	1	1	1	0	1	-6,8358	273,945383	312,49367	0
15.01.2021	09:00:10	0	3,926206	3,615443	2,484	8,6148	-0,082	87,441	0	1013,08	6,4	8,6	8,4	1	1	1	1	1	1	1	1	1	0	1	-7,610994	273,805256	311,06561	0
15.01.2021	09:00:11	0	3,80723	3,954391	2,343	9,3708	-0,08	87,442	0	1013,06	6,4	8,6	8,4	1	1	1	1	1	1	1	1	1	0	1	-7,047216	273,92319	312,178786	0
15.01.2021	09:00:12	0	3,688255	2,711582	2,19	353,9592	-0,082	87,428	0	1012,98	6,4	8,6	8,4	1	1	1	1	1	1	1	1	1	0	1	-3,59408	273,79644	315,041482	0
15.01.2021	09:00:13	0	4,045182	2,711582	2,0625	360	-0,08	87,422	0	1013,04	6,4	8,6	8,4	1	1	1	1	1	1	1	1	1	0	1	-2,325581	273,8332	316,481136	0
15.01.2021	09:00:14	0	3,80723	3,502461	1,9185	13,1508	-0,081	87,435	0	1012,94	6,4	8,6	8,4	1	1	1	1	1	1	1	1	1	0	1	-8,879493	273,918754	310,325834	0
15.01.2021	09:00:15	0	4,045182	3,841408	1,8615	13,9104	-0,08	87,435	0	1013,08	6,4	8,6	8,4	1	1	1	1	1	1	1	1	1	0	1	-4,369274	273,800847	314,286806	0
15.01.2021	09:00:16	0	4,164158	3,276495	2,0055	16,848	-0,085	87,433	0	1013	6,4	8,6	8,4	1	1	1	1	1	1	1	1	1	0	1	-9,090909	273,905453	310,052423	0
15.01.2021	09:00:17	0	4,045182	3,276495	2,01375	19,9044	-0,088	87,443	0	1013,06	6,4	8,6	8,4	1	1	1	1	1	1	1	1	1	0	1	-2,184637	273,954267	317,18626	0
15.01.2021	09:00:18	0	4,283134	2,824565	2,03025	14,2956	-0,079	87,436	0	1012,92	6,4	8,6	8,4	1	1	1	1	1	1	1	1	1	0	1	-8,033827	273,917276	311,164609	0
15.01.2021	09:00:19	0	4,164158	2,824565	2,0055	16,4808	-0,079	87,424	0	1013,04	6,4	8,6	8,4	1	1	1	1	1	1	1	1	1	0	1	-5,637773	273,949825	313,712407	0
15.01.2021	09:00:20	0	3,926206	4,406321	2,10075	10,8864	-0,09	87,427	0	1012,9	6,4	8,6	8,4	1	1	1	1	1	1	1	1	1	0	1	-7,610994	273,949825	311,739187	0
15.01.2021	09:00:21	0	4,045182	3,389478	2,25075	10,44	-0,082	87,434	0	1013,1	6,4	8,6	8,4	1	1	1	1	1	1	1	1	1	0	1	-6,8358	273,918754	312,369526	0
15.01.2021	09:00:22	0	3,80723	2,824548	2,34825	8,262	-0,079	87,438	0	1013,02	6,4	8,6	8,5	1	1	1	1	1	1	1	1	1	0	1	-8,879493	273,805256	309,797111	0
15.01.2021	09:00:23	0	3,926206	2,937548	2,3895	6,5124	-0,083	87,442	0	1013,02	6,4	8,6	8,4	1	1	1	1	1	1	1	1	1	0	1	-5,21494	273,783223	313,359104	0
15.01.2021	09:00:24	0	4,164158	3,050512	2,367	12,4632	-0,084	87,433	0	1013,04	6,4	8,6	8,5	1	1	1	1	1	1	1	1	1	0	1	-0,845666	273,886258	318,208211	0
15.01.2021	09:00:25	0	3,807257	4,067374	2,21475	22,824	-0,082	87,433	0	1012,98	6,4	8,5	8,4	1	1	1	1	1	1	1	1	1	0	1	-9,161381	273,951305	310,195704	0
15.01.2021	09:00:26	0	4,045182	3,276495	2,106	15,0156	-0,079	87,435	0	1013,06	6,4	8,6	8,4	1	1	1	1	1	1	1	1	1	0	1	-6,624383	273,946863	312,711989	0
15.01.2021	09:00:27	0	4,045182	4,745241	2,028	20,6964	-0,086	87,434	0	1012,94	6,4	8,6	8,5	1	1	1	1	1	1	1	1	1	0	1	-9,725159	273,890686	309,349353	0
15.01.2021	09:00:28	0	3,926206	4,519277	1,995	12,4668	-0,081	87,442	0	1013,02	6,4	8,6	8,5	1	1	1	1	1	1	1	1	1	0	1	-9,44327	273,964638	309,975988	0
15.01.2021	09:00:29	0	3,569279	3,502461	1,94325	19,1484	-0,081	87,441	0	1013	6,4	8,6	8,4	1	1	1	1	1	1	1	1	1	0	1	-7,329105	273,875929	311,676649	0
15.01.2021	09:00:30	0	4,164158	4,519304	1,99425	10,0584	-0,086	87,434	0	1012,98	6,4	8,6	8,4	1	1	1	1	1	1	1	1	1	0	1	-5,778717	273,955749	313,599087	0
15.01.2021	09:00:31	0	4,164158	4,519304	2,03475	16,8408	-0,083	87,437	0	1012,98	6,4	8,6	8,4	1	1	1	1	1	1	1	1	1	0	1	-6,8358	273,933543	312,438469	0
15.01.2021	09:00:32	0	4,045182	3,163513	2,016	14,6448	-0,076	87,444	0	1012,98	6,4	8,6	8,4	1	1	1	1	1	1	1	1	1	0	1	-5,708245	273,886258	313,345632	0
15.01.2021	09:00:33	0	3,926206	3,728426	1,824	16,4844	-0,081	87,432	0	1013,1	6,4	8,6	8,4	1	1	1	1	1	1	1	1	1	0	1	-9,302326	273,777352	309,244393	0
15.01.2021	09:00:34	0	3,926234	3,954391	1,75575	12,8412	-0,084	87,439	0	1013,04	6,4	8,5	8,4	1	1	1	1	1	1	1	1	1	0	1	-11,839323	273,843505	307,015388	0
15.01.2021	09:00:35	0	4,164158	3,954391	1,722	15,3936	-0,079	87,45	0	1012,98	6,4	8,6	8,4	1	1	1	1	1	1	1	1	1	0	1	-7,117689	273,964638	312,30157	0
15.01.2021	09:00:36	0	4,40211	4,858252	1,656	13,9104	-0,081	87,444	0	1012,94	6,4	8,6	8,4	1	1	1	1	1	1	1	1	1	0	1	-14,164905	273,912842	305,012862	0
15.01.2021	09:00:37	0	4,164158	3,05053	1,57875	12,1032	-0,078	87,443	0	1013,04	6,4	8,6	8,4	1	1	1	1	1	1	1	1	1	0	1	-7,329105	273,92319	311,896897	0
15.01.2021	09:00:38	0	4,164158	3,163513	1,52175	14,2956	-0,088	87,454	0	1012,96	6,4	8,6	8,4	1	1	1	1	1	1	1	1	1	0	1	-10,852713	273,790565	307,755502	0
15.01.2021	09:00:39	0	3,926206	3,276495	1,476	6,4368	-0,082	87,443	0	1013,1	6,4	8,6	8,4	1	1	1	1	1	1	1	1	1	0	1	-5,84919	273,898068	313,259724	0
15.01.2021	09:00:40	0	4,164158	4,519277	1,4475	12,0924	-0,081	87,444	0	1012,94	6,4	8,6	8,5	1	1	1	1	1	1	1	1	1	0	1	-13,460183	273,789096	305,141196	0
15.01.2021	09:00:41	0	3,926206	3,05053	1,4655	15,4044	-0,086	87,435	0	1013	6,4	8,6	8,4	1	1	1	1	1	1	1	1	1	0	1	-8,527132	273,892162	310,554259	0
15.01.2021	09:00:42	0	4,164158	4,067349	1,44225	25,0236	-0,082	87,445	0	1012,94	6,4	8,6	8,5	1	1	1	1	1	1	1	1	1	0	1	-8,104299	273,790565	310,503916	0
15.01.2021	09:00:43	0	4,640062	4,067374	1,3605	22,8492	-0,086	87,435	0	1012,88	6,4	8,6	8,4	1	1	1	1	1	1	1	1	1	0	1	-4,862579	273,846451	314,005851	0
15.01.2021	09:00:44	0	4,045182	2,937548	1,35525	27,2772	-0,08	87,428	0	1012,8	6,4	8,6	8,4	1	1	1	1	1	1	1	1	1	0	1	-7,963354	273,946863	311,373018	0
15.01.2021	09:00:45	0	4,164158	4,858252	1,443	19,548	-0,081	87,438	0	1013,1	6,4	8,6	8,4	1	1	1	1	1	1	1	1	1	0	1	-6,553911	273,837616	312,273371	0
15.01.2021	09:00:46	0	4,045182	4,180356	1,569	17,7876	-0,084	87,447	0	1013,02	6,4	8,6	8,4	1	1	1	1	1	1	1	1	1	0	1	-7,963354	273,946863	311,373018	0
15.01.2021	09:00:47	0	4,164158	4,519304	1,701	24,3324	-0,082	87,458	0	1013,04	6,4	8,6	8,4	1	1	1	1	1	1	1	1	1	0	1	-10,641297	273,793502	307,980591	0
15.01.2021	09:00:48	0	4,40211	4,519304	1,8765	25,02	-0,082	87,453	0	1013,02	6,4	8,6	8,4	1	1	1	1	1	1	1	1	1	0	1	-8,80902	273,8229	309,949734	0
15.01.2021	09:00:49	0	4,045182	2,937548	1,87125	12,852	-0,081	87,446	0	1013	6,4	8,6	8,4	1	1	1	1	1	1	1	1	1	0	1	-6,553911	273,8229	312,204843	0
15.01.2021	09:00:50	0	4,164158	2,146669	1,878	25,092	-0,084	87,454	0	1013	6,4	8,6	8,4	1	1	1	1	1	1	1	1	1	0	1	-6,553911	273,78616	312,033799	0
15.01.2021	09:00:51	0	4,045182	4,745269	2,0055	11,196	-0,076	87,446	0	1012,9	6,4	8,6	8,4	1	1	1	1	1	1	1	1	1	0	1	-10,42988	273,868555	308,541519	0
15.01.2021	09:00:52	0	4,164158	4,745269	2,25075	13,1688	-0,081	87,459	0	1013,02	6,4	8,6	8,4	1	1	1	1	1	1	1	1	1	0	1	-8,174771	273,960193	311,223757	0
15.01.2021	09:00:53	0	4,40211	4,519304	2,48325	17,6868	-0,08	87,444	0	1012,86	6,4	8,6	8,4	1	1	1	1	1	1	1	1	1	0	1	-7,117689	273,911364	312,05319	0
15.01.2021	09:00:54	0	4,045182	2,824565	2,59425	10,4436	-0,076	87,452	0	1013,02	6,4	8,6	8,4	1	1	1	1	1	1	1	1	1	0	1	-9,866103	273,771483	308,653301	0
15.01.2021	09:00:55	0	4,40211	3,954391	2,634	9,36	-0,083	87,455	0	1012,98	6,4	8,6	8,4	1	1	1	1	1	1	1	1	1	0	1	-11,980268	273,874454	307,018614	0
15.01.2021	09:00:56	0	4,045182	4,971205	2,6115	13,1724	-0,084	87,454	0	1012,98	6,4	8,6	8,5	1	1	1	1	1	1	1	1	1	0	1	-10,42988	273,903976	308,706567	0
15.01.2021	09:00:57	0	4,164158	3,05053	2,52975	13,9176	-0,077	87,448	0	1013,18	6,4	8,6	8,4	1	1	1	1	1	1	1	1	1	0	1	-9,44327	273,784691	309,137607	0
15.01.2021	09:00:58	0	4,40211	4,293339	2,42625	17,6904	-0,079	87,456	0	1012,98	6,4	8,6	8,4	1	1	1	1	1	1	1	1	1	0	1	-6,906272	273,828785	311,879886	0
15.01.2021	09:00:59	0	4,164158	3,276495	2,37675	9,8568	-0,077	87,432	0	1013,04	6,4	8,6	8,4	1	1	1	1	1	1	1	1	1	0	1	-6,553911	273,827313	312,225395	0
15.01.2021	09:01:00	0	4,164158	2,824565	2,478	15,7896	-0,078	87,443	0	1013,06	6,4	8,6	8,4	1	1	1	1	1	1	1	1	1	0	1	-7,963354	273,906931	311,186864	0
15.01.2021	09:01:01	0	4,164158	2,824565	2,478	15,7896	-0,078	87,443	0	1013,06	6,4	8,6	8,4	1	1	1	1	1	1	1	1	1	0	1	-7,963354	273,906931	311,186864	0
15.01.2021	09:01:02	0	4,283134	2,711566	2,3535	18,8352	-0,078	87,464	0	1013,04	6,4	8,6	8,5	1	1	1	1	1	1	1	1	1	0	1	-8,104299	273,95723	311,280413	0
15.01.2021	09:01:03	0	4,640062	4,858252	2,1495	18,072	-0,075	87,461	0	1012,94	6,4	8,6	8,4	1	1	1	1	1	1	1	1	1	0	1	-5,637773	273,808195	313,052516	0
15.01.2021	09:01:04	0	4,521086	3,05053	1,97925	20,2932	-0,075	87,463	0	1013,1	6,4	8,6	8,4	1	1	1	1	1	1	1	1	1	0	1	-12,825934	273,899545	306,289862	0
15.01.2021	09:01:05	0	4,164158	3,502461	1,818	22,4676	-0,075	87,47	0	1013,1	6,4	8,6	8,4	1	1	1	1	1	1	1	1	1	0	1	-4,087385	273,951305	315,2697	0
15.01.2021	09:01:06	0	4,521086	4,632287	1,7745	21,3804	-0,074	87,461	0	1013,04	6,4	8,6	8,4	1	1	1	1	1	1	1	1	1	0	1	-10,641297	273,905453	308,502036	0
15.01.2021	09:01:07	0	4,283134	3,50244	1,77975	24,7284	-0,084	87,463	0	1013,04	6,4	8,6	8,5	1	1	1	1	1	1	1	1	1	0	1	-5,144468	273,78616	313,443242	0
15.01.2021	09:01:08	0	4,164158	2,937548	1,7625	21,7692	-0,076	87,449	0	1013,04	6,4	8,6	8,4	1	1	1	1	1	1	1	1	1	0	1	-7,047216	273,808195	311,643073	0
15.01.2021	09:01:09	0	4,283134	3,728403	1,72725	12,4632	-0,079	87,462	0	1012,96	6,4	8,6	8,5	1	1	1	1	1	1	1	1	1	0	1	-11,06413	273,909886	308,099862	0
15.01.2021	09:01:10	0	4,164158	3,276495	1,734	7,506	-0,076	87,466	0	1013,22	6,4	8,6	8,4	1	1	1	1	1	1	1	1	1	0	1	-9,44327	273,952786	309,920721	0
15.01.2021	09:01:11	0	4,40211	4,293313	1,779	355,068	-0,081	87,444	0	1013,08	6,4	8,6	8,5	1	1	1	1	1	1	1	1	1	0	1	-3,171247	273,84056	315,669748	0
15.01.2021	09:01:12	0	4,164158	3,954391	1,83675	8,9928	-0,082	87,442	0	1013	6,4	8,6	8,4	1	1	1	1	1	1	1	1	1	0	1	-7,188161	273,783223	311,385883	0
15.01.2021	09:01:13	0	4,640062	3,728426	1,71375	19,9008	-0,078	87,465	0	1013,04	6,4	8,6	8,4	1	1	1	1	1	1	1	1	1	0	1	-5,21494	273,855289	313,69466	0
15.01.2021	09:01:14	0	4,283134	2,5986	1,6605	17,6904	-0,078	87,458	0	1012,96	6,4	8,6	8,4	1	1	1	1	1	1	1	1	1	0	1	-6,483439	273,942422	312,832227	0
15.01.2021	09:01:15	0	4,283134	3,502461	1,6815	16,0992	-0,082	87,459	0	1013	6,4	8,6	8,4	1	1	1	1	1	1	1	1	1	0	1	-5,637773	273,831728	313,16209	0
15.01.2021	09:01:16	0	4,521086	4,632287	1,72125	15,0264	-0,087	87,461	0	1012,98	6,4	8,6	8,4	1	1	1	1	1	1	1	1	1	0	1	-5,285412	273,942422	314,030253	0
15.01.2021	09:01:17	0	4,521086	4,406295	1,80075	8,262	-0,076	87,468	0	1013,2	6,4	8,6	8,5	1	1	1	1	1	1	1	1	1	0	1	-9,725159	273,794971	308,903566	0
15.01.2021	09:01:18	0	4,521086	4,180356	1,878	9,3636	-0,079	87,455	0	1013,12	6,4	8,6	8,4	1	1	1	1	1	1	1	1	1	0	1	-3,805497	273,880355	315,220877	0
15.01.2021	09:01:19	0	4,164158	2,711566	2,06775	13,1472	-0,076	87,475	0	1013,1	6,4	8,6	8,5	1	1	1	1	1	1	1	1	1	0	1	-5,285412	273,787628	313,309132	0
15.01.2021	09:01:20	0	4,521086	2,824548	2,295	16,4772	-0,08	87,452	0	1012,96	6,4	8,6	8,5	1	1	1	1	1	1	1	1	1	0	1	-6,483439	273,893638	312,604831	0
15.01.2021	09:01:21	0	4,164158	3,502461	2,484	12,852	-0,085	87,46	0	1012,98	6,4	8,6	8,4	1	1	1	1	1	1	1	1	1	0	1	-4,439746	273,793502	314,182141	0
15.01.2021	09:01:22	0	4,164158	3,615443	2,4885	12,8484	-0,079	87,457	0	1013,02	6,4	8,6	8,4	1	1	1	1	1	1	1	1	1	0	1	-6,976744	273,899545	312,139052	0
15.01.2021	09:01:23	0	4,521086	4,180356	2,37975	3,7728	-0,08	87,467	0	1013,08	6,4	8,6	8,4	1	1	1	1	1	1	1	1	1	0	1	-6,060606	273,930585	313,199869	0
15.01.2021	09:01:24	0	4,521086	3,389478	2,2515	18,0756	-0,081	87,477	0	1012,98	6,4	8,6	8,4	1	1	1	1	1	1	1	1	1	0	1	-5,84919	273,858237	313,074139	0
15.01.2021	09:01:25	0	4,521086	4,858252	2,139	14,2992	-0,085	87,47	0	1013,14	6,4	8,6	8,4	1	1	1	1	1	1	1	1	1	0	1	-5,567301	273,951305	313,789785	0
15.01.2021	09:01:26	0	4,521086	4,632259	2,148	35,1828	-0,083	87,461	0	1013,08	6,4	8,6	8,5	1	1	1	1	1	1	1	1	1	0	1	-9,936575	273,893638	309,151695	0
15.01.2021	09:01:27	0	4,40211	3,276495	2,15175	25,7904	-0,081	87,478	0	1013	6,4	8,6	8,4	1	1	1	1	1	1	1	1	1	0	1	-7,329105	273,958711	312,062515	0
15.01.2021	09:01:28	0	4,283134	4,067374	2,15175	20,9988	-0,082	87,476	0	1013,04	6,4	8,6	8,4	1	1	1	1	1	1	1	1	1	0	1	-3,24172	273,803786	315,428042	0
15.01.2021	09:01:29	0	4,521086	2,372635	2,133	16,56	-0,088	87,474	0	1012,94	6,4	8,6	8,4	1	1	1	1	1	1	1	1	1	0	1	-8,315715	273,902499	310,813848	0
15.01.2021	09:01:30	0	4,283134	2,824565	2,23425	30,3192	-0,08	87,474	0	1013,18	6,4	8,6	8,4	1	1	1	1	1	1	1	1	1	0	1	-8,245243	273,960193	311,153285	0
15.01.2021	09:01:31	0	4,521086	3,954391	2,30775	7,5096	-0,084	87,474	0	1013,04	6,4	8,6	8,4	1	1	1	1	1	1	1	1	1	0	1	-8,668076	273,85971	310,262118	0
15.01.2021	09:01:32	0	4,521086	3,163513	2,31525	14,6376	-0,08	87,489	0	1013,14	6,4	8,6	8,4	1	1	1	1	1	1	1	1	1	0	1	-3,875969	273,939462	315,425895	0
15.01.2021	09:01:33	0	4,283134	3,05053	2,26275	19,1376	-0,081	87,466	0	1013,08	6,4	8,6	8,4	1	1	1	1	1	1	1	1	1	0	1	-5,496829	273,78616	313,090882	0
15.01.2021	09:01:34	0	4,283134	3,05053	2,13975	13,9248	-0,077	87,456	0	1013,02	6,4	8,6	8,4	1	1	1	1	1	1	1	1	1	0	1	-6,412967	273,843505	312,441745	0
15.01.2021	09:01:35	0	4,521086	4,971234	2,094	20,6208	-0,079	87,471	0	1013,08	6,4	8,6	8,4	1	1	1	1	1	1	1	1	1	0	1	-3,664553	273,929105	315,589027	0
15.01.2021	09:01:36	0	4,521086	4,632287	2,11275	22,1004	-0,076	87,485	0	1013,04	6,4	8,6	8,4	1	1	1	1	1	1	1	1	1	0	1	-4,580691	273,902499	314,548872	0
15.01.2021	09:01:37	0	4,40211	4,293313	2,1285	16,686	-0,084	87,461	0	1013	6,4	8,6	8,5	1	1	1	1	1	1	1	1	1	0	1	-3,875969	273,946863	315,460404	0
15.01.2021	09:01:38	0	4,640062	3,615421	2,1765	39,5496	-0,083	87,473	0	1013,12	6,4	8,6	8,5	1	1	1	1	1	1	1	1	1	0	1	-9,513742	273,911364	309,657137	0
15.01.2021	09:01:39	0	4,521086	3,276495	2,1975	17,2296	-0,08	87,474	0	1013,02	6,4	8,6	8,4	1	1	1	1	1	1	1	1	1	0	1	-7,329105	273,933543	311,945164	0
15.01.2021	09:01:40	0	4,759038	4,180356	2,2755	18,0576	-0,084	87,474	0	1012,96	6,4	8,6	8,4	1	1	1	1	1	1	1	1	1	0	1	-6,765328	273,805256	311,911276	0
15.01.2021	09:01:41	0	4,40211	2,937548	2,40075	25,4052	-0,078	87,477	0	1012,96	6,4	8,6	8,4	1	1	1	1	1	1	1	1	1	0	1	-10,500352	273,903976	308,636095	0
15.01.2021	09:01:42	0	4,640062	4,067374	2,544	24,3396	-0,084	87,467	0	1013	6,4	8,6	8,4	1	1	1	1	1	1	1	1	1	0	1	-6,20155	273,803786	312,468212	0
15.01.2021	09:01:43	0	4,521086	4,858252	2,61525	17,226	-0,082	87,479	0	1013	6,4	8,6	8,4	1	1	1	1	1	1	1	1	1	0	1	-7,258633	273,842033	311,589221	0
15.01.2021	09:01:44	0	4,40211	5,1972	2,64	19,6164	-0,082	87,476	0	1012,98	6,4	8,6	8,4	1	1	1	1	1	1	1	1	1	0	1	-10,288936	273,937982	309,006029	0
15.01.2021	09:01:45	0	4,878014	4,293339	2,75925	25,4088	-0,085	87,456	0	1013,08	6,4	8,6	8,4	1	1	1	1	1	1	1	1	1	0	1	-5,919662	273,84056	312,921334	0
15.01.2021	09:01:46	0	4,521086	4,406321	2,66025	18,8352	-0,087	87,46	0	1013	6,4	8,6	8,4	1	1	1	1	1	1	1	1	1	0	1	-6,342495	273,954267	313,028402	0
15.01.2021	09:01:47	0	4,759038	4,406321	2,652	22,8276	-0,085	87,465	0	1012,86	6,4	8,6	8,4	1	1	1	1	1	1	1	1	1	0	1	-5,003524	273,834672	313,810048	0
15.01.2021	09:01:48	0	4,521086	4,293339	2,51175	14,7456	-0,085	87,485	0	1012,92	6,4	8,6	8,4	1	1	1	1	1	1	1	1	1	0	1	-7,82241	273,969084	311,617584	0
15.01.2021	09:01:49	0	4,759038	4,632287	2,44725	9,3528	-0,08	87,464	0	1013,02	6,4	8,6	8,4	1	1	1	1	1	1	1	1	1	0	1	-4,510218	273,91432	314,674437	0
15.01.2021	09:01:50	0	4,521086	4,406295	2,65725	10,062	-0,083	87,479	0	1013,06	6,4	8,6	8,5	1	1	1	1	1	1	1	1	1	0	1	-2,466526	273,942422	316,84914	0
15.01.2021	09:01:51	0	4,99699	3,954391	2,99175	3,762	-0,085	87,467	0	1012,96	6,4	8,6	8,4	1	1	1	1	1	1	1	1	1	0	1	-8,245243	273,951305	311,111842	0
15.01.2021	09:01:52	0	4,878014	3,276495	3,28275	5,2272	-0,077	87,48	0	1013	6,4	8,6	8,4	1	1	1	1	1	1	1	1	1	0	1	-4,439746	273,853816	314,462991	0
15.01.2021	09:01:53	0	4,640062	5,084217	3,29475	3,024	-0,084	87,499	0	1013,06	6,4	8,6	8,4	1	1	1	1	1	1	1	1	1	0	1	-6,272023	273,948344	313,071254	0
15.01.2021	09:01:54	0	4,40211	4,293339	2,87475	12,834	-0,084	87,494	0	1013,1	6,4	8,6	8,4	1	1	1	1	1	1	1	1	1	0	1	-6,976744	273,846451	311,891686	0
15.01.2021	09:01:55	0	4,521086	2,598584	2,7255	12,8556	-0,081	87,478	0	1013,04	6,4	8,6	8,5	1	1	1	1	1	1	1	1	1	0	1	-9,866103	273,961674	309,539335	0
15.01.2021	09:01:56	0	4,521086	2,824565	2,796	354,9456	-0,086	87,485	0	1012,92	6,4	8,6	8,4	1	1	1	1	1	1	1	1	1	0	1	-7,82241	273,864132	311,128383	0
15.01.2021	09:01:57	0	4,521086	2,937548	2,922	0	-0,079	87,479	0	1013,08	6,4	8,6	8,4	1	1	1	1	1	1	1	1	1	0	1	-3,59408	273,946863	315,742292	0
15.01.2021	09:01:58	0	4,40211	4,745269	3,03975	22,4604	-0,077	87,48	0	1013,02	6,4	8,6	8,4	1	1	1	1	1	1	1	1	1	0	1	-3,735025	273,920233	315,477193	0
15.01.2021	09:01:59	0	4,521086	2,824565	2,98875	23,9436	-0,079	87,479	0	1013,04	6,4	8,6	8,4	1	1	1	1	1	1	1	1	1	0	1	-9,161381	273,839088	309,672758	0
15.01.2021	09:02:00	0	4,640062	4,745269	3,2475	15,4044	-0,078	87,487	0	1013,02	6,4	8,6	8,4	1	1	1	1	1	1	1	1	1	0	1	-6,483439	273,821429	312,268466	0
15.01.2021	09:02:01	0	4,640062	4,745269	3,2475	15,4044	-0,078	87,487	0	1013,02	6,4	8,6	8,4	1	1	1	1	1	1	1	1	1	0	1	-6,483439	273,821429	312,268466	0
15.01.2021	09:02:02	0	4,640095	4,067374	3,4305	34,6896	-0,08	87,466	0	1012,96	6,4	8,5	8,4	1	1	1	1	1	1	1	1	1	0	1	-6,412967	273,933543	312,861302	0
15.01.2021	09:02:03	0	4,40211	4,406321	3,333	30,6972	-0,078	87,48	0	1013,14	6,4	8,6	8,4	1	1	1	1	1	1	1	1	1	0	1	-5,778717	273,827313	313,000589	0
15.01.2021	09:02:04	0	4,640062	3,05053	3,294	23,5836	-0,084	87,483	0	1012,94	6,4	8,6	8,4	1	1	1	1	1	1	1	1	1	0	1	-7,258633	273,768549	311,247117	0
15.01.2021	09:02:05	0	4,40211	4,406321	3,25125	25,0416	-0,087	87,496	0	1012,98	6,4	8,6	8,4	1	1	1	1	1	1	1	1	1	0	1	-6,131078	273,905453	313,012254	0
15.01.2021	09:02:06	0	4,283134	3,615443	3,04425	39,1644	-0,081	87,478	0	1013,16	6,4	8,6	8,4	1	1	1	1	1	1	1	1	1	0	1	-5,073996	273,969084	314,365998	0
15.01.2021	09:02:07	0	4,759038	3,05053	2,8365	38,7684	-0,082	87,486	0	1012,88	6,4	8,6	8,4	1	1	1	1	1	1	1	1	1	0	1	-3,946441	273,830256	314,846569	0
15.01.2021	09:02:08	0	4,640062	3,389458	2,9055	29,9592	-0,084	87,493	0	1013	6,4	8,6	8,5	1	1	1	1	1	1	1	1	1	0	1	-4,933051	273,937982	314,361913	0
15.01.2021	09:02:09	0	4,878014	4,293313	2,691	22,068	-0,082	87,489	0	1013,06	6,4	8,6	8,5	1	1	1	1	1	1	1	1	1	0	1	-10,500352	273,842033	308,347501	0
15.01.2021	09:02:10	0	4,40211	2,485617	2,56275	14,6484	-0,078	87,5	0	1013,08	6,4	8,6	8,4	1	1	1	1	1	1	1	1	1	0	1	-2,889359	273,937982	316,405606	0
15.01.2021	09:02:11	0	4,640062	4,180356	2,7855	17,6904	-0,084	87,482	0	1013,02	6,4	8,6	8,4	1	1	1	1	1	1	1	1	1	0	1	-6,765328	273,842033	312,082526	0
15.01.2021	09:02:12	0	4,283134	2,5986	3,0645	16,4844	-0,078	87,5	0	1013,06	6,4	8,6	8,4	1	1	1	1	1	1	1	1	1	0	1	-8,949965	273,78616	309,637746	0
15.01.2021	09:02:13	0	4,759038	4,858252	3,1575	13,9104	-0,079	87,502	0	1013,14	6,4	8,6	8,4	1	1	1	1	1	1	1	1	1	0	1	-13,601128	273,892162	305,480263	0
15.01.2021	09:02:14	0	4,640062	2,485617	3,222	9,7524	-0,077	87,501	0	1013,18	6,4	8,6	8,4	1	1	1	1	1	1	1	1	1	0	1	-4,298802	273,825842	314,473653	0
15.01.2021	09:02:15	0	4,640062	4,067374	3,16125	7,1136	-0,083	87,498	0	1012,94	6,4	8,6	8,4	1	1	1	1	1	1	1	1	1	0	1	-5,144468	273,793502	313,47742	0
15.01.2021	09:02:16	0	4,521086	4,293339	3,03225	7,506	-0,079	87,511	0	1013,06	6,4	8,6	8,4	1	1	1	1	1	1	1	1	1	0	1	-10,711769	273,827313	308,067537	0
15.01.2021	09:02:17	0	4,283134	2,598584	2,925	31,3956	-0,081	87,506	0	1013,18	6,4	8,6	8,5	1	1	1	1	1	1	1	1	1	0	1	-10,007047	273,792033	308,608004	0
15.01.2021	09:02:18	0	4,640062	2,824565	2,80725	21,0168	-0,081	87,495	0	1013,1	6,4	8,6	8,4	1	1	1	1	1	1	1	1	1	0	1	-6,694856	273,935023	312,586311	0
15.01.2021	09:02:19	0	4,99699	4,858252	2,6805	19,8936	-0,078	87,5	0	1013,02	6,4	8,6	8,4	1	1	1	1	1	1	1	1	1	0	1	-6,342495	273,91432	312,842161	0
15.01.2021	09:02:20	0	4,640062	5,1972	2,59725	23,2236	-0,084	87,497	0	1012,98	6,4	8,6	8,4	1	1	1	1	1	1	1	1	1	0	1	-6,342495	273,918754	312,862832	0
15.01.2021	09:02:21	0	4,521086	2,485617	2,583	25,398	-0,082	87,503	0	1013,1	6,4	8,6	8,4	1	1	1	1	1	1	1	1	1	0	1	-8,174771	273,803786	310,494991	0
15.01.2021	09:02:22	0	4,759038	2,824548	2,59125	24,3288	-0,086	87,479	0	1012,86	6,4	8,6	8,5	1	1	1	1	1	1	1	1	1	0	1	-7,610994	273,821429	311,140911	0
15.01.2021	09:02:23	0	4,40211	3,276495	2,436	15,7896	-0,08	87,492	0	1013,04	6,4	8,6	8,4	1	1	1	1	1	1	1	1	1	0	1	-14,376321	273,915798	304,815224	0
15.01.2021	09:02:24	0	4,640062	4,519304	2,29125	5,2092	-0,076	87,498	0	1012,94	6,4	8,6	8,4	1	1	1	1	1	1	1	1	1	0	1	-6,624383	273,783223	311,949661	0
15.01.2021	09:02:25	0	4,521086	2,711566	2,23125	33,6312	-0,083	87,496	0	1013,06	6,4	8,6	8,5	1	1	1	1	1	1	1	1	1	0	1	-7,047216	273,844978	311,814354	0
15.01.2021	09:02:26	0	4,878014	3,615443	2,274	34,7004	-0,088	87,493	0	1013,02	6,4	8,6	8,4	1	1	1	1	1	1	1	1	1	0	1	-12,332629	273,936503	306,955437	0
15.01.2021	09:02:27	0	4,640062	3,841408	2,4375	34,3152	-0,074	87,502	0	1013,02	6,4	8,6	8,4	1	1	1	1	1	1	1	1	1	0	1	-8,738548	273,849396	310,143603	0
15.01.2021	09:02:28	0	4,521086	4,067374	2,532	25,7724	-0,062	87,517	0	1013,28	6,4	8,6	8,4	1	1	1	1	1	1	1	1	1	0	1	-8,315715	273,800847	310,340365	0
15.01.2021	09:02:29	0	4,521086	4,180356	2,625	29,0952	-0,082	87,493	0	1013,08	6,4	8,6	8,4	1	1	1	1	1	1	1	1	1	0	1	-9,372798	273,8332	309,43392	0
15.01.2021	09:02:30	0	4,521086	3,615443	2,6205	26,5176	-0,077	87,516	0	1013,06	6,4	8,6	8,4	1	1	1	1	1	1	1	1	1	0	1	-5,990134	273,929105	313,263446	0
15.01.2021	09:02:31	0	4,759038	3,615443	2,50125	15,7824	-0,076	87,511	0	1013,12	6,4	8,6	8,4	1	1	1	1	1	1	1	1	1	0	1	-11,134602	273,954267	308,236295	0
15.01.2021	09:02:32	0	4,521118	3,954391	2,52975	32,4936	-0,078	87,511	0	1012,96	6,4	8,5	8,4	1	1	1	1	1	1	1	1	1	0	1	-6,342495	273,908408	312,81461	0
15.01.2021	09:02:33	0	4,521086	2,5986	2,4075	23,2164	-0,071	87,515	0	1013,16	6,4	8,6	8,4	1	1	1	1	1	1	1	1	1	0	1	-8,315715	273,771483	310,203688	0
15.01.2021	09:02:34	0	4,521086	4,745269	2,13525	16,4772	-0,081	87,509	0	1013,02	6,4	8,6	8,4	1	1	1	1	1	1	1	1	1	0	1	-9,725159	273,899545	309,390638	0
15.01.2021	09:02:35	0	4,521086	2,824565	2,04975	22,8456	-0,08	87,506	0	1013,06	6,3	8,6	8,4	1	1	1	1	1	1	1	1	1	0	1	-7,610994	273,77882	310,942555	0
15.01.2021	09:02:36	0	4,521086	3,615443	2,1495	27,2988	-0,08	87,502	0	1013	6,4	8,6	8,4	1	1	1	1	1	1	1	1	1	0	1	-3,664553	273,849396	315,217598	0
15.01.2021	09:02:37	0	4,759038	4,745269	2,385	26,172	-0,076	87,509	0	1012,96	6,4	8,6	8,4	1	1	1	1	1	1	1	1	1	0	1	-13,248767	273,949825	306,101414	0
15.01.2021	09:02:38	0	4,283134	2,5986	2,481	18,072	-0,078	87,519	0	1013,02	6,4	8,6	8,4	1	1	1	1	1	1	1	1	1	0	1	-7,470049	273,846451	311,398381	0
15.01.2021	09:02:39	0	4,521086	3,163513	2,463	16,0776	-0,082	87,52	0	1013,06	6,4	8,6	8,4	1	1	1	1	1	1	1	1	1	0	1	-7,399577	273,961674	312,00586	0
15.01.2021	09:02:40	0	4,640062	4,293339	2,58075	21,3948	-0,084	87,507	0	1013,12	6,4	8,6	8,4	1	1	1	1	1	1	1	1	1	0	1	-11,41649	273,880355	307,609884	0
15.01.2021	09:02:41	0	4,40211	2,711582	2,682	22,4532	-0,076	87,512	0	1013,04	6,4	8,6	8,4	1	1	1	1	1	1	1	1	1	0	1	-11,486963	273,939462	307,814902	0
15.01.2021	09:02:42	0	4,878014	3,05053	2,6175	19,9116	-0,083	87,51	0	1013,04	6,4	8,6	8,4	1	1	1	1	1	1	1	1	1	0	1	-6,906272	273,825842	311,866183	0
15.01.2021	09:02:43	0	4,878014	4,519304	2,60175	12,4632	-0,082	87,513	0	1012,98	6,4	8,6	8,4	1	1	1	1	1	1	1	1	1	0	1	-7,399577	273,940942	311,909188	0
15.01.2021	09:02:44	0	4,40211	4,293339	2,8095	8,6148	-0,081	87,504	0	1013,02	6,4	8,6	8,4	1	1	1	1	1	1	1	1	1	0	1	-7,399577	273,95723	311,985134	0
15.01.2021	09:02:45	0	4,521086	2,485617	2,994	16,4736	-0,076	87,513	0	1012,94	6,4	8,6	8,4	1	1	1	1	1	1	1	1	1	0	1	-9,725159	273,85971	309,205036	0
15.01.2021	09:02:46	0	4,640062	3,954391	2,94825	22,0896	-0,081	87,496	0	1013,02	6,4	8,6	8,4	1	1	1	1	1	1	1	1	1	0	1	-3,453136	273,792033	315,161915	0
15.01.2021	09:02:47	0	4,759038	4,406321	2,742	16,8444	-0,086	87,51	0	1012,98	6,4	8,6	8,4	1	1	1	1	1	1	1	1	1	0	1	-5,990134	273,915798	313,201411	0
15.01.2021	09:02:48	0	4,640062	4,293339	2,51175	12,8556	-0,079	87,515	0	1013	6,4	8,6	8,4	1	1	1	1	1	1	1	1	1	0	1	-5,708245	273,817017	313,023115	0
15.01.2021	09:02:49	0	4,521086	3,276495	2,54775	26,5104	-0,082	87,524	0	1013,04	6,4	8,6	8,4	1	1	1	1	1	1	1	1	1	0	1	-8,315715	273,771483	310,203688	0
15.01.2021	09:02:50	0	5,115966	4,180356	2,65125	38,4048	-0,076	87,514	0	1013,08	6,4	8,6	8,4	1	1	1	1	1	1	1	1	1	0	1	-7,258633	273,88921	311,809	0
15.01.2021	09:02:51	0	4,640062	3,502461	2,64225	33,246	-0,08	87,51	0	1012,96	6,4	8,6	8,4	1	1	1	1	1	1	1	1	1	0	1	-10,077519	273,945383	309,25195	0
15.01.2021	09:02:52	0	5,115966	3,502461	2,5425	33,9336	-0,079	87,517	0	1012,98	6,4	8,6	8,4	1	1	1	1	1	1	1	1	1	0	1	-11,768851	273,853816	307,133886	0
15.01.2021	09:02:53	0	4,759038	3,389478	2,27025	20,6244	-0,084	87,525	0	1013,04	6,4	8,6	8,4	1	1	1	1	1	1	1	1	1	0	1	-7,751938	273,797909	310,890463	0
15.01.2021	09:02:54	0	4,759038	4,519304	2,1105	23,5836	-0,081	87,509	0	1013,14	6,4	8,6	8,4	1	1	1	1	1	1	1	1	1	0	1	-9,44327	273,78616	309,14444	0
15.01.2021	09:02:55	0	4,99699	4,971234	1,99725	15,408	-0,08	87,534	0	1013,1	6,4	8,6	8,4	1	1	1	1	1	1	1	1	1	0	1	-8,45666	273,883306	310,583465	0
15.01.2021	09:02:56	0	4,521086	2,93753	2,0685	8,622	-0,074	87,535	0	1013,22	6,4	8,6	8,5	1	1	1	1	1	1	1	1	1	0	1	-3,312192	273,952786	316,051799	0
15.01.2021	09:02:57	0	4,759038	3,50244	2,12325	11,7144	-0,08	87,535	0	1013,08	6,4	8,6	8,5	1	1	1	1	1	1	1	1	1	0	1	-6,412967	273,811135	312,29101	0
15.01.2021	09:02:58	0	4,640062	3,615421	2,1135	27,6552	-0,08	87,524	0	1013,1	6,4	8,6	8,5	1	1	1	1	1	1	1	1	1	0	1	-7,751938	273,836144	311,068489	0
15.01.2021	09:02:59	0	4,521086	4,858252	2,16975	20,6136	-0,079	87,522	0	1013,08	6,4	8,6	8,4	1	1	1	1	1	1	1	1	1	0	1	-4,792107	273,932064	314,475265	0
15.01.2021	09:03:00	0	4,878014	4,745269	2,085	20,628	-0,082	87,515	0	1013,06	6,4	8,6	8,4	1	1	1	1	1	1	1	1	1	0	1	-5,144468	273,937982	314,150497	0
15.01.2021	09:03:01	0	4,878014	4,745269	2,085	20,628	-0,082	87,515	0	1013,06	6,4	8,6	8,4	1	1	1	1	1	1	1	1	1	0	1	-5,144468	273,937982	314,150497	0
15.01.2021	09:03:02	0	4,759038	2,711566	2,2215	7,1208	-0,08	87,518	0	1013,08	6,4	8,6	8,5	1	1	1	1	1	1	1	1	1	0	1	-7,892882	273,850869	310,99613	0
15.01.2021	09:03:03	0	4,640062	3,05053	2,44875	17,6868	-0,077	87,53	0	1013,22	6,4	8,6	8,4	1	1	1	1	1	1	1	1	1	0	1	-7,82241	273,964638	311,596848	0
15.01.2021	09:03:04	0	4,99699	4,745269	2,5395	9,7488	-0,078	87,529	0	1013,06	6,4	8,6	8,4	1	1	1	1	1	1	1	1	1	0	1	-15,081043	273,883306	303,959081	0
15.01.2021	09:03:05	0	4,759038	4,293339	2,5335	16,1172	-0,081	87,506	0	1013,12	6,4	8,6	8,4	1	1	1	1	1	1	1	1	1	0	1	-9,725159	273,943903	309,597409	0
15.01.2021	09:03:06	0	4,99699	3,276495	2,42175	10,8	-0,087	87,518	0	1013	6,4	8,6	8,4	1	1	1	1	1	1	1	1	1	0	1	-10,359408	273,815546	308,365106	0
15.01.2021	09:03:07	0	4,640062	4,180356	2,33475	13,1688	-0,086	87,518	0	1013,02	6,4	8,6	8,4	1	1	1	1	1	1	1	1	1	0	1	-10,077519	273,884782	308,969481	0
15.01.2021	09:03:08	0	4,759038	4,519277	2,22	3,3912	-0,081	87,531	0	1013,06	6,4	8,6	8,5	1	1	1	1	1	1	1	1	1	0	1	-3,735025	273,946863	315,601348	0
15.01.2021	09:03:09	0	5,115966	4,406295	2,20875	15,0264	-0,083	87,517	0	1013,1	6,4	8,6	8,5	1	1	1	1	1	1	1	1	1	0	1	-12,825934	273,872979	306,166076	0
15.01.2021	09:03:10	0	4,640062	3,615443	2,1435	5,2308	-0,079	87,532	0	1013,1	6,4	8,6	8,4	1	1	1	1	1	1	1	1	1	0	1	-1,62086	273,783223	316,953184	0
15.01.2021	09:03:11	0	4,99699	3,954391	2,22	13,914	-0,085	87,525	0	1013,08	6,4	8,6	8,4	1	1	1	1	1	1	1	1	1	0	1	-5,990134	273,92319	313,235869	0
15.01.2021	09:03:12	0	4,640062	4,519304	2,37075	4,1724	-0,081	87,523	0	1013,02	6,4	8,6	8,4	1	1	1	1	1	1	1	1	1	0	1	-9,372798	273,828785	309,41336	0
15.01.2021	09:03:13	0	4,640062	4,067374	2,31975	21,3696	-0,081	87,523	0	1013,06	6,4	8,6	8,4	1	1	1	1	1	1	1	1	1	0	1	-7,892882	273,951305	311,464203	0
15.01.2021	09:03:14	0	4,878014	4,406321	2,31525	16,0884	-0,078	87,536	0	1013,02	6,4	8,6	8,4	1	1	1	1	1	1	1	1	1	0	1	-11,41649	273,909886	307,747501	0
15.01.2021	09:03:15	0	4,759038	2,711582	2,25	17,2224	-0,079	87,535	0	1013,14	6,4	8,6	8,4	1	1	1	1	1	1	1	1	1	0	1	-6,553911	273,780288	312,006469	0
15.01.2021	09:03:16	0	4,878014	4,406321	2,22	16,8408	-0,083	87,544	0	1012,88	6,4	8,6	8,4	1	1	1	1	1	1	1	1	1	0	1	-7,540521	273,831728	311,259342	0
15.01.2021	09:03:17	0	4,759038	2,711566	2,3055	6,0624	-0,079	87,545	0	1013,04	6,4	8,6	8,5	1	1	1	1	1	1	1	1	1	0	1	-8,315715	273,789096	310,285664	0
15.01.2021	09:03:18	0	4,878014	4,971234	2,24025	9,7452	-0,087	87,54	0	1013,02	6,4	8,6	8,4	1	1	1	1	1	1	1	1	1	0	1	-14,376321	273,924668	304,856574	0
15.01.2021	09:03:19	0	4,521086	3,954391	2,10525	0,4896	-0,078	87,533	0	1013,04	6,4	8,6	8,4	1	1	1	1	1	1	1	1	1	0	1	-0,98661	273,724593	317,314634	0
15.01.2021	09:03:20	0	5,234942	3,163513	2,0355	5,6736	-0,078	87,553	0	1013,06	6,4	8,6	8,4	1	1	1	1	1	1	1	1	1	0	1	-5,144468	273,824371	313,621136	0
15.01.2021	09:03:21	0	4,640062	2,711582	1,98075	3,3876	-0,08	87,539	0	1012,98	6,4	8,6	8,4	1	1	1	1	1	1	1	1	1	0	1	-4,22833	273,905453	314,915003	0
15.01.2021	09:03:22	0	4,878014	4,745269	2,04	15,7752	-0,082	87,537	0	1013,02	6,4	8,6	8,4	1	1	1	1	1	1	1	1	1	0	1	-0,98661	273,780288	317,57377	0
15.01.2021	09:03:23	0	4,99699	4,180356	2,20275	19,1412	-0,078	87,546	0	1012,98	6,4	8,6	8,4	1	1	1	1	1	1	1	1	1	0	1	-6,342495	273,792033	312,272556	0
15.01.2021	09:03:24	0	4,759038	2,372635	2,532	11,1816	-0,079	87,552	0	1012,98	6,4	8,6	8,4	1	1	1	1	1	1	1	1	1	0	1	-7,681466	273,794971	310,947259	0
15.01.2021	09:03:25	0	4,99699	3,502461	2,742	19,8936	-0,084	87,531	0	1012,9	6,4	8,6	8,4	1	1	1	1	1	1	1	1	1	0	1	-5,003524	273,871505	313,981615	0
15.01.2021	09:03:26	0	4,759038	4,293339	2,76225	36,5976	-0,078	87,56	0	1013,18	6,4	8,6	8,4	1	1	1	1	1	1	1	1	1	0	1	-4,651163	273,790565	313,957052	0
15.01.2021	09:03:27	0	4,99699	3,615421	2,87475	20,6172	-0,079	87,546	0	1012,94	6,4	8,6	8,5	1	1	1	1	1	1	1	1	1	0	1	-5,708245	273,875929	313,297508	0
15.01.2021	09:03:28	0	4,759038	2,372635	3,05925	23,9724	-0,081	87,526	0	1012,98	6,4	8,6	8,4	1	1	1	1	1	1	1	1	1	0	1	-11,275546	273,964638	308,143712	0
15.01.2021	09:03:29	0	4,99699	4,632287	3,2805	16,092	-0,078	87,546	0	1013,06	6,4	8,6	8,4	1	1	1	1	1	1	1	1	1	0	1	-4,510218	273,87003	314,46805	0
15.01.2021	09:03:30	0	4,640062	2,5986	3,4515	6,048	-0,076	87,548	0	1013,1	6,4	8,6	8,4	1	1	1	1	1	1	1	1	1	0	1	-3,171247	273,940942	316,137517	0
15.01.2021	09:03:31	0	4,878048	4,858252	3,67575	20,9988	-0,082	87,552	0	1013,1	6,4	8,5	8,4	1	1	1	1	1	1	1	1	1	0	1	-10,147992	273,844978	308,713579	0
15.01.2021	09:03:32	0	4,759038	4,971234	3,46125	22,4748	-0,079	87,548	0	1013,06	6,4	8,6	8,4	1	1	1	1	1	1	1	1	1	0	1	-7,047216	273,927626	312,199468	0
15.01.2021	09:03:33	0	5,234942	4,745269	3,2475	26,892	-0,08	87,553	0	1013,04	6,4	8,6	8,4	1	1	1	1	1	1	1	1	1	0	1	-7,117689	273,942422	312,197977	0
15.01.2021	09:03:34	0	5,115966	4,858252	3,0225	18,4356	-0,082	87,534	0	1012,94	6,4	8,6	8,4	1	1	1	1	1	1	1	1	1	0	1	-8,668076	273,903976	310,468371	0
15.01.2021	09:03:35	0	4,878014	3,05053	2,778	16,8444	-0,079	87,557	0	1013,06	6,4	8,6	8,4	1	1	1	1	1	1	1	1	1	0	1	-6,342495	273,787628	312,25205	0
15.01.2021	09:03:36	0	4,759038	4,632259	2,48475	12,4776	-0,086	87,55	0	1012,74	6,4	8,6	8,5	1	1	1	1	1	1	1	1	1	0	1	-5,919662	273,775885	312,620227	0
15.01.2021	09:03:37	0	4,521086	3,954367	2,4075	1,1808	-0,082	87,552	0	1012,98	6,4	8,6	8,5	1	1	1	1	1	1	1	1	1	0	1	-2,677942	273,908408	316,479162	0
15.01.2021	09:03:38	0	4,99699	3,502461	2,4615	5,2236	-0,079	87,563	0	1013,12	6,4	8,6	8,4	1	1	1	1	1	1	1	1	1	0	1	-3,875969	273,946863	315,460404	0
15.01.2021	09:03:39	0	5,115966	3,163494	2,5725	16,4664	-0,083	87,549	0	1012,98	6,4	8,6	8,5	1	1	1	1	1	1	1	1	1	0	1	-8,45666	273,825842	310,315795	0
15.01.2021	09:03:40	0	4,640062	3,276495	2,5575	12,8376	-0,081	87,563	0	1013,1	6,4	8,6	8,4	1	1	1	1	1	1	1	1	1	0	1	-6,342495	273,95723	313,042217	0
15.01.2021	09:03:41	0	5,115966	4,745269	2,5185	13,914	-0,08	87,543	0	1013,08	6,4	8,6	8,4	1	1	1	1	1	1	1	1	1	0	1	-6,483439	273,92319	312,742563	0
15.01.2021	09:03:42	0	4,759038	2,711582	2,7285	22,8312	-0,075	87,564	0	1013,12	6,4	8,6	8,4	1	1	1	1	1	1	1	1	1	0	1	-6,20155	273,95723	313,183161	0
15.01.2021	09:03:43	0	4,878014	3,276495	2,958	8,0928	-0,082	87,551	0	1013,12	6,4	8,6	8,4	1	1	1	1	1	1	1	1	1	0	1	-7,82241	273,775885	310,717479	0
15.01.2021	09:03:44	0	4,878014	3,05053	3,357	10,4256	-0,076	87,554	0	1013,08	6,4	8,6	8,4	1	1	1	1	1	1	1	1	1	0	1	-8,174771	273,909886	310,98922	0
15.01.2021	09:03:45	0	4,640062	4,406321	3,53475	7,8732	-0,078	87,547	0	1013,2	6,4	8,6	8,4	1	1	1	1	1	1	1	1	1	0	1	-6,624383	273,819958	312,120673	0
15.01.2021	09:03:46	0	4,640095	4,406321	3,6045	7,1208	-0,081	87,561	0	1013,08	6,4	8,5	8,4	1	1	1	1	1	1	1	1	1	0	1	-6,976744	273,95723	312,407967	0
15.01.2021	09:03:47	0	4,759038	2,937548	3,67725	1,5516	-0,076	87,569	0	1013,06	6,4	8,6	8,4	1	1	1	1	1	1	1	1	1	0	1	-3,171247	273,88921	315,896385	0
15.01.2021	09:03:48	0	4,759038	4,519304	3,5445	5,2056	-0,077	87,546	0	1013,04	6,4	8,6	8,4	1	1	1	1	1	1	1	1	1	0	1	-7,329105	273,940942	311,97966	0
15.01.2021	09:03:49	0	4,759038	3,389478	3,25425	9,7488	-0,077	87,552	0	1013	6,4	8,6	8,4	1	1	1	1	1	1	1	1	1	0	1	-0,98661	273,902499	318,142953	0
15.01.2021	09:03:50	0	4,878014	4,519304	2,90325	24,3396	-0,083	87,555	0	1013,02	6,4	8,6	8,4	1	1	1	1	1	1	1	1	1	0	1	-4,862579	273,781755	313,704632	0
15.01.2021	09:03:51	0	4,99699	2,937548	2,68425	26,514	-0,079	87,56	0	1013,04	6,4	8,6	8,4	1	1	1	1	1	1	1	1	1	0	1	-6,976744	273,88921	312,090888	0
15.01.2021	09:03:52	0	4,878014	4,406321	2,4465	33,6348	-0,079	87,575	0	1013,14	6,4	8,6	8,4	1	1	1	1	1	1	1	1	1	0	1	-2,184637	273,758284	316,273344	0
15.01.2021	09:03:53	0	5,234942	3,615443	2,1945	18,8136	-0,08	87,597	0	1013,34	6,4	8,6	8,4	1	1	1	1	1	1	1	1	1	0	1	-4,510218	273,899545	314,605578	0
15.01.2021	09:03:54	0	4,640062	4,180356	2,17725	0,4824	-0,082	87,561	0	1013,12	6,4	8,6	8,4	1	1	1	1	1	1	1	1	1	0	1	-8,597604	273,969084	310,84239	0
15.01.2021	09:03:55	0	4,759038	3,05053	2,6685	10,4364	-0,073	87,561	0	1013,08	6,4	8,6	8,4	1	1	1	1	1	1	1	1	1	0	1	-5,637773	273,918754	313,567553	0
15.01.2021	09:03:56	0	4,99699	3,389458	3,021	25,0236	-0,081	87,57	0	1013,04	6,4	8,6	8,5	1	1	1	1	1	1	1	1	1	0	1	-2,466526	273,920233	316,745692	0
15.01.2021	09:03:57	0	4,99699	3,50244	3,042	15,4044	-0,078	87,571	0	1013,08	6,4	8,6	8,5	1	1	1	1	1	1	1	1	1	0	1	-4,580691	273,912842	314,597076	0
15.01.2021	09:03:58	0	4,878014	3,05053	3,0435	19,1412	-0,085	87,553	0	1013,16	6,4	8,6	8,4	1	1	1	1	1	1	1	1	1	0	1	-6,553911	273,960193	312,844617	0
15.01.2021	09:03:59	0	4,99699	4,745269	3,213	13,9068	-0,076	87,577	0	1013,12	6,4	8,6	8,4	1	1	1	1	1	1	1	1	1	0	1	-7,751938	273,839088	311,082201	0
15.01.2021	09:04:00	0	5,115966	2,824565	3,6105	20,2896	-0,081	87,575	0	1013	6,4	8,6	8,4	1	1	1	1	1	1	1	1	1	0	1	-3,382664	273,871505	315,602475	0
15.01.2021	09:04:01	0	5,115966	2,824565	3,6105	20,2896	-0,081	87,575	0	1013	6,4	8,6	8,4	1	1	1	1	1	1	1	1	1	0	1	-3,382664	273,871505	315,602475	0
15.01.2021	09:04:02	0	4,878014	4,293339	3,57975	22,086	-0,078	87,553	0	1013,02	6,4	8,6	8,4	1	1	1	1	1	1	1	1	1	0	1	-8,386187	273,79644	310,249375	0
15.01.2021	09:04:03	0	4,99699	2,711582	3,4155	16,0848	-0,078	87,564	0	1013,18	6,4	8,6	8,4	1	1	1	1	1	1	1	1	1	0	1	-7,610994	273,837616	311,216289	0
15.01.2021	09:04:04	0	4,878014	4,858252	3,294	16,1028	-0,082	87,573	0	1013,08	6,4	8,6	8,4	1	1	1	1	1	1	1	1	1	0	1	-5,567301	273,929105	313,686279	0
15.01.2021	09:04:05	0	5,115966	3,841408	3,3435	11,7828	-0,083	87,559	0	1013,02	6,4	8,6	8,4	1	1	1	1	1	1	1	1	1	0	1	-5,919662	273,821429	312,832243	0
15.01.2021	09:04:06	0	5,59187	4,745269	3,2775	10,8072	-0,086	87,549	0	1013,1	6,4	8,6	8,4	1	1	1	1	1	1	1	1	1	0	1	-4,087385	273,843505	314,767326	0
15.01.2021	09:04:07	0	5,234942	2,937548	3,52275	9,3636	-0,082	87,555	0	1012,9	6,4	8,6	8,4	1	1	1	1	1	1	1	1	1	0	1	-7,399577	273,960193	311,998951	0
15.01.2021	09:04:08	0	4,99699	3,615443	3,672	11,7144	-0,08	87,563	0	1012,94	6,4	8,6	8,4	1	1	1	1	1	1	1	1	1	0	1	-5,708245	273,895115	313,386906	0
15.01.2021	09:04:09	0	4,878014	2,485617	3,65775	4,8636	-0,078	87,575	0	1013,02	6,4	8,6	8,4	1	1	1	1	1	1	1	1	1	0	1	-7,470049	273,79644	311,165513	0
15.01.2021	09:04:10	0	5,115966	2,824565	3,37725	17,2368	-0,077	87,573	0	1013,04	6,4	8,6	8,4	1	1	1	1	1	1	1	1	1	0	1	-8,033827	273,815546	310,690687	0
15.01.2021	09:04:11	0	4,99699	4,632287	3,24375	14,6448	-0,078	87,563	0	1012,98	6,4	8,6	8,4	1	1	1	1	1	1	1	1	1	0	1	-5,21494	273,899545	313,900856	0
15.01.2021	09:04:12	0	5,115966	4,519304	3,204	16,0992	-0,084	87,567	0	1013,08	6,4	8,6	8,4	1	1	1	1	1	1	1	1	1	0	1	-8,597604	273,937982	310,697361	0
15.01.2021	09:04:13	0	4,878014	4,745269	3,22125	14,6556	-0,078	87,57	0	1013,08	6,4	8,6	8,4	1	1	1	1	1	1	1	1	1	0	1	-11,134602	273,794971	307,494123	0
15.01.2021	09:04:14	0	4,99699	3,728426	3,08475	19,9008	-0,085	87,575	0	1013,06	6,4	8,6	8,4	1	1	1	1	1	1	1	1	1	0	1	-7,751938	273,819958	310,993118	0
15.01.2021	09:04:15	0	4,759038	2,372635	2,967	18,8352	-0,077	87,569	0	1013,1	6,4	8,6	8,4	1	1	1	1	1	1	1	1	1	0	1	-9,584214	273,827313	309,195092	0
15.01.2021	09:04:16	0	4,878014	4,858252	3,04575	7,4916	-0,082	87,556	0	1013,12	6,4	8,6	8,4	1	1	1	1	1	1	1	1	1	0	1	-8,245243	273,954267	311,125654	0
15.01.2021	09:04:17	0	5,472894	3,389478	2,95575	18,8316	-0,077	87,565	0	1013,08	6,4	8,6	8,4	1	1	1	1	1	1	1	1	1	0	1	-5,144468	273,821429	313,607437	0
15.01.2021	09:04:18	0	4,99699	3,389458	2,829	22,464	-0,081	87,581	0	1013,12	6,4	8,6	8,5	1	1	1	1	1	1	1	1	1	0	1	-5,355884	273,946863	313,980488	0
15.01.2021	09:04:19	0	4,99699	5,084217	2,70525	20,6316	-0,075	87,559	0	1013,1	6,4	8,6	8,4	1	1	1	1	1	1	1	1	1	0	1	-5,21494	273,926147	314,02485	0
15.01.2021	09:04:20	0	5,115966	4,519277	2,61375	18,8424	-0,082	87,556	0	1013,22	6,4	8,6	8,5	1	1	1	1	1	1	1	1	1	0	1	-11,909796	273,828785	306,876362	0
15.01.2021	09:04:21	0	5,115966	3,276495	2,6025	32,4792	-0,082	87,563	0	1012,96	6,4	8,6	8,4	1	1	1	1	1	1	1	1	1	0	1	-7,82241	273,809665	310,874723	0
15.01.2021	09:04:22	0	5,115966	4,293339	2,688	22,0716	-0,081	87,568	0	1013,06	6,4	8,6	8,4	1	1	1	1	1	1	1	1	1	0	1	-5,778717	273,852343	313,117157	0
15.01.2021	09:04:23	0	4,99699	4,180356	2,88	15,4116	-0,085	87,576	0	1013,22	6,4	8,6	8,4	1	1	1	1	1	1	1	1	1	0	1	-8,45666	273,952786	310,907331	0
15.01.2021	09:04:24	0	5,234942	3,954391	2,99925	16,488	-0,076	87,579	0	1013,06	6,4	8,6	8,4	1	1	1	1	1	1	1	1	1	0	1	-9,725159	273,887734	309,335596	0
15.01.2021	09:04:25	0	5,234942	3,276495	3,01125	16,4736	-0,074	87,586	0	1013,04	6,4	8,6	8,4	1	1	1	1	1	1	1	1	1	0	1	-10,852713	273,777352	307,694005	0
15.01.2021	09:04:26	0	4,99699	4,858252	3,0405	18,4536	-0,079	87,578	0	1013	6,4	8,6	8,4	1	1	1	1	1	1	1	1	1	0	1	-5,567301	273,883306	313,472823	0
15.01.2021	09:04:27	0	5,115966	3,954367	3,01125	19,5228	-0,076	87,584	0	1013,16	6,4	8,6	8,5	1	1	1	1	1	1	1	1	1	0	1	-3,24172	273,802317	315,421201	0
15.01.2021	09:04:28	0	5,472894	3,163513	3,0225	16,8516	-0,083	87,57	0	1013,12	6,4	8,6	8,4	1	1	1	1	1	1	1	1	1	0	1	-4,157858	273,867081	314,806672	0
15.01.2021	09:04:29	0	5,234942	3,615443	3,1935	7,8696	-0,079	87,585	0	1013,08	6,4	8,6	8,4	1	1	1	1	1	1	1	1	1	0	1	-10,500352	273,951305	308,856733	0
15.01.2021	09:04:30	0	5,472894	4,406321	3,49425	10,062	-0,079	87,58	0	1013,14	6,4	8,6	8,4	1	1	1	1	1	1	1	1	1	0	1	-5,919662	273,828785	312,866496	0
15.01.2021	09:04:31	0	5,115966	3,163513	3,75075	4,086	-0,087	87,588	0	1013,12	6,4	8,6	8,4	1	1	1	1	1	1	1	1	1	0	1	-6,272023	273,95723	313,112689	0
15.01.2021	09:04:32	0	5,59187	4,971234	3,98775	5,2164	-0,082	87,579	0	1013,18	6,4	8,6	8,4	1	1	1	1	1	1	1	1	1	0	1	-11,205074	273,903976	307,931373	0
15.01.2021	09:04:33	0	4,99699	4,293339	3,93075	356,688	-0,078	87,589	0	1013,08	6,4	8,6	8,4	1	1	1	1	1	1	1	1	1	0	1	-3,875969	273,945383	315,453501	0
15.01.2021	09:04:34	0	5,472894	3,389478	3,91125	5,2236	-0,078	87,601	0	1013,14	6,4	8,6	8,4	1	1	1	1	1	1	1	1	1	0	1	-9,020437	273,834672	309,793135	0
15.01.2021	09:04:35	0	5,115966	4,067374	3,65325	13,9068	-0,079	87,587	0	1013,18	6,4	8,6	8,4	1	1	1	1	1	1	1	1	1	0	1	-8,738548	273,814076	309,979119	0
15.01.2021	09:04:36	0	5,234942	3,728426	3,41925	32,13	-0,083	87,577	0	1013,06	6,4	8,6	8,4	1	1	1	1	1	1	1	1	1	0	1	-4,862579	273,77882	313,69097	0
15.01.2021	09:04:37	0	5,472894	4,745269	3,28725	27,9648	-0,08	87,594	0	1013	6,4	8,6	8,4	1	1	1	1	1	1	1	1	1	0	1	-5,567301	273,887734	313,493454	0
15.01.2021	09:04:38	0	5,234942	3,841408	3,09225	14,652	-0,082	87,58	0	1013,2	6,4	8,6	8,4	1	1	1	1	1	1	1	1	1	0	1	-3,24172	273,955749	316,136084	0
15.01.2021	09:04:39	0	5,234942	2,937548	2,988	16,0956	-0,082	87,594	0	1013,12	6,4	8,6	8,4	1	1	1	1	1	1	1	1	1	0	1	-2,748414	273,902499	316,381149	0
15.01.2021	09:04:40	0	5,353918	2,937548	2,9355	16,9452	-0,084	87,578	0	1013,08	6,4	8,6	8,4	1	1	1	1	1	1	1	1	1	0	1	-4,157858	273,963156	315,25449	0
15.01.2021	09:04:41	0	5,353918	4,406321	2,946	23,958	-0,088	87,569	0	1013,1	6,4	8,6	8,4	1	1	1	1	1	1	1	1	1	0	1	-7,329105	273,884782	311,717895	0
15.01.2021	09:04:42	0	4,99699	3,276495	2,78925	15,7824	-0,082	87,582	0	1013,2	6,4	8,6	8,4	1	1	1	1	1	1	1	1	1	0	1	-6,131078	273,781755	312,436133	0
15.01.2021	09:04:43	0	5,353918	3,389478	2,83575	18,828	-0,081	87,591	0	1013,08	6,4	8,6	8,4	1	1	1	1	1	1	1	1	1	0	1	-3,523608	273,918754	315,681718	0
15.01.2021	09:04:44	0	5,353918	4,406321	2,7645	16,488	-0,079	87,601	0	1013,14	6,4	8,6	8,4	1	1	1	1	1	1	1	1	1	0	1	-3,523608	273,952786	315,840383	0
15.01.2021	09:04:45	0	5,234942	3,841408	2,9295	351,072	-0,079	87,601	0	1013,1	6,4	8,6	8,4	1	1	1	1	1	1	1	1	1	0	1	-4,580691	273,918754	314,624636	0
15.01.2021	09:04:46	0	5,115966	2,711582	3,17475	348,696	-0,084	87,6	0	1013,02	6,4	8,6	8,4	1	1	1	1	1	1	1	1	1	0	1	-7,540521	273,781755	311,02669	0
15.01.2021	09:04:47	0	5,353918	3,502461	3,2325	17,6904	-0,079	87,605	0	1013,02	6,4	8,6	8,4	1	1	1	1	1	1	1	1	1	0	1	-4,087385	273,88921	314,980247	0
15.01.2021	09:04:48	0	4,99699	4,632287	3,06375	19,152	-0,082	87,587	0	1013,04	6,4	8,6	8,4	1	1	1	1	1	1	1	1	1	0	1	-0,98661	273,780288	317,57377	0
15.01.2021	09:04:49	0	4,878014	3,389478	2,92875	22,4532	-0,08	87,601	0	1013,04	6,4	8,6	8,4	1	1	1	1	1	1	1	1	1	0	1	-6,342495	273,821429	312,40941	0
15.01.2021	09:04:50	0	5,115966	4,293339	3,00825	33,948	-0,082	87,596	0	1013,08	6,4	8,6	8,4	1	1	1	1	1	1	1	1	1	0	1	-5,778717	273,95723	313,605994	0
15.01.2021	09:04:51	0	5,115966	3,389478	2,9595	32,5188	-0,084	87,592	0	1013,14	6,4	8,6	8,4	1	1	1	1	1	1	1	1	1	0	1	-4,510218	273,901022	314,612461	0
15.01.2021	09:04:52	0	4,99699	2,824565	3,4005	7,146	-0,081	87,603	0	1013,12	6,4	8,6	8,4	1	1	1	1	1	1	1	1	1	0	1	-5,567301	273,777352	312,979418	0
15.01.2021	09:04:53	0	5,59187	3,389478	3,72	18,8172	-0,081	87,587	0	1012,96	6,4	8,6	8,4	1	1	1	1	1	1	1	1	1	0	1	-6,765328	273,8332	312,04139	0
15.01.2021	09:04:54	0	5,115966	3,841408	3,468	33,2568	-0,083	87,628	0	1013,04	6,4	8,6	8,4	1	1	1	1	1	1	1	1	1	0	1	-4,721635	273,936503	314,566431	0
15.01.2021	09:04:55	0	5,234942	2,824565	3,50325	26,1648	-0,08	87,607	0	1013,08	6,4	8,6	8,4	1	1	1	1	1	1	1	1	1	0	1	-10,147992	273,91432	309,036664	0
15.01.2021	09:04:56	0	5,115966	3,163513	3,4035	10,0584	-0,084	87,613	0	1013,06	6,4	8,6	8,4	1	1	1	1	1	1	1	1	1	0	1	-9,231853	273,935023	310,049314	0
15.01.2021	09:04:57	0	5,115966	2,5986	3,4155	22,068	-0,081	87,623	0	1013,14	6,4	8,6	8,4	1	1	1	1	1	1	1	1	1	0	1	-5,637773	273,784691	312,943104	0
15.01.2021	09:04:58	0	5,234942	4,067349	3,4215	21,7692	-0,079	87,636	0	1013,18	6,4	8,6	8,5	1	1	1	1	1	1	1	1	1	0	1	-6,412967	273,898068	312,695947	0
15.01.2021	09:04:59	0	5,234942	3,841408	3,2595	31,7592	-0,086	87,611	0	1013,08	6,4	8,6	8,4	1	1	1	1	1	1	1	1	1	0	1	-6,272023	273,958711	313,119597	0
15.01.2021	09:05:00	0	5,353918	3,05053	3,003	21,384	-0,08	87,626	0	1013,16	6,4	8,6	8,4	1	1	1	1	1	1	1	1	1	0	1	-7,681466	273,787628	310,913079	0
15.01.2021	09:05:01	0	5,353918	3,05053	3,003	21,384	-0,08	87,626	0	1013,16	6,4	8,6	8,4	1	1	1	1	1	1	1	1	1	0	1	-7,681466	273,787628	310,913079	0
15.01.2021	09:05:02	0	5,59187	2,824565	2,925	21,366	-0,084	87,629	0	1013,06	6,4	8,6	8,4	1	1	1	1	1	1	1	1	1	0	1	-3,875969	273,864132	315,074825	0
15.01.2021	09:05:03	0	5,472894	4,519304	2,78775	21,384	-0,082	87,618	0	1012,96	6,4	8,6	8,4	1	1	1	1	1	1	1	1	1	0	1	-6,553911	273,803786	312,115851	0
15.01.2021	09:05:04	0	5,353918	3,05053	2,64	22,446	-0,083	87,631	0	1013,14	6,4	8,6	8,4	1	1	1	1	1	1	1	1	1	0	1	-5,496829	273,827313	313,282477	0
15.01.2021	09:05:05	0	4,99699	3,954391	2,76375	13,9104	-0,083	87,615	0	1013,1	6,4	8,6	8,4	1	1	1	1	1	1	1	1	1	0	1	-8,80902	273,970566	310,637887	0
15.01.2021	09:05:06	0	5,353918	2,937548	3,00675	15,0948	-0,079	87,638	0	1013,16	6,4	8,6	8,4	1	1	1	1	1	1	1	1	1	0	1	-5,073996	273,818487	313,664212	0
15.01.2021	09:05:07	0	5,234942	3,276495	3,3405	25,4088	-0,08	87,617	0	1012,96	6,4	8,6	8,4	1	1	1	1	1	1	1	1	1	0	1	-7,751938	273,975014	311,715713	0
15.01.2021	09:05:08	0	5,710846	4,406321	3,3555	15,0264	-0,082	87,629	0	1013,08	6,4	8,6	8,4	1	1	1	1	1	1	1	1	1	0	1	-11,205074	273,939462	308,09679	0
15.01.2021	09:05:09	0	5,353918	3,05053	3,57525	16,8444	-0,087	87,634	0	1013,12	6,4	8,6	8,4	1	1	1	1	1	1	1	1	1	0	1	-4,22833	273,896591	314,873702	0
15.01.2021	09:05:10	0	5,472894	4,971234	3,717	2,2932	-0,082	87,634	0	1013,02	6,4	8,6	8,4	1	1	1	1	1	1	1	1	1	0	1	-8,245243	273,918754	310,960083	0
15.01.2021	09:05:11	0	5,948798	4,067374	3,60975	6,8184	-0,08	87,626	0	1013,26	6,4	8,6	8,4	1	1	1	1	1	1	1	1	1	0	1	-3,59408	273,887734	315,466674	0
15.01.2021	09:05:12	0	5,115966	3,05053	3,63075	9	-0,084	87,631	0	1013,08	6,4	8,6	8,4	1	1	1	1	1	1	1	1	1	0	1	-3,523608	273,78616	315,064102	0
15.01.2021	09:05:13	0	5,115966	3,728426	3,525	16,1028	-0,086	87,631	0	1013,08	6,4	8,6	8,4	1	1	1	1	1	1	1	1	1	0	1	-6,906272	273,868555	312,065127	0
15.01.2021	09:05:14	0	5,115966	2,937548	3,33075	11,7108	-0,081	87,646	0	1013,1	6,4	8,6	8,4	1	1	1	1	1	1	1	1	1	0	1	-3,59408	273,949825	315,7561	0
15.01.2021	09:05:15	0	5,710846	4,293313	3,1275	357,5916	-0,08	87,643	0	1013,18	6,4	8,6	8,5	1	1	1	1	1	1	1	1	1	0	1	-8,80902	273,898068	310,299893	0
15.01.2021	09:05:16	0	5,472894	3,502461	3,1155	5,22	-0,078	87,641	0	1013,2	6,4	8,6	8,4	1	1	1	1	1	1	1	1	1	0	1	-10,007047	273,948344	309,336229	0
15.01.2021	09:05:17	0	5,472894	5,084217	3,01125	17,6904	-0,082	87,617	0	1012,92	6,4	8,6	8,4	1	1	1	1	1	1	1	1	1	0	1	-8,033827	273,821429	310,718078	0
15.01.2021	09:05:18	0	5,472932	3,389478	2,9565	27,9432	-0,086	87,617	0	1013,04	6,4	8,5	8,4	1	1	1	1	1	1	1	1	1	0	1	-7,681466	273,799378	310,967775	0
15.01.2021	09:05:19	0	5,472894	4,519304	3,01125	21,3696	-0,082	87,635	0	1013,08	6,4	8,6	8,4	1	1	1	1	1	1	1	1	1	0	1	-7,963354	273,943903	311,359213	0
15.01.2021	09:05:20	0	5,710846	4,745269	2,90175	26,1648	-0,083	87,641	0	1013,2	6,4	8,6	8,4	1	1	1	1	1	1	1	1	1	0	1	-3,030303	273,79644	315,60526	0
15.01.2021	09:05:21	0	5,472894	2,937548	2,82825	28,332	-0,085	87,622	0	1013,1	6,4	8,6	8,4	1	1	1	1	1	1	1	1	1	0	1	-6,20155	273,946863	313,134822	0
15.01.2021	09:05:22	0	5,710846	4,519277	2,84325	22,4676	-0,076	87,626	0	1013,02	6,4	8,6	8,5	1	1	1	1	1	1	1	1	1	0	1	-5,144468	273,881831	313,888781	0
15.01.2021	09:05:23	0	5,59187	2,824565	2,7135	23,2128	-0,086	87,61	0	1013,12	6,4	8,6	8,4	1	1	1	1	1	1	1	1	1	0	1	-10,782241	273,943903	308,540326	0
15.01.2021	09:05:24	0	5,234942	4,745269	2,69475	20,286	-0,085	87,627	0	1013,02	6,4	8,6	8,4	1	1	1	1	1	1	1	1	1	0	1	-7,540521	273,883306	311,499603	0
15.01.2021	09:05:25	0	5,59187	3,05053	2,6925	16,0992	-0,08	87,631	0	1013,18	6,4	8,6	8,4	1	1	1	1	1	1	1	1	1	0	1	-4,369274	273,802317	314,293647	0
15.01.2021	09:05:26	0	5,59187	5,084217	2,85975	18,4428	-0,081	87,644	0	1013,16	6,4	8,6	8,4	1	1	1	1	1	1	1	1	1	0	1	-5,567301	273,935023	313,713866	0
15.01.2021	09:05:27	0	5,59187	4,745269	2,9415	18,4536	-0,079	87,615	0	1012,96	6,4	8,6	8,4	1	1	1	1	1	1	1	1	1	0	1	-9,584214	273,828785	309,201944	0
15.01.2021	09:05:28	0	5,59187	4,067374	2,91525	15,03	-0,078	87,632	0	1013,04	6,4	8,6	8,4	1	1	1	1	1	1	1	1	1	0	1	-2,60747	273,967602	316,825612	0
15.01.2021	09:05:29	0	5,353918	4,067349	2,8815	19,9008	-0,079	87,625	0	1013,06	6,4	8,6	8,5	1	1	1	1	1	1	1	1	1	0	1	-4,933051	273,92319	314,292951	0
15.01.2021	09:05:30	0	5,710846	4,406321	2,874	19,1304	-0,078	87,634	0	1013,04	6,4	8,6	8,4	1	1	1	1	1	1	1	1	1	0	1	-4,862579	273,802317	313,800342	0
15.01.2021	09:05:31	0	5,472894	2,711582	2,90175	15,4044	-0,079	87,632	0	1013,16	6,4	8,6	8,4	1	1	1	1	1	1	1	1	1	0	1	-7,188161	273,903976	311,948287	0
15.01.2021	09:05:32	0	5,472894	4,632287	2,916	15,0408	-0,08	87,65	0	1013,12	6,4	8,6	8,4	1	1	1	1	1	1	1	1	1	0	1	-3,875969	273,792033	314,739082	0
15.01.2021	09:05:33	0	5,353918	2,485617	2,889	18,8316	-0,079	87,634	0	1013,04	6,4	8,6	8,4	1	1	1	1	1	1	1	1	1	0	1	-7,470049	273,825842	311,302405	0
15.01.2021	09:05:34	0	5,59187	4,632287	2,92125	13,9068	-0,087	87,634	0	1013,04	6,4	8,6	8,4	1	1	1	1	1	1	1	1	1	0	1	-3,453136	273,918754	315,75219	0
15.01.2021	09:05:35	0	5,472894	3,05053	2,88	16,83	-0,088	87,635	0	1013,1	6,4	8,6	8,4	1	1	1	1	1	1	1	1	1	0	1	-9,372798	273,790565	309,235417	0
15.01.2021	09:05:36	0	5,353918	3,841408	2,8035	16,0848	-0,083	87,613	0	1013,02	6,4	8,6	8,4	1	1	1	1	1	1	1	1	1	0	1	-6,060606	273,893638	313,027664	0
15.01.2021	09:05:37	0	5,59187	2,711582	2,85	12,0996	-0,079	87,642	0	1013,16	6,4	8,6	8,4	1	1	1	1	1	1	1	1	1	0	1	-6,412967	273,792033	312,202084	0
15.01.2021	09:05:38	0	5,829822	4,067374	2,9175	12,456	-0,082	87,625	0	1013,04	6,4	8,6	8,4	1	1	1	1	1	1	1	1	1	0	1	-6,342495	273,825842	312,42996	0
15.01.2021	09:05:39	0	5,710846	4,406321	3,02625	8,2656	-0,078	87,639	0	1013,18	6,4	8,6	8,4	1	1	1	1	1	1	1	1	1	0	1	-7,470049	273,794971	311,158675	0
15.01.2021	09:05:40	0	5,59187	2,937548	3,0525	1,5408	-0,077	87,656	0	1013,16	6,4	8,6	8,4	1	1	1	1	1	1	1	1	1	0	1	-5,567301	273,774418	312,965759	0
15.01.2021	09:05:41	0	5,59187	4,406321	2,92125	353,5344	-0,083	87,646	0	1013,22	6,4	8,6	8,4	1	1	1	1	1	1	1	1	1	0	1	-8,174771	273,948344	311,168505	0
15.01.2021	09:05:42	0	5,472894	2,824565	2,7885	348,948	-0,082	87,65	0	1013,1	6,4	8,6	8,4	1	1	1	1	1	1	1	1	1	0	1	-5,637773	273,884782	313,409227	0
15.01.2021	09:05:43	0	5,948798	2,937548	2,69925	352,2456	-0,086	87,641	0	1012,88	6,4	8,6	8,4	1	1	1	1	1	1	1	1	1	0	1	-1,62086	273,808195	317,069429	0
15.01.2021	09:05:44	0	5,472894	4,519304	2,508	4,0752	-0,083	87,651	0	1013,12	6,4	8,6	8,4	1	1	1	1	1	1	1	1	1	0	1	-6,553911	273,901022	312,568768	0
15.01.2021	09:05:45	0	5,353918	2,824565	2,45925	8,604	-0,09	87,65	0	1013,04	6,4	8,6	8,4	1	1	1	1	1	1	1	1	1	0	1	-8,597604	273,794971	310,031121	0
15.01.2021	09:05:46	0	5,710846	2,824565	2,436	16,4772	-0,087	87,646	0	1013,18	6,4	8,6	8,4	1	1	1	1	1	1	1	1	1	0	1	-8,949965	273,895115	310,145186	0
15.01.2021	09:05:47	0	5,710846	4,632287	2,523	7,5096	-0,083	87,665	0	1013,12	6,4	8,6	8,4	1	1	1	1	1	1	1	1	1	0	1	-4,721635	273,793502	313,900253	0
15.01.2021	09:05:48	0	6,067774	4,180356	2,60175	19,89	-0,079	87,659	0	1013,14	6,4	8,6	8,4	1	1	1	1	1	1	1	1	1	0	1	-9,090909	273,872979	309,901101	0
15.01.2021	09:05:49	0	5,472894	4,406295	2,475	15,4008	-0,084	87,643	0	1013,24	6,4	8,6	8,5	1	1	1	1	1	1	1	1	1	0	1	-5,073996	273,960193	314,324532	0
15.01.2021	09:05:50	0	5,948798	3,276495	2,3985	2,7468	-0,079	87,657	0	1013	6,4	8,6	8,4	1	1	1	1	1	1	1	1	1	0	1	-3,453136	273,828785	315,333022	0
15.01.2021	09:05:51	0	5,829822	3,841408	2,4165	19,1484	-0,08	87,666	0	1013,18	6,4	8,6	8,4	1	1	1	1	1	1	1	1	1	0	1	-7,82241	273,920233	311,389808	0
15.01.2021	09:05:52	0	5,710846	3,728426	2,50125	28,7172	-0,085	87,669	0	1013,18	6,4	8,6	8,4	1	1	1	1	1	1	1	1	1	0	1	-9,513742	273,964638	309,905516	0
15.01.2021	09:05:53	0	6,18675	4,971234	2,463	19,134	-0,083	87,647	0	1013,12	6,4	8,6	8,4	1	1	1	1	1	1	1	1	1	0	1	-10,500352	273,868555	308,471047	0
15.01.2021	09:05:54	0	5,710846	3,841408	2,40375	9,3636	-0,079	87,666	0	1013,14	6,4	8,6	8,4	1	1	1	1	1	1	1	1	1	0	1	-3,664553	273,78616	314,923158	0
15.01.2021	09:05:55	0	5,948798	4,632287	2,331	19,8972	-0,082	87,678	0	1013,08	6,4	8,6	8,4	1	1	1	1	1	1	1	1	1	0	1	-9,725159	273,849396	309,156992	0
15.01.2021	09:05:56	0	5,829822	4,293339	2,33175	10,4436	-0,082	87,673	0	1013,18	6,4	8,6	8,4	1	1	1	1	1	1	1	1	1	0	1	-8,597604	273,811135	310,106373	0
15.01.2021	09:05:57	0	6,18675	3,954367	2,45025	21,7692	-0,087	87,67	0	1013,06	6,4	8,6	8,5	1	1	1	1	1	1	1	1	1	0	1	-7,399577	273,817017	311,331783	0
15.01.2021	09:05:58	0	5,710846	3,276495	2,3775	19,9044	-0,09	87,667	0	1013,12	6,4	8,6	8,4	1	1	1	1	1	1	1	1	1	0	1	-6,8358	273,834672	311,977772	0
15.01.2021	09:05:59	0	6,18675	3,05053	2,42775	18,8244	-0,08	87,658	0	1013,16	6,4	8,6	8,4	1	1	1	1	1	1	1	1	1	0	1	-6,060606	273,91432	313,12405	0
15.01.2021	09:06:00	0	5,948798	3,728426	2,2815	16,4952	-0,092	87,662	0	1013,02	6,4	8,6	8,4	1	1	1	1	1	1	1	1	1	0	1	-5,778717	273,783223	312,795327	0
15.01.2021	09:06:01	0	5,948798	3,728426	2,2815	16,4952	-0,092	87,662	0	1013,02	6,4	8,6	8,4	1	1	1	1	1	1	1	1	1	0	1	-5,567301	273,921711	313,651809	0
15.01.2021	09:06:02	0	5,948798	3,502461	2,1855	22,9212	-0,083	87,662	0	1013,14	6,4	8,6	8,4	1	1	1	1	1	1	1	1	1	0	1	-6,765328	273,909886	312,398664	0
15.01.2021	09:06:03	0	5,948798	3,05053	2,0745	18,4428	-0,08	87,676	0	1013,1	6,4	8,6	8,4	1	1	1	1	1	1	1	1	1	0	1	-7,892882	273,792033	310,722168	0
15.01.2021	09:06:04	0	5,948798	3,841408	1,94625	18,09	-0,083	87,66	0	1013,16	6,4	8,6	8,4	1	1	1	1	1	1	1	1	1	0	1	-12,262156	273,918754	306,94317	0
15.01.2021	09:06:05	0	5,948798	4,293339	1,9365	16,4844	-0,076	87,674	0	1012,98	6,4	8,6	8,4	1	1	1	1	1	1	1	1	1	0	1	-5,990134	273,960193	313,408394	0
15.01.2021	09:06:06	0	6,305725	2,824565	2,03025	23,5728	-0,082	87,663	0	1013,1	6,4	8,6	8,4	1	1	1	1	1	1	1	1	1	0	1	-9,725159	273,818487	309,013049	0
15.01.2021	09:06:07	0	5,59187	3,502461	2,16975	19,9008	-0,08	87,669	0	1013,02	6,4	8,6	8,4	1	1	1	1	1	1	1	1	1	0	1	-8,245243	273,815546	310,479271	0
15.01.2021	09:06:08	0	5,710846	2,146669	2,23725	7,5096	-0,085	87,667	0	1013,1	6,4	8,6	8,4	1	1	1	1	1	1	1	1	1	0	1	-5,990134	273,948344	313,353142	0
15.01.2021	09:06:09	0	5,829822	2,937548	2,27625	12,9492	-0,078	87,679	0	1013,22	6,4	8,6	8,4	1	1	1	1	1	1	1	1	1	0	1	-12,896406	273,865607	306,061255	0
15.01.2021	09:06:10	0	5,948798	3,163513	2,43	3,3984	-0,082	87,668	0	1013,04	6,4	8,6	8,4	1	1	1	1	1	1	1	1	1	0	1	-12,332629	273,951305	307,024457	0
15.01.2021	09:06:11	0	6,067774	2,937548	2,49	18,0792	-0,078	87,689	0	1013,22	6,4	8,6	8,4	1	1	1	1	1	1	1	1	1	0	1	-7,540521	273,905453	311,602811	0
15.01.2021	09:06:12	0	5,829822	4,067374	2,51025	7,1244	-0,081	87,673	0	1013,14	6,4	8,6	8,4	1	1	1	1	1	1	1	1	1	0	1	-6,553911	273,96612	312,872258	0
15.01.2021	09:06:13	0	5,948798	4,293339	2,48025	14,6556	-0,08	87,681	0	1013,18	6,4	8,6	8,4	1	1	1	1	1	1	1	1	1	0	1	-10,641297	273,880355	308,385078	0
15.01.2021	09:06:14	0	5,829822	2,711582	2,39325	6,426	-0,079	87,674	0	1013,08	6,4	8,6	8,4	1	1	1	1	1	1	1	1	1	0	1	-9,936575	273,940942	309,37219	0
15.01.2021	09:06:15	0	5,829822	4,067374	2,27475	360	-0,092	87,676	0	1013,04	6,4	8,6	8,4	1	1	1	1	1	1	1	1	1	0	1	-5,285412	274,110413	314,814232	0
15.01.2021	09:06:16	0	5,948798	2,937548	2,2635	9,7524	-0,089	87,668	0	1013,02	6,4	8,6	8,4	1	1	1	1	1	1	1	1	1	0	1	-10,147992	273,983912	309,361164	0
15.01.2021	09:06:17	0	5,948798	4,180356	2,289	3,402	-0,08	87,69	0	1012,98	6,4	8,6	8,4	1	1	1	1	1	1	1	1	1	0	1	-7,681466	273,920233	311,530752	0
15.01.2021	09:06:18	0	5,948798	4,180356	2,2065	5,2056	-0,089	87,681	0	1013,04	6,4	8,6	8,4	1	1	1	1	1	1	1	1	1	0	1	-3,100775	273,961674	316,304662	0
15.01.2021	09:06:19	0	6,18675	4,067374	2,21625	3,0312	-0,086	87,677	0	1013,06	6,4	8,6	8,4	1	1	1	1	1	1	1	1	1	0	1	-6,483439	273,917276	312,714996	0
15.01.2021	09:06:20	0	6,067774	3,954391	2,24775	11,7252	-0,08	87,692	0	1013,18	6,4	8,6	8,4	1	1	1	1	1	1	1	1	1	0	1	-6,553911	273,808195	312,136378	0
15.01.2021	09:06:21	0	6,305725	3,163513	2,56575	9,3672	-0,081	87,681	0	1013,16	6,4	8,6	8,4	1	1	1	1	1	1	1	1	1	0	1	-8,386187	273,843505	310,468524	0
15.01.2021	09:06:22	0	5,829822	2,824565	2,96025	7,128	-0,079	87,678	0	1013,16	6,4	8,6	8,4	1	1	1	1	1	1	1	1	1	0	1	-7,470049	273,792033	311,145001	0
15.01.2021	09:06:23	0	6,067774	4,745269	3,13875	4,4604	-0,082	87,689	0	1013,06	6,4	8,6	8,4	1	1	1	1	1	1	1	1	1	0	1	-10,288936	273,899545	308,82686	0
15.01.2021	09:06:24	0	6,18675	2,937548	3,1575	4,0824	-0,082	87,698	0	1013,14	6,4	8,6	8,4	1	1	1	1	1	1	1	1	1	0	1	-5,144468	273,958711	314,247152	0
15.01.2021	09:06:25	0	6,662653	3,841408	2,98275	7,8732	-0,085	87,678	0	1013,1	6,4	8,6	8,4	1	1	1	1	1	1	1	1	1	0	1	-5,21494	273,858237	313,708389	0
15.01.2021	09:06:26	0	6,305725	2,824565	2,81775	11,2068	-0,076	87,698	0	1013,2	6,4	8,6	8,4	1	1	1	1	1	1	1	1	1	0	1	-6,8358	273,948344	312,507476	0
15.01.2021	09:06:27	0	6,543677	4,858252	2,96325	7,5096	-0,085	87,694	0	1013,16	6,4	8,6	8,4	1	1	1	1	1	1	1	1	1	0	1	-7,188161	273,920233	312,024057	0
15.01.2021	09:06:28	0	6,305725	4,293339	2,80875	26,5104	-0,087	87,685	0	1013,02	6,4	8,6	8,4	1	1	1	1	1	1	1	1	1	0	1	-9,513742	273,96612	309,912428	0
15.01.2021	09:06:29	0	6,305725	3,954391	2,6025	8,9856	-0,08	87,688	0	1013,1	6,4	8,6	8,4	1	1	1	1	1	1	1	1	1	0	1	-8,879493	273,939462	310,422372	0
15.01.2021	09:06:30	0	6,067774	4,180356	2,643	11,7036	-0,082	87,677	0	1013,14	6,4	8,6	8,4	1	1	1	1	1	1	1	1	1	0	1	-4,369274	273,84056	314,471722	0
15.01.2021	09:06:31	0	5,948798	2,485617	2,63175	5,22	-0,078	87,698	0	1013,22	6,4	8,6	8,4	1	1	1	1	1	1	1	1	1	0	1	-9,513742	273,78616	309,073968	0
15.01.2021	09:06:32	0	6,305725	4,745269	2,58825	6,4512	-0,082	87,701	0	1013,2	6,4	8,6	8,4	1	1	1	1	1	1	1	1	1	0	1	-6,765328	273,880355	312,261046	0
15.01.2021	09:06:33	0	6,067774	4,632287	2,4975	23,5836	-0,081	87,708	0	1013,18	6,4	8,6	8,4	1	1	1	1	1	1	1	1	1	0	1	-7,188161	273,954267	312,182736	0
15.01.2021	09:06:34	0	6,781629	4,745269	2,34975	29,9448	-0,08	87,694	0	1013,18	6,4	8,6	8,4	1	1	1	1	1	1	1	1	1	0	1	-12,05074	273,899545	307,065056	0
15.01.2021	09:06:35	0	5,948798	3,05053	2,21625	2,2968	-0,082	87,682	0	1013,32	6,4	8,6	8,4	1	1	1	1	1	1	1	1	1	0	1	-9,44327	273,787628	309,151275	0
15.01.2021	09:06:36	0	6,543677	4,067374	2,1675	17,694	-0,085	87,69	0	1013,08	6,4	8,6	8,4	1	1	1	1	1	1	1	1	1	0	1	-6,765328	273,868555	312,206071	0
15.01.2021	09:06:37	0	6,18675	2,033687	2,1195	9,7488	-0,077	87,698	0	1013,26	6,4	8,6	8,4	1	1	1	1	1	1	1	1	1	0	1	-9,936575	273,805256	308,740029	0
15.01.2021	09:06:38	0	6,424701	3,389478	2,08575	10,44	-0,081	87,686	0	1013,2	6,4	8,6	8,4	1	1	1	1	1	1	1	1	1	0	1	-14,799154	273,917276	304,399281	0
15.01.2021	09:06:39	0	6,781629	5,536147	2,0205	19,5336	-0,077	87,704	0	1013,14	6,4	8,6	8,4	1	1	1	1	1	1	1	1	1	0	1	-7,047216	273,887734	312,013538	0
15.01.2021	09:06:40	0	6,18675	4,971234	1,96125	18,4464	-0,078	87,705	0	1013,16	6,4	8,6	8,4	1	1	1	1	1	1	1	1	1	0	1	-3,946441	273,977979	315,535042	0
15.01.2021	09:06:41	0	6,18675	4,519304	2,05275	15,3936	-0,085	87,698	0	1013,14	6,4	8,6	8,4	1	1	1	1	1	1	1	1	1	0	1	-1,057082	273,899545	318,058714	0
15.01.2021	09:06:42	0	6,305725	4,180356	2,064	12,8448	-0,084	87,694	0	1013,18	6,4	8,6	8,4	1	1	1	1	1	1	1	1	1	0	1	-8,80902	273,969084	310,630974	0
15.01.2021	09:06:43	0	6,543677	4,745269	2,0955	16,1892	-0,084	87,693	0	1013,04	6,4	8,6	8,4	1	1	1	1	1	1	1	1	1	0	1	-10,288936	273,874454	308,709946	0
15.01.2021	09:06:44	0	6,067774	3,389478	2,0865	20,6208	-0,077	87,698	0	1013,18	6,4	8,6	8,4	1	1	1	1	1	1	1	1	1	0	1	-5,637773	273,797909	313,004628	0
15.01.2021	09:06:45	0	6,424701	3,276495	2,001	19,53	-0,079	87,698	0	1013,18	6,4	8,6	8,4	1	1	1	1	1	1	1	1	1	0	1	-2,60747	273,95723	316,777241	0
15.01.2021	09:06:46	0	6,424701	3,163513	1,92225	22,8276	-0,077	87,713	0	1013,12	6,4	8,6	8,4	1	1	1	1	1	1	1	1	1	0	1	-7,117689	273,805256	311,558915	0
15.01.2021	09:06:47	0	6,305725	2,937548	1,9665	24,336	-0,081	87,707	0	1013,2	6,4	8,6	8,4	1	1	1	1	1	1	1	1	1	0	1	-5,990134	273,8229	312,76862	0
15.01.2021	09:06:48	0	6,543677	4,519304	1,8705	17,6976	-0,082	87,688	0	1013,18	6,4	8,6	8,4	1	1	1	1	1	1	1	1	1	0	1	-9,090909	273,847923	309,784381	0
15.01.2021	09:06:49	0	6,543677	4,745269	1,92675	27,9504	-0,084	87,701	0	1013,16	6,4	8,6	8,4	1	1	1	1	1	1	1	1	1	0	1	-7,610994	273,935023	311,670173	0
15.01.2021	09:06:50	0	6,662653	4,745269	2,295	26,514	-0,083	87,695	0	1013,22	6,4	8,6	8,4	1	1	1	1	1	1	1	1	1	0	1	-7,047216	273,797909	311,595185	0
15.01.2021	09:06:51	0	6,424701	3,05053	2,493	19,5228	-0,085	87,706	0	1013,06	6,4	8,6	8,4	1	1	1	1	1	1	1	1	1	0	1	-8,386187	273,818487	310,352021	0
15.01.2021	09:06:52	0	6,543677	3,728426	2,71425	5,6664	-0,082	87,718	0	1013,2	6,4	8,6	8,4	1	1	1	1	1	1	1	1	1	0	1	-5,003524	273,917276	314,194912	0
15.01.2021	09:06:53	0	6,424701	4,406321	2,85375	15,0336	-0,082	87,715	0	1013,2	6,4	8,6	8,4	1	1	1	1	1	1	1	1	1	0	1	-8,45666	273,963156	310,955688	0
15.01.2021	09:06:54	0	6,900605	4,180356	3,0705	13,5432	-0,079	87,703	0	1013,14	6,4	8,6	8,4	1	1	1	1	1	1	1	1	1	0	1	-11,06413	273,872979	307,92788	0
15.01.2021	09:06:55	0	6,424701	3,05053	3,42975	15,4008	-0,083	87,716	0	1012,92	6,4	8,6	8,4	1	1	1	1	1	1	1	1	1	0	1	-8,879493	273,948344	310,463784	0
15.01.2021	09:06:56	0	6,543677	4,519304	3,64425	15,7752	-0,08	87,708	0	1013,22	6,4	8,6	8,4	1	1	1	1	1	1	1	1	1	0	1	-9,44327	273,872979	309,54874	0
15.01.2021	09:06:57	0	6,305725	3,05053	3,7125	10,4544	-0,084	87,705	0	1013,16	6,4	8,6	8,4	1	1	1	1	1	1	1	1	1	0	1	-9,231853	273,954267	310,139044	0
15.01.2021	09:06:58	0	6,662653	2,824565	3,61575	20,6244	-0,084	87,701	0	1013,08	6,4	8,6	8,4	1	1	1	1	1	1	1	1	1	0	1	-12,755462	273,839088	306,078677	0
15.01.2021	09:06:59	0	6,662653	4,519304	3,477	33,246	-0,079	87,712	0	1013,1	6,4	8,6	8,4	1	1	1	1	1	1	1	1	1	0	1	-7,963354	273,969084	311,47664	0
15.01.2021	09:07:00	0	6,18675	4,067374	3,147	16,488	-0,077	87,721	0	1013,14	6,4	8,6	8,4	1	1	1	1	1	1	1	1	1	0	1	-4,721635	273,800847	313,934445	0
15.01.2021	09:07:01	0	6,18675	4,067374	3,147	16,488	-0,077	87,721	0	1013,14	6,4	8,6	8,4	1	1	1	1	1	1	1	1	1	0	1	-4,721635	273,800847	313,934445	0
15.01.2021	09:07:02	0	6,305725	3,954391	3,47925	20,9952	-0,08	87,713	0	1013,04	6,4	8,6	8,4	1	1	1	1	1	1	1	1	1	0	1	-6,553911	273,830256	312,239099	0
15.01.2021	09:07:03	0	6,662653	4,632287	3,65025	18,0792	-0,087	87,71	0	1013,18	6,4	8,6	8,4	1	1	1	1	1	1	1	1	1	0	1	-4,087385	273,78616	314,500325	0
15.01.2021	09:07:04	0	6,900605	5,1972	3,828	22,0896	-0,08	87,714	0	1013,26	6,4	8,6	8,4	1	1	1	1	1	1	1	1	1	0	1	-9,020437	273,856763	309,896027	0
15.01.2021	09:07:05	0	6,662653	3,163513	3,81	20,9988	-0,08	87,691	0	1013,08	6,4	8,6	8,4	1	1	1	1	1	1	1	1	1	0	1	-9,936575	273,79644	308,698988	0
15.01.2021	09:07:06	0	6,662653	2,5986	3,6495	11,1996	-0,082	87,718	0	1013,14	6,4	8,6	8,4	1	1	1	1	1	1	1	1	1	0	1	-5,285412	273,849396	313,596739	0
15.01.2021	09:07:07	0	6,543677	3,615443	3,426	16,0884	-0,08	87,719	0	1013,14	6,4	8,6	8,4	1	1	1	1	1	1	1	1	1	0	1	-4,369274	273,793502	314,252613	0
15.01.2021	09:07:08	0	6,662653	4,067374	3,19575	36,9216	-0,086	87,702	0	1012,98	6,4	8,6	8,4	1	1	1	1	1	1	1	1	1	0	1	-12,896406	273,927626	306,350278	0
15.01.2021	09:07:09	0	6,662653	4,180356	3,0375	21,7764	-0,084	87,713	0	1013,04	6,4	8,6	8,4	1	1	1	1	1	1	1	1	1	0	1	-13,178295	273,871505	305,806844	0
15.01.2021	09:07:10	0	6,781629	4,632287	3,324	15,7896	-0,082	87,715	0	1013,02	6,4	8,6	8,4	1	1	1	1	1	1	1	1	1	0	1	-10,077519	273,800847	308,578561	0
15.01.2021	09:07:11	0	6,543677	4,067374	3,36975	22,0788	-0,091	87,703	0	1013,16	6,4	8,6	8,4	1	1	1	1	1	1	1	1	1	0	1	-8,104299	273,899545	311,011497	0
15.01.2021	09:07:12	0	6,662653	2,937548	3,22575	17,2332	-0,08	87,697	0	1013,1	6,4	8,6	8,4	1	1	1	1	1	1	1	1	1	0	1	-10,852713	273,960193	308,545815	0
15.01.2021	09:07:13	0	7,019581	3,05053	3,14325	12,456	-0,085	87,724	0	1013,16	6,4	8,6	8,4	1	1	1	1	1	1	1	1	1	0	1	-10,993658	273,877405	308,018969	0
15.01.2021	09:07:14	0	6,543677	3,615443	3,2325	10,8108	-0,083	87,704	0	1013,16	6,4	8,6	8,4	1	1	1	1	1	1	1	1	1	0	1	-12,403101	273,952786	306,96089	0
15.01.2021	09:07:15	0	7,019581	3,163513	3,15675	25,7688	-0,083	87,721	0	1013,18	6,4	8,6	8,4	1	1	1	1	1	1	1	1	1	0	1	-7,610994	273,852343	311,284881	0
15.01.2021	09:07:16	0	6,662653	2,824565	3,12075	19,5336	-0,081	87,703	0	1012,94	6,4	8,6	8,4	1	1	1	1	1	1	1	1	1	0	1	-7,610994	273,969084	311,829001	0
15.01.2021	09:07:17	0	6,781629	2,824565	3,1965	7,866	-0,081	87,722	0	1013,12	6,4	8,6	8,4	1	1	1	1	1	1	1	1	1	0	1	-2,396054	273,830256	316,396957	0
15.01.2021	09:07:18	0	6,781629	3,728426	3,3135	13,9068	-0,089	87,702	0	1013,1	6,4	8,6	8,4	1	1	1	1	1	1	1	1	1	0	1	-6,8358	273,825842	311,936655	0
15.01.2021	09:07:19	0	6,424701	2,937548	3,354	10,0548	-0,081	87,723	0	1013,24	6,4	8,6	8,4	1	1	1	1	1	1	1	1	1	0	1	-4,087385	273,794971	314,541339	0
15.01.2021	09:07:20	0	6,900605	5,084217	3,51375	2,628	-0,081	87,72	0	1013,12	6,4	8,6	8,4	1	1	1	1	1	1	1	1	1	0	1	-8,45666	273,881831	310,576589	0
15.01.2021	09:07:21	0	6,662653	2,711582	3,4275	8,2548	-0,087	87,709	0	1013,04	6,4	8,6	8,4	1	1	1	1	1	1	1	1	1	0	1	-9,584214	273,793502	309,037673	0
15.01.2021	09:07:22	0	6,662653	2,711582	3,31275	6,4368	-0,08	87,709	0	1013,18	6,4	8,6	8,4	1	1	1	1	1	1	1	1	1	0	1	-4,22833	273,784691	314,352547	0
15.01.2021	09:07:23	0	6,781629	3,389478	3,23025	7,5132	-0,08	87,722	0	1013,1	6,4	8,6	8,4	1	1	1	1	1	1	1	1	1	0	1	-10,923185	273,809665	307,773947	0
15.01.2021	09:07:24	0	6,900605	4,858252	3,25425	17,244	-0,082	87,698	0	1013,02	6,4	8,6	8,4	1	1	1	1	1	1	1	1	1	0	1	-9,795631	273,88921	309,272002	0
15.01.2021	09:07:25	0	6,543677	2,824565	2,99025	13,1544	-0,082	87,718	0	1013,18	6,4	8,6	8,4	1	1	1	1	1	1	1	1	1	0	1	-7,540521	273,945383	311,788948	0
15.01.2021	09:07:26	0	6,781629	2,937548	2,8665	12,8484	-0,085	87,701	0	1013,02	6,4	8,6	8,4	1	1	1	1	1	1	1	1	1	0	1	-8,45666	273,871505	310,528479	0
15.01.2021	09:07:27	0	6,781629	3,615443	2,8455	4,0752	-0,08	87,716	0	1013,06	6,4	8,6	8,4	1	1	1	1	1	1	1	1	1	0	1	-10,077519	273,95723	309,307192	0
15.01.2021	09:07:28	0	6,900605	2,937548	2,571	8,2512	-0,083	87,716	0	1013,38	6,4	8,6	8,4	1	1	1	1	1	1	1	1	1	0	1	-9,584214	273,821429	309,167691	0
15.01.2021	09:07:29	0	6,900605	4,519304	2,4615	27,2736	-0,089	87,707	0	1013	6,4	8,6	8,4	1	1	1	1	1	1	1	1	1	0	1	-6,624383	273,964638	312,794875	0
15.01.2021	09:07:30	0	6,900605	3,163513	2,5965	27,252	-0,083	87,717	0	1013,12	6,4	8,6	8,4	1	1	1	1	1	1	1	1	1	0	1	-7,258633	273,937982	312,036332	0
15.01.2021	09:07:31	0	6,662653	3,615443	2,667	27,6408	-0,083	87,715	0	1013,16	6,4	8,6	8,4	1	1	1	1	1	1	1	1	1	0	1	-9,302326	273,935023	309,978841	0
15.01.2021	09:07:32	0	6,781629	4,293339	2,61675	26,154	-0,084	87,708	0	1013,18	6,4	8,6	8,4	1	1	1	1	1	1	1	1	1	0	1	-11,134602	273,797909	307,5078	0
15.01.2021	09:07:33	0	6,543677	2,824565	2,51925	14,6412	-0,081	87,705	0	1013,18	6,4	8,6	8,4	1	1	1	1	1	1	1	1	1	0	1	-7,892882	273,906931	311,257336	0
15.01.2021	09:07:34	0	6,543677	4,180356	2,475	15,4008	-0,08	87,717	0	1013,14	6,4	8,6	8,4	1	1	1	1	1	1	1	1	1	0	1	-7,610994	273,955749	311,76681	0
15.01.2021	09:07:35	0	6,662653	3,389478	2,5785	18,45	-0,083	87,717	0	1013,08	6,4	8,6	8,4	1	1	1	1	1	1	1	1	1	0	1	-9,936575	273,8229	308,822179	0
15.01.2021	09:07:36	0	6,662653	3,163513	2,51475	25,7868	-0,088	87,721	0	1013,1	6,4	8,6	8,4	1	1	1	1	1	1	1	1	1	0	1	-7,82241	273,806726	310,861036	0
15.01.2021	09:07:37	0	7,019581	3,502461	2,55525	23,5836	-0,083	87,724	0	1013,28	6,4	8,6	8,4	1	1	1	1	1	1	1	1	1	0	1	-5,285412	273,864132	313,665381	0
15.01.2021	09:07:38	0	6,662653	4,293339	2,6655	26,1684	-0,08	87,728	0	1013,26	6,4	8,6	8,4	1	1	1	1	1	1	1	1	1	0	1	-13,319239	273,95723	306,065473	0
15.01.2021	09:07:39	0	6,781629	3,05053	2,8185	28,71	-0,081	87,724	0	1013,16	6,4	8,6	8,4	1	1	1	1	1	1	1	1	1	0	1	-7,399577	273,908408	311,757527	0
15.01.2021	09:07:40	0	6,543677	4,519304	2,7435	22,4568	-0,079	87,732	0	1013,18	6,4	8,6	8,4	1	1	1	1	1	1	1	1	1	0	1	-9,372798	273,969084	310,067197	0
15.01.2021	09:07:41	0	7,019581	4,858252	2,583	24,7068	-0,078	87,721	0	1013,1	6,4	8,6	8,4	1	1	1	1	1	1	1	1	1	0	1	-6,765328	273,902499	312,364235	0
15.01.2021	09:07:42	0	7,019581	4,745269	2,517	19,5264	-0,082	87,729	0	1013,18	6,4	8,6	8,4	1	1	1	1	1	1	1	1	1	0	1	-7,329105	273,958711	312,062515	0
15.01.2021	09:07:43	0	6,900605	4,293339	2,46	19,5264	-0,079	87,717	0	1013,18	6,4	8,6	8,4	1	1	1	1	1	1	1	1	1	0	1	-5,285412	273,967602	314,147669	0
15.01.2021	09:07:44	0	7,019581	2,824565	2,4	29,934	-0,082	87,717	0	1013,16	6,4	8,6	8,4	1	1	1	1	1	1	1	1	1	0	1	-7,399577	273,896591	311,702455	0
15.01.2021	09:07:45	0	6,6627	4,180356	2,47725	16,4808	-0,084	87,731	0	1013,12	6,4	8,5	8,4	1	1	1	1	1	1	1	1	1	0	1	-5,496829	273,803786	313,172933	0
15.01.2021	09:07:46	0	7,138557	4,745269	2,5755	19,8864	-0,09	87,737	0	1013,04	6,4	8,6	8,4	1	1	1	1	1	1	1	1	1	0	1	-5,637773	273,908408	313,519331	0
15.01.2021	09:07:47	0	6,781629	3,615443	2,65725	26,1612	-0,079	87,746	0	1013,22	6,4	8,6	8,4	1	1	1	1	1	1	1	1	1	0	1	-10,711769	273,970566	308,735139	0
15.01.2021	09:07:48	0	7,019581	4,745269	2,56275	13,914	-0,081	87,728	0	1013,18	6,4	8,6	8,4	1	1	1	1	1	1	1	1	1	0	1	-5,355884	273,846451	313,512546	0
15.01.2021	09:07:49	0	6,662653	4,406321	2,56275	23,2128	-0,078	87,727	0	1013,06	6,4	8,6	8,4	1	1	1	1	1	1	1	1	1	0	1	-7,470049	273,958711	311,92157	0
15.01.2021	09:07:50	0	6,900605	3,728426	2,628	10,4436	-0,078	87,727	0	1013,22	6,4	8,6	8,4	1	1	1	1	1	1	1	1	1	0	1	-7,610994	273,927626	311,635691	0
15.01.2021	09:07:51	0	6,900605	3,276495	2,7285	10,548	-0,083	87,735	0	1013,28	6,4	8,6	8,4	1	1	1	1	1	1	1	1	1	0	1	-5,778717	273,824371	312,986887	0
15.01.2021	09:07:52	0	6,900605	4,632287	2,68575	17,6688	-0,082	87,708	0	1013,2	6,4	8,6	8,4	1	1	1	1	1	1	1	1	1	0	1	-4,721635	273,789096	313,879744	0
15.01.2021	09:07:53	0	7,138557	3,615443	2,76525	13,5504	-0,08	87,722	0	1013,2	6,4	8,6	8,4	1	1	1	1	1	1	1	1	1	0	1	-4,510218	273,843505	314,344493	0
15.01.2021	09:07:54	0	6,543677	4,406321	2,83275	18,846	-0,078	87,728	0	1013,16	6,4	8,6	8,4	1	1	1	1	1	1	1	1	1	0	1	-6,976744	273,955749	312,40106	0
15.01.2021	09:07:55	0	6,6627	4,067374	2,93625	7,5024	-0,08	87,732	0	1013,1	6,4	8,5	8,4	1	1	1	1	1	1	1	1	1	0	1	-8,386187	273,839088	310,447951	0
15.01.2021	09:07:56	0	7,019581	4,519277	3,066	11,7216	-0,08	87,729	0	1013,18	6,4	8,6	8,5	1	1	1	1	1	1	1	1	1	0	1	-7,188161	273,856763	311,728304	0
15.01.2021	09:07:57	0	6,900605	2,5986	3,138	25,7796	-0,086	87,741	0	1013,2	6,6	8,6	8,4	1	1	1	1	1	1	1	1	1	0	1	-4,933051	273,800847	313,723029	0
15.01.2021	09:07:58	0	7,019581	2,5986	2,9805	26,514	-0,078	87,749	0	1013,12	6,4	8,6	8,4	1	1	1	1	1	1	1	1	1	0	1	-7,610994	273,837616	311,216289	0
15.01.2021	09:07:59	0	7,495485	4,858252	2,7165	19,8936	-0,082	87,723	0	1013,24	6,4	8,6	8,4	1	1	1	1	1	1	1	1	1	0	1	-8,104299	273,899545	311,011497	0
15.01.2021	09:08:00	0	7,138557	3,615443	2,50425	21,0132	-0,081	87,726	0	1013,2	6,4	8,6	8,4	1	1	1	1	1	1	1	1	1	0	1	-3,946441	273,842033	314,901412	0
15.01.2021	09:08:01	0	7,138557	3,615443	2,50425	21,0132	-0,081	87,726	0	1013,2	6,4	8,6	8,4	1	1	1	1	1	1	1	1	1	0	1	-3,946441	273,842033	314,901412	0
15.01.2021	09:08:02	0	6,662653	3,389478	2,49975	19,53	-0,083	87,725	0	1013,16	6,4	8,6	8,4	1	1	1	1	1	1	1	1	1	0	1	-11,627907	273,850869	307,261105	0
15.01.2021	09:08:03	0	6,900605	5,084217	2,40525	21,8664	-0,081	87,729	0	1013,16	6,4	8,6	8,4	1	1	1	1	1	1	1	1	1	0	1	-7,047216	273,952786	312,316775	0
15.01.2021	09:08:04	0	7,138557	3,728426	2,21775	19,8972	-0,082	87,732	0	1013,16	6,4	8,6	8,4	1	1	1	1	1	1	1	1	1	0	1	-9,725159	273,91432	309,459497	0
15.01.2021	09:08:05	0	7,019581	4,067374	2,14275	11,7036	-0,08	87,742	0	1013,08	6,4	8,6	8,4	1	1	1	1	1	1	1	1	1	0	1	-9,090909	273,951305	310,266176	0
15.01.2021	09:08:06	0	7,019581	3,389478	2,055	18,45	-0,085	87,742	0	1013,12	6,4	8,6	8,4	1	1	1	1	1	1	1	1	1	0	1	-8,80902	273,792033	309,80603	0
15.01.2021	09:08:07	0	7,138557	5,084217	2,03025	19,5228	-0,086	87,749	0	1013,14	6,4	8,6	8,4	1	1	1	1	1	1	1	1	1	0	1	-8,668076	273,901022	310,454603	0
15.01.2021	09:08:08	0	6,900605	4,745269	2,2035	7,5168	-0,081	87,748	0	1013,16	6,4	8,6	8,4	1	1	1	1	1	1	1	1	1	0	1	-5,637773	273,952786	313,726218	0
15.01.2021	09:08:09	0	6,900605	2,5986	2,457	17,226	-0,08	87,744	0	1013,14	6,4	8,6	8,4	1	1	1	1	1	1	1	1	1	0	1	-11,205074	273,960193	308,193454	0
15.01.2021	09:08:10	0	7,019581	2,824565	2,6985	18,45	-0,082	87,748	0	1013,24	6,4	8,6	8,4	1	1	1	1	1	1	1	1	1	0	1	-7,751938	273,901022	311,370741	0
15.01.2021	09:08:11	0	7,138557	3,954391	2,6985	23,9688	-0,082	87,749	0	1013,28	6,4	8,6	8,4	1	1	1	1	1	1	1	1	1	0	1	-8,315715	273,961674	311,089722	0
15.01.2021	09:08:12	0	6,900605	4,180356	2,6895	7,8912	-0,08	87,753	0	1013,2	6,4	8,6	8,4	1	1	1	1	1	1	1	1	1	0	1	-6,412967	273,884782	312,634034	0
15.01.2021	09:08:13	0	6,900605	4,406321	2,766	13,5432	-0,084	87,758	0	1013,22	6,4	8,6	8,4	1	1	1	1	1	1	1	1	1	0	1	-5,919662	273,951305	313,437424	0
15.01.2021	09:08:14	0	7,376509	4,406321	2,87475	12,0996	-0,083	87,762	0	1013,22	6,4	8,6	8,4	1	1	1	1	1	1	1	1	1	0	1	-8,033827	273,932064	311,233545	0
15.01.2021	09:08:15	0	7,138557	2,711582	2,91375	1,9188	-0,083	87,741	0	1013,28	6,4	8,6	8,4	1	1	1	1	1	1	1	1	1	0	1	-10,570825	273,903976	308,565623	0
15.01.2021	09:08:16	0	7,019581	4,180356	2,7465	26,9028	-0,086	87,748	0	1013,12	6,4	8,6	8,4	1	1	1	1	1	1	1	1	1	0	1	-10,359408	273,954267	309,011489	0
15.01.2021	09:08:17	0	7,019581	4,632287	2,58	13,914	-0,081	87,76	0	1013,06	6,4	8,6	8,4	1	1	1	1	1	1	1	1	1	0	1	-9,795631	273,867081	309,168899	0
15.01.2021	09:08:18	0	7,019581	3,502461	2,5125	19,1412	-0,075	87,772	0	1013,18	6,4	8,6	8,4	1	1	1	1	1	1	1	1	1	0	1	-9,090909	273,797909	309,551492	0
15.01.2021	09:08:19	0	7,138557	4,632287	2,46825	11,1888	-0,087	87,756	0	1013,24	6,4	8,6	8,4	1	1	1	1	1	1	1	1	1	0	1	-10,711769	273,920233	308,500449	0
15.01.2021	09:08:20	0	7,138557	4,745269	2,3895	16,8336	-0,086	87,755	0	1013,36	6,4	8,6	8,4	1	1	1	1	1	1	1	1	1	0	1	-11,41649	273,940942	307,892274	0
15.01.2021	09:08:21	0	7,019581	2,937548	2,33475	6,4224	-0,077	87,762	0	1013,3	6,4	8,6	8,4	1	1	1	1	1	1	1	1	1	0	1	-6,20155	273,783223	312,372494	0
15.01.2021	09:08:22	0	6,900605	3,276495	2,46075	7,4952	-0,088	87,765	0	1013,18	6,4	8,6	8,4	1	1	1	1	1	1	1	1	1	0	1	-14,023961	273,911364	305,146918	0
15.01.2021	09:08:23	0	7,019581	3,502461	2,51625	15,0444	-0,086	87,774	0	1013,24	6,4	8,6	8,4	1	1	1	1	1	1	1	1	1	0	1	-12,403101	273,780288	306,157279	0
15.01.2021	09:08:24	0	7,376509	4,180356	2,33025	7,128	-0,078	87,78	0	1013,18	6,4	8,6	8,4	1	1	1	1	1	1	1	1	1	0	1	-10,641297	273,924668	308,591599	0
15.01.2021	09:08:25	0	6,900605	2,824565	2,439	0,8784	-0,076	87,775	0	1013,28	6,4	8,6	8,4	1	1	1	1	1	1	1	1	1	0	1	-7,540521	273,918754	311,664805	0
15.01.2021	09:08:26	0	7,257533	4,067374	2,5005	9,756	-0,081	87,776	0	1013,24	6,4	8,6	8,4	1	1	1	1	1	1	1	1	1	0	1	-7,751938	273,958711	311,639682	0
15.01.2021	09:08:27	0	7,257533	4,067374	2,49975	19,53	-0,084	87,773	0	1013,24	6,4	8,6	8,4	1	1	1	1	1	1	1	1	1	0	1	-11,909796	273,905453	307,233537	0
15.01.2021	09:08:28	0	6,662653	2,824565	2,841	6,7896	-0,082	87,781	0	1013,1	6,4	8,6	8,4	1	1	1	1	1	1	1	1	1	0	1	-4,439746	273,800847	314,216334	0
15.01.2021	09:08:29	0	7,019581	3,05053	3,05625	0,8604	-0,087	87,779	0	1013,04	6,4	8,6	8,4	1	1	1	1	1	1	1	1	1	0	1	-7,188161	273,809665	311,508972	0
15.01.2021	09:08:30	0	6,900605	2,711582	3,114	8,6256	-0,089	87,765	0	1013,26	6,4	8,6	8,4	1	1	1	1	1	1	1	1	1	0	1	-4,792107	273,955749	314,585697	0
15.01.2021	09:08:31	0	7,495485	3,05053	3,1965	16,848	-0,092	87,772	0	1013,12	6,4	8,6	8,4	1	1	1	1	1	1	1	1	1	0	1	-6,060606	273,825842	312,711849	0
15.01.2021	09:08:32	0	7,376509	3,389478	2,86575	24,3324	-0,082	87,788	0	1013,18	6,4	8,6	8,4	1	1	1	1	1	1	1	1	1	0	1	-5,990134	273,865607	312,967528	0
15.01.2021	09:08:33	0	7,257533	2,824565	2,59575	27,6516	-0,082	87,785	0	1013,26	6,4	8,6	8,4	1	1	1	1	1	1	1	1	1	0	1	-9,44327	273,803786	309,226492	0
15.01.2021	09:08:34	0	7,019581	2,937548	2,39475	18,8136	-0,085	87,77	0	1013,08	6,4	8,6	8,4	1	1	1	1	1	1	1	1	1	0	1	-9,020437	273,921711	310,198673	0
15.01.2021	09:08:35	0	7,257533	3,502461	2,27775	31,3776	-0,08	87,779	0	1013,26	6,4	8,6	8,4	1	1	1	1	1	1	1	1	1	0	1	-7,047216	273,903976	312,089231	0
15.01.2021	09:08:36	0	7,257533	3,502461	2,301	14,292	-0,084	87,785	0	1013,16	6,4	8,6	8,4	1	1	1	1	1	1	1	1	1	0	1	-5,496829	273,939462	313,805036	0
15.01.2021	09:08:37	0	7,257533	2,937548	2,61975	11,1888	-0,079	87,786	0	1013,24	6,4	8,6	8,4	1	1	1	1	1	1	1	1	1	0	1	-8,527132	273,917276	310,671304	0
15.01.2021	09:08:38	0	7,138557	2,711582	2,922	8,982	-0,087	87,767	0	1013,26	6,4	8,6	8,4	1	1	1	1	1	1	1	1	1	0	1	-4,580691	273,780288	313,979689	0
15.01.2021	09:08:39	0	7,614461	4,632287	3,117	15,7752	-0,081	87,786	0	1013,28	6,4	8,6	8,4	1	1	1	1	1	1	1	1	1	0	1	-6,976744	273,898068	312,13217	0
15.01.2021	09:08:40	0	7,138557	3,615443	3,04575	9,7452	-0,084	87,789	0	1013,22	6,4	8,6	8,4	1	1	1	1	1	1	1	1	1	0	1	-7,751938	273,960193	311,64659	0
15.01.2021	09:08:41	0	7,138557	2,372635	2,92275	13,3524	-0,082	87,785	0	1013,32	6,4	8,6	8,4	1	1	1	1	1	1	1	1	1	0	1	-7,047216	273,812606	311,663606	0
15.01.2021	09:08:42	0	7,019581	4,971234	2,72325	33,624	-0,081	87,783	0	1013,2	6,4	8,6	8,4	1	1	1	1	1	1	1	1	1	0	1	-4,792107	273,972049	314,661714	0
15.01.2021	09:08:43	0	7,019581	3,05053	2,57925	21,3732	-0,083	87,791	0	1013,2	6,4	8,6	8,4	1	1	1	1	1	1	1	1	1	0	1	-9,161381	273,920233	310,050836	0
15.01.2021	09:08:44	0	7,138557	3,841408	2,4315	13,9284	-0,081	87,784	0	1013,2	6,4	8,6	8,4	1	1	1	1	1	1	1	1	1	0	1	-8,104299	273,924668	311,128597	0
15.01.2021	09:08:45	0	6,900605	2,711582	2,37075	11,1888	-0,084	87,784	0	1013,18	6,4	8,6	8,4	1	1	1	1	1	1	1	1	1	0	1	-7,188161	273,95723	312,196551	0
15.01.2021	09:08:46	0	7,257533	3,615443	2,2425	25,0308	-0,081	87,797	0	1013,24	6,4	8,6	8,4	1	1	1	1	1	1	1	1	1	0	1	-8,597604	273,855289	310,311996	0
15.01.2021	09:08:47	0	7,138557	3,954391	2,1555	34,6932	-0,084	87,796	0	1013,26	6,4	8,6	8,4	1	1	1	1	1	1	1	1	1	0	1	-6,906272	273,799378	311,742969	0
15.01.2021	09:08:48	0	7,257533	2,5986	2,217	29,9376	-0,081	87,797	0	1013,28	6,4	8,6	8,4	1	1	1	1	1	1	1	1	1	0	1	-5,567301	273,844978	313,29427	0
15.01.2021	09:08:49	0	7,257533	4,180356	2,27025	21,3768	-0,084	87,794	0	1013,14	6,4	8,6	8,4	1	1	1	1	1	1	1	1	1	0	1	-6,131078	273,954267	313,239819	0
15.01.2021	09:08:50	0	7,376509	3,389478	2,25975	26,4996	-0,087	87,788	0	1013,08	6,4	8,6	8,4	1	1	1	1	1	1	1	1	1	0	1	-8,597604	273,902499	310,531959	0
15.01.2021	09:08:51	0	7,257533	3,502461	2,1	22,8204	-0,084	87,781	0	1013,14	6,4	8,6	8,4	1	1	1	1	1	1	1	1	1	0	1	-8,245243	273,811135	310,458734	0
15.01.2021	09:08:52	0	7,138557	5,1972	1,89225	16,8372	-0,084	87,787	0	1013,28	6,4	8,6	8,4	1	1	1	1	1	1	1	1	1	0	1	-8,668076	273,872979	310,323934	0
15.01.2021	09:08:53	0	7,257533	3,502461	1,89	23,5872	-0,088	87,793	0	1013,22	6,4	8,6	8,4	1	1	1	1	1	1	1	1	1	0	1	-10,077519	273,95723	309,307192	0
15.01.2021	09:08:54	0	7,376509	3,728426	1,87425	30,312	-0,081	87,797	0	1013,12	6,4	8,6	8,4	1	1	1	1	1	1	1	1	1	0	1	-9,372798	273,920233	309,83942	0
15.01.2021	09:08:55	0	7,376509	5,084217	1,83225	15,7716	-0,081	87,782	0	1013,22	6,4	8,6	8,4	1	1	1	1	1	1	1	1	1	0	1	-10,147992	273,797909	308,49441	0
15.01.2021	09:08:56	0	7,733437	4,632287	1,91025	14,3856	-0,08	87,799	0	1013,1	6,4	8,6	8,4	1	1	1	1	1	1	1	1	1	0	1	-7,963354	273,805256	310,713249	0
15.01.2021	09:08:57	0	7,257533	3,615443	2,12625	8,9856	-0,082	87,801	0	1013,14	6,4	8,6	8,4	1	1	1	1	1	1	1	1	1	0	1	-6,412967	273,902499	312,716596	0
15.01.2021	09:08:58	0	7,257533	2,372635	2,28075	21,3876	-0,081	87,795	0	1013,22	6,4	8,6	8,4	1	1	1	1	1	1	1	1	1	0	1	-10,993658	273,982429	308,508579	0
15.01.2021	09:08:59	0	7,257533	3,389478	2,41575	12,9276	-0,081	87,815	0	1013,28	6,4	8,6	8,4	1	1	1	1	1	1	1	1	1	0	1	-6,483439	273,918754	312,721887	0
15.01.2021	09:09:00	0	7,376509	4,406321	2,45475	31,752	-0,083	87,784	0	1013,22	6,4	8,6	8,4	1	1	1	1	1	1	1	1	1	0	1	-5,21494	273,886258	313,838937	0
15.01.2021	09:09:01	0	7,376509	4,406321	2,45475	31,752	-0,083	87,784	0	1013,22	6,4	8,6	8,4	1	1	1	1	1	1	1	1	1	0	1	-5,21494	273,886258	313,838937	0
15.01.2021	09:09:02	0	7,376509	4,745269	2,235	26,5104	-0,082	87,807	0	1013,22	6,4	8,6	8,4	1	1	1	1	1	1	1	1	1	0	1	-11,41649	273,794971	307,212234	0
15.01.2021	09:09:03	0	7,614461	4,632287	2,06025	21,0096	-0,089	87,806	0	1013,12	6,4	8,6	8,4	1	1	1	1	1	1	1	1	1	0	1	-8,527132	273,824371	310,238472	0
15.01.2021	09:09:04	0	7,376509	3,841408	2,09025	3,7692	-0,08	87,788	0	1013,12	6,4	8,6	8,4	1	1	1	1	1	1	1	1	1	0	1	-9,866103	273,856763	309,050361	0
15.01.2021	09:09:05	0	7,495485	3,05053	2,18925	14,6376	-0,079	87,805	0	1013,2	6,4	8,6	8,4	1	1	1	1	1	1	1	1	1	0	1	-9,795631	273,784691	308,785246	0
15.01.2021	09:09:06	0	7,614461	3,954391	2,199	12,8196	-0,081	87,811	0	1013,14	6,4	8,6	8,4	1	1	1	1	1	1	1	1	1	0	1	-10,218464	273,909886	308,945528	0
15.01.2021	09:09:07	0	7,257533	3,389478	2,202	8,6076	-0,081	87,801	0	1013	6,4	8,6	8,4	1	1	1	1	1	1	1	1	1	0	1	-10,500352	273,961674	308,905085	0
15.01.2021	09:09:08	0	7,257533	4,632287	2,22225	8,2476	-0,083	87,809	0	1013,2	6,4	8,6	8,4	1	1	1	1	1	1	1	1	1	0	1	-10,147992	273,933543	309,126278	0
15.01.2021	09:09:09	0	7,257533	4,293339	2,2785	5,22	-0,085	87,812	0	1013,26	6,4	8,6	8,4	1	1	1	1	1	1	1	1	1	0	1	-6,8358	273,855289	312,0738	0
15.01.2021	09:09:10	0	7,376509	2,937548	2,4405	4,086	-0,084	87,802	0	1013,14	6,4	8,6	8,4	1	1	1	1	1	1	1	1	1	0	1	-10,218464	273,967602	309,214618	0
15.01.2021	09:09:11	0	7,257533	2,937548	2,5905	8,9748	-0,088	87,806	0	1013,28	6,4	8,6	8,4	1	1	1	1	1	1	1	1	1	0	1	-9,936575	273,909886	309,227416	0
15.01.2021	09:09:12	0	7,376509	3,276495	2,5545	18,0504	-0,085	87,814	0	1013,14	6,4	8,6	8,4	1	1	1	1	1	1	1	1	1	0	1	-6,060606	273,806726	312,62284	0
15.01.2021	09:09:13	0	7,376509	4,858252	2,514	18,828	-0,083	87,821	0	1013,18	6,4	8,6	8,4	1	1	1	1	1	1	1	1	1	0	1	-6,553911	273,929105	312,699668	0
15.01.2021	09:09:14	0	7,376509	2,5986	2,601	2,3076	-0,083	87,807	0	1013,18	6,4	8,6	8,4	1	1	1	1	1	1	1	1	1	0	1	-9,936575	273,847923	308,938715	0
15.01.2021	09:09:15	0	7,376509	2,485617	2,64675	22,4568	-0,081	87,82	0	1013,24	6,4	8,6	8,4	1	1	1	1	1	1	1	1	1	0	1	-5,990134	273,792033	312,624917	0
15.01.2021	09:09:16	0	7,257533	4,745269	2,3925	32,1588	-0,085	87,813	0	1013,22	6,4	8,6	8,4	1	1	1	1	1	1	1	1	1	0	1	-7,258633	273,935023	312,022534	0
15.01.2021	09:09:17	0	7,614461	2,5986	2,2215	27,252	-0,077	87,815	0	1013,24	6,4	8,6	8,4	1	1	1	1	1	1	1	1	1	0	1	-2,396054	273,811135	316,307924	0
15.01.2021	09:09:18	0	7,495485	4,632287	2,0835	21,7764	-0,077	87,819	0	1013,08	6,4	8,6	8,4	1	1	1	1	1	1	1	1	1	0	1	-7,047216	273,817017	311,684144	0
15.01.2021	09:09:19	0	7,495485	5,1972	1,9515	19,8864	-0,08	87,825	0	1013,2	6,4	8,6	8,4	1	1	1	1	1	1	1	1	1	0	1	-6,553911	273,792033	312,06114	0
15.01.2021	09:09:20	0	7,257533	2,5986	1,9815	25,7724	-0,081	87,827	0	1013,26	6,4	8,6	8,4	1	1	1	1	1	1	1	1	1	0	1	-7,470049	273,895115	311,625101	0
15.01.2021	09:09:21	0	7,495485	4,745269	2,18625	18,8352	-0,086	87,826	0	1013,16	6,4	8,6	8,4	1	1	1	1	1	1	1	1	1	0	1	-7,610994	273,797909	311,031408	0
15.01.2021	09:09:22	0	7,495485	4,632287	2,328	14,2884	-0,082	87,829	0	1013,2	6,4	8,6	8,4	1	1	1	1	1	1	1	1	1	0	1	-9,231853	273,887734	309,828901	0
15.01.2021	09:09:23	0	7,614461	4,971234	2,544	30,3192	-0,084	87,832	0	1013,24	6,4	8,6	8,4	1	1	1	1	1	1	1	1	1	0	1	-5,21494	273,806726	313,468506	0
15.01.2021	09:09:24	0	7,614461	4,519304	2,565	11,1852	-0,085	87,818	0	1013,2	6,4	8,6	8,4	1	1	1	1	1	1	1	1	1	0	1	-9,725159	273,945383	309,604311	0
15.01.2021	09:09:25	0	7,852413	3,841408	2,4585	21,7656	-0,088	87,823	0	1013,22	6,4	8,6	8,4	1	1	1	1	1	1	1	1	1	0	1	-10,147992	273,868555	308,823407	0
15.01.2021	09:09:26	0	7,495485	3,728426	2,49675	22,0788	-0,081	87,797	0	1013,02	6,4	8,6	8,4	1	1	1	1	1	1	1	1	1	0	1	-11,768851	273,955749	307,608953	0
15.01.2021	09:09:27	0	7,852413	3,276495	2,57325	19,5264	-0,082	87,826	0	1013,22	6,4	8,6	8,4	1	1	1	1	1	1	1	1	1	0	1	-8,879493	273,865607	310,078169	0
15.01.2021	09:09:28	0	7,376509	3,276495	2,571	19,5336	-0,081	87,829	0	1013,18	6,4	8,6	8,4	1	1	1	1	1	1	1	1	1	0	1	-4,298802	273,955749	315,079002	0
15.01.2021	09:09:29	0	7,733437	5,1972	2,41425	30,3228	-0,087	87,817	0	1013,2	6,4	8,6	8,4	1	1	1	1	1	1	1	1	1	0	1	-8,879493	273,917276	310,318943	0
15.01.2021	09:09:30	0	7,852413	3,276495	2,301	18,846	-0,087	87,816	0	1013,2	6,4	8,6	8,4	1	1	1	1	1	1	1	1	1	0	1	-9,795631	273,849396	309,08652	0
15.01.2021	09:09:31	0	7,495485	3,163513	2,25375	31,3848	-0,079	87,831	0	1013,18	6,4	8,6	8,4	1	1	1	1	1	1	1	1	1	0	1	-8,104299	273,792033	310,510752	0
15.01.2021	09:09:32	0	7,971389	4,745269	2,07375	13,1652	-0,078	87,828	0	1013,18	6,4	8,6	8,4	1	1	1	1	1	1	1	1	1	0	1	-7,963354	273,892162	311,118036	0
15.01.2021	09:09:33	0	7,495538	4,293339	2,1	27,2736	-0,084	87,816	0	1013,22	6,4	8,5	8,4	1	1	1	1	1	1	1	1	1	0	1	-9,795631	273,964638	309,623628	0
15.01.2021	09:09:34	0	7,971389	5,084217	2,1645	15,7896	-0,086	87,834	0	1013,14	6,4	8,6	8,4	1	1	1	1	1	1	1	1	1	0	1	-10,218464	273,874454	308,780418	0
15.01.2021	09:09:35	0	7,495485	2,824565	2,27625	23,6052	-0,084	87,82	0	1013,24	6,4	8,6	8,4	1	1	1	1	1	1	1	1	1	0	1	-9,513742	273,79644	309,121821	0
15.01.2021	09:09:36	0	7,376561	2,711582	2,373	10,458	-0,088	87,827	0	1013,02	6,4	8,5	8,4	1	1	1	1	1	1	1	1	1	0	1	-9,161381	273,802317	309,50154	0
15.01.2021	09:09:37	0	7,614461	3,841408	2,4885	7,1208	-0,084	87,829	0	1013,28	6,4	8,6	8,4	1	1	1	1	1	1	1	1	1	0	1	-11,205074	273,892162	307,876316	0
15.01.2021	09:09:38	0	7,733437	4,293339	2,445	18,828	-0,083	87,833	0	1013,2	6,4	8,6	8,4	1	1	1	1	1	1	1	1	1	0	1	-10,359408	273,811135	308,344569	0
15.01.2021	09:09:39	0	7,614461	2,937548	2,31225	13,9248	-0,078	87,836	0	1013,28	6,4	8,6	8,4	1	1	1	1	1	1	1	1	1	0	1	-9,302326	273,844978	309,559245	0
15.01.2021	09:09:40	0	7,733437	3,163513	2,39025	11,7144	-0,081	87,843	0	1013,22	6,4	8,6	8,4	1	1	1	1	1	1	1	1	1	0	1	-8,527132	273,908408	310,629973	0
15.01.2021	09:09:41	0	7,614461	4,293339	2,52975	6,4332	-0,088	87,837	0	1013,2	6,4	8,6	8,4	1	1	1	1	1	1	1	1	1	0	1	-11,486963	273,948344	307,856314	0
15.01.2021	09:09:42	0	7,852413	3,728426	2,526	20,268	-0,084	87,833	0	1013,2	6,4	8,6	8,4	1	1	1	1	1	1	1	1	1	0	1	-9,302326	273,921711	309,916784	0
15.01.2021	09:09:43	0	7,852413	4,632287	2,481	13,5468	-0,088	87,838	0	1013,16	6,4	8,6	8,4	1	1	1	1	1	1	1	1	1	0	1	-8,45666	273,814076	310,261008	0
15.01.2021	09:09:44	0	7,614461	3,841408	2,493	28,7136	-0,084	87,844	0	1013,38	6,4	8,6	8,4	1	1	1	1	1	1	1	1	1	0	1	-8,879493	273,955749	310,498311	0
15.01.2021	09:09:45	0	7,852413	4,406321	2,6955	40,9896	-0,081	87,827	0	1013,28	6,4	8,6	8,4	1	1	1	1	1	1	1	1	1	0	1	-12,684989	273,844978	306,176581	0
15.01.2021	09:09:46	0	7,852413	2,033687	2,75775	29,106	-0,086	87,836	0	1013,16	6,6	8,6	8,4	1	1	1	1	1	1	1	1	1	0	1	-10,711769	273,787628	307,882776	0
15.01.2021	09:09:47	0	7,852413	4,632287	2,7315	26,5068	-0,081	87,855	0	1013,2	6,4	8,6	8,4	1	1	1	1	1	1	1	1	1	0	1	-13,742072	273,911364	305,428807	0
15.01.2021	09:09:48	0	7,495485	3,954391	2,53275	16,4988	-0,086	87,843	0	1013,24	6,4	8,6	8,4	1	1	1	1	1	1	1	1	1	0	1	-12,191684	273,954267	307,179213	0
15.01.2021	09:09:49	0	7,614461	3,502461	2,4255	21,0204	-0,082	87,843	0	1013,24	6,4	8,6	8,4	1	1	1	1	1	1	1	1	1	0	1	-4,933051	273,915798	314,258494	0
15.01.2021	09:09:50	0	7,971389	3,389478	2,5605	23,9616	-0,087	87,839	0	1013,22	6,4	8,6	8,4	1	1	1	1	1	1	1	1	1	0	1	-8,738548	273,970566	310,708359	0
15.01.2021	09:09:51	0	8,209341	4,971234	2,60625	5,6772	-0,081	87,844	0	1013,26	6,4	8,6	8,4	1	1	1	1	1	1	1	1	1	0	1	-13,812544	273,893638	305,275726	0
15.01.2021	09:09:52	0	7,614461	3,502461	2,61375	7,5132	-0,09	87,849	0	1013,1	6,4	8,6	8,4	1	1	1	1	1	1	1	1	1	0	1	-7,681466	273,794971	310,947259	0
15.01.2021	09:09:53	0	7,614461	2,824565	2,64525	15,3972	-0,079	87,843	0	1013,28	6,4	8,6	8,4	1	1	1	1	1	1	1	1	1	0	1	-10,993658	273,853816	307,90908	0
15.01.2021	09:09:54	0	7,733437	2,937548	2,60625	9,378	-0,083	87,851	0	1013,08	6,4	8,6	8,4	1	1	1	1	1	1	1	1	1	0	1	-11,557435	273,961674	307,848003	0
15.01.2021	09:09:55	0	7,614461	4,293339	2,60775	1,9152	-0,081	87,851	0	1013,22	6,4	8,6	8,4	1	1	1	1	1	1	1	1	1	0	1	-6,342495	273,892162	312,738896	0
15.01.2021	09:09:56	0	7,971389	4,632287	2,62575	353,5488	-0,086	87,86	0	1013,2	6,4	8,6	8,4	1	1	1	1	1	1	1	1	1	0	1	-6,412967	273,964638	313,006291	0
15.01.2021	09:09:57	0	7,852413	4,180356	2,72175	359,388	-0,082	87,849	0	1013,16	6,4	8,6	8,4	1	1	1	1	1	1	1	1	1	0	1	-5,355884	273,915798	313,835661	0
15.01.2021	09:09:58	0	7,614461	3,163513	2,814	0,4932	-0,082	87,854	0	1013,24	6,4	8,6	8,4	1	1	1	1	1	1	1	1	1	0	1	-5,285412	273,977979	314,196071	0
15.01.2021	09:09:59	0	8,090365	3,05053	2,8245	13,9104	-0,085	87,853	0	1013,2	6,4	8,6	8,4	1	1	1	1	1	1	1	1	1	0	1	-3,875969	273,895115	315,219182	0
15.01.2021	09:10:00	0	7,852413	3,389478	3,02325	22,0716	-0,088	87,848	0	1013,1	6,4	8,6	8,4	1	1	1	1	1	1	1	1	1	0	1	-10,570825	273,903976	308,565623	0
15.01.2021	09:10:01	0	7,852413	3,389478	3,02325	22,0716	-0,088	87,848	0	1013,1	6,4	8,6	8,4	1	1	1	1	1	1	1	1	1	0	1	-10,570825	273,903976	308,565623	0
15.01.2021	09:10:02	0	7,733437	4,971234	3,09225	6,0516	-0,085	87,854	0	1013,1	6,4	8,6	8,4	1	1	1	1	1	1	1	1	1	0	1	-3,664553	273,930585	315,595923	0
15.01.2021	09:10:03	0	7,971389	3,954391	2,9445	14,6556	-0,086	87,846	0	1013,24	6,4	8,6	8,4	1	1	1	1	1	1	1	1	1	0	1	-12,191684	273,915798	306,999861	0
15.01.2021	09:10:04	0	7,733437	2,372635	2,64	10,4364	-0,084	87,867	0	1013,22	6,4	8,6	8,4	1	1	1	1	1	1	1	1	1	0	1	-3,735025	273,940942	315,57374	0
15.01.2021	09:10:05	0	7,733491	3,502461	2,484	9,36	-0,084	87,869	0	1013,22	6,4	8,5	8,4	1	1	1	1	1	1	1	1	1	0	1	-8,386187	273,960193	311,012341	0
15.01.2021	09:10:06	0	7,852413	2,824565	2,45175	10,0368	-0,078	87,868	0	1013,32	6,4	8,6	8,4	1	1	1	1	1	1	1	1	1	0	1	-8,668076	273,886258	310,385801	0
15.01.2021	09:10:07	0	7,971389	2,5986	2,415	12,0996	-0,076	87,858	0	1013,06	6,4	8,6	8,4	1	1	1	1	1	1	1	1	1	0	1	-8,949965	273,800847	309,706116	0
15.01.2021	09:10:08	0	8,209341	2,937548	2,412	4,4604	-0,079	87,87	0	1013,32	6,4	8,6	8,4	1	1	1	1	1	1	1	1	1	0	1	-10,007047	273,834672	308,806525	0
15.01.2021	09:10:09	0	7,971389	2,937548	2,4195	4,0788	-0,082	87,872	0	1013,2	6,4	8,6	8,4	1	1	1	1	1	1	1	1	1	0	1	-3,523608	273,908408	315,633496	0
15.01.2021	09:10:10	0	7,971389	3,502461	2,502	13,9104	-0,085	87,857	0	1013,08	6,4	8,6	8,4	1	1	1	1	1	1	1	1	1	0	1	-9,090909	273,802317	309,572012	0
15.01.2021	09:10:11	0	8,090365	4,293339	2,397	23,5872	-0,09	87,862	0	1013,14	6,4	8,6	8,4	1	1	1	1	1	1	1	1	1	0	1	-8,315715	273,88921	310,751917	0
15.01.2021	09:10:12	0	7,971389	4,293339	2,28225	16,8552	-0,081	87,882	0	1013,2	6,4	8,6	8,4	1	1	1	1	1	1	1	1	1	0	1	-10,570825	273,818487	308,167383	0
15.01.2021	09:10:13	0	7,733437	4,180356	2,16225	16,4808	-0,084	87,877	0	1013,2	6,4	8,6	8,4	1	1	1	1	1	1	1	1	1	0	1	-9,584214	273,963156	309,828133	0
15.01.2021	09:10:14	0	7,852413	2,937548	2,08275	9,756	-0,083	87,858	0	1013,16	6,4	8,6	8,4	1	1	1	1	1	1	1	1	1	0	1	-4,087385	273,884782	314,959615	0
15.01.2021	09:10:15	0	7,852413	3,502461	2,073	9,3708	-0,081	87,88	0	1013,24	6,4	8,6	8,4	1	1	1	1	1	1	1	1	1	0	1	-5,84919	273,961674	313,556248	0
15.01.2021	09:10:16	0	8,090365	3,163513	2,21475	23,5836	-0,083	87,849	0	1013,16	6,4	8,6	8,4	1	1	1	1	1	1	1	1	1	0	1	-7,399577	273,892162	311,681813	0
15.01.2021	09:10:17	0	8,090365	3,728426	2,57475	360	-0,081	87,881	0	1013,3	6,4	8,6	8,4	1	1	1	1	1	1	1	1	1	0	1	-8,386187	274,044826	311,407206	0
15.01.2021	09:10:18	0	8,447293	4,293339	2,90775	352,062	-0,081	87,875	0	1013,38	6,4	8,6	8,4	1	1	1	1	1	1	1	1	1	0	1	-10,641297	273,921711	308,577813	0
15.01.2021	09:10:19	0	8,090365	4,180356	3,28875	7,1172	-0,08	87,874	0	1013,28	6,4	8,6	8,4	1	1	1	1	1	1	1	1	1	0	1	-5,355884	273,940942	313,95288	0
15.01.2021	09:10:20	0	8,209398	3,389478	3,5385	9,3492	-0,083	87,861	0	1013,24	6,4	8,5	8,4	1	1	1	1	1	1	1	1	1	0	1	-6,624383	273,961674	312,781054	0
15.01.2021	09:10:21	0	8,209341	3,954391	3,40725	10,4292	-0,081	87,874	0	1013,14	6,4	8,6	8,4	1	1	1	1	1	1	1	1	1	0	1	-4,580691	273,932064	314,686681	0
15.01.2021	09:10:22	0	8,090365	4,971234	3,402	359,0964	-0,083	87,873	0	1013,08	6,4	8,6	8,4	1	1	1	1	1	1	1	1	1	0	1	-7,117689	273,865607	311,839973	0
15.01.2021	09:10:23	0	8,209341	3,05053	3,67275	8,262	-0,084	87,874	0	1013,04	6,4	8,6	8,4	1	1	1	1	1	1	1	1	1	0	1	-5,144468	273,92319	314,081534	0
15.01.2021	09:10:24	0	8,328317	2,711582	3,70125	24,7032	-0,082	87,877	0	1013,22	6,4	8,6	8,4	1	1	1	1	1	1	1	1	1	0	1	-9,795631	273,839088	309,038508	0
15.01.2021	09:10:25	0	7,852413	3,502461	3,558	26,1504	-0,084	87,872	0	1013,18	6,4	8,6	8,4	1	1	1	1	1	1	1	1	1	0	1	-9,020437	273,96612	310,405733	0
15.01.2021	09:10:26	0	8,328317	3,389478	3,29625	19,5228	-0,083	87,873	0	1013,1	6,4	8,6	8,4	1	1	1	1	1	1	1	1	1	0	1	-6,906272	273,839088	311,927867	0
15.01.2021	09:10:27	0	7,971389	3,276495	2,964	18,45	-0,083	87,879	0	1013,28	6,4	8,6	8,4	1	1	1	1	1	1	1	1	1	0	1	-4,510218	273,952786	314,853773	0
15.01.2021	09:10:28	0	8,447293	4,067374	2,74275	18,4284	-0,081	87,879	0	1013,18	6,6	8,6	8,4	1	1	1	1	1	1	1	1	1	0	1	-11,275546	273,927626	307,971138	0
15.01.2021	09:10:29	0	7,971389	3,389478	2,73375	1,926	-0,083	87,887	0	1013,26	6,4	8,6	8,4	1	1	1	1	1	1	1	1	1	0	1	-6,694856	273,970566	312,752052	0
15.01.2021	09:10:30	0	7,852413	2,711582	3,105	0,8604	-0,086	87,864	0	1013,08	6,4	8,6	8,4	1	1	1	1	1	1	1	1	1	0	1	-10,359408	273,588966	307,311445	0
15.01.2021	09:10:31	0	7,971389	3,389478	3,2355	9,8424	-0,081	87,869	0	1013,08	6,4	8,6	8,4	1	1	1	1	1	1	1	1	1	0	1	-9,795631	273,964638	309,623628	0
15.01.2021	09:10:32	0	8,328317	4,180356	3,435	4,0824	-0,08	87,888	0	1013,26	6,4	8,6	8,4	1	1	1	1	1	1	1	1	1	0	1	-8,315715	273,84056	310,52528	0
15.01.2021	09:10:33	0	8,090365	4,293339	3,44925	3,7872	-0,086	87,873	0	1013,2	6,4	8,6	8,4	1	1	1	1	1	1	1	1	1	0	1	-8,949965	273,918754	310,255361	0
15.01.2021	09:10:34	0	8,328317	3,615443	3,39	11,1924	-0,082	87,894	0	1013,04	6,4	8,6	8,4	1	1	1	1	1	1	1	1	1	0	1	-8,527132	273,979462	310,961269	0
15.01.2021	09:10:35	0	8,209341	4,180356	3,483	6,5376	-0,079	87,876	0	1013,42	6,4	8,6	8,4	1	1	1	1	1	1	1	1	1	0	1	-3,664553	273,895115	315,430598	0
15.01.2021	09:10:36	0	7,971389	4,519304	3,639	12,1032	-0,08	87,864	0	1013,24	6,4	8,6	8,4	1	1	1	1	1	1	1	1	1	0	1	-5,426357	273,969084	314,013638	0
15.01.2021	09:10:37	0	8,209341	3,276495	3,501	19,9008	-0,081	87,878	0	1013,26	6,4	8,6	8,4	1	1	1	1	1	1	1	1	1	0	1	-10,147992	273,864132	308,802802	0
15.01.2021	09:10:38	0	8,328317	4,632287	3,30825	15,7968	-0,079	87,883	0	1013,22	6,4	8,6	8,4	1	1	1	1	1	1	1	1	1	0	1	-4,298802	273,805256	314,377802	0
15.01.2021	09:10:39	0	8,685245	4,632287	3,35475	34,7004	-0,079	87,874	0	1013,24	6,4	8,6	8,4	1	1	1	1	1	1	1	1	1	0	1	-7,963354	273,84056	310,877641	0
15.01.2021	09:10:40	0	8,090365	2,937548	3,32325	20,3112	-0,082	87,879	0	1013,14	6,4	8,6	8,4	1	1	1	1	1	1	1	1	1	0	1	-10,641297	273,948344	308,70198	0
15.01.2021	09:10:41	0	8,447293	3,841408	3,29325	22,068	-0,081	87,875	0	1013,24	6,4	8,6	8,4	1	1	1	1	1	1	1	1	1	0	1	-9,513742	273,828785	309,272416	0
15.01.2021	09:10:42	0	8,447293	3,389478	3,14925	32,8644	-0,085	87,882	0	1013,12	6,4	8,6	8,4	1	1	1	1	1	1	1	1	1	0	1	-9,020437	273,802317	309,642484	0
15.01.2021	09:10:43	0	8,209341	3,389478	3,0555	26,1576	-0,078	87,884	0	1013,22	6,4	8,6	8,4	1	1	1	1	1	1	1	1	1	0	1	-8,174771	273,8332	310,631946	0
15.01.2021	09:10:44	0	8,209341	4,067374	3,1005	21,7656	-0,081	87,883	0	1013,42	6,4	8,6	8,4	1	1	1	1	1	1	1	1	1	0	1	-3,735025	273,972049	315,718797	0
15.01.2021	09:10:45	0	8,209341	2,937548	2,97825	22,0644	-0,079	87,878	0	1013,28	6,4	8,6	8,4	1	1	1	1	1	1	1	1	1	0	1	-12,05074	273,793502	306,571148	0
15.01.2021	09:10:46	0	8,328317	4,745269	2,79675	32,1372	-0,081	87,862	0	1013,04	6,4	8,6	8,4	1	1	1	1	1	1	1	1	1	0	1	-5,285412	273,902499	313,844151	0
15.01.2021	09:10:47	0	8,328317	3,05053	2,65275	13,1652	-0,082	87,887	0	1013,22	6,4	8,6	8,4	1	1	1	1	1	1	1	1	1	0	1	-4,087385	273,824371	314,678219	0
15.01.2021	09:10:48	0	8,685245	4,858252	2,47125	30,6936	-0,082	87,874	0	1013,2	6,4	8,6	8,4	1	1	1	1	1	1	1	1	1	0	1	-6,412967	273,79644	312,222596	0
15.01.2021	09:10:49	0	8,209341	2,711582	2,4585	10,0512	-0,081	87,884	0	1013,26	6,4	8,6	8,4	1	1	1	1	1	1	1	1	1	0	1	-10,923185	273,825842	307,849269	0
15.01.2021	09:10:50	0	8,209341	2,937548	2,59725	13,5396	-0,081	87,892	0	1013,18	6,4	8,6	8,4	1	1	1	1	1	1	1	1	1	0	1	-6,765328	273,8229	311,993426	0
15.01.2021	09:10:51	0	8,209341	3,276495	2,5515	22,8348	-0,083	87,887	0	1013,26	6,4	8,6	8,4	1	1	1	1	1	1	1	1	1	0	1	-7,329105	273,846451	311,539325	0
15.01.2021	09:10:52	0	8,209341	3,954391	2,5455	3,3912	-0,081	87,894	0	1013,3	6,4	8,6	8,4	1	1	1	1	1	1	1	1	1	0	1	-3,100775	273,792033	315,514276	0
15.01.2021	09:10:53	0	8,328317	3,05053	2,595	11,2068	-0,085	87,877	0	1013,32	6,4	8,6	8,4	1	1	1	1	1	1	1	1	1	0	1	-4,721635	273,844978	314,139936	0
15.01.2021	09:10:54	0	8,328317	2,937548	2,70225	12,852	-0,079	87,895	0	1013,28	6,4	8,6	8,4	1	1	1	1	1	1	1	1	1	0	1	-7,399577	273,945383	311,929893	0
15.01.2021	09:10:55	0	8,209341	3,502461	2,6205	14,3964	-0,08	87,88	0	1013,14	6,4	8,6	8,4	1	1	1	1	1	1	1	1	1	0	1	-9,372798	273,839088	309,461341	0
15.01.2021	09:10:56	0	8,328375	4,067374	2,42175	3,78	-0,081	87,904	0	1013,3	6,4	8,5	8,4	1	1	1	1	1	1	1	1	1	0	1	-6,8358	273,912842	312,341967	0
15.01.2021	09:10:57	0	8,328317	4,519304	2,382	14,3028	-0,083	87,886	0	1013,26	6,4	8,6	8,4	1	1	1	1	1	1	1	1	1	0	1	-8,879493	273,952786	310,484498	0
15.01.2021	09:10:58	0	8,685245	3,728426	2,3115	16,1064	-0,08	87,88	0	1013,28	6,4	8,6	8,4	1	1	1	1	1	1	1	1	1	0	1	-8,527132	273,87888	310,492368	0
15.01.2021	09:10:59	0	8,447293	4,519304	2,262	12,0816	-0,082	87,878	0	1013,16	6,4	8,6	8,4	1	1	1	1	1	1	1	1	1	0	1	-7,610994	273,963156	311,801354	0
15.01.2021	09:11:00	0	8,209341	2,5986	2,15175	9,7524	-0,083	87,877	0	1013,32	6,4	8,6	8,4	1	1	1	1	1	1	1	1	1	0	1	-11,275546	273,818487	307,462662	0
15.01.2021	09:11:01	0	8,209341	2,5986	2,15175	9,7524	-0,083	87,877	0	1013,32	6,4	8,6	8,4	1	1	1	1	1	1	1	1	1	0	1	-11,275546	273,818487	307,462662	0
15.01.2021	09:11:02	0	8,80422	4,519304	2,1315	13,9176	-0,085	87,892	0	1013,22	6,4	8,6	8,4	1	1	1	1	1	1	1	1	1	0	1	-9,090909	273,852343	309,804965	0
15.01.2021	09:11:03	0	8,328375	2,711582	2,25525	32,1444	-0,077	87,887	0	1013,26	6,4	8,5	8,4	1	1	1	1	1	1	1	1	1	0	1	-6,624383	273,800847	312,031697	0
15.01.2021	09:11:04	0	8,328317	2,146669	2,4075	23,2056	-0,08	87,897	0	1013,24	6,4	8,6	8,4	1	1	1	1	1	1	1	1	1	0	1	-10,077519	273,79644	308,558043	0
15.01.2021	09:11:05	0	8,566269	2,711582	2,628	26,496	-0,084	87,893	0	1013,1	6,4	8,6	8,4	1	1	1	1	1	1	1	1	1	0	1	-10,359408	273,917276	308,839027	0
15.01.2021	09:11:06	0	8,685245	5,1972	2,595	22,4532	-0,079	87,871	0	1013,2	6,4	8,6	8,4	1	1	1	1	1	1	1	1	1	0	1	-6,553911	273,808195	312,136378	0
15.01.2021	09:11:07	0	8,923196	3,276495	2,7015	29,1132	-0,084	87,886	0	1013,16	6,4	8,6	8,4	1	1	1	1	1	1	1	1	1	0	1	-10,641297	273,825842	308,131158	0
15.01.2021	09:11:08	0	8,447293	3,615443	2,69775	9,0072	-0,084	87,887	0	1013,1	6,4	8,6	8,4	1	1	1	1	1	1	1	1	1	0	1	-9,795631	273,809665	308,901502	0
15.01.2021	09:11:09	0	8,447293	3,728426	2,598	16,8408	-0,086	87,895	0	1013,04	6,4	8,6	8,4	1	1	1	1	1	1	1	1	1	0	1	-8,174771	273,799378	310,47447	0
15.01.2021	09:11:10	0	8,685245	3,728426	2,67	42,588	-0,08	87,887	0	1013,14	6,4	8,6	8,4	1	1	1	1	1	1	1	1	1	0	1	-11,909796	273,890686	307,164715	0
15.01.2021	09:11:11	0	8,328375	3,954391	2,55075	29,0988	-0,079	87,893	0	1013,34	6,4	8,5	8,4	1	1	1	1	1	1	1	1	1	0	1	-6,272023	273,952786	313,091968	0
15.01.2021	09:11:12	0	8,804282	3,954391	2,3415	43,2648	-0,084	87,892	0	1013,18	6,4	8,5	8,4	1	1	1	1	1	1	1	1	1	0	1	-8,45666	273,84056	310,384336	0
15.01.2021	09:11:13	0	8,447293	3,954391	2,148	25,4196	-0,079	87,894	0	1013,2	6,4	8,6	8,4	1	1	1	1	1	1	1	1	1	0	1	-5,708245	273,949825	313,641935	0
15.01.2021	09:11:14	0	8,209341	2,485617	2,13225	23,22	-0,081	87,894	0	1013,22	6,4	8,6	8,4	1	1	1	1	1	1	1	1	1	0	1	-7,117689	273,787628	311,476856	0
15.01.2021	09:11:15	0	8,80422	4,745269	2,2185	8,6004	-0,084	87,878	0	1013,1	6,4	8,6	8,4	1	1	1	1	1	1	1	1	1	0	1	-6,131078	273,927626	313,115606	0
15.01.2021	09:11:16	0	8,566269	3,389478	2,4225	12,4812	-0,075	87,905	0	1013,2	6,4	8,6	8,4	1	1	1	1	1	1	1	1	1	0	1	-11,275546	273,819958	307,46951	0
15.01.2021	09:11:17	0	8,447293	2,824565	2,4705	17,2296	-0,084	87,898	0	1013,2	6,4	8,6	8,4	1	1	1	1	1	1	1	1	1	0	1	-8,386187	273,794971	310,242537	0
15.01.2021	09:11:18	0	8,923196	4,406321	2,4525	14,652	-0,079	87,884	0	1013,24	6,4	8,6	8,4	1	1	1	1	1	1	1	1	1	0	1	-9,654686	273,874454	309,344195	0
15.01.2021	09:11:19	0	8,447293	3,163513	2,4345	6,0624	-0,077	87,906	0	1013,24	6,4	8,6	8,4	1	1	1	1	1	1	1	1	1	0	1	-13,460183	273,793502	305,161704	0
15.01.2021	09:11:20	0	8,447293	2,824565	2,77425	8,6076	-0,079	87,902	0	1013,18	6,4	8,6	8,4	1	1	1	1	1	1	1	1	1	0	1	-10,359408	273,880355	308,666966	0
15.01.2021	09:11:21	0	8,80422	3,502461	2,90625	19,9548	-0,08	87,903	0	1013,22	6,4	8,6	8,4	1	1	1	1	1	1	1	1	1	0	1	-8,386187	273,799378	310,263053	0
15.01.2021	09:11:22	0	8,923196	2,259652	2,853	16,0956	-0,076	87,9	0	1013,1	6,4	8,6	8,4	1	1	1	1	1	1	1	1	1	0	1	-3,030303	273,88921	316,037329	0
15.01.2021	09:11:23	0	8,80422	4,067374	2,88	21,7404	-0,077	87,904	0	1013,24	6,4	8,6	8,4	1	1	1	1	1	1	1	1	1	0	1	-11,909796	273,800847	306,746285	0
15.01.2021	09:11:24	0	8,923196	3,728426	3,0345	17,6868	-0,076	87,9	0	1013,24	6,4	8,6	8,4	1	1	1	1	1	1	1	1	1	0	1	-13,6716	273,932064	305,595772	0
15.01.2021	09:11:25	0	9,042172	3,276495	3,06525	19,3788	-0,076	87,9	0	1013,16	6,4	8,6	8,4	1	1	1	1	1	1	1	1	1	0	1	-5,144468	273,887734	313,916287	0
15.01.2021	09:11:26	0	8,685245	4,180356	3,231	14,2812	-0,081	87,898	0	1013	6,4	8,6	8,4	1	1	1	1	1	1	1	1	1	0	1	-7,892882	273,96612	311,533287	0
15.01.2021	09:11:27	0	8,923196	2,937548	3,26775	20,2896	-0,079	87,902	0	1013,1	6,4	8,6	8,4	1	1	1	1	1	1	1	1	1	0	1	-8,315715	273,867081	310,648815	0
15.01.2021	09:11:28	0	8,566269	3,163513	3,315	21,7512	-0,076	87,909	0	1013,12	6,4	8,6	8,4	1	1	1	1	1	1	1	1	1	0	1	-16,349542	273,794971	302,279183	0
15.01.2021	09:11:29	0	9,042172	4,293339	3,1515	12,1176	-0,078	87,903	0	1013,24	6,4	8,6	8,4	1	1	1	1	1	1	1	1	1	0	1	-3,312192	273,88921	315,755441	0
15.01.2021	09:11:30	0	8,685245	4,745269	3,10725	10,08	-0,085	87,901	0	1013,08	6,4	8,6	8,4	1	1	1	1	1	1	1	1	1	0	1	-8,45666	273,958711	310,93496	0
15.01.2021	09:11:31	0	8,923259	4,971234	3,132	22,8276	-0,078	87,906	0	1013,1	6,4	8,5	8,4	1	1	1	1	1	1	1	1	1	0	1	-10,852713	273,862658	308,091213	0
15.01.2021	09:11:32	0	9,042172	4,632287	3,04875	19,1448	-0,08	87,883	0	1013,16	6,4	8,6	8,4	1	1	1	1	1	1	1	1	1	0	1	-9,795631	273,960193	309,602898	0
15.01.2021	09:11:33	0	8,566329	3,05053	3,23175	4,8168	-0,077	87,899	0	1013,22	6,4	8,5	8,4	1	1	1	1	1	1	1	1	1	0	1	-11,909796	273,890686	307,164715	0
15.01.2021	09:11:34	0	8,566269	3,502461	3,633	3,3948	-0,079	87,912	0	1013,34	6,4	8,6	8,4	1	1	1	1	1	1	1	1	1	0	1	-8,879493	273,803786	309,790269	0
15.01.2021	09:11:35	0	9,161148	4,406295	3,74475	18,0792	-0,075	87,907	0	1013,16	6,4	8,6	8,5	1	1	1	1	1	1	1	1	1	0	1	-8,315715	273,930585	310,94476	0
15.01.2021	09:11:36	0	8,685245	3,276495	3,57	16,4844	-0,082	87,896	0	1013,32	6,4	8,6	8,4	1	1	1	1	1	1	1	1	1	0	1	-9,513742	273,837616	309,31354	0
15.01.2021	09:11:37	0	8,923196	4,971234	3,2715	17,3376	-0,08	87,912	0	1013,26	6,4	8,6	8,4	1	1	1	1	1	1	1	1	1	0	1	-8,879493	273,937982	310,415472	0
15.01.2021	09:11:38	0	8,80422	3,502461	3,0885	22,0716	-0,079	87,902	0	1013,22	6,4	8,6	8,4	1	1	1	1	1	1	1	1	1	0	1	-11,768851	273,812606	306,941971	0
15.01.2021	09:11:39	0	8,80422	4,067374	3,0525	18,8244	-0,086	87,898	0	1013,14	6,4	8,6	8,4	1	1	1	1	1	1	1	1	1	0	1	-8,45666	273,926147	310,78313	0
15.01.2021	09:11:40	0	8,566269	2,5986	2,98875	17,7336	-0,078	87,911	0	1013,22	6,4	8,6	8,4	1	1	1	1	1	1	1	1	1	0	1	-12,121212	273,84056	306,719784	0
15.01.2021	09:11:41	0	8,80422	4,180356	3,069	18,072	-0,076	87,918	0	1013,18	6,4	8,6	8,4	1	1	1	1	1	1	1	1	1	0	1	-11,134602	273,808195	307,555687	0
15.01.2021	09:11:42	0	9,042236	4,519304	3,24825	22,4496	-0,079	87,909	0	1013,22	6,4	8,5	8,4	1	1	1	1	1	1	1	1	1	0	1	-15,433404	273,924668	303,799492	0
15.01.2021	09:11:43	0	8,685245	4,745269	3,24825	21,3876	-0,078	87,91	0	1013,26	6,4	8,6	8,4	1	1	1	1	1	1	1	1	1	0	1	-11,627907	273,952786	307,736084	0
15.01.2021	09:11:44	0	9,042172	3,954391	3,09825	21,762	-0,079	87,915	0	1013,28	6,4	8,6	8,4	1	1	1	1	1	1	1	1	1	0	1	-6,342495	273,933543	312,931774	0
15.01.2021	09:11:45	0	9,042172	4,406321	3,16425	17,6904	-0,079	87,907	0	1013,26	6,4	8,6	8,4	1	1	1	1	1	1	1	1	1	0	1	-7,892882	273,815546	310,831631	0
15.01.2021	09:11:46	0	9,161148	3,954391	3,2145	18,432	-0,083	87,908	0	1013,04	6,4	8,6	8,4	1	1	1	1	1	1	1	1	1	0	1	-9,513742	273,844978	309,347828	0
15.01.2021	09:11:47	0	9,042172	5,084217	3,4395	10,818	-0,079	87,912	0	1013,3	6,4	8,6	8,4	1	1	1	1	1	1	1	1	1	0	1	-9,090909	273,912842	310,086858	0
15.01.2021	09:11:48	0	8,80422	2,937548	3,83625	9,846	-0,077	87,912	0	1013,3	6,4	8,6	8,4	1	1	1	1	1	1	1	1	1	0	1	-8,245243	273,802317	310,417678	0
15.01.2021	09:11:49	0	8,80422	4,519304	3,62175	19,9008	-0,074	87,918	0	1013,32	6,4	8,6	8,4	1	1	1	1	1	1	1	1	1	0	1	-13,530655	273,825842	305,241799	0
15.01.2021	09:11:50	0	8,923196	3,163513	3,405	27,2592	-0,081	87,914	0	1013,12	6,4	8,6	8,4	1	1	1	1	1	1	1	1	1	0	1	-11,06413	273,836144	307,756297	0
15.01.2021	09:11:51	0	8,923196	4,180356	3,23325	21,006	-0,078	87,895	0	1013,4	6,4	8,6	8,4	1	1	1	1	1	1	1	1	1	0	1	-9,795631	273,969084	309,644364	0
15.01.2021	09:11:52	0	9,280124	3,05053	2,9325	14,2848	-0,078	87,932	0	1013,36	6,4	8,6	8,4	1	1	1	1	1	1	1	1	1	0	1	-15,503876	273,846451	303,364554	0
15.01.2021	09:11:53	0	9,161148	4,745269	2,79525	24,318	-0,078	87,907	0	1013,26	6,4	8,6	8,4	1	1	1	1	1	1	1	1	1	0	1	-12,684989	273,901022	306,43769	0
15.01.2021	09:11:54	0	9,161148	4,745269	2,922	33,9516	-0,079	87,925	0	1013,24	6,4	8,6	8,4	1	1	1	1	1	1	1	1	1	0	1	-7,82241	273,808195	310,867879	0
15.01.2021	09:11:55	0	9,161148	3,389478	2,9985	23,1876	-0,082	87,892	0	1013,16	6,4	8,6	8,4	1	1	1	1	1	1	1	1	1	0	1	-8,80902	273,887734	310,251734	0
15.01.2021	09:11:56	0	8,80422	4,406321	3,11625	22,0896	-0,081	87,906	0	1013,16	6,4	8,6	8,4	1	1	1	1	1	1	1	1	1	0	1	-9,725159	273,8229	309,033596	0
15.01.2021	09:11:57	0	9,161148	3,615443	3,21375	21,3984	-0,076	87,914	0	1013,22	6,4	8,6	8,4	1	1	1	1	1	1	1	1	1	0	1	-7,892882	273,87003	311,085386	0
15.01.2021	09:11:58	0	8,804282	3,502461	3,23175	21,3948	-0,077	87,922	0	1013,2	6,4	8,5	8,4	1	1	1	1	1	1	1	1	1	0	1	-12,614517	273,95723	306,770194	0
15.01.2021	09:11:59	0	9,042172	2,372635	3,14625	19,8792	-0,083	87,906	0	1013,26	6,4	8,6	8,4	1	1	1	1	1	1	1	1	1	0	1	-9,231853	273,874454	309,767028	0
15.01.2021	09:12:00	0	9,042172	2,711582	3,0315	15,03	-0,08	87,901	0	1013,24	6,4	8,6	8,4	1	1	1	1	1	1	1	1	1	0	1	-3,946441	273,84056	314,894555	0
15.01.2021	09:12:01	0	9,042172	2,711582	3,0315	15,03	-0,08	87,901	0	1013,24	6,4	8,6	8,4	1	1	1	1	1	1	1	1	1	0	1	-3,946441	273,84056	314,894555	0
15.01.2021	09:12:02	0	9,161148	2,937548	3,2415	4,4568	-0,078	87,921	0	1013,28	6,4	8,6	8,4	1	1	1	1	1	1	1	1	1	0	1	-9,231853	273,811135	309,472124	0
15.01.2021	09:12:03	0	9,280124	3,05053	3,3135	9,8892	-0,08	87,904	0	1013,22	6,4	8,6	8,4	1	1	1	1	1	1	1	1	1	0	1	-7,047216	273,843505	311,807495	0
15.01.2021	09:12:04	0	8,80422	2,824565	3,28725	8,262	-0,077	87,923	0	1013,32	6,4	8,6	8,4	1	1	1	1	1	1	1	1	1	0	1	-10,42988	273,951305	308,927205	0
15.01.2021	09:12:05	0	9,3991	2,937548	3,174	7,128	-0,076	87,919	0	1013,2	6,4	8,6	8,4	1	1	1	1	1	1	1	1	1	0	1	-6,765328	273,84056	312,075668	0
15.01.2021	09:12:06	0	8,923196	4,745269	2,895	10,4436	-0,074	87,915	0	1013,24	6,4	8,6	8,4	1	1	1	1	1	1	1	1	1	0	1	-11,486963	273,939462	307,814902	0
15.01.2021	09:12:07	0	8,923196	4,180356	2,88075	1,5516	-0,073	87,927	0	1013,08	6,4	8,6	8,4	1	1	1	1	1	1	1	1	1	0	1	-6,412967	273,963156	312,999381	0
15.01.2021	09:12:08	0	9,042172	3,728426	2,71275	6,4404	-0,076	87,922	0	1013,3	6,4	8,6	8,4	1	1	1	1	1	1	1	1	1	0	1	-10,288936	273,817017	308,442425	0
15.01.2021	09:12:09	0	9,042172	3,05053	2,58375	13,9248	-0,078	87,928	0	1013,28	6,4	8,6	8,4	1	1	1	1	1	1	1	1	1	0	1	-9,090909	273,805256	309,585695	0
15.01.2021	09:12:10	0	8,566269	2,824565	2,631	7,1208	-0,071	87,93	0	1013,34	6,4	8,6	8,4	1	1	1	1	1	1	1	1	1	0	1	-5,778717	273,890686	313,295794	0
15.01.2021	09:12:11	0	9,042172	2,937548	2,679	7,1208	-0,074	87,924	0	1013,36	6,6	8,6	8,4	1	1	1	1	1	1	1	1	1	0	1	-11,486963	273,811135	307,217014	0
15.01.2021	09:12:12	0	9,280124	4,293339	2,5935	0,8604	-0,077	87,927	0	1013,44	6,4	8,6	8,4	1	1	1	1	1	1	1	1	1	0	1	-2,748414	273,909886	316,415577	0
15.01.2021	09:12:13	0	9,280189	4,632287	2,73525	0,4896	-0,081	87,921	0	1013,32	6,4	8,5	8,4	1	1	1	1	1	1	1	1	1	0	1	-10,923185	273,932064	308,344187	0
15.01.2021	09:12:14	0	8,923196	3,954391	2,8455	7,8804	-0,076	87,926	0	1013,24	6,4	8,6	8,4	1	1	1	1	1	1	1	1	1	0	1	-7,047216	273,969084	312,392778	0
15.01.2021	09:12:15	0	8,80422	2,824565	2,73975	6,4368	-0,074	87,927	0	1013,38	6,4	8,6	8,4	1	1	1	1	1	1	1	1	1	0	1	-1,479915	273,828785	317,306242	0
15.01.2021	09:12:16	0	8,923196	3,276495	2,61525	8,6148	-0,077	87,934	0	1013,34	6,4	8,6	8,4	1	1	1	1	1	1	1	1	1	0	1	-9,372798	273,790565	309,235417	0
15.01.2021	09:12:17	0	8,923196	3,841408	2,5905	11,7072	-0,079	87,924	0	1013,16	6,4	8,6	8,4	1	1	1	1	1	1	1	1	1	0	1	-8,386187	273,858237	310,537141	0
15.01.2021	09:12:18	0	9,042236	4,067374	2,51025	13,1688	-0,077	87,917	0	1013,3	6,4	8,5	8,4	1	1	1	1	1	1	1	1	1	0	1	-7,540521	273,958711	311,851098	0
15.01.2021	09:12:19	0	9,280189	4,067374	2,4255	26,1792	-0,074	87,925	0	1013,28	6,4	8,5	8,4	1	1	1	1	1	1	1	1	1	0	1	-9,584214	273,855289	309,325386	0
15.01.2021	09:12:20	0	8,804282	3,276476	2,394	11,196	-0,075	87,937	0	1013,34	6,4	8,5	8,5	1	1	1	1	1	1	1	1	1	0	1	-5,990134	273,805256	312,68647	0
15.01.2021	09:12:21	0	9,280124	4,406321	2,367	12,4668	-0,076	87,927	0	1013,16	6,4	8,6	8,4	1	1	1	1	1	1	1	1	1	0	1	-9,725159	273,940942	309,583606	0
15.01.2021	09:12:22	0	8,923196	4,406321	2,385	4,4784	-0,073	87,93	0	1013,22	6,4	8,6	8,4	1	1	1	1	1	1	1	1	1	0	1	-8,315715	273,921711	310,903394	0
15.01.2021	09:12:23	0	8,923259	4,067374	2,40375	9,36	-0,061	87,934	0	1013,4	6,6	8,5	8,4	1	1	1	1	1	1	1	1	1	0	1	-7,610994	273,809665	311,086139	0
15.01.2021	09:12:24	0	9,280124	3,841408	2,54475	10,4292	-0,077	87,938	0	1013,32	6,4	8,6	8,4	1	1	1	1	1	1	1	1	1	0	1	-10,218464	273,929105	309,035116	0
15.01.2021	09:12:25	0	8,923196	3,502461	2,5815	10,4364	-0,075	87,94	0	1013,32	6,4	8,6	8,4	1	1	1	1	1	1	1	1	1	0	1	-12,191684	273,827313	306,587622	0
15.01.2021	09:12:26	0	9,161148	3,276495	2,442	21,7584	-0,082	87,925	0	1013,18	6,4	8,6	8,4	1	1	1	1	1	1	1	1	1	0	1	-12,755462	273,817017	305,975899	0
15.01.2021	09:12:27	0	9,042172	4,632287	2,382	8,9856	-0,078	87,912	0	1013,16	6,4	8,6	8,4	1	1	1	1	1	1	1	1	1	0	1	-12,544045	273,87003	306,434223	0
15.01.2021	09:12:28	0	9,042236	3,615443	2,52225	19,1268	-0,078	87,925	0	1013,38	6,4	8,5	8,4	1	1	1	1	1	1	1	1	1	0	1	-7,188161	273,977979	312,293323	0
15.01.2021	09:12:29	0	9,280124	4,858252	2,72475	11,7	-0,074	87,924	0	1013,22	6,4	8,6	8,4	1	1	1	1	1	1	1	1	1	0	1	-11,486963	273,927626	307,759722	0
15.01.2021	09:12:30	0	8,923196	3,389478	2,7255	12,8448	-0,072	87,927	0	1013,24	6,4	8,6	8,4	1	1	1	1	1	1	1	1	1	0	1	-6,483439	273,815546	312,241075	0
15.01.2021	09:12:31	0	9,3991	3,389478	2,484	18,0684	-0,078	87,917	0	1013,24	6,6	8,6	8,4	1	1	1	1	1	1	1	1	1	0	1	-9,513742	273,929105	309,739838	0
15.01.2021	09:12:32	0	8,923196	1,920704	2,3655	19,9944	-0,075	87,959	0	1013,52	6,4	8,6	8,4	1	1	1	1	1	1	1	1	1	0	1	-7,047216	273,814076	311,670451	0
15.01.2021	09:12:33	0	9,3991	2,937548	2,38275	17,3304	-0,075	87,933	0	1013,24	6,4	8,6	8,4	1	1	1	1	1	1	1	1	1	0	1	-10,077519	273,821429	308,674385	0
15.01.2021	09:12:34	0	8,80422	2,372635	2,47425	20,6352	-0,078	87,927	0	1013,3	6,4	8,6	8,4	1	1	1	1	1	1	1	1	1	0	1	-12,403101	273,935023	306,878066	0
15.01.2021	09:12:35	0	8,923196	4,745269	2,5635	19,4976	-0,074	87,937	0	1013,26	6,4	8,6	8,4	1	1	1	1	1	1	1	1	1	0	1	-12,755462	273,942422	306,560204	0
15.01.2021	09:12:36	0	8,804282	2,146669	2,54325	3,3948	-0,076	87,963	0	1013,56	6,4	8,5	8,4	1	1	1	1	1	1	1	1	1	0	1	-10,711769	273,825842	308,060686	0
15.01.2021	09:12:37	0	9,161148	3,841408	2,38575	19,5336	-0,075	87,925	0	1013,2	6,4	8,6	8,4	1	1	1	1	1	1	1	1	1	0	1	-9,231853	273,942422	310,083812	0
15.01.2021	09:12:38	0	8,80422	3,841385	2,136	13,9212	-0,076	87,934	0	1013,1	6,4	8,6	8,5	1	1	1	1	1	1	1	1	1	0	1	-8,245243	273,868555	310,726156	0
15.01.2021	09:12:39	0	9,161148	4,519304	2,07375	13,158	-0,074	87,939	0	1013,3	6,4	8,6	8,4	1	1	1	1	1	1	1	1	1	0	1	-13,812544	273,803786	304,857218	0
15.01.2021	09:12:40	0	9,3991	4,519304	2,0415	25,4196	-0,077	87,949	0	1013,24	6,4	8,6	8,4	1	1	1	1	1	1	1	1	1	0	1	-10,641297	273,929105	308,612283	0
15.01.2021	09:12:41	0	8,923196	3,954391	1,9935	6,822	-0,08	87,923	0	1013,3	6,6	8,6	8,4	1	1	1	1	1	1	1	1	1	0	1	-7,610994	273,814076	311,106674	0
15.01.2021	09:12:42	0	9,280124	4,406321	2,22075	8,6004	-0,08	87,93	0	1013,06	6,6	8,6	8,4	1	1	1	1	1	1	1	1	1	0	1	-7,681466	273,893638	311,406804	0
15.01.2021	09:12:43	0	8,80422	2,5986	2,48325	11,1996	-0,074	87,938	0	1013,26	6,4	8,6	8,4	1	1	1	1	1	1	1	1	1	0	1	-10,641297	273,831728	308,158567	0
15.01.2021	09:12:44	0	9,161212	3,841408	2,775	5,2308	-0,069	87,942	0	1013,12	6,4	8,5	8,4	1	1	1	1	1	1	1	1	1	0	1	-8,668076	273,940942	310,640689	0
15.01.2021	09:12:45	0	8,804282	4,180356	2,92575	7,5024	-0,078	87,937	0	1013,12	6,4	8,5	8,4	1	1	1	1	1	1	1	1	1	0	1	-7,188161	273,890686	311,88635	0
15.01.2021	09:12:46	0	9,042172	3,05053	2,87775	13,266	-0,081	87,95	0	1013,26	6,4	8,6	8,4	1	1	1	1	1	1	1	1	1	0	1	-5,84919	273,817017	312,882171	0
15.01.2021	09:12:47	0	9,042172	3,05053	2,67675	15,0408	-0,07	87,96	0	1013,28	6,4	8,6	8,4	1	1	1	1	1	1	1	1	1	0	1	-7,610994	273,855289	311,298607	0
15.01.2021	09:12:48	0	9,042172	4,406321	2,46525	17,6868	-0,082	87,955	0	1013,24	6,4	8,6	8,4	1	1	1	1	1	1	1	1	1	0	1	-6,8358	273,920233	312,376418	0
15.01.2021	09:12:49	0	9,280124	4,745269	2,391	10,4436	-0,075	87,954	0	1013,22	6,4	8,6	8,4	1	1	1	1	1	1	1	1	1	0	1	-8,174771	273,932064	311,092601	0
15.01.2021	09:12:50	0	8,923196	4,406321	2,481	20,6316	-0,075	87,955	0	1013,26	6,6	8,6	8,4	1	1	1	1	1	1	1	1	1	0	1	-10,077519	273,901022	309,04516	0
15.01.2021	09:12:51	0	8,685245	3,163513	2,529	12,0924	-0,078	87,956	0	1013,16	6,4	8,6	8,4	1	1	1	1	1	1	1	1	1	0	1	-4,439746	273,963156	314,972601	0
15.01.2021	09:12:52	0	9,280189	4,406321	2,72025	13,9068	-0,073	87,956	0	1013,12	6,4	8,5	8,4	1	1	1	1	1	1	1	1	1	0	1	-8,104299	273,852343	310,791576	0
15.01.2021	09:12:53	0	9,161148	4,180356	2,76	2,4084	-0,074	87,949	0	1013,26	6,4	8,6	8,4	1	1	1	1	1	1	1	1	1	0	1	-8,80902	273,818487	309,929188	0
15.01.2021	09:12:54	0	9,280124	4,858252	2,85375	1,5444	-0,074	87,963	0	1013,38	6,4	8,6	8,4	1	1	1	1	1	1	1	1	1	0	1	-10,923185	273,946863	308,413187	0
15.01.2021	09:12:55	0	9,042172	3,841408	2,937	7,4916	-0,08	87,939	0	1013,24	6,4	8,6	8,4	1	1	1	1	1	1	1	1	1	0	1	-9,513742	273,827313	309,265564	0
15.01.2021	09:12:56	0	9,280124	4,406321	3,08625	5,2164	-0,075	87,954	0	1013,08	6,4	8,6	8,4	1	1	1	1	1	1	1	1	1	0	1	-7,188161	273,933543	312,086109	0
15.01.2021	09:12:57	0	9,280124	3,728426	3,21675	360	-0,079	87,958	0	1013,3	6,4	8,6	8,4	1	1	1	1	1	1	1	1	1	0	1	-7,751938	273,982429	311,750299	0
15.01.2021	09:12:58	0	9,518076	3,05053	3,23625	5,7564	-0,073	87,958	0	1013,3	6,4	8,6	8,4	1	1	1	1	1	1	1	1	1	0	1	-6,694856	273,861184	312,242204	0
15.01.2021	09:12:59	0	8,923196	2,485617	3,06225	0	-0,077	87,957	0	1013,24	6,4	8,6	8,4	1	1	1	1	1	1	1	1	1	0	1	-6,342495	273,75975	312,122309	0
15.01.2021	09:13:00	0	9,161148	3,841408	2,946	12,1716	-0,077	87,945	0	1013,32	6,6	8,6	8,4	1	1	1	1	1	1	1	1	1	0	1	-9,795631	273,856763	309,120834	0
15.01.2021	09:13:01	0	9,161148	3,841408	2,946	12,1716	-0,077	87,945	0	1013,32	6,6	8,6	8,4	1	1	1	1	1	1	1	1	1	0	1	-9,795631	273,856763	309,120834	0
15.01.2021	09:13:02	0	9,042236	4,293339	2,88	1,5552	-0,071	87,955	0	1013,22	6,4	8,5	8,4	1	1	1	1	1	1	1	1	1	0	1	-7,681466	273,92319	311,544537	0
15.01.2021	09:13:03	0	9,042236	5,423165	2,64675	22,4568	-0,071	87,964	0	1013,38	6,4	8,5	8,4	1	1	1	1	1	1	1	1	1	0	1	-8,738548	273,975014	310,729103	0
15.01.2021	09:13:04	0	9,161148	3,502461	2,3925	13,914	-0,076	87,947	0	1013,3	6,6	8,6	8,4	1	1	1	1	1	1	1	1	1	0	1	-12,121212	273,932064	307,14616	0
15.01.2021	09:13:05	0	8,923196	3,389478	2,41875	5,2848	-0,076	87,963	0	1013,3	6,4	8,6	8,4	1	1	1	1	1	1	1	1	1	0	1	-9,936575	273,805256	308,740029	0
15.01.2021	09:13:06	0	9,3991	4,632287	2,4375	8,2656	-0,074	87,954	0	1013,24	6,4	8,6	8,4	1	1	1	1	1	1	1	1	1	0	1	-5,778717	273,917276	313,419718	0
15.01.2021	09:13:07	0	8,923196	2,824565	2,41425	0,4968	-0,073	87,966	0	1013,28	6,4	8,6	8,4	1	1	1	1	1	1	1	1	1	0	1	-5,144468	273,519337	312,203118	0
15.01.2021	09:13:08	0	9,3991	3,841408	2,475	7,5996	-0,078	87,956	0	1013,28	6,4	8,6	8,4	1	1	1	1	1	1	1	1	1	0	1	-8,245243	273,84056	310,595753	0
15.01.2021	09:13:09	0	9,161148	5,1972	2,3445	12,8484	-0,076	87,965	0	1013,32	6,4	8,6	8,4	1	1	1	1	1	1	1	1	1	0	1	-5,21494	273,949825	314,13524	0
15.01.2021	09:13:10	0	9,518143	5,084217	2,145	15,3864	-0,078	87,961	0	1013,14	6,4	8,5	8,4	1	1	1	1	1	1	1	1	1	0	1	-9,090909	273,946863	310,245464	0
15.01.2021	09:13:11	0	8,923196	2,711582	1,99725	13,5504	-0,075	87,964	0	1013,24	6,6	8,6	8,4	1	1	1	1	1	1	1	1	1	0	1	-4,721635	273,828785	314,064523	0
15.01.2021	09:13:12	0	8,80422	4,293339	1,839	16,8444	-0,072	87,968	0	1013,08	6,4	8,6	8,4	1	1	1	1	1	1	1	1	1	0	1	-9,020437	273,985395	310,495639	0
15.01.2021	09:13:13	0	9,280124	2,372635	1,82475	0	-0,074	87,951	0	1012,98	6,6	8,6	8,4	1	1	1	1	1	1	1	1	1	0	1	-4,580691	273,861184	314,356369	0
15.01.2021	09:13:14	0	8,923196	3,163513	1,827	10,062	-0,076	87,965	0	1013,18	6,4	8,6	8,4	1	1	1	1	1	1	1	1	1	0	1	-5,708245	273,821429	313,04366	0
15.01.2021	09:13:15	0	9,518076	2,711582	2,103	9,3636	-0,074	87,962	0	1013,24	6,6	8,6	8,4	1	1	1	1	1	1	1	1	1	0	1	-14,65821	273,948344	304,685066	0
15.01.2021	09:13:16	0	8,804282	2,824565	2,2425	12,8556	-0,074	87,936	0	1013,24	6,4	8,5	8,4	1	1	1	1	1	1	1	1	1	0	1	-8,386187	273,921711	310,832922	0
15.01.2021	09:13:17	0	8,923196	4,293339	2,12925	11,7108	-0,079	87,945	0	1013,22	6,6	8,6	8,4	1	1	1	1	1	1	1	1	1	0	1	-9,302326	273,961674	310,103112	0
15.01.2021	09:13:18	0	9,3991	4,971234	1,9665	10,0512	-0,075	87,958	0	1013,24	6,4	8,6	8,4	1	1	1	1	1	1	1	1	1	0	1	-11,839323	273,937982	307,455641	0
15.01.2021	09:13:19	0	9,042172	3,954391	1,90875	7,8696	-0,074	87,964	0	1013,34	6,6	8,6	8,4	1	1	1	1	1	1	1	1	1	0	1	-6,553911	273,911364	312,616968	0
15.01.2021	09:13:20	0	9,042172	4,745269	1,90725	7,8768	-0,079	87,958	0	1013,36	6,4	8,6	8,4	1	1	1	1	1	1	1	1	1	0	1	-8,033827	273,812606	310,676995	0
15.01.2021	09:13:21	0	9,3991	4,745269	1,929	9,7452	-0,075	87,961	0	1013,28	6,4	8,6	8,4	1	1	1	1	1	1	1	1	1	0	1	-6,412967	273,929105	312,840613	0
15.01.2021	09:13:22	0	9,042172	3,502461	1,93275	18,4536	-0,074	87,966	0	1013,3	6,4	8,6	8,4	1	1	1	1	1	1	1	1	1	0	1	-18,675123	273,936503	300,612942	0
15.01.2021	09:13:23	0	9,280124	3,954391	1,9455	13,914	-0,078	87,948	0	1013,44	6,6	8,6	8,4	1	1	1	1	1	1	1	1	1	0	1	-4,087385	273,985395	315,42869	0
15.01.2021	09:13:24	0	9,161212	3,841408	1,884	12,8556	-0,078	87,952	0	1013,22	6,6	8,5	8,4	1	1	1	1	1	1	1	1	1	0	1	-5,567301	273,872979	313,424709	0
15.01.2021	09:13:25	0	8,80422	4,067374	1,8585	12,1824	-0,077	87,963	0	1013,26	6,6	8,6	8,4	1	1	1	1	1	1	1	1	1	0	1	-8,386187	273,828785	310,39997	0
15.01.2021	09:13:26	0	9,161148	4,971234	1,78125	19,5264	-0,069	87,969	0	1013,3	6,4	8,6	8,4	1	1	1	1	1	1	1	1	1	0	1	-13,883016	273,937982	305,411948	0
15.01.2021	09:13:27	0	8,923259	3,389478	1,80975	17,694	-0,079	87,966	0	1013,34	6,4	8,5	8,4	1	1	1	1	1	1	1	1	1	0	1	-4,721635	273,918754	314,483691	0
15.01.2021	09:13:28	0	9,042172	4,180356	1,85625	7,884	-0,079	87,967	0	1013,28	6,4	8,6	8,4	1	1	1	1	1	1	1	1	1	0	1	-3,523608	273,79644	315,111955	0
15.01.2021	09:13:29	0	9,518076	4,971234	1,96875	7,5996	-0,074	87,954	0	1013,28	6,4	8,6	8,4	1	1	1	1	1	1	1	1	1	0	1	-9,020437	273,933543	310,253832	0
15.01.2021	09:13:30	0	8,923196	3,389478	2,145	0,486	-0,082	87,971	0	1013,44	6,4	8,6	8,4	1	1	1	1	1	1	1	1	1	0	1	-9,161381	273,805256	309,515223	0
15.01.2021	09:13:31	0	9,518143	4,858252	2,205	353,934	-0,073	87,961	0	1013,36	6,4	8,5	8,4	1	1	1	1	1	1	1	1	1	0	1	-12,05074	273,942422	307,264926	0
15.01.2021	09:13:32	0	8,923259	4,406321	2,19675	354,762	-0,073	87,98	0	1013,18	6,4	8,5	8,4	1	1	1	1	1	1	1	1	1	0	1	-8,668076	273,977979	310,813407	0
15.01.2021	09:13:33	0	9,3991	2,937548	2,23425	355,878	-0,071	87,975	0	1013,28	6,4	8,6	8,4	1	1	1	1	1	1	1	1	1	0	1	-1,550388	273,84056	317,290608	0
15.01.2021	09:13:34	0	9,3991	4,067374	2,29725	349,8516	-0,074	87,974	0	1013,18	6,4	8,6	8,4	1	1	1	1	1	1	1	1	1	0	1	-6,131078	273,858237	312,792251	0
15.01.2021	09:13:35	0	9,042172	3,163513	2,28075	10,8036	-0,078	87,973	0	1013,32	6,6	8,6	8,4	1	1	1	1	1	1	1	1	1	0	1	-8,80902	273,817017	309,92234	0
15.01.2021	09:13:36	0	9,637052	4,632287	2,22375	354,9744	-0,078	87,965	0	1013,2	6,4	8,6	8,4	1	1	1	1	1	1	1	1	1	0	1	-10,077519	273,875929	308,928234	0
15.01.2021	09:13:37	0	9,042236	2,711582	2,21175	11,6856	-0,074	87,955	0	1013,24	6,4	8,5	8,4	1	1	1	1	1	1	1	1	1	0	1	-5,778717	273,980945	313,716601	0
15.01.2021	09:13:38	0	9,161212	3,163513	2,28975	8,6076	-0,069	87,982	0	1013,38	6,4	8,5	8,4	1	1	1	1	1	1	1	1	1	0	1	-8,386187	273,909886	310,777804	0
15.01.2021	09:13:39	0	9,042172	4,406321	2,37075	1,5516	-0,081	87,973	0	1013,18	6,4	8,6	8,4	1	1	1	1	1	1	1	1	1	0	1	-5,144468	273,969084	314,295526	0
15.01.2021	09:13:40	0	9,042172	4,180356	2,45925	6,0696	-0,074	87,994	0	1013,14	6,4	8,6	8,4	1	1	1	1	1	1	1	1	1	0	1	-7,399577	273,973531	312,061159	0
15.01.2021	09:13:41	0	8,923196	4,632287	2,42475	12,8556	-0,076	87,98	0	1013,32	6,4	8,6	8,4	1	1	1	1	1	1	1	1	1	0	1	-11,134602	273,942422	308,181064	0
15.01.2021	09:13:42	0	9,280124	4,745269	2,32725	16,4736	-0,071	87,975	0	1013,2	6,6	8,6	8,4	1	1	1	1	1	1	1	1	1	0	1	-12,191684	273,817017	306,539676	0
15.01.2021	09:13:43	0	9,280124	4,858252	2,18775	12,8376	-0,082	87,98	0	1013,22	6,6	8,6	8,4	1	1	1	1	1	1	1	1	1	0	1	-7,892882	273,946863	311,44349	0
15.01.2021	09:13:44	0	9,042172	4,519304	2,214	7,5132	-0,076	87,978	0	1013,26	6,4	8,6	8,4	1	1	1	1	1	1	1	1	1	0	1	-9,936575	273,920233	309,275643	0
15.01.2021	09:13:45	0	9,042236	4,632287	2,47575	9,3528	-0,079	87,987	0	1013,32	6,4	8,5	8,4	1	1	1	1	1	1	1	1	1	0	1	-2,677942	273,967602	316,755139	0
15.01.2021	09:13:46	0	9,161212	3,502461	2,7	0,8676	-0,075	87,983	0	1013,4	6,4	8,5	8,4	1	1	1	1	1	1	1	1	1	0	1	-8,45666	273,901022	310,66602	0
15.01.2021	09:13:47	0	9,399166	3,276495	2,733	2,3904	-0,076	87,995	0	1013,38	6,4	8,5	8,4	1	1	1	1	1	1	1	1	1	0	1	-8,668076	273,983912	310,84108	0
15.01.2021	09:13:48	0	8,923259	3,163513	2,78175	9,7596	-0,073	87,987	0	1013,28	6,6	8,5	8,4	1	1	1	1	1	1	1	1	1	0	1	-6,553911	273,856763	312,362553	0
15.01.2021	09:13:49	0	9,399166	2,5986	2,76975	8,2656	-0,071	87,983	0	1013,36	6,4	8,5	8,4	1	1	1	1	1	1	1	1	1	0	1	-5,990134	273,828785	312,796024	0
15.01.2021	09:13:50	0	9,042236	3,05053	2,91075	2,6316	-0,07	87,981	0	1013,28	6,6	8,5	8,4	1	1	1	1	1	1	1	1	1	0	1	-7,610994	273,948344	311,732283	0
15.01.2021	09:13:51	0	9,161148	4,745269	3,2565	1,9188	-0,075	87,991	0	1013,24	6,4	8,6	8,4	1	1	1	1	1	1	1	1	1	0	1	-8,174771	273,967602	311,258311	0
15.01.2021	09:13:52	0	9,518076	4,745269	3,28275	2,6496	-0,075	87,981	0	1013,22	6,4	8,6	8,4	1	1	1	1	1	1	1	1	1	0	1	-10,993658	273,948344	308,349619	0
15.01.2021	09:13:53	0	9,280124	3,276495	3,192	16,8516	-0,073	87,996	0	1013,32	6,6	8,6	8,4	1	1	1	1	1	1	1	1	1	0	1	-5,567301	273,915798	313,624244	0
15.01.2021	09:13:54	0	9,042172	4,971234	2,89275	2,2896	-0,074	87,988	0	1013,26	6,4	8,6	8,4	1	1	1	1	1	1	1	1	1	0	1	-4,651163	273,805256	314,025441	0
15.01.2021	09:13:55	0	9,637052	4,745269	2,643	10,44	-0,071	87,992	0	1013,3	6,4	8,6	8,4	1	1	1	1	1	1	1	1	1	0	1	-7,047216	273,936503	312,240849	0
15.01.2021	09:13:56	0	8,923259	4,406321	2,59425	6,0732	-0,076	87,985	0	1013,26	6,4	8,5	8,4	1	1	1	1	1	1	1	1	1	0	1	-5,426357	273,961674	313,979081	0
15.01.2021	09:13:57	0	9,161148	3,728426	2,72175	11,7108	-0,068	87,995	0	1013,28	6,4	8,6	8,4	1	1	1	1	1	1	1	1	1	0	1	-0	273,8332	318,806717	0
15.01.2021	09:13:58	0	9,161148	4,745269	2,72775	9,8388	-0,077	87,987	0	1013,18	6,6	8,6	8,4	1	1	1	1	1	1	1	1	1	0	1	-8,315715	273,846451	310,552715	0
15.01.2021	09:13:59	0	9,3991	3,389478	2,74425	9,234	-0,069	87,995	0	1013,22	6,4	8,6	8,4	1	1	1	1	1	1	1	1	1	0	1	-8,527132	273,821429	310,224773	0
15.01.2021	09:14:00	0	9,280189	3,841408	2,48175	10,8036	-0,07	88,002	0	1013,18	6,6	8,5	8,4	1	1	1	1	1	1	1	1	1	0	1	-9,090909	273,970566	310,355998	0
15.01.2021	09:14:01	0	9,280189	3,841408	2,48175	10,8036	-0,07	88,002	0	1013,18	6,6	8,5	8,4	1	1	1	1	1	1	1	1	1	0	1	-9,090909	273,970566	310,355998	0
15.01.2021	09:14:02	0	9,399166	3,05053	2,2575	25,3944	-0,074	88,005	0	1013,18	6,4	8,5	8,4	1	1	1	1	1	1	1	1	1	0	1	-8,527132	273,861184	310,409928	0
15.01.2021	09:14:03	0	9,161212	2,937548	2,2035	23,22	-0,076	87,995	0	1013,26	6,6	8,5	8,4	1	1	1	1	1	1	1	1	1	0	1	-11,275546	273,824371	307,490058	0
15.01.2021	09:14:04	0	9,518076	4,406321	2,1855	11,7108	-0,078	87,994	0	1013,3	6,6	8,6	8,4	1	1	1	1	1	1	1	1	1	0	1	-6,906272	273,935023	312,374895	0
15.01.2021	09:14:05	0	9,161212	2,937548	2,33175	24,714	-0,071	87,994	0	1013,28	6,6	8,5	8,4	1	1	1	1	1	1	1	1	1	0	1	-11,134602	273,969084	308,305392	0
15.01.2021	09:14:06	0	9,280189	3,728426	2,35725	26,1576	-0,072	87,994	0	1013,44	6,6	8,5	8,4	1	1	1	1	1	1	1	1	1	0	1	-5,708245	273,8332	313,098472	0
15.01.2021	09:14:07	0	9,3991	4,406321	2,2995	16,0776	-0,069	88,003	0	1013,34	6,4	8,6	8,4	1	1	1	1	1	1	1	1	1	0	1	-6,8358	273,917276	312,362636	0
15.01.2021	09:14:08	0	9,161148	3,276495	2,17275	9,7452	-0,075	88,008	0	1013,24	6,6	8,6	8,4	1	1	1	1	1	1	1	1	1	0	1	-7,258633	273,802317	311,404288	0
15.01.2021	09:14:09	0	9,161212	3,389478	2,16975	13,9104	-0,071	87,998	0	1013,28	6,4	8,5	8,4	1	1	1	1	1	1	1	1	1	0	1	-12,684989	273,899545	306,430807	0
15.01.2021	09:14:10	0	9,3991	3,05053	2,33925	11,1924	-0,069	87,989	0	1013,3	6,6	8,6	8,4	1	1	1	1	1	1	1	1	1	0	1	-7,117689	273,982429	312,384548	0
15.01.2021	09:14:11	0	9,399166	4,858252	2,38875	15,7752	-0,078	87,99	0	1013,22	6,4	8,5	8,4	1	1	1	1	1	1	1	1	1	0	1	-11,698379	273,88921	307,369253	0
15.01.2021	09:14:12	0	9,280124	3,276495	2,394	2,2896	-0,077	87,976	0	1013,3	6,6	8,6	8,4	1	1	1	1	1	1	1	1	1	0	1	-6,694856	273,802317	311,968065	0
15.01.2021	09:14:13	0	9,280124	4,293339	2,424	21,3768	-0,073	87,996	0	1013,32	6,6	8,6	8,4	1	1	1	1	1	1	1	1	1	0	1	-7,610994	273,903976	311,525454	0
15.01.2021	09:14:14	0	9,280189	4,632287	2,4225	14,2992	-0,073	87,999	0	1013,3	6,4	8,5	8,4	1	1	1	1	1	1	1	1	1	0	1	-7,188161	273,825842	311,584294	0
15.01.2021	09:14:15	0	9,161148	3,728426	2,6325	356,5152	-0,075	87,996	0	1013,26	6,4	8,6	8,4	1	1	1	1	1	1	1	1	1	0	1	-11,346018	273,91432	307,838638	0
15.01.2021	09:14:16	0	9,280124	3,728426	2,79525	17,2368	-0,075	88	0	1013,38	6,4	8,6	8,4	1	1	1	1	1	1	1	1	1	0	1	-9,795631	273,972049	309,658191	0
15.01.2021	09:14:17	0	9,280189	2,824565	2,7945	5,6736	-0,071	88,005	0	1013,24	6,6	8,5	8,4	1	1	1	1	1	1	1	1	1	0	1	-4,510218	273,837616	314,317064	0
15.01.2021	09:14:18	0	9,399166	4,519304	2,81475	6,0516	-0,074	88,007	0	1013,32	6,4	8,5	8,4	1	1	1	1	1	1	1	1	1	0	1	-11,275546	273,815546	307,448968	0
15.01.2021	09:14:19	0	9,280124	4,067374	2,96625	10,8072	-0,073	88,001	0	1013,22	6,4	8,6	8,4	1	1	1	1	1	1	1	1	1	0	1	-4,087385	273,940942	315,221379	0
15.01.2021	09:14:20	0	9,161212	3,954391	2,997	14,3136	-0,076	87,994	0	1013,14	6,4	8,5	8,4	1	1	1	1	1	1	1	1	1	0	1	-8,033827	273,930585	311,226649	0
15.01.2021	09:14:21	0	9,399166	4,971234	2,97675	7,4988	-0,071	88,001	0	1013,24	6,6	8,5	8,4	1	1	1	1	1	1	1	1	1	0	1	-7,892882	273,797909	310,749519	0
15.01.2021	09:14:22	0	9,637052	4,180356	2,8545	19,6236	-0,07	87,998	0	1013,3	6,6	8,6	8,4	1	1	1	1	1	1	1	1	1	0	1	-4,580691	273,87003	314,397578	0
15.01.2021	09:14:23	0	9,3991	4,519304	2,6985	8,9964	-0,07	88,002	0	1013,18	6,4	8,6	8,4	1	1	1	1	1	1	1	1	1	0	1	-11,980268	273,970566	307,46664	0
15.01.2021	09:14:24	0	9,399166	4,519304	2,568	13,914	-0,078	87,998	0	1013,18	6,4	8,5	8,4	1	1	1	1	1	1	1	1	1	0	1	-4,721635	273,886258	314,332242	0
15.01.2021	09:14:25	0	9,161212	3,841408	2,42925	5,2164	-0,07	88,002	0	1013,28	6,4	8,5	8,4	1	1	1	1	1	1	1	1	1	0	1	-5,778717	273,825842	312,993737	0
15.01.2021	09:14:26	0	9,63712	4,180356	2,238	3,7836	-0,073	88,008	0	1013,32	6,6	8,5	8,4	1	1	1	1	1	1	1	1	1	0	1	-6,8358	273,933543	312,438469	0
15.01.2021	09:14:27	0	9,399166	3,502461	2,16225	7,8732	-0,077	87,995	0	1013,28	6,4	8,5	8,4	1	1	1	1	1	1	1	1	1	0	1	-6,624383	273,958711	312,767236	0
15.01.2021	09:14:28	0	9,3991	4,406321	2,226	7,1172	-0,077	87,995	0	1013,34	6,4	8,6	8,4	1	1	1	1	1	1	1	1	1	0	1	-3,946441	273,797909	314,69596	0
15.01.2021	09:14:29	0	9,161212	2,711582	2,32875	10,5372	-0,075	88,011	0	1013,08	6,4	8,5	8,4	1	1	1	1	1	1	1	1	1	0	1	-5,496829	273,850869	313,392184	0
15.01.2021	09:14:30	0	9,518143	3,502461	2,523	12,474	-0,073	87,998	0	1013,28	6,6	8,5	8,4	1	1	1	1	1	1	1	1	1	0	1	-6,976744	273,976497	312,497823	0
15.01.2021	09:14:31	0	9,3991	4,971234	2,706	11,7108	-0,072	88,004	0	1013,36	6,4	8,6	8,4	1	1	1	1	1	1	1	1	1	0	1	-11,698379	273,846451	307,170051	0
15.01.2021	09:14:32	0	9,042236	3,954391	2,88825	6,426	-0,068	88,004	0	1013,38	6,6	8,5	8,4	1	1	1	1	1	1	1	1	1	0	1	-4,369274	273,800847	314,286806	0
15.01.2021	09:14:33	0	9,518143	4,406321	2,87175	15,0336	-0,072	88,003	0	1013,34	6,4	8,5	8,4	1	1	1	1	1	1	1	1	1	0	1	-5,708245	273,940942	313,600519	0
15.01.2021	09:14:34	0	9,399166	3,163513	2,74425	15,0192	-0,073	88,003	0	1013,36	6,4	8,5	8,4	1	1	1	1	1	1	1	1	1	0	1	-9,654686	273,84056	309,186309	0
15.01.2021	09:14:35	0	9,399166	4,971234	2,56425	13,9176	-0,071	88,005	0	1013,28	6,4	8,5	8,4	1	1	1	1	1	1	1	1	1	0	1	-9,302326	273,954267	310,068572	0
15.01.2021	09:14:36	0	9,280124	4,519304	2,6685	16,092	-0,068	87,993	0	1013,3	6,4	8,6	8,4	1	1	1	1	1	1	1	1	1	0	1	-6,060606	273,92319	313,165396	0
15.01.2021	09:14:37	0	9,280189	4,180356	2,751	10,8216	-0,078	88,004	0	1013,24	6,4	8,5	8,4	1	1	1	1	1	1	1	1	1	0	1	-5,637773	273,809665	313,05936	0
15.01.2021	09:14:38	0	9,280124	2,824565	2,71725	2,2896	-0,07	88,001	0	1013,16	6,6	8,6	8,4	1	1	1	1	1	1	1	1	1	0	1	-7,82241	273,867081	311,14212	0
15.01.2021	09:14:39	0	9,399166	3,954391	2,78775	9,3636	-0,069	87,995	0	1013,26	6,4	8,5	8,4	1	1	1	1	1	1	1	1	1	0	1	-11,134602	273,937982	308,160363	0
15.01.2021	09:14:40	0	9,3991	4,406321	2,76525	8,6076	-0,068	87,982	0	1013,16	6,4	8,6	8,4	1	1	1	1	1	1	1	1	1	0	1	-5,144468	273,992814	314,406216	0
15.01.2021	09:14:41	0	9,518143	3,502461	2,622	359,5032	-0,072	88	0	1013,34	6,4	8,5	8,4	1	1	1	1	1	1	1	1	1	0	1	-7,399577	273,915798	311,791968	0
15.01.2021	09:14:42	0	9,518076	4,293339	2,5935	353,97	-0,074	87,993	0	1013,22	6,4	8,6	8,4	1	1	1	1	1	1	1	1	1	0	1	-14,65821	273,969084	304,781784	0
15.01.2021	09:14:43	0	9,161212	3,05053	2,64075	351,0576	-0,073	87,987	0	1013,28	6,6	8,5	8,4	1	1	1	1	1	1	1	1	1	0	1	-8,668076	273,920233	310,544142	0
15.01.2021	09:14:44	0	9,280189	2,937548	2,64075	3,024	-0,072	87,999	0	1013,14	6,6	8,5	8,4	1	1	1	1	1	1	1	1	1	0	1	-6,553911	273,79644	312,081652	0
15.01.2021	09:14:45	0	9,756096	2,824565	2,577	1,5444	-0,069	87,999	0	1013,4	6,6	8,5	8,4	1	1	1	1	1	1	1	1	1	0	1	-8,245243	273,88921	310,822389	0
15.01.2021	09:14:46	0	9,3991	2,824565	2,61	12,0924	-0,076	87,991	0	1013,2	6,4	8,6	8,4	1	1	1	1	1	1	1	1	1	0	1	-8,668076	273,961674	310,737362	0
15.01.2021	09:14:47	0	9,63712	2,937548	2,7105	6,8184	-0,073	88,004	0	1013,18	6,6	8,5	8,4	1	1	1	1	1	1	1	1	1	0	1	-4,721635	273,930585	314,538841	0
15.01.2021	09:14:48	0	9,3991	4,180356	2,78925	2,3976	-0,071	88,003	0	1013,34	6,4	8,6	8,4	1	1	1	1	1	1	1	1	1	0	1	-8,80902	273,819958	309,936036	0
15.01.2021	09:14:49	0	9,99398	4,180356	2,9295	355,3632	-0,074	88,012	0	1013,3	6,4	8,6	8,4	1	1	1	1	1	1	1	1	1	0	1	-5,990134	273,862658	312,953793	0
15.01.2021	09:14:50	0	9,280124	3,615443	2,9265	5,6988	-0,067	88,011	0	1013,38	6,6	8,6	8,4	1	1	1	1	1	1	1	1	1	0	1	-5,285412	273,800847	313,370668	0
15.01.2021	09:14:51	0	9,756096	4,180356	2,90325	6,4224	-0,078	87,984	0	1013,24	6,4	8,5	8,4	1	1	1	1	1	1	1	1	1	0	1	-9,654686	273,948344	309,68859	0
15.01.2021	09:14:52	0	9,3991	2,485617	3,17325	2,6244	-0,068	88,004	0	1013,44	6,6	8,6	8,4	1	1	1	1	1	1	1	1	1	0	1	-7,258633	273,905453	311,8847	0
15.01.2021	09:14:53	0	9,756096	3,05053	3,53175	7,1172	-0,067	88,008	0	1013,36	6,6	8,5	8,4	1	1	1	1	1	1	1	1	1	0	1	-8,245243	273,815546	310,479271	0
15.01.2021	09:14:54	0	9,63712	2,937548	3,648	12,4632	-0,071	88,016	0	1013,22	6,6	8,5	8,4	1	1	1	1	1	1	1	1	1	0	1	-11,06413	273,898068	308,044784	0
15.01.2021	09:14:55	0	9,637052	3,389478	3,6135	9,0936	-0,071	87,999	0	1013,36	6,4	8,6	8,4	1	1	1	1	1	1	1	1	1	0	1	-11,768851	273,803786	306,900911	0
15.01.2021	09:14:56	0	9,756096	3,841408	3,6615	7,5024	-0,08	88,009	0	1013,24	6,4	8,5	8,4	1	1	1	1	1	1	1	1	1	0	1	-9,513742	273,946863	309,822631	0
15.01.2021	09:14:57	0	9,518143	3,502461	3,6255	14,6484	-0,07	87,995	0	1013,32	6,6	8,5	8,4	1	1	1	1	1	1	1	1	1	0	1	-6,906272	273,960193	312,492256	0
15.01.2021	09:14:58	0	9,63712	3,728448	3,426	4,0752	-0,074	88,022	0	1013,24	6,4	8,5	8,3	1	1	1	1	1	1	1	1	1	0	1	-4,087385	273,803786	314,582377	0
15.01.2021	09:14:59	0	9,875004	4,519304	3,321	4,8456	-0,072	88,024	0	1013,18	6,4	8,6	8,4	1	1	1	1	1	1	1	1	1	0	1	-10,359408	273,819958	308,385648	0
15.01.2021	09:15:00	0	10,112956	5,084217	2,91975	18,8172	-0,072	88,002	0	1013,38	6,4	8,6	8,4	1	1	1	1	1	1	1	1	1	0	1	-8,80902	273,839088	310,025118	0
15.01.2021	09:15:01	0	10,112956	5,084217	2,91975	18,8172	-0,072	88,002	0	1013,38	6,4	8,6	8,4	1	1	1	1	1	1	1	1	1	0	1	-8,80902	273,839088	310,025118	0
15.01.2021	09:15:02	0	9,875073	5,536147	2,80275	30,7044	-0,071	88,027	0	1013,4	6,4	8,5	8,4	1	1	1	1	1	1	1	1	1	0	1	-6,553911	273,95723	312,8308	0
15.01.2021	09:15:03	0	9,518076	4,067374	2,68575	18,4716	-0,078	88,019	0	1013,18	6,4	8,6	8,4	1	1	1	1	1	1	1	1	1	0	1	-4,933051	273,970566	314,513856	0
15.01.2021	09:15:04	0	9,63712	3,728426	2,538	26,1864	-0,069	88,001	0	1013,18	6,6	8,5	8,4	1	1	1	1	1	1	1	1	1	0	1	-4,157858	273,92319	315,068145	0
15.01.2021	09:15:05	0	9,875073	4,067374	2,46825	19,5156	-0,075	88,016	0	1013,2	6,6	8,5	8,4	1	1	1	1	1	1	1	1	1	0	1	-5,003524	273,819958	313,741532	0
15.01.2021	09:15:06	0	9,518076	2,824548	2,529	9,756	-0,071	88,007	0	1013,32	6,6	8,6	8,5	1	1	1	1	1	1	1	1	1	0	1	-9,44327	273,814076	309,274398	0
15.01.2021	09:15:07	0	9,99405	3,954391	2,589	10,4436	-0,072	88,013	0	1013,38	6,6	8,5	8,4	1	1	1	1	1	1	1	1	1	0	1	-2,959831	273,808195	315,730458	0
15.01.2021	09:15:08	0	9,756096	3,502461	2,838	2,6532	-0,068	88,021	0	1013,34	6,6	8,5	8,4	1	1	1	1	1	1	1	1	1	0	1	-8,104299	273,903976	311,032149	0
15.01.2021	09:15:09	0	9,756096	3,05053	3,06825	360	-0,072	88,017	0	1013,18	6,6	8,5	8,4	1	1	1	1	1	1	1	1	1	0	1	-6,342495	273,837616	312,484788	0
15.01.2021	09:15:10	0	9,518143	2,5986	3,04275	12,4632	-0,073	88,009	0	1013,28	6,4	8,5	8,4	1	1	1	1	1	1	1	1	1	0	1	-6,483439	273,937982	312,811526	0
15.01.2021	09:15:11	0	9,518143	3,05053	2,8665	15,0372	-0,068	88,004	0	1013,18	6,4	8,5	8,4	1	1	1	1	1	1	1	1	1	0	1	-4,439746	273,995783	315,124785	0
15.01.2021	09:15:12	0	9,756096	2,711582	2,532	15,012	-0,075	88,014	0	1013,1	6,4	8,5	8,4	1	1	1	1	1	1	1	1	1	0	1	-9,584214	273,932064	309,683158	0
15.01.2021	09:15:13	0	9,63712	4,067374	2,616	7,8804	-0,069	88,01	0	1013,22	6,6	8,5	8,4	1	1	1	1	1	1	1	1	1	0	1	-7,399577	273,985395	312,116498	0
15.01.2021	09:15:14	0	9,99398	3,615443	2,6595	9,3636	-0,067	88,015	0	1013,38	6,4	8,6	8,4	1	1	1	1	1	1	1	1	1	0	1	-6,906272	273,898068	312,202642	0
15.01.2021	09:15:15	0	9,3991	2,824565	2,745	12,1176	-0,073	88,014	0	1013,24	6,6	8,6	8,4	1	1	1	1	1	1	1	1	1	0	1	-7,540521	273,803786	311,129241	0
15.01.2021	09:15:16	0	9,99398	4,745269	2,87475	16,0956	-0,067	88,018	0	1013,26	6,6	8,6	8,4	1	1	1	1	1	1	1	1	1	0	1	-5,073996	273,875929	313,931758	0
15.01.2021	09:15:17	0	9,63712	3,502461	3,10275	6,4332	-0,07	88,019	0	1013,22	6,4	8,5	8,4	1	1	1	1	1	1	1	1	1	0	1	-8,879493	273,819958	309,865563	0
15.01.2021	09:15:18	0	9,756096	3,728448	3,26925	360	-0,067	88,02	0	1013,22	6,4	8,5	8,3	1	1	1	1	1	1	1	1	1	0	1	-4,862579	273,929105	314,391	0
15.01.2021	09:15:19	0	10,112956	4,745269	3,168	359,1504	-0,068	88,025	0	1013,32	6,6	8,6	8,4	1	1	1	1	1	1	1	1	1	0	1	-5,84919	273,982429	313,653047	0
15.01.2021	09:15:20	0	9,875004	3,502461	3,05025	3,3804	-0,068	88,015	0	1013,38	6,6	8,6	8,4	1	1	1	1	1	1	1	1	1	0	1	-8,668076	273,817017	310,063284	0
15.01.2021	09:15:21	0	9,756028	3,276495	3,144	7,8876	-0,075	88,013	0	1013,3	6,4	8,6	8,4	1	1	1	1	1	1	1	1	1	0	1	-3,100775	273,88921	315,966857	0
15.01.2021	09:15:22	0	9,3991	3,163513	3,08175	18,0684	-0,072	88,019	0	1013,18	6,4	8,6	8,4	1	1	1	1	1	1	1	1	1	0	1	-7,751938	273,824371	311,013666	0
15.01.2021	09:15:23	0	10,113027	2,937548	2,87475	23,5692	-0,069	88,024	0	1013,28	6,6	8,5	8,4	1	1	1	1	1	1	1	1	1	0	1	-8,174771	273,834672	310,638801	0
15.01.2021	09:15:24	0	9,518143	4,519304	2,8365	14,2884	-0,069	88,008	0	1013,26	6,4	8,5	8,4	1	1	1	1	1	1	1	1	1	0	1	-5,84919	273,867081	313,11534	0
15.01.2021	09:15:25	0	9,63712	4,293339	2,84325	21,384	-0,068	88,021	0	1013,4	6,6	8,5	8,4	1	1	1	1	1	1	1	1	1	0	1	-6,765328	273,967602	312,667754	0
15.01.2021	09:15:26	0	9,99405	4,745269	2,754	17,6724	-0,069	87,999	0	1013,26	6,6	8,5	8,4	1	1	1	1	1	1	1	1	1	0	1	-8,104299	273,933543	311,16997	0
15.01.2021	09:15:27	0	9,875073	3,389478	2,71425	7,884	-0,062	88,033	0	1013,2	6,6	8,5	8,4	1	1	1	1	1	1	1	1	1	0	1	-5,778717	273,983912	313,730438	0
15.01.2021	09:15:28	0	10,112956	3,954391	2,7375	10,4472	-0,064	88,028	0	1013,3	6,4	8,6	8,4	1	1	1	1	1	1	1	1	1	0	1	-7,892882	273,963156	311,519465	0
15.01.2021	09:15:29	0	9,637052	3,276495	2,643	22,0824	-0,066	88,029	0	1013,32	6,6	8,6	8,4	1	1	1	1	1	1	1	1	1	0	1	-5,708245	273,951305	313,64884	0
15.01.2021	09:15:30	0	9,875004	4,293339	2,61975	24,4332	-0,069	88,026	0	1013,3	6,6	8,6	8,4	1	1	1	1	1	1	1	1	1	0	1	-10,077519	273,800847	308,578561	0
15.01.2021	09:15:31	0	10,232004	3,728403	2,5665	17,226	-0,069	88,031	0	1013,38	6,6	8,5	8,5	1	1	1	1	1	1	1	1	1	0	1	-12,191684	273,911364	306,979195	0
15.01.2021	09:15:32	0	9,875004	3,954391	2,61225	11,196	-0,067	88,027	0	1013,26	6,6	8,6	8,4	1	1	1	1	1	1	1	1	1	0	1	-6,8358	273,979462	312,652601	0
15.01.2021	09:15:33	0	10,113027	3,05053	2,87925	13,9248	-0,061	88,032	0	1013,32	6,4	8,5	8,4	1	1	1	1	1	1	1	1	1	0	1	-6,20155	273,865607	312,756111	0
15.01.2021	09:15:34	0	9,875004	3,841408	3,012	6,426	-0,065	88,032	0	1013,22	6,6	8,6	8,4	1	1	1	1	1	1	1	1	1	0	1	-5,778717	273,973531	313,682019	0
15.01.2021	09:15:35	0	9,756096	3,389478	3,19575	6,8076	-0,066	88,026	0	1013,06	6,4	8,5	8,4	1	1	1	1	1	1	1	1	1	0	1	-8,245243	273,893638	310,843027	0
15.01.2021	09:15:36	0	9,875073	4,406321	3,35175	7,506	-0,06	88,031	0	1013,28	6,4	8,5	8,4	1	1	1	1	1	1	1	1	1	0	1	-6,8358	273,969084	312,604194	0
15.01.2021	09:15:37	0	9,99405	3,615443	3,4395	9,3636	-0,068	88,034	0	1013,3	6,6	8,5	8,4	1	1	1	1	1	1	1	1	1	0	1	-7,258633	273,929105	311,994947	0
15.01.2021	09:15:38	0	9,875073	4,745269	3,408	6,4188	-0,064	88,034	0	1013,36	6,6	8,5	8,4	1	1	1	1	1	1	1	1	1	0	1	-7,681466	273,927626	311,565219	0
15.01.2021	09:15:39	0	9,99405	2,372635	3,2385	13,9068	-0,06	88,039	0	1013,22	6,6	8,5	8,4	1	1	1	1	1	1	1	1	1	0	1	-6,906272	273,843505	311,94844	0
15.01.2021	09:15:40	0	9,875073	3,502461	3,25725	10,0548	-0,066	88,016	0	1013,3	6,6	8,5	8,4	1	1	1	1	1	1	1	1	1	0	1	-4,933051	273,967602	314,50003	0
15.01.2021	09:15:41	0	10,112956	3,05053	3,2565	8,9856	-0,067	88,033	0	1013,22	6,4	8,6	8,4	1	1	1	1	1	1	1	1	1	0	1	-9,936575	273,839088	308,897564	0
15.01.2021	09:15:42	0	9,756096	3,05053	3,22425	13,1544	-0,062	88,033	0	1013,3	6,4	8,5	8,4	1	1	1	1	1	1	1	1	1	0	1	-7,470049	273,862658	311,473877	0
15.01.2021	09:15:43	0	9,756096	2,146669	3,126	13,5432	-0,067	88,021	0	1013,2	6,6	8,5	8,4	1	1	1	1	1	1	1	1	1	0	1	-9,44327	273,976497	310,031297	0
15.01.2021	09:15:44	0	9,99405	3,05053	2,973	15,7752	-0,069	88,029	0	1013,32	6,6	8,5	8,4	1	1	1	1	1	1	1	1	1	0	1	-5,708245	273,850869	313,180767	0
15.01.2021	09:15:45	0	9,875004	3,276495	2,8515	10,4436	-0,07	88,038	0	1013,34	6,6	8,6	8,4	1	1	1	1	1	1	1	1	1	0	1	-9,725159	273,819958	309,019898	0
15.01.2021	09:15:46	0	10,112956	4,293339	2,79375	12,0996	-0,066	88,043	0	1013,28	6,6	8,6	8,4	1	1	1	1	1	1	1	1	1	0	1	-8,738548	273,940942	310,570216	0
15.01.2021	09:15:47	0	9,756096	3,615443	2,811	9,7452	-0,066	88,041	0	1013,44	6,6	8,5	8,4	1	1	1	1	1	1	1	1	1	0	1	-14,446794	273,967602	304,986288	0
15.01.2021	09:15:48	0	10,350908	4,519304	2,712	13,1616	-0,07	88,026	0	1013,3	6,4	8,6	8,4	1	1	1	1	1	1	1	1	1	0	1	-3,805497	273,849396	315,076654	0
15.01.2021	09:15:49	0	9,875073	4,406321	2,58525	4,842	-0,066	88,04	0	1013,36	6,6	8,5	8,4	1	1	1	1	1	1	1	1	1	0	1	-7,82241	273,908408	311,334694	0
15.01.2021	09:15:50	0	9,756028	4,519304	2,69175	12,4704	-0,071	88,039	0	1013,34	6,6	8,6	8,4	1	1	1	1	1	1	1	1	1	0	1	-7,258633	273,985395	312,257443	0
15.01.2021	09:15:51	0	10,113027	4,180356	3,01275	2,6388	-0,067	88,044	0	1013,24	6,4	8,5	8,4	1	1	1	1	1	1	1	1	1	0	1	-8,597604	273,970566	310,849304	0
15.01.2021	09:15:52	0	9,99405	4,519304	3,30075	11,7144	-0,07	88,026	0	1013,16	6,4	8,5	8,4	1	1	1	1	1	1	1	1	1	0	1	-7,329105	273,877405	311,683522	0
15.01.2021	09:15:53	0	9,99405	2,711582	3,27	6,0516	-0,066	88,045	0	1013,26	6,4	8,5	8,4	1	1	1	1	1	1	1	1	1	0	1	-8,668076	273,825842	310,104379	0
15.01.2021	09:15:54	0	9,875073	2,824565	3,01575	20,6352	-0,07	88,04	0	1013,24	6,6	8,5	8,4	1	1	1	1	1	1	1	1	1	0	1	-9,725159	273,803786	308,944603	0
15.01.2021	09:15:55	0	9,99398	3,502461	3,0525	11,808	-0,067	88,053	0	1013,32	6,6	8,6	8,4	1	1	1	1	1	1	1	1	1	0	1	-4,087385	273,920233	315,124832	0
15.01.2021	09:15:56	0	9,99405	3,276495	3,36375	17,694	-0,064	88,05	0	1013,14	6,6	8,5	8,4	1	1	1	1	1	1	1	1	1	0	1	-9,654686	273,818487	309,083522	0
15.01.2021	09:15:57	0	9,756028	3,728426	3,63225	13,5396	-0,062	88,045	0	1013,3	6,6	8,6	8,4	1	1	1	1	1	1	1	1	1	0	1	-6,8358	273,893638	312,25247	0
15.01.2021	09:15:58	0	9,756096	2,711582	3,44625	12,4704	-0,061	88,052	0	1013,3	6,4	8,5	8,4	1	1	1	1	1	1	1	1	1	0	1	-6,131078	273,967602	313,302003	0
15.01.2021	09:15:59	0	10,350908	4,971205	3,26775	15,4044	-0,068	88,041	0	1013,22	6,4	8,6	8,5	1	1	1	1	1	1	1	1	1	0	1	-7,610994	273,937982	311,683971	0
15.01.2021	09:16:00	0	9,875073	3,615443	3,7635	2,6388	-0,069	88,04	0	1013,26	6,6	8,5	8,4	1	1	1	1	1	1	1	1	1	0	1	-7,117689	273,940942	312,191076	0
15.01.2021	09:16:01	0	9,875073	3,615443	3,7635	2,6388	-0,069	88,04	0	1013,26	6,6	8,5	8,4	1	1	1	1	1	1	1	1	1	0	1	-6,694856	273,805256	311,981748	0
15.01.2021	09:16:02	0	9,875004	2,937548	3,72975	15,03	-0,062	88,055	0	1013,28	6,6	8,6	8,4	1	1	1	1	1	1	1	1	1	0	1	-7,610994	273,830256	311,182017	0
15.01.2021	09:16:03	0	10,232004	3,954391	3,49725	15,84	-0,065	88,032	0	1013,2	6,6	8,5	8,4	1	1	1	1	1	1	1	1	1	0	1	-4,933051	273,930585	314,327424	0
15.01.2021	09:16:04	0	9,99405	3,502461	3,1635	17,6904	-0,063	88,056	0	1013,42	6,4	8,5	8,4	1	1	1	1	1	1	1	1	1	0	1	-12,966878	273,824371	305,798726	0
15.01.2021	09:16:05	0	10,35098	4,067374	2,91975	18,828	-0,065	88,036	0	1013,26	6,4	8,5	8,4	1	1	1	1	1	1	1	1	1	0	1	-8,597604	273,852343	310,29827	0
15.01.2021	09:16:06	0	10,469957	4,858252	2,81925	347,5116	-0,072	88,058	0	1013,26	6,6	8,5	8,4	1	1	1	1	1	1	1	1	1	0	1	-6,624383	273,977979	312,8571	0
15.01.2021	09:16:07	0	9,99405	4,858252	2,96475	1,5444	-0,072	88,026	0	1013,28	6,6	8,5	8,4	1	1	1	1	1	1	1	1	1	0	1	-8,033827	273,955749	311,343977	0
15.01.2021	09:16:08	0	9,875004	4,293339	3,10875	3,3984	-0,068	88,062	0	1013,34	6,4	8,6	8,4	1	1	1	1	1	1	1	1	1	0	1	-5,285412	273,865607	313,672249	0
15.01.2021	09:16:09	0	10,113027	4,745269	3,126	6,0444	-0,077	88,049	0	1013,12	6,6	8,5	8,4	1	1	1	1	1	1	1	1	1	0	1	-4,157858	274,001721	315,434377	0
15.01.2021	09:16:10	0	10,35098	3,841408	3,234	4,4676	-0,068	88,058	0	1013,3	6,6	8,5	8,4	1	1	1	1	1	1	1	1	1	0	1	-9,44327	273,920233	309,768948	0
15.01.2021	09:16:11	0	10,113027	3,954391	3,04875	6,426	-0,074	88,053	0	1013,2	6,6	8,5	8,4	1	1	1	1	1	1	1	1	1	0	1	-9,584214	273,96612	309,841955	0
15.01.2021	09:16:12	0	10,232004	3,728426	2,8455	350,5824	-0,067	88,042	0	1013,3	6,6	8,5	8,4	1	1	1	1	1	1	1	1	1	0	1	-6,553911	273,843505	312,3008	0
15.01.2021	09:16:13	0	9,875073	4,406321	2,78175	358,7364	-0,071	88,057	0	1013,26	6,6	8,5	8,4	1	1	1	1	1	1	1	1	1	0	1	-0,916138	273,973531	318,544598	0
15.01.2021	09:16:14	0	10,232004	4,293339	2,84175	359,4168	-0,069	88,048	0	1013,22	6,6	8,5	8,4	1	1	1	1	1	1	1	1	1	0	1	-8,386187	273,846451	310,482243	0
15.01.2021	09:16:15	0	9,756096	3,841408	2,9145	349,4376	-0,074	88,042	0	1013,08	6,6	8,5	8,4	1	1	1	1	1	1	1	1	1	0	1	-10,007047	273,88921	309,060585	0
15.01.2021	09:16:16	0	9,99398	4,519277	3,21675	0	-0,077	88,064	0	1013,36	6,6	8,6	8,5	1	1	1	1	1	1	1	1	1	0	1	-8,033827	273,982429	311,46841	0
15.01.2021	09:16:17	0	10,232004	2,937548	3,20325	0,4788	-0,068	88,06	0	1013,08	6,4	8,5	8,4	1	1	1	1	1	1	1	1	1	0	1	-4,933051	273,890686	314,14146	0
15.01.2021	09:16:18	0	9,875073	3,389478	3,12675	351,0504	-0,067	88,059	0	1013,2	6,6	8,5	8,4	1	1	1	1	1	1	1	1	1	0	1	-10,218464	273,806726	308,464982	0
15.01.2021	09:16:19	0	10,350908	3,954391	2,93925	340,2216	-0,063	88,055	0	1013,34	6,6	8,6	8,4	1	1	1	1	1	1	1	1	1	0	1	-11,205074	273,939462	308,09679	0
15.01.2021	09:16:20	0	9,99405	2,711566	2,634	352,7604	-0,065	88,065	0	1013,3	6,6	8,5	8,5	1	1	1	1	1	1	1	1	1	0	1	-5,919662	273,952786	313,444329	0
15.01.2021	09:16:21	0	10,35098	4,632287	2,52825	356,1156	-0,071	88,056	0	1013,3	6,6	8,5	8,4	1	1	1	1	1	1	1	1	1	0	1	-5,990134	273,964638	313,429124	0
15.01.2021	09:16:22	0	10,112956	3,05053	2,60925	360	-0,072	88,066	0	1013,28	6,6	8,6	8,4	1	1	1	1	1	1	1	1	1	0	1	-8,879493	273,936503	310,408573	0
15.01.2021	09:16:23	0	9,875073	4,971234	2,712	0,8352	-0,065	88,06	0	1013,26	6,6	8,5	8,4	1	1	1	1	1	1	1	1	1	0	1	-6,272023	273,961674	313,133415	0
15.01.2021	09:16:24	0	10,112956	2,824548	2,838	7,1136	-0,069	88,074	0	1013,2	6,6	8,6	8,5	1	1	1	1	1	1	1	1	1	0	1	-5,073996	273,906931	314,076222	0
15.01.2021	09:16:25	0	10,112956	4,067374	2,90925	6,4224	-0,069	88,064	0	1013,02	6,6	8,6	8,4	1	1	1	1	1	1	1	1	1	0	1	-6,342495	273,809665	312,354638	0
15.01.2021	09:16:26	0	10,232004	4,971234	3,00675	1,5624	-0,07	88,062	0	1013,34	6,6	8,5	8,4	1	1	1	1	1	1	1	1	1	0	1	-13,460183	273,909886	305,703808	0
15.01.2021	09:16:27	0	10,113027	2,5986	3,024	3,0168	-0,063	88,068	0	1013,3	6,4	8,5	8,4	1	1	1	1	1	1	1	1	1	0	1	-3,453136	273,824371	315,312468	0
15.01.2021	09:16:28	0	10,113027	2,711582	2,937	2,3076	-0,064	88,064	0	1013,28	6,6	8,5	8,4	1	1	1	1	1	1	1	1	1	0	1	-9,372798	273,892162	309,708593	0
15.01.2021	09:16:29	0	10,113027	4,519304	2,8845	7,506	-0,065	88,066	0	1013,26	6,4	8,5	8,4	1	1	1	1	1	1	1	1	1	0	1	-8,033827	273,811135	310,67015	0
15.01.2021	09:16:30	0	10,232004	2,485617	2,838	2,6568	-0,07	88,067	0	1013,18	6,6	8,5	8,4	1	1	1	1	1	1	1	1	1	0	1	-2,818887	273,87003	316,159382	0
15.01.2021	09:16:31	0	9,99405	2,937548	2,7675	5,6808	-0,07	88,056	0	1013,22	6,6	8,5	8,4	1	1	1	1	1	1	1	1	1	0	1	-7,540521	273,85971	311,389673	0
15.01.2021	09:16:32	0	10,112956	2,937548	2,62275	358,2792	-0,073	88,072	0	1013,26	6,6	8,6	8,4	1	1	1	1	1	1	1	1	1	0	1	-1,832276	273,8229	316,926478	0
15.01.2021	09:16:33	0	10,113027	4,971234	2,64525	7,2252	-0,076	88,076	0	1013,26	6,6	8,5	8,4	1	1	1	1	1	1	1	1	1	0	1	-4,298802	273,867081	314,665728	0
15.01.2021	09:16:34	0	9,99398	5,197168	2,64375	15,3972	-0,064	88,075	0	1013,28	6,6	8,6	8,5	1	1	1	1	1	1	1	1	1	0	1	-4,721635	273,979462	314,766766	0
15.01.2021	09:16:35	0	10,469957	5,084217	2,58975	10,4184	-0,068	88,074	0	1013,26	6,6	8,5	8,4	1	1	1	1	1	1	1	1	1	0	1	-7,82241	273,943903	311,500157	0
15.01.2021	09:16:36	0	10,231932	3,276495	2,7855	6,4368	-0,063	88,09	0	1013,34	6,6	8,6	8,4	1	1	1	1	1	1	1	1	1	0	1	-6,483439	273,946863	312,852934	0
15.01.2021	09:16:37	0	10,469884	4,519304	3,2625	6,822	-0,067	88,072	0	1013,36	6,6	8,6	8,4	1	1	1	1	1	1	1	1	1	0	1	-11,768851	273,821429	306,983053	0
15.01.2021	09:16:38	0	9,63712	4,406321	3,48225	3,0168	-0,061	88,088	0	1013,38	6,6	8,5	8,4	1	1	1	1	1	1	1	1	1	0	1	-5,637773	273,836144	313,182654	0
15.01.2021	09:16:39	0	9,99405	3,954391	3,5655	3,7764	-0,065	88,067	0	1013,28	6,6	8,5	8,4	1	1	1	1	1	1	1	1	1	0	1	-5,637773	273,821429	313,114132	0
15.01.2021	09:16:40	0	9,99405	2,937548	3,6	4,842	-0,067	88,058	0	1013,32	6,4	8,5	8,4	1	1	1	1	1	1	1	1	1	0	1	-2,60747	273,973531	316,853266	0
15.01.2021	09:16:41	0	9,99405	3,389478	3,45675	26,5068	-0,063	88,091	0	1013,48	6,4	8,5	8,4	1	1	1	1	1	1	1	1	1	0	1	-12,473573	273,790565	306,134642	0
15.01.2021	09:16:42	0	10,232004	4,180356	3,16575	19,5336	-0,067	88,07	0	1013,28	6,4	8,5	8,4	1	1	1	1	1	1	1	1	1	0	1	-5,637773	273,893638	313,450497	0
15.01.2021	09:16:43	0	10,112956	2,485617	3,01125	17,7048	-0,065	88,082	0	1013,16	6,6	8,6	8,4	1	1	1	1	1	1	1	1	1	0	1	-3,171247	273,808195	315,519042	0
15.01.2021	09:16:44	0	10,707911	4,745269	3,372	8,3412	-0,066	88,071	0	1013,2	6,6	8,5	8,4	1	1	1	1	1	1	1	1	1	0	1	-9,936575	273,977979	309,544908	0
15.01.2021	09:16:45	0	10,113027	4,293339	4,01175	6,4368	-0,067	88,084	0	1013,26	6,4	8,5	8,4	1	1	1	1	1	1	1	1	1	0	1	-6,131078	273,930585	313,129397	0
15.01.2021	09:16:46	0	10,469957	3,389478	4,31325	2,3076	-0,066	88,083	0	1013,32	6,6	8,5	8,4	1	1	1	1	1	1	1	1	1	0	1	-8,315715	273,824371	310,449889	0
15.01.2021	09:16:47	0	10,232004	4,067374	4,35975	8,2764	-0,072	88,064	0	1013,22	6,6	8,5	8,4	1	1	1	1	1	1	1	1	1	0	1	-10,42988	273,842033	308,417973	0
15.01.2021	09:16:48	0	10,232004	3,615443	4,26	9,738	-0,07	88,07	0	1013,16	6,6	8,5	8,4	1	1	1	1	1	1	1	1	1	0	1	-8,949965	273,803786	309,719797	0
15.01.2021	09:16:49	0	10,588934	4,406321	3,93975	8,9856	-0,065	88,084	0	1013,34	6,6	8,5	8,4	1	1	1	1	1	1	1	1	1	0	1	-7,399577	273,945383	311,929893	0
15.01.2021	09:16:50	0	10,113027	4,971234	3,74925	9,7416	-0,062	88,097	0	1013,34	6,6	8,5	8,4	1	1	1	1	1	1	1	1	1	0	1	-10,147992	273,924668	309,084904	0
15.01.2021	09:16:51	0	9,99405	3,954391	3,7095	7,5348	-0,062	88,084	0	1013,38	6,6	8,5	8,4	1	1	1	1	1	1	1	1	1	0	1	-7,188161	273,975014	312,27949	0
15.01.2021	09:16:52	0	10,113027	3,276495	3,726	11,7072	-0,063	88,086	0	1013,24	6,6	8,5	8,4	1	1	1	1	1	1	1	1	1	0	1	-5,778717	273,91432	313,405938	0
15.01.2021	09:16:53	0	9,99405	2,711582	3,633	13,914	-0,065	88,083	0	1013,34	6,6	8,5	8,4	1	1	1	1	1	1	1	1	1	0	1	-10,852713	273,821429	307,899192	0
15.01.2021	09:16:54	0	10,35098	2,824565	3,528	16,4772	-0,069	88,067	0	1013,36	6,6	8,5	8,4	1	1	1	1	1	1	1	1	1	0	1	-9,936575	273,847923	308,938715	0
15.01.2021	09:16:55	0	10,112956	3,05053	3,20775	15,4872	-0,067	88,09	0	1013,36	6,4	8,6	8,4	1	1	1	1	1	1	1	1	1	0	1	-10,852713	273,942422	308,462953	0
15.01.2021	09:16:56	0	10,113027	4,067374	3,1065	1,1736	-0,071	88,085	0	1013,32	6,6	8,5	8,4	1	1	1	1	1	1	1	1	1	0	1	-5,990134	273,8229	312,76862	0
15.01.2021	09:16:57	0	10,232004	4,745269	3,1245	3,7656	-0,068	88,083	0	1013,4	6,6	8,5	8,4	1	1	1	1	1	1	1	1	1	0	1	-5,567301	273,91432	313,617355	0
15.01.2021	09:16:58	0	9,99405	3,954391	2,955	8,2692	-0,069	88,084	0	1013,3	6,6	8,5	8,4	1	1	1	1	1	1	1	1	1	0	1	-5,21494	273,864132	313,735854	0
15.01.2021	09:16:59	0	10,113027	4,858252	2,87775	10,4364	-0,071	88,089	0	1013,22	6,6	8,5	8,4	1	1	1	1	1	1	1	1	1	0	1	-4,087385	274,001721	315,504849	0
15.01.2021	09:17:00	0	9,99405	2,824548	2,78925	17,244	-0,067	88,084	0	1013,28	6,6	8,5	8,5	1	1	1	1	1	1	1	1	1	0	1	-9,513742	273,886258	309,540135	0
15.01.2021	09:17:01	0	9,99405	2,824548	2,78925	17,244	-0,067	88,084	0	1013,28	6,6	8,5	8,5	1	1	1	1	1	1	1	1	1	0	1	-10,782241	273,803786	307,887521	0
15.01.2021	09:17:02	0	10,350908	3,05053	2,67	21,7584	-0,067	88,071	0	1013,3	6,6	8,6	8,4	1	1	1	1	1	1	1	1	1	0	1	-7,329105	273,91432	311,855551	0
15.01.2021	09:17:03	0	9,99405	2,711582	2,52825	26,5248	-0,072	88,074	0	1013,3	6,6	8,5	8,4	1	1	1	1	1	1	1	1	1	0	1	-7,258633	273,817017	311,472728	0
15.01.2021	09:17:04	0	9,99405	2,937548	2,343	20,2752	-0,062	88,091	0	1013,3	6,3	8,5	8,4	1	1	1	1	1	1	1	1	1	0	1	-11,698379	273,926147	307,541411	0
15.01.2021	09:17:05	0	10,232004	3,954391	2,36025	15,4008	-0,066	88,08	0	1013,44	6,6	8,5	8,4	1	1	1	1	1	1	1	1	1	0	1	-13,742072	273,986879	305,780924	0
15.01.2021	09:17:06	0	10,35098	4,406295	2,54175	10,0512	-0,068	88,089	0	1013,32	6,6	8,5	8,5	1	1	1	1	1	1	1	1	1	0	1	-9,513742	273,843505	309,34097	0
15.01.2021	09:17:07	0	10,113027	3,276495	2,7105	17,694	-0,065	88,086	0	1013,3	6,6	8,5	8,4	1	1	1	1	1	1	1	1	1	0	1	-6,342495	273,99133	313,201266	0
15.01.2021	09:17:08	0	9,99405	4,180331	2,817	359,9316	-0,063	88,087	0	1013,26	6,6	8,5	8,5	1	1	1	1	1	1	1	1	1	0	1	-5,708245	273,831728	313,091618	0
15.01.2021	09:17:09	0	10,232004	3,50244	2,7405	7,1172	-0,066	88,075	0	1013,26	6,6	8,5	8,5	1	1	1	1	1	1	1	1	1	0	1	-2,043693	273,933543	317,230576	0
15.01.2021	09:17:10	0	10,113027	4,180356	2,60475	356,8968	-0,066	88,093	0	1013,32	6,6	8,5	8,4	1	1	1	1	1	1	1	1	1	0	1	-8,45666	273,995783	311,107872	0
15.01.2021	09:17:11	0	10,113027	4,406321	2,54175	1,5336	-0,068	88,079	0	1013,3	6,6	8,5	8,4	1	1	1	1	1	1	1	1	1	0	1	-12,403101	273,926147	306,836689	0
15.01.2021	09:17:12	0	10,113027	3,728426	2,436	2,6424	-0,064	88,09	0	1013,22	6,6	8,5	8,4	1	1	1	1	1	1	1	1	1	0	1	-7,258633	273,814076	311,459035	0
15.01.2021	09:17:13	0	10,113027	3,841408	2,39475	3,3768	-0,073	88,082	0	1013,22	6,6	8,5	8,4	1	1	1	1	1	1	1	1	1	0	1	-10,077519	273,940942	309,231245	0
15.01.2021	09:17:14	0	10,113027	3,502461	2,3475	0,1296	-0,065	88,083	0	1013,36	6,6	8,5	8,4	1	1	1	1	1	1	1	1	1	0	1	-1,479915	273,881831	317,553334	0
15.01.2021	09:17:15	0	10,113027	2,485602	2,39775	8,6112	-0,062	88,106	0	1013,34	6,6	8,5	8,5	1	1	1	1	1	1	1	1	1	0	1	-8,597604	273,979462	310,890797	0
15.01.2021	09:17:16	0	10,232004	3,954415	2,51025	7,8804	-0,066	88,092	0	1013,3	6,6	8,5	8,3	1	1	1	1	1	1	1	1	1	0	1	-10,993658	273,940942	308,315107	0
15.01.2021	09:17:17	0	9,99405	3,163513	2,57475	14,2992	-0,066	88,088	0	1013,3	6,6	8,5	8,4	1	1	1	1	1	1	1	1	1	0	1	-7,892882	273,99133	311,650878	0
15.01.2021	09:17:18	0	10,232004	3,502461	2,53125	10,7964	-0,067	88,082	0	1013,2	6,6	8,5	8,4	1	1	1	1	1	1	1	1	1	0	1	-10,570825	273,917276	308,627611	0
15.01.2021	09:17:19	0	9,99405	3,163513	2,34	16,4772	-0,066	88,098	0	1013,36	6,6	8,5	8,4	1	1	1	1	1	1	1	1	1	0	1	-8,245243	273,980945	311,250075	0
15.01.2021	09:17:20	0	10,469957	2,937548	2,27025	9,7416	-0,062	88,087	0	1013,28	6,6	8,5	8,4	1	1	1	1	1	1	1	1	1	0	1	-6,342495	273,861184	312,594565	0
15.01.2021	09:17:21	0	10,113027	3,276515	2,25	359,9784	-0,065	88,08	0	1013,34	6,4	8,5	8,3	1	1	1	1	1	1	1	1	1	0	1	-2,466526	273,976497	317,008041	0
15.01.2021	09:17:22	0	9,99405	4,406321	2,21175	1,5444	-0,064	88,076	0	1013,28	6,6	8,5	8,4	1	1	1	1	1	1	1	1	1	0	1	-9,44327	273,977979	310,038214	0
15.01.2021	09:17:23	0	10,231932	4,519304	2,2395	3,4056	-0,065	88,097	0	1013,2	6,4	8,6	8,4	1	1	1	1	1	1	1	1	1	0	1	-11,06413	273,92319	308,161873	0
15.01.2021	09:17:24	0	10,113027	2,824565	2,1885	0,4752	-0,074	88,072	0	1013,32	6,6	8,5	8,4	1	1	1	1	1	1	1	1	1	0	1	-4,933051	273,79644	313,702511	0
15.01.2021	09:17:25	0	10,350908	3,502461	2,1735	3,762	-0,065	88,091	0	1013,34	6,6	8,6	8,4	1	1	1	1	1	1	1	1	1	0	1	-6,976744	273,893638	312,111526	0
15.01.2021	09:17:26	0	10,113027	2,711582	2,24175	3,7728	-0,043	88,08	0	1013,46	6,6	8,5	8,4	1	1	1	1	1	1	1	1	1	0	1	-12,121212	273,982429	307,381025	0
15.01.2021	09:17:27	0	10,35098	4,406321	2,376	10,0584	-0,066	88,091	0	1013,32	6,6	8,5	8,4	1	1	1	1	1	1	1	1	1	0	1	-7,892882	273,920233	311,319335	0
15.01.2021	09:17:28	0	10,350908	4,632287	2,52675	12,1896	-0,072	88,073	0	1013,22	6,6	8,6	8,4	1	1	1	1	1	1	1	1	1	0	1	-6,624383	273,989846	312,912455	0
15.01.2021	09:17:29	0	10,588934	4,745269	2,60925	11,6856	-0,069	88,095	0	1013,28	6,6	8,5	8,4	1	1	1	1	1	1	1	1	1	0	1	-6,412967	273,858237	312,510362	0
15.01.2021	09:17:30	0	9,99405	2,259652	2,625	10,4328	-0,066	88,089	0	1013,32	6,4	8,5	8,4	1	1	1	1	1	1	1	1	1	0	1	-6,131078	273,921711	313,088031	0
15.01.2021	09:17:31	0	10,232004	3,502461	2,58975	12,8304	-0,064	88,101	0	1013,38	6,6	8,5	8,4	1	1	1	1	1	1	1	1	1	0	1	-7,963354	273,825842	310,8091	0
15.01.2021	09:17:32	0	10,232004	4,406321	2,43075	11,7144	-0,063	88,101	0	1013,3	6,6	8,5	8,4	1	1	1	1	1	1	1	1	1	0	1	-4,721635	273,899545	314,394161	0
15.01.2021	09:17:33	0	10,232004	3,389478	2,30625	4,0824	-0,072	88,092	0	1013,32	6,6	8,5	8,4	1	1	1	1	1	1	1	1	1	0	1	-3,59408	273,983912	315,915075	0
15.01.2021	09:17:34	0	10,469957	4,293339	2,259	0,4824	-0,07	88,085	0	1013,2	6,6	8,5	8,4	1	1	1	1	1	1	1	1	1	0	1	-4,22833	273,906931	314,921888	0
15.01.2021	09:17:35	0	10,113027	5,1972	2,28675	18,8352	-0,065	88,096	0	1013,34	6,6	8,5	8,4	1	1	1	1	1	1	1	1	1	0	1	-7,329105	273,948344	312,014171	0
15.01.2021	09:17:36	0	10,58886	3,389478	2,27325	14,652	-0,07	88,091	0	1013,2	6,6	8,6	8,4	1	1	1	1	1	1	1	1	1	0	1	-7,470049	274,015088	312,184556	0
15.01.2021	09:17:37	0	10,469957	4,745269	2,13825	18,45	-0,063	88,074	0	1013,32	6,6	8,5	8,4	1	1	1	1	1	1	1	1	1	0	1	-9,654686	273,872979	309,337323	0
15.01.2021	09:17:38	0	10,35098	3,163513	1,92075	20,6172	-0,07	88,093	0	1013,36	6,6	8,5	8,4	1	1	1	1	1	1	1	1	1	0	1	-2,536998	273,8332	316,269719	0
15.01.2021	09:17:39	0	10,112956	2,937548	2,0145	9,45	-0,061	88,096	0	1013,44	6,6	8,6	8,4	1	1	1	1	1	1	1	1	1	0	1	-7,82241	273,942422	311,493256	0
15.01.2021	09:17:40	0	10,113027	5,084217	2,45775	18,828	-0,065	88,097	0	1013,38	6,6	8,5	8,4	1	1	1	1	1	1	1	1	1	0	1	-7,610994	273,988363	311,918923	0
15.01.2021	09:17:41	0	10,469957	3,05053	2,5425	13,5396	-0,068	88,1	0	1013,22	6,6	8,5	8,4	1	1	1	1	1	1	1	1	1	0	1	-6,8358	273,87003	312,142469	0
15.01.2021	09:17:42	0	10,113027	2,824565	2,41425	10,0476	-0,062	88,094	0	1013,46	6,6	8,5	8,4	1	1	1	1	1	1	1	1	1	0	1	-9,161381	273,824371	309,604223	0
15.01.2021	09:17:43	0	10,35098	4,632287	2,36025	4,4712	-0,068	88,108	0	1013,46	6,6	8,5	8,4	1	1	1	1	1	1	1	1	1	0	1	-7,399577	273,948344	311,943699	0
15.01.2021	09:17:44	0	9,99405	3,954367	2,39625	8,6436	-0,068	88,096	0	1013,12	6,6	8,5	8,5	1	1	1	1	1	1	1	1	1	0	1	-7,399577	273,872979	311,592433	0
15.01.2021	09:17:45	0	10,232004	4,180381	2,44725	7,2108	-0,07	88,086	0	1013,32	6,6	8,5	8,3	1	1	1	1	1	1	1	1	1	0	1	-9,513742	273,994298	310,043865	0
15.01.2021	09:17:46	0	10,113027	5,084217	2,56425	10,0656	-0,064	88,104	0	1013,3	6,4	8,5	8,4	1	1	1	1	1	1	1	1	1	0	1	-7,82241	273,935023	311,458757	0
15.01.2021	09:17:47	0	10,232004	4,406321	2,715	7,8696	-0,065	88,097	0	1013,36	6,6	8,5	8,4	1	1	1	1	1	1	1	1	1	0	1	-10,42988	273,998751	309,148502	0
15.01.2021	09:17:48	0	10,588934	4,406321	2,6835	18,0756	-0,065	88,097	0	1013,36	6,6	8,5	8,4	1	1	1	1	1	1	1	1	1	0	1	-7,610994	273,943903	311,711574	0
15.01.2021	09:17:49	0	10,232004	3,841385	2,61975	19,1664	-0,063	88,109	0	1013,34	6,6	8,5	8,5	1	1	1	1	1	1	1	1	1	0	1	-7,117689	273,992814	312,432995	0
15.01.2021	09:17:50	0	10,469957	3,502482	2,5215	16,0992	-0,063	88,099	0	1013,32	6,6	8,5	8,3	1	1	1	1	1	1	1	1	1	0	1	-7,751938	273,942422	311,563728	0
15.01.2021	09:17:51	0	10,113027	2,485602	2,391	24,3648	-0,066	88,094	0	1013,32	6,6	8,5	8,5	1	1	1	1	1	1	1	1	1	0	1	-7,470049	273,986879	312,052947	0
15.01.2021	09:17:52	0	10,113027	4,293339	2,43975	19,5156	-0,065	88,103	0	1013,34	6,6	8,5	8,4	1	1	1	1	1	1	1	1	1	0	1	-9,090909	273,814076	309,626758	0
15.01.2021	09:17:53	0	10,232004	4,180356	2,39325	10,4364	-0,066	88,112	0	1013,32	6,6	8,5	8,4	1	1	1	1	1	1	1	1	1	0	1	-9,231853	273,983912	310,277302	0
15.01.2021	09:17:54	0	10,232004	4,632287	2,41125	17,694	-0,062	88,112	0	1013,32	6,6	8,5	8,4	1	1	1	1	1	1	1	1	1	0	1	-11,909796	273,973531	307,55094	0
15.01.2021	09:17:55	0	10,469957	3,954391	2,53275	11,7216	-0,065	88,101	0	1013,38	6,6	8,5	8,4	1	1	1	1	1	1	1	1	1	0	1	-4,087385	273,930585	315,17309	0
15.01.2021	09:17:56	0	10,113027	2,824565	2,69175	26,8884	-0,07	88,095	0	1013,24	6,6	8,5	8,4	1	1	1	1	1	1	1	1	1	0	1	-9,725159	273,815546	308,999355	0
15.01.2021	09:17:57	0	10,58886	4,067374	2,7675	4,9104	-0,065	88,096	0	1013,28	6,6	8,6	8,4	1	1	1	1	1	1	1	1	1	0	1	-8,104299	273,898068	311,004615	0
15.01.2021	09:17:58	0	10,35098	2,824565	3,132	9,7524	-0,067	88,104	0	1013,3	6,6	8,5	8,4	1	1	1	1	1	1	1	1	1	0	1	-8,738548	273,821429	310,013357	0
15.01.2021	09:17:59	0	10,35098	3,728426	3,033	12,474	-0,064	88,08	0	1013,26	6,6	8,5	8,4	1	1	1	1	1	1	1	1	1	0	1	-11,346018	273,935023	307,935149	0
15.01.2021	09:18:00	0	10,113027	4,632287	2,75625	8,622	-0,058	88,103	0	1013,34	6,6	8,5	8,4	1	1	1	1	1	1	1	1	1	0	1	-10,218464	273,815546	308,50605	0
15.01.2021	09:18:01	0	10,113027	4,632287	2,75625	8,622	-0,058	88,103	0	1013,34	6,6	8,5	8,4	1	1	1	1	1	1	1	1	1	0	1	-10,218464	273,815546	308,50605	0
15.01.2021	09:18:02	0	10,469957	4,180331	2,646	0,8676	-0,063	88,102	0	1013,28	6,6	8,5	8,5	1	1	1	1	1	1	1	1	1	0	1	-6,694856	273,912842	312,482911	0
15.01.2021	09:18:03	0	10,232004	2,711582	2,63775	14,3136	-0,07	88,106	0	1013,28	6,6	8,5	8,4	1	1	1	1	1	1	1	1	1	0	1	-5,496829	273,979462	313,991572	0
15.01.2021	09:18:04	0	9,99405	3,050512	2,65875	2,0052	-0,066	88,114	0	1013,42	6,6	8,5	8,5	1	1	1	1	1	1	1	1	1	0	1	-10,288936	273,982429	309,213301	0
15.01.2021	09:18:05	0	10,232004	3,954391	2,6595	9,4212	-0,061	88,104	0	1013,3	6,6	8,5	8,4	1	1	1	1	1	1	1	1	1	0	1	-7,399577	273,843505	311,455134	0
15.01.2021	09:18:06	0	10,232004	3,163513	2,7315	14,2992	-0,063	88,094	0	1013,24	6,6	8,5	8,4	1	1	1	1	1	1	1	1	1	0	1	-8,45666	273,808195	310,23363	0
15.01.2021	09:18:07	0	10,588934	4,971234	2,721	12,096	-0,062	88,104	0	1013,12	6,6	8,5	8,4	1	1	1	1	1	1	1	1	1	0	1	-8,879493	273,880355	310,146882	0
15.01.2021	09:18:08	0	10,232004	3,050512	2,676	13,5468	-0,06	88,112	0	1013,48	6,6	8,5	8,5	1	1	1	1	1	1	1	1	1	0	1	-4,087385	273,986879	315,43561	0
15.01.2021	09:18:09	0	10,588934	3,841408	2,5935	6,4224	-0,064	88,108	0	1013,28	6,6	8,5	8,4	1	1	1	1	1	1	1	1	1	0	1	-7,963354	273,874454	311,035527	0
15.01.2021	09:18:10	0	10,113027	3,954391	2,53725	13,9104	-0,065	88,114	0	1013,52	6,6	8,5	8,4	1	1	1	1	1	1	1	1	1	0	1	-10,42988	273,842033	308,417973	0
15.01.2021	09:18:11	0	10,469957	3,502461	2,397	16,4916	-0,067	88,1	0	1013,38	6,6	8,5	8,4	1	1	1	1	1	1	1	1	1	0	1	-13,601128	273,899545	305,514669	0
15.01.2021	09:18:12	0	10,113027	3,276476	2,30325	19,152	-0,063	88,102	0	1013,24	6,6	8,5	8,5	1	1	1	1	1	1	1	1	1	0	1	-11,557435	273,8332	307,249283	0
15.01.2021	09:18:13	0	10,469957	3,615443	2,23575	18,8316	-0,067	88,097	0	1013,44	6,6	8,5	8,4	1	1	1	1	1	1	1	1	1	0	1	-10,641297	273,972049	308,812525	0
15.01.2021	09:18:14	0	10,113027	3,05053	2,2095	6,066	-0,064	88,086	0	1013,28	6,6	8,5	8,4	1	1	1	1	1	1	1	1	1	0	1	-9,231853	273,8332	309,574864	0
15.01.2021	09:18:15	0	10,469957	4,858252	2,3445	8,262	-0,043	88,121	0	1013,42	6,6	8,5	8,4	1	1	1	1	1	1	1	1	1	0	1	-6,976744	273,84056	311,864252	0
15.01.2021	09:18:16	0	9,875004	3,954367	2,39175	2,0412	-0,065	88,089	0	1013,46	6,6	8,6	8,5	1	1	1	1	1	1	1	1	1	0	1	-6,20155	273,939462	313,100314	0
15.01.2021	09:18:17	0	10,35098	3,163513	2,4435	3,7728	-0,067	88,112	0	1013,38	6,6	8,5	8,4	1	1	1	1	1	1	1	1	1	0	1	-8,527132	273,827313	310,252174	0
15.01.2021	09:18:18	0	10,231932	3,728448	2,61	9,3708	-0,062	88,108	0	1013,24	6,6	8,6	8,3	1	1	1	1	1	1	1	1	1	0	1	-4,510218	273,945383	314,819251	0
15.01.2021	09:18:19	0	10,469884	5,1972	2,649	18,8388	-0,068	88,111	0	1013,26	6,6	8,6	8,4	1	1	1	1	1	1	1	1	1	0	1	-3,382664	273,982429	316,119573	0
15.01.2021	09:18:20	0	10,469884	4,406321	2,76375	8,9928	-0,066	88,118	0	1013,3	6,6	8,6	8,4	1	1	1	1	1	1	1	1	1	0	1	-7,117689	273,865607	311,839973	0
15.01.2021	09:18:21	0	10,113027	2,372635	2,98425	18,8424	-0,064	88,122	0	1013,42	6,6	8,5	8,4	1	1	1	1	1	1	1	1	1	0	1	-9,936575	273,821429	308,81533	0
15.01.2021	09:18:22	0	10,469957	4,632287	3,0855	7,4988	-0,066	88,105	0	1013,08	6,6	8,5	8,4	1	1	1	1	1	1	1	1	1	0	1	-5,144468	273,842033	313,703385	0
15.01.2021	09:18:23	0	10,112956	2,711566	3,14325	358,7076	-0,062	88,117	0	1013,36	6,6	8,6	8,5	1	1	1	1	1	1	1	1	1	0	1	-7,399577	273,827313	311,379729	0
15.01.2021	09:18:24	0	10,35098	4,632287	3,0345	7,9704	-0,061	88,117	0	1013,24	6,6	8,5	8,4	1	1	1	1	1	1	1	1	1	0	1	-6,483439	273,954267	312,887458	0
15.01.2021	09:18:25	0	10,232004	4,519304	2,958	4,086	-0,059	88,125	0	1013,44	6,6	8,5	8,4	1	1	1	1	1	1	1	1	1	0	1	-10,147992	273,96612	309,278178	0
15.01.2021	09:18:26	0	10,35098	3,50244	2,99175	17,2224	-0,064	88,13	0	1013,2	6,6	8,5	8,5	1	1	1	1	1	1	1	1	1	0	1	-9,302326	273,842033	309,545528	0
15.01.2021	09:18:27	0	10,232004	3,163513	2,87775	15,4692	-0,066	88,123	0	1013,4	6,6	8,5	8,4	1	1	1	1	1	1	1	1	1	0	1	-7,82241	273,88921	311,245222	0
15.01.2021	09:18:28	0	10,35098	4,971205	2,7855	19,5192	-0,065	88,121	0	1013,34	6,6	8,5	8,5	1	1	1	1	1	1	1	1	1	0	1	-7,188161	273,995783	312,376371	0
15.01.2021	09:18:29	0	10,35098	3,163494	2,7	356,1624	-0,066	88,112	0	1013,2	6,6	8,5	8,5	1	1	1	1	1	1	1	1	1	0	1	-8,597604	273,85971	310,33259	0
15.01.2021	09:18:30	0	10,588934	4,180356	2,676	353,214	-0,066	88,121	0	1013,24	6,6	8,5	8,4	1	1	1	1	1	1	1	1	1	0	1	-3,664553	273,818487	315,073655	0
15.01.2021	09:18:31	0	10,113027	2,711582	2,65275	1,1844	-0,067	88,125	0	1013,32	6,6	8,5	8,4	1	1	1	1	1	1	1	1	1	0	1	-4,933051	273,871505	314,052087	0
15.01.2021	09:18:32	0	10,231932	2,824565	2,547	358,7652	-0,065	88,108	0	1013,34	6,6	8,6	8,4	1	1	1	1	1	1	1	1	1	0	1	-7,963354	273,815546	310,761159	0
15.01.2021	09:18:33	0	10,469957	3,615421	2,41575	7,11	-0,066	88,138	0	1013,3	6,6	8,5	8,5	1	1	1	1	1	1	1	1	1	0	1	-7,258633	273,858237	311,664696	0
15.01.2021	09:18:34	0	10,469957	5,1972	2,4525	5,6916	-0,068	88,131	0	1013,22	6,6	8,5	8,4	1	1	1	1	1	1	1	1	1	0	1	-11,205074	273,834672	307,608498	0
15.01.2021	09:18:35	0	10,469884	4,858252	2,565	10,1556	-0,063	88,133	0	1013,3	6,6	8,6	8,4	1	1	1	1	1	1	1	1	1	0	1	-5,84919	273,99133	313,694571	0
15.01.2021	09:18:36	0	10,469957	3,389478	2,67525	8,2656	-0,064	88,124	0	1013,32	6,6	8,5	8,4	1	1	1	1	1	1	1	1	1	0	1	-10,782241	273,884782	308,264759	0
15.01.2021	09:18:37	0	10,707911	3,276495	2,7195	356,202	-0,062	88,116	0	1013,3	6,6	8,5	8,4	1	1	1	1	1	1	1	1	1	0	1	-2,889359	273,834672	315,924213	0
15.01.2021	09:18:38	0	10,469957	3,615443	2,73975	6,4296	-0,062	88,128	0	1013,4	6,6	8,5	8,4	1	1	1	1	1	1	1	1	1	0	1	-3,030303	273,867081	315,934227	0
15.01.2021	09:18:39	0	10,232004	4,406321	2,8695	7,128	-0,068	88,131	0	1013,12	6,6	8,5	8,4	1	1	1	1	1	1	1	1	1	0	1	-3,171247	273,958711	316,220372	0
15.01.2021	09:18:40	0	10,826887	3,954391	2,874	4,824	-0,064	88,122	0	1013,28	6,6	8,5	8,4	1	1	1	1	1	1	1	1	1	0	1	-7,188161	273,969084	312,251834	0
15.01.2021	09:18:41	0	10,469957	4,745241	2,78775	6,066	-0,061	88,129	0	1013,4	6,6	8,5	8,5	1	1	1	1	1	1	1	1	1	0	1	-7,540521	273,87003	311,437747	0
15.01.2021	09:18:42	0	10,35098	3,615421	2,7405	9,7488	-0,066	88,138	0	1013,38	6,6	8,5	8,5	1	1	1	1	1	1	1	1	1	0	1	-8,174771	274,006175	311,438248	0
15.01.2021	09:18:43	0	10,588934	4,067374	2,682	13,9212	-0,066	88,119	0	1013,36	6,6	8,5	8,4	1	1	1	1	1	1	1	1	1	0	1	-10,218464	273,865607	308,739198	0
15.01.2021	09:18:44	0	10,232004	2,937548	2,562	2,6388	-0,067	88,127	0	1013,3	6,6	8,5	8,4	1	1	1	1	1	1	1	1	1	0	1	-5,073996	273,834672	313,739576	0
15.01.2021	09:18:45	0	10,58886	4,519304	2,5515	11,196	-0,063	88,126	0	1013,28	6,6	8,6	8,4	1	1	1	1	1	1	1	1	1	0	1	-4,651163	273,961674	314,754275	0
15.01.2021	09:18:46	0	10,469884	2,824565	2,55675	8,262	-0,061	88,128	0	1013,36	6,6	8,6	8,4	1	1	1	1	1	1	1	1	1	0	1	-7,751938	273,874454	311,246943	0
15.01.2021	09:18:47	0	10,35098	4,632287	2,4915	12,9132	-0,064	88,114	0	1013,44	6,6	8,5	8,4	1	1	1	1	1	1	1	1	1	0	1	-5,778717	274,001721	313,813517	0
15.01.2021	09:18:48	0	10,469957	4,519304	2,415	10,0656	-0,062	88,139	0	1013,32	6,6	8,5	8,4	1	1	1	1	1	1	1	1	1	0	1	-13,460183	273,87888	305,559317	0
15.01.2021	09:18:49	0	10,588934	3,276476	2,319	360	-0,066	88,127	0	1013,32	6,6	8,5	8,5	1	1	1	1	1	1	1	1	1	0	1	-8,668076	274,038875	311,097539	0
15.01.2021	09:18:50	0	10,113027	3,05053	2,30775	2,2752	-0,061	88,13	0	1013,22	6,6	8,5	8,4	1	1	1	1	1	1	1	1	1	0	1	-7,610994	273,817017	311,120367	0
15.01.2021	09:18:51	0	10,469957	3,502461	2,29425	0,4932	-0,064	88,135	0	1013,32	6,6	8,5	8,4	1	1	1	1	1	1	1	1	1	0	1	-5,567301	273,828785	313,218857	0
15.01.2021	09:18:52	0	10,826887	5,31015	2,316	360	-0,064	88,112	0	1013,26	6,6	8,5	8,5	1	1	1	1	1	1	1	1	1	0	1	-6,553911	273,830256	312,239099	0
15.01.2021	09:18:53	0	10,826887	2,598584	2,337	7,506	-0,065	88,122	0	1013,26	6,6	8,5	8,5	1	1	1	1	1	1	1	1	1	0	1	-4,157858	273,84056	314,683138	0
15.01.2021	09:18:54	0	10,35098	3,841385	2,35125	4,0824	-0,06	88,125	0	1013,4	6,6	8,5	8,5	1	1	1	1	1	1	1	1	1	0	1	-12,684989	273,872979	306,30702	0
15.01.2021	09:18:55	0	10,35098	3,954367	2,39475	5,2164	-0,064	88,12	0	1013,36	6,6	8,5	8,5	1	1	1	1	1	1	1	1	1	0	1	-8,033827	273,998751	311,544555	0
15.01.2021	09:18:56	0	10,35098	4,519331	2,4765	360	-0,065	88,128	0	1013,38	6,6	8,5	8,3	1	1	1	1	1	1	1	1	1	0	1	-6,483439	273,937982	312,811526	0
15.01.2021	09:18:57	0	10,232004	3,954367	2,4255	5,6808	-0,064	88,122	0	1013,3	6,6	8,5	8,5	1	1	1	1	1	1	1	1	1	0	1	-3,946441	273,831728	314,853422	0
15.01.2021	09:18:58	0	10,35098	3,728426	2,406	354,06	-0,066	88,105	0	1013,22	6,6	8,5	8,4	1	1	1	1	1	1	1	1	1	0	1	-7,047216	273,952786	312,316775	0
15.01.2021	09:18:59	0	10,232004	3,050548	2,595	14,6412	-0,061	88,13	0	1013,36	6,6	8,5	8,3	1	1	1	1	1	1	1	1	1	0	1	-8,104299	273,819958	310,640757	0
15.01.2021	09:19:00	0	10,231932	4,067374	2,361	15,786	-0,062	88,127	0	1013,3	6,6	8,6	8,4	1	1	1	1	1	1	1	1	1	0	1	-5,637773	273,912842	313,539994	0
15.01.2021	09:19:01	0	10,231932	4,067374	2,361	15,786	-0,062	88,127	0	1013,3	6,6	8,6	8,4	1	1	1	1	1	1	1	1	1	0	1	-5,637773	273,912842	313,539994	0
15.01.2021	09:19:02	0	10,826812	5,31015	2,2365	6,8004	-0,058	88,138	0	1013,3	6,6	8,6	8,5	1	1	1	1	1	1	1	1	1	0	1	-3,100775	273,969084	316,339219	0
15.01.2021	09:19:03	0	10,35098	3,276476	2,14725	11,6964	-0,057	88,129	0	1013,36	6,6	8,5	8,5	1	1	1	1	1	1	1	1	1	0	1	-6,483439	273,881831	312,54981	0
15.01.2021	09:19:04	0	10,469957	2,5986	2,232	10,4616	-0,059	88,137	0	1013,42	6,6	8,5	8,4	1	1	1	1	1	1	1	1	1	0	1	-10,077519	273,817017	308,653841	0
15.01.2021	09:19:05	0	10,35098	4,067374	2,31375	5,22	-0,058	88,135	0	1013,42	6,4	8,5	8,4	1	1	1	1	1	1	1	1	1	0	1	-1,550388	273,948344	317,792889	0
15.01.2021	09:19:06	0	10,35098	4,293339	2,3205	10,8072	-0,064	88,13	0	1013,4	6,6	8,5	8,4	1	1	1	1	1	1	1	1	1	0	1	-0,422833	273,988363	319,107084	0
15.01.2021	09:19:07	0	10,35098	4,519304	2,31	3,8484	-0,068	88,131	0	1013,42	6,6	8,5	8,4	1	1	1	1	1	1	1	1	1	0	1	-6,412967	273,87003	312,565302	0
15.01.2021	09:19:08	0	10,35098	3,05053	2,265	3,0348	-0,065	88,135	0	1013,26	6,6	8,5	8,4	1	1	1	1	1	1	1	1	1	0	1	-12,473573	273,836144	306,346854	0
15.01.2021	09:19:09	0	10,35098	3,389458	2,2665	10,0476	-0,068	88,128	0	1013,34	6,6	8,5	8,5	1	1	1	1	1	1	1	1	1	0	1	-5,708245	273,875929	313,297508	0
15.01.2021	09:19:10	0	10,469957	3,728403	2,3625	12,0924	-0,059	88,14	0	1013,22	6,6	8,5	8,5	1	1	1	1	1	1	1	1	1	0	1	-7,963354	273,834672	310,850217	0
15.01.2021	09:19:11	0	10,707911	4,180356	2,42475	16,0992	-0,061	88,138	0	1013,42	6,6	8,5	8,4	1	1	1	1	1	1	1	1	1	0	1	-4,087385	273,828785	314,698772	0
15.01.2021	09:19:12	0	10,826887	5,084186	2,415	19,1448	-0,067	88,147	0	1013,34	6,6	8,5	8,5	1	1	1	1	1	1	1	1	1	0	1	-7,399577	273,940942	311,909188	0
15.01.2021	09:19:13	0	10,588934	3,954367	2,2095	22,068	-0,063	88,127	0	1013,44	6,6	8,5	8,5	1	1	1	1	1	1	1	1	1	0	1	-5,990134	273,979462	313,498267	0
15.01.2021	09:19:14	0	10,35098	2,93753	2,076	17,226	-0,065	88,137	0	1013,34	6,6	8,5	8,5	1	1	1	1	1	1	1	1	1	0	1	-11,980268	273,994298	307,577339	0
15.01.2021	09:19:15	0	10,588934	4,745269	1,90575	19,1484	-0,061	88,149	0	1013,32	6,6	8,5	8,4	1	1	1	1	1	1	1	1	1	0	1	-6,765328	273,945383	312,564142	0
15.01.2021	09:19:16	0	10,826887	4,406348	1,887	15,3936	-0,066	88,136	0	1013,36	6,6	8,5	8,3	1	1	1	1	1	1	1	1	1	0	1	-12,614517	274,009146	307,012361	0
15.01.2021	09:19:17	0	10,707911	3,615443	1,88925	16,8372	-0,066	88,131	0	1013,36	6,6	8,5	8,4	1	1	1	1	1	1	1	1	1	0	1	-8,033827	273,949825	311,316354	0
15.01.2021	09:19:18	0	10,469884	4,745241	2,03475	10,8216	-0,061	88,15	0	1013,42	6,6	8,6	8,5	1	1	1	1	1	1	1	1	1	0	1	-5,426357	273,951305	313,930729	0
15.01.2021	09:19:19	0	10,469957	4,067374	2,15475	7,128	-0,055	88,143	0	1013,42	6,6	8,5	8,4	1	1	1	1	1	1	1	1	1	0	1	-6,553911	273,830256	312,239099	0
15.01.2021	09:19:20	0	10,469957	3,163513	2,14275	11,7108	-0,062	88,135	0	1013,44	6,6	8,5	8,4	1	1	1	1	1	1	1	1	1	0	1	-7,963354	273,890686	311,111157	0
15.01.2021	09:19:21	0	10,707911	4,858252	2,19	12,4704	-0,059	88,143	0	1013,38	6,6	8,5	8,4	1	1	1	1	1	1	1	1	1	0	1	-6,624383	273,985395	312,891692	0
15.01.2021	09:19:22	0	10,826887	3,841408	2,1915	6,426	-0,061	88,133	0	1013,42	6,6	8,5	8,4	1	1	1	1	1	1	1	1	1	0	1	-11,486963	273,95723	307,897749	0
15.01.2021	09:19:23	0	10,588934	3,163494	2,2635	16,11	-0,054	88,158	0	1013,5	6,6	8,5	8,5	1	1	1	1	1	1	1	1	1	0	1	-11,41649	273,880355	307,609884	0
15.01.2021	09:19:24	0	10,35098	4,632287	2,247	21,7584	-0,062	88,151	0	1013,4	6,6	8,5	8,4	1	1	1	1	1	1	1	1	1	0	1	-10,007047	273,994298	309,55056	0
15.01.2021	09:19:25	0	10,945864	3,276515	2,0925	21,78	-0,062	88,14	0	1013,36	6,6	8,5	8,3	1	1	1	1	1	1	1	1	1	0	1	-11,346018	273,881831	307,687231	0
15.01.2021	09:19:26	0	10,232004	2,711582	1,944	22,7988	-0,055	88,154	0	1013,42	6,6	8,5	8,4	1	1	1	1	1	1	1	1	1	0	1	-4,369274	273,828785	314,416884	0
15.01.2021	09:19:27	0	10,826887	3,389498	1,77525	18,4536	-0,059	88,147	0	1013,28	6,6	8,5	8,3	1	1	1	1	1	1	1	1	1	0	1	-6,060606	273,92319	313,165396	0
15.01.2021	09:19:28	0	10,35098	3,389498	1,7415	14,3028	-0,058	88,157	0	1013,36	6,6	8,5	8,3	1	1	1	1	1	1	1	1	1	0	1	-6,906272	273,967602	312,52681	0
15.01.2021	09:19:29	0	10,58886	2,937548	1,77675	20,2788	-0,064	88,135	0	1013,3	6,6	8,6	8,4	1	1	1	1	1	1	1	1	1	0	1	-7,82241	273,862658	311,121516	0
15.01.2021	09:19:30	0	10,469884	3,954367	1,95075	24,3468	-0,064	88,163	0	1013,38	6,6	8,6	8,5	1	1	1	1	1	1	1	1	1	0	1	-5,990134	273,945383	313,339336	0
15.01.2021	09:19:31	0	10,826887	3,728426	1,9575	14,6556	-0,057	88,147	0	1013,48	6,6	8,5	8,4	1	1	1	1	1	1	1	1	1	0	1	-14,446794	273,989846	305,090045	0
15.01.2021	09:19:32	0	10,232004	2,711566	1,96125	15,7896	-0,057	88,149	0	1013,12	6,4	8,5	8,5	1	1	1	1	1	1	1	1	1	0	1	-9,090909	273,87888	309,928591	0
15.01.2021	09:19:33	0	10,826887	2,93753	1,90875	13,1652	-0,058	88,159	0	1013,38	6,6	8,5	8,5	1	1	1	1	1	1	1	1	1	0	1	-11,557435	273,825842	307,21502	0
15.01.2021	09:19:34	0	10,707836	3,954391	2,0505	16,4736	-0,059	88,148	0	1013,34	6,6	8,6	8,4	1	1	1	1	1	1	1	1	1	0	1	-10,923185	273,970566	308,523722	0
15.01.2021	09:19:35	0	10,707836	5,084186	2,09625	13,1652	-0,059	88,151	0	1013,22	6,6	8,6	8,5	1	1	1	1	1	1	1	1	1	0	1	-6,624383	273,892162	312,457007	0
15.01.2021	09:19:36	0	10,707911	3,728403	1,986	25,7796	-0,058	88,167	0	1013,5	6,6	8,5	8,5	1	1	1	1	1	1	1	1	1	0	1	-7,892882	274,001721	311,699353	0
15.01.2021	09:19:37	0	10,469957	4,180356	1,8705	19,1412	-0,063	88,141	0	1013,22	6,6	8,5	8,4	1	1	1	1	1	1	1	1	1	0	1	-8,45666	273,890686	310,617851	0
15.01.2021	09:19:38	0	10,588934	3,276515	1,85325	16,4736	-0,061	88,164	0	1013,36	6,6	8,5	8,3	1	1	1	1	1	1	1	1	1	0	1	-10,218464	273,8332	308,588254	0
15.01.2021	09:19:39	0	10,588934	3,502461	1,8525	21,7728	-0,059	88,165	0	1013,34	6,6	8,5	8,4	1	1	1	1	1	1	1	1	1	0	1	-9,090909	273,927626	310,155775	0
15.01.2021	09:19:40	0	10,588934	4,519304	1,9125	25,8732	-0,066	88,139	0	1013,14	6,6	8,5	8,4	1	1	1	1	1	1	1	1	1	0	1	-8,949965	273,976497	310,524602	0
15.01.2021	09:19:41	0	11,064841	4,858223	1,86225	14,3028	-0,056	88,145	0	1013,32	6,6	8,5	8,5	1	1	1	1	1	1	1	1	1	0	1	-10,500352	273,955749	308,877452	0
15.01.2021	09:19:42	0	10,588934	3,389478	1,81125	12,0996	-0,06	88,163	0	1013,36	6,6	8,5	8,4	1	1	1	1	1	1	1	1	1	0	1	-11,980268	274,003205	307,618894	0
15.01.2021	09:19:43	0	10,826887	3,05053	1,8075	12,4452	-0,053	88,161	0	1013,46	6,6	8,5	8,4	1	1	1	1	1	1	1	1	1	0	1	-9,866103	273,856763	309,050361	0
15.01.2021	09:19:44	0	10,58886	2,937565	1,74975	13,9176	-0,059	88,145	0	1013,32	6,6	8,6	8,3	1	1	1	1	1	1	1	1	1	0	1	-11,41649	273,887734	307,644264	0
15.01.2021	09:19:45	0	10,826887	4,971234	1,749	16,8516	-0,055	88,155	0	1013,36	6,6	8,5	8,4	1	1	1	1	1	1	1	1	1	0	1	-9,231853	273,828785	309,554304	0
15.01.2021	09:19:46	0	10,826887	5,197168	1,7385	6,444	-0,062	88,155	0	1013,28	6,6	8,5	8,5	1	1	1	1	1	1	1	1	1	0	1	-6,624383	273,949825	312,725797	0
15.01.2021	09:19:47	0	10,35098	3,050512	1,719	24,0444	-0,056	88,151	0	1013,38	6,6	8,5	8,5	1	1	1	1	1	1	1	1	1	0	1	-6,483439	273,815546	312,241075	0
15.01.2021	09:19:48	0	10,826887	2,711599	1,632	17,6832	-0,066	88,163	0	1013,22	6,6	8,5	8,3	1	1	1	1	1	1	1	1	1	0	1	-9,725159	273,849396	309,156992	0
15.01.2021	09:19:49	0	10,707836	3,841385	1,56225	21,0204	-0,064	88,149	0	1013,3	6,6	8,6	8,5	1	1	1	1	1	1	1	1	1	0	1	-4,439746	273,8229	314,319008	0
15.01.2021	09:19:50	0	10,588934	3,615443	1,52175	13,1508	-0,062	88,144	0	1013,34	6,6	8,5	8,4	1	1	1	1	1	1	1	1	1	0	1	-8,245243	273,8332	310,561474	0
15.01.2021	09:19:51	0	10,707836	3,502461	1,58325	3,0384	-0,056	88,172	0	1013,4	6,6	8,6	8,4	1	1	1	1	1	1	1	1	1	0	1	-8,668076	273,933543	310,606193	0
15.01.2021	09:19:52	0	10,588934	4,406348	1,61775	5,22	-0,055	88,153	0	1013,38	6,6	8,5	8,3	1	1	1	1	1	1	1	1	1	0	1	-10,993658	273,986879	308,529338	0
15.01.2021	09:19:53	0	10,945864	4,180381	1,66575	13,5396	-0,059	88,168	0	1013,3	6,6	8,5	8,3	1	1	1	1	1	1	1	1	1	0	1	-10,852713	273,955749	308,525091	0
15.01.2021	09:19:54	0	10,707911	4,067349	1,68375	7,5096	-0,059	88,164	0	1013,26	6,6	8,5	8,5	1	1	1	1	1	1	1	1	1	0	1	-7,188161	273,875929	311,817593	0
15.01.2021	09:19:55	0	10,707911	3,163532	1,8885	3,7656	-0,059	88,157	0	1013,32	6,6	8,5	8,3	1	1	1	1	1	1	1	1	1	0	1	-9,302326	273,819958	309,44273	0
15.01.2021	09:19:56	0	10,945864	3,276476	2,01375	14,292	-0,057	88,175	0	1013,38	6,6	8,5	8,5	1	1	1	1	1	1	1	1	1	0	1	-6,8358	273,868555	312,135599	0
15.01.2021	09:19:57	0	10,707836	3,954415	2,1315	7,1388	-0,059	88,169	0	1013,44	6,6	8,6	8,3	1	1	1	1	1	1	1	1	1	0	1	-9,44327	273,836144	309,377157	0
15.01.2021	09:19:58	0	10,945788	3,841431	2,08875	3,4128	-0,054	88,163	0	1013,3	6,6	8,6	8,3	1	1	1	1	1	1	1	1	1	0	1	-9,302326	273,942422	310,01334	0
15.01.2021	09:19:59	0	10,945864	3,163494	1,96575	0,1188	-0,055	88,161	0	1013,44	6,6	8,5	8,5	1	1	1	1	1	1	1	1	1	0	1	-4,016913	273,758284	314,441068	0
15.01.2021	09:20:00	0	10,469884	4,293339	2,43975	16,1028	-0,054	88,174	0	1013,42	6,6	8,6	8,4	1	1	1	1	1	1	1	1	1	0	1	-3,523608	273,929105	315,729971	0
15.01.2021	09:20:01	0	10,469884	4,293339	2,43975	16,1028	-0,054	88,174	0	1013,42	6,6	8,6	8,4	1	1	1	1	1	1	1	1	1	0	1	-3,523608	273,929105	315,729971	0
15.01.2021	09:20:02	0	10,707911	2,5986	2,70675	15,4044	-0,059	88,148	0	1013,4	6,6	8,5	8,4	1	1	1	1	1	1	1	1	1	0	1	-2,889359	274,001721	316,702876	0
15.01.2021	09:20:03	0	10,945864	3,615421	2,9505	11,7144	-0,053	88,165	0	1013,4	6,6	8,5	8,5	1	1	1	1	1	1	1	1	1	0	1	-8,527132	273,856763	310,389333	0
15.01.2021	09:20:04	0	10,588934	3,389478	3,03	9,3636	-0,052	88,168	0	1013,34	6,6	8,5	8,4	1	1	1	1	1	1	1	1	1	0	1	-4,510218	273,99133	315,033542	0
15.01.2021	09:20:05	0	10,826887	4,406295	3,0825	6,4224	-0,058	88,156	0	1013,2	6,6	8,5	8,5	1	1	1	1	1	1	1	1	1	0	1	-7,751938	273,874454	311,246943	0
15.01.2021	09:20:06	0	10,826887	5,197231	2,9475	12,4812	-0,058	88,158	0	1013,32	6,6	8,5	8,3	1	1	1	1	1	1	1	1	1	0	1	-4,580691	273,939462	314,721174	0
15.01.2021	09:20:07	0	10,469957	2,937548	3,018	17,6868	-0,06	88,167	0	1013,4	6,6	8,5	8,4	1	1	1	1	1	1	1	1	1	0	1	-9,44327	273,831728	309,356594	0
15.01.2021	09:20:08	0	10,826812	3,276476	3,05925	6,8112	-0,059	88,169	0	1013,26	6,6	8,6	8,5	1	1	1	1	1	1	1	1	1	0	1	-6,342495	273,937982	312,95247	0
15.01.2021	09:20:09	0	10,707836	4,067374	3,0825	4,4604	-0,056	88,177	0	1013,28	6,6	8,6	8,4	1	1	1	1	1	1	1	1	1	0	1	-6,553911	273,937982	312,741053	0
15.01.2021	09:20:10	0	10,945864	4,971205	2,96325	5,2164	-0,062	88,165	0	1013,28	6,6	8,5	8,5	1	1	1	1	1	1	1	1	1	0	1	-9,020437	273,955749	310,357367	0
15.01.2021	09:20:11	0	10,945864	4,293365	2,7885	8,622	-0,063	88,164	0	1013,32	6,6	8,5	8,3	1	1	1	1	1	1	1	1	1	0	1	-10,993658	273,915798	308,197888	0
15.01.2021	09:20:12	0	10,588934	3,050512	2,54475	12,4704	-0,059	88,152	0	1013,38	6,6	8,5	8,5	1	1	1	1	1	1	1	1	1	0	1	-10,218464	273,988363	309,311453	0
15.01.2021	09:20:13	0	11,064841	3,389458	2,52375	2,3076	-0,058	88,18	0	1013,36	6,6	8,5	8,5	1	1	1	1	1	1	1	1	1	0	1	-5,003524	273,853816	313,899213	0
15.01.2021	09:20:14	0	10,707911	2,824565	2,65875	7,5024	-0,054	88,172	0	1013,3	6,6	8,5	8,4	1	1	1	1	1	1	1	1	1	0	1	-5,708245	273,836144	313,112182	0
15.01.2021	09:20:15	0	10,707911	2,598584	2,80875	0,1188	-0,06	88,165	0	1013,24	6,6	8,5	8,5	1	1	1	1	1	1	1	1	1	0	1	-3,946441	273,988363	315,583476	0
15.01.2021	09:20:16	0	10,588934	4,858223	3,00525	1,9296	-0,057	88,17	0	1013,34	6,6	8,5	8,5	1	1	1	1	1	1	1	1	1	0	1	-6,976744	273,955749	312,40106	0
15.01.2021	09:20:17	0	11,064841	4,745241	3,29025	4,8456	-0,056	88,172	0	1013,34	6,6	8,5	8,5	1	1	1	1	1	1	1	1	1	0	1	-6,342495	273,967602	313,090587	0
15.01.2021	09:20:18	0	10,588934	4,745269	3,2385	10,4508	-0,058	88,153	0	1013,28	6,6	8,5	8,4	1	1	1	1	1	1	1	1	1	0	1	-11,557435	273,921711	307,661675	0
15.01.2021	09:20:19	0	10,707836	4,971234	2,89725	13,9104	-0,05	88,161	0	1013,3	6,6	8,6	8,4	1	1	1	1	1	1	1	1	1	0	1	-6,976744	273,99133	312,567017	0
15.01.2021	09:20:20	0	10,826887	3,954367	2,5185	8,622	-0,057	88,161	0	1013,26	6,6	8,5	8,5	1	1	1	1	1	1	1	1	1	0	1	-6,624383	273,930585	312,636092	0
15.01.2021	09:20:21	0	10,945864	4,971205	2,37975	360	-0,051	88,164	0	1013,26	6,6	8,5	8,5	1	1	1	1	1	1	1	1	1	0	1	-5,778717	273,827313	313,000589	0
15.01.2021	09:20:22	0	10,945864	4,180331	2,508	0,1224	-0,054	88,156	0	1013,38	6,6	8,5	8,5	1	1	1	1	1	1	1	1	1	0	1	-4,510218	273,933543	314,764051	0
15.01.2021	09:20:23	0	10,945864	4,067374	2,6745	355,4676	-0,059	88,158	0	1013,3	6,6	8,5	8,4	1	1	1	1	1	1	1	1	1	0	1	-5,919662	273,821429	312,832243	0
15.01.2021	09:20:24	0	10,707911	3,954367	2,72775	7,8876	-0,06	88,166	0	1013,3	6,6	8,5	8,5	1	1	1	1	1	1	1	1	1	0	1	-4,792107	273,836144	314,02832	0
15.01.2021	09:20:25	0	10,826887	3,728403	2,688	9,756	-0,053	88,165	0	1013,42	6,6	8,5	8,5	1	1	1	1	1	1	1	1	1	0	1	-5,567301	273,839088	313,266838	0
15.01.2021	09:20:26	0	10,707911	3,615465	2,6925	6,4296	-0,06	88,16	0	1013,38	6,6	8,5	8,3	1	1	1	1	1	1	1	1	1	0	1	-6,272023	273,825842	312,500432	0
15.01.2021	09:20:27	0	10,707911	3,728448	2,856	3,78	-0,056	88,161	0	1013,36	6,6	8,5	8,3	1	1	1	1	1	1	1	1	1	0	1	-11,06413	273,881831	307,969119	0
15.01.2021	09:20:28	0	10,707911	3,276476	3,12975	11,7108	-0,057	88,147	0	1013,34	6,6	8,5	8,5	1	1	1	1	1	1	1	1	1	0	1	-2,748414	273,969084	316,69158	0
15.01.2021	09:20:29	0	10,707911	3,163494	3,0825	0,486	-0,059	88,149	0	1013,1	6,6	8,5	8,5	1	1	1	1	1	1	1	1	1	0	1	-9,302326	273,909886	309,861666	0
15.01.2021	09:20:30	0	10,707911	3,050512	2,883	360	-0,057	88,154	0	1013,34	6,6	8,5	8,5	1	1	1	1	1	1	1	1	1	0	1	-9,513742	274,249777	311,237385	0
15.01.2021	09:20:31	0	11,183818	4,067374	2,61825	4,068	-0,053	88,156	0	1013,42	6,6	8,5	8,4	1	1	1	1	1	1	1	1	1	0	1	-11,134602	273,982429	308,367635	0
15.01.2021	09:20:32	0	10,826887	3,163513	2,6535	358,7832	-0,057	88,165	0	1013,42	6,6	8,5	8,4	1	1	1	1	1	1	1	1	1	0	1	-10,147992	273,901022	308,974688	0
15.01.2021	09:20:33	0	10,58886	2,598584	2,91975	10,4328	-0,055	88,166	0	1013,44	6,6	8,6	8,5	1	1	1	1	1	1	1	1	1	0	1	-10,359408	273,830256	308,433602	0
15.01.2021	09:20:34	0	10,707911	4,632259	3,13725	3,7584	-0,055	88,168	0	1013,38	6,6	8,5	8,5	1	1	1	1	1	1	1	1	1	0	1	-5,778717	273,906931	313,371501	0
15.01.2021	09:20:35	0	10,707911	4,293313	3,1905	6,048	-0,057	88,149	0	1013,38	6,6	8,5	8,5	1	1	1	1	1	1	1	1	1	0	1	-6,976744	273,830256	311,816266	0
15.01.2021	09:20:36	0	11,183818	4,406348	3,147	10,0548	-0,06	88,142	0	1013,32	6,6	8,5	8,3	1	1	1	1	1	1	1	1	1	0	1	-8,033827	273,936503	311,254239	0
15.01.2021	09:20:37	0	10,826812	3,728426	3,03675	3,3984	-0,054	88,168	0	1013,52	6,6	8,6	8,4	1	1	1	1	1	1	1	1	1	0	1	-6,976744	273,982429	312,525493	0
15.01.2021	09:20:38	0	10,945788	3,954367	2,9115	18,072	-0,056	88,16	0	1013,22	6,6	8,6	8,5	1	1	1	1	1	1	1	1	1	0	1	-15,292459	273,955749	304,085344	0
15.01.2021	09:20:39	0	10,945788	2,937565	2,6655	12,456	-0,057	88,168	0	1013,36	6,6	8,6	8,3	1	1	1	1	1	1	1	1	1	0	1	-5,84919	273,945383	313,48028	0
15.01.2021	09:20:40	0	10,707836	3,389458	2,74875	360	-0,063	88,161	0	1013,4	6,6	8,6	8,5	1	1	1	1	1	1	1	1	1	0	1	-7,117689	273,858237	311,80564	0
15.01.2021	09:20:41	0	10,826887	4,180331	3,0015	8,982	-0,06	88,168	0	1013,3	6,6	8,5	8,5	1	1	1	1	1	1	1	1	1	0	1	-5,073996	273,924668	314,1589	0
15.01.2021	09:20:42	0	10,826812	3,50244	3,34425	10,44	-0,056	88,157	0	1013,42	6,6	8,6	8,5	1	1	1	1	1	1	1	1	1	0	1	-7,329105	273,986879	312,193891	0
15.01.2021	09:20:43	0	11,064841	3,389458	3,459	6,804	-0,064	88,159	0	1013,2	6,6	8,5	8,5	1	1	1	1	1	1	1	1	1	0	1	-6,20155	273,850869	312,687462	0
15.01.2021	09:20:44	0	10,707911	2,93753	3,27975	12,852	-0,065	88,165	0	1013,3	6,6	8,5	8,5	1	1	1	1	1	1	1	1	1	0	1	-6,20155	273,99133	313,34221	0
15.01.2021	09:20:45	0	10,826887	4,745298	3,1905	11,7072	-0,058	88,175	0	1013,34	6,6	8,5	8,3	1	1	1	1	1	1	1	1	1	0	1	-5,637773	273,843505	313,216939	0
15.01.2021	09:20:46	0	10,707911	4,406321	3,1005	18,4428	-0,06	88,147	0	1013,32	6,6	8,5	8,4	1	1	1	1	1	1	1	1	1	0	1	-8,879493	273,874454	310,119389	0
15.01.2021	09:20:47	0	10,826887	2,711599	2,916	10,0656	-0,054	88,162	0	1013,42	6,6	8,5	8,3	1	1	1	1	1	1	1	1	1	0	1	-6,272023	274,00766	313,347926	0
15.01.2021	09:20:48	0	10,945788	2,598584	2,859	8,982	-0,06	88,166	0	1013,46	6,6	8,6	8,5	1	1	1	1	1	1	1	1	1	0	1	-8,45666	273,898068	310,652254	0
15.01.2021	09:20:49	0	10,350908	2,485602	2,952	4,4712	-0,052	88,171	0	1013,46	6,6	8,6	8,5	1	1	1	1	1	1	1	1	1	0	1	-10,711769	273,827313	308,067537	0
15.01.2021	09:20:50	0	10,945864	5,084186	3,18225	14,6376	-0,053	88,174	0	1013,32	6,6	8,5	8,5	1	1	1	1	1	1	1	1	1	0	1	-6,20155	273,911364	312,969328	0
15.01.2021	09:20:51	0	11,064841	4,858281	3,06525	8,3484	-0,057	88,172	0	1013,46	6,6	8,5	8,3	1	1	1	1	1	1	1	1	1	0	1	-8,245243	273,988363	311,284674	0
15.01.2021	09:20:52	0	10,826887	4,180331	2,79675	14,2776	-0,055	88,152	0	1013,32	6,6	8,5	8,5	1	1	1	1	1	1	1	1	1	0	1	-7,047216	273,839088	311,786922	0
15.01.2021	09:20:53	0	10,826887	3,954367	2,5065	14,3028	-0,056	88,159	0	1013,34	6,6	8,5	8,5	1	1	1	1	1	1	1	1	1	0	1	-8,104299	273,927626	311,142386	0
15.01.2021	09:20:54	0	10,826887	2,937565	2,40825	10,4364	-0,056	88,149	0	1013,28	6,6	8,5	8,3	1	1	1	1	1	1	1	1	1	0	1	-7,188161	273,99133	312,3556	0
15.01.2021	09:20:55	0	10,707911	4,745269	2,51475	8,262	-0,051	88,158	0	1013,34	6,6	8,5	8,4	1	1	1	1	1	1	1	1	1	0	1	-11,909796	273,902499	307,219767	0
15.01.2021	09:20:56	0	10,826812	3,163513	2,565	1,908	-0,058	88,157	0	1013,42	6,6	8,6	8,4	1	1	1	1	1	1	1	1	1	0	1	-9,090909	273,977979	310,390574	0
15.01.2021	09:20:57	0	11,183818	5,084186	2,57025	14,2884	-0,055	88,156	0	1013,48	6,6	8,5	8,5	1	1	1	1	1	1	1	1	1	0	1	-12,473573	273,964638	306,945685	0
15.01.2021	09:20:58	0	10,945788	4,632314	2,53425	3,7836	-0,05	88,173	0	1013,46	6,6	8,6	8,3	1	1	1	1	1	1	1	1	1	0	1	-7,258633	273,874454	311,740249	0
15.01.2021	09:20:59	0	11,18374	3,276515	2,5095	19,8972	-0,061	88,148	0	1013,34	6,6	8,6	8,3	1	1	1	1	1	1	1	1	1	0	1	-8,597604	273,994298	310,960003	0
15.01.2021	09:21:00	0	10,826887	3,728403	2,43075	13,9212	-0,056	88,148	0	1013,38	6,6	8,5	8,5	1	1	1	1	1	1	1	1	1	0	1	-3,664553	273,985395	315,851523	0
15.01.2021	09:21:01	0	10,826887	3,728403	2,43075	13,9212	-0,056	88,148	0	1013,38	6,6	8,5	8,5	1	1	1	1	1	1	1	1	1	0	1	-3,664553	273,985395	315,851523	0
15.01.2021	09:21:02	0	10,945788	2,93753	2,39475	10,8072	-0,057	88,147	0	1013,3	6,6	8,6	8,5	1	1	1	1	1	1	1	1	1	0	1	-7,329105	273,865607	311,628556	0
15.01.2021	09:21:03	0	10,945788	3,841385	2,376	8,6076	-0,062	88,156	0	1013,34	6,6	8,6	8,5	1	1	1	1	1	1	1	1	1	0	1	-9,090909	273,932064	310,176463	0
15.01.2021	09:21:04	0	10,945864	3,615421	2,32125	25,5168	-0,049	88,166	0	1013,44	6,6	8,5	8,5	1	1	1	1	1	1	1	1	1	0	1	-4,369274	273,989846	315,167564	0
15.01.2021	09:21:05	0	10,945864	3,050512	2,35125	19,512	-0,06	88,176	0	1013,38	6,6	8,5	8,5	1	1	1	1	1	1	1	1	1	0	1	-5,21494	273,908408	313,942164	0
15.01.2021	09:21:06	0	10,826887	4,406295	2,31375	23,202	-0,058	88,16	0	1013,38	6,6	8,5	8,5	1	1	1	1	1	1	1	1	1	0	1	-11,06413	273,988363	308,465787	0
15.01.2021	09:21:07	0	10,707836	2,93753	2,1945	21,7656	-0,054	88,182	0	1013,4	6,6	8,6	8,5	1	1	1	1	1	1	1	1	1	0	1	-5,144468	273,933543	314,129801	0
15.01.2021	09:21:08	0	10,945864	3,615465	2,0625	10,8036	-0,056	88,159	0	1013,42	6,6	8,5	8,3	1	1	1	1	1	1	1	1	1	0	1	-9,090909	273,818487	309,647299	0
15.01.2021	09:21:09	0	11,421691	4,519277	2,046	26,5032	-0,055	88,162	0	1013,3	6,6	8,6	8,5	1	1	1	1	1	1	1	1	1	0	1	-8,45666	273,932064	310,810712	0
15.01.2021	09:21:10	0	10,945788	3,050512	2,067	355,4208	-0,055	88,15	0	1013,34	6,6	8,6	8,5	1	1	1	1	1	1	1	1	1	0	1	-7,540521	273,995783	312,02401	0
15.01.2021	09:21:11	0	11,183818	4,632287	2,1345	9,7416	-0,055	88,167	0	1013,42	6,6	8,5	8,4	1	1	1	1	1	1	1	1	1	0	1	-9,44327	273,917276	309,755166	0
15.01.2021	09:21:12	0	10,588934	2,937548	2,03775	354,2256	-0,058	88,156	0	1013,3	6,6	8,5	8,4	1	1	1	1	1	1	1	1	1	0	1	-5,073996	273,982429	314,428241	0
15.01.2021	09:21:13	0	10,826887	3,728403	2,05575	9,7236	-0,059	88,167	0	1013,32	6,6	8,5	8,5	1	1	1	1	1	1	1	1	1	0	1	-6,8358	273,84056	312,005196	0
15.01.2021	09:21:14	0	11,064841	3,728403	2,00475	18,4392	-0,055	88,175	0	1013,48	6,6	8,5	8,5	1	1	1	1	1	1	1	1	1	0	1	-6,483439	273,927626	312,763245	0
15.01.2021	09:21:15	0	10,826812	3,389458	1,91175	9,72	-0,057	88,174	0	1013,26	6,6	8,6	8,5	1	1	1	1	1	1	1	1	1	0	1	-4,369274	273,834672	314,444298	0
15.01.2021	09:21:16	0	11,064841	2,824582	1,947	21,0024	-0,055	88,166	0	1013,48	6,6	8,5	8,3	1	1	1	1	1	1	1	1	1	0	1	-5,778717	273,908408	313,378387	0
15.01.2021	09:21:17	0	11,064764	3,841385	1,983	4,8312	-0,058	88,168	0	1013,3	6,6	8,6	8,5	1	1	1	1	1	1	1	1	1	0	1	-5,778717	273,992814	313,771966	0
15.01.2021	09:21:18	0	10,707911	3,50244	2,01	9,3528	-0,055	88,169	0	1013,42	6,6	8,5	8,5	1	1	1	1	1	1	1	1	1	0	1	-11,839323	273,917276	307,359112	0
15.01.2021	09:21:19	0	11,064841	4,519277	2,07975	10,44	-0,064	88,17	0	1013,4	6,6	8,5	8,5	1	1	1	1	1	1	1	1	1	0	1	-4,721635	273,985395	314,794441	0
15.01.2021	09:21:20	0	11,064841	3,502482	2,1255	10,44	-0,059	88,16	0	1013,3	6,6	8,5	8,3	1	1	1	1	1	1	1	1	1	0	1	-4,933051	273,853816	313,969686	0
15.01.2021	09:21:21	0	10,945788	3,841385	2,0835	20,2896	-0,061	88,17	0	1013,36	6,6	8,6	8,5	1	1	1	1	1	1	1	1	1	0	1	-5,285412	273,853816	313,617325	0
15.01.2021	09:21:22	0	11,064764	3,50244	2,09475	15,4908	-0,054	88,164	0	1013,42	6,6	8,6	8,5	1	1	1	1	1	1	1	1	1	0	1	-7,892882	273,850869	310,99613	0
15.01.2021	09:21:23	0	10,945864	4,519277	2,05125	20,1672	-0,058	88,167	0	1013,36	6,6	8,5	8,5	1	1	1	1	1	1	1	1	1	0	1	-6,483439	273,843505	312,371273	0
15.01.2021	09:21:24	0	10,945788	4,971205	2,058	6,8004	-0,054	88,175	0	1013,42	6,6	8,6	8,5	1	1	1	1	1	1	1	1	1	0	1	-7,188161	273,982429	312,314076	0
15.01.2021	09:21:25	0	10,945788	4,745269	2,2545	18,072	-0,057	88,172	0	1013,32	6,6	8,6	8,4	1	1	1	1	1	1	1	1	1	0	1	-4,721635	273,862658	314,222292	0
15.01.2021	09:21:26	0	10,945788	4,293313	2,40975	11,7108	-0,058	88,175	0	1013,44	6,6	8,6	8,5	1	1	1	1	1	1	1	1	1	0	1	-8,45666	273,989846	311,080179	0
15.01.2021	09:21:27	0	11,302795	3,163494	2,57025	3,3804	-0,056	88,177	0	1013,44	6,6	8,5	8,5	1	1	1	1	1	1	1	1	1	0	1	-2,889359	273,861184	316,047701	0
15.01.2021	09:21:28	0	10,945864	4,406295	2,802	1,926	-0,057	88,181	0	1013,36	6,6	8,5	8,5	1	1	1	1	1	1	1	1	1	0	1	-6,624383	273,875929	312,38137	0
15.01.2021	09:21:29	0	10,826887	2,93753	2,80575	10,44	-0,057	88,182	0	1013,6	6,6	8,5	8,5	1	1	1	1	1	1	1	1	1	0	1	-5,778717	273,997267	313,792739	0
15.01.2021	09:21:30	0	11,18374	4,971264	2,8065	13,1616	-0,058	88,181	0	1013,3	6,6	8,6	8,3	1	1	1	1	1	1	1	1	1	0	1	-11,698379	273,926147	307,541411	0
15.01.2021	09:21:31	0	11,064841	4,745269	2,703	9,3636	-0,062	88,187	0	1013,34	6,6	8,5	8,4	1	1	1	1	1	1	1	1	1	0	1	-6,694856	273,814076	312,022812	0
15.01.2021	09:21:32	0	10,707836	4,293313	3,003	10,4436	-0,053	88,179	0	1013,32	6,6	8,6	8,5	1	1	1	1	1	1	1	1	1	0	1	-10,147992	273,890686	308,92652	0
15.01.2021	09:21:33	0	10,945864	4,858223	3,261	9,3708	-0,053	88,199	0	1013,4	6,6	8,5	8,5	1	1	1	1	1	1	1	1	1	0	1	-6,060606	273,994298	313,497001	0
15.01.2021	09:21:34	0	11,18374	3,389458	3,21675	6,0624	-0,058	88,196	0	1013,32	6,6	8,6	8,5	1	1	1	1	1	1	1	1	1	0	1	-5,708245	273,868555	313,263154	0
15.01.2021	09:21:35	0	11,064764	3,050512	3,05175	15,0336	-0,056	88,196	0	1013,52	6,6	8,6	8,5	1	1	1	1	1	1	1	1	1	0	1	-5,285412	273,821429	313,466493	0
15.01.2021	09:21:36	0	11,302715	5,423132	2,985	12,096	-0,063	88,176	0	1013,38	6,6	8,6	8,5	1	1	1	1	1	1	1	1	1	0	1	-11,486963	273,948344	307,856314	0
15.01.2021	09:21:37	0	10,707836	3,728448	3,03075	9	-0,054	88,187	0	1013,34	6,6	8,6	8,3	1	1	1	1	1	1	1	1	1	0	1	-11,205074	273,967602	308,228008	0
15.01.2021	09:21:38	0	10,945788	5,197168	2,90175	1,926	-0,055	88,181	0	1013,4	6,6	8,6	8,5	1	1	1	1	1	1	1	1	1	0	1	-8,174771	273,979462	311,31363	0
15.01.2021	09:21:39	0	10,945788	2,485602	2,901	7,5276	-0,063	88,184	0	1013,32	6,6	8,6	8,5	1	1	1	1	1	1	1	1	1	0	1	-6,8358	273,932064	312,431572	0
15.01.2021	09:21:40	0	10,826887	4,293313	2,88	10,8108	-0,058	88,192	0	1013,36	6,6	8,5	8,5	1	1	1	1	1	1	1	1	1	0	1	-6,20155	273,989846	313,335288	0
15.01.2021	09:21:41	0	11,064764	3,163494	2,78475	12,8628	-0,054	88,2	0	1013,22	6,6	8,6	8,5	1	1	1	1	1	1	1	1	1	0	1	-13,03735	273,949825	306,31283	0
15.01.2021	09:21:42	0	10,826887	4,519277	2,69175	5,22	-0,06	88,191	0	1013,3	6,6	8,5	8,5	1	1	1	1	1	1	1	1	1	0	1	-9,44327	273,994298	310,114337	0
15.01.2021	09:21:43	0	11,302715	2,824548	2,523	15,0228	-0,055	88,177	0	1013,32	6,6	8,6	8,5	1	1	1	1	1	1	1	1	1	0	1	-7,258633	273,942422	312,057033	0
15.01.2021	09:21:44	0	10,826887	4,180331	2,41425	17,7048	-0,056	88,168	0	1013,24	6,6	8,5	8,5	1	1	1	1	1	1	1	1	1	0	1	-6,272023	273,817017	312,459338	0
15.01.2021	09:21:45	0	11,421691	4,519277	2,16825	0,8604	-0,05	88,181	0	1013,36	6,6	8,6	8,5	1	1	1	1	1	1	1	1	1	0	1	-8,527132	273,951305	310,829954	0
15.01.2021	09:21:46	0	10,826887	3,276476	2,22	5,2308	-0,054	88,18	0	1013,2	6,6	8,5	8,5	1	1	1	1	1	1	1	1	1	0	1	-8,597604	273,937982	310,697361	0
15.01.2021	09:21:47	0	11,18374	4,745241	2,40675	3,0348	-0,055	88,19	0	1013,3	6,6	8,6	8,5	1	1	1	1	1	1	1	1	1	0	1	-14,164905	273,989846	305,371934	0
15.01.2021	09:21:48	0	11,302795	4,858223	2,5545	1,1736	-0,056	88,193	0	1013,38	6,6	8,5	8,5	1	1	1	1	1	1	1	1	1	0	1	-8,45666	273,943903	310,865908	0
15.01.2021	09:21:49	0	10,826812	3,841385	2,727	6,2136	-0,062	88,188	0	1013,4	6,6	8,6	8,5	1	1	1	1	1	1	1	1	1	0	1	-7,117689	273,837616	311,709594	0
15.01.2021	09:21:50	0	11,421691	4,180381	2,70225	354,0024	-0,055	88,176	0	1013,38	6,6	8,6	8,3	1	1	1	1	1	1	1	1	1	0	1	-8,245243	273,99133	311,298518	0
15.01.2021	09:21:51	0	11,064764	4,293313	2,65125	8,2584	-0,062	88,181	0	1013,32	6,6	8,6	8,5	1	1	1	1	1	1	1	1	1	0	1	-8,668076	273,929105	310,585503	0
15.01.2021	09:21:52	0	11,18374	4,180381	2,51475	0,864	-0,055	88,192	0	1013,4	6,6	8,6	8,3	1	1	1	1	1	1	1	1	1	0	1	-5,990134	273,988363	313,539783	0
15.01.2021	09:21:53	0	11,18374	4,180331	2,63475	360	-0,054	88,182	0	1013,2	6,6	8,6	8,5	1	1	1	1	1	1	1	1	1	0	1	-9,302326	273,958711	310,089294	0
15.01.2021	09:21:54	0	11,064764	4,067349	2,83425	17,2296	-0,061	88,196	0	1013,46	6,6	8,6	8,5	1	1	1	1	1	1	1	1	1	0	1	-4,862579	273,839088	313,97156	0
15.01.2021	09:21:55	0	11,18374	3,615421	2,85075	7,128	-0,056	88,195	0	1013,4	6,6	8,6	8,5	1	1	1	1	1	1	1	1	1	0	1	-7,540521	273,912842	311,637246	0
15.01.2021	09:21:56	0	10,826812	3,841385	2,9655	8,586	-0,058	88,162	0	1013,4	6,6	8,6	8,5	1	1	1	1	1	1	1	1	1	0	1	-7,117689	273,824371	311,647916	0
15.01.2021	09:21:57	0	11,064841	3,163532	2,967	10,0584	-0,057	88,186	0	1013,32	6,6	8,5	8,3	1	1	1	1	1	1	1	1	1	0	1	-4,369274	273,864132	314,581519	0
15.01.2021	09:21:58	0	10,826887	4,067349	3,105	5,22	-0,059	88,187	0	1013,38	6,6	8,5	8,5	1	1	1	1	1	1	1	1	1	0	1	-4,22833	273,855289	314,681271	0
15.01.2021	09:21:59	0	10,826887	4,406295	3,2145	8,6004	-0,058	88,186	0	1013,34	6,6	8,5	8,5	1	1	1	1	1	1	1	1	1	0	1	-11,909796	273,827313	306,86951	0
15.01.2021	09:22:00	0	10,826887	2,711566	3,0225	13,5396	-0,057	88,178	0	1013,5	6,6	8,5	8,5	1	1	1	1	1	1	1	1	1	0	1	-7,82241	273,84056	311,018586	0
15.01.2021	09:22:01	0	10,826887	2,711566	3,0225	13,5396	-0,057	88,178	0	1013,5	6,6	8,5	8,5	1	1	1	1	1	1	1	1	1	0	1	-7,82241	273,84056	311,018586	0
15.01.2021	09:22:02	0	10,707836	2,937565	3,0495	18,4392	-0,053	88,196	0	1013,4	6,6	8,6	8,3	1	1	1	1	1	1	1	1	1	0	1	-7,258633	273,921711	311,960477	0
15.01.2021	09:22:03	0	10,826812	2,259666	2,97375	14,3064	-0,058	88,177	0	1013,26	6,6	8,6	8,3	1	1	1	1	1	1	1	1	1	0	1	-6,8358	273,988363	312,694117	0
15.01.2021	09:22:04	0	11,421771	4,293313	2,943	23,9688	-0,062	88,181	0	1013,2	6,6	8,5	8,5	1	1	1	1	1	1	1	1	1	0	1	-6,131078	273,985395	313,384997	0
15.01.2021	09:22:05	0	11,064764	3,163494	2,9625	23,9688	-0,061	88,192	0	1013,34	6,6	8,6	8,5	1	1	1	1	1	1	1	1	1	0	1	-7,751938	273,989846	311,7849	0
15.01.2021	09:22:06	0	11,18374	4,293313	2,988	25,4052	-0,056	88,185	0	1013,42	6,6	8,6	8,5	1	1	1	1	1	1	1	1	1	0	1	-10,077519	273,939462	309,224345	0
15.01.2021	09:22:07	0	11,064764	2,598584	2,8575	31,0068	-0,054	88,203	0	1013,42	6,6	8,6	8,5	1	1	1	1	1	1	1	1	1	0	1	-3,946441	273,995783	315,61809	0
15.01.2021	09:22:08	0	11,18374	4,745269	2,72625	37,6704	-0,062	88,191	0	1013,36	6,6	8,6	8,4	1	1	1	1	1	1	1	1	1	0	1	-10,711769	273,942422	308,603897	0
15.01.2021	09:22:09	0	10,945864	4,406295	2,7885	30,6972	-0,059	88,197	0	1013,34	6,6	8,5	8,5	1	1	1	1	1	1	1	1	1	0	1	-5,21494	273,983912	314,294216	0
15.01.2021	09:22:10	0	10,945864	4,858223	2,9685	16,8408	-0,06	88,203	0	1013,46	6,6	8,5	8,5	1	1	1	1	1	1	1	1	1	0	1	-6,342495	273,997267	313,228962	0
15.01.2021	09:22:11	0	11,18374	5,197231	3,03225	24,336	-0,063	88,198	0	1013,3	6,6	8,6	8,3	1	1	1	1	1	1	1	1	1	0	1	-8,45666	273,940942	310,852105	0
15.01.2021	09:22:12	0	10,826812	3,728403	2,86875	22,8276	-0,052	88,202	0	1013,42	6,6	8,6	8,5	1	1	1	1	1	1	1	1	1	0	1	-10,782241	273,983912	308,726915	0
15.01.2021	09:22:13	0	11,183818	2,598584	2,75925	28,332	-0,063	88,188	0	1013,5	6,6	8,5	8,5	1	1	1	1	1	1	1	1	1	0	1	-4,862579	273,920233	314,349638	0
15.01.2021	09:22:14	0	11,183818	3,50244	2,7795	18,9216	-0,058	88,211	0	1013,44	6,6	8,5	8,5	1	1	1	1	1	1	1	1	1	0	1	-7,470049	273,839088	311,364089	0
15.01.2021	09:22:15	0	11,064764	5,084186	2,83425	32,2308	-0,058	88,196	0	1013,24	6,6	8,6	8,5	1	1	1	1	1	1	1	1	1	0	1	-13,742072	273,95723	305,64264	0
15.01.2021	09:22:16	0	10,945788	2,711566	2,907	13,9176	-0,058	88,196	0	1013,44	6,6	8,6	8,5	1	1	1	1	1	1	1	1	1	0	1	-2,889359	273,95723	316,495353	0
15.01.2021	09:22:17	0	11,183818	3,615421	2,94075	16,4664	-0,067	88,202	0	1013,4	6,6	8,5	8,5	1	1	1	1	1	1	1	1	1	0	1	-6,694856	273,825842	312,077599	0
15.01.2021	09:22:18	0	11,064764	4,180331	3,06675	7,5024	-0,063	88,202	0	1013,3	6,6	8,6	8,5	1	1	1	1	1	1	1	1	1	0	1	-5,144468	273,917276	314,053968	0
15.01.2021	09:22:19	0	11,421771	3,163532	3,258	360	-0,053	88,201	0	1013,5	6,6	8,5	8,3	1	1	1	1	1	1	1	1	1	0	1	-8,033827	273,998751	311,544555	0
15.01.2021	09:22:20	0	11,183818	4,519277	3,32625	19,5228	-0,062	88,201	0	1013,38	6,6	8,5	8,5	1	1	1	1	1	1	1	1	1	0	1	-7,610994	273,940942	311,697771	0
15.01.2021	09:22:21	0	11,064764	3,276476	3,3615	21,7728	-0,053	88,211	0	1013,38	6,6	8,6	8,5	1	1	1	1	1	1	1	1	1	0	1	-4,792107	273,839088	314,042032	0
15.01.2021	09:22:22	0	11,302795	3,163494	3,258	11,7072	-0,061	88,204	0	1013,28	6,6	8,5	8,5	1	1	1	1	1	1	1	1	1	0	1	-8,879493	273,849396	310,002658	0
15.01.2021	09:22:23	0	11,421691	3,954367	3,15825	19,5264	-0,055	88,201	0	1013,34	6,6	8,6	8,5	1	1	1	1	1	1	1	1	1	0	1	-7,751938	273,830256	311,041072	0
15.01.2021	09:22:24	0	11,421771	4,632259	3,2145	21,7584	-0,063	88,192	0	1013,34	6,6	8,5	8,5	1	1	1	1	1	1	1	1	1	0	1	-12,473573	273,949825	306,876608	0
15.01.2021	09:22:25	0	10,945864	3,954367	3,28425	23,958	-0,055	88,198	0	1013,38	6,6	8,5	8,5	1	1	1	1	1	1	1	1	1	0	1	-10,359408	273,8229	308,399346	0
15.01.2021	09:22:26	0	11,302715	4,632259	3,35325	14,6448	-0,061	88,2	0	1013,34	6,6	8,6	8,5	1	1	1	1	1	1	1	1	1	0	1	-10,570825	274,001721	309,02141	0
15.01.2021	09:22:27	0	10,826812	2,485602	3,4935	15,03	-0,06	88,205	0	1013,42	6,6	8,6	8,5	1	1	1	1	1	1	1	1	1	0	1	-12,262156	273,893638	306,826114	0
15.01.2021	09:22:28	0	11,18374	3,954367	3,39825	8,9784	-0,058	88,192	0	1013,46	6,6	8,6	8,5	1	1	1	1	1	1	1	1	1	0	1	-7,047216	273,982429	312,45502	0
15.01.2021	09:22:29	0	11,18374	3,954367	3,186	10,8036	-0,057	88,206	0	1013,38	6,6	8,6	8,5	1	1	1	1	1	1	1	1	1	0	1	-8,597604	273,921711	310,621506	0
15.01.2021	09:22:30	0	11,302715	4,067349	2,949	16,8516	-0,054	88,199	0	1013,38	6,6	8,6	8,5	1	1	1	1	1	1	1	1	1	0	1	-13,03735	273,997267	306,534106	0
15.01.2021	09:22:31	0	11,302715	4,632259	2,70225	24,7248	-0,064	88,197	0	1013,4	6,6	8,6	8,5	1	1	1	1	1	1	1	1	1	0	1	-9,090909	273,949825	310,259271	0
15.01.2021	09:22:32	0	11,302795	3,050548	2,5065	14,6448	-0,057	88,218	0	1013,4	6,6	8,5	8,3	1	1	1	1	1	1	1	1	1	0	1	-6,20155	273,827313	312,577756	0
15.01.2021	09:22:33	0	10,945788	3,050548	2,55975	35,8524	-0,057	88,205	0	1013,32	6,6	8,6	8,3	1	1	1	1	1	1	1	1	1	0	1	-3,312192	273,964638	316,107067	0
15.01.2021	09:22:34	0	11,18374	4,519277	2,66925	33,246	-0,064	88,215	0	1013,42	6,6	8,6	8,5	1	1	1	1	1	1	1	1	1	0	1	-5,990134	273,828785	312,796024	0
15.01.2021	09:22:35	0	11,540667	4,632259	2,658	35,0712	-0,059	88,2	0	1013,44	6,6	8,6	8,5	1	1	1	1	1	1	1	1	1	0	1	-10,923185	273,886258	308,130692	0
15.01.2021	09:22:36	0	10,945864	2,485602	2,53575	31,77	-0,053	88,214	0	1013,54	6,6	8,5	8,5	1	1	1	1	1	1	1	1	1	0	1	-10,641297	273,825842	308,131158	0
15.01.2021	09:22:37	0	11,421691	4,745298	2,46	16,668	-0,053	88,206	0	1013,42	6,6	8,6	8,3	1	1	1	1	1	1	1	1	1	0	1	-8,245243	273,985395	311,270832	0
15.01.2021	09:22:38	0	11,064841	2,93753	2,68125	32,49	-0,059	88,204	0	1013,2	6,6	8,5	8,5	1	1	1	1	1	1	1	1	1	0	1	-11,346018	273,946863	307,990354	0
15.01.2021	09:22:39	0	11,302795	4,858223	2,85975	25,0272	-0,054	88,206	0	1013,34	6,6	8,5	8,5	1	1	1	1	1	1	1	1	1	0	1	-8,879493	273,834672	309,934079	0
15.01.2021	09:22:40	0	11,540748	3,615421	2,7795	14,6484	-0,067	88,199	0	1013,38	6,6	8,5	8,5	1	1	1	1	1	1	1	1	1	0	1	-11,839323	273,958711	307,552296	0
15.01.2021	09:22:41	0	11,064764	2,711599	2,79375	10,8216	-0,06	88,201	0	1013,38	6,6	8,6	8,3	1	1	1	1	1	1	1	1	1	0	1	-12,966878	273,980945	306,52844	0
15.01.2021	09:22:42	0	11,540667	4,406295	3,0405	10,44	-0,057	88,184	0	1013,38	6,6	8,6	8,5	1	1	1	1	1	1	1	1	1	0	1	-7,329105	273,973531	312,131631	0
15.01.2021	09:22:43	0	11,18374	3,954367	3,123	22,0824	-0,054	88,199	0	1013,42	6,6	8,6	8,5	1	1	1	1	1	1	1	1	1	0	1	-8,033827	273,942422	311,281839	0
15.01.2021	09:22:44	0	10,826887	5,084186	3,00075	29,5632	-0,053	88,194	0	1013,28	6,6	8,5	8,5	1	1	1	1	1	1	1	1	1	0	1	-10,007047	273,842033	308,840806	0
15.01.2021	09:22:45	0	11,540748	2,824582	3	30,3012	-0,055	88,215	0	1013,4	6,6	8,5	8,3	1	1	1	1	1	1	1	1	1	0	1	-10,288936	273,871505	308,696203	0
15.01.2021	09:22:46	0	11,18374	3,954367	2,91375	16,8444	-0,055	88,187	0	1013,32	6,6	8,6	8,5	1	1	1	1	1	1	1	1	1	0	1	-8,45666	273,839088	310,377479	0
15.01.2021	09:22:47	0	11,18374	4,293313	3,2355	20,2824	-0,058	88,194	0	1013,26	6,6	8,6	8,5	1	1	1	1	1	1	1	1	1	0	1	-9,513742	273,975014	309,953909	0
15.01.2021	09:22:48	0	11,659643	4,971205	3,40275	20,6388	-0,052	88,219	0	1013,44	6,6	8,6	8,5	1	1	1	1	1	1	1	1	1	0	1	-12,403101	273,917276	306,795335	0
15.01.2021	09:22:49	0	11,421691	4,519277	3,34275	19,8792	-0,06	88,189	0	1013,44	6,6	8,6	8,5	1	1	1	1	1	1	1	1	1	0	1	-6,694856	273,855289	312,214745	0
15.01.2021	09:22:50	0	11,18374	4,745241	3,3165	20,268	-0,054	88,191	0	1013,36	6,6	8,6	8,5	1	1	1	1	1	1	1	1	1	0	1	-9,936575	273,906931	309,213643	0
15.01.2021	09:22:51	0	10,945788	2,711566	3,30375	17,6976	-0,054	88,18	0	1013,38	6,6	8,6	8,5	1	1	1	1	1	1	1	1	1	0	1	-6,765328	273,8229	311,993426	0
15.01.2021	09:22:52	0	11,183818	3,163494	3,15975	16,4808	-0,054	88,206	0	1013,22	6,6	8,5	8,5	1	1	1	1	1	1	1	1	1	0	1	-9,020437	273,921711	310,198673	0
15.01.2021	09:22:53	0	11,064841	2,259638	3,08025	9,7632	-0,053	88,203	0	1013,38	6,6	8,5	8,5	1	1	1	1	1	1	1	1	1	0	1	-7,047216	273,828785	311,738942	0
15.01.2021	09:22:54	0	11,18374	4,180331	3,1065	15,4044	-0,056	88,21	0	1013,42	6,6	8,6	8,5	1	1	1	1	1	1	1	1	1	0	1	-12,684989	273,933543	306,58928	0
15.01.2021	09:22:55	0	11,064764	3,389458	3,06	10,4436	-0,056	88,215	0	1013,34	6,6	8,6	8,5	1	1	1	1	1	1	1	1	1	0	1	-9,090909	273,825842	309,681546	0
15.01.2021	09:22:56	0	11,421691	5,423132	3,1995	8,5968	-0,057	88,199	0	1013,48	6,6	8,6	8,5	1	1	1	1	1	1	1	1	1	0	1	-5,778717	273,930585	313,481758	0
15.01.2021	09:22:57	0	11,183818	3,502482	3,42	6,0552	-0,046	88,216	0	1013,5	6,6	8,5	8,3	1	1	1	1	1	1	1	1	1	0	1	-9,231853	273,8332	309,574864	0
15.01.2021	09:22:58	0	11,421691	2,937565	3,4605	14,292	-0,056	88,202	0	1013,42	6,6	8,6	8,3	1	1	1	1	1	1	1	1	1	0	1	-8,668076	273,85971	310,262118	0
15.01.2021	09:22:59	0	11,421691	3,276515	3,44625	3,0312	-0,059	88,201	0	1013,4	6,6	8,6	8,3	1	1	1	1	1	1	1	1	1	0	1	-10,570825	273,858237	308,352504	0
15.01.2021	09:23:00	0	11,302715	2,711566	3,26625	5,67	-0,06	88,204	0	1013,4	6,6	8,6	8,5	1	1	1	1	1	1	1	1	1	0	1	-5,496829	273,949825	313,853352	0
15.01.2021	09:23:01	0	11,302715	2,711566	3,26625	5,67	-0,06	88,204	0	1013,4	6,6	8,6	8,5	1	1	1	1	1	1	1	1	1	0	1	-7,610994	273,982429	311,891243	0
15.01.2021	09:23:02	0	11,421691	3,502482	3,09225	3,7764	-0,063	88,181	0	1013,46	6,6	8,6	8,3	1	1	1	1	1	1	1	1	1	0	1	-3,312192	273,868555	315,659207	0
15.01.2021	09:23:03	0	11,18374	4,180331	2,95575	8,2584	-0,058	88,181	0	1013,48	6,6	8,6	8,5	1	1	1	1	1	1	1	1	1	0	1	-3,664553	273,997267	315,906904	0
15.01.2021	09:23:04	0	11,421691	3,728403	2,67375	10,4472	-0,051	88,194	0	1013,34	6,6	8,6	8,5	1	1	1	1	1	1	1	1	1	0	1	-9,513742	273,994298	310,043865	0
15.01.2021	09:23:05	0	11,540667	4,293365	2,4615	9,7488	-0,057	88,192	0	1013,38	6,6	8,6	8,3	1	1	1	1	1	1	1	1	1	0	1	-9,090909	273,906931	310,059309	0
15.01.2021	09:23:06	0	11,302715	4,067349	2,38575	13,896	-0,053	88,183	0	1013,3	6,6	8,6	8,5	1	1	1	1	1	1	1	1	1	0	1	-9,090909	273,819958	309,654147	0
15.01.2021	09:23:07	0	11,421691	3,615421	2,4045	13,176	-0,054	88,196	0	1013,28	6,6	8,6	8,5	1	1	1	1	1	1	1	1	1	0	1	-8,597604	273,952786	310,766387	0
15.01.2021	09:23:08	0	11,421691	3,163494	2,319	11,1888	-0,061	88,181	0	1013,3	6,6	8,6	8,5	1	1	1	1	1	1	1	1	1	0	1	-7,117689	273,877405	311,894938	0
15.01.2021	09:23:09	0	11,778619	4,180331	2,25675	359,442	-0,054	88,195	0	1013,16	6,6	8,6	8,5	1	1	1	1	1	1	1	1	1	0	1	-10,923185	273,979462	308,565215	0
15.01.2021	09:23:10	0	11,302715	4,519277	2,412	13,5396	-0,056	88,186	0	1013,44	6,6	8,6	8,5	1	1	1	1	1	1	1	1	1	0	1	-9,161381	273,933543	310,112888	0
15.01.2021	09:23:11	0	11,183818	3,728403	2,66625	13,5396	-0,057	88,198	0	1013,3	6,6	8,5	8,5	1	1	1	1	1	1	1	1	1	0	1	-9,513742	273,839088	309,320397	0
15.01.2021	09:23:12	0	11,302715	3,050548	2,7495	12,078	-0,061	88,176	0	1013,24	6,6	8,6	8,3	1	1	1	1	1	1	1	1	1	0	1	-6,272023	273,893638	312,816248	0
15.01.2021	09:23:13	0	11,540748	4,067349	2,8965	13,5468	-0,054	88,185	0	1013,3	6,6	8,5	8,5	1	1	1	1	1	1	1	1	1	0	1	-4,22833	273,842033	314,619524	0
15.01.2021	09:23:14	0	11,540667	3,389458	2,97	8,262	-0,061	88,198	0	1013,32	6,6	8,6	8,5	1	1	1	1	1	1	1	1	1	0	1	-12,825934	273,856763	306,090531	0
15.01.2021	09:23:15	0	11,302715	4,971205	3,2145	6,8256	-0,055	88,2	0	1013,4	6,6	8,6	8,5	1	1	1	1	1	1	1	1	1	0	1	-4,580691	273,975014	314,886961	0
15.01.2021	09:23:16	0	11,421691	2,711566	3,41475	16,4844	-0,055	88,193	0	1013,32	6,6	8,6	8,5	1	1	1	1	1	1	1	1	1	0	1	-2,114165	273,877405	316,898462	0
15.01.2021	09:23:17	0	11,183818	2,93753	3,17325	14,31	-0,053	88,209	0	1013,52	6,6	8,5	8,5	1	1	1	1	1	1	1	1	1	0	1	-8,879493	273,958711	310,512127	0
15.01.2021	09:23:18	0	11,540667	3,163494	2,80125	19,5264	-0,056	88,196	0	1013,38	6,6	8,6	8,5	1	1	1	1	1	1	1	1	1	0	1	-10,641297	273,818487	308,096911	0
15.01.2021	09:23:19	0	11,659643	5,084186	2,56725	14,6304	-0,06	88,203	0	1013,42	6,6	8,6	8,5	1	1	1	1	1	1	1	1	1	0	1	-8,949965	273,868555	310,021434	0
15.01.2021	09:23:20	0	11,421691	4,632259	2,57025	17,2368	-0,061	88,193	0	1013,3	6,6	8,6	8,5	1	1	1	1	1	1	1	1	1	0	1	-5,355884	273,992814	314,194799	0
15.01.2021	09:23:21	0	11,778702	3,389458	2,61675	13,1544	-0,059	88,211	0	1013,44	6,6	8,5	8,5	1	1	1	1	1	1	1	1	1	0	1	-7,963354	273,87003	311,014914	0
15.01.2021	09:23:22	0	11,659643	4,858223	2,60025	7,1352	-0,053	88,204	0	1013,4	6,6	8,6	8,5	1	1	1	1	1	1	1	1	1	0	1	-6,131078	273,87888	312,888422	0
15.01.2021	09:23:23	0	11,302715	4,632259	2,69775	13,9176	-0,065	88,198	0	1013,3	6,6	8,6	8,5	1	1	1	1	1	1	1	1	1	0	1	-13,953488	274,001721	305,638746	0
15.01.2021	09:23:24	0	11,659643	5,084186	2,8515	9,7524	-0,06	88,214	0	1013,36	6,6	8,6	8,5	1	1	1	1	1	1	1	1	1	0	1	-9,725159	273,92319	309,500844	0
15.01.2021	09:23:25	0	11,540667	4,632259	2,80725	12,096	-0,05	88,187	0	1013,36	6,6	8,6	8,5	1	1	1	1	1	1	1	1	1	0	1	-7,117689	274,001721	312,474546	0
15.01.2021	09:23:26	0	11,778702	2,711566	2,6415	2,6532	-0,055	88,214	0	1013,42	6,6	8,5	8,5	1	1	1	1	1	1	1	1	1	0	1	-5,637773	273,937982	313,657192	0
15.01.2021	09:23:27	0	11,540667	4,180331	2,5545	354,996	-0,053	88,216	0	1013,4	6,6	8,6	8,5	1	1	1	1	1	1	1	1	1	0	1	-9,090909	273,997267	310,480547	0
15.01.2021	09:23:28	0	11,778619	4,632259	2,57175	6,8076	-0,054	88,217	0	1013,4	6,6	8,6	8,5	1	1	1	1	1	1	1	1	1	0	1	-7,258633	273,970566	312,188275	0
15.01.2021	09:23:29	0	11,778619	3,50244	2,517	350,6328	-0,038	88,201	0	1013,56	6,6	8,6	8,5	1	1	1	1	1	1	1	1	1	0	1	-7,681466	273,875929	311,324288	0
15.01.2021	09:23:30	0	11,659643	4,858223	2,52075	349,3944	-0,057	88,196	0	1013,34	6,6	8,6	8,5	1	1	1	1	1	1	1	1	1	0	1	-11,486963	273,824371	307,278641	0
15.01.2021	09:23:31	0	11,540667	4,293313	2,53875	0,864	-0,058	88,213	0	1013,44	6,6	8,6	8,5	1	1	1	1	1	1	1	1	1	0	1	-5,990134	273,945383	313,339336	0
15.01.2021	09:23:32	0	11,897595	3,954367	2,508	2,6352	-0,055	88,212	0	1013,5	6,6	8,6	8,5	1	1	1	1	1	1	1	1	1	0	1	-3,523608	273,87888	315,495892	0
15.01.2021	09:23:33	0	11,302795	2,146656	2,48475	355,7772	-0,058	88,204	0	1013,42	6,6	8,5	8,5	1	1	1	1	1	1	1	1	1	0	1	-8,386187	273,844978	310,475383	0
15.01.2021	09:23:34	0	11,778702	3,615421	2,514	0	-0,064	88,229	0	1013,38	6,6	8,5	8,5	1	1	1	1	1	1	1	1	1	0	1	-7,117689	273,814076	311,599979	0
15.01.2021	09:23:35	0	11,540748	3,728403	2,562	0,5076	-0,056	88,213	0	1013,36	6,6	8,5	8,5	1	1	1	1	1	1	1	1	1	0	1	-5,073996	273,924668	314,1589	0
15.01.2021	09:23:36	0	11,540667	3,163494	2,5305	1,9908	-0,058	88,226	0	1013,34	6,6	8,6	8,5	1	1	1	1	1	1	1	1	1	0	1	-6,483439	274,000236	313,101869	0
15.01.2021	09:23:37	0	11,659725	3,050512	2,5155	356,238	-0,056	88,212	0	1013,38	6,5	8,5	8,5	1	1	1	1	1	1	1	1	1	0	1	-5,778717	273,909886	313,385274	0
15.01.2021	09:23:38	0	11,659643	3,841385	2,45325	13,1652	-0,056	88,217	0	1013,38	6,6	8,6	8,5	1	1	1	1	1	1	1	1	1	0	1	-5,919662	273,998751	313,65872	0
15.01.2021	09:23:39	0	11,659643	3,276476	2,445	9,3564	-0,056	88,231	0	1013,44	6,6	8,6	8,5	1	1	1	1	1	1	1	1	1	0	1	-7,399577	273,930585	311,860898	0
15.01.2021	09:23:40	0	11,540748	3,50244	2,3325	3,0096	-0,053	88,217	0	1013,32	6,5	8,5	8,5	1	1	1	1	1	1	1	1	1	0	1	-9,020437	273,844978	309,841134	0
15.01.2021	09:23:41	0	11,18374	3,954367	2,163	1,5552	-0,054	88,231	0	1013,4	6,6	8,6	8,5	1	1	1	1	1	1	1	1	1	0	1	-7,540521	273,969084	311,899473	0
15.01.2021	09:23:42	0	11,540667	3,615421	2,043	3,0204	-0,06	88,213	0	1013,38	6,6	8,6	8,5	1	1	1	1	1	1	1	1	1	0	1	-6,906272	273,874454	312,092609	0
15.01.2021	09:23:43	0	11,421691	4,180331	1,941	360	-0,057	88,231	0	1013,54	6,6	8,6	8,5	1	1	1	1	1	1	1	1	1	0	1	-7,751938	274,016574	311,9096	0
15.01.2021	09:23:44	0	11,540667	4,632259	1,827	7,8732	-0,06	88,234	0	1013,4	6,6	8,6	8,5	1	1	1	1	1	1	1	1	1	0	1	-7,047216	273,906931	312,103002	0
15.01.2021	09:23:45	0	12,135547	4,745241	1,7475	15,3936	-0,058	88,222	0	1013,26	6,6	8,6	8,5	1	1	1	1	1	1	1	1	1	0	1	-6,131078	273,988363	313,398839	0
15.01.2021	09:23:46	0	11,778702	4,067349	1,68825	23,5692	-0,065	88,212	0	1013,26	6,6	8,5	8,5	1	1	1	1	1	1	1	1	1	0	1	-5,003524	273,899545	314,112273	0
15.01.2021	09:23:47	0	11,659643	4,971205	1,7805	13,9248	-0,058	88,211	0	1013,4	6,6	8,6	8,5	1	1	1	1	1	1	1	1	1	0	1	-3,805497	273,836144	315,01493	0
15.01.2021	09:23:48	0	12,016571	4,858223	1,9095	7,128	-0,058	88,241	0	1013,44	6,6	8,6	8,5	1	1	1	1	1	1	1	1	1	0	1	-9,513742	273,979462	309,974658	0
15.01.2021	09:23:49	0	11,421691	2,598584	2,0205	8,9892	-0,055	88,233	0	1013,5	6,6	8,6	8,5	1	1	1	1	1	1	1	1	1	0	1	-10,42988	273,874454	308,569001	0
15.01.2021	09:23:50	0	11,659725	4,519277	1,9695	10,4472	-0,051	88,238	0	1013,44	6,6	8,5	8,5	1	1	1	1	1	1	1	1	1	0	1	-10,288936	274,001721	309,303299	0
15.01.2021	09:23:51	0	11,540667	3,728403	1,98675	8,244	-0,057	88,239	0	1013,34	6,6	8,6	8,5	1	1	1	1	1	1	1	1	1	0	1	-2,959831	273,958711	316,431789	0
15.01.2021	09:23:52	0	11,659643	3,276476	2,37525	2,88	-0,058	88,225	0	1013,38	6,6	8,6	8,5	1	1	1	1	1	1	1	1	1	0	1	-7,399577	273,874454	311,599304	0
15.01.2021	09:23:53	0	11,659643	4,519277	2,82375	15,4008	-0,056	88,228	0	1013,46	6,6	8,6	8,5	1	1	1	1	1	1	1	1	1	0	1	-5,778717	273,865607	313,178944	0
15.01.2021	09:23:54	0	11,897595	4,406295	3,0765	8,6004	-0,06	88,243	0	1013,44	6,5	8,6	8,5	1	1	1	1	1	1	1	1	1	0	1	-7,188161	274,00766	312,431788	0
15.01.2021	09:23:55	0	12,016655	4,632259	3,33525	13,5396	-0,058	88,241	0	1013,52	6,6	8,5	8,5	1	1	1	1	1	1	1	1	1	0	1	-6,20155	273,908408	312,955554	0
15.01.2021	09:23:56	0	12,135547	4,971264	3,49575	16,8552	-0,055	88,23	0	1013,36	6,6	8,6	8,3	1	1	1	1	1	1	1	1	1	0	1	-10,570825	273,972049	308,882997	0
15.01.2021	09:23:57	0	11,778619	4,745241	3,48675	16,4736	-0,06	88,242	0	1013,44	6,6	8,6	8,5	1	1	1	1	1	1	1	1	1	0	1	-6,412967	273,926147	312,826823	0
15.01.2021	09:23:58	0	11,778619	4,632259	3,48375	15,0156	-0,06	88,238	0	1013,4	6,5	8,6	8,5	1	1	1	1	1	1	1	1	1	0	1	-10,641297	274,00766	308,978652	0
15.01.2021	09:23:59	0	11,897595	2,93753	3,4755	13,1652	-0,065	88,245	0	1013,5	6,6	8,6	8,5	1	1	1	1	1	1	1	1	1	0	1	-5,637773	273,877405	313,374853	0
15.01.2021	09:24:00	0	11,778619	4,180381	3,552	13,1508	-0,063	88,232	0	1013,48	6,6	8,6	8,3	1	1	1	1	1	1	1	1	1	0	1	-8,527132	273,992814	311,023552	0
15.01.2021	09:24:01	0	11,778619	4,180381	3,552	13,1508	-0,063	88,232	0	1013,48	6,6	8,6	8,3	1	1	1	1	1	1	1	1	1	0	1	-2,818887	274,006175	316,794133	0
15.01.2021	09:24:02	0	12,016571	2,598584	3,5535	16,4736	-0,058	88,25	0	1013,4	6,6	8,6	8,5	1	1	1	1	1	1	1	1	1	0	1	-8,315715	273,927626	310,930969	0
15.01.2021	09:24:03	0	11,897595	4,745241	3,363	11,7	-0,06	88,242	0	1013,26	6,6	8,6	8,5	1	1	1	1	1	1	1	1	1	0	1	-7,681466	273,849396	311,200685	0
15.01.2021	09:24:04	0	11,659643	4,067349	3,387	10,4364	-0,062	88,235	0	1013,5	6,6	8,6	8,5	1	1	1	1	1	1	1	1	1	0	1	-3,030303	273,837616	315,796979	0
15.01.2021	09:24:05	0	11,897595	2,824548	3,3225	17,2368	-0,06	88,261	0	1013,46	6,5	8,6	8,5	1	1	1	1	1	1	1	1	1	0	1	-7,329105	273,986879	312,193891	0
15.01.2021	09:24:06	0	11,540667	3,954415	3,168	15,8868	-0,058	88,242	0	1013,36	6,6	8,6	8,3	1	1	1	1	1	1	1	1	1	0	1	-10,500352	273,828785	308,285806	0
15.01.2021	09:24:07	0	12,135547	3,841385	3,159	5,7384	-0,052	88,256	0	1013,44	6,6	8,6	8,5	1	1	1	1	1	1	1	1	1	0	1	-9,654686	273,95723	309,730025	0
15.01.2021	09:24:08	0	11,897595	3,728403	3,18225	5,2236	-0,064	88,247	0	1013,32	6,6	8,6	8,5	1	1	1	1	1	1	1	1	1	0	1	-7,117689	273,943903	312,204879	0
15.01.2021	09:24:09	0	11,778619	4,519277	3,1485	2,6316	-0,055	88,246	0	1013,26	6,6	8,6	8,5	1	1	1	1	1	1	1	1	1	0	1	-9,231853	273,976497	310,242714	0
15.01.2021	09:24:10	0	11,540748	2,711566	3,1305	13,1688	-0,056	88,249	0	1013,34	6,6	8,5	8,5	1	1	1	1	1	1	1	1	1	0	1	-3,946441	273,976497	315,528126	0
15.01.2021	09:24:11	0	12,016571	2,93753	3,14325	360	-0,058	88,231	0	1013,28	6,5	8,6	8,5	1	1	1	1	1	1	1	1	1	0	1	-7,117689	273,852343	311,778186	0
15.01.2021	09:24:12	0	11,778619	3,841431	3,24375	10,422	-0,067	88,248	0	1013,34	6,6	8,6	8,3	1	1	1	1	1	1	1	1	1	0	1	-4,933051	273,932064	314,334321	0
15.01.2021	09:24:13	0	11,540667	4,067349	3,4185	8,6076	-0,057	88,254	0	1013,22	6,6	8,6	8,5	1	1	1	1	1	1	1	1	1	0	1	-8,80902	273,839088	310,025118	0
15.01.2021	09:24:14	0	11,778619	4,632259	3,43875	12,8376	-0,059	88,248	0	1013,42	6,6	8,6	8,5	1	1	1	1	1	1	1	1	1	0	1	-11,205074	273,951305	308,152011	0
15.01.2021	09:24:15	0	11,659643	4,632259	3,38625	13,1652	-0,06	88,24	0	1013,42	6,6	8,6	8,5	1	1	1	1	1	1	1	1	1	0	1	-2,466526	273,943903	316,856042	0
15.01.2021	09:24:16	0	11,778619	5,084186	3,102	10,8144	-0,062	88,249	0	1013,38	6,6	8,6	8,5	1	1	1	1	1	1	1	1	1	0	1	-4,22833	273,847923	314,64696	0
15.01.2021	09:24:17	0	11,778619	4,745241	3,01125	11,7216	-0,062	88,254	0	1013,44	6,6	8,6	8,5	1	1	1	1	1	1	1	1	1	0	1	-6,553911	273,960193	312,844617	0
15.01.2021	09:24:18	0	11,778619	2,598584	3	21,0168	-0,064	88,249	0	1013,34	6,6	8,6	8,5	1	1	1	1	1	1	1	1	1	0	1	-8,245243	274,010631	311,388566	0
15.01.2021	09:24:19	0	11,897595	2,598584	2,8905	16,8516	-0,061	88,253	0	1013,34	6,6	8,6	8,5	1	1	1	1	1	1	1	1	1	0	1	-6,131078	273,844978	312,730492	0
15.01.2021	09:24:20	0	11,659725	2,93753	3,0135	0,486	-0,062	88,26	0	1013,46	6,5	8,5	8,5	1	1	1	1	1	1	1	1	1	0	1	-4,510218	273,87888	314,509282	0
15.01.2021	09:24:21	0	11,897595	4,519277	2,89425	7,506	-0,063	88,254	0	1013,42	6,6	8,6	8,5	1	1	1	1	1	1	1	1	1	0	1	-11,41649	273,998751	308,161891	0
15.01.2021	09:24:22	0	11,897595	3,276515	2,7585	355,4208	-0,055	88,245	0	1013,34	6,6	8,6	8,3	1	1	1	1	1	1	1	1	1	0	1	-5,84919	273,946863	313,487183	0
15.01.2021	09:24:23	0	12,016571	4,632259	2,6925	3,7872	-0,062	88,254	0	1013,26	6,6	8,6	8,5	1	1	1	1	1	1	1	1	1	0	1	-10,42988	273,964638	308,989378	0
15.01.2021	09:24:24	0	11,659643	3,389458	2,5365	1,9188	-0,062	88,252	0	1013,38	6,6	8,6	8,5	1	1	1	1	1	1	1	1	1	0	1	-8,45666	273,943903	310,865908	0
15.01.2021	09:24:25	0	11,659643	2,93753	2,6385	18,4356	-0,06	88,252	0	1013,44	6,5	8,6	8,5	1	1	1	1	1	1	1	1	1	0	1	-7,540521	273,997267	312,030935	0
15.01.2021	09:24:26	0	12,135547	4,745241	2,598	9,3744	-0,061	88,251	0	1013,42	6,6	8,6	8,5	1	1	1	1	1	1	1	1	1	0	1	-6,906272	273,969084	312,533722	0
15.01.2021	09:24:27	0	11,659643	3,163532	2,5275	3,7764	-0,059	88,26	0	1013,3	6,6	8,6	8,3	1	1	1	1	1	1	1	1	1	0	1	-3,875969	273,867081	315,088561	0
15.01.2021	09:24:28	0	11,897595	4,067349	2,47425	7,128	-0,062	88,256	0	1013,4	6,6	8,6	8,5	1	1	1	1	1	1	1	1	1	0	1	-6,765328	274,001721	312,826907	0
15.01.2021	09:24:29	0	11,897595	2,824548	2,38725	20,2752	-0,059	88,252	0	1013,44	6,6	8,6	8,5	1	1	1	1	1	1	1	1	1	0	1	-10,711769	273,937982	308,583196	0
15.01.2021	09:24:30	0	11,778619	4,406295	2,3925	9,7488	-0,058	88,249	0	1013,54	6,6	8,6	8,5	1	1	1	1	1	1	1	1	1	0	1	-7,82241	274,012117	311,81833	0
15.01.2021	09:24:31	0	12,373499	4,293313	2,187	11,7144	-0,063	88,266	0	1013,4	6,6	8,6	8,5	1	1	1	1	1	1	1	1	1	0	1	-6,765328	273,880355	312,261046	0
15.01.2021	09:24:32	0	11,778619	2,824548	2,08125	4,086	-0,054	88,271	0	1013,42	6,6	8,6	8,5	1	1	1	1	1	1	1	1	1	0	1	-7,258633	273,846451	311,609797	0
15.01.2021	09:24:33	0	11,778619	2,937565	2,18325	352,6956	-0,057	88,252	0	1013,38	6,6	8,6	8,3	1	1	1	1	1	1	1	1	1	0	1	-5,073996	273,895115	314,021155	0
15.01.2021	09:24:34	0	12,016571	4,745241	2,31225	10,8072	-0,058	88,27	0	1013,42	6,6	8,6	8,5	1	1	1	1	1	1	1	1	1	0	1	-8,45666	273,949825	310,893521	0
15.01.2021	09:24:35	0	11,897595	4,406295	2,42175	19,134	-0,057	88,258	0	1013,42	6,6	8,6	8,5	1	1	1	1	1	1	1	1	1	0	1	-8,315715	273,998751	311,262667	0
15.01.2021	09:24:36	0	12,254609	3,050512	2,50875	12,0672	-0,053	88,258	0	1013,34	6,6	8,5	8,5	1	1	1	1	1	1	1	1	1	0	1	-4,510218	273,87888	314,509282	0
15.01.2021	09:24:37	0	11,897595	3,841385	2,61375	7,4916	-0,059	88,258	0	1013,36	6,6	8,6	8,5	1	1	1	1	1	1	1	1	1	0	1	-8,527132	273,895115	310,568019	0
15.01.2021	09:24:38	0	12,135547	4,971205	2,89725	11,7072	-0,061	88,259	0	1013,42	6,6	8,6	8,5	1	1	1	1	1	1	1	1	1	0	1	-8,668076	273,975014	310,799575	0
15.01.2021	09:24:39	0	11,897595	4,180331	3,0345	8,2584	-0,062	88,255	0	1013,3	6,5	8,6	8,5	1	1	1	1	1	1	1	1	1	0	1	-7,963354	273,886258	311,090523	0
15.01.2021	09:24:40	0	12,016571	3,502482	2,9895	16,4772	-0,059	88,268	0	1013,44	6,6	8,6	8,3	1	1	1	1	1	1	1	1	1	0	1	-6,060606	273,961674	313,344832	0
15.01.2021	09:24:41	0	11,897595	5,084186	2,8665	3,1176	-0,059	88,266	0	1013,3	6,6	8,6	8,5	1	1	1	1	1	1	1	1	1	0	1	-5,990134	273,985395	313,525942	0
15.01.2021	09:24:42	0	12,016571	4,406295	2,799	3,0348	-0,058	88,275	0	1013,44	6,6	8,6	8,5	1	1	1	1	1	1	1	1	1	0	1	-6,694856	273,979462	312,793545	0
15.01.2021	09:24:43	0	11,897595	3,389458	2,784	9,36	-0,061	88,25	0	1013,5	6,6	8,6	8,5	1	1	1	1	1	1	1	1	1	0	1	-8,174771	273,967602	311,258311	0
15.01.2021	09:24:44	0	11,897679	4,067349	2,8905	7,8696	-0,061	88,265	0	1013,4	6,6	8,5	8,5	1	1	1	1	1	1	1	1	1	0	1	-7,540521	273,831728	311,259342	0
15.01.2021	09:24:45	0	12,254523	2,711566	3,05325	9,3672	-0,059	88,268	0	1013,24	6,6	8,6	8,5	1	1	1	1	1	1	1	1	1	0	1	-6,553911	273,935023	312,727256	0
15.01.2021	09:24:46	0	12,135547	3,841385	3,04875	15,7824	-0,059	88,271	0	1013,42	6,5	8,6	8,5	1	1	1	1	1	1	1	1	1	0	1	-8,104299	273,852343	310,791576	0
15.01.2021	09:24:47	0	12,135632	5,084186	3,02025	5,2308	-0,061	88,264	0	1013,34	6,6	8,5	8,5	1	1	1	1	1	1	1	1	1	0	1	-4,510218	273,970566	314,936689	0
15.01.2021	09:24:48	0	12,016571	3,615421	3,021	16,4664	-0,061	88,273	0	1013,5	6,6	8,6	8,5	1	1	1	1	1	1	1	1	1	0	1	-11,346018	273,901022	307,776661	0
15.01.2021	09:24:49	0	11,659643	4,858223	3,12675	1,2816	-0,056	88,283	0	1013,58	6,5	8,6	8,5	1	1	1	1	1	1	1	1	1	0	1	-7,258633	274,009146	312,368246	0
15.01.2021	09:24:50	0	12,254523	3,841385	3,04575	5,2236	-0,057	88,282	0	1013,4	6,6	8,6	8,5	1	1	1	1	1	1	1	1	1	0	1	-3,523608	273,951305	315,833477	0
15.01.2021	09:24:51	0	12,016571	4,180331	2,81325	3,3876	-0,054	88,279	0	1013,44	6,6	8,6	8,5	1	1	1	1	1	1	1	1	1	0	1	-4,22833	274,00766	315,391619	0
15.01.2021	09:24:52	0	12,135547	3,954367	2,6985	9,3672	-0,056	88,282	0	1013,46	6,6	8,6	8,5	1	1	1	1	1	1	1	1	1	0	1	-7,540521	273,940942	311,768243	0
15.01.2021	09:24:53	0	11,897679	3,615421	2,57625	14,6556	-0,063	88,267	0	1013,38	6,6	8,5	8,5	1	1	1	1	1	1	1	1	1	0	1	-11,346018	273,846451	307,522412	0
15.01.2021	09:24:54	0	12,373499	3,615421	2,5455	9,7452	-0,061	88,272	0	1013,32	6,5	8,6	8,5	1	1	1	1	1	1	1	1	1	0	1	-11,486963	273,976497	307,987604	0
15.01.2021	09:24:55	0	12,135547	4,519277	2,5875	16,4808	-0,06	88,266	0	1013,4	6,6	8,6	8,5	1	1	1	1	1	1	1	1	1	0	1	-4,439746	273,997267	315,13171	0
15.01.2021	09:24:56	0	12,254523	4,180331	2,4495	11,1888	-0,054	88,29	0	1013,38	6,5	8,6	8,5	1	1	1	1	1	1	1	1	1	0	1	-7,82241	273,864132	311,128383	0
15.01.2021	09:24:57	0	11,897595	2,93753	2,42925	15,4116	-0,059	88,274	0	1013,48	6,6	8,6	8,5	1	1	1	1	1	1	1	1	1	0	1	-4,721635	273,982429	314,780602	0
15.01.2021	09:24:58	0	12,135547	3,841385	2,57775	18,072	-0,052	88,286	0	1013,46	6,6	8,6	8,5	1	1	1	1	1	1	1	1	1	0	1	-7,117689	274,01806	312,550784	0
15.01.2021	09:24:59	0	12,016571	4,745241	2,823	14,6556	-0,059	88,286	0	1013,48	6,6	8,6	8,5	1	1	1	1	1	1	1	1	1	0	1	-4,862579	273,890686	314,211932	0
15.01.2021	09:25:00	0	12,254523	4,293313	2,90475	7,218	-0,066	88,288	0	1013,28	6,6	8,6	8,5	1	1	1	1	1	1	1	1	1	0	1	-7,470049	273,881831	311,5632	0
15.01.2021	09:25:01	0	12,254523	4,293313	2,90475	7,218	-0,066	88,288	0	1013,28	6,6	8,6	8,5	1	1	1	1	1	1	1	1	1	0	1	-7,470049	273,881831	311,5632	0
15.01.2021	09:25:02	0	12,016571	4,180331	2,84925	3,0312	-0,059	88,295	0	1013,42	6,6	8,6	8,5	1	1	1	1	1	1	1	1	1	0	1	-5,567301	273,982429	313,934936	0
15.01.2021	09:25:03	0	12,492475	3,841385	2,745	3,0204	-0,06	88,293	0	1013,42	6,6	8,6	8,5	1	1	1	1	1	1	1	1	1	0	1	-10,923185	273,976497	308,551382	0
15.01.2021	09:25:04	0	12,254523	4,293313	2,6115	352,854	-0,058	88,296	0	1013,28	6,6	8,6	8,5	1	1	1	1	1	1	1	1	1	0	1	-1,550388	273,87888	317,469112	0
15.01.2021	09:25:05	0	12,492563	3,615421	2,505	1,1628	-0,061	88,289	0	1013,48	6,5	8,5	8,5	1	1	1	1	1	1	1	1	1	0	1	-1,761804	273,883306	317,27832	0
15.01.2021	09:25:06	0	12,016655	4,745241	2,4315	360	-0,055	88,309	0	1013,4	6,6	8,5	8,5	1	1	1	1	1	1	1	1	1	0	1	-7,258633	274,010631	312,375176	0
15.01.2021	09:25:07	0	12,016571	3,728403	2,4345	359,748	-0,065	88,286	0	1013,36	6,5	8,6	8,5	1	1	1	1	1	1	1	1	1	0	1	-11,768851	273,948344	307,574425	0
15.01.2021	09:25:08	0	12,135547	3,728403	2,526	6,0624	-0,055	88,285	0	1013,36	6,6	8,6	8,5	1	1	1	1	1	1	1	1	1	0	1	-13,812544	273,975014	305,655107	0
15.01.2021	09:25:09	0	12,016571	4,519277	2,775	20,9988	-0,059	88,285	0	1013,28	6,6	8,6	8,5	1	1	1	1	1	1	1	1	1	0	1	-7,188161	274,021032	312,494181	0
15.01.2021	09:25:10	0	12,016571	3,841385	2,69025	3,7728	-0,057	88,29	0	1013,36	6,6	8,6	8,5	1	1	1	1	1	1	1	1	1	0	1	-5,637773	273,930585	313,622702	0
15.01.2021	09:25:11	0	12,135547	3,841385	2,559	355,4136	-0,053	88,305	0	1013,44	6,6	8,6	8,5	1	1	1	1	1	1	1	1	1	0	1	-5,073996	274,013602	314,573677	0
15.01.2021	09:25:12	0	11,897595	3,389458	2,622	1,5444	-0,057	88,306	0	1013,38	6,6	8,6	8,5	1	1	1	1	1	1	1	1	1	0	1	-8,033827	273,936503	311,254239	0
15.01.2021	09:25:13	0	12,135547	3,50244	2,73525	3,762	-0,06	88,296	0	1013,3	6,5	8,6	8,5	1	1	1	1	1	1	1	1	1	0	1	-4,933051	274,009146	314,693827	0
15.01.2021	09:25:14	0	12,254523	4,406295	2,66325	3,384	-0,058	88,306	0	1013,38	6,6	8,6	8,5	1	1	1	1	1	1	1	1	1	0	1	-9,654686	273,933543	309,619583	0
15.01.2021	09:25:15	0	12,135547	4,406295	2,64975	357,6384	-0,061	88,309	0	1013,34	6,6	8,6	8,5	1	1	1	1	1	1	1	1	1	0	1	-11,41649	274,016574	308,245048	0
15.01.2021	09:25:16	0	12,254523	4,745241	2,53725	359,5284	-0,056	88,299	0	1013,28	6,6	8,6	8,5	1	1	1	1	1	1	1	1	1	0	1	-7,329105	273,868555	311,642294	0
15.01.2021	09:25:17	0	12,016571	3,163494	2,42025	3,7692	-0,055	88,313	0	1013,44	6,5	8,6	8,5	1	1	1	1	1	1	1	1	1	0	1	-2,114165	273,977979	317,367319	0
15.01.2021	09:25:18	0	12,373499	2,824548	2,31375	356,58	-0,063	88,293	0	1013,28	6,6	8,6	8,5	1	1	1	1	1	1	1	1	1	0	1	-5,778717	273,861184	313,158343	0
15.01.2021	09:25:19	0	12,492475	2,598584	2,16075	359,0424	-0,059	88,301	0	1013,36	6,6	8,6	8,5	1	1	1	1	1	1	1	1	1	0	1	-7,188161	274,003205	312,411002	0
15.01.2021	09:25:20	0	12,373499	4,067349	2,07675	357,6384	-0,063	88,308	0	1013,38	6,6	8,6	8,5	1	1	1	1	1	1	1	1	1	0	1	-6,20155	273,91432	312,983105	0
15.01.2021	09:25:21	0	12,135547	3,050512	2,08425	350,6724	-0,063	88,298	0	1013,38	6,5	8,6	8,5	1	1	1	1	1	1	1	1	1	0	1	-7,82241	273,844978	311,03916	0
15.01.2021	09:25:22	0	12,730427	3,050512	2,271	354,6576	-0,058	88,319	0	1013,5	6,6	8,6	8,5	1	1	1	1	1	1	1	1	1	0	1	-6,694856	273,880355	312,331519	0
15.01.2021	09:25:23	0	12,492475	3,050512	2,47125	351,0324	-0,057	88,297	0	1013,42	6,6	8,6	8,5	1	1	1	1	1	1	1	1	1	0	1	-10,852713	273,850869	308,036299	0
15.01.2021	09:25:24	0	12,492475	4,858223	2,5875	343,908	-0,065	88,307	0	1013,34	6,6	8,6	8,5	1	1	1	1	1	1	1	1	1	0	1	-3,875969	273,886258	315,177908	0
15.01.2021	09:25:25	0	12,492475	3,276476	2,63025	352,0692	-0,057	88,304	0	1013,4	6,6	8,6	8,5	1	1	1	1	1	1	1	1	1	0	1	-3,100775	273,982429	316,401462	0
15.01.2021	09:25:26	0	12,849403	5,197168	2,5905	344,2212	-0,06	88,302	0	1013,26	6,6	8,6	8,5	1	1	1	1	1	1	1	1	1	0	1	-4,792107	273,911364	314,378772	0
15.01.2021	09:25:27	0	12,492563	3,50244	2,38125	353,574	-0,059	88,312	0	1013,38	6,6	8,5	8,5	1	1	1	1	1	1	1	1	1	0	1	-9,161381	274,006175	310,451638	0
15.01.2021	09:25:28	0	12,492475	4,858223	2,2545	346,0824	-0,055	88,308	0	1013,4	6,6	8,6	8,5	1	1	1	1	1	1	1	1	1	0	1	-5,426357	273,930585	313,834119	0
15.01.2021	09:25:29	0	12,254523	3,50244	2,2395	345,8304	-0,056	88,294	0	1013,44	6,6	8,6	8,5	1	1	1	1	1	1	1	1	1	0	1	-9,725159	273,837616	309,102124	0
15.01.2021	09:25:30	0	12,492475	3,50244	2,2395	347,5368	-0,051	88,318	0	1013,42	6,6	8,6	8,5	1	1	1	1	1	1	1	1	1	0	1	-6,765328	273,886258	312,288549	0
15.01.2021	09:25:31	0	12,611451	4,745241	2,45925	2,2896	-0,058	88,299	0	1013,4	6,6	8,6	8,5	1	1	1	1	1	1	1	1	1	0	1	-3,453136	273,970566	315,993771	0
15.01.2021	09:25:32	0	12,492475	3,50244	2,5695	345,7728	-0,062	88,322	0	1013,18	6,6	8,6	8,5	1	1	1	1	1	1	1	1	1	0	1	-6,20155	273,976497	313,273017	0
15.01.2021	09:25:33	0	12,611451	3,50244	2,6925	360	-0,058	88,301	0	1013,32	6,6	8,6	8,5	1	1	1	1	1	1	1	1	1	0	1	-7,470049	274,00766	312,149899	0
15.01.2021	09:25:34	0	12,373499	4,293313	2,8845	356,976	-0,056	88,313	0	1013,42	6,6	8,6	8,5	1	1	1	1	1	1	1	1	1	0	1	-6,8358	273,875929	312,169954	0
15.01.2021	09:25:35	0	12,730427	3,841385	2,9595	358,6788	-0,065	88,33	0	1013,28	6,6	8,6	8,5	1	1	1	1	1	1	1	1	1	0	1	-9,795631	273,995783	309,768901	0
15.01.2021	09:25:36	0	12,254523	2,824548	2,9295	352,8324	-0,053	88,311	0	1013,34	6,6	8,6	8,5	1	1	1	1	1	1	1	1	1	0	1	-5,285412	274,021032	314,39693	0
15.01.2021	09:25:37	0	12,492475	3,50244	2,955	1,9008	-0,057	88,33	0	1013,36	6,6	8,6	8,5	1	1	1	1	1	1	1	1	1	0	1	-7,047216	273,958711	312,344403	0
15.01.2021	09:25:38	0	12,373499	4,067349	2,8545	3,3696	-0,055	88,333	0	1013,38	6,6	8,6	8,5	1	1	1	1	1	1	1	1	1	0	1	-4,862579	273,708501	313,363821	0
15.01.2021	09:25:39	0	12,730427	4,971205	2,7555	350,3412	-0,055	88,334	0	1013,38	6,6	8,6	8,5	1	1	1	1	1	1	1	1	1	0	1	-9,654686	273,915798	309,536859	0
15.01.2021	09:25:40	0	12,373499	4,293313	2,778	8,9964	-0,056	88,332	0	1013,46	6,6	8,6	8,5	1	1	1	1	1	1	1	1	1	0	1	-5,355884	273,982429	314,146352	0
15.01.2021	09:25:41	0	12,730427	4,406295	2,84325	357,2316	-0,062	88,337	0	1013,42	6,6	8,6	8,5	1	1	1	1	1	1	1	1	1	0	1	-6,060606	274,000236	313,524702	0
15.01.2021	09:25:42	0	12,492475	3,615421	2,9535	1,5408	-0,052	88,321	0	1013,22	6,6	8,6	8,5	1	1	1	1	1	1	1	1	1	0	1	-5,144468	273,998751	314,433914	0
15.01.2021	09:25:43	0	12,849403	3,050512	2,883	9,3492	-0,053	88,34	0	1013,44	6,6	8,6	8,5	1	1	1	1	1	1	1	1	1	0	1	-3,946441	273,87003	315,031827	0
15.01.2021	09:25:44	0	12,611451	2,93753	2,81175	1,5372	-0,054	88,338	0	1013,4	6,6	8,6	8,5	1	1	1	1	1	1	1	1	1	0	1	-10,147992	273,915798	309,043554	0
15.01.2021	09:25:45	0	12,254609	2,711566	2,79975	12,4848	-0,052	88,327	0	1013,36	6,6	8,5	8,5	1	1	1	1	1	1	1	1	1	0	1	-4,580691	273,849396	314,30146	0
15.01.2021	09:25:46	0	12,611451	2,93753	2,78925	5,2056	-0,05	88,345	0	1013,56	6,6	8,6	8,5	1	1	1	1	1	1	1	1	1	0	1	-7,610994	273,858237	311,312335	0
15.01.2021	09:25:47	0	12,492475	3,50244	2,76225	14,6628	-0,055	88,336	0	1013,38	6,6	8,6	8,5	1	1	1	1	1	1	1	1	1	0	1	-7,047216	273,918754	312,15811	0
15.01.2021	09:25:48	0	12,730516	4,858223	2,75325	12,5424	-0,053	88,33	0	1013,46	6,6	8,5	8,5	1	1	1	1	1	1	1	1	1	0	1	-8,80902	273,836144	310,011406	0
15.01.2021	09:25:49	0	12,730427	2,598584	2,78325	22,8276	-0,056	88,344	0	1013,42	6,6	8,6	8,5	1	1	1	1	1	1	1	1	1	0	1	-12,403101	273,893638	306,685169	0
15.01.2021	09:25:50	0	12,968379	3,615421	2,8935	360	-0,057	88,349	0	1013,48	6,6	8,6	8,5	1	1	1	1	1	1	1	1	1	0	1	-3,875969	274,003205	315,723193	0
15.01.2021	09:25:51	0	12,730427	4,745241	2,9025	0,4788	-0,051	88,351	0	1013,42	6,6	8,6	8,5	1	1	1	1	1	1	1	1	1	0	1	-5,21494	273,864132	313,735854	0
15.01.2021	09:25:52	0	12,611451	3,728403	2,79375	6,8256	-0,047	88,357	0	1013,46	6,6	8,6	8,5	1	1	1	1	1	1	1	1	1	0	1	-8,315715	273,961674	311,089722	0
15.01.2021	09:25:53	0	12,373499	3,163494	2,748	3,0132	-0,056	88,35	0	1013,32	6,6	8,6	8,5	1	1	1	1	1	1	1	1	1	0	1	-6,694856	273,844978	312,166715	0
15.01.2021	09:25:54	0	12,849403	4,632259	2,5455	10,8036	-0,062	88,339	0	1013,3	6,6	8,6	8,5	1	1	1	1	1	1	1	1	1	0	1	-5,567301	273,975014	313,90035	0
15.01.2021	09:25:55	0	12,611451	4,632259	2,42775	19,5084	-0,06	88,348	0	1013,4	6,6	8,6	8,5	1	1	1	1	1	1	1	1	1	0	1	-7,047216	273,867081	311,917313	0
15.01.2021	09:25:56	0	12,849403	2,598584	2,31525	7,5132	-0,054	88,341	0	1013,44	6,5	8,6	8,5	1	1	1	1	1	1	1	1	1	0	1	-6,624383	273,864132	312,32641	0
15.01.2021	09:25:57	0	12,611451	4,519277	2,45175	8,9964	-0,053	88,357	0	1013,42	6,6	8,6	8,5	1	1	1	1	1	1	1	1	1	0	1	-7,82241	273,992814	311,728274	0
15.01.2021	09:25:58	0	12,730427	3,954367	2,84475	7,1316	-0,057	88,335	0	1013,46	6,6	8,6	8,5	1	1	1	1	1	1	1	1	1	0	1	-4,510218	273,997267	315,061238	0
15.01.2021	09:25:59	0	12,492475	3,50244	2,9385	10,0512	-0,055	88,354	0	1013,32	6,6	8,6	8,5	1	1	1	1	1	1	1	1	1	0	1	-11,839323	273,935023	307,441844	0
15.01.2021	09:26:00	0	12,730427	4,406295	2,89725	349,9092	-0,056	88,328	0	1013,14	6,6	8,6	8,5	1	1	1	1	1	1	1	1	1	0	1	-7,117689	273,969084	312,322306	0
15.01.2021	09:26:01	0	12,730427	4,406295	2,89725	349,9092	-0,056	88,328	0	1013,14	6,6	8,6	8,5	1	1	1	1	1	1	1	1	1	0	1	-7,117689	273,969084	312,322306	0
15.01.2021	09:26:02	0	13,087446	3,728403	3,12675	333,8424	-0,052	88,348	0	1013,2	6,6	8,5	8,5	1	1	1	1	1	1	1	1	1	0	1	-6,20155	273,847923	312,67374	0
15.01.2021	09:26:03	0	12,730427	5,423132	2,99925	346,8636	-0,058	88,327	0	1013,4	6,6	8,6	8,5	1	1	1	1	1	1	1	1	1	0	1	-6,553911	273,955749	312,823893	0
15.01.2021	09:26:04	0	12,492475	2,598584	2,81475	354,6504	-0,051	88,347	0	1013,38	6,6	8,6	8,5	1	1	1	1	1	1	1	1	1	0	1	-9,584214	274,010631	310,049595	0
15.01.2021	09:26:05	0	13,087355	4,745241	2,60475	359,4564	-0,062	88,337	0	1013,16	6,6	8,6	8,5	1	1	1	1	1	1	1	1	1	0	1	-4,510218	273,874454	314,488663	0
15.01.2021	09:26:06	0	12,611451	4,519277	2,5515	4,446	-0,051	88,36	0	1013,58	6,6	8,6	8,5	1	1	1	1	1	1	1	1	1	0	1	-6,342495	273,896591	312,759537	0
15.01.2021	09:26:07	0	12,492475	3,163494	2,46525	18,4464	-0,062	88,352	0	1013,36	6,6	8,6	8,5	1	1	1	1	1	1	1	1	1	0	1	-6,060606	273,861184	312,876454	0
15.01.2021	09:26:08	0	13,087355	3,954367	2,63925	346,4424	-0,058	88,359	0	1013,4	6,6	8,6	8,5	1	1	1	1	1	1	1	1	1	0	1	-7,82241	273,976497	311,652157	0
15.01.2021	09:26:09	0	12,849403	3,276476	2,6985	350,9568	-0,059	88,343	0	1013,34	6,6	8,6	8,5	1	1	1	1	1	1	1	1	1	0	1	-9,372798	273,877405	309,639829	0
15.01.2021	09:26:10	0	13,087355	4,180331	2,7375	356,1624	-0,056	88,358	0	1013,5	6,6	8,6	8,5	1	1	1	1	1	1	1	1	1	0	1	-7,610994	273,986879	311,912002	0
15.01.2021	09:26:11	0	12,730427	3,389458	2,5665	8,604	-0,057	88,346	0	1013,42	6,5	8,6	8,5	1	1	1	1	1	1	1	1	1	0	1	-8,527132	273,961674	310,878306	0
15.01.2021	09:26:12	0	12,730427	4,858223	2,556	8,2584	-0,061	88,357	0	1013,42	6,6	8,6	8,5	1	1	1	1	1	1	1	1	1	0	1	-6,131078	274,006175	313,481941	0
15.01.2021	09:26:13	0	12,849403	3,50244	2,61675	10,4256	-0,058	88,358	0	1013,58	6,6	8,6	8,5	1	1	1	1	1	1	1	1	1	0	1	-7,329105	273,880355	311,697269	0
15.01.2021	09:26:14	0	12,611451	4,293313	2,67225	7,5096	-0,056	88,36	0	1013,28	6,5	8,6	8,5	1	1	1	1	1	1	1	1	1	0	1	-8,597604	273,846451	310,270826	0
15.01.2021	09:26:15	0	12,968379	4,293313	2,8005	6,426	-0,056	88,344	0	1013,38	6,6	8,6	8,5	1	1	1	1	1	1	1	1	1	0	1	-6,906272	273,994298	312,651335	0
15.01.2021	09:26:16	0	12,968379	4,745241	2,79675	10,044	-0,056	88,355	0	1013,44	6,6	8,6	8,5	1	1	1	1	1	1	1	1	1	0	1	-8,104299	273,893638	310,983971	0
15.01.2021	09:26:17	0	12,611451	3,276476	2,79375	356,562	-0,054	88,349	0	1013,52	6,6	8,6	8,5	1	1	1	1	1	1	1	1	1	0	1	-8,033827	273,836144	310,7866	0
15.01.2021	09:26:18	0	12,968379	3,50244	2,67675	350,6688	-0,053	88,364	0	1013,34	6,6	8,6	8,5	1	1	1	1	1	1	1	1	1	0	1	-6,906272	273,967602	312,52681	0
15.01.2021	09:26:19	0	12,730427	4,180331	2,712	1,1628	-0,051	88,371	0	1013,48	6,6	8,6	8,5	1	1	1	1	1	1	1	1	1	0	1	-7,329105	273,992814	312,221579	0
15.01.2021	09:26:20	0	12,968379	4,406295	2,9535	359,1504	-0,053	88,352	0	1013,48	6,5	8,6	8,5	1	1	1	1	1	1	1	1	1	0	1	-6,060606	273,896591	313,041426	0
15.01.2021	09:26:21	0	12,730427	3,615421	3,18525	8,2404	-0,049	88,37	0	1013,56	6,6	8,6	8,5	1	1	1	1	1	1	1	1	1	0	1	-4,016913	273,868555	314,954486	0
15.01.2021	09:26:22	0	13,087355	3,50244	3,4335	8,6076	-0,052	88,358	0	1013,44	6,5	8,6	8,5	1	1	1	1	1	1	1	1	1	0	1	-8,033827	273,964638	311,385432	0
15.01.2021	09:26:23	0	13,087355	4,858223	3,5685	8,964	-0,055	88,354	0	1013,36	6,6	8,6	8,5	1	1	1	1	1	1	1	1	1	0	1	-9,020437	273,850869	309,868575	0
15.01.2021	09:26:24	0	12,730427	4,293313	3,492	5,2236	-0,055	88,359	0	1013,42	6,5	8,6	8,5	1	1	1	1	1	1	1	1	1	0	1	-3,59408	273,849396	315,288071	0
15.01.2021	09:26:25	0	13,087355	4,067349	3,35625	16,11	-0,052	88,36	0	1013,38	6,6	8,6	8,5	1	1	1	1	1	1	1	1	1	0	1	-5,990134	273,979462	313,498267	0
15.01.2021	09:26:26	0	12,849403	3,50244	3,27375	13,2624	-0,051	88,373	0	1013,44	6,6	8,6	8,5	1	1	1	1	1	1	1	1	1	0	1	-4,862579	273,856763	314,053885	0
15.01.2021	09:26:27	0	12,730427	3,841385	3,26025	15,7968	-0,05	88,375	0	1013,4	6,5	8,6	8,5	1	1	1	1	1	1	1	1	1	0	1	-5,073996	273,847923	313,801294	0
15.01.2021	09:26:28	0	13,087355	3,276476	3,13125	23,58	-0,057	88,359	0	1013,42	6,6	8,6	8,5	1	1	1	1	1	1	1	1	1	0	1	-5,496829	273,952786	313,867162	0
15.01.2021	09:26:29	0	12,849403	4,293313	2,97	19,9008	-0,061	88,377	0	1013,34	6,6	8,6	8,5	1	1	1	1	1	1	1	1	1	0	1	-4,439746	274,015088	315,214859	0
15.01.2021	09:26:30	0	12,849403	2,711566	3,06675	6,768	-0,054	88,364	0	1013,44	6,6	8,6	8,5	1	1	1	1	1	1	1	1	1	0	1	-8,527132	273,846451	310,341298	0
15.01.2021	09:26:31	0	12,849403	2,93753	3,51975	12,8484	-0,055	88,364	0	1013,36	6,6	8,6	8,5	1	1	1	1	1	1	1	1	1	0	1	-5,567301	273,936503	313,720765	0
15.01.2021	09:26:32	0	13,087355	3,163494	3,87075	10,8108	-0,054	88,373	0	1013,42	6,6	8,6	8,5	1	1	1	1	1	1	1	1	1	0	1	-8,527132	274,003205	311,07203	0
15.01.2021	09:26:33	0	12,849403	3,50244	3,86025	10,0548	-0,057	88,362	0	1013,38	6,7	8,6	8,5	1	1	1	1	1	1	1	1	1	0	1	-6,060606	273,898068	313,048308	0
15.01.2021	09:26:34	0	12,849403	2,824548	3,88725	13,158	-0,051	88,38	0	1013,48	6,6	8,6	8,5	1	1	1	1	1	1	1	1	1	0	1	-8,174771	273,858237	310,748558	0
15.01.2021	09:26:35	0	13,087355	4,745241	3,86775	10,0728	-0,055	88,369	0	1013,48	6,6	8,6	8,5	1	1	1	1	1	1	1	1	1	0	1	-2,677942	274,022518	317,011336	0
15.01.2021	09:26:36	0	12,968379	3,841385	3,924	9,3564	-0,05	88,374	0	1013,48	6,6	8,6	8,5	1	1	1	1	1	1	1	1	1	0	1	-5,073996	273,937982	314,220969	0
15.01.2021	09:26:37	0	12,968379	4,745241	3,9825	14,2956	-0,054	88,352	0	1013,46	6,6	8,6	8,5	1	1	1	1	1	1	1	1	1	0	1	-8,245243	273,844978	310,616327	0
15.01.2021	09:26:38	0	13,087355	3,954367	3,87825	17,2296	-0,058	88,354	0	1013,38	6,6	8,6	8,5	1	1	1	1	1	1	1	1	1	0	1	-7,751938	273,903976	311,384509	0
15.01.2021	09:26:39	0	12,849403	3,841385	3,63975	19,1484	-0,056	88,371	0	1013,38	6,6	8,6	8,5	1	1	1	1	1	1	1	1	1	0	1	-5,919662	273,855289	312,989939	0
15.01.2021	09:26:40	0	13,206331	2,824548	3,45375	15,4044	-0,05	88,371	0	1013,52	6,6	8,6	8,5	1	1	1	1	1	1	1	1	1	0	1	-5,073996	273,958711	314,317624	0
15.01.2021	09:26:41	0	12,849403	2,824548	3,29025	18,8316	-0,05	88,374	0	1013,44	6,5	8,6	8,5	1	1	1	1	1	1	1	1	1	0	1	-7,82241	273,887734	311,238344	0
15.01.2021	09:26:42	0	12,968379	3,954367	3,21225	16,8588	-0,049	88,374	0	1013,46	6,5	8,6	8,5	1	1	1	1	1	1	1	1	1	0	1	-9,231853	274,016574	310,429685	0
15.01.2021	09:26:43	0	13,206331	3,163494	3,29475	7,5132	-0,052	88,377	0	1013,38	6,7	8,6	8,5	1	1	1	1	1	1	1	1	1	0	1	-8,386187	273,963156	311,02616	0
15.01.2021	09:26:44	0	13,325307	3,728403	3,29475	20,9988	-0,04	88,375	0	1013,44	6,5	8,6	8,5	1	1	1	1	1	1	1	1	1	0	1	-8,315715	273,958711	311,075904	0
15.01.2021	09:26:45	0	12,730427	3,841385	3,1905	15,0228	-0,05	88,368	0	1013,5	6,7	8,6	8,5	1	1	1	1	1	1	1	1	1	0	1	-3,382664	274,026978	316,327426	0
15.01.2021	09:26:46	0	13,444283	4,293313	3,01275	13,1652	-0,049	88,37	0	1013,42	6,6	8,6	8,5	1	1	1	1	1	1	1	1	1	0	1	-11,134602	273,886258	307,919275	0
15.01.2021	09:26:47	0	13,087355	4,632259	2,84325	10,4508	-0,051	88,375	0	1013,46	6,5	8,6	8,5	1	1	1	1	1	1	1	1	1	0	1	-7,470049	273,847923	311,405241	0
15.01.2021	09:26:48	0	12,849403	2,598584	2,65575	18,45	-0,057	88,36	0	1013,42	6,6	8,6	8,5	1	1	1	1	1	1	1	1	1	0	1	-12,121212	273,887734	306,939542	0
15.01.2021	09:26:49	0	12,968379	4,745241	2,76	17,2332	-0,053	88,371	0	1013,52	6,5	8,6	8,5	1	1	1	1	1	1	1	1	1	0	1	-4,862579	273,994298	314,695028	0
15.01.2021	09:26:50	0	12,968379	4,067349	2,96775	10,4436	-0,051	88,376	0	1013,58	6,6	8,6	8,5	1	1	1	1	1	1	1	1	1	0	1	-2,60747	273,836144	316,212957	0
15.01.2021	09:26:51	0	12,968379	3,841385	2,991	19,5264	-0,056	88,365	0	1013,5	6,6	8,6	8,5	1	1	1	1	1	1	1	1	1	0	1	-5,919662	273,960193	313,478867	0
15.01.2021	09:26:52	0	13,325307	4,406295	2,9415	18,09	-0,05	88,378	0	1013,52	6,5	8,6	8,5	1	1	1	1	1	1	1	1	1	0	1	-3,171247	273,872979	315,820762	0
15.01.2021	09:26:53	0	13,206331	4,745241	2,7615	1,1808	-0,055	88,383	0	1013,4	6,6	8,6	8,5	1	1	1	1	1	1	1	1	1	0	1	-6,8358	273,986879	312,687196	0
15.01.2021	09:26:54	0	12,968379	3,841385	2,70825	23,976	-0,051	88,356	0	1013,5	6,6	8,6	8,5	1	1	1	1	1	1	1	1	1	0	1	-9,302326	273,887734	309,758429	0
15.01.2021	09:26:55	0	13,087355	3,50244	2,66025	27,2808	-0,05	88,374	0	1013,48	6,6	8,6	8,5	1	1	1	1	1	1	1	1	1	0	1	-5,708245	273,963156	313,704102	0
15.01.2021	09:26:56	0	13,206331	3,841385	2,64525	24,7212	-0,047	88,369	0	1013,56	6,7	8,6	8,5	1	1	1	1	1	1	1	1	1	0	1	-6,624383	273,909886	312,539608	0
15.01.2021	09:26:57	0	13,325307	2,598584	2,7315	23,5836	-0,048	88,367	0	1013,42	6,6	8,6	8,5	1	1	1	1	1	1	1	1	1	0	1	-9,231853	274,022518	310,457425	0
15.01.2021	09:26:58	0	13,563259	4,632259	2,8605	23,5656	-0,052	88,362	0	1013,44	6,6	8,6	8,5	1	1	1	1	1	1	1	1	1	0	1	-7,610994	273,920233	311,601224	0
15.01.2021	09:26:59	0	12,968379	2,711566	2,8155	26,1612	-0,057	88,366	0	1013,42	6,6	8,6	8,5	1	1	1	1	1	1	1	1	1	0	1	-5,567301	274,015088	314,087304	0
15.01.2021	09:27:00	0	13,087355	4,293313	2,47425	22,464	-0,052	88,363	0	1013,48	6,7	8,6	8,5	1	1	1	1	1	1	1	1	1	0	1	-9,513742	273,868555	309,457657	0
15.01.2021	09:27:01	0	13,087355	4,293313	2,47425	22,464	-0,052	88,363	0	1013,48	6,7	8,6	8,5	1	1	1	1	1	1	1	1	1	0	1	-9,513742	273,868555	309,457657	0
15.01.2021	09:27:02	0	13,087355	2,711566	2,412	28,35	-0,051	88,365	0	1013,28	6,7	8,6	8,5	1	1	1	1	1	1	1	1	1	0	1	-12,825934	273,855289	306,083667	0
15.01.2021	09:27:03	0	13,206331	3,50244	2,22075	21,3948	-0,047	88,372	0	1013,58	6,7	8,6	8,5	1	1	1	1	1	1	1	1	1	0	1	-8,315715	273,961674	311,089722	0
15.01.2021	09:27:04	0	12,968379	4,406295	2,091	23,958	-0,052	88,359	0	1013,38	6,6	8,6	8,5	1	1	1	1	1	1	1	1	1	0	1	-6,553911	274,044826	313,239483	0
15.01.2021	09:27:05	0	13,206331	3,163494	2,0295	23,58	-0,054	88,378	0	1013,46	6,6	8,6	8,5	1	1	1	1	1	1	1	1	1	0	1	-9,936575	273,952786	309,427416	0
15.01.2021	09:27:06	0	12,968379	3,728403	2,07825	46,224	-0,048	88,365	0	1013,52	6,6	8,6	8,5	1	1	1	1	1	1	1	1	1	0	1	-4,510218	273,85971	314,419976	0
15.01.2021	09:27:07	0	13,087355	3,276476	1,9965	36,9216	-0,047	88,379	0	1013,5	6,6	8,6	8,5	1	1	1	1	1	1	1	1	1	0	1	-9,866103	273,880355	309,160271	0
15.01.2021	09:27:08	0	12,968379	2,824548	2,073	29,574	-0,044	88,369	0	1013,54	6,6	8,6	8,5	1	1	1	1	1	1	1	1	1	0	1	-9,795631	273,964638	309,623628	0
15.01.2021	09:27:09	0	13,206331	3,615421	2,1975	26,8956	-0,045	88,379	0	1013,6	6,6	8,6	8,5	1	1	1	1	1	1	1	1	1	0	1	-6,765328	273,861184	312,171732	0
15.01.2021	09:27:10	0	13,206331	2,93753	2,2305	14,3964	-0,047	88,371	0	1013,48	6,6	8,6	8,5	1	1	1	1	1	1	1	1	1	0	1	-8,033827	273,940942	311,274938	0
15.01.2021	09:27:11	0	13,206331	4,632259	2,13375	17,208	-0,053	88,359	0	1013,4	6,6	8,6	8,5	1	1	1	1	1	1	1	1	1	0	1	-13,883016	274,013602	305,764656	0
15.01.2021	09:27:12	0	13,087355	3,276476	2,1045	26,5248	-0,049	88,369	0	1013,48	6,6	8,6	8,5	1	1	1	1	1	1	1	1	1	0	1	-6,8358	273,846451	312,03263	0
15.01.2021	09:27:13	0	13,206331	3,841385	2,10075	4,086	-0,053	88,36	0	1013,44	6,7	8,6	8,5	1	1	1	1	1	1	1	1	1	0	1	-7,188161	274,00469	312,41793	0
15.01.2021	09:27:14	0	13,325307	4,293313	2,1255	13,9032	-0,046	88,35	0	1013,4	6,6	8,6	8,5	1	1	1	1	1	1	1	1	1	0	1	-6,483439	274,025491	313,219713	0
15.01.2021	09:27:15	0	13,087355	4,519277	2,15025	8,3556	-0,047	88,346	0	1013,44	6,6	8,6	8,5	1	1	1	1	1	1	1	1	1	0	1	-2,818887	273,908408	316,338218	0
15.01.2021	09:27:16	0	12,968379	4,293313	2,19975	1,9188	-0,044	88,349	0	1013,26	6,6	8,6	8,5	1	1	1	1	1	1	1	1	1	0	1	-6,976744	273,85971	311,95345	0
15.01.2021	09:27:17	0	13,325307	5,197168	2,42925	8,9856	-0,051	88,345	0	1013,32	6,6	8,6	8,5	1	1	1	1	1	1	1	1	1	0	1	-2,466526	273,905453	316,676807	0
15.01.2021	09:27:18	0	13,206331	3,954367	2,5575	12,4632	-0,05	88,363	0	1013,42	6,6	8,6	8,5	1	1	1	1	1	1	1	1	1	0	1	-8,033827	274,009146	311,593052	0
15.01.2021	09:27:19	0	13,444283	4,858223	2,48925	10,4364	-0,045	88,362	0	1013,38	6,6	8,6	8,5	1	1	1	1	1	1	1	1	1	0	1	-9,936575	274,000236	309,648733	0
15.01.2021	09:27:20	0	13,325307	4,519277	2,46525	8,6112	-0,048	88,371	0	1013,46	6,7	8,6	8,5	1	1	1	1	1	1	1	1	1	0	1	-9,725159	273,945383	309,604311	0
15.01.2021	09:27:21	0	13,325307	2,824548	2,481	360	-0,045	88,358	0	1013,5	6,6	8,6	8,5	1	1	1	1	1	1	1	1	1	0	1	-1,550388	273,85971	317,379807	0
15.01.2021	09:27:22	0	13,325307	2,598584	2,41725	9,3564	-0,051	88,346	0	1013,46	6,6	8,6	8,5	1	1	1	1	1	1	1	1	1	0	1	-9,020437	273,844978	309,841134	0
15.01.2021	09:27:23	0	13,206331	4,858223	2,42925	1,9044	-0,053	88,345	0	1013,36	6,6	8,6	8,5	1	1	1	1	1	1	1	1	1	0	1	-3,171247	273,942422	316,144418	0
15.01.2021	09:27:24	0	13,087355	3,163494	2,4135	4,0644	-0,054	88,353	0	1013,48	6,5	8,6	8,5	1	1	1	1	1	1	1	1	1	0	1	-9,020437	274,022518	310,668841	0
15.01.2021	09:27:25	0	12,968379	2,033675	2,3385	13,1616	-0,049	88,348	0	1013,46	6,6	8,6	8,5	1	1	1	1	1	1	1	1	1	0	1	-11,06413	273,899545	308,051667	0
15.01.2021	09:27:26	0	13,087355	2,824548	2,208	11,1852	-0,045	88,357	0	1013,48	6,5	8,6	8,5	1	1	1	1	1	1	1	1	1	0	1	-8,738548	273,875929	310,267205	0
15.01.2021	09:27:27	0	12,968379	4,519277	2,20875	0,4824	-0,045	88,357	0	1013,34	6,6	8,6	8,5	1	1	1	1	1	1	1	1	1	0	1	-6,060606	273,998751	313,517776	0
15.01.2021	09:27:28	0	13,206331	3,615421	2,469	8,262	-0,048	88,353	0	1013,56	6,6	8,6	8,5	1	1	1	1	1	1	1	1	1	0	1	-5,144468	273,982429	314,357769	0
15.01.2021	09:27:29	0	13,325307	4,519277	2,60625	10,4508	-0,046	88,357	0	1013,4	6,7	8,6	8,5	1	1	1	1	1	1	1	1	1	0	1	-6,694856	274,029951	313,029112	0
15.01.2021	09:27:30	0	13,087355	3,163494	2,5515	16,488	-0,046	88,361	0	1013,5	6,7	8,6	8,5	1	1	1	1	1	1	1	1	1	0	1	-4,298802	273,955749	315,079002	0
15.01.2021	09:27:31	0	12,849403	2,93753	2,39925	19,9008	-0,044	88,366	0	1013,6	6,7	8,6	8,5	1	1	1	1	1	1	1	1	1	0	1	-5,426357	274,012117	314,214384	0
15.01.2021	09:27:32	0	13,444283	4,519277	2,3625	18,4644	-0,049	88,363	0	1013,44	6,6	8,6	8,5	1	1	1	1	1	1	1	1	1	0	1	-6,976744	273,92319	312,249258	0
15.01.2021	09:27:33	0	13,087355	4,745241	2,445	19,6164	-0,046	88,365	0	1013,66	6,6	8,6	8,5	1	1	1	1	1	1	1	1	1	0	1	-10,288936	274,024005	309,407279	0
15.01.2021	09:27:34	0	13,444283	4,971205	2,44725	24,0372	-0,047	88,355	0	1013,6	6,6	8,6	8,5	1	1	1	1	1	1	1	1	1	0	1	-5,073996	273,896591	314,028036	0
15.01.2021	09:27:35	0	13,087355	3,50244	2,40225	13,536	-0,043	88,362	0	1013,64	6,6	8,6	8,5	1	1	1	1	1	1	1	1	1	0	1	-11,557435	273,855289	307,352166	0
15.01.2021	09:27:36	0	13,444283	4,293313	2,3145	13,1652	-0,046	88,354	0	1013,34	6,7	8,6	8,5	1	1	1	1	1	1	1	1	1	0	1	-6,483439	273,949825	312,866742	0
15.01.2021	09:27:37	0	13,206331	3,276476	2,1885	9,3564	-0,047	88,363	0	1013,48	6,6	8,6	8,5	1	1	1	1	1	1	1	1	1	0	1	-5,285412	273,855289	313,624188	0
15.01.2021	09:27:38	0	12,968379	2,711566	2,06925	360	-0,045	88,366	0	1013,56	6,6	8,6	8,5	1	1	1	1	1	1	1	1	1	0	1	-4,933051	274,186713	315,523151	0
15.01.2021	09:27:39	0	13,206331	3,050512	2,139	352,8828	-0,045	88,356	0	1013,4	6,6	8,6	8,5	1	1	1	1	1	1	1	1	1	0	1	-8,245243	273,862658	310,698683	0
15.01.2021	09:27:40	0	13,206331	2,824548	2,22075	353,9952	-0,05	88,353	0	1013,48	6,5	8,6	8,5	1	1	1	1	1	1	1	1	1	0	1	-1,479915	273,940942	317,828849	0
15.01.2021	09:27:41	0	13,206331	2,711566	2,34225	0,1044	-0,045	88,359	0	1013,52	6,6	8,6	8,5	1	1	1	1	1	1	1	1	1	0	1	-6,060606	274,021032	313,621736	0
15.01.2021	09:27:42	0	13,206331	4,293313	2,517	9,738	-0,049	88,358	0	1013,44	6,6	8,6	8,5	1	1	1	1	1	1	1	1	1	0	1	-6,8358	273,972049	312,618022	0
15.01.2021	09:27:43	0	13,087355	3,389458	2,56125	0,8568	-0,043	88,373	0	1013,48	6,6	8,6	8,5	1	1	1	1	1	1	1	1	1	0	1	-7,117689	273,853816	311,785049	0
15.01.2021	09:27:44	0	13,206331	4,293313	2,52225	8,6184	-0,049	88,361	0	1013,54	6,7	8,6	8,5	1	1	1	1	1	1	1	1	1	0	1	-5,990134	273,893638	313,098136	0
15.01.2021	09:27:45	0	12,968379	3,276476	2,58375	0,4932	-0,05	88,358	0	1013,46	6,5	8,6	8,5	1	1	1	1	1	1	1	1	1	0	1	-7,963354	273,865607	310,994307	0
15.01.2021	09:27:46	0	13,087355	2,824548	2,70525	12,0888	-0,045	88,361	0	1013,54	6,5	8,6	8,5	1	1	1	1	1	1	1	1	1	0	1	-6,624383	273,892162	312,457007	0
15.01.2021	09:27:47	0	13,087355	2,485602	2,6595	1,926	-0,04	88,436	0	1013,56	6,5	8,6	8,5	1	1	1	1	1	1	1	1	1	0	1	-5,21494	273,921711	314,00417	0
15.01.2021	09:27:48	0	13,206331	2,93753	2,6085	6,8112	-0,044	88,356	0	1013,34	6,7	8,6	8,5	1	1	1	1	1	1	1	1	1	0	1	-1,832276	274,019546	317,843131	0
15.01.2021	09:27:49	0	13,206331	4,519277	2,62425	9,846	-0,044	88,365	0	1013,56	6,5	8,6	8,5	1	1	1	1	1	1	1	1	1	0	1	-6,20155	274,037387	313,557122	0
15.01.2021	09:27:50	0	13,444283	3,05053	2,643	11,79	-0,045	88,358	0	1013,52	6,6	8,6	8,4	1	1	1	1	1	1	1	1	1	0	1	-8,386187	273,865607	310,571474	0
15.01.2021	09:27:51	0	13,444283	3,276476	2,694	12,8412	-0,052	88,346	0	1013,46	6,5	8,6	8,5	1	1	1	1	1	1	1	1	1	0	1	-4,439746	273,893638	314,648524	0
15.01.2021	09:27:52	0	13,444283	2,824548	2,65425	4,0824	-0,045	88,363	0	1013,54	6,6	8,6	8,5	1	1	1	1	1	1	1	1	1	0	1	-3,312192	273,930585	315,948284	0
15.01.2021	09:27:53	0	13,325307	3,728403	2,6505	15,7752	-0,045	88,351	0	1013,4	6,7	8,6	8,5	1	1	1	1	1	1	1	1	1	0	1	-7,610994	274,025491	312,092158	0
15.01.2021	09:27:54	0	13,563259	5,084186	2,607	6,4332	-0,048	88,35	0	1013,26	6,6	8,6	8,5	1	1	1	1	1	1	1	1	1	0	1	-7,117689	273,939462	312,184176	0
15.01.2021	09:27:55	0	13,087355	3,728403	2,53425	4,086	-0,045	88,379	0	1013,56	6,7	8,6	8,5	1	1	1	1	1	1	1	1	1	0	1	-7,681466	273,874454	311,317416	0
15.01.2021	09:27:56	0	13,087355	2,37262	2,4375	0,4824	-0,047	88,354	0	1013,58	6,6	8,6	8,5	1	1	1	1	1	1	1	1	1	0	1	-5,21494	274,010631	314,418869	0
15.01.2021	09:27:57	0	13,206331	3,276476	2,46825	10,062	-0,056	88,369	0	1013,48	6,6	8,6	8,5	1	1	1	1	1	1	1	1	1	0	1	-6,694856	273,958711	312,696764	0
15.01.2021	09:27:58	0	13,206331	3,276476	2,472	1,548	-0,049	88,377	0	1013,54	6,7	8,6	8,5	1	1	1	1	1	1	1	1	1	0	1	-5,708245	274,016574	313,953293	0
15.01.2021	09:27:59	0	13,80121	4,632259	2,4135	13,158	-0,044	88,353	0	1013,52	6,6	8,6	8,5	1	1	1	1	1	1	1	1	1	0	1	-3,171247	273,942422	316,144418	0
15.01.2021	09:28:00	0	13,563259	3,954367	2,29875	0,1152	-0,049	88,375	0	1013,42	6,7	8,6	8,5	1	1	1	1	1	1	1	1	1	0	1	-5,426357	273,964638	313,992902	0
15.01.2021	09:28:01	0	13,563259	3,954367	2,29875	0,1152	-0,049	88,375	0	1013,42	6,7	8,6	8,5	1	1	1	1	1	1	1	1	1	0	1	-5,426357	273,964638	313,992902	0
15.01.2021	09:28:02	0	13,444283	2,824548	2,27925	10,4472	-0,052	88,366	0	1013,5	6,6	8,6	8,5	1	1	1	1	1	1	1	1	1	0	1	-5,708245	273,85971	313,221949	0
15.01.2021	09:28:03	0	13,563259	3,050512	2,26425	2,646	-0,045	88,377	0	1013,52	6,6	8,6	8,5	1	1	1	1	1	1	1	1	1	0	1	-9,090909	273,979462	310,397491	0
15.01.2021	09:28:04	0	13,087355	3,954367	2,15625	0,8568	-0,053	88,361	0	1013,42	6,7	8,6	8,5	1	1	1	1	1	1	1	1	1	0	1	-3,453136	273,976497	316,021431	0
15.01.2021	09:28:05	0	13,444283	4,519277	2,1945	6,8004	-0,047	88,364	0	1013,38	6,6	8,6	8,5	1	1	1	1	1	1	1	1	1	0	1	-6,131078	273,847923	312,744212	0
15.01.2021	09:28:06	0	13,325307	4,406295	2,2605	8,2584	-0,045	88,376	0	1013,42	6,6	8,6	8,5	1	1	1	1	1	1	1	1	1	0	1	-11,557435	273,912842	307,620332	0
15.01.2021	09:28:07	0	13,206331	4,519277	2,33625	2,2968	-0,037	88,375	0	1013,62	6,5	8,6	8,5	1	1	1	1	1	1	1	1	1	0	1	-9,161381	274,022518	310,527897	0
15.01.2021	09:28:08	0	13,682235	4,632259	2,47725	19,8972	-0,05	88,365	0	1013,48	6,6	8,6	8,5	1	1	1	1	1	1	1	1	1	0	1	-5,84919	273,980945	313,646129	0
15.01.2021	09:28:09	0	13,325307	4,858223	2,52	22,4388	-0,048	88,359	0	1013,54	6,6	8,6	8,5	1	1	1	1	1	1	1	1	1	0	1	-8,527132	274,000236	311,058176	0
15.01.2021	09:28:10	0	13,682235	2,598584	2,52225	0,864	-0,045	88,387	0	1013,58	6,6	8,6	8,5	1	1	1	1	1	1	1	1	1	0	1	-7,610994	273,884782	311,436007	0
15.01.2021	09:28:11	0	13,325307	3,163513	2,5815	10,062	-0,047	88,369	0	1013,44	6,7	8,6	8,4	1	1	1	1	1	1	1	1	1	0	1	-9,936575	274,00766	309,683373	0
15.01.2021	09:28:12	0	13,325307	2,93753	2,49975	9,3564	-0,047	88,375	0	1013,52	6,6	8,6	8,5	1	1	1	1	1	1	1	1	1	0	1	-7,399577	273,849396	311,482574	0
15.01.2021	09:28:13	0	13,682235	3,163494	2,41875	12,096	-0,045	88,366	0	1013,4	6,6	8,6	8,5	1	1	1	1	1	1	1	1	1	0	1	-3,735025	273,936503	315,553041	0
15.01.2021	09:28:14	0	13,563259	3,050512	2,601	6,4404	-0,043	88,38	0	1013,56	6,7	8,6	8,5	1	1	1	1	1	1	1	1	1	0	1	-5,21494	273,850869	313,674072	0
15.01.2021	09:28:15	0	13,444283	3,841385	2,724	4,086	-0,041	88,376	0	1013,5	6,7	8,6	8,5	1	1	1	1	1	1	1	1	1	0	1	-12,614517	274,013602	307,033155	0
15.01.2021	09:28:16	0	13,206331	2,93753	2,95725	359,8488	-0,047	88,385	0	1013,52	6,6	8,6	8,5	1	1	1	1	1	1	1	1	1	0	1	-0,775194	273,963156	318,637154	0
15.01.2021	09:28:17	0	13,563259	3,389458	2,8485	7,8804	-0,046	88,385	0	1013,54	6,7	8,6	8,5	1	1	1	1	1	1	1	1	1	0	1	-9,44327	274,034413	310,301518	0
15.01.2021	09:28:18	0	13,325307	4,293313	2,898	356,4468	-0,052	88,376	0	1013,42	6,6	8,6	8,5	1	1	1	1	1	1	1	1	1	0	1	-6,342495	273,989846	313,194344	0
15.01.2021	09:28:19	0	13,325307	4,632259	2,92425	0,8496	-0,045	88,367	0	1013,52	6,6	8,6	8,5	1	1	1	1	1	1	1	1	1	0	1	-6,060606	274,00766	313,559342	0
15.01.2021	09:28:20	0	13,682235	4,519277	2,84625	360	-0,042	88,377	0	1013,46	6,6	8,6	8,5	1	1	1	1	1	1	1	1	1	0	1	-2,889359	274,026978	316,820731	0
15.01.2021	09:28:21	0	13,563259	4,406295	2,898	9,0828	-0,044	88,374	0	1013,52	6,5	8,6	8,5	1	1	1	1	1	1	1	1	1	0	1	-9,584214	273,927626	309,66247	0
15.01.2021	09:28:22	0	13,444283	3,50244	2,895	5,22	-0,041	88,372	0	1013,5	6,5	8,6	8,5	1	1	1	1	1	1	1	1	1	0	1	-7,540521	273,867081	311,424008	0
15.01.2021	09:28:23	0	13,325307	2,711566	2,781	12,8304	-0,043	88,376	0	1013,46	6,7	8,6	8,5	1	1	1	1	1	1	1	1	1	0	1	-6,342495	273,909886	312,821497	0
15.01.2021	09:28:24	0	13,325307	3,050512	2,613	18,4356	-0,041	88,385	0	1013,4	6,7	8,6	8,5	1	1	1	1	1	1	1	1	1	0	1	-7,610994	273,980945	311,884325	0
15.01.2021	09:28:25	0	13,563259	3,615443	2,43225	18,8388	-0,044	88,381	0	1013,42	6,5	8,6	8,4	1	1	1	1	1	1	1	1	1	0	1	-10,147992	274,034413	309,596797	0
15.01.2021	09:28:26	0	13,563259	4,519277	2,31075	12,8448	-0,044	88,388	0	1013,54	6,6	8,6	8,5	1	1	1	1	1	1	1	1	1	0	1	-9,372798	273,985395	310,143278	0
15.01.2021	09:28:27	0	13,325307	3,728403	2,27025	22,8492	-0,047	88,395	0	1013,56	6,5	8,6	8,5	1	1	1	1	1	1	1	1	1	0	1	-8,174771	273,985395	311,341305	0
15.01.2021	09:28:28	0	13,444283	4,632259	2,211	10,4328	-0,045	88,393	0	1013,52	6,5	8,6	8,5	1	1	1	1	1	1	1	1	1	0	1	-6,060606	274,037387	313,698066	0
15.01.2021	09:28:29	0	13,325307	3,276476	2,34525	6,0696	-0,046	88,395	0	1013,58	6,6	8,6	8,5	1	1	1	1	1	1	1	1	1	0	1	-9,654686	273,949825	309,695494	0
15.01.2021	09:28:30	0	13,087355	4,293313	2,76675	13,1508	-0,036	88,398	0	1013,42	6,7	8,6	8,5	1	1	1	1	1	1	1	1	1	0	1	-5,84919	273,875929	313,156564	0
15.01.2021	09:28:31	0	13,325307	2,485602	3,045	8,9928	-0,042	88,382	0	1013,5	6,6	8,6	8,5	1	1	1	1	1	1	1	1	1	0	1	-5,285412	273,884782	313,761588	0
15.01.2021	09:28:32	0	13,444283	4,406295	3,00675	16,488	-0,044	88,374	0	1013,5	6,6	8,6	8,5	1	1	1	1	1	1	1	1	1	0	1	-5,496829	273,973531	313,963907	0
15.01.2021	09:28:33	0	13,206331	2,711566	2,868	16,4772	-0,049	88,389	0	1013,52	6,6	8,6	8,5	1	1	1	1	1	1	1	1	1	0	1	-3,875969	273,864132	315,074825	0
15.01.2021	09:28:34	0	13,444283	4,858223	3,0045	8,262	-0,042	88,382	0	1013,56	6,6	8,6	8,5	1	1	1	1	1	1	1	1	1	0	1	-7,681466	273,948344	311,66181	0
15.01.2021	09:28:35	0	13,444283	4,745241	3,06975	27,666	-0,044	88,386	0	1013,48	6,6	8,6	8,5	1	1	1	1	1	1	1	1	1	0	1	-3,664553	273,861184	315,272507	0
15.01.2021	09:28:36	0	13,80121	2,93753	3,075	18,8172	-0,044	88,393	0	1013,58	6,7	8,6	8,5	1	1	1	1	1	1	1	1	1	0	1	-11,06413	273,877405	307,948497	0
15.01.2021	09:28:37	0	13,444283	2,485602	3,1095	19,5336	-0,045	88,392	0	1013,48	6,6	8,6	8,5	1	1	1	1	1	1	1	1	1	0	1	-7,399577	273,906931	311,750641	0
15.01.2021	09:28:38	0	13,444283	2,93753	3,006	16,0992	-0,049	88,394	0	1013,44	6,6	8,6	8,5	1	1	1	1	1	1	1	1	1	0	1	-3,875969	273,983912	315,633187	0
15.01.2021	09:28:39	0	13,444283	5,197168	2,7855	16,0956	-0,041	88,384	0	1013,54	6,6	8,6	8,5	1	1	1	1	1	1	1	1	1	0	1	-10,077519	274,043338	309,708929	0
15.01.2021	09:28:40	0	13,444283	2,824548	2,838	20,6244	-0,038	88,388	0	1013,52	6,5	8,6	8,5	1	1	1	1	1	1	1	1	1	0	1	-5,637773	273,943903	313,684794	0
15.01.2021	09:28:41	0	13,563259	3,276476	2,9145	22,5612	-0,046	88,396	0	1013,5	6,5	8,6	8,5	1	1	1	1	1	1	1	1	1	0	1	-15,64482	274,032925	304,093027	0
15.01.2021	09:28:42	0	13,444283	3,954367	3,03975	20,6208	-0,041	88,396	0	1013,38	6,7	8,6	8,5	1	1	1	1	1	1	1	1	1	0	1	-9,231853	273,912842	309,945914	0
15.01.2021	09:28:43	0	13,80121	4,858223	3,099	19,17	-0,045	88,4	0	1013,46	6,7	8,6	8,5	1	1	1	1	1	1	1	1	1	0	1	-8,738548	273,940942	310,570216	0
15.01.2021	09:28:44	0	13,325307	3,276476	3,087	15,408	-0,043	88,376	0	1013,52	6,6	8,6	8,5	1	1	1	1	1	1	1	1	1	0	1	-13,178295	274,038875	306,587321	0
15.01.2021	09:28:45	0	13,80121	2,93753	3,10725	16,0884	-0,04	88,401	0	1013,5	6,6	8,6	8,5	1	1	1	1	1	1	1	1	1	0	1	-7,117689	273,998751	312,460693	0
15.01.2021	09:28:46	0	13,325307	4,067349	3,05025	16,092	-0,043	88,385	0	1013,44	6,5	8,6	8,5	1	1	1	1	1	1	1	1	1	0	1	-8,597604	273,920233	310,614614	0
15.01.2021	09:28:47	0	13,325307	4,519277	3,04875	10,8108	-0,04	88,398	0	1013,54	6,7	8,6	8,5	1	1	1	1	1	1	1	1	1	0	1	-6,694856	274,019546	312,980551	0
15.01.2021	09:28:48	0	13,444283	3,276476	3,0945	13,9248	-0,042	88,408	0	1013,22	6,6	8,6	8,5	1	1	1	1	1	1	1	1	1	0	1	-10,852713	274,000236	308,732595	0
15.01.2021	09:28:49	0	13,444283	2,824548	3,0975	8,6112	-0,041	88,411	0	1013,34	6,6	8,6	8,5	1	1	1	1	1	1	1	1	1	0	1	-11,627907	273,921711	307,591203	0
15.01.2021	09:28:50	0	13,444283	4,632259	3,16125	9,3564	-0,036	88,404	0	1013,52	6,7	8,6	8,5	1	1	1	1	1	1	1	1	1	0	1	-10,923185	273,855289	307,986415	0
15.01.2021	09:28:51	0	13,563259	4,519304	3,44175	10,8864	-0,045	88,408	0	1013,5	6,6	8,6	8,4	1	1	1	1	1	1	1	1	1	0	1	-8,386187	274,032925	311,35166	0
15.01.2021	09:28:52	0	13,444283	3,276476	3,30225	15,0372	-0,045	88,386	0	1013,52	6,7	8,6	8,5	1	1	1	1	1	1	1	1	1	0	1	-7,047216	274,015088	312,607389	0
15.01.2021	09:28:53	0	13,563259	3,728403	3,2145	10,0656	-0,039	88,402	0	1013,62	6,7	8,6	8,5	1	1	1	1	1	1	1	1	1	0	1	-5,637773	274,016574	314,023765	0
15.01.2021	09:28:54	0	13,325307	2,711566	3,4845	8,9712	-0,046	88,385	0	1013,48	6,6	8,6	8,5	1	1	1	1	1	1	1	1	1	0	1	-5,990134	273,937982	313,304831	0
15.01.2021	09:28:55	0	13,325307	3,389458	3,71025	5,778	-0,038	88,398	0	1013,54	6,7	8,6	8,5	1	1	1	1	1	1	1	1	1	0	1	-9,372798	273,884782	309,674203	0
15.01.2021	09:28:56	0	13,444283	3,050512	3,78825	0,4932	-0,039	88,391	0	1013,36	6,6	8,6	8,5	1	1	1	1	1	1	1	1	1	0	1	-7,258633	273,858237	311,664696	0
15.01.2021	09:28:57	0	13,563259	3,50244	3,96	360	-0,039	88,402	0	1013,36	6,7	8,6	8,5	1	1	1	1	1	1	1	1	1	0	1	-2,748414	273,951305	316,608671	0
15.01.2021	09:28:58	0	13,563259	4,293313	4,11	6,8148	-0,038	88,391	0	1013,64	6,6	8,6	8,5	1	1	1	1	1	1	1	1	1	0	1	-7,258633	274,019546	312,416774	0
15.01.2021	09:28:59	0	13,682235	4,293313	3,96225	7,5132	-0,044	88,38	0	1013,5	6,6	8,6	8,5	1	1	1	1	1	1	1	1	1	0	1	-7,470049	273,906931	311,680169	0
15.01.2021	09:29:00	0	13,563259	4,745241	3,813	10,4328	-0,045	88,401	0	1013,36	6,7	8,6	8,5	1	1	1	1	1	1	1	1	1	0	1	-3,382664	273,903976	315,753784	0
15.01.2021	09:29:01	0	13,563259	4,745241	3,813	10,4328	-0,045	88,401	0	1013,36	6,7	8,6	8,5	1	1	1	1	1	1	1	1	1	0	1	-6,976744	273,87003	312,001524	0
15.01.2021	09:29:02	0	13,563259	3,50244	3,849	9,3708	-0,038	88,389	0	1013,52	6,6	8,6	8,5	1	1	1	1	1	1	1	1	1	0	1	-12,755462	273,943903	306,567106	0
15.01.2021	09:29:03	0	13,087355	4,406295	3,56625	15,03	-0,052	88,375	0	1013,5	6,6	8,6	8,5	1	1	1	1	1	1	1	1	1	0	1	-11,06413	274,022518	308,625148	0
15.01.2021	09:29:04	0	13,444283	3,276476	3,177	23,9508	-0,042	88,399	0	1013,44	6,6	8,6	8,5	1	1	1	1	1	1	1	1	1	0	1	-6,694856	273,884782	312,352145	0
15.01.2021	09:29:05	0	13,325307	2,485602	2,90175	23,9688	-0,041	88,394	0	1013,46	6,6	8,6	8,5	1	1	1	1	1	1	1	1	1	0	1	-6,906272	273,973531	312,554464	0
15.01.2021	09:29:06	0	13,80121	4,858223	2,9085	17,2296	-0,039	88,391	0	1013,44	6,6	8,6	8,5	1	1	1	1	1	1	1	1	1	0	1	-1,62086	274,028464	318,096168	0
15.01.2021	09:29:07	0	13,206331	3,841385	3,201	11,718	-0,04	88,376	0	1013,52	6,6	8,6	8,5	1	1	1	1	1	1	1	1	1	0	1	-5,990134	273,997267	313,581322	0
15.01.2021	09:29:08	0	13,444283	4,180356	3,64125	11,7144	-0,043	88,396	0	1013,5	6,6	8,6	8,4	1	1	1	1	1	1	1	1	1	0	1	-9,513742	274,0359	310,237988	0
15.01.2021	09:29:09	0	13,444283	4,632259	3,79425	13,1688	-0,039	88,397	0	1013,38	6,6	8,6	8,5	1	1	1	1	1	1	1	1	1	0	1	-4,862579	273,958711	314,52904	0
15.01.2021	09:29:10	0	13,206331	4,632259	3,9015	10,8216	-0,044	88,4	0	1013,44	6,6	8,6	8,5	1	1	1	1	1	1	1	1	1	0	1	-12,614517	274,028464	307,102511	0
15.01.2021	09:29:11	0	13,563259	2,824548	3,873	19,1736	-0,037	88,4	0	1013,48	6,6	8,6	8,5	1	1	1	1	1	1	1	1	1	0	1	-10,570825	273,927626	308,67586	0
15.01.2021	09:29:12	0	13,563259	4,632259	3,74175	17,6868	-0,041	88,379	0	1013,5	6,6	8,6	8,5	1	1	1	1	1	1	1	1	1	0	1	-3,946441	273,868555	315,024958	0
15.01.2021	09:29:13	0	13,563259	4,180356	3,68775	14,2776	-0,037	88,395	0	1013,46	6,6	8,6	8,4	1	1	1	1	1	1	1	1	1	0	1	-7,258633	273,912842	311,919134	0
15.01.2021	09:29:14	0	13,563259	5,423132	3,5655	16,1028	-0,038	88,407	0	1013,54	6,6	8,6	8,5	1	1	1	1	1	1	1	1	1	0	1	-11,275546	273,972049	308,178275	0
15.01.2021	09:29:15	0	13,087355	3,954367	3,7425	16,5636	-0,042	88,408	0	1013,4	6,7	8,6	8,5	1	1	1	1	1	1	1	1	1	0	1	-6,8358	274,034413	312,908988	0
15.01.2021	09:29:16	0	13,682235	4,971205	3,843	17,6868	-0,04	88,408	0	1013,62	6,6	8,6	8,5	1	1	1	1	1	1	1	1	1	0	1	-7,117689	273,985395	312,398387	0
15.01.2021	09:29:17	0	13,206331	2,598584	3,87675	13,5396	-0,04	88,409	0	1013,44	6,6	8,6	8,5	1	1	1	1	1	1	1	1	1	0	1	-6,483439	273,884782	312,563561	0
15.01.2021	09:29:18	0	13,444283	3,276476	3,9075	17,676	-0,038	88,399	0	1013,5	6,6	8,6	8,5	1	1	1	1	1	1	1	1	1	0	1	-8,386187	273,87003	310,592081	0
15.01.2021	09:29:19	0	13,444283	4,293313	3,6615	15,0192	-0,04	88,402	0	1013,48	6,6	8,6	8,5	1	1	1	1	1	1	1	1	1	0	1	-13,460183	273,929105	305,793396	0
15.01.2021	09:29:20	0	13,444283	4,745241	3,52125	13,914	-0,038	88,4	0	1013,6	6,6	8,6	8,5	1	1	1	1	1	1	1	1	1	0	1	-4,369274	274,0359	315,382456	0
15.01.2021	09:29:21	0	13,920186	4,745241	3,339	13,5396	-0,04	88,371	0	1013,44	6,7	8,6	8,5	1	1	1	1	1	1	1	1	1	0	1	-10,007047	274,001721	309,585188	0
15.01.2021	09:29:22	0	13,444283	4,293313	3,3165	7,5096	-0,041	88,384	0	1013,34	6,6	8,6	8,5	1	1	1	1	1	1	1	1	1	0	1	-9,513742	274,019546	310,161665	0
15.01.2021	09:29:23	0	13,325307	2,598584	3,165	15,4008	-0,036	88,385	0	1013,46	6,6	8,6	8,5	1	1	1	1	1	1	1	1	1	0	1	-5,355884	274,038875	314,409731	0
15.01.2021	09:29:24	0	13,325307	4,067349	3,13125	10,4256	-0,04	88,4	0	1013,34	6,6	8,6	8,5	1	1	1	1	1	1	1	1	1	0	1	-9,44327	273,976497	310,031297	0
15.01.2021	09:29:25	0	13,325307	2,485602	3,25575	18,8136	-0,034	88,406	0	1013,62	6,6	8,6	8,5	1	1	1	1	1	1	1	1	1	0	1	-4,369274	273,87003	314,608994	0
15.01.2021	09:29:26	0	13,444283	4,971205	3,291	13,1436	-0,038	88,398	0	1013,44	6,5	8,6	8,5	1	1	1	1	1	1	1	1	1	0	1	-6,131078	274,003205	313,468084	0
15.01.2021	09:29:27	0	13,920186	3,276476	3,0765	0,486	-0,037	88,404	0	1013,62	6,6	8,6	8,5	1	1	1	1	1	1	1	1	1	0	1	-7,681466	273,986879	311,84153	0
15.01.2021	09:29:28	0	13,325307	3,050512	3,09	0,1404	-0,042	88,395	0	1013,54	6,6	8,6	8,5	1	1	1	1	1	1	1	1	1	0	1	-7,188161	273,865607	311,769501	0
15.01.2021	09:29:29	0	13,444283	4,293313	3,1275	1,548	-0,042	88,385	0	1013,54	6,6	8,6	8,5	1	1	1	1	1	1	1	1	1	0	1	-3,382664	273,969084	316,05733	0
15.01.2021	09:29:30	0	13,920186	4,858223	2,988	352,9512	-0,043	88,395	0	1013,38	6,6	8,6	8,5	1	1	1	1	1	1	1	1	1	0	1	-8,949965	274,032925	310,787882	0
15.01.2021	09:29:31	0	13,682235	3,389458	3,072	357,3216	-0,045	88,393	0	1013,56	6,6	8,6	8,5	1	1	1	1	1	1	1	1	1	0	1	-12,684989	273,905453	306,458343	0
15.01.2021	09:29:32	0	13,325307	3,389458	3,054	358,6752	-0,044	88,389	0	1013,46	6,6	8,6	8,5	1	1	1	1	1	1	1	1	1	0	1	-5,21494	273,909886	313,949051	0
15.01.2021	09:29:33	0	13,206331	2,598584	2,997	4,8168	-0,04	88,404	0	1013,44	6,6	8,6	8,5	1	1	1	1	1	1	1	1	1	0	1	-5,003524	273,868555	313,967875	0
15.01.2021	09:29:34	0	13,563259	2,711582	2,76	360	-0,043	88,398	0	1013,46	6,6	8,6	8,4	1	1	1	1	1	1	1	1	1	0	1	-6,060606	273,915798	313,130939	0
15.01.2021	09:29:35	0	13,682235	3,05053	2,5965	4,0536	-0,042	88,402	0	1013,48	6,6	8,6	8,4	1	1	1	1	1	1	1	1	1	0	1	-9,936575	273,892162	309,144815	0
15.01.2021	09:29:36	0	13,325307	2,485602	2,52375	13,1652	-0,043	88,402	0	1013,46	6,6	8,6	8,5	1	1	1	1	1	1	1	1	1	0	1	-8,80902	274,04185	310,970483	0
15.01.2021	09:29:37	0	13,920186	4,745241	2,397	346,4964	-0,042	88,398	0	1013,46	6,6	8,6	8,5	1	1	1	1	1	1	1	1	1	0	1	-7,117689	273,976497	312,356878	0
15.01.2021	09:29:38	0	13,325307	3,728403	2,3475	6,1452	-0,036	88,399	0	1013,6	6,6	8,6	8,5	1	1	1	1	1	1	1	1	1	0	1	-5,355884	273,875929	313,649869	0
15.01.2021	09:29:39	0	13,682235	4,519277	2,355	356,2092	-0,039	88,396	0	1013,48	6,6	8,6	8,5	1	1	1	1	1	1	1	1	1	0	1	-7,258633	273,917276	311,939803	0
15.01.2021	09:29:40	0	13,325307	4,406295	2,57325	7,4808	-0,037	88,381	0	1013,5	6,6	8,6	8,5	1	1	1	1	1	1	1	1	1	0	1	-7,963354	273,874454	311,035527	0
15.01.2021	09:29:41	0	13,563259	4,180331	2,78025	7,1136	-0,041	88,389	0	1013,42	6,6	8,6	8,5	1	1	1	1	1	1	1	1	1	0	1	-7,540521	273,921711	311,678588	0
15.01.2021	09:29:42	0	13,444283	4,406295	2,8875	6,1128	-0,036	88,407	0	1013,42	6,6	8,6	8,5	1	1	1	1	1	1	1	1	1	0	1	-8,597604	273,911364	310,573275	0
15.01.2021	09:29:43	0	13,80121	4,858252	3,0045	3,0348	-0,043	88,398	0	1013,62	6,6	8,6	8,4	1	1	1	1	1	1	1	1	1	0	1	-3,382664	274,015088	316,271941	0
15.01.2021	09:29:44	0	13,682235	2,824565	2,991	10,4364	-0,038	88,416	0	1013,34	6,6	8,6	8,4	1	1	1	1	1	1	1	1	1	0	1	-5,84919	273,915798	313,342356	0
15.01.2021	09:29:45	0	13,682235	4,745241	2,9445	10,8108	-0,037	88,422	0	1013,48	6,6	8,6	8,5	1	1	1	1	1	1	1	1	1	0	1	-7,258633	274,01806	312,40984	0
15.01.2021	09:29:46	0	13,444283	4,519277	3,021	11,6928	-0,041	88,399	0	1013,54	6,6	8,6	8,5	1	1	1	1	1	1	1	1	1	0	1	-8,45666	273,977979	311,024824	0
15.01.2021	09:29:47	0	13,325307	3,163494	3,01575	3,0276	-0,042	88,411	0	1013,46	6,6	8,6	8,5	1	1	1	1	1	1	1	1	1	0	1	-5,990134	273,867081	312,974396	0
15.01.2021	09:29:48	0	13,682235	3,163494	2,87775	8,6256	-0,037	88,428	0	1013,64	6,6	8,6	8,5	1	1	1	1	1	1	1	1	1	0	1	-7,963354	273,88921	311,104278	0
15.01.2021	09:29:49	0	13,682235	4,067349	2,85	8,262	-0,034	88,41	0	1013,44	6,6	8,6	8,5	1	1	1	1	1	1	1	1	1	0	1	-6,906272	273,902499	312,223291	0
15.01.2021	09:29:50	0	13,444283	3,841385	2,862	15,4008	-0,037	88,427	0	1013,54	6,6	8,6	8,5	1	1	1	1	1	1	1	1	1	0	1	-9,795631	273,95723	309,589081	0
15.01.2021	09:29:51	0	13,563259	4,745241	2,808	8,6112	-0,042	88,422	0	1013,56	6,6	8,6	8,5	1	1	1	1	1	1	1	1	1	0	1	-7,892882	274,032925	311,844965	0
15.01.2021	09:29:52	0	13,563259	3,389458	2,65875	355,554	-0,045	88,409	0	1013,5	6,7	8,6	8,5	1	1	1	1	1	1	1	1	1	0	1	-6,8358	273,926147	312,40399	0
15.01.2021	09:29:53	0	13,563259	5,197168	2,62575	15,0192	-0,038	88,417	0	1013,44	6,6	8,6	8,5	1	1	1	1	1	1	1	1	1	0	1	-10,147992	274,049291	309,666243	0
15.01.2021	09:29:54	0	13,444283	4,745241	2,60775	4,8348	-0,017	88,428	0	1013,5	6,6	8,6	8,5	1	1	1	1	1	1	1	1	1	0	1	-6,8358	273,980945	312,659518	0
15.01.2021	09:29:55	0	13,325307	4,632259	2,6595	7,1136	-0,041	88,424	0	1013,48	6,6	8,6	8,5	1	1	1	1	1	1	1	1	1	0	1	-12,121212	274,028464	307,595816	0
15.01.2021	09:29:56	0	13,325307	3,502461	2,63175	1,9224	-0,041	88,418	0	1013,42	6,6	8,6	8,4	1	1	1	1	1	1	1	1	1	0	1	-9,936575	273,952786	309,427416	0
15.01.2021	09:29:57	0	13,206331	5,423132	2,60625	12,1788	-0,042	88,419	0	1013,48	6,6	8,6	8,5	1	1	1	1	1	1	1	1	1	0	1	-9,231853	274,0359	310,519877	0
15.01.2021	09:29:58	0	13,80121	4,632287	2,64225	8,2728	-0,035	88,431	0	1013,52	6,6	8,6	8,4	1	1	1	1	1	1	1	1	1	0	1	-3,664553	273,874454	315,334329	0
15.01.2021	09:29:59	0	13,563259	4,293313	2,5515	10,8108	-0,034	88,44	0	1013,56	6,6	8,6	8,5	1	1	1	1	1	1	1	1	1	0	1	-7,470049	273,967602	311,963032	0
15.01.2021	09:30:00	0	13,682235	2,711566	2,286	3,7692	-0,04	88,439	0	1013,48	6,6	8,6	8,5	1	1	1	1	1	1	1	1	1	0	1	-6,8358	274,049291	312,978435	0
15.01.2021	09:30:01	0	13,682235	2,711566	2,286	3,7692	-0,04	88,439	0	1013,48	6,6	8,6	8,5	1	1	1	1	1	1	1	1	1	0	1	-8,527132	273,951305	310,829954	0
15.01.2021	09:30:02	0	13,444283	4,858223	2,4135	10,458	-0,036	88,437	0	1013,46	6,6	8,6	8,5	1	1	1	1	1	1	1	1	1	0	1	-5,637773	273,881831	313,395476	0
15.01.2021	09:30:03	0	13,682235	3,050512	2,6655	8,604	-0,035	88,435	0	1013,4	6,6	8,6	8,5	1	1	1	1	1	1	1	1	1	0	1	-5,778717	273,887734	313,282037	0
15.01.2021	09:30:04	0	13,444283	4,745241	2,78025	6,0552	-0,037	88,425	0	1013,48	6,6	8,6	8,5	1	1	1	1	1	1	1	1	1	0	1	-8,315715	273,982429	311,186521	0
15.01.2021	09:30:05	0	13,325307	3,050512	2,895	3,78	-0,038	88,436	0	1013,54	6,6	8,6	8,5	1	1	1	1	1	1	1	1	1	0	1	-8,738548	274,043338	311,0479	0
15.01.2021	09:30:06	0	13,444283	3,163513	2,8545	7,5024	-0,039	88,444	0	1013,56	6,6	8,6	8,4	1	1	1	1	1	1	1	1	1	0	1	-6,906272	273,918754	312,299054	0
15.01.2021	09:30:07	0	13,325307	2,598584	2,799	12,0996	-0,042	88,435	0	1013,52	6,6	8,6	8,5	1	1	1	1	1	1	1	1	1	0	1	-5,990134	274,043338	313,796314	0
15.01.2021	09:30:08	0	13,563259	2,937548	2,8125	9	-0,044	88,431	0	1013,32	6,6	8,6	8,4	1	1	1	1	1	1	1	1	1	0	1	-7,399577	273,932064	311,867795	0
15.01.2021	09:30:09	0	13,206331	3,728426	2,823	8,6148	-0,034	88,444	0	1013,48	6,6	8,6	8,4	1	1	1	1	1	1	1	1	1	0	1	-9,372798	274,0359	310,378932	0
15.01.2021	09:30:10	0	13,80121	4,519277	2,70825	7,1244	-0,037	88,433	0	1013,52	6,6	8,6	8,5	1	1	1	1	1	1	1	1	1	0	1	-9,020437	274,000236	310,564871	0
15.01.2021	09:30:11	0	13,563259	4,745241	2,469	10,0692	-0,03	88,423	0	1013,52	6,6	8,6	8,5	1	1	1	1	1	1	1	1	1	0	1	-10,641297	274,01806	309,027176	0
15.01.2021	09:30:12	0	13,444283	3,728403	2,47875	8,6148	-0,039	88,442	0	1013,48	6,6	8,6	8,5	1	1	1	1	1	1	1	1	1	0	1	-7,188161	274,016574	312,473378	0
15.01.2021	09:30:13	0	13,80121	5,084217	2,5245	9,378	-0,039	88,449	0	1013,58	6,6	8,6	8,4	1	1	1	1	1	1	1	1	1	0	1	-9,513742	273,945383	309,815728	0
15.01.2021	09:30:14	0	13,444283	4,180356	2,52225	10,4364	-0,038	88,453	0	1013,36	6,6	8,6	8,4	1	1	1	1	1	1	1	1	1	0	1	-14,940099	274,038875	304,825517	0
15.01.2021	09:30:15	0	13,563259	4,519277	2,6055	12,8376	-0,044	88,433	0	1013,48	6,6	8,6	8,5	1	1	1	1	1	1	1	1	1	0	1	-4,157858	273,887734	314,902897	0
15.01.2021	09:30:16	0	13,444283	3,389458	2,5935	7,1316	-0,036	88,448	0	1013,48	6,6	8,6	8,5	1	1	1	1	1	1	1	1	1	0	1	-8,315715	273,921711	310,903394	0
15.01.2021	09:30:17	0	13,682235	3,615421	2,5395	4,0824	-0,043	88,445	0	1013,5	6,6	8,6	8,5	1	1	1	1	1	1	1	1	1	0	1	-11,41649	274,01806	308,251982	0
15.01.2021	09:30:18	0	13,444283	3,389458	2,454	12,8448	-0,034	88,452	0	1013,58	6,6	8,6	8,5	1	1	1	1	1	1	1	1	1	0	1	-8,104299	274,026978	311,605791	0
15.01.2021	09:30:19	0	13,444283	3,841408	2,259	18,9144	-0,037	88,44	0	1013,44	6,6	8,6	8,4	1	1	1	1	1	1	1	1	1	0	1	-5,708245	273,998751	313,870137	0
15.01.2021	09:30:20	0	13,563259	4,632287	2,18025	9,7632	-0,039	88,425	0	1013,56	6,6	8,6	8,4	1	1	1	1	1	1	1	1	1	0	1	-11,06413	273,929105	308,18945	0
15.01.2021	09:30:21	0	13,206331	4,745241	2,21925	13,9248	-0,038	88,445	0	1013,4	6,6	8,6	8,5	1	1	1	1	1	1	1	1	1	0	1	-6,553911	274,061202	313,315927	0
15.01.2021	09:30:22	0	13,563259	2,824565	2,23425	12,8412	-0,04	88,427	0	1013,44	6,6	8,6	8,4	1	1	1	1	1	1	1	1	1	0	1	-6,976744	273,95723	312,407967	0
15.01.2021	09:30:23	0	13,325307	3,728426	2,22075	12,8412	-0,036	88,43	0	1013,52	6,6	8,6	8,4	1	1	1	1	1	1	1	1	1	0	1	-12,684989	274,040363	307,08757	0
15.01.2021	09:30:24	0	13,206331	3,050512	2,26575	10,44	-0,035	88,435	0	1013,56	6,6	8,6	8,5	1	1	1	1	1	1	1	1	1	0	1	-8,174771	273,96612	311,251399	0
15.01.2021	09:30:25	0	13,206331	3,05053	2,1615	18,0756	-0,034	88,445	0	1013,4	6,6	8,6	8,4	1	1	1	1	1	1	1	1	1	0	1	-13,460183	273,872979	305,531827	0
15.01.2021	09:30:26	0	13,325307	4,632287	2,13525	8,2656	-0,04	88,441	0	1013,48	6,6	8,6	8,4	1	1	1	1	1	1	1	1	1	0	1	-5,567301	273,980945	313,928017	0
15.01.2021	09:30:27	0	13,087355	4,293339	2,1615	13,5252	-0,033	88,441	0	1013,5	6,6	8,6	8,4	1	1	1	1	1	1	1	1	1	0	1	-3,030303	273,883306	316,009821	0
15.01.2021	09:30:28	0	12,968379	4,180331	2,142	27,2772	-0,036	88,437	0	1013,5	6,6	8,6	8,5	1	1	1	1	1	1	1	1	1	0	1	-13,460183	273,994298	306,097424	0
15.01.2021	09:30:29	0	13,325307	3,389478	2,01825	24,714	-0,037	88,43	0	1013,56	6,6	8,6	8,4	1	1	1	1	1	1	1	1	1	0	1	-10,500352	274,049291	309,313882	0
15.01.2021	09:30:30	0	13,563259	4,858223	1,8315	18,8208	-0,035	88,447	0	1013,62	6,5	8,6	8,5	1	1	1	1	1	1	1	1	1	0	1	-12,544045	273,994298	307,013562	0
15.01.2021	09:30:31	0	13,325307	2,598584	1,81875	24,048	-0,035	88,445	0	1013,64	6,6	8,6	8,5	1	1	1	1	1	1	1	1	1	0	1	-8,738548	273,901022	310,384131	0
15.01.2021	09:30:32	0	13,087355	2,37262	1,79475	21,762	-0,034	88,445	0	1013,52	6,6	8,6	8,5	1	1	1	1	1	1	1	1	1	0	1	-8,597604	273,874454	310,401277	0
15.01.2021	09:30:33	0	13,325307	4,406295	1,84875	32,1444	-0,04	88,447	0	1013,58	6,6	8,6	8,5	1	1	1	1	1	1	1	1	1	0	1	-8,174771	274,040363	311,597788	0
15.01.2021	09:30:34	0	13,206331	4,745269	1,83225	11,718	-0,038	88,454	0	1013,56	6,6	8,6	8,4	1	1	1	1	1	1	1	1	1	0	1	-10,923185	274,044826	308,870209	0
15.01.2021	09:30:35	0	13,325307	3,615421	1,71825	5,2128	-0,033	88,458	0	1013,48	6,6	8,6	8,5	1	1	1	1	1	1	1	1	1	0	1	-6,765328	273,915798	312,426218	0
15.01.2021	09:30:36	0	13,80121	5,423132	1,65975	25,0164	-0,035	88,455	0	1013,48	6,6	8,6	8,5	1	1	1	1	1	1	1	1	1	0	1	-12,896406	274,050779	306,924777	0
15.01.2021	09:30:37	0	13,206331	4,406321	1,6305	15,0264	-0,036	88,452	0	1013,54	6,6	8,6	8,4	1	1	1	1	1	1	1	1	1	0	1	-12,05074	273,927626	307,195944	0
15.01.2021	09:30:38	0	13,206331	3,954367	1,6785	8,2656	-0,035	88,455	0	1013,48	6,6	8,6	8,5	1	1	1	1	1	1	1	1	1	0	1	-7,610994	274,061202	312,258845	0
15.01.2021	09:30:39	0	13,325307	3,050512	1,845	357,2064	-0,032	88,451	0	1013,54	6,6	8,6	8,5	1	1	1	1	1	1	1	1	1	0	1	-6,20155	273,921711	313,017559	0
15.01.2021	09:30:40	0	13,325307	4,632259	1,938	4,0932	-0,036	88,444	0	1013,44	6,6	8,6	8,5	1	1	1	1	1	1	1	1	1	0	1	-2,677942	273,988363	316,851975	0
15.01.2021	09:30:41	0	13,563259	3,728426	2,001	8,6004	-0,042	88,445	0	1013,5	6,6	8,6	8,4	1	1	1	1	1	1	1	1	1	0	1	-8,45666	273,921711	310,76245	0
15.01.2021	09:30:42	0	13,206331	3,276495	2,07825	3,0132	-0,038	88,452	0	1013,48	6,6	8,6	8,4	1	1	1	1	1	1	1	1	1	0	1	-5,144468	274,046314	314,655872	0
15.01.2021	09:30:43	0	13,444283	5,1972	2,1975	2,6388	-0,029	88,446	0	1013,48	6,6	8,6	8,4	1	1	1	1	1	1	1	1	1	0	1	-4,157858	273,924668	315,075038	0
15.01.2021	09:30:44	0	13,087355	3,615421	2,23875	8,2656	-0,036	88,429	0	1013,4	6,6	8,6	8,5	1	1	1	1	1	1	1	1	1	0	1	-9,866103	274,026978	309,843987	0
15.01.2021	09:30:45	0	13,206331	4,067374	2,33775	360	-0,032	88,443	0	1013,6	6,6	8,6	8,4	1	1	1	1	1	1	1	1	1	0	1	-5,144468	274,037387	314,614204	0
15.01.2021	09:30:46	0	13,087355	2,711582	2,4735	7,1244	-0,031	88,456	0	1013,66	6,6	8,6	8,4	1	1	1	1	1	1	1	1	1	0	1	-7,188161	273,982429	312,314076	0
15.01.2021	09:30:47	0	13,444283	4,406295	2,44125	0,8604	-0,04	88,45	0	1013,52	6,6	8,6	8,5	1	1	1	1	1	1	1	1	1	0	1	-0	273,880355	319,026374	0
15.01.2021	09:30:48	0	13,682235	4,180356	2,3205	360	-0,036	88,453	0	1013,66	6,6	8,6	8,4	1	1	1	1	1	1	1	1	1	0	1	-6,553911	273,942422	312,761755	0
15.01.2021	09:30:49	0	13,206331	2,824565	2,25675	8,2656	-0,039	88,439	0	1013,58	6,6	8,6	8,4	1	1	1	1	1	1	1	1	1	0	1	-7,82241	274,043338	311,964038	0
15.01.2021	09:30:50	0	13,325307	3,954367	2,244	354,6432	-0,037	88,466	0	1013,62	6,6	8,6	8,5	1	1	1	1	1	1	1	1	1	0	1	-6,8358	274,000236	312,749508	0
15.01.2021	09:30:51	0	13,325213	3,276495	2,2005	10,422	-0,032	88,454	0	1013,52	6,6	8,7	8,4	1	1	1	1	1	1	1	1	1	0	1	-5,073996	274,029951	314,649971	0
15.01.2021	09:30:52	0	13,563259	3,615421	2,181	2,2824	-0,035	88,461	0	1013,6	6,6	8,6	8,5	1	1	1	1	1	1	1	1	1	0	1	-5,426357	274,032925	314,311491	0
15.01.2021	09:30:53	0	13,325307	3,615443	2,23725	6,7968	-0,034	88,462	0	1013,58	6,6	8,6	8,4	1	1	1	1	1	1	1	1	1	0	1	-8,315715	273,992814	311,234968	0
15.01.2021	09:30:54	0	13,325307	3,276495	2,316	6,4332	-0,034	88,454	0	1013,52	6,6	8,6	8,4	1	1	1	1	1	1	1	1	1	0	1	-6,8358	273,858237	312,087529	0
15.01.2021	09:30:55	0	13,206331	4,406321	2,42775	6,8328	-0,036	88,45	0	1013,4	6,6	8,6	8,4	1	1	1	1	1	1	1	1	1	0	1	-8,315715	273,972049	311,138106	0
15.01.2021	09:30:56	0	13,206331	4,519304	2,51925	4,464	-0,034	88,461	0	1013,7	6,6	8,6	8,4	1	1	1	1	1	1	1	1	1	0	1	-9,795631	274,040363	309,976928	0
15.01.2021	09:30:57	0	13,444283	4,519277	2,50575	11,7036	-0,034	88,457	0	1013,46	6,6	8,6	8,5	1	1	1	1	1	1	1	1	1	0	1	-12,05074	274,032925	307,687107	0
15.01.2021	09:30:58	0	13,206331	4,519304	2,46375	9,7596	-0,036	88,459	0	1013,58	6,6	8,6	8,4	1	1	1	1	1	1	1	1	1	0	1	-8,597604	273,95723	310,787107	0
15.01.2021	09:30:59	0	13,325307	4,745241	2,49825	4,8312	-0,032	88,447	0	1013,46	6,6	8,6	8,5	1	1	1	1	1	1	1	1	1	0	1	-4,298802	274,043338	315,487646	0
15.01.2021	09:31:00	0	13,325307	2,824548	2,43525	8,6076	-0,031	88,459	0	1013,56	6,6	8,6	8,5	1	1	1	1	1	1	1	1	1	0	1	-6,906272	274,058223	312,949661	0
15.01.2021	09:31:01	0	13,325307	2,824548	2,43525	8,6076	-0,031	88,459	0	1013,56	6,6	8,6	8,5	1	1	1	1	1	1	1	1	1	0	1	-6,906272	274,058223	312,949661	0
15.01.2021	09:31:02	0	13,206331	3,728403	2,4285	1,5552	-0,036	88,446	0	1013,5	6,6	8,6	8,5	1	1	1	1	1	1	1	1	1	0	1	-7,047216	273,963156	312,365131	0
15.01.2021	09:31:03	0	13,206331	3,389478	2,3955	8,6076	-0,03	88,456	0	1013,6	6,6	8,6	8,4	1	1	1	1	1	1	1	1	1	0	1	-9,795631	274,026978	309,914459	0
15.01.2021	09:31:04	0	13,444283	4,067374	2,331	15,7824	-0,033	88,461	0	1013,5	6,6	8,6	8,4	1	1	1	1	1	1	1	1	1	0	1	-10,993658	273,976497	308,480909	0
15.01.2021	09:31:05	0	13,563259	2,711582	2,2995	18,4644	-0,033	88,455	0	1013,46	6,6	8,6	8,4	1	1	1	1	1	1	1	1	1	0	1	-11,275546	273,88921	307,792086	0
15.01.2021	09:31:06	0	13,325307	2,259652	2,35125	7,8696	-0,037	88,447	0	1013,52	6,6	8,6	8,4	1	1	1	1	1	1	1	1	1	0	1	-4,933051	273,91432	314,251604	0
15.01.2021	09:31:07	0	13,325307	3,954391	2,42475	7,5024	-0,034	88,461	0	1013,42	6,6	8,6	8,4	1	1	1	1	1	1	1	1	1	0	1	-10,42988	273,887734	308,630874	0
15.01.2021	09:31:08	0	13,563259	3,615443	2,4255	6,4404	-0,032	88,476	0	1013,48	6,6	8,6	8,4	1	1	1	1	1	1	1	1	1	0	1	-9,795631	274,028464	309,921397	0
15.01.2021	09:31:09	0	13,206238	4,745269	2,48775	6,0552	-0,033	88,469	0	1013,54	6,6	8,7	8,4	1	1	1	1	1	1	1	1	1	0	1	-4,439746	273,932064	314,827626	0
15.01.2021	09:31:10	0	13,682235	3,389458	2,4195	15,0336	-0,031	88,469	0	1013,66	6,6	8,6	8,5	1	1	1	1	1	1	1	1	1	0	1	-7,329105	274,040363	312,443454	0
15.01.2021	09:31:11	0	13,087355	2,259652	2,433	2,3004	-0,037	88,462	0	1013,46	6,6	8,6	8,4	1	1	1	1	1	1	1	1	1	0	1	-2,043693	273,933543	317,230576	0
15.01.2021	09:31:12	0	13,444283	3,163494	2,53425	18,8244	-0,033	88,475	0	1013,64	6,6	8,6	8,5	1	1	1	1	1	1	1	1	1	0	1	-9,302326	273,874454	309,696556	0
15.01.2021	09:31:13	0	13,563259	4,971205	2,5755	16,8516	-0,036	88,46	0	1013,64	6,6	8,6	8,5	1	1	1	1	1	1	1	1	1	0	1	-9,866103	273,964638	309,553155	0
15.01.2021	09:31:14	0	13,563259	4,745241	2,394	16,488	-0,033	88,468	0	1013,56	6,6	8,6	8,5	1	1	1	1	1	1	1	1	1	0	1	-8,668076	273,899545	310,44772	0
15.01.2021	09:31:15	0	13,087446	2,711582	2,2665	1,17	-0,034	88,451	0	1013,38	6,6	8,5	8,4	1	1	1	1	1	1	1	1	1	0	1	-9,372798	273,867081	309,591732	0
15.01.2021	09:31:16	0	13,325307	3,50244	2,2125	10,8216	-0,037	88,433	0	1013,58	6,6	8,6	8,5	1	1	1	1	1	1	1	1	1	0	1	-3,946441	273,980945	315,548877	0
15.01.2021	09:31:17	0	13,563164	4,632287	2,1915	359,5464	-0,026	88,453	0	1013,66	6,6	8,7	8,4	1	1	1	1	1	1	1	1	1	0	1	-5,919662	274,043338	313,866787	0
15.01.2021	09:31:18	0	13,206331	3,841385	2,20125	7,1244	-0,039	88,456	0	1013,54	6,6	8,6	8,5	1	1	1	1	1	1	1	1	1	0	1	-5,003524	273,945383	314,325946	0
15.01.2021	09:31:19	0	13,325307	4,067374	2,09025	9,3744	-0,027	88,465	0	1013,58	6,6	8,6	8,4	1	1	1	1	1	1	1	1	1	0	1	-7,188161	274,043338	312,598288	0
15.01.2021	09:31:20	0	13,80121	3,615443	1,99125	16,0884	-0,031	88,46	0	1013,56	6,6	8,6	8,4	1	1	1	1	1	1	1	1	1	0	1	-7,470049	273,909886	311,693942	0
15.01.2021	09:31:21	0	13,325307	3,050512	2,0175	23,2236	-0,031	88,465	0	1013,6	6,6	8,6	8,5	1	1	1	1	1	1	1	1	1	0	1	-5,355884	273,980945	314,139434	0
15.01.2021	09:31:22	0	13,325307	4,293339	2,0175	19,5192	-0,041	88,462	0	1013,5	6,6	8,6	8,4	1	1	1	1	1	1	1	1	1	0	1	-5,567301	274,052268	314,260831	0
15.01.2021	09:31:23	0	13,087355	2,5986	2,037	18,4716	-0,032	88,461	0	1013,42	6,6	8,6	8,4	1	1	1	1	1	1	1	1	1	0	1	-10,993658	274,006175	308,619362	0
15.01.2021	09:31:24	0	13,087355	3,841408	2,04	18,0756	-0,034	88,467	0	1013,56	6,6	8,6	8,4	1	1	1	1	1	1	1	1	1	0	1	-6,694856	274,037387	313,063817	0
15.01.2021	09:31:25	0	13,325213	4,632259	2,00475	19,5264	-0,045	88,467	0	1013,42	6,6	8,7	8,5	1	1	1	1	1	1	1	1	1	0	1	-0	273,986879	319,522996	0
15.01.2021	09:31:26	0	13,087355	4,293339	2,01375	22,0716	-0,035	88,46	0	1013,58	6,6	8,6	8,4	1	1	1	1	1	1	1	1	1	0	1	-13,178295	274,034413	306,566494	0
15.01.2021	09:31:27	0	13,563259	3,954391	1,956	23,5656	-0,027	88,469	0	1013,64	6,6	8,6	8,4	1	1	1	1	1	1	1	1	1	0	1	-5,84919	274,006175	313,76383	0
15.01.2021	09:31:28	0	13,444283	3,05053	1,95375	13,914	-0,032	88,476	0	1013,38	6,6	8,6	8,4	1	1	1	1	1	1	1	1	1	0	1	-7,470049	273,932064	311,797323	0
15.01.2021	09:31:29	0	13,563259	3,276476	1,899	27,9576	-0,03	88,454	0	1013,44	6,6	8,6	8,5	1	1	1	1	1	1	1	1	1	0	1	-7,610994	274,038875	312,154622	0
15.01.2021	09:31:30	0	13,206331	4,067349	1,82925	10,4508	-0,038	88,448	0	1013,34	6,6	8,6	8,5	1	1	1	1	1	1	1	1	1	0	1	-6,8358	273,917276	312,362636	0
15.01.2021	09:31:31	0	13,563164	2,598584	1,818	21,384	-0,03	88,458	0	1013,5	6,6	8,7	8,5	1	1	1	1	1	1	1	1	1	0	1	-10,782241	274,04185	308,997262	0
15.01.2021	09:31:32	0	13,206331	3,163513	1,77975	17,6904	-0,027	88,467	0	1013,5	6,6	8,6	8,4	1	1	1	1	1	1	1	1	1	0	1	-7,329105	273,942422	311,986561	0
15.01.2021	09:31:33	0	13,444283	2,937548	1,761	18,8316	-0,032	88,469	0	1013,54	6,6	8,6	8,4	1	1	1	1	1	1	1	1	1	0	1	-5,003524	273,896591	314,098508	0
15.01.2021	09:31:34	0	13,682235	4,632287	1,7355	16,4628	-0,03	88,487	0	1013,5	6,6	8,6	8,4	1	1	1	1	1	1	1	1	1	0	1	-7,681466	274,010631	311,952343	0
15.01.2021	09:31:35	0	13,68233	4,971234	1,72425	23,3244	-0,032	88,481	0	1013,44	6,6	8,5	8,4	1	1	1	1	1	1	1	1	1	0	1	-8,315715	273,88921	310,751917	0
15.01.2021	09:31:36	0	13,80121	4,632287	1,6845	9,7344	-0,037	88,469	0	1013,5	6,6	8,6	8,4	1	1	1	1	1	1	1	1	1	0	1	-8,174771	274,001721	311,417464	0
15.01.2021	09:31:37	0	13,206331	3,841385	1,6845	9,7488	-0,035	88,475	0	1013,64	6,6	8,6	8,5	1	1	1	1	1	1	1	1	1	0	1	-11,980268	274,031438	307,750639	0
15.01.2021	09:31:38	0	13,325307	3,728426	1,73775	3,7656	-0,03	88,47	0	1013,7	6,6	8,6	8,4	1	1	1	1	1	1	1	1	1	0	1	-9,654686	273,886258	309,399191	0
15.01.2021	09:31:39	0	13,444283	4,406321	1,82775	15,4116	-0,029	88,479	0	1013,6	6,6	8,6	8,4	1	1	1	1	1	1	1	1	1	0	1	-9,020437	273,976497	310,45413	0
15.01.2021	09:31:40	0	13,563259	2,711566	1,857	7,506	-0,025	88,477	0	1013,66	6,6	8,6	8,5	1	1	1	1	1	1	1	1	1	0	1	-7,188161	274,04185	312,591343	0
15.01.2021	09:31:41	0	13,563259	4,293339	1,86	15,3936	-0,034	88,474	0	1013,5	6,6	8,6	8,4	1	1	1	1	1	1	1	1	1	0	1	-8,45666	273,930585	310,803816	0
15.01.2021	09:31:42	0	13,563259	3,615443	1,93275	22,0752	-0,03	88,475	0	1013,48	6,6	8,6	8,4	1	1	1	1	1	1	1	1	1	0	1	-11,980268	273,884782	307,066733	0
15.01.2021	09:31:43	0	13,682235	4,971234	1,971	15,7716	-0,029	88,472	0	1013,5	6,6	8,6	8,4	1	1	1	1	1	1	1	1	1	0	1	-5,144468	274,01806	314,524004	0
15.01.2021	09:31:44	0	13,563259	3,954391	2,17575	9,3636	-0,031	88,462	0	1013,46	6,6	8,6	8,4	1	1	1	1	1	1	1	1	1	0	1	-10,218464	273,886258	308,835413	0
15.01.2021	09:31:45	0	13,682235	4,180356	2,31975	7,1244	-0,032	88,473	0	1013,58	6,6	8,6	8,4	1	1	1	1	1	1	1	1	1	0	1	-4,369274	274,031438	315,361633	0
15.01.2021	09:31:46	0	13,206331	2,824565	2,3385	4,8456	-0,026	88,462	0	1013,34	6,6	8,6	8,4	1	1	1	1	1	1	1	1	1	0	1	-9,161381	273,979462	310,327019	0
15.01.2021	09:31:47	0	13,563259	3,954391	2,30475	3,0312	-0,03	88,461	0	1013,46	6,6	8,6	8,4	1	1	1	1	1	1	1	1	1	0	1	-3,523608	273,917276	315,674827	0
15.01.2021	09:31:48	0	13,563259	2,711582	2,3385	360	-0,037	88,466	0	1013,46	6,6	8,6	8,4	1	1	1	1	1	1	1	1	1	0	1	-9,44327	273,930585	309,817206	0
15.01.2021	09:31:49	0	13,206423	3,05053	2,3235	9,3672	-0,037	88,48	0	1013,52	6,6	8,5	8,4	1	1	1	1	1	1	1	1	1	0	1	-3,030303	274,053757	316,804778	0
15.01.2021	09:31:50	0	13,563259	4,971175	2,1735	17,6904	-0,032	88,456	0	1013,5	6,6	8,6	8,6	1	1	1	1	1	1	1	1	1	0	1	-7,963354	273,992814	311,587329	0
15.01.2021	09:31:51	0	13,563259	3,728426	2,08125	15,0372	-0,041	88,467	0	1013,5	6,6	8,6	8,4	1	1	1	1	1	1	1	1	1	0	1	-8,527132	274,003205	311,07203	0
15.01.2021	09:31:52	0	13,80121	2,711582	2,085	12,8412	-0,036	88,447	0	1013,6	6,6	8,6	8,4	1	1	1	1	1	1	1	1	1	0	1	-5,990134	273,892162	313,091256	0
15.01.2021	09:31:53	0	13,563259	3,502461	2,24025	21,78	-0,028	88,465	0	1013,52	6,6	8,6	8,4	1	1	1	1	1	1	1	1	1	0	1	-5,567301	274,037387	314,191371	0
15.01.2021	09:31:54	0	13,682235	3,163513	2,44875	23,2056	-0,034	88,479	0	1013,54	6,6	8,6	8,4	1	1	1	1	1	1	1	1	1	0	1	-3,24172	273,898068	315,867194	0
15.01.2021	09:31:55	0	13,325307	4,406295	2,445	15,3972	-0,031	88,478	0	1013,54	6,6	8,6	8,5	1	1	1	1	1	1	1	1	1	0	1	-5,285412	273,918754	313,919914	0
15.01.2021	09:31:56	0	13,682235	4,632259	2,36325	15,786	-0,037	88,474	0	1013,66	6,6	8,6	8,5	1	1	1	1	1	1	1	1	1	0	1	-6,906272	273,880355	312,120102	0
15.01.2021	09:31:57	0	13,80121	3,163494	2,3025	13,1724	-0,031	88,469	0	1013,52	6,6	8,6	8,5	1	1	1	1	1	1	1	1	1	0	1	-6,8358	273,932064	312,431572	0
15.01.2021	09:31:58	0	13,563259	3,954367	2,24625	22,0752	-0,031	88,453	0	1013,68	6,6	8,6	8,5	1	1	1	1	1	1	1	1	1	0	1	-7,892882	273,99133	311,650878	0
15.01.2021	09:31:59	0	13,682139	4,293339	2,24475	8,9712	-0,026	88,464	0	1013,68	6,6	8,7	8,4	1	1	1	1	1	1	1	1	1	0	1	-8,668076	273,886258	310,385801	0
15.01.2021	09:32:00	0	13,563259	2,93753	2,6055	11,7972	-0,038	88,472	0	1013,46	6,6	8,6	8,5	1	1	1	1	1	1	1	1	1	0	1	-9,090909	274,052268	310,737222	0
15.01.2021	09:32:01	0	13,563259	2,93753	2,6055	11,7972	-0,038	88,472	0	1013,46	6,6	8,6	8,5	1	1	1	1	1	1	1	1	1	0	1	-9,090909	274,052268	310,737222	0
15.01.2021	09:32:02	0	13,80121	3,728426	2,763	15,7752	-0,036	88,461	0	1013,44	6,6	8,6	8,4	1	1	1	1	1	1	1	1	1	0	1	-5,355884	273,932064	313,911488	0
15.01.2021	09:32:03	0	13,563259	3,841408	2,73525	18,8136	-0,032	88,473	0	1013,64	6,6	8,6	8,4	1	1	1	1	1	1	1	1	1	0	1	-8,033827	274,050779	311,787356	0
15.01.2021	09:32:04	0	13,444283	3,502461	2,775	17,7048	-0,038	88,469	0	1013,5	6,6	8,6	8,4	1	1	1	1	1	1	1	1	1	0	1	-9,372798	273,868555	309,598601	0
15.01.2021	09:32:05	0	13,563259	2,93753	2,5785	16,092	-0,036	88,472	0	1013,48	6,6	8,6	8,5	1	1	1	1	1	1	1	1	1	0	1	-8,879493	274,034413	310,865296	0
15.01.2021	09:32:06	0	13,80121	2,711582	2,3115	19,5192	-0,029	88,473	0	1013,6	6,6	8,6	8,4	1	1	1	1	1	1	1	1	1	0	1	-11,768851	273,902499	307,360712	0
15.01.2021	09:32:07	0	14,158039	3,841408	2,1315	360	-0,031	88,469	0	1013,5	6,6	8,7	8,4	1	1	1	1	1	1	1	1	1	0	1	-6,412967	274,028464	313,304061	0
15.01.2021	09:32:08	0	13,682235	4,519277	2,22075	5,2164	-0,034	88,471	0	1013,54	6,6	8,6	8,5	1	1	1	1	1	1	1	1	1	0	1	-12,614517	273,875929	306,391236	0
15.01.2021	09:32:09	0	13,920089	3,841408	2,313	11,736	-0,033	88,451	0	1013,5	6,6	8,7	8,4	1	1	1	1	1	1	1	1	1	0	1	-5,990134	273,940942	313,318631	0
15.01.2021	09:32:10	0	13,325307	3,163475	2,34525	2,9988	-0,031	88,462	0	1013,46	6,6	8,6	8,6	1	1	1	1	1	1	1	1	1	0	1	-8,45666	273,880355	310,569715	0
15.01.2021	09:32:11	0	13,563259	3,163513	2,3265	360	-0,03	88,475	0	1013,48	6,6	8,6	8,4	1	1	1	1	1	1	1	1	1	0	1	-7,82241	273,997267	311,749046	0
15.01.2021	09:32:12	0	13,80121	2,937548	2,25975	0	-0,028	88,46	0	1013,56	6,6	8,6	8,4	1	1	1	1	1	1	1	1	1	0	1	-4,862579	274,052268	314,965552	0
15.01.2021	09:32:13	0	13,920186	4,293339	2,20575	359,8164	-0,029	88,473	0	1013,5	6,6	8,6	8,4	1	1	1	1	1	1	1	1	1	0	1	-10,852713	273,937982	308,442251	0
15.01.2021	09:32:14	0	13,563164	4,632287	2,17875	1,9116	-0,035	88,473	0	1013,52	6,6	8,7	8,4	1	1	1	1	1	1	1	1	1	0	1	-2,677942	274,046314	317,122398	0
15.01.2021	09:32:15	0	13,80121	4,519304	2,214	5,6736	-0,029	88,479	0	1013,52	6,6	8,6	8,4	1	1	1	1	1	1	1	1	1	0	1	-6,906272	273,997267	312,665184	0
15.01.2021	09:32:16	0	13,563259	2,711582	2,1945	5,652	-0,03	88,462	0	1013,4	6,6	8,6	8,4	1	1	1	1	1	1	1	1	1	0	1	-6,976744	274,04185	312,802759	0
15.01.2021	09:32:17	0	13,920186	4,519304	2,2665	12,9852	-0,028	88,476	0	1013,54	6,6	8,6	8,4	1	1	1	1	1	1	1	1	1	0	1	-8,315715	273,997267	311,255741	0
15.01.2021	09:32:18	0	13,563164	4,406321	2,40525	13,9284	-0,029	88,47	0	1013,52	6,6	8,7	8,4	1	1	1	1	1	1	1	1	1	0	1	-3,664553	274,001721	315,927682	0
15.01.2021	09:32:19	0	13,801114	3,163513	2,42475	7,506	-0,03	88,482	0	1013,52	6,6	8,7	8,4	1	1	1	1	1	1	1	1	1	0	1	-8,527132	273,864132	310,423662	0
15.01.2021	09:32:20	0	14,039162	4,858252	2,38125	18,4392	-0,029	88,476	0	1013,48	6,6	8,6	8,4	1	1	1	1	1	1	1	1	1	0	1	-7,610994	273,958711	311,780626	0
15.01.2021	09:32:21	0	13,68233	2,824565	2,35125	22,8276	-0,026	88,496	0	1013,56	6,6	8,5	8,4	1	1	1	1	1	1	1	1	1	0	1	-8,386187	273,871505	310,598951	0
15.01.2021	09:32:22	0	13,920089	3,389478	2,442	8,262	-0,025	88,472	0	1013,42	6,6	8,7	8,4	1	1	1	1	1	1	1	1	1	0	1	-8,174771	273,929105	311,078809	0
15.01.2021	09:32:23	0	13,682139	2,37262	2,42175	360	-0,025	88,483	0	1013,6	6,6	8,7	8,5	1	1	1	1	1	1	1	1	1	0	1	-4,721635	274,04185	315,057868	0
15.01.2021	09:32:24	0	13,801307	3,276495	2,33475	357,66	-0,03	88,47	0	1013,48	6,6	8,5	8,4	1	1	1	1	1	1	1	1	1	0	1	-11,557435	273,921711	307,661675	0
15.01.2021	09:32:25	0	13,563164	4,519304	2,3325	3,384	-0,028	88,475	0	1013,46	6,6	8,7	8,4	1	1	1	1	1	1	1	1	1	0	1	-5,21494	273,980945	314,280378	0
15.01.2021	09:32:26	0	13,682235	4,519277	2,33925	0,4752	-0,032	88,484	0	1013,64	6,6	8,6	8,5	1	1	1	1	1	1	1	1	1	0	1	-4,510218	274,044826	315,283175	0
15.01.2021	09:32:27	0	13,682235	4,745241	2,295	354,6036	-0,028	88,491	0	1013,46	6,6	8,6	8,5	1	1	1	1	1	1	1	1	1	0	1	-6,20155	273,985395	313,314525	0
15.01.2021	09:32:28	0	13,68233	4,858193	2,33175	1,9224	-0,023	88,494	0	1013,58	6,7	8,5	8,6	1	1	1	1	1	1	1	1	1	0	1	-6,624383	274,038875	313,141232	0
15.01.2021	09:32:29	0	13,801307	3,389478	2,37225	357,21	-0,031	88,492	0	1013,4	6,6	8,5	8,4	1	1	1	1	1	1	1	1	1	0	1	-4,651163	274,028464	315,065865	0
15.01.2021	09:32:30	0	13,80121	2,937548	2,3415	8,2548	-0,031	88,492	0	1013,38	6,6	8,6	8,4	1	1	1	1	1	1	1	1	1	0	1	-0,563777	273,85971	318,366417	0
15.01.2021	09:32:31	0	14,158138	3,050512	2,265	5,6772	-0,03	88,482	0	1013,58	6,6	8,6	8,5	1	1	1	1	1	1	1	1	1	0	1	-4,510218	273,924668	314,722677	0
15.01.2021	09:32:32	0	13,682235	3,050494	2,29275	7,4988	-0,028	88,489	0	1013,5	6,6	8,6	8,6	1	1	1	1	1	1	1	1	1	0	1	-4,721635	273,905453	314,421697	0
15.01.2021	09:32:33	0	13,920089	4,519304	2,47125	7,8768	-0,03	88,486	0	1013,56	6,6	8,7	8,4	1	1	1	1	1	1	1	1	1	0	1	-4,369274	274,053757	315,465807	0
15.01.2021	09:32:34	0	13,920186	4,858223	2,6535	15,7788	-0,027	88,491	0	1013,56	6,6	8,6	8,5	1	1	1	1	1	1	1	1	1	0	1	-9,372798	273,937982	309,922167	0
15.01.2021	09:32:35	0	13,801114	3,841385	2,75625	2,664	-0,029	88,472	0	1013,58	6,6	8,7	8,5	1	1	1	1	1	1	1	1	1	0	1	-6,906272	274,032925	312,831575	0
15.01.2021	09:32:36	0	14,158138	4,745269	2,9355	6,4152	-0,027	88,468	0	1013,52	6,6	8,6	8,4	1	1	1	1	1	1	1	1	1	0	1	-2,466526	273,99133	317,077235	0
15.01.2021	09:32:37	0	13,80121	2,372635	2,856	8,604	-0,023	88,485	0	1013,56	6,6	8,6	8,4	1	1	1	1	1	1	1	1	1	0	1	-6,8358	274,037387	312,922872	0
15.01.2021	09:32:38	0	14,277214	4,858252	2,71575	3,024	-0,027	88,473	0	1013,58	6,6	8,5	8,4	1	1	1	1	1	1	1	1	1	0	1	-5,778717	274,028464	313,938311	0
15.01.2021	09:32:39	0	13,682235	3,954391	2,57025	7,128	-0,028	88,489	0	1013,36	6,6	8,6	8,4	1	1	1	1	1	1	1	1	1	0	1	-3,523608	273,91432	315,661048	0
15.01.2021	09:32:40	0	13,920186	4,519277	2,2695	7,866	-0,035	88,468	0	1013,42	6,6	8,6	8,5	1	1	1	1	1	1	1	1	1	0	1	-8,597604	274,016574	311,063935	0
15.01.2021	09:32:41	0	13,801114	3,389478	2,1315	7,8732	-0,023	88,489	0	1013,56	6,6	8,7	8,4	1	1	1	1	1	1	1	1	1	0	1	-4,933051	273,903976	314,203396	0
15.01.2021	09:32:42	0	14,158039	2,824565	2,12475	6,0552	-0,029	88,492	0	1013,52	6,7	8,7	8,4	1	1	1	1	1	1	1	1	1	0	1	-9,866103	273,899545	309,249693	0
15.01.2021	09:32:43	0	13,801307	4,632231	2,1495	16,4808	-0,025	88,484	0	1013,56	6,5	8,5	8,6	1	1	1	1	1	1	1	1	1	0	1	-6,483439	273,912842	312,694328	0
15.01.2021	09:32:44	0	13,682235	4,293339	2,235	13,914	-0,031	88,482	0	1013,62	6,6	8,6	8,4	1	1	1	1	1	1	1	1	1	0	1	-6,342495	274,046314	313,457845	0
15.01.2021	09:32:45	0	14,277214	4,745269	2,25825	12,1068	-0,026	88,464	0	1013,44	6,7	8,5	8,4	1	1	1	1	1	1	1	1	1	0	1	-5,990134	273,96612	313,436036	0
15.01.2021	09:32:46	0	14,039162	4,406295	2,2815	21,7548	-0,025	88,485	0	1013,58	6,7	8,6	8,5	1	1	1	1	1	1	1	1	1	0	1	-8,245243	274,032925	311,492604	0
15.01.2021	09:32:47	0	13,682235	4,067349	2,169	1,9224	-0,025	88,49	0	1013,66	6,6	8,6	8,5	1	1	1	1	1	1	1	1	1	0	1	-6,20155	274,037387	313,557122	0
15.01.2021	09:32:48	0	14,277014	3,954367	2,18175	7,5168	-0,025	88,485	0	1013,58	6,6	8,7	8,5	1	1	1	1	1	1	1	1	1	0	1	-4,22833	274,024005	315,467885	0
15.01.2021	09:32:49	0	13,801307	2,93753	2,1915	359,5104	-0,022	88,486	0	1013,54	6,6	8,5	8,5	1	1	1	1	1	1	1	1	1	0	1	-4,580691	273,929105	314,672889	0
15.01.2021	09:32:50	0	13,80121	2,5986	2,24625	6,444	-0,021	88,479	0	1013,54	6,6	8,6	8,4	1	1	1	1	1	1	1	1	1	0	1	-4,792107	274,043338	314,994341	0
15.01.2021	09:32:51	0	13,801114	4,632259	2,2095	5,2164	-0,024	88,473	0	1013,5	6,6	8,7	8,5	1	1	1	1	1	1	1	1	1	0	1	-6,765328	273,986879	312,757668	0
15.01.2021	09:32:52	0	13,920186	3,502461	2,1705	360	-0,028	88,485	0	1013,48	6,6	8,6	8,4	1	1	1	1	1	1	1	1	1	0	1	-5,567301	273,881831	313,465948	0
15.01.2021	09:32:53	0	14,395989	4,745212	2,16975	2,6424	-0,025	88,48	0	1013,54	6,6	8,7	8,6	1	1	1	1	1	1	1	1	1	0	1	-4,862579	273,958711	314,52904	0
15.01.2021	09:32:54	0	13,801114	4,406321	2,2875	6,4188	-0,027	88,476	0	1013,58	6,6	8,7	8,4	1	1	1	1	1	1	1	1	1	0	1	-7,399577	274,0359	312,352153	0
15.01.2021	09:32:55	0	14,39609	3,841408	2,45625	5,1984	-0,032	88,476	0	1013,48	6,5	8,6	8,4	1	1	1	1	1	1	1	1	1	0	1	-10,852713	273,940942	308,456052	0
15.01.2021	09:32:56	0	14,158237	4,406321	2,50575	357,678	-0,028	88,469	0	1013,36	6,6	8,5	8,4	1	1	1	1	1	1	1	1	1	0	1	-9,513742	274,015088	310,140863	0
15.01.2021	09:32:57	0	14,158138	3,276495	2,58825	6,066	-0,026	88,512	0	1013,72	6,6	8,6	8,4	1	1	1	1	1	1	1	1	1	0	1	-7,963354	273,994298	311,594253	0
15.01.2021	09:32:58	0	13,920186	3,276476	2,619	20,6244	-0,024	88,491	0	1013,64	6,6	8,6	8,5	1	1	1	1	1	1	1	1	1	0	1	-6,412967	274,04185	313,366536	0
15.01.2021	09:32:59	0	13,801307	3,276495	2,544	1,908	-0,027	88,482	0	1013,3	6,6	8,5	8,4	1	1	1	1	1	1	1	1	1	0	1	-4,933051	274,061202	314,936787	0
15.01.2021	09:33:00	0	14,158138	4,067374	2,29125	6,8112	-0,036	88,49	0	1013,58	6,6	8,6	8,4	1	1	1	1	1	1	1	1	1	0	1	-10,077519	274,04185	309,701984	0
15.01.2021	09:33:01	0	14,158138	4,067374	2,29125	6,8112	-0,036	88,49	0	1013,58	6,6	8,6	8,4	1	1	1	1	1	1	1	1	1	0	1	-10,077519	274,04185	309,701984	0
15.01.2021	09:33:02	0	14,39609	3,615443	2,12475	359,514	-0,025	88,478	0	1013,56	6,6	8,6	8,4	1	1	1	1	1	1	1	1	1	0	1	-15,292459	273,920233	303,919758	0
15.01.2021	09:33:03	0	14,039162	3,276476	2,07075	0,4968	-0,028	88,492	0	1013,58	6,6	8,6	8,5	1	1	1	1	1	1	1	1	1	0	1	-4,933051	273,774418	313,600008	0
15.01.2021	09:33:04	0	14,039162	3,050548	2,02125	360	-0,027	88,499	0	1013,56	6,6	8,6	8,3	1	1	1	1	1	1	1	1	1	0	1	-6,131078	274,021032	313,551264	0
15.01.2021	09:33:05	0	14,158138	3,389478	2,10225	357,6132	-0,027	88,486	0	1013,44	6,6	8,6	8,4	1	1	1	1	1	1	1	1	1	0	1	-10,993658	273,87888	308,025843	0
15.01.2021	09:33:06	0	14,515168	4,858252	2,13375	355,7664	-0,026	88,479	0	1013,5	6,6	8,5	8,4	1	1	1	1	1	1	1	1	1	0	1	-4,016913	273,945383	315,312556	0
15.01.2021	09:33:07	0	14,277014	3,163513	2,14125	356,9004	-0,03	88,491	0	1013,5	6,6	8,7	8,4	1	1	1	1	1	1	1	1	1	0	1	-3,664553	273,892162	315,416838	0
15.01.2021	09:33:08	0	14,277114	4,293287	2,31975	360	-0,027	88,496	0	1013,54	6,6	8,6	8,6	1	1	1	1	1	1	1	1	1	0	1	-7,610994	273,992814	311,93969	0
15.01.2021	09:33:09	0	14,158237	3,728403	2,28225	359,4888	-0,03	88,49	0	1013,52	6,6	8,5	8,5	1	1	1	1	1	1	1	1	1	0	1	-6,060606	273,901022	313,062073	0
15.01.2021	09:33:10	0	14,039162	2,937548	2,33475	356,0436	-0,027	88,485	0	1013,74	6,6	8,6	8,4	1	1	1	1	1	1	1	1	1	0	1	-4,510218	273,960193	314,88831	0
15.01.2021	09:33:11	0	14,039064	4,067349	2,481	6,0588	-0,016	88,493	0	1013,62	6,6	8,7	8,5	1	1	1	1	1	1	1	1	1	0	1	-2,889359	273,877405	316,123268	0
15.01.2021	09:33:12	0	13,920089	2,485632	2,592	7,506	-0,029	88,495	0	1013,48	6,6	8,7	8,3	1	1	1	1	1	1	1	1	1	0	1	-5,285412	273,902499	313,844151	0
15.01.2021	09:33:13	0	14,039064	2,824548	2,64225	6,0372	-0,03	88,491	0	1013,48	6,6	8,7	8,5	1	1	1	1	1	1	1	1	1	0	1	-2,818887	273,985395	316,697189	0
15.01.2021	09:33:14	0	14,395989	2,937548	2,6655	2,2968	-0,024	88,493	0	1013,7	6,6	8,7	8,4	1	1	1	1	1	1	1	1	1	0	1	-4,157858	273,88921	314,909775	0
15.01.2021	09:33:15	0	14,277214	4,745241	2,6775	12,8556	-0,029	88,493	0	1013,52	6,6	8,5	8,5	1	1	1	1	1	1	1	1	1	0	1	-7,82241	273,980945	311,672908	0
15.01.2021	09:33:16	0	14,277214	2,824582	2,70525	5,7708	-0,025	88,497	0	1013,46	6,6	8,5	8,3	1	1	1	1	1	1	1	1	1	0	1	-12,684989	274,049291	307,129245	0
15.01.2021	09:33:17	0	14,158237	3,841408	2,7195	3,78	-0,019	88,496	0	1013,44	6,6	8,5	8,4	1	1	1	1	1	1	1	1	1	0	1	-7,188161	273,926147	312,051629	0
15.01.2021	09:33:18	0	14,158237	4,632287	2,71125	3,3984	-0,024	88,491	0	1013,54	6,6	8,5	8,4	1	1	1	1	1	1	1	1	1	0	1	-6,412967	273,881831	312,620282	0
15.01.2021	09:33:19	0	14,039064	3,389478	2,72175	7,4844	-0,024	88,495	0	1013,5	6,6	8,7	8,4	1	1	1	1	1	1	1	1	1	0	1	-9,44327	273,979462	310,045131	0
15.01.2021	09:33:20	0	14,158237	3,163513	2,763	4,0716	-0,028	88,498	0	1013,58	6,6	8,5	8,4	1	1	1	1	1	1	1	1	1	0	1	-4,439746	274,050779	315,381436	0
15.01.2021	09:33:21	0	14,515066	3,50244	2,679	12,0996	-0,029	88,484	0	1013,6	6,5	8,6	8,5	1	1	1	1	1	1	1	1	1	0	1	-10,007047	273,909886	309,156944	0
15.01.2021	09:33:22	0	14,039064	4,180306	2,418	3,3912	-0,026	88,493	0	1013,58	6,6	8,7	8,6	1	1	1	1	1	1	1	1	1	0	1	-7,82241	274,037387	311,936262	0
15.01.2021	09:33:23	0	14,634042	3,841408	2,22075	13,1508	-0,019	88,485	0	1013,52	6,6	8,6	8,4	1	1	1	1	1	1	1	1	1	0	1	-9,372798	273,918754	309,832529	0
15.01.2021	09:33:24	0	14,515168	3,615443	2,1195	2,412	-0,028	88,493	0	1013,52	6,6	8,5	8,4	1	1	1	1	1	1	1	1	1	0	1	-5,778717	273,949825	313,571463	0
15.01.2021	09:33:25	0	14,039162	2,93753	2,109	5,6988	-0,027	88,48	0	1013,48	6,6	8,6	8,5	1	1	1	1	1	1	1	1	1	0	1	-7,399577	274,062691	312,477215	0
15.01.2021	09:33:26	0	14,514965	3,615421	2,061	358,7292	-0,026	88,498	0	1013,58	6,7	8,7	8,5	1	1	1	1	1	1	1	1	1	0	1	-9,231853	273,948344	310,111423	0
15.01.2021	09:33:27	0	14,158039	3,050512	2,052	4,464	-0,025	88,507	0	1013,52	6,7	8,7	8,5	1	1	1	1	1	1	1	1	1	0	1	-3,453136	274,0359	316,298594	0
15.01.2021	09:33:28	0	14,277014	4,632314	2,1315	8,604	-0,03	88,494	0	1013,74	6,6	8,7	8,3	1	1	1	1	1	1	1	1	1	0	1	-4,580691	274,0359	315,171039	0
15.01.2021	09:33:29	0	14,395989	3,163494	2,22225	13,2588	-0,033	88,496	0	1013,52	6,7	8,7	8,5	1	1	1	1	1	1	1	1	1	0	1	-5,21494	274,04185	314,564563	0
15.01.2021	09:33:30	0	14,87189	3,163494	2,274	4,8312	-0,024	88,49	0	1013,66	6,6	8,7	8,5	1	1	1	1	1	1	1	1	1	0	1	-7,470049	274,006175	312,14297	0
15.01.2021	09:33:31	0	14,39609	4,519277	2,18025	11,196	-0,027	88,497	0	1013,52	6,6	8,6	8,5	1	1	1	1	1	1	1	1	1	0	1	-7,188161	273,995783	312,376371	0
15.01.2021	09:33:32	0	14,515066	4,519304	2,106	360	-0,025	88,494	0	1013,4	6,7	8,6	8,4	1	1	1	1	1	1	1	1	1	0	1	-6,272023	274,046314	313,528318	0
15.01.2021	09:33:33	0	14,753018	4,745241	2,04225	21,384	-0,023	88,49	0	1013,54	6,6	8,6	8,5	1	1	1	1	1	1	1	1	1	0	1	-7,892882	274,006175	311,720137	0
15.01.2021	09:33:34	0	14,277114	4,067349	2,04225	356,5044	-0,025	88,483	0	1013,48	6,6	8,6	8,5	1	1	1	1	1	1	1	1	1	0	1	-6,624383	274,04185	313,15512	0
15.01.2021	09:33:35	0	14,39609	4,745269	2,10975	2,2716	-0,019	88,486	0	1013,52	6,6	8,6	8,4	1	1	1	1	1	1	1	1	1	0	1	-8,80902	274,016574	310,852518	0
15.01.2021	09:33:36	0	14,515066	3,502461	2,1795	358,7256	-0,024	88,48	0	1013,6	6,6	8,6	8,4	1	1	1	1	1	1	1	1	1	0	1	-4,016913	273,883306	315,023211	0
15.01.2021	09:33:37	0	14,39609	3,276476	2,34075	356,1516	-0,025	88,49	0	1013,64	6,6	8,6	8,5	1	1	1	1	1	1	1	1	1	0	1	-6,553911	273,920233	312,658306	0
15.01.2021	09:33:38	0	14,277114	4,632259	2,38575	3,0456	-0,022	88,488	0	1013,5	6,6	8,6	8,5	1	1	1	1	1	1	1	1	1	0	1	-4,369274	273,99133	315,174487	0
15.01.2021	09:33:39	0	14,753018	3,841385	2,535	354,2364	-0,025	88,469	0	1013,48	6,6	8,6	8,5	1	1	1	1	1	1	1	1	1	0	1	-5,003524	273,902499	314,126039	0
15.01.2021	09:33:40	0	14,395989	3,389478	2,86275	0,8568	-0,006	88,513	0	1013,68	6,6	8,7	8,4	1	1	1	1	1	1	1	1	1	0	1	-6,553911	274,034413	313,190877	0
15.01.2021	09:33:41	0	14,277014	3,50244	3,0345	4,8492	-0,022	88,498	0	1013,58	6,6	8,7	8,5	1	1	1	1	1	1	1	1	1	0	1	-7,399577	273,896591	311,702455	0
15.01.2021	09:33:42	0	14,514965	3,163494	2,973	8,244	-0,029	88,492	0	1013,58	6,7	8,7	8,5	1	1	1	1	1	1	1	1	1	0	1	-8,45666	274,001721	311,135575	0
15.01.2021	09:33:43	0	14,990865	4,632259	2,95425	6,4332	-0,015	88,494	0	1013,6	6,6	8,7	8,5	1	1	1	1	1	1	1	1	1	0	1	-3,523608	273,918754	315,681718	0
15.01.2021	09:33:44	0	14,514965	3,276476	2,979	19,5192	-0,02	88,48	0	1013,6	6,6	8,7	8,5	1	1	1	1	1	1	1	1	1	0	1	-5,990134	273,932064	313,277238	0
15.01.2021	09:33:45	0	14,277114	2,485602	2,90625	9,7416	-0,03	88,466	0	1013,6	6,6	8,6	8,5	1	1	1	1	1	1	1	1	1	0	1	-8,45666	273,874454	310,542222	0
15.01.2021	09:33:46	0	14,514965	3,728426	2,78175	19,134	-0,028	88,494	0	1013,54	6,6	8,7	8,4	1	1	1	1	1	1	1	1	1	0	1	-4,157858	273,911364	315,013021	0
15.01.2021	09:33:47	0	14,277014	4,067349	2,733	12,4812	-0,019	88,474	0	1013,64	6,6	8,7	8,5	1	1	1	1	1	1	1	1	1	0	1	-7,188161	273,948344	312,155116	0
15.01.2021	09:33:48	0	14,396191	4,519277	2,69775	6,4296	-0,021	88,498	0	1013,6	6,6	8,5	8,5	1	1	1	1	1	1	1	1	1	0	1	-7,610994	274,046314	312,189346	0
15.01.2021	09:33:49	0	14,515066	4,519277	2,739	10,4328	-0,023	88,494	0	1013,56	6,6	8,6	8,5	1	1	1	1	1	1	1	1	1	0	1	-8,879493	274,015088	310,775113	0
15.01.2021	09:33:50	0	14,395989	3,163513	2,646	9,36	-0,023	88,482	0	1013,54	6,6	8,7	8,4	1	1	1	1	1	1	1	1	1	0	1	-4,651163	273,884782	314,395838	0
15.01.2021	09:33:51	0	14,514965	2,93753	2,664	358,7148	-0,026	88,483	0	1013,46	6,6	8,7	8,5	1	1	1	1	1	1	1	1	1	0	1	-6,624383	273,929105	312,629196	0
15.01.2021	09:33:52	0	14,395989	3,728403	2,53875	3,0276	-0,018	88,489	0	1013,6	6,5	8,7	8,5	1	1	1	1	1	1	1	1	1	0	1	-6,624383	274,037387	313,134289	0
15.01.2021	09:33:53	0	14,395989	4,51925	2,34075	11,196	-0,022	88,484	0	1013,52	6,6	8,7	8,6	1	1	1	1	1	1	1	1	1	0	1	-4,510218	273,87003	314,46805	0
15.01.2021	09:33:54	0	14,395989	4,971234	2,13975	2,6316	-0,022	88,493	0	1013,5	6,7	8,7	8,4	1	1	1	1	1	1	1	1	1	0	1	-7,117689	273,949825	312,232492	0
15.01.2021	09:33:55	0	14,753018	3,728403	2,139	352,0764	-0,021	88,479	0	1013,58	6,6	8,6	8,5	1	1	1	1	1	1	1	1	1	0	1	-6,412967	274,059713	313,449919	0
15.01.2021	09:33:56	0	14,515066	2,485602	2,2185	9,36	-0,023	88,469	0	1013,3	6,6	8,6	8,5	1	1	1	1	1	1	1	1	1	0	1	-2,184637	273,935023	317,09653	0
15.01.2021	09:33:57	0	14,277114	3,050512	2,21175	5,2236	-0,022	88,48	0	1013,62	6,6	8,6	8,5	1	1	1	1	1	1	1	1	1	0	1	-7,892882	273,933543	311,381387	0
15.01.2021	09:33:58	0	14,752915	3,05053	2,2635	7,866	-0,026	88,482	0	1013,44	6,6	8,7	8,4	1	1	1	1	1	1	1	1	1	0	1	-6,906272	273,927626	312,340412	0
15.01.2021	09:33:59	0	14,39609	3,615421	2,3355	7,8768	-0,026	88,489	0	1013,6	6,6	8,6	8,5	1	1	1	1	1	1	1	1	1	0	1	-8,668076	274,019546	311,007331	0
15.01.2021	09:34:00	0	14,277114	2,824565	2,5275	360	-0,027	88,485	0	1013,5	6,6	8,6	8,4	1	1	1	1	1	1	1	1	1	0	1	-5,919662	274,050779	313,901521	0
15.01.2021	09:34:01	0	14,277114	2,824565	2,5275	360	-0,027	88,485	0	1013,5	6,6	8,6	8,4	1	1	1	1	1	1	1	1	1	0	1	-5,919662	274,050779	313,901521	0
15.01.2021	09:34:02	0	14,514965	4,180331	2,56275	13,5432	-0,019	88,471	0	1013,6	6,6	8,7	8,5	1	1	1	1	1	1	1	1	1	0	1	-8,668076	274,049291	311,146158	0
15.01.2021	09:34:03	0	14,63394	3,841431	2,55	5,6808	-0,022	88,49	0	1013,56	6,6	8,7	8,3	1	1	1	1	1	1	1	1	1	0	1	-3,453136	274,010631	316,180673	0
15.01.2021	09:34:04	0	14,395989	2,93753	2,47125	7,5132	-0,023	88,472	0	1013,38	6,7	8,7	8,5	1	1	1	1	1	1	1	1	1	0	1	-6,060606	273,884782	312,986394	0
15.01.2021	09:34:05	0	14,39609	2,711566	2,568	1,9296	-0,027	88,467	0	1013,5	6,6	8,6	8,5	1	1	1	1	1	1	1	1	1	0	1	-5,990134	273,980945	313,505184	0
15.01.2021	09:34:06	0	14,39609	3,728403	2,6475	8,2656	-0,022	88,479	0	1013,58	6,6	8,6	8,5	1	1	1	1	1	1	1	1	1	0	1	-10,218464	274,047803	309,588823	0
15.01.2021	09:34:07	0	14,872098	5,084186	2,685	354,2616	-0,026	88,464	0	1013,42	6,7	8,5	8,5	1	1	1	1	1	1	1	1	1	0	1	-0,140944	273,951305	319,216141	0
15.01.2021	09:34:08	0	14,277214	2,598584	2,7375	349,884	-0,023	88,49	0	1013,5	6,6	8,5	8,5	1	1	1	1	1	1	1	1	1	0	1	-7,117689	273,884782	311,929312	0
15.01.2021	09:34:09	0	14,99097	3,954344	2,7645	358,6932	-0,02	88,489	0	1013,52	6,6	8,6	8,6	1	1	1	1	1	1	1	1	1	0	1	-7,258633	273,998751	312,319749	0
15.01.2021	09:34:10	0	14,277114	2,824548	2,81775	359,5068	-0,024	88,495	0	1013,6	6,6	8,6	8,5	1	1	1	1	1	1	1	1	1	0	1	-5,073996	274,209212	315,487403	0
15.01.2021	09:34:11	0	14,990865	3,841385	2,8635	4,8312	-0,031	88,486	0	1013,46	6,6	8,7	8,5	1	1	1	1	1	1	1	1	1	0	1	-3,312192	273,917276	315,886244	0
15.01.2021	09:34:12	0	14,752915	4,293313	2,922	355,0572	-0,03	88,491	0	1013,54	6,6	8,7	8,5	1	1	1	1	1	1	1	1	1	0	1	-4,087385	273,892162	314,994005	0
15.01.2021	09:34:13	0	14,515066	4,632259	2,8575	6,0444	-0,02	88,503	0	1013,58	6,6	8,6	8,5	1	1	1	1	1	1	1	1	1	0	1	-1,691332	274,058223	318,164602	0
15.01.2021	09:34:14	0	14,515066	2,146656	2,799	3,0168	-0,025	88,493	0	1013,56	6,6	8,6	8,5	1	1	1	1	1	1	1	1	1	0	1	-6,976744	273,986879	312,546252	0
15.01.2021	09:34:15	0	14,753018	3,163494	2,71875	8,2404	-0,026	88,498	0	1013,58	6,6	8,6	8,5	1	1	1	1	1	1	1	1	1	0	1	-13,03735	273,884782	306,00965	0
15.01.2021	09:34:16	0	14,753018	4,971205	2,7165	0,4824	-0,022	88,489	0	1013,6	6,7	8,6	8,5	1	1	1	1	1	1	1	1	1	0	1	-8,668076	273,976497	310,806491	0
15.01.2021	09:34:17	0	14,277114	3,954367	2,69625	8,9892	-0,023	88,499	0	1013,6	6,6	8,6	8,5	1	1	1	1	1	1	1	1	1	0	1	-8,033827	274,06865	311,870785	0
15.01.2021	09:34:18	0	14,753018	2,937548	2,61375	0,126	-0,017	88,486	0	1013,54	6,6	8,6	8,4	1	1	1	1	1	1	1	1	1	0	1	-4,721635	273,967602	314,711447	0
15.01.2021	09:34:19	0	14,39609	2,259638	2,67825	8,9928	-0,016	88,501	0	1013,6	6,6	8,6	8,5	1	1	1	1	1	1	1	1	1	0	1	-8,315715	274,034413	311,429073	0
15.01.2021	09:34:20	0	14,634042	5,423132	2,63775	10,4436	-0,021	88,499	0	1013,68	6,6	8,6	8,5	1	1	1	1	1	1	1	1	1	0	1	-5,708245	273,995783	313,856286	0
15.01.2021	09:34:21	0	14,87189	4,745241	2,46675	10,8072	-0,022	88,492	0	1013,52	6,6	8,7	8,5	1	1	1	1	1	1	1	1	1	0	1	-5,84919	274,04185	313,930314	0
15.01.2021	09:34:22	0	14,871994	4,519277	2,31	18,8316	-0,015	88,498	0	1013,62	6,7	8,6	8,5	1	1	1	1	1	1	1	1	1	0	1	-3,875969	273,949825	315,474212	0
15.01.2021	09:34:23	0	14,515066	4,858223	2,26425	16,4772	-0,021	88,495	0	1013,62	6,6	8,6	8,5	1	1	1	1	1	1	1	1	1	0	1	-4,862579	273,872979	314,129431	0
15.01.2021	09:34:24	0	14,514965	3,276476	2,33625	0	-0,023	88,491	0	1013,56	6,6	8,7	8,5	1	1	1	1	1	1	1	1	1	0	1	-0	273,898068	319,108914	0
15.01.2021	09:34:25	0	14,39609	3,841408	2,52075	14,6448	-0,026	88,491	0	1013,46	6,6	8,6	8,4	1	1	1	1	1	1	1	1	1	0	1	-9,231853	273,988363	310,298063	0
15.01.2021	09:34:26	0	14,39609	3,728403	2,445	16,0848	-0,015	88,495	0	1013,58	6,6	8,6	8,5	1	1	1	1	1	1	1	1	1	0	1	-9,795631	273,893638	309,29264	0
15.01.2021	09:34:27	0	14,753018	4,293313	2,2125	19,8864	-0,021	88,501	0	1013,68	6,6	8,6	8,5	1	1	1	1	1	1	1	1	1	0	1	-5,637773	273,985395	313,878302	0
15.01.2021	09:34:28	0	14,634042	2,37262	2,03175	13,1688	-0,018	88,501	0	1013,62	6,6	8,6	8,5	1	1	1	1	1	1	1	1	1	0	1	-8,668076	273,898068	310,440838	0
15.01.2021	09:34:29	0	14,753018	3,841385	1,95	15,39	-0,018	88,506	0	1013,58	6,6	8,6	8,5	1	1	1	1	1	1	1	1	1	0	1	-1,338971	274,022518	318,350307	0
15.01.2021	09:34:30	0	14,753018	3,276476	1,923	360	-0,018	88,5	0	1013,32	6,6	8,6	8,5	1	1	1	1	1	1	1	1	1	0	1	-7,892882	274,138803	312,339398	0
15.01.2021	09:34:31	0	14,634042	3,954367	1,9095	8,6004	-0,022	88,484	0	1013,6	6,6	8,6	8,5	1	1	1	1	1	1	1	1	1	0	1	-8,104299	273,903976	311,032149	0
15.01.2021	09:34:32	0	14,634042	3,163494	1,89675	4,8348	-0,017	88,502	0	1013,64	6,6	8,6	8,5	1	1	1	1	1	1	1	1	1	0	1	-6,20155	274,001721	313,390684	0
15.01.2021	09:34:33	0	14,515066	3,841385	1,923	12,834	-0,017	88,489	0	1013,42	6,6	8,6	8,5	1	1	1	1	1	1	1	1	1	0	1	-6,060606	273,896591	313,041426	0
15.01.2021	09:34:34	0	14,515066	4,632259	1,89075	12,8412	-0,016	88,49	0	1013,56	6,6	8,6	8,5	1	1	1	1	1	1	1	1	1	0	1	-14,799154	273,997267	304,772302	0
15.01.2021	09:34:35	0	14,515066	4,519277	1,8015	6,1596	-0,02	88,491	0	1013,56	6,6	8,6	8,5	1	1	1	1	1	1	1	1	1	0	1	-4,510218	274,052268	315,317913	0
15.01.2021	09:34:36	0	14,753018	4,519277	1,758	5,6736	-0,015	88,473	0	1013,56	6,6	8,6	8,5	1	1	1	1	1	1	1	1	1	0	1	-8,315715	273,986879	311,207281	0
15.01.2021	09:34:37	0	14,515066	4,067349	1,78875	1,566	-0,017	88,488	0	1013,54	6,6	8,6	8,5	1	1	1	1	1	1	1	1	1	0	1	-10,359408	274,046314	309,440932	0
15.01.2021	09:34:38	0	14,753018	2,93753	1,797	8,2656	-0,022	88,497	0	1013,56	6,6	8,6	8,5	1	1	1	1	1	1	1	1	1	0	1	-8,668076	273,909886	310,495915	0
15.01.2021	09:34:39	0	14,99097	4,519277	1,779	5,202	-0,013	88,491	0	1013,7	6,6	8,6	8,5	1	1	1	1	1	1	1	1	1	0	1	-5,073996	273,972049	314,379826	0
15.01.2021	09:34:40	0	14,753018	3,389458	1,8165	13,536	-0,02	88,505	0	1013,58	6,6	8,6	8,5	1	1	1	1	1	1	1	1	1	0	1	-4,369274	273,874454	314,629607	0
15.01.2021	09:34:41	0	14,871994	4,745269	1,7445	17,7084	-0,014	88,502	0	1013,54	6,6	8,6	8,4	1	1	1	1	1	1	1	1	1	0	1	-7,963354	274,013602	311,684318	0
15.01.2021	09:34:42	0	14,753018	3,728426	1,6695	15,0228	-0,021	88,497	0	1013,56	6,6	8,6	8,4	1	1	1	1	1	1	1	1	1	0	1	-9,231853	274,013602	310,415819	0
15.01.2021	09:34:43	0	14,634042	4,632259	1,65	16,4736	-0,017	88,494	0	1013,7	6,6	8,6	8,5	1	1	1	1	1	1	1	1	1	0	1	-9,725159	274,062691	310,151633	0
15.01.2021	09:34:44	0	14,634042	3,276476	1,69725	5,6772	-0,024	88,498	0	1013,52	6,6	8,6	8,5	1	1	1	1	1	1	1	1	1	0	1	-6,412967	273,972049	313,040855	0
15.01.2021	09:34:45	0	14,753018	4,180356	1,76625	13,158	-0,017	88,494	0	1013,58	6,6	8,6	8,4	1	1	1	1	1	1	1	1	1	0	1	-7,963354	273,881831	311,069895	0
15.01.2021	09:34:46	0	14,871994	3,163494	1,791	11,7108	-0,023	88,476	0	1013,56	6,6	8,6	8,5	1	1	1	1	1	1	1	1	1	0	1	-9,44327	273,91432	309,741386	0
15.01.2021	09:34:47	0	14,634042	2,485602	1,81125	4,0824	-0,016	88,494	0	1013,56	6,6	8,6	8,5	1	1	1	1	1	1	1	1	1	0	1	-9,44327	274,001721	310,148965	0
15.01.2021	09:34:48	0	14,752915	4,406295	1,78125	6,0444	-0,017	88,486	0	1013,56	6,6	8,7	8,5	1	1	1	1	1	1	1	1	1	0	1	-4,087385	273,87003	314,890883	0
15.01.2021	09:34:49	0	14,871994	3,050512	1,6965	0,4896	-0,019	88,464	0	1013,44	6,6	8,6	8,5	1	1	1	1	1	1	1	1	1	0	1	-9,584214	273,979462	309,904186	0
15.01.2021	09:34:50	0	14,634042	3,276476	1,71675	8,2548	-0,017	88,482	0	1013,6	6,6	8,6	8,5	1	1	1	1	1	1	1	1	1	0	1	-8,738548	273,868555	310,232851	0
15.01.2021	09:34:51	0	14,99097	4,406295	1,82325	360	-0,016	88,474	0	1013,6	6,7	8,6	8,5	1	1	1	1	1	1	1	1	1	0	1	-7,399577	273,952786	311,964414	0
15.01.2021	09:34:52	0	14,871994	4,406295	1,90725	16,8696	-0,019	88,497	0	1013,6	6,6	8,6	8,5	1	1	1	1	1	1	1	1	1	0	1	-4,933051	273,883306	314,107073	0
15.01.2021	09:34:53	0	14,99097	4,406295	1,947	7,1136	-0,018	88,498	0	1013,58	6,6	8,6	8,5	1	1	1	1	1	1	1	1	1	0	1	-8,45666	274,009146	311,170219	0
15.01.2021	09:34:54	0	14,39609	4,180331	1,92075	8,3376	-0,02	88,477	0	1013,56	6,6	8,6	8,5	1	1	1	1	1	1	1	1	1	0	1	-9,936575	273,87888	309,082925	0
15.01.2021	09:34:55	0	14,753018	4,519304	1,8315	13,9032	-0,024	88,481	0	1013,48	6,6	8,6	8,4	1	1	1	1	1	1	1	1	1	0	1	-8,45666	274,049291	311,357575	0
15.01.2021	09:34:56	0	14,871994	3,50244	1,72125	3,7692	-0,014	88,486	0	1013,64	6,6	8,6	8,5	1	1	1	1	1	1	1	1	1	0	1	-10,500352	273,998751	309,078029	0
15.01.2021	09:34:57	0	14,515066	3,615421	1,71975	7,4916	-0,019	88,48	0	1013,52	6,6	8,6	8,5	1	1	1	1	1	1	1	1	1	0	1	-7,188161	273,887734	311,872594	0
15.01.2021	09:34:58	0	14,39609	2,824548	1,7295	12,0816	-0,018	88,488	0	1013,6	6,6	8,6	8,5	1	1	1	1	1	1	1	1	1	0	1	-3,453136	273,940942	315,855629	0
15.01.2021	09:34:59	0	14,634042	2,37262	1,7295	21,762	-0,018	88,477	0	1013,52	6,7	8,6	8,5	1	1	1	1	1	1	1	1	1	0	1	-7,047216	274,058223	312,808717	0
15.01.2021	09:35:00	0	14,39609	4,067349	1,78575	1,9188	-0,017	88,485	0	1013,52	6,6	8,6	8,5	1	1	1	1	1	1	1	1	1	0	1	-7,751938	274,322103	313,33768	0
15.01.2021	09:35:01	0	14,39609	4,067349	1,78575	1,9188	-0,017	88,485	0	1013,52	6,6	8,6	8,5	1	1	1	1	1	1	1	1	1	0	1	-4,298802	273,896591	314,80323	0
15.01.2021	09:35:02	0	15,109946	4,519277	1,80825	7,5024	-0,019	88,481	0	1013,6	6,6	8,6	8,5	1	1	1	1	1	1	1	1	1	0	1	-3,664553	274,012117	315,976188	0
15.01.2021	09:35:03	0	14,63394	2,711566	1,8045	8,604	-0,017	88,487	0	1013,56	6,6	8,7	8,5	1	1	1	1	1	1	1	1	1	0	1	-9,302326	274,032925	310,435522	0
15.01.2021	09:35:04	0	14,99097	4,293313	1,779	10,8216	-0,015	88,482	0	1013,62	6,6	8,6	8,5	1	1	1	1	1	1	1	1	1	0	1	-8,033827	274,025491	311,669325	0
15.01.2021	09:35:05	0	14,634042	4,745241	1,707	8,9856	-0,02	88,479	0	1013,6	6,6	8,6	8,5	1	1	1	1	1	1	1	1	1	0	1	-7,540521	273,937982	311,754443	0
15.01.2021	09:35:06	0	14,753018	4,406295	1,617	12,0888	-0,02	88,47	0	1013,52	6,6	8,6	8,5	1	1	1	1	1	1	1	1	1	0	1	-7,047216	273,88921	312,020416	0
15.01.2021	09:35:07	0	14,39609	3,50244	1,64175	6,066	-0,019	88,475	0	1013,58	6,7	8,6	8,5	1	1	1	1	1	1	1	1	1	0	1	-11,205074	273,969084	308,23492	0
15.01.2021	09:35:08	0	14,515066	3,389458	1,7355	26,892	-0,017	88,469	0	1013,64	6,7	8,6	8,5	1	1	1	1	1	1	1	1	1	0	1	-9,725159	274,056734	310,123823	0
15.01.2021	09:35:09	0	15,109946	3,050512	1,67025	4,0824	-0,017	88,474	0	1013,56	6,6	8,6	8,5	1	1	1	1	1	1	1	1	1	0	1	-7,751938	273,951305	311,605147	0
15.01.2021	09:35:10	0	14,634042	3,050512	1,6695	12,852	-0,014	88,474	0	1013,68	6,6	8,6	8,5	1	1	1	1	1	1	1	1	1	0	1	-4,792107	273,903976	314,34434	0
15.01.2021	09:35:11	0	14,634042	4,745241	1,6875	2,6424	-0,021	88,483	0	1013,46	6,6	8,6	8,5	1	1	1	1	1	1	1	1	1	0	1	-5,919662	274,050779	313,901521	0
15.01.2021	09:35:12	0	14,515066	4,519304	1,77225	3,3984	-0,017	88,483	0	1013,54	6,6	8,6	8,4	1	1	1	1	1	1	1	1	1	0	1	-3,805497	273,99133	315,738264	0
15.01.2021	09:35:13	0	14,753018	4,406295	1,85175	354,6432	-0,014	88,483	0	1013,5	6,6	8,6	8,5	1	1	1	1	1	1	1	1	1	0	1	-3,735025	273,874454	315,263857	0
15.01.2021	09:35:14	0	14,753018	4,745241	1,97325	4,8492	-0,013	88,488	0	1013,54	6,6	8,6	8,5	1	1	1	1	1	1	1	1	1	0	1	-10,288936	273,949825	309,061245	0
15.01.2021	09:35:15	0	14,753018	3,050512	2,058	5,6844	-0,018	88,479	0	1013,58	6,7	8,6	8,5	1	1	1	1	1	1	1	1	1	0	1	-5,637773	274,053757	314,197308	0
15.01.2021	09:35:16	0	14,634042	2,93753	2,01225	360	-0,019	88,476	0	1013,66	6,6	8,6	8,5	1	1	1	1	1	1	1	1	1	0	1	-8,245243	274,064181	311,638503	0
15.01.2021	09:35:17	0	14,515066	3,50244	2,127	9,756	-0,013	88,49	0	1013,62	6,6	8,6	8,5	1	1	1	1	1	1	1	1	1	0	1	-8,315715	274,061202	311,554123	0
15.01.2021	09:35:18	0	14,753018	2,824548	2,29125	12,8592	-0,017	88,479	0	1013,56	6,6	8,6	8,5	1	1	1	1	1	1	1	1	1	0	1	-7,681466	273,949825	311,668715	0
15.01.2021	09:35:19	0	14,634042	4,745241	2,3445	7,1064	-0,017	88,454	0	1013,52	6,6	8,6	8,5	1	1	1	1	1	1	1	1	1	0	1	-6,412967	274,049291	313,401268	0
15.01.2021	09:35:20	0	14,99097	2,93753	2,2755	13,9176	-0,017	88,476	0	1013,62	6,6	8,6	8,5	1	1	1	1	1	1	1	1	1	0	1	-5,567301	273,932064	313,700071	0
15.01.2021	09:35:21	0	14,753018	3,615421	2,052	6,4224	-0,013	88,483	0	1013,82	6,6	8,6	8,5	1	1	1	1	1	1	1	1	1	0	1	-7,117689	274,028464	312,599339	0
15.01.2021	09:35:22	0	14,634042	3,954367	1,944	6,8148	-0,023	88,485	0	1013,54	6,6	8,6	8,5	1	1	1	1	1	1	1	1	1	0	1	-4,369274	274,049291	315,44496	0
15.01.2021	09:35:23	0	14,753018	4,180356	1,9575	8,262	-0,013	88,49	0	1013,58	6,6	8,6	8,4	1	1	1	1	1	1	1	1	1	0	1	-6,624383	273,992814	312,9263	0
15.01.2021	09:35:24	0	14,634042	2,598584	1,9005	0	-0,022	88,48	0	1013,58	6,6	8,6	8,5	1	1	1	1	1	1	1	1	1	0	1	-6,412967	273,901022	312,709712	0
15.01.2021	09:35:25	0	14,872098	4,632259	1,8945	3,3912	-0,02	88,483	0	1013,66	6,6	8,5	8,5	1	1	1	1	1	1	1	1	1	0	1	-5,003524	273,992814	314,54716	0
15.01.2021	09:35:26	0	14,753018	4,067374	1,839	5,6808	-0,015	88,486	0	1013,54	6,6	8,6	8,4	1	1	1	1	1	1	1	1	1	0	1	-7,117689	274,053757	312,717393	0
15.01.2021	09:35:27	0	14,753018	4,406295	1,7805	11,178	-0,018	88,492	0	1013,52	6,6	8,6	8,5	1	1	1	1	1	1	1	1	1	0	1	-7,047216	274,043338	312,739232	0
15.01.2021	09:35:28	0	14,753018	2,93753	1,6605	3,024	-0,015	88,49	0	1013,64	6,6	8,6	8,5	1	1	1	1	1	1	1	1	1	0	1	-7,892882	273,998751	311,6855	0
15.01.2021	09:35:29	0	14,871994	2,711566	1,566	16,0812	-0,014	88,477	0	1013,6	6,6	8,6	8,5	1	1	1	1	1	1	1	1	1	0	1	-7,399577	273,899545	311,716219	0
15.01.2021	09:35:30	0	14,634145	3,728403	1,51575	5,2236	-0,016	88,49	0	1013,64	6,6	8,5	8,5	1	1	1	1	1	1	1	1	1	0	1	-3,664553	273,917276	315,533883	0
15.01.2021	09:35:31	0	15,109946	4,067349	1,50975	14,3028	-0,018	88,495	0	1013,44	6,6	8,6	8,5	1	1	1	1	1	1	1	1	1	0	1	-8,174771	273,91432	311,009885	0
15.01.2021	09:35:32	0	14,515066	2,711566	1,49025	7,8696	-0,017	88,486	0	1013,66	6,6	8,6	8,5	1	1	1	1	1	1	1	1	1	0	1	-9,44327	273,939462	309,858594	0
15.01.2021	09:35:33	0	14,753018	3,163494	1,61475	8,6076	-0,015	88,488	0	1013,58	6,6	8,6	8,5	1	1	1	1	1	1	1	1	1	0	1	-15,081043	273,881831	303,952206	0
15.01.2021	09:35:34	0	15,228922	5,084186	1,71525	360	-0,016	88,495	0	1013,72	6,6	8,6	8,5	1	1	1	1	1	1	1	1	1	0	1	-4,651163	273,946863	314,68521	0
15.01.2021	09:35:35	0	14,515066	2,93753	1,86825	6,4332	-0,009	88,495	0	1013,72	6,6	8,6	8,5	1	1	1	1	1	1	1	1	1	0	1	-5,990134	273,881831	313,043115	0
15.01.2021	09:35:36	0	14,753018	2,824548	1,9005	360	-0,018	88,491	0	1013,62	6,7	8,6	8,5	1	1	1	1	1	1	1	1	1	0	1	-9,231853	274,144785	311,028381	0
15.01.2021	09:35:37	0	15,228922	3,615421	1,95675	357,66	-0,02	88,496	0	1013,54	6,6	8,6	8,5	1	1	1	1	1	1	1	1	1	0	1	-6,8358	274,055245	313,006231	0
15.01.2021	09:35:38	0	15,228922	3,841385	2,07	358,776	-0,018	88,481	0	1013,52	6,6	8,6	8,5	1	1	1	1	1	1	1	1	1	0	1	-6,906272	274,015088	312,748333	0
15.01.2021	09:35:39	0	15,228922	4,293313	2,352	357,2388	-0,011	88,504	0	1013,7	6,6	8,6	8,5	1	1	1	1	1	1	1	1	1	0	1	-8,527132	274,010631	311,106677	0
15.01.2021	09:35:40	0	14,871994	4,632259	2,74425	350,2476	-0,017	88,508	0	1013,5	6,6	8,6	8,5	1	1	1	1	1	1	1	1	1	0	1	-7,751938	273,872979	311,240072	0
15.01.2021	09:35:41	0	14,99097	4,632259	2,955	354,6576	-0,019	88,495	0	1013,54	6,6	8,6	8,5	1	1	1	1	1	1	1	1	1	0	1	-6,976744	273,912842	312,201023	0
15.01.2021	09:35:42	0	14,871994	2,598584	3,1395	17,2296	-0,018	88,489	0	1013,48	6,6	8,6	8,5	1	1	1	1	1	1	1	1	1	0	1	-3,664553	274,04185	316,114951	0
15.01.2021	09:35:43	0	15,228922	4,519277	3,2745	356,22	-0,02	88,497	0	1013,58	6,7	8,6	8,5	1	1	1	1	1	1	1	1	1	0	1	-9,936575	274,021032	309,745767	0
15.01.2021	09:35:44	0	14,871994	2,824548	3,483	20,9952	-0,017	88,498	0	1013,58	6,6	8,6	8,5	1	1	1	1	1	1	1	1	1	0	1	-8,315715	274,043338	311,470733	0
15.01.2021	09:35:45	0	14,753018	4,293313	3,117	19,1376	-0,017	88,506	0	1013,56	6,7	8,6	8,5	1	1	1	1	1	1	1	1	1	0	1	-7,258633	273,972049	312,195189	0
15.01.2021	09:35:46	0	14,871994	4,293313	2,68575	26,8884	-0,02	88,495	0	1013,52	6,6	8,6	8,5	1	1	1	1	1	1	1	1	1	0	1	-8,597604	274,049291	311,216631	0
15.01.2021	09:35:47	0	14,99097	4,293313	2,49	26,5284	-0,017	88,502	0	1013,54	6,6	8,6	8,5	1	1	1	1	1	1	1	1	1	0	1	-4,016913	273,973531	315,443823	0
15.01.2021	09:35:48	0	14,871994	4,632259	2,33475	27,972	-0,015	88,508	0	1013,46	6,7	8,6	8,5	1	1	1	1	1	1	1	1	1	0	1	-9,231853	274,062691	310,644938	0
15.01.2021	09:35:49	0	14,871994	3,389458	2,18625	22,0788	-0,013	88,52	0	1013,6	6,6	8,6	8,5	1	1	1	1	1	1	1	1	1	0	1	-6,553911	274,026978	313,156178	0
15.01.2021	09:35:50	0	14,99097	3,954367	2,076	21,3948	-0,017	88,5	0	1013,46	6,6	8,6	8,5	1	1	1	1	1	1	1	1	1	0	1	-6,20155	273,949825	313,14863	0
15.01.2021	09:35:51	0	14,871994	2,598584	2,07075	356,2704	-0,016	88,519	0	1013,48	6,7	8,6	8,5	1	1	1	1	1	1	1	1	1	0	1	-2,959831	273,896591	316,142201	0
15.01.2021	09:35:52	0	14,99097	4,519277	2,1	14,6556	-0,012	88,526	0	1013,64	6,6	8,6	8,5	1	1	1	1	1	1	1	1	1	0	1	-7,681466	274,000236	311,903842	0
15.01.2021	09:35:53	0	14,871994	4,293313	1,94475	5,2236	-0,009	88,518	0	1013,64	6,6	8,6	8,5	1	1	1	1	1	1	1	1	1	0	1	-7,751938	273,896591	311,350094	0
15.01.2021	09:35:54	0	14,871994	4,406295	1,8255	19,1232	-0,014	88,527	0	1013,56	6,6	8,6	8,5	1	1	1	1	1	1	1	1	1	0	1	-6,765328	274,022518	312,92395	0
15.01.2021	09:35:55	0	14,99097	3,389458	1,863	13,9248	-0,018	88,523	0	1013,6	6,6	8,6	8,5	1	1	1	1	1	1	1	1	1	0	1	-8,386187	274,053757	311,448894	0
15.01.2021	09:35:56	0	14,753018	3,389458	1,848	26,5284	-0,012	88,516	0	1013,62	6,6	8,6	8,5	1	1	1	1	1	1	1	1	1	0	1	-5,990134	273,992814	313,56055	0
15.01.2021	09:35:57	0	14,99097	4,519277	1,86675	29,9376	-0,01	88,509	0	1013,4	6,6	8,6	8,5	1	1	1	1	1	1	1	1	1	0	1	-4,087385	273,884782	314,959615	0
15.01.2021	09:35:58	0	14,99097	4,406295	1,83825	18,072	-0,013	88,517	0	1013,56	6,6	8,6	8,5	1	1	1	1	1	1	1	1	1	0	1	-7,82241	273,939462	311,479454	0
15.01.2021	09:35:59	0	14,871994	4,406295	1,92225	18,0936	-0,009	88,528	0	1013,56	6,6	8,6	8,5	1	1	1	1	1	1	1	1	1	0	1	-6,060606	274,058223	313,795327	0
15.01.2021	09:36:00	0	14,871994	3,050512	1,80675	11,79	-0,008	88,531	0	1013,62	6,7	8,6	8,5	1	1	1	1	1	1	1	1	1	0	1	-8,80902	273,886258	310,244857	0
15.01.2021	09:36:01	0	14,871994	3,050512	1,80675	11,79	-0,008	88,531	0	1013,62	6,7	8,6	8,5	1	1	1	1	1	1	1	1	1	0	1	-8,80902	273,886258	310,244857	0
15.01.2021	09:36:02	0	14,99097	4,858223	1,75275	10,8288	-0,017	88,517	0	1013,52	6,6	8,6	8,5	1	1	1	1	1	1	1	1	1	0	1	-6,272023	273,939462	313,029842	0
15.01.2021	09:36:03	0	15,228922	4,745241	1,71075	346,6008	-0,011	88,526	0	1013,52	6,6	8,6	8,5	1	1	1	1	1	1	1	1	1	0	1	-8,527132	274,058223	311,328802	0
15.01.2021	09:36:04	0	14,99097	3,841385	1,8585	2,286	-0,01	88,531	0	1013,46	6,6	8,6	8,5	1	1	1	1	1	1	1	1	1	0	1	-5,637773	273,942422	313,677893	0
15.01.2021	09:36:05	0	15,347898	3,728403	2,1495	356,6268	-0,017	88,527	0	1013,58	6,6	8,6	8,5	1	1	1	1	1	1	1	1	1	0	1	-9,795631	274,010631	309,838179	0
15.01.2021	09:36:06	0	15,109946	4,406295	2,36325	352,5624	-0,012	88,524	0	1013,54	6,6	8,6	8,5	1	1	1	1	1	1	1	1	1	0	1	-7,399577	273,887734	311,661177	0
15.01.2021	09:36:07	0	15,228922	3,841385	2,4615	350,3808	-0,015	88,513	0	1013,54	6,7	8,6	8,5	1	1	1	1	1	1	1	1	1	0	1	-4,651163	273,986879	314,871833	0
15.01.2021	09:36:08	0	15,228922	4,632259	2,4795	355,8456	-0,011	88,513	0	1013,52	6,6	8,6	8,5	1	1	1	1	1	1	1	1	1	0	1	-6,272023	273,868555	312,699376	0
15.01.2021	09:36:09	0	15,109946	4,067349	2,53875	358,0452	-0,011	88,51	0	1013,56	6,6	8,6	8,5	1	1	1	1	1	1	1	1	1	0	1	-6,624383	273,977979	312,8571	0
15.01.2021	09:36:10	0	14,871994	3,050512	2,46825	353,5956	-0,015	88,527	0	1013,6	6,6	8,6	8,5	1	1	1	1	1	1	1	1	1	0	1	-6,412967	274,056734	313,436015	0
15.01.2021	09:36:11	0	15,228922	4,406295	2,5155	350,6976	-0,013	88,527	0	1013,56	6,6	8,6	8,5	1	1	1	1	1	1	1	1	1	0	1	-11,557435	273,986879	307,965561	0
15.01.2021	09:36:12	0	15,109946	4,180331	2,613	359,262	-0,013	88,506	0	1013,54	6,6	8,6	8,5	1	1	1	1	1	1	1	1	1	0	1	-8,738548	274,061202	311,13129	0
15.01.2021	09:36:13	0	14,871994	3,728403	2,691	354,9924	-0,016	88,525	0	1013,6	6,6	8,6	8,5	1	1	1	1	1	1	1	1	1	0	1	-5,567301	273,906931	313,582917	0
15.01.2021	09:36:14	0	15,347898	3,954367	2,70675	0,1116	-0,008	88,524	0	1013,56	6,6	8,6	8,5	1	1	1	1	1	1	1	1	1	0	1	-3,312192	273,902499	315,817371	0
15.01.2021	09:36:15	0	14,99097	4,519277	2,658	1,9116	-0,012	88,529	0	1013,52	6,6	8,6	8,5	1	1	1	1	1	1	1	1	1	0	1	-9,936575	274,010631	309,697234	0
15.01.2021	09:36:16	0	15,109946	4,519277	2,6205	4,0716	-0,013	88,525	0	1013,48	6,6	8,6	8,5	1	1	1	1	1	1	1	1	1	0	1	-3,312192	273,874454	315,68669	0
15.01.2021	09:36:17	0	15,466874	5,31015	2,68425	5,6952	-0,007	88,531	0	1013,6	6,6	8,6	8,5	1	1	1	1	1	1	1	1	1	0	1	-8,174771	273,952786	311,18922	0
15.01.2021	09:36:18	0	15,58585	3,615421	2,76	4,0896	-0,015	88,519	0	1013,44	6,6	8,6	8,5	1	1	1	1	1	1	1	1	1	0	1	-7,610994	274,046314	312,189346	0
15.01.2021	09:36:19	0	15,466874	3,615421	2,727	2,6532	-0,018	88,518	0	1013,62	6,6	8,6	8,5	1	1	1	1	1	1	1	1	1	0	1	-5,919662	274,001721	313,672573	0
15.01.2021	09:36:20	0	14,99097	3,728403	2,751	4,8348	-0,012	88,534	0	1013,64	6,6	8,6	8,5	1	1	1	1	1	1	1	1	1	0	1	-9,302326	274,044826	310,491068	0
15.01.2021	09:36:21	0	15,109946	2,93753	2,6925	4,0788	-0,013	88,535	0	1013,5	6,7	8,6	8,5	1	1	1	1	1	1	1	1	1	0	1	-5,144468	273,921711	314,074642	0
15.01.2021	09:36:22	0	14,99097	4,180331	2,6385	2,6388	-0,008	88,55	0	1013,66	6,7	8,6	8,5	1	1	1	1	1	1	1	1	1	0	1	-5,144468	273,997267	314,426988	0
15.01.2021	09:36:23	0	15,466874	2,93753	2,544	358,7868	-0,01	88,548	0	1013,62	6,6	8,6	8,5	1	1	1	1	1	1	1	1	1	0	1	-3,59408	273,895115	315,50107	0
15.01.2021	09:36:24	0	15,109946	2,824548	2,43975	2,6388	-0,01	88,522	0	1013,6	6,7	8,6	8,5	1	1	1	1	1	1	1	1	1	0	1	-7,329105	273,92319	311,896897	0
15.01.2021	09:36:25	0	15,466874	4,406295	2,28	8,6076	-0,01	88,543	0	1013,6	6,6	8,6	8,5	1	1	1	1	1	1	1	1	1	0	1	-7,540521	274,024005	312,155693	0
15.01.2021	09:36:26	0	15,228922	3,50244	2,13975	19,512	-0,014	88,523	0	1013,62	6,7	8,6	8,5	1	1	1	1	1	1	1	1	1	0	1	-7,892882	274,038875	311,872733	0
15.01.2021	09:36:27	0	15,58585	3,50244	2,08125	11,7108	-0,012	88,535	0	1013,52	6,6	8,6	8,5	1	1	1	1	1	1	1	1	1	0	1	-6,624383	273,929105	312,629196	0
15.01.2021	09:36:28	0	15,228922	3,615421	2,04675	3,402	-0,008	88,538	0	1013,6	6,6	8,6	8,5	1	1	1	1	1	1	1	1	1	0	1	-6,906272	274,038875	312,859343	0
15.01.2021	09:36:29	0	15,347898	2,711566	2,0985	6,066	-0,011	88,54	0	1013,68	6,7	8,6	8,5	1	1	1	1	1	1	1	1	1	0	1	-7,470049	273,952786	311,893942	0
15.01.2021	09:36:30	0	15,109946	3,276476	2,13225	0,1152	-0,009	88,539	0	1013,5	6,6	8,6	8,5	1	1	1	1	1	1	1	1	1	0	1	-3,100775	273,893638	315,987495	0
15.01.2021	09:36:31	0	15,347898	3,050512	2,10825	352,4976	-0,01	88,523	0	1013,56	6,6	8,6	8,5	1	1	1	1	1	1	1	1	1	0	1	-6,906272	273,994298	312,651335	0
15.01.2021	09:36:32	0	15,466874	4,406295	2,034	2,6316	-0,009	88,532	0	1013,58	6,6	8,6	8,5	1	1	1	1	1	1	1	1	1	0	1	-1,761804	273,887734	317,29895	0
15.01.2021	09:36:33	0	15,347898	3,841385	1,9965	355,446	-0,011	88,524	0	1013,5	6,6	8,6	8,5	1	1	1	1	1	1	1	1	1	0	1	-6,906272	273,942422	312,409394	0
15.01.2021	09:36:34	0	14,99097	2,93753	1,875	356,9508	-0,008	88,548	0	1013,62	6,7	8,6	8,5	1	1	1	1	1	1	1	1	1	0	1	-3,59408	274,07014	316,317488	0
15.01.2021	09:36:35	0	15,466874	4,632259	1,8	352,9224	-0,01	88,543	0	1013,58	6,6	8,6	8,5	1	1	1	1	1	1	1	1	1	0	1	-6,20155	274,009146	313,425328	0
15.01.2021	09:36:36	0	15,228922	3,728403	1,851	360	-0,016	88,517	0	1013,56	6,6	8,6	8,5	1	1	1	1	1	1	1	1	1	0	1	-0,563777	273,977979	318,917706	0
15.01.2021	09:36:37	0	15,58585	4,519277	1,9815	350,7084	-0,008	88,513	0	1013,64	6,7	8,6	8,5	1	1	1	1	1	1	1	1	1	0	1	-5,003524	274,059713	314,859362	0
15.01.2021	09:36:38	0	15,466874	5,084186	2,14875	358,7724	-0,013	88,537	0	1013,62	6,7	8,6	8,5	1	1	1	1	1	1	1	1	1	0	1	-11,06413	273,942422	308,251536	0
15.01.2021	09:36:39	0	15,109946	2,598584	2,2305	357,6348	-0,014	88,532	0	1013,56	6,7	8,6	8,5	1	1	1	1	1	1	1	1	1	0	1	-8,45666	274,07014	311,454909	0
15.01.2021	09:36:40	0	15,347898	3,389458	2,2845	357,1416	-0,013	88,517	0	1013,5	6,6	8,6	8,5	1	1	1	1	1	1	1	1	1	0	1	-6,765328	274,021032	312,917014	0
15.01.2021	09:36:41	0	15,347898	4,293313	2,25075	357,3144	-0,009	88,544	0	1013,42	6,6	8,6	8,5	1	1	1	1	1	1	1	1	1	0	1	-4,651163	273,890686	314,423348	0
15.01.2021	09:36:42	0	15,58585	3,954367	2,196	360	-0,011	88,535	0	1013,5	6,6	8,6	8,5	1	1	1	1	1	1	1	1	1	0	1	-2,677942	273,967602	316,755139	0
15.01.2021	09:36:43	0	14,99097	2,485602	2,11275	0,8532	-0,005	88,537	0	1013,52	6,6	8,6	8,5	1	1	1	1	1	1	1	1	1	0	1	-6,624383	273,905453	312,518949	0
15.01.2021	09:36:44	0	15,347898	2,824548	1,9605	351,0072	-0,009	88,537	0	1013,56	6,7	8,6	8,5	1	1	1	1	1	1	1	1	1	0	1	-6,906272	273,995783	312,658259	0
15.01.2021	09:36:45	0	15,466874	2,93753	1,932	352,89	-0,014	88,517	0	1013,6	6,6	8,6	8,5	1	1	1	1	1	1	1	1	1	0	1	-9,513742	274,010631	310,120067	0
15.01.2021	09:36:46	0	15,466874	3,276476	1,962	352,5264	-0,006	88,52	0	1013,68	6,6	8,6	8,5	1	1	1	1	1	1	1	1	1	0	1	-4,862579	273,893638	314,225691	0
15.01.2021	09:36:47	0	15,58585	2,824548	2,0445	350,298	-0,008	88,548	0	1013,52	6,7	8,6	8,5	1	1	1	1	1	1	1	1	1	0	1	-5,426357	273,988363	314,10356	0
15.01.2021	09:36:48	0	15,347898	2,711566	2,223	349,4484	-0,005	88,533	0	1013,24	6,7	8,6	8,5	1	1	1	1	1	1	1	1	1	0	1	-7,963354	273,874454	311,035527	0
15.01.2021	09:36:49	0	15,58585	3,954367	2,21925	348,246	-0,012	88,544	0	1013,64	6,7	8,6	8,5	1	1	1	1	1	1	1	1	1	0	1	-4,792107	273,995783	314,772424	0
15.01.2021	09:36:50	0	15,704826	2,93753	2,163	352,5912	-0,011	88,532	0	1013,66	6,7	8,6	8,5	1	1	1	1	1	1	1	1	1	0	1	-5,426357	274,056734	314,422625	0
15.01.2021	09:36:51	0	15,58585	3,728403	2,10075	352,0404	-0,008	88,521	0	1013,56	6,6	8,6	8,5	1	1	1	1	1	1	1	1	1	0	1	-9,231853	274,006175	310,381166	0
15.01.2021	09:36:52	0	15,347898	3,841385	2,0535	358,7112	-0,008	88,548	0	1013,52	6,6	8,6	8,5	1	1	1	1	1	1	1	1	1	0	1	-4,439746	273,903976	314,696701	0
15.01.2021	09:36:53	0	15,466874	4,180331	1,97775	350,3592	-0,008	88,514	0	1013,68	6,6	8,6	8,5	1	1	1	1	1	1	1	1	1	0	1	-7,681466	273,986879	311,84153	0
15.01.2021	09:36:54	0	15,704826	3,841385	2,1225	14,6412	-0,006	88,533	0	1013,5	6,7	8,6	8,5	1	1	1	1	1	1	1	1	1	0	1	-6,131078	274,056734	313,717904	0
15.01.2021	09:36:55	0	15,347898	3,163494	2,09325	12,8376	-0,008	88,536	0	1013,54	6,7	8,6	8,5	1	1	1	1	1	1	1	1	1	0	1	-4,298802	273,95723	315,085909	0
15.01.2021	09:36:56	0	15,58585	5,084186	2,034	18,0756	-0,01	88,527	0	1013,54	6,7	8,6	8,5	1	1	1	1	1	1	1	1	1	0	1	-6,624383	273,892162	312,457007	0
15.01.2021	09:36:57	0	15,58585	4,971205	1,9905	359,496	-0,001	88,546	0	1013,54	6,7	8,6	8,5	1	1	1	1	1	1	1	1	1	0	1	-2,60747	274,024005	317,088744	0
15.01.2021	09:36:58	0	15,228922	2,485602	1,9515	0,4968	-0,003	88,535	0	1013,56	6,6	8,6	8,5	1	1	1	1	1	1	1	1	1	0	1	-7,470049	273,998751	312,108333	0
15.01.2021	09:36:59	0	15,58585	2,485602	1,971	12,4632	-0,005	88,539	0	1013,58	6,7	8,6	8,5	1	1	1	1	1	1	1	1	1	0	1	-2,114165	273,920233	317,098053	0
15.01.2021	09:37:00	0	15,347898	4,180331	2,14425	2,3004	-0,004	88,543	0	1013,6	6,7	8,6	8,5	1	1	1	1	1	1	1	1	1	0	1	-6,694856	273,948344	312,648421	0
15.01.2021	09:37:01	0	15,347898	4,180331	2,14425	2,3004	-0,004	88,543	0	1013,6	6,7	8,6	8,5	1	1	1	1	1	1	1	1	1	0	1	-6,694856	273,948344	312,648421	0
15.01.2021	09:37:02	0	15,58585	5,197168	2,15775	0,8676	-0,004	88,516	0	1013,52	6,6	8,6	8,5	1	1	1	1	1	1	1	1	1	0	1	-6,976744	274,06567	312,913956	0
15.01.2021	09:37:03	0	15,58585	2,711566	2,28825	3,024	-0,009	88,527	0	1013,5	6,7	8,6	8,5	1	1	1	1	1	1	1	1	1	0	1	-8,45666	273,99133	311,087101	0
15.01.2021	09:37:04	0	15,466874	3,163494	2,316	10,0692	-0,006	88,549	0	1013,5	6,6	8,6	8,5	1	1	1	1	1	1	1	1	1	0	1	-5,144468	274,056734	314,704514	0
15.01.2021	09:37:05	0	15,466874	4,406295	2,25825	2,6532	-0,007	88,541	0	1013,5	6,7	8,6	8,5	1	1	1	1	1	1	1	1	1	0	1	-8,527132	273,992814	311,023552	0
15.01.2021	09:37:06	0	15,466874	2,485602	2,1285	13,1652	-0,005	88,531	0	1013,54	6,7	8,6	8,5	1	1	1	1	1	1	1	1	1	0	1	-10,077519	274,056734	309,771463	0
15.01.2021	09:37:07	0	15,704826	2,824548	2,0445	6,8076	-0,012	88,541	0	1013,48	6,7	8,6	8,5	1	1	1	1	1	1	1	1	1	0	1	-9,161381	273,96612	310,264788	0
15.01.2021	09:37:08	0	15,347898	4,406295	2,06625	7,1316	-0,014	88,541	0	1013,56	6,7	8,6	8,5	1	1	1	1	1	1	1	1	1	0	1	-9,161381	274,052268	310,66675	0
15.01.2021	09:37:09	0	15,704826	3,050512	2,058	1,5588	-0,008	88,543	0	1013,58	6,6	8,6	8,5	1	1	1	1	1	1	1	1	1	0	1	-2,959831	273,937982	316,335134	0
15.01.2021	09:37:10	0	15,58585	3,050512	2,0925	5,6772	-0,004	88,537	0	1013,58	6,6	8,6	8,5	1	1	1	1	1	1	1	1	1	0	1	-10,570825	273,893638	308,517446	0
15.01.2021	09:37:11	0	15,704826	4,519277	2,13	1,1808	-0,006	88,533	0	1013,64	6,6	8,6	8,5	1	1	1	1	1	1	1	1	1	0	1	-4,721635	274,012117	314,919106	0
15.01.2021	09:37:12	0	15,58585	3,050512	2,28525	7,8804	-0,006	88,538	0	1013,62	6,7	8,6	8,5	1	1	1	1	1	1	1	1	1	0	1	-8,949965	274,024005	310,74625	0
15.01.2021	09:37:13	0	15,823802	3,728403	2,427	4,8384	-0,004	88,524	0	1013,66	6,7	8,6	8,5	1	1	1	1	1	1	1	1	1	0	1	-10,218464	273,920233	308,993754	0
15.01.2021	09:37:14	0	15,466874	2,93753	2,388	4,0896	-0,004	88,522	0	1013,62	6,6	8,6	8,5	1	1	1	1	1	1	1	1	1	0	1	-4,933051	274,019546	314,742356	0
15.01.2021	09:37:15	0	15,823802	3,163494	2,26275	10,8072	0,001	88,54	0	1013,48	6,7	8,6	8,5	1	1	1	1	1	1	1	1	1	0	1	-10,641297	274,052268	309,186835	0
15.01.2021	09:37:16	0	15,466874	2,711566	2,1195	3,0348	0,005	88,554	0	1013,64	6,7	8,6	8,5	1	1	1	1	1	1	1	1	1	0	1	-7,047216	274,012117	312,593524	0
15.01.2021	09:37:17	0	15,347898	2,93753	2,0925	10,8144	0,001	88,54	0	1013,62	6,7	8,6	8,5	1	1	1	1	1	1	1	1	1	0	1	-5,708245	273,906931	313,441973	0
15.01.2021	09:37:18	0	15,466874	4,745241	2,13375	9,774	0,002	88,535	0	1013,68	6,7	8,6	8,5	1	1	1	1	1	1	1	1	1	0	1	-4,721635	273,982429	314,780602	0
15.01.2021	09:37:19	0	15,823802	3,050512	2,18325	0,5004	-0,005	88,54	0	1013,56	6,7	8,6	8,5	1	1	1	1	1	1	1	1	1	0	1	-1,057082	273,883306	317,983042	0
15.01.2021	09:37:20	0	16,061754	3,728403	2,17275	0	-0,003	88,524	0	1013,52	6,7	8,6	8,5	1	1	1	1	1	1	1	1	1	0	1	-4,298802	273,973531	315,161934	0
15.01.2021	09:37:21	0	15,58585	2,711566	2,169	7,1316	-0,002	88,537	0	1013,52	6,7	8,6	8,5	1	1	1	1	1	1	1	1	1	0	1	-6,765328	274,058223	313,090606	0
15.01.2021	09:37:22	0	15,704826	3,841385	2,094	5,2272	-0,007	88,533	0	1013,52	6,7	8,6	8,5	1	1	1	1	1	1	1	1	1	0	1	-11,346018	274,049291	308,468216	0
15.01.2021	09:37:23	0	15,942778	2,824548	2,00475	359,892	0,005	88,544	0	1013,58	6,7	8,6	8,5	1	1	1	1	1	1	1	1	1	0	1	-0	274,001721	319,592235	0
15.01.2021	09:37:24	0	15,942778	4,632259	2,0445	8,3376	-0,001	88,521	0	1013,36	6,6	8,6	8,5	1	1	1	1	1	1	1	1	1	0	1	-9,161381	274,056734	310,687601	0
15.01.2021	09:37:25	0	16,299705	3,389458	2,15325	360	-0,006	88,533	0	1013,56	6,6	8,6	8,5	1	1	1	1	1	1	1	1	1	0	1	-14,728682	273,95723	304,656029	0
15.01.2021	09:37:26	0	15,942778	4,406295	2,25375	359,1792	-0,006	88,538	0	1013,68	6,7	8,6	8,5	1	1	1	1	1	1	1	1	1	0	1	-11,134602	273,905453	308,008731	0
15.01.2021	09:37:27	0	15,823802	4,519277	2,2305	355,4064	-0,009	88,535	0	1013,54	6,6	8,6	8,5	1	1	1	1	1	1	1	1	1	0	1	-4,22833	273,945383	315,10114	0
15.01.2021	09:37:28	0	15,58585	3,50244	2,163	3,0276	0	88,537	0	1013,64	6,7	8,6	8,5	1	1	1	1	1	1	1	1	1	0	1	-1,973221	273,884782	317,07378	0
15.01.2021	09:37:29	0	16,18073	2,485602	2,12925	358,3404	-0,002	88,554	0	1013,66	6,7	8,6	8,5	1	1	1	1	1	1	1	1	1	0	1	-7,963354	274,024005	311,73286	0
15.01.2021	09:37:30	0	15,942778	4,745241	2,085	4,0752	0	88,547	0	1013,4	6,7	8,6	8,5	1	1	1	1	1	1	1	1	1	0	1	-1,832276	273,881831	317,200973	0
15.01.2021	09:37:31	0	15,823802	3,163494	2,19075	6,4296	-0,004	88,558	0	1013,6	6,6	8,6	8,5	1	1	1	1	1	1	1	1	1	0	1	-8,80902	273,969084	310,630974	0
15.01.2021	09:37:32	0	15,704826	4,067349	2,2005	360	-0,002	88,55	0	1013,54	6,7	8,6	8,5	1	1	1	1	1	1	1	1	1	0	1	-9,020437	274,088029	310,974662	0
15.01.2021	09:37:33	0	15,942778	4,632259	2,32275	2,2932	0	88,549	0	1013,62	6,7	8,6	8,5	1	1	1	1	1	1	1	1	1	0	1	-8,174771	274,019546	311,500636	0
15.01.2021	09:37:34	0	15,823802	3,615421	2,4525	17,2404	0,001	88,557	0	1013,62	6,6	8,6	8,5	1	1	1	1	1	1	1	1	1	0	1	-7,399577	274,009146	312,227301	0
15.01.2021	09:37:35	0	15,58585	4,067349	2,3895	6,426	0	88,547	0	1013,54	6,6	8,6	8,5	1	1	1	1	1	1	1	1	1	0	1	-5,637773	273,903976	313,498674	0
15.01.2021	09:37:36	0	16,061754	3,728403	2,364	5,6844	0,004	88,552	0	1013,68	6,7	8,6	8,5	1	1	1	1	1	1	1	1	1	0	1	-3,664553	273,946863	315,67182	0
15.01.2021	09:37:37	0	15,704826	3,163494	2,286	7,1208	-0,001	88,564	0	1013,7	6,7	8,6	8,5	1	1	1	1	1	1	1	1	1	0	1	-9,654686	274,055245	310,187345	0
15.01.2021	09:37:38	0	16,061754	3,276476	2,1705	359,874	-0,007	88,527	0	1013,62	6,7	8,6	8,5	1	1	1	1	1	1	1	1	1	0	1	-4,439746	273,946863	314,896626	0
15.01.2021	09:37:39	0	15,704826	2,711566	2,10675	3,7728	-0,004	88,548	0	1013,56	6,7	8,6	8,5	1	1	1	1	1	1	1	1	1	0	1	-7,963354	274,046314	311,836986	0
15.01.2021	09:37:40	0	15,823802	2,598584	2,1645	1,1628	0,004	88,551	0	1013,7	6,7	8,6	8,5	1	1	1	1	1	1	1	1	1	0	1	-4,862579	274,052268	314,965552	0
15.01.2021	09:37:41	0	15,704826	3,050512	2,2785	2,628	-0,001	88,548	0	1013,68	6,6	8,6	8,5	1	1	1	1	1	1	1	1	1	0	1	-2,536998	273,989846	316,999841	0
15.01.2021	09:37:42	0	15,823802	3,50244	2,5845	4,0824	-0,005	88,55	0	1013,56	6,6	8,6	8,5	1	1	1	1	1	1	1	1	1	0	1	-6,483439	273,88921	312,584193	0
15.01.2021	09:37:43	0	15,942778	3,050512	2,74425	7,1172	-0,004	88,557	0	1013,62	6,6	8,6	8,5	1	1	1	1	1	1	1	1	1	0	1	-9,231853	273,975014	310,235798	0
15.01.2021	09:37:44	0	15,704826	3,615421	2,81475	1,1916	0,001	88,537	0	1013,56	6,7	8,6	8,5	1	1	1	1	1	1	1	1	1	0	1	-7,470049	273,899545	311,645747	0
15.01.2021	09:37:45	0	15,942778	4,971205	2,75475	0,4896	-0,001	88,545	0	1013,7	6,6	8,6	8,5	1	1	1	1	1	1	1	1	1	0	1	-3,59408	273,992814	315,956603	0
15.01.2021	09:37:46	0	16,18073	3,50244	2,66925	359,1108	-0,005	88,555	0	1013,62	6,7	8,6	8,5	1	1	1	1	1	1	1	1	1	0	1	-5,144468	274,064181	314,739278	0
15.01.2021	09:37:47	0	15,58585	4,745241	2,58825	1,9188	0,003	88,56	0	1013,64	6,7	8,6	8,5	1	1	1	1	1	1	1	1	1	0	1	-4,580691	274,003205	315,018472	0
15.01.2021	09:37:48	0	15,823802	4,406295	2,592	4,0896	-0,005	88,543	0	1013,5	6,7	8,6	8,5	1	1	1	1	1	1	1	1	1	0	1	-6,272023	273,903976	312,864425	0
15.01.2021	09:37:49	0	16,18073	4,067349	2,6775	5,202	-0,005	88,54	0	1013,6	6,7	8,6	8,5	1	1	1	1	1	1	1	1	1	0	1	-6,8358	274,026978	312,87429	0
15.01.2021	09:37:50	0	15,823802	4,745241	2,69925	10,4508	0,004	88,558	0	1013,72	6,7	8,6	8,5	1	1	1	1	1	1	1	1	1	0	1	-10,641297	273,986879	308,881699	0
15.01.2021	09:37:51	0	15,942778	3,954367	3,00675	13,932	-0,001	88,56	0	1013,78	6,7	8,6	8,5	1	1	1	1	1	1	1	1	1	0	1	-4,157858	273,902499	314,971705	0
15.01.2021	09:37:52	0	16,299705	4,180331	3,09975	17,2116	-0,002	88,543	0	1013,5	6,7	8,6	8,5	1	1	1	1	1	1	1	1	1	0	1	-8,315715	274,025491	311,387436	0
15.01.2021	09:37:53	0	16,18073	4,858223	3,01125	4,464	0,001	88,552	0	1013,68	6,7	8,6	8,5	1	1	1	1	1	1	1	1	1	0	1	-3,735025	273,903976	315,401423	0
15.01.2021	09:37:54	0	15,942778	3,050512	2,87625	4,0896	0,006	88,552	0	1013,7	6,6	8,6	8,5	1	1	1	1	1	1	1	1	1	0	1	-8,104299	273,917276	311,094137	0
15.01.2021	09:37:55	0	16,061754	4,293313	2,73375	3,7764	-0,003	88,56	0	1013,6	6,7	8,6	8,5	1	1	1	1	1	1	1	1	1	0	1	-10,711769	273,952786	308,652222	0
15.01.2021	09:37:56	0	16,061754	4,180331	2,79	355,806	0,007	88,556	0	1013,58	6,7	8,6	8,5	1	1	1	1	1	1	1	1	1	0	1	-6,624383	274,080573	313,3359	0
15.01.2021	09:37:57	0	15,823802	2,711566	2,994	7,4988	0,003	88,565	0	1013,54	6,7	8,6	8,5	1	1	1	1	1	1	1	1	1	0	1	-8,80902	274,028464	310,908008	0
15.01.2021	09:37:58	0	16,18073	4,180331	2,97	10,062	0,003	88,551	0	1013,6	6,6	8,6	8,5	1	1	1	1	1	1	1	1	1	0	1	-6,694856	274,052268	313,133276	0
15.01.2021	09:37:59	0	16,299705	4,971205	2,67825	17,6724	-0,001	88,56	0	1013,58	6,7	8,6	8,5	1	1	1	1	1	1	1	1	1	0	1	-5,778717	274,019546	313,89669	0
15.01.2021	09:38:00	0	16,061754	2,93753	2,50425	6,8112	0,003	88,537	0	1013,64	6,6	8,6	8,5	1	1	1	1	1	1	1	1	1	0	1	-8,174771	273,998751	311,403611	0
15.01.2021	09:38:01	0	16,061754	2,93753	2,50425	6,8112	0,003	88,537	0	1013,64	6,6	8,6	8,5	1	1	1	1	1	1	1	1	1	0	1	-8,174771	273,998751	311,403611	0
15.01.2021	09:38:02	0	16,061754	4,406295	2,48325	4,0932	0,003	88,555	0	1013,46	6,7	8,6	8,5	1	1	1	1	1	1	1	1	1	0	1	-6,976744	273,906931	312,173474	0
15.01.2021	09:38:03	0	16,18073	4,180331	2,41275	4,4568	0,001	88,55	0	1013,42	6,7	8,6	8,5	1	1	1	1	1	1	1	1	1	0	1	-10,711769	274,0359	309,039961	0
15.01.2021	09:38:04	0	16,18073	4,406295	2,3895	8,262	0	88,544	0	1013,52	6,7	8,6	8,5	1	1	1	1	1	1	1	1	1	0	1	-8,104299	273,915798	311,087247	0
15.01.2021	09:38:05	0	16,418681	4,180331	2,38875	13,1544	0,003	88,565	0	1013,56	6,7	8,6	8,5	1	1	1	1	1	1	1	1	1	0	1	-9,020437	274,04185	310,759066	0
15.01.2021	09:38:06	0	15,942778	3,163494	2,3175	9,7452	0,001	88,552	0	1013,54	6,6	8,6	8,5	1	1	1	1	1	1	1	1	1	0	1	-6,20155	273,997267	313,369906	0
15.01.2021	09:38:07	0	16,18073	4,745241	2,28525	16,848	0,003	88,539	0	1013,54	6,7	8,6	8,5	1	1	1	1	1	1	1	1	1	0	1	-1,902748	273,887734	317,158006	0
15.01.2021	09:38:08	0	15,942778	2,93753	2,27175	359,1648	0,004	88,542	0	1013,68	6,6	8,6	8,5	1	1	1	1	1	1	1	1	1	0	1	-5,708245	274,074611	314,224197	0
15.01.2021	09:38:09	0	16,18073	4,745241	2,2665	3,0132	0,004	88,544	0	1013,64	6,7	8,6	8,5	1	1	1	1	1	1	1	1	1	0	1	-4,651163	274,052268	315,176969	0
15.01.2021	09:38:10	0	16,299705	5,084186	2,27325	4,0824	-0,004	88,551	0	1013,52	6,7	8,6	8,5	1	1	1	1	1	1	1	1	1	0	1	-11,134602	274,024005	308,561613	0
15.01.2021	09:38:11	0	16,18073	2,711566	2,3145	6,4332	0,004	88,556	0	1013,6	6,7	8,6	8,5	1	1	1	1	1	1	1	1	1	0	1	-6,272023	273,892162	312,809368	0
15.01.2021	09:38:12	0	16,656633	5,31015	2,277	1,9188	0,001	88,534	0	1013,66	6,7	8,6	8,5	1	1	1	1	1	1	1	1	1	0	1	-3,24172	273,998751	316,336662	0
15.01.2021	09:38:13	0	16,061754	3,954367	2,1735	2,6496	0,005	88,564	0	1013,64	6,7	8,6	8,5	1	1	1	1	1	1	1	1	1	0	1	-6,624383	274,058223	313,23155	0
15.01.2021	09:38:14	0	16,299705	4,519277	2,13225	360	0,009	88,55	0	1013,62	6,7	8,6	8,5	1	1	1	1	1	1	1	1	1	0	1	-10,641297	273,937982	308,653668	0
15.01.2021	09:38:15	0	16,18073	3,276476	2,145	360	0,004	88,557	0	1013,64	6,7	8,6	8,5	1	1	1	1	1	1	1	1	1	0	1	-7,681466	274,056734	312,167516	0
15.01.2021	09:38:16	0	16,418681	5,084186	2,2425	354,9168	0,006	88,551	0	1013,66	6,7	8,6	8,5	1	1	1	1	1	1	1	1	1	0	1	-5,567301	273,980945	313,928017	0
15.01.2021	09:38:17	0	16,061754	4,180331	2,1855	7,848	0,008	88,562	0	1013,78	6,6	8,6	8,5	1	1	1	1	1	1	1	1	1	0	1	-7,610994	273,887734	311,449761	0
15.01.2021	09:38:18	0	16,299705	4,858223	2,08425	4,0716	0,022	88,569	0	1013,82	6,7	8,6	8,5	1	1	1	1	1	1	1	1	1	0	1	-3,664553	273,958711	315,727067	0
15.01.2021	09:38:19	0	16,18073	3,50244	2,10975	9,3384	-0,003	88,544	0	1013,58	6,7	8,6	8,5	1	1	1	1	1	1	1	1	1	0	1	-6,483439	273,901022	312,63924	0
15.01.2021	09:38:20	0	16,418681	4,971205	2,136	3,7764	0,007	88,54	0	1013,56	6,7	8,6	8,5	1	1	1	1	1	1	1	1	1	0	1	-11,41649	274,025491	308,286661	0
15.01.2021	09:38:21	0	15,942778	2,485602	2,18625	7,596	0,009	88,568	0	1013,56	6,7	8,6	8,5	1	1	1	1	1	1	1	1	1	0	1	-3,312192	274,010631	316,321618	0
15.01.2021	09:38:22	0	16,537657	3,615421	2,1405	356,1444	0,008	88,561	0	1013,56	6,6	8,6	8,5	1	1	1	1	1	1	1	1	1	0	1	-2,255109	274,06716	317,642547	0
15.01.2021	09:38:23	0	16,299705	4,632259	2,1	360	0,008	88,565	0	1013,74	6,6	8,6	8,5	1	1	1	1	1	1	1	1	1	0	1	-6,976744	274,334184	314,169439	0
15.01.2021	09:38:24	0	16,18073	4,406295	2,1075	3,78	0,009	88,556	0	1013,58	6,7	8,6	8,5	1	1	1	1	1	1	1	1	1	0	1	-6,694856	274,037387	313,063817	0
15.01.2021	09:38:25	0	16,18073	2,711566	2,1495	1,5336	0,008	88,556	0	1013,54	6,7	8,6	8,5	1	1	1	1	1	1	1	1	1	0	1	-6,906272	274,064181	312,977474	0
15.01.2021	09:38:26	0	16,656633	4,632259	2,25075	1,1664	0,007	88,555	0	1013,66	6,6	8,6	8,5	1	1	1	1	1	1	1	1	1	0	1	-3,453136	273,905453	315,690196	0
15.01.2021	09:38:27	0	16,061754	4,180331	2,29125	7,1172	0,01	88,609	0	1013,66	6,7	8,6	8,5	1	1	1	1	1	1	1	1	1	0	1	-8,033827	273,960193	311,364702	0
15.01.2021	09:38:28	0	15,942778	3,50244	2,20425	360	0,004	88,551	0	1013,58	6,7	8,6	8,5	1	1	1	1	1	1	1	1	1	0	1	-5,003524	273,905453	314,139809	0
15.01.2021	09:38:29	0	16,299705	3,389458	2,1735	2,286	0,012	88,55	0	1013,58	6,7	8,6	8,5	1	1	1	1	1	1	1	1	1	0	1	-2,255109	274,01806	317,413363	0
15.01.2021	09:38:30	0	16,299705	4,406295	2,244	2,6532	0,004	88,555	0	1013,46	6,7	8,6	8,5	1	1	1	1	1	1	1	1	1	0	1	-10,993658	274,082064	308,973588	0
15.01.2021	09:38:31	0	16,18073	4,180331	2,24925	0,864	0,002	88,548	0	1013,54	6,7	8,6	8,5	1	1	1	1	1	1	1	1	1	0	1	-7,82241	273,997267	311,749046	0
15.01.2021	09:38:32	0	16,537657	4,632259	2,27925	22,0788	0,009	88,552	0	1013,54	6,7	8,6	8,5	1	1	1	1	1	1	1	1	1	0	1	-4,651163	273,91432	314,533493	0
15.01.2021	09:38:33	0	16,299705	4,632259	2,30925	15,0336	0,009	88,536	0	1013,64	6,7	8,6	8,5	1	1	1	1	1	1	1	1	1	0	1	-2,396054	274,058223	317,45988	0
15.01.2021	09:38:34	0	16,537657	4,519277	2,3445	20,2968	0,013	88,557	0	1013,62	6,7	8,6	8,5	1	1	1	1	1	1	1	1	1	0	1	-7,82241	273,951305	311,534675	0
15.01.2021	09:38:35	0	16,18073	3,163494	2,4885	16,4844	0,012	88,549	0	1013,62	6,7	8,6	8,5	1	1	1	1	1	1	1	1	1	0	1	-3,030303	273,893638	316,057967	0
15.01.2021	09:38:36	0	16,299705	2,711566	2,5155	18,5184	0,006	88,552	0	1013,54	6,7	8,6	8,5	1	1	1	1	1	1	1	1	1	0	1	-11,980268	273,995783	307,584264	0
15.01.2021	09:38:37	0	16,299705	3,276476	2,5275	13,1688	0,007	88,539	0	1013,56	6,7	8,6	8,5	1	1	1	1	1	1	1	1	1	0	1	-9,866103	273,903976	309,270345	0
15.01.2021	09:38:38	0	16,537657	2,598584	2,43675	13,9176	0,013	88,552	0	1013,48	6,6	8,6	8,5	1	1	1	1	1	1	1	1	1	0	1	-9,020437	273,933543	310,253832	0
15.01.2021	09:38:39	0	16,18073	2,259638	2,38125	10,062	0,01	88,547	0	1013,62	6,7	8,6	8,5	1	1	1	1	1	1	1	1	1	0	1	-10,359408	274,059713	309,503478	0
15.01.2021	09:38:40	0	16,537657	4,180331	2,34825	7,4988	0,007	88,556	0	1013,58	6,7	8,6	8,5	1	1	1	1	1	1	1	1	1	0	1	-5,990134	273,943903	313,332434	0
15.01.2021	09:38:41	0	16,537657	4,745241	2,196	13,5252	0,008	88,521	0	1013,54	6,7	8,6	8,5	1	1	1	1	1	1	1	1	1	0	1	-10,288936	274,061202	309,580902	0
15.01.2021	09:38:42	0	16,775609	3,50244	2,0385	13,9248	0,013	88,542	0	1013,68	6,7	8,6	8,5	1	1	1	1	1	1	1	1	1	0	1	-11,698379	273,95723	307,686332	0
15.01.2021	09:38:43	0	16,418681	4,519277	1,944	17,6832	0,007	88,541	0	1013,44	6,7	8,6	8,5	1	1	1	1	1	1	1	1	1	0	1	-7,963354	274,056734	311,885628	0
15.01.2021	09:38:44	0	16,537657	3,50244	1,93725	25,416	0,004	88,555	0	1013,38	6,7	8,6	8,5	1	1	1	1	1	1	1	1	1	0	1	-9,090909	273,937982	310,204055	0
15.01.2021	09:38:45	0	16,418681	2,146656	1,899	13,1724	0,011	88,529	0	1013,56	6,7	8,6	8,5	1	1	1	1	1	1	1	1	1	0	1	-6,976744	273,937982	312,31822	0
15.01.2021	09:38:46	0	16,299705	2,711566	1,89675	9,36	0,007	88,535	0	1013,56	6,7	8,6	8,5	1	1	1	1	1	1	1	1	1	0	1	-7,258633	273,887734	311,802122	0
15.01.2021	09:38:47	0	16,418566	4,632259	1,851	14,706	0,007	88,537	0	1013,52	6,7	8,7	8,5	1	1	1	1	1	1	1	1	1	0	1	-10,218464	273,937982	309,076501	0
15.01.2021	09:38:48	0	16,299705	3,728403	1,917	4,8384	0,01	88,543	0	1013,7	6,7	8,6	8,5	1	1	1	1	1	1	1	1	1	0	1	-5,426357	273,932064	313,841015	0
15.01.2021	09:38:49	0	16,418681	3,615421	1,9425	21,3876	0,008	88,535	0	1013,62	6,7	8,6	8,5	1	1	1	1	1	1	1	1	1	0	1	-12,825934	273,951305	306,531152	0
15.01.2021	09:38:50	0	16,299705	3,615421	1,866	20,6352	0,005	88,53	0	1013,54	6,7	8,6	8,5	1	1	1	1	1	1	1	1	1	0	1	-7,751938	274,06567	312,138762	0
15.01.2021	09:38:51	0	16,418681	2,93753	1,80975	11,2932	0,012	88,548	0	1013,6	6,7	8,6	8,5	1	1	1	1	1	1	1	1	1	0	1	-6,060606	273,980945	313,434712	0
15.01.2021	09:38:52	0	16,418681	3,163494	1,85025	18,0756	0,001	88,534	0	1013,66	6,7	8,6	8,5	1	1	1	1	1	1	1	1	1	0	1	-10,570825	273,911364	308,600054	0
15.01.2021	09:38:53	0	16,656633	2,37262	1,87725	20,6388	0,011	88,537	0	1013,54	6,7	8,6	8,5	1	1	1	1	1	1	1	1	1	0	1	-10,993658	273,975014	308,473994	0
15.01.2021	09:38:54	0	16,775609	3,728403	2,007	23,9616	0,009	88,548	0	1013,7	6,7	8,6	8,5	1	1	1	1	1	1	1	1	1	0	1	-7,82241	273,91432	311,362246	0
15.01.2021	09:38:55	0	16,418681	3,954367	2,15025	18,846	0,012	88,547	0	1013,64	6,6	8,6	8,5	1	1	1	1	1	1	1	1	1	0	1	-8,386187	273,955749	310,991616	0
15.01.2021	09:38:56	0	16,418681	3,615421	2,2065	15,7824	0,01	88,543	0	1013,62	6,7	8,6	8,5	1	1	1	1	1	1	1	1	1	0	1	-9,936575	274,07163	309,981951	0
15.01.2021	09:38:57	0	16,418681	3,50244	2,265	10,0584	0,006	88,534	0	1013,6	6,7	8,6	8,5	1	1	1	1	1	1	1	1	1	0	1	-4,721635	273,963156	314,690713	0
15.01.2021	09:38:58	0	16,299705	2,824548	2,53275	10,8144	0,012	88,551	0	1013,64	6,7	8,6	8,5	1	1	1	1	1	1	1	1	1	0	1	-6,906272	273,911364	312,264607	0
15.01.2021	09:38:59	0	16,537657	2,711566	2,68575	4,086	0,015	88,54	0	1013,64	6,7	8,6	8,5	1	1	1	1	1	1	1	1	1	0	1	-10,500352	273,983912	309,008803	0
15.01.2021	09:39:00	0	16,775609	3,728403	2,7555	5,6772	0,009	88,538	0	1013,58	6,7	8,6	8,5	1	1	1	1	1	1	1	1	1	0	1	-9,302326	273,995783	310,262206	0
15.01.2021	09:39:01	0	16,775609	3,728403	2,7555	5,6772	0,009	88,538	0	1013,58	6,7	8,6	8,5	1	1	1	1	1	1	1	1	1	0	1	-9,302326	273,995783	310,262206	0
15.01.2021	09:39:02	0	16,656633	2,711566	2,57325	9,7452	0,015	88,545	0	1013,6	6,7	8,6	8,5	1	1	1	1	1	1	1	1	1	0	1	-5,426357	273,909886	313,737635	0
15.01.2021	09:39:03	0	16,775609	3,841385	2,5995	3,0348	0,004	88,532	0	1013,52	6,7	8,6	8,5	1	1	1	1	1	1	1	1	1	0	1	-10,500352	274,016574	309,161186	0
15.01.2021	09:39:04	0	16,656633	3,163494	2,61525	4,8348	0,013	88,531	0	1013,58	6,7	8,6	8,5	1	1	1	1	1	1	1	1	1	0	1	-7,82241	274,058223	312,033523	0
15.01.2021	09:39:05	0	16,418681	4,858223	2,56725	3,8664	0,009	88,529	0	1013,42	6,7	8,6	8,5	1	1	1	1	1	1	1	1	1	0	1	-9,372798	274,00766	310,247151	0
15.01.2021	09:39:06	0	16,418681	3,050512	2,71275	13,9176	0,017	88,549	0	1013,64	6,7	8,6	8,5	1	1	1	1	1	1	1	1	1	0	1	-4,721635	273,905453	314,421697	0
15.01.2021	09:39:07	0	16,299705	3,502419	2,7135	12,4668	0,007	88,53	0	1013,62	6,7	8,6	8,6	1	1	1	1	1	1	1	1	1	0	1	-10,147992	273,980945	309,347327	0
15.01.2021	09:39:08	0	16,299591	2,598584	2,59725	22,4712	0,01	88,545	0	1013,72	6,7	8,7	8,5	1	1	1	1	1	1	1	1	1	0	1	-9,866103	274,053757	309,968978	0
15.01.2021	09:39:09	0	16,775609	2,598584	2,60925	25,7832	0,006	88,536	0	1013,72	6,7	8,6	8,5	1	1	1	1	1	1	1	1	1	0	1	-8,45666	273,96612	310,96951	0
15.01.2021	09:39:10	0	16,775492	3,841385	2,67525	24,3432	0,01	88,544	0	1013,6	6,7	8,7	8,5	1	1	1	1	1	1	1	1	1	0	1	-5,003524	274,053757	314,831557	0
15.01.2021	09:39:11	0	16,894585	3,389458	2,367	13,158	0,017	88,542	0	1013,58	6,7	8,6	8,5	1	1	1	1	1	1	1	1	1	0	1	-7,117689	274,012117	312,523052	0
15.01.2021	09:39:12	0	16,418681	4,067349	2,1225	8,2584	0,008	88,54	0	1013,46	6,7	8,6	8,5	1	1	1	1	1	1	1	1	1	0	1	-7,751938	274,062691	312,124854	0
15.01.2021	09:39:13	0	16,894585	4,632259	2,0985	21,3768	0,011	88,542	0	1013,68	6,6	8,6	8,5	1	1	1	1	1	1	1	1	1	0	1	-8,597604	274,025491	311,105548	0
15.01.2021	09:39:14	0	16,537542	3,841385	2,06925	3,7836	0,012	88,543	0	1013,44	6,7	8,7	8,5	1	1	1	1	1	1	1	1	1	0	1	-12,403101	273,902499	306,726462	0
15.01.2021	09:39:15	0	17,013561	4,067349	2,0535	11,196	0,01	88,53	0	1013,68	6,7	8,6	8,5	1	1	1	1	1	1	1	1	1	0	1	-7,470049	274,04185	312,309454	0
15.01.2021	09:39:16	0	16,537657	3,389458	2,0535	349,47	0,012	88,541	0	1013,52	6,7	8,6	8,5	1	1	1	1	1	1	1	1	1	0	1	-6,342495	273,92319	312,883508	0
15.01.2021	09:39:17	0	16,894585	3,50244	2,12025	358,0884	0,012	88,532	0	1013,64	6,7	8,6	8,5	1	1	1	1	1	1	1	1	1	0	1	-2,466526	273,942422	316,84914	0
15.01.2021	09:39:18	0	16,656633	2,598584	2,24775	6,0624	0,006	88,54	0	1013,64	6,7	8,6	8,5	1	1	1	1	1	1	1	1	1	0	1	-8,315715	274,064181	311,56803	0
15.01.2021	09:39:19	0	17,132417	3,728403	2,4165	7,4988	0,01	88,532	0	1013,6	6,7	8,7	8,5	1	1	1	1	1	1	1	1	1	0	1	-8,315715	273,929105	310,937864	0
15.01.2021	09:39:20	0	16,775609	4,180331	2,70225	360	0,009	88,513	0	1013,4	6,7	8,6	8,5	1	1	1	1	1	1	1	1	1	0	1	-6,060606	274,240755	314,648317	0
15.01.2021	09:39:21	0	16,894585	3,728403	2,841	6,8364	0,007	88,521	0	1013,44	6,7	8,6	8,5	1	1	1	1	1	1	1	1	1	0	1	-4,933051	273,917276	314,265384	0
15.01.2021	09:39:22	0	16,656633	2,598584	2,727	5,22	0,013	88,531	0	1013,68	6,7	8,6	8,5	1	1	1	1	1	1	1	1	1	0	1	-8,949965	274,029951	310,774002	0
15.01.2021	09:39:23	0	16,894585	3,276476	2,6985	360	0,009	88,525	0	1013,62	6,7	8,6	8,5	1	1	1	1	1	1	1	1	1	0	1	-6,342495	273,898068	312,766419	0
15.01.2021	09:39:24	0	16,656633	2,37262	2,6745	0,8712	0,012	88,529	0	1013,6	6,7	8,6	8,5	1	1	1	1	1	1	1	1	1	0	1	-5,21494	274,015088	314,439665	0
15.01.2021	09:39:25	0	16,656633	4,180331	2,66625	5,22	0,009	88,529	0	1013,64	6,7	8,6	8,5	1	1	1	1	1	1	1	1	1	0	1	-4,721635	273,901022	314,401044	0
15.01.2021	09:39:26	0	16,537542	3,50244	2,93925	10,044	0,013	88,531	0	1013,64	6,7	8,7	8,5	1	1	1	1	1	1	1	1	1	0	1	-8,386187	273,967602	311,046894	0
15.01.2021	09:39:27	0	17,013561	4,858193	3,159	9,738	0,007	88,534	0	1013,64	6,7	8,6	8,6	1	1	1	1	1	1	1	1	1	0	1	-6,624383	274,064181	313,259362	0
15.01.2021	09:39:28	0	16,656517	3,954367	3,4575	10,8144	0,015	88,533	0	1013,6	6,7	8,7	8,5	1	1	1	1	1	1	1	1	1	0	1	-8,597604	274,029951	311,126363	0
15.01.2021	09:39:29	0	16,656517	5,084186	3,53775	13,9068	0,012	88,522	0	1013,62	6,7	8,7	8,5	1	1	1	1	1	1	1	1	1	0	1	-7,540521	274,028464	312,176506	0
15.01.2021	09:39:30	0	16,656633	3,276476	3,5595	7,128	0,015	88,537	0	1013,56	6,7	8,6	8,5	1	1	1	1	1	1	1	1	1	0	1	-5,990134	274,082064	313,977111	0
15.01.2021	09:39:31	0	16,894467	4,519277	3,5115	15,0192	0,016	88,531	0	1013,62	6,7	8,7	8,5	1	1	1	1	1	1	1	1	1	0	1	-5,567301	273,977979	313,914183	0
15.01.2021	09:39:32	0	16,656633	2,711566	3,3435	16,1208	0,008	88,519	0	1013,58	6,7	8,6	8,5	1	1	1	1	1	1	1	1	1	0	1	-10,147992	273,881831	308,885257	0
15.01.2021	09:39:33	0	16,656633	3,276476	3,19125	9,0144	0,012	88,529	0	1013,64	6,7	8,6	8,5	1	1	1	1	1	1	1	1	1	0	1	-3,453136	274,012117	316,187605	0
15.01.2021	09:39:34	0	16,775609	4,745241	3,39375	13,5432	0,009	88,533	0	1013,7	6,7	8,6	8,5	1	1	1	1	1	1	1	1	1	0	1	-8,738548	274,086537	311,249586	0
15.01.2021	09:39:35	0	16,775609	2,711566	3,357	12,0888	0,016	88,532	0	1013,7	6,7	8,6	8,5	1	1	1	1	1	1	1	1	1	0	1	-7,258633	273,989846	312,278206	0
15.01.2021	09:39:36	0	16,894585	4,519277	3,21	13,5288	0,007	88,521	0	1013,54	6,7	8,6	8,5	1	1	1	1	1	1	1	1	1	0	1	-3,24172	274,061202	316,628119	0
15.01.2021	09:39:37	0	17,132417	4,745241	3,11625	16,1928	0,016	88,522	0	1013,72	6,7	8,7	8,5	1	1	1	1	1	1	1	1	1	0	1	-6,20155	273,982429	313,300686	0
15.01.2021	09:39:38	0	16,894585	5,197168	3,11775	16,4592	0,012	88,525	0	1013,56	6,7	8,6	8,5	1	1	1	1	1	1	1	1	1	0	1	-6,553911	274,064181	313,329835	0
15.01.2021	09:39:39	0	16,894467	3,389437	3,057	13,1472	0,008	88,524	0	1013,64	6,7	8,7	8,6	1	1	1	1	1	1	1	1	1	0	1	-6,694856	273,988363	312,835061	0
15.01.2021	09:39:40	0	16,537657	2,711566	2,97975	18,1548	0,01	88,523	0	1013,7	6,7	8,6	8,5	1	1	1	1	1	1	1	1	1	0	1	-11,486963	274,076101	308,452439	0
15.01.2021	09:39:41	0	17,132537	3,050512	2,80425	15,7716	0,014	88,53	0	1013,6	6,7	8,6	8,5	1	1	1	1	1	1	1	1	1	0	1	-8,949965	273,939462	310,3519	0
15.01.2021	09:39:42	0	16,537542	4,067349	2,72925	16,1028	0,007	88,515	0	1013,54	6,7	8,7	8,5	1	1	1	1	1	1	1	1	1	0	1	-6,342495	273,932064	312,924877	0
15.01.2021	09:39:43	0	16,894585	2,711566	2,69175	14,2812	0,011	88,523	0	1013,64	6,7	8,6	8,5	1	1	1	1	1	1	1	1	1	0	1	-9,513742	274,061202	310,356096	0
15.01.2021	09:39:44	0	16,656517	3,615421	2,754	16,0956	0,013	88,529	0	1013,64	6,7	8,7	8,5	1	1	1	1	1	1	1	1	1	0	1	-6,8358	273,937982	312,459165	0
15.01.2021	09:39:45	0	17,132537	3,954367	2,8515	12,0888	0,016	88,54	0	1013,7	6,7	8,6	8,5	1	1	1	1	1	1	1	1	1	0	1	-7,540521	274,034413	312,204267	0
15.01.2021	09:39:46	0	16,775492	3,050512	2,84475	7,8768	0,029	88,541	0	1013,74	6,7	8,7	8,5	1	1	1	1	1	1	1	1	1	0	1	-8,597604	274,058223	311,25833	0
15.01.2021	09:39:47	0	16,775609	4,519277	2,9805	1,5444	0,008	88,513	0	1013,68	6,7	8,6	8,5	1	1	1	1	1	1	1	1	1	0	1	-7,188161	274,04185	312,591343	0
15.01.2021	09:39:48	0	16,537542	3,841385	3,07875	351,7812	0,012	88,526	0	1013,68	6,7	8,7	8,5	1	1	1	1	1	1	1	1	1	0	1	-4,792107	273,940942	314,516658	0
15.01.2021	09:39:49	0	16,894585	2,824548	3,06975	357,2532	0,009	88,516	0	1013,42	6,7	8,6	8,5	1	1	1	1	1	1	1	1	1	0	1	-15,926709	274,021032	303,755633	0
15.01.2021	09:39:50	0	16,894585	3,841385	2,949	348,7356	0,008	88,504	0	1013,68	6,7	8,6	8,5	1	1	1	1	1	1	1	1	1	0	1	-3,735025	274,052268	316,093107	0
15.01.2021	09:39:51	0	17,132537	2,711566	2,868	17,2224	0,014	88,517	0	1013,58	6,7	8,6	8,5	1	1	1	1	1	1	1	1	1	0	1	-7,399577	273,994298	312,15803	0
15.01.2021	09:39:52	0	17,013442	4,406295	2,73075	5,1984	0,011	88,52	0	1013,66	6,7	8,7	8,5	1	1	1	1	1	1	1	1	1	0	1	-5,21494	274,059713	314,647945	0
15.01.2021	09:39:53	0	17,013442	3,841385	2,6865	6,0408	0,008	88,515	0	1013,56	6,7	8,7	8,5	1	1	1	1	1	1	1	1	1	0	1	-1,902748	274,04185	317,876755	0
15.01.2021	09:39:54	0	16,656633	4,406295	2,72175	4,086	0,015	88,509	0	1013,72	6,7	8,6	8,5	1	1	1	1	1	1	1	1	1	0	1	-2,677942	274,064181	317,205804	0
15.01.2021	09:39:55	0	17,013561	3,728403	2,757	12,852	0,014	88,499	0	1013,62	6,7	8,6	8,5	1	1	1	1	1	1	1	1	1	0	1	-3,946441	273,932064	315,320931	0
15.01.2021	09:39:56	0	16,537657	4,519277	2,75475	11,1852	0,012	88,492	0	1013,62	6,6	8,6	8,5	1	1	1	1	1	1	1	1	1	0	1	-5,919662	274,077591	314,0267	0
15.01.2021	09:39:57	0	17,013561	3,163494	2,93475	9,36	0,01	88,511	0	1013,6	6,6	8,6	8,5	1	1	1	1	1	1	1	1	1	0	1	-3,382664	273,955749	315,99514	0
15.01.2021	09:39:58	0	16,656633	4,067325	2,79675	16,0884	0,007	88,504	0	1013,66	6,7	8,6	8,6	1	1	1	1	1	1	1	1	1	0	1	-5,003524	274,056734	314,845458	0
15.01.2021	09:39:59	0	16,894467	3,163494	2,712	10,0512	0,01	88,495	0	1013,5	6,7	8,7	8,5	1	1	1	1	1	1	1	1	1	0	1	-12,544045	274,025491	307,159107	0
15.01.2021	09:40:00	0	16,775609	3,728403	2,472	9,7452	0,015	88,508	0	1013,62	6,6	8,6	8,5	1	1	1	1	1	1	1	1	1	0	1	-4,298802	273,895115	314,796349	0
15.01.2021	09:40:01	0	16,775609	3,728403	2,472	9,7452	0,015	88,508	0	1013,62	6,6	8,6	8,5	1	1	1	1	1	1	1	1	1	0	1	-7,117689	274,00766	312,50226	0
15.01.2021	09:40:02	0	16,775492	4,406295	2,439	10,062	0,012	88,488	0	1013,62	6,7	8,7	8,5	1	1	1	1	1	1	1	1	1	0	1	-7,963354	274,06716	311,934301	0
15.01.2021	09:40:03	0	16,894585	4,406295	2,33475	0,8532	0,002	88,494	0	1013,6	6,7	8,6	8,5	1	1	1	1	1	1	1	1	1	0	1	-5,355884	273,946863	313,980488	0
15.01.2021	09:40:04	0	16,775492	2,937512	2,21775	16,11	0,014	88,503	0	1013,66	6,7	8,7	8,6	1	1	1	1	1	1	1	1	1	0	1	-6,553911	273,951305	312,803174	0
15.01.2021	09:40:05	0	17,132537	4,745241	2,2725	358,6968	0,008	88,509	0	1013,72	6,7	8,6	8,5	1	1	1	1	1	1	1	1	1	0	1	-7,82241	273,884782	311,22459	0
15.01.2021	09:40:06	0	17,132417	2,93753	2,42175	357,6888	0,017	88,509	0	1013,68	6,6	8,7	8,5	1	1	1	1	1	1	1	1	1	0	1	-6,624383	273,983912	312,884772	0
15.01.2021	09:40:07	0	16,894585	4,180331	2,505	3,7728	0,014	88,487	0	1013,5	6,6	8,6	8,5	1	1	1	1	1	1	1	1	1	0	1	-5,426357	274,07163	314,492169	0
15.01.2021	09:40:08	0	16,894585	2,93753	2,55375	360	0,013	88,507	0	1013,5	6,6	8,6	8,5	1	1	1	1	1	1	1	1	1	0	1	-7,258633	274,0359	312,493097	0
15.01.2021	09:40:09	0	17,132537	4,971175	2,526	4,4532	0,014	88,516	0	1013,64	6,7	8,6	8,6	1	1	1	1	1	1	1	1	1	0	1	-6,272023	274,074611	313,66042	0
15.01.2021	09:40:10	0	16,537542	4,406268	2,457	6,8148	0,014	88,497	0	1013,58	6,7	8,7	8,6	1	1	1	1	1	1	1	1	1	0	1	-6,20155	274,021032	313,480792	0
15.01.2021	09:40:11	0	16,775492	4,745241	2,316	9,4824	0,01	88,509	0	1013,6	6,7	8,7	8,5	1	1	1	1	1	1	1	1	1	0	1	-3,664553	274,086537	316,323582	0
15.01.2021	09:40:12	0	17,132417	3,050494	2,166	19,9152	0,011	88,485	0	1013,6	6,6	8,7	8,6	1	1	1	1	1	1	1	1	1	0	1	-5,355884	274,00766	314,264064	0
15.01.2021	09:40:13	0	16,775609	3,50244	2,12475	8,6112	0,014	88,509	0	1013,68	6,7	8,6	8,5	1	1	1	1	1	1	1	1	1	0	1	-5,496829	273,901022	313,625851	0
15.01.2021	09:40:14	0	16,894585	4,51925	2,019	16,092	0,012	88,513	0	1013,64	6,6	8,6	8,6	1	1	1	1	1	1	1	1	1	0	1	-7,751938	273,954267	311,618959	0
15.01.2021	09:40:15	0	16,656633	4,632231	1,91175	4,8348	0,013	88,519	0	1013,62	6,7	8,6	8,6	1	1	1	1	1	1	1	1	1	0	1	-6,060606	274,08952	313,941458	0
15.01.2021	09:40:16	0	16,894467	3,050494	2,007	4,0824	0,015	88,505	0	1013,5	6,7	8,7	8,6	1	1	1	1	1	1	1	1	1	0	1	-5,708245	274,019546	313,967162	0
15.01.2021	09:40:17	0	16,775609	2,598584	2,14275	1,5552	0,014	88,513	0	1013,7	6,7	8,6	8,5	1	1	1	1	1	1	1	1	1	0	1	-9,44327	274,079082	310,510052	0
15.01.2021	09:40:18	0	17,370367	4,745212	2,12025	9,7488	0,017	88,518	0	1013,64	6,7	8,7	8,6	1	1	1	1	1	1	1	1	1	0	1	-7,329105	274,001721	312,26313	0
15.01.2021	09:40:19	0	16,775492	4,180306	2,16075	6,0732	0,013	88,515	0	1013,66	6,6	8,7	8,6	1	1	1	1	1	1	1	1	1	0	1	-8,879493	274,06865	311,025119	0
15.01.2021	09:40:20	0	17,013561	4,632259	2,24625	10,4364	0,014	88,526	0	1013,6	6,7	8,6	8,5	1	1	1	1	1	1	1	1	1	0	1	-6,131078	273,96612	313,295091	0
15.01.2021	09:40:21	0	17,013561	4,971205	2,1795	5,2308	0,013	88,52	0	1013,62	6,7	8,6	8,5	1	1	1	1	1	1	1	1	1	0	1	-8,315715	273,935023	310,965452	0
15.01.2021	09:40:22	0	16,894585	3,728403	2,24175	8,9928	0,008	88,518	0	1013,66	6,7	8,6	8,5	1	1	1	1	1	1	1	1	1	0	1	-7,399577	274,021032	312,282765	0
15.01.2021	09:40:23	0	16,775492	2,937512	2,358	6,4296	0,014	88,527	0	1013,7	6,6	8,7	8,6	1	1	1	1	1	1	1	1	1	0	1	-7,892882	274,080573	312,067401	0
15.01.2021	09:40:24	0	17,013561	3,276456	2,4525	10,8108	0,016	88,516	0	1013,7	6,7	8,6	8,6	1	1	1	1	1	1	1	1	1	0	1	-5,144468	274,029951	314,579499	0
15.01.2021	09:40:25	0	16,775609	4,180331	2,47725	7,1352	0,015	88,513	0	1013,6	6,7	8,6	8,5	1	1	1	1	1	1	1	1	1	0	1	-8,949965	274,077591	310,996397	0
15.01.2021	09:40:26	0	16,775609	2,711566	2,457	11,7144	0,012	88,503	0	1013,58	6,7	8,6	8,5	1	1	1	1	1	1	1	1	1	0	1	-7,540521	274,038875	312,225094	0
15.01.2021	09:40:27	0	16,894467	3,841362	2,4585	15,948	0,005	88,516	0	1013,58	6,7	8,7	8,6	1	1	1	1	1	1	1	1	1	0	1	-8,033827	273,906931	311,116391	0
15.01.2021	09:40:28	0	16,656517	4,180331	2,49525	15,0264	0,015	88,521	0	1013,62	6,6	8,7	8,5	1	1	1	1	1	1	1	1	1	0	1	-4,157858	274,04185	315,621646	0
15.01.2021	09:40:29	0	17,251392	4,067349	2,571	13,1616	0,023	88,53	0	1013,82	6,7	8,7	8,5	1	1	1	1	1	1	1	1	1	0	1	-7,188161	274,04185	312,591343	0
15.01.2021	09:40:30	0	16,894467	4,519277	2,72175	7,902	0,008	88,522	0	1013,58	6,6	8,7	8,5	1	1	1	1	1	1	1	1	1	0	1	-8,245243	274,009146	311,381635	0
15.01.2021	09:40:31	0	16,656517	2,485602	2,8335	3,0348	0,013	88,513	0	1013,62	6,6	8,7	8,5	1	1	1	1	1	1	1	1	1	0	1	-9,090909	273,911364	310,07997	0
15.01.2021	09:40:32	0	17,132537	4,745212	2,85075	6,5268	0,01	88,526	0	1013,64	6,7	8,6	8,6	1	1	1	1	1	1	1	1	1	0	1	-7,047216	274,028464	312,669812	0
15.01.2021	09:40:33	0	16,775492	3,728381	2,75775	5,2128	0,008	88,513	0	1013,5	6,6	8,7	8,6	1	1	1	1	1	1	1	1	1	0	1	-3,171247	274,06865	316,733364	0
15.01.2021	09:40:34	0	17,132537	3,50244	2,62725	19,8828	0,012	88,539	0	1013,76	6,6	8,6	8,5	1	1	1	1	1	1	1	1	1	0	1	-7,82241	274,047803	311,984877	0
15.01.2021	09:40:35	0	16,656633	3,6154	2,55375	18,072	0,017	88,535	0	1013,76	6,6	8,6	8,6	1	1	1	1	1	1	1	1	1	0	1	-8,104299	274,038875	311,661317	0
15.01.2021	09:40:36	0	16,894585	3,728381	2,60625	17,6868	0,009	88,53	0	1013,66	6,6	8,6	8,6	1	1	1	1	1	1	1	1	1	0	1	-9,866103	274,062691	310,010689	0
15.01.2021	09:40:37	0	17,132417	2,824531	2,58975	16,11	0,01	88,539	0	1013,66	6,6	8,7	8,6	1	1	1	1	1	1	1	1	1	0	1	-9,936575	273,95723	309,448136	0
15.01.2021	09:40:38	0	17,132537	4,51925	2,41725	11,1924	0,013	88,527	0	1013,76	6,6	8,6	8,6	1	1	1	1	1	1	1	1	1	0	1	-1,902748	274,07163	318,015777	0
15.01.2021	09:40:39	0	16,894467	2,485602	2,3745	18,846	0,018	88,535	0	1013,78	6,6	8,7	8,5	1	1	1	1	1	1	1	1	1	0	1	-3,875969	273,909886	315,288022	0
15.01.2021	09:40:40	0	17,132417	2,824548	2,22075	10,818	0,011	88,533	0	1013,78	6,7	8,7	8,5	1	1	1	1	1	1	1	1	1	0	1	-10,570825	274,086537	309,41731	0
15.01.2021	09:40:41	0	16,894585	4,745212	2,34975	20,2752	0,014	88,523	0	1013,5	6,6	8,6	8,6	1	1	1	1	1	1	1	1	1	0	1	-10,570825	274,016574	309,090714	0
15.01.2021	09:40:42	0	17,251392	4,067349	2,40825	16,8552	0,011	88,541	0	1013,64	6,6	8,7	8,5	1	1	1	1	1	1	1	1	1	0	1	-7,892882	273,961674	311,512555	0
15.01.2021	09:40:43	0	16,894467	3,50244	2,418	1,1808	0,015	88,544	0	1013,76	6,6	8,7	8,5	1	1	1	1	1	1	1	1	1	0	1	-3,946441	274,024005	315,749773	0
15.01.2021	09:40:44	0	16,894585	4,293313	2,49675	9,7416	0,013	88,524	0	1013,76	6,6	8,6	8,5	1	1	1	1	1	1	1	1	1	0	1	-7,681466	273,948344	311,66181	0
15.01.2021	09:40:45	0	17,132417	4,406268	2,562	9,7488	0,012	88,534	0	1013,78	6,6	8,7	8,6	1	1	1	1	1	1	1	1	1	0	1	-5,637773	274,038875	314,127842	0
15.01.2021	09:40:46	0	16,894467	4,745212	2,5665	0,5004	0,009	88,522	0	1013,7	6,7	8,7	8,6	1	1	1	1	1	1	1	1	1	0	1	-6,342495	274,064181	313,541251	0
15.01.2021	09:40:47	0	17,370489	4,293287	2,655	359,8704	0,009	88,525	0	1013,68	6,6	8,6	8,6	1	1	1	1	1	1	1	1	1	0	1	-4,933051	274,037387	314,825621	0
15.01.2021	09:40:48	0	17,013442	5,197137	2,66325	13,1508	0,017	88,528	0	1013,66	6,7	8,7	8,6	1	1	1	1	1	1	1	1	1	0	1	-6,483439	274,082064	313,483806	0
15.01.2021	09:40:49	0	16,894467	2,93753	2,62575	11,196	0,01	88,54	0	1013,62	6,6	8,7	8,5	1	1	1	1	1	1	1	1	1	0	1	-7,329105	274,043338	312,457343	0
15.01.2021	09:40:50	0	16,894467	4,51925	2,63325	7,4844	0,006	88,531	0	1013,46	6,7	8,7	8,6	1	1	1	1	1	1	1	1	1	0	1	-10,147992	274,085046	309,833179	0
15.01.2021	09:40:51	0	17,251392	4,180331	2,9535	5,67	0,008	88,525	0	1013,62	6,6	8,7	8,5	1	1	1	1	1	1	1	1	1	0	1	-8,245243	274,013602	311,402429	0
15.01.2021	09:40:52	0	16,775609	4,632231	3,1425	3,0168	0,015	88,521	0	1013,62	6,7	8,6	8,6	1	1	1	1	1	1	1	1	1	0	1	-8,245243	273,899545	310,870553	0
15.01.2021	09:40:53	0	16,894467	3,728381	3,01575	5,2164	0,01	88,534	0	1013,72	6,6	8,7	8,6	1	1	1	1	1	1	1	1	1	0	1	-6,765328	274,031438	312,965579	0
15.01.2021	09:40:54	0	16,894585	2,824531	3,0285	1,9116	0,009	88,531	0	1013,56	6,6	8,6	8,6	1	1	1	1	1	1	1	1	1	0	1	-1,973221	274,086537	318,014914	0
15.01.2021	09:40:55	0	16,894585	3,728403	2,9145	12,8664	0,016	88,535	0	1013,58	6,7	8,6	8,5	1	1	1	1	1	1	1	1	1	0	1	-5,637773	273,951305	313,719312	0
15.01.2021	09:40:56	0	16,894585	2,71155	2,81775	7,884	0,013	88,544	0	1013,68	6,6	8,6	8,6	1	1	1	1	1	1	1	1	1	0	1	-2,396054	273,933543	316,878216	0
15.01.2021	09:40:57	0	17,132537	3,163475	2,76825	11,7252	0,012	88,542	0	1013,66	6,6	8,6	8,6	1	1	1	1	1	1	1	1	1	0	1	-6,412967	274,055245	313,429064	0
15.01.2021	09:40:58	0	17,013442	4,745241	2,664	13,1616	0,01	88,537	0	1013,7	6,7	8,7	8,5	1	1	1	1	1	1	1	1	1	0	1	-5,919662	274,0359	313,832068	0
15.01.2021	09:40:59	0	16,775609	2,711582	2,6595	13,9032	0,008	88,535	0	1013,58	6,6	8,6	8,4	1	1	1	1	1	1	1	1	1	0	1	-8,104299	273,917276	311,094137	0
15.01.2021	09:41:00	0	17,013561	2,93753	2,808	7,5168	0,015	88,544	0	1013,78	6,6	8,6	8,5	1	1	1	1	1	1	1	1	1	0	1	-7,470049	274,032925	312,267798	0
15.01.2021	09:41:01	0	17,013561	2,93753	2,808	7,5168	0,015	88,544	0	1013,78	6,6	8,6	8,5	1	1	1	1	1	1	1	1	1	0	1	-8,738548	273,912842	310,439219	0
15.01.2021	09:41:02	0	17,370367	3,6154	2,757	6,1596	0,008	88,535	0	1013,58	6,6	8,7	8,6	1	1	1	1	1	1	1	1	1	0	1	-8,597604	273,949825	310,752577	0
15.01.2021	09:41:03	0	17,132417	4,180331	2,77875	8,9964	0,019	88,553	0	1013,72	6,6	8,7	8,5	1	1	1	1	1	1	1	1	1	0	1	-7,258633	274,079082	312,694689	0
15.01.2021	09:41:04	0	17,013561	3,050512	2,91825	2,628	0,016	88,545	0	1013,6	6,6	8,6	8,5	1	1	1	1	1	1	1	1	1	0	1	-9,020437	273,926147	310,219353	0
15.01.2021	09:41:05	0	17,013442	3,50244	3,07125	10,0692	0,016	88,548	0	1013,72	6,6	8,7	8,5	1	1	1	1	1	1	1	1	1	0	1	-5,778717	274,026978	313,931372	0
15.01.2021	09:41:06	0	17,132537	4,745241	3,21225	9,7416	0,004	88,536	0	1013,52	6,6	8,6	8,5	1	1	1	1	1	1	1	1	1	0	1	-6,483439	274,083555	313,490769	0
15.01.2021	09:41:07	0	17,251392	3,6154	3,186	8,2584	0,016	88,544	0	1013,7	6,6	8,7	8,6	1	1	1	1	1	1	1	1	1	0	1	-7,258633	273,988363	312,271284	0
15.01.2021	09:41:08	0	17,370367	4,293287	3,0255	16,8444	0,015	88,552	0	1013,72	6,6	8,7	8,6	1	1	1	1	1	1	1	1	1	0	1	-10,711769	274,086537	309,276366	0
15.01.2021	09:41:09	0	17,132417	4,632259	2,8275	12,8628	0,011	88,544	0	1013,64	6,6	8,7	8,5	1	1	1	1	1	1	1	1	1	0	1	-7,329105	273,963156	312,083243	0
15.01.2021	09:41:10	0	17,132417	4,519277	2,90325	8,6148	0,015	88,535	0	1013,6	6,6	8,7	8,5	1	1	1	1	1	1	1	1	1	0	1	-6,412967	273,929105	312,840613	0
15.01.2021	09:41:11	0	16,894467	3,389437	2,9835	8,2548	0,017	88,548	0	1013,74	6,6	8,7	8,6	1	1	1	1	1	1	1	1	1	0	1	-9,231853	273,979462	310,256547	0
15.01.2021	09:41:12	0	16,894467	3,841362	3,144	4,086	0,015	88,545	0	1013,64	6,6	8,7	8,6	1	1	1	1	1	1	1	1	1	0	1	-7,117689	273,917276	312,080747	0
15.01.2021	09:41:13	0	17,489342	5,084186	3,22725	10,4328	0,01	88,546	0	1013,7	6,7	8,7	8,5	1	1	1	1	1	1	1	1	1	0	1	-11,980268	274,010631	307,653541	0
15.01.2021	09:41:14	0	17,132417	4,632259	3,18825	8,6148	0,015	88,552	0	1013,76	6,7	8,7	8,5	1	1	1	1	1	1	1	1	1	0	1	-6,272023	273,940942	313,036742	0
15.01.2021	09:41:15	0	17,251392	4,858223	3,2775	7,1208	0,011	88,542	0	1013,6	6,6	8,7	8,5	1	1	1	1	1	1	1	1	1	0	1	-15,433404	274,04185	304,346099	0
15.01.2021	09:41:16	0	17,013442	3,954367	3,426	9,36	0,019	88,547	0	1013,7	6,6	8,7	8,5	1	1	1	1	1	1	1	1	1	0	1	-0,634249	274,053757	319,200832	0
15.01.2021	09:41:17	0	16,775492	3,050494	3,3645	5,6808	0,012	88,554	0	1013,64	6,6	8,7	8,6	1	1	1	1	1	1	1	1	1	0	1	-6,553911	273,943903	312,768656	0
15.01.2021	09:41:18	0	17,132417	3,615421	3,1635	10,8144	0,016	88,549	0	1013,66	6,7	8,7	8,5	1	1	1	1	1	1	1	1	1	0	1	-6,906272	273,96612	312,519898	0
15.01.2021	09:41:19	0	17,132417	3,50244	3,012	14,2956	0,013	88,527	0	1013,68	6,6	8,7	8,5	1	1	1	1	1	1	1	1	1	0	1	-5,778717	274,095487	314,251214	0
15.01.2021	09:41:20	0	17,013561	4,067325	2,7735	5,22	0,01	88,549	0	1013,68	6,6	8,6	8,6	1	1	1	1	1	1	1	1	1	0	1	-3,312192	274,034413	316,432597	0
15.01.2021	09:41:21	0	16,894467	3,276495	2,85375	7,4988	0,014	88,554	0	1013,7	6,6	8,7	8,4	1	1	1	1	1	1	1	1	1	0	1	-5,144468	273,912842	314,033299	0
15.01.2021	09:41:22	0	16,894467	3,841385	3,05775	10,8072	0,01	88,553	0	1013,62	6,6	8,7	8,5	1	1	1	1	1	1	1	1	1	0	1	-8,174771	273,977979	311,306712	0
15.01.2021	09:41:23	0	17,132537	2,824548	3,153	13,158	0,015	88,547	0	1013,64	6,6	8,6	8,5	1	1	1	1	1	1	1	1	1	0	1	-9,936575	274,091012	310,072455	0
15.01.2021	09:41:24	0	16,894467	3,728381	3,04725	13,554	0,015	88,537	0	1013,78	6,6	8,7	8,6	1	1	1	1	1	1	1	1	1	0	1	-8,033827	273,983912	311,475329	0
15.01.2021	09:41:25	0	17,013442	4,067325	2,9595	9,3636	0,01	88,555	0	1013,78	6,6	8,7	8,6	1	1	1	1	1	1	1	1	1	0	1	-5,637773	274,085046	314,343398	0
15.01.2021	09:41:26	0	17,132417	2,485587	2,91825	12,8556	0,011	88,545	0	1013,68	6,6	8,7	8,6	1	1	1	1	1	1	1	1	1	0	1	-7,188161	274,015088	312,466445	0
15.01.2021	09:41:27	0	17,013561	4,971175	2,95875	7,1208	0,017	88,558	0	1013,82	6,6	8,6	8,6	1	1	1	1	1	1	1	1	1	0	1	-10,782241	274,08952	309,219823	0
15.01.2021	09:41:28	0	17,013442	4,180331	3,06375	9,7488	0,008	88,539	0	1013,64	6,6	8,7	8,5	1	1	1	1	1	1	1	1	1	0	1	-5,919662	273,960193	313,478867	0
15.01.2021	09:41:29	0	17,013561	4,971234	3,02625	12,8484	0,016	88,545	0	1013,7	6,6	8,6	8,4	1	1	1	1	1	1	1	1	1	0	1	-7,399577	274,044826	312,393817	0
15.01.2021	09:41:30	0	17,370367	4,745212	2,898	10,8144	0,013	88,531	0	1013,52	6,6	8,7	8,6	1	1	1	1	1	1	1	1	1	0	1	-5,496829	273,906931	313,653389	0
15.01.2021	09:41:31	0	17,013442	2,37262	2,85075	9,7452	0,02	88,558	0	1013,7	6,6	8,7	8,5	1	1	1	1	1	1	1	1	1	0	1	-3,030303	274,022518	316,658975	0
15.01.2021	09:41:32	0	17,013442	4,293313	2,82525	3,7656	0,018	88,55	0	1013,74	6,6	8,7	8,5	1	1	1	1	1	1	1	1	1	0	1	-2,60747	274,088029	317,387629	0
15.01.2021	09:41:33	0	17,132417	4,406295	2,6805	9,7488	0,013	88,54	0	1013,66	6,6	8,7	8,5	1	1	1	1	1	1	1	1	1	0	1	-3,24172	273,967602	316,191362	0
15.01.2021	09:41:34	0	17,132417	4,858223	2,5395	0,1332	0,011	88,55	0	1013,56	6,6	8,7	8,5	1	1	1	1	1	1	1	1	1	0	1	-4,369274	274,091012	315,639756	0
15.01.2021	09:41:35	0	17,013442	3,276456	2,53575	7,5024	0,016	88,53	0	1013,66	6,7	8,7	8,6	1	1	1	1	1	1	1	1	1	0	1	-8,597604	274,003205	311,001558	0
15.01.2021	09:41:36	0	17,132417	3,276476	2,619	8,9964	0,014	88,564	0	1013,74	6,6	8,7	8,5	1	1	1	1	1	1	1	1	1	0	1	-7,258633	273,917276	311,939803	0
15.01.2021	09:41:37	0	17,370367	2,711566	2,73075	16,1172	0,011	88,558	0	1013,68	6,6	8,7	8,5	1	1	1	1	1	1	1	1	1	0	1	-7,82241	273,980945	311,672908	0
15.01.2021	09:41:38	0	17,132417	2,937512	2,90475	11,7432	0,017	88,55	0	1013,62	6,6	8,7	8,6	1	1	1	1	1	1	1	1	1	0	1	-8,033827	274,076101	311,905575	0
15.01.2021	09:41:39	0	17,013561	3,389458	3,24375	10,4472	0,012	88,566	0	1013,62	6,6	8,6	8,5	1	1	1	1	1	1	1	1	1	0	1	-5,285412	274,07014	314,626156	0
15.01.2021	09:41:40	0	16,894467	4,067349	3,43425	7,5024	0,012	88,558	0	1013,68	6,6	8,7	8,5	1	1	1	1	1	1	1	1	1	0	1	-7,470049	273,977979	312,011434	0
15.01.2021	09:41:41	0	17,132417	3,050494	3,55725	10,8144	0,011	88,558	0	1013,7	6,6	8,7	8,6	1	1	1	1	1	1	1	1	1	0	1	-3,100775	273,917276	316,09766	0
15.01.2021	09:41:42	0	17,370367	4,745241	3,66225	6,8148	0,015	88,552	0	1013,7	6,6	8,7	8,5	1	1	1	1	1	1	1	1	1	0	1	-7,681466	274,019546	311,993941	0
15.01.2021	09:41:43	0	17,132417	2,71155	3,63675	5,688	0,015	88,554	0	1013,56	6,6	8,7	8,6	1	1	1	1	1	1	1	1	1	0	1	-9,654686	274,08952	310,347378	0
15.01.2021	09:41:44	0	17,370489	4,519277	3,537	14,292	0,016	88,559	0	1013,68	6,6	8,6	8,5	1	1	1	1	1	1	1	1	1	0	1	-12,191684	274,056734	307,657298	0
15.01.2021	09:41:45	0	17,132417	3,050494	3,49425	8,6076	0,013	88,558	0	1013,7	6,6	8,7	8,6	1	1	1	1	1	1	1	1	1	0	1	-3,875969	274,019546	315,799438	0
15.01.2021	09:41:46	0	17,132417	3,6154	3,32175	0,1224	0,01	88,559	0	1013,68	6,6	8,7	8,6	1	1	1	1	1	1	1	1	1	0	1	-7,681466	273,895115	311,413685	0
15.01.2021	09:41:47	0	17,013442	2,824531	3,2355	9,7344	0,01	88,563	0	1013,78	6,6	8,7	8,6	1	1	1	1	1	1	1	1	1	0	1	-2,959831	273,972049	316,493991	0
15.01.2021	09:41:48	0	17,370367	3,841408	3,02175	359,5824	0,013	88,546	0	1013,66	6,6	8,7	8,4	1	1	1	1	1	1	1	1	1	0	1	-4,298802	273,924668	314,934094	0
15.01.2021	09:41:49	0	17,489342	2,824548	2,97	5,67	0,012	88,56	0	1013,62	6,6	8,7	8,5	1	1	1	1	1	1	1	1	1	0	1	-5,567301	273,979462	313,9211	0
15.01.2021	09:41:50	0	17,132417	2,598569	2,93325	2,646	0,017	88,557	0	1013,7	6,6	8,7	8,6	1	1	1	1	1	1	1	1	1	0	1	-4,157858	273,91432	315,026798	0
15.01.2021	09:41:51	0	17,489342	3,276456	2,86575	358,3188	0,013	88,542	0	1013,62	6,6	8,7	8,6	1	1	1	1	1	1	1	1	1	0	1	-7,751938	273,975014	311,715713	0
15.01.2021	09:41:52	0	17,251392	4,406295	2,8755	356,598	0,012	88,56	0	1013,68	6,6	8,7	8,5	1	1	1	1	1	1	1	1	1	0	1	-4,510218	274,07014	315,40135	0
15.01.2021	09:41:53	0	17,370367	4,858193	2,9505	358,7832	0,015	88,544	0	1013,62	6,6	8,7	8,6	1	1	1	1	1	1	1	1	1	0	1	-10,641297	273,988363	308,88862	0
15.01.2021	09:41:54	0	17,132417	2,71155	3,078	10,4292	0,014	88,549	0	1013,72	6,6	8,7	8,6	1	1	1	1	1	1	1	1	1	0	1	-9,584214	274,091012	310,424816	0
15.01.2021	09:41:55	0	17,489342	3,954367	3,30675	8,982	0,005	88,548	0	1013,64	6,6	8,7	8,5	1	1	1	1	1	1	1	1	1	0	1	-4,510218	274,047803	315,297069	0
15.01.2021	09:41:56	0	17,132537	2,598584	3,23775	8,5968	0,021	88,624	0	1013,64	6,6	8,6	8,5	1	1	1	1	1	1	1	1	1	0	1	-9,44327	273,988363	310,086647	0
15.01.2021	09:41:57	0	17,251392	4,293287	3,27525	1,9044	0,017	88,562	0	1013,76	6,6	8,7	8,6	1	1	1	1	1	1	1	1	1	0	1	-7,329105	273,856763	311,587359	0
15.01.2021	09:41:58	0	17,251392	3,163475	3,50175	357,3432	0,02	88,562	0	1013,58	6,6	8,7	8,6	1	1	1	1	1	1	1	1	1	0	1	-10,42988	274,07312	309,495604	0
15.01.2021	09:41:59	0	17,608318	4,180331	3,5355	354,3228	0,018	88,563	0	1013,62	6,6	8,7	8,5	1	1	1	1	1	1	1	1	1	0	1	-10,007047	274,080573	309,953236	0
15.01.2021	09:42:00	0	17,489342	3,389458	3,5445	358,7688	0,01	88,558	0	1013,62	6,6	8,7	8,5	1	1	1	1	1	1	1	1	1	0	1	-9,936575	274,012117	309,704166	0
15.01.2021	09:42:01	0	17,489342	3,389458	3,5445	358,7688	0,01	88,558	0	1013,62	6,6	8,7	8,5	1	1	1	1	1	1	1	1	1	0	1	-9,936575	274,012117	309,704166	0
15.01.2021	09:42:02	0	17,251392	4,858223	3,62175	3,384	0,007	88,553	0	1013,58	6,6	8,7	8,5	1	1	1	1	1	1	1	1	1	0	1	-8,45666	274,077591	311,489702	0
15.01.2021	09:42:03	0	17,370367	4,745212	3,63975	355,4856	0,013	88,557	0	1013,66	6,6	8,7	8,6	1	1	1	1	1	1	1	1	1	0	1	-8,104299	274,032925	311,633548	0
15.01.2021	09:42:04	0	17,370367	4,406268	3,39675	4,8204	0,014	88,565	0	1013,7	6,6	8,7	8,6	1	1	1	1	1	1	1	1	1	0	1	-8,104299	273,921711	311,114811	0
15.01.2021	09:42:05	0	17,608318	3,050494	3,27075	8,6004	0,015	88,569	0	1013,66	6,6	8,7	8,6	1	1	1	1	1	1	1	1	1	0	1	-7,329105	274,000236	312,256203	0
15.01.2021	09:42:06	0	17,370367	4,858193	3,08475	5,67	0,014	88,548	0	1013,52	6,6	8,7	8,6	1	1	1	1	1	1	1	1	1	0	1	-8,949965	274,083555	311,024243	0
15.01.2021	09:42:07	0	17,489342	3,502419	2,93925	11,2032	0,012	88,553	0	1013,46	6,6	8,7	8,6	1	1	1	1	1	1	1	1	1	0	1	-4,157858	273,943903	315,16471	0
15.01.2021	09:42:08	0	17,251392	2,711582	2,81925	5,6772	0,016	88,564	0	1013,68	6,6	8,7	8,4	1	1	1	1	1	1	1	1	1	0	1	-7,188161	274,058223	312,667773	0
15.01.2021	09:42:09	0	17,489342	3,728381	2,6835	18,0828	0,013	88,567	0	1013,74	6,6	8,7	8,6	1	1	1	1	1	1	1	1	1	0	1	-5,708245	274,04185	314,071258	0
15.01.2021	09:42:10	0	17,370367	5,31015	2,5485	10,4364	0,009	88,562	0	1013,6	6,6	8,7	8,5	1	1	1	1	1	1	1	1	1	0	1	-5,708245	273,940942	313,600519	0
15.01.2021	09:42:11	0	17,251392	3,615421	2,556	7,1244	0,017	88,565	0	1013,6	6,6	8,7	8,5	1	1	1	1	1	1	1	1	1	0	1	-5,919662	273,926147	313,320128	0
15.01.2021	09:42:12	0	17,608318	3,841385	2,59425	8,2512	0,014	88,571	0	1013,8	6,6	8,7	8,5	1	1	1	1	1	1	1	1	1	0	1	-4,721635	274,012117	314,919106	0
15.01.2021	09:42:13	0	17,251392	3,389458	2,6415	13,914	0,013	88,582	0	1013,64	6,7	8,7	8,5	1	1	1	1	1	1	1	1	1	0	1	-9,090909	273,921711	310,128201	0
15.01.2021	09:42:14	0	17,489342	2,93753	2,90625	3,384	0,007	88,575	0	1013,56	6,6	8,7	8,5	1	1	1	1	1	1	1	1	1	0	1	-4,016913	274,064181	315,866832	0
15.01.2021	09:42:15	0	17,608318	3,050512	2,9865	9,7452	0,017	88,573	0	1013,66	6,6	8,7	8,5	1	1	1	1	1	1	1	1	1	0	1	-8,45666	274,050779	311,364523	0
15.01.2021	09:42:16	0	17,608318	4,858223	3,16275	8,9856	0,019	88,579	0	1013,72	6,6	8,7	8,5	1	1	1	1	1	1	1	1	1	0	1	-12,332629	274,06567	307,558072	0
15.01.2021	09:42:17	0	17,132297	4,745241	3,336	7,8696	0,015	88,575	0	1013,58	6,6	8,8	8,5	1	1	1	1	1	1	1	1	1	0	1	-4,651163	274,032925	315,086684	0
15.01.2021	09:42:18	0	17,251392	2,598584	3,513	1,5624	0,013	88,561	0	1013,68	6,6	8,7	8,5	1	1	1	1	1	1	1	1	1	0	1	-5,567301	274,088029	314,427798	0
15.01.2021	09:42:19	0	17,251392	4,519304	3,60375	0,4968	0,011	88,568	0	1013,68	6,6	8,7	8,4	1	1	1	1	1	1	1	1	1	0	1	-8,668076	274,026978	311,042013	0
15.01.2021	09:42:20	0	17,489342	4,632231	3,675	0,8784	0,008	88,581	0	1013,7	6,6	8,7	8,6	1	1	1	1	1	1	1	1	1	0	1	-7,610994	274,083555	312,363214	0
15.01.2021	09:42:21	0	17,608318	4,180331	3,67125	349,4808	0,01	88,558	0	1013,54	6,6	8,7	8,5	1	1	1	1	1	1	1	1	1	0	1	-5,637773	274,012117	314,002967	0
15.01.2021	09:42:22	0	17,608441	4,632259	3,624	354,0492	0,018	88,584	0	1013,64	6,6	8,6	8,5	1	1	1	1	1	1	1	1	1	0	1	-5,496829	273,912842	313,680938	0
15.01.2021	09:42:23	0	17,132417	2,824548	3,5445	354,6684	0,016	88,564	0	1013,66	6,6	8,7	8,5	1	1	1	1	1	1	1	1	1	0	1	-5,637773	274,06567	314,252927	0
15.01.2021	09:42:24	0	17,251392	3,50244	3,39675	354,312	0,013	88,573	0	1013,62	6,6	8,7	8,5	1	1	1	1	1	1	1	1	1	0	1	-11,980268	273,927626	307,266417	0
15.01.2021	09:42:25	0	17,727293	4,406295	3,2685	349,398	0,01	88,558	0	1013,62	6,6	8,7	8,5	1	1	1	1	1	1	1	1	1	0	1	-7,047216	274,021032	312,635126	0
15.01.2021	09:42:26	0	17,489342	3,615421	3,228	351,0108	0,015	88,565	0	1013,62	6,6	8,7	8,5	1	1	1	1	1	1	1	1	1	0	1	-7,047216	273,927626	312,199468	0
15.01.2021	09:42:27	0	17,370489	4,293313	3,14175	7,11	0,016	88,571	0	1013,68	6,6	8,6	8,5	1	1	1	1	1	1	1	1	1	0	1	-3,24172	273,930585	316,018756	0
15.01.2021	09:42:28	0	17,608318	3,841385	2,979	359,7768	0,009	88,548	0	1013,68	6,6	8,7	8,5	1	1	1	1	1	1	1	1	1	0	1	-5,355884	273,935023	313,925283	0
15.01.2021	09:42:29	0	17,489342	3,615421	2,9925	356,8464	0,006	88,545	0	1013,54	6,6	8,7	8,5	1	1	1	1	1	1	1	1	1	0	1	-9,44327	274,024005	310,252945	0
15.01.2021	09:42:30	0	17,608318	4,519277	3,17925	349,83	0,018	88,581	0	1013,7	6,6	8,7	8,5	1	1	1	1	1	1	1	1	1	0	1	-7,892882	274,107427	312,192814	0
15.01.2021	09:42:31	0	17,251392	4,067325	3,189	1,5444	0,015	88,548	0	1013,56	6,6	8,7	8,6	1	1	1	1	1	1	1	1	1	0	1	-7,329105	274,029951	312,394862	0
15.01.2021	09:42:32	0	17,132417	4,180356	2,96775	0,486	0,015	88,571	0	1013,66	6,7	8,7	8,4	1	1	1	1	1	1	1	1	1	0	1	-5,84919	274,104441	314,222562	0
15.01.2021	09:42:33	0	17,013442	3,728426	2,93775	2,3004	0,014	88,564	0	1013,64	6,6	8,7	8,4	1	1	1	1	1	1	1	1	1	0	1	-7,540521	274,092503	312,475475	0
15.01.2021	09:42:34	0	17,608318	4,067349	2,79525	349,8948	0,018	88,569	0	1013,66	6,6	8,7	8,5	1	1	1	1	1	1	1	1	1	0	1	-4,580691	273,954267	314,790207	0
15.01.2021	09:42:35	0	17,727293	4,632259	2,43825	355,4928	0,016	88,563	0	1013,74	6,6	8,7	8,5	1	1	1	1	1	1	1	1	1	0	1	-6,624383	274,056734	313,224599	0
15.01.2021	09:42:36	0	17,370367	4,971205	2,301	351,3204	0,018	88,582	0	1013,58	6,6	8,7	8,5	1	1	1	1	1	1	1	1	1	0	1	-2,748414	274,07163	317,170111	0
15.01.2021	09:42:37	0	17,489342	3,615421	2,343	355,4496	0,014	88,582	0	1013,68	6,6	8,7	8,5	1	1	1	1	1	1	1	1	1	0	1	-5,426357	274,080573	314,533927	0
15.01.2021	09:42:38	0	17,132417	2,711566	2,39775	354,3336	0,018	88,572	0	1013,62	6,6	8,7	8,5	1	1	1	1	1	1	1	1	1	0	1	-4,792107	274,046314	315,008233	0
15.01.2021	09:42:39	0	17,608318	3,50244	2,35725	351,3384	0,015	88,572	0	1013,6	6,6	8,7	8,5	1	1	1	1	1	1	1	1	1	0	1	-2,396054	273,932064	316,871318	0
15.01.2021	09:42:40	0	17,370367	5,310182	2,34225	356,2308	0,014	88,572	0	1013,64	6,6	8,7	8,4	1	1	1	1	1	1	1	1	1	0	1	-9,302326	274,012117	310,338415	0
15.01.2021	09:42:41	0	17,370367	3,954344	2,382	358,452	0,014	88,584	0	1013,68	6,6	8,7	8,6	1	1	1	1	1	1	1	1	1	0	1	-8,45666	273,917276	310,741776	0
15.01.2021	09:42:42	0	17,489342	2,93753	2,47875	1,548	0,007	88,553	0	1013,64	6,6	8,7	8,5	1	1	1	1	1	1	1	1	1	0	1	-0,493305	274,019546	319,182102	0
15.01.2021	09:42:43	0	17,608318	2,71155	2,3385	359,856	0,014	88,56	0	1013,62	6,6	8,7	8,6	1	1	1	1	1	1	1	1	1	0	1	-5,637773	273,927626	313,608911	0
15.01.2021	09:42:44	0	17,370367	3,50244	2,3355	10,0476	0,015	88,586	0	1013,56	6,6	8,7	8,5	1	1	1	1	1	1	1	1	1	0	1	-10,570825	274,050779	309,250358	0
15.01.2021	09:42:45	0	17,370367	4,858193	2,32275	360	0,015	88,579	0	1013,64	6,6	8,7	8,6	1	1	1	1	1	1	1	1	1	0	1	-8,245243	274,07163	311,673283	0
15.01.2021	09:42:46	0	17,608318	4,293313	2,17275	15,3972	0,014	88,579	0	1013,66	6,6	8,7	8,5	1	1	1	1	1	1	1	1	1	0	1	-7,82241	274,101456	312,235399	0
15.01.2021	09:42:47	0	17,370367	2,937512	2,21025	6,0516	0,018	88,585	0	1013,74	6,6	8,7	8,6	1	1	1	1	1	1	1	1	1	0	1	-7,892882	273,939462	311,408982	0
15.01.2021	09:42:48	0	17,251392	2,93753	2,20425	3,7728	0,018	88,569	0	1013,76	6,6	8,7	8,5	1	1	1	1	1	1	1	1	1	0	1	-7,329105	274,082064	312,63814	0
15.01.2021	09:42:49	0	17,251392	3,6154	2,139	0,8568	0,022	88,594	0	1013,76	6,6	8,7	8,6	1	1	1	1	1	1	1	1	1	0	1	-2,889359	274,050779	316,931824	0
15.01.2021	09:42:50	0	17,489342	4,858223	2,0475	7,5096	0,014	88,592	0	1013,7	6,6	8,7	8,5	1	1	1	1	1	1	1	1	1	0	1	-6,412967	273,926147	312,826823	0
15.01.2021	09:42:51	0	17,489342	4,293313	1,9995	359,1468	0,012	88,588	0	1013,68	6,6	8,7	8,5	1	1	1	1	1	1	1	1	1	0	1	-6,412967	274,019546	313,26244	0
15.01.2021	09:42:52	0	17,251392	4,406295	1,9485	11,2032	0,015	88,588	0	1013,74	6,7	8,7	8,5	1	1	1	1	1	1	1	1	1	0	1	-7,470049	274,099963	312,580789	0
15.01.2021	09:42:53	0	17,370367	4,406295	1,85625	3,852	0,015	88,582	0	1013,68	6,6	8,7	8,5	1	1	1	1	1	1	1	1	1	0	1	-7,047216	274,058223	312,808717	0
15.01.2021	09:42:54	0	17,489342	2,598584	1,95375	357,6276	0,016	88,588	0	1013,58	6,6	8,7	8,5	1	1	1	1	1	1	1	1	1	0	1	-5,144468	273,918754	314,060858	0
15.01.2021	09:42:55	0	17,608318	4,858223	2,1015	356,1804	0,014	88,567	0	1013,56	6,6	8,7	8,5	1	1	1	1	1	1	1	1	1	0	1	-4,580691	273,988363	314,949226	0
15.01.2021	09:42:56	0	17,251392	2,711566	2,20575	359,0496	0,018	88,595	0	1013,66	6,7	8,7	8,5	1	1	1	1	1	1	1	1	1	0	1	-5,073996	273,915798	314,11755	0
15.01.2021	09:42:57	0	17,846268	3,841385	2,1915	355,4208	0,015	88,593	0	1013,64	6,6	8,7	8,5	1	1	1	1	1	1	1	1	1	0	1	-1,832276	274,038875	317,933339	0
15.01.2021	09:42:58	0	17,251392	2,824548	2,10975	357,6348	0,02	88,592	0	1013,64	6,6	8,7	8,5	1	1	1	1	1	1	1	1	1	0	1	-2,677942	274,091012	317,331088	0
15.01.2021	09:42:59	0	17,489342	3,276476	1,9995	2,2896	0,015	88,589	0	1013,6	6,7	8,7	8,5	1	1	1	1	1	1	1	1	1	0	1	-4,721635	274,025491	314,981517	0
15.01.2021	09:43:00	0	17,846268	3,163494	2,04	360	0,015	88,601	0	1013,48	6,6	8,7	8,5	1	1	1	1	1	1	1	1	1	0	1	-6,060606	274,046314	313,739734	0
15.01.2021	09:43:01	0	17,846268	3,163494	2,04	360	0,015	88,601	0	1013,48	6,6	8,7	8,5	1	1	1	1	1	1	1	1	1	0	1	-6,060606	274,046314	313,739734	0
15.01.2021	09:43:02	0	17,251392	4,180331	2,442	1,9152	0,017	88,608	0	1013,64	6,6	8,7	8,5	1	1	1	1	1	1	1	1	1	0	1	-4,439746	274,093995	315,583217	0
15.01.2021	09:43:03	0	17,370367	4,406295	2,7135	4,8312	0,017	88,595	0	1013,66	6,7	8,7	8,5	1	1	1	1	1	1	1	1	1	0	1	-3,664553	273,986879	315,858443	0
15.01.2021	09:43:04	0	17,489342	4,519277	2,55675	354,0636	0,019	88,602	0	1013,64	6,6	8,7	8,5	1	1	1	1	1	1	1	1	1	0	1	-3,312192	274,077591	316,63417	0
15.01.2021	09:43:05	0	17,489342	4,632259	2,4765	6,8112	0,017	88,607	0	1013,62	6,6	8,7	8,5	1	1	1	1	1	1	1	1	1	0	1	-11,839323	274,102948	308,225456	0
15.01.2021	09:43:06	0	17,251392	3,841362	2,3475	346,5792	0,017	88,622	0	1013,6	6,7	8,7	8,6	1	1	1	1	1	1	1	1	1	0	1	-4,369274	274,088029	315,625825	0
15.01.2021	09:43:07	0	17,846268	4,745241	2,17575	337,1292	0,014	88,619	0	1013,58	6,6	8,7	8,5	1	1	1	1	1	1	1	1	1	0	1	-3,59408	274,07014	316,317488	0
15.01.2021	09:43:08	0	17,489342	4,293313	2,04675	348,264	0,014	88,61	0	1013,52	6,7	8,7	8,5	1	1	1	1	1	1	1	1	1	0	1	-7,188161	273,980945	312,307158	0
15.01.2021	09:43:09	0	17,727417	4,632259	2,0565	354,0564	0,017	88,601	0	1013,66	6,7	8,6	8,5	1	1	1	1	1	1	1	1	1	0	1	-4,298802	274,08952	315,703262	0
15.01.2021	09:43:10	0	17,489342	3,841385	2,046	354,006	0,016	88,601	0	1013,7	6,6	8,7	8,5	1	1	1	1	1	1	1	1	1	0	1	-7,329105	273,942422	311,986561	0
15.01.2021	09:43:11	0	17,608318	4,293313	2,17125	4,8168	0,02	88,61	0	1013,66	6,7	8,7	8,5	1	1	1	1	1	1	1	1	1	0	1	-5,567301	273,935023	313,713866	0
15.01.2021	09:43:12	0	17,489342	4,745241	2,3535	5,2956	0,017	88,619	0	1013,72	6,6	8,7	8,5	1	1	1	1	1	1	1	1	1	0	1	-6,624383	274,079082	313,328939	0
15.01.2021	09:43:13	0	17,846268	3,389458	2,4285	360	0,012	88,624	0	1013,56	6,7	8,7	8,5	1	1	1	1	1	1	1	1	1	0	1	-11,205074	274,079082	308,748248	0
15.01.2021	09:43:14	0	17,489342	3,163475	2,42625	4,4748	0,014	88,618	0	1013,74	6,6	8,7	8,6	1	1	1	1	1	1	1	1	1	0	1	-8,949965	274,040363	310,822594	0
15.01.2021	09:43:15	0	17,608441	2,824548	2,4075	13,914	0,018	88,629	0	1013,64	6,6	8,6	8,5	1	1	1	1	1	1	1	1	1	0	1	-3,030303	273,926147	316,209487	0
15.01.2021	09:43:16	0	17,489342	4,519277	2,358	16,0812	0,022	88,619	0	1013,62	6,6	8,7	8,5	1	1	1	1	1	1	1	1	1	0	1	-3,664553	274,0359	316,087178	0
15.01.2021	09:43:17	0	17,846268	3,389458	2,14575	9,7272	0,02	88,602	0	1013,64	6,6	8,7	8,5	1	1	1	1	1	1	1	1	1	0	1	-6,906272	273,970566	312,540635	0
15.01.2021	09:43:18	0	17,608318	4,971205	2,061	7,8696	0,021	88,629	0	1013,7	6,6	8,7	8,5	1	1	1	1	1	1	1	1	1	0	1	-8,174771	274,088029	311,820328	0
15.01.2021	09:43:19	0	17,727293	4,406295	1,9755	6,0552	0,017	88,627	0	1013,74	6,6	8,7	8,5	1	1	1	1	1	1	1	1	1	0	1	-7,82241	274,053757	312,012671	0
15.01.2021	09:43:20	0	17,608318	4,067325	1,98975	360	0,022	88,628	0	1013,7	6,6	8,7	8,6	1	1	1	1	1	1	1	1	1	0	1	-9,302326	274,077591	310,644036	0
15.01.2021	09:43:21	0	17,608441	3,389458	2,11725	0,4752	0,022	88,624	0	1013,76	6,6	8,6	8,5	1	1	1	1	1	1	1	1	1	0	1	-7,82241	273,954267	311,548487	0
15.01.2021	09:43:22	0	17,370367	5,084186	2,14425	4,4676	0,022	88,633	0	1013,66	6,6	8,7	8,5	1	1	1	1	1	1	1	1	1	0	1	-5,144468	274,047803	314,662819	0
15.01.2021	09:43:23	0	17,608318	4,293313	2,121	5,1948	0,015	88,628	0	1013,56	6,7	8,7	8,5	1	1	1	1	1	1	1	1	1	0	1	-7,047216	274,107427	313,03848	0
15.01.2021	09:43:24	0	17,727293	3,954367	2,091	359,1612	0,017	88,627	0	1013,46	6,7	8,7	8,5	1	1	1	1	1	1	1	1	1	0	1	-6,412967	274,06567	313,477734	0
15.01.2021	09:43:25	0	17,846268	2,485602	2,1045	0,1188	0,017	88,622	0	1013,64	6,6	8,7	8,5	1	1	1	1	1	1	1	1	1	0	1	-7,399577	273,946863	311,936796	0
15.01.2021	09:43:26	0	17,846268	3,615421	2,169	349,8192	0,012	88,632	0	1013,74	6,6	8,7	8,5	1	1	1	1	1	1	1	1	1	0	1	-6,624383	274,095487	313,405548	0
15.01.2021	09:43:27	0	17,727293	3,050494	2,391	358,9884	0,018	88,637	0	1013,54	6,6	8,7	8,6	1	1	1	1	1	1	1	1	1	0	1	-3,805497	273,975014	315,662154	0
15.01.2021	09:43:28	0	17,489342	3,728403	2,43525	357,9876	0,025	88,637	0	1013,76	6,6	8,7	8,5	1	1	1	1	1	1	1	1	1	0	1	-4,933051	274,083555	315,041156	0
15.01.2021	09:43:29	0	17,846268	4,632259	2,361	9,3528	0,016	88,632	0	1013,44	6,7	8,7	8,5	1	1	1	1	1	1	1	1	1	0	1	-6,765328	274,062691	313,111464	0
15.01.2021	09:43:30	0	17,608318	2,824548	2,31825	1,17	0,016	88,637	0	1013,7	6,6	8,7	8,5	1	1	1	1	1	1	1	1	1	0	1	-5,567301	274,093995	314,455663	0
15.01.2021	09:43:31	0	17,846268	3,954367	2,232	6,8004	0,021	88,626	0	1013,62	6,7	8,7	8,5	1	1	1	1	1	1	1	1	1	0	1	-5,919662	274,00766	313,700287	0
15.01.2021	09:43:32	0	17,846268	4,858223	2,24475	358,812	0,023	88,626	0	1013,82	6,7	8,7	8,5	1	1	1	1	1	1	1	1	1	0	1	-6,8358	274,096979	313,2011	0
15.01.2021	09:43:33	0	17,846268	4,406295	2,48775	360	0,015	88,641	0	1013,72	6,7	8,7	8,5	1	1	1	1	1	1	1	1	1	0	1	-9,936575	274,053757	309,898506	0
15.01.2021	09:43:34	0	17,727417	4,293313	2,6295	7,8804	0,02	88,633	0	1013,68	6,7	8,6	8,5	1	1	1	1	1	1	1	1	1	0	1	-9,725159	274,058223	310,130775	0
15.01.2021	09:43:35	0	17,727293	3,389458	2,6565	1,1736	0,019	88,642	0	1013,56	6,6	8,7	8,5	1	1	1	1	1	1	1	1	1	0	1	-4,933051	273,961674	314,472386	0
15.01.2021	09:43:36	0	17,489465	2,711566	2,68425	347,2092	0,011	88,638	0	1013,62	6,7	8,6	8,5	1	1	1	1	1	1	1	1	1	0	1	-3,875969	273,918754	315,329357	0
15.01.2021	09:43:37	0	17,846268	4,519277	2,6655	352,4328	0,011	88,64	0	1013,56	6,7	8,7	8,5	1	1	1	1	1	1	1	1	1	0	1	-6,412967	274,058223	313,442967	0
15.01.2021	09:43:38	0	17,489465	2,93753	2,47425	1,17	0,021	88,621	0	1013,66	6,6	8,6	8,5	1	1	1	1	1	1	1	1	1	0	1	-5,355884	274,085046	314,625286	0
15.01.2021	09:43:39	0	18,084218	4,067349	2,34975	0	0,018	88,637	0	1013,62	6,6	8,7	8,5	1	1	1	1	1	1	1	1	1	0	1	-6,131078	274,040363	313,641481	0
15.01.2021	09:43:40	0	18,084218	4,519277	2,346	358,7148	0,013	88,642	0	1013,6	6,7	8,7	8,5	1	1	1	1	1	1	1	1	1	0	1	-7,681466	274,093995	312,341498	0
15.01.2021	09:43:41	0	17,965243	4,858223	2,346	2,6352	0,021	88,642	0	1013,7	6,6	8,7	8,5	1	1	1	1	1	1	1	1	1	0	1	-5,496829	274,006175	314,11619	0
15.01.2021	09:43:42	0	17,846268	3,615421	2,292	4,068	0,024	88,642	0	1013,78	6,7	8,7	8,5	1	1	1	1	1	1	1	1	1	0	1	-7,399577	273,939462	311,902287	0
15.01.2021	09:43:43	0	17,846268	3,050512	2,21025	357,2784	0,015	88,625	0	1013,54	6,6	8,7	8,5	1	1	1	1	1	1	1	1	1	0	1	-6,553911	273,960193	312,844617	0
15.01.2021	09:43:44	0	17,727293	4,293313	2,184	1,9116	0,022	88,63	0	1013,72	6,6	8,7	8,5	1	1	1	1	1	1	1	1	1	0	1	-6,272023	274,096979	313,764877	0
15.01.2021	09:43:45	0	17,846268	3,163494	2,30175	0,486	0,026	88,64	0	1013,68	6,6	8,7	8,5	1	1	1	1	1	1	1	1	1	0	1	-2,466526	273,986879	317,05647	0
15.01.2021	09:43:46	0	17,489342	4,067349	2,5125	7,596	0,02	88,631	0	1013,56	6,6	8,7	8,5	1	1	1	1	1	1	1	1	1	0	1	-6,483439	274,092503	313,532557	0
15.01.2021	09:43:47	0	17,846268	3,050512	2,66925	356,4792	0,021	88,649	0	1013,72	6,6	8,7	8,5	1	1	1	1	1	1	1	1	1	0	1	-2,959831	273,994298	316,597776	0
15.01.2021	09:43:48	0	17,727293	3,728403	2,67675	0,4896	0,023	88,657	0	1013,74	6,7	8,7	8,5	1	1	1	1	1	1	1	1	1	0	1	-5,778717	274,099963	314,272121	0
15.01.2021	09:43:49	0	17,489342	2,598584	2,58825	1,9296	0,025	88,66	0	1013,8	6,7	8,7	8,5	1	1	1	1	1	1	1	1	1	0	1	-9,866103	273,980945	309,629215	0
15.01.2021	09:43:50	0	17,727293	4,293313	2,529	2,3832	0,015	88,649	0	1013,56	6,7	8,7	8,5	1	1	1	1	1	1	1	1	1	0	1	-2,184637	274,105934	317,894087	0
15.01.2021	09:43:51	0	17,727293	3,502419	2,4465	3,0132	0,02	88,653	0	1013,64	6,6	8,7	8,6	1	1	1	1	1	1	1	1	1	0	1	-4,22833	273,977979	315,253154	0
15.01.2021	09:43:52	0	17,727293	4,293313	2,68125	359,8524	0,024	88,652	0	1013,76	6,7	8,7	8,5	1	1	1	1	1	1	1	1	1	0	1	-6,906272	274,104441	313,165479	0
15.01.2021	09:43:53	0	18,084345	4,067349	2,847	357,5952	0,023	88,648	0	1013,62	6,6	8,6	8,5	1	1	1	1	1	1	1	1	1	0	1	-5,285412	274,059713	314,577473	0
15.01.2021	09:43:54	0	17,727293	3,050512	3,01725	354,6828	0,027	88,652	0	1013,68	6,6	8,7	8,5	1	1	1	1	1	1	1	1	1	0	1	-6,765328	273,970566	312,68158	0
15.01.2021	09:43:55	0	17,727293	3,163494	3,29625	351,9936	0,018	88,655	0	1013,5	6,6	8,7	8,5	1	1	1	1	1	1	1	1	1	0	1	-9,090909	273,924668	310,141987	0
15.01.2021	09:43:56	0	18,322297	4,858223	3,57225	350,2584	0,017	88,656	0	1013,58	6,7	8,6	8,5	1	1	1	1	1	1	1	1	1	0	1	-7,188161	273,955749	312,189643	0
15.01.2021	09:43:57	0	17,965369	2,485602	3,71325	349,8516	0,021	88,653	0	1013,58	6,6	8,6	8,5	1	1	1	1	1	1	1	1	1	0	1	-6,20155	273,933543	313,072719	0
15.01.2021	09:43:58	0	18,322297	4,858223	3,7245	344,682	0,021	88,662	0	1013,48	6,6	8,6	8,5	1	1	1	1	1	1	1	1	1	0	1	-5,567301	273,998751	314,011081	0
15.01.2021	09:43:59	0	17,965369	2,598584	3,54075	359,46	0,018	88,654	0	1013,52	6,7	8,6	8,5	1	1	1	1	1	1	1	1	1	0	1	-2,959831	273,946863	316,376542	0
15.01.2021	09:44:00	0	18,322297	3,728403	3,01575	350,244	0,02	88,643	0	1013,52	6,7	8,6	8,5	1	1	1	1	1	1	1	1	1	0	1	-9,372798	274,079082	310,580524	0
15.01.2021	09:44:01	0	18,322297	3,728403	3,01575	350,244	0,02	88,643	0	1013,52	6,7	8,6	8,5	1	1	1	1	1	1	1	1	1	0	1	-9,372798	274,079082	310,580524	0
15.01.2021	09:44:02	0	18,084218	4,067349	3,0165	351,0396	0,022	88,642	0	1013,56	6,7	8,7	8,5	1	1	1	1	1	1	1	1	1	0	1	-5,073996	273,975014	314,393655	0
15.01.2021	09:44:03	0	18,084345	2,824548	2,9865	343,5084	0,02	88,643	0	1013,46	6,7	8,6	8,5	1	1	1	1	1	1	1	1	1	0	1	-5,144468	273,951305	314,212618	0
15.01.2021	09:44:04	0	18,084345	2,598584	2,901	352,782	0,024	88,638	0	1013,6	6,7	8,6	8,5	1	1	1	1	1	1	1	1	1	0	1	-3,453136	274,056734	316,395846	0
15.01.2021	09:44:05	0	17,846268	4,180331	2,9565	352,4796	0,025	88,662	0	1013,44	6,6	8,7	8,5	1	1	1	1	1	1	1	1	1	0	1	-7,751938	273,977979	311,729545	0
15.01.2021	09:44:06	0	17,965369	4,067349	2,9925	345,8232	0,022	88,666	0	1013,6	6,6	8,6	8,5	1	1	1	1	1	1	1	1	1	0	1	-6,8358	274,105934	313,242924	0
15.01.2021	09:44:07	0	18,203193	4,519277	3,0585	337,1508	0,026	88,659	0	1013,64	6,6	8,7	8,5	1	1	1	1	1	1	1	1	1	0	1	-5,84919	274,052268	313,978942	0
15.01.2021	09:44:08	0	18,322297	3,954367	2,89725	331,1352	0,026	88,651	0	1013,58	6,7	8,6	8,5	1	1	1	1	1	1	1	1	1	0	1	-6,483439	273,964638	312,935819	0
15.01.2021	09:44:09	0	18,084345	3,50244	2,7345	348,246	0,024	88,649	0	1013,58	6,7	8,6	8,5	1	1	1	1	1	1	1	1	1	0	1	-4,22833	274,07014	315,683239	0
15.01.2021	09:44:10	0	18,084218	4,745241	2,619	0,1008	0,023	88,656	0	1013,56	6,6	8,7	8,5	1	1	1	1	1	1	1	1	1	0	1	-4,862579	273,924668	314,370316	0
15.01.2021	09:44:11	0	18,203193	2,93753	2,478	358,758	0,024	88,648	0	1013,7	6,6	8,7	8,5	1	1	1	1	1	1	1	1	1	0	1	-7,047216	274,021032	312,635126	0
15.01.2021	09:44:12	0	18,084345	4,858223	2,397	347,868	0,024	88,649	0	1013,66	6,7	8,6	8,5	1	1	1	1	1	1	1	1	1	0	1	-6,483439	273,924668	312,749457	0
15.01.2021	09:44:13	0	18,084218	4,519277	2,424	348,2964	0,027	88,664	0	1013,66	6,7	8,7	8,5	1	1	1	1	1	1	1	1	1	0	1	-10,711769	274,046314	309,088571	0
15.01.2021	09:44:14	0	18,084345	3,276476	2,5065	336,3876	0,025	88,645	0	1013,5	6,6	8,6	8,5	1	1	1	1	1	1	1	1	1	0	1	-8,527132	274,101456	311,530677	0
15.01.2021	09:44:15	0	17,965243	4,293313	2,607	349,416	0,021	88,634	0	1013,48	6,7	8,7	8,5	1	1	1	1	1	1	1	1	1	0	1	-5,567301	274,055245	314,27473	0
15.01.2021	09:44:16	0	18,084345	3,163494	2,577	1,548	0,021	88,645	0	1013,48	6,7	8,6	8,5	1	1	1	1	1	1	1	1	1	0	1	-4,439746	273,937982	314,855218	0
15.01.2021	09:44:17	0	18,084218	3,50244	2,47575	352,8036	0,019	88,645	0	1013,58	6,7	8,7	8,5	1	1	1	1	1	1	1	1	1	0	1	-2,959831	274,016574	316,701708	0
15.01.2021	09:44:18	0	18,084345	4,519277	2,328	358,7292	0,028	88,648	0	1013,52	6,7	8,6	8,5	1	1	1	1	1	1	1	1	1	0	1	-8,80902	274,126844	311,367385	0
15.01.2021	09:44:19	0	18,084218	4,406295	2,1135	360	0,023	88,646	0	1013,62	6,7	8,7	8,5	1	1	1	1	1	1	1	1	1	0	1	-2,818887	273,96612	316,607283	0
15.01.2021	09:44:20	0	17,846393	4,745241	2,06775	7,5024	0,022	88,651	0	1013,64	6,7	8,6	8,5	1	1	1	1	1	1	1	1	1	0	1	-5,496829	274,123856	314,665614	0
15.01.2021	09:44:21	0	18,203321	3,615421	2,136	6,0624	0,024	88,639	0	1013,62	6,7	8,6	8,5	1	1	1	1	1	1	1	1	1	0	1	-6,412967	273,998751	313,165415	0
15.01.2021	09:44:22	0	17,846393	2,93753	2,205	1,5444	0,027	88,638	0	1013,58	6,7	8,6	8,5	1	1	1	1	1	1	1	1	1	0	1	-7,188161	273,943903	312,134407	0
15.01.2021	09:44:23	0	18,322297	3,728403	2,12175	359,0532	0,03	88,64	0	1013,68	6,6	8,6	8,5	1	1	1	1	1	1	1	1	1	0	1	-6,8358	274,049291	312,978435	0
15.01.2021	09:44:24	0	17,846393	3,163494	2,15475	4,0896	0,023	88,639	0	1013,62	6,7	8,6	8,5	1	1	1	1	1	1	1	1	1	0	1	-9,161381	274,104441	310,91037	0
15.01.2021	09:44:25	0	17,846393	3,954367	2,14725	3,3984	0,02	88,642	0	1013,66	6,7	8,6	8,5	1	1	1	1	1	1	1	1	1	0	1	-2,818887	274,099963	317,231952	0
15.01.2021	09:44:26	0	18,322297	4,293313	2,01375	358,3476	0,027	88,658	0	1013,6	6,6	8,6	8,5	1	1	1	1	1	1	1	1	1	0	1	-1,338971	274,019546	318,336436	0
15.01.2021	09:44:27	0	17,727417	4,293313	1,875	357,624	0,031	88,651	0	1013,54	6,6	8,6	8,5	1	1	1	1	1	1	1	1	1	0	1	-5,708245	274,098471	314,335624	0
15.01.2021	09:44:28	0	18,322297	3,954367	1,8015	358,0704	0,026	88,643	0	1013,62	6,7	8,6	8,5	1	1	1	1	1	1	1	1	1	0	1	-6,412967	273,995783	313,151565	0
15.01.2021	09:44:29	0	18,322168	3,50244	1,91025	356,1768	0,024	88,636	0	1013,64	6,7	8,7	8,5	1	1	1	1	1	1	1	1	1	0	1	-4,580691	273,946863	314,755682	0
15.01.2021	09:44:30	0	18,322168	3,954367	2,13675	7,9596	0,026	88,649	0	1013,64	6,7	8,7	8,5	1	1	1	1	1	1	1	1	1	0	1	-9,231853	273,952786	310,132138	0
15.01.2021	09:44:31	0	18,322297	3,841385	2,30775	5,6664	0,024	88,639	0	1013,74	6,7	8,6	8,5	1	1	1	1	1	1	1	1	1	0	1	-7,329105	273,963156	312,083243	0
15.01.2021	09:44:32	0	17,727293	2,37262	2,2395	20,2752	0,026	88,639	0	1013,64	6,7	8,7	8,5	1	1	1	1	1	1	1	1	1	0	1	-5,84919	273,980945	313,646129	0
15.01.2021	09:44:33	0	18,560249	4,180331	2,09325	348,7248	0,028	88,657	0	1013,68	6,6	8,6	8,5	1	1	1	1	1	1	1	1	1	0	1	-9,020437	274,095487	311,009494	0
15.01.2021	09:44:34	0	18,084345	3,954367	2,1585	4,8456	0,027	88,646	0	1013,54	6,7	8,6	8,5	1	1	1	1	1	1	1	1	1	0	1	-5,778717	274,085046	314,202453	0
15.01.2021	09:44:35	0	18,441273	4,519277	2,277	6,0588	0,023	88,641	0	1013,66	6,7	8,6	8,5	1	1	1	1	1	1	1	1	1	0	1	-8,174771	274,06716	311,722885	0
15.01.2021	09:44:36	0	18,203321	3,50244	2,27175	19,8828	0,022	88,645	0	1013,74	6,6	8,6	8,5	1	1	1	1	1	1	1	1	1	0	1	-4,369274	274,082064	315,597971	0
15.01.2021	09:44:37	0	18,203321	4,632259	2,24625	15,786	0,026	88,645	0	1013,7	6,7	8,6	8,5	1	1	1	1	1	1	1	1	1	0	1	-6,906272	273,936503	312,381793	0
15.01.2021	09:44:38	0	17,965243	5,197168	2,451	16,8552	0,028	88,644	0	1013,7	6,7	8,7	8,5	1	1	1	1	1	1	1	1	1	0	1	-9,020437	274,028464	310,696591	0
15.01.2021	09:44:39	0	17,846393	3,389458	2,4945	0,4968	0,023	88,657	0	1013,68	6,7	8,6	8,5	1	1	1	1	1	1	1	1	1	0	1	-7,470049	273,935023	311,811118	0
15.01.2021	09:44:40	0	18,084345	4,519277	2,349	9,36	0,024	88,655	0	1013,8	6,7	8,6	8,5	1	1	1	1	1	1	1	1	1	0	1	-4,792107	273,95723	314,592604	0
15.01.2021	09:44:41	0	18,322168	3,163494	2,29575	0	0,026	88,643	0	1013,64	6,7	8,7	8,5	1	1	1	1	1	1	1	1	1	0	1	-3,382664	273,92319	315,843339	0
15.01.2021	09:44:42	0	18,441273	3,276476	2,40375	15,0336	0,024	88,653	0	1013,58	6,7	8,6	8,5	1	1	1	1	1	1	1	1	1	0	1	-6,412967	274,024005	313,283248	0
15.01.2021	09:44:43	0	18,203193	4,632259	2,36925	19,5264	0,027	88,647	0	1013,7	6,7	8,7	8,5	1	1	1	1	1	1	1	1	1	0	1	-5,919662	274,110413	314,179983	0
15.01.2021	09:44:44	0	18,560249	4,519277	2,41125	358,7544	0,027	88,656	0	1013,72	6,7	8,6	8,5	1	1	1	1	1	1	1	1	1	0	1	-12,262156	273,998751	307,316225	0
15.01.2021	09:44:45	0	18,441273	2,711566	2,35425	360	0,024	88,645	0	1013,6	6,7	8,6	8,5	1	1	1	1	1	1	1	1	1	0	1	-9,231853	274,096979	310,805046	0
15.01.2021	09:44:46	0	18,322168	3,728403	2,34975	360	0,025	88,631	0	1013,64	6,7	8,7	8,5	1	1	1	1	1	1	1	1	1	0	1	-5,003524	274,047803	314,803763	0
15.01.2021	09:44:47	0	17,846393	4,067349	2,27475	0,4968	0,021	88,66	0	1013,72	6,7	8,6	8,5	1	1	1	1	1	1	1	1	1	0	1	-6,624383	274,088029	313,370716	0
15.01.2021	09:44:48	0	18,203321	3,954367	2,1075	0,486	0,026	88,644	0	1013,6	6,6	8,6	8,5	1	1	1	1	1	1	1	1	1	0	1	-3,453136	274,032925	316,284711	0
15.01.2021	09:44:49	0	18,322297	3,163494	1,98525	359,9136	0,028	88,65	0	1013,72	6,7	8,6	8,5	1	1	1	1	1	1	1	1	1	0	1	-6,765328	274,102948	313,299452	0
15.01.2021	09:44:50	0	18,560249	2,824548	1,953	4,086	0,025	88,636	0	1013,62	6,7	8,6	8,5	1	1	1	1	1	1	1	1	1	0	1	-9,231853	274,003205	310,367309	0
15.01.2021	09:44:51	0	18,560249	4,067349	1,9605	1,1664	0,028	88,66	0	1013,68	6,7	8,6	8,5	1	1	1	1	1	1	1	1	1	0	1	-10,359408	274,086537	309,628727	0
15.01.2021	09:44:52	0	18,203321	4,519277	1,9935	5,7456	0,027	88,654	0	1013,66	6,7	8,6	8,5	1	1	1	1	1	1	1	1	1	0	1	-5,285412	273,997267	314,286044	0
15.01.2021	09:44:53	0	17,965369	2,485602	1,935	357,2424	0,03	88,658	0	1013,7	6,7	8,6	8,5	1	1	1	1	1	1	1	1	1	0	1	-9,372798	273,933543	309,901471	0
15.01.2021	09:44:54	0	18,441273	4,406295	1,91025	0,1188	0,026	88,663	0	1013,72	6,7	8,6	8,5	1	1	1	1	1	1	1	1	1	0	1	-9,161381	274,022518	310,527897	0
15.01.2021	09:44:55	0	18,560249	4,293313	1,97775	359,4816	0,032	88,659	0	1013,54	6,7	8,6	8,5	1	1	1	1	1	1	1	1	1	0	1	-11,205074	273,92319	308,020928	0
15.01.2021	09:44:56	0	18,441273	3,50244	2,06775	345,4236	0,025	88,649	0	1013,58	6,7	8,6	8,5	1	1	1	1	1	1	1	1	1	0	1	-7,188161	274,012117	312,45258	0
15.01.2021	09:44:57	0	18,441273	3,954367	2,1465	359,1252	0,029	88,654	0	1013,62	6,7	8,6	8,5	1	1	1	1	1	1	1	1	1	0	1	-8,033827	273,930585	311,226649	0
15.01.2021	09:44:58	0	18,441273	4,632259	2,13225	356,868	0,018	88,658	0	1013,54	6,7	8,6	8,5	1	1	1	1	1	1	1	1	1	0	1	-8,527132	274,055245	311,314899	0
15.01.2021	09:44:59	0	18,441273	3,50244	2,01075	355,4172	0,029	88,658	0	1013,62	6,7	8,6	8,5	1	1	1	1	1	1	1	1	1	0	1	-9,161381	273,937982	310,133583	0
15.01.2021	09:45:00	0	18,441273	3,50244	2,08875	359,8776	0,026	88,652	0	1013,66	6,7	8,6	8,5	1	1	1	1	1	1	1	1	1	0	1	-5,426357	274,046314	314,373984	0
15.01.2021	09:45:01	0	18,441273	3,50244	2,08875	359,8776	0,026	88,652	0	1013,66	6,7	8,6	8,5	1	1	1	1	1	1	1	1	1	0	1	-5,919662	274,055245	313,922369	0
15.01.2021	09:45:02	0	18,560249	5,197168	2,1645	342,7524	0,028	88,662	0	1013,64	6,7	8,6	8,5	1	1	1	1	1	1	1	1	1	0	1	-7,681466	274,06716	312,21619	0
15.01.2021	09:45:03	0	18,679225	4,406295	2,05425	347,3388	0,027	88,659	0	1013,44	6,7	8,6	8,5	1	1	1	1	1	1	1	1	1	0	1	-2,255109	273,979462	317,233291	0
15.01.2021	09:45:04	0	18,560119	4,406295	1,944	337,176	0,02	88,652	0	1013,68	6,7	8,7	8,5	1	1	1	1	1	1	1	1	1	0	1	-4,157858	274,107427	315,927839	0
15.01.2021	09:45:05	0	18,441273	3,728403	1,8645	351,0612	0,024	88,663	0	1013,68	6,6	8,6	8,5	1	1	1	1	1	1	1	1	1	0	1	-5,84919	274,049291	313,965045	0
15.01.2021	09:45:06	0	18,560249	4,632259	1,929	4,4532	0,026	88,659	0	1013,56	6,6	8,6	8,5	1	1	1	1	1	1	1	1	1	0	1	-8,45666	274,093995	311,566304	0
15.01.2021	09:45:07	0	18,322297	3,163494	1,90125	355,6008	0,032	88,66	0	1013,52	6,7	8,6	8,5	1	1	1	1	1	1	1	1	1	0	1	-10,288936	273,977979	309,192548	0
15.01.2021	09:45:08	0	18,560249	2,93753	2,00775	349,056	0,031	88,664	0	1013,64	6,6	8,6	8,5	1	1	1	1	1	1	1	1	1	0	1	-11,346018	274,096979	308,690881	0
15.01.2021	09:45:09	0	18,679225	4,745241	2,2005	347,6952	0,026	88,657	0	1013,76	6,7	8,6	8,5	1	1	1	1	1	1	1	1	1	0	1	-7,399577	274,056734	312,449405	0
15.01.2021	09:45:10	0	18,441273	4,180331	2,46225	355,4568	0,029	88,667	0	1013,52	6,7	8,6	8,5	1	1	1	1	1	1	1	1	1	0	1	-3,735025	273,963156	315,677323	0
15.01.2021	09:45:11	0	18,322297	3,163494	2,80875	352,1808	0,026	88,66	0	1013,62	6,7	8,6	8,5	1	1	1	1	1	1	1	1	1	0	1	-6,624383	274,082064	313,342862	0
15.01.2021	09:45:12	0	18,7982	3,841385	2,81325	351,3636	0,028	88,654	0	1013,48	6,7	8,6	8,5	1	1	1	1	1	1	1	1	1	0	1	-6,553911	274,113399	313,559684	0
15.01.2021	09:45:13	0	18,560249	2,485602	2,64525	2,2896	0,021	88,652	0	1013,62	6,7	8,6	8,5	1	1	1	1	1	1	1	1	1	0	1	-7,540521	274,085046	312,440649	0
15.01.2021	09:45:14	0	18,560249	4,519277	2,61975	2,6388	0,028	88,67	0	1013,6	6,7	8,6	8,5	1	1	1	1	1	1	1	1	1	0	1	-4,580691	273,749489	313,836371	0
15.01.2021	09:45:15	0	18,679094	4,519277	2,65725	351,6912	0,029	88,664	0	1013,54	6,7	8,7	8,5	1	1	1	1	1	1	1	1	1	0	1	-4,087385	273,979462	315,401015	0
15.01.2021	09:45:16	0	18,322297	3,050512	2,6445	358,7796	0,033	88,672	0	1013,44	6,7	8,6	8,5	1	1	1	1	1	1	1	1	1	0	1	-3,523608	273,932064	315,743764	0
15.01.2021	09:45:17	0	18,322297	3,954367	2,601	1,9152	0,022	88,664	0	1013,5	6,7	8,6	8,5	1	1	1	1	1	1	1	1	1	0	1	-1,902748	274,052268	317,925383	0
15.01.2021	09:45:18	0	18,322168	4,519277	2,54325	0,108	0,026	88,735	0	1013,64	6,7	8,7	8,5	1	1	1	1	1	1	1	1	1	0	1	-3,875969	274,098471	316,1679	0
15.01.2021	09:45:19	0	18,203321	2,598584	2,41425	357,9984	0,027	88,684	0	1013,6	6,7	8,6	8,5	1	1	1	1	1	1	1	1	1	0	1	-3,805497	273,997267	315,76596	0
15.01.2021	09:45:20	0	18,560249	3,050512	2,28825	2,2896	0,029	88,662	0	1013,76	6,7	8,6	8,5	1	1	1	1	1	1	1	1	1	0	1	-7,82241	273,940942	311,486355	0
15.01.2021	09:45:21	0	18,560249	4,858223	2,33175	359,532	0,026	88,676	0	1013,6	6,7	8,6	8,5	1	1	1	1	1	1	1	1	1	0	1	-7,258633	274,044826	312,534761	0
15.01.2021	09:45:22	0	18,560249	4,067349	2,41575	0,8532	0,028	88,683	0	1013,74	6,7	8,6	8,5	1	1	1	1	1	1	1	1	1	0	1	-5,285412	273,937982	314,009552	0
15.01.2021	09:45:23	0	18,322297	4,971205	2,46675	0,1224	0,029	88,676	0	1013,64	6,6	8,6	8,5	1	1	1	1	1	1	1	1	1	0	1	-3,100775	274,034413	316,644013	0
15.01.2021	09:45:24	0	18,441273	4,180331	2,5125	355,3956	0,025	88,676	0	1013,58	6,7	8,6	8,5	1	1	1	1	1	1	1	1	1	0	1	-9,231853	274,099963	310,818985	0
15.01.2021	09:45:25	0	18,560249	3,276476	2,493	0	0,026	88,656	0	1013,44	6,7	8,6	8,5	1	1	1	1	1	1	1	1	1	0	1	-3,664553	273,682198	314,43954	0
15.01.2021	09:45:26	0	18,7982	4,632259	2,42925	355,824	0,019	88,667	0	1013,64	6,7	8,6	8,5	1	1	1	1	1	1	1	1	1	0	1	-5,919662	274,104441	314,15209	0
15.01.2021	09:45:27	0	18,560249	4,745241	2,3985	0,1044	0,025	88,682	0	1013,54	6,7	8,6	8,5	1	1	1	1	1	1	1	1	1	0	1	-5,355884	274,049291	314,45835	0
15.01.2021	09:45:28	0	18,679225	4,745241	2,45475	359,8776	0,029	88,688	0	1013,66	6,7	8,6	8,5	1	1	1	1	1	1	1	1	1	0	1	-7,470049	274,096979	312,56685	0
15.01.2021	09:45:29	0	18,560249	4,067349	2,52675	357,2892	0,025	88,677	0	1013,6	6,7	8,6	8,5	1	1	1	1	1	1	1	1	1	0	1	-9,231853	274,076101	310,707548	0
15.01.2021	09:45:30	0	18,7982	3,276476	2,667	22,4604	0,036	88,688	0	1013,74	6,7	8,6	8,5	1	1	1	1	1	1	1	1	1	0	1	-7,188161	273,994298	312,369447	0
15.01.2021	09:45:31	0	18,203321	3,389458	2,7195	11,1852	0,023	88,666	0	1013,6	6,7	8,6	8,5	1	1	1	1	1	1	1	1	1	0	1	-4,651163	274,107427	315,434534	0
15.01.2021	09:45:32	0	18,679225	3,163494	2,766	355,7628	0,02	88,681	0	1013,68	6,7	8,6	8,5	1	1	1	1	1	1	1	1	1	0	1	-4,510218	273,979462	314,978182	0
15.01.2021	09:45:33	0	18,560249	3,163494	2,84025	0,8784	0,029	88,679	0	1013,6	6,7	8,6	8,5	1	1	1	1	1	1	1	1	1	0	1	-5,778717	274,098471	314,265151	0
15.01.2021	09:45:34	0	18,560249	3,050512	2,9385	6,804	0,027	88,685	0	1013,7	6,7	8,6	8,5	1	1	1	1	1	1	1	1	1	0	1	-8,245243	273,967602	311,187839	0
15.01.2021	09:45:35	0	18,679225	3,728403	2,92725	4,0824	0,028	88,69	0	1013,68	6,7	8,6	8,5	1	1	1	1	1	1	1	1	1	0	1	-6,342495	274,083555	313,631713	0
15.01.2021	09:45:36	0	18,679225	4,971205	2,90025	1,5624	0,032	88,685	0	1013,7	6,7	8,6	8,5	1	1	1	1	1	1	1	1	1	0	1	-5,355884	274,098471	314,687984	0
15.01.2021	09:45:37	0	18,7982	4,745241	2,83875	0,8712	0,029	88,689	0	1013,7	6,7	8,6	8,5	1	1	1	1	1	1	1	1	1	0	1	-6,412967	273,982429	313,08927	0
15.01.2021	09:45:38	0	18,7982	4,067349	2,81175	349,4448	0,032	88,693	0	1013,62	6,7	8,6	8,5	1	1	1	1	1	1	1	1	1	0	1	-8,738548	273,949825	310,611632	0
15.01.2021	09:45:39	0	18,7982	4,632259	2,8305	351,4104	0,026	88,675	0	1013,54	6,7	8,6	8,5	1	1	1	1	1	1	1	1	1	0	1	-7,188161	274,07312	312,737323	0
15.01.2021	09:45:40	0	18,441273	2,711566	2,78175	349,4844	0,034	88,679	0	1013,68	6,7	8,6	8,5	1	1	1	1	1	1	1	1	1	0	1	-6,694856	274,098471	313,349013	0
15.01.2021	09:45:41	0	18,441273	2,711566	2,81475	9,4464	0,029	88,683	0	1013,64	6,7	8,6	8,5	1	1	1	1	1	1	1	1	1	0	1	-9,302326	274,107427	310,783371	0
15.01.2021	09:45:42	0	18,7982	4,067349	2,94225	357,9552	0,027	88,671	0	1013,54	6,7	8,6	8,5	1	1	1	1	1	1	1	1	1	0	1	-10,218464	274,076101	309,720938	0
15.01.2021	09:45:43	0	18,679225	3,163494	3,01725	352,458	0,031	88,672	0	1013,68	6,7	8,6	8,5	1	1	1	1	1	1	1	1	1	0	1	-7,82241	273,96612	311,60376	0
15.01.2021	09:45:44	0	18,322297	2,711566	2,91825	1,5516	0,042	88,7	0	1013,88	6,7	8,6	8,5	1	1	1	1	1	1	1	1	1	0	1	-4,721635	273,911364	314,449244	0
15.01.2021	09:45:45	0	18,7982	4,180331	2,65575	24,3972	0,031	88,683	0	1013,58	6,7	8,6	8,5	1	1	1	1	1	1	1	1	1	0	1	-7,751938	273,980945	311,74338	0
15.01.2021	09:45:46	0	18,679225	4,745241	2,469	6,4152	0,029	88,673	0	1013,58	6,7	8,6	8,5	1	1	1	1	1	1	1	1	1	0	1	-8,668076	274,11788	311,46645	0
15.01.2021	09:45:47	0	19,155128	3,389458	2,442	6,8004	0,03	88,684	0	1013,66	6,7	8,6	8,5	1	1	1	1	1	1	1	1	1	0	1	-8,80902	273,997267	310,762436	0
15.01.2021	09:45:48	0	18,560249	4,406295	2,46075	3,762	0,028	88,665	0	1013,6	6,7	8,6	8,5	1	1	1	1	1	1	1	1	1	0	1	-6,20155	274,108919	313,89112	0
15.01.2021	09:45:49	0	19,155128	4,745241	2,56425	9,7452	0,033	88,694	0	1013,64	6,7	8,6	8,5	1	1	1	1	1	1	1	1	1	0	1	-6,624383	274,085046	313,356787	0
15.01.2021	09:45:50	0	18,917176	4,519277	2,54625	360	0,029	88,672	0	1013,6	6,7	8,6	8,5	1	1	1	1	1	1	1	1	1	0	1	-9,725159	274,093995	310,297805	0
15.01.2021	09:45:51	0	18,679225	3,389458	2,48775	2,6424	0,026	88,668	0	1013,58	6,7	8,6	8,5	1	1	1	1	1	1	1	1	1	0	1	-4,22833	273,940942	315,080435	0
15.01.2021	09:45:52	0	18,917176	3,841385	2,33625	20,6316	0,031	88,662	0	1013,58	6,7	8,6	8,5	1	1	1	1	1	1	1	1	1	0	1	-7,751938	274,022518	311,93734	0
15.01.2021	09:45:53	0	18,679225	3,841385	2,25825	16,0848	0,034	88,677	0	1013,62	6,7	8,6	8,5	1	1	1	1	1	1	1	1	1	0	1	-10,359408	274,114893	309,761163	0
15.01.2021	09:45:54	0	18,7982	5,084186	2,3085	13,1616	0,028	88,668	0	1013,58	6,7	8,6	8,5	1	1	1	1	1	1	1	1	1	0	1	-11,698379	274,07312	308,227105	0
15.01.2021	09:45:55	0	18,560249	2,824548	2,34825	16,4772	0,032	88,679	0	1013,74	6,7	8,6	8,5	1	1	1	1	1	1	1	1	1	0	1	-7,188161	273,997267	312,383296	0
15.01.2021	09:45:56	0	18,679225	3,389458	2,3715	1,548	0,032	88,679	0	1013,68	6,7	8,6	8,5	1	1	1	1	1	1	1	1	1	0	1	-2,466526	273,921711	316,752584	0
15.01.2021	09:45:57	0	18,560249	3,50244	2,202	4,8276	0,032	88,665	0	1013,68	6,7	8,6	8,5	1	1	1	1	1	1	1	1	1	0	1	-5,84919	274,010631	313,78462	0
15.01.2021	09:45:58	0	18,798069	3,954367	2,07525	4,4604	0,03	88,665	0	1013,74	6,7	8,7	8,5	1	1	1	1	1	1	1	1	1	0	1	-3,24172	273,945383	316,08775	0
15.01.2021	09:45:59	0	18,917176	3,954367	2,1045	353,5596	0,029	88,664	0	1013,58	6,7	8,6	8,5	1	1	1	1	1	1	1	1	1	0	1	-5,285412	273,958711	314,106207	0
15.01.2021	09:46:00	0	18,917176	3,389458	2,0535	360	0,029	88,681	0	1013,62	6,7	8,6	8,5	1	1	1	1	1	1	1	1	1	0	1	-6,483439	274,050779	313,337744	0
15.01.2021	09:46:01	0	18,917176	3,389458	2,0535	360	0,029	88,681	0	1013,62	6,7	8,6	8,5	1	1	1	1	1	1	1	1	1	0	1	-6,272023	273,933543	313,002247	0
15.01.2021	09:46:02	0	18,679225	3,728403	2,01675	359,5032	0,028	88,661	0	1013,66	6,7	8,6	8,5	1	1	1	1	1	1	1	1	1	0	1	-3,805497	274,046314	315,994843	0
15.01.2021	09:46:03	0	18,560249	2,598584	2,1015	5,2128	0,035	88,681	0	1013,52	6,7	8,6	8,5	1	1	1	1	1	1	1	1	1	0	1	-7,117689	274,102948	312,947091	0
15.01.2021	09:46:04	0	18,917176	2,485602	2,1225	1,152	0,028	88,649	0	1013,64	6,7	8,6	8,5	1	1	1	1	1	1	1	1	1	0	1	-2,818887	273,958711	316,572733	0
15.01.2021	09:46:05	0	18,7982	4,745241	2,18625	5,2092	0,03	88,67	0	1013,56	6,7	8,6	8,5	1	1	1	1	1	1	1	1	1	0	1	-6,060606	274,059713	313,80228	0
15.01.2021	09:46:06	0	18,7982	3,050512	2,2215	1,9224	0,03	88,685	0	1013,64	6,7	8,6	8,5	1	1	1	1	1	1	1	1	1	0	1	-3,59408	273,951305	315,763005	0
15.01.2021	09:46:07	0	18,917176	3,163494	2,3115	1,1808	0,034	88,658	0	1013,8	6,7	8,6	8,5	1	1	1	1	1	1	1	1	1	0	1	-8,45666	273,955749	310,921144	0
15.01.2021	09:46:08	0	18,7982	3,389458	2,4375	353,9016	0,032	88,671	0	1013,72	6,7	8,6	8,5	1	1	1	1	1	1	1	1	1	0	1	-8,949965	274,082064	311,01728	0
15.01.2021	09:46:09	0	18,917176	4,180331	2,478	360	0,034	88,673	0	1013,78	6,7	8,6	8,5	1	1	1	1	1	1	1	1	1	0	1	-9,513742	274,128339	310,669645	0
15.01.2021	09:46:10	0	18,679225	3,728403	2,55675	358,6932	0,034	88,679	0	1013,7	6,7	8,6	8,5	1	1	1	1	1	1	1	1	1	0	1	-6,8358	273,952786	312,528191	0
15.01.2021	09:46:11	0	19,036152	3,954367	2,706	352,1016	0,028	88,674	0	1013,64	6,7	8,6	8,5	1	1	1	1	1	1	1	1	1	0	1	-7,047216	273,977979	312,434267	0
15.01.2021	09:46:12	0	18,560249	2,824548	2,91	355,3812	0,049	88,684	0	1013,68	6,7	8,6	8,5	1	1	1	1	1	1	1	1	1	0	1	-4,087385	274,108919	316,005285	0
15.01.2021	09:46:13	0	18,917176	2,598584	2,8995	0,486	0,032	88,679	0	1013,64	6,7	8,6	8,5	1	1	1	1	1	1	1	1	1	0	1	-0,98661	274,092503	319,029386	0
15.01.2021	09:46:14	0	18,917176	4,858223	2,673	352,44	0,031	88,672	0	1013,56	6,7	8,6	8,5	1	1	1	1	1	1	1	1	1	0	1	-7,188161	274,000236	312,397147	0
15.01.2021	09:46:15	0	18,679225	3,276476	2,7375	347,346	0,034	88,679	0	1013,52	6,7	8,6	8,5	1	1	1	1	1	1	1	1	1	0	1	-6,272023	273,937982	313,022942	0
15.01.2021	09:46:16	0	19,036152	4,632259	2,811	355,8564	0,032	88,653	0	1013,6	6,7	8,6	8,5	1	1	1	1	1	1	1	1	1	0	1	-7,751938	273,983912	311,757218	0
15.01.2021	09:46:17	0	18,679094	2,824548	2,781	353,9988	0,031	88,675	0	1013,64	6,7	8,7	8,5	1	1	1	1	1	1	1	1	1	0	1	-4,016913	273,973531	315,443823	0
15.01.2021	09:46:18	0	19,036152	3,050512	2,73	351,7416	0,027	88,673	0	1013,6	6,7	8,6	8,5	1	1	1	1	1	1	1	1	1	0	1	-4,439746	273,99133	315,104014	0
15.01.2021	09:46:19	0	19,036152	4,406295	2,7585	358,6572	0,034	88,658	0	1013,56	6,7	8,6	8,5	1	1	1	1	1	1	1	1	1	0	1	-5,637773	273,943903	313,684794	0
15.01.2021	09:46:20	0	18,7982	4,180331	2,77875	357,3108	0,026	88,66	0	1013,58	6,7	8,6	8,5	1	1	1	1	1	1	1	1	1	0	1	-7,470049	274,016574	312,191489	0
15.01.2021	09:46:21	0	19,036152	4,632259	2,70375	2,628	0,031	88,666	0	1013,6	6,7	8,6	8,5	1	1	1	1	1	1	1	1	1	0	1	-6,765328	273,940942	312,543437	0
15.01.2021	09:46:22	0	19,036152	3,050512	2,66175	356,2236	0,033	88,667	0	1013,56	6,7	8,6	8,5	1	1	1	1	1	1	1	1	1	0	1	-4,862579	274,050779	314,958603	0
15.01.2021	09:46:23	0	18,679225	4,632259	2,64525	353,6208	0,035	88,672	0	1013,68	6,7	8,6	8,5	1	1	1	1	1	1	1	1	1	0	1	-4,721635	274,131328	315,475718	0
15.01.2021	09:46:24	0	18,7982	3,615421	2,57025	357,8976	0,028	88,665	0	1013,5	6,7	8,6	8,5	1	1	1	1	1	1	1	1	1	0	1	-5,073996	274,102948	314,990784	0
15.01.2021	09:46:25	0	19,036152	2,93753	2,47575	352,0908	0,028	88,666	0	1013,68	6,7	8,6	8,5	1	1	1	1	1	1	1	1	1	0	1	-6,8358	274,064181	313,047946	0
15.01.2021	09:46:26	0	18,7982	4,858223	2,3775	4,4532	0,026	88,659	0	1013,62	6,7	8,6	8,5	1	1	1	1	1	1	1	1	1	0	1	-6,483439	273,943903	312,839128	0
15.01.2021	09:46:27	0	18,560249	2,824548	2,2875	0	0,035	88,656	0	1013,62	6,7	8,6	8,5	1	1	1	1	1	1	1	1	1	0	1	-1,832276	273,924668	317,400619	0
15.01.2021	09:46:28	0	18,7982	2,93753	2,196	350,6616	0,035	88,664	0	1013,62	6,7	8,6	8,5	1	1	1	1	1	1	1	1	1	0	1	-3,030303	273,943903	316,292264	0
15.01.2021	09:46:29	0	18,7982	3,954367	2,12025	356,1696	0,038	88,668	0	1013,62	6,7	8,6	8,5	1	1	1	1	1	1	1	1	1	0	1	-5,919662	274,105934	314,159062	0
15.01.2021	09:46:30	0	18,560119	2,598584	2,10975	360	0,036	88,667	0	1013,66	6,7	8,7	8,5	1	1	1	1	1	1	1	1	1	0	1	-8,174771	273,963156	311,237577	0
15.01.2021	09:46:31	0	18,917176	3,954367	2,13	358,002	0,035	88,671	0	1013,66	6,7	8,6	8,5	1	1	1	1	1	1	1	1	1	0	1	-6,8358	274,104441	313,235952	0
15.01.2021	09:46:32	0	19,036152	2,93753	2,04225	3,0096	0,03	88,663	0	1013,58	6,7	8,6	8,5	1	1	1	1	1	1	1	1	1	0	1	-0,352361	274,07014	319,559208	0
15.01.2021	09:46:33	0	18,679094	4,745241	2,073	1,5336	0,028	88,671	0	1013,42	6,7	8,7	8,5	1	1	1	1	1	1	1	1	1	0	1	-4,016913	273,976497	315,457654	0
15.01.2021	09:46:34	0	18,679225	3,728403	2,1945	1,9116	0,025	88,653	0	1013,54	6,7	8,6	8,5	1	1	1	1	1	1	1	1	1	0	1	-4,157858	273,834672	314,655714	0
15.01.2021	09:46:35	0	18,7982	4,632259	2,268	1,5588	0,035	88,667	0	1013,64	6,7	8,6	8,5	1	1	1	1	1	1	1	1	1	0	1	-5,285412	274,0359	314,466318	0
15.01.2021	09:46:36	0	18,7982	3,389458	2,21475	7,8768	0,033	88,664	0	1013,7	6,7	8,6	8,5	1	1	1	1	1	1	1	1	1	0	1	-8,879493	274,131328	311,317861	0
15.01.2021	09:46:37	0	19,036019	4,067349	2,18175	360	0,03	88,667	0	1013,7	6,7	8,7	8,5	1	1	1	1	1	1	1	1	1	0	1	-7,047216	274,06865	312,857395	0
15.01.2021	09:46:38	0	18,679225	2,598584	2,085	3,7764	0,03	88,664	0	1013,62	6,7	8,6	8,5	1	1	1	1	1	1	1	1	1	0	1	-4,933051	274,12535	315,236372	0
15.01.2021	09:46:39	0	19,036152	2,93753	2,04675	2,2824	0,036	88,667	0	1013,64	6,7	8,6	8,5	1	1	1	1	1	1	1	1	1	0	1	-7,963354	274,06865	311,941257	0
15.01.2021	09:46:40	0	18,441273	4,293313	2,07975	357,6744	0,032	88,669	0	1013,58	6,7	8,6	8,5	1	1	1	1	1	1	1	1	1	0	1	-7,610994	273,939462	311,690871	0
15.01.2021	09:46:41	0	18,679094	2,598584	2,0235	357,6204	0,036	88,671	0	1013,7	6,7	8,7	8,5	1	1	1	1	1	1	1	1	1	0	1	-3,100775	274,01806	316,567697	0
15.01.2021	09:46:42	0	18,917176	4,519277	1,97775	357,5988	0,03	88,665	0	1013,64	6,7	8,6	8,5	1	1	1	1	1	1	1	1	1	0	1	-8,104299	273,955749	311,273505	0
15.01.2021	09:46:43	0	18,917176	3,841385	2,0175	358,0416	0,028	88,651	0	1013,48	6,7	8,6	8,5	1	1	1	1	1	1	1	1	1	0	1	-3,523608	273,982429	315,978629	0
15.01.2021	09:46:44	0	18,679225	2,598584	2,02425	359,1144	0,033	88,655	0	1013,7	6,7	8,6	8,5	1	1	1	1	1	1	1	1	1	0	1	-9,725159	274,099963	310,32568	0
15.01.2021	09:46:45	0	19,155128	3,050512	2,05275	358,3584	0,025	88,651	0	1013,5	6,7	8,6	8,5	1	1	1	1	1	1	1	1	1	0	1	-6,765328	274,062691	313,111464	0
15.01.2021	09:46:46	0	18,7982	3,50244	2,046	353,556	0,038	88,667	0	1013,68	6,7	8,6	8,5	1	1	1	1	1	1	1	1	1	0	1	-4,510218	274,116386	315,61733	0
15.01.2021	09:46:47	0	19,036152	5,197168	2,019	5,6736	0,039	88,669	0	1013,7	6,7	8,6	8,5	1	1	1	1	1	1	1	1	1	0	1	-9,866103	274,010631	309,767706	0
15.01.2021	09:46:48	0	19,155128	4,971205	1,9905	360	0,032	88,652	0	1013,64	6,7	8,6	8,5	1	1	1	1	1	1	1	1	1	0	1	-5,778717	274,105934	314,300006	0
15.01.2021	09:46:49	0	19,036019	4,632259	1,95675	356,2092	0,032	88,663	0	1013,66	6,7	8,7	8,5	1	1	1	1	1	1	1	1	1	0	1	-6,342495	274,032925	313,395353	0
15.01.2021	09:46:50	0	18,917176	4,745241	1,99425	4,0716	0,035	88,674	0	1013,66	6,7	8,6	8,5	1	1	1	1	1	1	1	1	1	0	1	-6,20155	273,955749	313,176254	0
15.01.2021	09:46:51	0	19,274104	4,632259	2,007	357,2028	0,033	88,668	0	1013,7	6,7	8,6	8,5	1	1	1	1	1	1	1	1	1	0	1	-9,161381	274,093995	310,861582	0
15.01.2021	09:46:52	0	18,917176	3,050512	1,965	6,408	0,038	88,665	0	1013,52	6,7	8,6	8,5	1	1	1	1	1	1	1	1	1	0	1	-13,03735	274,128339	307,146037	0
15.01.2021	09:46:53	0	18,917176	3,841385	1,884	355,8456	0,035	88,677	0	1013,66	6,7	8,6	8,5	1	1	1	1	1	1	1	1	1	0	1	-6,765328	274,000236	312,81998	0
15.01.2021	09:46:54	0	18,7982	3,728403	1,914	0,4716	0,03	88,674	0	1013,74	6,7	8,6	8,5	1	1	1	1	1	1	1	1	1	0	1	-5,84919	274,016574	313,812349	0
15.01.2021	09:46:55	0	19,273969	3,50244	1,92225	1,5552	0,034	88,67	0	1013,58	6,7	8,7	8,5	1	1	1	1	1	1	1	1	1	0	1	-6,8358	274,040363	312,936759	0
15.01.2021	09:46:56	0	19,036019	3,389458	1,8735	358,2828	0,033	88,671	0	1013,68	6,7	8,7	8,5	1	1	1	1	1	1	1	1	1	0	1	-8,386187	273,95723	310,998524	0
15.01.2021	09:46:57	0	19,274104	3,615421	1,7595	359,1468	0,036	88,679	0	1013,78	6,7	8,6	8,5	1	1	1	1	1	1	1	1	1	0	1	-5,073996	273,986879	314,449	0
15.01.2021	09:46:58	0	19,036152	4,406295	1,6905	353,5524	0,036	88,682	0	1013,66	6,7	8,6	8,5	1	1	1	1	1	1	1	1	1	0	1	-9,513742	274,108919	310,578928	0
15.01.2021	09:46:59	0	19,155128	2,824548	1,665	354,6144	0,028	88,663	0	1013,58	6,7	8,6	8,5	1	1	1	1	1	1	1	1	1	0	1	-6,483439	274,038875	313,282176	0
15.01.2021	09:47:00	0	18,917044	3,615421	1,701	351,054	0,028	88,682	0	1013,7	6,7	8,7	8,5	1	1	1	1	1	1	1	1	1	0	1	-8,949965	274,043338	310,836483	0
15.01.2021	09:47:01	0	18,917044	3,615421	1,701	351,054	0,028	88,682	0	1013,7	6,7	8,7	8,5	1	1	1	1	1	1	1	1	1	0	1	-8,949965	274,043338	310,836483	0
15.01.2021	09:47:02	0	18,560249	2,711566	1,75875	360	0,026	88,68	0	1013,66	6,7	8,6	8,5	1	1	1	1	1	1	1	1	1	0	1	-1,550388	274,107427	318,535309	0
15.01.2021	09:47:03	0	19,036152	3,389458	1,8645	346,8276	0,036	88,69	0	1013,72	6,7	8,6	8,5	1	1	1	1	1	1	1	1	1	0	1	-4,721635	274,053757	315,113446	0
15.01.2021	09:47:04	0	19,274104	4,971205	2,0445	355,0536	0,03	88,684	0	1013,56	6,7	8,6	8,5	1	1	1	1	1	1	1	1	1	0	1	-7,82241	274,032925	311,915437	0
15.01.2021	09:47:05	0	19,036152	3,615421	2,14275	354,5892	0,031	88,689	0	1013,62	6,7	8,6	8,5	1	1	1	1	1	1	1	1	1	0	1	-9,372798	274,108919	310,719873	0
15.01.2021	09:47:06	0	19,036152	4,067349	2,121	355,0464	0,032	88,683	0	1013,58	6,7	8,6	8,5	1	1	1	1	1	1	1	1	1	0	1	-8,386187	273,998751	311,192194	0
15.01.2021	09:47:07	0	19,155128	4,180331	2,055	356,976	0,036	88,693	0	1013,54	6,7	8,6	8,5	1	1	1	1	1	1	1	1	1	0	1	-3,312192	274,102948	316,752588	0
15.01.2021	09:47:08	0	18,679225	3,050512	2,00925	355,1436	0,031	88,691	0	1013,68	6,7	8,6	8,5	1	1	1	1	1	1	1	1	1	0	1	-3,312192	274,046314	316,488148	0
15.01.2021	09:47:09	0	18,7982	3,615421	2,00775	350,64	0,03	88,68	0	1013,56	6,7	8,6	8,5	1	1	1	1	1	1	1	1	1	0	1	-3,59408	274,111906	316,512539	0
15.01.2021	09:47:10	0	18,679225	3,163494	2,14425	0,8532	0,025	88,676	0	1013,52	6,7	8,6	8,5	1	1	1	1	1	1	1	1	1	0	1	-4,580691	274,052268	315,247441	0
15.01.2021	09:47:11	0	18,7982	3,728403	2,15025	350,8884	0,033	88,682	0	1013,56	6,7	8,6	8,5	1	1	1	1	1	1	1	1	1	0	1	-10,570825	274,111906	309,535795	0
15.01.2021	09:47:12	0	19,036152	2,824548	2,3565	352,5048	0,034	88,688	0	1013,78	6,7	8,6	8,5	1	1	1	1	1	1	1	1	1	0	1	-8,527132	274,034413	311,217657	0
15.01.2021	09:47:13	0	19,036152	5,31015	2,511	349,8804	0,036	88,683	0	1013,74	6,7	8,6	8,5	1	1	1	1	1	1	1	1	1	0	1	-7,681466	274,129833	312,508904	0
15.01.2021	09:47:14	0	19,036152	2,824548	2,451	353,9916	0,031	88,685	0	1013,64	6,7	8,6	8,5	1	1	1	1	1	1	1	1	1	0	1	-1,973221	274,044826	317,820173	0
15.01.2021	09:47:15	0	19,036152	3,50244	2,52	346,0716	0,03	88,685	0	1013,58	6,7	8,6	8,5	1	1	1	1	1	1	1	1	1	0	1	-4,580691	273,977979	314,900793	0
15.01.2021	09:47:16	0	18,798069	5,423132	2,61825	354,9096	0,032	88,705	0	1013,8	6,7	8,7	8,5	1	1	1	1	1	1	1	1	1	0	1	-9,302326	274,000236	310,282982	0
15.01.2021	09:47:17	0	19,274104	4,632259	2,76	4,068	0,032	88,697	0	1013,58	6,7	8,6	8,5	1	1	1	1	1	1	1	1	1	0	1	-1,127555	274,091012	318,881475	0
15.01.2021	09:47:18	0	18,798069	4,293313	2,5455	12,078	0,032	88,674	0	1013,62	6,7	8,7	8,5	1	1	1	1	1	1	1	1	1	0	1	-5,567301	273,99133	313,97646	0
15.01.2021	09:47:19	0	19,036152	3,615421	2,18475	4,824	0,038	88,696	0	1013,62	6,7	8,6	8,5	1	1	1	1	1	1	1	1	1	0	1	-7,470049	274,144785	312,790185	0
15.01.2021	09:47:20	0	18,798069	4,067349	2,01675	0	0,038	88,704	0	1013,74	6,7	8,7	8,5	1	1	1	1	1	1	1	1	1	0	1	-3,312192	274,025491	316,39096	0
15.01.2021	09:47:21	0	18,917044	4,745241	2,1165	5,22	0,031	88,694	0	1013,62	6,7	8,7	8,5	1	1	1	1	1	1	1	1	1	0	1	-3,030303	273,948344	316,312973	0
15.01.2021	09:47:22	0	19,155128	3,841385	2,20425	21,456	0,035	88,702	0	1013,52	6,7	8,6	8,5	1	1	1	1	1	1	1	1	1	0	1	-9,795631	274,028464	309,921397	0
15.01.2021	09:47:23	0	19,036019	4,745241	2,307	11,1996	0,038	88,703	0	1013,68	6,7	8,7	8,5	1	1	1	1	1	1	1	1	1	0	1	-7,82241	273,95723	311,562301	0
15.01.2021	09:47:24	0	19,036152	3,50244	2,4375	5,6844	0,034	88,692	0	1013,56	6,7	8,6	8,5	1	1	1	1	1	1	1	1	1	0	1	-5,778717	274,06567	314,111983	0
15.01.2021	09:47:25	0	18,679225	2,93753	2,52975	13,1652	0,041	88,706	0	1013,6	6,7	8,6	8,5	1	1	1	1	1	1	1	1	1	0	1	-6,624383	273,951305	312,732702	0
15.01.2021	09:47:26	0	18,7982	3,163494	2,529	356,6196	0,035	88,699	0	1013,76	6,7	8,6	8,5	1	1	1	1	1	1	1	1	1	0	1	-3,875969	273,937982	315,418996	0
15.01.2021	09:47:27	0	18,679225	2,711566	2,5785	13,1544	0,031	88,696	0	1013,5	6,7	8,6	8,5	1	1	1	1	1	1	1	1	1	0	1	-7,329105	274,047803	312,478182	0
15.01.2021	09:47:28	0	18,7982	3,389458	2,505	2,6712	0,034	88,681	0	1013,64	6,7	8,6	8,5	1	1	1	1	1	1	1	1	1	0	1	-2,748414	274,114893	317,372157	0
15.01.2021	09:47:29	0	18,7982	3,954367	2,343	13,9896	0,035	88,697	0	1013,64	6,7	8,6	8,5	1	1	1	1	1	1	1	1	1	0	1	-8,668076	274,056734	311,180906	0
15.01.2021	09:47:30	0	18,798069	4,180331	2,199	3,3984	0,04	88,71	0	1013,74	6,7	8,7	8,5	1	1	1	1	1	1	1	1	1	0	1	-3,24172	273,955749	316,136084	0
15.01.2021	09:47:31	0	18,798069	3,163494	2,049	348,6564	0,028	88,678	0	1013,64	6,7	8,7	8,5	1	1	1	1	1	1	1	1	1	0	1	-3,946441	274,074611	315,986001	0
15.01.2021	09:47:32	0	18,679225	3,389437	2,1345	358,4448	0,034	88,69	0	1013,58	6,7	8,6	8,6	1	1	1	1	1	1	1	1	1	0	1	-3,24172	274,114893	316,878852	0
15.01.2021	09:47:33	0	18,917176	4,406295	2,1765	352,044	0,038	88,701	0	1013,54	6,7	8,6	8,5	1	1	1	1	1	1	1	1	1	0	1	-4,510218	274,123856	315,652224	0
15.01.2021	09:47:34	0	19,274104	3,954367	2,15625	360	0,039	88,695	0	1013,74	6,7	8,6	8,5	1	1	1	1	1	1	1	1	1	0	1	-6,483439	274,028464	313,233589	0
15.01.2021	09:47:35	0	18,917176	4,067349	2,0685	0,1224	0,034	88,697	0	1013,74	6,7	8,6	8,5	1	1	1	1	1	1	1	1	1	0	1	-2,255109	274,113399	317,858486	0
15.01.2021	09:47:36	0	18,917176	4,632259	2,0595	2,2644	0,032	88,699	0	1013,6	6,7	8,6	8,5	1	1	1	1	1	1	1	1	1	0	1	-8,104299	274,07163	311,814227	0
15.01.2021	09:47:37	0	18,560119	2,93753	2,01225	2,6352	0,035	88,703	0	1013,62	6,7	8,7	8,5	1	1	1	1	1	1	1	1	1	0	1	-7,82241	274,110413	312,277235	0
15.01.2021	09:47:38	0	18,917044	4,067349	1,97475	358,4844	0,036	88,69	0	1013,58	6,7	8,7	8,5	1	1	1	1	1	1	1	1	1	0	1	-5,990134	274,098471	314,053735	0
15.01.2021	09:47:39	0	18,917176	3,276456	2,07975	360	0,04	88,708	0	1013,68	6,7	8,6	8,6	1	1	1	1	1	1	1	1	1	0	1	-8,315715	274,06865	311,588897	0
15.01.2021	09:47:40	0	18,7982	3,276476	2,20575	1,908	0,038	88,698	0	1013,56	6,7	8,6	8,5	1	1	1	1	1	1	1	1	1	0	1	-2,184637	273,932064	317,082735	0
15.01.2021	09:47:41	0	19,154994	4,406295	2,187	6,8076	0,031	88,692	0	1013,46	6,7	8,7	8,5	1	1	1	1	1	1	1	1	1	0	1	-9,513742	274,037387	310,24493	0
15.01.2021	09:47:42	0	19,036152	3,954367	2,115	5,2056	0,032	88,696	0	1013,48	6,7	8,6	8,5	1	1	1	1	1	1	1	1	1	0	1	-6,906272	273,985395	312,609803	0
15.01.2021	09:47:43	0	19,154994	3,841385	2,037	360	0,041	88,706	0	1013,6	6,7	8,7	8,5	1	1	1	1	1	1	1	1	1	0	1	-6,20155	274,077591	313,744811	0
15.01.2021	09:47:44	0	18,7982	4,067349	1,932	8,6112	0,036	88,714	0	1013,68	6,7	8,6	8,5	1	1	1	1	1	1	1	1	1	0	1	-6,976744	274,119373	313,16476	0
15.01.2021	09:47:45	0	18,679225	4,293287	1,87425	353,2752	0,04	88,708	0	1013,62	6,7	8,6	8,6	1	1	1	1	1	1	1	1	1	0	1	-10,359408	274,021032	309,322934	0
15.01.2021	09:47:46	0	18,560249	2,711566	1,97475	3,3876	0,042	88,722	0	1013,68	6,7	8,6	8,5	1	1	1	1	1	1	1	1	1	0	1	-9,372798	274,122361	310,782665	0
15.01.2021	09:47:47	0	19,154994	4,858223	1,995	355,0392	0,041	88,711	0	1013,7	6,7	8,7	8,5	1	1	1	1	1	1	1	1	1	0	1	-5,355884	274,096979	314,681015	0
15.01.2021	09:47:48	0	18,679225	2,824548	2,01525	3,0888	0,036	88,71	0	1013,56	6,7	8,6	8,5	1	1	1	1	1	1	1	1	1	0	1	-9,513742	274,131328	310,683611	0
15.01.2021	09:47:49	0	18,917176	3,954367	2,001	1,548	0,038	88,707	0	1013,68	6,7	8,6	8,5	1	1	1	1	1	1	1	1	1	0	1	-6,553911	274,06865	313,350701	0
15.01.2021	09:47:50	0	19,154994	4,406295	2,04675	1,9008	0,034	88,699	0	1013,68	6,7	8,7	8,5	1	1	1	1	1	1	1	1	1	0	1	-6,624383	273,973531	312,836353	0
15.01.2021	09:47:51	0	19,155128	3,163475	2,0745	6,4224	0,042	88,721	0	1013,72	6,7	8,6	8,6	1	1	1	1	1	1	1	1	1	0	1	-6,272023	273,989846	313,264816	0
15.01.2021	09:47:52	0	18,917044	3,050494	2,02875	15,4008	0,04	88,694	0	1013,6	6,7	8,7	8,6	1	1	1	1	1	1	1	1	1	0	1	-6,060606	273,948344	313,28267	0
15.01.2021	09:47:53	0	18,917044	3,954344	1,96725	10,0584	0,043	88,721	0	1013,72	6,7	8,7	8,6	1	1	1	1	1	1	1	1	1	0	1	-3,946441	274,022518	315,742837	0
15.01.2021	09:47:54	0	18,798069	4,406295	1,99425	14,6556	0,037	88,721	0	1013,74	6,6	8,7	8,5	1	1	1	1	1	1	1	1	1	0	1	-8,033827	273,95723	311,350885	0
15.01.2021	09:47:55	0	19,155128	5,197168	2,13075	5,6844	0,04	88,713	0	1013,66	6,7	8,6	8,5	1	1	1	1	1	1	1	1	1	0	1	-7,117689	274,061202	312,75215	0
15.01.2021	09:47:56	0	18,679094	2,71155	2,3565	8,5968	0,037	88,719	0	1013,7	6,7	8,7	8,6	1	1	1	1	1	1	1	1	1	0	1	-2,114165	273,970566	317,332743	0
15.01.2021	09:47:57	0	19,036019	5,084186	2,391	6,4404	0,039	88,714	0	1013,78	6,7	8,7	8,5	1	1	1	1	1	1	1	1	1	0	1	-7,963354	274,01806	311,705118	0
15.01.2021	09:47:58	0	18,917176	3,389458	2,31225	10,8252	0,042	88,706	0	1013,7	6,7	8,6	8,5	1	1	1	1	1	1	1	1	1	0	1	-2,466526	274,104441	317,605226	0
15.01.2021	09:47:59	0	19,036019	4,180331	2,26425	354,0276	0,037	88,711	0	1013,76	6,7	8,7	8,5	1	1	1	1	1	1	1	1	1	0	1	-5,144468	273,955749	314,233336	0
15.01.2021	09:48:00	0	19,154994	5,536081	2,1705	359,0388	0,033	88,717	0	1013,64	6,7	8,7	8,6	1	1	1	1	1	1	1	1	1	0	1	-6,342495	274,000236	313,242813	0
15.01.2021	09:48:01	0	19,154994	5,536081	2,1705	359,0388	0,033	88,717	0	1013,64	6,7	8,7	8,6	1	1	1	1	1	1	1	1	1	0	1	-8,879493	274,086537	311,108642	0
15.01.2021	09:48:02	0	18,917176	3,954367	2,3145	360	0,044	88,71	0	1013,64	6,7	8,6	8,5	1	1	1	1	1	1	1	1	1	0	1	-2,959831	274,062691	316,916961	0
15.01.2021	09:48:03	0	19,154994	3,728403	2,382	357,3108	0,042	88,712	0	1013,7	6,7	8,7	8,5	1	1	1	1	1	1	1	1	1	0	1	-8,738548	274,120867	311,409935	0
15.01.2021	09:48:04	0	19,036152	4,406295	2,3295	354,2544	0,04	88,712	0	1013,64	6,7	8,6	8,5	1	1	1	1	1	1	1	1	1	0	1	-0,845666	274,000236	318,739642	0
15.01.2021	09:48:05	0	19,036019	4,519277	2,289	356,2092	0,036	88,72	0	1013,62	6,7	8,7	8,5	1	1	1	1	1	1	1	1	1	0	1	-5,285412	273,967602	314,147669	0
15.01.2021	09:48:06	0	19,273969	5,084156	2,33475	351,702	0,038	88,715	0	1013,66	6,7	8,7	8,6	1	1	1	1	1	1	1	1	1	0	1	-3,453136	274,079082	316,500186	0
15.01.2021	09:48:07	0	18,917044	4,180306	2,46225	353,8944	0,042	88,725	0	1013,66	6,7	8,7	8,6	1	1	1	1	1	1	1	1	1	0	1	-7,117689	274,095487	312,912243	0
15.01.2021	09:48:08	0	19,036019	2,824548	2,60625	360	0,046	88,714	0	1013,64	6,7	8,7	8,5	1	1	1	1	1	1	1	1	1	0	1	-7,329105	273,970566	312,117803	0
15.01.2021	09:48:09	0	19,036019	4,632231	2,5875	343,4724	0,041	88,708	0	1013,68	6,7	8,7	8,6	1	1	1	1	1	1	1	1	1	0	1	-4,862579	274,126844	315,313826	0
15.01.2021	09:48:10	0	18,917044	4,406268	2,54925	5,1984	0,039	88,717	0	1013,66	6,7	8,7	8,6	1	1	1	1	1	1	1	1	1	0	1	-7,329105	274,061202	312,540733	0
15.01.2021	09:48:11	0	18,917044	2,824548	2,46675	355,0068	0,043	88,73	0	1013,66	6,7	8,7	8,5	1	1	1	1	1	1	1	1	1	0	1	-10,570825	274,12535	309,598599	0
15.01.2021	09:48:12	0	19,154994	3,276476	2,40975	344,3364	0,038	88,715	0	1013,66	6,7	8,7	8,5	1	1	1	1	1	1	1	1	1	0	1	-8,45666	274,064181	311,427086	0
15.01.2021	09:48:13	0	19,036152	4,406295	2,41275	0,8676	0,046	88,725	0	1013,72	6,7	8,6	8,5	1	1	1	1	1	1	1	1	1	0	1	-5,496829	274,119373	314,644675	0
15.01.2021	09:48:14	0	18,798069	2,711566	2,433	0,1188	0,032	88,726	0	1013,6	6,7	8,7	8,5	1	1	1	1	1	1	1	1	1	0	1	-5,355884	274,026978	314,354205	0
15.01.2021	09:48:15	0	18,798069	3,050494	2,43	355,8816	0,039	88,732	0	1013,62	6,7	8,7	8,6	1	1	1	1	1	1	1	1	1	0	1	-7,188161	274,122361	312,967302	0
15.01.2021	09:48:16	0	19,036152	2,937512	2,5035	352,8468	0,038	88,727	0	1013,74	6,7	8,6	8,6	1	1	1	1	1	1	1	1	1	0	1	-4,087385	274,07014	315,824183	0
15.01.2021	09:48:17	0	19,274104	4,293287	2,5935	357,7068	0,04	88,734	0	1013,62	6,7	8,6	8,6	1	1	1	1	1	1	1	1	1	0	1	-4,721635	274,122361	315,433828	0
15.01.2021	09:48:18	0	19,273969	3,389458	2,46975	345,7008	0,037	88,717	0	1013,66	6,7	8,7	8,5	1	1	1	1	1	1	1	1	1	0	1	-4,792107	274,031438	314,9388	0
15.01.2021	09:48:19	0	19,036019	3,389458	2,496	357,2676	0,043	88,723	0	1013,68	6,7	8,7	8,5	1	1	1	1	1	1	1	1	1	0	1	-5,073996	274,123856	315,088447	0
15.01.2021	09:48:20	0	18,917044	2,93753	2,478	352,1412	0,04	88,716	0	1013,68	6,7	8,7	8,5	1	1	1	1	1	1	1	1	1	0	1	-5,285412	273,998751	314,29297	0
15.01.2021	09:48:21	0	19,036019	3,728403	2,45475	1,1628	0,037	88,727	0	1013,66	6,7	8,7	8,5	1	1	1	1	1	1	1	1	1	0	1	-4,510218	274,07163	315,408307	0
15.01.2021	09:48:22	0	19,036019	3,841362	2,424	356,166	0,037	88,714	0	1013,58	6,6	8,7	8,6	1	1	1	1	1	1	1	1	1	0	1	-7,82241	274,108919	312,27026	0
15.01.2021	09:48:23	0	19,036019	3,954344	2,54025	8,6004	0,045	88,729	0	1013,68	6,7	8,7	8,6	1	1	1	1	1	1	1	1	1	0	1	-8,45666	273,997267	311,114797	0
15.01.2021	09:48:24	0	18,917176	4,406295	2,61825	2,6388	0,047	88,722	0	1013,72	6,7	8,6	8,5	1	1	1	1	1	1	1	1	1	0	1	-6,131078	273,963156	313,281269	0
15.01.2021	09:48:25	0	19,154994	3,50244	2,523	1,9008	0,041	88,729	0	1013,66	6,7	8,7	8,5	1	1	1	1	1	1	1	1	1	0	1	-12,544045	274,06865	307,360567	0
15.01.2021	09:48:26	0	19,154994	3,728381	2,451	5,22	0,042	88,727	0	1013,78	6,7	8,7	8,6	1	1	1	1	1	1	1	1	1	0	1	-9,725159	274,129833	310,465211	0
15.01.2021	09:48:27	0	19,39308	2,824548	2,47125	3,3948	0,041	88,72	0	1013,7	6,7	8,6	8,5	1	1	1	1	1	1	1	1	1	0	1	-8,949965	274,085046	311,031206	0
15.01.2021	09:48:28	0	18,917176	3,389437	2,5215	7,1172	0,044	88,72	0	1013,66	6,7	8,6	8,6	1	1	1	1	1	1	1	1	1	0	1	-5,637773	273,975014	313,829878	0
15.01.2021	09:48:29	0	19,036019	4,745212	2,628	7,884	0,047	88,726	0	1013,68	6,7	8,7	8,6	1	1	1	1	1	1	1	1	1	0	1	-5,426357	273,964638	313,992902	0
15.01.2021	09:48:30	0	19,273969	3,728381	2,793	359,4096	0,042	88,744	0	1013,68	6,7	8,7	8,6	1	1	1	1	1	1	1	1	1	0	1	-4,862579	274,276867	316,015302	0
15.01.2021	09:48:31	0	18,917176	2,598569	2,793	3,024	0,047	88,732	0	1013,76	6,7	8,6	8,6	1	1	1	1	1	1	1	1	1	0	1	-6,060606	274,114893	314,059965	0
15.01.2021	09:48:32	0	19,392944	3,615421	2,76675	6,0588	0,045	88,726	0	1013,62	6,7	8,7	8,5	1	1	1	1	1	1	1	1	1	0	1	-5,708245	274,01806	313,960227	0
15.01.2021	09:48:33	0	19,036152	4,293313	2,7765	10,4184	0,04	88,722	0	1013,58	6,7	8,6	8,5	1	1	1	1	1	1	1	1	1	0	1	-9,020437	274,12535	311,148987	0
15.01.2021	09:48:34	0	19,036019	4,745212	2,733	18,8352	0,046	88,74	0	1013,8	6,7	8,7	8,6	1	1	1	1	1	1	1	1	1	0	1	-6,765328	274,140298	313,47394	0
15.01.2021	09:48:35	0	19,154994	2,598569	2,538	15,7824	0,041	88,735	0	1013,68	6,7	8,7	8,6	1	1	1	1	1	1	1	1	1	0	1	-3,030303	274,0359	316,721427	0
15.01.2021	09:48:36	0	18,917044	2,824531	2,499	5,67	0,043	88,719	0	1013,62	6,7	8,7	8,6	1	1	1	1	1	1	1	1	1	0	1	-5,21494	273,958711	314,176679	0
15.01.2021	09:48:37	0	19,036019	3,050512	2,4825	22,0752	0,043	88,733	0	1013,64	6,7	8,7	8,5	1	1	1	1	1	1	1	1	1	0	1	-7,470049	273,997267	312,101407	0
15.01.2021	09:48:38	0	19,154994	2,37262	2,35425	15,7824	0,043	88,73	0	1013,7	6,7	8,7	8,5	1	1	1	1	1	1	1	1	1	0	1	-7,117689	273,985395	312,398387	0
15.01.2021	09:48:39	0	18,917044	2,824531	2,361	19,1412	0,046	88,727	0	1013,9	6,7	8,7	8,6	1	1	1	1	1	1	1	1	1	0	1	-7,329105	273,954267	312,041792	0
15.01.2021	09:48:40	0	19,036019	2,93753	2,32275	6,066	0,044	88,723	0	1013,68	6,7	8,7	8,5	1	1	1	1	1	1	1	1	1	0	1	-6,342495	274,040363	313,430064	0
15.01.2021	09:48:41	0	19,273969	4,632259	2,3385	357,5808	0,04	88,717	0	1013,66	6,7	8,7	8,5	1	1	1	1	1	1	1	1	1	0	1	-8,80902	273,963156	310,603327	0
15.01.2021	09:48:42	0	19,392944	3,050512	2,36175	359,118	0,051	88,734	0	1013,72	6,7	8,7	8,5	1	1	1	1	1	1	1	1	1	0	1	-7,610994	274,047803	312,196293	0
15.01.2021	09:48:43	0	19,392944	4,519277	2,3775	3,0132	0,047	88,706	0	1013,44	6,7	8,7	8,5	1	1	1	1	1	1	1	1	1	0	1	-2,466526	274,111906	317,640094	0
15.01.2021	09:48:44	0	19,39308	3,163475	2,4975	1,1664	0,043	88,695	0	1013,72	6,7	8,6	8,6	1	1	1	1	1	1	1	1	1	0	1	-7,399577	274,0359	312,352153	0
15.01.2021	09:48:45	0	19,036019	4,632259	2,56725	358,3728	0,044	88,706	0	1013,7	6,7	8,7	8,5	1	1	1	1	1	1	1	1	1	0	1	-3,875969	273,960193	315,522559	0
15.01.2021	09:48:46	0	19,036019	3,615421	2,50725	360	0,046	88,722	0	1013,76	6,7	8,7	8,5	1	1	1	1	1	1	1	1	1	0	1	-7,751938	274,026978	311,958152	0
15.01.2021	09:48:47	0	19,036019	3,841385	2,451	9,738	0,055	88,73	0	1013,78	6,7	8,7	8,5	1	1	1	1	1	1	1	1	1	0	1	-9,372798	273,961674	310,03264	0
15.01.2021	09:48:48	0	19,273969	4,406295	2,244	20,9988	0,043	88,715	0	1013,78	6,7	8,7	8,5	1	1	1	1	1	1	1	1	1	0	1	-5,496829	274,082064	314,470416	0
15.01.2021	09:48:49	0	19,392944	4,632259	2,15925	14,2812	0,034	88,714	0	1013,62	6,7	8,7	8,5	1	1	1	1	1	1	1	1	1	0	1	-8,80902	273,982429	310,693216	0
15.01.2021	09:48:50	0	18,917044	4,067325	2,26575	11,1852	0,049	88,72	0	1013,76	6,7	8,7	8,6	1	1	1	1	1	1	1	1	1	0	1	-8,104299	274,135813	312,114009	0
15.01.2021	09:48:51	0	18,917044	4,406268	2,382	360	0,043	88,71	0	1013,58	6,7	8,7	8,6	1	1	1	1	1	1	1	1	1	0	1	-9,161381	274,098471	310,882488	0
15.01.2021	09:48:52	0	19,273969	3,841362	2,319	6,4368	0,048	88,726	0	1013,66	6,7	8,7	8,6	1	1	1	1	1	1	1	1	1	0	1	-7,892882	273,948344	311,450394	0
15.01.2021	09:48:53	0	19,630895	3,841362	2,24775	0,8676	0,043	88,702	0	1013,72	6,7	8,7	8,6	1	1	1	1	1	1	1	1	1	0	1	-7,047216	273,992814	312,503467	0
15.01.2021	09:48:54	0	19,51192	3,502419	2,18475	352,0656	0,038	88,71	0	1013,66	6,7	8,7	8,6	1	1	1	1	1	1	1	1	1	0	1	-3,171247	274,04185	316,608256	0
15.01.2021	09:48:55	0	19,036019	4,293287	2,25525	0,4788	0,046	88,705	0	1013,68	6,6	8,7	8,6	1	1	1	1	1	1	1	1	1	0	1	-5,355884	274,120867	314,792599	0
15.01.2021	09:48:56	0	19,51192	3,841362	2,45325	0,4932	0,046	88,709	0	1013,74	6,7	8,7	8,6	1	1	1	1	1	1	1	1	1	0	1	-2,255109	274,082064	317,712136	0
15.01.2021	09:48:57	0	19,51192	3,841362	2,8635	9,7308	0,046	88,713	0	1013,66	6,7	8,7	8,6	1	1	1	1	1	1	1	1	1	0	1	-6,342495	274,06716	313,555161	0
15.01.2021	09:48:58	0	19,273969	2,937512	3,12975	17,6868	0,041	88,713	0	1013,58	6,7	8,7	8,6	1	1	1	1	1	1	1	1	1	0	1	-10,993658	273,95723	308,391054	0
15.01.2021	09:48:59	0	19,036019	3,389458	3,17775	9,7488	0,049	88,713	0	1013,7	6,7	8,7	8,5	1	1	1	1	1	1	1	1	1	0	1	-4,862579	274,013602	314,785093	0
15.01.2021	09:49:00	0	19,51192	3,728381	3,453	359,136	0,052	88,721	0	1013,68	6,7	8,7	8,6	1	1	1	1	1	1	1	1	1	0	1	-9,866103	274,0359	309,885627	0
15.01.2021	09:49:01	0	19,51192	3,728381	3,453	359,136	0,052	88,721	0	1013,68	6,7	8,7	8,6	1	1	1	1	1	1	1	1	1	0	1	-9,866103	274,0359	309,885627	0
15.01.2021	09:49:02	0	19,036019	3,050512	3,3105	0,4932	0,05	88,703	0	1013,7	6,7	8,7	8,5	1	1	1	1	1	1	1	1	1	0	1	-6,694856	273,986879	312,82814	0
15.01.2021	09:49:03	0	19,155128	4,067325	3,387	356,5548	0,048	88,723	0	1013,66	6,7	8,6	8,6	1	1	1	1	1	1	1	1	1	0	1	-0,281889	274,116386	319,84566	0
15.01.2021	09:49:04	0	18,917044	2,598584	3,6885	3,3948	0,041	88,725	0	1013,6	6,7	8,7	8,5	1	1	1	1	1	1	1	1	1	0	1	-11,06413	273,975014	308,403521	0
15.01.2021	09:49:05	0	19,154994	2,824531	3,85275	357,9588	0,05	88,73	0	1013,74	6,7	8,7	8,6	1	1	1	1	1	1	1	1	1	0	1	-4,721635	274,086537	315,2665	0
15.01.2021	09:49:06	0	19,036019	2,824548	3,71175	0,8532	0,049	88,724	0	1013,72	6,7	8,7	8,5	1	1	1	1	1	1	1	1	1	0	1	-5,990134	273,753886	312,447384	0
15.01.2021	09:49:07	0	19,392944	2,485587	3,55275	357,9768	0,046	88,733	0	1013,64	6,7	8,7	8,6	1	1	1	1	1	1	1	1	1	0	1	-6,694856	274,132823	313,509482	0
15.01.2021	09:49:08	0	19,273969	3,389437	3,54375	4,446	0,045	88,703	0	1013,56	6,7	8,7	8,6	1	1	1	1	1	1	1	1	1	0	1	-5,073996	274,010631	314,559813	0
15.01.2021	09:49:09	0	19,154994	4,632259	3,58125	12,4632	0,043	88,709	0	1013,6	6,8	8,7	8,5	1	1	1	1	1	1	1	1	1	0	1	-10,147992	274,012117	309,492749	0
15.01.2021	09:49:10	0	19,273969	4,632231	3,65775	6,4116	0,046	88,717	0	1013,74	6,7	8,7	8,6	1	1	1	1	1	1	1	1	1	0	1	-5,355884	274,123856	314,806558	0
15.01.2021	09:49:11	0	19,273969	2,146644	3,588	8,6076	0,048	88,705	0	1013,76	6,6	8,7	8,6	1	1	1	1	1	1	1	1	1	0	1	-5,003524	274,028464	314,713504	0
15.01.2021	09:49:12	0	19,154994	2,711566	3,42225	5,67	0,048	88,724	0	1013,72	6,7	8,7	8,5	1	1	1	1	1	1	1	1	1	0	1	-7,751938	274,111906	312,354682	0
15.01.2021	09:49:13	0	19,273969	2,485602	3,42525	2,3004	0,051	88,721	0	1013,72	6,7	8,7	8,5	1	1	1	1	1	1	1	1	1	0	1	-7,610994	273,994298	311,946614	0
15.01.2021	09:49:14	0	19,51192	4,067325	3,31725	11,7144	0,046	88,717	0	1013,76	6,7	8,7	8,6	1	1	1	1	1	1	1	1	1	0	1	-4,792107	274,07312	315,133377	0
15.01.2021	09:49:15	0	19,273969	4,406268	3,17475	15,786	0,052	88,714	0	1013,62	6,7	8,7	8,6	1	1	1	1	1	1	1	1	1	0	1	-8,033827	274,110413	312,065818	0
15.01.2021	09:49:16	0	19,74987	3,050494	2,9475	12,096	0,044	88,7	0	1013,64	6,6	8,7	8,6	1	1	1	1	1	1	1	1	1	0	1	-5,003524	274,07163	314,915002	0
15.01.2021	09:49:17	0	19,51192	3,954344	2,82525	6,8148	0,049	88,713	0	1013,8	6,7	8,7	8,6	1	1	1	1	1	1	1	1	1	0	1	-5,426357	274,120867	314,722126	0
15.01.2021	09:49:18	0	19,630895	4,745241	2,70975	13,9068	0,05	88,705	0	1013,54	6,7	8,7	8,5	1	1	1	1	1	1	1	1	1	0	1	-7,681466	274,076101	312,257936	0
15.01.2021	09:49:19	0	19,154994	3,276456	2,619	7,1316	0,048	88,705	0	1013,64	6,7	8,7	8,6	1	1	1	1	1	1	1	1	1	0	1	-5,355884	273,961674	314,049553	0
15.01.2021	09:49:20	0	19,74987	4,180306	2,62725	14,292	0,051	88,71	0	1013,7	6,8	8,7	8,6	1	1	1	1	1	1	1	1	1	0	1	-6,553911	274,092503	313,462085	0
15.01.2021	09:49:21	0	19,51192	3,276476	2,502	8,2728	0,051	88,689	0	1013,6	6,7	8,7	8,5	1	1	1	1	1	1	1	1	1	0	1	-9,795631	274,055245	310,0464	0
15.01.2021	09:49:22	0	19,273969	2,93753	2,31525	9,7632	0,055	88,7	0	1013,58	6,7	8,7	8,5	1	1	1	1	1	1	1	1	1	0	1	-3,382664	274,126844	316,793741	0
15.01.2021	09:49:23	0	19,273969	4,180331	2,23275	9,7524	0,048	88,688	0	1013,62	6,6	8,7	8,5	1	1	1	1	1	1	1	1	1	0	1	-6,412967	274,00766	313,206982	0
15.01.2021	09:49:24	0	19,51192	3,163475	2,286	3,402	0,045	88,686	0	1013,66	6,7	8,7	8,6	1	1	1	1	1	1	1	1	1	0	1	-9,725159	273,949825	309,625022	0
15.01.2021	09:49:25	0	19,036019	2,824531	2,31975	4,8456	0,051	88,708	0	1013,74	6,7	8,7	8,6	1	1	1	1	1	1	1	1	1	0	1	-7,681466	274,046314	312,118874	0
15.01.2021	09:49:26	0	19,630895	4,51925	2,36175	346,1688	0,05	88,691	0	1013,76	6,7	8,7	8,6	1	1	1	1	1	1	1	1	1	0	1	-5,990134	274,11788	314,144392	0
15.01.2021	09:49:27	0	19,630895	4,293287	2,5035	360	0,054	88,698	0	1013,72	6,7	8,7	8,6	1	1	1	1	1	1	1	1	1	0	1	-8,45666	274,050779	311,364523	0
15.01.2021	09:49:28	0	19,868845	4,745212	2,61075	357,6456	0,052	88,692	0	1013,72	6,7	8,7	8,6	1	1	1	1	1	1	1	1	1	0	1	-4,580691	273,964638	314,838568	0
15.01.2021	09:49:29	0	19,630895	3,728381	2,8365	354,5388	0,043	88,684	0	1013,54	6,7	8,7	8,6	1	1	1	1	1	1	1	1	1	0	1	-8,597604	274,056734	311,251378	0
15.01.2021	09:49:30	0	19,273969	2,937512	3,018	356,5656	0,043	88,688	0	1013,58	6,6	8,7	8,6	1	1	1	1	1	1	1	1	1	0	1	-4,862579	273,960193	314,535949	0
15.01.2021	09:49:31	0	19,74987	4,858193	3,018	352,7928	0,046	88,694	0	1013,64	6,7	8,7	8,6	1	1	1	1	1	1	1	1	1	0	1	-7,681466	274,079082	312,271856	0
15.01.2021	09:49:32	0	19,51192	4,51925	2,877	6,4044	0,052	88,695	0	1013,64	6,8	8,7	8,6	1	1	1	1	1	1	1	1	1	0	1	-5,84919	274,140298	314,390078	0
15.01.2021	09:49:33	0	19,868845	3,954367	2,68575	7,5888	0,038	88,687	0	1013,54	6,7	8,7	8,5	1	1	1	1	1	1	1	1	1	0	1	-5,778717	273,994298	313,77889	0
15.01.2021	09:49:34	0	19,51192	4,858193	2,547	0,8784	0,056	88,7	0	1013,7	6,6	8,7	8,6	1	1	1	1	1	1	1	1	1	0	1	-5,355884	273,96612	314,070285	0
15.01.2021	09:49:35	0	19,630895	4,745212	2,49225	4,8312	0,047	88,674	0	1013,64	6,7	8,7	8,6	1	1	1	1	1	1	1	1	1	0	1	-9,795631	274,080573	310,164653	0
15.01.2021	09:49:36	0	19,273969	2,824531	2,45925	10,44	0,046	88,683	0	1013,64	6,7	8,7	8,6	1	1	1	1	1	1	1	1	1	0	1	-3,030303	274,000236	316,555005	0
15.01.2021	09:49:37	0	19,630895	3,276456	2,418	2,6424	0,05	88,698	0	1013,78	6,7	8,7	8,6	1	1	1	1	1	1	1	1	1	0	1	-7,329105	273,961674	312,076333	0
15.01.2021	09:49:38	0	19,51192	4,293313	2,49525	4,8276	0,047	88,696	0	1013,64	6,6	8,7	8,5	1	1	1	1	1	1	1	1	1	0	1	-6,412967	274,025491	313,290185	0
15.01.2021	09:49:39	0	19,74987	3,163475	2,56275	4,086	0,048	88,695	0	1013,72	6,8	8,7	8,6	1	1	1	1	1	1	1	1	1	0	1	-6,272023	273,973531	313,188713	0
15.01.2021	09:49:40	0	19,868845	3,728381	2,607	5,6772	0,05	88,683	0	1013,66	6,8	8,7	8,6	1	1	1	1	1	1	1	1	1	0	1	-6,906272	274,062691	312,97052	0
15.01.2021	09:49:41	0	19,74987	3,841362	2,67075	11,7216	0,048	88,693	0	1013,78	6,8	8,7	8,6	1	1	1	1	1	1	1	1	1	0	1	-6,624383	273,967602	312,808698	0
15.01.2021	09:49:42	0	19,74987	4,632231	2,67075	10,4364	0,043	88,697	0	1013,64	6,7	8,7	8,6	1	1	1	1	1	1	1	1	1	0	1	-4,369274	274,102948	315,695506	0
15.01.2021	09:49:43	0	20,106795	4,971205	2,57775	8,2584	0,045	88,69	0	1013,46	6,7	8,7	8,5	1	1	1	1	1	1	1	1	1	0	1	-6,483439	274,043338	313,303009	0
15.01.2021	09:49:44	0	19,392944	2,71155	2,5275	6,066	0,049	88,71	0	1013,66	6,7	8,7	8,6	1	1	1	1	1	1	1	1	1	0	1	-8,104299	273,967602	311,328783	0
15.01.2021	09:49:45	0	19,74987	3,050494	2,40075	4,0752	0,051	88,683	0	1013,76	6,7	8,7	8,6	1	1	1	1	1	1	1	1	1	0	1	-9,090909	273,982429	310,411328	0
15.01.2021	09:49:46	0	19,98782	4,519277	2,238	1,926	0,049	88,699	0	1013,74	6,6	8,7	8,5	1	1	1	1	1	1	1	1	1	0	1	-5,073996	274,126844	315,102409	0
15.01.2021	09:49:47	0	19,51192	3,276456	2,2305	356,2344	0,049	88,695	0	1013,74	6,7	8,7	8,6	1	1	1	1	1	1	1	1	1	0	1	-8,949965	273,995783	310,614567	0
15.01.2021	09:49:48	0	19,630895	4,293287	2,2275	360	0,049	88,687	0	1013,68	6,7	8,7	8,6	1	1	1	1	1	1	1	1	1	0	1	-2,466526	273,975014	317,001125	0
15.01.2021	09:49:49	0	19,74987	4,745212	2,29425	6,8184	0,048	88,698	0	1013,72	6,7	8,7	8,6	1	1	1	1	1	1	1	1	1	0	1	-10,852713	274,055245	308,989318	0
15.01.2021	09:49:50	0	19,74987	4,632231	2,41575	359,3988	0,047	88,689	0	1013,62	6,6	8,7	8,6	1	1	1	1	1	1	1	1	1	0	1	-6,060606	274,140298	314,178662	0
15.01.2021	09:49:51	0	19,98782	3,276456	2,53275	14,634	0,044	88,701	0	1013,64	6,7	8,7	8,6	1	1	1	1	1	1	1	1	1	0	1	-8,104299	274,04185	311,675204	0
15.01.2021	09:49:52	0	19,51192	3,954344	2,52075	9,8352	0,05	88,692	0	1013,7	6,6	8,7	8,6	1	1	1	1	1	1	1	1	1	0	1	-7,399577	274,119373	312,741927	0
15.01.2021	09:49:53	0	19,98782	4,51925	2,316	4,446	0,051	88,699	0	1013,76	6,7	8,7	8,6	1	1	1	1	1	1	1	1	1	0	1	-6,906272	274,104441	313,165479	0
15.01.2021	09:49:54	0	19,630895	2,598569	2,17425	6,0624	0,048	88,704	0	1013,8	6,6	8,7	8,6	1	1	1	1	1	1	1	1	1	0	1	-2,889359	273,99133	316,654402	0
15.01.2021	09:49:55	0	19,74987	3,502419	2,14575	2,2896	0,053	88,692	0	1013,76	6,6	8,7	8,6	1	1	1	1	1	1	1	1	1	0	1	-10,923185	273,954267	308,447712	0
15.01.2021	09:49:56	0	19,630895	2,937512	2,14125	14,6556	0,043	88,693	0	1013,72	6,6	8,7	8,6	1	1	1	1	1	1	1	1	1	0	1	-5,496829	274,043338	314,289619	0
15.01.2021	09:49:57	0	19,51192	2,824548	2,19225	8,9856	0,052	88,693	0	1013,52	6,7	8,7	8,5	1	1	1	1	1	1	1	1	1	0	1	-2,043693	273,961674	317,361745	0
15.01.2021	09:49:58	0	19,868845	3,841362	2,3535	22,8348	0,052	88,703	0	1013,82	6,7	8,7	8,6	1	1	1	1	1	1	1	1	1	0	1	-7,540521	274,096979	312,496378	0
15.01.2021	09:49:59	0	19,74987	3,163475	2,4315	1,9152	0,05	88,7	0	1013,82	6,6	8,7	8,6	1	1	1	1	1	1	1	1	1	0	1	-9,090909	274,025491	310,612243	0
15.01.2021	09:50:00	0	19,51192	3,163475	2,325	345,7872	0,054	88,698	0	1013,78	6,6	8,7	8,6	1	1	1	1	1	1	1	1	1	0	1	-7,540521	274,144785	312,719712	0
15.01.2021	09:50:01	0	19,51192	3,163475	2,325	345,7872	0,054	88,698	0	1013,78	6,6	8,7	8,6	1	1	1	1	1	1	1	1	1	0	1	-8,386187	274,080573	311,574096	0
15.01.2021	09:50:02	0	19,74987	2,598569	2,2905	356,148	0,048	88,695	0	1013,58	6,7	8,7	8,6	1	1	1	1	1	1	1	1	1	0	1	-9,372798	273,961674	310,03264	0
15.01.2021	09:50:03	0	19,98782	4,180331	2,3145	358,4556	0,051	88,692	0	1013,72	6,7	8,7	8,5	1	1	1	1	1	1	1	1	1	0	1	-10,147992	274,031438	309,582915	0
15.01.2021	09:50:04	0	19,98782	4,51925	2,45775	6,8112	0,049	88,692	0	1013,68	6,7	8,7	8,6	1	1	1	1	1	1	1	1	1	0	1	-4,298802	273,980945	315,196516	0
15.01.2021	09:50:05	0	20,106795	2,598569	2,4405	6,408	0,05	88,711	0	1013,68	6,7	8,7	8,6	1	1	1	1	1	1	1	1	1	0	1	-8,245243	273,988363	311,284674	0
15.01.2021	09:50:06	0	20,106795	4,51925	2,304	12,8376	0,051	88,702	0	1013,58	6,6	8,7	8,6	1	1	1	1	1	1	1	1	1	0	1	-7,399577	274,092503	312,616419	0
15.01.2021	09:50:07	0	19,74987	3,163475	2,16675	3,0312	0,048	88,703	0	1013,8	6,7	8,7	8,6	1	1	1	1	1	1	1	1	1	0	1	-2,818887	273,970566	316,628021	0
15.01.2021	09:50:08	0	20,344745	3,728381	2,073	4,4604	0,047	88,701	0	1013,68	6,6	8,7	8,6	1	1	1	1	1	1	1	1	1	0	1	-5,567301	274,025491	314,135851	0
15.01.2021	09:50:09	0	19,868845	2,71155	2,16975	9,36	0,053	88,693	0	1013,56	6,7	8,7	8,6	1	1	1	1	1	1	1	1	1	0	1	-4,721635	274,105934	315,357089	0
15.01.2021	09:50:10	0	20,106795	4,180306	2,181	13,914	0,051	88,704	0	1013,68	6,8	8,7	8,6	1	1	1	1	1	1	1	1	1	0	1	-4,369274	274,134318	315,842048	0
15.01.2021	09:50:11	0	19,74987	2,71155	2,25525	7,5024	0,051	88,708	0	1013,68	6,8	8,7	8,6	1	1	1	1	1	1	1	1	1	0	1	-5,567301	274,034413	314,177487	0
15.01.2021	09:50:12	0	19,74987	4,067325	2,2935	6,0588	0,055	88,696	0	1013,66	6,6	8,7	8,6	1	1	1	1	1	1	1	1	1	0	1	-9,020437	273,970566	310,426471	0
15.01.2021	09:50:13	0	20,22577	3,163475	2,25075	8,2584	0,058	88,704	0	1013,68	6,6	8,7	8,6	1	1	1	1	1	1	1	1	1	0	1	-4,439746	273,977979	315,041737	0
15.01.2021	09:50:14	0	19,868845	2,598569	2,22525	11,7108	0,053	88,701	0	1013,8	6,6	8,7	8,6	1	1	1	1	1	1	1	1	1	0	1	-5,355884	274,092503	314,660112	0
15.01.2021	09:50:15	0	20,106795	4,51925	2,172	15,0408	0,051	88,696	0	1013,74	6,7	8,7	8,6	1	1	1	1	1	1	1	1	1	0	1	-7,117689	274,140298	313,121579	0
15.01.2021	09:50:16	0	20,106795	4,406268	2,00775	4,8348	0,052	88,712	0	1013,7	6,6	8,7	8,6	1	1	1	1	1	1	1	1	1	0	1	-4,651163	274,080573	315,309121	0
15.01.2021	09:50:17	0	19,868845	3,728403	1,8915	3,4884	0,048	88,715	0	1013,78	6,8	8,7	8,5	1	1	1	1	1	1	1	1	1	0	1	-2,889359	273,983912	316,619797	0
15.01.2021	09:50:18	0	19,868845	4,51925	1,84425	4,8384	0,052	88,711	0	1013,7	6,6	8,7	8,6	1	1	1	1	1	1	1	1	1	0	1	-4,933051	274,129833	315,257318	0
15.01.2021	09:50:19	0	19,98782	3,163475	1,857	10,0512	0,057	88,711	0	1013,74	6,7	8,7	8,6	1	1	1	1	1	1	1	1	1	0	1	-7,399577	274,079082	312,553745	0
15.01.2021	09:50:20	0	20,22577	3,050494	2,01	4,0788	0,053	88,695	0	1013,68	6,7	8,7	8,6	1	1	1	1	1	1	1	1	1	0	1	-4,369274	274,013602	315,278398	0
15.01.2021	09:50:21	0	19,98782	3,050494	2,21925	15,7752	0,057	88,715	0	1013,76	6,7	8,7	8,6	1	1	1	1	1	1	1	1	1	0	1	-6,272023	274,085046	313,709148	0
15.01.2021	09:50:22	0	19,98782	2,598584	2,15625	0,1188	0,054	88,711	0	1013,7	6,7	8,7	8,5	1	1	1	1	1	1	1	1	1	0	1	-3,875969	273,967602	315,557113	0
15.01.2021	09:50:23	0	20,106795	2,033662	2,00475	357,2352	0,053	88,72	0	1013,68	6,7	8,7	8,6	1	1	1	1	1	1	1	1	1	0	1	-6,624383	274,056734	313,224599	0
15.01.2021	09:50:24	0	19,868845	2,598569	2,049	356,4972	0,053	88,717	0	1013,74	6,7	8,7	8,6	1	1	1	1	1	1	1	1	1	0	1	-4,933051	274,140298	315,306216	0
15.01.2021	09:50:25	0	20,22577	4,632231	1,98675	10,0548	0,054	88,727	0	1013,72	6,6	8,7	8,6	1	1	1	1	1	1	1	1	1	0	1	-11,627907	274,085046	308,353264	0
15.01.2021	09:50:26	0	19,98782	3,728381	1,9905	1,5408	0,05	88,711	0	1013,68	6,7	8,7	8,6	1	1	1	1	1	1	1	1	1	0	1	-1,479915	274,134318	318,731407	0
15.01.2021	09:50:27	0	20,344888	4,293287	2,0415	9,3384	0,055	88,72	0	1013,78	6,7	8,6	8,6	1	1	1	1	1	1	1	1	1	0	1	-4,157858	274,013602	315,489815	0
15.01.2021	09:50:28	0	19,868845	2,937512	2,10075	0	0,053	88,714	0	1013,72	6,8	8,7	8,6	1	1	1	1	1	1	1	1	1	0	1	-6,694856	274,0359	313,056874	0
15.01.2021	09:50:29	0	19,98782	4,971175	2,0925	5,2128	0,05	88,701	0	1013,76	6,7	8,7	8,6	1	1	1	1	1	1	1	1	1	0	1	-5,21494	274,149273	315,066266	0
15.01.2021	09:50:30	0	20,46372	3,163475	2,07375	0,126	0,054	88,722	0	1013,72	6,8	8,7	8,6	1	1	1	1	1	1	1	1	1	0	1	-3,312192	274,093995	316,710772	0
15.01.2021	09:50:31	0	19,98782	3,502419	2,2605	6,4368	0,052	88,703	0	1013,78	6,7	8,7	8,6	1	1	1	1	1	1	1	1	1	0	1	-3,735025	273,951305	315,622061	0
15.01.2021	09:50:32	0	19,868845	3,6154	2,4255	5,9076	0,043	88,709	0	1013,7	6,7	8,7	8,6	1	1	1	1	1	1	1	1	1	0	1	-6,765328	274,040363	313,007231	0
15.01.2021	09:50:33	0	20,22577	2,372606	2,61075	3,4092	0,058	88,713	0	1013,78	6,6	8,7	8,6	1	1	1	1	1	1	1	1	1	0	1	-6,8358	273,979462	312,652601	0
15.01.2021	09:50:34	0	20,106795	2,937512	2,76225	11,1888	0,054	88,709	0	1013,74	6,7	8,7	8,6	1	1	1	1	1	1	1	1	1	0	1	-4,721635	273,998751	314,856747	0
15.01.2021	09:50:35	0	20,106795	2,937512	2,9715	11,7072	0,057	88,7	0	1013,64	6,7	8,7	8,6	1	1	1	1	1	1	1	1	1	0	1	-6,20155	274,092503	313,814446	0
15.01.2021	09:50:36	0	20,106795	3,276456	3,2685	7,8732	0,055	88,719	0	1013,74	6,8	8,7	8,6	1	1	1	1	1	1	1	1	1	0	1	-4,721635	273,964638	314,697623	0
15.01.2021	09:50:37	0	20,344745	3,6154	3,32925	355,7916	0,054	88,723	0	1013,74	6,7	8,7	8,6	1	1	1	1	1	1	1	1	1	0	1	-10,147992	274,0359	309,603738	0
15.01.2021	09:50:38	0	19,98782	4,180306	3,321	6,4332	0,055	88,719	0	1013,76	6,6	8,7	8,6	1	1	1	1	1	1	1	1	1	0	1	-10,782241	274,140298	309,457027	0
15.01.2021	09:50:39	0	20,22577	4,180306	3,4695	7,8768	0,047	88,71	0	1013,58	6,7	8,7	8,6	1	1	1	1	1	1	1	1	1	0	1	-6,20155	274,00469	313,40454	0
15.01.2021	09:50:40	0	19,98782	4,067325	3,5595	7,1244	0,057	88,719	0	1013,76	6,7	8,7	8,6	1	1	1	1	1	1	1	1	1	0	1	-4,792107	274,07014	315,119461	0
15.01.2021	09:50:41	0	20,106795	3,389437	3,633	6,426	0,048	88,708	0	1013,64	6,7	8,7	8,6	1	1	1	1	1	1	1	1	1	0	1	-2,184637	274,120867	317,963846	0
15.01.2021	09:50:42	0	19,98782	3,389437	3,54225	355,0716	0,055	88,718	0	1013,7	6,7	8,7	8,6	1	1	1	1	1	1	1	1	1	0	1	-4,862579	273,983912	314,646577	0
15.01.2021	09:50:43	0	20,22577	3,841362	3,51675	356,472	0,054	88,719	0	1013,68	6,7	8,7	8,6	1	1	1	1	1	1	1	1	1	0	1	-4,087385	273,967602	315,345696	0
15.01.2021	09:50:44	0	20,22577	3,954344	3,42225	0,126	0,055	88,696	0	1013,58	6,7	8,7	8,6	1	1	1	1	1	1	1	1	1	0	1	-6,483439	274,141794	313,762817	0
15.01.2021	09:50:45	0	20,344745	3,841362	3,49875	9,7308	0,053	88,712	0	1013,66	6,7	8,7	8,6	1	1	1	1	1	1	1	1	1	0	1	-3,523608	274,038875	316,242007	0
15.01.2021	09:50:46	0	19,98782	3,389437	3,45375	7,4952	0,053	88,705	0	1013,78	6,7	8,7	8,6	1	1	1	1	1	1	1	1	1	0	1	-1,057082	274,138803	319,175198	0
15.01.2021	09:50:47	0	20,22577	3,163475	3,43575	15,12	0,057	88,702	0	1013,64	6,6	8,7	8,6	1	1	1	1	1	1	1	1	1	0	1	-4,580691	274,095487	315,449241	0
15.01.2021	09:50:48	0	19,98782	3,389437	3,4785	1,9188	0,054	88,684	0	1013,76	6,6	8,7	8,6	1	1	1	1	1	1	1	1	1	0	1	-5,355884	273,989846	314,180954	0
15.01.2021	09:50:49	0	20,46372	4,293287	3,44175	359,8056	0,053	88,692	0	1013,6	6,7	8,7	8,6	1	1	1	1	1	1	1	1	1	0	1	-6,483439	274,126844	313,692966	0
15.01.2021	09:50:50	0	20,582696	4,632231	3,30375	352,4724	0,051	88,689	0	1013,74	6,7	8,7	8,6	1	1	1	1	1	1	1	1	1	0	1	-4,087385	274,096979	315,949514	0
15.01.2021	09:50:51	0	20,106795	3,954344	3,34875	360	0,048	88,691	0	1013,64	6,7	8,7	8,6	1	1	1	1	1	1	1	1	1	0	1	-8,245243	273,979462	311,243157	0
15.01.2021	09:50:52	0	20,46372	4,745212	3,3105	359,856	0,048	88,69	0	1013,58	6,7	8,7	8,6	1	1	1	1	1	1	1	1	1	0	1	-6,060606	274,131328	314,136747	0
15.01.2021	09:50:53	0	20,106795	3,841362	3,34725	6,4152	0,044	88,683	0	1013,5	6,7	8,7	8,6	1	1	1	1	1	1	1	1	1	0	1	-6,060606	274,024005	313,635608	0
15.01.2021	09:50:54	0	20,106795	3,502419	3,32025	13,1544	0,056	88,693	0	1013,62	6,7	8,7	8,6	1	1	1	1	1	1	1	1	1	0	1	-5,426357	274,152266	314,868834	0
15.01.2021	09:50:55	0	19,868845	3,954344	3,3225	9,3492	0,048	88,692	0	1013,56	6,7	8,7	8,6	1	1	1	1	1	1	1	1	1	0	1	-6,483439	274,031438	313,247468	0
15.01.2021	09:50:56	0	20,22577	3,954344	3,4275	12,0852	0,052	88,691	0	1013,68	6,7	8,7	8,6	1	1	1	1	1	1	1	1	1	0	1	-2,889359	274,149273	317,391847	0
15.01.2021	09:50:57	0	20,582696	4,971175	3,25575	10,818	0,056	88,686	0	1013,48	6,7	8,7	8,6	1	1	1	1	1	1	1	1	1	0	1	-7,751938	274,095487	312,277993	0
15.01.2021	09:50:58	0	20,22577	3,276456	3,11925	10,9116	0,054	88,695	0	1013,72	6,7	8,7	8,6	1	1	1	1	1	1	1	1	1	0	1	-4,087385	273,985395	315,42869	0
15.01.2021	09:50:59	0	20,22577	4,067325	3,0825	7,8516	0,05	88,685	0	1013,76	6,7	8,7	8,6	1	1	1	1	1	1	1	1	1	0	1	-2,536998	274,131328	317,660355	0
15.01.2021	09:51:00	0	20,22577	3,841362	2,7855	8,9784	0,047	88,677	0	1013,68	6,7	8,7	8,6	1	1	1	1	1	1	1	1	1	0	1	-7,258633	274,144785	313,001601	0
15.01.2021	09:51:01	0	20,22577	3,841362	2,7855	8,9784	0,047	88,677	0	1013,68	6,7	8,7	8,6	1	1	1	1	1	1	1	1	1	0	1	-7,258633	274,144785	313,001601	0
15.01.2021	09:51:02	0	19,98782	4,51925	2,6865	0,4788	0,055	88,679	0	1013,8	6,7	8,7	8,6	1	1	1	1	1	1	1	1	1	0	1	-7,540521	274,053757	312,29456	0
15.01.2021	09:51:03	0	20,22577	4,180306	2,87625	356,9724	0,058	88,669	0	1013,72	6,7	8,7	8,6	1	1	1	1	1	1	1	1	1	0	1	-3,59408	274,003205	316,005082	0
15.01.2021	09:51:04	0	20,701671	4,858193	3,1245	356,9112	0,052	88,681	0	1013,54	6,7	8,7	8,6	1	1	1	1	1	1	1	1	1	0	1	-6,412967	274,101456	313,644842	0
15.01.2021	09:51:05	0	20,46372	3,841362	3,315	3,8628	0,055	88,673	0	1013,88	6,7	8,7	8,6	1	1	1	1	1	1	1	1	1	0	1	-4,510218	274,059713	315,352667	0
15.01.2021	09:51:06	0	20,22577	2,485587	3,138	347,8464	0,054	88,683	0	1013,5	6,7	8,7	8,6	1	1	1	1	1	1	1	1	1	0	1	-10,852713	274,138803	309,379567	0
15.01.2021	09:51:07	0	20,344745	4,293287	3,05175	357,03	0,045	88,681	0	1013,64	6,7	8,7	8,6	1	1	1	1	1	1	1	1	1	0	1	-3,382664	274,076101	316,556738	0
15.01.2021	09:51:08	0	20,22577	3,163475	3,05325	360	0,047	88,674	0	1013,78	6,7	8,7	8,6	1	1	1	1	1	1	1	1	1	0	1	-6,131078	274,20171	314,395239	0
15.01.2021	09:51:09	0	20,46372	4,51925	3,11925	0,4752	0,047	88,683	0	1013,66	6,7	8,7	8,6	1	1	1	1	1	1	1	1	1	0	1	-2,396054	273,986879	317,126942	0
15.01.2021	09:51:10	0	20,22577	2,824531	3,24	357,5952	0,051	88,675	0	1013,68	6,7	8,7	8,6	1	1	1	1	1	1	1	1	1	0	1	-8,597604	274,026978	311,112486	0
15.01.2021	09:51:11	0	20,46372	3,728381	3,2505	355,4208	0,053	88,678	0	1013,56	6,7	8,7	8,6	1	1	1	1	1	1	1	1	1	0	1	-7,399577	273,976497	312,07499	0
15.01.2021	09:51:12	0	20,22577	2,372606	3,14325	339,372	0,046	88,676	0	1013,68	6,7	8,7	8,6	1	1	1	1	1	1	1	1	1	0	1	-8,738548	273,998751	310,839834	0
15.01.2021	09:51:13	0	20,344745	2,71155	2,83575	332,8056	0,049	88,678	0	1013,6	6,7	8,7	8,6	1	1	1	1	1	1	1	1	1	0	1	-5,84919	273,952786	313,514801	0
15.01.2021	09:51:14	0	20,582696	4,632231	2,5065	359,7732	0,046	88,66	0	1013,6	6,7	8,7	8,6	1	1	1	1	1	1	1	1	1	0	1	-2,60747	274,032925	317,130377	0
15.01.2021	09:51:15	0	20,106795	3,841362	2,55225	352,1304	0,051	88,654	0	1013,68	6,7	8,7	8,6	1	1	1	1	1	1	1	1	1	0	1	-7,610994	274,140298	312,628274	0
15.01.2021	09:51:16	0	20,106795	4,858193	2,51475	6,0444	0,048	88,683	0	1013,56	6,7	8,7	8,6	1	1	1	1	1	1	1	1	1	0	1	-7,540521	274,06567	312,350179	0
15.01.2021	09:51:17	0	20,582696	4,971175	2,45025	359,7768	0,045	88,676	0	1013,64	6,7	8,7	8,6	1	1	1	1	1	1	1	1	1	0	1	-8,45666	273,970566	310,990248	0
15.01.2021	09:51:18	0	20,106795	2,372606	2,4315	6,8112	0,057	88,685	0	1013,58	6,7	8,7	8,6	1	1	1	1	1	1	1	1	1	0	1	-8,033827	274,077591	311,912535	0
15.01.2021	09:51:19	0	20,46372	3,6154	2,30475	351,864	0,051	88,684	0	1013,76	6,7	8,7	8,6	1	1	1	1	1	1	1	1	1	0	1	-5,637773	273,976497	313,836794	0
15.01.2021	09:51:20	0	20,46372	2,937512	2,2425	358,0704	0,051	88,677	0	1013,6	6,7	8,7	8,6	1	1	1	1	1	1	1	1	1	0	1	-3,030303	274,00469	316,575787	0
15.01.2021	09:51:21	0	20,344745	2,485587	2,3415	359,5248	0,056	88,676	0	1013,8	6,7	8,7	8,6	1	1	1	1	1	1	1	1	1	0	1	-3,805497	274,00766	315,814452	0
15.01.2021	09:51:22	0	20,46372	3,502419	2,39175	348,9876	0,049	88,679	0	1013,7	6,7	8,7	8,6	1	1	1	1	1	1	1	1	1	0	1	-3,030303	273,99133	316,513458	0
15.01.2021	09:51:23	0	20,22577	4,180306	2,55	351,2952	0,05	88,682	0	1013,66	6,7	8,7	8,6	1	1	1	1	1	1	1	1	1	0	1	-9,161381	274,137308	311,063912	0
15.01.2021	09:51:24	0	20,344745	3,050494	2,895	14,7384	0,054	88,68	0	1013,64	6,7	8,7	8,6	1	1	1	1	1	1	1	1	1	0	1	-4,157858	274,024005	315,538357	0
15.01.2021	09:51:25	0	20,344745	3,841362	3,015	351,684	0,051	88,672	0	1013,74	6,7	8,7	8,6	1	1	1	1	1	1	1	1	1	0	1	-0,211416	273,989846	319,325422	0
15.01.2021	09:51:26	0	20,344745	4,745212	3,105	358,7004	0,049	88,677	0	1013,64	6,7	8,7	8,6	1	1	1	1	1	1	1	1	1	0	1	-9,513742	274,128339	310,669645	0
15.01.2021	09:51:27	0	20,46372	4,745212	3,02325	360	0,047	88,683	0	1013,7	6,7	8,7	8,6	1	1	1	1	1	1	1	1	1	0	1	-4,862579	274,025491	314,840572	0
15.01.2021	09:51:28	0	20,344745	2,598569	2,79	351,3564	0,052	88,698	0	1013,7	6,7	8,7	8,6	1	1	1	1	1	1	1	1	1	0	1	-7,610994	273,980945	311,884325	0
15.01.2021	09:51:29	0	20,582696	4,745212	2,53575	354,2616	0,052	88,656	0	1013,62	6,7	8,7	8,6	1	1	1	1	1	1	1	1	1	0	1	-4,862579	273,970566	314,584328	0
15.01.2021	09:51:30	0	20,701671	3,050494	2,36475	350,1432	0,044	88,677	0	1013,62	6,7	8,7	8,6	1	1	1	1	1	1	1	1	1	0	1	-2,043693	274,108919	318,048978	0
15.01.2021	09:51:31	0	20,344745	4,180306	2,31525	346,0032	0,046	88,686	0	1013,66	6,7	8,7	8,6	1	1	1	1	1	1	1	1	1	0	1	-6,694856	274,146281	313,572368	0
15.01.2021	09:51:32	0	20,582696	3,841362	2,4345	357,6204	0,05	88,672	0	1013,58	6,7	8,7	8,6	1	1	1	1	1	1	1	1	1	0	1	-3,312192	274,037387	316,446481	0
15.01.2021	09:51:33	0	20,46372	4,067325	2,607	3,384	0,054	88,693	0	1013,62	6,7	8,7	8,6	1	1	1	1	1	1	1	1	1	0	1	-3,805497	274,144785	316,454737	0
15.01.2021	09:51:34	0	20,46372	3,389437	2,769	352,7892	0,049	88,7	0	1013,64	6,7	8,7	8,6	1	1	1	1	1	1	1	1	1	0	1	-5,073996	274,046314	314,726344	0
15.01.2021	09:51:35	0	20,106795	3,6154	2,94825	0,4896	0,045	88,684	0	1013,6	6,7	8,7	8,6	1	1	1	1	1	1	1	1	1	0	1	-8,245243	274,135813	311,973065	0
15.01.2021	09:51:36	0	20,820646	3,841362	2,8005	354,0096	0,047	88,696	0	1013,64	6,7	8,7	8,6	1	1	1	1	1	1	1	1	1	0	1	-6,553911	274,134318	313,657411	0
15.01.2021	09:51:37	0	20,22577	2,711566	2,6595	2,6316	0,048	88,687	0	1013,62	6,7	8,7	8,5	1	1	1	1	1	1	1	1	1	0	1	-2,184637	273,992814	317,366047	0
15.01.2021	09:51:38	0	20,582696	4,745212	2,68875	355,3992	0,049	88,692	0	1013,78	6,7	8,7	8,6	1	1	1	1	1	1	1	1	1	0	1	-6,20155	274,01806	313,466922	0
15.01.2021	09:51:39	0	20,22577	3,6154	2,73825	360	0,053	88,694	0	1013,68	6,7	8,7	8,6	1	1	1	1	1	1	1	1	1	0	1	-6,20155	274,134318	314,009772	0
15.01.2021	09:51:40	0	20,582696	4,858193	2,79975	359,1252	0,055	88,696	0	1013,86	6,7	8,7	8,6	1	1	1	1	1	1	1	1	1	0	1	-9,090909	274,096979	310,945991	0
15.01.2021	09:51:41	0	19,98782	2,824531	3,0195	0	0,053	88,701	0	1013,64	6,7	8,7	8,6	1	1	1	1	1	1	1	1	1	0	1	-7,610994	273,989846	311,925845	0
15.01.2021	09:51:42	0	20,46372	4,293287	3,15825	360	0,05	88,687	0	1013,7	6,7	8,7	8,6	1	1	1	1	1	1	1	1	1	0	1	-0,422833	274,056734	319,426149	0
15.01.2021	09:51:43	0	20,46372	4,971175	3,07725	3,0096	0,045	88,694	0	1013,62	6,7	8,7	8,6	1	1	1	1	1	1	1	1	1	0	1	-5,003524	274,15077	315,284674	0
15.01.2021	09:51:44	0	20,46372	3,6154	2,7135	15,7824	0,053	88,702	0	1013,72	6,7	8,7	8,6	1	1	1	1	1	1	1	1	1	0	1	-6,131078	274,098471	313,912791	0
15.01.2021	09:51:45	0	20,344745	2,71155	2,61825	7,4952	0,058	88,701	0	1013,66	6,7	8,7	8,6	1	1	1	1	1	1	1	1	1	0	1	-9,090909	274,029951	310,633058	0
15.01.2021	09:51:46	0	20,344745	4,51925	2,727	358,6428	0,055	88,703	0	1013,74	6,7	8,7	8,6	1	1	1	1	1	1	1	1	1	0	1	-9,654686	274,128339	310,528701	0
15.01.2021	09:51:47	0	20,344745	3,728381	2,70825	359,028	0,049	88,693	0	1013,6	6,7	8,7	8,6	1	1	1	1	1	1	1	1	1	0	1	-5,355884	274,046314	314,444456	0
15.01.2021	09:51:48	0	20,22577	3,276456	2,68725	3,3912	0,057	88,709	0	1013,78	6,7	8,7	8,6	1	1	1	1	1	1	1	1	1	0	1	-7,470049	273,988363	312,059868	0
15.01.2021	09:51:49	0	20,344745	2,937512	2,55825	360	0,053	88,705	0	1013,66	6,7	8,7	8,6	1	1	1	1	1	1	1	1	1	0	1	-4,792107	274,105934	315,286617	0
15.01.2021	09:51:50	0	20,22577	3,841362	2,523	3,1104	0,056	88,715	0	1013,72	6,7	8,7	8,6	1	1	1	1	1	1	1	1	1	0	1	-8,104299	273,986879	311,418697	0
15.01.2021	09:51:51	0	20,22577	2,485587	2,36925	356,5476	0,056	88,716	0	1013,72	6,7	8,7	8,6	1	1	1	1	1	1	1	1	1	0	1	-2,60747	273,969084	316,832524	0
15.01.2021	09:51:52	0	20,22577	3,276456	2,23875	3,7512	0,054	88,724	0	1013,66	6,7	8,7	8,6	1	1	1	1	1	1	1	1	1	0	1	-4,933051	274,147777	315,341163	0
15.01.2021	09:51:53	0	20,582696	2,711566	2,24025	3,7692	0,05	88,713	0	1013,6	6,7	8,7	8,5	1	1	1	1	1	1	1	1	1	0	1	-5,919662	274,049291	313,894573	0
15.01.2021	09:51:54	0	20,701671	3,050494	2,1945	356,2488	0,052	88,695	0	1013,6	6,7	8,7	8,6	1	1	1	1	1	1	1	1	1	0	1	-5,21494	274,144785	315,045294	0
15.01.2021	09:51:55	0	20,344745	3,502419	2,08275	359,4492	0,052	88,718	0	1013,68	6,7	8,7	8,6	1	1	1	1	1	1	1	1	1	0	1	-6,483439	274,102948	313,581341	0
15.01.2021	09:51:56	0	20,46372	4,406268	1,96575	0,4932	0,05	88,712	0	1013,72	6,7	8,7	8,6	1	1	1	1	1	1	1	1	1	0	1	-3,735025	274,146281	316,532199	0
15.01.2021	09:51:57	0	20,46372	3,163475	1,899	355,3164	0,046	88,722	0	1013,56	6,7	8,7	8,6	1	1	1	1	1	1	1	1	1	0	1	-5,073996	274,110413	315,025649	0
15.01.2021	09:51:58	0	20,22577	3,841362	1,929	356,9328	0,052	88,716	0	1013,72	6,7	8,7	8,6	1	1	1	1	1	1	1	1	1	0	1	-7,892882	273,983912	311,616273	0
15.01.2021	09:51:59	0	20,582696	3,389437	1,881	356,5368	0,049	88,718	0	1013,64	6,7	8,7	8,6	1	1	1	1	1	1	1	1	1	0	1	-7,399577	274,074611	312,532865	0
15.01.2021	09:52:00	0	20,22577	3,954344	1,752	356,1948	0,058	88,721	0	1013,7	6,7	8,7	8,6	1	1	1	1	1	1	1	1	1	0	1	-8,80902	274,0359	310,94271	0
15.01.2021	09:52:01	0	20,22577	3,954344	1,752	356,1948	0,058	88,721	0	1013,7	6,7	8,7	8,6	1	1	1	1	1	1	1	1	1	0	1	-8,80902	274,0359	310,94271	0
15.01.2021	09:52:02	0	20,344745	3,050494	1,68975	351,0396	0,057	88,73	0	1013,62	6,7	8,7	8,6	1	1	1	1	1	1	1	1	1	0	1	-8,174771	273,988363	311,355146	0
15.01.2021	09:52:03	0	20,582696	4,406268	1,64175	359,0892	0,055	88,723	0	1013,64	6,7	8,7	8,6	1	1	1	1	1	1	1	1	1	0	1	-5,84919	274,098471	314,194679	0
15.01.2021	09:52:04	0	20,344745	4,632231	1,69875	355,3956	0,049	88,724	0	1013,62	6,7	8,7	8,6	1	1	1	1	1	1	1	1	1	0	1	-2,536998	274,019546	317,138409	0
15.01.2021	09:52:05	0	20,46372	3,276456	1,83375	359,4708	0,053	88,735	0	1013,78	6,7	8,7	8,6	1	1	1	1	1	1	1	1	1	0	1	-5,285412	273,982429	314,216824	0
15.01.2021	09:52:06	0	20,22577	3,050494	1,93425	3,024	0,05	88,729	0	1013,68	6,7	8,7	8,6	1	1	1	1	1	1	1	1	1	0	1	-6,483439	273,99133	313,060322	0
15.01.2021	09:52:07	0	20,46372	4,632231	2,001	2,9988	0,056	88,725	0	1013,72	6,7	8,7	8,6	1	1	1	1	1	1	1	1	1	0	1	-8,386187	274,102948	311,678592	0
15.01.2021	09:52:08	0	20,106795	2,937512	2,03475	6,4116	0,056	88,738	0	1013,82	6,7	8,7	8,6	1	1	1	1	1	1	1	1	1	0	1	-6,8358	273,975014	312,631851	0
15.01.2021	09:52:09	0	20,106795	2,93753	2,0235	6,822	0,059	88,727	0	1013,72	6,7	8,7	8,5	1	1	1	1	1	1	1	1	1	0	1	-5,355884	274,092503	314,660112	0
15.01.2021	09:52:10	0	19,98782	3,389437	2,025	7,866	0,058	88,722	0	1013,8	6,7	8,7	8,6	1	1	1	1	1	1	1	1	1	0	1	-5,919662	274,15077	314,368536	0
15.01.2021	09:52:11	0	20,22577	2,824531	2,06625	8,2692	0,05	88,736	0	1013,74	6,7	8,7	8,6	1	1	1	1	1	1	1	1	1	0	1	-5,708245	274,085046	314,272926	0
15.01.2021	09:52:12	0	20,344745	2,937512	2,0505	17,7012	0,059	88,739	0	1013,8	6,7	8,7	8,6	1	1	1	1	1	1	1	1	1	0	1	-9,44327	274,149273	310,837936	0
15.01.2021	09:52:13	0	20,582696	3,954344	1,983	17,2368	0,058	88,737	0	1013,84	6,7	8,7	8,6	1	1	1	1	1	1	1	1	1	0	1	-8,033827	274,099963	312,017012	0
15.01.2021	09:52:14	0	20,22577	2,937512	1,8645	13,9104	0,06	88,738	0	1013,72	6,7	8,7	8,6	1	1	1	1	1	1	1	1	1	0	1	-6,976744	274,12535	313,192679	0
15.01.2021	09:52:15	0	20,46372	4,180306	1,89375	8,9784	0,061	88,725	0	1013,66	6,7	8,7	8,6	1	1	1	1	1	1	1	1	1	0	1	-7,610994	274,114893	312,509578	0
15.01.2021	09:52:16	0	20,344745	3,841362	1,887	356,904	0,061	88,726	0	1013,56	6,7	8,7	8,6	1	1	1	1	1	1	1	1	1	0	1	-5,426357	274,144785	314,833877	0
15.01.2021	09:52:17	0	20,582696	4,067325	1,7475	355,7808	0,056	88,742	0	1013,74	6,7	8,7	8,6	1	1	1	1	1	1	1	1	1	0	1	-6,20155	274,013602	313,446122	0
15.01.2021	09:52:18	0	20,344745	4,745212	1,6635	347,9472	0,055	88,746	0	1013,76	6,7	8,7	8,6	1	1	1	1	1	1	1	1	1	0	1	-4,933051	274,15077	315,355146	0
15.01.2021	09:52:19	0	20,582696	4,293287	1,668	360	0,052	88,737	0	1013,66	6,7	8,7	8,6	1	1	1	1	1	1	1	1	1	0	1	-3,805497	273,988363	315,72442	0
15.01.2021	09:52:20	0	20,582696	3,276476	1,74075	2,2896	0,056	88,726	0	1013,84	6,7	8,7	8,5	1	1	1	1	1	1	1	1	1	0	1	-3,24172	274,155259	317,067458	0
15.01.2021	09:52:21	0	20,22577	3,6154	1,68825	4,068	0,056	88,736	0	1013,62	6,7	8,7	8,6	1	1	1	1	1	1	1	1	1	0	1	-5,919662	274,012117	313,721079	0
15.01.2021	09:52:22	0	19,98782	3,728403	1,73925	0,4824	0,062	88,735	0	1013,7	6,7	8,7	8,5	1	1	1	1	1	1	1	1	1	0	1	-3,24172	273,994298	316,315888	0
15.01.2021	09:52:23	0	20,22577	3,841385	1,725	358,794	0,058	88,75	0	1013,82	6,7	8,7	8,5	1	1	1	1	1	1	1	1	1	0	1	-4,298802	273,977979	315,182681	0
15.01.2021	09:52:24	0	20,22577	4,406268	1,7175	357,2424	0,06	88,74	0	1013,72	6,7	8,7	8,6	1	1	1	1	1	1	1	1	1	0	1	-3,805497	274,102948	316,259283	0
15.01.2021	09:52:25	0	19,98782	2,93753	1,78875	0	0,061	88,734	0	1013,74	6,7	8,7	8,5	1	1	1	1	1	1	1	1	1	0	1	-6,060606	274,077591	313,885755	0
15.01.2021	09:52:26	0	19,98782	4,632231	2,06775	1,1484	0,058	88,744	0	1013,76	6,7	8,7	8,6	1	1	1	1	1	1	1	1	1	0	1	-2,60747	274,14329	317,645775	0
15.01.2021	09:52:27	0	20,22577	4,632231	2,37525	10,5372	0,057	88,747	0	1013,76	6,7	8,7	8,6	1	1	1	1	1	1	1	1	1	0	1	-7,188161	274,088029	312,806938	0
15.01.2021	09:52:28	0	20,22577	3,6154	2,448	353,9412	0,056	88,75	0	1013,66	6,7	8,7	8,6	1	1	1	1	1	1	1	1	1	0	1	-1,550388	273,985395	317,965688	0
15.01.2021	09:52:29	0	20,582696	4,51925	2,45175	354,2652	0,056	88,743	0	1013,7	6,7	8,7	8,6	1	1	1	1	1	1	1	1	1	0	1	-5,990134	274,096979	314,046766	0
15.01.2021	09:52:30	0	20,701671	4,971175	2,37525	352,4976	0,061	88,73	0	1013,76	6,7	8,7	8,6	1	1	1	1	1	1	1	1	1	0	1	-8,033827	274,155259	312,275351	0
15.01.2021	09:52:31	0	20,46372	3,728381	2,26575	1,9908	0,053	88,739	0	1013,52	6,7	8,7	8,6	1	1	1	1	1	1	1	1	1	0	1	-5,144468	274,046314	314,655872	0
15.01.2021	09:52:32	0	20,582696	4,858193	2,25075	7,8732	0,053	88,749	0	1013,72	6,7	8,7	8,6	1	1	1	1	1	1	1	1	1	0	1	-5,919662	273,995783	313,64487	0
15.01.2021	09:52:33	0	20,344745	4,745241	2,166	11,6892	0,056	88,753	0	1013,68	6,7	8,7	8,5	1	1	1	1	1	1	1	1	1	0	1	-6,272023	274,085046	313,709148	0
15.01.2021	09:52:34	0	19,98782	4,067325	1,91775	14,0076	0,057	88,756	0	1013,8	6,7	8,7	8,6	1	1	1	1	1	1	1	1	1	0	1	-5,144468	274,138803	315,087813	0
15.01.2021	09:52:35	0	20,344745	3,954344	1,76775	14,7096	0,057	88,753	0	1013,74	6,7	8,7	8,6	1	1	1	1	1	1	1	1	1	0	1	-7,117689	274,01806	312,550784	0
15.01.2021	09:52:36	0	20,106795	3,954344	1,863	14,3028	0,055	88,745	0	1013,76	6,7	8,7	8,6	1	1	1	1	1	1	1	1	1	0	1	-2,60747	274,108919	317,4852	0
15.01.2021	09:52:37	0	20,106795	4,406295	2,15025	4,4532	0,061	88,74	0	1013,66	6,7	8,7	8,5	1	1	1	1	1	1	1	1	1	0	1	-1,973221	273,985395	317,542855	0
15.01.2021	09:52:38	0	20,46372	4,745212	2,19525	18,072	0,06	88,751	0	1013,86	6,7	8,7	8,6	1	1	1	1	1	1	1	1	1	0	1	-2,60747	274,107427	317,478227	0
15.01.2021	09:52:39	0	20,22577	4,745212	2,07075	12,8448	0,065	88,757	0	1013,74	6,7	8,7	8,6	1	1	1	1	1	1	1	1	1	0	1	-8,80902	273,994298	310,748587	0
15.01.2021	09:52:40	0	20,106795	2,824531	1,95375	9,3528	0,057	88,757	0	1013,64	6,7	8,7	8,6	1	1	1	1	1	1	1	1	1	0	1	-6,342495	274,012117	313,298246	0
15.01.2021	09:52:41	0	19,98782	3,841385	1,914	7,5096	0,062	88,759	0	1013,8	6,7	8,7	8,5	1	1	1	1	1	1	1	1	1	0	1	-5,84919	274,019546	313,826217	0
15.01.2021	09:52:42	0	20,106795	3,389437	1,83375	3,402	0,06	88,761	0	1013,8	6,7	8,7	8,6	1	1	1	1	1	1	1	1	1	0	1	-3,805497	273,992814	315,745187	0
15.01.2021	09:52:43	0	20,344745	4,632231	1,80525	352,8	0,065	88,759	0	1013,68	6,7	8,7	8,6	1	1	1	1	1	1	1	1	1	0	1	-4,087385	274,122361	316,068077	0
15.01.2021	09:52:44	0	20,106795	4,067325	1,81575	349,3548	0,061	88,771	0	1013,82	6,7	8,7	8,6	1	1	1	1	1	1	1	1	1	0	1	-8,45666	274,162743	311,887498	0
15.01.2021	09:52:45	0	20,106795	3,163494	1,8315	4,8312	0,055	88,744	0	1013,82	6,7	8,7	8,5	1	1	1	1	1	1	1	1	1	0	1	-2,536998	274,093995	317,485966	0
15.01.2021	09:52:46	0	19,98782	2,598569	1,818	358,4808	0,053	88,76	0	1013,72	6,7	8,7	8,6	1	1	1	1	1	1	1	1	1	0	1	-7,892882	273,986879	311,630114	0
15.01.2021	09:52:47	0	20,22577	3,841362	1,88775	350,2116	0,056	88,763	0	1013,74	6,7	8,7	8,6	1	1	1	1	1	1	1	1	1	0	1	-4,721635	274,102948	315,343145	0
15.01.2021	09:52:48	0	20,46372	4,632231	2,0385	349,074	0,053	88,75	0	1013,66	6,7	8,7	8,6	1	1	1	1	1	1	1	1	1	0	1	-9,231853	273,998751	310,346528	0
15.01.2021	09:52:49	0	20,22577	3,389437	2,45925	354,2544	0,054	88,753	0	1013,54	6,7	8,7	8,6	1	1	1	1	1	1	1	1	1	0	1	-6,553911	274,016574	313,107627	0
15.01.2021	09:52:50	0	19,868845	2,598584	2,811	8,2584	0,061	88,762	0	1013,68	6,7	8,7	8,5	1	1	1	1	1	1	1	1	1	0	1	-3,312192	273,99133	316,231569	0
15.01.2021	09:52:51	0	20,344745	4,519277	2,59425	2,6424	0,057	88,758	0	1013,7	6,7	8,7	8,5	1	1	1	1	1	1	1	1	1	0	1	-4,933051	274,022518	314,756227	0
15.01.2021	09:52:52	0	19,98782	4,180331	2,37975	4,1472	0,06	88,771	0	1013,78	6,7	8,7	8,5	1	1	1	1	1	1	1	1	1	0	1	-7,610994	274,146281	312,65623	0
15.01.2021	09:52:53	0	20,344745	3,389458	2,26125	343,044	0,063	88,768	0	1013,66	6,7	8,7	8,5	1	1	1	1	1	1	1	1	1	0	1	-7,188161	274,104441	312,883591	0
15.01.2021	09:52:54	0	20,22577	3,050494	2,11425	355,446	0,059	88,758	0	1013,72	6,7	8,7	8,6	1	1	1	1	1	1	1	1	1	0	1	-4,862579	273,988363	314,667338	0
15.01.2021	09:52:55	0	20,106936	5,084186	2,18025	344,268	0,063	88,756	0	1013,68	6,7	8,6	8,5	1	1	1	1	1	1	1	1	1	0	1	-9,020437	274,096979	311,016463	0
15.01.2021	09:52:56	0	20,106795	3,163475	2,373	339,4584	0,059	88,765	0	1013,7	6,7	8,7	8,6	1	1	1	1	1	1	1	1	1	0	1	-4,369274	274,159749	315,960889	0
15.01.2021	09:52:57	0	20,106795	2,93753	2,31075	3,0672	0,057	88,762	0	1013,78	6,7	8,7	8,5	1	1	1	1	1	1	1	1	1	0	1	-6,553911	274,098471	313,489958	0
15.01.2021	09:52:58	0	20,46372	4,632259	2,12325	356,5656	0,059	88,767	0	1013,74	6,7	8,7	8,5	1	1	1	1	1	1	1	1	1	0	1	-5,003524	273,998751	314,574858	0
15.01.2021	09:52:59	0	20,46372	5,31015	2,121	1,5408	0,056	88,744	0	1013,56	6,7	8,7	8,5	1	1	1	1	1	1	1	1	1	0	1	-4,369274	274,114893	315,751297	0
15.01.2021	09:53:00	0	19,868984	4,519277	2,32875	353,1384	0,058	88,771	0	1013,82	6,7	8,6	8,5	1	1	1	1	1	1	1	1	1	0	1	-7,329105	273,983912	312,180051	0
15.01.2021	09:53:01	0	19,868984	4,519277	2,32875	353,1384	0,058	88,771	0	1013,82	6,7	8,6	8,5	1	1	1	1	1	1	1	1	1	0	1	-7,329105	273,983912	312,180051	0
15.01.2021	09:53:02	0	19,868984	2,711566	2,4075	0,4788	0,061	88,759	0	1013,74	6,7	8,6	8,5	1	1	1	1	1	1	1	1	1	0	1	-5,355884	274,053757	314,479197	0
15.01.2021	09:53:03	0	20,22577	4,745212	2,39475	357,156	0,063	88,767	0	1013,66	6,7	8,7	8,6	1	1	1	1	1	1	1	1	1	0	1	-3,312192	274,158252	317,010976	0
15.01.2021	09:53:04	0	20,22577	4,858223	2,37525	359,46	0,064	88,765	0	1013,66	6,7	8,7	8,5	1	1	1	1	1	1	1	1	1	0	1	-3,946441	274,06567	315,944259	0
15.01.2021	09:53:05	0	19,98782	3,502419	2,33925	358,7436	0,06	88,765	0	1013,84	6,7	8,7	8,6	1	1	1	1	1	1	1	1	1	0	1	-2,114165	274,135813	318,104143	0
15.01.2021	09:53:06	0	20,106795	3,615421	2,199	9,3672	0,058	88,754	0	1013,72	6,7	8,7	8,5	1	1	1	1	1	1	1	1	1	0	1	-6,272023	273,985395	313,244053	0
15.01.2021	09:53:07	0	19,868845	4,51925	2,02425	1,152	0,057	88,77	0	1013,7	6,7	8,7	8,6	1	1	1	1	1	1	1	1	1	0	1	-4,862579	274,167235	315,502574	0
15.01.2021	09:53:08	0	20,106795	4,067349	1,89675	0,4644	0,062	88,777	0	1013,78	6,7	8,7	8,5	1	1	1	1	1	1	1	1	1	0	1	-5,003524	274,11788	315,131002	0
15.01.2021	09:53:09	0	20,344745	5,084186	1,8975	350,28	0,055	88,771	0	1013,7	6,7	8,7	8,5	1	1	1	1	1	1	1	1	1	0	1	-6,060606	273,969084	313,379388	0
15.01.2021	09:53:10	0	19,98782	3,50244	2,0265	351,126	0,061	88,77	0	1013,74	6,7	8,7	8,5	1	1	1	1	1	1	1	1	1	0	1	-3,171247	274,129833	317,019123	0
15.01.2021	09:53:11	0	20,22577	4,293313	2,05125	360	0,067	88,775	0	1013,78	6,7	8,7	8,5	1	1	1	1	1	1	1	1	1	0	1	-6,8358	274,003205	312,763362	0
15.01.2021	09:53:12	0	19,868984	3,163494	2,0325	353,1996	0,063	88,763	0	1013,74	6,7	8,6	8,5	1	1	1	1	1	1	1	1	1	0	1	-4,862579	274,021032	314,819763	0
15.01.2021	09:53:13	0	20,106795	3,50244	2,03775	353,5776	0,061	88,763	0	1013,62	6,7	8,7	8,5	1	1	1	1	1	1	1	1	1	0	1	-5,567301	274,168733	314,804852	0
15.01.2021	09:53:14	0	20,106795	3,728381	2,1075	357,5772	0,06	88,756	0	1013,6	6,7	8,7	8,6	1	1	1	1	1	1	1	1	1	0	1	-8,245243	274,114893	311,875328	0
15.01.2021	09:53:15	0	20,46372	5,197137	2,142	358,6752	0,058	88,756	0	1013,54	6,7	8,7	8,6	1	1	1	1	1	1	1	1	1	0	1	-5,144468	274,11788	314,990058	0
15.01.2021	09:53:16	0	20,22577	3,050512	2,1765	357,6132	0,065	88,762	0	1013,82	6,7	8,7	8,5	1	1	1	1	1	1	1	1	1	0	1	-7,82241	274,155259	312,486768	0
15.01.2021	09:53:17	0	20,344745	3,6154	2,217	5,67	0,063	88,764	0	1013,8	6,7	8,7	8,6	1	1	1	1	1	1	1	1	1	0	1	-5,84919	274,01806	313,819283	0
15.01.2021	09:53:18	0	19,868845	2,93753	2,11275	355,356	0,063	88,762	0	1013,6	6,7	8,7	8,5	1	1	1	1	1	1	1	1	1	0	1	-7,892882	273,988363	311,637035	0
15.01.2021	09:53:19	0	20,106795	2,711566	2,0685	8,9748	0,053	88,766	0	1013,6	6,7	8,7	8,5	1	1	1	1	1	1	1	1	1	0	1	-8,104299	274,031438	311,626608	0
15.01.2021	09:53:20	0	19,74987	4,858193	2,052	348,6348	0,065	88,777	0	1013,82	6,7	8,7	8,6	1	1	1	1	1	1	1	1	1	0	1	-6,694856	274,000236	312,890452	0
15.01.2021	09:53:21	0	20,344745	4,745212	2,03175	4,8276	0,058	88,764	0	1013,8	6,7	8,7	8,6	1	1	1	1	1	1	1	1	1	0	1	-7,82241	274,116386	312,305138	0
15.01.2021	09:53:22	0	20,106795	4,745241	1,94325	347,5908	0,062	88,776	0	1013,74	6,7	8,7	8,5	1	1	1	1	1	1	1	1	1	0	1	-6,272023	274,025491	313,431129	0
15.01.2021	09:53:23	0	19,98796	4,519277	1,9365	351,7704	0,064	88,777	0	1013,7	6,7	8,6	8,5	1	1	1	1	1	1	1	1	1	0	1	-7,82241	274,162743	312,521747	0
15.01.2021	09:53:24	0	19,74987	3,050512	1,923	348,9372	0,062	88,757	0	1013,64	6,7	8,7	8,5	1	1	1	1	1	1	1	1	1	0	1	-4,792107	274,031438	314,9388	0
15.01.2021	09:53:25	0	20,344745	3,728403	1,89	352,386	0,055	88,758	0	1013,62	6,7	8,7	8,5	1	1	1	1	1	1	1	1	1	0	1	-4,933051	274,029951	314,790916	0
15.01.2021	09:53:26	0	20,344745	3,163494	1,92075	357,192	0,058	88,752	0	1013,6	6,7	8,7	8,5	1	1	1	1	1	1	1	1	1	0	1	-8,104299	274,147777	312,169916	0
15.01.2021	09:53:27	0	20,22577	4,745241	1,9065	354,9708	0,065	88,777	0	1013,54	6,7	8,7	8,5	1	1	1	1	1	1	1	1	1	0	1	-9,302326	274,104441	310,769426	0
15.01.2021	09:53:28	0	19,98782	3,615421	2,001	3,7512	0,063	88,791	0	1013,72	6,7	8,7	8,5	1	1	1	1	1	1	1	1	1	0	1	-8,033827	274,153762	312,268357	0
15.01.2021	09:53:29	0	19,98782	3,050494	2,20875	2,2896	0,057	88,783	0	1013,74	6,7	8,7	8,6	1	1	1	1	1	1	1	1	1	0	1	-1,973221	274,102948	318,091559	0
15.01.2021	09:53:30	0	19,98782	4,293287	2,241	0,252	0,06	88,78	0	1013,72	6,7	8,7	8,6	1	1	1	1	1	1	1	1	1	0	1	-2,959831	274,049291	316,854404	0
15.01.2021	09:53:31	0	19,98782	2,485602	2,35125	7,1352	0,063	88,765	0	1013,78	6,7	8,7	8,5	1	1	1	1	1	1	1	1	1	0	1	-4,721635	274,149273	315,559571	0
15.01.2021	09:53:32	0	20,344745	5,084186	2,44275	14,3028	0,056	88,784	0	1013,8	6,7	8,7	8,5	1	1	1	1	1	1	1	1	1	0	1	-3,312192	274,107427	316,773505	0
15.01.2021	09:53:33	0	19,98782	2,937512	2,34975	16,0884	0,053	88,789	0	1013,82	6,7	8,7	8,6	1	1	1	1	1	1	1	1	1	0	1	-7,258633	273,998751	312,319749	0
15.01.2021	09:53:34	0	20,344745	4,067325	2,3775	21,3876	0,067	88,79	0	1013,78	6,7	8,7	8,6	1	1	1	1	1	1	1	1	1	0	1	-6,906272	274,077591	313,040089	0
15.01.2021	09:53:35	0	20,106795	2,824548	2,4345	16,1856	0,066	88,794	0	1013,78	6,7	8,7	8,5	1	1	1	1	1	1	1	1	1	0	1	-6,765328	274,04185	313,014176	0
15.01.2021	09:53:36	0	19,98782	3,276476	2,32425	21,0132	0,065	88,794	0	1013,78	6,7	8,7	8,5	1	1	1	1	1	1	1	1	1	0	1	-10,077519	273,992814	309,473164	0
15.01.2021	09:53:37	0	20,22577	3,615421	2,2995	4,086	0,063	88,792	0	1013,64	6,7	8,7	8,5	1	1	1	1	1	1	1	1	1	0	1	-8,315715	274,129833	311,874655	0
15.01.2021	09:53:38	0	19,868845	3,163494	2,24925	13,1688	0,061	88,779	0	1013,72	6,7	8,7	8,5	1	1	1	1	1	1	1	1	1	0	1	-10,288936	274,055245	309,553095	0
15.01.2021	09:53:39	0	19,98782	4,51925	2,0745	6,0516	0,065	88,784	0	1013,78	6,7	8,7	8,6	1	1	1	1	1	1	1	1	1	0	1	-5,637773	274,149273	314,643433	0
15.01.2021	09:53:40	0	19,98782	3,389437	2,0535	6,4296	0,068	88,788	0	1013,86	6,7	8,7	8,6	1	1	1	1	1	1	1	1	1	0	1	-7,610994	274,088029	312,384106	0
15.01.2021	09:53:41	0	19,98782	3,389437	2,1525	0,8676	0,06	88,777	0	1013,88	6,7	8,7	8,6	1	1	1	1	1	1	1	1	1	0	1	-3,171247	274,146281	317,095977	0
15.01.2021	09:53:42	0	20,344745	3,954367	2,142	18,0756	0,066	88,781	0	1013,76	6,7	8,7	8,5	1	1	1	1	1	1	1	1	1	0	1	-6,624383	274,158252	313,698784	0
15.01.2021	09:53:43	0	20,46372	4,406295	2,08725	342,3996	0,066	88,771	0	1013,68	6,7	8,7	8,5	1	1	1	1	1	1	1	1	1	0	1	-5,285412	274,049291	314,528822	0
15.01.2021	09:53:44	0	20,22577	4,971205	2,1645	353,9988	0,067	88,781	0	1013,76	6,7	8,7	8,5	1	1	1	1	1	1	1	1	1	0	1	-4,369274	273,989846	315,167564	0
15.01.2021	09:53:45	0	20,106654	2,824531	2,244	12,4524	0,067	88,788	0	1013,84	6,7	8,8	8,6	1	1	1	1	1	1	1	1	1	0	1	-0,422833	274,016574	319,238705	0
15.01.2021	09:53:46	0	20,106936	2,485602	2,169	359,5212	0,068	88,766	0	1013,64	6,7	8,6	8,5	1	1	1	1	1	1	1	1	1	0	1	-8,668076	274,141794	311,57818	0
15.01.2021	09:53:47	0	20,344745	3,389458	2,2065	354,3372	0,065	88,77	0	1013,8	6,7	8,7	8,5	1	1	1	1	1	1	1	1	1	0	1	-6,483439	274,164241	313,867716	0
15.01.2021	09:53:48	0	20,22577	4,971205	2,226	339,8616	0,064	88,761	0	1013,7	6,7	8,7	8,5	1	1	1	1	1	1	1	1	1	0	1	-6,272023	274,053757	313,563059	0
15.01.2021	09:53:49	0	20,22577	2,824548	2,145	352,7748	0,064	88,762	0	1013,66	6,7	8,7	8,5	1	1	1	1	1	1	1	1	1	0	1	-5,84919	274,158252	314,473978	0
15.01.2021	09:53:50	0	20,22577	4,745241	2,175	349,4592	0,062	88,761	0	1013,78	6,7	8,7	8,5	1	1	1	1	1	1	1	1	1	0	1	-2,396054	274,116386	317,731495	0
15.01.2021	09:53:51	0	20,22577	4,406268	2,23125	355,5108	0,064	88,763	0	1013,74	6,7	8,7	8,6	1	1	1	1	1	1	1	1	1	0	1	-11,557435	273,998751	308,020947	0
15.01.2021	09:53:52	0	20,46372	4,519277	2,253	0	0,067	88,77	0	1013,8	6,7	8,7	8,5	1	1	1	1	1	1	1	1	1	0	1	-4,22833	274,01806	315,440143	0
15.01.2021	09:53:53	0	20,46372	3,163494	2,42925	342,0432	0,063	88,757	0	1013,72	6,7	8,7	8,5	1	1	1	1	1	1	1	1	1	0	1	-4,22833	274,114893	315,892242	0
15.01.2021	09:53:54	0	20,106795	3,50244	2,9265	355,41	0,06	88,779	0	1013,78	6,7	8,7	8,5	1	1	1	1	1	1	1	1	1	0	1	-6,412967	273,99133	313,130794	0
15.01.2021	09:53:55	0	19,98796	3,728403	3,16425	356,22	0,067	88,773	0	1013,78	6,7	8,6	8,5	1	1	1	1	1	1	1	1	1	0	1	-0,634249	274,104441	319,437502	0
15.01.2021	09:53:56	0	20,106795	3,163475	3,34275	356,1768	0,062	88,762	0	1013,72	6,7	8,7	8,6	1	1	1	1	1	1	1	1	1	0	1	-4,721635	274,158252	315,601533	0
15.01.2021	09:53:57	0	20,344745	3,954367	3,555	353,664	0,065	88,753	0	1013,68	6,7	8,7	8,5	1	1	1	1	1	1	1	1	1	0	1	-5,919662	274,168733	314,452491	0
15.01.2021	09:53:58	0	19,98796	3,954367	3,63	356,5836	0,065	88,766	0	1013,7	6,7	8,6	8,5	1	1	1	1	1	1	1	1	1	0	1	-7,329105	274,131328	312,868248	0
15.01.2021	09:53:59	0	20,463577	3,841385	3,4665	346,1184	0,063	88,755	0	1013,62	6,7	8,8	8,5	1	1	1	1	1	1	1	1	1	0	1	-8,033827	274,122361	312,121636	0
15.01.2021	09:54:00	0	20,106936	4,067349	3,1005	358,0488	0,059	88,768	0	1013,82	6,7	8,6	8,5	1	1	1	1	1	1	1	1	1	0	1	-4,651163	274,152266	315,644028	0
15.01.2021	09:54:01	0	20,106936	4,067349	3,1005	358,0488	0,059	88,768	0	1013,82	6,7	8,6	8,5	1	1	1	1	1	1	1	1	1	0	1	-3,030303	274,126844	317,146102	0
15.01.2021	09:54:02	0	20,106654	4,406295	3,15975	358,7652	0,059	88,765	0	1013,72	6,7	8,8	8,5	1	1	1	1	1	1	1	1	1	0	1	-6,976744	274,177721	313,437422	0
15.01.2021	09:54:03	0	20,701816	4,971205	3,2055	356,5476	0,063	88,753	0	1013,52	6,7	8,6	8,5	1	1	1	1	1	1	1	1	1	0	1	-1,761804	274,061202	318,108034	0
15.01.2021	09:54:04	0	20,225912	3,728403	3,2565	4,806	0,068	88,773	0	1013,6	6,7	8,6	8,5	1	1	1	1	1	1	1	1	1	0	1	-9,090909	273,997267	310,480547	0
15.01.2021	09:54:05	0	20,463577	3,389458	3,31425	358,7256	0,06	88,763	0	1013,74	6,7	8,8	8,5	1	1	1	1	1	1	1	1	1	0	1	-4,792107	274,093995	315,230856	0
15.01.2021	09:54:06	0	20,582696	2,711566	3,15675	355,3416	0,062	88,754	0	1013,78	6,7	8,7	8,5	1	1	1	1	1	1	1	1	1	0	1	-6,412967	274,122361	313,742496	0
15.01.2021	09:54:07	0	20,225912	3,276476	3,06675	352,4652	0,068	88,77	0	1013,78	6,7	8,6	8,5	1	1	1	1	1	1	1	1	1	0	1	-8,45666	274,00469	311,149431	0
15.01.2021	09:54:08	0	20,582696	2,711566	3,003	346,86	0,065	88,762	0	1013,74	6,7	8,7	8,5	1	1	1	1	1	1	1	1	1	0	1	-3,875969	274,050779	315,945214	0
15.01.2021	09:54:09	0	20,582696	2,711566	2,92125	346,8132	0,068	88,777	0	1013,68	6,7	8,7	8,5	1	1	1	1	1	1	1	1	1	0	1	-10,077519	274,056734	309,771463	0
15.01.2021	09:54:10	0	20,58284	2,485602	2,772	345,6792	0,07	88,779	0	1013,7	6,7	8,6	8,5	1	1	1	1	1	1	1	1	1	0	1	-1,973221	274,0359	317,778509	0
15.01.2021	09:54:11	0	20,46372	4,519277	2,5755	355,032	0,063	88,785	0	1013,72	6,7	8,7	8,5	1	1	1	1	1	1	1	1	1	0	1	-3,875969	274,058223	315,979964	0
15.01.2021	09:54:12	0	20,225912	4,293313	2,40525	349,8948	0,062	88,766	0	1013,66	6,7	8,6	8,5	1	1	1	1	1	1	1	1	1	0	1	-5,144468	274,162743	315,19969	0
15.01.2021	09:54:13	0	20,701816	4,180331	2,21175	4,0824	0,066	88,779	0	1013,64	6,7	8,6	8,5	1	1	1	1	1	1	1	1	1	0	1	-3,382664	274,024005	316,313551	0
15.01.2021	09:54:14	0	20,106795	3,728403	2,23875	359,9208	0,064	88,78	0	1013,72	6,7	8,7	8,5	1	1	1	1	1	1	1	1	1	0	1	-7,399577	274,019546	312,27583	0
15.01.2021	09:54:15	0	20,820792	3,841385	2,295	4,8132	0,066	88,789	0	1013,7	6,7	8,6	8,5	1	1	1	1	1	1	1	1	1	0	1	-4,580691	274,01806	315,087782	0
15.01.2021	09:54:16	0	20,46372	3,615421	2,27925	359,874	0,062	88,772	0	1013,64	6,7	8,7	8,5	1	1	1	1	1	1	1	1	1	0	1	-5,84919	274,07014	314,062379	0
15.01.2021	09:54:17	0	20,463864	2,824548	2,27175	342,3204	0,064	88,76	0	1013,72	6,7	8,6	8,5	1	1	1	1	1	1	1	1	1	0	1	-2,396054	274,122361	317,759409	0
15.01.2021	09:54:18	0	20,582696	4,858223	2,4435	359,8236	0,07	88,782	0	1013,78	6,7	8,7	8,5	1	1	1	1	1	1	1	1	1	0	1	-5,919662	274,15077	314,368536	0
15.01.2021	09:54:19	0	20,820792	4,971205	2,52825	356,2128	0,065	88,773	0	1013,68	6,7	8,6	8,5	1	1	1	1	1	1	1	1	1	0	1	-3,805497	274,138803	316,426784	0
15.01.2021	09:54:20	0	20,939768	4,971205	2,57325	358,6248	0,068	88,783	0	1013,7	6,7	8,6	8,5	1	1	1	1	1	1	1	1	1	0	1	-3,946441	274,019546	315,728966	0
15.01.2021	09:54:21	0	20,820646	5,423132	2,52	358,74	0,07	88,789	0	1013,72	6,7	8,7	8,5	1	1	1	1	1	1	1	1	1	0	1	-6,342495	274,167235	314,022658	0
15.01.2021	09:54:22	0	20,582551	4,067349	2,49	353,988	0,065	88,78	0	1013,66	6,7	8,8	8,5	1	1	1	1	1	1	1	1	1	0	1	-1,761804	274,108919	318,330866	0
15.01.2021	09:54:23	0	20,582696	3,841385	2,4855	360	0,062	88,779	0	1013,76	6,7	8,7	8,5	1	1	1	1	1	1	1	1	1	0	1	-5,919662	274,222724	314,704926	0
15.01.2021	09:54:24	0	20,701816	4,519277	2,42925	358,7544	0,062	88,786	0	1013,76	6,7	8,6	8,5	1	1	1	1	1	1	1	1	1	0	1	-5,778717	274,116386	314,348831	0
15.01.2021	09:54:25	0	20,58284	5,31015	2,526	0,9828	0,067	88,783	0	1013,74	6,7	8,6	8,5	1	1	1	1	1	1	1	1	1	0	1	-4,862579	274,15077	315,425619	0
15.01.2021	09:54:26	0	20,820792	5,084186	2,50725	10,7892	0,066	88,791	0	1013,72	6,7	8,6	8,5	1	1	1	1	1	1	1	1	1	0	1	-7,329105	274,144785	312,931129	0
15.01.2021	09:54:27	0	20,58284	2,824548	2,52075	8,262	0,069	88,769	0	1013,8	6,7	8,6	8,5	1	1	1	1	1	1	1	1	1	0	1	-6,412967	274,034413	313,331821	0
15.01.2021	09:54:28	0	20,582696	2,711566	2,48325	17,694	0,072	88,779	0	1013,58	6,7	8,7	8,5	1	1	1	1	1	1	1	1	1	0	1	-8,033827	274,14329	312,219418	0
15.01.2021	09:54:29	0	20,58284	3,050512	2,35125	16,0992	0,071	88,785	0	1013,62	6,7	8,6	8,5	1	1	1	1	1	1	1	1	1	0	1	-3,875969	274,093995	316,146995	0
15.01.2021	09:54:30	0	20,344888	3,163494	2,2785	6,8076	0,074	88,783	0	1013,8	6,7	8,6	8,5	1	1	1	1	1	1	1	1	1	0	1	-4,933051	274,010631	314,700758	0
15.01.2021	09:54:31	0	20,344603	3,954367	2,16225	0,4824	0,07	88,79	0	1013,6	6,7	8,8	8,5	1	1	1	1	1	1	1	1	1	0	1	-4,369274	274,059713	315,493611	0
15.01.2021	09:54:32	0	20,939768	4,293313	2,1705	347,67	0,066	88,759	0	1013,6	6,7	8,6	8,5	1	1	1	1	1	1	1	1	1	0	1	-8,245243	273,994298	311,312364	0
15.01.2021	09:54:33	0	21,058744	4,971205	2,28825	3,384	0,065	88,78	0	1013,72	6,7	8,6	8,5	1	1	1	1	1	1	1	1	1	0	1	-5,567301	274,092503	314,448696	0
15.01.2021	09:54:34	0	20,582551	3,276476	2,45925	357,6492	0,065	88,781	0	1013,68	6,7	8,8	8,5	1	1	1	1	1	1	1	1	1	0	1	-4,369274	273,994298	315,188333	0
15.01.2021	09:54:35	0	21,058596	3,050512	2,6025	352,8612	0,061	88,782	0	1013,64	6,7	8,7	8,5	1	1	1	1	1	1	1	1	1	0	1	-6,553911	274,047803	313,253376	0
15.01.2021	09:54:36	0	20,701671	3,50244	2,79975	7,1136	0,068	88,789	0	1013,76	6,7	8,7	8,5	1	1	1	1	1	1	1	1	1	0	1	-1,268499	274,167235	319,096654	0
15.01.2021	09:54:37	0	20,58284	2,485602	2,73225	23,22	0,062	88,786	0	1013,78	6,7	8,6	8,5	1	1	1	1	1	1	1	1	1	0	1	-4,862579	274,056734	314,986403	0
15.01.2021	09:54:38	0	20,463577	2,711566	2,4885	32,8716	0,067	88,785	0	1013,76	6,7	8,8	8,5	1	1	1	1	1	1	1	1	1	0	1	-4,792107	273,997267	314,779349	0
15.01.2021	09:54:39	0	20,701816	4,067349	2,2725	16,848	0,071	88,785	0	1013,8	6,7	8,6	8,5	1	1	1	1	1	1	1	1	1	0	1	-12,332629	274,091012	307,676401	0
15.01.2021	09:54:40	0	21,058744	4,745241	2,172	343,188	0,069	88,785	0	1013,76	6,7	8,6	8,5	1	1	1	1	1	1	1	1	1	0	1	-11,205074	273,998751	308,373308	0
15.01.2021	09:54:41	0	20,939768	3,615421	2,39175	359,4384	0,059	88,783	0	1013,66	6,7	8,6	8,5	1	1	1	1	1	1	1	1	1	0	1	-3,171247	274,120867	316,977236	0
15.01.2021	09:54:42	0	20,820792	3,841385	2,8575	10,4544	0,071	88,771	0	1013,7	6,7	8,6	8,5	1	1	1	1	1	1	1	1	1	0	1	-5,426357	274,158252	314,896811	0
15.01.2021	09:54:43	0	20,820646	4,519277	3,07725	15,39	0,065	88,771	0	1013,62	6,8	8,7	8,5	1	1	1	1	1	1	1	1	1	0	1	-6,131078	274,025491	313,572073	0
15.01.2021	09:54:44	0	20,701816	2,485602	3,054	27,2484	0,068	88,801	0	1013,74	6,7	8,6	8,5	1	1	1	1	1	1	1	1	1	0	1	-9,513742	274,015088	310,140863	0
15.01.2021	09:54:45	0	21,177571	4,406295	2,86875	357,8472	0,07	88,78	0	1013,72	6,7	8,7	8,5	1	1	1	1	1	1	1	1	1	0	1	-2,959831	274,140298	317,279437	0
15.01.2021	09:54:46	0	20,820792	2,711566	2,66175	19,5228	0,073	88,789	0	1013,9	6,7	8,6	8,5	1	1	1	1	1	1	1	1	1	0	1	-8,174771	274,126844	312,001634	0
15.01.2021	09:54:47	0	20,701816	3,163494	2,676	10,8108	0,074	88,781	0	1013,82	6,7	8,6	8,5	1	1	1	1	1	1	1	1	1	0	1	-5,708245	274,021032	313,974097	0
15.01.2021	09:54:48	0	21,296546	4,406295	2,86875	352,512	0,068	88,791	0	1013,62	6,7	8,7	8,5	1	1	1	1	1	1	1	1	1	0	1	-4,933051	274,171729	315,453103	0
15.01.2021	09:54:49	0	20,820792	2,485602	2,8965	16,4808	0,068	88,784	0	1013,62	6,7	8,6	8,5	1	1	1	1	1	1	1	1	1	0	1	-6,624383	274,147777	313,649831	0
15.01.2021	09:54:50	0	20,939768	4,293313	2,78625	15,7968	0,075	88,779	0	1013,92	6,7	8,6	8,5	1	1	1	1	1	1	1	1	1	0	1	-5,496829	274,0359	314,254901	0
15.01.2021	09:54:51	0	20,939768	3,728403	2,87925	15,0156	0,072	88,784	0	1013,74	6,7	8,6	8,5	1	1	1	1	1	1	1	1	1	0	1	-8,738548	273,997267	310,832908	0
15.01.2021	09:54:52	0	20,701671	3,276476	2,76	1,9044	0,077	88,787	0	1013,78	6,7	8,7	8,5	1	1	1	1	1	1	1	1	1	0	1	-4,087385	274,079082	315,865937	0
15.01.2021	09:54:53	0	20,701816	4,406295	2,7075	347,2164	0,07	88,795	0	1013,68	6,7	8,6	8,5	1	1	1	1	1	1	1	1	1	0	1	-9,231853	274,146281	311,035371	0
15.01.2021	09:54:54	0	21,058596	3,841385	2,5785	355,7664	0,07	88,786	0	1013,68	6,7	8,7	8,5	1	1	1	1	1	1	1	1	1	0	1	-2,536998	274,009146	317,089881	0
15.01.2021	09:54:55	0	21,296695	4,632259	2,37525	33,6384	0,072	88,786	0	1013,72	6,7	8,6	8,5	1	1	1	1	1	1	1	1	1	0	1	-8,245243	274,161246	312,091917	0
15.01.2021	09:54:56	0	21,296695	4,858223	2,1495	350,316	0,07	88,78	0	1013,74	6,7	8,6	8,5	1	1	1	1	1	1	1	1	1	0	1	-9,231853	274,059713	310,631032	0
15.01.2021	09:54:57	0	21,296695	2,824548	2,0355	356,2812	0,064	88,763	0	1013,68	6,7	8,6	8,5	1	1	1	1	1	1	1	1	1	0	1	-6,272023	274,000236	313,313285	0
15.01.2021	09:54:58	0	21,296546	3,841385	2,02725	355,842	0,072	88,789	0	1013,74	6,7	8,7	8,5	1	1	1	1	1	1	1	1	1	0	1	-7,610994	274,116386	312,516555	0
15.01.2021	09:54:59	0	21,534647	4,745241	2,001	358,7364	0,074	88,761	0	1013,76	6,7	8,6	8,5	1	1	1	1	1	1	1	1	1	0	1	-4,22833	273,997267	315,343127	0
15.01.2021	09:55:00	0	20,939768	3,276476	2,1165	357,2964	0,071	88,784	0	1013,74	6,7	8,6	8,5	1	1	1	1	1	1	1	1	1	0	1	-8,949965	274,101456	311,107844	0
15.01.2021	09:55:01	0	20,939768	3,276476	2,1165	357,2964	0,071	88,784	0	1013,74	6,7	8,6	8,5	1	1	1	1	1	1	1	1	1	0	1	-5,778717	274,021032	313,903625	0
15.01.2021	09:55:02	0	20,939621	3,50244	2,18475	13,1472	0,066	88,76	0	1013,76	6,7	8,7	8,5	1	1	1	1	1	1	1	1	1	0	1	-10,852713	274,14329	309,400531	0
15.01.2021	09:55:03	0	20,820646	2,824548	2,2575	14,0112	0,074	88,785	0	1013,84	6,8	8,7	8,5	1	1	1	1	1	1	1	1	1	0	1	-7,681466	274,129833	312,508904	0
15.01.2021	09:55:04	0	21,177571	3,728403	2,4705	23,1984	0,074	88,77	0	1013,64	6,7	8,7	8,5	1	1	1	1	1	1	1	1	1	0	1	-6,342495	274,029951	313,381472	0
15.01.2021	09:55:05	0	20,939474	2,598584	2,502	12,4632	0,076	88,775	0	1013,8	6,7	8,8	8,5	1	1	1	1	1	1	1	1	1	0	1	-11,205074	274,049291	308,609161	0
15.01.2021	09:55:06	0	21,415521	4,745241	2,51175	358,3548	0,071	88,779	0	1013,8	6,7	8,7	8,5	1	1	1	1	1	1	1	1	1	0	1	-7,610994	274,173227	312,782163	0
15.01.2021	09:55:07	0	21,177571	3,163494	2,48925	354,996	0,073	88,786	0	1013,68	6,7	8,7	8,5	1	1	1	1	1	1	1	1	1	0	1	-8,527132	274,013602	311,120541	0
15.01.2021	09:55:08	0	21,177571	3,276476	2,448	20,2716	0,066	88,778	0	1013,72	6,7	8,7	8,5	1	1	1	1	1	1	1	1	1	0	1	-4,721635	274,040363	315,050924	0
15.01.2021	09:55:09	0	21,058596	2,93753	2,451	6,8076	0,073	88,787	0	1013,74	6,7	8,7	8,5	1	1	1	1	1	1	1	1	1	0	1	-2,60747	274,147777	317,666745	0
15.01.2021	09:55:10	0	21,296546	4,971205	2,46975	355,3956	0,074	88,776	0	1013,84	6,7	8,7	8,5	1	1	1	1	1	1	1	1	1	0	1	-4,22833	274,168733	316,143823	0
15.01.2021	09:55:11	0	20,820792	4,406295	2,54925	17,2404	0,075	88,789	0	1013,78	6,7	8,6	8,5	1	1	1	1	1	1	1	1	1	0	1	-5,919662	274,028464	313,797366	0
15.01.2021	09:55:12	0	21,177423	4,745241	2,73075	7,8696	0,076	88,78	0	1013,76	6,7	8,8	8,5	1	1	1	1	1	1	1	1	1	0	1	-6,20155	274,185214	314,247645	0
15.01.2021	09:55:13	0	21,296397	4,632259	2,7555	11,6964	0,076	88,781	0	1013,76	6,7	8,8	8,5	1	1	1	1	1	1	1	1	1	0	1	-8,245243	274,052268	311,582888	0
15.01.2021	09:55:14	0	21,177571	2,824531	2,75625	4,086	0,07	88,775	0	1013,86	6,7	8,7	8,6	1	1	1	1	1	1	1	1	1	0	1	-8,45666	274,168733	311,915493	0
15.01.2021	09:55:15	0	21,534647	4,067349	2,7975	356,7204	0,075	88,784	0	1013,78	6,7	8,6	8,5	1	1	1	1	1	1	1	1	1	0	1	-5,567301	274,034413	314,177487	0
15.01.2021	09:55:16	0	21,058596	4,180331	2,79525	1,1628	0,068	88,785	0	1013,76	6,7	8,7	8,5	1	1	1	1	1	1	1	1	1	0	1	-6,976744	274,0359	312,774986	0
15.01.2021	09:55:17	0	21,17772	3,615421	2,73975	358,7436	0,071	88,774	0	1013,74	6,7	8,6	8,5	1	1	1	1	1	1	1	1	1	0	1	-4,439746	274,132823	315,764591	0
15.01.2021	09:55:18	0	21,058744	4,745212	2,58075	8,9676	0,071	88,783	0	1013,72	6,7	8,6	8,6	1	1	1	1	1	1	1	1	1	0	1	-7,258633	274,152266	313,036558	0
15.01.2021	09:55:19	0	20,939621	3,050494	2,493	14,2956	0,079	88,788	0	1013,84	6,7	8,7	8,6	1	1	1	1	1	1	1	1	1	0	1	-5,708245	273,998751	313,870137	0
15.01.2021	09:55:20	0	21,534497	4,293313	2,3325	26,8776	0,071	88,778	0	1013,76	6,7	8,7	8,5	1	1	1	1	1	1	1	1	1	0	1	-10,641297	274,043338	309,145152	0
15.01.2021	09:55:21	0	20,939621	2,598584	2,1465	12,0852	0,076	88,781	0	1013,8	6,7	8,7	8,5	1	1	1	1	1	1	1	1	1	0	1	-5,990134	274,003205	313,609028	0
15.01.2021	09:55:22	0	21,653472	4,858223	2,16375	12,0888	0,074	88,759	0	1013,78	6,7	8,7	8,5	1	1	1	1	1	1	1	1	1	0	1	-5,919662	274,034413	313,825127	0
15.01.2021	09:55:23	0	20,820646	2,93753	2,27325	12,4668	0,076	88,777	0	1013,8	6,7	8,7	8,5	1	1	1	1	1	1	1	1	1	0	1	-3,453136	274,14329	316,800109	0
15.01.2021	09:55:24	0	20,939621	4,293313	2,40075	358,074	0,073	88,768	0	1013,82	6,7	8,7	8,5	1	1	1	1	1	1	1	1	1	0	1	-7,751938	274,177721	312,662228	0
15.01.2021	09:55:25	0	21,534497	5,084186	2,67975	10,4472	0,08	88,782	0	1013,78	6,7	8,7	8,5	1	1	1	1	1	1	1	1	1	0	1	-6,765328	274,11788	313,369198	0
15.01.2021	09:55:26	0	21,058744	4,293287	2,75775	18,828	0,07	88,771	0	1013,74	6,7	8,6	8,6	1	1	1	1	1	1	1	1	1	0	1	-4,298802	274,000236	315,286506	0
15.01.2021	09:55:27	0	21,296695	2,598584	2,86125	359,9352	0,076	88,787	0	1013,84	6,7	8,6	8,5	1	1	1	1	1	1	1	1	1	0	1	-4,580691	274,192711	315,90355	0
15.01.2021	09:55:28	0	21,415521	4,293313	2,895	360	0,078	88,79	0	1013,78	6,8	8,7	8,5	1	1	1	1	1	1	1	1	1	0	1	-9,44327	274,113399	310,670325	0
15.01.2021	09:55:29	0	21,653472	4,745241	2,892	357,7104	0,081	88,78	0	1013,7	6,7	8,7	8,5	1	1	1	1	1	1	1	1	1	0	1	-3,312192	274,013602	316,335481	0
15.01.2021	09:55:30	0	21,17772	2,711566	2,88825	4,0716	0,077	88,787	0	1013,9	6,7	8,6	8,5	1	1	1	1	1	1	1	1	1	0	1	-3,312192	274,049291	316,502043	0
15.01.2021	09:55:31	0	21,415521	5,197168	2,92125	5,6628	0,076	88,779	0	1013,66	6,8	8,7	8,5	1	1	1	1	1	1	1	1	1	0	1	-6,412967	274,085046	313,568204	0
15.01.2021	09:55:32	0	21,296695	3,954367	2,71725	359,838	0,067	88,783	0	1013,7	6,7	8,6	8,5	1	1	1	1	1	1	1	1	1	0	1	-8,738548	274,237749	311,956313	0
15.01.2021	09:55:33	0	21,534647	3,50244	2,60025	356,148	0,074	88,779	0	1013,72	6,7	8,6	8,5	1	1	1	1	1	1	1	1	1	0	1	-3,523608	274,135813	316,694699	0
15.01.2021	09:55:34	0	21,415521	3,954344	2,39025	345,798	0,07	88,773	0	1013,82	6,7	8,7	8,6	1	1	1	1	1	1	1	1	1	0	1	-7,963354	274,182217	312,471827	0
15.01.2021	09:55:35	0	21,891422	5,423132	2,331	348,9912	0,078	88,793	0	1013,78	6,8	8,7	8,5	1	1	1	1	1	1	1	1	1	0	1	-6,131078	274,128339	314,052309	0
15.01.2021	09:55:36	0	20,939768	3,615421	2,27025	354,2868	0,072	88,78	0	1013,88	6,8	8,6	8,5	1	1	1	1	1	1	1	1	1	0	1	-5,708245	274,159749	314,621918	0
15.01.2021	09:55:37	0	21,534497	3,50244	2,376	8,586	0,066	88,774	0	1013,62	6,7	8,7	8,5	1	1	1	1	1	1	1	1	1	0	1	-2,114165	274,053757	317,720916	0
15.01.2021	09:55:38	0	21,17772	2,93753	2,25	349,8588	0,072	88,791	0	1013,82	6,7	8,6	8,5	1	1	1	1	1	1	1	1	1	0	1	-4,22833	274,176223	316,178832	0
15.01.2021	09:55:39	0	21,177571	3,728403	2,124	359,082	0,075	88,794	0	1013,74	6,8	8,7	8,5	1	1	1	1	1	1	1	1	1	0	1	-4,439746	273,998751	315,138636	0
15.01.2021	09:55:40	0	21,177571	4,519277	1,87575	9,3672	0,074	88,794	0	1013,78	6,7	8,7	8,5	1	1	1	1	1	1	1	1	1	0	1	-6,412967	274,113399	313,700628	0
15.01.2021	09:55:41	0	21,772447	2,93753	1,73325	342,1224	0,08	88,787	0	1013,8	6,7	8,7	8,5	1	1	1	1	1	1	1	1	1	0	1	-4,651163	274,164241	315,699993	0
15.01.2021	09:55:42	0	21,058744	2,711566	1,70775	0,1152	0,078	88,792	0	1013,84	6,7	8,6	8,5	1	1	1	1	1	1	1	1	1	0	1	-5,708245	274,047803	314,099042	0
15.01.2021	09:55:43	0	21,296695	5,31015	1,56825	0,4824	0,086	88,797	0	1013,82	6,7	8,6	8,5	1	1	1	1	1	1	1	1	1	0	1	-9,372798	274,173227	311,020359	0
15.01.2021	09:55:44	0	21,415521	2,93753	1,50675	331,0596	0,08	88,795	0	1013,72	6,7	8,7	8,5	1	1	1	1	1	1	1	1	1	0	1	-4,651163	274,031438	315,079744	0
15.01.2021	09:55:45	0	21,653472	4,632259	1,57725	355,3596	0,08	88,789	0	1013,72	6,8	8,7	8,5	1	1	1	1	1	1	1	1	1	0	1	-1,902748	274,129833	318,287622	0
15.01.2021	09:55:46	0	21,177571	2,485602	1,65075	7,4988	0,075	88,791	0	1013,82	6,8	8,7	8,5	1	1	1	1	1	1	1	1	1	0	1	-5,708245	274,170231	314,670908	0
15.01.2021	09:55:47	0	21,653472	4,858223	1,7205	356,1336	0,078	88,788	0	1013,78	6,7	8,7	8,5	1	1	1	1	1	1	1	1	1	0	1	-6,553911	274,12535	313,615512	0
15.01.2021	09:55:48	0	21,296546	3,728403	1,8315	360	0,07	88,784	0	1013,72	6,7	8,7	8,5	1	1	1	1	1	1	1	1	1	0	1	-4,369274	274,047803	315,438013	0
15.01.2021	09:55:49	0	21,296546	4,632259	1,899	0,4788	0,077	88,795	0	1013,78	6,8	8,7	8,5	1	1	1	1	1	1	1	1	1	0	1	-2,60747	274,165738	317,750684	0
15.01.2021	09:55:50	0	21,772447	3,163494	1,94175	1,9152	0,068	88,764	0	1013,66	6,8	8,7	8,5	1	1	1	1	1	1	1	1	1	0	1	-5,708245	274,122361	314,447217	0
15.01.2021	09:55:51	0	21,177571	3,50244	1,9755	3,7728	0,073	88,775	0	1013,72	6,7	8,7	8,5	1	1	1	1	1	1	1	1	1	0	1	-4,22833	274,161246	316,10883	0
15.01.2021	09:55:52	0	21,534497	3,050494	2,0025	359,2044	0,078	88,787	0	1013,7	6,8	8,7	8,6	1	1	1	1	1	1	1	1	1	0	1	-8,597604	274,000236	310,987704	0
15.01.2021	09:55:53	0	21,177571	3,728403	2,052	1,1628	0,08	88,782	0	1013,7	6,7	8,7	8,5	1	1	1	1	1	1	1	1	1	0	1	-5,84919	274,07014	314,062379	0
15.01.2021	09:55:54	0	21,415521	3,163475	2,3025	3,7728	0,08	88,797	0	1013,88	6,7	8,7	8,6	1	1	1	1	1	1	1	1	1	0	1	-6,624383	274,11788	313,510143	0
15.01.2021	09:55:55	0	21,415521	2,71155	2,61225	360	0,074	88,785	0	1013,76	6,7	8,7	8,6	1	1	1	1	1	1	1	1	1	0	1	-3,453136	274,146281	316,814088	0
15.01.2021	09:55:56	0	21,772599	3,728403	2,90625	356,3172	0,081	88,786	0	1013,84	6,7	8,6	8,5	1	1	1	1	1	1	1	1	1	0	1	-8,033827	274,137308	312,191467	0
15.01.2021	09:55:57	0	21,534647	3,276476	3,12525	356,5944	0,077	88,791	0	1013,8	6,7	8,6	8,5	1	1	1	1	1	1	1	1	1	0	1	-5,637773	273,99133	313,905988	0
15.01.2021	09:55:58	0	21,296695	2,711566	3,24825	0,8568	0,071	88,795	0	1013,8	6,7	8,6	8,5	1	1	1	1	1	1	1	1	1	0	1	-2,60747	274,116386	317,520078	0
15.01.2021	09:55:59	0	21,415521	4,519277	3,42225	1,9188	0,077	88,8	0	1013,86	6,7	8,7	8,5	1	1	1	1	1	1	1	1	1	0	1	-7,751938	274,192711	312,732303	0
15.01.2021	09:56:00	0	21,534647	3,276476	3,73275	8,262	0,076	88,794	0	1013,78	6,8	8,6	8,5	1	1	1	1	1	1	1	1	1	0	1	-9,725159	274,061202	310,14468	0
15.01.2021	09:56:01	0	21,534647	3,276476	3,73275	8,262	0,076	88,794	0	1013,78	6,8	8,6	8,5	1	1	1	1	1	1	1	1	1	0	1	-6,272023	274,174725	314,128137	0
15.01.2021	09:56:02	0	21,653472	3,050512	3,70275	13,9068	0,077	88,799	0	1013,8	6,8	8,7	8,5	1	1	1	1	1	1	1	1	1	0	1	-10,359408	274,04185	309,420095	0
15.01.2021	09:56:03	0	21,534497	4,293313	3,39375	16,848	0,074	88,794	0	1013,56	6,8	8,7	8,5	1	1	1	1	1	1	1	1	1	0	1	-5,21494	274,059713	314,647945	0
15.01.2021	09:56:04	0	21,296546	2,71155	3,4455	0,216	0,075	88,788	0	1013,82	6,8	8,7	8,6	1	1	1	1	1	1	1	1	1	0	1	-6,976744	274,015088	312,677861	0
15.01.2021	09:56:05	0	21,296546	3,163475	3,59625	3,0132	0,077	88,791	0	1013,76	6,8	8,7	8,6	1	1	1	1	1	1	1	1	1	0	1	-5,919662	274,013602	313,728011	0
15.01.2021	09:56:06	0	21,296546	3,954367	3,45375	4,8384	0,079	88,789	0	1013,86	6,7	8,7	8,5	1	1	1	1	1	1	1	1	1	0	1	-4,439746	274,012117	315,200994	0
15.01.2021	09:56:07	0	21,534497	4,293287	3,0765	348,8364	0,071	88,774	0	1013,74	6,8	8,7	8,6	1	1	1	1	1	1	1	1	1	0	1	-5,708245	274,06567	314,182455	0
15.01.2021	09:56:08	0	21,534497	3,615421	2,80425	8,6112	0,079	88,788	0	1013,84	6,8	8,7	8,5	1	1	1	1	1	1	1	1	1	0	1	-6,412967	274,174725	313,987192	0
15.01.2021	09:56:09	0	21,772447	3,389458	3,0435	1,9224	0,08	88,79	0	1013,82	6,7	8,7	8,5	1	1	1	1	1	1	1	1	1	0	1	-2,255109	274,021032	317,427233	0
15.01.2021	09:56:10	0	21,415521	2,711566	3,20925	0,1152	0,074	88,795	0	1013,86	6,7	8,7	8,5	1	1	1	1	1	1	1	1	1	0	1	-5,778717	274,11788	314,355809	0
15.01.2021	09:56:11	0	21,653472	4,406295	3,24525	356,6052	0,071	88,759	0	1013,74	6,8	8,7	8,5	1	1	1	1	1	1	1	1	1	0	1	-6,272023	274,06567	313,618678	0
15.01.2021	09:56:12	0	21,653472	4,632231	3,2535	0,5004	0,072	88,776	0	1013,8	6,7	8,7	8,6	1	1	1	1	1	1	1	1	1	0	1	-6,765328	274,171729	313,620827	0
15.01.2021	09:56:13	0	21,653623	3,050512	3,28575	0,4716	0,084	88,776	0	1013,92	6,7	8,6	8,5	1	1	1	1	1	1	1	1	1	0	1	-0	274,135813	320,218308	0
15.01.2021	09:56:14	0	21,534497	4,745241	3,09675	353,9736	0,08	88,777	0	1013,88	6,8	8,7	8,5	1	1	1	1	1	1	1	1	1	0	1	-7,681466	274,177721	312,7327	0
15.01.2021	09:56:15	0	21,653472	4,180331	2,92275	355,0716	0,076	88,751	0	1013,8	6,8	8,7	8,5	1	1	1	1	1	1	1	1	1	0	1	-4,651163	274,059713	315,211723	0
15.01.2021	09:56:16	0	21,772447	4,971175	2,65875	358,7436	0,071	88,763	0	1013,84	6,8	8,7	8,6	1	1	1	1	1	1	1	1	1	0	1	-7,82241	274,013602	311,825262	0
15.01.2021	09:56:17	0	21,891422	4,51925	2,427	3,7584	0,072	88,754	0	1013,74	6,7	8,7	8,6	1	1	1	1	1	1	1	1	1	0	1	-4,933051	274,111906	315,173568	0
15.01.2021	09:56:18	0	21,653472	4,632231	2,403	1,9044	0,077	88,764	0	1013,78	6,7	8,7	8,6	1	1	1	1	1	1	1	1	1	0	1	-4,369274	274,009146	315,257604	0
15.01.2021	09:56:19	0	21,772447	3,389458	2,5455	348,4548	0,077	88,76	0	1013,7	6,8	8,7	8,5	1	1	1	1	1	1	1	1	1	0	1	-0,704722	274,034413	319,040067	0
15.01.2021	09:56:20	0	21,534497	3,954367	2,5095	353,1996	0,073	88,762	0	1013,9	6,7	8,7	8,5	1	1	1	1	1	1	1	1	1	0	1	-3,312192	274,15077	316,976006	0
15.01.2021	09:56:21	0	21,772447	3,276476	2,421	353,9556	0,073	88,755	0	1013,66	6,8	8,7	8,5	1	1	1	1	1	1	1	1	1	0	1	-4,157858	274,171729	316,228297	0
15.01.2021	09:56:22	0	21,891422	2,37262	2,41425	358,7112	0,078	88,76	0	1013,66	6,8	8,7	8,5	1	1	1	1	1	1	1	1	1	0	1	-3,805497	274,010631	315,828312	0
15.01.2021	09:56:23	0	21,534497	2,485587	2,388	356,5548	0,076	88,769	0	1013,88	6,8	8,7	8,6	1	1	1	1	1	1	1	1	1	0	1	-4,862579	274,058223	314,993354	0
15.01.2021	09:56:24	0	21,653472	4,971175	2,361	354,9996	0,082	88,754	0	1013,72	6,8	8,7	8,6	1	1	1	1	1	1	1	1	1	0	1	-10,077519	274,012117	309,563221	0
15.01.2021	09:56:25	0	22,129372	3,502419	2,3295	359,5248	0,076	88,761	0	1013,76	6,8	8,7	8,6	1	1	1	1	1	1	1	1	1	0	1	-5,285412	274,043338	314,501036	0
15.01.2021	09:56:26	0	21,891422	3,163475	2,376	1,1592	0,077	88,76	0	1013,82	6,8	8,7	8,6	1	1	1	1	1	1	1	1	1	0	1	-1,409443	274,174725	318,990716	0
15.01.2021	09:56:27	0	21,415521	2,93753	2,25375	1,1628	0,077	88,76	0	1013,7	6,8	8,7	8,5	1	1	1	1	1	1	1	1	1	0	1	-3,453136	274,170231	316,926018	0
15.01.2021	09:56:28	0	21,653472	2,259638	2,223	6,048	0,076	88,756	0	1013,86	6,8	8,7	8,5	1	1	1	1	1	1	1	1	1	0	1	-5,990134	274,113399	314,123461	0
15.01.2021	09:56:29	0	21,772447	3,389437	2,31825	9,7452	0,081	88,767	0	1013,88	6,8	8,7	8,6	1	1	1	1	1	1	1	1	1	0	1	-5,919662	274,176223	314,487501	0
15.01.2021	09:56:30	0	21,891575	4,293287	2,5245	0,4824	0,077	88,766	0	1013,76	6,7	8,6	8,6	1	1	1	1	1	1	1	1	1	0	1	-6,342495	274,137308	313,882799	0
15.01.2021	09:56:31	0	21,534497	3,841385	2,766	15,786	0,08	88,743	0	1013,58	6,8	8,7	8,5	1	1	1	1	1	1	1	1	1	0	1	-2,818887	274,034413	316,925902	0
15.01.2021	09:56:32	0	21,891422	4,293313	2,7075	12,0852	0,085	88,768	0	1013,86	6,8	8,7	8,5	1	1	1	1	1	1	1	1	1	0	1	-2,889359	274,188213	317,573853	0
15.01.2021	09:56:33	0	21,653472	3,389437	2,76825	19,9008	0,076	88,751	0	1013,78	6,8	8,7	8,6	1	1	1	1	1	1	1	1	1	0	1	-3,805497	274,095487	316,224435	0
15.01.2021	09:56:34	0	21,534497	3,954344	2,98275	15,0264	0,077	88,759	0	1013,82	6,7	8,7	8,6	1	1	1	1	1	1	1	1	1	0	1	-5,708245	274,180718	314,71993	0
15.01.2021	09:56:35	0	21,772447	2,824531	3,171	11,7072	0,077	88,766	0	1013,66	6,8	8,7	8,6	1	1	1	1	1	1	1	1	1	0	1	-7,258633	274,093995	312,764331	0
15.01.2021	09:56:36	0	21,534497	2,711566	3,34875	8,9856	0,075	88,762	0	1013,8	6,8	8,7	8,5	1	1	1	1	1	1	1	1	1	0	1	-4,087385	274,177721	316,326781	0
15.01.2021	09:56:37	0	21,891422	3,502419	3,28725	5,6808	0,077	88,753	0	1013,88	6,8	8,7	8,6	1	1	1	1	1	1	1	1	1	0	1	-6,553911	274,019546	313,121496	0
15.01.2021	09:56:38	0	22,010397	4,858193	3,01725	349,3944	0,083	88,754	0	1013,76	6,8	8,7	8,6	1	1	1	1	1	1	1	1	1	0	1	-6,272023	274,059713	313,590863	0
15.01.2021	09:56:39	0	22,010397	3,50244	2,7285	342,3276	0,087	88,794	0	1013,88	6,8	8,7	8,5	1	1	1	1	1	1	1	1	1	0	1	-5,144468	274,183716	315,29772	0
15.01.2021	09:56:40	0	21,891422	3,389437	2,6205	350,2872	0,076	88,766	0	1013,76	6,8	8,7	8,6	1	1	1	1	1	1	1	1	1	0	1	-3,453136	274,050779	316,368047	0
15.01.2021	09:56:41	0	22,129372	4,519277	2,60475	354,6108	0,077	88,76	0	1013,9	6,8	8,7	8,5	1	1	1	1	1	1	1	1	1	0	1	-8,315715	274,159749	312,014448	0
15.01.2021	09:56:42	0	21,891422	3,163475	2,61675	351,7164	0,076	88,756	0	1013,62	6,7	8,7	8,6	1	1	1	1	1	1	1	1	1	0	1	-8,80902	274,098471	311,234848	0
15.01.2021	09:56:43	0	21,653472	4,067325	2,56875	355,7376	0,075	88,756	0	1013,7	6,8	8,7	8,6	1	1	1	1	1	1	1	1	1	0	1	-6,20155	274,021032	313,480792	0
15.01.2021	09:56:44	0	21,891422	2,937512	2,5335	350,2512	0,07	88,735	0	1013,7	6,8	8,7	8,6	1	1	1	1	1	1	1	1	1	0	1	-2,536998	274,14329	317,716247	0
15.01.2021	09:56:45	0	21,891422	4,858223	2,51775	353,5056	0,072	88,743	0	1013,8	6,7	8,7	8,5	1	1	1	1	1	1	1	1	1	0	1	-2,255109	274,015088	317,399496	0
15.01.2021	09:56:46	0	21,534497	4,406268	2,4705	348,3648	0,079	88,734	0	1013,78	6,8	8,7	8,6	1	1	1	1	1	1	1	1	1	0	1	-5,637773	274,177721	314,776393	0
15.01.2021	09:56:47	0	21,891422	3,502419	2,46675	357,3432	0,08	88,737	0	1013,82	6,8	8,7	8,6	1	1	1	1	1	1	1	1	1	0	1	-5,778717	274,009146	313,848161	0
15.01.2021	09:56:48	0	21,891422	3,728381	3,15225	1,5408	0,072	88,734	0	1013,78	6,8	8,7	8,6	1	1	1	1	1	1	1	1	1	0	1	-6,624383	274,113399	313,489212	0
15.01.2021	09:56:49	0	21,653472	3,276456	3,708	0	0,067	88,742	0	1013,62	6,7	8,7	8,6	1	1	1	1	1	1	1	1	1	0	1	-3,946441	274,186713	316,509762	0
15.01.2021	09:56:50	0	21,534497	5,084156	3,94275	358,4088	0,073	88,734	0	1013,62	6,7	8,7	8,6	1	1	1	1	1	1	1	1	1	0	1	-9,44327	274,168733	310,928883	0
15.01.2021	09:56:51	0	21,653472	4,632231	4,16625	3,0168	0,08	88,739	0	1013,88	6,8	8,7	8,6	1	1	1	1	1	1	1	1	1	0	1	-6,131078	274,119373	314,010426	0
15.01.2021	09:56:52	0	21,653472	3,050494	4,1535	4,0788	0,075	88,752	0	1013,86	6,8	8,7	8,6	1	1	1	1	1	1	1	1	1	0	1	-5,144468	274,176223	315,262694	0
15.01.2021	09:56:53	0	21,653472	3,728381	3,9045	9,3384	0,079	88,747	0	1013,8	6,8	8,7	8,6	1	1	1	1	1	1	1	1	1	0	1	-7,963354	274,159749	312,366809	0
15.01.2021	09:56:54	0	21,772447	3,6154	3,93825	355,0248	0,079	88,75	0	1013,84	6,7	8,7	8,6	1	1	1	1	1	1	1	1	1	0	1	-9,725159	274,001721	309,867076	0
15.01.2021	09:56:55	0	21,772447	4,632231	4,06275	3,7584	0,081	88,739	0	1013,84	6,8	8,7	8,6	1	1	1	1	1	1	1	1	1	0	1	-3,59408	274,131328	316,603273	0
15.01.2021	09:56:56	0	21,534497	3,163494	4,06575	7,254	0,079	88,76	0	1013,8	6,7	8,7	8,5	1	1	1	1	1	1	1	1	1	0	1	-5,990134	274,034413	313,754654	0
15.01.2021	09:56:57	0	21,772447	5,536081	4,05525	5,652	0,077	88,753	0	1013,76	6,8	8,7	8,6	1	1	1	1	1	1	1	1	1	0	1	-7,399577	274,149273	312,881629	0
15.01.2021	09:56:58	0	21,772599	3,841362	4,28325	6,426	0,072	88,758	0	1013,76	6,8	8,6	8,6	1	1	1	1	1	1	1	1	1	0	1	-8,80902	274,138803	311,42326	0
15.01.2021	09:56:59	0	22,129372	3,841385	4,23075	1,1808	0,075	88,753	0	1013,78	6,8	8,7	8,5	1	1	1	1	1	1	1	1	1	0	1	-2,748414	274,147777	317,5258	0
15.01.2021	09:57:00	0	21,772447	4,406268	3,93525	353,9844	0,077	88,757	0	1013,8	6,8	8,7	8,6	1	1	1	1	1	1	1	1	1	0	1	-3,946441	274,135813	316,271866	0
15.01.2021	09:57:01	0	21,772447	4,406268	3,93525	353,9844	0,077	88,757	0	1013,8	6,8	8,7	8,6	1	1	1	1	1	1	1	1	1	0	1	-4,933051	274,19571	315,565212	0
15.01.2021	09:57:02	0	21,653472	2,485587	3,92025	0,4932	0,078	88,74	0	1013,72	6,8	8,7	8,6	1	1	1	1	1	1	1	1	1	0	1	-2,889359	274,055245	316,952673	0
15.01.2021	09:57:03	0	21,891422	4,180306	3,9525	0,1296	0,081	88,75	0	1013,82	6,8	8,7	8,6	1	1	1	1	1	1	1	1	1	0	1	-3,735025	273,864132	315,215769	0
15.01.2021	09:57:04	0	22,010397	2,93753	3,87825	0,108	0,082	88,751	0	1013,8	6,8	8,7	8,5	1	1	1	1	1	1	1	1	1	0	1	-5,567301	274,177721	314,846865	0
15.01.2021	09:57:05	0	22,248347	4,293313	3,813	352,9152	0,083	88,742	0	1013,74	6,8	8,7	8,5	1	1	1	1	1	1	1	1	1	0	1	-5,567301	274,164241	314,783854	0
15.01.2021	09:57:06	0	21,534497	2,937512	3,79275	1,1772	0,081	88,747	0	1013,66	6,8	8,7	8,6	1	1	1	1	1	1	1	1	1	0	1	-4,721635	274,079082	315,231687	0
15.01.2021	09:57:07	0	21,534497	3,163475	3,89325	1,566	0,078	88,75	0	1013,78	6,8	8,7	8,6	1	1	1	1	1	1	1	1	1	0	1	-6,342495	274,186713	314,113708	0
15.01.2021	09:57:08	0	22,010397	3,6154	3,885	1,5444	0,073	88,737	0	1013,76	6,8	8,7	8,6	1	1	1	1	1	1	1	1	1	0	1	-9,795631	274,134318	310,415692	0
15.01.2021	09:57:09	0	21,772447	2,937512	3,64725	9,7488	0,079	88,743	0	1013,76	6,8	8,7	8,6	1	1	1	1	1	1	1	1	1	0	1	-6,553911	274,19421	313,93734	0
15.01.2021	09:57:10	0	21,772447	4,632231	3,32775	359,8308	0,089	88,735	0	1013,8	6,8	8,7	8,6	1	1	1	1	1	1	1	1	1	0	1	-0,775194	274,174725	319,624965	0
15.01.2021	09:57:11	0	21,891422	3,163494	3,30825	3,7584	0,075	88,743	0	1013,88	6,8	8,7	8,5	1	1	1	1	1	1	1	1	1	0	1	-4,22833	274,043338	315,558118	0
15.01.2021	09:57:12	0	21,653472	4,406268	3,4305	9,846	0,076	88,734	0	1013,84	6,8	8,7	8,6	1	1	1	1	1	1	1	1	1	0	1	-8,033827	274,049291	311,780408	0
15.01.2021	09:57:13	0	21,653472	3,6154	3,396	14,2812	0,072	88,719	0	1013,84	6,8	8,7	8,6	1	1	1	1	1	1	1	1	1	0	1	-6,906272	274,185214	313,542923	0
15.01.2021	09:57:14	0	22,010397	4,406268	3,477	12,8484	0,076	88,727	0	1013,72	6,8	8,7	8,6	1	1	1	1	1	1	1	1	1	0	1	-2,959831	274,105934	317,118893	0
15.01.2021	09:57:15	0	21,653472	2,937512	3,51375	15,0192	0,082	88,741	0	1013,76	6,8	8,7	8,6	1	1	1	1	1	1	1	1	1	0	1	-6,553911	274,022518	313,135367	0
15.01.2021	09:57:16	0	22,010397	3,6154	3,4815	12,474	0,075	88,727	0	1013,86	6,8	8,7	8,6	1	1	1	1	1	1	1	1	1	0	1	-6,8358	274,185214	313,613395	0
15.01.2021	09:57:17	0	21,653472	2,71155	3,5205	7,866	0,079	88,74	0	1013,96	6,7	8,7	8,6	1	1	1	1	1	1	1	1	1	0	1	-7,610994	274,043338	312,175455	0
15.01.2021	09:57:18	0	21,772447	3,6154	3,41325	6,0696	0,078	88,744	0	1013,84	6,8	8,7	8,6	1	1	1	1	1	1	1	1	1	0	1	-4,721635	274,177721	315,692531	0
15.01.2021	09:57:19	0	22,248347	3,6154	3,32475	17,6796	0,072	88,739	0	1013,76	6,8	8,7	8,6	1	1	1	1	1	1	1	1	1	0	1	-5,84919	274,088029	314,14591	0
15.01.2021	09:57:20	0	21,772447	4,745212	3,15675	14,652	0,081	88,747	0	1013,88	6,8	8,7	8,6	1	1	1	1	1	1	1	1	1	0	1	-12,121212	274,055245	307,720819	0
15.01.2021	09:57:21	0	22,248347	4,293313	2,94	12,8484	0,082	88,742	0	1013,82	6,8	8,7	8,5	1	1	1	1	1	1	1	1	1	0	1	-6,060606	274,20171	314,465711	0
15.01.2021	09:57:22	0	21,891422	4,067325	2,739	14,652	0,076	88,736	0	1013,84	6,8	8,7	8,6	1	1	1	1	1	1	1	1	1	0	1	-10,42988	274,040363	309,342679	0
15.01.2021	09:57:23	0	21,891422	4,745212	2,71875	16,9272	0,071	88,723	0	1013,7	6,8	8,7	8,6	1	1	1	1	1	1	1	1	1	0	1	-7,963354	274,022518	311,725924	0
15.01.2021	09:57:24	0	22,010397	4,180331	2,6775	3,3984	0,077	88,744	0	1013,78	6,8	8,7	8,5	1	1	1	1	1	1	1	1	1	0	1	-6,131078	274,122361	314,024384	0
15.01.2021	09:57:25	0	22,129372	4,745212	2,7315	6,0516	0,072	88,733	0	1013,82	6,8	8,7	8,6	1	1	1	1	1	1	1	1	1	0	1	-2,043693	274,189712	318,426528	0
15.01.2021	09:57:26	0	21,891422	3,6154	2,76525	5,2884	0,082	88,731	0	1013,92	6,8	8,7	8,6	1	1	1	1	1	1	1	1	1	0	1	-7,399577	274,161246	312,937583	0
15.01.2021	09:57:27	0	21,653472	2,824531	2,805	4,4568	0,078	88,73	0	1013,88	6,8	8,7	8,6	1	1	1	1	1	1	1	1	1	0	1	-6,906272	274,15077	313,381926	0
15.01.2021	09:57:28	0	22,010397	2,824531	2,814	10,4472	0,078	88,743	0	1013,76	6,8	8,7	8,6	1	1	1	1	1	1	1	1	1	0	1	-10,711769	274,19421	309,779483	0
15.01.2021	09:57:29	0	22,129372	4,745212	2,80725	10,4328	0,074	88,724	0	1013,76	6,8	8,7	8,6	1	1	1	1	1	1	1	1	1	0	1	-4,792107	274,105934	315,286617	0
15.01.2021	09:57:30	0	22,129372	3,050494	2,76375	8,9928	0,072	88,716	0	1013,76	6,8	8,7	8,6	1	1	1	1	1	1	1	1	1	0	1	-10,218464	274,182217	310,216718	0
15.01.2021	09:57:31	0	22,486297	3,389437	2,706	357,9408	0,077	88,712	0	1013,86	6,8	8,7	8,6	1	1	1	1	1	1	1	1	1	0	1	-10,570825	274,105934	309,507899	0
15.01.2021	09:57:32	0	22,010397	3,6154	2,61075	351,7956	0,071	88,725	0	1013,82	6,8	8,7	8,6	1	1	1	1	1	1	1	1	1	0	1	-5,144468	274,185214	315,304727	0
15.01.2021	09:57:33	0	22,129372	4,858223	2,57175	349,3944	0,074	88,726	0	1013,96	6,8	8,7	8,5	1	1	1	1	1	1	1	1	1	0	1	-5,426357	274,188213	315,036855	0
15.01.2021	09:57:34	0	21,891422	3,163475	2,45925	2,0268	0,076	88,725	0	1013,7	6,8	8,7	8,6	1	1	1	1	1	1	1	1	1	0	1	-5,496829	274,074611	314,435614	0
15.01.2021	09:57:35	0	22,248347	4,858193	2,27925	350,28	0,079	88,735	0	1013,8	6,8	8,7	8,6	1	1	1	1	1	1	1	1	1	0	1	-5,637773	274,20171	314,888544	0
15.01.2021	09:57:36	0	22,248347	3,728381	2,061	360	0,071	88,75	0	1013,84	6,8	8,7	8,6	1	1	1	1	1	1	1	1	1	0	1	-7,892882	274,147777	312,381332	0
15.01.2021	09:57:37	0	22,367322	4,632231	1,91925	359,5248	0,079	88,748	0	1013,76	6,8	8,7	8,6	1	1	1	1	1	1	1	1	1	0	1	-4,933051	274,185214	315,516144	0
15.01.2021	09:57:38	0	21,772447	5,310118	1,806	359,7732	0,075	88,748	0	1013,72	6,8	8,7	8,6	1	1	1	1	1	1	1	1	1	0	1	-4,933051	274,138803	315,299229	0
15.01.2021	09:57:39	0	22,010397	3,163475	1,83	6,0516	0,074	88,735	0	1013,58	6,8	8,7	8,6	1	1	1	1	1	1	1	1	1	0	1	-6,483439	274,028464	313,233589	0
15.01.2021	09:57:40	0	22,010397	2,937512	1,89075	1,9152	0,073	88,739	0	1013,78	6,8	8,7	8,6	1	1	1	1	1	1	1	1	1	0	1	-2,466526	274,134318	317,744797	0
15.01.2021	09:57:41	0	22,010397	3,6154	2,03475	352,836	0,078	88,744	0	1013,76	6,8	8,7	8,6	1	1	1	1	1	1	1	1	1	0	1	-3,735025	274,019546	315,940382	0
15.01.2021	09:57:42	0	22,248347	4,51925	2,19225	346,8024	0,077	88,741	0	1013,78	6,7	8,7	8,6	1	1	1	1	1	1	1	1	1	0	1	-8,597604	274,091012	311,411426	0
15.01.2021	09:57:43	0	21,891422	2,71155	2,40225	357,6564	0,077	88,732	0	1013,8	6,8	8,7	8,6	1	1	1	1	1	1	1	1	1	0	1	-3,100775	274,20021	317,418527	0
15.01.2021	09:57:44	0	21,891422	3,163475	2,66025	8,2368	0,073	88,746	0	1013,82	6,8	8,7	8,6	1	1	1	1	1	1	1	1	1	0	1	-9,584214	274,153762	310,71797	0
15.01.2021	09:57:45	0	22,010397	4,632259	2,751	3,7548	0,074	88,756	0	1013,82	6,7	8,7	8,5	1	1	1	1	1	1	1	1	1	0	1	-3,24172	274,192711	317,242521	0
15.01.2021	09:57:46	0	22,367322	5,084156	2,77575	0,8172	0,073	88,754	0	1013,84	6,8	8,7	8,6	1	1	1	1	1	1	1	1	1	0	1	-5,84919	274,134318	314,362133	0
15.01.2021	09:57:47	0	21,891422	4,293287	2,6925	0,1188	0,079	88,765	0	1013,74	6,8	8,7	8,6	1	1	1	1	1	1	1	1	1	0	1	-4,439746	274,040363	315,332813	0
15.01.2021	09:57:48	0	22,129372	2,937512	2,46525	0,1188	0,079	88,762	0	1013,9	6,8	8,7	8,6	1	1	1	1	1	1	1	1	1	0	1	-4,721635	274,026978	314,988455	0
15.01.2021	09:57:49	0	22,248347	2,824531	2,46	349,4376	0,076	88,761	0	1013,82	6,8	8,7	8,6	1	1	1	1	1	1	1	1	1	0	1	-2,466526	274,034413	317,278263	0
15.01.2021	09:57:50	0	22,010397	4,51925	2,493	359,8596	0,077	88,768	0	1013,84	6,7	8,7	8,6	1	1	1	1	1	1	1	1	1	0	1	-5,990134	274,186713	314,466069	0
15.01.2021	09:57:51	0	22,248347	3,728381	2,45625	360	0,075	88,768	0	1013,7	6,8	8,7	8,6	1	1	1	1	1	1	1	1	1	0	1	-8,668076	274,079082	311,285246	0
15.01.2021	09:57:52	0	22,367322	3,389437	2,35875	355,4172	0,075	88,77	0	1013,78	6,8	8,7	8,6	1	1	1	1	1	1	1	1	1	0	1	-3,312192	274,037387	316,446481	0
15.01.2021	09:57:53	0	22,248347	3,728381	2,42325	348,6492	0,07	88,753	0	1013,68	6,8	8,7	8,6	1	1	1	1	1	1	1	1	1	0	1	-6,8358	274,058223	313,020134	0
15.01.2021	09:57:54	0	22,010397	4,180306	2,616	346,0932	0,07	88,744	0	1013,8	6,8	8,7	8,6	1	1	1	1	1	1	1	1	1	0	1	-5,990134	274,19871	314,522155	0
15.01.2021	09:57:55	0	22,248347	3,954344	2,85825	345,7944	0,069	88,765	0	1013,78	6,8	8,7	8,6	1	1	1	1	1	1	1	1	1	0	1	-4,510218	274,141794	315,736037	0
15.01.2021	09:57:56	0	22,248347	4,293287	3,02475	347,2128	0,072	88,755	0	1013,68	6,8	8,7	8,6	1	1	1	1	1	1	1	1	1	0	1	-4,862579	274,058223	314,993354	0
15.01.2021	09:57:57	0	22,486297	3,728381	2,9865	327,8448	0,075	88,762	0	1013,82	6,8	8,7	8,6	1	1	1	1	1	1	1	1	1	0	1	-4,792107	274,177721	315,622059	0
15.01.2021	09:57:58	0	22,248347	4,745212	2,826	351,036	0,076	88,774	0	1013,78	6,8	8,7	8,6	1	1	1	1	1	1	1	1	1	0	1	-7,399577	274,025491	312,303575	0
15.01.2021	09:57:59	0	22,605273	3,841362	2,691	2,286	0,076	88,768	0	1013,82	6,7	8,7	8,6	1	1	1	1	1	1	1	1	1	0	1	-5,990134	274,158252	314,333034	0
15.01.2021	09:58:00	0	22,129372	3,954344	2,41125	358,3296	0,079	88,777	0	1013,8	6,8	8,7	8,6	1	1	1	1	1	1	1	1	1	0	1	-5,778717	274,043338	314,007731	0
15.01.2021	09:58:01	0	22,129372	3,954344	2,41125	358,3296	0,079	88,777	0	1013,8	6,8	8,7	8,6	1	1	1	1	1	1	1	1	1	0	1	-5,778717	274,043338	314,007731	0
15.01.2021	09:58:02	0	22,248347	2,71155	2,33775	360	0,074	88,764	0	1013,76	6,8	8,7	8,6	1	1	1	1	1	1	1	1	1	0	1	-4,22833	274,180718	316,199846	0
15.01.2021	09:58:03	0	22,367322	4,51925	2,41125	356,922	0,078	88,777	0	1013,8	6,8	8,7	8,6	1	1	1	1	1	1	1	1	1	0	1	-6,8358	274,170231	313,543354	0
15.01.2021	09:58:04	0	22,129372	3,841362	2,49	0	0,073	88,781	0	1013,8	6,8	8,7	8,6	1	1	1	1	1	1	1	1	1	0	1	-5,426357	274,013602	314,221316	0
15.01.2021	09:58:05	0	22,248347	4,51925	2,5815	1,1556	0,07	88,772	0	1013,88	6,8	8,7	8,6	1	1	1	1	1	1	1	1	1	0	1	-9,372798	274,185214	311,076397	0
15.01.2021	09:58:06	0	22,129372	3,954344	2,68275	357,5844	0,069	88,772	0	1013,64	6,8	8,7	8,6	1	1	1	1	1	1	1	1	1	0	1	-7,82241	274,06716	312,075246	0
15.01.2021	09:58:07	0	22,248347	2,372606	2,8365	356,8968	0,083	88,782	0	1014,02	6,7	8,7	8,6	1	1	1	1	1	1	1	1	1	0	1	-7,892882	274,015088	311,761723	0
15.01.2021	09:58:08	0	22,010397	3,6154	2,835	10,818	0,08	88,76	0	1013,8	6,7	8,7	8,6	1	1	1	1	1	1	1	1	1	0	1	-5,84919	274,126844	314,327215	0
15.01.2021	09:58:09	0	22,367322	3,841362	2,814	6,4332	0,078	88,761	0	1013,6	6,7	8,7	8,6	1	1	1	1	1	1	1	1	1	0	1	-8,949965	274,182217	311,485217	0
15.01.2021	09:58:10	0	22,129372	2,824531	2,88825	10,8144	0,077	88,771	0	1013,9	6,8	8,7	8,6	1	1	1	1	1	1	1	1	1	0	1	-6,553911	274,010631	313,079898	0
15.01.2021	09:58:11	0	22,248347	2,71155	2,91	359,5212	0,076	88,78	0	1013,66	6,8	8,7	8,6	1	1	1	1	1	1	1	1	1	0	1	-5,285412	274,153762	315,016772	0
15.01.2021	09:58:12	0	21,891422	3,954344	2,87025	5,2092	0,075	88,777	0	1013,78	6,8	8,7	8,6	1	1	1	1	1	1	1	1	1	0	1	-5,073996	274,206211	315,473368	0
15.01.2021	09:58:13	0	22,724248	5,197168	2,763	6,4368	0,08	88,777	0	1013,84	6,7	8,7	8,5	1	1	1	1	1	1	1	1	1	0	1	-3,171247	274,126844	317,005158	0
15.01.2021	09:58:14	0	22,367322	2,71155	2,7075	359,9064	0,075	88,779	0	1013,7	6,8	8,7	8,6	1	1	1	1	1	1	1	1	1	0	1	-4,157858	274,192711	316,326383	0
15.01.2021	09:58:15	0	22,248347	4,180306	2,64975	351,0972	0,07	88,772	0	1013,88	6,7	8,7	8,6	1	1	1	1	1	1	1	1	1	0	1	-7,82241	274,131328	312,374943	0
15.01.2021	09:58:16	0	22,010397	3,050494	2,652	19,9944	0,073	88,773	0	1013,82	6,8	8,7	8,6	1	1	1	1	1	1	1	1	1	0	1	-5,21494	274,019546	314,460467	0
15.01.2021	09:58:17	0	22,010397	2,372606	2,5395	4,0644	0,074	88,781	0	1013,82	6,8	8,7	8,6	1	1	1	1	1	1	1	1	1	0	1	-2,677942	274,128339	317,505445	0
15.01.2021	09:58:18	0	22,129372	3,841362	2,52975	11,7	0,067	88,773	0	1013,8	6,7	8,7	8,6	1	1	1	1	1	1	1	1	1	0	1	-9,795631	274,188213	310,667581	0
15.01.2021	09:58:19	0	22,129372	2,598584	2,5845	3,7692	0,072	88,765	0	1013,62	6,7	8,7	8,5	1	1	1	1	1	1	1	1	1	0	1	-7,399577	274,104441	312,672174	0
15.01.2021	09:58:20	0	22,129372	4,51925	2,72475	4,0752	0,075	88,766	0	1013,96	6,8	8,7	8,6	1	1	1	1	1	1	1	1	1	0	1	-12,684989	274,188213	307,778222	0
15.01.2021	09:58:21	0	22,486297	3,502419	2,68875	8,6004	0,072	88,781	0	1013,88	6,7	8,7	8,6	1	1	1	1	1	1	1	1	1	0	1	-4,933051	274,06567	314,957649	0
15.01.2021	09:58:22	0	22,129372	2,71155	2,6295	8,2692	0,078	88,768	0	1013,66	6,7	8,7	8,6	1	1	1	1	1	1	1	1	1	0	1	-6,342495	274,074611	313,589948	0
15.01.2021	09:58:23	0	22,129372	2,146644	2,6595	7,506	0,075	88,784	0	1013,76	6,7	8,7	8,6	1	1	1	1	1	1	1	1	1	0	1	-3,735025	274,183716	316,707163	0
15.01.2021	09:58:24	0	22,248347	4,180306	2,7345	0,4824	0,071	88,774	0	1013,84	6,7	8,7	8,6	1	1	1	1	1	1	1	1	1	0	1	-5,285412	274,122361	314,87005	0
15.01.2021	09:58:25	0	22,129372	4,406268	2,631	5,2344	0,078	88,783	0	1013,84	6,8	8,7	8,6	1	1	1	1	1	1	1	1	1	0	1	-0,563777	274,040363	319,208782	0
15.01.2021	09:58:26	0	22,129372	2,937512	2,57325	1,1772	0,078	88,779	0	1013,78	6,8	8,7	8,6	1	1	1	1	1	1	1	1	1	0	1	-2,536998	274,013602	317,110675	0
15.01.2021	09:58:27	0	22,367322	3,728381	2,553	13,158	0,066	88,772	0	1013,8	6,7	8,7	8,6	1	1	1	1	1	1	1	1	1	0	1	-5,073996	274,08952	314,928069	0
15.01.2021	09:58:28	0	22,367322	2,937512	2,436	16,092	0,075	88,775	0	1013,76	6,8	8,7	8,6	1	1	1	1	1	1	1	1	1	0	1	-4,087385	274,034413	315,657403	0
15.01.2021	09:58:29	0	22,843223	4,858193	2,3865	13,5432	0,071	88,762	0	1013,82	6,7	8,7	8,6	1	1	1	1	1	1	1	1	1	0	1	-6,624383	274,162743	313,719774	0
15.01.2021	09:58:30	0	22,248347	4,293287	2,334	15,408	0,077	88,814	0	1014,14	6,7	8,7	8,6	1	1	1	1	1	1	1	1	1	0	1	-4,862579	274,149273	315,418627	0
15.01.2021	09:58:31	0	22,486297	3,502419	2,2965	19,5264	0,075	88,778	0	1013,82	6,7	8,7	8,6	1	1	1	1	1	1	1	1	1	0	1	-7,470049	274,204711	313,070298	0
15.01.2021	09:58:32	0	22,367322	3,389437	2,23425	13,176	0,08	88,784	0	1013,88	6,7	8,7	8,6	1	1	1	1	1	1	1	1	1	0	1	-7,963354	274,153762	312,338829	0
15.01.2021	09:58:33	0	22,605273	3,954344	2,28	7,1208	0,07	88,763	0	1013,86	6,7	8,7	8,6	1	1	1	1	1	1	1	1	1	0	1	-11,627907	274,19421	308,863345	0
15.01.2021	09:58:34	0	22,129372	4,406268	2,28825	7,8804	0,074	88,756	0	1013,82	6,8	8,7	8,6	1	1	1	1	1	1	1	1	1	0	1	-6,765328	274,12535	313,404096	0
15.01.2021	09:58:35	0	22,248347	4,745212	2,2125	25,7868	0,077	88,769	0	1013,88	6,7	8,7	8,6	1	1	1	1	1	1	1	1	1	0	1	-5,778717	274,189712	314,691503	0
15.01.2021	09:58:36	0	22,605273	3,954344	2,0655	19,53	0,075	88,774	0	1013,94	6,8	8,7	8,6	1	1	1	1	1	1	1	1	1	0	1	-5,496829	274,171729	314,889326	0
15.01.2021	09:58:37	0	22,248347	2,824531	1,94025	1,5552	0,074	88,784	0	1013,8	6,8	8,7	8,6	1	1	1	1	1	1	1	1	1	0	1	-9,654686	274,19571	310,843577	0
15.01.2021	09:58:38	0	22,486297	4,067325	1,806	351,054	0,077	88,781	0	1013,92	6,7	8,7	8,6	1	1	1	1	1	1	1	1	1	0	1	-1,409443	274,147777	318,864771	0
15.01.2021	09:58:39	0	22,605273	4,293287	1,73925	342,756	0,075	88,772	0	1013,9	6,7	8,7	8,6	1	1	1	1	1	1	1	1	1	0	1	-2,466526	274,173227	317,926631	0
15.01.2021	09:58:40	0	22,605273	3,728381	1,78725	349,9272	0,072	88,765	0	1013,86	6,7	8,7	8,6	1	1	1	1	1	1	1	1	1	0	1	-7,047216	274,031438	312,68369	0
15.01.2021	09:58:41	0	22,486297	2,937512	1,89	345,834	0,072	88,765	0	1013,78	6,7	8,7	8,6	1	1	1	1	1	1	1	1	1	0	1	-5,990134	274,153762	314,31205	0
15.01.2021	09:58:42	0	22,248347	3,841362	2,133	348,3432	0,075	88,783	0	1013,78	6,7	8,7	8,6	1	1	1	1	1	1	1	1	1	0	1	-5,144468	274,026978	314,565622	0
15.01.2021	09:58:43	0	22,486297	3,050494	2,34525	348,1164	0,064	88,764	0	1013,76	6,7	8,7	8,6	1	1	1	1	1	1	1	1	1	0	1	-4,22833	274,141794	316,017926	0
15.01.2021	09:58:44	0	22,248347	3,841362	2,38425	347,2128	0,07	88,777	0	1013,88	6,7	8,7	8,6	1	1	1	1	1	1	1	1	1	0	1	-3,735025	274,031438	315,995882	0
15.01.2021	09:58:45	0	22,962198	4,632231	2,38125	359,4708	0,075	88,775	0	1013,88	6,8	8,7	8,6	1	1	1	1	1	1	1	1	1	0	1	-5,778717	274,149273	314,502489	0
15.01.2021	09:58:46	0	22,724248	4,067325	2,3325	355,806	0,065	88,772	0	1013,8	6,7	8,7	8,6	1	1	1	1	1	1	1	1	1	0	1	-5,496829	274,19871	315,01546	0
15.01.2021	09:58:47	0	22,248347	4,067325	2,34	352,1016	0,071	88,769	0	1013,76	6,7	8,7	8,6	1	1	1	1	1	1	1	1	1	0	1	-7,258633	274,07312	312,666851	0
15.01.2021	09:58:48	0	22,367322	4,51925	2,265	343,5768	0,075	88,783	0	1013,88	6,8	8,7	8,6	1	1	1	1	1	1	1	1	1	0	1	-4,580691	274,189712	315,88953	0
15.01.2021	09:58:49	0	22,605273	4,632231	2,262	3,7656	0,069	88,763	0	1013,78	6,7	8,7	8,6	1	1	1	1	1	1	1	1	1	0	1	-8,245243	274,161246	312,091917	0
15.01.2021	09:58:50	0	22,724248	4,858193	2,23275	339,7932	0,068	88,771	0	1013,78	6,7	8,7	8,6	1	1	1	1	1	1	1	1	1	0	1	-6,131078	274,19571	314,367185	0
15.01.2021	09:58:51	0	22,605273	4,067325	2,35425	5,6628	0,072	88,786	0	1013,72	6,7	8,7	8,6	1	1	1	1	1	1	1	1	1	0	1	-4,862579	274,141794	315,383677	0
15.01.2021	09:58:52	0	22,486297	2,71155	2,4645	9,7416	0,076	88,79	0	1013,86	6,7	8,7	8,6	1	1	1	1	1	1	1	1	1	0	1	-7,329105	274,19871	313,183184	0
15.01.2021	09:58:53	0	22,367322	4,067325	2,3925	29,178	0,066	88,799	0	1013,7	6,7	8,7	8,6	1	1	1	1	1	1	1	1	1	0	1	-2,677942	274,206211	317,869422	0
15.01.2021	09:58:54	0	22,605273	2,485587	2,35275	349,8336	0,075	88,801	0	1013,86	6,7	8,7	8,6	1	1	1	1	1	1	1	1	1	0	1	-6,483439	274,074611	313,449003	0
15.01.2021	09:58:55	0	22,486297	3,6154	2,21625	355,7772	0,077	88,815	0	1013,98	6,7	8,7	8,6	1	1	1	1	1	1	1	1	1	0	1	-5,355884	274,183716	315,086304	0
15.01.2021	09:58:56	0	22,486297	4,406268	2,1825	2,2968	0,078	88,799	0	1013,8	6,7	8,7	8,6	1	1	1	1	1	1	1	1	1	0	1	-5,778717	274,185214	314,670478	0
15.01.2021	09:58:57	0	22,843223	3,841362	2,1465	354,5748	0,072	88,792	0	1013,8	6,8	8,7	8,6	1	1	1	1	1	1	1	1	1	0	1	-9,161381	274,15077	311,126817	0
15.01.2021	09:58:58	0	22,962198	5,536081	2,1255	346,5288	0,072	88,801	0	1013,82	6,7	8,7	8,6	1	1	1	1	1	1	1	1	1	0	1	-3,100775	274,20321	317,432557	0
15.01.2021	09:58:59	0	22,843223	4,745212	2,12625	353,8728	0,071	88,802	0	1013,9	6,8	8,7	8,6	1	1	1	1	1	1	1	1	1	0	1	-7,399577	274,132823	312,80476	0
15.01.2021	09:59:00	0	22,724248	3,841362	2,196	355,8024	0,071	88,792	0	1013,82	6,7	8,7	8,6	1	1	1	1	1	1	1	1	1	0	1	-8,527132	274,024005	311,169083	0
15.01.2021	09:59:01	0	22,724248	3,841362	2,196	355,8024	0,071	88,792	0	1013,82	6,7	8,7	8,6	1	1	1	1	1	1	1	1	1	0	1	-6,412967	274,093995	313,609997	0
15.01.2021	09:59:02	0	22,724248	4,971175	2,32125	359,0568	0,078	88,801	0	1013,8	6,7	8,7	8,6	1	1	1	1	1	1	1	1	1	0	1	-7,047216	274,108919	313,045454	0
15.01.2021	09:59:03	0	22,724248	4,51925	2,3505	351,0324	0,073	88,81	0	1013,88	6,7	8,7	8,6	1	1	1	1	1	1	1	1	1	0	1	-7,188161	274,20021	313,331142	0
15.01.2021	09:59:04	0	22,962198	4,293287	2,367	0,4644	0,076	88,816	0	1013,78	6,7	8,7	8,6	1	1	1	1	1	1	1	1	1	0	1	-6,272023	274,119373	313,869482	0
15.01.2021	09:59:05	0	22,605273	4,745212	2,298	4,4496	0,076	88,81	0	1013,86	6,7	8,7	8,6	1	1	1	1	1	1	1	1	1	0	1	-8,879493	274,20021	311,63981	0
15.01.2021	09:59:06	0	22,724248	3,276456	2,14425	24,7032	0,075	88,811	0	1013,86	6,7	8,7	8,6	1	1	1	1	1	1	1	1	1	0	1	-5,778717	274,167235	314,586436	0
15.01.2021	09:59:07	0	22,724248	4,406268	2,202	2,0016	0,08	88,817	0	1013,88	6,7	8,7	8,6	1	1	1	1	1	1	1	1	1	0	1	-10,359408	274,040363	309,413151	0
15.01.2021	09:59:08	0	22,724248	4,51925	2,18775	15,7788	0,076	88,811	0	1013,84	6,7	8,7	8,6	1	1	1	1	1	1	1	1	1	0	1	-4,792107	274,164241	315,559048	0
15.01.2021	09:59:09	0	22,605273	4,293287	2,15175	4,4568	0,074	88,806	0	1014	6,7	8,7	8,6	1	1	1	1	1	1	1	1	1	0	1	-5,285412	274,0359	314,466318	0
15.01.2021	09:59:10	0	22,962198	3,841362	2,19	10,062	0,084	88,813	0	1013,84	6,7	8,7	8,6	1	1	1	1	1	1	1	1	1	0	1	-4,087385	274,093995	315,935578	0
15.01.2021	09:59:11	0	22,724248	3,389437	2,1315	17,2548	0,076	88,812	0	1013,9	6,7	8,7	8,6	1	1	1	1	1	1	1	1	1	0	1	-7,470049	274,20321	313,063283	0
15.01.2021	09:59:12	0	22,367322	2,824531	1,9755	17,2296	0,075	88,803	0	1013,72	6,7	8,7	8,6	1	1	1	1	1	1	1	1	1	0	1	-4,298802	274,064181	315,584944	0
15.01.2021	09:59:13	0	22,724248	3,389437	1,863	19,5336	0,072	88,817	0	1013,7	6,7	8,7	8,6	1	1	1	1	1	1	1	1	1	0	1	-2,60747	274,183716	317,834718	0
15.01.2021	09:59:14	0	22,962198	3,954344	1,89	7,1244	0,071	88,809	0	1013,84	6,7	8,7	8,6	1	1	1	1	1	1	1	1	1	0	1	-3,735025	274,164241	316,616131	0
15.01.2021	09:59:15	0	22,724248	3,954344	1,93575	15,7896	0,078	88,812	0	1013,9	6,7	8,7	8,6	1	1	1	1	1	1	1	1	1	0	1	-6,060606	274,091012	313,948424	0
15.01.2021	09:59:16	0	22,962198	5,084156	1,941	355,4028	0,078	88,816	0	1013,9	6,7	8,7	8,6	1	1	1	1	1	1	1	1	1	0	1	-4,510218	274,204711	316,030129	0
15.01.2021	09:59:17	0	23,081173	3,502419	1,953	7,866	0,076	88,814	0	1013,9	6,7	8,7	8,6	1	1	1	1	1	1	1	1	1	0	1	-7,540521	274,092503	312,475475	0
15.01.2021	09:59:18	0	22,962198	4,745212	2,02875	0,1152	0,077	88,825	0	1013,88	6,7	8,7	8,6	1	1	1	1	1	1	1	1	1	0	1	-6,342495	274,20321	314,190837	0
15.01.2021	09:59:19	0	22,843223	3,389437	1,9695	0	0,072	88,81	0	1013,62	6,7	8,7	8,6	1	1	1	1	1	1	1	1	1	0	1	-3,523608	274,053757	316,311473	0
15.01.2021	09:59:20	0	22,605273	3,050494	1,92075	358,7976	0,073	88,816	0	1013,9	6,7	8,7	8,6	1	1	1	1	1	1	1	1	1	0	1	-7,470049	274,186713	312,986154	0
15.01.2021	09:59:21	0	23,081173	4,632231	1,94325	3,7584	0,071	88,822	0	1013,96	6,8	8,7	8,6	1	1	1	1	1	1	1	1	1	0	1	-4,298802	274,07312	315,626682	0
15.01.2021	09:59:22	0	22,962198	2,71155	1,989	1,9116	0,074	88,833	0	1013,9	6,7	8,7	8,6	1	1	1	1	1	1	1	1	1	0	1	-5,919662	274,088029	314,075437	0
15.01.2021	09:59:23	0	22,843223	2,824531	2,04225	1,1664	0,077	88,822	0	1013,78	6,7	8,7	8,6	1	1	1	1	1	1	1	1	1	0	1	-3,875969	274,186713	316,580234	0
15.01.2021	09:59:24	0	22,843223	3,954344	2,0715	360	0,076	88,828	0	1013,82	6,7	8,7	8,6	1	1	1	1	1	1	1	1	1	0	1	-6,553911	274,153762	313,748273	0
15.01.2021	09:59:25	0	22,605273	4,858193	2,0565	8,2836	0,074	88,825	0	1013,94	6,8	8,7	8,6	1	1	1	1	1	1	1	1	1	0	1	-6,765328	274,19571	313,732936	0
15.01.2021	09:59:26	0	22,843223	2,937512	2,09325	3,7692	0,078	88,839	0	1013,98	6,8	8,7	8,6	1	1	1	1	1	1	1	1	1	0	1	-2,677942	274,053757	317,157139	0
15.01.2021	09:59:27	0	22,962198	5,4231	2,21475	355,3956	0,075	88,833	0	1013,76	6,7	8,7	8,6	1	1	1	1	1	1	1	1	1	0	1	-5,355884	274,19421	315,135367	0
15.01.2021	09:59:28	0	22,724248	3,954344	2,27925	2,3004	0,075	88,842	0	1013,88	6,7	8,7	8,6	1	1	1	1	1	1	1	1	1	0	1	-6,412967	274,204711	314,127381	0
15.01.2021	09:59:29	0	22,843223	4,632231	2,3265	8,6112	0,074	88,82	0	1013,96	6,7	8,7	8,6	1	1	1	1	1	1	1	1	1	0	1	-6,412967	274,085046	313,568204	0
15.01.2021	09:59:30	0	22,962198	2,485587	2,31675	9,3528	0,071	88,834	0	1013,86	6,7	8,7	8,6	1	1	1	1	1	1	1	1	1	0	1	-7,470049	274,052268	312,358082	0
15.01.2021	09:59:31	0	23,081173	3,276456	2,2335	12,1032	0,074	88,842	0	1013,88	6,7	8,7	8,6	1	1	1	1	1	1	1	1	1	0	1	-6,483439	274,107427	313,602258	0
15.01.2021	09:59:32	0	22,843223	3,163475	2,244	5,6952	0,08	88,834	0	1013,86	6,7	8,7	8,6	1	1	1	1	1	1	1	1	1	0	1	-4,298802	274,183716	316,143386	0
15.01.2021	09:59:33	0	22,724248	3,954344	2,18475	5,2236	0,075	88,841	0	1014,04	6,7	8,7	8,6	1	1	1	1	1	1	1	1	1	0	1	-10,077519	274,20321	310,455813	0
15.01.2021	09:59:34	0	22,962198	3,276456	2,0025	1,1808	0,072	88,826	0	1013,84	6,7	8,7	8,6	1	1	1	1	1	1	1	1	1	0	1	-10,782241	274,132823	309,422096	0
15.01.2021	09:59:35	0	22,724248	2,146644	1,88175	8,262	0,08	88,844	0	1013,92	6,7	8,7	8,6	1	1	1	1	1	1	1	1	1	0	1	-10,359408	274,028464	309,35762	0
15.01.2021	09:59:36	0	22,962198	4,51925	1,88625	7,1208	0,077	88,848	0	1013,86	6,7	8,7	8,6	1	1	1	1	1	1	1	1	1	0	1	-8,033827	274,170231	312,345327	0
15.01.2021	09:59:37	0	22,843223	4,067325	1,93125	1,9296	0,077	88,84	0	1013,84	6,7	8,7	8,6	1	1	1	1	1	1	1	1	1	0	1	-3,59408	274,20321	316,939252	0
15.01.2021	09:59:38	0	23,200148	3,163475	2,03475	355,8564	0,08	88,847	0	1013,88	6,7	8,7	8,6	1	1	1	1	1	1	1	1	1	0	1	-10,782241	274,135813	309,436067	0
15.01.2021	09:59:39	0	22,962198	2,598569	2,04525	343,926	0,082	88,847	0	1013,9	6,8	8,7	8,6	1	1	1	1	1	1	1	1	1	0	1	-5,919662	274,034413	313,825127	0
15.01.2021	09:59:40	0	23,081173	4,745212	2,05725	337,5936	0,074	88,846	0	1013,84	6,7	8,7	8,6	1	1	1	1	1	1	1	1	1	0	1	-6,8358	274,083555	313,138408	0
15.01.2021	09:59:41	0	22,843223	2,71155	2,02275	346,554	0,077	88,851	0	1013,66	6,7	8,7	8,6	1	1	1	1	1	1	1	1	1	0	1	-8,386187	274,19871	312,126101	0
15.01.2021	09:59:42	0	23,438098	3,389437	1,98525	360	0,074	88,833	0	1013,72	6,7	8,7	8,6	1	1	1	1	1	1	1	1	1	0	1	-6,553911	274,146281	313,713313	0
15.01.2021	09:59:43	0	22,962198	4,180306	2,04825	360	0,07	88,833	0	1013,9	6,7	8,7	8,6	1	1	1	1	1	1	1	1	1	0	1	-6,272023	274,06567	313,618678	0
15.01.2021	09:59:44	0	22,724248	3,502419	2,0595	0,4752	0,075	88,846	0	1013,68	6,7	8,7	8,6	1	1	1	1	1	1	1	1	1	0	1	-6,624383	274,122361	313,531079	0
15.01.2021	09:59:45	0	22,962198	3,841362	2,0025	8,2368	0,072	88,855	0	1013,78	6,7	8,7	8,6	1	1	1	1	1	1	1	1	1	0	1	-7,892882	274,225728	312,745755	0
15.01.2021	09:59:46	0	23,319123	4,406268	1,8375	353,2248	0,079	88,856	0	1013,96	6,7	8,7	8,6	1	1	1	1	1	1	1	1	1	0	1	-6,412967	274,180718	314,015209	0
15.01.2021	09:59:47	0	23,200148	4,51925	1,83075	7,5132	0,073	88,861	0	1013,78	6,7	8,7	8,6	1	1	1	1	1	1	1	1	1	0	1	-6,624383	274,215217	313,965093	0
15.01.2021	09:59:48	0	23,438098	4,51925	1,854	2,2896	0,077	88,858	0	1013,84	6,7	8,7	8,6	1	1	1	1	1	1	1	1	1	0	1	-7,540521	274,049291	312,273713	0
15.01.2021	09:59:49	0	23,081173	3,389437	2,043	9,7308	0,081	88,856	0	1013,8	6,7	8,7	8,6	1	1	1	1	1	1	1	1	1	0	1	-4,933051	274,06567	314,957649	0
15.01.2021	09:59:50	0	23,081173	4,632231	2,13	4,8348	0,082	88,855	0	1013,84	6,7	8,7	8,6	1	1	1	1	1	1	1	1	1	0	1	-5,708245	274,053757	314,126836	0
15.01.2021	09:59:51	0	23,438098	4,51925	2,05275	6,0588	0,081	88,858	0	1013,86	6,7	8,7	8,6	1	1	1	1	1	1	1	1	1	0	1	-12,05074	274,126844	308,125665	0
15.01.2021	09:59:52	0	22,962198	4,745212	1,983	352,4328	0,082	88,856	0	1013,88	6,7	8,7	8,6	1	1	1	1	1	1	1	1	1	0	1	-5,637773	274,209212	314,923626	0
15.01.2021	09:59:53	0	23,438098	4,971175	1,95225	5,6664	0,081	88,856	0	1013,82	6,7	8,7	8,6	1	1	1	1	1	1	1	1	1	0	1	-6,412967	274,076101	313,526435	0
15.01.2021	09:59:54	0	23,676049	3,728381	1,90875	360	0,078	88,834	0	1013,86	6,7	8,7	8,6	1	1	1	1	1	1	1	1	1	0	1	-6,412967	274,182217	314,022215	0
15.01.2021	09:59:55	0	23,319123	2,937512	1,89	9,3528	0,075	88,843	0	1013,78	6,7	8,7	8,6	1	1	1	1	1	1	1	1	1	0	1	-5,637773	274,034413	314,107015	0
15.01.2021	09:59:56	0	23,438098	4,51925	1,842	356,5584	0,085	88,861	0	1013,92	6,7	8,7	8,6	1	1	1	1	1	1	1	1	1	0	1	-3,523608	274,147777	316,750606	0
15.01.2021	09:59:57	0	23,081173	2,71155	1,81425	0,9324	0,078	88,839	0	1013,8	6,7	8,7	8,6	1	1	1	1	1	1	1	1	1	0	1	-3,946441	274,191211	316,530789	0
15.01.2021	09:59:58	0	23,557074	2,598569	1,8345	357,21	0,082	88,849	0	1013,82	6,8	8,7	8,6	1	1	1	1	1	1	1	1	1	0	1	-4,298802	274,135813	315,919506	0
15.01.2021	09:59:59	0	23,557074	4,51925	1,91625	355,0752	0,08	88,849	0	1013,82	6,7	8,7	8,6	1	1	1	1	1	1	1	1	1	0	1	-6,624383	274,032925	313,113464	0
15.01.2021	10:00:00	0	23,200148	3,163475	2,05425	0,8604	0,084	88,863	0	1013,92	6,7	8,7	8,6	1	1	1	1	1	1	1	1	1	0	1	-8,527132	274,038875	311,238484	0
15.01.2021	10:00:01	0	23,200148	3,163475	2,05425	0,8604	0,084	88,863	0	1013,92	6,7	8,7	8,6	1	1	1	1	1	1	1	1	1	0	1	-8,527132	274,038875	311,238484	0
15.01.2021	10:00:02	0	23,676049	3,276456	2,08725	355,3848	0,08	88,845	0	1013,72	6,7	8,7	8,6	1	1	1	1	1	1	1	1	1	0	1	-5,496829	274,080573	314,463455	0
15.01.2021	10:00:03	0	23,200148	2,485587	2,1645	349,8732	0,087	88,856	0	1013,86	6,7	8,7	8,6	1	1	1	1	1	1	1	1	1	0	1	-5,990134	274,044826	313,80326	0
15.01.2021	10:00:04	0	23,795024	4,745212	2,19075	352,4436	0,084	88,853	0	1013,98	6,7	8,7	8,6	1	1	1	1	1	1	1	1	1	0	1	-5,355884	274,132823	314,848453	0
15.01.2021	10:00:05	0	23,200148	3,276456	2,14875	355,0464	0,077	88,849	0	1013,78	6,7	8,7	8,6	1	1	1	1	1	1	1	1	1	0	1	-4,298802	274,044826	315,494592	0
15.01.2021	10:00:06	0	23,319123	3,954344	2,34525	359,172	0,078	88,845	0	1013,84	6,7	8,7	8,6	1	1	1	1	1	1	1	1	1	0	1	-6,906272	274,091012	313,102758	0
15.01.2021	10:00:07	0	23,081173	2,824531	2,58075	354,3264	0,079	88,867	0	1013,8	6,7	8,7	8,6	1	1	1	1	1	1	1	1	1	0	1	-5,567301	274,032925	314,170546	0
15.01.2021	10:00:08	0	23,319123	4,632231	2,51925	10,422	0,087	88,859	0	1013,96	6,8	8,7	8,6	1	1	1	1	1	1	1	1	1	0	1	-4,580691	274,164241	315,770465	0
15.01.2021	10:00:09	0	23,557074	3,276456	2,2335	360	0,075	88,863	0	1013,8	6,7	8,7	8,6	1	1	1	1	1	1	1	1	1	0	1	-3,735025	274,239252	316,966867	0
15.01.2021	10:00:10	0	23,319123	5,536081	2,13975	357,6384	0,083	88,872	0	1013,88	6,7	8,7	8,6	1	1	1	1	1	1	1	1	1	0	1	-8,315715	274,08952	311,686349	0
15.01.2021	10:00:11	0	22,962198	3,050494	2,20575	5,7924	0,088	88,856	0	1013,88	6,7	8,7	8,6	1	1	1	1	1	1	1	1	1	0	1	-5,778717	274,083555	314,19549	0
15.01.2021	10:00:12	0	23,200148	2,824531	2,50125	13,8996	0,079	88,865	0	1013,88	6,7	8,7	8,6	1	1	1	1	1	1	1	1	1	0	1	-6,8358	274,0359	312,91593	0
15.01.2021	10:00:13	0	23,319123	3,954344	2,5515	15,7752	0,083	88,862	0	1013,98	6,7	8,7	8,6	1	1	1	1	1	1	1	1	1	0	1	-7,610994	274,104441	312,460758	0
15.01.2021	10:00:14	0	23,200148	4,858193	2,4585	1,9224	0,082	88,871	0	1013,96	6,7	8,7	8,6	1	1	1	1	1	1	1	1	1	0	1	-6,624383	274,053757	313,210698	0
15.01.2021	10:00:15	0	23,676049	4,858193	2,37225	355,356	0,086	88,854	0	1013,84	6,7	8,7	8,6	1	1	1	1	1	1	1	1	1	0	1	-5,21494	274,170231	315,164213	0
15.01.2021	10:00:16	0	23,438098	3,276456	2,394	7,1352	0,079	88,874	0	1013,72	6,7	8,7	8,6	1	1	1	1	1	1	1	1	1	0	1	-4,298802	274,176223	316,10836	0
15.01.2021	10:00:17	0	23,081173	4,067325	2,409	11,7036	0,085	88,887	0	1013,96	6,7	8,7	8,6	1	1	1	1	1	1	1	1	1	0	1	-9,020437	274,212214	311,554999	0
15.01.2021	10:00:18	0	23,557074	4,406268	2,256	9,7272	0,084	88,881	0	1013,82	6,7	8,7	8,6	1	1	1	1	1	1	1	1	1	0	1	-4,580691	274,06865	315,323921	0
15.01.2021	10:00:19	0	23,438098	3,841362	2,0955	359,928	0,083	88,862	0	1013,76	6,7	8,7	8,6	1	1	1	1	1	1	1	1	1	0	1	-8,386187	274,216718	312,21031	0
15.01.2021	10:00:20	0	23,200148	4,632231	2,025	8,6076	0,085	88,877	0	1013,66	6,7	8,7	8,6	1	1	1	1	1	1	1	1	1	0	1	-4,862579	274,164241	315,488576	0
15.01.2021	10:00:21	0	23,081173	4,51925	2,07375	7,5096	0,089	88,877	0	1013,82	6,7	8,7	8,6	1	1	1	1	1	1	1	1	1	0	1	-5,567301	274,20171	314,959016	0
15.01.2021	10:00:22	0	23,676049	3,276456	2,097	6,1344	0,086	88,881	0	1013,7	6,7	8,7	8,6	1	1	1	1	1	1	1	1	1	0	1	-2,114165	274,079082	317,839157	0
15.01.2021	10:00:23	0	23,200148	3,389437	2,20875	7,884	0,087	88,886	0	1013,86	6,7	8,7	8,6	1	1	1	1	1	1	1	1	1	0	1	-9,654686	274,120867	310,493797	0
15.01.2021	10:00:24	0	23,200148	4,180306	2,2935	8,6112	0,085	88,887	0	1013,92	6,7	8,7	8,6	1	1	1	1	1	1	1	1	1	0	1	-1,973221	274,056734	317,875761	0
15.01.2021	10:00:25	0	23,319123	3,050494	2,29875	12,8592	0,084	88,881	0	1013,78	6,7	8,7	8,6	1	1	1	1	1	1	1	1	1	0	1	-3,382664	274,216718	317,213833	0
15.01.2021	10:00:26	0	23,438098	3,6154	2,316	16,8588	0,083	88,87	0	1013,88	6,7	8,7	8,6	1	1	1	1	1	1	1	1	1	0	1	-4,933051	274,093995	315,089912	0
15.01.2021	10:00:27	0	23,676049	4,971175	2,469	11,1852	0,085	88,851	0	1013,9	6,7	8,7	8,6	1	1	1	1	1	1	1	1	1	0	1	-5,567301	274,212214	315,008135	0
15.01.2021	10:00:28	0	23,438098	3,6154	2,81925	21,7584	0,082	88,87	0	1013,88	6,7	8,7	8,6	1	1	1	1	1	1	1	1	1	0	1	-9,372798	274,204711	311,16755	0
15.01.2021	10:00:29	0	23,438098	3,163475	3,249	18,828	0,085	88,87	0	1013,88	6,7	8,7	8,6	1	1	1	1	1	1	1	1	1	0	1	-3,59408	274,137308	316,631213	0
15.01.2021	10:00:30	0	23,319123	4,858193	3,681	15,0048	0,09	88,887	0	1013,94	6,7	8,7	8,6	1	1	1	1	1	1	1	1	1	0	1	-7,751938	274,20021	312,767365	0
15.01.2021	10:00:31	0	23,557074	3,163475	3,681	18,0756	0,084	88,863	0	1013,9	6,7	8,7	8,6	1	1	1	1	1	1	1	1	1	0	1	-12,05074	274,07163	307,867786	0
15.01.2021	10:00:32	0	23,438098	2,824531	3,68775	8,982	0,086	88,875	0	1013,86	6,7	8,7	8,6	1	1	1	1	1	1	1	1	1	0	1	-2,677942	274,186713	317,778261	0
15.01.2021	10:00:33	0	23,795024	3,050494	3,86175	7,128	0,082	88,854	0	1013,9	6,7	8,7	8,6	1	1	1	1	1	1	1	1	1	0	1	-5,84919	274,174725	314,55097	0
15.01.2021	10:00:34	0	22,943568	4,676236	3,7425	7,8624	0,078	88,867	0	1013,74	6,7	8,7	8,6	1	1	1	1	1	1	1	1	1	0	1	-4,510218	274,152266	315,784972	0
15.01.2021	10:00:35	0	22,71067	4,220015	3,72375	7,488	0,087	88,858	0	1013,88	6,7	8,7	8,6	1	1	1	1	1	1	1	1	1	0	1	-10,852713	274,04185	308,92679	0
15.01.2021	10:00:36	0	23,176563	2,737305	3,666	9,3636	0,084	88,867	0	1013,9	6,7	8,7	8,6	1	1	1	1	1	1	1	1	1	0	1	-9,020437	274,102948	311,044343	0
15.01.2021	10:00:37	0	23,060131	4,448118	3,5295	16,0956	0,087	88,853	0	1013,92	6,7	8,7	8,6	1	1	1	1	1	1	1	1	1	0	1	-10,782241	274,038875	308,983374	0
15.01.2021	10:00:38	0	23,293094	4,676223	3,47175	13,14	0,078	88,862	0	1013,92	6,7	8,7	8,6	1	1	1	1	1	1	1	1	1	0	1	-8,597604	274,122361	311,557859	0
15.01.2021	10:00:39	0	22,827265	4,220003	3,54225	5,67	0,086	88,856	0	1013,96	6,7	8,7	8,6	1	1	1	1	1	1	1	1	1	0	1	-6,20155	274,216718	314,394947	0
15.01.2021	10:00:40	0	22,710831	2,737298	3,44775	11,6892	0,086	88,852	0	1013,9	6,7	8,7	8,6	1	1	1	1	1	1	1	1	1	0	1	-7,047216	274,174725	313,352943	0
15.01.2021	10:00:41	0	22,827329	2,737296	3,1965	11,2068	0,082	88,859	0	1013,88	6,8	8,7	8,6	1	1	1	1	1	1	1	1	1	0	1	-9,302326	274,221223	311,315239	0
15.01.2021	10:00:42	0	23,060294	2,851348	2,97	18,0792	0,089	88,851	0	1013,92	6,7	8,7	8,6	1	1	1	1	1	1	1	1	1	0	1	-10,711769	274,219721	309,898772	0
15.01.2021	10:00:43	0	23,176793	4,4481	2,79525	14,292	0,083	88,852	0	1013,88	6,7	8,7	8,6	1	1	1	1	1	1	1	1	1	0	1	-7,047216	274,147777	313,226998	0
15.01.2021	10:00:44	0	22,943893	3,877828	2,74875	5,2272	0,091	88,861	0	1013,84	6,7	8,7	8,6	1	1	1	1	1	1	1	1	1	0	1	-3,735025	274,216718	316,861473	0
15.01.2021	10:00:45	0	23,176858	3,307557	2,808	8,2584	0,089	88,856	0	1013,84	6,7	8,7	8,6	1	1	1	1	1	1	1	1	1	0	1	-4,792107	274,058223	315,063826	0
15.01.2021	10:00:46	0	22,943958	3,079447	2,88975	6,426	0,09	88,858	0	1013,92	6,7	8,7	8,6	1	1	1	1	1	1	1	1	1	0	1	-4,792107	274,19421	315,699145	0
15.01.2021	10:00:47	0	23,293391	4,790248	2,82225	6,8004	0,081	88,847	0	1013,82	6,7	8,7	8,6	1	1	1	1	1	1	1	1	1	0	1	-4,298802	274,186713	316,157401	0
15.01.2021	10:00:48	0	22,944022	2,96539	2,7705	11,2032	0,093	88,853	0	1013,92	6,7	8,7	8,6	1	1	1	1	1	1	1	1	1	0	1	-4,792107	274,086537	315,196028	0
15.01.2021	10:00:49	0	22,944055	2,623228	2,71575	13,914	0,086	88,841	0	1013,94	6,7	8,7	8,6	1	1	1	1	1	1	1	1	1	0	1	-11,205074	274,038875	308,560541	0
15.01.2021	10:00:50	0	23,177022	2,965386	2,6625	7,5132	0,091	88,85	0	1013,86	6,7	8,7	8,6	1	1	1	1	1	1	1	1	1	0	1	-8,527132	274,083555	311,447076	0
15.01.2021	10:00:51	0	23,060587	3,307543	2,6415	7,0092	0,086	88,831	0	1013,86	6,7	8,7	8,6	1	1	1	1	1	1	1	1	1	0	1	-4,298802	274,168733	316,073351	0
15.01.2021	10:00:52	0	22,944152	4,676179	2,637	0,4824	0,082	88,839	0	1013,78	6,7	8,7	8,6	1	1	1	1	1	1	1	1	1	0	1	-3,171247	274,210713	317,39717	0
15.01.2021	10:00:53	0	23,410056	4,904282	2,61375	360	0,106	88,85	0	1014,06	6,7	8,7	8,6	1	1	1	1	1	1	1	1	1	0	1	-6,765328	274,113399	313,348268	0
15.01.2021	10:00:54	0	22,944217	2,623219	2,6475	359,1216	0,092	88,823	0	1013,86	6,7	8,7	8,6	1	1	1	1	1	1	1	1	1	0	1	-7,82241	274,049291	311,991824	0
15.01.2021	10:00:55	0	22,827781	2,395111	2,62425	358,8552	0,092	88,82	0	1013,92	6,7	8,7	8,6	1	1	1	1	1	1	1	1	1	0	1	-3,875969	274,40986	317,624719	0
15.01.2021	10:00:56	0	23,293687	3,079426	2,61375	356,5332	0,084	88,814	0	1013,7	6,7	8,7	8,6	1	1	1	1	1	1	1	1	1	0	1	-8,033827	274,144785	312,226407	0
15.01.2021	10:00:57	0	23,177252	4,105899	2,61075	360	0,086	88,819	0	1013,74	6,7	8,7	8,6	1	1	1	1	1	1	1	1	1	0	1	-0,775194	274,052268	319,052938	0
15.01.2021	10:00:58	0	23,410222	2,96537	2,553	359,5104	0,081	88,813	0	1013,7	6,7	8,7	8,6	1	1	1	1	1	1	1	1	1	0	1	-7,540521	274,06716	312,357134	0
15.01.2021	10:00:59	0	23,410255	3,649683	2,49675	352,7604	0,082	88,821	0	1013,78	6,7	8,7	8,6	1	1	1	1	1	1	1	1	1	0	1	-7,681466	274,092503	312,334531	0
15.01.2021	10:01:00	0	23,52679	3,193468	2,268	359,8308	0,089	88,801	0	1013,8	6,7	8,7	8,6	1	1	1	1	1	1	1	1	1	0	1	-4,862579	274,082064	315,104666	0
15.01.2021	10:01:01	0	23,52679	3,193468	2,268	359,8308	0,089	88,801	0	1013,8	6,7	8,7	8,6	1	1	1	1	1	1	1	1	1	0	1	-6,8358	274,177721	313,578366	0
15.01.2021	10:01:02	0	23,410354	4,448042	2,1645	356,1876	0,089	88,813	0	1013,6	6,7	8,7	8,6	1	1	1	1	1	1	1	1	1	0	1	-8,45666	274,215217	312,132817	0
15.01.2021	10:01:03	0	23,177448	3,877778	2,22375	1,5588	0,086	88,809	0	1013,94	6,8	8,7	8,6	1	1	1	1	1	1	1	1	1	0	1	-5,285412	274,170231	315,093741	0
15.01.2021	10:01:04	0	23,061011	2,737253	2,2905	3,0096	0,087	88,818	0	1013,8	6,7	8,7	8,6	1	1	1	1	1	1	1	1	1	0	1	-3,946441	274,038875	315,819174	0
15.01.2021	10:01:05	0	23,177514	3,649668	2,379	2,6388	0,09	88,8	0	1013,96	6,7	8,7	8,6	1	1	1	1	1	1	1	1	1	0	1	-4,439746	274,17922	315,981424	0
15.01.2021	10:01:06	0	23,061076	3,193458	2,379	0	0,091	88,801	0	1013,92	6,7	8,7	8,6	1	1	1	1	1	1	1	1	1	0	1	-8,879493	274,053757	310,955588	0
15.01.2021	10:01:07	0	22,944638	2,965352	2,277	358,0596	0,088	88,791	0	1013,8	6,7	8,7	8,6	1	1	1	1	1	1	1	1	1	0	1	-6,20155	274,119373	313,939954	0
15.01.2021	10:01:08	0	23,061141	3,307505	2,48775	1,656	0,089	88,8	0	1013,9	6,7	8,7	8,6	1	1	1	1	1	1	1	1	1	0	1	-9,654686	274,053757	310,180395	0
15.01.2021	10:01:09	0	23,294115	3,991814	2,74125	5,22	0,09	88,794	0	1013,82	6,7	8,7	8,6	1	1	1	1	1	1	1	1	1	0	1	-7,82241	274,07014	312,089158	0
15.01.2021	10:01:10	0	23,061206	3,535604	2,83575	5,6628	0,091	88,791	0	1014	6,7	8,7	8,6	1	1	1	1	1	1	1	1	1	0	1	-9,302326	274,158252	311,020842	0
15.01.2021	10:01:11	0	23,061239	4,562067	2,77125	4,8276	0,085	88,794	0	1013,88	6,7	8,7	8,6	1	1	1	1	1	1	1	1	1	0	1	-6,20155	274,215217	314,387926	0
15.01.2021	10:01:12	0	23,527156	4,676115	2,69625	0	0,088	88,78	0	1013,74	6,7	8,7	8,6	1	1	1	1	1	1	1	1	1	0	1	-7,540521	274,08952	312,461543	0
15.01.2021	10:01:13	0	23,061143	2,965339	2,63625	27,9648	0,089	88,801	0	1013,76	6,7	8,8	8,6	1	1	1	1	1	1	1	1	1	0	1	-9,866103	274,080573	310,09418	0
15.01.2021	10:01:14	0	23,061337	2,965337	2,652	27,2772	0,092	88,799	0	1013,9	6,7	8,7	8,6	1	1	1	1	1	1	1	1	1	0	1	-5,84919	274,040363	313,923369	0
15.01.2021	10:01:15	0	23,410784	4,904209	2,874	27,9684	0,093	88,793	0	1013,92	6,7	8,7	8,6	1	1	1	1	1	1	1	1	1	0	1	-8,949965	274,176223	311,457197	0
15.01.2021	10:01:16	0	23,177873	4,562052	2,8335	22,464	0,094	88,79	0	1014,02	6,7	8,7	8,6	1	1	1	1	1	1	1	1	1	0	1	-7,751938	274,180718	312,676238	0
15.01.2021	10:01:17	0	23,294378	3,079383	2,7255	17,2296	0,082	88,79	0	1013,78	6,8	8,7	8,6	1	1	1	1	1	1	1	1	1	0	1	-10,007047	274,053757	309,828034	0
15.01.2021	10:01:18	0	23,061467	4,447994	2,64675	20,2932	0,091	88,789	0	1013,92	6,8	8,7	8,6	1	1	1	1	1	1	1	1	1	0	1	-6,060606	274,153762	314,241578	0
15.01.2021	10:01:19	0	23,177972	3,649634	2,5515	17,2296	0,087	88,772	0	1013,92	6,7	8,7	8,6	1	1	1	1	1	1	1	1	1	0	1	-5,84919	274,23324	314,824582	0
15.01.2021	10:01:20	0	23,410949	3,877733	2,44125	19,8864	0,093	88,79	0	1013,84	6,7	8,7	8,6	1	1	1	1	1	1	1	1	1	0	1	-8,45666	274,173227	311,936497	0
15.01.2021	10:01:21	0	23,29451	4,676087	2,424	13,1652	0,088	88,785	0	1013,84	6,7	8,7	8,6	1	1	1	1	1	1	1	1	1	0	1	-5,637773	274,113399	314,475822	0
15.01.2021	10:01:22	0	23,294542	3,535576	2,583	10,4508	0,088	88,8	0	1013,82	6,7	8,7	8,6	1	1	1	1	1	1	1	1	1	0	1	-7,540521	274,216718	313,055976	0
15.01.2021	10:01:23	0	23,178102	3,193421	2,60475	350,3556	0,085	88,778	0	1013,8	6,8	8,7	8,6	1	1	1	1	1	1	1	1	1	0	1	-4,933051	274,174725	315,467108	0
15.01.2021	10:01:24	0	23,527554	4,105824	2,652	356,5152	0,095	88,794	0	1013,92	6,7	8,7	8,6	1	1	1	1	1	1	1	1	1	0	1	-6,765328	274,062691	313,111464	0
15.01.2021	10:01:25	0	23,527423	3,535568	2,72925	359,9208	0,087	88,787	0	1013,9	6,7	8,8	8,6	1	1	1	1	1	1	1	1	1	0	1	-5,144468	274,105934	314,934256	0
15.01.2021	10:01:26	0	23,1782	2,623162	2,6895	0	0,087	88,794	0	1013,92	6,7	8,7	8,6	1	1	1	1	1	1	1	1	1	0	1	-5,778717	274,061202	314,091121	0
15.01.2021	10:01:27	0	23,06176	3,079362	2,5965	1,1592	0,086	88,796	0	1013,94	6,7	8,7	8,6	1	1	1	1	1	1	1	1	1	0	1	-6,20155	274,032925	313,536297	0
15.01.2021	10:01:28	0	23,527687	5,018216	2,3655	354,3264	0,082	88,781	0	1013,86	6,8	8,7	8,6	1	1	1	1	1	1	1	1	1	0	1	-8,738548	274,099963	311,31229	0
15.01.2021	10:01:29	0	23,294772	2,851257	2,244	3,7728	0,085	88,789	0	1013,8	6,8	8,7	8,6	1	1	1	1	1	1	1	1	1	0	1	-0,775194	274,206211	319,77217	0
15.01.2021	10:01:30	0	23,411279	2,509105	2,21025	0,2124	0,085	88,798	0	1014,06	6,8	8,7	8,6	1	1	1	1	1	1	1	1	1	0	1	-4,22833	274,168733	316,143823	0
15.01.2021	10:01:31	0	23,06189	2,965303	2,13675	0,4788	0,087	88,779	0	1013,84	6,8	8,7	8,6	1	1	1	1	1	1	1	1	1	0	1	-3,24172	274,058223	316,614214	0
15.01.2021	10:01:32	0	23,411345	5,246302	1,97175	2,2968	0,085	88,787	0	1013,92	6,7	8,7	8,6	1	1	1	1	1	1	1	1	1	0	1	-4,933051	274,093995	315,089912	0
15.01.2021	10:01:33	0	23,061955	2,623149	1,9275	353,7828	0,087	88,772	0	1013,86	6,7	8,7	8,6	1	1	1	1	1	1	1	1	1	0	1	-4,721635	274,08952	315,280429	0
15.01.2021	10:01:34	0	23,294936	3,991747	1,9215	12,4596	0,089	88,787	0	1013,88	6,7	8,7	8,6	1	1	1	1	1	1	1	1	1	0	1	-5,567301	274,052268	314,260831	0
15.01.2021	10:01:35	0	23,527919	4,676043	1,941	4,446	0,09	88,776	0	1013,96	6,7	8,7	8,6	1	1	1	1	1	1	1	1	1	0	1	-8,174771	274,180718	312,253405	0
15.01.2021	10:01:36	0	23,411477	2,623144	1,8435	5,2128	0,083	88,781	0	1013,8	6,7	8,7	8,6	1	1	1	1	1	1	1	1	1	0	1	-3,312192	274,156756	317,003981	0
15.01.2021	10:01:37	0	23,41151	2,965291	1,869	360	0,087	88,767	0	1013,84	6,7	8,7	8,6	1	1	1	1	1	1	1	1	1	0	1	-3,100775	274,261812	317,70666	0
15.01.2021	10:01:38	0	23,644494	4,904132	1,98975	351,0864	0,091	88,774	0	1014	6,8	8,7	8,6	1	1	1	1	1	1	1	1	1	0	1	-10,007047	274,171729	310,379107	0
15.01.2021	10:01:39	0	23,178625	2,623139	2,06325	10,4508	0,091	88,791	0	1013,76	6,7	8,7	8,6	1	1	1	1	1	1	1	1	1	0	1	-6,20155	274,222724	314,423037	0
15.01.2021	10:01:40	0	23,411609	2,851219	2,211	4,4388	0,091	88,777	0	1013,82	6,7	8,7	8,7	1	1	1	1	1	1	1	1	1	0	1	-7,82241	274,189712	312,64781	0
15.01.2021	10:01:41	0	23,761069	4,105777	2,38125	12,8484	0,079	88,785	0	1013,8	6,7	8,7	8,6	1	1	1	1	1	1	1	1	1	0	1	-5,990134	274,116386	314,137414	0
15.01.2021	10:01:42	0	23,178723	2,965281	2,45025	7,506	0,088	88,779	0	1013,8	6,7	8,7	8,6	1	1	1	1	1	1	1	1	1	0	1	-7,188161	274,055245	312,653871	0
15.01.2021	10:01:43	0	23,178593	4,447919	2,3715	6,4368	0,091	88,787	0	1013,98	6,7	8,8	8,6	1	1	1	1	1	1	1	1	1	0	1	-5,919662	274,164241	314,431494	0
15.01.2021	10:01:44	0	23,411741	4,676014	2,469	5,2128	0,087	88,79	0	1013,96	6,7	8,7	8,6	1	1	1	1	1	1	1	1	1	0	1	-2,114165	274,062691	317,762627	0
15.01.2021	10:01:45	0	23,295134	2,851226	2,592	19,5264	0,091	88,785	0	1013,92	6,7	8,8	8,6	1	1	1	1	1	1	1	1	1	0	1	-9,725159	274,213715	310,857297	0
15.01.2021	10:01:46	0	23,528283	3,193371	2,7255	19,1556	0,087	88,789	0	1014,02	6,7	8,7	8,6	1	1	1	1	1	1	1	1	1	0	1	-4,087385	274,111906	316,019234	0
15.01.2021	10:01:47	0	23,295363	4,105736	2,694	15,0372	0,089	88,797	0	1013,92	6,7	8,7	8,7	1	1	1	1	1	1	1	1	1	0	1	-8,80902	274,215217	311,780456	0
15.01.2021	10:01:48	0	23,178919	3,079318	2,76	13,1544	0,089	88,79	0	1013,92	6,7	8,7	8,6	1	1	1	1	1	1	1	1	1	0	1	-6,20155	274,228733	314,451139	0
15.01.2021	10:01:49	0	23,64486	3,991706	3,07725	24,714	0,087	88,807	0	1013,92	6,7	8,7	8,6	1	1	1	1	1	1	1	1	1	0	1	-6,906272	274,191211	313,570958	0
15.01.2021	10:01:50	0	23,295461	3,649557	3,31275	11,718	0,092	88,792	0	1013,84	6,8	8,7	8,6	1	1	1	1	1	1	1	1	1	0	1	-2,889359	274,061202	316,98048	0
15.01.2021	10:01:51	0	23,295494	3,079312	3,444	11,7144	0,087	88,822	0	1013,86	6,8	8,7	8,6	1	1	1	1	1	1	1	1	1	0	1	-5,637773	274,046314	314,162567	0
15.01.2021	10:01:52	0	22,946094	2,851213	3,6465	16,4772	0,092	88,818	0	1013,96	6,7	8,7	8,6	1	1	1	1	1	1	1	1	1	0	1	-10,077519	274,147777	310,196695	0
15.01.2021	10:01:53	0	23,29556	4,447889	3,7095	17,2188	0,086	88,798	0	1014,04	6,8	8,7	8,6	1	1	1	1	1	1	1	1	1	0	1	-4,439746	274,053757	315,395335	0
15.01.2021	10:01:54	0	23,295592	2,737161	3,597	16,1064	0,089	88,815	0	1013,98	6,7	8,7	8,6	1	1	1	1	1	1	1	1	1	0	1	-4,792107	274,215217	315,797369	0
15.01.2021	10:01:55	0	23,528581	4,904076	3,5295	19,8972	0,089	88,811	0	1013,96	6,7	8,7	8,6	1	1	1	1	1	1	1	1	1	0	1	-5,355884	274,098471	314,687984	0
15.01.2021	10:01:56	0	23,295658	4,44788	3,312	11,196	0,083	88,815	0	1013,74	6,7	8,7	8,6	1	1	1	1	1	1	1	1	1	0	1	-6,412967	274,062691	313,463825	0
15.01.2021	10:01:57	0	23,645126	4,447877	3,219	13,1508	0,09	88,824	0	1013,98	6,7	8,7	8,6	1	1	1	1	1	1	1	1	1	0	1	-11,205074	274,189712	309,265146	0
15.01.2021	10:01:58	0	23,761472	4,67597	3,2745	2,6532	0,082	88,808	0	1013,82	6,8	8,8	8,6	1	1	1	1	1	1	1	1	1	0	1	-5,567301	274,128339	314,616086	0
15.01.2021	10:01:59	0	23,295756	2,737151	3,4605	2,628	0,086	88,826	0	1013,94	6,8	8,7	8,6	1	1	1	1	1	1	1	1	1	0	1	-3,946441	274,058223	315,909492	0
15.01.2021	10:02:00	0	23,295822	3,64953	3,30525	0,8784	0,089	88,801	0	1013,84	6,8	8,7	8,6	1	1	1	1	1	1	1	1	1	0	1	-3,735025	274,123856	316,427418	0
15.01.2021	10:02:01	0	23,295822	3,64953	3,30525	0,8784	0,089	88,801	0	1013,84	6,8	8,7	8,6	1	1	1	1	1	1	1	1	1	0	1	-3,523608	274,218219	317,079911	0
15.01.2021	10:02:02	0	23,295854	4,333814	3,35925	2,304	0,087	88,819	0	1013,92	6,7	8,7	8,6	1	1	1	1	1	1	1	1	1	0	1	-11,627907	274,206211	308,919457	0
15.01.2021	10:02:03	0	23,412367	2,509049	3,26625	1,9152	0,088	88,802	0	1013,94	6,7	8,7	8,6	1	1	1	1	1	1	1	1	1	0	1	-5,84919	274,152266	314,446001	0
15.01.2021	10:02:04	0	23,528879	3,30738	3,07875	0,1224	0,089	88,811	0	1013,92	6,8	8,7	8,6	1	1	1	1	1	1	1	1	1	0	1	-3,664553	274,206211	316,882812	0
15.01.2021	10:02:05	0	23,528747	3,421425	3,01275	1,0008	0,092	88,812	0	1013,72	6,7	8,8	8,6	1	1	1	1	1	1	1	1	1	0	1	-4,792107	274,171729	315,594048	0
15.01.2021	10:02:06	0	23,412301	4,219755	3,06675	357,6744	0,093	88,804	0	1013,84	6,7	8,8	8,6	1	1	1	1	1	1	1	1	1	0	1	-5,073996	274,052268	314,754136	0
15.01.2021	10:02:07	0	23,412498	2,73712	3,261	3,762	0,093	88,814	0	1013,86	6,8	8,7	8,7	1	1	1	1	1	1	1	1	1	0	1	-6,342495	274,062691	313,534297	0
15.01.2021	10:02:08	0	23,645492	3,193324	3,4665	23,2092	0,091	88,803	0	1013,88	6,7	8,7	8,6	1	1	1	1	1	1	1	1	1	0	1	-3,875969	274,135813	316,342339	0
15.01.2021	10:02:09	0	23,412564	2,965227	3,4035	9,7272	0,092	88,786	0	1013,82	6,8	8,7	8,6	1	1	1	1	1	1	1	1	1	0	1	-5,426357	274,098471	314,617512	0
15.01.2021	10:02:10	0	23,296116	4,333791	3,279	20,2752	0,089	88,774	0	1014,02	6,8	8,7	8,6	1	1	1	1	1	1	1	1	1	0	1	-5,144468	274,219721	315,466073	0
15.01.2021	10:02:11	0	23,645591	4,219741	3,2715	24,3324	0,084	88,784	0	1013,84	6,7	8,7	8,6	1	1	1	1	1	1	1	1	1	0	1	-6,624383	274,212214	313,951053	0
15.01.2021	10:02:12	0	23,296182	4,219738	3,33975	23,9688	0,087	88,796	0	1013,96	6,7	8,7	8,6	1	1	1	1	1	1	1	1	1	0	1	-5,778717	274,210713	314,7897	0
15.01.2021	10:02:13	0	23,412532	4,675923	3,348	0	0,092	88,787	0	1013,88	6,8	8,8	8,6	1	1	1	1	1	1	1	1	1	0	1	-3,312192	274,215217	317,277285	0
15.01.2021	10:02:14	0	23,762172	5,01806	3,41925	5,6592	0,09	88,794	0	1013,88	6,8	8,7	8,6	1	1	1	1	1	1	1	1	1	0	1	-10,782241	274,155259	309,526937	0
15.01.2021	10:02:15	0	23,29628	3,763543	3,4545	7,1352	0,09	88,79	0	1013,88	6,8	8,7	8,6	1	1	1	1	1	1	1	1	1	0	1	-4,298802	274,158252	316,024366	0
15.01.2021	10:02:16	0	23,412794	3,4214	3,37275	3,024	0,083	88,785	0	1013,84	6,8	8,7	8,6	1	1	1	1	1	1	1	1	1	0	1	-3,523608	274,218219	317,079911	0
15.01.2021	10:02:17	0	23,412827	4,219724	3,29775	7,8732	0,091	88,783	0	1014	6,8	8,7	8,6	1	1	1	1	1	1	1	1	1	0	1	-12,191684	274,191211	308,285546	0
15.01.2021	10:02:18	0	23,412696	2,851163	3,0225	353,7108	0,091	88,809	0	1014,2	6,8	8,8	8,6	1	1	1	1	1	1	1	1	1	0	1	-7,470049	274,218219	313,13347	0
15.01.2021	10:02:19	0	23,762339	3,307347	2,74275	356,5944	0,085	88,79	0	1013,9	6,8	8,7	8,6	1	1	1	1	1	1	1	1	1	0	1	-4,721635	274,058223	315,134299	0
15.01.2021	10:02:20	0	23,64589	5,132086	2,4795	359,4312	0,09	88,763	0	1013,84	6,8	8,7	8,6	1	1	1	1	1	1	1	1	1	0	1	-4,22833	274,165738	316,129824	0
15.01.2021	10:02:21	0	23,529441	3,079268	2,32275	359,0712	0,086	88,784	0	1013,98	6,7	8,7	8,5	1	1	1	1	1	1	1	1	1	0	1	-3,805497	274,19571	316,692767	0
15.01.2021	10:02:22	0	23,412992	3,079248	2,334	12,834	0,087	88,788	0	1013,88	6,7	8,7	8,6	1	1	1	1	1	1	1	1	1	0	1	-3,735025	274,04185	316,044479	0
15.01.2021	10:02:23	0	23,645824	4,219707	2,51175	9,3348	0,084	88,779	0	1013,8	6,7	8,8	8,6	1	1	1	1	1	1	1	1	1	0	1	-5,355884	274,082064	314,611361	0
15.01.2021	10:02:24	0	23,296411	3,079244	2,66625	27,9792	0,089	88,786	0	1013,92	6,8	8,8	8,6	1	1	1	1	1	1	1	1	1	0	1	-6,412967	274,107427	313,67273	0
15.01.2021	10:02:25	0	23,529573	4,219701	2,84325	3,0168	0,09	88,788	0	1013,96	6,7	8,7	8,6	1	1	1	1	1	1	1	1	1	0	1	-5,708245	274,219721	314,902296	0
15.01.2021	10:02:26	0	23,645924	3,991607	2,85	2,2932	0,078	88,773	0	1013,96	6,7	8,8	8,6	1	1	1	1	1	1	1	1	1	0	1	-8,527132	274,183716	311,915056	0
15.01.2021	10:02:27	0	23,413156	3,877535	2,83275	0,864	0,091	88,774	0	1013,82	6,8	8,7	8,7	1	1	1	1	1	1	1	1	1	0	1	-4,510218	274,131328	315,687135	0
15.01.2021	10:02:28	0	23,529672	3,193281	2,85975	3,0312	0,089	88,787	0	1013,88	6,8	8,7	8,6	1	1	1	1	1	1	1	1	1	0	1	-4,439746	274,062691	315,437045	0
15.01.2021	10:02:29	0	23,296738	3,991599	2,83425	7,1208	0,089	88,777	0	1013,9	6,7	8,7	8,6	1	1	1	1	1	1	1	1	1	0	1	-7,188161	274,234743	313,49264	0
15.01.2021	10:02:30	0	23,646222	4,561851	2,6865	15,1128	0,083	88,772	0	1013,84	6,8	8,7	8,5	1	1	1	1	1	1	1	1	1	0	1	-8,245243	274,114893	311,875328	0
15.01.2021	10:02:31	0	23,529606	3,079229	2,649	3,4884	0,086	88,779	0	1013,86	6,8	8,8	8,6	1	1	1	1	1	1	1	1	1	0	1	-6,060606	274,212214	314,51483	0
15.01.2021	10:02:32	0	23,41332	2,737091	2,80425	10,8036	0,09	88,785	0	1013,9	6,8	8,7	8,6	1	1	1	1	1	1	1	1	1	0	1	-8,245243	274,062691	311,631549	0
15.01.2021	10:02:33	0	23,762806	2,851134	2,77725	9,36	0,086	88,784	0	1014	6,8	8,7	8,6	1	1	1	1	1	1	1	1	1	0	1	-6,20155	274,08952	313,800514	0
15.01.2021	10:02:34	0	23,646189	2,737087	2,6655	357,624	0,089	88,786	0	1013,9	6,8	8,8	8,6	1	1	1	1	1	1	1	1	1	0	1	-7,258633	274,131328	312,938721	0
15.01.2021	10:02:35	0	23,879357	2,737085	2,59575	358,7076	0,085	88,796	0	1013,94	6,8	8,7	8,6	1	1	1	1	1	1	1	1	1	0	1	-6,553911	274,221223	314,063653	0
15.01.2021	10:02:36	0	23,879391	4,105625	2,51925	0	0,086	88,785	0	1013,98	6,8	8,7	8,6	1	1	1	1	1	1	1	1	1	0	1	-4,651163	274,126844	315,525242	0
15.01.2021	10:02:37	0	23,413484	2,737065	2,406	7,506	0,081	88,778	0	1013,78	6,7	8,7	8,7	1	1	1	1	1	1	1	1	1	0	1	-10,852713	274,210713	309,715704	0
15.01.2021	10:02:38	0	23,762972	5,131993	2,26425	6,0444	0,087	88,792	0	1013,92	6,8	8,7	8,7	1	1	1	1	1	1	1	1	1	0	1	-8,668076	274,055245	311,173955	0
15.01.2021	10:02:39	0	23,41355	2,623033	2,217	358,3944	0,083	88,796	0	1013,68	6,8	8,7	8,6	1	1	1	1	1	1	1	1	1	0	1	-8,245243	274,180718	312,182933	0
15.01.2021	10:02:40	0	23,297097	2,623015	2,3205	4,0788	0,091	88,804	0	1013,96	6,8	8,7	8,7	1	1	1	1	1	1	1	1	1	0	1	-5,990134	274,107427	314,095563	0
15.01.2021	10:02:41	0	23,529936	2,851119	2,42775	354,6684	0,087	88,797	0	1013,84	6,8	8,8	8,6	1	1	1	1	1	1	1	1	1	0	1	-4,369274	274,07312	315,55621	0
15.01.2021	10:02:42	0	23,297162	2,737072	2,4495	3,3876	0,088	88,788	0	1013,94	6,8	8,7	8,6	1	1	1	1	1	1	1	1	1	0	1	-6,624383	274,165738	313,733771	0
15.01.2021	10:02:43	0	23,530167	2,737087	2,4	8,2548	0,082	88,792	0	1013,88	6,8	8,7	8,5	1	1	1	1	1	1	1	1	1	0	1	-6,906272	274,224226	313,72534	0
15.01.2021	10:02:44	0	23,763172	2,50898	2,2665	17,676	0,087	88,805	0	1013,92	6,8	8,7	8,6	1	1	1	1	1	1	1	1	1	0	1	-3,382664	274,105934	316,69606	0
15.01.2021	10:02:45	0	23,413583	3,763467	2,15625	11,7	0,093	88,802	0	1013,86	6,8	8,8	8,6	1	1	1	1	1	1	1	1	1	0	1	-6,694856	274,216718	313,901642	0
15.01.2021	10:02:46	0	23,413779	3,877509	2,31825	10,4508	0,087	88,811	0	1013,98	6,7	8,7	8,6	1	1	1	1	1	1	1	1	1	0	1	-8,104299	274,043338	311,682149	0
15.01.2021	10:02:47	0	23,530299	5,017949	2,3535	13,1724	0,085	88,793	0	1013,92	6,7	8,7	8,6	1	1	1	1	1	1	1	1	1	0	1	-9,372798	274,164241	310,978358	0
15.01.2021	10:02:48	0	23,530332	4,903901	2,4885	7,8624	0,087	88,793	0	1013,98	6,8	8,7	8,6	1	1	1	1	1	1	1	1	1	0	1	-6,483439	274,227231	314,162224	0
15.01.2021	10:02:49	0	23,646852	4,789854	2,51625	9,3636	0,084	88,795	0	1013,84	6,8	8,7	8,6	1	1	1	1	1	1	1	1	1	0	1	-11,346018	274,19421	309,145233	0
15.01.2021	10:02:50	0	23,763206	2,851102	2,2965	358,3656	0,087	88,803	0	1013,94	6,8	8,8	8,6	1	1	1	1	1	1	1	1	1	0	1	-8,386187	274,111906	311,720432	0
15.01.2021	10:02:51	0	23,646918	3,877496	2,271	10,8072	0,09	88,809	0	1013,96	6,8	8,7	8,6	1	1	1	1	1	1	1	1	1	0	1	-4,721635	274,212214	315,853801	0
15.01.2021	10:02:52	0	23,646785	3,193229	2,259	9,36	0,083	88,8	0	1013,84	6,7	8,8	8,6	1	1	1	1	1	1	1	1	1	0	1	-5,285412	274,07163	314,633114	0
15.01.2021	10:02:53	0	23,530497	2,622992	2,13	17,676	0,084	88,864	0	1013,86	6,8	8,7	8,7	1	1	1	1	1	1	1	1	1	0	1	-4,651163	274,158252	315,672005	0
15.01.2021	10:02:54	0	23,763505	4,789838	2,19075	9,3672	0,09	88,778	0	1013,82	6,8	8,7	8,6	1	1	1	1	1	1	1	1	1	0	1	-7,047216	274,210713	313,521201	0
15.01.2021	10:02:55	0	23,763538	3,079179	2,16375	15,0984	0,079	88,792	0	1013,84	6,8	8,7	8,6	1	1	1	1	1	1	1	1	1	0	1	-6,272023	274,11788	313,862503	0
15.01.2021	10:02:56	0	23,647084	3,877483	2,18775	4,0788	0,087	88,814	0	1013,84	6,8	8,7	8,6	1	1	1	1	1	1	1	1	1	0	1	-7,047216	274,108919	313,045454	0
15.01.2021	10:02:57	0	23,530628	3,079175	2,24925	14,2992	0,084	88,8	0	1013,94	6,8	8,7	8,6	1	1	1	1	1	1	1	1	1	0	1	-9,44327	274,06716	310,454386	0
15.01.2021	10:02:58	0	23,880127	3,763434	2,4735	1,9152	0,086	88,807	0	1014	6,8	8,7	8,6	1	1	1	1	1	1	1	1	1	0	1	-5,073996	274,185214	315,375199	0
15.01.2021	10:02:59	0	23,647017	4,105561	2,667	4,0932	0,086	88,807	0	1013,9	6,8	8,8	8,6	1	1	1	1	1	1	1	1	1	0	1	-8,668076	274,108919	311,424594	0
15.01.2021	10:03:00	0	23,763738	3,307253	2,634	6,4188	0,082	88,793	0	1013,8	6,8	8,7	8,6	1	1	1	1	1	1	1	1	1	0	1	-4,721635	274,209212	315,839764	0
15.01.2021	10:03:01	0	23,763738	3,307253	2,634	6,4188	0,082	88,793	0	1013,8	6,8	8,7	8,6	1	1	1	1	1	1	1	1	1	0	1	-9,161381	274,101456	310,896428	0
15.01.2021	10:03:02	0	23,530793	3,193208	2,33775	12,9312	0,091	88,8	0	1013,94	6,7	8,7	8,6	1	1	1	1	1	1	1	1	1	0	1	-7,610994	274,167235	312,754159	0
15.01.2021	10:03:03	0	23,880294	2,737034	2,29275	4,4568	0,093	88,799	0	1013,96	6,7	8,7	8,6	1	1	1	1	1	1	1	1	1	0	1	-10,218464	274,236246	310,469367	0
15.01.2021	10:03:04	0	23,647348	4,219565	2,4855	359,4744	0,087	88,781	0	1013,86	6,7	8,7	8,7	1	1	1	1	1	1	1	1	1	0	1	-10,218464	274,152266	310,076727	0
15.01.2021	10:03:05	0	23,763871	3,421308	2,47875	357,6312	0,087	88,803	0	1013,8	6,8	8,7	8,5	1	1	1	1	1	1	1	1	1	0	1	-9,161381	274,062691	310,71541	0
15.01.2021	10:03:06	0	23,880394	3,1932	2,43	359,8632	0,082	88,798	0	1013,82	6,8	8,7	8,6	1	1	1	1	1	1	1	1	1	0	1	-5,144468	274,224226	315,487144	0
15.01.2021	10:03:07	0	23,647447	2,851069	2,29575	356,2236	0,09	88,801	0	1013,86	6,7	8,7	8,6	1	1	1	1	1	1	1	1	1	0	1	-5,003524	274,167235	315,36163	0
15.01.2021	10:03:08	0	23,763971	4,447665	2,19075	353,2428	0,089	88,807	0	1013,72	6,8	8,7	8,6	1	1	1	1	1	1	1	1	1	0	1	-8,104299	274,237749	312,590562	0
15.01.2021	10:03:09	0	23,531023	2,851065	2,24775	349,452	0,087	88,802	0	1013,92	6,8	8,7	8,6	1	1	1	1	1	1	1	1	1	0	1	-4,862579	274,192711	315,621661	0
15.01.2021	10:03:10	0	23,764037	2,622978	2,31825	358,0704	0,085	88,81	0	1013,96	6,8	8,7	8,6	1	1	1	1	1	1	1	1	1	0	1	-4,721635	274,062691	315,155157	0
15.01.2021	10:03:11	0	24,113542	2,851079	2,14575	10,4292	0,087	88,811	0	1013,92	6,8	8,7	8,5	1	1	1	1	1	1	1	1	1	0	1	-4,298802	274,114893	315,82177	0
15.01.2021	10:03:12	0	23,764103	2,737034	1,9455	359,1108	0,081	88,808	0	1013,8	6,7	8,7	8,5	1	1	1	1	1	1	1	1	1	0	1	-2,677942	274,111906	317,428677	0
15.01.2021	10:03:13	0	24,2301	4,675706	1,88025	356,4324	0,089	88,798	0	1013,78	6,8	8,7	8,7	1	1	1	1	1	1	1	1	1	0	1	-6,131078	274,180718	314,297097	0
15.01.2021	10:03:14	0	23,880494	3,307244	1,85175	360	0,088	88,804	0	1013,86	6,8	8,8	8,5	1	1	1	1	1	1	1	1	1	0	1	-6,553911	274,227231	314,091752	0
15.01.2021	10:03:15	0	23,880527	2,965096	1,728	353,9088	0,089	88,816	0	1013,92	6,8	8,8	8,6	1	1	1	1	1	1	1	1	1	0	1	-10,641297	274,213715	309,941159	0
15.01.2021	10:03:16	0	23,997051	3,877431	1,55475	347,976	0,085	88,825	0	1013,88	6,8	8,8	8,6	1	1	1	1	1	1	1	1	1	0	1	-3,664553	274,155259	316,644625	0
15.01.2021	10:03:17	0	23,997253	3,535302	1,55925	353,1312	0,089	88,813	0	1013,9	6,7	8,7	8,6	1	1	1	1	1	1	1	1	1	0	1	-5,919662	274,06567	313,971039	0
15.01.2021	10:03:18	0	23,764303	2,965072	1,61175	356,8896	0,083	88,803	0	1013,92	6,8	8,7	8,7	1	1	1	1	1	1	1	1	1	0	1	-7,681466	274,107427	312,404231	0
15.01.2021	10:03:19	0	23,99732	3,193172	1,65225	3,0132	0,08	88,81	0	1013,88	6,8	8,7	8,6	1	1	1	1	1	1	1	1	1	0	1	-3,523608	274,224226	317,108004	0
15.01.2021	10:03:20	0	23,764203	3,079128	1,7475	6,4368	0,08	88,814	0	1013,92	6,8	8,8	8,6	1	1	1	1	1	1	1	1	1	0	1	-7,329105	274,099963	312,721733	0
15.01.2021	10:03:21	0	23,764236	2,851025	1,845	360	0,088	88,83	0	1014,04	6,8	8,8	8,7	1	1	1	1	1	1	1	1	1	0	1	-7,047216	274,076101	312,892185	0
15.01.2021	10:03:22	0	23,764435	4,675706	1,93875	3,7764	0,085	88,806	0	1013,9	6,8	8,7	8,6	1	1	1	1	1	1	1	1	1	0	1	-13,460183	274,06865	306,444429	0
15.01.2021	10:03:23	0	24,113777	4,561662	2,0745	9,7452	0,087	88,832	0	1013,96	6,8	8,8	8,6	1	1	1	1	1	1	1	1	1	0	1	-6,483439	274,134318	313,727883	0
15.01.2021	10:03:24	0	23,764502	3,535307	2,28525	9,7344	0,086	88,814	0	1013,72	6,7	8,7	8,5	1	1	1	1	1	1	1	1	1	0	1	-7,82241	274,088029	312,172689	0
15.01.2021	10:03:25	0	23,648042	3,19314	2,42175	5,22	0,086	88,835	0	1013,96	6,8	8,7	8,7	1	1	1	1	1	1	1	1	1	0	1	-5,073996	274,047803	314,733291	0
15.01.2021	10:03:26	0	24,113878	3,877381	2,63325	12,096	0,082	88,821	0	1013,94	6,8	8,8	8,7	1	1	1	1	1	1	1	1	1	0	1	-3,453136	274,095487	316,576795	0
15.01.2021	10:03:27	0	23,99742	3,079113	2,7945	15,7896	0,087	88,819	0	1014,04	6,8	8,8	8,6	1	1	1	1	1	1	1	1	1	0	1	-9,725159	274,113399	310,388437	0
15.01.2021	10:03:28	0	23,880961	3,535276	2,8455	8,7264	0,085	88,818	0	1013,96	6,8	8,8	8,6	1	1	1	1	1	1	1	1	1	0	1	-3,664553	274,212214	316,910884	0
15.01.2021	10:03:29	0	23,997655	2,851027	2,96325	14,6412	0,09	88,836	0	1013,98	6,8	8,7	8,6	1	1	1	1	1	1	1	1	1	0	1	-9,866103	274,062691	310,010689	0
15.01.2021	10:03:30	0	23,997688	4,903763	3,045	1,9224	0,093	88,833	0	1013,9	6,8	8,7	8,6	1	1	1	1	1	1	1	1	1	0	1	-12,05074	274,183716	308,391448	0
15.01.2021	10:03:31	0	23,648075	4,333555	3,099	1,9224	0,088	88,831	0	1013,92	6,8	8,8	8,6	1	1	1	1	1	1	1	1	1	0	1	-6,20155	274,174725	314,198609	0
15.01.2021	10:03:32	0	23,764767	4,903727	3,0915	3,7728	0,091	88,828	0	1013,88	6,8	8,7	8,7	1	1	1	1	1	1	1	1	1	0	1	-6,624383	274,237749	314,070477	0
15.01.2021	10:03:33	0	23,7648	2,736979	3,50175	3,762	0,087	88,834	0	1013,84	6,8	8,7	8,6	1	1	1	1	1	1	1	1	1	0	1	-6,272023	274,170231	314,107131	0
15.01.2021	10:03:34	0	23,881328	4,90378	3,8025	9,0072	0,087	88,831	0	1013,86	6,8	8,7	8,5	1	1	1	1	1	1	1	1	1	0	1	-3,171247	274,228733	317,481442	0
15.01.2021	10:03:35	0	23,764867	3,991422	3,846	8,5896	0,085	88,823	0	1013,94	6,8	8,7	8,6	1	1	1	1	1	1	1	1	1	0	1	-6,8358	274,207712	313,718581	0
15.01.2021	10:03:36	0	23,64824	2,622933	3,71025	16,4988	0,089	88,815	0	1013,88	6,8	8,8	8,6	1	1	1	1	1	1	1	1	1	0	1	-4,580691	274,185214	315,868504	0
15.01.2021	10:03:37	0	23,648273	4,333564	3,51225	359,5248	0,089	88,823	0	1013,92	6,8	8,8	8,5	1	1	1	1	1	1	1	1	1	0	1	-7,399577	274,242259	313,316378	0
15.01.2021	10:03:38	0	23,997788	2,965032	3,069	0,8604	0,087	88,821	0	1013,88	6,7	8,8	8,7	1	1	1	1	1	1	1	1	1	0	1	-5,073996	274,114893	315,046576	0
15.01.2021	10:03:39	0	24,114316	3,53525	2,817	3,024	0,089	88,819	0	1013,96	6,8	8,8	8,6	1	1	1	1	1	1	1	1	1	0	1	-2,466526	274,206211	318,080838	0
15.01.2021	10:03:40	0	23,765032	2,965064	2,81925	356,9832	0,082	88,807	0	1013,84	6,8	8,7	8,5	1	1	1	1	1	1	1	1	1	0	1	-2,536998	274,07163	317,381528	0
15.01.2021	10:03:41	0	24,230878	4,675647	2,92725	0,1224	0,084	88,827	0	1013,88	6,8	8,8	8,6	1	1	1	1	1	1	1	1	1	0	1	-6,272023	274,147777	314,002192	0
15.01.2021	10:03:42	0	23,997922	4,675672	3,01125	353,97	0,09	88,825	0	1013,78	6,8	8,8	8,5	1	1	1	1	1	1	1	1	1	0	1	-6,342495	274,237749	314,352366	0
15.01.2021	10:03:43	0	24,230945	5,017761	3,00675	358,722	0,087	88,832	0	1013,84	6,8	8,8	8,6	1	1	1	1	1	1	1	1	1	0	1	-10,077519	274,192711	310,406721	0
15.01.2021	10:03:44	0	23,997989	4,447558	2,99325	9,756	0,088	88,823	0	1013,74	6,8	8,8	8,6	1	1	1	1	1	1	1	1	1	0	1	-7,047216	274,061202	312,822622	0
15.01.2021	10:03:45	0	23,881527	3,649254	2,84925	0,4752	0,089	88,813	0	1013,78	6,8	8,8	8,7	1	1	1	1	1	1	1	1	1	0	1	-1,761804	274,012117	317,878936	0
15.01.2021	10:03:46	0	24,11472	3,991416	2,62575	346,1652	0,083	88,817	0	1013,94	6,8	8,7	8,5	1	1	1	1	1	1	1	1	1	0	1	-5,708245	274,176223	314,698917	0
15.01.2021	10:03:47	0	23,765264	3,079072	2,523	358,686	0,094	88,832	0	1014,04	6,8	8,7	8,6	1	1	1	1	1	1	1	1	1	0	1	-5,144468	274,230235	315,515248	0
15.01.2021	10:03:48	0	23,648635	2,16674	2,54625	340,9524	0,084	88,824	0	1013,92	6,8	8,8	8,7	1	1	1	1	1	1	1	1	1	0	1	-0,916138	274,053757	318,918943	0
15.01.2021	10:03:49	0	24,114652	2,62291	2,47575	353,574	0,084	88,827	0	1013,76	6,8	8,8	8,6	1	1	1	1	1	1	1	1	1	0	1	-4,087385	274,177721	316,326781	0
15.01.2021	10:03:50	0	23,998358	4,447513	2,3175	347,3568	0,09	88,839	0	1013,88	6,8	8,7	8,7	1	1	1	1	1	1	1	1	1	0	1	-4,439746	274,236246	316,248084	0
15.01.2021	10:03:51	0	24,114719	4,333523	2,49975	352,5372	0,084	88,828	0	1013,86	6,8	8,8	8,5	1	1	1	1	1	1	1	1	1	0	1	-9,513742	274,182217	310,921439	0
15.01.2021	10:03:52	0	24,347916	4,789652	2,62725	354,0168	0,084	88,834	0	1013,9	6,8	8,7	8,6	1	1	1	1	1	1	1	1	1	0	1	-5,355884	274,186713	315,100318	0
15.01.2021	10:03:53	0	24,114786	3,193099	2,574	354,6288	0,086	88,833	0	1013,8	6,8	8,8	8,6	1	1	1	1	1	1	1	1	1	0	1	-3,805497	274,225728	316,83314	0
15.01.2021	10:03:54	0	23,881994	2,965019	2,388	0	0,084	88,824	0	1013,8	6,7	8,7	8,6	1	1	1	1	1	1	1	1	1	0	1	-5,919662	274,101456	314,138147	0
15.01.2021	10:03:55	0	23,88186	3,649229	2,256	360	0,089	88,836	0	1014,02	6,8	8,8	8,7	1	1	1	1	1	1	1	1	1	0	1	-5,355884	274,088029	314,639215	0
15.01.2021	10:03:56	0	24,231554	5,131756	2,349	349,452	0,085	88,837	0	1013,98	6,8	8,7	8,6	1	1	1	1	1	1	1	1	1	0	1	-5,144468	274,20021	315,374835	0
15.01.2021	10:03:57	0	23,882094	3,649224	2,22975	27,6624	0,084	88,841	0	1013,82	6,8	8,7	8,7	1	1	1	1	1	1	1	1	1	0	1	-2,466526	274,176223	317,940637	0
15.01.2021	10:03:58	0	23,765629	4,561555	2,13075	2,718	0,085	88,822	0	1013,9	6,8	8,7	8,6	1	1	1	1	1	1	1	1	1	0	1	-3,24172	274,074611	316,690723	0
15.01.2021	10:03:59	0	24,114988	3,421143	2,133	4,446	0,088	88,83	0	1013,94	6,8	8,8	8,7	1	1	1	1	1	1	1	1	1	0	1	-6,412967	274,23324	314,260805	0
15.01.2021	10:04:00	0	23,998725	4,105391	2,316	10,1664	0,087	88,838	0	1013,96	6,8	8,7	8,6	1	1	1	1	1	1	1	1	1	0	1	-4,510218	274,128339	315,673169	0
15.01.2021	10:04:01	0	23,998725	4,105391	2,316	10,1664	0,087	88,838	0	1013,96	6,8	8,7	8,6	1	1	1	1	1	1	1	1	1	0	1	-5,84919	274,077591	314,097172	0
15.01.2021	10:04:02	0	24,231756	2,508864	2,39775	360	0,093	88,838	0	1014	6,8	8,7	8,5	1	1	1	1	1	1	1	1	1	0	1	-6,483439	274,061202	313,386399	0
15.01.2021	10:04:03	0	23,882126	2,850945	2,52825	12,8448	0,088	88,833	0	1013,76	6,8	8,8	8,7	1	1	1	1	1	1	1	1	1	0	1	-6,906272	274,173227	313,486885	0
15.01.2021	10:04:04	0	24,115325	4,561564	2,53425	8,9892	0,09	88,839	0	1013,94	6,8	8,7	8,5	1	1	1	1	1	1	1	1	1	0	1	-6,694856	274,06716	313,2028	0
15.01.2021	10:04:05	0	23,76586	2,508843	2,54775	5,652	0,081	88,831	0	1013,86	6,8	8,7	8,6	1	1	1	1	1	1	1	1	1	0	1	-6,694856	274,083555	313,279352	0
15.01.2021	10:04:06	0	24,46489	5,131722	2,69025	359,9964	0,089	88,823	0	1013,88	6,8	8,7	8,6	1	1	1	1	1	1	1	1	1	0	1	-8,315715	274,147777	311,958499	0
15.01.2021	10:04:07	0	23,882259	2,965011	2,901	14,3136	0,093	88,839	0	1013,98	6,8	8,8	8,5	1	1	1	1	1	1	1	1	1	0	1	-8,245243	274,056734	311,603739	0
15.01.2021	10:04:08	0	24,231959	2,964991	3,228	6,804	0,091	88,837	0	1013,92	6,8	8,7	8,6	1	1	1	1	1	1	1	1	1	0	1	-5,426357	274,12535	314,743067	0
15.01.2021	10:04:09	0	24,115492	4,333445	3,43575	6,066	0,088	88,839	0	1013,92	6,8	8,7	8,6	1	1	1	1	1	1	1	1	1	0	1	-7,610994	274,185214	312,838201	0
15.01.2021	10:04:10	0	24,115526	3,763275	3,42825	11,7216	0,085	88,835	0	1013,88	6,8	8,7	8,5	1	1	1	1	1	1	1	1	1	0	1	-8,315715	274,230235	312,344001	0
15.01.2021	10:04:11	0	23,998891	3,079023	3,492	6,8148	0,095	88,849	0	1013,96	6,8	8,8	8,6	1	1	1	1	1	1	1	1	1	0	1	-4,016913	274,225728	316,621724	0
15.01.2021	10:04:12	0	24,115424	2,736907	3,687	11,1924	0,09	88,858	0	1013,96	6,8	8,8	8,6	1	1	1	1	1	1	1	1	1	0	1	-5,496829	274,132823	314,707509	0
15.01.2021	10:04:13	0	23,998958	3,991345	3,64575	5,8104	0,08	88,836	0	1013,98	6,8	8,8	8,5	1	1	1	1	1	1	1	1	1	0	1	-8,45666	274,227231	312,189003	0
15.01.2021	10:04:14	0	24,464991	2,850941	3,459	16,0956	0,091	88,839	0	1013,9	6,8	8,8	8,6	1	1	1	1	1	1	1	1	1	0	1	-3,946441	274,101456	316,111368	0
15.01.2021	10:04:15	0	24,115525	2,964959	3,30825	1,9296	0,091	88,85	0	1013,96	6,8	8,8	8,7	1	1	1	1	1	1	1	1	1	0	1	-3,875969	274,19421	316,615283	0
15.01.2021	10:04:16	0	24,115558	2,964993	3,147	21,384	0,087	88,845	0	1013,88	6,8	8,8	8,5	1	1	1	1	1	1	1	1	1	0	1	-2,466526	274,231738	318,200218	0
15.01.2021	10:04:17	0	24,348763	3,307085	2,886	357,0228	0,09	88,837	0	1013,9	6,8	8,7	8,6	1	1	1	1	1	1	1	1	1	0	1	-6,765328	274,113399	313,348268	0
15.01.2021	10:04:18	0	24,115794	3,649217	2,59575	10,4472	0,082	88,844	0	1013,84	6,8	8,7	8,5	1	1	1	1	1	1	1	1	1	0	1	-5,567301	274,083555	314,406907	0
15.01.2021	10:04:19	0	23,882657	3,079006	2,41125	3,0168	0,085	88,836	0	1013,94	6,8	8,8	8,6	1	1	1	1	1	1	1	1	1	0	1	-4,016913	274,06567	315,873787	0
15.01.2021	10:04:20	0	24,232363	2,850947	2,4105	356,6556	0,084	88,846	0	1013,9	6,8	8,7	8,5	1	1	1	1	1	1	1	1	1	0	1	-5,919662	274,137308	314,305632	0
15.01.2021	10:04:21	0	23,999393	3,877239	2,487	2,7324	0,082	88,842	0	1014	6,8	8,7	8,7	1	1	1	1	1	1	1	1	1	0	1	-7,399577	274,230235	313,260139	0
15.01.2021	10:04:22	0	23,766256	4,219345	2,73525	349,4052	0,078	88,841	0	1013,84	6,8	8,8	8,7	1	1	1	1	1	1	1	1	1	0	1	-6,8358	274,225728	313,802837	0
15.01.2021	10:04:23	0	24,581799	4,447442	2,97225	356,9328	0,102	88,833	0	1013,78	6,8	8,8	8,6	1	1	1	1	1	1	1	1	1	0	1	-5,426357	274,11788	314,708169	0
15.01.2021	10:04:24	0	24,465503	3,649203	3,04425	358,74	0,085	88,842	0	1014,02	6,7	8,7	8,5	1	1	1	1	1	1	1	1	1	0	1	-7,751938	274,225728	312,886699	0
15.01.2021	10:04:25	0	24,348863	4,675538	3,117	355,392	0,082	88,838	0	1013,86	6,8	8,8	8,5	1	1	1	1	1	1	1	1	1	0	1	-10,077519	274,186713	310,378684	0
15.01.2021	10:04:26	0	24,232395	4,33337	3,279	0,1044	0,075	88,846	0	1013,76	6,8	8,8	8,7	1	1	1	1	1	1	1	1	1	0	1	-4,369274	274,07014	315,542294	0
15.01.2021	10:04:27	0	24,465604	4,903606	3,435	356,9976	0,085	88,856	0	1013,98	6,8	8,7	8,5	1	1	1	1	1	1	1	1	1	0	1	-7,610994	274,219721	312,999548	0
15.01.2021	10:04:28	0	24,348965	4,4474	3,5835	357,2352	0,084	88,852	0	1014,02	6,8	8,8	8,7	1	1	1	1	1	1	1	1	1	0	1	-5,778717	274,07163	314,139808	0
15.01.2021	10:04:29	0	24,115994	5,131612	3,618	354,0708	0,088	88,851	0	1013,98	6,8	8,8	8,7	1	1	1	1	1	1	1	1	1	0	1	-8,879493	274,105934	311,199231	0
15.01.2021	10:04:30	0	24,116027	3,76318	3,71475	0,8568	0,088	88,862	0	1013,9	6,8	8,8	8,7	1	1	1	1	1	1	1	1	1	0	1	-6,553911	273,979462	312,934489	0
15.01.2021	10:04:31	0	24,465569	3,078982	3,80175	9,3636	0,085	88,863	0	1013,88	6,8	8,8	8,6	1	1	1	1	1	1	1	1	1	0	1	-7,329105	274,167235	313,036048	0
15.01.2021	10:04:32	0	23,99976	2,964961	3,60975	8,6004	0,086	88,86	0	1013,86	6,8	8,7	8,5	1	1	1	1	1	1	1	1	1	0	1	-3,171247	274,059713	316,691638	0
15.01.2021	10:04:33	0	24,698643	2,850888	3,3315	0,8532	0,091	88,872	0	1013,96	6,8	8,8	8,7	1	1	1	1	1	1	1	1	1	0	1	-4,580691	274,234743	316,10011	0
15.01.2021	10:04:34	0	23,999658	2,85092	3,16875	7,506	0,092	88,869	0	1013,98	6,8	8,8	8,5	1	1	1	1	1	1	1	1	1	0	1	-6,553911	274,186713	313,902292	0
15.01.2021	10:04:35	0	23,883188	3,877226	2,988	0,1152	0,088	88,874	0	1014	6,8	8,8	8,6	1	1	1	1	1	1	1	1	1	0	1	-10,218464	274,237749	310,476397	0
15.01.2021	10:04:36	0	24,698919	5,017613	2,8725	354,8052	0,084	88,868	0	1013,88	6,8	8,7	8,5	1	1	1	1	1	1	1	1	1	0	1	-3,171247	274,098471	316,872621	0
15.01.2021	10:04:37	0	24,232935	2,736862	2,9925	355,14	0,089	88,868	0	1013,9	6,8	8,7	8,6	1	1	1	1	1	1	1	1	1	0	1	-5,919662	274,064181	313,964084	0
15.01.2021	10:04:38	0	24,698815	4,447424	2,976	354,9888	0,081	88,857	0	1013,92	6,8	8,8	8,5	1	1	1	1	1	1	1	1	1	0	1	-7,470049	274,114893	312,650522	0
15.01.2021	10:04:39	0	23,883321	2,850911	2,9925	2,3184	0,086	88,881	0	1013,82	6,8	8,8	8,5	1	1	1	1	1	1	1	1	1	0	1	-7,681466	274,206211	312,865898	0
15.01.2021	10:04:40	0	23,999858	4,447365	2,94825	8,244	0,08	88,863	0	1013,9	6,8	8,8	8,7	1	1	1	1	1	1	1	1	1	0	1	-9,231853	274,228733	311,420836	0
15.01.2021	10:04:41	0	23,999891	3,535104	2,66025	8,5932	0,087	88,883	0	1013,84	6,8	8,8	8,6	1	1	1	1	1	1	1	1	1	0	1	-11,41649	274,168733	308,955663	0
15.01.2021	10:04:42	0	24,233103	3,078978	2,42925	353,5344	0,094	88,889	0	1013,96	6,8	8,7	8,5	1	1	1	1	1	1	1	1	1	0	1	-5,778717	274,234743	314,902084	0
15.01.2021	10:04:43	0	24,465977	2,508795	2,38275	355,8024	0,086	88,879	0	1013,86	6,8	8,8	8,5	1	1	1	1	1	1	1	1	1	0	1	-7,470049	274,08952	312,532015	0
15.01.2021	10:04:44	0	24,233001	3,763167	2,4645	359,1504	0,091	88,873	0	1014,02	6,8	8,8	8,6	1	1	1	1	1	1	1	1	1	0	1	-8,879493	274,144785	311,380741	0
15.01.2021	10:04:45	0	24,116698	4,219306	2,5365	0,864	0,088	88,885	0	1014,06	6,8	8,7	8,6	1	1	1	1	1	1	1	1	1	0	1	-7,258633	274,204711	313,281715	0
15.01.2021	10:04:46	0	24,466078	3,307002	2,7735	13,9032	0,088	88,885	0	1013,74	6,8	8,8	8,7	1	1	1	1	1	1	1	1	1	0	1	-4,862579	274,234743	315,818222	0
15.01.2021	10:04:47	0	24,466112	3,649125	2,96025	18,4212	0,082	88,869	0	1013,72	6,8	8,8	8,6	1	1	1	1	1	1	1	1	1	0	1	-6,20155	274,134318	314,009772	0
15.01.2021	10:04:48	0	24,233305	4,333359	2,91075	13,1688	0,088	88,882	0	1014,02	6,8	8,7	8,5	1	1	1	1	1	1	1	1	1	0	1	-6,342495	274,183716	314,099693	0
15.01.2021	10:04:49	0	24,349675	3,763177	2,86875	12,5496	0,09	88,872	0	1013,94	6,8	8,8	8,5	1	1	1	1	1	1	1	1	1	0	1	-6,483439	274,059713	313,379447	0
15.01.2021	10:04:50	0	24,699226	3,991198	3,06375	10,0512	0,088	88,894	0	1013,82	6,8	8,8	8,7	1	1	1	1	1	1	1	1	1	0	1	-5,990134	274,192711	314,494107	0
15.01.2021	10:04:51	0	24,000224	2,736836	3,35925	15,7896	0,09	88,898	0	1013,9	6,8	8,8	8,6	1	1	1	1	1	1	1	1	1	0	1	-3,523608	274,171729	316,862547	0
15.01.2021	10:04:52	0	24,466453	3,307008	3,09375	342,7704	0,092	88,887	0	1013,98	6,8	8,7	8,6	1	1	1	1	1	1	1	1	1	0	1	-3,312192	274,239252	317,3897	0
15.01.2021	10:04:53	0	24,466316	3,535075	2,95575	7,8768	0,095	88,891	0	1013,92	6,8	8,8	8,6	1	1	1	1	1	1	1	1	1	0	1	-7,258633	274,180718	313,169543	0
15.01.2021	10:04:54	0	24,349843	3,649108	3,21525	355,0212	0,086	88,871	0	1013,86	6,8	8,8	8,6	1	1	1	1	1	1	1	1	1	0	1	-6,765328	274,129833	313,425042	0
15.01.2021	10:04:55	0	24,349877	3,421036	3,3405	6,4116	0,09	88,901	0	1013,96	6,8	8,8	8,6	1	1	1	1	1	1	1	1	1	0	1	-10,147992	274,251281	310,610172	0
15.01.2021	10:04:56	0	24,349911	4,105265	3,24525	1,548	0,089	88,9	0	1013,98	6,8	8,8	8,5	1	1	1	1	1	1	1	1	1	0	1	-4,087385	274,07312	315,838098	0
15.01.2021	10:04:57	0	24,583131	4,789473	3,0255	356,0976	0,083	88,896	0	1013,88	6,8	8,7	8,5	1	1	1	1	1	1	1	1	1	0	1	-7,329105	274,091012	312,679925	0
15.01.2021	10:04:58	0	24,466485	3,078945	3,03075	358,6356	0,085	88,882	0	1013,9	6,8	8,8	8,5	1	1	1	1	1	1	1	1	1	0	1	-7,188161	274,213715	313,394295	0
15.01.2021	10:04:59	0	24,350012	2,736822	2,9685	347,94	0,088	88,864	0	1013,9	6,8	8,8	8,6	1	1	1	1	1	1	1	1	1	0	1	-5,073996	274,183716	315,368192	0
15.01.2021	10:05:00	0	24,35025	3,078939	3,2415	355,446	0,09	88,874	0	1013,84	6,8	8,7	8,5	1	1	1	1	1	1	1	1	1	0	1	-3,946441	274,059713	315,916444	0
15.01.2021	10:05:01	0	24,35025	3,078939	3,2415	355,446	0,09	88,874	0	1013,84	6,8	8,7	8,5	1	1	1	1	1	1	1	1	1	0	1	-3,946441	274,059713	315,916444	0
15.01.2021	10:05:02	0	24,350284	4,675394	3,222	17,6832	0,089	88,871	0	1014,02	6,8	8,7	8,6	1	1	1	1	1	1	1	1	1	0	1	-8,386187	274,174725	312,013972	0
15.01.2021	10:05:03	0	24,466655	4,56133	3,072	7,5024	0,084	88,869	0	1013,8	6,8	8,8	8,7	1	1	1	1	1	1	1	1	1	0	1	-5,990134	274,079082	313,963188	0
15.01.2021	10:05:04	0	24,350181	3,307002	3,01725	356,2128	0,087	88,868	0	1013,84	6,8	8,8	8,5	1	1	1	1	1	1	1	1	1	0	1	-3,735025	274,06865	316,169587	0
15.01.2021	10:05:05	0	24,233706	4,789448	3,04425	7,4988	0,085	88,876	0	1013,88	6,8	8,8	8,5	1	1	1	1	1	1	1	1	1	0	1	-2,818887	274,218219	317,784632	0
15.01.2021	10:05:06	0	24,117231	2,508727	2,8485	350,1864	0,094	88,884	0	1014	6,8	8,8	8,7	1	1	1	1	1	1	1	1	1	0	1	-7,963354	274,219721	312,647187	0
15.01.2021	10:05:07	0	24,233773	5,01748	2,58825	352,4904	0,093	88,896	0	1013,9	6,8	8,8	8,6	1	1	1	1	1	1	1	1	1	0	1	-8,245243	274,212214	312,330193	0
15.01.2021	10:05:08	0	24,233977	2,850822	2,51625	1,5552	0,089	88,879	0	1013,98	6,8	8,7	8,7	1	1	1	1	1	1	1	1	1	0	1	-5,285412	274,144785	314,974822	0
15.01.2021	10:05:09	0	24,350349	3,763127	2,40675	344,88	0,089	88,88	0	1013,92	6,8	8,8	8,5	1	1	1	1	1	1	1	1	1	0	1	-7,047216	274,258803	313,746138	0
15.01.2021	10:05:10	0	24,583573	2,736785	2,469	353,2176	0,086	88,87	0	1013,92	6,8	8,7	8,7	1	1	1	1	1	1	1	1	1	0	1	-5,84919	274,114893	314,271382	0
15.01.2021	10:05:11	0	24,233908	3,87711	2,6445	345,762	0,09	88,868	0	1013,96	6,8	8,8	8,7	1	1	1	1	1	1	1	1	1	0	1	-7,82241	274,092503	312,193586	0
15.01.2021	10:05:12	0	24,816488	4,561358	2,6295	343,4616	0,09	88,873	0	1013,98	6,8	8,8	8,5	1	1	1	1	1	1	1	1	1	0	1	-4,933051	274,20021	315,586251	0
15.01.2021	10:05:13	0	24,700013	3,306942	2,6655	348,3036	0,087	88,875	0	1013,86	6,8	8,8	8,7	1	1	1	1	1	1	1	1	1	0	1	-6,553911	274,12535	313,615512	0
15.01.2021	10:05:14	0	24,234178	2,280662	2,691	0	0,089	88,887	0	1014	6,8	8,7	8,6	1	1	1	1	1	1	1	1	1	0	1	-5,144468	274,228733	315,508221	0
15.01.2021	10:05:15	0	24,583571	3,306978	2,637	0,4788	0,086	88,867	0	1013,92	6,8	8,8	8,5	1	1	1	1	1	1	1	1	1	0	1	-5,708245	274,149273	314,572961	0
15.01.2021	10:05:16	0	24,583605	2,736791	2,52225	4,0752	0,09	88,886	0	1013,96	6,8	8,8	8,6	1	1	1	1	1	1	1	1	1	0	1	-6,553911	274,231738	314,112832	0
15.01.2021	10:05:17	0	24,234109	3,078888	2,4855	2,7216	0,089	88,886	0	1013,94	6,8	8,8	8,6	1	1	1	1	1	1	1	1	1	0	1	-8,104299	274,06567	311,786402	0
15.01.2021	10:05:18	0	24,467163	2,736804	2,43525	360	0,093	88,874	0	1013,96	6,8	8,8	8,5	1	1	1	1	1	1	1	1	1	0	1	-9,513742	274,162743	310,830415	0
15.01.2021	10:05:19	0	24,350686	3,76308	2,31075	349,9272	0,089	88,869	0	1013,78	6,8	8,8	8,6	1	1	1	1	1	1	1	1	1	0	1	-5,073996	274,077591	314,872366	0
15.01.2021	10:05:20	0	24,467231	3,877133	2,2035	13,5468	0,085	88,876	0	1013,92	6,8	8,8	8,5	1	1	1	1	1	1	1	1	1	0	1	-4,933051	274,095487	315,09688	0
15.01.2021	10:05:21	0	24,700459	3,192912	2,142	1,1592	0,089	88,873	0	1013,88	6,8	8,7	8,6	1	1	1	1	1	1	1	1	1	0	1	-7,82241	274,141794	312,423846	0
15.01.2021	10:05:22	0	24,234276	3,306942	2,01	1,1592	0,087	88,887	0	1013,92	6,8	8,8	8,6	1	1	1	1	1	1	1	1	1	0	1	-4,651163	274,083555	315,323045	0
15.01.2021	10:05:23	0	24,467503	3,30694	1,97775	6,0516	0,09	88,903	0	1013,92	6,8	8,7	8,6	1	1	1	1	1	1	1	1	1	0	1	-7,681466	274,239252	313,020426	0
15.01.2021	10:05:24	0	24,467537	3,078855	1,91625	5,2164	0,086	88,862	0	1013,84	6,8	8,7	8,7	1	1	1	1	1	1	1	1	1	0	1	-7,963354	274,185214	312,485841	0
15.01.2021	10:05:25	0	25,049957	4,561318	1,79325	354,3336	0,087	88,89	0	1013,84	6,8	8,8	8,5	1	1	1	1	1	1	1	1	1	0	1	-3,805497	274,243762	316,917492	0
15.01.2021	10:05:26	0	24,467605	3,078851	1,7085	1,548	0,088	88,892	0	1013,86	6,8	8,7	8,7	1	1	1	1	1	1	1	1	1	0	1	-1,127555	274,140298	319,111713	0
15.01.2021	10:05:27	0	24,350956	2,622723	1,5855	6,0624	0,089	88,882	0	1014	6,8	8,8	8,7	1	1	1	1	1	1	1	1	1	0	1	-4,439746	274,171729	315,946408	0
15.01.2021	10:05:28	0	24,817037	4,561282	1,51125	347,3136	0,087	88,884	0	1013,94	6,8	8,8	8,6	1	1	1	1	1	1	1	1	1	0	1	-7,610994	274,239252	313,090898	0
15.01.2021	10:05:29	0	24,584047	3,991143	1,4535	4,4604	0,085	88,883	0	1013,98	6,8	8,8	8,5	1	1	1	1	1	1	1	1	1	0	1	-13,812544	274,19421	306,678708	0
15.01.2021	10:05:30	0	24,584081	3,76303	1,46925	7,506	0,089	88,897	0	1013,96	6,8	8,8	8,7	1	1	1	1	1	1	1	1	1	0	1	-6,8358	274,209212	313,725599	0
15.01.2021	10:05:31	0	24,467603	3,534986	1,6035	9,3456	0,089	88,898	0	1014	6,8	8,8	8,6	1	1	1	1	1	1	1	1	1	0	1	-5,708245	274,234743	314,972556	0
15.01.2021	10:05:32	0	24,933687	2,850794	1,64325	12,4668	0,085	88,884	0	1014,02	6,8	8,8	8,6	1	1	1	1	1	1	1	1	1	0	1	-5,21494	274,11788	314,919586	0
15.01.2021	10:05:33	0	24,700696	4,675298	1,716	5,6736	0,09	88,878	0	1013,92	6,8	8,8	8,6	1	1	1	1	1	1	1	1	1	0	1	-5,21494	274,129833	314,97543	0
15.01.2021	10:05:34	0	24,467704	4,219169	1,78875	10,0584	0,082	88,876	0	1013,92	6,8	8,8	8,6	1	1	1	1	1	1	1	1	1	0	1	-6,906272	274,086537	313,081863	0
15.01.2021	10:05:35	0	24,933965	3,192882	1,79925	15,0156	0,088	88,893	0	1013,84	6,8	8,7	8,6	1	1	1	1	1	1	1	1	1	0	1	-6,553911	274,119373	313,587593	0
15.01.2021	10:05:36	0	24,700798	4,675289	1,7895	19,6272	0,091	88,899	0	1014	6,8	8,8	8,6	1	1	1	1	1	1	1	1	1	0	1	-7,329105	274,083555	312,645103	0
15.01.2021	10:05:37	0	24,234779	2,736753	1,989	19,8936	0,084	88,897	0	1014	6,8	8,8	8,6	1	1	1	1	1	1	1	1	1	0	1	-2,184637	274,246769	318,552419	0
15.01.2021	10:05:38	0	24,700866	2,736735	2,17575	16,0848	0,082	88,888	0	1013,84	6,8	8,8	8,7	1	1	1	1	1	1	1	1	1	0	1	-7,963354	274,11788	312,171171	0
15.01.2021	10:05:39	0	24,584559	3,192874	2,14725	12,4632	0,09	88,895	0	1014	6,8	8,7	8,6	1	1	1	1	1	1	1	1	1	0	1	-7,82241	274,12535	312,347013	0
15.01.2021	10:05:40	0	24,700934	4,561246	2,12175	19,1628	0,092	88,89	0	1014	6,8	8,8	8,6	1	1	1	1	1	1	1	1	1	0	1	-7,470049	274,082064	312,497196	0
15.01.2021	10:05:41	0	24,46794	2,508683	2,16075	17,2332	0,093	88,897	0	1013,96	6,8	8,8	8,6	1	1	1	1	1	1	1	1	1	0	1	-3,24172	274,129833	316,94865	0
15.01.2021	10:05:42	0	24,35146	2,964806	2,18025	358,7292	0,091	88,896	0	1014,04	6,8	8,8	8,6	1	1	1	1	1	1	1	1	1	0	1	-4,369274	274,347783	316,840596	0
15.01.2021	10:05:43	0	24,351494	3,534958	2,019	346,1436	0,089	88,892	0	1013,9	6,8	8,8	8,6	1	1	1	1	1	1	1	1	1	0	1	-6,412967	274,249777	314,33816	0
15.01.2021	10:05:44	0	24,9341	4,447203	2,0625	1,5372	0,085	88,894	0	1013,88	6,8	8,8	8,6	1	1	1	1	1	1	1	1	1	0	1	-5,355884	274,192711	315,128356	0
15.01.2021	10:05:45	0	24,701105	4,333169	1,9965	347,1768	0,09	88,887	0	1013,98	6,8	8,8	8,6	1	1	1	1	1	1	1	1	1	0	1	-1,973221	274,086537	318,014914	0
15.01.2021	10:05:46	0	24,817828	4,561227	1,875	353,9664	0,086	88,91	0	1013,86	6,8	8,7	8,6	1	1	1	1	1	1	1	1	1	0	1	-8,45666	274,216718	312,139838	0
15.01.2021	10:05:47	0	24,584658	3,078826	1,80825	0,4932	0,084	88,914	0	1013,84	6,8	8,8	8,6	1	1	1	1	1	1	1	1	1	0	1	-11,346018	274,216718	309,250479	0
15.01.2021	10:05:48	0	24,351662	3,648977	1,899	4,0644	0,086	88,916	0	1013,86	6,8	8,8	8,6	1	1	1	1	1	1	1	1	1	0	1	-4,510218	274,236246	316,177612	0
15.01.2021	10:05:49	0	24,934272	3,877036	1,92525	354,294	0,089	88,918	0	1013,96	6,8	8,8	8,6	1	1	1	1	1	1	1	1	1	0	1	-7,540521	274,156756	312,775651	0
15.01.2021	10:05:50	0	24,468416	2,85076	1,92975	358,7256	0,094	88,914	0	1013,78	6,8	8,7	8,6	1	1	1	1	1	1	1	1	1	0	1	-2,466526	274,261812	318,34091	0
15.01.2021	10:05:51	0	24,468278	4,675243	2,01075	9,7416	0,092	88,903	0	1013,76	6,8	8,8	8,6	1	1	1	1	1	1	1	1	1	0	1	-10,782241	274,07014	309,129327	0
15.01.2021	10:05:52	0	24,817859	3,648989	1,977	22,4604	0,094	88,92	0	1013,98	6,8	8,8	8,5	1	1	1	1	1	1	1	1	1	0	1	-11,41649	274,123856	308,745952	0
15.01.2021	10:05:53	0	24,817893	3,877025	2,139	356,2056	0,087	88,918	0	1013,92	6,8	8,8	8,6	1	1	1	1	1	1	1	1	1	0	1	-9,302326	274,110413	310,797319	0
15.01.2021	10:05:54	0	24,585068	3,534954	2,37975	8,9892	0,098	88,925	0	1014,12	6,8	8,7	8,5	1	1	1	1	1	1	1	1	1	0	1	-5,567301	274,080573	314,392982	0
15.01.2021	10:05:55	0	25,050994	4,44717	2,51175	359,1684	0,091	88,907	0	1014,08	6,8	8,8	8,6	1	1	1	1	1	1	1	1	1	0	1	-3,805497	274,20171	316,72082	0
15.01.2021	10:05:56	0	24,70148	4,561197	2,48775	7,128	0,094	88,924	0	1013,88	6,8	8,8	8,6	1	1	1	1	1	1	1	1	1	0	1	-4,22833	274,225728	316,410307	0
15.01.2021	10:05:57	0	24,352305	4,561194	2,4465	16,1028	0,091	88,932	0	1013,92	6,8	8,6	8,6	1	1	1	1	1	1	1	1	1	0	1	-4,22833	274,254289	316,543908	0
15.01.2021	10:05:58	0	24,468514	3,078804	2,3565	0,5508	0,094	88,92	0	1013,94	6,8	8,8	8,6	1	1	1	1	1	1	1	1	1	0	1	-8,174771	274,209212	312,386628	0
15.01.2021	10:05:59	0	24,585065	2,280594	2,31225	1,5588	0,094	88,935	0	1014,02	6,8	8,8	8,6	1	1	1	1	1	1	1	1	1	0	1	-7,188161	274,225728	313,450476	0
15.01.2021	10:06:00	0	24,585305	4,675212	2,62275	1,908	0,094	88,925	0	1014,04	6,8	8,7	8,6	1	1	1	1	1	1	1	1	1	0	1	-9,513742	274,254289	311,258496	0
15.01.2021	10:06:01	0	24,585305	4,675212	2,62275	1,908	0,094	88,925	0	1014,04	6,8	8,7	8,6	1	1	1	1	1	1	1	1	1	0	1	-9,44327	274,11788	310,691256	0
15.01.2021	10:06:02	0	24,701684	2,964766	2,92575	3,402	0,095	88,925	0	1013,96	6,8	8,8	8,6	1	1	1	1	1	1	1	1	1	0	1	-3,030303	274,134318	317,181019	0
15.01.2021	10:06:03	0	24,585201	2,622676	3,078	10,44	0,089	88,932	0	1013,94	6,8	8,8	8,6	1	1	1	1	1	1	1	1	1	0	1	-9,372798	274,249777	311,378329	0
15.01.2021	10:06:04	0	24,585407	4,675202	3,11175	5,2056	0,094	88,932	0	1013,96	6,8	8,7	8,6	1	1	1	1	1	1	1	1	1	0	1	-7,82241	274,249777	312,928717	0
15.01.2021	10:06:05	0	24,701786	4,675199	2,925	10,0656	0,092	88,921	0	1013,98	6,8	8,8	8,6	1	1	1	1	1	1	1	1	1	0	1	-10,288936	274,101456	309,768873	0
15.01.2021	10:06:06	0	24,70182	4,219105	2,76225	19,9008	0,089	88,921	0	1013,94	6,8	8,8	8,5	1	1	1	1	1	1	1	1	1	0	1	-11,486963	274,091012	308,522067	0
15.01.2021	10:06:07	0	24,468818	2,964757	2,6115	5,2128	0,091	88,93	0	1013,92	6,8	8,8	8,6	1	1	1	1	1	1	1	1	1	0	1	-8,527132	274,206211	312,020232	0
15.01.2021	10:06:08	0	24,352333	4,67519	2,5305	348,2568	0,093	88,914	0	1013,98	6,8	8,8	8,6	1	1	1	1	1	1	1	1	1	0	1	-6,976744	274,248273	313,767347	0
15.01.2021	10:06:09	0	24,468885	4,789216	2,77125	3,7692	0,096	88,921	0	1013,86	6,8	8,8	8,6	1	1	1	1	1	1	1	1	1	0	1	-5,073996	274,191211	315,403234	0
15.01.2021	10:06:10	0	24,468919	3,877005	2,9355	12,1032	0,097	88,943	0	1013,96	6,8	8,8	8,5	1	1	1	1	1	1	1	1	1	0	1	-6,060606	274,093995	313,962358	0
15.01.2021	10:06:11	0	24,468953	2,622662	3,078	5,2056	0,091	88,924	0	1013,86	6,8	8,8	8,6	1	1	1	1	1	1	1	1	1	0	1	-8,668076	274,237749	312,026785	0
15.01.2021	10:06:12	0	25,051581	5,131293	3,27825	355,4244	0,093	88,934	0	1013,9	6,8	8,8	8,6	1	1	1	1	1	1	1	1	1	0	1	-4,016913	274,140298	316,222355	0
15.01.2021	10:06:13	0	24,702058	4,789203	3,399	1,1844	0,093	88,938	0	1013,94	6,8	8,8	8,6	1	1	1	1	1	1	1	1	1	0	1	-3,735025	274,082064	316,232221	0
15.01.2021	10:06:14	0	24,585745	2,964743	3,30675	358,7364	0,096	88,938	0	1013,92	6,8	8,7	8,6	1	1	1	1	1	1	1	1	1	0	1	-4,721635	274,101456	315,336174	0
15.01.2021	10:06:15	0	24,818646	4,903225	2,84325	0,1152	0,093	88,914	0	1013,96	6,8	8,8	8,6	1	1	1	1	1	1	1	1	1	0	1	-8,45666	274,131328	311,740694	0
15.01.2021	10:06:16	0	24,469121	2,964739	2,574	0,4968	0,094	88,929	0	1013,98	6,8	8,8	8,6	1	1	1	1	1	1	1	1	1	0	1	-7,258633	273,892162	311,822758	0
15.01.2021	10:06:17	0	24,702367	3,078765	2,39175	354,6432	0,09	88,909	0	1013,84	6,8	8,7	8,6	1	1	1	1	1	1	1	1	1	0	1	-6,131078	274,132823	314,073259	0
15.01.2021	10:06:18	0	24,935268	4,219046	2,2365	354,3444	0,093	88,931	0	1013,92	6,8	8,8	8,6	1	1	1	1	1	1	1	1	1	0	1	-9,090909	274,258803	311,702445	0
15.01.2021	10:06:19	0	24,818782	4,561128	2,14125	357,606	0,101	88,935	0	1013,82	6,8	8,8	8,6	1	1	1	1	1	1	1	1	1	0	1	-10,288936	274,155259	310,020242	0
15.01.2021	10:06:20	0	25,051857	4,789181	2,1435	354,9852	0,088	88,922	0	1013,9	6,8	8,8	8,6	1	1	1	1	1	1	1	1	1	0	1	-8,949965	274,239252	311,751927	0
15.01.2021	10:06:21	0	24,585982	3,192785	2,457	354,5892	0,091	88,918	0	1013,98	6,8	8,7	8,6	1	1	1	1	1	1	1	1	1	0	1	-2,959831	274,11788	317,174695	0
15.01.2021	10:06:22	0	24,585844	2,964727	2,526	357,9948	0,092	88,915	0	1013,84	6,8	8,8	8,6	1	1	1	1	1	1	1	1	1	0	1	-5,778717	274,086537	314,209417	0
15.01.2021	10:06:23	0	24,352836	2,964725	2,45925	349,9236	0,093	88,924	0	1014,02	6,8	8,8	8,6	1	1	1	1	1	1	1	1	1	0	1	-1,973221	274,173227	318,419936	0
15.01.2021	10:06:24	0	24,46939	3,078751	2,541	351,7056	0,093	88,922	0	1013,9	6,8	8,8	8,6	1	1	1	1	1	1	1	1	1	0	1	-7,681466	274,249777	313,069661	0
15.01.2021	10:06:25	0	24,935508	2,850694	2,568	1,2492	0,094	88,909	0	1013,92	6,8	8,8	8,6	1	1	1	1	1	1	1	1	1	0	1	-1,62086	274,108919	318,471811	0
15.01.2021	10:06:26	0	25,285106	5,245273	2,56275	350,9892	0,09	88,898	0	1013,82	6,8	8,8	8,6	1	1	1	1	1	1	1	1	1	0	1	-8,527132	274,129833	311,663238	0
15.01.2021	10:06:27	0	24,586013	2,964717	2,469	7,8732	0,089	88,92	0	1013,94	6,8	8,8	8,6	1	1	1	1	1	1	1	1	1	0	1	-8,668076	274,092503	311,34792	0
15.01.2021	10:06:28	0	24,586047	3,876936	2,4135	6,4296	0,092	88,915	0	1014,06	6,8	8,8	8,6	1	1	1	1	1	1	1	1	1	0	1	-7,751938	274,171729	312,634217	0
15.01.2021	10:06:29	0	24,46973	2,964714	2,37675	5,2272	0,089	88,906	0	1013,86	6,8	8,7	8,6	1	1	1	1	1	1	1	1	1	0	1	-6,624383	274,085046	313,356787	0
15.01.2021	10:06:30	0	24,586114	2,622614	2,17275	5,6916	0,09	88,899	0	1013,9	6,8	8,8	8,7	1	1	1	1	1	1	1	1	1	0	1	-5,778717	274,061202	314,091121	0
15.01.2021	10:06:31	0	24,935714	3,192764	1,98975	4,0716	0,096	88,918	0	1013,92	6,8	8,8	8,6	1	1	1	1	1	1	1	1	1	0	1	-6,976744	274,132823	313,227593	0
15.01.2021	10:06:32	0	24,586182	3,420817	1,93275	1,6596	0,093	88,914	0	1013,94	6,8	8,8	8,6	1	1	1	1	1	1	1	1	1	0	1	-5,21494	274,20321	315,318392	0
15.01.2021	10:06:33	0	24,469693	3,420814	1,86	344,682	0,098	88,913	0	1013,98	6,8	8,8	8,6	1	1	1	1	1	1	1	1	1	0	1	-8,597604	274,083555	311,376604	0
15.01.2021	10:06:34	0	24,935992	2,622623	1,79625	353,214	0,098	88,899	0	1014,02	6,8	8,7	8,6	1	1	1	1	1	1	1	1	1	0	1	-3,100775	274,153762	317,201409	0
15.01.2021	10:06:35	0	24,936026	4,789134	1,767	352,062	0,093	88,909	0	1013,92	6,8	8,7	8,6	1	1	1	1	1	1	1	1	1	0	1	-9,161381	274,239252	311,54051	0
15.01.2021	10:06:36	0	24,935885	2,280538	1,77075	360	0,1	88,923	0	1013,84	6,8	8,8	8,6	1	1	1	1	1	1	1	1	1	0	1	-7,047216	274,219721	313,563325	0
15.01.2021	10:06:37	0	24,936094	4,218993	1,79475	1,5372	0,099	88,93	0	1013,94	6,8	8,7	8,6	1	1	1	1	1	1	1	1	1	0	1	-5,919662	274,243762	314,803327	0
15.01.2021	10:06:38	0	24,586385	4,789124	1,83075	6,0516	0,096	88,907	0	1013,88	6,8	8,8	8,6	1	1	1	1	1	1	1	1	1	0	1	-8,315715	274,224226	312,315897	0
15.01.2021	10:06:39	0	25,169035	3,306774	1,7925	353,8476	0,095	88,906	0	1013,92	6,9	8,8	8,6	1	1	1	1	1	1	1	1	1	0	1	-8,597604	274,162743	311,746553	0
15.01.2021	10:06:40	0	25,052546	3,648852	1,81125	348,0408	0,098	88,915	0	1013,88	6,8	8,8	8,6	1	1	1	1	1	1	1	1	1	0	1	-10,500352	274,245266	310,22967	0
15.01.2021	10:06:41	0	24,936057	4,333035	1,761	350,316	0,097	88,918	0	1014,06	6,8	8,8	8,5	1	1	1	1	1	1	1	1	1	0	1	-7,258633	274,177721	313,155533	0
15.01.2021	10:06:42	0	24,703216	4,333006	1,7835	354,2364	0,097	88,923	0	1013,98	6,8	8,7	8,6	1	1	1	1	1	1	1	1	1	0	1	-9,513742	274,239252	311,18815	0
15.01.2021	10:06:43	0	24,9363	2,964686	1,7475	354,258	0,092	88,903	0	1013,9	6,8	8,7	8,6	1	1	1	1	1	1	1	1	1	0	1	-4,510218	274,113399	315,603377	0
15.01.2021	10:06:44	0	24,586587	3,876895	1,6515	348,4044	0,091	88,91	0	1014,04	6,8	8,8	8,6	1	1	1	1	1	1	1	1	1	0	1	-3,312192	274,180718	317,115984	0
15.01.2021	10:06:45	0	24,819669	4,675076	1,65	360	0,094	88,927	0	1013,9	6,8	8,8	8,6	1	1	1	1	1	1	1	1	1	0	1	-5,990134	274,140298	314,249134	0
15.01.2021	10:06:46	0	25,052752	4,561047	1,677	344,3328	0,095	88,915	0	1013,9	6,8	8,8	8,6	1	1	1	1	1	1	1	1	1	0	1	-5,919662	274,27235	314,937079	0
15.01.2021	10:06:47	0	24,936437	4,561044	1,88925	353,124	0,096	88,921	0	1013,98	6,8	8,7	8,6	1	1	1	1	1	1	1	1	1	0	1	-5,708245	274,254289	315,063992	0
15.01.2021	10:06:48	0	24,70342	3,648833	2,085	360	0,096	88,923	0	1014,02	6,8	8,7	8,6	1	1	1	1	1	1	1	1	1	0	1	-4,087385	274,079082	315,865937	0
15.01.2021	10:06:49	0	25,053031	5,017141	2,2785	338,4072	0,093	88,922	0	1013,98	6,8	8,7	8,6	1	1	1	1	1	1	1	1	1	0	1	-6,906272	274,206211	313,641092	0
15.01.2021	10:06:50	0	24,586962	2,850647	2,46825	351,396	0,097	88,928	0	1013,96	6,8	8,7	8,6	1	1	1	1	1	1	1	1	1	0	1	-4,721635	274,07014	315,189934	0
15.01.2021	10:06:51	0	24,936399	3,876877	2,5065	356,13	0,092	88,905	0	1013,9	6,8	8,8	8,6	1	1	1	1	1	1	1	1	1	0	1	-3,523608	274,105934	316,555116	0
15.01.2021	10:06:52	0	24,936433	4,561029	2,55375	349,5168	0,1	88,93	0	1013,88	6,8	8,8	8,6	1	1	1	1	1	1	1	1	1	0	1	-4,22833	274,123856	315,934113	0
15.01.2021	10:06:53	0	24,936468	3,648821	2,6295	358,3944	0,096	88,922	0	1013,94	6,8	8,8	8,6	1	1	1	1	1	1	1	1	1	0	1	-5,778717	274,234743	314,902084	0
15.01.2021	10:06:54	0	24,586925	3,07869	2,562	349,1172	0,093	88,917	0	1013,62	6,8	8,8	8,6	1	1	1	1	1	1	1	1	1	0	1	-6,906272	274,168733	313,465881	0
15.01.2021	10:06:55	0	24,586958	2,850637	2,6115	0,8532	0,097	88,938	0	1013,86	6,8	8,8	8,6	1	1	1	1	1	1	1	1	1	0	1	-4,721635	274,230235	315,938081	0
15.01.2021	10:06:56	0	24,470637	2,736626	2,77275	358,0704	0,097	88,932	0	1013,98	6,8	8,7	8,5	1	1	1	1	1	1	1	1	1	0	1	-4,862579	274,082064	315,104666	0
15.01.2021	10:06:57	0	24,820078	3,19271	2,8005	358,7472	0,097	88,941	0	1013,9	6,8	8,8	8,6	1	1	1	1	1	1	1	1	1	0	1	-3,100775	274,128339	317,082612	0
15.01.2021	10:06:58	0	24,703586	2,850632	2,86575	353,5164	0,097	88,924	0	1013,88	6,8	8,8	8,6	1	1	1	1	1	1	1	1	1	0	1	-10,782241	274,085046	309,19893	0
15.01.2021	10:06:59	0	24,70362	3,420756	2,87625	357,9912	0,103	88,934	0	1013,94	6,8	8,8	8,6	1	1	1	1	1	1	1	1	1	0	1	-7,470049	274,19421	313,021202	0
15.01.2021	10:07:00	0	24,936741	3,078676	2,5155	354,312	0,099	88,933	0	1013,94	6,8	8,8	8,6	1	1	1	1	1	1	1	1	1	0	1	-6,8358	274,255794	313,943476	0
15.01.2021	10:07:01	0	24,936741	3,078676	2,5155	354,312	0,099	88,933	0	1013,94	6,8	8,8	8,6	1	1	1	1	1	1	1	1	1	0	1	-5,84919	274,144785	314,411044	0
15.01.2021	10:07:02	0	24,35414	3,420749	2,54325	358,344	0,101	88,94	0	1014,04	6,8	8,8	8,6	1	1	1	1	1	1	1	1	1	0	1	-6,272023	274,110413	313,827622	0
15.01.2021	10:07:03	0	24,354344	2,850622	2,42025	355,8564	0,103	88,946	0	1013,98	6,8	8,7	8,6	1	1	1	1	1	1	1	1	1	0	1	-6,624383	274,086537	313,363751	0
15.01.2021	10:07:04	0	24,820316	4,789042	2,31525	360	0,094	88,936	0	1013,76	6,8	8,8	8,6	1	1	1	1	1	1	1	1	1	0	1	-6,272023	274,153762	314,030161	0
15.01.2021	10:07:05	0	24,587468	4,104891	2,1885	359,8308	0,099	88,948	0	1013,98	6,8	8,7	8,6	1	1	1	1	1	1	1	1	1	0	1	-9,161381	274,258803	311,631973	0
15.01.2021	10:07:06	0	24,70403	4,218913	2,07675	360	0,097	88,935	0	1013,84	6,8	8,7	8,6	1	1	1	1	1	1	1	1	1	0	1	-7,610994	274,343249	313,577641	0
15.01.2021	10:07:07	0	24,587535	2,394516	2,0655	357,2784	0,098	88,937	0	1013,92	6,8	8,7	8,6	1	1	1	1	1	1	1	1	1	0	1	-10,288936	274,252785	310,476264	0
15.01.2021	10:07:08	0	24,703925	3,078662	2,208	1,8936	0,099	88,95	0	1013,88	6,8	8,8	8,6	1	1	1	1	1	1	1	1	1	0	1	-6,694856	274,074611	313,237587	0
15.01.2021	10:07:09	0	25,053718	5,017075	2,45925	358,3872	0,099	88,96	0	1014,06	6,8	8,7	8,6	1	1	1	1	1	1	1	1	1	0	1	-4,933051	274,191211	315,544179	0
15.01.2021	10:07:10	0	24,704165	4,218902	2,6235	358,848	0,096	88,944	0	1013,92	6,8	8,7	8,6	1	1	1	1	1	1	1	1	1	0	1	-4,933051	274,206211	315,614313	0
15.01.2021	10:07:11	0	24,704199	3,990826	2,9715	3,0132	0,102	88,953	0	1013,94	6,8	8,7	8,7	1	1	1	1	1	1	1	1	1	0	1	-4,580691	274,234743	316,10011	0
15.01.2021	10:07:12	0	24,587704	4,674993	3,11925	4,8384	0,097	88,952	0	1014,06	6,8	8,7	8,6	1	1	1	1	1	1	1	1	1	0	1	-9,372798	274,230235	311,286918	0
15.01.2021	10:07:13	0	24,937326	5,245111	3,18525	8,5968	0,099	88,933	0	1013,9	6,8	8,7	8,6	1	1	1	1	1	1	1	1	1	0	1	-5,990134	274,095487	314,039797	0
15.01.2021	10:07:14	0	24,93736	4,446939	3,05625	9,3672	0,101	88,946	0	1013,94	6,8	8,7	8,6	1	1	1	1	1	1	1	1	1	0	1	-6,412967	274,126844	313,763438	0
15.01.2021	10:07:15	0	24,704335	2,622552	3,07725	22,8276	0,098	88,941	0	1013,88	6,8	8,7	8,6	1	1	1	1	1	1	1	1	1	0	1	-10,359408	274,219721	310,251133	0
15.01.2021	10:07:16	0	24,587666	4,560957	2,8935	9,738	0,103	88,953	0	1013,92	6,8	8,8	8,6	1	1	1	1	1	1	1	1	1	0	1	-7,258633	274,243762	313,464356	0
15.01.2021	10:07:17	0	24,937463	3,306691	2,66925	15,3972	0,098	88,946	0	1013,9	6,8	8,7	8,6	1	1	1	1	1	1	1	1	1	0	1	-2,748414	274,251281	318,009749	0
15.01.2021	10:07:18	0	24,937322	3,420713	2,6385	11,2032	0,103	88,956	0	1014,04	6,8	8,8	8,6	1	1	1	1	1	1	1	1	1	0	1	-6,553911	274,167235	313,811242	0
15.01.2021	10:07:19	0	24,704297	2,964616	2,4795	17,7012	0,104	88,954	0	1013,94	6,8	8,8	8,6	1	1	1	1	1	1	1	1	1	0	1	-3,523608	274,086537	316,464527	0
15.01.2021	10:07:20	0	24,93739	3,648756	2,349	12,8484	0,101	88,938	0	1013,9	6,8	8,8	8,6	1	1	1	1	1	1	1	1	1	0	1	-6,412967	274,162743	313,931191	0
15.01.2021	10:07:21	0	24,588007	2,850589	2,2575	13,9392	0,101	88,964	0	1013,98	6,8	8,7	8,6	1	1	1	1	1	1	1	1	1	0	1	-6,765328	274,091012	313,243702	0
15.01.2021	10:07:22	0	24,704398	4,674962	2,127	358,4232	0,106	88,949	0	1013,92	6,8	8,8	8,6	1	1	1	1	1	1	1	1	1	0	1	-2,959831	274,267833	317,875775	0
15.01.2021	10:07:23	0	24,471543	2,622538	2,09925	4,0932	0,11	88,967	0	1014,18	6,8	8,7	8,6	1	1	1	1	1	1	1	1	1	0	1	-7,681466	274,147777	312,592749	0
15.01.2021	10:07:24	0	24,704466	2,73656	2,12025	352,7856	0,111	88,96	0	1014,02	6,8	8,8	8,6	1	1	1	1	1	1	1	1	1	0	1	-8,315715	274,252785	312,449485	0
15.01.2021	10:07:25	0	25,054267	4,903	2,181	2,6352	0,099	88,957	0	1013,96	6,8	8,7	8,6	1	1	1	1	1	1	1	1	1	0	1	-10,007047	274,20171	310,51927	0
15.01.2021	10:07:26	0	24,704707	2,50851	2,1585	1,5552	0,103	88,941	0	1014	6,8	8,7	8,6	1	1	1	1	1	1	1	1	1	0	1	-2,396054	274,245266	318,333969	0
15.01.2021	10:07:27	0	24,588209	4,674947	2,1135	1,9116	0,098	88,961	0	1013,92	6,8	8,7	8,6	1	1	1	1	1	1	1	1	1	0	1	-6,624383	274,242259	314,091572	0
15.01.2021	10:07:28	0	24,471539	4,332875	2,15925	347,5836	0,097	88,94	0	1013,9	6,8	8,8	8,6	1	1	1	1	1	1	1	1	1	0	1	-8,949965	274,123856	311,212478	0
15.01.2021	10:07:29	0	24,471744	3,990803	2,298	358,0848	0,098	88,957	0	1013,94	6,8	8,7	8,6	1	1	1	1	1	1	1	1	1	0	1	-7,610994	274,077591	312,335368	0
15.01.2021	10:07:30	0	24,821374	2,736549	2,34	357,3	0,102	88,958	0	1013,96	6,8	8,7	8,6	1	1	1	1	1	1	1	1	1	0	1	-9,936575	274,120867	310,211908	0
15.01.2021	10:07:31	0	24,704875	3,192638	2,2635	353,2464	0,103	88,971	0	1013,96	6,8	8,7	8,6	1	1	1	1	1	1	1	1	1	0	1	-5,84919	274,251281	314,908974	0
15.01.2021	10:07:32	0	24,588204	3,306659	2,2875	360	0,104	88,951	0	1013,9	6,8	8,8	8,6	1	1	1	1	1	1	1	1	1	0	1	-9,020437	274,209212	311,540962	0
15.01.2021	10:07:33	0	24,58841	3,078611	2,14875	347,6304	0,105	88,954	0	1014,02	6,8	8,7	8,6	1	1	1	1	1	1	1	1	1	0	1	-6,8358	274,132823	313,368538	0
15.01.2021	10:07:34	0	24,471911	2,622519	2,0175	360	0,103	88,966	0	1013,9	6,8	8,7	8,6	1	1	1	1	1	1	1	1	1	0	1	-5,990134	274,44781	315,68844	0
15.01.2021	10:07:35	0	24,705011	3,420675	1,91175	352,5048	0,104	88,942	0	1013,9	6,8	8,7	8,6	1	1	1	1	1	1	1	1	1	0	1	-7,751938	274,19721	312,753338	0
15.01.2021	10:07:36	0	24,355445	2,622516	1,815	0,8496	0,111	88,962	0	1013,96	6,8	8,7	8,6	1	1	1	1	1	1	1	1	1	0	1	-4,298802	273,977979	315,182681	0
15.01.2021	10:07:37	0	24,705078	4,560894	1,64775	3,762	0,105	88,964	0	1013,98	6,8	8,7	8,6	1	1	1	1	1	1	1	1	1	0	1	-10,711769	274,137308	309,513525	0
15.01.2021	10:07:38	0	24,705112	2,964579	1,6155	353,6064	0,103	88,952	0	1013,92	6,8	8,7	8,6	1	1	1	1	1	1	1	1	1	0	1	-4,298802	274,254289	316,473436	0
15.01.2021	10:07:39	0	24,938213	3,306644	1,6545	5,7888	0,107	88,96	0	1013,94	6,8	8,7	8,6	1	1	1	1	1	1	1	1	1	0	1	-6,412967	274,212214	314,162469	0
15.01.2021	10:07:40	0	24,472112	2,850553	1,68525	6,8184	0,112	88,973	0	1014,1	6,8	8,7	8,6	1	1	1	1	1	1	1	1	1	0	1	-8,527132	274,129833	311,663238	0
15.01.2021	10:07:41	0	24,821747	4,560882	1,65825	4,4604	0,103	88,958	0	1013,9	6,8	8,7	8,6	1	1	1	1	1	1	1	1	1	0	1	-5,990134	274,255794	314,789142	0
15.01.2021	10:07:42	0	24,938315	3,762725	1,608	0,4788	0,109	88,96	0	1013,98	6,8	8,7	8,6	1	1	1	1	1	1	1	1	1	0	1	-8,104299	274,204711	312,436049	0
15.01.2021	10:07:43	0	25,054884	4,78892	1,53675	355,392	0,098	88,964	0	1013,9	6,8	8,7	8,6	1	1	1	1	1	1	1	1	1	0	1	-7,329105	274,257298	313,45721	0
15.01.2021	10:07:44	0	25,171453	3,648698	1,596	356,9688	0,102	88,971	0	1013,96	6,8	8,7	8,6	1	1	1	1	1	1	1	1	1	0	1	-5,919662	274,231738	314,747082	0
15.01.2021	10:07:45	0	24,938418	3,876739	1,782	3,0348	0,109	88,965	0	1013,96	6,8	8,7	8,6	1	1	1	1	1	1	1	1	1	0	1	-4,439746	274,098471	315,604122	0
15.01.2021	10:07:46	0	24,938277	4,560867	1,85025	2,2968	0,105	88,946	0	1013,96	6,8	8,8	8,6	1	1	1	1	1	1	1	1	1	0	1	-8,668076	274,222724	311,956512	0
15.01.2021	10:07:47	0	24,705416	4,218799	1,89525	7,884	0,105	88,957	0	1014,06	6,8	8,7	8,6	1	1	1	1	1	1	1	1	1	0	1	-7,329105	274,088029	312,665994	0
15.01.2021	10:07:48	0	24,821811	4,560861	1,9125	357,3684	0,109	88,967	0	1014,08	6,8	8,8	8,6	1	1	1	1	1	1	1	1	1	0	1	-4,933051	274,263317	315,881426	0
15.01.2021	10:07:49	0	24,705483	3,648686	1,9095	0	0,11	88,956	0	1014,02	6,8	8,7	8,6	1	1	1	1	1	1	1	1	1	0	1	-4,157858	274,131328	316,039496	0
15.01.2021	10:07:50	0	24,822052	4,446834	1,9215	0,8532	0,11	88,971	0	1013,96	6,8	8,7	8,6	1	1	1	1	1	1	1	1	1	0	1	-3,805497	274,248273	316,938594	0
15.01.2021	10:07:51	0	24,938622	2,736511	1,91175	0,8568	0,107	88,977	0	1013,96	6,8	8,7	8,6	1	1	1	1	1	1	1	1	1	0	1	-9,161381	274,149273	311,119825	0
15.01.2021	10:07:52	0	24,589049	2,508467	1,89525	359,8488	0,104	88,97	0	1014,02	6,8	8,7	8,6	1	1	1	1	1	1	1	1	1	0	1	-5,144468	274,096979	314,892432	0
15.01.2021	10:07:53	0	24,705618	2,850529	1,94775	355,7772	0,102	88,953	0	1014,04	6,8	8,7	8,6	1	1	1	1	1	1	1	1	1	0	1	-3,171247	274,105934	316,907476	0
15.01.2021	10:07:54	0	25,05526	4,446822	1,95525	359,1252	0,109	88,975	0	1014	6,8	8,7	8,6	1	1	1	1	1	1	1	1	1	0	1	-10,711769	274,15077	309,576429	0
15.01.2021	10:07:55	0	25,055294	3,762693	1,85925	352,0656	0,103	88,97	0	1013,88	6,9	8,7	8,6	1	1	1	1	1	1	1	1	1	0	1	-11,346018	274,215217	309,243458	0
15.01.2021	10:07:56	0	24,589183	4,9029	2,08875	352,5264	0,101	88,964	0	1013,96	6,8	8,7	8,6	1	1	1	1	1	1	1	1	1	0	1	-7,188161	274,228733	313,464528	0
15.01.2021	10:07:57	0	24,47268	2,7365	2,2125	357,1956	0,101	88,959	0	1013,82	6,8	8,7	8,6	1	1	1	1	1	1	1	1	1	0	1	-10,852713	274,085046	309,128458	0
15.01.2021	10:07:58	0	25,055397	3,192582	2,1825	353,9628	0,108	88,969	0	1013,98	6,8	8,7	8,6	1	1	1	1	1	1	1	1	1	0	1	-3,735025	274,08952	316,26704	0
15.01.2021	10:07:59	0	24,822183	3,420621	2,1825	352,5084	0,103	88,96	0	1013,74	6,8	8,8	8,6	1	1	1	1	1	1	1	1	1	0	1	-8,668076	274,269338	312,174574	0
15.01.2021	10:08:00	0	24,822251	3,078555	2,26425	346,8168	0,103	88,967	0	1013,84	6,8	8,8	8,6	1	1	1	1	1	1	1	1	1	0	1	-9,725159	274,218219	310,87836	0
15.01.2021	10:08:01	0	24,822251	3,078555	2,26425	346,8168	0,103	88,967	0	1013,84	6,8	8,8	8,6	1	1	1	1	1	1	1	1	1	0	1	-8,668076	274,269338	312,174574	0
15.01.2021	10:08:02	0	24,938996	4,902881	2,25	6,4152	0,102	88,954	0	1013,78	6,9	8,7	8,6	1	1	1	1	1	1	1	1	1	0	1	-6,483439	274,171729	313,902716	0
15.01.2021	10:08:03	0	24,822319	2,964531	2,25525	0,864	0,107	88,968	0	1013,92	6,8	8,8	8,6	1	1	1	1	1	1	1	1	1	0	1	-6,553911	274,056734	313,295071	0
15.01.2021	10:08:04	0	25,17214	3,192569	2,28075	359,1252	0,111	88,973	0	1013,9	6,8	8,7	8,6	1	1	1	1	1	1	1	1	1	0	1	-8,738548	274,559051	313,461886	0
15.01.2021	10:08:05	0	25,172174	2,736486	2,2365	356,9508	0,111	88,963	0	1013,78	6,9	8,7	8,6	1	1	1	1	1	1	1	1	1	0	1	-9,020437	274,20171	311,50588	0
15.01.2021	10:08:06	0	24,822594	4,218747	2,21325	1,5624	0,11	88,951	0	1014,02	6,8	8,7	8,6	1	1	1	1	1	1	1	1	1	0	1	-9,090909	274,257298	311,695406	0
15.01.2021	10:08:07	0	24,589552	3,306583	2,244	354,978	0,113	88,959	0	1014,08	6,8	8,7	8,6	1	1	1	1	1	1	1	1	1	0	1	-3,100775	274,088029	316,894324	0
15.01.2021	10:08:08	0	24,705951	3,648641	2,3325	4,0788	0,108	88,975	0	1013,92	6,8	8,8	8,6	1	1	1	1	1	1	1	1	1	0	1	-9,795631	274,159749	310,534533	0
15.01.2021	10:08:09	0	24,589619	4,446778	2,55675	14,3064	0,108	88,972	0	1013,96	6,8	8,7	8,6	1	1	1	1	1	1	1	1	1	0	1	-4,016913	274,091012	315,992117	0
15.01.2021	10:08:10	0	24,82273	3,762656	2,57925	16,0668	0,11	88,97	0	1013,74	6,8	8,7	8,6	1	1	1	1	1	1	1	1	1	0	1	-11,839323	274,107427	308,246373	0
15.01.2021	10:08:11	0	24,939302	3,534614	2,337	8,6112	0,115	88,979	0	1014,06	6,8	8,7	8,6	1	1	1	1	1	1	1	1	1	0	1	-5,708245	274,177721	314,705921	0
15.01.2021	10:08:12	0	24,706258	3,534612	2,13825	9,468	0,115	88,978	0	1014	6,9	8,7	8,6	1	1	1	1	1	1	1	1	1	0	1	-5,355884	274,088029	314,639215	0
15.01.2021	10:08:13	0	24,822831	2,736472	2,1	352,152	0,105	88,965	0	1013,92	6,8	8,7	8,6	1	1	1	1	1	1	1	1	1	0	1	-6,624383	274,120867	313,5241	0
15.01.2021	10:08:14	0	24,939404	3,990685	2,214	356,9832	0,113	88,962	0	1014,04	6,8	8,7	8,6	1	1	1	1	1	1	1	1	1	0	1	-3,735025	274,20171	316,791292	0
15.01.2021	10:08:15	0	24,939438	2,964507	2,3025	0	0,114	88,968	0	1014,06	6,8	8,7	8,6	1	1	1	1	1	1	1	1	1	0	1	-3,030303	273,903976	316,106144	0
15.01.2021	10:08:16	0	24,589681	2,508428	2,27025	3,0168	0,113	88,983	0	1013,98	6,8	8,8	8,6	1	1	1	1	1	1	1	1	1	0	1	-9,090909	274,077591	310,855452	0
15.01.2021	10:08:17	0	25,172586	4,788813	2,19825	4,8168	0,107	88,964	0	1013,92	6,8	8,7	8,6	1	1	1	1	1	1	1	1	1	0	1	-6,976744	274,19571	313,521519	0
15.01.2021	10:08:18	0	24,70646	3,762636	2,094	360	0,119	88,974	0	1013,92	6,9	8,7	8,6	1	1	1	1	1	1	1	1	1	0	1	-5,919662	274,20321	314,61367	0
15.01.2021	10:08:19	0	24,823034	3,192538	2,20575	347,9292	0,111	88,96	0	1014	6,8	8,7	8,6	1	1	1	1	1	1	1	1	1	0	1	-9,372798	274,15077	310,9154	0
15.01.2021	10:08:20	0	24,589987	2,964498	2,274	11,3688	0,117	88,979	0	1014,04	6,8	8,7	8,6	1	1	1	1	1	1	1	1	1	0	1	-4,792107	274,101456	315,265702	0
15.01.2021	10:08:21	0	25,172723	3,420572	2,28375	360	0,11	88,975	0	1013,96	6,8	8,7	8,6	1	1	1	1	1	1	1	1	1	0	1	-7,470049	274,245266	313,259973	0
15.01.2021	10:08:22	0	25,056217	4,332722	2,18925	349,9128	0,106	88,971	0	1013,86	6,8	8,7	8,6	1	1	1	1	1	1	1	1	1	0	1	-5,144468	274,183716	315,29772	0
15.01.2021	10:08:23	0	24,823169	3,306549	2,03625	341,0352	0,114	88,969	0	1014	6,8	8,7	8,6	1	1	1	1	1	1	1	1	1	0	1	-8,80902	274,231738	311,857723	0
15.01.2021	10:08:24	0	24,706662	4,218697	1,97175	8,2476	0,109	88,972	0	1013,94	6,8	8,7	8,6	1	1	1	1	1	1	1	1	1	0	1	-8,879493	274,267833	311,956113	0
15.01.2021	10:08:25	0	24,706696	2,73645	1,85625	338,328	0,112	88,975	0	1013,96	6,9	8,7	8,6	1	1	1	1	1	1	1	1	1	0	1	-4,651163	274,138803	315,581118	0
15.01.2021	10:08:26	0	25,056353	3,648598	1,86525	352,08	0,107	88,95	0	1013,86	6,8	8,7	8,6	1	1	1	1	1	1	1	1	1	0	1	-6,976744	274,261812	313,830691	0
15.01.2021	10:08:27	0	24,823304	4,560745	2,0385	2,3004	0,109	88,962	0	1013,98	6,8	8,7	8,6	1	1	1	1	1	1	1	1	1	0	1	-5,285412	274,135813	314,932895	0
15.01.2021	10:08:28	0	25,056421	3,192519	2,0955	0,8496	0,115	88,967	0	1014,02	6,8	8,7	8,6	1	1	1	1	1	1	1	1	1	0	1	-4,087385	274,152266	316,207805	0
15.01.2021	10:08:29	0	24,823372	3,876628	2,05275	3,3804	0,112	88,962	0	1014	6,9	8,7	8,6	1	1	1	1	1	1	1	1	1	0	1	-3,805497	274,132823	316,398841	0
15.01.2021	10:08:30	0	24,706864	4,218681	1,98225	22,8384	0,116	88,973	0	1013,96	6,8	8,7	8,6	1	1	1	1	1	1	1	1	1	0	1	-6,976744	274,077591	312,969617	0
15.01.2021	10:08:31	0	24,82344	4,788769	1,85475	6,4332	0,112	88,969	0	1014	6,8	8,7	8,6	1	1	1	1	1	1	1	1	1	0	1	-3,100775	274,230235	317,558941	0
15.01.2021	10:08:32	0	24,706931	3,534566	1,75275	18,4536	0,112	88,955	0	1014,02	6,8	8,7	8,6	1	1	1	1	1	1	1	1	1	0	1	-10,147992	274,113399	309,965604	0
15.01.2021	10:08:33	0	24,706965	2,280363	1,70025	17,694	0,119	88,965	0	1014,06	6,9	8,7	8,6	1	1	1	1	1	1	1	1	1	0	1	-9,654686	274,093995	310,368277	0
15.01.2021	10:08:34	0	24,940083	2,39438	1,85475	13,158	0,116	88,973	0	1014	6,7	8,7	8,6	1	1	1	1	1	1	1	1	1	0	1	-6,20155	274,207712	314,352831	0
15.01.2021	10:08:35	0	24,940117	5,016793	2,013	10,8108	0,112	88,947	0	1014,04	6,8	8,7	8,6	1	1	1	1	1	1	1	1	1	0	1	-9,302326	274,192711	311,181915	0
15.01.2021	10:08:36	0	24,590523	2,850449	2,01675	18,0792	0,109	88,962	0	1013,86	6,8	8,7	8,6	1	1	1	1	1	1	1	1	1	0	1	-4,157858	274,101456	315,899951	0
15.01.2021	10:08:37	0	24,707099	4,902769	2,019	14,2992	0,115	88,966	0	1014	6,8	8,7	8,6	1	1	1	1	1	1	1	1	1	0	1	-9,302326	274,281386	311,596702	0
15.01.2021	10:08:38	0	25,056762	4,104641	1,98075	20,6208	0,117	88,959	0	1013,8	6,8	8,7	8,6	1	1	1	1	1	1	1	1	1	0	1	-8,104299	274,191211	312,372931	0
15.01.2021	10:08:39	0	24,47408	3,762585	1,944	20,6532	0,119	88,98	0	1014,24	6,8	8,7	8,6	1	1	1	1	1	1	1	1	1	0	1	-7,892882	274,249777	312,858245	0
15.01.2021	10:08:40	0	24,823743	2,850441	1,81425	21,3804	0,118	88,958	0	1013,98	6,8	8,7	8,6	1	1	1	1	1	1	1	1	1	0	1	-6,272023	274,240755	314,436901	0
15.01.2021	10:08:41	0	24,823777	3,078475	1,75875	18,4536	0,11	88,963	0	1014,06	6,8	8,7	8,6	1	1	1	1	1	1	1	1	1	0	1	-8,668076	274,155259	311,641102	0
15.01.2021	10:08:42	0	24,707267	4,788735	1,683	19,5228	0,116	88,949	0	1014,02	6,8	8,7	8,6	1	1	1	1	1	1	1	1	1	0	1	-5,355884	274,242259	315,360071	0
15.01.2021	10:08:43	0	24,823845	3,648558	1,6755	4,8456	0,121	88,967	0	1014,12	6,8	8,7	8,6	1	1	1	1	1	1	1	1	1	0	1	-4,933051	274,27988	315,958927	0
15.01.2021	10:08:44	0	24,823878	3,078468	1,69575	11,718	0,118	88,974	0	1013,98	6,9	8,7	8,6	1	1	1	1	1	1	1	1	1	0	1	-4,651163	274,189712	315,819058	0
15.01.2021	10:08:45	0	24,940456	3,420518	1,785	9,3564	0,12	88,969	0	1013,98	6,8	8,7	8,6	1	1	1	1	1	1	1	1	1	0	1	-5,355884	274,091012	314,653146	0
15.01.2021	10:08:46	0	24,823946	2,964447	1,79925	22,0752	0,118	88,957	0	1014	6,8	8,7	8,6	1	1	1	1	1	1	1	1	1	0	1	-7,892882	274,093995	312,130081	0
15.01.2021	10:08:47	0	24,82398	3,19248	1,812	24,3468	0,119	88,956	0	1013,82	6,8	8,7	8,6	1	1	1	1	1	1	1	1	1	0	1	-5,919662	274,19421	314,57159	0
15.01.2021	10:08:48	0	24,824013	3,306495	1,8765	15,7896	0,113	88,962	0	1013,98	6,8	8,7	8,6	1	1	1	1	1	1	1	1	1	0	1	-8,386187	274,224226	312,245425	0
15.01.2021	10:08:49	0	24,824047	2,850424	1,818	26,9028	0,117	88,966	0	1013,92	6,8	8,7	8,6	1	1	1	1	1	1	1	1	1	0	1	-6,20155	274,269338	314,6411	0
15.01.2021	10:08:50	0	25,290261	3,876575	1,77075	13,9068	0,117	88,956	0	1014,02	6,8	8,7	8,6	1	1	1	1	1	1	1	1	1	0	1	-6,976744	274,20021	313,542558	0
15.01.2021	10:08:51	0	24,824115	3,534522	1,866	7,8732	0,121	88,965	0	1014,08	6,8	8,7	8,6	1	1	1	1	1	1	1	1	1	0	1	-3,875969	274,255794	316,903307	0
15.01.2021	10:08:52	0	24,824148	3,078452	1,893	13,1544	0,119	88,941	0	1013,9	6,8	8,7	8,6	1	1	1	1	1	1	1	1	1	0	1	-7,963354	274,104441	312,108397	0
15.01.2021	10:08:53	0	24,707637	3,4205	2,1675	7,8804	0,116	88,951	0	1013,98	6,7	8,7	8,6	1	1	1	1	1	1	1	1	1	0	1	-8,738548	274,152266	311,556642	0
15.01.2021	10:08:54	0	24,591124	2,964432	2,44875	5,6772	0,119	88,96	0	1013,9	6,8	8,7	8,6	1	1	1	1	1	1	1	1	1	0	1	-4,933051	274,08952	315,069013	0
15.01.2021	10:08:55	0	24,707531	3,990579	2,50125	2,286	0,124	88,957	0	1014,08	6,8	8,8	8,6	1	1	1	1	1	1	1	1	1	0	1	-7,751938	274,231738	312,914806	0
15.01.2021	10:08:56	0	24,824283	3,078444	2,556	12,9384	0,12	88,943	0	1014,06	6,8	8,7	8,6	1	1	1	1	1	1	1	1	1	0	1	-5,567301	274,174725	314,832858	0
15.01.2021	10:08:57	0	24,940863	4,560655	2,46975	16,1028	0,115	88,967	0	1014,02	6,9	8,7	8,6	1	1	1	1	1	1	1	1	1	0	1	-8,738548	274,101456	311,319261	0
15.01.2021	10:08:58	0	24,940897	2,622375	2,35275	7,4988	0,122	88,954	0	1014,12	6,9	8,7	8,6	1	1	1	1	1	1	1	1	1	0	1	-8,527132	274,082064	311,440113	0
15.01.2021	10:08:59	0	25,174023	3,762536	2,28225	28,7208	0,122	88,963	0	1014,14	6,8	8,7	8,6	1	1	1	1	1	1	1	1	1	0	1	-8,174771	274,182217	312,260411	0
15.01.2021	10:09:00	0	25,057545	3,534499	2,4765	16,0992	0,121	88,965	0	1014,04	6,9	8,7	8,6	1	1	1	1	1	1	1	1	1	0	1	-9,795631	274,260308	311,004764	0
15.01.2021	10:09:01	0	25,057545	3,534499	2,4765	16,0992	0,121	88,965	0	1014,04	6,9	8,7	8,6	1	1	1	1	1	1	1	1	1	0	1	-4,862579	274,132823	315,341758	0
15.01.2021	10:09:02	0	24,707938	4,218593	2,66775	30,9996	0,124	88,965	0	1013,9	6,8	8,7	8,6	1	1	1	1	1	1	1	1	1	0	1	-4,721635	274,221223	315,895929	0
15.01.2021	10:09:03	0	24,941066	4,332606	2,70225	36,6012	0,124	88,966	0	1014,06	6,8	8,7	8,6	1	1	1	1	1	1	1	1	1	0	1	-5,567301	274,099963	314,483538	0
15.01.2021	10:09:04	0	24,9411	4,902682	2,70525	21,4884	0,12	88,947	0	1014,06	6,7	8,7	8,6	1	1	1	1	1	1	1	1	1	0	1	-8,174771	274,158252	312,148397	0
15.01.2021	10:09:05	0	24,941134	4,788663	2,60625	14,3028	0,125	88,961	0	1014,18	6,8	8,7	8,6	1	1	1	1	1	1	1	1	1	0	1	-8,668076	274,102948	311,396704	0
15.01.2021	10:09:06	0	24,941167	2,964409	2,868	3,3912	0,118	88,952	0	1013,88	6,8	8,7	8,6	1	1	1	1	1	1	1	1	1	0	1	-9,161381	274,218219	311,442138	0
15.01.2021	10:09:07	0	24,824654	3,306454	3,45675	0,4932	0,128	88,967	0	1014,16	6,8	8,7	8,6	1	1	1	1	1	1	1	1	1	0	1	-3,382664	274,212214	317,192772	0
15.01.2021	10:09:08	0	25,290879	3,07842	3,54225	6,426	0,123	88,955	0	1014	6,8	8,7	8,6	1	1	1	1	1	1	1	1	1	0	1	-4,510218	274,105934	315,568505	0
15.01.2021	10:09:09	0	25,290913	3,762511	3,39825	349,9488	0,124	88,942	0	1013,98	6,8	8,7	8,6	1	1	1	1	1	1	1	1	1	0	1	-5,21494	274,167235	315,150213	0
15.01.2021	10:09:10	0	24,941303	4,902663	3,52425	10,0548	0,127	88,951	0	1014,06	6,8	8,7	8,6	1	1	1	1	1	1	1	1	1	0	1	-4,510218	274,096979	315,526681	0
15.01.2021	10:09:11	0	24,824788	3,078414	3,73575	13,536	0,121	88,94	0	1014,06	6,8	8,7	8,6	1	1	1	1	1	1	1	1	1	0	1	-10,077519	274,273855	310,786267	0
15.01.2021	10:09:12	0	24,94137	3,876519	3,5235	15,3864	0,117	88,937	0	1013,94	6,9	8,7	8,6	1	1	1	1	1	1	1	1	1	0	1	-5,567301	274,123856	314,595142	0
15.01.2021	10:09:13	0	25,29105	4,788638	3,4005	8,6076	0,123	88,942	0	1014,02	6,7	8,7	8,6	1	1	1	1	1	1	1	1	1	0	1	-5,990134	274,20171	314,536183	0
15.01.2021	10:09:14	0	24,824889	3,648484	3,05925	17,2404	0,118	88,935	0	1013,92	6,9	8,7	8,6	1	1	1	1	1	1	1	1	1	0	1	-6,765328	274,263317	314,049149	0
15.01.2021	10:09:15	0	25,058021	4,674617	3,1065	8,2584	0,126	88,943	0	1013,86	6,8	8,7	8,6	1	1	1	1	1	1	1	1	1	0	1	-4,298802	274,102948	315,765978	0
15.01.2021	10:09:16	0	25,174604	4,560599	3,25125	11,7036	0,122	88,93	0	1013,98	6,8	8,7	8,6	1	1	1	1	1	1	1	1	1	0	1	-7,892882	274,215217	312,696594	0
15.01.2021	10:09:17	0	24,708441	4,332566	3,22125	7,5132	0,126	88,925	0	1014	6,8	8,7	8,6	1	1	1	1	1	1	1	1	1	0	1	-8,879493	274,215217	311,709984	0
15.01.2021	10:09:18	0	24,708474	3,990519	3,243	9,7452	0,122	88,931	0	1013,94	6,8	8,7	8,6	1	1	1	1	1	1	1	1	1	0	1	-9,725159	274,258803	311,068196	0
15.01.2021	10:09:19	0	24,941607	4,104531	3,0885	7,1172	0,122	88,924	0	1014,1	6,9	8,7	8,6	1	1	1	1	1	1	1	1	1	0	1	-10,007047	274,221223	310,610517	0
15.01.2021	10:09:20	0	24,825091	3,078396	3,111	8,2548	0,121	88,926	0	1014	6,8	8,7	8,6	1	1	1	1	1	1	1	1	1	0	1	-6,20155	274,164241	314,149605	0
15.01.2021	10:09:21	0	24,941675	2,96438	3,32175	6,8148	0,128	88,934	0	1014,06	6,9	8,7	8,6	1	1	1	1	1	1	1	1	1	0	1	-7,258633	274,08952	312,743431	0
15.01.2021	10:09:22	0	25,058258	2,850363	3,47175	1,1556	0,123	88,924	0	1014,08	6,9	8,7	8,6	1	1	1	1	1	1	1	1	1	0	1	-3,24172	274,140298	316,997548	0
15.01.2021	10:09:23	0	24,825192	2,850361	3,35175	7,8624	0,123	88,921	0	1014,06	6,8	8,7	8,6	1	1	1	1	1	1	1	1	1	0	1	-4,157858	274,15077	316,13034	0
15.01.2021	10:09:24	0	24,708675	2,85036	3,447	10,0476	0,124	88,923	0	1014,1	6,8	8,7	8,6	1	1	1	1	1	1	1	1	1	0	1	-7,047216	274,110413	313,052428	0
15.01.2021	10:09:25	0	25,291461	3,990501	3,3225	9,3528	0,123	88,913	0	1014,08	6,9	8,7	8,6	1	1	1	1	1	1	1	1	1	0	1	-8,45666	274,216718	312,139838	0
15.01.2021	10:09:26	0	24,708742	4,674584	3,19575	360	0,123	88,922	0	1014	6,8	8,7	8,6	1	1	1	1	1	1	1	1	1	0	1	-10,077519	274,225728	310,561118	0
15.01.2021	10:09:27	0	24,941877	4,446552	3,252	3,7764	0,12	88,922	0	1014	6,8	8,7	8,6	1	1	1	1	1	1	1	1	1	0	1	-6,131078	274,254289	314,641159	0
15.01.2021	10:09:28	0	25,058462	4,674578	3,17025	355,4028	0,122	88,922	0	1013,98	6,9	8,7	8,6	1	1	1	1	1	1	1	1	1	0	1	-8,738548	274,20171	311,787769	0
15.01.2021	10:09:29	0	25,058496	4,446546	2,99475	351,684	0,121	88,917	0	1014	6,8	8,7	8,6	1	1	1	1	1	1	1	1	1	0	1	-8,315715	274,101456	311,742094	0
15.01.2021	10:09:30	0	25,291633	3,306404	2,69775	6,0552	0,122	88,911	0	1014	6,8	8,7	8,6	1	1	1	1	1	1	1	1	1	0	1	-6,412967	274,126844	313,763438	0
15.01.2021	10:09:31	0	24,708909	2,736333	2,72325	360	0,124	88,918	0	1014,02	6,9	8,7	8,6	1	1	1	1	1	1	1	1	1	0	1	-5,567301	274,096979	314,469599	0
15.01.2021	10:09:32	0	25,058598	3,078372	3,33525	11,178	0,126	88,899	0	1014	6,9	8,7	8,6	1	1	1	1	1	1	1	1	1	0	1	-5,355884	274,135813	314,862423	0
15.01.2021	10:09:33	0	24,592425	2,736329	3,771	8,6148	0,126	88,925	0	1014,14	6,9	8,7	8,6	1	1	1	1	1	1	1	1	1	0	1	-7,892882	274,180718	312,535293	0
15.01.2021	10:09:34	0	25,175217	5,0166	3,546	8,5968	0,128	88,907	0	1013,94	6,9	8,7	8,6	1	1	1	1	1	1	1	1	1	0	1	-6,624383	274,243762	314,098605	0
15.01.2021	10:09:35	0	25,175252	2,508299	3,53175	13,914	0,126	88,925	0	1014	6,8	8,7	8,6	1	1	1	1	1	1	1	1	1	0	1	-5,637773	274,146281	314,629451	0
15.01.2021	10:09:36	0	24,942181	3,990472	3,50325	360	0,129	88,91	0	1013,94	6,9	8,7	8,6	1	1	1	1	1	1	1	1	1	0	1	-2,043693	274,258803	318,749662	0
15.01.2021	10:09:37	0	24,942215	4,218497	3,47625	352,494	0,128	88,912	0	1014,02	6,7	8,7	8,6	1	1	1	1	1	1	1	1	1	0	1	-5,84919	274,237749	314,845671	0
15.01.2021	10:09:38	0	24,942249	4,446521	3,348	347,9724	0,125	88,904	0	1014,12	6,8	8,7	8,6	1	1	1	1	1	1	1	1	1	0	1	-5,778717	274,225728	314,85992	0
15.01.2021	10:09:39	0	25,175388	3,762438	3,38175	353,538	0,122	88,915	0	1013,96	6,8	8,7	8,6	1	1	1	1	1	1	1	1	1	0	1	-7,188161	274,135813	313,030147	0
15.01.2021	10:09:40	0	24,825763	2,964343	3,2955	345,3696	0,123	88,913	0	1014,04	6,9	8,7	8,6	1	1	1	1	1	1	1	1	1	0	1	-5,426357	274,113399	314,687239	0
15.01.2021	10:09:41	0	25,058727	2,622302	2,89275	1,152	0,133	88,915	0	1014,04	6,8	8,8	8,6	1	1	1	1	1	1	1	1	1	0	1	-3,735025	274,128339	316,448362	0
15.01.2021	10:09:42	0	25,291866	2,850326	2,511	347,5152	0,127	88,906	0	1013,9	6,8	8,8	8,6	1	1	1	1	1	1	1	1	1	0	1	-5,21494	274,153762	315,087244	0
15.01.2021	10:09:43	0	24,825864	3,07835	2,3535	0	0,122	88,919	0	1013,92	6,8	8,7	8,6	1	1	1	1	1	1	1	1	1	0	1	-2,748414	274,251281	318,009749	0
15.01.2021	10:09:44	0	24,942451	4,560516	2,391	3,0312	0,126	88,917	0	1014,1	6,7	8,7	8,6	1	1	1	1	1	1	1	1	1	0	1	-6,412967	274,156756	313,903206	0
15.01.2021	10:09:45	0	25,059038	2,622295	2,56725	345,0528	0,125	88,908	0	1013,94	6,8	8,7	8,6	1	1	1	1	1	1	1	1	1	0	1	-8,033827	274,080573	311,926457	0
15.01.2021	10:09:46	0	25,29218	4,788536	2,916	356,1516	0,124	88,899	0	1013,94	6,9	8,7	8,6	1	1	1	1	1	1	1	1	1	0	1	-5,426357	274,17922	314,994814	0
15.01.2021	10:09:47	0	24,942552	2,394266	3,1365	352,728	0,127	88,909	0	1014	6,8	8,7	8,6	1	1	1	1	1	1	1	1	1	0	1	-7,681466	274,257298	313,104849	0
15.01.2021	10:09:48	0	24,826032	3,420378	3,1485	356,22	0,126	88,893	0	1013,92	6,8	8,7	8,6	1	1	1	1	1	1	1	1	1	0	1	-8,738548	274,077591	311,207813	0
15.01.2021	10:09:49	0	25,059174	3,534389	3,1635	344,0016	0,122	88,885	0	1013,94	6,7	8,7	8,6	1	1	1	1	1	1	1	1	1	0	1	-5,144468	274,245266	315,585554	0
15.01.2021	10:09:50	0	24,709544	2,622287	3,05925	8,5968	0,126	88,903	0	1014	6,9	8,7	8,6	1	1	1	1	1	1	1	1	1	0	1	-4,016913	274,080573	315,94337	0
15.01.2021	10:09:51	0	24,942687	3,876421	2,82825	359,0676	0,123	88,879	0	1013,88	6,8	8,7	8,6	1	1	1	1	1	1	1	1	1	0	1	-6,412967	274,123856	313,749476	0
15.01.2021	10:09:52	0	25,40894	4,560492	2,58825	355,8276	0,125	88,895	0	1014,02	6,9	8,7	8,6	1	1	1	1	1	1	1	1	1	0	1	-4,157858	274,267833	316,677748	0
15.01.2021	10:09:53	0	25,408974	3,534379	2,481	356,5368	0,131	88,9	0	1014,12	6,7	8,7	8,6	1	1	1	1	1	1	1	1	1	0	1	-3,030303	274,192711	317,453938	0
15.01.2021	10:09:54	0	25,292453	4,446474	2,601	348,732	0,128	88,891	0	1013,92	6,9	8,7	8,6	1	1	1	1	1	1	1	1	1	0	1	-6,906272	274,228733	313,746417	0
15.01.2021	10:09:55	0	24,826266	3,420342	2,6535	2,6352	0,122	88,893	0	1013,96	6,8	8,7	8,7	1	1	1	1	1	1	1	1	1	0	1	-4,580691	274,20171	315,945626	0
15.01.2021	10:09:56	0	24,8263	3,648384	2,8155	4,0716	0,127	88,88	0	1013,96	6,8	8,7	8,6	1	1	1	1	1	1	1	1	1	0	1	-7,188161	274,105934	312,890563	0
15.01.2021	10:09:57	0	24,942889	2,96431	2,937	359,4456	0,129	88,889	0	1014	6,8	8,7	8,6	1	1	1	1	1	1	1	1	1	0	1	-6,624383	274,111906	313,482236	0
15.01.2021	10:09:58	0	24,942923	4,90251	3,078	8,982	0,132	88,878	0	1014,02	6,9	8,7	8,6	1	1	1	1	1	1	1	1	1	0	1	-7,399577	274,209212	313,161822	0
15.01.2021	10:09:59	0	24,942956	4,560472	3,0525	2,3004	0,131	88,897	0	1014,02	6,8	8,7	8,6	1	1	1	1	1	1	1	1	1	0	1	-10,007047	274,261812	310,800388	0
15.01.2021	10:10:00	0	24,942849	4,332443	3,0825	16,092	0,132	88,904	0	1014,04	6,8	8,8	8,6	1	1	1	1	1	1	1	1	1	0	1	-7,258633	274,252785	313,506567	0
15.01.2021	10:10:01	0	24,942849	4,332443	3,0825	16,092	0,132	88,904	0	1014,04	6,8	8,8	8,6	1	1	1	1	1	1	1	1	1	0	1	-7,258633	274,252785	313,506567	0
15.01.2021	10:10:02	0	25,059614	3,306336	2,87175	14,94	0,121	88,903	0	1013,96	6,8	8,7	8,6	1	1	1	1	1	1	1	1	1	0	1	-12,332629	274,140298	307,906639	0
15.01.2021	10:10:03	0	24,943091	2,622264	2,808	16,8516	0,127	88,898	0	1014,02	6,7	8,7	8,6	1	1	1	1	1	1	1	1	1	0	1	-4,369274	274,216718	316,227223	0
15.01.2021	10:10:04	0	25,059681	3,648366	2,8815	2,6424	0,127	88,908	0	1014,04	6,8	8,7	8,6	1	1	1	1	1	1	1	1	1	0	1	-1,902748	274,267833	318,932857	0
15.01.2021	10:10:05	0	24,943158	2,622261	3,27525	4,1688	0,129	88,901	0	1014,18	6,8	8,7	8,6	1	1	1	1	1	1	1	1	1	0	1	-3,382664	274,132823	316,821674	0
15.01.2021	10:10:06	0	25,176306	4,44644	3,71325	5,67	0,122	88,89	0	1014,04	6,8	8,7	8,6	1	1	1	1	1	1	1	1	1	0	1	-4,721635	274,264822	316,099884	0
15.01.2021	10:10:07	0	25,059783	4,332426	3,7065	3,0384	0,128	88,902	0	1014,04	6,8	8,7	8,6	1	1	1	1	1	1	1	1	1	0	1	-6,342495	274,188213	314,120717	0
15.01.2021	10:10:08	0	24,826702	4,218412	3,68775	6,0624	0,123	88,886	0	1013,92	6,9	8,7	8,6	1	1	1	1	1	1	1	1	1	0	1	-5,708245	274,257298	315,07807	0
15.01.2021	10:10:09	0	24,826736	3,306321	3,78675	5,2272	0,127	88,898	0	1014,08	6,8	8,7	8,6	1	1	1	1	1	1	1	1	1	0	1	-8,315715	274,270844	312,53398	0
15.01.2021	10:10:10	0	25,176266	4,67445	3,92775	360	0,124	88,888	0	1013,88	6,8	8,8	8,6	1	1	1	1	1	1	1	1	1	0	1	-9,513742	274,206211	311,033622	0
15.01.2021	10:10:11	0	25,176476	2,964284	3,921	4,8456	0,13	88,897	0	1014	6,8	8,7	8,6	1	1	1	1	1	1	1	1	1	0	1	-5,355884	274,111906	314,750735	0
15.01.2021	10:10:12	0	24,826662	3,078293	3,78675	17,7048	0,131	88,887	0	1013,96	6,8	8,8	8,6	1	1	1	1	1	1	1	1	1	0	1	-8,527132	274,095487	311,5028	0
15.01.2021	10:10:13	0	25,40966	4,332409	3,69825	10,0548	0,124	88,904	0	1014,16	6,8	8,7	8,6	1	1	1	1	1	1	1	1	1	0	1	-11,205074	274,215217	309,384402	0
15.01.2021	10:10:14	0	25,176578	4,788449	3,69525	10,4184	0,121	88,893	0	1014,02	6,8	8,7	8,6	1	1	1	1	1	1	1	1	1	0	1	-10,007047	274,273855	310,85674	0
15.01.2021	10:10:15	0	25,176612	2,850265	3,64725	3,7548	0,128	88,908	0	1013,98	6,7	8,7	8,6	1	1	1	1	1	1	1	1	1	0	1	-9,584214	274,186713	310,871989	0
15.01.2021	10:10:16	0	24,82697	2,964274	3,48975	5,2236	0,124	88,897	0	1014,04	6,8	8,7	8,6	1	1	1	1	1	1	1	1	1	0	1	-5,708245	274,098471	314,335624	0
15.01.2021	10:10:17	0	25,293238	4,90245	3,45825	5,3028	0,122	88,892	0	1013,78	6,9	8,7	8,6	1	1	1	1	1	1	1	1	1	0	1	-9,020437	274,227231	311,625226	0
15.01.2021	10:10:18	0	24,943596	2,622239	3,50475	4,8348	0,131	88,904	0	1014,18	6,8	8,7	8,6	1	1	1	1	1	1	1	1	1	0	1	-3,523608	274,135813	316,694699	0
15.01.2021	10:10:19	0	25,176747	4,560413	3,3615	3,3948	0,123	88,893	0	1014,04	6,9	8,7	8,6	1	1	1	1	1	1	1	1	1	0	1	-6,412967	274,095487	313,616964	0
15.01.2021	10:10:20	0	25,4099	4,104369	3,31125	6,0624	0,124	88,877	0	1013,94	6,8	8,7	8,6	1	1	1	1	1	1	1	1	1	0	1	-7,399577	274,14329	312,853667	0
15.01.2021	10:10:21	0	24,943697	2,964264	3,2985	2,3004	0,127	88,895	0	1014,02	6,8	8,7	8,6	1	1	1	1	1	1	1	1	1	0	1	-8,174771	274,111906	311,931849	0
15.01.2021	10:10:22	0	25,176849	2,394212	3,21525	4,4748	0,129	88,88	0	1014,02	6,9	8,7	8,6	1	1	1	1	1	1	1	1	1	0	1	-4,439746	274,102948	315,625034	0
15.01.2021	10:10:23	0	25,410002	3,876341	3,17475	6,4296	0,126	88,875	0	1014,1	6,8	8,7	8,6	1	1	1	1	1	1	1	1	1	0	1	-3,24172	274,239252	317,460172	0
15.01.2021	10:10:24	0	24,943797	3,534308	3,033	10,0584	0,126	88,895	0	1014,04	6,8	8,7	8,6	1	1	1	1	1	1	1	1	1	0	1	-4,22833	274,088029	315,766769	0
15.01.2021	10:10:25	0	25,060391	3,762326	2,946	0,4932	0,126	88,883	0	1014,02	6,8	8,7	8,6	1	1	1	1	1	1	1	1	1	0	1	-6,483439	274,173227	313,909718	0
15.01.2021	10:10:26	0	25,176985	2,850245	2,9685	0	0,12	88,871	0	1013,88	6,8	8,7	8,6	1	1	1	1	1	1	1	1	1	0	1	-9,161381	274,245266	311,568641	0
15.01.2021	10:10:27	0	25,293579	3,192272	2,943	8,2584	0,132	88,883	0	1014,02	6,8	8,7	8,6	1	1	1	1	1	1	1	1	1	0	1	-6,060606	274,255794	314,71867	0
15.01.2021	10:10:28	0	25,526734	2,964251	2,8065	7,5024	0,124	88,876	0	1014,06	6,8	8,7	8,6	1	1	1	1	1	1	1	1	1	0	1	-3,523608	274,176223	316,883554	0
15.01.2021	10:10:29	0	25,17691	3,762316	2,63025	0,4968	0,133	88,872	0	1014,06	6,8	8,8	8,6	1	1	1	1	1	1	1	1	1	0	1	-4,087385	274,101456	315,970423	0
15.01.2021	10:10:30	0	25,06056	2,736228	2,6475	7,8516	0,133	88,869	0	1013,96	6,8	8,7	8,6	1	1	1	1	1	1	1	1	1	0	1	-9,513742	274,27988	311,378236	0
15.01.2021	10:10:31	0	25,177154	2,850236	2,66625	7,5096	0,128	88,869	0	1014,12	6,8	8,7	8,6	1	1	1	1	1	1	1	1	1	0	1	-3,664553	274,180718	316,763623	0
15.01.2021	10:10:32	0	25,060452	4,332356	2,751	3,7728	0,119	88,863	0	1014,04	6,8	8,8	8,6	1	1	1	1	1	1	1	1	1	0	1	-4,721635	274,252785	316,043565	0
15.01.2021	10:10:33	0	25,410345	4,218344	2,7375	12,8448	0,127	88,864	0	1014,06	6,8	8,7	8,6	1	1	1	1	1	1	1	1	1	0	1	-5,990134	274,129833	314,200236	0
15.01.2021	10:10:34	0	25,526761	4,33235	2,68125	5,22	0,122	88,864	0	1014,06	6,9	8,8	8,6	1	1	1	1	1	1	1	1	1	0	1	-6,412967	274,180718	314,015209	0
15.01.2021	10:10:35	0	25,17729	3,078247	2,613	12,9456	0,127	88,857	0	1014,06	6,8	8,7	8,6	1	1	1	1	1	1	1	1	1	0	1	-10,500352	274,273855	310,363434	0
15.01.2021	10:10:36	0	25,527009	3,64829	2,68725	8,6076	0,125	88,863	0	1014,04	6,8	8,7	8,6	1	1	1	1	1	1	1	1	1	0	1	-7,047216	274,222724	313,577372	0
15.01.2021	10:10:37	0	25,177358	3,648266	2,63625	4,086	0,125	88,852	0	1014,04	6,8	8,7	8,7	1	1	1	1	1	1	1	1	1	0	1	-5,073996	274,15077	315,214202	0
15.01.2021	10:10:38	0	25,177392	3,648285	2,3985	18,4572	0,129	88,848	0	1013,94	6,8	8,7	8,6	1	1	1	1	1	1	1	1	1	0	1	-4,298802	274,092503	315,717195	0
15.01.2021	10:10:39	0	25,293988	4,446345	2,3805	357,9336	0,126	88,837	0	1014,02	6,8	8,7	8,6	1	1	1	1	1	1	1	1	1	0	1	-7,258633	274,168733	313,11352	0
15.01.2021	10:10:40	0	25,177459	3,762267	2,53275	9,3564	0,127	88,858	0	1014,1	6,8	8,7	8,7	1	1	1	1	1	1	1	1	1	0	1	-9,161381	274,105934	310,917343	0
15.01.2021	10:10:41	0	25,527181	3,990304	2,61825	7,4988	0,122	88,839	0	1014,1	6,8	8,7	8,6	1	1	1	1	1	1	1	1	1	0	1	-10,852713	274,17922	309,568457	0
15.01.2021	10:10:42	0	25,527036	4,446336	2,559	356,238	0,118	88,855	0	1014,06	6,8	8,8	8,6	1	1	1	1	1	1	1	1	1	0	1	-3,735025	274,102948	316,329755	0
15.01.2021	10:10:43	0	25,060998	2,964222	2,493	0,5832	0,127	88,843	0	1014,02	6,8	8,7	8,6	1	1	1	1	1	1	1	1	1	0	1	-6,624383	274,152266	313,670807	0
15.01.2021	10:10:44	0	25,293981	3,306246	2,5005	16,866	0,124	88,842	0	1014,04	6,8	8,8	8,6	1	1	1	1	1	1	1	1	1	0	1	-5,144468	274,282893	315,76161	0
15.01.2021	10:10:45	0	25,061066	4,788353	2,49975	4,0644	0,128	88,855	0	1013,9	6,8	8,7	8,6	1	1	1	1	1	1	1	1	1	0	1	-5,637773	274,114893	314,482798	0
15.01.2021	10:10:46	0	25,061099	3,648267	2,46825	2,6496	0,124	88,871	0	1014,1	6,8	8,7	8,6	1	1	1	1	1	1	1	1	1	0	1	-7,047216	274,129833	313,143154	0
15.01.2021	10:10:47	0	25,527387	4,218305	2,85225	6,8004	0,127	88,866	0	1013,94	6,8	8,7	8,6	1	1	1	1	1	1	1	1	1	0	1	-6,342495	274,236246	314,345336	0
15.01.2021	10:10:48	0	25,17773	4,560327	3,0915	2,3076	0,128	88,869	0	1014,16	6,8	8,7	8,6	1	1	1	1	1	1	1	1	1	0	1	-7,82241	274,224226	312,809202	0
15.01.2021	10:10:49	0	25,644019	4,788341	3,144	0,4788	0,125	88,88	0	1013,98	6,8	8,7	8,6	1	1	1	1	1	1	1	1	1	0	1	-6,131078	274,137308	314,094215	0
15.01.2021	10:10:50	0	25,410926	3,192225	3,174	353,9412	0,129	88,867	0	1014	6,8	8,7	8,6	1	1	1	1	1	1	1	1	1	0	1	-5,778717	274,20171	314,7476	0
15.01.2021	10:10:51	0	25,294219	4,560318	3,11925	10,8936	0,124	88,846	0	1014,08	6,8	8,8	8,6	1	1	1	1	1	1	1	1	1	0	1	-5,144468	274,258803	315,648886	0
15.01.2021	10:10:52	0	25,177866	2,850197	3,0885	10,0404	0,124	88,859	0	1014	6,8	8,7	8,6	1	1	1	1	1	1	1	1	1	0	1	-4,862579	274,104441	315,209172	0
15.01.2021	10:10:53	0	25,527593	4,67432	3,15975	11,6964	0,121	88,853	0	1013,96	6,8	8,7	8,6	1	1	1	1	1	1	1	1	1	0	1	-7,117689	274,185214	313,331507	0
15.01.2021	10:10:54	0	25,527627	3,990271	3,1095	3,0276	0,124	88,849	0	1014,08	6,8	8,7	8,6	1	1	1	1	1	1	1	1	1	0	1	-5,990134	274,096979	314,046766	0
15.01.2021	10:10:55	0	25,644226	4,446299	3,20925	4,1832	0,121	88,854	0	1013,82	6,8	8,7	8,6	1	1	1	1	1	1	1	1	1	0	1	-9,302326	274,185214	311,14687	0
15.01.2021	10:10:56	0	25,294566	2,85019	3,246	0	0,127	88,852	0	1014,02	6,7	8,7	8,6	1	1	1	1	1	1	1	1	1	0	1	-6,20155	274,251281	314,556613	0
15.01.2021	10:10:57	0	25,2946	4,902323	3,057	356,4864	0,123	88,871	0	1014,2	6,9	8,7	8,6	1	1	1	1	1	1	1	1	1	0	1	-9,372798	274,213715	311,209658	0
15.01.2021	10:10:58	0	25,527764	4,332283	2,86875	354,3012	0,13	88,86	0	1014	6,8	8,7	8,6	1	1	1	1	1	1	1	1	1	0	1	-7,82241	274,263317	312,992067	0
15.01.2021	10:10:59	0	25,294668	3,534229	2,6145	1,9296	0,128	88,854	0	1014,04	6,8	8,7	8,6	1	1	1	1	1	1	1	1	1	0	1	-7,751938	274,158252	312,57123	0
15.01.2021	10:11:00	0	25,527867	4,674268	2,2605	5,202	0,119	88,849	0	1014,06	6,8	8,7	8,7	1	1	1	1	1	1	1	1	1	0	1	-4,721635	274,110413	315,37801	0
15.01.2021	10:11:01	0	25,527867	4,674268	2,2605	5,202	0,119	88,849	0	1014,06	6,8	8,7	8,7	1	1	1	1	1	1	1	1	1	0	1	-6,976744	274,228733	313,675945	0
15.01.2021	10:11:02	0	25,644467	2,850162	2,298	357,5412	0,126	88,85	0	1013,96	6,8	8,7	8,7	1	1	1	1	1	1	1	1	1	0	1	-8,104299	274,270844	312,745396	0
15.01.2021	10:11:03	0	25,644501	3,990248	2,35275	359,55	0,127	88,848	0	1013,98	6,8	8,7	8,6	1	1	1	1	1	1	1	1	1	0	1	-9,866103	274,212214	310,709333	0
15.01.2021	10:11:04	0	25,178271	3,876238	2,35425	359,9208	0,123	88,842	0	1013,96	6,8	8,7	8,6	1	1	1	1	1	1	1	1	1	0	1	-6,906272	274,105934	313,172452	0
15.01.2021	10:11:05	0	25,761136	3,762229	2,3265	15,7536	0,126	88,859	0	1014	6,8	8,7	8,6	1	1	1	1	1	1	1	1	1	0	1	-7,82241	274,156756	312,493762	0
15.01.2021	10:11:06	0	25,294905	2,736165	2,52825	0	0,118	88,864	0	1014,02	6,8	8,7	8,6	1	1	1	1	1	1	1	1	1	0	1	-5,637773	274,19571	314,86049	0
15.01.2021	10:11:07	0	25,294939	3,876231	2,793	2,6316	0,129	88,841	0	1014,08	6,8	8,7	8,6	1	1	1	1	1	1	1	1	1	0	1	-4,651163	274,267833	316,184443	0
15.01.2021	10:11:08	0	25,644673	4,788282	3,03	3,7728	0,122	88,857	0	1014,04	6,8	8,7	8,6	1	1	1	1	1	1	1	1	1	0	1	-4,439746	274,170231	315,939407	0
15.01.2021	10:11:09	0	25,411574	5,130299	3,288	10,5372	0,129	88,868	0	1014,08	6,8	8,7	8,6	1	1	1	1	1	1	1	1	1	0	1	-3,59408	274,114893	316,526491	0
15.01.2021	10:11:10	0	25,295041	3,078177	3,471	12,0924	0,127	88,862	0	1014,12	6,8	8,7	8,6	1	1	1	1	1	1	1	1	1	0	1	-8,80902	274,105934	311,269703	0
15.01.2021	10:11:11	0	25,761344	3,534201	3,4215	6,4188	0,125	88,853	0	1014,06	6,8	8,7	8,6	1	1	1	1	1	1	1	1	1	0	1	-6,342495	274,20021	314,176808	0
15.01.2021	10:11:12	0	25,528244	4,218238	3,18675	6,4368	0,125	88,856	0	1014,18	6,8	8,7	8,6	1	1	1	1	1	1	1	1	1	0	1	-3,030303	274,119373	317,111201	0
15.01.2021	10:11:13	0	25,644845	3,306184	3,2265	2,6316	0,12	88,854	0	1013,98	6,8	8,7	8,6	1	1	1	1	1	1	1	1	1	0	1	-6,8358	274,131328	313,361554	0
15.01.2021	10:11:14	0	25,64488	4,332238	3,54675	4,5504	0,128	88,878	0	1014,04	6,8	8,7	8,6	1	1	1	1	1	1	1	1	1	0	1	-7,188161	274,147777	313,086054	0
15.01.2021	10:11:15	0	25,411779	2,622143	3,64725	1,9188	0,129	88,874	0	1014	6,8	8,7	8,6	1	1	1	1	1	1	1	1	1	0	1	-7,188161	274,102948	312,876619	0
15.01.2021	10:11:16	0	25,528381	3,306178	3,69225	7,5096	0,125	88,853	0	1013,9	6,8	8,7	8,6	1	1	1	1	1	1	1	1	1	0	1	-5,637773	274,164241	314,713382	0
15.01.2021	10:11:17	0	25,295102	3,876206	3,50775	3,78	0,129	88,873	0	1013,9	6,8	8,8	8,6	1	1	1	1	1	1	1	1	1	0	1	-7,610994	274,266328	313,217569	0
15.01.2021	10:11:18	0	25,644838	5,244275	3,24225	357,6492	0,119	88,873	0	1013,98	6,8	8,8	8,6	1	1	1	1	1	1	1	1	1	0	1	-6,624383	274,140298	313,614884	0
15.01.2021	10:11:19	0	25,411915	3,078159	2,994	357,0336	0,125	88,875	0	1013,86	6,8	8,7	8,6	1	1	1	1	1	1	1	1	1	0	1	-10,570825	274,147777	309,70339	0
15.01.2021	10:11:20	0	25,528518	2,964152	2,7465	351,0648	0,128	88,878	0	1013,9	6,8	8,7	8,6	1	1	1	1	1	1	1	1	1	0	1	-8,104299	274,263317	312,710178	0
15.01.2021	10:11:21	0	26,111395	4,788242	2,6385	348,6456	0,126	88,884	0	1014	6,8	8,7	8,6	1	1	1	1	1	1	1	1	1	0	1	-2,114165	274,134318	318,097157	0
15.01.2021	10:11:22	0	25,994862	4,446222	2,46375	346,1184	0,124	88,879	0	1014,1	6,8	8,7	8,6	1	1	1	1	1	1	1	1	1	0	1	-5,21494	274,129833	314,97543	0
15.01.2021	10:11:23	0	25,761758	4,104177	2,31675	354,0132	0,124	88,886	0	1014,02	6,8	8,7	8,7	1	1	1	1	1	1	1	1	1	0	1	-4,087385	274,17922	316,333785	0
15.01.2021	10:11:24	0	25,412085	3,07815	2,337	0,5688	0,119	88,863	0	1013,88	6,8	8,7	8,6	1	1	1	1	1	1	1	1	1	0	1	-7,117689	274,116386	313,00986	0
15.01.2021	10:11:25	0	25,645258	3,420164	2,56875	2,628	0,123	88,892	0	1014,06	6,8	8,7	8,6	1	1	1	1	1	1	1	1	1	0	1	-9,584214	274,20321	310,949118	0
15.01.2021	10:11:26	0	25,412153	3,078127	2,70075	7,4952	0,123	88,87	0	1013,88	6,8	8,7	8,7	1	1	1	1	1	1	1	1	1	0	1	-5,355884	274,260308	315,44451	0
15.01.2021	10:11:27	0	25,412187	3,192149	2,81925	6,0588	0,125	88,888	0	1014,02	6,8	8,7	8,6	1	1	1	1	1	1	1	1	1	0	1	-4,298802	274,08952	315,703262	0
15.01.2021	10:11:28	0	25,645361	4,218194	2,86425	3,7656	0,125	88,882	0	1014,04	6,8	8,7	8,6	1	1	1	1	1	1	1	1	1	0	1	-8,597604	274,182217	311,837578	0
15.01.2021	10:11:29	0	25,645216	4,56018	2,93775	10,4472	0,126	88,893	0	1014	6,8	8,8	8,7	1	1	1	1	1	1	1	1	1	0	1	-5,21494	274,107427	314,870757	0
15.01.2021	10:11:30	0	25,761819	2,850127	2,84325	1,1592	0,124	88,887	0	1014	6,8	8,8	8,6	1	1	1	1	1	1	1	1	1	0	1	-4,157858	274,152266	316,137333	0
15.01.2021	10:11:31	0	25,645464	4,560201	2,685	359,8596	0,119	88,881	0	1014,02	6,8	8,7	8,6	1	1	1	1	1	1	1	1	1	0	1	-4,792107	274,284399	316,121022	0
15.01.2021	10:11:32	0	25,645498	2,39409	2,5965	7,4988	0,127	88,898	0	1014,06	6,8	8,7	8,7	1	1	1	1	1	1	1	1	1	0	1	-7,258633	274,128339	312,924754	0
15.01.2021	10:11:33	0	25,762103	3,648156	2,61975	360	0,122	88,887	0	1014,02	6,8	8,7	8,6	1	1	1	1	1	1	1	1	1	0	1	-0	274,19721	320,505276	0
15.01.2021	10:11:34	0	25,762138	3,192115	2,60325	9,3564	0,128	88,884	0	1013,96	6,8	8,7	8,7	1	1	1	1	1	1	1	1	1	0	1	-6,8358	274,266328	313,992762	0
15.01.2021	10:11:35	0	25,878743	4,788199	2,724	360	0,128	88,898	0	1013,94	6,8	8,7	8,6	1	1	1	1	1	1	1	1	1	0	1	-5,708245	274,114893	314,412326	0
15.01.2021	10:11:36	0	25,762207	4,446182	2,8215	360	0,13	88,883	0	1013,96	6,8	8,7	8,6	1	1	1	1	1	1	1	1	1	0	1	-7,188161	274,149273	313,093045	0
15.01.2021	10:11:37	0	25,762241	4,674188	2,937	3,7836	0,123	88,891	0	1014,02	6,8	8,7	8,6	1	1	1	1	1	1	1	1	1	0	1	-5,426357	274,278374	315,458573	0
15.01.2021	10:11:38	0	25,529133	3,078122	3,09525	1,1592	0,126	88,893	0	1013,96	6,8	8,7	8,6	1	1	1	1	1	1	1	1	1	0	1	-4,862579	274,230235	315,797137	0
15.01.2021	10:11:39	0	25,645739	4,218164	3,17325	16,47	0,124	88,902	0	1014	6,8	8,7	8,6	1	1	1	1	1	1	1	1	1	0	1	-9,231853	274,144785	311,028381	0
15.01.2021	10:11:40	0	25,878916	3,762122	2,9865	16,8516	0,127	88,905	0	1014,08	6,8	8,7	8,7	1	1	1	1	1	1	1	1	1	0	1	-7,540521	274,102948	312,524258	0
15.01.2021	10:11:41	0	25,529236	3,762119	2,82225	2,6568	0,128	88,895	0	1014,06	6,8	8,7	8,7	1	1	1	1	1	1	1	1	1	0	1	-5,21494	274,186713	315,241263	0
15.01.2021	10:11:42	0	25,762233	5,472203	2,8215	8,262	0,125	88,895	0	1014	6,8	8,8	8,6	1	1	1	1	1	1	1	1	1	0	1	-2,748414	274,269338	318,094236	0
15.01.2021	10:11:43	0	25,645696	4,218153	2,868	9,36	0,131	88,899	0	1013,92	6,8	8,8	8,6	1	1	1	1	1	1	1	1	1	0	1	-8,738548	274,219721	311,871993	0
15.01.2021	10:11:44	0	25,529338	2,850102	3,11625	6,4368	0,127	88,894	0	1013,98	6,8	8,7	8,6	1	1	1	1	1	1	1	1	1	0	1	-8,668076	274,11788	311,46645	0
15.01.2021	10:11:45	0	25,995662	4,218148	3,294	10,4472	0,125	88,89	0	1014,1	6,8	8,7	8,6	1	1	1	1	1	1	1	1	1	0	1	-10,218464	274,12535	309,95096	0
15.01.2021	10:11:46	0	25,645799	3,876134	3,3465	11,7216	0,126	88,882	0	1014,04	6,8	8,8	8,6	1	1	1	1	1	1	1	1	1	0	1	-4,510218	274,206211	316,037146	0
15.01.2021	10:11:47	0	25,646013	4,674158	3,28125	8,2656	0,122	88,904	0	1014,02	6,8	8,7	8,6	1	1	1	1	1	1	1	1	1	0	1	-5,073996	274,275361	315,796838	0
15.01.2021	10:11:48	0	26,112339	4,788159	3,0465	3,3948	0,129	88,899	0	1014,06	6,8	8,7	8,6	1	1	1	1	1	1	1	1	1	0	1	-5,708245	274,258803	315,085109	0
15.01.2021	10:11:49	0	25,645902	2,964096	2,964	7,1352	0,131	88,903	0	1014,02	6,8	8,8	8,6	1	1	1	1	1	1	1	1	1	0	1	-11,768851	274,20321	308,764481	0
15.01.2021	10:11:50	0	25,879263	4,446142	2,85525	4,0896	0,126	88,898	0	1014,08	6,8	8,7	8,6	1	1	1	1	1	1	1	1	1	0	1	-6,8358	274,260308	313,964595	0
15.01.2021	10:11:51	0	26,112444	3,078096	2,8515	360	0,125	88,9	0	1013,98	6,8	8,7	8,6	1	1	1	1	1	1	1	1	1	0	1	-6,694856	274,237749	314,000005	0
15.01.2021	10:11:52	0	25,762758	2,964091	2,8845	4,0788	0,126	88,892	0	1014,04	6,8	8,7	8,6	1	1	1	1	1	1	1	1	1	0	1	-5,637773	274,092503	314,378223	0
15.01.2021	10:11:53	0	25,646039	2,736082	2,919	360	0,127	88,908	0	1014,18	6,8	8,8	8,6	1	1	1	1	1	1	1	1	1	0	1	-8,527132	274,23324	312,14664	0
15.01.2021	10:11:54	0	25,995975	4,332127	3,00675	357,984	0,127	88,88	0	1013,98	6,8	8,7	8,6	1	1	1	1	1	1	1	1	1	0	1	-10,077519	274,161246	310,259641	0
15.01.2021	10:11:55	0	25,762862	2,964085	3,04875	9,3492	0,119	88,901	0	1014,08	6,8	8,7	8,6	1	1	1	1	1	1	1	1	1	0	1	-10,993658	274,258803	309,799697	0
15.01.2021	10:11:56	0	26,112436	3,306093	3,2175	4,4424	0,122	88,878	0	1013,88	6,8	8,8	8,6	1	1	1	1	1	1	1	1	1	0	1	-6,694856	274,225728	313,943782	0
15.01.2021	10:11:57	0	25,76275	2,850078	3,27825	4,7304	0,128	88,89	0	1013,98	6,8	8,8	8,6	1	1	1	1	1	1	1	1	1	0	1	-5,567301	274,12535	314,602123	0
15.01.2021	10:11:58	0	25,762784	3,078082	3,15675	1,9188	0,128	88,879	0	1014,02	6,8	8,8	8,6	1	1	1	1	1	1	1	1	1	0	1	-5,919662	274,086537	314,068473	0
15.01.2021	10:11:59	0	25,995966	2,850074	3	357,0408	0,132	88,949	0	1014,06	6,8	8,8	8,6	1	1	1	1	1	1	1	1	1	0	1	-9,231853	274,231738	311,43489	0
15.01.2021	10:12:00	0	25,996218	3,534088	3,08025	16,866	0,128	88,889	0	1014	6,8	8,7	8,6	1	1	1	1	1	1	1	1	1	0	1	-9,44327	274,269338	311,39938	0
15.01.2021	10:12:01	0	25,996218	3,534088	3,08025	16,866	0,128	88,889	0	1014	6,8	8,7	8,6	1	1	1	1	1	1	1	1	1	0	1	-5,355884	274,119373	314,78562	0
15.01.2021	10:12:02	0	25,762922	3,30608	2,95275	359,8884	0,127	88,88	0	1013,88	6,8	8,8	8,6	1	1	1	1	1	1	1	1	1	0	1	-6,553911	274,171729	313,832244	0
15.01.2021	10:12:03	0	25,996105	3,534083	2,958	0,4716	0,127	88,882	0	1014	6,8	8,8	8,6	1	1	1	1	1	1	1	1	1	0	1	-6,412967	274,237749	314,281894	0
15.01.2021	10:12:04	0	25,996322	3,078071	2,99925	358,4592	0,127	88,889	0	1013,96	6,8	8,7	8,6	1	1	1	1	1	1	1	1	1	0	1	-7,681466	274,212214	312,89397	0
15.01.2021	10:12:05	0	25,8796	4,218069	2,75325	345,7008	0,122	88,884	0	1013,96	6,8	8,8	8,7	1	1	1	1	1	1	1	1	1	0	1	-9,231853	274,261812	311,575582	0
15.01.2021	10:12:06	0	26,229359	4,560099	2,5395	357,9408	0,124	88,897	0	1014	6,8	8,8	8,6	1	1	1	1	1	1	1	1	1	0	1	-5,426357	274,19721	315,078919	0
15.01.2021	10:12:07	0	25,87985	2,964062	2,53575	17,6832	0,123	88,873	0	1013,98	6,8	8,7	8,6	1	1	1	1	1	1	1	1	1	0	1	-6,976744	274,264822	313,844775	0
15.01.2021	10:12:08	0	25,879885	3,990081	2,64225	12,0672	0,126	88,883	0	1013,86	6,8	8,7	8,6	1	1	1	1	1	1	1	1	1	0	1	-2,818887	274,285906	318,101294	0
15.01.2021	10:12:09	0	26,462615	5,016099	2,7045	12,8376	0,125	88,893	0	1013,96	6,8	8,8	8,6	1	1	1	1	1	1	1	1	1	0	1	-8,174771	274,177721	312,239395	0
15.01.2021	10:12:10	0	25,99653	3,876074	2,7975	13,2444	0,126	88,903	0	1014,18	6,8	8,7	8,6	1	1	1	1	1	1	1	1	1	0	1	-9,090909	274,114893	311,029662	0
15.01.2021	10:12:11	0	26,112959	3,990074	2,73	14,6448	0,127	88,899	0	1013,98	6,8	8,8	8,6	1	1	1	1	1	1	1	1	1	0	1	-9,866103	274,228733	310,786586	0
15.01.2021	10:12:12	0	25,879842	4,674083	2,79075	3,7728	0,129	88,892	0	1013,96	6,8	8,8	8,6	1	1	1	1	1	1	1	1	1	0	1	-9,020437	274,161246	311,316723	0
15.01.2021	10:12:13	0	25,763481	2,850032	2,85	6,8148	0,127	88,9	0	1014,04	6,8	8,7	8,7	1	1	1	1	1	1	1	1	1	0	1	-9,44327	274,098471	310,600599	0
15.01.2021	10:12:14	0	26,229823	4,21807	2,7735	356,6088	0,122	88,892	0	1014	6,8	8,7	8,6	1	1	1	1	1	1	1	1	1	0	1	-7,117689	274,269338	313,724962	0
15.01.2021	10:12:15	0	26,229858	2,850028	2,91825	3,024	0,128	88,906	0	1014,06	6,8	8,7	8,7	1	1	1	1	1	1	1	1	1	0	1	-5,355884	274,141794	314,890371	0
15.01.2021	10:12:16	0	26,113133	3,990061	3,0075	13,1688	0,128	88,886	0	1014,02	6,8	8,8	8,6	1	1	1	1	1	1	1	1	1	0	1	-5,285412	274,165738	315,072742	0
15.01.2021	10:12:17	0	25,763438	3,876033	3,06825	14,6232	0,123	88,905	0	1013,96	6,8	8,8	8,7	1	1	1	1	1	1	1	1	1	0	1	-5,778717	274,275361	315,092116	0
15.01.2021	10:12:18	0	25,88023	3,078024	3,0975	18,162	0,127	88,889	0	1013,96	6,7	8,7	8,7	1	1	1	1	1	1	1	1	1	0	1	-6,8358	274,162743	313,508358	0
15.01.2021	10:12:19	0	25,99666	4,218056	2,937	16,9668	0,129	88,888	0	1014,04	6,8	8,8	8,6	1	1	1	1	1	1	1	1	1	0	1	-6,8358	274,108919	313,256871	0
15.01.2021	10:12:20	0	26,346611	4,218053	2,8935	15,4044	0,129	88,904	0	1014,2	6,8	8,7	8,6	1	1	1	1	1	1	1	1	1	0	1	-8,174771	274,267833	312,660835	0
15.01.2021	10:12:21	0	26,113307	3,762023	2,84025	5,67	0,121	88,911	0	1013,94	6,8	8,8	8,7	1	1	1	1	1	1	1	1	1	0	1	-5,84919	274,174725	314,55097	0
15.01.2021	10:12:22	0	25,996764	4,218048	2,70075	11,196	0,119	88,897	0	1013,98	6,8	8,8	8,6	1	1	1	1	1	1	1	1	1	0	1	-11,41649	274,161246	308,92067	0
15.01.2021	10:12:23	0	26,113377	5,244025	2,66175	5,6808	0,128	88,9	0	1014,12	6,8	8,8	8,7	1	1	1	1	1	1	1	1	1	0	1	-7,258633	274,281386	313,640395	0
15.01.2021	10:12:24	0	26,229989	3,648015	2,502	359,8164	0,129	88,906	0	1014	6,8	8,8	8,7	1	1	1	1	1	1	1	1	1	0	1	-6,342495	274,626412	316,174252	0
15.01.2021	10:12:25	0	26,230024	2,96401	2,45325	13,5612	0,129	88,912	0	1014,1	6,8	8,8	8,7	1	1	1	1	1	1	1	1	1	0	1	-4,510218	274,147777	315,763996	0
15.01.2021	10:12:26	0	26,696371	3,306029	2,45175	29,6496	0,131	88,903	0	1014,02	6,8	8,8	8,6	1	1	1	1	1	1	1	1	1	0	1	-13,389711	274,119373	306,751793	0
15.01.2021	10:12:27	0	26,230094	4,332035	2,556	25,7796	0,121	88,913	0	1014	6,8	8,8	8,6	1	1	1	1	1	1	1	1	1	0	1	-8,80902	274,152266	311,48617	0
15.01.2021	10:12:28	0	26,113733	3,078023	2,6925	7,4952	0,127	88,889	0	1013,98	6,8	8,7	8,6	1	1	1	1	1	1	1	1	1	0	1	-7,470049	274,104441	312,601702	0
15.01.2021	10:12:29	0	26,346927	4,560004	2,68575	0,864	0,129	88,903	0	1014,06	6,8	8,7	8,7	1	1	1	1	1	1	1	1	1	0	1	-7,751938	274,219721	312,858603	0
15.01.2021	10:12:30	0	26,230199	3,192001	2,64375	17,2296	0,122	88,888	0	1013,8	6,8	8,8	8,7	1	1	1	1	1	1	1	1	1	0	1	-6,131078	274,108919	313,961592	0
15.01.2021	10:12:31	0	26,57997	5,357998	2,59425	358,74	0,123	88,894	0	1013,98	6,8	8,8	8,7	1	1	1	1	1	1	1	1	1	0	1	-7,82241	274,216718	312,774087	0
15.01.2021	10:12:32	0	26,230269	4,331996	2,559	7,1136	0,12	88,906	0	1014,08	6,8	8,8	8,7	1	1	1	1	1	1	1	1	1	0	1	-6,342495	274,284399	314,570634	0
15.01.2021	10:12:33	0	26,69662	3,077995	2,38275	27,7452	0,125	88,905	0	1014,08	6,8	8,8	8,7	1	1	1	1	1	1	1	1	1	0	1	-7,610994	274,251281	313,147169	0
15.01.2021	10:12:34	0	26,347102	4,21799	2,184	360	0,124	88,886	0	1014	6,8	8,7	8,7	1	1	1	1	1	1	1	1	1	0	1	-5,285412	274,191211	315,191818	0
15.01.2021	10:12:35	0	26,463718	3,41999	2,16	357,0048	0,131	88,894	0	1014,12	6,8	8,7	8,7	1	1	1	1	1	1	1	1	1	0	1	-4,22833	274,275361	316,642504	0
15.01.2021	10:12:36	0	26,346988	2,393991	2,109	0	0,124	88,903	0	1014,04	6,8	8,8	8,7	1	1	1	1	1	1	1	1	1	0	1	-7,540521	274,210713	313,027896	0
15.01.2021	10:12:37	0	26,230443	2,39399	2,05425	360	0,129	88,911	0	1014,08	6,8	8,8	8,7	1	1	1	1	1	1	1	1	1	0	1	-13,6716	274,28892	307,262686	0
15.01.2021	10:12:38	0	26,463823	2,849986	2,02425	356,2668	0,128	88,906	0	1013,94	6,8	8,7	8,7	1	1	1	1	1	1	1	1	1	0	1	-8,80902	274,231738	311,857723	0
15.01.2021	10:12:39	0	26,230697	2,508001	2,0865	357,3036	0,132	88,89	0	1013,88	6,8	8,7	8,6	1	1	1	1	1	1	1	1	1	0	1	-2,889359	274,242259	317,826597	0
15.01.2021	10:12:40	0	26,230732	2,849983	2,16225	356,9364	0,126	88,897	0	1013,96	6,8	8,7	8,7	1	1	1	1	1	1	1	1	1	0	1	-8,597604	274,11788	311,536922	0
15.01.2021	10:12:41	0	26,463744	4,103997	2,1405	358,4556	0,13	88,908	0	1013,88	6,8	8,8	8,6	1	1	1	1	1	1	1	1	1	0	1	-5,355884	274,243762	315,367104	0
15.01.2021	10:12:42	0	26,347383	4,445967	2,12475	355,0644	0,13	88,911	0	1014,1	6,8	8,7	8,7	1	1	1	1	1	1	1	1	1	0	1	-6,412967	274,260308	314,387428	0
15.01.2021	10:12:43	0	26,697162	4,331965	2,14725	355,824	0,122	88,902	0	1013,88	6,8	8,7	8,7	1	1	1	1	1	1	1	1	1	0	1	-3,805497	274,091012	316,203533	0
15.01.2021	10:12:44	0	26,347453	3,87599	2,17275	360	0,127	88,916	0	1014,06	6,8	8,7	8,6	1	1	1	1	1	1	1	1	1	0	1	-7,047216	274,207712	313,507165	0
15.01.2021	10:12:45	0	26,463885	3,647988	2,208	360	0,123	88,91	0	1014,04	6,8	8,8	8,6	1	1	1	1	1	1	1	1	1	0	1	-7,470049	274,281386	313,428979	0
15.01.2021	10:12:46	0	26,464105	3,761963	2,25225	357,0084	0,124	88,896	0	1013,9	6,8	8,7	8,7	1	1	1	1	1	1	1	1	1	0	1	-4,369274	274,171729	316,016881	0
15.01.2021	10:12:47	0	26,114394	3,305965	2,28375	0,4824	0,124	88,906	0	1013,98	6,8	8,7	8,7	1	1	1	1	1	1	1	1	1	0	1	-6,624383	274,282893	314,281695	0
15.01.2021	10:12:48	0	26,347593	2,507987	2,31225	1,5408	0,124	88,893	0	1014	6,8	8,7	8,6	1	1	1	1	1	1	1	1	1	0	1	-1,409443	274,209212	319,151956	0
15.01.2021	10:12:49	0	26,93054	5,243938	2,34225	359,4456	0,13	88,913	0	1013,94	6,8	8,7	8,7	1	1	1	1	1	1	1	1	1	0	1	-5,003524	274,107427	315,082173	0
15.01.2021	10:12:50	0	26,347663	3,875951	2,31525	3,7836	0,129	88,901	0	1014,14	6,8	8,7	8,7	1	1	1	1	1	1	1	1	1	0	1	-6,272023	274,219721	314,338519	0
15.01.2021	10:12:51	0	26,580864	4,787966	2,184	0,8748	0,129	88,904	0	1014,02	6,8	8,7	8,6	1	1	1	1	1	1	1	1	1	0	1	-0,493305	274,261812	320,31413	0
15.01.2021	10:12:52	0	26,464131	5,243928	2,09475	1,53	0,129	88,904	0	1013,94	6,8	8,8	8,7	1	1	1	1	1	1	1	1	1	0	1	-6,694856	274,290427	314,246484	0
15.01.2021	10:12:53	0	26,580935	2,849959	1,9545	359,8632	0,134	88,918	0	1013,96	6,8	8,7	8,7	1	1	1	1	1	1	1	1	1	0	1	-5,144468	274,19571	315,353796	0
15.01.2021	10:12:54	0	26,347619	3,761966	1,9275	358,4736	0,132	88,926	0	1014,12	6,8	8,8	8,6	1	1	1	1	1	1	1	1	1	0	1	-4,016913	274,275361	316,85392	0
15.01.2021	10:12:55	0	26,930755	3,647943	1,89525	348,7104	0,126	88,915	0	1014,08	6,8	8,7	8,7	1	1	1	1	1	1	1	1	1	0	1	-7,540521	274,191211	312,936709	0
15.01.2021	10:12:56	0	26,930791	2,849971	1,81425	352,7604	0,13	88,922	0	1014,1	6,8	8,7	8,6	1	1	1	1	1	1	1	1	1	0	1	-6,694856	274,105934	313,383868	0
15.01.2021	10:12:57	0	26,697659	4,559923	1,9665	347,2956	0,131	88,908	0	1014,1	6,8	8,7	8,7	1	1	1	1	1	1	1	1	1	0	1	-4,933051	274,137308	315,292242	0
15.01.2021	10:12:58	0	26,697695	3,98993	2,11875	357,6132	0,126	88,922	0	1013,9	6,8	8,7	8,7	1	1	1	1	1	1	1	1	1	0	1	-7,610994	274,287413	313,316239	0
15.01.2021	10:12:59	0	26,814314	3,419938	2,10375	358,542	0,128	88,91	0	1014	6,8	8,7	8,7	1	1	1	1	1	1	1	1	1	0	1	-3,946441	274,19571	316,551822	0
15.01.2021	10:13:00	0	27,047365	3,07794	1,962	8,6112	0,128	88,926	0	1014,1	6,8	8,8	8,7	1	1	1	1	1	1	1	1	1	0	1	-5,21494	274,270844	315,634755	0
15.01.2021	10:13:01	0	27,047365	3,07794	1,962	8,6112	0,128	88,926	0	1014,1	6,8	8,8	8,7	1	1	1	1	1	1	1	1	1	0	1	-7,540521	274,248273	313,20357	0
15.01.2021	10:13:02	0	26,581252	4,901901	1,8315	16,0848	0,132	88,928	0	1014,1	6,8	8,7	8,7	1	1	1	1	1	1	1	1	1	0	1	-7,82241	274,209212	312,738989	0
15.01.2021	10:13:03	0	26,697872	3,533948	1,75125	360	0,131	88,936	0	1013,94	6,8	8,7	8,6	1	1	1	1	1	1	1	1	1	0	1	-6,272023	274,122361	313,88344	0
15.01.2021	10:13:04	0	26,930889	4,21791	1,7085	353,9448	0,134	88,934	0	1014,08	6,8	8,8	8,7	1	1	1	1	1	1	1	1	1	0	1	-6,412967	274,212214	314,162469	0
15.01.2021	10:13:05	0	27,047508	4,901921	1,67925	357,6384	0,129	88,926	0	1014,04	6,8	8,8	8,6	1	1	1	1	1	1	1	1	1	0	1	-5,778717	274,132823	314,42562	0
15.01.2021	10:13:06	0	27,047544	3,989909	1,72125	358,7652	0,131	88,933	0	1014,06	6,8	8,8	8,7	1	1	1	1	1	1	1	1	1	0	1	-5,637773	274,216718	314,958724	0
15.01.2021	10:13:07	0	26,814599	3,647937	1,84425	359,4852	0,127	88,928	0	1014,04	6,8	8,7	8,6	1	1	1	1	1	1	1	1	1	0	1	-9,513742	274,276867	311,364139	0
15.01.2021	10:13:08	0	26,931032	3,419918	1,9005	357,0372	0,125	88,916	0	1014,1	6,8	8,8	8,7	1	1	1	1	1	1	1	1	1	0	1	-8,245243	274,20321	312,288089	0
15.01.2021	10:13:09	0	26,697898	2,735949	1,91925	3,0096	0,133	88,928	0	1014,02	6,8	8,8	8,6	1	1	1	1	1	1	1	1	1	0	1	-8,527132	274,104441	311,54462	0
15.01.2021	10:13:10	0	27,047877	5,12987	1,90725	1,1484	0,131	88,901	0	1014,06	6,8	8,7	8,7	1	1	1	1	1	1	1	1	1	0	1	-8,033827	274,246769	312,70323	0
15.01.2021	10:13:11	0	26,697969	3,647906	1,92675	2,2716	0,127	88,94	0	1014	6,8	8,8	8,7	1	1	1	1	1	1	1	1	1	0	1	-8,315715	274,158252	312,007452	0
15.01.2021	10:13:12	0	26,931363	4,559879	2,0925	355,3452	0,128	88,916	0	1013,92	6,8	8,7	8,7	1	1	1	1	1	1	1	1	1	0	1	-5,84919	274,269338	314,99346	0
15.01.2021	10:13:13	0	27,164381	3,30591	2,16	346,86	0,13	88,924	0	1014,12	6,8	8,8	8,7	1	1	1	1	1	1	1	1	1	0	1	-6,694856	274,239252	314,007036	0
15.01.2021	10:13:14	0	26,931246	4,445876	2,06325	41,4396	0,137	88,945	0	1014,08	6,8	8,8	8,7	1	1	1	1	1	1	1	1	1	0	1	-4,369274	274,129833	315,821096	0
15.01.2021	10:13:15	0	26,931282	2,735922	2,097	9,3528	0,134	88,925	0	1014,04	6,8	8,8	8,7	1	1	1	1	1	1	1	1	1	0	1	-5,496829	274,273855	315,366958	0
15.01.2021	10:13:16	0	26,814732	3,761913	2,295	3,8592	0,131	88,903	0	1013,84	6,8	8,8	8,6	1	1	1	1	1	1	1	1	1	0	1	-4,369274	274,242259	316,346681	0
15.01.2021	10:13:17	0	26,931353	3,077909	2,30775	23,3352	0,128	88,923	0	1014,04	6,8	8,8	8,7	1	1	1	1	1	1	1	1	1	0	1	-8,033827	274,110413	312,065818	0
15.01.2021	10:13:18	0	26,814803	4,901851	2,33475	17,2296	0,129	88,934	0	1014,1	6,8	8,8	8,7	1	1	1	1	1	1	1	1	1	0	1	-14,728682	274,221223	305,888882	0
15.01.2021	10:13:19	0	27,0482	3,53389	2,34375	18,8316	0,136	88,927	0	1014,14	6,8	8,7	8,7	1	1	1	1	1	1	1	1	1	0	1	-7,258633	274,137308	312,966661	0
15.01.2021	10:13:20	0	26,814874	4,559856	2,5665	19,8972	0,135	88,926	0	1014	6,8	8,8	8,7	1	1	1	1	1	1	1	1	1	0	1	-8,879493	274,278374	312,005437	0
15.01.2021	10:13:21	0	26,931685	3,533886	2,79375	13,5432	0,131	88,935	0	1014,08	6,8	8,7	8,7	1	1	1	1	1	1	1	1	1	0	1	-7,047216	274,168733	313,324937	0
15.01.2021	10:13:22	0	26,814945	3,419908	2,79525	7,1352	0,133	88,919	0	1014,04	6,8	8,8	8,6	1	1	1	1	1	1	1	1	1	0	1	-5,144468	274,273855	315,719319	0
15.01.2021	10:13:23	0	27,048154	2,849922	2,76975	14,292	0,136	88,917	0	1014,02	6,8	8,8	8,6	1	1	1	1	1	1	1	1	1	0	1	-4,439746	274,134318	315,771576	0
15.01.2021	10:13:24	0	26,815016	3,305887	2,8755	12,0888	0,133	88,93	0	1014,06	6,8	8,8	8,7	1	1	1	1	1	1	1	1	1	0	1	-10,077519	274,162743	310,266638	0
15.01.2021	10:13:25	0	26,698652	2,621909	2,82825	4,824	0,138	88,918	0	1014,08	6,8	8,7	8,7	1	1	1	1	1	1	1	1	1	0	1	-7,399577	274,27988	313,492401	0
15.01.2021	10:13:26	0	26,931675	3,647893	2,77275	1,5516	0,132	88,935	0	1014,08	6,8	8,8	8,6	1	1	1	1	1	1	1	1	1	0	1	-6,483439	274,114893	313,637132	0
15.01.2021	10:13:27	0	27,048298	3,647868	2,8545	1,5516	0,139	88,916	0	1014,04	6,8	8,8	8,7	1	1	1	1	1	1	1	1	1	0	1	-6,624383	274,237749	314,070477	0
15.01.2021	10:13:28	0	26,931746	2,7359	2,916	2,052	0,129	88,91	0	1013,96	6,8	8,8	8,7	1	1	1	1	1	1	1	1	1	0	1	-8,245243	274,278374	312,639686	0
15.01.2021	10:13:29	0	27,514721	5,015813	2,922	13,1544	0,137	88,915	0	1014,02	6,8	8,8	8,7	1	1	1	1	1	1	1	1	1	0	1	-7,751938	274,269338	313,090712	0
15.01.2021	10:13:30	0	26,698641	2,621916	2,9085	5,6844	0,135	88,913	0	1014,04	6,8	8,8	8,6	1	1	1	1	1	1	1	1	1	0	1	-7,82241	274,227231	312,823253	0
15.01.2021	10:13:31	0	26,931853	2,735894	2,63175	8,6112	0,14	88,919	0	1014,06	6,8	8,8	8,7	1	1	1	1	1	1	1	1	1	0	1	-7,963354	274,273855	312,900432	0
15.01.2021	10:13:32	0	27,165065	3,419886	2,35875	344,6928	0,13	88,928	0	1014,14	6,8	8,8	8,6	1	1	1	1	1	1	1	1	1	0	1	-5,496829	274,228733	315,15586	0
15.01.2021	10:13:33	0	27,165101	5,01583	2,277	358,7328	0,133	88,917	0	1013,94	6,8	8,8	8,6	1	1	1	1	1	1	1	1	1	0	1	-7,399577	274,168733	312,972576	0
15.01.2021	10:13:34	0	26,815372	2,393903	2,24175	358,7508	0,133	88,924	0	1013,82	6,8	8,8	8,7	1	1	1	1	1	1	1	1	1	0	1	-2,466526	274,278374	318,418404	0
15.01.2021	10:13:35	0	27,398351	5,015793	2,16525	1,1556	0,136	88,936	0	1014,1	6,8	8,8	8,7	1	1	1	1	1	1	1	1	1	0	1	-6,483439	274,237749	314,211422	0
15.01.2021	10:13:36	0	27,165209	2,963876	2,17725	346,068	0,13	88,928	0	1014	6,8	8,8	8,7	1	1	1	1	1	1	1	1	1	0	1	-8,315715	274,275361	312,555118	0
15.01.2021	10:13:37	0	26,932067	2,507894	2,157	3,0744	0,137	88,911	0	1014	6,8	8,8	8,7	1	1	1	1	1	1	1	1	1	0	1	-8,527132	274,285906	312,393049	0
15.01.2021	10:13:38	0	27,39846	3,533848	2,18325	359,0964	0,135	88,941	0	1013,88	6,8	8,8	8,7	1	1	1	1	1	1	1	1	1	0	1	-4,369274	274,192711	316,114966	0
15.01.2021	10:13:39	0	27,281906	2,849875	2,115	356,1768	0,134	88,93	0	1013,94	6,8	8,8	8,7	1	1	1	1	1	1	1	1	1	0	1	-5,84919	274,111906	314,25743	0
15.01.2021	10:13:40	0	27,631711	5,015778	2,08275	357,2748	0,136	88,934	0	1013,98	6,8	8,8	8,7	1	1	1	1	1	1	1	1	1	0	1	-13,389711	274,261812	307,417724	0
15.01.2021	10:13:41	0	27,048799	4,901809	2,0625	360	0,13	88,916	0	1013,9	6,8	8,8	8,6	1	1	1	1	1	1	1	1	1	0	1	-5,003524	274,251281	315,75464	0
15.01.2021	10:13:42	0	27,282015	4,673787	2,11425	359,8884	0,139	88,932	0	1014,06	6,8	8,8	8,7	1	1	1	1	1	1	1	1	1	0	1	-7,047216	274,104441	313,024535	0
15.01.2021	10:13:43	0	27,515424	5,243757	2,19375	356,4936	0,139	88,932	0	1014	6,8	8,7	8,7	1	1	1	1	1	1	1	1	1	0	1	-3,312192	274,222724	317,312396	0
15.01.2021	10:13:44	0	27,282087	4,217802	2,2515	360	0,135	88,939	0	1014,08	6,8	8,8	8,7	1	1	1	1	1	1	1	1	1	0	1	-6,412967	274,290427	314,528372	0
15.01.2021	10:13:45	0	27,515304	3,191848	2,33175	2,2896	0,137	88,936	0	1014,02	6,8	8,8	8,7	1	1	1	1	1	1	1	1	1	0	1	-6,624383	274,168733	313,74777	0
15.01.2021	10:13:46	0	27,398941	2,963857	2,35575	358,7364	0,139	88,938	0	1014,1	6,8	8,7	8,7	1	1	1	1	1	1	1	1	1	0	1	-3,735025	274,156756	316,581148	0
15.01.2021	10:13:47	0	27,282195	4,44581	2,2815	358,7688	0,136	88,945	0	1013,94	6,8	8,8	8,6	1	1	1	1	1	1	1	1	1	0	1	-5,778717	274,275361	315,092116	0
15.01.2021	10:13:48	0	27,398822	3,077866	2,23575	353,9556	0,14	88,951	0	1014,08	6,8	8,8	8,6	1	1	1	1	1	1	1	1	1	0	1	-7,470049	274,215217	313,119427	0
15.01.2021	10:13:49	0	27,63204	4,78776	2,1465	347,6052	0,139	88,947	0	1014,1	6,8	8,8	8,7	1	1	1	1	1	1	1	1	1	0	1	-4,580691	274,291934	316,367703	0
15.01.2021	10:13:50	0	27,398895	4,673763	2,13	354,6576	0,131	88,924	0	1014,04	6,8	8,8	8,7	1	1	1	1	1	1	1	1	1	0	1	-3,171247	274,237749	317,523613	0
15.01.2021	10:13:51	0	27,28234	4,217783	2,0925	355,482	0,138	88,932	0	1013,98	6,8	8,8	8,7	1	1	1	1	1	1	1	1	1	0	1	-5,990134	274,131328	314,207219	0
15.01.2021	10:13:52	0	27,282376	2,963846	2,13825	352,0224	0,136	88,947	0	1014,08	6,8	8,8	8,7	1	1	1	1	1	1	1	1	1	0	1	-11,768851	274,126844	308,407554	0
15.01.2021	10:13:53	0	27,748972	4,445766	2,2455	347,274	0,134	88,948	0	1013,98	6,8	8,7	8,7	1	1	1	1	1	1	1	1	1	0	1	-5,708245	274,183716	314,733943	0
15.01.2021	10:13:54	0	27,515631	2,849865	2,41425	4,842	0,138	88,947	0	1014,06	6,8	8,8	8,6	1	1	1	1	1	1	1	1	1	0	1	-6,131078	274,122361	314,024384	0
15.01.2021	10:13:55	0	27,632259	4,331767	2,5095	354,2868	0,136	88,934	0	1014,06	6,8	8,8	8,7	1	1	1	1	1	1	1	1	1	0	1	-6,8358	274,221223	313,781764	0
15.01.2021	10:13:56	0	27,399112	4,559751	2,577	360	0,131	88,935	0	1013,98	6,8	8,8	8,7	1	1	1	1	1	1	1	1	1	0	1	-7,258633	274,282893	313,647445	0
15.01.2021	10:13:57	0	27,282556	2,735866	2,52825	2,646	0,144	88,954	0	1014,2	6,8	8,8	8,6	1	1	1	1	1	1	1	1	1	0	1	-8,104299	274,19721	312,400977	0
15.01.2021	10:13:58	0	27,515777	3,191841	2,44275	2,6424	0,136	88,954	0	1014,12	6,8	8,8	8,6	1	1	1	1	1	1	1	1	1	0	1	-6,342495	274,276867	314,535386	0
15.01.2021	10:13:59	0	27,399221	3,077826	2,35575	2,2932	0,138	88,939	0	1014,06	6,8	8,8	8,7	1	1	1	1	1	1	1	1	1	0	1	-7,82241	274,12535	312,347013	0
15.01.2021	10:14:00	0	27,2827	2,621849	2,499	9,7524	0,14	88,946	0	1014,22	6,8	8,8	8,7	1	1	1	1	1	1	1	1	1	0	1	-6,412967	274,114893	313,707605	0
15.01.2021	10:14:01	0	27,2827	2,621849	2,499	9,7524	0,14	88,946	0	1014,22	6,8	8,8	8,7	1	1	1	1	1	1	1	1	1	0	1	-6,412967	274,114893	313,707605	0
15.01.2021	10:14:02	0	27,632515	3,419801	2,568	356,2056	0,138	88,955	0	1014,12	6,8	8,8	8,7	1	1	1	1	1	1	1	1	1	0	1	-4,087385	274,156756	316,228787	0
15.01.2021	10:14:03	0	27,632551	2,849832	2,604	356,9436	0,144	88,961	0	1014,12	6,8	8,8	8,7	1	1	1	1	1	1	1	1	1	0	1	-4,016913	274,123856	316,145529	0
15.01.2021	10:14:04	0	27,865774	4,445762	2,63025	358,416	0,14	88,959	0	1014,08	6,8	8,8	8,6	1	1	1	1	1	1	1	1	1	0	1	-7,117689	274,137308	313,107605	0
15.01.2021	10:14:05	0	27,516031	2,963822	2,71425	3,3984	0,138	88,962	0	1014,12	6,8	8,8	8,7	1	1	1	1	1	1	1	1	1	0	1	-7,470049	274,27235	313,386691	0
15.01.2021	10:14:06	0	27,632661	3,077813	2,7525	0,4716	0,138	88,959	0	1013,98	6,8	8,8	8,7	1	1	1	1	1	1	1	1	1	0	1	-6,131078	274,105934	313,947646	0
15.01.2021	10:14:07	0	27,865885	2,849825	2,718	5,1948	0,134	88,942	0	1013,94	6,8	8,8	8,7	1	1	1	1	1	1	1	1	1	0	1	-7,188161	274,173227	313,204996	0
15.01.2021	10:14:08	0	27,749328	4,67371	2,73	4,824	0,139	88,96	0	1014,14	6,8	8,8	8,7	1	1	1	1	1	1	1	1	1	0	1	-5,003524	274,258803	315,789831	0
15.01.2021	10:14:09	0	27,399582	2,621835	2,70075	3,024	0,143	88,945	0	1013,98	6,8	8,8	8,7	1	1	1	1	1	1	1	1	1	0	1	-9,795631	274,270844	311,054064	0
15.01.2021	10:14:10	0	27,632807	3,761762	2,64375	4,8456	0,142	88,961	0	1014,1	6,8	8,8	8,7	1	1	1	1	1	1	1	1	1	0	1	-8,949965	274,19421	311,541287	0
15.01.2021	10:14:11	0	27,632843	3,761759	2,5425	9	0,142	88,97	0	1014,14	6,8	8,8	8,7	1	1	1	1	1	1	1	1	1	0	1	-4,298802	274,293441	316,656646	0
15.01.2021	10:14:12	0	27,749474	3,305786	2,4555	6,4332	0,145	88,966	0	1014,1	6,8	8,8	8,7	1	1	1	1	1	1	1	1	1	0	1	-6,483439	274,147777	313,790776	0
15.01.2021	10:14:13	0	27,632916	3,87577	2,409	10,818	0,147	88,976	0	1014,16	6,8	8,8	8,6	1	1	1	1	1	1	1	1	1	0	1	-7,399577	274,168733	312,972576	0
15.01.2021	10:14:14	0	27,632953	2,27985	2,3445	10,5444	0,145	88,967	0	1014,14	6,8	8,8	8,7	1	1	1	1	1	1	1	1	1	0	1	-4,721635	274,290427	316,219704	0
15.01.2021	10:14:15	0	28,215964	5,129659	2,3745	8,5968	0,144	88,963	0	1014,12	6,8	8,8	8,7	1	1	1	1	1	1	1	1	1	0	1	-8,033827	274,275361	312,837007	0
15.01.2021	10:14:16	0	27,516431	4,787678	2,5425	359,8956	0,146	88,961	0	1014,1	6,8	8,8	8,7	1	1	1	1	1	1	1	1	1	0	1	-7,82241	274,362906	313,458287	0
15.01.2021	10:14:17	0	27,749657	2,735814	2,60475	0,486	0,144	88,958	0	1014,06	6,8	8,8	8,7	1	1	1	1	1	1	1	1	1	0	1	-9,372798	273,921711	309,846312	0
15.01.2021	10:14:18	0	27,516503	4,217737	2,63475	355,0248	0,146	88,973	0	1014,2	6,8	8,8	8,6	1	1	1	1	1	1	1	1	1	0	1	-5,355884	274,20321	315,177448	0
15.01.2021	10:14:19	0	27,74973	3,077787	2,76825	1,548	0,142	88,967	0	1014,1	6,8	8,8	8,7	1	1	1	1	1	1	1	1	1	0	1	-5,990134	274,122361	314,165329	0
15.01.2021	10:14:20	0	27,633171	2,621817	2,80725	1,188	0,146	88,975	0	1014,3	6,8	8,8	8,7	1	1	1	1	1	1	1	1	1	0	1	-7,258633	274,231738	313,408111	0
15.01.2021	10:14:21	0	27,982995	3,875727	2,784	4,1688	0,143	88,975	0	1014,16	6,8	8,8	8,7	1	1	1	1	1	1	1	1	1	0	1	-6,906272	274,192711	313,577969	0
15.01.2021	10:14:22	0	27,74984	2,39383	2,60925	358,3332	0,139	88,968	0	1014,02	6,8	8,8	8,7	1	1	1	1	1	1	1	1	1	0	1	-10,288936	274,281386	310,610092	0
15.01.2021	10:14:23	0	27,983265	4,33169	2,5695	360	0,148	88,984	0	1014,14	6,8	8,7	8,7	1	1	1	1	1	1	1	1	1	0	1	-4,580691	274,162743	315,763467	0
15.01.2021	10:14:24	0	27,749913	4,787654	2,66775	0,1152	0,148	88,976	0	1014,24	6,8	8,8	8,7	1	1	1	1	1	1	1	1	1	0	1	-3,59408	274,158252	316,729087	0
15.01.2021	10:14:25	0	27,983143	4,673659	2,67	4,0608	0,147	88,978	0	1014,2	6,8	8,8	8,7	1	1	1	1	1	1	1	1	1	0	1	-4,016913	274,107427	316,068783	0
15.01.2021	10:14:26	0	28,332969	4,445673	2,69625	359,9064	0,143	88,97	0	1014,02	6,8	8,8	8,7	1	1	1	1	1	1	1	1	1	0	1	-9,584214	274,218219	311,019305	0
15.01.2021	10:14:27	0	27,750023	4,673653	2,7645	2,6424	0,144	88,97	0	1014,08	6,8	8,8	8,7	1	1	1	1	1	1	1	1	1	0	1	-3,171247	274,119373	316,970257	0
15.01.2021	10:14:28	0	27,75006	2,507812	3,10275	1,926	0,145	88,962	0	1014,12	6,8	8,8	8,7	1	1	1	1	1	1	1	1	1	0	1	-1,268499	274,225728	319,370138	0
15.01.2021	10:14:29	0	27,98329	4,331673	3,501	10,8072	0,143	88,983	0	1014,14	6,8	8,8	8,7	1	1	1	1	1	1	1	1	1	0	1	-6,976744	274,267833	313,858862	0
15.01.2021	10:14:30	0	27,633536	3,41974	3,45675	15,0192	0,15	88,977	0	1014,1	6,8	8,8	8,7	1	1	1	1	1	1	1	1	1	0	1	-5,637773	274,116386	314,489775	0
15.01.2021	10:14:31	0	28,100158	2,849781	3,21375	31,7664	0,146	88,982	0	1014,24	6,8	8,7	8,7	1	1	1	1	1	1	1	1	1	0	1	-7,117689	274,231738	313,549055	0
15.01.2021	10:14:32	0	28,099998	3,077762	3,021	7,0812	0,146	88,956	0	1014,18	6,8	8,8	8,7	1	1	1	1	1	1	1	1	1	0	1	-5,919662	274,255794	314,859614	0
15.01.2021	10:14:33	0	27,983438	3,761707	3,26925	2,5092	0,142	88,973	0	1013,94	6,8	8,8	8,7	1	1	1	1	1	1	1	1	1	0	1	-5,567301	274,27988	315,324677	0
15.01.2021	10:14:34	0	28,21667	3,533722	3,708	4,0788	0,139	88,969	0	1014,06	6,8	8,8	8,7	1	1	1	1	1	1	1	1	1	0	1	-4,792107	274,152266	315,503083	0
15.01.2021	10:14:35	0	27,866914	2,963765	3,98175	356,274	0,151	88,974	0	1014,1	6,8	8,8	8,7	1	1	1	1	1	1	1	1	1	0	1	-10,007047	274,287413	310,920186	0
15.01.2021	10:14:36	0	28,333343	3,077754	4,122	6,0516	0,151	88,975	0	1014,2	6,8	8,8	8,7	1	1	1	1	1	1	1	1	1	0	1	-6,694856	274,156756	313,621317	0
15.01.2021	10:14:37	0	28,33338	3,875688	4,23	19,5192	0,144	88,98	0	1014	6,8	8,8	8,7	1	1	1	1	1	1	1	1	1	0	1	-6,624383	274,218219	313,979136	0
15.01.2021	10:14:38	0	28,216819	3,761695	3,957	18,4284	0,144	88,974	0	1014,12	6,8	8,8	8,7	1	1	1	1	1	1	1	1	1	0	1	-7,047216	274,126844	313,129189	0
15.01.2021	10:14:39	0	27,86706	3,191739	3,4455	0,1296	0,148	88,981	0	1014,24	6,8	8,8	8,7	1	1	1	1	1	1	1	1	1	0	1	-5,567301	273,932064	313,700071	0
15.01.2021	10:14:40	0	27,983696	4,445634	2,994	7,2252	0,149	88,97	0	1014	6,8	8,8	8,7	1	1	1	1	1	1	1	1	1	0	1	-9,302326	274,224226	311,329287	0
15.01.2021	10:14:41	0	27,983733	3,191735	2,81025	10,4364	0,15	88,985	0	1014,16	6,8	8,8	8,7	1	1	1	1	1	1	1	1	1	0	1	-5,073996	274,119373	315,067508	0
15.01.2021	10:14:42	0	28,100368	4,331638	3,03675	0,8676	0,15	88,968	0	1014,08	6,8	8,8	8,7	1	1	1	1	1	1	1	1	1	0	1	-4,721635	274,227231	315,924028	0
15.01.2021	10:14:43	0	28,566802	5,015577	3,18975	359,8344	0,149	88,962	0	1014,08	6,8	8,8	8,7	1	1	1	1	1	1	1	1	1	0	1	-8,315715	274,322103	312,773903	0
15.01.2021	10:14:44	0	27,983843	4,559613	3,225	7,596	0,146	88,959	0	1014,1	6,8	8,8	8,7	1	1	1	1	1	1	1	1	1	0	1	-6,694856	274,296456	314,274705	0
15.01.2021	10:14:45	0	28,100479	4,55961	3,10275	2,646	0,15	88,994	0	1014,18	6,8	8,8	8,7	1	1	1	1	1	1	1	1	1	0	1	-9,584214	274,186713	310,871989	0
15.01.2021	10:14:46	0	28,217116	4,217637	3,07425	10,7964	0,148	88,977	0	1014,04	6,8	8,8	8,7	1	1	1	1	1	1	1	1	1	0	1	-8,386187	274,287413	312,541045	0
15.01.2021	10:14:47	0	28,100553	4,559604	2,85675	359,55	0,149	88,966	0	1014,08	6,8	8,8	8,7	1	1	1	1	1	1	1	1	1	0	1	-6,765328	274,257298	314,020987	0
15.01.2021	10:14:48	0	28,21719	4,445611	2,7375	4,4748	0,145	88,987	0	1014,12	6,8	8,8	8,7	1	1	1	1	1	1	1	1	1	0	1	-7,329105	274,270844	313,52059	0
15.01.2021	10:14:49	0	28,217227	5,015558	2,688	10,062	0,15	88,968	0	1014,2	6,8	8,8	8,7	1	1	1	1	1	1	1	1	1	0	1	-6,20155	274,302488	314,796241	0
15.01.2021	10:14:50	0	28,333865	2,735757	2,67975	4,0536	0,148	88,977	0	1014,12	6,8	8,8	8,7	1	1	1	1	1	1	1	1	1	0	1	-6,765328	274,251281	313,992835	0
15.01.2021	10:14:51	0	28,217302	4,103633	2,61675	6,0696	0,147	88,968	0	1014,12	6,8	8,8	8,7	1	1	1	1	1	1	1	1	1	0	1	-8,386187	274,27988	312,505791	0
15.01.2021	10:14:52	0	28,100738	2,849744	2,50275	1,926	0,143	88,985	0	1014,14	6,8	8,8	8,7	1	1	1	1	1	1	1	1	1	0	1	-6,624383	274,134318	313,586939	0
15.01.2021	10:14:53	0	28,450577	2,963732	2,4555	358,7328	0,152	88,987	0	1014,14	6,8	8,8	8,7	1	1	1	1	1	1	1	1	1	0	1	-7,82241	274,240755	312,886513	0
15.01.2021	10:14:54	0	28,334014	4,331631	2,523	7,5024	0,147	88,969	0	1014	6,8	8,8	8,6	1	1	1	1	1	1	1	1	1	0	1	-2,466526	274,281386	318,432502	0
15.01.2021	10:14:55	0	28,334051	5,357508	2,5575	354,3084	0,151	88,977	0	1014,16	6,8	8,8	8,7	1	1	1	1	1	1	1	1	1	0	1	-10,852713	274,246769	309,884343	0
15.01.2021	10:14:56	0	28,334088	3,647663	2,6745	352,08	0,143	88,954	0	1013,92	6,8	8,8	8,7	1	1	1	1	1	1	1	1	1	0	1	-3,453136	274,11788	316,68139	0
15.01.2021	10:14:57	0	28,567328	4,901544	2,65125	359,1252	0,146	88,965	0	1014,08	6,8	8,8	8,7	1	1	1	1	1	1	1	1	1	0	1	-5,778717	274,20171	314,7476	0
15.01.2021	10:14:58	0	28,10096	2,621754	2,45775	12,8412	0,147	88,962	0	1014,2	6,8	8,8	8,7	1	1	1	1	1	1	1	1	1	0	1	-6,20155	274,278374	314,683379	0
15.01.2021	10:14:59	0	28,567403	2,96372	2,11725	353,16	0,152	88,967	0	1014,26	6,8	8,8	8,7	1	1	1	1	1	1	1	1	1	0	1	-5,21494	274,251281	315,543223	0
15.01.2021	10:15:00	0	28,217673	2,735738	2,27475	356,9436	0,142	88,954	0	1014,06	6,8	8,8	8,7	1	1	1	1	1	1	1	1	1	0	1	-8,668076	274,270844	312,181619	0
15.01.2021	10:15:01	0	28,217673	2,735738	2,27475	356,9436	0,142	88,954	0	1014,06	6,8	8,8	8,7	1	1	1	1	1	1	1	1	1	0	1	-5,778717	274,297964	315,1979	0
15.01.2021	10:15:02	0	28,101107	3,875627	2,3775	2,6388	0,151	88,947	0	1014,04	6,9	8,8	8,7	1	1	1	1	1	1	1	1	1	0	1	-9,513742	274,209212	311,047657	0
15.01.2021	10:15:03	0	28,684156	4,33158	2,631	355,5	0,142	88,939	0	1014,06	6,9	8,8	8,7	1	1	1	1	1	1	1	1	1	0	1	-5,990134	274,120867	314,158349	0
15.01.2021	10:15:04	0	28,567591	3,647644	2,77725	2,6244	0,149	88,953	0	1014,1	6,8	8,8	8,7	1	1	1	1	1	1	1	1	1	0	1	-3,664553	274,17922	316,756618	0
15.01.2021	10:15:05	0	28,451026	2,735731	2,9505	358,6284	0,15	88,954	0	1014,04	6,8	8,8	8,7	1	1	1	1	1	1	1	1	1	0	1	-3,312192	274,293441	317,643257	0
15.01.2021	10:15:06	0	28,217858	4,217583	3,045	1,8972	0,149	88,943	0	1014,16	6,8	8,8	8,7	1	1	1	1	1	1	1	1	1	0	1	-3,735025	274,155259	316,574153	0
15.01.2021	10:15:07	0	28,684306	4,673535	3,26325	1,9116	0,162	88,958	0	1014,24	6,8	8,8	8,7	1	1	1	1	1	1	1	1	1	0	1	-4,439746	274,167235	315,925407	0
15.01.2021	10:15:08	0	28,567741	4,90151	3,57525	356,904	0,144	88,946	0	1014,1	6,8	8,8	8,7	1	1	1	1	1	1	1	1	1	0	1	-3,312192	274,308521	317,713842	0
15.01.2021	10:15:09	0	28,684382	4,673529	3,63375	353,106	0,149	88,94	0	1014,16	6,8	8,8	8,7	1	1	1	1	1	1	1	1	1	0	1	-7,047216	274,173227	313,34594	0
15.01.2021	10:15:10	0	28,567816	4,673527	3,56625	349,8516	0,145	88,943	0	1014	6,8	8,8	8,7	1	1	1	1	1	1	1	1	1	0	1	-9,654686	274,266328	311,173876	0
15.01.2021	10:15:11	0	28,334647	3,53364	3,37725	356,2596	0,153	88,949	0	1014,02	6,8	8,8	8,7	1	1	1	1	1	1	1	1	1	0	1	-4,862579	274,276867	316,015302	0
15.01.2021	10:15:12	0	28,451287	3,077684	3,261	352,026	0,15	88,949	0	1014,1	6,8	8,8	8,7	1	1	1	1	1	1	1	1	1	0	1	-9,654686	274,128339	310,528701	0
15.01.2021	10:15:13	0	28,334721	4,673518	3,21525	350,55	0,15	88,951	0	1014,2	6,9	8,8	8,7	1	1	1	1	1	1	1	1	1	0	1	-5,84919	274,269338	314,99346	0
15.01.2021	10:15:14	0	28,334758	3,533633	3,057	20,2752	0,151	88,941	0	1014,06	6,9	8,8	8,7	1	1	1	1	1	1	1	1	1	0	1	-3,453136	274,12535	316,716287	0
15.01.2021	10:15:15	0	28,801212	4,673512	2,79375	18,4356	0,141	88,94	0	1014,06	6,8	8,8	8,7	1	1	1	1	1	1	1	1	1	0	1	-4,933051	274,240755	315,775872	0
15.01.2021	10:15:16	0	28,917854	5,129461	2,985	359,4312	0,152	88,955	0	1014,04	6,8	8,8	8,7	1	1	1	1	1	1	1	1	1	0	1	-10,147992	274,299472	310,835683	0
15.01.2021	10:15:17	0	28,568078	4,217554	3,06075	1,5552	0,154	88,94	0	1014,06	6,8	8,8	8,7	1	1	1	1	1	1	1	1	1	0	1	-6,906272	274,159749	313,423892	0
15.01.2021	10:15:18	0	28,801325	4,103564	3,291	5,328	0,153	88,967	0	1014,22	6,8	8,8	8,7	1	1	1	1	1	1	1	1	1	0	1	-5,84919	274,296456	315,120371	0
15.01.2021	10:15:19	0	28,568153	3,419634	3,56325	3,8592	0,15	88,943	0	1013,96	6,8	8,8	8,7	1	1	1	1	1	1	1	1	1	0	1	-5,21494	274,119373	314,926564	0
15.01.2021	10:15:20	0	28,684796	3,305664	3,4155	355,4964	0,154	88,951	0	1014,06	6,8	8,8	8,6	1	1	1	1	1	1	1	1	1	0	1	-9,584214	274,263317	311,230263	0
15.01.2021	10:15:21	0	28,684833	3,41963	3,375	349,5168	0,148	88,948	0	1014,14	6,8	8,8	8,7	1	1	1	1	1	1	1	1	1	0	1	-9,936575	274,119373	310,204929	0
15.01.2021	10:15:22	0	28,568266	2,84969	3,11625	350,2836	0,153	88,94	0	1014,14	6,8	8,8	8,7	1	1	1	1	1	1	1	1	1	0	1	-6,694856	274,251281	314,063308	0
15.01.2021	10:15:23	0	28,568303	2,963675	2,931	346,2156	0,15	88,94	0	1014	6,8	8,8	8,7	1	1	1	1	1	1	1	1	1	0	1	-5,84919	274,297964	315,127427	0
15.01.2021	10:15:24	0	28,684946	3,305656	2,763	2,6244	0,154	88,934	0	1014,18	6,8	8,8	8,6	1	1	1	1	1	1	1	1	1	0	1	-4,298802	274,290427	316,642537	0
15.01.2021	10:15:25	0	28,801589	4,103545	2,673	353,9196	0,149	88,939	0	1014,08	6,8	8,8	8,7	1	1	1	1	1	1	1	1	1	0	1	-7,751938	274,206211	312,795426	0
15.01.2021	10:15:26	0	28,685021	4,901454	2,55675	347,3244	0,151	88,946	0	1014	6,9	8,8	8,7	1	1	1	1	1	1	1	1	1	0	1	-6,483439	274,28892	314,450847	0
15.01.2021	10:15:27	0	28,685059	4,787464	2,457	344,6604	0,15	88,945	0	1014,12	6,8	8,8	8,7	1	1	1	1	1	1	1	1	1	0	1	-4,933051	274,284399	315,980078	0
15.01.2021	10:15:28	0	28,918309	3,077672	2,41425	356,1984	0,144	88,946	0	1014,02	6,8	8,8	8,6	1	1	1	1	1	1	1	1	1	0	1	-5,144468	274,216718	315,452029	0
15.01.2021	10:15:29	0	28,568528	4,331535	2,4675	349,0632	0,151	88,948	0	1014,14	6,9	8,8	8,6	1	1	1	1	1	1	1	1	1	0	1	-7,258633	274,116386	312,868916	0
15.01.2021	10:15:30	0	28,685172	2,963662	2,50575	346,8852	0,146	88,955	0	1014,04	6,8	8,8	8,7	1	1	1	1	1	1	1	1	1	0	1	-13,248767	274,30098	307,741966	0
15.01.2021	10:15:31	0	29,035029	4,559505	2,47275	352,7172	0,155	88,945	0	1014,06	6,8	8,8	8,6	1	1	1	1	1	1	1	1	1	0	1	-7,610994	274,209212	312,950405	0
15.01.2021	10:15:32	0	28,56864	3,191652	2,27925	353,9916	0,155	88,963	0	1013,96	6,9	8,8	8,6	1	1	1	1	1	1	1	1	1	0	1	-5,496829	274,119373	314,644675	0
15.01.2021	10:15:33	0	28,918498	3,875551	2,21625	356,8896	0,15	88,948	0	1013,98	6,8	8,8	8,7	1	1	1	1	1	1	1	1	1	0	1	-7,82241	274,19721	312,682866	0
15.01.2021	10:15:34	0	28,918536	3,07766	2,3475	356,4828	0,152	88,957	0	1014,04	6,8	8,8	8,6	1	1	1	1	1	1	1	1	1	0	1	-5,990134	274,176223	314,417028	0
15.01.2021	10:15:35	0	28,68536	4,445506	2,3655	352,8828	0,152	88,949	0	1013,98	6,9	8,8	8,6	1	1	1	1	1	1	1	1	1	0	1	-6,412967	274,299472	314,570708	0
15.01.2021	10:15:36	0	28,56879	2,621691	2,25375	357,6456	0,152	88,967	0	1014,1	6,8	8,8	8,7	1	1	1	1	1	1	1	1	1	0	1	-6,20155	274,257298	314,584764	0
15.01.2021	10:15:37	0	28,685435	4,559461	2,34375	360	0,147	88,956	0	1014,06	6,9	8,8	8,7	1	1	1	1	1	1	1	1	1	0	1	-3,875969	274,153762	316,426215	0
15.01.2021	10:15:38	0	28,685472	4,331485	2,39325	356,5656	0,151	88,935	0	1014,08	6,8	8,8	8,7	1	1	1	1	1	1	1	1	1	0	1	-3,664553	274,308521	317,361482	0
15.01.2021	10:15:39	0	28,802118	2,963646	2,54025	1,1556	0,148	88,954	0	1014,12	6,8	8,8	8,7	1	1	1	1	1	1	1	1	1	0	1	-7,540521	274,19571	312,957742	0
15.01.2021	10:15:40	0	29,035371	3,647562	2,709	3,7584	0,155	88,958	0	1014,12	6,9	8,8	8,7	1	1	1	1	1	1	1	1	1	0	1	-4,862579	274,131328	315,334774	0
15.01.2021	10:15:41	0	28,452369	4,331477	2,62275	8,3484	0,155	88,963	0	1014,18	6,9	8,8	8,7	1	1	1	1	1	1	1	1	1	0	1	-5,355884	274,246769	315,381172	0
15.01.2021	10:15:42	0	28,685623	3,761566	2,59575	4,8384	0,155	88,944	0	1014,08	6,8	8,8	8,6	1	1	1	1	1	1	1	1	1	0	1	-6,20155	274,31003	314,831546	0
15.01.2021	10:15:43	0	28,802268	3,077624	2,4825	357,57	0,147	88,955	0	1014,14	6,9	8,8	8,7	1	1	1	1	1	1	1	1	1	0	1	-7,610994	274,182217	312,824188	0
15.01.2021	10:15:44	0	28,685698	2,735681	2,33175	359,1252	0,157	88,963	0	1014,04	6,8	8,8	8,6	1	1	1	1	1	1	1	1	1	0	1	-6,624383	274,305504	314,387528	0
15.01.2021	10:15:45	0	28,802344	2,735679	2,271	357,3216	0,151	88,963	0	1013,94	6,8	8,8	8,6	1	1	1	1	1	1	1	1	1	0	1	-3,946441	274,308521	317,079593	0
15.01.2021	10:15:46	0	28,802382	2,507689	2,1435	348,3036	0,153	88,962	0	1014,3	6,9	8,8	8,7	1	1	1	1	1	1	1	1	1	0	1	-5,567301	274,263317	315,247176	0
15.01.2021	10:15:47	0	28,68581	3,53356	1,992	0,8568	0,152	88,967	0	1014,12	6,8	8,8	8,7	1	1	1	1	1	1	1	1	1	0	1	-7,610994	274,305504	313,400918	0
15.01.2021	10:15:48	0	28,802457	3,647565	1,95525	0	0,149	88,969	0	1014,18	6,9	8,8	8,6	1	1	1	1	1	1	1	1	1	0	1	-3,523608	274,189712	316,946612	0
15.01.2021	10:15:49	0	29,035713	4,67344	1,99875	9,36	0,153	88,967	0	1014,06	6,8	8,8	8,6	1	1	1	1	1	1	1	1	1	0	1	-8,245243	274,294949	312,717261	0
15.01.2021	10:15:50	0	29,152361	3,989519	2,094	8,2656	0,148	88,962	0	1014,14	6,9	8,8	8,6	1	1	1	1	1	1	1	1	1	0	1	-8,949965	274,170231	311,429189	0
15.01.2021	10:15:51	0	28,80257	3,077609	2,1015	18,45	0,158	88,96	0	1013,98	6,8	8,8	8,7	1	1	1	1	1	1	1	1	1	0	1	-4,862579	274,242259	315,853376	0
15.01.2021	10:15:52	0	29,035827	3,53357	1,95	3,3984	0,153	88,969	0	1014,22	6,8	8,8	8,6	1	1	1	1	1	1	1	1	1	0	1	-12,262156	274,303996	308,742695	0
15.01.2021	10:15:53	0	29,152475	3,419582	1,869	352,3392	0,154	88,962	0	1013,94	6,9	8,8	8,6	1	1	1	1	1	1	1	1	1	0	1	-6,412967	274,264822	314,408552	0
15.01.2021	10:15:54	0	28,802683	3,077603	1,82925	0	0,153	88,959	0	1014,08	6,9	8,8	8,7	1	1	1	1	1	1	1	1	1	0	1	-11,909796	274,248273	308,834296	0
15.01.2021	10:15:55	0	28,919331	4,559409	1,80375	349,8768	0,155	88,969	0	1014,12	6,9	8,8	8,7	1	1	1	1	1	1	1	1	1	0	1	-5,21494	274,302488	315,782852	0
15.01.2021	10:15:56	0	28,919369	3,98948	1,836	349,47	0,152	88,96	0	1013,98	6,8	8,8	8,7	1	1	1	1	1	1	1	1	1	0	1	-6,765328	274,19421	313,725924	0
15.01.2021	10:15:57	0	29,152627	4,217448	1,85325	351,0612	0,153	88,968	0	1014,14	6,8	8,8	8,7	1	1	1	1	1	1	1	1	1	0	1	-10,147992	274,291934	310,800402	0
15.01.2021	10:15:58	0	28,802833	2,621671	1,93275	4,4532	0,154	88,974	0	1014,08	6,9	8,8	8,6	1	1	1	1	1	1	1	1	1	0	1	-5,919662	274,23324	314,75411	0
15.01.2021	10:15:59	0	28,802871	2,849641	1,9875	3,7692	0,151	88,959	0	1014,16	6,9	8,8	8,6	1	1	1	1	1	1	1	1	1	0	1	-9,090909	274,303996	311,913942	0
15.01.2021	10:16:00	0	28,686335	3,761521	2,14575	0,1188	0,157	88,984	0	1014,18	6,8	8,8	8,6	1	1	1	1	1	1	1	1	1	0	1	-5,84919	274,282893	315,056889	0
15.01.2021	10:16:01	0	28,686335	3,761521	2,14575	0,1188	0,157	88,984	0	1014,18	6,8	8,8	8,6	1	1	1	1	1	1	1	1	1	0	1	-5,919662	274,167235	314,445491	0
15.01.2021	10:16:02	0	28,919595	3,077606	2,3205	0,5004	0,16	88,967	0	1013,98	6,9	8,8	8,6	1	1	1	1	1	1	1	1	1	0	1	-7,329105	274,122361	312,826358	0
15.01.2021	10:16:03	0	28,803022	2,279707	2,43675	2,2932	0,157	88,976	0	1013,9	6,9	8,8	8,6	1	1	1	1	1	1	1	1	1	0	1	-10,711769	274,275361	310,159065	0
15.01.2021	10:16:04	0	28,803059	3,761491	2,526	3,7728	0,151	88,989	0	1014,14	6,9	8,8	8,7	1	1	1	1	1	1	1	1	1	0	1	-4,792107	274,134318	315,419215	0
15.01.2021	10:16:05	0	28,919709	4,103467	2,5155	359,1288	0,154	88,968	0	1014,12	6,9	8,8	8,6	1	1	1	1	1	1	1	1	1	0	1	-6,20155	274,192711	314,28269	0
15.01.2021	10:16:06	0	28,919746	3,875471	2,4915	2,6352	0,157	88,986	0	1014,02	6,8	8,8	8,7	1	1	1	1	1	1	1	1	1	0	1	-13,389711	274,31003	307,643385	0
15.01.2021	10:16:07	0	28,803172	4,44539	2,55225	8,352	0,153	88,975	0	1014	6,9	8,8	8,7	1	1	1	1	1	1	1	1	1	0	1	-8,949965	274,213715	311,632491	0
15.01.2021	10:16:08	0	28,919822	3,761482	2,526	0,126	0,154	88,973	0	1013,92	6,9	8,8	8,7	1	1	1	1	1	1	1	1	1	0	1	-9,161381	274,307013	311,857591	0
15.01.2021	10:16:09	0	29,153084	4,103457	2,51175	359,9136	0,151	88,98	0	1014,14	6,9	8,8	8,6	1	1	1	1	1	1	1	1	1	0	1	-4,087385	274,192711	316,396855	0
15.01.2021	10:16:10	0	29,153122	3,53353	2,58	355,482	0,152	88,984	0	1014,06	6,9	8,8	8,6	1	1	1	1	1	1	1	1	1	0	1	-7,399577	274,137308	312,825717	0
15.01.2021	10:16:11	0	28,919935	4,787331	2,8305	357,768	0,157	88,994	0	1014,14	6,9	8,8	8,7	1	1	1	1	1	1	1	1	1	0	1	-5,708245	274,170231	314,670908	0
15.01.2021	10:16:12	0	28,919973	3,077587	2,97	355,4388	0,156	88,973	0	1014,1	6,9	8,8	8,6	1	1	1	1	1	1	1	1	1	0	1	-8,949965	274,314556	312,104322	0
15.01.2021	10:16:13	0	29,036624	3,077585	2,9025	356,2092	0,163	88,996	0	1014,06	6,9	8,8	8,6	1	1	1	1	1	1	1	1	1	0	1	-5,073996	274,189712	315,396225	0
15.01.2021	10:16:14	0	28,920048	3,5335	2,922	357,7536	0,153	89	0	1013,98	6,9	8,8	8,7	1	1	1	1	1	1	1	1	1	0	1	-3,100775	274,311538	317,939384	0
15.01.2021	10:16:15	0	29,269926	5,243286	3,10725	351,7272	0,152	88,992	0	1014,04	6,9	8,8	8,6	1	1	1	1	1	1	1	1	1	0	1	-7,117689	274,180718	313,310487	0
15.01.2021	10:16:16	0	29,036737	2,963595	3,32325	0,8424	0,16	88,992	0	1014,1	6,9	8,8	8,6	1	1	1	1	1	1	1	1	1	0	1	-6,131078	274,132823	314,073259	0
15.01.2021	10:16:17	0	29,036775	3,875444	3,49725	360	0,154	88,985	0	1014,06	6,9	8,8	8,7	1	1	1	1	1	1	1	1	1	0	1	-5,637773	274,19421	314,853479	0
15.01.2021	10:16:18	0	28,686972	4,673327	3,651	355,3812	0,16	88,996	0	1013,92	6,9	8,8	8,7	1	1	1	1	1	1	1	1	1	0	1	-8,245243	274,311538	312,794916	0
15.01.2021	10:16:19	0	28,687009	4,217415	3,5535	7,1244	0,156	88,984	0	1014,1	6,9	8,8	8,6	1	1	1	1	1	1	1	1	1	0	1	-6,765328	274,287413	314,161905	0
15.01.2021	10:16:20	0	29,270117	4,217413	3,309	355,5324	0,156	88,985	0	1014,1	6,9	8,8	8,6	1	1	1	1	1	1	1	1	1	0	1	-3,735025	274,204711	316,805323	0
15.01.2021	10:16:21	0	29,036927	3,077569	3,44775	357,2568	0,167	89	0	1014,06	6,9	8,8	8,6	1	1	1	1	1	1	1	1	1	0	1	-2,255109	274,128339	317,928278	0
15.01.2021	10:16:22	0	28,687122	3,077567	3,67575	6,8112	0,165	89,008	0	1014,12	6,8	8,8	8,6	1	1	1	1	1	1	1	1	1	0	1	-5,426357	274,243762	315,296632	0
15.01.2021	10:16:23	0	29,037002	2,963582	3,84525	5,6664	0,158	89,001	0	1014,16	6,9	8,8	8,6	1	1	1	1	1	1	1	1	1	0	1	-8,033827	274,30098	312,956906	0
15.01.2021	10:16:24	0	28,803811	3,87545	3,91725	4,4532	0,151	88,987	0	1014,1	6,8	8,8	8,6	1	1	1	1	1	1	1	1	1	0	1	-8,45666	274,296456	312,512901	0
15.01.2021	10:16:25	0	29,153693	3,533497	3,6945	358,0272	0,16	88,999	0	1014,12	6,8	8,8	8,6	1	1	1	1	1	1	1	1	1	0	1	-4,016913	274,261812	316,790522	0
15.01.2021	10:16:26	0	29,153731	4,559348	3,43725	7,1244	0,154	88,998	0	1014	6,9	8,8	8,6	1	1	1	1	1	1	1	1	1	0	1	-6,906272	274,149273	313,374934	0
15.01.2021	10:16:27	0	28,570693	3,419509	3,2595	12,8556	0,154	88,995	0	1014,06	6,9	8,8	8,6	1	1	1	1	1	1	1	1	1	0	1	-6,272023	274,284399	314,641106	0
15.01.2021	10:16:28	0	29,037192	3,19152	3,24225	6,048	0,158	89,003	0	1014,16	6,8	8,8	8,7	1	1	1	1	1	1	1	1	1	0	1	-4,087385	274,167235	316,277768	0
15.01.2021	10:16:29	0	29,037229	3,761455	3,219	15,3828	0,159	88,99	0	1013,96	6,9	8,8	8,6	1	1	1	1	1	1	1	1	1	0	1	-3,664553	274,186713	316,79165	0
15.01.2021	10:16:30	0	28,920652	3,305519	3,00225	21,7692	0,158	88,998	0	1014,04	6,9	8,8	8,6	1	1	1	1	1	1	1	1	1	0	1	-7,047216	274,264822	313,774303	0
15.01.2021	10:16:31	0	29,037305	3,305517	2,769	19,5192	0,159	88,999	0	1014,12	6,9	8,8	8,6	1	1	1	1	1	1	1	1	1	0	1	-6,765328	274,299472	314,218347	0
15.01.2021	10:16:32	0	28,920727	5,015264	2,739	8,9928	0,162	88,982	0	1014,08	6,9	8,8	8,6	1	1	1	1	1	1	1	1	1	0	1	-6,976744	274,266328	313,851818	0
15.01.2021	10:16:33	0	28,804149	4,217378	2,844	12,942	0,162	89,001	0	1014,04	6,9	8,8	8,6	1	1	1	1	1	1	1	1	1	0	1	-4,862579	274,303996	316,142272	0
15.01.2021	10:16:34	0	29,387267	4,331359	3,30075	8,9856	0,163	88,988	0	1014,18	6,9	8,8	8,6	1	1	1	1	1	1	1	1	1	0	1	-5,778717	274,282893	315,127361	0
15.01.2021	10:16:35	0	28,921043	4,331356	3,393	5,67	0,162	88,995	0	1014,12	6,9	8,7	8,6	1	1	1	1	1	1	1	1	1	0	1	-9,654686	274,183716	310,787502	0
15.01.2021	10:16:36	0	28,920878	3,191523	3,31425	0,8712	0,161	88,996	0	1014,18	6,9	8,8	8,6	1	1	1	1	1	1	1	1	1	0	1	-5,21494	274,14329	315,038304	0
15.01.2021	10:16:37	0	29,270765	4,787282	3,27975	0,4716	0,157	88,973	0	1013,98	6,9	8,8	8,6	1	1	1	1	1	1	1	1	1	0	1	-5,778717	274,263317	315,03576	0
15.01.2021	10:16:38	0	29,037773	3,761434	3,26475	4,0932	0,157	88,976	0	1014,1	6,9	8,7	8,6	1	1	1	1	1	1	1	1	1	0	1	-3,735025	274,299472	317,24865	0
15.01.2021	10:16:39	0	28,804576	3,761431	3,21975	0	0,16	88,989	0	1014,12	6,9	8,7	8,6	1	1	1	1	1	1	1	1	1	0	1	-0	273,856763	318,916464	0
15.01.2021	10:16:40	0	29,037645	2,96355	3,06	357,552	0,162	88,987	0	1014,02	6,9	8,8	8,6	1	1	1	1	1	1	1	1	1	0	1	-4,510218	274,153762	315,791965	0
15.01.2021	10:16:41	0	29,1543	4,559305	2,83425	358,4124	0,161	88,996	0	1014,12	6,9	8,8	8,6	1	1	1	1	1	1	1	1	1	0	1	-2,959831	274,141794	317,286425	0
15.01.2021	10:16:42	0	29,037721	4,559302	2,63625	360	0,166	88,986	0	1014,2	6,9	8,8	8,6	1	1	1	1	1	1	1	1	1	0	1	-3,875969	274,27235	316,980772	0
15.01.2021	10:16:43	0	29,037759	3,533457	2,52375	360	0,159	88,986	0	1014,2	6,9	8,8	8,6	1	1	1	1	1	1	1	1	1	0	1	-3,946441	274,132823	316,257896	0
15.01.2021	10:16:44	0	29,037797	3,077525	2,50125	356,6304	0,156	88,967	0	1013,92	6,9	8,8	8,6	1	1	1	1	1	1	1	1	1	0	1	-6,624383	274,180718	313,803792	0
15.01.2021	10:16:45	0	29,27107	3,305488	2,51025	352,4472	0,159	88,986	0	1014,16	6,9	8,8	8,6	1	1	1	1	1	1	1	1	1	0	1	-6,20155	274,316065	314,859802	0
15.01.2021	10:16:46	0	29,15449	3,989379	2,40375	7,8552	0,154	88,967	0	1014,14	6,9	8,8	8,6	1	1	1	1	1	1	1	1	1	0	1	-4,439746	274,281386	316,459282	0
15.01.2021	10:16:47	0	29,03791	5,129199	2,28	360	0,162	88,981	0	1014,08	6,9	8,8	8,6	1	1	1	1	1	1	1	1	1	0	1	-4,22833	274,191211	316,2489	0
15.01.2021	10:16:48	0	29,037948	3,647428	2,21775	7,5888	0,163	88,962	0	1014,12	6,9	8,8	8,6	1	1	1	1	1	1	1	1	1	0	1	-6,060606	274,323613	315,036081	0
15.01.2021	10:16:49	0	28,92157	4,673264	2,10375	1,5516	0,164	88,974	0	1014,1	6,9	8,7	8,6	1	1	1	1	1	1	1	1	1	0	1	-4,862579	274,224226	315,769033	0
15.01.2021	10:16:50	0	28,804786	2,84955	1,98525	3,3768	0,161	88,969	0	1013,96	6,9	8,8	8,6	1	1	1	1	1	1	1	1	1	0	1	-6,8358	274,153762	313,466384	0
15.01.2021	10:16:51	0	29,15468	4,673258	1,91175	358,0056	0,161	88,964	0	1014,16	6,9	8,8	8,6	1	1	1	1	1	1	1	1	1	0	1	-3,030303	274,27235	317,826437	0
15.01.2021	10:16:52	0	28,92148	2,621582	1,82025	3,0276	0,167	88,985	0	1014,28	6,9	8,8	8,6	1	1	1	1	1	1	1	1	1	0	1	-7,399577	274,28892	313,534709	0
15.01.2021	10:16:53	0	28,804899	3,19149	1,8045	2,6424	0,164	88,978	0	1014,16	6,8	8,8	8,6	1	1	1	1	1	1	1	1	1	0	1	-8,174771	274,305504	312,837141	0
15.01.2021	10:16:54	0	29,038174	3,305469	1,842	4,4676	0,155	88,971	0	1014,04	6,9	8,8	8,6	1	1	1	1	1	1	1	1	1	0	1	-7,399577	274,257298	313,386738	0
15.01.2021	10:16:55	0	28,688555	2,621562	1,96275	8,262	0,163	88,978	0	1014,2	6,9	8,7	8,7	1	1	1	1	1	1	1	1	1	0	1	-12,614517	274,299472	308,369157	0
15.01.2021	10:16:56	0	28,571772	3,077502	2,12475	3,4056	0,159	88,975	0	1014,1	6,9	8,8	8,6	1	1	1	1	1	1	1	1	1	0	1	-7,610994	274,147777	312,663221	0
15.01.2021	10:16:57	0	28,921668	3,0775	2,2725	0,8604	0,16	88,968	0	1014,08	6,8	8,8	8,6	1	1	1	1	1	1	1	1	1	0	1	-5,778717	274,20021	314,740585	0
15.01.2021	10:16:58	0	28,805086	4,331294	2,44275	3,7728	0,164	88,977	0	1014,26	6,9	8,8	8,6	1	1	1	1	1	1	1	1	1	0	1	-7,82241	274,165738	312,535744	0
15.01.2021	10:16:59	0	29,038363	3,761384	2,4585	359,9208	0,165	88,965	0	1014,12	6,9	8,8	8,6	1	1	1	1	1	1	1	1	1	0	1	-8,738548	274,186713	311,717655	0
15.01.2021	10:17:00	0	29,038438	4,901192	2,364	1,1556	0,168	88,966	0	1014,38	6,9	8,8	8,6	1	1	1	1	1	1	1	1	1	0	1	-5,637773	274,269338	315,204877	0
15.01.2021	10:17:01	0	29,038438	4,901192	2,364	1,1556	0,168	88,966	0	1014,38	6,9	8,8	8,6	1	1	1	1	1	1	1	1	1	0	1	-5,637773	274,269338	315,204877	0
15.01.2021	10:17:02	0	28,921856	3,191472	2,34975	359,82	0,165	88,974	0	1014,18	6,9	8,8	8,6	1	1	1	1	1	1	1	1	1	0	1	-13,530655	274,164241	306,8205	0
15.01.2021	10:17:03	0	28,688853	3,761375	2,3595	4,4532	0,169	88,984	0	1014,24	6,9	8,7	8,6	1	1	1	1	1	1	1	1	1	0	1	-8,104299	274,303996	312,900553	0
15.01.2021	10:17:04	0	28,68869	3,761373	2,38425	3,0276	0,161	88,978	0	1014,16	6,9	8,8	8,6	1	1	1	1	1	1	1	1	1	0	1	-6,483439	274,20321	314,049893	0
15.01.2021	10:17:05	0	29,272036	3,989308	2,24175	6,138	0,161	88,97	0	1014,02	6,9	8,7	8,7	1	1	1	1	1	1	1	1	1	0	1	-4,862579	274,173227	315,530577	0
15.01.2021	10:17:06	0	28,805385	4,559206	2,103	350,982	0,166	88,981	0	1014,28	6,8	8,8	8,7	1	1	1	1	1	1	1	1	1	0	1	-5,990134	274,159749	314,34003	0
15.01.2021	10:17:07	0	29,038665	3,989327	2,061	2,286	0,163	88,99	0	1014,22	6,9	8,8	8,6	1	1	1	1	1	1	1	1	1	0	1	-6,060606	274,191211	314,416624	0
15.01.2021	10:17:08	0	29,271945	4,217286	2,1075	351,306	0,166	88,985	0	1014,16	6,9	8,8	8,6	1	1	1	1	1	1	1	1	1	0	1	-5,285412	274,189712	315,184808	0
15.01.2021	10:17:09	0	28,922119	4,559225	2,40825	345,3984	0,166	88,967	0	1013,98	6,8	8,8	8,6	1	1	1	1	1	1	1	1	1	0	1	-8,245243	274,323613	312,851444	0
15.01.2021	10:17:10	0	29,155604	5,015145	2,5155	354,6756	0,155	88,976	0	1014,06	6,9	8,7	8,6	1	1	1	1	1	1	1	1	1	0	1	-6,412967	274,186713	314,043236	0
15.01.2021	10:17:11	0	29,039019	3,077473	2,568	351,3528	0,164	88,977	0	1014,14	6,9	8,7	8,6	1	1	1	1	1	1	1	1	1	0	1	-9,090909	274,135813	311,127399	0
15.01.2021	10:17:12	0	28,922231	2,84951	2,892	359,9208	0,162	88,977	0	1014,06	6,9	8,8	8,6	1	1	1	1	1	1	1	1	1	0	1	-8,949965	274,192711	311,534276	0
15.01.2021	10:17:13	0	28,805647	4,331227	3,1155	352,8684	0,162	88,982	0	1014,02	6,9	8,8	8,7	1	1	1	1	1	1	1	1	1	0	1	-2,466526	274,323613	318,630161	0
15.01.2021	10:17:14	0	29,155551	5,015132	2,9025	349,056	0,157	88,978	0	1014	6,9	8,8	8,6	1	1	1	1	1	1	1	1	1	0	1	-8,527132	274,291934	312,421262	0
15.01.2021	10:17:15	0	28,6893	2,963485	2,835	9,7416	0,163	88,958	0	1014,08	6,9	8,7	8,6	1	1	1	1	1	1	1	1	1	0	1	-6,20155	274,276867	314,676331	0
15.01.2021	10:17:16	0	28,922584	3,419404	2,619	3,3804	0,161	88,985	0	1014,04	6,9	8,7	8,6	1	1	1	1	1	1	1	1	1	0	1	-6,272023	274,188213	314,191189	0
15.01.2021	10:17:17	0	28,689375	2,849502	2,34225	10,7856	0,164	88,994	0	1014,12	6,9	8,7	8,6	1	1	1	1	1	1	1	1	1	0	1	-8,315715	274,192711	312,168525	0
15.01.2021	10:17:18	0	28,806035	4,33124	2,157	9,738	0,166	88,974	0	1013,94	6,9	8,7	8,6	1	1	1	1	1	1	1	1	1	0	1	-12,755462	274,308521	308,270572	0
15.01.2021	10:17:19	0	28,922697	3,305418	2,247	2,646	0,166	88,984	0	1014,1	6,9	8,7	8,6	1	1	1	1	1	1	1	1	1	0	1	-4,439746	274,176223	315,967416	0
15.01.2021	10:17:20	0	29,155982	3,761335	2,3985	357,2964	0,165	88,984	0	1014,12	6,9	8,7	8,6	1	1	1	1	1	1	1	1	1	0	1	-8,45666	274,278374	312,42827	0
15.01.2021	10:17:21	0	28,572899	2,051636	2,56425	6,8184	0,166	88,988	0	1014,2	6,9	8,7	8,6	1	1	1	1	1	1	1	1	1	0	1	-6,8358	274,146281	313,431424	0
15.01.2021	10:17:22	0	28,805983	3,077452	2,76825	357,264	0,162	88,97	0	1014,04	6,9	8,8	8,6	1	1	1	1	1	1	1	1	1	0	1	-0,916138	274,23324	319,757634	0
15.01.2021	10:17:23	0	29,039268	3,647348	3,02925	358,668	0,166	88,991	0	1014,12	6,9	8,8	8,6	1	1	1	1	1	1	1	1	1	0	1	-6,342495	274,314556	314,711792	0
15.01.2021	10:17:24	0	28,922682	4,445203	3,27375	348,6672	0,17	88,983	0	1014,24	6,9	8,8	8,6	1	1	1	1	1	1	1	1	1	0	1	-9,161381	274,264822	311,660138	0
15.01.2021	10:17:25	0	28,689672	2,393569	3,489	341,298	0,163	88,987	0	1014,08	6,9	8,7	8,6	1	1	1	1	1	1	1	1	1	0	1	-6,20155	274,167235	314,163603	0
15.01.2021	10:17:26	0	28,572884	2,849486	3,4815	352,8936	0,167	88,978	0	1014,14	6,9	8,8	8,6	1	1	1	1	1	1	1	1	1	0	1	-5,003524	274,162743	315,340634	0
15.01.2021	10:17:27	0	29,039215	2,963463	3,32625	358,4088	0,171	88,978	0	1014,12	6,9	8,9	8,6	1	1	1	1	1	1	1	1	1	0	1	-1,691332	274,314556	319,362955	0
15.01.2021	10:17:28	0	29,039456	3,533358	3,29325	346,1652	0,169	88,979	0	1014,06	6,9	8,8	8,6	1	1	1	1	1	1	1	1	1	0	1	-6,624383	274,254289	314,147854	0
15.01.2021	10:17:29	0	28,68962	2,96346	3,4245	350,3376	0,17	88,985	0	1014,1	6,9	8,8	8,6	1	1	1	1	1	1	1	1	1	0	1	-2,466526	274,147777	317,807689	0
15.01.2021	10:17:30	0	28,806484	3,875291	3,642	357,0156	0,162	88,975	0	1014,16	6,9	8,7	8,6	1	1	1	1	1	1	1	1	1	0	1	-7,681466	274,263317	313,133011	0
15.01.2021	10:17:31	0	28,57327	3,989267	3,73725	351,6228	0,159	88,967	0	1014,04	6,9	8,7	8,6	1	1	1	1	1	1	1	1	1	0	1	-7,681466	274,293441	313,273983	0
15.01.2021	10:17:32	0	29,03981	4,103244	3,7365	355,3632	0,164	88,986	0	1014,1	6,9	8,7	8,6	1	1	1	1	1	1	1	1	1	0	1	-5,073996	274,317575	315,994422	0
15.01.2021	10:17:33	0	28,806595	5,015073	3,59925	357,2784	0,172	88,976	0	1014,3	6,9	8,7	8,6	1	1	1	1	1	1	1	1	1	0	1	-5,496829	274,219721	315,113712	0
15.01.2021	10:17:34	0	28,689806	3,191408	3,50625	348,2568	0,169	88,987	0	1014,12	6,9	8,8	8,6	1	1	1	1	1	1	1	1	1	0	1	-4,298802	274,141794	315,947454	0
15.01.2021	10:17:35	0	28,456792	2,507533	3,5115	4,3452	0,167	88,987	0	1014,14	6,9	8,7	8,6	1	1	1	1	1	1	1	1	1	0	1	-3,312192	274,245266	317,41783	0
15.01.2021	10:17:36	0	28,340004	3,077425	3,4635	356,508	0,169	88,98	0	1014,12	6,9	8,8	8,6	1	1	1	1	1	1	1	1	1	0	1	-1,973221	274,161246	318,36394	0
15.01.2021	10:17:37	0	29,039794	4,673124	3,315	353,6244	0,172	88,977	0	1014,2	6,9	8,8	8,6	1	1	1	1	1	1	1	1	1	0	1	-7,963354	274,269338	312,879296	0
15.01.2021	10:17:38	0	28,456902	4,7871	3,2205	0,9648	0,172	88,992	0	1014,18	6,9	8,7	8,6	1	1	1	1	1	1	1	1	1	0	1	-4,298802	274,291934	316,649591	0
15.01.2021	10:17:39	0	28,573566	3,305377	2,99925	351,0432	0,168	88,961	0	1014,16	6,9	8,7	8,6	1	1	1	1	1	1	1	1	1	0	1	-4,087385	274,331163	317,044653	0
15.01.2021	10:17:40	0	28,34015	3,077418	2,8365	0	0,17	88,978	0	1014,12	6,9	8,8	8,6	1	1	1	1	1	1	1	1	1	0	1	-6,553911	274,231738	314,112832	0
15.01.2021	10:17:41	0	28,690267	3,191394	2,69325	348,6672	0,177	88,983	0	1014,26	6,9	8,7	8,6	1	1	1	1	1	1	1	1	1	0	1	-6,976744	274,31003	314,056352	0
15.01.2021	10:17:42	0	28,573677	4,67311	2,6715	349,4448	0,166	88,983	0	1014,14	6,9	8,7	8,6	1	1	1	1	1	1	1	1	1	0	1	-8,527132	274,273855	312,336655	0
15.01.2021	10:17:43	0	28,923596	3,647303	2,7075	351,6912	0,173	89	0	1014,48	6,9	8,7	8,6	1	1	1	1	1	1	1	1	1	0	1	-4,510218	274,15077	315,777979	0
15.01.2021	10:17:44	0	28,573751	3,07741	2,75925	360	0,169	88,971	0	1014,1	6,9	8,7	8,6	1	1	1	1	1	1	1	1	1	0	1	-8,45666	274,164241	311,894496	0
15.01.2021	10:17:45	0	28,573587	4,331167	2,62125	344,6928	0,176	88,972	0	1014,1	6,9	8,8	8,6	1	1	1	1	1	1	1	1	1	0	1	-3,875969	274,266328	316,952593	0
15.01.2021	10:17:46	0	28,573624	5,015032	2,583	8,6832	0,17	88,957	0	1014	6,9	8,8	8,6	1	1	1	1	1	1	1	1	1	0	1	-3,735025	274,31003	317,298072	0
15.01.2021	10:17:47	0	28,573661	4,673095	2,54325	357,2352	0,171	88,95	0	1014,22	6,9	8,8	8,6	1	1	1	1	1	1	1	1	1	0	1	-5,84919	274,20171	314,677127	0
15.01.2021	10:17:48	0	28,690527	3,533314	2,4285	358,3332	0,164	88,963	0	1014,08	6,9	8,7	8,6	1	1	1	1	1	1	1	1	1	0	1	-12,262156	274,165738	308,095997	0
15.01.2021	10:17:49	0	28,573935	4,103201	2,41875	0,864	0,176	88,969	0	1014,18	6,9	8,7	8,6	1	1	1	1	1	1	1	1	1	0	1	-5,21494	273,901022	313,907739	0
15.01.2021	10:17:50	0	28,807229	2,735465	2,4855	354,6396	0,163	88,945	0	1013,94	6,9	8,7	8,6	1	1	1	1	1	1	1	1	1	0	1	-6,553911	274,30098	314,436822	0
15.01.2021	10:17:51	0	28,574009	4,103196	2,48775	353,25	0,171	88,962	0	1014,26	6,9	8,7	8,6	1	1	1	1	1	1	1	1	1	0	1	-4,439746	274,141794	315,80651	0
15.01.2021	10:17:52	0	28,457417	2,735462	2,466	359,1972	0,179	88,973	0	1014,22	6,9	8,7	8,6	1	1	1	1	1	1	1	1	1	0	1	-5,708245	274,28892	315,22604	0
15.01.2021	10:17:53	0	28,807341	4,787056	2,40075	358,038	0,177	88,963	0	1014,24	6,9	8,7	8,6	1	1	1	1	1	1	1	1	1	0	1	-6,272023	274,308521	314,754012	0
15.01.2021	10:17:54	0	28,57412	3,98921	2,412	0,8388	0,171	88,952	0	1014,24	6,9	8,7	8,6	1	1	1	1	1	1	1	1	1	0	1	-8,527132	274,212214	312,048304	0
15.01.2021	10:17:55	0	28,690585	4,445117	2,45775	354,2508	0,175	88,955	0	1014,18	6,9	8,8	8,6	1	1	1	1	1	1	1	1	1	0	1	-5,84919	274,319084	315,226294	0
15.01.2021	10:17:56	0	28,807453	3,077387	2,53725	352,008	0,168	88,945	0	1014,08	6,9	8,7	8,6	1	1	1	1	1	1	1	1	1	0	1	-6,624383	274,276867	314,253498	0
15.01.2021	10:17:57	0	28,924119	4,673066	2,73225	355,842	0,171	88,97	0	1014,08	6,9	8,7	8,6	1	1	1	1	1	1	1	1	1	0	1	-7,470049	274,152266	312,825141	0
15.01.2021	10:17:58	0	28,807527	3,533292	2,78625	357,2244	0,176	88,96	0	1014	6,9	8,7	8,6	1	1	1	1	1	1	1	1	1	0	1	-3,312192	274,273855	317,551595	0
15.01.2021	10:17:59	0	28,690935	3,53329	2,63025	349,9416	0,166	88,954	0	1014,08	6,9	8,7	8,6	1	1	1	1	1	1	1	1	1	0	1	-8,738548	274,316065	312,322804	0
15.01.2021	10:18:00	0	28,691009	3,305331	2,6175	2,6352	0,174	88,951	0	1014,06	6,9	8,7	8,6	1	1	1	1	1	1	1	1	1	0	1	-5,990134	274,20171	314,536183	0
15.01.2021	10:18:01	0	28,691009	3,305331	2,6175	2,6352	0,174	88,951	0	1014,06	6,9	8,7	8,6	1	1	1	1	1	1	1	1	1	0	1	-8,174771	274,308521	312,851263	0
15.01.2021	10:18:02	0	28,924306	4,787029	2,6445	355,4064	0,172	88,955	0	1014,08	6,9	8,7	8,6	1	1	1	1	1	1	1	1	1	0	1	-3,382664	274,325122	317,721092	0
15.01.2021	10:18:03	0	28,807713	3,761235	2,7375	357,6276	0,175	88,951	0	1014,08	6,9	8,7	8,6	1	1	1	1	1	1	1	1	1	0	1	-4,721635	274,273855	316,142152	0
15.01.2021	10:18:04	0	28,80775	4,103162	2,75625	2,6424	0,169	88,953	0	1014,14	6,9	8,7	8,6	1	1	1	1	1	1	1	1	1	0	1	-3,100775	274,284399	317,812354	0
15.01.2021	10:18:05	0	28,574526	4,673043	2,709	360	0,17	88,955	0	1014,22	6,9	8,7	8,6	1	1	1	1	1	1	1	1	1	0	1	-4,510218	274,303996	316,494633	0
15.01.2021	10:18:06	0	28,924253	2,963391	2,65125	6,0372	0,171	88,942	0	1014,12	6,9	8,8	8,6	1	1	1	1	1	1	1	1	1	0	1	-2,60747	274,19871	317,904819	0
15.01.2021	10:18:07	0	28,924493	3,761225	2,526	357,6312	0,17	88,952	0	1014,08	6,9	8,7	8,6	1	1	1	1	1	1	1	1	1	0	1	-6,20155	274,185214	314,247645	0
15.01.2021	10:18:08	0	28,224743	3,533249	2,4615	357,6168	0,174	88,956	0	1014,16	6,9	8,7	8,7	1	1	1	1	1	1	1	1	1	0	1	-5,708245	274,326632	315,40258	0
15.01.2021	10:18:09	0	28,691104	3,305315	2,42325	358,812	0,175	88,969	0	1014,14	6,9	8,8	8,6	1	1	1	1	1	1	1	1	1	0	1	-4,369274	274,20321	316,164058	0
15.01.2021	10:18:10	0	28,341249	3,191337	2,42175	359,4312	0,175	88,956	0	1014,04	6,9	8,8	8,6	1	1	1	1	1	1	1	1	1	0	1	-5,84919	274,137308	314,376104	0
15.01.2021	10:18:11	0	28,691379	3,761216	2,45475	360	0,173	88,961	0	1014,06	6,9	8,7	8,6	1	1	1	1	1	1	1	1	1	0	1	-8,033827	274,236246	312,654004	0
15.01.2021	10:18:12	0	28,924477	5,014951	2,50575	360	0,176	88,955	0	1014,06	6,9	8,8	8,6	1	1	1	1	1	1	1	1	1	0	1	-5,355884	274,158252	314,967283	0
15.01.2021	10:18:13	0	28,341557	2,849402	2,65125	4,0932	0,174	88,956	0	1014,12	6,9	8,7	8,6	1	1	1	1	1	1	1	1	1	0	1	-7,470049	274,135813	312,748258	0
15.01.2021	10:18:14	0	28,458226	2,849401	2,751	356,6232	0,168	88,944	0	1014,08	6,8	8,7	8,6	1	1	1	1	1	1	1	1	1	0	1	-1,057082	274,275361	319,813751	0
15.01.2021	10:18:15	0	28,458263	3,761207	2,7855	7,1208	0,175	88,958	0	1014,14	6,9	8,7	8,6	1	1	1	1	1	1	1	1	1	0	1	-7,540521	274,156756	312,775651	0
15.01.2021	10:18:16	0	28,691564	5,470843	2,871	0,936	0,176	88,969	0	1014,18	6,8	8,7	8,6	1	1	1	1	1	1	1	1	1	0	1	-4,439746	274,28892	316,494539	0
15.01.2021	10:18:17	0	28,574969	2,963371	2,8665	1,5408	0,167	89,026	0	1014,14	6,8	8,7	8,6	1	1	1	1	1	1	1	1	1	0	1	-3,312192	274,281386	317,586836	0
15.01.2021	10:18:18	0	28,225108	2,963369	2,78175	3,3984	0,172	88,951	0	1014	6,9	8,7	8,6	1	1	1	1	1	1	1	1	1	0	1	-7,470049	274,152266	312,825141	0
15.01.2021	10:18:19	0	28,225144	2,621441	2,7045	0,8676	0,179	88,97	0	1014,26	6,9	8,7	8,6	1	1	1	1	1	1	1	1	1	0	1	-6,20155	274,055245	313,640481	0
15.01.2021	10:18:20	0	28,575079	3,305293	2,63475	10,4508	0,172	88,946	0	1014,16	6,9	8,7	8,6	1	1	1	1	1	1	1	1	1	0	1	-8,879493	274,31003	312,153604	0
15.01.2021	10:18:21	0	28,225019	2,963364	2,58525	1,908	0,181	88,967	0	1014,22	6,8	8,8	8,6	1	1	1	1	1	1	1	1	1	0	1	-5,990134	274,140298	314,249134	0
15.01.2021	10:18:22	0	28,341688	3,76119	2,5485	0,8712	0,178	88,969	0	1014,28	6,9	8,8	8,6	1	1	1	1	1	1	1	1	1	0	1	-5,21494	274,257298	315,571375	0
15.01.2021	10:18:23	0	28,341923	2,507459	2,397	8,262	0,184	88,966	0	1014,12	6,9	8,7	8,6	1	1	1	1	1	1	1	1	1	0	1	-9,725159	274,325122	311,378597	0
15.01.2021	10:18:24	0	28,691659	3,761186	2,30475	4,4712	0,18	88,95	0	1014,08	6,9	8,8	8,6	1	1	1	1	1	1	1	1	1	0	1	-9,866103	274,305504	311,145809	0
15.01.2021	10:18:25	0	28,225165	3,305282	2,199	1,5588	0,18	88,976	0	1013,94	6,9	8,8	8,6	1	1	1	1	1	1	1	1	1	0	1	-1,832276	274,260308	318,968118	0
15.01.2021	10:18:26	0	28,342033	2,963355	2,12475	2,6496	0,182	88,965	0	1014,1	6,9	8,7	8,6	1	1	1	1	1	1	1	1	1	0	1	-5,496829	274,31003	315,536268	0
15.01.2021	10:18:27	0	28,691971	3,305278	2,08125	360	0,177	88,941	0	1014,14	6,9	8,7	8,6	1	1	1	1	1	1	1	1	1	0	1	-5,355884	274,314556	315,698403	0
15.01.2021	10:18:28	0	28,45874	2,963333	2,061	359,4852	0,177	88,968	0	1014,24	6,9	8,7	8,7	1	1	1	1	1	1	1	1	1	0	1	-5,144468	274,27988	315,74751	0
15.01.2021	10:18:29	0	28,575411	4,672974	2,11875	0	0,179	88,957	0	1014,24	6,9	8,7	8,6	1	1	1	1	1	1	1	1	1	0	1	-6,553911	274,113399	313,559684	0
15.01.2021	10:18:30	0	28,458614	3,077322	2,26125	7,11	0,171	88,947	0	1014,06	6,9	8,8	8,6	1	1	1	1	1	1	1	1	1	0	1	-5,567301	274,19721	314,937975	0
15.01.2021	10:18:31	0	28,45885	2,849371	2,32125	350,7336	0,173	88,968	0	1014,24	6,9	8,7	8,6	1	1	1	1	1	1	1	1	1	0	1	-6,976744	274,174725	313,423415	0
15.01.2021	10:18:32	0	28,342053	3,989117	2,42775	9,756	0,179	88,96	0	1014,16	6,9	8,8	8,6	1	1	1	1	1	1	1	1	1	0	1	-7,610994	274,291934	313,3374	0
15.01.2021	10:18:33	0	28,458724	4,786937	2,38875	350,3124	0,176	88,972	0	1014,24	6,9	8,8	8,6	1	1	1	1	1	1	1	1	1	0	1	-6,483439	274,313047	314,563784	0
15.01.2021	10:18:34	0	28,342325	3,989112	2,5275	355,8456	0,181	88,968	0	1014,16	6,9	8,7	8,6	1	1	1	1	1	1	1	1	1	0	1	-2,325581	274,161246	318,011579	0
15.01.2021	10:18:35	0	28,225528	3,533211	2,54475	25,7868	0,174	88,948	0	1014,3	6,9	8,8	8,6	1	1	1	1	1	1	1	1	1	0	1	-2,748414	274,264822	318,073105	0
15.01.2021	10:18:36	0	28,459033	4,672954	2,451	355,014	0,178	88,954	0	1014,2	6,9	8,7	8,6	1	1	1	1	1	1	1	1	1	0	1	-7,470049	274,185214	312,979146	0
15.01.2021	10:18:37	0	28,342236	4,672951	2,58675	7,5024	0,171	88,96	0	1014,1	6,9	8,8	8,6	1	1	1	1	1	1	1	1	1	0	1	-9,866103	274,30098	311,12463	0
15.01.2021	10:18:38	0	28,692177	4,900896	2,61525	349,4772	0,175	88,964	0	1014,1	6,9	8,8	8,6	1	1	1	1	1	1	1	1	1	0	1	-8,879493	274,221223	311,738072	0
15.01.2021	10:18:39	0	28,575579	4,217022	2,691	1,1628	0,183	88,961	0	1014,1	6,9	8,8	8,7	1	1	1	1	1	1	1	1	1	0	1	-7,610994	274,155259	312,698184	0
15.01.2021	10:18:40	0	28,225908	3,191258	2,52075	6,0552	0,177	88,975	0	1014,26	6,8	8,7	8,7	1	1	1	1	1	1	1	1	1	0	1	-5,567301	274,308521	315,458733	0
15.01.2021	10:18:41	0	28,692287	3,989094	2,6565	9,738	0,179	88,966	0	1014,12	6,9	8,8	8,6	1	1	1	1	1	1	1	1	1	0	1	-8,033827	274,31003	312,99927	0
15.01.2021	10:18:42	0	28,575889	4,558962	2,6865	15,786	0,175	88,971	0	1014,32	6,8	8,7	8,6	1	1	1	1	1	1	1	1	1	0	1	-5,84919	274,215217	314,740287	0
15.01.2021	10:18:43	0	28,342454	4,331011	2,5605	22,0752	0,17	88,967	0	1014,14	6,9	8,8	8,6	1	1	1	1	1	1	1	1	1	0	1	-10,42988	274,328142	310,688015	0
15.01.2021	10:18:44	0	28,342689	4,444983	2,65875	13,1688	0,175	88,967	0	1014,04	6,9	8,7	8,6	1	1	1	1	1	1	1	1	1	0	1	-6,272023	274,20321	314,26131	0
15.01.2021	10:18:45	0	28,226089	3,305241	2,73975	15,7896	0,177	88,957	0	1014,02	6,9	8,7	8,6	1	1	1	1	1	1	1	1	1	0	1	-3,664553	274,153762	316,637631	0
15.01.2021	10:18:46	0	28,692472	4,786898	2,92875	12,4632	0,179	88,966	0	1014,14	6,9	8,8	8,6	1	1	1	1	1	1	1	1	1	0	1	-7,610994	274,273855	313,252793	0
15.01.2021	10:18:47	0	28,226162	3,191264	3,04725	353,2392	0,177	88,951	0	1014,14	6,9	8,7	8,6	1	1	1	1	1	1	1	1	1	0	1	-8,245243	274,164241	312,105912	0
15.01.2021	10:18:48	0	28,57611	3,077288	3,228	7,5096	0,178	88,963	0	1014,14	6,9	8,7	8,6	1	1	1	1	1	1	1	1	1	0	1	-8,597604	274,191211	311,879626	0
15.01.2021	10:18:49	0	28,226234	2,279458	3,4305	10,4292	0,18	88,972	0	1014,28	6,9	8,7	8,7	1	1	1	1	1	1	1	1	1	0	1	-7,892882	274,326632	313,217943	0
15.01.2021	10:18:50	0	28,809054	2,849337	3,213	0	0,17	88,952	0	1014,08	6,8	8,9	8,6	1	1	1	1	1	1	1	1	1	0	1	-4,933051	274,303996	316,0718	0
15.01.2021	10:18:51	0	28,226307	3,191256	3,0315	12,852	0,179	88,967	0	1014,26	6,9	8,7	8,6	1	1	1	1	1	1	1	1	1	0	1	-5,84919	274,212214	314,726247	0
15.01.2021	10:18:52	0	28,226146	2,735344	2,85	21,7476	0,178	88,957	0	1014,18	6,8	8,8	8,7	1	1	1	1	1	1	1	1	1	0	1	-7,188161	274,331163	313,943877	0
15.01.2021	10:18:53	0	28,226182	5,014794	2,874	9,09	0,183	88,954	0	1014,28	6,9	8,8	8,7	1	1	1	1	1	1	1	1	1	0	1	-5,567301	274,23324	315,106471	0
15.01.2021	10:18:54	0	28,226218	4,103011	2,87475	16,4808	0,179	88,942	0	1014,2	6,8	8,8	8,7	1	1	1	1	1	1	1	1	1	0	1	-5,637773	274,146281	314,629451	0
15.01.2021	10:18:55	0	28,693005	3,98906	2,808	12,0852	0,18	88,932	0	1014,18	6,9	8,7	8,6	1	1	1	1	1	1	1	1	1	0	1	-6,272023	274,188213	314,191189	0
15.01.2021	10:18:56	0	28,459566	3,077254	2,62725	32,4828	0,172	88,919	0	1014,18	6,8	8,8	8,7	1	1	1	1	1	1	1	1	1	0	1	-8,386187	274,207712	312,168194	0
15.01.2021	10:18:57	0	28,343163	5,128785	2,67675	34,326	0,172	88,924	0	1014,16	6,9	8,7	8,6	1	1	1	1	1	1	1	1	1	0	1	-8,597604	274,329652	312,527362	0
15.01.2021	10:18:58	0	28,226363	4,55889	2,5995	29,9304	0,177	88,933	0	1014,22	6,9	8,8	8,7	1	1	1	1	1	1	1	1	1	0	1	-7,047216	274,156756	313,268956	0
15.01.2021	10:18:59	0	28,576514	3,761104	2,5995	15,3828	0,178	88,928	0	1014,14	6,8	8,7	8,6	1	1	1	1	1	1	1	1	1	0	1	-9,936575	274,19571	310,561688	0
15.01.2021	10:19:00	0	28,459749	3,989021	2,72475	18,1692	0,176	88,91	0	1014,22	6,9	8,8	8,7	1	1	1	1	1	1	1	1	1	0	1	-2,60747	274,293441	318,347978	0
15.01.2021	10:19:01	0	28,459749	3,989021	2,72475	18,1692	0,176	88,91	0	1014,22	6,9	8,8	8,7	1	1	1	1	1	1	1	1	1	0	1	-11,205074	274,296456	309,764486	0
15.01.2021	10:19:02	0	28,459785	3,647125	2,6775	17,6976	0,178	88,912	0	1014,14	6,9	8,8	8,6	1	1	1	1	1	1	1	1	1	0	1	-10,077519	274,221223	310,540045	0
15.01.2021	10:19:03	0	28,109906	3,761095	2,6655	8,604	0,179	88,897	0	1014,18	6,9	8,8	8,6	1	1	1	1	1	1	1	1	1	0	1	-5,426357	274,152266	314,868834	0
15.01.2021	10:19:04	0	28,576697	5,01476	2,655	12,8412	0,181	88,902	0	1014,16	6,9	8,7	8,7	1	1	1	1	1	1	1	1	1	0	1	-8,80902	274,270844	312,040674	0
15.01.2021	10:19:05	0	28,226617	3,077237	2,7105	9,3744	0,177	88,908	0	1014,3	6,8	8,8	8,7	1	1	1	1	1	1	1	1	1	0	1	-4,510218	274,325122	316,593537	0
15.01.2021	10:19:06	0	28,226653	2,73532	2,6265	8,6076	0,173	88,891	0	1014	6,8	8,8	8,7	1	1	1	1	1	1	1	1	1	0	1	-8,45666	274,17922	311,964511	0
15.01.2021	10:19:07	0	28,11005	4,330947	2,5425	10,062	0,184	88,904	0	1014,24	6,8	8,8	8,6	1	1	1	1	1	1	1	1	1	0	1	-5,990134	274,213715	314,592322	0
15.01.2021	10:19:08	0	28,343365	3,305194	2,5095	4,4712	0,177	88,89	0	1014,18	6,8	8,8	8,6	1	1	1	1	1	1	1	1	1	0	1	-7,963354	274,314556	313,090933	0
15.01.2021	10:19:09	0	28,460041	3,305173	2,367	8,2656	0,176	88,867	0	1014,16	6,8	8,8	8,7	1	1	1	1	1	1	1	1	1	0	1	-8,80902	274,188213	311,654191	0
15.01.2021	10:19:10	0	28,343438	2,963256	2,202	0	0,18	88,89	0	1014,22	6,9	8,8	8,7	1	1	1	1	1	1	1	1	1	0	1	-4,369274	274,28892	316,565012	0
15.01.2021	10:19:11	0	28,110194	2,8493	2,166	360	0,174	88,879	0	1014,2	6,8	8,8	8,6	1	1	1	1	1	1	1	1	1	0	1	-8,315715	274,164241	312,03544	0
15.01.2021	10:19:12	0	28,22687	3,077242	2,175	0,8676	0,179	88,875	0	1014,12	6,9	8,8	8,6	1	1	1	1	1	1	1	1	1	0	1	-8,738548	274,204711	311,8018	0
15.01.2021	10:19:13	0	28,343547	3,988992	2,154	350,658	0,183	88,871	0	1014,16	6,8	8,8	8,7	1	1	1	1	1	1	1	1	1	0	1	-8,315715	274,320593	312,766835	0
15.01.2021	10:19:14	0	28,576864	4,10296	2,02875	357,2496	0,173	88,874	0	1014,1	6,8	8,8	8,7	1	1	1	1	1	1	1	1	1	0	1	-7,329105	274,219721	313,281436	0
15.01.2021	10:19:15	0	28,110339	3,191189	1,93425	1,5372	0,179	88,858	0	1014,14	6,8	8,8	8,7	1	1	1	1	1	1	1	1	1	0	1	-8,174771	274,164241	312,176384	0
15.01.2021	10:19:16	0	28,460296	2,849292	1,86675	341,6544	0,174	88,869	0	1014,2	6,9	8,8	8,6	1	1	1	1	1	1	1	1	1	0	1	-7,188161	274,251281	313,570002	0
15.01.2021	10:19:17	0	28,227052	4,672835	2,01	352,404	0,174	88,867	0	1014,2	6,8	8,8	8,6	1	1	1	1	1	1	1	1	1	0	1	-6,131078	274,322103	314,95854	0
15.01.2021	10:19:18	0	28,343927	2,621329	2,26125	352,0908	0,176	88,869	0	1014,24	6,9	8,7	8,7	1	1	1	1	1	1	1	1	1	0	1	-6,131078	274,213715	314,451378	0
15.01.2021	10:19:19	0	28,460406	4,102972	2,4315	355,3956	0,178	88,853	0	1013,9	6,8	8,8	8,6	1	1	1	1	1	1	1	1	1	0	1	-5,144468	274,167235	315,220685	0
15.01.2021	10:19:20	0	28,460442	3,419121	2,67075	357,2316	0,179	88,873	0	1014,22	6,9	8,8	8,7	1	1	1	1	1	1	1	1	1	0	1	-3,24172	274,296456	317,727841	0
15.01.2021	10:19:21	0	28,110555	2,735295	2,71875	357,1848	0,175	88,863	0	1014,1	6,8	8,8	8,7	1	1	1	1	1	1	1	1	1	0	1	-8,386187	274,332673	312,752923	0
15.01.2021	10:19:22	0	28,343874	2,507352	2,7795	352,4184	0,179	88,866	0	1014,12	6,8	8,8	8,7	1	1	1	1	1	1	1	1	1	0	1	-6,553911	274,242259	314,162044	0
15.01.2021	10:19:23	0	28,110824	3,988991	2,763	357,6204	0,177	88,881	0	1014,1	6,8	8,7	8,6	1	1	1	1	1	1	1	1	1	0	1	-3,946441	274,325122	317,157314	0
15.01.2021	10:19:24	0	28,344145	3,077201	2,80125	357,1884	0,174	88,871	0	1014,22	6,8	8,7	8,7	1	1	1	1	1	1	1	1	1	0	1	-4,721635	274,225728	315,917002	0
15.01.2021	10:19:25	0	28,577267	4,558841	2,7885	347,9724	0,176	88,865	0	1014	6,8	8,8	8,6	1	1	1	1	1	1	1	1	1	0	1	-9,231853	274,319084	311,84363	0
15.01.2021	10:19:26	0	28,577503	5,128693	2,6955	356,1912	0,174	88,856	0	1014,16	6,9	8,7	8,6	1	1	1	1	1	1	1	1	1	0	1	-8,174771	274,314556	312,879516	0
15.01.2021	10:19:27	0	28,227413	3,419127	2,60025	358,7508	0,176	88,867	0	1014,24	6,8	8,8	8,6	1	1	1	1	1	1	1	1	1	0	1	-5,637773	274,319084	315,437711	0
15.01.2021	10:19:28	0	28,227647	4,672776	2,54175	10,7964	0,175	88,877	0	1014,22	6,8	8,7	8,7	1	1	1	1	1	1	1	1	1	0	1	-3,875969	274,322103	317,213649	0
15.01.2021	10:19:29	0	28,110843	3,419102	2,52675	357,5232	0,174	88,872	0	1014,32	6,8	8,8	8,7	1	1	1	1	1	1	1	1	1	0	1	-6,765328	274,167235	313,599825	0
15.01.2021	10:19:30	0	28,344164	2,507355	2,49825	349,8732	0,172	88,86	0	1014,02	6,8	8,8	8,6	1	1	1	1	1	1	1	1	1	0	1	-5,778717	274,204711	314,76163	0
15.01.2021	10:19:31	0	28,344201	4,786766	2,637	353,196	0,175	88,885	0	1014,2	6,8	8,8	8,6	1	1	1	1	1	1	1	1	1	0	1	-4,016913	274,319084	317,058571	0
15.01.2021	10:19:32	0	28,46088	2,393381	2,60925	348,2892	0,169	88,871	0	1014,14	6,8	8,8	8,6	1	1	1	1	1	1	1	1	1	0	1	-6,483439	274,180718	313,944737	0
15.01.2021	10:19:33	0	28,57756	3,305144	2,58975	354,8196	0,173	88,886	0	1014,08	6,8	8,8	8,6	1	1	1	1	1	1	1	1	1	0	1	-9,654686	274,281386	311,244341	0
15.01.2021	10:19:34	0	28,227666	4,216905	2,51925	359,1396	0,175	88,891	0	1014,24	6,8	8,8	8,6	1	1	1	1	1	1	1	1	1	0	1	-1,973221	274,349295	319,243729	0
15.01.2021	10:19:35	0	28,111059	4,102907	2,44875	345,7584	0,171	88,89	0	1014,16	6,8	8,8	8,7	1	1	1	1	1	1	1	1	1	0	1	-2,60747	274,328142	318,510425	0
15.01.2021	10:19:36	0	28,461026	2,849239	2,50575	352,0908	0,176	88,884	0	1014,14	6,8	8,8	8,7	1	1	1	1	1	1	1	1	1	0	1	-6,412967	274,20171	314,11335	0
15.01.2021	10:19:37	0	27,994487	3,191146	2,51175	346,2048	0,173	88,891	0	1014,18	6,8	8,8	8,7	1	1	1	1	1	1	1	1	1	0	1	-7,188161	274,182217	313,247021	0
15.01.2021	10:19:38	0	28,111167	2,849253	2,46675	355,4352	0,183	88,884	0	1014,26	6,8	8,8	8,6	1	1	1	1	1	1	1	1	1	0	1	-6,906272	274,19871	313,606017	0
15.01.2021	10:19:39	0	27,994559	4,558775	2,54175	357,5664	0,176	88,898	0	1014,2	6,8	8,8	8,7	1	1	1	1	1	1	1	1	1	0	1	-4,016913	274,17922	316,404257	0
15.01.2021	10:19:40	0	27,994595	3,988949	2,84925	353,8656	0,174	88,894	0	1014,26	6,8	8,8	8,6	1	1	1	1	1	1	1	1	1	0	1	-3,523608	274,334184	317,622575	0
15.01.2021	10:19:41	0	27,994631	2,507323	2,82675	359,9712	0,179	88,869	0	1014,06	6,8	8,8	8,7	1	1	1	1	1	1	1	1	1	0	1	-1,832276	274,308521	319,193758	0
15.01.2021	10:19:42	0	28,577889	3,419075	2,65425	344,6388	0,177	88,901	0	1014,16	6,9	8,8	8,7	1	1	1	1	1	1	1	1	1	0	1	-6,412967	274,19421	314,078285	0
15.01.2021	10:19:43	0	28,111347	3,419073	2,50125	359,8668	0,17	88,892	0	1014,12	6,9	8,8	8,7	1	1	1	1	1	1	1	1	1	0	1	-3,100775	274,335694	318,052482	0
15.01.2021	10:19:44	0	28,228028	3,87497	2,39475	348,6888	0,18	88,888	0	1014,1	6,8	8,8	8,6	1	1	1	1	1	1	1	1	1	0	1	-4,087385	274,231738	316,579358	0
15.01.2021	10:19:45	0	28,111419	3,760975	2,25975	345,0276	0,18	88,897	0	1014,06	6,8	8,8	8,7	1	1	1	1	1	1	1	1	1	0	1	-1,62086	274,149273	318,660346	0
15.01.2021	10:19:46	0	28,578035	4,900662	2,22075	354,978	0,169	88,891	0	1014,14	6,8	8,8	8,7	1	1	1	1	1	1	1	1	1	0	1	-6,694856	274,257298	314,091459	0
15.01.2021	10:19:47	0	28,111491	3,077158	2,2335	0,108	0,179	88,885	0	1014,14	6,8	8,8	8,7	1	1	1	1	1	1	1	1	1	0	1	-0,422833	274,335694	320,730424	0
15.01.2021	10:19:48	0	28,344817	3,191125	2,35275	355,3236	0,177	88,909	0	1013,98	6,8	8,8	8,7	1	1	1	1	1	1	1	1	1	0	1	-4,298802	274,237749	316,396059	0
15.01.2021	10:19:49	0	28,69479	4,786713	2,40375	356,4972	0,18	88,917	0	1014,18	6,8	8,8	8,6	1	1	1	1	1	1	1	1	1	0	1	-5,990134	274,337205	315,170197	0
15.01.2021	10:19:50	0	28,111599	3,760986	2,424	352,4688	0,176	88,902	0	1014,1	6,8	8,8	8,6	1	1	1	1	1	1	1	1	1	0	1	-4,721635	274,27988	316,170343	0
15.01.2021	10:19:51	0	28,111634	3,760961	2,41125	349,0524	0,175	88,916	0	1014,18	6,8	8,8	8,7	1	1	1	1	1	1	1	1	1	0	1	-5,144468	274,183716	315,29772	0
15.01.2021	10:19:52	0	28,11167	4,330801	2,475	350,982	0,173	88,918	0	1014,16	6,8	8,8	8,7	1	1	1	1	1	1	1	1	1	0	1	-4,439746	274,317575	316,628671	0
15.01.2021	10:19:53	0	28,111706	2,963178	2,5785	9,3528	0,179	88,918	0	1014,18	6,8	8,8	8,7	1	1	1	1	1	1	1	1	1	0	1	-10,570825	274,302488	310,426967	0
15.01.2021	10:19:54	0	28,111742	3,077163	2,4645	354,6144	0,179	88,973	0	1014,18	6,8	8,8	8,6	1	1	1	1	1	1	1	1	1	0	1	-4,369274	274,161246	315,967886	0
15.01.2021	10:19:55	0	28,228425	2,963174	2,499	357,588	0,177	88,905	0	1014,14	6,8	8,8	8,7	1	1	1	1	1	1	1	1	1	0	1	-5,426357	274,162743	314,917801	0
15.01.2021	10:19:56	0	28,345107	3,191109	2,5515	360	0,181	88,931	0	1014,12	6,8	8,8	8,7	1	1	1	1	1	1	1	1	1	0	1	-0,845666	274,212214	319,72977	0
15.01.2021	10:19:57	0	28,11185	5,128565	2,65875	359,0388	0,182	88,93	0	1014,06	6,8	8,8	8,7	1	1	1	1	1	1	1	1	1	0	1	-4,298802	274,335694	316,854455	0
15.01.2021	10:19:58	0	28,34518	4,558749	2,69775	355,7664	0,177	88,925	0	1014,1	7	8,8	8,6	1	1	1	1	1	1	1	1	1	0	1	-2,255109	274,239252	318,446783	0
15.01.2021	10:19:59	0	27,878628	2,963185	2,721	6,7968	0,177	88,927	0	1014,14	6,8	8,8	8,6	1	1	1	1	1	1	1	1	1	0	1	-5,919662	274,159749	314,410502	0
15.01.2021	10:20:00	0	28,345288	4,672709	2,901	353,9448	0,174	88,918	0	1014,12	6,8	8,8	8,6	1	1	1	1	1	1	1	1	1	0	1	-0	274,219721	320,610541	0
15.01.2021	10:20:01	0	28,345288	4,672709	2,901	353,9448	0,174	88,918	0	1014,12	6,8	8,8	8,6	1	1	1	1	1	1	1	1	1	0	1	-0	274,168733	320,372153	0
15.01.2021	10:20:02	0	27,995382	4,102839	3,27075	354,9528	0,177	88,943	0	1014,2	6,8	8,8	8,7	1	1	1	1	1	1	1	1	1	0	1	-8,104299	274,28892	312,829987	0
15.01.2021	10:20:03	0	27,995418	3,305083	3,64275	3,0204	0,181	88,937	0	1014,16	6,8	8,8	8,6	1	1	1	1	1	1	1	1	1	0	1	-3,453136	274,162743	316,891021	0
15.01.2021	10:20:04	0	27,878806	4,786669	3,78525	341,2584	0,168	88,931	0	1014,04	6,8	8,8	8,6	1	1	1	1	1	1	1	1	1	0	1	-4,510218	274,222724	316,114369	0
15.01.2021	10:20:05	0	27,995489	4,672697	3,77925	3,7476	0,181	88,947	0	1014,26	6,8	8,8	8,6	1	1	1	1	1	1	1	1	1	0	1	-4,933051	274,317575	316,135366	0
15.01.2021	10:20:06	0	28,462117	4,900631	3,5205	348,3324	0,176	88,93	0	1014,26	6,8	8,8	8,6	1	1	1	1	1	1	1	1	1	0	1	-6,412967	274,225728	314,22567	0
15.01.2021	10:20:07	0	28,112209	5,3565	3,69225	359,4708	0,173	88,935	0	1014,16	6,8	8,8	8,6	1	1	1	1	1	1	1	1	1	0	1	-4,651163	274,319084	316,424321	0
15.01.2021	10:20:08	0	27,995596	3,874913	3,81675	0,4968	0,178	88,951	0	1014,22	6,8	8,8	8,6	1	1	1	1	1	1	1	1	1	0	1	-0,563777	274,308521	320,462257	0
15.01.2021	10:20:09	0	28,112281	2,963167	3,82725	359,478	0,178	88,938	0	1014,1	6,8	8,8	8,6	1	1	1	1	1	1	1	1	1	0	1	-6,412967	274,19571	314,085297	0
15.01.2021	10:20:10	0	28,345614	3,305049	3,711	356,1516	0,175	88,939	0	1014,14	6,8	8,8	8,7	1	1	1	1	1	1	1	1	1	0	1	-6,060606	274,180718	314,36757	0
15.01.2021	10:20:11	0	28,229001	2,621244	3,82575	352,8864	0,175	88,922	0	1014,1	6,8	8,8	8,7	1	1	1	1	1	1	1	1	1	0	1	-5,778717	274,213715	314,803739	0
15.01.2021	10:20:12	0	27,87909	4,3308	3,9225	349,9056	0,181	88,929	0	1014,24	6,8	8,8	8,5	1	1	1	1	1	1	1	1	1	0	1	-6,906272	274,337205	314,254059	0
15.01.2021	10:20:13	0	27,995775	3,532977	4,2675	344,2032	0,174	88,932	0	1014,06	6,8	8,8	8,7	1	1	1	1	1	1	1	1	1	0	1	-3,805497	274,215217	316,783979	0
15.01.2021	10:20:14	0	28,345758	4,672644	3,993	339,4044	0,185	88,94	0	1014,2	6,8	8,8	8,7	1	1	1	1	1	1	1	1	1	0	1	-7,540521	274,156756	312,775651	0
15.01.2021	10:20:15	0	28,345795	4,444707	3,5115	350,6508	0,18	88,934	0	1014,16	6,8	8,8	8,7	1	1	1	1	1	1	1	1	1	0	1	-3,664553	274,285906	317,255628	0
15.01.2021	10:20:16	0	27,995882	4,444704	3,417	345,78	0,181	88,917	0	1014,12	6,8	8,8	8,7	1	1	1	1	1	1	1	1	1	0	1	-4,298802	274,174725	316,101357	0
15.01.2021	10:20:17	0	28,112568	3,988883	3,444	348,264	0,175	88,919	0	1014,2	6,8	8,8	8,5	1	1	1	1	1	1	1	1	1	0	1	-6,765328	274,221223	313,852237	0
15.01.2021	10:20:18	0	28,345903	3,418999	3,39075	350,298	0,177	88,909	0	1014,1	6,8	8,8	8,7	1	1	1	1	1	1	1	1	1	0	1	-1,62086	274,173227	318,772297	0
15.01.2021	10:20:19	0	28,229289	2,963131	3,25425	356,4936	0,177	88,936	0	1014,14	6,8	8,8	8,7	1	1	1	1	1	1	1	1	1	0	1	-6,131078	274,234743	314,549723	0
15.01.2021	10:20:20	0	27,879375	3,874884	3,2805	3,4776	0,172	88,926	0	1014,14	6,8	8,8	8,6	1	1	1	1	1	1	1	1	1	0	1	-7,117689	274,162743	313,226469	0
15.01.2021	10:20:21	0	28,579312	4,558657	3,159	0,8496	0,171	88,933	0	1014,06	6,8	8,8	8,7	1	1	1	1	1	1	1	1	1	0	1	-6,765328	274,291934	314,183066	0
15.01.2021	10:20:22	0	27,879446	3,760912	3,08625	352,098	0,178	88,934	0	1014,2	6,8	8,8	8,6	1	1	1	1	1	1	1	1	1	0	1	-2,959831	274,314556	318,094456	0
15.01.2021	10:20:23	0	27,996132	4,102786	3,06	3,7836	0,176	88,93	0	1014,22	6,8	8,8	8,7	1	1	1	1	1	1	1	1	1	0	1	-6,483439	274,326632	314,627386	0
15.01.2021	10:20:24	0	28,112818	3,760908	3,06225	10,0728	0,181	88,941	0	1014,16	6,8	8,8	8,6	1	1	1	1	1	1	1	1	1	0	1	-4,721635	274,269338	316,121015	0
15.01.2021	10:20:25	0	27,879552	2,849171	3,03375	4,4712	0,182	88,932	0	1014,16	6,8	8,8	8,6	1	1	1	1	1	1	1	1	1	0	1	-5,003524	274,334184	316,14266	0
15.01.2021	10:20:26	0	27,996239	3,988813	2,949	4,8384	0,18	88,92	0	1014,2	6,8	8,8	8,7	1	1	1	1	1	1	1	1	1	0	1	-8,245243	274,221223	312,372321	0
15.01.2021	10:20:27	0	28,346228	2,735201	2,91375	360	0,18	88,931	0	1014,2	6,8	8,8	8,6	1	1	1	1	1	1	1	1	1	0	1	-3,312192	274,338716	317,855215	0
15.01.2021	10:20:28	0	28,112962	4,330732	2,81475	354,2004	0,181	88,921	0	1014,3	6,8	8,8	8,6	1	1	1	1	1	1	1	1	1	0	1	-10,993658	274,307013	310,025315	0
15.01.2021	10:20:29	0	28,229649	4,216763	2,70975	357,6132	0,178	88,934	0	1014,28	6,8	8,8	8,6	1	1	1	1	1	1	1	1	1	0	1	-1,62086	274,290427	319,320479	0
15.01.2021	10:20:30	0	27,996382	4,102793	2,73975	359,1684	0,18	88,929	0	1014,24	6,8	8,8	8,6	1	1	1	1	1	1	1	1	1	0	1	-8,245243	274,334184	312,90094	0
15.01.2021	10:20:31	0	28,346372	4,900526	2,8575	359,3844	0,182	88,927	0	1014,04	6,8	8,8	8,7	1	1	1	1	1	1	1	1	1	0	1	-6,272023	274,291934	314,676371	0
15.01.2021	10:20:32	0	27,879801	5,242452	2,92875	357,5844	0,169	88,923	0	1014,12	6,8	8,8	8,6	1	1	1	1	1	1	1	1	1	0	1	-3,100775	274,31003	317,932321	0
15.01.2021	10:20:33	0	27,879836	3,418988	3,01725	357,6528	0,178	88,915	0	1014,18	6,8	8,8	8,6	1	1	1	1	1	1	1	1	1	0	1	-4,510218	274,170231	315,868935	0
15.01.2021	10:20:34	0	27,76322	2,735189	2,919	2,2896	0,178	88,921	0	1014,16	6,8	8,8	8,6	1	1	1	1	1	1	1	1	1	0	1	-5,144468	274,261812	315,662968	0
15.01.2021	10:20:35	0	28,113212	4,900514	2,81925	359,856	0,181	88,91	0	1014,2	6,8	8,8	8,7	1	1	1	1	1	1	1	1	1	0	1	-5,144468	274,340227	316,030014	0
15.01.2021	10:20:36	0	27,996595	2,621204	2,79225	357,228	0,181	88,94	0	1014,2	6,8	8,8	8,7	1	1	1	1	1	1	1	1	1	0	1	-1,902748	274,227231	318,742914	0
15.01.2021	10:20:37	0	28,113284	3,41898	2,93025	354,6468	0,182	88,931	0	1014,14	6,8	8,8	8,6	1	1	1	1	1	1	1	1	1	0	1	-3,875969	274,173227	316,517188	0
15.01.2021	10:20:38	0	28,229972	4,900564	3,168	359,4708	0,172	88,925	0	1013,94	7	8,8	8,5	1	1	1	1	1	1	1	1	1	0	1	-8,597604	274,347783	312,612266	0
15.01.2021	10:20:39	0	27,996702	2,621215	3,33975	0,1152	0,177	88,933	0	1014,16	6,8	8,8	8,6	1	1	1	1	1	1	1	1	1	0	1	-5,073996	274,326632	316,036829	0
15.01.2021	10:20:40	0	28,346697	3,874837	3,4125	353,1636	0,181	88,922	0	1014,12	6,8	8,8	8,6	1	1	1	1	1	1	1	1	1	0	1	-8,738548	274,28892	312,195737	0
15.01.2021	10:20:41	0	27,88012	2,963091	3,50025	359,0748	0,181	88,927	0	1014,28	6,8	8,8	8,7	1	1	1	1	1	1	1	1	1	0	1	-5,285412	274,334184	315,860771	0
15.01.2021	10:20:42	0	28,346769	3,874809	3,267	354,2904	0,185	88,935	0	1014,28	6,8	8,8	8,7	1	1	1	1	1	1	1	1	1	0	1	-7,82241	274,245266	312,907612	0
15.01.2021	10:20:43	0	27,880191	3,87483	3,147	348,1344	0,175	88,928	0	1014,2	6,8	8,8	8,6	1	1	1	1	1	1	1	1	1	0	1	-6,131078	274,337205	315,029253	0
15.01.2021	10:20:44	0	27,880227	5,242382	2,95125	356,1984	0,177	88,935	0	1014,18	6,8	8,8	8,7	1	1	1	1	1	1	1	1	1	0	1	-5,426357	274,23324	315,247415	0
15.01.2021	10:20:45	0	28,11357	4,672555	2,862	0,4824	0,176	88,917	0	1013,98	6,8	8,8	8,7	1	1	1	1	1	1	1	1	1	0	1	-5,637773	274,307013	315,381199	0
15.01.2021	10:20:46	0	28,113605	3,532926	2,71125	351,4284	0,173	88,922	0	1014,16	6,8	8,8	8,6	1	1	1	1	1	1	1	1	1	0	1	-6,272023	274,23324	314,401749	0
15.01.2021	10:20:47	0	27,880333	3,191028	2,55225	358,524	0,178	88,936	0	1014,22	7	8,8	8,6	1	1	1	1	1	1	1	1	1	0	1	-2,466526	274,170231	317,912628	0
15.01.2021	10:20:48	0	28,346985	3,418957	2,44125	358,0236	0,184	88,927	0	1014,16	6,8	8,8	8,6	1	1	1	1	1	1	1	1	1	0	1	-2,396054	274,30098	318,594679	0
15.01.2021	10:20:49	0	27,880404	3,53292	2,3415	346,8528	0,176	88,919	0	1014,24	6,8	8,8	8,6	1	1	1	1	1	1	1	1	1	0	1	-5,637773	274,177721	314,776393	0
15.01.2021	10:20:50	0	27,763785	3,077057	2,301	346,878	0,182	88,931	0	1014,26	6,8	8,8	8,6	1	1	1	1	1	1	1	1	1	0	1	-3,453136	274,284399	317,459993	0
15.01.2021	10:20:51	0	28,463748	3,304986	2,3175	347,9832	0,178	88,931	0	1014,18	6,8	8,8	8,6	1	1	1	1	1	1	1	1	1	0	1	-1,902748	274,320593	319,179802	0
15.01.2021	10:20:52	0	27,88051	3,760843	2,36925	352,1232	0,181	88,928	0	1014,24	6,8	8,8	8,6	1	1	1	1	1	1	1	1	1	0	1	-7,610994	274,329652	313,513973	0
15.01.2021	10:20:53	0	28,113856	4,558623	2,39175	351,3708	0,172	88,92	0	1014,14	7	8,8	8,5	1	1	1	1	1	1	1	1	1	0	1	-9,372798	274,322103	311,716821	0
15.01.2021	10:20:54	0	28,113891	4,102733	2,469	352,5084	0,176	88,945	0	1014,16	6,8	8,8	8,6	1	1	1	1	1	1	1	1	1	0	1	-2,677942	274,28892	318,256343	0
15.01.2021	10:20:55	0	27,880616	3,760837	2,52975	355,7952	0,182	88,934	0	1014,28	7	8,8	8,6	1	1	1	1	1	1	1	1	1	0	1	-7,258633	274,167235	313,10652	0
15.01.2021	10:20:56	0	27,880652	3,760834	2,4435	348,3288	0,179	88,925	0	1014,22	6,8	8,8	8,6	1	1	1	1	1	1	1	1	1	0	1	-8,597604	274,216718	311,998893	0
15.01.2021	10:20:57	0	27,880687	3,191009	2,2365	347,2488	0,177	88,919	0	1014,14	6,8	8,8	8,6	1	1	1	1	1	1	1	1	1	0	1	-7,399577	274,278374	313,485352	0
15.01.2021	10:20:58	0	27,997378	2,849096	2,12025	359,5464	0,18	88,916	0	1014,2	6,8	8,8	8,7	1	1	1	1	1	1	1	1	1	0	1	-7,751938	274,340227	313,422544	0
15.01.2021	10:20:59	0	27,764102	3,532898	2,127	4,0788	0,182	88,917	0	1014,1	6,8	8,8	8,6	1	1	1	1	1	1	1	1	1	0	1	-5,144468	274,23324	315,529304	0
15.01.2021	10:21:00	0	27,880829	3,077018	2,3055	2,6208	0,185	88,935	0	1014,14	6,8	8,8	8,7	1	1	1	1	1	1	1	1	1	0	1	-5,84919	274,355343	315,396086	0
15.01.2021	10:21:01	0	27,880829	3,077018	2,3055	2,6208	0,185	88,935	0	1014,14	6,8	8,8	8,7	1	1	1	1	1	1	1	1	1	0	1	-4,510218	274,249777	316,240908	0
15.01.2021	10:21:02	0	27,880864	3,418907	2,3055	349,4376	0,181	88,938	0	1014,04	6,8	8,8	8,7	1	1	1	1	1	1	1	1	1	0	1	-2,959831	274,182217	317,475351	0
15.01.2021	10:21:03	0	28,230869	3,988723	2,34075	347,9256	0,17	88,933	0	1014,24	7	8,8	8,7	1	1	1	1	1	1	1	1	1	0	1	-7,470049	274,285906	313,450131	0
15.01.2021	10:21:04	0	28,347561	5,128385	2,4285	350,6688	0,18	88,931	0	1014,22	7	8,8	8,6	1	1	1	1	1	1	1	1	1	0	1	-6,8358	274,341738	314,345758	0
15.01.2021	10:21:05	0	28,114284	4,672526	2,478	349,0704	0,18	88,927	0	1014,24	7	8,8	8,6	1	1	1	1	1	1	1	1	1	0	1	-5,496829	274,282893	315,409249	0
15.01.2021	10:21:06	0	27,997663	3,190991	2,63325	346,5288	0,172	88,934	0	1014,28	6,8	8,8	8,6	1	1	1	1	1	1	1	1	1	0	1	-7,399577	274,323613	313,697109	0
15.01.2021	10:21:07	0	28,231012	5,014412	2,8065	346,8132	0,178	88,936	0	1014,24	6,8	8,8	8,6	1	1	1	1	1	1	1	1	1	0	1	-4,933051	274,328142	316,184844	0
15.01.2021	10:21:08	0	28,347705	3,304951	2,96175	0,846	0,185	88,936	0	1014,18	6,8	8,8	8,6	1	1	1	1	1	1	1	1	1	0	1	-5,003524	274,177721	315,410642	0
15.01.2021	10:21:09	0	28,114427	3,646841	2,9625	355,086	0,18	88,952	0	1014,26	7	8,8	8,6	1	1	1	1	1	1	1	1	1	0	1	-7,470049	274,299472	313,513625	0
15.01.2021	10:21:10	0	27,76449	3,76078	3,04125	353,9556	0,181	88,943	0	1014,28	6,8	8,8	8,7	1	1	1	1	1	1	1	1	1	0	1	-4,510218	274,173227	315,882938	0
15.01.2021	10:21:11	0	28,231156	3,190982	3,09825	359,136	0,181	88,947	0	1014,18	6,8	8,8	8,6	1	1	1	1	1	1	1	1	1	0	1	-4,862579	274,245266	315,867443	0
15.01.2021	10:21:12	0	27,881218	4,330615	3,02625	6,0444	0,18	88,931	0	1014,14	7	8,8	8,6	1	1	1	1	1	1	1	1	1	0	1	-5,567301	274,34476	315,628412	0
15.01.2021	10:21:13	0	27,997911	3,304941	3,05775	9,7272	0,181	88,943	0	1014,16	6,8	8,8	8,6	1	1	1	1	1	1	1	1	1	0	1	-2,889359	274,243762	317,83363	0
15.01.2021	10:21:14	0	27,881289	3,077012	3,00075	19,5228	0,18	88,935	0	1014,16	7	8,8	8,6	1	1	1	1	1	1	1	1	1	0	1	-2,60747	274,331163	318,524568	0
15.01.2021	10:21:15	0	27,997982	4,672469	2,70075	16,4736	0,178	88,932	0	1014,2	6,8	8,8	8,7	1	1	1	1	1	1	1	1	1	0	1	-7,892882	274,218219	312,710637	0
15.01.2021	10:21:16	0	28,114676	2,849065	2,56875	3,762	0,181	88,924	0	1014,14	7	8,8	8,7	1	1	1	1	1	1	1	1	1	0	1	-6,694856	274,319084	314,380628	0
15.01.2021	10:21:17	0	27,881395	5,014381	2,55	8,9928	0,185	88,948	0	1014,22	7	8,8	8,6	1	1	1	1	1	1	1	1	1	0	1	-10,007047	274,352319	311,224064	0
15.01.2021	10:21:18	0	27,88143	2,621152	2,583	1,908	0,181	88,931	0	1014,2	7	8,8	8,6	1	1	1	1	1	1	1	1	1	0	1	-5,496829	274,248273	315,247263	0
15.01.2021	10:21:19	0	27,881465	2,621135	2,592	7,5024	0,186	88,939	0	1014,24	7	8,8	8,7	1	1	1	1	1	1	1	1	1	0	1	-6,765328	274,331163	314,36671	0
15.01.2021	10:21:20	0	28,348137	4,444557	2,51025	356,5404	0,182	88,938	0	1014,2	7	8,8	8,6	1	1	1	1	1	1	1	1	1	0	1	-8,033827	274,317575	313,034591	0
15.01.2021	10:21:21	0	28,464832	5,014369	2,4675	359,478	0,177	88,933	0	1014,22	7	8,8	8,6	1	1	1	1	1	1	1	1	1	0	1	-6,553911	274,240755	314,155012	0
15.01.2021	10:21:22	0	27,998231	3,646812	2,4435	358,686	0,184	88,932	0	1014,26	6,8	8,8	8,6	1	1	1	1	1	1	1	1	1	0	1	-5,355884	274,349295	315,861065	0
15.01.2021	10:21:23	0	28,114925	2,507182	2,42025	348,2532	0,184	88,943	0	1014,2	7	8,8	8,6	1	1	1	1	1	1	1	1	1	0	1	-5,144468	274,231738	315,522276	0
15.01.2021	10:21:24	0	27,881642	3,760748	2,397	360	0,184	88,927	0	1014,12	7	8,8	8,7	1	1	1	1	1	1	1	1	1	0	1	-4,439746	274,237749	316,255114	0
15.01.2021	10:21:25	0	28,348316	2,735104	2,4315	6,4224	0,184	88,936	0	1014,2	7	8,8	8,6	1	1	1	1	1	1	1	1	1	0	1	-9,020437	274,314556	312,03385	0
15.01.2021	10:21:26	0	28,348352	4,444541	2,48925	348,3036	0,182	88,932	0	1014,22	7	8,8	8,6	1	1	1	1	1	1	1	1	1	0	1	-4,721635	274,230235	315,938081	0
15.01.2021	10:21:27	0	27,998408	4,558501	2,5335	357,5484	0,185	88,934	0	1014,1	6,8	8,8	8,6	1	1	1	1	1	1	1	1	1	0	1	-8,80902	274,346272	312,393771	0
15.01.2021	10:21:28	0	28,115104	4,102624	2,613	356,5692	0,182	88,93	0	1014,22	7	8,8	8,7	1	1	1	1	1	1	1	1	1	0	1	-3,875969	274,218219	316,72755	0
15.01.2021	10:21:29	0	28,231799	3,532834	2,7645	359,1072	0,183	88,924	0	1014,24	7	8,8	8,6	1	1	1	1	1	1	1	1	1	0	1	-7,258633	274,349295	313,958317	0
15.01.2021	10:21:30	0	28,115175	4,216606	2,7735	355,7844	0,181	88,934	0	1014,26	6,8	8,8	8,6	1	1	1	1	1	1	1	1	1	0	1	-5,708245	274,270844	315,14145	0
15.01.2021	10:21:31	0	28,465192	4,330565	2,79375	356,4648	0,184	88,943	0	1014,24	7	8,8	8,6	1	1	1	1	1	1	1	1	1	0	1	-8,245243	274,347783	312,964627	0
15.01.2021	10:21:32	0	28,115246	4,672449	2,89575	352,8324	0,183	88,935	0	1014,26	7	8,8	8,6	1	1	1	1	1	1	1	1	1	0	1	-8,033827	274,261812	312,773609	0
15.01.2021	10:21:33	0	27,998621	4,444522	2,90025	0,1152	0,186	88,935	0	1014,26	6,8	8,8	8,6	1	1	1	1	1	1	1	1	1	0	1	-8,033827	274,346272	313,168964	0
15.01.2021	10:21:34	0	28,231978	4,444519	2,90175	356,0868	0,182	88,944	0	1014,18	6,8	8,8	8,6	1	1	1	1	1	1	1	1	1	0	1	-8,174771	274,341738	313,006787	0
15.01.2021	10:21:35	0	27,88203	3,874707	3,23325	351,7632	0,18	88,939	0	1014,24	7	8,8	8,6	1	1	1	1	1	1	1	1	1	0	1	-4,862579	274,212214	315,712857	0
15.01.2021	10:21:36	0	27,998727	4,444514	3,35175	346,8348	0,187	88,942	0	1014,22	7	8,8	8,6	1	1	1	1	1	1	1	1	1	0	1	-7,329105	274,352319	313,902006	0
15.01.2021	10:21:37	0	28,115424	3,988664	3,31575	352,6092	0,188	88,933	0	1014,24	6,8	8,8	8,6	1	1	1	1	1	1	1	1	1	0	1	-4,016913	274,282893	316,889165	0
15.01.2021	10:21:38	0	27,765474	3,8747	3,33525	357,6096	0,187	88,933	0	1014,26	6,8	8,8	8,6	1	1	1	1	1	1	1	1	1	0	1	-4,016913	274,17922	316,404257	0
15.01.2021	10:21:39	0	28,348818	3,988659	3,5445	343,044	0,18	88,934	0	1014,1	6,8	8,8	8,6	1	1	1	1	1	1	1	1	1	0	1	-8,879493	274,299472	312,104182	0
15.01.2021	10:21:40	0	27,998868	3,190925	3,60225	354,5964	0,177	88,932	0	1014,3	6,8	8,8	8,6	1	1	1	1	1	1	1	1	1	0	1	-5,708245	274,192711	314,775995	0
15.01.2021	10:21:41	0	27,882242	3,304885	3,38175	346,8204	0,18	88,954	0	1014,2	7	8,8	8,6	1	1	1	1	1	1	1	1	1	0	1	-4,298802	274,260308	316,501593	0
15.01.2021	10:21:42	0	28,232264	4,444498	3,07425	0,8604	0,184	88,934	0	1014,24	7	8,8	8,6	1	1	1	1	1	1	1	1	1	0	1	-7,751938	274,164241	312,599217	0
15.01.2021	10:21:43	0	27,998975	3,532804	3,102	359,8668	0,186	88,928	0	1014,12	7	8,8	8,6	1	1	1	1	1	1	1	1	1	0	1	-13,883016	274,347783	307,326854	0
15.01.2021	10:21:44	0	28,348998	4,102608	3,49425	351,0648	0,184	88,944	0	1014,2	6,8	8,8	8,6	1	1	1	1	1	1	1	1	1	0	1	-3,875969	274,248273	316,868122	0
15.01.2021	10:21:45	0	28,115708	3,760722	3,61425	3,7836	0,186	88,952	0	1014,28	7	8,8	8,6	1	1	1	1	1	1	1	1	1	0	1	-7,258633	274,173227	313,134524	0
15.01.2021	10:21:46	0	28,115744	4,216565	3,31575	4,8204	0,181	88,941	0	1014,22	7	8,8	8,6	1	1	1	1	1	1	1	1	1	0	1	-4,157858	274,219721	316,452684	0
15.01.2021	10:21:47	0	28,232442	3,304873	3,0765	5,202	0,18	88,946	0	1014,18	7	8,8	8,6	1	1	1	1	1	1	1	1	1	0	1	-13,389711	274,317575	307,678707	0
15.01.2021	10:21:48	0	28,115815	2,735066	2,9445	359,1324	0,182	88,927	0	1014,16	7	8,8	8,6	1	1	1	1	1	1	1	1	1	0	1	-9,936575	274,338716	311,230831	0
15.01.2021	10:21:49	0	27,999187	4,102596	3,10725	355,0284	0,184	88,948	0	1014,24	7	8,8	8,6	1	1	1	1	1	1	1	1	1	0	1	-12,191684	274,355343	309,053591	0
15.01.2021	10:21:50	0	28,115886	4,672398	3,207	10,0584	0,183	88,923	0	1014,24	7	8,8	8,6	1	1	1	1	1	1	1	1	1	0	1	-4,087385	274,273855	316,776401	0
15.01.2021	10:21:51	0	28,349248	4,672395	3,0675	6,4152	0,175	88,928	0	1014,22	7	8,8	8,6	1	1	1	1	1	1	1	1	1	0	1	-2,677942	274,186713	317,778261	0
15.01.2021	10:21:52	0	28,349284	3,874667	2,87475	6,4296	0,184	88,946	0	1014,28	7	8,8	8,6	1	1	1	1	1	1	1	1	1	0	1	-6,694856	274,293441	314,260593	0
15.01.2021	10:21:53	0	27,999328	4,78635	2,9115	3,3912	0,18	88,943	0	1014,18	7	8,8	8,6	1	1	1	1	1	1	1	1	1	0	1	-8,527132	274,352319	312,703979	0
15.01.2021	10:21:54	0	28,699348	4,330505	2,98575	8,9964	0,18	88,951	0	1014,26	6,8	8,8	8,6	1	1	1	1	1	1	1	1	1	0	1	-7,540521	274,297964	313,436096	0
15.01.2021	10:21:55	0	28,116063	4,786344	2,96925	5,6844	0,178	88,937	0	1014,26	7	8,8	8,6	1	1	1	1	1	1	1	1	1	0	1	-3,171247	274,308521	317,854787	0
15.01.2021	10:21:56	0	28,582756	3,418815	2,87625	10,0512	0,177	88,929	0	1014,12	7	8,8	8,6	1	1	1	1	1	1	1	1	1	0	1	-10,711769	274,210713	309,856648	0
15.01.2021	10:21:57	0	28,116134	3,760695	2,721	4,464	0,18	88,94	0	1014,22	6,8	8,8	8,6	1	1	1	1	1	1	1	1	1	0	1	-0,634249	274,185214	319,814946	0
15.01.2021	10:21:58	0	28,349499	4,444428	2,53275	356,5476	0,184	88,938	0	1014,12	7	8,8	8,7	1	1	1	1	1	1	1	1	1	0	1	-6,131078	274,322103	314,95854	0
15.01.2021	10:21:59	0	28,116205	3,76069	2,5335	4,824	0,187	88,933	0	1014,36	7	8,8	8,6	1	1	1	1	1	1	1	1	1	0	1	-7,329105	274,252785	313,436095	0
15.01.2021	10:22:00	0	28,349606	5,242168	2,68275	4,4712	0,184	88,934	0	1014,36	7	8,8	8,6	1	1	1	1	1	1	1	1	1	0	1	-5,496829	274,335694	315,656428	0
15.01.2021	10:22:01	0	28,349606	5,242168	2,68275	4,4712	0,184	88,934	0	1014,36	7	8,8	8,6	1	1	1	1	1	1	1	1	1	0	1	-7,329105	274,264822	313,492414	0
15.01.2021	10:22:02	0	28,349642	4,786324	2,69775	358,74	0,185	88,937	0	1014,16	7	8,8	8,6	1	1	1	1	1	1	1	1	1	0	1	-5,144468	274,335694	316,008789	0
15.01.2021	10:22:03	0	28,116347	2,962961	2,74575	9,828	0,187	88,948	0	1014,22	7	8,8	8,6	1	1	1	1	1	1	1	1	1	0	1	-8,033827	274,158252	312,289341	0
15.01.2021	10:22:04	0	28,116383	5,356118	2,745	3,3912	0,181	88,934	0	1014,22	7	8,8	8,6	1	1	1	1	1	1	1	1	1	0	1	-7,681466	274,290427	313,259873	0
15.01.2021	10:22:05	0	28,583081	3,760676	2,70075	7,128	0,178	88,924	0	1014,34	7	8,8	8,6	1	1	1	1	1	1	1	1	1	0	1	-7,188161	274,174725	313,211998	0
15.01.2021	10:22:06	0	28,583117	2,62106	2,5635	3,0132	0,185	88,936	0	1014,24	7	8,8	8,7	1	1	1	1	1	1	1	1	1	0	1	-6,342495	274,218219	314,261024	0
15.01.2021	10:22:07	0	28,349821	2,962954	2,439	2,3112	0,178	88,914	0	1014,22	7	8,8	8,6	1	1	1	1	1	1	1	1	1	0	1	-4,651163	274,278374	316,233767	0
15.01.2021	10:22:08	0	28,583189	4,444428	2,33175	355,3848	0,181	88,936	0	1014,24	7	8,8	8,6	1	1	1	1	1	1	1	1	1	0	1	-4,721635	274,361393	316,551976	0
15.01.2021	10:22:09	0	28,11656	3,988587	2,358	5,22	0,182	88,921	0	1014,24	7	8,8	8,6	1	1	1	1	1	1	1	1	1	0	1	-6,20155	274,317575	314,866867	0
15.01.2021	10:22:10	0	28,233262	4,558382	2,469	1,5336	0,187	88,929	0	1014,2	7	8,8	8,6	1	1	1	1	1	1	1	1	1	0	1	-9,161381	274,341738	312,020177	0
15.01.2021	10:22:11	0	28,583297	4,44442	2,60625	357,9732	0,178	88,933	0	1014,18	6,8	8,8	8,6	1	1	1	1	1	1	1	1	1	0	1	-8,245243	274,308521	312,780791	0
15.01.2021	10:22:12	0	28,233333	4,900255	2,64525	359,4312	0,183	88,914	0	1014,16	7	8,8	8,6	1	1	1	1	1	1	1	1	1	0	1	-10,147992	274,317575	310,920426	0
15.01.2021	10:22:13	0	28,583369	3,646699	2,63475	354,9528	0,189	88,939	0	1014,18	7	8,8	8,6	1	1	1	1	1	1	1	1	1	0	1	-6,553911	274,216718	314,042586	0
15.01.2021	10:22:14	0	28,233404	4,558371	2,74725	360	0,184	88,922	0	1014,08	7	8,8	8,6	1	1	1	1	1	1	1	1	1	0	1	-5,567301	274,358368	315,692141	0
15.01.2021	10:22:15	0	28,23344	4,786286	2,93175	0,4824	0,18	88,937	0	1014,16	6,9	8,8	8,6	1	1	1	1	1	1	1	1	1	0	1	-5,778717	274,328142	315,339178	0
15.01.2021	10:22:16	0	28,233475	3,418774	2,97675	13,536	0,184	88,929	0	1014,24	6,9	8,8	8,6	1	1	1	1	1	1	1	1	1	0	1	-10,570825	274,28892	310,363461	0
15.01.2021	10:22:17	0	28,233511	4,330444	2,75625	15,4008	0,183	88,931	0	1014,26	7	8,8	8,6	1	1	1	1	1	1	1	1	1	0	1	-5,990134	274,317575	315,078284	0
15.01.2021	10:22:18	0	28,000211	2,621057	2,72175	0,1224	0,179	88,92	0	1014,14	7	8,8	8,6	1	1	1	1	1	1	1	1	1	0	1	-3,453136	274,350807	317,770894	0
15.01.2021	10:22:19	0	28,466917	4,786275	2,694	360	0,183	88,907	0	1014,28	7	8,8	8,6	1	1	1	1	1	1	1	1	1	0	1	-4,298802	274,31003	316,734294	0
15.01.2021	10:22:20	0	28,583621	3,532725	2,77875	355,3668	0,179	88,921	0	1014,34	7	8,8	8,6	1	1	1	1	1	1	1	1	1	0	1	-10,993658	274,323613	310,103029	0
15.01.2021	10:22:21	0	28,233653	3,646681	2,80725	7,8804	0,187	88,923	0	1014,3	6,8	8,8	8,6	1	1	1	1	1	1	1	1	1	0	1	-4,721635	274,185214	315,72756	0
15.01.2021	10:22:22	0	28,233689	3,418762	2,64	343,4436	0,189	88,926	0	1014,24	6,8	8,8	8,6	1	1	1	1	1	1	1	1	1	0	1	-9,725159	274,219721	310,885383	0
15.01.2021	10:22:23	0	28,233724	3,646677	2,5785	356,1984	0,187	88,932	0	1014,16	7	8,8	8,6	1	1	1	1	1	1	1	1	1	0	1	-5,496829	274,350807	315,727201	0
15.01.2021	10:22:24	0	28,467097	2,621047	2,619	346,068	0,186	88,904	0	1014,22	7	8,8	8,6	1	1	1	1	1	1	1	1	1	0	1	-5,567301	274,303996	315,43755	0
15.01.2021	10:22:25	0	28,467133	4,55834	2,724	358,0884	0,187	88,93	0	1014,22	7	8,8	8,6	1	1	1	1	1	1	1	1	1	0	1	-4,439746	274,182217	315,995435	0
15.01.2021	10:22:26	0	28,233831	4,786255	2,64225	349,8876	0,184	88,92	0	1014,18	7	8,8	8,6	1	1	1	1	1	1	1	1	1	0	1	-7,117689	274,319084	313,957795	0
15.01.2021	10:22:27	0	28,583873	3,760626	2,568	350,2728	0,178	88,922	0	1014,22	7	8,8	8,6	1	1	1	1	1	1	1	1	1	0	1	-7,047216	274,356855	314,205142	0
15.01.2021	10:22:28	0	28,46724	3,874582	2,58675	351,5724	0,18	88,945	0	1014,24	6,9	8,8	8,6	1	1	1	1	1	1	1	1	1	0	1	-8,315715	274,215217	312,273761	0
15.01.2021	10:22:29	0	28,350607	4,216455	2,8365	337,5288	0,183	88,94	0	1014,32	7	8,8	8,6	1	1	1	1	1	1	1	1	1	0	1	-4,933051	274,210713	315,635366	0
15.01.2021	10:22:30	0	28,350642	4,786243	3,17325	9,3528	0,178	88,938	0	1014,24	7	8,8	8,6	1	1	1	1	1	1	1	1	1	0	1	-4,439746	274,337205	316,720585	0
15.01.2021	10:22:31	0	28,817356	4,672282	3,0645	3,366	0,183	88,92	0	1014,06	7	8,8	8,6	1	1	1	1	1	1	1	1	1	0	1	-3,59408	274,236246	317,09375	0
15.01.2021	10:22:32	0	28,467383	4,672279	2,862	352,1196	0,182	88,945	0	1014,26	7	8,8	8,6	1	1	1	1	1	1	1	1	1	0	1	-3,171247	274,209212	317,390152	0
15.01.2021	10:22:33	0	28,467419	5,128108	2,7165	347,5944	0,181	88,931	0	1014,22	7	8,8	8,6	1	1	1	1	1	1	1	1	1	0	1	-9,725159	274,337205	311,435173	0
15.01.2021	10:22:34	0	28,350785	4,3304	2,66025	341,658	0,183	88,938	0	1014,26	7	8,8	8,6	1	1	1	1	1	1	1	1	1	0	1	-7,258633	274,352319	313,972478	0
15.01.2021	10:22:35	0	28,350821	3,418735	2,70975	8,2548	0,179	88,949	0	1014,24	7	8,8	8,6	1	1	1	1	1	1	1	1	1	0	1	-5,708245	274,185214	314,74095	0
15.01.2021	10:22:36	0	28,350856	3,988521	2,71425	9,3456	0,184	88,956	0	1014,1	7	8,8	8,6	1	1	1	1	1	1	1	1	1	0	1	-9,090909	274,291934	311,857484	0
15.01.2021	10:22:37	0	28,584233	5,242054	2,86575	359,9964	0,181	88,942	0	1014,22	6,9	8,8	8,6	1	1	1	1	1	1	1	1	1	0	1	-5,567301	274,19871	314,944988	0
15.01.2021	10:22:38	0	28,700939	4,558305	3,15225	0,8784	0,187	88,962	0	1014,24	7	8,8	8,6	1	1	1	1	1	1	1	1	1	0	1	-4,933051	274,322103	316,156567	0
15.01.2021	10:22:39	0	28,467634	3,646642	3,23775	360	0,187	88,963	0	1014,36	6,9	8,8	8,6	1	1	1	1	1	1	1	1	1	0	1	-8,245243	274,384097	313,134725	0
15.01.2021	10:22:40	0	28,350999	4,786214	3,2025	10,044	0,186	88,959	0	1014,2	7	8,8	8,6	1	1	1	1	1	1	1	1	1	0	1	-7,329105	274,34476	313,866608	0
15.01.2021	10:22:41	0	28,467705	3,53268	3,243	0	0,18	88,931	0	1014,18	7	8,8	8,6	1	1	1	1	1	1	1	1	1	0	1	-7,399577	274,291934	313,548816	0
15.01.2021	10:22:42	0	28,35107	4,786208	3,255	13,5324	0,179	88,957	0	1014,22	7	8,8	8,6	1	1	1	1	1	1	1	1	1	0	1	-9,302326	274,185214	311,14687	0
15.01.2021	10:22:43	0	28,584448	2,962889	3,0615	354,9636	0,184	88,941	0	1014,22	7	8,8	8,6	1	1	1	1	1	1	1	1	1	0	1	-4,721635	274,177721	315,692531	0
15.01.2021	10:22:44	0	28,351141	3,874545	2,88525	18,072	0,181	88,941	0	1014,3	7	8,8	8,6	1	1	1	1	1	1	1	1	1	0	1	-6,412967	274,210713	314,15545	0
15.01.2021	10:22:45	0	28,58452	5,242028	2,80125	353,1456	0,181	88,942	0	1014,22	7	8,8	8,6	1	1	1	1	1	1	1	1	1	0	1	-3,171247	274,31003	317,861849	0
15.01.2021	10:22:46	0	28,351213	4,444326	2,97675	357,2424	0,185	88,957	0	1014,3	7	8,8	8,6	1	1	1	1	1	1	1	1	1	0	1	-2,748414	274,323613	318,348272	0
15.01.2021	10:22:47	0	28,46792	5,355979	3,132	358,6752	0,189	88,943	0	1014,22	7	8,8	8,6	1	1	1	1	1	1	1	1	1	0	1	-7,399577	274,329652	313,725389	0
15.01.2021	10:22:48	0	28,467956	3,304751	3,291	357,3792	0,185	88,955	0	1014,12	7	8,8	8,6	1	1	1	1	1	1	1	1	1	0	1	-1,973221	274,326632	319,137605	0
15.01.2021	10:22:49	0	28,467992	2,962878	3,42375	6,0516	0,183	88,948	0	1014,22	7	8,8	8,6	1	1	1	1	1	1	1	1	1	0	1	-7,892882	274,350807	313,331148	0
15.01.2021	10:22:50	0	28,701372	4,330358	3,46125	359,8092	0,187	88,958	0	1014,32	7	8,8	8,6	1	1	1	1	1	1	1	1	1	0	1	-7,82241	274,305504	313,189501	0
15.01.2021	10:22:51	0	28,468063	2,962875	3,375	6,4296	0,182	88,958	0	1014,28	7	8,8	8,6	1	1	1	1	1	1	1	1	1	0	1	-5,567301	274,19871	314,944988	0
15.01.2021	10:22:52	0	28,584771	4,216396	3,49275	6,066	0,187	88,963	0	1014,32	7	8,8	8,6	1	1	1	1	1	1	1	1	1	0	1	-2,889359	274,222724	317,735229	0
15.01.2021	10:22:53	0	28,351462	2,962871	3,4965	6,4188	0,185	88,957	0	1014,36	6,9	8,8	8,6	1	1	1	1	1	1	1	1	1	0	1	-8,104299	274,170231	312,274855	0
15.01.2021	10:22:54	0	28,818189	4,672217	3,3105	0,4788	0,188	88,968	0	1014,36	7	8,8	8,6	1	1	1	1	1	1	1	1	1	0	1	-5,285412	274,264822	315,536107	0
15.01.2021	10:22:55	0	28,351533	4,216389	3,057	3,7764	0,186	88,973	0	1014,26	7	8,8	8,6	1	1	1	1	1	1	1	1	1	0	1	-4,22833	274,185214	316,220865	0
15.01.2021	10:22:56	0	28,701588	4,444299	2,817	20,2752	0,192	88,972	0	1014,3	6,9	8,8	8,6	1	1	1	1	1	1	1	1	1	0	1	-1,550388	274,206211	318,996977	0
15.01.2021	10:22:57	0	28,701624	3,760558	2,7975	9,3708	0,186	88,952	0	1014,2	7	8,8	8,6	1	1	1	1	1	1	1	1	1	0	1	-7,470049	274,355343	313,775226	0
15.01.2021	10:22:58	0	28,234966	3,076819	2,9085	21,0204	0,185	88,975	0	1014,32	7	8,8	8,6	1	1	1	1	1	1	1	1	1	0	1	-5,21494	274,228733	315,437749	0
15.01.2021	10:22:59	0	28,351675	4,330335	2,91675	18,45	0,185	88,951	0	1014,18	6,9	8,8	8,6	1	1	1	1	1	1	1	1	1	0	1	-6,553911	274,347783	314,655959	0
15.01.2021	10:23:00	0	28,701768	4,330329	3,1425	17,2296	0,189	88,954	0	1014,22	7	8,8	8,6	1	1	1	1	1	1	1	1	1	0	1	-8,386187	274,362906	312,89451	0
15.01.2021	10:23:01	0	28,701768	4,330329	3,1425	17,2296	0,189	88,954	0	1014,22	7	8,8	8,6	1	1	1	1	1	1	1	1	1	0	1	-8,174771	274,302488	312,823021	0
15.01.2021	10:23:02	0	28,58513	3,076811	3,08775	14,2848	0,189	88,959	0	1014,22	6,9	8,8	8,6	1	1	1	1	1	1	1	1	1	0	1	-8,738548	274,337205	312,421783	0
15.01.2021	10:23:03	0	28,468492	3,076809	3,04125	354,9924	0,186	88,974	0	1014,32	7	8,8	8,6	1	1	1	1	1	1	1	1	1	0	1	-7,681466	274,227231	312,964197	0
15.01.2021	10:23:04	0	28,935225	3,760542	3,00525	349,8948	0,187	88,969	0	1014,32	7	8,8	8,6	1	1	1	1	1	1	1	1	1	0	1	-6,694856	274,332673	314,444255	0
15.01.2021	10:23:05	0	29,051935	2,734938	3,03	356,4108	0,189	88,97	0	1014,32	7	8,8	8,6	1	1	1	1	1	1	1	1	1	0	1	-7,047216	274,343249	314,141419	0
15.01.2021	10:23:06	0	28,351924	3,874494	3,021	354,978	0,179	88,962	0	1014,16	6,9	8,8	8,6	1	1	1	1	1	1	1	1	1	0	1	-7,258633	274,30098	313,7321	0
15.01.2021	10:23:07	0	28,935334	4,786136	3,042	358,3116	0,18	88,949	0	1014,18	6,9	8,8	8,6	1	1	1	1	1	1	1	1	1	0	1	-6,483439	274,370471	314,832697	0
15.01.2021	10:23:08	0	28,70202	3,874489	3,09	0,8496	0,188	88,961	0	1014,26	7	8,8	8,6	1	1	1	1	1	1	1	1	1	0	1	-5,708245	274,228733	314,944444	0
15.01.2021	10:23:09	0	28,352031	3,190754	3,0555	3,762	0,185	88,958	0	1014,32	6,9	8,8	8,6	1	1	1	1	1	1	1	1	1	0	1	-5,426357	274,20171	315,09996	0
15.01.2021	10:23:10	0	28,585417	4,330306	3,1335	7,8588	0,188	88,949	0	1014,32	7	8,8	8,6	1	1	1	1	1	1	1	1	1	0	1	-4,792107	274,35988	316,474419	0
15.01.2021	10:23:11	0	28,352102	4,444259	3,2985	8,6004	0,184	88,963	0	1014,38	6,9	8,8	8,6	1	1	1	1	1	1	1	1	1	0	1	-10,42988	274,267833	310,405726	0
15.01.2021	10:23:12	0	28,235462	5,014032	3,37875	5,6844	0,193	88,952	0	1014,2	7	8,8	8,6	1	1	1	1	1	1	1	1	1	0	1	-6,342495	274,173227	314,050662	0
15.01.2021	10:23:13	0	28,585524	4,672164	3,44025	2,2896	0,189	88,969	0	1014,18	7	8,8	8,6	1	1	1	1	1	1	1	1	1	0	1	-6,483439	274,349295	314,733511	0
15.01.2021	10:23:14	0	28,58556	4,786116	3,45825	9,7452	0,19	88,948	0	1014,34	6,9	8,8	8,6	1	1	1	1	1	1	1	1	1	0	1	-7,963354	274,231738	312,703389	0
15.01.2021	10:23:15	0	28,935624	5,241933	3,66075	3,7728	0,186	88,96	0	1014,16	6,9	8,8	8,6	1	1	1	1	1	1	1	1	1	0	1	-9,302326	274,314556	311,751961	0
15.01.2021	10:23:16	0	28,35228	3,41865	3,39225	344,2212	0,188	88,936	0	1014,34	7	8,8	8,6	1	1	1	1	1	1	1	1	1	0	1	-6,060606	274,228733	314,592083	0
15.01.2021	10:23:17	0	28,585668	4,330288	3,15	348,2208	0,183	88,945	0	1014,18	6,9	8,8	8,6	1	1	1	1	1	1	1	1	1	0	1	-6,131078	274,353831	315,107115	0
15.01.2021	10:23:18	0	28,70238	5,127969	2,9085	0	0,191	88,953	0	1014,4	7	8,8	8,6	1	1	1	1	1	1	1	1	1	0	1	-5,567301	274,239252	315,134591	0
15.01.2021	10:23:19	0	28,469063	3,532599	2,73375	1,5264	0,183	88,963	0	1014,18	6,9	8,8	8,6	1	1	1	1	1	1	1	1	1	0	1	-8,245243	274,19721	312,260033	0
15.01.2021	10:23:20	0	28,585775	4,558189	2,56125	5,2056	0,185	88,944	0	1014,3	7	8,8	8,6	1	1	1	1	1	1	1	1	1	0	1	-10,641297	274,234743	310,039504	0
15.01.2021	10:23:21	0	28,352457	3,874459	2,5515	355,7952	0,193	88,964	0	1014,34	6,9	8,8	8,6	1	1	1	1	1	1	1	1	1	0	1	-6,624383	274,180718	313,803792	0
15.01.2021	10:23:22	0	28,585846	2,620956	2,67	359,9568	0,189	88,967	0	1014,36	6,9	8,8	8,6	1	1	1	1	1	1	1	1	1	0	1	-4,439746	274,27988	316,452232	0
15.01.2021	10:23:23	0	28,585882	3,760499	2,769	357,7392	0,19	88,953	0	1014,3	6,9	8,8	8,6	1	1	1	1	1	1	1	1	1	0	1	-6,8358	274,182217	313,599382	0
15.01.2021	10:23:24	0	28,585918	2,962816	2,78775	0	0,183	88,952	0	1014,16	7	8,8	8,6	1	1	1	1	1	1	1	1	1	0	1	-5,496829	274,176223	314,910333	0
15.01.2021	10:23:25	0	28,819309	4,444221	2,778	352,0764	0,188	88,953	0	1014,3	6,9	8,8	8,6	1	1	1	1	1	1	1	1	1	0	1	-5,567301	274,28892	315,366985	0
15.01.2021	10:23:26	0	28,702667	2,848858	2,871	343,9548	0,189	88,941	0	1014,34	6,9	8,8	8,6	1	1	1	1	1	1	1	1	1	0	1	-5,285412	274,218219	315,318107	0
15.01.2021	10:23:27	0	28,586025	4,444189	3,09675	351,414	0,195	88,96	0	1014,26	6,9	8,8	8,7	1	1	1	1	1	1	1	1	1	0	1	-8,45666	274,206211	312,090705	0
15.01.2021	10:23:28	0	28,819417	3,646534	3,33525	2,286	0,191	88,958	0	1014,2	7	8,8	8,6	1	1	1	1	1	1	1	1	1	0	1	-5,919662	274,317575	315,148756	0
15.01.2021	10:23:29	0	28,469419	2,962807	3,2385	8,244	0,189	88,951	0	1014,2	6,9	8,8	8,6	1	1	1	1	1	1	1	1	1	0	1	-8,80902	274,245266	311,921002	0
15.01.2021	10:23:30	0	28,352776	4,330254	3,294	6,4224	0,19	88,95	0	1014,28	7	8,8	8,6	1	1	1	1	1	1	1	1	1	0	1	-3,030303	274,340227	318,144179	0
15.01.2021	10:23:31	0	28,702847	2,848849	3,44175	1,1736	0,186	88,943	0	1014,32	6,9	8,8	8,6	1	1	1	1	1	1	1	1	1	0	1	-3,664553	274,159749	316,665611	0
15.01.2021	10:23:32	0	28,352847	2,962802	3,82725	3,024	0,192	88,95	0	1014,3	6,9	8,8	8,6	1	1	1	1	1	1	1	1	1	0	1	-2,889359	274,313047	318,157864	0
15.01.2021	10:23:33	0	28,236204	2,279077	3,84	8,7012	0,193	88,935	0	1014,16	6,9	8,8	8,6	1	1	1	1	1	1	1	1	1	0	1	-8,668076	274,20021	311,851227	0
15.01.2021	10:23:34	0	28,819633	3,874428	3,435	2,2932	0,19	88,948	0	1014,32	6,9	8,8	8,6	1	1	1	1	1	1	1	1	1	0	1	-7,963354	274,299472	313,02032	0
15.01.2021	10:23:35	0	28,586311	2,848843	3,14325	2,6424	0,185	88,928	0	1014,14	6,9	8,8	8,6	1	1	1	1	1	1	1	1	1	0	1	-3,805497	274,192711	316,678744	0
15.01.2021	10:23:36	0	28,936384	4,444192	2,913	6,066	0,189	88,935	0	1014,24	6,9	8,8	8,6	1	1	1	1	1	1	1	1	1	0	1	-5,144468	274,358368	316,114974	0
15.01.2021	10:23:37	0	28,819741	3,646514	2,8095	359,5428	0,187	88,937	0	1014,24	6,9	8,8	8,6	1	1	1	1	1	1	1	1	1	0	1	-5,355884	274,293441	315,599564	0
15.01.2021	10:23:38	0	28,469739	3,304651	2,6115	354,0492	0,189	88,933	0	1014,36	6,9	8,8	8,6	1	1	1	1	1	1	1	1	1	0	1	-5,567301	274,170231	314,811853	0
15.01.2021	10:23:39	0	28,819813	3,076743	2,4705	355,05	0,191	88,928	0	1014,2	6,9	8,8	8,6	1	1	1	1	1	1	1	1	1	0	1	-4,862579	274,290427	316,07876	0
15.01.2021	10:23:40	0	28,46981	4,102321	2,48325	351,7956	0,168	88,92	0	1014,18	6,9	8,8	8,6	1	1	1	1	1	1	1	1	1	0	1	-8,245243	274,34476	312,95047	0
15.01.2021	10:23:41	0	28,936565	5,013945	2,4405	3,762	0,192	88,929	0	1014,24	7	8,8	8,6	1	1	1	1	1	1	1	1	1	0	1	-7,329105	274,273855	313,534682	0
15.01.2021	10:23:42	0	28,703241	4,786035	2,4765	360	0,184	88,922	0	1014,22	6,9	8,8	8,6	1	1	1	1	1	1	1	1	1	0	1	-5,003524	274,19721	315,501752	0
15.01.2021	10:23:43	0	28,819957	4,216267	2,55675	1,5372	0,188	88,928	0	1014,2	6,9	8,8	8,6	1	1	1	1	1	1	1	1	1	0	1	-7,117689	274,206211	313,429676	0
15.01.2021	10:23:44	0	28,586633	3,988358	2,61075	6,8112	0,181	88,929	0	1014,2	7	8,8	8,6	1	1	1	1	1	1	1	1	1	0	1	-6,765328	274,358368	314,494114	0
15.01.2021	10:23:45	0	28,586669	4,444168	2,49225	358,7724	0,186	88,928	0	1014,16	7	8,8	8,6	1	1	1	1	1	1	1	1	1	0	1	-7,540521	274,362906	313,740176	0
15.01.2021	10:23:46	0	29,053426	3,532541	2,3475	359,2152	0,19	88,919	0	1014,26	6,9	8,8	8,6	1	1	1	1	1	1	1	1	1	0	1	-3,523608	274,305504	317,488303	0
15.01.2021	10:23:47	0	28,58674	3,076728	2,39325	2,0016	0,192	88,917	0	1014,36	6,9	8,8	8,6	1	1	1	1	1	1	1	1	1	0	1	-10,782241	274,183716	309,659947	0
15.01.2021	10:23:48	0	28,470095	4,786018	2,4195	3,0096	0,188	88,931	0	1014,32	6,9	8,8	8,6	1	1	1	1	1	1	1	1	1	0	1	-5,990134	274,34476	315,205579	0
15.01.2021	10:23:49	0	28,936854	3,646488	2,46225	350,9568	0,179	88,902	0	1014,2	6,9	8,8	8,6	1	1	1	1	1	1	1	1	1	0	1	-3,030303	274,258803	317,763051	0
15.01.2021	10:23:50	0	28,703528	4,444154	2,44875	355,3128	0,19	88,919	0	1014,34	6,9	8,8	8,6	1	1	1	1	1	1	1	1	1	0	1	-8,386187	274,35988	312,880339	0
15.01.2021	10:23:51	0	28,936926	3,988341	2,51175	359,514	0,182	88,92	0	1014,28	6,9	8,8	8,6	1	1	1	1	1	1	1	1	1	0	1	-6,412967	274,291934	314,535427	0
15.01.2021	10:23:52	0	28,470237	3,304624	2,631	351,2844	0,185	88,925	0	1014,2	6,9	8,8	8,6	1	1	1	1	1	1	1	1	1	0	1	-10,007047	274,19421	310,484204	0
15.01.2021	10:23:53	0	28,586954	2,620907	2,68575	345,726	0,187	88,929	0	1014,06	6,9	8,8	8,6	1	1	1	1	1	1	1	1	1	0	1	-1,127555	274,245266	319,602468	0
15.01.2021	10:23:54	0	28,58699	3,190667	2,6115	345,0348	0,188	88,938	0	1014,4	7	8,8	8,6	1	1	1	1	1	1	1	1	1	0	1	-3,523608	274,19571	316,974655	0
15.01.2021	10:23:55	0	28,703707	2,506951	2,403	1,5192	0,183	88,916	0	1014,2	6,9	8,8	8,6	1	1	1	1	1	1	1	1	1	0	1	-7,963354	274,281386	312,935673	0
15.01.2021	10:23:56	0	28,937107	3,304616	2,61525	355,842	0,183	88,919	0	1014,38	7	8,8	8,6	1	1	1	1	1	1	1	1	1	0	1	-10,782241	274,191211	309,694989	0
15.01.2021	10:23:57	0	29,053825	5,127849	2,8215	7,4916	0,185	88,932	0	1014,28	6,9	8,8	8,6	1	1	1	1	1	1	1	1	1	0	1	-7,470049	274,332673	313,669061	0
15.01.2021	10:23:58	0	28,47045	4,899942	2,7675	2,6496	0,185	88,93	0	1014,36	6,9	8,8	8,6	1	1	1	1	1	1	1	1	1	0	1	-7,963354	274,282893	312,942724	0
15.01.2021	10:23:59	0	28,70385	5,127843	2,59875	0,468	0,185	88,931	0	1014,28	6,9	8,8	8,6	1	1	1	1	1	1	1	1	1	0	1	-4,721635	274,177721	315,692531	0
15.01.2021	10:24:00	0	28,587239	2,848798	2,9865	4,0968	0,189	88,94	0	1014,36	6,9	8,8	8,6	1	1	1	1	1	1	1	1	1	0	1	-10,641297	274,204711	309,899051	0
15.01.2021	10:24:01	0	28,587239	2,848798	2,9865	4,0968	0,189	88,94	0	1014,36	6,9	8,8	8,6	1	1	1	1	1	1	1	1	1	0	1	-5,637773	274,347783	315,572097	0
15.01.2021	10:24:02	0	28,587275	3,418556	3,49875	14,2848	0,184	88,946	0	1014,28	6,9	8,8	8,6	1	1	1	1	1	1	1	1	1	0	1	-5,21494	274,19721	315,290336	0
15.01.2021	10:24:03	0	28,820676	4,785975	3,82575	12,8376	0,192	88,935	0	1014,32	6,9	8,8	8,6	1	1	1	1	1	1	1	1	1	0	1	-8,174771	274,263317	312,639706	0
15.01.2021	10:24:04	0	28,587346	2,848793	3,54825	20,2788	0,187	88,94	0	1014,28	6,9	8,8	8,6	1	1	1	1	1	1	1	1	1	0	1	-10,711769	274,185214	309,737426	0
15.01.2021	10:24:05	0	29,054115	3,532501	3,23775	23,958	0,193	88,94	0	1014,28	6,9	8,8	8,6	1	1	1	1	1	1	1	1	1	0	1	-8,949965	274,322103	312,139654	0
15.01.2021	10:24:06	0	28,704101	2,962741	3,12675	12,4524	0,188	88,922	0	1014,24	6,9	8,8	8,6	1	1	1	1	1	1	1	1	1	0	1	-4,369274	274,189712	316,100946	0
15.01.2021	10:24:07	0	28,703936	4,558061	3,39225	8,5932	0,189	88,956	0	1014,32	7	8,9	8,6	1	1	1	1	1	1	1	1	1	0	1	-5,84919	274,183716	314,592998	0
15.01.2021	10:24:08	0	28,93754	3,532495	3,50025	24,3432	0,186	88,936	0	1014,22	7	8,8	8,6	1	1	1	1	1	1	1	1	1	0	1	-6,8358	274,285906	314,084381	0
15.01.2021	10:24:09	0	28,820892	3,190639	3,411	15,7824	0,192	88,947	0	1014,36	6,9	8,8	8,6	1	1	1	1	1	1	1	1	1	0	1	-10,359408	274,192711	310,124833	0
15.01.2021	10:24:10	0	28,704244	3,190637	3,108	22,5648	0,189	88,952	0	1014,32	6,9	8,8	8,6	1	1	1	1	1	1	1	1	1	0	1	-7,892882	274,191211	312,584348	0
15.01.2021	10:24:11	0	28,820964	4,444098	2,78925	16,8372	0,19	88,945	0	1014,36	6,9	8,8	8,6	1	1	1	1	1	1	1	1	1	0	1	-7,610994	274,270844	313,238701	0
15.01.2021	10:24:12	0	28,704315	4,330145	2,757	8,2512	0,194	88,942	0	1014,2	6,9	8,8	8,6	1	1	1	1	1	1	1	1	1	0	1	-7,892882	274,350807	313,331148	0
15.01.2021	10:24:13	0	29,054404	3,760387	2,754	1,9188	0,191	88,936	0	1014,34	6,9	8,8	8,6	1	1	1	1	1	1	1	1	1	0	1	-5,567301	274,231738	315,099443	0
15.01.2021	10:24:14	0	28,587702	3,190629	2,71425	9,7344	0,188	88,939	0	1014,36	6,9	8,8	8,6	1	1	1	1	1	1	1	1	1	0	1	-12,121212	274,206211	308,426152	0
15.01.2021	10:24:15	0	28,821107	3,304578	2,56575	19,5192	0,195	88,933	0	1014,44	6,9	8,8	8,6	1	1	1	1	1	1	1	1	1	0	1	-5,285412	274,186713	315,170791	0
15.01.2021	10:24:16	0	28,704458	4,330134	2,37825	18,8316	0,19	88,939	0	1014,34	6,9	8,8	8,6	1	1	1	1	1	1	1	1	1	0	1	-7,610994	274,237749	313,083867	0
15.01.2021	10:24:17	0	28,821179	4,558033	2,238	358,74	0,193	88,945	0	1014,4	6,9	8,8	8,6	1	1	1	1	1	1	1	1	1	0	1	-6,765328	274,37804	314,586264	0
15.01.2021	10:24:18	0	28,821215	3,076671	2,36325	353,3364	0,193	88,938	0	1014,3	6,9	8,8	8,6	1	1	1	1	1	1	1	1	1	0	1	-8,949965	274,322103	312,139654	0
15.01.2021	10:24:19	0	28,821251	3,532472	2,56725	356,5836	0,188	88,937	0	1014,22	6,9	8,8	8,6	1	1	1	1	1	1	1	1	1	0	1	-7,751938	274,343249	313,436697	0
15.01.2021	10:24:20	0	28,587916	4,899877	2,66325	359,4312	0,187	88,924	0	1014,06	6,9	8,8	8,6	1	1	1	1	1	1	1	1	1	0	1	-5,708245	274,337205	315,452086	0
15.01.2021	10:24:21	0	28,821322	4,10222	2,6955	356,1336	0,188	88,943	0	1014,28	6,9	8,8	8,6	1	1	1	1	1	1	1	1	1	0	1	-5,426357	274,260308	315,374038	0
15.01.2021	10:24:22	0	28,704673	2,962713	2,95275	358,3476	0,194	88,957	0	1014,46	6,9	8,8	8,6	1	1	1	1	1	1	1	1	1	0	1	-9,513742	274,358368	311,7457	0
15.01.2021	10:24:23	0	28,704708	4,102215	3,2445	3,006	0,187	88,936	0	1014,34	6,9	8,8	8,6	1	1	1	1	1	1	1	1	1	0	1	-10,007047	274,370471	311,309089	0
15.01.2021	10:24:24	0	28,588058	3,418511	3,1515	0,8604	0,187	88,938	0	1014,3	6,9	8,8	8,6	1	1	1	1	1	1	1	1	1	0	1	-6,553911	274,248273	314,19018	0
15.01.2021	10:24:25	0	28,70478	3,076658	2,9025	352,4688	0,192	88,949	0	1014,24	6,9	8,8	8,6	1	1	1	1	1	1	1	1	1	0	1	-2,959831	274,185214	317,489364	0
15.01.2021	10:24:26	0	28,704815	3,190606	3,084	0,1188	0,197	88,953	0	1014,38	6,9	8,8	8,6	1	1	1	1	1	1	1	1	1	0	1	-8,033827	274,210713	312,534591	0
15.01.2021	10:24:27	0	28,354792	3,532455	3,216	1,9224	0,192	88,962	0	1014,36	6,9	8,8	8,6	1	1	1	1	1	1	1	1	1	0	1	-4,22833	274,240755	316,480594	0
15.01.2021	10:24:28	0	28,821573	3,190602	3,1485	355,7952	0,19	88,951	0	1014,28	6,9	8,8	8,6	1	1	1	1	1	1	1	1	1	0	1	-7,540521	274,19871	312,971767	0
15.01.2021	10:24:29	0	28,588236	3,30455	3,117	7,5816	0,195	88,941	0	1014,3	6,9	8,8	8,6	1	1	1	1	1	1	1	1	1	0	1	-3,24172	274,186713	317,214483	0
15.01.2021	10:24:30	0	28,588271	2,962699	3,0465	2,2968	0,195	88,956	0	1014,34	6,9	8,8	8,6	1	1	1	1	1	1	1	1	1	0	1	-5,990134	274,260308	314,810261	0
15.01.2021	10:24:31	0	28,704994	4,671945	3,06225	12,078	0,187	88,956	0	1014,34	6,9	8,8	8,6	1	1	1	1	1	1	1	1	1	0	1	-6,272023	274,365932	315,022848	0
15.01.2021	10:24:32	0	28,821717	4,557965	2,88975	19,8828	0,191	88,965	0	1014,3	6,9	8,8	8,7	1	1	1	1	1	1	1	1	1	0	1	-10,500352	274,325122	310,603403	0
15.01.2021	10:24:33	0	28,93844	4,33009	2,6595	19,8828	0,192	88,94	0	1014,28	6,9	8,8	8,6	1	1	1	1	1	1	1	1	1	0	1	-8,949965	274,28892	311,984321	0
15.01.2021	10:24:34	0	28,705101	2,620843	2,57025	17,226	0,196	88,973	0	1014,34	6,9	8,8	8,6	1	1	1	1	1	1	1	1	1	0	1	-7,047216	274,228733	313,605473	0
15.01.2021	10:24:35	0	28,705137	4,330085	2,43	15,0192	0,197	88,962	0	1014,38	6,9	8,8	8,6	1	1	1	1	1	1	1	1	1	0	1	-6,060606	274,364419	315,227177	0
15.01.2021	10:24:36	0	28,705172	4,785881	2,202	21,3912	0,188	88,965	0	1014,16	6,9	8,8	8,6	1	1	1	1	1	1	1	1	1	0	1	-9,44327	274,325122	311,660486	0
15.01.2021	10:24:37	0	28,821694	2,848737	2,0595	0,486	0,189	88,958	0	1014,34	6,9	8,9	8,6	1	1	1	1	1	1	1	1	1	0	1	-2,114165	274,234743	318,566636	0
15.01.2021	10:24:38	0	28,588556	5,013744	2,00625	5,2164	0,195	88,951	0	1014,38	6,9	8,8	8,7	1	1	1	1	1	1	1	1	1	0	1	-5,073996	274,353831	316,164197	0
15.01.2021	10:24:39	0	29,055344	4,671923	2,00775	348,7284	0,184	88,941	0	1014,26	6,9	8,8	8,6	1	1	1	1	1	1	1	1	1	0	1	-7,751938	274,319084	313,323546	0
15.01.2021	10:24:40	0	28,471938	2,620833	2,01225	3,4632	0,194	88,956	0	1014,2	6,9	8,8	8,6	1	1	1	1	1	1	1	1	1	0	1	-3,100775	274,225728	317,537862	0
15.01.2021	10:24:41	0	28,938727	2,506882	2,148	349,5024	0,188	88,933	0	1014,22	6,9	8,8	8,6	1	1	1	1	1	1	1	1	1	0	1	-7,329105	274,206211	313,218259	0
15.01.2021	10:24:42	0	29,288829	4,557965	2,253	3,7692	0,186	88,947	0	1014,18	6,9	8,8	8,6	1	1	1	1	1	1	1	1	1	0	1	-9,44327	274,297964	311,533347	0
15.01.2021	10:24:43	0	28,705422	4,671912	2,36175	0,8604	0,195	88,956	0	1014,26	6,9	8,8	8,6	1	1	1	1	1	1	1	1	1	0	1	-4,369274	274,177721	316,044892	0
15.01.2021	10:24:44	0	28,47208	2,051082	2,427	3,7728	0,188	88,945	0	1014,34	6,9	8,8	8,6	1	1	1	1	1	1	1	1	1	0	1	-3,664553	274,294949	317,297951	0
15.01.2021	10:24:45	0	28,705493	4,330059	2,406	359,0388	0,199	88,951	0	1014,26	6,9	8,8	8,6	1	1	1	1	1	1	1	1	1	0	1	-5,21494	274,35988	316,051586	0
15.01.2021	10:24:46	0	28,822016	4,444006	2,44725	359,5212	0,193	88,957	0	1014,34	6,9	8,9	8,6	1	1	1	1	1	1	1	1	1	0	1	-4,933051	274,317575	316,135366	0
15.01.2021	10:24:47	0	28,472186	2,506873	2,54175	0,864	0,188	88,954	0	1014,34	6,9	8,8	8,6	1	1	1	1	1	1	1	1	1	0	1	-6,412967	274,20321	314,120365	0
15.01.2021	10:24:48	0	28,938979	3,076616	2,59725	355,0896	0,191	88,929	0	1014,24	6,9	8,8	8,6	1	1	1	1	1	1	1	1	1	0	1	-6,553911	274,370471	314,762225	0
15.01.2021	10:24:49	0	28,705636	3,532408	2,75775	355,4136	0,19	88,958	0	1014,48	6,9	8,8	8,6	1	1	1	1	1	1	1	1	1	0	1	-3,59408	274,329652	317,530886	0
15.01.2021	10:24:50	0	28,822361	3,418458	2,7675	13,1616	0,196	88,96	0	1014,38	6,9	8,8	8,6	1	1	1	1	1	1	1	1	1	0	1	-5,21494	274,361393	316,058671	0
15.01.2021	10:24:51	0	28,705707	2,962662	2,61525	3,4056	0,192	88,952	0	1014,44	6,9	8,8	8,6	1	1	1	1	1	1	1	1	1	0	1	-5,990134	274,296456	314,979426	0
15.01.2021	10:24:52	0	28,705541	4,671887	2,69175	0,2016	0,189	88,944	0	1014,22	6,9	8,9	8,6	1	1	1	1	1	1	1	1	1	0	1	-3,523608	274,34476	317,672105	0
15.01.2021	10:24:53	0	28,705778	4,102142	2,934	4,4496	0,197	88,939	0	1014,4	6,9	8,8	8,6	1	1	1	1	1	1	1	1	1	0	1	-6,976744	274,362906	314,303953	0
15.01.2021	10:24:54	0	28,822504	2,962656	2,94825	353,1384	0,192	88,934	0	1014,26	6,9	8,8	8,6	1	1	1	1	1	1	1	1	1	0	1	-3,946441	274,248273	316,79765	0
15.01.2021	10:24:55	0	28,939027	4,671878	2,868	358,1208	0,197	88,969	0	1014,38	6,9	8,9	8,6	1	1	1	1	1	1	1	1	1	0	1	-3,946441	274,20321	316,586891	0
15.01.2021	10:24:56	0	28,822575	3,418445	2,79825	10,0656	0,188	88,942	0	1014,24	6,9	8,8	8,6	1	1	1	1	1	1	1	1	1	0	1	-2,466526	274,240755	318,242398	0
15.01.2021	10:24:57	0	28,70592	4,671873	2,6685	0,4788	0,19	88,946	0	1014,18	6,9	8,8	8,6	1	1	1	1	1	1	1	1	1	0	1	-2,889359	274,317575	318,179059	0
15.01.2021	10:24:58	0	28,939338	4,557922	2,5395	10,8036	0,185	88,963	0	1014,24	6,9	8,8	8,6	1	1	1	1	1	1	1	1	1	0	1	-10,993658	274,210713	309,57476	0
15.01.2021	10:24:59	0	28,822683	4,330023	2,42475	360	0,188	88,952	0	1014,3	6,9	8,8	8,6	1	1	1	1	1	1	1	1	1	0	1	-12,121212	274,655572	310,532538	0
15.01.2021	10:25:00	0	28,939243	3,646331	2,2785	360	0,189	88,937	0	1014,36	6,9	8,9	8,6	1	1	1	1	1	1	1	1	1	0	1	-6,060606	274,252785	314,704594	0
15.01.2021	10:25:01	0	28,939243	3,646331	2,2785	360	0,189	88,937	0	1014,36	6,9	8,9	8,6	1	1	1	1	1	1	1	1	1	0	1	-8,033827	274,20021	312,485476	0
15.01.2021	10:25:02	0	28,939481	4,10212	2,23575	356,8464	0,193	88,962	0	1014,32	6,9	8,8	8,6	1	1	1	1	1	1	1	1	1	0	1	-8,174771	274,35988	313,091755	0
15.01.2021	10:25:03	0	28,706134	3,418431	2,23125	359,4708	0,19	88,973	0	1014,34	6,9	8,8	8,6	1	1	1	1	1	1	1	1	1	0	1	-0,493305	274,255794	320,285971	0
15.01.2021	10:25:04	0	28,705968	4,102115	2,35875	0,1188	0,192	88,956	0	1014,28	6,9	8,9	8,6	1	1	1	1	1	1	1	1	1	0	1	-8,80902	274,34476	312,386692	0
15.01.2021	10:25:05	0	28,939386	3,076584	2,51925	358,38	0,188	88,957	0	1014,32	6,9	8,9	8,6	1	1	1	1	1	1	1	1	1	0	1	-5,637773	274,228733	315,014916	0
15.01.2021	10:25:06	0	28,822933	3,304478	2,63625	13,5396	0,193	88,969	0	1014,28	6,9	8,8	8,6	1	1	1	1	1	1	1	1	1	0	1	-8,033827	274,316065	313,027525	0
15.01.2021	10:25:07	0	28,822766	3,190528	2,59575	5,6772	0,187	88,967	0	1014,34	6,9	8,9	8,6	1	1	1	1	1	1	1	1	1	0	1	-6,624383	274,185214	313,824812	0
15.01.2021	10:25:08	0	28,939696	2,848684	2,69025	3,0888	0,193	88,975	0	1014,3	6,9	8,8	8,6	1	1	1	1	1	1	1	1	1	0	1	-5,567301	274,284399	315,345828	0
15.01.2021	10:25:09	0	29,28981	4,899734	2,72025	355,41	0,195	88,952	0	1014,3	6,9	8,8	8,6	1	1	1	1	1	1	1	1	1	0	1	-6,131078	274,17922	314,290092	0
15.01.2021	10:25:10	0	28,939565	4,443942	2,862	360	0,196	88,967	0	1014,4	6,9	8,9	8,6	1	1	1	1	1	1	1	1	1	0	1	-2,889359	274,434139	318,725128	0
15.01.2021	10:25:11	0	28,939804	3,304448	3,20475	5,2164	0,195	88,953	0	1014,2	6,9	8,8	8,7	1	1	1	1	1	1	1	1	1	0	1	-7,540521	274,297964	313,436096	0
15.01.2021	10:25:12	0	28,93984	3,418413	3,261	6,4224	0,194	88,956	0	1014,32	6,9	8,8	8,6	1	1	1	1	1	1	1	1	1	0	1	-13,6716	274,207712	306,882781	0
15.01.2021	10:25:13	0	29,173057	3,874199	3,09225	6,7932	0,195	88,958	0	1014,34	6,9	8,9	8,6	1	1	1	1	1	1	1	1	1	0	1	-6,8358	274,328142	314,282096	0
15.01.2021	10:25:14	0	28,939911	4,329984	2,74575	4,0788	0,193	88,955	0	1014,16	6,9	8,8	8,6	1	1	1	1	1	1	1	1	1	0	1	-10,077519	274,252785	310,687681	0
15.01.2021	10:25:15	0	28,939947	4,785769	2,48325	5,3136	0,193	88,965	0	1014,34	6,9	8,8	8,6	1	1	1	1	1	1	1	1	1	0	1	-4,792107	274,361393	316,481504	0
15.01.2021	10:25:16	0	29,056676	4,67182	2,33625	352,4076	0,194	88,962	0	1014,36	6,9	8,8	8,6	1	1	1	1	1	1	1	1	1	0	1	-10,570825	274,328142	310,547071	0
15.01.2021	10:25:17	0	28,823325	2,962616	2,196	351,3168	0,196	88,959	0	1014,34	6,9	8,8	8,6	1	1	1	1	1	1	1	1	1	0	1	-5,003524	274,20171	315,522793	0
15.01.2021	10:25:18	0	29,056748	3,304454	2,40975	353,6136	0,19	88,954	0	1014,14	6,9	8,8	8,6	1	1	1	1	1	1	1	1	1	0	1	-7,047216	274,222724	313,577372	0
15.01.2021	10:25:19	0	28,939888	2,848648	2,63475	357,1776	0,192	88,96	0	1014,4	6,9	8,9	8,7	1	1	1	1	1	1	1	1	1	0	1	-7,047216	274,343249	314,141419	0
15.01.2021	10:25:20	0	29,173514	4,557862	2,763	352,53	0,192	88,959	0	1014,18	6,9	8,8	8,6	1	1	1	1	1	1	1	1	1	0	1	-7,047216	274,316065	314,014136	0
15.01.2021	10:25:21	0	28,823468	4,671806	2,6745	348,6636	0,192	88,959	0	1014,3	6,9	8,8	8,6	1	1	1	1	1	1	1	1	1	0	1	-5,637773	274,349295	315,579177	0
15.01.2021	10:25:22	0	29,173586	4,44391	2,69925	349,4484	0,189	88,963	0	1014,26	6,9	8,8	8,6	1	1	1	1	1	1	1	1	1	0	1	-4,651163	274,332673	316,487948	0
15.01.2021	10:25:23	0	28,823539	4,216015	2,70825	351,0972	0,193	88,96	0	1014,4	6,9	8,8	8,6	1	1	1	1	1	1	1	1	1	0	1	-7,963354	274,346272	313,239437	0
15.01.2021	10:25:24	0	29,173659	4,671798	2,53875	352,8504	0,195	88,956	0	1014,26	6,9	8,8	8,6	1	1	1	1	1	1	1	1	1	0	1	-8,315715	274,323613	312,780971	0
15.01.2021	10:25:25	0	29,056796	5,013633	2,44875	352,5264	0,193	88,959	0	1014,38	6,9	8,9	8,6	1	1	1	1	1	1	1	1	1	0	1	-8,033827	274,358368	313,225615	0
15.01.2021	10:25:26	0	29,173731	4,557846	2,51475	353,1528	0,193	88,961	0	1014,28	6,9	8,8	8,6	1	1	1	1	1	1	1	1	1	0	1	-8,45666	274,319084	312,618824	0
15.01.2021	10:25:27	0	28,82348	4,557843	2,66775	360	0,19	88,95	0	1014,24	6,9	8,9	8,6	1	1	1	1	1	1	1	1	1	0	1	-5,144468	274,215217	315,445008	0
15.01.2021	10:25:28	0	28,940412	2,734704	2,787	4,824	0,196	88,954	0	1014,2	6,9	8,8	8,6	1	1	1	1	1	1	1	1	1	0	1	-2,536998	274,19721	317,968278	0
15.01.2021	10:25:29	0	29,173839	3,07654	2,86425	360	0,191	88,959	0	1014,28	6,9	8,8	8,6	1	1	1	1	1	1	1	1	1	0	1	-7,751938	274,225728	312,886699	0
15.01.2021	10:25:30	0	29,40706	3,532322	2,80575	359,4672	0,194	88,967	0	1014,34	6,9	8,9	8,6	1	1	1	1	1	1	1	1	1	0	1	-5,637773	274,282893	315,268305	0
15.01.2021	10:25:31	0	29,407302	3,304428	2,86875	2,2968	0,191	88,956	0	1014,28	6,9	8,8	8,6	1	1	1	1	1	1	1	1	1	0	1	-9,020437	274,35988	312,246089	0
15.01.2021	10:25:32	0	29,057251	3,076535	2,93325	0,8532	0,189	88,954	0	1014,3	6,9	8,8	8,6	1	1	1	1	1	1	1	1	1	0	1	-6,342495	274,221223	314,27507	0
15.01.2021	10:25:33	0	29,173779	4,557827	2,92875	4,9032	0,198	88,967	0	1014,4	6,9	8,9	8,6	1	1	1	1	1	1	1	1	1	0	1	-5,144468	274,273855	315,719319	0
15.01.2021	10:25:34	0	29,173815	3,760205	2,934	357,732	0,194	88,96	0	1014,32	6,9	8,9	8,6	1	1	1	1	1	1	1	1	1	0	1	-2,114165	274,170231	318,264989	0
15.01.2021	10:25:35	0	28,94046	2,848638	2,9415	358,7256	0,192	88,947	0	1014,26	6,9	8,9	8,6	1	1	1	1	1	1	1	1	1	0	1	-3,24172	274,269338	317,600931	0
15.01.2021	10:25:36	0	29,174091	3,076528	2,9955	359,8992	0,19	88,969	0	1014,32	6,9	8,8	8,6	1	1	1	1	1	1	1	1	1	0	1	-8,245243	274,356855	313,007115	0
15.01.2021	10:25:37	0	29,057227	4,329925	3,0225	356,94	0,188	88,956	0	1014,02	6,9	8,9	8,6	1	1	1	1	1	1	1	1	1	0	1	-6,272023	274,379554	315,086662	0
15.01.2021	10:25:38	0	29,291065	3,304415	3,0585	359,0964	0,193	88,957	0	1014,36	6,9	8,7	8,6	1	1	1	1	1	1	1	1	1	0	1	-6,060606	274,31003	314,97249	0
15.01.2021	10:25:39	0	29,057502	4,899617	3,24225	3,7656	0,186	88,96	0	1014,14	6,9	8,8	8,7	1	1	1	1	1	1	1	1	1	0	1	-7,681466	274,367445	313,620492	0
15.01.2021	10:25:40	0	29,407629	4,329892	3,15375	358,4268	0,191	88,958	0	1014,3	6,9	8,8	8,7	1	1	1	1	1	1	1	1	1	0	1	-9,020437	274,34476	312,175276	0
15.01.2021	10:25:41	0	29,174271	4,785696	2,97075	4,8276	0,195	88,958	0	1014,3	6,9	8,8	8,6	1	1	1	1	1	1	1	1	1	0	1	-4,016913	274,323613	317,079773	0
15.01.2021	10:25:42	0	29,174103	4,215967	2,904	355,3704	0,195	89,002	0	1014,54	6,9	8,9	8,6	1	1	1	1	1	1	1	1	1	0	1	-8,527132	274,368958	312,781915	0
15.01.2021	10:25:43	0	29,640925	4,5578	2,832	358,0056	0,188	88,958	0	1014,12	6,9	8,9	8,6	1	1	1	1	1	1	1	1	1	0	1	-3,59408	274,210713	316,974337	0
15.01.2021	10:25:44	0	29,407774	3,076513	2,81025	358,7328	0,197	88,943	0	1014,22	6,9	8,8	8,6	1	1	1	1	1	1	1	1	1	0	1	-4,933051	274,221223	315,684513	0
15.01.2021	10:25:45	0	29,407604	4,557794	2,7615	353,5272	0,193	88,955	0	1014,36	6,9	8,9	8,6	1	1	1	1	1	1	1	1	1	0	1	-4,721635	274,255794	316,057641	0
15.01.2021	10:25:46	0	29,174247	3,760178	2,934	352,1016	0,195	88,976	0	1014,36	6,9	8,9	8,6	1	1	1	1	1	1	1	1	1	0	1	-7,188161	274,35988	314,078366	0
15.01.2021	10:25:47	0	29,641279	3,190452	3,0495	351,378	0,194	88,963	0	1014,38	6,9	8,8	8,6	1	1	1	1	1	1	1	1	1	0	1	-9,302326	274,239252	311,399566	0
15.01.2021	10:25:48	0	29,174523	3,874118	3,13275	351,6804	0,199	88,966	0	1014,2	6,9	8,8	8,6	1	1	1	1	1	1	1	1	1	0	1	-5,355884	274,358368	315,903557	0
15.01.2021	10:25:49	0	29,40775	4,443839	3,23025	354,3192	0,194	88,967	0	1014,38	6,9	8,9	8,6	1	1	1	1	1	1	1	1	1	0	1	-7,117689	274,316065	313,943663	0
15.01.2021	10:25:50	0	29,057693	4,44381	3,2205	352,8036	0,194	88,953	0	1014,22	6,9	8,9	8,7	1	1	1	1	1	1	1	1	1	0	1	-8,033827	274,371985	313,289399	0
15.01.2021	10:25:51	0	29,52452	3,418334	3,3825	354,6288	0,195	88,946	0	1014,02	6,9	8,9	8,6	1	1	1	1	1	1	1	1	1	0	1	-3,875969	274,326632	317,234856	0
15.01.2021	10:25:52	0	29,524556	5,127467	3,5175	353,3292	0,189	88,954	0	1014,26	6,9	8,9	8,7	1	1	1	1	1	1	1	1	1	0	1	-5,285412	274,252785	315,479788	0
15.01.2021	10:25:53	0	29,174703	4,21594	3,67125	358,3944	0,196	88,969	0	1014,36	6,9	8,8	8,6	1	1	1	1	1	1	1	1	1	0	1	-6,272023	274,355343	314,973253	0
15.01.2021	10:25:54	0	29,407931	5,013547	3,867	353,2284	0,192	88,944	0	1014,34	6,9	8,9	8,6	1	1	1	1	1	1	1	1	1	0	1	-9,231853	274,337205	311,928478	0
15.01.2021	10:25:55	0	29,291474	4,21591	4,07775	357,5808	0,194	88,966	0	1014,36	6,9	8,8	8,7	1	1	1	1	1	1	1	1	1	0	1	-4,792107	274,371985	316,531118	0
15.01.2021	10:25:56	0	29,29151	5,241398	4,23	360	0,193	88,968	0	1014,28	6,9	8,8	8,7	1	1	1	1	1	1	1	1	1	0	1	-7,399577	274,341738	313,781981	0
15.01.2021	10:25:57	0	29,291546	3,304377	4,3185	2,286	0,2	88,977	0	1014,48	6,9	8,8	8,6	1	1	1	1	1	1	1	1	1	0	1	-4,22833	274,19571	316,269934	0
15.01.2021	10:25:58	0	29,524775	4,329871	4,31625	355,3956	0,195	88,974	0	1014,34	6,9	8,9	8,6	1	1	1	1	1	1	1	1	1	0	1	-4,016913	274,303996	316,987938	0
15.01.2021	10:25:59	0	29,408318	4,329843	4,26	0,4788	0,198	88,971	0	1014,26	6,9	8,8	8,7	1	1	1	1	1	1	1	1	1	0	1	-3,171247	274,367445	318,130711	0
15.01.2021	10:26:00	0	29,291691	4,671667	3,84675	358,0344	0,196	88,971	0	1014,36	6,9	8,8	8,7	1	1	1	1	1	1	1	1	1	0	1	-5,708245	274,285906	315,211935	0
15.01.2021	10:26:01	0	29,291691	4,671667	3,84675	358,0344	0,196	88,971	0	1014,36	6,9	8,8	8,7	1	1	1	1	1	1	1	1	1	0	1	-3,59408	274,206211	316,953284	0
15.01.2021	10:26:02	0	29,291521	3,76012	3,89025	5,2164	0,199	88,967	0	1014,42	6,9	8,9	8,7	1	1	1	1	1	1	1	1	1	0	1	-3,875969	274,365932	317,418902	0
15.01.2021	10:26:03	0	29,174858	2,620688	3,84825	8,2512	0,2	88,956	0	1014,28	6,9	8,9	8,7	1	1	1	1	1	1	1	1	1	0	1	-6,342495	274,303996	314,662357	0
15.01.2021	10:26:04	0	29,6419	4,329856	3,6975	356,4828	0,194	88,962	0	1014,06	6,9	8,8	8,6	1	1	1	1	1	1	1	1	1	0	1	-7,610994	274,367445	313,690965	0
15.01.2021	10:26:05	0	29,525029	3,646192	3,55575	355,4352	0,199	88,936	0	1014,3	6,9	8,9	8,6	1	1	1	1	1	1	1	1	1	0	1	-6,8358	274,305504	314,176112	0
15.01.2021	10:26:06	0	29,291871	3,646168	3,5595	10,0548	0,196	88,958	0	1014,44	6,9	8,8	8,7	1	1	1	1	1	1	1	1	1	0	1	-7,258633	274,19871	313,253656	0
15.01.2021	10:26:07	0	29,641802	4,785622	3,4065	1,9224	0,195	88,945	0	1014,28	6,9	8,9	8,6	1	1	1	1	1	1	1	1	1	0	1	-4,439746	274,322103	316,649872	0
15.01.2021	10:26:08	0	29,175038	2,734639	3,56025	7,128	0,199	88,955	0	1014,34	6,9	8,9	8,6	1	1	1	1	1	1	1	1	1	0	1	-5,990134	274,254289	314,782104	0
15.01.2021	10:26:09	0	29,291774	3,760127	3,94275	6,8076	0,2	88,96	0	1014,5	6,9	8,9	8,6	1	1	1	1	1	1	1	1	1	0	1	-6,624383	274,358368	314,635059	0
15.01.2021	10:26:10	0	29,641911	4,329841	4,2735	359,1288	0,196	88,955	0	1014,3	6,9	8,9	8,6	1	1	1	1	1	1	1	1	1	0	1	-12,05074	274,34476	309,144973	0
15.01.2021	10:26:11	0	29,525247	4,443781	3,84375	1,5552	0,196	88,94	0	1014,4	6,9	8,9	8,6	1	1	1	1	1	1	1	1	1	0	1	-7,610994	274,255794	313,168282	0
15.01.2021	10:26:12	0	29,525283	4,329835	3,64725	1,5372	0,195	88,955	0	1014,34	6,9	8,9	8,6	1	1	1	1	1	1	1	1	1	0	1	-5,778717	274,367445	315,523241	0
15.01.2021	10:26:13	0	29,52532	3,646175	3,53025	12,078	0,196	88,956	0	1014,38	6,9	8,9	8,6	1	1	1	1	1	1	1	1	1	0	1	-12,473573	274,278374	308,411356	0
15.01.2021	10:26:14	0	29,408861	3,988002	3,27225	16,8444	0,195	88,969	0	1014,36	6,9	8,8	8,6	1	1	1	1	1	1	1	1	1	0	1	-10,359408	274,375012	310,977999	0
15.01.2021	10:26:15	0	29,408691	4,443771	3,033	16,0848	0,187	88,952	0	1014,32	6,9	8,9	8,6	1	1	1	1	1	1	1	1	1	0	1	-4,157858	274,365932	317,137013	0
15.01.2021	10:26:16	0	29,292026	2,962494	2,8365	8,2548	0,196	88,935	0	1014,24	6,9	8,9	8,7	1	1	1	1	1	1	1	1	1	0	1	-11,346018	274,266328	309,482544	0
15.01.2021	10:26:17	0	29,525672	3,304338	2,6745	11,7108	0,197	88,957	0	1014,34	6,9	8,8	8,6	1	1	1	1	1	1	1	1	1	0	1	-10,007047	274,35988	311,259479	0
15.01.2021	10:26:18	0	29,525501	3,076451	2,62875	1,9296	0,196	88,951	0	1014,24	6,9	8,9	8,6	1	1	1	1	1	1	1	1	1	0	1	-7,892882	274,317575	313,175535	0
15.01.2021	10:26:19	0	29,408836	3,760082	2,75925	13,1544	0,2	88,951	0	1014,44	6,9	8,9	8,7	1	1	1	1	1	1	1	1	1	0	1	-8,668076	274,365932	312,626794	0
15.01.2021	10:26:20	0	29,408872	3,987988	2,8365	14,6268	0,193	88,966	0	1014,38	6,9	8,9	8,6	1	1	1	1	1	1	1	1	1	0	1	-5,919662	274,379554	315,439023	0
15.01.2021	10:26:21	0	29,64252	4,557697	2,8605	6,426	0,193	88,957	0	1014,34	6,9	8,8	8,6	1	1	1	1	1	1	1	1	1	0	1	-7,540521	274,254289	313,231716	0
15.01.2021	10:26:22	0	29,40915	3,304329	2,7405	350,262	0,192	88,95	0	1014,44	6,9	8,8	8,6	1	1	1	1	1	1	1	1	1	0	1	-5,567301	274,188213	314,89591	0
15.01.2021	10:26:23	0	29,87579	5,127403	2,78175	353,628	0,198	88,955	0	1014,14	6,9	8,9	8,6	1	1	1	1	1	1	1	1	1	0	1	-5,637773	274,255794	315,141503	0
15.01.2021	10:26:24	0	29,642421	4,215863	3,01275	358,776	0,197	88,959	0	1014,2	6,9	8,9	8,6	1	1	1	1	1	1	1	1	1	0	1	-9,654686	274,379554	311,703998	0
15.01.2021	10:26:25	0	29,642458	3,418265	3,06825	347,9796	0,191	88,953	0	1014,24	6,9	8,9	8,6	1	1	1	1	1	1	1	1	1	0	1	-5,144468	274,290427	315,796871	0
15.01.2021	10:26:26	0	29,175683	4,215858	3,1155	356,58	0,196	88,953	0	1014,24	6,9	8,9	8,6	1	1	1	1	1	1	1	1	1	0	1	-4,792107	274,206211	315,755257	0
15.01.2021	10:26:27	0	29,642531	2,962475	2,99625	360	0,187	88,945	0	1014,34	6,9	8,9	8,7	1	1	1	1	1	1	1	1	1	0	1	-6,060606	274,206211	314,486758	0
15.01.2021	10:26:28	0	29,876182	2,848532	2,8605	359,208	0,195	88,946	0	1014,24	6,9	8,8	8,7	1	1	1	1	1	1	1	1	1	0	1	-4,862579	274,278374	316,02235	0
15.01.2021	10:26:29	0	29,759724	5,013443	2,5635	350,316	0,197	88,932	0	1014,32	6,9	8,7	8,6	1	1	1	1	1	1	1	1	1	0	1	-6,976744	274,375012	314,360663	0
15.01.2021	10:26:30	0	29,759343	3,304313	2,5155	351,7416	0,195	88,955	0	1014,26	6,9	8,9	8,6	1	1	1	1	1	1	1	1	1	0	1	-3,171247	274,296456	317,798313	0
15.01.2021	10:26:31	0	29,409269	2,848544	2,5215	355,3308	0,194	88,958	0	1014,28	6,9	8,9	8,6	1	1	1	1	1	1	1	1	1	0	1	-4,721635	274,373498	316,608681	0
15.01.2021	10:26:32	0	29,64292	4,671581	2,47575	349,434	0,19	88,952	0	1014,18	6,9	8,8	8,7	1	1	1	1	1	1	1	1	1	0	1	-5,919662	274,364419	315,368122	0
15.01.2021	10:26:33	0	29,642749	4,671579	2,4885	348,3684	0,193	88,959	0	1014,32	7	8,9	8,7	1	1	1	1	1	1	1	1	1	0	1	-10,218464	274,278374	310,666466	0
15.01.2021	10:26:34	0	29,526082	3,874013	2,565	359,9316	0,192	88,962	0	1014,36	6,9	8,9	8,6	1	1	1	1	1	1	1	1	1	0	1	-7,470049	274,375012	313,867358	0
15.01.2021	10:26:35	0	29,642822	5,013426	2,48625	353,6244	0,197	88,97	0	1014,3	6,9	8,9	8,6	1	1	1	1	1	1	1	1	1	0	1	-4,510218	274,320593	316,572332	0
15.01.2021	10:26:36	0	29,409656	3,98795	2,42625	348,6744	0,186	88,947	0	1014,2	6,9	8,8	8,6	1	1	1	1	1	1	1	1	1	0	1	-7,047216	274,361393	314,226395	0
15.01.2021	10:26:37	0	29,876303	4,899478	2,421	349,1496	0,193	88,955	0	1014,26	6,9	8,9	8,6	1	1	1	1	1	1	1	1	1	0	1	-6,694856	274,370471	314,62128	0
15.01.2021	10:26:38	0	29,526227	4,443684	2,15025	357,2712	0,185	88,946	0	1014,26	6,9	8,9	8,7	1	1	1	1	1	1	1	1	1	0	1	-5,355884	274,367445	315,946074	0
15.01.2021	10:26:39	0	29,759672	4,557649	2,04525	349,0272	0,192	88,953	0	1014,16	6,9	8,9	8,6	1	1	1	1	1	1	1	1	1	0	1	-6,060606	274,375012	315,276801	0
15.01.2021	10:26:40	0	29,876413	4,101882	2,1795	355,0284	0,189	88,945	0	1014,22	6,9	8,9	8,6	1	1	1	1	1	1	1	1	1	0	1	-10,218464	274,317575	310,849954	0
15.01.2021	10:26:41	0	29,40963	2,620645	2,406	358,7472	0,198	88,965	0	1014,36	6,9	8,9	8,6	1	1	1	1	1	1	1	1	1	0	1	-6,342495	274,19721	314,162781	0
15.01.2021	10:26:42	0	29,75999	4,557641	2,607	0,108	0,194	88,945	0	1014,24	6,9	8,8	8,6	1	1	1	1	1	1	1	1	1	0	1	-2,60747	274,313047	318,439753	0
15.01.2021	10:26:43	0	29,876523	4,215815	2,6835	354,582	0,195	88,96	0	1014,22	6,9	8,9	8,6	1	1	1	1	1	1	1	1	1	0	1	-7,188161	274,264822	313,633359	0
15.01.2021	10:26:44	0	29,993265	4,899429	2,8125	358,7076	0,191	88,957	0	1014,32	6,9	8,9	8,7	1	1	1	1	1	1	1	1	1	0	1	-10,147992	274,204711	310,392356	0
15.01.2021	10:26:45	0	29,876596	4,329751	2,89125	355,824	0,199	88,965	0	1014,42	7	8,9	8,6	1	1	1	1	1	1	1	1	1	0	1	-6,412967	274,362906	314,86773	0
15.01.2021	10:26:46	0	29,759927	3,760045	3,02325	4,4496	0,196	88,961	0	1014,36	6,9	8,9	8,6	1	1	1	1	1	1	1	1	1	0	1	-7,470049	274,325122	313,633706	0
15.01.2021	10:26:47	0	29,876879	3,30428	2,9595	357,6492	0,193	88,965	0	1014,26	7	8,8	8,6	1	1	1	1	1	1	1	1	1	0	1	-5,778717	274,228733	314,873972	0
15.01.2021	10:26:48	0	29,876706	4,443657	2,85225	3,7584	0,195	88,96	0	1014,32	6,9	8,9	8,7	1	1	1	1	1	1	1	1	1	0	1	-9,936575	274,240755	310,772348	0
15.01.2021	10:26:49	0	29,643331	4,785474	2,88375	351	0,193	88,966	0	1014,36	6,9	8,9	8,7	1	1	1	1	1	1	1	1	1	0	1	-7,117689	274,245266	313,612334	0
15.01.2021	10:26:50	0	29,526661	2,962453	3,0765	351,0756	0,191	88,97	0	1014,36	6,9	8,9	8,6	1	1	1	1	1	1	1	1	1	0	1	-0,916138	274,23324	319,757634	0
15.01.2021	10:26:51	0	29,993522	3,190313	3,015	354,2076	0,198	88,968	0	1014,32	6,9	8,9	8,7	1	1	1	1	1	1	1	1	1	0	1	-3,523608	274,349295	317,693342	0
15.01.2021	10:26:52	0	29,643647	4,443674	2,99475	353,6028	0,196	88,967	0	1014,34	6,9	8,8	8,6	1	1	1	1	1	1	1	1	1	0	1	-5,073996	274,376526	316,270503	0
15.01.2021	10:26:53	0	29,876889	4,329731	3,27375	352,836	0,201	88,955	0	1014,42	6,9	8,9	8,6	1	1	1	1	1	1	1	1	1	0	1	-4,298802	274,239252	316,40309	0
15.01.2021	10:26:54	0	29,527012	3,646087	3,72525	358,7076	0,192	88,963	0	1014,28	6,9	8,8	8,6	1	1	1	1	1	1	1	1	1	0	1	-8,668076	274,47518	313,138838	0
15.01.2021	10:26:55	0	30,110587	4,671546	4,023	357,3	0,194	88,972	0	1014,38	6,9	8,8	8,6	1	1	1	1	1	1	1	1	1	0	1	-5,355884	274,294949	315,60662	0
15.01.2021	10:26:56	0	29,643793	3,532143	4,16625	3,7584	0,194	88,974	0	1014,44	7	8,8	8,6	1	1	1	1	1	1	1	1	1	0	1	-1,832276	274,206211	318,715088	0
15.01.2021	10:26:57	0	29,877036	4,899391	4,311	357,282	0,195	88,971	0	1014,28	6,9	8,9	8,7	1	1	1	1	1	1	1	1	1	0	1	-9,302326	274,314556	311,751961	0
15.01.2021	10:26:58	0	29,643865	3,304239	4,362	352,4508	0,195	88,964	0	1014,2	6,9	8,8	8,7	1	1	1	1	1	1	1	1	1	0	1	-1,902748	274,20171	318,623569	0
15.01.2021	10:26:59	0	29,76061	2,734541	4,3305	349,0308	0,199	88,964	0	1014,48	7	8,8	8,7	1	1	1	1	1	1	1	1	1	0	1	-5,778717	274,285906	315,141463	0
15.01.2021	10:27:00	0	29,760474	3,304233	3,948	344,5848	0,191	88,947	0	1014,2	6,9	8,9	8,7	1	1	1	1	1	1	1	1	1	0	1	-5,285412	274,385611	316,101651	0
15.01.2021	10:27:01	0	29,760474	3,304233	3,948	344,5848	0,191	88,947	0	1014,2	6,9	8,9	8,7	1	1	1	1	1	1	1	1	1	0	1	-6,131078	274,362906	315,149619	0
15.01.2021	10:27:02	0	29,760719	3,190311	3,82275	345,1392	0,199	88,952	0	1014,34	7	8,8	8,6	1	1	1	1	1	1	1	1	1	0	1	-6,342495	274,23324	314,331277	0
15.01.2021	10:27:03	0	29,643839	3,646046	3,81225	344,286	0,197	88,964	0	1014,32	6,9	8,9	8,7	1	1	1	1	1	1	1	1	1	0	1	-7,258633	274,210713	313,309784	0
15.01.2021	10:27:04	0	29,760792	3,190307	3,9855	352,0944	0,199	88,964	0	1014,32	7	8,8	8,6	1	1	1	1	1	1	1	1	1	0	1	-5,144468	274,218219	315,459051	0
15.01.2021	10:27:05	0	29,994247	3,873942	3,849	340,5636	0,199	88,948	0	1014,36	7	8,8	8,6	1	1	1	1	1	1	1	1	1	0	1	-6,20155	274,349295	315,015399	0
15.01.2021	10:27:06	0	29,760656	2,734546	3,4725	335,3184	0,196	88,961	0	1014,24	7	8,9	8,6	1	1	1	1	1	1	1	1	1	0	1	-5,567301	274,353831	315,670892	0
15.01.2021	10:27:07	0	29,877401	3,532098	3,2235	330,678	0,193	88,944	0	1014,32	6,8	8,9	8,7	1	1	1	1	1	1	1	1	1	0	1	-2,255109	274,362906	319,025588	0
15.01.2021	10:27:08	0	29,644228	3,646035	2,97375	340,1388	0,197	88,965	0	1014,32	6,9	8,8	8,7	1	1	1	1	1	1	1	1	1	0	1	-4,721635	274,353831	316,516558	0
15.01.2021	10:27:09	0	29,877684	3,646033	2,982	344,7324	0,2	88,953	0	1014,28	7	8,8	8,7	1	1	1	1	1	1	1	1	1	0	1	-9,302326	274,251281	311,455838	0
15.01.2021	10:27:10	0	29,760802	3,304215	3,08925	2,4588	0,197	88,955	0	1014,26	6,9	8,9	8,7	1	1	1	1	1	1	1	1	1	0	1	-1,973221	274,37804	319,378371	0
15.01.2021	10:27:11	0	29,877547	2,84846	3,204	0,1188	0,198	88,959	0	1014,44	7	8,9	8,7	1	1	1	1	1	1	1	1	1	0	1	-9,020437	274,216718	311,57606	0
15.01.2021	10:27:12	0	29,760875	3,873903	3,207	5,2164	0,198	88,957	0	1014,38	6,9	8,9	8,7	1	1	1	1	1	1	1	1	1	0	1	-7,892882	274,320593	313,189668	0
15.01.2021	10:27:13	0	30,111039	4,101777	3,14175	359,0892	0,203	88,957	0	1014,38	7	8,9	8,7	1	1	1	1	1	1	1	1	1	0	1	-6,765328	274,399247	314,685629	0
15.01.2021	10:27:14	0	29,994367	4,671494	3,144	13,5576	0,196	88,96	0	1014,42	6,9	8,9	8,6	1	1	1	1	1	1	1	1	1	0	1	-6,20155	274,284399	314,711579	0
15.01.2021	10:27:15	0	29,761192	3,076329	3,1695	354,2508	0,19	88,964	0	1014,24	6,9	8,8	8,7	1	1	1	1	1	1	1	1	1	0	1	-6,483439	274,188213	313,979772	0
15.01.2021	10:27:16	0	29,877939	4,557522	3,25125	8,244	0,191	88,946	0	1014,2	6,9	8,8	8,7	1	1	1	1	1	1	1	1	1	0	1	-9,513742	274,316065	311,54761	0
15.01.2021	10:27:17	0	29,877976	3,646016	3,282	354,9996	0,197	88,965	0	1014,28	7	8,8	8,7	1	1	1	1	1	1	1	1	1	0	1	-3,946441	274,206211	316,600923	0
15.01.2021	10:27:18	0	29,877803	3,873889	3,3945	360	0,196	88,982	0	1014,34	7	8,9	8,7	1	1	1	1	1	1	1	1	1	0	1	-4,721635	274,362906	316,559062	0
15.01.2021	10:27:19	0	29,878049	4,443576	3,48225	349,8768	0,195	88,949	0	1014,28	6,9	8,8	8,7	1	1	1	1	1	1	1	1	1	0	1	-4,510218	274,282893	316,39586	0
15.01.2021	10:27:20	0	29,761374	3,418134	3,4965	354,9564	0,193	88,951	0	1014,38	6,9	8,8	8,7	1	1	1	1	1	1	1	1	1	0	1	-4,439746	274,212214	316,13569	0
15.01.2021	10:27:21	0	29,994623	4,785413	3,51075	359,8524	0,194	88,955	0	1014,3	6,9	8,9	8,6	1	1	1	1	1	1	1	1	1	0	1	-4,157858	274,285906	316,762323	0
15.01.2021	10:27:22	0	29,99487	3,532089	3,351	358,3332	0,195	88,958	0	1014,34	6,9	8,8	8,6	1	1	1	1	1	1	1	1	1	0	1	-3,24172	274,212214	317,333717	0
15.01.2021	10:27:23	0	29,994906	2,962377	3,16125	356,1408	0,201	88,945	0	1014,3	6,9	8,8	8,7	1	1	1	1	1	1	1	1	1	0	1	-6,553911	274,257298	314,232404	0
15.01.2021	10:27:24	0	29,994733	4,557501	3,084	356,5188	0,2	88,967	0	1014,24	6,8	8,9	8,7	1	1	1	1	1	1	1	1	1	0	1	-7,047216	274,350807	314,176814	0
15.01.2021	10:27:25	0	29,878058	2,848436	2,808	354,6108	0,187	88,951	0	1014,16	6,9	8,9	8,7	1	1	1	1	1	1	1	1	1	0	1	-4,22833	274,251281	316,529833	0
15.01.2021	10:27:26	0	29,994806	3,532059	2,77125	355,032	0,195	88,97	0	1014,32	6,9	8,9	8,7	1	1	1	1	1	1	1	1	1	0	1	-5,990134	274,368958	315,318913	0
15.01.2021	10:27:27	0	29,878131	4,329618	3,10275	0,8352	0,196	88,95	0	1014,28	6,9	8,9	8,7	1	1	1	1	1	1	1	1	1	0	1	-4,298802	273,92319	314,9272	0
15.01.2021	10:27:28	0	29,878377	4,215678	3,5265	353,6064	0,191	88,953	0	1014,26	6,8	8,8	8,7	1	1	1	1	1	1	1	1	1	0	1	-3,523608	274,356855	317,72875	0
15.01.2021	10:27:29	0	30,345264	4,785362	3,95775	356,2956	0,202	88,968	0	1014,42	6,8	8,8	8,7	1	1	1	1	1	1	1	1	1	0	1	-9,231853	274,192711	311,252387	0
15.01.2021	10:27:30	0	29,878241	2,734491	4,1565	353,1672	0,201	88,954	0	1014,38	6,9	8,9	8,7	1	1	1	1	1	1	1	1	1	0	1	-8,245243	274,221223	312,372321	0
15.01.2021	10:27:31	0	29,995199	3,759923	4,25925	358,704	0,198	88,966	0	1014,32	7	8,8	8,7	1	1	1	1	1	1	1	1	1	0	1	-2,959831	274,335694	318,193426	0
15.01.2021	10:27:32	0	30,111949	4,785353	4,224	353,988	0,193	88,951	0	1014,34	6,9	8,8	8,7	1	1	1	1	1	1	1	1	1	0	1	-1,268499	274,322103	319,821119	0
15.01.2021	10:27:33	0	29,87835	3,987816	4,167	357,2964	0,197	88,958	0	1014,34	7	8,9	8,6	1	1	1	1	1	1	1	1	1	0	1	-5,990134	274,20021	314,529169	0
15.01.2021	10:27:34	0	29,761883	4,443537	4,0365	0,1116	0,199	88,963	0	1014,28	7	8,8	8,7	1	1	1	1	1	1	1	1	1	0	1	-8,527132	274,155259	311,782046	0
15.01.2021	10:27:35	0	29,878423	3,076293	3,77625	12,8268	0,199	88,964	0	1014,34	6,9	8,9	8,7	1	1	1	1	1	1	1	1	1	0	1	-6,553911	274,349295	314,663039	0
15.01.2021	10:27:36	0	29,87846	3,873848	3,55275	352,5048	0,198	88,949	0	1014,34	7	8,9	8,7	1	1	1	1	1	1	1	1	1	0	1	-5,637773	274,385611	315,749291	0
15.01.2021	10:27:37	0	29,995419	4,101744	3,29175	337,4784	0,199	88,963	0	1014,3	7	8,8	8,6	1	1	1	1	1	1	1	1	1	0	1	-3,523608	274,30098	317,467125	0
15.01.2021	10:27:38	0	30,228671	3,759907	3,12525	354,2004	0,195	88,953	0	1014,34	7	8,9	8,7	1	1	1	1	1	1	1	1	1	0	1	-9,725159	274,371985	311,598067	0
15.01.2021	10:27:39	0	30,22892	3,987778	2,9355	350,3628	0,197	88,97	0	1014,3	6,9	8,8	8,7	1	1	1	1	1	1	1	1	1	0	1	-6,20155	274,251281	314,556613	0
15.01.2021	10:27:40	0	29,995529	3,19024	2,8905	355,7376	0,196	88,952	0	1014,32	7	8,8	8,6	1	1	1	1	1	1	1	1	1	0	1	-4,651163	274,215217	315,938313	0
15.01.2021	10:27:41	0	29,878642	3,873837	2,853	353,9592	0,192	88,954	0	1014,34	6,9	8,9	8,7	1	1	1	1	1	1	1	1	1	0	1	-8,033827	274,361393	313,239785	0
15.01.2021	10:27:42	0	30,228819	3,987771	2,99475	355,7196	0,199	88,942	0	1014,38	6,9	8,9	8,7	1	1	1	1	1	1	1	1	1	0	1	-4,721635	274,270844	316,12806	0
15.01.2021	10:27:43	0	30,578997	3,987769	3,24975	343,4688	0,197	88,95	0	1014,34	7	8,9	8,7	1	1	1	1	1	1	1	1	1	0	1	-5,708245	274,375012	315,629162	0
15.01.2021	10:27:44	0	29,995675	3,64598	3,2385	349,9272	0,196	88,959	0	1014,4	6,9	8,8	8,6	1	1	1	1	1	1	1	1	1	0	1	-6,20155	274,341738	314,980008	0
15.01.2021	10:27:45	0	30,345643	5,013189	3,108	357,588	0,195	88,925	0	1014,28	6,9	8,9	8,7	1	1	1	1	1	1	1	1	1	0	1	-8,033827	274,249777	312,7173	0
15.01.2021	10:27:46	0	30,34568	3,645954	2,988	360	0,201	88,937	0	1014,24	7	8,9	8,7	1	1	1	1	1	1	1	1	1	0	1	-8,245243	274,204711	312,295105	0
15.01.2021	10:27:47	0	29,879069	2,620528	2,96475	353,934	0,193	88,95	0	1014,2	6,9	8,8	8,7	1	1	1	1	1	1	1	1	1	0	1	-7,399577	274,242259	313,316378	0
15.01.2021	10:27:48	0	29,995821	3,987757	2,8095	4,0716	0,194	88,924	0	1014,36	7	8,8	8,7	1	1	1	1	1	1	1	1	1	0	1	-4,510218	274,212214	316,065218	0
15.01.2021	10:27:49	0	30,346004	4,557434	2,76225	0,1116	0,2	88,935	0	1014,54	7	8,8	8,7	1	1	1	1	1	1	1	1	1	0	1	-6,060606	274,243762	314,662382	0
15.01.2021	10:27:50	0	30,11261	4,557431	2,64975	2,0016	0,194	88,924	0	1014,42	7	8,8	8,7	1	1	1	1	1	1	1	1	1	0	1	-3,312192	274,358368	317,94725	0
15.01.2021	10:27:51	0	29,879006	3,759879	2,7225	4,0896	0,199	88,932	0	1014,36	6,9	8,9	8,7	1	1	1	1	1	1	1	1	1	0	1	-10,570825	274,350807	310,653206	0
15.01.2021	10:27:52	0	30,346115	3,304134	2,79	351,2232	0,194	88,925	0	1014,28	7	8,8	8,7	1	1	1	1	1	1	1	1	1	0	1	-8,80902	274,269338	312,03363	0
15.01.2021	10:27:53	0	30,112509	4,671359	2,76	358,0776	0,2	88,936	0	1014,42	6,9	8,9	8,7	1	1	1	1	1	1	1	1	1	0	1	-3,523608	274,393186	317,898945	0
15.01.2021	10:27:54	0	30,112756	4,101703	2,86725	356,166	0,198	88,945	0	1014,34	6,9	8,8	8,6	1	1	1	1	1	1	1	1	1	0	1	-4,862579	274,284399	316,05055	0
15.01.2021	10:27:55	0	30,462728	5,468934	3,096	350,9424	0,193	88,938	0	1014,34	7	8,9	8,6	1	1	1	1	1	1	1	1	1	0	1	-2,043693	274,216718	318,552805	0
15.01.2021	10:27:56	0	30,112619	4,785286	3,171	353,1132	0,196	88,948	0	1014,34	7	8,9	8,7	1	1	1	1	1	1	1	1	1	0	1	-6,272023	274,293441	314,683426	0
15.01.2021	10:27:57	0	29,99615	3,190189	3,22425	352,3968	0,197	88,93	0	1014,32	7	8,8	8,7	1	1	1	1	1	1	1	1	1	0	1	-7,117689	274,215217	313,471788	0
15.01.2021	10:27:58	0	30,463053	3,873799	3,279	356,5692	0,195	88,929	0	1014,32	7	8,8	8,7	1	1	1	1	1	1	1	1	1	0	1	-9,44327	274,340227	311,731212	0
15.01.2021	10:27:59	0	30,229656	3,645926	3,225	357,5988	0,198	88,915	0	1014,36	6,8	8,8	8,7	1	1	1	1	1	1	1	1	1	0	1	-3,171247	274,212214	317,404189	0
15.01.2021	10:28:00	0	29,879579	4,785272	3,0975	1,1628	0,199	88,934	0	1014,32	7	8,8	8,7	1	1	1	1	1	1	1	1	1	0	1	-7,047216	274,248273	313,696875	0
15.01.2021	10:28:01	0	29,879579	4,785272	3,0975	1,1628	0,199	88,934	0	1014,32	7	8,8	8,7	1	1	1	1	1	1	1	1	1	0	1	-3,875969	274,365932	317,418902	0
15.01.2021	10:28:02	0	30,113049	3,076245	2,715	359,8416	0,193	88,932	0	1014,12	7	8,8	8,7	1	1	1	1	1	1	1	1	1	0	1	-1,832276	274,248273	318,911815	0
15.01.2021	10:28:03	0	30,113086	4,785267	2,5725	15,3972	0,194	88,94	0	1014,4	6,9	8,8	8,7	1	1	1	1	1	1	1	1	1	0	1	-4,580691	274,390156	316,827664	0
15.01.2021	10:28:04	0	30,346558	4,443459	2,541	360	0,203	88,942	0	1014,66	7	8,8	8,7	1	1	1	1	1	1	1	1	1	0	1	-1,550388	274,225728	319,08825	0
15.01.2021	10:28:05	0	30,229877	3,987717	2,55675	350,2584	0,198	88,94	0	1014,46	7	8,8	8,7	1	1	1	1	1	1	1	1	1	0	1	-3,946441	274,294949	317,016063	0
15.01.2021	10:28:06	0	29,879551	3,076237	2,7255	3,006	0,2	88,934	0	1014,44	7	8,9	8,7	1	1	1	1	1	1	1	1	1	0	1	-7,681466	274,317575	313,386952	0
15.01.2021	10:28:07	0	30,22995	3,19017	2,84475	356,1876	0,2	88,952	0	1014,46	6,9	8,8	8,7	1	1	1	1	1	1	1	1	1	0	1	-0,845666	274,221223	319,771898	0
15.01.2021	10:28:08	0	30,579927	3,076234	2,9535	355,1004	0,199	88,947	0	1014,32	7	8,9	8,7	1	1	1	1	1	1	1	1	1	0	1	-5,84919	274,255794	314,930086	0
15.01.2021	10:28:09	0	29,996377	2,506559	3,198	354,402	0,206	88,94	0	1014,42	6,8	8,9	8,7	1	1	1	1	1	1	1	1	1	0	1	-6,765328	274,381068	314,60045	0
15.01.2021	10:28:10	0	30,346779	4,557378	3,516	349,8804	0,198	88,954	0	1014,36	7	8,8	8,7	1	1	1	1	1	1	1	1	1	0	1	-3,946441	274,239252	316,755451	0
15.01.2021	10:28:11	0	30,230097	3,759857	3,85875	346,9572	0,196	88,956	0	1014,4	7	8,8	8,6	1	1	1	1	1	1	1	1	1	0	1	-6,412967	274,255794	314,366309	0
15.01.2021	10:28:12	0	30,34664	3,41803	4,146	358,6896	0,202	88,952	0	1014,5	7	8,9	8,7	1	1	1	1	1	1	1	1	1	0	1	-7,470049	274,207712	313,084332	0
15.01.2021	10:28:13	0	30,463608	5,127041	4,329	353,2572	0,198	88,959	0	1014,44	6,9	8,8	8,7	1	1	1	1	1	1	1	1	1	0	1	-6,624383	274,243762	314,098605	0
15.01.2021	10:28:14	0	29,996559	3,987697	4,3305	350,964	0,199	88,949	0	1014,32	7	8,9	8,7	1	1	1	1	1	1	1	1	1	0	1	-0,98661	274,388641	320,414647	0
15.01.2021	10:28:15	0	30,230244	3,304109	4,33575	347,2056	0,196	88,945	0	1014,3	7	8,8	8,6	1	1	1	1	1	1	1	1	1	0	1	-7,610994	274,270844	313,238701	0
15.01.2021	10:28:16	0	30,463506	2,620483	4,29375	360	0,197	88,963	0	1014,32	6,8	8,9	8,7	1	1	1	1	1	1	1	1	1	0	1	-5,567301	274,382582	315,805572	0
15.01.2021	10:28:17	0	30,463543	4,215558	4,0305	343,5228	0,197	88,957	0	1014,46	7	8,9	8,7	1	1	1	1	1	1	1	1	1	0	1	-9,090909	274,23324	311,582863	0
15.01.2021	10:28:18	0	30,113635	3,759819	3,79425	348,2892	0,192	88,959	0	1014,28	7	8,8	8,7	1	1	1	1	1	1	1	1	1	0	1	-5,21494	274,207712	315,339441	0
15.01.2021	10:28:19	0	30,46383	3,873751	3,72	353,5164	0,203	88,962	0	1014,32	6,9	8,8	8,7	1	1	1	1	1	1	1	1	1	0	1	-10,570825	274,340227	310,603657	0
15.01.2021	10:28:20	0	30,113497	4,32951	3,6945	354,3408	0,202	88,958	0	1014,2	6,8	8,9	8,6	1	1	1	1	1	1	1	1	1	0	1	-5,144468	274,352319	316,086643	0
15.01.2021	10:28:21	0	30,230464	4,785216	3,5385	357,6528	0,197	88,948	0	1014,4	6,8	8,8	8,7	1	1	1	1	1	1	1	1	1	0	1	-2,748414	274,206211	317,79895	0
15.01.2021	10:28:22	0	30,463941	5,013081	3,4695	356,4612	0,201	88,953	0	1014,24	6,9	8,8	8,7	1	1	1	1	1	1	1	1	1	0	1	-10,077519	274,371985	311,245706	0
15.01.2021	10:28:23	0	30,347258	4,557344	3,46575	349,0056	0,197	88,938	0	1014,26	7	8,8	8,7	1	1	1	1	1	1	1	1	1	0	1	-9,866103	274,361393	311,407508	0
15.01.2021	10:28:24	0	30,464015	4,671274	3,50325	350,9352	0,202	88,959	0	1014,6	7	8,8	8,7	1	1	1	1	1	1	1	1	1	0	1	-5,84919	274,387126	315,544971	0
15.01.2021	10:28:25	0	29,99717	2,734403	3,5265	2,2788	0,198	88,954	0	1014,34	6,9	8,8	8,7	1	1	1	1	1	1	1	1	1	0	1	-5,144468	274,237749	315,550393	0
15.01.2021	10:28:26	0	30,463876	3,987669	3,39375	358,002	0,202	88,963	0	1014,32	7	8,9	8,7	1	1	1	1	1	1	1	1	1	0	1	-6,906272	274,276867	313,971609	0
15.01.2021	10:28:27	0	30,347405	3,531933	3,24075	7,1244	0,203	88,956	0	1014,46	6,8	8,8	8,7	1	1	1	1	1	1	1	1	1	0	1	-7,751938	274,213715	312,830518	0
15.01.2021	10:28:28	0	30,114	3,076198	3,228	15,0228	0,194	88,928	0	1014,34	7	8,8	8,7	1	1	1	1	1	1	1	1	1	0	1	-6,765328	274,31003	314,267769	0
15.01.2021	10:28:29	0	30,230758	5,01306	2,9745	7,0992	0,196	88,94	0	1014,26	7	8,8	8,7	1	1	1	1	1	1	1	1	1	0	1	-5,84919	274,388641	315,552068	0
15.01.2021	10:28:30	0	30,464237	1,936863	2,7045	0,1296	0,2	88,94	0	1014,38	7	8,8	8,7	1	1	1	1	1	1	1	1	1	0	1	-8,174771	274,222724	312,449817	0
15.01.2021	10:28:31	0	30,230831	3,076193	2,7135	3,0312	0,197	88,936	0	1014,42	6,9	8,8	8,7	1	1	1	1	1	1	1	1	1	0	1	-7,892882	274,206211	312,654482	0
15.01.2021	10:28:32	0	30,347589	5,468783	2,72625	356,8644	0,199	88,959	0	1014,38	7	8,8	8,7	1	1	1	1	1	1	1	1	1	0	1	-10,923185	274,314556	310,131102	0
15.01.2021	10:28:33	0	30,114183	3,987652	2,736	1,1844	0,2	88,945	0	1014,28	7	8,8	8,7	1	1	1	1	1	1	1	1	1	0	1	-4,439746	274,367445	316,862212	0
15.01.2021	10:28:34	0	30,464385	4,443381	2,78775	354,4524	0,198	88,934	0	1014,36	7	8,8	8,7	1	1	1	1	1	1	1	1	1	0	1	-5,355884	274,249777	315,395242	0
15.01.2021	10:28:35	0	30,464422	2,620454	2,826	350,154	0,192	88,938	0	1014,38	6,8	8,8	8,7	1	1	1	1	1	1	1	1	1	0	1	-5,778717	274,381068	315,587061	0
15.01.2021	10:28:36	0	30,114292	2,734385	2,8995	352,1016	0,202	88,947	0	1014,36	7	8,8	8,7	1	1	1	1	1	1	1	1	1	0	1	-6,765328	274,267833	314,070278	0
15.01.2021	10:28:37	0	30,464495	3,304067	2,8575	352,818	0,195	88,932	0	1014,48	7	8,8	8,6	1	1	1	1	1	1	1	1	1	0	1	-5,919662	274,390156	315,488693	0
15.01.2021	10:28:38	0	30,34781	2,734382	2,919	355,7124	0,192	88,944	0	1014,36	7	8,8	8,7	1	1	1	1	1	1	1	1	1	0	1	-6,20155	274,260308	314,598844	0
15.01.2021	10:28:39	0	30,464356	4,443368	2,9595	350,9784	0,197	88,936	0	1014,34	7	8,9	8,7	1	1	1	1	1	1	1	1	1	0	1	-6,694856	274,356855	314,557503	0
15.01.2021	10:28:40	0	30,581329	4,557298	3,0375	350,2512	0,2	88,947	0	1014,48	7	8,8	8,7	1	1	1	1	1	1	1	1	1	0	1	-9,584214	274,373498	311,746102	0
15.01.2021	10:28:41	0	30,34792	3,759769	2,80575	356,1588	0,198	88,944	0	1014,18	7	8,8	8,7	1	1	1	1	1	1	1	1	1	0	1	-4,651163	274,381068	316,714615	0
15.01.2021	10:28:42	0	30,46468	3,076173	2,73075	1,1664	0,201	88,938	0	1014,4	6,9	8,8	8,7	1	1	1	1	1	1	1	1	1	0	1	-11,980268	274,237749	308,714593	0
15.01.2021	10:28:43	0	30,814886	4,899087	2,619	3,7584	0,194	88,94	0	1014,34	7	8,8	8,7	1	1	1	1	1	1	1	1	1	0	1	-5,144468	274,31003	315,888628	0
15.01.2021	10:28:44	0	30,231307	3,759762	2,60175	355,4424	0,196	88,938	0	1014,28	7	8,8	8,7	1	1	1	1	1	1	1	1	1	0	1	-5,003524	274,382582	316,369349	0
15.01.2021	10:28:45	0	30,231344	3,987624	2,68125	347,256	0,196	88,946	0	1014,32	6,9	8,8	8,7	1	1	1	1	1	1	1	1	1	0	1	-7,188161	274,222724	313,436427	0
15.01.2021	10:28:46	0	30,114657	2,734369	2,8605	3,7692	0,195	88,934	0	1014,34	7	8,8	8,7	1	1	1	1	1	1	1	1	1	0	1	-5,496829	274,329652	315,628138	0
15.01.2021	10:28:47	0	30,464864	4,329416	3,066	8,604	0,195	88,946	0	1014,36	7	8,8	8,7	1	1	1	1	1	1	1	1	1	0	1	-9,231853	274,367445	312,070105	0
15.01.2021	10:28:48	0	30,231454	2,848298	3,051	17,2152	0,198	88,938	0	1014,46	6,8	8,8	8,7	1	1	1	1	1	1	1	1	1	0	1	-7,892882	274,361393	313,380729	0
15.01.2021	10:28:49	0	30,23149	4,785138	2,97	9,738	0,195	88,942	0	1014,46	7	8,8	8,7	1	1	1	1	1	1	1	1	1	0	1	-9,866103	274,373498	311,464213	0
15.01.2021	10:28:50	0	30,348251	2,962227	2,922	3,3912	0,196	88,952	0	1014,32	7	8,8	8,7	1	1	1	1	1	1	1	1	1	0	1	-6,553911	274,269338	314,288739	0
15.01.2021	10:28:51	0	29,881391	2,506498	2,97675	359,0784	0,195	88,939	0	1014,3	7	8,8	8,7	1	1	1	1	1	1	1	1	1	0	1	-3,030303	274,218219	317,573216	0
15.01.2021	10:28:52	0	30,465049	2,73436	3,0915	359,2728	0,197	88,945	0	1014,46	7	8,8	8,7	1	1	1	1	1	1	1	1	1	0	1	-4,157858	274,311538	316,882302	0
15.01.2021	10:28:53	0	30,114912	3,873674	3,26475	5,2164	0,192	88,916	0	1014,28	7	8,8	8,7	1	1	1	1	1	1	1	1	1	0	1	-10,782241	274,393186	310,640312	0
15.01.2021	10:28:54	0	30,581847	4,557289	3,312	358,344	0,193	88,949	0	1014,24	7	8,8	8,6	1	1	1	1	1	1	1	1	1	0	1	-13,953488	274,296456	307,016072	0
15.01.2021	10:28:55	0	30,464946	3,759738	3,195	351,6192	0,2	88,96	0	1014,38	7	8,9	8,7	1	1	1	1	1	1	1	1	1	0	1	-6,412967	274,375012	314,92444	0
15.01.2021	10:28:56	0	30,581921	4,215487	3,23025	359,5068	0,194	88,927	0	1014,24	7	8,8	8,6	1	1	1	1	1	1	1	1	1	0	1	-4,651163	274,260308	316,149232	0
15.01.2021	10:28:57	0	30,114847	2,848283	3,32025	0,5544	0,197	88,942	0	1014,3	6,8	8,9	8,7	1	1	1	1	1	1	1	1	1	0	1	-7,258633	274,400763	314,199426	0
15.01.2021	10:28:58	0	30,69872	4,785113	3,1365	4,0392	0,196	88,982	0	1014,4	7	8,8	8,7	1	1	1	1	1	1	1	1	1	0	1	-5,84919	274,341738	315,332369	0
15.01.2021	10:28:59	0	30,348581	2,506486	2,9175	2,6352	0,189	88,942	0	1014,22	7	8,8	8,7	1	1	1	1	1	1	1	1	1	0	1	-6,976744	274,204711	313,563604	0
15.01.2021	10:29:00	0	30,698831	4,215449	2,718	357,3072	0,204	89,004	0	1014,48	7	8,8	8,7	1	1	1	1	1	1	1	1	1	0	1	-6,060606	274,231738	314,606138	0
15.01.2021	10:29:01	0	30,698831	4,215449	2,718	357,3072	0,204	89,004	0	1014,48	7	8,8	8,7	1	1	1	1	1	1	1	1	1	0	1	-2,677942	274,320593	318,404609	0
15.01.2021	10:29:02	0	30,465204	4,55724	2,7735	6,8112	0,202	88,95	0	1014,3	7	8,9	8,7	1	1	1	1	1	1	1	1	1	0	1	-5,285412	274,390156	316,122943	0
15.01.2021	10:29:03	0	30,465454	2,278619	2,84025	359,4204	0,195	88,953	0	1014,34	6,8	8,8	8,7	1	1	1	1	1	1	1	1	1	0	1	-5,778717	274,257298	315,007597	0
15.01.2021	10:29:04	0	30,465491	2,62041	2,898	360	0,197	88,952	0	1014,3	7	8,8	8,7	1	1	1	1	1	1	1	1	1	0	1	-9,020437	274,373498	312,309879	0
15.01.2021	10:29:05	0	30,69898	4,785094	3,0225	359,8344	0,194	88,959	0	1014,42	7	8,8	8,7	1	1	1	1	1	1	1	1	1	0	1	-7,399577	274,323613	313,697109	0
15.01.2021	10:29:06	0	30,348838	3,645784	3,1125	352,7604	0,198	88,941	0	1014,14	7	8,8	8,7	1	1	1	1	1	1	1	1	1	0	1	-3,030303	274,215217	317,559173	0
15.01.2021	10:29:07	0	30,348875	4,101504	3,31125	345,7224	0,193	88,957	0	1014,48	7	8,8	8,7	1	1	1	1	1	1	1	1	1	0	1	-3,382664	274,34476	317,813049	0
15.01.2021	10:29:08	0	30,699091	4,671155	3,444	351,7452	0,191	88,937	0	1014,3	7	8,8	8,7	1	1	1	1	1	1	1	1	1	0	1	-6,765328	274,317575	314,30309	0
15.01.2021	10:29:09	0	30,348948	3,873638	3,7125	349,4304	0,203	88,966	0	1014,44	7	8,8	8,7	1	1	1	1	1	1	1	1	1	0	1	-6,624383	274,381068	314,741395	0
15.01.2021	10:29:10	0	30,582438	4,101497	3,879	1,9044	0,2	88,949	0	1014,3	7	8,8	8,7	1	1	1	1	1	1	1	1	1	0	1	-8,033827	274,302488	312,963965	0
15.01.2021	10:29:11	0	30,465748	3,531843	3,702	0,846	0,199	88,943	0	1014,16	7	8,8	8,7	1	1	1	1	1	1	1	1	1	0	1	-2,889359	274,390156	318,518996	0
15.01.2021	10:29:12	0	30,465785	3,53184	3,7845	359,4708	0,196	88,963	0	1014,3	7	8,8	8,7	1	1	1	1	1	1	1	1	1	0	1	-5,778717	274,248273	314,965374	0
15.01.2021	10:29:13	0	30,465822	3,98756	3,9945	6,8148	0,198	88,957	0	1014,38	7	8,8	8,7	1	1	1	1	1	1	1	1	1	0	1	-6,8358	274,213715	313,746656	0
15.01.2021	10:29:14	0	30,465858	4,329348	4,09275	6,5412	0,197	88,938	0	1014,38	7	8,8	8,7	1	1	1	1	1	1	1	1	1	0	1	-4,862579	274,270844	315,987116	0
15.01.2021	10:29:15	0	30,932805	3,531834	4,167	3,0168	0,199	88,957	0	1014,42	7	8,8	8,7	1	1	1	1	1	1	1	1	1	0	1	-8,597604	274,373498	312,732712	0
15.01.2021	10:29:16	0	30,58266	3,645762	4,104	3,3876	0,2	88,95	0	1014,42	7	8,8	8,7	1	1	1	1	1	1	1	1	1	0	1	-4,792107	274,361393	316,481504	0
15.01.2021	10:29:17	0	30,465969	3,53183	4,11075	8,9928	0,197	88,95	0	1014,38	7	8,8	8,7	1	1	1	1	1	1	1	1	1	0	1	-6,8358	274,382582	314,537073	0
15.01.2021	10:29:18	0	30,816189	3,873618	4,146	13,5324	0,199	88,948	0	1014,28	6,8	8,8	8,7	1	1	1	1	1	1	1	1	1	0	1	-7,117689	274,320593	313,964862	0
15.01.2021	10:29:19	0	30,466042	3,645756	4,152	11,1888	0,196	88,955	0	1014,54	7	8,8	8,7	1	1	1	1	1	1	1	1	1	0	1	-5,708245	274,382582	315,664627	0
15.01.2021	10:29:20	0	30,699536	4,215403	4,1955	359,55	0,203	88,959	0	1014,56	7	8,8	8,7	1	1	1	1	1	1	1	1	1	0	1	-7,610994	274,31003	313,422103	0
15.01.2021	10:29:21	0	30,232659	4,898979	4,002	4,8492	0,194	88,968	0	1014,38	7	8,8	8,7	1	1	1	1	1	1	1	1	1	0	1	-4,22833	274,379554	317,130355	0
15.01.2021	10:29:22	0	30,582881	3,076101	3,77625	4,0752	0,194	88,954	0	1014,36	7	8,8	8,7	1	1	1	1	1	1	1	1	1	0	1	-4,157858	274,255794	316,621418	0
15.01.2021	10:29:23	0	30,349461	3,645748	3,57225	358,9164	0,198	88,956	0	1014,32	7	8,8	8,7	1	1	1	1	1	1	1	1	1	0	1	-2,60747	274,396216	318,829283	0
15.01.2021	10:29:24	0	30,699684	2,848239	3,66675	2,6568	0,199	88,951	0	1014,36	7	8,8	8,7	1	1	1	1	1	1	1	1	1	0	1	-2,255109	274,303996	318,749742	0
15.01.2021	10:29:25	0	30,466263	2,962166	3,8295	9,0684	0,201	88,957	0	1014,54	7	8,8	8,7	1	1	1	1	1	1	1	1	1	0	1	-5,426357	274,234743	315,254444	0
15.01.2021	10:29:26	0	30,699758	4,671106	3,61125	6,048	0,202	88,962	0	1014,4	7	8,8	8,7	1	1	1	1	1	1	1	1	1	0	1	-2,959831	274,234743	317,72097	0
15.01.2021	10:29:27	0	30,466336	2,962163	3,3555	358,7076	0,199	88,953	0	1014,5	7	8,8	8,7	1	1	1	1	1	1	1	1	1	0	1	-7,681466	274,364419	313,606318	0
15.01.2021	10:29:28	0	30,93329	4,671101	3,35625	0,8568	0,198	88,944	0	1014,24	7	8,8	8,7	1	1	1	1	1	1	1	1	1	0	1	-8,668076	274,358368	312,591366	0
15.01.2021	10:29:29	0	30,933111	3,873593	3,288	357,6636	0,2	88,957	0	1014,48	7	8,9	8,7	1	1	1	1	1	1	1	1	1	0	1	-5,567301	274,358368	315,692141	0
15.01.2021	10:29:30	0	30,583176	3,873591	3,2595	350,334	0,2	88,938	0	1014,32	7	8,8	8,7	1	1	1	1	1	1	1	1	1	0	1	-7,188161	274,379554	314,170524	0
15.01.2021	10:29:31	0	30,699943	5,01288	3,30975	4,8384	0,198	88,952	0	1014,4	7	8,8	8,7	1	1	1	1	1	1	1	1	1	0	1	-7,258633	274,27235	313,598108	0
15.01.2021	10:29:32	0	30,699765	3,873587	3,15075	357,2316	0,197	88,957	0	1014,58	7	8,9	8,7	1	1	1	1	1	1	1	1	1	0	1	-6,483439	274,210713	314,084978	0
15.01.2021	10:29:33	0	30,816747	4,785016	3,01125	3,7692	0,198	88,95	0	1014,5	7	8,8	8,7	1	1	1	1	1	1	1	1	1	0	1	-8,738548	274,352319	312,492563	0
15.01.2021	10:29:34	0	30,466593	2,848222	3,141	7,5096	0,201	88,943	0	1014,54	7	8,8	8,7	1	1	1	1	1	1	1	1	1	0	1	-9,795631	274,269338	311,047019	0
15.01.2021	10:29:35	0	30,583146	4,215366	3,21075	1,9116	0,193	88,952	0	1014,32	7	8,9	8,7	1	1	1	1	1	1	1	1	1	0	1	-5,21494	274,216718	315,381557	0
15.01.2021	10:29:36	0	30,816858	3,076076	3,39825	3,0168	0,197	88,949	0	1014,32	7	8,8	8,7	1	1	1	1	1	1	1	1	1	0	1	-8,033827	274,276867	312,844055	0
15.01.2021	10:29:37	0	30,700164	2,62036	3,40425	360	0,199	88,953	0	1014,4	7	8,8	8,7	1	1	1	1	1	1	1	1	1	0	1	-5,919662	274,261812	314,887774	0
15.01.2021	10:29:38	0	30,700201	3,873573	3,35625	0,8676	0,199	88,944	0	1014,34	7	8,8	8,7	1	1	1	1	1	1	1	1	1	0	1	-4,087385	274,239252	316,614506	0
15.01.2021	10:29:39	0	30,583507	4,557142	3,29925	4,8456	0,199	88,961	0	1014,4	7	8,8	8,7	1	1	1	1	1	1	1	1	1	0	1	-8,315715	274,258803	312,477639	0
15.01.2021	10:29:40	0	30,817006	3,645712	3,17025	353,25	0,2	88,945	0	1014,44	7	8,8	8,7	1	1	1	1	1	1	1	1	1	0	1	-3,875969	274,237749	316,818892	0
15.01.2021	10:29:41	0	30,583581	3,873566	2,92275	342,7236	0,197	88,95	0	1014,48	7	8,8	8,7	1	1	1	1	1	1	1	1	1	0	1	-4,157858	274,218219	316,445661	0
15.01.2021	10:29:42	0	30,817081	4,215349	2,96625	347,8752	0,198	88,961	0	1014,36	7	8,8	8,7	1	1	1	1	1	1	1	1	1	0	1	-6,624383	274,350807	314,599647	0
15.01.2021	10:29:43	0	30,466923	3,759634	3,2865	353,142	0,196	88,947	0	1014,24	7	8,8	8,7	1	1	1	1	1	1	1	1	1	0	1	-4,22833	274,23324	316,445442	0
15.01.2021	10:29:44	0	31,16735	4,101416	3,36	350,6292	0,195	88,944	0	1014,36	7	8,8	8,7	1	1	1	1	1	1	1	1	1	0	1	-7,399577	274,396216	314,037176	0
15.01.2021	10:29:45	0	30,933924	4,671055	3,0945	348,3756	0,194	88,936	0	1014,4	7	8,8	8,7	1	1	1	1	1	1	1	1	1	0	1	-4,157858	274,215217	316,431619	0
15.01.2021	10:29:46	0	30,700497	3,417843	2,967	343,8936	0,198	88,954	0	1014,42	7	8,8	8,7	1	1	1	1	1	1	1	1	1	0	1	-5,073996	274,246769	315,663061	0
15.01.2021	10:29:47	0	30,933998	4,898905	2,994	353,8548	0,195	88,942	0	1014,42	7	8,8	8,7	1	1	1	1	1	1	1	1	1	0	1	-9,302326	274,287413	311,624907	0
15.01.2021	10:29:48	0	30,934035	4,215335	2,904	340,2252	0,2	88,962	0	1014,44	7	8,8	8,7	1	1	1	1	1	1	1	1	1	0	1	-8,174771	274,218219	312,428748	0
15.01.2021	10:29:49	0	30,700608	2,962125	2,94525	354,4956	0,193	88,936	0	1014,34	7	8,8	8,7	1	1	1	1	1	1	1	1	1	0	1	-7,470049	274,317575	313,598368	0
15.01.2021	10:29:50	0	30,583912	4,898897	2,778	2,6388	0,195	88,952	0	1014,44	7	8,8	8,7	1	1	1	1	1	1	1	1	1	0	1	-7,188161	274,379554	314,170524	0
15.01.2021	10:29:51	0	30,583949	2,962122	2,67825	4,4424	0,194	88,958	0	1014,36	7	8,8	8,7	1	1	1	1	1	1	1	1	1	0	1	-5,144468	274,328142	315,973428	0
15.01.2021	10:29:52	0	30,583986	2,506409	2,601	357,2352	0,198	88,946	0	1014,3	7	8,8	8,7	1	1	1	1	1	1	1	1	1	0	1	-10,007047	274,228733	310,645642	0
15.01.2021	10:29:53	0	30,934221	3,076046	2,58225	359,5356	0,195	88,954	0	1014,4	7	8,8	8,7	1	1	1	1	1	1	1	1	1	0	1	-3,030303	274,358368	318,229139	0
15.01.2021	10:29:54	0	30,700792	3,987465	2,61375	8,604	0,201	88,963	0	1014,38	7	8,8	8,7	1	1	1	1	1	1	1	1	1	0	1	-7,610994	274,376526	313,733505	0
15.01.2021	10:29:55	0	30,934295	2,620333	2,56425	18,4284	0,198	88,957	0	1014,42	7	8,8	8,7	1	1	1	1	1	1	1	1	1	0	1	-9,090909	274,385611	312,296155	0
15.01.2021	10:29:56	0	30,817599	3,189968	2,496	18,0612	0,194	88,96	0	1014,4	7	8,8	8,7	1	1	1	1	1	1	1	1	1	0	1	-7,82241	274,294949	313,140094	0
15.01.2021	10:29:57	0	30,584169	3,076039	2,598	4,8384	0,205	88,961	0	1014,44	7	8,8	8,7	1	1	1	1	1	1	1	1	1	0	1	-5,144468	274,405311	316,334903	0
15.01.2021	10:29:58	0	30,817673	3,303892	2,91075	350,6616	0,195	88,94	0	1014,32	7	8,8	8,7	1	1	1	1	1	1	1	1	1	0	1	-9,090909	274,275361	311,779925	0
15.01.2021	10:29:59	0	30,81771	4,215308	2,955	3,006	0,197	88,947	0	1014,48	7	8,8	8,7	1	1	1	1	1	1	1	1	1	0	1	-4,933051	274,396216	316,503702	0
15.01.2021	10:30:00	0	30,817784	3,076032	2,91975	359,4636	0,193	88,957	0	1014,3	7	8,8	8,7	1	1	1	1	1	1	1	1	1	0	1	-6,060606	274,326632	315,050219	0
15.01.2021	10:30:01	0	30,817784	3,076032	2,91975	359,4636	0,193	88,957	0	1014,3	7	8,8	8,7	1	1	1	1	1	1	1	1	1	0	1	-5,003524	274,218219	315,599995	0
15.01.2021	10:30:02	0	30,817821	3,07603	2,78175	359,4888	0,194	88,957	0	1014,3	7	8,8	8,7	1	1	1	1	1	1	1	1	1	0	1	-5,637773	274,352319	315,593338	0
15.01.2021	10:30:03	0	30,817858	4,671006	2,46825	355,6908	0,196	88,953	0	1014,48	7	8,8	8,7	1	1	1	1	1	1	1	1	1	0	1	-6,906272	274,349295	314,310678	0
15.01.2021	10:30:04	0	30,584426	3,531734	2,45475	336,3732	0,202	88,964	0	1014,36	7	8,8	8,7	1	1	1	1	1	1	1	1	1	0	1	-7,963354	274,384097	313,416613	0
15.01.2021	10:30:05	0	31,051402	4,784927	2,79075	353,304	0,196	88,966	0	1014,4	7	8,8	8,7	1	1	1	1	1	1	1	1	1	0	1	-3,523608	274,385611	317,863455	0
15.01.2021	10:30:06	0	30,701235	2,620316	3,03675	11,7	0,196	88,976	0	1014,42	7	8,8	8,7	1	1	1	1	1	1	1	1	1	0	1	-8,386187	274,353831	312,852005	0
15.01.2021	10:30:07	0	30,584537	3,076021	2,92575	9,7236	0,194	88,943	0	1014,34	7	8,8	8,7	1	1	1	1	1	1	1	1	1	0	1	-6,976744	274,387126	314,417416	0
15.01.2021	10:30:08	0	31,051513	4,329213	2,742	354,2796	0,196	88,948	0	1014,38	7	8,8	8,7	1	1	1	1	1	1	1	1	1	0	1	-8,033827	274,30098	312,956906	0
15.01.2021	10:30:09	0	30,81808	3,076018	2,5275	356,544	0,2	88,964	0	1014,46	7	8,8	8,7	1	1	1	1	1	1	1	1	1	0	1	-2,889359	274,213715	317,693097	0
15.01.2021	10:30:10	0	31,051588	3,64567	2,46375	7,4988	0,197	88,968	0	1014,48	7	8,8	8,6	1	1	1	1	1	1	1	1	1	0	1	-5,355884	274,257298	315,43043	0
15.01.2021	10:30:11	0	30,818154	4,670984	2,427	3,3768	0,198	88,963	0	1014,46	7	8,8	8,7	1	1	1	1	1	1	1	1	1	0	1	-8,386187	274,367445	312,915771	0
15.01.2021	10:30:12	0	30,701456	3,759571	2,4645	6,4296	0,195	88,961	0	1014,44	7	8,8	8,7	1	1	1	1	1	1	1	1	1	0	1	-6,483439	274,222724	314,141149	0
15.01.2021	10:30:13	0	30,818228	4,784905	2,44425	360	0,201	88,971	0	1014,5	7	8,8	8,7	1	1	1	1	1	1	1	1	1	0	1	-7,892882	274,341738	313,288676	0
15.01.2021	10:30:14	0	30,818265	3,076009	2,3445	359,1108	0,199	88,977	0	1014,44	7	8,8	8,7	1	1	1	1	1	1	1	1	1	0	1	-10,007047	274,382582	311,365825	0
15.01.2021	10:30:15	0	31,051774	3,645638	2,29875	6,4296	0,199	88,973	0	1014,38	7	8,8	8,7	1	1	1	1	1	1	1	1	1	0	1	-8,245243	274,314556	312,809044	0
15.01.2021	10:30:16	0	31,051811	3,303857	2,3085	359,748	0,193	88,973	0	1014,38	7	8,8	8,7	1	1	1	1	1	1	1	1	1	0	1	-7,117689	274,384097	314,262279	0
15.01.2021	10:30:17	0	31,168585	4,557042	2,33325	5,2056	0,193	88,973	0	1014,46	7	8,8	8,7	1	1	1	1	1	1	1	1	1	0	1	-3,735025	274,384097	317,644943	0
15.01.2021	10:30:18	0	30,58494	4,443114	2,3685	19,5264	0,197	88,975	0	1014,44	7	8,8	8,7	1	1	1	1	1	1	1	1	1	0	1	-9,866103	274,285906	311,054078	0
15.01.2021	10:30:19	0	30,81845	4,670963	2,1915	330,768	0,194	88,989	0	1014,38	7	8,8	8,7	1	1	1	1	1	1	1	1	1	0	1	-2,536998	274,221223	318,080566	0
15.01.2021	10:30:20	0	31,168697	2,962072	2,35425	339,9048	0,196	88,989	0	1014,46	7	8,8	8,7	1	1	1	1	1	1	1	1	1	0	1	-7,540521	274,291934	313,407872	0
15.01.2021	10:30:21	0	31,051997	4,670957	2,6265	354,6684	0,203	88,992	0	1014,38	7	8,8	8,7	1	1	1	1	1	1	1	1	1	0	1	-7,117689	274,396216	314,319065	0
15.01.2021	10:30:22	0	30,935298	4,443103	2,754	353,5668	0,198	88,986	0	1014,32	7	8,8	8,7	1	1	1	1	1	1	1	1	1	0	1	-7,470049	274,297964	313,506568	0
15.01.2021	10:30:23	0	30,818598	5,126655	2,7435	350,2584	0,202	88,989	0	1014,36	7	8,8	8,7	1	1	1	1	1	1	1	1	1	0	1	-1,973221	274,227231	318,672442	0
15.01.2021	10:30:24	0	31,052109	3,075991	2,40525	333,504	0,196	88,99	0	1014,26	7	8,8	8,7	1	1	1	1	1	1	1	1	1	0	1	-5,567301	274,341738	315,614257	0
15.01.2021	10:30:25	0	31,168884	2,620287	2,235	345,6828	0,198	88,998	0	1014,4	7	8,8	8,7	1	1	1	1	1	1	1	1	1	0	1	-10,852713	274,260308	309,947681	0
15.01.2021	10:30:26	0	30,818708	4,329168	2,25225	350,586	0,198	89,003	0	1014,48	7	8,8	8,7	1	1	1	1	1	1	1	1	1	0	1	-8,315715	274,393186	313,106838	0
15.01.2021	10:30:27	0	31,052221	3,759538	2,136	353,1384	0,192	88,969	0	1014,3	7	8,8	8,7	1	1	1	1	1	1	1	1	1	0	1	-3,805497	274,30098	317,185236	0
15.01.2021	10:30:28	0	30,702044	2,506372	2,06175	351,0648	0,201	88,988	0	1014,34	7	8,8	8,6	1	1	1	1	1	1	1	1	1	0	1	-6,8358	274,390156	314,572555	0
15.01.2021	10:30:29	0	31,169033	5,012712	2,0625	355,41	0,2	89	0	1014,4	7	8,8	8,7	1	1	1	1	1	1	1	1	1	0	1	-2,818887	274,311538	318,221273	0
15.01.2021	10:30:30	0	30,702118	2,506354	2,0445	354,96	0,2	88,992	0	1014,46	7	8,8	8,7	1	1	1	1	1	1	1	1	1	0	1	-9,020437	274,397732	312,423418	0
15.01.2021	10:30:31	0	31,052369	2,962054	2,0355	352,4616	0,195	88,988	0	1014,3	7	8,8	8,7	1	1	1	1	1	1	1	1	1	0	1	-3,735025	274,293441	317,220424	0
15.01.2021	10:30:32	0	30,81893	2,734202	2,05425	355,356	0,201	88,99	0	1014,36	7	8,8	8,7	1	1	1	1	1	1	1	1	1	0	1	-9,584214	274,230235	311,075502	0
15.01.2021	10:30:33	0	30,818967	2,7342	2,232	347,544	0,199	88,995	0	1014,38	7	8,8	8,7	1	1	1	1	1	1	1	1	1	0	1	-5,919662	274,281386	314,979366	0
15.01.2021	10:30:34	0	31,052481	3,759523	2,36625	348,246	0,198	88,998	0	1014,32	7	8,8	8,7	1	1	1	1	1	1	1	1	1	0	1	-0,775194	274,224226	319,856418	0
15.01.2021	10:30:35	0	31,052518	4,556995	2,5995	342,702	0,194	88,992	0	1014,48	7	8,8	8,7	1	1	1	1	1	1	1	1	1	0	1	-6,976744	274,340227	314,197738	0
15.01.2021	10:30:36	0	30,819077	2,506346	2,88	352,7568	0,202	88,996	0	1014,34	7	8,8	8,7	1	1	1	1	1	1	1	1	1	0	1	-5,355884	274,222724	315,268703	0
15.01.2021	10:30:37	0	31,28607	3,189893	2,83575	352,4688	0,198	88,98	0	1014,4	7	8,8	8,7	1	1	1	1	1	1	1	1	1	0	1	-5,990134	274,231738	314,67661	0
15.01.2021	10:30:38	0	31,052629	2,734192	2,7705	3,3804	0,2	88,994	0	1014,48	7	8,8	8,7	1	1	1	1	1	1	1	1	1	0	1	-12,614517	274,242259	308,101438	0
15.01.2021	10:30:39	0	30,819188	3,987361	2,583	360	0,2	89,008	0	1014,54	7	8,8	8,7	1	1	1	1	1	1	1	1	1	0	1	-7,751938	274,393186	313,670615	0
15.01.2021	10:30:40	0	30,819225	3,645585	2,40075	357,2964	0,204	89,005	0	1014,44	7	8,8	8,7	1	1	1	1	1	1	1	1	1	0	1	-6,906272	274,394701	314,523381	0
15.01.2021	10:30:41	0	31,052741	3,759508	2,34225	360	0,201	89	0	1014,46	7	8,8	8,7	1	1	1	1	1	1	1	1	1	0	1	-2,536998	274,305504	318,474914	0
15.01.2021	10:30:42	0	30,936038	3,303808	2,364	356,4432	0,199	88,991	0	1014,28	7	8,8	8,7	1	1	1	1	1	1	1	1	1	0	1	-4,439746	274,381068	316,926032	0
15.01.2021	10:30:43	0	30,469115	2,734184	2,688	0,8676	0,197	88,99	0	1014,36	7	8,8	8,7	1	1	1	1	1	1	1	1	1	0	1	-3,946441	274,343249	317,242194	0
15.01.2021	10:30:44	0	30,819372	4,443047	2,988	355,0752	0,201	89,002	0	1014,46	7	8,8	8,7	1	1	1	1	1	1	1	1	1	0	1	-1,973221	274,215217	318,616256	0
15.01.2021	10:30:45	0	31,169629	3,075954	3,1545	359,4456	0,194	88,979	0	1014,38	7	8,8	8,7	1	1	1	1	1	1	1	1	1	0	1	-7,963354	274,261812	312,844081	0
15.01.2021	10:30:46	0	30,936186	4,215194	3,48075	359,7804	0,208	88,999	0	1014,44	7	8,8	8,7	1	1	1	1	1	1	1	1	1	0	1	-7,751938	274,34476	313,443775	0
15.01.2021	10:30:47	0	30,819482	3,873419	3,81525	8,262	0,217	88,986	0	1014,42	7	8,8	8,7	1	1	1	1	1	1	1	1	1	0	1	-8,45666	274,215217	312,132817	0
15.01.2021	10:30:48	0	30,819519	2,734177	3,83625	2,2824	0,203	88,997	0	1014,42	7	8,8	8,7	1	1	1	1	1	1	1	1	1	0	1	-5,708245	274,251281	315,049918	0
15.01.2021	10:30:49	0	31,286519	4,784806	3,876	3,0132	0,202	88,996	0	1014,42	7	8,8	8,7	1	1	1	1	1	1	1	1	1	0	1	-6,20155	274,361393	315,072061	0
15.01.2021	10:30:50	0	31,286556	3,531641	3,76275	356,9076	0,201	88,998	0	1014,36	7	8,8	8,7	1	1	1	1	1	1	1	1	1	0	1	-5,496829	274,275361	315,374005	0
15.01.2021	10:30:51	0	30,702889	3,759486	3,73575	360	0,199	88,982	0	1014,48	7	8,8	8,7	1	1	1	1	1	1	1	1	1	0	1	-5,637773	274,406827	315,848703	0
15.01.2021	10:30:52	0	30,819667	2,848094	3,51	349,8372	0,201	89,001	0	1014,42	7	8,8	8,7	1	1	1	1	1	1	1	1	1	0	1	-4,087385	274,267833	316,74822	0
15.01.2021	10:30:53	0	30,936445	3,645558	3,375	349,3944	0,197	89,012	0	1014,5	7	8,8	8,7	1	1	1	1	1	1	1	1	1	0	1	-5,003524	274,234743	315,677277	0
15.01.2021	10:30:54	0	30,936482	5,126563	3,285	0,4824	0,192	88,998	0	1014,36	7	8,8	8,7	1	1	1	1	1	1	1	1	1	0	1	-4,580691	273,975014	314,886961	0
15.01.2021	10:30:55	0	30,936519	4,670866	3,35025	7,1064	0,2	89,002	0	1014,38	7	8,8	8,7	1	1	1	1	1	1	1	1	1	0	1	-6,272023	274,384097	315,107945	0
15.01.2021	10:30:56	0	31,170039	4,215169	3,375	352,0296	0,204	89,007	0	1014,42	7	8,8	8,7	1	1	1	1	1	1	1	1	1	0	1	-5,567301	274,341738	315,614257	0
15.01.2021	10:30:57	0	30,703109	3,64555	3,1605	356,5476	0,202	89,006	0	1014,42	7	8,8	8,7	1	1	1	1	1	1	1	1	1	0	1	-4,721635	274,225728	315,917002	0
15.01.2021	10:30:58	0	30,703145	2,962025	3,105	357,3432	0,196	88,992	0	1014,4	7	8,8	8,6	1	1	1	1	1	1	1	1	1	0	1	-9,161381	274,276867	311,7165	0
15.01.2021	10:30:59	0	30,58644	4,215162	3,02325	358,3224	0,203	89,011	0	1014,36	7	8,8	8,7	1	1	1	1	1	1	1	1	1	0	1	-8,033827	274,41441	313,488186	0
15.01.2021	10:31:00	0	30,819998	4,556927	2,8755	348,2964	0,201	88,998	0	1014,34	7	8,8	8,7	1	1	1	1	1	1	1	1	1	0	1	-3,805497	274,356855	317,446861	0
15.01.2021	10:31:01	0	30,819998	4,556927	2,8755	348,2964	0,201	88,998	0	1014,34	7	8,8	8,7	1	1	1	1	1	1	1	1	1	0	1	-3,664553	274,397732	317,779302	0
15.01.2021	10:31:02	0	31,287005	3,189847	2,76975	354,618	0,197	88,989	0	1014,44	7	8,8	8,7	1	1	1	1	1	1	1	1	1	0	1	-6,060606	274,353831	315,177587	0
15.01.2021	10:31:03	0	31,053557	3,75946	2,69025	2,4048	0,198	88,996	0	1014,44	7	8,8	8,7	1	1	1	1	1	1	1	1	1	0	1	-6,412967	274,215217	314,176509	0
15.01.2021	10:31:04	0	31,170336	2,734151	2,73525	6,4188	0,201	88,998	0	1014,38	7	8,8	8,7	1	1	1	1	1	1	1	1	1	0	1	-3,875969	274,305504	317,135943	0
15.01.2021	10:31:05	0	30,703402	3,873379	2,7945	13,536	0,205	89,005	0	1014,58	7	8,8	8,7	1	1	1	1	1	1	1	1	1	0	1	-7,329105	274,237749	313,365756	0
15.01.2021	10:31:06	0	30,936925	3,417685	2,763	3,3876	0,198	89,006	0	1014,48	7	8,8	8,7	1	1	1	1	1	1	1	1	1	0	1	-6,412967	274,284399	314,500162	0
15.01.2021	10:31:07	0	30,586732	3,189838	2,75925	1,5552	0,209	89,009	0	1014,5	7	8,8	8,7	1	1	1	1	1	1	1	1	1	0	1	-3,946441	274,243762	316,776547	0
15.01.2021	10:31:08	0	31,170485	5,354368	2,841	355,3848	0,202	88,996	0	1014,54	7	8,8	8,7	1	1	1	1	1	1	1	1	1	0	1	-7,681466	274,394701	313,748187	0
15.01.2021	10:31:09	0	31,053779	3,645525	2,94225	353,934	0,204	88,986	0	1014,34	7	8,8	8,7	1	1	1	1	1	1	1	1	1	0	1	-4,792107	274,28892	316,142179	0
15.01.2021	10:31:10	0	30,937072	2,392374	2,952	352,7424	0,203	88,985	0	1014,34	7	8,8	8,7	1	1	1	1	1	1	1	1	1	0	1	-3,312192	274,248273	317,4319	0
15.01.2021	10:31:11	0	31,053853	4,898668	2,96025	360	0,205	89,002	0	1014,36	7	8,8	8,7	1	1	1	1	1	1	1	1	1	0	1	-8,174771	274,266328	312,653791	0
15.01.2021	10:31:12	0	30,820402	2,734139	2,98425	0	0,197	88,998	0	1014,3	7	8,8	8,7	1	1	1	1	1	1	1	1	1	0	1	-4,087385	274,37804	317,264206	0
15.01.2021	10:31:13	0	30,703694	3,075904	3,14325	359,5284	0,205	88,999	0	1014,5	7	8,8	8,7	1	1	1	1	1	1	1	1	1	0	1	-5,778717	274,314556	315,27557	0
15.01.2021	10:31:14	0	30,93722	3,189825	3,387	353,9088	0,206	89,01	0	1014,5	7	8,8	8,7	1	1	1	1	1	1	1	1	1	0	1	-6,131078	274,221223	314,486486	0
15.01.2021	10:31:15	0	31,054001	3,53159	3,50625	349,938	0,202	89,021	0	1014,4	7	8,8	8,7	1	1	1	1	1	1	1	1	1	0	1	-6,342495	274,337205	314,817837	0
15.01.2021	10:31:16	0	30,937293	3,873355	3,45075	342,4824	0,205	89,006	0	1014,38	7	8,8	8,7	1	1	1	1	1	1	1	1	1	0	1	-4,510218	274,402279	316,954944	0
15.01.2021	10:31:17	0	31,054075	4,101197	3,3825	353,898	0,203	88,988	0	1014,36	7	8,8	8,7	1	1	1	1	1	1	1	1	1	0	1	-6,624383	274,28892	314,309902	0
15.01.2021	10:31:18	0	30,703877	4,670805	3,4185	2,2896	0,2	89,013	0	1014,38	7	8,8	8,7	1	1	1	1	1	1	1	1	1	0	1	-7,329105	274,403795	314,143161	0
15.01.2021	10:31:19	0	30,587169	3,873348	3,62175	360	0,205	89,018	0	1014,5	7	8,8	8,7	1	1	1	1	1	1	1	1	1	0	1	-5,990134	274,381068	315,375644	0
15.01.2021	10:31:20	0	31,054186	4,784721	3,8595	355,4208	0,201	89,006	0	1014,34	7	8,8	8,7	1	1	1	1	1	1	1	1	1	0	1	-10,077519	274,393186	311,345033	0
15.01.2021	10:31:21	0	30,703987	4,670796	4,0935	4,8384	0,203	89,013	0	1014,44	7	8,8	8,7	1	1	1	1	1	1	1	1	1	0	1	-7,047216	274,326632	314,063609	0
15.01.2021	10:31:22	0	30,937514	4,556872	4,16325	5,1948	0,203	89,004	0	1014,38	7	8,8	8,7	1	1	1	1	1	1	1	1	1	0	1	-6,060606	274,412893	315,454298	0
15.01.2021	10:31:23	0	30,820806	3,759417	4,2915	357,588	0,194	88,99	0	1014,38	7	8,8	8,7	1	1	1	1	1	1	1	1	1	0	1	-8,245243	274,252785	312,519957	0
15.01.2021	10:31:24	0	30,937588	4,78471	4,21275	1,5408	0,208	89,011	0	1014,36	7	8,8	8,7	1	1	1	1	1	1	1	1	1	0	1	-5,355884	274,245266	315,374138	0
15.01.2021	10:31:25	0	31,171116	4,329021	4,03875	16,0992	0,204	89,012	0	1014,4	7	8,8	8,7	1	1	1	1	1	1	1	1	1	0	1	-3,735025	274,281386	317,164003	0
15.01.2021	10:31:26	0	30,587424	3,303725	3,663	13,896	0,205	89,007	0	1014,28	7	8,8	8,7	1	1	1	1	1	1	1	1	1	0	1	-7,188161	274,376526	314,156338	0
15.01.2021	10:31:27	0	30,820952	2,620194	3,798	7,1244	0,206	89,005	0	1014,38	7	8,8	8,7	1	1	1	1	1	1	1	1	1	0	1	-7,047216	274,394701	314,382436	0
15.01.2021	10:31:28	0	30,820989	2,961957	3,60525	27,2736	0,206	89,013	0	1014,48	7	8,8	8,7	1	1	1	1	1	1	1	1	1	0	1	-8,879493	274,323613	312,217194	0
15.01.2021	10:31:29	0	30,937772	4,556854	3,37425	6,9084	0,208	88,989	0	1014,56	7	8,8	8,7	1	1	1	1	1	1	1	1	1	0	1	-5,21494	274,243762	315,508048	0
15.01.2021	10:31:30	0	30,587569	4,44293	3,0765	15,3864	0,205	88,986	0	1014,4	7	8,8	8,7	1	1	1	1	1	1	1	1	1	0	1	-6,765328	274,290427	314,176012	0
15.01.2021	10:31:31	0	30,587606	2,84803	3,0735	14,2884	0,208	88,986	0	1014,44	7	8,8	8,7	1	1	1	1	1	1	1	1	1	0	1	-12,544045	274,234743	308,136756	0
15.01.2021	10:31:32	0	30,937882	4,670767	2,92125	12,4704	0,205	88,975	0	1014,48	7	8,8	8,7	1	1	1	1	1	1	1	1	1	0	1	-7,047216	274,347783	314,162654	0
15.01.2021	10:31:33	0	30,704425	2,620185	2,6685	356,6196	0,202	88,993	0	1014,52	7	8,8	8,7	1	1	1	1	1	1	1	1	1	0	1	-10,500352	274,394701	310,9293	0
15.01.2021	10:31:34	0	30,704462	5,012525	2,448	1,908	0,206	88,983	0	1014,5	7	8,8	8,7	1	1	1	1	1	1	1	1	1	0	1	-6,272023	274,325122	314,831733	0
15.01.2021	10:31:35	0	30,587751	4,898601	2,39175	349,1064	0,199	88,994	0	1014,54	7	8,8	8,7	1	1	1	1	1	1	1	1	1	0	1	-3,664553	274,237749	317,030308	0
15.01.2021	10:31:36	0	31,054777	3,075864	2,358	1,17	0,201	88,978	0	1014,4	7	8,8	8,7	1	1	1	1	1	1	1	1	1	0	1	-5,567301	274,341738	315,614257	0
15.01.2021	10:31:37	0	30,587824	4,670754	2,40825	348,2748	0,206	88,973	0	1014,44	7	8,8	8,7	1	1	1	1	1	1	1	1	1	0	1	-10,288936	274,40986	311,211753	0
15.01.2021	10:31:38	0	30,704608	4,784672	2,382	360	0,195	88,972	0	1014,54	7	8,8	8,7	1	1	1	1	1	1	1	1	1	0	1	-4,016913	274,337205	317,143418	0
15.01.2021	10:31:39	0	30,821392	2,164493	2,33775	358,4016	0,205	88,978	0	1014,5	7	8,8	8,7	1	1	1	1	1	1	1	1	1	0	1	-6,20155	274,399247	315,249406	0
15.01.2021	10:31:40	0	30,821429	4,670774	2,352	356,1588	0,198	88,973	0	1014,4	7	8,8	8,6	1	1	1	1	1	1	1	1	1	0	1	-7,681466	274,282893	313,224612	0
15.01.2021	10:31:41	0	30,704717	4,670743	2,39625	10,0476	0,194	88,969	0	1014,34	7	8,8	8,7	1	1	1	1	1	1	1	1	1	0	1	-7,399577	274,236246	313,288253	0
15.01.2021	10:31:42	0	30,704754	3,189774	2,46975	355,3452	0,205	88,964	0	1014,4	7	8,8	8,7	1	1	1	1	1	1	1	1	1	0	1	-5,708245	274,303996	315,296606	0
15.01.2021	10:31:43	0	30,70479	3,531555	2,5065	355,014	0,203	88,95	0	1014,18	7	8,8	8,6	1	1	1	1	1	1	1	1	1	0	1	-4,933051	274,400763	316,525007	0
15.01.2021	10:31:44	0	30,938323	4,442894	2,44725	353,6244	0,2	88,983	0	1014,34	7	8,8	8,7	1	1	1	1	1	1	1	1	1	0	1	-8,597604	274,269338	312,245046	0
15.01.2021	10:31:45	0	30,93836	3,87329	2,157	359,0748	0,2	88,968	0	1014,2	7	8,8	8,7	1	1	1	1	1	1	1	1	1	0	1	-9,302326	274,361393	311,971286	0
15.01.2021	10:31:46	0	30,7049	4,8986	1,986	2,286	0,208	88,972	0	1014,44	7	8,8	8,6	1	1	1	1	1	1	1	1	1	0	1	-3,523608	274,267833	317,311998	0
15.01.2021	10:31:47	0	30,704936	3,987206	1,92975	10,44	0,2	88,989	0	1014,48	7	8,8	8,7	1	1	1	1	1	1	1	1	1	0	1	-7,470049	274,361393	313,803562	0
15.01.2021	10:31:48	0	30,354726	2,734083	2,25975	2,6208	0,205	88,986	0	1014,5	7	8,8	8,7	1	1	1	1	1	1	1	1	1	0	1	-4,862579	274,227231	315,783084	0
15.01.2021	10:31:49	0	30,821758	4,898562	2,77725	2,6424	0,199	88,974	0	1014,38	7	8,8	8,7	1	1	1	1	1	1	1	1	1	0	1	-8,386187	274,40986	313,114501	0
15.01.2021	10:31:50	0	30,471547	4,328959	3,09675	4,842	0,206	88,97	0	1014,36	7	8,8	8,7	1	1	1	1	1	1	1	1	1	0	1	-8,527132	274,343249	312,661503	0
15.01.2021	10:31:51	0	30,705082	2,847998	3,2295	0,8712	0,206	88,968	0	1014,58	7	8,8	8,7	1	1	1	1	1	1	1	1	1	0	1	-8,879493	274,388641	312,521765	0
15.01.2021	10:31:52	0	31,172116	5,126393	3,111	358,3224	0,203	88,957	0	1014,44	7	8,8	8,7	1	1	1	1	1	1	1	1	1	0	1	-4,792107	274,328142	316,325788	0
15.01.2021	10:31:53	0	30,588405	4,442871	3,08925	6,4332	0,201	88,961	0	1014,5	7	8,8	8,7	1	1	1	1	1	1	1	1	1	0	1	-7,399577	274,393186	314,022976	0
15.01.2021	10:31:54	0	30,354942	4,328949	3,0165	4,0788	0,205	88,972	0	1014,46	7	8,8	8,7	1	1	1	1	1	1	1	1	1	0	1	-9,725159	274,329652	311,399808	0
15.01.2021	10:31:55	0	30,471728	4,215027	2,96775	10,4256	0,204	88,987	0	1014,44	7	8,8	8,7	1	1	1	1	1	1	1	1	1	0	1	-4,933051	274,405311	316,546319	0
15.01.2021	10:31:56	0	30,822014	4,670703	2,79975	17,6904	0,207	88,975	0	1014,46	7	8,8	8,7	1	1	1	1	1	1	1	1	1	0	1	-8,597604	274,364419	312,690179	0
15.01.2021	10:31:57	0	30,4718	3,645447	2,6595	9,756	0,201	88,98	0	1014,44	7	8,8	8,6	1	1	1	1	1	1	1	1	1	0	1	-7,963354	274,287413	312,963878	0
15.01.2021	10:31:58	0	30,822087	3,987181	2,48775	12,9348	0,201	88,975	0	1014,46	7	8,8	8,7	1	1	1	1	1	1	1	1	1	0	1	-10,923185	274,245266	309,806837	0
15.01.2021	10:31:59	0	30,471872	4,784614	2,34225	8,9856	0,204	88,984	0	1014,54	7	8,8	8,7	1	1	1	1	1	1	1	1	1	0	1	-4,933051	274,396216	316,503702	0
15.01.2021	10:32:00	0	30,588695	3,873278	2,53425	7,506	0,209	88,988	0	1014,52	7	8,8	8,6	1	1	1	1	1	1	1	1	1	0	1	-10,711769	274,373498	310,618547	0
15.01.2021	10:32:01	0	30,588695	3,873278	2,53425	7,506	0,209	88,988	0	1014,52	7	8,8	8,6	1	1	1	1	1	1	1	1	1	0	1	-6,20155	274,255794	314,577726	0
15.01.2021	10:32:02	0	30,588731	3,645436	2,60925	14,3028	0,209	88,99	0	1014,52	7	8,8	8,6	1	1	1	1	1	1	1	1	1	0	1	-3,171247	274,415927	318,357874	0
15.01.2021	10:32:03	0	30,705519	2,961897	2,8305	7,4988	0,205	88,983	0	1014,42	7	8,8	8,7	1	1	1	1	1	1	1	1	1	0	1	-2,959831	274,30098	318,030902	0
15.01.2021	10:32:04	0	30,472053	4,215031	3,123	8,9892	0,206	88,975	0	1014,44	7	8,8	8,6	1	1	1	1	1	1	1	1	1	0	1	-8,315715	274,41441	313,206297	0
15.01.2021	10:32:05	0	30,355338	3,075813	3,27075	22,176	0,2	88,974	0	1014,4	7	8,8	8,7	1	1	1	1	1	1	1	1	1	0	1	-9,090909	274,269338	311,751741	0
15.01.2021	10:32:06	0	30,939131	4,670704	3,19125	10,4328	0,208	88,991	0	1014,46	7	8,8	8,6	1	1	1	1	1	1	1	1	1	0	1	-8,104299	274,387126	313,289861	0
15.01.2021	10:32:07	0	30,472161	4,556755	3,261	4,8312	0,2	88,992	0	1014,52	7	8,8	8,7	1	1	1	1	1	1	1	1	1	0	1	-8,45666	274,27988	312,435319	0
15.01.2021	10:32:08	0	30,472197	3,303665	3,15	0,8748	0,208	89,001	0	1014,64	7	8,8	8,6	1	1	1	1	1	1	1	1	1	0	1	-5,073996	274,237749	315,620865	0
15.01.2021	10:32:09	0	30,588771	3,759341	3,17925	17,7048	0,2	88,992	0	1014,34	7	8,9	8,6	1	1	1	1	1	1	1	1	1	0	1	-5,426357	274,356855	315,826002	0
15.01.2021	10:32:10	0	30,472269	3,645398	3,4815	7,128	0,209	88,993	0	1014,48	7	8,8	8,7	1	1	1	1	1	1	1	1	1	0	1	-2,889359	274,393186	318,533194	0
15.01.2021	10:32:11	0	30,70581	4,442826	3,6285	3,762	0,204	89	0	1014,54	7	8,8	8,7	1	1	1	1	1	1	1	1	1	0	1	-6,976744	274,269338	313,865906	0
15.01.2021	10:32:12	0	30,472341	3,987149	3,5055	7,5204	0,207	88,995	0	1014,46	7	8,8	8,7	1	1	1	1	1	1	1	1	1	0	1	-9,725159	274,355343	311,520117	0
15.01.2021	10:32:13	0	30,472378	4,556739	3,74475	360	0,206	88,986	0	1014,28	7	8,8	8,7	1	1	1	1	1	1	1	1	1	0	1	-4,792107	274,227231	315,853556	0
15.01.2021	10:32:14	0	30,706134	5,468084	3,9375	1,5372	0,207	88,974	0	1014,48	7	8,7	8,7	1	1	1	1	1	1	1	1	1	0	1	-9,44327	274,276867	311,434611	0
15.01.2021	10:32:15	0	30,472663	5,012347	4,065	7,488	0,206	88,987	0	1014,44	7	8,7	8,9	1	1	1	1	1	1	1	1	1	0	1	-7,047216	274,412893	314,467687	0
15.01.2021	10:32:16	0	30,705991	2,734055	4,34475	7,1028	0,206	88,972	0	1014,44	7	8,8	8,6	1	1	1	1	1	1	1	1	1	0	1	-6,060606	274,284399	314,852523	0
15.01.2021	10:32:17	0	30,706028	3,759301	4,347	3,024	0,214	88,978	0	1014,34	7	8,8	8,7	1	1	1	1	1	1	1	1	1	0	1	-4,439746	274,397732	317,004108	0
15.01.2021	10:32:18	0	30,472558	3,417545	4,00875	11,7036	0,207	88,994	0	1014,5	7	8,8	8,7	1	1	1	1	1	1	1	1	1	0	1	-8,45666	274,343249	312,731976	0
15.01.2021	10:32:19	0	30,355841	3,531461	3,73725	5,6808	0,206	88,963	0	1014,48	7	8,8	8,7	1	1	1	1	1	1	1	1	1	0	1	-9,513742	274,237749	311,181119	0
15.01.2021	10:32:20	0	30,47263	2,164443	3,6105	3,7512	0,21	88,975	0	1014,48	7	8,8	8,7	1	1	1	1	1	1	1	1	1	0	1	-9,584214	274,261812	311,223221	0
15.01.2021	10:32:21	0	30,239159	3,987129	3,717	10,0476	0,209	88,982	0	1014,52	7	8,8	8,7	1	1	1	1	1	1	1	1	1	0	1	-8,949965	274,261812	311,857471	0
15.01.2021	10:32:22	0	30,239195	2,96183	3,85575	4,0788	0,205	88,969	0	1014,26	7	8,8	8,9	1	1	1	1	1	1	1	1	1	0	1	-10,147992	274,40986	311,352697	0
15.01.2021	10:32:23	0	30,589492	4,784578	3,7605	8,262	0,207	88,963	0	1014,44	7	8,8	8,6	1	1	1	1	1	1	1	1	1	0	1	-9,584214	274,341738	311,597344	0
15.01.2021	10:32:24	0	30,122512	3,07578	3,63975	6,4404	0,207	88,975	0	1014,4	7	8,8	8,7	1	1	1	1	1	1	1	1	1	0	1	-3,523608	274,273855	317,340179	0
15.01.2021	10:32:25	0	30,47281	3,417552	3,69825	12,8664	0,205	88,964	0	1014,44	7	8,8	8,6	1	1	1	1	1	1	1	1	1	0	1	-4,22833	274,370471	317,087806	0
15.01.2021	10:32:26	0	30,122583	3,531447	3,6105	13,9212	0,206	88,981	0	1014,14	7	8,8	8,7	1	1	1	1	1	1	1	1	1	0	1	-8,949965	274,296456	312,019595	0
15.01.2021	10:32:27	0	30,239585	2,734022	3,5445	15,0192	0,208	88,969	0	1014,52	7	8,7	8,7	1	1	1	1	1	1	1	1	1	0	1	-10,359408	274,212214	310,216028	0
15.01.2021	10:32:28	0	30,706427	4,5567	3,4815	16,8408	0,207	88,957	0	1014,38	7	8,8	8,7	1	1	1	1	1	1	1	1	1	0	1	-10,500352	274,31003	310,532744	0
15.01.2021	10:32:29	0	30,239445	4,101053	3,432	12,8484	0,204	88,96	0	1014,4	7	8,8	8,6	1	1	1	1	1	1	1	1	1	0	1	-12,332629	274,406827	309,153847	0
15.01.2021	10:32:30	0	30,005761	3,075788	3,15	13,158	0,205	88,985	0	1014,52	7	8,9	8,6	1	1	1	1	1	1	1	1	1	0	1	-8,033827	274,305504	312,978085	0
15.01.2021	10:32:31	0	30,122761	2,84795	3,264	10,818	0,21	88,978	0	1014,42	7	8,8	8,6	1	1	1	1	1	1	1	1	1	0	1	-7,610994	274,243762	313,111995	0
15.01.2021	10:32:32	0	30,239552	5,126307	3,3645	13,9068	0,206	88,951	0	1014,4	7	8,8	8,6	1	1	1	1	1	1	1	1	1	0	1	-8,738548	274,368958	312,570498	0
15.01.2021	10:32:33	0	30,122833	4,328853	3,255	9,3528	0,206	88,953	0	1014,46	7	8,8	8,7	1	1	1	1	1	1	1	1	1	0	1	-4,933051	274,343249	316,255584	0
15.01.2021	10:32:34	0	30,122868	4,328877	3,12375	0,8676	0,206	88,974	0	1014,42	7	8,8	8,6	1	1	1	1	1	1	1	1	1	0	1	-1,057082	274,231738	319,609661	0
15.01.2021	10:32:35	0	30,122904	3,189678	2,8965	1,5264	0,203	88,976	0	1014,44	7	8,8	8,7	1	1	1	1	1	1	1	1	1	0	1	-6,412967	274,254289	314,359271	0
15.01.2021	10:32:36	0	29,889428	4,214929	2,7855	6,8184	0,21	88,972	0	1014,5	7	8,8	8,7	1	1	1	1	1	1	1	1	1	0	1	-9,302326	274,397732	312,141529	0
15.01.2021	10:32:37	0	29,889463	3,303591	2,79975	360	0,205	88,944	0	1014,4	7	8,8	8,7	1	1	1	1	1	1	1	1	1	0	1	-4,862579	274,267833	315,973027	0
15.01.2021	10:32:38	0	30,006255	2,734005	2,6505	358,7976	0,207	88,949	0	1014,4	7	8,8	8,7	1	1	1	1	1	1	1	1	1	0	1	-3,735025	274,27988	317,156954	0
15.01.2021	10:32:39	0	30,473101	3,987112	2,47275	349,8732	0,198	88,949	0	1014,4	7	8,9	8,6	1	1	1	1	1	1	1	1	1	0	1	-13,03735	274,412893	308,477554	0
15.01.2021	10:32:40	0	30,123082	4,101002	2,33025	0,1188	0,208	88,958	0	1014,42	7	8,8	8,7	1	1	1	1	1	1	1	1	1	0	1	-7,82241	274,258803	312,970944	0
15.01.2021	10:32:41	0	30,006361	4,328833	2,322	351,234	0,198	88,954	0	1014,4	7	8,8	8,7	1	1	1	1	1	1	1	1	1	0	1	-6,906272	274,246769	313,830784	0
15.01.2021	10:32:42	0	30,356665	4,328857	2,27625	357,5592	0,202	88,957	0	1014,42	7	8,8	8,6	1	1	1	1	1	1	1	1	1	0	1	-3,735025	274,314556	317,319262	0
15.01.2021	10:32:43	0	29,889675	3,759246	2,1705	358,7184	0,209	88,949	0	1014,66	7	8,8	8,7	1	1	1	1	1	1	1	1	1	0	1	-1,409443	274,258803	319,383911	0
15.01.2021	10:32:44	0	29,772954	3,759244	2,09025	0,8568	0,2	88,952	0	1014,46	7	8,8	8,7	1	1	1	1	1	1	1	1	1	0	1	-5,919662	274,242259	314,796294	0
15.01.2021	10:32:45	0	30,006502	3,075743	2,1435	347,598	0,206	88,949	0	1014,5	7	8,8	8,7	1	1	1	1	1	1	1	1	1	0	1	-10,288936	274,242259	310,42702	0
15.01.2021	10:32:46	0	30,473566	4,328847	2,2215	359,4096	0,209	88,952	0	1014,18	7	8,8	8,6	1	1	1	1	1	1	1	1	1	0	1	-3,664553	274,285906	317,255628	0
15.01.2021	10:32:47	0	30,356844	2,506173	2,31375	356,9292	0,204	88,947	0	1014,48	7	8,8	8,6	1	1	1	1	1	1	1	1	1	0	1	-8,949965	274,237749	311,744896	0
15.01.2021	10:32:48	0	30,240123	3,189635	2,37675	1,1448	0,205	88,937	0	1014,4	7	8,8	8,8	1	1	1	1	1	1	1	1	1	0	1	-3,171247	274,257298	317,615067	0
15.01.2021	10:32:49	0	29,773129	4,214923	2,397	2,6352	0,198	88,95	0	1014,48	7	8,8	8,6	1	1	1	1	1	1	1	1	1	0	1	-9,936575	274,297964	311,040042	0
15.01.2021	10:32:50	0	30,240194	4,67056	2,36325	351,8424	0,207	88,949	0	1014,44	7	8,8	8,7	1	1	1	1	1	1	1	1	1	0	1	-7,188161	274,411376	314,319635	0
15.01.2021	10:32:51	0	29,889957	4,784502	2,30775	356,1192	0,21	88,954	0	1014,5	7	8,8	8,6	1	1	1	1	1	1	1	1	1	0	1	-8,315715	274,27988	312,576263	0
15.01.2021	10:32:52	0	30,357023	2,733983	2,37525	0,8676	0,206	88,956	0	1014,38	7	8,8	8,7	1	1	1	1	1	1	1	1	1	0	1	-9,302326	274,397732	312,141529	0
15.01.2021	10:32:53	0	30,357059	3,873164	2,3205	357,2964	0,202	88,951	0	1014,5	7	8,8	8,6	1	1	1	1	1	1	1	1	1	0	1	-12,473573	274,293441	308,481875	0
15.01.2021	10:32:54	0	30,006821	3,531391	2,3835	354,2364	0,203	88,931	0	1014,48	6,9	8,8	8,7	1	1	1	1	1	1	1	1	1	0	1	-8,738548	274,267833	312,097058	0
15.01.2021	10:32:55	0	30,123614	5,012294	2,35725	359,0604	0,205	88,957	0	1014,48	7	8,8	8,7	1	1	1	1	1	1	1	1	1	0	1	-1,902748	274,287413	319,024484	0
15.01.2021	10:32:56	0	29,889924	2,392244	2,3505	2,9952	0,2	88,953	0	1014,46	7	8,9	8,6	1	1	1	1	1	1	1	1	1	0	1	-9,44327	274,403795	312,028996	0
15.01.2021	10:32:57	0	30,123896	2,961807	2,271	359,4708	0,201	88,953	0	1014,4	7	8,7	8,7	1	1	1	1	1	1	1	1	1	0	1	-5,144468	274,394701	316,285185	0
15.01.2021	10:32:58	0	30,123721	2,847906	2,235	360	0,199	88,945	0	1014,4	6,9	8,8	8,6	1	1	1	1	1	1	1	1	1	0	1	-4,439746	274,429584	317,15339	0
15.01.2021	10:32:59	0	30,006998	4,556648	2,361	356,1804	0,201	88,936	0	1014,32	7	8,8	8,6	1	1	1	1	1	1	1	1	1	0	1	-6,8358	274,376526	314,508699	0
15.01.2021	10:33:00	0	29,890309	2,733985	2,4885	350,7732	0,205	88,965	0	1014,58	7	8,8	8,6	1	1	1	1	1	1	1	1	1	0	1	-6,20155	274,239252	314,500341	0
15.01.2021	10:33:01	0	29,890309	2,733985	2,4885	350,7732	0,205	88,965	0	1014,58	7	8,8	8,6	1	1	1	1	1	1	1	1	1	0	1	-6,20155	274,236246	314,48628	0
15.01.2021	10:33:02	0	30,007104	2,961816	2,4495	354,942	0,204	88,959	0	1014,4	7	8,8	8,6	1	1	1	1	1	1	1	1	1	0	1	-9,161381	274,246769	311,575675	0
15.01.2021	10:33:03	0	30,123687	3,64531	2,4075	10,8036	0,202	88,963	0	1014,4	7	8,9	8,6	1	1	1	1	1	1	1	1	1	0	1	-6,694856	274,316065	314,366496	0
15.01.2021	10:33:04	0	30,007174	4,328803	2,5875	359,0064	0,201	88,941	0	1014,46	6,9	8,8	8,6	1	1	1	1	1	1	1	1	1	0	1	-4,369274	274,412893	317,14563	0
15.01.2021	10:33:05	0	30,007209	3,189642	2,64375	357,2928	0,198	88,953	0	1014,32	7	8,8	8,6	1	1	1	1	1	1	1	1	1	0	1	-9,513742	274,305504	311,49817	0
15.01.2021	10:33:06	0	29,890485	4,214882	2,70675	15,3972	0,201	88,964	0	1014,46	7	8,8	8,6	1	1	1	1	1	1	1	1	1	0	1	-9,020437	274,40986	312,480252	0
15.01.2021	10:33:07	0	29,77376	4,78443	2,64825	355,374	0,198	88,955	0	1014,18	7	8,8	8,7	1	1	1	1	1	1	1	1	1	0	1	-7,892882	274,34476	313,30283	0
15.01.2021	10:33:08	0	29,657035	3,987022	2,598	4,8348	0,207	88,965	0	1014,28	7	8,8	8,7	1	1	1	1	1	1	1	1	1	0	1	-4,792107	274,397732	316,651747	0
15.01.2021	10:33:09	0	30,124111	3,075701	2,493	15,7932	0,203	88,963	0	1014,34	7	8,8	8,7	1	1	1	1	1	1	1	1	1	0	1	-7,892882	274,352319	313,338229	0
15.01.2021	10:33:10	0	29,657105	4,100933	2,412	360	0,193	88,972	0	1014,4	7	8,8	8,7	1	1	1	1	1	1	1	1	1	0	1	-5,285412	274,44781	316,393162	0
15.01.2021	10:33:11	0	30,007421	2,961801	2,2995	360	0,202	88,958	0	1014,52	7	8,8	8,6	1	1	1	1	1	1	1	1	1	0	1	-6,20155	274,282893	314,704528	0
15.01.2021	10:33:12	0	29,890696	3,987013	2,2245	357,606	0,207	88,979	0	1014,48	7	8,8	8,7	1	1	1	1	1	1	1	1	1	0	1	-7,540521	274,35988	313,726005	0
15.01.2021	10:33:13	0	29,773971	3,873073	2,157	6,4152	0,198	88,972	0	1014,5	7	8,8	8,8	1	1	1	1	1	1	1	1	1	0	1	-7,188161	274,245266	313,541861	0
15.01.2021	10:33:14	0	29,657245	2,961796	2,04375	5,2092	0,205	88,978	0	1014,56	7	8,8	8,6	1	1	1	1	1	1	1	1	1	0	1	-5,003524	274,287413	315,923709	0
15.01.2021	10:33:15	0	29,774041	3,075672	1,956	3,7512	0,206	88,981	0	1014,28	7	8,8	8,8	1	1	1	1	1	1	1	1	1	0	1	-2,184637	274,23324	318,489135	0
15.01.2021	10:33:16	0	29,774284	4,556604	1,902	8,2656	0,208	88,979	0	1014,46	6,9	8,7	8,6	1	1	1	1	1	1	1	1	1	0	1	-4,298802	274,335694	316,854455	0
15.01.2021	10:33:17	0	29,774111	4,670488	1,971	6,4368	0,205	88,97	0	1014,36	7	8,8	8,7	1	1	1	1	1	1	1	1	1	0	1	-2,818887	274,417444	318,717345	0
15.01.2021	10:33:18	0	29,657384	3,645257	1,893	358,3872	0,207	88,979	0	1014,48	7	8,8	8,7	1	1	1	1	1	1	1	1	1	0	1	-3,030303	274,27235	317,826437	0
15.01.2021	10:33:19	0	29,773972	4,214826	1,9845	358,8336	0,207	88,972	0	1014,38	7	8,9	8,7	1	1	1	1	1	1	1	1	1	0	1	-6,694856	274,255794	314,08442	0
15.01.2021	10:33:20	0	29,890768	3,30353	2,04825	353,8656	0,206	88,995	0	1014,48	6,9	8,9	8,6	1	1	1	1	1	1	1	1	1	0	1	-5,567301	274,251281	315,190862	0
15.01.2021	10:33:21	0	29,423965	3,531358	2,0835	356,6016	0,205	88,972	0	1014,28	7	8,8	8,6	1	1	1	1	1	1	1	1	1	0	1	-2,677942	274,255794	318,101334	0
15.01.2021	10:33:22	0	29,891257	4,442647	2,0025	348,3252	0,21	88,983	0	1014,48	7	8,7	8,7	1	1	1	1	1	1	1	1	1	0	1	-8,45666	274,379554	312,902025	0
15.01.2021	10:33:23	0	29,774529	3,075695	1,88775	353,2032	0,207	88,984	0	1014,46	7	8,7	8,6	1	1	1	1	1	1	1	1	1	0	1	-7,470049	274,358368	313,789393	0
15.01.2021	10:33:24	0	29,424275	3,417437	1,89375	357,0084	0,21	88,98	0	1014,38	7	8,7	8,6	1	1	1	1	1	1	1	1	1	0	1	-6,624383	274,257298	314,161931	0
15.01.2021	10:33:25	0	29,774182	2,961777	1,9395	4,068	0,205	88,979	0	1014,46	7	8,9	8,6	1	1	1	1	1	1	1	1	1	0	1	-7,470049	274,257298	313,316265	0
15.01.2021	10:33:26	0	29,5409	4,10092	1,9005	9,7344	0,207	88,997	0	1014,54	7	8,8	8,6	1	1	1	1	1	1	1	1	1	0	1	-7,963354	274,281386	312,935673	0
15.01.2021	10:33:27	0	29,540728	4,100918	1,99125	359,784	0,204	88,983	0	1014,4	7	8,9	8,6	1	1	1	1	1	1	1	1	1	0	1	-3,382664	274,428066	318,203357	0
15.01.2021	10:33:28	0	29,65794	3,531344	2,09175	6,2784	0,198	88,976	0	1014,38	7	8,7	8,6	1	1	1	1	1	1	1	1	1	0	1	-9,161381	274,337205	311,99895	0
15.01.2021	10:33:29	0	29,541004	3,759148	2,15175	354,2688	0,209	88,972	0	1014,4	7	8,8	8,7	1	1	1	1	1	1	1	1	1	0	1	-7,047216	274,267833	313,788389	0
15.01.2021	10:33:30	0	29,19075	3,531319	2,2785	359,4492	0,202	88,988	0	1014,46	7	8,8	8,7	1	1	1	1	1	1	1	1	1	0	1	-3,171247	274,428066	318,414773	0
15.01.2021	10:33:31	0	29,541074	4,670479	2,3265	357,3216	0,201	88,991	0	1014,4	7	8,8	8,6	1	1	1	1	1	1	1	1	1	0	1	-8,386187	274,293441	312,569261	0
15.01.2021	10:33:32	0	29,891398	3,303508	2,4735	357,552	0,207	88,992	0	1014,38	7	8,8	8,6	1	1	1	1	1	1	1	1	1	0	1	-5,637773	274,376526	315,706726	0
15.01.2021	10:33:33	0	29,54135	4,55656	2,5275	4,0716	0,199	89,001	0	1014,44	7	8,7	8,6	1	1	1	1	1	1	1	1	1	0	1	-6,131078	274,297964	314,845539	0
15.01.2021	10:33:34	0	29,424414	2,733934	2,541	4,0788	0,21	89,007	0	1014,5	7	8,8	8,6	1	1	1	1	1	1	1	1	1	0	1	-5,073996	274,403795	316,39827	0
15.01.2021	10:33:35	0	29,074158	3,873072	2,631	0,8496	0,202	89,01	0	1014,44	6,9	8,8	8,6	1	1	1	1	1	1	1	1	1	0	1	-8,033827	274,332673	313,105284	0
15.01.2021	10:33:36	0	29,424689	2,733931	2,83425	1,1952	0,207	89,006	0	1014,42	7	8,7	8,6	1	1	1	1	1	1	1	1	1	0	1	-4,651163	274,418961	316,89218	0
15.01.2021	10:33:37	0	29,774601	2,847844	2,92125	1,5588	0,205	89,009	0	1014,46	7	8,9	8,6	1	1	1	1	1	1	1	1	1	0	1	-4,510218	274,285906	316,409962	0
15.01.2021	10:33:38	0	29,191024	4,328694	2,931	2,304	0,211	89,008	0	1014,64	7	8,8	8,7	1	1	1	1	1	1	1	1	1	0	1	-7,892882	274,397732	313,550972	0
15.01.2021	10:33:39	0	29,424793	3,645236	2,73375	0,5868	0,206	89,009	0	1014,44	7	8,7	8,6	1	1	1	1	1	1	1	1	1	0	1	-9,725159	274,356855	311,5272	0
15.01.2021	10:33:40	0	29,308062	4,898283	2,5395	3,7872	0,2	89,013	0	1014,44	7	8,7	8,6	1	1	1	1	1	1	1	1	1	0	1	-2,889359	274,251281	317,868804	0
15.01.2021	10:33:41	0	29,307891	4,556539	2,60175	355,05	0,218	89,023	0	1014,54	7	8,8	8,6	1	1	1	1	1	1	1	1	1	0	1	-4,933051	274,394701	316,496601	0
15.01.2021	10:33:42	0	29,191161	3,417403	2,5755	358,7004	0,211	89,015	0	1014,6	7	8,8	8,6	1	1	1	1	1	1	1	1	1	0	1	-4,862579	274,397732	316,581275	0
15.01.2021	10:33:43	0	29,1914	3,645227	2,592	3,0132	0,2	89,014	0	1014,56	6,9	8,7	8,6	1	1	1	1	1	1	1	1	1	0	1	-5,21494	274,396216	316,221813	0
15.01.2021	10:33:44	0	29,424553	4,556532	2,64225	357,12	0,207	89,011	0	1014,46	6,9	8,9	8,6	1	1	1	1	1	1	1	1	1	0	1	-4,721635	274,296456	316,247925	0
15.01.2021	10:33:45	0	29,191264	3,303444	2,73375	357,8292	0,206	89,029	0	1014,4	7	8,8	8,8	1	1	1	1	1	1	1	1	1	0	1	-8,738548	274,320593	312,344003	0
15.01.2021	10:33:46	0	29,541593	4,442613	2,742	350,9928	0,212	89,031	0	1014,42	7	8,8	8,6	1	1	1	1	1	1	1	1	1	0	1	-7,82241	274,425031	313,749382	0
15.01.2021	10:33:47	0	29,541628	3,986959	2,655	343,8972	0,205	89,023	0	1014,4	7	8,8	8,6	1	1	1	1	1	1	1	1	1	0	1	-1,62086	274,27988	319,271119	0
15.01.2021	10:33:48	0	29,424691	3,986956	2,6355	347,9688	0,204	89,026	0	1014,38	7	8,9	8,6	1	1	1	1	1	1	1	1	1	0	1	-6,060606	274,408343	315,432976	0
15.01.2021	10:33:49	0	29,424932	3,07565	2,68575	351,054	0,201	89,025	0	1014,44	6,9	8,8	8,6	1	1	1	1	1	1	1	1	1	0	1	-6,483439	274,420478	315,067015	0
15.01.2021	10:33:50	0	29,3082	4,784342	2,6565	352,1664	0,207	89,04	0	1014,38	7,1	8,8	8,6	1	1	1	1	1	1	1	1	1	0	1	-6,8358	274,260308	313,964595	0
15.01.2021	10:33:51	0	29,65874	4,784253	2,7045	356,13	0,209	89,001	0	1014,4	7	8,7	8,9	1	1	1	1	1	1	1	1	1	0	1	-8,245243	274,368958	313,063804	0
15.01.2021	10:33:52	0	29,191298	3,075645	2,691	360	0,207	89,023	0	1014,44	7,1	8,9	8,6	1	1	1	1	1	1	1	1	1	0	1	-7,470049	274,243762	313,252939	0
15.01.2021	10:33:53	0	29,541836	5,01216	2,71425	360	0,212	89,027	0	1014,42	7	8,8	8,6	1	1	1	1	1	1	1	1	1	0	1	-6,906272	274,305504	314,10564	0
15.01.2021	10:33:54	0	29,42531	3,189554	2,8695	360	0,206	89,023	0	1014,44	7	8,7	8,6	1	1	1	1	1	1	1	1	1	0	1	-3,946441	274,240755	316,762482	0
15.01.2021	10:33:55	0	28,958275	3,07564	2,99475	355,284	0,207	89,026	0	1014,5	7	8,7	8,6	1	1	1	1	1	1	1	1	1	0	1	-5,919662	274,302488	315,07813	0
15.01.2021	10:33:56	0	29,424967	4,670413	3,00675	357,9156	0,206	89,019	0	1014,46	7	8,9	8,6	1	1	1	1	1	1	1	1	1	0	1	-6,483439	274,415927	315,045683	0
15.01.2021	10:33:57	0	29,425207	3,531265	2,9265	355,428	0,211	89,021	0	1014,46	6,9	8,8	8,7	1	1	1	1	1	1	1	1	1	0	1	-4,157858	274,243762	316,565131	0
15.01.2021	10:33:58	0	29,308475	4,100846	2,85675	4,4568	0,208	89,031	0	1014,44	6,9	8,8	8,6	1	1	1	1	1	1	1	1	1	0	1	-6,060606	274,37804	315,290985	0
15.01.2021	10:33:59	0	29,074975	2,961721	2,8995	4,824	0,213	89,031	0	1014,58	7	8,8	8,6	1	1	1	1	1	1	1	1	1	0	1	-9,090909	274,406827	312,395567	0
15.01.2021	10:34:00	0	29,075043	4,214752	2,922	0,2196	0,212	89,033	0	1014,52	7	8,8	8,6	1	1	1	1	1	1	1	1	1	0	1	-2,396054	274,266328	318,432509	0
15.01.2021	10:34:01	0	29,075043	4,214752	2,922	0,2196	0,212	89,033	0	1014,52	7	8,8	8,6	1	1	1	1	1	1	1	1	1	0	1	-5,84919	274,364419	315,438594	0
15.01.2021	10:34:02	0	28,958513	3,075591	2,99775	3,0312	0,212	89,012	0	1014,46	6,9	8,7	8,8	1	1	1	1	1	1	1	1	1	0	1	-2,466526	274,257298	318,319789	0
15.01.2021	10:34:03	0	29,075111	4,556483	3,048	4,4748	0,215	89,032	0	1014,64	6,9	8,8	8,6	1	1	1	1	1	1	1	1	1	0	1	-8,104299	274,353831	313,133894	0
15.01.2021	10:34:04	0	29,075145	3,41736	3,009	5,67	0,212	89,028	0	1014,48	7	8,8	8,6	1	1	1	1	1	1	1	1	1	0	1	-3,59408	274,287413	317,333152	0
15.01.2021	10:34:05	0	28,958208	4,214742	2,85825	6,5376	0,217	89,035	0	1014,62	6,9	8,9	8,6	1	1	1	1	1	1	1	1	1	0	1	-8,668076	274,322103	312,421542	0
15.01.2021	10:34:06	0	29,191981	4,784299	2,84475	358,7364	0,204	89,026	0	1014,38	7	8,8	8,6	1	1	1	1	1	1	1	1	1	0	1	-7,329105	274,254289	313,443133	0
15.01.2021	10:34:07	0	29,308783	3,75909	2,74125	1,5444	0,215	89,021	0	1014,48	6,9	8,8	8,6	1	1	1	1	1	1	1	1	1	0	1	-9,654686	274,317575	311,413731	0
15.01.2021	10:34:08	0	29,075485	3,18951	2,7165	356,2596	0,212	89,03	0	1014,66	6,9	8,7	8,7	1	1	1	1	1	1	1	1	1	0	1	-7,540521	274,27235	313,316219	0
15.01.2021	10:34:09	0	29,192083	2,847758	3,00525	353,8836	0,208	89,015	0	1014,46	7	8,8	8,8	1	1	1	1	1	1	1	1	1	0	1	-3,946441	274,349295	317,270509	0
15.01.2021	10:34:10	0	29,42586	3,759084	3,195	354,2508	0,212	89,024	0	1014,68	7	8,7	8,6	1	1	1	1	1	1	1	1	1	0	1	-5,637773	274,412893	315,877131	0
15.01.2021	10:34:11	0	29,191947	2,961701	3,075	359,406	0,214	89,022	0	1014,34	7	8,9	8,6	1	1	1	1	1	1	1	1	1	0	1	-7,610994	274,328142	313,506902	0
15.01.2021	10:34:12	0	28,842081	4,328637	2,934	3,3732	0,214	89,001	0	1014,24	7	8,7	8,6	1	1	1	1	1	1	1	1	1	0	1	-2,255109	274,251281	318,503054	0
15.01.2021	10:34:13	0	29,192424	2,619963	2,67	358,758	0,212	89,018	0	1014,36	6,9	8,7	8,6	1	1	1	1	1	1	1	1	1	0	1	-6,412967	274,352319	314,818144	0
15.01.2021	10:34:14	0	28,958513	2,50605	2,6115	4,068	0,217	89,012	0	1014,36	6,9	8,9	8,6	1	1	1	1	1	1	1	1	1	0	1	-6,694856	274,417444	314,841376	0
15.01.2021	10:34:15	0	29,075519	3,531208	2,72325	7,4952	0,212	89,007	0	1014,42	6,9	8,8	8,8	1	1	1	1	1	1	1	1	1	0	1	-5,073996	274,376526	316,270503	0
15.01.2021	10:34:16	0	28,958581	2,961692	2,6355	12,0636	0,212	89,019	0	1014,46	6,9	8,9	8,6	1	1	1	1	1	1	1	1	1	0	1	-7,258633	274,417444	314,277599	0
15.01.2021	10:34:17	0	29,192561	4,670358	2,4165	349,9776	0,215	89,018	0	1014,52	7	8,7	8,6	1	1	1	1	1	1	1	1	1	0	1	-7,470049	274,305504	313,541862	0
15.01.2021	10:34:18	0	28,842081	3,986889	2,256	350,6544	0,214	89,017	0	1014,46	6,9	8,8	8,6	1	1	1	1	1	1	1	1	1	0	1	-5,567301	274,405311	315,91207	0
15.01.2021	10:34:19	0	29,192424	5,46773	2,244	351,108	0,215	88,994	0	1014,26	6,9	8,8	8,6	1	1	1	1	1	1	1	1	1	0	1	-7,047216	274,347783	314,162654	0
15.01.2021	10:34:20	0	28,608609	2,961686	2,3055	0	0,216	89,02	0	1014,44	7	8,8	8,6	1	1	1	1	1	1	1	1	1	0	1	-4,157858	274,245266	316,572164	0
15.01.2021	10:34:21	0	28,608643	3,64515	2,41125	0,8568	0,214	89,014	0	1014,42	6,9	8,8	8,6	1	1	1	1	1	1	1	1	1	0	1	-8,386187	274,269338	312,456463	0
15.01.2021	10:34:22	0	28,842216	3,872923	2,44275	360	0,21	89,013	0	1014,46	6,9	8,8	8,8	1	1	1	1	1	1	1	1	1	0	1	-3,24172	274,408343	318,251862	0
15.01.2021	10:34:23	0	29,07579	2,961681	2,41875	359,2152	0,216	89,02	0	1014,44	6,9	8,8	8,6	1	1	1	1	1	1	1	1	1	0	1	-4,792107	274,364419	316,495676	0
15.01.2021	10:34:24	0	29,075621	4,556429	2,442	360	0,216	89,028	0	1014,56	6,9	8,9	8,6	1	1	1	1	1	1	1	1	1	0	1	-4,22833	274,248273	316,515762	0
15.01.2021	10:34:25	0	28,608576	3,075588	2,3865	6,4116	0,212	89,003	0	1014,38	7	8,9	8,6	1	1	1	1	1	1	1	1	1	0	1	-6,624383	274,368958	314,684663	0
15.01.2021	10:34:26	0	28,958919	3,986871	2,38875	352,4544	0,22	89,023	0	1014,6	6,9	8,9	8,6	1	1	1	1	1	1	1	1	1	0	1	-5,567301	274,236246	315,12053	0
15.01.2021	10:34:27	0	28,842384	5,125974	2,364	349,8444	0,216	89,021	0	1014,48	7	8,8	8,6	1	1	1	1	1	1	1	1	1	0	1	-8,104299	274,307013	312,914674	0
15.01.2021	10:34:28	0	28,958986	3,872956	2,421	352,4544	0,216	89,024	0	1014,56	7	8,9	8,6	1	1	1	1	1	1	1	1	1	0	1	-9,090909	274,245266	311,639113	0
15.01.2021	10:34:29	0	29,075994	4,898089	2,5125	360	0,217	89,017	0	1014,6	7	8,8	8,8	1	1	1	1	1	1	1	1	1	0	1	-6,765328	274,317575	314,30309	0
15.01.2021	10:34:30	0	28,492172	3,986862	2,5545	5,1984	0,219	89,021	0	1014,62	6,9	8,8	8,6	1	1	1	1	1	1	1	1	1	0	1	-9,725159	274,435658	311,896446	0
15.01.2021	10:34:31	0	28,959087	3,417308	2,55525	2,6316	0,212	89,001	0	1014,42	6,9	8,9	8,6	1	1	1	1	1	1	1	1	1	0	1	-3,59408	274,373498	317,736236	0
15.01.2021	10:34:32	0	28,72558	4,442445	2,46975	2,2932	0,215	89,028	0	1014,32	6,9	8,9	8,8	1	1	1	1	1	1	1	1	1	0	1	-8,879493	274,415927	312,649629	0
15.01.2021	10:34:33	0	28,492072	3,075574	2,44875	3,7728	0,219	89,019	0	1014,48	7,1	8,9	8,6	1	1	1	1	1	1	1	1	1	0	1	-6,765328	274,355343	314,479947	0
15.01.2021	10:34:34	0	28,375533	4,214673	2,35125	360	0,218	89,017	0	1014,5	7	8,8	8,6	1	1	1	1	1	1	1	1	1	0	1	-6,060606	274,40986	315,440082	0
15.01.2021	10:34:35	0	28,959628	3,872941	2,3355	3,3912	0,22	89,031	0	1014,62	7	8,7	8,6	1	1	1	1	1	1	1	1	1	0	1	-10,711769	274,412893	310,803135	0
15.01.2021	10:34:36	0	28,258827	2,733839	2,27775	360	0,219	89,021	0	1014,5	6,9	8,8	8,6	1	1	1	1	1	1	1	1	1	0	1	-5,073996	274,364419	316,213788	0
15.01.2021	10:34:37	0	28,375831	4,556396	2,20875	348,5808	0,216	89,014	0	1014,42	6,9	8,7	8,6	1	1	1	1	1	1	1	1	1	0	1	-2,889359	274,420478	318,661095	0
15.01.2021	10:34:38	0	28,492437	2,847712	2,1825	357,588	0,214	89,029	0	1014,48	7	8,8	8,8	1	1	1	1	1	1	1	1	1	0	1	-7,610994	274,263317	313,203483	0
15.01.2021	10:34:39	0	28,842586	3,417293	2,1795	352,7784	0,218	89,023	0	1014,42	6,9	8,9	8,6	1	1	1	1	1	1	1	1	1	0	1	-5,003524	274,291934	315,94487	0
15.01.2021	10:34:40	0	28,726049	4,442479	2,112	349,4592	0,22	89,013	0	1014,52	6,9	8,8	8,6	1	1	1	1	1	1	1	1	1	0	1	-4,721635	274,237749	315,973226	0
15.01.2021	10:34:41	0	28,842653	5,012024	2,07825	4,4532	0,215	89,024	0	1014,42	7	8,9	8,6	1	1	1	1	1	1	1	1	1	0	1	-5,144468	274,331163	315,98757	0
15.01.2021	10:34:42	0	28,49277	4,556356	2,10825	342,396	0,215	89	0	1014,6	6,9	8,7	8,7	1	1	1	1	1	1	1	1	1	0	1	-4,721635	274,411376	316,786161	0
15.01.2021	10:34:43	0	28,842922	2,733828	2,199	355,7376	0,212	89,009	0	1014,44	7	8,8	8,6	1	1	1	1	1	1	1	1	1	0	1	-8,315715	274,343249	312,87292	0
15.01.2021	10:34:44	0	28,375863	2,847736	2,2545	356,904	0,214	89,011	0	1014,46	7	8,8	8,6	1	1	1	1	1	1	1	1	1	0	1	-5,144468	274,239252	315,557424	0
15.01.2021	10:34:45	0	28,375697	2,961644	2,22525	351,3816	0,219	89,004	0	1014,42	6,9	8,9	8,6	1	1	1	1	1	1	1	1	1	0	1	-6,342495	274,237749	314,352366	0
15.01.2021	10:34:46	0	28,375929	4,100736	2,24625	360	0,214	89,004	0	1014,48	6,9	8,8	8,6	1	1	1	1	1	1	1	1	1	0	1	-4,721635	274,364419	316,566148	0
15.01.2021	10:34:47	0	28,259189	4,442408	2,19675	4,446	0,216	89,007	0	1014,48	7	8,8	8,8	1	1	1	1	1	1	1	1	1	0	1	-7,681466	274,425031	313,890326	0
15.01.2021	10:34:48	0	28,376194	3,531185	2,06925	358,3692	0,216	89,005	0	1014,36	7	8,7	8,6	1	1	1	1	1	1	1	1	1	0	1	-2,677942	274,270844	318,171753	0
15.01.2021	10:34:49	0	28,142481	2,961602	2,049	360	0,216	89,008	0	1014,32	7	8,8	8,8	1	1	1	1	1	1	1	1	1	0	1	-3,946441	274,405311	317,532929	0
15.01.2021	10:34:50	0	28,492835	4,442454	1,9245	353,2536	0,214	89,003	0	1014,36	6,9	8,8	8,6	1	1	1	1	1	1	1	1	1	0	1	-0	274,335694	321,153257	0
15.01.2021	10:34:51	0	28,142546	3,075543	1,8495	355,0176	0,214	89,006	0	1014,4	7	8,8	8,6	1	1	1	1	1	1	1	1	1	0	1	-8,386187	274,41441	313,135825	0
15.01.2021	10:34:52	0	28,259353	3,645086	1,84875	356,8788	0,214	89,016	0	1014,4	6,9	8,8	8,6	1	1	1	1	1	1	1	1	1	0	1	-0,98661	274,367445	320,315348	0
15.01.2021	10:34:53	0	28,492935	3,189449	1,8465	356,5116	0,215	89,021	0	1014,46	7	8,8	8,6	1	1	1	1	1	1	1	1	1	0	1	-7,188161	274,231738	313,478583	0
15.01.2021	10:34:54	0	28,259419	5,125835	1,86975	356,22	0,217	89,022	0	1014,38	7	8,8	8,8	1	1	1	1	1	1	1	1	1	0	1	-6,906272	274,278374	313,978657	0
15.01.2021	10:34:55	0	28,376425	4,78411	1,965	354,2544	0,212	89,016	0	1014,54	6,9	8,7	8,8	1	1	1	1	1	1	1	1	1	0	1	-3,312192	274,236246	317,375639	0
15.01.2021	10:34:56	0	27,90916	3,303352	2,08725	359,9172	0,22	89,014	0	1014,54	7	8,8	8,6	1	1	1	1	1	1	1	1	1	0	1	-5,355884	274,302488	315,641907	0
15.01.2021	10:34:57	0	28,259517	3,872824	2,307	6,4188	0,217	89,019	0	1014,36	7	8,8	8,9	1	1	1	1	1	1	1	1	1	0	1	-4,792107	274,388641	316,60915	0
15.01.2021	10:34:58	0	28,026196	3,758983	2,484	8,2548	0,213	89,004	0	1014,44	6,9	8,7	8,6	1	1	1	1	1	1	1	1	1	0	1	-2,466526	274,249777	318,284601	0
15.01.2021	10:34:59	0	28,376358	4,784157	2,5125	355,0716	0,219	89,013	0	1014,54	7	8,8	8,6	1	1	1	1	1	1	1	1	1	0	1	-2,60747	274,266328	318,221092	0
15.01.2021	10:35:00	0	28,142873	4,55628	2,36025	351,6444	0,221	89,02	0	1014,38	6,9	8,8	8,8	1	1	1	1	1	1	1	1	1	0	1	-6,20155	274,297964	314,775067	0
15.01.2021	10:35:01	0	28,142873	4,55628	2,36025	351,6444	0,221	89,02	0	1014,38	6,9	8,8	8,8	1	1	1	1	1	1	1	1	1	0	1	-9,372798	274,428066	312,213223	0
15.01.2021	10:35:02	0	28,143103	5,35369	2,47125	351,9144	0,217	89,019	0	1014,48	6,9	8,7	8,6	1	1	1	1	1	1	1	1	1	0	1	-7,188161	274,273855	313,675626	0
15.01.2021	10:35:03	0	27,909387	2,733798	2,6745	346,8348	0,225	89,021	0	1014,5	6,9	8,8	8,6	1	1	1	1	1	1	1	1	1	0	1	-5,355884	274,242259	315,360071	0
15.01.2021	10:35:04	0	27,90942	2,733763	2,82	344,6964	0,219	89,019	0	1014,48	6,9	8,8	8,8	1	1	1	1	1	1	1	1	1	0	1	-3,523608	274,249777	317,227519	0
15.01.2021	10:35:05	0	28,026032	4,556325	3,00225	348,1632	0,216	89,026	0	1014,44	7	8,9	8,6	1	1	1	1	1	1	1	1	1	0	1	-8,738548	274,325122	312,365207	0
15.01.2021	10:35:06	0	27,792708	4,556322	3,12825	349,1352	0,22	89,008	0	1014,58	6,9	8,8	8,6	1	1	1	1	1	1	1	1	1	0	1	-7,751938	274,411376	313,755858	0
15.01.2021	10:35:07	0	27,559188	3,303332	3,2445	355,0032	0,216	89,008	0	1014,7	7	8,8	8,6	1	1	1	1	1	1	1	1	1	0	1	-3,523608	274,266328	317,304954	0
15.01.2021	10:35:08	0	27,559027	2,619882	3,23025	355,7124	0,217	89,014	0	1014,54	6,9	8,9	8,6	1	1	1	1	1	1	1	1	1	0	1	-6,272023	274,251281	314,486141	0
15.01.2021	10:35:09	0	27,909582	3,53108	3,35325	353,232	0,216	89,01	0	1014,32	6,9	8,8	8,9	1	1	1	1	1	1	1	1	1	0	1	-2,396054	274,290427	318,545286	0
15.01.2021	10:35:10	0	27,676061	4,556257	3,4515	359,1864	0,22	89,024	0	1014,52	6,9	8,8	8,8	1	1	1	1	1	1	1	1	1	0	1	-4,862579	274,40986	316,638109	0
15.01.2021	10:35:11	0	27,793064	4,442402	3,33075	353,9196	0,217	89,006	0	1014,52	6,9	8,7	8,6	1	1	1	1	1	1	1	1	1	0	1	-8,104299	274,391671	313,311155	0
15.01.2021	10:35:12	0	27,792902	3,645002	3,345	360	0,216	89,005	0	1014,46	6,9	8,8	8,8	1	1	1	1	1	1	1	1	1	0	1	-3,030303	274,245266	317,699719	0
15.01.2021	10:35:13	0	27,793129	3,075505	3,26475	6,804	0,213	89,006	0	1014,42	7	8,7	8,6	1	1	1	1	1	1	1	1	1	0	1	-5,990134	274,358368	315,269308	0
15.01.2021	10:35:14	0	28,026521	3,075504	3,3555	6,4152	0,219	89,003	0	1014,38	7	8,8	8,6	1	1	1	1	1	1	1	1	1	0	1	-8,104299	274,269338	312,738351	0
15.01.2021	10:35:15	0	27,676415	4,442392	3,33525	350,6292	0,224	89,018	0	1014,54	6,9	8,7	8,6	1	1	1	1	1	1	1	1	1	0	1	-6,131078	274,399247	315,319878	0
15.01.2021	10:35:16	0	27,793226	3,986712	3,141	356,2128	0,222	89,016	0	1014,48	7	8,7	8,8	1	1	1	1	1	1	1	1	1	0	1	-4,016913	274,358368	317,242529	0
15.01.2021	10:35:17	0	27,325953	2,733776	2,96475	355,482	0,222	89,02	0	1014,56	6,9	8,8	8,6	1	1	1	1	1	1	1	1	1	0	1	-7,610994	274,266328	313,217569	0
15.01.2021	10:35:18	0	27,325985	2,847648	2,97525	353,448	0,242	89,03	0	1014,7	6,9	8,8	8,8	1	1	1	1	1	1	1	1	1	0	1	-7,117689	274,311538	313,922471	0
15.01.2021	10:35:19	0	27,793128	2,847681	3,13725	354,2364	0,221	89,024	0	1014,36	7,1	8,8	8,6	1	1	1	1	1	1	1	1	1	0	1	-8,738548	274,421996	312,819018	0
15.01.2021	10:35:20	0	27,676188	3,758936	3,048	354,2148	0,218	89,001	0	1014,52	7,1	8,9	8,6	1	1	1	1	1	1	1	1	1	0	1	-7,610994	274,343249	313,577641	0
15.01.2021	10:35:21	0	27,442858	4,32847	3,132	4,4496	0,222	89,029	0	1014,54	7	8,8	8,6	1	1	1	1	1	1	1	1	1	0	1	-6,060606	274,41441	315,461406	0
15.01.2021	10:35:22	0	27,442889	2,733769	3,096	10,8072	0,22	89,01	0	1014,36	7	8,8	8,6	1	1	1	1	1	1	1	1	1	0	1	-3,171247	274,313047	317,875975	0
15.01.2021	10:35:23	0	27,326143	3,075488	3,03675	359,046	0,224	89,013	0	1014,44	6,9	8,8	8,6	1	1	1	1	1	1	1	1	1	0	1	-4,087385	274,417444	317,448846	0
15.01.2021	10:35:24	0	27,209396	2,505922	3,00825	7,5204	0,227	89,026	0	1014,58	6,9	8,8	8,8	1	1	1	1	1	1	1	1	1	0	1	-7,751938	274,41441	313,770074	0
15.01.2021	10:35:25	0	27,326206	4,556246	3,05025	358,6752	0,227	89,02	0	1014,54	6,9	8,8	8,7	1	1	1	1	1	1	1	1	1	0	1	-0,845666	274,397732	320,598188	0
15.01.2021	10:35:26	0	27,676768	4,2145	2,96475	357,2208	0,221	89,018	0	1014,44	7	8,7	8,8	1	1	1	1	1	1	1	1	1	0	1	-2,114165	274,382582	319,258708	0
15.01.2021	10:35:27	0	27,6768	4,100642	2,769	357,1308	0,214	89,018	0	1014,46	7	8,7	8,6	1	1	1	1	1	1	1	1	1	0	1	-5,567301	274,245266	315,162721	0
15.01.2021	10:35:28	0	27,793417	2,847632	2,5845	357,5772	0,218	89,022	0	1014,46	6,9	8,8	8,8	1	1	1	1	1	1	1	1	1	0	1	-6,8358	274,290427	314,105539	0
15.01.2021	10:35:29	0	27,67667	5,239703	2,53425	351,9864	0,224	89,021	0	1014,5	7	8,8	8,6	1	1	1	1	1	1	1	1	1	0	1	-4,016913	274,382582	317,355959	0
15.01.2021	10:35:30	0	27,326364	4,556206	2,51475	343,9296	0,223	89,019	0	1014,42	6,9	8,8	8,8	1	1	1	1	1	1	1	1	1	0	1	-5,778717	274,30098	315,212015	0
15.01.2021	10:35:31	0	27,326396	4,897978	2,60025	1,1592	0,234	89,017	0	1014,36	6,9	8,8	8,6	1	1	1	1	1	1	1	1	1	0	1	-5,919662	274,255794	314,859614	0
15.01.2021	10:35:32	0	27,326428	5,011821	2,58225	351,108	0,222	89,011	0	1014,5	7	8,8	8,8	1	1	1	1	1	1	1	1	1	0	1	-1,409443	274,397732	320,034411	0
15.01.2021	10:35:33	0	27,676799	5,239629	2,67075	351,504	0,222	89,034	0	1014,54	7	8,8	8,8	1	1	1	1	1	1	1	1	1	0	1	-4,157858	274,335694	316,995399	0
15.01.2021	10:35:34	0	27,560051	3,872813	2,71275	352,4868	0,22	89,012	0	1014,5	7	8,8	8,6	1	1	1	1	1	1	1	1	1	0	1	-2,60747	274,41441	318,914542	0
15.01.2021	10:35:35	0	27,560276	4,897908	2,82975	341,3052	0,222	89,028	0	1014,4	7	8,7	8,8	1	1	1	1	1	1	1	1	1	0	1	-5,496829	274,334184	315,649355	0
15.01.2021	10:35:36	0	27,209774	2,733748	2,96775	358,4376	0,225	89,028	0	1014,54	6,9	8,8	8,6	1	1	1	1	1	1	1	1	1	0	1	-3,735025	274,254289	317,037213	0
15.01.2021	10:35:37	0	27,326586	2,961523	2,9205	348,2712	0,219	89,012	0	1014,5	6,9	8,8	8,8	1	1	1	1	1	1	1	1	1	0	1	-6,765328	274,375012	314,572079	0
15.01.2021	10:35:38	0	27,326617	3,644949	2,9205	346,4568	0,225	89,014	0	1014,36	7	8,8	8,8	1	1	1	1	1	1	1	1	1	0	1	-8,033827	274,426549	313,545079	0
15.01.2021	10:35:39	0	27,093088	3,075424	3,024	357,3216	0,223	89,013	0	1014,54	7	8,8	8,8	1	1	1	1	1	1	1	1	1	0	1	-1,902748	274,349295	319,314201	0
15.01.2021	10:35:40	0	27,2099	2,847647	3,1365	347,5656	0,223	89,014	0	1014,5	7	8,8	8,6	1	1	1	1	1	1	1	1	1	0	1	-5,144468	274,415927	316,384654	0
15.01.2021	10:35:41	0	27,443493	4,556233	3,09	346,482	0,222	89,008	0	1014,48	7	8,8	8,6	1	1	1	1	1	1	1	1	1	0	1	-2,255109	274,317575	318,813308	0
15.01.2021	10:35:42	0	27,209963	4,556231	2,85075	0	0,225	89,026	0	1014,56	7	8,8	8,6	1	1	1	1	1	1	1	1	1	0	1	-4,862579	274,263317	315,951898	0
15.01.2021	10:35:43	0	27,093213	3,41713	2,67825	346,8276	0,22	88,999	0	1014,36	7	8,8	8,8	1	1	1	1	1	1	1	1	1	0	1	-4,580691	274,296456	316,38887	0
15.01.2021	10:35:44	0	27,210026	3,417128	2,69625	345,7908	0,22	89,026	0	1014,4	7	8,8	8,8	1	1	1	1	1	1	1	1	1	0	1	-4,157858	274,264822	316,663662	0
15.01.2021	10:35:45	0	27,093276	2,505893	2,67675	355,7592	0,223	89,023	0	1014,54	7	8,8	8,8	1	1	1	1	1	1	1	1	1	0	1	-2,889359	274,349295	318,327591	0
15.01.2021	10:35:46	0	26,859744	2,733732	2,51475	355,0752	0,217	89,024	0	1014,4	7	8,8	8,6	1	1	1	1	1	1	1	1	1	0	1	-4,792107	274,240755	315,916816	0
15.01.2021	10:35:47	0	27,326902	4,556218	2,52675	0,8424	0,224	89,018	0	1014,48	7	8,8	8,6	1	1	1	1	1	1	1	1	1	0	1	-4,439746	274,349295	316,777203	0
15.01.2021	10:35:48	0	26,743025	2,733729	2,62875	11,1816	0,221	89,029	0	1014,52	6,9	8,8	8,6	1	1	1	1	1	1	1	1	1	0	1	-10,500352	274,423513	311,064326	0
15.01.2021	10:35:49	0	26,859837	3,303215	2,69925	10,0296	0,218	89,016	0	1014,44	7	8,8	8,8	1	1	1	1	1	1	1	1	1	0	1	-7,188161	274,337205	313,972171	0
15.01.2021	10:35:50	0	26,97665	3,075405	2,82675	4,8384	0,224	89,02	0	1014,56	7	8,8	8,8	1	1	1	1	1	1	1	1	1	0	1	-7,258633	274,261812	313,548803	0
15.01.2021	10:35:51	0	26,743117	4,214442	2,76825	8,6148	0,219	89,017	0	1014,5	7	8,8	8,8	1	1	1	1	1	1	1	1	1	0	1	-10,007047	274,364419	311,280736	0
15.01.2021	10:35:52	0	26,743335	2,847594	2,784	16,0884	0,225	89,023	0	1014,52	7	8,7	8,8	1	1	1	1	1	1	1	1	1	0	1	-3,946441	274,437176	317,682282	0
15.01.2021	10:35:53	0	26,976744	3,189342	2,715	358,4052	0,222	89,009	0	1014,52	7	8,8	8,6	1	1	1	1	1	1	1	1	1	0	1	-9,584214	274,365932	311,710656	0
15.01.2021	10:35:54	0	26,74321	3,303206	2,56125	0,126	0,22	89,024	0	1014,56	7	8,8	8,8	1	1	1	1	1	1	1	1	1	0	1	-4,22833	274,252785	316,53687	0
15.01.2021	10:35:55	0	26,976806	4,78395	2,56275	1,17	0,222	89,025	0	1014,48	7	8,8	8,8	1	1	1	1	1	1	1	1	1	0	1	-7,610994	274,381068	313,754784	0
15.01.2021	10:35:56	0	26,860054	3,986623	2,66475	4,068	0,22	89,011	0	1014,58	7	8,8	8,8	1	1	1	1	1	1	1	1	1	0	1	-4,792107	274,305504	316,219804	0
15.01.2021	10:35:57	0	27,210434	4,556138	2,78625	358,3548	0,223	89,03	0	1014,54	7	8,8	8,8	1	1	1	1	1	1	1	1	1	0	1	-7,329105	274,37804	314,022486	0
15.01.2021	10:35:58	0	26,62655	3,986618	2,75325	1,1772	0,222	89,009	0	1014,58	7	8,8	8,8	1	1	1	1	1	1	1	1	1	0	1	-3,664553	274,379554	317,694132	0
15.01.2021	10:35:59	0	26,860147	3,758855	2,6505	359,8272	0,22	89,021	0	1014,6	7	8,8	8,6	1	1	1	1	1	1	1	1	1	0	1	-1,973221	274,421996	319,584345	0
15.01.2021	10:36:00	0	26,976993	3,075423	2,6235	4,0788	0,227	89,03	0	1014,52	7	8,8	8,6	1	1	1	1	1	1	1	1	1	0	1	-10,288936	274,338716	310,87847	0
15.01.2021	10:36:01	0	26,976993	3,075423	2,6235	4,0788	0,227	89,03	0	1014,52	7	8,8	8,6	1	1	1	1	1	1	1	1	1	0	1	-1,902748	274,243762	318,82024	0
15.01.2021	10:36:02	0	27,093808	3,758848	2,57925	3,024	0,226	89,026	0	1014,64	6,9	8,8	8,6	1	1	1	1	1	1	1	1	1	0	1	-1,338971	274,340227	319,835511	0
15.01.2021	10:36:03	0	26,626704	4,44222	2,538	3,0276	0,226	89,035	0	1014,64	7	8,8	8,8	1	1	1	1	1	1	1	1	1	0	1	-4,298802	274,406827	317,187674	0
15.01.2021	10:36:04	0	26,509951	3,303227	2,406	0,864	0,223	89,029	0	1014,52	6,9	8,8	8,6	1	1	1	1	1	1	1	1	1	0	1	-8,386187	274,335694	312,767069	0
15.01.2021	10:36:05	0	26,509981	2,619768	2,37225	3,492	0,228	89,018	0	1014,44	6,9	8,8	8,8	1	1	1	1	1	1	1	1	1	0	1	-4,721635	274,251281	316,036528	0
15.01.2021	10:36:06	0	26,860364	2,619766	2,33475	359,802	0,225	89,024	0	1014,58	7	8,8	8,8	1	1	1	1	1	1	1	1	1	0	1	-0,704722	274,261812	320,102714	0
15.01.2021	10:36:07	0	26,276474	3,075413	2,4105	7,5132	0,227	89,018	0	1014,58	7	8,8	8,6	1	1	1	1	1	1	1	1	1	0	1	-6,060606	274,252785	314,704594	0
15.01.2021	10:36:08	0	26,977022	4,556165	2,463	8,2584	0,218	89,011	0	1014,6	6,9	8,9	8,6	1	1	1	1	1	1	1	1	1	0	1	-9,231853	274,364419	312,05593	0
15.01.2021	10:36:09	0	26,276534	2,505859	2,54325	12,0888	0,221	89,009	0	1014,54	7	8,8	8,8	1	1	1	1	1	1	1	1	1	0	1	-10,711769	274,27235	310,144972	0
15.01.2021	10:36:10	0	26,276565	5,011716	2,60625	6,426	0,226	89,008	0	1014,58	6,9	8,8	8,8	1	1	1	1	1	1	1	1	1	0	1	-5,567301	274,423513	315,997378	0
15.01.2021	10:36:11	0	26,39338	5,011773	2,637	0,1152	0,227	89,007	0	1014,48	7	8,8	8,6	1	1	1	1	1	1	1	1	1	0	1	-9,654686	274,296456	311,314874	0
15.01.2021	10:36:12	0	26,62698	5,809028	2,655	8,604	0,229	89,007	0	1014,3	7	8,8	8,8	1	1	1	1	1	1	1	1	1	0	1	-5,567301	274,397732	315,876554	0
15.01.2021	10:36:13	0	26,393441	4,556097	2,5695	20,2824	0,228	89,005	0	1014,52	7	8,8	8,8	1	1	1	1	1	1	1	1	1	0	1	-4,016913	274,287413	316,910319	0
15.01.2021	10:36:14	0	26,393471	5,011704	2,42925	13,1616	0,228	89,017	0	1014,58	7	8,8	8,8	1	1	1	1	1	1	1	1	1	0	1	-7,610994	274,251281	313,147169	0
15.01.2021	10:36:15	0	26,393501	4,669995	2,30775	5,6628	0,226	89,01	0	1014,56	7	8,8	8,8	1	1	1	1	1	1	1	1	1	0	1	-7,117689	274,362906	314,163009	0
15.01.2021	10:36:16	0	26,159961	2,619783	2,29425	9,7416	0,224	89,022	0	1014,54	7	8,8	8,6	1	1	1	1	1	1	1	1	1	0	1	-2,677942	274,381068	318,687836	0
15.01.2021	10:36:17	0	26,276776	2,733652	2,28	4,4856	0,225	89,024	0	1014,56	7	8,8	8,8	1	1	1	1	1	1	1	1	1	0	1	-12,332629	274,237749	308,362232	0
15.01.2021	10:36:18	0	26,276807	4,55614	2,1945	7,5132	0,226	89,018	0	1014,44	7	8,8	8,6	1	1	1	1	1	1	1	1	1	0	1	-5,708245	274,270844	315,14145	0
15.01.2021	10:36:19	0	26,510409	4,214376	2,07525	353,4912	0,229	89,029	0	1014,66	7	8,8	8,8	1	1	1	1	1	1	1	1	1	0	1	-9,302326	274,418961	312,241017	0
15.01.2021	10:36:20	0	26,160081	3,417101	2,136	8,9964	0,235	89,033	0	1014,6	7	8,8	8,6	1	1	1	1	1	1	1	1	1	0	1	-5,637773	274,381068	315,728005	0
15.01.2021	10:36:21	0	26,276898	2,96145	2,25	358,3908	0,23	89,022	0	1014,58	7	8,8	8,8	1	1	1	1	1	1	1	1	1	0	1	-5,073996	274,254289	315,698242	0
15.01.2021	10:36:22	0	26,276928	4,442173	2,25975	10,0476	0,224	89,008	0	1014,46	7	8,8	8,8	1	1	1	1	1	1	1	1	1	0	1	-3,946441	274,340227	317,228041	0
15.01.2021	10:36:23	0	26,393744	2,961447	2,33775	8,262	0,229	89,015	0	1014,56	7	8,8	8,8	1	1	1	1	1	1	1	1	1	0	1	-5,708245	274,420478	315,842209	0
15.01.2021	10:36:24	0	26,393775	3,644856	2,427	0,4212	0,23	89,008	0	1014,56	7	8,8	8,8	1	1	1	1	1	1	1	1	1	0	1	-4,016913	274,282893	316,889165	0
15.01.2021	10:36:25	0	26,160232	3,872704	2,40675	8,604	0,23	89,015	0	1014,52	6,9	8,8	8,6	1	1	1	1	1	1	1	1	1	0	1	-6,20155	274,394701	315,228102	0
15.01.2021	10:36:26	0	26,043475	3,303147	2,4825	10,0512	0,229	89,002	0	1014,54	7	8,8	8,8	1	1	1	1	1	1	1	1	1	0	1	-7,188161	274,240755	313,520763	0
15.01.2021	10:36:27	0	26,160292	4,669964	2,65425	4,086	0,233	89,012	0	1014,66	7	8,8	8,8	1	1	1	1	1	1	1	1	1	0	1	-4,298802	274,376526	317,045697	0
15.01.2021	10:36:28	0	26,043535	3,758749	2,703	1,1664	0,23	89,005	0	1014,38	7	8,8	8,8	1	1	1	1	1	1	1	1	1	0	1	-5,003524	274,412893	316,51138	0
15.01.2021	10:36:29	0	26,510714	3,758747	2,541	0,4896	0,228	89,002	0	1014,52	7	8,8	8,8	1	1	1	1	1	1	1	1	1	0	1	-5,84919	274,408343	315,644392	0
15.01.2021	10:36:30	0	26,393957	4,783857	2,32875	356,5296	0,23	89,001	0	1014,48	7	8,8	8,8	1	1	1	1	1	1	1	1	1	0	1	-4,651163	274,316065	316,410189	0
15.01.2021	10:36:31	0	25,926837	3,189275	2,265	357,6852	0,235	89,011	0	1014,7	7	8,8	8,6	1	1	1	1	1	1	1	1	1	0	1	-2,184637	274,243762	318,538351	0
15.01.2021	10:36:32	0	26,27723	4,442202	2,36475	351,27	0,231	89,016	0	1014,68	7	8,8	8,6	1	1	1	1	1	1	1	1	1	0	1	-4,369274	274,317575	316,699143	0
15.01.2021	10:36:33	0	26,160472	4,556102	2,532	352,08	0,226	88,981	0	1014,38	7	8,8	8,6	1	1	1	1	1	1	1	1	1	0	1	-3,100775	274,41441	318,421237	0
15.01.2021	10:36:34	0	26,043897	3,417033	2,46225	3,7584	0,23	89	0	1014,54	7	8,7	8,8	1	1	1	1	1	1	1	1	1	0	1	-5,496829	274,362906	315,783868	0
15.01.2021	10:36:35	0	26,043744	3,530975	2,2035	18,0648	0,23	89,006	0	1014,46	7	8,8	8,6	1	1	1	1	1	1	1	1	1	0	1	-2,114165	274,258803	318,679189	0
15.01.2021	10:36:36	0	26,394139	4,783841	1,95975	27,6444	0,228	89,014	0	1014,5	7	8,8	8,8	1	1	1	1	1	1	1	1	1	0	1	-6,342495	274,316065	314,718857	0
15.01.2021	10:36:37	0	26,160593	4,442136	1,86225	7,11	0,231	89,009	0	1014,66	7	8,8	8,8	1	1	1	1	1	1	1	1	1	0	1	-1,127555	274,415927	320,401567	0
15.01.2021	10:36:38	0	26,160623	2,847522	1,833	22,8312	0,231	89,002	0	1014,48	7	8,8	8,8	1	1	1	1	1	1	1	1	1	0	1	-1,902748	274,334184	319,243435	0
15.01.2021	10:36:39	0	25,810287	4,32823	1,83	5,6736	0,228	89,004	0	1014,6	7	8,8	8,8	1	1	1	1	1	1	1	1	1	0	1	-5,637773	274,420478	315,912681	0
15.01.2021	10:36:40	0	26,277472	2,847518	1,97475	358,4124	0,231	89,001	0	1014,52	7	8,8	8,8	1	1	1	1	1	1	1	1	1	0	1	-2,818887	274,28892	318,115399	0
15.01.2021	10:36:41	0	25,810346	3,417061	2,0925	0,8676	0,231	89,006	0	1014,4	7	8,8	8,6	1	1	1	1	1	1	1	1	1	0	1	-5,567301	274,28892	315,366985	0
15.01.2021	10:36:42	0	26,277532	3,530961	2,20275	360	0,231	89,015	0	1014,6	7	8,8	8,6	1	1	1	1	1	1	1	1	1	0	1	-2,818887	274,396216	318,617867	0
15.01.2021	10:36:43	0	25,693616	3,303116	2,23575	359,0712	0,227	88,984	0	1014,4	6,9	8,8	8,8	1	1	1	1	1	1	1	1	1	0	1	-3,030303	274,358368	318,229139	0
15.01.2021	10:36:44	0	25,927224	4,214318	2,23425	360	0,233	88,996	0	1014,52	6,9	8,8	8,8	1	1	1	1	1	1	1	1	1	0	1	-6,20155	274,316065	314,859802	0
15.01.2021	10:36:45	0	25,810465	2,961411	2,277	357,2892	0,234	89	0	1014,56	7	8,8	8,8	1	1	1	1	1	1	1	1	1	0	1	-2,325581	274,260308	318,474813	0
15.01.2021	10:36:46	0	25,693705	3,986513	2,226	358,6968	0,231	89	0	1014,7	6,9	8,8	8,8	1	1	1	1	1	1	1	1	1	0	1	-4,369274	274,365932	316,925596	0
15.01.2021	10:36:47	0	25,927314	3,644809	2,21175	354,6432	0,232	89,012	0	1014,66	6,9	8,8	8,8	1	1	1	1	1	1	1	1	1	0	1	-3,24172	274,417444	318,294512	0
15.01.2021	10:36:48	0	25,927343	3,075343	2,181	360	0,225	88,99	0	1014,46	7	8,8	8,6	1	1	1	1	1	1	1	1	1	0	1	-3,24172	274,365932	318,053151	0
15.01.2021	10:36:49	0	26,160953	3,758706	2,19075	357,0588	0,234	89,007	0	1014,48	7	8,8	8,8	1	1	1	1	1	1	1	1	1	0	1	-6,483439	274,246769	314,253617	0
15.01.2021	10:36:50	0	25,927403	4,669904	2,28	3,0096	0,225	88,994	0	1014,56	7	8,8	8,8	1	1	1	1	1	1	1	1	1	0	1	-4,933051	274,329652	316,191915	0
15.01.2021	10:36:51	0	25,810642	5,353302	2,27025	359,1396	0,232	89,015	0	1014,6	7	8,8	8,8	1	1	1	1	1	1	1	1	1	0	1	-6,624383	274,420478	314,92607	0
15.01.2021	10:36:52	0	25,927462	4,442099	2,235	346,4964	0,227	89	0	1014,54	7	8,8	8,8	1	1	1	1	1	1	1	1	1	0	1	-2,959831	274,314556	318,094456	0
15.01.2021	10:36:53	0	25,693911	3,53094	2,1855	357,6204	0,232	89,009	0	1014,58	7	8,8	8,6	1	1	1	1	1	1	1	1	1	0	1	-3,805497	274,240755	316,903427	0
15.01.2021	10:36:54	0	25,57715	3,189196	2,145	3,7512	0,229	89	0	1014,5	7	8,8	8,8	1	1	1	1	1	1	1	1	1	0	1	-8,033827	274,326632	313,076999	0
15.01.2021	10:36:55	0	25,927552	3,075294	2,37075	356,85	0,227	88,993	0	1014,54	7	8,8	8,8	1	1	1	1	1	1	1	1	1	0	1	-2,325581	274,423513	319,239097	0
15.01.2021	10:36:56	0	25,81079	3,303092	2,5275	345,3516	0,228	89,008	0	1014,54	7	8,8	8,8	1	1	1	1	1	1	1	1	1	0	1	-3,171247	274,350807	318,052783	0
15.01.2021	10:36:57	0	25,460447	3,872589	2,7465	359,7912	0,23	89,002	0	1014,62	7	8,8	8,8	1	1	1	1	1	1	1	1	1	0	1	-2,748414	274,421996	318,809151	0
15.01.2021	10:36:58	0	25,577267	3,872586	2,90025	355,3956	0,232	89,015	0	1014,38	7	8,8	8,8	1	1	1	1	1	1	1	1	1	0	1	-5,355884	274,242259	315,360071	0
15.01.2021	10:36:59	0	25,92767	2,961388	2,73075	0	0,231	89,01	0	1014,5	7	8,8	8,8	1	1	1	1	1	1	1	1	1	0	1	-6,412967	274,291934	314,535427	0
15.01.2021	10:37:00	0	25,577355	3,416982	2,7255	351,4248	0,233	89,012	0	1014,6	6,9	8,8	8,8	1	1	1	1	1	1	1	1	1	0	1	-2,60747	274,425031	318,964322	0
15.01.2021	10:37:01	0	25,577355	3,416982	2,7255	351,4248	0,233	89,012	0	1014,6	6,9	8,8	8,8	1	1	1	1	1	1	1	1	1	0	1	-7,047216	274,328142	314,070679	0
15.01.2021	10:37:02	0	25,460593	4,442075	2,80275	7,1316	0,227	89,009	0	1014,54	7	8,8	8,8	1	1	1	1	1	1	1	1	1	0	1	-4,298802	274,396216	317,137951	0
15.01.2021	10:37:03	0	25,460622	3,872576	2,7405	358,4124	0,232	88,999	0	1014,34	7	8,8	8,8	1	1	1	1	1	1	1	1	1	0	1	-4,298802	274,397732	317,145052	0
15.01.2021	10:37:04	0	25,811027	4,214271	2,6535	356,8932	0,232	89,014	0	1014,6	7	8,8	8,8	1	1	1	1	1	1	1	1	1	0	1	-5,144468	274,263317	315,670009	0
15.01.2021	10:37:05	0	25,811057	4,555967	2,622	345,0564	0,229	89,006	0	1014,58	7	8,8	8,8	1	1	1	1	1	1	1	1	1	0	1	-7,82241	274,254289	312,949828	0
15.01.2021	10:37:06	0	25,227125	3,986469	2,79675	355,0104	0,231	89,006	0	1014,5	7	8,8	8,8	1	1	1	1	1	1	1	1	1	0	1	-4,862579	274,266328	315,965983	0
15.01.2021	10:37:07	0	25,694323	3,189173	2,81775	343,3968	0,232	89,018	0	1014,58	7	8,8	8,8	1	1	1	1	1	1	1	1	1	0	1	-2,325581	274,299472	318,658093	0
15.01.2021	10:37:08	0	25,343975	3,644767	2,77125	346,8636	0,233	89,019	0	1014,56	7	8,8	8,8	1	1	1	1	1	1	1	1	1	0	1	-3,664553	274,41441	317,85746	0
15.01.2021	10:37:09	0	25,57759	5,011552	2,754	346,5216	0,235	89,012	0	1014,58	7	8,8	8,8	1	1	1	1	1	1	1	1	1	0	1	-9,795631	274,411376	311,712165	0
15.01.2021	10:37:10	0	25,344033	4,555954	2,78775	2,2824	0,235	89,002	0	1014,52	7	8,8	8,8	1	1	1	1	1	1	1	1	1	0	1	-2,255109	274,406827	319,231367	0
15.01.2021	10:37:11	0	25,227269	4,442053	2,682	345,402	0,234	89,006	0	1014,44	7	8,8	8,8	1	1	1	1	1	1	1	1	1	0	1	-7,117689	274,384097	314,262279	0
15.01.2021	10:37:12	0	25,460884	4,214253	2,5425	5,6592	0,229	89	0	1014,48	7	8,8	8,8	1	1	1	1	1	1	1	1	1	0	1	-4,933051	274,246769	315,804005	0
15.01.2021	10:37:13	0	25,6945	5,12544	2,52525	355,4172	0,235	89,013	0	1014,56	7	8,8	8,8	1	1	1	1	1	1	1	1	1	0	1	-10,147992	274,412893	311,366912	0
15.01.2021	10:37:14	0	25,460943	3,872552	2,54475	358,722	0,231	88,985	0	1014,44	7	8,8	8,8	1	1	1	1	1	1	1	1	1	0	1	-4,933051	274,379554	316,425633	0
15.01.2021	10:37:15	0	25,460972	3,986449	2,58525	9,3672	0,237	88,987	0	1014,54	7	8,8	8,8	1	1	1	1	1	1	1	1	1	0	1	-8,597604	274,41441	312,924408	0
15.01.2021	10:37:16	0	25,344207	2,733563	2,49	3,852	0,229	89	0	1014,5	7	8,8	8,8	1	1	1	1	1	1	1	1	1	0	1	-2,255109	274,362906	319,025588	0
15.01.2021	10:37:17	0	25,110649	4,783733	2,46225	2,2824	0,228	89,015	0	1014,52	7	8,8	8,8	1	1	1	1	1	1	1	1	1	0	1	-6,694856	274,406827	314,79162	0
15.01.2021	10:37:18	0	25,227471	2,961357	2,44875	360	0,233	89,014	0	1014,52	7	8,8	8,8	1	1	1	1	1	1	1	1	1	0	1	-4,651163	274,545302	317,484736	0
15.01.2021	10:37:19	0	25,461088	4,328135	2,45625	356,4864	0,234	89,002	0	1014,56	7	8,8	8,8	1	1	1	1	1	1	1	1	1	0	1	-5,21494	274,429584	316,378196	0
15.01.2021	10:37:20	0	25,694705	4,328132	2,48625	2,2932	0,229	89,001	0	1014,64	7	8,8	8,8	1	1	1	1	1	1	1	1	1	0	1	-3,59408	274,340227	317,580401	0
15.01.2021	10:37:21	0	25,344352	3,872537	2,4645	356,1552	0,232	89,004	0	1014,48	7	8,8	8,8	1	1	1	1	1	1	1	1	1	0	1	-6,20155	274,255794	314,577726	0
15.01.2021	10:37:22	0	25,461175	3,416943	2,50125	351,612	0,23	88,999	0	1014,4	7	8,8	8,8	1	1	1	1	1	1	1	1	1	0	1	-11,627907	274,296456	309,341653	0
15.01.2021	10:37:23	0	25,694794	4,100329	2,5515	357,9156	0,234	89,014	0	1014,64	7	8,8	8,8	1	1	1	1	1	1	1	1	1	0	1	-1,127555	274,252785	319,637645	0
15.01.2021	10:37:24	0	25,461234	4,897613	2,48925	357,1308	0,23	89,018	0	1014,54	7	8,8	8,8	1	1	1	1	1	1	1	1	1	0	1	-4,298802	274,396216	317,137951	0
15.01.2021	10:37:25	0	25,227673	3,530835	2,433	1,926	0,234	89,011	0	1014,4	7	8,8	8,8	1	1	1	1	1	1	1	1	1	0	1	-4,016913	274,361393	317,256698	0
15.01.2021	10:37:26	0	25,578087	2,505783	2,43675	359,1792	0,236	89,028	0	1014,46	7	8,8	8,6	1	1	1	1	1	1	1	1	1	0	1	-4,651163	274,257298	316,135152	0
15.01.2021	10:37:27	0	25,227731	4,669809	2,406	3,3912	0,232	89,01	0	1014,62	7	8,8	8,8	1	1	1	1	1	1	1	1	1	0	1	-4,933051	274,408343	316,56053	0
15.01.2021	10:37:28	0	25,110964	2,847443	2,4075	358,3548	0,237	89,02	0	1014,6	7	8,8	8,8	1	1	1	1	1	1	1	1	1	0	1	-4,792107	274,276867	316,085774	0
15.01.2021	10:37:29	0	25,461379	4,669804	2,45175	356,148	0,228	89,015	0	1014,46	7	8,8	8,8	1	1	1	1	1	1	1	1	1	0	1	-3,100775	274,421996	318,456791	0
15.01.2021	10:37:30	0	24,994226	4,214262	2,616	356,652	0,233	89,001	0	1014,6	7	8,8	8,6	1	1	1	1	1	1	1	1	1	0	1	-5,144468	274,285906	315,775713	0
15.01.2021	10:37:31	0	25,344642	4,328158	2,71125	358,3692	0,232	89,013	0	1014,52	7	8,8	8,6	1	1	1	1	1	1	1	1	1	0	1	-8,738548	274,367445	312,56341	0
15.01.2021	10:37:32	0	25,227875	3,872514	2,66775	356,22	0,227	88,996	0	1014,42	7	8,8	8,8	1	1	1	1	1	1	1	1	1	0	1	-4,721635	274,41441	316,800377	0
15.01.2021	10:37:33	0	25,3447	4,555896	2,62425	356,2236	0,235	89	0	1014,44	7	8,8	8,8	1	1	1	1	1	1	1	1	1	0	1	-6,8358	274,399247	314,615156	0
15.01.2021	10:37:34	0	25,227932	2,619639	2,64	356,9292	0,239	89,001	0	1014,64	7	8,8	8,8	1	1	1	1	1	1	1	1	1	0	1	-10,500352	274,251281	310,257811	0
15.01.2021	10:37:35	0	25,461554	4,555891	2,6385	359,1072	0,23	88,994	0	1014,54	7	8,8	8,8	1	1	1	1	1	1	1	1	1	0	1	-3,171247	274,322103	317,918371	0
15.01.2021	10:37:36	0	25,111194	3,872505	2,72925	354,7152	0,231	89,001	0	1014,44	7	8,8	8,8	1	1	1	1	1	1	1	1	1	0	1	-0,916138	274,408343	320,577444	0
15.01.2021	10:37:37	0	24,87763	3,758606	2,72775	357,966	0,231	89	0	1014,46	7	8,8	8,8	1	1	1	1	1	1	1	1	1	0	1	-1,198027	274,28892	319,736259	0
15.01.2021	10:37:38	0	25,228048	3,075222	2,77725	8,5896	0,233	89,011	0	1014,58	7	8,8	8,8	1	1	1	1	1	1	1	1	1	0	1	-3,382664	274,399247	318,068292	0
15.01.2021	10:37:39	0	25,228076	5,125366	2,8005	10,7748	0,224	88,989	0	1014,46	7	8,8	8,8	1	1	1	1	1	1	1	1	1	0	1	-9,513742	274,385611	311,873322	0
15.01.2021	10:37:40	0	24,994512	3,530806	3,102	4,0788	0,233	89,002	0	1014,5	7	8,8	8,8	1	1	1	1	1	1	1	1	1	0	1	-2,818887	274,278374	318,066043	0
15.01.2021	10:37:41	0	25,228134	4,78367	3,19875	0	0,232	89,001	0	1014,36	7	8,8	8,8	1	1	1	1	1	1	1	1	1	0	1	-5,990134	274,418961	315,553209	0
15.01.2021	10:37:42	0	25,34496	3,530802	3,24375	4,0788	0,237	88,98	0	1014,5	7	8,8	8,8	1	1	1	1	1	1	1	1	1	0	1	-4,22833	274,381068	317,137448	0
15.01.2021	10:37:43	0	24,761003	2,733523	3,1845	359,8632	0,237	89,001	0	1014,54	7	8,8	8,8	1	1	1	1	1	1	1	1	1	0	1	-2,114165	274,269338	318,728485	0
15.01.2021	10:37:44	0	25,111423	3,758592	2,93325	355,3596	0,232	88,981	0	1014,5	7	8,8	8,8	1	1	1	1	1	1	1	1	1	0	1	-6,412967	274,379554	314,945717	0
15.01.2021	10:37:45	0	24,761059	2,73352	2,91825	348,318	0,238	88,988	0	1014,54	7	8,8	8,8	1	1	1	1	1	1	1	1	1	0	1	-4,651163	274,405311	316,828208	0
15.01.2021	10:37:46	0	25,345075	3,416898	2,9835	1,5336	0,232	88,992	0	1014,58	7	8,8	8,8	1	1	1	1	1	1	1	1	1	0	1	-1,691332	274,331163	319,440706	0
15.01.2021	10:37:47	0	24,994711	3,872482	2,97675	360	0,231	88,982	0	1014,52	7	8,8	8,8	1	1	1	1	1	1	1	1	1	0	1	-3,946441	274,412893	317,568463	0
15.01.2021	10:37:48	0	25,345133	3,986376	2,9685	4,068	0,235	88,997	0	1014,46	7	8,8	8,8	1	1	1	1	1	1	1	1	1	0	1	-5,84919	274,30098	315,141543	0
15.01.2021	10:37:49	0	24,87797	3,872478	2,8185	3,8736	0,237	88,998	0	1014,5	7	8,8	8,8	1	1	1	1	1	1	1	1	1	0	1	-0,070472	274,381068	321,295306	0
15.01.2021	10:37:50	0	24,994797	4,66975	2,3145	10,7964	0,233	88,977	0	1014,38	7	8,8	8,8	1	1	1	1	1	1	1	1	1	0	1	-3,875969	274,249777	316,875158	0
15.01.2021	10:37:51	0	25,34522	3,644681	1,9815	352,872	0,236	89,01	0	1014,58	7	8,8	8,8	1	1	1	1	1	1	1	1	1	0	1	-3,735025	274,340227	317,439457	0
15.01.2021	10:37:52	0	24,878055	2,619613	1,995	357,9012	0,238	88,995	0	1014,5	7	8,8	8,8	1	1	1	1	1	1	1	1	1	0	1	-6,553911	274,255794	314,225365	0
15.01.2021	10:37:53	0	25,11168	2,847404	2,08275	356,5908	0,237	88,991	0	1014,6	7	8,8	8,8	1	1	1	1	1	1	1	1	1	0	1	-5,355884	274,365932	315,938986	0
15.01.2021	10:37:54	0	24,878112	3,416924	2,17125	0,9504	0,238	88,991	0	1014,58	7	8,8	8,6	1	1	1	1	1	1	1	1	1	0	1	-1,973221	274,240755	318,735703	0
15.01.2021	10:37:55	0	25,228536	3,872465	2,18175	355,392	0,229	88,999	0	1014,52	7	8,8	8,8	1	1	1	1	1	1	1	1	1	0	1	-5,567301	274,334184	315,578882	0
15.01.2021	10:37:56	0	24,76137	2,847399	2,20575	1,9152	0,234	88,986	0	1014,42	7	8,8	8,8	1	1	1	1	1	1	1	1	1	0	1	-3,875969	274,40986	317,624719	0
15.01.2021	10:37:57	0	25,345393	4,783628	2,34	360	0,235	88,998	0	1014,64	7	8,8	8,8	1	1	1	1	1	1	1	1	1	0	1	-0	274,317575	321,068418	0
15.01.2021	10:37:58	0	24,995024	3,30298	2,421	0	0,235	88,979	0	1014,56	7	8,8	8,8	1	1	1	1	1	1	1	1	1	0	1	-3,875969	274,252785	316,889231	0
15.01.2021	10:37:59	0	25,111852	3,644665	2,57475	349,866	0,229	88,974	0	1014,42	7	8,8	8,8	1	1	1	1	1	1	1	1	1	0	1	-5,567301	274,30098	315,423432	0
15.01.2021	10:38:00	0	24,87831	2,733496	2,75925	359,766	0,232	88,976	0	1014,44	7	8,8	8,8	1	1	1	1	1	1	1	1	1	0	1	-2,959831	274,394701	318,469822	0
15.01.2021	10:38:01	0	24,87831	2,733496	2,75925	359,766	0,232	88,976	0	1014,44	7	8,8	8,8	1	1	1	1	1	1	1	1	1	0	1	-5,073996	274,290427	315,867343	0
15.01.2021	10:38:02	0	24,878338	4,669719	2,95875	354,978	0,231	88,976	0	1014,46	7	8,8	8,8	1	1	1	1	1	1	1	1	1	0	1	-3,171247	274,245266	317,558775	0
15.01.2021	10:38:03	0	25,228766	3,075179	3,28425	343,9764	0,236	88,967	0	1014,48	7	8,8	8,8	1	1	1	1	1	1	1	1	1	0	1	-3,312192	274,358368	317,94725	0
15.01.2021	10:38:04	0	24,878395	3,189073	3,41775	349,812	0,234	88,967	0	1014,48	7	8,8	8,8	1	1	1	1	1	1	1	1	1	0	1	-0	274,252785	320,7652	0
15.01.2021	10:38:05	0	24,995223	5,353084	3,10125	358,3548	0,234	88,975	0	1014,44	7	8,8	8,8	1	1	1	1	1	1	1	1	1	0	1	-0,211416	274,403795	321,26085	0
15.01.2021	10:38:06	0	25,112052	4,8975	2,77575	352,0872	0,227	88,974	0	1014,48	7	8,8	8,8	1	1	1	1	1	1	1	1	1	0	1	-7,681466	274,355343	313,563809	0
15.01.2021	10:38:07	0	24,99528	3,986335	2,62275	359,8308	0,231	88,982	0	1014,38	7	8,8	8,8	1	1	1	1	1	1	1	1	1	0	1	-7,047216	274,417444	314,489015	0
15.01.2021	10:38:08	0	24,995309	3,302961	2,598	347,256	0,235	88,972	0	1014,6	7	8,8	8,8	1	1	1	1	1	1	1	1	1	0	1	-0	274,251281	320,758163	0
15.01.2021	10:38:09	0	24,995337	4,783597	2,61375	2,2752	0,228	88,961	0	1014,32	7	8,8	8,8	1	1	1	1	1	1	1	1	1	0	1	-5,21494	274,275361	315,655894	0
15.01.2021	10:38:10	0	24,878565	3,530748	2,61075	353,4552	0,23	88,958	0	1014,4	7	8,8	8,8	1	1	1	1	1	1	1	1	1	0	1	-3,664553	274,299472	317,319122	0
15.01.2021	10:38:11	0	25,228996	4,328011	2,733	359,784	0,231	88,981	0	1014,52	7	8,8	8,8	1	1	1	1	1	1	1	1	1	0	1	-2,466526	274,379554	318,892159	0
15.01.2021	10:38:12	0	24,645019	3,075164	2,77125	358,3656	0,229	88,972	0	1014,48	7	8,8	8,8	1	1	1	1	1	1	1	1	1	0	1	-3,030303	274,245266	317,699719	0
15.01.2021	10:38:13	0	25,112252	4,214112	2,85375	356,2272	0,236	88,973	0	1014,54	7	8,8	8,8	1	1	1	1	1	1	1	1	1	0	1	-5,778717	274,400763	315,679341	0
15.01.2021	10:38:14	0	24,878678	3,189056	2,94825	0,1224	0,232	88,973	0	1014,56	7	8,8	8,8	1	1	1	1	1	1	1	1	1	0	1	-4,157858	274,402279	317,307304	0
15.01.2021	10:38:15	0	24,995507	2,733475	2,96625	359,1144	0,234	88,953	0	1014,5	7	8,8	8,8	1	1	1	1	1	1	1	1	1	0	1	-3,24172	274,27988	317,650259	0
15.01.2021	10:38:16	0	24,645131	4,669684	2,98725	360	0,232	88,964	0	1014,58	7	8,8	8,8	1	1	1	1	1	1	1	1	1	0	1	-7,329105	274,27235	313,527635	0
15.01.2021	10:38:17	0	24,995564	3,302945	2,74725	11,7972	0,234	88,964	0	1014,52	7	8,8	8,8	1	1	1	1	1	1	1	1	1	0	1	-3,805497	274,373498	317,524819	0
15.01.2021	10:38:18	0	24,995593	4,897468	2,76225	358,6788	0,237	88,975	0	1014,36	7	8,8	8,8	1	1	1	1	1	1	1	1	1	0	1	-0,140944	274,417444	321,395287	0
15.01.2021	10:38:19	0	24,645215	4,327992	2,65725	0,4716	0,233	88,957	0	1014,5	7	8,8	8,8	1	1	1	1	1	1	1	1	1	0	1	-4,22833	274,15077	316,059868	0
15.01.2021	10:38:20	0	24,762045	4,32799	2,59575	359,7588	0,238	88,961	0	1014,7	7	8,8	8,8	1	1	1	1	1	1	1	1	1	0	1	-4,439746	274,435658	317,181858	0
15.01.2021	10:38:21	0	25,11248	4,669671	2,6985	14,2812	0,232	88,977	0	1014,48	7	8,8	8,8	1	1	1	1	1	1	1	1	1	0	1	-5,778717	274,361393	315,494894	0
15.01.2021	10:38:22	0	24,645299	3,075147	2,67675	15,408	0,24	88,973	0	1014,48	7	8,8	8,8	1	1	1	1	1	1	1	1	1	0	1	-3,875969	274,270844	316,973726	0
15.01.2021	10:38:23	0	24,995734	3,9863	2,58225	10,0512	0,232	88,966	0	1014,48	7	8,8	8,8	1	1	1	1	1	1	1	1	1	0	1	-2,818887	274,313047	318,228336	0
15.01.2021	10:38:24	0	24,528552	4,441875	2,589	11,2896	0,241	88,97	0	1014,52	7	8,8	8,8	1	1	1	1	1	1	1	1	1	0	1	-7,610994	274,251281	313,147169	0
15.01.2021	10:38:25	0	24,645383	2,505672	2,58975	7,8732	0,237	88,97	0	1014,4	7	8,8	8,8	1	1	1	1	1	1	1	1	1	0	1	-7,329105	274,251281	313,429058	0
15.01.2021	10:38:26	0	24,645411	2,961247	2,5725	358,4304	0,238	88,95	0	1014,32	7	8,8	8,8	1	1	1	1	1	1	1	1	1	0	1	-3,523608	274,423513	318,04107	0
15.01.2021	10:38:27	0	25,112651	4,327974	2,442	354,2508	0,233	88,969	0	1014,58	7	8,8	8,8	1	1	1	1	1	1	1	1	1	0	1	-0,140944	274,385611	321,246119	0
15.01.2021	10:38:28	0	25,112679	3,644607	2,40525	350,3412	0,229	88,973	0	1014,56	7	8,8	8,8	1	1	1	1	1	1	1	1	1	0	1	-7,117689	274,260308	313,682706	0
15.01.2021	10:38:29	0	24,411888	3,644605	2,52525	350,2404	0,237	88,965	0	1014,5	7	8,8	8,8	1	1	1	1	1	1	1	1	1	0	1	-2,959831	274,411376	318,547965	0
15.01.2021	10:38:30	0	24,995933	3,302922	2,64	351,6768	0,236	88,968	0	1014,52	7	8,8	8,8	1	1	1	1	1	1	1	1	1	0	1	-2,043693	274,406827	319,442783	0
15.01.2021	10:38:31	0	24,411944	3,872389	2,48325	358,38	0,235	88,953	0	1014,46	7	8,8	8,8	1	1	1	1	1	1	1	1	1	0	1	-1,198027	274,28892	319,736259	0
15.01.2021	10:38:32	0	24,99599	4,555804	2,298	350,3196	0,235	88,976	0	1014,58	7	8,8	8,6	1	1	1	1	1	1	1	1	1	0	1	-1,127555	274,432621	320,479814	0
15.01.2021	10:38:33	0	24,411999	2,733448	2,1615	354,0636	0,231	88,969	0	1014,44	7	8,8	8,8	1	1	1	1	1	1	1	1	1	0	1	-5,778717	274,40986	315,721971	0
15.01.2021	10:38:34	0	24,645634	3,416808	2,292	359,0928	0,236	88,964	0	1014,38	7	8,8	8,8	1	1	1	1	1	1	1	1	1	0	1	-2,677942	274,329652	318,447024	0
15.01.2021	10:38:35	0	24,412054	2,619551	2,6145	348,4296	0,234	88,978	0	1014,46	7	8,8	8,8	1	1	1	1	1	1	1	1	1	0	1	-5,919662	274,237749	314,775199	0
15.01.2021	10:38:36	0	24,879299	2,96123	2,74425	0,8568	0,235	88,961	0	1014,58	7	8,8	8,8	1	1	1	1	1	1	1	1	1	0	1	-3,59408	274,323613	317,502606	0
15.01.2021	10:38:37	0	24,645718	4,100163	2,81025	0,486	0,233	88,976	0	1014,66	7	8,8	8,8	1	1	1	1	1	1	1	1	1	0	1	-3,030303	274,415927	318,498819	0
15.01.2021	10:38:38	0	24,762551	4,327948	2,81025	0,4824	0,226	88,957	0	1014,42	7	8,8	8,8	1	1	1	1	1	1	1	1	1	0	1	-4,157858	274,375012	317,179549	0
15.01.2021	10:38:39	0	24,762579	4,441838	2,71575	0,1152	0,236	88,976	0	1014,56	7	8,8	8,8	1	1	1	1	1	1	1	1	1	0	1	-4,933051	274,305504	316,07886	0
15.01.2021	10:38:40	0	24,996216	4,441836	2,58675	354,744	0,229	88,951	0	1014,54	7	8,8	8,8	1	1	1	1	1	1	1	1	1	0	1	-4,298802	274,267833	316,536804	0
15.01.2021	10:38:41	0	24,996245	5,125193	2,439	349,902	0,24	88,968	0	1014,62	7	8,8	8,8	1	1	1	1	1	1	1	1	1	0	1	-8,033827	274,31003	312,99927	0
15.01.2021	10:38:42	0	24,879468	3,189007	2,304	352,89	0,236	88,957	0	1014,44	7	8,8	8,8	1	1	1	1	1	1	1	1	1	0	1	-1,973221	274,391671	319,442233	0
15.01.2021	10:38:43	0	24,879496	4,783508	2,2785	354,258	0,228	88,96	0	1014,56	7	8,8	8,8	1	1	1	1	1	1	1	1	1	0	1	-3,100775	274,249777	317,650352	0
15.01.2021	10:38:44	0	24,879524	4,669612	2,34525	345,7476	0,233	88,963	0	1014,48	7	8,8	8,8	1	1	1	1	1	1	1	1	1	0	1	-7,82241	274,393186	313,600143	0
15.01.2021	10:38:45	0	24,529136	5,011289	2,5215	0,8568	0,237	88,972	0	1014,4	7	8,8	8,8	1	1	1	1	1	1	1	1	1	0	1	-6,624383	274,258803	314,168971	0
15.01.2021	10:38:46	0	24,996386	3,758464	2,64225	354,6	0,235	89,029	0	1014,6	7	8,8	8,8	1	1	1	1	1	1	1	1	1	0	1	-4,510218	274,311538	316,529941	0
15.01.2021	10:38:47	0	24,762803	2,961213	2,6535	353,9268	0,226	88,957	0	1014,34	7	8,8	8,8	1	1	1	1	1	1	1	1	1	0	1	-0,281889	274,417444	321,254343	0
15.01.2021	10:38:48	0	24,879637	5,125173	2,682	355,338	0,235	88,967	0	1014,58	7	8,8	8,8	1	1	1	1	1	1	1	1	1	0	1	-3,100775	274,373498	318,229541	0
15.01.2021	10:38:49	0	24,412441	3,075102	2,61975	356,9112	0,228	88,956	0	1014,44	7	8,8	8,8	1	1	1	1	1	1	1	1	1	0	1	-4,369274	274,415927	317,159848	0
15.01.2021	10:38:50	0	24,529275	2,847315	2,5365	353,2644	0,235	88,966	0	1014,5	7	8,8	8,8	1	1	1	1	1	1	1	1	1	0	1	-3,664553	274,278374	317,220377	0
15.01.2021	10:38:51	0	24,879721	4,555702	2,57775	356,868	0,234	88,936	0	1014,44	7	8,8	8,8	1	1	1	1	1	1	1	1	1	0	1	-5,144468	274,425031	316,427324	0
15.01.2021	10:38:52	0	24,412524	2,73342	2,66325	0,846	0,235	88,951	0	1014,7	7	8,8	8,8	1	1	1	1	1	1	1	1	1	0	1	-2,396054	274,219721	318,214488	0
15.01.2021	10:38:53	0	24,412552	4,21402	2,65275	357,6312	0,242	88,972	0	1014,6	7	8,8	8,8	1	1	1	1	1	1	1	1	1	0	1	-7,892882	274,421996	313,664683	0
15.01.2021	10:38:54	0	24,178966	4,555695	2,62425	3,3876	0,242	88,971	0	1014,46	7	8,8	8,8	1	1	1	1	1	1	1	1	1	0	1	-0	274,37804	321,351591	0
15.01.2021	10:38:55	0	24,529414	4,669584	2,64075	1,908	0,23	88,968	0	1014,5	7	8,8	8,8	1	1	1	1	1	1	1	1	1	0	1	-5,003524	274,428066	316,582497	0
15.01.2021	10:38:56	0	24,529441	3,758444	2,51925	357,2064	0,237	88,977	0	1014,5	7	8,8	8,8	1	1	1	1	1	1	1	1	1	0	1	-6,553911	274,307013	314,465061	0
15.01.2021	10:38:57	0	24,179048	2,847304	2,3955	0,8568	0,233	88,973	0	1014,54	7	8,8	8,8	1	1	1	1	1	1	1	1	1	0	1	-1,832276	274,237749	318,862585	0
15.01.2021	10:38:58	0	24,763111	4,897361	2,23575	0,198	0,239	88,978	0	1014,62	7	8,8	8,8	1	1	1	1	1	1	1	1	1	0	1	-1,057082	274,319084	320,018401	0
15.01.2021	10:38:59	0	24,529525	4,441843	2,166	2,2788	0,239	88,958	0	1014,66	7	8,8	8,6	1	1	1	1	1	1	1	1	1	0	1	-1,62086	274,255794	319,158416	0
15.01.2021	10:39:00	0	24,763195	4,100109	2,21325	351,0216	0,24	88,97	0	1014,48	7	8,8	8,8	1	1	1	1	1	1	1	1	1	0	1	-5,355884	274,428066	316,230136	0
15.01.2021	10:39:01	0	24,763195	4,100109	2,21325	351,0216	0,24	88,97	0	1014,48	7	8,8	8,8	1	1	1	1	1	1	1	1	1	0	1	-4,087385	274,291934	316,861008	0
15.01.2021	10:39:02	0	24,4128	4,100107	2,31675	352,476	0,239	88,974	0	1014,48	7	8,8	8,8	1	1	1	1	1	1	1	1	1	0	1	-2,466526	274,432621	319,140843	0
15.01.2021	10:39:03	0	24,763251	4,897348	2,325	354,1896	0,231	88,96	0	1014,3	7	8,8	8,8	1	1	1	1	1	1	1	1	1	0	1	-7,610994	274,373498	313,719322	0
15.01.2021	10:39:04	0	24,412855	3,530644	2,27175	3,0204	0,238	88,956	0	1014,6	7	8,8	8,8	1	1	1	1	1	1	1	1	1	0	1	-1,691332	274,420478	319,859122	0
15.01.2021	10:39:05	0	24,646499	3,075075	2,262	352,2204	0,237	88,98	0	1014,44	7	8,8	8,8	1	1	1	1	1	1	1	1	1	0	1	-7,188161	274,258803	313,605194	0
15.01.2021	10:39:06	0	24,296102	4,669556	2,2245	360	0,234	88,971	0	1014,48	7	8,8	8,8	1	1	1	1	1	1	1	1	1	0	1	-0,563777	274,329652	320,561189	0
15.01.2021	10:39:07	0	24,646554	4,555662	2,2185	354,7044	0,243	88,975	0	1014,5	7	8,8	8,8	1	1	1	1	1	1	1	1	1	0	1	-1,62086	274,365932	319,674011	0
15.01.2021	10:39:08	0	24,529774	3,872311	2,247	356,2596	0,23	88,951	0	1014,34	7	8,8	8,8	1	1	1	1	1	1	1	1	1	0	1	-5,778717	274,31003	315,254379	0
15.01.2021	10:39:09	0	24,179376	3,075069	2,18325	353,9088	0,229	88,973	0	1014,5	7	8,8	8,8	1	1	1	1	1	1	1	1	1	0	1	-2,114165	274,267833	318,721441	0
15.01.2021	10:39:10	0	24,179403	4,213981	2,1645	354,2076	0,237	88,981	0	1014,52	7	8,8	8,8	1	1	1	1	1	1	1	1	1	0	1	-1,761804	274,254289	319,010434	0
15.01.2021	10:39:11	0	24,646666	3,530631	2,208	348,7644	0,233	88,982	0	1014,52	7	8,8	8,8	1	1	1	1	1	1	1	1	1	0	1	-5,919662	274,338716	315,247744	0
15.01.2021	10:39:12	0	24,763503	4,55565	2,1915	360	0,231	88,971	0	1014,56	7	8,8	8,8	1	1	1	1	1	1	1	1	1	0	1	-4,157858	274,239252	316,544034	0
15.01.2021	10:39:13	0	24,179485	3,644518	2,13525	353,9484	0,235	88,971	0	1014,54	7	8,8	8,8	1	1	1	1	1	1	1	1	1	0	1	-5,426357	274,362906	315,85434	0
15.01.2021	10:39:14	0	24,179512	2,847278	2,11275	348,6024	0,24	88,982	0	1014,54	7	8,8	8,8	1	1	1	1	1	1	1	1	1	0	1	-0,563777	274,245266	320,166245	0
15.01.2021	10:39:15	0	24,06273	3,075059	2,1075	338,6988	0,238	88,978	0	1014,58	7	8,8	8,8	1	1	1	1	1	1	1	1	1	0	1	-5,355884	274,326632	315,754941	0
15.01.2021	10:39:16	0	24,646805	3,986185	2,169	331,632	0,238	88,986	0	1014,52	7	8,8	8,8	1	1	1	1	1	1	1	1	1	0	1	-3,735025	274,258803	317,05833	0
15.01.2021	10:39:17	0	24,179594	2,961164	2,244	13,9068	0,237	88,965	0	1014,4	7	8,8	8,8	1	1	1	1	1	1	1	1	1	0	1	-3,805497	274,290427	317,135842	0
15.01.2021	10:39:18	0	24,76367	3,302835	2,163	349,4016	0,235	88,985	0	1014,4	7	8,8	8,8	1	1	1	1	1	1	1	1	1	0	1	-3,100775	274,406827	318,385701	0
15.01.2021	10:39:19	0	24,179649	3,644506	2,0655	353,1456	0,236	88,98	0	1014,48	7	8,8	8,8	1	1	1	1	1	1	1	1	1	0	1	-0,704722	274,418961	320,838621	0
15.01.2021	10:39:20	0	24,413296	4,669521	2,016	349,4052	0,239	88,983	0	1014,64	7	8,8	8,8	1	1	1	1	1	1	1	1	1	0	1	-8,45666	274,338716	312,710747	0
15.01.2021	10:39:21	0	24,413323	3,758393	2,15775	358,4304	0,238	88,976	0	1014,46	7	8,8	8,8	1	1	1	1	1	1	1	1	1	0	1	-4,580691	274,249777	316,170436	0
15.01.2021	10:39:22	0	24,296541	3,188938	2,205	358,4016	0,235	88,959	0	1014,56	7	8,8	8,8	1	1	1	1	1	1	1	1	1	0	1	-2,114165	274,340227	319,060317	0
15.01.2021	10:39:23	0	24,296568	4,669513	2,2365	357,606	0,234	88,982	0	1014,54	7	8,8	8,8	1	1	1	1	1	1	1	1	1	0	1	-2,959831	274,417444	318,576401	0
15.01.2021	10:39:24	0	24,179785	5,011182	2,2995	355,1076	0,237	88,992	0	1014,56	7	8,8	8,8	1	1	1	1	1	1	1	1	1	0	1	-6,624383	274,375012	314,713024	0
15.01.2021	10:39:25	0	24,063001	2,50559	2,31675	349,4232	0,237	88,993	0	1014,56	7	8,8	8,8	1	1	1	1	1	1	1	1	1	0	1	-6,272023	274,428066	315,313998	0
15.01.2021	10:39:26	0	24,413461	3,188931	2,307	341,658	0,237	88,991	0	1014,54	7	8,8	8,8	1	1	1	1	1	1	1	1	1	0	1	-4,369274	274,320593	316,713277	0
15.01.2021	10:39:27	0	23,946245	2,163916	2,304	358,8264	0,24	88,981	0	1014,52	7	8,8	8,8	1	1	1	1	1	1	1	1	1	0	1	-4,580691	274,578929	317,713061	0
15.01.2021	10:39:28	0	24,179894	4,55561	2,25825	0,4824	0,237	88,985	0	1014,48	7	8,8	8,8	1	1	1	1	1	1	1	1	1	0	1	-2,043693	274,362906	319,237004	0
15.01.2021	10:39:29	0	24,530355	5,125059	2,30025	352,8432	0,237	88,979	0	1014,46	7	8,8	8,8	1	1	1	1	1	1	1	1	1	0	1	-4,862579	274,385611	316,524484	0
15.01.2021	10:39:30	0	23,829514	3,188924	2,34375	355,068	0,238	88,989	0	1014,6	7	8,8	8,8	1	1	1	1	1	1	1	1	1	0	1	-1,550388	274,249777	319,200739	0
15.01.2021	10:39:31	0	24,413598	4,555603	2,35125	355,8492	0,234	88,975	0	1014,54	7	8,8	8,8	1	1	1	1	1	1	1	1	1	0	1	-4,369274	274,317575	316,699143	0
15.01.2021	10:39:32	0	24,413626	4,783381	2,32575	358,3908	0,237	88,997	0	1014,56	7	8,8	8,8	1	1	1	1	1	1	1	1	1	0	1	-1,268499	274,415927	320,260623	0
15.01.2021	10:39:33	0	24,063218	5,011158	2,31825	2,6316	0,236	88,993	0	1014,58	7	8,8	8,8	1	1	1	1	1	1	1	1	1	0	1	-0,281889	274,261812	320,525547	0
15.01.2021	10:39:34	0	23,946433	3,758366	2,5125	6,4224	0,231	88,978	0	1014,44	7	8,8	8,8	1	1	1	1	1	1	1	1	1	0	1	-4,721635	274,246769	316,015421	0
15.01.2021	10:39:35	0	23,94646	3,644474	2,66625	16,0884	0,24	88,996	0	1014,58	7	8,8	8,8	1	1	1	1	1	1	1	1	1	0	1	-3,875969	274,376526	317,46853	0
15.01.2021	10:39:36	0	23,946487	2,619465	2,64825	9,7416	0,238	89,004	0	1014,54	7	8,8	8,8	1	1	1	1	1	1	1	1	1	0	1	-1,761804	274,421996	319,795762	0
15.01.2021	10:39:37	0	24,063326	3,644471	2,58375	7,8804	0,24	88,995	0	1014,56	7	8,8	8,8	1	1	1	1	1	1	1	1	1	0	1	-3,100775	274,381068	318,265003	0
15.01.2021	10:39:38	0	23,712916	3,530579	2,37825	346,5072	0,235	88,996	0	1014,58	7	8,8	8,8	1	1	1	1	1	1	1	1	1	0	1	-2,255109	274,290427	318,68623	0
15.01.2021	10:39:39	0	24,063381	3,075019	2,4825	10,818	0,241	89,055	0	1014,56	7	8,8	8,8	1	1	1	1	1	1	1	1	1	0	1	-3,805497	274,302488	317,192295	0
15.01.2021	10:39:40	0	24,063408	3,872244	2,4045	360	0,24	88,985	0	1014,52	7	8,8	8,8	1	1	1	1	1	1	1	1	1	0	1	-0,563777	274,257298	320,222538	0
15.01.2021	10:39:41	0	24,180248	2,733347	2,3565	354,9276	0,24	88,987	0	1014,38	7	8,8	8,8	1	1	1	1	1	1	1	1	1	0	1	-0	274,325122	321,103756	0
15.01.2021	10:39:42	0	24,180275	4,100018	2,4795	357,2388	0,238	88,999	0	1014,56	7	8,8	8,8	1	1	1	1	1	1	1	1	1	0	1	-0,352361	274,428066	321,23366	0
15.01.2021	10:39:43	0	23,946676	2,847233	2,54025	357,6564	0,239	88,996	0	1014,48	7	8,8	8,8	1	1	1	1	1	1	1	1	1	0	1	-5,919662	274,290427	315,021678	0
15.01.2021	10:39:44	0	24,413955	4,100014	2,58525	349,8444	0,239	89,006	0	1014,54	7	8,8	8,8	1	1	1	1	1	1	1	1	1	0	1	-3,946441	274,425031	317,625351	0
15.01.2021	10:39:45	0	23,829916	4,441679	2,56425	357,984	0,235	88,99	0	1014,62	7	8,8	8,8	1	1	1	1	1	1	1	1	1	0	1	-3,805497	274,278374	317,079433	0
15.01.2021	10:39:46	0	23,946757	3,758342	2,53575	356,9868	0,233	88,987	0	1014,5	7	8,8	8,8	1	1	1	1	1	1	1	1	1	0	1	-5,496829	274,240755	315,212095	0
15.01.2021	10:39:47	0	24,063597	4,555564	2,517	349,0452	0,237	88,998	0	1014,46	7	8,8	8,8	1	1	1	1	1	1	1	1	1	0	1	-0	274,418961	321,543342	0
15.01.2021	10:39:48	0	24,297251	4,213894	2,583	356,2164	0,237	88,988	0	1014,56	7	8,8	8,8	1	1	1	1	1	1	1	1	1	0	1	-2,114165	274,325122	318,989591	0
15.01.2021	10:39:49	0	23,830023	3,530558	2,763	356,166	0,234	88,981	0	1014,52	7	8,8	8,8	1	1	1	1	1	1	1	1	1	0	1	-0,916138	274,421996	320,641428	0
15.01.2021	10:39:50	0	24,180492	4,669445	2,874	358,0272	0,239	89,004	0	1014,52	7	8,8	8,8	1	1	1	1	1	1	1	1	1	0	1	-7,892882	274,358368	313,36656	0
15.01.2021	10:39:51	0	23,830077	3,074999	3,00825	357,5844	0,235	88,999	0	1014,58	7	8,8	8,8	1	1	1	1	1	1	1	1	1	0	1	-1,409443	274,242259	319,306512	0
15.01.2021	10:39:52	0	23,713289	3,302775	3,13125	356,904	0,237	88,996	0	1014,5	7	8,8	8,8	1	1	1	1	1	1	1	1	1	0	1	-2,043693	274,338716	319,123713	0
15.01.2021	10:39:53	0	23,946945	3,644439	3,19875	0,8532	0,243	88,999	0	1014,6	7	8,8	8,8	1	1	1	1	1	1	1	1	1	0	1	-1,832276	274,435658	319,789328	0
15.01.2021	10:39:54	0	24,41423	5,238878	3,1275	4,4424	0,238	88,995	0	1014,5	7	8,8	8,8	1	1	1	1	1	1	1	1	1	0	1	-3,59408	274,361393	317,679531	0
15.01.2021	10:39:55	0	23,596555	2,39166	2,97975	3,3768	0,236	88,993	0	1014,54	7	8,8	8,8	1	1	1	1	1	1	1	1	1	0	1	-0,775194	274,248273	319,968898	0
15.01.2021	10:39:56	0	23,830211	3,07499	2,76225	0,1296	0,239	88,995	0	1014,66	7	8,8	8,8	1	1	1	1	1	1	1	1	1	0	1	-7,258633	274,320593	313,823918	0
15.01.2021	10:39:57	0	23,596608	3,188877	2,6355	352,1124	0,24	89,007	0	1014,4	7	8,8	8,8	1	1	1	1	1	1	1	1	1	0	1	-6,976744	274,252785	313,788456	0
15.01.2021	10:39:58	0	24,180709	3,530541	2,6265	2,3004	0,236	89,002	0	1014,58	7	8,8	8,8	1	1	1	1	1	1	1	1	1	0	1	-1,550388	274,307013	319,468585	0
15.01.2021	10:39:59	0	23,830291	3,644427	2,664	358,7256	0,238	89,015	0	1014,46	7	8,8	8,8	1	1	1	1	1	1	1	1	1	0	1	-5,355884	274,307013	315,663088	0
15.01.2021	10:40:00	0	24,180791	3,18887	2,52075	8,3484	0,24	88,979	0	1014,52	7	8,8	8,8	1	1	1	1	1	1	1	1	1	0	1	-3,664553	274,364419	317,623231	0
15.01.2021	10:40:01	0	24,180791	3,18887	2,52075	8,3484	0,24	88,979	0	1014,52	7	8,8	8,8	1	1	1	1	1	1	1	1	1	0	1	-3,664553	274,364419	317,623231	0
15.01.2021	10:40:02	0	23,479925	2,391651	2,475	1,1736	0,237	88,993	0	1014,52	7	8,8	8,8	1	1	1	1	1	1	1	1	1	0	1	-2,043693	274,245266	318,686329	0
15.01.2021	10:40:03	0	23,830398	4,669412	2,53875	11,6928	0,243	89,003	0	1014,64	7	8,8	8,8	1	1	1	1	1	1	1	1	1	0	1	-4,298802	274,325122	316,804954	0
15.01.2021	10:40:04	0	23,94724	2,847201	2,55975	4,4676	0,24	89,001	0	1014,5	7	8,8	8,8	1	1	1	1	1	1	1	1	1	0	1	-5,003524	274,41441	316,518489	0
15.01.2021	10:40:05	0	23,830451	3,188863	2,46825	3,0348	0,237	88,991	0	1014,5	7	8,8	8,8	1	1	1	1	1	1	1	1	1	0	1	-0,211416	274,311538	320,828743	0
15.01.2021	10:40:06	0	23,596846	3,644413	2,427	360	0,232	89,008	0	1014,58	7	8,8	8,8	1	1	1	1	1	1	1	1	1	0	1	-0,845666	274,429584	320,74747	0
15.01.2021	10:40:07	0	23,713689	4,213851	2,2695	1,9008	0,233	88,995	0	1014,5	7	8,8	8,8	1	1	1	1	1	1	1	1	1	0	1	-2,325581	274,437176	319,303142	0
15.01.2021	10:40:08	0	23,596899	4,783287	2,23875	5,2812	0,247	88,988	0	1014,66	7	8,8	8,8	1	1	1	1	1	1	1	1	1	0	1	-3,946441	274,371985	317,376784	0
15.01.2021	10:40:09	0	23,830558	4,555509	2,15775	358,3332	0,236	89,006	0	1014,54	7	8,8	8,8	1	1	1	1	1	1	1	1	1	0	1	-0,140944	274,426549	321,437962	0
15.01.2021	10:40:10	0	23,947401	3,41663	2,076	357,2496	0,241	88,987	0	1014,66	7	8,8	8,8	1	1	1	1	1	1	1	1	1	0	1	-4,721635	274,368958	316,587412	0
15.01.2021	10:40:11	0	23,480161	3,758291	2,049	353,4804	0,242	88,988	0	1014,62	7	8,8	8,8	1	1	1	1	1	1	1	1	1	0	1	-4,933051	274,254289	315,839186	0
15.01.2021	10:40:12	0	23,947455	3,188851	1,97775	355,4172	0,238	88,996	0	1014,54	7	8,8	8,8	1	1	1	1	1	1	1	1	1	0	1	-5,285412	274,384097	316,094556	0
15.01.2021	10:40:13	0	23,713848	3,6444	1,98225	352,0944	0,231	88,987	0	1014,44	7	8,8	8,8	1	1	1	1	1	1	1	1	1	0	1	-2,184637	274,418961	319,358705	0
15.01.2021	10:40:14	0	24,064326	3,188848	2,11425	357,9552	0,236	88,982	0	1014,6	7	8,8	8,8	1	1	1	1	1	1	1	1	1	0	1	-1,479915	274,296456	319,489645	0
15.01.2021	10:40:15	0	23,947536	5,124931	2,15775	355,7448	0,238	89,051	0	1014,68	7	8,8	8,8	1	1	1	1	1	1	1	1	1	0	1	-3,453136	274,257298	317,333179	0
15.01.2021	10:40:16	0	23,713928	3,188845	2,1795	359,5104	0,237	88,985	0	1014,46	7	8,8	8,8	1	1	1	1	1	1	1	1	1	0	1	-3,523608	274,302488	317,474184	0
15.01.2021	10:40:17	0	23,363502	2,733294	2,187	0,8532	0,24	89,005	0	1014,52	7	8,8	8,8	1	1	1	1	1	1	1	1	1	0	1	-0,98661	274,267833	319,848996	0
15.01.2021	10:40:18	0	23,713981	3,872164	2,196	1,1592	0,24	88,999	0	1014,58	7	8,8	8,8	1	1	1	1	1	1	1	1	1	0	1	-0,98661	274,258803	319,806744	0
15.01.2021	10:40:19	0	23,480372	4,555485	2,1705	358,38	0,243	89	0	1014,6	7	8,8	8,8	1	1	1	1	1	1	1	1	1	0	1	-2,536998	274,41441	318,985015	0
15.01.2021	10:40:20	0	23,480398	4,441595	2,16675	354,3048	0,244	88,983	0	1014,6	7	8,8	8,8	1	1	1	1	1	1	1	1	1	0	1	-3,382664	274,387126	318,011496	0
15.01.2021	10:40:21	0	23,597242	4,897141	2,15025	357,6276	0,235	89,009	0	1014,56	7	8,8	8,8	1	1	1	1	1	1	1	1	1	0	1	-5,84919	274,251281	314,908974	0
15.01.2021	10:40:22	0	23,597269	4,441591	2,139	356,112	0,238	88,991	0	1014,58	7	8,8	8,8	1	1	1	1	1	1	1	1	1	0	1	-1,198027	274,303996	319,806825	0
15.01.2021	10:40:23	0	23,363659	3,074946	2,1465	356,544	0,238	89,003	0	1014,58	7	8,8	8,8	1	1	1	1	1	1	1	1	1	0	1	-3,24172	274,252785	317,523481	0
15.01.2021	10:40:24	0	23,830958	4,555473	2,1045	0	0,242	88,993	0	1014,6	7	8,8	8,8	1	1	1	1	1	1	1	1	1	0	1	-0,281889	274,385611	321,105175	0
15.01.2021	10:40:25	0	23,363711	4,099923	2,142	356,1228	0,233	88,995	0	1014,76	7	8,8	8,8	1	1	1	1	1	1	1	1	1	0	1	-3,312192	274,249777	317,438935	0
15.01.2021	10:40:26	0	23,597374	4,441581	2,199	357,5124	0,24	88,98	0	1014,52	7	8,8	8,8	1	1	1	1	1	1	1	1	1	0	1	-2,043693	274,328142	319,074203	0
15.01.2021	10:40:27	0	23,831038	4,327692	2,29575	357,5844	0,241	89,008	0	1014,44	7	8,8	8,8	1	1	1	1	1	1	1	1	1	0	1	-2,677942	274,431103	318,92231	0
15.01.2021	10:40:28	0	23,714246	4,669349	2,36775	355,4136	0,241	89,004	0	1014,58	7	8,8	8,8	1	1	1	1	1	1	1	1	1	0	1	-2,677942	274,299472	318,305732	0
15.01.2021	10:40:29	0	23,363815	3,872141	2,448	356,076	0,242	89,011	0	1014,62	7	8,8	8,8	1	1	1	1	1	1	1	1	1	0	1	-1,198027	274,423513	320,366652	0
15.01.2021	10:40:30	0	23,363842	4,441571	2,514	353,8512	0,237	89,004	0	1014,56	7	8,8	8,8	1	1	1	1	1	1	1	1	1	0	1	-3,946441	274,37804	317,40515	0
15.01.2021	10:40:31	0	23,247048	3,758251	2,54775	354,348	0,234	89,014	0	1014,56	7	8,8	8,8	1	1	1	1	1	1	1	1	1	0	1	-0,352361	274,254289	320,419877	0
15.01.2021	10:40:32	0	23,597533	4,213794	2,5215	345,6936	0,24	89,001	0	1014,5	7	8,8	8,8	1	1	1	1	1	1	1	1	1	0	1	-4,369274	274,31003	316,663822	0
15.01.2021	10:40:33	0	23,2471	2,847157	2,472	354,6936	0,233	89,059	0	1014,4	7	8,8	8,8	1	1	1	1	1	1	1	1	1	0	1	-1,832276	274,255794	318,947	0
15.01.2021	10:40:34	0	23,247126	2,619383	2,38575	358,4772	0,237	89,001	0	1014,44	7	8,8	8,8	1	1	1	1	1	1	1	1	1	0	1	-0,98661	274,352319	320,244501	0
15.01.2021	10:40:35	0	23,480792	5,01099	2,3865	353,4876	0,242	89,019	0	1014,56	7	8,8	8,8	1	1	1	1	1	1	1	1	1	0	1	-5,003524	274,257298	315,782791	0
15.01.2021	10:40:36	0	23,480818	3,530468	2,38275	359,0244	0,234	89,003	0	1014,52	7	8,8	8,8	1	1	1	1	1	1	1	1	1	0	1	-5,637773	274,30098	315,35296	0
15.01.2021	10:40:37	0	23,597665	3,644353	2,622	359,0676	0,236	89,006	0	1014,56	7	8,8	8,8	1	1	1	1	1	1	1	1	1	0	1	-3,030303	274,381068	318,335475	0
15.01.2021	10:40:38	0	23,36405	4,441552	2,82375	4,068	0,239	89,012	0	1014,68	7	8,8	8,8	1	1	1	1	1	1	1	1	1	0	1	-6,694856	274,397732	314,748999	0
15.01.2021	10:40:39	0	23,247256	3,87212	2,91825	1,2744	0,238	89,015	0	1014,56	7	8,8	8,8	1	1	1	1	1	1	1	1	1	0	1	-0	274,311538	321,040159	0
15.01.2021	10:40:40	0	23,130462	2,619374	2,742	358,7328	0,232	88,997	0	1014,58	7	8,8	8,8	1	1	1	1	1	1	1	1	1	0	1	-1,198027	274,466052	320,566083	0
15.01.2021	10:40:41	0	23,247308	4,555431	2,42325	359,8236	0,243	89,004	0	1014,58	7	8,8	8,8	1	1	1	1	1	1	1	1	1	0	1	-3,805497	274,352319	317,425614	0
15.01.2021	10:40:42	0	23,247334	3,074914	2,211	329,6412	0,241	89,002	0	1014,56	7	8,8	8,8	1	1	1	1	1	1	1	1	1	0	1	-2,889359	274,246769	317,847698	0
15.01.2021	10:40:43	0	23,24736	4,555426	2,1915	338,292	0,243	88,996	0	1014,56	7	8,8	8,8	1	1	1	1	1	1	1	1	1	0	1	-2,043693	274,365932	319,251178	0
15.01.2021	10:40:44	0	23,130565	3,985996	2,253	346,14	0,239	88,993	0	1014,58	7	8,8	8,8	1	1	1	1	1	1	1	1	1	0	1	-3,453136	274,418961	318,090206	0
15.01.2021	10:40:45	0	23,597875	4,555421	2,5935	346,7916	0,237	88,993	0	1014,5	7	8,8	8,8	1	1	1	1	1	1	1	1	1	0	1	-3,312192	274,27235	317,544549	0
15.01.2021	10:40:46	0	23,597902	4,213762	2,868	339,5196	0,235	88,992	0	1014,56	7	8,8	8,8	1	1	1	1	1	1	1	1	1	0	1	-5,990134	274,347783	315,219736	0
15.01.2021	10:40:47	0	23,247464	4,669302	2,9865	341,2728	0,242	88,995	0	1014,56	7	8,8	8,8	1	1	1	1	1	1	1	1	1	0	1	-0	274,254289	320,772238	0
15.01.2021	10:40:48	0	23,364311	4,669299	2,9895	352,4292	0,24	88,981	0	1014,7	7	8,8	8,8	1	1	1	1	1	1	1	1	1	0	1	-5,567301	274,347783	315,642569	0
15.01.2021	10:40:49	0	23,130694	3,530444	2,727	357,5988	0,238	89,001	0	1014,58	7	8,8	8,8	1	1	1	1	1	1	1	1	1	0	1	-0,070472	274,257298	320,715843	0
15.01.2021	10:40:50	0	23,364363	3,302671	2,5065	359,3052	0,236	88,996	0	1014,52	7	8,8	8,8	1	1	1	1	1	1	1	1	1	0	1	-0,281889	274,358368	320,977553	0
15.01.2021	10:40:51	0	23,247567	4,441521	2,29275	356,5728	0,238	88,978	0	1014,62	7	8,8	8,8	1	1	1	1	1	1	1	1	1	0	1	-5,919662	274,417444	315,61657	0
15.01.2021	10:40:52	0	23,364415	2,847127	2,10375	356,4972	0,241	88,995	0	1014,62	7	8,8	8,8	1	1	1	1	1	1	1	1	1	0	1	-2,818887	274,303996	318,185965	0
15.01.2021	10:40:53	0	23,130797	2,505471	1,989	285,9444	0,235	88,988	0	1014,5	7	8,8	8,8	1	1	1	1	1	1	1	1	1	0	1	-0	274,255794	320,779276	0
15.01.2021	10:40:54	0	23,014	4,783169	2,01225	359,0604	0,235	88,972	0	1014,46	7	8,8	8,8	1	1	1	1	1	1	1	1	1	0	1	-4,369274	274,375012	316,968133	0
15.01.2021	10:40:55	0	23,130849	3,074893	2,1465	0,4788	0,237	88,992	0	1014,52	7	8,8	8,8	1	1	1	1	1	1	1	1	1	0	1	-3,030303	274,417444	318,505929	0
15.01.2021	10:40:56	0	23,014052	2,733237	2,364	353,61	0,241	89,002	0	1014,52	7	8,8	8,8	1	1	1	1	1	1	1	1	1	0	1	-1,057082	274,319084	320,018401	0
15.01.2021	10:40:57	0	22,780432	4,669277	2,37975	352,8612	0,244	88,991	0	1014,7	7	8,8	8,8	1	1	1	1	1	1	1	1	1	0	1	-3,59408	274,239252	317,107811	0
15.01.2021	10:40:58	0	22,89728	5,010928	2,17125	16,0776	0,244	89,007	0	1014,66	7	8,8	8,8	1	1	1	1	1	1	1	1	1	0	1	-4,721635	274,408343	316,771947	0
15.01.2021	10:40:59	0	22,897306	2,733232	1,9965	19,5084	0,242	88,992	0	1014,42	7	8,8	8,8	1	1	1	1	1	1	1	1	1	0	1	-2,677942	274,35988	318,588584	0
15.01.2021	10:41:00	0	23,01418	4,327613	2,02575	353,2176	0,248	88,995	0	1014,48	7	8,8	8,8	1	1	1	1	1	1	1	1	1	0	1	-6,131078	274,415927	315,398044	0
15.01.2021	10:41:01	0	23,01418	4,327613	2,02575	353,2176	0,248	88,995	0	1014,48	7	8,8	8,8	1	1	1	1	1	1	1	1	1	0	1	-0	274,303996	321,004851	0
15.01.2021	10:41:02	0	23,247852	4,669264	2,07075	356,9724	0,243	88,988	0	1014,64	7	8,8	8,8	1	1	1	1	1	1	1	1	1	0	1	-5,84919	274,399247	315,601767	0
15.01.2021	10:41:03	0	23,131055	3,302648	2,07525	351,738	0,24	88,985	0	1014,56	7	8,8	8,8	1	1	1	1	1	1	1	1	1	0	1	-3,664553	274,308521	317,361482	0
15.01.2021	10:41:04	0	23,014257	2,847109	2,0925	354,2472	0,242	88,987	0	1014,56	7	8,8	8,8	1	1	1	1	1	1	1	1	1	0	1	-0	274,418961	321,543342	0
15.01.2021	10:41:05	0	22,897459	2,505455	2,136	349,0272	0,241	89,009	0	1014,6	7	8,8	8,8	1	1	1	1	1	1	1	1	1	0	1	-4,721635	274,328142	316,396261	0
15.01.2021	10:41:06	0	23,014308	3,188759	2,145	355,788	0,241	88,993	0	1014,72	7	8,8	8,8	1	1	1	1	1	1	1	1	1	0	1	-2,325581	274,249777	318,425546	0
15.01.2021	10:41:07	0	22,547038	3,302641	2,1315	349,0596	0,242	88,998	0	1014,52	7	8,8	8,8	1	1	1	1	1	1	1	1	1	0	1	-0	274,370471	321,316136	0
15.01.2021	10:41:08	0	23,131183	3,985944	1,98075	347,202	0,242	88,997	0	1014,48	7	8,8	8,8	1	1	1	1	1	1	1	1	1	0	1	-3,030303	274,399247	318,420653	0
15.01.2021	10:41:09	0	23,014385	3,64429	1,8765	349,0272	0,238	88,99	0	1014,28	7	8,8	8,8	1	1	1	1	1	1	1	1	1	0	1	-2,043693	274,34476	319,15202	0
15.01.2021	10:41:10	0	22,897586	2,619332	1,84125	351,3096	0,243	88,98	0	1014,48	7	8,8	8,8	1	1	1	1	1	1	1	1	1	0	1	-0,211416	274,420478	321,339037	0
15.01.2021	10:41:11	0	22,780787	2,847098	1,88925	350,5896	0,24	88,98	0	1014,6	7	8,8	8,8	1	1	1	1	1	1	1	1	1	0	1	-0	274,343249	321,188635	0
15.01.2021	10:41:12	0	22,547163	4,327587	1,869	349,8084	0,238	88,997	0	1014,54	7	8,8	8,8	1	1	1	1	1	1	1	1	1	0	1	-0,634249	274,412893	320,880654	0
15.01.2021	10:41:13	0	23,014487	4,897004	1,827	346,7628	0,245	88,991	0	1014,58	7	8,8	8,8	1	1	1	1	1	1	1	1	1	0	1	-2,466526	274,370471	318,84961	0
15.01.2021	10:41:14	0	22,897688	3,416513	1,88475	355,4244	0,241	88,992	0	1014,54	7	8,8	8,8	1	1	1	1	1	1	1	1	1	0	1	-5,990134	274,41441	315,531879	0
15.01.2021	10:41:15	0	22,897713	4,099813	1,89825	7,1064	0,242	88,992	0	1014,6	7	8,8	8,8	1	1	1	1	1	1	1	1	1	0	1	-5,990134	274,397732	315,453721	0
15.01.2021	10:41:16	0	22,780914	2,733207	1,893	346,8564	0,245	88,981	0	1014,6	7	8,8	8,8	1	1	1	1	1	1	1	1	1	0	1	-4,016913	274,428066	317,569107	0
15.01.2021	10:41:17	0	23,01459	4,213692	1,821	356,5332	0,237	88,988	0	1014,5	7	8,8	8,8	1	1	1	1	1	1	1	1	1	0	1	-2,536998	274,275361	318,333836	0
15.01.2021	10:41:18	0	23,014615	2,847088	1,83375	349,0848	0,247	88,996	0	1014,58	7	8,8	8,8	1	1	1	1	1	1	1	1	1	0	1	-4,721635	274,417444	316,814597	0
15.01.2021	10:41:19	0	22,897815	4,441455	1,82775	344,6172	0,236	88,996	0	1014,6	7	8,8	8,8	1	1	1	1	1	1	1	1	1	0	1	-2,466526	274,302488	318,531266	0
15.01.2021	10:41:20	0	22,313712	5,010869	1,81425	345,3696	0,241	88,989	0	1014,56	7	8,8	8,8	1	1	1	1	1	1	1	1	1	0	1	-3,59408	274,412893	317,920823	0
15.01.2021	10:41:21	0	22,664214	3,188733	1,95525	344,2752	0,239	88,984	0	1014,46	7	8,8	8,8	1	1	1	1	1	1	1	1	1	0	1	-0	274,297964	320,976617	0
15.01.2021	10:41:22	0	22,66424	4,555331	2,172	359,4492	0,244	88,998	0	1014,54	7	8,8	8,8	1	1	1	1	1	1	1	1	1	0	1	-0	274,387126	321,39416	0
15.01.2021	10:41:23	0	22,781091	4,669211	2,253	350,64	0,243	88,992	0	1014,54	7	8,8	8,8	1	1	1	1	1	1	1	1	1	0	1	-2,325581	274,255794	318,453695	0
15.01.2021	10:41:24	0	22,430166	4,099793	2,32125	354,2436	0,242	89,006	0	1014,64	7	9,1	8,8	1	1	1	1	1	1	1	1	1	0	1	-0,140944	274,362906	321,139753	0
15.01.2021	10:41:25	0	22,897968	5,124739	2,26275	347,2344	0,237	88,995	0	1014,5	7	8,8	8,8	1	1	1	1	1	1	1	1	1	0	1	-0,211416	274,429584	321,38172	0
15.01.2021	10:41:26	0	22,547514	3,416491	2,21325	356,2524	0,241	88,998	0	1014,52	7	8,8	8,8	1	1	1	1	1	1	1	1	1	0	1	-3,875969	274,296456	317,093591	0
15.01.2021	10:41:27	0	22,313886	4,327553	2,09925	353,25	0,243	88,995	0	1014,6	7	8,8	8,8	1	1	1	1	1	1	1	1	1	0	1	-0	274,421996	321,557566	0
15.01.2021	10:41:28	0	22,664391	3,302604	1,93125	352,278	0,239	89	0	1014,56	7	8,8	8,8	1	1	1	1	1	1	1	1	1	0	1	-1,550388	274,293441	319,405061	0
15.01.2021	10:41:29	0	22,197108	4,441431	1,97025	357,2388	0,242	89,015	0	1014,58	7	8,8	8,8	1	1	1	1	1	1	1	1	1	0	1	-2,466526	274,264822	318,354994	0
15.01.2021	10:41:30	0	22,430787	3,758132	2,2695	359,1288	0,246	89,006	0	1014,64	7	8,8	8,8	1	1	1	1	1	1	1	1	1	0	1	-3,030303	274,425031	318,541489	0
15.01.2021	10:41:31	0	22,781293	3,985895	2,32125	358,326	0,24	89,006	0	1014,44	7	8,8	8,8	1	1	1	1	1	1	1	1	1	0	1	-4,439746	274,30098	316,550987	0
15.01.2021	10:41:32	0	22,430837	4,099776	2,2545	343,5048	0,242	88,995	0	1014,54	7	8,8	8,8	1	1	1	1	1	1	1	1	1	0	1	-1,761804	274,437176	319,866919	0
15.01.2021	10:41:33	0	22,313565	4,555304	2,32275	351,738	0,239	89,003	0	1014,6	7	9,1	8,8	1	1	1	1	1	1	1	1	1	0	1	-1,409443	274,362906	319,871254	0
15.01.2021	10:41:34	0	22,314059	4,441419	2,4615	3,042	0,237	88,985	0	1014,52	7	8,8	8,8	1	1	1	1	1	1	1	1	1	0	1	-0	274,258803	320,793354	0
15.01.2021	10:41:35	0	22,430911	2,960944	2,43075	358,2972	0,241	88,997	0	1014,44	7	8,8	8,8	1	1	1	1	1	1	1	1	1	0	1	-1,62086	274,322103	319,468759	0
15.01.2021	10:41:36	0	22,080453	2,619296	2,31375	357,2784	0,247	89,003	0	1014,54	7	8,8	8,8	1	1	1	1	1	1	1	1	1	0	1	-2,466526	274,412893	319,048378	0
15.01.2021	10:41:37	0	22,197305	3,644235	2,17425	356,5332	0,243	88,991	0	1014,52	7	8,8	8,8	1	1	1	1	1	1	1	1	1	0	1	-3,664553	274,341738	317,517006	0
15.01.2021	10:41:38	0	22,19733	3,758116	2,151	353,8548	0,244	89,008	0	1014,64	7	8,8	8,8	1	1	1	1	1	1	1	1	1	0	1	-1,902748	274,432621	319,704621	0
15.01.2021	10:41:39	0	21,963698	3,416467	2,06925	353,8908	0,24	88,997	0	1014,72	7	8,8	8,8	1	1	1	1	1	1	1	1	1	0	1	-0	274,343249	321,188635	0
15.01.2021	10:41:40	0	22,197379	3,758112	2,0595	352,818	0,245	89,003	0	1014,56	7	8,8	8,8	1	1	1	1	1	1	1	1	1	0	1	-5,637773	274,432621	315,969596	0
15.01.2021	10:41:41	0	21,963747	3,75811	2,136	352,1988	0,241	88,981	0	1014,48	7	8,8	8,8	1	1	1	1	1	1	1	1	1	0	1	-0,98661	274,308521	320,039424	0
15.01.2021	10:41:42	0	22,431085	3,530344	2,2125	348,768	0,243	89	0	1014,6	7	8,8	8,8	1	1	1	1	1	1	1	1	1	0	1	-0	274,243762	320,722989	0
15.01.2021	10:41:43	0	22,314282	3,758106	2,2605	358,398	0,241	88,985	0	1014,54	7	8,8	8,8	1	1	1	1	1	1	1	1	1	0	1	-4,369274	274,367445	316,932684	0
15.01.2021	10:41:44	0	21,846991	4,213631	2,322	355,068	0,247	88,996	0	1014,62	7	8,8	8,8	1	1	1	1	1	1	1	1	1	0	1	-1,268499	274,249777	319,482628	0
15.01.2021	10:41:45	0	21,963844	4,89692	2,43075	356,4684	0,242	89	0	1014,38	7	8,8	8,8	1	1	1	1	1	1	1	1	1	0	1	-0	274,394701	321,429653	0
15.01.2021	10:41:46	0	21,847039	4,441391	2,51025	352,4904	0,25	89,003	0	1014,6	7	8,8	8,8	1	1	1	1	1	1	1	1	1	0	1	-0	274,35988	321,266526	0
15.01.2021	10:41:47	0	21,847064	3,985861	2,604	348,2532	0,244	88,988	0	1014,52	7	8,8	8,8	1	1	1	1	1	1	1	1	1	0	1	-0,140944	274,251281	320,617219	0
15.01.2021	10:41:48	0	21,847088	4,441386	2,66175	360	0,247	89	0	1014,58	7	8,8	8,8	1	1	1	1	1	1	1	1	1	0	1	-3,664553	274,317575	317,403865	0
15.01.2021	10:41:49	0	21,613453	2,733159	2,5995	352,0908	0,246	89,004	0	1014,52	7	8,8	8,8	1	1	1	1	1	1	1	1	1	0	1	-1,479915	274,246769	319,257141	0
15.01.2021	10:41:50	0	21,730307	4,099736	2,53125	348,6816	0,247	88,994	0	1014,6	7	8,8	8,8	1	1	1	1	1	1	1	1	1	0	1	-3,312192	274,421996	318,245374	0
15.01.2021	10:41:51	0	21,84716	4,669142	2,562	351,7236	0,246	89,005	0	1014,66	7	8,8	8,8	1	1	1	1	1	1	1	1	1	0	1	-5,426357	274,432621	316,181012	0
15.01.2021	10:41:52	0	21,730355	3,18868	2,56275	9,3564	0,243	88,991	0	1014,54	7	8,8	8,8	1	1	1	1	1	1	1	1	1	0	1	-0,916138	274,41441	320,605874	0
15.01.2021	10:41:53	0	21,847209	3,074797	2,61675	6,4224	0,244	89,006	0	1014,58	7	8,8	8,8	1	1	1	1	1	1	1	1	1	0	1	-3,523608	274,297964	317,453009	0
15.01.2021	10:41:54	0	21,730403	2,960914	2,63025	0	0,241	88,997	0	1014,48	7	8,8	8,8	1	1	1	1	1	1	1	1	1	0	1	-0	274,356855	321,252358	0
15.01.2021	10:41:55	0	21,496766	3,074794	2,77425	3,3912	0,245	88,996	0	1014,64	7	8,8	8,8	1	1	1	1	1	1	1	1	1	0	1	-1,268499	274,27988	319,623479	0
15.01.2021	10:41:56	0	21,49679	4,213604	2,64	351,1116	0,253	88,99	0	1014,64	7	8,8	8,8	1	1	1	1	1	1	1	1	1	0	1	-0	274,27988	320,891978	0
15.01.2021	10:41:57	0	21,847305	3,98584	2,47425	346,8528	0,251	89,002	0	1014,56	7	8,8	8,8	1	1	1	1	1	1	1	1	1	0	1	-3,523608	274,421996	318,033958	0
15.01.2021	10:41:58	0	21,613668	3,758076	2,4795	4,4676	0,252	88,993	0	1014,58	7	8,8	8,8	1	1	1	1	1	1	1	1	1	0	1	-0	274,266328	320,828562	0
15.01.2021	10:41:59	0	21,847354	5,010765	2,5065	346,5252	0,247	88,987	0	1014,64	7	8,8	8,8	1	1	1	1	1	1	1	1	1	0	1	-2,889359	274,405311	318,590012	0
15.01.2021	10:42:00	0	21,61374	2,391499	2,49	336,0672	0,25	89,001	0	1014,64	7	8,8	8,8	1	1	1	1	1	1	1	1	1	0	1	-0	274,319084	321,075484	0
15.01.2021	10:42:01	0	21,61374	2,391499	2,49	336,0672	0,25	89,001	0	1014,64	7	8,8	8,8	1	1	1	1	1	1	1	1	1	0	1	-2,396054	274,242259	318,319902	0
15.01.2021	10:42:02	0	21,964257	4,09971	2,3265	335,6928	0,252	88,993	0	1014,6	7	8,8	8,8	1	1	1	1	1	1	1	1	1	0	1	-0	274,307013	321,018972	0
15.01.2021	10:42:03	0	21,613485	4,896873	2,22375	345,7332	0,251	89,009	0	1014,6	7	9	8,8	1	1	1	1	1	1	1	1	1	0	1	-1,62086	274,408343	319,872722	0
15.01.2021	10:42:04	0	21,380149	2,960899	2,2425	346,9392	0,255	88,994	0	1014,8	7	8,8	8,8	1	1	1	1	1	1	1	1	1	0	1	-4,157858	274,270844	316,691837	0
15.01.2021	10:42:05	0	21,96433	5,12463	2,22975	348,66	0,247	88,996	0	1014,56	7	8,8	8,8	1	1	1	1	1	1	1	1	1	0	1	-0	274,425031	321,571792	0
15.01.2021	10:42:06	0	21,146533	3,416418	2,24475	342,6984	0,247	89,003	0	1014,56	7	8,8	8,8	1	1	1	1	1	1	1	1	1	0	1	-0,422833	274,37804	320,928758	0
15.01.2021	10:42:07	0	21,38022	3,758058	2,28975	339,8364	0,243	88,987	0	1014,38	7	8,8	8,8	1	1	1	1	1	1	1	1	1	0	1	-1,761804	274,270844	319,087891	0
15.01.2021	10:42:08	0	21,497075	2,847012	2,235	339,0552	0,247	89	0	1014,5	7	8,8	8,8	1	1	1	1	1	1	1	1	1	0	1	-2,60747	274,373498	318,722846	0
15.01.2021	10:42:09	0	21,380267	3,985814	2,13525	355,3488	0,244	88,989	0	1014,52	7	8,8	8,8	1	1	1	1	1	1	1	1	1	0	1	-1,268499	274,437176	320,360224	0
15.01.2021	10:42:10	0	21,730483	4,782975	2,049	354,9888	0,252	88,998	0	1014,62	7	9	8,8	1	1	1	1	1	1	1	1	1	0	1	-2,677942	274,311538	318,362217	0
15.01.2021	10:42:11	0	21,380314	4,441331	1,98525	351,3456	0,251	88,98	0	1014,66	7	8,8	8,8	1	1	1	1	1	1	1	1	1	0	1	-2,677942	274,434139	318,936544	0
15.01.2021	10:42:12	0	21,380038	2,847006	1,962	355,7484	0,249	88,995	0	1014,56	7	9	8,8	1	1	1	1	1	1	1	1	1	0	1	-3,100775	274,30098	317,889958	0
15.01.2021	10:42:13	0	21,146696	2,847004	2,00475	1,5336	0,249	88,988	0	1014,62	7	8,8	8,8	1	1	1	1	1	1	1	1	1	0	1	-1,62086	274,27988	319,271119	0
15.01.2021	10:42:14	0	21,029592	3,985804	1,97325	351,1152	0,25	88,993	0	1014,58	7	9	8,8	1	1	1	1	1	1	1	1	1	0	1	-0,352361	274,437176	321,276363	0
15.01.2021	10:42:15	0	21,146743	3,074761	1,9935	353,5416	0,252	89,006	0	1014,6	7	8,8	8,8	1	1	1	1	1	1	1	1	1	0	1	-0,070472	274,418961	321,47287	0
15.01.2021	10:42:16	0	21,614098	4,21356	1,998	349,4232	0,247	88,995	0	1014,8	7	8,8	8,8	1	1	1	1	1	1	1	1	1	0	1	-0,704722	274,391671	320,710732	0
15.01.2021	10:42:17	0	21,380156	3,416398	1,956	352,4652	0,251	89,004	0	1014,58	7	9	8,8	1	1	1	1	1	1	1	1	1	0	1	-0,563777	274,302488	320,434014	0
15.01.2021	10:42:18	0	20,913146	3,871916	1,85025	353,9412	0,244	88,998	0	1014,58	7	8,8	8,8	1	1	1	1	1	1	1	1	1	0	1	-3,312192	274,239252	317,3897	0
15.01.2021	10:42:19	0	21,030003	2,846995	1,75125	0,1188	0,249	89,008	0	1014,68	7	8,8	8,8	1	1	1	1	1	1	1	1	1	0	1	-0,704722	274,177721	319,709444	0
15.01.2021	10:42:20	0	21,380527	2,846994	1,75125	360	0,248	88,995	0	1014,6	7	8,8	8,8	1	1	1	1	1	1	1	1	1	0	1	-4,157858	274,41441	317,364155	0
15.01.2021	10:42:21	0	21,030049	4,441308	1,77525	13,1472	0,252	89,002	0	1014,6	7	8,8	8,8	1	1	1	1	1	1	1	1	1	0	1	-6,483439	274,364419	314,804344	0
15.01.2021	10:42:22	0	21,146906	3,302509	1,7865	9,7488	0,252	89,004	0	1014,72	7	8,8	8,8	1	1	1	1	1	1	1	1	1	0	1	-4,157858	274,296456	316,811703	0
15.01.2021	10:42:23	0	20,913262	4,213544	1,78575	13,5252	0,248	89,007	0	1014,66	7	8,8	8,8	1	1	1	1	1	1	1	1	1	0	1	-0	274,28892	320,934286	0
15.01.2021	10:42:24	0	21,146953	3,530265	1,66725	15,4116	0,252	89	0	1014,58	7	8,8	8,8	1	1	1	1	1	1	1	1	1	0	1	-2,677942	274,287413	318,249291	0
15.01.2021	10:42:25	0	21,030142	3,302504	1,53975	8,6076	0,249	88,99	0	1014,6	7	8,8	8,8	1	1	1	1	1	1	1	1	1	0	1	-2,959831	274,388641	318,441426	0
15.01.2021	10:42:26	0	21,030165	3,188623	1,5285	359,8452	0,252	89,01	0	1014,72	7	8,8	8,8	1	1	1	1	1	1	1	1	1	0	1	-0	274,31003	321,033096	0
15.01.2021	10:42:27	0	20,912915	2,733104	1,45725	0,1404	0,254	89,011	0	1014,62	7	9,1	8,8	1	1	1	1	1	1	1	1	1	0	1	-0	274,251281	320,758163	0
15.01.2021	10:42:28	0	20,913377	3,530257	1,4715	357,606	0,253	89,004	0	1014,58	7	8,8	8,8	1	1	1	1	1	1	1	1	1	0	1	-0	274,373498	321,330316	0
15.01.2021	10:42:29	0	21,030235	4,32741	1,4955	348,6708	0,256	89,018	0	1014,5	7	8,8	8,8	1	1	1	1	1	1	1	1	1	0	1	-2,184637	274,420478	319,365817	0
15.01.2021	10:42:30	0	21,26363	5,010682	1,57575	353,5452	0,248	89	0	1014,52	7	9	8,8	1	1	1	1	1	1	1	1	1	0	1	-0,916138	274,350807	320,307892	0
15.01.2021	10:42:31	0	20,79632	4,213526	1,58625	352,908	0,254	89,019	0	1014,66	7	9	8,8	1	1	1	1	1	1	1	1	1	0	1	-0	274,246769	320,737056	0
15.01.2021	10:42:32	0	21,147139	4,099645	1,65075	357,5592	0,251	89,001	0	1014,76	7	8,8	8,8	1	1	1	1	1	1	1	1	1	0	1	-3,100775	274,353831	318,137418	0
15.01.2021	10:42:33	0	21,030327	4,669037	1,77	0,1116	0,252	89,015	0	1014,6	7	8,8	8,8	1	1	1	1	1	1	1	1	1	0	1	-0	274,234743	320,680801	0
15.01.2021	10:42:34	0	20,796389	4,896793	1,8675	0,1008	0,248	89,017	0	1014,6	7	9	8,8	1	1	1	1	1	1	1	1	1	0	1	-3,875969	274,323613	317,220718	0
15.01.2021	10:42:35	0	20,679868	4,441275	1,95825	4,0752	0,251	88,999	0	1014,52	7	8,8	8,8	1	1	1	1	1	1	1	1	1	0	1	-0	274,287413	320,927233	0
15.01.2021	10:42:36	0	20,913561	5,010666	1,941	357,984	0,252	88,993	0	1014,68	7	8,8	8,8	1	1	1	1	1	1	1	1	1	0	1	-0,352361	274,373498	320,977955	0
15.01.2021	10:42:37	0	20,679913	4,44127	1,95075	1,5516	0,255	89,005	0	1014,58	7	8,8	8,8	1	1	1	1	1	1	1	1	1	0	1	-0	274,294949	320,962504	0
15.01.2021	10:42:38	0	20,446264	2,960845	2,00775	352,476	0,249	89,011	0	1014,7	7	8,8	8,8	1	1	1	1	1	1	1	1	1	0	1	-1,268499	274,431103	320,331753	0
15.01.2021	10:42:39	0	20,329451	3,871872	2,121	360	0,253	89,036	0	1014,58	7	8,8	8,8	1	1	1	1	1	1	1	1	1	0	1	-0,704722	274,270844	320,144973	0
15.01.2021	10:42:40	0	20,679981	4,099627	2,12925	353,934	0,252	89,015	0	1014,68	7	8,8	8,8	1	1	1	1	1	1	1	1	1	0	1	-0	274,421996	321,557566	0
15.01.2021	10:42:41	0	20,446332	3,074719	2,07225	352,0908	0,247	88,989	0	1014,6	7	8,8	8,8	1	1	1	1	1	1	1	1	1	0	1	-0	274,311538	321,040159	0
15.01.2021	10:42:42	0	20,680027	3,757988	2,00925	356,9436	0,249	88,991	0	1014,52	7	8,8	8,8	1	1	1	1	1	1	1	1	1	0	1	-0	274,421996	321,557566	0
15.01.2021	10:42:43	0	20,446377	2,733081	1,97175	360	0,258	89,017	0	1014,62	7	8,8	8,8	1	1	1	1	1	1	1	1	1	0	1	-0,563777	274,291934	320,384616	0
15.01.2021	10:42:44	0	20,212726	4,441254	2,05425	6,048	0,252	89,01	0	1014,68	7	8,8	8,8	1	1	1	1	1	1	1	1	1	0	1	-0	274,263317	320,814477	0
15.01.2021	10:42:45	0	20,212748	3,074712	2,268	8,2368	0,257	89,017	0	1014,66	7	8,8	8,8	1	1	1	1	1	1	1	1	1	0	1	-1,479915	274,311538	319,560244	0
15.01.2021	10:42:46	0	20,212487	3,871858	2,27325	8,5968	0,26	89,029	0	1014,64	7	9	8,8	1	1	1	1	1	1	1	1	1	0	1	-3,664553	274,418961	317,87879	0
15.01.2021	10:42:47	0	20,212793	3,757978	2,169	0,1296	0,255	89,011	0	1014,56	7	8,8	8,8	1	1	1	1	1	1	1	1	1	0	1	-0	274,31003	321,033096	0
15.01.2021	10:42:48	0	20,329367	4,213488	2,03475	2,3004	0,253	89,013	0	1014,62	7	9	8,8	1	1	1	1	1	1	1	1	1	0	1	-0	274,425031	321,571792	0
15.01.2021	10:42:49	0	20,797023	3,074706	1,9335	358,1136	0,256	89,019	0	1014,54	7	8,8	8,8	1	1	1	1	1	1	1	1	1	0	1	-0	274,287413	320,927233	0
15.01.2021	10:42:50	0	20,446248	4,668995	1,8105	354,2724	0,255	89,022	0	1014,68	7	9	8,8	1	1	1	1	1	1	1	1	1	0	1	-0	274,252785	320,7652	0
15.01.2021	10:42:51	0	20,680231	5,124504	2,004	353,556	0,255	89,023	0	1014,68	7	8,8	8,8	1	1	1	1	1	1	1	1	1	0	1	-0,98661	274,394701	320,443042	0
15.01.2021	10:42:52	0	20,329457	3,188579	2,23875	354,2328	0,259	89,022	0	1014,5	7	9	8,8	1	1	1	1	1	1	1	1	1	0	1	-1,902748	274,291934	319,045645	0
15.01.2021	10:42:53	0	20,446601	4,213477	2,3415	2,2896	0,254	89,016	0	1014,6	7	8,8	8,8	1	1	1	1	1	1	1	1	1	0	1	-0	274,428066	321,586021	0
15.01.2021	10:42:54	0	19,978993	3,074698	2,45625	2,6532	0,25	89,014	0	1014,62	7	9	8,8	1	1	1	1	1	1	1	1	1	0	1	-0	274,323613	321,096687	0
15.01.2021	10:42:55	0	20,096132	3,530207	2,733	352,3428	0,254	89,007	0	1014,62	7	8,8	8,8	1	1	1	1	1	1	1	1	1	0	1	-0,352361	274,254289	320,419877	0
15.01.2021	10:42:56	0	20,329831	2,960799	2,91075	354,2472	0,261	89,022	0	1014,66	7	8,8	8,9	1	1	1	1	1	1	1	1	1	0	1	-0	274,381068	321,365778	0
15.01.2021	10:42:57	0	20,329853	4,213468	2,952	354,9384	0,256	89,026	0	1014,76	7	8,8	8,8	1	1	1	1	1	1	1	1	1	0	1	-0	274,41441	321,522012	0
15.01.2021	10:42:58	0	20,329875	2,960814	2,91225	349,992	0,252	89,011	0	1014,72	7	8,8	8,8	1	1	1	1	1	1	1	1	1	0	1	-0	274,367445	321,301958	0
15.01.2021	10:42:59	0	20,212776	4,782851	2,9325	353,2572	0,254	89,025	0	1014,66	7	9	8,8	1	1	1	1	1	1	1	1	1	0	1	-0	274,420478	321,550454	0
15.01.2021	10:43:00	0	20,096265	3,75795	2,87325	0,108	0,254	89,016	0	1014,66	7,1	8,8	8,8	1	1	1	1	1	1	1	1	1	0	1	-0	274,27988	320,891978	0
15.01.2021	10:43:01	0	20,096265	3,75795	2,87325	0,108	0,254	89,016	0	1014,66	7,1	8,8	8,8	1	1	1	1	1	1	1	1	1	0	1	-0	274,41441	321,522012	0
15.01.2021	10:43:02	0	20,563354	4,09958	2,6715	5,688	0,252	89,013	0	1014,74	7	9	8,8	1	1	1	1	1	1	1	1	1	0	1	-0	274,367445	321,301958	0
15.01.2021	10:43:03	0	19,862631	3,757946	2,4975	359,0712	0,254	89,019	0	1014,64	7	8,8	8,8	1	1	1	1	1	1	1	1	1	0	1	-0	274,251281	320,758163	0
15.01.2021	10:43:04	0	20,21317	4,441207	2,5065	349,074	0,254	89,023	0	1014,64	7	8,8	8,8	1	1	1	1	1	1	1	1	1	0	1	-3,664553	274,269338	317,178098	0
15.01.2021	10:43:05	0	20,096353	3,302434	2,35275	346,068	0,256	89,022	0	1014,62	7	8,8	8,8	1	1	1	1	1	1	1	1	1	0	1	-0	274,248273	320,744091	0
15.01.2021	10:43:06	0	20,21279	4,213448	2,373	344,268	0,249	89,071	0	1014,54	7	9,1	8,8	1	1	1	1	1	1	1	1	1	0	1	-0	274,350807	321,22403	0
15.01.2021	10:43:07	0	20,096397	3,30243	2,328	350,658	0,255	89,018	0	1014,58	7	8,8	8,8	1	1	1	1	1	1	1	1	1	0	1	-0	274,285906	320,920181	0
15.01.2021	10:43:08	0	20,330098	3,530182	2,37	346,8312	0,249	89,017	0	1014,56	7	8,8	8,8	1	1	1	1	1	1	1	1	1	0	1	-0	274,431103	321,600252	0
15.01.2021	10:43:09	0	20,096441	4,099565	2,41425	0,0936	0,26	89,026	0	1014,62	7	8,8	8,8	1	1	1	1	1	1	1	1	1	0	1	-0	274,281386	320,899028	0
15.01.2021	10:43:10	0	19,628829	4,782823	2,394	1,5444	0,257	89,004	0	1014,62	7	9	8,8	1	1	1	1	1	1	1	1	1	0	1	-0	274,421996	321,557566	0
15.01.2021	10:43:11	0	19,862805	2,505287	2,31	353,6172	0,257	89,009	0	1014,62	7	8,8	8,8	1	1	1	1	1	1	1	1	1	0	1	-2,677942	274,302488	318,31985	0
15.01.2021	10:43:12	0	20,096226	4,668941	2,39175	356,1516	0,261	89,014	0	1014,68	7	9	8,8	1	1	1	1	1	1	1	1	1	0	1	-0	274,426549	321,578906	0
15.01.2021	10:43:13	0	19,746008	2,96079	2,61375	351,8064	0,252	89	0	1014,54	7	8,8	8,8	1	1	1	1	1	1	1	1	1	0	1	-0	274,278374	320,884929	0
15.01.2021	10:43:14	0	19,74603	2,619159	2,81925	357,2676	0,256	89,017	0	1014,58	7	8,8	8,8	1	1	1	1	1	1	1	1	1	0	1	-0	274,428066	321,586021	0
15.01.2021	10:43:15	0	19,979733	2,391405	2,84175	357,6456	0,252	89,02	0	1014,5	7	8,8	8,8	1	1	1	1	1	1	1	1	1	0	1	-0	274,291934	320,948393	0
15.01.2021	10:43:16	0	19,862636	3,188538	2,69175	351,3816	0,255	89,011	0	1014,58	7	9	8,8	1	1	1	1	1	1	1	1	1	0	1	-0	274,252785	320,7652	0
15.01.2021	10:43:17	0	19,979777	4,555052	2,59575	349,5024	0,262	89,009	0	1014,58	7	8,8	8,8	1	1	1	1	1	1	1	1	1	0	1	-0	274,391671	321,415454	0
15.01.2021	10:43:18	0	19,979798	4,441174	2,559	353,2356	0,261	89,02	0	1014,62	7	8,8	8,8	1	1	1	1	1	1	1	1	1	0	1	-0	274,40986	321,500688	0
15.01.2021	10:43:19	0	19,97954	4,668924	2,493	352,7244	0,255	89,075	0	1014,56	7	9	8,8	1	1	1	1	1	1	1	1	1	0	1	-3,030303	274,343249	318,158332	0
15.01.2021	10:43:20	0	19,512478	3,644036	2,31675	359,838	0,258	89,012	0	1014,5	7	8,8	8,8	1	1	1	1	1	1	1	1	1	0	1	-1,198027	274,406827	320,288449	0
15.01.2021	10:43:21	0	19,512226	4,668919	2,13225	350,8452	0,256	88,994	0	1014,62	7	9	8,8	1	1	1	1	1	1	1	1	1	0	1	-0,352361	274,364419	320,935423	0
15.01.2021	10:43:22	0	19,629362	4,441164	2,02425	347,9904	0,259	89,002	0	1014,66	7	8,8	8,8	1	1	1	1	1	1	1	1	1	0	1	-1,691332	274,420478	319,859122	0
15.01.2021	10:43:23	0	19,862788	4,441162	1,91775	352,0476	0,255	89,003	0	1014,62	7	9	8,8	1	1	1	1	1	1	1	1	1	0	1	-0	274,415927	321,529122	0
15.01.2021	10:43:24	0	19,62913	4,44116	1,833	360	0,261	89,012	0	1014,6	7,1	9	8,8	1	1	1	1	1	1	1	1	1	0	1	-0	274,434139	321,614486	0
15.01.2021	10:43:25	0	19,745991	4,896661	1,926	0,1152	0,259	88,992	0	1014,5	7	9	8,8	1	1	1	1	1	1	1	1	1	0	1	-1,479915	274,37804	319,871676	0
15.01.2021	10:43:26	0	19,863132	4,327279	1,96875	357,2424	0,257	89,013	0	1014,62	7	8,8	8,8	1	1	1	1	1	1	1	1	1	0	1	-0	274,266328	320,828562	0
15.01.2021	10:43:27	0	19,863153	2,505266	2,031	3,3768	0,253	88,987	0	1014,58	7	8,8	8,8	1	1	1	1	1	1	1	1	1	0	1	-0	274,314556	321,054287	0
15.01.2021	10:43:28	0	19,395534	4,327275	2,17725	7,1316	0,261	89,005	0	1014,72	7	9	8,8	1	1	1	1	1	1	1	1	1	0	1	-0	274,257298	320,786315	0
15.01.2021	10:43:29	0	19,746078	3,302392	2,28	7,8624	0,254	88,986	0	1014,42	7	9	8,8	1	1	1	1	1	1	1	1	1	0	1	-0	274,322103	321,089618	0
15.01.2021	10:43:30	0	19,746099	4,32727	2,31375	17,7048	0,266	89,002	0	1014,6	7	9	8,8	1	1	1	1	1	1	1	1	1	0	1	-0,422833	274,425031	321,148959	0
15.01.2021	10:43:31	0	19,512439	4,555019	2,2065	26,8992	0,26	89,014	0	1014,82	7	9	8,8	1	1	1	1	1	1	1	1	1	0	1	-2,466526	274,334184	318,679658	0
15.01.2021	10:43:32	0	19,395891	4,21339	2,1885	12,8484	0,261	88,992	0	1014,72	7,1	8,8	8,8	1	1	1	1	1	1	1	1	1	0	1	-0	274,412893	321,514904	0
15.01.2021	10:43:33	0	19,278799	2,960759	2,241	25,488	0,257	88,993	0	1014,62	7	9	8,8	1	1	1	1	1	1	1	1	1	0	1	-0	274,314556	321,054287	0
15.01.2021	10:43:34	0	19,395662	4,213386	2,25225	9,3492	0,256	89,015	0	1014,52	7	9	8,8	1	1	1	1	1	1	1	1	1	0	1	-0	274,417444	321,536232	0
15.01.2021	10:43:35	0	19,629641	2,960756	2,1855	348,3468	0,26	89,007	0	1014,7	7	8,8	8,8	1	1	1	1	1	1	1	1	1	0	1	-1,479915	274,37804	319,871676	0
15.01.2021	10:43:36	0	19,162021	4,213381	2,14275	354,0168	0,258	89,002	0	1014,62	7	9	8,8	1	1	1	1	1	1	1	1	1	0	1	-0	274,249777	320,751127	0
15.01.2021	10:43:37	0	19,279154	4,555004	2,12625	359,1324	0,263	89,007	0	1014,82	7	8,8	8,8	1	1	1	1	1	1	1	1	1	0	1	-0,140944	274,313047	320,906278	0
15.01.2021	10:43:38	0	19,279175	2,846876	2,14425	0	0,261	89,01	0	1014,6	7	8,8	8,8	1	1	1	1	1	1	1	1	1	0	1	-0	273,927626	319,246684	0
15.01.2021	10:43:39	0	19,512883	4,441098	2,15775	359,928	0,259	89,012	0	1014,72	7,1	8,8	8,9	1	1	1	1	1	1	1	1	1	0	1	-0	274,368958	321,309047	0
15.01.2021	10:43:40	0	19,279217	3,985623	2,12925	1,908	0,256	89,005	0	1014,6	7	8,8	8,8	1	1	1	1	1	1	1	1	1	0	1	-0,563777	274,412893	320,951126	0
15.01.2021	10:43:41	0	19,512652	2,960747	2,08875	0,1188	0,257	89	0	1014,52	7	9	8,8	1	1	1	1	1	1	1	1	1	0	1	-0	274,287413	320,927233	0
15.01.2021	10:43:42	0	19,512947	4,327243	2,15175	350,6472	0,263	88,995	0	1014,58	7	8,8	8,8	1	1	1	1	1	1	1	1	1	0	1	-0	274,252785	320,7652	0
15.01.2021	10:43:43	0	19,512695	3,416243	2,457	356,5548	0,264	89,013	0	1014,66	7	9	8,8	1	1	1	1	1	1	1	1	1	0	1	-2,959831	274,385611	318,427233	0
15.01.2021	10:43:44	0	19,045613	3,64399	2,49375	342,7956	0,263	89,022	0	1014,68	7	8,8	8,8	1	1	1	1	1	1	1	1	1	0	1	-1,198027	274,423513	320,366652	0
15.01.2021	10:43:45	0	19,395895	4,554985	2,5215	19,1232	0,258	88,997	0	1014,64	7	9	8,8	1	1	1	1	1	1	1	1	1	0	1	-0,422833	274,299472	320,560842	0
15.01.2021	10:43:46	0	19,16223	3,757861	2,4255	359,4564	0,263	89,014	0	1014,64	7	9	8,8	1	1	1	1	1	1	1	1	1	0	1	-0	274,269338	320,84265	0
15.01.2021	10:43:47	0	19,395937	3,188486	2,40075	354,6972	0,261	89,003	0	1014,8	7	9	8,8	1	1	1	1	1	1	1	1	1	0	1	-0	274,384097	321,379968	0
15.01.2021	10:43:48	0	19,279115	3,643982	2,3685	353,5668	0,262	89,011	0	1014,56	7,1	9	8,8	1	1	1	1	1	1	1	1	1	0	1	-0	274,261812	320,807436	0
15.01.2021	10:43:49	0	19,04545	4,213353	2,34525	3,0096	0,263	88,991	0	1014,66	7	9	8,8	1	1	1	1	1	1	1	1	1	0	1	-0	274,305504	321,011912	0
15.01.2021	10:43:50	0	19,279157	4,782722	2,385	357,2748	0,258	88,993	0	1014,64	7	9	8,8	1	1	1	1	1	1	1	1	1	0	1	-0,775194	274,425031	320,796598	0
15.01.2021	10:43:51	0	19,279448	3,9856	2,376	358,0164	0,26	88,987	0	1014,58	7,1	8,8	8,8	1	1	1	1	1	1	1	1	1	0	1	-0	274,355343	321,245275	0
15.01.2021	10:43:52	0	18,811825	4,782717	2,30325	356,5224	0,266	88,991	0	1014,68	7,1	9	8,8	1	1	1	1	1	1	1	1	1	0	1	-2,114165	274,248273	318,629926	0
15.01.2021	10:43:53	0	19,27949	4,213344	2,1915	3,7512	0,261	88,996	0	1014,62	7	8,8	8,8	1	1	1	1	1	1	1	1	1	0	1	-0	274,307013	321,018972	0
15.01.2021	10:43:54	0	19,04582	2,277482	2,1705	5,2128	0,261	88,985	0	1014,7	7	8,8	8,8	1	1	1	1	1	1	1	1	1	0	1	-1,268499	274,266328	319,560063	0
15.01.2021	10:43:55	0	18,92873	4,554961	2,07675	4,0572	0,252	88,977	0	1014,52	7,1	9	8,8	1	1	1	1	1	1	1	1	1	0	1	-0	274,34476	321,195713	0
15.01.2021	10:43:56	0	18,928751	3,530072	1,9605	359,1792	0,262	88,99	0	1014,68	7	9	8,9	1	1	1	1	1	1	1	1	1	0	1	-0	274,431103	321,600252	0
15.01.2021	10:43:57	0	19,279304	2,960722	1,8765	3,3876	0,267	88,962	0	1014,66	7	9	8,8	1	1	1	1	1	1	1	1	1	0	1	-0	274,296456	320,96956	0
15.01.2021	10:43:58	0	19,162481	5,124323	1,83075	1,17	0,261	88,968	0	1014,72	7	9	8,8	1	1	1	1	1	1	1	1	1	0	1	-0	274,275361	320,870834	0
15.01.2021	10:43:59	0	19,396191	3,985559	1,746	359,982	0,261	88,986	0	1014,72	7	9	8,9	1	1	1	1	1	1	1	1	1	0	1	-0	274,367445	321,301958	0
15.01.2021	10:44:00	0	19,162544	2,619095	1,872	2,3076	0,252	88,979	0	1014,7	7	9	8,8	1	1	1	1	1	1	1	1	1	0	1	-0,493305	274,411376	321,014491	0
15.01.2021	10:44:01	0	19,162544	2,619095	1,872	2,3076	0,252	88,979	0	1014,7	7	9	8,8	1	1	1	1	1	1	1	1	1	0	1	-0	274,316065	321,061352	0
15.01.2021	10:44:02	0	18,81203	3,985577	1,881	357,678	0,252	88,976	0	1014,56	7,1	9	8,8	1	1	1	1	1	1	1	1	1	0	1	-0	274,270844	320,849695	0
15.01.2021	10:44:03	0	19,046007	3,53008	1,93575	357,642	0,258	88,965	0	1014,7	7	8,8	8,8	1	1	1	1	1	1	1	1	1	0	1	-3,59408	274,251281	317,164083	0
15.01.2021	10:44:04	0	18,695487	2,732964	2,0235	360	0,259	88,983	0	1014,62	7	8,8	8,8	1	1	1	1	1	1	1	1	1	0	1	-1,62086	274,41441	319,901153	0
15.01.2021	10:44:05	0	18,578401	3,30231	2,12475	3,762	0,257	88,977	0	1014,68	7	9	8,9	1	1	1	1	1	1	1	1	1	0	1	-0	274,426549	321,578906	0
15.01.2021	10:44:06	0	19,046069	3,871695	2,2095	360	0,259	88,966	0	1014,66	7,1	8,8	8,8	1	1	1	1	1	1	1	1	1	0	1	-0,070472	274,317575	320,997945	0
15.01.2021	10:44:07	0	18,695287	4,327186	2,1705	8,9784	0,262	88,973	0	1014,6	7	9	8,8	1	1	1	1	1	1	1	1	1	0	1	-1,198027	274,437176	320,430697	0
15.01.2021	10:44:08	0	18,578461	2,732958	2,064	360	0,259	88,984	0	1014,64	7	9	8,8	1	1	1	1	1	1	1	1	1	0	1	-0	274,384097	321,379968	0
15.01.2021	10:44:09	0	18,461636	2,50521	2,04525	350,3124	0,264	88,99	0	1014,7	7,1	9	8,8	1	1	1	1	1	1	1	1	1	0	1	-0	274,432621	321,607369	0
15.01.2021	10:44:10	0	18,578502	3,757791	2,079	7,5024	0,262	88,981	0	1014,7	7	9	8,9	1	1	1	1	1	1	1	1	1	0	1	-0	274,388641	321,401257	0
15.01.2021	10:44:11	0	18,461676	2,9607	1,94925	1,9116	0,265	88,984	0	1014,66	7,1	9	8,8	1	1	1	1	1	1	1	1	1	0	1	-0	274,322103	321,089618	0
15.01.2021	10:44:12	0	18,461955	3,985556	1,82325	0,1152	0,264	88,979	0	1014,64	7	8,8	8,8	1	1	1	1	1	1	1	1	1	0	1	-0,422833	274,320593	320,659718	0
15.01.2021	10:44:13	0	18,695671	4,782664	1,848	358,7976	0,262	88,97	0	1014,58	7	8,8	8,8	1	1	1	1	1	1	1	1	1	0	1	-0	274,30098	320,990733	0
15.01.2021	10:44:14	0	18,695429	3,530039	1,98	2,6424	0,264	88,987	0	1014,64	7	9	8,9	1	1	1	1	1	1	1	1	1	0	1	-0	274,405311	321,479371	0
15.01.2021	10:44:15	0	18,461756	3,416185	2,09475	12,0852	0,266	88,999	0	1014,78	7	9	8,8	1	1	1	1	1	1	1	1	1	0	1	-0	274,297964	320,976617	0
15.01.2021	10:44:16	0	18,578623	3,074565	2,07	357,246	0,266	88,975	0	1014,64	7	9	8,8	1	1	1	1	1	1	1	1	1	0	1	-0	274,423513	321,564679	0
15.01.2021	10:44:17	0	18,695752	3,643927	1,94925	0,1404	0,27	88,987	0	1014,64	7,1	8,8	8,8	1	1	1	1	1	1	1	1	1	0	1	-0	274,334184	321,146183	0
15.01.2021	10:44:18	0	18,345227	2,732944	1,953	3,7584	0,262	88,996	0	1014,72	7	8,8	8,8	1	1	1	1	1	1	1	1	1	0	1	-0	274,428066	321,586021	0
15.01.2021	10:44:19	0	18,578684	3,188414	2,1345	7,1208	0,265	88,996	0	1014,64	7	9	8,9	1	1	1	1	1	1	1	1	1	0	1	-0	274,341738	321,181558	0
15.01.2021	10:44:20	0	18,111315	4,213259	2,22675	11,1924	0,261	88,986	0	1014,7	7	9	8,9	1	1	1	1	1	1	1	1	1	0	1	-0,070472	274,420478	321,479982	0
15.01.2021	10:44:21	0	18,695571	4,668772	2,151	10,0512	0,26	88,982	0	1014,68	7,1	9	8,8	1	1	1	1	1	1	1	1	1	0	1	-0	274,338716	321,167406	0
15.01.2021	10:44:22	0	18,461897	3,188428	2,18475	7,5168	0,266	88,995	0	1014,64	7	9	8,8	1	1	1	1	1	1	1	1	1	0	1	-0	274,27235	320,85674	0
15.01.2021	10:44:23	0	18,228222	3,985533	2,44575	2,2932	0,267	88,957	0	1014,72	7	9	8,8	1	1	1	1	1	1	1	1	1	0	1	-0	274,415927	321,529122	0
15.01.2021	10:44:24	0	18,578785	4,668736	2,73225	359,1	0,269	88,988	0	1014,72	7	9	8,9	1	1	1	1	1	1	1	1	1	0	1	-0	274,31003	321,033096	0
15.01.2021	10:44:25	0	18,578805	3,757784	2,82225	360	0,267	88,977	0	1014,68	7	9	8,8	1	1	1	1	1	1	1	1	1	0	1	-0	274,225728	320,638637	0
15.01.2021	10:44:26	0	18,461977	3,985526	2,74575	0,5976	0,263	88,983	0	1014,6	7	9	8,8	1	1	1	1	1	1	1	1	1	0	1	-0	274,331163	321,132038	0
15.01.2021	10:44:27	0	18,111453	2,846786	2,49225	1,1628	0,256	88,975	0	1014,58	7	9	8,9	1	1	1	1	1	1	1	1	1	0	1	-0,422833	274,258803	320,370521	0
15.01.2021	10:44:28	0	18,345169	3,074546	2,38725	17,208	0,266	88,97	0	1014,62	7	9	8,8	1	1	1	1	1	1	1	1	1	0	1	-1,198027	274,284399	319,715102	0
15.01.2021	10:44:29	0	18,345189	3,188416	2,21025	359,4816	0,27	88,973	0	1014,6	7	9	8,8	1	1	1	1	1	1	1	1	1	0	1	-0	274,399247	321,450956	0
15.01.2021	10:44:30	0	18,22836	3,985518	1,96275	0,486	0,263	88,978	0	1014,68	7	9	8,8	1	1	1	1	1	1	1	1	1	0	1	-0	274,237749	320,694861	0
15.01.2021	10:44:31	0	18,22838	2,960669	1,9755	3,7656	0,259	88,963	0	1014,66	7	9	8,8	1	1	1	1	1	1	1	1	1	0	1	-0	274,269338	320,84265	0
15.01.2021	10:44:32	0	18,111551	2,846779	1,92525	8,2584	0,266	88,965	0	1014,58	7,1	9	8,9	1	1	1	1	1	1	1	1	1	0	1	-0	274,435658	321,621605	0
15.01.2021	10:44:33	0	18,345525	5,465845	1,81425	358,7112	0,261	88,961	0	1014,66	7,1	8,8	8,8	1	1	1	1	1	1	1	1	1	0	1	-0	274,368958	321,309047	0
15.01.2021	10:44:34	0	18,11159	2,846793	1,84425	9,7488	0,262	88,949	0	1014,62	7,1	9	8,8	1	1	1	1	1	1	1	1	1	0	1	-0	274,254289	320,772238	0
15.01.2021	10:44:35	0	18,345565	2,960663	1,94025	10,0476	0,263	88,943	0	1014,74	7	8,8	8,8	1	1	1	1	1	1	1	1	1	0	1	-1,057082	274,358368	320,202359	0
15.01.2021	10:44:36	0	18,11163	4,440992	2,0685	17,694	0,267	88,944	0	1014,66	7,1	9	8,8	1	1	1	1	1	1	1	1	1	0	1	-0,493305	274,417444	321,042927	0
15.01.2021	10:44:37	0	18,462456	2,846771	2,0265	18,0684	0,266	88,951	0	1014,76	7,1	8,8	8,9	1	1	1	1	1	1	1	1	1	0	1	-0,140944	274,305504	320,870967	0
15.01.2021	10:44:38	0	17,994819	2,505172	2,06925	11,808	0,269	88,954	0	1014,72	7,1	9	8,8	1	1	1	1	1	1	1	1	1	0	1	-0,563777	274,239252	320,138114	0
15.01.2021	10:44:39	0	18,228538	2,3913	2,1855	7,4916	0,261	88,934	0	1014,68	7,1	9	8,8	1	1	1	1	1	1	1	1	1	0	1	-0	274,371985	321,323225	0
15.01.2021	10:44:40	0	17,994858	4,554854	2,20425	6,0624	0,263	88,947	0	1014,6	7,1	9	8,8	1	1	1	1	1	1	1	1	1	0	1	-0	274,37804	321,351591	0
15.01.2021	10:44:41	0	18,228578	4,44098	2,1405	11,808	0,266	88,947	0	1014,76	7	9	8,8	1	1	1	1	1	1	1	1	1	0	1	-0,916138	274,426549	320,662768	0
15.01.2021	10:44:42	0	17,878047	3,529987	2,10525	354,9888	0,263	88,954	0	1014,68	7	9	8,9	1	1	1	1	1	1	1	1	1	0	1	-0	274,317575	321,068418	0
15.01.2021	10:44:43	0	18,345467	4,327105	2,19075	2,6388	0,265	88,945	0	1014,7	7	9	8,8	1	1	1	1	1	1	1	1	1	0	1	-0	274,246769	320,737056	0
15.01.2021	10:44:44	0	18,228892	3,757747	2,2785	352,0728	0,269	88,946	0	1014,72	7	8,8	8,8	1	1	1	1	1	1	1	1	1	0	1	-0	274,307013	321,018972	0
15.01.2021	10:44:45	0	18,228657	2,846776	2,3535	357,3612	0,262	88,936	0	1014,66	7	9	8,8	1	1	1	1	1	1	1	1	1	0	1	-0	274,239252	320,701892	0
15.01.2021	10:44:46	0	18,345784	3,871614	2,442	359,1468	0,263	88,936	0	1014,66	7	8,8	8,8	1	1	1	1	1	1	1	1	1	0	1	-0	274,294949	320,962504	0
15.01.2021	10:44:47	0	18,345547	2,960644	2,50575	352,7856	0,254	88,932	0	1014,66	7	9	8,8	1	1	1	1	1	1	1	1	1	0	1	-0	274,246769	320,737056	0
15.01.2021	10:44:48	0	17,878164	2,960643	2,65725	7,8696	0,261	88,949	0	1014,56	7	9	8,8	1	1	1	1	1	1	1	1	1	0	1	-0	274,35988	321,266526	0
15.01.2021	10:44:49	0	18,228736	4,668675	2,69025	352,044	0,262	88,932	0	1014,68	7,1	9	8,9	1	1	1	1	1	1	1	1	1	0	1	-0	274,418961	321,543342	0
15.01.2021	10:44:50	0	18,462716	4,213218	2,8725	353,2716	0,264	88,949	0	1014,7	7	8,8	8,8	1	1	1	1	1	1	1	1	1	0	1	-0	274,28892	320,934286	0
15.01.2021	10:44:51	0	18,111924	4,782569	2,87625	16,0956	0,267	88,94	0	1014,68	7	9	8,8	1	1	1	1	1	1	1	1	1	0	1	-0	274,246769	320,737056	0
15.01.2021	10:44:52	0	18,111944	4,668696	2,691	10,4256	0,263	88,944	0	1014,66	7	9	8,8	1	1	1	1	1	1	1	1	1	0	1	-0	274,362906	321,280697	0
15.01.2021	10:44:53	0	17,87826	3,074487	2,478	10,8	0,266	88,95	0	1014,62	7,1	9	8,9	1	1	1	1	1	1	1	1	1	0	1	-0	274,400763	321,458059	0
15.01.2021	10:44:54	0	18,345686	4,668691	2,259	350,118	0,268	88,936	0	1014,56	7,1	9	8,8	1	1	1	1	1	1	1	1	1	0	1	-0	274,361393	321,273611	0
15.01.2021	10:44:55	0	17,878299	3,074502	2,12475	346,7484	0,26	88,926	0	1014,8	7	9	8,8	1	1	1	1	1	1	1	1	1	0	1	-0	274,252785	320,7652	0
15.01.2021	10:44:56	0	17,99517	5,010298	2,3955	353,6208	0,259	88,931	0	1014,74	7,1	9	8,8	1	1	1	1	1	1	1	1	1	0	1	-0	274,381068	321,365778	0
15.01.2021	10:44:57	0	17,99519	3,074499	2,7585	352,4112	0,268	88,923	0	1014,52	7,1	9	8,8	1	1	1	1	1	1	1	1	1	0	1	-0	274,264822	320,821519	0
15.01.2021	10:44:58	0	17,878357	3,188368	2,8335	357,174	0,266	88,951	0	1014,8	7	9	8,8	1	1	1	1	1	1	1	1	1	0	1	-2,325581	274,379554	319,033103	0
15.01.2021	10:44:59	0	17,878377	2,846738	2,79225	353,9628	0,262	88,934	0	1014,72	7	9	8,9	1	1	1	1	1	1	1	1	1	0	1	-0	274,367445	321,301958	0
15.01.2021	10:45:00	0	17,878666	3,074474	2,66475	347,5116	0,263	88,945	0	1014,64	7	8,8	8,9	1	1	1	1	1	1	1	1	1	0	1	-4,369274	274,385611	317,017789	0
15.01.2021	10:45:01	0	17,878666	3,074474	2,66475	347,5116	0,263	88,945	0	1014,64	7	8,8	8,9	1	1	1	1	1	1	1	1	1	0	1	-0	274,285906	320,920181	0
15.01.2021	10:45:02	0	17,761582	3,074491	2,61	347,598	0,26	88,918	0	1014,72	7,1	9	8,8	1	1	1	1	1	1	1	1	1	0	1	-0	274,425031	321,571792	0
15.01.2021	10:45:03	0	18,112159	4,668669	2,55225	354,6864	0,258	88,929	0	1014,56	7	9	8,8	1	1	1	1	1	1	1	1	1	0	1	-0	274,308521	321,026034	0
15.01.2021	10:45:04	0	18,229031	4,440927	2,61975	350,1972	0,261	88,941	0	1014,48	7	9	8,8	1	1	1	1	1	1	1	1	1	0	1	-0	274,402279	321,465162	0
15.01.2021	10:45:05	0	18,229051	5,124144	2,6535	352,8324	0,264	88,946	0	1014,66	7	9	8,8	1	1	1	1	1	1	1	1	1	0	1	-0	274,403795	321,472266	0
15.01.2021	10:45:06	0	17,644806	4,554792	2,71125	358,0092	0,263	88,935	0	1014,56	7	9	8,8	1	1	1	1	1	1	1	1	1	0	1	-0	274,267833	320,835606	0
15.01.2021	10:45:07	0	17,761678	4,32705	2,6325	349,0776	0,255	88,943	0	1014,66	7	9	8,8	1	1	1	1	1	1	1	1	1	0	1	-0	274,367445	321,301958	0
15.01.2021	10:45:08	0	17,644844	2,619003	2,52675	351,0468	0,26	88,932	0	1014,6	7	9	8,8	1	1	1	1	1	1	1	1	1	0	1	-0	274,405311	321,479371	0
15.01.2021	10:45:09	0	17,87857	4,327046	2,472	3,366	0,261	88,939	0	1014,64	7	9	8,8	1	1	1	1	1	1	1	1	1	0	1	-0	274,381068	321,365778	0
15.01.2021	10:45:10	0	17,995695	2,960609	2,4765	10,4544	0,264	88,938	0	1014,66	7	8,8	8,8	1	1	1	1	1	1	1	1	1	0	1	-0	274,350807	321,22403	0
15.01.2021	10:45:11	0	17,762004	3,074477	2,44875	6,4404	0,264	88,939	0	1014,68	7	8,8	8,8	1	1	1	1	1	1	1	1	1	0	1	-0,422833	274,249777	320,328294	0
15.01.2021	10:45:12	0	17,762023	2,846719	2,36475	358,65	0,258	88,937	0	1014,66	7,1	8,8	8,9	1	1	1	1	1	1	1	1	1	0	1	-0	274,355343	321,245275	0
15.01.2021	10:45:13	0	17,878647	4,099298	2,301	353,2068	0,264	88,941	0	1014,68	7	9	8,8	1	1	1	1	1	1	1	1	1	0	1	-0	274,367445	321,301958	0
15.01.2021	10:45:14	0	17,528104	4,668643	2,33325	354,69	0,258	88,936	0	1014,66	7,1	9	8,8	1	1	1	1	1	1	1	1	1	0	1	-0	274,412893	321,514904	0
15.01.2021	10:45:15	0	17,878936	4,668612	2,307	356,0616	0,264	88,943	0	1014,8	7,1	8,8	8,9	1	1	1	1	1	1	1	1	1	0	1	-0	274,282893	320,906078	0
15.01.2021	10:45:16	0	17,411288	4,782507	2,28375	0,8604	0,264	88,944	0	1014,72	7	9	8,8	1	1	1	1	1	1	1	1	1	0	1	-0	274,426549	321,578906	0
15.01.2021	10:45:17	0	17,528161	3,871551	2,2665	352,818	0,257	88,938	0	1014,6	7,1	9	8,8	1	1	1	1	1	1	1	1	1	0	1	-0	274,30098	320,990733	0
15.01.2021	10:45:18	0	17,411325	4,327026	2,26425	355,0464	0,267	88,951	0	1014,7	7	9	8,8	1	1	1	1	1	1	1	1	1	0	1	-0	274,408343	321,493582	0
15.01.2021	10:45:19	0	17,995617	4,213154	2,27925	1,5408	0,263	88,943	0	1014,7	7	9	8,8	1	1	1	1	1	1	1	1	1	0	1	-0	274,340227	321,174482	0
15.01.2021	10:45:20	0	17,528463	3,871545	2,205	2,6388	0,26	88,941	0	1014,64	7,1	8,8	8,8	1	1	1	1	1	1	1	1	1	0	1	-0	274,252785	320,7652	0
15.01.2021	10:45:21	0	17,645339	2,732854	2,07525	7,4952	0,262	88,945	0	1014,74	7	8,8	8,8	1	1	1	1	1	1	1	1	1	0	1	-0	274,284399	320,913129	0
15.01.2021	10:45:22	0	17,528256	3,416066	2,08125	0,7956	0,261	88,947	0	1014,76	7	9	8,8	1	1	1	1	1	1	1	1	1	0	1	-0	274,245266	320,730022	0
15.01.2021	10:45:23	0	17,761985	3,871539	2,12325	7,8696	0,265	88,942	0	1014,7	7	9	8,8	1	1	1	1	1	1	1	1	1	0	1	-0	274,293441	320,955448	0
15.01.2021	10:45:24	0	17,528293	4,327012	2,0925	359,046	0,262	88,952	0	1014,72	7	9	8,8	1	1	1	1	1	1	1	1	1	0	1	-0	274,41441	321,522012	0
15.01.2021	10:45:25	0	17,528558	2,732865	2,0655	3,762	0,26	88,956	0	1014,7	7	8,8	8,7	1	1	1	1	1	1	1	1	1	0	1	-0	274,319084	321,075484	0
15.01.2021	10:45:26	0	17,29462	2,960566	2,034	359,8668	0,267	88,959	0	1014,68	7,1	9	8,9	1	1	1	1	1	1	1	1	1	0	1	-0	274,237749	320,694861	0
15.01.2021	10:45:27	0	17,52835	3,985376	2,03475	5,6628	0,262	88,96	0	1014,62	7	9	8,9	1	1	1	1	1	1	1	1	1	0	1	-1,268499	274,376526	320,076	0
15.01.2021	10:45:28	0	17,294657	4,554713	2,037	1,1772	0,27	88,953	0	1014,7	7	9	8,9	1	1	1	1	1	1	1	1	1	0	1	-0,493305	274,408343	321,000277	0
15.01.2021	10:45:29	0	17,528388	3,757659	2,0745	0,9504	0,261	88,955	0	1014,9	7,1	9	8,8	1	1	1	1	1	1	1	1	1	0	1	-0	274,278374	320,884929	0
15.01.2021	10:45:30	0	17,645263	4,782472	2,1315	0,864	0,267	88,963	0	1014,84	7,1	9	8,8	1	1	1	1	1	1	1	1	1	0	1	-0	274,417444	321,536232	0
15.01.2021	10:45:31	0	17,762138	3,985368	2,247	0,8496	0,264	88,958	0	1014,68	7	9	8,9	1	1	1	1	1	1	1	1	1	0	1	-0	274,287413	320,927233	0
15.01.2021	10:45:32	0	17,52869	4,213101	2,4015	360	0,266	88,95	0	1014,62	7	8,8	8,9	1	1	1	1	1	1	1	1	1	0	1	-0	274,418961	321,543342	0
15.01.2021	10:45:33	0	17,411607	3,302158	2,62425	11,1924	0,257	88,946	0	1014,66	7,1	9	8,9	1	1	1	1	1	1	1	1	1	0	1	-0	274,320593	321,082551	0
15.01.2021	10:45:34	0	17,411626	4,668622	2,841	10,8072	0,266	88,955	0	1014,84	7,1	9	8,7	1	1	1	1	1	1	1	1	1	0	1	-0	274,411376	321,507796	0
15.01.2021	10:45:35	0	17,528501	4,668592	2,886	10,4328	0,267	88,959	0	1014,66	7	9	8,8	1	1	1	1	1	1	1	1	1	0	1	-0,140944	274,376526	321,203554	0
15.01.2021	10:45:36	0	17,294806	3,074418	2,844	9,0792	0,264	88,965	0	1014,78	7,1	9	8,9	1	1	1	1	1	1	1	1	1	0	1	-0	274,406827	321,486476	0
15.01.2021	10:45:37	0	17,411682	4,213115	2,85675	8,9856	0,261	88,956	0	1014,7	7	9	8,8	1	1	1	1	1	1	1	1	1	0	1	-3,030303	274,326632	318,080522	0
15.01.2021	10:45:38	0	17,061129	2,505109	2,8575	7,1352	0,267	88,97	0	1014,7	7	9	8,7	1	1	1	1	1	1	1	1	1	0	1	-0	274,261812	320,807436	0
15.01.2021	10:45:39	0	17,061148	2,732829	2,664	360	0,272	88,961	0	1014,68	7,1	9	8,8	1	1	1	1	1	1	1	1	1	0	1	-0	274,591172	322,351235	0
15.01.2021	10:45:40	0	17,061166	3,643791	2,49375	1,242	0,269	88,974	0	1014,78	7,1	9	8,7	1	1	1	1	1	1	1	1	1	0	1	-1,973221	274,290427	318,968119	0
15.01.2021	10:45:41	0	17,061185	3,985371	2,5695	6,4368	0,263	88,952	0	1014,8	7,1	9	8,8	1	1	1	1	1	1	1	1	1	0	1	-0	274,225728	320,638637	0
15.01.2021	10:45:42	0	17,17806	3,643788	2,51775	0,8532	0,26	88,956	0	1014,64	7,1	9	8,7	1	1	1	1	1	1	1	1	1	0	1	-0	274,34476	321,195713	0
15.01.2021	10:45:43	0	16,944364	2,960576	2,4825	12,8484	0,265	88,957	0	1014,64	7,1	9	8,7	1	1	1	1	1	1	1	1	1	0	1	-0	274,405311	321,479371	0
15.01.2021	10:45:44	0	16,944382	3,529894	2,47875	1,5588	0,269	88,969	0	1014,74	7,1	9	8,8	1	1	1	1	1	1	1	1	1	0	1	-0	274,335694	321,153257	0
15.01.2021	10:45:45	0	17,061258	3,757628	2,4975	9,7452	0,27	88,977	0	1014,76	7,1	9	8,8	1	1	1	1	1	1	1	1	1	0	1	-0	274,307013	321,018972	0
15.01.2021	10:45:46	0	16,944656	2,391202	2,51925	10,818	0,271	88,976	0	1014,76	7	8,8	8,9	1	1	1	1	1	1	1	1	1	0	1	-0,916138	274,255794	319,863138	0
15.01.2021	10:45:47	0	17,411869	3,643778	2,44875	2,2968	0,266	88,966	0	1014,82	7	9	8,7	1	1	1	1	1	1	1	1	1	0	1	-0	274,297964	320,976617	0
15.01.2021	10:45:48	0	17,178412	3,41602	2,29275	2,6424	0,266	88,961	0	1014,68	7	8,8	8,8	1	1	1	1	1	1	1	1	1	0	1	-0	274,257298	320,786315	0
15.01.2021	10:45:49	0	17,061331	2,732798	2,2605	19,1268	0,266	88,973	0	1014,78	7	9	8,9	1	1	1	1	1	1	1	1	1	0	1	-0	274,264822	320,821519	0
15.01.2021	10:45:50	0	16,944491	4,89629	2,211	16,8552	0,272	88,979	0	1014,82	7,1	9	8,8	1	1	1	1	1	1	1	1	1	0	1	-0	274,403795	321,472266	0
15.01.2021	10:45:51	0	17,178227	3,18828	2,1345	19,5084	0,267	88,961	0	1014,62	7,1	9	8,8	1	1	1	1	1	1	1	1	1	0	1	-0,352361	274,278374	320,532569	0
15.01.2021	10:45:52	0	17,061386	3,529901	2,14725	4,8384	0,265	88,962	0	1014,74	7	9	8,7	1	1	1	1	1	1	1	1	1	0	1	-0	274,368958	321,309047	0
15.01.2021	10:45:53	0	17,061405	5,124016	2,2275	6,8904	0,27	88,957	0	1014,7	7,1	9	8,8	1	1	1	1	1	1	1	1	1	0	1	-0,916138	274,255794	319,863138	0
15.01.2021	10:45:54	0	16,944564	2,960541	2,256	0,4788	0,268	88,987	0	1014,74	7,1	9	8,8	1	1	1	1	1	1	1	1	1	0	1	-0	274,308521	321,026034	0
15.01.2021	10:45:55	0	16,827723	4,554704	2,3175	8,9856	0,268	88,98	0	1014,74	7,1	9	8,7	1	1	1	1	1	1	1	1	1	0	1	-0	274,428066	321,586021	0
15.01.2021	10:45:56	0	17,178319	3,643717	2,235	8,604	0,258	88,976	0	1014,7	7,1	9	8,9	1	1	1	1	1	1	1	1	1	0	1	-0	274,322103	321,089618	0
15.01.2021	10:45:57	0	16,827759	3,074403	2,1345	2,3148	0,263	88,971	0	1014,82	7,1	9	8,8	1	1	1	1	1	1	1	1	1	0	1	-0	274,287413	320,927233	0
15.01.2021	10:45:58	0	16,594058	4,32691	2,0715	7,5132	0,27	88,98	0	1014,84	7,1	9	8,9	1	1	1	1	1	1	1	1	1	0	1	-0,140944	274,290427	320,800395	0
15.01.2021	10:45:59	0	16,827795	4,668534	1,97475	0,8568	0,27	88,977	0	1014,82	7	9	8,8	1	1	1	1	1	1	1	1	1	0	1	-0	274,387126	321,39416	0
15.01.2021	10:46:00	0	16,827831	3,074416	1,83975	6,7968	0,269	88,976	0	1014,76	7	9	8,7	1	1	1	1	1	1	1	1	1	0	1	-0	274,388641	321,401257	0
15.01.2021	10:46:01	0	16,827831	3,074416	1,83975	6,7968	0,269	88,976	0	1014,76	7	9	8,7	1	1	1	1	1	1	1	1	1	0	1	-0	274,411376	321,507796	0
15.01.2021	10:46:02	0	16,477269	3,985304	1,9335	359,4204	0,263	88,971	0	1014,66	7,1	9	8,9	1	1	1	1	1	1	1	1	1	0	1	-0	274,249777	320,751127	0
15.01.2021	10:46:03	0	16,594147	2,960527	1,93425	353,2608	0,27	88,969	0	1014,86	7,1	9	8,8	1	1	1	1	1	1	1	1	1	0	1	-0	274,275361	320,870834	0
15.01.2021	10:46:04	0	16,827885	3,074392	1,989	352,548	0,268	88,969	0	1014,76	7	9	8,8	1	1	1	1	1	1	1	1	1	0	1	-0	274,282893	320,906078	0
15.01.2021	10:46:05	0	16,827903	5,010118	1,96575	358,4088	0,268	88,964	0	1014,74	7,1	9	8,8	1	1	1	1	1	1	1	1	1	0	1	-0	274,385611	321,387064	0
15.01.2021	10:46:06	0	16,5942	4,554651	2,046	3,024	0,262	88,97	0	1014,58	7,1	9	8,8	1	1	1	1	1	1	1	1	1	0	1	-0	274,237749	320,694861	0
15.01.2021	10:46:07	0	16,82794	5,010113	2,40675	1,8972	0,264	88,962	0	1014,68	7,1	9	8,8	1	1	1	1	1	1	1	1	1	0	1	-0	274,384097	321,379968	0
15.01.2021	10:46:08	0	16,594236	4,668484	2,61825	357,9732	0,268	88,955	0	1014,68	7,1	9	8,9	1	1	1	1	1	1	1	1	1	0	1	-0	274,245266	320,730022	0
15.01.2021	10:46:09	0	16,477624	2,960518	2,7165	0,1224	0,272	88,973	0	1014,78	7,1	8,8	8,8	1	1	1	1	1	1	1	1	1	0	1	-0,352361	274,242259	320,363595	0
15.01.2021	10:46:10	0	16,47741	3,074383	2,54925	22,446	0,262	88,959	0	1014,76	7,1	9	8,8	1	1	1	1	1	1	1	1	1	0	1	-0	274,328142	321,117895	0
15.01.2021	10:46:11	0	16,126845	4,896207	2,44425	5,6664	0,26	88,96	0	1014,62	7	9	8,9	1	1	1	1	1	1	1	1	1	0	1	-0	274,405311	321,479371	0
15.01.2021	10:46:12	0	16,477446	2,846665	2,3835	9,3744	0,273	88,979	0	1014,76	7	9	8,7	1	1	1	1	1	1	1	1	1	0	1	-0	274,296456	320,96956	0
15.01.2021	10:46:13	0	16,477463	4,440795	2,367	358,7796	0,268	88,961	0	1014,78	7,1	9	8,7	1	1	1	1	1	1	1	1	1	0	1	-0	274,411376	321,507796	0
15.01.2021	10:46:14	0	16,477481	4,66847	2,42025	2,6388	0,263	88,961	0	1014,74	7	9	8,9	1	1	1	1	1	1	1	1	1	0	1	-0	274,290427	320,941339	0
15.01.2021	10:46:15	0	16,477499	3,529838	2,38575	356,5548	0,268	88,962	0	1014,78	7,1	9	8,8	1	1	1	1	1	1	1	1	1	0	1	-0	274,41441	321,522012	0
15.01.2021	10:46:16	0	16,477516	3,302124	2,29575	359,4276	0,268	88,95	0	1014,7	7,1	9	8,7	1	1	1	1	1	1	1	1	1	0	1	-0	274,408343	321,493582	0
15.01.2021	10:46:17	0	16,010086	3,757565	2,1885	3,7728	0,273	88,962	0	1014,74	7,1	9	8,8	1	1	1	1	1	1	1	1	1	0	1	-0	274,291934	320,948393	0
15.01.2021	10:46:18	0	16,010103	3,302101	2,127	11,1816	0,262	88,951	0	1014,72	7,1	9	8,8	1	1	1	1	1	1	1	1	1	0	1	-0	274,260308	320,800395	0
15.01.2021	10:46:19	0	16,243845	3,415986	2,178	2,61	0,27	88,956	0	1014,78	6,9	9	8,7	1	1	1	1	1	1	1	1	1	0	1	-0	274,349295	321,21695	0
15.01.2021	10:46:20	0	15,893275	3,529829	2,337	7,4952	0,273	88,96	0	1014,68	7,1	9	8,8	1	1	1	1	1	1	1	1	1	0	1	-0	274,393186	321,422553	0
15.01.2021	10:46:21	0	15,77643	4,782346	2,325	0,5112	0,269	88,958	0	1014,84	7	9	8,8	1	1	1	1	1	1	1	1	1	0	1	-0	274,402279	321,465162	0
15.01.2021	10:46:22	0	15,893309	4,782315	2,27775	10,0548	0,27	88,963	0	1014,66	7,1	9	8,9	1	1	1	1	1	1	1	1	1	0	1	-0	274,349295	321,21695	0
15.01.2021	10:46:23	0	16,010189	4,326854	2,193	8,9928	0,269	88,946	0	1014,72	7	9	8,9	1	1	1	1	1	1	1	1	1	0	1	-0	274,418961	321,543342	0
15.01.2021	10:46:24	0	15,776481	3,188245	2,1285	13,1724	0,272	88,963	0	1014,7	7,1	9	8,7	1	1	1	1	1	1	1	1	1	0	1	-0	274,368958	321,309047	0
15.01.2021	10:46:25	0	16,010223	4,782336	2,04525	2,304	0,265	88,957	0	1014,64	7,1	9	8,8	1	1	1	1	1	1	1	1	1	0	1	-2,043693	274,396216	319,39306	0
15.01.2021	10:46:26	0	15,893377	4,668469	1,92975	0,8712	0,27	88,955	0	1014,74	7,1	9	8,8	1	1	1	1	1	1	1	1	1	0	1	-0	274,313047	321,047223	0
15.01.2021	10:46:27	0	15,776531	4,896167	1,9005	1,1736	0,272	88,963	0	1014,9	7,1	9	8,9	1	1	1	1	1	1	1	1	1	0	1	-0,493305	274,343249	320,69533	0
15.01.2021	10:46:28	0	15,659685	4,554599	1,91325	6,0732	0,273	88,962	0	1014,74	7,1	9	8,8	1	1	1	1	1	1	1	1	1	0	1	-0	274,412893	321,514904	0
15.01.2021	10:46:29	0	16,127155	4,212977	1,93875	2,394	0,272	88,948	0	1014,8	7,1	9	8,9	1	1	1	1	1	1	1	1	1	0	1	-0	274,34476	321,195713	0
15.01.2021	10:46:30	0	15,893445	5,351616	1,91475	6,4332	0,273	88,941	0	1014,76	7	9	8,9	1	1	1	1	1	1	1	1	1	0	1	-0	274,236246	320,687831	0
15.01.2021	10:46:31	0	15,659735	3,871403	1,9215	360	0,268	88,958	0	1014,72	7	9	8,8	1	1	1	1	1	1	1	1	1	0	1	-0	274,245266	320,730022	0
15.01.2021	10:46:32	0	15,659752	3,985266	2,12775	15,7932	0,264	88,964	0	1014,9	7,1	9	8,8	1	1	1	1	1	1	1	1	1	0	1	-0	274,353831	321,238193	0
15.01.2021	10:46:33	0	15,659768	3,188192	2,37975	15,3936	0,272	88,958	0	1014,7	7,1	9	8,9	1	1	1	1	1	1	1	1	1	0	1	-0	274,251281	320,758163	0
15.01.2021	10:46:34	0	15,776649	5,237773	2,52075	18,432	0,271	88,958	0	1014,62	7,1	9	8,8	1	1	1	1	1	1	1	1	1	0	1	-0,422833	274,325122	320,680923	0
15.01.2021	10:46:35	0	15,426074	3,643666	2,4015	14,742	0,27	88,942	0	1014,72	7	9	8,8	1	1	1	1	1	1	1	1	1	0	1	-0	274,243762	320,722989	0
15.01.2021	10:46:36	0	15,893547	5,237767	2,30625	12,4632	0,265	88,956	0	1014,66	7	9	8,8	1	1	1	1	1	1	1	1	1	0	1	-0	274,379554	321,358684	0
15.01.2021	10:46:37	0	15,426106	4,668442	2,25825	18,45	0,272	88,954	0	1014,58	7	9	8,8	1	1	1	1	1	1	1	1	1	0	1	-0	274,350807	321,22403	0
15.01.2021	10:46:38	0	15,426123	2,732762	2,33625	7,1208	0,269	88,958	0	1014,76	7	9	8,7	1	1	1	1	1	1	1	1	1	0	1	-0	274,408343	321,493582	0
15.01.2021	10:46:39	0	15,543004	4,213005	2,259	10,8036	0,268	88,956	0	1014,72	7	9	8,7	1	1	1	1	1	1	1	1	1	0	1	-0	274,368958	321,309047	0
15.01.2021	10:46:40	0	15,309291	3,1882	2,049	22,4712	0,271	88,954	0	1014,76	7	9	8,8	1	1	1	1	1	1	1	1	1	0	1	-2,677942	274,264822	318,143577	0
15.01.2021	10:46:41	0	15,659902	3,302062	1,8645	11,196	0,271	88,959	0	1014,74	7	9	8,8	1	1	1	1	1	1	1	1	1	0	1	-0	274,278374	320,884929	0
15.01.2021	10:46:42	0	15,309324	3,074351	1,68	10,4436	0,272	88,954	0	1014,76	7,1	9	8,7	1	1	1	1	1	1	1	1	1	0	1	-0	274,294949	320,962504	0
15.01.2021	10:46:43	0	15,192475	2,960484	1,629	7,8768	0,277	88,963	0	1014,8	7	9	8,7	1	1	1	1	1	1	1	1	1	0	1	-0	274,251281	320,758163	0
15.01.2021	10:46:44	0	15,075626	2,960465	1,6995	360	0,274	88,957	0	1014,7	7	9	8,8	1	1	1	1	1	1	1	1	1	0	1	-0	274,390156	321,408355	0
15.01.2021	10:46:45	0	15,075642	3,188191	1,70025	348,0012	0,275	88,962	0	1014,78	7,1	9	8,8	1	1	1	1	1	1	1	1	1	0	1	-0	274,411376	321,507796	0
15.01.2021	10:46:46	0	15,309389	2,618886	1,71	348,2748	0,274	88,966	0	1014,72	6,9	9	8,7	1	1	1	1	1	1	1	1	1	0	1	-0	274,267833	320,835606	0
15.01.2021	10:46:47	0	15,075674	3,757507	1,72875	10,0548	0,275	88,961	0	1014,74	7,1	9	8,8	1	1	1	1	1	1	1	1	1	0	1	-0	274,281386	320,899028	0
15.01.2021	10:46:48	0	14,958824	3,757483	1,77375	346,7736	0,269	88,964	0	1014,74	7,1	9	8,9	1	1	1	1	1	1	1	1	1	0	1	-0	274,408343	321,493582	0
15.01.2021	10:46:49	0	15,309438	3,64364	1,692	352,008	0,274	88,938	0	1014,7	7,1	9	8,8	1	1	1	1	1	1	1	1	1	0	1	-0	274,308521	321,026034	0
15.01.2021	10:46:50	0	15,309454	4,212982	1,68525	355,4424	0,269	88,946	0	1014,6	7,1	9	8,7	1	1	1	1	1	1	1	1	1	0	1	-0	274,406827	321,486476	0
15.01.2021	10:46:51	0	15,192605	4,782272	1,87725	357,9696	0,272	88,949	0	1014,68	7	9	8,8	1	1	1	1	1	1	1	1	1	0	1	-0	274,415927	321,529122	0
15.01.2021	10:46:52	0	15,075754	2,846589	2,07	359,7912	0,274	88,953	0	1014,74	7	9	8,8	1	1	1	1	1	1	1	1	1	0	1	-0	274,325122	321,103756	0
15.01.2021	10:46:53	0	14,958904	3,074315	2,319	350,55	0,27	88,944	0	1014,74	7,1	9	8,8	1	1	1	1	1	1	1	1	1	0	1	-0	274,245266	320,730022	0
15.01.2021	10:46:54	0	15,30952	3,415924	2,37	347,9544	0,271	88,95	0	1014,68	7	9	8,7	1	1	1	1	1	1	1	1	1	0	1	-0	274,282893	320,906078	0
15.01.2021	10:46:55	0	14,958936	3,188194	2,487	357,6348	0,274	88,955	0	1014,82	7	9	8,7	1	1	1	1	1	1	1	1	1	0	1	-0	274,417444	321,536232	0
15.01.2021	10:46:56	0	14,958952	4,09908	2,5845	348,0156	0,273	88,943	0	1014,7	7,1	9	8,8	1	1	1	1	1	1	1	1	1	0	1	-0	274,353831	321,238193	0
15.01.2021	10:46:57	0	14,842101	2,732719	2,52375	358,8048	0,274	88,948	0	1014,76	7	9	8,8	1	1	1	1	1	1	1	1	1	0	1	-0	274,397732	321,443854	0
15.01.2021	10:46:58	0	14,72525	2,960444	2,4915	347,9256	0,269	88,94	0	1014,72	7,1	9	8,8	1	1	1	1	1	1	1	1	1	0	1	-0	274,379554	321,358684	0
15.01.2021	10:46:59	0	14,959	3,529758	2,45175	353,9736	0,27	88,941	0	1014,82	7	9	8,8	1	1	1	1	1	1	1	1	1	0	1	-0	274,243762	320,722989	0
15.01.2021	10:47:00	0	14,842164	3,643639	2,53425	357,5844	0,266	88,935	0	1014,68	7	9	8,7	1	1	1	1	1	1	1	1	1	0	1	-0	274,267833	320,835606	0
15.01.2021	10:47:01	0	14,842164	3,643639	2,53425	357,5844	0,266	88,935	0	1014,68	7	9	8,7	1	1	1	1	1	1	1	1	1	0	1	-0	274,246769	320,737056	0
15.01.2021	10:47:02	0	14,725312	4,099067	2,4555	0,486	0,271	88,93	0	1014,76	7	9	8,8	1	1	1	1	1	1	1	1	1	0	1	-0	274,40986	321,500688	0
15.01.2021	10:47:03	0	14,60846	2,846573	2,4765	0,8496	0,27	88,931	0	1014,74	7,1	9	8,8	1	1	1	1	1	1	1	1	1	0	1	-0	274,234743	320,680801	0
15.01.2021	10:47:04	0	15,075947	3,074297	2,5755	1,152	0,274	88,95	0	1014,82	7,1	9	8,8	1	1	1	1	1	1	1	1	1	0	1	-0	274,276867	320,877881	0
15.01.2021	10:47:05	0	14,608491	2,732707	2,61675	4,4676	0,274	88,935	0	1014,74	7,1	9	8,8	1	1	1	1	1	1	1	1	1	0	1	-0	274,356855	321,252358	0
15.01.2021	10:47:06	0	14,842243	2,960431	2,47275	3,0276	0,265	88,938	0	1014,74	7,1	9	8,8	1	1	1	1	1	1	1	1	1	0	1	-0	274,230235	320,659716	0
15.01.2021	10:47:07	0	14,491654	3,188155	2,2875	357,768	0,275	88,939	0	1014,8	7,1	9	8,8	1	1	1	1	1	1	1	1	1	0	1	-0	274,370471	321,316136	0
15.01.2021	10:47:08	0	14,608538	3,188154	2,12175	355,0428	0,272	88,935	0	1014,84	7,1	9	8,8	1	1	1	1	1	1	1	1	1	0	1	-0	274,242259	320,715956	0
15.01.2021	10:47:09	0	15,192896	5,237678	1,98975	358,8336	0,267	88,938	0	1014,78	7,1	9	8,8	1	1	1	1	1	1	1	1	1	0	1	-0	274,356855	321,252358	0
15.01.2021	10:47:10	0	14,725438	4,440638	1,89825	356,9616	0,27	88,928	0	1014,76	7	9	8,8	1	1	1	1	1	1	1	1	1	0	1	-0	274,242259	320,715956	0
15.01.2021	10:47:11	0	15,192928	4,896115	1,92375	357,2172	0,272	88,944	0	1014,78	6,9	9	8,7	1	1	1	1	1	1	1	1	1	0	1	-0	274,291934	320,948393	0
15.01.2021	10:47:12	0	14,959207	3,30201	1,94025	359,1072	0,27	88,943	0	1014,7	7	9	8,8	1	1	1	1	1	1	1	1	1	0	1	-0	274,254289	320,772238	0
15.01.2021	10:47:13	0	14,491747	4,212907	2,03775	359,8488	0,271	88,939	0	1014,76	7,1	9	8,8	1	1	1	1	1	1	1	1	1	0	1	-0	274,350807	321,22403	0
15.01.2021	10:47:14	0	14,7255	3,529731	2,01	1,5336	0,268	88,943	0	1014,82	7,1	9	8,8	1	1	1	1	1	1	1	1	1	0	1	-0	274,240755	320,708923	0
15.01.2021	10:47:15	0	14,959254	5,009938	1,98	7,11	0,274	88,945	0	1014,86	7	9	8,8	1	1	1	1	1	1	1	1	1	0	1	-0	274,388641	321,401257	0
15.01.2021	10:47:16	0	14,374924	2,61883	1,929	6,408	0,269	88,947	0	1014,62	7,1	9	8,8	1	1	1	1	1	1	1	1	1	0	1	-0	274,396216	321,436753	0
15.01.2021	10:47:17	0	14,959286	3,871312	1,8915	353,16	0,268	88,945	0	1014,74	7,1	9	8,8	1	1	1	1	1	1	1	1	1	0	1	-0	274,387126	321,39416	0
15.01.2021	10:47:18	0	14,725563	4,896068	1,88175	7,1316	0,272	88,946	0	1014,76	7	9	8,8	1	1	1	1	1	1	1	1	1	0	1	-0	274,335694	321,153257	0
15.01.2021	10:47:19	0	14,725579	3,871308	1,89975	357,6276	0,276	88,949	0	1014,7	7,1	9	8,8	1	1	1	1	1	1	1	1	1	0	1	-0	274,406827	321,486476	0
15.01.2021	10:47:20	0	14,608724	3,415858	1,89225	5,6628	0,267	88,955	0	1014,72	7	9	8,8	1	1	1	1	1	1	1	1	1	0	1	-0	274,331163	321,132038	0
15.01.2021	10:47:21	0	14,72561	2,732685	1,8735	359,496	0,27	88,954	0	1014,84	7,1	9	8,8	1	1	1	1	1	1	1	1	1	0	1	-0	274,408343	321,493582	0
15.01.2021	10:47:22	0	14,725626	4,782196	1,99425	19,89	0,267	88,947	0	1014,7	7,1	9	8,8	1	1	1	1	1	1	1	1	1	0	1	-0	274,258803	320,793354	0
15.01.2021	10:47:23	0	14,608771	3,415853	2,07525	26,8848	0,272	88,947	0	1014,72	7,1	9	8,8	1	1	1	1	1	1	1	1	1	0	1	-0	274,370471	321,316136	0
15.01.2021	10:47:24	0	14,725657	4,099021	2,061	348,3936	0,272	88,96	0	1014,74	7	9	8,8	1	1	1	1	1	1	1	1	1	0	1	-0	274,379554	321,358684	0
15.01.2021	10:47:25	0	14,491932	2,96042	1,96875	11,7036	0,273	88,966	0	1014,78	7,1	9	8,7	1	1	1	1	1	1	1	1	1	0	1	-0	274,403795	321,472266	0
15.01.2021	10:47:26	0	14,491947	2,84654	1,88925	3,3876	0,274	88,955	0	1014,8	7	9	8,8	1	1	1	1	1	1	1	1	1	0	1	-0	274,391671	321,415454	0
15.01.2021	10:47:27	0	14,491962	2,960417	1,75575	8,6868	0,27	88,954	0	1014,82	7,1	9	8,7	1	1	1	1	1	1	1	1	1	0	1	-0	274,257298	320,786315	0
15.01.2021	10:47:28	0	14,84259	3,529705	1,80675	7,8696	0,265	88,958	0	1014,76	7,1	9	8,8	1	1	1	1	1	1	1	1	1	0	1	-0	274,294949	320,962504	0
15.01.2021	10:47:29	0	14,491993	3,871288	1,90875	12,0744	0,274	88,948	0	1014,74	7,1	9	8,8	1	1	1	1	1	1	1	1	1	0	1	-0	274,382582	321,372873	0
15.01.2021	10:47:30	0	14,60888	3,188118	1,9845	10,4688	0,271	88,95	0	1014,76	7,1	9	8,8	1	1	1	1	1	1	1	1	1	0	1	-0	274,243762	320,722989	0
15.01.2021	10:47:31	0	14,492024	3,415839	2,0415	14,6412	0,277	88,969	0	1014,68	7	9	8,8	1	1	1	1	1	1	1	1	1	0	1	-0	274,361393	321,273611	0
15.01.2021	10:47:32	0	14,492039	4,099004	2,19075	10,4328	0,277	88,949	0	1014,88	7,1	9	8,8	1	1	1	1	1	1	1	1	1	0	1	-0	274,408343	321,493582	0
15.01.2021	10:47:33	0	14,375183	3,985141	2,262	7,506	0,276	88,947	0	1014,88	7	9	8,8	1	1	1	1	1	1	1	1	1	0	1	-0	274,384097	321,379968	0
15.01.2021	10:47:34	0	14,375198	4,554445	2,26725	8,2584	0,272	88,955	0	1014,8	7,1	9	8,8	1	1	1	1	1	1	1	1	1	0	1	-0	274,284399	320,913129	0
15.01.2021	10:47:35	0	14,608957	3,757415	2,22525	9,7524	0,277	88,957	0	1014,78	7	9	8,8	1	1	1	1	1	1	1	1	1	0	1	-0	274,242259	320,715956	0
15.01.2021	10:47:36	0	14,725844	4,55444	2,17125	8,9784	0,276	88,961	0	1014,78	7	9	8,8	1	1	1	1	1	1	1	1	1	0	1	-0,563777	274,367445	320,738181	0
15.01.2021	10:47:37	0	14,375244	4,326716	1,97475	20,2788	0,277	88,961	0	1014,68	7,1	9	8,8	1	1	1	1	1	1	1	1	1	0	1	-0	274,382582	321,372873	0
15.01.2021	10:47:38	0	14,842748	5,351494	1,791	355,7988	0,269	88,947	0	1014,7	7	9	8,7	1	1	1	1	1	1	1	1	1	0	1	-0	274,411376	321,507796	0
15.01.2021	10:47:39	0	14,258403	3,415825	1,65825	13,9068	0,274	88,967	0	1014,82	7	9	8,8	1	1	1	1	1	1	1	1	1	0	1	-0	274,361393	321,273611	0
15.01.2021	10:47:40	0	14,492162	4,212848	1,64775	2,7108	0,268	88,955	0	1014,78	7	9	8,8	1	1	1	1	1	1	1	1	1	0	1	-0	274,236246	320,687831	0
15.01.2021	10:47:41	0	14,60905	3,074239	1,677	358,4376	0,271	88,953	0	1014,7	7	9	8,8	1	1	1	1	1	1	1	1	1	0	1	-0	274,335694	321,153257	0
15.01.2021	10:47:42	0	14,37532	4,554426	1,608	6,8076	0,277	88,959	0	1014,82	7	9	8,8	1	1	1	1	1	1	1	1	1	0	1	-0	274,237749	320,694861	0
15.01.2021	10:47:43	0	14,609081	3,643539	1,56675	3,024	0,271	88,958	0	1014,86	7	9	8,8	1	1	1	1	1	1	1	1	1	0	1	-0	274,341738	321,181558	0
15.01.2021	10:47:44	0	14,492224	4,896003	1,527	3,7584	0,274	88,95	0	1014,68	7,1	9	8,8	1	1	1	1	1	1	1	1	1	0	1	-0	274,290427	320,941339	0
15.01.2021	10:47:45	0	14,375366	4,440559	1,5015	23,5944	0,276	88,971	0	1014,86	7	9	8,8	1	1	1	1	1	1	1	1	1	0	1	-0	274,418961	321,543342	0
15.01.2021	10:47:46	0	14,375381	4,440556	1,482	3,0096	0,271	88,952	0	1014,76	7	9	8,8	1	1	1	1	1	1	1	1	1	0	1	-0	274,37804	321,351591	0
15.01.2021	10:47:47	0	14,726016	4,098973	1,53225	360	0,278	88,976	0	1014,7	7	9	8,8	1	1	1	1	1	1	1	1	1	0	1	-0	274,23324	320,673772	0
15.01.2021	10:47:48	0	14,375412	2,846508	1,51725	0,486	0,276	88,964	0	1014,72	7,1	9	8,8	1	1	1	1	1	1	1	1	1	0	1	-0	274,305504	321,011912	0
15.01.2021	10:47:49	0	14,4923	2,732646	1,50675	355,0176	0,274	88,959	0	1014,76	7	9	8,8	1	1	1	1	1	1	1	1	1	0	1	-0	274,236246	320,687831	0
15.01.2021	10:47:50	0	14,492316	3,301945	1,49175	347,5872	0,275	88,975	0	1014,72	7	9	8,8	1	1	1	1	1	1	1	1	1	0	1	-0	274,35988	321,266526	0
15.01.2021	10:47:51	0	14,726078	3,074224	1,59375	353,556	0,274	88,965	0	1014,68	7	9	8,8	1	1	1	1	1	1	1	1	1	0	1	-0	274,415927	321,529122	0
15.01.2021	10:47:52	0	14,726094	3,415802	1,698	342,7596	0,274	88,962	0	1014,78	7,1	9	8,8	1	1	1	1	1	1	1	1	1	0	1	-0	274,368958	321,309047	0
15.01.2021	10:47:53	0	14,609235	4,440567	1,752	351,396	0,27	88,961	0	1014,8	7	9	8,7	1	1	1	1	1	1	1	1	1	0	1	-0	274,400763	321,458059	0
15.01.2021	10:47:54	0	14,492377	5,237589	1,70325	331,9344	0,27	88,972	0	1014,68	7	9	8,7	1	1	1	1	1	1	1	1	1	0	1	-0	274,328142	321,117895	0
15.01.2021	10:47:55	0	14,492392	4,668256	1,58325	336,132	0,276	88,989	0	1014,66	7,1	9	8,8	1	1	1	1	1	1	1	1	1	0	1	-0	274,396216	321,436753	0
15.01.2021	10:47:56	0	14,609282	4,212814	1,47525	2,6316	0,275	88,983	0	1014,78	7	9	8,8	1	1	1	1	1	1	1	1	1	0	1	-0,493305	274,346272	320,709486	0
15.01.2021	10:47:57	0	14,492423	4,782111	1,47525	354,7008	0,275	88,967	0	1014,78	7,1	9	8,8	1	1	1	1	1	1	1	1	1	0	1	-0	274,415927	321,529122	0
15.01.2021	10:47:58	0	14,141815	3,871231	1,4715	4,446	0,276	88,98	0	1014,78	7	9	8,8	1	1	1	1	1	1	1	1	1	0	1	-0	274,311538	321,040159	0
15.01.2021	10:47:59	0	14,492454	4,212808	1,52325	27,6588	0,279	88,971	0	1014,64	7	9	8,8	1	1	1	1	1	1	1	1	1	0	1	-0	274,406827	321,486476	0
15.01.2021	10:48:00	0	14,492484	3,074208	1,4055	355,05	0,273	88,995	0	1014,82	7,1	9	8,8	1	1	1	1	1	1	1	1	1	0	1	-1,127555	274,337205	320,032777	0
15.01.2021	10:48:01	0	14,492484	3,074208	1,4055	355,05	0,273	88,995	0	1014,82	7,1	9	8,8	1	1	1	1	1	1	1	1	1	0	1	-0	274,403795	321,472266	0
15.01.2021	10:48:02	0	14,492499	4,44052	1,3455	341,8344	0,277	88,991	0	1014,8	7	9	8,8	1	1	1	1	1	1	1	1	1	0	1	-0	274,355343	321,245275	0
15.01.2021	10:48:03	0	14,726265	4,668237	1,30575	352,8612	0,275	88,996	0	1014,92	7	9	8,8	1	1	1	1	1	1	1	1	1	0	1	-0	274,402279	321,465162	0
15.01.2021	10:48:04	0	14,726281	5,123672	1,3035	350,3556	0,274	88,989	0	1014,68	7	9	8,8	1	1	1	1	1	1	1	1	1	0	1	-0	274,294949	320,962504	0
15.01.2021	10:48:05	0	14,609421	2,960342	1,287	343,2816	0,273	88,986	0	1014,72	7	9	8,8	1	1	1	1	1	1	1	1	1	0	1	-0	274,230235	320,659716	0
15.01.2021	10:48:06	0	14,609436	3,643496	1,3245	356,5944	0,276	88,988	0	1014,8	7	9	8,8	1	1	1	1	1	1	1	1	1	0	1	-0	274,361393	321,273611	0
15.01.2021	10:48:07	0	14,726327	5,009805	1,347	356,5188	0,272	88,966	0	1014,76	7	9	8,8	1	1	1	1	1	1	1	1	1	0	1	-0	274,397732	321,443854	0
15.01.2021	10:48:08	0	14,726343	4,098929	1,2795	357,3612	0,275	88,991	0	1014,82	7	9	8,8	1	1	1	1	1	1	1	1	1	0	1	-0	274,240755	320,708923	0
15.01.2021	10:48:09	0	14,726358	4,554363	1,2255	354,9924	0,278	88,996	0	1014,66	7	9	8,8	1	1	1	1	1	1	1	1	1	0	1	-0	274,394701	321,429653	0
15.01.2021	10:48:10	0	14,609498	3,074194	1,21725	356,9472	0,278	88,978	0	1014,7	7	9	8,8	1	1	1	1	1	1	1	1	1	0	1	-0	274,23324	320,673772	0
15.01.2021	10:48:11	0	14,609513	3,643487	1,24875	3,024	0,277	88,976	0	1014,76	7	9	8,8	1	1	1	1	1	1	1	1	1	0	1	-0	274,293441	320,955448	0
15.01.2021	10:48:12	0	14,492652	3,301908	1,2555	0,8676	0,279	88,994	0	1014,84	7	9	8,8	1	1	1	1	1	1	1	1	1	0	1	-0	274,245266	320,730022	0
15.01.2021	10:48:13	0	14,492668	3,643483	1,30125	5,2056	0,281	88,996	0	1014,76	7	9	8,8	1	1	1	1	1	1	1	1	1	0	1	-0	274,305504	321,011912	0
15.01.2021	10:48:14	0	14,492683	3,074188	1,42575	0,8784	0,283	88,99	0	1014,8	7	9	8,8	1	1	1	1	1	1	1	1	1	0	1	-0	274,41441	321,522012	0
15.01.2021	10:48:15	0	14,492698	3,757338	1,5165	8,9856	0,278	88,98	0	1014,56	7	9	8,8	1	1	1	1	1	1	1	1	1	0	1	-0	274,293441	320,955448	0
15.01.2021	10:48:16	0	14,60959	4,440489	1,5975	6,426	0,284	88,99	0	1014,76	7	9	8,8	1	1	1	1	1	1	1	1	1	0	1	-0	274,219721	320,610541	0
15.01.2021	10:48:17	0	14,726483	4,440486	1,76175	7,884	0,281	88,995	0	1014,74	7	9	8,8	1	1	1	1	1	1	1	1	1	0	1	-0	274,34476	321,195713	0
15.01.2021	10:48:18	0	14,843375	3,301898	1,8345	9,3564	0,278	88,979	0	1014,72	7	9	8,8	1	1	1	1	1	1	1	1	1	0	1	-0	274,270844	320,849695	0
15.01.2021	10:48:19	0	14,609637	2,27717	1,758	5,2236	0,284	88,99	0	1014,74	7	9	8,8	1	1	1	1	1	1	1	1	1	0	1	-0	274,381068	321,365778	0
15.01.2021	10:48:20	0	14,609652	2,618744	1,7115	4,0896	0,282	88,998	0	1014,86	7	9	8,8	1	1	1	1	1	1	1	1	1	0	1	-0	274,237749	320,694861	0
15.01.2021	10:48:21	0	14,49279	3,415752	1,64475	3,1176	0,28	88,989	0	1014,74	7	9	8,8	1	1	1	1	1	1	1	1	1	0	1	-0	274,322103	321,089618	0
15.01.2021	10:48:22	0	14,492805	2,7326	1,74375	3,0168	0,282	88,989	0	1014,76	7	9	8,8	1	1	1	1	1	1	1	1	1	0	1	-0	274,245266	320,730022	0
15.01.2021	10:48:23	0	14,609698	4,212756	1,87575	355,8276	0,283	88,988	0	1014,8	7,1	9	8,8	1	1	1	1	1	1	1	1	1	0	1	-0	274,358368	321,259442	0
15.01.2021	10:48:24	0	14,492836	3,871179	1,95675	8,262	0,287	89,005	0	1014,76	7	9	8,8	1	1	1	1	1	1	1	1	1	0	1	-0	274,249777	320,751127	0
15.01.2021	10:48:25	0	14,726607	2,049447	2,04825	4,9248	0,287	89,001	0	1014,8	7	9	8,8	1	1	1	1	1	1	1	1	1	0	1	-0	274,423513	321,564679	0
15.01.2021	10:48:26	0	15,077256	4,21275	2,12925	2,6388	0,279	88,997	0	1014,74	7	9	8,8	1	1	1	1	1	1	1	1	1	0	1	-0	274,334184	321,146183	0
15.01.2021	10:48:27	0	14,843516	4,440464	2,076	7,1316	0,279	89,003	0	1014,78	7	9	8,8	1	1	1	1	1	1	1	1	1	0	1	-0,775194	274,415927	320,753928	0
15.01.2021	10:48:28	0	15,077288	4,668178	2,00175	352,0908	0,28	88,981	0	1014,74	7	9	8,8	1	1	1	1	1	1	1	1	1	0	1	-0	274,341738	321,181558	0
15.01.2021	10:48:29	0	14,960425	2,846448	2,007	3,7764	0,285	88,992	0	1014,92	7	9	8,8	1	1	1	1	1	1	1	1	1	0	1	-0	274,396216	321,436753	0
15.01.2021	10:48:30	0	15,194198	4,326599	2,004	23,5872	0,281	88,99	0	1014,7	7	9	8,8	1	1	1	1	1	1	1	1	1	0	1	-5,285412	274,334184	315,860771	0
15.01.2021	10:48:31	0	14,609821	1,935583	1,95675	17,2152	0,284	89,01	0	1014,74	7	9	8,8	1	1	1	1	1	1	1	1	1	0	1	-0	274,278374	320,884929	0
15.01.2021	10:48:32	0	14,726715	3,643448	1,9425	8,2548	0,286	89,007	0	1014,8	7	9	8,8	1	1	1	1	1	1	1	1	1	0	1	-0	274,23324	320,673772	0
15.01.2021	10:48:33	0	14,726731	2,846442	1,91925	12,8484	0,283	89,009	0	1014,84	7	9	8,8	1	1	1	1	1	1	1	1	1	0	1	-0	274,347783	321,20987	0
15.01.2021	10:48:34	0	15,077383	2,960299	1,8615	10,5192	0,282	88,989	0	1014,78	7,1	9	8,8	1	1	1	1	1	1	1	1	1	0	1	-0	274,291934	320,948393	0
15.01.2021	10:48:35	0	14,96052	2,84644	1,74075	6,8112	0,288	89,005	0	1014,84	7	9	8,8	1	1	1	1	1	1	1	1	1	0	1	-0	274,287413	320,927233	0
15.01.2021	10:48:36	0	14,726777	3,529583	1,66875	17,2296	0,286	89,006	0	1014,84	7	9	8,8	1	1	1	1	1	1	1	1	1	0	1	-0	274,423513	321,564679	0
15.01.2021	10:48:37	0	15,077431	3,188028	1,56825	15,03	0,284	89,007	0	1014,82	7	9	8,7	1	1	1	1	1	1	1	1	1	0	1	-0	274,337205	321,160331	0
15.01.2021	10:48:38	0	15,194326	3,757295	1,47375	18,0756	0,287	89,004	0	1014,84	7	9	8,8	1	1	1	1	1	1	1	1	1	0	1	-0	274,40986	321,500688	0
15.01.2021	10:48:39	0	15,428101	4,668152	1,41075	28,3572	0,281	88,999	0	1014,66	7	9	8,8	1	1	1	1	1	1	1	1	1	0	1	-0	274,370471	321,316136	0
15.01.2021	10:48:40	0	15,077478	4,782006	1,3515	25,7904	0,288	89,002	0	1014,7	7	9	8,8	1	1	1	1	1	1	1	1	1	0	1	-0	274,245266	320,730022	0
15.01.2021	10:48:41	0	15,194374	4,440432	1,31475	9,8136	0,287	89,007	0	1014,76	7	9	8,8	1	1	1	1	1	1	1	1	1	0	1	-0	274,361393	321,273611	0
15.01.2021	10:48:42	0	14,96063	3,64343	1,377	16,8444	0,289	88,998	0	1014,7	7	9	8,8	1	1	1	1	1	1	1	1	1	0	1	-0	274,273855	320,863787	0
15.01.2021	10:48:43	0	15,077526	4,440428	1,4175	15,4008	0,284	89,007	0	1014,82	7	9	8,8	1	1	1	1	1	1	1	1	1	0	1	-0	274,382582	321,372873	0
15.01.2021	10:48:44	0	15,194422	4,440426	1,4955	13,1616	0,29	89,01	0	1014,82	7	9	8,8	1	1	1	1	1	1	1	1	1	0	1	-0	274,400763	321,458059	0
15.01.2021	10:48:45	0	15,311318	3,301853	1,52175	9,7488	0,288	88,989	0	1014,86	7	9	8,8	1	1	1	1	1	1	1	1	1	0	1	-0	274,251281	320,758163	0
15.01.2021	10:48:46	0	14,843812	3,984993	1,461	15,0192	0,288	89,012	0	1014,8	7	9	8,8	1	1	1	1	1	1	1	1	1	0	1	-0	274,31003	321,033096	0
15.01.2021	10:48:47	0	15,31135	4,440419	1,49475	16,4628	0,288	88,998	0	1014,8	7	9	8,8	1	1	1	1	1	1	1	1	1	0	1	-0	274,362906	321,280697	0
15.01.2021	10:48:48	0	15,428247	2,618707	1,44825	3,3876	0,284	88,983	0	1014,76	7	9	8,8	1	1	1	1	1	1	1	1	1	0	1	-0	274,282893	320,906078	0
15.01.2021	10:48:49	0	14,96074	4,440414	1,47	4,0968	0,287	88,983	0	1014,94	7	9	8,8	1	1	1	1	1	1	1	1	1	0	1	-0	274,412893	321,514904	0
15.01.2021	10:48:50	0	15,54516	3,187988	1,47825	354,1932	0,287	89,002	0	1014,72	7	9	8,8	1	1	1	1	1	1	1	1	1	0	1	-0	274,358368	321,259442	0
15.01.2021	10:48:51	0	15,077652	3,984983	1,49175	352,8288	0,283	89,003	0	1014,76	7	9	8,8	1	1	1	1	1	1	1	1	1	0	1	-0	274,406827	321,486476	0
15.01.2021	10:48:52	0	15,311431	3,871125	1,49175	353,61	0,286	89,01	0	1014,68	7	9	8,8	1	1	1	1	1	1	1	1	1	0	1	-0	274,287413	320,927233	0
15.01.2021	10:48:53	0	15,077684	3,074127	1,5285	349,416	0,289	89,008	0	1014,72	7	9	8,8	1	1	1	1	1	1	1	1	1	0	1	-0	274,423513	321,564679	0
15.01.2021	10:48:54	0	15,545225	3,757264	1,5465	350,2836	0,289	88,998	0	1014,68	7	9	8,8	1	1	1	1	1	1	1	1	1	0	1	-0,070472	274,326632	321,040353	0
15.01.2021	10:48:55	0	15,545242	3,757262	1,52925	354,6396	0,283	88,996	0	1014,72	7	9	8,8	1	1	1	1	1	1	1	1	1	0	1	-0	274,417444	321,536232	0
15.01.2021	10:48:56	0	15,428376	3,643404	1,52775	354,2868	0,286	89,016	0	1014,72	7	9	8,8	1	1	1	1	1	1	1	1	1	0	1	-0	274,337205	321,160331	0
15.01.2021	10:48:57	0	15,545274	2,960264	1,533	2,6352	0,289	89,006	0	1014,76	7	9	8,8	1	1	1	1	1	1	1	1	1	0	1	-1,691332	274,252785	319,073868	0
15.01.2021	10:48:58	0	15,545291	4,668107	1,521	357,6096	0,29	89,01	0	1014,72	7	9	8,8	1	1	1	1	1	1	1	1	1	0	1	-0	274,293441	320,955448	0
15.01.2021	10:48:59	0	15,311543	2,504836	1,4805	357,6384	0,289	89,009	0	1014,84	7	9	8,8	1	1	1	1	1	1	1	1	1	0	1	-0	274,254289	320,772238	0
15.01.2021	10:49:00	0	15,077811	2,960258	1,41675	358,0056	0,282	89,009	0	1014,88	7	9	8,8	1	1	1	1	1	1	1	1	1	0	1	-0	274,281386	320,899028	0
15.01.2021	10:49:01	0	15,077811	2,960258	1,41675	358,0056	0,282	89,009	0	1014,88	7	9	8,8	1	1	1	1	1	1	1	1	1	0	1	-0	274,243762	320,722989	0
15.01.2021	10:49:02	0	15,662238	3,074113	1,4235	348,7284	0,287	89,001	0	1014,86	7	9	8,8	1	1	1	1	1	1	1	1	1	0	1	-0	274,396216	321,436753	0
15.01.2021	10:49:03	0	15,42849	2,390975	1,45875	358,3512	0,287	88,991	0	1014,8	7	9	8,8	1	1	1	1	1	1	1	1	1	0	1	-0	274,406827	321,486476	0
15.01.2021	10:49:04	0	15,194741	4,440381	1,4625	354,6072	0,289	89,013	0	1014,76	7	9	8,8	1	1	1	1	1	1	1	1	1	0	1	-2,677942	274,340227	318,49654	0
15.01.2021	10:49:05	0	15,662288	3,984955	1,47675	346,4892	0,287	89,008	0	1014,66	7	9	8,8	1	1	1	1	1	1	1	1	1	0	1	-0	274,421996	321,557566	0
15.01.2021	10:49:06	0	15,428538	4,895799	1,58625	345,2868	0,285	89,003	0	1014,8	7	9	8,8	1	1	1	1	1	1	1	1	1	0	1	-0	274,364419	321,287783	0
15.01.2021	10:49:07	0	15,194788	2,846394	1,62375	356,8752	0,289	88,998	0	1014,72	7	9	8,8	1	1	1	1	1	1	1	1	1	0	1	-0,422833	274,408343	321,070749	0
15.01.2021	10:49:08	0	15,662337	5,123506	1,5555	360	0,284	89	0	1014,8	7	9	8,8	1	1	1	1	1	1	1	1	1	0	1	-0	274,373498	321,330316	0
15.01.2021	10:49:09	0	15,54547	2,618679	1,54575	8,9856	0,281	88,998	0	1014,72	7	9	8,8	1	1	1	1	1	1	1	1	1	0	1	-0	274,356855	321,252358	0
15.01.2021	10:49:10	0	15,66237	4,895789	1,5675	8,2548	0,292	89	0	1014,74	7	9	8,8	1	1	1	1	1	1	1	1	1	0	1	-0	274,251281	320,758163	0
15.01.2021	10:49:11	0	15,779269	3,074099	1,4625	17,7732	0,29	88,997	0	1014,82	7	9	8,8	1	1	1	1	1	1	1	1	1	0	1	-0	274,305504	321,011912	0
15.01.2021	10:49:12	0	15,662402	3,301808	1,38225	3,0168	0,292	88,984	0	1014,82	7	9	8,8	1	1	1	1	1	1	1	1	1	0	1	-0	274,408343	321,493582	0
15.01.2021	10:49:13	0	15,779302	2,846385	1,3365	358,7436	0,287	88,988	0	1014,66	7	9	8,8	1	1	1	1	1	1	1	1	1	0	1	-0	274,251281	320,758163	0
15.01.2021	10:49:14	0	15,545551	3,074094	1,37175	7,8732	0,292	88,998	0	1014,78	7	9	8,8	1	1	1	1	1	1	1	1	1	0	1	-0	274,355343	321,245275	0
15.01.2021	10:49:15	0	15,662452	4,668067	1,46325	2,4048	0,293	89,005	0	1014,88	7	9	8,8	1	1	1	1	1	1	1	1	1	0	1	-0	274,236246	320,687831	0
15.01.2021	10:49:16	0	15,779352	5,23734	1,49925	2,2788	0,285	88,996	0	1014,7	7	9	8,8	1	1	1	1	1	1	1	1	1	0	1	-0	274,291934	320,948393	0
15.01.2021	10:49:17	0	15,428716	4,212641	1,4745	0,4896	0,289	89,01	0	1014,9	7	9	8,8	1	1	1	1	1	1	1	1	1	0	1	-0	274,417444	321,536232	0
15.01.2021	10:49:18	0	15,779385	3,074088	1,36275	350,6364	0,295	89,004	0	1014,82	7	9	8,8	1	1	1	1	1	1	1	1	1	0	1	-0	274,337205	321,160331	0
15.01.2021	10:49:19	0	15,545633	3,529507	1,287	355,4424	0,293	89,012	0	1014,7	7	9	8,8	1	1	1	1	1	1	1	1	1	0	1	-0	274,252785	320,7652	0
15.01.2021	10:49:20	0	15,779418	2,73252	1,3125	8,2728	0,291	89,013	0	1014,7	7	9	8,8	1	1	1	1	1	1	1	1	1	0	1	-0	274,278374	320,884929	0
15.01.2021	10:49:21	0	15,896319	4,781907	1,359	359,1432	0,291	89,003	0	1014,66	7	9	8,8	1	1	1	1	1	1	1	1	1	0	1	-0,775194	274,296456	320,194366	0
15.01.2021	10:49:22	0	16,013221	5,12347	1,4655	1,5192	0,288	89,004	0	1014,72	7	9	8,8	1	1	1	1	1	1	1	1	1	0	1	-0	274,375012	321,337407	0
15.01.2021	10:49:23	0	15,779467	4,554193	1,59375	5,6628	0,291	89,016	0	1014,76	7	9	8,8	1	1	1	1	1	1	1	1	1	0	1	-0	274,248273	320,744091	0
15.01.2021	10:49:24	0	16,130139	4,554191	1,61775	17,6796	0,29	89,016	0	1014,74	7	9	8,8	1	1	1	1	1	1	1	1	1	0	1	-0	274,381068	321,365778	0
15.01.2021	10:49:25	0	15,662615	4,212624	1,6785	3,3876	0,297	88,993	0	1014,78	7	9	8,8	1	1	1	1	1	1	1	1	1	0	1	-0	274,358368	321,259442	0
15.01.2021	10:49:26	0	16,013288	2,618657	1,75425	8,6004	0,298	89,001	0	1014,72	7	9	8,8	1	1	1	1	1	1	1	1	1	0	1	-3,453136	274,405311	318,026235	0
15.01.2021	10:49:27	0	15,896419	3,871056	1,737	8,604	0,294	88,979	0	1014,72	7	9	8,8	1	1	1	1	1	1	1	1	1	0	1	-0	274,270844	320,849695	0
15.01.2021	10:49:28	0	15,77955	4,440327	1,76175	19,8936	0,297	88,991	0	1014,72	7	9	8,8	1	1	1	1	1	1	1	1	1	0	1	-0	274,420478	321,550454	0
15.01.2021	10:49:29	0	16,48088	5,237306	1,77225	15,0192	0,294	88,999	0	1014,92	7	9	8,8	1	1	1	1	1	1	1	1	1	0	1	-0	274,396216	321,436753	0
15.01.2021	10:49:30	0	15,428925	2,618652	1,75725	14,292	0,295	89,006	0	1014,78	7	9	8,8	1	1	1	1	1	1	1	1	1	0	1	-0,352361	274,27988	320,539617	0
15.01.2021	10:49:31	0	15,662713	3,074068	1,7055	13,1688	0,3	88,996	0	1014,96	7	9	8,8	1	1	1	1	1	1	1	1	1	0	1	-0	274,234743	320,680801	0
15.01.2021	10:49:32	0	15,66273	2,618649	1,78275	8,6004	0,289	88,995	0	1014,68	7	9	8,8	1	1	1	1	1	1	1	1	1	0	1	-0	274,293441	320,955448	0
15.01.2021	10:49:33	0	15,779632	2,618648	1,83075	2,304	0,297	89,005	0	1015,04	7	9	8,8	1	1	1	1	1	1	1	1	1	0	1	-0	274,245266	320,730022	0
15.01.2021	10:49:34	0	16,013421	3,301772	1,70625	346,896	0,298	89	0	1014,86	7	9	8,8	1	1	1	1	1	1	1	1	1	0	1	-0	274,290427	320,941339	0
15.01.2021	10:49:35	0	15,896552	4,326457	1,61175	324,756	0,294	88,994	0	1014,96	7	9	8,8	1	1	1	1	1	1	1	1	1	0	1	-0	274,379554	321,358684	0
15.01.2021	10:49:36	0	16,013455	3,187914	1,482	349,0344	0,292	88,988	0	1014,8	7	9	8,8	1	1	1	1	1	1	1	1	1	0	1	-0	274,23324	320,673772	0
15.01.2021	10:49:37	0	16,013471	3,187913	1,43625	14,6304	0,293	88,976	0	1014,76	7	9	8,8	1	1	1	1	1	1	1	1	1	0	1	-0	274,261812	320,807436	0
15.01.2021	10:49:38	0	15,662828	4,212597	1,46625	5,6592	0,291	88,963	0	1014,7	7	9	8,8	1	1	1	1	1	1	1	1	1	0	1	-0	274,313047	321,047223	0
15.01.2021	10:49:39	0	15,779731	4,326448	1,56525	2,2716	0,294	88,977	0	1014,78	7	9	8,8	1	1	1	1	1	1	1	1	1	0	1	-0	274,417444	321,536232	0
15.01.2021	10:49:40	0	16,130409	4,4403	1,63875	5,6772	0,296	88,975	0	1014,76	7	9	8,8	1	1	1	1	1	1	1	1	1	0	1	-0	274,350807	321,22403	0
15.01.2021	10:49:41	0	15,779764	4,554152	1,593	19,5228	0,298	88,97	0	1014,74	7	9	8,8	1	1	1	1	1	1	1	1	1	0	1	-0	274,40986	321,500688	0
15.01.2021	10:49:42	0	16,013555	3,984881	1,662	358,3476	0,295	88,974	0	1014,76	7	9	8,8	1	1	1	1	1	1	1	1	1	0	1	-0	274,31003	321,033096	0
15.01.2021	10:49:43	0	15,779797	3,301757	1,8915	8,982	0,295	88,966	0	1014,72	7	9	8,8	1	1	1	1	1	1	1	1	1	0	1	-0	274,303996	321,004851	0
15.01.2021	10:49:44	0	16,247363	4,895706	2,04225	359,8092	0,295	88,967	0	1014,86	7	9	8,8	1	1	1	1	1	1	1	1	1	0	1	-0	274,406827	321,486476	0
15.01.2021	10:49:45	0	15,77983	2,732486	1,94625	349,4664	0,289	88,938	0	1014,66	7	9	8,8	1	1	1	1	1	1	1	1	1	0	1	-1,268499	274,245266	319,461523	0
15.01.2021	10:49:46	0	16,247397	3,415605	1,863	347,1444	0,293	88,937	0	1014,78	7	9	8,8	1	1	1	1	1	1	1	1	1	0	1	-2,889359	274,263317	317,925118	0
15.01.2021	10:49:47	0	16,013638	3,757164	1,803	1,9116	0,296	88,941	0	1014,8	7	9	8,8	1	1	1	1	1	1	1	1	1	0	1	-0	274,293441	320,955448	0
15.01.2021	10:49:48	0	15,662991	2,846335	1,82925	0,4788	0,297	88,923	0	1014,8	7	9	8,8	1	1	1	1	1	1	1	1	1	0	1	-0	274,236246	320,687831	0
15.01.2021	10:49:49	0	15,779896	3,75716	1,85475	7,4844	0,294	88,921	0	1014,7	7	9	8,8	1	1	1	1	1	1	1	1	1	0	1	-0	274,270844	320,849695	0
15.01.2021	10:49:50	0	15,8968	2,504772	1,85175	360	0,29	88,927	0	1014,76	7	9	8,8	1	1	1	1	1	1	1	1	1	0	1	-0	274,388641	321,401257	0
15.01.2021	10:49:51	0	16,247482	4,440276	1,75275	4,0896	0,295	88,918	0	1014,72	7	9	8,8	1	1	1	1	1	1	1	1	1	0	1	-0	274,388641	321,401257	0
15.01.2021	10:49:52	0	16,013722	3,074035	1,65975	358,452	0,294	88,92	0	1014,7	7	9	8,8	1	1	1	1	1	1	1	1	1	0	1	-0	274,368958	321,309047	0
15.01.2021	10:49:53	0	15,89685	2,732475	1,6035	358,0776	0,292	88,915	0	1014,7	7	9	8,8	1	1	1	1	1	1	1	1	1	0	1	-0	274,403795	321,472266	0
15.01.2021	10:49:54	0	16,013755	3,529445	1,6395	3,3876	0,287	88,901	0	1014,72	7	9	8,8	1	1	1	1	1	1	1	1	1	0	1	-0	274,287413	320,927233	0
15.01.2021	10:49:55	0	15,896883	2,960178	1,7775	2,6388	0,288	88,912	0	1014,78	7	9	8,8	1	1	1	1	1	1	1	1	1	0	1	-0	274,249777	320,751127	0
15.01.2021	10:49:56	0	15,780011	3,301735	1,90275	360	0,293	88,904	0	1014,76	7	9	8,8	1	1	1	1	1	1	1	1	1	0	1	-0	274,302488	320,997792	0
15.01.2021	10:49:57	0	15,896916	4,440262	1,965	7,5132	0,286	88,909	0	1014,74	7	9	8,8	1	1	1	1	1	1	1	1	1	0	1	-0	274,379554	321,358684	0
15.01.2021	10:49:58	0	16,130711	4,667966	1,93275	360	0,296	88,884	0	1014,82	7	9	8,8	1	1	1	1	1	1	1	1	1	0	1	-0	274,263317	320,814477	0
15.01.2021	10:49:59	0	16,130728	5,009522	1,88175	7,488	0,289	88,894	0	1014,8	7	9	8,8	1	1	1	1	1	1	1	1	1	0	1	-0	274,302488	320,997792	0
15.01.2021	10:50:00	0	16,247651	3,187874	2,04225	17,2116	0,29	88,9	0	1014,82	7	9	8,8	1	1	1	1	1	1	1	1	1	0	1	-0	274,246769	320,737056	0
15.01.2021	10:50:01	0	16,247651	3,187874	2,04225	17,2116	0,29	88,9	0	1014,82	7	9	8,8	1	1	1	1	1	1	1	1	1	0	1	-0	274,285906	320,920181	0
15.01.2021	10:50:02	0	16,013888	5,009514	2,0655	7,8696	0,296	88,901	0	1014,74	7	9	8,8	1	1	1	1	1	1	1	1	1	0	1	-0	274,282893	320,906078	0
15.01.2021	10:50:03	0	16,130795	4,212544	2,082	10,44	0,296	88,914	0	1014,88	7	9	8,8	1	1	1	1	1	1	1	1	1	0	1	-0	274,421996	321,557566	0
15.01.2021	10:50:04	0	15,897032	4,781804	2,15775	5,22	0,3	88,913	0	1014,78	7	9	8,8	1	1	1	1	1	1	1	1	1	0	1	-0	274,261812	320,807436	0
15.01.2021	10:50:05	0	16,013938	3,984835	2,16	7,506	0,297	88,906	0	1015,04	7	9	8,8	1	1	1	1	1	1	1	1	1	0	1	-0,563777	274,408343	320,929805	0
15.01.2021	10:50:06	0	16,130845	3,643276	2,124	12,0888	0,295	88,908	0	1014,86	7	9	8,8	1	1	1	1	1	1	1	1	1	0	1	-0	274,281386	320,899028	0
15.01.2021	10:50:07	0	15,897081	4,212535	2,07525	10,5372	0,292	88,918	0	1014,94	7	9	8,8	1	1	1	1	1	1	1	1	1	0	1	-0	274,399247	321,450956	0
15.01.2021	10:50:08	0	16,48155	4,667942	2,091	11,7036	0,292	88,902	0	1014,74	7	9	8,8	1	1	1	1	1	1	1	1	1	0	1	-0	274,365932	321,29487	0
15.01.2021	10:50:09	0	15,780224	3,074009	2,12325	13,158	0,292	88,911	0	1014,82	7	9	8,8	1	1	1	1	1	1	1	1	1	0	1	-0	274,243762	320,722989	0
15.01.2021	10:50:10	0	16,481584	4,440233	2,0415	16,47	0,295	88,916	0	1014,8	7	9	8,8	1	1	1	1	1	1	1	1	1	0	1	-0	274,276867	320,877881	0
15.01.2021	10:50:11	0	16,24782	3,074006	1,8975	15,03	0,298	88,92	0	1014,96	7	9	8,8	1	1	1	1	1	1	1	1	1	0	1	-0	274,27988	320,891978	0
15.01.2021	10:50:12	0	16,130946	4,326377	1,7925	359,4564	0,297	88,915	0	1014,58	7	9	8,8	1	1	1	1	1	1	1	1	1	0	1	-0	274,364419	321,287783	0
15.01.2021	10:50:13	0	16,014072	4,554079	1,78125	16,0884	0,295	88,908	0	1014,68	7	9	8,8	1	1	1	1	1	1	1	1	1	0	1	-0	274,408343	321,493582	0
15.01.2021	10:50:14	0	16,130979	4,098669	1,66725	18,1368	0,291	88,916	0	1014,88	7	9	8,8	1	1	1	1	1	1	1	1	1	0	1	-0	274,322103	321,089618	0
15.01.2021	10:50:15	0	15,897214	4,554074	1,53525	30,6792	0,287	88,919	0	1014,7	7	9	8,8	1	1	1	1	1	1	1	1	1	0	1	-0	274,406827	321,486476	0
15.01.2021	10:50:16	0	15,663447	3,870961	1,45575	0,144	0,295	88,902	0	1014,88	7	9	8,8	1	1	1	1	1	1	1	1	1	0	1	-0	274,305504	321,011912	0
15.01.2021	10:50:17	0	16,13103	5,009476	1,461	359,1072	0,296	88,913	0	1014,82	7	9	8,8	1	1	1	1	1	1	1	1	1	0	1	-0	274,236246	320,687831	0
15.01.2021	10:50:18	0	16,248052	3,187847	1,46775	4,0896	0,291	88,918	0	1014,8	7	8,9	8,8	1	1	1	1	1	1	1	1	1	0	1	-0	274,331163	321,132038	0
15.01.2021	10:50:19	0	15,89728	2,732439	1,4055	7,11	0,298	88,918	0	1014,82	7	9	8,8	1	1	1	1	1	1	1	1	1	0	1	-0	274,245266	320,730022	0
15.01.2021	10:50:20	0	16,13108	3,187844	1,434	358,362	0,294	88,916	0	1014,84	7	9	8,8	1	1	1	1	1	1	1	1	1	0	1	-0	274,284399	320,913129	0
15.01.2021	10:50:21	0	15,897201	4,667912	1,39125	360	0,295	88,917	0	1014,78	7	9,1	8,8	1	1	1	1	1	1	1	1	1	0	1	-0	274,408343	321,493582	0
15.01.2021	10:50:22	0	16,364897	4,895612	1,36425	355,2624	0,298	88,918	0	1014,84	7	9	8,8	1	1	1	1	1	1	1	1	1	0	1	-0	274,263317	320,814477	0
15.01.2021	10:50:23	0	16,3648	4,667907	1,416	352,062	0,294	88,932	0	1014,76	7	9,1	8,8	1	1	1	1	1	1	1	1	1	0	1	-0	274,314556	321,054287	0
15.01.2021	10:50:24	0	16,248153	4,895608	1,46925	354,9456	0,289	88,917	0	1014,72	7	8,9	8,8	1	1	1	1	1	1	1	1	1	0	1	-0	274,261812	320,807436	0
15.01.2021	10:50:25	0	16,248056	4,781754	1,557	348,2712	0,296	88,914	0	1014,86	7	9	8,8	1	1	1	1	1	1	1	1	1	0	1	-0	274,368958	321,309047	0
15.01.2021	10:50:26	0	16,248073	4,895603	1,5885	345,7584	0,288	88,905	0	1014,66	7	9	8,8	1	1	1	1	1	1	1	1	1	0	1	-0,211416	274,234743	320,469384	0
15.01.2021	10:50:27	0	16,24809	2,846279	1,67175	344,2788	0,288	88,901	0	1014,82	7	9	8,8	1	1	1	1	1	1	1	1	1	0	1	-0	274,285906	320,920181	0
15.01.2021	10:50:28	0	16,131214	5,351002	1,599	351,0864	0,293	88,915	0	1014,8	7	9	8,8	1	1	1	1	1	1	1	1	1	0	1	-0	274,408343	321,493582	0
15.01.2021	10:50:29	0	16,481794	3,301681	1,50375	336,7188	0,297	88,915	0	1014,74	7	9,1	8,8	1	1	1	1	1	1	1	1	1	0	1	-0	274,364419	321,287783	0
15.01.2021	10:50:30	0	16,24814	5,123295	1,43925	356,4936	0,285	88,916	0	1014,72	7	9	8,8	1	1	1	1	1	1	1	1	1	0	1	-0	274,246769	320,737056	0
15.01.2021	10:50:31	0	16,481943	5,009441	1,3995	354,6144	0,293	88,914	0	1014,74	7	9	8,8	1	1	1	1	1	1	1	1	1	0	1	-0	274,367445	321,301958	0
15.01.2021	10:50:32	0	16,248288	3,643228	1,37625	354,9996	0,294	88,915	0	1014,84	7	8,9	8,8	1	1	1	1	1	1	1	1	1	0	1	-0	274,248273	320,744091	0
15.01.2021	10:50:33	0	15,89751	2,618569	1,419	353,1312	0,295	88,923	0	1014,76	7	9	8,8	1	1	1	1	1	1	1	1	1	0	1	-0	274,297964	320,976617	0
15.01.2021	10:50:34	0	15,897527	4,44018	1,4655	11,178	0,297	88,912	0	1014,76	7	9	8,8	1	1	1	1	1	1	1	1	1	0	1	-0	274,394701	321,429653	0
15.01.2021	10:50:35	0	16,248224	3,757074	1,593	352,494	0,291	88,921	0	1014,74	7	9	8,8	1	1	1	1	1	1	1	1	1	0	1	-0	274,320593	321,082551	0
15.01.2021	10:50:36	0	16,131347	2,732416	1,8375	347,1552	0,294	88,916	0	1014,8	7	9	8,8	1	1	1	1	1	1	1	1	1	0	1	-0	274,260308	320,800395	0
15.01.2021	10:50:37	0	16,01447	3,073966	2,10825	350,622	0,294	88,93	0	1014,74	7	9	8,8	1	1	1	1	1	1	1	1	1	0	1	-0	274,355343	321,245275	0
15.01.2021	10:50:38	0	16,365054	4,09862	2,07825	351,3168	0,292	88,908	0	1014,78	7	9,1	8,8	1	1	1	1	1	1	1	1	1	0	1	-0	274,397732	321,443854	0
15.01.2021	10:50:39	0	16,248291	3,757066	2,09175	351,072	0,291	88,921	0	1014,74	7	9	8,8	1	1	1	1	1	1	1	1	1	0	1	-0	274,275361	320,870834	0
15.01.2021	10:50:40	0	16,365203	4,667868	2,1825	346,86	0,291	88,911	0	1014,72	7	9	8,8	1	1	1	1	1	1	1	1	1	0	1	-0	274,394701	321,429653	0
15.01.2021	10:50:41	0	16,131318	3,301661	2,27025	350,2584	0,289	88,902	0	1014,68	7	9,1	8,8	1	1	1	1	1	1	1	1	1	0	1	-0,422833	274,281386	320,476195	0
15.01.2021	10:50:42	0	16,014553	2,618557	2,23875	347,994	0,29	88,905	0	1014,88	7	9	8,8	1	1	1	1	1	1	1	1	1	0	1	-0	274,406827	321,486476	0
15.01.2021	10:50:43	0	16,014457	2,846256	2,19675	347,2092	0,289	88,925	0	1014,7	7	9,1	8,8	1	1	1	1	1	1	1	1	1	0	1	-0	274,297964	320,976617	0
15.01.2021	10:50:44	0	16,248376	3,415506	2,10675	344,6172	0,295	88,922	0	1014,9	7	9	8,8	1	1	1	1	1	1	1	1	1	0	1	-0	274,239252	320,701892	0
15.01.2021	10:50:45	0	16,482182	4,554006	2,13375	352,7748	0,292	88,917	0	1014,8	7	9	8,8	1	1	1	1	1	1	1	1	1	0	1	-0	274,278374	320,884929	0
15.01.2021	10:50:46	0	16,131627	3,073952	2,079	351,3096	0,291	88,906	0	1014,76	7	8,9	8,8	1	1	1	1	1	1	1	1	1	0	1	-0	274,263317	320,814477	0
15.01.2021	10:50:47	0	16,014636	3,757051	2,0085	346,482	0,295	88,921	0	1014,82	7	9	8,8	1	1	1	1	1	1	1	1	1	0	1	-0	274,417444	321,536232	0
15.01.2021	10:50:48	0	16,248443	3,984749	1,9695	343,8504	0,295	88,929	0	1014,72	7	9	8,8	1	1	1	1	1	1	1	1	1	0	1	-0	274,429584	321,593136	0
15.01.2021	10:50:49	0	15,897773	3,187798	1,9575	345,3228	0,293	88,928	0	1014,76	7	9	8,8	1	1	1	1	1	1	1	1	1	0	1	-0	274,412893	321,514904	0
15.01.2021	10:50:50	0	16,248362	3,073946	1,97925	360	0,294	88,91	0	1014,86	7	9,1	8,8	1	1	1	1	1	1	1	1	1	0	1	-0	274,249777	320,751127	0
15.01.2021	10:50:51	0	16,482284	2,732395	2,04225	2,2824	0,282	88,923	0	1014,84	7	9	8,8	1	1	1	1	1	1	1	1	1	0	1	-0	274,329652	321,124966	0
15.01.2021	10:50:52	0	16,014718	2,960093	1,99725	360	0,287	88,929	0	1014,7	7	9	8,8	1	1	1	1	1	1	1	1	1	0	1	-0	274,255794	320,779276	0
15.01.2021	10:50:53	0	16,014735	3,415491	1,869	1,1556	0,296	88,922	0	1014,84	7	9	8,8	1	1	1	1	1	1	1	1	1	0	1	-0	274,364419	321,287783	0
15.01.2021	10:50:54	0	15,897855	2,732391	1,78575	7,4988	0,293	88,926	0	1014,78	7	9	8,8	1	1	1	1	1	1	1	1	1	0	1	-0,634249	274,249777	320,116877	0
15.01.2021	10:50:55	0	16,482352	4,440134	1,64925	6,8076	0,292	88,907	0	1014,76	7	9	8,8	1	1	1	1	1	1	1	1	1	0	1	-0	274,294949	320,962504	0
15.01.2021	10:50:56	0	16,014785	4,098583	1,5975	12,8592	0,299	88,927	0	1014,9	7	9	8,8	1	1	1	1	1	1	1	1	1	0	1	-0	274,403795	321,472266	0
15.01.2021	10:50:57	0	16,36549	3,529333	1,58325	2,6568	0,294	88,915	0	1014,68	7	9	8,8	1	1	1	1	1	1	1	1	1	0	1	-0	274,291934	320,948393	0
15.01.2021	10:50:58	0	16,131827	2,846235	1,55475	8,5968	0,297	88,94	0	1014,82	6,9	8,9	8,8	1	1	1	1	1	1	1	1	1	0	1	-0	274,267833	320,835606	0
15.01.2021	10:50:59	0	16,48242	4,553974	1,5045	5,6808	0,296	88,933	0	1014,82	7	9	8,8	1	1	1	1	1	1	1	1	1	0	1	-0	274,432621	321,607369	0
15.01.2021	10:51:00	0	16,131764	3,301628	1,3965	6,0624	0,294	88,921	0	1014,8	7	9	8,8	1	1	1	1	1	1	1	1	1	0	1	-0	274,343249	321,188635	0
15.01.2021	10:51:01	0	16,131764	3,301628	1,3965	6,0624	0,294	88,921	0	1014,8	7	9	8,8	1	1	1	1	1	1	1	1	1	0	1	-0	274,415927	321,529122	0
15.01.2021	10:51:02	0	16,365575	4,326269	1,3875	359,8344	0,293	88,92	0	1014,72	7	9	8,8	1	1	1	1	1	1	1	1	1	0	1	-0	274,297964	320,976617	0
15.01.2021	10:51:03	0	16,0149	4,326267	1,3515	359,1864	0,289	88,922	0	1014,82	7	9	8,8	1	1	1	1	1	1	1	1	1	0	1	-0	274,240755	320,708923	0
15.01.2021	10:51:04	0	16,365608	4,440114	1,35075	351,7092	0,295	88,922	0	1014,82	7	9	8,8	1	1	1	1	1	1	1	1	1	0	1	-0	274,323613	321,096687	0
15.01.2021	10:51:05	0	16,248728	5,237055	1,38	355,7952	0,29	88,909	0	1014,72	7	9	8,8	1	1	1	1	1	1	1	1	1	0	1	-0	274,245266	320,730022	0
15.01.2021	10:51:06	0	16,248858	2,618526	1,43325	351,0468	0,29	88,929	0	1014,74	7	8,9	8,8	1	1	1	1	1	1	1	1	1	0	1	-0	274,234743	320,680801	0
15.01.2021	10:51:07	0	15,898069	4,212409	1,5015	356,9148	0,288	88,909	0	1014,8	7	9	8,8	1	1	1	1	1	1	1	1	1	0	1	-0	274,290427	320,941339	0
15.01.2021	10:51:08	0	15,66429	2,618523	1,61175	355,0176	0,284	88,927	0	1014,84	7	9	8,8	1	1	1	1	1	1	1	1	1	0	1	-0	274,248273	320,744091	0
15.01.2021	10:51:09	0	16,014999	4,6678	1,64025	360	0,294	88,92	0	1014,7	7	9	8,8	1	1	1	1	1	1	1	1	1	0	1	-0	274,356855	321,252358	0
15.01.2021	10:51:10	0	16,248812	4,098554	1,65975	356,9364	0,294	88,922	0	1014,8	7	9	8,8	1	1	1	1	1	1	1	1	1	0	1	-0	274,415927	321,529122	0
15.01.2021	10:51:11	0	15,781347	3,073914	1,68375	357,9048	0,29	88,931	0	1014,72	7	8,9	8,8	1	1	1	1	1	1	1	1	1	0	1	-0	274,290427	320,941339	0
15.01.2021	10:51:12	0	16,365743	2,846215	1,77	356,9832	0,292	88,929	0	1014,66	7	9	8,8	1	1	1	1	1	1	1	1	1	0	1	-0	274,396216	321,436753	0
15.01.2021	10:51:13	0	15,898056	5,123185	1,8495	0	0,288	88,909	0	1014,8	7	9,1	8,8	1	1	1	1	1	1	1	1	1	0	1	-0	274,353831	321,238193	0
15.01.2021	10:51:14	0	15,898183	4,212395	1,83525	356,4612	0,286	88,919	0	1014,72	7	9	8,8	1	1	1	1	1	1	1	1	1	0	1	-0	274,406827	321,486476	0
15.01.2021	10:51:15	0	16,248895	3,187757	1,91925	339,0768	0,29	88,919	0	1014,86	7	9	8,8	1	1	1	1	1	1	1	1	1	0	1	-0	274,334184	321,146183	0
15.01.2021	10:51:16	0	16,1319	4,440087	1,92225	348,984	0,295	88,935	0	1014,86	7	9,1	8,8	1	1	1	1	1	1	1	1	1	0	1	-0	274,423513	321,564679	0
15.01.2021	10:51:17	0	16,13203	4,553933	1,79175	348,6996	0,297	88,93	0	1014,82	7	9	8,8	1	1	1	1	1	1	1	1	1	0	1	-0	274,349295	321,21695	0
15.01.2021	10:51:18	0	16,248945	4,895476	1,743	360	0,292	88,929	0	1014,72	7	9	8,8	1	1	1	1	1	1	1	1	1	0	1	-0	274,251281	320,758163	0
15.01.2021	10:51:19	0	16,132063	3,18775	1,70325	354,0168	0,29	88,936	0	1014,74	7	9	8,8	1	1	1	1	1	1	1	1	1	0	1	-0	274,257298	320,786315	0
15.01.2021	10:51:20	0	16,132193	4,098534	1,58625	357,228	0,287	88,912	0	1014,7	7	8,9	8,8	1	1	1	1	1	1	1	1	1	0	1	-0	274,284399	320,913129	0
15.01.2021	10:51:21	0	15,664499	4,098532	1,55925	2,6316	0,295	88,931	0	1014,8	7	9	8,8	1	1	1	1	1	1	1	1	1	0	1	-0	274,41441	321,522012	0
15.01.2021	10:51:22	0	15,898314	5,123162	1,6215	355,374	0,285	88,908	0	1014,48	7	9	8,8	1	1	1	1	1	1	1	1	1	0	1	-1,127555	274,285906	319,792626	0
15.01.2021	10:51:23	0	15,781431	3,301592	1,662	355,8348	0,294	88,927	0	1014,68	7	9	8,8	1	1	1	1	1	1	1	1	1	0	1	-0	274,239252	320,701892	0
15.01.2021	10:51:24	0	16,248932	3,187742	1,72725	355,4208	0,294	88,933	0	1014,92	7	9,1	8,8	1	1	1	1	1	1	1	1	1	0	1	-0	274,31003	321,033096	0
15.01.2021	10:51:25	0	16,365848	3,75698	1,70925	356,4828	0,294	88,924	0	1014,7	6,9	9,1	8,8	1	1	1	1	1	1	1	1	1	0	1	-2,536998	274,423513	319,027681	0
15.01.2021	10:51:26	0	16,248965	3,756978	1,68675	356,5764	0,295	88,925	0	1014,82	7	9,1	8,8	1	1	1	1	1	1	1	1	1	0	1	-0	274,362906	321,280697	0
15.01.2021	10:51:27	0	15,781607	4,440063	1,8495	350,7948	0,292	88,938	0	1014,68	7	8,9	8,8	1	1	1	1	1	1	1	1	1	0	1	-0	274,411376	321,507796	0
15.01.2021	10:51:28	0	16,015312	4,440061	2,097	357,678	0,292	88,939	0	1014,78	7	9	8,8	1	1	1	1	1	1	1	1	1	0	1	-0	274,331163	321,132038	0
15.01.2021	10:51:29	0	15,781528	3,41543	2,262	358,7472	0,288	88,928	0	1014,8	7	9	8,8	1	1	1	1	1	1	1	1	1	0	1	-0	274,517833	322,006993	0
15.01.2021	10:51:30	0	15,781545	3,073885	2,25075	350,2908	0,291	88,942	0	1014,78	6,9	9	8,8	1	1	1	1	1	1	1	1	1	0	1	-0	274,291934	320,948393	0
15.01.2021	10:51:31	0	16,015474	4,781597	2,11275	351,1188	0,299	88,945	0	1014,76	6,9	8,9	8,8	1	1	1	1	1	1	1	1	1	0	1	-0	274,270844	320,849695	0
15.01.2021	10:51:32	0	16,365965	3,529272	2,02725	359,3628	0,3	88,937	0	1014,78	7	9,1	8,8	1	1	1	1	1	1	1	1	1	0	1	-0	274,285906	320,920181	0
15.01.2021	10:51:33	0	15,781593	4,667745	2,08575	339,1416	0,289	88,919	0	1014,64	7	9	8,8	1	1	1	1	1	1	1	1	1	0	1	-0,563777	274,423513	321,000901	0
15.01.2021	10:51:34	0	16,249213	4,3262	2,25675	348,714	0,295	88,937	0	1014,88	7	9	8,8	1	1	1	1	1	1	1	1	1	0	1	-0	274,266328	320,828562	0
15.01.2021	10:51:35	0	15,898415	4,781587	2,3115	341,244	0,292	88,926	0	1014,82	6,9	9,1	8,8	1	1	1	1	1	1	1	1	1	0	1	-0	274,27988	320,891978	0
15.01.2021	10:51:36	0	16,366147	5,464669	2,2455	357,9984	0,293	88,93	0	1014,76	7	9	8,8	1	1	1	1	1	1	1	1	1	0	1	-0	274,364419	321,287783	0
15.01.2021	10:51:37	0	15,781658	3,073875	2,20125	349,8948	0,293	88,941	0	1014,72	7	9	8,8	1	1	1	1	1	1	1	1	1	0	1	-0	274,384097	321,379968	0
15.01.2021	10:51:38	0	16,015365	3,870803	2,0715	352,8468	0,295	88,957	0	1014,74	7	9,1	8,8	1	1	1	1	1	1	1	1	1	0	1	-0	274,242259	320,715956	0
15.01.2021	10:51:39	0	16,132395	2,960024	2,01525	352,0764	0,294	88,946	0	1014,78	7	9	8,8	1	1	1	1	1	1	1	1	1	0	1	-0	274,299472	320,983675	0
15.01.2021	10:51:40	0	16,01551	3,415411	2,06175	360	0,293	88,949	0	1014,86	7	9	8,8	1	1	1	1	1	1	1	1	1	0	1	-0,704722	274,284399	320,208407	0
15.01.2021	10:51:41	0	16,132541	3,187715	2,082	355,0356	0,292	88,959	0	1014,82	7	8,9	8,8	1	1	1	1	1	1	1	1	1	0	1	-0	274,328142	321,117895	0
15.01.2021	10:51:42	0	15,898752	2,276939	2,01975	353,2248	0,294	88,93	0	1014,72	7	8,9	8,8	1	1	1	1	1	1	1	1	1	0	1	-0	274,257298	320,786315	0
15.01.2021	10:51:43	0	16,015671	2,618478	1,983	350,2188	0,296	88,951	0	1014,58	7	8,9	8,8	1	1	1	1	1	1	1	1	1	0	1	-0	274,308521	321,026034	0
15.01.2021	10:51:44	0	16,132478	3,301558	2,109	355,806	0,296	88,953	0	1014,76	7	9	8,8	1	1	1	1	1	1	1	1	1	0	1	-0	274,418961	321,543342	0
15.01.2021	10:51:45	0	15,898578	3,984636	2,21025	356,526	0,292	88,938	0	1014,62	6,9	9,1	8,8	1	1	1	1	1	1	1	1	1	0	1	-0	274,343249	321,188635	0
15.01.2021	10:51:46	0	15,781804	3,529248	2,283	349,8192	0,294	88,954	0	1014,78	7	9	8,8	1	1	1	1	1	1	1	1	1	0	1	-0	274,236246	320,687831	0
15.01.2021	10:51:47	0	16,24943	4,098479	2,17575	356,2056	0,29	88,944	0	1014,76	7	9	8,8	1	1	1	1	1	1	1	1	1	0	1	-0	274,303996	321,004851	0
15.01.2021	10:51:48	0	16,015641	4,895403	1,95525	351,0432	0,296	88,962	0	1014,82	7	9	8,8	1	1	1	1	1	1	1	1	1	0	1	-0	274,418961	321,543342	0
15.01.2021	10:51:49	0	16,13256	4,553861	1,87125	1,6236	0,296	88,959	0	1014,82	7	9	8,8	1	1	1	1	1	1	1	1	1	0	1	-0	274,364419	321,287783	0
15.01.2021	10:51:50	0	15,781979	2,618469	1,827	0,846	0,294	88,962	0	1014,86	6,9	8,9	8,8	1	1	1	1	1	1	1	1	1	0	1	-0	274,255794	320,779276	0
15.01.2021	10:51:51	0	15,898788	2,960007	1,76475	3,3624	0,292	88,962	0	1014,92	7	9	8,8	1	1	1	1	1	1	1	1	1	0	1	-0	274,313047	321,047223	0
15.01.2021	10:51:52	0	15,548095	4,553855	1,83525	6,8184	0,294	88,963	0	1014,88	6,9	9	8,8	1	1	1	1	1	1	1	1	1	0	1	-0	274,285906	320,920181	0
15.01.2021	10:51:53	0	16,015723	2,960004	1,82925	359,91	0,299	88,965	0	1014,76	7	9	8,8	1	1	1	1	1	1	1	1	1	0	1	-0	274,257298	320,786315	0
15.01.2021	10:51:54	0	15,66503	3,073849	1,76025	360	0,298	88,96	0	1014,86	6,9	9	8,8	1	1	1	1	1	1	1	1	1	0	1	-0	274,281386	320,899028	0
15.01.2021	10:51:55	0	15,898964	3,643078	1,70475	349,0668	0,295	88,963	0	1014,82	6,9	8,9	8,8	1	1	1	1	1	1	1	1	1	0	1	-0	274,239252	320,701892	0
15.01.2021	10:51:56	0	16,01566	4,553846	1,63875	355,05	0,294	88,948	0	1014,76	6,9	9,1	8,8	1	1	1	1	1	1	1	1	1	0	1	-0	274,371985	321,323225	0
15.01.2021	10:51:57	0	16,015789	4,439997	1,5165	3,474	0,293	88,946	0	1014,58	7	9	8,8	1	1	1	1	1	1	1	1	1	0	1	-0,281889	274,364419	321,005895	0
15.01.2021	10:51:58	0	16,015805	4,667687	1,44075	343,9116	0,297	88,952	0	1014,78	7	9	8,8	1	1	1	1	1	1	1	1	1	0	1	-0	274,260308	320,800395	0
15.01.2021	10:51:59	0	15,898918	2,846149	1,48275	360	0,298	88,955	0	1014,84	6,9	9	8,8	1	1	1	1	1	1	1	1	1	0	1	-0	274,417444	321,536232	0
15.01.2021	10:52:00	0	15,665142	3,415376	1,488	357,3072	0,297	88,954	0	1014,78	6,9	9	8,8	1	1	1	1	1	1	1	1	1	0	1	-0	274,361393	321,273611	0
15.01.2021	10:52:01	0	15,665142	3,415376	1,488	357,3072	0,297	88,954	0	1014,78	6,9	9	8,8	1	1	1	1	1	1	1	1	1	0	1	-0	274,257298	320,786315	0
15.01.2021	10:52:02	0	16,015871	3,52922	1,482	353,1168	0,296	88,97	0	1014,68	6,9	9	8,8	1	1	1	1	1	1	1	1	1	0	1	-0	274,391671	321,415454	0
15.01.2021	10:52:03	0	16,132792	2,846144	1,434	347,256	0,297	88,961	0	1014,76	6,9	9	8,8	1	1	1	1	1	1	1	1	1	0	1	-0,634249	274,270844	320,215445	0
15.01.2021	10:52:04	0	16,015904	3,756908	1,42425	357,9984	0,295	88,964	0	1014,8	6,9	9	8,8	1	1	1	1	1	1	1	1	1	0	1	-0	274,365932	321,29487	0
15.01.2021	10:52:05	0	15,899016	4,439953	1,473	0	0,295	88,956	0	1014,78	7	9	8,9	1	1	1	1	1	1	1	1	1	0	1	-0	274,376526	321,344499	0
15.01.2021	10:52:06	0	15,899032	4,553823	1,58175	343,5156	0,298	88,98	0	1014,8	7	9	8,8	1	1	1	1	1	1	1	1	1	0	1	-0	274,408343	321,493582	0
15.01.2021	10:52:07	0	16,015953	4,553821	1,707	347,652	0,3	88,968	0	1014,74	6,9	9	8,8	1	1	1	1	1	1	1	1	1	0	1	-0	274,337205	321,160331	0
15.01.2021	10:52:08	0	16,249893	3,7569	1,76175	355,104	0,298	88,98	0	1014,82	7	8,9	8,8	1	1	1	1	1	1	1	1	1	0	1	-0	274,30098	320,990733	0
15.01.2021	10:52:09	0	15,66538	3,187671	1,7445	352,026	0,294	88,97	0	1014,72	7	8,9	8,8	1	1	1	1	1	1	1	1	1	0	1	-0	274,382582	321,372873	0
15.01.2021	10:52:10	0	16,016002	2,846134	1,69425	349,8264	0,294	88,967	0	1014,78	7	9	8,8	1	1	1	1	1	1	1	1	1	0	1	-0	274,237749	320,694861	0
15.01.2021	10:52:11	0	15,782208	4,326121	1,69125	350,946	0,292	88,958	0	1014,76	6,9	9	8,8	1	1	1	1	1	1	1	1	1	0	1	-0	274,316065	321,061352	0
15.01.2021	10:52:12	0	16,015922	3,073821	1,72575	356,9112	0,289	88,981	0	1014,74	7	9,1	8,8	1	1	1	1	1	1	1	1	1	0	1	-0,634249	274,240755	320,074674	0
15.01.2021	10:52:13	0	15,899146	2,959975	1,74825	358,3404	0,294	88,972	0	1014,76	7	9	8,8	1	1	1	1	1	1	1	1	1	0	1	-0	274,305504	321,011912	0
15.01.2021	10:52:14	0	15,899273	4,553805	1,80225	354,2004	0,297	88,966	0	1014,7	7	8,9	8,8	1	1	1	1	1	1	1	1	1	0	1	-0	274,40986	321,500688	0
15.01.2021	10:52:15	0	15,431555	3,529197	1,857	1,5444	0,3	88,971	0	1014,78	7	9	8,8	1	1	1	1	1	1	1	1	1	0	1	-0	274,305504	321,011912	0
15.01.2021	10:52:16	0	15,665492	4,326111	1,80225	1,9044	0,294	88,968	0	1014,72	7	8,9	8,8	1	1	1	1	1	1	1	1	1	0	1	-0	274,418961	321,543342	0
15.01.2021	10:52:17	0	16,016229	4,667643	1,66725	18,4392	0,298	88,98	0	1014,82	6,9	8,9	8,8	1	1	1	1	1	1	1	1	1	0	1	-0	274,365932	321,29487	0
15.01.2021	10:52:18	0	15,19779	2,504588	1,62225	12,0996	0,298	88,964	0	1014,84	6,9	9	8,8	1	1	1	1	1	1	1	1	1	0	1	-0	274,248273	320,744091	0
15.01.2021	10:52:19	0	16,016149	5,464553	1,6245	10,8072	0,298	88,976	0	1014,68	6,9	9	8,8	1	1	1	1	1	1	1	1	1	0	1	-0	274,382582	321,372873	0
15.01.2021	10:52:20	0	15,54854	2,504585	1,67475	1,1916	0,303	88,989	0	1014,88	6,9	9	8,8	1	1	1	1	1	1	1	1	1	0	1	-0	274,261812	320,807436	0
15.01.2021	10:52:21	0	15,43165	3,529187	1,68975	1,5588	0,298	88,984	0	1014,92	6,9	9	8,8	1	1	1	1	1	1	1	1	1	0	1	-0	274,31003	321,033096	0
15.01.2021	10:52:22	0	15,431773	4,667632	1,71075	354,7008	0,292	88,985	0	1014,8	7	8,9	8,8	1	1	1	1	1	1	1	1	1	0	1	-0	274,402279	321,465162	0
15.01.2021	10:52:23	0	15,899308	3,529183	1,7295	359,8956	0,297	88,981	0	1014,84	6,9	9	8,8	1	1	1	1	1	1	1	1	1	0	1	-3,171247	274,305504	317,840664	0
15.01.2021	10:52:24	0	15,548604	3,529182	1,7475	356,5944	0,3	88,965	0	1014,7	7	9	8,8	1	1	1	1	1	1	1	1	1	0	1	-0	274,399247	321,450956	0
15.01.2021	10:52:25	0	15,314806	3,073802	1,76925	357,2136	0,292	88,989	0	1014,78	6,9	9	8,8	1	1	1	1	1	1	1	1	1	0	1	-0	274,239252	320,701892	0
15.01.2021	10:52:26	0	15,548635	4,0984	1,92225	7,2576	0,293	88,988	0	1014,72	6,9	9	8,8	1	1	1	1	1	1	1	1	1	0	1	-0	274,352319	321,231111	0
15.01.2021	10:52:27	0	15,314837	2,390732	2,03625	0,4788	0,294	88,98	0	1014,7	6,9	9	8,8	1	1	1	1	1	1	1	1	1	0	1	-0,845666	274,243762	319,877323	0
15.01.2021	10:52:28	0	15,548667	3,756863	2,02875	4,8204	0,298	88,987	0	1014,6	7	9	8,8	1	1	1	1	1	1	1	1	1	0	1	-0	274,30098	320,990733	0
15.01.2021	10:52:29	0	15,197961	2,163041	1,968	356,2164	0,3	88,992	0	1014,8	7	9	8,8	1	1	1	1	1	1	1	1	1	0	1	-0	274,420478	321,550454	0
15.01.2021	10:52:30	0	15,665606	4,667614	1,85025	356,184	0,295	88,982	0	1014,72	7	9	8,8	1	1	1	1	1	1	1	1	1	0	1	-0	274,35988	321,266526	0
15.01.2021	10:52:31	0	15,548715	5,236832	1,6245	355,3884	0,3	88,986	0	1014,8	6,9	9	8,8	1	1	1	1	1	1	1	1	1	0	1	-0	274,40986	321,500688	0
15.01.2021	10:52:32	0	15,665638	3,073791	1,45275	357,6564	0,302	89,011	0	1014,82	6,9	9	8,8	1	1	1	1	1	1	1	1	1	0	1	-1,127555	274,388641	320,273703	0
15.01.2021	10:52:33	0	15,431838	2,732258	1,39725	354,6684	0,299	88,987	0	1014,74	6,9	9	8,8	1	1	1	1	1	1	1	1	1	0	1	-0	274,426549	321,578906	0
15.01.2021	10:52:34	0	15,66578	4,781448	1,33875	353,9772	0,295	88,982	0	1014,8	6,9	8,9	8,8	1	1	1	1	1	1	1	1	1	0	1	-0	274,305504	321,011912	0
15.01.2021	10:52:35	0	15,314962	3,75685	1,3245	352,8612	0,3	88,975	0	1014,8	6,9	9	8,8	1	1	1	1	1	1	1	1	1	0	1	-0	274,254289	320,772238	0
15.01.2021	10:52:36	0	15,548794	4,326068	1,257	356,4612	0,296	88,972	0	1014,6	6,9	9	8,8	1	1	1	1	1	1	1	1	1	0	1	-0	274,307013	321,018972	0
15.01.2021	10:52:37	0	15,432009	3,187628	1,239	0,8568	0,292	88,999	0	1014,66	7	8,9	8,8	1	1	1	1	1	1	1	1	1	0	1	-0	274,402279	321,465162	0
15.01.2021	10:52:38	0	15,548826	2,959938	1,32	357,2028	0,301	89,023	0	1015,08	6,9	9	8,8	1	1	1	1	1	1	1	1	1	0	1	-0	274,365932	321,29487	0
15.01.2021	10:52:39	0	15,198116	4,781437	1,44075	0,8532	0,295	89,003	0	1014,64	7	9	8,8	1	1	1	1	1	1	1	1	1	0	1	-0	274,252785	320,7652	0
15.01.2021	10:52:40	0	15,198131	3,984529	1,5495	1,5444	0,297	88,998	0	1014,88	6,9	9	8,8	1	1	1	1	1	1	1	1	1	0	1	-0	274,308521	321,026034	0
15.01.2021	10:52:41	0	15,081238	2,50456	1,61325	0,5868	0,297	88,992	0	1014,66	6,9	9	8,8	1	1	1	1	1	1	1	1	1	0	1	-0	274,263317	320,814477	0
15.01.2021	10:52:42	0	15,198162	4,326029	1,6485	3,3948	0,299	89,001	0	1014,9	6,9	9	8,9	1	1	1	1	1	1	1	1	1	0	1	-0	274,390156	321,408355	0
15.01.2021	10:52:43	0	15,315087	2,959931	1,767	3,3912	0,303	89,017	0	1015,02	6,9	9	8,8	1	1	1	1	1	1	1	1	1	0	1	-0	274,270844	320,849695	0
15.01.2021	10:52:44	0	14,964375	4,212182	1,8855	6,0588	0,3	88,983	0	1014,98	6,9	9	8,9	1	1	1	1	1	1	1	1	1	0	1	-0	274,257298	320,786315	0
15.01.2021	10:52:45	0	15,198208	3,187615	1,95975	6,4332	0,304	89,01	0	1014,9	6,9	9	8,8	1	1	1	1	1	1	1	1	1	0	1	-0	274,371985	321,323225	0
15.01.2021	10:52:46	0	15,081314	4,09836	2,01675	1,926	0,301	89,007	0	1014,74	6,9	9	8,8	1	1	1	1	1	1	1	1	1	0	1	-0	274,251281	320,758163	0
15.01.2021	10:52:47	0	14,96442	3,529121	2,10975	6,0588	0,304	89,01	0	1014,96	6,9	9	8,9	1	1	1	1	1	1	1	1	1	0	1	-0	274,338716	321,167406	0
15.01.2021	10:52:48	0	15,198255	3,18761	2,14425	1,5552	0,307	89,018	0	1014,92	6,9	9	8,8	1	1	1	1	1	1	1	1	1	0	1	-0	274,252785	320,7652	0
15.01.2021	10:52:49	0	15,08136	3,984487	2,12625	351,8172	0,303	89,011	0	1014,82	6,9	9	8,9	1	1	1	1	1	1	1	1	1	0	1	-0	274,296456	320,96956	0
15.01.2021	10:52:50	0	15,198286	4,439881	2,0325	351,6984	0,304	89,018	0	1014,88	7	9	8,8	1	1	1	1	1	1	1	1	1	0	1	-0	274,254289	320,772238	0
15.01.2021	10:52:51	0	14,730661	3,073744	2,05875	8,9892	0,302	89,009	0	1014,84	7	9	8,9	1	1	1	1	1	1	1	1	1	0	1	-0	274,313047	321,047223	0
15.01.2021	10:52:52	0	14,964496	4,212191	2,02425	0,8532	0,295	88,998	0	1014,68	6,9	9	8,8	1	1	1	1	1	1	1	1	1	0	1	-2,959831	274,428066	318,62619	0
15.01.2021	10:52:53	0	14,964512	4,895247	1,932	357,696	0,299	89,008	0	1014,8	7	9	8,8	1	1	1	1	1	1	1	1	1	0	1	-0	274,367445	321,301958	0
15.01.2021	10:52:54	0	14,964527	3,073758	1,9035	358,7004	0,304	89,01	0	1014,78	6,9	9	8,8	1	1	1	1	1	1	1	1	1	0	1	-3,24172	274,421996	318,315846	0
15.01.2021	10:52:55	0	15,198363	4,895213	1,87425	359,0856	0,306	89,01	0	1014,82	6,9	9	8,9	1	1	1	1	1	1	1	1	1	0	1	-0	274,371985	321,323225	0
15.01.2021	10:52:56	0	15,081468	3,073755	1,87725	2,304	0,301	89,001	0	1014,76	6,9	9	8,8	1	1	1	1	1	1	1	1	1	0	1	-0	274,417444	321,536232	0
15.01.2021	10:52:57	0	14,964572	3,073735	1,95375	8,5896	0,296	89,007	0	1014,76	6,9	9	8,9	1	1	1	1	1	1	1	1	1	0	1	-0	274,293441	320,955448	0
15.01.2021	10:52:58	0	14,613855	3,870651	1,956	19,8792	0,305	88,993	0	1014,8	6,9	9	8,8	1	1	1	1	1	1	1	1	1	0	1	-0	274,270844	320,849695	0
15.01.2021	10:52:59	0	15,081514	3,301436	1,85475	20,6172	0,295	88,998	0	1014,74	7	9	8,8	1	1	1	1	1	1	1	1	1	0	1	-0	274,394701	321,429653	0
15.01.2021	10:53:00	0	14,496988	4,212173	1,6605	24,048	0,305	89,001	0	1014,64	6,9	9	8,8	1	1	1	1	1	1	1	1	1	0	1	-0	274,313047	321,047223	0
15.01.2021	10:53:01	0	14,496988	4,212173	1,6605	24,048	0,305	89,001	0	1014,64	6,9	9	8,8	1	1	1	1	1	1	1	1	1	0	1	-0	274,251281	320,758163	0
15.01.2021	10:53:02	0	14,380092	3,529116	1,66125	19,8792	0,305	88,994	0	1014,84	7	9	8,8	1	1	1	1	1	1	1	1	1	0	1	-0	274,334184	321,146183	0
15.01.2021	10:53:03	0	14,613929	2,959902	1,59	22,8168	0,307	89,006	0	1014,84	6,9	9	8,8	1	1	1	1	1	1	1	1	1	0	1	-0	274,269338	320,84265	0
15.01.2021	10:53:04	0	14,497032	4,326009	1,5375	14,6412	0,302	88,991	0	1014,78	6,9	9	8,8	1	1	1	1	1	1	1	1	1	0	1	-1,832276	274,28892	319,102009	0
15.01.2021	10:53:05	0	14,613959	3,187565	1,53375	16,0848	0,301	88,971	0	1014,76	6,9	9	8,9	1	1	1	1	1	1	1	1	1	0	1	-0	274,31003	321,033096	0
15.01.2021	10:53:06	0	14,613974	3,187563	1,52025	23,5944	0,306	88,994	0	1014,9	6,9	9	8,9	1	1	1	1	1	1	1	1	1	0	1	-0	274,421996	321,557566	0
15.01.2021	10:53:07	0	14,847812	4,326002	1,54425	9,7416	0,3	88,977	0	1014,8	6,9	9	8,8	1	1	1	1	1	1	1	1	1	0	1	-0	274,355343	321,245275	0
15.01.2021	10:53:08	0	14,380179	4,212133	1,536	359,4528	0,304	88,989	0	1014,8	7	9	8,9	1	1	1	1	1	1	1	1	1	0	1	-0	274,255794	320,779276	0
15.01.2021	10:53:09	0	14,73093	4,212156	1,59525	360	0,306	88,984	0	1014,94	6,9	9	8,8	1	1	1	1	1	1	1	1	1	0	1	-0	274,406827	321,486476	0
15.01.2021	10:53:10	0	14,614033	4,32597	1,56225	6,8148	0,31	88,973	0	1014,74	6,9	9	8,9	1	1	1	1	1	1	1	1	1	0	1	-0,845666	274,373498	320,48465	0
15.01.2021	10:53:11	0	14,380223	3,870626	1,56375	12,0852	0,304	88,968	0	1014,82	6,9	9	8,8	1	1	1	1	1	1	1	1	1	0	1	-0	274,254289	320,772238	0
15.01.2021	10:53:12	0	14,730975	5,350569	1,64925	360	0,306	88,987	0	1014,78	6,9	9	8,8	1	1	1	1	1	1	1	1	1	0	1	-0	274,390156	321,408355	0
15.01.2021	10:53:13	0	14,380252	4,325964	1,8255	0,8496	0,305	88,981	0	1014,86	6,9	9	8,9	1	1	1	1	1	1	1	1	1	0	1	-0	274,406827	321,486476	0
15.01.2021	10:53:14	0	14,731005	3,984462	1,9005	0	0,308	88,97	0	1014,88	6,9	9	8,8	1	1	1	1	1	1	1	1	1	0	1	-0	274,052268	319,828132	0
15.01.2021	10:53:15	0	14,614107	3,642935	1,989	10,4256	0,303	88,953	0	1014,9	6,9	9	8,8	1	1	1	1	1	1	1	1	1	0	1	-0,140944	274,313047	320,906278	0
15.01.2021	10:53:16	0	14,263383	3,984458	1,99875	6,0588	0,303	88,975	0	1014,9	7	9	8,8	1	1	1	1	1	1	1	1	1	0	1	-0,845666	274,417444	320,690566	0
15.01.2021	10:53:17	0	14,146484	3,073705	1,97475	4,8132	0,307	88,974	0	1014,88	6,9	9	8,9	1	1	1	1	1	1	1	1	1	0	1	-0	274,350807	321,22403	0
15.01.2021	10:53:18	0	14,380325	4,553635	2,0145	8,2476	0,304	88,961	0	1014,84	7	9	8,9	1	1	1	1	1	1	1	1	1	0	1	-0	274,254289	320,772238	0
15.01.2021	10:53:19	0	14,146513	2,618355	2,04375	7,5168	0,307	88,969	0	1014,94	7	9	8,8	1	1	1	1	1	1	1	1	1	0	1	-0	274,365932	321,29487	0
15.01.2021	10:53:20	0	14,263441	4,098292	1,95675	13,032	0,312	88,944	0	1014,76	7	9	8,8	1	1	1	1	1	1	1	1	1	0	1	-0	274,423513	321,564679	0
15.01.2021	10:53:21	0	14,146541	3,073699	1,9485	14,2956	0,304	88,937	0	1014,7	6,9	9	8,9	1	1	1	1	1	1	1	1	1	0	1	-0	274,34476	321,195713	0
15.01.2021	10:53:22	0	14,26347	3,073698	1,89225	13,1652	0,306	88,965	0	1014,78	7	9	8,9	1	1	1	1	1	1	1	1	1	0	1	-0	274,417444	321,536232	0
15.01.2021	10:53:23	0	14,029656	2,959855	1,8555	0	0,309	88,948	0	1014,88	6,9	9	8,9	1	1	1	1	1	1	1	1	1	0	1	-0	273,954267	319,370897	0
15.01.2021	10:53:24	0	14,380412	4,439808	1,911	9,7416	0,307	88,939	0	1014,8	6,9	9	8,8	1	1	1	1	1	1	1	1	1	0	1	-0	274,362906	321,280697	0
15.01.2021	10:53:25	0	14,146599	2,846029	1,95675	10,4328	0,301	88,932	0	1014,72	7	9	8,8	1	1	1	1	1	1	1	1	1	0	1	-0	274,248273	320,744091	0
15.01.2021	10:53:26	0	14,029699	3,415213	1,88025	11,1888	0,309	88,957	0	1014,82	7	9	8,9	1	1	1	1	1	1	1	1	1	0	1	-0	274,381068	321,365778	0
15.01.2021	10:53:27	0	14,49737	3,756732	1,90425	9,8244	0,303	88,948	0	1014,78	6,9	9	8,9	1	1	1	1	1	1	1	1	1	0	1	-0	274,393186	321,422553	0
15.01.2021	10:53:28	0	13,912813	3,642912	1,93725	2,6424	0,306	88,944	0	1014,84	6,9	9	8,8	1	1	1	1	1	1	1	1	1	0	1	-0,211416	274,290427	320,729923	0
15.01.2021	10:53:29	0	14,26357	3,187527	1,974	13,9104	0,308	88,941	0	1014,86	7	9	8,9	1	1	1	1	1	1	1	1	1	0	1	-0	274,428066	321,586021	0
15.01.2021	10:53:30	0	13,912841	4,553608	1,9275	10,0584	0,309	88,931	0	1014,86	7	9	8,9	1	1	1	1	1	1	1	1	1	0	1	-0	274,364419	321,287783	0
15.01.2021	10:53:31	0	13,912855	2,959862	1,8525	14,292	0,308	88,935	0	1014,82	6,9	9	8,8	1	1	1	1	1	1	1	1	1	0	1	-0	274,41441	321,522012	0
15.01.2021	10:53:32	0	14,380529	3,301363	1,83675	11,7	0,305	88,92	0	1014,94	7	9	8,9	1	1	1	1	1	1	1	1	1	0	1	-0	274,27988	320,891978	0
15.01.2021	10:53:33	0	13,912981	3,642903	1,776	12,0888	0,304	88,924	0	1014,78	6,9	8,9	8,8	1	1	1	1	1	1	1	1	1	0	1	-0	274,27988	320,891978	0
15.01.2021	10:53:34	0	14,146727	4,895119	1,81275	9,0072	0,307	88,942	0	1014,88	7	9	8,9	1	1	1	1	1	1	1	1	1	0	1	-0	274,426549	321,578906	0
15.01.2021	10:53:35	0	14,263657	5,008987	1,91475	2,286	0,309	88,934	0	1014,88	6,9	9	8,8	1	1	1	1	1	1	1	1	1	0	1	-0	274,337205	321,160331	0
15.01.2021	10:53:36	0	13,79601	3,415196	1,9485	11,7036	0,304	88,936	0	1014,8	7	9	8,9	1	1	1	1	1	1	1	1	1	0	1	-0	274,240755	320,708923	0
15.01.2021	10:53:37	0	13,912939	4,553593	1,758	358,3656	0,308	88,935	0	1014,88	6,9	9	8,9	1	1	1	1	1	1	1	1	1	0	1	-0	274,361393	321,273611	0
15.01.2021	10:53:38	0	13,796038	2,61833	1,551	343,1988	0,305	88,926	0	1014,72	7	9	8,8	1	1	1	1	1	1	1	1	1	0	1	-0	274,251281	320,758163	0
15.01.2021	10:53:39	0	14,146799	2,959832	1,5435	347,3172	0,306	88,937	0	1014,92	6,9	9	8,9	1	1	1	1	1	1	1	1	1	0	1	-0	274,299472	320,983675	0
15.01.2021	10:53:40	0	13,796066	2,618312	1,56675	354,2328	0,303	88,915	0	1014,74	7	9	8,9	1	1	1	1	1	1	1	1	1	0	1	-0	274,415927	321,529122	0
15.01.2021	10:53:41	0	14,146827	3,756707	1,55625	341,9964	0,304	88,921	0	1014,86	7	9	8,9	1	1	1	1	1	1	1	1	1	0	1	-0	274,297964	320,976617	0
15.01.2021	10:53:42	0	13,796094	4,325903	1,6035	359,5932	0,304	88,933	0	1014,6	6,9	9	8,9	1	1	1	1	1	1	1	1	1	0	1	-0	274,385611	321,387064	0
15.01.2021	10:53:43	0	13,913024	3,301345	1,76175	350,2692	0,307	88,938	0	1014,78	6,9	9	8,9	1	1	1	1	1	1	1	1	1	0	1	-1,127555	274,242259	319,588401	0
15.01.2021	10:53:44	0	13,679205	2,618307	1,88925	3,006	0,308	88,945	0	1014,78	6,9	9	8,9	1	1	1	1	1	1	1	1	1	0	1	-0	274,273855	320,863787	0
15.01.2021	10:53:45	0	14,146885	5,008963	1,84875	355,41	0,298	88,933	0	1014,76	7	9	8,8	1	1	1	1	1	1	1	1	1	0	1	-0	274,384097	321,379968	0
15.01.2021	10:53:46	0	13,796149	3,30136	1,605	351,6768	0,301	88,939	0	1014,8	6,9	9	8,8	1	1	1	1	1	1	1	1	1	0	1	-0	274,258803	320,793354	0
15.01.2021	10:53:47	0	13,91308	2,276799	1,3725	357,3144	0,306	88,928	0	1014,84	7	9	8,8	1	1	1	1	1	1	1	1	1	0	1	-0,211416	274,350807	321,012614	0
15.01.2021	10:53:48	0	13,913094	3,415176	1,27725	359,4528	0,306	88,941	0	1014,78	6,9	9	8,9	1	1	1	1	1	1	1	1	1	0	1	-0	274,242259	320,715956	0
15.01.2021	10:53:49	0	13,796191	3,073657	1,296	6,048	0,3	88,938	0	1014,76	6,9	9	8,9	1	1	1	1	1	1	1	1	1	0	1	-0	274,343249	321,188635	0
15.01.2021	10:53:50	0	14,030039	3,529033	1,335	353,1888	0,307	88,926	0	1014,82	7	9	8,8	1	1	1	1	1	1	1	1	1	0	1	-0,352361	274,248273	320,391731	0
15.01.2021	10:53:51	0	13,562385	2,959815	1,335	345,7224	0,305	88,937	0	1014,72	7	9	8,9	1	1	1	1	1	1	1	1	1	0	1	-0	274,340227	321,174482	0
15.01.2021	10:53:52	0	13,91315	4,098204	1,47975	354,2688	0,309	88,932	0	1014,82	7	9	8,9	1	1	1	1	1	1	1	1	1	0	1	-0	274,400763	321,458059	0
15.01.2021	10:53:53	0	13,679329	2,95983	1,6005	5,2056	0,309	88,934	0	1014,62	7	9	8,8	1	1	1	1	1	1	1	1	1	0	1	-0	274,291934	320,948393	0
15.01.2021	10:53:54	0	13,796261	4,439716	1,67625	6,0624	0,311	88,94	0	1014,76	7	9	8,9	1	1	1	1	1	1	1	1	1	0	1	-0	274,376526	321,344499	0
15.01.2021	10:53:55	0	13,913192	3,073648	1,67925	342,0828	0,308	88,924	0	1014,76	6,9	9	8,9	1	1	1	1	1	1	1	1	1	0	1	-0	274,245266	320,730022	0
15.01.2021	10:53:56	0	13,562453	2,73213	1,605	356,976	0,303	88,922	0	1014,82	7	9	8,9	1	1	1	1	1	1	1	1	1	0	1	-0,070472	274,285906	320,849708	0
15.01.2021	10:53:57	0	13,91322	3,073645	1,52325	355,0536	0,307	88,954	0	1014,72	7	9	8,9	1	1	1	1	1	1	1	1	1	0	1	-0	274,278374	320,884929	0
15.01.2021	10:53:58	0	13,796316	2,959805	1,56675	0,8712	0,306	88,943	0	1014,8	6,9	9	8,9	1	1	1	1	1	1	1	1	1	0	1	-0	274,364419	321,287783	0
15.01.2021	10:53:59	0	13,679412	2,959804	1,5705	9,3672	0,305	88,95	0	1014,88	7	9	8,9	1	1	1	1	1	1	1	1	1	0	1	-0	274,23324	320,673772	0
15.01.2021	10:54:00	0	13,796358	3,642832	1,6425	7,1244	0,302	88,943	0	1014,74	6,9	9	8,9	1	1	1	1	1	1	1	1	1	0	1	-0	274,305504	321,011912	0
15.01.2021	10:54:01	0	13,796358	3,642832	1,6425	7,1244	0,302	88,943	0	1014,74	6,9	9	8,9	1	1	1	1	1	1	1	1	1	0	1	-0	274,278374	320,884929	0
15.01.2021	10:54:02	0	13,445616	4,439699	1,79175	2,6388	0,31	88,942	0	1014,82	6,9	9	8,9	1	1	1	1	1	1	1	1	1	0	1	-0	274,405311	321,479371	0
15.01.2021	10:54:03	0	13,44563	4,212045	1,92	360	0,305	88,936	0	1014,74	6,9	9	8,8	1	1	1	1	1	1	1	1	1	0	1	-1,409443	274,384097	319,970525	0
15.01.2021	10:54:04	0	13,913318	2,845975	2,03775	357,6528	0,299	88,946	0	1014,72	6,9	9	8,8	1	1	1	1	1	1	1	1	1	0	1	-0	274,242259	320,715956	0
15.01.2021	10:54:05	0	13,679495	4,098178	2,214	359,4492	0,311	88,95	0	1014,82	6,9	9	8,9	1	1	1	1	1	1	1	1	1	0	1	-0	274,275361	320,870834	0
15.01.2021	10:54:06	0	13,445671	4,325852	2,337	358,6572	0,301	88,942	0	1014,78	7	9	8,9	1	1	1	1	1	1	1	1	1	0	1	-0	274,408343	321,493582	0
15.01.2021	10:54:07	0	13,796441	3,642821	2,2935	355,3416	0,307	88,956	0	1014,9	6,9	9	8,9	1	1	1	1	1	1	1	1	1	0	1	-0	274,362906	321,280697	0
15.01.2021	10:54:08	0	13,562617	3,756657	2,2755	344,664	0,305	88,965	0	1014,92	7	9	8,9	1	1	1	1	1	1	1	1	1	0	1	-0	274,402279	321,465162	0
15.01.2021	10:54:09	0	13,445711	3,415141	2,31075	354,9744	0,305	88,957	0	1014,8	7	9	8,9	1	1	1	1	1	1	1	1	1	0	1	-0	274,326632	321,110825	0
15.01.2021	10:54:10	0	13,328805	3,187483	2,2365	348,678	0,307	88,953	0	1014,7	7	9	8,8	1	1	1	1	1	1	1	1	1	0	1	-0	274,240755	320,708923	0
15.01.2021	10:54:11	0	13,562658	2,732111	2,2845	350,2908	0,307	88,953	0	1014,78	6,9	9	8,9	1	1	1	1	1	1	1	1	1	0	1	-0	274,287413	320,927233	0
15.01.2021	10:54:12	0	13,562671	4,78122	2,2995	343,9044	0,302	88,945	0	1014,78	6,9	9	8,8	1	1	1	1	1	1	1	1	1	0	1	-0	274,408343	321,493582	0
15.01.2021	10:54:13	0	13,679605	4,439675	2,262	357,5592	0,298	88,959	0	1014,74	6,9	9	8,9	1	1	1	1	1	1	1	1	1	0	1	-0	274,264822	320,821519	0
15.01.2021	10:54:14	0	13,211939	2,845944	2,08425	10,4328	0,302	88,94	0	1014,66	7	9	8,9	1	1	1	1	1	1	1	1	1	0	1	-0	274,245266	320,730022	0
15.01.2021	10:54:15	0	13,562712	3,073637	2,0505	13,9104	0,314	88,965	0	1014,7	6,9	9	8,8	1	1	1	1	1	1	1	1	1	0	1	-0	274,388641	321,401257	0
15.01.2021	10:54:16	0	13,328886	3,073654	2,094	8,3232	0,306	88,952	0	1014,9	7	9	8,7	1	1	1	1	1	1	1	1	1	0	1	-0	274,273855	320,863787	0
15.01.2021	10:54:17	0	13,67966	4,667342	2,12325	6,7176	0,308	88,974	0	1014,84	7	9	8,9	1	1	1	1	1	1	1	1	1	0	1	-0	274,388641	321,401257	0
15.01.2021	10:54:18	0	13,095072	3,528964	2,15025	10,0584	0,312	88,965	0	1014,8	6,9	9	8,9	1	1	1	1	1	1	1	1	1	0	1	-0	274,270844	320,849695	0
15.01.2021	10:54:19	0	13,328926	3,6428	2,1015	1,548	0,313	88,979	0	1014,8	6,9	9	8,9	1	1	1	1	1	1	1	1	1	0	1	-0	274,412893	321,514904	0
15.01.2021	10:54:20	0	13,44586	2,618293	2,08875	14,292	0,31	88,98	0	1014,86	7	9	8,7	1	1	1	1	1	1	1	1	1	0	1	-0	274,331163	321,132038	0
15.01.2021	10:54:21	0	13,328953	4,553523	2,061	13,9032	0,31	88,99	0	1014,9	6,9	9	8,8	1	1	1	1	1	1	1	1	1	0	1	-0	274,418961	321,543342	0
15.01.2021	10:54:22	0	13,328966	2,618259	1,9995	15,4008	0,309	88,966	0	1014,78	6,9	9	8,9	1	1	1	1	1	1	1	1	1	0	1	-0	274,316065	321,061352	0
15.01.2021	10:54:23	0	13,212058	2,959787	1,97325	17,694	0,31	88,955	0	1014,74	7	9	8,8	1	1	1	1	1	1	1	1	1	0	1	-0	274,415927	321,529122	0
15.01.2021	10:54:24	0	13,445914	2,845931	1,8765	16,8336	0,305	88,978	0	1014,84	7	9	8,9	1	1	1	1	1	1	1	1	1	0	1	-0	274,278374	320,884929	0
15.01.2021	10:54:25	0	13,212085	3,187441	1,68075	17,2188	0,313	88,979	0	1014,8	6,9	9	8,9	1	1	1	1	1	1	1	1	1	0	1	-0	274,281386	320,899028	0
15.01.2021	10:54:26	0	12,978256	2,618254	1,5285	16,4808	0,309	88,986	0	1014,82	7	9	8,9	1	1	1	1	1	1	1	1	1	0	1	-0	274,236246	320,687831	0
15.01.2021	10:54:27	0	13,212112	2,732106	1,44225	6,8148	0,307	88,966	0	1014,9	7	9	8,8	1	1	1	1	1	1	1	1	1	0	1	-0,070472	274,237749	320,624389	0
15.01.2021	10:54:28	0	13,329046	4,098157	1,48875	21,384	0,307	88,984	0	1014,82	7	9	8,8	1	1	1	1	1	1	1	1	1	0	1	-0	274,396216	321,436753	0
15.01.2021	10:54:29	0	13,212138	4,439641	1,53675	358,4124	0,306	88,973	0	1014,82	7	9	8,9	1	1	1	1	1	1	1	1	1	0	1	-0	274,303996	321,004851	0
15.01.2021	10:54:30	0	12,978308	2,732102	1,7025	359,154	0,316	88,979	0	1014,9	6,9	9	8,8	1	1	1	1	1	1	1	1	1	0	1	-0	274,249777	320,751127	0
15.01.2021	10:54:31	0	13,446008	3,301268	1,78575	5,6844	0,306	88,963	0	1014,7	6,9	9	8,9	1	1	1	1	1	1	1	1	1	0	1	-0	274,314556	321,054287	0
15.01.2021	10:54:32	0	13,095256	2,504409	1,74675	11,2608	0,306	88,963	0	1014,96	7	9	8,9	1	1	1	1	1	1	1	1	1	0	1	-0	274,426549	321,578906	0
15.01.2021	10:54:33	0	13,329113	4,098147	1,70775	6,0372	0,308	88,986	0	1014,84	7	9	8,8	1	1	1	1	1	1	1	1	1	0	1	-0	274,27988	320,891978	0
15.01.2021	10:54:34	0	13,095282	3,756633	1,761	8,2548	0,306	88,969	0	1014,84	6,9	9	8,8	1	1	1	1	1	1	1	1	1	0	1	-0	274,246769	320,737056	0
15.01.2021	10:54:35	0	12,978373	4,781167	1,85325	19,5156	0,312	88,994	0	1014,82	7	9	8,8	1	1	1	1	1	1	1	1	1	0	1	-0	274,437176	321,628723	0
15.01.2021	10:54:36	0	12,861464	2,845931	1,96725	10,4328	0,313	88,992	0	1014,9	7	9	8,8	1	1	1	1	1	1	1	1	1	0	1	-0	274,31003	321,033096	0
15.01.2021	10:54:37	0	12,861476	3,64279	2,12475	4,5108	0,307	88,995	0	1014,94	7	9	8,8	1	1	1	1	1	1	1	1	1	0	1	-0	274,408343	321,493582	0
15.01.2021	10:54:38	0	12,978412	4,439622	2,24475	20,2752	0,311	88,989	0	1014,92	7	9	8,9	1	1	1	1	1	1	1	1	1	0	1	-1,691332	274,34476	319,504381	0
15.01.2021	10:54:39	0	12,861502	4,66732	2,18325	27,954	0,307	88,991	0	1014,72	7	9	8,8	1	1	1	1	1	1	1	1	1	0	1	-0	274,417444	321,536232	0
15.01.2021	10:54:40	0	12,978438	2,618236	2,05425	16,4772	0,309	88,979	0	1014,82	7	9	8,9	1	1	1	1	1	1	1	1	1	0	1	-0	274,35988	321,266526	0
15.01.2021	10:54:41	0	13,095374	4,325805	1,98225	12,8556	0,31	88,961	0	1014,78	6,9	9	8,8	1	1	1	1	1	1	1	1	1	0	1	-0	274,266328	320,828562	0
15.01.2021	10:54:42	0	13,563079	4,553477	1,95975	16,4664	0,308	88,983	0	1014,84	7	9	8,8	1	1	1	1	1	1	1	1	1	0	1	-0	274,365932	321,29487	0
15.01.2021	10:54:43	0	12,861554	4,667283	1,95075	17,694	0,31	88,981	0	1014,98	7	9	8,9	1	1	1	1	1	1	1	1	1	0	1	-0	274,281386	320,899028	0
15.01.2021	10:54:44	0	13,095413	3,870428	2,07225	5,2092	0,311	88,969	0	1014,84	7	9	8,9	1	1	1	1	1	1	1	1	1	0	1	-0,98661	274,370471	320,329525	0
15.01.2021	10:54:45	0	12,978503	4,211935	2,32275	25,0344	0,309	88,962	0	1014,96	7	9	8,9	1	1	1	1	1	1	1	1	1	0	1	-0	274,27235	320,85674	0
15.01.2021	10:54:46	0	12,978516	4,439605	2,22	360	0,312	88,98	0	1014,82	7	9	8,9	1	1	1	1	1	1	1	1	1	0	1	-0	274,305504	321,011912	0
15.01.2021	10:54:47	0	13,095452	4,781139	2,06625	16,866	0,305	88,973	0	1014,8	7	9	8,8	1	1	1	1	1	1	1	1	1	0	1	-0	274,261812	320,807436	0
15.01.2021	10:54:48	0	13,095466	3,870421	2,08125	22,8276	0,312	88,957	0	1014,76	7	9	8,9	1	1	1	1	1	1	1	1	1	0	1	-1,198027	274,393186	320,224526	0
15.01.2021	10:54:49	0	13,212403	4,781134	2,13375	19,1304	0,31	88,972	0	1014,72	7	9	8,8	1	1	1	1	1	1	1	1	1	0	1	-0	274,332673	321,13911	0
15.01.2021	10:54:50	0	12,861644	2,618223	2,23425	19,9152	0,313	88,969	0	1014,92	7	9	8,9	1	1	1	1	1	1	1	1	1	0	1	-0	274,257298	320,786315	0
15.01.2021	10:54:51	0	13,329353	2,959765	2,2305	13,5396	0,311	88,964	0	1014,86	7	9	8,7	1	1	1	1	1	1	1	1	1	0	1	-0	274,320593	321,082551	0
15.01.2021	10:54:52	0	12,978594	3,642764	2,166	10,1556	0,31	88,953	0	1014,78	7	9	8,8	1	1	1	1	1	1	1	1	1	0	1	-0	274,403795	321,472266	0
15.01.2021	10:54:53	0	13,212455	2,732055	2,199	360	0,307	88,966	0	1014,84	7	9	8,9	1	1	1	1	1	1	1	1	1	0	1	-0	274,355343	321,245275	0
15.01.2021	10:54:54	0	12,861695	4,211942	2,20425	6,804	0,306	88,96	0	1014,88	7	9	8,8	1	1	1	1	1	1	1	1	1	0	1	-0	274,252785	320,7652	0
15.01.2021	10:54:55	0	13,095557	2,049052	2,223	13,9284	0,307	88,949	0	1014,72	7	9	8,8	1	1	1	1	1	1	1	1	1	0	1	-0,563777	274,251281	320,194386	0
15.01.2021	10:54:56	0	12,861721	4,43961	2,22975	12,4416	0,3	88,94	0	1014,68	7	9	8,8	1	1	1	1	1	1	1	1	1	0	1	-0	274,297964	320,976617	0
15.01.2021	10:54:57	0	12,744809	4,098075	2,1765	18,45	0,311	88,957	0	1014,76	7	9	8,9	1	1	1	1	1	1	1	1	1	0	1	-0	274,417444	321,536232	0
15.01.2021	10:54:58	0	13,095596	2,959719	2,121	2,2932	0,314	88,945	0	1014,82	7	9	8,9	1	1	1	1	1	1	1	1	1	0	1	-0,070472	274,320593	321,012079	0
15.01.2021	10:54:59	0	12,861759	4,325767	2,03775	8,262	0,306	88,93	0	1014,86	7	9	8,8	1	1	1	1	1	1	1	1	1	0	1	-0	274,405311	321,479371	0
15.01.2021	10:55:00	0	13,095636	4,894913	1,8795	351,792	0,313	88,933	0	1014,82	7	9	8,9	1	1	1	1	1	1	1	1	1	0	1	-0	274,28892	320,934286	0
15.01.2021	10:55:01	0	13,095636	4,894913	1,8795	351,792	0,313	88,933	0	1014,82	7	9	8,9	1	1	1	1	1	1	1	1	1	0	1	-0	274,242259	320,715956	0
15.01.2021	10:55:02	0	13,095649	3,301219	1,8225	342,72	0,307	88,917	0	1014,82	7	9	8,9	1	1	1	1	1	1	1	1	1	0	1	-0	274,270844	320,849695	0
15.01.2021	10:55:03	0	12,978736	2,845894	1,86225	12,6	0,308	88,929	0	1014,84	7	9	8,8	1	1	1	1	1	1	1	1	1	0	1	-0	274,412893	321,514904	0
15.01.2021	10:55:04	0	13,095675	2,276714	1,914	2,6244	0,304	88,92	0	1014,84	7	9	8,8	1	1	1	1	1	1	1	1	1	0	1	-0	274,284399	320,913129	0
15.01.2021	10:55:05	0	13,095688	3,642741	1,86525	0	0,304	88,925	0	1014,84	6,9	9	8,8	1	1	1	1	1	1	1	1	1	0	1	-0	274,263317	320,814477	0
15.01.2021	10:55:06	0	13,329553	4,439588	1,764	359,0172	0,305	88,906	0	1014,84	7	9	8,8	1	1	1	1	1	1	1	1	1	0	1	-0	274,376526	321,344499	0
15.01.2021	10:55:07	0	12,978788	2,959724	1,70625	5,2236	0,308	88,92	0	1014,78	7	9	8,8	1	1	1	1	1	1	1	1	1	0	1	-0	274,307013	321,018972	0
15.01.2021	10:55:08	0	12,861875	4,211888	1,56225	0,4824	0,309	88,927	0	1014,9	7	9	8,9	1	1	1	1	1	1	1	1	1	0	1	-0	274,396216	321,436753	0
15.01.2021	10:55:09	0	13,09574	3,870382	1,41	359,8308	0,309	88,907	0	1014,78	7	9	8,9	1	1	1	1	1	1	1	1	1	0	1	-0	274,408343	321,493582	0
15.01.2021	10:55:10	0	13,095753	4,553415	1,34325	1,4724	0,306	88,925	0	1014,78	6,9	9	8,8	1	1	1	1	1	1	1	1	1	0	1	-0	274,393186	321,422553	0
15.01.2021	10:55:11	0	13,095766	3,415039	1,25025	353,5488	0,306	88,923	0	1014,82	6,9	9	8,9	1	1	1	1	1	1	1	1	1	0	1	-0	274,275361	320,870834	0
15.01.2021	10:55:12	0	13,212706	2,504376	1,22925	350,694	0,305	88,926	0	1014,72	7	9	8,8	1	1	1	1	1	1	1	1	1	0	1	-0	274,260308	320,800395	0
15.01.2021	10:55:13	0	12,978866	3,756562	1,22625	10,8216	0,314	88,922	0	1014,88	7	9	8,8	1	1	1	1	1	1	1	1	1	0	1	-0	274,27988	320,891978	0
15.01.2021	10:55:14	0	12,978879	3,642725	1,2	2,6352	0,31	88,932	0	1014,9	7	9	8,8	1	1	1	1	1	1	1	1	1	0	1	-0	274,426549	321,578906	0
15.01.2021	10:55:15	0	12,861965	4,439543	1,25625	353,9268	0,31	88,933	0	1014,78	7	9	8,9	1	1	1	1	1	1	1	1	1	0	1	-0	274,240755	320,708923	0
15.01.2021	10:55:16	0	12,861977	3,415052	1,4985	354,2364	0,313	88,946	0	1014,72	7	9	8,8	1	1	1	1	1	1	1	1	1	0	1	-0	274,234743	320,680801	0
15.01.2021	10:55:17	0	12,86199	3,301215	1,65675	13,1472	0,307	88,93	0	1014,8	7	9	8,8	1	1	1	1	1	1	1	1	1	0	1	-0	274,293441	320,955448	0
15.01.2021	10:55:18	0	12,862003	2,845874	1,701	360	0,312	88,938	0	1014,88	7	9	8,8	1	1	1	1	1	1	1	1	1	0	1	-0	274,242259	320,715956	0
15.01.2021	10:55:19	0	13,446653	3,984221	1,69875	359,8452	0,312	88,943	0	1014,88	7	9	8,8	1	1	1	1	1	1	1	1	1	0	1	-0	274,291934	320,948393	0
15.01.2021	10:55:20	0	12,862029	3,75655	1,62525	6,066	0,317	88,957	0	1014,92	7	9	8,8	1	1	1	1	1	1	1	1	1	0	1	-0	274,261812	320,807436	0
15.01.2021	10:55:21	0	13,095897	4,667198	1,50825	9,3456	0,307	88,932	0	1014,86	7	9	8,9	1	1	1	1	1	1	1	1	1	0	1	-0	274,406827	321,486476	0
15.01.2021	10:55:22	0	13,09591	3,642711	1,4715	8,2584	0,309	88,957	0	1014,84	7	9	8,8	1	1	1	1	1	1	1	1	1	0	1	-0	274,322103	321,089618	0
15.01.2021	10:55:23	0	13,095923	2,959701	1,41675	15,0264	0,309	88,957	0	1014,86	7	9	8,8	1	1	1	1	1	1	1	1	1	0	1	-0	274,358368	321,259442	0
15.01.2021	10:55:24	0	12,745152	3,18735	1,35675	9,3708	0,306	88,947	0	1014,98	7	9	8,9	1	1	1	1	1	1	1	1	1	0	1	-0	274,239252	320,701892	0
15.01.2021	10:55:25	0	12,979021	4,439521	1,43925	5,2092	0,305	88,941	0	1014,84	6,9	9	8,9	1	1	1	1	1	1	1	1	1	0	1	-0	274,346272	321,202791	0
15.01.2021	10:55:26	0	12,862105	2,959697	1,4925	7,5132	0,311	88,951	0	1014,88	7	9	8,8	1	1	1	1	1	1	1	1	1	0	1	-0	274,266328	320,828562	0
15.01.2021	10:55:27	0	12,979047	4,439544	1,581	16,1028	0,307	88,951	0	1014,86	7	9	8,8	1	1	1	1	1	1	1	1	1	0	1	-0	274,251281	320,758163	0
15.01.2021	10:55:28	0	12,862131	2,618191	1,8255	17,2188	0,31	88,955	0	1014,62	7	9	8,8	1	1	1	1	1	1	1	1	1	0	1	-0	274,368958	321,309047	0
15.01.2021	10:55:29	0	13,212929	3,073527	1,87275	14,6484	0,315	88,944	0	1014,74	7	9	8,8	1	1	1	1	1	1	1	1	1	0	1	-0	274,245266	320,730022	0
15.01.2021	10:55:30	0	12,862157	3,528863	1,869	16,1352	0,313	88,995	0	1014,84	7	9	8,8	1	1	1	1	1	1	1	1	1	0	1	-0	274,296456	320,96956	0
15.01.2021	10:55:31	0	13,096027	4,894872	1,90725	21,0276	0,311	88,955	0	1014,84	7	9	8,8	1	1	1	1	1	1	1	1	1	0	1	-0	274,231738	320,666744	0
15.01.2021	10:55:32	0	13,09604	5,122538	1,82925	14,6592	0,307	88,967	0	1014,9	7	9	8,8	1	1	1	1	1	1	1	1	1	0	1	-0	274,328142	321,117895	0
15.01.2021	10:55:33	0	12,745266	4,098028	1,68225	18,4572	0,306	88,952	0	1014,9	7	9	8,8	1	1	1	1	1	1	1	1	1	0	1	-0	274,396216	321,436753	0
15.01.2021	10:55:34	0	12,862208	3,756524	1,7025	8,9928	0,305	88,966	0	1014,76	6,9	9	8,8	1	1	1	1	1	1	1	1	1	0	1	-0	274,365932	321,29487	0
15.01.2021	10:55:35	0	13,096079	2,504348	1,8105	17,6904	0,307	88,948	0	1014,9	6,8	9	8,8	1	1	1	1	1	1	1	1	1	0	1	-1,832276	274,273855	319,03151	0
15.01.2021	10:55:36	0	12,979163	3,301185	1,902	12,852	0,309	88,947	0	1014,8	7	9	8,8	1	1	1	1	1	1	1	1	1	0	1	-0	274,399247	321,450956	0
15.01.2021	10:55:37	0	13,213035	3,187349	2,007	20,628	0,309	88,945	0	1014,86	7	9	8,8	1	1	1	1	1	1	1	1	1	0	1	-0	274,308521	321,026034	0
15.01.2021	10:55:38	0	13,213048	4,667188	2,12625	355,4388	0,307	88,944	0	1014,72	7	9	8,8	1	1	1	1	1	1	1	1	1	0	1	-0	274,230235	320,659716	0
15.01.2021	10:55:39	0	13,44692	4,781019	2,145	2,286	0,312	88,957	0	1014,82	7	9	8,8	1	1	1	1	1	1	1	1	1	0	1	-0	274,246769	320,737056	0
15.01.2021	10:55:40	0	13,096144	5,122518	1,989	1,1628	0,309	88,966	0	1014,72	7	9	8,8	1	1	1	1	1	1	1	1	1	0	1	-0	274,293441	320,955448	0
15.01.2021	10:55:41	0	12,979227	2,845842	1,926	359,9028	0,306	88,953	0	1014,82	7	9	8,8	1	1	1	1	1	1	1	1	1	0	1	-0,352361	274,399247	321,098596	0
15.01.2021	10:55:42	0	13,2131	2,732007	2,03325	16,4844	0,308	88,964	0	1014,9	7	9	8,8	1	1	1	1	1	1	1	1	1	0	1	-0	274,352319	321,231111	0
15.01.2021	10:55:43	0	12,862323	2,504339	2,07825	16,1028	0,306	88,968	0	1014,84	6,9	9	8,8	1	1	1	1	1	1	1	1	1	0	1	-0	274,384097	321,379968	0
15.01.2021	10:55:44	0	13,096196	3,073487	1,98675	23,1912	0,307	88,959	0	1014,72	7	9	8,9	1	1	1	1	1	1	1	1	1	0	1	-0	274,224226	320,631612	0
15.01.2021	10:55:45	0	12,745418	2,618154	2,00325	3,3912	0,299	88,952	0	1014,8	7	9	8,9	1	1	1	1	1	1	1	1	1	0	1	-0	274,322103	321,089618	0
15.01.2021	10:55:46	0	12,862361	2,732002	2,01	11,1888	0,302	88,969	0	1014,92	7	9	8,8	1	1	1	1	1	1	1	1	1	0	1	-1,409443	274,240755	319,29948	0
15.01.2021	10:55:47	0	13,447027	4,781001	1,98675	8,9928	0,308	88,967	0	1014,84	7	9	8,8	1	1	1	1	1	1	1	1	1	0	1	-0	274,302488	320,997792	0
15.01.2021	10:55:48	0	12,862386	4,439499	1,878	7,5132	0,307	88,96	0	1014,82	7	9	8,8	1	1	1	1	1	1	1	1	1	0	1	-0	274,400763	321,458059	0
15.01.2021	10:55:49	0	12,862399	4,439497	1,90875	351,1116	0,299	88,947	0	1014,68	7	9	8,8	1	1	1	1	1	1	1	1	1	0	1	-0	274,290427	320,941339	0
15.01.2021	10:55:50	0	13,096274	3,756496	2,03925	359,5788	0,305	88,952	0	1014,84	7	9	8,8	1	1	1	1	1	1	1	1	1	0	1	-0	274,290427	320,941339	0
15.01.2021	10:55:51	0	13,330149	3,528827	2,139	357,6744	0,305	88,937	0	1014,88	6,9	9	8,8	1	1	1	1	1	1	1	1	1	0	1	-0	274,252785	320,7652	0
15.01.2021	10:55:52	0	12,862437	4,325657	2,0955	351,4932	0,308	88,954	0	1014,8	7	9	8,8	1	1	1	1	1	1	1	1	1	0	1	-0,211416	274,368958	321,09763	0
15.01.2021	10:55:53	0	13,213244	2,845826	2,04675	346,1292	0,307	88,936	0	1014,82	7	9	8,8	1	1	1	1	1	1	1	1	1	0	1	-0	274,270844	320,849695	0
15.01.2021	10:55:54	0	13,213257	3,414989	1,89975	354,6	0,301	88,94	0	1014,74	7	9	8,8	1	1	1	1	1	1	1	1	1	0	1	-0	274,385611	321,387064	0
15.01.2021	10:55:55	0	12,862476	3,187322	1,686	346,4424	0,302	88,935	0	1014,76	7	9	8,8	1	1	1	1	1	1	1	1	1	0	1	-1,338971	274,406827	320,147505	0
15.01.2021	10:55:56	0	13,213284	4,667148	1,629	7,8804	0,304	88,919	0	1014,86	7	9	8,8	1	1	1	1	1	1	1	1	1	0	1	-0	274,375012	321,337407	0
15.01.2021	10:55:57	0	12,979433	4,43948	1,5255	19,116	0,304	88,919	0	1014,96	7	9	8,8	1	1	1	1	1	1	1	1	1	0	1	-0	274,27988	320,891978	0
15.01.2021	10:55:58	0	13,096378	3,642648	1,43475	3,7656	0,3	88,925	0	1014,72	7	9	8,8	1	1	1	1	1	1	1	1	1	0	1	-0	274,237749	320,694861	0
15.01.2021	10:55:59	0	13,330255	2,845818	1,39425	351,1296	0,301	88,918	0	1014,74	7	9	8,8	1	1	1	1	1	1	1	1	1	0	1	-0	274,255794	320,779276	0
15.01.2021	10:56:00	0	13,213349	4,439471	1,50975	13,9212	0,302	88,916	0	1014,88	7	9	8,8	1	1	1	1	1	1	1	1	1	0	1	-0	274,294949	320,962504	0
15.01.2021	10:56:01	0	13,213349	4,439471	1,50975	13,9212	0,302	88,916	0	1014,88	7	9	8,8	1	1	1	1	1	1	1	1	1	0	1	-0	274,231738	320,666744	0
15.01.2021	10:56:02	0	12,862565	2,959646	1,52925	13,9932	0,299	88,918	0	1014,78	7	9	8,8	1	1	1	1	1	1	1	1	1	0	1	-0	274,34476	321,195713	0
15.01.2021	10:56:03	0	13,213375	4,894797	1,54575	13,932	0,302	88,912	0	1014,86	7	9	8,8	1	1	1	1	1	1	1	1	1	0	1	-0	274,411376	321,507796	0
15.01.2021	10:56:04	0	13,447253	3,870303	1,584	7,1172	0,303	88,913	0	1014,88	7	9	8,8	1	1	1	1	1	1	1	1	1	0	1	-0	274,358368	321,259442	0
15.01.2021	10:56:05	0	12,979536	3,870301	1,6005	12,8556	0,294	88,893	0	1014,94	7	9	8,8	1	1	1	1	1	1	1	1	1	0	1	-0	274,384097	321,379968	0
15.01.2021	10:56:06	0	12,979549	4,780958	1,54125	9,3564	0,305	88,919	0	1014,74	7	9	8,8	1	1	1	1	1	1	1	1	1	0	1	-0	274,361393	321,273611	0
15.01.2021	10:56:07	0	13,096494	4,553291	1,55175	8,6184	0,305	88,923	0	1014,8	7	9	8,8	1	1	1	1	1	1	1	1	1	0	1	-0	274,249777	320,751127	0
15.01.2021	10:56:08	0	13,21344	3,756463	1,56075	2,286	0,305	88,915	0	1014,72	7	9	8,8	1	1	1	1	1	1	1	1	1	0	1	-0	274,332673	321,13911	0
15.01.2021	10:56:09	0	12,979587	3,073468	1,62	1,548	0,302	88,914	0	1014,88	7	9	8,8	1	1	1	1	1	1	1	1	1	0	1	-0	274,240755	320,708923	0
15.01.2021	10:56:10	0	13,096533	4,553284	1,69725	4,842	0,302	88,912	0	1014,88	7	9	8,8	1	1	1	1	1	1	1	1	1	0	1	-0	274,420478	321,550454	0
15.01.2021	10:56:11	0	13,56428	5,236275	1,73025	359,6904	0,297	88,907	0	1014,78	7	9	8,8	1	1	1	1	1	1	1	1	1	0	1	-0	274,340227	321,174482	0
15.01.2021	10:56:12	0	13,330426	4,325616	1,7595	359,496	0,305	88,914	0	1014,86	7	9	8,8	1	1	1	1	1	1	1	1	1	0	1	-0	274,234743	320,680801	0
15.01.2021	10:56:13	0	13,213506	3,642622	1,8195	0,4824	0,3	88,908	0	1014,94	7	9	8,8	1	1	1	1	1	1	1	1	1	0	1	-0	274,290427	320,941339	0
15.01.2021	10:56:14	0	13,096585	4,78094	1,806	355,4892	0,303	88,893	0	1014,78	7	9	8,8	1	1	1	1	1	1	1	1	1	0	1	-0	274,239252	320,701892	0
15.01.2021	10:56:15	0	13,096598	2,731964	1,731	353,1888	0,304	88,896	0	1014,7	7	9	8,8	1	1	1	1	1	1	1	1	1	0	1	-0	274,356855	321,252358	0
15.01.2021	10:56:16	0	13,330479	3,870281	1,755	349,0308	0,301	88,909	0	1014,84	7	9	8,8	1	1	1	1	1	1	1	1	1	0	1	-0	274,412893	321,514904	0
15.01.2021	10:56:17	0	13,330492	3,187289	1,8195	353,2248	0,3	88,911	0	1014,78	7	9	8,8	1	1	1	1	1	1	1	1	1	0	1	-0	274,326632	321,110825	0
15.01.2021	10:56:18	0	12,979702	2,73196	1,89075	353,6748	0,297	88,898	0	1014,88	7	9	8,8	1	1	1	1	1	1	1	1	1	0	1	-0	274,230235	320,659716	0
15.01.2021	10:56:19	0	13,213584	5,122423	1,8825	354,762	0,295	88,896	0	1014,76	7	9	8,8	1	1	1	1	1	1	1	1	1	0	1	-0	274,365932	321,29487	0
15.01.2021	10:56:20	0	13,330532	4,667094	1,767	359,8308	0,305	88,899	0	1014,56	7	9	8,8	1	1	1	1	1	1	1	1	1	0	1	-0	274,408343	321,493582	0
15.01.2021	10:56:21	0	13,21361	5,008587	1,68	11,1852	0,3	88,905	0	1014,94	7	9	8,8	1	1	1	1	1	1	1	1	1	0	1	-0	274,341738	321,181558	0
15.01.2021	10:56:22	0	13,213623	3,642607	1,59975	0,8604	0,297	88,901	0	1014,66	7	9	8,8	1	1	1	1	1	1	1	1	1	0	1	-0	274,402279	321,465162	0
15.01.2021	10:56:23	0	13,213636	3,870268	1,596	7,488	0,298	88,901	0	1014,72	7	9	8,8	1	1	1	1	1	1	1	1	1	0	1	-0	274,30098	320,990733	0
15.01.2021	10:56:24	0	12,745909	3,414941	1,6725	3,0348	0,295	88,902	0	1014,88	7	9	8,8	1	1	1	1	1	1	1	1	1	0	1	-0	274,224226	320,631612	0
15.01.2021	10:56:25	0	13,564467	5,23624	1,7655	7,992	0,302	88,91	0	1014,82	6,8	9	8,8	1	1	1	1	1	1	1	1	1	0	1	-0	274,31003	321,033096	0
15.01.2021	10:56:26	0	13,213675	2,618119	1,68525	16,0812	0,299	88,904	0	1014,76	7	9	8,8	1	1	1	1	1	1	1	1	1	0	1	-0	274,402279	321,465162	0
15.01.2021	10:56:27	0	13,447559	5,577728	1,64325	4,0752	0,294	88,899	0	1014,88	7	9	8,8	1	1	1	1	1	1	1	1	1	0	1	-0	274,368958	321,309047	0
15.01.2021	10:56:28	0	13,447572	4,894739	1,62825	9,7452	0,304	88,904	0	1014,88	7	9	8,8	1	1	1	1	1	1	1	1	1	0	1	-0	274,361393	321,273611	0
15.01.2021	10:56:29	0	13,33065	4,21175	1,593	8,082	0,303	88,911	0	1014,84	7	9	8,8	1	1	1	1	1	1	1	1	1	0	1	-0	274,406827	321,486476	0
15.01.2021	10:56:30	0	13,330663	2,731945	1,5495	7,128	0,301	88,908	0	1014,92	7	9	8,8	1	1	1	1	1	1	1	1	1	0	1	-0	274,307013	321,018972	0
15.01.2021	10:56:31	0	13,21374	3,414929	1,5105	9,7236	0,293	88,912	0	1014,82	6,9	9	8,8	1	1	1	1	1	1	1	1	1	0	1	-0	274,222724	320,624588	0
15.01.2021	10:56:32	0	13,213753	4,097913	1,43925	6,1704	0,298	88,907	0	1014,84	7	9	8,8	1	1	1	1	1	1	1	1	1	0	1	-1,268499	274,320593	319,814052	0
15.01.2021	10:56:33	0	13,213766	4,325573	1,35075	355,7664	0,305	88,92	0	1014,8	7	9	8,8	1	1	1	1	1	1	1	1	1	0	1	-0	274,379554	321,358684	0
15.01.2021	10:56:34	0	13,447652	4,325571	1,3455	347,6016	0,301	88,912	0	1014,96	7	9	8,8	1	1	1	1	1	1	1	1	1	0	1	-0	274,236246	320,687831	0
15.01.2021	10:56:35	0	13,213792	3,642584	1,3785	360	0,302	88,913	0	1014,86	7	9	8,8	1	1	1	1	1	1	1	1	1	0	1	-0	274,326632	321,110825	0
15.01.2021	10:56:36	0	13,213805	3,756413	1,43175	354,6792	0,302	88,918	0	1014,82	7	9	8,8	1	1	1	1	1	1	1	1	1	0	1	-0	274,394701	321,429653	0
15.01.2021	10:56:37	0	13,096882	3,642581	1,47375	7,4952	0,295	88,9	0	1014,74	7	9	8,8	1	1	1	1	1	1	1	1	1	0	1	-0	274,353831	321,238193	0
15.01.2021	10:56:38	0	13,096895	4,553224	1,506	8,244	0,299	88,92	0	1014,84	7	9	8,8	1	1	1	1	1	1	1	1	1	0	1	-0	274,391671	321,415454	0
15.01.2021	10:56:39	0	13,447718	4,325561	1,58475	356,634	0,299	88,916	0	1014,76	7	9	8,8	1	1	1	1	1	1	1	1	1	0	1	-0	274,356855	321,252358	0
15.01.2021	10:56:40	0	13,213858	4,325559	1,54425	2,6532	0,293	88,918	0	1014,74	7	9	8,8	1	1	1	1	1	1	1	1	1	0	1	-0	274,396216	321,436753	0
15.01.2021	10:56:41	0	13,564681	5,12237	1,5	354,2688	0,301	88,925	0	1014,92	7	9	8,8	1	1	1	1	1	1	1	1	1	0	1	-0	274,368958	321,309047	0
15.01.2021	10:56:42	0	12,980009	3,414911	1,41525	1,17	0,297	88,922	0	1014,84	7	9	8,8	1	1	1	1	1	1	1	1	1	0	1	-0	274,276867	320,877881	0
15.01.2021	10:56:43	0	13,447771	3,41491	1,33275	5,6772	0,304	88,919	0	1014,9	7	9	8,8	1	1	1	1	1	1	1	1	1	0	1	-0	274,399247	321,450956	0
15.01.2021	10:56:44	0	13,21391	2,959587	1,29975	7,488	0,304	88,934	0	1014,86	7	9	8,8	1	1	1	1	1	1	1	1	1	0	1	-0	274,350807	321,22403	0
15.01.2021	10:56:45	0	13,096985	4,553209	1,29075	7,5096	0,303	88,927	0	1014,86	7	9	8,8	1	1	1	1	1	1	1	1	1	0	1	-0	274,382582	321,372873	0
15.01.2021	10:56:46	0	13,44781	4,325546	1,27125	6,8076	0,304	88,935	0	1014,82	7	9	8,8	1	1	1	1	1	1	1	1	1	0	1	-0	274,37804	321,351591	0
15.01.2021	10:56:47	0	13,330886	3,414903	1,4085	9,3744	0,303	88,93	0	1014,8	7	9	8,8	1	1	1	1	1	1	1	1	1	0	1	-0	274,23324	320,673772	0
15.01.2021	10:56:48	0	13,213961	2,390431	1,54425	4,5612	0,3	88,931	0	1014,98	7	9	8,8	1	1	1	1	1	1	1	1	1	0	1	-0	274,264822	320,821519	0
15.01.2021	10:56:49	0	13,097037	4,09788	1,68	6,0552	0,293	88,933	0	1014,92	7	9	8,8	1	1	1	1	1	1	1	1	1	0	1	-1,62086	274,258803	319,172495	0
15.01.2021	10:56:50	0	13,447863	2,959579	1,7115	13,9212	0,296	88,943	0	1014,9	7	9	8,8	1	1	1	1	1	1	1	1	1	0	1	-0	274,391671	321,415454	0
15.01.2021	10:56:51	0	12,980124	2,618088	1,6455	10,44	0,3	88,947	0	1014,76	7	9	8,8	1	1	1	1	1	1	1	1	1	0	1	-0	274,291934	320,948393	0
15.01.2021	10:56:52	0	13,44789	4,667023	1,58775	10,0476	0,303	88,943	0	1014,88	7	9	8,8	1	1	1	1	1	1	1	1	1	0	1	-0	274,387126	321,39416	0
15.01.2021	10:56:53	0	13,214026	2,390426	1,6215	15,0192	0,298	88,95	0	1014,98	7	9	8,8	1	1	1	1	1	1	1	1	1	0	1	-0	274,361393	321,273611	0
15.01.2021	10:56:54	0	13,097101	4,780849	1,56825	18,0792	0,305	89,003	0	1014,96	7	9	8,8	1	1	1	1	1	1	1	1	1	0	1	-0	274,405311	321,479371	0
15.01.2021	10:56:55	0	12,980175	4,439357	1,6035	12,8376	0,298	88,922	0	1014,8	7	9	8,8	1	1	1	1	1	1	1	1	1	0	1	-0	274,317575	321,068418	0
15.01.2021	10:56:56	0	13,097127	2,276592	1,791	13,1616	0,301	88,933	0	1014,86	7	9	8,8	1	1	1	1	1	1	1	1	1	0	1	-0	274,384097	321,379968	0
15.01.2021	10:56:57	0	13,331017	3,870205	2,0145	9,7488	0,302	88,923	0	1014,88	7	9	8,8	1	1	1	1	1	1	1	1	1	0	1	-0	274,402279	321,465162	0
15.01.2021	10:56:58	0	13,214091	2,845738	2,091	359,838	0,296	88,943	0	1014,84	7	9	8,8	1	1	1	1	1	1	1	1	1	0	1	-0	274,323613	321,096687	0
15.01.2021	10:56:59	0	12,980226	3,756372	2,106	10,0584	0,296	88,939	0	1014,82	7	9	8,8	1	1	1	1	1	1	1	1	1	0	1	-0	274,35988	321,266526	0
15.01.2021	10:57:00	0	12,863313	4,211686	2,08425	6,8112	0,293	88,95	0	1014,8	7	9	8,8	1	1	1	1	1	1	1	1	1	0	1	-0	274,231738	320,666744	0
15.01.2021	10:57:01	0	12,863313	4,211686	2,08425	6,8112	0,293	88,95	0	1014,8	7	9	8,8	1	1	1	1	1	1	1	1	1	0	1	-0	274,325122	321,103756	0
15.01.2021	10:57:02	0	13,097204	4,553172	1,97775	7,1316	0,298	88,944	0	1014,82	6,8	9	8,8	1	1	1	1	1	1	1	1	1	0	1	-0	274,412893	321,514904	0
15.01.2021	10:57:03	0	12,980277	4,325511	1,87275	3,78	0,302	88,945	0	1014,94	7	9	8,8	1	1	1	1	1	1	1	1	1	0	1	-0	274,234743	320,680801	0
15.01.2021	10:57:04	0	13,09723	3,870193	1,82325	10,4544	0,302	88,955	0	1014,86	7	9	8,8	1	1	1	1	1	1	1	1	1	0	1	-0	274,240755	320,708923	0
15.01.2021	10:57:05	0	12,863363	2,731899	1,788	11,7072	0,306	88,966	0	1014,9	7	9	8,8	1	1	1	1	1	1	1	1	1	0	1	-0,211416	274,371985	321,111809	0
15.01.2021	10:57:06	0	13,097255	4,439334	1,737	7,8732	0,301	88,938	0	1014,86	7	9	8,8	1	1	1	1	1	1	1	1	1	0	1	-0	274,393186	321,422553	0
15.01.2021	10:57:07	0	12,980328	4,211674	1,68	9,3816	0,296	88,958	0	1014,9	7	9	8,8	1	1	1	1	1	1	1	1	1	0	1	-0	274,260308	320,800395	0
15.01.2021	10:57:08	0	13,097281	3,30104	1,653	7,884	0,304	88,958	0	1014,82	7	9	8,8	1	1	1	1	1	1	1	1	1	0	1	-0	274,231738	320,666744	0
15.01.2021	10:57:09	0	13,097294	3,642526	1,60275	10,8072	0,3	88,956	0	1014,82	7	9	8,8	1	1	1	1	1	1	1	1	1	0	1	-0	274,37804	321,351591	0
15.01.2021	10:57:10	0	13,097307	3,414866	1,53075	10,0548	0,305	88,941	0	1014,72	7	9	8,8	1	1	1	1	1	1	1	1	1	0	1	-1,338971	274,397732	320,104883	0
15.01.2021	10:57:11	0	13,21426	4,211666	1,45725	20,6244	0,301	88,957	0	1014,86	7	9	8,8	1	1	1	1	1	1	1	1	1	0	1	-0	274,335694	321,153257	0
15.01.2021	10:57:12	0	12,980392	4,780808	1,52325	5,2344	0,303	88,955	0	1014,88	7	9	8,8	1	1	1	1	1	1	1	1	1	0	1	-0	274,406827	321,486476	0
15.01.2021	10:57:13	0	13,097345	3,414861	1,59225	11,1816	0,304	88,953	0	1014,9	7	9	8,8	1	1	1	1	1	1	1	1	1	0	1	-0	274,35988	321,266526	0
15.01.2021	10:57:14	0	12,863477	3,528688	1,62675	3,024	0,305	88,966	0	1014,82	7	9	8,8	1	1	1	1	1	1	1	1	1	0	1	-0,916138	274,331163	320,2159	0
15.01.2021	10:57:15	0	12,98043	2,845715	1,61325	360	0,302	88,954	0	1014,86	7	9	8,8	1	1	1	1	1	1	1	1	1	0	1	-0	274,37804	321,351591	0
15.01.2021	10:57:16	0	12,863502	2,845714	1,67025	13,158	0,304	88,964	0	1014,9	7	9	8,8	1	1	1	1	1	1	1	1	1	0	1	-0	274,340227	321,174482	0
15.01.2021	10:57:17	0	13,214337	4,55314	1,71825	9,3672	0,301	88,961	0	1014,94	7	9	8,8	1	1	1	1	1	1	1	1	1	0	1	-0	274,397732	321,443854	0
15.01.2021	10:57:18	0	12,746586	2,731883	1,8285	2,9988	0,302	88,958	0	1014,82	7	9	8,8	1	1	1	1	1	1	1	1	1	0	1	-0	274,266328	320,828562	0
15.01.2021	10:57:19	0	12,863539	2,959538	1,97325	8,2584	0,298	88,969	0	1014,94	7	9	8,8	1	1	1	1	1	1	1	1	1	0	1	-0	274,252785	320,7652	0
15.01.2021	10:57:20	0	12,863552	2,959537	2,06325	10,8108	0,293	88,947	0	1014,82	7	9	8,8	1	1	1	1	1	1	1	1	1	0	1	-0,704722	274,228733	319,947967	0
15.01.2021	10:57:21	0	12,980506	3,414848	2,1225	3,7656	0,306	88,959	0	1014,78	7	9	8,8	1	1	1	1	1	1	1	1	1	0	1	-0	274,347783	321,20987	0
15.01.2021	10:57:22	0	12,629694	3,301019	2,1195	6,0516	0,306	88,966	0	1014,94	7	9	8,8	1	1	1	1	1	1	1	1	1	0	1	-0	274,390156	321,408355	0
15.01.2021	10:57:23	0	13,097473	3,528673	2,0475	6,426	0,295	88,96	0	1014,94	7	9	8,8	1	1	1	1	1	1	1	1	1	0	1	-0	274,364419	321,287783	0
15.01.2021	10:57:24	0	12,863512	4,553125	1,95825	2,628	0,301	88,981	0	1014,86	7	9,1	8,8	1	1	1	1	1	1	1	1	1	0	1	-0	274,349295	321,21695	0
15.01.2021	10:57:25	0	12,746673	2,162733	1,959	12,8412	0,304	88,975	0	1014,92	7	9	8,8	1	1	1	1	1	1	1	1	1	0	1	-0	274,230235	320,659716	0
15.01.2021	10:57:26	0	12,629743	4,325464	1,947	11,7036	0,307	88,971	0	1014,96	7	9	8,8	1	1	1	1	1	1	1	1	1	0	1	-0	274,278374	320,884929	0
15.01.2021	10:57:27	0	12,86364	3,301011	1,9305	16,47	0,304	88,964	0	1014,84	7	9	8,8	1	1	1	1	1	1	1	1	1	0	1	-0,140944	274,228733	320,511745	0
15.01.2021	10:57:28	0	12,74671	3,983977	1,81725	16,0812	0,297	88,974	0	1014,86	7	9	8,8	1	1	1	1	1	1	1	1	1	0	1	-0	274,349295	321,21695	0
15.01.2021	10:57:29	0	12,746723	2,959524	1,7685	31,068	0,293	88,963	0	1014,82	7	9	8,8	1	1	1	1	1	1	1	1	1	0	1	-0	274,231738	320,666744	0
15.01.2021	10:57:30	0	13,097563	3,301006	1,73475	31,0032	0,305	88,975	0	1014,76	7	9	8,8	1	1	1	1	1	1	1	1	1	0	1	-0,070472	274,325122	321,033283	0
15.01.2021	10:57:31	0	12,86369	4,097799	1,60425	33,318	0,298	88,976	0	1014,92	7	9	8,8	1	1	1	1	1	1	1	1	1	0	1	-0	274,399247	321,450956	0
15.01.2021	10:57:32	0	13,214531	3,756314	1,5945	5,6844	0,301	88,967	0	1014,86	7	9	8,8	1	1	1	1	1	1	1	1	1	0	1	-0	274,329652	321,124966	0
15.01.2021	10:57:33	0	12,746773	3,073346	1,64025	4,0752	0,302	88,966	0	1014,8	7	9	8,8	1	1	1	1	1	1	1	1	1	0	1	-0	274,231738	320,666744	0
15.01.2021	10:57:34	0	12,863728	4,553103	1,788	3,0456	0,303	88,963	0	1014,78	7	9	8,8	1	1	1	1	1	1	1	1	1	0	1	-0	274,331163	321,132038	0
15.01.2021	10:57:35	0	12,512911	2,504206	1,85925	10,4328	0,306	88,963	0	1014,74	7	9	8,8	1	1	1	1	1	1	1	1	1	0	1	-0	274,227231	320,645663	0
15.01.2021	10:57:36	0	12,74681	2,731859	1,81725	8,6148	0,298	88,951	0	1014,88	7	9	8,8	1	1	1	1	1	1	1	1	1	0	1	-0,98661	274,278374	319,898319	0
15.01.2021	10:57:37	0	12,746822	2,845686	1,76175	12,8412	0,299	88,959	0	1014,88	7	9	8,8	1	1	1	1	1	1	1	1	1	0	1	-0	274,230235	320,659716	0
15.01.2021	10:57:38	0	12,863778	3,870131	1,69275	12,852	0,303	88,969	0	1014,76	7	9	8,8	1	1	1	1	1	1	1	1	1	0	1	-0	274,379554	321,358684	0
15.01.2021	10:57:39	0	12,51296	3,528647	1,67175	7,8804	0,302	88,963	0	1014,8	7	9	8,8	1	1	1	1	1	1	1	1	1	0	1	-0	274,388641	321,401257	0
15.01.2021	10:57:40	0	12,980747	2,959509	1,6005	6,0588	0,299	88,943	0	1014,84	7	9	8,8	1	1	1	1	1	1	1	1	1	0	1	-1,057082	274,245266	319,67294	0
15.01.2021	10:57:41	0	12,629928	2,618026	1,78425	7,8804	0,297	88,957	0	1014,86	7	9	8,8	1	1	1	1	1	1	1	1	1	0	1	-0	274,273855	320,863787	0
15.01.2021	10:57:42	0	12,629941	3,98395	1,851	6,066	0,304	88,962	0	1014,82	7	9	8,8	1	1	1	1	1	1	1	1	1	0	1	-0	274,230235	320,659716	0
15.01.2021	10:57:43	0	12,746897	4,32543	1,80975	10,0764	0,299	88,961	0	1014,88	7	9	8,8	1	1	1	1	1	1	1	1	1	0	1	-0	274,302488	320,997792	0
15.01.2021	10:57:44	0	12,629965	3,187157	1,7325	4,842	0,306	88,959	0	1014,86	7	9	8,8	1	1	1	1	1	1	1	1	1	0	1	-0	274,385611	321,387064	0
15.01.2021	10:57:45	0	12,629978	4,439253	1,69275	351,7308	0,301	88,967	0	1014,98	7	9	8,8	1	1	1	1	1	1	1	1	1	0	1	-0	274,28892	320,934286	0
15.01.2021	10:57:46	0	12,62999	2,845673	1,6815	2,2932	0,306	88,969	0	1014,94	7	9	8,8	1	1	1	1	1	1	1	1	1	0	1	-0	274,400763	321,458059	0
15.01.2021	10:57:47	0	12,746947	4,780729	1,6815	354,33	0,301	88,956	0	1014,88	7	9	8,8	1	1	1	1	1	1	1	1	1	0	1	-0	274,332673	321,13911	0
15.01.2021	10:57:48	0	12,279181	2,50419	1,6275	355,8096	0,302	88,95	0	1014,86	7	9	8,8	1	1	1	1	1	1	1	1	1	0	1	-0	274,234743	320,680801	0
15.01.2021	10:57:49	0	12,980861	3,073323	1,5105	353,2284	0,304	88,943	0	1014,94	7	9	8,8	1	1	1	1	1	1	1	1	1	0	1	-0	274,266328	320,828562	0
15.01.2021	10:57:50	0	12,513094	3,870109	1,41225	359,9604	0,305	88,955	0	1014,76	7	9	8,8	1	1	1	1	1	1	1	1	1	0	1	-0	274,231738	320,666744	0
15.01.2021	10:57:51	0	12,863941	4,211587	1,434	0,8568	0,303	88,954	0	1014,74	7	9	8,8	1	1	1	1	1	1	1	1	1	0	1	-0	274,314556	321,054287	0
15.01.2021	10:57:52	0	12,630064	4,211585	1,4025	6,7932	0,302	88,955	0	1014,82	7	9	8,8	1	1	1	1	1	1	1	1	1	0	1	-0	274,381068	321,365778	0
15.01.2021	10:57:53	0	12,513131	3,30097	1,452	360	0,296	88,944	0	1014,8	7	9	8,8	1	1	1	1	1	1	1	1	1	0	1	-0	274,611082	322,444741	0
15.01.2021	10:57:54	0	12,513143	4,89454	1,473	356,1552	0,3	88,948	0	1014,86	7	9	8,8	1	1	1	1	1	1	1	1	1	0	1	-0	274,406827	321,486476	0
15.01.2021	10:57:55	0	12,747046	3,300967	1,4745	10,4472	0,309	88,944	0	1014,8	7	9	8,8	1	1	1	1	1	1	1	1	1	0	1	-0	274,297964	320,976617	0
15.01.2021	10:57:56	0	12,513168	3,300966	1,39875	7,1172	0,302	88,941	0	1014,84	7	9	8,8	1	1	1	1	1	1	1	1	1	0	1	-0	274,384097	321,379968	0
15.01.2021	10:57:57	0	12,864017	3,300964	1,42725	358,758	0,296	88,924	0	1014,82	7	9	8,8	1	1	1	1	1	1	1	1	1	0	1	-0	274,346272	321,202791	0
15.01.2021	10:57:58	0	12,396246	3,300963	1,4835	7,1244	0,301	88,942	0	1014,88	7	9	8,8	1	1	1	1	1	1	1	1	1	0	1	-0	274,228733	320,652689	0
15.01.2021	10:57:59	0	12,864042	4,666876	1,49775	3,0096	0,301	88,936	0	1014,92	7	9	8,8	1	1	1	1	1	1	1	1	1	0	1	-0	274,353831	321,238193	0
15.01.2021	10:58:00	0	12,630174	3,870089	1,5	18,828	0,303	88,944	0	1014,88	7	9	8,8	1	1	1	1	1	1	1	1	1	0	1	-0	274,257298	320,786315	0
15.01.2021	10:58:01	0	12,630174	3,870089	1,5	18,828	0,303	88,944	0	1014,88	7	9	8,8	1	1	1	1	1	1	1	1	1	0	1	-0	274,257298	320,786315	0
15.01.2021	10:58:02	0	12,162402	3,756261	1,48425	12,096	0,3	88,928	0	1014,98	7	9	8,8	1	1	1	1	1	1	1	1	1	0	1	-0	274,293441	320,955448	0
15.01.2021	10:58:03	0	12,396306	3,870085	1,4745	5,2092	0,305	88,94	0	1014,9	7	9	8,8	1	1	1	1	1	1	1	1	1	0	1	-0	274,394701	321,429653	0
15.01.2021	10:58:04	0	12,864104	3,073301	1,404	15,0264	0,3	88,924	0	1014,86	7	9	8,8	1	1	1	1	1	1	1	1	1	0	1	-2,677942	274,338716	318,489464	0
15.01.2021	10:58:05	0	12,162438	2,731822	1,28325	6,0588	0,306	88,936	0	1014,94	7	9	8,8	1	1	1	1	1	1	1	1	1	0	1	-0,070472	274,225728	320,568165	0
15.01.2021	10:58:06	0	12,864129	3,756254	1,269	354,3228	0,3	88,942	0	1014,92	7	9	8,8	1	1	1	1	1	1	1	1	1	0	1	-0	274,338716	321,167406	0
15.01.2021	10:58:07	0	12,396355	4,553033	1,311	347,6412	0,3	88,95	0	1014,92	7	9	8,8	1	1	1	1	1	1	1	1	1	0	1	-0	274,408343	321,493582	0
15.01.2021	10:58:08	0	12,63026	3,073296	1,419	352,8684	0,303	88,938	0	1014,94	7	9	8,8	1	1	1	1	1	1	1	1	1	0	1	-0	274,341738	321,181558	0
15.01.2021	10:58:09	0	12,396379	3,528597	1,4685	0	0,302	88,939	0	1014,82	7	9	8,8	1	1	1	1	1	1	1	1	1	0	1	-0	274,364419	321,287783	0
15.01.2021	10:58:10	0	12,396391	4,894503	1,461	3,366	0,3	88,941	0	1014,8	7	9	8,8	1	1	1	1	1	1	1	1	1	0	1	-0	274,269338	320,84265	0
15.01.2021	10:58:11	0	12,396403	4,553024	1,43175	17,2116	0,3	88,963	0	1015,1	7	9	8,8	1	1	1	1	1	1	1	1	1	0	1	-0	274,231738	320,666744	0
15.01.2021	10:58:12	0	12,396415	3,983894	1,4025	357,6564	0,299	88,937	0	1014,78	7	9	8,8	1	1	1	1	1	1	1	1	1	0	1	-0	274,364419	321,287783	0
15.01.2021	10:58:13	0	12,27948	2,504161	1,68	5,22	0,304	88,953	0	1014,96	7	9	8,8	1	1	1	1	1	1	1	1	1	0	1	-0	274,240755	320,708923	0
15.01.2021	10:58:14	0	12,630334	2,959462	1,90875	349,8804	0,3	88,945	0	1014,82	7	9	8,8	1	1	1	1	1	1	1	1	1	0	1	-0	274,273855	320,863787	0
15.01.2021	10:58:15	0	12,513311	4,780666	2,00925	5,6664	0,303	88,949	0	1014,82	7	9,1	8,8	1	1	1	1	1	1	1	1	1	0	1	-0	274,255794	320,779276	0
15.01.2021	10:58:16	0	12,513411	4,553014	2,08425	8,6976	0,3	88,939	0	1014,8	7	9	8,8	1	1	1	1	1	1	1	1	1	0	1	-0	274,353831	321,238193	0
15.01.2021	10:58:17	0	12,162579	2,504156	2,13075	7,8696	0,3	88,942	0	1014,86	7	9	8,8	1	1	1	1	1	1	1	1	1	0	1	-0	274,27988	320,891978	0
15.01.2021	10:58:18	0	12,630383	2,731806	2,21625	5,6772	0,304	88,946	0	1014,68	7	9	8,8	1	1	1	1	1	1	1	1	1	0	1	-0	274,218219	320,603519	0
15.01.2021	10:58:19	0	12,513447	3,07328	2,20575	12,4524	0,297	88,946	0	1015	7	9	8,8	1	1	1	1	1	1	1	1	1	0	1	-0	274,302488	320,997792	0
15.01.2021	10:58:20	0	12,279563	4,325355	2,1525	14,3784	0,299	88,957	0	1014,86	7	9	8,8	1	1	1	1	1	1	1	1	1	0	1	-4,369274	274,402279	317,095888	0
15.01.2021	10:58:21	0	12,747368	3,983878	2,0325	6,0552	0,303	88,944	0	1014,92	7	9	8,8	1	1	1	1	1	1	1	1	1	0	1	-0	274,290427	320,941339	0
15.01.2021	10:58:22	0	12,513484	4,211526	2,001	1,9152	0,294	88,95	0	1014,9	7	9	8,8	1	1	1	1	1	1	1	1	1	0	1	-0	274,399247	321,450956	0
15.01.2021	10:58:23	0	12,630444	3,187099	1,97625	5,2236	0,294	88,943	0	1014,82	7	9	8,8	1	1	1	1	1	1	1	1	1	0	1	-0	274,302488	320,997792	0
15.01.2021	10:58:24	0	12,279611	4,325347	1,929	357,6168	0,296	88,956	0	1014,84	7	9	8,8	1	1	1	1	1	1	1	1	1	0	1	-0	274,394701	321,429653	0
15.01.2021	10:58:25	0	12,747418	3,187096	1,89375	3,3948	0,302	88,96	0	1014,9	7	9	8,8	1	1	1	1	1	1	1	1	1	0	1	-0	274,263317	320,814477	0
15.01.2021	10:58:26	0	12,396583	4,439167	1,88475	353,9376	0,304	88,953	0	1014,82	7	9	8,8	1	1	1	1	1	1	1	1	1	0	1	-0	274,276867	320,877881	0
15.01.2021	10:58:27	0	12,279646	3,300918	1,89525	3,7656	0,305	88,96	0	1014,9	7	9	8,8	1	1	1	1	1	1	1	1	1	0	1	-0	274,397732	321,443854	0
15.01.2021	10:58:28	0	12,747455	4,894462	1,8195	0,4824	0,3	88,947	0	1014,9	7	9	8,8	1	1	1	1	1	1	1	1	1	0	1	-0	274,31003	321,033096	0
15.01.2021	10:58:29	0	12,396619	4,552986	1,7625	10,0224	0,303	88,951	0	1014,88	7	9	8,8	1	1	1	1	1	1	1	1	1	0	1	-0	274,390156	321,408355	0
15.01.2021	10:58:30	0	12,045783	2,390316	1,73775	14,2956	0,302	88,963	0	1014,84	7	9	8,8	1	1	1	1	1	1	1	1	1	0	1	-0	274,313047	321,047223	0
15.01.2021	10:58:31	0	12,279608	3,073263	1,7565	11,1852	0,298	88,952	0	1015	7	9,1	8,8	1	1	1	1	1	1	1	1	1	0	1	-0	274,388641	321,401257	0
15.01.2021	10:58:32	0	12,279706	4,32533	1,767	11,7144	0,305	88,96	0	1014,96	7	9	8,8	1	1	1	1	1	1	1	1	1	0	1	-0	274,291934	320,948393	0
15.01.2021	10:58:33	0	12,396667	3,528557	1,7115	9,36	0,3	88,938	0	1014,76	7	9	8,8	1	1	1	1	1	1	1	1	1	0	1	-0	274,23324	320,673772	0
15.01.2021	10:58:34	0	12,27973	2,731785	1,62975	10,0512	0,295	88,951	0	1014,88	7	9	8,8	1	1	1	1	1	1	1	1	1	0	1	-0	274,263317	320,814477	0
15.01.2021	10:58:35	0	12,279741	3,300905	1,51875	350,3304	0,304	88,947	0	1014,82	7	9	8,8	1	1	1	1	1	1	1	1	1	0	1	-0	274,353831	321,238193	0
15.01.2021	10:58:36	0	12,630603	4,894444	1,46475	352,0332	0,299	88,958	0	1014,88	7	9	8,8	1	1	1	1	1	1	1	1	1	0	1	-0	274,341738	321,181558	0
15.01.2021	10:58:37	0	12,396715	3,414727	1,41675	356,9364	0,299	88,955	0	1014,86	7	9	8,8	1	1	1	1	1	1	1	1	1	0	1	-0	274,225728	320,638637	0
15.01.2021	10:58:38	0	12,513678	4,552967	1,36275	2,9952	0,293	88,938	0	1014,78	7	9	8,8	1	1	1	1	1	1	1	1	1	0	1	-0	274,258803	320,793354	0
15.01.2021	10:58:39	0	12,162839	4,211492	1,34025	357,9768	0,3	88,956	0	1014,88	7	9	8,8	1	1	1	1	1	1	1	1	1	0	1	-0,845666	274,375012	320,491741	0
15.01.2021	10:58:40	0	12,279801	3,414722	1,392	356,6016	0,296	88,955	0	1014,84	7	9	8,8	1	1	1	1	1	1	1	1	1	0	1	-0	274,365932	321,29487	0
15.01.2021	10:58:41	0	12,045911	3,073248	1,533	358,7256	0,305	88,949	0	1014,8	7	9	8,8	1	1	1	1	1	1	1	1	1	0	1	-0	274,362906	321,280697	0
15.01.2021	10:58:42	0	12,045923	2,731775	1,6905	339,4224	0,294	88,948	0	1014,88	7	9	8,8	1	1	1	1	1	1	1	1	1	0	1	-0	274,267833	320,835606	0
15.01.2021	10:58:43	0	12,630689	4,439132	1,9125	360	0,293	88,948	0	1014,8	7	9	8,8	1	1	1	1	1	1	1	1	1	0	1	-0	274,275361	320,870834	0
15.01.2021	10:58:44	0	12,162897	3,528539	2,04525	6,0444	0,3	88,943	0	1014,92	7	9	8,8	1	1	1	1	1	1	1	1	1	0	1	-0	274,231738	320,666744	0
15.01.2021	10:58:45	0	12,162909	3,073243	1,94925	5,2056	0,301	88,949	0	1014,84	7	9	8,8	1	1	1	1	1	1	1	1	1	0	1	-0	274,338716	321,167406	0
15.01.2021	10:58:46	0	12,04597	2,73177	1,81725	12,4488	0,297	88,951	0	1014,86	7	9	8,8	1	1	1	1	1	1	1	1	1	0	1	-0	274,231738	320,666744	0
15.01.2021	10:58:47	0	12,396835	3,870005	1,701	359,19	0,296	88,961	0	1014,94	7	9	8,8	1	1	1	1	1	1	1	1	1	0	1	-0	274,482789	321,842603	0
15.01.2021	10:58:48	0	12,162944	2,959415	1,683	3,0168	0,304	88,966	0	1014,86	7	9	8,8	1	1	1	1	1	1	1	1	1	0	1	-0	274,231738	320,666744	0
15.01.2021	10:58:49	0	12,513811	3,414708	1,64475	14,2992	0,297	88,947	0	1014,82	7	9	8,8	1	1	1	1	1	1	1	1	1	0	1	-2,043693	274,338716	319,123713	0
15.01.2021	10:58:50	0	12,162968	4,780588	1,668	4,824	0,295	88,945	0	1014,74	7	9	8,8	1	1	1	1	1	1	1	1	1	0	1	-0	274,352319	321,231111	0
15.01.2021	10:58:51	0	12,513835	5,463527	1,707	7,506	0,297	88,963	0	1014,8	7	9	8,8	1	1	1	1	1	1	1	1	1	0	1	-2,255109	274,390156	319,153246	0
15.01.2021	10:58:52	0	12,396895	4,552937	1,77225	8,6076	0,303	88,984	0	1014,92	7	9	8,8	1	1	1	1	1	1	1	1	1	0	1	-0	274,31003	321,033096	0
15.01.2021	10:58:53	0	12,046051	3,869995	1,986	3,762	0,302	88,972	0	1014,9	7	9	8,8	1	1	1	1	1	1	1	1	1	0	1	-0	274,394701	321,429653	0
15.01.2021	10:58:54	0	12,16293	4,780579	2,05125	8,604	0,303	88,957	0	1014,88	7	9,1	8,8	1	1	1	1	1	1	1	1	1	0	1	-0	274,297964	320,976617	0
15.01.2021	10:58:55	0	12,163027	3,642345	2,07225	8,2584	0,301	88,978	0	1014,92	7	9	8,8	1	1	1	1	1	1	1	1	1	0	1	-0	274,221223	320,617564	0
15.01.2021	10:58:56	0	12,279991	3,18705	1,9815	6,0516	0,305	88,971	0	1014,98	7	9	8,8	1	1	1	1	1	1	1	1	1	0	1	-0	274,27235	320,85674	0
15.01.2021	10:58:57	0	12,046098	4,66675	1,86675	358,3224	0,294	88,943	0	1014,96	7	9	8,8	1	1	1	1	1	1	1	1	1	0	1	-0	274,368958	321,309047	0
15.01.2021	10:58:58	0	12,396967	4,780571	1,84725	9,738	0,296	88,958	0	1014,88	7	9	8,8	1	1	1	1	1	1	1	1	1	0	1	-0	274,266328	320,828562	0
15.01.2021	10:58:59	0	12,280026	4,552922	1,84425	6,8004	0,293	88,965	0	1014,8	7	9	8,8	1	1	1	1	1	1	1	1	1	0	1	-0	274,394701	321,429653	0
15.01.2021	10:59:00	0	12,28005	3,983803	1,89075	357,6744	0,301	88,966	0	1014,9	7	9	8,8	1	1	1	1	1	1	1	1	1	0	1	-0	274,373498	321,330316	0
15.01.2021	10:59:01	0	12,28005	3,983803	1,89075	357,6744	0,301	88,966	0	1014,9	7	9	8,8	1	1	1	1	1	1	1	1	1	0	1	-0	274,349295	321,21695	0
15.01.2021	10:59:02	0	12,397015	4,894385	1,9125	360	0,321	88,96	0	1014,8	7	9	8,8	1	1	1	1	1	1	1	1	1	0	1	-0	274,358368	321,259442	0
15.01.2021	10:59:03	0	12,046167	3,528508	2,04675	360	0,3	88,97	0	1014,86	7	9	8,8	1	1	1	1	1	1	1	1	1	0	1	-0	274,216718	320,596497	0
15.01.2021	10:59:04	0	12,279999	3,642329	2,0835	20,6136	0,301	88,981	0	1014,82	7	9,1	8,8	1	1	1	1	1	1	1	1	1	0	1	-0	274,303996	321,004851	0
15.01.2021	10:59:05	0	12,163144	2,845568	2,06625	12,8376	0,301	88,951	0	1014,88	7	9	8,8	1	1	1	1	1	1	1	1	1	0	1	-0	274,225728	320,638637	0
15.01.2021	10:59:06	0	12,514016	4,780553	2,07375	9,4428	0,299	88,964	0	1014,84	7	9	8,8	1	1	1	1	1	1	1	1	1	0	1	-0	274,347783	321,20987	0
15.01.2021	10:59:07	0	12,163167	3,414679	2,02725	21,78	0,299	88,96	0	1014,86	7	9	8,8	1	1	1	1	1	1	1	1	1	0	1	-0	274,35988	321,266526	0
15.01.2021	10:59:08	0	12,397086	3,869968	1,983	31,7664	0,303	88,964	0	1014,94	7	9	8,8	1	1	1	1	1	1	1	1	1	0	1	-0	274,396216	321,436753	0
15.01.2021	10:59:09	0	12,514052	4,552901	1,91325	26,5464	0,303	88,966	0	1014,64	7	9	8,8	1	1	1	1	1	1	1	1	1	0	1	-0	274,216718	320,596497	0
15.01.2021	10:59:10	0	12,280156	3,756142	1,986	28,3536	0,298	88,959	0	1014,9	7	9	8,8	1	1	1	1	1	1	1	1	1	0	1	-0	274,240755	320,708923	0
15.01.2021	10:59:11	0	12,63103	3,30085	2,0145	16,0884	0,292	88,972	0	1014,74	7	9	8,8	1	1	1	1	1	1	1	1	1	0	1	-0	274,27988	320,891978	0
15.01.2021	10:59:12	0	12,28018	2,959382	2,067	27,6516	0,304	88,961	0	1014,9	7	9	8,8	1	1	1	1	1	1	1	1	1	0	1	-0	274,391671	321,415454	0
15.01.2021	10:59:13	0	12,397146	3,983781	1,9155	23,5836	0,304	88,963	0	1014,9	7	9	8,8	1	1	1	1	1	1	1	1	1	0	1	-0	274,316065	321,061352	0
15.01.2021	10:59:14	0	12,046295	4,55289	1,812	28,3572	0,297	88,961	0	1014,9	7	9	8,8	1	1	1	1	1	1	1	1	1	0	1	-0	274,373498	321,330316	0
15.01.2021	10:59:15	0	12,39717	3,869955	1,896	21,0204	0,307	88,962	0	1014,92	7	9	8,8	1	1	1	1	1	1	1	1	1	0	1	-0	274,367445	321,301958	0
15.01.2021	10:59:16	0	12,280227	2,61791	1,98075	35,4852	0,297	88,965	0	1014,8	7	9	8,8	1	1	1	1	1	1	1	1	1	0	1	-0	274,375012	321,337407	0
15.01.2021	10:59:17	0	12,514148	4,097596	1,97775	21,7512	0,3	88,964	0	1015,08	7	9	8,8	1	1	1	1	1	1	1	1	1	0	1	-0	274,270844	320,849695	0
15.01.2021	10:59:18	0	12,163296	2,845551	2,02125	21,384	0,3	88,963	0	1014,88	7	9	8,8	1	1	1	1	1	1	1	1	1	0	1	-0	274,387126	321,39416	0
15.01.2021	10:59:19	0	12,397218	2,731728	1,99425	12,0888	0,303	88,96	0	1014,82	7	9	8,8	1	1	1	1	1	1	1	1	1	0	1	-0	274,269338	320,84265	0
15.01.2021	10:59:20	0	12,397229	4,09759	2,00175	13,1652	0,296	88,962	0	1014,92	7	9	8,8	1	1	1	1	1	1	1	1	1	0	1	-1,127555	274,222724	319,497033	0
15.01.2021	10:59:21	0	12,280286	3,756122	2,07675	11,7216	0,299	88,956	0	1014,74	7	9	8,8	1	1	1	1	1	1	1	1	1	0	1	-0	274,210713	320,568417	0
15.01.2021	10:59:22	0	12,163343	3,642299	2,1525	2,2968	0,304	88,96	0	1015,06	7	9	8,8	1	1	1	1	1	1	1	1	1	0	1	-0	274,282893	320,906078	0
15.01.2021	10:59:23	0	12,397265	4,097584	2,1645	3,78	0,296	88,952	0	1014,8	7	9	8,8	1	1	1	1	1	1	1	1	1	0	1	-0	274,212214	320,575436	0
15.01.2021	10:59:24	0	12,631188	4,211404	2,10225	1,5552	0,303	88,943	0	1014,96	7	9	8,8	1	1	1	1	1	1	1	1	1	0	1	-0	274,35988	321,266526	0
15.01.2021	10:59:25	0	12,397289	4,439046	2,0775	2,6496	0,302	88,952	0	1014,86	7	9	8,8	1	1	1	1	1	1	1	1	1	0	1	-0	274,347783	321,20987	0
15.01.2021	10:59:26	0	12,280259	2,959362	2,031	3,0204	0,298	88,936	0	1014,96	7	9,1	8,8	1	1	1	1	1	1	1	1	1	0	1	-0	274,213715	320,582456	0
15.01.2021	10:59:27	0	12,74818	2,959361	2,037	5,67	0,299	88,959	0	1014,92	7	9	8,8	1	1	1	1	1	1	1	1	1	0	1	-0	274,350807	321,22403	0
15.01.2021	10:59:28	0	12,397325	2,845538	2,01375	9,4608	0,3	88,953	0	1014,94	7	9	8,8	1	1	1	1	1	1	1	1	1	0	1	-1,198027	274,382582	320,174846	0
15.01.2021	10:59:29	0	12,163425	2,731715	1,92975	10,4328	0,301	88,934	0	1014,86	7	9	8,8	1	1	1	1	1	1	1	1	1	0	1	-0	274,236246	320,687831	0
15.01.2021	10:59:30	0	12,163436	2,617893	1,878	13,1508	0,302	88,949	0	1014,92	7	9	8,8	1	1	1	1	1	1	1	1	1	0	1	-0	274,320593	321,082551	0
15.01.2021	10:59:31	0	12,39736	2,959355	1,9635	3,3948	0,3	88,954	0	1014,92	7	9	8,8	1	1	1	1	1	1	1	1	1	0	1	-0	274,384097	321,379968	0
15.01.2021	10:59:32	0	12,280416	3,983746	1,94625	6,4116	0,298	88,936	0	1014,76	7	9	8,8	1	1	1	1	1	1	1	1	1	0	1	-0,070472	274,358368	321,18897	0
15.01.2021	10:59:33	0	12,280428	3,756102	1,80075	6,0588	0,299	88,96	0	1014,96	7	9	8,8	1	1	1	1	1	1	1	1	1	0	1	-0	274,216718	320,596497	0
15.01.2021	10:59:34	0	12,748177	3,642279	1,782	349,38	0,297	88,954	0	1014,86	7	9,1	8,8	1	1	1	1	1	1	1	1	1	0	1	-0	274,249777	320,751127	0
15.01.2021	10:59:35	0	12,280537	2,95935	1,78875	6,0696	0,298	88,944	0	1014,82	7	8,9	8,8	1	1	1	1	1	1	1	1	1	0	1	-0	274,331163	321,132038	0
15.01.2021	10:59:36	0	12,514464	4,211381	1,7355	6,84	0,303	88,951	0	1014,86	7	8,9	8,8	1	1	1	1	1	1	1	1	1	0	1	-0	274,381068	321,365778	0
15.01.2021	10:59:37	0	12,631346	4,780484	1,7025	358,4988	0,294	88,949	0	1014,86	7	9	8,8	1	1	1	1	1	1	1	1	1	0	1	-0	274,329652	321,124966	0
15.01.2021	10:59:38	0	12,397357	3,528451	1,68375	0,5004	0,302	88,964	0	1014,84	7	9,1	8,8	1	1	1	1	1	1	1	1	1	0	1	-0	274,213715	320,582456	0
15.01.2021	10:59:39	0	12,397456	4,552838	1,73475	8,6148	0,297	88,955	0	1014,84	7	9	8,8	1	1	1	1	1	1	1	1	1	0	1	-0	274,284399	320,913129	0
15.01.2021	10:59:40	0	12,397381	3,414627	1,70925	353,61	0,294	88,937	0	1014,7	7	9,1	8,8	1	1	1	1	1	1	1	1	1	0	1	-0	274,219721	320,610541	0
15.01.2021	10:59:41	0	12,631306	4,211371	1,67025	0,8748	0,304	88,964	0	1014,96	7	9,1	8,8	1	1	1	1	1	1	1	1	1	0	1	-0	274,155259	320,309178	0
15.01.2021	10:59:42	0	12,397404	3,756086	1,704	360	0,299	88,95	0	1014,86	7	9,1	8,8	1	1	1	1	1	1	1	1	1	0	1	-0	274,206211	320,547364	0
15.01.2021	10:59:43	0	12,631418	4,552829	1,7445	355,0284	0,294	88,945	0	1014,72	7	9	8,8	1	1	1	1	1	1	1	1	1	0	1	-0	274,227231	320,645663	0
15.01.2021	10:59:44	0	12,63143	3,528441	1,91025	355,4424	0,297	88,952	0	1014,9	7	9	8,8	1	1	1	1	1	1	1	1	1	0	1	-0	274,264822	320,821519	0
15.01.2021	10:59:45	0	12,280483	3,073157	2,00625	353,232	0,298	88,948	0	1014,9	7	9,1	8,8	1	1	1	1	1	1	1	1	1	0	1	-0	274,255794	320,779276	0
15.01.2021	10:59:46	0	12,748413	3,528438	2,049	360	0,299	88,941	0	1014,92	7	9	8,8	1	1	1	1	1	1	1	1	1	0	1	-0,704722	274,257298	320,081593	0
15.01.2021	10:59:47	0	12,748425	3,073154	2,1045	351,3888	0,299	88,954	0	1014,72	7	9	8,8	1	1	1	1	1	1	1	1	1	0	1	-0	274,355343	321,245275	0
15.01.2021	10:59:48	0	12,631479	3,414614	2,2185	352,1808	0,289	88,943	0	1014,8	7	9	8,8	1	1	1	1	1	1	1	1	1	0	1	-0	274,266328	320,828562	0
15.01.2021	10:59:49	0	12,280616	4,211355	2,38575	3,3948	0,3	89,009	0	1014,9	7	9	8,8	1	1	1	1	1	1	1	1	1	0	1	-0	274,390156	321,408355	0
15.01.2021	10:59:50	0	12,514545	4,211353	2,40675	0	0,29	88,941	0	1014,72	7	9	8,8	1	1	1	1	1	1	1	1	1	0	1	-0	274,237749	320,694861	0
15.01.2021	10:59:51	0	12,514469	4,325172	2,27475	353,2068	0,299	88,96	0	1014,92	7	9,1	8,8	1	1	1	1	1	1	1	1	1	0	1	-0	274,224226	320,631612	0
15.01.2021	10:59:52	0	12,865444	3,414608	2,43525	8,9892	0,3	88,943	0	1015,06	7	9	8,8	1	1	1	1	1	1	1	1	1	0	1	-0	274,251281	320,758163	0
15.01.2021	10:59:53	0	12,631539	4,438988	2,4585	355,0356	0,301	88,962	0	1014,88	7	9	8,8	1	1	1	1	1	1	1	1	1	0	1	-0	274,362906	321,280697	0
15.01.2021	10:59:54	0	12,74851	3,186964	2,5095	5,1984	0,299	88,961	0	1014,9	7	9	8,8	1	1	1	1	1	1	1	1	1	0	1	-0	274,246769	320,737056	0
15.01.2021	10:59:55	0	12,631563	4,552804	2,66925	1,1808	0,297	88,958	0	1014,76	7	9	8,8	1	1	1	1	1	1	1	1	1	0	1	-0	274,234743	320,680801	0
15.01.2021	10:59:56	0	12,748535	4,211342	2,862	360	0,301	88,962	0	1014,78	7	9	8,8	1	1	1	1	1	1	1	1	1	0	1	-0	274,399247	321,450956	0
15.01.2021	10:59:57	0	12,631588	4,09752	2,83275	351,4248	0,314	88,969	0	1015,02	7	9	8,8	1	1	1	1	1	1	1	1	1	0	1	-0	274,328142	321,117895	0
15.01.2021	10:59:58	0	12,748559	3,528418	2,649	353,6136	0,299	88,951	0	1014,94	7	9	8,8	1	1	1	1	1	1	1	1	1	0	1	-0,140944	274,353831	321,097248	0
15.01.2021	10:59:59	0	12,631612	3,073137	2,505	0	0,297	88,959	0	1014,8	7	9	8,8	1	1	1	1	1	1	1	1	1	0	1	-0	274,322103	321,089618	0
15.01.2021	11:00:00	0	12,514676	3,414594	2,25675	6,1416	0,296	88,948	0	1014,82	7	9	8,8	1	1	1	1	1	1	1	1	1	0	1	-1,198027	274,346272	320,004764	0
15.01.2021	11:00:01	0	12,514676	3,414594	2,25675	6,1416	0,296	88,948	0	1014,82	7	9	8,8	1	1	1	1	1	1	1	1	1	0	1	-0	274,362906	321,280697	0
15.01.2021	11:00:02	0	12,748608	3,756051	2,06625	20,2788	0,293	88,961	0	1014,9	7	9	8,8	1	1	1	1	1	1	1	1	1	0	1	-0	274,230235	320,659716	0
15.01.2021	11:00:03	0	12,39774	4,211328	1,83225	29,5596	0,298	88,953	0	1014,92	7	9	8,8	1	1	1	1	1	1	1	1	1	0	1	-0	274,331163	321,132038	0
15.01.2021	11:00:04	0	12,748543	4,325146	1,70475	35,8524	0,29	88,948	0	1014,86	7	9,1	8,8	1	1	1	1	1	1	1	1	1	0	1	-0	274,210713	320,568417	0
15.01.2021	11:00:05	0	12,982564	4,552783	1,61025	26,2476	0,296	88,95	0	1014,86	7	9	8,8	1	1	1	1	1	1	1	1	1	0	1	-0	274,319084	321,075484	0
15.01.2021	11:00:06	0	12,631696	4,097503	1,59225	34,3152	0,291	88,96	0	1015	7	9	8,8	1	1	1	1	1	1	1	1	1	0	1	-0	274,358368	321,259442	0
15.01.2021	11:00:07	0	12,514748	4,552779	1,65675	29,556	0,297	88,972	0	1014,96	7	9	8,8	1	1	1	1	1	1	1	1	1	0	1	-0	274,393186	321,422553	0
15.01.2021	11:00:08	0	12,748681	3,073124	1,68675	23,1948	0,297	88,969	0	1015	7	9	8,8	1	1	1	1	1	1	1	1	1	0	1	-0	274,323613	321,096687	0
15.01.2021	11:00:09	0	13,099483	4,780413	1,74225	38,0484	0,297	88,961	0	1014,86	7	9,1	8,8	1	1	1	1	1	1	1	1	1	0	1	-0	274,391671	321,415454	0
15.01.2021	11:00:10	0	12,631744	3,073122	1,8315	16,47	0,29	88,955	0	1014,92	7	9	8,8	1	1	1	1	1	1	1	1	1	0	1	-0	274,338716	321,167406	0
15.01.2021	11:00:11	0	12,982639	4,894228	2,11275	21,7584	0,295	88,947	0	1014,82	7	9	8,8	1	1	1	1	1	1	1	1	1	0	1	-0	274,365932	321,29487	0
15.01.2021	11:00:12	0	12,86569	3,756034	2,26125	18,4464	0,298	88,956	0	1015,02	7	9	8,8	1	1	1	1	1	1	1	1	1	0	1	-0	274,236246	320,687831	0
15.01.2021	11:00:13	0	12,982663	5,3495	2,1825	342,7344	0,292	88,938	0	1014,92	7	9	8,8	1	1	1	1	1	1	1	1	1	0	1	-0	274,278374	320,884929	0
15.01.2021	11:00:14	0	12,514832	2,617839	2,1945	11,7144	0,296	88,943	0	1014,94	7	9	8,8	1	1	1	1	1	1	1	1	1	0	1	-0	274,379554	321,358684	0
15.01.2021	11:00:15	0	13,099649	4,894219	2,15775	359,1144	0,294	88,944	0	1014,9	7	9	8,8	1	1	1	1	1	1	1	1	1	0	1	-0	274,337205	321,160331	0
15.01.2021	11:00:16	0	12,514855	3,41457	2,2845	4,8204	0,294	88,913	0	1014,94	7	9	8,8	1	1	1	1	1	1	1	1	1	0	1	-0	274,390156	321,408355	0
15.01.2021	11:00:17	0	13,099674	4,211301	2,361	353,2104	0,293	88,925	0	1014,9	7	9	8,8	1	1	1	1	1	1	1	1	1	0	1	-0	274,227231	320,645663	0
15.01.2021	11:00:18	0	12,631841	5,008031	2,481	6,408	0,294	88,926	0	1014,8	7	9	8,8	1	1	1	1	1	1	1	1	1	0	1	-0	274,303996	321,004851	0
15.01.2021	11:00:19	0	12,631853	2,617833	2,5965	1,9188	0,294	88,919	0	1014,94	7	9	8,8	1	1	1	1	1	1	1	1	1	0	1	-0	274,362906	321,280697	0
15.01.2021	11:00:20	0	12,748827	3,983658	2,79675	5,6808	0,293	88,931	0	1014,68	7	9	8,8	1	1	1	1	1	1	1	1	1	0	1	-0	274,350807	321,22403	0
15.01.2021	11:00:21	0	12,748839	2,617831	3,033	6,0624	0,295	88,919	0	1014,94	7	9	8,8	1	1	1	1	1	1	1	1	1	0	1	-0	274,368958	321,309047	0
15.01.2021	11:00:22	0	12,748851	2,845467	2,99025	7,8804	0,297	88,913	0	1014,8	7	9	8,8	1	1	1	1	1	1	1	1	1	0	1	-1,973221	274,385611	319,413843	0
15.01.2021	11:00:23	0	12,982787	4,097471	2,9565	8,982	0,295	88,927	0	1014,88	7	9	8,8	1	1	1	1	1	1	1	1	1	0	1	-0	274,320593	321,082551	0
15.01.2021	11:00:24	0	12,748875	4,211288	2,82525	12,0888	0,298	88,921	0	1015	7	9	8,8	1	1	1	1	1	1	1	1	1	0	1	-0	274,355343	321,245275	0
15.01.2021	11:00:25	0	12,748887	2,617826	2,61225	16,4844	0,295	88,921	0	1014,96	7	9	8,8	1	1	1	1	1	1	1	1	1	0	1	-0	274,20171	320,526317	0
15.01.2021	11:00:26	0	12,748899	3,869828	2,51475	5,2128	0,295	88,922	0	1014,88	7	9	8,8	1	1	1	1	1	1	1	1	1	0	1	-0	274,297964	320,976617	0
15.01.2021	11:00:27	0	12,749001	4,211282	2,65275	7,506	0,291	88,931	0	1014,86	7	8,9	8,8	1	1	1	1	1	1	1	1	1	0	1	-0	274,376526	321,344499	0
15.01.2021	11:00:28	0	12,748924	3,983643	2,748	8,2512	0,294	88,926	0	1014,96	7	9	8,8	1	1	1	1	1	1	1	1	1	0	1	-0	274,356855	321,252358	0
15.01.2021	11:00:29	0	12,865899	3,073095	2,928	15,786	0,3	88,934	0	1014,88	7	9	8,8	1	1	1	1	1	1	1	1	1	0	1	-0	274,326632	321,110825	0
15.01.2021	11:00:30	0	12,748948	4,438912	3,0525	8,604	0,296	88,921	0	1014,9	7	9	8,8	1	1	1	1	1	1	1	1	1	0	1	-0	274,376526	321,344499	0
15.01.2021	11:00:31	0	13,216812	4,43891	3,1545	6,822	0,293	88,915	0	1014,84	7	9	8,8	1	1	1	1	1	1	1	1	1	0	1	-0	274,341738	321,181558	0
15.01.2021	11:00:32	0	12,982898	3,869818	3,2655	11,7108	0,298	88,932	0	1014,96	7	9	8,8	1	1	1	1	1	1	1	1	1	0	1	-0	274,230235	320,659716	0
15.01.2021	11:00:33	0	12,865948	3,414543	3,26625	11,7144	0,295	88,938	0	1014,8	7	9	8,8	1	1	1	1	1	1	1	1	1	0	1	-0	274,209212	320,561399	0
15.01.2021	11:00:34	0	12,982923	4,552722	3,23625	13,5432	0,289	88,94	0	1014,86	7	9	8,8	1	1	1	1	1	1	1	1	1	0	1	-0	274,27235	320,85674	0
15.01.2021	11:00:35	0	12,865972	5,007992	3,1875	12,4596	0,294	88,94	0	1014,88	7	9	8,8	1	1	1	1	1	1	1	1	1	0	1	-0	274,390156	321,408355	0
15.01.2021	11:00:36	0	13,333745	4,780354	3,13875	10,8144	0,295	88,945	0	1014,94	7	9,1	8,8	1	1	1	1	1	1	1	1	1	0	1	-0	274,290427	320,941339	0
15.01.2021	11:00:37	0	12,98296	3,755991	3,08025	10,8144	0,296	88,955	0	1014,96	7	9	8,8	1	1	1	1	1	1	1	1	1	0	1	-0	274,20021	320,519303	0
15.01.2021	11:00:38	0	12,866009	3,1869	3,0675	12,4776	0,294	88,941	0	1014,98	7	9	8,8	1	1	1	1	1	1	1	1	1	0	1	-2,60747	274,294949	318,355034	0
15.01.2021	11:00:39	0	12,982985	4,211259	2,95725	16,8552	0,295	88,95	0	1015	7	9	8,8	1	1	1	1	1	1	1	1	1	0	1	-0	274,221223	320,617564	0
15.01.2021	11:00:40	0	13,216925	3,755986	2,919	19,5156	0,296	88,958	0	1014,94	7	9	8,8	1	1	1	1	1	1	1	1	1	0	1	-0	274,252785	320,7652	0
15.01.2021	11:00:41	0	13,216938	3,869802	2,7975	18,4356	0,294	88,953	0	1015,04	7	9	8,8	1	1	1	1	1	1	1	1	1	0	1	-1,268499	274,352319	319,962612	0
15.01.2021	11:00:42	0	13,099986	5,007976	2,751	26,8992	0,295	88,95	0	1014,82	7	9	8,8	1	1	1	1	1	1	1	1	1	0	1	-0	274,393186	321,422553	0
15.01.2021	11:00:43	0	12,982943	4,552704	2,5665	12,8412	0,299	88,954	0	1014,84	7	9,1	8,8	1	1	1	1	1	1	1	1	1	0	1	-0	274,291934	320,948393	0
15.01.2021	11:00:44	0	12,983137	4,438884	2,51175	15,786	0,294	88,956	0	1014,94	7	8,9	8,8	1	1	1	1	1	1	1	1	1	0	1	-0	274,228733	320,652689	0
15.01.2021	11:00:45	0	13,100023	3,64216	2,55975	20,6316	0,293	88,93	0	1014,98	7	9	8,8	1	1	1	1	1	1	1	1	1	0	1	-0	274,325122	321,103756	0
15.01.2021	11:00:46	0	12,983071	3,414523	2,5935	19,1376	0,29	88,948	0	1014,88	7	9	8,8	1	1	1	1	1	1	1	1	1	0	1	-0	274,234743	320,680801	0
15.01.2021	11:00:47	0	12,866119	2,731617	2,63625	18,4572	0,296	88,955	0	1014,84	7	9	8,8	1	1	1	1	1	1	1	1	1	0	1	-0	274,379554	321,358684	0
15.01.2021	11:00:48	0	13,100061	3,41452	2,6835	19,134	0,293	88,955	0	1014,74	7	9	8,8	1	1	1	1	1	1	1	1	1	0	1	-0	274,317575	321,068418	0
15.01.2021	11:00:49	0	13,100073	3,75597	2,6475	19,2384	0,288	88,941	0	1014,82	7	9	8,8	1	1	1	1	1	1	1	1	1	0	1	-0	274,368958	321,309047	0
15.01.2021	11:00:50	0	13,100085	5,007958	2,71425	14,0256	0,293	88,935	0	1014,92	7	9	8,8	1	1	1	1	1	1	1	1	1	0	1	-0,211416	274,329652	320,91355	0
15.01.2021	11:00:51	0	12,983042	3,983601	2,85375	15,7896	0,292	88,92	0	1014,9	7	9,1	8,8	1	1	1	1	1	1	1	1	1	0	1	-3,664553	274,367445	317,637406	0
15.01.2021	11:00:52	0	13,10011	2,959245	2,87475	19,5336	0,289	88,923	0	1014,8	7	9	8,8	1	1	1	1	1	1	1	1	1	0	1	-0	274,261812	320,807436	0
15.01.2021	11:00:53	0	12,983248	3,755963	2,8545	18,8316	0,293	88,934	0	1014,88	7	8,9	8,8	1	1	1	1	1	1	1	1	1	0	1	-0	274,216718	320,596497	0
15.01.2021	11:00:54	0	13,334159	4,438864	2,826	18,0756	0,291	88,927	0	1014,82	7	8,9	8,8	1	1	1	1	1	1	1	1	1	0	1	-1,268499	274,34476	319,927214	0
15.01.2021	11:00:55	0	12,866216	2,731607	2,82075	20,6316	0,292	88,925	0	1014,96	7	9	8,8	1	1	1	1	1	1	1	1	1	0	1	-0	274,349295	321,21695	0
15.01.2021	11:00:56	0	12,749174	2,503972	2,94675	15,1704	0,296	88,933	0	1014,76	7	9,1	8,8	1	1	1	1	1	1	1	1	1	0	1	-0	274,216718	320,596497	0
15.01.2021	11:00:57	0	13,568131	4,552674	2,979	9,7524	0,289	88,918	0	1014,74	7	8,9	8,8	1	1	1	1	1	1	1	1	1	0	1	-0	274,258803	320,793354	0
15.01.2021	11:00:58	0	13,217243	3,300687	2,994	8,6148	0,285	88,924	0	1014,88	7	8,9	8,8	1	1	1	1	1	1	1	1	1	0	1	-0,98661	274,246769	319,750446	0
15.01.2021	11:00:59	0	13,334129	3,073052	3,03225	11,1996	0,29	88,909	0	1014,94	7	9	8,8	1	1	1	1	1	1	1	1	1	0	1	-0	274,362906	321,280697	0
15.01.2021	11:01:00	0	13,100222	2,7316	2,9565	20,2752	0,292	88,904	0	1014,9	7	9	8,8	1	1	1	1	1	1	1	1	1	0	1	-0	274,379554	321,358684	0
15.01.2021	11:01:01	0	13,100222	2,7316	2,9565	20,2752	0,292	88,904	0	1014,9	7	9	8,8	1	1	1	1	1	1	1	1	1	0	1	-0	274,379554	321,358684	0
15.01.2021	11:01:02	0	13,334167	4,552664	2,9595	16,1028	0,295	88,89	0	1014,96	7	9	8,8	1	1	1	1	1	1	1	1	1	0	1	-1,479915	274,269338	319,362735	0
15.01.2021	11:01:03	0	13,334086	2,95923	2,91975	11,7072	0,295	88,894	0	1014,98	7	9,1	8,8	1	1	1	1	1	1	1	1	1	0	1	-3,523608	274,215217	317,065868	0
15.01.2021	11:01:04	0	13,334192	2,959229	2,83875	21,0096	0,284	88,868	0	1014,9	7	9	8,8	1	1	1	1	1	1	1	1	1	0	1	-0	274,231738	320,666744	0
15.01.2021	11:01:05	0	13,685105	3,18686	2,78325	22,8276	0,286	88,851	0	1014,88	7	9	8,8	1	1	1	1	1	1	1	1	1	0	1	-0	274,299472	320,983675	0
15.01.2021	11:01:06	0	13,334218	4,666472	2,61525	17,7012	0,296	88,867	0	1014,84	7	9	8,8	1	1	1	1	1	1	1	1	1	0	1	-0	274,370471	321,316136	0
15.01.2021	11:01:07	0	13,685227	5,121735	2,55075	14,3028	0,295	88,871	0	1014,94	7	8,9	8,8	1	1	1	1	1	1	1	1	1	0	1	-4,721635	274,341738	316,459923	0
15.01.2021	11:01:08	0	13,100401	2,959224	2,574	360	0,291	88,876	0	1014,88	7	8,9	8,8	1	1	1	1	1	1	1	1	1	0	1	-0	274,678625	322,762088	0
15.01.2021	11:01:09	0	12,983263	3,073038	2,59275	359,496	0,286	88,848	0	1014,8	7	9,1	8,8	1	1	1	1	1	1	1	1	1	0	1	-0	274,228733	320,652689	0
15.01.2021	11:01:10	0	13,100334	3,186853	2,5305	357,2208	0,291	88,856	0	1014,94	7	9	8,8	1	1	1	1	1	1	1	1	1	0	1	-0	274,317575	321,068418	0
15.01.2021	11:01:11	0	12,983379	2,845403	2,50875	348,0012	0,293	88,873	0	1014,88	7	9	8,8	1	1	1	1	1	1	1	1	1	0	1	-0,070472	274,393186	321,352081	0
15.01.2021	11:01:12	0	13,217418	4,666459	2,42325	351,0576	0,29	88,867	0	1014,82	7	8,9	8,8	1	1	1	1	1	1	1	1	1	0	1	-0	274,219721	320,610541	0
15.01.2021	11:01:13	0	13,80208	2,845401	2,3475	10,0404	0,288	88,845	0	1014,96	7	9,1	8,8	1	1	1	1	1	1	1	1	1	0	1	-0,493305	274,356855	320,759053	0
15.01.2021	11:01:14	0	13,334412	3,073031	2,409	1,9008	0,288	88,855	0	1014,82	7	8,9	8,8	1	1	1	1	1	1	1	1	1	0	1	-0	274,192711	320,484241	0
15.01.2021	11:01:15	0	13,568267	3,414478	2,53425	3,762	0,284	88,866	0	1014,84	7	9	8,8	1	1	1	1	1	1	1	1	1	0	1	-0	274,240755	320,708923	0
15.01.2021	11:01:16	0	13,334344	2,845397	2,58675	10,4544	0,289	88,858	0	1014,74	7	9	8,8	1	1	1	1	1	1	1	1	1	0	1	-0	274,245266	320,730022	0
15.01.2021	11:01:17	0	13,334263	2,390132	2,6775	8,2584	0,286	88,847	0	1014,86	7	9,1	8,8	1	1	1	1	1	1	1	1	1	0	1	-0	274,391671	321,415454	0
15.01.2021	11:01:18	0	13,334369	3,75592	2,59425	14,6556	0,285	88,842	0	1014,84	7	9	8,8	1	1	1	1	1	1	1	1	1	0	1	-0	274,264822	320,821519	0
15.01.2021	11:01:19	0	13,568318	3,869734	2,5335	13,1652	0,288	88,853	0	1014,9	7	9	8,8	1	1	1	1	1	1	1	1	1	0	1	-0	274,362906	321,280697	0
15.01.2021	11:01:20	0	13,568331	4,666442	2,44425	12,4776	0,288	88,869	0	1014,94	7	9	8,8	1	1	1	1	1	1	1	1	1	0	1	-0	274,387126	321,39416	0
15.01.2021	11:01:21	0	13,3345	2,959206	2,54175	17,6976	0,283	88,849	0	1014,9	7	8,9	8,8	1	1	1	1	1	1	1	1	1	0	1	-0	274,258803	320,793354	0
15.01.2021	11:01:22	0	13,451482	3,07302	2,75775	10,8828	0,286	88,869	0	1014,84	6,9	8,9	8,8	1	1	1	1	1	1	1	1	1	0	1	-0	274,215217	320,589476	0
15.01.2021	11:01:23	0	13,802403	4,211174	3,0075	4,4784	0,289	88,87	0	1014,86	7	8,9	8,8	1	1	1	1	1	1	1	1	1	0	1	-0	274,323613	321,096687	0
15.01.2021	11:01:24	0	13,334444	2,276309	2,74125	359,8488	0,287	88,845	0	1014,92	7	9	8,8	1	1	1	1	1	1	1	1	1	0	1	-0	274,221223	320,617564	0
15.01.2021	11:01:25	0	13,451426	2,617754	2,46375	4,8348	0,289	88,867	0	1014,8	7	9	8,8	1	1	1	1	1	1	1	1	1	0	1	-0	274,382582	321,372873	0
15.01.2021	11:01:26	0	13,451439	4,552614	2,21325	17,334	0,28	88,851	0	1014,9	7	9	8,8	1	1	1	1	1	1	1	1	1	0	1	-0	274,293441	320,955448	0
15.01.2021	11:01:27	0	14,153167	5,007873	2,1345	352,7028	0,281	88,85	0	1014,88	7	9,1	8,8	1	1	1	1	1	1	1	1	1	0	1	-0	274,212214	320,575436	0
15.01.2021	11:01:28	0	13,919439	3,300642	2,26575	6,4332	0,279	88,858	0	1014,86	7	8,9	8,8	1	1	1	1	1	1	1	1	1	0	1	-0	274,251281	320,758163	0
15.01.2021	11:01:29	0	13,568446	5,121684	2,37675	5,2056	0,285	88,865	0	1014,82	7	9	8,8	1	1	1	1	1	1	1	1	1	0	1	-0	274,267833	320,835606	0
15.01.2021	11:01:30	0	13,91927	4,552606	2,6325	2,6244	0,28	88,862	0	1014,82	7	9,1	8,8	1	1	1	1	1	1	1	1	1	0	1	-0	274,20321	320,533332	0
15.01.2021	11:01:31	0	13,91938	3,186823	2,75925	8,9928	0,28	88,867	0	1014,88	7	9	8,8	1	1	1	1	1	1	1	1	1	0	1	-0	274,326632	321,110825	0
15.01.2021	11:01:32	0	14,036363	3,983527	2,68425	1,9188	0,284	88,875	0	1014,9	6,9	9	8,8	1	1	1	1	1	1	1	1	1	0	1	-0	274,281386	320,899028	0
15.01.2021	11:01:33	0	13,802437	3,86971	2,57775	356,5296	0,285	88,879	0	1014,88	7	9	8,8	1	1	1	1	1	1	1	1	1	0	1	-0	274,204711	320,540348	0
15.01.2021	11:01:34	0	13,91942	2,731559	2,43975	359,8092	0,282	88,883	0	1014,98	6,9	9	8,8	1	1	1	1	1	1	1	1	1	0	1	-0	274,285906	320,920181	0
15.01.2021	11:01:35	0	13,91953	4,552596	2,30625	4,8456	0,284	88,889	0	1015,04	6,9	8,9	8,8	1	1	1	1	1	1	1	1	1	0	1	-0	274,371985	321,323225	0
15.01.2021	11:01:36	0	14,153287	3,52826	2,25075	6,4152	0,273	88,857	0	1014,74	7	9,1	8,8	1	1	1	1	1	1	1	1	1	0	1	-0	274,331163	321,132038	0
15.01.2021	11:01:37	0	13,919459	3,983518	2,3325	6,1452	0,282	88,863	0	1014,84	7	9	8,8	1	1	1	1	1	1	1	1	1	0	1	-0	274,27235	320,85674	0
15.01.2021	11:01:38	0	14,036541	5,121663	2,38275	15,0192	0,285	88,871	0	1014,72	7	8,9	8,8	1	1	1	1	1	1	1	1	1	0	1	-0	274,391671	321,415454	0
15.01.2021	11:01:39	0	14,270397	3,186811	2,5005	15,7752	0,279	88,867	0	1014,82	7	9	8,8	1	1	1	1	1	1	1	1	1	0	1	-0	274,278374	320,884929	0
15.01.2021	11:01:40	0	13,919596	4,211141	2,49825	16,0992	0,282	88,868	0	1014,94	7	8,9	8,8	1	1	1	1	1	1	1	1	1	0	1	-0	274,329652	321,124966	0
15.01.2021	11:01:41	0	14,621233	4,780212	2,3835	14,2956	0,284	88,892	0	1014,92	7	9,1	8,8	1	1	1	1	1	1	1	1	1	0	1	-0	274,358368	321,259442	0
15.01.2021	11:01:42	0	14,387408	4,666396	2,481	5,67	0,284	88,874	0	1014,82	7	9	8,8	1	1	1	1	1	1	1	1	1	0	1	-0	274,225728	320,638637	0
15.01.2021	11:01:43	0	14,03641	2,845362	2,4825	16,8408	0,281	88,899	0	1014,98	7	9,1	8,8	1	1	1	1	1	1	1	1	1	0	1	-0	274,218219	320,603519	0
15.01.2021	11:01:44	0	14,387435	3,300618	2,529	7,1316	0,283	88,891	0	1014,96	7	9	8,8	1	1	1	1	1	1	1	1	1	0	1	-0	274,278374	320,884929	0
15.01.2021	11:01:45	0	14,387448	3,755874	2,541	354,2256	0,277	88,885	0	1014,92	7	9	8,8	1	1	1	1	1	1	1	1	1	0	1	-0	274,251281	320,758163	0
15.01.2021	11:01:46	0	14,270491	3,41443	2,68125	14,634	0,277	88,889	0	1014,9	7	9	8,8	1	1	1	1	1	1	1	1	1	0	1	-0	274,382582	321,372873	0
15.01.2021	11:01:47	0	14,504447	4,324942	2,7045	7,1388	0,284	88,907	0	1014,92	7	9	8,8	1	1	1	1	1	1	1	1	1	0	1	-0	274,284399	320,913129	0
15.01.2021	11:01:48	0	14,270518	4,097312	2,54625	12,0888	0,272	88,892	0	1014,78	7	9	8,8	1	1	1	1	1	1	1	1	1	0	1	-0	274,371985	321,323225	0
15.01.2021	11:01:49	0	14,621446	4,211124	2,50575	22,8276	0,281	88,892	0	1014,94	7	9	8,8	1	1	1	1	1	1	1	1	1	0	1	-0	274,331163	321,132038	0
15.01.2021	11:01:50	0	14,153672	2,959167	2,454	21,762	0,278	88,907	0	1014,92	7	8,9	8,8	1	1	1	1	1	1	1	1	1	0	1	-0	274,350807	321,22403	0
15.01.2021	11:01:51	0	14,270558	2,617723	2,52375	17,694	0,282	88,914	0	1014,96	7	9	8,8	1	1	1	1	1	1	1	1	1	0	1	-0	274,19721	320,505276	0
15.01.2021	11:01:52	0	14,855431	4,894003	2,454	13,158	0,281	88,909	0	1014,92	7	9	8,8	1	1	1	1	1	1	1	1	1	0	1	-0	274,291934	320,948393	0
15.01.2021	11:01:53	0	14,738473	3,186791	2,38875	29,9232	0,277	88,91	0	1015,04	7	9	8,8	1	1	1	1	1	1	1	1	1	0	1	-0	274,381068	321,365778	0
15.01.2021	11:01:54	0	14,738487	3,414417	2,391	16,83	0,278	88,893	0	1014,92	7	9	8,8	1	1	1	1	1	1	1	1	1	0	1	-0	274,325122	321,103756	0
15.01.2021	11:01:55	0	14,387584	2,845346	2,30775	18,8388	0,277	88,917	0	1014,9	7	9	8,8	1	1	1	1	1	1	1	1	1	0	1	-0	274,373498	321,330316	0
15.01.2021	11:01:56	0	14,621439	3,072973	2,2845	16,9272	0,278	88,924	0	1014,98	7	9,1	8,8	1	1	1	1	1	1	1	1	1	0	1	-0,916138	274,370471	320,399998	0
15.01.2021	11:01:57	0	14,855605	2,617716	2,4375	0,1152	0,28	88,904	0	1014,96	7	8,9	8,8	1	1	1	1	1	1	1	1	1	0	1	-0	274,231738	320,666744	0
15.01.2021	11:01:58	0	14,855514	3,869666	2,59875	3,78	0,28	88,915	0	1014,8	6,9	9	8,8	1	1	1	1	1	1	1	1	1	0	1	-0	274,222724	320,624588	0
15.01.2021	11:01:59	0	14,738556	4,211105	2,7045	0,8568	0,279	88,909	0	1014,94	7	9	8,8	1	1	1	1	1	1	1	1	1	0	1	-0	274,371985	321,323225	0
15.01.2021	11:02:00	0	14,855556	2,959152	2,7555	8,262	0,279	88,914	0	1014,9	7	9	8,8	1	1	1	1	1	1	1	1	1	0	1	-0	274,328142	321,117895	0
15.01.2021	11:02:01	0	14,855556	2,959152	2,7555	8,262	0,279	88,914	0	1014,9	7	9	8,8	1	1	1	1	1	1	1	1	1	0	1	-0	274,370471	321,316136	0
15.01.2021	11:02:02	0	15,089516	5,121607	2,87475	3,78	0,277	88,911	0	1014,94	6,9	9	8,8	1	1	1	1	1	1	1	1	1	0	1	-0	274,376526	321,344499	0
15.01.2021	11:02:03	0	15,323477	3,072963	2,715	358,74	0,277	88,916	0	1014,94	6,9	9	8,8	1	1	1	1	1	1	1	1	1	0	1	-0	274,600359	322,394377	0
15.01.2021	11:02:04	0	15,323491	4,438722	2,75025	357,0804	0,279	88,914	0	1015,04	7	9	8,8	1	1	1	1	1	1	1	1	1	0	1	-0	274,362906	321,280697	0
15.01.2021	11:02:05	0	15,206426	4,09728	2,6265	3,3948	0,28	88,919	0	1015	6,9	9,1	8,8	1	1	1	1	1	1	1	1	1	0	1	-0	274,243762	320,722989	0
15.01.2021	11:02:06	0	15,32352	5,576851	2,6145	359,5536	0,277	88,919	0	1014,7	7	9	8,8	1	1	1	1	1	1	1	1	1	0	1	-0	274,349295	321,21695	0
15.01.2021	11:02:07	0	15,323534	4,324903	2,62875	12,9312	0,278	88,923	0	1014,94	7	9	8,8	1	1	1	1	1	1	1	1	1	0	1	-0	274,371985	321,323225	0
15.01.2021	11:02:08	0	15,206575	4,666341	2,46075	6,0624	0,278	88,924	0	1014,96	7	9	8,8	1	1	1	1	1	1	1	1	1	0	1	-0	274,326632	321,110825	0
15.01.2021	11:02:09	0	15,089615	3,186768	2,24025	22,8204	0,282	88,916	0	1014,9	7	9	8,8	1	1	1	1	1	1	1	1	1	0	1	-0	274,375012	321,337407	0
15.01.2021	11:02:10	0	15,674499	2,845327	2,187	22,4532	0,28	88,93	0	1015	7	9	8,8	1	1	1	1	1	1	1	1	1	0	1	-0	274,287413	320,927233	0
15.01.2021	11:02:11	0	15,323592	3,75583	2,286	22,8348	0,274	88,912	0	1014,86	7	9	8,8	1	1	1	1	1	1	1	1	1	0	1	-0	274,225728	320,638637	0
15.01.2021	11:02:12	0	15,44058	2,27626	2,28675	24,318	0,277	88,918	0	1014,94	7	9	8,8	1	1	1	1	1	1	1	1	1	0	1	-0	274,224226	320,631612	0
15.01.2021	11:02:13	0	15,440703	3,642014	2,217	32,5008	0,276	88,926	0	1014,8	6,9	8,9	8,8	1	1	1	1	1	1	1	1	1	0	1	-0	274,219721	320,610541	0
15.01.2021	11:02:14	0	15,908506	4,893954	2,09925	26,5068	0,276	88,923	0	1015	7	9	8,8	1	1	1	1	1	1	1	1	1	0	1	-0	274,350807	321,22403	0
15.01.2021	11:02:15	0	15,791547	3,186759	1,98825	29,0988	0,277	88,925	0	1014,9	7	9	8,8	1	1	1	1	1	1	1	1	1	0	1	-0	274,299472	320,983675	0
15.01.2021	11:02:16	0	15,440638	4,893949	1,95075	27,2664	0,275	88,919	0	1014,98	7	9	8,8	1	1	1	1	1	1	1	1	1	0	1	-0	274,371985	321,323225	0
15.01.2021	11:02:17	0	15,908662	4,552509	1,866	27,6588	0,275	88,937	0	1015,08	6,9	8,9	8,8	1	1	1	1	1	1	1	1	1	0	1	-0	274,329652	321,124966	0
15.01.2021	11:02:18	0	16,142628	4,66632	1,78425	25,0272	0,273	88,923	0	1014,98	7	8,9	8,8	1	1	1	1	1	1	1	1	1	0	1	-0	274,246769	320,737056	0
15.01.2021	11:02:19	0	15,908581	2,845316	1,6965	31,3776	0,276	88,895	0	1014,94	7	9	8,8	1	1	1	1	1	1	1	1	1	0	1	-0	274,37804	321,351591	0
15.01.2021	11:02:20	0	16,025683	4,666315	1,5195	31,3668	0,275	88,912	0	1014,98	6,9	8,9	8,8	1	1	1	1	1	1	1	1	1	0	1	-0	274,329652	321,124966	0
15.01.2021	11:02:21	0	15,67466	4,211063	1,40175	16,0812	0,277	88,93	0	1014,74	7	9	8,8	1	1	1	1	1	1	1	1	1	0	1	-0	274,368958	321,309047	0
15.01.2021	11:02:22	0	15,79165	4,211061	1,42125	11,1924	0,271	88,942	0	1014,88	6,9	9	8,8	1	1	1	1	1	1	1	1	1	0	1	-0	274,335694	321,153257	0
15.01.2021	11:02:23	0	16,025615	3,75581	1,5585	0,9648	0,273	88,923	0	1014,88	7	9	8,8	1	1	1	1	1	1	1	1	1	0	1	-0	274,365932	321,29487	0
15.01.2021	11:02:24	0	15,908655	3,86962	1,70325	13,1472	0,275	88,942	0	1014,84	7	9	8,8	1	1	1	1	1	1	1	1	1	0	1	-0	274,37804	321,351591	0
15.01.2021	11:02:25	0	15,90867	3,414369	1,6515	13,9068	0,274	88,948	0	1014,94	7	9	8,8	1	1	1	1	1	1	1	1	1	0	1	-0	274,331163	321,132038	0
15.01.2021	11:02:26	0	16,02566	2,845307	1,63125	19,89	0,28	88,949	0	1014,94	7	9	8,8	1	1	1	1	1	1	1	1	1	0	1	-0	274,213715	320,582456	0
15.01.2021	11:02:27	0	16,025675	3,528179	1,54725	20,9952	0,271	88,949	0	1014,96	7	9	8,8	1	1	1	1	1	1	1	1	1	0	1	-0	274,293441	320,955448	0
15.01.2021	11:02:28	0	16,142666	4,21105	1,50975	12,4812	0,274	88,936	0	1014,98	7	9	8,8	1	1	1	1	1	1	1	1	1	0	1	-0	274,391671	321,415454	0
15.01.2021	11:02:29	0	16,376633	4,780109	1,491	18,0684	0,274	88,951	0	1015,1	7	9	8,8	1	1	1	1	1	1	1	1	1	0	1	-0	274,356855	321,252358	0
15.01.2021	11:02:30	0	15,908856	3,528174	1,4505	22,8276	0,269	88,949	0	1014,86	7	8,9	8,8	1	1	1	1	1	1	1	1	1	0	1	-0	274,337205	321,160331	0
15.01.2021	11:02:31	0	16,142825	3,869608	1,431	19,9008	0,274	88,94	0	1014,9	7	8,9	8,8	1	1	1	1	1	1	1	1	1	0	1	-0	274,384097	321,379968	0
15.01.2021	11:02:32	0	16,610632	3,869606	1,42275	19,1376	0,275	88,956	0	1014,9	7	9	8,8	1	1	1	1	1	1	1	1	1	0	1	-0	274,320593	321,082551	0
15.01.2021	11:02:33	0	16,259718	3,869605	1,46625	17,226	0,278	88,954	0	1015,04	7	9	8,8	1	1	1	1	1	1	1	1	1	0	1	-0	274,328142	321,117895	0
15.01.2021	11:02:34	0	16,259733	2,731484	1,50675	10,8072	0,272	88,966	0	1014,96	6,9	9	8,8	1	1	1	1	1	1	1	1	1	0	1	-0	274,37804	321,351591	0
15.01.2021	11:02:35	0	16,610678	3,072919	1,581	13,1616	0,277	88,965	0	1014,94	7	9	8,8	1	1	1	1	1	1	1	1	1	0	1	-0	274,299472	320,983675	0
15.01.2021	11:02:36	0	16,37674	3,186729	1,6725	11,1924	0,272	88,965	0	1015	7	9	8,8	1	1	1	1	1	1	1	1	1	0	1	-0	274,376526	321,344499	0
15.01.2021	11:02:37	0	16,259779	3,072916	1,80075	19,8936	0,273	88,971	0	1014,88	6,9	9	8,8	1	1	1	1	1	1	1	1	1	0	1	-0	274,373498	321,330316	0
15.01.2021	11:02:38	0	16,727702	4,097219	1,95675	19,8864	0,274	88,952	0	1014,98	7	9	8,8	1	1	1	1	1	1	1	1	1	0	1	-4,369274	274,266328	316,459288	0
15.01.2021	11:02:39	0	16,61074	4,211029	2,03175	19,89	0,281	88,98	0	1015,04	7	9	8,8	1	1	1	1	1	1	1	1	1	0	1	-0	274,361393	321,273611	0
15.01.2021	11:02:40	0	16,727733	3,641969	2,1375	13,1652	0,272	88,969	0	1014,96	7	9	8,8	1	1	1	1	1	1	1	1	1	0	1	-0	274,276867	320,877881	0
15.01.2021	11:02:41	0	16,493794	3,528156	2,3355	9,8388	0,27	88,976	0	1014,94	6,9	9	8,8	1	1	1	1	1	1	1	1	1	0	1	-0	274,368958	321,309047	0
15.01.2021	11:02:42	0	16,493809	3,869589	2,334	4,0644	0,273	88,963	0	1014,84	6,9	9	8,8	1	1	1	1	1	1	1	1	1	0	1	-0	274,367445	321,301958	0
15.01.2021	11:02:43	0	16,610919	2,617662	2,24325	4,4676	0,273	88,968	0	1014,9	6,9	8,9	8,8	1	1	1	1	1	1	1	1	1	0	1	-0	274,31003	321,033096	0
15.01.2021	11:02:44	0	16,727795	4,097208	2,172	16,4808	0,273	88,97	0	1014,76	7	9	8,8	1	1	1	1	1	1	1	1	1	0	1	-0	274,35988	321,266526	0
15.01.2021	11:02:45	0	17,195842	4,097206	2,17125	10,422	0,273	88,974	0	1014,96	6,9	8,9	8,8	1	1	1	1	1	1	1	1	1	0	1	-0	274,242259	320,715956	0
15.01.2021	11:02:46	0	16,610965	4,666261	2,18025	9,7488	0,269	88,961	0	1015,06	7	8,9	8,8	1	1	1	1	1	1	1	1	1	0	1	-0	274,305504	321,011912	0
15.01.2021	11:02:47	0	16,610864	5,121503	2,19525	14,31	0,272	88,962	0	1014,9	7	9	8,8	1	1	1	1	1	1	1	1	1	0	1	-0	274,361393	321,273611	0
15.01.2021	11:02:48	0	16,727858	3,755767	2,169	3,8592	0,273	88,971	0	1014,98	6,9	9	8,8	1	1	1	1	1	1	1	1	1	0	1	-0	274,368958	321,309047	0
15.01.2021	11:02:49	0	16,961829	4,097199	2,23125	12,8556	0,27	88,99	0	1014,9	6,9	9	8,8	1	1	1	1	1	1	1	1	1	0	1	-0	274,296456	320,96956	0
15.01.2021	11:02:50	0	16,961845	3,186709	2,21325	4,4676	0,268	88,968	0	1015,02	6,9	9	8,8	1	1	1	1	1	1	1	1	1	0	1	-0	274,365932	321,29487	0
15.01.2021	11:02:51	0	16,96198	3,64193	2,355	19,5192	0,272	88,979	0	1014,88	6,9	8,9	8,9	1	1	1	1	1	1	1	1	1	0	1	-1,479915	274,379554	319,878769	0
15.01.2021	11:02:52	0	17,078975	5,007681	2,36025	14,652	0,267	88,972	0	1014,9	7	8,9	8,8	1	1	1	1	1	1	1	1	1	0	1	-0	274,303996	321,004851	0
15.01.2021	11:02:53	0	16,845032	2,503839	2,32125	21,384	0,273	88,989	0	1014,82	7	8,9	8,8	1	1	1	1	1	1	1	1	1	0	1	-0	274,371985	321,323225	0
15.01.2021	11:02:54	0	17,312966	3,414325	2,24475	16,4628	0,268	88,986	0	1014,94	6,9	8,9	8,8	1	1	1	1	1	1	1	1	1	0	1	-0	274,341738	321,181558	0
15.01.2021	11:02:55	0	16,845063	3,414323	2,061	22,8312	0,272	88,992	0	1014,94	6,9	8,9	8,8	1	1	1	1	1	1	1	1	1	0	1	-0	274,255794	320,779276	0
15.01.2021	11:02:56	0	17,196018	3,07289	1,953	18,8424	0,272	88,979	0	1014,96	6,9	8,9	8,8	1	1	1	1	1	1	1	1	1	0	1	-0	274,361393	321,273611	0
15.01.2021	11:02:57	0	17,313014	4,552427	1,94625	19,9152	0,271	88,988	0	1014,76	6,9	8,9	8,8	1	1	1	1	1	1	1	1	1	0	1	-0	274,350807	321,22403	0
15.01.2021	11:02:58	0	16,96209	2,959076	1,92525	359,7588	0,266	88,972	0	1014,78	7	8,9	8,8	1	1	1	1	1	1	1	1	1	0	1	-0	274,221223	320,617564	0
15.01.2021	11:02:59	0	17,312925	3,072885	1,86075	9,3708	0,267	88,983	0	1014,96	7	9	8,8	1	1	1	1	1	1	1	1	1	0	1	-0	274,206211	320,547364	0
15.01.2021	11:03:00	0	17,313078	3,414314	1,8495	354,042	0,263	88,972	0	1014,86	7	8,9	8,8	1	1	1	1	1	1	1	1	1	0	1	-3,664553	274,314556	317,389735	0
15.01.2021	11:03:01	0	17,313078	3,414314	1,8495	354,042	0,263	88,972	0	1014,86	7	8,9	8,8	1	1	1	1	1	1	1	1	1	0	1	-0	274,361393	321,273611	0
15.01.2021	11:03:02	0	17,079134	4,324796	1,833	359,0316	0,268	88,988	0	1015,02	7	8,9	8,8	1	1	1	1	1	1	1	1	1	0	1	-0	274,242259	320,715956	0
15.01.2021	11:03:03	0	17,313111	2,845242	1,83525	0,4896	0,264	88,992	0	1014,88	7	8,9	8,9	1	1	1	1	1	1	1	1	1	0	1	-0	274,325122	321,103756	0
15.01.2021	11:03:04	0	17,196026	4,097171	1,7925	360	0,266	89	0	1014,78	7	9	8,8	1	1	1	1	1	1	1	1	1	0	1	-0	274,373498	321,330316	0
15.01.2021	11:03:05	0	17,430001	4,4386	1,764	0,8532	0,263	88,975	0	1014,96	6,9	9	8,8	1	1	1	1	1	1	1	1	1	0	1	-0	274,240755	320,708923	0
15.01.2021	11:03:06	0	17,196178	3,072876	1,80825	2,3076	0,273	89,006	0	1015,14	6,9	8,9	8,8	1	1	1	1	1	1	1	1	1	0	1	-0	274,230235	320,659716	0
15.01.2021	11:03:07	0	17,079213	2,845254	1,8225	1,5336	0,269	88,989	0	1014,8	6,9	8,9	8,8	1	1	1	1	1	1	1	1	1	0	1	-0	274,206211	320,547364	0
15.01.2021	11:03:08	0	17,313191	4,210974	1,7715	0,4968	0,27	88,974	0	1014,84	6,9	8,9	8,8	1	1	1	1	1	1	1	1	1	0	1	-0	274,23324	320,673772	0
15.01.2021	11:03:09	0	17,313207	3,528112	1,67625	22,824	0,268	89,001	0	1014,8	7	8,9	8,8	1	1	1	1	1	1	1	1	1	0	1	-0	274,209212	320,561399	0
15.01.2021	11:03:10	0	17,781148	3,07287	1,69425	8,2476	0,27	89	0	1015,02	7	8,9	8,8	1	1	1	1	1	1	1	1	1	0	1	-0	274,236246	320,687831	0
15.01.2021	11:03:11	0	17,547079	4,666208	1,7115	13,5396	0,272	89,005	0	1015,04	7	9	8,8	1	1	1	1	1	1	1	1	1	0	1	-0	274,251281	320,758163	0
15.01.2021	11:03:12	0	17,430237	4,893826	1,6965	12,4668	0,269	89,005	0	1014,88	7	8,9	8,8	1	1	1	1	1	1	1	1	1	0	1	-0	274,375012	321,337407	0
15.01.2021	11:03:13	0	17,781198	3,072866	1,65975	11,7036	0,266	89,006	0	1014,96	7	8,9	8,8	1	1	1	1	1	1	1	1	1	0	1	-1,409443	274,246769	319,327613	0
15.01.2021	11:03:14	0	17,313288	4,210963	1,629	17,694	0,264	89,004	0	1014,9	7	8,9	8,8	1	1	1	1	1	1	1	1	1	0	1	-0	274,370471	321,316136	0
15.01.2021	11:03:15	0	17,196322	2,845244	1,5585	357,2676	0,267	89,011	0	1014,92	6,9	8,9	8,8	1	1	1	1	1	1	1	1	1	0	1	-1,550388	274,347783	319,659483	0
15.01.2021	11:03:16	0	17,313198	2,503814	1,509	360	0,268	89,01	0	1014,96	6,9	9	8,8	1	1	1	1	1	1	1	1	1	0	1	-0	274,273855	320,863787	0
15.01.2021	11:03:17	0	17,313214	4,552386	1,42725	1,1556	0,263	88,99	0	1014,88	7	9	8,8	1	1	1	1	1	1	1	1	1	0	1	-0	274,20321	320,533332	0
15.01.2021	11:03:18	0	17,313231	2,73143	1,4565	356,0472	0,264	89,009	0	1014,82	7	9	8,8	1	1	1	1	1	1	1	1	1	0	1	-0,352361	274,31003	320,680736	0
15.01.2021	11:03:19	0	17,781297	4,893811	1,398	357,9768	0,265	89,02	0	1014,86	7	8,9	8,8	1	1	1	1	1	1	1	1	1	0	1	-0	274,364419	321,287783	0
15.01.2021	11:03:20	0	17,898296	5,121428	1,32525	354,996	0,265	89,009	0	1014,88	7	8,9	8,8	1	1	1	1	1	1	1	1	1	0	1	-0	274,340227	321,174482	0
15.01.2021	11:03:21	0	17,313279	2,617617	1,3545	358,7868	0,271	89,025	0	1015,1	7	9	8,8	1	1	1	1	1	1	1	1	1	0	1	-0	274,349295	321,21695	0
15.01.2021	11:03:22	0	17,66424	4,097138	1,3605	359,8812	0,264	89,027	0	1015	7	9	8,8	1	1	1	1	1	1	1	1	1	0	1	-0	274,385611	321,387064	0
15.01.2021	11:03:23	0	17,430415	3,869518	1,36425	1,9116	0,268	89,033	0	1014,98	7	8,9	8,8	1	1	1	1	1	1	1	1	1	0	1	-0	274,294949	320,962504	0
15.01.2021	11:03:24	0	17,781379	5,121418	1,38825	360	0,263	89,019	0	1014,88	7	8,9	8,8	1	1	1	1	1	1	1	1	1	0	1	-0	274,218219	320,603519	0
15.01.2021	11:03:25	0	17,664289	3,755705	1,362	3,762	0,26	89,024	0	1014,84	6,9	9	8,8	1	1	1	1	1	1	1	1	1	0	1	-0	274,261812	320,807436	0
15.01.2021	11:03:26	0	17,547446	4,779986	1,34625	10,0368	0,264	89,03	0	1015,02	7	8,9	8,8	1	1	1	1	1	1	1	1	1	0	1	-0	274,207712	320,554381	0
15.01.2021	11:03:27	0	17,664445	4,552366	1,3845	15,3648	0,261	89,032	0	1014,8	7	8,9	8,8	1	1	1	1	1	1	1	1	1	0	1	-1,057082	274,35988	320,209444	0
15.01.2021	11:03:28	0	17,430373	4,666173	1,458	8,6004	0,265	89,042	0	1015,04	6,9	9	8,8	1	1	1	1	1	1	1	1	1	0	1	-0	274,316065	321,061352	0
15.01.2021	11:03:29	0	17,430267	4,552362	1,46625	9,4572	0,27	89,06	0	1015,02	7	9,1	8,8	1	1	1	1	1	1	1	1	1	0	1	-0	274,367445	321,301958	0
15.01.2021	11:03:30	0	17,313423	3,755697	1,59675	7,8696	0,264	89,047	0	1014,84	7	9	8,8	1	1	1	1	1	1	1	1	1	0	1	-0	274,325122	321,103756	0
15.01.2021	11:03:31	0	17,430544	3,983313	1,73025	11,7072	0,267	89,05	0	1014,86	7	8,9	8,8	1	1	1	1	1	1	1	1	1	0	1	-0	274,338716	321,167406	0
15.01.2021	11:03:32	0	17,547544	3,528076	1,97625	9,3636	0,265	89,054	0	1015	7	8,9	8,8	1	1	1	1	1	1	1	1	1	0	1	-0	274,399247	321,450956	0
15.01.2021	11:03:33	0	17,313592	4,438545	2,1495	5,6772	0,273	89,054	0	1014,98	6,9	8,9	8,8	1	1	1	1	1	1	1	1	1	0	1	-0	274,320593	321,082551	0
15.01.2021	11:03:34	0	17,547576	4,66616	2,12475	9,7524	0,263	89,052	0	1014,92	7	8,9	8,8	1	1	1	1	1	1	1	1	1	0	1	-0	274,371985	321,323225	0
15.01.2021	11:03:35	0	17,313382	4,210923	2,13825	12,4596	0,26	89,058	0	1014,92	6,9	9,1	8,8	1	1	1	1	1	1	1	1	1	0	1	-0,211416	274,331163	320,920622	0
15.01.2021	11:03:36	0	17,664469	2,731409	2,0355	15,3828	0,269	89,039	0	1015	6,9	9	8,8	1	1	1	1	1	1	1	1	1	0	1	-0,070472	274,251281	320,687691	0
15.01.2021	11:03:37	0	17,664485	3,641876	1,992	14,6448	0,269	89,066	0	1014,94	6,9	9	8,8	1	1	1	1	1	1	1	1	1	0	1	-0	274,384097	321,379968	0
15.01.2021	11:03:38	0	17,547395	2,845215	2,238	17,694	0,268	89,058	0	1015,02	6,9	9,1	8,8	1	1	1	1	1	1	1	1	1	0	1	-0	274,281386	320,899028	0
15.01.2021	11:03:39	0	17,430673	2,959022	2,51475	13,1652	0,268	89,049	0	1014,9	6,9	8,9	8,8	1	1	1	1	1	1	1	1	1	0	1	-0	274,215217	320,589476	0
15.01.2021	11:03:40	0	17,313704	4,097105	2,70825	6,8184	0,268	89,041	0	1014,92	6,9	8,9	8,8	1	1	1	1	1	1	1	1	1	0	1	-0	274,381068	321,365778	0
15.01.2021	11:03:41	0	17,547444	3,755678	2,673	18,8064	0,269	89,06	0	1014,94	6,9	9,1	8,8	1	1	1	1	1	1	1	1	1	0	1	-0	274,31003	321,033096	0
15.01.2021	11:03:42	0	17,313615	2,84521	2,934	9,738	0,264	89,062	0	1015,06	7	9	8,8	1	1	1	1	1	1	1	1	1	0	1	-0	274,364419	321,287783	0
15.01.2021	11:03:43	0	17,781692	3,983292	3,225	34,3332	0,268	89,04	0	1015,1	6,9	8,9	8,8	1	1	1	1	1	1	1	1	1	0	1	-0	274,230235	320,659716	0
15.01.2021	11:03:44	0	17,430631	4,324715	3,11625	29,6028	0,264	89,056	0	1014,92	6,9	9	8,8	1	1	1	1	1	1	1	1	1	0	1	-0	274,352319	321,231111	0
15.01.2021	11:03:45	0	17,430647	3,186631	3,1065	22,8312	0,266	89,055	0	1014,88	6,9	9	8,8	1	1	1	1	1	1	1	1	1	0	1	-0	274,368958	321,309047	0
15.01.2021	11:03:46	0	17,781616	3,528054	3,147	32,1408	0,267	89,055	0	1014,96	7	9	8,8	1	1	1	1	1	1	1	1	1	0	1	-1,62086	274,323613	319,475827	0
15.01.2021	11:03:47	0	17,196831	3,755668	3,15375	31,0104	0,261	89,055	0	1014,98	6,9	8,9	8,8	1	1	1	1	1	1	1	1	1	0	1	-0	274,335694	321,153257	0
15.01.2021	11:03:48	0	17,31359	2,845202	3,2205	29,106	0,265	89,045	0	1014,92	7	9,1	8,8	1	1	1	1	1	1	1	1	1	0	1	-0	274,370471	321,316136	0
15.01.2021	11:03:49	0	17,547819	2,959009	3,336	32,148	0,263	89,046	0	1014,82	6,9	8,9	8,8	1	1	1	1	1	1	1	1	1	0	1	-0	274,364419	321,287783	0
15.01.2021	11:03:50	0	17,313743	3,755663	3,06075	22,8276	0,271	89,054	0	1014,96	6,9	9	8,8	1	1	1	1	1	1	1	1	1	0	1	-0	274,320593	321,082551	0
15.01.2021	11:03:51	0	17,196895	4,324701	2,811	26,5104	0,264	89,039	0	1014,96	6,9	8,9	8,8	1	1	1	1	1	1	1	1	1	0	1	-0	274,381068	321,365778	0
15.01.2021	11:03:52	0	17,547868	3,072813	2,769	7,1352	0,266	89,062	0	1014,96	6,9	8,9	8,8	1	1	1	1	1	1	1	1	1	0	1	-0	274,243762	320,722989	0
15.01.2021	11:03:53	0	17,430898	3,072811	2,95425	22,464	0,257	89,042	0	1014,84	7	8,9	8,8	1	1	1	1	1	1	1	1	1	0	1	-1,832276	274,373498	319,49804	0
15.01.2021	11:03:54	0	17,313928	3,414233	2,751	15,3792	0,267	89,044	0	1014,96	6,9	8,9	8,8	1	1	1	1	1	1	1	1	1	0	1	-0	274,350807	321,22403	0
15.01.2021	11:03:55	0	17,313823	3,300424	2,5875	14,6376	0,264	89,042	0	1014,94	6,9	9	8,8	1	1	1	1	1	1	1	1	1	0	1	-0,775194	274,322103	320,314425	0
15.01.2021	11:03:56	0	17,196974	3,755653	2,6475	18,5364	0,267	89,038	0	1015,02	6,9	8,9	8,8	1	1	1	1	1	1	1	1	1	0	1	-0	274,387126	321,39416	0
15.01.2021	11:03:57	0	17,781921	4,893728	2,64975	19,53	0,267	89,041	0	1015	7	8,9	8,8	1	1	1	1	1	1	1	1	1	0	1	-2,184637	274,285906	318,735543	0
15.01.2021	11:03:58	0	17,547842	3,641842	2,613	346,1688	0,272	89,048	0	1014,92	6,9	9	8,8	1	1	1	1	1	1	1	1	1	0	1	-0	274,35988	321,266526	0
15.01.2021	11:03:59	0	17,547981	4,779916	2,80125	3,3984	0,268	89,052	0	1015,06	6,9	8,9	8,8	1	1	1	1	1	1	1	1	1	0	1	-0	274,337205	321,160331	0
15.01.2021	11:04:00	0	17,31404	4,097067	2,529	351,7236	0,262	89,055	0	1014,66	6,9	8,9	8,8	1	1	1	1	1	1	1	1	1	0	1	-0	274,230235	320,659716	0
15.01.2021	11:04:01	0	17,31404	4,097067	2,529	351,7236	0,262	89,055	0	1014,66	6,9	8,9	8,8	1	1	1	1	1	1	1	1	1	0	1	-0	274,352319	321,231111	0
15.01.2021	11:04:02	0	17,782003	4,552295	2,36175	344,772	0,263	89,055	0	1014,86	6,9	8,9	8,8	1	1	1	1	1	1	1	1	1	0	1	-0	274,242259	320,715956	0
15.01.2021	11:04:03	0	17,665033	3,300412	2,24175	359,064	0,266	89,056	0	1014,88	6,9	8,9	8,8	1	1	1	1	1	1	1	1	1	0	1	-0	274,391671	321,415454	0
15.01.2021	11:04:04	0	17,547939	2,731374	2,28975	12,0816	0,256	89,04	0	1014,82	6,9	9	8,8	1	1	1	1	1	1	1	1	1	0	1	-0	274,245266	320,730022	0
15.01.2021	11:04:05	0	17,547955	3,869445	2,25225	16,47	0,265	89,053	0	1015,06	6,9	9	8,8	1	1	1	1	1	1	1	1	1	0	1	-0	274,364419	321,287783	0
15.01.2021	11:04:06	0	17,431107	2,731372	2,23725	358,3584	0,262	89,057	0	1014,9	6,9	8,9	8,8	1	1	1	1	1	1	1	1	1	0	1	-0	274,230235	320,659716	0
15.01.2021	11:04:07	0	17,314014	3,983249	2,24025	357,246	0,26	89,035	0	1014,92	6,9	9	8,8	1	1	1	1	1	1	1	1	1	0	1	-0	274,255794	320,779276	0
15.01.2021	11:04:08	0	17,197044	3,983247	2,2545	359,5428	0,265	89,055	0	1015,04	6,9	9	8,8	1	1	1	1	1	1	1	1	1	0	1	-0	274,219721	320,610541	0
15.01.2021	11:04:09	0	17,314167	4,779895	2,35725	19,1268	0,261	89,048	0	1014,76	6,9	8,9	8,8	1	1	1	1	1	1	1	1	1	0	1	-0	274,299472	320,983675	0
15.01.2021	11:04:10	0	17,197196	2,731367	2,421	3,3732	0,263	89,051	0	1014,96	6,9	8,9	8,8	1	1	1	1	1	1	1	1	1	0	1	-5,426357	274,376526	315,918142	0
15.01.2021	11:04:11	0	17,548175	5,007504	2,40825	0,4608	0,264	89,046	0	1014,96	6,9	8,9	8,8	1	1	1	1	1	1	1	1	1	0	1	-0	274,326632	321,110825	0
15.01.2021	11:04:12	0	16,963251	3,64182	2,45625	350,28	0,264	89,054	0	1014,74	6,9	8,9	8,8	1	1	1	1	1	1	1	1	1	0	1	-0	274,379554	321,358684	0
15.01.2021	11:04:13	0	17,548207	3,983239	2,538	9,738	0,264	89,063	0	1014,96	6,9	8,9	8,8	1	1	1	1	1	1	1	1	1	0	1	-0	274,326632	321,110825	0
15.01.2021	11:04:14	0	17,197138	3,300396	2,53725	360	0,262	89,049	0	1014,9	6,9	9	8,8	1	1	1	1	1	1	1	1	1	0	1	-0	274,37804	321,351591	0
15.01.2021	11:04:15	0	17,314263	4,552269	2,79675	10,8	0,263	89,064	0	1014,94	7	8,9	8,8	1	1	1	1	1	1	1	1	1	0	1	-0	274,362906	321,280697	0
15.01.2021	11:04:16	0	16,963314	2,845167	3,04575	34,7832	0,264	89,062	0	1014,9	6,9	8,9	8,8	1	1	1	1	1	1	1	1	1	0	1	-0	274,242259	320,715956	0
15.01.2021	11:04:17	0	17,431283	3,528005	3,11325	27,9468	0,265	89,077	0	1014,92	6,9	8,9	8,8	1	1	1	1	1	1	1	1	1	0	1	-0	274,231738	320,666744	0
15.01.2021	11:04:18	0	16,963226	2,617551	2,877	18,4464	0,261	89,069	0	1014,88	6,9	9	8,8	1	1	1	1	1	1	1	1	1	0	1	-0	274,254289	320,772238	0
15.01.2021	11:04:19	0	17,431315	2,958969	2,60175	16,1064	0,262	89,065	0	1014,84	6,9	8,9	8,8	1	1	1	1	1	1	1	1	1	0	1	-0	274,239252	320,701892	0
15.01.2021	11:04:20	0	17,080365	3,072774	2,6625	10,4328	0,267	89,082	0	1014,94	6,9	8,9	8,8	1	1	1	1	1	1	1	1	1	0	1	-0	274,222724	320,624588	0
15.01.2021	11:04:21	0	17,314358	3,300386	2,796	353,5452	0,258	89,07	0	1014,82	6,9	8,9	8,8	1	1	1	1	1	1	1	1	1	0	1	-0	274,245266	320,730022	0
15.01.2021	11:04:22	0	17,080277	3,300384	2,748	3,3912	0,266	89,064	0	1014,94	6,9	9	8,8	1	1	1	1	1	1	1	1	1	0	1	-0	274,212214	320,575436	0
15.01.2021	11:04:23	0	17,31439	4,893671	2,742	16,0956	0,258	89,047	0	1014,94	6,9	8,9	8,8	1	1	1	1	1	1	1	1	1	0	1	-0	274,350807	321,22403	0
15.01.2021	11:04:24	0	16,96332	4,097025	2,51475	12,4668	0,261	89,05	0	1014,88	6,9	9	8,8	1	1	1	1	1	1	1	1	1	0	1	-0	274,319084	321,075484	0
15.01.2021	11:04:25	0	17,197433	4,779861	2,208	357,9768	0,263	89,074	0	1014,9	6,9	8,9	8,8	1	1	1	1	1	1	1	1	1	0	1	-0	274,204711	320,540348	0
15.01.2021	11:04:26	0	17,197448	3,300379	2,1945	349,9416	0,264	89,049	0	1014,72	6,9	8,9	8,8	1	1	1	1	1	1	1	1	1	0	1	-0	274,290427	320,941339	0
15.01.2021	11:04:27	0	16,846378	3,300377	2,205	6,8112	0,263	89,064	0	1015	6,9	9	8,8	1	1	1	1	1	1	1	1	1	0	1	-0	274,210713	320,568417	0
15.01.2021	11:04:28	0	17,080371	4,32463	2,2185	360	0,262	89,07	0	1014,84	6,9	9	8,8	1	1	1	1	1	1	1	1	1	0	1	-0	274,255794	320,779276	0
15.01.2021	11:04:29	0	17,197375	4,324628	2,18625	352,458	0,266	89,062	0	1014,88	6,9	9	8,8	1	1	1	1	1	1	1	1	1	0	1	-0	274,325122	321,103756	0
15.01.2021	11:04:30	0	17,080402	3,072761	2,253	352,1376	0,267	89,056	0	1014,92	6,9	9	8,8	1	1	1	1	1	1	1	1	1	0	1	-0	274,384097	321,379968	0
15.01.2021	11:04:31	0	16,963547	4,779848	2,36625	353,5812	0,253	89,064	0	1014,82	6,9	8,9	8,8	1	1	1	1	1	1	1	1	1	0	1	-0	274,343249	321,188635	0
15.01.2021	11:04:32	0	16,846455	2,845146	2,47575	359,5428	0,268	89,069	0	1015	6,9	9	8,8	1	1	1	1	1	1	1	1	1	0	1	-0	274,393186	321,422553	0
15.01.2021	11:04:33	0	16,963578	4,324621	2,51475	6,0408	0,262	89,067	0	1014,78	6,9	8,9	8,8	1	1	1	1	1	1	1	1	1	0	1	-0	274,314556	321,054287	0
15.01.2021	11:04:34	0	17,080584	5,007453	2,6265	3,7728	0,264	89,046	0	1014,84	6,9	8,9	8,8	1	1	1	1	1	1	1	1	1	0	1	-0	274,350807	321,22403	0
15.01.2021	11:04:35	0	17,08048	4,097005	2,5305	6,7932	0,262	89,056	0	1014,9	6,9	9	8,8	1	1	1	1	1	1	1	1	1	0	1	-0	274,186713	320,456203	0
15.01.2021	11:04:36	0	16,846517	4,324615	2,5065	1,9224	0,263	89,07	0	1015,04	6,9	9	8,8	1	1	1	1	1	1	1	1	1	0	1	-0	274,237749	320,694861	0
15.01.2021	11:04:37	0	16,84665	3,072751	2,5665	8,2656	0,259	89,067	0	1014,98	6,9	8,9	8,8	1	1	1	1	1	1	1	1	1	0	1	-0	274,222724	320,624588	0
15.01.2021	11:04:38	0	17,314628	5,007444	2,691	7,5096	0,266	89,055	0	1014,88	6,9	8,9	8,8	1	1	1	1	1	1	1	1	1	0	1	-0	274,322103	321,089618	0
15.01.2021	11:04:39	0	17,080663	2,731316	2,856	8,622	0,256	89,07	0	1015	7	8,9	8,9	1	1	1	1	1	1	1	1	1	0	1	-0	274,368958	321,309047	0
15.01.2021	11:04:40	0	16,963687	4,438386	2,89575	17,6904	0,265	89,068	0	1014,9	6,9	8,9	8,9	1	1	1	1	1	1	1	1	1	0	1	-0	274,394701	321,429653	0
15.01.2021	11:04:41	0	17,548535	3,414162	2,952	16,4772	0,263	89,052	0	1014,96	6,9	9	8,8	1	1	1	1	1	1	1	1	1	0	1	-0	274,31003	321,033096	0
15.01.2021	11:04:42	0	16,963718	2,731329	3,08475	14,292	0,263	89,072	0	1014,96	6,9	8,9	8,8	1	1	1	1	1	1	1	1	1	0	1	-0	274,221223	320,617564	0
15.01.2021	11:04:43	0	17,080725	3,300354	3,09375	20,2824	0,259	89,061	0	1014,98	6,9	8,9	8,8	1	1	1	1	1	1	1	1	1	0	1	-0	274,28892	320,934286	0
15.01.2021	11:04:44	0	17,314723	5,007431	3,0795	21,0096	0,262	89,078	0	1014,94	6,9	8,9	8,8	1	1	1	1	1	1	1	1	1	0	1	-0	274,207712	320,554381	0
15.01.2021	11:04:45	0	17,197748	3,300351	3,18225	12,8448	0,26	89,064	0	1014,86	6,9	8,9	8,8	1	1	1	1	1	1	1	1	1	0	1	-0	274,335694	321,153257	0
15.01.2021	11:04:46	0	17,080772	3,52796	3,36375	18,0828	0,262	89,058	0	1014,84	6,9	8,9	8,8	1	1	1	1	1	1	1	1	1	0	1	-0	274,326632	321,110825	0
15.01.2021	11:04:47	0	16,963796	3,755546	3,40125	26,5212	0,262	89,092	0	1015,04	6,9	8,9	8,9	1	1	1	1	1	1	1	1	1	0	1	-0	274,391671	321,415454	0
15.01.2021	11:04:48	0	16,963811	3,641762	3,33825	14,3028	0,267	89,092	0	1014,94	7	8,9	8,8	1	1	1	1	1	1	1	1	1	0	1	-0	274,242259	320,715956	0
15.01.2021	11:04:49	0	17,314681	3,86937	3,09975	16,092	0,263	89,071	0	1014,94	6,9	9	8,8	1	1	1	1	1	1	1	1	1	0	1	-0	274,37804	321,351591	0
15.01.2021	11:04:50	0	17,314697	2,845124	2,9055	23,2164	0,259	89,084	0	1014,94	6,9	9	8,8	1	1	1	1	1	1	1	1	1	0	1	-0	274,340227	321,174482	0
15.01.2021	11:04:51	0	17,08085	2,958927	2,61075	17,7048	0,257	89,09	0	1014,94	6,9	8,9	8,8	1	1	1	1	1	1	1	1	1	0	1	-0	274,219721	320,610541	0
15.01.2021	11:04:52	0	17,31485	4,665999	2,49	16,4844	0,26	89,09	0	1015	6,9	8,9	8,8	1	1	1	1	1	1	1	1	1	0	1	-0	274,323613	321,096687	0
15.01.2021	11:04:53	0	16,963889	2,731315	2,79375	16,8552	0,261	89,091	0	1014,92	6,9	8,9	8,8	1	1	1	1	1	1	1	1	1	0	1	-0	274,218219	320,603519	0
15.01.2021	11:04:54	0	17,548867	3,186533	3,072	13,1472	0,259	89,098	0	1014,96	6,9	8,9	8,8	1	1	1	1	1	1	1	1	1	0	1	-0	274,252785	320,7652	0
15.01.2021	11:04:55	0	17,314898	4,210774	3,0885	12,8592	0,26	89,101	0	1015,12	6,9	8,9	8,8	1	1	1	1	1	1	1	1	1	0	1	-0	274,334184	321,146183	0
15.01.2021	11:04:56	0	17,314913	3,983139	3,021	16,0956	0,257	89,104	0	1014,72	6,9	8,9	8,9	1	1	1	1	1	1	1	1	1	0	1	-0	274,19571	320,498263	0
15.01.2021	11:04:57	0	17,548792	4,665989	2,97525	10,4364	0,261	89,098	0	1014,86	6,9	9	8,8	1	1	1	1	1	1	1	1	1	0	1	-0	274,323613	321,096687	0
15.01.2021	11:04:58	0	17,197952	3,983159	3,084	8,262	0,257	89,105	0	1014,84	6,9	8,9	8,8	1	1	1	1	1	1	1	1	1	0	1	-0	274,207712	320,554381	0
15.01.2021	11:04:59	0	17,782933	3,300331	3,1785	10,8144	0,266	89,088	0	1014,92	6,9	8,9	8,8	1	1	1	1	1	1	1	1	1	0	1	-0	274,258803	320,793354	0
15.01.2021	11:05:00	0	17,665972	4,552176	3,027	13,1688	0,258	89,099	0	1015,04	6,9	8,9	8,8	1	1	1	1	1	1	1	1	1	0	1	-0	274,365932	321,29487	0
15.01.2021	11:05:01	0	17,665972	4,552176	3,027	13,1688	0,258	89,099	0	1015,04	6,9	8,9	8,8	1	1	1	1	1	1	1	1	1	0	1	-0	274,252785	320,7652	0
15.01.2021	11:05:02	0	17,198015	2,389891	3,02925	13,5324	0,267	89,103	0	1015,04	6,9	8,9	8,8	1	1	1	1	1	1	1	1	1	0	1	-0	274,239252	320,701892	0
15.01.2021	11:05:03	0	17,315024	4,324563	2,946	12,8484	0,262	89,115	0	1015,04	6,9	8,9	8,8	1	1	1	1	1	1	1	1	1	0	1	-0	274,396216	321,436753	0
15.01.2021	11:05:04	0	17,783014	4,324562	3,01125	17,6688	0,258	89,12	0	1014,96	6,9	8,9	8,8	1	1	1	1	1	1	1	1	1	0	1	-1,479915	274,349295	319,737034	0
15.01.2021	11:05:05	0	17,431927	2,617497	3,045	10,44	0,26	89,111	0	1014,94	7	9	8,8	1	1	1	1	1	1	1	1	1	0	1	-0	274,365932	321,29487	0
15.01.2021	11:05:06	0	17,432065	4,096949	3,03375	14,9688	0,258	89,097	0	1014,84	6,9	8,9	8,8	1	1	1	1	1	1	1	1	1	0	1	-0	274,19421	320,491252	0
15.01.2021	11:05:07	0	17,549075	3,869339	3,099	10,8144	0,264	89,107	0	1015,02	6,9	8,9	8,8	1	1	1	1	1	1	1	1	1	0	1	-0	274,260308	320,800395	0
15.01.2021	11:05:08	0	17,549091	4,552162	3,042	17,2332	0,256	89,113	0	1014,92	6,9	8,9	8,8	1	1	1	1	1	1	1	1	1	0	1	-0	274,367445	321,301958	0
15.01.2021	11:05:09	0	18,13395	4,665964	2,94	13,9068	0,258	89,101	0	1014,86	6,9	9	8,8	1	1	1	1	1	1	1	1	1	0	1	-0	274,335694	321,153257	0
15.01.2021	11:05:10	0	17,549123	4,210746	2,84925	11,7036	0,263	89,122	0	1015,1	6,9	8,9	8,8	1	1	1	1	1	1	1	1	1	0	1	-0	274,216718	320,596497	0
15.01.2021	11:05:11	0	17,666133	2,731294	2,86725	15,0048	0,256	89,115	0	1015	6,9	8,9	8,8	1	1	1	1	1	1	1	1	1	0	1	-0	274,224226	320,631612	0
15.01.2021	11:05:12	0	18,017006	3,186508	2,76525	15,4044	0,264	89,116	0	1015,02	6,9	9	8,8	1	1	1	1	1	1	1	1	1	0	1	-0	274,261812	320,807436	0
15.01.2021	11:05:13	0	17,432176	3,186506	2,745	12,456	0,252	89,127	0	1014,98	6,9	8,9	8,8	1	1	1	1	1	1	1	1	1	0	1	-0	274,224226	320,631612	0
15.01.2021	11:05:14	0	18,251154	4,096935	2,7855	10,44	0,259	89,124	0	1015,04	6,9	8,9	8,8	1	1	1	1	1	1	1	1	1	0	1	-0	274,228733	320,652689	0
15.01.2021	11:05:15	0	17,783192	2,617485	2,682	20,6136	0,256	89,122	0	1015,2	6,9	8,9	8,8	1	1	1	1	1	1	1	1	1	0	1	-0	274,270844	320,849695	0
15.01.2021	11:05:16	0	17,900078	4,096931	2,688	16,8408	0,255	89,11	0	1014,96	6,9	9	8,8	1	1	1	1	1	1	1	1	1	0	1	-0	274,384097	321,379968	0
15.01.2021	11:05:17	0	18,134209	5,007358	2,7735	4,0752	0,259	89,119	0	1014,98	6,9	8,9	8,8	1	1	1	1	1	1	1	1	1	0	1	-0	274,325122	321,103756	0
15.01.2021	11:05:18	0	18,017231	3,186499	2,8425	9,108	0,26	89,124	0	1014,98	6,9	8,9	8,8	1	1	1	1	1	1	1	1	1	0	1	-0	274,373498	321,330316	0
15.01.2021	11:05:19	0	18,485228	4,665944	2,832	7,1316	0,26	89,121	0	1014,88	6,9	8,9	8,8	1	1	1	1	1	1	1	1	1	0	1	-0,281889	274,255794	320,497387	0
15.01.2021	11:05:20	0	18,368249	4,779745	2,763	9,7416	0,258	89,11	0	1014,9	6,9	8,9	8,8	1	1	1	1	1	1	1	1	1	0	1	-0	274,213715	320,582456	0
15.01.2021	11:05:21	0	18,368266	4,665939	2,72025	17,226	0,259	89,103	0	1014,94	6,9	8,9	8,8	1	1	1	1	1	1	1	1	1	0	1	-0	274,343249	321,188635	0
15.01.2021	11:05:22	0	18,251159	4,438331	2,62425	12,0888	0,26	89,126	0	1014,94	6,9	9	8,8	1	1	1	1	1	1	1	1	1	0	1	-0,070472	274,364419	321,217311	0
15.01.2021	11:05:23	0	18,134308	3,414099	2,54325	7,8768	0,254	89,108	0	1014,94	6,9	8,9	8,8	1	1	1	1	1	1	1	1	1	0	1	-0	274,381068	321,365778	0
15.01.2021	11:05:24	0	18,25132	4,21072	2,52525	8,6112	0,256	89,122	0	1015,02	6,9	8,9	8,8	1	1	1	1	1	1	1	1	1	0	1	-0	274,291934	320,948393	0
15.01.2021	11:05:25	0	18,134214	4,552128	2,36925	9,3564	0,26	89,124	0	1014,84	6,9	9	8,8	1	1	1	1	1	1	1	1	1	0	1	-0	274,391671	321,415454	0
15.01.2021	11:05:26	0	18,368349	4,210717	2,25975	7,1172	0,257	89,116	0	1014,9	6,9	8,9	8,8	1	1	1	1	1	1	1	1	1	0	1	-0	274,251281	320,758163	0
15.01.2021	11:05:27	0	18,368366	4,552124	2,3235	4,4496	0,262	89,113	0	1014,98	7	8,9	8,8	1	1	1	1	1	1	1	1	1	0	1	-0	274,343249	321,188635	0
15.01.2021	11:05:28	0	18,485379	4,893531	2,3055	10,7928	0,253	89,126	0	1015,04	6,9	8,9	8,8	1	1	1	1	1	1	1	1	1	0	1	-0	274,381068	321,365778	0
15.01.2021	11:05:29	0	18,485396	4,55212	2,154	360	0,259	89,121	0	1014,92	6,9	8,9	8,8	1	1	1	1	1	1	1	1	1	0	1	-0	274,27235	320,85674	0
15.01.2021	11:05:30	0	18,25142	4,324512	2,05875	7,1244	0,261	89,134	0	1015,1	6,9	8,9	8,8	1	1	1	1	1	1	1	1	1	0	1	-0	274,391671	321,415454	0
15.01.2021	11:05:31	0	18,602295	3,983102	2,022	5,67	0,257	89,124	0	1014,9	6,9	9	8,8	1	1	1	1	1	1	1	1	1	0	1	-0	274,261812	320,807436	0
15.01.2021	11:05:32	0	18,719308	3,072677	1,977	11,6856	0,256	89,131	0	1014,92	6,9	9	8,8	1	1	1	1	1	1	1	1	1	0	1	-0	274,227231	320,645663	0
15.01.2021	11:05:33	0	18,368466	2,617464	2,163	17,6796	0,26	89,123	0	1015,3	7	8,9	8,8	1	1	1	1	1	1	1	1	1	0	1	-0	274,219721	320,610541	0
15.01.2021	11:05:34	0	18,602216	4,665913	2,3025	7,4988	0,259	89,121	0	1015,08	6,9	9,1	8,8	1	1	1	1	1	1	1	1	1	0	1	-0	274,308521	321,026034	0
15.01.2021	11:05:35	0	18,71949	3,186457	2,23125	17,6904	0,257	89,115	0	1015,06	6,9	8,9	8,9	1	1	1	1	1	1	1	1	1	0	1	-0	274,396216	321,436753	0
15.01.2021	11:05:36	0	18,60238	4,438303	2,1165	1,9224	0,261	89,12	0	1014,86	6,9	9	8,8	1	1	1	1	1	1	1	1	1	0	1	-0	274,249777	320,751127	0
15.01.2021	11:05:37	0	18,48553	3,300275	1,97625	14,2956	0,262	89,135	0	1015,1	6,9	8,9	8,8	1	1	1	1	1	1	1	1	1	0	1	-0	274,390156	321,408355	0
15.01.2021	11:05:38	0	18,953535	4,4383	1,90125	0,1116	0,256	89,127	0	1014,96	6,9	8,9	8,8	1	1	1	1	1	1	1	1	1	0	1	-0	274,362906	321,280697	0
15.01.2021	11:05:39	0	18,719558	4,324495	1,87125	3,7764	0,261	89,112	0	1015	6,9	8,9	8,8	1	1	1	1	1	1	1	1	1	0	1	-0	274,263317	320,814477	0
15.01.2021	11:05:40	0	18,836572	3,641678	1,88625	1,9188	0,261	89,121	0	1014,94	6,9	8,9	8,8	1	1	1	1	1	1	1	1	1	0	1	-0,140944	274,222724	320,483644	0
15.01.2021	11:05:41	0	19,070584	5,007306	1,85775	1,5552	0,256	89,13	0	1014,9	6,9	8,9	8,8	1	1	1	1	1	1	1	1	1	0	1	-0	274,287413	320,927233	0
15.01.2021	11:05:42	0	18,836606	4,096885	1,83525	12,852	0,252	89,127	0	1014,96	6,9	8,9	8,8	1	1	1	1	1	1	1	1	1	0	1	-0	274,358368	321,259442	0
15.01.2021	11:05:43	0	18,953488	3,641674	2,00025	14,292	0,254	89,137	0	1014,96	6,9	9	8,8	1	1	1	1	1	1	1	1	1	0	1	-0	274,20171	320,526317	0
15.01.2021	11:05:44	0	19,070636	3,072661	2,2305	9,738	0,258	89,138	0	1015,06	6,9	8,9	8,8	1	1	1	1	1	1	1	1	1	0	1	-0	274,28892	320,934286	0
15.01.2021	11:05:45	0	18,953655	4,438286	2,2665	13,1472	0,253	89,12	0	1014,98	6,9	8,9	8,8	1	1	1	1	1	1	1	1	1	0	1	-0	274,379554	321,358684	0
15.01.2021	11:05:46	0	19,304531	4,21068	2,17875	15,7788	0,254	89,135	0	1014,92	6,9	9	8,8	1	1	1	1	1	1	1	1	1	0	1	-0	274,337205	321,160331	0
15.01.2021	11:05:47	0	19,070688	3,983074	2,20425	7,8804	0,259	89,136	0	1014,94	6,9	8,9	8,8	1	1	1	1	1	1	1	1	1	0	1	-0	274,260308	320,800395	0
15.01.2021	11:05:48	0	19,187703	2,958853	2,35875	19,5264	0,261	89,14	0	1014,94	6,9	8,9	8,8	1	1	1	1	1	1	1	1	1	0	1	-0	274,388641	321,401257	0
15.01.2021	11:05:49	0	18,953724	3,41406	2,39925	9,3456	0,262	89,151	0	1015,1	6,9	8,9	8,8	1	1	1	1	1	1	1	1	1	0	1	-0	274,317575	321,068418	0
15.01.2021	11:05:50	0	19,07074	3,527861	2,517	7,5096	0,258	89,14	0	1015,06	6,9	8,9	8,8	1	1	1	1	1	1	1	1	1	0	1	-0	274,394701	321,429653	0
15.01.2021	11:05:51	0	19,538751	4,438274	2,6955	1,5408	0,257	89,135	0	1015,08	6,9	8,9	8,8	1	1	1	1	1	1	1	1	1	0	1	-0	274,287413	320,927233	0
15.01.2021	11:05:52	0	19,421634	3,755461	2,8095	359,4456	0,257	89,132	0	1015,06	6,9	9	8,8	1	1	1	1	1	1	1	1	1	0	1	-0	274,224226	320,631612	0
15.01.2021	11:05:53	0	19,655785	4,893478	2,93925	358,4448	0,252	89,137	0	1014,9	6,9	8,9	8,8	1	1	1	1	1	1	1	1	1	0	1	-0	274,308521	321,026034	0
15.01.2021	11:05:54	0	18,95381	3,527854	2,7885	4,0752	0,251	89,147	0	1014,96	6,9	8,9	8,8	1	1	1	1	1	1	1	1	1	0	1	-0	274,37804	321,351591	0
15.01.2021	11:05:55	0	19,304824	4,324465	2,54325	15,0084	0,255	89,155	0	1015,06	6,9	8,9	8,8	1	1	1	1	1	1	1	1	1	0	1	-0	274,376526	321,344499	0
15.01.2021	11:05:56	0	19,187842	5,007273	2,517	6,7968	0,253	89,153	0	1014,98	6,9	8,9	8,8	1	1	1	1	1	1	1	1	1	0	1	-0	274,314556	321,054287	0
15.01.2021	11:05:57	0	19,421858	4,438263	2,7	6,8112	0,263	89,154	0	1015	6,9	8,9	8,8	1	1	1	1	1	1	1	1	1	0	1	-0	274,212214	320,575436	0
15.01.2021	11:05:58	0	19,655874	4,210658	2,769	351,3204	0,256	89,156	0	1014,9	6,9	8,9	8,8	1	1	1	1	1	1	1	1	1	0	1	-0,704722	274,353831	320,533471	0
15.01.2021	11:05:59	0	19,772891	4,893465	2,65875	357,2388	0,254	89,164	0	1014,98	6,9	8,9	8,8	1	1	1	1	1	1	1	1	1	0	1	-0	274,204711	320,540348	0
15.01.2021	11:06:00	0	19,65579	4,779659	2,46975	356,9112	0,254	89,16	0	1014,98	6,9	9	8,8	1	1	1	1	1	1	1	1	1	0	1	-0	274,243762	320,722989	0
15.01.2021	11:06:01	0	19,65579	4,779659	2,46975	356,9112	0,254	89,16	0	1014,98	6,9	9	8,8	1	1	1	1	1	1	1	1	1	0	1	-0	274,255794	320,779276	0
15.01.2021	11:06:02	0	19,42181	5,462465	2,39775	350,9784	0,26	89,16	0	1014,98	6,9	9	8,8	1	1	1	1	1	1	1	1	1	0	1	-0	274,387126	321,39416	0
15.01.2021	11:06:03	0	19,421963	3,527841	2,331	345,0204	0,245	89,165	0	1014,88	7	8,9	8,8	1	1	1	1	1	1	1	1	1	0	1	-0	274,267833	320,835606	0
15.01.2021	11:06:04	0	19,421981	4,779653	2,337	346,8564	0,256	89,161	0	1014,96	6,9	8,9	8,8	1	1	1	1	1	1	1	1	1	0	1	-0	274,218219	320,603519	0
15.01.2021	11:06:05	0	19,304998	2,958831	2,32125	337,5864	0,256	89,175	0	1015,02	6,9	8,9	8,8	1	1	1	1	1	1	1	1	1	0	1	-0	274,27988	320,891978	0
15.01.2021	11:06:06	0	19,305016	4,89345	2,25675	339,4008	0,254	89,166	0	1015	6,9	8,9	8,8	1	1	1	1	1	1	1	1	1	0	1	-0	274,240755	320,708923	0
15.01.2021	11:06:07	0	19,889895	3,186431	2,205	342,2268	0,252	89,181	0	1015,02	7	9	8,8	1	1	1	1	1	1	1	1	1	0	1	-0	274,219721	320,610541	0
15.01.2021	11:06:08	0	19,539051	2,958828	2,0565	339,1128	0,255	89,182	0	1014,98	6,9	8,9	8,8	1	1	1	1	1	1	1	1	1	0	1	-0	274,225728	320,638637	0
15.01.2021	11:06:09	0	19,656069	5,007245	1,84425	344,2572	0,249	89,158	0	1014,88	6,9	8,9	8,8	1	1	1	1	1	1	1	1	1	0	1	-0	274,37804	321,351591	0
15.01.2021	11:06:10	0	19,422086	4,324437	1,71525	347,6124	0,26	89,185	0	1014,94	6,9	8,9	8,8	1	1	1	1	1	1	1	1	1	0	1	-0	274,356855	321,252358	0
15.01.2021	11:06:11	0	19,773105	4,89341	1,63275	335,6568	0,257	89,167	0	1014,96	6,9	8,9	8,9	1	1	1	1	1	1	1	1	1	0	1	-0	274,258803	320,793354	0
15.01.2021	11:06:12	0	19,422121	3,755406	1,57875	336,8016	0,257	89,19	0	1014,76	6,9	8,9	8,9	1	1	1	1	1	1	1	1	1	0	1	-0	274,210713	320,568417	0
15.01.2021	11:06:13	0	19,539139	2,958821	1,5435	348,3144	0,252	89,175	0	1014,86	6,9	8,9	8,8	1	1	1	1	1	1	1	1	1	0	1	-0	274,335694	321,153257	0
15.01.2021	11:06:14	0	19,422156	3,414002	1,48725	342,3528	0,258	89,186	0	1015,02	6,9	8,9	8,9	1	1	1	1	1	1	1	1	1	0	1	-0	274,212214	320,575436	0
15.01.2021	11:06:15	0	19,656176	3,18642	1,56825	350,7624	0,249	89,178	0	1014,88	6,9	8,9	8,8	1	1	1	1	1	1	1	1	1	0	1	-0	274,349295	321,21695	0
15.01.2021	11:06:16	0	19,656193	4,324425	1,58325	350,2332	0,253	89,201	0	1014,88	7	8,9	8,8	1	1	1	1	1	1	1	1	1	0	1	-0	274,218219	320,603519	0
15.01.2021	11:06:17	0	19,890074	3,983022	1,6515	351,1188	0,253	89,194	0	1014,96	6,9	9	8,8	1	1	1	1	1	1	1	1	1	0	1	-0	274,219721	320,610541	0
15.01.2021	11:06:18	0	19,890232	3,755419	1,71225	354,9528	0,253	89,207	0	1014,94	6,9	8,9	8,8	1	1	1	1	1	1	1	1	1	0	1	-0	274,281386	320,899028	0
15.01.2021	11:06:19	0	19,656109	2,617412	1,81275	352,044	0,253	89,189	0	1014,9	6,9	9	8,8	1	1	1	1	1	1	1	1	1	0	1	-0	274,384097	321,379968	0
15.01.2021	11:06:20	0	20,007269	3,641615	1,88775	353,1204	0,253	89,193	0	1014,9	7	8,9	8,8	1	1	1	1	1	1	1	1	1	0	1	-0	274,349295	321,21695	0
15.01.2021	11:06:21	0	19,890285	4,324416	1,911	355,7772	0,256	89,211	0	1015	6,9	8,9	8,8	1	1	1	1	1	1	1	1	1	0	1	-0,634249	274,361393	320,639362	0
15.01.2021	11:06:22	0	19,773301	3,414011	1,896	356,4216	0,257	89,189	0	1014,84	6,9	8,9	8,8	1	1	1	1	1	1	1	1	1	0	1	-0	274,379554	321,358684	0
15.01.2021	11:06:23	0	19,539316	3,983011	1,89675	0,4788	0,258	89,207	0	1014,96	6,9	8,9	8,8	1	1	1	1	1	1	1	1	1	0	1	-0	274,281386	320,899028	0
15.01.2021	11:06:24	0	20,007341	4,552011	1,9125	1,1556	0,254	89,218	0	1015,14	6,9	8,9	8,8	1	1	1	1	1	1	1	1	1	0	1	-0	274,216718	320,596497	0
15.01.2021	11:06:25	0	19,890357	2,731205	1,9635	0,1188	0,258	89,202	0	1014,94	6,9	8,9	8,8	1	1	1	1	1	1	1	1	1	0	1	-0	274,267833	320,835606	0
15.01.2021	11:06:26	0	19,890375	4,438207	2,09625	359,4132	0,26	89,223	0	1014,92	7	8,9	8,8	1	1	1	1	1	1	1	1	1	0	1	-0	274,240755	320,708923	0
15.01.2021	11:06:27	0	20,241258	3,300204	2,24475	8,2548	0,26	89,217	0	1015,06	6,9	9	8,8	1	1	1	1	1	1	1	1	1	0	1	-0	274,266328	320,828562	0
15.01.2021	11:06:28	0	19,890411	3,072602	2,42325	360	0,264	89,233	0	1015,08	6,9	8,9	8,8	1	1	1	1	1	1	1	1	1	0	1	-0	274,340227	321,174482	0
15.01.2021	11:06:29	0	19,890429	3,300201	2,56425	358,9992	0,255	89,228	0	1014,98	6,9	8,9	8,8	1	1	1	1	1	1	1	1	1	0	1	-0	274,346272	321,202791	0
15.01.2021	11:06:30	0	20,007309	3,527799	2,61	4,8348	0,26	89,226	0	1015,02	7	9	8,8	1	1	1	1	1	1	1	1	1	0	1	-0	274,326632	321,110825	0
15.01.2021	11:06:31	0	19,890464	2,958798	2,6145	1,9152	0,261	89,212	0	1015,02	6,9	8,9	8,8	1	1	1	1	1	1	1	1	1	0	1	-0	274,391671	321,415454	0
15.01.2021	11:06:32	0	20,124347	2,731197	2,63325	6,4188	0,261	89,241	0	1014,94	6,9	9	8,8	1	1	1	1	1	1	1	1	1	0	1	-0	274,260308	320,800395	0
15.01.2021	11:06:33	0	20,358512	5,348592	2,637	2,1096	0,25	89,224	0	1014,9	6,9	8,9	8,8	1	1	1	1	1	1	1	1	1	0	1	-0	274,278374	320,884929	0
15.01.2021	11:06:34	0	20,124524	2,844977	2,5245	0	0,263	89,244	0	1015,02	7	8,9	8,9	1	1	1	1	1	1	1	1	1	0	1	-0	274,384097	321,379968	0
15.01.2021	11:06:35	0	20,007539	3,869191	2,493	353,9772	0,257	89,218	0	1014,98	6,9	8,9	8,8	1	1	1	1	1	1	1	1	1	0	1	-0	274,35988	321,266526	0
15.01.2021	11:06:36	0	20,358567	3,300191	2,511	341,6508	0,26	89,234	0	1014,98	6,9	8,9	8,8	1	1	1	1	1	1	1	1	1	0	1	-0	274,222724	320,624588	0
15.01.2021	11:06:37	0	20,124578	3,641588	2,49	24,8004	0,263	89,24	0	1014,94	6,9	8,9	8,8	1	1	1	1	1	1	1	1	1	0	1	-0	274,349295	321,21695	0
15.01.2021	11:06:38	0	20,124456	3,869186	2,45775	18,0612	0,259	89,241	0	1014,78	7	9	8,8	1	1	1	1	1	1	1	1	1	0	1	-0	274,385611	321,387064	0
15.01.2021	11:06:39	0	20,124474	5,234778	2,27925	29,5704	0,257	89,246	0	1015,02	6,9	9	8,8	1	1	1	1	1	1	1	1	1	0	1	-0	274,346272	321,202791	0
15.01.2021	11:06:40	0	20,124633	4,551979	1,9515	42,912	0,26	89,232	0	1014,86	7	8,9	8,8	1	1	1	1	1	1	1	1	1	0	1	-0	274,367445	321,301958	0
15.01.2021	11:06:41	0	20,241513	5,120974	1,6785	65,4444	0,258	89,243	0	1015	6,9	9	8,8	1	1	1	1	1	1	1	1	1	0	1	-0	274,371985	321,323225	0
15.01.2021	11:06:42	0	19,890522	4,779574	1,43625	54,8028	0,253	89,239	0	1014,86	7	9	8,8	1	1	1	1	1	1	1	1	1	0	1	-0	274,37804	321,351591	0
15.01.2021	11:06:43	0	20,358695	4,324375	1,3995	350,6256	0,263	89,229	0	1014,86	7	8,9	8,8	1	1	1	1	1	1	1	1	1	0	1	-0	274,257298	320,786315	0
15.01.2021	11:06:44	0	20,124705	3,641577	1,55175	351,7632	0,262	89,249	0	1014,88	6,9	8,9	8,8	1	1	1	1	1	1	1	1	1	0	1	-0	274,397732	321,443854	0
15.01.2021	11:06:45	0	20,007579	2,844964	1,69425	360	0,257	89,239	0	1015,02	7	9	8,9	1	1	1	1	1	1	1	1	1	0	1	-0	274,402279	321,465162	0
15.01.2021	11:06:46	0	20,007737	4,665767	1,8165	7,4916	0,264	89,26	0	1014,88	7	8,9	8,8	1	1	1	1	1	1	1	1	1	0	1	-0	274,270844	320,849695	0
15.01.2021	11:06:47	0	20,124618	3,98297	1,94625	13,1436	0,258	89,252	0	1015,02	7	9	8,8	1	1	1	1	1	1	1	1	1	0	1	-1,832276	274,381068	319,533502	0
15.01.2021	11:06:48	0	20,007633	4,096742	2,19375	5,6808	0,262	89,243	0	1014,92	6,9	9	8,9	1	1	1	1	1	1	1	1	1	0	1	-0	274,302488	320,997792	0
15.01.2021	11:06:49	0	20,2418	4,438162	2,38125	358,11	0,259	89,223	0	1014,96	6,9	8,9	8,8	1	1	1	1	1	1	1	1	1	0	1	-0	274,384097	321,379968	0
15.01.2021	11:06:50	0	20,358823	4,665758	2,49075	343,0476	0,263	89,244	0	1015,02	6,9	8,9	8,8	1	1	1	1	1	1	1	1	1	0	1	-0	274,317575	321,068418	0
15.01.2021	11:06:51	0	20,241694	3,413968	2,68275	343,5588	0,261	89,246	0	1014,88	6,9	9	8,8	1	1	1	1	1	1	1	1	1	0	1	-0	274,264822	320,821519	0
15.01.2021	11:06:52	0	19,773835	4,324332	2,81175	356,1192	0,26	89,241	0	1014,9	6,9	8,9	8,9	1	1	1	1	1	1	1	1	1	0	1	-0	274,242259	320,715956	0
15.01.2021	11:06:53	0	20,592743	3,300166	2,95125	8,9892	0,259	89,236	0	1014,88	6,9	9	8,8	1	1	1	1	1	1	1	1	1	0	1	-0	274,352319	321,231111	0
15.01.2021	11:06:54	0	20,124885	4,551952	3,0645	0,4824	0,26	89,254	0	1014,98	6,9	8,9	8,8	1	1	1	1	1	1	1	1	1	0	1	-0	274,326632	321,110825	0
15.01.2021	11:06:55	0	20,007758	3,527761	3,3375	360	0,259	89,257	0	1014,94	6,9	9	8,8	1	1	1	1	1	1	1	1	1	0	1	-0	274,40986	321,500688	0
15.01.2021	11:06:56	0	20,124921	5,007142	3,435	359,8452	0,259	89,239	0	1014,92	7	8,9	8,8	1	1	1	1	1	1	1	1	1	0	1	-0,493305	274,526985	321,556632	0
15.01.2021	11:06:57	0	20,007794	3,413959	3,4425	1,548	0,261	89,249	0	1014,94	6,9	9	8,8	1	1	1	1	1	1	1	1	1	0	1	-0	274,102948	320,06478	0
15.01.2021	11:06:58	0	20,241821	2,844948	3,44925	356,5224	0,26	89,253	0	1015,02	6,9	9	8,9	1	1	1	1	1	1	1	1	1	0	1	-0	274,317575	321,068418	0
15.01.2021	11:06:59	0	19,890825	3,755352	3,54	359,5212	0,265	89,24	0	1014,94	7	9	8,8	1	1	1	1	1	1	1	1	1	0	1	-0	274,387126	321,39416	0
15.01.2021	11:07:00	0	20,007866	3,641528	3,42375	0,4788	0,265	89,254	0	1015,02	6,9	9	8,9	1	1	1	1	1	1	1	1	1	0	1	-0	274,362906	321,280697	0
15.01.2021	11:07:01	0	20,007866	3,641528	3,42375	0,4788	0,265	89,254	0	1015,02	6,9	9	8,9	1	1	1	1	1	1	1	1	1	0	1	-0	274,221223	320,617564	0
15.01.2021	11:07:02	0	20,358899	3,072538	3,3615	2,6244	0,258	89,239	0	1015	6,9	9	8,9	1	1	1	1	1	1	1	1	1	0	1	-0	274,302488	320,997792	0
15.01.2021	11:07:03	0	19,774029	4,210539	3,357	11,7036	0,274	89,249	0	1015,12	6,9	8,9	8,8	1	1	1	1	1	1	1	1	1	0	1	-0	274,236246	320,687831	0
15.01.2021	11:07:04	0	20,008059	4,324335	3,20475	16,47	0,261	89,253	0	1014,98	6,9	8,9	8,8	1	1	1	1	1	1	1	1	1	0	1	-0	274,381068	321,365778	0
15.01.2021	11:07:05	0	20,358954	3,641544	3,0405	12,9456	0,257	89,252	0	1014,96	6,9	9	8,8	1	1	1	1	1	1	1	1	1	0	1	-0	274,297964	320,976617	0
15.01.2021	11:07:06	0	20,358972	3,18633	2,6355	22,8312	0,259	89,252	0	1015	6,9	9	8,9	1	1	1	1	1	1	1	1	1	0	1	-0	274,397732	321,443854	0
15.01.2021	11:07:07	0	20,12512	3,982911	2,40375	29,9376	0,26	89,247	0	1014,96	6,9	8,9	8,9	1	1	1	1	1	1	1	1	1	0	1	-0	274,266328	320,828562	0
15.01.2021	11:07:08	0	19,891124	4,21053	2,32125	26,8992	0,261	89,246	0	1015,04	6,9	8,9	8,8	1	1	1	1	1	1	1	1	1	0	1	-0,281889	274,358368	320,977553	0
15.01.2021	11:07:09	0	19,891142	4,3243	2,157	34,6896	0,261	89,254	0	1015,08	6,9	8,9	8,9	1	1	1	1	1	1	1	1	1	0	1	-0	274,225728	320,638637	0
15.01.2021	11:07:10	0	20,125174	2,731152	1,94775	13,1544	0,263	89,246	0	1014,92	6,9	8,9	8,8	1	1	1	1	1	1	1	1	1	0	1	-0	274,352319	321,231111	0
15.01.2021	11:07:11	0	20,008185	3,641535	2,07075	1,1808	0,257	89,248	0	1015,08	6,9	8,9	8,8	1	1	1	1	1	1	1	1	1	0	1	-0	274,387126	321,39416	0
15.01.2021	11:07:12	0	20,242075	3,641533	2,36775	359,6184	0,265	89,24	0	1015,04	6,9	9	8,8	1	1	1	1	1	1	1	1	1	0	1	-0	274,282893	320,906078	0
15.01.2021	11:07:13	0	19,657061	3,982925	2,334	342,2916	0,255	89,249	0	1014,96	6,9	9	8,8	1	1	1	1	1	1	1	1	1	0	1	-0,070472	274,393186	321,352081	0
15.01.2021	11:07:14	0	20,242253	4,551912	2,094	339,1236	0,26	89,249	0	1014,98	6,9	8,9	8,8	1	1	1	1	1	1	1	1	1	0	1	-0	274,307013	321,018972	0
15.01.2021	11:07:15	0	20,359136	3,072539	2,0055	352,6992	0,26	89,228	0	1014,92	6,9	9	8,8	1	1	1	1	1	1	1	1	1	0	1	-0	274,388641	321,401257	0
15.01.2021	11:07:16	0	20,008274	2,50355	2,06925	338,3388	0,259	89,242	0	1014,98	7	8,9	8,8	1	1	1	1	1	1	1	1	1	0	1	-0	274,269338	320,84265	0
15.01.2021	11:07:17	0	19,774138	4,210513	2,35575	9,3456	0,257	89,238	0	1014,98	7	9	8,8	1	1	1	1	1	1	1	1	1	0	1	-0	274,387126	321,39416	0
15.01.2021	11:07:18	0	20,242183	4,779471	2,6685	15,0156	0,256	89,239	0	1014,92	7	9	8,9	1	1	1	1	1	1	1	1	1	0	1	-0	274,305504	321,011912	0
15.01.2021	11:07:19	0	19,891181	4,551902	2,84025	12,8268	0,262	89,242	0	1015	6,9	9	8,8	1	1	1	1	1	1	1	1	1	0	1	-0,98661	274,23324	319,687162	0
15.01.2021	11:07:20	0	20,125212	4,893293	2,931	16,8516	0,258	89,236	0	1014,92	6,9	9	8,8	1	1	1	1	1	1	1	1	1	0	1	-0	274,364419	321,287783	0
15.01.2021	11:07:21	0	19,774209	2,731139	2,9655	13,9176	0,261	89,238	0	1015,1	6,9	9	8,8	1	1	1	1	1	1	1	1	1	0	1	-0	274,267833	320,835606	0
15.01.2021	11:07:22	0	20,125248	5,120853	3,24975	7,506	0,261	89,232	0	1014,98	7	9	8,9	1	1	1	1	1	1	1	1	1	0	1	-0	274,352319	321,231111	0
15.01.2021	11:07:23	0	19,891391	4,551895	3,2715	25,434	0,261	89,214	0	1015,1	7	8,9	8,8	1	1	1	1	1	1	1	1	1	0	1	-0	274,267833	320,835606	0
15.01.2021	11:07:24	0	19,774262	2,844933	3,15825	22,446	0,265	89,236	0	1015,22	6,9	9	8,8	1	1	1	1	1	1	1	1	1	0	1	-2,396054	274,222724	318,228534	0
15.01.2021	11:07:25	0	20,008435	3,300101	3,19425	12,852	0,262	89,235	0	1014,92	7	8,9	8,9	1	1	1	1	1	1	1	1	1	0	1	-0,634249	274,356855	320,618109	0
15.01.2021	11:07:26	0	19,540282	2,389742	3,51	13,9104	0,261	89,232	0	1015,1	7	9	8,8	1	1	1	1	1	1	1	1	1	0	1	-0,281889	274,224226	320,349724	0
15.01.2021	11:07:27	0	20,00833	3,300098	3,64875	15,39	0,262	89,221	0	1014,88	7	9	8,9	1	1	1	1	1	1	1	1	1	0	1	-0	274,314556	321,054287	0
15.01.2021	11:07:28	0	19,774332	3,641486	3,67125	5,2164	0,26	89,207	0	1015,06	7	9	8,9	1	1	1	1	1	1	1	1	1	0	1	-0	274,37804	321,351591	0
15.01.2021	11:07:29	0	19,891358	5,120868	3,588	359,8416	0,255	89,203	0	1015,08	6,9	9	8,8	1	1	1	1	1	1	1	1	1	0	1	-0	274,328142	321,117895	0
15.01.2021	11:07:30	0	20,125392	5,007069	3,26925	355,0248	0,263	89,205	0	1015,2	7	9	8,8	1	1	1	1	1	1	1	1	1	0	1	-0	274,225728	320,638637	0
15.01.2021	11:07:31	0	19,657377	2,503518	3,24	7,5168	0,262	89,179	0	1014,94	6,9	9	8,9	1	1	1	1	1	1	1	1	1	0	1	-0	274,31003	321,033096	0
15.01.2021	11:07:32	0	19,891411	4,438053	3,2805	26,514	0,261	89,187	0	1015,08	6,9	9	8,9	1	1	1	1	1	1	1	1	1	0	1	-0	274,384097	321,379968	0
15.01.2021	11:07:33	0	20,008577	4,324281	3,0765	4,4496	0,26	89,179	0	1015,04	6,9	8,9	8,8	1	1	1	1	1	1	1	1	1	0	1	-0	274,297964	320,976617	0
15.01.2021	11:07:34	0	19,891446	4,438076	2,925	25,7832	0,252	89,157	0	1014,92	7	9	8,8	1	1	1	1	1	1	1	1	1	0	1	-0	274,382582	321,372873	0
15.01.2021	11:07:35	0	20,008473	4,096684	2,91225	4,824	0,259	89,155	0	1015	7	9	8,8	1	1	1	1	1	1	1	1	1	0	1	-0	274,352319	321,231111	0
15.01.2021	11:07:36	0	19,774473	4,438072	2,98575	6,8148	0,264	89,17	0	1014,98	7	9	8,8	1	1	1	1	1	1	1	1	1	0	1	-0	274,385611	321,387064	0
15.01.2021	11:07:37	0	20,242526	4,096681	2,77425	359,8812	0,259	89,163	0	1015,08	6,9	9	8,8	1	1	1	1	1	1	1	1	1	0	1	-0	274,352319	321,231111	0
15.01.2021	11:07:38	0	19,891657	5,007022	2,53725	10,5408	0,254	89,157	0	1014,96	7	8,9	8,9	1	1	1	1	1	1	1	1	1	0	1	-0	274,371985	321,323225	0
15.01.2021	11:07:39	0	19,891535	3,641469	2,499	0,8604	0,251	89,145	0	1015,04	6,9	9	8,9	1	1	1	1	1	1	1	1	1	0	1	-0	274,23324	320,673772	0
15.01.2021	11:07:40	0	19,774544	4,210472	2,5755	360	0,255	89,13	0	1014,8	7	9	8,8	1	1	1	1	1	1	1	1	1	0	1	-0	274,657108	322,660968	0
15.01.2021	11:07:41	0	19,657552	4,665628	2,724	7,2036	0,26	89,14	0	1015,1	6,9	9	8,9	1	1	1	1	1	1	1	1	1	0	1	-0	274,385611	321,387064	0
15.01.2021	11:07:42	0	20,242616	5,007043	2,8815	8,262	0,26	89,135	0	1015,02	7	9	8,8	1	1	1	1	1	1	1	1	1	0	1	-0	274,382582	321,372873	0
15.01.2021	11:07:43	0	20,008615	3,982897	3,144	360	0,262	89,143	0	1015,1	7	9	8,7	1	1	1	1	1	1	1	1	1	0	1	-0	274,257298	320,786315	0
15.01.2021	11:07:44	0	20,125643	3,41387	3,28275	3,3876	0,262	89,133	0	1015,16	6,9	9	8,9	1	1	1	1	1	1	1	1	1	0	1	-0	274,269338	320,84265	0
15.01.2021	11:07:45	0	20,008651	4,210437	3,285	3,0276	0,259	89,137	0	1015,06	6,9	9	8,9	1	1	1	1	1	1	1	1	1	0	1	-0	274,246769	320,737056	0
15.01.2021	11:07:46	0	19,891659	2,958685	3,2565	353,826	0,259	89,142	0	1015,08	7	9	8,9	1	1	1	1	1	1	1	1	1	0	1	-0,98661	274,219721	319,623931	0
15.01.2021	11:07:47	0	19,891676	3,527682	3,2745	0,8748	0,259	89,131	0	1015,12	6,9	9	8,8	1	1	1	1	1	1	1	1	1	0	1	-0	274,246769	320,737056	0
15.01.2021	11:07:48	0	19,891694	4,438076	3,033	16,0884	0,253	89,13	0	1015,06	6,9	9	8,7	1	1	1	1	1	1	1	1	1	0	1	-0	274,213715	320,582456	0
15.01.2021	11:07:49	0	19,891712	3,869067	2,766	12,9276	0,252	89,122	0	1014,86	7	9	8,8	1	1	1	1	1	1	1	1	1	0	1	-0	274,30098	320,990733	0
15.01.2021	11:07:50	0	19,774858	4,438019	2,77275	27,27	0,257	89,133	0	1015,08	7	8,9	8,9	1	1	1	1	1	1	1	1	1	0	1	-0	274,218219	320,603519	0
15.01.2021	11:07:51	0	19,657727	5,007054	2,9325	16,848	0,255	89,133	0	1014,9	6,9	9	8,7	1	1	1	1	1	1	1	1	1	0	1	-0	274,219721	320,610541	0
15.01.2021	11:07:52	0	19,891765	4,551811	2,88	18,54	0,257	89,14	0	1014,88	7	9	8,9	1	1	1	1	1	1	1	1	1	0	1	-0	274,322103	321,089618	0
15.01.2021	11:07:53	0	19,657899	3,869061	3,012	7,614	0,259	89,14	0	1014,94	7	8,9	8,8	1	1	1	1	1	1	1	1	1	0	1	-0	274,221223	320,617564	0
15.01.2021	11:07:54	0	19,891939	3,755263	3,174	2,646	0,252	89,125	0	1014,92	7	8,9	8,8	1	1	1	1	1	1	1	1	1	0	1	-0	274,305504	321,011912	0
15.01.2021	11:07:55	0	19,657796	4,6656	3,45675	8,5968	0,254	89,147	0	1015,04	7	9	8,9	1	1	1	1	1	1	1	1	1	0	1	-0	274,405311	321,479371	0
15.01.2021	11:07:56	0	19,774963	3,072485	3,741	6,4224	0,253	89,131	0	1014,86	7	8,9	8,8	1	1	1	1	1	1	1	1	1	0	1	-0	274,249777	320,751127	0
15.01.2021	11:07:57	0	19,891992	2,731081	4,077	8,604	0,257	89,149	0	1014,94	6,9	8,9	8,9	1	1	1	1	1	1	1	1	1	0	1	-0,916138	274,381068	320,44964	0
15.01.2021	11:07:58	0	19,774998	2,958687	4,1445	7,5024	0,26	89,143	0	1014,9	6,9	8,9	8,8	1	1	1	1	1	1	1	1	1	0	1	-0	274,216718	320,596497	0
15.01.2021	11:07:59	0	19,774877	4,551824	4,1745	11,718	0,259	89,155	0	1015,08	7	9	8,8	1	1	1	1	1	1	1	1	1	0	1	-0	274,210713	320,568417	0
15.01.2021	11:08:00	0	19,774912	4,893207	4,0725	4,0788	0,255	89,16	0	1015,04	6,9	9	8,8	1	1	1	1	1	1	1	1	1	0	1	-0	274,340227	321,174482	0
15.01.2021	11:08:01	0	19,774912	4,893207	4,0725	4,0788	0,255	89,16	0	1015,04	6,9	9	8,8	1	1	1	1	1	1	1	1	1	0	1	-0	274,219721	320,610541	0
15.01.2021	11:08:02	0	20,126105	4,893205	4,05675	358,7184	0,255	89,138	0	1014,92	7	8,9	8,8	1	1	1	1	1	1	1	1	1	0	1	-0	274,290427	320,941339	0
15.01.2021	11:08:03	0	19,775086	3,300067	3,94875	358,7364	0,257	89,172	0	1015,04	7	8,9	8,8	1	1	1	1	1	1	1	1	1	0	1	-0	274,397732	321,443854	0
15.01.2021	11:08:04	0	19,892116	3,982838	3,6525	6,4224	0,256	89,163	0	1014,96	7	8,9	8,8	1	1	1	1	1	1	1	1	1	0	1	-0	274,282893	320,906078	0
15.01.2021	11:08:05	0	19,657971	2,503482	3,46725	11,682	0,253	89,151	0	1014,96	6,9	9	8,9	1	1	1	1	1	1	1	1	1	0	1	-2,60747	274,396216	318,829283	0
15.01.2021	11:08:06	0	19,658126	4,665578	3,44325	13,158	0,256	89,151	0	1015,08	7	8,9	8,9	1	1	1	1	1	1	1	1	1	0	1	-0	274,34476	321,195713	0
15.01.2021	11:08:07	0	19,775156	4,096603	3,9435	9,8784	0,254	89,172	0	1015,04	7	8,9	8,9	1	1	1	1	1	1	1	1	1	0	1	-0	274,251281	320,758163	0
15.01.2021	11:08:08	0	19,541148	4,665602	4,08675	8,6256	0,255	89,161	0	1014,98	6,9	8,9	8,8	1	1	1	1	1	1	1	1	1	0	1	-0	274,394701	321,429653	0
15.01.2021	11:08:09	0	19,658178	3,52767	4,03275	12,8556	0,258	89,157	0	1015	6,9	8,9	8,7	1	1	1	1	1	1	1	1	1	0	1	-0	274,317575	321,068418	0
15.01.2021	11:08:10	0	19,892221	4,893159	3,92175	12,0996	0,254	89,135	0	1015,02	7	8,9	8,9	1	1	1	1	1	1	1	1	1	0	1	-0	274,388641	321,401257	0
15.01.2021	11:08:11	0	19,8921	4,210416	3,83625	15,03	0,256	89,155	0	1014,98	7	9	8,8	1	1	1	1	1	1	1	1	1	0	1	-0	274,270844	320,849695	0
15.01.2021	11:08:12	0	19,892257	2,844874	3,89175	4,4712	0,254	89,149	0	1015,04	7	8,9	8,8	1	1	1	1	1	1	1	1	1	0	1	-0	274,388641	321,401257	0
15.01.2021	11:08:13	0	19,892274	4,438002	3,933	7,5096	0,255	89,128	0	1014,94	7	8,9	8,8	1	1	1	1	1	1	1	1	1	0	1	-0	274,362906	321,280697	0
15.01.2021	11:08:14	0	19,892292	2,958649	3,966	2,6388	0,252	89,14	0	1015,1	7	8,9	8,9	1	1	1	1	1	1	1	1	1	0	1	-0	274,361393	321,273611	0
15.01.2021	11:08:15	0	19,89217	2,617265	4,02225	10,4436	0,255	89,143	0	1015,04	7	9	8,9	1	1	1	1	1	1	1	1	1	0	1	-0	274,216718	320,596497	0
15.01.2021	11:08:16	0	20,126354	3,186235	4,0305	18,4536	0,256	89,148	0	1015,02	6,9	8,9	8,9	1	1	1	1	1	1	1	1	1	0	1	-4,862579	274,337205	316,297752	0
15.01.2021	11:08:17	0	19,775331	4,437968	4,0035	14,6484	0,251	89,141	0	1015,06	7	8,9	8,9	1	1	1	1	1	1	1	1	1	0	1	-0	274,390156	321,408355	0
15.01.2021	11:08:18	0	19,658334	4,324172	4,056	15,3972	0,256	89,148	0	1014,9	7	8,9	8,9	1	1	1	1	1	1	1	1	1	0	1	-0	274,403795	321,472266	0
15.01.2021	11:08:19	0	19,89224	2,844849	3,9105	17,7012	0,252	89,134	0	1015,02	7	9	8,9	1	1	1	1	1	1	1	1	1	0	1	-0	274,346272	321,202791	0
15.01.2021	11:08:20	0	19,892258	3,869016	3,90375	15,4836	0,258	89,122	0	1014,96	7	9	8,8	1	1	1	1	1	1	1	1	1	0	1	-0	274,399247	321,450956	0
15.01.2021	11:08:21	0	20,126443	2,731069	3,96825	13,9068	0,251	89,107	0	1014,98	7	8,9	8,8	1	1	1	1	1	1	1	1	1	0	1	-0	274,276867	320,877881	0
15.01.2021	11:08:22	0	19,77528	2,844862	4,077	23,6016	0,255	89,123	0	1015,08	7	9	8,8	1	1	1	1	1	1	1	1	1	0	1	-0	274,242259	320,715956	0
15.01.2021	11:08:23	0	19,892311	3,413813	4,0305	6,0516	0,249	89,109	0	1015,06	7	9	8,9	1	1	1	1	1	1	1	1	1	0	1	-0	274,254289	320,772238	0
15.01.2021	11:08:24	0	19,892468	3,869009	3,939	6,4512	0,257	89,117	0	1015,08	7	8,9	8,8	1	1	1	1	1	1	1	1	1	0	1	-0	274,37804	321,351591	0
15.01.2021	11:08:25	0	20,360401	4,210391	3,96225	23,9652	0,257	89,118	0	1015,04	6,9	9	8,8	1	1	1	1	1	1	1	1	1	0	1	-0	274,379554	321,358684	0
15.01.2021	11:08:26	0	20,009518	4,779332	3,87375	21,7692	0,256	89,11	0	1015	7	8,9	8,9	1	1	1	1	1	1	1	1	1	0	1	-0	274,281386	320,899028	0
15.01.2021	11:08:27	0	20,243565	4,210412	3,702	4,1904	0,254	89,097	0	1014,94	7	8,9	8,7	1	1	1	1	1	1	1	1	1	0	1	-0	274,399247	321,450956	0
15.01.2021	11:08:28	0	19,892538	4,437974	3,64875	10,0584	0,251	89,105	0	1015,04	7	8,9	8,8	1	1	1	1	1	1	1	1	1	0	1	-0	274,328142	321,117895	0
15.01.2021	11:08:29	0	20,126586	3,413825	3,42675	356,1444	0,257	89,113	0	1014,98	6,9	8,9	8,8	1	1	1	1	1	1	1	1	1	0	1	-0	274,219721	320,610541	0
15.01.2021	11:08:30	0	20,477505	4,779324	3,087	360	0,251	89,105	0	1014,88	7	9	8,9	1	1	1	1	1	1	1	1	1	0	1	-0	274,455409	321,714202	0
15.01.2021	11:08:31	0	20,360509	3,982768	2,81175	354,0492	0,249	89,09	0	1015	7	9	8,9	1	1	1	1	1	1	1	1	1	0	1	-0	274,384097	321,379968	0
15.01.2021	11:08:32	0	20,360669	5,1207	2,63175	10,0332	0,251	89,097	0	1014,8	7	8,9	8,9	1	1	1	1	1	1	1	1	1	0	1	-0	274,323613	321,096687	0
15.01.2021	11:08:33	0	20,24353	4,32417	2,55675	360	0,247	89,089	0	1014,98	6,9	9	8,8	1	1	1	1	1	1	1	1	1	0	1	-0	274,219721	320,610541	0
15.01.2021	11:08:34	0	20,24369	4,779344	2,71425	22,0608	0,252	89,09	0	1014,8	7	8,9	8,8	1	1	1	1	1	1	1	1	1	0	1	-0	274,353831	321,238193	0
15.01.2021	11:08:35	0	20,126692	2,844829	2,87775	17,6904	0,253	89,085	0	1014,98	6,8	8,9	8,9	1	1	1	1	1	1	1	1	1	0	1	-0	274,231738	320,666744	0
15.01.2021	11:08:36	0	20,477614	4,779311	2,76225	4,4532	0,246	89,086	0	1014,9	7	9	8,9	1	1	1	1	1	1	1	1	1	0	1	-0	274,307013	321,018972	0
15.01.2021	11:08:37	0	20,477775	4,437983	2,7	7,5132	0,252	89,083	0	1014,98	6,9	8,9	8,7	1	1	1	1	1	1	1	1	1	0	1	-0	274,373498	321,330316	0
15.01.2021	11:08:38	0	20,594665	2,958619	2,751	10,062	0,25	89,086	0	1015,1	7	9	8,9	1	1	1	1	1	1	1	1	1	0	1	-0	274,246769	320,737056	0
15.01.2021	11:08:39	0	20,126622	4,324133	2,6505	6,0696	0,245	89,077	0	1015,1	7	9	8,9	1	1	1	1	1	1	1	1	1	0	1	-0,422833	274,340227	320,751649	0
15.01.2021	11:08:40	0	20,12664	2,389666	2,5635	6,0516	0,253	89,091	0	1015,04	7	9	8,8	1	1	1	1	1	1	1	1	1	0	1	-0	274,399247	321,450956	0
15.01.2021	11:08:41	0	20,126657	3,300014	2,5095	2,2968	0,241	89,076	0	1014,96	7	9	8,8	1	1	1	1	1	1	1	1	1	0	1	-0	274,332673	321,13911	0
15.01.2021	11:08:42	0	20,360706	4,210335	2,5425	5,2308	0,248	89,068	0	1015,08	7	9	8,9	1	1	1	1	1	1	1	1	1	0	1	-0	274,379554	321,358684	0
15.01.2021	11:08:43	0	20,24385	4,551712	2,532	9,0792	0,244	89,092	0	1014,88	7	8,9	8,9	1	1	1	1	1	1	1	1	1	0	1	-0	274,373498	321,330316	0
15.01.2021	11:08:44	0	20,477901	2,844853	2,55975	0,8676	0,25	89,096	0	1015,04	7	8,9	8,7	1	1	1	1	1	1	1	1	1	0	1	-0	274,246769	320,737056	0
15.01.2021	11:08:45	0	20,36076	4,324122	2,67375	8,9748	0,251	89,067	0	1015,08	7	9	8,9	1	1	1	1	1	1	1	1	1	0	1	-0	274,231738	320,666744	0
15.01.2021	11:08:46	0	20,59481	2,958627	2,52975	15,7788	0,252	89,072	0	1015,2	7	9	8,8	1	1	1	1	1	1	1	1	1	0	1	-0	274,331163	321,132038	0
15.01.2021	11:08:47	0	20,360796	3,982741	2,43225	7,1352	0,252	89,071	0	1015,06	7	9	8,9	1	1	1	1	1	1	1	1	1	0	1	-0	274,225728	320,638637	0
15.01.2021	11:08:48	0	20,946041	3,982739	2,39925	8,6004	0,249	89,086	0	1014,96	7	8,9	8,9	1	1	1	1	1	1	1	1	1	0	1	-0	274,269338	320,84265	0
15.01.2021	11:08:49	0	20,595008	3,982761	2,4645	10,818	0,253	89,063	0	1015,04	7	8,9	8,8	1	1	1	1	1	1	1	1	1	0	1	-0	274,375012	321,337407	0
15.01.2021	11:08:50	0	20,711899	5,006898	2,628	3,024	0,252	89,087	0	1015,12	7	9	8,8	1	1	1	1	1	1	1	1	1	0	1	-0	274,399247	321,450956	0
15.01.2021	11:08:51	0	20,946097	4,210369	2,56125	29,5596	0,244	89,08	0	1014,94	7	8,9	8,7	1	1	1	1	1	1	1	1	1	0	1	-0	274,290427	320,941339	0
15.01.2021	11:08:52	0	20,711935	4,551722	2,48475	8,9928	0,25	89,075	0	1015,02	7	9	8,8	1	1	1	1	1	1	1	1	1	0	1	-0	274,228733	320,652689	0
15.01.2021	11:08:53	0	21,180168	4,893099	2,56125	359,8704	0,252	89,084	0	1014,86	7	8,9	8,8	1	1	1	1	1	1	1	1	1	0	1	-0	274,358368	321,259442	0
15.01.2021	11:08:54	0	20,595099	4,665511	2,595	3,78	0,248	89,083	0	1014,98	7	8,9	8,8	1	1	1	1	1	1	1	1	1	0	1	-0	274,396216	321,436753	0
15.01.2021	11:08:55	0	20,946023	3,868958	2,67675	12,0888	0,248	89,08	0	1015,02	7	9	8,8	1	1	1	1	1	1	1	1	1	0	1	-0	274,264822	320,821519	0
15.01.2021	11:08:56	0	20,712153	3,413785	2,85975	11,1744	0,25	89,092	0	1014,94	7	8,9	8,8	1	1	1	1	1	1	1	1	1	0	1	-0	274,27235	320,85674	0
15.01.2021	11:08:57	0	20,595009	3,868932	2,91525	25,5096	0,251	89,1	0	1015,14	7	9	8,9	1	1	1	1	1	1	1	1	1	0	1	-0	274,391671	321,415454	0
15.01.2021	11:08:58	0	20,946225	4,324124	2,8905	21,0276	0,24	89,091	0	1015,1	6,9	8,9	8,8	1	1	1	1	1	1	1	1	1	0	1	-0	274,287413	320,927233	0
15.01.2021	11:08:59	0	20,82908	2,844818	3,02925	22,0536	0,246	89,106	0	1014,94	6,9	9	8,8	1	1	1	1	1	1	1	1	1	0	1	-0	274,412893	321,514904	0
15.01.2021	11:09:00	0	20,946281	4,779289	2,9385	6,9048	0,244	89,1	0	1014,88	7	8,9	8,8	1	1	1	1	1	1	1	1	1	0	1	-0	274,266328	320,828562	0
15.01.2021	11:09:01	0	20,946281	4,779289	2,9385	6,9048	0,244	89,1	0	1014,88	7	8,9	8,8	1	1	1	1	1	1	1	1	1	0	1	-0	274,340227	321,174482	0
15.01.2021	11:09:02	0	20,946152	4,551702	2,94375	8,9892	0,249	89,1	0	1015,02	7	9	8,8	1	1	1	1	1	1	1	1	1	0	1	-0	274,225728	320,638637	0
15.01.2021	11:09:03	0	21,063188	3,300003	3,018	18,846	0,246	89,097	0	1014,98	7	9	8,7	1	1	1	1	1	1	1	1	1	0	1	-0	274,316065	321,061352	0
15.01.2021	11:09:04	0	20,829171	3,186189	2,967	20,9988	0,244	89,107	0	1015	7	9	8,8	1	1	1	1	1	1	1	1	1	0	1	-0	274,243762	320,722989	0
15.01.2021	11:09:05	0	21,29741	4,893074	3,03	28,3392	0,248	89,091	0	1015,04	6,9	8,9	8,8	1	1	1	1	1	1	1	1	1	0	1	-0	274,382582	321,372873	0
15.01.2021	11:09:06	0	21,18041	4,437902	3,096	19,6092	0,252	89,115	0	1015,06	7	8,9	8,8	1	1	1	1	1	1	1	1	1	0	1	-0	274,356855	321,252358	0
15.01.2021	11:09:07	0	20,946391	3,868939	3,06075	20,6244	0,251	89,101	0	1015,02	7	8,9	8,8	1	1	1	1	1	1	1	1	1	0	1	-0	274,224226	320,631612	0
15.01.2021	11:09:08	0	20,82939	4,665483	2,99925	12,8592	0,243	89,105	0	1014,98	7	8,9	8,8	1	1	1	1	1	1	1	1	1	0	1	-0	274,343249	321,188635	0
15.01.2021	11:09:09	0	20,829262	2,617221	2,9475	18,4428	0,246	89,118	0	1015,12	7	9	8,8	1	1	1	1	1	1	1	1	1	0	1	-0	274,23324	320,673772	0
15.01.2021	11:09:10	0	21,180336	4,437868	2,8485	16,092	0,249	89,115	0	1014,96	7	9	8,9	1	1	1	1	1	1	1	1	1	0	1	-0	274,393186	321,422553	0
15.01.2021	11:09:11	0	21,180355	2,731011	2,90175	16,8444	0,244	89,099	0	1014,94	7	9	8,8	1	1	1	1	1	1	1	1	1	0	1	-0	274,27235	320,85674	0
15.01.2021	11:09:12	0	20,946483	2,730993	3,0555	15,3972	0,244	89,115	0	1014,94	7	8,9	8,9	1	1	1	1	1	1	1	1	1	0	1	-0	274,393186	321,422553	0
15.01.2021	11:09:13	0	21,29756	5,120641	2,93925	17,2332	0,246	89,118	0	1015,06	7	8,9	8,8	1	1	1	1	1	1	1	1	1	0	1	-0	274,281386	320,899028	0
15.01.2021	11:09:14	0	20,8295	2,844799	2,77125	12,852	0,249	89,113	0	1014,94	7	8,9	8,8	1	1	1	1	1	1	1	1	1	0	1	-0	274,231738	320,666744	0
15.01.2021	11:09:15	0	21,297597	3,755134	2,81325	35,8524	0,246	89,113	0	1015,04	7	8,9	8,8	1	1	1	1	1	1	1	1	1	0	1	-0	274,319084	321,075484	0
15.01.2021	11:09:16	0	21,180447	4,551648	2,892	17,6904	0,246	89,102	0	1014,84	7	9	8,9	1	1	1	1	1	1	1	1	1	0	1	-0	274,243762	320,722989	0
15.01.2021	11:09:17	0	21,180466	4,893019	2,811	24,7248	0,245	89,115	0	1014,84	7	9	8,9	1	1	1	1	1	1	1	1	1	0	1	-0	274,278374	320,884929	0
15.01.2021	11:09:18	0	20,946593	4,096504	2,77875	22,068	0,248	89,103	0	1014,92	7	8,9	8,8	1	1	1	1	1	1	1	1	1	0	1	-1,832276	274,393186	319,590277	0
15.01.2021	11:09:19	0	21,180651	5,006836	2,7735	25,4016	0,241	89,096	0	1015,06	7	8,9	8,8	1	1	1	1	1	1	1	1	1	0	1	-0	274,35988	321,266526	0
15.01.2021	11:09:20	0	21,06365	4,32411	2,718	16,1028	0,248	89,106	0	1015,08	7	8,9	8,7	1	1	1	1	1	1	1	1	1	0	1	-0	274,234743	320,680801	0
15.01.2021	11:09:21	0	21,063668	4,665457	2,7045	12,0852	0,245	89,097	0	1015,06	7	8,9	8,8	1	1	1	1	1	1	1	1	1	0	1	-0	274,367445	321,301958	0
15.01.2021	11:09:22	0	21,297578	4,551664	2,77575	25,0308	0,24	89,103	0	1014,92	7	9	8,8	1	1	1	1	1	1	1	1	1	0	1	-0	274,400763	321,458059	0
15.01.2021	11:09:23	0	21,414617	3,072372	2,93925	19,8864	0,242	89,11	0	1015,04	7	9	8,8	1	1	1	1	1	1	1	1	1	0	1	-0	274,242259	320,715956	0
15.01.2021	11:09:24	0	20,829536	2,389621	3,03	16,5528	0,243	89,108	0	1015,06	7	9	8,8	1	1	1	1	1	1	1	1	1	0	1	-0,704722	274,234743	319,976079	0
15.01.2021	11:09:25	0	20,8297	2,844786	3,11025	18,4428	0,246	89,11	0	1014,88	7	8,9	8,8	1	1	1	1	1	1	1	1	1	0	1	-0	274,237749	320,694861	0
15.01.2021	11:09:26	0	21,414823	3,072368	3,1035	16,848	0,239	89,106	0	1014,88	7	8,9	8,8	1	1	1	1	1	1	1	1	1	0	1	-0	274,290427	320,941339	0
15.01.2021	11:09:27	0	20,829591	2,617201	3,10725	23,9364	0,244	89,117	0	1015,02	7	9	8,8	1	1	1	1	1	1	1	1	1	0	1	-0	274,282893	320,906078	0
15.01.2021	11:09:28	0	20,946776	4,096487	3,069	16,4772	0,244	89,122	0	1015,06	7	8,9	8,8	1	1	1	1	1	1	1	1	1	0	1	-0	274,408343	321,493582	0
15.01.2021	11:09:29	0	21,297858	3,072364	2,943	12,8412	0,24	89,11	0	1015,02	7	8,9	8,8	1	1	1	1	1	1	1	1	1	0	1	-0	274,257298	320,786315	0
15.01.2021	11:09:30	0	21,063686	3,299945	3,01425	9,756	0,248	89,101	0	1014,96	7	9	8,8	1	1	1	1	1	1	1	1	1	0	1	-0,775194	274,396216	320,661559	0
15.01.2021	11:09:31	0	20,829663	3,186172	3,14175	4,464	0,242	89,118	0	1015,04	7	9	8,7	1	1	1	1	1	1	1	1	1	0	1	-0	274,234743	320,680801	0
15.01.2021	11:09:32	0	21,297764	3,755107	3,1665	13,5396	0,238	89,121	0	1015	7	9	8,8	1	1	1	1	1	1	1	1	1	0	1	-4,298802	274,323613	316,797885	0
15.01.2021	11:09:33	0	20,94672	2,958568	3,0735	15,0336	0,24	89,132	0	1014,96	7	9	8,8	1	1	1	1	1	1	1	1	1	0	1	-0	274,403795	321,472266	0
15.01.2021	11:09:34	0	20,829864	3,29994	2,976	9,756	0,243	89,138	0	1015,06	7	8,9	8,8	1	1	1	1	1	1	1	1	1	0	1	-2,114165	274,224226	318,517447	0
15.01.2021	11:09:35	0	20,829736	4,779221	2,91	4,0824	0,238	89,129	0	1014,94	7	9	8,8	1	1	1	1	1	1	1	1	1	0	1	-1,832276	274,287413	319,094957	0
15.01.2021	11:09:36	0	21,180966	4,665456	2,5395	4,8312	0,242	89,119	0	1014,94	7	8,9	8,7	1	1	1	1	1	1	1	1	1	0	1	-0,070472	274,367445	321,231486	0
15.01.2021	11:09:37	0	20,712751	4,437817	2,30775	0,8676	0,249	89,147	0	1015,08	7	9	8,9	1	1	1	1	1	1	1	1	1	0	1	-0	274,28892	320,934286	0
15.01.2021	11:09:38	0	20,595748	2,844754	2,12625	355,4532	0,242	89,135	0	1015	7	9	8,9	1	1	1	1	1	1	1	1	1	0	1	-0	274,243762	320,722989	0
15.01.2021	11:09:39	0	20,946977	3,527493	2,21925	348,3036	0,239	89,137	0	1015,12	7	8,9	8,9	1	1	1	1	1	1	1	1	1	0	1	-0	274,364419	321,287783	0
15.01.2021	11:09:40	0	20,829827	3,641303	2,38425	1,5516	0,243	89,135	0	1015	7	9	8,8	1	1	1	1	1	1	1	1	1	0	1	-0	274,261812	320,807436	0
15.01.2021	11:09:41	0	21,064036	3,072367	3,1485	9,72	0,243	89,209	0	1014,96	7	8,9	8,7	1	1	1	1	1	1	1	1	1	0	1	-0	274,376526	321,344499	0
15.01.2021	11:09:42	0	20,59582	2,730992	3,60525	14,3856	0,237	89,149	0	1015,04	7	9	8,7	1	1	1	1	1	1	1	1	1	0	1	-0	274,291934	320,948393	0
15.01.2021	11:09:43	0	20,830027	4,551623	3,8685	13,1616	0,244	89,146	0	1014,9	6,8	8,9	8,8	1	1	1	1	1	1	1	1	1	0	1	-0	274,397732	321,443854	0
15.01.2021	11:09:44	0	20,712878	3,982669	3,8865	15,408	0,239	89,122	0	1015,02	7	9	8,8	1	1	1	1	1	1	1	1	1	0	1	-0	274,362906	321,280697	0
15.01.2021	11:09:45	0	20,830064	3,868877	3,882	12,096	0,238	89,161	0	1015,04	7	8,9	8,8	1	1	1	1	1	1	1	1	1	0	1	-0	274,270844	320,849695	0
15.01.2021	11:09:46	0	20,712914	4,66538	3,96225	13,1508	0,239	89,131	0	1015,04	7	9	8,9	1	1	1	1	1	1	1	1	1	0	1	-0,563777	274,402279	320,901385	0
15.01.2021	11:09:47	0	20,829954	3,186131	4,128	8,9892	0,241	89,132	0	1014,9	7	9	8,8	1	1	1	1	1	1	1	1	1	0	1	-0	274,314556	321,054287	0
15.01.2021	11:09:48	0	20,596072	3,755081	4,185	6,0516	0,244	89,131	0	1015,06	7	8,9	8,8	1	1	1	1	1	1	1	1	1	0	1	-0	274,388641	321,401257	0
15.01.2021	11:09:49	0	20,59609	4,096451	3,94575	1,1808	0,243	89,121	0	1015,12	7	8,9	8,8	1	1	1	1	1	1	1	1	1	0	1	-2,959831	274,284399	317,953298	0
15.01.2021	11:09:50	0	20,595963	4,55161	3,64575	359,1216	0,239	89,129	0	1015,04	7	9	8,8	1	1	1	1	1	1	1	1	1	0	1	-0	274,397732	321,443854	0
15.01.2021	11:09:51	0	20,595981	4,892979	3,2955	13,9032	0,242	89,129	0	1015,1	7	9	8,8	1	1	1	1	1	1	1	1	1	0	1	-0	274,397732	321,443854	0
15.01.2021	11:09:52	0	20,713167	5,234379	3,07575	359,0064	0,239	89,135	0	1014,86	7	8,9	8,7	1	1	1	1	1	1	1	1	1	0	1	-0	274,387126	321,39416	0
15.01.2021	11:09:53	0	20,362114	2,617172	3,177	9,3564	0,241	89,113	0	1014,86	7	8,9	8,8	1	1	1	1	1	1	1	1	1	0	1	-0	274,242259	320,715956	0
15.01.2021	11:09:54	0	20,713058	4,892973	3,32625	6,9084	0,237	89,108	0	1015,04	7	9	8,8	1	1	1	1	1	1	1	1	1	0	1	-0	274,305504	321,011912	0
15.01.2021	11:09:55	0	20,830099	2,844733	3,6645	6,4224	0,239	89,126	0	1015,02	7	9	8,9	1	1	1	1	1	1	1	1	1	0	1	-0	274,228733	320,652689	0
15.01.2021	11:09:56	0	20,479048	3,755046	3,95925	3,4236	0,239	89,125	0	1014,92	7	9	8,9	1	1	1	1	1	1	1	1	1	0	1	-0	274,355343	321,245275	0
15.01.2021	11:09:57	0	20,830281	4,665359	4,074	8,604	0,241	89,122	0	1015,12	7	8,9	8,9	1	1	1	1	1	1	1	1	1	0	1	-0	274,243762	320,722989	0
15.01.2021	11:09:58	0	20,362203	3,186116	3,981	8,2584	0,243	89,119	0	1015,08	7	8,9	8,8	1	1	1	1	1	1	1	1	1	0	1	-0	274,331163	321,132038	0
15.01.2021	11:09:59	0	20,596125	3,186096	3,921	8,2692	0,242	89,128	0	1015,04	7	9	8,9	1	1	1	1	1	1	1	1	1	0	1	-0	274,403795	321,472266	0
15.01.2021	11:10:00	0	20,47928	2,617148	3,60975	15,7896	0,241	89,099	0	1014,98	7	8,9	8,9	1	1	1	1	1	1	1	1	1	0	1	-0	274,375012	321,337407	0
15.01.2021	11:10:01	0	20,47928	2,617148	3,60975	15,7896	0,241	89,099	0	1014,98	7	8,9	8,9	1	1	1	1	1	1	1	1	1	0	1	-0	274,303996	321,004851	0
15.01.2021	11:10:02	0	20,596323	4,551587	3,63225	8,6148	0,241	89,118	0	1014,94	7	8,9	8,8	1	1	1	1	1	1	1	1	1	0	1	-0	274,245266	320,730022	0
15.01.2021	11:10:03	0	20,830244	3,299899	3,45825	6,8328	0,242	89,171	0	1014,88	7	9	8,8	1	1	1	1	1	1	1	1	1	0	1	-0	274,281386	320,899028	0
15.01.2021	11:10:04	0	20,47919	5,006712	3,3345	4,4568	0,24	89,104	0	1015,06	7	9	8,9	1	1	1	1	1	1	1	1	1	0	1	-0	274,237749	320,694861	0
15.01.2021	11:10:05	0	20,83028	2,844738	3,3525	6,8112	0,249	89,1	0	1015,02	6,9	9	8,8	1	1	1	1	1	1	1	1	1	0	1	-2,255109	274,299472	318,728565	0
15.01.2021	11:10:06	0	20,479226	3,527495	3,33375	351,9864	0,241	89,121	0	1015,06	7	9	8,7	1	1	1	1	1	1	1	1	1	0	1	-0	274,225728	320,638637	0
15.01.2021	11:10:07	0	20,713437	4,892975	3,1245	356,5152	0,239	89,099	0	1014,9	7	8,9	8,7	1	1	1	1	1	1	1	1	1	0	1	-0	274,297964	320,976617	0
15.01.2021	11:10:08	0	20,245212	3,52745	3,153	0,4968	0,239	89,101	0	1014,98	7	9	8,9	1	1	1	1	1	1	1	1	1	0	1	-0	274,393186	321,422553	0
15.01.2021	11:10:09	0	20,830498	3,41368	3,3855	12,1716	0,238	89,1	0	1014,98	7	8,9	8,8	1	1	1	1	1	1	1	1	1	0	1	-0	274,261812	320,807436	0
15.01.2021	11:10:10	0	20,245389	3,072293	3,858	4,4568	0,237	89,093	0	1014,94	7	8,9	8,9	1	1	1	1	1	1	1	1	1	0	1	-0	274,320593	321,082551	0
15.01.2021	11:10:11	0	20,128382	4,324017	3,85275	1,926	0,241	89,112	0	1015,02	7	8,9	8,7	1	1	1	1	1	1	1	1	1	0	1	-0	274,225728	320,638637	0
15.01.2021	11:10:12	0	20,713382	4,551568	3,85725	8,982	0,238	89,101	0	1015,02	7	9	8,8	1	1	1	1	1	1	1	1	1	0	1	-0	274,361393	321,273611	0
15.01.2021	11:10:13	0	20,596519	3,641253	3,99	12,4632	0,238	89,102	0	1014,9	7	8,9	8,8	1	1	1	1	1	1	1	1	1	0	1	-0	274,388641	321,401257	0
15.01.2021	11:10:14	0	20,596537	2,958499	3,97575	4,0752	0,238	89,111	0	1014,98	7	8,9	8,9	1	1	1	1	1	1	1	1	1	0	1	-0	274,405311	321,479371	0
15.01.2021	11:10:15	0	20,245477	2,844709	3,8655	6,84	0,243	89,102	0	1014,98	7	8,9	8,9	1	1	1	1	1	1	1	1	1	0	1	-0	274,385611	321,387064	0
15.01.2021	11:10:16	0	20,362521	3,186073	3,74325	14,0184	0,239	89,105	0	1015,14	7	8,9	8,9	1	1	1	1	1	1	1	1	1	0	1	-0	274,219721	320,610541	0
15.01.2021	11:10:17	0	20,128486	2,844724	3,89325	9,7416	0,239	89,106	0	1015	7	8,9	8,8	1	1	1	1	1	1	1	1	1	0	1	-0	274,287413	320,927233	0
15.01.2021	11:10:18	0	20,362556	4,437768	3,78825	7,1244	0,233	89,116	0	1015,08	6,9	8,9	8,8	1	1	1	1	1	1	1	1	1	0	1	-0	274,399247	321,450956	0
15.01.2021	11:10:19	0	20,596482	3,299877	3,70125	3,024	0,239	89,106	0	1014,98	7	9	8,8	1	1	1	1	1	1	1	1	1	0	1	-0	274,331163	321,132038	0
15.01.2021	11:10:20	0	20,245423	3,641242	3,38025	15,0264	0,234	89,106	0	1014,86	7	9	8,8	1	1	1	1	1	1	1	1	1	0	1	-0	274,248273	320,744091	0
15.01.2021	11:10:21	0	20,479492	3,641241	3,18525	21,78	0,233	89,117	0	1014,94	7	9	8,8	1	1	1	1	1	1	1	1	1	0	1	-0	274,332673	321,13911	0
15.01.2021	11:10:22	0	20,2456	2,958507	2,92725	29,9376	0,24	89,114	0	1015,02	7	8,9	8,8	1	1	1	1	1	1	1	1	1	0	1	-0	274,402279	321,465162	0
15.01.2021	11:10:23	0	20,596553	2,844717	2,775	14,2992	0,238	89,121	0	1015,04	6,9	9	8,8	1	1	1	1	1	1	1	1	1	0	1	-0	274,353831	321,238193	0
15.01.2021	11:10:24	0	20,245635	2,844716	2,7855	22,0752	0,231	89,128	0	1015	7	8,9	8,8	1	1	1	1	1	1	1	1	1	0	1	-0	274,329652	321,124966	0
15.01.2021	11:10:25	0	20,011459	2,617137	2,76825	22,8384	0,237	89,131	0	1015,04	7	9	8,8	1	1	1	1	1	1	1	1	1	0	1	-2,818887	274,399247	318,63207	0
15.01.2021	11:10:26	0	20,596751	3,527466	2,80875	15,4044	0,227	89,134	0	1015	7	8,9	8,7	1	1	1	1	1	1	1	1	1	0	1	-0	274,347783	321,20987	0
15.01.2021	11:10:27	0	20,362572	2,844695	3,05325	5,7564	0,24	89,131	0	1015,14	7	9	8,9	1	1	1	1	1	1	1	1	1	0	1	-0	274,393186	321,422553	0
15.01.2021	11:10:28	0	20,596642	4,779086	3,0285	21,7584	0,233	89,136	0	1014,96	7	9	8,9	1	1	1	1	1	1	1	1	1	0	1	-0	274,425031	321,571792	0
15.01.2021	11:10:29	0	20,479777	4,437721	2,96175	7,8876	0,238	89,136	0	1015,02	7	8,9	8,9	1	1	1	1	1	1	1	1	1	0	1	-0	274,240755	320,708923	0
15.01.2021	11:10:30	0	20,24574	3,186055	2,98575	15,03	0,242	89,147	0	1015,08	7	8,9	8,9	1	1	1	1	1	1	1	1	1	0	1	-0	274,396216	321,436753	0
15.01.2021	11:10:31	0	20,479669	4,665292	2,841	15,3828	0,234	89,141	0	1015,02	7	9	8,9	1	1	1	1	1	1	1	1	1	0	1	-0	274,332673	321,13911	0
15.01.2021	11:10:32	0	20,479687	4,665318	2,7075	17,9568	0,235	89,126	0	1014,84	7	9	8,8	1	1	1	1	1	1	1	1	1	0	1	-0	274,411376	321,507796	0
15.01.2021	11:10:33	0	20,713758	2,844688	2,57175	358,6968	0,237	89,147	0	1014,94	7	9	8,9	1	1	1	1	1	1	1	1	1	0	1	-0	274,264822	320,821519	0
15.01.2021	11:10:34	0	20,596893	3,868774	2,5515	360	0,233	89,141	0	1015,02	7	8,9	8,9	1	1	1	1	1	1	1	1	1	0	1	-0	274,638685	322,574402	0
15.01.2021	11:10:35	0	20,479883	4,43771	2,5095	1,2636	0,234	89,136	0	1015,1	7	8,9	8,9	1	1	1	1	1	1	1	1	1	0	1	-0	274,251281	320,758163	0
15.01.2021	11:10:36	0	20,596785	4,551522	2,48475	358,7148	0,238	89,147	0	1014,92	7	9	8,8	1	1	1	1	1	1	1	1	1	0	1	-0	274,335694	321,153257	0
15.01.2021	11:10:37	0	20,596803	5,120461	2,376	350,2332	0,238	89,135	0	1015	7	9	8,8	1	1	1	1	1	1	1	1	1	0	1	-0	274,237749	320,694861	0
15.01.2021	11:10:38	0	20,59682	4,892853	2,3385	0,126	0,235	89,158	0	1015,14	7	9	8,9	1	1	1	1	1	1	1	1	1	0	1	-0	274,322103	321,089618	0
15.01.2021	11:10:39	0	20,245756	3,29985	2,24025	357,5376	0,234	89,144	0	1014,9	7	9	8,8	1	1	1	1	1	1	1	1	1	0	1	-0	274,236246	320,687831	0
15.01.2021	11:10:40	0	20,362801	2,958485	2,11125	348,6456	0,241	89,144	0	1015,16	7	9	8,8	1	1	1	1	1	1	1	1	1	0	1	-0	274,224226	320,631612	0
15.01.2021	11:10:41	0	20,714046	5,120452	2,08425	1,5552	0,235	89,154	0	1015,08	7	8,9	8,8	1	1	1	1	1	1	1	1	1	0	1	-0	274,337205	321,160331	0
15.01.2021	11:10:42	0	20,362979	2,73089	2,103	8,9748	0,231	89,154	0	1014,92	7	8,9	8,9	1	1	1	1	1	1	1	1	1	0	1	-0	274,263317	320,814477	0
15.01.2021	11:10:43	0	20,713937	4,437695	2,16675	7,4808	0,232	89,156	0	1014,9	7	9	8,9	1	1	1	1	1	1	1	1	1	0	1	-0	274,411376	321,507796	0
15.01.2021	11:10:44	0	20,363014	2,844692	2,4225	15,39	0,235	89,164	0	1015,14	7	8,9	8,8	1	1	1	1	1	1	1	1	1	0	1	-0	274,337205	321,160331	0
15.01.2021	11:10:45	0	20,479917	2,730903	2,68275	3,0168	0,232	89,166	0	1015,08	7	9	8,8	1	1	1	1	1	1	1	1	1	0	1	-0	274,246769	320,737056	0
15.01.2021	11:10:46	0	20,713991	4,437716	2,78775	4,4604	0,239	89,167	0	1014,98	7	9	8,8	1	1	1	1	1	1	1	1	1	0	1	-0	274,34476	321,195713	0
15.01.2021	11:10:47	0	20,597125	3,072264	2,6985	10,0476	0,238	89,182	0	1015,18	7	8,9	8,8	1	1	1	1	1	1	1	1	1	0	1	-0	274,403795	321,472266	0
15.01.2021	11:10:48	0	20,714026	4,551472	2,5935	11,7072	0,232	89,166	0	1015,14	7	9	8,9	1	1	1	1	1	1	1	1	1	0	1	-0	274,248273	320,744091	0
15.01.2021	11:10:49	0	20,597016	4,43771	2,51325	13,1472	0,238	89,178	0	1014,98	7	9	8,8	1	1	1	1	1	1	1	1	1	0	1	-0,211416	274,308521	320,814618	0
15.01.2021	11:10:50	0	20,480148	2,844685	2,445	13,1652	0,237	89,194	0	1015,12	7	8,9	8,8	1	1	1	1	1	1	1	1	1	0	1	-0	274,239252	320,701892	0
15.01.2021	11:10:51	0	20,480166	2,275747	2,42475	10,4508	0,231	89,189	0	1015	7	8,9	8,8	1	1	1	1	1	1	1	1	1	0	1	-0	274,261812	320,807436	0
15.01.2021	11:10:52	0	20,948302	4,779038	2,412	4,8348	0,236	89,192	0	1015,1	7	8,9	8,9	1	1	1	1	1	1	1	1	1	0	1	-0	274,252785	320,7652	0
15.01.2021	11:10:53	0	20,83129	4,892852	2,43675	1,1772	0,233	89,171	0	1014,92	7	8,9	8,8	1	1	1	1	1	1	1	1	1	0	1	-0	274,361393	321,273611	0
15.01.2021	11:10:54	0	20,714279	3,641169	2,48625	7,1208	0,232	89,183	0	1015	7	8,9	8,9	1	1	1	1	1	1	1	1	1	0	1	-0	274,361393	321,273611	0
15.01.2021	11:10:55	0	21,065239	2,844662	2,5665	354,1788	0,237	89,189	0	1015,08	7	9	8,9	1	1	1	1	1	1	1	1	1	0	1	-0	274,402279	321,465162	0
15.01.2021	11:10:56	0	20,831344	3,868762	2,607	4,4676	0,241	89,182	0	1015,12	7	8,9	8,8	1	1	1	1	1	1	1	1	1	0	1	-0	274,246769	320,737056	0
15.01.2021	11:10:57	0	21,299483	3,186038	2,43525	360	0,236	89,185	0	1015,06	7	8,9	8,8	1	1	1	1	1	1	1	1	1	0	1	-0	274,316065	321,061352	0
15.01.2021	11:10:58	0	20,948264	4,665268	2,22825	1,2672	0,236	89,192	0	1014,92	7	9	8,8	1	1	1	1	1	1	1	1	1	0	1	-0	274,400763	321,458059	0
15.01.2021	11:10:59	0	20,831398	2,958444	2,35425	0,864	0,232	89,187	0	1015,06	7	8,9	8,9	1	1	1	1	1	1	1	1	1	0	1	-0	274,30098	320,990733	0
15.01.2021	11:11:00	0	21,065347	4,096328	2,4075	359,5572	0,236	89,196	0	1015,1	7	9	8,8	1	1	1	1	1	1	1	1	1	0	1	-0	274,284399	320,913129	0
15.01.2021	11:11:01	0	21,065347	4,096328	2,4075	359,5572	0,236	89,196	0	1015,1	7	9	8,8	1	1	1	1	1	1	1	1	1	0	1	-0	274,406827	321,486476	0
15.01.2021	11:11:02	0	21,416605	4,210087	2,53275	357,2208	0,232	89,192	0	1015,08	7	8,9	8,9	1	1	1	1	1	1	1	1	1	0	1	-0	274,294949	320,962504	0
15.01.2021	11:11:03	0	21,299593	4,437658	2,7345	347,544	0,234	89,166	0	1015	7	8,9	8,9	1	1	1	1	1	1	1	1	1	0	1	-0	274,240755	320,708923	0
15.01.2021	11:11:04	0	21,18258	3,413602	2,892	352,5084	0,235	89,188	0	1014,96	7	8,9	8,8	1	1	1	1	1	1	1	1	1	0	1	-0	274,290427	320,941339	0
15.01.2021	11:11:05	0	21,06542	3,98251	2,79375	1,2564	0,234	89,175	0	1015,1	7	9	8,9	1	1	1	1	1	1	1	1	1	0	1	-0	274,234743	320,680801	0
15.01.2021	11:11:06	0	21,065586	3,868746	2,8455	357,3396	0,23	89,172	0	1015	7	8,9	8,8	1	1	1	1	1	1	1	1	1	0	1	-0	274,290427	320,941339	0
15.01.2021	11:11:07	0	21,065456	3,641171	2,77275	2,6424	0,237	89,174	0	1014,94	7	9	8,8	1	1	1	1	1	1	1	1	1	0	1	-0	274,231738	320,666744	0
15.01.2021	11:11:08	0	21,299684	3,754979	2,68425	358,0056	0,234	89,185	0	1015,08	7	8,9	8,7	1	1	1	1	1	1	1	1	1	0	1	-0	274,27235	320,85674	0
15.01.2021	11:11:09	0	21,299553	4,779004	2,691	6,4116	0,232	89,192	0	1015,02	7	9	8,9	1	1	1	1	1	1	1	1	1	0	1	-0	274,370471	321,316136	0
15.01.2021	11:11:10	0	20,948626	2,161943	2,667	7,1172	0,233	89,198	0	1015,1	7	8,9	8,8	1	1	1	1	1	1	1	1	1	0	1	-0	274,254289	320,772238	0
15.01.2021	11:11:11	0	21,29959	3,754951	2,55975	13,896	0,234	89,194	0	1015,04	7	9	8,8	1	1	1	1	1	1	1	1	1	0	1	-0	274,293441	320,955448	0
15.01.2021	11:11:12	0	21,533821	5,00657	2,63025	0,8676	0,235	89,189	0	1015,08	7	8,9	8,9	1	1	1	1	1	1	1	1	1	0	1	-0	274,261812	320,807436	0
15.01.2021	11:11:13	0	21,76775	4,43764	2,84325	22,8204	0,236	89,177	0	1015,06	7	9	8,9	1	1	1	1	1	1	1	1	1	0	1	-0,070472	274,282893	320,835606	0
15.01.2021	11:11:14	0	21,416826	5,120382	2,85525	15,7788	0,23	89,192	0	1015,16	7	8,9	8,8	1	1	1	1	1	1	1	1	1	0	1	-0	274,405311	321,479371	0
15.01.2021	11:11:15	0	21,299812	2,503297	2,69925	12,8448	0,236	89,179	0	1015,04	7	8,9	8,8	1	1	1	1	1	1	1	1	1	0	1	-4,298802	274,236246	316,389029	0
15.01.2021	11:11:16	0	21,416712	3,86873	2,481	10,0476	0,236	89,2	0	1015,08	7	9	8,8	1	1	1	1	1	1	1	1	1	0	1	-0	274,35988	321,266526	0
15.01.2021	11:11:17	0	21,182668	2,503295	2,34	10,7964	0,234	89,19	0	1015,02	7	9	8,8	1	1	1	1	1	1	1	1	1	0	1	-0	274,228733	320,652689	0
15.01.2021	11:11:18	0	22,001906	4,551443	2,33625	15,0264	0,237	89,173	0	1015,02	7	9	8,8	1	1	1	1	1	1	1	1	1	0	1	-0	274,335694	321,153257	0
15.01.2021	11:11:19	0	21,416918	3,754939	2,379	14,2848	0,24	89,195	0	1015,14	7	8,9	8,8	1	1	1	1	1	1	1	1	1	0	1	-0	274,248273	320,744091	0
15.01.2021	11:11:20	0	21,533818	3,072221	2,35425	14,724	0,24	89,193	0	1015,18	7	9	8,8	1	1	1	1	1	1	1	1	1	0	1	-0	274,258803	320,793354	0
15.01.2021	11:11:21	0	21,650868	3,64115	2,289	15,03	0,237	89,192	0	1014,94	7	9	8,8	1	1	1	1	1	1	1	1	1	0	1	-0	274,284399	320,913129	0
15.01.2021	11:11:22	0	21,767918	3,185986	2,28075	11,1888	0,236	89,212	0	1015,2	7	9	8,9	1	1	1	1	1	1	1	1	1	0	1	-0	274,399247	321,450956	0
15.01.2021	11:11:23	0	21,885122	2,730844	2,2875	10,8072	0,237	89,198	0	1015,02	7	8,9	8,9	1	1	1	1	1	1	1	1	1	0	1	-0	274,294949	320,962504	0
15.01.2021	11:11:24	0	21,768108	2,844628	2,2575	15,4728	0,235	89,2	0	1015,06	7	8,9	8,9	1	1	1	1	1	1	1	1	1	0	1	-0	274,243762	320,722989	0
15.01.2021	11:11:25	0	21,885159	2,844627	2,36475	10,4508	0,232	89,188	0	1015,02	7	8,9	8,9	1	1	1	1	1	1	1	1	1	0	1	-0	274,30098	320,990733	0
15.01.2021	11:11:26	0	21,885178	3,641142	2,4585	10,4328	0,231	89,191	0	1015	7	8,9	8,8	1	1	1	1	1	1	1	1	1	0	1	-0	274,411376	321,507796	0
15.01.2021	11:11:27	0	22,002076	4,437614	2,46975	13,1508	0,233	89,191	0	1015,06	7	9	8,9	1	1	1	1	1	1	1	1	1	0	1	-0	274,299472	320,983675	0
15.01.2021	11:11:28	0	21,885216	4,096282	2,4225	15,0408	0,235	89,199	0	1015,06	7	8,9	8,8	1	1	1	1	1	1	1	1	1	0	1	-0	274,249777	320,751127	0
15.01.2021	11:11:29	0	22,236334	4,096305	2,23875	19,6128	0,236	89,199	0	1014,98	7	8,9	8,7	1	1	1	1	1	1	1	1	1	0	1	-0	274,311538	321,040159	0
15.01.2021	11:11:30	0	22,002132	4,892748	2,19	351,108	0,235	89,221	0	1015,14	7	9	8,9	1	1	1	1	1	1	1	1	1	0	1	-0	274,239252	320,701892	0
15.01.2021	11:11:31	0	22,353249	4,437633	2,12925	1,1844	0,237	89,209	0	1015,08	7	9	8,8	1	1	1	1	1	1	1	1	1	0	1	-0	274,403795	321,472266	0
15.01.2021	11:11:32	0	22,587492	3,413563	2,07075	352,0728	0,237	89,203	0	1014,9	7	8,9	8,8	1	1	1	1	1	1	1	1	1	0	1	-0	274,341738	321,181558	0
15.01.2021	11:11:33	0	22,470478	3,413582	2,00025	351,648	0,232	89,178	0	1014,98	7	8,9	8,7	1	1	1	1	1	1	1	1	1	0	1	-0	274,249777	320,751127	0
15.01.2021	11:11:34	0	22,23643	4,096272	2,0475	0,8532	0,232	89,209	0	1015,06	7	8,9	8,8	1	1	1	1	1	1	1	1	1	0	1	-0	274,278374	320,884929	0
15.01.2021	11:11:35	0	22,11926	4,437626	1,965	16,0992	0,226	89,21	0	1014,94	7	9	8,8	1	1	1	1	1	1	1	1	1	0	1	-0	274,396216	321,436753	0
15.01.2021	11:11:36	0	22,236312	3,299772	1,845	1,9116	0,237	89,197	0	1014,98	7	9	8,8	1	1	1	1	1	1	1	1	1	0	1	-0	274,399247	321,450956	0
15.01.2021	11:11:37	0	22,236331	2,844612	1,8765	357,1668	0,235	89,213	0	1014,9	7	9	8,9	1	1	1	1	1	1	1	1	1	0	1	-0	274,276867	320,877881	0
15.01.2021	11:11:38	0	22,470417	3,072217	1,95	0,1368	0,235	89,201	0	1014,96	7	9	8,7	1	1	1	1	1	1	1	1	1	0	1	-0	274,276867	320,877881	0
15.01.2021	11:11:39	0	22,821696	4,778974	2,03925	352,6956	0,233	89,209	0	1014,94	7	8,9	8,8	1	1	1	1	1	1	1	1	1	0	1	-0	274,41441	321,522012	0
15.01.2021	11:11:40	0	22,821556	4,665215	2,0715	360	0,23	89,204	0	1014,98	7	9	8,7	1	1	1	1	1	1	1	1	1	0	1	-0	274,30098	320,990733	0
15.01.2021	11:11:41	0	22,587666	4,77897	2,025	351,7488	0,235	89,224	0	1015,12	7	8,9	8,8	1	1	1	1	1	1	1	1	1	0	1	-2,959831	274,417444	318,576401	0
15.01.2021	11:11:42	0	22,821595	3,299744	1,86975	356,1984	0,226	89,213	0	1014,88	7	9	8,9	1	1	1	1	1	1	1	1	1	0	1	-0	274,350807	321,22403	0
15.01.2021	11:11:43	0	22,587547	4,665209	1,72725	351,6444	0,234	89,214	0	1015,02	7	9	8,7	1	1	1	1	1	1	1	1	1	0	1	-0	274,246769	320,737056	0
15.01.2021	11:11:44	0	22,821634	4,323824	1,71675	354,9744	0,235	89,224	0	1014,94	7	9	8,8	1	1	1	1	1	1	1	1	1	0	1	-0	274,35988	321,266526	0
15.01.2021	11:11:45	0	22,938687	4,55142	1,6875	349,4016	0,234	89,226	0	1015,02	7	9	8,7	1	1	1	1	1	1	1	1	1	0	1	-0	274,365932	321,29487	0
15.01.2021	11:11:46	0	22,938707	3,413522	1,7565	357,606	0,227	89,23	0	1015,02	7	9	8,9	1	1	1	1	1	1	1	1	1	0	1	-0	274,31003	321,033096	0
15.01.2021	11:11:47	0	23,172795	3,072169	1,779	7,4916	0,233	89,221	0	1015,1	7	9	8,9	1	1	1	1	1	1	1	1	1	0	1	-0	274,237749	320,694861	0
15.01.2021	11:11:48	0	22,821712	3,868679	1,82175	357,156	0,231	89,226	0	1015,02	7	9	8,8	1	1	1	1	1	1	1	1	1	0	1	-0	274,234743	320,680801	0
15.01.2021	11:11:49	0	22,704697	4,665141	1,818	356,5476	0,226	89,213	0	1014,76	7	9	8,9	1	1	1	1	1	1	1	1	1	0	1	-0	274,316065	321,061352	0
15.01.2021	11:11:50	0	22,704875	2,617061	1,83525	354,2724	0,234	89,222	0	1015,02	7	8,9	8,7	1	1	1	1	1	1	1	1	1	0	1	-0	274,234743	320,680801	0
15.01.2021	11:11:51	0	23,172874	4,892705	1,9065	2,6208	0,231	89,219	0	1014,8	7	9	8,9	1	1	1	1	1	1	1	1	1	0	1	-0	274,349295	321,21695	0
15.01.2021	11:11:52	0	22,938824	4,210026	1,8855	5,2092	0,231	89,228	0	1015,12	7	9	8,8	1	1	1	1	1	1	1	1	1	0	1	-0	274,41441	321,522012	0
15.01.2021	11:11:53	0	22,821969	3,072161	1,935	5,1912	0,232	89,237	0	1014,86	7	8,9	8,9	1	1	1	1	1	1	1	1	1	0	1	-1,057082	274,282893	319,848996	0
15.01.2021	11:11:54	0	23,055899	4,096262	2,208	14,6412	0,235	89,251	0	1015,16	7	9	8,7	1	1	1	1	1	1	1	1	1	0	1	-0	274,341738	321,181558	0
15.01.2021	11:11:55	0	22,938883	2,844591	2,40975	359,5212	0,227	89,24	0	1015,06	7	9	8,9	1	1	1	1	1	1	1	1	1	0	1	-0	274,417444	321,536232	0
15.01.2021	11:11:56	0	23,524243	4,210019	2,448	7,8732	0,232	89,238	0	1014,88	7	8,9	8,8	1	1	1	1	1	1	1	1	1	0	1	-0	274,353831	321,238193	0
15.01.2021	11:11:57	0	23,290191	3,75488	2,5365	6,426	0,232	89,243	0	1015,04	7	8,9	8,8	1	1	1	1	1	1	1	1	1	0	1	-0	274,40986	321,500688	0
15.01.2021	11:11:58	0	23,524284	4,210015	2,568	2,6496	0,231	89,239	0	1015,04	7	8,9	8,8	1	1	1	1	1	1	1	1	1	0	1	-0	274,373498	321,330316	0
15.01.2021	11:11:59	0	23,524139	3,982445	2,508	360	0,234	89,239	0	1015,04	7	9	8,8	1	1	1	1	1	1	1	1	1	0	1	-0	274,248273	320,744091	0
15.01.2021	11:12:00	0	23,290107	4,210035	2,532	10,4436	0,23	89,252	0	1015,06	7	9	8,7	1	1	1	1	1	1	1	1	1	0	1	-0	274,370471	321,316136	0
15.01.2021	11:12:01	0	23,290107	4,210035	2,532	10,4436	0,23	89,252	0	1015,06	7	9	8,7	1	1	1	1	1	1	1	1	1	0	1	-2,889359	274,249777	317,861768	0
15.01.2021	11:12:02	0	23,758437	5,120311	2,55825	18,1548	0,231	89,248	0	1015,08	7	8,9	8,7	1	1	1	1	1	1	1	1	1	0	1	-0	274,390156	321,408355	0
15.01.2021	11:12:03	0	23,407183	4,210007	2,57625	8,9928	0,234	89,259	0	1014,98	7	9	8,8	1	1	1	1	1	1	1	1	1	0	1	-0	274,276867	320,877881	0
15.01.2021	11:12:04	0	23,641275	3,754847	3,03525	3,0312	0,231	89,253	0	1015	7	9	8,9	1	1	1	1	1	1	1	1	1	0	1	-0	274,355343	321,245275	0
15.01.2021	11:12:05	0	23,524424	2,50326	3,30225	7,8768	0,236	89,261	0	1015,12	7	8,9	8,7	1	1	1	1	1	1	1	1	1	0	1	-0	274,255794	320,779276	0
15.01.2021	11:12:06	0	23,407243	4,210001	3,35475	1,5444	0,226	89,264	0	1015,02	7	9	8,8	1	1	1	1	1	1	1	1	1	0	1	-0	274,417444	321,536232	0
15.01.2021	11:12:07	0	23,407263	3,29973	3,29775	4,842	0,239	89,277	0	1015,16	7	9	8,8	1	1	1	1	1	1	1	1	1	0	1	-0	274,316065	321,061352	0
15.01.2021	11:12:08	0	23,524484	2,844593	3,2265	0,1152	0,233	89,284	0	1015,16	7	8,9	8,8	1	1	1	1	1	1	1	1	1	0	1	-0	274,249777	320,751127	0
15.01.2021	11:12:09	0	23,758412	2,844592	3,372	1,5408	0,225	89,252	0	1015,08	7	9	8,8	1	1	1	1	1	1	1	1	1	0	1	-0	274,302488	320,997792	0
15.01.2021	11:12:10	0	23,875469	3,299706	3,67275	9,756	0,238	89,278	0	1015,1	7	9	8,9	1	1	1	1	1	1	1	1	1	0	1	-0	274,400763	321,458059	0
15.01.2021	11:12:11	0	23,875489	4,209968	3,7995	6,4296	0,234	89,275	0	1015	7	9	8,9	1	1	1	1	1	1	1	1	1	0	1	-0	274,37804	321,351591	0
15.01.2021	11:12:12	0	23,992546	4,892663	3,80175	8,604	0,226	89,28	0	1014,98	7	9	8,9	1	1	1	1	1	1	1	1	1	0	1	-0	274,297964	320,976617	0
15.01.2021	11:12:13	0	23,758493	3,299721	3,75525	7,4916	0,234	89,268	0	1015,06	7	9	8,8	1	1	1	1	1	1	1	1	1	0	1	-0	274,249777	320,751127	0
15.01.2021	11:12:14	0	24,109793	3,754876	3,74925	2,2932	0,232	89,287	0	1015,06	7	8,9	8,7	1	1	1	1	1	1	1	1	1	0	1	-0	274,293441	320,955448	0
15.01.2021	11:12:15	0	23,87557	4,551363	3,61875	15,7932	0,237	89,276	0	1015,14	7	9	8,7	1	1	1	1	1	1	1	1	1	0	1	-0	274,234743	320,680801	0
15.01.2021	11:12:16	0	23,875758	3,527263	3,51375	17,6868	0,232	89,281	0	1014,82	7	8,9	8,9	1	1	1	1	1	1	1	1	1	0	1	-0	274,335694	321,153257	0
15.01.2021	11:12:17	0	23,75874	4,665116	3,645	15,3936	0,236	89,285	0	1015,12	7	8,9	8,8	1	1	1	1	1	1	1	1	1	0	1	-0	274,254289	320,772238	0
15.01.2021	11:12:18	0	23,992668	2,958365	3,333	15,3936	0,235	89,289	0	1015,04	7	9	8,8	1	1	1	1	1	1	1	1	1	0	1	-0	274,251281	320,758163	0
15.01.2021	11:12:19	0	23,875818	2,958364	3,0495	9,3528	0,235	89,277	0	1014,96	7	8,9	8,8	1	1	1	1	1	1	1	1	1	0	1	-0	274,334184	321,146183	0
15.01.2021	11:12:20	0	24,109747	3,413475	3,0045	5,6772	0,235	89,298	0	1015,12	7	9	8,9	1	1	1	1	1	1	1	1	1	0	1	-0	274,263317	320,814477	0
15.01.2021	11:12:21	0	24,461052	4,665108	3,01575	14,6448	0,232	89,296	0	1015,02	7	8,9	8,8	1	1	1	1	1	1	1	1	1	0	1	-0	274,332673	321,13911	0
15.01.2021	11:12:22	0	24,226825	4,778918	3,06975	10,4436	0,232	89,292	0	1015,06	7	9	8,7	1	1	1	1	1	1	1	1	1	0	1	-0	274,423513	321,564679	0
15.01.2021	11:12:23	0	24,57796	5,006423	3,3705	20,9952	0,237	89,289	0	1015	7	9	8,9	1	1	1	1	1	1	1	1	1	0	1	-0	274,302488	320,997792	0
15.01.2021	11:12:24	0	24,226866	2,617024	3,621	13,554	0,233	89,277	0	1015,04	7	9	8,7	1	1	1	1	1	1	1	1	1	0	1	-0	274,417444	321,536232	0
15.01.2021	11:12:25	0	24,343925	4,6651	3,6	7,2144	0,236	89,298	0	1015,06	7	9	8,8	1	1	1	1	1	1	1	1	1	0	1	-0	274,37804	321,351591	0
15.01.2021	11:12:26	0	24,226908	2,503224	3,40275	344,7	0,23	89,291	0	1015,04	7	9	8,8	1	1	1	1	1	1	1	1	1	0	1	-1,62086	274,418961	319,922483	0
15.01.2021	11:12:27	0	24,10989	4,323748	3,102	358,776	0,237	89,285	0	1015,1	7	9	8,8	1	1	1	1	1	1	1	1	1	0	1	-0,634249	274,353831	320,603943	0
15.01.2021	11:12:28	0	24,110079	3,982398	2,694	3,024	0,235	89,282	0	1015,02	7	8,9	8,8	1	1	1	1	1	1	1	1	1	0	1	-0	274,246769	320,737056	0
15.01.2021	11:12:29	0	24,461046	3,413483	2,598	357,2244	0,235	89,292	0	1014,86	7	9	8,8	1	1	1	1	1	1	1	1	1	0	1	-0	274,358368	321,259442	0
15.01.2021	11:12:30	0	24,344028	5,234004	2,514	353,1852	0,231	89,283	0	1014,9	7	9	8,8	1	1	1	1	1	1	1	1	1	0	1	-0	274,381068	321,365778	0
15.01.2021	11:12:31	0	23,992933	4,209984	2,5185	357,2712	0,238	89,279	0	1015,18	7	9	8,7	1	1	1	1	1	1	1	1	1	0	1	-0	274,382582	321,372873	0
15.01.2021	11:12:32	0	24,578147	5,006405	2,577	354,0564	0,233	89,298	0	1015,02	7	9	8,9	1	1	1	1	1	1	1	1	1	0	1	-0	274,382582	321,372873	0
15.01.2021	11:12:33	0	24,4613	2,958347	2,57025	348,2568	0,229	89,29	0	1014,92	7	8,9	8,8	1	1	1	1	1	1	1	1	1	0	1	-0	274,245266	320,730022	0
15.01.2021	11:12:34	0	24,344111	2,616998	2,508	345,0312	0,232	89,305	0	1015,1	7	9	8,8	1	1	1	1	1	1	1	1	1	0	1	-0	274,35988	321,266526	0
15.01.2021	11:12:35	0	24,227262	3,299672	2,6025	350,2296	0,235	89,293	0	1015,06	7	8,9	8,9	1	1	1	1	1	1	1	1	1	0	1	-0	274,397732	321,443854	0
15.01.2021	11:12:36	0	24,461362	5,006427	2,83425	352,0476	0,234	89,355	0	1014,98	7	8,9	8,8	1	1	1	1	1	1	1	1	1	0	1	-0	274,276867	320,877881	0
15.01.2021	11:12:37	0	24,227133	5,006425	2,9535	6,0408	0,234	89,304	0	1014,98	7	9	8,8	1	1	1	1	1	1	1	1	1	0	1	-0	274,385611	321,387064	0
15.01.2021	11:12:38	0	24,227154	3,185905	3,039	9,3456	0,233	89,317	0	1014,96	7	9	8,8	1	1	1	1	1	1	1	1	1	0	1	-0	274,254289	320,772238	0
15.01.2021	11:12:39	0	24,110135	3,072103	2,9805	10,7928	0,243	89,316	0	1014,94	7	9	8,9	1	1	1	1	1	1	1	1	1	0	1	-0	274,28892	320,934286	0
15.01.2021	11:12:40	0	24,461274	3,64101	2,8965	1,548	0,243	89,327	0	1015,06	7	9	8,9	1	1	1	1	1	1	1	1	1	0	1	-0	274,417444	321,536232	0
15.01.2021	11:12:41	0	24,227215	4,323697	2,874	360	0,239	89,317	0	1015,02	7	9	8,9	1	1	1	1	1	1	1	1	1	0	1	-0	274,326632	321,110825	0
15.01.2021	11:12:42	0	24,227405	2,844537	2,883	1,9188	0,24	89,325	0	1015,08	7	8,9	8,9	1	1	1	1	1	1	1	1	1	0	1	-0	274,258803	320,793354	0
15.01.2021	11:12:43	0	24,578376	4,778848	3,03225	4,9176	0,238	89,322	0	1015,1	7	9	8,8	1	1	1	1	1	1	1	1	1	0	1	-0	274,396216	321,436753	0
15.01.2021	11:12:44	0	24,578397	3,185898	3,123	349,9272	0,235	89,324	0	1015,02	7	9	8,8	1	1	1	1	1	1	1	1	1	0	1	-0	274,382582	321,372873	0
15.01.2021	11:12:45	0	24,578417	4,209934	3,43425	1,548	0,239	89,317	0	1014,94	7	9	8,8	1	1	1	1	1	1	1	1	1	0	1	-0	274,254289	320,772238	0
15.01.2021	11:12:46	0	24,461398	3,52722	3,504	1,5516	0,238	89,324	0	1015,06	7	9	8,9	1	1	1	1	1	1	1	1	1	0	1	-0	274,382582	321,372873	0
15.01.2021	11:12:47	0	24,695499	3,527239	3,38175	4,1616	0,232	89,312	0	1014,88	7	9	8,8	1	1	1	1	1	1	1	1	1	0	1	-0	274,28892	320,934286	0
15.01.2021	11:12:48	0	24,227358	4,437493	3,198	10,4508	0,24	89,32	0	1014,96	7	9	8,8	1	1	1	1	1	1	1	1	1	0	1	-0	274,362906	321,280697	0
15.01.2021	11:12:49	0	24,227549	3,413455	3,021	15,0048	0,242	89,325	0	1015,02	7	8,9	8,8	1	1	1	1	1	1	1	1	1	0	1	-0	274,437176	321,628723	0
15.01.2021	11:12:50	0	24,46148	3,413453	2,772	11,1816	0,24	89,311	0	1015,02	7	9	8,8	1	1	1	1	1	1	1	1	1	0	1	-0	274,371985	321,323225	0
15.01.2021	11:12:51	0	24,461672	4,096167	2,5725	0,486	0,24	89,33	0	1015,06	7	8,9	8,7	1	1	1	1	1	1	1	1	1	0	1	-0	274,264822	320,821519	0
15.01.2021	11:12:52	0	24,578563	4,096165	2,6235	357,2496	0,235	89,319	0	1015,02	7	9	8,7	1	1	1	1	1	1	1	1	1	0	1	-0	274,299472	320,983675	0
15.01.2021	11:12:53	0	24,227461	2,844558	2,60175	5,6808	0,24	89,328	0	1015,1	7	9	8,7	1	1	1	1	1	1	1	1	1	0	1	-0,916138	274,242259	319,799817	0
15.01.2021	11:12:54	0	24,227481	3,868597	2,60925	355,2804	0,237	89,339	0	1015,04	7	9	8,7	1	1	1	1	1	1	1	1	1	0	1	-0	274,334184	321,146183	0
15.01.2021	11:12:55	0	24,344543	4,209892	2,63025	1,908	0,233	89,335	0	1015,02	7	9	8,9	1	1	1	1	1	1	1	1	1	0	1	-0	274,425031	321,571792	0
15.01.2021	11:12:56	0	24,69586	3,413424	2,53275	354,9744	0,238	89,343	0	1015	7	8,9	8,9	1	1	1	1	1	1	1	1	1	0	1	-0	274,284399	320,913129	0
15.01.2021	11:12:57	0	24,344584	2,503192	2,5125	341,6184	0,232	89,326	0	1014,84	7	9	8,8	1	1	1	1	1	1	1	1	1	0	1	-0	274,270844	320,849695	0
15.01.2021	11:12:58	0	24,695728	5,006352	2,39775	347,256	0,238	89,35	0	1015,1	7	9	8,9	1	1	1	1	1	1	1	1	1	0	1	-0	274,340227	321,174482	0
15.01.2021	11:12:59	0	23,9935	3,072078	2,41875	1,548	0,239	89,344	0	1015,14	7	9	8,9	1	1	1	1	1	1	1	1	1	0	1	-0	274,258803	320,793354	0
15.01.2021	11:13:00	0	24,929874	2,503173	2,4735	358,7544	0,241	89,348	0	1015,08	7	9	8,9	1	1	1	1	1	1	1	1	1	0	1	-0	274,332673	321,13911	0
15.01.2021	11:13:01	0	24,929874	2,503173	2,4735	358,7544	0,241	89,348	0	1015,08	7	9	8,9	1	1	1	1	1	1	1	1	1	0	1	-0	274,418961	321,543342	0
15.01.2021	11:13:02	0	24,57877	4,096124	2,46675	347,94	0,239	89,342	0	1015,04	7	9	8,8	1	1	1	1	1	1	1	1	1	0	1	-0	274,361393	321,273611	0
15.01.2021	11:13:03	0	24,227665	2,616951	2,664	338,3352	0,241	89,352	0	1015	7	9	8,9	1	1	1	1	1	1	1	1	1	0	1	-0	274,248273	320,744091	0
15.01.2021	11:13:04	0	24,695853	4,551245	3,1965	358,3368	0,238	89,345	0	1015,04	7	9	8,8	1	1	1	1	1	1	1	1	1	0	1	-0	274,343249	321,188635	0
15.01.2021	11:13:05	0	24,578832	4,437462	3,309	356,4864	0,236	89,359	0	1014,98	7	9	8,8	1	1	1	1	1	1	1	1	1	0	1	-0	274,257298	320,786315	0
15.01.2021	11:13:06	0	24,344768	2,730728	3,35925	3,3732	0,242	89,35	0	1015,02	7	9	8,9	1	1	1	1	1	1	1	1	1	0	1	-0	274,388641	321,401257	0
15.01.2021	11:13:07	0	24,578873	3,413409	3,24675	2,2788	0,24	89,358	0	1015,06	7	9	8,9	1	1	1	1	1	1	1	1	1	0	1	-1,338971	274,371985	319,984254	0
15.01.2021	11:13:08	0	24,461851	2,730743	3,2175	358,7292	0,245	89,366	0	1015,18	7	9	8,8	1	1	1	1	1	1	1	1	1	0	1	-0	274,258803	320,793354	0
15.01.2021	11:13:09	0	24,34483	2,616945	3,12075	351,468	0,243	89,351	0	1015	7	9	8,9	1	1	1	1	1	1	1	1	1	0	1	-0	274,338716	321,167406	0
15.01.2021	11:13:10	0	24,34485	4,437427	3,177	359,4816	0,241	89,347	0	1015,18	7	9	8,9	1	1	1	1	1	1	1	1	1	0	1	-0	274,420478	321,550454	0
15.01.2021	11:13:11	0	24,578956	3,868547	3,147	353,9088	0,24	89,354	0	1015	7	9	8,8	1	1	1	1	1	1	1	1	1	0	1	-0	274,365932	321,29487	0
15.01.2021	11:13:12	0	24,579149	4,437476	3,09375	343,4328	0,242	89,344	0	1015	7	8,9	8,7	1	1	1	1	1	1	1	1	1	0	1	-0,916138	274,251281	319,842025	0
15.01.2021	11:13:13	0	24,813083	5,233881	3,04275	344,2896	0,246	89,351	0	1015,04	7	9	8,9	1	1	1	1	1	1	1	1	1	0	1	-0	274,370471	321,316136	0
15.01.2021	11:13:14	0	24,461975	4,323665	2,967	343,854	0,236	89,348	0	1014,86	7	9	8,8	1	1	1	1	1	1	1	1	1	0	1	-0	274,423513	321,564679	0
15.01.2021	11:13:15	0	24,930168	4,665005	2,943	342,72	0,243	89,338	0	1015	7	9	8,8	1	1	1	1	1	1	1	1	1	0	1	-0	274,364419	321,287783	0
15.01.2021	11:13:16	0	24,696102	3,299617	2,94825	345,816	0,243	89,33	0	1014,96	7	9	8,9	1	1	1	1	1	1	1	1	1	0	1	-0	274,417444	321,536232	0
15.01.2021	11:13:17	0	24,813166	4,209854	2,76825	343,6344	0,24	89,35	0	1014,96	7	9	8,9	1	1	1	1	1	1	1	1	1	0	1	-0	274,353831	321,238193	0
15.01.2021	11:13:18	0	24,696144	3,982341	2,63325	349,902	0,241	89,357	0	1015,06	7	9	8,7	1	1	1	1	1	1	1	1	1	0	1	-0	274,426549	321,578906	0
15.01.2021	11:13:19	0	24,462078	4,323657	2,433	353,862	0,242	89,351	0	1015,04	7	9	8,8	1	1	1	1	1	1	1	1	1	0	1	-0	274,368958	321,309047	0
15.01.2021	11:13:20	0	24,462098	3,299631	2,26575	355,9788	0,241	89,355	0	1014,92	7	9	8,8	1	1	1	1	1	1	1	1	1	0	1	-0	274,420478	321,550454	0
15.01.2021	11:13:21	0	24,930293	2,958289	2,08425	349,8048	0,235	89,344	0	1014,98	7	9	8,8	1	1	1	1	1	1	1	1	1	0	1	-0	274,323613	321,096687	0
15.01.2021	11:13:22	0	24,696227	3,527189	2,07975	0,846	0,241	89,357	0	1015	7	9	8,8	1	1	1	1	1	1	1	1	1	0	1	-0	274,285906	320,920181	0
15.01.2021	11:13:23	0	24,345286	4,096089	2,11875	2,2896	0,241	89,335	0	1014,94	7	8,9	8,8	1	1	1	1	1	1	1	1	1	0	1	-0	274,399247	321,450956	0
15.01.2021	11:13:24	0	24,579224	3,754724	2,14125	353,232	0,245	89,343	0	1015,06	7	9	8,9	1	1	1	1	1	1	1	1	1	0	1	-0	274,425031	321,571792	0
15.01.2021	11:13:25	0	24,462201	4,209866	2,2035	7,8948	0,244	89,344	0	1015,02	7	9	8,8	1	1	1	1	1	1	1	1	1	0	1	-0	274,405311	321,479371	0
15.01.2021	11:13:26	0	24,345177	2,844486	2,41575	9,7272	0,247	89,325	0	1014,92	7	9	8,9	1	1	1	1	1	1	1	1	1	0	1	-0	274,428066	321,586021	0
15.01.2021	11:13:27	0	24,813374	3,072043	2,5605	6,4152	0,244	89,331	0	1014,98	7	9	8,9	1	1	1	1	1	1	1	1	1	0	1	-0	274,347783	321,20987	0
15.01.2021	11:13:28	0	24,579307	2,844501	2,5755	13,1544	0,248	89,347	0	1015,1	7	9	8,8	1	1	1	1	1	1	1	1	1	0	1	-0	274,418961	321,543342	0
15.01.2021	11:13:29	0	24,696372	4,209859	2,65125	14,6412	0,243	89,334	0	1015,14	7	9	8,8	1	1	1	1	1	1	1	1	1	0	1	-0,775194	274,297964	320,201423	0
15.01.2021	11:13:30	0	24,579348	2,958278	2,65275	5,688	0,242	89,339	0	1014,96	7	9	8,8	1	1	1	1	1	1	1	1	1	0	1	-0	274,408343	321,493582	0
15.01.2021	11:13:31	0	24,930502	2,844497	2,57925	7,1388	0,245	89,323	0	1015,1	7	9	8,8	1	1	1	1	1	1	1	1	1	0	1	-0	274,269338	320,84265	0
15.01.2021	11:13:32	0	24,930523	4,551166	2,59575	9,7452	0,246	89,332	0	1015,12	7	9	8,9	1	1	1	1	1	1	1	1	1	0	1	-0	274,31003	321,033096	0
15.01.2021	11:13:33	0	24,462365	2,616935	2,69175	5,6628	0,237	89,316	0	1015,1	7	9	8,8	1	1	1	1	1	1	1	1	1	0	1	-0	274,432621	321,607369	0
15.01.2021	11:13:34	0	24,57943	3,299613	2,7045	8,7012	0,25	89,329	0	1015,08	7	9	8,8	1	1	1	1	1	1	1	1	1	0	1	-0	274,299472	320,983675	0
15.01.2021	11:13:35	0	24,696496	4,664968	2,64225	15,7824	0,241	89,333	0	1014,9	7	9	8,8	1	1	1	1	1	1	1	1	1	0	1	-0	274,258803	320,793354	0
15.01.2021	11:13:36	0	24,813562	3,185811	2,61525	7,5024	0,249	89,327	0	1015,1	7	9	8,9	1	1	1	1	1	1	1	1	1	0	1	-0	274,370471	321,316136	0
15.01.2021	11:13:37	0	24,69671	3,413409	2,53425	8,2584	0,244	89,329	0	1015,04	7	8,9	8,7	1	1	1	1	1	1	1	1	1	0	1	-0	274,249777	320,751127	0
15.01.2021	11:13:38	0	24,579513	3,072067	2,5215	13,158	0,245	89,312	0	1015,04	7	9	8,7	1	1	1	1	1	1	1	1	1	0	1	-0	274,307013	321,018972	0
15.01.2021	11:13:39	0	24,930669	3,185826	2,47875	6,0696	0,244	89,323	0	1015,1	7	9	8,8	1	1	1	1	1	1	1	1	1	0	1	-0	274,287413	320,927233	0
15.01.2021	11:13:40	0	24,93069	3,868502	2,412	359,1036	0,247	89,322	0	1015,08	7	9	8,8	1	1	1	1	1	1	1	1	1	0	1	-0	274,267833	320,835606	0
15.01.2021	11:13:41	0	24,579574	4,209813	2,30175	6,066	0,248	89,338	0	1015,18	7	9	8,9	1	1	1	1	1	1	1	1	1	0	1	-0	274,381068	321,365778	0
15.01.2021	11:13:42	0	25,281869	3,754719	2,307	4,4496	0,243	89,31	0	1015,1	7	9	8,8	1	1	1	1	1	1	1	1	1	0	1	-0	274,284399	320,913129	0
15.01.2021	11:13:43	0	24,813707	3,18584	2,31225	3,3768	0,243	89,325	0	1015,12	7	9	8,7	1	1	1	1	1	1	1	1	1	0	1	-0	274,411376	321,507796	0
15.01.2021	11:13:44	0	25,047819	3,982275	2,2245	10,4436	0,246	89,328	0	1014,92	7	9	8,8	1	1	1	1	1	1	1	1	1	0	1	-0	274,278374	320,884929	0
15.01.2021	11:13:45	0	24,813748	3,640957	2,2095	11,1996	0,245	89,334	0	1015	7	9	8,7	1	1	1	1	1	1	1	1	1	0	1	-0	274,379554	321,358684	0
15.01.2021	11:13:46	0	24,930815	4,892535	2,10975	3,024	0,247	89,331	0	1015,06	7	9	8,7	1	1	1	1	1	1	1	1	1	0	1	-0	274,44781	321,678574	0
15.01.2021	11:13:47	0	25,281975	3,98227	2,073	356,5944	0,239	89,324	0	1015,02	7	9	8,8	1	1	1	1	1	1	1	1	1	0	1	-0	274,379554	321,358684	0
15.01.2021	11:13:48	0	25,164949	4,437385	2,06325	355,392	0,245	89,329	0	1015,04	7	9	8,8	1	1	1	1	1	1	1	1	1	0	1	-0,352361	274,443252	321,304845	0
15.01.2021	11:13:49	0	25,047924	4,778692	1,97775	360	0,246	89,338	0	1014,94	7	9	8,9	1	1	1	1	1	1	1	1	1	0	1	-0	274,379554	321,358684	0
15.01.2021	11:13:50	0	24,813852	2,275594	2,06325	6,4044	0,243	89,344	0	1015,08	7	9	8,7	1	1	1	1	1	1	1	1	1	0	1	-0	274,27235	320,85674	0
15.01.2021	11:13:51	0	25,047966	2,616916	2,211	13,9032	0,244	89,331	0	1015,02	7	9	8,8	1	1	1	1	1	1	1	1	1	0	1	-0	274,362906	321,280697	0
15.01.2021	11:13:52	0	24,93094	4,437378	2,3085	7,8696	0,244	89,336	0	1014,94	7	9	8,8	1	1	1	1	1	1	1	1	1	0	1	-0	274,435658	321,621605	0
15.01.2021	11:13:53	0	25,399148	3,299567	2,55375	15,0228	0,249	89,33	0	1015,06	7	9	8,9	1	1	1	1	1	1	1	1	1	0	1	-0	274,305504	321,011912	0
15.01.2021	11:13:54	0	25,048029	3,527165	2,66625	9,7596	0,244	89,336	0	1015,16	7	9	8,7	1	1	1	1	1	1	1	1	1	0	1	-0	274,428066	321,586021	0
15.01.2021	11:13:55	0	25,04805	3,982257	2,6595	16,4736	0,249	89,332	0	1015,14	7	9	8,8	1	1	1	1	1	1	1	1	1	0	1	-0,352361	274,329652	320,772606	0
15.01.2021	11:13:56	0	25,282165	2,73069	2,45175	1,5588	0,249	89,339	0	1015,12	7	9	8,8	1	1	1	1	1	1	1	1	1	0	1	-0	274,252785	320,7652	0
15.01.2021	11:13:57	0	25,165138	4,664898	2,39025	4,0896	0,246	89,315	0	1015,06	7	9	8,9	1	1	1	1	1	1	1	1	1	0	1	-0	274,373498	321,330316	0
15.01.2021	11:13:58	0	25,048112	4,096031	2,40225	9,0036	0,244	89,336	0	1015,08	7	9	8,8	1	1	1	1	1	1	1	1	1	0	1	-0	274,273855	320,863787	0
15.01.2021	11:13:59	0	25,16518	3,640893	2,46525	8,604	0,251	89,336	0	1015	7	9	8,9	1	1	1	1	1	1	1	1	1	0	1	-0	274,387126	321,39416	0
15.01.2021	11:14:00	0	25,28227	4,437335	2,74425	15,39	0,244	89,319	0	1014,96	7	9	8,9	1	1	1	1	1	1	1	1	1	0	1	-0	274,421996	321,557566	0
15.01.2021	11:14:01	0	25,28227	4,437335	2,74425	15,39	0,244	89,319	0	1014,96	7	9	8,9	1	1	1	1	1	1	1	1	1	0	1	-0	274,308521	321,026034	0
15.01.2021	11:14:02	0	25,165243	3,072018	2,9715	14,6592	0,248	89,342	0	1015,14	7	9	8,8	1	1	1	1	1	1	1	1	1	0	1	-0	274,432621	321,607369	0
15.01.2021	11:14:03	0	25,282312	5,00622	2,99175	19,1916	0,249	89,333	0	1015,02	7	9	8,9	1	1	1	1	1	1	1	1	1	0	1	-0	274,408343	321,493582	0
15.01.2021	11:14:04	0	25,399381	4,664885	2,92875	19,5372	0,247	89,342	0	1015,04	7	9	8,9	1	1	1	1	1	1	1	1	1	0	1	-0	274,305504	321,011912	0
15.01.2021	11:14:05	0	25,399402	3,527128	3,15225	8,5968	0,245	89,341	0	1015,04	7	9	8,8	1	1	1	1	1	1	1	1	1	0	1	-0	274,440214	321,642963	0
15.01.2021	11:14:06	0	25,399423	4,096018	3,27975	1,9224	0,244	89,345	0	1015,08	7	9	8,8	1	1	1	1	1	1	1	1	1	0	1	-0	274,352319	321,231111	0
15.01.2021	11:14:07	0	25,399444	4,096016	3,39975	12,4704	0,25	89,342	0	1015,12	7	9	8,8	1	1	1	1	1	1	1	1	1	0	1	-2,818887	274,432621	318,788482	0
15.01.2021	11:14:08	0	25,633562	2,958233	3,38475	10,7964	0,245	89,323	0	1014,96	7	9	8,8	1	1	1	1	1	1	1	1	1	0	1	-0	274,335694	321,153257	0
15.01.2021	11:14:09	0	25,282438	2,958232	3,333	4,842	0,248	89,332	0	1015,02	7	9	8,8	1	1	1	1	1	1	1	1	1	0	1	-0	274,273855	320,863787	0
15.01.2021	11:14:10	0	25,282459	4,437346	3,0705	7,506	0,249	89,327	0	1015,06	7	9	8,8	1	1	1	1	1	1	1	1	1	0	1	-0	274,432621	321,607369	0
15.01.2021	11:14:11	0	25,165432	2,730673	2,93025	10,44	0,252	89,322	0	1015,02	7	9	8,8	1	1	1	1	1	1	1	1	1	0	1	-0	274,311538	321,040159	0
15.01.2021	11:14:12	0	25,165453	2,616894	2,7015	5,2308	0,248	89,321	0	1015,08	7	9	8,8	1	1	1	1	1	1	1	1	1	0	1	-0	274,263317	320,814477	0
15.01.2021	11:14:13	0	25,048425	2,730671	2,5185	15,4044	0,252	89,32	0	1015,06	7	9	8,8	1	1	1	1	1	1	1	1	1	0	1	-0	274,320593	321,082551	0
15.01.2021	11:14:14	0	25,399592	2,844448	2,28	352,8108	0,247	89,341	0	1015,1	7	9	8,8	1	1	1	1	1	1	1	1	1	0	1	-0	274,273855	320,863787	0
15.01.2021	11:14:15	0	25,399613	3,413336	2,14575	0	0,25	89,333	0	1014,92	7	9	8,8	1	1	1	1	1	1	1	1	1	0	1	-0	274,303996	321,004851	0
15.01.2021	11:14:16	0	25,516684	3,072001	2,1045	23,9688	0,249	89,329	0	1015,06	7	9	8,8	1	1	1	1	1	1	1	1	1	0	1	-0	274,393186	321,422553	0
15.01.2021	11:14:17	0	25,633754	2,503111	2,11725	360	0,246	89,325	0	1015	7	9	8,8	1	1	1	1	1	1	1	1	1	0	1	-0	274,267833	320,835606	0
15.01.2021	11:14:18	0	25,633775	3,640887	2,24325	7,8768	0,247	89,307	0	1015,12	7	9	8,8	1	1	1	1	1	1	1	1	1	0	1	-0	274,314556	321,054287	0
15.01.2021	11:14:19	0	25,516747	4,89244	2,3115	6,426	0,246	89,318	0	1015,12	7	9	8,8	1	1	1	1	1	1	1	1	1	0	1	-0	274,444771	321,664328	0
15.01.2021	11:14:20	0	25,516768	3,527086	2,3265	355,7772	0,253	89,321	0	1015,02	7	9	8,9	1	1	1	1	1	1	1	1	1	0	1	-0	274,329652	321,124966	0
15.01.2021	11:14:21	0	25,282691	2,84444	2,29425	3,0132	0,25	89,325	0	1015,02	7	9	8,8	1	1	1	1	1	1	1	1	1	0	1	-0	274,264822	320,821519	0
15.01.2021	11:14:22	0	25,75091	4,095992	2,21175	352,8468	0,255	89,317	0	1015,08	7	9	8,8	1	1	1	1	1	1	1	1	1	0	1	-0	274,297964	320,976617	0
15.01.2021	11:14:23	0	25,516832	2,958215	2,18625	352,4724	0,249	89,305	0	1015,04	7	9	8,8	1	1	1	1	1	1	1	1	1	0	1	-0	274,429584	321,593136	0
15.01.2021	11:14:24	0	25,516853	2,958214	2,14425	351,3492	0,249	89,31	0	1015,16	7	9	8,8	1	1	1	1	1	1	1	1	1	0	1	-0	274,305504	321,011912	0
15.01.2021	11:14:25	0	25,516874	4,77868	2,0505	353,5884	0,246	89,292	0	1014,92	7	9	8,7	1	1	1	1	1	1	1	1	1	0	1	-0	274,418961	321,543342	0
15.01.2021	11:14:26	0	25,868045	4,437317	1,995	358,6788	0,246	89,302	0	1015,08	7	9	8,8	1	1	1	1	1	1	1	1	1	0	1	-0	274,394701	321,429653	0
15.01.2021	11:14:27	0	25,751017	5,347534	1,9185	350,2872	0,25	89,312	0	1015,02	7	9	8,8	1	1	1	1	1	1	1	1	1	0	1	-0	274,432621	321,607369	0
15.01.2021	11:14:28	0	25,868088	4,551064	1,92	350,244	0,248	89,314	0	1015,04	7	9	8,9	1	1	1	1	1	1	1	1	1	0	1	-0	274,326632	321,110825	0
15.01.2021	11:14:29	0	25,516959	3,527094	2,00625	359,1144	0,247	89,314	0	1015,02	7	9	8,8	1	1	1	1	1	1	1	1	1	0	1	-0	274,269338	320,84265	0
15.01.2021	11:14:30	0	25,985182	4,323507	2,05725	357,012	0,246	89,291	0	1015,04	7	9	8,9	1	1	1	1	1	1	1	1	1	0	1	-0	274,340227	321,174482	0
15.01.2021	11:14:31	0	25,399951	2,844428	2,04675	0,8532	0,24	89,296	0	1014,94	7	9	8,8	1	1	1	1	1	1	1	1	1	0	1	-0	274,290427	320,941339	0
15.01.2021	11:14:32	0	25,751124	3,071981	2,052	357,3576	0,25	89,303	0	1014,94	7	9	8,8	1	1	1	1	1	1	1	1	1	0	1	-0	274,338716	321,167406	0
15.01.2021	11:14:33	0	25,751145	4,209751	2,0115	2,6244	0,249	89,314	0	1014,94	7	9	8,8	1	1	1	1	1	1	1	1	1	0	1	-0	274,270844	320,849695	0
15.01.2021	11:14:34	0	25,751166	3,754641	1,94175	0,8424	0,247	89,316	0	1015,1	7	9	8,8	1	1	1	1	1	1	1	1	1	0	1	-0	274,37804	321,351591	0
15.01.2021	11:14:35	0	25,751188	3,185736	1,87875	13,8996	0,249	89,306	0	1015,06	7	9	8,9	1	1	1	1	1	1	1	1	1	0	1	-0	274,431103	321,600252	0
15.01.2021	11:14:36	0	25,985311	3,754638	1,7805	4,0752	0,253	89,319	0	1015,2	7	9	8,8	1	1	1	1	1	1	1	1	1	0	1	-0	274,449329	321,685698	0
15.01.2021	11:14:37	0	25,634179	4,209744	1,71525	357,5412	0,254	89,318	0	1015,14	7	9	8,8	1	1	1	1	1	1	1	1	1	0	1	-0	274,431103	321,600252	0
15.01.2021	11:14:38	0	26,102405	5,00618	1,752	4,0788	0,248	89,292	0	1015,02	7	9	8,8	1	1	1	1	1	1	1	1	1	0	1	-0	274,415927	321,529122	0
15.01.2021	11:14:39	0	25,985375	2,958196	1,75125	357,6132	0,25	89,306	0	1015,06	7	9	8,8	1	1	1	1	1	1	1	1	1	0	1	-0	274,415927	321,529122	0
15.01.2021	11:14:40	0	26,2195	3,754632	1,68075	6,4152	0,254	89,31	0	1015,06	7	9	8,8	1	1	1	1	1	1	1	1	1	0	1	-0	274,415927	321,529122	0
15.01.2021	11:14:41	0	26,10247	3,071952	1,61475	1,17	0,255	89,319	0	1015,14	7	9	8,9	1	1	1	1	1	1	1	1	1	0	1	-0	274,273855	320,863787	0
15.01.2021	11:14:42	0	26,102491	3,185746	1,70775	0,0972	0,25	89,294	0	1015,06	7	9	8,8	1	1	1	1	1	1	1	1	1	0	1	-0,281889	274,375012	321,055518	0
15.01.2021	11:14:43	0	25,86841	3,868404	1,88025	360	0,252	89,319	0	1014,8	7	9	8,8	1	1	1	1	1	1	1	1	1	0	1	-0	274,28892	320,934286	0
15.01.2021	11:14:44	0	26,219586	4,437285	2,0415	8,604	0,254	89,317	0	1015,04	7	9	8,8	1	1	1	1	1	1	1	1	1	0	1	-0	274,441733	321,650084	0
15.01.2021	11:14:45	0	25,868453	3,071965	2,2215	2,3652	0,248	89,31	0	1015,14	7	9	8,8	1	1	1	1	1	1	1	1	1	0	1	-0	274,322103	321,089618	0
15.01.2021	11:14:46	0	25,868474	2,844411	2,364	1,908	0,244	89,319	0	1015	7	9	8,8	1	1	1	1	1	1	1	1	1	0	1	-0	274,429584	321,593136	0
15.01.2021	11:14:47	0	26,336703	4,664833	2,38575	358,7832	0,256	89,324	0	1015,02	7	9	8,8	1	1	1	1	1	1	1	1	1	0	1	-0	274,347783	321,20987	0
15.01.2021	11:14:48	0	25,985569	3,299515	2,307	358,8264	0,248	89,324	0	1014,98	7	9	8,8	1	1	1	1	1	1	1	1	1	0	1	-0	274,449329	321,685698	0
15.01.2021	11:14:49	0	26,336747	3,754618	2,36325	0,8568	0,254	89,329	0	1015,12	7	9	8,8	1	1	1	1	1	1	1	1	1	0	1	-0	274,37804	321,351591	0
15.01.2021	11:14:50	0	25,985612	3,527064	2,41575	347,6556	0,248	89,322	0	1015	7	9	8,8	1	1	1	1	1	1	1	1	1	0	1	-0	274,434139	321,614486	0
15.01.2021	11:14:51	0	25,985633	3,868368	2,49525	351,0036	0,252	89,333	0	1015,04	7	9	8,9	1	1	1	1	1	1	1	1	1	0	1	-0	274,458449	321,728458	0
15.01.2021	11:14:52	0	26,336812	4,778571	2,37975	356,6556	0,254	89,327	0	1015,08	7	9	8,9	1	1	1	1	1	1	1	1	1	0	1	-0	274,400763	321,458059	0
15.01.2021	11:14:53	0	25,985676	4,778598	2,26425	9,72	0,254	89,317	0	1015	7	9	8,8	1	1	1	1	1	1	1	1	1	0	1	-0	274,429584	321,593136	0
15.01.2021	11:14:54	0	26,219803	4,20969	2,145	7,8516	0,259	89,338	0	1014,86	7	9	8,9	1	1	1	1	1	1	1	1	1	0	1	-0,563777	274,349295	320,653172	0
15.01.2021	11:14:55	0	26,336877	4,095938	2,199	16,4628	0,247	89,315	0	1015,06	7	9	8,8	1	1	1	1	1	1	1	1	1	0	1	-0	274,275361	320,870834	0
15.01.2021	11:14:56	0	26,336899	5,11992	2,21925	357,6888	0,252	89,34	0	1015,12	7	9	8,8	1	1	1	1	1	1	1	1	1	0	1	-0	274,434139	321,614486	0
15.01.2021	11:14:57	0	26,102815	2,958175	2,11875	1,9296	0,254	89,343	0	1015,12	7	9	8,8	1	1	1	1	1	1	1	1	1	0	1	-0	274,370471	321,316136	0
15.01.2021	11:14:58	0	26,102836	4,323485	2,0805	3,7692	0,252	89,333	0	1015,08	7	9	8,8	1	1	1	1	1	1	1	1	1	0	1	-0	274,438695	321,635843	0
15.01.2021	11:14:59	0	26,219911	4,551035	2,13825	5,67	0,245	89,34	0	1015	7	9	8,8	1	1	1	1	1	1	1	1	1	0	1	-0,916138	274,320593	320,166413	0
15.01.2021	11:15:00	0	26,688168	3,640825	2,16	0,8604	0,255	89,341	0	1015,1	7	9	8,8	1	1	1	1	1	1	1	1	1	0	1	-2,043693	274,464531	319,713285	0
15.01.2021	11:15:01	0	26,688168	3,640825	2,16	0,8604	0,255	89,341	0	1015,1	7	9	8,8	1	1	1	1	1	1	1	1	1	0	1	-0	274,371985	321,323225	0
15.01.2021	11:15:02	0	26,102923	2,616842	2,6295	4,4568	0,251	89,336	0	1015,12	7	9	8,8	1	1	1	1	1	1	1	1	1	0	1	-0	274,27235	320,85674	0
15.01.2021	11:15:03	0	26,337051	4,664803	2,80875	0,1332	0,254	89,356	0	1015,12	7	9	8,8	1	1	1	1	1	1	1	1	1	0	1	-1,198027	274,381068	320,167751	0
15.01.2021	11:15:04	0	26,337073	5,347455	3,0165	2,6388	0,256	89,342	0	1015,02	7	9	8,8	1	1	1	1	1	1	1	1	1	0	1	-0	274,44781	321,678574	0
15.01.2021	11:15:05	0	26,571202	3,071941	3,00975	2,2932	0,255	89,361	0	1015,14	7	9	8,8	1	1	1	1	1	1	1	1	1	0	1	-0,563777	274,329652	320,561189	0
15.01.2021	11:15:06	0	26,220062	4,437246	3,039	3,4848	0,254	89,364	0	1015,06	7	9	8,8	1	1	1	1	1	1	1	1	1	0	1	-0	274,275361	320,870834	0
15.01.2021	11:15:07	0	26,454192	2,844388	3,0015	349,8444	0,25	89,355	0	1015,08	7	9	8,8	1	1	1	1	1	1	1	1	1	0	1	-0	274,349295	321,21695	0
15.01.2021	11:15:08	0	26,33716	2,844386	2,86125	351,3996	0,251	89,372	0	1015,04	7	9	8,8	1	1	1	1	1	1	1	1	1	0	1	-0	274,293441	320,955448	0
15.01.2021	11:15:09	0	26,805398	3,982139	2,6835	350,7192	0,256	89,368	0	1015,08	7	9	8,8	1	1	1	1	1	1	1	1	1	0	1	-0	274,375012	321,337407	0
15.01.2021	11:15:10	0	26,922474	4,209689	2,586	351,342	0,253	89,371	0	1015,16	7	9	8,8	1	1	1	1	1	1	1	1	1	0	1	-0	274,423513	321,564679	0
15.01.2021	11:15:11	0	26,571333	4,095912	2,4705	4,8456	0,257	89,37	0	1015,18	7	9	8,8	1	1	1	1	1	1	1	1	1	0	1	-0	274,375012	321,337407	0
15.01.2021	11:15:12	0	26,454301	4,892337	2,304	350,1864	0,25	89,384	0	1015,1	7	9	8,8	1	1	1	1	1	1	1	1	1	0	1	-0	274,260308	320,800395	0
15.01.2021	11:15:13	0	26,805486	3,185706	2,037	340,5708	0,254	89,38	0	1015,1	7	9	8,8	1	1	1	1	1	1	1	1	1	0	1	-0	274,367445	321,301958	0
15.01.2021	11:15:14	0	27,039618	4,437232	1,785	347,2092	0,259	89,364	0	1015	7	9	8,8	1	1	1	1	1	1	1	1	1	0	1	-0	274,466052	321,76411	0
15.01.2021	11:15:15	0	26,922585	2,958154	1,7265	356,0868	0,256	89,373	0	1014,84	7	9	8,8	1	1	1	1	1	1	1	1	1	0	1	-0	274,307013	321,018972	0
15.01.2021	11:15:16	0	26,571443	4,437229	1,707	348,5592	0,252	89,379	0	1015,1	7	9	8,8	1	1	1	1	1	1	1	1	1	0	1	-0	274,46149	321,742717	0
15.01.2021	11:15:17	0	26,805574	4,778523	1,7025	343,458	0,254	89,377	0	1014,78	7	9	8,9	1	1	1	1	1	1	1	1	1	0	1	-0	274,355343	321,245275	0
15.01.2021	11:15:18	0	26,571486	4,551	1,72425	351,0432	0,249	89,362	0	1014,88	7	9	8,8	1	1	1	1	1	1	1	1	1	0	1	-0	274,453888	321,707075	0
15.01.2021	11:15:19	0	26,922674	3,982124	1,86375	345,0852	0,254	89,387	0	1014,92	7	9	8,8	1	1	1	1	1	1	1	1	1	0	1	-0	274,370471	321,316136	0
15.01.2021	11:15:20	0	26,80564	4,095897	1,95225	347,6268	0,253	89,383	0	1015,08	7	9	8,8	1	1	1	1	1	1	1	1	1	0	1	-0	274,28892	320,934286	0
15.01.2021	11:15:21	0	27,156828	5,006094	1,92	340,9128	0,253	89,373	0	1015,02	7	9	8,8	1	1	1	1	1	1	1	1	1	0	1	-0	274,338716	321,167406	0
15.01.2021	11:15:22	0	26,805685	4,095894	1,98225	344,6244	0,255	89,385	0	1014,9	7	9	8,8	1	1	1	1	1	1	1	1	1	0	1	-2,114165	274,284399	318,798964	0
15.01.2021	11:15:23	0	26,922762	2,958144	1,9215	347,6232	0,255	89,385	0	1015,04	7	9	8,8	1	1	1	1	1	1	1	1	1	0	1	-0	274,387126	321,39416	0
15.01.2021	11:15:24	0	26,805729	2,844368	1,7685	7,1136	0,252	89,389	0	1015,12	7	9	8,8	1	1	1	1	1	1	1	1	1	0	1	-0	274,27988	320,891978	0
15.01.2021	11:15:25	0	27,156918	4,892312	1,63875	14,0256	0,249	89,384	0	1014,96	7	9	8,8	1	1	1	1	1	1	1	1	1	0	1	-0	274,346272	321,202791	0
15.01.2021	11:15:26	0	26,805773	4,323436	1,71225	15,7608	0,256	89,376	0	1015,04	7	9	8,8	1	1	1	1	1	1	1	1	1	0	1	-0,634249	274,432621	320,97312	0
15.01.2021	11:15:27	0	26,571683	2,844365	1,9095	0,864	0,26	89,386	0	1015,1	7	9	8,8	1	1	1	1	1	1	1	1	1	0	1	-0	274,331163	321,132038	0
15.01.2021	11:15:28	0	27,039929	4,095884	1,92	359,4708	0,252	89,391	0	1015,06	7	9	8,8	1	1	1	1	1	1	1	1	1	0	1	-1,479915	274,275361	319,390918	0
15.01.2021	11:15:29	0	27,157007	3,071912	1,89375	357,2496	0,255	89,389	0	1015	7	9	8,8	1	1	1	1	1	1	1	1	1	0	1	-0	274,326632	321,110825	0
15.01.2021	11:15:30	0	27,391141	2,844362	1,848	357,9588	0,262	89,371	0	1015,1	7	9	8,8	1	1	1	1	1	1	1	1	1	0	1	-0	274,34476	321,195713	0
15.01.2021	11:15:31	0	27,391164	3,982105	1,79025	338,7636	0,26	89,382	0	1014,9	7	9	8,8	1	1	1	1	1	1	1	1	1	0	1	-0	274,317575	321,068418	0
15.01.2021	11:15:32	0	26,922961	4,209652	1,764	359,1756	0,261	89,381	0	1015,02	7	9	8,8	1	1	1	1	1	1	1	1	1	0	1	-0	274,27988	320,891978	0
15.01.2021	11:15:33	0	27,274152	3,868327	1,89075	360	0,259	89,397	0	1015,02	7	9	8,8	1	1	1	1	1	1	1	1	1	0	1	-0	274,429584	321,593136	0
15.01.2021	11:15:34	0	27,040062	3,413228	2,067	359,4636	0,261	89,39	0	1015,04	7	9	8,8	1	1	1	1	1	1	1	1	1	0	1	-0	274,335694	321,153257	0
15.01.2021	11:15:35	0	26,80597	2,730582	2,21025	3,384	0,256	89,388	0	1015,08	7	9	8,8	1	1	1	1	1	1	1	1	1	0	1	-0	274,28892	320,934286	0
15.01.2021	11:15:36	0	27,040106	2,844355	2,26125	359,5572	0,256	89,37	0	1015,02	7	9	8,8	1	1	1	1	1	1	1	1	1	0	1	-0	274,329652	321,124966	0
15.01.2021	11:15:37	0	26,923071	2,161709	2,232	0,1116	0,26	89,384	0	1015,14	7	9	8,8	1	1	1	1	1	1	1	1	1	0	1	-0	274,431103	321,600252	0
15.01.2021	11:15:38	0	27,508378	3,982094	2,154	3,7764	0,263	89,387	0	1015,1	7	9	8,8	1	1	1	1	1	1	1	1	1	0	1	-0	274,326632	321,110825	0
15.01.2021	11:15:39	0	27,040172	2,503029	2,06475	358,6572	0,261	89,391	0	1015,02	7	9	8,8	1	1	1	1	1	1	1	1	1	0	1	-0,563777	274,456929	321,157552	0
15.01.2021	11:15:40	0	27,391366	3,868316	2,0475	2,6424	0,259	89,381	0	1015,1	7	9	8,8	1	1	1	1	1	1	1	1	1	0	1	-0	274,323613	321,096687	0
15.01.2021	11:15:41	0	26,923159	4,664733	2,04825	357,6636	0,26	89,403	0	1015,14	7	9	8,8	1	1	1	1	1	1	1	1	1	0	1	-1,691332	274,455409	320,02287	0
15.01.2021	11:15:42	0	27,157296	3,868313	2,1465	3,3804	0,263	89,388	0	1015,18	7	9	8,8	1	1	1	1	1	1	1	1	1	0	1	-0	274,284399	320,913129	0
15.01.2021	11:15:43	0	27,157318	2,275478	2,22975	2,6496	0,255	89,385	0	1014,98	7	9	8,8	1	1	1	1	1	1	1	1	1	0	1	-0	274,397732	321,443854	0
15.01.2021	11:15:44	0	27,274398	4,778501	2,331	7,4808	0,257	89,387	0	1015,06	7	9	8,8	1	1	1	1	1	1	1	1	1	0	1	-0	274,27988	320,891978	0
15.01.2021	11:15:45	0	27,27442	2,047916	2,46675	18,4392	0,261	89,366	0	1015,04	7	9	8,9	1	1	1	1	1	1	1	1	1	0	1	-0,211416	274,376526	321,133082	0
15.01.2021	11:15:46	0	27,157385	3,071891	2,439	11,1924	0,258	89,383	0	1015,1	7	9	8,8	1	1	1	1	1	1	1	1	1	0	1	-1,409443	274,294949	319,553061	0
15.01.2021	11:15:47	0	27,391523	4,892269	2,5455	27,9684	0,259	89,39	0	1015,24	7	9	8,8	1	1	1	1	1	1	1	1	1	0	1	-0	274,412893	321,514904	0
15.01.2021	11:15:48	0	27,157429	4,437172	2,8155	15,3936	0,262	89,382	0	1015,14	7	9	8,8	1	1	1	1	1	1	1	1	1	0	1	-0,281889	274,284399	320,63124	0
15.01.2021	11:15:49	0	27,625683	3,868303	3,3945	6,8112	0,262	89,383	0	1014,96	7	9	8,8	1	1	1	1	1	1	1	1	1	0	1	-0	274,358368	321,259442	0
15.01.2021	11:15:50	0	27,157474	4,550943	3,55425	6,4188	0,256	89,394	0	1015,14	7	9	8,8	1	1	1	1	1	1	1	1	1	0	1	-0	274,456929	321,72133	0
15.01.2021	11:15:51	0	27,157496	2,844338	3,51525	359,892	0,264	89,392	0	1014,96	7	9	8,8	1	1	1	1	1	1	1	1	1	0	1	-0	274,326632	321,110825	0
15.01.2021	11:15:52	0	27,274576	3,526978	3,39225	2,6352	0,26	89,386	0	1015,06	7	9	8,8	1	1	1	1	1	1	1	1	1	0	1	-0	274,434139	321,614486	0
15.01.2021	11:15:53	0	27,274599	4,892257	3,312	0,8712	0,255	89,395	0	1015,1	7	9	8,8	1	1	1	1	1	1	1	1	1	0	1	-0,563777	274,434139	321,050709	0
15.01.2021	11:15:54	0	27,508738	3,185655	3,447	1,1592	0,262	89,393	0	1015,06	7	9	8,8	1	1	1	1	1	1	1	1	1	0	1	-0	274,338716	321,167406	0
15.01.2021	11:15:55	0	26,923468	4,550934	3,51225	355,7772	0,26	89,355	0	1015,08	7	9	8,8	1	1	1	1	1	1	1	1	1	0	1	-0	274,459969	321,735587	0
15.01.2021	11:15:56	0	27,274665	2,958106	3,36825	12,8304	0,258	89,362	0	1015,14	7	9	8,8	1	1	1	1	1	1	1	1	1	0	1	-0	274,320593	321,082551	0
15.01.2021	11:15:57	0	27,157629	3,754517	3,336	15,03	0,262	89,346	0	1015,14	7	9	8,8	1	1	1	1	1	1	1	1	1	0	1	-0	274,396216	321,436753	0
15.01.2021	11:15:58	0	27,040592	2,958103	3,246	17,7696	0,262	89,363	0	1014,86	7	9	8,8	1	1	1	1	1	1	1	1	1	0	1	-0	274,284399	320,913129	0
15.01.2021	11:15:59	0	27,391791	4,437153	3,195	10,4364	0,265	89,349	0	1015,04	7	9	8,8	1	1	1	1	1	1	1	1	1	0	1	-2,114165	274,376526	319,230334	0
15.01.2021	11:16:00	0	27,274777	3,299399	3,204	2,6388	0,265	89,351	0	1015,14	7	9	8,9	1	1	1	1	1	1	1	1	1	0	1	-0	274,291934	320,948393	0
15.01.2021	11:16:01	0	27,274777	3,299399	3,204	2,6388	0,265	89,351	0	1015,14	7	9	8,9	1	1	1	1	1	1	1	1	1	0	1	-0	274,411376	321,507796	0
15.01.2021	11:16:02	0	27,274799	3,185645	2,96175	6,0624	0,267	89,354	0	1015,1	7	9	8,8	1	1	1	1	1	1	1	1	1	0	1	-1,338971	274,316065	319,722381	0
15.01.2021	11:16:03	0	27,274821	3,299416	2,7765	8,2476	0,264	89,345	0	1014,84	7	9	8,8	1	1	1	1	1	1	1	1	1	0	1	-0	274,450849	321,692823	0
15.01.2021	11:16:04	0	27,157784	3,86828	2,58825	359,4924	0,258	89,338	0	1014,96	7,1	9	8,8	1	1	1	1	1	1	1	1	1	0	1	-0	274,328142	321,117895	0
15.01.2021	11:16:05	0	27,391925	4,778461	2,64375	19,1376	0,269	89,331	0	1015,08	7	9	8,8	1	1	1	1	1	1	1	1	1	0	1	-0	274,308521	321,026034	0
15.01.2021	11:16:06	0	27,274888	3,18564	2,7795	7,128	0,271	89,34	0	1015,06	7	9	8,8	1	1	1	1	1	1	1	1	1	0	1	-0,98661	274,337205	320,173721	0
15.01.2021	11:16:07	0	27,15785	3,071866	2,73	6,0408	0,26	89,333	0	1015	7	9	8,8	1	1	1	1	1	1	1	1	1	0	1	-0	274,340227	321,174482	0
15.01.2021	11:16:08	0	27,743172	5,119774	2,6715	11,1744	0,266	89,35	0	1015,1	7	9	8,8	1	1	1	1	1	1	1	1	1	0	1	-0	274,423513	321,564679	0
15.01.2021	11:16:09	0	27,392014	4,095818	2,55	5,2272	0,267	89,346	0	1015,08	7	9	8,8	1	1	1	1	1	1	1	1	1	0	1	-0	274,423513	321,564679	0
15.01.2021	11:16:10	0	27,392037	3,071862	2,421	6,9012	0,267	89,338	0	1015,06	7	9	8,8	1	1	1	1	1	1	1	1	1	0	1	-0	274,319084	321,075484	0
15.01.2021	11:16:11	0	27,157939	2,730543	2,2815	358,4376	0,262	89,346	0	1015,04	7	9	8,8	1	1	1	1	1	1	1	1	1	0	1	-0	274,371985	321,323225	0
15.01.2021	11:16:12	0	27,157961	4,664676	2,2635	0,8532	0,268	89,351	0	1015,14	7	9	8,8	1	1	1	1	1	1	1	1	1	0	1	-1,338971	274,455409	320,375231	0
15.01.2021	11:16:13	0	27,392104	2,844313	2,34825	2,6388	0,263	89,332	0	1015,1	7	9	8,8	1	1	1	1	1	1	1	1	1	0	1	-0	274,367445	321,301958	0
15.01.2021	11:16:14	0	27,626247	3,64072	2,421	3,7584	0,256	89,338	0	1014,98	7	9	8,8	1	1	1	1	1	1	1	1	1	0	1	-0	274,464531	321,756978	0
15.01.2021	11:16:15	0	27,392148	4,66467	2,379	0,1188	0,266	89,338	0	1015,16	7	9	8,8	1	1	1	1	1	1	1	1	1	0	1	-0	274,367445	321,301958	0
15.01.2021	11:16:16	0	27,509231	4,892213	2,3385	3,042	0,264	89,342	0	1015,04	7	9	8,8	1	1	1	1	1	1	1	1	1	0	1	-0	274,303996	321,004851	0
15.01.2021	11:16:17	0	27,158072	4,095805	2,2875	0,1224	0,256	89,35	0	1015,08	7,1	9	8,8	1	1	1	1	1	1	1	1	1	0	1	-0	274,299472	320,983675	0
15.01.2021	11:16:18	0	27,275154	2,389218	2,27625	4,8276	0,256	89,339	0	1015	7	9	8,8	1	1	1	1	1	1	1	1	1	0	1	-0	274,349295	321,21695	0
15.01.2021	11:16:19	0	27,74342	4,209574	2,31375	358,7112	0,256	89,323	0	1015,06	7	9	8,8	1	1	1	1	1	1	1	1	1	0	1	-0,352361	274,450849	321,340462	0
15.01.2021	11:16:20	0	27,509321	4,664661	2,367	358,7184	0,261	89,325	0	1015,06	7	9	8,8	1	1	1	1	1	1	1	1	1	0	1	-0,563777	274,341738	320,617781	0
15.01.2021	11:16:21	0	27,275221	2,844304	2,32875	357,6024	0,267	89,347	0	1015,22	7	9	8,8	1	1	1	1	1	1	1	1	1	0	1	-0	274,459969	321,735587	0
15.01.2021	11:16:22	0	27,743488	5,119746	2,097	351,342	0,259	89,317	0	1015,06	7	9	8,8	1	1	1	1	1	1	1	1	1	0	1	-0	274,347783	321,20987	0
15.01.2021	11:16:23	0	27,158204	2,73053	1,96125	357,2532	0,263	89,313	0	1014,98	7	9	8,8	1	1	1	1	1	1	1	1	1	0	1	-0	274,287413	320,927233	0
15.01.2021	11:16:24	0	27,275287	2,275441	1,94175	360	0,264	89,328	0	1014,96	7	9	8,8	1	1	1	1	1	1	1	1	1	0	1	-0	274,347783	321,20987	0
15.01.2021	11:16:25	0	27,509432	3,071844	2,01225	355,3704	0,261	89,322	0	1015,06	7,1	9	8,8	1	1	1	1	1	1	1	1	1	0	1	-0	274,316065	321,061352	0
15.01.2021	11:16:26	0	27,392393	4,209562	2,037	0,4788	0,262	89,319	0	1015,04	7	9	8,8	1	1	1	1	1	1	1	1	1	0	1	-0	274,30098	320,990733	0
15.01.2021	11:16:27	0	27,509477	2,95807	1,932	353,1816	0,26	89,312	0	1014,96	7,1	9	8,8	1	1	1	1	1	1	1	1	1	0	1	-0	274,35988	321,266526	0
15.01.2021	11:16:28	0	27,275376	4,209559	1,914	346,1148	0,261	89,309	0	1015,16	7	9	8,8	1	1	1	1	1	1	1	1	1	0	1	-0	274,290427	320,941339	0
15.01.2021	11:16:29	0	27,275398	2,730524	1,91475	343,4508	0,263	89,307	0	1015	7	9	8,8	1	1	1	1	1	1	1	1	1	0	1	-0	274,350807	321,22403	0
15.01.2021	11:16:30	0	27,27542	3,86824	1,82925	343,5012	0,26	89,32	0	1015,1	7	9	8,8	1	1	1	1	1	1	1	1	1	0	1	-0	274,440214	321,642963	0
15.01.2021	11:16:31	0	27,509566	4,892184	1,75425	346,4856	0,26	89,321	0	1015,1	7	9	8,8	1	1	1	1	1	1	1	1	1	0	1	-0	274,426549	321,578906	0
15.01.2021	11:16:32	0	27,509589	2,161662	1,74	356,4396	0,264	89,321	0	1015,18	7	9	8,8	1	1	1	1	1	1	1	1	1	0	1	-0	274,466052	321,76411	0
15.01.2021	11:16:33	0	27,392549	3,754464	1,75425	350,6508	0,259	89,304	0	1014,92	7	9	8,8	1	1	1	1	1	1	1	1	1	0	1	-0	274,379554	321,358684	0
15.01.2021	11:16:34	0	27,158446	2,958061	1,8165	352,7856	0,257	89,32	0	1015,04	7	9	8,8	1	1	1	1	1	1	1	1	1	0	1	-0	274,319084	321,075484	0
15.01.2021	11:16:35	0	27,275531	4,323319	1,92075	360	0,267	89,328	0	1015,06	7	9	8,8	1	1	1	1	1	1	1	1	1	0	1	-0	274,469094	321,778375	0
15.01.2021	11:16:36	0	27,62674	3,640688	2,025	0,1944	0,261	89,318	0	1015,1	7	9	8,8	1	1	1	1	1	1	1	1	1	0	1	-0	274,358368	321,259442	0
15.01.2021	11:16:37	0	27,626763	4,892173	1,95975	355,3452	0,259	89,31	0	1015,04	7	9	8,8	1	1	1	1	1	1	1	1	1	0	1	-0	274,44781	321,678574	0
15.01.2021	11:16:38	0	27,158534	2,616743	1,851	2,2968	0,259	89,324	0	1014,98	7	9	8,8	1	1	1	1	1	1	1	1	1	0	1	-0	274,349295	321,21695	0
15.01.2021	11:16:39	0	27,39249	4,664626	1,94025	5,22	0,267	89,344	0	1015,16	7,1	9,1	8,8	1	1	1	1	1	1	1	1	1	0	1	-0	274,452369	321,699949	0
15.01.2021	11:16:40	0	27,041516	3,299369	1,92375	5,6592	0,266	89,33	0	1015	7,1	9	8,8	1	1	1	1	1	1	1	1	1	0	1	-0	274,329652	321,124966	0
15.01.2021	11:16:41	0	27,392726	4,664623	2,00475	1,9368	0,264	89,332	0	1015,04	7	9	8,8	1	1	1	1	1	1	1	1	1	0	1	-0	274,426549	321,578906	0
15.01.2021	11:16:42	0	27,626875	2,73051	2,0625	355,3092	0,268	89,329	0	1015,06	7,1	9	8,8	1	1	1	1	1	1	1	1	1	0	1	-0	274,302488	320,997792	0
15.01.2021	11:16:43	0	27,158644	4,323305	2,124	7,5132	0,266	89,332	0	1015,04	7	9	8,8	1	1	1	1	1	1	1	1	1	0	1	-0	274,323613	321,096687	0
15.01.2021	11:16:44	0	27,392793	3,868219	2,24475	3,3912	0,261	89,335	0	1015,06	7	9	8,8	1	1	1	1	1	1	1	1	1	0	1	-0	274,459969	321,735587	0
15.01.2021	11:16:45	0	27,275752	4,209531	2,298	4,8096	0,264	89,341	0	1015,04	7,1	9	8,8	1	1	1	1	1	1	1	1	1	0	1	-1,691332	274,343249	319,497303	0
15.01.2021	11:16:46	0	27,041647	3,071819	2,38125	2,6496	0,265	89,335	0	1015,14	7	9	8,8	1	1	1	1	1	1	1	1	1	0	1	-0	274,325122	321,103756	0
15.01.2021	11:16:47	0	27,392859	3,868215	2,364	13,554	0,261	89,327	0	1015,08	7	9	8,8	1	1	1	1	1	1	1	1	1	0	1	-0	274,450849	321,692823	0
15.01.2021	11:16:48	0	27,158754	3,5269	2,22	15,408	0,267	89,334	0	1014,88	7	9	8,8	1	1	1	1	1	1	1	1	1	0	1	-0	274,394701	321,429653	0
15.01.2021	11:16:49	0	27,041713	3,526899	2,0025	16,8516	0,265	89,332	0	1014,98	7,1	9	8,8	1	1	1	1	1	1	1	1	1	0	1	-0	274,294949	320,962504	0
15.01.2021	11:16:50	0	27,50999	3,981981	1,86975	10,4508	0,265	89,346	0	1015,16	7,1	9	8,8	1	1	1	1	1	1	1	1	1	0	1	-0	274,332673	321,13911	0
15.01.2021	11:16:51	0	26,690565	2,844271	1,827	13,158	0,268	89,34	0	1015,12	7	9	8,8	1	1	1	1	1	1	1	1	1	0	1	-0	274,294949	320,962504	0
15.01.2021	11:16:52	0	27,041778	4,32329	1,85175	21,7692	0,268	89,331	0	1014,98	7	9	8,8	1	1	1	1	1	1	1	1	1	0	1	-0	274,313047	321,047223	0
15.01.2021	11:16:53	0	27,275928	4,095747	1,77225	12,096	0,269	89,36	0	1015,2	7	9	8,8	1	1	1	1	1	1	1	1	1	0	1	-0,634249	274,352319	320,596862	0
15.01.2021	11:16:54	0	27,27595	3,413121	1,76175	23,2092	0,268	89,348	0	1015,14	7,1	9	8,8	1	1	1	1	1	1	1	1	1	0	1	-0	274,459969	321,735587	0
15.01.2021	11:16:55	0	27,275972	2,844267	1,872	14,652	0,264	89,353	0	1015	7,1	9	8,8	1	1	1	1	1	1	1	1	1	0	1	-0	274,375012	321,337407	0
15.01.2021	11:16:56	0	27,15893	3,299348	2,03775	27,3708	0,26	89,344	0	1015,04	7,1	9	8,8	1	1	1	1	1	1	1	1	1	0	1	-0	274,290427	320,941339	0
15.01.2021	11:16:57	0	26,690694	2,616723	2,238	22,932	0,263	89,342	0	1014,98	7,1	9	8,8	1	1	1	1	1	1	1	1	1	0	1	-0,98661	274,355343	320,258665	0
15.01.2021	11:16:58	0	26,80778	2,844263	2,2095	17,2404	0,267	89,368	0	1015,06	7,1	9	8,8	1	1	1	1	1	1	1	1	1	0	1	-0,493305	274,290427	320,448034	0
15.01.2021	11:16:59	0	27,27606	4,323278	2,1165	19,8864	0,267	89,359	0	1015,04	7	9	8,8	1	1	1	1	1	1	1	1	1	0	1	-1,973221	274,394701	319,456432	0
15.01.2021	11:17:00	0	27,159039	2,616719	2,061	10,0476	0,263	89,359	0	1015,18	7	9	8,8	1	1	1	1	1	1	1	1	1	0	1	-0	274,347783	321,20987	0
15.01.2021	11:17:01	0	27,159039	2,616719	2,061	10,0476	0,263	89,359	0	1015,18	7	9	8,8	1	1	1	1	1	1	1	1	1	0	1	-0	274,347783	321,20987	0
15.01.2021	11:17:02	0	26,924931	2,616718	2,076	360	0,261	89,369	0	1014,96	7,1	9	8,8	1	1	1	1	1	1	1	1	1	0	1	-0,563777	274,417444	320,972454	0
15.01.2021	11:17:03	0	27,159083	5,460975	2,07075	2,6532	0,267	89,34	0	1015,04	7	9	8,8	1	1	1	1	1	1	1	1	1	0	1	-0	274,449329	321,685698	0
15.01.2021	11:17:04	0	26,924975	2,502946	1,97775	355,7736	0,264	89,364	0	1014,96	7	9	8,8	1	1	1	1	1	1	1	1	1	0	1	-0	274,397732	321,443854	0
15.01.2021	11:17:05	0	26,807931	4,664579	1,842	0	0,267	89,371	0	1015,06	7	9	8,8	1	1	1	1	1	1	1	1	1	0	1	-0	274,428066	321,586021	0
15.01.2021	11:17:06	0	27,042084	3,413105	1,77825	359,4996	0,266	89,371	0	1015,14	7	9	8,8	1	1	1	1	1	1	1	1	1	0	1	-0,211416	274,337205	320,948915	0
15.01.2021	11:17:07	0	27,159171	3,185564	1,794	350,9424	0,262	89,354	0	1014,92	7,1	9	8,8	1	1	1	1	1	1	1	1	1	0	1	-0	274,443252	321,657205	0
15.01.2021	11:17:08	0	27,042127	4,437033	1,8885	0,594	0,268	89,363	0	1015,06	7	9	8,8	1	1	1	1	1	1	1	1	1	0	1	-0	274,435658	321,621605	0
15.01.2021	11:17:09	0	26,925083	2,616711	1,95975	350,2764	0,27	89,374	0	1015	7	9	8,8	1	1	1	1	1	1	1	1	1	0	1	-0	274,417444	321,536232	0
15.01.2021	11:17:10	0	26,808039	4,5508	1,98075	2,6244	0,27	89,371	0	1014,94	7	9	8,8	1	1	1	1	1	1	1	1	1	0	1	-0	274,44781	321,678574	0
15.01.2021	11:17:11	0	26,925127	3,413099	2,016	352,2924	0,264	89,366	0	1014,92	7,1	9	8,8	1	1	1	1	1	1	1	1	1	0	1	-0	274,37804	321,351591	0
15.01.2021	11:17:12	0	26,925148	2,958018	2,04075	356,1012	0,269	89,389	0	1015,1	7	9	8,8	1	1	1	1	1	1	1	1	1	0	1	-0	274,44629	321,67145	0
15.01.2021	11:17:13	0	26,691038	2,730477	2,034	0,8676	0,268	89,393	0	1014,92	7,1	9	8,8	1	1	1	1	1	1	1	1	1	0	1	-0	274,343249	321,188635	0
15.01.2021	11:17:14	0	26,69106	2,502936	2,0385	15,7644	0,267	89,384	0	1015,02	7,1	9	8,8	1	1	1	1	1	1	1	1	1	0	1	-0	274,338716	321,167406	0
15.01.2021	11:17:15	0	26,808147	3,185554	1,88175	6,8004	0,269	89,389	0	1015,06	7,1	9	8,8	1	1	1	1	1	1	1	1	1	0	1	-0	274,31003	321,033096	0
15.01.2021	11:17:16	0	26,45697	3,071783	1,74375	15,7788	0,27	89,384	0	1015	7,1	9	8,8	1	1	1	1	1	1	1	1	1	0	1	-0	274,382582	321,372873	0
15.01.2021	11:17:17	0	26,456991	4,095709	1,59	4,8348	0,273	89,407	0	1015,08	7	9	8,8	1	1	1	1	1	1	1	1	1	0	1	-0	274,46149	321,742717	0
15.01.2021	11:17:18	0	27,042345	2,730471	1,55475	351,6948	0,266	89,374	0	1015,12	7,1	9	8,8	1	1	1	1	1	1	1	1	1	0	1	-0	274,390156	321,408355	0
15.01.2021	11:17:19	0	26,808234	3,981936	1,57425	7,6068	0,271	89,395	0	1015	7,1	9	8,8	1	1	1	1	1	1	1	1	1	0	1	-0	274,476701	321,814051	0
15.01.2021	11:17:20	0	26,925322	3,640626	1,58025	355,8132	0,27	89,391	0	1015,22	7	9	8,8	1	1	1	1	1	1	1	1	1	0	1	-0	274,337205	321,160331	0
15.01.2021	11:17:21	0	26,69121	4,209472	1,61775	2,6244	0,263	89,41	0	1015,1	7,1	9	8,8	1	1	1	1	1	1	1	1	1	0	1	-0	274,322103	321,089618	0
15.01.2021	11:17:22	0	26,808298	3,071776	1,6275	356,1912	0,273	89,407	0	1015,06	7,1	9	8,8	1	1	1	1	1	1	1	1	1	0	1	-0	274,373498	321,330316	0
15.01.2021	11:17:23	0	26,691253	3,413083	1,70175	5,6664	0,267	89,399	0	1015,2	7,1	9	8,8	1	1	1	1	1	1	1	1	1	0	1	-0	274,470615	321,785509	0
15.01.2021	11:17:24	0	26,691274	4,437006	1,78425	358,7364	0,269	89,412	0	1015,06	7,1	9	8,8	1	1	1	1	1	1	1	1	1	0	1	-0	274,343249	321,188635	0
15.01.2021	11:17:25	0	26,457162	3,754388	1,80075	8,2584	0,279	89,413	0	1014,98	7	9	8,8	1	1	1	1	1	1	1	1	1	0	1	-0	274,467573	321,771242	0
15.01.2021	11:17:26	0	26,57425	3,640617	1,73775	8,28	0,273	89,421	0	1015	7,1	9	8,8	1	1	1	1	1	1	1	1	1	0	1	-0	274,481267	321,835464	0
15.01.2021	11:17:27	0	26,691339	3,868154	1,66425	358,4448	0,27	89,4	0	1014,92	7	9	8,8	1	1	1	1	1	1	1	1	1	0	1	-0,211416	274,375012	321,125991	0
15.01.2021	11:17:28	0	26,457225	2,730461	1,665	9,36	0,271	89,408	0	1015,06	7,1	9	8,8	1	1	1	1	1	1	1	1	1	0	1	-0	274,311538	321,040159	0
15.01.2021	11:17:29	0	26,457246	2,844229	1,7505	3,3912	0,262	89,406	0	1015,02	7,1	9	8,8	1	1	1	1	1	1	1	1	1	0	1	-0	274,426549	321,578906	0
15.01.2021	11:17:30	0	26,3402	3,071766	1,8	22,8168	0,266	89,419	0	1015,02	7	9	8,8	1	1	1	1	1	1	1	1	1	0	1	-0	274,297964	320,976617	0
15.01.2021	11:17:31	0	26,574357	3,185534	1,78875	358,4232	0,271	89,423	0	1015	7	9	8,8	1	1	1	1	1	1	1	1	1	0	1	-0	274,31003	321,033096	0
15.01.2021	11:17:32	0	26,106107	2,957995	1,99275	29,0988	0,268	89,428	0	1015	7,1	9	8,8	1	1	1	1	1	1	1	1	1	0	1	-0	274,421996	321,557566	0
15.01.2021	11:17:33	0	26,574399	3,526838	2,097	354,1608	0,269	89,419	0	1015,04	7,1	9	8,8	1	1	1	1	1	1	1	1	1	0	1	-0	274,487357	321,864025	0
15.01.2021	11:17:34	0	26,574421	2,844223	2,136	12,8484	0,274	89,433	0	1015,02	7,1	9	8,8	1	1	1	1	1	1	1	1	1	0	1	-0	274,466052	321,76411	0
15.01.2021	11:17:35	0	26,340306	3,981911	2,16075	12,942	0,273	89,425	0	1015,06	7,1	9	8,8	1	1	1	1	1	1	1	1	1	0	1	-0	274,473658	321,799778	0
15.01.2021	11:17:36	0	26,574463	3,868141	2,28825	10,8072	0,27	89,429	0	1014,92	7	9	8,8	1	1	1	1	1	1	1	1	1	0	1	-0	274,362906	321,280697	0
15.01.2021	11:17:37	0	26,457416	3,868139	2,385	13,1652	0,278	89,435	0	1015	7,1	9	8,8	1	1	1	1	1	1	1	1	1	0	1	-1,691332	274,467573	320,07991	0
15.01.2021	11:17:38	0	26,691574	3,754369	2,58	9,7452	0,27	89,436	0	1015,14	7	9	8,8	1	1	1	1	1	1	1	1	1	0	1	-0	274,435658	321,621605	0
15.01.2021	11:17:39	0	26,223322	2,844218	2,6745	16,47	0,269	89,432	0	1015,06	7,1	9	8,8	1	1	1	1	1	1	1	1	1	0	1	-0	274,362906	321,280697	0
15.01.2021	11:17:40	0	26,340411	2,161605	2,57925	1,9224	0,271	89,44	0	1015,12	7,1	9	8,8	1	1	1	1	1	1	1	1	1	0	1	-0	274,302488	320,997792	0
15.01.2021	11:17:41	0	26,457501	4,436977	2,49075	2,646	0,277	89,434	0	1015,24	7,1	9	8,8	1	1	1	1	1	1	1	1	1	0	1	-0,352361	274,355343	320,892914	0
15.01.2021	11:17:42	0	26,223385	2,730446	2,6805	8,6148	0,275	89,412	0	1014,94	7,1	9	8,8	1	1	1	1	1	1	1	1	1	0	1	-0	274,31003	321,033096	0
15.01.2021	11:17:43	0	26,691681	4,550742	2,77125	5,688	0,277	89,428	0	1015,04	7	9	8,8	1	1	1	1	1	1	1	1	1	0	1	-0,281889	274,437176	321,346835	0
15.01.2021	11:17:44	0	26,457565	3,640592	2,7405	6,0516	0,275	89,434	0	1015,06	7	9	8,8	1	1	1	1	1	1	1	1	1	0	1	-0	274,466052	321,76411	0
15.01.2021	11:17:45	0	26,223448	3,981896	2,72925	3,0132	0,267	89,435	0	1014,96	7	9	8,8	1	1	1	1	1	1	1	1	1	0	1	-0,070472	274,437176	321,558251	0
15.01.2021	11:17:46	0	26,223469	2,84421	2,69025	0,1188	0,276	89,44	0	1015,08	7	9	8,8	1	1	1	1	1	1	1	1	1	0	1	-0	274,305504	321,011912	0
15.01.2021	11:17:47	0	26,457628	4,095661	2,6415	3,384	0,275	89,43	0	1015,08	7	9	8,8	1	1	1	1	1	1	1	1	1	0	1	-0	274,453888	321,707075	0
15.01.2021	11:17:48	0	26,34058	3,071745	2,52975	2,3004	0,28	89,445	0	1015,1	7,1	9	8,8	1	1	1	1	1	1	1	1	1	0	1	-0	274,356855	321,252358	0
15.01.2021	11:17:49	0	26,457485	3,413048	2,44125	12,0852	0,297	89,452	0	1015,26	7,1	9,1	8,8	1	1	1	1	1	1	1	1	1	0	1	-0	274,31003	321,033096	0
15.01.2021	11:17:50	0	26,223553	3,640583	2,48475	8,6004	0,271	89,424	0	1015,16	7	9	8,8	1	1	1	1	1	1	1	1	1	0	1	-0	274,421996	321,557566	0
15.01.2021	11:17:51	0	26,340643	3,413046	2,481	8,2548	0,276	89,437	0	1015,08	7	9	8,8	1	1	1	1	1	1	1	1	1	0	1	-1,198027	274,46149	320,54469	0
15.01.2021	11:17:52	0	26,223411	3,185508	2,421	6,426	0,275	89,427	0	1015,04	7,1	9,1	8,8	1	1	1	1	1	1	1	1	1	0	1	-0	274,356855	321,252358	0
15.01.2021	11:17:53	0	25,989476	2,616666	2,36475	355,032	0,28	89,426	0	1015,12	7	9	8,8	1	1	1	1	1	1	1	1	1	0	1	-0	274,305504	321,011912	0
15.01.2021	11:17:54	0	25,989497	3,071738	2,373	3,024	0,274	89,411	0	1015,1	7,1	9	8,8	1	1	1	1	1	1	1	1	1	0	1	-0	274,325122	321,103756	0
15.01.2021	11:17:55	0	25,989518	3,071736	2,39325	0,8604	0,275	89,406	0	1015,08	7,1	9	8,8	1	1	1	1	1	1	1	1	1	0	1	-0	274,440214	321,642963	0
15.01.2021	11:17:56	0	26,457633	4,550719	2,5455	5,2848	0,268	89,414	0	1015,04	7,1	9,1	8,8	1	1	1	1	1	1	1	1	1	0	1	-0	274,469094	321,778375	0
15.01.2021	11:17:57	0	26,340769	3,640574	2,72625	9,0108	0,274	89,408	0	1015,06	7,1	9	8,8	1	1	1	1	1	1	1	1	1	0	1	-0	274,44781	321,678574	0
15.01.2021	11:17:58	0	25,98958	3,640572	2,7375	6,0588	0,276	89,412	0	1015,02	7,1	9	8,8	1	1	1	1	1	1	1	1	1	0	1	-0	274,337205	321,160331	0
15.01.2021	11:17:59	0	26,106671	4,323178	2,6775	1,5588	0,277	89,42	0	1015,06	7,1	9	8,8	1	1	1	1	1	1	1	1	1	0	1	-0	274,485834	321,856884	0
15.01.2021	11:18:00	0	25,755501	2,844194	2,61075	3,762	0,278	89,42	0	1015,12	7,1	9	8,8	1	1	1	1	1	1	1	1	1	0	1	-0,211416	274,394701	321,218236	0
15.01.2021	11:18:01	0	25,755501	2,844194	2,61075	3,762	0,278	89,42	0	1015,12	7,1	9	8,8	1	1	1	1	1	1	1	1	1	0	1	-0	274,466052	321,76411	0
15.01.2021	11:18:02	0	26,22362	4,664476	2,694	354,294	0,277	89,4	0	1014,94	7,1	9,1	8,8	1	1	1	1	1	1	1	1	1	0	1	-0	274,362906	321,280697	0
15.01.2021	11:18:03	0	26,340895	4,778242	2,57925	348,6312	0,278	89,405	0	1015,06	7	9	8,8	1	1	1	1	1	1	1	1	1	0	1	-0	274,47518	321,806914	0
15.01.2021	11:18:04	0	26,457987	4,209351	2,4	354,6	0,273	89,405	0	1015,08	7,1	9	9	1	1	1	1	1	1	1	1	1	0	1	-0	274,355343	321,245275	0
15.01.2021	11:18:05	0	26,340753	2,844189	2,13525	353,9448	0,276	89,408	0	1015,1	7	9,1	8,8	1	1	1	1	1	1	1	1	1	0	1	-0	274,31003	321,033096	0
15.01.2021	11:18:06	0	25,872494	4,436934	2,0355	354,2256	0,277	89,425	0	1015,02	7	9,1	8,8	1	1	1	1	1	1	1	1	1	0	1	-0	274,412893	321,514904	0
15.01.2021	11:18:07	0	26,223908	4,323165	1,9455	360	0,272	89,411	0	1014,96	7,1	9	8,8	1	1	1	1	1	1	1	1	1	0	1	-0	274,61568	322,466335	0
15.01.2021	11:18:08	0	26,223746	3,299256	1,88025	346,8312	0,282	89,421	0	1015,1	7	9,1	8,8	1	1	1	1	1	1	1	1	1	0	1	-0	274,441733	321,650084	0
15.01.2021	11:18:09	0	26,458093	4,209394	1,8825	347,5476	0,279	89,423	0	1014,88	7,1	9	8,8	1	1	1	1	1	1	1	1	1	0	1	-0	274,313047	321,047223	0
15.01.2021	11:18:10	0	26,1069	3,526788	2,049	348,2892	0,279	89,417	0	1015,12	6,9	9	8,8	1	1	1	1	1	1	1	1	1	0	1	-0	274,397732	321,443854	0
15.01.2021	11:18:11	0	25,989849	4,209391	2,12925	357,2604	0,277	89,409	0	1015,06	7,1	9	8,8	1	1	1	1	1	1	1	1	1	0	1	-0	274,323613	321,096687	0
15.01.2021	11:18:12	0	26,341084	5,00576	2,04675	345,0204	0,279	89,418	0	1015,04	7,1	9	8,8	1	1	1	1	1	1	1	1	1	0	1	-0	274,435658	321,621605	0
15.01.2021	11:18:13	0	25,989891	2,502879	2,00775	359,1036	0,276	89,403	0	1014,84	7,1	9	8,8	1	1	1	1	1	1	1	1	1	0	1	-0	274,31003	321,033096	0
15.01.2021	11:18:14	0	25,87284	2,616645	2,01675	0,8532	0,275	89,421	0	1014,98	7,1	9	8,8	1	1	1	1	1	1	1	1	1	0	1	-0	274,41441	321,522012	0
15.01.2021	11:18:15	0	25,989932	4,323151	2,00775	5,22	0,28	89,433	0	1015,36	7,1	9	8,8	1	1	1	1	1	1	1	1	1	0	1	-0	274,485834	321,856884	0
15.01.2021	11:18:16	0	25,989953	3,299206	2,118	13,14	0,276	89,412	0	1015,04	7,1	9	9	1	1	1	1	1	1	1	1	1	0	1	-0	274,440214	321,642963	0
15.01.2021	11:18:17	0	26,107045	3,86808	2,064	0,126	0,278	89,417	0	1014,98	7,1	9	8,8	1	1	1	1	1	1	1	1	1	0	1	-0	274,316065	321,061352	0
15.01.2021	11:18:18	0	25,989812	3,071709	2,05125	353,1888	0,278	89,436	0	1014,98	7	9,1	8,8	1	1	1	1	1	1	1	1	1	0	1	-0,845666	274,303996	320,159185	0
15.01.2021	11:18:19	0	26,458118	3,868077	2,016	11,196	0,281	89,427	0	1015,12	7,1	9,1	8,8	1	1	1	1	1	1	1	1	1	0	1	-0	274,405311	321,479371	0
15.01.2021	11:18:20	0	26,692469	4,550677	1,983	357,5592	0,279	89,433	0	1015	7,1	9	8,8	1	1	1	1	1	1	1	1	1	0	1	-0	274,488879	321,871167	0
15.01.2021	11:18:21	0	26,458345	2,957939	2,0895	359,7984	0,279	89,423	0	1015	7,1	9	8,8	1	1	1	1	1	1	1	1	1	0	1	-0	274,367445	321,301958	0
15.01.2021	11:18:22	0	26,107149	3,640539	2,21325	1,6272	0,282	89,44	0	1015,08	7,1	9	8,8	1	1	1	1	1	1	1	1	1	0	1	-0	274,31003	321,033096	0
15.01.2021	11:18:23	0	26,224242	4,550672	2,23425	7,5024	0,284	89,436	0	1015,04	7,1	9	8,8	1	1	1	1	1	1	1	1	1	0	1	-0	274,440214	321,642963	0
15.01.2021	11:18:24	0	26,107008	4,323136	2,2695	7,1244	0,278	89,424	0	1015,08	7,1	9,1	8,8	1	1	1	1	1	1	1	1	1	0	1	-0	274,373498	321,330316	0
15.01.2021	11:18:25	0	26,107211	4,550668	2,20425	360	0,283	89,418	0	1015,02	7,1	9	8,8	1	1	1	1	1	1	1	1	1	0	1	-0	274,387126	321,39416	0
15.01.2021	11:18:26	0	26,45845	3,412959	2,1795	5,2272	0,281	89,418	0	1014,98	7,1	9	9	1	1	1	1	1	1	1	1	1	0	1	-0	274,384097	321,379968	0
15.01.2021	11:18:27	0	26,341398	3,640532	2,13375	3,3876	0,286	89,428	0	1015,04	7	9	8,8	1	1	1	1	1	1	1	1	1	0	1	-0	274,341738	321,181558	0
15.01.2021	11:18:28	0	26,458492	3,98183	2,1435	353,8692	0,279	89,414	0	1015,08	7,1	9	8,8	1	1	1	1	1	1	1	1	1	0	1	-0	274,502589	321,935475	0
15.01.2021	11:18:29	0	26,224367	2,844163	2,0835	6,4296	0,286	89,431	0	1015,1	7,1	9	8,8	1	1	1	1	1	1	1	1	1	0	1	-0	274,381068	321,365778	0
15.01.2021	11:18:30	0	26,341461	3,754294	2,00325	355,0572	0,283	89,439	0	1015,12	7	9	8,8	1	1	1	1	1	1	1	1	1	0	1	-2,043693	274,319084	319,031791	0
15.01.2021	11:18:31	0	26,107336	2,730395	1,97625	4,0716	0,278	89,416	0	1015,06	7	9	8,8	1	1	1	1	1	1	1	1	1	0	1	-0	274,400763	321,458059	0
15.01.2021	11:18:32	0	26,57565	4,778189	2,03925	360	0,285	89,433	0	1015,1	7	9	8,8	1	1	1	1	1	1	1	1	1	0	1	-0	274,479745	321,828326	0
15.01.2021	11:18:33	0	26,575671	5,005689	2,079	355,3488	0,279	89,442	0	1015,02	7,1	9	8,9	1	1	1	1	1	1	1	1	1	0	1	-0	274,408343	321,493582	0
15.01.2021	11:18:34	0	26,692765	4,664363	2,067	348,2604	0,281	89,411	0	1015	7	9	9	1	1	1	1	1	1	1	1	1	0	1	-0	274,479745	321,828326	0
15.01.2021	11:18:35	0	26,224492	3,185455	2,09025	10,4256	0,283	89,417	0	1015,04	7	9	8,8	1	1	1	1	1	1	1	1	1	0	1	-0	274,440214	321,642963	0
15.01.2021	11:18:36	0	25,87311	2,844156	2,034	6,048	0,285	89,427	0	1015,2	7	9,1	8,8	1	1	1	1	1	1	1	1	1	0	1	-0	274,31003	321,033096	0
15.01.2021	11:18:37	0	26,458681	4,095582	1,9995	6,0444	0,28	89,421	0	1015,16	7	9	8,8	1	1	1	1	1	1	1	1	1	0	1	-0,352361	274,434139	321,262126	0
15.01.2021	11:18:38	0	26,10748	3,412984	1,93575	353,2212	0,284	89,432	0	1015,12	7,1	9	8,8	1	1	1	1	1	1	1	1	1	0	1	-0	274,491925	321,885453	0
15.01.2021	11:18:39	0	26,224391	4,323111	1,89225	357,264	0,283	89,417	0	1015,12	7,1	9,1	8,8	1	1	1	1	1	1	1	1	1	0	1	-0	274,434139	321,614486	0
15.01.2021	11:18:40	0	26,107522	4,550587	1,79325	355,806	0,29	89,426	0	1015,06	7,1	9	9	1	1	1	1	1	1	1	1	1	0	1	-0	274,456929	321,72133	0
15.01.2021	11:18:41	0	26,10736	2,84415	1,686	352,8648	0,286	89,409	0	1014,94	7,1	9,1	8,8	1	1	1	1	1	1	1	1	1	0	1	-0,422833	274,496494	321,484054	0
15.01.2021	11:18:42	0	26,341527	2,957915	2,01825	358,7796	0,282	89,4	0	1015,1	7	9,1	8,8	1	1	1	1	1	1	1	1	1	0	1	-0	274,437176	321,628723	0
15.01.2021	11:18:43	0	26,341548	3,868041	2,43675	347,6556	0,285	89,418	0	1015,02	7	9,1	8,8	1	1	1	1	1	1	1	1	1	0	1	-0	274,371985	321,323225	0
15.01.2021	11:18:44	0	26,107422	3,185444	2,754	356,4504	0,28	89,425	0	1015,06	7	9,1	8,8	1	1	1	1	1	1	1	1	1	0	1	-0,775194	274,320593	320,307357	0
15.01.2021	11:18:45	0	26,458849	2,957912	3,18825	351,0324	0,291	89,421	0	1015,14	7,1	9	8,8	1	1	1	1	1	1	1	1	1	0	1	-0	274,314556	321,054287	0
15.01.2021	11:18:46	0	26,575758	3,071639	3,42225	358,5276	0,288	89,409	0	1015,04	7	9,1	9	1	1	1	1	1	1	1	1	1	0	1	-0	274,387126	321,39416	0
15.01.2021	11:18:47	0	26,458891	4,436864	3,4965	0,8568	0,288	89,41	0	1015,06	7	9	8,8	1	1	1	1	1	1	1	1	1	0	1	-0	274,31003	321,033096	0
15.01.2021	11:18:48	0	26,224762	4,323045	3,408	346,9644	0,284	89,394	0	1015,06	7	9	9	1	1	1	1	1	1	1	1	1	0	1	-2,748414	274,412893	318,766489	0
15.01.2021	11:18:49	0	26,458747	4,209329	3,3795	351,2808	0,285	89,424	0	1015,04	7	9,1	8,8	1	1	1	1	1	1	1	1	1	0	1	-0	274,328142	321,117895	0
15.01.2021	11:18:50	0	26,693103	4,891921	3,45375	9,3636	0,291	89,42	0	1015,16	7	9	8,8	1	1	1	1	1	1	1	1	1	0	1	-3,946441	274,432621	317,660928	0
15.01.2021	11:18:51	0	26,341899	5,005685	3,318	1,242	0,29	89,415	0	1015,1	7,1	9	8,8	1	1	1	1	1	1	1	1	1	0	1	-0	274,317575	321,068418	0
15.01.2021	11:18:52	0	26,224661	2,730373	3,2445	2,718	0,282	89,42	0	1015,06	7	9,1	8,8	1	1	1	1	1	1	1	1	1	0	1	-0	274,316065	321,061352	0
15.01.2021	11:18:53	0	26,224682	3,185434	3,24075	10,0584	0,291	89,422	0	1015,08	7	9,1	8,8	1	1	1	1	1	1	1	1	1	0	1	-0	274,376526	321,344499	0
15.01.2021	11:18:54	0	26,107811	2,616605	3,207	13,9104	0,293	89,404	0	1015,06	7	9	8,8	1	1	1	1	1	1	1	1	1	0	1	-0	274,335694	321,153257	0
15.01.2021	11:18:55	0	25,990756	2,730369	3,1125	15,7968	0,285	89,413	0	1015,04	7	9	8,8	1	1	1	1	1	1	1	1	1	0	1	-0	274,426549	321,578906	0
15.01.2021	11:18:56	0	26,458893	5,119441	3,07725	7,8804	0,285	89,388	0	1015,12	7,1	9,1	8,8	1	1	1	1	1	1	1	1	1	0	1	-0	274,326632	321,110825	0
15.01.2021	11:18:57	0	26,693064	5,119439	3,099	1,9116	0,284	89,4	0	1015,12	7,1	9,1	8,8	1	1	1	1	1	1	1	1	1	0	1	-0,493305	274,37804	320,858286	0
15.01.2021	11:18:58	0	26,34186	4,20929	3,0975	5,2236	0,289	89,393	0	1014,96	7	9,1	8,9	1	1	1	1	1	1	1	1	1	0	1	-0	274,459969	321,735587	0
15.01.2021	11:18:59	0	26,224806	4,778139	3,111	1,9224	0,287	89,401	0	1015	7	9,1	8,8	1	1	1	1	1	1	1	1	1	0	1	-0	274,481267	321,835464	0
15.01.2021	11:19:00	0	25,990697	2,730363	3,07575	8,6076	0,288	89,386	0	1015,04	7	9,1	8,8	1	1	1	1	1	1	1	1	1	0	1	-0	274,384097	321,379968	0
15.01.2021	11:19:01	0	25,990697	2,730363	3,07575	8,6076	0,288	89,386	0	1015,04	7	9,1	8,8	1	1	1	1	1	1	1	1	1	0	1	-1,902748	274,472137	319,889895	0
15.01.2021	11:19:02	0	26,341943	4,436785	2,84625	6,7968	0,285	89,388	0	1015,04	7,1	9,1	9	1	1	1	1	1	1	1	1	1	0	1	-0	274,438695	321,635843	0
15.01.2021	11:19:03	0	25,99092	3,412951	2,7795	5,31	0,287	89,365	0	1014,94	7,1	9	8,8	1	1	1	1	1	1	1	1	1	0	1	-0	274,337205	321,160331	0
15.01.2021	11:19:04	0	26,45906	2,95789	2,74875	2,6424	0,289	89,394	0	1015,14	7,1	9,1	8,8	1	1	1	1	1	1	1	1	1	0	1	-0	274,455409	321,714202	0
15.01.2021	11:19:05	0	25,873885	3,185381	2,655	0,8676	0,289	89,396	0	1015,12	7,1	9	9	1	1	1	1	1	1	1	1	1	0	1	-0	274,376526	321,344499	0
15.01.2021	11:19:06	0	26,459102	3,52667	2,5455	2,6388	0,286	89,375	0	1015,06	7	9,1	9	1	1	1	1	1	1	1	1	1	0	1	-0	274,481267	321,835464	0
15.01.2021	11:19:07	0	26,107896	2,616592	2,52975	15,408	0,292	89,383	0	1015,16	7,1	9,1	8,8	1	1	1	1	1	1	1	1	1	0	1	-0	274,44629	321,67145	0
15.01.2021	11:19:08	0	26,225176	4,436802	2,3835	358,3872	0,285	89,38	0	1015,04	7	9	8,9	1	1	1	1	1	1	1	1	1	0	1	-0	274,493448	321,892597	0
15.01.2021	11:19:09	0	26,576427	3,640473	2,3445	1,17	0,285	89,392	0	1015,1	7	9	8,8	1	1	1	1	1	1	1	1	1	0	1	-2,325581	274,438695	319,310261	0
15.01.2021	11:19:10	0	25,990881	2,844119	2,3475	355,3884	0,286	89,386	0	1015,08	7,1	9,1	8,8	1	1	1	1	1	1	1	1	1	0	1	-0	274,34476	321,195713	0
15.01.2021	11:19:11	0	26,459206	3,754235	2,364	355,4208	0,286	89,368	0	1015,02	7	9,1	8,8	1	1	1	1	1	1	1	1	1	0	1	-0	274,502589	321,935475	0
15.01.2021	11:19:12	0	26,459227	4,550586	2,36025	357,1776	0,285	89,367	0	1015,1	7,1	9,1	8,8	1	1	1	1	1	1	1	1	1	0	1	-0	274,394701	321,429653	0
15.01.2021	11:19:13	0	26,693401	5,233172	2,34	352,1052	0,285	89,377	0	1015,06	7,1	9,1	8,8	1	1	1	1	1	1	1	1	1	0	1	-0	274,478223	321,821188	0
15.01.2021	11:19:14	0	26,108222	2,957879	2,10075	349,83	0,283	89,381	0	1015,16	7	9	8,8	1	1	1	1	1	1	1	1	1	0	1	-0	274,358368	321,259442	0
15.01.2021	11:19:15	0	25,873907	2,844079	1,9155	349,074	0,288	89,398	0	1015,1	7	9,1	9	1	1	1	1	1	1	1	1	1	0	1	-0	274,479745	321,828326	0
15.01.2021	11:19:16	0	26,342234	3,64042	1,9785	353,1816	0,283	89,376	0	1015,04	7,1	9,1	9	1	1	1	1	1	1	1	1	1	0	1	-0	274,346272	321,202791	0
15.01.2021	11:19:17	0	25,991207	4,664342	2,08875	356,5152	0,282	89,384	0	1015,12	7	9	8,8	1	1	1	1	1	1	1	1	1	0	1	-0	274,449329	321,685698	0
15.01.2021	11:19:18	0	25,757072	2,84411	2,37825	355,014	0,284	89,358	0	1015,02	7,1	9	8,8	1	1	1	1	1	1	1	1	1	0	1	-0	274,485834	321,856884	0
15.01.2021	11:19:19	0	26,108142	3,867942	2,63325	360	0,286	89,378	0	1015,06	7	9,1	9	1	1	1	1	1	1	1	1	1	0	1	-0	274,629479	322,531157	0
15.01.2021	11:19:20	0	26,459394	4,095491	2,6865	358,704	0,282	89,36	0	1014,94	7,1	9,1	8,9	1	1	1	1	1	1	1	1	1	0	1	-0	274,314556	321,054287	0
15.01.2021	11:19:21	0	26,108183	3,867985	2,69475	354,132	0,287	89,376	0	1015,08	7	9,1	8,8	1	1	1	1	1	1	1	1	1	0	1	-0	274,373498	321,330316	0
15.01.2021	11:19:22	0	26,108387	5,005566	2,856	346,4856	0,284	89,367	0	1014,98	7	9	9	1	1	1	1	1	1	1	1	1	0	1	-1,409443	274,482789	320,43316	0
15.01.2021	11:19:23	0	26,225301	3,754196	3,0165	360	0,282	89,372	0	1015,04	7	9,1	8,9	1	1	1	1	1	1	1	1	1	0	1	-0	274,399247	321,450956	0
15.01.2021	11:19:24	0	26,459477	4,66433	3,20325	359,1972	0,291	89,387	0	1015,14	7	9,1	8,8	1	1	1	1	1	1	1	1	1	0	1	-0	274,479745	321,828326	0
15.01.2021	11:19:25	0	26,225343	4,891856	3,26175	356,8464	0,285	89,367	0	1015	7	9,1	8,8	1	1	1	1	1	1	1	1	1	0	1	-0	274,437176	321,628723	0
15.01.2021	11:19:26	0	25,874131	4,095457	3,36	356,994	0,288	89,378	0	1015,16	7	9,1	9	1	1	1	1	1	1	1	1	1	0	1	-0	274,352319	321,231111	0
15.01.2021	11:19:27	0	25,757073	3,41292	3,5655	3,8412	0,286	89,387	0	1015,1	7,1	9,1	8,8	1	1	1	1	1	1	1	1	1	0	1	-0	274,308521	321,026034	0
15.01.2021	11:19:28	0	25,640016	2,616556	3,678	10,8072	0,291	89,387	0	1015,2	7,1	9,1	8,9	1	1	1	1	1	1	1	1	1	0	1	-0	274,435658	321,621605	0
15.01.2021	11:19:29	0	25,991269	3,185352	3,7395	7,11	0,285	89,392	0	1015,1	7	9,1	9	1	1	1	1	1	1	1	1	1	0	1	-0	274,444771	321,664328	0
15.01.2021	11:19:30	0	25,874212	3,867949	3,75	4,4748	0,289	89,398	0	1015,24	7	9,1	8,9	1	1	1	1	1	1	1	1	1	0	1	-0	274,496494	321,906887	0
15.01.2021	11:19:31	0	26,108388	5,005549	3,99075	6,57	0,287	89,382	0	1015,12	7,1	9,1	9	1	1	1	1	1	1	1	1	1	0	1	-0	274,415927	321,529122	0
15.01.2021	11:19:32	0	26,22567	3,526678	4,05225	9,3636	0,28	89,378	0	1015	7	9	8,8	1	1	1	1	1	1	1	1	1	0	1	-0	274,322103	321,089618	0
15.01.2021	11:19:33	0	25,991533	5,346832	4,0665	7,5096	0,287	89,392	0	1015,1	7	9	9	1	1	1	1	1	1	1	1	1	0	1	-0	274,429584	321,593136	0
15.01.2021	11:19:34	0	25,874293	3,185346	4,152	6,0516	0,286	89,385	0	1014,94	7	9,1	9	1	1	1	1	1	1	1	1	1	0	1	-0	274,323613	321,096687	0
15.01.2021	11:19:35	0	25,991392	2,616549	4,20375	4,9176	0,289	89,384	0	1015,04	7	9,1	8,9	1	1	1	1	1	1	1	1	1	0	1	-0	274,382582	321,372873	0
15.01.2021	11:19:36	0	25,991412	2,844091	4,19625	7,1172	0,289	89,394	0	1015,2	7	9,1	8,8	1	1	1	1	1	1	1	1	1	0	1	-0	274,329652	321,124966	0
15.01.2021	11:19:37	0	26,342668	2,957835	4,18575	4,8384	0,286	89,376	0	1015,14	7,1	9,1	8,9	1	1	1	1	1	1	1	1	1	0	1	-0	274,390156	321,408355	0
15.01.2021	11:19:38	0	25,874374	3,754152	4,05375	8,2656	0,289	89,389	0	1015,12	7	9,1	9	1	1	1	1	1	1	1	1	1	0	1	-0	274,485834	321,856884	0
15.01.2021	11:19:39	0	26,342894	3,18534	3,882	15,0228	0,285	89,391	0	1015,08	7	9	9	1	1	1	1	1	1	1	1	1	0	1	-0	274,390156	321,408355	0
15.01.2021	11:19:40	0	25,640257	3,526625	3,53625	18,8244	0,283	89,382	0	1015,08	7	9,1	9	1	1	1	1	1	1	1	1	1	0	1	-0	274,332673	321,13911	0
15.01.2021	11:19:41	0	25,757356	3,299099	3,21225	18,828	0,284	89,379	0	1015,08	7	9,1	9	1	1	1	1	1	1	1	1	1	0	1	-0	274,478223	321,821188	0
15.01.2021	11:19:42	0	26,342771	4,891795	3,02325	19,1376	0,289	89,382	0	1015,1	7,1	9,1	8,9	1	1	1	1	1	1	1	1	1	0	1	-0	274,444771	321,664328	0
15.01.2021	11:19:43	0	25,991737	4,209192	3,00075	21,0096	0,29	89,376	0	1015,02	7	9	9	1	1	1	1	1	1	1	1	1	0	1	-0	274,382582	321,372873	0
15.01.2021	11:19:44	0	25,991575	4,778	2,95575	19,512	0,289	89,386	0	1015,12	7	9,1	9	1	1	1	1	1	1	1	1	1	0	1	-0	274,325122	321,103756	0
15.01.2021	11:19:45	0	26,108674	3,071607	2,8545	21,006	0,29	89,375	0	1015,2	7	9,1	8,8	1	1	1	1	1	1	1	1	1	0	1	-0	274,40986	321,500688	0
15.01.2021	11:19:46	0	25,640377	2,844046	2,80725	23,9616	0,288	89,389	0	1015,26	7	9,1	9	1	1	1	1	1	1	1	1	1	0	1	-0	274,326632	321,110825	0
15.01.2021	11:19:47	0	25,991636	3,867924	2,72025	6,4368	0,29	89,384	0	1015,12	7	9,1	8,9	1	1	1	1	1	1	1	1	1	0	1	-0	274,347783	321,20987	0
15.01.2021	11:19:48	0	25,757858	2,957841	2,69775	18,8244	0,292	89,377	0	1015,1	7	8,9	8,8	1	1	1	1	1	1	1	1	1	0	1	-4,087385	274,358368	317,172056	0
15.01.2021	11:19:49	0	26,225836	4,777991	2,748	20,6208	0,287	89,37	0	1014,92	7	9,1	9	1	1	1	1	1	1	1	1	1	0	1	-0	274,47518	321,806914	0
15.01.2021	11:19:50	0	26,342936	4,436731	2,80725	11,196	0,291	89,356	0	1015,06	7	9,1	8,9	1	1	1	1	1	1	1	1	1	0	1	-0	274,388641	321,401257	0
15.01.2021	11:19:51	0	25,991717	3,299126	2,943	7,9632	0,293	89,361	0	1014,96	7	9,1	8,8	1	1	1	1	1	1	1	1	1	0	1	-0,563777	274,319084	320,511707	0
15.01.2021	11:19:52	0	25,991737	3,754154	2,937	7,4988	0,291	89,343	0	1015,02	7	9,1	8,9	1	1	1	1	1	1	1	1	1	0	1	-0	274,408343	321,493582	0
15.01.2021	11:19:53	0	25,991758	3,07158	2,80125	18,828	0,292	89,361	0	1015,1	7	9,1	8,9	1	1	1	1	1	1	1	1	1	0	1	-0	274,479745	321,828326	0
15.01.2021	11:19:54	0	26,108858	3,18536	2,8335	7,5024	0,295	89,363	0	1015,08	7	9,1	8,8	1	1	1	1	1	1	1	1	1	0	1	-0	274,384097	321,379968	0
15.01.2021	11:19:55	0	26,108878	4,322987	2,87925	17,2116	0,293	89,368	0	1015,12	7	9,1	8,8	1	1	1	1	1	1	1	1	1	0	1	-0	274,441733	321,650084	0
15.01.2021	11:19:56	0	26,108899	4,664273	2,829	12,8484	0,288	89,357	0	1014,94	7	9,1	8,8	1	1	1	1	1	1	1	1	1	0	1	-0	274,494971	321,899742	0
15.01.2021	11:19:57	0	26,226	2,844034	2,68875	16,8552	0,283	89,357	0	1015,06	7	9,1	9	1	1	1	1	1	1	1	1	1	0	1	-1,62086	274,37804	319,730731	0
15.01.2021	11:19:58	0	25,874779	2,730288	2,5125	357,6312	0,295	89,364	0	1015,32	7	9,1	8,9	1	1	1	1	1	1	1	1	1	0	1	-0	274,496494	321,906887	0
15.01.2021	11:19:59	0	26,22604	3,071591	2,622	7,218	0,294	89,357	0	1015,06	7,1	9,1	8,8	1	1	1	1	1	1	1	1	1	0	1	-0	274,44781	321,678574	0
15.01.2021	11:20:00	0	26,226081	2,388999	2,50875	1,9008	0,288	89,352	0	1015,02	7	9,1	8,9	1	1	1	1	1	1	1	1	1	0	1	-0	274,467573	321,771242	0
15.01.2021	11:20:01	0	26,226081	2,388999	2,50875	1,9008	0,288	89,352	0	1015,02	7	9,1	8,9	1	1	1	1	1	1	1	1	1	0	1	-0	274,47518	321,806914	0
15.01.2021	11:20:02	0	26,226286	3,071551	2,493	3,762	0,297	89,363	0	1015,26	7	9	9	1	1	1	1	1	1	1	1	1	0	1	-0	274,373498	321,330316	0
15.01.2021	11:20:03	0	26,577365	3,18533	2,51925	359,4564	0,297	89,364	0	1015,18	7	9,1	8,9	1	1	1	1	1	1	1	1	1	0	1	-2,536998	274,316065	318,524354	0
15.01.2021	11:20:04	0	26,577386	4,436708	2,50425	352,0944	0,293	89,353	0	1015,02	7	9,1	8,9	1	1	1	1	1	1	1	1	1	0	1	-0	274,361393	321,273611	0
15.01.2021	11:20:05	0	26,343244	2,844042	2,4435	356,6088	0,291	89,349	0	1015,06	7	9,1	8,9	1	1	1	1	1	1	1	1	1	0	1	-0	274,317575	321,068418	0
15.01.2021	11:20:06	0	26,343449	3,867896	2,4435	357,264	0,291	89,345	0	1015,1	7	9	8,9	1	1	1	1	1	1	1	1	1	0	1	-0	274,440214	321,642963	0
15.01.2021	11:20:07	0	26,694529	4,777988	2,574	354,204	0,289	89,338	0	1015	7	9,1	8,9	1	1	1	1	1	1	1	1	1	0	1	-0	274,326632	321,110825	0
15.01.2021	11:20:08	0	26,69455	3,52663	2,676	351,648	0,291	89,36	0	1015,08	7	9,1	8,8	1	1	1	1	1	1	1	1	1	0	1	-0	274,41441	321,522012	0
15.01.2021	11:20:09	0	26,460408	4,095439	2,80425	348,21	0,289	89,337	0	1014,96	7	9,1	8,8	1	1	1	1	1	1	1	1	1	0	1	-0	274,325122	321,103756	0
15.01.2021	11:20:10	0	26,928755	4,777982	2,87625	356,5332	0,288	89,353	0	1015,04	7	9,1	8,9	1	1	1	1	1	1	1	1	1	0	1	-0	274,393186	321,422553	0
15.01.2021	11:20:11	0	26,577531	5,005503	2,7615	350,2404	0,289	89,343	0	1015,04	7	9,1	8,9	1	1	1	1	1	1	1	1	1	0	1	-0	274,501065	321,928327	0
15.01.2021	11:20:12	0	26,577551	4,664189	2,613	353,1852	0,287	89,354	0	1015,04	7	9,1	9	1	1	1	1	1	1	1	1	1	0	1	-0	274,367445	321,301958	0
15.01.2021	11:20:13	0	26,460861	4,322931	2,6595	360	0,29	89,355	0	1015,16	7	8,9	8,9	1	1	1	1	1	1	1	1	1	0	1	-0	274,337205	321,160331	0
15.01.2021	11:20:14	0	26,577593	2,84405	2,76375	360	0,288	89,361	0	1015,18	7	9,1	8,8	1	1	1	1	1	1	1	1	1	0	1	-0	274,466052	321,76411	0
15.01.2021	11:20:15	0	26,694695	3,299077	2,808	0,1116	0,285	89,36	0	1015,1	7,1	9,1	8,9	1	1	1	1	1	1	1	1	1	0	1	-0	274,299472	320,983675	0
15.01.2021	11:20:16	0	26,929069	4,891703	2,78025	358,7184	0,288	89,367	0	1015,12	7	9	9	1	1	1	1	1	1	1	1	1	0	1	-0	274,405311	321,479371	0
15.01.2021	11:20:17	0	27,045983	4,664208	2,931	360	0,287	89,368	0	1015,04	7	9,1	8,9	1	1	1	1	1	1	1	1	1	0	1	-0	274,501065	321,928327	0
15.01.2021	11:20:18	0	27,046004	2,844028	3,036	358,7868	0,293	89,345	0	1015,1	7	9,1	8,9	1	1	1	1	1	1	1	1	1	0	1	-0	274,402279	321,465162	0
15.01.2021	11:20:19	0	26,694778	3,754116	3,15225	0,1152	0,289	89,359	0	1015,06	7	9,1	8,9	1	1	1	1	1	1	1	1	1	0	1	-0	274,278374	320,884929	0
15.01.2021	11:20:20	0	27,280211	3,071548	3,36975	357,5952	0,291	89,361	0	1015,1	7	9,1	8,9	1	1	1	1	1	1	1	1	1	0	1	-0	274,44629	321,67145	0
15.01.2021	11:20:21	0	27,16315	3,754136	3,32175	6,4404	0,296	89,368	0	1015,06	7	9,1	8,8	1	1	1	1	1	1	1	1	1	0	1	-0	274,328142	321,117895	0
15.01.2021	11:20:22	0	27,397336	4,436678	3,198	4,8384	0,291	89,364	0	1014,98	7	9,1	8,9	1	1	1	1	1	1	1	1	1	0	1	-0	274,350807	321,22403	0
15.01.2021	11:20:23	0	26,929027	2,616501	3,07875	359,4168	0,286	89,355	0	1015,12	7	9,1	8,9	1	1	1	1	1	1	1	1	1	0	1	-0	274,381068	321,365778	0
15.01.2021	11:20:24	0	27,163213	3,754087	3,06675	1,926	0,296	89,369	0	1015,16	7	9,1	9	1	1	1	1	1	1	1	1	1	0	1	-0	274,326632	321,110825	0
15.01.2021	11:20:25	0	27,631566	3,75413	3,11325	2,3076	0,293	89,341	0	1015,02	7	9,1	8,8	1	1	1	1	1	1	1	1	1	0	1	-0	274,397732	321,443854	0
15.01.2021	11:20:26	0	27,397421	4,436698	3,03075	10,7892	0,288	89,354	0	1015	7	9,1	8,8	1	1	1	1	1	1	1	1	1	0	1	-0	274,494971	321,899742	0
15.01.2021	11:20:27	0	27,631802	3,299062	2,811	16,4808	0,293	89,345	0	1015,04	7	9	8,9	1	1	1	1	1	1	1	1	1	0	1	-0	274,420478	321,550454	0
15.01.2021	11:20:28	0	27,397464	4,322907	2,565	9,7452	0,29	89,352	0	1014,98	7	9,1	8,9	1	1	1	1	1	1	1	1	1	0	1	-0	274,501065	321,928327	0
15.01.2021	11:20:29	0	27,865818	3,526602	2,51475	6,4332	0,289	89,355	0	1015,08	7	9,1	8,8	1	1	1	1	1	1	1	1	1	0	1	-0	274,387126	321,39416	0
15.01.2021	11:20:30	0	27,631673	4,436664	2,64825	17,2296	0,29	89,347	0	1015,06	7	9,1	8,9	1	1	1	1	1	1	1	1	1	0	1	-0	274,490402	321,87831	0
15.01.2021	11:20:31	0	27,982945	3,299037	2,63475	10,0584	0,289	89,362	0	1015,08	7	9,1	9	1	1	1	1	1	1	1	1	1	0	1	-0	274,385611	321,387064	0
15.01.2021	11:20:32	0	27,748799	4,095404	2,69175	5,6772	0,293	89,372	0	1015,08	7	9,1	8,8	1	1	1	1	1	1	1	1	1	0	1	-0	274,334184	321,146183	0
15.01.2021	11:20:33	0	27,865905	2,730252	2,82675	23,9688	0,29	89,353	0	1015,26	7	9,1	8,9	1	1	1	1	1	1	1	1	1	0	1	-0,070472	274,37804	321,281119	0
15.01.2021	11:20:34	0	27,983206	3,412814	2,78925	13,158	0,294	89,355	0	1015,04	7	9	8,9	1	1	1	1	1	1	1	1	1	0	1	-0	274,496494	321,906887	0
15.01.2021	11:20:35	0	28,100115	3,867877	2,8995	10,8144	0,296	89,364	0	1015,1	7	9,1	8,8	1	1	1	1	1	1	1	1	1	0	1	-0	274,311538	321,040159	0
15.01.2021	11:20:36	0	27,983249	3,18529	3,2055	5,6844	0,292	89,363	0	1015,2	7	9	8,9	1	1	1	1	1	1	1	1	1	0	1	-0	274,444771	321,664328	0
15.01.2021	11:20:37	0	28,334525	3,412789	3,45075	7,5204	0,293	89,364	0	1015,06	7	9	9	1	1	1	1	1	1	1	1	1	0	1	-0	274,487357	321,864025	0
15.01.2021	11:20:38	0	28,568517	3,981634	3,45	11,1996	0,295	89,367	0	1015,12	7	9,1	8,8	1	1	1	1	1	1	1	1	1	0	1	-0	274,458449	321,728458	0
15.01.2021	11:20:39	0	28,334371	4,55041	3,27375	6,8184	0,29	89,353	0	1014,84	7	9,1	8,9	1	1	1	1	1	1	1	1	1	0	1	-0	274,370471	321,316136	0
15.01.2021	11:20:40	0	28,334393	3,867847	3,18225	28,7172	0,292	89,363	0	1015,2	7	9,1	8,9	1	1	1	1	1	1	1	1	1	0	1	-0,704722	274,373498	320,625594	0
15.01.2021	11:20:41	0	28,217528	2,844004	3,10125	23,2056	0,295	89,355	0	1014,9	7	9	8,9	1	1	1	1	1	1	1	1	1	0	1	-0	274,44781	321,678574	0
15.01.2021	11:20:42	0	28,568605	4,550405	3,33	11,7216	0,297	89,368	0	1015,12	7	9,1	8,9	1	1	1	1	1	1	1	1	1	0	1	-0	274,504112	321,942624	0
15.01.2021	11:20:43	0	28,685913	3,75406	3,393	16,0992	0,297	89,345	0	1015,14	7	9	9	1	1	1	1	1	1	1	1	1	0	1	-0	274,482789	321,842603	0
15.01.2021	11:20:44	0	28,920106	2,957761	3,2685	356,1732	0,293	89,356	0	1015	7	9	8,9	1	1	1	1	1	1	1	1	1	0	1	-0	274,490402	321,87831	0
15.01.2021	11:20:45	0	28,685756	3,18528	3,2145	4,4424	0,293	89,365	0	1015,14	7	9,1	8,9	1	1	1	1	1	1	1	1	1	0	1	-0	274,382582	321,372873	0
15.01.2021	11:20:46	0	28,803065	4,777918	3,09225	4,8276	0,291	89,351	0	1015,18	7	9	8,9	1	1	1	1	1	1	1	1	1	0	1	-0	274,437176	321,628723	0
15.01.2021	11:20:47	0	29,38831	3,981597	2,98875	359,3988	0,292	89,356	0	1015,08	7	9,1	8,9	1	1	1	1	1	1	1	1	1	0	1	-0	274,501065	321,928327	0
15.01.2021	11:20:48	0	29,505625	5,005434	2,84625	360	0,29	89,352	0	1015,12	7	9	8,9	1	1	1	1	1	1	1	1	1	0	1	-0	274,479745	321,828326	0
15.01.2021	11:20:49	0	29,388356	2,502716	2,71125	4,4676	0,293	89,346	0	1015,06	7	9,1	8,9	1	1	1	1	1	1	1	1	1	0	1	-0	274,481267	321,835464	0
15.01.2021	11:20:50	0	29,505464	2,730235	3,08175	8,5932	0,289	89,344	0	1015,04	7	9,1	8,9	1	1	1	1	1	1	1	1	1	0	1	-0	274,379554	321,358684	0
15.01.2021	11:20:51	0	29,271521	2,730234	3,41025	359,4096	0,286	89,343	0	1015,04	7	9	8,9	1	1	1	1	1	1	1	1	1	0	1	-0	274,341738	321,181558	0
15.01.2021	11:20:52	0	29,73968	4,891696	3,579	8,6112	0,291	89,334	0	1014,88	7	9,1	8,8	1	1	1	1	1	1	1	1	1	0	1	-0	274,449329	321,685698	0
15.01.2021	11:20:53	0	29,622825	4,322867	3,69825	8,6004	0,296	89,35	0	1015,14	7	9	8,9	1	1	1	1	1	1	1	1	1	0	1	-0	274,341738	321,181558	0
15.01.2021	11:20:54	0	29,974107	2,84399	3,666	13,2444	0,291	89,346	0	1015,08	7	9	8,9	1	1	1	1	1	1	1	1	1	0	1	-0	274,373498	321,330316	0
15.01.2021	11:20:55	0	29,739957	4,891661	3,6825	16,8552	0,289	89,347	0	1014,94	7	9	8,9	1	1	1	1	1	1	1	1	1	0	1	-2,184637	274,352319	319,046474	0
15.01.2021	11:20:56	0	29,973943	4,550381	3,62925	13,5324	0,292	89,358	0	1015,2	7	9,1	8,9	1	1	1	1	1	1	1	1	1	0	1	-0	274,325122	321,103756	0
15.01.2021	11:20:57	0	30,091052	3,526544	3,531	4,8276	0,29	89,329	0	1015,02	7	9,1	8,9	1	1	1	1	1	1	1	1	1	0	1	-0	274,417444	321,536232	0
15.01.2021	11:20:58	0	29,973989	3,071505	3,543	4,0896	0,296	89,342	0	1015,16	7	9,1	8,9	1	1	1	1	1	1	1	1	1	0	1	-0	274,332673	321,13911	0
15.01.2021	11:20:59	0	29,974012	3,640301	3,57525	19,8936	0,292	89,326	0	1015	7	9,1	8,9	1	1	1	1	1	1	1	1	1	0	1	-2,255109	274,44781	319,423465	0
15.01.2021	11:21:00	0	30,091356	2,843983	3,273	8,6076	0,291	89,32	0	1015,06	7	9	8,9	1	1	1	1	1	1	1	1	1	0	1	-0	274,482789	321,842603	0
15.01.2021	11:21:01	0	30,091356	2,843983	3,273	8,6076	0,291	89,32	0	1015,06	7	9	8,9	1	1	1	1	1	1	1	1	1	0	1	-0	274,325122	321,103756	0
15.01.2021	11:21:02	0	30,208254	4,66413	3,43575	12,1032	0,292	89,348	0	1015,06	7	9,1	8,9	1	1	1	1	1	1	1	1	1	0	1	-0	274,47518	321,806914	0
15.01.2021	11:21:03	0	30,208277	3,412777	3,522	10,4436	0,289	89,332	0	1015,16	7	9,1	8,9	1	1	1	1	1	1	1	1	1	0	1	-0	274,332673	321,13911	0
15.01.2021	11:21:04	0	30,208512	2,616461	3,56925	14,292	0,295	89,332	0	1015,06	7	9	8,9	1	1	1	1	1	1	1	1	1	0	1	-0	274,361393	321,273611	0
15.01.2021	11:21:05	0	30,44271	4,209088	3,4155	4,8204	0,292	89,333	0	1015,12	7	9	8,9	1	1	1	1	1	1	1	1	1	0	1	-0	274,494971	321,899742	0
15.01.2021	11:21:06	0	30,676694	3,640291	3,285	1,17	0,29	89,321	0	1015,06	7	9,1	8,9	1	1	1	1	1	1	1	1	1	0	1	-0	274,476701	321,814051	0
15.01.2021	11:21:07	0	30,559631	4,436603	3,321	14,634	0,293	89,335	0	1015,14	7	9,1	8,9	1	1	1	1	1	1	1	1	1	0	1	-0	274,426549	321,578906	0
15.01.2021	11:21:08	0	30,559868	4,209084	3,2655	9,36	0,297	89,338	0	1015,2	7	9	8,9	1	1	1	1	1	1	1	1	1	0	1	-0	274,332673	321,13911	0
15.01.2021	11:21:09	0	30,559892	4,209107	3,12825	4,0752	0,296	89,328	0	1015,2	7	9	8,8	1	1	1	1	1	1	1	1	1	0	1	-0	274,429584	321,593136	0
15.01.2021	11:21:10	0	30,676788	2,730214	2,98575	2,6496	0,292	89,318	0	1015,02	7	9,1	8,9	1	1	1	1	1	1	1	1	1	0	1	-0	274,476701	321,814051	0
15.01.2021	11:21:11	0	31,262466	4,891632	2,79225	359,496	0,296	89,328	0	1015,06	7	9	8,9	1	1	1	1	1	1	1	1	1	0	1	-0	274,441733	321,650084	0
15.01.2021	11:21:12	0	30,911226	3,867778	2,862	1,152	0,291	89,3	0	1015,16	7	9	9	1	1	1	1	1	1	1	1	1	0	1	-0	274,317575	321,068418	0
15.01.2021	11:21:13	0	31,262295	4,209101	2,9355	359,1216	0,294	89,308	0	1015	7	9,1	8,8	1	1	1	1	1	1	1	1	1	0	1	-0	274,423513	321,564679	0
15.01.2021	11:21:14	0	31,028362	4,322833	3,0075	6,8184	0,291	89,311	0	1015,14	7	9	8,9	1	1	1	1	1	1	1	1	1	0	1	-0	274,490402	321,87831	0
15.01.2021	11:21:15	0	31,028168	3,754038	3,10275	10,0512	0,299	89,324	0	1015,18	7	9,1	8,9	1	1	1	1	1	1	1	1	1	0	1	-0	274,496494	321,906887	0
15.01.2021	11:21:16	0	30,794017	4,209096	3,23325	1,5408	0,291	89,319	0	1014,98	7	9,1	8,8	1	1	1	1	1	1	1	1	1	0	1	-0	274,405311	321,479371	0
15.01.2021	11:21:17	0	31,145522	3,526518	3,1605	19,1484	0,303	89,323	0	1015,04	7	9	8,9	1	1	1	1	1	1	1	1	1	0	1	-0	274,337205	321,160331	0
15.01.2021	11:21:18	0	31,262634	4,436585	2,90925	8,6148	0,299	89,313	0	1015,06	7	9	8,9	1	1	1	1	1	1	1	1	1	0	1	-0	274,46149	321,742717	0
15.01.2021	11:21:19	0	30,911392	4,209066	2,91975	14,292	0,298	89,317	0	1015,14	7	9	8,9	1	1	1	1	1	1	1	1	1	0	1	-1,761804	274,444771	319,902524	0
15.01.2021	11:21:20	0	31,028505	3,867789	3,30075	16,8588	0,294	89,324	0	1015,14	7	9	8,9	1	1	1	1	1	1	1	1	1	0	1	-0	274,484312	321,849743	0
15.01.2021	11:21:21	0	31,145618	3,526512	3,507	22,0896	0,297	89,325	0	1015,16	7	9	8,9	1	1	1	1	1	1	1	1	1	0	1	-0	274,438695	321,635843	0
15.01.2021	11:21:22	0	31,26273	4,32282	3,71475	17,6904	0,285	89,301	0	1015,12	7	9	8,9	1	1	1	1	1	1	1	1	1	0	1	-0	274,504112	321,942624	0
15.01.2021	11:21:23	0	31,379623	3,071476	3,6495	7,5096	0,292	89,292	0	1015,08	7	9,1	8,9	1	1	1	1	1	1	1	1	1	0	1	-0	274,400763	321,458059	0
15.01.2021	11:21:24	0	31,262778	3,41275	3,8325	10,0584	0,298	89,328	0	1015,2	7	9	8,9	1	1	1	1	1	1	1	1	1	0	1	-0,211416	274,337205	320,948915	0
15.01.2021	11:21:25	0	31,379672	4,209057	3,80475	18,4392	0,297	89,29	0	1015	7	9,1	8,9	1	1	1	1	1	1	1	1	1	0	1	-0	274,362906	321,280697	0
15.01.2021	11:21:26	0	31,262826	2,843956	3,58875	18,828	0,299	89,303	0	1015,2	7	9	8,9	1	1	1	1	1	1	1	1	1	0	1	-0	274,385611	321,387064	0
15.01.2021	11:21:27	0	31,26285	2,616439	3,501	19,1412	0,299	89,314	0	1015,08	7	9	8,9	1	1	1	1	1	1	1	1	1	0	1	-0	274,335694	321,153257	0
15.01.2021	11:21:28	0	31,497053	2,843954	3,33825	18,0648	0,299	89,3	0	1015,04	7	9	8,9	1	1	1	1	1	1	1	1	1	0	1	-0	274,40986	321,500688	0
15.01.2021	11:21:29	0	31,262898	3,071469	3,52425	13,9104	0,298	89,31	0	1015,2	7	9	8,9	1	1	1	1	1	1	1	1	1	0	1	-0	274,34476	321,195713	0
15.01.2021	11:21:30	0	31,731281	3,412743	3,5685	6,4368	0,286	89,296	0	1015,06	7	9	8,9	1	1	1	1	1	1	1	1	1	0	1	-0	274,385611	321,387064	0
15.01.2021	11:21:31	0	31,380036	3,981532	3,57975	4,0824	0,303	89,303	0	1015,22	7	9	8,9	1	1	1	1	1	1	1	1	1	0	1	-0	274,504112	321,942624	0
15.01.2021	11:21:32	0	31,38006	4,777836	3,426	8,262	0,295	89,293	0	1015,22	7	9	8,9	1	1	1	1	1	1	1	1	1	0	1	-0	274,517833	322,006993	0
15.01.2021	11:21:33	0	31,614264	2,616433	3,24975	357,5556	0,292	89,295	0	1015,14	7	9	8,9	1	1	1	1	1	1	1	1	1	0	1	-0	274,431103	321,600252	0
15.01.2021	11:21:34	0	31,614288	3,867769	3,11475	0,486	0,293	89,292	0	1015,16	7	9	8,9	1	1	1	1	1	1	1	1	1	0	1	-0	274,34476	321,195713	0
15.01.2021	11:21:35	0	31,73118	3,298978	2,85075	360	0,293	89,279	0	1015,2	7	9,1	8,9	1	1	1	1	1	1	1	1	1	0	1	-0	274,44629	321,67145	0
15.01.2021	11:21:36	0	31,379936	2,161399	2,7285	3,7656	0,301	89,315	0	1015,38	7	9,1	8,9	1	1	1	1	1	1	1	1	1	0	1	-0	274,349295	321,21695	0
15.01.2021	11:21:37	0	31,848541	3,640227	2,59725	350,658	0,294	89,277	0	1015,12	7	9	9	1	1	1	1	1	1	1	1	1	0	1	-0	274,406827	321,486476	0
15.01.2021	11:21:38	0	31,497074	2,388913	2,49375	353,898	0,291	89,277	0	1015,1	7	9,1	8,9	1	1	1	1	1	1	1	1	1	0	1	-0	274,340227	321,174482	0
15.01.2021	11:21:39	0	31,731499	3,412731	2,41725	352,4796	0,295	89,287	0	1015,18	7	9	8,9	1	1	1	1	1	1	1	1	1	0	1	-0	274,44629	321,67145	0
15.01.2021	11:21:40	0	31,848391	4,777822	2,3685	351,7776	0,296	89,262	0	1015,16	7	9,1	8,9	1	1	1	1	1	1	1	1	1	0	1	-0	274,349295	321,21695	0
15.01.2021	11:21:41	0	31,614457	3,526486	2,37825	353,2248	0,291	89,269	0	1015,12	7	9	8,9	1	1	1	1	1	1	1	1	1	0	1	-0	274,338716	321,167406	0
15.01.2021	11:21:42	0	31,614481	3,867758	2,36475	345,9168	0,296	89,258	0	1015,16	7	9	8,9	1	1	1	1	1	1	1	1	1	0	1	-0	274,34476	321,195713	0
15.01.2021	11:21:43	0	31,380324	4,664059	2,31525	356,436	0,296	89,249	0	1015,02	7	9	8,9	1	1	1	1	1	1	1	1	1	0	1	-0	274,367445	321,301958	0
15.01.2021	11:21:44	0	31,263257	4,322785	2,292	357,282	0,299	89,263	0	1015,22	7	9	8,9	1	1	1	1	1	1	1	1	1	0	1	-0	274,510209	321,971226	0
15.01.2021	11:21:45	0	31,380372	3,298966	2,37225	359,514	0,29	89,25	0	1014,98	7,1	9	8,9	1	1	1	1	1	1	1	1	1	0	1	-0	274,453888	321,707075	0
15.01.2021	11:21:46	0	31,146214	3,298965	2,42025	1,908	0,29	89,248	0	1015,08	7	9	8,9	1	1	1	1	1	1	1	1	1	0	1	-0	274,498018	321,914033	0
15.01.2021	11:21:47	0	31,49729	4,32278	2,31975	8,9748	0,287	89,244	0	1015,12	7	9,1	8,9	1	1	1	1	1	1	1	1	1	0	1	-0	274,418961	321,543342	0
15.01.2021	11:21:48	0	31,380444	4,550293	2,16	0,8496	0,288	89,27	0	1015,04	7	9	8,9	1	1	1	1	1	1	1	1	1	0	1	-0	274,494971	321,899742	0
15.01.2021	11:21:49	0	31,380468	4,550291	2,091	13,1472	0,292	89,257	0	1015,2	7	9	8,9	1	1	1	1	1	1	1	1	1	0	1	-0	274,453888	321,707075	0
15.01.2021	11:21:50	0	31,380492	3,29896	2,27625	24,7248	0,3	89,263	0	1014,94	7,1	9	8,9	1	1	1	1	1	1	1	1	1	0	1	-0	274,478223	321,821188	0
15.01.2021	11:21:51	0	31,380516	4,436531	2,3205	8,6184	0,293	89,256	0	1015,06	7	9	8,9	1	1	1	1	1	1	1	1	1	0	1	-0	274,326632	321,110825	0
15.01.2021	11:21:52	0	31,263229	2,616415	2,6325	358,3368	0,295	89,267	0	1015,12	7,1	9,1	8,9	1	1	1	1	1	1	1	1	1	0	1	-0	274,397732	321,443854	0
15.01.2021	11:21:53	0	31,380344	4,322771	2,86875	355,8456	0,296	89,269	0	1015,06	7	9,1	8,9	1	1	1	1	1	1	1	1	1	0	1	-0	274,50716	321,956923	0
15.01.2021	11:21:54	0	31,497679	3,298955	3,063	358,6572	0,296	89,253	0	1014,92	7	9	8,9	1	1	1	1	1	1	1	1	1	0	1	-0	274,466052	321,76411	0
15.01.2021	11:21:55	0	31,380611	2,843926	3,2175	8,604	0,287	89,268	0	1015,12	7	9	8,9	1	1	1	1	1	1	1	1	1	0	1	-0	274,502589	321,935475	0
15.01.2021	11:21:56	0	31,263324	3,41271	3,27225	15,8004	0,294	89,269	0	1015,04	7	9,1	8,9	1	1	1	1	1	1	1	1	1	0	1	-0	274,370471	321,316136	0
15.01.2021	11:21:57	0	31,263567	4,322764	3,0945	12,9276	0,29	89,245	0	1015,1	7	9	8,9	1	1	1	1	1	1	1	1	1	0	1	-0	274,459969	321,735587	0
15.01.2021	11:21:58	0	31,263591	3,29895	3,05325	18,0756	0,293	89,278	0	1015,08	7	9	8,9	1	1	1	1	1	1	1	1	1	0	1	-0	274,319084	321,075484	0
15.01.2021	11:21:59	0	31,263615	3,071435	3,21075	5,22	0,292	89,281	0	1015,1	7	9	8,9	1	1	1	1	1	1	1	1	1	0	1	-0	274,440214	321,642963	0
15.01.2021	11:22:00	0	31,263663	4,550271	3,711	13,1616	0,293	89,264	0	1015,08	7	9	8,9	1	1	1	1	1	1	1	1	1	0	1	-0	274,425031	321,571792	0
15.01.2021	11:22:01	0	31,263663	4,550271	3,711	13,1616	0,293	89,264	0	1015,08	7	9	8,9	1	1	1	1	1	1	1	1	1	0	1	-0	274,425031	321,571792	0
15.01.2021	11:22:02	0	31,263686	3,867729	3,61575	342,7668	0,29	89,255	0	1015,06	7	9	8,9	1	1	1	1	1	1	1	1	1	0	1	-0	274,340227	321,174482	0
15.01.2021	11:22:03	0	31,497895	4,664025	3,55725	346,5468	0,293	89,267	0	1015,18	7	9	8,9	1	1	1	1	1	1	1	1	1	0	1	-0	274,44629	321,67145	0
15.01.2021	11:22:04	0	31,263734	4,664023	3,43275	3,7728	0,287	89,254	0	1015,08	7,1	9	8,9	1	1	1	1	1	1	1	1	1	0	1	-0	274,328142	321,117895	0
15.01.2021	11:22:05	0	31,38085	2,843915	3,22125	2,6316	0,295	89,253	0	1015,1	7	9	8,9	1	1	1	1	1	1	1	1	1	0	1	-0	274,362906	321,280697	0
15.01.2021	11:22:06	0	31,029596	5,119046	3,0765	347,9904	0,29	89,253	0	1014,94	7	9	8,9	1	1	1	1	1	1	1	1	1	0	1	-0	274,376526	321,344499	0
15.01.2021	11:22:07	0	31,380898	2,95767	2,96475	2,6424	0,293	89,253	0	1015,24	7	9	8,9	1	1	1	1	1	1	1	1	1	0	1	-0	274,46301	321,749847	0
15.01.2021	11:22:08	0	31,029643	3,867721	2,72775	352,8216	0,29	89,263	0	1015	7	9	8,9	1	1	1	1	1	1	1	1	1	0	1	-0	274,341738	321,181558	0
15.01.2021	11:22:09	0	31,380946	4,664014	2,712	1,5372	0,288	89,265	0	1015,06	7	9	8,9	1	1	1	1	1	1	1	1	1	0	1	-0	274,402279	321,465162	0
15.01.2021	11:22:10	0	31,02969	3,867718	2,90025	4,0932	0,294	89,275	0	1015,42	7	9	8,9	1	1	1	1	1	1	1	1	1	0	1	-0	274,499541	321,92118	0
15.01.2021	11:22:11	0	31,2639	3,071422	2,79225	349,0884	0,287	89,243	0	1015,1	7	9	8,9	1	1	1	1	1	1	1	1	1	0	1	-0,98661	274,375012	320,350797	0
15.01.2021	11:22:12	0	31,146831	3,526446	2,59725	354,6252	0,295	89,263	0	1015,06	7	9	8,9	1	1	1	1	1	1	1	1	1	0	1	-0	274,501065	321,928327	0
15.01.2021	11:22:13	0	31,498135	5,232789	2,4195	346,032	0,292	89,259	0	1015,02	7	9	8,9	1	1	1	1	1	1	1	1	1	0	1	-0	274,429584	321,593136	0
15.01.2021	11:22:14	0	30,912691	3,6402	2,292	345,6792	0,29	89,272	0	1015,14	7	9	8,9	1	1	1	1	1	1	1	1	1	0	1	-0	274,341738	321,181558	0
15.01.2021	11:22:15	0	31,029808	2,843905	2,08875	349,7904	0,291	89,269	0	1015	7	9	8,9	1	1	1	1	1	1	1	1	1	0	1	-0	274,456929	321,72133	0
15.01.2021	11:22:16	0	31,2638	3,640197	2,028	350,9856	0,286	89,266	0	1015,06	7	9,1	8,9	1	1	1	1	1	1	1	1	1	0	1	-0	274,508685	321,964074	0
15.01.2021	11:22:17	0	31,146949	2,616391	2,04225	344,988	0,291	89,279	0	1015,04	7	9	8,9	1	1	1	1	1	1	1	1	1	0	1	-0	274,470615	321,785509	0
15.01.2021	11:22:18	0	30,912569	3,071414	2,0415	352,4328	0,288	89,271	0	1015,06	7	9,1	8,9	1	1	1	1	1	1	1	1	1	0	1	-0	274,517833	322,006993	0
15.01.2021	11:22:19	0	30,912809	4,208973	2,112	340,4412	0,289	89,275	0	1015,08	7	9	8,9	1	1	1	1	1	1	1	1	1	0	1	-2,889359	274,505636	319,060415	0
15.01.2021	11:22:20	0	30,795738	3,071412	2,3055	341,6544	0,29	89,283	0	1014,92	7	9	8,9	1	1	1	1	1	1	1	1	1	0	1	-0	274,334184	321,146183	0
15.01.2021	11:22:21	0	31,264138	4,663994	2,42325	350,2548	0,288	89,267	0	1015,14	7	9	8,9	1	1	1	1	1	1	1	1	1	0	1	-0	274,450849	321,692823	0
15.01.2021	11:22:22	0	30,795785	3,412677	2,6685	338,3208	0,292	89,279	0	1015	7,1	9	8,9	1	1	1	1	1	1	1	1	1	0	1	-1,550388	274,382582	319,822485	0
15.01.2021	11:22:23	0	31,029997	4,436479	2,83875	349,8336	0,285	89,275	0	1015	7	9	8,9	1	1	1	1	1	1	1	1	1	0	1	-0	274,50716	321,956923	0
15.01.2021	11:22:24	0	31,03002	3,640186	2,85525	350,5428	0,285	89,27	0	1014,98	7	9	8,9	1	1	1	1	1	1	1	1	1	0	1	-0	274,394701	321,429653	0
15.01.2021	11:22:25	0	31,030044	4,32272	2,949	357,5952	0,293	89,282	0	1015,2	7	9	8,9	1	1	1	1	1	1	1	1	1	0	1	-0	274,505636	321,949773	0
15.01.2021	11:22:26	0	30,912973	3,071405	2,892	343,0116	0,291	89,294	0	1014,98	7	9	8,9	1	1	1	1	1	1	1	1	1	0	1	-0	274,426549	321,578906	0
15.01.2021	11:22:27	0	31,147185	4,550228	2,9145	0,1008	0,291	89,295	0	1015,16	7	9	8,9	1	1	1	1	1	1	1	1	1	0	1	-0	274,466052	321,76411	0
15.01.2021	11:22:28	0	31,030114	4,436471	3,027	357,5016	0,286	89,275	0	1015,08	7	9	8,9	1	1	1	1	1	1	1	1	1	0	1	-0	274,449329	321,685698	0
15.01.2021	11:22:29	0	31,147233	2,957646	2,9895	353,1492	0,289	89,298	0	1015,06	7	9	8,9	1	1	1	1	1	1	1	1	1	0	1	-1,338971	274,373498	319,991345	0
15.01.2021	11:22:30	0	31,030161	4,436467	2,89275	348,228	0,296	89,292	0	1015,2	7	9	8,9	1	1	1	1	1	1	1	1	1	0	1	-0,493305	274,467573	321,277937	0
15.01.2021	11:22:31	0	31,029967	3,981444	3,201	354,1608	0,292	89,3	0	1014,92	7	9,1	8,9	1	1	1	1	1	1	1	1	1	0	1	-0	274,371985	321,323225	0
15.01.2021	11:22:32	0	30,913113	4,436464	3,3405	352,6812	0,292	89,293	0	1015,2	7	9	8,9	1	1	1	1	1	1	1	1	1	0	1	-0	274,523933	322,03562	0
15.01.2021	11:22:33	0	31,147327	2,843886	3,2415	355,0356	0,287	89,301	0	1014,98	7	9	8,9	1	1	1	1	1	1	1	1	1	0	1	-0	274,476701	321,814051	0
15.01.2021	11:22:34	0	31,030255	2,957641	3,267	359,4888	0,294	89,305	0	1015,04	7	9	8,9	1	1	1	1	1	1	1	1	1	0	1	-0	274,361393	321,273611	0
15.01.2021	11:22:35	0	31,030279	4,777725	3,3675	355,392	0,293	89,303	0	1014,96	7	9	8,9	1	1	1	1	1	1	1	1	1	0	1	-0	274,382582	321,372873	0
15.01.2021	11:22:36	0	31,030302	4,550213	3,57375	2,7252	0,296	89,306	0	1015,1	7	9	8,9	1	1	1	1	1	1	1	1	1	0	1	-0	274,504112	321,942624	0
15.01.2021	11:22:37	0	31,264517	4,891477	3,67875	352,458	0,295	89,307	0	1015,08	7	9	8,9	1	1	1	1	1	1	1	1	1	0	1	-0	274,391671	321,415454	0
15.01.2021	11:22:38	0	31,147445	4,55021	3,49125	352,818	0,291	89,299	0	1015,1	7	9	8,9	1	1	1	1	1	1	1	1	1	0	1	-0	274,341738	321,181558	0
15.01.2021	11:22:39	0	31,147468	2,502614	3,24825	354,3192	0,291	89,31	0	1015,16	7	9	8,9	1	1	1	1	1	1	1	1	1	0	1	-0	274,456929	321,72133	0
15.01.2021	11:22:40	0	31,264588	4,095186	3,18525	352,1628	0,292	89,297	0	1015,06	7	9	8,9	1	1	1	1	1	1	1	1	1	0	1	-0,98661	274,499541	320,934569	0
15.01.2021	11:22:41	0	30,913324	2,957633	3,225	357,966	0,295	89,306	0	1015,04	7	9	8,9	1	1	1	1	1	1	1	1	1	0	1	-0	274,491925	321,885453	0
15.01.2021	11:22:42	0	31,264635	4,550203	3,267	0,846	0,287	89,306	0	1015,12	7	9	8,9	1	1	1	1	1	1	1	1	1	0	1	-0	274,438695	321,635843	0
15.01.2021	11:22:43	0	30,796274	2,957631	3,33825	355,4352	0,294	89,325	0	1015,16	7	9	8,9	1	1	1	1	1	1	1	1	1	0	1	-0	274,34476	321,195713	0
15.01.2021	11:22:44	0	31,381778	3,298895	3,291	356,2092	0,293	89,32	0	1014,96	7	9	8,9	1	1	1	1	1	1	1	1	1	0	1	-0	274,479745	321,828326	0
15.01.2021	11:22:45	0	30,796321	4,663953	3,2115	356,868	0,298	89,299	0	1015,12	7	9	8,9	1	1	1	1	1	1	1	1	1	0	1	-0	274,355343	321,245275	0
15.01.2021	11:22:46	0	31,147633	4,095177	3,03075	357,9444	0,291	89,31	0	1015,14	7	9	8,9	1	1	1	1	1	1	1	1	1	0	1	-0	274,484312	321,849743	0
15.01.2021	11:22:47	0	31,03056	3,753911	3,096	346,1148	0,29	89,323	0	1015,1	7,1	9	8,9	1	1	1	1	1	1	1	1	1	0	1	-0	274,449329	321,685698	0
15.01.2021	11:22:48	0	31,030583	4,891458	3,22275	349,4124	0,294	89,302	0	1015,08	7,1	9	8,9	1	1	1	1	1	1	1	1	1	0	1	-0	274,510209	321,971226	0
15.01.2021	11:22:49	0	31,2648	3,185134	3,222	343,0512	0,293	89,325	0	1015,04	7	9	8,9	1	1	1	1	1	1	1	1	1	0	1	-0	274,385611	321,387064	0
15.01.2021	11:22:50	0	31,147727	4,777699	3,1365	338,7276	0,288	89,321	0	1015,04	7	9	8,9	1	1	1	1	1	1	1	1	1	0	1	-0	274,510209	321,971226	0
15.01.2021	11:22:51	0	31,14775	4,208924	3,11475	344,3004	0,289	89,326	0	1015,08	7,1	9	8,9	1	1	1	1	1	1	1	1	1	0	1	-0	274,444771	321,664328	0
15.01.2021	11:22:52	0	30,913364	4,663941	2,9925	352,0764	0,295	89,326	0	1015,16	7,1	9,1	8,9	1	1	1	1	1	1	1	1	1	0	1	-0	274,516308	321,999838	0
15.01.2021	11:22:53	0	31,147797	3,185129	2,81025	353,988	0,293	89,307	0	1014,92	7	9	8,9	1	1	1	1	1	1	1	1	1	0	1	-0	274,429584	321,593136	0
15.01.2021	11:22:54	0	31,147821	4,095165	2,64075	1,548	0,298	89,325	0	1015,12	7,1	9	8,9	1	1	1	1	1	1	1	1	1	0	1	-0	274,361393	321,273611	0
15.01.2021	11:22:55	0	31,264942	3,185127	2,58	359,4456	0,295	89,33	0	1015,08	7	9	8,9	1	1	1	1	1	1	1	1	1	0	1	-0	274,387126	321,39416	0
15.01.2021	11:22:56	0	30,913673	4,322671	2,64975	0,468	0,293	89,327	0	1015,06	7	9	8,9	1	1	1	1	1	1	1	1	1	0	1	-0	274,355343	321,245275	0
15.01.2021	11:22:57	0	31,382086	4,891441	2,75775	1,1664	0,294	89,317	0	1015,06	7	9	8,9	1	1	1	1	1	1	1	1	1	0	1	-0	274,400763	321,458059	0
15.01.2021	11:22:58	0	30,796623	2,730106	2,814	1,5444	0,296	89,322	0	1015,26	7	9	8,9	1	1	1	1	1	1	1	1	1	0	1	-0	274,393186	321,422553	0
15.01.2021	11:22:59	0	30,913743	2,502596	2,81475	3,7836	0,3	89,346	0	1015,14	7	9	8,9	1	1	1	1	1	1	1	1	1	0	1	-0	274,533089	322,07858	0
15.01.2021	11:23:00	0	31,147985	3,071366	2,95425	10,4472	0,296	89,344	0	1015,12	7	9	8,9	1	1	1	1	1	1	1	1	1	0	1	-0	274,510209	321,971226	0
15.01.2021	11:23:01	0	31,147985	3,071366	2,95425	10,4472	0,296	89,344	0	1015,12	7	9	8,9	1	1	1	1	1	1	1	1	1	0	1	-0	274,510209	321,971226	0
15.01.2021	11:23:02	0	31,148009	4,436416	2,97825	1,5408	0,297	89,349	0	1015,2	7,1	9	8,9	1	1	1	1	1	1	1	1	1	0	1	-0	274,408343	321,493582	0
15.01.2021	11:23:03	0	31,382228	3,981397	2,8755	359,9136	0,298	89,339	0	1015,02	7	9	8,9	1	1	1	1	1	1	1	1	1	0	1	-0,140944	274,491925	321,744509	0
15.01.2021	11:23:04	0	31,265153	3,867642	2,7345	0,8748	0,296	89,33	0	1015,24	7,1	9	8,9	1	1	1	1	1	1	1	1	1	0	1	-0	274,370471	321,316136	0
15.01.2021	11:23:05	0	31,030981	3,412624	2,60625	21,7656	0,3	89,342	0	1015,18	7,1	9	8,9	1	1	1	1	1	1	1	1	1	0	1	-1,62086	274,50716	320,336064	0
15.01.2021	11:23:06	0	31,2652	4,550163	2,53575	6,7932	0,295	89,323	0	1015,08	7,1	9	8,9	1	1	1	1	1	1	1	1	1	0	1	-0	274,362906	321,280697	0
15.01.2021	11:23:07	0	31,031027	2,843851	2,5215	18,4536	0,295	89,337	0	1015,12	7	9	8,9	1	1	1	1	1	1	1	1	1	0	1	-0	274,450849	321,692823	0
15.01.2021	11:23:08	0	31,148149	4,55016	2,661	10,4292	0,296	89,333	0	1015,16	7,1	9	8,9	1	1	1	1	1	1	1	1	1	0	1	-0	274,358368	321,259442	0
15.01.2021	11:23:09	0	31,265271	3,185111	2,793	18,8316	0,296	89,331	0	1015,02	7	9	8,9	1	1	1	1	1	1	1	1	1	0	1	-0	274,396216	321,436753	0
15.01.2021	11:23:10	0	31,031097	4,208895	2,784	3,7908	0,289	89,334	0	1015,02	7	9	8,9	1	1	1	1	1	1	1	1	1	0	1	-0	274,510209	321,971226	0
15.01.2021	11:23:11	0	31,265318	4,095139	2,60625	349,452	0,293	89,338	0	1015,1	7,1	9	8,9	1	1	1	1	1	1	1	1	1	0	1	-0	274,458449	321,728458	0
15.01.2021	11:23:12	0	31,031144	3,526369	2,4465	357,6276	0,294	89,33	0	1015,14	7	9	8,9	1	1	1	1	1	1	1	1	1	0	1	-1,62086	274,346272	319,581931	0
15.01.2021	11:23:13	0	31,499562	3,867629	2,32425	353,5236	0,294	89,338	0	1015,2	7	9	8,9	1	1	1	1	1	1	1	1	1	0	1	-0	274,458449	321,728458	0
15.01.2021	11:23:14	0	31,382487	3,412613	2,25525	8,9784	0,294	89,333	0	1015,12	7,1	9	8,9	1	1	1	1	1	1	1	1	1	0	1	-0	274,353831	321,238193	0
15.01.2021	11:23:15	0	31,148313	3,185104	2,22975	7,9596	0,294	89,333	0	1015,08	7,1	9	8,9	1	1	1	1	1	1	1	1	1	0	1	-0	274,417444	321,536232	0
15.01.2021	11:23:16	0	31,265435	3,071349	2,349	8,244	0,295	89,335	0	1015,06	7	9	8,9	1	1	1	1	1	1	1	1	1	0	1	-0	274,502589	321,935475	0
15.01.2021	11:23:17	0	30,914161	3,298855	2,49675	21,006	0,299	89,353	0	1015,1	7	9	8,9	1	1	1	1	1	1	1	1	1	0	1	-0	274,343249	321,188635	0
15.01.2021	11:23:18	0	31,265482	4,550143	2,43675	7,1244	0,295	89,351	0	1015,16	7	9	8,9	1	1	1	1	1	1	1	1	1	0	1	-2,466526	274,417444	319,069706	0
15.01.2021	11:23:19	0	31,382605	3,867621	2,346	9,7704	0,293	89,344	0	1015,2	7	9	8,9	1	1	1	1	1	1	1	1	1	0	1	-0	274,349295	321,21695	0
15.01.2021	11:23:20	0	31,14843	3,071345	2,46075	29,9124	0,294	89,349	0	1015,04	7,1	9	8,9	1	1	1	1	1	1	1	1	1	0	1	-0	274,459969	321,735587	0
15.01.2021	11:23:21	0	31,499751	3,185097	2,5125	18,8316	0,292	89,344	0	1015,22	7,1	9	8,9	1	1	1	1	1	1	1	1	1	0	1	-0	274,479745	321,828326	0
15.01.2021	11:23:22	0	31,031377	3,640109	2,427	20,6244	0,293	89,356	0	1015,16	7,1	9	8,9	1	1	1	1	1	1	1	1	1	0	1	-0	274,505636	321,949773	0
15.01.2021	11:23:23	0	31,265599	3,526355	2,3925	12,0672	0,296	89,361	0	1014,98	7,1	9	8,9	1	1	1	1	1	1	1	1	1	0	1	-0	274,396216	321,436753	0
15.01.2021	11:23:24	0	31,031423	3,981367	2,46075	8,2476	0,297	89,356	0	1015,12	7	9	8,9	1	1	1	1	1	1	1	1	1	0	1	-0	274,491925	321,885453	0
15.01.2021	11:23:25	0	31,031447	3,412599	2,69775	12,0888	0,293	89,351	0	1015,08	7,1	9	8,9	1	1	1	1	1	1	1	1	1	0	1	-0	274,44781	321,678574	0
15.01.2021	11:23:26	0	31,14857	3,867611	2,88225	15,03	0,3	89,349	0	1015,12	7,1	9	8,9	1	1	1	1	1	1	1	1	1	0	1	-0	274,353831	321,238193	0
15.01.2021	11:23:27	0	31,382793	3,071337	3,05025	10,8108	0,3	89,341	0	1015,06	7,1	9	8,9	1	1	1	1	1	1	1	1	1	0	1	-0	274,449329	321,685698	0
15.01.2021	11:23:28	0	31,265716	3,071336	3,05175	12,0852	0,295	89,342	0	1015,14	7,1	9	8,9	1	1	1	1	1	1	1	1	1	0	1	-0	274,505636	321,949773	0
15.01.2021	11:23:29	0	31,26574	2,843828	2,97675	9,3564	0,298	89,352	0	1015,2	7	9	8,9	1	1	1	1	1	1	1	1	1	0	1	-0	274,365932	321,29487	0
15.01.2021	11:23:30	0	31,265763	3,526346	2,91375	6,4296	0,29	89,353	0	1015,16	7,1	9	8,9	1	1	1	1	1	1	1	1	1	0	1	-0	274,415927	321,529122	0
15.01.2021	11:23:31	0	31,265787	2,61632	2,7165	358,7292	0,297	89,355	0	1015,14	7,1	9	8,9	1	1	1	1	1	1	1	1	1	0	1	-0	274,350807	321,22403	0
15.01.2021	11:23:32	0	31,734212	5,118885	2,403	0,8712	0,295	89,341	0	1015,1	7	9	8,9	1	1	1	1	1	1	1	1	1	0	1	-0	274,429584	321,593136	0
15.01.2021	11:23:33	0	31,500034	5,118884	2,09175	4,8204	0,302	89,348	0	1015,08	7,1	9	8,9	1	1	1	1	1	1	1	1	1	0	1	-0	274,493448	321,892597	0
15.01.2021	11:23:34	0	31,265857	4,436364	1,93125	18,0756	0,293	89,34	0	1015,12	7,1	9	8,9	1	1	1	1	1	1	1	1	1	0	1	-0	274,467573	321,771242	0
15.01.2021	11:23:35	0	31,617182	4,663868	1,87125	6,0516	0,298	89,34	0	1015,18	7,1	9	8,9	1	1	1	1	1	1	1	1	1	0	1	-0	274,526985	322,049937	0
15.01.2021	11:23:36	0	31,383004	2,616315	1,932	3,3876	0,3	89,358	0	1015,12	7	9	8,9	1	1	1	1	1	1	1	1	1	0	1	-0	274,423513	321,564679	0
15.01.2021	11:23:37	0	31,383028	4,095101	1,9095	351,7056	0,299	89,366	0	1015,16	7,1	9	8,9	1	1	1	1	1	1	1	1	1	0	1	-0	274,520883	322,021305	0
15.01.2021	11:23:38	0	31,383051	3,867594	1,962	0,4932	0,299	89,336	0	1014,94	7,1	9	8,9	1	1	1	1	1	1	1	1	1	0	1	-0	274,434139	321,614486	0
15.01.2021	11:23:39	0	31,500176	4,891367	1,8465	6,8256	0,299	89,352	0	1015,22	7,1	9	8,9	1	1	1	1	1	1	1	1	1	0	1	-0	274,522408	322,028462	0
15.01.2021	11:23:40	0	31,6173	3,185075	1,6575	2,6388	0,294	89,353	0	1015,06	7,1	9	8,9	1	1	1	1	1	1	1	1	1	0	1	-0	274,441733	321,650084	0
15.01.2021	11:23:41	0	31,383121	3,981342	1,539	2,7396	0,302	89,353	0	1015,12	7,1	9	8,9	1	1	1	1	1	1	1	1	1	0	1	-3,735025	274,525459	318,307754	0
15.01.2021	11:23:42	0	31,500246	3,07132	1,461	8,9856	0,299	89,33	0	1014,98	7	9	8,9	1	1	1	1	1	1	1	1	1	0	1	-0	274,399247	321,450956	0
15.01.2021	11:23:43	0	31,617371	4,89136	1,446	359,7948	0,298	89,36	0	1015,3	7,1	9	8,9	1	1	1	1	1	1	1	1	1	0	1	-0	274,627946	322,523951	0
15.01.2021	11:23:44	0	32,0858	3,298823	1,458	359,82	0,295	89,352	0	1015	7,1	9	8,9	1	1	1	1	1	1	1	1	1	0	1	-0	274,406827	321,486476	0
15.01.2021	11:23:45	0	31,73452	3,298822	1,5435	1,8936	0,294	89,354	0	1015,12	7	9	8,9	1	1	1	1	1	1	1	1	1	0	1	-0	274,335694	321,153257	0
15.01.2021	11:23:46	0	31,968747	4,436345	1,67325	356,1912	0,299	89,349	0	1015,06	7,1	9	8,9	1	1	1	1	1	1	1	1	1	0	1	-0	274,450849	321,692823	0
15.01.2021	11:23:47	0	31,734567	4,095086	1,644	3,006	0,299	89,361	0	1015,14	7,1	9	8,9	1	1	1	1	1	1	1	1	1	0	1	-0	274,346272	321,202791	0
15.01.2021	11:23:48	0	32,3201	3,640075	1,60875	0,1116	0,301	89,349	0	1014,98	7,1	9	8,9	1	1	1	1	1	1	1	1	1	0	1	-0	274,412893	321,514904	0
15.01.2021	11:23:49	0	32,08592	4,891349	1,6695	356,9868	0,3	89,354	0	1015,1	7,1	9	8,9	1	1	1	1	1	1	1	1	1	0	1	-0	274,537668	322,100069	0
15.01.2021	11:23:50	0	32,085944	4,663843	2,10525	2,6388	0,297	89,362	0	1015,1	7,1	9	8,9	1	1	1	1	1	1	1	1	1	0	1	-0	274,402279	321,465162	0
15.01.2021	11:23:51	0	31,968866	2,730054	2,4255	0,864	0,304	89,344	0	1015	7	9	8,9	1	1	1	1	1	1	1	1	1	0	1	-0,563777	274,350807	320,660253	0
15.01.2021	11:23:52	0	32,320196	3,981327	2,598	2,6244	0,292	89,345	0	1015,08	7,1	9	8,9	1	1	1	1	1	1	1	1	1	0	1	-1,409443	274,466052	320,354666	0
15.01.2021	11:23:53	0	32,086016	4,550086	2,59575	10,44	0,301	89,366	0	1015,28	7,1	9	8,9	1	1	1	1	1	1	1	1	1	0	1	-0	274,502589	321,935475	0
15.01.2021	11:23:54	0	32,437347	4,777589	2,51325	359,8344	0,302	89,328	0	1015,08	7,1	9	8,9	1	1	1	1	1	1	1	1	1	0	1	-0	274,536141	322,092906	0
15.01.2021	11:23:55	0	32,086063	3,185058	2,38125	352,0764	0,299	89,365	0	1015,16	7	9	8,9	1	1	1	1	1	1	1	1	1	0	1	-0	274,421996	321,557566	0
15.01.2021	11:23:56	0	32,905805	4,550081	2,31525	349,8228	0,299	89,342	0	1015,06	7,1	9	8,9	1	1	1	1	1	1	1	1	1	0	1	-0,070472	274,485834	321,786412	0
15.01.2021	11:23:57	0	32,671624	3,981319	2,38425	347,5944	0,298	89,358	0	1015,04	7,1	9	8,9	1	1	1	1	1	1	1	1	1	0	1	-0	274,353831	321,238193	0
15.01.2021	11:23:58	0	32,32034	3,981318	2,4495	348,606	0,294	89,366	0	1015,1	7,1	9	8,9	1	1	1	1	1	1	1	1	1	0	1	-0	274,494971	321,899742	0
15.01.2021	11:23:59	0	32,320365	2,730046	2,42475	353,4588	0,301	89,367	0	1015,24	7	9	8,9	1	1	1	1	1	1	1	1	1	0	1	-0	274,519358	322,014149	0
15.01.2021	11:24:00	0	32,437516	3,298803	2,14875	356,1588	0,295	89,365	0	1015,02	7	9	8,9	1	1	1	1	1	1	1	1	1	0	1	-0	274,472137	321,792643	0
15.01.2021	11:24:01	0	32,437516	3,298803	2,14875	356,1588	0,295	89,365	0	1015,02	7	9	8,9	1	1	1	1	1	1	1	1	1	0	1	-0	274,376526	321,344499	0
15.01.2021	11:24:02	0	32,788849	4,550071	2,04075	353,5884	0,294	89,374	0	1015,2	7,1	9	8,9	1	1	1	1	1	1	1	1	1	0	1	-0	274,484312	321,849743	0
15.01.2021	11:24:03	0	32,554667	2,61629	2,043	354,9456	0,298	89,371	0	1015,08	7,1	9	8,9	1	1	1	1	1	1	1	1	1	0	1	-0,98661	274,545302	321,149288	0
15.01.2021	11:24:04	0	32,554691	2,616289	2,3115	348,2784	0,294	89,355	0	1015,08	7,1	9	8,9	1	1	1	1	1	1	1	1	1	0	1	-0	274,438695	321,635843	0
15.01.2021	11:24:05	0	33,140232	3,185046	2,6535	357,2928	0,292	89,365	0	1015,1	7	9	8,9	1	1	1	1	1	1	1	1	1	0	1	-0	274,358368	321,259442	0
15.01.2021	11:24:06	0	33,023153	5,005071	2,79975	352,494	0,294	89,364	0	1015,16	7,1	9	8,9	1	1	1	1	1	1	1	1	1	0	1	-0	274,491925	321,885453	0
15.01.2021	11:24:07	0	32,671867	4,208808	3,069	0,1152	0,298	89,377	0	1015,04	7,1	9	8,9	1	1	1	1	1	1	1	1	1	0	1	-0	274,491925	321,885453	0
15.01.2021	11:24:08	0	33,140306	2,95754	3,06375	356,49	0,297	89,372	0	1015,04	7,1	9	8,9	1	1	1	1	1	1	1	1	1	0	1	-0,422833	274,476701	321,391218	0
15.01.2021	11:24:09	0	33,257201	4,663811	2,97225	357,534	0,297	89,373	0	1015,04	7,1	9,1	8,9	1	1	1	1	1	1	1	1	1	0	1	-0	274,523933	322,03562	0
15.01.2021	11:24:10	0	33,257458	2,047526	2,988	1,9224	0,297	89,376	0	1015,12	7,1	9	8,9	1	1	1	1	1	1	1	1	1	0	1	-0	274,429584	321,593136	0
15.01.2021	11:24:11	0	33,257483	2,957537	3,1755	350,3088	0,294	89,378	0	1015,02	7,1	9	8,9	1	1	1	1	1	1	1	1	1	0	1	-0	274,537668	322,100069	0
15.01.2021	11:24:12	0	33,491716	5,118812	3,4335	345,3264	0,297	89,37	0	1015	7,1	9	8,9	1	1	1	1	1	1	1	1	1	0	1	-0,493305	274,491925	321,392148	0
15.01.2021	11:24:13	0	33,140429	4,550053	3,46725	0,1224	0,298	89,395	0	1015,18	7,1	9	8,9	1	1	1	1	1	1	1	1	1	0	1	-0	274,356855	321,252358	0
15.01.2021	11:24:14	0	32,906245	3,071285	3,42	347,9652	0,299	89,389	0	1015,12	7,1	9	8,9	1	1	1	1	1	1	1	1	1	0	1	-0,211416	274,435658	321,410188	0
15.01.2021	11:24:15	0	33,374686	4,777552	3,39675	357,084	0,298	89,385	0	1015	7,1	9	8,9	1	1	1	1	1	1	1	1	1	0	1	-2,114165	274,52851	319,942932	0
15.01.2021	11:24:16	0	33,374711	5,005053	3,56475	349,8084	0,305	89,385	0	1015,24	7,1	9	8,9	1	1	1	1	1	1	1	1	1	0	1	-0,634249	274,412893	320,880654	0
15.01.2021	11:24:17	0	33,726048	4,322544	3,6705	349,9236	0,296	89,385	0	1014,96	7,1	9	8,9	1	1	1	1	1	1	1	1	1	0	1	-0	274,52851	322,057097	0
15.01.2021	11:24:18	0	33,608969	4,777576	3,621	349,4448	0,294	89,375	0	1015,08	7,1	9	8,8	1	1	1	1	1	1	1	1	1	0	1	-0	274,491925	321,885453	0
15.01.2021	11:24:19	0	33,843203	4,095039	3,5145	347,9652	0,302	89,389	0	1015,16	7,1	9	8,9	1	1	1	1	1	1	1	1	1	0	1	-0	274,488879	321,871167	0
15.01.2021	11:24:20	0	33,726123	3,071278	3,38325	338,3136	0,294	89,368	0	1015	7,1	9	8,9	1	1	1	1	1	1	1	1	1	0	1	-0	274,478223	321,821188	0
15.01.2021	11:24:21	0	33,140625	4,322538	3,37125	348,6456	0,3	89,377	0	1015,14	7,1	9	8,9	1	1	1	1	1	1	1	1	1	0	1	-0	274,365932	321,29487	0
15.01.2021	11:24:22	0	33,491964	4,66379	3,24825	343,0944	0,3	89,393	0	1015,12	7,1	9	8,9	1	1	1	1	1	1	1	1	1	0	1	-0	274,530036	322,064257	0
15.01.2021	11:24:23	0	33,843303	3,867531	3,1275	347,562	0,304	89,368	0	1015,06	7,1	9	8,9	1	1	1	1	1	1	1	1	1	0	1	-0	274,508685	321,964074	0
15.01.2021	11:24:24	0	33,374908	4,095032	2,99775	345,3948	0,298	89,378	0	1015,04	7,1	9	8,9	1	1	1	1	1	1	1	1	1	0	1	-0	274,526985	322,049937	0
15.01.2021	11:24:25	0	33,726248	4,322558	2,95275	340,056	0,302	89,383	0	1015,14	7,1	9	8,8	1	1	1	1	1	1	1	1	1	0	1	-0	274,479745	321,828326	0
15.01.2021	11:24:26	0	33,609168	3,981278	3,129	353,8368	0,294	89,365	0	1015,08	7,1	9	8,9	1	1	1	1	1	1	1	1	1	0	1	-0	274,487357	321,864025	0
15.01.2021	11:24:27	0	33,726298	2,843786	3,33	360	0,294	89,376	0	1015,04	7,1	9	8,8	1	1	1	1	1	1	1	1	1	0	1	-0	274,581989	322,308119	0
15.01.2021	11:24:28	0	33,726323	4,208777	3,24375	357,2748	0,301	89,381	0	1015,08	7,1	9	8,9	1	1	1	1	1	1	1	1	1	0	1	-0	274,405311	321,479371	0
15.01.2021	11:24:29	0	33,726112	2,957518	3,35025	358,2468	0,302	89,371	0	1015,14	7,1	9,1	8,9	1	1	1	1	1	1	1	1	1	0	1	-0	274,522408	322,028462	0
15.01.2021	11:24:30	0	33,726373	4,322524	3,6165	358,3044	0,297	89,35	0	1015,14	7,1	9	8,9	1	1	1	1	1	1	1	1	1	0	1	-0	274,394701	321,429653	0
15.01.2021	11:24:31	0	33,726398	2,730031	3,627	0	0,301	89,364	0	1015,06	7,1	9	8,8	1	1	1	1	1	1	1	1	1	0	1	-0	274,328142	321,117895	0
15.01.2021	11:24:32	0	33,960634	2,957515	3,50925	352,7568	0,302	89,354	0	1015,22	7	9	8,9	1	1	1	1	1	1	1	1	1	0	1	-0	274,421996	321,557566	0
15.01.2021	11:24:33	0	34,311976	3,867518	3,30675	355,3128	0,299	89,357	0	1015,04	7,1	9	8,9	1	1	1	1	1	1	1	1	1	0	1	-0	274,533089	322,07858	0
15.01.2021	11:24:34	0	33,843578	3,640015	3,17925	351,3492	0,299	89,359	0	1015,06	7,1	9	8,9	1	1	1	1	1	1	1	1	1	0	1	-0	274,41441	321,522012	0
15.01.2021	11:24:35	0	34,312027	3,640014	3,06525	344,6028	0,295	89,366	0	1015,08	7,1	9	8,9	1	1	1	1	1	1	1	1	1	0	1	-0	274,373498	321,330316	0
15.01.2021	11:24:36	0	34,194946	2,616275	3,0795	354,8916	0,298	89,352	0	1015,06	7,1	9	8,8	1	1	1	1	1	1	1	1	1	0	1	-0	274,47518	321,806914	0
15.01.2021	11:24:37	0	34,077866	4,663765	2,94825	360	0,298	89,344	0	1015,04	7,1	9	8,9	1	1	1	1	1	1	1	1	1	0	1	-0	274,484312	321,849743	0
15.01.2021	11:24:38	0	33,843678	3,981261	2,9145	0,8568	0,299	89,355	0	1014,98	7,1	9	8,9	1	1	1	1	1	1	1	1	1	0	1	-0	274,376526	321,344499	0
15.01.2021	11:24:39	0	33,96081	3,412508	2,8395	358,6788	0,304	89,362	0	1015,16	7,1	9	8,9	1	1	1	1	1	1	1	1	1	0	1	-0	274,420478	321,550454	0
15.01.2021	11:24:40	0	34,077941	2,616255	2,775	354,2004	0,304	89,346	0	1015,02	7,1	9	8,9	1	1	1	1	1	1	1	1	1	0	1	-0	274,536141	322,092906	0
15.01.2021	11:24:41	0	34,077966	5,118789	2,7225	353,61	0,3	89,355	0	1015,16	7,1	9	8,8	1	1	1	1	1	1	1	1	1	0	1	-0	274,426549	321,578906	0
15.01.2021	11:24:42	0	34,195098	4,777506	2,76675	353,8548	0,304	89,354	0	1015,14	7,1	9	8,9	1	1	1	1	1	1	1	1	1	0	1	-0	274,526985	322,049937	0
15.01.2021	11:24:43	0	34,429095	3,526275	2,74875	358,7184	0,301	89,358	0	1015,14	7,1	9,1	8,8	1	1	1	1	1	1	1	1	1	0	1	-0	274,44781	321,678574	0
15.01.2021	11:24:44	0	34,195148	4,208778	2,622	357,264	0,296	89,338	0	1014,8	7,1	9	8,8	1	1	1	1	1	1	1	1	1	0	1	-0	274,514783	321,992684	0
15.01.2021	11:24:45	0	34,546494	3,753774	2,58	0,468	0,299	89,338	0	1015,08	7,1	9	8,8	1	1	1	1	1	1	1	1	1	0	1	-0	274,488879	321,871167	0
15.01.2021	11:24:46	0	34,429412	3,981274	2,5275	359,8884	0,3	89,349	0	1015,08	7,1	9	8,8	1	1	1	1	1	1	1	1	1	0	1	-0	274,376526	321,344499	0
15.01.2021	11:24:47	0	34,195224	5,34628	2,46675	358,7796	0,301	89,351	0	1014,86	7,1	9	8,8	1	1	1	1	1	1	1	1	1	0	1	-0	274,399247	321,450956	0
15.01.2021	11:24:48	0	34,078142	3,639997	2,44425	354,9924	0,301	89,341	0	1014,94	7,1	9	8,9	1	1	1	1	1	1	1	1	1	0	1	-0	274,543775	322,128732	0
15.01.2021	11:24:49	0	34,195274	3,981245	2,50425	353,1456	0,302	89,36	0	1015,12	7,1	9	8,9	1	1	1	1	1	1	1	1	1	0	1	-0	274,397732	321,443854	0
15.01.2021	11:24:50	0	34,429514	3,640016	2,45175	359,1432	0,29	89,346	0	1015,04	7,1	9	8,8	1	1	1	1	1	1	1	1	1	0	1	-0	274,542248	322,121565	0
15.01.2021	11:24:51	0	34,312191	4,436242	2,307	4,5576	0,301	89,351	0	1015,08	7,1	9,1	8,9	1	1	1	1	1	1	1	1	1	0	1	-0	274,487357	321,864025	0
15.01.2021	11:24:52	0	34,19535	3,412492	2,30625	3,3768	0,298	89,353	0	1015,08	7,1	9	8,9	1	1	1	1	1	1	1	1	1	0	1	-0	274,375012	321,337407	0
15.01.2021	11:24:53	0	34,429348	2,616243	2,385	0,8496	0,3	89,353	0	1015,1	7,1	9,1	8,9	1	1	1	1	1	1	1	1	1	0	1	-0	274,402279	321,465162	0
15.01.2021	11:24:54	0	34,780938	3,29874	2,4285	357,9876	0,295	89,36	0	1015,14	7,1	9	8,9	1	1	1	1	1	1	1	1	1	0	1	-0	274,501065	321,928327	0
15.01.2021	11:24:55	0	34,078079	2,388756	2,3835	355,0788	0,301	89,364	0	1015,16	7,1	9,1	8,8	1	1	1	1	1	1	1	1	1	0	1	-0	274,534615	322,085743	0
15.01.2021	11:24:56	0	34,663881	4,663733	2,25675	356,4864	0,3	89,372	0	1015,22	7,1	9	8,9	1	1	1	1	1	1	1	1	1	0	1	-0	274,501065	321,928327	0
15.01.2021	11:24:57	0	34,663906	4,095008	2,09025	360	0,303	89,362	0	1015,04	7,1	9	8,8	1	1	1	1	1	1	1	1	1	0	1	-0	274,526985	322,049937	0
15.01.2021	11:24:58	0	34,546824	2,616239	2,23575	358,9992	0,298	89,333	0	1015,08	7,1	9	8,9	1	1	1	1	1	1	1	1	1	0	1	-0	274,423513	321,564679	0
15.01.2021	11:24:59	0	34,780822	2,957486	2,30625	6,426	0,3	89,35	0	1015,1	7,1	9,1	8,9	1	1	1	1	1	1	1	1	1	0	1	-0	274,384097	321,379968	0
15.01.2021	11:25:00	0	34,312684	4,095002	2,292	0,8388	0,301	89,356	0	1015,14	7,1	9	8,8	1	1	1	1	1	1	1	1	1	0	1	-0	274,491925	321,885453	0
15.01.2021	11:25:01	0	34,312684	4,095002	2,292	0,8388	0,301	89,356	0	1015,14	7,1	9	8,8	1	1	1	1	1	1	1	1	1	0	1	-0	274,539194	322,107234	0
15.01.2021	11:25:02	0	34,89825	5,11872	2,448	1,5336	0,304	89,341	0	1015,04	7,1	9	8,9	1	1	1	1	1	1	1	1	1	0	1	-0	274,449329	321,685698	0
15.01.2021	11:25:03	0	34,546709	4,549972	2,565	359,154	0,304	89,364	0	1015,18	7,1	9,1	8,9	1	1	1	1	1	1	1	1	1	0	1	-0	274,537668	322,100069	0
15.01.2021	11:25:04	0	34,546976	4,436221	2,63325	1,5516	0,299	89,356	0	1015,16	7,1	9	8,9	1	1	1	1	1	1	1	1	1	0	1	-0	274,530036	322,064257	0
15.01.2021	11:25:05	0	34,429893	3,753724	2,71875	3,0168	0,308	89,345	0	1015,06	7,1	9	8,9	1	1	1	1	1	1	1	1	1	0	1	-0	274,543775	322,128732	0
15.01.2021	11:25:06	0	34,429677	3,184996	2,5965	6,5016	0,303	89,357	0	1015,12	7,1	9,1	8,8	1	1	1	1	1	1	1	1	1	0	1	-0	274,522408	322,028462	0
15.01.2021	11:25:07	0	34,664161	4,663743	2,55525	9,7416	0,305	89,358	0	1015,12	7,1	9	8,8	1	1	1	1	1	1	1	1	1	0	1	-0,281889	274,517833	321,725105	0
15.01.2021	11:25:08	0	34,429969	3,184975	2,48775	357,5736	0,305	89,368	0	1015,26	7,1	9	8,9	1	1	1	1	1	1	1	1	1	0	1	-0	274,384097	321,379968	0
15.01.2021	11:25:09	0	34,664212	5,118738	2,4555	0,8532	0,304	89,355	0	1015,18	7,1	9	8,8	1	1	1	1	1	1	1	1	1	0	1	-0	274,533089	322,07858	0
15.01.2021	11:25:10	0	35,015564	4,094965	2,43225	359,4096	0,305	89,353	0	1015,28	7,1	9	8,9	1	1	1	1	1	1	1	1	1	0	1	-0	274,466052	321,76411	0
15.01.2021	11:25:11	0	34,664263	4,094963	2,445	4,068	0,303	89,332	0	1015,06	7,1	9	8,9	1	1	1	1	1	1	1	1	1	0	1	-0	274,390156	321,408355	0
15.01.2021	11:25:12	0	34,546937	3,298719	2,4075	355,8348	0,303	89,354	0	1015,16	7,1	9,1	8,9	1	1	1	1	1	1	1	1	1	0	1	-0	274,482789	321,842603	0
15.01.2021	11:25:13	0	34,429854	4,09496	2,47425	6,048	0,307	89,356	0	1015,1	7,1	9,1	8,9	1	1	1	1	1	1	1	1	1	0	1	-0	274,531562	322,071418	0
15.01.2021	11:25:14	0	35,015667	4,436232	2,4975	357,6888	0,3	89,338	0	1015,08	7,1	9	8,8	1	1	1	1	1	1	1	1	1	0	1	-0	274,417444	321,536232	0
15.01.2021	11:25:15	0	34,430146	3,639962	2,44725	359,4636	0,299	89,338	0	1015,08	7,1	9	8,9	1	1	1	1	1	1	1	1	1	0	1	-0	274,525459	322,042778	0
15.01.2021	11:25:16	0	35,015718	3,526191	2,40225	3,7908	0,302	89,335	0	1015,32	7,1	9	9	1	1	1	1	1	1	1	1	1	0	1	-0	274,519358	322,014149	0
15.01.2021	11:25:17	0	34,429955	4,094979	2,5665	357,2064	0,293	89,346	0	1015,1	7,1	9,1	8,8	1	1	1	1	1	1	1	1	1	0	1	-0	274,37804	321,351591	0
15.01.2021	11:25:18	0	35,015524	4,436226	2,6055	355,7484	0,304	89,338	0	1015,04	7,1	9,1	8,8	1	1	1	1	1	1	1	1	1	0	1	-0	274,516308	321,999838	0
15.01.2021	11:25:19	0	34,664466	4,891222	2,727	6,804	0,306	89,341	0	1015,06	7,1	9	8,8	1	1	1	1	1	1	1	1	1	0	1	-0,352361	274,50716	321,604563	0
15.01.2021	11:25:20	0	34,664491	3,412459	2,8455	360	0,303	89,346	0	1015,1	7,1	9	8,9	1	1	1	1	1	1	1	1	1	0	1	-0	274,356855	321,252358	0
15.01.2021	11:25:21	0	34,664274	4,208723	2,757	0,846	0,305	89,35	0	1015,12	7,1	9,1	8,8	1	1	1	1	1	1	1	1	1	0	1	-0	274,437176	321,628723	0
15.01.2021	11:25:22	0	34,898762	4,549969	2,75925	7,1244	0,305	89,339	0	1015,12	7,1	9	8,8	1	1	1	1	1	1	1	1	1	0	1	-0	274,551412	322,164575	0
15.01.2021	11:25:23	0	34,547457	3,071209	2,79075	0,486	0,305	89,341	0	1015,12	7,1	9	8,9	1	1	1	1	1	1	1	1	1	0	1	-0	274,246769	320,737056	0
15.01.2021	11:25:24	0	34,664592	3,071208	2,66625	4,8384	0,299	89,352	0	1015,16	7,1	9	8,9	1	1	1	1	1	1	1	1	1	0	1	-0	274,368958	321,309047	0
15.01.2021	11:25:25	0	35,015948	4,32244	2,565	360	0,305	89,338	0	1015,2	7,1	9	8,9	1	1	1	1	1	1	1	1	1	0	1	-0	274,491925	321,885453	0
15.01.2021	11:25:26	0	34,547291	4,663711	2,39475	6,4368	0,301	89,349	0	1015,14	7,1	9,1	8,8	1	1	1	1	1	1	1	1	1	0	1	-0	274,545302	322,135899	0
15.01.2021	11:25:27	0	35,13311	3,52622	2,29125	359,8488	0,304	89,342	0	1015,1	7,1	9	8,8	1	1	1	1	1	1	1	1	1	0	1	-0	274,501065	321,928327	0
15.01.2021	11:25:28	0	34,781804	3,184971	2,1465	359,388	0,302	89,346	0	1015,1	7,1	9	8,8	1	1	1	1	1	1	1	1	1	0	1	-0	274,501065	321,928327	0
15.01.2021	11:25:29	0	35,132915	3,18497	2,109	6,0588	0,3	89,345	0	1015,14	7,1	9,1	8,8	1	1	1	1	1	1	1	1	1	0	1	-0	274,47518	321,806914	0
15.01.2021	11:25:30	0	34,664502	2,502476	2,1015	352,0368	0,301	89,366	0	1015,06	7,1	9,1	8,8	1	1	1	1	1	1	1	1	1	0	1	-0	274,405311	321,479371	0
15.01.2021	11:25:31	0	34,781637	2,843721	1,98525	354,222	0,308	89,368	0	1015	7,1	9,1	8,8	1	1	1	1	1	1	1	1	1	0	1	-0	274,555995	322,186089	0
15.01.2021	11:25:32	0	35,015882	2,84372	1,94775	354,24	0,307	89,362	0	1015,16	7,1	9,1	8,8	1	1	1	1	1	1	1	1	1	0	1	-0	274,490402	321,87831	0
15.01.2021	11:25:33	0	35,250128	4,322428	2,07825	353,4804	0,3	89,331	0	1015,04	7,1	9,1	8,9	1	1	1	1	1	1	1	1	1	0	1	-0	274,539194	322,107234	0
15.01.2021	11:25:34	0	34,899067	2,843718	2,22825	356,9796	0,302	89,359	0	1015,2	7,1	9	8,8	1	1	1	1	1	1	1	1	1	0	1	-0	274,491925	321,885453	0
15.01.2021	11:25:35	0	35,133069	3,298712	2,33475	354,2472	0,302	89,366	0	1015,22	7,1	9,1	8,8	1	1	1	1	1	1	1	1	1	0	1	-0,493305	274,530036	321,570952	0
15.01.2021	11:25:36	0	34,781764	4,663667	2,403	347,6592	0,3	89,361	0	1015,22	7,1	9,1	8,9	1	1	1	1	1	1	1	1	1	0	1	-0	274,429584	321,593136	0
15.01.2021	11:25:37	0	34,898899	4,322396	2,52975	355,7592	0,309	89,347	0	1015,1	7,1	9,1	9	1	1	1	1	1	1	1	1	1	0	1	-0	274,537668	322,100069	0
15.01.2021	11:25:38	0	35,250503	4,094949	2,62875	4,0536	0,306	89,374	0	1015,14	7,1	9	8,8	1	1	1	1	1	1	1	1	1	0	1	-0	274,469094	321,778375	0
15.01.2021	11:25:39	0	35,016306	4,436193	2,57175	349,884	0,304	89,367	0	1015,18	7,1	9	8,8	1	1	1	1	1	1	1	1	1	0	1	-0	274,365932	321,29487	0
15.01.2021	11:25:40	0	35,367666	4,663688	2,76675	348,2388	0,302	89,369	0	1015	7,1	9	8,8	1	1	1	1	1	1	1	1	1	0	1	-0	274,450849	321,692823	0
15.01.2021	11:25:41	0	35,016112	2,843711	2,757	6,8184	0,307	89,377	0	1015,04	7,1	9,1	8,8	1	1	1	1	1	1	1	1	1	0	1	-0	274,381068	321,365778	0
15.01.2021	11:25:42	0	35,133248	4,322414	2,6085	6,4152	0,308	89,367	0	1015,02	7,1	9,1	8,9	1	1	1	1	1	1	1	1	1	0	1	-0	274,415927	321,529122	0
15.01.2021	11:25:43	0	35,133274	4,777432	2,45625	358,362	0,305	89,372	0	1015,1	7,1	9,1	8,8	1	1	1	1	1	1	1	1	1	0	1	-1,338971	274,709404	321,56781	0
15.01.2021	11:25:44	0	35,25041	4,094891	2,42025	360	0,305	89,388	0	1015,22	7,1	9,1	9	1	1	1	1	1	1	1	1	1	0	1	-0	274,519358	322,014149	0
15.01.2021	11:25:45	0	35,250683	3,526155	2,4915	357,6132	0,309	89,376	0	1015,22	7,1	9	9	1	1	1	1	1	1	1	1	1	0	1	-1,268499	274,549884	320,888906	0
15.01.2021	11:25:46	0	35,484684	3,412448	2,616	352,1016	0,304	89,376	0	1015,08	7,1	9,1	8,8	1	1	1	1	1	1	1	1	1	0	1	-0	274,418961	321,543342	0
15.01.2021	11:25:47	0	35,250487	3,298698	2,59875	4,0752	0,305	89,358	0	1015,12	7,1	9,1	8,8	1	1	1	1	1	1	1	1	1	0	1	-0	274,537668	322,100069	0
15.01.2021	11:25:48	0	35,016535	3,639942	2,589	352,7496	0,298	89,349	0	1015,04	7,1	9	8,8	1	1	1	1	1	1	1	1	1	0	1	-0	274,428066	321,586021	0
15.01.2021	11:25:49	0	34,899449	2,616176	2,51925	1,1592	0,305	89,375	0	1015,12	7,1	9	9	1	1	1	1	1	1	1	1	1	0	1	-0	274,387126	321,39416	0
15.01.2021	11:25:50	0	35,016586	4,891168	2,38875	354,0924	0,306	89,375	0	1014,98	7,1	9	8,8	1	1	1	1	1	1	1	1	1	0	1	-0,281889	274,493448	321,610708	0
15.01.2021	11:25:51	0	35,016367	3,412442	2,31075	3,7908	0,305	89,382	0	1015,22	7,1	9,1	8,8	1	1	1	1	1	1	1	1	1	0	1	-0	274,387126	321,39416	0
15.01.2021	11:25:52	0	35,133504	4,322425	2,27025	4,4532	0,299	89,373	0	1015,16	7,1	9,1	8,8	1	1	1	1	1	1	1	1	1	0	1	-0	274,472137	321,792643	0
15.01.2021	11:25:53	0	35,367753	4,663667	2,22525	2,628	0,31	89,377	0	1015,1	7,1	9,1	8,8	1	1	1	1	1	1	1	1	1	0	1	-0	274,385611	321,387064	0
15.01.2021	11:25:54	0	35,48489	4,777356	2,12625	0,8568	0,306	89,387	0	1015	7,1	9,1	9	1	1	1	1	1	1	1	1	1	0	1	-0	274,425031	321,571792	0
15.01.2021	11:25:55	0	35,250939	4,777354	2,12025	1,1736	0,308	89,388	0	1015,24	7,1	9	9	1	1	1	1	1	1	1	1	1	0	1	-0	274,334184	321,146183	0
15.01.2021	11:25:56	0	35,250965	3,071192	2,20875	13,1508	0,305	89,38	0	1015,22	7,1	9	8,8	1	1	1	1	1	1	1	1	1	0	1	-0	274,450849	321,692823	0
15.01.2021	11:25:57	0	35,367856	4,322417	2,15925	4,464	0,31	89,374	0	1015,2	7,1	9,1	8,8	1	1	1	1	1	1	1	1	1	0	1	-0	274,517833	322,006993	0
15.01.2021	11:25:58	0	35,602106	4,549884	2,1885	358,0596	0,306	89,387	0	1015,1	7,1	9,1	8,9	1	1	1	1	1	1	1	1	1	0	1	-0	274,536141	322,092906	0
15.01.2021	11:25:59	0	35,01657	3,298684	2,32575	1,9116	0,302	89,388	0	1015,12	7,1	9,1	8,8	1	1	1	1	1	1	1	1	1	0	1	-0	274,533089	322,07858	0
15.01.2021	11:26:00	0	35,250846	4,663626	2,3325	359,352	0,3	89,385	0	1015,04	7,1	9,1	8,9	1	1	1	1	1	1	1	1	1	0	1	-0,422833	274,591172	321,928402	0
15.01.2021	11:26:01	0	35,250846	4,663626	2,3325	359,352	0,3	89,385	0	1015,04	7,1	9,1	8,9	1	1	1	1	1	1	1	1	1	0	1	-0	274,502589	321,935475	0
15.01.2021	11:26:02	0	35,602209	4,663652	2,33175	2,6388	0,303	89,385	0	1015,24	7,1	9,1	8,8	1	1	1	1	1	1	1	1	1	0	1	-0	274,434139	321,614486	0
15.01.2021	11:26:03	0	35,133784	3,071185	2,313	1,5516	0,306	89,398	0	1015,14	7,1	9,1	8,8	1	1	1	1	1	1	1	1	1	0	1	-0	274,384097	321,379968	0
15.01.2021	11:26:04	0	35,368035	2,502446	2,28075	8,964	0,303	89,402	0	1015,14	7,1	9,1	8,8	1	1	1	1	1	1	1	1	1	0	1	-0	274,412893	321,514904	0
15.01.2021	11:26:05	0	35,368061	3,071183	2,10825	22,464	0,311	89,405	0	1015,32	7,1	9,1	8,8	1	1	1	1	1	1	1	1	1	0	1	-0	274,557523	322,193261	0
15.01.2021	11:26:06	0	35,485199	3,867414	1,9875	7,1208	0,309	89,403	0	1015,12	7,1	9,1	8,8	1	1	1	1	1	1	1	1	1	0	1	-0	274,428066	321,586021	0
15.01.2021	11:26:07	0	35,250999	3,75362	1,9335	16,4592	0,313	89,405	0	1015,18	7,1	9,1	9	1	1	1	1	1	1	1	1	1	0	1	-0	274,403795	321,472266	0
15.01.2021	11:26:08	0	35,251025	4,208653	1,9785	359,928	0,31	89,402	0	1015,16	7,1	9,1	8,8	1	1	1	1	1	1	1	1	1	0	1	-0	274,531562	322,071418	0
15.01.2021	11:26:09	0	35,016824	2,161199	2,118	360	0,313	89,397	0	1015,08	7,1	9,1	8,8	1	1	1	1	1	1	1	1	1	0	1	-0	274,408343	321,493582	0
15.01.2021	11:26:10	0	35,602415	2,843683	2,3445	4,0824	0,31	89,393	0	1015,08	7,1	9,1	8,8	1	1	1	1	1	1	1	1	1	0	1	-0	274,412893	321,514904	0
15.01.2021	11:26:11	0	35,01712	2,616156	2,5035	2,286	0,305	89,403	0	1015,22	7,1	9	9	1	1	1	1	1	1	1	1	1	0	1	-0	274,429584	321,593136	0
15.01.2021	11:26:12	0	35,36824	4,777383	2,6085	4,5324	0,31	89,405	0	1015,14	7,1	9,1	8,8	1	1	1	1	1	1	1	1	1	0	1	-0	274,523933	322,03562	0
15.01.2021	11:26:13	0	35,368266	4,549887	2,487	12,4668	0,31	89,408	0	1015,24	7,1	9,1	8,8	1	1	1	1	1	1	1	1	1	0	1	-0	274,548357	322,150235	0
15.01.2021	11:26:14	0	35,368291	5,004814	2,48175	4,4532	0,306	89,403	0	1015,3	7,1	9,1	9	1	1	1	1	1	1	1	1	1	0	1	-0	274,478223	321,821188	0
15.01.2021	11:26:15	0	35,368317	3,298666	2,59575	13,1544	0,309	89,396	0	1015,22	7,1	9,1	8,8	1	1	1	1	1	1	1	1	1	0	1	-0	274,546829	322,143067	0
15.01.2021	11:26:16	0	35,251229	3,753653	2,718	359,0028	0,31	89,389	0	1015,12	7,1	9,1	8,8	1	1	1	1	1	1	1	1	1	0	1	-0	274,443252	321,657205	0
15.01.2021	11:26:17	0	35,368368	4,094844	2,919	0,4752	0,316	89,409	0	1015,2	7	9,1	9	1	1	1	1	1	1	1	1	1	0	1	-0,140944	274,559051	322,05949	0
15.01.2021	11:26:18	0	35,719735	4,777373	3,11775	3,0168	0,311	89,4	0	1015,22	7,1	9,1	8,8	1	1	1	1	1	1	1	1	1	0	1	-0	274,508685	321,964074	0
15.01.2021	11:26:19	0	35,602647	3,526155	3,25125	3,3192	0,309	89,4	0	1015	7,1	9,1	8,8	1	1	1	1	1	1	1	1	1	0	1	-0	274,546829	322,143067	0
15.01.2021	11:26:20	0	35,485559	3,753648	3,25725	9,7344	0,31	89,414	0	1015,22	7,1	9,1	8,8	1	1	1	1	1	1	1	1	1	0	1	-0	274,455409	321,714202	0
15.01.2021	11:26:21	0	35,36847	3,071165	3,408	0,1188	0,314	89,389	0	1015,08	7,1	9,1	8,8	1	1	1	1	1	1	1	1	1	0	1	-0	274,557523	322,193261	0
15.01.2021	11:26:22	0	35,368743	2,9574	3,8235	1,152	0,311	89,41	0	1015,14	7	9	8,9	1	1	1	1	1	1	1	1	1	0	1	-0	274,311538	321,040159	0
15.01.2021	11:26:23	0	35,485635	3,071163	3,7665	15,4008	0,309	89,41	0	1014,96	7,1	9,1	8,8	1	1	1	1	1	1	1	1	1	0	1	-0	274,511733	321,978378	0
15.01.2021	11:26:24	0	35,485661	2,729889	3,3615	17,6976	0,311	89,413	0	1015,14	7,1	9,1	9	1	1	1	1	1	1	1	1	1	0	1	-0	274,559051	322,200435	0
15.01.2021	11:26:25	0	35,719916	3,184908	2,973	8,2368	0,308	89,42	0	1015,22	7,1	9,1	8,8	1	1	1	1	1	1	1	1	1	0	1	-0	274,548357	322,150235	0
15.01.2021	11:26:26	0	35,954171	4,891048	2,95125	360	0,307	89,395	0	1015,14	7,1	9,1	9	1	1	1	1	1	1	1	1	1	0	1	-0	274,551412	322,164575	0
15.01.2021	11:26:27	0	35,719967	3,753639	3,1725	360	0,318	89,411	0	1015,16	7,1	9,1	8,8	1	1	1	1	1	1	1	1	1	0	1	-0	274,47518	321,806914	0
15.01.2021	11:26:28	0	35,719993	2,843665	3,417	4,0968	0,313	89,423	0	1015,22	7,1	9,1	8,8	1	1	1	1	1	1	1	1	1	0	1	-0	274,399247	321,450956	0
15.01.2021	11:26:29	0	36,071363	4,436115	3,39375	359,7588	0,312	89,398	0	1015,16	7,1	9,1	8,8	1	1	1	1	1	1	1	1	1	0	1	-0	274,443252	321,657205	0
15.01.2021	11:26:30	0	35,720044	4,322315	3,25125	12,078	0,309	89,403	0	1015,24	7,1	9,1	9	1	1	1	1	1	1	1	1	1	0	1	-0,493305	274,393186	320,929248	0
15.01.2021	11:26:31	0	36,18853	3,184863	3,19875	0	0,311	89,41	0	1015,14	7,1	9,1	9	1	1	1	1	1	1	1	1	1	0	1	-0	274,437176	321,628723	0
15.01.2021	11:26:32	0	36,071441	3,1849	3,10875	8,2476	0,312	89,378	0	1015,16	7,1	9,1	8,8	1	1	1	1	1	1	1	1	1	0	1	-0	274,402279	321,465162	0
15.01.2021	11:26:33	0	35,954352	4,322311	3,027	15,7716	0,311	89,388	0	1015,1	7,1	9,1	9	1	1	1	1	1	1	1	1	1	0	1	-1,338971	274,502589	320,596504	0
15.01.2021	11:26:34	0	35,837263	2,50239	2,85	10,7964	0,311	89,392	0	1015,1	7,1	9,1	9	1	1	1	1	1	1	1	1	1	0	1	-0	274,396216	321,436753	0
15.01.2021	11:26:35	0	36,53998	4,549798	2,65875	6,0516	0,315	89,386	0	1015,08	7,1	9,1	9	1	1	1	1	1	1	1	1	1	0	1	-2,748414	274,530036	319,315843	0
15.01.2021	11:26:36	0	36,422891	3,071112	2,748	5,2128	0,314	89,386	0	1015,3	7,1	9,1	9	1	1	1	1	1	1	1	1	1	0	1	-0	274,405311	321,479371	0
15.01.2021	11:26:37	0	36,540033	3,753626	2,7285	9,7452	0,308	89,386	0	1015,22	7,1	9,1	8,8	1	1	1	1	1	1	1	1	1	0	1	-0	274,485834	321,856884	0
15.01.2021	11:26:38	0	36,422944	3,412345	2,631	2,3868	0,314	89,384	0	1015,16	7,1	9,1	9	1	1	1	1	1	1	1	1	1	0	1	-0	274,428066	321,586021	0
15.01.2021	11:26:39	0	36,42297	3,753623	2,5485	344,6856	0,313	89,376	0	1015,22	7,1	9,1	8,8	1	1	1	1	1	1	1	1	1	0	1	-0	274,421996	321,557566	0
15.01.2021	11:26:40	0	36,891459	5,459748	2,28825	345,3228	0,311	89,379	0	1015,14	7,1	9,1	9	1	1	1	1	1	1	1	1	1	0	1	-0	274,418961	321,543342	0
15.01.2021	11:26:41	0	36,891486	2,843635	2,07675	358,7472	0,31	89,384	0	1015,18	7,1	9,1	8,9	1	1	1	1	1	1	1	1	1	0	1	-0	274,408343	321,493582	0
15.01.2021	11:26:42	0	37,24286	3,981111	1,9215	338,2956	0,31	89,374	0	1015,1	7,1	9,1	8,8	1	1	1	1	1	1	1	1	1	0	1	-2,466526	274,391671	318,948928	0
15.01.2021	11:26:43	0	37,242887	5,004764	1,9125	346,8168	0,316	89,383	0	1015,16	7,1	9,1	9	1	1	1	1	1	1	1	1	1	0	1	-0	274,406827	321,486476	0
15.01.2021	11:26:44	0	37,477146	2,843649	1,87125	353,934	0,314	89,381	0	1015,14	7,1	9,1	8,8	1	1	1	1	1	1	1	1	1	0	1	-0	274,384097	321,379968	0
15.01.2021	11:26:45	0	37,360056	4,663582	1,812	341,352	0,326	89,375	0	1015,1	7	9,1	8,8	1	1	1	1	1	1	1	1	1	0	1	-0	274,402279	321,465162	0
15.01.2021	11:26:46	0	37,711432	5,118564	1,821	341,9532	0,313	89,367	0	1015,06	7,1	9,1	8,8	1	1	1	1	1	1	1	1	1	0	1	-0	274,388641	321,401257	0
15.01.2021	11:26:47	0	37,711459	4,777268	1,90425	345,3372	0,312	89,367	0	1015,1	7,1	9,1	9	1	1	1	1	1	1	1	1	1	0	1	-0,352361	274,504112	321,590263	0
15.01.2021	11:26:48	0	37,711486	2,388633	1,98225	349,8912	0,312	89,371	0	1015,1	7,1	9,1	9	1	1	1	1	1	1	1	1	1	0	1	-0	274,555995	322,186089	0
15.01.2021	11:26:49	0	37,945746	3,75361	2,17275	356,2164	0,314	89,363	0	1015,18	7	9,1	8,8	1	1	1	1	1	1	1	1	1	0	1	-0	274,488879	321,871167	0
15.01.2021	11:26:50	0	37,828657	5,004812	2,52075	347,6268	0,315	89,371	0	1015,04	7,1	9,1	8,8	1	1	1	1	1	1	1	1	1	0	1	-1,127555	274,549884	321,02985	0
15.01.2021	11:26:51	0	37,828684	2,957352	3,1275	341,6292	0,313	89,357	0	1015,14	7,1	9,1	9	1	1	1	1	1	1	1	1	1	0	1	-0,070472	274,428066	321,515549	0
15.01.2021	11:26:52	0	37,945828	3,071132	3,98025	349,0704	0,313	89,36	0	1015,22	7,2	9,1	8,8	1	1	1	1	1	1	1	1	1	0	1	-0	274,394701	321,429653	0
15.01.2021	11:26:53	0	38,531439	4,094842	3,831	355,3668	0,315	89,37	0	1015,06	7,1	9,1	8,8	1	1	1	1	1	1	1	1	1	0	1	-0	274,438695	321,635843	0
15.01.2021	11:26:54	0	38,41435	4,208535	3,31425	349,4016	0,315	89,369	0	1015,06	7,1	9,1	9	1	1	1	1	1	1	1	1	1	0	1	-0	274,499541	321,92118	0
15.01.2021	11:26:55	0	38,531495	3,412366	3,16425	355,302	0,317	89,366	0	1015,22	7,1	9,1	8,8	1	1	1	1	1	1	1	1	1	0	1	-0	274,545302	322,135899	0
15.01.2021	11:26:56	0	38,999991	2,957382	3,1725	347,166	0,317	89,362	0	1015	7,1	9,1	8,8	1	1	1	1	1	1	1	1	1	0	1	-0	274,393186	321,422553	0
15.01.2021	11:26:57	0	38,882901	4,890995	3,32775	357,228	0,309	89,35	0	1015,14	7,1	9,1	9	1	1	1	1	1	1	1	1	1	0	1	-0	274,418961	321,543342	0
15.01.2021	11:26:58	0	39,351398	3,753598	3,2715	356,1732	0,309	89,408	0	1015,1	7,1	9,1	8,8	1	1	1	1	1	1	1	1	1	0	1	-0	274,537668	322,100069	0
15.01.2021	11:26:59	0	39,234309	3,639808	3,132	3,0204	0,312	89,349	0	1015,1	7,1	9,1	9	1	1	1	1	1	1	1	1	1	0	1	-0,422833	274,391671	320,992621	0
15.01.2021	11:27:00	0	39,4686	2,843598	3,138	6,048	0,315	89,352	0	1015,08	7,1	9,1	9	1	1	1	1	1	1	1	1	1	0	1	-1,691332	274,393186	319,731221	0
15.01.2021	11:27:01	0	39,4686	2,843598	3,138	6,048	0,315	89,352	0	1015,08	7,1	9,1	9	1	1	1	1	1	1	1	1	1	0	1	-1,691332	274,393186	319,731221	0
15.01.2021	11:27:02	0	39,702864	2,616109	3,099	5,6808	0,317	89,344	0	1014,96	7,1	9,1	9	1	1	1	1	1	1	1	1	1	0	1	-0,98661	274,539194	321,120624	0
15.01.2021	11:27:03	0	40,171363	3,639847	2,87475	351,1116	0,318	89,356	0	1015,18	7	9,1	8,8	1	1	1	1	1	1	1	1	1	0	1	-0	274,50716	321,956923	0
15.01.2021	11:27:04	0	40,054274	3,29857	2,805	358,3908	0,311	89,349	0	1015,12	7,2	9,1	9	1	1	1	1	1	1	1	1	1	0	1	-1,338971	274,381068	320,026807	0
15.01.2021	11:27:05	0	40,639892	3,298609	2,8575	353,2032	0,317	89,364	0	1015,18	7,1	9,1	8,8	1	1	1	1	1	1	1	1	1	0	1	-0,422833	274,517833	321,58416	0
15.01.2021	11:27:06	0	40,171449	2,957337	2,86725	1,9152	0,317	89,364	0	1015,2	7,1	9,1	9	1	1	1	1	1	1	1	1	1	0	1	-1,198027	274,400763	320,260032	0
15.01.2021	11:27:07	0	40,874186	3,753541	3,01125	7,488	0,308	89,35	0	1015,1	7,1	9,1	9	1	1	1	1	1	1	1	1	1	0	1	-1,057082	274,479745	320,771243	0
15.01.2021	11:27:08	0	40,757097	2,95737	3,09075	3,7584	0,314	89,357	0	1015,18	7,1	9,1	8,8	1	1	1	1	1	1	1	1	1	0	1	-1,127555	274,554467	321,051362	0
15.01.2021	11:27:09	0	41,342717	3,071077	2,98575	1,1628	0,312	89,33	0	1015,06	7,1	9,1	9	1	1	1	1	1	1	1	1	1	0	1	-3,59408	274,501065	318,334247	0
15.01.2021	11:27:10	0	41,342747	4,094817	3,0015	8,2404	0,319	89,36	0	1015,14	7,1	9,1	8,8	1	1	1	1	1	1	1	1	1	0	1	-1,409443	274,417444	320,126788	0
15.01.2021	11:27:11	0	41,694131	3,526049	2,98575	353,988	0,317	89,354	0	1015,1	7,2	9,1	9	1	1	1	1	1	1	1	1	1	0	1	-0	274,434139	321,614486	0
15.01.2021	11:27:12	0	41,694161	2,729844	3,1305	352,4328	0,317	89,359	0	1015,14	7,1	9,1	9	1	1	1	1	1	1	1	1	1	0	1	-0	274,508685	321,964074	0
15.01.2021	11:27:13	0	42,045546	4,322251	3,1365	351,036	0,321	89,329	0	1014,88	7,1	9,1	9	1	1	1	1	1	1	1	1	1	0	1	-0	274,531562	322,071418	0
15.01.2021	11:27:14	0	41,811339	2,957364	3,01575	350,6148	0,316	89,357	0	1015,16	7,1	9,1	8,8	1	1	1	1	1	1	1	1	1	0	1	-0,563777	274,405311	320,915593	0
15.01.2021	11:27:15	0	42,514081	4,435991	2,8395	359,136	0,316	89,356	0	1015,06	7,1	9,1	9	1	1	1	1	1	1	1	1	1	0	1	-0,140944	274,568223	322,102545	0
15.01.2021	11:27:16	0	42,63123	3,981016	2,66175	356,5224	0,308	89,339	0	1015,06	7,1	9,1	9	1	1	1	1	1	1	1	1	1	0	1	-0,845666	274,508685	321,118408	0
15.01.2021	11:27:17	0	42,514142	2,616096	2,475	344,6244	0,316	89,341	0	1015,22	7	9,1	9	1	1	1	1	1	1	1	1	1	0	1	-0	274,429584	321,593136	0
15.01.2021	11:27:18	0	43,099767	3,981062	2,421	351,774	0,314	89,325	0	1015,08	7,1	9,1	8,8	1	1	1	1	1	1	1	1	1	0	1	-0,98661	274,548357	321,163625	0
15.01.2021	11:27:19	0	43,216917	3,639783	2,44725	349,4052	0,319	89,338	0	1015,02	7,1	9,1	9	1	1	1	1	1	1	1	1	1	0	1	-1,479915	274,525459	320,562863	0
15.01.2021	11:27:20	0	43,099828	3,412295	2,583	352,7028	0,315	89,342	0	1015,12	7,1	9,1	9	1	1	1	1	1	1	1	1	1	0	1	-0	274,545302	322,135899	0
15.01.2021	11:27:21	0	43,451217	4,322291	2,72775	359,478	0,313	89,321	0	1015,16	7,1	9,1	8,8	1	1	1	1	1	1	1	1	1	0	1	-0	274,412893	321,514904	0
15.01.2021	11:27:22	0	43,685486	4,663467	2,75775	354,7296	0,312	89,319	0	1015,02	7	9,1	9	1	1	1	1	1	1	1	1	1	0	1	-3,59408	274,423513	317,970598	0
15.01.2021	11:27:23	0	43,802637	3,071099	2,751	352,0944	0,316	89,314	0	1014,98	7,1	9,1	8,8	1	1	1	1	1	1	1	1	1	0	1	-0	274,516308	321,999838	0
15.01.2021	11:27:24	0	43,685548	4,094798	2,64225	357,8724	0,311	89,309	0	1015,06	7,2	9,1	8,8	1	1	1	1	1	1	1	1	1	0	1	-0,422833	274,565165	321,806302	0
15.01.2021	11:27:25	0	44,388297	2,729831	2,472	360	0,317	89,324	0	1015	7	9,1	9	1	1	1	1	1	1	1	1	1	0	1	-1,338971	274,473658	320,460807	0
15.01.2021	11:27:26	0	44,505448	3,86726	2,33175	356,1084	0,315	89,298	0	1015,04	7	9,1	9	1	1	1	1	1	1	1	1	1	0	1	-0	274,559051	322,200435	0
15.01.2021	11:27:27	0	44,50548	5,345916	2,25	360	0,314	89,305	0	1014,9	7,1	9,1	9	1	1	1	1	1	1	1	1	1	0	1	-0	274,540721	322,114399	0
15.01.2021	11:27:28	0	44,505511	4,435971	2,22225	359,4744	0,315	89,3	0	1014,96	7,1	9,1	9	1	1	1	1	1	1	1	1	1	0	1	-0	274,555995	322,186089	0
15.01.2021	11:27:29	0	44,856902	2,388628	2,2365	358,3728	0,313	89,32	0	1015,12	7	9,1	8,8	1	1	1	1	1	1	1	1	1	0	1	-0	274,50716	321,956923	0
15.01.2021	11:27:30	0	44,856934	2,616084	2,2215	4,0716	0,316	89,321	0	1015,08	7,1	9,1	9	1	1	1	1	1	1	1	1	1	0	1	-0	274,396216	321,436753	0
15.01.2021	11:27:31	0	45,091206	2,957311	2,12625	351,9468	0,317	89,324	0	1015,06	7,1	9,1	9	1	1	1	1	1	1	1	1	1	0	1	-0,140944	274,508685	321,82313	0
15.01.2021	11:27:32	0	45,091238	4,549708	2,037	0,9216	0,315	89,324	0	1015,14	7,1	9,1	9	1	1	1	1	1	1	1	1	1	0	1	-0	274,405311	321,479371	0
15.01.2021	11:27:33	0	45,442631	2,616113	1,92975	356,2416	0,316	89,309	0	1015,18	7,1	9,1	8,8	1	1	1	1	1	1	1	1	1	0	1	-0	274,469094	321,778375	0
15.01.2021	11:27:34	0	45,911144	3,867249	1,7655	358,3368	0,312	89,31	0	1015,14	7,1	9,1	9	1	1	1	1	1	1	1	1	1	0	1	-0	274,566694	322,236312	0
15.01.2021	11:27:35	0	45,911177	5,118478	1,644	353,4912	0,316	89,326	0	1015,18	7	9,1	8,8	1	1	1	1	1	1	1	1	1	0	1	-0	274,543775	322,128732	0
15.01.2021	11:27:36	0	46,145451	5,004672	1,71675	357,8148	0,314	89,327	0	1015,06	7	9,1	9	1	1	1	1	1	1	1	1	1	0	1	-0,704722	274,408343	320,78886	0
15.01.2021	11:27:37	0	46,028363	4,208473	1,7835	347,2272	0,315	89,315	0	1015,02	7,1	9,1	9	1	1	1	1	1	1	1	1	1	0	1	-0	274,429584	321,593136	0
15.01.2021	11:27:38	0	46,379757	3,071047	1,9965	350,2512	0,317	89,325	0	1015,14	7,2	9,1	9	1	1	1	1	1	1	1	1	1	0	1	-0	274,420478	321,550454	0
15.01.2021	11:27:39	0	46,37979	3,29853	2,2815	353,1852	0,317	89,32	0	1015,04	7	9,1	9	1	1	1	1	1	1	1	1	1	0	1	-0	274,501065	321,928327	0
15.01.2021	11:27:40	0	46,496944	4,094726	2,412	352,0404	0,313	89,337	0	1015,16	7	9,1	9	1	1	1	1	1	1	1	1	1	0	1	-0	274,402279	321,465162	0
15.01.2021	11:27:41	0	46,731219	3,86724	2,5155	356,5656	0,31	89,317	0	1015,14	7,2	9,1	9	1	1	1	1	1	1	1	1	1	0	1	-0,352361	274,466052	321,411749	0
15.01.2021	11:27:42	0	46,49701	4,208516	2,76	355,3596	0,317	89,322	0	1015,12	7,1	9,1	8,8	1	1	1	1	1	1	1	1	1	0	1	-0,563777	274,530036	321,50048	0
15.01.2021	11:27:43	0	46,848406	4,208515	2,72175	357,6492	0,32	89,328	0	1015,2	7,1	9,1	8,8	1	1	1	1	1	1	1	1	1	0	1	-2,677942	274,565165	319,551193	0
15.01.2021	11:27:44	0	47,082682	4,890916	2,52	354,96	0,318	89,321	0	1015,14	7,1	9,1	9	1	1	1	1	1	1	1	1	1	0	1	-0	274,531562	322,071418	0
15.01.2021	11:27:45	0	46,965594	3,184781	2,72625	3,384	0,317	89,33	0	1015	7,1	9,1	9	1	1	1	1	1	1	1	1	1	0	1	-0	274,565165	322,229135	0
15.01.2021	11:27:46	0	47,316991	3,18478	2,88225	357,9696	0,316	89,332	0	1014,94	7,1	9,1	9	1	1	1	1	1	1	1	1	1	0	1	-5,567301	274,41441	315,954711	0
15.01.2021	11:27:47	0	47,317024	4,435943	2,98875	7,4988	0,316	89,319	0	1015,1	7,1	9,1	9	1	1	1	1	1	1	1	1	1	0	1	-4,016913	274,449329	317,668785	0
15.01.2021	11:27:48	0	47,317058	3,071036	2,97	15,012	0,317	89,329	0	1015,06	7,2	9,1	9	1	1	1	1	1	1	1	1	1	0	1	-0	274,405311	321,479371	0
15.01.2021	11:27:49	0	47,668456	2,843551	3,1185	10,0404	0,314	89,319	0	1015,02	7,1	9,1	9	1	1	1	1	1	1	1	1	1	0	1	-0	274,481267	321,835464	0
15.01.2021	11:27:50	0	47,317125	2,84355	3,65025	10,4508	0,311	89,341	0	1015,2	7,1	9,1	9	1	1	1	1	1	1	1	1	1	0	1	-0	274,56058	322,207609	0
15.01.2021	11:27:51	0	47,785645	3,298556	3,819	19,1448	0,319	89,327	0	1015,04	7	9,1	8,8	1	1	1	1	1	1	1	1	1	0	1	-3,030303	274,455409	318,683899	0
15.01.2021	11:27:52	0	47,902801	3,412258	3,61275	8,6832	0,314	89,327	0	1015,16	7,1	9,1	9	1	1	1	1	1	1	1	1	1	0	1	-0,352361	274,403795	321,119905	0
15.01.2021	11:27:53	0	47,902835	4,435933	3,42825	6,7968	0,309	89,343	0	1015,14	7,1	9,1	9	1	1	1	1	1	1	1	1	1	0	1	-0	274,499541	321,92118	0
15.01.2021	11:27:54	0	48,019991	4,663416	3,55875	6,0516	0,313	89,338	0	1015,04	7	9,1	9	1	1	1	1	1	1	1	1	1	0	1	-0	274,399247	321,450956	0
15.01.2021	11:27:55	0	48,254269	4,549672	3,8505	357,6024	0,313	89,33	0	1015,16	7,2	9,1	9	1	1	1	1	1	1	1	1	1	0	1	-0	274,536141	322,092906	0
15.01.2021	11:27:56	0	47,902937	3,071028	4,062	17,6976	0,312	89,335	0	1015,12	7,1	9,1	9	1	1	1	1	1	1	1	1	1	0	1	-5,003524	274,405311	316,475847	0
15.01.2021	11:27:57	0	48,488581	4,890894	3,84525	16,8336	0,314	89,348	0	1015,16	7,2	9,1	9	1	1	1	1	1	1	1	1	1	0	1	-1,973221	274,479745	319,855105	0
15.01.2021	11:27:58	0	48,371493	3,184767	3,35925	4,4532	0,314	89,343	0	1015,04	7,1	9,1	9	1	1	1	1	1	1	1	1	1	0	1	-0,211416	274,566694	322,024896	0
15.01.2021	11:27:59	0	48,722895	3,298508	2,9865	360	0,313	89,315	0	1014,92	7,2	9,1	9	1	1	1	1	1	1	1	1	1	0	1	-0	274,443252	321,657205	0
15.01.2021	11:28:00	0	48,488719	2,957281	2,6985	349,0128	0,318	89,32	0	1015,14	7,2	9,1	9	1	1	1	1	1	1	1	1	1	0	1	-2,114165	274,470615	319,671344	0
15.01.2021	11:28:01	0	48,488719	2,957281	2,6985	349,0128	0,318	89,32	0	1015,14	7,2	9,1	9	1	1	1	1	1	1	1	1	1	0	1	-0	274,568223	322,24349	0
15.01.2021	11:28:02	0	48,605875	3,525987	2,93325	358,3764	0,312	89,337	0	1015,04	7,2	9,1	9	1	1	1	1	1	1	1	1	1	0	1	-0	274,449329	321,685698	0
15.01.2021	11:28:03	0	49,0744	2,616054	3,24075	348,9804	0,318	89,347	0	1015,04	7,2	9,1	9	1	1	1	1	1	1	1	1	1	0	1	-2,818887	274,57434	319,45332	0
15.01.2021	11:28:04	0	49,074435	4,549658	3,6105	352,0944	0,315	89,342	0	1015,14	7	9,1	9	1	1	1	1	1	1	1	1	1	0	1	-0	274,459969	321,735587	0
15.01.2021	11:28:05	0	49,308715	3,071018	3,89625	358,0056	0,312	89,36	0	1015,16	7,2	9,1	9	1	1	1	1	1	1	1	1	1	0	1	-0	274,421996	321,557566	0
15.01.2021	11:28:06	0	49,191627	3,753465	4,17825	15,0156	0,314	89,347	0	1015,04	7,1	9,1	9	1	1	1	1	1	1	1	1	1	0	1	-0	274,466052	321,76411	0
15.01.2021	11:28:07	0	48,957416	2,502309	4,1175	1,9008	0,316	89,338	0	1015,04	7,1	9,1	9	1	1	1	1	1	1	1	1	1	0	1	-0	274,453888	321,707075	0
15.01.2021	11:28:08	0	49,543066	4,777135	3,93375	2,3004	0,313	89,352	0	1015,1	7,1	9,1	9	1	1	1	1	1	1	1	1	1	0	1	-2,043693	274,426549	319,535213	0
15.01.2021	11:28:09	0	49,191732	4,094685	3,705	4,824	0,318	89,348	0	1015,18	7,1	9,1	9	1	1	1	1	1	1	1	1	1	0	1	-0,845666	274,420478	320,704788	0
15.01.2021	11:28:10	0	49,426013	4,549649	3,76875	4,086	0,313	89,332	0	1014,98	7	9,1	9	1	1	1	1	1	1	1	1	1	0	1	-0	274,526985	322,049937	0
15.01.2021	11:28:11	0	49,308924	4,435906	3,5265	0,8748	0,316	89,34	0	1015,02	7	9,1	9	1	1	1	1	1	1	1	1	1	0	1	-0	274,520883	322,021305	0
15.01.2021	11:28:12	0	49,660329	4,5497	3,489	0,1224	0,324	89,343	0	1015,22	7	9,1	8,8	1	1	1	1	1	1	1	1	1	0	1	-0	274,260308	320,800395	0
15.01.2021	11:28:13	0	49,660364	4,208421	3,4005	358,6644	0,318	89,317	0	1015,14	7,1	9,1	9	1	1	1	1	1	1	1	1	1	0	1	-0	274,493448	321,892597	0
15.01.2021	11:28:14	0	49,777523	4,094678	3,3705	353,8548	0,313	89,303	0	1015,06	7,2	9,1	9	1	1	1	1	1	1	1	1	1	0	1	-1,198027	274,559051	321,002408	0
15.01.2021	11:28:15	0	50,128929	3,980936	3,44925	351,6444	0,315	89,281	0	1015,16	7,1	9,1	9	1	1	1	1	1	1	1	1	1	0	1	-2,60747	274,452369	319,092479	0
15.01.2021	11:28:16	0	49,543346	3,298528	3,31725	356,6412	0,322	89,261	0	1015,2	7	9,1	8,8	1	1	1	1	1	1	1	1	1	0	1	-0	274,56058	322,207609	0
15.01.2021	11:28:17	0	50,129	3,867192	3,2205	355,9104	0,313	89,239	0	1015,02	7,1	9,1	9	1	1	1	1	1	1	1	1	1	0	1	-0	274,455409	321,714202	0
15.01.2021	11:28:18	0	49,894787	2,616041	3,18975	350,6832	0,315	89,225	0	1015	7,1	9,1	9	1	1	1	1	1	1	1	1	1	0	1	-0,070472	274,580459	322,230463	0
15.01.2021	11:28:19	0	50,363318	3,071004	3,28575	353,5992	0,313	89,213	0	1015,06	7,1	9,1	9	1	1	1	1	1	1	1	1	1	0	1	-2,818887	274,467573	318,952356	0
15.01.2021	11:28:20	0	50,363354	3,298484	3,29025	341,2296	0,316	89,212	0	1015	7	9,1	9	1	1	1	1	1	1	1	1	1	0	1	-0,916138	274,418961	320,627204	0
15.01.2021	11:28:21	0	50,129141	3,980928	3,543	341,2188	0,318	89,23	0	1015,12	7	9,1	9	1	1	1	1	1	1	1	1	1	0	1	-0	274,482789	321,842603	0
15.01.2021	11:28:22	0	50,363425	4,890853	3,69075	344,2932	0,319	89,217	0	1015,1	7,1	9,1	9	1	1	1	1	1	1	1	1	1	0	1	-0	274,58811	322,33686	0
15.01.2021	11:28:23	0	50,597709	4,094666	3,53325	349,4052	0,312	89,192	0	1015,04	7,1	9,1	9	1	1	1	1	1	1	1	1	1	0	1	-0	274,522408	322,028462	0
15.01.2021	11:28:24	0	50,714869	2,957258	3,23625	5,7564	0,313	89,207	0	1015,14	7,1	9,1	9	1	1	1	1	1	1	1	1	1	0	1	-0	274,459969	321,735587	0
15.01.2021	11:28:25	0	50,480655	3,980922	3,1905	356,526	0,311	89,182	0	1015,08	7,1	9,1	9	1	1	1	1	1	1	1	1	1	0	1	-0	274,568223	322,24349	0
15.01.2021	11:28:26	0	50,480691	2,729774	3,01875	3,006	0,316	89,202	0	1015,22	7,1	9,1	9	1	1	1	1	1	1	1	1	1	0	1	-0	274,488879	321,871167	0
15.01.2021	11:28:27	0	51,06635	3,525957	2,76825	344,6568	0,313	89,187	0	1015,16	7,1	9,1	9	1	1	1	1	1	1	1	1	1	0	1	-3,523608	274,57587	318,75578	0
15.01.2021	11:28:28	0	50,715011	4,777159	2,6925	353,9016	0,308	89,186	0	1015,1	7,2	9,1	8,8	1	1	1	1	1	1	1	1	1	0	1	-0	274,456929	321,72133	0
15.01.2021	11:28:29	0	50,597922	3,070993	2,75775	348,2856	0,316	89,188	0	1014,98	7,1	9,1	9	1	1	1	1	1	1	1	1	1	0	1	-2,748414	274,423513	318,816264	0
15.01.2021	11:28:30	0	50,949332	4,208397	2,9355	10,422	0,31	89,185	0	1015,14	7	9,1	9	1	1	1	1	1	1	1	1	1	0	1	-3,59408	274,572811	318,670946	0
15.01.2021	11:28:31	0	50,949368	3,412212	3,0375	0,5796	0,317	89,217	0	1015,1	7,1	9,1	9	1	1	1	1	1	1	1	1	1	0	1	-0	274,511733	321,978378	0
15.01.2021	11:28:32	0	51,300779	4,549615	2,94375	359,0712	0,315	89,201	0	1015,18	7,1	9,1	9	1	1	1	1	1	1	1	1	1	0	1	-0	274,600359	322,394377	0
15.01.2021	11:28:33	0	51,41794	3,184729	2,97825	359,802	0,314	89,212	0	1015,18	7	9,1	9	1	1	1	1	1	1	1	1	1	0	1	-5,003524	274,46149	316,739193	0
15.01.2021	11:28:34	0	51,183726	3,525949	3,0525	3,7728	0,314	89,208	0	1015,22	7,1	9,1	9	1	1	1	1	1	1	1	1	1	0	1	-0	274,569752	322,250668	0
15.01.2021	11:28:35	0	51,535138	4,66335	3,1515	4,8312	0,312	89,218	0	1015,12	7,2	9,1	9	1	1	1	1	1	1	1	1	1	0	1	-4,721635	274,455409	316,992567	0
15.01.2021	11:28:36	0	51,300923	4,663349	3,38925	14,616	0,309	89,217	0	1014,98	7,1	9,1	9	1	1	1	1	1	1	1	1	1	0	1	-0	274,571281	322,257847	0
15.01.2021	11:28:37	0	51,652336	3,525945	3,56175	8,2548	0,31	89,233	0	1015,2	7,1	9,1	9	1	1	1	1	1	1	1	1	1	0	1	-2,043693	274,485834	319,813191	0
15.01.2021	11:28:38	0	51,769497	4,663346	3,579	11,1888	0,31	89,23	0	1015,12	7,1	9,1	9	1	1	1	1	1	1	1	1	1	0	1	-0	274,417444	321,536232	0
15.01.2021	11:28:39	0	51,652408	4,890824	3,57525	4,0788	0,314	89,216	0	1015,06	7,1	9,1	9	1	1	1	1	1	1	1	1	1	0	1	-1,832276	274,530036	320,231981	0
15.01.2021	11:28:40	0	51,535319	4,322122	3,528	8,6256	0,318	89,245	0	1015,14	7,1	9,1	9	1	1	1	1	1	1	1	1	1	0	1	-5,637773	274,469094	316,140602	0
15.01.2021	11:28:41	0	51,535355	3,070981	3,4425	6,4404	0,316	89,233	0	1015,18	7,1	9,1	9	1	1	1	1	1	1	1	1	1	0	1	-0	274,405311	321,479371	0
15.01.2021	11:28:42	0	51,886769	2,72976	3,2325	3,7836	0,32	89,243	0	1015,16	7,1	9,1	9	1	1	1	1	1	1	1	1	1	0	1	-0,775194	274,530036	321,289063	0
15.01.2021	11:28:43	0	51,652553	2,274799	2,9175	10,4328	0,313	89,237	0	1015,12	7,1	9,1	9	1	1	1	1	1	1	1	1	1	0	1	-0,281889	274,399247	321,169068	0
15.01.2021	11:28:44	0	52,238219	3,412197	3,04575	6,4296	0,316	89,236	0	1015,16	7,1	9,1	9	1	1	1	1	1	1	1	1	1	0	1	-2,466526	274,496494	319,440361	0
15.01.2021	11:28:45	0	52,004004	4,777074	3,09	354,6324	0,32	89,234	0	1015,1	7,1	9,1	9	1	1	1	1	1	1	1	1	1	0	1	-0	274,595765	322,372803	0
15.01.2021	11:28:46	0	52,472545	2,957236	3,01425	355,842	0,318	89,247	0	1015,18	7,1	9,1	9	1	1	1	1	1	1	1	1	1	0	1	-1,127555	274,522408	320,900908	0
15.01.2021	11:28:47	0	52,472582	4,549592	2,94675	348,9984	0,315	89,228	0	1015,1	7,1	9,1	9	1	1	1	1	1	1	1	1	1	0	1	-1,62086	274,458449	320,107598	0
15.01.2021	11:28:48	0	52,355492	4,094631	2,93775	353,9808	0,31	89,244	0	1015,2	7,1	9,1	9	1	1	1	1	1	1	1	1	1	0	1	-0	274,549884	322,157405	0
15.01.2021	11:28:49	0	52,472655	2,502274	2,9805	348,264	0,315	89,246	0	1015,16	7,1	9,1	9	1	1	1	1	1	1	1	1	1	0	1	-0	274,452369	321,699949	0
15.01.2021	11:28:50	0	52,238439	4,322108	3,0645	352,4148	0,306	89,259	0	1015,12	7,1	9,1	9	1	1	1	1	1	1	1	1	1	0	1	-0,563777	274,577399	321,722792	0
15.01.2021	11:28:51	0	52,706982	3,639668	3,12975	354,9924	0,313	89,256	0	1015,06	7,1	9,1	9	1	1	1	1	1	1	1	1	1	0	1	-0	274,488879	321,871167	0
15.01.2021	11:28:52	0	52,472765	2,616011	2,9775	0	0,318	89,265	0	1015,1	7,1	9,1	9	1	1	1	1	1	1	1	1	1	0	1	-1,127555	274,423513	320,437124	0
15.01.2021	11:28:53	0	52,589929	3,412187	2,99775	350,9676	0,313	89,266	0	1015,12	7,1	9,1	9	1	1	1	1	1	1	1	1	1	0	1	-2,466526	274,546829	319,676541	0
15.01.2021	11:28:54	0	53,058473	4,208362	3,01275	347,9796	0,315	89,266	0	1015,16	7,1	9,1	9	1	1	1	1	1	1	1	1	1	0	1	-0,634249	274,555995	321,551839	0
15.01.2021	11:28:55	0	52,941383	3,298445	3,18	358,38	0,319	89,276	0	1015,22	7,1	9,1	9	1	1	1	1	1	1	1	1	1	0	1	-0	274,526985	322,049937	0
15.01.2021	11:28:56	0	53,058547	3,070965	3,24975	354,2292	0,313	89,267	0	1015,02	7,1	9,1	9	1	1	1	1	1	1	1	1	1	0	1	-2,536998	274,580459	319,763937	0
15.01.2021	11:28:57	0	53,409965	4,663316	3,06675	343,0836	0,313	89,285	0	1014,96	7,1	9,1	9	1	1	1	1	1	1	1	1	1	0	1	-0	274,525459	322,042778	0
15.01.2021	11:28:58	0	53,410003	4,777054	2,89875	357,0768	0,316	89,279	0	1015,18	7,1	9,1	9	1	1	1	1	1	1	1	1	1	0	1	-2,677942	274,466052	319,086167	0
15.01.2021	11:28:59	0	53,175786	4,208355	2,83425	352,4508	0,312	89,288	0	1015,1	7,1	9,1	9	1	1	1	1	1	1	1	1	1	0	1	-0	274,456929	321,72133	0
15.01.2021	11:29:00	0	53,64437	2,729742	2,65275	347,5008	0,306	89,276	0	1015,1	7,1	9,1	9	1	1	1	1	1	1	1	1	1	0	1	-0	274,418961	321,543342	0
15.01.2021	11:29:01	0	53,64437	2,729742	2,65275	347,5008	0,306	89,276	0	1015,1	7,1	9,1	9	1	1	1	1	1	1	1	1	1	0	1	-0	274,455409	321,714202	0
15.01.2021	11:29:02	0	53,527279	4,435829	2,703	0	0,311	89,286	0	1015,18	7,1	9,1	9	1	1	1	1	1	1	1	1	1	0	1	-0,634249	274,397732	320,809605	0
15.01.2021	11:29:03	0	53,644444	2,843479	2,71875	350,2296	0,313	89,291	0	1015,06	7,1	9,1	9	1	1	1	1	1	1	1	1	1	0	1	-0	274,44629	321,67145	0
15.01.2021	11:29:04	0	53,527354	2,957218	2,727	349,4304	0,313	89,287	0	1015,2	7,1	9,1	9	1	1	1	1	1	1	1	1	1	0	1	-3,24172	274,425031	318,330072	0
15.01.2021	11:29:05	0	53,761647	2,616015	2,916	359,4744	0,318	89,297	0	1015,08	7,1	9,1	8,9	1	1	1	1	1	1	1	1	1	0	1	-1,057082	274,496494	320,849804	0
15.01.2021	11:29:06	0	53,410301	2,729737	2,886	4,8276	0,316	89,303	0	1015,22	7,1	9,1	9	1	1	1	1	1	1	1	1	1	0	1	-0,352361	274,58811	321,9845	0
15.01.2021	11:29:07	0	54,113106	3,412171	2,90325	351,0288	0,312	89,303	0	1015,08	7,1	9,1	9	1	1	1	1	1	1	1	1	1	0	1	-0	274,449329	321,685698	0
15.01.2021	11:29:08	0	54,113143	4,777037	2,787	352,1196	0,314	89,307	0	1015,24	7,1	9,1	9	1	1	1	1	1	1	1	1	1	0	1	-2,466526	274,431103	319,133726	0
15.01.2021	11:29:09	0	53,996053	3,867124	2,679	360	0,313	89,29	0	1015,1	7,1	9,1	9	1	1	1	1	1	1	1	1	1	0	1	-2,818887	274,525459	319,223892	0
15.01.2021	11:29:10	0	54,113219	3,412167	2,73525	358,7364	0,314	89,31	0	1015,16	7,1	9,1	9	1	1	1	1	1	1	1	1	1	0	1	-0	274,425031	321,571792	0
15.01.2021	11:29:11	0	53,761872	3,184707	2,82525	3,0204	0,312	89,286	0	1015,14	7,1	9,1	8,9	1	1	1	1	1	1	1	1	1	0	1	-0	274,539194	322,107234	0
15.01.2021	11:29:12	0	54,347551	2,843471	2,7105	4,8168	0,319	89,316	0	1015,2	7,1	9,1	9	1	1	1	1	1	1	1	1	1	0	1	-2,677942	274,432621	318,929427	0
15.01.2021	11:29:13	0	53,996203	3,75338	2,673	8,5968	0,314	89,312	0	1015,18	7,1	9,1	9	1	1	1	1	1	1	1	1	1	0	1	-1,761804	274,557523	320,431457	0
15.01.2021	11:29:14	0	53,996241	4,322073	2,5245	4,8276	0,31	89,319	0	1015,06	7,1	9,1	9	1	1	1	1	1	1	1	1	1	0	1	-0	274,580459	322,300935	0
15.01.2021	11:29:15	0	54,230536	4,094594	2,424	0,1296	0,317	89,317	0	1015,18	7,1	9,1	9	1	1	1	1	1	1	1	1	1	0	1	-0	274,20021	320,519303	0
15.01.2021	11:29:16	0	54,347702	3,184683	2,41125	352,908	0,319	89,327	0	1015,16	7,1	9,1	9	1	1	1	1	1	1	1	1	1	0	1	-0	274,432621	321,607369	0
15.01.2021	11:29:17	0	54,464869	4,322068	2,55525	358,7292	0,32	89,338	0	1015,08	7,1	9,1	9	1	1	1	1	1	1	1	1	1	0	1	-0	274,517833	322,006993	0
15.01.2021	11:29:18	0	54,933422	4,435806	2,6865	358,3548	0,316	89,344	0	1015,24	7,1	9,1	9	1	1	1	1	1	1	1	1	1	0	1	-0,281889	274,594233	322,083725	0
15.01.2021	11:29:19	0	54,582073	3,298418	2,84625	2,286	0,314	89,322	0	1015,14	7,1	9,1	9	1	1	1	1	1	1	1	1	1	0	1	-0	274,485834	321,856884	0
15.01.2021	11:29:20	0	54,347853	3,753371	2,901	8,9712	0,317	89,34	0	1015,16	7,1	9,1	9	1	1	1	1	1	1	1	1	1	0	1	-0	274,429584	321,593136	0
15.01.2021	11:29:21	0	54,46502	3,070939	2,83575	9,0432	0,314	89,336	0	1015,08	7,1	9,1	9	1	1	1	1	1	1	1	1	1	0	1	-3,030303	274,455409	318,683899	0
15.01.2021	11:29:22	0	54,582187	3,980846	2,69475	7,5204	0,315	89,332	0	1015,12	7,1	9,1	9	1	1	1	1	1	1	1	1	1	0	1	-1,479915	274,526985	320,570022	0
15.01.2021	11:29:23	0	55,050742	5,231998	2,6205	9,7236	0,314	89,349	0	1015,26	7,1	9,1	8,9	1	1	1	1	1	1	1	1	1	0	1	-2,748414	274,56058	319,459194	0
15.01.2021	11:29:24	0	54,582263	3,184674	2,56125	11,7072	0,32	89,354	0	1015,12	7,1	9,1	9	1	1	1	1	1	1	1	1	1	0	1	-3,453136	274,421996	318,10443	0
15.01.2021	11:29:25	0	54,348042	2,72972	2,55675	7,8804	0,317	89,341	0	1015,16	7	9,1	9	1	1	1	1	1	1	1	1	1	0	1	-1,691332	274,444771	319,972996	0
15.01.2021	11:29:26	0	54,816598	5,004515	2,47275	356,0832	0,318	89,363	0	1015,22	7,1	9,1	8,9	1	1	1	1	1	1	1	1	1	0	1	-5,496829	274,481267	316,338635	0
15.01.2021	11:29:27	0	54,699506	5,118222	2,39475	355,41	0,315	89,349	0	1015,08	7,1	9,1	9	1	1	1	1	1	1	1	1	1	0	1	-0,281889	274,56058	321,92572	0
15.01.2021	11:29:28	0	54,933418	3,525885	2,3205	358,3836	0,317	89,34	0	1015,14	7,1	9,2	9	1	1	1	1	1	1	1	1	1	0	1	-0,634249	274,440214	321,008714	0
15.01.2021	11:29:29	0	55,168101	4,663266	2,22525	345,6792	0,314	89,352	0	1015,14	7,1	9,1	9	1	1	1	1	1	1	1	1	1	0	1	-9,302326	274,478223	312,518862	0
15.01.2021	11:29:30	0	54,81675	2,615977	2,379	350,1576	0,317	89,344	0	1015,1	7,1	9,1	9	1	1	1	1	1	1	1	1	1	0	1	-0,563777	274,432621	321,043592	0
15.01.2021	11:29:31	0	54,816788	2,843453	2,6505	353,5236	0,322	89,359	0	1015,14	7,1	9,1	9	1	1	1	1	1	1	1	1	1	0	1	-2,466526	274,501065	319,461801	0
15.01.2021	11:29:32	0	54,699696	3,184666	2,73975	346,3992	0,319	89,353	0	1015,18	7,1	9,1	9	1	1	1	1	1	1	1	1	1	0	1	-0	274,603422	322,408763	0
15.01.2021	11:29:33	0	54,582604	3,980831	2,832	347,9508	0,312	89,354	0	1015,12	7,1	9,1	9	1	1	1	1	1	1	1	1	1	0	1	-1,127555	274,50716	320,829369	0
15.01.2021	11:29:34	0	55,051162	4,322044	2,814	346,8024	0,315	89,345	0	1015	7,1	9,1	9	1	1	1	1	1	1	1	1	1	0	1	-1,832276	274,597296	320,547718	0
15.01.2021	11:29:35	0	55,0512	4,208304	2,8065	347,9004	0,318	89,368	0	1015,16	7,1	9,1	9	1	1	1	1	1	1	1	1	1	0	1	-0,563777	274,437176	321,064946	0
15.01.2021	11:29:36	0	54,816978	2,615972	2,7915	354,24	0,316	89,368	0	1015,04	7,1	9,1	9	1	1	1	1	1	1	1	1	1	0	1	-1,62086	274,571281	320,636987	0
15.01.2021	11:29:37	0	55,168407	4,208302	2,76675	356,544	0,316	89,368	0	1015,08	7,1	9,1	9	1	1	1	1	1	1	1	1	1	0	1	-3,946441	274,543775	318,18229	0
15.01.2021	11:29:38	0	54,817053	3,070922	2,6925	2,2752	0,318	89,344	0	1015	7,1	9,1	9	1	1	1	1	1	1	1	1	1	0	1	-0	274,443252	321,657205	0
15.01.2021	11:29:39	0	54,817091	3,980823	2,7765	5,1912	0,315	89,363	0	1015,04	7,1	9,1	9	1	1	1	1	1	1	1	1	1	0	1	-3,523608	274,546829	318,619458	0
15.01.2021	11:29:40	0	54,817129	4,208297	2,70975	10,8036	0,32	89,372	0	1015,02	7,1	9,1	9	1	1	1	1	1	1	1	1	1	0	1	-0	274,423513	321,564679	0
15.01.2021	11:29:41	0	54,934298	3,298394	2,72925	11,1816	0,318	89,366	0	1015,14	7,1	9,1	9	1	1	1	1	1	1	1	1	1	0	1	-0	274,517833	322,006993	0
15.01.2021	11:29:42	0	55,051467	3,980819	2,709	347,2344	0,317	89,384	0	1015,04	7,1	9,1	9	1	1	1	1	1	1	1	1	1	0	1	-0,704722	274,581989	321,603397	0
15.01.2021	11:29:43	0	55,285766	2,843441	2,676	360	0,328	89,363	0	1015,18	7,1	9,1	9	1	1	1	1	1	1	1	1	1	0	1	-1,127555	274,501065	320,800772	0
15.01.2021	11:29:44	0	55,168674	3,298391	2,6055	348,9804	0,321	89,385	0	1015,08	7,1	9,1	9	1	1	1	1	1	1	1	1	1	0	1	-2,536998	274,594233	319,828615	0
15.01.2021	11:29:45	0	55,168712	4,208316	2,7045	358,308	0,317	89,371	0	1015,14	7,1	9,1	8,9	1	1	1	1	1	1	1	1	1	0	1	-0	274,469094	321,778375	0
15.01.2021	11:29:46	0	54,934488	4,663239	2,8785	0,8532	0,311	89,38	0	1015,08	7,1	9,1	9	1	1	1	1	1	1	1	1	1	0	1	-0,493305	274,58658	321,836369	0
15.01.2021	11:29:47	0	55,168788	3,070912	2,958	357,6744	0,317	89,373	0	1015,02	7,1	9,1	9	1	1	1	1	1	1	1	1	1	0	1	-4,298802	274,458449	317,429656	0
15.01.2021	11:29:48	0	55,051695	4,094549	3,00825	1,8936	0,323	89,375	0	1015,22	7,1	9,1	9	1	1	1	1	1	1	1	1	1	0	1	-5,919662	274,444771	315,744666	0
15.01.2021	11:29:49	0	55,285996	3,412123	3,01125	358,4196	0,322	89,395	0	1015,26	7,1	9,1	9	1	1	1	1	1	1	1	1	1	0	1	-5,426357	274,505636	316,523417	0
15.01.2021	11:29:50	0	55,168902	3,753334	3,0165	3,3768	0,315	89,389	0	1015,14	7,1	9,1	9	1	1	1	1	1	1	1	1	1	0	1	-4,721635	274,458449	317,006823	0
15.01.2021	11:29:51	0	55,403592	3,86707	3,159	360	0,316	89,392	0	1015,1	7,1	9	9	1	1	1	1	1	1	1	1	1	0	1	-1,550388	274,551412	320,614187	0
15.01.2021	11:29:52	0	54,817584	4,094568	3,2445	359,8452	0,318	89,391	0	1015,04	7,1	9,1	8,9	1	1	1	1	1	1	1	1	1	0	1	-2,255109	274,595765	320,117694	0
15.01.2021	11:29:53	0	55,169017	3,639593	3,29325	357,2568	0,322	89,399	0	1015,18	7,1	9,1	9	1	1	1	1	1	1	1	1	1	0	1	-3,805497	274,631013	318,732866	0
15.01.2021	11:29:54	0	55,286186	2,843431	3,39825	353,9088	0,313	89,386	0	1015,1	7,1	9,1	9	1	1	1	1	1	1	1	1	1	0	1	-0	274,591172	322,351235	0
15.01.2021	11:29:55	0	55,051961	3,412116	3,3225	353,5668	0,326	89,393	0	1015,26	7,1	9,1	9	1	1	1	1	1	1	1	1	1	0	1	-3,946441	274,46149	317,796275	0
15.01.2021	11:29:56	0	55,403395	3,867087	3,06825	351,7416	0,324	89,408	0	1015,08	7,1	9,1	8,9	1	1	1	1	1	1	1	1	1	0	1	-3,523608	274,592702	318,834816	0
15.01.2021	11:29:57	0	55,169169	3,525872	2,8995	350,5716	0,324	89,402	0	1015,26	7,1	9,1	8,9	1	1	1	1	1	1	1	1	1	0	1	-0,352361	274,585049	321,970127	0
15.01.2021	11:29:58	0	55,286339	4,322009	2,97075	347,922	0,313	89,405	0	1014,96	7,1	9,1	9	1	1	1	1	1	1	1	1	1	0	1	-4,016913	274,578929	318,276838	0
15.01.2021	11:29:59	0	55,286377	4,435745	3,14925	350,1936	0,323	89,415	0	1015,06	7,1	9,1	9	1	1	1	1	1	1	1	1	1	0	1	-5,003524	274,569752	317,247144	0
15.01.2021	11:30:00	0	55,403585	4,435742	3,28875	348,5664	0,322	89,406	0	1015,18	7,1	9,1	9	1	1	1	1	1	1	1	1	1	0	1	-1,479915	274,467573	320,291327	0
15.01.2021	11:30:01	0	55,403585	4,435742	3,28875	348,5664	0,322	89,406	0	1015,18	7,1	9,1	9	1	1	1	1	1	1	1	1	1	0	1	-6,412967	274,444771	315,251361	0
15.01.2021	11:30:02	0	55,052226	3,412108	3,2925	350,91	0,32	89,413	0	1015,16	7,1	9,1	9	1	1	1	1	1	1	1	1	1	0	1	-0,493305	274,510209	321,477921	0
15.01.2021	11:30:03	0	55,286529	2,502212	3,25125	332,3988	0,323	89,42	0	1015,06	7,1	9,1	9	1	1	1	1	1	1	1	1	1	0	1	-0	274,44629	321,67145	0
15.01.2021	11:30:04	0	55,520832	4,435764	3,0615	357,2244	0,323	89,4	0	1015,12	7,1	9,1	8,9	1	1	1	1	1	1	1	1	1	0	1	-0	274,484312	321,849743	0
15.01.2021	11:30:05	0	55,286993	2,957175	3,0315	355,734	0,322	89,419	0	1015,14	7,1	9	8,9	1	1	1	1	1	1	1	1	1	0	1	-1,268499	274,431103	320,331753	0
15.01.2021	11:30:06	0	55,287031	4,663208	2,8665	344,646	0,321	89,433	0	1015,14	7,1	9	9	1	1	1	1	1	1	1	1	1	0	1	-0,634249	274,479745	321,194076	0
15.01.2021	11:30:07	0	55,286681	4,776943	2,772	4,8132	0,324	89,44	0	1015,14	7,1	9,1	9	1	1	1	1	1	1	1	1	1	0	1	-2,748414	274,611082	319,696326	0
15.01.2021	11:30:08	0	55,520985	3,867048	2,7615	347,2344	0,319	89,403	0	1015,08	7,1	9,1	9	1	1	1	1	1	1	1	1	1	0	1	-1,198027	274,523933	320,837593	0
15.01.2021	11:30:09	0	55,169624	3,75331	2,58525	2,6424	0,325	89,439	0	1015,18	7,1	9,1	9	1	1	1	1	1	1	1	1	1	0	1	-1,338971	274,456929	320,382359	0
15.01.2021	11:30:10	0	55,521061	4,094543	2,5815	359,118	0,32	89,42	0	1015,18	7,1	9,1	8,9	1	1	1	1	1	1	1	1	1	0	1	-0	274,517833	322,006993	0
15.01.2021	11:30:11	0	55,5211	3,298381	2,5965	351,2808	0,327	89,439	0	1015,28	7,1	9,1	8,9	1	1	1	1	1	1	1	1	1	0	1	-1,832276	274,440214	319,810687	0
15.01.2021	11:30:12	0	55,404004	4,322015	2,58075	2,2932	0,329	89,444	0	1015,22	7,1	9,1	8,9	1	1	1	1	1	1	1	1	1	0	1	-0,281889	274,482789	321,560715	0
15.01.2021	11:30:13	0	55,169776	4,208251	2,5665	352,4544	0,327	89,441	0	1015,16	7,1	9,1	9	1	1	1	1	1	1	1	1	1	0	1	-0	274,608018	322,430348	0
15.01.2021	11:30:14	0	55,521214	4,890698	2,6625	354,3264	0,323	89,419	0	1014,96	7,1	9,1	8,9	1	1	1	1	1	1	1	1	1	0	1	-0	274,61568	322,466335	0
15.01.2021	11:30:15	0	55,638385	3,412114	2,67675	354,654	0,324	89,455	0	1015,2	7,1	9,1	8,9	1	1	1	1	1	1	1	1	1	0	1	-0	274,555995	322,186089	0
15.01.2021	11:30:16	0	55,404157	4,776958	2,7495	357,2316	0,329	89,436	0	1015,06	7,1	9,1	8,9	1	1	1	1	1	1	1	1	1	0	1	-0,775194	274,620279	321,712742	0
15.01.2021	11:30:17	0	55,404583	3,525848	2,76525	345,3444	0,327	89,454	0	1015,12	7,1	9	8,9	1	1	1	1	1	1	1	1	1	0	1	-0,211416	274,511733	321,766961	0
15.01.2021	11:30:18	0	55,404621	4,549453	2,8575	4,8276	0,331	89,443	0	1015,14	7,1	9	9	1	1	1	1	1	1	1	1	1	0	1	-5,919662	274,61568	316,546673	0
15.01.2021	11:30:19	0	55,755672	4,89069	2,829	356,1552	0,331	89,436	0	1015,16	7,1	9,1	8,9	1	1	1	1	1	1	1	1	1	0	1	-2,255109	274,606486	320,168043	0
15.01.2021	11:30:20	0	55,521442	4,208267	2,80125	352,0332	0,329	89,461	0	1015,14	7,1	9,1	8,9	1	1	1	1	1	1	1	1	1	0	1	-1,550388	274,520883	320,470918	0
15.01.2021	11:30:21	0	55,404347	4,322002	2,91975	356,184	0,335	89,465	0	1015,14	7,1	9,1	8,9	1	1	1	1	1	1	1	1	1	0	1	-0	274,438695	321,635843	0
15.01.2021	11:30:22	0	55,521908	2,957158	2,9205	351,2808	0,325	89,445	0	1015,1	7,1	9	8,9	1	1	1	1	1	1	1	1	1	0	1	-1,550388	274,511733	320,42799	0
15.01.2021	11:30:23	0	55,404423	4,890683	2,8965	354,3516	0,331	89,441	0	1015,12	7,1	9,1	8,9	1	1	1	1	1	1	1	1	1	0	1	-2,677942	274,608018	319,752405	0
15.01.2021	11:30:24	0	55,521595	2,84342	3,05175	359,0712	0,33	89,447	0	1015,12	7,1	9,1	8,9	1	1	1	1	1	1	1	1	1	0	1	-2,60747	274,565165	319,621665	0
15.01.2021	11:30:25	0	55,638377	3,753313	3,3165	342,3492	0,33	89,454	0	1015,2	7,1	9,2	8,9	1	1	1	1	1	1	1	1	1	0	1	-1,62086	274,57434	320,651347	0
15.01.2021	11:30:26	0	55,053133	2,502208	3,59625	347,94	0,327	89,441	0	1015,18	7,1	9,1	8,9	1	1	1	1	1	1	1	1	1	0	1	-4,016913	274,478223	317,804275	0
15.01.2021	11:30:27	0	55,521709	2,72968	4,19925	339,6564	0,328	89,435	0	1015,1	7,1	9,1	8,9	1	1	1	1	1	1	1	1	1	0	1	-1,973221	274,493448	319,919376	0
15.01.2021	11:30:28	0	55,287478	2,843416	4,16475	344,2752	0,332	89,447	0	1015,12	7,1	9,1	8,9	1	1	1	1	1	1	1	1	1	0	1	-0,916138	274,450849	320,776685	0
15.01.2021	11:30:29	0	55,40465	4,208254	4,14675	352,0548	0,335	89,443	0	1015,08	7,1	9,1	8,9	1	1	1	1	1	1	1	1	1	0	1	-0	274,449329	321,685698	0
15.01.2021	11:30:30	0	55,638568	2,729677	4,041	349,4088	0,334	89,438	0	1015,18	7,2	9,2	8,9	1	1	1	1	1	1	1	1	1	0	1	-0	274,559051	322,200435	0
15.01.2021	11:30:31	0	55,638995	4,208251	4,341	5,67	0,332	89,428	0	1015,18	7,1	9,1	8,9	1	1	1	1	1	1	1	1	1	0	1	-2,114165	274,61568	320,35217	0
15.01.2021	11:30:32	0	55,639034	4,435723	4,30875	1,5408	0,328	89,426	0	1015,06	7,1	9,1	8,9	1	1	1	1	1	1	1	1	1	0	1	-0,493305	274,494971	321,406436	0
15.01.2021	11:30:33	0	55,756597	4,435695	3,8955	353,2464	0,327	89,417	0	1015,12	7,1	9	9	1	1	1	1	1	1	1	1	1	0	1	-0	274,621812	322,495138	0
15.01.2021	11:30:34	0	55,87338	5,004402	3,82575	0,4932	0,334	89,408	0	1015,14	7,1	9,1	8,9	1	1	1	1	1	1	1	1	1	0	1	-4,016913	274,580459	318,284021	0
15.01.2021	11:30:35	0	55,522013	2,729673	3,95325	341,2476	0,332	89,419	0	1015,18	7,1	9,1	8,9	1	1	1	1	1	1	1	1	1	0	1	-0	274,624879	322,509543	0
15.01.2021	11:30:36	0	55,75593	3,070881	4,46325	346,0896	0,328	89,408	0	1015,16	7,1	9,2	8,9	1	1	1	1	1	1	1	1	1	0	1	-0	274,542248	322,121565	0
15.01.2021	11:30:37	0	55,522088	4,094507	4,49925	344,0052	0,328	89,394	0	1015,12	7,1	9,1	8,9	1	1	1	1	1	1	1	1	1	0	1	-2,114165	274,60189	320,287405	0
15.01.2021	11:30:38	0	55,288243	3,184615	4,2555	338,382	0,33	89,404	0	1015,14	7,1	9	8,9	1	1	1	1	1	1	1	1	1	0	1	-3,171247	274,46149	318,571469	0
15.01.2021	11:30:39	0	55,756435	2,957142	3,84525	334,1664	0,331	89,391	0	1015,1	7,1	9,1	8,9	1	1	1	1	1	1	1	1	1	0	1	-1,62086	274,566694	320,615452	0
15.01.2021	11:30:40	0	55,756083	4,663183	3,63225	350,2692	0,327	89,394	0	1015,14	7,1	9,2	8,9	1	1	1	1	1	1	1	1	1	0	1	-0	274,638685	322,574402	0
15.01.2021	11:30:41	0	55,756902	2,50218	3,76725	348,7176	0,325	89,378	0	1015,08	7,1	9	9	1	1	1	1	1	1	1	1	1	0	1	-1,62086	274,46149	320,121857	0
15.01.2021	11:30:42	0	55,639414	4,66318	3,83625	353,9628	0,326	89,376	0	1015,1	7,1	9,1	8,9	1	1	1	1	1	1	1	1	1	0	1	-0	274,488879	321,871167	0
15.01.2021	11:30:43	0	55,639841	3,75329	3,825	4,4568	0,332	89,382	0	1015,2	7,2	9	8,9	1	1	1	1	1	1	1	1	1	0	1	-3,100775	274,623345	319,401565	0
15.01.2021	11:30:44	0	55,873761	5,118121	3,76425	8,226	0,327	89,38	0	1015,18	7,1	9,1	8,9	1	1	1	1	1	1	1	1	1	0	1	-2,184637	274,554467	319,99428	0
15.01.2021	11:30:45	0	55,288507	3,41208	3,7335	4,4604	0,328	89,397	0	1015,04	7,1	9	8,9	1	1	1	1	1	1	1	1	1	0	1	-0	274,455409	321,714202	0
15.01.2021	11:30:46	0	56,108109	4,663174	3,48975	14,2956	0,326	89,376	0	1015,14	7,1	9,1	8,9	1	1	1	1	1	1	1	1	1	0	1	-0,98661	274,594233	321,379003	0
15.01.2021	11:30:47	0	55,288195	2,957134	3,37125	15,0084	0,333	89,372	0	1015,08	7,1	9,1	8,9	1	1	1	1	1	1	1	1	1	0	1	-3,946441	274,476701	317,86761	0
15.01.2021	11:30:48	0	55,640031	5,23185	3,357	11,196	0,327	89,382	0	1015,16	7,2	9	8,9	1	1	1	1	1	1	1	1	1	0	1	-0	274,595765	322,372803	0
15.01.2021	11:30:49	0	55,639679	4,208226	3,228	11,214	0,328	89,393	0	1015,16	7,1	9,1	8,9	1	1	1	1	1	1	1	1	1	0	1	-0,634249	274,571281	321,623597	0
15.01.2021	11:30:50	0	55,52297	2,957131	3,10875	19,5192	0,329	89,392	0	1015,02	7,2	9	8,9	1	1	1	1	1	1	1	1	1	0	1	-1,62086	274,464531	320,136118	0
15.01.2021	11:30:51	0	55,756891	2,95713	3,051	19,2276	0,329	89,39	0	1015,22	7,2	9,1	8,9	1	1	1	1	1	1	1	1	1	0	1	-0	274,539194	322,107234	0
15.01.2021	11:30:52	0	55,522656	4,321958	3,117	13,1508	0,334	89,392	0	1015,2	7,1	9,1	8,9	1	1	1	1	1	1	1	1	1	0	1	-0,98661	274,470615	320,798899	0
15.01.2021	11:30:53	0	55,756577	2,843392	3,15975	10,4472	0,334	89,387	0	1015,22	7,1	9,2	8,9	1	1	1	1	1	1	1	1	1	0	1	-3,453136	274,57434	318,819071	0
15.01.2021	11:30:54	0	55,639868	4,549426	3,53625	6,4404	0,336	89,382	0	1015,18	7,1	9,1	8,9	1	1	1	1	1	1	1	1	1	0	1	-0,422833	274,472137	321,36981	0
15.01.2021	11:30:55	0	55,991316	2,957126	3,69225	5,7672	0,334	89,387	0	1015,24	7,1	9,1	8,9	1	1	1	1	1	1	1	1	1	0	1	-0	274,543775	322,128732	0
15.01.2021	11:30:56	0	55,522807	3,525803	3,798	7,128	0,331	89,39	0	1015,14	7,1	9,1	8,9	1	1	1	1	1	1	1	1	1	0	1	-6,342495	274,470615	315,443014	0
15.01.2021	11:30:57	0	55,874256	2,729653	3,8265	9,3708	0,333	89,388	0	1015,2	7,1	9,1	8,9	1	1	1	1	1	1	1	1	1	0	1	-1,691332	274,504112	320,251292	0
15.01.2021	11:30:58	0	55,873902	4,321949	3,798	9,7524	0,333	89,389	0	1015,24	7,1	9,2	8,9	1	1	1	1	1	1	1	1	1	0	1	-7,047216	274,577399	315,239353	0
15.01.2021	11:30:59	0	55,874332	3,75327	3,759	7,218	0,334	89,394	0	1015,12	7,1	9,1	8,9	1	1	1	1	1	1	1	1	1	0	1	-0	274,453888	321,707075	0
15.01.2021	11:31:00	0	55,874407	4,890622	3,624	3,0312	0,335	89,384	0	1015,16	7,1	9,1	8,9	1	1	1	1	1	1	1	1	1	0	1	-0	274,589641	322,344048	0
15.01.2021	11:31:01	0	55,874407	4,890622	3,624	3,0312	0,335	89,384	0	1015,16	7,1	9,1	8,9	1	1	1	1	1	1	1	1	1	0	1	-0	274,589641	322,344048	0
15.01.2021	11:31:02	0	55,640171	2,843384	3,60225	3,762	0,331	89,37	0	1015,2	7,2	9,1	8,9	1	1	1	1	1	1	1	1	1	0	1	-3,59408	274,466052	318,170029	0
15.01.2021	11:31:03	0	56,109151	4,663148	3,582	15,0264	0,331	89,439	0	1015,2	7,1	9	8,9	1	1	1	1	1	1	1	1	1	0	1	-2,043693	274,536141	320,049213	0
15.01.2021	11:31:04	0	55,874913	4,549411	3,63525	8,9964	0,33	89,384	0	1015,14	7,2	9	8,9	1	1	1	1	1	1	1	1	1	0	1	-0,98661	274,632547	321,558959	0
15.01.2021	11:31:05	0	55,991697	2,843381	3,53475	10,0404	0,333	89,388	0	1015,14	7,1	9,1	8,9	1	1	1	1	1	1	1	1	1	0	1	-0,775194	274,487357	321,088831	0
15.01.2021	11:31:06	0	55,991735	4,776879	3,363	19,908	0,334	89,39	0	1015,2	7,1	9,1	8,9	1	1	1	1	1	1	1	1	1	0	1	-4,510218	274,580459	317,790716	0
15.01.2021	11:31:07	0	55,991773	3,184585	3,42975	9,7344	0,334	89,387	0	1015,18	7,2	9,1	8,9	1	1	1	1	1	1	1	1	1	0	1	-2,677942	274,46149	319,064774	0
15.01.2021	11:31:08	0	56,22648	3,412054	3,52725	19,1376	0,334	89,389	0	1015,02	7,2	9	8,9	1	1	1	1	1	1	1	1	1	0	1	-2,959831	274,514783	319,032853	0
15.01.2021	11:31:09	0	56,343657	4,435669	3,495	15,4008	0,333	89,38	0	1015,18	7,2	9	8,9	1	1	1	1	1	1	1	1	1	0	1	-0	274,572811	322,265026	0
15.01.2021	11:31:10	0	56,226162	3,298317	3,5985	10,8072	0,334	89,379	0	1015,16	7,1	9,1	8,9	1	1	1	1	1	1	1	1	1	0	1	-2,466526	274,635616	320,093458	0
15.01.2021	11:31:11	0	56,577614	4,776871	3,801	12,0852	0,339	89,381	0	1015,22	7,1	9,1	8,9	1	1	1	1	1	1	1	1	1	0	1	-5,496829	274,618746	316,983906	0
15.01.2021	11:31:12	0	56,109494	4,094459	3,91275	7,8804	0,328	89,377	0	1015,14	7,2	9	8,9	1	1	1	1	1	1	1	1	1	0	1	-6,060606	274,488879	315,810561	0
15.01.2021	11:31:13	0	56,460553	3,184579	4,137	7,8768	0,332	89,367	0	1015,18	7,2	9,1	8,9	1	1	1	1	1	1	1	1	1	0	1	-6,553911	274,585049	315,768577	0
15.01.2021	11:31:14	0	56,343058	3,753252	4,01925	5,2164	0,326	89,37	0	1015,14	7,1	9,2	8,9	1	1	1	1	1	1	1	1	1	0	1	-0,775194	274,44781	320,90338	0
15.01.2021	11:31:15	0	56,460629	2,388432	3,90825	3,7656	0,338	89,367	0	1015,24	7,1	9,1	8,9	1	1	1	1	1	1	1	1	1	0	1	-0	274,511733	321,978378	0
15.01.2021	11:31:16	0	56,343529	3,184575	3,77175	10,0728	0,339	89,365	0	1015,16	7,2	9,1	8,9	1	1	1	1	1	1	1	1	1	0	1	-2,677942	274,58811	319,658918	0
15.01.2021	11:31:17	0	56,226429	2,502166	3,67125	14,328	0,333	89,362	0	1015,44	7,1	9,1	8,9	1	1	1	1	1	1	1	1	1	0	1	-3,805497	274,456929	317,915833	0
15.01.2021	11:31:18	0	56,226467	2,843369	3,66075	12,9132	0,328	89,341	0	1015,2	7,1	9,1	8,9	1	1	1	1	1	1	1	1	1	0	1	-2,536998	274,484312	319,312745	0
15.01.2021	11:31:19	0	56,577921	3,525776	3,5145	5,2344	0,336	89,326	0	1015,22	7,2	9,1	8,9	1	1	1	1	1	1	1	1	1	0	1	-1,127555	274,606486	321,295597	0
15.01.2021	11:31:20	0	56,46082	3,070837	3,579	5,6844	0,334	89,333	0	1015,2	7,1	9,1	8,9	1	1	1	1	1	1	1	1	1	0	1	-3,664553	274,631013	318,87381	0
15.01.2021	11:31:21	0	56,929812	4,321891	3,70575	9	0,334	89,338	0	1015,12	7,1	9	9	1	1	1	1	1	1	1	1	1	0	1	-2,396054	274,577399	319,890516	0
15.01.2021	11:31:22	0	56,695174	3,639508	3,66075	1,5516	0,335	89,315	0	1015,02	7,2	9,1	8,9	1	1	1	1	1	1	1	1	1	0	1	-4,933051	274,631013	317,605311	0
15.01.2021	11:31:23	0	57,047029	5,23179	3,44625	357,66	0,334	89,303	0	1015,06	7,2	9	8,9	1	1	1	1	1	1	1	1	1	0	1	-1,198027	274,577399	321,088543	0
15.01.2021	11:31:24	0	57,046668	2,957098	3,53325	346,9176	0,34	89,302	0	1015,16	7,2	9,1	8,9	1	1	1	1	1	1	1	1	1	0	1	-1,62086	274,482789	320,221744	0
15.01.2021	11:31:25	0	57,047106	3,753216	3,693	355,8492	0,33	89,282	0	1015,12	7,1	9	9	1	1	1	1	1	1	1	1	1	0	1	-3,030303	274,60189	319,371267	0
15.01.2021	11:31:26	0	56,812467	2,274689	3,66375	5,2056	0,326	89,279	0	1015,16	7,2	9,1	8,9	1	1	1	1	1	1	1	1	1	0	1	-3,382664	274,46149	318,360053	0
15.01.2021	11:31:27	0	57,398201	3,980705	3,70725	356,1624	0,331	89,272	0	1015,22	7,1	9,1	8,9	1	1	1	1	1	1	1	1	1	0	1	-0,352361	274,58811	321,9845	0
15.01.2021	11:31:28	0	57,632115	4,094438	3,7125	351,3528	0,33	89,273	0	1015,1	7,2	9,2	8,9	1	1	1	1	1	1	1	1	1	0	1	-3,664553	274,626412	318,852195	0
15.01.2021	11:31:29	0	57,164	5,004311	3,63225	359,8992	0,334	89,282	0	1015,22	7,1	9,1	8,9	1	1	1	1	1	1	1	1	1	0	1	-0,211416	274,638685	322,362986	0
15.01.2021	11:31:30	0	57,398719	3,866967	3,5055	351,738	0,326	89,264	0	1014,92	7,1	9	8,9	1	1	1	1	1	1	1	1	1	0	1	-0	274,60955	322,437544	0
15.01.2021	11:31:31	0	57,281216	3,18456	3,32025	358,7292	0,326	89,281	0	1015,2	7,2	9,1	8,9	1	1	1	1	1	1	1	1	1	0	1	-2,184637	274,634082	320,368139	0
15.01.2021	11:31:32	0	57,749813	4,890572	3,22425	2,6424	0,336	89,274	0	1015,04	7,1	9,1	8,9	1	1	1	1	1	1	1	1	1	0	1	-2,959831	274,611082	319,48491	0
15.01.2021	11:31:33	0	57,281294	2,729604	3,53475	10,4328	0,323	89,261	0	1015,1	7,1	9,1	9	1	1	1	1	1	1	1	1	1	0	1	-2,818887	274,514783	319,173798	0
15.01.2021	11:31:34	0	57,164193	3,412025	3,68025	14,6448	0,324	89,275	0	1015,22	7,1	9,1	8,9	1	1	1	1	1	1	1	1	1	0	1	-2,114165	274,467573	319,657077	0
15.01.2021	11:31:35	0	57,515651	3,412024	3,63975	3,7656	0,33	89,286	0	1015,1	7,2	9,1	8,9	1	1	1	1	1	1	1	1	1	0	1	-0	274,581989	322,308119	0
15.01.2021	11:31:36	0	57,750374	3,753225	3,666	19,8936	0,334	89,274	0	1015,12	7,2	9	8,9	1	1	1	1	1	1	1	1	1	0	1	-1,268499	274,618746	321,212236	0
15.01.2021	11:31:37	0	57,632868	3,412022	3,60375	22,824	0,329	89,273	0	1015,18	7,2	9,1	8,9	1	1	1	1	1	1	1	1	1	0	1	-1,268499	274,647894	321,349173	0
15.01.2021	11:31:38	0	58,101467	4,776829	3,405	359,1468	0,328	89,271	0	1015,1	7,2	9,1	8,9	1	1	1	1	1	1	1	1	1	0	1	-2,677942	274,569752	319,572726	0
15.01.2021	11:31:39	0	57,867631	4,321891	3,27525	7,8804	0,328	89,274	0	1015,16	7,2	9	8,9	1	1	1	1	1	1	1	1	1	0	1	-0	274,627946	322,523951	0
15.01.2021	11:31:40	0	57,867265	2,729615	3,3375	21,3696	0,335	89,274	0	1015,22	7,2	9,1	8,9	1	1	1	1	1	1	1	1	1	0	1	-2,255109	274,501065	319,673218	0
15.01.2021	11:31:41	0	57,750164	4,435622	3,18075	16,56	0,328	89,269	0	1015,22	7,1	9,1	8,9	1	1	1	1	1	1	1	1	1	0	1	-0,211416	274,58658	322,118257	0
15.01.2021	11:31:42	0	57,633062	2,957081	3,0555	6,4224	0,333	89,284	0	1015,1	7,2	9,1	8,9	1	1	1	1	1	1	1	1	1	0	1	-0,634249	274,478223	321,186938	0
15.01.2021	11:31:43	0	57,750241	2,502144	3,17025	17,6796	0,335	89,266	0	1015,14	7,2	9,1	8,9	1	1	1	1	1	1	1	1	1	0	1	-4,721635	274,534615	317,364108	0
15.01.2021	11:31:44	0	57,867826	3,070812	3,216	4,4604	0,332	89,268	0	1015,12	7,1	9	8,9	1	1	1	1	1	1	1	1	1	0	1	-0,916138	274,484312	320,933605	0
15.01.2021	11:31:45	0	58,218881	2,957078	3,35625	10,4256	0,328	89,259	0	1015,14	7,2	9,1	8,9	1	1	1	1	1	1	1	1	1	0	1	-3,59408	274,603422	318,814683	0
15.01.2021	11:31:46	0	58,218921	4,549349	3,53925	7,506	0,332	89,264	0	1015,28	7,2	9,1	8,9	1	1	1	1	1	1	1	1	1	0	1	-2,536998	274,63715	320,030195	0
15.01.2021	11:31:47	0	58,805075	4,776815	3,62325	15,3936	0,328	89,278	0	1015,16	7,2	9	8,9	1	1	1	1	1	1	1	1	1	0	1	-6,131078	274,612615	316,32086	0
15.01.2021	11:31:48	0	58,687562	4,776785	3,33075	21,7656	0,333	89,253	0	1015,36	7,2	9,1	9	1	1	1	1	1	1	1	1	1	0	1	-0	274,501065	321,928327	0
15.01.2021	11:31:49	0	58,219038	2,502139	3,23325	16,092	0,333	89,26	0	1015,14	7,2	9,1	8,9	1	1	1	1	1	1	1	1	1	0	1	-5,84919	274,46149	315,893527	0
15.01.2021	11:31:50	0	58,5705	4,435583	3,0675	7,4988	0,327	89,269	0	1015,22	7,2	9,1	9	1	1	1	1	1	1	1	1	1	0	1	-0,98661	274,536141	321,106295	0
15.01.2021	11:31:51	0	58,570539	3,639473	2,811	11,7252	0,331	89,265	0	1015,2	7,2	9,1	8,9	1	1	1	1	1	1	1	1	1	0	1	-0	274,623345	322,50234	0
15.01.2021	11:31:52	0	58,68772	4,321873	2,6385	4,8276	0,336	89,252	0	1015,18	7,2	9,1	8,9	1	1	1	1	1	1	1	1	1	0	1	-1,409443	274,537668	320,690626	0
15.01.2021	11:31:53	0	58,570618	4,208113	2,57775	4,0824	0,335	89,257	0	1015,2	7,2	9,1	9	1	1	1	1	1	1	1	1	1	0	1	-0,916138	274,626412	321,600609	0
15.01.2021	11:31:54	0	59,039223	4,208137	2,52375	2,6424	0,324	89,243	0	1015,06	7,2	9,1	8,9	1	1	1	1	1	1	1	1	1	0	1	-0,352361	274,568223	321,891129	0
15.01.2021	11:31:55	0	59,039262	4,776802	2,61375	6,066	0,334	89,22	0	1015,06	7,2	9,1	8,9	1	1	1	1	1	1	1	1	1	0	1	-2,677942	274,484312	319,171801	0
15.01.2021	11:31:56	0	58,805019	2,502119	2,83425	10,0548	0,335	89,237	0	1015,14	7,2	9,1	9	1	1	1	1	1	1	1	1	1	0	1	-4,087385	274,650965	318,544716	0
15.01.2021	11:31:57	0	59,039342	3,184533	2,9145	13,914	0,327	89,221	0	1015,2	7,2	9,1	8,9	1	1	1	1	1	1	1	1	1	0	1	-0,140944	274,555995	322,045144	0
15.01.2021	11:31:58	0	59,391222	4,776798	2,859	11,718	0,332	89,244	0	1015,18	7,2	9	8,9	1	1	1	1	1	1	1	1	1	0	1	-0,916138	274,482789	320,926465	0
15.01.2021	11:31:59	0	59,273704	2,502131	2,91525	4,8384	0,333	89,221	0	1015,16	7,2	9,1	8,9	1	1	1	1	1	1	1	1	1	0	1	-2,677942	274,505636	319,271831	0
15.01.2021	11:32:00	0	59,273784	3,070796	3,13125	4,464	0,33	89,226	0	1015,2	7,2	9,1	8,9	1	1	1	1	1	1	1	1	1	0	1	-4,792107	274,624879	317,717436	0
15.01.2021	11:32:01	0	59,273784	3,070796	3,13125	4,464	0,33	89,226	0	1015,2	7,2	9,1	8,9	1	1	1	1	1	1	1	1	1	0	1	-4,792107	274,624879	317,717436	0
15.01.2021	11:32:02	0	59,508107	2,502129	3,17625	9,3672	0,33	89,231	0	1015,2	7,2	9,1	8,9	1	1	1	1	1	1	1	1	1	0	1	-3,875969	274,632547	318,6696	0
15.01.2021	11:32:03	0	59,273863	3,29826	3,0015	15,4008	0,332	89,214	0	1015,12	7,2	9,1	8,9	1	1	1	1	1	1	1	1	1	0	1	-3,735025	274,621812	318,760113	0
15.01.2021	11:32:04	0	60,093897	4,663055	2,78475	18,8244	0,332	89,232	0	1015,18	7,2	9,1	8,9	1	1	1	1	1	1	1	1	1	0	1	-2,818887	274,583519	319,496416	0
15.01.2021	11:32:05	0	59,859653	4,549321	2,4975	21,456	0,336	89,212	0	1015,18	7,2	9,1	8,9	1	1	1	1	1	1	1	1	1	0	1	-4,651163	274,485834	317,205721	0
15.01.2021	11:32:06	0	59,977256	4,435586	2,4375	16,4628	0,332	89,24	0	1015,1	7,2	9	8,9	1	1	1	1	1	1	1	1	1	0	1	-6,060606	274,614147	316,39853	0
15.01.2021	11:32:07	0	59,625449	2,729591	2,565	0,4932	0,329	89,23	0	1015,14	7,2	9,1	8,9	1	1	1	1	1	1	1	1	1	0	1	-4,862579	274,494971	317,037162	0
15.01.2021	11:32:08	0	59,859773	3,184521	2,607	3,3912	0,331	89,237	0	1015,3	7,1	9,1	8,9	1	1	1	1	1	1	1	1	1	0	1	-4,22833	274,466052	317,53578	0
15.01.2021	11:32:09	0	59,860233	3,298253	2,76225	12,8484	0,331	89,225	0	1015,14	7,2	9	8,9	1	1	1	1	1	1	1	1	1	0	1	-3,312192	274,583519	319,003111	0
15.01.2021	11:32:10	0	60,094139	2,729588	2,8155	1,5696	0,332	89,236	0	1015,2	7,2	9,1	8,9	1	1	1	1	1	1	1	1	1	0	1	-1,973221	274,481267	319,862244	0
15.01.2021	11:32:11	0	60,211322	3,980648	2,85975	6,5232	0,332	89,241	0	1015,2	7,2	9,1	8,9	1	1	1	1	1	1	1	1	1	0	1	-3,735025	274,569752	318,515643	0
15.01.2021	11:32:12	0	60,094219	2,843319	2,89725	10,044	0,327	89,25	0	1015,16	7,2	9,1	8,9	1	1	1	1	1	1	1	1	1	0	1	-8,104299	274,626412	314,412448	0
15.01.2021	11:32:13	0	60,445688	3,639425	2,84925	3,3984	0,333	89,245	0	1015,06	7,2	9,1	9	1	1	1	1	1	1	1	1	1	0	1	-2,536998	274,539194	319,570236	0
15.01.2021	11:32:14	0	60,445728	4,54928	2,715	9,3528	0,335	89,262	0	1015,2	7,1	9,1	9	1	1	1	1	1	1	1	1	1	0	1	-0	274,631013	322,538362	0
15.01.2021	11:32:15	0	60,797197	4,549279	2,6595	2,6424	0,329	89,261	0	1015,04	7,2	9,1	9	1	1	1	1	1	1	1	1	1	0	1	-0,634249	274,531562	321,437169	0
15.01.2021	11:32:16	0	60,680095	2,957048	2,6535	359,046	0,322	89,252	0	1015,04	7,2	9,1	8,9	1	1	1	1	1	1	1	1	1	0	1	-0,98661	274,481267	320,848854	0
15.01.2021	11:32:17	0	61,031137	3,98064	2,562	3,0096	0,324	89,259	0	1015,04	7,2	9,2	8,9	1	1	1	1	1	1	1	1	1	0	1	-3,312192	274,536141	318,780714	0
15.01.2021	11:32:18	0	60,563033	3,298224	2,427	353,1924	0,33	89,261	0	1015,2	7,2	9,1	9	1	1	1	1	1	1	1	1	1	0	1	-1,62086	274,499541	320,30032	0
15.01.2021	11:32:19	0	61,148789	3,18451	2,406	7,4736	0,323	89,241	0	1015,1	7,2	9,1	8,9	1	1	1	1	1	1	1	1	1	0	1	-0,211416	274,566694	322,024896	0
15.01.2021	11:32:20	0	60,680257	3,525685	2,4615	7,8804	0,333	89,265	0	1015,12	7,2	9,1	9	1	1	1	1	1	1	1	1	1	0	1	-2,889359	274,657108	319,771609	0
15.01.2021	11:32:21	0	61,031728	2,957043	2,42025	3,4596	0,328	89,256	0	1015,28	7,2	9,1	8,9	1	1	1	1	1	1	1	1	1	0	1	-4,721635	274,517833	317,285358	0
15.01.2021	11:32:22	0	61,031768	4,549296	2,38425	7,5096	0,332	89,271	0	1015,24	7,2	9,1	8,9	1	1	1	1	1	1	1	1	1	0	1	-2,60747	274,629479	319,923687	0
15.01.2021	11:32:23	0	61,031809	2,957041	2,277	1,5444	0,331	89,274	0	1015,14	7,2	9,1	8,9	1	1	1	1	1	1	1	1	1	0	1	-0	274,580459	322,300935	0
15.01.2021	11:32:24	0	61,03185	3,298237	2,21025	3,7656	0,324	89,266	0	1015,14	7,2	9,1	8,9	1	1	1	1	1	1	1	1	1	0	1	-0	274,47518	321,806914	0
15.01.2021	11:32:25	0	61,383322	4,435533	2,24175	11,196	0,33	89,272	0	1015,12	7,2	9,1	9	1	1	1	1	1	1	1	1	1	0	1	-9,161381	274,540721	312,953018	0
15.01.2021	11:32:26	0	61,383363	4,54929	2,21175	9,738	0,325	89,278	0	1015,26	7,2	9,1	8,9	1	1	1	1	1	1	1	1	1	0	1	-2,60747	274,473658	319,192308	0
15.01.2021	11:32:27	0	61,500547	3,639409	2,2155	3,7656	0,332	89,281	0	1015,08	7,2	9,1	9	1	1	1	1	1	1	1	1	1	0	1	-0,563777	274,517833	321,443216	0
15.01.2021	11:32:28	0	61,2663	3,298213	2,124	4,464	0,327	89,261	0	1015,28	7,2	9,1	9	1	1	1	1	1	1	1	1	1	0	1	-6,060606	274,66479	316,63646	0
15.01.2021	11:32:29	0	61,969205	4,776721	1,91775	359,1036	0,324	89,286	0	1015,1	7,2	9,1	9	1	1	1	1	1	1	1	1	1	0	1	-5,990134	274,620279	316,497802	0
15.01.2021	11:32:30	0	62,086391	4,77672	1,82325	353,1348	0,326	89,295	0	1015,16	7,2	9,1	9	1	1	1	1	1	1	1	1	1	0	1	-1,409443	274,632547	321,136126	0
15.01.2021	11:32:31	0	61,852144	4,435551	1,76175	9,7524	0,33	89,297	0	1015,28	7,2	9,1	8,9	1	1	1	1	1	1	1	1	1	0	1	-1,409443	274,629479	321,121713	0
15.01.2021	11:32:32	0	61,969329	3,753157	1,73325	357,3792	0,323	89,29	0	1015,08	7,2	9,1	8,9	1	1	1	1	1	1	1	1	1	0	1	-1,902748	274,657108	320,758219	0
15.01.2021	11:32:33	0	61,735514	2,047164	1,761	360	0,327	89,294	0	1015,12	7,2	9	9	1	1	1	1	1	1	1	1	1	0	1	-0,563777	274,60189	321,837793	0
15.01.2021	11:32:34	0	62,2037	4,321814	1,75575	349,8912	0,33	89,291	0	1015,18	7,2	9,1	8,9	1	1	1	1	1	1	1	1	1	0	1	-1,268499	274,60955	321,169045	0
15.01.2021	11:32:35	0	61,969453	3,070762	1,75875	360	0,328	89,306	0	1015,16	7,2	9,1	8,9	1	1	1	1	1	1	1	1	1	0	1	-5,426357	274,836114	318,076601	0
15.01.2021	11:32:36	0	62,320928	3,525688	1,761	358,4196	0,328	89,296	0	1015,08	7,2	9,1	8,9	1	1	1	1	1	1	1	1	1	0	1	-0	274,542248	322,121565	0
15.01.2021	11:32:37	0	62,555259	5,117902	1,83675	357,6384	0,326	89,297	0	1015,12	7,2	9,1	9	1	1	1	1	1	1	1	1	1	0	1	-0	274,523933	322,03562	0
15.01.2021	11:32:38	0	62,78959	5,117931	1,86525	359,8236	0,333	89,316	0	1015,12	7,2	9,1	8,9	1	1	1	1	1	1	1	1	1	0	1	-4,651163	274,604954	317,764795	0
15.01.2021	11:32:39	0	62,555342	2,274622	1,9305	359,4852	0,331	89,309	0	1015,08	7,2	9,1	9	1	1	1	1	1	1	1	1	1	0	1	-2,889359	274,634082	319,663418	0
15.01.2021	11:32:40	0	63,141108	5,231629	2,055	1,53	0,333	89,326	0	1015,04	7,2	9,1	9	1	1	1	1	1	1	1	1	1	0	1	-2,114165	274,631013	320,424198	0
15.01.2021	11:32:41	0	62,90686	4,435536	1,9935	2,2896	0,328	89,334	0	1015,22	7,2	9,1	8,9	1	1	1	1	1	1	1	1	1	0	1	-4,792107	274,583519	317,523196	0
15.01.2021	11:32:42	0	62,672611	4,66297	1,97625	4,842	0,331	89,327	0	1015,12	7,2	9,1	9	1	1	1	1	1	1	1	1	1	0	1	-0,98661	274,490402	320,891699	0
15.01.2021	11:32:43	0	62,555508	2,615812	1,92975	7,5096	0,33	89,338	0	1015,1	7,2	9,1	9	1	1	1	1	1	1	1	1	1	0	1	-3,805497	274,654036	318,841036	0
15.01.2021	11:32:44	0	62,78984	2,729558	1,88175	4,8312	0,327	89,334	0	1015,12	7,2	9,1	8,9	1	1	1	1	1	1	1	1	1	0	1	-4,439746	274,634082	318,11303	0
15.01.2021	11:32:45	0	62,672736	2,95702	1,8795	5,2092	0,335	89,339	0	1015,3	7,1	9,1	8,9	1	1	1	1	1	1	1	1	1	0	1	-5,919662	274,508685	316,044412	0
15.01.2021	11:32:46	0	62,907068	4,549261	1,8615	10,0656	0,325	89,349	0	1014,98	7,2	9,1	8,9	1	1	1	1	1	1	1	1	1	0	1	-1,338971	274,491925	320,546482	0
15.01.2021	11:32:47	0	63,492837	4,549232	1,884	2,6388	0,332	89,343	0	1015,18	7,2	9,1	9	1	1	1	1	1	1	1	1	1	0	1	-3,312192	274,640219	319,26942	0
15.01.2021	11:32:48	0	63,024297	3,184461	1,941	9,0864	0,333	89,349	0	1015,18	7,2	9,1	9	1	1	1	1	1	1	1	1	1	0	1	-1,832276	274,487357	320,031749	0
15.01.2021	11:32:49	0	63,492922	4,66296	2,0445	3,0132	0,335	89,347	0	1015,14	7,2	9,1	9	1	1	1	1	1	1	1	1	1	0	1	-2,60747	274,603422	319,801293	0
15.01.2021	11:32:50	0	63,375818	4,549255	2,00625	13,5468	0,329	89,369	0	1015,14	7,2	9,1	8,9	1	1	1	1	1	1	1	1	1	0	1	-0,775194	274,491925	321,110259	0
15.01.2021	11:32:51	0	63,727297	4,435496	1,899	20,2824	0,34	89,379	0	1015,12	7,2	9,1	9	1	1	1	1	1	1	1	1	1	0	1	-0	274,620279	322,487936	0
15.01.2021	11:32:52	0	63,493048	4,208058	1,88625	7,8732	0,333	89,361	0	1015	7,2	9,1	8,9	1	1	1	1	1	1	1	1	1	0	1	-3,735025	274,650965	318,897077	0
15.01.2021	11:32:53	0	63,610236	3,639379	1,97475	359,46	0,336	89,387	0	1015,16	7,2	9,1	9	1	1	1	1	1	1	1	1	1	0	1	-2,255109	274,555995	319,930979	0
15.01.2021	11:32:54	0	63,727424	4,549249	2,16075	359,9424	0,328	89,381	0	1015,12	7,2	9,1	8,9	1	1	1	1	1	1	1	1	1	0	1	-3,312192	274,674012	319,428216	0
15.01.2021	11:32:55	0	64,078904	4,54922	2,3445	358,6248	0,331	89,378	0	1015,28	7,2	9,1	9	1	1	1	1	1	1	1	1	1	0	1	-1,832276	274,623345	320,670064	0
15.01.2021	11:32:56	0	63,610362	4,321758	2,46225	4,068	0,331	89,385	0	1015,16	7,2	9,1	9	1	1	1	1	1	1	1	1	1	0	1	-4,862579	274,678625	317,899508	0
15.01.2021	11:32:57	0	64,196135	4,549245	2,4945	8,9676	0,325	89,392	0	1015,16	7,2	9,1	8,9	1	1	1	1	1	1	1	1	1	0	1	-4,157858	274,627946	318,366094	0
15.01.2021	11:32:58	0	63,844739	4,435486	2,6295	6,1704	0,332	89,4	0	1015,1	7,2	9,1	9	1	1	1	1	1	1	1	1	1	0	1	-5,778717	274,64943	316,846169	0
15.01.2021	11:32:59	0	63,961927	3,07072	2,64675	11,1924	0,338	89,396	0	1015,2	7,2	9,1	9	1	1	1	1	1	1	1	1	1	0	1	-4,933051	274,534615	317,152691	0
15.01.2021	11:33:00	0	63,844865	2,729527	2,45175	18,4392	0,337	89,406	0	1015,14	7,2	9,1	9	1	1	1	1	1	1	1	1	1	0	1	-5,426357	274,594233	316,939257	0
15.01.2021	11:33:01	0	63,844865	2,729527	2,45175	18,4392	0,337	89,406	0	1015,14	7,2	9,1	9	1	1	1	1	1	1	1	1	1	0	1	-6,976744	274,657108	315,684224	0
15.01.2021	11:33:02	0	64,547787	4,89043	2,475	16,8516	0,334	89,417	0	1015,32	7,2	9,1	8,9	1	1	1	1	1	1	1	1	1	0	1	-2,889359	274,620279	319,598577	0
15.01.2021	11:33:03	0	64,313537	4,208018	2,412	18,0828	0,34	89,428	0	1015,18	7,2	9,1	9	1	1	1	1	1	1	1	1	1	0	1	-3,59408	274,623345	318,90826	0
15.01.2021	11:33:04	0	64,313579	3,070715	2,36325	9,3636	0,338	89,428	0	1015,22	7,2	9,1	9	1	1	1	1	1	1	1	1	1	0	1	-5,990134	274,490402	315,888176	0
15.01.2021	11:33:05	0	64,196475	3,411904	2,3775	9,378	0,333	89,412	0	1015,16	7,2	9,1	9	1	1	1	1	1	1	1	1	1	0	1	-4,580691	274,559051	317,619744	0
15.01.2021	11:33:06	0	64,547958	2,957001	2,38425	359,7696	0,336	89,434	0	1015,16	7,2	9,1	8,9	1	1	1	1	1	1	1	1	1	0	1	-4,298802	274,546829	317,844265	0
15.01.2021	11:33:07	0	65,016589	4,776692	2,43525	360	0,338	89,426	0	1015,1	7,2	9,1	8,9	1	1	1	1	1	1	1	1	1	0	1	-3,312192	274,562108	318,902592	0
15.01.2021	11:33:08	0	64,548043	2,729537	2,63025	9,7416	0,344	89,429	0	1015,18	7,2	9,1	8,9	1	1	1	1	1	1	1	1	1	0	1	-1,338971	274,508685	320,625103	0
15.01.2021	11:33:09	0	64,665233	4,32174	2,76675	0,1116	0,337	89,431	0	1015,18	7,2	9,1	9	1	1	1	1	1	1	1	1	1	0	1	-5,426357	274,57434	316,84585	0
15.01.2021	11:33:10	0	64,782423	4,208034	2,793	3,078	0,337	89,418	0	1015,22	7,2	9,1	8,9	1	1	1	1	1	1	1	1	1	0	1	-1,338971	274,674012	321,401436	0
15.01.2021	11:33:11	0	65,133907	4,662927	2,77875	3,3372	0,337	89,437	0	1015,08	7,1	9,1	9	1	1	1	1	1	1	1	1	1	0	1	-3,875969	274,585049	318,446519	0
15.01.2021	11:33:12	0	64,899656	4,321736	2,59125	360	0,342	89,427	0	1015,22	7,2	9,1	9	1	1	1	1	1	1	1	1	1	0	1	-1,973221	274,555995	320,212868	0
15.01.2021	11:33:13	0	64,899698	4,208005	2,5965	4,8348	0,335	89,423	0	1015,06	7,2	9,1	9	1	1	1	1	1	1	1	1	1	0	1	-4,157858	274,539194	317,949376	0
15.01.2021	11:33:14	0	65,368331	4,890382	2,754	353,1312	0,341	89,428	0	1015,24	7,2	9,1	9	1	1	1	1	1	1	1	1	1	0	1	-2,114165	274,634082	320,438611	0
15.01.2021	11:33:15	0	65,368374	4,435488	2,69625	345,7584	0,335	89,411	0	1015,06	7,2	9,1	8,9	1	1	1	1	1	1	1	1	1	0	1	-0	274,670938	322,725958	0
15.01.2021	11:33:16	0	65,25127	3,525622	2,75775	342,738	0,344	89,418	0	1015,28	7,2	9,1	9	1	1	1	1	1	1	1	1	1	0	1	-9,231853	274,491925	312,6536	0
15.01.2021	11:33:17	0	65,485608	3,525642	2,65875	357,6708	0,337	89,415	0	1015,16	7,2	9,1	8,9	1	1	1	1	1	1	1	1	1	0	1	-0	274,623345	322,50234	0
15.01.2021	11:33:18	0	65,251356	4,662917	2,62575	348,6096	0,337	89,422	0	1015,2	7,2	9,1	9	1	1	1	1	1	1	1	1	1	0	1	-3,171247	274,634082	319,381529	0
15.01.2021	11:33:19	0	65,134251	4,321726	2,6715	7,5024	0,337	89,39	0	1015,12	7,2	9,1	9	1	1	1	1	1	1	1	1	1	0	1	-7,82241	274,63715	314,744783	0
15.01.2021	11:33:20	0	65,368589	3,298158	2,8305	359,4636	0,34	89,406	0	1015,1	7,1	9,1	9	1	1	1	1	1	1	1	1	1	0	1	-3,171247	274,545302	318,964651	0
15.01.2021	11:33:21	0	65,368632	2,843239	2,87775	359,532	0,337	89,417	0	1015,04	7,2	9,1	9	1	1	1	1	1	1	1	1	1	0	1	-8,80902	274,510209	313,162205	0
15.01.2021	11:33:22	0	65,134379	2,50205	3,02475	9,756	0,343	89,41	0	1015,22	7,2	9,1	9	1	1	1	1	1	1	1	1	1	0	1	-0,211416	274,554467	321,9675	0
15.01.2021	11:33:23	0	65,134422	2,843254	3,23025	0	0,34	89,398	0	1015,08	7,2	9,1	8,9	1	1	1	1	1	1	1	1	1	0	1	-0	274,655572	322,65375	0
15.01.2021	11:33:24	0	65,720667	2,843236	3,11625	358,4808	0,34	89,381	0	1015,02	7,2	9	9	1	1	1	1	1	1	1	1	1	0	1	-2,255109	274,924684	321,665065	0
15.01.2021	11:33:25	0	65,603101	4,662906	2,91675	357,6888	0,344	89,408	0	1015,2	7,1	9,1	9	1	1	1	1	1	1	1	1	1	0	1	-4,792107	274,654036	317,854426	0
15.01.2021	11:33:26	0	65,485996	4,094258	2,96025	349,9092	0,344	89,402	0	1015,24	7,2	9,1	9	1	1	1	1	1	1	1	1	1	0	1	-2,114165	274,623345	320,388175	0
15.01.2021	11:33:27	0	65,837484	3,639339	3,2175	356,49	0,34	89,396	0	1015,2	7,2	9,1	9	1	1	1	1	1	1	1	1	1	0	1	-3,664553	274,502589	318,270923	0
15.01.2021	11:33:28	0	65,60323	3,866797	3,174	351,7452	0,34	89,402	0	1015,08	7,2	9,1	9	1	1	1	1	1	1	1	1	1	0	1	-3,875969	274,510209	318,095257	0
15.01.2021	11:33:29	0	65,720422	4,77663	2,9805	351,3744	0,343	89,4	0	1014,82	7,1	9,1	9	1	1	1	1	1	1	1	1	1	0	1	-3,171247	274,678625	319,59084	0
15.01.2021	11:33:30	0	65,720465	3,070689	2,9505	354,2976	0,344	89,386	0	1015,12	7,2	9,1	9	1	1	1	1	1	1	1	1	1	0	1	-2,043693	274,638685	320,530709	0
15.01.2021	11:33:31	0	65,954806	2,615787	2,826	355,3308	0,342	89,401	0	1015,16	7,2	9,1	8,9	1	1	1	1	1	1	1	1	1	0	1	-4,087385	274,52851	317,969711	0
15.01.2021	11:33:32	0	65,603403	2,615787	2,68575	345,3984	0,339	89,39	0	1015,14	7,2	9,1	8,9	1	1	1	1	1	1	1	1	1	0	1	-2,959831	274,643289	319,636203	0
15.01.2021	11:33:33	0	65,954893	4,094273	2,67975	346,1472	0,342	89,39	0	1015,18	7,2	9,1	8,9	1	1	1	1	1	1	1	1	1	0	1	-0	274,663253	322,689845	0
15.01.2021	11:33:34	0	65,603489	2,729498	2,7015	345,9492	0,347	89,409	0	1015,28	7,2	9,1	9	1	1	1	1	1	1	1	1	1	0	1	-6,976744	274,661717	315,705881	0
15.01.2021	11:33:35	0	66,189278	3,753059	2,604	346,1508	0,349	89,394	0	1015,16	7,1	9,1	9	1	1	1	1	1	1	1	1	1	0	1	-1,832276	274,545302	320,303623	0
15.01.2021	11:33:36	0	66,072172	2,843226	2,5395	345,024	0,342	89,396	0	1015,18	7,2	9,1	9	1	1	1	1	1	1	1	1	1	0	1	-3,523608	274,559051	318,676827	0
15.01.2021	11:33:37	0	66,306514	3,980515	2,56575	343,926	0,341	89,4	0	1015,12	7,2	9,1	9	1	1	1	1	1	1	1	1	1	0	1	-0	274,513258	321,985531	0
15.01.2021	11:33:38	0	66,072258	3,753055	2,5305	351,0648	0,339	89,407	0	1015,12	7,2	9,1	9	1	1	1	1	1	1	1	1	1	0	1	-6,8358	274,549884	315,321605	0
15.01.2021	11:33:39	0	66,540899	4,435428	2,451	342,0396	0,343	89,415	0	1015,08	7,1	9,1	9	1	1	1	1	1	1	1	1	1	0	1	-7,047216	274,50716	314,909707	0
15.01.2021	11:33:40	0	66,072345	3,298138	2,4495	352,1124	0,339	89,407	0	1015,06	7,2	9,1	9	1	1	1	1	1	1	1	1	1	0	1	-5,567301	274,562108	316,647483	0
15.01.2021	11:33:41	0	66,423837	4,435425	2,55525	348,6636	0,346	89,422	0	1015,24	7,2	9,1	9	1	1	1	1	1	1	1	1	1	0	1	-5,990134	274,519358	316,024015	0
15.01.2021	11:33:42	0	66,189581	2,84322	2,4225	345,6792	0,344	89,402	0	1015,12	7,2	9,1	9	1	1	1	1	1	1	1	1	1	0	1	-4,087385	274,578929	318,206366	0
15.01.2021	11:33:43	0	66,189624	3,298134	2,42325	350,6076	0,34	89,43	0	1015,14	7,2	9,1	9	1	1	1	1	1	1	1	1	1	0	1	-5,567301	274,66479	317,129765	0
15.01.2021	11:33:44	0	66,541117	4,776607	2,56275	349,8984	0,345	89,424	0	1015,04	7,2	9,1	9	1	1	1	1	1	1	1	1	1	0	1	-8,527132	274,580459	313,773803	0
15.01.2021	11:33:45	0	66,306861	2,956946	2,745	356,1696	0,349	89,436	0	1015,08	7,2	9,1	9	1	1	1	1	1	1	1	1	1	0	1	-5,84919	274,520883	316,172116	0
15.01.2021	11:33:46	0	66,424054	4,549147	2,766	354,0132	0,337	89,414	0	1015,04	7,2	9,1	9	1	1	1	1	1	1	1	1	1	0	1	-5,21494	274,64943	317,409946	0
15.01.2021	11:33:47	0	66,306948	4,321688	2,6325	355,7232	0,341	89,43	0	1015,22	7,2	9,1	9	1	1	1	1	1	1	1	1	1	0	1	-7,047216	274,680162	315,722099	0
15.01.2021	11:33:48	0	66,541291	3,184401	2,526	356,8464	0,346	89,435	0	1014,94	7,1	9,1	9	1	1	1	1	1	1	1	1	1	0	1	-3,875969	274,568223	318,367521	0
15.01.2021	11:33:49	0	66,658485	2,729485	2,47875	358,4016	0,345	89,437	0	1015,04	7,2	9,1	9	1	1	1	1	1	1	1	1	1	0	1	-5,144468	274,523933	316,891152	0
15.01.2021	11:33:50	0	66,424228	3,298127	2,54475	360	0,348	89,442	0	1015,1	7,1	9,1	9	1	1	1	1	1	1	1	1	1	0	1	-4,933051	274,871804	318,737978	0
15.01.2021	11:33:51	0	66,07282	3,184398	2,70375	0,1188	0,351	89,44	0	1015,18	7,2	9,1	9	1	1	1	1	1	1	1	1	1	0	1	-0,140944	274,508685	321,82313	0
15.01.2021	11:33:52	0	66,892917	4,435409	2,7045	1,5444	0,347	89,454	0	1015,04	7,2	9,1	9	1	1	1	1	1	1	1	1	1	0	1	-2,818887	274,634082	319,73389	0
15.01.2021	11:33:53	0	66,424358	2,502025	2,799	9,7272	0,347	89,426	0	1015,14	7,1	9,1	9	1	1	1	1	1	1	1	1	1	0	1	-2,466526	274,499541	319,454654	0
15.01.2021	11:33:54	0	66,541552	3,184395	2,79	5,22	0,352	89,457	0	1015,24	7,2	9,1	9	1	1	1	1	1	1	1	1	1	0	1	-0,98661	274,572811	321,278416	0
15.01.2021	11:33:55	0	66,893048	4,77659	2,775	354,3084	0,348	89,454	0	1015,08	7,1	9,1	9	1	1	1	1	1	1	1	1	1	0	1	-2,325581	274,690931	320,49435	0
15.01.2021	11:33:56	0	66,65879	3,639306	2,75775	7,128	0,354	89,462	0	1015,18	7,1	9,1	9	1	1	1	1	1	1	1	1	1	0	1	-3,453136	274,563637	318,768823	0
15.01.2021	11:33:57	0	66,775984	3,525576	2,778	360	0,35	89,455	0	1015,3	7,2	9,1	9	1	1	1	1	1	1	1	1	1	0	1	-6,131078	274,629479	316,400078	0
15.01.2021	11:33:58	0	66,776028	3,525575	2,9805	8,2404	0,348	89,464	0	1015,18	7,1	9,1	9	1	1	1	1	1	1	1	1	1	0	1	-7,82241	274,611082	314,62233	0
15.01.2021	11:33:59	0	66,424618	2,615749	3,00825	7,8768	0,352	89,461	0	1015,12	7,2	9,1	9	1	1	1	1	1	1	1	1	1	0	1	-4,439746	274,537668	317,660323	0
15.01.2021	11:34:00	0	66,893309	4,776581	2,8725	15,39	0,348	89,467	0	1015,06	7,2	9,1	9	1	1	1	1	1	1	1	1	1	0	1	-6,906272	274,634082	315,646504	0
15.01.2021	11:34:01	0	66,893309	4,776581	2,8725	15,39	0,348	89,467	0	1015,06	7,2	9,1	9	1	1	1	1	1	1	1	1	1	0	1	-3,100775	274,650965	319,531326	0
15.01.2021	11:34:02	0	66,893353	3,411843	2,91825	21,1176	0,352	89,472	0	1015,02	7,2	9,1	9	1	1	1	1	1	1	1	1	1	0	1	-2,889359	274,698626	319,966748	0
15.01.2021	11:34:03	0	66,776245	4,09421	3,2265	6,8112	0,353	89,458	0	1015,18	7,2	9,1	9	1	1	1	1	1	1	1	1	1	0	1	-4,22833	274,531562	317,843089	0
15.01.2021	11:34:04	0	67,244894	4,435393	3,26475	14,6412	0,352	89,483	0	1015,14	7,1	9,1	9	1	1	1	1	1	1	1	1	1	0	1	-7,258633	274,663253	315,431212	0
15.01.2021	11:34:05	0	66,893483	4,662847	3,33225	15,0336	0,348	89,468	0	1015,06	7,2	9,1	9	1	1	1	1	1	1	1	1	1	0	1	-10,218464	274,551412	311,946111	0
15.01.2021	11:34:06	0	66,776375	3,184383	3,21825	3,528	0,351	89,475	0	1015,14	7,2	9,1	9	1	1	1	1	1	1	1	1	1	0	1	-6,131078	274,510209	315,840147	0
15.01.2021	11:34:07	0	67,010722	2,843198	3,27075	5,2128	0,351	89,471	0	1015,04	7,2	9,1	9	1	1	1	1	1	1	1	1	1	0	1	-1,691332	274,594233	320,674281	0
15.01.2021	11:34:08	0	67,010766	2,843214	3,30975	1,1808	0,356	89,48	0	1015,02	7,1	9,1	8,9	1	1	1	1	1	1	1	1	1	0	1	-0,916138	274,472137	320,876505	0
15.01.2021	11:34:09	0	67,245113	3,753019	3,213	4,842	0,355	89,485	0	1015,18	7,1	9,1	9	1	1	1	1	1	1	1	1	1	0	1	-7,82241	274,557523	314,370851	0
15.01.2021	11:34:10	0	67,010853	4,435384	3,093	1,9296	0,359	89,487	0	1015,08	7,1	9,1	9	1	1	1	1	1	1	1	1	1	0	1	-7,963354	274,624879	314,546189	0
15.01.2021	11:34:11	0	67,010896	3,753016	3,072	4,0896	0,359	89,481	0	1015,2	7,2	9,1	9	1	1	1	1	1	1	1	1	1	0	1	-0,563777	274,335694	320,58948	0
15.01.2021	11:34:12	0	67,128092	2,956921	3,0615	10,4292	0,363	89,479	0	1015,14	7,2	9,1	9	1	1	1	1	1	1	1	1	1	0	1	-3,030303	274,572811	319,234723	0
15.01.2021	11:34:13	0	67,010984	2,95692	2,931	15,408	0,36	89,478	0	1015,18	7,2	9,1	9	1	1	1	1	1	1	1	1	1	0	1	-4,298802	274,510209	317,672424	0
15.01.2021	11:34:14	0	67,362484	4,776562	2,8065	10,0404	0,354	89,466	0	1015,14	7,1	9,1	9	1	1	1	1	1	1	1	1	1	0	1	-3,312192	274,629479	319,218965	0
15.01.2021	11:34:15	0	67,011071	3,070646	2,7165	13,9176	0,358	89,454	0	1015,08	7,2	9,1	9	1	1	1	1	1	1	1	1	1	0	1	-0,845666	274,540721	321,268733	0
15.01.2021	11:34:16	0	67,362571	4,321648	2,6655	11,1888	0,354	89,467	0	1015,1	7,1	9,1	9	1	1	1	1	1	1	1	1	1	0	1	-2,255109	274,572811	320,009917	0
15.01.2021	11:34:17	0	67,12831	3,184371	2,7585	6,0588	0,361	89,456	0	1015,04	7,1	9,1	9	1	1	1	1	1	1	1	1	1	0	1	-6,483439	274,686315	316,314796	0
15.01.2021	11:34:18	0	67,714116	4,890283	2,91	354,6	0,355	89,45	0	1014,98	7,2	9,1	9	1	1	1	1	1	1	1	1	1	0	1	-4,510218	274,667863	318,201292	0
15.01.2021	11:34:19	0	67,011245	2,615732	3,018	1,5588	0,36	89,444	0	1015,2	7,2	9,1	9	1	1	1	1	1	1	1	1	1	0	1	-8,738548	274,654036	313,907985	0
15.01.2021	11:34:20	0	67,245593	3,070641	3,1875	2,6424	0,359	89,46	0	1015,18	7,1	9,1	9	1	1	1	1	1	1	1	1	1	0	1	-5,003524	274,540721	317,110875	0
15.01.2021	11:34:21	0	67,128484	2,843185	3,2025	0,8532	0,358	89,453	0	1015,12	7,3	9,1	9	1	1	1	1	1	1	1	1	1	0	1	-1,338971	274,661717	321,343654	0
15.01.2021	11:34:22	0	67,479986	2,843184	3,26325	357,3504	0,356	89,442	0	1015,16	7,2	9,1	9	1	1	1	1	1	1	1	1	1	0	1	-2,748414	274,690931	320,071517	0
15.01.2021	11:34:23	0	67,245724	2,729456	3,34425	9,7452	0,355	89,436	0	1015,08	7,1	9,1	9	1	1	1	1	1	1	1	1	1	0	1	-5,426357	274,638685	317,148045	0
15.01.2021	11:34:24	0	67,362921	3,639274	3,23625	7,8804	0,36	89,448	0	1015,1	7,1	9,1	9	1	1	1	1	1	1	1	1	1	0	1	-7,540521	274,539194	314,566712	0
15.01.2021	11:34:25	0	67,59727	3,980454	3,18825	6,7896	0,355	89,433	0	1015,3	7,1	9,1	9	1	1	1	1	1	1	1	1	1	0	1	-3,664553	274,571281	318,593294	0
15.01.2021	11:34:26	0	67,245855	3,980453	3,0615	5,2164	0,358	89,422	0	1015,18	7,2	9,1	9	1	1	1	1	1	1	1	1	1	0	1	-3,24172	274,697086	319,607151	0
15.01.2021	11:34:27	0	67,597358	3,980452	3,11775	355,3704	0,36	89,439	0	1015,12	7,1	9,1	9	1	1	1	1	1	1	1	1	1	0	1	-9,161381	274,698626	313,694725	0
15.01.2021	11:34:28	0	67,363095	2,956906	3,30675	4,0788	0,363	89,438	0	1015,24	7,1	9,1	9	1	1	1	1	1	1	1	1	1	0	1	-2,325581	274,614147	320,133555	0
15.01.2021	11:34:29	0	67,128832	2,615724	3,36525	7,5096	0,36	89,43	0	1015,14	7,2	9,1	9	1	1	1	1	1	1	1	1	1	0	1	-5,21494	274,706324	317,677359	0
15.01.2021	11:34:30	0	67,597489	4,662811	3,27525	13,8924	0,362	89,422	0	1015,08	7,2	9,1	9	1	1	1	1	1	1	1	1	1	0	1	-3,735025	274,531562	318,336394	0
15.01.2021	11:34:31	0	67,597533	2,843176	3,1755	5,2164	0,36	89,407	0	1015,16	7,1	9,1	9	1	1	1	1	1	1	1	1	1	0	1	-0	274,606486	322,423152	0
15.01.2021	11:34:32	0	67,363269	2,615721	3,53775	4,4928	0,36	89,412	0	1015,2	7,4	9,1	9	1	1	1	1	1	1	1	1	1	0	1	-3,664553	274,698626	319,191554	0
15.01.2021	11:34:33	0	67,831927	3,525536	3,564	3,7728	0,362	89,426	0	1015,3	7,1	9,1	9	1	1	1	1	1	1	1	1	1	0	1	-3,171247	274,58658	319,158427	0
15.01.2021	11:34:34	0	67,597664	4,662805	3,18	3,3876	0,362	89,428	0	1015,16	7,2	9,1	9	1	1	1	1	1	1	1	1	1	0	1	-5,567301	274,537668	316,532769	0
15.01.2021	11:34:35	0	67,597708	3,070627	3,0615	8,9712	0,356	89,417	0	1015,1	7,1	9,1	9	1	1	1	1	1	1	1	1	1	0	1	-6,553911	274,658644	316,114275	0
15.01.2021	11:34:36	0	67,597751	5,231436	3,009	8,604	0,364	89,42	0	1015,04	7,1	9,1	9	1	1	1	1	1	1	1	1	1	0	1	-5,144468	274,670938	317,58149	0
15.01.2021	11:34:37	0	67,363487	4,435347	3,01425	13,14	0,363	89,431	0	1015,12	7,1	9,1	9	1	1	1	1	1	1	1	1	1	0	1	-1,268499	274,720188	321,688991	0
15.01.2021	11:34:38	0	67,480685	4,890253	2,90775	7,128	0,361	89,42	0	1015,16	7,1	9,1	9	1	1	1	1	1	1	1	1	1	0	1	-4,157858	274,634082	318,394919	0
15.01.2021	11:34:39	0	67,24642	2,843169	2,7615	17,226	0,364	89,407	0	1015,16	7,1	9,1	9	1	1	1	1	1	1	1	1	1	0	1	-8,033827	274,523933	314,001793	0
15.01.2021	11:34:40	0	67,597926	3,752982	2,5215	354,7656	0,366	89,426	0	1015,14	7,2	9,1	9	1	1	1	1	1	1	1	1	1	0	1	-0,281889	274,640219	322,299723	0
15.01.2021	11:34:41	0	67,480815	3,639254	2,37225	354,0348	0,366	89,428	0	1015,1	7,1	9,1	9	1	1	1	1	1	1	1	1	1	0	1	-0	274,563637	322,221959	0
15.01.2021	11:34:42	0	67,715167	2,274533	2,25	350,6364	0,36	89,418	0	1015,12	7,1	9,1	9	1	1	1	1	1	1	1	1	1	0	1	-1,057082	274,61568	321,409253	0
15.01.2021	11:34:43	0	67,832365	4,321612	2,11425	346,8816	0,365	89,403	0	1015,16	7,1	9,1	9	1	1	1	1	1	1	1	1	1	0	1	-2,889359	274,707864	320,010181	0
15.01.2021	11:34:44	0	67,832409	4,66279	2,11875	3,0168	0,363	89,424	0	1015,18	7,2	9,1	9	1	1	1	1	1	1	1	1	1	0	1	-2,889359	274,6817	319,887186	0
15.01.2021	11:34:45	0	67,715298	4,321609	2,20875	0	0,363	89,416	0	1015,2	7,1	9,1	9	1	1	1	1	1	1	1	1	1	0	1	-2,114165	274,644824	320,489081	0
15.01.2021	11:34:46	0	67,715342	4,094155	2,25	4,0788	0,362	89,419	0	1015,14	7,3	9,1	9	1	1	1	1	1	1	1	1	1	0	1	-3,453136	274,703244	319,424684	0
15.01.2021	11:34:47	0	67,83254	4,549059	2,34675	6,066	0,37	89,423	0	1015,16	7,3	9,1	9	1	1	1	1	1	1	1	1	1	0	1	-3,453136	274,595765	318,919667	0
15.01.2021	11:34:48	0	67,598275	3,980426	2,3745	12,8448	0,362	89,43	0	1015,14	7,3	9,1	9	1	1	1	1	1	1	1	1	1	0	1	-7,470049	274,674012	315,270358	0
15.01.2021	11:34:49	0	67,598318	2,956887	2,34675	0,8604	0,365	89,422	0	1015,1	7,3	9,1	9	1	1	1	1	1	1	1	1	1	0	1	-6,412967	274,585049	315,909521	0
15.01.2021	11:34:50	0	67,598362	2,84316	2,26875	7,5204	0,365	89,409	0	1015,24	7,3	9,1	9	1	1	1	1	1	1	1	1	1	0	1	-3,382664	274,551412	318,781911	0
15.01.2021	11:34:51	0	67,832715	4,66278	2,352	10,4328	0,363	89,429	0	1015,18	7,1	9,1	9	1	1	1	1	1	1	1	1	1	0	1	-7,047216	274,647894	315,570456	0
15.01.2021	11:34:52	0	67,598449	2,956884	2,43075	19,5228	0,368	89,44	0	1015,2	7,3	9,1	9	1	1	1	1	1	1	1	1	1	0	1	-5,21494	274,552939	316,956805	0
15.01.2021	11:34:53	0	67,715647	2,956883	2,4615	7,128	0,363	89,427	0	1015,12	7,1	9,1	9	1	1	1	1	1	1	1	1	1	0	1	-0,563777	274,650965	322,068324	0
15.01.2021	11:34:54	0	67,950001	4,435323	2,50575	13,1796	0,36	89,437	0	1015,26	7,2	9,1	9	1	1	1	1	1	1	1	1	1	0	1	-8,386187	274,536141	313,706718	0
15.01.2021	11:34:55	0	67,950045	4,094143	2,439	24,7068	0,366	89,425	0	1015,18	7,4	9,1	9	1	1	1	1	1	1	1	1	1	0	1	-6,694856	274,589641	315,649192	0
15.01.2021	11:34:56	0	68,184399	4,321594	2,27175	1,9224	0,362	89,448	0	1015,02	7,1	9,1	9	1	1	1	1	1	1	1	1	1	0	1	-4,439746	274,577399	317,846823	0
15.01.2021	11:34:57	0	68,301599	3,52551	2,235	14,3064	0,366	89,431	0	1015,14	7,1	9,1	9	1	1	1	1	1	1	1	1	1	0	1	-9,090909	274,686315	313,707326	0
15.01.2021	11:34:58	0	68,067332	3,752961	2,52225	0,8532	0,369	89,437	0	1015,02	7,3	9,1	9	1	1	1	1	1	1	1	1	1	0	1	-4,721635	274,684777	318,069369	0
15.01.2021	11:34:59	0	67,95022	2,843152	2,68425	4,464	0,358	89,444	0	1015,16	7,3	9,1	9	1	1	1	1	1	1	1	1	1	0	1	-4,087385	274,712485	318,833881	0
15.01.2021	11:35:00	0	68,067463	3,298054	3,309	17,226	0,368	89,45	0	1015,28	7,1	9,1	9	1	1	1	1	1	1	1	1	1	0	1	-3,100775	274,594233	319,264838	0
15.01.2021	11:35:01	0	68,067463	3,298054	3,309	17,226	0,368	89,45	0	1015,28	7,1	9,1	9	1	1	1	1	1	1	1	1	1	0	1	-3,100775	274,594233	319,264838	0
15.01.2021	11:35:02	0	67,950351	3,980408	3,34575	18,8316	0,366	89,456	0	1015,16	7,1	9,1	9	1	1	1	1	1	1	1	1	1	0	1	-3,382664	274,562108	318,83212	0
15.01.2021	11:35:03	0	67,950394	2,843148	3,33375	11,7252	0,371	89,451	0	1015,18	7,1	9,1	9	1	1	1	1	1	1	1	1	1	0	1	-5,426357	274,540721	316,688043	0
15.01.2021	11:35:04	0	68,301906	4,43531	3,29175	11,178	0,37	89,431	0	1015,2	7,3	9,1	9	1	1	1	1	1	1	1	1	1	0	1	-5,567301	274,626412	316,949446	0
15.01.2021	11:35:05	0	68,30195	5,117663	3,312	11,1924	0,37	89,449	0	1015,16	7,3	9,1	9	1	1	1	1	1	1	1	1	1	0	1	-5,496829	274,706324	317,395471	0
15.01.2021	11:35:06	0	68,184837	4,662758	3,444	17,226	0,362	89,438	0	1015,04	7,3	9,1	9	1	1	1	1	1	1	1	1	1	0	1	-5,355884	274,66479	317,341182	0
15.01.2021	11:35:07	0	68,067725	2,615693	3,43275	15,0408	0,372	89,459	0	1015,14	7,3	9,1	9	1	1	1	1	1	1	1	1	1	0	1	-5,637773	274,712485	317,283493	0
15.01.2021	11:35:08	0	68,302081	4,321578	3,33825	22,0752	0,366	89,456	0	1015,14	7,2	9,1	9	1	1	1	1	1	1	1	1	1	0	1	-5,567301	274,694008	317,267099	0
15.01.2021	11:35:09	0	68,184968	2,615691	3,17175	25,7868	0,364	89,455	0	1015,14	7,1	9,1	9	1	1	1	1	1	1	1	1	1	0	1	-4,157858	274,704784	318,727202	0
15.01.2021	11:35:10	0	68,536481	3,298045	3,06375	33,2604	0,368	89,456	0	1015,14	7,3	9,1	9	1	1	1	1	1	1	1	1	1	0	1	-10,641297	274,678625	312,120791	0
15.01.2021	11:35:11	0	68,419369	3,63922	2,9925	22,4496	0,37	89,458	0	1015,28	7,1	9,1	9	1	1	1	1	1	1	1	1	1	0	1	-6,272023	274,720188	316,685467	0
15.01.2021	11:35:12	0	68,1851	2,956866	3,066	13,1508	0,373	89,455	0	1015,22	7,1	9,1	9	1	1	1	1	1	1	1	1	1	0	1	-9,231853	274,723271	313,740131	0
15.01.2021	11:35:13	0	68,65377	4,890199	3,1665	14,292	0,373	89,444	0	1015,04	7,1	9,1	9	1	1	1	1	1	1	1	1	1	0	1	-6,20155	274,670938	316,524407	0
15.01.2021	11:35:14	0	68,4195	4,094119	2,81925	16,8336	0,372	89,437	0	1015,08	7,3	9,1	9	1	1	1	1	1	1	1	1	1	0	1	-6,060606	274,549884	316,096799	0
15.01.2021	11:35:15	0	68,419544	2,501961	2,751	6,0588	0,37	89,468	0	1015,16	7,1	9,1	9	1	1	1	1	1	1	1	1	1	0	1	-2,466526	274,640219	320,115086	0
15.01.2021	11:35:16	0	68,536745	2,615686	2,6865	18,0792	0,38	89,47	0	1015,26	7,3	9,1	9	1	1	1	1	1	1	1	1	1	0	1	-8,45666	274,552939	313,715086	0
15.01.2021	11:35:17	0	68,888259	3,752939	2,54925	14,004	0,376	89,458	0	1015,14	7,2	9,1	9	1	1	1	1	1	1	1	1	1	0	1	-1,761804	274,606486	320,661348	0
15.01.2021	11:35:18	0	68,888303	2,843135	2,6175	358,3656	0,376	89,46	0	1015,18	7,1	9,1	9	1	1	1	1	1	1	1	1	1	0	1	-4,510218	274,730979	318,498015	0
15.01.2021	11:35:19	0	68,888347	2,956859	2,778	352,1304	0,374	89,465	0	1015,12	7,1	9,1	9	1	1	1	1	1	1	1	1	1	0	1	-4,157858	274,60955	318,279686	0
15.01.2021	11:35:20	0	68,53692	2,501957	2,79975	350,28	0,374	89,451	0	1015,18	7,2	9,1	9	1	1	1	1	1	1	1	1	1	0	1	-5,144468	274,559051	317,055967	0
15.01.2021	11:35:21	0	69,12275	5,003913	2,8395	353,8908	0,372	89,458	0	1015,04	7,3	9,1	9	1	1	1	1	1	1	1	1	1	0	1	-4,792107	274,604954	317,62385	0
15.01.2021	11:35:22	0	69,005637	3,752933	2,706	7,4988	0,367	89,45	0	1015,06	7,3	9,1	9	1	1	1	1	1	1	1	1	1	0	1	-7,117689	274,721729	315,847048	0
15.01.2021	11:35:23	0	69,005681	4,662734	2,727	354,0024	0,368	89,443	0	1015,14	7,1	9,1	9	1	1	1	1	1	1	1	1	1	0	1	-3,382664	274,606486	319,040488	0
15.01.2021	11:35:24	0	68,888567	2,729404	2,8725	357,3288	0,374	89,459	0	1015,16	7,1	9,1	9	1	1	1	1	1	1	1	1	1	0	1	-4,157858	274,703244	318,719963	0
15.01.2021	11:35:25	0	69,357241	4,435281	2,90925	10,8252	0,376	89,461	0	1015,16	7,1	9,1	9	1	1	1	1	1	1	1	1	1	0	1	-5,567301	274,680162	317,202015	0
15.01.2021	11:35:26	0	69,122971	3,411753	3,06375	1,9044	0,377	89,451	0	1015,2	7,3	9,1	9	1	1	1	1	1	1	1	1	1	0	1	-6,553911	274,703244	316,323909	0
15.01.2021	11:35:27	0	69,474488	4,321553	3,1185	4,4532	0,37	89,443	0	1015,12	7,3	9,1	9	1	1	1	1	1	1	1	1	1	0	1	-6,131078	274,684777	316,659926	0
15.01.2021	11:35:28	0	69,240217	4,207827	3,0015	357,6852	0,378	89,453	0	1015,04	7,3	9,1	9	1	1	1	1	1	1	1	1	1	0	1	-4,792107	274,715566	318,143646	0
15.01.2021	11:35:29	0	69,240261	3,980375	2,946	358,6644	0,374	89,446	0	1015,14	7,3	9,1	9	1	1	1	1	1	1	1	1	1	0	1	-5,073996	274,57434	317,198211	0
15.01.2021	11:35:30	0	69,240305	3,070574	3,1275	352,4328	0,37	89,452	0	1015,14	7,1	9,1	9	1	1	1	1	1	1	1	1	1	0	1	-4,862579	274,700165	318,000765	0
15.01.2021	11:35:31	0	69,474665	4,435272	3,21075	360	0,371	89,461	0	1015,14	7,3	9,1	9	1	1	1	1	1	1	1	1	1	0	1	-0	274,540721	322,114399	0
15.01.2021	11:35:32	0	69,240393	4,094096	3,231	357,9696	0,373	89,455	0	1015,1	7,1	9,1	9	1	1	1	1	1	1	1	1	1	0	1	-4,862579	274,724812	318,116654	0
15.01.2021	11:35:33	0	69,591912	3,525471	3,08775	346,8528	0,372	89,459	0	1015,2	7,3	9,1	9	1	1	1	1	1	1	1	1	1	0	1	-3,523608	274,611082	318,921132	0
15.01.2021	11:35:34	0	69,474798	4,321544	2,985	2,9952	0,378	89,465	0	1015,1	7,1	9,1	9	1	1	1	1	1	1	1	1	1	0	1	-3,735025	274,549884	318,42238	0
15.01.2021	11:35:35	0	69,592	2,84312	2,976	349,3836	0,376	89,446	0	1015,06	7,3	9,1	9	1	1	1	1	1	1	1	1	1	0	1	-5,003524	274,58811	317,333337	0
15.01.2021	11:35:36	0	69,592045	2,615669	3,1845	342,8064	0,377	89,46	0	1015,18	7,3	9,1	9	1	1	1	1	1	1	1	1	1	0	1	-2,325581	274,566694	319,910731	0
15.01.2021	11:35:37	0	69,474444	3,525466	3,3795	1,548	0,373	89,452	0	1015,12	7,3	9,2	9	1	1	1	1	1	1	1	1	1	0	1	-5,073996	274,689392	317,738703	0
15.01.2021	11:35:38	0	69,592133	4,776437	3,30225	1,9116	0,377	89,46	0	1015,16	7,1	9,1	9	1	1	1	1	1	1	1	1	1	0	1	-1,832276	274,666327	320,872012	0
15.01.2021	11:35:39	0	69,709336	4,321537	3,38025	359,1396	0,377	89,474	0	1015,1	7,3	9,1	9	1	1	1	1	1	1	1	1	1	0	1	-7,258633	274,670938	315,467325	0
15.01.2021	11:35:40	0	69,357905	2,95684	3,432	345,726	0,38	89,471	0	1015,2	7,3	9,1	9	1	1	1	1	1	1	1	1	1	0	1	-3,875969	274,562108	318,338815	0
15.01.2021	11:35:41	0	69,943742	4,662708	3,49725	358,074	0,377	89,522	0	1015,2	7,3	9,1	9	1	1	1	1	1	1	1	1	1	0	1	-3,875969	274,698626	318,980138	0
15.01.2021	11:35:42	0	69,709469	4,094084	3,32175	359,2008	0,378	89,465	0	1015,06	7,4	9,1	9	1	1	1	1	1	1	1	1	1	0	1	-7,047216	274,672475	315,685966	0
15.01.2021	11:35:43	0	69,826672	4,207807	3,19875	10,4256	0,379	89,449	0	1015,08	7,3	9,1	9	1	1	1	1	1	1	1	1	1	0	1	-1,127555	274,732521	321,88793	0
15.01.2021	11:35:44	0	69,592399	2,729388	3,297	17,334	0,38	89,471	0	1015,16	7,3	9,1	9	1	1	1	1	1	1	1	1	1	0	1	-0,775194	274,694008	322,059206	0
15.01.2021	11:35:45	0	69,826761	2,956836	3,222	17,6796	0,371	89,463	0	1015,1	7,1	9,1	9	1	1	1	1	1	1	1	1	1	0	1	-8,033827	274,559051	314,166608	0
15.01.2021	11:35:46	0	70,061124	4,662701	2,9565	13,914	0,38	89,479	0	1015,16	7,3	9,1	9	1	1	1	1	1	1	1	1	1	0	1	-5,144468	274,598827	317,242717	0
15.01.2021	11:35:47	0	70,529805	4,207802	2,751	17,694	0,382	89,472	0	1015,14	7,3	9,1	9	1	1	1	1	1	1	1	1	1	0	1	-6,8358	274,727895	316,157932	0
15.01.2021	11:35:48	0	70,061213	3,525455	2,682	6,066	0,38	89,471	0	1015,1	7,3	9,1	9	1	1	1	1	1	1	1	1	1	0	1	-1,973221	274,617213	320,500314	0
15.01.2021	11:35:49	0	70,295576	2,956832	2,52675	3,0096	0,381	89,487	0	1015,22	7,3	9,1	9	1	1	1	1	1	1	1	1	1	0	1	-8,949965	274,723271	314,02202	0
15.01.2021	11:35:50	0	70,41278	4,094074	2,412	350,3556	0,377	89,465	0	1015,12	7,3	9,1	9	1	1	1	1	1	1	1	1	1	0	1	-4,580691	274,60189	317,820879	0
15.01.2021	11:35:51	0	70,412824	2,843106	2,45175	343,0872	0,378	89,467	0	1015,16	7,3	9,1	9	1	1	1	1	1	1	1	1	1	0	1	-3,735025	274,57434	318,537182	0
15.01.2021	11:35:52	0	70,412869	5,003865	2,3385	334,5984	0,383	89,458	0	1015,08	7,3	9,1	9	1	1	1	1	1	1	1	1	1	0	1	-2,677942	274,717106	320,265056	0
15.01.2021	11:35:53	0	70,530073	4,321518	2,2305	356,1624	0,378	89,466	0	1015,12	7,3	9,1	9	1	1	1	1	1	1	1	1	1	0	1	-4,439746	274,743318	318,626521	0
15.01.2021	11:35:54	0	71,115916	5,003862	2,04075	342,6876	0,38	89,482	0	1015,22	7,3	9,1	9	1	1	1	1	1	1	1	1	1	0	1	-5,778717	274,683238	317,005056	0
15.01.2021	11:35:55	0	70,764482	4,776412	1,82325	323,334	0,381	89,481	0	1015,06	7,3	9,1	9	1	1	1	1	1	1	1	1	1	0	1	-2,748414	274,684777	320,04259	0
15.01.2021	11:35:56	0	70,530207	2,729377	1,74525	359,4996	0,381	89,482	0	1015,14	7,4	9,1	9	1	1	1	1	1	1	1	1	1	0	1	-2,60747	274,552939	319,564275	0
15.01.2021	11:35:57	0	70,881235	3,752893	1,7355	344,7144	0,376	89,469	0	1015,12	7,3	9,2	9	1	1	1	1	1	1	1	1	1	0	1	-0,140944	274,617213	322,33259	0
15.01.2021	11:35:58	0	71,233256	3,184272	1,8195	343,4544	0,383	89,493	0	1015,14	7,3	9,1	9	1	1	1	1	1	1	1	1	1	0	1	-3,312192	274,566694	318,92412	0
15.01.2021	11:35:59	0	71,115643	2,956823	2,0355	340,128	0,373	89,482	0	1015,04	7,3	9,2	9	1	1	1	1	1	1	1	1	1	0	1	-0,98661	274,60955	321,450933	0
15.01.2021	11:36:00	0	70,881911	3,184269	2,20125	348,3072	0,378	89,483	0	1015,16	7,3	9,1	9	1	1	1	1	1	1	1	1	1	0	1	-7,892882	274,754121	315,224201	0
15.01.2021	11:36:01	0	70,881911	3,184269	2,20125	348,3072	0,378	89,483	0	1015,16	7,3	9,1	9	1	1	1	1	1	1	1	1	1	0	1	-7,892882	274,754121	315,224201	0
15.01.2021	11:36:02	0	71,116277	2,95682	2,2365	354,3048	0,38	89,475	0	1015,08	7,3	9,1	9	1	1	1	1	1	1	1	1	1	0	1	-5,990134	274,690931	316,829798	0
15.01.2021	11:36:03	0	71,233482	2,615648	2,268	349,9416	0,386	89,489	0	1015,16	7,3	9,1	9	1	1	1	1	1	1	1	1	1	0	1	-5,21494	274,732521	317,800545	0
15.01.2021	11:36:04	0	71,819329	4,662675	2,10525	357,2928	0,379	89,483	0	1015,16	7,3	9,1	9	1	1	1	1	1	1	1	1	1	0	1	-7,047216	274,635616	315,512768	0
15.01.2021	11:36:05	0	71,350233	3,866607	1,95675	359,406	0,382	89,474	0	1015,12	7,3	9,2	9	1	1	1	1	1	1	1	1	1	0	1	-5,778717	274,743318	317,28755	0
15.01.2021	11:36:06	0	71,702259	3,639159	1,87725	345,4344	0,383	89,468	0	1015,08	7,3	9,1	9	1	1	1	1	1	1	1	1	1	0	1	-1,691332	274,627946	320,83262	0
15.01.2021	11:36:07	0	71,818962	4,890118	1,87125	352,1448	0,387	89,476	0	1014,96	7,3	9,2	9	1	1	1	1	1	1	1	1	1	0	1	-4,721635	274,74949	318,373666	0
15.01.2021	11:36:08	0	71,585189	3,297986	1,9575	344,286	0,384	89,486	0	1015,16	7,3	9,1	9	1	1	1	1	1	1	1	1	1	0	1	-4,439746	274,674012	318,300661	0
15.01.2021	11:36:09	0	71,585234	4,435221	1,95825	348,3108	0,386	89,488	0	1014,98	7,3	9,1	9	1	1	1	1	1	1	1	1	1	0	1	-6,483439	274,721729	316,481298	0
15.01.2021	11:36:10	0	71,936762	3,297984	2,007	351,0288	0,385	89,506	0	1015,08	7,3	9,1	9	1	1	1	1	1	1	1	1	1	0	1	-4,651163	274,700165	318,212181	0
15.01.2021	11:36:11	0	71,936808	5,003836	2,16975	353,6712	0,384	89,494	0	1015,16	7,3	9,1	9	1	1	1	1	1	1	1	1	1	0	1	-2,60747	274,578929	319,686282	0
15.01.2021	11:36:12	0	71,468209	2,843088	2,28375	1,1628	0,382	89,501	0	1015	7,3	9,1	9	1	1	1	1	1	1	1	1	1	0	1	-2,677942	274,680162	320,091373	0
15.01.2021	11:36:13	0	71,702576	3,411704	2,3415	360	0,378	89,496	0	1015,08	7,3	9,1	9	1	1	1	1	1	1	1	1	1	0	1	-0,775194	274,743318	322,291073	0
15.01.2021	11:36:14	0	72,171266	2,729362	2,49225	6,5052	0,385	89,492	0	1015,22	7,3	9,1	9	1	1	1	1	1	1	1	1	1	0	1	-3,030303	274,617213	319,443232	0
15.01.2021	11:36:15	0	72,171312	4,662659	2,85525	5,2236	0,394	89,498	0	1015,02	7,3	9,1	9	1	1	1	1	1	1	1	1	1	0	1	-6,131078	274,643289	316,464956	0
15.01.2021	11:36:16	0	72,171357	4,776381	3,00525	4,446	0,386	89,488	0	1015,06	7,3	9,1	9	1	1	1	1	1	1	1	1	1	0	1	-5,778717	274,744861	317,294807	0
15.01.2021	11:36:17	0	72,522887	3,980317	3,21	339,5736	0,382	89,494	0	1015,16	7,3	9,1	9	1	1	1	1	1	1	1	1	1	0	1	-5,144468	274,700165	317,718876	0
15.01.2021	11:36:18	0	72,171448	2,843082	3,24825	352,836	0,387	89,502	0	1015,12	7,3	9,1	9	1	1	1	1	1	1	1	1	1	0	1	-10,288936	274,709404	312,617845	0
15.01.2021	11:36:19	0	72,522978	4,321484	3,30225	359,1288	0,386	89,5	0	1015,22	7,3	9,1	9	1	1	1	1	1	1	1	1	1	0	1	-5,919662	274,723271	317,052323	0
15.01.2021	11:36:20	0	72,640186	4,548929	3,22275	351,396	0,385	89,504	0	1015,16	7,3	9,1	9	1	1	1	1	1	1	1	1	1	0	1	-1,62086	274,721729	321,343877	0
15.01.2021	11:36:21	0	72,756883	3,866589	3,1395	354,0168	0,391	89,507	0	1015,16	7,3	9,2	9	1	1	1	1	1	1	1	1	1	0	1	-4,862579	274,707864	318,036961	0
15.01.2021	11:36:22	0	72,874601	3,070525	2,86875	343,9512	0,387	89,507	0	1015,1	7,3	9,1	9	1	1	1	1	1	1	1	1	1	0	1	-1,127555	274,627946	321,396397	0
15.01.2021	11:36:23	0	72,405999	3,752863	2,77575	6,426	0,389	89,518	0	1015	7,3	9,1	9	1	1	1	1	1	1	1	1	1	0	1	-0,352361	274,578929	321,941391	0
15.01.2021	11:36:24	0	72,874692	3,752862	2,83725	0,1188	0,389	89,513	0	1014,94	7,3	9,1	9	1	1	1	1	1	1	1	1	1	0	1	-1,198027	274,635616	321,361957	0
15.01.2021	11:36:25	0	72,640414	3,752861	2,83575	3,762	0,387	89,512	0	1015,1	7,3	9,1	9	1	1	1	1	1	1	1	1	1	0	1	-5,919662	274,592702	316,438762	0
15.01.2021	11:36:26	0	73,109108	3,411691	2,817	1,908	0,393	89,522	0	1015,2	7,3	9,1	9	1	1	1	1	1	1	1	1	1	0	1	-6,060606	274,620279	316,42733	0
15.01.2021	11:36:27	0	72,991481	3,866582	2,97075	0,864	0,388	89,519	0	1015,2	7,3	9,2	9	1	1	1	1	1	1	1	1	1	0	1	-0,211416	274,623345	322,290924	0
15.01.2021	11:36:28	0	73,1092	3,980303	3,102	356,598	0,397	89,513	0	1015,3	7,3	9,1	9	1	1	1	1	1	1	1	1	1	0	1	-5,637773	274,74949	317,457528	0
15.01.2021	11:36:29	0	73,226408	5,117531	3,0465	360	0,39	89,5	0	1014,96	7,3	9,1	9	1	1	1	1	1	1	1	1	1	0	1	-2,818887	274,893561	320,954632	0
15.01.2021	11:36:30	0	73,577426	5,003807	2,9145	353,9124	0,393	89,512	0	1015,14	7,3	9,2	9	1	1	1	1	1	1	1	1	1	0	1	-2,043693	274,752578	321,066129	0
15.01.2021	11:36:31	0	73,225987	2,615625	3,01125	353,2392	0,394	89,507	0	1015,12	7,3	9,2	9	1	1	1	1	1	1	1	1	1	0	1	-4,087385	274,652501	318,551932	0
15.01.2021	11:36:32	0	73,578034	2,274456	3,1005	352,8864	0,389	89,501	0	1015,06	7,3	9,1	9	1	1	1	1	1	1	1	1	1	0	1	-7,610994	274,598827	314,776191	0
15.01.2021	11:36:33	0	73,57808	2,956792	3,12675	359,9784	0,393	89,51	0	1015,16	7,3	9,1	9	1	1	1	1	1	1	1	1	1	0	1	-0	274,684777	322,791004	0
15.01.2021	11:36:34	0	73,460963	2,729346	2,883	353,1924	0,39	89,515	0	1015,12	7,3	9,1	9	1	1	1	1	1	1	1	1	1	0	1	-5,355884	274,578929	316,937867	0
15.01.2021	11:36:35	0	73,929143	3,980295	2,832	25,4052	0,396	89,511	0	1015,12	7,3	9,2	9	1	1	1	1	1	1	1	1	1	0	1	-3,875969	274,674012	318,864439	0
15.01.2021	11:36:36	0	73,577703	3,752848	2,72475	13,9032	0,389	89,496	0	1015,16	7,3	9,2	9	1	1	1	1	1	1	1	1	1	0	1	-3,171247	274,60189	319,230322	0
15.01.2021	11:36:37	0	73,929753	2,615621	2,394	360	0,392	89,512	0	1015,12	7,3	9,1	9	1	1	1	1	1	1	1	1	1	0	1	-3,100775	274,746404	319,980007	0
15.01.2021	11:36:38	0	73,695474	4,548904	2,25525	1,9296	0,394	89,518	0	1015,2	7,3	9,1	9	1	1	1	1	1	1	1	1	1	0	1	-2,396054	274,730979	320,61218	0
15.01.2021	11:36:39	0	74,281335	2,843064	2,3805	353,9376	0,398	89,523	0	1015,18	7,3	9,1	9	1	1	1	1	1	1	1	1	1	0	1	-7,047216	274,723271	315,924768	0
15.01.2021	11:36:40	0	73,929374	2,729341	2,469	6,0336	0,388	89,507	0	1015,2	7,3	9,2	9	1	1	1	1	1	1	1	1	1	0	1	-4,792107	274,714025	318,136402	0
15.01.2021	11:36:41	0	74,047102	2,72934	2,457	10,8072	0,393	89,518	0	1015,12	7,3	9,1	9	1	1	1	1	1	1	1	1	1	0	1	-1,409443	274,58811	320,927417	0
15.01.2021	11:36:42	0	74,398638	4,776344	2,4045	6,0588	0,396	89,516	0	1015,1	7,3	9,1	9	1	1	1	1	1	1	1	1	1	0	1	-5,003524	274,63715	317,563669	0
15.01.2021	11:36:43	0	74,515848	5,003787	2,33625	8,982	0,397	89,498	0	1015,2	7,3	9,1	9	1	1	1	1	1	1	1	1	1	0	1	-4,298802	274,764931	318,869133	0
15.01.2021	11:36:44	0	74,398731	2,956782	2,31	2,2932	0,402	89,519	0	1015,16	7,3	9,1	9	1	1	1	1	1	1	1	1	1	0	1	-0,563777	274,706324	322,328522	0
15.01.2021	11:36:45	0	74,633104	3,184226	2,181	4,4604	0,398	89,517	0	1015,24	7,3	9,1	9	1	1	1	1	1	1	1	1	1	0	1	-0	274,591172	322,351235	0
15.01.2021	11:36:46	0	75,101279	5,231227	2,154	357,6024	0,404	89,527	0	1015,26	7,3	9,2	9	1	1	1	1	1	1	1	1	1	0	1	-6,412967	274,741775	316,646044	0
15.01.2021	11:36:47	0	74,516034	3,411669	2,11275	355,4676	0,399	89,521	0	1015,22	7,3	9,1	9	1	1	1	1	1	1	1	1	1	0	1	-1,479915	274,611082	320,964825	0
15.01.2021	11:36:48	0	75,219063	3,752835	2,0295	353,9952	0,399	89,528	0	1015,14	7,3	9,1	9	1	1	1	1	1	1	1	1	1	0	1	-7,047216	274,724812	315,932017	0
15.01.2021	11:36:49	0	75,10142	3,0705	2,0235	5,2128	0,402	89,524	0	1015,16	7,3	9,2	9	1	1	1	1	1	1	1	1	1	0	1	-8,45666	274,754121	314,660424	0
15.01.2021	11:36:50	0	75,101467	2,729333	1,947	0,8532	0,403	89,536	0	1015,22	7,3	9,2	9	1	1	1	1	1	1	1	1	1	0	1	-2,255109	274,591172	320,096126	0
15.01.2021	11:36:51	0	75,570696	4,776331	1,87575	351,7092	0,404	89,524	0	1015,12	7,3	9,1	9	1	1	1	1	1	1	1	1	1	0	1	-6,483439	274,660181	316,191966	0
15.01.2021	11:36:52	0	75,335887	4,207719	1,917	349,0488	0,406	89,55	0	1015,22	7,3	9,2	9	1	1	1	1	1	1	1	1	1	0	1	-1,761804	274,600359	320,632573	0
15.01.2021	11:36:53	0	75,57079	3,752829	2,04075	340,5456	0,401	89,55	0	1015,18	7,3	9,1	9	1	1	1	1	1	1	1	1	1	0	1	-4,510218	274,677087	318,244642	0
15.01.2021	11:36:54	0	75,688001	3,525384	1,914	336,1104	0,398	89,537	0	1015,14	7,3	9,1	9	1	1	1	1	1	1	1	1	1	0	1	-5,778717	274,758753	317,360155	0
15.01.2021	11:36:55	0	75,921845	2,843051	1,70475	339,84	0,397	89,535	0	1015,06	7,3	9,2	9	1	1	1	1	1	1	1	1	1	0	1	-2,043693	274,712485	320,877573	0
15.01.2021	11:36:56	0	75,570932	3,297938	1,6365	334,2132	0,4	89,542	0	1015,1	7,3	9,1	9	1	1	1	1	1	1	1	1	1	0	1	-3,946441	274,612615	318,505497	0
15.01.2021	11:36:57	0	76,039636	4,207712	1,92975	349,056	0,405	89,547	0	1015,1	7,3	9,1	9	1	1	1	1	1	1	1	1	1	0	1	-0,704722	274,672475	322,028461	0
15.01.2021	11:36:58	0	75,68819	3,297936	2,14275	346,572	0,404	89,529	0	1015,04	7,3	9,1	9	1	1	1	1	1	1	1	1	1	0	1	-2,043693	274,604954	320,372265	0
15.01.2021	11:36:59	0	76,156895	4,776319	2,24175	359,4276	0,406	89,55	0	1015,16	7,3	9,1	9	1	1	1	1	1	1	1	1	1	0	1	-6,483439	274,735605	316,546552	0
15.01.2021	11:37:00	0	75,804966	2,729324	2,31675	353,2248	0,404	89,561	0	1015,18	7,3	9,2	9	1	1	1	1	1	1	1	1	1	0	1	-7,751938	274,690931	315,067994	0
15.01.2021	11:37:01	0	75,804966	2,729324	2,31675	353,2248	0,404	89,561	0	1015,18	7,3	9,2	9	1	1	1	1	1	1	1	1	1	0	1	-7,258633	274,74949	315,836668	0
15.01.2021	11:37:02	0	76,273668	5,231202	2,376	358,3368	0,407	89,558	0	1015,24	7,3	9,2	9	1	1	1	1	1	1	1	1	1	0	1	-0	274,724812	322,979233	0
15.01.2021	11:37:03	0	76,273716	3,525374	2,43375	352,782	0,407	89,554	0	1015,14	7,3	9,2	9	1	1	1	1	1	1	1	1	1	0	1	-7,399577	274,757209	315,732032	0
15.01.2021	11:37:04	0	76,157133	3,639095	2,4195	357,966	0,41	89,555	0	1015,16	7,3	9,1	9	1	1	1	1	1	1	1	1	1	0	1	-8,45666	274,724812	314,522573	0
15.01.2021	11:37:05	0	76,508139	2,72932	2,45475	354,1932	0,409	89,558	0	1015,14	7,3	9,2	9	1	1	1	1	1	1	1	1	1	0	1	-4,016913	274,741775	319,042097	0
15.01.2021	11:37:06	0	76,860217	4,776309	2,5305	341,2404	0,412	89,564	0	1015,14	7,3	9,1	9	1	1	1	1	1	1	1	1	1	0	1	-4,862579	274,743318	318,203688	0
15.01.2021	11:37:07	0	76,50877	2,615597	2,6535	10,0476	0,41	89,57	0	1015,16	7,3	9,1	9	1	1	1	1	1	1	1	1	1	0	1	-4,792107	274,718647	318,158137	0
15.01.2021	11:37:08	0	76,977478	5,458636	2,68575	359,46	0,408	89,575	0	1015,1	7,3	9,1	9	1	1	1	1	1	1	1	1	1	0	1	-0,563777	274,761842	322,589625	0
15.01.2021	11:37:09	0	76,743196	3,070482	2,74725	3,3732	0,41	89,577	0	1015,04	7,3	9,1	9	1	1	1	1	1	1	1	1	1	0	1	-4,651163	274,734063	318,371575	0
15.01.2021	11:37:10	0	76,860409	4,890025	2,673	0,126	0,407	89,578	0	1015,1	7,3	9,1	9	1	1	1	1	1	1	1	1	1	0	1	-1,479915	274,760297	321,666222	0
15.01.2021	11:37:11	0	76,977622	2,615594	2,51025	8,9712	0,412	89,58	0	1015,16	7,3	9,1	9	1	1	1	1	1	1	1	1	1	0	1	-8,245243	274,707864	314,654297	0
15.01.2021	11:37:12	0	76,977131	3,98025	2,37375	35,0856	0,412	89,589	0	1015	7,3	9,2	9	1	1	1	1	1	1	1	1	1	0	1	-6,765328	274,61568	315,701008	0
15.01.2021	11:37:13	0	77,211508	5,003742	2,40525	13,536	0,409	89,59	0	1015,22	7,3	9,2	9	1	1	1	1	1	1	1	1	1	0	1	-2,60747	274,737147	320,429774	0
15.01.2021	11:37:14	0	76,977226	3,070477	2,36775	25,0272	0,415	89,58	0	1015,16	7,3	9,2	9	1	1	1	1	1	1	1	1	1	0	1	-9,866103	274,718647	313,084141	0
15.01.2021	11:37:15	0	77,563098	3,639083	2,2185	10,4544	0,414	89,596	0	1015,08	7,3	9,2	9	1	1	1	1	1	1	1	1	1	0	1	-10,147992	274,74949	312,947309	0
15.01.2021	11:37:16	0	77,094487	2,388147	2,12025	16,4844	0,415	89,583	0	1015,26	7,3	9,2	9	1	1	1	1	1	1	1	1	1	0	1	-5,778717	274,780383	317,461921	0
15.01.2021	11:37:17	0	77,680904	2,843032	2,0535	17,2296	0,416	89,592	0	1015,12	7,3	9,1	9	1	1	1	1	1	1	1	1	1	0	1	-5,21494	274,643289	317,381094	0
15.01.2021	11:37:18	0	77,212289	2,956752	2,06325	9,3564	0,417	89,601	0	1015,12	7,3	9,1	9	1	1	1	1	1	1	1	1	1	0	1	-6,483439	274,6694	316,235295	0
15.01.2021	11:37:19	0	77,797621	5,344896	2,12925	360	0,412	89,578	0	1015,14	7,3	9,2	9	1	1	1	1	1	1	1	1	1	0	1	-3,664553	274,737147	319,372692	0
15.01.2021	11:37:20	0	77,680504	5,231174	1,99575	348,3396	0,41	89,598	0	1015,12	7,3	9,2	9	1	1	1	1	1	1	1	1	1	0	1	-4,510218	274,643289	318,085816	0
15.01.2021	11:37:21	0	77,563931	3,070471	1,84875	10,7856	0,416	89,595	0	1015,08	7,3	9,1	9	1	1	1	1	1	1	1	1	1	0	1	-5,567301	274,634082	316,985475	0
15.01.2021	11:37:22	0	78,032097	4,093959	1,83225	356,9256	0,413	89,587	0	1015,16	7,3	9,2	9	1	1	1	1	1	1	1	1	1	0	1	-5,21494	274,727895	317,778791	0
15.01.2021	11:37:23	0	77,797814	3,752795	1,81575	357,57	0,418	89,594	0	1015,18	7,3	9,2	9	1	1	1	1	1	1	1	1	1	0	1	-8,033827	274,611082	314,410914	0
15.01.2021	11:37:24	0	77,915028	4,776283	1,773	4,8492	0,421	89,608	0	1015,14	7,3	9,2	9	1	1	1	1	1	1	1	1	1	0	1	-4,087385	274,76802	319,095084	0
15.01.2021	11:37:25	0	78,032788	4,548812	1,77825	8,2548	0,419	89,606	0	1015,2	7,3	9,1	9,1	1	1	1	1	1	1	1	1	1	0	1	-3,24172	274,803585	320,108107	0
15.01.2021	11:37:26	0	78,03229	4,548838	1,82025	6,0552	0,416	89,59	0	1015,18	7,3	9,2	9	1	1	1	1	1	1	1	1	1	0	1	-4,721635	274,727895	318,272097	0
15.01.2021	11:37:27	0	77,680841	2,501845	1,8285	9,7488	0,427	89,583	0	1015,06	7,3	9,2	9,1	1	1	1	1	1	1	1	1	1	0	1	-3,171247	274,627946	319,352704	0
15.01.2021	11:37:28	0	78,266718	2,956743	1,869	12,8304	0,42	89,597	0	1015,2	7,3	9,2	9	1	1	1	1	1	1	1	1	1	0	1	-3,735025	274,805132	319,622087	0
15.01.2021	11:37:29	0	78,501648	4,435113	1,87725	10,8	0,419	89,602	0	1015,12	7,3	9,1	9	1	1	1	1	1	1	1	1	1	0	1	-5,003524	274,703244	317,874297	0
15.01.2021	11:37:30	0	78,032483	3,525346	1,9215	11,7144	0,427	89,587	0	1015,32	7,3	9,2	9	1	1	1	1	1	1	1	1	1	0	1	-9,090909	274,627946	313,433042	0
15.01.2021	11:37:31	0	78,501196	5,003715	1,87125	7,1244	0,428	89,6	0	1015,24	7,3	9,2	9	1	1	1	1	1	1	1	1	1	0	1	-8,80902	274,763386	314,351648	0
15.01.2021	11:37:32	0	78,266912	3,07046	1,872	16,488	0,429	89,603	0	1015,2	7,3	9,2	9	1	1	1	1	1	1	1	1	1	0	1	-9,44327	274,780383	313,797369	0
15.01.2021	11:37:33	0	78,61901	4,321361	1,7295	10,8216	0,429	89,61	0	1015,3	7,3	9,1	9,1	1	1	1	1	1	1	1	1	1	0	1	-5,778717	274,643289	316,817317	0
15.01.2021	11:37:34	0	78,501341	2,843017	1,578	3,762	0,425	89,589	0	1015,12	7,4	9,2	9	1	1	1	1	1	1	1	1	1	0	1	-4,792107	274,712485	318,129159	0
15.01.2021	11:37:35	0	78,50139	4,548799	1,51125	11,2032	0,426	89,639	0	1015,48	7,3	9,2	9,1	1	1	1	1	1	1	1	1	1	0	1	-4,369274	274,611082	318,075466	0
15.01.2021	11:37:36	0	78,501438	4,321358	1,5975	9,3564	0,427	89,614	0	1015,1	7,4	9,2	9,1	1	1	1	1	1	1	1	1	1	0	1	-4,580691	274,686315	318,217544	0
15.01.2021	11:37:37	0	78,73582	3,639037	1,74375	10,4256	0,425	89,617	0	1015,16	7,3	9,2	9,1	1	1	1	1	1	1	1	1	1	0	1	-5,073996	274,802037	318,268547	0
15.01.2021	11:37:38	0	78,619253	3,639058	1,91025	16,8444	0,424	89,604	0	1015,18	7,3	9,1	9	1	1	1	1	1	1	1	1	1	0	1	-8,80902	274,721729	314,155717	0
15.01.2021	11:37:39	0	78,267251	3,070454	2,001	21,0132	0,429	89,6	0	1015,1	7,3	9,2	9	1	1	1	1	1	1	1	1	1	0	1	-8,879493	274,654036	313,767041	0
15.01.2021	11:37:40	0	78,384466	2,729292	1,98975	15,3936	0,432	89,598	0	1015,14	7,3	9,2	9	1	1	1	1	1	1	1	1	1	0	1	-7,470049	274,809776	315,908921	0
15.01.2021	11:37:41	0	79,204681	4,889979	1,899	19,1304	0,43	89,598	0	1015,18	7,3	9,2	9	1	1	1	1	1	1	1	1	1	0	1	-9,725159	274,687853	313,080308	0
15.01.2021	11:37:42	0	78,501729	2,84301	1,836	22,068	0,425	89,598	0	1015,18	7,3	9,2	9	1	1	1	1	1	1	1	1	1	0	1	-6,8358	274,626412	315,680947	0
15.01.2021	11:37:43	0	79,321946	4,207654	1,68375	353,9592	0,43	89,607	0	1015,26	7,3	9,2	9	1	1	1	1	1	1	1	1	1	0	1	-6,906272	274,817519	316,509144	0
15.01.2021	11:37:44	0	79,087661	4,321373	1,4265	336,06	0,433	89,603	0	1014,94	7,3	9,2	9	1	1	1	1	1	1	1	1	1	0	1	-3,24172	274,744861	319,831805	0
15.01.2021	11:37:45	0	78,619042	2,388112	1,27875	1,926	0,437	89,615	0	1015,16	7,3	9,2	9,1	1	1	1	1	1	1	1	1	1	0	1	-2,889359	274,61568	319,576977	0
15.01.2021	11:37:46	0	78,970591	3,98021	1,28325	13,914	0,433	89,619	0	1015,06	7,3	9,2	9	1	1	1	1	1	1	1	1	1	0	1	-5,990134	274,74949	317,105167	0
15.01.2021	11:37:47	0	78,853473	2,615566	1,62525	350,28	0,425	89,602	0	1015,1	7,3	9,2	9	1	1	1	1	1	1	1	1	1	0	1	-2,889359	274,629479	319,641798	0
15.01.2021	11:37:48	0	79,087856	2,956708	2,00175	354,6648	0,43	89,606	0	1015,24	7,3	9,2	9,1	1	1	1	1	1	1	1	1	1	0	1	-6,412967	274,703244	316,464853	0
15.01.2021	11:37:49	0	78,619236	2,729284	2,14125	345,4128	0,437	89,61	0	1015,14	7,3	9,2	9	1	1	1	1	1	1	1	1	1	0	1	-5,567301	274,635616	316,992683	0
15.01.2021	11:37:50	0	79,439455	4,662526	2,17575	338,778	0,431	89,587	0	1014,96	7,3	9,2	9	1	1	1	1	1	1	1	1	1	0	1	-7,82241	274,766475	315,352792	0
15.01.2021	11:37:51	0	79,322337	5,117405	2,21625	334,602	0,434	89,603	0	1015,08	7,3	9,2	9	1	1	1	1	1	1	1	1	1	0	1	-6,272023	274,63715	316,29517	0
15.01.2021	11:37:52	0	78,970883	4,435083	2,277	345,42	0,432	89,58	0	1015,1	7,3	9,2	9	1	1	1	1	1	1	1	1	1	0	1	-1,902748	274,766475	321,272454	0
15.01.2021	11:37:53	0	79,439602	4,321362	2,3535	338,3388	0,433	89,608	0	1015,08	7,3	9,2	9	1	1	1	1	1	1	1	1	1	0	1	-1,057082	274,677087	321,697778	0
15.01.2021	11:37:54	0	79,205316	3,86648	2,39175	340,146	0,438	89,594	0	1015,06	7,3	9,2	9	1	1	1	1	1	1	1	1	1	0	1	-7,540521	274,792754	315,758331	0
15.01.2021	11:37:55	0	79,088197	2,501839	2,337	331,5024	0,438	89,611	0	1015,12	7,3	9,2	9	1	1	1	1	1	1	1	1	1	0	1	-5,496829	274,706324	317,395471	0
15.01.2021	11:37:56	0	79,205413	3,525318	2,1885	347,2164	0,435	89,575	0	1015,18	7,3	9,2	9	1	1	1	1	1	1	1	1	1	0	1	-6,976744	274,800489	316,358515	0
15.01.2021	11:37:57	0	79,439798	3,070438	2,08575	354,636	0,439	89,59	0	1015,22	7,3	9,2	9	1	1	1	1	1	1	1	1	1	0	1	-8,104299	274,726354	314,882183	0
15.01.2021	11:37:58	0	79,322678	3,070437	1,95075	0,8532	0,441	89,599	0	1015,14	7,3	9,2	9	1	1	1	1	1	1	1	1	1	0	1	-4,580691	274,809776	318,79828	0
15.01.2021	11:37:59	0	79,322727	4,776205	1,86525	354,7836	0,44	89,598	0	1015,06	7,3	9,2	9,1	1	1	1	1	1	1	1	1	1	0	1	-9,654686	274,778837	313,578679	0
15.01.2021	11:38:00	0	79,674329	5,00367	1,716	3,7944	0,435	89,595	0	1015,08	7,4	9,2	9	1	1	1	1	1	1	1	1	1	0	1	-9,090909	274,650965	313,541192	0
15.01.2021	11:38:01	0	79,674329	5,00367	1,716	3,7944	0,435	89,595	0	1015,08	7,4	9,2	9	1	1	1	1	1	1	1	1	1	0	1	-2,184637	274,677087	320,570223	0
15.01.2021	11:38:02	0	79,55721	2,956713	1,6695	13,914	0,443	89,6	0	1015,18	7,3	9,2	9	1	1	1	1	1	1	1	1	1	0	1	-4,792107	274,670938	317,933851	0
15.01.2021	11:38:03	0	79,674427	3,297852	1,56975	25,4808	0,442	89,584	0	1015,12	7,3	9,2	9,1	1	1	1	1	1	1	1	1	1	0	1	-6,694856	274,809776	316,684115	0
15.01.2021	11:38:04	0	79,205803	4,54876	1,5525	15,7608	0,444	89,578	0	1015,08	7,4	9,2	9,1	1	1	1	1	1	1	1	1	1	0	1	-2,184637	274,73869	320,859862	0
15.01.2021	11:38:05	0	79,557356	3,639028	1,518	7,5096	0,442	89,597	0	1015,12	7,3	9,2	9	1	1	1	1	1	1	1	1	1	0	1	-7,117689	274,800489	316,217571	0
15.01.2021	11:38:06	0	79,557405	4,207625	1,5075	1,17	0,445	89,59	0	1015,12	7,3	9,2	9	1	1	1	1	1	1	1	1	1	0	1	-3,805497	274,721729	319,15924	0
15.01.2021	11:38:07	0	79,323117	2,842972	1,5765	1,2636	0,442	89,595	0	1015,12	7,4	9,2	9,1	1	1	1	1	1	1	1	1	1	0	1	-5,144468	274,803585	318,205359	0
15.01.2021	11:38:08	0	79,909009	3,752745	1,61025	0,4896	0,446	89,605	0	1015,18	7,3	9,2	9	1	1	1	1	1	1	1	1	1	0	1	-2,114165	274,780383	321,126474	0
15.01.2021	11:38:09	0	79,557552	4,207596	1,70475	10,4364	0,444	89,596	0	1015,2	7,3	9,2	9,1	1	1	1	1	1	1	1	1	1	0	1	-5,496829	274,689392	317,31587	0
15.01.2021	11:38:10	0	79,674769	4,321314	1,76475	13,6152	0,444	89,583	0	1015,2	7,4	9,2	9,1	1	1	1	1	1	1	1	1	1	0	1	-1,198027	274,644824	321,405219	0
15.01.2021	11:38:11	0	79,791987	4,889936	1,8045	10,8108	0,449	89,613	0	1015,16	7,3	9,2	9	1	1	1	1	1	1	1	1	1	0	1	-8,45666	274,718647	314,493584	0
15.01.2021	11:38:12	0	79,674867	2,842968	1,8	358,6752	0,445	89,598	0	1015,18	7,4	9,2	9,1	1	1	1	1	1	1	1	1	1	0	1	-1,902748	274,652501	320,736569	0
15.01.2021	11:38:13	0	79,557747	3,070423	1,7805	0	0,445	89,59	0	1015,04	7,3	9,2	9	1	1	1	1	1	1	1	1	1	0	1	-2,959831	274,730979	320,048402	0
15.01.2021	11:38:14	0	79,323457	2,842966	1,8045	359,46	0,446	89,594	0	1015,26	7,4	9,2	9,1	1	1	1	1	1	1	1	1	1	0	1	-7,540521	274,658644	315,127665	0
15.01.2021	11:38:15	0	79,909351	2,956684	1,82325	358,3728	0,439	89,598	0	1014,96	7,3	9,2	9,1	1	1	1	1	1	1	1	1	1	0	1	-4,862579	274,788114	318,414438	0
15.01.2021	11:38:16	0	79,557893	3,525276	1,82175	356,8788	0,451	89,604	0	1015,16	7,4	9,2	9,1	1	1	1	1	1	1	1	1	1	0	1	-5,21494	274,661717	317,467685	0
15.01.2021	11:38:17	0	80,026618	4,548742	1,85475	10,8036	0,445	89,604	0	1015,08	7,3	9,2	9,1	1	1	1	1	1	1	1	1	1	0	1	-2,114165	274,718647	320,836079	0
15.01.2021	11:38:18	0	79,55799	3,070418	1,82925	358,38	0,445	89,586	0	1015,08	7,4	9,2	9	1	1	1	1	1	1	1	1	1	0	1	-6,624383	274,655572	316,029367	0
15.01.2021	11:38:19	0	80,026716	4,548767	1,84425	13,5324	0,443	89,603	0	1015,12	7,4	9,2	9	1	1	1	1	1	1	1	1	1	0	1	-9,866103	274,700165	312,997241	0
15.01.2021	11:38:20	0	79,792426	3,63899	1,84875	4,4496	0,446	89,592	0	1015,26	7,4	9,2	9,1	1	1	1	1	1	1	1	1	1	0	1	-9,513742	274,661717	313,168883	0
15.01.2021	11:38:21	0	79,675305	3,75273	1,812	18,0612	0,446	89,595	0	1015,12	7,4	9,2	9	1	1	1	1	1	1	1	1	1	0	1	-4,439746	274,660181	318,235659	0
15.01.2021	11:38:22	0	79,909693	2,729241	1,68525	351,018	0,449	89,596	0	1015,14	7,4	9,2	9,1	1	1	1	1	1	1	1	1	1	0	1	-4,369274	274,703244	318,508546	0
15.01.2021	11:38:23	0	79,558233	3,525269	1,53975	357,948	0,451	89,595	0	1015,18	7,4	9,2	9,1	1	1	1	1	1	1	1	1	1	0	1	-4,22833	274,792754	319,070523	0
15.01.2021	11:38:24	0	80,144131	4,662451	1,57575	0,9576	0,444	89,582	0	1015,14	7,4	9,2	9,1	1	1	1	1	1	1	1	1	1	0	1	-7,540521	274,763386	315,620147	0
15.01.2021	11:38:25	0	79,79267	2,501802	1,7025	349,8588	0,447	89,602	0	1015,18	7,3	9,2	9,1	1	1	1	1	1	1	1	1	1	0	1	-1,338971	274,698626	321,517136	0
15.01.2021	11:38:26	0	80,144228	4,662476	1,8525	2,2932	0,444	89,588	0	1015,06	7,4	9,2	9	1	1	1	1	1	1	1	1	1	0	1	-1,62086	274,823715	321,823725	0
15.01.2021	11:38:27	0	80,144277	2,501801	2,0925	1,17	0,45	89,596	0	1015,2	7,3	9,2	9,1	1	1	1	1	1	1	1	1	1	0	1	-4,580691	274,695547	318,260944	0
15.01.2021	11:38:28	0	79,909986	4,207573	2,31375	15,012	0,446	89,593	0	1015,06	7,4	9,2	9,1	1	1	1	1	1	1	1	1	1	0	1	-8,668076	274,836114	314,834881	0
15.01.2021	11:38:29	0	80,027205	2,615517	2,27475	356,5692	0,449	89,576	0	1015,04	7,4	9,2	9,1	1	1	1	1	1	1	1	1	1	0	1	-9,090909	274,730979	313,917324	0
15.01.2021	11:38:30	0	79,792913	2,501799	2,30475	9,3528	0,457	89,612	0	1015,22	7,4	9,2	9,1	1	1	1	1	1	1	1	1	1	0	1	-5,21494	274,670938	317,511018	0
15.01.2021	11:38:31	0	79,792962	2,729234	2,277	3,7656	0,451	89,605	0	1015,16	7,3	9,2	9,1	1	1	1	1	1	1	1	1	1	0	1	-4,651163	274,677087	318,103697	0
15.01.2021	11:38:32	0	80,261692	4,889905	2,37225	3,7656	0,45	89,59	0	1015,1	7,4	9,2	9	1	1	1	1	1	1	1	1	1	0	1	-5,003524	274,726354	317,982958	0
15.01.2021	11:38:33	0	80,0274	2,501796	2,3985	6,066	0,452	89,606	0	1015,16	7,4	9,2	9,1	1	1	1	1	1	1	1	1	1	0	1	-7,188161	274,837664	316,322096	0
15.01.2021	11:38:34	0	80,37896	5,003591	2,436	13,1616	0,451	89,584	0	1015,1	7,4	9,2	9,1	1	1	1	1	1	1	1	1	1	0	1	-7,470049	274,78966	315,814246	0
15.01.2021	11:38:35	0	80,49618	4,435	2,66775	13,1652	0,46	89,604	0	1015,06	7,4	9,2	9,1	1	1	1	1	1	1	1	1	1	0	1	-6,906272	274,690931	315,91366	0
15.01.2021	11:38:36	0	79,793205	2,501794	2,6175	360	0,456	89,622	0	1015,16	7,4	9,2	9,1	1	1	1	1	1	1	1	1	1	0	1	-2,889359	274,856278	320,70855	0
15.01.2021	11:38:37	0	80,144766	3,184101	2,50275	4,842	0,455	89,607	0	1015,18	7,3	9,2	9,1	1	1	1	1	1	1	1	1	1	0	1	-14,587738	274,769565	308,602001	0
15.01.2021	11:38:38	0	80,379156	3,525253	2,44875	360	0,462	89,612	0	1015,26	7,4	9,2	9,1	1	1	1	1	1	1	1	1	1	0	1	-10,500352	274,650965	312,131749	0
15.01.2021	11:38:39	0	80,144863	4,207559	2,271	4,8276	0,457	89,62	0	1014,92	7,4	9,2	9,1	1	1	1	1	1	1	1	1	1	0	1	-12,262156	274,777291	310,963936	0
15.01.2021	11:38:40	0	80,496425	4,207583	2,1975	0,1116	0,458	89,62	0	1015,12	7,4	9,2	9	1	1	1	1	1	1	1	1	1	0	1	-7,610994	274,780383	315,629645	0
15.01.2021	11:38:41	0	80,379303	3,297815	2,16075	351,2988	0,46	89,62	0	1015,1	7,4	9,2	9,1	1	1	1	1	1	1	1	1	1	0	1	-2,325581	274,690931	320,49435	0
15.01.2021	11:38:42	0	80,262181	4,434991	2,13975	14,2884	0,463	89,614	0	1015,1	7,4	9,2	9,1	1	1	1	1	1	1	1	1	1	0	1	-3,735025	274,850072	319,833655	0
15.01.2021	11:38:43	0	80,027887	2,501804	2,001	5,22	0,461	89,615	0	1015,22	7,4	9,2	9	1	1	1	1	1	1	1	1	1	0	1	-6,906272	274,746404	316,174511	0
15.01.2021	11:38:44	0	80,145107	2,615506	1,86825	357,2136	0,457	89,598	0	1015,16	7,4	9,2	9,1	1	1	1	1	1	1	1	1	1	0	1	-1,973221	274,826814	321,485953	0
15.01.2021	11:38:45	0	80,49667	4,662422	1,86	356,2308	0,461	89,609	0	1015,18	7,4	9,2	9,1	1	1	1	1	1	1	1	1	1	0	1	-2,396054	274,803585	320,953773	0
15.01.2021	11:38:46	0	80,262376	4,662421	1,76775	1,5516	0,464	89,602	0	1015,1	7,4	9,2	9,1	1	1	1	1	1	1	1	1	1	0	1	-7,258633	274,822166	316,178659	0
15.01.2021	11:38:47	0	80,613939	4,548702	1,84575	9,3456	0,457	89,601	0	1015,12	7,4	9,2	9,1	1	1	1	1	1	1	1	1	1	0	1	-5,919662	274,817519	317,495754	0
15.01.2021	11:38:48	0	80,496816	4,776135	1,93575	7,0992	0,466	89,593	0	1015,3	7,4	9,2	9,1	1	1	1	1	1	1	1	1	1	0	1	-3,59408	274,758753	319,544792	0
15.01.2021	11:38:49	0	80,379693	4,776134	2,04975	10,44	0,463	89,607	0	1015,14	7,4	9,2	9,1	1	1	1	1	1	1	1	1	1	0	1	-4,580691	274,684777	318,210313	0
15.01.2021	11:38:50	0	80,262571	3,297806	2,094	15,0084	0,466	89,599	0	1015,16	7,4	9,2	9,1	1	1	1	1	1	1	1	1	1	0	1	-5,919662	274,694008	316,914738	0
15.01.2021	11:38:51	0	80,496963	4,548696	2,298	15,7824	0,467	89,594	0	1015,18	7,4	9,2	9,1	1	1	1	1	1	1	1	1	1	0	1	-7,258633	274,820617	316,171366	0
15.01.2021	11:38:52	0	80,262668	3,070369	3,0915	16,8444	0,466	89,584	0	1015,22	7,4	9,2	9,1	1	1	1	1	1	1	1	1	1	0	1	-10,993658	274,800489	312,341602	0
15.01.2021	11:38:53	0	80,262717	2,956651	3,38325	11,7108	0,465	89,591	0	1015,1	7,4	9,2	9,1	1	1	1	1	1	1	1	1	1	0	1	-8,879493	274,737147	314,157752	0
15.01.2021	11:38:54	0	80,028421	4,548692	3,57375	4,9176	0,462	89,591	0	1015,18	7,4	9,2	9,1	1	1	1	1	1	1	1	1	1	0	1	-6,272023	274,84852	317,289352	0
15.01.2021	11:38:55	0	80,02847	3,070367	3,51225	9,4572	0,466	89,59	0	1015,2	7,4	9,2	9,1	1	1	1	1	1	1	1	1	1	0	1	-7,258633	274,746404	315,82215	0
15.01.2021	11:38:56	0	80,497207	3,866386	3,222	0,4788	0,469	89,584	0	1015,04	7,4	9,2	9,1	1	1	1	1	1	1	1	1	1	0	1	-4,651163	274,687853	318,154304	0
15.01.2021	11:38:57	0	80,497255	3,411516	3,204	7,4988	0,47	89,591	0	1015,2	7,4	9,2	9,1	1	1	1	1	1	1	1	1	1	0	1	-10,711769	274,805132	312,645343	0
15.01.2021	11:38:58	0	80,380132	3,525233	3,2895	3,006	0,468	89,584	0	1015,16	7,4	9,2	9,1	1	1	1	1	1	1	1	1	1	0	1	-5,144468	274,747947	317,943574	0
15.01.2021	11:38:59	0	79,911491	3,070363	2,98875	360	0,47	89,573	0	1015,22	7,4	9,2	9,1	1	1	1	1	1	1	1	1	1	0	1	-3,453136	274,853175	320,130157	0
15.01.2021	11:39:00	0	80,263105	4,434966	2,712	2,3076	0,474	89,575	0	1015,22	7,4	9,2	9,1	1	1	1	1	1	1	1	1	1	0	1	-5,778717	274,763386	317,381951	0
15.01.2021	11:39:01	0	80,263105	4,434966	2,712	2,3076	0,474	89,575	0	1015,22	7,4	9,2	9,1	1	1	1	1	1	1	1	1	1	0	1	-5,708245	274,674012	317,032162	0
15.01.2021	11:39:02	0	80,263154	2,615492	2,54475	18,4356	0,467	89,572	0	1015,18	7,4	9,2	9,1	1	1	1	1	1	1	1	1	1	0	1	-8,879493	274,721729	314,085244	0
15.01.2021	11:39:03	0	80,14603	4,093812	2,40675	15,786	0,472	89,543	0	1015,18	7,4	9,2	9,1	1	1	1	1	1	1	1	1	1	0	1	-7,892882	274,712485	315,028384	0
15.01.2021	11:39:04	0	80,146078	2,729207	2,412	0,4968	0,472	89,525	0	1015	7,4	9,2	9,1	1	1	1	1	1	1	1	1	1	0	1	-10,288936	274,703244	312,588884	0
15.01.2021	11:39:05	0	80,497645	4,776112	2,40975	355,3524	0,469	89,52	0	1015,12	7,4	9,2	9,1	1	1	1	1	1	1	1	1	1	0	1	-9,654686	274,717106	313,288312	0
15.01.2021	11:39:06	0	80,146175	4,548676	2,40975	0,1152	0,467	89,511	0	1015,14	7,4	9,2	9,1	1	1	1	1	1	1	1	1	1	0	1	-1,127555	274,837664	322,382702	0
15.01.2021	11:39:07	0	79,794705	2,615488	2,457	3,7584	0,474	89,525	0	1015,12	7,4	9,2	9,1	1	1	1	1	1	1	1	1	1	0	1	-4,087385	274,794301	319,218747	0
15.01.2021	11:39:08	0	80,263445	4,207523	2,718	355,7664	0,462	89,502	0	1014,9	7,4	9,2	9,1	1	1	1	1	1	1	1	1	1	0	1	-6,272023	274,845418	317,274743	0
15.01.2021	11:39:09	0	80,14632	3,866372	2,96625	0,4968	0,472	89,495	0	1015,1	7,4	9,2	9,1	1	1	1	1	1	1	1	1	1	0	1	-7,610994	274,617213	314,862541	0
15.01.2021	11:39:10	0	79,912023	2,842919	2,92575	20,3616	0,471	89,507	0	1015,2	7,4	9,2	9,1	1	1	1	1	1	1	1	1	1	0	1	-2,396054	274,85783	321,209164	0
15.01.2021	11:39:11	0	79,677725	3,297786	2,526	19,1196	0,472	89,5	0	1015,2	7,4	9,2	9,1	1	1	1	1	1	1	1	1	1	0	1	-5,708245	274,788114	317,568772	0
15.01.2021	11:39:12	0	80,146465	4,662385	2,19825	16,4772	0,472	89,476	0	1015,02	7,4	9,2	9,1	1	1	1	1	1	1	1	1	1	0	1	-6,906272	274,836114	316,596685	0
15.01.2021	11:39:13	0	79,912167	5,003534	2,0175	359,3772	0,473	89,477	0	1015,16	7,4	9,2	9,1	1	1	1	1	1	1	1	1	1	0	1	-3,875969	274,783475	319,379219	0
15.01.2021	11:39:14	0	79,560695	2,956633	2,157	8,2548	0,477	89,485	0	1015,22	7,4	9,2	9,1	1	1	1	1	1	1	1	1	1	0	1	-6,272023	274,698626	316,584084	0
15.01.2021	11:39:15	0	80,14661	2,842915	2,27475	8,2548	0,475	89,478	0	1014,94	7,4	9,2	9,1	1	1	1	1	1	1	1	1	1	0	1	-9,725159	274,697086	313,123712	0
15.01.2021	11:39:16	0	79,326444	2,615481	2,208	1,5444	0,475	89,458	0	1015,08	7,4	9,2	9,1	1	1	1	1	1	1	1	1	1	0	1	-6,906272	274,741775	316,152738	0
15.01.2021	11:39:17	0	79,678013	4,093796	2,31	9,3636	0,473	89,46	0	1015,08	7,4	9,2	9,1	1	1	1	1	1	1	1	1	1	0	1	-2,60747	274,684777	320,183534	0
15.01.2021	11:39:18	0	79,912408	4,662377	2,2695	22,0824	0,466	89,449	0	1015,08	7,4	9,2	9,1	1	1	1	1	1	1	1	1	1	0	1	-7,751938	274,746404	315,328845	0
15.01.2021	11:39:19	0	79,560935	4,889809	2,4195	3,3948	0,478	89,461	0	1015,22	7,4	9,2	9,1	1	1	1	1	1	1	1	1	1	0	1	-3,24172	274,854727	320,348881	0
15.01.2021	11:39:20	0	79,560983	4,889807	2,685	2,2932	0,476	89,451	0	1015,14	7,4	9,2	9,1	1	1	1	1	1	1	1	1	1	0	1	-5,919662	274,751034	317,182899	0
15.01.2021	11:39:21	0	79,561031	4,093791	2,7105	10,4364	0,473	89,441	0	1015,18	7,4	9,2	9,1	1	1	1	1	1	1	1	1	1	0	1	-4,721635	274,856278	318,876274	0
15.01.2021	11:39:22	0	79,443905	2,84291	2,6145	358,83	0,473	89,415	0	1015,22	7,4	9,2	9,1	1	1	1	1	1	1	1	1	1	0	1	-7,047216	274,718647	315,903027	0
15.01.2021	11:39:23	0	79,443953	3,297774	2,48175	15,0372	0,472	89,436	0	1015,28	7,4	9,2	9,1	1	1	1	1	1	1	1	1	1	0	1	-7,540521	274,794301	315,765611	0
15.01.2021	11:39:24	0	79,678349	4,889802	2,379	16,0884	0,473	89,426	0	1015,2	7,4	9,2	9,1	1	1	1	1	1	1	1	1	1	0	1	-4,862579	274,683238	317,921195	0
15.01.2021	11:39:25	0	79,2097	2,842907	2,4255	15,7608	0,471	89,432	0	1015,22	7,4	9,2	9,1	1	1	1	1	1	1	1	1	1	0	1	-6,765328	274,800489	316,569932	0
15.01.2021	11:39:26	0	79,326922	2,615474	2,6265	6,0516	0,471	89,417	0	1015,06	7,4	9,2	9,1	1	1	1	1	1	1	1	1	1	0	1	-8,668076	274,846969	314,885994	0
15.01.2021	11:39:27	0	79,678492	2,956622	2,8695	26,5212	0,475	89,431	0	1015,22	7,4	9,2	9,1	1	1	1	1	1	1	1	1	1	0	1	-3,382664	274,755665	319,741682	0
15.01.2021	11:39:28	0	79,444191	4,321215	2,7165	29,5668	0,472	89,429	0	1015,22	7,4	9,2	9,1	1	1	1	1	1	1	1	1	1	0	1	-4,369274	274,839215	319,148283	0
15.01.2021	11:39:29	0	79,327065	3,525201	2,81775	30,3192	0,475	89,412	0	1015,2	7,4	9,2	9,1	1	1	1	1	1	1	1	1	1	0	1	-5,426357	274,684777	317,364647	0
15.01.2021	11:39:30	0	78,975589	2,842903	2,83575	19,5084	0,479	89,427	0	1015,1	7,4	9,2	9,1	1	1	1	1	1	1	1	1	1	0	1	-3,523608	274,73869	319,520891	0
15.01.2021	11:39:31	0	79,32716	4,662359	2,7495	14,3748	0,471	89,417	0	1015,12	7,4	9,2	9,1	1	1	1	1	1	1	1	1	1	0	1	-5,778717	274,850072	317,789963	0
15.01.2021	11:39:32	0	79,444382	4,662358	2,613	23,9472	0,47	89,417	0	1015,18	7,4	9,2	9,1	1	1	1	1	1	1	1	1	1	0	1	-8,738548	274,800489	314,596711	0
15.01.2021	11:39:33	0	79,092906	3,638913	2,76375	7,5096	0,472	89,437	0	1015,04	7,4	9,2	9,1	1	1	1	1	1	1	1	1	1	0	1	-2,325581	274,698626	320,530525	0
15.01.2021	11:39:34	0	79,327303	3,41148	2,98275	24,7212	0,474	89,431	0	1015,16	7,4	9,2	9,1	1	1	1	1	1	1	1	1	1	0	1	-6,694856	274,769565	316,494883	0
15.01.2021	11:39:35	0	78,858651	3,525195	2,91225	6,426	0,471	89,431	0	1015,08	7,4	9,2	9,1	1	1	1	1	1	1	1	1	1	0	1	-3,24172	274,689392	319,570979	0
15.01.2021	11:39:36	0	79,210223	3,752625	2,886	348,4116	0,478	89,426	0	1015,16	7,4	9,2	9,1	1	1	1	1	1	1	1	1	1	0	1	-5,21494	274,763386	317,945728	0
15.01.2021	11:39:37	0	78,975921	3,525192	2,86425	353,1996	0,475	89,432	0	1015,22	7,4	9,2	9,1	1	1	1	1	1	1	1	1	1	0	1	-4,651163	274,689392	318,161536	0
15.01.2021	11:39:38	0	79,210318	2,842896	2,853	354,3552	0,478	89,413	0	1015,1	7,4	9,2	9,1	1	1	1	1	1	1	1	1	1	0	1	-3,382664	274,794301	319,923469	0
15.01.2021	11:39:39	0	79,210365	4,662349	2,73225	349,0704	0,474	89,415	0	1015,14	7,4	9,2	9,1	1	1	1	1	1	1	1	1	1	0	1	-5,84919	274,865592	317,792583	0
15.01.2021	11:39:40	0	78,624537	2,615463	2,622	344,3796	0,478	89,403	0	1015,08	7,4	9,2	9,1	1	1	1	1	1	1	1	1	1	0	1	-4,933051	274,715566	318,002702	0
15.01.2021	11:39:41	0	79,21046	5,003493	2,58975	346,842	0,474	89,407	0	1015,14	7,4	9,2	9,1	1	1	1	1	1	1	1	1	1	0	1	-3,171247	274,850072	320,397433	0
15.01.2021	11:39:42	0	78,624631	2,38803	2,59875	353,9268	0,473	89,391	0	1015,12	7,4	9,2	9,1	1	1	1	1	1	1	1	1	1	0	1	-4,721635	274,6817	318,054909	0
15.01.2021	11:39:43	0	78,976204	2,842892	2,6085	0,8712	0,466	89,398	0	1015,02	7,4	9,2	9,1	1	1	1	1	1	1	1	1	1	0	1	-5,285412	274,781929	317,962501	0
15.01.2021	11:39:44	0	78,859076	5,23092	2,4975	354,294	0,473	89,41	0	1015,16	7,4	9,2	9,1	1	1	1	1	1	1	1	1	1	0	1	-3,59408	274,859383	320,018447	0
15.01.2021	11:39:45	0	79,093474	4,662341	2,2425	354,5928	0,474	89,412	0	1015,22	7,4	9,2	9,1	1	1	1	1	1	1	1	1	1	0	1	-4,439746	274,808228	318,931937	0
15.01.2021	11:39:46	0	78,624819	2,729174	2,15175	1,5624	0,473	89,417	0	1015,1	7,4	9,2	9,1	1	1	1	1	1	1	1	1	1	0	1	-8,879493	274,859383	314,733035	0
15.01.2021	11:39:47	0	78,976393	2,956604	2,0805	354,618	0,476	89,413	0	1015,16	7,4	9,2	9,1	1	1	1	1	1	1	1	1	1	0	1	-5,778717	274,724812	317,200515	0
15.01.2021	11:39:48	0	78,273386	2,842888	1,95675	351,7416	0,479	89,415	0	1015,14	7,4	9,2	9,1	1	1	1	1	1	1	1	1	1	0	1	-8,597604	274,689392	314,215095	0
15.01.2021	11:39:49	0	79,093663	4,321189	1,965	338,9688	0,47	89,405	0	1015,16	7,4	9,2	9,1	1	1	1	1	1	1	1	1	1	0	1	-6,906272	274,754121	316,210812	0
15.01.2021	11:39:50	0	78,507831	3,866326	2,02425	343,8504	0,474	89,409	0	1015,12	7,4	9,2	9,1	1	1	1	1	1	1	1	1	1	0	1	-5,567301	274,862487	318,059848	0
15.01.2021	11:39:51	0	78,74223	2,615455	2,00775	347,6052	0,467	89,416	0	1015,18	7,4	9,2	9,1	1	1	1	1	1	1	1	1	1	0	1	-10,147992	274,7742	313,063557	0
15.01.2021	11:39:52	0	78,742277	4,4349	1,9725	355,4424	0,476	89,41	0	1015,16	7,4	9,2	9,1	1	1	1	1	1	1	1	1	1	0	1	-3,664553	274,870251	319,999162	0
15.01.2021	11:39:53	0	78,625148	2,956599	1,923	340,254	0,479	89,425	0	1014,96	7,4	9,2	9,1	1	1	1	1	1	1	1	1	1	0	1	-6,976744	274,754121	316,14034	0
15.01.2021	11:39:54	0	78,859547	4,548613	1,88775	339,4584	0,471	89,423	0	1015,04	7,4	9,2	9,1	1	1	1	1	1	1	1	1	1	0	1	-4,439746	274,740232	318,612008	0
15.01.2021	11:39:55	0	78,625242	2,842882	1,833	339,1596	0,469	89,417	0	1015,16	7,4	9,2	9,1	1	1	1	1	1	1	1	1	1	0	1	-7,963354	274,862487	315,663794	0
15.01.2021	11:39:56	0	78,625289	5,003472	1,80975	353,5776	0,474	89,416	0	1015,12	7,4	9,2	9,1	1	1	1	1	1	1	1	1	1	0	1	-5,355884	274,823715	318,088701	0
15.01.2021	11:39:57	0	78,625336	3,866318	1,803	352,0836	0,472	89,422	0	1015,06	7,4	9,2	9,1	1	1	1	1	1	1	1	1	1	0	1	-5,21494	274,723271	317,757044	0
15.01.2021	11:39:58	0	78,508206	3,411456	1,76775	360	0,473	89,423	0	1014,98	7,4	9,2	9,1	1	1	1	1	1	1	1	1	1	0	1	-10,359408	274,823715	313,085177	0
15.01.2021	11:39:59	0	78,625429	4,207461	1,75575	356,49	0,475	89,415	0	1015,22	7,4	9,2	9,1	1	1	1	1	1	1	1	1	1	0	1	-4,933051	274,851623	318,642935	0
15.01.2021	11:40:00	0	78,156816	4,662319	1,72575	1,908	0,481	89,423	0	1015,12	7,4	9,2	9,1	1	1	1	1	1	1	1	1	1	0	1	-6,483439	274,701705	316,387143	0
15.01.2021	11:40:01	0	78,156816	4,662319	1,72575	1,908	0,481	89,423	0	1015,12	7,4	9,2	9,1	1	1	1	1	1	1	1	1	1	0	1	-6,483439	274,701705	316,387143	0
15.01.2021	11:40:02	0	78,27404	3,297737	1,7415	3,7512	0,481	89,417	0	1015,16	7,4	9,2	9,1	1	1	1	1	1	1	1	1	1	0	1	-13,460183	274,828364	310,006286	0
15.01.2021	11:40:03	0	78,15691	3,184021	1,77525	6,0624	0,479	89,436	0	1015,1	7,4	9,2	9,1	1	1	1	1	1	1	1	1	1	0	1	-6,412967	274,715566	316,522787	0
15.01.2021	11:40:04	0	78,039779	3,41145	1,70175	5,7744	0,482	89,427	0	1015,24	7,4	9,2	9,1	1	1	1	1	1	1	1	1	1	0	1	-8,879493	274,867145	314,769593	0
15.01.2021	11:40:05	0	77,922649	2,842874	1,68075	12,0996	0,477	89,414	0	1015,12	7,4	9,2	9,1	1	1	1	1	1	1	1	1	1	0	1	-3,664553	274,822166	319,772739	0
15.01.2021	11:40:06	0	77,922695	3,070303	1,75725	3,7692	0,484	89,438	0	1015,24	7,4	9,2	9,1	1	1	1	1	1	1	1	1	1	0	1	-5,567301	274,734063	317,455436	0
15.01.2021	11:40:07	0	77,922741	3,752592	1,857	12,8484	0,482	89,45	0	1015,18	7,4	9,2	9,1	1	1	1	1	1	1	1	1	1	0	1	-8,033827	274,887342	315,710395	0
15.01.2021	11:40:08	0	78,039965	4,776024	2,13975	14,2884	0,481	89,439	0	1015,28	7,4	9,2	9,1	1	1	1	1	1	1	1	1	1	0	1	-5,778717	274,826814	317,680456	0
15.01.2021	11:40:09	0	77,68848	2,842871	2,43825	6,8112	0,486	89,445	0	1015,3	7,4	9,2	9,1	1	1	1	1	1	1	1	1	1	0	1	-5,355884	274,734063	317,666853	0
15.01.2021	11:40:10	0	78,040058	4,434877	2,637	11,7072	0,482	89,443	0	1015,12	7,4	9,2	9,1	1	1	1	1	1	1	1	1	1	0	1	-4,721635	274,842316	318,810525	0
15.01.2021	11:40:11	0	77,805749	4,548591	2,88975	10,836	0,484	89,438	0	1014,92	7,4	9,2	9,1	1	1	1	1	1	1	1	1	1	0	1	-8,879493	274,743318	314,186775	0
15.01.2021	11:40:12	0	77,454263	3,638872	2,9775	4,0932	0,485	89,449	0	1015,3	7,4	9,2	9,1	1	1	1	1	1	1	1	1	1	0	1	-5,285412	274,717106	317,657586	0
15.01.2021	11:40:13	0	77,805842	4,889732	3,039	0,4932	0,475	89,431	0	1015,06	7,4	9,2	9,1	1	1	1	1	1	1	1	1	1	0	1	-7,117689	274,812873	316,275858	0
15.01.2021	11:40:14	0	77,454355	3,070296	2,96475	7,4988	0,479	89,442	0	1015,14	7,4	9,2	9,1	1	1	1	1	1	1	1	1	1	0	1	-3,735025	274,712485	319,186241	0
15.01.2021	11:40:15	0	77,688756	4,321156	2,973	7,8696	0,479	89,443	0	1015,16	7,4	9,2	9,1	1	1	1	1	1	1	1	1	1	0	1	-3,946441	274,754121	319,170643	0
15.01.2021	11:40:16	0	77,688803	4,548584	3,078	6,444	0,477	89,445	0	1015,14	7,4	9,2	9,1	1	1	1	1	1	1	1	1	1	0	1	-5,778717	274,703244	317,099103	0
15.01.2021	11:40:17	0	77,923204	5,003441	3,156	19,8936	0,484	89,442	0	1015,24	7,4	9,2	9,1	1	1	1	1	1	1	1	1	1	0	1	-10,359408	274,840765	313,16545	0
15.01.2021	11:40:18	0	77,571717	4,889725	3,06225	6,0552	0,484	89,419	0	1015,24	7,4	9,2	9,1	1	1	1	1	1	1	1	1	1	0	1	-2,677942	274,850072	320,890738	0
15.01.2021	11:40:19	0	77,454585	3,070292	2,7675	2,2896	0,482	89,432	0	1015,22	7,4	9,2	9,1	1	1	1	1	1	1	1	1	1	0	1	-7,047216	274,707864	315,852324	0
15.01.2021	11:40:20	0	77,220275	3,752578	2,74725	19,5192	0,478	89,418	0	1015,16	7,4	9,2	9,1	1	1	1	1	1	1	1	1	1	0	1	-6,412967	274,764931	316,754968	0
15.01.2021	11:40:21	0	77,220321	2,956576	3,063	17,2404	0,48	89,398	0	1015,18	7,4	9,2	9,1	1	1	1	1	1	1	1	1	1	0	1	-5,990134	274,867145	317,658952	0
15.01.2021	11:40:22	0	77,337545	4,434862	3,336	4,0896	0,484	89,408	0	1015,06	7,4	9,2	9,1	1	1	1	1	1	1	1	1	1	0	1	-5,073996	274,77111	318,123012	0
15.01.2021	11:40:23	0	77,103234	3,184003	3,8325	4,086	0,49	89,395	0	1015,34	7,4	9,2	9,1	1	1	1	1	1	1	1	1	1	0	1	-3,312192	274,726354	319,67429	0
15.01.2021	11:40:24	0	77,454814	3,070287	4,16925	0,5796	0,486	89,379	0	1015	7,4	9,2	9,1	1	1	1	1	1	1	1	1	1	0	1	-6,8358	274,781929	316,412113	0
15.01.2021	11:40:25	0	77,103325	3,752572	4,098	2,646	0,476	89,371	0	1015,14	7,4	9,2	9,1	1	1	1	1	1	1	1	1	1	0	1	-7,117689	274,879571	316,589928	0
15.01.2021	11:40:26	0	77,454906	5,117143	3,97125	7,1352	0,483	89,362	0	1015,22	7,4	9,2	9,1	1	1	1	1	1	1	1	1	1	0	1	-5,003524	274,795848	318,30989	0
15.01.2021	11:40:27	0	76,86906	2,615428	3,59625	10,0656	0,481	89,359	0	1015,18	7,4	9,2	9,1	1	1	1	1	1	1	1	1	1	0	1	-3,030303	274,710944	319,88372	0
15.01.2021	11:40:28	0	76,986284	2,729141	3,16425	22,8276	0,484	89,354	0	1015,16	7,4	9,2	9,1	1	1	1	1	1	1	1	1	1	0	1	-4,862579	274,760297	318,283558	0
15.01.2021	11:40:29	0	76,986329	2,387998	2,94525	34,6932	0,487	89,35	0	1015,22	7,4	9,2	9,1	1	1	1	1	1	1	1	1	1	0	1	-2,255109	274,887342	321,489113	0
15.01.2021	11:40:30	0	76,752017	3,070282	2,7795	44,0208	0,484	89,351	0	1015,16	7,4	9,2	9,1	1	1	1	1	1	1	1	1	1	0	1	-6,272023	274,885788	317,464877	0
15.01.2021	11:40:31	0	76,869241	5,117135	2,5425	28,3536	0,485	89,354	0	1015,12	7,4	9,2	9,1	1	1	1	1	1	1	1	1	1	0	1	-4,369274	274,829914	319,104491	0
15.01.2021	11:40:32	0	76,869287	2,842852	2,37975	30,69	0,488	89,357	0	1015,1	7,4	9,2	9,1	1	1	1	1	1	1	1	1	1	0	1	-5,778717	274,846969	317,775353	0
15.01.2021	11:40:33	0	76,752153	4,093706	2,388	17,694	0,486	89,343	0	1015,34	7,4	9,2	9,1	1	1	1	1	1	1	1	1	1	0	1	-7,188161	274,854727	316,40244	0
15.01.2021	11:40:34	0	76,517841	3,183993	2,78025	32,1444	0,485	89,345	0	1015,14	7,4	9,2	9,1	1	1	1	1	1	1	1	1	1	0	1	-5,567301	274,709404	317,33948	0
15.01.2021	11:40:35	0	76,752244	4,662274	3,24825	33,9444	0,485	89,333	0	1015,16	7,4	9,2	9,1	1	1	1	1	1	1	1	1	1	0	1	-9,654686	274,78966	313,629609	0
15.01.2021	11:40:36	0	76,517931	4,207416	3,32775	17,694	0,487	89,347	0	1015,24	7,4	9,2	9,1	1	1	1	1	1	1	1	1	1	0	1	-4,933051	274,893561	318,840467	0
15.01.2021	11:40:37	0	76,635155	3,638846	3,2775	18,8244	0,483	89,328	0	1015,14	7,4	9,2	9,1	1	1	1	1	1	1	1	1	1	0	1	-5,144468	274,831463	318,336594	0
15.01.2021	11:40:38	0	76,518021	4,66227	3,24	21,7836	0,479	89,314	0	1015,16	7,4	9,2	9,1	1	1	1	1	1	1	1	1	1	0	1	-7,963354	274,873357	315,714991	0
15.01.2021	11:40:39	0	76,517531	2,615419	3,10275	12,2112	0,484	89,307	0	1015,16	7,4	9,3	9,1	1	1	1	1	1	1	1	1	1	0	1	-3,382664	274,811325	320,003594	0
15.01.2021	11:40:40	0	76,283753	4,548553	3,1455	15,4116	0,484	89,319	0	1015,22	7,4	9,2	9,1	1	1	1	1	1	1	1	1	1	0	1	-7,540521	274,881125	316,174415	0
15.01.2021	11:40:41	0	76,400977	3,183986	3,0105	15,0228	0,484	89,321	0	1015,14	7,4	9,2	9,1	1	1	1	1	1	1	1	1	1	0	1	-8,315715	274,874911	315,369947	0
15.01.2021	11:40:42	0	76,049484	3,183985	2,9115	7,956	0,482	89,318	0	1015,12	7,4	9,2	9,1	1	1	1	1	1	1	1	1	1	0	1	-1,973221	274,769565	321,216518	0
15.01.2021	11:40:43	0	76,166708	5,117118	3,28575	12,078	0,481	89,295	0	1015,04	7,4	9,2	9,1	1	1	1	1	1	1	1	1	1	0	1	-7,258633	274,763386	315,902035	0
15.01.2021	11:40:44	0	76,049573	3,866266	3,348	15,3936	0,485	89,319	0	1015,16	7,4	9,2	9,1	1	1	1	1	1	1	1	1	1	0	1	-5,073996	274,876464	318,618984	0
15.01.2021	11:40:45	0	76,049618	3,070269	3,4125	17,7012	0,48	89,301	0	1015,1	7,4	9,2	9,1	1	1	1	1	1	1	1	1	1	0	1	-3,805497	274,730979	319,202736	0
15.01.2021	11:40:46	0	75,932483	4,548545	3,15525	18,8424	0,49	89,283	0	1015,18	7,4	9,2	9,1	1	1	1	1	1	1	1	1	1	0	1	-8,597604	274,817519	314,817812	0
15.01.2021	11:40:47	0	75,932528	4,09369	3,01275	19,53	0,485	89,305	0	1015,26	7,4	9,2	9,1	1	1	1	1	1	1	1	1	1	0	1	-3,735025	274,723271	319,23696	0
15.01.2021	11:40:48	0	75,932573	2,501698	2,84775	17,2152	0,482	89,299	0	1015,08	7,4	9,2	9,1	1	1	1	1	1	1	1	1	1	0	1	-5,919662	274,792754	317,379191	0
15.01.2021	11:40:49	0	75,815437	2,842838	2,757	6,804	0,484	89,311	0	1015,24	7,4	9,2	9,1	1	1	1	1	1	1	1	1	1	0	1	-6,131078	274,729437	316,869904	0
15.01.2021	11:40:50	0	76,049842	4,775967	2,66925	13,5612	0,486	89,297	0	1015,18	7,4	9,2	9,1	1	1	1	1	1	1	1	1	1	0	1	-7,258633	274,878018	316,441665	0
15.01.2021	11:40:51	0	75,815526	4,434825	2,535	358,6824	0,483	89,294	0	1015,06	7,4	9,2	9,1	1	1	1	1	1	1	1	1	1	0	1	-2,325581	274,873357	321,352764	0
15.01.2021	11:40:52	0	75,46403	3,525117	2,43225	6,8184	0,488	89,307	0	1015,28	7,4	9,2	9,1	1	1	1	1	1	1	1	1	1	0	1	-5,778717	274,892006	317,987476	0
15.01.2021	11:40:53	0	75,464075	2,501695	2,6535	8,6112	0,482	89,297	0	1015,16	7,4	9,2	9,1	1	1	1	1	1	1	1	1	1	0	1	-4,087385	274,831463	319,393677	0
15.01.2021	11:40:54	0	75,229758	3,070261	2,8125	1,17	0,479	89,299	0	1015,08	7,4	9,2	9,1	1	1	1	1	1	1	1	1	1	0	1	-4,369274	274,73869	318,675225	0
15.01.2021	11:40:55	0	75,229803	2,72912	2,76825	359,4528	0,487	89,296	0	1015,12	7,4	9,2	9,1	1	1	1	1	1	1	1	1	1	0	1	-10,218464	274,822166	313,218828	0
15.01.2021	11:40:56	0	75,112666	4,548532	2,61525	17,2332	0,486	89,313	0	1015,22	7,4	9,2	9,1	1	1	1	1	1	1	1	1	1	0	1	-5,355884	274,888896	318,395661	0
15.01.2021	11:40:57	0	75,580903	3,411398	2,331	359,5716	0,487	89,316	0	1015,26	7,4	9,3	9,1	1	1	1	1	1	1	1	1	1	0	1	-0,775194	274,780383	322,465445	0
15.01.2021	11:40:58	0	75,229935	2,842831	2,067	358,4124	0,485	89,311	0	1015,1	7,4	9,2	9,1	1	1	1	1	1	1	1	1	1	0	1	-4,862579	274,735605	318,167411	0
15.01.2021	11:40:59	0	75,112799	4,321102	1,92525	354,6144	0,484	89,313	0	1015,2	7,4	9,2	9,1	1	1	1	1	1	1	1	1	1	0	1	-4,792107	274,867145	318,856979	0
15.01.2021	11:41:00	0	75,230067	2,842829	1,7445	348,6852	0,489	89,302	0	1015,14	7,4	9,2	9,1	1	1	1	1	1	1	1	1	1	0	1	-6,624383	274,870251	317,039331	0
15.01.2021	11:41:01	0	75,230067	2,842829	1,7445	348,6852	0,489	89,302	0	1015,14	7,4	9,2	9,1	1	1	1	1	1	1	1	1	1	0	1	-2,677942	274,758753	320,460931	0
15.01.2021	11:41:02	0	74,878569	2,842828	1,80375	351,288	0,489	89,313	0	1015,14	7,4	9,2	9,1	1	1	1	1	1	1	1	1	1	0	1	-9,161381	274,890451	314,597488	0
15.01.2021	11:41:03	0	75,112975	4,093671	1,8495	353,9412	0,48	89,313	0	1015,1	7,4	9,2	9,1	1	1	1	1	1	1	1	1	1	0	1	-7,610994	274,820617	315,819005	0
15.01.2021	11:41:04	0	74,995838	5,003374	1,86075	356,1804	0,505	89,318	0	1015,4	7,4	9,2	9,1	1	1	1	1	1	1	1	1	1	0	1	-4,439746	274,898226	319,355753	0
15.01.2021	11:41:05	0	75,112537	3,525104	1,8375	351,3636	0,487	89,31	0	1015,1	7,4	9,3	9,1	1	1	1	1	1	1	1	1	1	0	1	-0	274,777291	323,226092	0
15.01.2021	11:41:06	0	74,76104	5,117084	1,8165	352,0476	0,479	89,306	0	1015,08	7,4	9,3	9,1	1	1	1	1	1	1	1	1	1	0	1	-5,21494	274,893561	318,558579	0
15.01.2021	11:41:07	0	74,995969	4,662231	1,9185	1,1628	0,484	89,326	0	1015,12	7,5	9,2	9,1	1	1	1	1	1	1	1	1	1	0	1	-1,691332	274,811325	321,694926	0
15.01.2021	11:41:08	0	74,410107	4,66223	1,88775	359,982	0,484	89,321	0	1015,16	7,4	9,2	9,1	1	1	1	1	1	1	1	1	1	0	1	-10,570825	274,743318	312,495443	0
15.01.2021	11:41:09	0	74,41015	2,615396	1,9035	349,452	0,485	89,31	0	1015,2	7,4	9,2	9,1	1	1	1	1	1	1	1	1	1	0	1	-2,536998	274,730979	320,471235	0
15.01.2021	11:41:10	0	74,527375	2,274257	2,004	4,086	0,484	89,302	0	1015,08	7,4	9,2	9,1	1	1	1	1	1	1	1	1	1	0	1	-1,973221	274,842316	321,55894	0
15.01.2021	11:41:11	0	74,410237	3,525098	2,08575	357,246	0,488	89,332	0	1015,18	7,4	9,2	9,1	1	1	1	1	1	1	1	1	1	0	1	-2,184637	274,902892	321,632848	0
15.01.2021	11:41:12	0	74,527462	2,387969	2,0445	356,5836	0,487	89,32	0	1015,18	7,4	9,2	9,1	1	1	1	1	1	1	1	1	1	0	1	-0,98661	274,850072	322,58207	0
15.01.2021	11:41:13	0	74,527506	3,525096	2,022	350,658	0,485	89,321	0	1015,16	7,5	9,2	9,1	1	1	1	1	1	1	1	1	1	0	1	-3,59408	274,856278	320,003828	0
15.01.2021	11:41:14	0	74,176005	2,046829	1,983	4,0644	0,484	89,325	0	1015,18	7,4	9,2	9,1	1	1	1	1	1	1	1	1	1	0	1	-3,664553	274,758753	319,47432	0
15.01.2021	11:41:15	0	74,29323	4,434795	1,9875	2,0124	0,485	89,326	0	1015,12	7,4	9,2	9,1	1	1	1	1	1	1	1	1	1	0	1	-2,677942	274,901337	321,132214	0
15.01.2021	11:41:16	0	74,176091	2,842817	1,9665	356,6052	0,484	89,315	0	1015,18	7,4	9,2	9,1	1	1	1	1	1	1	1	1	1	0	1	-0,493305	274,846969	323,060765	0
15.01.2021	11:41:17	0	74,410498	3,183954	1,9095	351,0936	0,487	89,305	0	1015,2	7,5	9,2	9,1	1	1	1	1	1	1	1	1	1	0	1	-0	274,751034	323,102561	0
15.01.2021	11:41:18	0	74,292839	3,979941	1,929	4,4712	0,487	89,314	0	1015,18	7,4	9,3	9,1	1	1	1	1	1	1	1	1	1	0	1	-2,184637	274,734063	320,8381	0
15.01.2021	11:41:19	0	74,293403	3,183952	2,031	4,8204	0,488	89,32	0	1015,14	7,4	9,2	9,1	1	1	1	1	1	1	1	1	1	0	1	-4,22833	274,871804	319,4427	0
15.01.2021	11:41:20	0	74,410628	4,321076	2,11425	6,0804	0,492	89,331	0	1015,22	7,4	9,2	9,1	1	1	1	1	1	1	1	1	1	0	1	-1,409443	274,78966	321,874852	0
15.01.2021	11:41:21	0	73,824761	3,297663	2,40375	35,0712	0,488	89,319	0	1015,28	7,4	9,2	9,1	1	1	1	1	1	1	1	1	1	0	1	-2,677942	274,724812	320,301291	0
15.01.2021	11:41:22	0	73,941986	3,411374	2,6805	42,5772	0,487	89,305	0	1015,22	7,4	9,2	9,1	1	1	1	1	1	1	1	1	1	0	1	-5,637773	274,850072	317,930907	0
15.01.2021	11:41:23	0	73,942029	2,842811	2,63325	13,1652	0,493	89,326	0	1015,26	7,5	9,2	9,1	1	1	1	1	1	1	1	1	1	0	1	-5,355884	274,890451	318,402985	0
15.01.2021	11:41:24	0	73,82489	3,183947	2,67	10,4364	0,49	89,327	0	1015,18	7,4	9,2	9,1	1	1	1	1	1	1	1	1	1	0	1	-1,62086	274,778837	321,612505	0
15.01.2021	11:41:25	0	73,824933	4,77592	2,68725	10,8144	0,492	89,309	0	1015,14	7,4	9,2	9,1	1	1	1	1	1	1	1	1	1	0	1	-7,117689	274,896671	316,670483	0
15.01.2021	11:41:26	0	73,942159	3,525083	2,592	0,8748	0,492	89,331	0	1015,24	7,4	9,2	9,1	1	1	1	1	1	1	1	1	1	0	1	-10,782241	274,746404	312,298542	0
15.01.2021	11:41:27	0	73,825019	4,321068	2,7795	45,8388	0,495	89,338	0	1015,22	7,4	9,2	9,1	1	1	1	1	1	1	1	1	1	0	1	-0,98661	274,870251	322,677104	0
15.01.2021	11:41:28	0	74,059427	4,207354	2,67825	10,8108	0,494	89,338	0	1015,22	7,4	9,2	9,1	1	1	1	1	1	1	1	1	1	0	1	-1,550388	274,878018	322,14991	0
15.01.2021	11:41:29	0	73,707922	3,979929	2,4345	19,5444	0,496	89,334	0	1015,18	7,5	9,2	9,1	1	1	1	1	1	1	1	1	1	0	1	-0,98661	274,86404	322,64785	0
15.01.2021	11:41:30	0	73,4736	3,866215	2,28825	11,7	0,487	89,323	0	1015,28	7,4	9,2	9,1	1	1	1	1	1	1	1	1	1	0	1	-4,510218	274,901337	319,299937	0
15.01.2021	11:41:31	0	73,942374	4,093639	2,3685	22,824	0,489	89,336	0	1015,06	7,5	9,2	9,1	1	1	1	1	1	1	1	1	1	0	1	-6,20155	274,86404	317,43291	0
15.01.2021	11:41:32	0	73,708051	4,548486	2,54475	15,7824	0,492	89,344	0	1015,16	7,5	9,2	9,1	1	1	1	1	1	1	1	1	1	0	1	-6,412967	274,780383	316,827672	0
15.01.2021	11:41:33	0	73,473728	4,662197	2,73	20,988	0,492	89,333	0	1015,14	7,4	9,2	9,1	1	1	1	1	1	1	1	1	1	0	1	-0	274,741775	323,05901	0
15.01.2021	11:41:34	0	73,942503	4,88962	2,64	16,4808	0,49	89,336	0	1015,24	7,4	9,2	9,1	1	1	1	1	1	1	1	1	1	0	1	-4,933051	274,822166	318,50424	0
15.01.2021	11:41:35	0	73,825362	4,775906	2,44125	355,8132	0,496	89,326	0	1015,22	7,4	9,2	9,1	1	1	1	1	1	1	1	1	1	0	1	-0,140944	274,751034	322,961617	0
15.01.2021	11:41:36	0	73,825405	2,729089	2,4105	353,2428	0,487	89,317	0	1015,06	7,4	9,2	9,1	1	1	1	1	1	1	1	1	1	0	1	-4,087385	274,859383	319,525142	0
15.01.2021	11:41:37	0	74,059815	4,889616	2,6025	343,0656	0,489	89,326	0	1015,22	7,5	9,2	9,1	1	1	1	1	1	1	1	1	1	0	1	-0	274,909116	323,846811	0
15.01.2021	11:41:38	0	73,473941	3,866207	2,856	6,4116	0,487	89,323	0	1015,12	7,5	9,2	9,1	1	1	1	1	1	1	1	1	1	0	1	-4,369274	274,859383	319,243253	0
15.01.2021	11:41:39	0	73,473984	5,003325	2,9205	12,0816	0,493	89,316	0	1015,14	7,5	9,2	9,1	1	1	1	1	1	1	1	1	1	0	1	-2,466526	274,746404	320,614257	0
15.01.2021	11:41:40	0	73,707877	3,525069	3,17625	5,6664	0,489	89,325	0	1015,18	7,4	9,3	9,1	1	1	1	1	1	1	1	1	1	0	1	-0,916138	274,76802	322,266332	0
15.01.2021	11:41:41	0	73,474069	3,07022	3,3675	358,4448	0,493	89,328	0	1015,18	7,5	9,2	9,1	1	1	1	1	1	1	1	1	1	0	1	-8,245243	274,803585	315,104584	0
15.01.2021	11:41:42	0	73,591295	2,615372	3,447	357,696	0,487	89,327	0	1015,16	7,4	9,2	9,1	1	1	1	1	1	1	1	1	1	0	1	-0,493305	274,902892	323,32418	0
15.01.2021	11:41:43	0	73,825705	4,662184	3,57375	358,668	0,492	89,31	0	1015,26	7,5	9,2	9,1	1	1	1	1	1	1	1	1	1	0	1	-4,862579	274,802037	318,479963	0
15.01.2021	11:41:44	0	73,239316	2,842794	3,68775	4,8132	0,492	89,326	0	1015,14	7,4	9,3	9,1	1	1	1	1	1	1	1	1	1	0	1	-0	274,744861	323,073525	0
15.01.2021	11:41:45	0	73,356542	4,54847	3,57675	15,0084	0,493	89,328	0	1015,18	7,5	9,3	9,1	1	1	1	1	1	1	1	1	1	0	1	-4,933051	274,839215	318,584506	0
15.01.2021	11:41:46	0	73,591466	4,66218	3,33825	14,6484	0,491	89,317	0	1015,12	7,4	9,2	9,1	1	1	1	1	1	1	1	1	1	0	1	-2,466526	274,766475	320,708676	0
15.01.2021	11:41:47	0	73,35714	2,274233	3,231	19,8864	0,493	89,341	0	1015,24	7,4	9,2	9,1	1	1	1	1	1	1	1	1	1	0	1	-5,003524	274,817519	318,411892	0
15.01.2021	11:41:48	0	73,239999	2,729079	3,02925	358,7184	0,488	89,334	0	1015,16	7,5	9,2	9,1	1	1	1	1	1	1	1	1	1	0	1	-4,087385	274,757209	319,044224	0
15.01.2021	11:41:49	0	73,943146	5,230734	2,96925	9,36	0,494	89,338	0	1015,28	7,5	9,2	9,1	1	1	1	1	1	1	1	1	1	0	1	-1,902748	274,823715	321,541837	0
15.01.2021	11:41:50	0	73,708304	3,638771	2,96175	5,22	0,494	89,329	0	1015,24	7,5	9,3	9,1	1	1	1	1	1	1	1	1	1	0	1	-3,523608	274,924684	320,396566	0
15.01.2021	11:41:51	0	73,356796	3,297635	2,973	7,866	0,496	89,308	0	1015,08	7,5	9,3	9,1	1	1	1	1	1	1	1	1	1	0	1	-0	274,85783	323,605217	0
15.01.2021	11:41:52	0	73,240168	4,093615	3,1995	13,9968	0,497	89,316	0	1015,38	7,5	9,2	9,1	1	1	1	1	1	1	1	1	1	0	1	-4,933051	274,926242	318,994463	0
15.01.2021	11:41:53	0	73,357395	4,889594	3,23625	4,0824	0,491	89,31	0	1015,24	7,4	9,2	9,1	1	1	1	1	1	1	1	1	1	0	1	-2,184637	274,769565	321,005101	0
15.01.2021	11:41:54	0	73,357437	2,615363	3,21375	20,6316	0,499	89,319	0	1015,22	7,5	9,2	9,1	1	1	1	1	1	1	1	1	1	0	1	-2,677942	274,916899	321,205541	0
15.01.2021	11:41:55	0	73,709033	4,434745	3,19575	17,6832	0,495	89,296	0	1015,32	7,4	9,2	9,1	1	1	1	1	1	1	1	1	1	0	1	-0,634249	274,837664	322,876007	0
15.01.2021	11:41:56	0	73,357522	3,411342	3,297	13,14	0,5	89,305	0	1015,2	7,4	9,2	9,1	1	1	1	1	1	1	1	1	1	0	1	-4,580691	274,744861	318,492834	0
15.01.2021	11:41:57	0	73,591934	4,775877	3,53925	9,7596	0,498	89,3	0	1015,26	7,5	9,2	9,1	1	1	1	1	1	1	1	1	1	0	1	-0,352361	274,80668	323,012036	0
15.01.2021	11:41:58	0	73,591976	4,548453	3,7125	18,4392	0,495	89,31	0	1015,18	7,5	9,2	9,1	1	1	1	1	1	1	1	1	1	0	1	-4,721635	274,73869	318,322864	0
15.01.2021	11:41:59	0	73,943055	4,321029	3,765	16,8552	0,496	89,279	0	1015,2	7,5	9,3	9,1	1	1	1	1	1	1	1	1	1	0	1	-4,016913	274,843867	319,522549	0
15.01.2021	11:42:00	0	73,592104	3,752471	3,83325	8,9856	0,498	89,362	0	1015,22	7,5	9,2	9,1	1	1	1	1	1	1	1	1	1	0	1	-3,523608	274,751034	319,578953	0
15.01.2021	11:42:01	0	73,592104	3,752471	3,83325	8,9856	0,498	89,362	0	1015,22	7,5	9,2	9,1	1	1	1	1	1	1	1	1	1	0	1	-0	274,836114	323,502957	0
15.01.2021	11:42:02	0	73,240078	2,729069	3,7845	6,804	0,494	89,285	0	1015,16	7,4	9,3	9,1	1	1	1	1	1	1	1	1	1	0	1	-4,298802	274,747947	318,789239	0
15.01.2021	11:42:03	0	73,591673	3,070201	3,55575	15,048	0,495	89,305	0	1015,18	7,5	9,3	9,1	1	1	1	1	1	1	1	1	1	0	1	-1,268499	274,820617	322,1615	0
15.01.2021	11:42:04	0	73,7089	2,956489	3,3495	23,9832	0,489	89,31	0	1015,22	7,4	9,3	9,1	1	1	1	1	1	1	1	1	1	0	1	-3,59408	274,752578	319,515742	0
15.01.2021	11:42:05	0	73,943829	3,638755	3,171	0	0,492	89,306	0	1015,18	7,5	9,2	9,1	1	1	1	1	1	1	1	1	1	0	1	-1,761804	274,764931	321,406131	0
15.01.2021	11:42:06	0	73,709501	3,411332	2,895	33,6348	0,5	89,295	0	1015,12	7,5	9,2	9,1	1	1	1	1	1	1	1	1	1	0	1	-1,198027	274,906004	322,63412	0
15.01.2021	11:42:07	0	73,709543	2,956487	2,70375	10,0548	0,499	89,281	0	1015,16	7,4	9,2	9,1	1	1	1	1	1	1	1	1	1	0	1	-3,382664	274,808228	319,98902	0
15.01.2021	11:42:08	0	73,826254	3,866174	2,7015	10,4328	0,497	89,305	0	1015,22	7,5	9,3	9,1	1	1	1	1	1	1	1	1	1	0	1	-4,298802	274,920012	319,599356	0
15.01.2021	11:42:09	0	73,709628	3,183907	2,73825	10,4364	0,498	89,303	0	1015,04	7,5	9,2	9,1	1	1	1	1	1	1	1	1	1	0	1	-5,919662	274,829914	317,554104	0
15.01.2021	11:42:10	0	73,944042	4,434727	2,68725	5,2164	0,491	89,304	0	1015,24	7,5	9,2	9,1	1	1	1	1	1	1	1	1	1	0	1	-8,033827	274,916899	315,849657	0
15.01.2021	11:42:11	0	73,944084	3,183906	2,82375	14,2884	0,49	89,285	0	1015,2	7,4	9,2	9,1	1	1	1	1	1	1	1	1	1	0	1	-1,409443	274,829914	322,064322	0
15.01.2021	11:42:12	0	73,943609	4,662146	3,051	0	0,495	89,287	0	1015,24	7,5	9,3	9,1	1	1	1	1	1	1	1	1	1	0	1	-4,651163	274,885788	319,085737	0
15.01.2021	11:42:13	0	74,060836	3,411325	3,1425	15,3972	0,499	89,297	0	1015,22	7,5	9,3	9,1	1	1	1	1	1	1	1	1	1	0	1	-6,694856	274,930915	317,254684	0
15.01.2021	11:42:14	0	74,061397	3,183903	2,99925	18,8496	0,501	89,289	0	1015,06	7,5	9,2	9,1	1	1	1	1	1	1	1	1	1	0	1	-3,875969	274,797395	319,444726	0
15.01.2021	11:42:15	0	73,592181	2,95648	2,7495	8,3232	0,499	89,27	0	1015,12	7,5	9,3	9,1	1	1	1	1	1	1	1	1	1	0	1	-9,725159	274,940265	314,268451	0
15.01.2021	11:42:16	0	74,530226	3,07019	2,559	358,3728	0,494	89,273	0	1015,22	7,5	9,2	9,1	1	1	1	1	1	1	1	1	1	0	1	-0,493305	274,794301	322,812827	0
15.01.2021	11:42:17	0	74,061525	4,548429	2,5155	16,8552	0,497	89,291	0	1015,2	7,5	9,2	9,1	1	1	1	1	1	1	1	1	1	0	1	-4,016913	274,754121	319,10017	0
15.01.2021	11:42:18	0	74,646975	4,88956	2,26575	1,9188	0,501	89,27	0	1015,26	7,5	9,3	9,1	1	1	1	1	1	1	1	1	1	0	1	-5,919662	274,896671	317,86851	0
15.01.2021	11:42:19	0	74,295982	3,070188	2,15325	359,5716	0,492	89,268	0	1015,12	7,5	9,2	9,1	1	1	1	1	1	1	1	1	1	0	1	-1,973221	274,822166	321,464071	0
15.01.2021	11:42:20	0	74,41269	3,979872	2,11425	359,82	0,499	89,269	0	1015,28	7,5	9,3	9,1	1	1	1	1	1	1	1	1	1	0	1	-3,523608	274,761842	319,629794	0
15.01.2021	11:42:21	0	74,296067	3,525029	2,0955	357,9084	0,495	89,273	0	1015,32	7,5	9,2	9,1	1	1	1	1	1	1	1	1	1	0	1	-0,916138	275,164448	324,135488	0
15.01.2021	11:42:22	0	74,412775	2,842764	2,121	358,3908	0,499	89,269	0	1015,18	7,5	9,3	9,1	1	1	1	1	1	1	1	1	1	0	1	-4,157858	274,913785	319,710955	0
15.01.2021	11:42:23	0	74,412818	3,638737	2,175	2,6208	0,493	89,269	0	1015,22	7,4	9,3	9,1	1	1	1	1	1	1	1	1	1	0	1	-1,268499	274,780383	321,97214	0
15.01.2021	11:42:24	0	74,413382	2,956473	2,142	1,1664	0,497	89,262	0	1015,12	7,5	9,2	9,1	1	1	1	1	1	1	1	1	1	0	1	-5,637773	274,842316	317,894387	0
15.01.2021	11:42:25	0	74,179051	2,615341	2,073	351,774	0,497	89,264	0	1015,08	7,5	9,2	9,1	1	1	1	1	1	1	1	1	1	0	1	-4,580691	274,760297	318,565447	0
15.01.2021	11:42:26	0	74,530131	2,729034	1,986	358,5168	0,5	89,266	0	1015,2	7,5	9,3	9,2	1	1	1	1	1	1	1	1	1	0	1	-4,792107	274,846969	318,761963	0
15.01.2021	11:42:27	0	74,64736	4,662127	1,92675	0,864	0,502	89,269	0	1015,4	7,5	9,3	9,1	1	1	1	1	1	1	1	1	1	0	1	-5,21494	274,923127	318,697895	0
15.01.2021	11:42:28	0	74,530739	3,411311	1,79625	2,2896	0,497	89,269	0	1015,14	7,5	9,2	9,1	1	1	1	1	1	1	1	1	1	0	1	-0,98661	274,80668	322,377787	0
15.01.2021	11:42:29	0	74,296408	3,979862	1,7565	360	0,495	89,278	0	1015,16	7,5	9,2	9,1	1	1	1	1	1	1	1	1	1	0	1	-0,352361	274,757209	322,779248	0
15.01.2021	11:42:30	0	74,765198	2,956468	1,78875	358,0776	0,493	89,264	0	1015,16	7,5	9,2	9,1	1	1	1	1	1	1	1	1	1	0	1	-5,637773	274,786567	317,631967	0
15.01.2021	11:42:31	0	74,882428	3,638729	1,80675	18,0756	0,503	89,282	0	1015,26	7,5	9,2	9,1	1	1	1	1	1	1	1	1	1	0	1	-2,255109	274,885788	321,48179	0
15.01.2021	11:42:32	0	74,413201	2,61532	1,74975	6,0588	0,492	89,27	0	1015,28	7,5	9,3	9,2	1	1	1	1	1	1	1	1	1	0	1	-7,258633	274,758753	315,88024	0
15.01.2021	11:42:33	0	74,9997	3,411307	1,722	4,8384	0,501	89,291	0	1015,22	7,5	9,2	9,1	1	1	1	1	1	1	1	1	1	0	1	-5,567301	274,885788	318,169599	0
15.01.2021	11:42:34	0	75,11693	5,116958	1,65225	17,226	0,499	89,28	0	1015,18	7,5	9,2	9,1	1	1	1	1	1	1	1	1	1	0	1	-2,748414	274,797395	320,57228	0
15.01.2021	11:42:35	0	74,648224	2,842754	1,635	11,7252	0,502	89,295	0	1015,24	7,5	9,2	9,1	1	1	1	1	1	1	1	1	1	0	1	-4,087385	274,763386	319,073283	0
15.01.2021	11:42:36	0	75,11649	4,207275	1,5915	0,8604	0,5	89,29	0	1015,16	7,5	9,3	9,1	1	1	1	1	1	1	1	1	1	0	1	-3,382664	274,873357	320,295682	0
15.01.2021	11:42:37	0	74,882684	2,501607	1,58925	15,7716	0,501	89,301	0	1015,24	7,5	9,2	9,2	1	1	1	1	1	1	1	1	1	0	1	-6,412967	274,775746	316,805853	0
15.01.2021	11:42:38	0	75,116576	3,979852	1,63875	4,0752	0,501	89,294	0	1015,24	7,5	9,3	9,1	1	1	1	1	1	1	1	1	1	0	1	-3,735025	274,892006	320,031169	0
15.01.2021	11:42:39	0	74,999957	3,070171	1,737	17,2332	0,501	89,298	0	1015,18	7,5	9,2	9,1	1	1	1	1	1	1	1	1	1	0	1	-6,060606	274,80668	317,303791	0
15.01.2021	11:42:40	0	75,46875	3,75243	1,82475	12,4632	0,501	89,307	0	1015,14	7,5	9,2	9,1	1	1	1	1	1	1	1	1	1	0	1	-3,875969	274,764931	319,291966	0
15.01.2021	11:42:41	0	75,11723	3,525009	1,8525	10,818	0,504	89,307	0	1015,16	7,5	9,2	9,1	1	1	1	1	1	1	1	1	1	0	1	-2,466526	274,854727	321,124075	0
15.01.2021	11:42:42	0	75,234461	2,615329	1,92975	14,2992	0,502	89,306	0	1015,1	7,5	9,2	9,1	1	1	1	1	1	1	1	1	1	0	1	-5,285412	274,940265	318,708197	0
15.01.2021	11:42:43	0	75,468879	2,842748	1,8945	6,0588	0,502	89,312	0	1015,22	7,5	9,2	9,1	1	1	1	1	1	1	1	1	1	0	1	-6,060606	274,834564	317,435052	0
15.01.2021	11:42:44	0	75,351734	3,183876	1,848	13,1544	0,497	89,298	0	1015,22	7,5	9,2	9,1	1	1	1	1	1	1	1	1	1	0	1	-4,510218	274,781929	318,737695	0
15.01.2021	11:42:45	0	76,054372	4,320974	1,86	2,304	0,499	89,318	0	1015,24	7,4	9,3	9,1	1	1	1	1	1	1	1	1	1	0	1	-2,255109	274,881125	321,459827	0
15.01.2021	11:42:46	0	75,703384	4,775783	1,91025	11,7036	0,504	89,313	0	1015,18	7,5	9,2	9,2	1	1	1	1	1	1	1	1	1	0	1	-5,778717	274,9465	318,244286	0
15.01.2021	11:42:47	0	75,702897	2,956454	2,004	358,4376	0,505	89,32	0	1015,14	7,5	9,3	9,1	1	1	1	1	1	1	1	1	1	0	1	-1,198027	274,828364	322,268442	0
15.01.2021	11:42:48	0	75,937846	4,889519	2,064	356,598	0,504	89,322	0	1015,2	7,5	9,2	9,1	1	1	1	1	1	1	1	1	1	0	1	-1,198027	274,791207	322,093547	0
15.01.2021	11:42:49	0	75,82017	4,20726	2,106	3,78	0,499	89,32	0	1015,02	7,5	9,3	9,1	1	1	1	1	1	1	1	1	1	0	1	-1,409443	274,938706	322,576819	0
15.01.2021	11:42:50	0	75,820745	2,501613	2,064	13,5252	0,504	89,336	0	1015,14	7,5	9,2	9,1	1	1	1	1	1	1	1	1	1	0	1	-1,409443	274,811325	321,976815	0
15.01.2021	11:42:51	0	75,586411	2,615322	1,96125	16,8372	0,504	89,314	0	1015,06	7,5	9,2	9,1	1	1	1	1	1	1	1	1	1	0	1	-3,171247	274,937147	320,807669	0
15.01.2021	11:42:52	0	75,468737	2,842741	1,80375	357,2532	0,507	89,345	0	1015,2	7,5	9,3	9,1	1	1	1	1	1	1	1	1	1	0	1	-4,087385	274,831463	319,393677	0
15.01.2021	11:42:53	0	75,820343	4,662065	1,84425	0,1188	0,503	89,332	0	1015,18	7,5	9,3	9,2	1	1	1	1	1	1	1	1	1	0	1	-5,003524	274,930915	318,946016	0
15.01.2021	11:42:54	0	75,820917	2,61532	2,0115	356,1516	0,506	89,326	0	1015,2	7,5	9,2	9,1	1	1	1	1	1	1	1	1	1	0	1	-1,409443	274,850072	322,159237	0
15.01.2021	11:42:55	0	75,937617	4,662063	2,166	351,7056	0,5	89,337	0	1015,1	7,5	9,3	9,2	1	1	1	1	1	1	1	1	1	0	1	-0,916138	274,941823	323,084819	0
15.01.2021	11:42:56	0	76,172035	4,207251	2,274	353,988	0,5	89,348	0	1015,1	7,5	9,3	9,1	1	1	1	1	1	1	1	1	1	0	1	-5,355884	274,924684	318,56429	0
15.01.2021	11:42:57	0	76,172612	2,501608	2,271	356,166	0,508	89,346	0	1015,22	7,5	9,2	9,1	1	1	1	1	1	1	1	1	1	0	1	-1,973221	274,823715	321,471364	0
15.01.2021	11:42:58	0	76,172655	3,866121	2,2305	358,3368	0,504	89,35	0	1015,18	7,4	9,2	9,1	1	1	1	1	1	1	1	1	1	0	1	-4,016913	274,788114	319,260104	0
15.01.2021	11:42:59	0	76,05551	2,615316	2,301	349,0128	0,499	89,347	0	1015,26	7,5	9,2	9,1	1	1	1	1	1	1	1	1	1	0	1	-6,131078	274,788114	317,145939	0
15.01.2021	11:43:00	0	76,406628	5,11692	2,21775	355,4532	0,509	89,358	0	1015,16	7,5	9,3	9,1	1	1	1	1	1	1	1	1	1	0	1	-0,281889	274,9465	323,741115	0
15.01.2021	11:43:01	0	76,406628	5,11692	2,21775	355,4532	0,509	89,358	0	1015,16	7,5	9,3	9,1	1	1	1	1	1	1	1	1	1	0	1	-0,281889	274,9465	323,741115	0
15.01.2021	11:43:02	0	76,406671	4,8895	2,1465	1,1664	0,509	89,36	0	1015,28	7,5	9,3	9,1	1	1	1	1	1	1	1	1	1	0	1	-5,144468	274,836114	318,358489	0
15.01.2021	11:43:03	0	76,055682	2,615313	2,00325	358,452	0,501	89,354	0	1015,2	7,5	9,2	9,1	1	1	1	1	1	1	1	1	1	0	1	-4,439746	274,962098	319,656792	0
15.01.2021	11:43:04	0	76,172381	2,95644	2,0145	353,1744	0,498	89,362	0	1015,12	7,5	9,3	9,1	1	1	1	1	1	1	1	1	1	0	1	-7,258633	274,910672	316,595511	0
15.01.2021	11:43:05	0	76,641715	4,548369	1,9755	349,9236	0,515	89,376	0	1015,18	7,5	9,2	9,1	1	1	1	1	1	1	1	1	1	0	1	-7,188161	274,955858	316,878955	0
15.01.2021	11:43:06	0	76,641758	4,548367	1,9665	0,8604	0,505	89,376	0	1015,2	7,5	9,2	9,1	1	1	1	1	1	1	1	1	1	0	1	-3,805497	274,86404	319,828963	0
15.01.2021	11:43:07	0	76,407423	2,501601	2,13	346,0932	0,512	89,382	0	1015,22	7,5	9,2	9,1	1	1	1	1	1	1	1	1	1	0	1	-5,21494	274,786567	318,0548	0
15.01.2021	11:43:08	0	76,172554	2,61531	2,20575	1,998	0,514	89,378	0	1015,28	7,5	9,3	9,1	1	1	1	1	1	1	1	1	1	0	1	-5,144468	274,837664	318,365789	0
15.01.2021	11:43:09	0	76,29032	2,956436	2,32875	3,7692	0,506	89,381	0	1015,22	7,5	9,2	9,1	1	1	1	1	1	1	1	1	1	0	1	-3,24172	274,803585	320,108107	0
15.01.2021	11:43:10	0	76,173174	2,842709	2,31	5,6628	0,505	89,378	0	1015,12	7,5	9,2	9,2	1	1	1	1	1	1	1	1	1	0	1	-2,466526	274,785021	320,795938	0
15.01.2021	11:43:11	0	76,524249	3,070144	2,33325	4,4784	0,514	89,384	0	1015,26	7,5	9,3	9,1	1	1	1	1	1	1	1	1	1	0	1	-5,144468	274,823715	318,300117	0
15.01.2021	11:43:12	0	76,524293	3,297561	2,2005	4,8312	0,518	89,385	0	1015,26	7,5	9,3	9,1	1	1	1	1	1	1	1	1	1	0	1	-7,681466	274,794301	315,624667	0
15.01.2021	11:43:13	0	76,642062	3,638687	2,08725	8,6112	0,515	89,375	0	1015,18	7,5	9,2	9,1	1	1	1	1	1	1	1	1	1	0	1	-4,510218	274,90756	319,32926	0
15.01.2021	11:43:14	0	76,759295	4,889455	1,96575	12,0996	0,516	89,379	0	1015,04	7,5	9,2	9,2	1	1	1	1	1	1	1	1	1	0	1	-3,735025	274,923127	320,17781	0
15.01.2021	11:43:15	0	76,641611	4,662065	1,83975	7,5024	0,517	89,378	0	1015,22	7,5	9,3	9,1	1	1	1	1	1	1	1	1	1	0	1	-5,778717	274,944941	318,236936	0
15.01.2021	11:43:16	0	76,407277	3,183848	1,8165	34,7976	0,515	89,376	0	1015,38	7,5	9,3	9,1	1	1	1	1	1	1	1	1	1	0	1	-1,409443	274,814422	321,991392	0
15.01.2021	11:43:17	0	76,993265	4,88948	1,7325	19,1376	0,511	89,384	0	1015,18	7,5	9,3	9,1	1	1	1	1	1	1	1	1	1	0	1	-6,906272	274,918455	316,984548	0
15.01.2021	11:43:18	0	76,87612	4,548353	1,728	5,22	0,512	89,388	0	1015,22	7,5	9,3	9,1	1	1	1	1	1	1	1	1	1	0	1	-6,624383	274,926242	317,303131	0
15.01.2021	11:43:19	0	76,758974	4,548351	1,8495	7,1244	0,514	89,4	0	1015,2	7,5	9,3	9,1	1	1	1	1	1	1	1	1	1	0	1	-6,131078	274,800489	317,204181	0
15.01.2021	11:43:20	0	76,524638	3,524971	1,9785	10,0512	0,511	89,372	0	1015,22	7,5	9,3	9,1	1	1	1	1	1	1	1	1	1	0	1	-4,651163	274,924684	319,269012	0
15.01.2021	11:43:21	0	76,993439	4,662058	2,23125	5,2236	0,518	89,4	0	1015,34	7,5	9,3	9,1	1	1	1	1	1	1	1	1	1	0	1	-0,352361	274,78966	322,931934	0
15.01.2021	11:43:22	0	76,641914	4,207221	2,4915	14,2884	0,515	89,405	0	1015,1	7,5	9,3	9,1	1	1	1	1	1	1	1	1	1	0	1	-4,087385	274,839215	319,430172	0
15.01.2021	11:43:23	0	76,524768	4,320929	2,86575	6,0552	0,517	89,381	0	1015,26	7,5	9,3	9,1	1	1	1	1	1	1	1	1	1	0	1	-2,255109	274,973025	321,892947	0
15.01.2021	11:43:24	0	76,994109	4,207219	3,1815	4,8348	0,516	89,389	0	1015,08	7,5	9,2	9,1	1	1	1	1	1	1	1	1	1	0	1	-8,45666	274,882679	315,265597	0
15.01.2021	11:43:25	0	76,993613	4,434635	3,2595	8,2476	0,52	89,391	0	1015,36	7,5	9,3	9,1	1	1	1	1	1	1	1	1	1	0	1	-6,412967	274,809776	316,966004	0
15.01.2021	11:43:26	0	76,993656	4,320925	3,26625	18,0756	0,514	89,4	0	1015,14	7,5	9,3	9,1	1	1	1	1	1	1	1	1	1	0	1	-3,24172	274,921569	320,663776	0
15.01.2021	11:43:27	0	76,87651	3,524965	3,21	23,5764	0,521	89,424	0	1015,24	7,5	9,3	9,1	1	1	1	1	1	1	1	1	1	0	1	-2,889359	274,958978	321,192467	0
15.01.2021	11:43:28	0	76,993743	2,842713	3,09225	17,6868	0,511	89,395	0	1015,3	7,5	9,3	9,1	1	1	1	1	1	1	1	1	1	0	1	-7,82241	274,915342	316,053738	0
15.01.2021	11:43:29	0	76,759406	3,866088	3,123	14,6376	0,524	89,412	0	1015,26	7,5	9,3	9,1	1	1	1	1	1	1	1	1	1	0	1	-6,8358	274,902892	316,981686	0
15.01.2021	11:43:30	0	76,87664	2,956419	3,2865	17,676	0,523	89,416	0	1015,1	7,5	9,3	9,1	1	1	1	1	1	1	1	1	1	0	1	-5,285412	274,829914	318,188353	0
15.01.2021	11:43:31	0	76,76003	2,842693	3,38175	14,6268	0,52	89,43	0	1015,2	7,5	9,2	9,2	1	1	1	1	1	1	1	1	1	0	1	-6,8358	274,971463	317,304894	0
15.01.2021	11:43:32	0	76,993916	4,093502	3,378	10,044	0,525	89,419	0	1015,24	7,5	9,3	9,1	1	1	1	1	1	1	1	1	1	0	1	-2,889359	274,797395	320,431336	0
15.01.2021	11:43:33	0	77,463263	5,116876	3,27675	26,8992	0,52	89,418	0	1015,12	7,5	9,2	9,1	1	1	1	1	1	1	1	1	1	0	1	-6,483439	274,871804	317,187591	0
15.01.2021	11:43:34	0	77,228924	4,207208	3,13725	21,384	0,525	89,408	0	1015,24	7,5	9,2	9,1	1	1	1	1	1	1	1	1	1	0	1	-8,315715	274,833013	315,172645	0
15.01.2021	11:43:35	0	77,111236	4,775748	3,02325	11,2032	0,528	89,408	0	1015,16	7,5	9,3	9,1	1	1	1	1	1	1	1	1	1	0	1	-5,778717	274,812873	317,614829	0
15.01.2021	11:43:36	0	77,22847	5,003163	2,9595	10,8036	0,523	89,422	0	1015,22	7,5	9,3	9,1	1	1	1	1	1	1	1	1	1	0	1	-9,725159	274,957418	314,349312	0
15.01.2021	11:43:37	0	77,111323	4,548329	2,85	25,0344	0,529	89,408	0	1015,14	7,5	9,3	9,1	1	1	1	1	1	1	1	1	1	0	1	-3,030303	274,859383	320,582224	0
15.01.2021	11:43:38	0	77,111366	4,662008	2,70825	18,0828	0,529	89,414	0	1015,24	7,5	9,3	9,2	1	1	1	1	1	1	1	1	1	0	1	-2,60747	274,963659	321,496426	0
15.01.2021	11:43:39	0	77,345791	4,207202	2,53875	27,6372	0,525	89,403	0	1015,16	7,5	9,3	9,1	1	1	1	1	1	1	1	1	1	0	1	-3,875969	274,853175	319,707324	0
15.01.2021	11:43:40	0	77,228644	4,88945	2,376	8,9748	0,532	89,395	0	1014,96	7,5	9,3	9,1	1	1	1	1	1	1	1	1	1	0	1	-3,875969	274,974586	320,27945	0
15.01.2021	11:43:41	0	77,228687	3,411223	2,09625	22,8348	0,53	89,408	0	1015,1	7,5	9,3	9,2	1	1	1	1	1	1	1	1	1	0	1	-3,59408	274,913785	320,274732	0
15.01.2021	11:43:42	0	77,11208	1,933026	1,89	13,9104	0,53	89,41	0	1015,28	7,5	9,2	9,2	1	1	1	1	1	1	1	1	1	0	1	-6,976744	274,973025	317,171312	0
15.01.2021	11:43:43	0	77,346506	2,615269	1,707	5,2092	0,535	89,404	0	1015,22	7,5	9,2	9,2	1	1	1	1	1	1	1	1	1	0	1	-5,84919	274,846969	317,70488	0
15.01.2021	11:43:44	0	77,463199	5,344244	1,65975	358,7652	0,528	89,398	0	1015,16	7,5	9,3	9,2	1	1	1	1	1	1	1	1	1	0	1	-4,157858	274,955858	319,909258	0
15.01.2021	11:43:45	0	77,111669	2,728975	1,6875	351,0144	0,532	89,398	0	1015,22	7,5	9,3	9,2	1	1	1	1	1	1	1	1	1	0	1	-3,24172	274,836114	320,261238	0
15.01.2021	11:43:46	0	77,697668	2,956389	1,6995	350,3088	0,534	89,396	0	1015,22	7,5	9,3	9,2	1	1	1	1	1	1	1	1	1	0	1	-3,59408	274,846969	319,95999	0
15.01.2021	11:43:47	0	77,228947	4,434582	1,8255	342,0972	0,528	89,386	0	1015,22	7,5	9,3	9,2	1	1	1	1	1	1	1	1	1	0	1	-4,369274	274,988644	319,852439	0
15.01.2021	11:43:48	0	77,346181	3,183802	1,8585	347,5764	0,534	89,384	0	1015,22	7,5	9,3	9,2	1	1	1	1	1	1	1	1	1	0	1	-0,775194	274,916899	323,10829	0
15.01.2021	11:43:49	0	77,697798	4,43458	1,82475	355,0212	0,531	89,373	0	1015,2	7,5	9,3	9,2	1	1	1	1	1	1	1	1	1	0	1	-1,902748	274,976147	322,260033	0
15.01.2021	11:43:50	0	77,464002	3,97975	1,722	353,9232	0,526	89,369	0	1015,18	7,5	9,2	9,2	1	1	1	1	1	1	1	1	1	0	1	-7,047216	274,968341	317,078756	0
15.01.2021	11:43:51	0	77,580694	4,775727	1,665	358,7256	0,534	89,393	0	1015,18	7,5	9,3	9,1	1	1	1	1	1	1	1	1	1	0	1	-1,761804	274,969902	322,371529	0
15.01.2021	11:43:52	0	77,580737	4,320869	1,6245	353,2032	0,538	89,383	0	1015,2	7,5	9,3	9,2	1	1	1	1	1	1	1	1	1	0	1	-3,382664	274,962098	320,713875	0
15.01.2021	11:43:53	0	77,815164	3,411211	1,63575	345,0636	0,529	89,378	0	1015,06	7,5	9,3	9,2	1	1	1	1	1	1	1	1	1	0	1	-3,664553	274,833013	319,823807	0
15.01.2021	11:43:54	0	77,346441	3,411231	1,65525	8,2476	0,533	89,384	0	1015,22	7,5	9,3	9,1	1	1	1	1	1	1	1	1	1	0	1	-8,104299	274,973025	316,043757	0
15.01.2021	11:43:55	0	77,698059	3,070089	1,539	13,9104	0,538	89,379	0	1015,22	7,5	9,3	9,2	1	1	1	1	1	1	1	1	1	0	1	-7,188161	274,965219	316,923094	0
15.01.2021	11:43:56	0	78,166869	4,661985	1,3965	4,0788	0,531	89,375	0	1015,1	7,5	9,3	9,2	1	1	1	1	1	1	1	1	1	0	1	-5,990134	274,867145	317,658952	0
15.01.2021	11:43:57	0	77,463762	3,524915	1,275	6,0624	0,535	89,377	0	1015,24	7,5	9,3	9,2	1	1	1	1	1	1	1	1	1	0	1	-6,906272	274,812873	316,487275	0
15.01.2021	11:43:58	0	78,166956	4,093473	1,29225	4,086	0,537	89,393	0	1015,24	7,5	9,3	9,1	1	1	1	1	1	1	1	1	1	0	1	-5,144468	274,881125	318,570469	0
15.01.2021	11:43:59	0	78,050355	4,434594	1,34325	351,3456	0,537	89,379	0	1015,2	7,5	9,2	9,1	1	1	1	1	1	1	1	1	1	0	1	-5,144468	274,982395	319,047774	0
15.01.2021	11:44:00	0	77,698319	2,50155	1,416	0,954	0,537	89,387	0	1015,26	7,5	9,3	9,2	1	1	1	1	1	1	1	1	1	0	1	-7,470049	274,943382	316,538256	0
15.01.2021	11:44:01	0	77,698319	2,50155	1,416	0,954	0,537	89,387	0	1015,26	7,5	9,3	9,2	1	1	1	1	1	1	1	1	1	0	1	-2,959831	274,84852	320,601544	0
15.01.2021	11:44:02	0	78,167131	2,956394	1,5735	348,6528	0,536	89,374	0	1015	7,5	9,3	9,1	1	1	1	1	1	1	1	1	1	0	1	-1,832276	274,842316	321,699884	0
15.01.2021	11:44:03	0	77,93279	3,411223	1,749	354,6792	0,541	89,397	0	1015,28	7,5	9,3	9,1	1	1	1	1	1	1	1	1	1	0	1	-7,258633	274,865592	316,38314	0
15.01.2021	11:44:04	0	78,167218	3,070081	1,77525	353,9808	0,538	89,399	0	1015,34	7,5	9,3	9,2	1	1	1	1	1	1	1	1	1	0	1	-4,580691	274,85783	319,024527	0
15.01.2021	11:44:05	0	78,401646	4,320854	1,69875	360	0,537	89,386	0	1015,16	7,5	9,3	9,2	1	1	1	1	1	1	1	1	1	0	1	-7,399577	274,954298	316,660185	0
15.01.2021	11:44:06	0	78,518882	4,434559	1,6845	13,5252	0,537	89,396	0	1015,26	7,5	9,3	9,2	1	1	1	1	1	1	1	1	1	0	1	-5,355884	274,965219	318,75537	0
15.01.2021	11:44:07	0	78,167349	3,070079	1,599	30,6936	0,541	89,399	0	1015,08	7,5	9,3	9,2	1	1	1	1	1	1	1	1	1	0	1	-2,889359	274,934031	321,074868	0
15.01.2021	11:44:08	0	78,167392	2,842665	1,56075	17,6724	0,538	89,398	0	1015,22	7,5	9,3	9,2	1	1	1	1	1	1	1	1	1	0	1	-2,748414	274,982395	321,443827	0
15.01.2021	11:44:09	0	78,636206	4,54829	1,50975	7,5996	0,54	89,408	0	1015,14	7,5	9,3	9,1	1	1	1	1	1	1	1	1	1	0	1	-3,735025	274,929357	320,207173	0
15.01.2021	11:44:10	0	78,284672	4,775674	1,49175	12,8448	0,538	89,414	0	1015,18	7,5	9,3	9,2	1	1	1	1	1	1	1	1	1	0	1	-2,889359	274,836114	320,613598	0
15.01.2021	11:44:11	0	78,519101	3,524901	1,566	8,2404	0,543	89,419	0	1015,22	7,5	9,3	9,2	1	1	1	1	1	1	1	1	1	0	1	-6,060606	274,837664	317,449651	0
15.01.2021	11:44:12	0	78,284759	2,956386	1,8585	6,0588	0,538	89,404	0	1015,12	7,5	9,3	9,1	1	1	1	1	1	1	1	1	1	0	1	-4,298802	274,930915	319,650738	0
15.01.2021	11:44:13	0	78,519188	3,18378	1,932	19,512	0,532	89,405	0	1015,18	7,5	9,3	9,2	1	1	1	1	1	1	1	1	1	0	1	-6,906272	274,985519	317,300704	0
15.01.2021	11:44:14	0	78,636425	4,548256	2,04525	44,0316	0,545	89,426	0	1015,28	7,5	9,3	9,2	1	1	1	1	1	1	1	1	1	0	1	-6,624383	274,962098	317,472155	0
15.01.2021	11:44:15	0	78,519275	2,728969	2,01	12,8448	0,54	89,415	0	1015,22	7,5	9,3	9,1	1	1	1	1	1	1	1	1	1	0	1	-3,100775	274,957418	320,973695	0
15.01.2021	11:44:16	0	78,753705	4,775666	1,77675	11,7216	0,546	89,426	0	1015,16	7,5	9,3	9,2	1	1	1	1	1	1	1	1	1	0	1	-5,21494	275,002712	319,073127	0
15.01.2021	11:44:17	0	78,636556	2,387833	1,6365	1,548	0,548	89,416	0	1015,1	7,5	9,3	9,2	1	1	1	1	1	1	1	1	1	0	1	-1,902748	274,865592	321,739024	0
15.01.2021	11:44:18	0	78,402213	3,524895	1,677	15,03	0,544	89,429	0	1015,2	7,5	9,3	9,2	1	1	1	1	1	1	1	1	1	0	1	-3,312192	275,008968	321,005384	0
15.01.2021	11:44:19	0	79,339802	5,230488	1,8165	5,67	0,549	89,428	0	1015,22	7,6	9,3	9,2	1	1	1	1	1	1	1	1	1	0	1	-1,973221	274,965219	322,138034	0
15.01.2021	11:44:20	0	78,871073	3,752305	1,989	19,9008	0,544	89,435	0	1015,24	7,5	9,3	9,2	1	1	1	1	1	1	1	1	1	0	1	-8,245243	274,951178	315,799813	0
15.01.2021	11:44:21	0	78,753924	2,842655	2,06175	23,9724	0,546	89,434	0	1015,22	7,5	9,3	9,2	1	1	1	1	1	1	1	1	1	0	1	-3,312192	274,843867	320,227271	0
15.01.2021	11:44:22	0	78,636774	3,183792	1,959	31,0032	0,547	89,429	0	1015,2	7,5	9,3	9,1	1	1	1	1	1	1	1	1	1	0	1	-4,721635	274,904448	319,103181	0
15.01.2021	11:44:23	0	78,988398	5,116776	1,79625	8,9964	0,542	89,45	0	1015,18	7,5	9,3	9,2	1	1	1	1	1	1	1	1	1	0	1	-0,352361	274,859383	323,260166	0
15.01.2021	11:44:24	0	79,340022	4,09342	1,76325	23,958	0,544	89,443	0	1015,2	7,5	9,3	9,2	1	1	1	1	1	1	1	1	1	0	1	-4,792107	274,949619	319,245597	0
15.01.2021	11:44:25	0	79,105679	4,661949	1,88175	22,0824	0,548	89,443	0	1015,4	7,5	9,3	9,2	1	1	1	1	1	1	1	1	1	0	1	-4,510218	274,854727	319,080382	0
15.01.2021	11:44:26	0	79,457304	4,207123	1,992	30,9996	0,55	89,45	0	1015,06	7,6	9,3	9,2	1	1	1	1	1	1	1	1	1	0	1	-6,8358	274,856278	316,762109	0
15.01.2021	11:44:27	0	79,340154	3,752298	2,025	16,0848	0,55	89,456	0	1015,2	7,5	9,3	9,2	1	1	1	1	1	1	1	1	1	0	1	-5,426357	274,991769	318,810097	0
15.01.2021	11:44:28	0	79,574586	3,183767	1,97325	22,5432	0,546	89,44	0	1015,24	7,5	9,3	9,2	1	1	1	1	1	1	1	1	1	0	1	-4,933051	274,974586	319,222367	0
15.01.2021	11:44:29	0	79,340242	2,956372	1,869	18,8316	0,554	89,439	0	1015,26	7,5	9,3	9,1	1	1	1	1	1	1	1	1	1	0	1	-7,681466	274,854727	315,909135	0
15.01.2021	11:44:30	0	79,45748	2,615236	1,88175	18,8244	0,555	89,447	0	1015,24	7,5	9,3	9,2	1	1	1	1	1	1	1	1	1	0	1	-3,24172	275,013661	321,097996	0
15.01.2021	11:44:31	0	79,809106	3,070077	1,92975	25,5024	0,553	89,419	0	1015,3	7,5	9,3	9,1	1	1	1	1	1	1	1	1	1	0	1	-9,725159	274,920012	314,172999	0
15.01.2021	11:44:32	0	79,457568	2,728941	1,89825	17,2152	0,554	89,432	0	1015,22	7,5	9,3	9,2	1	1	1	1	1	1	1	1	1	0	1	-5,778717	274,850072	317,789963	0
15.01.2021	11:44:33	0	80,043582	2,615234	1,8375	26,5068	0,55	89,421	0	1015,22	7,6	9,3	9,2	1	1	1	1	1	1	1	1	1	0	1	-5,919662	274,980833	318,265214	0
15.01.2021	11:44:34	0	79,692044	2,615233	1,7655	19,5444	0,548	89,432	0	1015,24	7,5	9,3	9,2	1	1	1	1	1	1	1	1	1	0	1	-6,20155	274,840765	317,323308	0
15.01.2021	11:44:35	0	80,395253	5,11679	1,69125	24,8076	0,554	89,475	0	1015,34	7,5	9,3	9,1	1	1	1	1	1	1	1	1	1	0	1	-8,738548	274,971463	315,402146	0
15.01.2021	11:44:36	0	80,278103	3,524878	1,63275	13,914	0,556	89,427	0	1015,24	7,6	9,3	9,2	1	1	1	1	1	1	1	1	1	0	1	-7,540521	274,915342	316,335626	0
15.01.2021	11:44:37	0	79,926565	2,842643	1,632	10,8036	0,553	89,42	0	1015,24	7,5	9,3	9,2	1	1	1	1	1	1	1	1	1	0	1	-2,60747	274,84852	320,953905	0
15.01.2021	11:44:38	0	80,395387	3,070053	1,50975	16,4808	0,549	89,414	0	1015,22	7,6	9,3	9,2	1	1	1	1	1	1	1	1	1	0	1	-7,470049	274,974586	316,685369	0
15.01.2021	11:44:39	0	80,043847	2,956347	1,49025	12,9312	0,547	89,409	0	1015,06	7,4	9,3	9,2	1	1	1	1	1	1	1	1	1	0	1	-7,470049	275,007404	316,840148	0
15.01.2021	11:44:40	0	80,395475	3,411168	1,491	357,948	0,554	89,427	0	1015,18	7,6	9,3	9,2	1	1	1	1	1	1	1	1	1	0	1	-5,426357	274,929357	318,515841	0
15.01.2021	11:44:41	0	80,39552	4,434518	1,49625	346,7556	0,553	89,427	0	1015,08	7,5	9,3	9,2	1	1	1	1	1	1	1	1	1	0	1	-5,990134	275,016791	318,364345	0
15.01.2021	11:44:42	0	80,864343	4,775633	1,36425	347,5368	0,554	89,427	0	1015,2	7,5	9,3	9,2	1	1	1	1	1	1	1	1	1	0	1	-9,090909	274,9465	314,932094	0
15.01.2021	11:44:43	0	80,981582	4,32081	1,31175	358,0956	0,554	89,429	0	1015,28	7,6	9,3	9,2	1	1	1	1	1	1	1	1	1	0	1	-8,245243	274,845418	315,301523	0
15.01.2021	11:44:44	0	80,747237	3,979692	1,317	347,184	0,552	89,426	0	1015,14	7,6	9,3	9,2	1	1	1	1	1	1	1	1	1	0	1	-7,117689	274,982395	317,074553	0
15.01.2021	11:44:45	0	81,333256	4,775629	1,32975	332,712	0,557	89,442	0	1015,26	7,5	9,3	9,2	1	1	1	1	1	1	1	1	1	0	1	-5,285412	275,041845	319,187276	0
15.01.2021	11:44:46	0	80,747326	3,297457	1,41975	337,4748	0,557	89,436	0	1015,22	7,5	9,3	9,2	1	1	1	1	1	1	1	1	1	0	1	-5,144468	274,920012	318,75369	0
15.01.2021	11:44:47	0	80,864566	4,434511	1,55925	351,4356	0,564	89,42	0	1015,22	7,6	9,3	9,2	1	1	1	1	1	1	1	1	1	0	1	-6,342495	275,021486	318,034134	0
15.01.2021	11:44:48	0	81,33339	3,638572	1,63875	333,4572	0,552	89,432	0	1015,12	7,6	9,3	9,2	1	1	1	1	1	1	1	1	1	0	1	-8,033827	274,918455	315,856994	0
15.01.2021	11:44:49	0	80,864655	3,070044	1,6995	0,8604	0,56	89,44	0	1015,24	7,6	9,3	9,2	1	1	1	1	1	1	1	1	1	0	1	-4,792107	274,833013	318,696253	0
15.01.2021	11:44:50	0	81,09909	3,297454	1,66875	9,7308	0,56	89,447	0	1015,26	7,5	9,3	9,2	1	1	1	1	1	1	1	1	1	0	1	-10,007047	274,977709	314,163098	0
15.01.2021	11:44:51	0	81,802306	3,86598	1,6605	349,092	0,562	89,445	0	1015,18	7,6	9,3	9,2	1	1	1	1	1	1	1	1	1	0	1	-4,157858	275,032446	320,27048	0
15.01.2021	11:44:52	0	81,802351	4,54821	1,73025	4,8276	0,56	89,453	0	1015,2	7,6	9,3	9,2	1	1	1	1	1	1	1	1	1	0	1	-6,272023	274,996458	317,986547	0
15.01.2021	11:44:53	0	82,036787	5,116735	1,74075	349,3476	0,568	89,447	0	1015,3	7,6	9,3	9,2	1	1	1	1	1	1	1	1	1	0	1	-5,073996	275,024617	319,317403	0
15.01.2021	11:44:54	0	82,154027	4,775618	1,7055	358,3188	0,564	89,455	0	1015,12	7,6	9,3	9,2	1	1	1	1	1	1	1	1	1	0	1	-3,030303	274,955858	321,036813	0
15.01.2021	11:44:55	0	81,68529	4,207091	1,626	350,5788	0,557	89,456	0	1015,18	7,6	9,3	9,2	1	1	1	1	1	1	1	1	1	0	1	-8,527132	275,027748	315,879041	0
15.01.2021	11:44:56	0	82,154117	4,889321	1,47975	350,208	0,56	89,45	0	1015,18	7,6	9,3	9,2	1	1	1	1	1	1	1	1	1	0	1	-7,470049	274,963659	316,633847	0
15.01.2021	11:44:57	0	81,919771	2,956333	1,5405	5,2056	0,566	89,443	0	1015,2	7,6	9,3	9,2	1	1	1	1	1	1	1	1	1	0	1	-4,580691	274,874911	319,104972	0
15.01.2021	11:44:58	0	82,037012	2,274101	1,8075	0,1188	0,568	89,468	0	1015,14	7,6	9,3	9,2	1	1	1	1	1	1	1	1	1	0	1	-4,369274	274,90756	319,470204	0
15.01.2021	11:44:59	0	82,271448	4,434496	2,03475	26,1468	0,567	89,47	0	1015,16	7,6	9,3	9,2	1	1	1	1	1	1	1	1	1	0	1	-7,258633	275,023051	317,125381	0
15.01.2021	11:45:00	0	82,505931	3,752264	2,3325	1,9188	0,562	89,471	0	1015,26	7,6	9,3	9,2	1	1	1	1	1	1	1	1	1	0	1	-3,946441	274,996458	320,312128	0
15.01.2021	11:45:01	0	82,505931	3,752264	2,3325	1,9188	0,562	89,471	0	1015,26	7,6	9,3	9,2	1	1	1	1	1	1	1	1	1	0	1	-3,946441	274,996458	320,312128	0
15.01.2021	11:45:02	0	82,271584	4,093378	2,448	10,4328	0,572	89,456	0	1015,2	7,6	9,3	9,2	1	1	1	1	1	1	1	1	1	0	1	-13,742072	274,870251	309,921643	0
15.01.2021	11:45:03	0	82,740413	3,524852	2,75625	9,7416	0,571	89,467	0	1015,22	7,6	9,3	9,2	1	1	1	1	1	1	1	1	1	0	1	-7,399577	274,952738	316,652832	0
15.01.2021	11:45:04	0	82,857655	5,230425	2,8395	7,5168	0,572	89,475	0	1015,26	7,6	9,3	9,2	1	1	1	1	1	1	1	1	1	0	1	-2,959831	274,885788	320,777069	0
15.01.2021	11:45:05	0	83,092092	4,320785	2,766	357,6852	0,567	89,454	0	1015,14	7,6	9,3	9,2	1	1	1	1	1	1	1	1	1	0	1	-4,087385	274,937147	319,891531	0
15.01.2021	11:45:06	0	82,857745	3,183735	2,7225	7,4952	0,57	89,461	0	1015,26	7,4	9,3	9,2	1	1	1	1	1	1	1	1	1	0	1	-11,346018	275,044979	313,141459	0
15.01.2021	11:45:07	0	83,20938	4,661897	2,64225	359,136	0,569	89,462	0	1015,08	7,6	9,3	9,2	1	1	1	1	1	1	1	1	1	0	1	-6,483439	274,973025	317,664617	0
15.01.2021	11:45:08	0	83,092229	4,320781	2,577	1,17	0,578	89,495	0	1015,26	7,6	9,3	9,2	1	1	1	1	1	1	1	1	1	0	1	-10,993658	274,90756	312,845821	0
15.01.2021	11:45:09	0	82,740685	2,387799	2,57025	1,548	0,57	89,461	0	1015,36	7,6	9,3	9,2	1	1	1	1	1	1	1	1	1	0	1	-6,412967	275,038711	318,044935	0
15.01.2021	11:45:10	0	82,975123	2,501504	2,57325	12,4596	0,571	89,481	0	1015,3	7,6	9,3	9,2	1	1	1	1	1	1	1	1	1	0	1	-7,047216	274,94806	316,983137	0
15.01.2021	11:45:11	0	83,209562	3,752254	2,60925	7,1136	0,576	89,483	0	1015,28	7,6	9,3	9,2	1	1	1	1	1	1	1	1	1	0	1	-6,060606	274,874911	317,625056	0
15.01.2021	11:45:12	0	83,326804	2,842616	2,5875	6,0516	0,576	89,485	0	1015,32	7,6	9,3	9,2	1	1	1	1	1	1	1	1	1	0	1	-9,161381	275,004276	315,134062	0
15.01.2021	11:45:13	0	83,444046	4,43448	2,613	4,4496	0,577	89,491	0	1015,16	7,6	9,3	9,2	1	1	1	1	1	1	1	1	1	0	1	-5,21494	274,896671	318,573231	0
15.01.2021	11:45:14	0	83,795682	2,387796	2,68725	7,1172	0,58	89,475	0	1015,24	7,6	9,3	9,2	1	1	1	1	1	1	1	1	1	0	1	-9,161381	274,943382	314,846924	0
15.01.2021	11:45:15	0	83,444137	3,865955	2,676	8,262	0,579	89,487	0	1015,32	7,6	9,3	9,2	1	1	1	1	1	1	1	1	1	0	1	-9,795631	275,037145	314,654879	0
15.01.2021	11:45:16	0	83,444183	2,615204	2,56875	1,5516	0,581	89,485	0	1015,2	7,6	9,3	9,2	1	1	1	1	1	1	1	1	1	0	1	-10,288936	274,882679	313,433321	0
15.01.2021	11:45:17	0	83,561425	2,956317	2,57775	2,6496	0,578	89,482	0	1015,22	7,6	9,3	9,2	1	1	1	1	1	1	1	1	1	0	1	-8,174771	274,918455	315,716049	0
15.01.2021	11:45:18	0	83,913062	3,638543	2,74725	359,8812	0,584	89,5	0	1015,28	7,6	9,3	9,2	1	1	1	1	1	1	1	1	1	0	1	-9,090909	274,865592	314,550864	0
15.01.2021	11:45:19	0	83,678714	2,842611	2,796	10,4472	0,578	89,479	0	1015,26	7,6	9,3	9,2	1	1	1	1	1	1	1	1	1	0	1	-10,570825	274,996458	313,687745	0
15.01.2021	11:45:20	0	84,030351	3,752245	2,92575	9,7416	0,585	89,529	0	1015,32	7,6	9,3	9,2	1	1	1	1	1	1	1	1	1	0	1	-12,262156	274,901337	311,547999	0
15.01.2021	11:45:21	0	84,264791	4,434471	2,98425	4,8276	0,574	89,493	0	1015,14	7,6	9,3	9,2	1	1	1	1	1	1	1	1	1	0	1	-7,329105	274,999585	316,944212	0
15.01.2021	11:45:22	0	84,382034	4,548174	2,997	5,2344	0,584	89,501	0	1015,1	7,6	9,3	9,2	1	1	1	1	1	1	1	1	1	0	1	-8,879493	274,934031	315,084734	0
15.01.2021	11:45:23	0	84,147685	4,434468	3,081	12,0888	0,581	89,514	0	1015,22	7,6	9,3	9,2	1	1	1	1	1	1	1	1	1	0	1	-6,694856	275,071638	317,918448	0
15.01.2021	11:45:24	0	84,264929	2,274086	3,09225	15,0372	0,587	89,5	0	1014,98	7,6	9,3	9,2	1	1	1	1	1	1	1	1	1	0	1	-13,107822	274,938706	310,87844	0
15.01.2021	11:45:25	0	84,03058	4,775579	2,928	12,8376	0,588	89,519	0	1015,2	7,6	9,3	9,2	1	1	1	1	1	1	1	1	1	0	1	-10,711769	274,895116	313,069076	0
15.01.2021	11:45:26	0	84,616613	3,183718	2,874	5,6736	0,585	89,515	0	1015,26	7,6	9,3	9,2	1	1	1	1	1	1	1	1	1	0	1	-7,188161	274,991769	317,048293	0
15.01.2021	11:45:27	0	84,616659	4,320759	2,90025	7,614	0,585	89,518	0	1015,16	7,6	9,3	9,2	1	1	1	1	1	1	1	1	1	0	1	-10,218464	274,895116	313,562381	0
15.01.2021	11:45:28	0	84,733903	4,661871	2,8335	1,5444	0,59	89,531	0	1015,16	7,6	9,3	9,2	1	1	1	1	1	1	1	1	1	0	1	-5,567301	275,073207	319,053411	0
15.01.2021	11:45:29	0	84,851147	2,728899	2,6745	355,4244	0,589	89,532	0	1015,24	7,6	9,3	9,2	1	1	1	1	1	1	1	1	1	0	1	-11,909796	274,969902	312,223538	0
15.01.2021	11:45:30	0	84,499599	3,070011	2,622	1,9872	0,59	89,512	0	1015,26	7,6	9,3	9,2	1	1	1	1	1	1	1	1	1	0	1	-10,782241	275,073207	313,83847	0
15.01.2021	11:45:31	0	85,085635	4,093347	2,4795	1,9116	0,59	89,513	0	1015,22	7,6	9,3	9,2	1	1	1	1	1	1	1	1	1	0	1	-3,664553	274,952738	320,387856	0
15.01.2021	11:45:32	0	84,616889	3,183713	2,4225	1,5228	0,592	89,53	0	1015,24	7,6	9,3	9,2	1	1	1	1	1	1	1	1	1	0	1	-10,782241	275,05752	313,764423	0
15.01.2021	11:45:33	0	85,085727	3,979641	2,45475	358,3476	0,586	89,533	0	1015,14	7,6	9,3	9,2	1	1	1	1	1	1	1	1	1	0	1	-10,077519	275,035578	314,365599	0
15.01.2021	11:45:34	0	85,085773	4,320752	2,574	4,0896	0,589	89,538	0	1015,2	7,6	9,3	9,2	1	1	1	1	1	1	1	1	1	0	1	-8,45666	274,999585	315,816657	0
15.01.2021	11:45:35	0	84,968621	3,979638	2,51775	9,3708	0,596	89,536	0	1015,16	7,6	9,3	9,2	1	1	1	1	1	1	1	1	1	0	1	-13,601128	275,062225	310,967743	0
15.01.2021	11:45:36	0	85,08527	3,297414	2,35275	5,6628	0,588	89,518	0	1015,08	7,6	9,4	9,2	1	1	1	1	1	1	1	1	1	0	1	-8,033827	274,94806	315,996527	0
15.01.2021	11:45:37	0	85,085912	2,842597	2,24325	8,9892	0,593	89,528	0	1015,16	7,6	9,3	9,2	1	1	1	1	1	1	1	1	1	0	1	-11,06413	275,044979	313,423348	0
15.01.2021	11:45:38	0	85,085958	3,638524	2,15175	7,8732	0,591	89,538	0	1015,24	7,6	9,3	9,2	1	1	1	1	1	1	1	1	1	0	1	-9,513742	274,902892	314,303743	0
15.01.2021	11:45:39	0	85,437599	2,615188	2,08425	17,2116	0,598	89,549	0	1015,32	7,6	9,3	9,2	1	1	1	1	1	1	1	1	1	0	1	-12,121212	274,980833	312,063664	0
15.01.2021	11:45:40	0	85,08605	4,661856	2,25225	0,4788	0,6	89,542	0	1015,24	7,6	9,3	9,2	1	1	1	1	1	1	1	1	1	0	1	-9,584214	274,896671	314,203957	0
15.01.2021	11:45:41	0	85,671489	4,889262	2,4345	12,8448	0,596	89,534	0	1015,2	7,6	9,4	9,2	1	1	1	1	1	1	1	1	1	0	1	-10,570825	274,951178	313,474232	0
15.01.2021	11:45:42	0	85,554937	4,320742	2,46375	23,3028	0,594	89,552	0	1015,3	7,6	9,3	9,2	1	1	1	1	1	1	1	1	1	0	1	-11,980268	275,066931	312,610816	0
15.01.2021	11:45:43	0	85,320586	2,387778	2,4855	3,024	0,601	89,531	0	1015,24	7,6	9,3	9,2	1	1	1	1	1	1	1	1	1	0	1	-9,513742	274,990207	314,715341	0
15.01.2021	11:45:44	0	85,555029	3,752222	2,61825	7,8876	0,598	89,534	0	1015,26	7,6	9,3	9,2	1	1	1	1	1	1	1	1	1	0	1	-12,825934	275,066931	311,76515	0
15.01.2021	11:45:45	0	85,906672	3,638517	2,7735	358,7148	0,594	89,539	0	1015,14	7,6	9,3	9,2	1	1	1	1	1	1	1	1	1	0	1	-7,188161	274,921569	316,717335	0
15.01.2021	11:45:46	0	85,437923	3,411109	2,9085	3,0096	0,598	89,537	0	1015,2	7,6	9,3	9,2	1	1	1	1	1	1	1	1	1	0	1	-10,42988	275,029314	313,98368	0
15.01.2021	11:45:47	0	85,789566	4,09333	2,96625	4,0824	0,601	89,537	0	1015,16	7,6	9,3	9,2	1	1	1	1	1	1	1	1	1	0	1	-8,245243	274,895116	315,535602	0
15.01.2021	11:45:48	0	85,671814	2,728886	2,87775	8,5824	0,599	89,535	0	1015,12	7,6	9,4	9,2	1	1	1	1	1	1	1	1	1	0	1	-13,107822	274,985519	311,099154	0
15.01.2021	11:45:49	0	85,906256	4,661845	2,8635	5,2236	0,602	89,539	0	1015,26	7,6	9,4	9,2	1	1	1	1	1	1	1	1	1	0	1	-6,483439	274,902892	317,334046	0
15.01.2021	11:45:50	0	86,024103	4,54814	2,805	7,8876	0,6	89,531	0	1015,22	7,6	9,3	9,2	1	1	1	1	1	1	1	1	1	0	1	-10,42988	274,960538	313,659302	0
15.01.2021	11:45:51	0	85,906951	4,661843	2,793	6,8148	0,599	89,532	0	1015,2	7,6	9,3	9,2	1	1	1	1	1	1	1	1	1	0	1	-11,980268	274,90756	311,859211	0
15.01.2021	11:45:52	0	85,906997	2,728883	2,7075	14,2884	0,602	89,509	0	1015,14	7,6	9,3	9,2	1	1	1	1	1	1	1	1	1	0	1	-10,993658	274,990207	313,235426	0
15.01.2021	11:45:53	0	86,141442	3,638509	2,57625	20,268	0,6	89,53	0	1015,06	7,6	9,3	9,2	1	1	1	1	1	1	1	1	1	0	1	-12,403101	275,081056	312,254662	0
15.01.2021	11:45:54	0	86,258688	2,728881	2,45625	1,9188	0,606	89,497	0	1015,22	7,6	9,3	9,2	1	1	1	1	1	1	1	1	1	0	1	-9,513742	274,937147	314,465174	0
15.01.2021	11:45:55	0	86,258735	4,434431	2,37375	13,9248	0,603	89,519	0	1015,38	7,6	9,3	9,2	1	1	1	1	1	1	1	1	1	0	1	-10,641297	274,926242	313,286218	0
15.01.2021	11:45:56	0	86,375981	3,865913	2,205	3,3948	0,608	89,51	0	1015,2	7,6	9,3	9,2	1	1	1	1	1	1	1	1	1	0	1	-11,768851	275,029314	312,644709	0
15.01.2021	11:45:57	0	86,258828	3,297396	2,10975	0,1188	0,606	89,511	0	1015,16	7,6	9,3	9,2	1	1	1	1	1	1	1	1	1	0	1	-10,570825	275,063793	314,005449	0
15.01.2021	11:45:58	0	86,493273	4,661834	2,073	359,856	0,609	89,513	0	1015,2	7,6	9,3	9,2	1	1	1	1	1	1	1	1	1	0	1	-14,164905	275,093621	310,552177	0
15.01.2021	11:45:59	0	86,024521	4,20702	2,0565	3,7656	0,61	89,496	0	1015,06	7,6	9,3	9,2	1	1	1	1	1	1	1	1	1	0	1	-11,486963	275,048113	313,015307	0
15.01.2021	11:46:00	0	86,610006	4,434424	2,14725	1,1412	0,604	89,482	0	1015,12	7,6	9,4	9,2	1	1	1	1	1	1	1	1	1	0	1	-6,553911	274,888896	317,197634	0
15.01.2021	11:46:01	0	86,610006	4,434424	2,14725	1,1412	0,604	89,482	0	1015,12	7,6	9,4	9,2	1	1	1	1	1	1	1	1	1	0	1	-6,976744	274,998022	317,289198	0
15.01.2021	11:46:02	0	86,49346	2,728876	2,127	360	0,609	89,508	0	1015,08	7,6	9,3	9,2	1	1	1	1	1	1	1	1	1	0	1	-11,275546	274,954298	312,784216	0
15.01.2021	11:46:03	0	86,259107	4,548125	2,121	4,4676	0,603	89,504	0	1015,16	7,6	9,3	9,2	1	1	1	1	1	1	1	1	1	0	1	-13,319239	275,026182	311,079547	0
15.01.2021	11:46:04	0	86,375748	3,979608	2,03175	10,44	0,615	89,489	0	1015,24	7,6	9,4	9,2	1	1	1	1	1	1	1	1	1	0	1	-11,839323	274,902892	311,978162	0
15.01.2021	11:46:05	0	86,8452	4,775529	1,89975	16,848	0,606	89,48	0	1014,94	7,6	9,3	9,2	1	1	1	1	1	1	1	1	1	0	1	-11,557435	275,035578	312,885684	0
15.01.2021	11:46:06	0	86,259246	2,728873	2,055	19,5228	0,613	89,489	0	1015,26	7,6	9,3	9,2	1	1	1	1	1	1	1	1	1	0	1	-7,963354	274,932473	315,993528	0
15.01.2021	11:46:07	0	86,258688	3,524793	2,4555	13,1616	0,611	89,482	0	1015,14	7,6	9,4	9,2	1	1	1	1	1	1	1	1	1	0	1	-7,258633	274,902892	316,558853	0
15.01.2021	11:46:08	0	86,142139	2,615168	2,93025	16,4808	0,615	89,477	0	1015,08	7,6	9,3	9,2	1	1	1	1	1	1	1	1	1	0	1	-8,386187	275,019921	315,983057	0
15.01.2021	11:46:09	0	86,493786	4,889227	3,0435	15,1272	0,613	89,484	0	1015,18	7,6	9,3	9,2	1	1	1	1	1	1	1	1	1	0	1	-7,963354	274,898226	315,832144	0
15.01.2021	11:46:10	0	86,611032	2,956276	2,98275	24,7068	0,61	89,467	0	1015,14	7,6	9,3	9,2	1	1	1	1	1	1	1	1	1	0	1	-11,346018	274,935589	312,625553	0
15.01.2021	11:46:11	0	86,610472	5,002927	3,018	30,3156	0,614	89,481	0	1015,28	7,6	9,4	9,2	1	1	1	1	1	1	1	1	1	0	1	-6,131078	275,066931	318,460005	0
15.01.2021	11:46:12	0	86,142324	2,38776	3,04125	30,9852	0,608	89,474	0	1015,16	7,6	9,3	9,2	1	1	1	1	1	1	1	1	1	0	1	-10,077519	274,916899	313,805964	0
15.01.2021	11:46:13	0	86,962774	4,889222	3,0285	33,9336	0,617	89,471	0	1015,32	7,6	9,3	9,2	1	1	1	1	1	1	1	1	1	0	1	-9,654686	275,002712	314,63338	0
15.01.2021	11:46:14	0	86,494018	4,207004	2,91525	32,5764	0,617	89,484	0	1015,14	7,6	9,3	9,2	1	1	1	1	1	1	1	1	1	0	1	-11,06413	274,920012	312,834028	0
15.01.2021	11:46:15	0	86,728466	3,411083	2,88525	21,3696	0,613	89,462	0	1015,24	7,6	9,3	9,2	1	1	1	1	1	1	1	1	1	0	1	-9,584214	274,951178	314,460842	0
15.01.2021	11:46:16	0	86,142509	2,842568	3,081	17,6868	0,615	89,504	0	1015,56	7,6	9,3	9,2	1	1	1	1	1	1	1	1	1	0	1	-7,82241	275,062225	316,74646	0
15.01.2021	11:46:17	0	86,727951	2,615162	3,23325	18,5508	0,619	89,474	0	1015,24	7,6	9,4	9,2	1	1	1	1	1	1	1	1	1	0	1	-15,785765	274,934031	308,178462	0
15.01.2021	11:46:18	0	86,259802	3,183675	3,32775	21,006	0,613	89,454	0	1015,18	7,6	9,3	9,2	1	1	1	1	1	1	1	1	1	0	1	-9,372798	274,987081	314,841547	0
15.01.2021	11:46:19	0	86,377049	3,979593	3,36075	20,6352	0,625	89,458	0	1015,14	7,6	9,3	9,2	1	1	1	1	1	1	1	1	1	0	1	-12,403101	275,081056	312,254662	0
15.01.2021	11:46:20	0	86,37649	2,728863	3,23475	18,0828	0,623	89,45	0	1015,3	7,6	9,4	9,2	1	1	1	1	1	1	1	1	1	0	1	-9,090909	274,965219	315,020345	0
15.01.2021	11:46:21	0	86,493737	4,434401	3,0855	18,4572	0,63	89,466	0	1015,2	7,6	9,4	9,2	1	1	1	1	1	1	1	1	1	0	1	-11,134602	275,066931	313,456482	0
15.01.2021	11:46:22	0	86,142786	2,842564	3,0735	11,7108	0,622	89,46	0	1015,28	7,6	9,3	9,2	1	1	1	1	1	1	1	1	1	0	1	-12,544045	275,081056	312,113718	0
15.01.2021	11:46:23	0	86,259429	3,524779	3,3315	12,8556	0,62	89,44	0	1015,16	7,6	9,4	9,2	1	1	1	1	1	1	1	1	1	0	1	-10,923185	275,029314	313,490375	0
15.01.2021	11:46:24	0	86,259475	3,979588	3,5115	6,0516	0,621	89,413	0	1015,2	7,6	9,4	9,2	1	1	1	1	1	1	1	1	1	0	1	-7,540521	275,077916	317,102418	0
15.01.2021	11:46:25	0	86,611729	4,206992	3,7035	9,7308	0,62	89,424	0	1015,02	7,6	9,3	9,2	1	1	1	1	1	1	1	1	1	0	1	-9,161381	274,958978	314,920445	0
15.01.2021	11:46:26	0	86,142367	5,230312	3,65475	4,4676	0,626	89,423	0	1015,38	7,6	9,4	9,2	1	1	1	1	1	1	1	1	1	0	1	-13,03735	274,938706	310,948912	0
15.01.2021	11:46:27	0	86,025212	2,842543	3,7665	7,506	0,629	89,416	0	1015,22	7,6	9,4	9,3	1	1	1	1	1	1	1	1	1	0	1	-11,839323	275,088908	312,855509	0
15.01.2021	11:46:28	0	86,37686	4,320691	3,9585	2,2932	0,622	89,418	0	1015,2	7,6	9,4	9,2	1	1	1	1	1	1	1	1	1	0	1	-13,883016	274,983957	310,316592	0
15.01.2021	11:46:29	0	85,791504	2,615154	3,837	9,8388	0,617	89,394	0	1014,98	7,6	9,3	9,2	1	1	1	1	1	1	1	1	1	0	1	-9,795631	275,088908	314,899201	0
15.01.2021	11:46:30	0	86,259752	2,274047	3,58725	7,1244	0,621	89,373	0	1015,08	7,6	9,4	9,2	1	1	1	1	1	1	1	1	1	0	1	-13,460183	274,976147	310,702599	0
15.01.2021	11:46:31	0	85,908797	4,661794	3,54	358,7256	0,62	89,354	0	1015,32	7,6	9,3	9,2	1	1	1	1	1	1	1	1	1	0	1	-10,359408	275,037145	314,091102	0
15.01.2021	11:46:32	0	86,025442	3,183664	3,45825	356,634	0,623	89,324	0	1015,2	7,6	9,4	9,2	1	1	1	1	1	1	1	1	1	0	1	-8,45666	275,090479	316,245588	0
15.01.2021	11:46:33	0	86,025488	2,956258	3,5085	349,5384	0,624	89,305	0	1015,22	7,6	9,4	9,2	1	1	1	1	1	1	1	1	1	0	1	-11,627907	275,027748	312,778266	0
15.01.2021	11:46:34	0	85,791132	3,752173	3,41775	349,3512	0,629	89,28	0	1015,14	7,6	9,4	9,2	1	1	1	1	1	1	1	1	1	0	1	-11,909796	274,923127	312,003039	0
15.01.2021	11:46:35	0	85,674577	3,069959	3,2565	352,5516	0,62	89,302	0	1015,22	7,6	9,3	9,2	1	1	1	1	1	1	1	1	1	0	1	-5,003524	275,029314	319,410037	0
15.01.2021	11:46:36	0	85,43962	2,728852	3,2385	6,0516	0,624	89,224	0	1015,22	7,6	9,4	9,2	1	1	1	1	1	1	1	1	1	0	1	-6,624383	274,915342	317,251764	0
15.01.2021	11:46:37	0	85,79187	5,116595	3,20925	341,6472	0,62	89,209	0	1015,2	7,6	9,3	9,2	1	1	1	1	1	1	1	1	1	0	1	-10,782241	275,043412	313,697842	0
15.01.2021	11:46:38	0	85,674114	4,775459	3,177	356,1876	0,618	89,205	0	1015,14	7,6	9,4	9,3	1	1	1	1	1	1	1	1	1	0	1	-8,174771	275,043412	316,305312	0
15.01.2021	11:46:39	0	85,556958	4,434354	3,2955	5,6772	0,618	89,196	0	1015,16	7,6	9,4	9,3	1	1	1	1	1	1	1	1	1	0	1	-6,20155	275,081056	318,456212	0
15.01.2021	11:46:40	0	85,674805	3,297359	3,08475	18,4284	0,629	89,174	0	1015,12	7,6	9,3	9,2	1	1	1	1	1	1	1	1	1	0	1	-10,852713	275,016791	313,501765	0
15.01.2021	11:46:41	0	85,674851	2,84255	2,7855	23,5692	0,622	89,174	0	1015,1	7,6	9,3	9,2	1	1	1	1	1	1	1	1	1	0	1	-8,949965	275,088908	315,744867	0
15.01.2021	11:46:42	0	85,557095	3,183655	2,64375	20,9916	0,623	89,157	0	1015,18	7,6	9,4	9,2	1	1	1	1	1	1	1	1	1	0	1	-10,42988	274,937147	313,549036	0
15.01.2021	11:46:43	0	85,088334	4,320674	2,52825	10,4364	0,623	89,134	0	1015,22	7,6	9,4	9,2	1	1	1	1	1	1	1	1	1	0	1	-9,725159	275,037145	314,725351	0
15.01.2021	11:46:44	0	85,088976	3,069952	2,6865	13,932	0,627	89,142	0	1015,2	7,6	9,3	9,2	1	1	1	1	1	1	1	1	1	0	1	-4,510218	274,934031	319,454008	0
15.01.2021	11:46:45	0	85,206223	4,889152	2,83275	31,3992	0,625	89,128	0	1015,18	7,6	9,3	9,3	1	1	1	1	1	1	1	1	1	0	1	-9,161381	275,101478	315,5928	0
15.01.2021	11:46:46	0	84,854067	3,069932	2,55975	18,0792	0,626	89,142	0	1015,18	7,6	9,4	9,3	1	1	1	1	1	1	1	1	1	0	1	-12,544045	275,007404	311,766152	0
15.01.2021	11:46:47	0	84,971909	2,842546	2,28	20,6352	0,626	89,15	0	1015,26	7,6	9,3	9,2	1	1	1	1	1	1	1	1	1	0	1	-6,976744	274,926242	316,95077	0
15.01.2021	11:46:48	0	84,971359	3,865861	2,214	6,4224	0,626	89,148	0	1015,28	7,6	9,4	9,2	1	1	1	1	1	1	1	1	1	0	1	-8,949965	275,048113	315,552305	0
15.01.2021	11:46:49	0	84,737	3,638457	2,259	21,762	0,625	89,126	0	1015,18	7,6	9,4	9,2	1	1	1	1	1	1	1	1	1	0	1	-9,302326	274,971463	314,838369	0
15.01.2021	11:46:50	0	84,502641	4,206964	2,643	12,474	0,627	89,118	0	1015,24	7,6	9,4	9,2	1	1	1	1	1	1	1	1	1	0	1	-12,05074	275,101478	312,703441	0
15.01.2021	11:46:51	0	84,502686	3,183648	3,0195	6,4224	0,634	89,115	0	1015,34	7,6	9,4	9,2	1	1	1	1	1	1	1	1	1	0	1	-6,906272	274,955858	317,160844	0
15.01.2021	11:46:52	0	84,385529	3,752133	3,1035	4,8312	0,623	89,116	0	1015,26	7,6	9,4	9,3	1	1	1	1	1	1	1	1	1	0	1	-7,470049	274,934031	316,494177	0
15.01.2021	11:46:53	0	84,268371	3,979558	3,06	15,4728	0,62	89,111	0	1015,18	7,6	9,4	9,2	1	1	1	1	1	1	1	1	1	0	1	-7,540521	275,088908	317,15431	0
15.01.2021	11:46:54	0	84,620023	3,411049	3,072	10,4148	0,627	89,105	0	1015,22	7,6	9,4	9,2	1	1	1	1	1	1	1	1	1	0	1	-14,023961	275,041845	310,448728	0
15.01.2021	11:46:55	0	84,268461	4,889169	3,0315	12,4704	0,63	89,103	0	1015,28	7,6	9,4	9,2	1	1	1	1	1	1	1	1	1	0	1	-13,03735	275,090479	311,664898	0
15.01.2021	11:46:56	0	84,268505	2,728821	2,907	2,6496	0,621	89,096	0	1015,28	7,6	9,4	9,3	1	1	1	1	1	1	1	1	1	0	1	-9,161381	274,940265	314,832228	0
15.01.2021	11:46:57	0	83,79974	3,069941	2,85	3,0168	0,621	89,088	0	1015,22	7,6	9,4	9,2	1	1	1	1	1	1	1	1	1	0	1	-8,033827	274,965219	316,077428	0
15.01.2021	11:46:58	0	83,56538	2,728836	2,8905	7,5096	0,622	89,088	0	1015,2	7,6	9,4	9,2	1	1	1	1	1	1	1	1	1	0	1	-9,302326	274,916899	314,581158	0
15.01.2021	11:46:59	0	84,034234	3,297343	2,8185	25,0236	0,619	89,077	0	1015,3	7,6	9,4	9,2	1	1	1	1	1	1	1	1	1	0	1	-6,976744	275,019921	317,3925	0
15.01.2021	11:47:00	0	83,682715	2,615133	2,3385	31,104	0,623	89,06	0	1015,24	7,6	9,4	9,2	1	1	1	1	1	1	1	1	1	0	1	-5,426357	275,077916	319,216583	0
15.01.2021	11:47:01	0	83,682715	2,615133	2,3385	31,104	0,623	89,06	0	1015,24	7,6	9,4	9,2	1	1	1	1	1	1	1	1	1	0	1	-6,342495	274,980833	317,842381	0
15.01.2021	11:47:02	0	83,331151	2,842535	2,244	38,7864	0,618	89,044	0	1015,14	7,6	9,4	9,2	1	1	1	1	1	1	1	1	1	0	1	-10,218464	274,921569	313,687032	0
15.01.2021	11:47:03	0	83,800006	3,524742	2,38875	39,5244	0,623	89,048	0	1015,34	7,6	9,4	9,2	1	1	1	1	1	1	1	1	1	0	1	-10,007047	275,082626	314,658128	0
15.01.2021	11:47:04	0	82,979631	2,615131	2,463	34,3296	0,623	89,059	0	1015,28	7,6	9,4	9,2	1	1	1	1	1	1	1	1	1	0	1	-8,245243	274,976147	315,917539	0
15.01.2021	11:47:05	0	83,448486	4,206948	2,373	23,58	0,618	89,036	0	1015,18	7,6	9,4	9,2	1	1	1	1	1	1	1	1	1	0	1	-7,82241	275,104621	316,946615	0
15.01.2021	11:47:06	0	83,331327	3,183617	2,4285	32,1264	0,617	89,024	0	1015,18	7,6	9,4	9,3	1	1	1	1	1	1	1	1	1	0	1	-9,795631	275,019921	314,573614	0
15.01.2021	11:47:07	0	82,979762	4,661751	2,52375	21,384	0,618	89,033	0	1015,22	7,6	9,4	9,2	1	1	1	1	1	1	1	1	1	0	1	-7,117689	275,088908	317,577143	0
15.01.2021	11:47:08	0	83,097009	4,775422	2,68275	26,892	0,618	89,004	0	1015,32	7,6	9,4	9,3	1	1	1	1	1	1	1	1	1	0	1	-5,003524	274,973025	319,144532	0
15.01.2021	11:47:09	0	83,097053	4,661721	2,75925	28,7172	0,62	89,011	0	1015,2	7,6	9,4	9,3	1	1	1	1	1	1	1	1	1	0	1	-5,637773	275,088908	319,057059	0
15.01.2021	11:47:10	0	82,979894	3,297334	2,8065	27,9612	0,623	89,014	0	1015,22	7,6	9,4	9,2	1	1	1	1	1	1	1	1	1	0	1	-4,510218	274,935589	319,461353	0
15.01.2021	11:47:11	0	82,628328	2,842528	2,868	23,5692	0,617	89,013	0	1015,3	7,6	9,4	9,2	1	1	1	1	1	1	1	1	1	0	1	-5,990134	275,046546	318,504739	0
15.01.2021	11:47:12	0	82,745575	4,548017	2,898	20,6208	0,621	89,02	0	1015,2	7,6	9,4	9,3	1	1	1	1	1	1	1	1	1	0	1	-13,460183	274,913785	310,408629	0
15.01.2021	11:47:13	0	82,394008	3,411012	2,811	15,39	0,622	89,019	0	1015,2	7,6	9,4	9,3	1	1	1	1	1	1	1	1	1	0	1	-7,82241	275,048113	316,67986	0
15.01.2021	11:47:14	0	82,746242	5,002816	2,83725	6,0624	0,618	89,01	0	1015,24	7,6	9,3	9,3	1	1	1	1	1	1	1	1	1	0	1	-9,795631	275,104621	314,973395	0
15.01.2021	11:47:15	0	82,745706	4,889114	2,87175	3,3876	0,616	88,984	0	1015,08	7,6	9,4	9,3	1	1	1	1	1	1	1	1	1	0	1	-5,355884	275,071638	319,257419	0
15.01.2021	11:47:16	0	82,276935	3,979534	2,928	2,2968	0,618	88,981	0	1015,14	7,6	9,4	9,2	1	1	1	1	1	1	1	1	1	0	1	-6,553911	274,999585	317,719405	0
15.01.2021	11:47:17	0	82,628589	4,320636	3,09675	360	0,621	88,954	0	1015,18	7,6	9,4	9,2	1	1	1	1	1	1	1	1	1	0	1	-6,483439	274,921569	317,422057	0
15.01.2021	11:47:18	0	82,277021	3,297327	3,02925	18,072	0,615	88,957	0	1015,22	7,7	9,4	9,2	1	1	1	1	1	1	1	1	1	0	1	-7,681466	274,963659	316,42243	0
15.01.2021	11:47:19	0	82,159861	2,842522	2,895	15,0228	0,624	88,939	0	1015,24	7,6	9,4	9,2	1	1	1	1	1	1	1	1	1	0	1	-6,624383	274,938706	317,361879	0
15.01.2021	11:47:20	0	81,92607	3,638428	2,90325	14,2884	0,62	88,93	0	1015,18	7,6	9,3	9,2	1	1	1	1	1	1	1	1	1	0	1	-5,426357	274,915342	318,449791	0
15.01.2021	11:47:21	0	81,92554	3,865829	2,8065	5,2092	0,621	88,93	0	1015,24	7,6	9,4	9,2	1	1	1	1	1	1	1	1	1	0	1	-4,862579	275,018356	319,499282	0
15.01.2021	11:47:22	0	82,159991	4,093229	2,871	13,9068	0,622	88,931	0	1015,18	7,6	9,4	9,2	1	1	1	1	1	1	1	1	1	0	1	-5,84919	274,916899	318,034294	0
15.01.2021	11:47:23	0	82,04283	3,297303	2,95875	4,0788	0,618	88,929	0	1015,28	7,6	9,4	9,3	1	1	1	1	1	1	1	1	1	0	1	-9,936575	274,943382	314,07173	0
15.01.2021	11:47:24	0	81,222444	2,842519	2,94225	0,1296	0,617	88,929	0	1015,26	7,6	9,4	9,2	1	1	1	1	1	1	1	1	1	0	1	-4,510218	274,941823	319,490738	0
15.01.2021	11:47:25	0	82,042916	3,06992	2,88975	3,3912	0,619	88,919	0	1015,28	7,6	9,4	9,2	1	1	1	1	1	1	1	1	1	0	1	-8,174771	274,954298	315,884991	0
15.01.2021	11:47:26	0	81,691919	4,093225	2,7135	11,7108	0,625	88,928	0	1015,28	7,6	9,3	9,2	1	1	1	1	1	1	1	1	1	0	1	-10,147992	274,971463	313,992703	0
15.01.2021	11:47:27	0	81,105368	2,6151	2,67675	1,9296	0,624	88,932	0	1015,22	7,6	9,4	9,3	1	1	1	1	1	1	1	1	1	0	1	-11,557435	274,927799	312,377421	0
15.01.2021	11:47:28	0	80,988206	3,297299	2,625	21,7548	0,617	88,92	0	1015,1	7,7	9,4	9,3	1	1	1	1	1	1	1	1	1	0	1	-8,104299	274,969902	316,029034	0
15.01.2021	11:47:29	0	81,105453	4,548024	2,3985	13,5648	0,619	88,934	0	1015,18	7,6	9,4	9,2	1	1	1	1	1	1	1	1	1	0	1	-8,033827	274,927799	315,901029	0
15.01.2021	11:47:30	0	81,574314	3,865797	2,14875	6,0624	0,617	88,944	0	1015,34	7,6	9,4	9,3	1	1	1	1	1	1	1	1	1	0	1	-6,624383	274,9465	317,39862	0
15.01.2021	11:47:31	0	81,222743	3,638418	2,09625	11,3076	0,622	88,944	0	1015,2	7,6	9,4	9,2	1	1	1	1	1	1	1	1	1	0	1	-7,399577	275,041845	317,073111	0
15.01.2021	11:47:32	0	81,105581	3,297315	2,196	23,5944	0,613	88,938	0	1015,24	7,6	9,4	9,2	1	1	1	1	1	1	1	1	1	0	1	-6,060606	275,084197	318,611982	0
15.01.2021	11:47:33	0	80,988419	4,434293	2,29725	13,8924	0,619	88,945	0	1015,22	7,6	9,4	9,3	1	1	1	1	1	1	1	1	1	0	1	-3,664553	275,052816	320,859911	0
15.01.2021	11:47:34	0	80,754052	2,615111	2,4495	24,7176	0,617	88,935	0	1015,26	7,6	9,4	9,2	1	1	1	1	1	1	1	1	1	0	1	-7,963354	275,076347	316,672175	0
15.01.2021	11:47:35	0	80,636889	3,183612	2,46075	16,092	0,621	88,928	0	1015,24	7,6	9,4	9,2	1	1	1	1	1	1	1	1	1	0	1	-9,372798	274,930915	314,576742	0
15.01.2021	11:47:36	0	80,519727	3,069911	2,5845	36,216	0,623	88,95	0	1015,2	7,6	9,4	9,2	1	1	1	1	1	1	1	1	1	0	1	-6,20155	274,983957	317,998058	0
15.01.2021	11:47:37	0	80,988589	4,434288	2,643	20,6208	0,617	88,942	0	1015,04	7,6	9,4	9,3	1	1	1	1	1	1	1	1	1	0	1	-9,161381	275,096763	315,570538	0
15.01.2021	11:47:38	0	81,105836	4,775415	2,7015	17,2332	0,619	88,957	0	1015,14	7,6	9,4	9,2	1	1	1	1	1	1	1	1	1	0	1	-8,527132	275,044979	315,960346	0
15.01.2021	11:47:39	0	80,519289	3,297309	2,68125	24,3432	0,622	88,952	0	1015,04	7,6	9,5	9,2	1	1	1	1	1	1	1	1	1	0	1	-9,936575	275,088908	314,758257	0
15.01.2021	11:47:40	0	80,6371	4,547984	2,58975	22,068	0,619	88,977	0	1015,24	7,6	9,4	9,3	1	1	1	1	1	1	1	1	1	0	1	-6,553911	275,104621	318,215114	0
15.01.2021	11:47:41	0	80,871553	3,183607	2,47125	20,2788	0,617	88,965	0	1015,22	7,6	9,4	9,2	1	1	1	1	1	1	1	1	1	0	1	-5,637773	275,03088	318,783176	0
15.01.2021	11:47:42	0	80,51998	4,434283	2,262	21,1032	0,619	88,962	0	1015,18	7,6	9,4	9,3	1	1	1	1	1	1	1	1	1	0	1	-9,795631	275,101478	314,95855	0
15.01.2021	11:47:43	0	80,520586	4,206882	2,19975	12,0996	0,618	88,975	0	1015,2	7,7	9,3	9,3	1	1	1	1	1	1	1	1	1	0	1	-7,610994	275,026182	316,787792	0
15.01.2021	11:47:44	0	80,286216	2,16029	2,22375	12,4704	0,622	88,976	0	1015,04	7,6	9,3	9,3	1	1	1	1	1	1	1	1	1	0	1	-8,738548	275,079486	315,911803	0
15.01.2021	11:47:45	0	80,4029	4,32058	2,20125	25,416	0,617	88,979	0	1015	7,6	9,4	9,3	1	1	1	1	1	1	1	1	1	0	1	-9,302326	275,099906	315,444434	0
15.01.2021	11:47:46	0	80,520148	2,956185	2,094	15,4152	0,621	88,971	0	1015,38	7,6	9,4	9,3	1	1	1	1	1	1	1	1	1	0	1	-9,866103	274,96678	314,25251	0
15.01.2021	11:47:47	0	79,933602	2,728786	2,11425	11,1924	0,62	88,989	0	1015,14	7,6	9,5	9,3	1	1	1	1	1	1	1	1	1	0	1	-9,090909	274,976147	315,071873	0
15.01.2021	11:47:48	0	80,285821	3,183602	2,3475	7,8768	0,626	88,992	0	1015,34	7,6	9,4	9,2	1	1	1	1	1	1	1	1	1	0	1	-6,060606	274,926242	317,866909	0
15.01.2021	11:47:49	0	80,051451	4,547974	2,52525	14,6448	0,616	88,988	0	1015,28	7,6	9,4	9,3	1	1	1	1	1	1	1	1	1	0	1	-7,610994	275,023051	316,77302	0
15.01.2021	11:47:50	0	80,051493	2,274	2,49975	8,2692	0,623	88,992	0	1015,44	7,6	9,4	9,2	1	1	1	1	1	1	1	1	1	0	1	-5,355884	275,099906	319,390875	0
15.01.2021	11:47:51	0	80,168741	3,979499	2,4135	20,628	0,62	89,001	0	1015,28	7,6	9,4	9,2	1	1	1	1	1	1	1	1	1	0	1	-9,302326	275,101478	315,451855	0
15.01.2021	11:47:52	0	79,817724	3,069899	2,28525	19,512	0,616	88,992	0	1015,4	7,6	9,3	9,2	1	1	1	1	1	1	1	1	1	0	1	-8,597604	275,026182	315,801182	0
15.01.2021	11:47:53	0	79,817207	2,501383	2,15925	19,5444	0,619	89,009	0	1015,32	7,6	9,4	9,3	1	1	1	1	1	1	1	1	1	0	1	-7,540521	275,09205	317,169143	0
15.01.2021	11:47:54	0	79,699484	3,297297	2,112	20,628	0,619	89,01	0	1015,2	7,6	9,5	9,2	1	1	1	1	1	1	1	1	1	0	1	-7,963354	275,048113	316,538915	0
15.01.2021	11:47:55	0	79,700084	2,956196	2,06475	14,6484	0,615	89,006	0	1015,22	7,6	9,4	9,2	1	1	1	1	1	1	1	1	1	0	1	-4,792107	275,095192	319,932393	0
15.01.2021	11:47:56	0	79,934537	3,524695	2,14575	26,8848	0,627	89,012	0	1015,14	7,6	9,4	9,2	1	1	1	1	1	1	1	1	1	0	1	-7,258633	274,938706	316,72763	0
15.01.2021	11:47:57	0	79,700167	3,752094	2,3895	23,58	0,614	89,002	0	1015,3	7,6	9,4	9,2	1	1	1	1	1	1	1	1	1	0	1	-6,483439	275,041845	317,989249	0
15.01.2021	11:47:58	0	79,817415	3,410993	2,50725	16,0992	0,616	88,996	0	1015,16	7,6	9,4	9,2	1	1	1	1	1	1	1	1	1	0	1	-4,651163	275,074777	319,976957	0
15.01.2021	11:47:59	0	79,583044	2,956176	2,58675	13,536	0,617	89,003	0	1015,22	7,6	9,4	9,3	1	1	1	1	1	1	1	1	1	0	1	-5,355884	275,001149	318,924807	0
15.01.2021	11:48:00	0	79,583126	3,183572	2,58975	23,9652	0,62	89,009	0	1015,22	7,6	9,4	9,3	1	1	1	1	1	1	1	1	1	0	1	-7,399577	275,098334	317,339762	0
15.01.2021	11:48:01	0	79,583126	3,183572	2,58975	23,9652	0,62	89,009	0	1015,22	7,6	9,4	9,3	1	1	1	1	1	1	1	1	1	0	1	-7,047216	274,962098	317,049322	0
15.01.2021	11:48:02	0	79,348755	2,842474	2,5365	19,5228	0,624	89,007	0	1015,34	7,6	9,4	9,3	1	1	1	1	1	1	1	1	1	0	1	-7,329105	275,035578	317,114013	0
15.01.2021	11:48:03	0	79,466003	4,206886	2,4	15,4044	0,626	89,008	0	1015,46	7,6	9,4	9,2	1	1	1	1	1	1	1	1	1	0	1	-5,21494	274,926242	318,712574	0
15.01.2021	11:48:04	0	79,466044	4,434285	2,35425	17,676	0,619	88,992	0	1015,24	7,6	9,4	9,2	1	1	1	1	1	1	1	1	1	0	1	-6,272023	275,096763	318,459897	0
15.01.2021	11:48:05	0	79,700498	3,183588	2,2155	23,958	0,622	88,987	0	1015,16	7,6	9,4	9,2	1	1	1	1	1	1	1	1	1	0	1	-8,738548	275,054384	315,793314	0
15.01.2021	11:48:06	0	79,34892	4,661653	2,10825	12,8412	0,625	88,976	0	1015,16	7,6	9,4	9,3	1	1	1	1	1	1	1	1	1	0	1	-8,174771	275,059088	316,379294	0
15.01.2021	11:48:07	0	79,231754	4,661652	2,00775	17,2332	0,619	88,96	0	1015,08	7,6	9,4	9,3	1	1	1	1	1	1	1	1	1	0	1	-6,694856	274,923127	317,217979	0
15.01.2021	11:48:08	0	79,583973	4,320581	1,96125	13,554	0,623	88,971	0	1015,24	7,6	9,3	9,2	1	1	1	1	1	1	1	1	1	0	1	-6,906272	275,062225	317,662598	0
15.01.2021	11:48:09	0	79,114629	3,297265	1,95075	5,5764	0,622	88,946	0	1015,12	7,6	9,4	9,3	1	1	1	1	1	1	1	1	1	0	1	-10,359408	274,991769	313,877046	0
15.01.2021	11:48:10	0	78,99691	3,752059	2,061	18,45	0,623	88,966	0	1015,24	7,6	9,5	9,3	1	1	1	1	1	1	1	1	1	0	1	-6,694856	275,103049	318,066747	0
15.01.2021	11:48:11	0	79,114712	2,387673	2,166	5,22	0,625	88,971	0	1015,32	7,6	9,4	9,3	1	1	1	1	1	1	1	1	1	0	1	-4,721635	275,013661	319,61808	0
15.01.2021	11:48:12	0	78,880338	2,273987	2,2185	13,9212	0,625	88,966	0	1015,2	7,6	9,4	9,2	1	1	1	1	1	1	1	1	1	0	1	-5,778717	275,104621	318,990308	0
15.01.2021	11:48:13	0	78,997586	2,842484	2,208	36,9252	0,619	88,954	0	1015,12	7,6	9,4	9,2	1	1	1	1	1	1	1	1	1	0	1	-5,637773	274,9465	318,38523	0
15.01.2021	11:48:14	0	78,997627	5,00274	2,01225	5,6736	0,62	88,965	0	1015,16	7,6	9,4	9,3	1	1	1	1	1	1	1	1	1	0	1	-12,825934	275,03088	311,595015	0
15.01.2021	11:48:15	0	78,998222	4,775341	2,043	6,8148	0,625	88,966	0	1015,32	7,7	9,3	9,3	1	1	1	1	1	1	1	1	1	0	1	-10,782241	275,107765	314,001632	0
15.01.2021	11:48:16	0	78,763295	2,615083	2,0985	13,1616	0,625	88,967	0	1015,28	7,6	9,4	9,2	1	1	1	1	1	1	1	1	1	0	1	-6,694856	274,987081	317,519489	0
15.01.2021	11:48:17	0	78,881095	5,002736	2,14575	360	0,618	88,982	0	1015,28	7,6	9,3	9,3	1	1	1	1	1	1	1	1	1	0	1	-5,637773	275,150262	319,346826	0
15.01.2021	11:48:18	0	78,880583	4,32057	2,16975	4,5504	0,622	88,984	0	1015,2	7,7	9,4	9,2	1	1	1	1	1	1	1	1	1	0	1	-4,721635	274,924684	319,198539	0
15.01.2021	11:48:19	0	78,997278	3,979447	2,21625	8,604	0,626	88,983	0	1015,22	7,6	9,5	9,3	1	1	1	1	1	1	1	1	1	0	1	-1,550388	274,980833	322,634488	0
15.01.2021	11:48:20	0	78,64625	4,093145	2,13675	4,8204	0,625	88,976	0	1015,18	7,6	9,4	9,3	1	1	1	1	1	1	1	1	1	0	1	-7,188161	274,944941	316,827493	0
15.01.2021	11:48:21	0	78,881258	3,865747	2,10975	10,8144	0,627	88,979	0	1015,36	7,7	9,3	9,3	1	1	1	1	1	1	1	1	1	0	1	-8,033827	275,043412	316,446256	0
15.01.2021	11:48:22	0	78,411916	2,501365	2,08125	16,4916	0,625	88,994	0	1015,26	7,6	9,4	9,3	1	1	1	1	1	1	1	1	1	0	1	-7,399577	275,107765	317,384296	0
15.01.2021	11:48:23	0	78,528614	2,956176	2,07825	18,4608	0,625	88,966	0	1015,38	7,7	9,5	9,2	1	1	1	1	1	1	1	1	1	0	1	-5,21494	274,954298	318,844822	0
15.01.2021	11:48:24	0	78,177581	3,297252	2,12625	7,1172	0,629	88,988	0	1015,22	7,6	9,4	9,3	1	1	1	1	1	1	1	1	1	0	1	-7,751938	275,052816	316,772525	0
15.01.2021	11:48:25	0	78,29483	3,752045	2,0775	6,8184	0,623	88,992	0	1015,16	7,7	9,4	9,3	1	1	1	1	1	1	1	1	1	0	1	-5,778717	274,929357	318,16348	0
15.01.2021	11:48:26	0	78,646494	4,43426	2,08575	352,1808	0,622	88,998	0	1015,24	7,7	9,4	9,2	1	1	1	1	1	1	1	1	1	0	1	-5,285412	275,03088	319,135536	0
15.01.2021	11:48:27	0	78,177702	3,752065	2,02725	7,5168	0,626	89,013	0	1015,24	7,6	9,4	9,2	1	1	1	1	1	1	1	1	1	0	1	-3,523608	275,099906	321,223152	0
15.01.2021	11:48:28	0	78,294951	4,434231	1,9245	359,1792	0,624	88,998	0	1015,16	7,6	9,4	9,3	1	1	1	1	1	1	1	1	1	0	1	-5,144468	275,148686	319,832687	0
15.01.2021	11:48:29	0	78,060575	2,842472	1,959	1,1664	0,626	88,999	0	1015,08	7,6	9,4	9,2	1	1	1	1	1	1	1	1	1	0	1	-2,677942	275,066931	321,913141	0
15.01.2021	11:48:30	0	78,060068	2,615074	2,0475	8,2656	0,626	89,006	0	1015,26	7,7	9,5	9,2	1	1	1	1	1	1	1	1	1	0	1	-4,580691	274,930915	319,368849	0
15.01.2021	11:48:31	0	78,41228	2,842471	2,1465	10,4184	0,625	88,999	0	1015,32	7,6	9,4	9,2	1	1	1	1	1	1	1	1	1	0	1	-5,84919	275,016791	318,505289	0
15.01.2021	11:48:32	0	78,060149	3,63834	2,08725	359,9496	0,624	89,009	0	1015,24	7,7	9,5	9,3	1	1	1	1	1	1	1	1	1	0	1	-7,82241	274,958978	316,259416	0
15.01.2021	11:48:33	0	78,295701	2,615056	1,99875	11,718	0,622	88,997	0	1015,44	7,6	9,3	9,3	1	1	1	1	1	1	1	1	1	0	1	-5,285412	275,048113	319,216857	0
15.01.2021	11:48:34	0	78,060776	4,09313	2,12025	0,864	0,626	89,017	0	1015,3	7,6	9,4	9,3	1	1	1	1	1	1	1	1	1	0	1	-4,510218	275,098334	320,229121	0
15.01.2021	11:48:35	0	78,177477	3,638337	2,39625	2,2824	0,626	88,997	0	1015,34	7,7	9,5	9,3	1	1	1	1	1	1	1	1	1	0	1	-10,359408	275,115628	314,461596	0
15.01.2021	11:48:36	0	78,178612	4,434222	2,46675	7,1316	0,62	89,018	0	1015,2	7,7	9,3	9,3	1	1	1	1	1	1	1	1	1	0	1	-9,44327	275,026182	314,955516	0
15.01.2021	11:48:37	0	77,709271	2,501371	2,487	12,1068	0,623	89,018	0	1015,28	7,6	9,4	9,2	1	1	1	1	1	1	1	1	1	0	1	-2,184637	275,125068	322,680949	0
15.01.2021	11:48:38	0	78,295354	3,86573	2,418	10,4256	0,631	89,024	0	1015,04	7,6	9,4	9,3	1	1	1	1	1	1	1	1	1	0	1	-2,60747	274,985519	321,599506	0
15.01.2021	11:48:39	0	77,943768	4,547917	2,3565	19,9188	0,619	89,012	0	1015,22	7,6	9,4	9,3	1	1	1	1	1	1	1	1	1	0	1	-3,805497	275,11091	320,993226	0
15.01.2021	11:48:40	0	77,827145	3,752031	2,199	19,53	0,631	89,028	0	1015,28	7,6	9,3	9,3	1	1	1	1	1	1	1	1	1	0	1	-11,205074	275,104621	313,563951	0
15.01.2021	11:48:41	0	77,826639	2,956145	2,13975	5,2164	0,631	89,035	0	1015,44	7,7	9,4	9,3	1	1	1	1	1	1	1	1	1	0	1	-4,651163	275,007404	319,659035	0
15.01.2021	11:48:42	0	77,943888	4,547914	2,4735	14,6556	0,622	89,025	0	1015,28	7,6	9,4	9,3	1	1	1	1	1	1	1	1	1	0	1	-8,45666	274,954298	315,603102	0
15.01.2021	11:48:43	0	77,943928	3,524632	3,1365	19,1304	0,627	89,014	0	1015,2	7,7	9,4	9,3	1	1	1	1	1	1	1	1	1	0	1	-4,933051	275,00584	319,369768	0
15.01.2021	11:48:44	0	77,70955	4,206843	3,3435	20,3004	0,624	89,034	0	1015,26	7,7	9,4	9,2	1	1	1	1	1	1	1	1	1	0	1	-8,527132	275,115628	316,293872	0
15.01.2021	11:48:45	0	78,061217	4,093144	3,57	349,9416	0,629	89,021	0	1015,26	7,6	9,4	9,2	1	1	1	1	1	1	1	1	1	0	1	-1,479915	275,076347	323,155614	0
15.01.2021	11:48:46	0	77,944048	4,32054	3,723	359,8596	0,623	89,009	0	1015,22	7,6	9,4	9,2	1	1	1	1	1	1	1	1	1	0	1	-9,584214	275,088908	315,110618	0
15.01.2021	11:48:47	0	77,475251	3,297233	3,6255	358,0164	0,624	89,003	0	1015,16	7,6	9,4	9,3	1	1	1	1	1	1	1	1	1	0	1	-7,751938	275,076347	316,883592	0
15.01.2021	11:48:48	0	77,70971	3,524628	3,31725	358,6248	0,641	89,021	0	1015,28	7,6	9,4	9,3	1	1	1	1	1	1	1	1	1	0	1	-3,100775	275,115628	321,720229	0
15.01.2021	11:48:49	0	77,827504	4,888999	3,18075	358,3692	0,629	89,001	0	1015,26	7,6	9,3	9,3	1	1	1	1	1	1	1	1	1	0	1	-3,523608	275,002712	320,764459	0
15.01.2021	11:48:50	0	77,474828	4,7753	2,83275	2,2896	0,629	89,007	0	1015,24	7,7	9,5	9,3	1	1	1	1	1	1	1	1	1	0	1	-5,990134	275,065362	318,593545	0
15.01.2021	11:48:51	0	77,944248	3,979416	2,69925	351,3204	0,625	88,983	0	1015,24	7,7	9,4	9,3	1	1	1	1	1	1	1	1	1	0	1	-0,140944	274,983957	324,058664	0
15.01.2021	11:48:52	0	77,709869	3,183532	2,54325	359,334	0,628	88,992	0	1015,14	7,6	9,4	9,3	1	1	1	1	1	1	1	1	1	0	1	-9,866103	275,137661	315,058966	0
15.01.2021	11:48:53	0	77,476032	2,956136	2,4495	7,5096	0,634	88,993	0	1015,2	7,6	9,3	9,3	1	1	1	1	1	1	1	1	1	0	1	-4,22833	274,996458	320,030239	0
15.01.2021	11:48:54	0	77,35832	4,09311	2,382	1,9116	0,628	88,974	0	1015,38	7,6	9,4	9,3	1	1	1	1	1	1	1	1	1	0	1	-3,382664	274,949619	320,655041	0
15.01.2021	11:48:55	0	77,592778	4,888991	2,43075	14,274	0,621	88,97	0	1015,26	7,6	9,4	9,3	1	1	1	1	1	1	1	1	1	0	1	-3,382664	275,076347	321,252866	0
15.01.2021	11:48:56	0	77,240648	4,661595	2,385	20,2968	0,625	88,94	0	1015,16	7,7	9,5	9,3	1	1	1	1	1	1	1	1	1	0	1	-8,104299	275,107765	316,679574	0
15.01.2021	11:48:57	0	77,592314	3,752015	2,44125	356,1192	0,622	88,943	0	1015,18	7,7	9,5	9,3	1	1	1	1	1	1	1	1	1	0	1	-10,007047	274,990207	314,222036	0
15.01.2021	11:48:58	0	77,475688	3,410922	2,3715	2,2968	0,63	88,951	0	1015,24	7,6	9,4	9,3	1	1	1	1	1	1	1	1	1	0	1	-4,016913	275,002712	320,271153	0
15.01.2021	11:48:59	0	77,006888	3,524639	2,364	2,2932	0,626	88,934	0	1015,24	7,6	9,4	9,2	1	1	1	1	1	1	1	1	1	0	1	-6,412967	274,952738	317,639442	0
15.01.2021	11:49:00	0	77,123636	3,069846	2,30175	5,2308	0,627	88,936	0	1015,36	7,6	9,5	9,2	1	1	1	1	1	1	1	1	1	0	1	-4,439746	275,023051	319,944267	0
15.01.2021	11:49:01	0	77,123636	3,069846	2,30175	5,2308	0,627	88,936	0	1015,36	7,6	9,5	9,2	1	1	1	1	1	1	1	1	1	0	1	-3,523608	274,963659	320,580288	0
15.01.2021	11:49:02	0	77,124216	2,728735	2,3115	13,5396	0,63	88,934	0	1015,24	7,6	9,4	9,3	1	1	1	1	1	1	1	1	1	0	1	-6,765328	275,096763	317,966592	0
15.01.2021	11:49:03	0	77,358133	3,865706	2,45475	357,2208	0,627	88,938	0	1015,24	7,7	9,5	9,3	1	1	1	1	1	1	1	1	1	0	1	-7,258633	274,960538	316,830549	0
15.01.2021	11:49:04	0	77,007084	5,002678	2,5785	6,4332	0,622	88,921	0	1015,04	7,6	9,4	9,3	1	1	1	1	1	1	1	1	1	0	1	-7,188161	275,081056	317,469602	0
15.01.2021	11:49:05	0	77,241003	2,728733	2,61525	355,1004	0,625	88,941	0	1015,32	7,6	9,5	9,3	1	1	1	1	1	1	1	1	1	0	1	-8,386187	275,123494	316,471966	0
15.01.2021	11:49:06	0	76,889414	3,524612	2,6895	33,9372	0,627	88,918	0	1015,32	7,7	9,5	9,3	1	1	1	1	1	1	1	1	1	0	1	-7,188161	274,998022	317,077782	0
15.01.2021	11:49:07	0	77,007202	4,547886	2,49075	11,7108	0,63	88,936	0	1015,26	7,7	9,4	9,3	1	1	1	1	1	1	1	1	1	0	1	-8,668076	275,095192	316,056424	0
15.01.2021	11:49:08	0	77,124992	3,979423	2,30475	22,0572	0,627	88,926	0	1015,16	7,7	9,3	9,2	1	1	1	1	1	1	1	1	1	0	1	-5,919662	274,983957	318,279947	0
15.01.2021	11:49:09	0	77,00728	3,410933	2,1555	20,268	0,629	88,942	0	1015,26	7,7	9,4	9,2	1	1	1	1	1	1	1	1	1	0	1	-2,60747	274,9465	321,415533	0
15.01.2021	11:49:10	0	77,12453	4,434212	2,05575	5,2056	0,629	88,944	0	1015,32	7,7	9,4	9,2	1	1	1	1	1	1	1	1	1	0	1	-6,553911	274,988644	317,667802	0
15.01.2021	11:49:11	0	76,65519	4,434211	2,196	7,506	0,631	88,945	0	1015,28	7,6	9,5	9,2	1	1	1	1	1	1	1	1	1	0	1	-8,45666	274,999585	315,816657	0
15.01.2021	11:49:12	0	76,655766	3,752001	2,25075	15,0192	0,627	88,934	0	1015,3	7,7	9,4	9,3	1	1	1	1	1	1	1	1	1	0	1	-6,8358	274,955858	317,231316	0
15.01.2021	11:49:13	0	77,007437	4,093091	2,39775	18,8244	0,624	88,943	0	1015,32	7,7	9,4	9,3	1	1	1	1	1	1	1	1	1	0	1	-10,711769	275,065362	313,87191	0
15.01.2021	11:49:14	0	76,772517	3,865696	2,66775	15,7824	0,633	88,937	0	1015,32	7,6	9,5	9,3	1	1	1	1	1	1	1	1	1	0	1	-8,80902	274,960538	315,280161	0
15.01.2021	11:49:15	0	76,655346	4,888967	3,03825	14,6376	0,628	88,934	0	1015,22	7,6	9,5	9,3	1	1	1	1	1	1	1	1	1	0	1	-10,007047	275,073207	314,613664	0
15.01.2021	11:49:16	0	76,655385	4,206785	3,36525	17,2224	0,629	88,932	0	1015,18	7,7	9,5	9,3	1	1	1	1	1	1	1	1	1	0	1	-2,043693	274,96678	322,07492	0
15.01.2021	11:49:17	0	76,53875	3,97939	3,51675	13,1616	0,628	88,918	0	1015,12	7,7	9,4	9,3	1	1	1	1	1	1	1	1	1	0	1	-8,949965	275,115628	315,871039	0
15.01.2021	11:49:18	0	76,421578	4,093086	3,59475	14,292	0,627	88,923	0	1015,14	7,7	9,4	9,3	1	1	1	1	1	1	1	1	1	0	1	-6,412967	275,010532	317,911988	0
15.01.2021	11:49:19	0	76,538827	3,069814	3,843	15,0192	0,623	88,934	0	1015,18	7,6	9,4	9,3	1	1	1	1	1	1	1	1	1	0	1	-8,597604	274,943382	315,410701	0
15.01.2021	11:49:20	0	76,65554	3,18351	4,19775	358,3512	0,625	88,931	0	1015,22	7,7	9,5	9,3	1	1	1	1	1	1	1	1	1	0	1	-4,298802	275,123494	320,559352	0
15.01.2021	11:49:21	0	76,773327	3,297206	4,40325	13,9212	0,632	88,926	0	1015,3	7,7	9,4	9,3	1	1	1	1	1	1	1	1	1	0	1	-6,624383	275,099906	318,122376	0
15.01.2021	11:49:22	0	76,773366	4,093082	4,2765	23,9688	0,63	88,928	0	1015,24	7,6	9,4	9,3	1	1	1	1	1	1	1	1	1	0	1	-5,778717	275,048113	318,723552	0
15.01.2021	11:49:23	0	76,421771	2,842417	4,09875	20,2716	0,629	88,937	0	1015,24	7,7	9,4	9,3	1	1	1	1	1	1	1	1	1	0	1	-8,527132	275,104621	316,241894	0
15.01.2021	11:49:24	0	76,304599	3,183507	3,7545	21,7656	0,633	88,932	0	1015,3	7,7	9,4	9,3	1	1	1	1	1	1	1	1	1	0	1	-5,073996	275,114055	319,739581	0
15.01.2021	11:49:25	0	76,070215	2,615023	3,6435	13,9068	0,625	88,92	0	1015,16	7,6	9,4	9,3	1	1	1	1	1	1	1	1	1	0	1	-7,470049	275,040278	316,995245	0
15.01.2021	11:49:26	0	76,538563	4,888954	3,6165	9,432	0,629	88,932	0	1015,28	7,6	9,5	9,3	1	1	1	1	1	1	1	1	1	0	1	-5,778717	274,983957	318,420891	0
15.01.2021	11:49:27	0	76,655812	4,093077	3,684	10,062	0,629	88,921	0	1015,22	7,7	9,5	9,3	1	1	1	1	1	1	1	1	1	0	1	-10,147992	275,037145	314,302518	0
15.01.2021	11:49:28	0	76,304219	3,979379	3,85425	8,6148	0,625	88,915	0	1015,2	7,6	9,5	9,3	1	1	1	1	1	1	1	1	1	0	1	-6,906272	275,114055	317,907304	0
15.01.2021	11:49:29	0	76,18758	4,206771	3,75825	20,6316	0,629	88,897	0	1015,1	7,7	9,4	9,3	1	1	1	1	1	1	1	1	1	0	1	-9,795631	275,137661	315,129438	0
15.01.2021	11:49:30	0	76,422578	4,775281	3,7425	20,6352	0,633	88,884	0	1015,34	7,7	9,3	9,2	1	1	1	1	1	1	1	1	1	0	1	-4,651163	275,019921	319,718082	0
15.01.2021	11:49:31	0	76,187124	4,661555	3,7875	22,4568	0,622	88,879	0	1015,22	7,7	9,5	9,3	1	1	1	1	1	1	1	1	1	0	1	-6,272023	275,112483	318,534127	0
15.01.2021	11:49:32	0	76,304908	5,002643	3,822	16,092	0,63	88,876	0	1015,24	7,7	9,4	9,3	1	1	1	1	1	1	1	1	1	0	1	-9,795631	275,085767	314,884371	0
15.01.2021	11:49:33	0	75,952779	3,638285	3,945	16,5744	0,627	88,866	0	1015,14	7,7	9,5	9,3	1	1	1	1	1	1	1	1	1	0	1	-7,751938	275,073207	316,868773	0
15.01.2021	11:49:34	0	76,070028	2,728713	4,02375	12,0888	0,627	88,869	0	1015,24	7,7	9,5	9,3	1	1	1	1	1	1	1	1	1	0	1	-5,567301	274,977709	318,602845	0
15.01.2021	11:49:35	0	75,718433	3,638305	3,93975	11,7216	0,629	88,849	0	1015,24	7,6	9,5	9,2	1	1	1	1	1	1	1	1	1	0	1	-8,386187	275,051248	316,130877	0
15.01.2021	11:49:36	0	75,719002	2,728712	3,96675	11,7144	0,632	88,84	0	1015,24	7,6	9,4	9,3	1	1	1	1	1	1	1	1	1	0	1	-9,866103	274,940265	314,127506	0
15.01.2021	11:49:37	0	76,070143	2,273926	4,0095	13,9176	0,625	88,833	0	1015,18	7,6	9,5	9,3	1	1	1	1	1	1	1	1	1	0	1	-3,59408	275,015226	320,753016	0
15.01.2021	11:49:38	0	75,484125	4,547878	4,122	8,9748	0,631	88,831	0	1015,4	7,7	9,5	9,2	1	1	1	1	1	1	1	1	1	0	1	-3,946441	275,125068	320,919145	0
15.01.2021	11:49:39	0	76,07022	3,751976	4,1895	11,7036	0,629	88,826	0	1015,28	7,7	9,5	9,3	1	1	1	1	1	1	1	1	1	0	1	-7,470049	275,018356	316,891812	0
15.01.2021	11:49:40	0	75,484201	3,638279	4,18125	10,0656	0,621	88,811	0	1015,12	7,7	9,5	9,3	1	1	1	1	1	1	1	1	1	0	1	-9,161381	274,954298	314,898381	0
15.01.2021	11:49:41	0	75,835874	4,661544	4,26675	8,5968	0,625	88,813	0	1015,28	7,7	9,5	9,3	1	1	1	1	1	1	1	1	1	0	1	-10,077519	275,112483	314,72863	0
15.01.2021	11:49:42	0	75,835912	4,775267	4,40325	17,2404	0,63	88,818	0	1015,32	7,7	9,5	9,2	1	1	1	1	1	1	1	1	1	0	1	-8,738548	275,054384	315,793314	0
15.01.2021	11:49:43	0	75,484315	2,501315	4,26225	14,3028	0,621	88,791	0	1015,22	7,7	9,5	9,3	1	1	1	1	1	1	1	1	1	0	1	-4,933051	275,11091	319,865672	0
15.01.2021	11:49:44	0	75,718777	3,865691	3,9885	13,1724	0,631	88,796	0	1015,3	7,7	9,5	9,2	1	1	1	1	1	1	1	1	1	0	1	-6,483439	275,107765	318,300434	0
15.01.2021	11:49:45	0	75,367179	4,320451	3,83175	22,0824	0,629	88,787	0	1015,3	7,7	9,5	9,3	1	1	1	1	1	1	1	1	1	0	1	-9,090909	275,077916	315,552031	0
15.01.2021	11:49:46	0	75,015582	2,501313	3,70275	16,4844	0,626	88,775	0	1015,24	7,7	9,5	9,3	1	1	1	1	1	1	1	1	1	0	1	-9,725159	274,949619	314,312546	0
15.01.2021	11:49:47	0	75,367255	4,093057	3,66075	17,6832	0,624	88,771	0	1015,16	7,6	9,5	9,3	1	1	1	1	1	1	1	1	1	0	1	-7,540521	274,976147	316,62226	0
15.01.2021	11:49:48	0	74,898445	3,069792	3,92925	27,6516	0,619	88,765	0	1015,24	7,7	9,5	9,3	1	1	1	1	1	1	1	1	1	0	1	-7,82241	275,103049	316,939193	0
15.01.2021	11:49:49	0	75,015695	4,434143	3,90525	32,49	0,627	88,767	0	1015,18	7,7	9,5	9,3	1	1	1	1	1	1	1	1	1	0	1	-10,359408	275,112483	314,446741	0
15.01.2021	11:49:50	0	75,015733	4,661534	3,795	18,45	0,625	88,761	0	1015,2	7,6	9,5	9,3	1	1	1	1	1	1	1	1	1	0	1	-11,980268	274,993332	312,263557	0
15.01.2021	11:49:51	0	75,250722	4,434141	3,73725	21,0024	0,627	88,748	0	1015,28	7,7	9,4	9,3	1	1	1	1	1	1	1	1	1	0	1	-10,147992	275,107765	314,635881	0
15.01.2021	11:49:52	0	74,664694	3,069789	3,645	15,0264	0,62	88,75	0	1015,18	7,7	9,4	9,3	1	1	1	1	1	1	1	1	1	0	1	-6,342495	275,05752	318,204169	0
15.01.2021	11:49:53	0	75,015846	4,320443	3,558	16,47	0,629	88,758	0	1015,22	7,6	9,5	9,3	1	1	1	1	1	1	1	1	1	0	1	-6,906272	275,115628	317,914732	0
15.01.2021	11:49:54	0	74,781459	4,206746	3,56775	24,7104	0,627	88,755	0	1015,24	7,6	9,5	9,3	1	1	1	1	1	1	1	1	1	0	1	-8,949965	274,980833	315,234911	0
15.01.2021	11:49:55	0	74,898709	2,956091	3,669	25,7832	0,629	88,758	0	1015,22	7,7	9,5	9,3	1	1	1	1	1	1	1	1	1	0	1	-4,651163	274,96678	319,46745	0
15.01.2021	11:49:56	0	74,547109	3,979352	3,609	13,5504	0,621	88,749	0	1015,34	7,7	9,5	9,3	1	1	1	1	1	1	1	1	1	0	1	-11,980268	275,098334	312,759071	0
15.01.2021	11:49:57	0	74,664359	3,524568	3,71625	11,7108	0,621	88,739	0	1015,26	7,7	9,5	9,3	1	1	1	1	1	1	1	1	1	0	1	-1,057082	275,043412	323,423	0
15.01.2021	11:49:58	0	74,429971	2,615002	3,59625	13,9176	0,62	88,725	0	1015,22	7,7	9,5	9,3	1	1	1	1	1	1	1	1	1	0	1	-9,936575	274,934031	314,027652	0
15.01.2021	11:49:59	0	74,430008	2,842409	3,549	7,8768	0,624	88,717	0	1015,18	7,6	9,5	9,2	1	1	1	1	1	1	1	1	1	0	1	-7,258633	274,982395	316,933609	0
15.01.2021	11:50:00	0	74,430083	3,069782	3,6555	12,0816	0,623	88,718	0	1015,32	7,6	9,5	9,3	1	1	1	1	1	1	1	1	1	0	1	-11,557435	275,106193	313,219014	0
15.01.2021	11:50:01	0	74,430083	3,069782	3,6555	12,0816	0,623	88,718	0	1015,32	7,6	9,5	9,3	1	1	1	1	1	1	1	1	1	0	1	-11,275546	275,065362	313,308132	0
15.01.2021	11:50:02	0	74,43012	3,865651	3,6165	21,0096	0,623	88,714	0	1015,24	7,6	9,5	9,3	1	1	1	1	1	1	1	1	1	0	1	-11,346018	275,076347	313,289511	0
15.01.2021	11:50:03	0	74,195732	2,728694	3,4035	19,152	0,625	88,712	0	1015,32	7,7	9,5	9,3	1	1	1	1	1	1	1	1	1	0	1	-9,161381	274,938706	314,824881	0
15.01.2021	11:50:04	0	74,430195	3,297171	3,18975	18,8316	0,624	88,7	0	1015,32	7,7	9,5	9,3	1	1	1	1	1	1	1	1	1	0	1	-12,403101	275,035578	312,040018	0
15.01.2021	11:50:05	0	74,195806	4,434126	3,20025	18,828	0,623	88,7	0	1015,04	7,6	9,5	9,3	1	1	1	1	1	1	1	1	1	0	1	-6,483439	274,943382	317,524866	0
15.01.2021	11:50:06	0	74,430269	4,320455	3,045	8,604	0,626	88,694	0	1015,26	7,7	9,5	9,2	1	1	1	1	1	1	1	1	1	0	1	-13,460183	275,074777	311,167937	0
15.01.2021	11:50:07	0	73,845276	2,728691	2,97075	8,2764	0,622	88,673	0	1015,2	7,6	9,3	9,3	1	1	1	1	1	1	1	1	1	0	1	-9,584214	275,095192	315,140286	0
15.01.2021	11:50:08	0	73,962527	3,410863	2,9775	9,7416	0,625	88,692	0	1015,18	7,6	9,3	9,3	1	1	1	1	1	1	1	1	1	0	1	-12,262156	275,117201	312,566276	0
15.01.2021	11:50:09	0	73,727102	2,501299	2,985	9,7524	0,62	88,669	0	1015,16	7,7	9,5	9,3	1	1	1	1	1	1	1	1	1	0	1	-15,081043	275,041845	309,391645	0
15.01.2021	11:50:10	0	74,195991	4,775235	2,7975	19,1448	0,622	88,682	0	1015,2	7,6	9,5	9,2	1	1	1	1	1	1	1	1	1	0	1	-8,879493	274,955858	315,187623	0
15.01.2021	11:50:11	0	73,961602	3,297165	2,39925	358,8192	0,623	88,676	0	1015,26	7,7	9,5	9,3	1	1	1	1	1	1	1	1	1	0	1	-7,399577	275,016791	316,954901	0
15.01.2021	11:50:12	0	73,492785	3,865641	2,26425	5,22	0,614	88,676	0	1015,2	7,6	9,5	9,3	1	1	1	1	1	1	1	1	1	0	1	-6,272023	275,095192	318,452478	0
15.01.2021	11:50:13	0	73,844462	3,069792	2,151	353,2536	0,625	88,681	0	1015,26	7,6	9,5	9,2	1	1	1	1	1	1	1	1	1	0	1	-7,610994	275,016791	316,743485	0
15.01.2021	11:50:14	0	73,727286	4,547811	2,127	356,1336	0,621	88,68	0	1015,22	7,6	9,5	9,3	1	1	1	1	1	1	1	1	1	0	1	-7,82241	275,093621	316,894672	0
15.01.2021	11:50:15	0	73,61114	3,069772	2,142	354,6108	0,619	88,661	0	1015,24	7,6	9,3	9,3	1	1	1	1	1	1	1	1	1	0	1	-8,386187	275,024617	316,005212	0
15.01.2021	11:50:16	0	73,259531	4,320419	2,18325	344,2248	0,614	88,685	0	1015,18	7,6	9,3	9,3	1	1	1	1	1	1	1	1	1	0	1	-11,134602	274,9465	312,888401	0
15.01.2021	11:50:17	0	73,611213	4,661503	2,17875	10,0584	0,621	88,686	0	1015,2	7,7	9,3	9,3	1	1	1	1	1	1	1	1	1	0	1	-7,892882	275,059088	316,661183	0
15.01.2021	11:50:18	0	73,375791	3,638245	2,0625	7,1208	0,624	88,682	0	1015,22	7,6	9,5	9,3	1	1	1	1	1	1	1	1	1	0	1	-4,792107	275,079486	319,858244	0
15.01.2021	11:50:19	0	73,375828	4,434111	1,98825	6,6492	0,617	88,714	0	1015,52	7,6	9,5	9,3	1	1	1	1	1	1	1	1	1	0	1	-9,654686	274,926242	314,272828	0
15.01.2021	11:50:20	0	73,024223	5,002585	1,9455	16,47	0,62	88,684	0	1015,24	7,6	9,5	9,3	1	1	1	1	1	1	1	1	1	0	1	-11,768851	275,066931	312,822232	0
15.01.2021	11:50:21	0	73,024259	2,95609	1,88025	0	0,62	88,689	0	1015,32	7,7	9,5	9,2	1	1	1	1	1	1	1	1	1	0	1	-5,990134	275,09205	318,719531	0
15.01.2021	11:50:22	0	73,025319	4,888917	1,99425	7,5024	0,617	88,697	0	1015,18	7,6	9,3	9,2	1	1	1	1	1	1	1	1	1	0	1	-7,610994	274,930915	316,338546	0
15.01.2021	11:50:23	0	72,907118	4,093046	1,9815	360	0,62	88,694	0	1015,24	7,6	9,5	9,2	1	1	1	1	1	1	1	1	1	0	1	-3,171247	275,024617	321,220152	0
15.01.2021	11:50:24	0	72,672726	4,206715	1,959	5,2128	0,624	88,71	0	1015,32	7,7	9,5	9,3	1	1	1	1	1	1	1	1	1	0	1	-7,258633	275,11091	317,54009	0
15.01.2021	11:50:25	0	72,556565	3,524544	1,90875	10,4472	0,618	88,682	0	1015,12	7,7	9,3	9,3	1	1	1	1	1	1	1	1	1	0	1	-12,121212	274,938706	311,86505	0
15.01.2021	11:50:26	0	72,907227	4,206713	1,7835	356,238	0,617	88,715	0	1015,2	7,6	9,5	9,3	1	1	1	1	1	1	1	1	1	0	1	-5,990134	274,998022	318,275809	0
15.01.2021	11:50:27	0	72,907263	4,547824	1,71825	2,0088	0,62	88,728	0	1015,2	7,7	9,5	9,2	1	1	1	1	1	1	1	1	1	0	1	-7,399577	274,943382	316,608728	0
15.01.2021	11:50:28	0	72,908321	4,547796	1,83075	0,4932	0,619	88,715	0	1015,16	7,7	9,3	9,3	1	1	1	1	1	1	1	1	1	0	1	-10,641297	275,071638	313,972007	0
15.01.2021	11:50:29	0	72,438478	4,888909	2,01825	341,3412	0,612	88,717	0	1015,3	7,6	9,5	9,2	1	1	1	1	1	1	1	1	1	0	1	-7,963354	274,94806	316,066999	0
15.01.2021	11:50:30	0	72,555728	2,956084	2,16975	350,2872	0,621	88,738	0	1015,3	7,6	9,5	9,2	1	1	1	1	1	1	1	1	1	0	1	-8,527132	275,121921	316,323591	0
15.01.2021	11:50:31	0	72,556781	3,865647	2,30775	351,7272	0,62	88,73	0	1015,22	7,6	9,3	9,2	1	1	1	1	1	1	1	1	1	0	1	-13,812544	275,004276	310,482899	0
15.01.2021	11:50:32	0	72,439601	3,751928	2,39175	350,2116	0,614	88,738	0	1015,2	7,6	9,3	9,3	1	1	1	1	1	1	1	1	1	0	1	-6,20155	275,062225	318,36732	0
15.01.2021	11:50:33	0	72,321407	4,888875	2,388	351,414	0,614	88,721	0	1015,2	7,7	9,5	9,3	1	1	1	1	1	1	1	1	1	0	1	-8,668076	274,9465	315,354927	0
15.01.2021	11:50:34	0	72,322456	3,638253	2,3295	354,7188	0,617	88,742	0	1015,18	7,6	9,3	9,2	1	1	1	1	1	1	1	1	1	0	1	-9,231853	275,05752	315,31481	0
15.01.2021	11:50:35	0	71,969835	3,751925	2,4015	359,514	0,618	88,74	0	1015,24	7,7	9,5	9,3	1	1	1	1	1	1	1	1	1	0	1	-8,668076	275,221297	316,652255	0
15.01.2021	11:50:36	0	72,087085	3,524535	2,42625	3,762	0,613	88,744	0	1015,22	7,7	9,5	9,3	1	1	1	1	1	1	1	1	1	0	1	-3,523608	275,071638	321,089695	0
15.01.2021	11:50:37	0	71,970914	2,614993	2,466	358,722	0,615	88,742	0	1015,14	7,7	9,3	9,2	1	1	1	1	1	1	1	1	1	0	1	-10,288936	274,990207	313,940147	0
15.01.2021	11:50:38	0	71,736517	2,95606	2,46225	1,2492	0,618	88,758	0	1015,26	7,6	9,3	9,3	1	1	1	1	1	1	1	1	1	0	1	-7,681466	274,929357	316,260731	0
15.01.2021	11:50:39	0	71,619336	3,069754	2,35875	352,0548	0,621	88,767	0	1015,38	7,7	9,3	9,3	1	1	1	1	1	1	1	1	1	0	1	-7,610994	275,103049	317,150609	0
15.01.2021	11:50:40	0	71,970013	3,410858	2,40975	352,7496	0,614	88,766	0	1015	7,6	9,5	9,2	1	1	1	1	1	1	1	1	1	0	1	-10,852713	275,087337	313,834703	0
15.01.2021	11:50:41	0	71,85384	2,956076	2,44875	357,228	0,617	88,767	0	1015,18	7,6	9,3	9,2	1	1	1	1	1	1	1	1	1	0	1	-7,610994	275,013661	316,728722	0
15.01.2021	11:50:42	0	71,502225	4,434086	2,50725	7,4988	0,621	88,767	0	1015,24	7,6	9,3	9,3	1	1	1	1	1	1	1	1	1	0	1	-8,45666	275,114055	316,356917	0
15.01.2021	11:50:43	0	71,853911	4,434112	2,5335	3,3984	0,612	88,764	0	1015,2	7,6	9,3	9,2	1	1	1	1	1	1	1	1	1	0	1	-5,144468	274,993332	319,099357	0
15.01.2021	11:50:44	0	71,619513	4,20672	2,4855	2,6352	0,619	88,789	0	1015,2	7,6	9,3	9,2	1	1	1	1	1	1	1	1	1	0	1	-9,725159	275,099906	315,021601	0
15.01.2021	11:50:45	0	71,385114	3,979305	2,478	3,3768	0,624	88,798	0	1015,32	7,6	9,3	9,3	1	1	1	1	1	1	1	1	1	0	1	-12,825934	275,077916	311,817006	0
15.01.2021	11:50:46	0	71,385149	3,86561	2,5065	9,7416	0,618	88,79	0	1015,28	7,6	9,3	9,3	1	1	1	1	1	1	1	1	1	0	1	-8,668076	275,012097	315,664259	0
15.01.2021	11:50:47	0	71,267968	4,547775	2,46075	360	0,62	88,798	0	1015,12	7,6	9,3	9,3	1	1	1	1	1	1	1	1	1	0	1	-7,047216	275,117201	317,781216	0
15.01.2021	11:50:48	0	71,618651	4,547774	2,676	6,1308	0,622	88,802	0	1015,26	7,7	9,5	9,3	1	1	1	1	1	1	1	1	1	0	1	-9,584214	275,090479	315,118034	0
15.01.2021	11:50:49	0	71,384255	4,434079	2,98725	5,2128	0,622	88,791	0	1015,2	7,6	9,5	9,3	1	1	1	1	1	1	1	1	1	0	1	-8,174771	274,94806	315,855583	0
15.01.2021	11:50:50	0	71,267075	3,069764	3,18975	5,6664	0,618	88,804	0	1015,24	7,7	9,5	9,2	1	1	1	1	1	1	1	1	1	0	1	-11,980268	274,991769	312,256186	0
15.01.2021	11:50:51	0	71,149894	3,297154	3,29475	12,0996	0,619	88,81	0	1015,3	7,7	9,5	9,2	1	1	1	1	1	1	1	1	1	0	1	-12,473573	275,051248	312,043492	0
15.01.2021	11:50:52	0	70,798282	4,320407	3,24375	5,2092	0,622	88,81	0	1015,36	7,6	9,5	9,2	1	1	1	1	1	1	1	1	1	0	1	-10,852713	275,126641	314,020305	0
15.01.2021	11:50:53	0	70,915533	3,410847	3,3075	11,7	0,623	88,815	0	1015,28	7,6	9,5	9,2	1	1	1	1	1	1	1	1	1	0	1	-6,060606	275,071638	318,552697	0
15.01.2021	11:50:54	0	70,799344	3,297131	3,4575	8,6076	0,622	88,82	0	1015,16	7,6	9,3	9,3	1	1	1	1	1	1	1	1	1	0	1	-6,483439	275,081056	318,174324	0
15.01.2021	11:50:55	0	70,798387	4,547766	3,5805	3,402	0,623	88,821	0	1015,32	7,7	9,5	9,3	1	1	1	1	1	1	1	1	1	0	1	-9,020437	275,117201	315,807996	0
15.01.2021	11:50:56	0	70,798422	2,956048	3,65775	8,2404	0,618	88,819	0	1015,32	7,6	9,5	9,3	1	1	1	1	1	1	1	1	1	0	1	-9,936575	274,983957	314,263034	0
15.01.2021	11:50:57	0	70,68124	3,183435	3,48675	14,3892	0,62	88,804	0	1015,32	7,6	9,5	9,3	1	1	1	1	1	1	1	1	1	0	1	-13,883016	275,125068	310,98257	0
15.01.2021	11:50:58	0	70,799483	4,434096	3,33825	6,0444	0,616	88,823	0	1015	7,6	9,3	9,2	1	1	1	1	1	1	1	1	1	0	1	-12,825934	275,065362	311,757745	0
15.01.2021	11:50:59	0	70,564094	3,069739	3,09225	353,9268	0,617	88,838	0	1015	7,6	9,5	9,3	1	1	1	1	1	1	1	1	1	0	1	-12,191684	275,084197	312,480904	0
15.01.2021	11:51:00	0	70,330716	2,501283	2,86875	8,6256	0,622	88,853	0	1015,3	7,7	9,3	9,2	1	1	1	1	1	1	1	1	1	0	1	-15,292459	274,954298	308,767302	0
15.01.2021	11:51:01	0	70,330716	2,501283	2,86875	8,6256	0,622	88,853	0	1015,3	7,7	9,3	9,2	1	1	1	1	1	1	1	1	1	0	1	-10,852713	275,095192	313,871787	0
15.01.2021	11:51:02	0	70,330751	3,297145	2,69925	16,4628	0,621	88,845	0	1015,14	7,6	9,3	9,2	1	1	1	1	1	1	1	1	1	0	1	-7,540521	274,962098	316,556017	0
15.01.2021	11:51:03	0	70,916875	4,888869	2,52825	5,6772	0,622	88,847	0	1015,12	7,7	9,3	9,2	1	1	1	1	1	1	1	1	1	0	1	-12,05074	275,085767	312,629262	0
15.01.2021	11:51:04	0	70,096384	3,524511	2,421	360	0,617	88,861	0	1015,24	7,6	9,3	9,3	1	1	1	1	1	1	1	1	1	0	1	-8,879493	275,002712	315,408574	0
15.01.2021	11:51:05	0	70,212652	3,069753	2,45325	13,1724	0,623	88,864	0	1015,24	7,7	9,5	9,2	1	1	1	1	1	1	1	1	1	0	1	-14,446794	274,9465	309,57621	0
15.01.2021	11:51:06	0	70,330889	2,728669	2,38725	358,3656	0,624	88,871	0	1015,24	7,6	9,3	9,2	1	1	1	1	1	1	1	1	1	0	1	-12,825934	274,987081	311,388411	0
15.01.2021	11:51:07	0	70,329938	2,842346	2,5065	1,1736	0,621	88,867	0	1015,2	7,7	9,5	9,3	1	1	1	1	1	1	1	1	1	0	1	-10,711769	274,980833	313,473107	0
15.01.2021	11:51:08	0	69,862085	2,842362	2,4975	0,1296	0,62	88,862	0	1015,24	7,7	9,3	9,2	1	1	1	1	1	1	1	1	1	0	1	-14,869626	275,082626	309,795549	0
15.01.2021	11:51:09	0	69,979337	4,320364	2,538	7,4844	0,623	88,894	0	1015,24	7,6	9,3	9,3	1	1	1	1	1	1	1	1	1	0	1	-10,500352	275,114055	314,313224	0
15.01.2021	11:51:10	0	70,212824	4,434057	2,61075	3,0276	0,619	88,878	0	1015,28	7,7	9,5	9,3	1	1	1	1	1	1	1	1	1	0	1	-12,473573	275,015226	311,873524	0
15.01.2021	11:51:11	0	69,743992	2,84236	2,61675	3,0204	0,625	88,882	0	1015,18	7,7	9,5	9,2	1	1	1	1	1	1	1	1	1	0	1	-12,403101	274,960538	311,686081	0
15.01.2021	11:51:12	0	70,33011	4,66147	2,60625	6,4332	0,626	88,884	0	1015,24	7,6	9,5	9,2	1	1	1	1	1	1	1	1	1	0	1	-7,892882	275,040278	316,572412	0
15.01.2021	11:51:13	0	70,212928	4,434053	2,77725	13,5576	0,627	88,889	0	1015,16	7,6	9,5	9,3	1	1	1	1	1	1	1	1	1	0	1	-14,869626	275,107765	309,914246	0
15.01.2021	11:51:14	0	70,213946	4,547746	2,88375	7,2504	0,625	88,892	0	1015,38	7,6	9,3	9,3	1	1	1	1	1	1	1	1	1	0	1	-13,6716	275,081056	310,986163	0
15.01.2021	11:51:15	0	70,096761	2,842358	2,93475	5,22	0,623	88,889	0	1015,2	7,6	9,3	9,2	1	1	1	1	1	1	1	1	1	0	1	-10,147992	275,066931	314,443092	0
15.01.2021	11:51:16	0	69,744162	3,638195	3,00825	8,2548	0,629	88,905	0	1015,26	7,6	9,5	9,3	1	1	1	1	1	1	1	1	1	0	1	-12,121212	275,129789	312,766674	0
15.01.2021	11:51:17	0	70,213065	4,206687	3,02025	2,2932	0,63	88,903	0	1015,3	7,6	9,5	9,2	1	1	1	1	1	1	1	1	1	0	1	-12,966878	274,977709	311,203268	0
15.01.2021	11:51:18	0	69,978665	4,547742	2,814	0,2232	0,634	88,91	0	1015,26	7,7	9,5	9,3	1	1	1	1	1	1	1	1	1	0	1	-12,966878	275,114055	311,846698	0
15.01.2021	11:51:19	0	69,979679	3,979297	2,58525	351,3852	0,627	88,905	0	1015,22	7,6	9,3	9,2	1	1	1	1	1	1	1	1	1	0	1	-12,825934	275,117201	312,002499	0
15.01.2021	11:51:20	0	69,745276	3,638213	2,50275	347,2992	0,626	88,903	0	1015,34	7,6	9,3	9,2	1	1	1	1	1	1	1	1	1	0	1	-10,923185	275,062225	313,645685	0
15.01.2021	11:51:21	0	69,627115	3,183417	2,613	8,6148	0,637	88,922	0	1015,32	7,7	9,5	9,3	1	1	1	1	1	1	1	1	1	0	1	-13,319239	274,963659	310,784657	0
15.01.2021	11:51:22	0	70,096019	4,775153	2,54775	351,648	0,628	88,906	0	1015,04	7,6	9,5	9,2	1	1	1	1	1	1	1	1	1	0	1	-12,544045	275,084197	312,128543	0
15.01.2021	11:51:23	0	69,628159	4,092963	2,466	2,2788	0,625	88,895	0	1015,28	7,6	9,3	9,3	1	1	1	1	1	1	1	1	1	0	1	-12,262156	275,137661	312,662913	0
15.01.2021	11:51:24	0	69,97887	5,002509	2,50575	354,294	0,622	88,906	0	1015,06	7,7	9,5	9,3	1	1	1	1	1	1	1	1	1	0	1	-11,768851	275,0685	312,829638	0
15.01.2021	11:51:25	0	70,096122	4,661455	2,5515	355,8132	0,626	88,912	0	1015,22	7,7	9,5	9,2	1	1	1	1	1	1	1	1	1	0	1	-10,147992	275,126641	314,725027	0
15.01.2021	11:51:26	0	69,862699	3,865596	2,514	354,33	0,629	88,919	0	1015,08	7,6	9,3	9,2	1	1	1	1	1	1	1	1	1	0	1	-8,668076	275,012097	315,664259	0
15.01.2021	11:51:27	0	69,744537	4,775147	2,484	360	0,629	88,921	0	1015,28	7,7	9,5	9,2	1	1	1	1	1	1	1	1	1	0	1	-10,500352	274,962098	313,596186	0
15.01.2021	11:51:28	0	69,744571	3,865571	2,343	19,5156	0,628	88,921	0	1015,06	7,6	9,5	9,3	1	1	1	1	1	1	1	1	1	0	1	-14,799154	275,087337	309,888262	0
15.01.2021	11:51:29	0	69,392951	2,728654	2,22	13,2444	0,628	88,918	0	1015,12	7,7	9,5	9,2	1	1	1	1	1	1	1	1	1	0	1	-10,500352	275,098334	314,238987	0
15.01.2021	11:51:30	0	69,980055	4,547756	2,15925	1,5444	0,624	88,928	0	1015,22	7,6	9,3	9,2	1	1	1	1	1	1	1	1	1	0	1	-12,403101	275,066931	312,187983	0
15.01.2021	11:51:31	0	69,276771	3,069735	2,2455	10,4328	0,633	88,932	0	1015,2	7,7	9,3	9,2	1	1	1	1	1	1	1	1	1	0	1	-11,839323	274,958978	312,242502	0
15.01.2021	11:51:32	0	69,744706	4,661448	2,94975	360	0,629	88,932	0	1015,22	7,6	9,5	9,2	1	1	1	1	1	1	1	1	1	0	1	-10,641297	275,093621	314,075786	0
15.01.2021	11:51:33	0	69,511278	4,434032	3,573	8,622	0,631	88,92	0	1015,2	7,7	9,3	9,3	1	1	1	1	1	1	1	1	1	0	1	-13,389711	275,084197	311,282877	0
15.01.2021	11:51:34	0	69,159653	3,751873	3,7215	18,846	0,63	88,931	0	1015,24	7,6	9,3	9,3	1	1	1	1	1	1	1	1	1	0	1	-12,403101	275,131363	312,492221	0
15.01.2021	11:51:35	0	69,862026	2,956038	3,378	12,4488	0,628	88,924	0	1015,14	7,7	9,5	9,2	1	1	1	1	1	1	1	1	1	0	1	-13,178295	275,081056	311,479468	0
15.01.2021	11:51:36	0	69,510406	3,524485	3,1005	10,8	0,636	88,933	0	1015,24	7,6	9,5	9,3	1	1	1	1	1	1	1	1	1	0	1	-11,134602	274,983957	313,065007	0
15.01.2021	11:51:37	0	69,510439	2,842343	2,8725	12,8412	0,634	88,938	0	1015,24	7,6	9,5	9,2	1	1	1	1	1	1	1	1	1	0	1	-12,473573	274,982395	311,718669	0
15.01.2021	11:51:38	0	69,277007	4,32036	2,874	5,6808	0,633	88,911	0	1015,14	7,6	9,3	9,2	1	1	1	1	1	1	1	1	1	0	1	-14,094433	275,008968	310,223143	0
15.01.2021	11:51:39	0	69,628701	4,092972	2,6895	18,8352	0,639	88,934	0	1015,22	7,6	9,3	9,2	1	1	1	1	1	1	1	1	1	0	1	-12,825934	274,952738	311,226475	0
15.01.2021	11:51:40	0	69,158885	2,273873	2,47125	16,4844	0,636	88,928	0	1015,24	7,6	9,5	9,2	1	1	1	1	1	1	1	1	1	0	1	-11,557435	275,085767	313,122567	0
15.01.2021	11:51:41	0	68,925447	2,614953	2,30775	22,0752	0,642	88,902	0	1015,1	7,6	9,3	9,2	1	1	1	1	1	1	1	1	1	0	1	-12,684989	274,955858	311,382126	0
15.01.2021	11:51:42	0	69,628802	3,297114	2,2275	18,0864	0,642	88,918	0	1015,34	7,7	9,3	9,2	1	1	1	1	1	1	1	1	1	0	1	-10,570825	275,076347	314,064705	0
15.01.2021	11:51:43	0	69,158986	3,979274	2,2755	9,3636	0,641	88,91	0	1015,22	7,7	9,5	9,2	1	1	1	1	1	1	1	1	1	0	1	-8,386187	274,954298	315,673575	0
15.01.2021	11:51:44	0	69,628869	4,7751	2,55075	19,8936	0,636	88,927	0	1015,28	7,6	9,3	9,3	1	1	1	1	1	1	1	1	1	0	1	-15,292459	275,05752	309,254204	0
15.01.2021	11:51:45	0	68,924615	3,865579	2,832	6,0552	0,635	88,912	0	1015,18	7,7	9,5	9,2	1	1	1	1	1	1	1	1	1	0	1	-9,725159	274,960538	314,364023	0
15.01.2021	11:51:46	0	69,511716	3,524498	2,91525	14,6376	0,638	88,931	0	1015,26	7,7	9,3	9,2	1	1	1	1	1	1	1	1	1	0	1	-15,151515	275,066931	309,439568	0
15.01.2021	11:51:47	0	69,15912	2,842319	2,9745	10,8108	0,633	88,928	0	1015,06	7,7	9,5	9,3	1	1	1	1	1	1	1	1	1	0	1	-11,768851	275,137661	313,156218	0
15.01.2021	11:51:48	0	69,276372	4,434017	2,8905	15,0192	0,641	88,945	0	1015,28	7,7	9,5	9,3	1	1	1	1	1	1	1	1	1	0	1	-8,527132	275,136086	316,390499	0
15.01.2021	11:51:49	0	69,393625	4,888816	2,84625	356,5656	0,635	88,92	0	1015,3	7,6	9,5	9,2	1	1	1	1	1	1	1	1	1	0	1	-6,694856	275,032446	317,733482	0
15.01.2021	11:51:50	0	69,276439	2,614932	3,05475	1,1772	0,641	88,927	0	1015,24	7,7	9,5	9,3	1	1	1	1	1	1	1	1	1	0	1	-17,89993	275,012097	306,432405	0
15.01.2021	11:51:51	0	69,042034	4,547734	3,37125	355,4496	0,634	88,928	0	1015,16	7,7	9,5	9,2	1	1	1	1	1	1	1	1	1	0	1	-10,500352	275,121921	314,35037	0
15.01.2021	11:51:52	0	69,511918	4,661426	3,54525	8,2476	0,641	88,919	0	1015,14	7,7	9,3	9,2	1	1	1	1	1	1	1	1	1	0	1	-17,477097	275,104621	307,291929	0
15.01.2021	11:51:53	0	69,511952	5,002505	3,40575	351,6876	0,639	88,908	0	1015,28	7,7	9,3	9,2	1	1	1	1	1	1	1	1	1	0	1	-17,054264	275,026182	307,344522	0
15.01.2021	11:51:54	0	69,042135	3,865571	3,255	350,3124	0,639	88,893	0	1015,2	7,6	9,5	9,2	1	1	1	1	1	1	1	1	1	0	1	-14,869626	274,962098	309,226912	0
15.01.2021	11:51:55	0	68,69051	3,638162	3,14175	1,9224	0,645	88,878	0	1015,32	7,7	9,5	9,3	1	1	1	1	1	1	1	1	1	0	1	-10,993658	275,145535	313,968612	0
15.01.2021	11:51:56	0	69,042201	4,206649	3,009	4,068	0,644	88,867	0	1015,22	7,7	9,5	9,2	1	1	1	1	1	1	1	1	1	0	1	-13,6716	275,088908	311,023232	0
15.01.2021	11:51:57	0	69,159454	4,888807	2,916	10,8036	0,644	88,856	0	1015,28	7,7	9,5	9,2	1	1	1	1	1	1	1	1	1	0	1	-12,544045	275,012097	311,78829	0
15.01.2021	11:51:58	0	68,925048	4,092954	2,91975	4,0788	0,646	88,861	0	1015,3	7,7	9,5	9,2	1	1	1	1	1	1	1	1	1	0	1	-11,486963	274,977709	312,683183	0
15.01.2021	11:51:59	0	68,807862	3,751873	2,88	3,0168	0,641	88,844	0	1015,28	7,7	9,5	9,2	1	1	1	1	1	1	1	1	1	0	1	-12,825934	275,048113	311,676336	0
15.01.2021	11:52:00	0	68,925148	4,092951	2,598	25,7832	0,64	88,812	0	1015,22	7,6	9,5	9,2	1	1	1	1	1	1	1	1	1	0	1	-13,6716	275,029314	310,741961	0
15.01.2021	11:52:01	0	68,925148	4,092951	2,598	25,7832	0,64	88,812	0	1015,22	7,6	9,5	9,2	1	1	1	1	1	1	1	1	1	0	1	-13,6716	275,029314	310,741961	0
15.01.2021	11:52:02	0	68,456302	2,842326	2,57475	13,158	0,644	88,803	0	1015,26	7,6	9,5	9,2	1	1	1	1	1	1	1	1	1	0	1	-8,45666	274,974586	315,698759	0
15.01.2021	11:52:03	0	69,043401	3,979256	2,76225	8,9892	0,64	88,8	0	1015,2	7,6	9,3	9,2	1	1	1	1	1	1	1	1	1	0	1	-13,883016	275,107765	310,900857	0
15.01.2021	11:52:04	0	68,456368	2,956018	2,88225	3,0204	0,645	88,765	0	1015,02	7,7	9,5	9,2	1	1	1	1	1	1	1	1	1	0	1	-12,825934	275,101478	311,928247	0
15.01.2021	11:52:05	0	68,573621	4,888798	2,74725	356,562	0,644	88,772	0	1015,18	7,6	9,5	9,2	1	1	1	1	1	1	1	1	1	0	1	-10,359408	274,977709	313,810738	0
15.01.2021	11:52:06	0	68,690874	4,206614	2,48925	0,1116	0,641	88,773	0	1015,2	7,7	9,5	9,3	1	1	1	1	1	1	1	1	1	0	1	-12,896406	274,874911	310,789257	0
15.01.2021	11:52:07	0	68,808127	4,547717	2,42475	355,8564	0,643	88,765	0	1015,3	7,6	9,5	9,2	1	1	1	1	1	1	1	1	1	0	1	-13,389711	275,148686	311,587444	0
15.01.2021	11:52:08	0	68,80816	4,092944	2,32425	1,9008	0,634	88,756	0	1015,16	7,6	9,5	9,2	1	1	1	1	1	1	1	1	1	0	1	-10,923185	275,14081	314,016762	0
15.01.2021	11:52:09	0	68,573753	3,069689	2,328	354,6072	0,643	88,749	0	1015,1	7,7	9,5	9,3	1	1	1	1	1	1	1	1	1	0	1	-13,03735	274,987081	311,176994	0
15.01.2021	11:52:10	0	68,222125	3,524457	2,35275	3,0132	0,64	88,738	0	1015,1	7,6	9,5	9,3	1	1	1	1	1	1	1	1	1	0	1	-12,121212	274,993332	312,122613	0
15.01.2021	11:52:11	0	68,222158	5,116177	2,4405	4,8348	0,644	88,733	0	1015,08	7,7	9,5	9,2	1	1	1	1	1	1	1	1	1	0	1	-12,544045	274,976147	311,618737	0
15.01.2021	11:52:12	0	68,105925	4,433992	2,51625	0,1188	0,642	88,729	0	1015,14	7,7	9,3	9,3	1	1	1	1	1	1	1	1	1	0	1	-14,305849	275,024617	310,08555	0
15.01.2021	11:52:13	0	68,105003	2,956012	2,48475	4,8384	0,644	88,726	0	1015,24	7,7	9,5	9,2	1	1	1	1	1	1	1	1	1	0	1	-13,460183	274,962098	310,636355	0
15.01.2021	11:52:14	0	68,105036	4,547709	2,4495	3,4056	0,638	88,741	0	1015,3	7,6	9,5	9,2	1	1	1	1	1	1	1	1	1	0	1	-14,940099	275,085767	309,739903	0
15.01.2021	11:52:15	0	67,753407	3,069685	2,439	360	0,641	88,707	0	1015,34	7,7	9,5	9,3	1	1	1	1	1	1	1	1	1	0	1	-12,966878	275,142385	311,980509	0
15.01.2021	11:52:16	0	68,222322	4,775093	2,55525	352,944	0,635	88,702	0	1015,22	7,7	9,5	9,2	1	1	1	1	1	1	1	1	1	0	1	-17,195208	275,03088	307,225741	0
15.01.2021	11:52:17	0	68,105134	3,751835	2,77725	351,7596	0,642	88,731	0	1015,2	7,6	9,5	9,3	1	1	1	1	1	1	1	1	1	0	1	-8,879493	275,156565	316,134889	0
15.01.2021	11:52:18	0	68,105167	4,32032	3,10425	360	0,635	88,712	0	1015,22	7,6	9,5	9,2	1	1	1	1	1	1	1	1	1	0	1	-11,06413	275,132937	313,838628	0
15.01.2021	11:52:19	0	67,871709	4,320319	3,46125	358,8336	0,642	88,719	0	1015,12	7,7	9,3	9,2	1	1	1	1	1	1	1	1	1	0	1	-13,883016	274,968341	310,242957	0
15.01.2021	11:52:20	0	67,754519	5,002473	3,5925	0,954	0,634	88,709	0	1015,26	7,7	9,3	9,2	1	1	1	1	1	1	1	1	1	0	1	-14,728682	275,087337	309,958734	0
15.01.2021	11:52:21	0	67,871774	4,547675	3,52425	359,1576	0,639	88,724	0	1015,16	7,6	9,3	9,3	1	1	1	1	1	1	1	1	1	0	1	-15,997181	275,150262	308,987418	0
15.01.2021	11:52:22	0	67,753635	4,320316	3,2175	356,1516	0,637	88,728	0	1015,22	7,7	9,5	9,2	1	1	1	1	1	1	1	1	1	0	1	-8,386187	275,107765	316,397685	0
15.01.2021	11:52:23	0	67,519225	3,410775	2,87025	359,5572	0,639	88,721	0	1015,22	7,6	9,5	9,2	1	1	1	1	1	1	1	1	1	0	1	-14,940099	275,013661	309,399617	0
15.01.2021	11:52:24	0	67,285287	4,661391	2,57925	10,7928	0,641	88,722	0	1015,26	7,7	9,4	9,2	1	1	1	1	1	1	1	1	1	0	1	-13,03735	275,142385	311,910037	0
15.01.2021	11:52:25	0	67,51929	4,547698	2,406	6,4152	0,637	88,708	0	1015,18	7,7	9,5	9,2	1	1	1	1	1	1	1	1	1	0	1	-10,42988	275,026182	313,968905	0
15.01.2021	11:52:26	0	67,168129	4,547697	2,37825	9,7344	0,634	88,72	0	1015,08	7,6	9,4	9,2	1	1	1	1	1	1	1	1	1	0	1	-11,980268	275,14081	312,959679	0
15.01.2021	11:52:27	0	67,167691	2,955984	2,27625	12,4704	0,641	88,739	0	1015,14	7,6	9,5	9,3	1	1	1	1	1	1	1	1	1	0	1	-13,601128	274,987081	310,613217	0
15.01.2021	11:52:28	0	67,168664	4,775079	2,2365	23,5872	0,635	88,731	0	1015,14	7,7	9,3	9,2	1	1	1	1	1	1	1	1	1	0	1	-11,346018	275,09205	313,363647	0
15.01.2021	11:52:29	0	66,933313	2,842308	2,37375	38,4048	0,644	88,753	0	1015,14	7,6	9,5	9,2	1	1	1	1	1	1	1	1	1	0	1	-13,319239	275,132937	311,583518	0
15.01.2021	11:52:30	0	67,050566	2,614923	2,50125	38,4084	0,638	88,741	0	1015,24	7,8	9,5	9,2	1	1	1	1	1	1	1	1	1	0	1	-12,966878	275,087337	311,720539	0
15.01.2021	11:52:31	0	66,816155	3,52444	2,58375	21,3804	0,633	88,735	0	1015,3	7,7	9,5	9,3	1	1	1	1	1	1	1	1	1	0	1	-17,406624	275,148686	307,570531	0
15.01.2021	11:52:32	0	66,816187	2,842306	2,4885	3,7692	0,64	88,746	0	1015,2	7,7	9,5	9,2	1	1	1	1	1	1	1	1	1	0	1	-8,174771	275,063793	316,401503	0
15.01.2021	11:52:33	0	66,698998	3,865513	2,42025	2,646	0,641	88,734	0	1015,26	7,6	9,5	9,3	1	1	1	1	1	1	1	1	1	0	1	-12,403101	274,999585	311,870216	0
15.01.2021	11:52:34	0	66,582274	2,728613	2,60925	4,8312	0,642	88,734	0	1015,3	7,7	9,4	9,2	1	1	1	1	1	1	1	1	1	0	1	-12,05074	275,147111	312,918972	0
15.01.2021	11:52:35	0	66,933973	5,002426	2,86125	4,4676	0,64	88,759	0	1015,54	7,7	9,4	9,3	1	1	1	1	1	1	1	1	1	0	1	-13,107822	275,010532	311,217133	0
15.01.2021	11:52:36	0	66,582338	3,297053	3,006	0,4824	0,639	88,722	0	1015,16	7,6	9,4	9,3	1	1	1	1	1	1	1	1	1	0	1	-10,993658	275,019921	313,375587	0
15.01.2021	11:52:37	0	66,816814	2,273829	3,13875	6,4404	0,64	88,722	0	1015,28	7,8	9,4	9,3	1	1	1	1	1	1	1	1	1	0	1	-18,957012	274,996458	305,301557	0
15.01.2021	11:52:38	0	66,581935	3,524455	3,444	7,8768	0,632	88,735	0	1015,22	7,6	9,5	9,2	1	1	1	1	1	1	1	1	1	0	1	-18,816068	275,038711	305,641834	0
15.01.2021	11:52:39	0	66,347523	4,661375	3,6345	12,8412	0,639	88,725	0	1015,14	7,6	9,5	9,2	1	1	1	1	1	1	1	1	1	0	1	-13,883016	274,993332	310,360809	0
15.01.2021	11:52:40	0	66,230796	3,069685	3,4575	14,3064	0,64	88,737	0	1015,22	7,7	9,4	9,2	1	1	1	1	1	1	1	1	1	0	1	-10,42988	275,015226	313,917216	0
15.01.2021	11:52:41	0	66,231292	2,842284	3,34725	18,0648	0,642	88,735	0	1015,34	7,7	9,3	9,3	1	1	1	1	1	1	1	1	1	0	1	-13,460183	275,015226	310,886913	0
15.01.2021	11:52:42	0	65,87873	2,8423	3,11775	15,3972	0,64	88,714	0	1015,2	7,7	9,5	9,2	1	1	1	1	1	1	1	1	1	0	1	-11,41649	274,952738	312,635918	0
15.01.2021	11:52:43	0	66,230891	5,002447	3,018	12,0888	0,638	88,723	0	1015,38	7,8	9,4	9,2	1	1	1	1	1	1	1	1	1	0	1	-8,668076	275,05752	315,878587	0
15.01.2021	11:52:44	0	65,879715	2,501208	2,979	6,0588	0,634	88,725	0	1015,1	7,6	9,3	9,3	1	1	1	1	1	1	1	1	1	0	1	-11,909796	275,137661	313,015273	0
15.01.2021	11:52:45	0	65,99697	2,842298	3,06525	9,7488	0,637	88,727	0	1015	7,6	9,3	9,2	1	1	1	1	1	1	1	1	1	0	1	-12,473573	275,012097	311,858762	0
15.01.2021	11:52:46	0	65,64487	3,638141	2,967	12,4704	0,637	88,72	0	1015,32	7,8	9,4	9,2	1	1	1	1	1	1	1	1	1	0	1	-21,49401	275,132937	303,408747	0
15.01.2021	11:52:47	0	65,878886	4,206574	2,88675	0,9468	0,636	88,737	0	1015,34	7,6	9,5	9,3	1	1	1	1	1	1	1	1	1	0	1	-11,627907	275,153413	313,371582	0
15.01.2021	11:52:48	0	65,879379	4,547674	2,86725	4,8204	0,636	88,723	0	1015,26	7,7	9,4	9,2	1	1	1	1	1	1	1	1	1	0	1	-8,879493	275,044979	315,607985	0
15.01.2021	11:52:49	0	65,644504	4,092881	2,823	7,8804	0,639	88,729	0	1015,26	7,6	9,5	9,3	1	1	1	1	1	1	1	1	1	0	1	-12,191684	275,115628	312,62932	0
15.01.2021	11:52:50	0	66,113888	2,614911	2,73975	354,5532	0,636	88,717	0	1015,12	7,7	9,4	9,2	1	1	1	1	1	1	1	1	1	0	1	-14,235377	275,148686	310,741778	0
15.01.2021	11:52:51	0	65,410121	2,955968	2,80725	15,0372	0,638	88,728	0	1015,26	7,8	9,5	9,3	1	1	1	1	1	1	1	1	1	0	1	-11,557435	275,008968	312,760141	0
15.01.2021	11:52:52	0	65,17662	3,183369	2,83725	11,7072	0,64	88,72	0	1015,32	7,7	9,3	9,2	1	1	1	1	1	1	1	1	1	0	1	-15,64482	274,973025	308,503236	0
15.01.2021	11:52:53	0	65,528324	5,002435	2,8875	7,4736	0,639	88,724	0	1015,18	7,7	9,3	9,2	1	1	1	1	1	1	1	1	1	0	1	-15,64482	275,034012	308,790908	0
15.01.2021	11:52:54	0	65,058546	2,7286	2,96625	15,0264	0,638	88,725	0	1015,2	7,6	9,5	9,2	1	1	1	1	1	1	1	1	1	0	1	-15,362932	275,14396	309,591896	0
15.01.2021	11:52:55	0	65,410245	4,77505	2,8965	22,1544	0,642	88,705	0	1015,28	7,7	9,5	9,2	1	1	1	1	1	1	1	1	1	0	1	-15,292459	275,118774	309,543402	0
15.01.2021	11:52:56	0	65,176744	3,979183	2,76075	18,4644	0,643	88,733	0	1015,3	7,8	9,3	9,3	1	1	1	1	1	1	1	1	1	0	1	-10,288936	275,125068	314,57665	0
15.01.2021	11:52:57	0	65,293542	3,979206	2,61825	19,8792	0,639	88,723	0	1015,2	7,7	9,4	9,2	1	1	1	1	1	1	1	1	1	0	1	-14,164905	275,104621	310,60412	0
15.01.2021	11:52:58	0	64,707454	3,410747	2,4105	25,0488	0,646	88,732	0	1015,3	7,6	9,4	9,2	1	1	1	1	1	1	1	1	1	0	1	-13,530655	274,979271	310,646855	0
15.01.2021	11:52:59	0	65,293146	4,775045	2,2455	21,3768	0,641	88,726	0	1015,12	7,6	9,5	9,2	1	1	1	1	1	1	1	1	1	0	1	-13,530655	274,977709	310,63949	0
15.01.2021	11:53:00	0	64,707093	2,501198	2,0265	26,5104	0,643	88,727	0	1015,26	7,6	9,5	9,3	1	1	1	1	1	1	1	1	1	0	1	-15,433404	275,043412	309,046679	0
15.01.2021	11:53:01	0	64,707093	2,501198	2,0265	26,5104	0,643	88,727	0	1015,26	7,6	9,5	9,3	1	1	1	1	1	1	1	1	1	0	1	-16,208598	275,150262	308,776001	0
15.01.2021	11:53:02	0	64,70803	4,320276	2,004	25,4088	0,64	88,711	0	1015,14	7,6	9,3	9,2	1	1	1	1	1	1	1	1	1	0	1	-12,544045	275,077916	312,098895	0
15.01.2021	11:53:03	0	64,589931	2,95596	1,95	19,8756	0,642	88,732	0	1015,12	7,7	9,5	9,3	1	1	1	1	1	1	1	1	1	0	1	-14,728682	274,996458	309,529887	0
15.01.2021	11:53:04	0	64,589961	4,661348	2,07975	22,8348	0,645	88,729	0	1015,24	7,8	9,5	9,2	1	1	1	1	1	1	1	1	1	0	1	-12,05074	275,065362	312,532938	0
15.01.2021	11:53:05	0	64,356447	2,842285	2,22375	359,9028	0,641	88,738	0	1015,12	7,7	9,3	9,2	1	1	1	1	1	1	1	1	1	0	1	-15,362932	275,469585	311,13293	0
15.01.2021	11:53:06	0	64,121578	2,955976	2,24625	19,53	0,643	88,732	0	1015,16	7,6	9,4	9,2	1	1	1	1	1	1	1	1	1	0	1	-15,503876	275,038711	308,954026	0
15.01.2021	11:53:07	0	64,472829	4,775037	2,1165	346,932	0,658	88,748	0	1015,38	7,7	9,5	9,2	1	1	1	1	1	1	1	1	1	0	1	-15,292459	275,148686	309,684696	0
15.01.2021	11:53:08	0	64,239313	3,638122	2,08575	15,0264	0,64	88,735	0	1015,18	7,7	9,3	9,2	1	1	1	1	1	1	1	1	1	0	1	-8,949965	275,024617	315,441434	0
15.01.2021	11:53:09	0	64,121669	4,320269	2,055	16,0992	0,646	88,727	0	1015,14	7,7	9,4	9,2	1	1	1	1	1	1	1	1	1	0	1	-12,825934	275,156565	312,188448	0
15.01.2021	11:53:10	0	64,004026	3,979194	2,16375	19,8936	0,644	88,728	0	1015,28	7,6	9,5	9,2	1	1	1	1	1	1	1	1	1	0	1	-16,208598	275,023051	308,175416	0
15.01.2021	11:53:11	0	63,770056	3,183355	2,48025	29,106	0,648	88,74	0	1015,3	7,7	9,4	9,2	1	1	1	1	1	1	1	1	1	0	1	-12,755462	274,968341	311,370511	0
15.01.2021	11:53:12	0	63,769639	2,614898	2,57175	17,2404	0,644	88,73	0	1015,28	7,6	9,5	9,2	1	1	1	1	1	1	1	1	1	0	1	-17,89993	275,008968	306,417646	0
15.01.2021	11:53:13	0	63,770116	3,8655	2,6895	22,698	0,641	88,73	0	1015,2	7,7	9,4	9,2	1	1	1	1	1	1	1	1	1	0	1	-12,403101	275,023051	311,980913	0
15.01.2021	11:53:14	0	64,004595	2,95597	2,69325	18,432	0,647	88,735	0	1015,28	7,7	9,4	9,2	1	1	1	1	1	1	1	1	1	0	1	-15,151515	274,957418	308,922955	0
15.01.2021	11:53:15	0	63,418058	3,638095	2,781	25,4232	0,639	88,724	0	1015,16	7,7	9,5	9,3	1	1	1	1	1	1	1	1	1	0	1	-13,953488	275,048113	310,548781	0
15.01.2021	11:53:16	0	63,88743	4,661336	2,595	23,9724	0,642	88,715	0	1015,28	7,7	9,4	9,2	1	1	1	1	1	1	1	1	1	0	1	-16,772375	274,968341	307,353598	0
15.01.2021	11:53:17	0	63,653011	3,410733	2,30175	25,0272	0,642	88,729	0	1015,24	7,7	9,4	9,2	1	1	1	1	1	1	1	1	1	0	1	-18,675123	275,084197	305,997465	0
15.01.2021	11:53:18	0	63,535816	3,751805	2,16975	31,0176	0,648	88,725	0	1015,34	7,7	9,4	9,2	1	1	1	1	1	1	1	1	1	0	1	-16,138125	275,125068	308,72746	0
15.01.2021	11:53:19	0	64,004745	4,774995	2,109	12,8412	0,641	88,696	0	1015,24	7,7	9,4	9,3	1	1	1	1	1	1	1	1	1	0	1	-16,842847	275,051248	307,674218	0
15.01.2021	11:53:20	0	63,652655	4,54764	2,03925	16,4808	0,646	88,714	0	1015,16	7,7	9,5	9,2	1	1	1	1	1	1	1	1	1	0	1	-18,745595	275,139235	306,186912	0
15.01.2021	11:53:21	0	63,183788	3,183348	2,0445	5,22	0,65	88,709	0	1015,36	7,7	9,5	9,2	1	1	1	1	1	1	1	1	1	0	1	-12,755462	275,109338	312,035836	0
15.01.2021	11:53:22	0	63,41871	4,547638	2,18475	7,1244	0,646	88,7	0	1015,22	7,7	9,4	9,2	1	1	1	1	1	1	1	1	1	0	1	-9,936575	274,963659	314,167321	0
15.01.2021	11:53:23	0	63,301072	3,751801	2,23425	6,8112	0,646	88,714	0	1015,26	7,7	9,5	9,2	1	1	1	1	1	1	1	1	1	0	1	-17,26568	275,082626	307,399495	0
15.01.2021	11:53:24	0	63,18432	2,955964	2,20725	353,9268	0,644	88,69	0	1015,18	7,7	9,4	9,2	1	1	1	1	1	1	1	1	1	0	1	-14,376321	274,965219	309,734933	0
15.01.2021	11:53:25	0	62,949899	4,661326	2,28675	4,8312	0,639	88,687	0	1015,2	7,7	9,4	9,2	1	1	1	1	1	1	1	1	1	0	1	-22,128259	275,125068	302,737326	0
15.01.2021	11:53:26	0	63,184379	2,501184	2,4315	359,4384	0,642	88,685	0	1015,16	7,7	9,4	9,3	1	1	1	1	1	1	1	1	1	0	1	-14,517266	275,081056	310,140497	0
15.01.2021	11:53:27	0	62,598282	2,955962	2,53725	12,0852	0,645	88,693	0	1015,14	7,7	9,4	9,2	1	1	1	1	1	1	1	1	1	0	1	-17,26568	275,139235	307,666828	0
15.01.2021	11:53:28	0	62,832762	4,661323	2,3775	3,5028	0,646	88,69	0	1015,26	7,6	9,4	9,2	1	1	1	1	1	1	1	1	1	0	1	-15,221987	275,114055	309,591589	0
15.01.2021	11:53:29	0	62,832792	4,43394	2,23275	10,422	0,645	88,697	0	1015,24	7,7	9,4	9,2	1	1	1	1	1	1	1	1	1	0	1	-19,661734	275,018356	304,700128	0
15.01.2021	11:53:30	0	62,715596	2,842269	2,10525	7,4988	0,644	88,682	0	1015,12	7,7	9,4	9,2	1	1	1	1	1	1	1	1	1	0	1	-12,755462	275,131363	312,13986	0
15.01.2021	11:53:31	0	62,83285	4,77501	1,977	18,8136	0,645	88,689	0	1015,28	7,7	9,4	9,2	1	1	1	1	1	1	1	1	1	0	1	-11,909796	275,062225	312,659075	0
15.01.2021	11:53:32	0	62,363978	2,72856	1,87875	10,44	0,648	88,683	0	1015,42	7,7	9,4	9,3	1	1	1	1	1	1	1	1	1	0	1	-15,715292	275,136086	309,202339	0
15.01.2021	11:53:33	0	62,715244	4,77498	1,89975	4,8348	0,647	88,691	0	1015,3	7,7	9,5	9,3	1	1	1	1	1	1	1	1	1	0	1	-17,406624	275,09205	307,30304	0
15.01.2021	11:53:34	0	62,24681	2,614869	1,986	8,9856	0,648	88,694	0	1015,22	7,7	9,4	9,3	1	1	1	1	1	1	1	1	1	0	1	-11,134602	275,104621	313,634424	0
15.01.2021	11:53:35	0	62,481291	3,183318	2,0925	8,7084	0,642	88,695	0	1015,2	7,7	9,4	9,3	1	1	1	1	1	1	1	1	1	0	1	-17,477097	274,980833	306,707779	0
15.01.2021	11:53:36	0	62,598546	4,320243	2,193	10,0512	0,648	88,694	0	1015,26	7,6	9,4	9,2	1	1	1	1	1	1	1	1	1	0	1	-16,067653	275,088908	308,627179	0
15.01.2021	11:53:37	0	62,364123	3,751789	2,211	13,5504	0,645	88,703	0	1015,22	7,7	9,4	9,2	1	1	1	1	1	1	1	1	1	0	1	-16,913319	275,077916	307,729621	0
15.01.2021	11:53:38	0	62,24649	3,069626	2,13375	12,8592	0,643	88,694	0	1015,3	7,7	9,5	9,3	1	1	1	1	1	1	1	1	1	0	1	-17,195208	275,126641	307,677811	0
15.01.2021	11:53:39	0	62,481407	2,728572	2,079	21,7584	0,643	88,711	0	1015,18	7,7	9,4	9,2	1	1	1	1	1	1	1	1	1	0	1	-19,661734	275,044979	304,825744	0
15.01.2021	11:53:40	0	62,36421	4,433929	2,088	22,4604	0,647	88,708	0	1015,22	7,7	9,4	9,2	1	1	1	1	1	1	1	1	1	0	1	-16,490486	275,112483	308,315663	0
15.01.2021	11:53:41	0	62,129352	5,229762	1,95	15,408	0,642	88,701	0	1015,14	7,7	9,5	9,2	1	1	1	1	1	1	1	1	1	0	1	-14,869626	275,126641	310,003392	0
15.01.2021	11:53:42	0	62,01259	3,638072	1,899	31,7628	0,645	88,713	0	1015,26	7,7	9,4	9,3	1	1	1	1	1	1	1	1	1	0	1	-19,591261	275,073207	305,02945	0
15.01.2021	11:53:43	0	61,777734	3,751761	2,1105	14,6448	0,645	88,712	0	1015,18	7,7	9,5	9,3	1	1	1	1	1	1	1	1	1	0	1	-13,953488	274,962098	310,14305	0
15.01.2021	11:53:44	0	61,894988	4,206519	2,37675	18,8208	0,649	88,711	0	1015,3	7,7	9,5	9,3	1	1	1	1	1	1	1	1	1	0	1	-17,688513	274,985519	306,518463	0
15.01.2021	11:53:45	0	62,012677	3,183311	2,598	21,3912	0,648	88,717	0	1015,18	7,7	9,4	9,3	1	1	1	1	1	1	1	1	1	0	1	-15,362932	275,065362	309,220747	0
15.01.2021	11:53:46	0	61,661027	3,29702	2,805	21,0024	0,648	88,714	0	1015,3	7,7	9,4	9,2	1	1	1	1	1	1	1	1	1	0	1	-14,728682	274,976147	309,4341	0
15.01.2021	11:53:47	0	61,543829	2,95593	3,03675	15,3972	0,643	88,69	0	1015,1	7,7	9,4	9,3	1	1	1	1	1	1	1	1	1	0	1	-16,701903	275,029314	307,711657	0
15.01.2021	11:53:48	0	61,426631	2,955948	3,02325	15,0516	0,651	88,72	0	1015,24	7,7	9,4	9,2	1	1	1	1	1	1	1	1	1	0	1	-16,560958	275,147111	308,408754	0
15.01.2021	11:53:49	0	61,895132	2,955929	2,847	12,8556	0,646	88,72	0	1015,3	7,7	9,5	9,3	1	1	1	1	1	1	1	1	1	0	1	-13,6716	275,118774	311,164262	0
15.01.2021	11:53:50	0	61,543915	4,320203	2,526	13,158	0,643	88,704	0	1015,14	7,7	9,4	9,3	1	1	1	1	1	1	1	1	1	0	1	-14,65821	275,096763	310,07371	0
15.01.2021	11:53:51	0	61,30949	4,547609	2,22	8,2512	0,644	88,705	0	1015,26	7,7	9,4	9,2	1	1	1	1	1	1	1	1	1	0	1	-18,181818	275,147111	306,787894	0
15.01.2021	11:53:52	0	61,543541	4,66127	2,2875	9,7488	0,649	88,721	0	1015,18	7,7	9,5	9,3	1	1	1	1	1	1	1	1	1	0	1	-21,564482	275,071638	303,048821	0
15.01.2021	11:53:53	0	61,309547	2,728564	2,226	15,4044	0,644	88,72	0	1015,24	7,7	9,4	9,2	1	1	1	1	1	1	1	1	1	0	1	-17,547569	275,147111	307,422143	0
15.01.2021	11:53:54	0	61,544029	2,614873	2,13225	18,0756	0,648	88,727	0	1015,3	7,7	9,4	9,2	1	1	1	1	1	1	1	1	1	0	1	-15,64482	275,015226	308,702276	0
15.01.2021	11:53:55	0	61,075151	2,842253	1,99575	18,4392	0,642	88,707	0	1015,14	7,7	9,4	9,2	1	1	1	1	1	1	1	1	1	0	1	-17,970402	275,131363	306,92492	0
15.01.2021	11:53:56	0	61,191977	5,002334	2,13975	3,3732	0,646	88,696	0	1015,22	7,7	9,5	9,3	1	1	1	1	1	1	1	1	1	0	1	-16,138125	275,008968	308,17945	0
15.01.2021	11:53:57	0	61,192434	3,865439	2,3625	355,896	0,642	88,699	0	1015,16	7,7	9,4	9,3	1	1	1	1	1	1	1	1	1	0	1	-19,168428	275,14081	305,771519	0
15.01.2021	11:53:58	0	61,309689	4,433911	2,3895	8,6184	0,652	88,712	0	1015,3	7,7	9,4	9,2	1	1	1	1	1	1	1	1	1	0	1	-20,648344	275,107765	304,135529	0
15.01.2021	11:53:59	0	61,192491	5,00233	2,4255	16,092	0,65	88,715	0	1015,2	7,7	9,4	9,3	1	1	1	1	1	1	1	1	1	0	1	-14,305849	275,0685	310,29264	0
15.01.2021	11:54:00	0	61,309774	3,524368	2,78475	11,6964	0,65	88,708	0	1015,38	7,7	9,4	9,3	1	1	1	1	1	1	1	1	1	0	1	-13,812544	274,963659	310,291352	0
15.01.2021	11:54:01	0	61,309774	3,524368	2,78475	11,6964	0,65	88,708	0	1015,38	7,7	9,4	9,3	1	1	1	1	1	1	1	1	1	0	1	-18,675123	275,073207	305,945588	0
15.01.2021	11:54:02	0	60,840894	4,433881	2,94675	4,8276	0,651	88,711	0	1015,44	7,7	9,4	9,3	1	1	1	1	1	1	1	1	1	0	1	-15,362932	275,134512	309,547262	0
15.01.2021	11:54:03	0	60,840922	2,614852	2,91375	358,3728	0,646	88,717	0	1015,26	7,7	9,4	9,3	1	1	1	1	1	1	1	1	1	0	1	-18,957012	274,994895	305,294185	0
15.01.2021	11:54:04	0	60,958178	3,410676	2,7585	360	0,65	88,711	0	1015,14	7,7	9,4	9,3	1	1	1	1	1	1	1	1	1	0	1	-16,983791	274,991769	307,252662	0
15.01.2021	11:54:05	0	60,958206	4,661256	2,78475	0,864	0,646	88,702	0	1015,18	7,7	9,4	9,3	1	1	1	1	1	1	1	1	1	0	1	-15,856237	275,048113	308,646033	0
15.01.2021	11:54:06	0	60,723779	4,661255	2,73075	1,5444	0,646	88,713	0	1015,22	7,7	9,4	9,3	1	1	1	1	1	1	1	1	1	0	1	-16,842847	275,128215	308,037605	0
15.01.2021	11:54:07	0	60,489352	3,410674	2,5755	358,398	0,647	88,689	0	1015,08	7,7	9,4	9,3	1	1	1	1	1	1	1	1	1	0	1	-13,248767	275,066931	311,342317	0
15.01.2021	11:54:08	0	60,254925	2,842245	2,5095	360	0,645	88,707	0	1015,22	7,7	9,4	9,2	1	1	1	1	1	1	1	1	1	0	1	-18,816068	274,973025	305,331988	0
15.01.2021	11:54:09	0	60,606636	4,092807	2,58	358,686	0,653	88,694	0	1015,32	7,7	9,4	9,3	1	1	1	1	1	1	1	1	1	0	1	-16,420014	275,008968	307,897562	0
15.01.2021	11:54:10	0	60,489436	3,979117	2,57475	340,6356	0,641	88,694	0	1015,18	7,7	9,4	9,3	1	1	1	1	1	1	1	1	1	0	1	-16,490486	275,096763	308,241433	0
15.01.2021	11:54:11	0	60,489464	4,547561	2,6655	342,342	0,649	88,688	0	1015,14	7,7	9,4	9,3	1	1	1	1	1	1	1	1	1	0	1	-14,940099	275,137661	309,98497	0
15.01.2021	11:54:12	0	60,372264	2,728536	2,796	359,514	0,65	88,675	0	1015,12	7,7	9,4	9,3	1	1	1	1	1	1	1	1	1	0	1	-20,577872	275,05752	303,968792	0
15.01.2021	11:54:13	0	60,606747	3,069602	2,67825	354,3084	0,652	88,688	0	1015,24	7,7	9,4	9,3	1	1	1	1	1	1	1	1	1	0	1	-15,574348	274,96678	308,544265	0
15.01.2021	11:54:14	0	60,489548	4,661247	2,65725	8,2368	0,646	88,671	0	1015,06	7,7	9,4	9,3	1	1	1	1	1	1	1	1	1	0	1	-18,604651	275,093621	306,112431	0
15.01.2021	11:54:15	0	60,489575	3,410668	2,51625	16,0704	0,655	88,678	0	1015,16	7,7	9,4	9,3	1	1	1	1	1	1	1	1	1	0	1	-18,040874	275,081056	306,616889	0
15.01.2021	11:54:16	0	60,255147	3,296978	2,4165	9,3384	0,653	88,695	0	1015,28	7,7	9,4	9,3	1	1	1	1	1	1	1	1	1	0	1	-15,64482	274,960538	308,444362	0
15.01.2021	11:54:17	0	60,372403	4,320177	2,394	15,0444	0,655	88,702	0	1015,22	7,7	9,4	9,3	1	1	1	1	1	1	1	1	1	0	1	-16,983791	275,021486	307,392837	0
15.01.2021	11:54:18	0	60,020747	3,183288	2,30625	12,4632	0,65	88,697	0	1015,26	7,7	9,4	9,3	1	1	1	1	1	1	1	1	1	0	1	-18,111346	275,136086	306,806285	0
15.01.2021	11:54:19	0	60,489687	4,206486	2,24925	21,8484	0,649	88,703	0	1015,16	7,7	9,4	9,3	1	1	1	1	1	1	1	1	1	0	1	-20,930233	275,015226	303,416864	0
15.01.2021	11:54:20	0	60,020382	2,273776	2,2665	21,3912	0,654	88,717	0	1015,28	7,7	9,5	9,3	1	1	1	1	1	1	1	1	1	0	1	-19,027484	274,983957	305,172125	0
15.01.2021	11:54:21	0	59,786373	3,183286	2,2155	21,3912	0,649	88,684	0	1015,32	7,7	9,4	9,3	1	1	1	1	1	1	1	1	1	0	1	-17,336152	275,142385	307,611235	0
15.01.2021	11:54:22	0	59,669172	2,046397	2,13675	18,5544	0,655	88,697	0	1015,18	7,7	9,4	9,3	1	1	1	1	1	1	1	1	1	0	1	-22,057787	274,999585	302,215529	0
15.01.2021	11:54:23	0	59,786428	2,955907	2,19375	7,8696	0,658	88,716	0	1015,32	7,7	9,4	9,3	1	1	1	1	1	1	1	1	1	0	1	-19,309373	274,957418	304,765098	0
15.01.2021	11:54:24	0	59,903684	2,842217	2,31375	13,9032	0,649	88,703	0	1015,2	7,7	9,4	9,3	1	1	1	1	1	1	1	1	1	0	1	-21,705426	275,074777	302,922694	0
15.01.2021	11:54:25	0	59,786483	3,069594	2,48475	8,9784	0,659	88,72	0	1015,24	7,7	9,4	9,3	1	1	1	1	1	1	1	1	1	0	1	-17,195208	275,139235	307,7373	0
15.01.2021	11:54:26	0	60,372653	4,433857	2,4975	17,2296	0,652	88,722	0	1015,26	7,7	9,4	9,3	1	1	1	1	1	1	1	1	1	0	1	-17,26568	275,090479	307,436568	0
15.01.2021	11:54:27	0	59,786538	3,29697	2,4555	13,914	0,651	88,705	0	1015,22	7,7	9,4	9,3	1	1	1	1	1	1	1	1	1	0	1	-20,014094	275,11091	304,784629	0
15.01.2021	11:54:28	0	59,903794	4,320167	2,42775	4,824	0,652	88,727	0	1015,18	7,7	9,4	9,3	1	1	1	1	1	1	1	1	1	0	1	-16,138125	275,134512	308,772068	0
15.01.2021	11:54:29	0	59,552135	3,751723	2,448	5,6772	0,659	88,708	0	1015,26	7,7	9,4	9,3	1	1	1	1	1	1	1	1	1	0	1	-19,87315	275,03088	304,547799	0
15.01.2021	11:54:30	0	59,317705	2,955902	2,451	0	0,656	88,723	0	1015,4	7,7	9,4	9,3	1	1	1	1	1	1	1	1	1	0	1	-21,000705	275,134512	303,909489	0
15.01.2021	11:54:31	0	59,669419	2,728524	2,5035	6,5088	0,654	88,719	0	1015,26	7,7	9,4	9,3	1	1	1	1	1	1	1	1	1	0	1	-21,846371	275,002712	302,441696	0
15.01.2021	11:54:32	0	59,31776	4,54754	2,62575	359,8596	0,656	88,728	0	1015,26	7,7	9,4	9,3	1	1	1	1	1	1	1	1	1	0	1	-18,745595	275,202329	306,485062	0
15.01.2021	11:54:33	0	59,552244	3,410654	2,66175	360	0,655	88,738	0	1015,3	7,7	9,4	9,3	1	1	1	1	1	1	1	1	1	0	1	-22,339676	275,115628	302,481328	0
15.01.2021	11:54:34	0	59,435043	4,320161	2,5335	9,36	0,65	88,733	0	1015,26	7,7	9,4	9,3	1	1	1	1	1	1	1	1	1	0	1	-19,097956	274,968341	305,028017	0
15.01.2021	11:54:35	0	59,552299	3,638029	2,40675	5,1876	0,652	88,732	0	1015,16	7,7	9,4	9,3	1	1	1	1	1	1	1	1	1	0	1	-17,406624	275,070069	307,199272	0
15.01.2021	11:54:36	0	59,200639	3,296963	2,6055	8,982	0,649	88,73	0	1015,22	7,7	9,4	9,3	1	1	1	1	1	1	1	1	1	0	1	-19,097956	274,974586	305,057462	0
15.01.2021	11:54:37	0	59,552353	4,092781	2,8635	358,02	0,657	88,73	0	1015,26	7,7	9,4	9,3	1	1	1	1	1	1	1	1	1	0	1	-19,520789	275,11091	305,277934	0
15.01.2021	11:54:38	0	59,552381	4,433845	2,913	352,8108	0,654	88,725	0	1015,28	7,7	9,4	9,3	1	1	1	1	1	1	1	1	1	0	1	-18,181818	275,118774	306,654044	0
15.01.2021	11:54:39	0	59,435179	4,320156	2,75925	355,4676	0,656	88,732	0	1015,26	7,7	9,4	9,3	1	1	1	1	1	1	1	1	1	0	1	-19,097956	275,008968	305,21962	0
15.01.2021	11:54:40	0	58,966289	3,069584	2,5935	5,67	0,657	88,722	0	1015,16	7,7	9,4	9,3	1	1	1	1	1	1	1	1	1	0	1	-23,46723	275,120347	301,376061	0
15.01.2021	11:54:41	0	59,318004	4,661219	2,484	5,3028	0,655	88,726	0	1015,2	7,7	9,4	9,3	1	1	1	1	1	1	1	1	1	0	1	-22,551092	275,095192	302,173408	0
15.01.2021	11:54:42	0	58,731473	2,842206	2,373	7,11	0,651	88,734	0	1015,2	7,7	9,5	9,3	1	1	1	1	1	1	1	1	1	0	1	-23,678647	275,118774	301,157215	0
15.01.2021	11:54:43	0	58,84914	4,661217	2,32575	0,8748	0,653	88,73	0	1015,24	7,7	9,4	9,3	1	1	1	1	1	1	1	1	1	0	1	-21,846371	275,081056	302,811392	0
15.01.2021	11:54:44	0	58,731938	4,547528	2,1795	0,1332	0,658	88,736	0	1015,22	7,7	9,4	9,3	1	1	1	1	1	1	1	1	1	0	1	-22,057787	274,798942	301,270189	0
15.01.2021	11:54:45	0	59,083653	4,092774	2,18475	357,2748	0,658	88,734	0	1015,2	7,7	9,4	9,3	1	1	1	1	1	1	1	1	1	0	1	-23,819591	275,11091	300,979132	0
15.01.2021	11:54:46	0	58,614762	2,955892	2,17725	6,4332	0,66	88,747	0	1015,18	7,7	9,4	9,3	1	1	1	1	1	1	1	1	1	0	1	-21,775899	275,131363	303,119423	0
15.01.2021	11:54:47	0	58,732018	4,20646	2,11425	6,8112	0,66	88,748	0	1015,28	7,7	9,4	9,3	1	1	1	1	1	1	1	1	1	0	1	-19,309373	275,114055	305,504204	0
15.01.2021	11:54:48	0	58,849274	4,547524	1,998	8,9892	0,662	88,726	0	1015,28	7,7	9,4	9,3	1	1	1	1	1	1	1	1	1	0	1	-21,282593	275,007404	303,027604	0
15.01.2021	11:54:49	0	58,380382	2,501137	1,9725	359,5212	0,66	88,736	0	1015,22	7,7	9,4	9,3	1	1	1	1	1	1	1	1	1	0	1	-20,014094	274,962098	304,082444	0
15.01.2021	11:54:50	0	58,732098	4,092769	1,92	18,8172	0,658	88,746	0	1015,24	7,7	9,4	9,3	1	1	1	1	1	1	1	1	1	0	1	-19,661734	275,043412	304,818349	0
15.01.2021	11:54:51	0	58,497665	3,751704	1,87125	6,4368	0,661	88,763	0	1015,24	7,7	9,4	9,3	1	1	1	1	1	1	1	1	1	0	1	-20,577872	275,132937	304,324886	0
15.01.2021	11:54:52	0	58,380462	3,97908	1,95825	14,2992	0,659	88,754	0	1015,28	7,7	9,4	9,3	1	1	1	1	1	1	1	1	1	0	1	-26,920366	275,00584	297,382453	0
15.01.2021	11:54:53	0	58,263259	5,00227	2,24625	12,474	0,667	88,757	0	1015,34	7,7	9,4	9,3	1	1	1	1	1	1	1	1	1	0	1	-21,705426	274,962098	302,391112	0
15.01.2021	11:54:54	0	58,614975	4,547518	2,4525	31,0176	0,66	88,743	0	1015,12	7,7	9,4	9,3	1	1	1	1	1	1	1	1	1	0	1	-20,789288	275,11091	304,009435	0
15.01.2021	11:54:55	0	58,145674	2,614822	2,4915	28,7208	0,661	88,749	0	1015,24	7,7	9,5	9,3	1	1	1	1	1	1	1	1	1	0	1	-20,225511	275,101478	304,52867	0
15.01.2021	11:54:56	0	58,145701	2,501134	2,34525	33,246	0,666	88,772	0	1015,26	7,7	9,5	9,3	1	1	1	1	1	1	1	1	1	0	1	-22,410148	275,14396	302,54468	0
15.01.2021	11:54:57	0	58,380594	3,069572	2,217	35,8704	0,653	88,748	0	1015,2	7,7	9,4	9,3	1	1	1	1	1	1	1	1	1	0	1	-18,957012	275,073207	305,663699	0
15.01.2021	11:54:58	0	57,9117	3,069572	2,1915	33,2568	0,661	88,763	0	1015,3	7,7	9,4	9,3	1	1	1	1	1	1	1	1	1	0	1	-19,309373	275,125068	305,556213	0
15.01.2021	11:54:59	0	58,263417	3,865386	2,214	25,038	0,66	88,75	0	1015,16	7,7	9,4	9,3	1	1	1	1	1	1	1	1	1	0	1	-23,749119	275,041845	300,723569	0
15.01.2021	11:55:00	0	58,3807	4,661198	2,39625	29,6316	0,657	88,75	0	1015,18	7,7	9,4	9,3	1	1	1	1	1	1	1	1	1	0	1	-24,383369	275,087337	300,304048	0
15.01.2021	11:55:01	0	58,3807	4,661198	2,39625	29,6316	0,657	88,75	0	1015,18	7,7	9,4	9,3	1	1	1	1	1	1	1	1	1	0	1	-24,383369	275,087337	300,304048	0
15.01.2021	11:55:02	0	58,029036	4,661197	2,36775	11,718	0,663	88,753	0	1015,18	7,7	9,4	9,3	1	1	1	1	1	1	1	1	1	0	1	-20,718816	275,013661	303,620899	0
15.01.2021	11:55:03	0	57,911831	4,320133	2,397	17,676	0,666	88,745	0	1015,26	7,7	9,4	9,3	1	1	1	1	1	1	1	1	1	0	1	-18,675123	274,9465	305,34788	0
15.01.2021	11:55:04	0	57,911858	3,183255	2,6865	11,1852	0,662	88,738	0	1015,16	7,7	9,4	9,3	1	1	1	1	1	1	1	1	1	0	1	-21,564482	275,029314	302,849078	0
15.01.2021	11:55:05	0	57,677019	2,842192	2,93475	7,128	0,661	88,726	0	1015,26	7,7	9,5	9,3	1	1	1	1	1	1	1	1	1	0	1	-22,339676	275,117201	302,488757	0
15.01.2021	11:55:06	0	57,91191	4,32013	3,0375	8,2476	0,66	88,751	0	1015,24	7,7	9,4	9,3	1	1	1	1	1	1	1	1	1	0	1	-21,987315	275,040278	302,47798	0
15.01.2021	11:55:07	0	57,442611	3,638004	3,0525	6,0588	0,665	88,747	0	1015,26	7,7	9,5	9,3	1	1	1	1	1	1	1	1	1	0	1	-21,987315	274,965219	302,123939	0
15.01.2021	11:55:08	0	57,677097	4,433816	3,084	17,3304	0,661	88,738	0	1015,24	7,7	9,5	9,3	1	1	1	1	1	1	1	1	1	0	1	-22,410148	275,115628	302,410856	0
15.01.2021	11:55:09	0	58,028813	3,75169	3,23175	7,506	0,665	88,706	0	1015,04	7,7	9,5	9,3	1	1	1	1	1	1	1	1	1	0	1	-24,665257	275,085767	300,014745	0
15.01.2021	11:55:10	0	57,911609	2,501126	3,228	12,474	0,661	88,727	0	1015,24	7,7	9,5	9,3	1	1	1	1	1	1	1	1	1	0	1	-22,128259	275,125068	302,737326	0
15.01.2021	11:55:11	0	57,677579	3,069563	2,96475	25,416	0,667	88,716	0	1015,22	7,7	9,4	9,3	1	1	1	1	1	1	1	1	1	0	1	-21,071177	274,969902	303,062156	0
15.01.2021	11:55:12	0	57,559971	3,638	2,643	18,8352	0,667	88,701	0	1015,22	7,7	9,5	9,3	1	1	1	1	1	1	1	1	1	0	1	-22,973925	274,983957	301,225683	0
15.01.2021	11:55:13	0	57,208307	2,501124	2,3535	11,7144	0,664	88,713	0	1015,24	7,7	9,5	9,3	1	1	1	1	1	1	1	1	1	0	1	-23,396758	274,963659	300,707138	0
15.01.2021	11:55:14	0	57,677657	4,092748	2,349	359,1864	0,667	88,77	0	1015,34	7,7	9,4	9,3	1	1	1	1	1	1	1	1	1	0	1	-22,269204	275,034012	302,166524	0
15.01.2021	11:55:15	0	57,442819	3,410623	2,502	15,1452	0,667	88,675	0	1015,22	7,7	9,5	9,3	1	1	1	1	1	1	1	1	1	0	1	-24,453841	274,976147	299,708941	0
15.01.2021	11:55:16	0	57,442845	2,728497	2,60025	17,6976	0,667	88,686	0	1015,08	7,7	9,5	9,3	1	1	1	1	1	1	1	1	1	0	1	-22,621564	275,136086	302,296067	0
15.01.2021	11:55:17	0	57,560101	3,069559	2,397	17,2188	0,657	88,689	0	1015,24	7,7	9,5	9,3	1	1	1	1	1	1	1	1	1	0	1	-25,863284	275,129789	299,024602	0
15.01.2021	11:55:18	0	57,677357	4,547494	2,259	24,3252	0,658	88,679	0	1015,2	7,7	9,5	9,3	1	1	1	1	1	1	1	1	1	0	1	-24,665257	275,11091	300,133466	0
15.01.2021	11:55:19	0	57,443325	4,206431	2,17575	12,9276	0,66	88,658	0	1015,22	7,7	9,4	9,3	1	1	1	1	1	1	1	1	1	0	1	-25,933756	275,055952	298,605507	0
15.01.2021	11:55:20	0	57,442948	2,728495	2,076	14,3064	0,669	88,675	0	1015,26	7,7	9,5	9,3	1	1	1	1	1	1	1	1	1	0	1	-25,933756	275,120347	298,909535	0
15.01.2021	11:55:21	0	57,443376	4,661178	1,9575	10,0656	0,666	88,661	0	1015,06	7,7	9,4	9,3	1	1	1	1	1	1	1	1	1	0	1	-24,453841	275,046546	300,041033	0
15.01.2021	11:55:22	0	57,208538	2,614807	1,92225	21,7764	0,66	88,665	0	1015,24	7,7	9,5	9,3	1	1	1	1	1	1	1	1	1	0	1	-23,678647	275,137661	301,246422	0
15.01.2021	11:55:23	0	57,794717	4,661176	1,9515	17,244	0,669	88,651	0	1015,22	7,7	9,5	9,3	1	1	1	1	1	1	1	1	1	0	1	-24,242424	275,002712	300,045643	0
15.01.2021	11:55:24	0	57,443051	4,092739	2,25	33,6276	0,665	88,655	0	1015,18	7,7	9,5	9,3	1	1	1	1	1	1	1	1	1	0	1	-27,343199	274,955858	296,723916	0
15.01.2021	11:55:25	0	57,443479	3,637989	2,232	15,7752	0,661	88,652	0	1015,2	7,7	9,4	9,3	1	1	1	1	1	1	1	1	1	0	1	-24,876674	274,954298	299,183088	0
15.01.2021	11:55:26	0	57,208641	3,296927	2,09625	15,408	0,669	88,639	0	1015,32	7,7	9,5	9,3	1	1	1	1	1	1	1	1	1	0	1	-22,339676	275,021486	302,036953	0
15.01.2021	11:55:27	0	57,326299	3,183239	2,04075	15,4008	0,667	88,63	0	1015,28	7,7	9,4	9,3	1	1	1	1	1	1	1	1	1	0	1	-23,11487	274,952738	300,937539	0
15.01.2021	11:55:28	0	57,443154	3,410613	2,025	32,5044	0,672	88,639	0	1015,28	7,7	9,5	9,3	1	1	1	1	1	1	1	1	1	0	1	-24,312896	275,012097	300,019438	0
15.01.2021	11:55:29	0	57,325949	3,979047	1,95	25,7868	0,669	88,64	0	1015,18	7,7	9,5	9,3	1	1	1	1	1	1	1	1	1	0	1	-23,537703	274,958978	300,544123	0
15.01.2021	11:55:30	0	57,325975	2,728489	1,767	23,9724	0,665	88,63	0	1015,18	7,7	9,5	9,3	1	1	1	1	1	1	1	1	1	0	1	-20,577872	274,979271	303,599639	0
15.01.2021	11:55:31	0	57,20877	2,501114	1,629	9,3672	0,666	88,626	0	1015,22	7,7	9,5	9,3	1	1	1	1	1	1	1	1	1	0	1	-26,70895	275,073207	297,911761	0
15.01.2021	11:55:32	0	57,560489	5,002228	1,7505	2,2932	0,664	88,622	0	1015,22	7,7	9,5	9,3	1	1	1	1	1	1	1	1	1	0	1	-23,608175	274,96678	300,510438	0
15.01.2021	11:55:33	0	57,677746	3,524296	1,95225	18,1764	0,667	88,635	0	1015,3	7,7	9,5	9,3	1	1	1	1	1	1	1	1	1	0	1	-25,440451	275,087337	299,246966	0
15.01.2021	11:55:34	0	57,443309	4,547478	1,94325	12,1068	0,659	88,622	0	1015,28	7,7	9,5	9,3	1	1	1	1	1	1	1	1	1	0	1	-23,46723	275,131363	301,428091	0
15.01.2021	11:55:35	0	57,443335	3,069547	1,73625	23,9652	0,667	88,628	0	1015,28	7,7	9,5	9,3	1	1	1	1	1	1	1	1	1	0	1	-22,48062	274,971463	301,660074	0
15.01.2021	11:55:36	0	57,091666	3,410607	1,56225	13,1544	0,661	88,63	0	1015,28	7,7	9,5	9,3	1	1	1	1	1	1	1	1	1	0	1	-19,379845	275,044979	305,107633	0
15.01.2021	11:55:37	0	57,443386	3,410606	1,4295	356,9544	0,667	88,612	0	1015,3	7,7	9,5	9,3	1	1	1	1	1	1	1	1	1	0	1	-18,111346	274,963659	305,99255	0
15.01.2021	11:55:38	0	57,443412	3,865353	1,36125	17,2368	0,665	88,595	0	1014,96	7,7	9,5	9,3	1	1	1	1	1	1	1	1	1	0	1	-21,705426	275,065362	302,878252	0
15.01.2021	11:55:39	0	57,326206	4,206413	1,27275	39,168	0,67	88,614	0	1015,16	7,7	9,5	9,3	1	1	1	1	1	1	1	1	1	0	1	-24,171952	274,955858	299,895164	0
15.01.2021	11:55:40	0	57,209	3,296917	1,2765	41,4468	0,667	88,587	0	1015,2	7,7	9,5	9,3	1	1	1	1	1	1	1	1	1	0	1	-18,816068	275,016791	305,538411	0
15.01.2021	11:55:41	0	57,326659	3,751664	1,31775	17,2404	0,665	88,599	0	1015,34	7,7	9,4	9,3	1	1	1	1	1	1	1	1	1	0	1	-21,071177	274,951178	302,973879	0
15.01.2021	11:55:42	0	57,326283	4,661157	1,569	8,2656	0,668	88,593	0	1015,2	7,7	9,5	9,3	1	1	1	1	1	1	1	1	1	0	1	-25,792812	275,012097	298,539523	0
15.01.2021	11:55:43	0	57,209477	4,320096	1,7355	23,2776	0,669	88,606	0	1015,24	7,7	9,4	9,3	1	1	1	1	1	1	1	1	1	0	1	-20,648344	275,129789	304,239543	0
15.01.2021	11:55:44	0	57,678029	4,661155	1,79625	4,0788	0,662	88,605	0	1015,38	7,7	9,5	9,3	1	1	1	1	1	1	1	1	1	0	1	-21,775899	275,099906	302,970861	0
15.01.2021	11:55:45	0	57,209128	2,72848	1,908	356,526	0,666	88,606	0	1015,36	7,7	9,5	9,3	1	1	1	1	1	1	1	1	1	0	1	-22,269204	275,126641	302,603815	0
15.01.2021	11:55:46	0	57,560849	4,433779	1,83375	9,3528	0,67	88,609	0	1015,22	7,7	9,5	9,3	1	1	1	1	1	1	1	1	1	0	1	-18,675123	274,96678	305,44349	0
15.01.2021	11:55:47	0	57,326411	4,433778	1,7835	18,0756	0,671	88,601	0	1015,22	7,7	9,5	9,3	1	1	1	1	1	1	1	1	1	0	1	-21,000705	274,969902	303,132628	0
15.01.2021	11:55:48	0	57,209204	2,955852	1,62675	8,262	0,668	88,601	0	1015,32	7,7	9,5	9,3	1	1	1	1	1	1	1	1	1	0	1	-21,705426	274,955858	302,36169	0
15.01.2021	11:55:49	0	57,326462	4,206403	1,59225	12,4596	0,669	88,622	0	1015,38	7,7	9,5	9,3	1	1	1	1	1	1	1	1	1	0	1	-22,198732	275,093621	302,518351	0
15.01.2021	11:55:50	0	57,209255	2,95585	1,54425	8,262	0,669	88,61	0	1015,2	7,7	9,5	9,3	1	1	1	1	1	1	1	1	1	0	1	-22,269204	275,125068	302,596382	0
15.01.2021	11:55:51	0	57,560977	4,433775	1,52775	1,926	0,667	88,616	0	1015,26	7,7	9,5	9,3	1	1	1	1	1	1	1	1	1	0	1	-23,46723	275,046546	301,027643	0
15.01.2021	11:55:52	0	57,209306	4,206401	1,55925	11,1924	0,663	88,591	0	1015,2	7,7	9,5	9,3	1	1	1	1	1	1	1	1	1	0	1	-24,10148	274,958978	299,980346	0
15.01.2021	11:55:53	0	57,795493	4,774832	1,56825	12,1032	0,668	88,576	0	1015,22	7,7	9,5	9,3	1	1	1	1	1	1	1	1	1	0	1	-23,185342	275,09205	301,524323	0
15.01.2021	11:55:54	0	57,209357	2,842161	1,593	3,7728	0,668	88,598	0	1015,26	7,7	9,5	9,3	1	1	1	1	1	1	1	1	1	0	1	-25,72234	275,0685	298,87615	0
15.01.2021	11:55:55	0	57,209382	3,18322	1,59675	8,262	0,667	88,581	0	1015,28	7,6	9,5	9,3	1	1	1	1	1	1	1	1	1	0	1	-20,577872	274,954298	303,48189	0
15.01.2021	11:55:56	0	57,32664	4,547456	1,6545	2,6388	0,667	88,585	0	1015,28	7,7	9,5	9,3	1	1	1	1	1	1	1	1	1	0	1	-22,762509	275,070069	301,843387	0
15.01.2021	11:55:57	0	57,326665	4,320083	1,707	10,8108	0,671	88,585	0	1015,26	7,7	9,5	9,3	1	1	1	1	1	1	1	1	1	0	1	-20,5074	275,123494	304,350754	0
15.01.2021	11:55:58	0	57,678388	3,069532	1,6785	19,5336	0,665	88,584	0	1015,12	7,7	9,5	9,3	1	1	1	1	1	1	1	1	1	0	1	-27,061311	275,071638	297,551993	0
15.01.2021	11:55:59	0	57,209484	2,501099	1,66725	9,7452	0,667	88,577	0	1015,28	7,7	9,5	9,3	1	1	1	1	1	1	1	1	1	0	1	-22,48062	274,993332	301,763205	0
15.01.2021	11:56:00	0	57,795698	5,115883	1,67025	357,6996	0,671	88,577	0	1015,2	7,6	9,5	9,3	1	1	1	1	1	1	1	1	1	0	1	-22,692037	274,988644	301,529677	0
15.01.2021	11:56:01	0	57,795698	5,115883	1,67025	357,6996	0,671	88,577	0	1015,2	7,6	9,5	9,3	1	1	1	1	1	1	1	1	1	0	1	-22,692037	274,988644	301,529677	0
15.01.2021	11:56:02	0	57,444025	4,433764	1,7385	2,3076	0,67	88,593	0	1015,26	7,7	9,5	9,3	1	1	1	1	1	1	1	1	1	0	1	-19,379845	274,952738	304,672564	0
15.01.2021	11:56:03	0	57,912982	3,63796	1,88775	7,2072	0,667	88,576	0	1015,28	7,7	9,5	9,3	1	1	1	1	1	1	1	1	1	0	1	-22,339676	275,049681	302,169991	0
15.01.2021	11:56:04	0	57,444076	3,524273	1,92975	8,9784	0,672	88,599	0	1015,38	7,7	9,5	9,3	1	1	1	1	1	1	1	1	1	0	1	-19,520789	274,957418	304,553681	0
15.01.2021	11:56:05	0	57,678567	2,160038	1,956	2,6424	0,674	88,59	0	1015,36	7,7	9,5	9,3	1	1	1	1	1	1	1	1	1	0	1	-24,665257	275,00584	299,637563	0
15.01.2021	11:56:06	0	57,444127	4,206388	1,8765	358,038	0,67	88,58	0	1015,24	7,7	9,5	9,3	1	1	1	1	1	1	1	1	1	0	1	-21,353066	275,117201	303,475367	0
15.01.2021	11:56:07	0	57,913084	4,888504	1,71375	11,8152	0,676	88,573	0	1015,22	7,7	9,5	9,3	1	1	1	1	1	1	1	1	1	0	1	-25,299507	275,082626	299,365668	0
15.01.2021	11:56:08	0	57,326945	4,661131	1,701	3,0276	0,667	88,582	0	1015,26	7,7	9,5	9,3	1	1	1	1	1	1	1	1	1	0	1	-24,171952	275,118774	300,66391	0
15.01.2021	11:56:09	0	57,561436	4,774816	1,764	3,7548	0,672	88,58	0	1015,22	7,7	9,5	9,3	1	1	1	1	1	1	1	1	1	0	1	-22,903453	274,9465	301,11955	0
15.01.2021	11:56:10	0	57,561462	2,387407	1,674	358,5024	0,666	88,56	0	1015,16	7,7	9,5	9,3	1	1	1	1	1	1	1	1	1	0	1	-22,269204	275,010532	302,055751	0
15.01.2021	11:56:11	0	57,444254	4,661128	1,58475	1,5552	0,664	88,573	0	1015,18	7,6	9,5	9,3	1	1	1	1	1	1	1	1	1	0	1	-19,450317	274,938706	304,535945	0
15.01.2021	11:56:12	0	57,561513	2,84215	1,65	359,5392	0,667	88,57	0	1015,12	7,7	9,5	9,3	1	1	1	1	1	1	1	1	1	0	1	-24,242424	274,998022	300,023518	0
15.01.2021	11:56:13	0	57,209838	2,614778	1,79025	1,4976	0,668	88,58	0	1015,28	7,7	9,5	9,3	1	1	1	1	1	1	1	1	1	0	1	-18,25229	274,980833	305,932585	0
15.01.2021	11:56:14	0	57,327097	2,614777	1,91625	8,9928	0,673	88,583	0	1015,24	7,7	9,5	9,3	1	1	1	1	1	1	1	1	1	0	1	-18,745595	275,120347	306,097696	0
15.01.2021	11:56:15	0	57,561589	5,229553	2,04225	16,0884	0,67	88,574	0	1015,34	7,7	9,5	9,3	1	1	1	1	1	1	1	1	1	0	1	-21,705426	275,05752	302,841237	0
15.01.2021	11:56:16	0	57,327147	3,637971	2,07	12,852	0,667	88,575	0	1015,38	7,7	9,5	9,2	1	1	1	1	1	1	1	1	1	0	1	-22,903453	274,9465	301,11955	0
15.01.2021	11:56:17	0	57,56164	4,206378	2,00175	15,786	0,665	88,575	0	1015,12	7,7	9,5	9,3	1	1	1	1	1	1	1	1	1	0	1	-22,339676	275,076347	302,295854	0
15.01.2021	11:56:18	0	57,678899	4,320063	2,08125	353,2176	0,667	88,566	0	1015,24	7,7	9,5	9,3	1	1	1	1	1	1	1	1	1	0	1	-20,366455	275,114055	304,447121	0
15.01.2021	11:56:19	0	58,030625	4,547434	2,45025	8,3556	0,67	88,565	0	1015,34	7,7	9,5	9,3	1	1	1	1	1	1	1	1	1	0	1	-20,084567	274,979271	304,092944	0
15.01.2021	11:56:20	0	57,561716	2,842146	2,6415	2,628	0,674	88,572	0	1015,34	7,7	9,5	9,3	1	1	1	1	1	1	1	1	1	0	1	-20,366455	275,004276	303,928988	0
15.01.2021	11:56:21	0	57,444507	3,52426	2,628	20,61	0,673	88,555	0	1015,2	7,6	9,5	9,3	1	1	1	1	1	1	1	1	1	0	1	-19,027484	275,114055	305,786092	0
15.01.2021	11:56:22	0	57,679	2,501087	2,517	13,1616	0,672	88,556	0	1015,28	7,7	9,5	9,3	1	1	1	1	1	1	1	1	1	0	1	-19,87315	275,046546	304,621723	0
15.01.2021	11:56:23	0	57,444558	2,842144	2,53875	9,3852	0,668	88,559	0	1015,3	7,6	9,5	9,3	1	1	1	1	1	1	1	1	1	0	1	-19,732206	275,112483	305,073944	0
15.01.2021	11:56:24	0	57,913519	3,637943	2,88225	8,982	0,673	88,548	0	1015,28	7,6	9,5	9,3	1	1	1	1	1	1	1	1	1	0	1	-20,85976	275,070069	303,746136	0
15.01.2021	11:56:25	0	57,444608	4,206371	3,1455	18,4392	0,675	88,561	0	1015,44	7,7	9,5	9,3	1	1	1	1	1	1	1	1	1	0	1	-17,829457	274,990207	306,399626	0
15.01.2021	11:56:26	0	57,444634	3,865313	3,1155	15,3972	0,675	88,524	0	1015,28	7,6	9,5	9,3	1	1	1	1	1	1	1	1	1	0	1	-21,071177	274,934031	302,89305	0
15.01.2021	11:56:27	0	57,796361	4,433741	2,982	19,8576	0,673	88,532	0	1015,22	7,7	9,5	9,3	1	1	1	1	1	1	1	1	1	0	1	-19,309373	275,048113	305,192897	0
15.01.2021	11:56:28	0	57,679152	4,206368	2,787	24,3432	0,67	88,542	0	1015,18	7,7	9,5	9,3	1	1	1	1	1	1	1	1	1	0	1	-18,534179	275,106193	306,24227	0
15.01.2021	11:56:29	0	57,561943	4,888481	2,77575	17,2224	0,662	88,535	0	1015,14	7,6	9,5	9,3	1	1	1	1	1	1	1	1	1	0	1	-21,423538	275,071638	303,189766	0
15.01.2021	11:56:30	0	57,562775	4,092681	3,33225	17,226	0,665	88,54	0	1015,24	7,7	9,3	9,3	1	1	1	1	1	1	1	1	1	0	1	-16,560958	274,977709	307,609187	0
15.01.2021	11:56:31	0	57,44476	3,296881	3,8445	8,2476	0,665	88,533	0	1015,26	7,6	9,5	9,3	1	1	1	1	1	1	1	1	1	0	1	-24,242424	274,940265	299,751185	0
15.01.2021	11:56:32	0	57,327551	4,092679	3,924	3,0204	0,67	88,524	0	1015,24	7,6	9,5	9,3	1	1	1	1	1	1	1	1	1	0	1	-16,772375	275,037145	307,678135	0
15.01.2021	11:56:33	0	57,562044	4,320049	4,23975	6,426	0,673	88,513	0	1015,28	7,7	9,5	9,3	1	1	1	1	1	1	1	1	1	0	1	-21,49401	275,099906	303,25275	0
15.01.2021	11:56:34	0	57,796538	3,410565	4,43475	0	0,67	88,525	0	1015,18	7,6	9,5	9,3	1	1	1	1	1	1	1	1	1	0	1	-20,789288	275,074777	303,838832	0
15.01.2021	11:56:35	0	57,327626	2,728467	4,5555	2,7324	0,677	88,504	0	1015,34	7,6	9,5	9,2	1	1	1	1	1	1	1	1	1	0	1	-22,269204	275,088908	302,425628	0
15.01.2021	11:56:36	0	58,031058	4,774788	4,557	0,4896	0,673	88,499	0	1015,28	7,6	9,5	9,3	1	1	1	1	1	1	1	1	1	0	1	-20,789288	275,018356	303,572573	0
15.01.2021	11:56:37	0	57,327676	3,865304	4,57875	1,5552	0,675	88,498	0	1015,16	7,7	9,5	9,3	1	1	1	1	1	1	1	1	1	0	1	-15,715292	274,935589	308,256279	0
15.01.2021	11:56:38	0	57,679405	3,865303	4,58775	7,4952	0,67	88,485	0	1015,34	7,7	9,5	9,3	1	1	1	1	1	1	1	1	1	0	1	-21,49401	274,991769	302,742444	0
15.01.2021	11:56:39	0	57,444961	3,18319	4,494	7,1208	0,673	88,48	0	1015,28	7,6	9,5	9,3	1	1	1	1	1	1	1	1	1	0	1	-17,406624	275,063793	307,16965	0
15.01.2021	11:56:40	0	56,976047	2,387392	4,287	9,7596	0,675	88,479	0	1015,26	7,7	9,5	9,3	1	1	1	1	1	1	1	1	1	0	1	-19,450317	274,930915	304,499223	0
15.01.2021	11:56:41	0	57,445011	4,320042	3,87	12,0852	0,669	88,455	0	1015,28	7,7	9,5	9,3	1	1	1	1	1	1	1	1	1	0	1	-20,084567	274,994895	304,16663	0
15.01.2021	11:56:42	0	57,211368	2,728463	3,717	10,4292	0,673	88,464	0	1015,12	7,6	9,3	9,2	1	1	1	1	1	1	1	1	1	0	1	-21,564482	275,098334	303,174857	0
15.01.2021	11:56:43	0	57,210592	3,069502	3,735	12,1104	0,664	88,429	0	1015,14	7,6	9,5	9,3	1	1	1	1	1	1	1	1	1	0	1	-22,269204	275,040278	302,196091	0
15.01.2021	11:56:44	0	57,328655	2,955816	3,63525	7,5096	0,673	88,421	0	1015,14	7,7	9,3	9,3	1	1	1	1	1	1	1	1	1	0	1	-21,423538	275,073207	303,197174	0
15.01.2021	11:56:45	0	57,445111	4,092668	3,51	353,1996	0,676	88,436	0	1015,22	7,7	9,5	9,3	1	1	1	1	1	1	1	1	1	0	1	-17,336152	275,063793	307,240122	0
15.01.2021	11:56:46	0	57,445137	3,978982	3,22275	352,7064	0,673	88,439	0	1015,28	7,7	9,5	9,3	1	1	1	1	1	1	1	1	1	0	1	-20,014094	275,099906	304,732665	0
15.01.2021	11:56:47	0	57,327927	3,29687	3,036	353,5416	0,673	88,425	0	1015,24	7,6	9,5	9,3	1	1	1	1	1	1	1	1	1	0	1	-22,269204	275,054384	302,262659	0
15.01.2021	11:56:48	0	57,445187	4,433721	3,17325	13,1544	0,67	88,425	0	1015,22	7,7	9,5	9,3	1	1	1	1	1	1	1	1	1	0	1	-17,89993	274,926242	306,027585	0
15.01.2021	11:56:49	0	57,327977	4,092664	3,41175	6,8004	0,671	88,394	0	1015,28	7,6	9,5	9,3	1	1	1	1	1	1	1	1	1	0	1	-20,084567	275,035578	304,358552	0
15.01.2021	11:56:50	0	57,328002	2,273702	3,50025	8,5968	0,666	88,413	0	1015,24	7,6	9,5	9,3	1	1	1	1	1	1	1	1	1	0	1	-24,876674	274,927799	299,058182	0
15.01.2021	11:56:51	0	57,328026	3,75163	3,53175	35,4852	0,67	88,399	0	1015,02	7,6	9,5	9,2	1	1	1	1	1	1	1	1	1	0	1	-20,436927	275,05752	304,109736	0
15.01.2021	11:56:52	0	56,976346	2,614756	3,39525	27,9828	0,662	88,401	0	1015,32	7,7	9,5	9,3	1	1	1	1	1	1	1	1	1	0	1	-20,366455	275,085767	304,313547	0
15.01.2021	11:56:53	0	57,445312	4,661086	3,02775	37,6596	0,665	88,39	0	1015,2	7,6	9,5	9,3	1	1	1	1	1	1	1	1	1	0	1	-17,758985	274,930915	306,190554	0
15.01.2021	11:56:54	0	57,210866	3,63792	2,655	44,766	0,668	88,388	0	1015,28	7,7	9,5	9,3	1	1	1	1	1	1	1	1	1	0	1	-21,423538	274,9465	302,599466	0
15.01.2021	11:56:55	0	57,562597	4,661084	2,49375	27,7632	0,67	88,398	0	1015,08	7,7	9,5	9,3	1	1	1	1	1	1	1	1	1	0	1	-21,000705	274,935589	302,970867	0
15.01.2021	11:56:56	0	57,211717	3,296864	2,3745	45,522	0,666	88,393	0	1015,24	7,7	9,3	9,3	1	1	1	1	1	1	1	1	1	0	1	-20,5074	275,044979	303,980078	0
15.01.2021	11:56:57	0	56,976469	3,63794	2,169	16,488	0,672	88,401	0	1015,22	7,7	9,5	9,2	1	1	1	1	1	1	1	1	1	0	1	-20,718816	275,107765	304,065057	0
15.01.2021	11:56:58	0	57,09373	4,661081	2,151	11,7216	0,672	88,387	0	1015,06	7,7	9,5	9,3	1	1	1	1	1	1	1	1	1	0	1	-20,084567	274,974586	304,070852	0
15.01.2021	11:56:59	0	56,977317	4,320052	2,2875	46,2096	0,668	88,383	0	1015,3	7,6	9,3	9,2	1	1	1	1	1	1	1	1	1	0	1	-23,678647	275,09205	301,031018	0
15.01.2021	11:57:00	0	56,742097	3,410566	2,52	7,8732	0,661	88,372	0	1015,22	7,7	9,5	9,2	1	1	1	1	1	1	1	1	1	0	1	-20,084567	274,951178	303,96049	0
15.01.2021	11:57:01	0	56,742097	3,410566	2,52	7,8732	0,661	88,372	0	1015,22	7,7	9,5	9,2	1	1	1	1	1	1	1	1	1	0	1	-16,983791	274,90756	306,855687	0
15.01.2021	11:57:02	0	56,859357	3,410544	2,5785	16,1028	0,667	88,362	0	1015,32	7,7	9,5	9,3	1	1	1	1	1	1	1	1	1	0	1	-21,846371	275,027748	302,559802	0
15.01.2021	11:57:03	0	56,976618	4,433707	2,529	18,4392	0,663	88,373	0	1015,24	7,7	9,5	9,3	1	1	1	1	1	1	1	1	1	0	1	-19,661734	275,093621	305,055349	0
15.01.2021	11:57:04	0	56,976642	4,433732	2,48925	0,4788	0,67	88,379	0	1015,3	7,7	9,5	9,2	1	1	1	1	1	1	1	1	1	0	1	-21,987315	275,062225	302,581555	0
15.01.2021	11:57:05	0	56,742195	3,069488	2,48925	3,7836	0,666	88,367	0	1015,3	7,7	9,5	9,3	1	1	1	1	1	1	1	1	1	0	1	-15,574348	275,098334	309,164991	0
15.01.2021	11:57:06	0	57,211164	4,09265	2,49675	0,1044	0,672	88,367	0	1015,32	7,7	9,5	9,3	1	1	1	1	1	1	1	1	1	0	1	-17,89993	274,951178	306,145127	0
15.01.2021	11:57:07	0	56,625405	2,614748	2,53575	4,8492	0,668	88,337	0	1015,26	7,7	9,4	9,3	1	1	1	1	1	1	1	1	1	0	1	-20,295983	274,913785	303,572829	0
15.01.2021	11:57:08	0	57,329253	4,547414	2,51775	8,2692	0,664	88,355	0	1015,22	7,7	9,3	9,2	1	1	1	1	1	1	1	1	1	0	1	-20,930233	275,046546	303,564641	0
15.01.2021	11:57:09	0	56,625454	3,637931	2,4135	7,1388	0,668	88,346	0	1015,32	7,7	9,4	9,2	1	1	1	1	1	1	1	1	1	0	1	-22,832981	274,963659	301,270915	0
15.01.2021	11:57:10	0	56,977189	4,4337	2,48775	14,652	0,669	88,337	0	1015,24	7,7	9,4	9,3	1	1	1	1	1	1	1	1	1	0	1	-23,11487	275,084197	301,557719	0
15.01.2021	11:57:11	0	56,859579	3,751614	2,49375	12,0996	0,667	88,354	0	1015,36	7,7	9,5	9,2	1	1	1	1	1	1	1	1	1	0	1	-21,846371	274,965219	302,264884	0
15.01.2021	11:57:12	0	56,625527	2,728446	2,358	355,3992	0,664	88,333	0	1015,28	7,7	9,4	9,2	1	1	1	1	1	1	1	1	1	0	1	-17,829457	274,929357	306,11274	0
15.01.2021	11:57:13	0	57,0945	4,547409	2,244	353,9592	0,663	88,339	0	1015,26	7,7	9,4	9,2	1	1	1	1	1	1	1	1	1	0	1	-23,396758	275,018356	300,965103	0
15.01.2021	11:57:14	0	57,094125	4,206353	2,17875	359,496	0,668	88,343	0	1015,28	7,7	9,5	9,2	1	1	1	1	1	1	1	1	1	0	1	-17,26568	274,920012	306,632478	0
15.01.2021	11:57:15	0	56,859677	3,183185	2,1855	350,8524	0,66	88,322	0	1015,14	7,7	9,5	9,2	1	1	1	1	1	1	1	1	1	0	1	-17,970402	275,037145	306,480108	0
15.01.2021	11:57:16	0	56,977337	4,092666	2,20575	355,0356	0,664	88,342	0	1015,18	7,7	9,4	9,2	1	1	1	1	1	1	1	1	1	0	1	-19,591261	274,952738	304,461147	0
15.01.2021	11:57:17	0	57,094599	4,433694	2,2125	357,3504	0,665	88,331	0	1015,18	7,7	9,4	9,3	1	1	1	1	1	1	1	1	1	0	1	-21,916843	274,927799	302,018013	0
15.01.2021	11:57:18	0	56,977386	3,524239	2,2215	354,2364	0,661	88,346	0	1015,34	7,7	9,4	9,2	1	1	1	1	1	1	1	1	1	0	1	-22,621564	275,018356	301,740297	0
15.01.2021	11:57:19	0	57,094648	4,092663	2,12925	353,1996	0,663	88,341	0	1015,22	7,7	9,4	9,2	1	1	1	1	1	1	1	1	1	0	1	-20,295983	274,918455	303,594837	0
15.01.2021	11:57:20	0	57,21151	4,092662	1,992	352,3896	0,66	88,341	0	1015,2	7,7	9,5	9,2	1	1	1	1	1	1	1	1	1	0	1	-18,957012	275,090479	305,745236	0
15.01.2021	11:57:21	0	57,094297	4,547402	1,8825	349,4088	0,664	88,344	0	1015,24	7,7	9,5	9,2	1	1	1	1	1	1	1	1	1	0	1	-20,718816	274,991769	303,517638	0
15.01.2021	11:57:22	0	57,094722	4,661086	1,94625	5,202	0,664	88,342	0	1015,22	7,7	9,4	9,2	1	1	1	1	1	1	1	1	1	0	1	-18,745595	274,921569	305,1599	0
15.01.2021	11:57:23	0	56,743034	3,296865	1,998	12,4632	0,662	88,341	0	1015,22	7,7	9,4	9,2	1	1	1	1	1	1	1	1	1	0	1	-18,745595	274,983957	305,454013	0
15.01.2021	11:57:24	0	56,860296	2,728423	2,1	9,3528	0,667	88,386	0	1015,5	7,7	9,4	9,3	1	1	1	1	1	1	1	1	1	0	1	-20,930233	275,084197	303,742356	0
15.01.2021	11:57:25	0	57,212033	5,229508	2,29725	13,9068	0,661	88,343	0	1015,26	7,7	9,4	9,2	1	1	1	1	1	1	1	1	1	0	1	-17,970402	275,063793	306,605872	0
15.01.2021	11:57:26	0	56,977183	4,774738	2,60475	7,8696	0,663	88,35	0	1015,24	7,7	9,5	9,3	1	1	1	1	1	1	1	1	1	0	1	-18,181818	274,965219	305,929436	0
15.01.2021	11:57:27	0	56,977607	4,661081	2,84025	12,4704	0,665	88,352	0	1015,26	7,7	9,4	9,2	1	1	1	1	1	1	1	1	1	0	1	-23,960536	275,09205	300,749129	0
15.01.2021	11:57:28	0	57,212107	5,002135	2,8905	16,4772	0,663	88,35	0	1015,26	7,7	9,4	9,2	1	1	1	1	1	1	1	1	1	0	1	-19,027484	274,993332	305,216341	0
15.01.2021	11:57:29	0	57,094894	5,002134	2,78625	12,0924	0,664	88,354	0	1015,28	7,7	9,4	9,2	1	1	1	1	1	1	1	1	1	0	1	-18,25229	274,912229	305,609187	0
15.01.2021	11:57:30	0	57,446632	3,183175	2,55675	0,8712	0,663	88,348	0	1015,34	7,7	9,4	9,2	1	1	1	1	1	1	1	1	1	0	1	-18,111346	274,957418	305,963124	0
15.01.2021	11:57:31	0	57,094943	3,637914	2,7195	23,9724	0,664	88,359	0	1015,3	7,7	9,4	9,2	1	1	1	1	1	1	1	1	1	0	1	-19,87315	275,015226	304,473946	0
15.01.2021	11:57:32	0	57,094967	4,547364	2,7735	19,512	0,656	88,356	0	1015,28	7,7	9,4	9,3	1	1	1	1	1	1	1	1	1	0	1	-24,031008	275,087337	300,656409	0
15.01.2021	11:57:33	0	57,094992	2,50105	2,946	21,006	0,666	88,367	0	1015,3	7,7	9,4	9,3	1	1	1	1	1	1	1	1	1	0	1	-19,591261	274,944941	304,424392	0
15.01.2021	11:57:34	0	57,095016	2,501064	3,33075	26,4996	0,657	88,354	0	1015,26	7,7	9,4	9,2	1	1	1	1	1	1	1	1	1	0	1	-17,89993	274,909116	305,946881	0
15.01.2021	11:57:35	0	57,329517	4,206334	3,5655	23,58	0,662	88,352	0	1015,08	7,7	9,4	9,2	1	1	1	1	1	1	1	1	1	0	1	-24,242424	275,048113	300,259845	0
15.01.2021	11:57:36	0	57,212303	2,501048	3,65025	31,7736	0,665	88,363	0	1015,3	7,7	9,4	9,3	1	1	1	1	1	1	1	1	1	0	1	-22,198732	274,938706	301,787531	0
15.01.2021	11:57:37	0	58,032997	5,002095	3,54225	24,3396	0,66	88,349	0	1015,1	7,7	9,4	9,3	1	1	1	1	1	1	1	1	1	0	1	-19,802678	275,060656	304,758789	0
15.01.2021	11:57:38	0	57,329591	3,410539	3,207	9,7344	0,664	88,357	0	1015,28	7,7	9,4	9,2	1	1	1	1	1	1	1	1	1	0	1	-27,625088	275,038711	296,832814	0
15.01.2021	11:57:39	0	57,564092	4,433674	3,05175	17,6904	0,657	88,348	0	1015,28	7,7	9,4	9,3	1	1	1	1	1	1	1	1	1	0	1	-19,802678	275,085767	304,877324	0
15.01.2021	11:57:40	0	57,564117	3,069484	3,21825	29,952	0,66	88,357	0	1015,22	7,7	9,4	9,2	1	1	1	1	1	1	1	1	1	0	1	-20,225511	275,090479	304,476737	0
15.01.2021	11:57:41	0	57,446903	2,387362	3,372	24,7176	0,665	88,343	0	1015,22	7,7	9,4	9,3	1	1	1	1	1	1	1	1	1	0	1	-18,88654	274,955858	305,180576	0
15.01.2021	11:57:42	0	57,446927	4,319987	3,53175	26,1576	0,658	88,326	0	1015,26	7,7	9,4	9,3	1	1	1	1	1	1	1	1	1	0	1	-20,5074	275,081056	304,150363	0
15.01.2021	11:57:43	0	57,681429	5,115742	3,573	22,8204	0,656	88,328	0	1015,12	7,7	9,4	9,4	1	1	1	1	1	1	1	1	1	0	1	-20,789288	275,055952	303,749975	0
15.01.2021	11:57:44	0	57,446976	3,069482	3,49875	14,2848	0,663	88,334	0	1015,28	7,7	9,4	9,2	1	1	1	1	1	1	1	1	1	0	1	-21,49401	274,982395	302,698232	0
15.01.2021	11:57:45	0	58,150434	3,069463	3,4275	28,7064	0,661	88,329	0	1015,34	7,7	9,4	9,3	1	1	1	1	1	1	1	1	1	0	1	-20,85976	274,923127	303,053074	0
15.01.2021	11:57:46	0	57,681503	2,842094	3,2265	22,8276	0,66	88,308	0	1015,2	7,7	9,4	9,3	1	1	1	1	1	1	1	1	1	0	1	-22,339676	275,074777	302,288444	0
15.01.2021	11:57:47	0	57,681528	3,410533	3,15975	0,0648	0,665	88,303	0	1015,3	7,7	9,4	9,2	1	1	1	1	1	1	1	1	1	0	1	-21,141649	274,909116	302,705162	0
15.01.2021	11:57:48	0	58,502225	3,751585	3,0165	353,5668	0,66	88,301	0	1015,18	7,7	9,4	9,2	1	1	1	1	1	1	1	1	1	0	1	-24,031008	275,035578	300,412111	0
15.01.2021	11:57:49	0	57,798816	3,183144	2,82	5,2056	0,661	88,321	0	1015,24	7,7	9,4	9,3	1	1	1	1	1	1	1	1	1	0	1	-19,168428	274,926242	304,759086	0
15.01.2021	11:57:50	0	58,385036	4,433663	2,73675	357,6744	0,663	88,313	0	1015,28	7,7	9,4	9,3	1	1	1	1	1	1	1	1	1	0	1	-18,040874	274,999585	306,232443	0
15.01.2021	11:57:51	0	58,150582	4,206295	2,7225	3,7512	0,657	88,303	0	1015,26	7,7	9,4	9,3	1	1	1	1	1	1	1	1	1	0	1	-20,930233	275,101478	303,823948	0
15.01.2021	11:57:52	0	57,916129	3,069458	2,41725	14,3064	0,658	88,309	0	1015,36	7,7	9,4	9,3	1	1	1	1	1	1	1	1	1	0	1	-22,762509	275,059088	301,791556	0
15.01.2021	11:57:53	0	58,150632	2,614723	2,19675	10,044	0,659	88,313	0	1015,34	7,7	9,4	9,3	1	1	1	1	1	1	1	1	1	0	1	-19,097956	274,916899	304,785527	0
15.01.2021	11:57:54	0	58,267896	3,524212	2,16375	13,5324	0,661	88,315	0	1015,4	7,7	9,4	9,2	1	1	1	1	1	1	1	1	1	0	1	-22,832981	275,021486	301,543648	0
15.01.2021	11:57:55	0	58,502399	4,547342	2,05125	21,3768	0,657	88,306	0	1015,32	7,7	9,4	9,3	1	1	1	1	1	1	1	1	1	0	1	-22,551092	275,081056	302,10667	0
15.01.2021	11:57:56	0	58,736903	4,774709	1,97025	8,262	0,66	88,312	0	1015,32	7,7	9,4	9,3	1	1	1	1	1	1	1	1	1	0	1	-20,366455	275,026182	304,03233	0
15.01.2021	11:57:57	0	58,502449	4,20629	1,992	11,718	0,66	88,315	0	1015,36	7,7	9,4	9,3	1	1	1	1	1	1	1	1	1	0	1	-19,097956	274,910672	304,756188	0
15.01.2021	11:57:58	0	58,502474	3,296821	2,205	8,982	0,662	88,306	0	1015,22	7,7	9,4	9,3	1	1	1	1	1	1	1	1	1	0	1	-23,678647	274,974586	300,476772	0
15.01.2021	11:57:59	0	58,502499	2,95577	2,511	4,0716	0,666	88,329	0	1015,28	7,7	9,4	9,3	1	1	1	1	1	1	1	1	1	0	1	-22,057787	275,060656	302,50368	0
15.01.2021	11:58:00	0	58,619788	2,842086	3,37275	11,196	0,665	88,329	0	1015,32	7,7	9,4	9,3	1	1	1	1	1	1	1	1	1	0	1	-21,634954	274,920012	302,263204	0
15.01.2021	11:58:01	0	58,619788	2,842086	3,37275	11,196	0,665	88,329	0	1015,32	7,7	9,4	9,3	1	1	1	1	1	1	1	1	1	0	1	-19,379845	274,999585	304,893472	0
15.01.2021	11:58:02	0	58,737052	2,387351	3,48825	16,0992	0,659	88,332	0	1015,36	7,7	9,4	9,3	1	1	1	1	1	1	1	1	1	0	1	-23,326286	274,913785	300,542526	0
15.01.2021	11:58:03	0	59,088796	2,501034	3,51075	12,078	0,662	88,33	0	1015,12	7,7	9,4	9,3	1	1	1	1	1	1	1	1	1	0	1	-23,678647	275,012097	300,653688	0
15.01.2021	11:58:04	0	59,088821	2,614717	3,5565	12,4524	0,66	88,336	0	1015,38	7,7	9,4	9,3	1	1	1	1	1	1	1	1	1	0	1	-22,832981	275,076347	301,802549	0
15.01.2021	11:58:05	0	59,32291	2,955767	3,52425	8,6004	0,662	88,362	0	1015,3	7,7	9,5	9,3	1	1	1	1	1	1	1	1	1	0	1	-25,08809	274,943382	298,920215	0
15.01.2021	11:58:06	0	59,206111	3,978916	3,3855	15,4008	0,663	88,343	0	1015,4	7,7	9,4	9,3	1	1	1	1	1	1	1	1	1	0	1	-20,295983	274,940265	303,697626	0
15.01.2021	11:58:07	0	60,026815	5,002064	3,4035	15,7824	0,662	88,328	0	1015,24	7,7	9,4	9,3	1	1	1	1	1	1	1	1	1	0	1	-20,85976	275,027748	303,546412	0
15.01.2021	11:58:08	0	59,323401	5,343145	3,37575	6,0588	0,661	88,356	0	1015,3	7,7	9,4	9,2	1	1	1	1	1	1	1	1	1	0	1	-21,282593	274,920012	302,615564	0
15.01.2021	11:58:09	0	59,557906	2,842081	3,5055	8,6004	0,664	88,342	0	1015,3	7,7	9,4	9,3	1	1	1	1	1	1	1	1	1	0	1	-20,5074	274,983957	303,692209	0
15.01.2021	11:58:10	0	59,792411	5,229428	3,993	13,5576	0,662	88,35	0	1015,2	7,7	9,4	9,3	1	1	1	1	1	1	1	1	1	0	1	-20,084567	274,906004	303,74758	0
15.01.2021	11:58:11	0	59,675196	4,319961	3,76725	18,0756	0,658	88,351	0	1015,3	7,7	9,4	9,3	1	1	1	1	1	1	1	1	1	0	1	-28,823115	275,034012	295,612613	0
15.01.2021	11:58:12	0	59,557982	2,046297	3,85875	13,1544	0,663	88,372	0	1015,3	7,7	9,4	9,3	1	1	1	1	1	1	1	1	1	0	1	-19,87315	274,916899	304,010334	0
15.01.2021	11:58:13	0	60,144208	4,433643	3,96075	14,7456	0,655	88,363	0	1015,3	7,7	9,4	9,3	1	1	1	1	1	1	1	1	1	0	1	-25,440451	274,976147	298,722331	0
15.01.2021	11:58:14	0	59,909333	2,728395	4,01475	9,7452	0,665	88,369	0	1015,28	7,7	9,5	9,3	1	1	1	1	1	1	1	1	1	0	1	-26,0747	274,893561	297,698818	0
15.01.2021	11:58:15	0	60,144258	4,092591	3,8415	14,634	0,661	88,365	0	1015,34	7,7	9,4	9,3	1	1	1	1	1	1	1	1	1	0	1	-22,410148	275,023051	301,973866	0
15.01.2021	11:58:16	0	60,261102	5,002055	3,62925	25,038	0,662	88,375	0	1015,28	7,7	9,5	9,3	1	1	1	1	1	1	1	1	1	0	1	-24,453841	275,008968	299,863735	0
15.01.2021	11:58:17	0	60,37879	2,728393	3,3885	21,7584	0,681	88,361	0	1015,32	7,7	9,4	9,3	1	1	1	1	1	1	1	1	1	0	1	-21,846371	275,055952	302,692892	0
15.01.2021	11:58:18	0	60,261575	3,296808	3,324	15,4152	0,658	88,367	0	1015,24	7,7	9,4	9,3	1	1	1	1	1	1	1	1	1	0	1	-26,004228	274,940265	297,989381	0
15.01.2021	11:58:19	0	60,14436	3,637856	3,3075	13,914	0,665	88,352	0	1015,16	7,7	9,4	9,3	1	1	1	1	1	1	1	1	1	0	1	-23,185342	274,898226	300,610157	0
15.01.2021	11:58:20	0	60,613347	4,547319	3,35325	17,2368	0,657	88,35	0	1015,2	7,7	9,4	9,3	1	1	1	1	1	1	1	1	1	0	1	-23,396758	275,010532	300,928197	0
15.01.2021	11:58:21	0	60,14441	3,183123	3,2865	18,4536	0,663	88,336	0	1015,18	7,7	9,4	9,3	1	1	1	1	1	1	1	1	1	0	1	-22,339676	274,899781	301,463151	0
15.01.2021	11:58:22	0	60,96512	4,547317	3,23625	16,1064	0,662	88,331	0	1015,24	7,7	9,4	9,3	1	1	1	1	1	1	1	1	1	0	1	-22,551092	275,013661	301,788623	0
15.01.2021	11:58:23	0	60,496183	3,296804	3,3975	12,4776	0,663	88,3	0	1015,18	7,7	9,4	9,3	1	1	1	1	1	1	1	1	1	0	1	-20,014094	275,063793	304,56218	0
15.01.2021	11:58:24	0	60,847504	4,888364	3,55275	13,1616	0,663	88,3	0	1015,3	7,7	9,5	9,3	1	1	1	1	1	1	1	1	1	0	1	-25,369979	275,034012	299,065749	0
15.01.2021	11:58:25	0	60,37857	2,955754	3,45975	6,4404	0,664	88,284	0	1015,06	7,7	9,5	9,3	1	1	1	1	1	1	1	1	1	0	1	-23,608175	275,048113	300,894095	0
15.01.2021	11:58:26	0	61,199704	4,433631	3,4095	358,6788	0,659	88,255	0	1015,34	7,7	9,4	9,3	1	1	1	1	1	1	1	1	1	0	1	-23,537703	275,00584	300,765117	0
15.01.2021	11:58:27	0	60,730766	3,751533	3,489	6,0588	0,661	88,27	0	1015,26	7,7	9,4	9,3	1	1	1	1	1	1	1	1	1	0	1	-21,212121	274,896671	302,57605	0
15.01.2021	11:58:28	0	60,847607	4,433629	3,6075	360	0,659	88,245	0	1015,3	7,7	9,5	9,3	1	1	1	1	1	1	1	1	1	0	1	-24,312896	275,034012	300,122831	0
15.01.2021	11:58:29	0	60,730817	3,524166	3,4905	7,1208	0,655	88,229	0	1015,3	7,7	9,4	9,3	1	1	1	1	1	1	1	1	1	0	1	-22,48062	275,051248	302,036445	0
15.01.2021	11:58:30	0	60,848084	3,069434	3,42525	14,6376	0,659	88,245	0	1015,3	7,7	9,4	9,3	1	1	1	1	1	1	1	1	1	0	1	-22,621564	274,924684	301,29861	0
15.01.2021	11:58:31	0	60,848109	3,296799	3,396	11,1852	0,658	88,239	0	1015,2	7,7	9,4	9,3	1	1	1	1	1	1	1	1	1	0	1	-19,379845	275,008968	304,937731	0
15.01.2021	11:58:32	0	61,082617	4,774674	3,4155	4,0788	0,657	88,224	0	1015,26	7,7	9,4	9,3	1	1	1	1	1	1	1	1	1	0	1	-22,269204	274,895116	301,511641	0
15.01.2021	11:58:33	0	61,082215	4,433625	3,501	9,3672	0,656	88,225	0	1015,3	7,6	9,5	9,3	1	1	1	1	1	1	1	1	1	0	1	-21,141649	275,001149	303,139042	0
15.01.2021	11:58:34	0	60,848186	3,069432	3,49275	17,6904	0,658	88,235	0	1015,34	7,7	9,4	9,3	1	1	1	1	1	1	1	1	1	0	1	-22,903453	274,895116	300,877392	0
15.01.2021	11:58:35	0	60,730545	3,751527	3,402	6,0624	0,654	88,223	0	1015,38	7,6	9,5	9,3	1	1	1	1	1	1	1	1	1	0	1	-20,5074	274,976147	303,655382	0
15.01.2021	11:58:36	0	60,847811	2,6147	3,25575	12,8448	0,658	88,228	0	1015,2	7,6	9,5	9,3	1	1	1	1	1	1	1	1	1	0	1	-21,846371	274,892006	301,919823	0
15.01.2021	11:58:37	0	61,316798	3,751525	3,117	15,408	0,659	88,221	0	1015,12	7,7	9,5	9,3	1	1	1	1	1	1	1	1	1	0	1	-23,396758	275,043412	301,083324	0
15.01.2021	11:58:38	0	60,965102	4,774668	2,874	4,0824	0,656	88,211	0	1015,16	7,7	9,5	9,3	1	1	1	1	1	1	1	1	1	0	1	-23,819591	275,001149	300,4611	0
15.01.2021	11:58:39	0	61,082368	2,955746	2,76825	7,524	0,657	88,227	0	1015,26	7,7	9,5	9,3	1	1	1	1	1	1	1	1	1	0	1	-19,802678	275,0685	304,795812	0
15.01.2021	11:58:40	0	60,965153	3,183111	2,82225	1,1808	0,656	88,227	0	1015,4	7,7	9,5	9,3	1	1	1	1	1	1	1	1	1	0	1	-19,591261	275,008968	304,726314	0
15.01.2021	11:58:41	0	61,082419	4,09257	2,76375	4,086	0,659	88,235	0	1015,32	7,7	9,5	9,3	1	1	1	1	1	1	1	1	1	0	1	-22,410148	275,05752	302,136516	0
15.01.2021	11:58:42	0	61,199685	4,092569	2,73225	6,4332	0,658	88,227	0	1015,34	7,7	9,5	9,3	1	1	1	1	1	1	1	1	1	0	1	-22,903453	274,937147	301,075463	0
15.01.2021	11:58:43	0	60,847989	2,273649	2,6595	10,0656	0,658	88,231	0	1015,24	7,7	9,5	9,3	1	1	1	1	1	1	1	1	1	0	1	-19,097956	275,051248	305,419108	0
15.01.2021	11:58:44	0	61,199737	4,20625	2,61525	11,7072	0,655	88,21	0	1015,24	7,7	9,5	9,3	1	1	1	1	1	1	1	1	1	0	1	-20,436927	275,0685	304,161562	0
15.01.2021	11:58:45	0	61,082521	4,433614	2,61675	3,0312	0,651	88,223	0	1015,24	7,6	9,5	9,3	1	1	1	1	1	1	1	1	1	0	1	-25,229035	274,929357	298,713163	0
15.01.2021	11:58:46	0	60,965306	2,84206	2,76975	11,196	0,658	88,228	0	1015,32	7,7	9,5	9,3	1	1	1	1	1	1	1	1	1	0	1	-21,071177	274,910672	302,782967	0
15.01.2021	11:58:47	0	61,082572	4,888341	2,8515	360	0,657	88,233	0	1015,14	7,7	9,5	9,3	1	1	1	1	1	1	1	1	1	0	1	-21,212121	275,05752	303,334542	0
15.01.2021	11:58:48	0	61,199839	3,865199	3,10125	9,378	0,656	88,229	0	1015,26	7,7	9,5	9,3	1	1	1	1	1	1	1	1	1	0	1	-23,537703	275,060656	301,023765	0
15.01.2021	11:58:49	0	61,199864	4,660975	3,222	16,8552	0,656	88,224	0	1015,24	7,6	9,5	9,3	1	1	1	1	1	1	1	1	1	0	1	-24,10148	275,021486	300,275149	0
15.01.2021	11:58:50	0	60,965407	2,842057	3,10725	15,4008	0,649	88,214	0	1015,16	7,6	9,5	9,3	1	1	1	1	1	1	1	1	1	0	1	-23,819591	274,916899	300,063892	0
15.01.2021	11:58:51	0	60,848191	3,52415	3,1095	10,8072	0,653	88,249	0	1015,26	7,7	9,5	9,3	1	1	1	1	1	1	1	1	1	0	1	-19,802678	275,052816	304,721785	0
15.01.2021	11:58:52	0	61,19994	4,319925	3,204	16,8372	0,65	88,234	0	1015,34	7,7	9,5	9,3	1	1	1	1	1	1	1	1	1	0	1	-22,339676	275,038711	302,118226	0
15.01.2021	11:58:53	0	60,848242	2,728373	3,168	12,096	0,653	88,242	0	1015,26	7,7	9,5	9,3	1	1	1	1	1	1	1	1	1	0	1	-23,749119	275,081056	300,908644	0
15.01.2021	11:58:54	0	60,965509	4,433606	3,255	8,9892	0,653	88,235	0	1015,28	7,6	9,5	9,3	1	1	1	1	1	1	1	1	1	0	1	-22,832981	275,002712	301,455086	0
15.01.2021	11:58:55	0	60,731051	3,524147	3,429	8,622	0,652	88,236	0	1015,3	7,7	9,5	9,3	1	1	1	1	1	1	1	1	1	0	1	-23,396758	274,898226	300,398741	0
15.01.2021	11:58:56	0	61,082801	4,433604	3,57975	4,4604	0,656	88,249	0	1015,32	7,7	9,5	9,3	1	1	1	1	1	1	1	1	1	0	1	-22,551092	274,991769	301,685361	0
15.01.2021	11:58:57	0	60,496619	2,273643	3,52875	6,4404	0,659	88,252	0	1015,3	7,7	9,5	9,3	1	1	1	1	1	1	1	1	1	0	1	-27,131783	275,063793	297,444491	0
15.01.2021	11:58:58	0	60,496644	2,501006	3,2895	14,2956	0,651	88,249	0	1015,36	7,6	9,5	9,3	1	1	1	1	1	1	1	1	1	0	1	-24,10148	275,015226	300,245617	0
15.01.2021	11:58:59	0	60,731152	3,751509	3,03675	16,4844	0,65	88,248	0	1015,38	7,7	9,5	9,3	1	1	1	1	1	1	1	1	1	0	1	-20,366455	275,076347	304,269074	0
15.01.2021	11:59:00	0	60,496719	2,614687	2,574	2,6496	0,652	88,228	0	1015,22	7,6	9,5	9,3	1	1	1	1	1	1	1	1	1	0	1	-24,594785	275,027748	299,811387	0
15.01.2021	11:59:01	0	60,496719	2,614687	2,574	2,6496	0,652	88,228	0	1015,22	7,6	9,5	9,3	1	1	1	1	1	1	1	1	1	0	1	-22,903453	274,904448	300,921363	0
15.01.2021	11:59:02	0	60,379502	2,27364	2,45475	12,8448	0,655	88,257	0	1015,38	7,6	9,5	9,3	1	1	1	1	1	1	1	1	1	0	1	-27,061311	275,018356	297,30055	0
15.01.2021	11:59:03	0	60,965736	4,54728	2,535	7,5024	0,647	88,227	0	1015,2	7,7	9,5	9,3	1	1	1	1	1	1	1	1	1	0	1	-26,920366	275,023051	297,463647	0
15.01.2021	11:59:04	0	60,496794	4,433597	2,71425	12,0888	0,651	88,237	0	1015,26	7,7	9,5	9,3	1	1	1	1	1	1	1	1	1	0	1	-24,876674	274,881125	298,838263	0
15.01.2021	11:59:05	0	60,614061	3,637822	2,67375	15,7752	0,65	88,226	0	1015,22	7,6	9,5	9,3	1	1	1	1	1	1	1	1	1	0	1	-26,145173	274,918455	297,745648	0
15.01.2021	11:59:06	0	60,26236	4,547277	2,6115	8,2584	0,65	88,23	0	1015,28	7,6	9,5	9,3	1	1	1	1	1	1	1	1	1	0	1	-20,718816	275,041845	303,753872	0
15.01.2021	11:59:07	0	60,379627	4,319912	2,46	0,8676	0,648	88,236	0	1015,22	7,7	9,5	9,3	1	1	1	1	1	1	1	1	1	0	1	-23,46723	274,952738	300,585178	0
15.01.2021	11:59:08	0	60,496894	4,888321	2,4705	8,6256	0,652	88,229	0	1015,22	7,6	9,5	9,3	1	1	1	1	1	1	1	1	1	0	1	-26,497533	274,965219	297,613721	0
15.01.2021	11:59:09	0	60,496919	3,751501	2,59125	19,5192	0,651	88,2	0	1015,28	7,6	9,5	9,3	1	1	1	1	1	1	1	1	1	0	1	-26,145173	274,915342	297,730975	0
15.01.2021	11:59:10	0	60,145218	4,31991	2,55675	21,3768	0,648	88,223	0	1015,38	7,6	9,5	9,3	1	1	1	1	1	1	1	1	1	0	1	-25,369979	275,013661	298,969736	0
15.01.2021	11:59:11	0	60,262485	4,433591	2,57025	6,426	0,654	88,229	0	1015,36	7,6	9,5	9,3	1	1	1	1	1	1	1	1	1	0	1	-27,413672	275,060656	297,147796	0
15.01.2021	11:59:12	0	60,145267	4,547271	2,61975	8,6148	0,647	88,235	0	1015,22	7,7	9,5	9,3	1	1	1	1	1	1	1	1	1	0	1	-25,651868	274,999585	298,621449	0
15.01.2021	11:59:13	0	59,910808	3,86518	2,7285	9,7596	0,654	88,236	0	1015,26	7,6	9,5	9,3	1	1	1	1	1	1	1	1	1	0	1	-23,255814	274,899781	300,547013	0
15.01.2021	11:59:14	0	59,910832	3,183089	2,8365	8,2548	0,652	88,217	0	1015,34	7,6	9,5	9,3	1	1	1	1	1	1	1	1	1	0	1	-23,326286	275,027748	301,079886	0
15.01.2021	11:59:15	0	59,793615	4,092542	2,9355	2,2968	0,653	88,234	0	1015,28	7,6	9,5	9,3	1	1	1	1	1	1	1	1	1	0	1	-21,212121	275,0685	303,386368	0
15.01.2021	11:59:16	0	59,910882	3,751496	2,97525	0,1224	0,65	88,237	0	1015,32	7,7	9,5	9,3	1	1	1	1	1	1	1	1	1	0	1	-21,000705	274,980833	303,184171	0
15.01.2021	11:59:17	0	60,028149	3,978859	2,95425	3,3948	0,653	88,241	0	1015,22	7,6	9,5	9,3	1	1	1	1	1	1	1	1	1	0	1	-26,990839	275,041845	297,48185	0
15.01.2021	11:59:18	0	59,560038	4,660948	2,8425	7,8804	0,652	88,25	0	1015,44	7,6	9,3	9,3	1	1	1	1	1	1	1	1	1	0	1	-23,396758	274,906004	300,435388	0
15.01.2021	11:59:19	0	59,560062	3,183086	2,68275	7,5132	0,653	88,236	0	1015,28	7,6	9,3	9,3	1	1	1	1	1	1	1	1	1	0	1	-24,665257	275,038711	299,792645	0
15.01.2021	11:59:20	0	59,559252	5,229354	2,772	4,0752	0,646	88,238	0	1015,26	7,6	9,5	9,3	1	1	1	1	1	1	1	1	1	0	1	-21,49401	274,888896	302,257535	0
15.01.2021	11:59:21	0	59,911005	3,183103	2,96475	5,2128	0,652	88,235	0	1015,12	7,6	9,5	9,2	1	1	1	1	1	1	1	1	1	0	1	-23,396758	274,906004	300,435388	0
15.01.2021	11:59:22	0	59,442059	3,751514	3,093	360	0,657	88,253	0	1015,3	7,6	9,5	9,2	1	1	1	1	1	1	1	1	1	0	1	-21,49401	275,049681	303,015657	0
15.01.2021	11:59:23	0	59,559326	4,547262	3,09075	360	0,652	88,237	0	1015,2	7,6	9,5	9,3	1	1	1	1	1	1	1	1	1	0	1	-30,162086	275,120347	294,681206	0
15.01.2021	11:59:24	0	59,207622	1,932586	3,15825	6,0804	0,652	88,249	0	1015,2	7,6	9,5	9,3	1	1	1	1	1	1	1	1	1	0	1	-27,554616	274,954298	296,505146	0
15.01.2021	11:59:25	0	59,32572	3,410445	3,38925	6,1272	0,65	88,245	0	1015,12	7,6	9,3	9,3	1	1	1	1	1	1	1	1	1	0	1	-25,369979	275,0685	299,228511	0
15.01.2021	11:59:26	0	59,207671	2,387311	3,5295	8,5932	0,655	88,255	0	1015,26	7,6	9,5	9,3	1	1	1	1	1	1	1	1	1	0	1	-23,960536	274,955858	300,10658	0
15.01.2021	11:59:27	0	59,09128	2,728355	3,45375	4,842	0,648	88,255	0	1015,14	7,6	9,3	9,3	1	1	1	1	1	1	1	1	1	0	1	-24,594785	275,076347	300,040745	0
15.01.2021	11:59:28	0	59,324962	4,888331	3,51	0,486	0,654	88,258	0	1015,32	7,6	9,5	9,2	1	1	1	1	1	1	1	1	1	0	1	-22,128259	275,037145	302,322251	0
15.01.2021	11:59:29	0	59,677552	4,660965	3,672	0,4752	0,65	88,265	0	1015,16	7,6	9,3	9,2	1	1	1	1	1	1	1	1	1	0	1	-27,836505	275,038711	296,621397	0
15.01.2021	11:59:30	0	59,091352	4,660937	3,56925	0,1224	0,655	88,261	0	1015,3	7,6	9,3	9,3	1	1	1	1	1	1	1	1	1	0	1	-27,343199	275,002712	296,944867	0
15.01.2021	11:59:31	0	58,856062	2,728353	3,40125	5,2164	0,651	88,257	0	1015,32	7,6	9,5	9,3	1	1	1	1	1	1	1	1	1	0	1	-26,70895	274,90756	297,130528	0
15.01.2021	11:59:32	0	59,442303	4,888297	3,18225	21,0096	0,653	88,271	0	1015,2	7,6	9,5	9,3	1	1	1	1	1	1	1	1	1	0	1	-24,312896	275,004276	299,982547	0
15.01.2021	11:59:33	0	59,44316	4,774615	2,8905	28,71	0,649	88,272	0	1015,22	7,7	9,3	9,3	1	1	1	1	1	1	1	1	1	0	1	-26,0747	274,892006	297,691493	0
15.01.2021	11:59:34	0	59,207865	4,774614	2,697	27,9684	0,655	88,273	0	1015,32	7,6	9,5	9,3	1	1	1	1	1	1	1	1	1	0	1	-28,188865	275,026182	296,20992	0
15.01.2021	11:59:35	0	58,973402	2,72835	2,53875	20,9988	0,655	88,288	0	1015,34	7,7	9,5	9,3	1	1	1	1	1	1	1	1	1	0	1	-26,779422	274,912229	297,082056	0
15.01.2021	11:59:36	0	59,09067	3,524119	2,4885	15,4008	0,654	88,286	0	1015,3	7,6	9,5	9,3	1	1	1	1	1	1	1	1	1	0	1	-25,510923	275,041845	298,961765	0
15.01.2021	11:59:37	0	58,857031	3,978843	2,439	23,238	0,656	88,292	0	1015,22	7,7	9,3	9,3	1	1	1	1	1	1	1	1	1	0	1	-29,175476	274,884233	294,554102	0
15.01.2021	11:59:38	0	58,739399	3,069392	2,44725	14,2884	0,655	88,289	0	1015,22	7,6	9,4	9,3	1	1	1	1	1	1	1	1	1	0	1	-24,453841	274,937147	299,525076	0
15.01.2021	11:59:39	0	59,32606	4,660928	2,604	8,604	0,655	88,302	0	1015,26	7,6	9,3	9,3	1	1	1	1	1	1	1	1	1	0	1	-22,621564	275,070069	301,984332	0
15.01.2021	11:59:40	0	58,973523	4,206203	2,70675	4,8312	0,655	88,294	0	1015,2	7,6	9,5	9,3	1	1	1	1	1	1	1	1	1	0	1	-27,977449	274,976147	296,185333	0
15.01.2021	11:59:41	0	59,325278	2,728364	2,72175	12,0996	0,652	88,3	0	1015,28	7,7	9,5	9,2	1	1	1	1	1	1	1	1	1	0	1	-28,964059	274,934031	295,000167	0
15.01.2021	11:59:42	0	58,974397	3,524136	2,63175	12,4668	0,66	88,307	0	1015,3	7,6	9,3	9,2	1	1	1	1	1	1	1	1	1	0	1	-30,655391	274,90756	293,184087	0
15.01.2021	11:59:43	0	59,44257	4,433562	2,43375	359,5068	0,654	88,311	0	1015,32	7,6	9,5	9,3	1	1	1	1	1	1	1	1	1	0	1	-29,598309	274,982395	294,593933	0
15.01.2021	11:59:44	0	58,739954	4,092543	2,355	18,8352	0,658	88,32	0	1015,24	7,6	9,3	9,2	1	1	1	1	1	1	1	1	1	0	1	-26,0747	275,052816	298,449763	0
15.01.2021	11:59:45	0	59,091715	4,888285	2,2935	8,6148	0,65	88,286	0	1015,28	7,7	9,3	9,3	1	1	1	1	1	1	1	1	1	0	1	-26,849894	274,976147	297,312887	0
15.01.2021	11:59:46	0	58,739179	4,774603	2,0745	32,49	0,646	88,309	0	1015,22	7,7	9,5	9,3	1	1	1	1	1	1	1	1	1	0	1	-27,061311	275,088908	297,633521	0
15.01.2021	11:59:47	0	58,740026	3,978835	2,04	26,1648	0,653	88,327	0	1015,28	7,6	9,3	9,3	1	1	1	1	1	1	1	1	1	0	1	-23,326286	275,002712	300,961781	0
15.01.2021	11:59:48	0	58,621983	3,296768	2,08425	23,6592	0,656	88,292	0	1015,32	7,7	9,5	9,2	1	1	1	1	1	1	1	1	1	0	1	-28,752643	274,879571	294,954974	0
15.01.2021	11:59:49	0	58,740074	2,842041	2,01975	22,4568	0,658	88,301	0	1015,46	7,6	9,3	9,2	1	1	1	1	1	1	1	1	1	0	1	-26,638478	275,051248	297,878587	0
15.01.2021	11:59:50	0	58,856519	3,069385	1,93425	16,092	0,656	88,304	0	1015,36	7,6	9,5	9,3	1	1	1	1	1	1	1	1	1	0	1	-26,849894	274,890451	296,908975	0
15.01.2021	11:59:51	0	59,32635	4,206194	1,8555	13,1616	0,655	88,302	0	1015,2	7,7	9,3	9,3	1	1	1	1	1	1	1	1	1	0	1	-29,598309	274,977709	294,571837	0
15.01.2021	11:59:52	0	58,974637	4,547263	1,788	13,9104	0,653	88,309	0	1015,22	7,6	9,3	9,2	1	1	1	1	1	1	1	1	1	0	1	-26,638478	274,888896	297,113067	0
15.01.2021	11:59:53	0	58,857415	3,637788	1,75125	12,8592	0,659	88,311	0	1015,38	7,6	9,3	9,3	1	1	1	1	1	1	1	1	1	0	1	-25,510923	275,010532	298,814032	0
15.01.2021	11:59:54	0	59,091517	3,865172	1,79475	15,4044	0,655	88,343	0	1015,6	7,7	9,4	9,2	1	1	1	1	1	1	1	1	1	0	1	-29,034531	274,876464	294,658449	0
15.01.2021	11:59:55	0	58,973883	3,296744	1,81575	4,4604	0,656	88,296	0	1015,26	7,7	9,5	9,3	1	1	1	1	1	1	1	1	1	0	1	-29,175476	274,954298	294,884286	0
15.01.2021	11:59:56	0	58,97432	2,842037	1,8705	9,7524	0,658	88,309	0	1015,38	7,6	9,4	9,2	1	1	1	1	1	1	1	1	1	0	1	-29,386892	275,066931	295,204191	0
15.01.2021	11:59:57	0	59,443741	4,774593	1,818	24,3504	0,658	88,288	0	1015,38	7,6	9,3	9,3	1	1	1	1	1	1	1	1	1	0	1	-31,501057	275,007404	292,80914	0
15.01.2021	11:59:58	0	59,092027	3,637806	1,76925	13,9284	0,658	88,271	0	1015,18	7,6	9,3	9,2	1	1	1	1	1	1	1	1	1	0	1	-28,823115	274,896671	294,965057	0
15.01.2021	11:59:59	0	59,326543	4,092531	1,86075	7,8732	0,655	88,293	0	1015,42	7,7	9,3	9,2	1	1	1	1	1	1	1	1	1	0	1	-26,497533	274,96678	297,62108	0
15.01.2021	12:00:00	0	59,560666	5,456706	1,7595	15,03	0,658	88,282	0	1015,18	7,6	9,4	9,2	1	1	1	1	1	1	1	1	1	0	1	-32,205779	274,895116	291,575066	0
15.01.2021	12:00:01	0	59,560666	5,456706	1,7595	15,03	0,658	88,282	0	1015,18	7,6	9,4	9,2	1	1	1	1	1	1	1	1	1	0	1	-30,866808	275,052816	293,657656	0
15.01.2021	12:00:02	0	59,208954	3,069396	1,728	29,9628	0,655	88,282	0	1015,28	7,7	9,4	9,2	1	1	1	1	1	1	1	1	1	0	1	-28,823115	274,954298	295,236647	0
15.01.2021	12:00:03	0	59,561131	2,842033	1,59675	349,8516	0,658	88,264	0	1015,38	7,6	9,3	9,2	1	1	1	1	1	1	1	1	1	0	1	-31,571529	275,051248	292,945536	0
15.01.2021	12:00:04	0	59,677984	4,774615	1,659	5,7708	0,655	88,274	0	1015,32	7,6	9,4	9,2	1	1	1	1	1	1	1	1	1	0	1	-25,651868	274,895116	298,128977	0
15.01.2021	12:00:05	0	60,029745	4,774614	1,96875	8,5968	0,659	88,277	0	1015,22	7,7	9,4	9,2	1	1	1	1	1	1	1	1	1	0	1	-26,849894	275,029314	297,563666	0
15.01.2021	12:00:06	0	59,326295	2,614669	2,02875	358,3224	0,652	88,271	0	1015,2	7,7	9,4	9,2	1	1	1	1	1	1	1	1	1	0	1	-32,064834	275,018356	292,297027	0
15.01.2021	12:00:07	0	59,678056	5,115656	1,88175	14,382	0,651	88,266	0	1015,34	7,7	9,4	9,2	1	1	1	1	1	1	1	1	1	0	1	-29,950669	275,060656	294,610798	0
15.01.2021	12:00:08	0	59,561252	2,728349	1,82925	12,4632	0,655	88,275	0	1015,36	7,7	9,3	9,2	1	1	1	1	1	1	1	1	1	0	1	-28,259338	274,999585	296,013979	0
15.01.2021	12:00:09	0	59,678104	3,524117	1,80375	6,8184	0,645	88,291	0	1015,24	7,7	9,4	9,2	1	1	1	1	1	1	1	1	1	0	1	-33,897111	275,071638	290,716193	0
15.01.2021	12:00:10	0	59,560883	2,95571	1,791	21,3768	0,66	88,267	0	1015,3	7,7	9,4	9,2	1	1	1	1	1	1	1	1	1	0	1	-28,611698	274,965219	295,499556	0
15.01.2021	12:00:11	0	59,678153	2,614666	1,84575	1,9188	0,661	88,27	0	1015,4	7,7	9,4	9,2	1	1	1	1	1	1	1	1	1	0	1	-31,642001	274,885788	292,094898	0
15.01.2021	12:00:12	0	59,913088	4,09252	2,1735	10,8216	0,657	88,262	0	1015,2	7,7	9,3	9,2	1	1	1	1	1	1	1	1	1	0	1	-31,782946	274,952738	292,269463	0
15.01.2021	12:00:13	0	59,795447	4,319882	2,44875	2,3112	0,657	88,273	0	1015,3	7,7	9,4	9,2	1	1	1	1	1	1	1	1	1	0	1	-27,766032	275,059088	296,788033	0
15.01.2021	12:00:14	0	60,264877	4,660924	2,56875	12,852	0,653	88,243	0	1015,22	7,7	9,3	9,2	1	1	1	1	1	1	1	1	1	0	1	-35,306554	275,046546	289,188319	0
15.01.2021	12:00:15	0	59,912741	4,547242	2,658	8,622	0,649	88,272	0	1015,32	7,7	9,4	9,2	1	1	1	1	1	1	1	1	1	0	1	-31,853418	274,888896	291,898127	0
15.01.2021	12:00:16	0	60,029591	3,865155	2,76825	10,0476	0,657	88,272	0	1015,22	7,7	9,5	9,2	1	1	1	1	1	1	1	1	1	0	1	-29,880197	274,871804	293,790832	0
15.01.2021	12:00:17	0	60,147281	3,751473	2,8845	40,9932	0,657	88,254	0	1015,26	7,7	9,4	9,2	1	1	1	1	1	1	1	1	1	0	1	-34,813249	275,041845	289,65944	0
15.01.2021	12:00:18	0	60,264552	4,774602	2,89575	24,7032	0,658	88,273	0	1015,2	7,7	9,4	9,2	1	1	1	1	1	1	1	1	1	0	1	-29,880197	275,040278	294,585097	0
15.01.2021	12:00:19	0	60,264576	4,547239	2,832	21,3876	0,654	88,26	0	1015,24	7,7	9,4	9,2	1	1	1	1	1	1	1	1	1	0	1	-31,078224	275,024617	293,313175	0
15.01.2021	12:00:20	0	60,2646	4,433557	2,88375	12,456	0,659	88,279	0	1015,3	7,7	9,4	9,2	1	1	1	1	1	1	1	1	1	0	1	-32,9105	275,062225	291,65837	0
15.01.2021	12:00:21	0	60,499541	4,88825	3,06975	9,3636	0,657	88,277	0	1015,2	7,7	9,3	9,3	1	1	1	1	1	1	1	1	1	0	1	-38,618746	274,957418	285,455725	0
15.01.2021	12:00:22	0	60,381895	2,842023	2,955	21,7728	0,66	88,273	0	1015,34	7,7	9,4	9,2	1	1	1	1	1	1	1	1	1	0	1	-31,782946	275,055952	292,756317	0
15.01.2021	12:00:23	0	60,499166	3,978831	2,7885	39,168	0,654	88,267	0	1015,22	7,7	9,4	9,2	1	1	1	1	1	1	1	1	1	0	1	-33,262861	274,937147	290,716055	0
15.01.2021	12:00:24	0	60,968176	4,206192	2,55375	21,0096	0,66	88,29	0	1015,28	7,7	9,4	9,2	1	1	1	1	1	1	1	1	1	0	1	-35,729387	275,073207	288,891325	0
15.01.2021	12:00:25	0	60,616885	3,865148	2,42325	28,7316	0,659	88,289	0	1015,26	7,7	9,3	9,2	1	1	1	1	1	1	1	1	1	0	1	-32,417195	275,004276	291,878248	0
15.01.2021	12:00:26	0	60,264745	2,84202	2,37525	15,0408	0,657	88,29	0	1015,26	7,7	9,4	9,2	1	1	1	1	1	1	1	1	1	0	1	-30,725863	274,90756	293,113615	0
15.01.2021	12:00:27	0	60,499263	4,547232	2,28675	29,0952	0,66	88,298	0	1015,2	7,7	9,4	9,2	1	1	1	1	1	1	1	1	1	0	1	-30,93728	274,991769	293,299174	0
15.01.2021	12:00:28	0	60,73378	3,410403	2,3475	28,35	0,659	88,303	0	1015,26	7,7	9,4	9,3	1	1	1	1	1	1	1	1	1	0	1	-33,54475	275,079486	291,105601	0
15.01.2021	12:00:29	0	60,733805	2,728338	2,19825	19,9116	0,659	88,289	0	1015,12	7,7	9,4	9,2	1	1	1	1	1	1	1	1	1	0	1	-38,900634	274,921569	285,004862	0
15.01.2021	12:00:30	0	60,851076	4,092506	2,1255	15,7824	0,659	88,293	0	1015,24	7,7	9,4	9,2	1	1	1	1	1	1	1	1	1	0	1	-32,628612	275,029314	291,784949	0
15.01.2021	12:00:31	0	60,8511	4,547228	2,22	10,8072	0,66	88,292	0	1015,38	7,7	9,4	9,2	1	1	1	1	1	1	1	1	1	0	1	-28,118393	274,896671	295,669778	0
15.01.2021	12:00:32	0	60,733877	4,206185	2,26275	7,5096	0,656	88,275	0	1015,36	7,7	9,4	9,2	1	1	1	1	1	1	1	1	1	0	1	-30,232558	275,00584	294,070262	0
15.01.2021	12:00:33	0	60,851149	2,500975	2,31975	6,8112	0,654	88,289	0	1015,24	7,7	9,4	9,2	1	1	1	1	1	1	1	1	1	0	1	-30,162086	274,881125	293,552851	0
15.01.2021	12:00:34	0	60,733926	4,319864	2,48175	3,3984	0,658	88,28	0	1015,3	7,7	9,4	9,2	1	1	1	1	1	1	1	1	1	0	1	-29,245948	274,935589	294,725623	0
15.01.2021	12:00:35	0	60,851197	3,296738	2,61975	7,1064	0,653	88,28	0	1015,34	7,7	9,4	9,2	1	1	1	1	1	1	1	1	1	0	1	-29,668781	274,90756	294,170698	0
15.01.2021	12:00:36	0	61,085716	4,433543	2,63625	13,5612	0,66	88,283	0	1015,34	7,7	9,4	9,2	1	1	1	1	1	1	1	1	1	0	1	-34,601832	275,048113	289,900437	0
15.01.2021	12:00:37	0	60,733999	3,296717	2,7075	6,426	0,66	88,291	0	1015,24	7,7	9,4	9,3	1	1	1	1	1	1	1	1	1	0	1	-31,994362	274,896671	291,793809	0
15.01.2021	12:00:38	0	60,85127	2,728333	2,772	10,0512	0,658	88,274	0	1015,14	7,7	9,4	9,2	1	1	1	1	1	1	1	1	1	0	1	-32,487667	274,960538	291,601514	0
15.01.2021	12:00:39	0	61,554778	4,433541	2,7285	22,0716	0,657	88,282	0	1015,32	7,7	9,4	9,2	1	1	1	1	1	1	1	1	1	0	1	-28,823115	275,060656	295,738352	0
15.01.2021	12:00:40	0	61,672049	5,342952	2,6235	15,4152	0,651	88,278	0	1015,3	7,7	9,4	9,3	1	1	1	1	1	1	1	1	1	0	1	-34,460888	274,994895	289,790309	0
15.01.2021	12:00:41	0	61,437579	4,433512	2,80425	12,0888	0,662	88,297	0	1015,36	7,7	9,4	9,3	1	1	1	1	1	1	1	1	1	0	1	-31,92389	274,896671	291,864281	0
15.01.2021	12:00:42	0	61,672098	4,206177	2,90325	13,9176	0,662	88,275	0	1015,26	7,7	9,4	9,2	1	1	1	1	1	1	1	1	1	0	1	-31,360113	275,008968	292,957463	0
15.01.2021	12:00:43	0	61,320381	4,433537	2,8515	1,9152	0,655	88,268	0	1015,28	7,7	9,4	9,2	1	1	1	1	1	1	1	1	1	0	1	-31,782946	274,895116	291,997899	0
15.01.2021	12:00:44	0	61,437653	2,61465	2,75475	21,0168	0,659	88,267	0	1015,28	7,7	9,4	9,2	1	1	1	1	1	1	1	1	1	0	1	-29,880197	274,901337	293,929959	0
15.01.2021	12:00:45	0	61,203182	3,069352	2,469	11,2032	0,662	88,274	0	1015,3	7,7	9,4	9,3	1	1	1	1	1	1	1	1	1	0	1	-30,162086	275,001149	294,118605	0
15.01.2021	12:00:46	0	61,437702	4,888256	2,3475	6,804	0,662	88,248	0	1015,3	7,7	9,4	9,2	1	1	1	1	1	1	1	1	1	0	1	-29,527837	274,881125	294,1871	0
15.01.2021	12:00:47	0	61,672221	3,06937	2,259	19,512	0,66	88,255	0	1015,28	7,7	9,4	9,2	1	1	1	1	1	1	1	1	1	0	1	-29,105004	274,996458	295,153566	0
15.01.2021	12:00:48	0	61,43775	2,614648	2,08875	28,3356	0,659	88,262	0	1015,18	7,7	9,4	9,2	1	1	1	1	1	1	1	1	1	0	1	-31,782946	274,929357	292,159252	0
15.01.2021	12:00:49	0	61,555022	4,660893	1,92675	37,026	0,662	88,258	0	1015,24	7,7	9,4	9,2	1	1	1	1	1	1	1	1	1	0	1	-32,064834	275,062225	292,504036	0
15.01.2021	12:00:50	0	62,141285	4,774543	1,803	35,478	0,66	88,26	0	1015,2	7,7	9,4	9,3	1	1	1	1	1	1	1	1	1	0	1	-28,893587	274,977709	295,276559	0
15.01.2021	12:00:51	0	61,437824	3,410387	1,73175	24,7248	0,661	88,262	0	1015,24	7,7	9,4	9,3	1	1	1	1	1	1	1	1	1	0	1	-26,427061	274,873357	297,251284	0
15.01.2021	12:00:52	0	62,024087	4,433503	1,68525	15,7788	0,658	88,248	0	1015,1	7,7	9,4	9,3	1	1	1	1	1	1	1	1	1	0	1	-32,840028	274,971463	291,300666	0
15.01.2021	12:00:53	0	61,437872	3,183046	1,85925	13,5432	0,661	88,259	0	1015,26	7,7	9,4	9,2	1	1	1	1	1	1	1	1	1	0	1	-31,782946	274,881125	291,931991	0
15.01.2021	12:00:54	0	61,672392	4,092463	2,0565	5,6808	0,656	88,263	0	1015,22	7,7	9,4	9,3	1	1	1	1	1	1	1	1	1	0	1	-29,809725	274,994895	294,441471	0
15.01.2021	12:00:55	0	61,789665	4,092462	2,1825	14,6484	0,659	88,262	0	1015,36	7,7	9,4	9,3	1	1	1	1	1	1	1	1	1	0	1	-32,064834	275,054384	292,467028	0
15.01.2021	12:00:56	0	61,672441	3,069364	2,26275	5,6304	0,663	88,255	0	1015,28	7,7	9,4	9,2	1	1	1	1	1	1	1	1	1	0	1	-30,584919	274,893561	293,1886	0
15.01.2021	12:00:57	0	61,906962	3,183044	2,2635	5,238	0,659	88,255	0	1015,34	7,7	9,4	9,2	1	1	1	1	1	1	1	1	1	0	1	-29,809725	275,00584	294,493095	0
15.01.2021	12:00:58	0	61,906986	4,660857	2,18925	357,246	0,663	88,27	0	1015,38	7,7	9,4	9,3	1	1	1	1	1	1	1	1	1	0	1	-30,514447	275,054384	294,017416	0
15.01.2021	12:00:59	0	62,141507	4,774535	2,16975	4,0932	0,656	88,245	0	1015,4	7,7	9,4	9,3	1	1	1	1	1	1	1	1	1	0	1	-28,118393	274,941823	295,882563	0
15.01.2021	12:01:00	0	61,672563	3,183022	2,31225	9,7488	0,661	88,261	0	1015,3	7,7	9,4	9,3	1	1	1	1	1	1	1	1	1	0	1	-31,430585	275,065362	293,153094	0
15.01.2021	12:01:01	0	61,672563	3,183022	2,31225	9,7488	0,661	88,261	0	1015,3	7,7	9,4	9,3	1	1	1	1	1	1	1	1	1	0	1	-30,091614	274,906004	293,740533	0
15.01.2021	12:01:02	0	62,258829	3,751441	2,5095	21,7692	0,66	88,257	0	1015,26	7,7	9,4	9,2	1	1	1	1	1	1	1	1	1	0	1	-28,964059	274,940265	295,02955	0
15.01.2021	12:01:03	0	61,907108	2,614624	2,58825	24,3252	0,665	88,269	0	1015,34	7,7	9,4	9,3	1	1	1	1	1	1	1	1	1	0	1	-31,92389	275,074777	292,70423	0
15.01.2021	12:01:04	0	62,376126	5,001889	2,59125	20,2716	0,659	88,254	0	1015,4	7,7	9,4	9,3	1	1	1	1	1	1	1	1	1	0	1	-32,699084	275,008968	291,618492	0
15.01.2021	12:01:05	0	61,907157	4,319813	2,57475	19,9008	0,665	88,267	0	1015,38	7,7	9,4	9,3	1	1	1	1	1	1	1	1	1	0	1	-27,836505	275,051248	296,68056	0
15.01.2021	12:01:06	0	62,141679	3,865118	2,57475	22,0752	0,661	88,271	0	1015,2	7,7	9,4	9,2	1	1	1	1	1	1	1	1	1	0	1	-34,108527	275,070069	290,497369	0
15.01.2021	12:01:07	0	62,141703	3,751415	2,74425	11,2896	0,665	88,277	0	1015,34	7,7	9,4	9,3	1	1	1	1	1	1	1	1	1	0	1	-35,658915	274,955858	288,408201	0
15.01.2021	12:01:08	0	62,493473	4,774527	2,7705	360	0,662	88,271	0	1015,18	7,7	9,4	9,3	1	1	1	1	1	1	1	1	1	0	1	-29,245948	274,885788	294,490952	0
15.01.2021	12:01:09	0	61,907255	3,069338	3,1005	6,4332	0,667	88,266	0	1015,42	7,7	9,4	9,3	1	1	1	1	1	1	1	1	1	0	1	-30,796335	275,0685	293,802154	0
15.01.2021	12:01:10	0	62,493522	4,547167	3,3585	10,044	0,658	88,244	0	1015,14	7,7	9,4	9,3	1	1	1	1	1	1	1	1	1	0	1	-30,514447	275,001149	293,766244	0
15.01.2021	12:01:11	0	62,024118	3,069355	3,3405	9,36	0,667	88,255	0	1015,26	7,7	9,5	9,2	1	1	1	1	1	1	1	1	1	0	1	-31,571529	275,029314	292,842031	0
15.01.2021	12:01:12	0	62,259074	3,86509	3,39975	9,7488	0,664	88,269	0	1015,3	7,7	9,4	9,3	1	1	1	1	1	1	1	1	1	0	1	-31,92389	274,896671	291,864281	0
15.01.2021	12:01:13	0	62,024601	2,841978	3,43875	5,6844	0,661	88,264	0	1015,3	7,7	9,4	9,3	1	1	1	1	1	1	1	1	1	0	1	-28,752643	274,9465	295,270361	0
15.01.2021	12:01:14	0	62,024626	3,978768	3,49725	7,8912	0,665	88,264	0	1015,32	7,7	9,4	9,3	1	1	1	1	1	1	1	1	1	0	1	-29,527837	274,898226	294,267662	0
15.01.2021	12:01:15	0	62,493645	3,524051	3,5625	1,548	0,663	88,247	0	1015,16	7,7	9,4	9,3	1	1	1	1	1	1	1	1	1	0	1	-34,742777	275,029314	289,670784	0
15.01.2021	12:01:16	0	62,024674	3,751408	3,6435	3,0204	0,664	88,265	0	1015,36	7,7	9,4	9,3	1	1	1	1	1	1	1	1	1	0	1	-30,232558	275,037145	294,217952	0
15.01.2021	12:01:17	0	62,376445	4,660812	3,7815	10,8144	0,666	88,254	0	1015,38	7,7	9,4	9,4	1	1	1	1	1	1	1	1	1	0	1	-31,007752	274,949619	293,029953	0
15.01.2021	12:01:18	0	62,141972	2,955654	3,76575	6,1416	0,664	88,236	0	1015,2	7,7	9,4	9,3	1	1	1	1	1	1	1	1	1	0	1	-28,964059	274,885788	294,77284	0
15.01.2021	12:01:19	0	62,610554	5,342912	3,756	4,8204	0,658	88,245	0	1015,16	7,7	9,5	9,3	1	1	1	1	1	1	1	1	1	0	1	-28,964059	275,032446	295,464279	0
15.01.2021	12:01:20	0	62,25927	3,865084	3,70425	3,3876	0,667	88,238	0	1015,4	7,7	9,4	9,3	1	1	1	1	1	1	1	1	1	0	1	-31,782946	274,951178	292,262111	0
15.01.2021	12:01:21	0	61,907547	2,500937	3,55125	6,426	0,671	88,224	0	1015,2	7,7	9,4	9,3	1	1	1	1	1	1	1	1	1	0	1	-28,400282	274,879571	295,307335	0
15.01.2021	12:01:22	0	62,376568	3,751404	3,396	15,0264	0,663	88,22	0	1015,32	7,7	9,4	9,3	1	1	1	1	1	1	1	1	1	0	1	-30,091614	274,932473	293,865269	0
15.01.2021	12:01:23	0	62,024844	3,637724	3,297	11,2932	0,668	88,225	0	1015,34	7,7	9,4	9,3	1	1	1	1	1	1	1	1	1	0	1	-32,9105	275,063793	291,665774	0
15.01.2021	12:01:24	0	62,025303	3,069311	3,33	19,152	0,66	88,204	0	1015,12	7,7	9,3	9,4	1	1	1	1	1	1	1	1	1	0	1	-30,584919	275,019921	293,784326	0
15.01.2021	12:01:25	0	62,259392	5,001869	3,132	13,5324	0,668	88,217	0	1015,36	7,7	9,4	9,3	1	1	1	1	1	1	1	1	1	0	1	-33,826638	275,070069	290,779258	0
15.01.2021	12:01:26	0	62,611164	3,978759	2,87625	18,4572	0,661	88,2	0	1015,3	7,7	9,4	9,3	1	1	1	1	1	1	1	1	1	0	1	-34,249471	275,044979	290,238006	0
15.01.2021	12:01:27	0	62,142191	4,206116	2,577	16,848	0,667	88,212	0	1015,34	7,7	9,4	9,3	1	1	1	1	1	1	1	1	1	0	1	-28,188865	274,991769	296,047588	0
15.01.2021	12:01:28	0	62,376714	3,978757	2,3835	12,0924	0,666	88,198	0	1015,36	7,7	9,4	9,3	1	1	1	1	1	1	1	1	1	0	1	-27,766032	275,05752	296,780631	0
15.01.2021	12:01:29	0	62,493988	2,841969	2,31975	16,4808	0,666	88,199	0	1015,22	7,7	9,4	9,3	1	1	1	1	1	1	1	1	1	0	1	-30,866808	274,938706	293,119455	0
15.01.2021	12:01:30	0	62,142264	4,660828	2,29125	8,2584	0,661	88,187	0	1015,28	7,6	9,4	9,3	1	1	1	1	1	1	1	1	1	0	1	-32,135307	275,027748	292,270866	0
15.01.2021	12:01:31	0	62,141853	2,728289	2,23425	12,0888	0,663	88,191	0	1015,3	7,7	9,5	9,3	1	1	1	1	1	1	1	1	1	0	1	-30,655391	274,885788	293,081508	0
15.01.2021	12:01:32	0	62,494061	4,547148	2,1525	23,2128	0,657	88,194	0	1015,36	7,7	9,4	9,3	1	1	1	1	1	1	1	1	1	0	1	-27,061311	275,013661	297,278404	0
15.01.2021	12:01:33	0	62,260022	4,888183	2,0565	14,292	0,663	88,207	0	1015,32	7,7	9,3	9,3	1	1	1	1	1	1	1	1	1	0	1	-29,809725	274,993332	294,4341	0
15.01.2021	12:01:34	0	62,142361	2,955645	1,9785	18,072	0,661	88,196	0	1015,18	7,7	9,4	9,3	1	1	1	1	1	1	1	1	1	0	1	-31,148696	275,043412	293,331386	0
15.01.2021	12:01:35	0	62,259199	2,046215	1,9125	7,8912	0,662	88,182	0	1015,3	7,7	9,5	9,3	1	1	1	1	1	1	1	1	1	0	1	-28,118393	274,969902	296,01494	0
15.01.2021	12:01:36	0	62,259223	2,841965	1,923	10,4544	0,661	88,184	0	1015,32	7,7	9,5	9,3	1	1	1	1	1	1	1	1	1	0	1	-28,118393	275,041845	296,354295	0
15.01.2021	12:01:37	0	62,142433	4,660822	2,05725	15,39	0,666	88,189	0	1015,28	7,7	9,4	9,3	1	1	1	1	1	1	1	1	1	0	1	-28,400282	275,065362	296,183397	0
15.01.2021	12:01:38	0	62,494207	3,751393	2,11575	14,742	0,665	88,183	0	1015,22	7,6	9,4	9,3	1	1	1	1	1	1	1	1	1	0	1	-29,668781	275,010532	294,656174	0
15.01.2021	12:01:39	0	62,142917	3,751392	2,154	19,8936	0,666	88,178	0	1015,26	7,6	9,3	9,3	1	1	1	1	1	1	1	1	1	0	1	-30,162086	274,934031	293,802141	0
15.01.2021	12:01:40	0	62,142071	4,660819	2,13675	11,1888	0,663	88,181	0	1015,18	7,7	9,5	9,3	1	1	1	1	1	1	1	1	1	0	1	-30,162086	274,878018	293,538212	0
15.01.2021	12:01:41	0	62,024845	2,500927	2,03475	16,4844	0,661	88,186	0	1015,32	7,6	9,5	9,3	1	1	1	1	1	1	1	1	1	0	1	-33,826638	274,941823	290,174318	0
15.01.2021	12:01:42	0	62,259368	2,955641	2,0955	359,9424	0,658	88,184	0	1015,22	7,7	9,5	9,3	1	1	1	1	1	1	1	1	1	0	1	-31,994362	275,052816	292,530101	0
15.01.2021	12:01:43	0	62,142578	4,206103	2,244	5,2308	0,661	88,179	0	1015,24	7,7	9,4	9,3	1	1	1	1	1	1	1	1	1	0	1	-24,806202	274,870251	298,857513	0
15.01.2021	12:01:44	0	62,377103	3,63771	2,36475	12,456	0,663	88,172	0	1015,28	7,7	9,4	9,3	1	1	1	1	1	1	1	1	1	0	1	-28,259338	274,955858	295,807778	0
15.01.2021	12:01:45	0	62,259441	2,84196	2,4015	355,3956	0,664	88,176	0	1015,24	7,7	9,5	9,3	1	1	1	1	1	1	1	1	1	0	1	-24,735729	275,059088	299,818336	0
15.01.2021	12:01:46	0	62,377151	3,751387	2,39625	357,1812	0,664	88,183	0	1015,42	7,7	9,4	9,3	1	1	1	1	1	1	1	1	1	0	1	-24,453841	274,943382	299,554464	0
15.01.2021	12:01:47	0	62,142675	4,547135	2,35125	355,4424	0,659	88,169	0	1015,3	7,7	9,4	9,3	1	1	1	1	1	1	1	1	1	0	1	-28,470754	274,879571	295,236863	0
15.01.2021	12:01:48	0	62,376763	3,865064	2,17425	336,4416	0,657	88,19	0	1015,28	7,7	9,5	9,3	1	1	1	1	1	1	1	1	1	0	1	-24,10148	274,937147	299,877437	0
15.01.2021	12:01:49	0	62,259537	3,069315	2,01375	7,5024	0,662	88,184	0	1015,2	7,7	9,5	9,3	1	1	1	1	1	1	1	1	1	0	1	-25,299507	274,878018	298,400791	0
15.01.2021	12:01:50	0	62,376811	4,319776	1,8855	3,7656	0,66	88,19	0	1015,26	7,7	9,5	9,3	1	1	1	1	1	1	1	1	1	0	1	-30,162086	274,926242	293,765429	0
15.01.2021	12:01:51	0	62,142336	2,955636	1,878	9,3528	0,659	88,176	0	1015,28	7,6	9,5	9,3	1	1	1	1	1	1	1	1	1	0	1	-28,047921	275,00584	296,254899	0
15.01.2021	12:01:52	0	62,259609	4,092418	2,01675	9,3708	0,655	88,17	0	1015,18	7,7	9,5	9,3	1	1	1	1	1	1	1	1	1	0	1	-27,554616	275,059088	296,999449	0
15.01.2021	12:01:53	0	62,376883	4,660808	2,319	7,218	0,659	88,164	0	1015,4	7,7	9,5	9,3	1	1	1	1	1	1	1	1	1	0	1	-32,840028	274,932473	291,116855	0
15.01.2021	12:01:54	0	62,142408	3,18299	2,36025	2,6316	0,661	88,18	0	1015,18	7,6	9,5	9,3	1	1	1	1	1	1	1	1	1	0	1	-26,004228	275,038711	298,453674	0
15.01.2021	12:01:55	0	62,025182	3,524024	2,289	12,096	0,659	88,188	0	1015,24	7,7	9,5	9,3	1	1	1	1	1	1	1	1	1	0	1	-28,400282	274,904448	295,424534	0
15.01.2021	12:01:56	0	62,376956	3,524024	2,14575	10,8108	0,663	88,181	0	1015,16	7,6	9,5	9,3	1	1	1	1	1	1	1	1	1	0	1	-29,31642	274,974586	294,838999	0
15.01.2021	12:01:57	0	62,25973	3,06931	2,007	4,4676	0,665	88,164	0	1015,36	7,6	9,5	9,3	1	1	1	1	1	1	1	1	1	0	1	-25,369979	275,027748	299,036194	0
15.01.2021	12:01:58	0	62,494254	4,092413	1,836	28,7208	0,667	88,181	0	1015,18	7,6	9,5	9,3	1	1	1	1	1	1	1	1	1	0	1	-32,417195	275,001149	291,863496	0
15.01.2021	12:01:59	0	62,259778	4,547125	1,6995	24,7212	0,658	88,161	0	1015,28	7,7	9,5	9,3	1	1	1	1	1	1	1	1	1	0	1	-25,863284	275,037145	298,587226	0
15.01.2021	12:02:00	0	62,142576	2,500918	1,54425	20,2716	0,659	88,182	0	1015,18	7,7	9,5	9,3	1	1	1	1	1	1	1	1	1	0	1	-28,047921	275,048113	296,454349	0
15.01.2021	12:02:01	0	62,142576	2,500918	1,54425	20,2716	0,659	88,182	0	1015,18	7,7	9,5	9,3	1	1	1	1	1	1	1	1	1	0	1	-23,537703	274,954298	300,522059	0
15.01.2021	12:02:02	0	62,1426	4,6608	1,63725	17,6976	0,659	88,176	0	1015,26	7,6	9,5	9,3	1	1	1	1	1	1	1	1	1	0	1	-28,32981	275,038711	296,128092	0
15.01.2021	12:02:03	0	62,377124	2,955629	1,6995	16,8444	0,66	88,158	0	1015,18	7,6	9,5	9,3	1	1	1	1	1	1	1	1	1	0	1	-32,980973	274,977709	291,189173	0
15.01.2021	12:02:04	0	61,790897	2,614594	1,71975	23,2164	0,663	88,169	0	1015,38	7,7	9,5	9,3	1	1	1	1	1	1	1	1	1	0	1	-26,990839	274,871804	296,680191	0
15.01.2021	12:02:05	0	62,259922	3,069324	1,794	20,6136	0,664	88,183	0	1015,46	7,6	9,5	9,2	1	1	1	1	1	1	1	1	1	0	1	-25,369979	274,898226	298,42552	0
15.01.2021	12:02:06	0	61,908195	2,500915	1,845	24,7176	0,661	88,182	0	1015,28	7,6	9,5	9,3	1	1	1	1	1	1	1	1	1	0	1	-30,866808	275,019921	293,502437	0
15.01.2021	12:02:07	0	62,025469	2,614609	1,9365	12,852	0,664	88,191	0	1015,24	7,6	9,5	9,2	1	1	1	1	1	1	1	1	1	0	1	-27,202255	274,887342	296,541967	0
15.01.2021	12:02:08	0	62,494494	5,001829	2,05725	16,4808	0,666	88,173	0	1015,32	7,6	9,5	9,3	1	1	1	1	1	1	1	1	1	0	1	-29,809725	275,002712	294,478342	0
15.01.2021	12:02:09	0	61,908266	3,069303	2,2155	25,0416	0,661	88,159	0	1015,26	7,6	9,5	9,3	1	1	1	1	1	1	1	1	1	0	1	-29,245948	275,002712	295,042119	0
15.01.2021	12:02:10	0	61,673789	3,069303	2,247	16,4808	0,667	88,21	0	1015,42	7,7	9,5	9,3	1	1	1	1	1	1	1	1	1	0	1	-28,118393	274,868698	295,538007	0
15.01.2021	12:02:11	0	62,142815	4,433437	2,20425	17,7012	0,665	88,176	0	1015,26	7,7	9,5	9,3	1	1	1	1	1	1	1	1	1	0	1	-27,061311	274,974586	297,094108	0
15.01.2021	12:02:12	0	61,556585	2,046201	2,133	12,4776	0,665	88,179	0	1015,42	7,7	9,5	9,3	1	1	1	1	1	1	1	1	1	0	1	-25,72234	274,870251	297,941375	0
15.01.2021	12:02:13	0	62,611865	4,774469	2,016	17,3088	0,657	88,173	0	1015,26	7,6	9,5	9,3	1	1	1	1	1	1	1	1	1	0	1	-30,30303	275,018356	294,058831	0
15.01.2021	12:02:14	0	61,908385	4,433434	2,04375	15,0264	0,664	88,181	0	1015,38	7,6	9,5	9,3	1	1	1	1	1	1	1	1	1	0	1	-30,162086	275,035578	294,281033	0
15.01.2021	12:02:15	0	61,908408	3,0693	2,13	26,9064	0,663	88,163	0	1015,32	7,6	9,5	9,3	1	1	1	1	1	1	1	1	1	0	1	-28,823115	275,035578	295,620004	0
15.01.2021	12:02:16	0	62,142934	5,001821	2,097	23,9436	0,657	88,168	0	1015,14	7,6	9,5	9,3	1	1	1	1	1	1	1	1	1	0	1	-27,484144	274,954298	296,575618	0
15.01.2021	12:02:17	0	61,791205	2,955621	2,00625	15,4008	0,663	88,177	0	1015,14	7,6	9,5	9,3	1	1	1	1	1	1	1	1	1	0	1	-28,893587	275,040278	295,571708	0
15.01.2021	12:02:18	0	62,02573	2,955621	1,971	18,0792	0,657	88,169	0	1015,22	7,6	9,5	9,3	1	1	1	1	1	1	1	1	1	0	1	-29,175476	274,906004	294,656671	0
15.01.2021	12:02:19	0	61,674865	2,728265	1,87275	20,286	0,665	88,183	0	1015,28	7,6	9,3	9,3	1	1	1	1	1	1	1	1	1	0	1	-27,977449	274,965219	296,133805	0
15.01.2021	12:02:20	0	61,791276	2,95562	1,76775	14,6484	0,674	88,173	0	1015,24	7,6	9,5	9,3	1	1	1	1	1	1	1	1	1	0	1	-26,497533	275,035578	297,945585	0
15.01.2021	12:02:21	0	61,55766	2,387231	1,638	3,3984	0,66	88,17	0	1015,34	7,6	9,3	9,3	1	1	1	1	1	1	1	1	1	0	1	-26,497533	274,876464	297,195446	0
15.01.2021	12:02:22	0	62,026694	4,206072	1,56225	2,2968	0,655	88,153	0	1015,28	7,6	9,3	9,3	1	1	1	1	1	1	1	1	1	0	1	-28,047921	274,921569	295,857575	0
15.01.2021	12:02:23	0	61,674096	3,069296	1,55925	4,0824	0,661	88,153	0	1015,28	7,6	9,5	9,3	1	1	1	1	1	1	1	1	1	0	1	-29,880197	275,010532	294,444758	0
15.01.2021	12:02:24	0	62,260375	3,978716	1,70475	356,5188	0,659	88,141	0	1015,32	7,6	9,5	9,3	1	1	1	1	1	1	1	1	1	0	1	-29,105004	275,055952	295,434259	0
15.01.2021	12:02:25	0	61,908645	4,092393	1,9755	11,7288	0,666	88,135	0	1015,24	7,6	9,5	9,3	1	1	1	1	1	1	1	1	1	0	1	-26,286117	274,86404	297,348343	0
15.01.2021	12:02:26	0	61,556915	2,841939	2,1405	14,2884	0,657	88,129	0	1015,3	7,6	9,5	9,3	1	1	1	1	1	1	1	1	1	0	1	-22,198732	274,876464	301,494248	0
15.01.2021	12:02:27	0	61,791441	3,637703	2,28975	17,2044	0,66	88,142	0	1015,3	7,6	9,5	9,2	1	1	1	1	1	1	1	1	1	0	1	-29,034531	274,916899	294,848952	0
15.01.2021	12:02:28	0	61,440571	2,500905	2,373	11,718	0,667	88,152	0	1015,3	7,6	9,3	9,3	1	1	1	1	1	1	1	1	1	0	1	-22,973925	274,929357	300,968272	0
15.01.2021	12:02:29	0	62,260494	4,774454	2,3835	17,6868	0,66	88,145	0	1015,3	7,7	9,5	9,3	1	1	1	1	1	1	1	1	1	0	1	-28,893587	275,023051	295,490427	0
15.01.2021	12:02:30	0	61,792377	3,296646	2,2125	18,0864	0,662	88,127	0	1015,28	7,6	9,3	9,3	1	1	1	1	1	1	1	1	1	0	1	-30,162086	274,923127	293,750749	0
15.01.2021	12:02:31	0	61,909654	4,206091	2,1555	9,3672	0,661	88,157	0	1015,3	7,6	9,3	9,2	1	1	1	1	1	1	1	1	1	0	1	-26,779422	274,882679	296,942835	0
15.01.2021	12:02:32	0	61,557918	3,296645	2,109	6,4404	0,665	88,153	0	1015,4	7,6	9,3	9,3	1	1	1	1	1	1	1	1	1	0	1	-24,947146	275,037145	299,503364	0
15.01.2021	12:02:33	0	62,144207	4,660801	2,05425	6,4332	0,661	88,151	0	1015,1	7,6	9,3	9,2	1	1	1	1	1	1	1	1	1	0	1	-28,188865	275,024617	296,202534	0
15.01.2021	12:02:34	0	61,440711	2,728257	2,03625	13,9248	0,66	88,157	0	1015,26	7,6	9,3	9,3	1	1	1	1	1	1	1	1	1	0	1	-27,272727	274,924684	296,647447	0
15.01.2021	12:02:35	0	61,439874	2,728273	2,19225	17,2368	0,664	88,155	0	1015,38	7,6	9,5	9,2	1	1	1	1	1	1	1	1	1	0	1	-24,524313	274,870251	299,139402	0
15.01.2021	12:02:36	0	61,908904	4,660799	2,2995	3,7944	0,657	88,147	0	1015,22	7,6	9,5	9,2	1	1	1	1	1	1	1	1	1	0	1	-26,779422	275,002712	297,508645	0
15.01.2021	12:02:37	0	61,557173	3,069288	2,4435	0	0,665	88,161	0	1015,38	7,6	9,5	9,3	1	1	1	1	1	1	1	1	1	0	1	-25,72234	274,920012	298,175818	0
15.01.2021	12:02:38	0	61,792565	3,182964	2,571	0	0,667	88,164	0	1015,38	7,6	9,3	9,3	1	1	1	1	1	1	1	1	1	0	1	-26,638478	275,023051	297,745536	0
15.01.2021	12:02:39	0	61,791723	2,614593	2,55	2,2968	0,657	88,14	0	1015,28	7,7	9,5	9,2	1	1	1	1	1	1	1	1	1	0	1	-25,510923	274,893561	298,262596	0
15.01.2021	12:02:40	0	61,674494	4,433413	2,39625	4,842	0,657	88,149	0	1015,26	7,6	9,5	9,3	1	1	1	1	1	1	1	1	1	0	1	-27,484144	274,860935	296,135694	0
15.01.2021	12:02:41	0	61,675382	4,09238	2,373	351,7272	0,657	88,154	0	1015,2	7,6	9,3	9,3	1	1	1	1	1	1	1	1	1	0	1	-26,0747	274,874911	297,610962	0
15.01.2021	12:02:42	0	61,909912	3,751348	2,45025	351,2844	0,654	88,162	0	1015,22	7,6	9,3	9,3	1	1	1	1	1	1	1	1	1	0	1	-24,453841	274,938706	299,532422	0
15.01.2021	12:02:43	0	61,440921	1,932524	2,42475	359,8236	0,658	88,147	0	1015,08	7,6	9,3	9,2	1	1	1	1	1	1	1	1	1	0	1	-28,470754	275,015226	295,876342	0
15.01.2021	12:02:44	0	61,792706	2,728252	2,34225	3,006	0,656	88,156	0	1015,36	7,6	9,3	9,3	1	1	1	1	1	1	1	1	1	0	1	-26,0747	274,940265	297,918909	0
15.01.2021	12:02:45	0	61,323714	2,387235	2,24925	359,8308	0,66	88,174	0	1015,22	7,6	9,3	9,2	1	1	1	1	1	1	1	1	1	0	1	-21,987315	274,904448	301,837501	0
15.01.2021	12:02:46	0	61,675499	2,728251	2,1435	15,3828	0,657	88,17	0	1015,2	7,6	9,3	9,3	1	1	1	1	1	1	1	1	1	0	1	-25,158562	274,913785	298,71025	0
15.01.2021	12:02:47	0	61,675522	4,774467	2,181	8,262	0,664	88,169	0	1015,46	7,6	9,3	9,2	1	1	1	1	1	1	1	1	1	0	1	-26,286117	274,904448	297,538699	0
15.01.2021	12:02:48	0	61,675545	3,978722	2,21025	0,4716	0,663	88,161	0	1015,24	7,6	9,3	9,2	1	1	1	1	1	1	1	1	1	0	1	-29,809725	274,867145	293,839361	0
15.01.2021	12:02:49	0	61,79239	4,888143	2,19525	354,3156	0,665	88,169	0	1015,42	7,6	9,4	9,2	1	1	1	1	1	1	1	1	1	0	1	-23,819591	274,994895	300,431605	0
15.01.2021	12:02:50	0	61,79198	4,206051	2,124	355,788	0,663	88,182	0	1015,22	7,6	9,5	9,3	1	1	1	1	1	1	1	1	1	0	1	-27,484144	274,993332	296,759681	0
15.01.2021	12:02:51	0	61,674751	3,524009	2,0445	357,0012	0,666	88,182	0	1015,32	7,6	9,5	9,2	1	1	1	1	1	1	1	1	1	0	1	-29,245948	274,862487	294,381201	0
15.01.2021	12:02:52	0	61,557522	3,069298	1,935	19,4976	0,652	88,182	0	1015,24	7,6	9,5	9,2	1	1	1	1	1	1	1	1	1	0	1	-26,427061	274,899781	297,375766	0
15.01.2021	12:02:53	0	62,027424	5,001817	1,779	360	0,657	88,185	0	1015,36	7,6	9,3	9,2	1	1	1	1	1	1	1	1	1	0	1	-23,255814	274,898226	300,539685	0
15.01.2021	12:02:54	0	61,792506	2,728264	1,64925	348,786	0,662	88,194	0	1015,18	7,6	9,4	9,2	1	1	1	1	1	1	1	1	1	0	1	-26,427061	275,05752	298,119602	0
15.01.2021	12:02:55	0	61,792529	3,978717	1,6245	356,5512	0,661	88,184	0	1015,26	7,6	9,4	9,2	1	1	1	1	1	1	1	1	1	0	1	-22,621564	274,960538	301,467617	0
15.01.2021	12:02:56	0	61,558477	4,206046	1,67625	0,1152	0,655	88,184	0	1015,38	7,6	9,3	9,3	1	1	1	1	1	1	1	1	1	0	1	-21,49401	274,85783	302,111208	0
15.01.2021	12:02:57	0	61,792576	4,433399	1,68975	19,8828	0,661	88,185	0	1015,28	7,6	9,4	9,3	1	1	1	1	1	1	1	1	1	0	1	-24,876674	274,924684	299,043501	0
15.01.2021	12:02:58	0	61,441269	3,524004	1,632	18,432	0,661	88,171	0	1015,26	7,7	9,3	9,2	1	1	1	1	1	1	1	1	1	0	1	-30,30303	275,052816	294,221433	0
15.01.2021	12:02:59	0	62,027564	4,547074	1,67025	5,688	0,662	88,19	0	1015,22	7,6	9,3	9,3	1	1	1	1	1	1	1	1	1	0	1	-26,920366	274,951178	297,12469	0
15.01.2021	12:03:00	0	61,440908	3,18297	1,8015	2,646	0,663	88,171	0	1015,14	7,6	9,4	9,2	1	1	1	1	1	1	1	1	1	0	1	-26,215645	274,904448	297,609171	0
15.01.2021	12:03:01	0	61,440908	3,18297	1,8015	2,646	0,663	88,171	0	1015,14	7,6	9,4	9,2	1	1	1	1	1	1	1	1	1	0	1	-22,973925	275,038711	301,483977	0
15.01.2021	12:03:02	0	61,909512	4,774426	1,91925	10,4328	0,659	88,173	0	1015,34	7,6	9,5	9,3	1	1	1	1	1	1	1	1	1	0	1	-23,678647	274,996458	300,579922	0
15.01.2021	12:03:03	0	61,675894	2,955614	2,0325	13,1652	0,667	88,18	0	1015,26	7,7	9,3	9,2	1	1	1	1	1	1	1	1	1	0	1	-28,611698	275,040278	295,853596	0
15.01.2021	12:03:04	0	61,675917	3,410323	2,06025	12,0924	0,66	88,177	0	1015,36	7,6	9,3	9,2	1	1	1	1	1	1	1	1	1	0	1	-24,806202	274,881125	298,908735	0
15.01.2021	12:03:05	0	61,558254	4,433419	2,14125	8,9784	0,668	88,184	0	1015,36	7,7	9,4	9,2	1	1	1	1	1	1	1	1	1	0	1	-25,229035	274,973025	298,919021	0
15.01.2021	12:03:06	0	61,558277	3,978709	2,355	10,17	0,665	88,186	0	1015,18	7,7	9,4	9,2	1	1	1	1	1	1	1	1	1	0	1	-21,423538	275,032446	303,0048	0
15.01.2021	12:03:07	0	62,027316	4,547095	2,67675	7,506	0,656	88,187	0	1015,32	7,7	9,4	9,2	1	1	1	1	1	1	1	1	1	0	1	-22,621564	275,010532	301,70339	0
15.01.2021	12:03:08	0	61,558323	4,092336	2,8185	8,6112	0,668	88,193	0	1015,36	7,8	9,4	9,4	1	1	1	1	1	1	1	1	1	0	1	-21,000705	274,960538	303,088477	0
15.01.2021	12:03:09	0	61,793287	2,614563	2,86275	358,3908	0,662	88,166	0	1015,3	7,6	9,3	9,3	1	1	1	1	1	1	1	1	1	0	1	-26,990839	275,026182	297,407947	0
15.01.2021	12:03:10	0	62,027385	3,978706	2,6805	352,5048	0,657	88,18	0	1015,26	7,6	9,4	9,2	1	1	1	1	1	1	1	1	1	0	1	-25,581395	274,915342	298,294752	0
15.01.2021	12:03:11	0	61,910155	4,660769	2,514	357,3036	0,664	88,172	0	1015,3	7,7	9,4	9,2	1	1	1	1	1	1	1	1	1	0	1	-22,551092	275,051248	301,965972	0
15.01.2021	12:03:12	0	62,027432	3,75135	2,27775	346,464	0,662	88,191	0	1015,4	7,7	9,4	9,2	1	1	1	1	1	1	1	1	1	0	1	-22,128259	274,996458	302,13031	0
15.01.2021	12:03:13	0	61,792514	4,888122	2,1015	353,9592	0,662	88,175	0	1015,08	7,7	9,5	9,2	1	1	1	1	1	1	1	1	1	0	1	-23,46723	275,052816	301,057233	0
15.01.2021	12:03:14	0	62,027478	3,751349	1,992	355,3992	0,667	88,173	0	1015,2	7,7	9,4	9,2	1	1	1	1	1	1	1	1	1	0	1	-25,440451	274,998022	298,825491	0
15.01.2021	12:03:15	0	61,792993	4,660766	1,97325	345,7656	0,66	88,191	0	1015,22	7,7	9,4	9,2	1	1	1	1	1	1	1	1	1	0	1	-20,789288	275,026182	303,609497	0
15.01.2021	12:03:16	0	62,144779	2,728253	1,98825	348,6312	0,664	88,197	0	1015,2	7,7	9,4	9,2	1	1	1	1	1	1	1	1	1	0	1	-28,259338	274,885788	295,477562	0
15.01.2021	12:03:17	0	61,793472	3,63767	1,98525	348,3576	0,663	88,181	0	1015,22	7,6	9,3	9,2	1	1	1	1	1	1	1	1	1	0	1	-23,11487	274,924684	300,805305	0
15.01.2021	12:03:18	0	62,26208	4,319706	1,848	351,4356	0,661	88,169	0	1015,18	7,7	9,4	9,3	1	1	1	1	1	1	1	1	1	0	1	-26,0747	274,915342	297,801447	0
15.01.2021	12:03:19	0	61,675831	4,660762	1,749	347,2668	0,658	88,19	0	1015,22	7,7	9,4	9,2	1	1	1	1	1	1	1	1	1	0	1	-20,155039	274,895116	303,625806	0
15.01.2021	12:03:20	0	62,027617	4,547084	1,785	345,1104	0,663	88,19	0	1015,32	7,6	9,4	9,2	1	1	1	1	1	1	1	1	1	0	1	-22,269204	274,887342	301,475018	0
15.01.2021	12:03:21	0	61,793131	3,637667	1,8105	349,0488	0,66	88,179	0	1015,22	7,7	9,4	9,2	1	1	1	1	1	1	1	1	1	0	1	-25,933756	274,874911	297,751906	0
15.01.2021	12:03:22	0	61,6759	4,774437	1,89375	346,8564	0,667	88,193	0	1015,16	7,7	9,4	9,2	1	1	1	1	1	1	1	1	1	0	1	-21,634954	275,043412	302,845128	0
15.01.2021	12:03:23	0	62,379887	4,319728	1,86825	355,7592	0,667	88,191	0	1015,2	7,7	9,3	9,2	1	1	1	1	1	1	1	1	1	0	1	-21,071177	274,949619	302,966528	0
15.01.2021	12:03:24	0	61,793633	2,728249	1,84725	355,3812	0,668	88,181	0	1015,18	7,6	9,3	9,2	1	1	1	1	1	1	1	1	1	0	1	-22,973925	275,048113	301,528344	0
15.01.2021	12:03:25	0	61,793223	4,206049	1,80075	350,6148	0,668	88,195	0	1015,3	7,7	9,4	9,2	1	1	1	1	1	1	1	1	1	0	1	-26,497533	275,043412	297,982549	0
15.01.2021	12:03:26	0	62,37952	5,115464	1,815	347,5908	0,663	88,195	0	1015,28	7,7	9,4	9,2	1	1	1	1	1	1	1	1	1	0	1	-23,326286	274,896671	300,461885	0
15.01.2021	12:03:27	0	62,027779	2,955601	1,8525	351,3708	0,666	88,199	0	1015,26	7,7	9,4	9,2	1	1	1	1	1	1	1	1	1	0	1	-21,634954	275,040278	302,830341	0
15.01.2021	12:03:28	0	61,793292	2,955601	1,9725	352,08	0,664	88,184	0	1015,3	7,7	9,4	9,2	1	1	1	1	1	1	1	1	1	0	1	-20,789288	274,878018	302,91101	0
15.01.2021	12:03:29	0	61,91057	2,387215	2,0295	351,0108	0,668	88,205	0	1015,24	7,7	9,4	9,2	1	1	1	1	1	1	1	1	1	0	1	-22,832981	274,985519	301,373995	0
15.01.2021	12:03:30	0	62,027848	3,182953	1,971	354,9672	0,66	88,2	0	1015,22	7,7	9,4	9,2	1	1	1	1	1	1	1	1	1	0	1	-20,366455	274,868698	303,289945	0
15.01.2021	12:03:31	0	61,910616	4,206045	1,8435	1,9044	0,667	88,216	0	1015,36	7,7	9,4	9,2	1	1	1	1	1	1	1	1	1	0	1	-21,987315	274,994895	302,263882	0
15.01.2021	12:03:32	0	61,910639	5,001782	1,752	4,824	0,666	88,203	0	1015,26	7,7	9,4	9,2	1	1	1	1	1	1	1	1	1	0	1	-21,49401	274,896671	302,294162	0
15.01.2021	12:03:33	0	62,145172	4,547074	1,6875	4,8276	0,668	88,204	0	1015,22	7,7	9,4	9,2	1	1	1	1	1	1	1	1	1	0	1	-24,171952	275,029314	300,241608	0
15.01.2021	12:03:34	0	61,793429	3,410305	1,64325	10,44	0,669	88,215	0	1015,36	7,7	9,4	9,2	1	1	1	1	1	1	1	1	1	0	1	-23,608175	274,941823	300,392782	0
15.01.2021	12:03:35	0	61,793452	3,523981	1,66725	4,8348	0,667	88,211	0	1015,32	7,7	9,4	9,2	1	1	1	1	1	1	1	1	1	0	1	-22,410148	274,865592	301,231625	0
15.01.2021	12:03:36	0	62,027986	2,728243	1,73175	16,5744	0,667	88,214	0	1015,34	7,7	9,4	9,2	1	1	1	1	1	1	1	1	1	0	1	-23,326286	274,916899	300,557198	0
15.01.2021	12:03:37	0	62,028009	4,660747	1,67475	6,4296	0,672	88,223	0	1015,44	7,7	9,4	9,2	1	1	1	1	1	1	1	1	1	0	1	-20,718816	275,013661	303,620899	0
15.01.2021	12:03:38	0	62,379797	4,433393	1,6125	1,5444	0,673	88,232	0	1015,42	7,7	9,4	9,2	1	1	1	1	1	1	1	1	1	0	1	-19,097956	274,876464	304,595024	0
15.01.2021	12:03:39	0	61,910799	3,296625	1,6635	0,486	0,667	88,213	0	1015,26	7,7	9,4	9,2	1	1	1	1	1	1	1	1	1	0	1	-21,071177	274,960538	303,018005	0
15.01.2021	12:03:40	0	61,910822	4,319715	1,6905	6,1632	0,686	88,219	0	1015,28	7,7	9,4	9,2	1	1	1	1	1	1	1	1	1	0	1	-21,705426	275,029314	302,708134	0
15.01.2021	12:03:41	0	61,793589	2,614564	1,683	13,914	0,663	88,212	0	1015,26	7,7	9,4	9,2	1	1	1	1	1	1	1	1	1	0	1	-21,141649	275,018356	303,220212	0
15.01.2021	12:03:42	0	61,793612	2,72824	1,7325	3,3876	0,668	88,232	0	1015,26	7,7	9,4	9,2	1	1	1	1	1	1	1	1	1	0	1	-18,393235	275,010532	305,93172	0
15.01.2021	12:03:43	0	61,793635	3,069269	1,719	18,45	0,673	88,224	0	1015,34	7,7	9,4	9,2	1	1	1	1	1	1	1	1	1	0	1	-24,806202	275,048113	299,696068	0
15.01.2021	12:03:44	0	61,793658	3,410299	1,63875	18,4536	0,67	88,229	0	1015,3	7,7	9,4	9,2	1	1	1	1	1	1	1	1	1	0	1	-22,198732	274,90756	301,640747	0
15.01.2021	12:03:45	0	61,676425	2,387209	1,62075	18,8352	0,67	88,217	0	1015,38	7,6	9,4	9,2	1	1	1	1	1	1	1	1	1	0	1	-17,406624	275,027748	306,999548	0
15.01.2021	12:03:46	0	62,14547	5,00174	1,554	13,1652	0,669	88,236	0	1015,32	7,7	9,4	9,3	1	1	1	1	1	1	1	1	1	0	1	-20,225511	275,019921	304,143734	0
15.01.2021	12:03:47	0	61,910982	4,547062	1,50075	12,8592	0,667	88,227	0	1015,2	7,7	9,4	9,2	1	1	1	1	1	1	1	1	1	0	1	-23,819591	275,046546	300,675282	0
15.01.2021	12:03:48	0	62,380027	4,660738	1,6305	23,1984	0,671	88,227	0	1015,38	7,7	9,4	9,2	1	1	1	1	1	1	1	1	1	0	1	-21,353066	275,035578	303,090053	0
15.01.2021	12:03:49	0	62,145539	3,182943	1,707	19,8864	0,667	88,223	0	1015,26	7,7	9,4	9,2	1	1	1	1	1	1	1	1	1	0	1	-22,973925	274,988644	301,247788	0
15.01.2021	12:03:50	0	61,793794	2,841912	1,845	17,6976	0,674	88,239	0	1015,42	7,7	9,4	9,2	1	1	1	1	1	1	1	1	1	0	1	-24,242424	275,044979	300,245053	0
15.01.2021	12:03:51	0	62,26284	4,888089	1,86375	27,774	0,67	88,224	0	1015,28	7,6	9,4	9,2	1	1	1	1	1	1	1	1	1	0	1	-18,675123	275,037145	305,775387	0
15.01.2021	12:03:52	0	61,676584	4,31968	1,86375	7,8732	0,674	88,228	0	1015,32	7,7	9,4	9,3	1	1	1	1	1	1	1	1	1	0	1	-22,551092	274,968341	301,57488	0
15.01.2021	12:03:53	0	61,676607	2,95557	1,8675	15,048	0,671	88,244	0	1015,26	7,7	9,4	9,3	1	1	1	1	1	1	1	1	1	0	1	-26,568006	275,048113	297,934264	0
15.01.2021	12:03:54	0	62,028397	4,092327	1,8105	13,9176	0,666	88,222	0	1015,16	7,7	9,4	9,3	1	1	1	1	1	1	1	1	1	0	1	-23,396758	274,987081	300,817586	0
15.01.2021	12:03:55	0	61,676652	4,206002	1,764	9,7632	0,674	88,24	0	1015,36	7,7	9,4	9,3	1	1	1	1	1	1	1	1	1	0	1	-18,604651	275,040278	305,860644	0
15.01.2021	12:03:56	0	61,911187	4,206026	1,7115	7,4988	0,671	88,246	0	1015,34	7,7	9,4	9,2	1	1	1	1	1	1	1	1	1	0	1	-18,534179	275,029314	305,879381	0
15.01.2021	12:03:57	0	61,442185	2,159838	1,6935	7,5204	0,674	88,255	0	1015,32	7,7	9,4	9,3	1	1	1	1	1	1	1	1	1	0	1	-21,987315	274,920012	301,910843	0
15.01.2021	12:03:58	0	61,67672	3,41027	1,752	5,7708	0,673	88,246	0	1015,22	7,7	9,4	9,3	1	1	1	1	1	1	1	1	1	0	1	-21,49401	275,048113	303,00826	0
15.01.2021	12:03:59	0	62,145767	4,660701	1,86	1,9224	0,674	88,246	0	1015,32	7,7	9,4	9,3	1	1	1	1	1	1	1	1	1	0	1	-22,551092	274,952738	301,501316	0
15.01.2021	12:04:00	0	61,676787	4,092346	2,02575	9,3744	0,673	88,262	0	1015,14	7,7	9,4	9,2	1	1	1	1	1	1	1	1	1	0	1	-22,057787	275,035578	302,385331	0
15.01.2021	12:04:01	0	61,676787	4,092346	2,02575	9,3744	0,673	88,262	0	1015,14	7,7	9,4	9,2	1	1	1	1	1	1	1	1	1	0	1	-29,105004	275,010532	295,219951	0
15.01.2021	12:04:02	0	61,794066	3,410288	1,94325	3,78	0,672	88,249	0	1015,32	7,7	9,4	9,2	1	1	1	1	1	1	1	1	1	0	1	-23,890063	274,954298	300,169699	0
15.01.2021	12:04:03	0	61,911345	4,54705	1,845	358,7868	0,68	88,27	0	1015,26	7,7	9,4	9,2	1	1	1	1	1	1	1	1	1	0	1	-18,816068	275,054384	305,715795	0
15.01.2021	12:04:04	0	61,794112	4,092344	1,773	5,6844	0,678	88,266	0	1015,28	7,6	9,4	9,2	1	1	1	1	1	1	1	1	1	0	1	-17,477097	274,882679	306,24516	0
15.01.2021	12:04:05	0	61,442365	3,182914	1,8045	2,646	0,673	88,267	0	1015,4	7,7	9,4	9,3	1	1	1	1	1	1	1	1	1	0	1	-19,450317	274,973025	304,697739	0
15.01.2021	12:04:06	0	61,325131	4,433344	1,8435	8,2476	0,676	88,275	0	1015,2	7,6	9,4	9,3	1	1	1	1	1	1	1	1	1	0	1	-19,379845	275,048113	305,122425	0
15.01.2021	12:04:07	0	61,207897	2,387185	1,78275	18,4464	0,675	88,265	0	1015,3	7,6	9,4	9,3	1	1	1	1	1	1	1	1	1	0	1	-24,171952	274,888896	299,579593	0
15.01.2021	12:04:08	0	61,325176	3,410264	1,68975	19,9044	0,674	88,257	0	1015,3	7,7	9,4	9,3	1	1	1	1	1	1	1	1	1	0	1	-19,450317	275,040278	305,014978	0
15.01.2021	12:04:09	0	61,325198	3,410263	1,61775	15,7752	0,678	88,334	0	1015,12	7,6	9,4	9,3	1	1	1	1	1	1	1	1	1	0	1	-20,718816	275,060656	303,842651	0
15.01.2021	12:04:10	0	61,090707	2,955579	1,632	7,5096	0,68	88,276	0	1015,24	7,6	9,4	9,2	1	1	1	1	1	1	1	1	1	0	1	-21,141649	274,977709	303,028497	0
15.01.2021	12:04:11	0	60,973473	2,955578	1,66125	2,6532	0,679	88,27	0	1015,12	7,7	9,4	9,2	1	1	1	1	1	1	1	1	1	0	1	-19,87315	274,895116	303,907695	0
15.01.2021	12:04:12	0	61,208008	4,888041	1,7115	9,3636	0,68	88,267	0	1015,46	7,7	9,4	9,3	1	1	1	1	1	1	1	1	1	0	1	-21,705426	275,007404	302,604771	0
15.01.2021	12:04:13	0	60,85626	1,932481	1,79025	3,0168	0,677	88,269	0	1015,36	7,7	9,4	9,3	1	1	1	1	1	1	1	1	1	0	1	-19,591261	274,896671	304,19691	0
15.01.2021	12:04:14	0	61,208053	4,547013	1,857	1,1772	0,684	88,276	0	1015,36	7,7	9,4	9,3	1	1	1	1	1	1	1	1	1	0	1	-13,953488	274,879571	309,754129	0
15.01.2021	12:04:15	0	61,442589	3,296584	2,061	7,8804	0,674	88,271	0	1015,24	7,7	9,4	9,3	1	1	1	1	1	1	1	1	1	0	1	-17,688513	274,934031	306,275714	0
15.01.2021	12:04:16	0	61,208097	4,433336	2,34	19,1592	0,677	88,26	0	1015,2	7,6	9,4	9,3	1	1	1	1	1	1	1	1	1	0	1	-21,353066	274,994895	302,898131	0
15.01.2021	12:04:17	0	60,973606	4,31966	2,57925	13,158	0,679	88,269	0	1015,26	7,7	9,4	9,3	1	1	1	1	1	1	1	1	1	0	1	-21,705426	275,05752	302,841237	0
15.01.2021	12:04:18	0	60,973628	3,978634	2,57175	10,8	0,677	88,25	0	1015,24	7,7	9,4	9,3	1	1	1	1	1	1	1	1	1	0	1	-18,675123	274,996458	305,583446	0
15.01.2021	12:04:19	0	60,856393	4,092308	2,586	5,2272	0,683	88,273	0	1015,38	7,7	9,4	9,3	1	1	1	1	1	1	1	1	1	0	1	-18,111346	275,046546	306,383527	0
15.01.2021	12:04:20	0	60,621901	4,660684	2,595	5,2164	0,677	88,262	0	1015,3	7,7	9,4	9,3	1	1	1	1	1	1	1	1	1	0	1	-15,503876	274,881125	308,211061	0
15.01.2021	12:04:21	0	60,621923	2,728221	2,7	5,2272	0,679	88,264	0	1015,34	7,7	9,4	9,2	1	1	1	1	1	1	1	1	1	0	1	-17,970402	274,958978	306,111424	0
15.01.2021	12:04:22	0	60,856459	3,52393	2,66625	357,6456	0,681	88,243	0	1015,26	7,7	9,4	9,3	1	1	1	1	1	1	1	1	1	0	1	-15,64482	275,034012	308,790908	0
15.01.2021	12:04:23	0	60,856481	3,069229	2,493	357,2604	0,677	88,25	0	1015,22	7,7	9,4	9,3	1	1	1	1	1	1	1	1	1	0	1	-18,181818	274,924684	305,738356	0
15.01.2021	12:04:24	0	60,973761	4,774356	2,36625	356,4864	0,677	88,256	0	1015,32	7,7	9,4	9,3	1	1	1	1	1	1	1	1	1	0	1	-15,64482	275,046546	308,850053	0
15.01.2021	12:04:25	0	60,504754	3,182903	2,298	343,8972	0,673	88,238	0	1015,24	7,7	9,4	9,3	1	1	1	1	1	1	1	1	1	0	1	-15,010571	274,988644	309,211143	0
15.01.2021	12:04:26	0	60,856547	3,751278	2,25375	358,7184	0,681	88,257	0	1015,26	7,7	9,4	9,3	1	1	1	1	1	1	1	1	1	0	1	-10,077519	274,882679	313,644737	0
15.01.2021	12:04:27	0	60,739312	4,888028	2,23275	348,3396	0,684	88,237	0	1015,34	7,7	9,4	9,3	1	1	1	1	1	1	1	1	1	0	1	-16,983791	274,999585	307,289525	0
15.01.2021	12:04:28	0	60,622077	3,182902	2,133	7,11	0,681	88,263	0	1015,4	7,7	9,4	9,3	1	1	1	1	1	1	1	1	1	0	1	-17,688513	275,019921	306,680732	0
15.01.2021	12:04:29	0	60,504841	2,955551	2,14425	359,4384	0,681	88,245	0	1015,3	7,7	9,4	9,3	1	1	1	1	1	1	1	1	1	0	1	-16,701903	274,884233	307,027675	0
15.01.2021	12:04:30	0	60,504863	3,751298	2,4135	6,8004	0,679	88,249	0	1015,14	7,7	9,4	9,2	1	1	1	1	1	1	1	1	1	0	1	-16,772375	275,05752	307,774289	0
15.01.2021	12:04:31	0	60,387627	3,1829	2,571	7,128	0,678	88,247	0	1015,22	7,7	9,4	9,3	1	1	1	1	1	1	1	1	1	0	1	-15,503876	274,927799	308,43098	0
15.01.2021	12:04:32	0	60,153134	2,841874	2,66175	0,576	0,682	88,247	0	1015,36	7,7	9,4	9,3	1	1	1	1	1	1	1	1	1	0	1	-15,010571	275,007404	309,299627	0
15.01.2021	12:04:33	0	59,91864	2,614524	2,664	4,0716	0,678	88,245	0	1015,3	7,7	9,4	9,3	1	1	1	1	1	1	1	1	1	0	1	-12,473573	275,051248	312,043492	0
15.01.2021	12:04:34	0	60,270435	3,523923	2,64525	11,7072	0,681	88,236	0	1015,28	7,7	9,4	9,3	1	1	1	1	1	1	1	1	1	0	1	-15,926709	274,976147	308,236073	0
15.01.2021	12:04:35	0	60,035941	3,523922	2,6325	15,012	0,688	88,266	0	1015,28	7,7	9,4	9,3	1	1	1	1	1	1	1	1	1	0	1	-20,366455	274,884233	303,363123	0
15.01.2021	12:04:36	0	59,918705	2,841872	2,54325	21,0096	0,683	88,245	0	1015,34	7,7	9,4	9,3	1	1	1	1	1	1	1	1	1	0	1	-21,141649	275,038711	303,316253	0
15.01.2021	12:04:37	0	60,035564	4,43332	2,37375	19,5192	0,682	88,263	0	1015,5	7,7	9,5	9,3	1	1	1	1	1	1	1	1	1	0	1	-15,715292	274,944941	308,300361	0
15.01.2021	12:04:38	0	59,801491	5,001694	2,1825	23,22	0,683	88,253	0	1015,24	7,7	9,4	9,3	1	1	1	1	1	1	1	1	1	0	1	-12,191684	274,874911	311,493978	0
15.01.2021	12:04:39	0	59,801512	2,500846	2,034	33,2532	0,683	88,263	0	1015,26	7,7	9,4	9,3	1	1	1	1	1	1	1	1	1	0	1	-15,221987	274,895116	308,558858	0
15.01.2021	12:04:40	0	59,684276	2,84187	2,0625	17,7012	0,683	88,265	0	1015,32	7,7	9,4	9,3	1	1	1	1	1	1	1	1	1	0	1	-18,322763	274,913785	305,54605	0
15.01.2021	12:04:41	0	59,801555	4,092293	2,07525	18,45	0,685	88,273	0	1015,18	7,7	9,4	9,3	1	1	1	1	1	1	1	1	1	0	1	-16,208598	275,054384	308,323265	0
15.01.2021	12:04:42	0	59,918835	3,637593	2,16075	21,762	0,683	88,267	0	1015,34	7,7	9,4	9,3	1	1	1	1	1	1	1	1	1	0	1	-19,309373	274,924684	304,610802	0
15.01.2021	12:04:43	0	59,567082	4,433316	2,115	29,5632	0,682	88,275	0	1015,44	7,7	9,4	9,3	1	1	1	1	1	1	1	1	1	0	1	-15,926709	274,985519	308,280267	0
15.01.2021	12:04:44	0	59,567103	2,500844	1,91775	26,514	0,683	88,258	0	1015,32	7,7	9,4	9,3	1	1	1	1	1	1	1	1	1	0	1	-15,292459	274,927799	308,642396	0
15.01.2021	12:04:45	0	59,21535	3,978615	1,71975	25,0236	0,688	88,255	0	1015,2	7,7	9,4	9,3	1	1	1	1	1	1	1	1	1	0	1	-16,490486	274,885788	307,246413	0
15.01.2021	12:04:46	0	59,449888	4,319639	1,62375	26,514	0,687	88,247	0	1015,3	7,4	9,4	9,3	1	1	1	1	1	1	1	1	1	0	1	-17,688513	275,048113	306,813757	0
15.01.2021	12:04:47	0	59,567168	4,774337	1,50375	21,0024	0,684	88,252	0	1015,26	7,7	9,4	9,3	1	1	1	1	1	1	1	1	1	0	1	-16,772375	274,963659	307,331521	0
15.01.2021	12:04:48	0	59,215414	2,159819	1,4775	11,7144	0,684	88,272	0	1015,4	7,7	9,4	9,3	1	1	1	1	1	1	1	1	1	0	1	-15,64482	275,041845	308,827868	0
15.01.2021	12:04:49	0	59,449952	3,296565	1,4655	17,7084	0,687	88,272	0	1015,3	7,7	9,4	9,3	1	1	1	1	1	1	1	1	1	0	1	-16,27907	274,913785	307,589743	0
15.01.2021	12:04:50	0	59,449973	4,43331	1,5285	27,2808	0,688	88,277	0	1015,36	7,4	9,4	9,3	1	1	1	1	1	1	1	1	1	0	1	-15,997181	275,019921	308,372063	0
15.01.2021	12:04:51	0	58,86329	3,978611	1,53975	26,19	0,688	88,275	0	1015,48	7,7	9,5	9,3	1	1	1	1	1	1	1	1	1	0	1	-16,913319	274,873357	306,765027	0
15.01.2021	12:04:52	0	58,863724	3,410237	1,57425	25,0164	0,69	88,274	0	1015,4	7,7	9,4	9,3	1	1	1	1	1	1	1	1	1	0	1	-17,89993	274,916899	305,983554	0
15.01.2021	12:04:53	0	58,863745	3,296562	1,581	14,2992	0,691	88,286	0	1015,28	7,7	9,4	9,3	1	1	1	1	1	1	1	1	1	0	1	-15,081043	275,046546	309,41383	0
15.01.2021	12:04:54	0	58,863766	4,092283	1,593	8,982	0,686	88,282	0	1015,28	7,7	9,4	9,3	1	1	1	1	1	1	1	1	1	0	1	-15,081043	274,910672	308,773101	0
15.01.2021	12:04:55	0	58,628859	4,433306	1,70175	14,3028	0,689	88,278	0	1015,38	7,7	9,5	9,3	1	1	1	1	1	1	1	1	1	0	1	-18,675123	275,021486	305,701505	0
15.01.2021	12:04:56	0	58,394774	3,182886	1,74825	13,9176	0,688	88,282	0	1015,38	7,7	9,4	9,3	1	1	1	1	1	1	1	1	1	0	1	-16,983791	275,055952	307,555471	0
15.01.2021	12:04:57	0	58,511643	3,182885	1,88325	30,7944	0,689	88,274	0	1015,24	7,7	9,5	9,3	1	1	1	1	1	1	1	1	1	0	1	-13,460183	275,007404	310,850014	0
15.01.2021	12:04:58	0	58,277557	2,955536	1,97475	4,8492	0,681	88,271	0	1015,34	7,7	9,4	9,3	1	1	1	1	1	1	1	1	1	0	1	-17,124736	275,062225	307,444135	0
15.01.2021	12:04:59	0	58,746612	4,433303	2,18925	10,7928	0,686	88,265	0	1015,34	7,7	9,4	9,3	1	1	1	1	1	1	1	1	1	0	1	-16,560958	275,010532	307,763997	0
15.01.2021	12:05:00	0	57,808584	2,614511	2,57475	19,1484	0,688	88,271	0	1015,36	7,7	9,4	9,3	1	1	1	1	1	1	1	1	1	0	1	-17,618041	274,985519	306,588935	0
15.01.2021	12:05:01	0	57,808584	2,614511	2,57475	19,1484	0,688	88,271	0	1015,36	7,7	9,4	9,3	1	1	1	1	1	1	1	1	1	0	1	-17,970402	274,878018	305,729896	0
15.01.2021	12:05:02	0	58,160381	4,546975	2,53875	20,6316	0,688	88,27	0	1015,28	7,7	9,4	9,3	1	1	1	1	1	1	1	1	1	0	1	-13,460183	274,921569	310,445313	0
15.01.2021	12:05:03	0	58,160401	4,660649	2,59575	12,4632	0,693	88,261	0	1015,24	7,7	9,4	9,3	1	1	1	1	1	1	1	1	1	0	1	-20,577872	275,060656	303,983596	0
15.01.2021	12:05:04	0	58,160422	3,751253	2,58975	350,9496	0,693	88,265	0	1015,22	7,7	9,4	9,3	1	1	1	1	1	1	1	1	1	0	1	-14,094433	274,982395	310,097809	0
15.01.2021	12:05:05	0	58,160443	3,523904	2,37675	354,7188	0,696	88,27	0	1015,4	7,4	9,4	9,3	1	1	1	1	1	1	1	1	1	0	1	-14,023961	275,054384	310,507902	0
15.01.2021	12:05:06	0	57,92554	2,614509	2,23425	351,4284	0,695	88,266	0	1015,32	7,7	9,5	9,3	1	1	1	1	1	1	1	1	1	0	1	-9,936575	274,929357	314,005622	0
15.01.2021	12:05:07	0	57,808707	4,205949	2,33625	341,352	0,69	88,266	0	1015,3	7,7	9,4	9,3	1	1	1	1	1	1	1	1	1	0	1	-15,151515	275,024617	309,239884	0
15.01.2021	12:05:08	0	57,691064	2,955531	2,51475	3,3732	0,694	88,265	0	1015,36	7,5	9,5	9,3	1	1	1	1	1	1	1	1	1	0	1	-18,463707	274,913785	305,405106	0
15.01.2021	12:05:09	0	57,808343	4,433296	2,61225	359,9136	0,688	88,247	0	1015,24	7,7	9,5	9,3	1	1	1	1	1	1	1	1	1	0	1	-12,05074	275,059088	312,503325	0
15.01.2021	12:05:10	0	57,691105	4,433295	2,9325	356,562	0,691	88,262	0	1015,42	7,7	9,5	9,3	1	1	1	1	1	1	1	1	1	0	1	-15,926709	274,971463	308,213985	0
15.01.2021	12:05:11	0	57,339752	3,182878	3,03225	0,4932	0,698	88,266	0	1015,36	7,7	9,4	9,3	1	1	1	1	1	1	1	1	1	0	1	-19,238901	274,871804	304,432129	0
15.01.2021	12:05:12	0	57,222113	3,296551	3,12825	10,8036	0,694	88,273	0	1015,26	7,4	9,5	9,3	1	1	1	1	1	1	1	1	1	0	1	-16,27907	274,985519	307,927906	0
15.01.2021	12:05:13	0	57,104874	2,500832	3,10875	6,0516	0,697	88,252	0	1015,26	7,7	9,5	9,3	1	1	1	1	1	1	1	1	1	0	1	-13,178295	274,884233	310,551283	0
15.01.2021	12:05:14	0	57,105295	2,500831	2,979	9,3708	0,696	88,278	0	1015,24	7,7	9,4	9,3	1	1	1	1	1	1	1	1	1	0	1	-17,970402	275,079486	306,679949	0
15.01.2021	12:05:15	0	56,870796	2,273483	3,009	0,8712	0,693	88,284	0	1015,2	7,7	9,4	9,3	1	1	1	1	1	1	1	1	1	0	1	-15,151515	274,994895	309,099681	0
15.01.2021	12:05:16	0	56,870418	2,955527	3,1875	356,9004	0,698	88,281	0	1015,38	7,7	9,5	9,3	1	1	1	1	1	1	1	1	1	0	1	-14,517266	275,073207	310,103446	0
15.01.2021	12:05:17	0	56,753179	2,614504	3,2175	359,55	0,693	88,278	0	1015,2	7,7	9,5	9,3	1	1	1	1	1	1	1	1	1	0	1	-14,164905	275,106193	310,611544	0
15.01.2021	12:05:18	0	56,519078	4,433289	2,92425	0,4896	0,695	88,284	0	1015,38	7,7	9,4	9,3	1	1	1	1	1	1	1	1	1	0	1	-15,362932	275,062225	309,205939	0
15.01.2021	12:05:19	0	56,987737	2,500829	2,64525	7,4988	0,692	88,285	0	1015,28	7,7	9,5	9,3	1	1	1	1	1	1	1	1	1	0	1	-13,248767	275,004276	311,046676	0
15.01.2021	12:05:20	0	56,518722	3,978591	2,427	8,6004	0,693	88,28	0	1015,26	7,7	9,5	9,3	1	1	1	1	1	1	1	1	1	0	1	-14,305849	275,03088	310,1151	0
15.01.2021	12:05:21	0	56,518742	2,387154	2,283	4,4676	0,698	88,288	0	1015,18	7,7	9,5	9,3	1	1	1	1	1	1	1	1	1	0	1	-10,077519	274,888896	313,674026	0
15.01.2021	12:05:22	0	56,636021	4,319612	2,2665	35,946	0,693	88,284	0	1015,12	7,7	9,5	9,3	1	1	1	1	1	1	1	1	1	0	1	-13,248767	275,002712	311,0393	0
15.01.2021	12:05:23	0	56,284264	3,410219	2,061	23,9652	0,691	88,285	0	1015,3	7,7	9,5	9,3	1	1	1	1	1	1	1	1	1	0	1	-17,124736	275,034012	307,310992	0
15.01.2021	12:05:24	0	56,519198	4,433284	1,884	0	0,703	88,298	0	1015,16	7,5	9,4	9,3	1	1	1	1	1	1	1	1	1	0	1	-17,054264	274,888896	306,697282	0
15.01.2021	12:05:25	0	56,167045	4,774305	1,92075	16,8696	0,699	88,288	0	1015,38	7,5	9,5	9,3	1	1	1	1	1	1	1	1	1	0	1	-13,812544	275,019921	310,556701	0
15.01.2021	12:05:26	0	55,932938	2,6145	2,049	26,9172	0,705	88,295	0	1015,34	7,7	9,4	9,3	1	1	1	1	1	1	1	1	1	0	1	-13,248767	274,882679	310,47349	0
15.01.2021	12:05:27	0	56,049825	4,774304	2,11125	15,3936	0,697	88,272	0	1015,12	7,7	9,5	9,3	1	1	1	1	1	1	1	1	1	0	1	-16,349542	274,980833	307,835334	0
15.01.2021	12:05:28	0	56,167104	3,978586	2,22975	6,048	0,699	88,289	0	1015,36	7,7	9,5	9,3	1	1	1	1	1	1	1	1	1	0	1	-15,362932	274,892006	308,403262	0
15.01.2021	12:05:29	0	56,284383	4,43328	2,28825	10,8036	0,704	88,288	0	1015,18	7,5	9,5	9,3	1	1	1	1	1	1	1	1	1	0	1	-11,134602	275,027748	313,271571	0
15.01.2021	12:05:30	0	55,932625	4,774301	2,18025	354,6144	0,696	88,281	0	1015,3	7,7	9,5	9,3	1	1	1	1	1	1	1	1	1	0	1	-15,362932	275,015226	308,984165	0
15.01.2021	12:05:31	0	55,698127	3,523888	2,0835	352,1628	0,701	88,273	0	1015,36	7,7	9,5	9,3	1	1	1	1	1	1	1	1	1	0	1	-14,305849	275,063793	310,270425	0
15.01.2021	12:05:32	0	55,815405	4,205931	2,00175	4,8384	0,698	88,266	0	1015,38	7,7	9,5	9,3	1	1	1	1	1	1	1	1	1	0	1	-12,825934	275,027748	311,580239	0
15.01.2021	12:05:33	0	56,049944	3,410213	2,0235	352,458	0,703	88,291	0	1015,32	7,7	9,5	9,3	1	1	1	1	1	1	1	1	1	0	1	-13,742072	275,0685	310,856418	0
15.01.2021	12:05:34	0	55,933096	2,955518	1,9785	360	0,698	88,278	0	1015,28	7,7	9,4	9,3	1	1	1	1	1	1	1	1	1	0	1	-13,03735	274,930915	310,912189	0
15.01.2021	12:05:35	0	55,815464	4,54695	2,034	358,6608	0,695	88,274	0	1015,22	7,4	9,5	9,3	1	1	1	1	1	1	1	1	1	0	1	-13,460183	275,065362	311,123495	0
15.01.2021	12:05:36	0	55,698224	3,410212	2,0775	6,0516	0,7	88,286	0	1015,28	7,7	9,5	9,3	1	1	1	1	1	1	1	1	1	0	1	-9,44327	274,962098	314,653269	0
15.01.2021	12:05:37	0	55,463725	2,500821	2,21175	2,6352	0,702	88,267	0	1015,22	7,7	9,5	9,3	1	1	1	1	1	1	1	1	1	0	1	-12,825934	275,048113	311,676336	0
15.01.2021	12:05:38	0	55,463744	3,751254	2,3985	360	0,698	88,263	0	1015,16	7,7	9,5	9,2	1	1	1	1	1	1	1	1	1	0	1	-10,500352	274,943382	313,507952	0
15.01.2021	12:05:39	0	55,581023	4,319599	2,673	2,3868	0,696	88,265	0	1015,3	7,7	9,5	9,3	1	1	1	1	1	1	1	1	1	0	1	-12,684989	275,065362	311,898689	0
15.01.2021	12:05:40	0	55,698302	4,433272	2,97825	356,508	0,706	88,26	0	1015,26	7,7	9,5	9,3	1	1	1	1	1	1	1	1	1	0	1	-16,701903	274,988644	307,519811	0
15.01.2021	12:05:41	0	55,463803	4,205949	3,08325	358,3836	0,704	88,265	0	1015,22	7,7	9,5	9,2	1	1	1	1	1	1	1	1	1	0	1	-10,993658	274,90756	312,845821	0
15.01.2021	12:05:42	0	55,346562	4,319597	3,10125	352,0872	0,701	88,255	0	1015,32	7,7	9,5	9,3	1	1	1	1	1	1	1	1	1	0	1	-9,866103	274,921569	314,039393	0
15.01.2021	12:05:43	0	55,112062	2,500819	3,0975	354,2328	0,707	88,262	0	1015,28	7,7	9,5	9,3	1	1	1	1	1	1	1	1	1	0	1	-8,949965	275,049681	315,559702	0
15.01.2021	12:05:44	0	55,463861	3,18286	3,23475	353,2536	0,698	88,261	0	1015,26	7,7	9,5	9,3	1	1	1	1	1	1	1	1	1	0	1	-10,782241	274,9465	313,240762	0
15.01.2021	12:05:45	0	55,46388	3,637554	3,29475	350,316	0,706	88,257	0	1015,22	7,7	9,5	9,3	1	1	1	1	1	1	1	1	1	0	1	-15,081043	274,882679	308,641214	0
15.01.2021	12:05:46	0	55,11212	2,955512	3,0855	355,0068	0,709	88,255	0	1015,26	7,7	9,5	9,3	1	1	1	1	1	1	1	1	1	0	1	-11,134602	274,938706	312,851661	0
15.01.2021	12:05:47	0	54,877619	2,387144	3,12	349,4268	0,704	88,252	0	1015,38	7,5	9,5	9,3	1	1	1	1	1	1	1	1	1	0	1	-11,980268	274,867145	311,668818	0
15.01.2021	12:05:48	0	54,994898	3,523878	3,1845	347,6232	0,704	88,25	0	1015,3	7,7	9,5	9,3	1	1	1	1	1	1	1	1	1	0	1	-11,557435	274,923127	312,3554	0
15.01.2021	12:05:49	0	55,112178	3,523878	2,83125	343,476	0,693	88,246	0	1015,2	7,5	9,5	9,3	1	1	1	1	1	1	1	1	1	0	1	-11,557435	274,884233	312,172143	0
15.01.2021	12:05:50	0	55,229457	4,433291	2,29575	356,5512	0,704	88,25	0	1015,26	7,7	9,5	9,2	1	1	1	1	1	1	1	1	1	0	1	-12,684989	275,041845	311,787699	0
15.01.2021	12:05:51	0	54,994956	2,955509	2,06775	348,3	0,703	88,25	0	1015,26	7,5	9,5	9,3	1	1	1	1	1	1	1	1	1	0	1	-11,134602	274,957418	312,939869	0
15.01.2021	12:05:52	0	55,229495	3,637549	2,097	348,0588	0,696	88,243	0	1015,14	7,7	9,5	9,3	1	1	1	1	1	1	1	1	1	0	1	-11,41649	275,066931	313,174593	0
15.01.2021	12:05:53	0	54,994994	2,955526	2,139	346,4964	0,707	88,251	0	1015,22	7,7	9,5	9,2	1	1	1	1	1	1	1	1	1	0	1	-9,725159	274,974586	314,43026	0
15.01.2021	12:05:54	0	55,230307	5,001629	2,25825	350,28	0,705	88,233	0	1015,3	7,7	9,3	9,3	1	1	1	1	1	1	1	1	1	0	1	-12,755462	275,044979	311,732016	0
15.01.2021	12:05:55	0	54,760512	2,841834	2,25825	347,4936	0,703	88,237	0	1015,2	7,7	9,5	9,3	1	1	1	1	1	1	1	1	1	0	1	-10,077519	274,971463	314,063175	0
15.01.2021	12:05:56	0	54,877791	4,433287	2,30025	356,8392	0,702	88,23	0	1015,32	7,5	9,5	9,2	1	1	1	1	1	1	1	1	1	0	1	-13,812544	275,060656	310,748923	0
15.01.2021	12:05:57	0	55,112331	3,637546	2,376	351,7164	0,706	88,225	0	1015,32	7,7	9,5	9,3	1	1	1	1	1	1	1	1	1	0	1	-10,993658	274,916899	312,889826	0
15.01.2021	12:05:58	0	54,643309	2,955506	2,2935	350,748	0,706	88,229	0	1015,32	7,5	9,5	9,3	1	1	1	1	1	1	1	1	1	0	1	-10,007047	274,902892	313,810438	0
15.01.2021	12:05:59	0	54,408807	2,841832	2,33025	352,8432	0,708	88,22	0	1015,18	7,7	9,5	9,3	1	1	1	1	1	1	1	1	1	0	1	-10,077519	274,898226	313,71798	0
15.01.2021	12:06:00	0	54,643366	2,955522	2,511	358,3836	0,703	88,192	0	1015,24	7,5	9,5	9,2	1	1	1	1	1	1	1	1	1	0	1	-11,627907	274,885788	312,108993	0
15.01.2021	12:06:01	0	54,643366	2,955522	2,511	358,3836	0,703	88,192	0	1015,24	7,5	9,5	9,2	1	1	1	1	1	1	1	1	1	0	1	-11,627907	274,885788	312,108993	0
15.01.2021	12:06:02	0	54,995936	5,115326	2,3715	356,5404	0,699	88,181	0	1015,1	7,5	9,3	9,2	1	1	1	1	1	1	1	1	1	0	1	-12,191684	274,943382	311,816621	0
15.01.2021	12:06:03	0	54,526143	3,069177	2,334	5,2092	0,7	88,17	0	1015,06	7,7	9,5	9,3	1	1	1	1	1	1	1	1	1	0	1	-9,090909	275,048113	315,411361	0
15.01.2021	12:06:04	0	54,643422	3,978562	2,2755	358,1748	0,703	88,174	0	1015,26	7,5	9,5	9,3	1	1	1	1	1	1	1	1	1	0	1	-12,966878	274,932473	310,990005	0
15.01.2021	12:06:05	0	54,526181	2,841829	2,23275	3,006	0,705	88,178	0	1015,32	7,5	9,5	9,3	1	1	1	1	1	1	1	1	1	0	1	-10,42988	274,896671	313,358291	0
15.01.2021	12:06:06	0	54,877981	4,660599	2,208	358,722	0,711	88,17	0	1015,34	7,5	9,5	9,3	1	1	1	1	1	1	1	1	1	0	1	-10,923185	275,018356	313,438676	0
15.01.2021	12:06:07	0	54,526218	3,069193	2,151	358,722	0,709	88,168	0	1015,24	7,5	9,5	9,2	1	1	1	1	1	1	1	1	1	0	1	-6,906272	275,023051	317,477742	0
15.01.2021	12:06:08	0	54,760759	2,955519	2,0925	355,4208	0,703	88,155	0	1015,2	7,5	9,5	9,2	1	1	1	1	1	1	1	1	1	0	1	-13,812544	274,910672	310,0416	0
15.01.2021	12:06:09	0	54,760778	5,001616	2,0955	4,5432	0,704	88,165	0	1015,14	7,5	9,5	9,3	1	1	1	1	1	1	1	1	1	0	1	-10,077519	275,024617	314,31388	0
15.01.2021	12:06:10	0	54,409014	3,523865	2,196	4,0788	0,706	88,17	0	1015,3	7,5	9,5	9,3	1	1	1	1	1	1	1	1	1	0	1	-14,023961	275,015226	310,323136	0
15.01.2021	12:06:11	0	54,526294	3,864884	2,15175	4,0788	0,706	88,177	0	1015,26	7,5	9,5	9,3	1	1	1	1	1	1	1	1	1	0	1	-9,654686	274,893561	314,118832	0
15.01.2021	12:06:12	0	54,760834	3,637537	2,115	0,126	0,709	88,177	0	1015,44	7,5	9,5	9,3	1	1	1	1	1	1	1	1	1	0	1	-7,892882	274,923127	316,019952	0
15.01.2021	12:06:13	0	54,526331	3,637536	2,142	0,864	0,706	88,169	0	1015,38	7,5	9,5	9,3	1	1	1	1	1	1	1	1	1	0	1	-12,121212	274,885788	311,615687	0
15.01.2021	12:06:14	0	54,760872	3,182863	2,11875	6,0552	0,707	88,17	0	1015,34	7,5	9,5	9,2	1	1	1	1	1	1	1	1	1	0	1	-9,020437	274,912229	314,841041	0
15.01.2021	12:06:15	0	54,64363	3,978578	2,112	356,2092	0,707	88,172	0	1015,34	7,5	9,5	9,2	1	1	1	1	1	1	1	1	1	0	1	-13,389711	274,9465	310,633292	0
15.01.2021	12:06:16	0	54,291865	4,319572	2,1225	4,842	0,711	88,175	0	1015,44	7,5	9,5	9,3	1	1	1	1	1	1	1	1	1	0	1	-14,65821	275,049681	309,851457	0
15.01.2021	12:06:17	0	54,87819	4,433245	2,115	4,8492	0,708	88,193	0	1015,26	7,5	9,5	9,3	1	1	1	1	1	1	1	1	1	0	1	-11,980268	274,924684	311,939907	0
15.01.2021	12:06:18	0	54,526425	4,43327	2,0505	10,8072	0,701	88,169	0	1015,36	7,5	9,5	9,2	1	1	1	1	1	1	1	1	1	0	1	-12,191684	274,898226	311,603815	0
15.01.2021	12:06:19	0	54,409183	4,31957	1,947	22,8348	0,704	88,178	0	1015,34	7,5	9,5	9,3	1	1	1	1	1	1	1	1	1	0	1	-9,302326	275,0685	315,296164	0
15.01.2021	12:06:20	0	54,526463	5,001607	1,8045	12,1032	0,708	88,155	0	1015,22	7,5	9,5	9,3	1	1	1	1	1	1	1	1	1	0	1	-13,03735	274,9465	310,985653	0
15.01.2021	12:06:21	0	54,761004	4,092248	1,689	27,6588	0,712	88,154	0	1015,34	7,7	9,5	9,2	1	1	1	1	1	1	1	1	1	0	1	-8,386187	274,874911	315,299475	0
15.01.2021	12:06:22	0	54,644527	2,614475	1,61025	22,4604	0,705	88,156	0	1015,3	7,5	9,3	9,3	1	1	1	1	1	1	1	1	1	0	1	-11,275546	275,021486	313,101083	0
15.01.2021	12:06:23	0	54,526519	4,887931	1,5225	17,3196	0,706	88,167	0	1015,38	7,5	9,5	9,3	1	1	1	1	1	1	1	1	1	0	1	-9,654686	275,044979	314,832791	0
15.01.2021	12:06:24	0	54,409276	3,864899	1,5285	17,226	0,709	88,168	0	1015,32	7,5	9,5	9,2	1	1	1	1	1	1	1	1	1	0	1	-8,245243	274,876464	315,447737	0
15.01.2021	12:06:25	0	54,292033	3,410184	1,548	22,4532	0,701	88,142	0	1015,36	7,5	9,5	9,3	1	1	1	1	1	1	1	1	1	0	1	-9,584214	275,052816	314,940249	0
15.01.2021	12:06:26	0	54,643836	4,433238	1,64925	35,0748	0,707	88,168	0	1015,36	7,5	9,5	9,3	1	1	1	1	1	1	1	1	1	0	1	-9,231853	275,010532	315,093102	0
15.01.2021	12:06:27	0	54,29207	3,069164	1,7565	26,1828	0,714	88,169	0	1015,32	7,7	9,5	9,3	1	1	1	1	1	1	1	1	1	0	1	-15,151515	275,043412	309,328567	0
15.01.2021	12:06:28	0	54,409351	4,660582	1,728	12,852	0,713	88,165	0	1015,36	7,5	9,5	9,3	1	1	1	1	1	1	1	1	1	0	1	-14,235377	274,885788	309,501523	0
15.01.2021	12:06:29	0	54,174846	2,500815	1,59975	20,2788	0,712	88,166	0	1015,28	7,5	9,5	9,2	1	1	1	1	1	1	1	1	1	0	1	-8,033827	274,974586	316,121592	0
15.01.2021	12:06:30	0	54,409388	4,546935	1,542	10,0548	0,705	88,169	0	1015,26	7,5	9,5	9,2	1	1	1	1	1	1	1	1	1	0	1	-12,473573	275,062225	312,095297	0
15.01.2021	12:06:31	0	54,175642	2,614472	1,614	16,938	0,713	88,167	0	1015,36	7,5	9,3	9,3	1	1	1	1	1	1	1	1	1	0	1	-11,275546	275,013661	313,064169	0
15.01.2021	12:06:32	0	54,17566	3,523873	1,58025	5,2128	0,708	88,158	0	1015,48	7,7	9,3	9,2	1	1	1	1	1	1	1	1	1	0	1	-13,389711	274,924684	310,530463	0
15.01.2021	12:06:33	0	54,292942	3,637546	1,69425	3,0384	0,711	88,175	0	1015,34	7,5	9,3	9,2	1	1	1	1	1	1	1	1	1	0	1	-7,610994	274,979271	316,566517	0
15.01.2021	12:06:34	0	54,175697	2,841833	1,67925	4,842	0,712	88,181	0	1015,42	7,5	9,3	9,2	1	1	1	1	1	1	1	1	1	0	1	-6,060606	275,040278	318,404689	0
15.01.2021	12:06:35	0	54,292219	2,841815	1,6455	357,2532	0,708	88,164	0	1015,26	7,5	9,5	9,3	1	1	1	1	1	1	1	1	1	0	1	-8,668076	274,915342	315,208072	0
15.01.2021	12:06:36	0	54,409499	2,500797	1,65225	355,8636	0,712	88,184	0	1015,42	7,5	9,5	9,3	1	1	1	1	1	1	1	1	1	0	1	-11,275546	275,004276	313,019897	0
15.01.2021	12:06:37	0	54,527543	5,342642	1,8	348,7176	0,708	88,176	0	1015,14	7,5	9,3	9,2	1	1	1	1	1	1	1	1	1	0	1	-9,795631	275,007404	314,514567	0
15.01.2021	12:06:38	0	54,05775	2,614484	1,90275	14,6448	0,71	88,171	0	1015,36	7,5	9,5	9,2	1	1	1	1	1	1	1	1	1	0	1	-13,319239	274,926242	310,608276	0
15.01.2021	12:06:39	0	54,175031	4,546901	2,094	7,8732	0,707	88,163	0	1015,26	7,5	9,5	9,3	1	1	1	1	1	1	1	1	1	0	1	-11,205074	275,063793	313,3712	0
15.01.2021	12:06:40	0	54,526835	3,978538	2,42175	11,6892	0,706	88,145	0	1015,18	7,5	9,5	9,3	1	1	1	1	1	1	1	1	1	0	1	-9,090909	274,930915	314,858631	0
15.01.2021	12:06:41	0	54,29233	4,433254	2,58825	18,8424	0,714	88,175	0	1015,42	7,5	9,5	9,2	1	1	1	1	1	1	1	1	1	0	1	-11,768851	274,932473	312,188032	0
15.01.2021	12:06:42	0	54,057824	3,182848	2,46225	0,8568	0,715	88,156	0	1015,3	7,5	9,5	9,2	1	1	1	1	1	1	1	1	1	0	1	-7,470049	274,898226	316,32545	0
15.01.2021	12:06:43	0	53,941336	2,500809	2,37225	11,1924	0,714	88,157	0	1015,3	7,5	9,3	9,2	1	1	1	1	1	1	1	1	1	0	1	-8,527132	275,012097	315,805203	0
15.01.2021	12:06:44	0	54,175123	2,728155	2,4135	5,2056	0,714	88,156	0	1015,34	7,5	9,5	9,2	1	1	1	1	1	1	1	1	1	0	1	-9,513742	275,027748	314,89243	0
15.01.2021	12:06:45	0	54,058636	4,887943	2,19225	355,0464	0,711	88,154	0	1015,38	7,5	9,3	9,2	1	1	1	1	1	1	1	1	1	0	1	-7,610994	274,929357	316,331204	0
15.01.2021	12:06:46	0	54,057897	4,660596	1,98075	13,1652	0,713	88,152	0	1015,28	7,7	9,5	9,2	1	1	1	1	1	1	1	1	1	0	1	-12,825934	274,994895	311,425263	0
15.01.2021	12:06:47	0	54,058673	2,841826	2,0235	352,4976	0,711	88,173	0	1015,34	7,5	9,3	9,2	1	1	1	1	1	1	1	1	1	0	1	-10,500352	274,876464	313,192628	0
15.01.2021	12:06:48	0	53,824163	3,182845	2,24775	17,676	0,707	88,159	0	1015,36	7,5	9,3	9,2	1	1	1	1	1	1	1	1	1	0	1	-10,359408	275,002712	313,928659	0
15.01.2021	12:06:49	0	53,941446	3,069153	2,241	7,8732	0,714	88,158	0	1015,28	7,5	9,3	9,3	1	1	1	1	1	1	1	1	1	0	1	-9,161381	275,059088	315,392684	0
15.01.2021	12:06:50	0	54,292496	4,774266	2,13675	16,8408	0,711	88,163	0	1015,28	7,5	9,5	9,2	1	1	1	1	1	1	1	1	1	0	1	-8,527132	275,002712	315,760935	0
15.01.2021	12:06:51	0	53,706954	2,728135	2,09175	20,628	0,717	88,163	0	1015,3	7,5	9,3	9,3	1	1	1	1	1	1	1	1	1	0	1	-11,41649	275,051248	313,100574	0
15.01.2021	12:06:52	0	54,058765	3,06917	1,9515	24,7176	0,717	88,163	0	1015,34	7,5	9,3	9,2	1	1	1	1	1	1	1	1	1	0	1	-9,090909	274,974586	315,064509	0
15.01.2021	12:06:53	0	53,70699	2,728151	1,86225	23,9544	0,712	88,171	0	1015,36	7,5	9,3	9,2	1	1	1	1	1	1	1	1	1	0	1	-9,090909	275,062225	315,477961	0
15.01.2021	12:06:54	0	53,706256	3,182823	1,97475	11,6964	0,717	88,172	0	1015,32	7,5	9,5	9,3	1	1	1	1	1	1	1	1	1	0	1	-8,174771	275,010532	316,150184	0
15.01.2021	12:06:55	0	53,589012	2,614477	1,94175	12,8592	0,721	88,177	0	1015,34	7,5	9,5	9,2	1	1	1	1	1	1	1	1	1	0	1	-8,45666	274,904448	315,368156	0
15.01.2021	12:06:56	0	53,58978	3,978551	1,989	18,4356	0,714	88,173	0	1015,34	7,5	9,3	9,2	1	1	1	1	1	1	1	1	1	0	1	-9,725159	274,884233	314,004419	0
15.01.2021	12:06:57	0	53,706311	3,18284	2,2515	35,0928	0,714	88,161	0	1015,36	7,5	9,5	9,2	1	1	1	1	1	1	1	1	1	0	1	-8,386187	274,990207	315,842896	0
15.01.2021	12:06:58	0	53,824345	4,205896	2,298	15,0336	0,713	88,159	0	1015,36	7,5	9,3	9,2	1	1	1	1	1	1	1	1	1	0	1	-9,161381	275,043412	315,318701	0
15.01.2021	12:06:59	0	53,706347	3,637509	2,4015	9,7704	0,717	88,185	0	1015,36	7,5	9,5	9,3	1	1	1	1	1	1	1	1	1	0	1	-11,205074	275,008968	313,112502	0
15.01.2021	12:07:00	0	53,941664	4,092221	2,52975	4,4604	0,722	88,182	0	1015,38	7,5	9,3	9,2	1	1	1	1	1	1	1	1	1	0	1	-8,315715	274,898226	315,479784	0
15.01.2021	12:07:01	0	53,941664	4,092221	2,52975	4,4604	0,722	88,182	0	1015,38	7,5	9,3	9,2	1	1	1	1	1	1	1	1	1	0	1	-8,386187	275,004276	315,909256	0
15.01.2021	12:07:02	0	53,35536	3,296511	2,51925	3,3984	0,716	88,18	0	1015,38	7,5	9,3	9,2	1	1	1	1	1	1	1	1	1	0	1	-8,738548	274,892006	315,027645	0
15.01.2021	12:07:03	0	53,706419	4,774227	2,51025	13,1508	0,72	88,179	0	1015,36	7,5	9,5	9,3	1	1	1	1	1	1	1	1	1	0	1	-9,513742	275,018356	314,848119	0
15.01.2021	12:07:04	0	53,47266	4,205891	2,4465	4,4604	0,717	88,182	0	1015,32	7,6	9,3	9,2	1	1	1	1	1	1	1	1	1	0	1	-8,949965	275,066931	315,641119	0
15.01.2021	12:07:05	0	53,707208	3,864873	2,40975	10,8072	0,713	88,181	0	1015,38	7,5	9,3	9,2	1	1	1	1	1	1	1	1	1	0	1	-14,446794	275,018356	309,915068	0
15.01.2021	12:07:06	0	53,354684	2,614472	2,37975	10,818	0,72	88,198	0	1015,3	7,6	9,5	9,2	1	1	1	1	1	1	1	1	1	0	1	-9,302326	274,90756	314,537153	0
15.01.2021	12:07:07	0	53,237439	2,387126	2,415	6,0768	0,71	88,187	0	1015,28	7,5	9,5	9,2	1	1	1	1	1	1	1	1	1	0	1	-10,852713	275,071638	313,76059	0
15.01.2021	12:07:08	0	53,471983	3,637525	2,562	7,5096	0,718	88,183	0	1015,36	7,5	9,5	9,2	1	1	1	1	1	1	1	1	1	0	1	-8,527132	274,993332	315,716693	0
15.01.2021	12:07:09	0	53,355485	4,546879	2,5875	4,4568	0,721	88,205	0	1015,48	7,5	9,3	9,3	1	1	1	1	1	1	1	1	1	0	1	-11,486963	274,902892	312,330523	0
15.01.2021	12:07:10	0	53,706545	4,77425	2,49525	20,628	0,719	88,181	0	1015,32	7,5	9,5	9,2	1	1	1	1	1	1	1	1	1	0	1	-11,486963	275,007404	312,823235	0
15.01.2021	12:07:11	0	53,120247	4,77425	2,514	22,4568	0,726	88,176	0	1015,32	7,5	9,5	9,2	1	1	1	1	1	1	1	1	1	0	1	-9,936575	275,052816	314,587888	0
15.01.2021	12:07:12	0	53,590069	3,182833	2,60025	23,58	0,718	88,172	0	1015,22	7,5	9,3	9,2	1	1	1	1	1	1	1	1	1	0	1	-12,966878	274,935589	311,004693	0
15.01.2021	12:07:13	0	53,003019	2,841814	2,7015	6,0516	0,728	88,177	0	1015,32	7,5	9,5	9,2	1	1	1	1	1	1	1	1	1	0	1	-5,990134	275,038711	318,467768	0
15.01.2021	12:07:14	0	53,00378	3,182832	2,775	7,8876	0,723	88,16	0	1015,02	7,6	9,3	9,2	1	1	1	1	1	1	1	1	1	0	1	-12,121212	275,0685	312,477277	0
15.01.2021	12:07:15	0	53,238328	2,614468	2,68725	352,152	0,716	88,145	0	1015,46	7,5	9,3	9,2	1	1	1	1	1	1	1	1	1	0	1	-14,305849	274,934031	309,658377	0
15.01.2021	12:07:16	0	52,88655	2,27345	2,61825	357,9588	0,725	88,158	0	1015,36	7,6	9,3	9,2	1	1	1	1	1	1	1	1	1	0	1	-10,359408	275,059088	314,194657	0
15.01.2021	12:07:17	0	53,003833	4,660545	2,51175	353,5128	0,721	88,129	0	1015,14	7,6	9,3	9,3	1	1	1	1	1	1	1	1	1	0	1	-10,782241	275,040278	313,683054	0
15.01.2021	12:07:18	0	53,472911	5,001589	2,295	356,2452	0,72	88,144	0	1015,28	7,5	9,3	9,2	1	1	1	1	1	1	1	1	1	0	1	-10,218464	274,993332	314,025361	0
15.01.2021	12:07:19	0	53,121134	3,523846	2,31075	360	0,721	88,137	0	1015,5	7,6	9,3	9,2	1	1	1	1	1	1	1	1	1	0	1	-7,047216	275,238701	318,35541	0
15.01.2021	12:07:20	0	53,237671	4,887915	2,29425	359,5824	0,717	88,129	0	1015,22	7,5	9,5	9,2	1	1	1	1	1	1	1	1	1	0	1	-7,117689	275,018356	317,244173	0
15.01.2021	12:07:21	0	53,003532	3,978535	2,35275	6,048	0,716	88,114	0	1015,34	7,5	9,4	9,2	1	1	1	1	1	1	1	1	1	0	1	-9,372798	275,065362	315,210881	0
15.01.2021	12:07:22	0	53,238452	5,115258	2,37675	9,36	0,715	88,116	0	1015,22	7,6	9,3	9,2	1	1	1	1	1	1	1	1	1	0	1	-7,610994	274,996458	316,647576	0
15.01.2021	12:07:23	0	53,003568	3,751189	2,5095	7,5024	0,72	88,124	0	1015,34	7,6	9,4	9,2	1	1	1	1	1	1	1	1	1	0	1	-5,285412	275,048113	319,216857	0
15.01.2021	12:07:24	0	52,769426	2,955482	2,6385	1,9296	0,725	88,116	0	1015,44	7,5	9,3	9,2	1	1	1	1	1	1	1	1	1	0	1	-8,597604	275,010532	315,727351	0
15.01.2021	12:07:25	0	53,12124	3,069154	2,63475	6,066	0,726	88,116	0	1015,42	7,5	9,3	9,2	1	1	1	1	1	1	1	1	1	0	1	-10,359408	275,004276	313,936035	0
15.01.2021	12:07:26	0	52,885986	2,955481	2,52	7,5024	0,724	88,121	0	1015,44	7,6	9,5	9,2	1	1	1	1	1	1	1	1	1	0	1	-14,869626	274,923127	309,043208	0
15.01.2021	12:07:27	0	53,003638	3,978531	2,5185	8,604	0,725	88,114	0	1015,44	7,5	9,4	9,2	1	1	1	1	1	1	1	1	1	0	1	-9,654686	275,062225	314,914184	0
15.01.2021	12:07:28	0	52,534965	2,387118	2,553	10,4472	0,721	88,107	0	1015,28	7,5	9,3	9,2	1	1	1	1	1	1	1	1	1	0	1	-11,275546	274,94806	312,754807	0
15.01.2021	12:07:29	0	52,769514	2,614462	2,59575	13,1724	0,715	88,112	0	1015,38	7,6	9,3	9,2	1	1	1	1	1	1	1	1	1	0	1	-6,412967	275,059088	318,141098	0
15.01.2021	12:07:30	0	53,004062	2,841807	2,74725	358,416	0,721	88,085	0	1015,3	7,6	9,3	9,2	1	1	1	1	1	1	1	1	1	0	1	-12,191684	274,985519	312,015292	0
15.01.2021	12:07:31	0	52,534649	3,296495	2,679	24,3324	0,722	88,105	0	1015,4	7,5	9,4	9,2	1	1	1	1	1	1	1	1	1	0	1	-10,359408	274,896671	313,428764	0
15.01.2021	12:07:32	0	52,886832	3,637511	2,53725	17,3304	0,718	88,097	0	1015,3	7,6	9,3	9,2	1	1	1	1	1	1	1	1	1	0	1	-9,936575	275,002712	314,351492	0
15.01.2021	12:07:33	0	52,886479	4,660561	2,32275	20,6172	0,722	88,094	0	1015,34	7,5	9,4	9,2	1	1	1	1	1	1	1	1	1	0	1	-9,513742	275,041845	314,958946	0
15.01.2021	12:07:34	0	53,004133	3,864854	2,32125	11,7072	0,723	88,109	0	1015,32	7,6	9,3	9,2	1	1	1	1	1	1	1	1	1	0	1	-5,990134	274,926242	317,937381	0
15.01.2021	12:07:35	0	52,769619	4,660559	2,47275	17,6976	0,719	88,097	0	1015,2	7,6	9,3	9,2	1	1	1	1	1	1	1	1	1	0	1	-6,8358	275,008968	317,481776	0
15.01.2021	12:07:36	0	52,886532	4,887903	2,5455	10,0548	0,72	88,099	0	1015,3	7,6	9,4	9,2	1	1	1	1	1	1	1	1	1	0	1	-9,513742	275,055952	315,025521	0
15.01.2021	12:07:37	0	52,886549	4,319541	2,685	8,2584	0,72	88,089	0	1015,26	7,5	9,4	9,2	1	1	1	1	1	1	1	1	1	0	1	-11,346018	274,929357	312,596179	0
15.01.2021	12:07:38	0	52,769301	3,410164	2,71875	7,506	0,72	88,102	0	1015,42	7,6	9,4	9,2	1	1	1	1	1	1	1	1	1	0	1	-9,44327	274,885788	314,29363	0
15.01.2021	12:07:39	0	52,769319	4,8879	2,84325	360	0,72	88,115	0	1015,4	7,5	9,4	9,2	1	1	1	1	1	1	1	1	1	0	1	-9,936575	275,024617	314,454824	0
15.01.2021	12:07:40	0	52,769336	3,637507	3,05025	4,8456	0,716	88,084	0	1015,42	7,5	9,4	9,2	1	1	1	1	1	1	1	1	1	0	1	-10,570825	275,054384	313,961038	0
15.01.2021	12:07:41	0	52,417558	2,955474	2,9325	15,786	0,723	88,115	0	1015,44	7,6	9,4	9,2	1	1	1	1	1	1	1	1	1	0	1	-10,218464	274,932473	313,738419	0
15.01.2021	12:07:42	0	52,534473	2,728113	2,73675	9,36	0,718	88,083	0	1015,18	7,6	9,5	9,3	1	1	1	1	1	1	1	1	1	0	1	-5,778717	274,915342	318,09743	0
15.01.2021	12:07:43	0	52,534858	3,523833	2,67825	22,4568	0,722	88,1	0	1015,3	7,6	9,4	9,2	1	1	1	1	1	1	1	1	1	0	1	-12,473573	275,015226	311,873524	0
15.01.2021	12:07:44	0	52,652141	3,41016	2,65575	19,152	0,72	88,088	0	1015,4	7,6	9,4	9,2	1	1	1	1	1	1	1	1	1	0	1	-10,993658	274,904448	312,831158	0
15.01.2021	12:07:45	0	52,887059	4,660524	2,7255	10,44	0,715	88,1	0	1015,34	7,6	9,3	9,3	1	1	1	1	1	1	1	1	1	0	1	-9,584214	274,999585	314,689102	0
15.01.2021	12:07:46	0	52,652175	3,978519	2,631	352,5372	0,717	88,105	0	1015,34	7,6	9,4	9,2	1	1	1	1	1	1	1	1	1	0	1	-11,980268	275,044979	312,50721	0
15.01.2021	12:07:47	0	52,417662	3,296487	2,484	359,874	0,718	88,082	0	1015,44	7,6	9,4	9,2	1	1	1	1	1	1	1	1	1	0	1	-6,976744	275,024617	317,414655	0
15.01.2021	12:07:48	0	52,769476	3,410158	2,346	358,3764	0,722	88,1	0	1015,4	7,6	9,4	9,2	1	1	1	1	1	1	1	1	1	0	1	-11,909796	275,032446	312,518542	0
15.01.2021	12:07:49	0	52,652596	3,751173	2,208	360	0,719	88,083	0	1015,22	7,6	9,3	9,2	1	1	1	1	1	1	1	1	1	0	1	-6,624383	275,002712	317,663683	0
15.01.2021	12:07:50	0	52,417714	2,955452	2,17275	7,1172	0,72	88,099	0	1015,08	7,6	9,4	9,3	1	1	1	1	1	1	1	1	1	0	1	-8,527132	274,985519	315,679844	0
15.01.2021	12:07:51	0	52,652262	3,864844	2,07975	6,4224	0,72	88,109	0	1015,36	7,6	9,4	9,2	1	1	1	1	1	1	1	1	1	0	1	-5,84919	275,049681	318,660477	0
15.01.2021	12:07:52	0	52,769545	2,841797	1,9185	353,1816	0,72	88,103	0	1015,34	7,6	9,4	9,2	1	1	1	1	1	1	1	1	1	0	1	-13,883016	275,012097	310,449319	0
15.01.2021	12:07:53	0	52,769562	2,273437	1,85175	358,7508	0,719	88,113	0	1015,38	7,6	9,4	9,2	1	1	1	1	1	1	1	1	1	0	1	-12,332629	274,887342	311,411593	0
15.01.2021	12:07:54	0	52,300517	2,387108	1,7355	354,3552	0,72	88,12	0	1015,32	7,6	9,4	9,2	1	1	1	1	1	1	1	1	1	0	1	-8,386187	274,993332	315,857637	0
15.01.2021	12:07:55	0	52,769227	4,205857	1,725	350,262	0,725	88,115	0	1015,28	7,6	9,5	9,2	1	1	1	1	1	1	1	1	1	0	1	-11,346018	275,052816	313,178445	0
15.01.2021	12:07:56	0	52,65198	4,092184	1,7655	356,1156	0,716	88,113	0	1015,24	7,6	9,5	9,2	1	1	1	1	1	1	1	1	1	0	1	-12,684989	274,971463	311,455705	0
15.01.2021	12:07:57	0	52,418201	2,841794	1,7985	355,3848	0,717	88,122	0	1015,3	7,5	9,3	9,2	1	1	1	1	1	1	1	1	1	0	1	-6,131078	274,896671	317,657093	0
15.01.2021	12:07:58	0	52,886915	4,319527	1,74	354,996	0,721	88,114	0	1015,26	7,6	9,4	9,2	1	1	1	1	1	1	1	1	1	0	1	-8,104299	274,993332	316,139526	0
15.01.2021	12:07:59	0	52,769666	4,660513	1,67625	359,856	0,721	88,122	0	1015,14	7,6	9,4	9,3	1	1	1	1	1	1	1	1	1	0	1	-7,681466	275,054384	316,850397	0
15.01.2021	12:08:00	0	52,769701	2,159762	1,46775	349,0596	0,719	88,126	0	1015,22	7,6	9,4	9,2	1	1	1	1	1	1	1	1	1	0	1	-10,147992	275,023051	314,236022	0
15.01.2021	12:08:01	0	52,769701	2,159762	1,46775	349,0596	0,719	88,126	0	1015,22	7,6	9,4	9,2	1	1	1	1	1	1	1	1	1	0	1	-7,681466	274,888896	316,070079	0
15.01.2021	12:08:02	0	53,00425	4,433169	1,51875	351,3492	0,725	88,134	0	1015,34	7,6	9,4	9,3	1	1	1	1	1	1	1	1	1	0	1	-10,218464	274,930915	313,731076	0
15.01.2021	12:08:03	0	52,887001	3,5238	1,617	351,126	0,725	88,13	0	1015,32	7,6	9,4	9,3	1	1	1	1	1	1	1	1	1	0	1	-10,007047	275,016791	314,347431	0
15.01.2021	12:08:04	0	52,53522	2,841791	1,7115	347,58	0,723	88,133	0	1015,34	7,6	9,4	9,2	1	1	1	1	1	1	1	1	1	0	1	-10,288936	275,046546	314,205937	0
15.01.2021	12:08:05	0	52,887036	4,433167	1,75575	2,6244	0,722	88,138	0	1015,4	7,6	9,4	9,3	1	1	1	1	1	1	1	1	1	0	1	-9,584214	275,035578	314,858904	0
15.01.2021	12:08:06	0	52,652521	4,660508	1,6965	355,7916	0,724	88,143	0	1015,34	7,6	9,4	9,3	1	1	1	1	1	1	1	1	1	0	1	-4,721635	275,034012	319,714093	0
15.01.2021	12:08:07	0	52,770174	3,182805	1,70925	342,702	0,724	88,142	0	1015,3	7,6	9,3	9,2	1	1	1	1	1	1	1	1	1	0	1	-10,147992	274,927799	313,786864	0
15.01.2021	12:08:08	0	52,535289	3,978505	1,7955	3,3912	0,728	88,139	0	1015,38	7,6	9,4	9,2	1	1	1	1	1	1	1	1	1	0	1	-6,412967	274,902892	317,404519	0
15.01.2021	12:08:09	0	52,652572	3,182804	1,755	357,3036	0,722	88,149	0	1015,24	7,6	9,4	9,2	1	1	1	1	1	1	1	1	1	0	1	-6,342495	274,94806	317,687859	0
15.01.2021	12:08:10	0	52,183524	2,614445	1,72725	0,126	0,723	88,142	0	1015,28	7,6	9,4	9,2	1	1	1	1	1	1	1	1	1	0	1	-8,45666	274,876464	315,23632	0
15.01.2021	12:08:11	0	52,300807	2,728117	1,74	2,6496	0,724	88,147	0	1015,3	7,6	9,4	9,2	1	1	1	1	1	1	1	1	1	0	1	-8,104299	274,957418	315,970172	0
15.01.2021	12:08:12	0	52,418091	3,523795	1,818	4,8096	0,725	88,157	0	1015,32	7,6	9,4	9,3	1	1	1	1	1	1	1	1	1	0	1	-7,681466	274,918455	316,209355	0
15.01.2021	12:08:13	0	52,652641	2,84177	1,7955	348,9084	0,726	88,154	0	1015,32	7,6	9,4	9,3	1	1	1	1	1	1	1	1	1	0	1	-9,654686	275,052816	314,869777	0
15.01.2021	12:08:14	0	52,887191	4,774202	1,836	356,3136	0,723	88,169	0	1015,32	7,6	9,4	9,2	1	1	1	1	1	1	1	1	1	0	1	-12,896406	275,051248	311,620659	0
15.01.2021	12:08:15	0	52,535408	4,887843	1,86375	346,1796	0,724	88,176	0	1015,32	7,6	9,4	9,3	1	1	1	1	1	1	1	1	1	0	1	-9,161381	274,930915	314,788158	0
15.01.2021	12:08:16	0	52,887225	4,092147	1,872	347,4972	0,722	88,155	0	1015,36	7,6	9,4	9,3	1	1	1	1	1	1	1	1	1	0	1	-6,8358	275,0685	317,76269	0
15.01.2021	12:08:17	0	52,418176	4,092146	1,833	343,9152	0,73	88,173	0	1015,26	7,6	9,4	9,3	1	1	1	1	1	1	1	1	1	0	1	-10,500352	275,077916	314,142588	0
15.01.2021	12:08:18	0	52,769993	3,29647	1,7835	352,8396	0,728	88,175	0	1015,38	7,6	9,4	9,2	1	1	1	1	1	1	1	1	1	0	1	-6,624383	275,049681	317,885284	0
15.01.2021	12:08:19	0	52,77001	4,433184	1,75875	348,6672	0,723	88,175	0	1015,22	7,6	9,4	9,2	1	1	1	1	1	1	1	1	1	0	1	-10,007047	275,044979	314,48043	0
15.01.2021	12:08:20	0	52,535861	3,523812	1,86525	353,5884	0,728	88,193	0	1015,26	7,6	9,3	9,2	1	1	1	1	1	1	1	1	1	0	1	-9,936575	275,008968	314,381001	0
15.01.2021	12:08:21	0	52,770044	4,546826	1,92225	351,3348	0,727	88,189	0	1015,04	7,6	9,4	9,3	1	1	1	1	1	1	1	1	1	0	1	-9,44327	275,060656	315,118197	0
15.01.2021	12:08:22	0	52,770061	3,410119	1,905	346,5468	0,726	88,225	0	1015,62	7,6	9,4	9,3	1	1	1	1	1	1	1	1	1	0	1	-7,258633	275,034012	317,177095	0
15.01.2021	12:08:23	0	52,652811	3,864801	2,01225	3,3732	0,724	88,198	0	1015,3	7,6	9,4	9,3	1	1	1	1	1	1	1	1	1	0	1	-11,839323	275,046546	312,65555	0
15.01.2021	12:08:24	0	52,652828	2,728095	2,09325	359,9928	0,718	88,189	0	1015,26	7,6	9,4	9,3	1	1	1	1	1	1	1	1	1	0	1	-8,80902	275,052816	315,715443	0
15.01.2021	12:08:25	0	52,418312	4,774165	2,02575	4,8384	0,728	88,214	0	1015,4	7,6	9,4	9,3	1	1	1	1	1	1	1	1	1	0	1	-10,077519	275,087337	314,609897	0
15.01.2021	12:08:26	0	52,301062	3,069124	2,02425	0,1224	0,733	88,179	0	1015,24	7,6	9,4	9,2	1	1	1	1	1	1	1	1	1	0	1	-7,047216	274,941823	316,95374	0
15.01.2021	12:08:27	0	52,183811	2,955434	2,16075	358,6644	0,727	88,178	0	1015,2	7,6	9,4	9,3	1	1	1	1	1	1	1	1	1	0	1	-7,963354	275,037145	316,487155	0
15.01.2021	12:08:28	0	52,652896	3,751128	2,2935	359,1504	0,725	88,19	0	1015,3	7,6	9,4	9,3	1	1	1	1	1	1	1	1	1	0	1	-9,936575	274,921569	313,968921	0
15.01.2021	12:08:29	0	52,652913	3,069104	2,4225	6,426	0,729	88,193	0	1015,4	7,6	9,4	9,3	1	1	1	1	1	1	1	1	1	0	1	-9,090909	274,952738	314,9615	0
15.01.2021	12:08:30	0	52,183862	3,523786	2,295	20,9952	0,722	88,191	0	1015,22	7,6	9,4	9,3	1	1	1	1	1	1	1	1	1	0	1	-9,795631	275,0685	314,802859	0
15.01.2021	12:08:31	0	52,652947	3,751148	2,178	23,2056	0,732	88,184	0	1015,34	7,6	9,4	9,2	1	1	1	1	1	1	1	1	1	0	1	-10,359408	275,023051	314,024606	0
15.01.2021	12:08:32	0	52,41843	5,115171	2,073	17,694	0,73	88,167	0	1015,4	7,6	9,4	9,3	1	1	1	1	1	1	1	1	1	0	1	-12,05074	274,927799	311,884116	0
15.01.2021	12:08:33	0	52,30118	4,319503	2,0145	21,0132	0,734	88,17	0	1015,34	7,6	9,4	9,2	1	1	1	1	1	1	1	1	1	0	1	-3,171247	274,887342	320,572975	0
15.01.2021	12:08:34	0	52,183929	2,159738	1,96575	25,416	0,732	88,161	0	1015,28	7,6	9,4	9,3	1	1	1	1	1	1	1	1	1	0	1	-10,42988	275,024617	313,961519	0
15.01.2021	12:08:35	0	51,949411	2,955431	1,9695	23,5836	0,731	88,168	0	1015,46	7,6	9,4	9,3	1	1	1	1	1	1	1	1	1	0	1	-7,963354	274,906004	315,868792	0
15.01.2021	12:08:36	0	52,300864	4,660486	2,03775	18,0864	0,727	88,143	0	1015,46	7,6	9,5	9,3	1	1	1	1	1	1	1	1	1	0	1	-7,117689	274,943382	316,890616	0
15.01.2021	12:08:37	0	51,949445	3,864793	2,1135	18,8208	0,727	88,153	0	1015,4	7,6	9,4	9,3	1	1	1	1	1	1	1	1	1	0	1	-8,597604	275,066931	315,99348	0
15.01.2021	12:08:38	0	52,066729	2,273421	2,11125	18,8316	0,719	88,148	0	1015,32	7,6	9,4	9,2	1	1	1	1	1	1	1	1	1	0	1	-12,191684	274,980833	311,993191	0
15.01.2021	12:08:39	0	52,184013	4,319473	2,067	22,0824	0,726	88,143	0	1015,24	7,6	9,4	9,3	1	1	1	1	1	1	1	1	1	0	1	-9,795631	275,082626	314,869544	0
15.01.2021	12:08:40	0	52,18403	2,500762	2,05125	1,908	0,727	88,13	0	1015,2	7,6	9,4	9,2	1	1	1	1	1	1	1	1	1	0	1	-9,584214	274,96678	314,534399	0
15.01.2021	12:08:41	0	52,184046	4,887852	2,09775	3,3984	0,727	88,116	0	1015,34	7,6	9,4	9,2	1	1	1	1	1	1	1	1	1	0	1	-5,567301	275,084197	319,105287	0
15.01.2021	12:08:42	0	52,418598	4,887852	2,139	6,0552	0,723	88,128	0	1015,36	7,6	9,4	9,2	1	1	1	1	1	1	1	1	1	0	1	-9,44327	274,994895	314,807927	0
15.01.2021	12:08:43	0	51,949545	2,500761	2,15025	10,0692	0,733	88,14	0	1015,44	7,6	9,4	9,2	1	1	1	1	1	1	1	1	1	0	1	-10,570825	275,070069	314,035072	0
15.01.2021	12:08:44	0	52,184097	5,115161	2,10975	17,2188	0,728	88,127	0	1015,2	7,6	9,4	9,3	1	1	1	1	1	1	1	1	1	0	1	-7,610994	275,051248	316,906071	0
15.01.2021	12:08:45	0	51,949578	2,841773	1,93875	12,0996	0,73	88,127	0	1015,3	7,6	9,4	9,2	1	1	1	1	1	1	1	1	1	0	1	-10,923185	274,896671	312,864986	0
15.01.2021	12:08:46	0	51,832327	4,092128	1,81275	13,1724	0,727	88,129	0	1015,34	7,6	9,4	9,3	1	1	1	1	1	1	1	1	1	0	1	-14,446794	274,996458	309,811776	0
15.01.2021	12:08:47	0	52,184147	4,092127	1,7835	359,1108	0,73	88,126	0	1015,28	7,6	9,4	9,3	1	1	1	1	1	1	1	1	1	0	1	-10,711769	274,968341	313,414204	0
15.01.2021	12:08:48	0	51,83236	2,955425	1,83675	8,6148	0,732	88,109	0	1015,34	7,6	9,4	9,3	1	1	1	1	1	1	1	1	1	0	1	-10,570825	275,062225	313,998046	0
15.01.2021	12:08:49	0	52,066912	3,978456	1,79325	19,1268	0,726	88,122	0	1015,32	7,6	9,4	9,3	1	1	1	1	1	1	1	1	1	0	1	-9,372798	275,063793	315,203476	0
15.01.2021	12:08:50	0	51,832393	3,751115	1,6935	6,0552	0,722	88,13	0	1015,22	7,6	9,4	9,3	1	1	1	1	1	1	1	1	1	0	1	-10,782241	274,962098	313,314298	0
15.01.2021	12:08:51	0	51,597874	2,955423	1,629	17,2296	0,726	88,133	0	1015,32	7,6	9,4	9,3	1	1	1	1	1	1	1	1	1	0	1	-11,486963	275,090479	313,215285	0
15.01.2021	12:08:52	0	51,832426	4,205794	1,629	22,4712	0,733	88,142	0	1015,42	7,6	9,4	9,3	1	1	1	1	1	1	1	1	1	0	1	-8,386187	274,929357	315,55601	0
15.01.2021	12:08:53	0	52,301514	4,887814	1,65225	354,6648	0,732	88,145	0	1015,36	7,6	9,4	9,3	1	1	1	1	1	1	1	1	1	0	1	-12,896406	275,035578	311,546713	0
15.01.2021	12:08:54	0	51,715191	4,546803	1,6185	1,926	0,73	88,142	0	1015,26	7,6	9,4	9,3	1	1	1	1	1	1	1	1	1	0	1	-9,44327	274,965219	314,667984	0
15.01.2021	12:08:55	0	52,18428	3,978452	1,668	354,2724	0,736	88,147	0	1015,48	7,6	9,4	9,3	1	1	1	1	1	1	1	1	1	0	1	-7,892882	275,096763	316,839037	0
15.01.2021	12:08:56	0	51,832492	4,660472	1,69875	355,2876	0,728	88,127	0	1015,38	7,6	9,4	9,3	1	1	1	1	1	1	1	1	1	0	1	-9,936575	274,982395	314,255667	0
15.01.2021	12:08:57	0	51,71524	3,978475	1,7295	348,0156	0,733	88,154	0	1015,28	7,6	9,4	9,2	1	1	1	1	1	1	1	1	1	0	1	-10,288936	274,892006	313,477258	0
15.01.2021	12:08:58	0	51,715257	2,61441	2,01525	359,8344	0,736	88,151	0	1015,32	7,6	9,4	9,3	1	1	1	1	1	1	1	1	1	0	1	-11,275546	275,093621	313,441536	0
15.01.2021	12:08:59	0	51,715273	3,29643	2,24025	351,6768	0,734	88,148	0	1015,3	7,6	9,4	9,3	1	1	1	1	1	1	1	1	1	0	1	-6,906272	274,985519	317,300704	0
15.01.2021	12:09:00	0	51,949843	3,864778	2,52375	356,5908	0,728	88,127	0	1015,28	7,6	9,4	9,3	1	1	1	1	1	1	1	1	1	0	1	-11,41649	274,962098	312,680048	0
15.01.2021	12:09:01	0	51,949843	3,864778	2,52375	356,5908	0,728	88,127	0	1015,28	7,6	9,4	9,3	1	1	1	1	1	1	1	1	1	0	1	-11,41649	274,962098	312,680048	0
15.01.2021	12:09:02	0	51,480786	2,955418	2,679	350,2692	0,737	88,148	0	1015,2	7,7	9,4	9,3	1	1	1	1	1	1	1	1	1	0	1	-10,007047	275,093621	314,710035	0
15.01.2021	12:09:03	0	51,598071	3,296428	2,96775	358,4232	0,731	88,142	0	1015,32	7,6	9,4	9,3	1	1	1	1	1	1	1	1	1	0	1	-11,06413	274,977709	313,106016	0
15.01.2021	12:09:04	0	51,598087	3,978447	3,1605	357,2784	0,736	88,138	0	1015,18	7,6	9,4	9,3	1	1	1	1	1	1	1	1	1	0	1	-7,610994	274,963659	316,492902	0
15.01.2021	12:09:05	0	51,715372	4,660465	3,16575	2,2788	0,734	88,144	0	1015,24	7,6	9,4	9,3	1	1	1	1	1	1	1	1	1	0	1	-7,047216	275,059088	317,506849	0
15.01.2021	12:09:06	0	51,832657	4,774134	2,98725	359,4204	0,739	88,148	0	1015,26	7,6	9,4	9,3	1	1	1	1	1	1	1	1	1	0	1	-7,329105	275,046546	317,165768	0
15.01.2021	12:09:07	0	51,598136	2,841746	2,86125	6,426	0,738	88,141	0	1015,44	7,6	9,4	9,3	1	1	1	1	1	1	1	1	1	0	1	-11,346018	275,0685	313,252471	0
15.01.2021	12:09:08	0	51,832689	4,205784	2,68875	354,1572	0,741	88,151	0	1015,48	7,6	9,4	9,3	1	1	1	1	1	1	1	1	1	0	1	-12,332629	275,065362	312,25105	0
15.01.2021	12:09:09	0	51,832706	2,614406	2,51625	353,1744	0,732	88,147	0	1015,34	7,6	9,4	9,3	1	1	1	1	1	1	1	1	1	0	1	-9,020437	274,906004	314,81171	0
15.01.2021	12:09:10	0	51,598185	2,614405	2,28825	4,4496	0,74	88,146	0	1015,3	7,6	9,4	9,3	1	1	1	1	1	1	1	1	1	0	1	-9,725159	274,920012	314,172999	0
15.01.2021	12:09:11	0	51,71547	4,660461	2,32275	10,422	0,731	88,134	0	1015,3	7,6	9,4	9,3	1	1	1	1	1	1	1	1	1	0	1	-4,792107	275,034012	319,643621	0
15.01.2021	12:09:12	0	51,480949	2,614405	2,3055	354,9564	0,736	88,152	0	1015,42	7,6	9,4	9,3	1	1	1	1	1	1	1	1	1	0	1	-7,329105	274,935589	316,642466	0
15.01.2021	12:09:13	0	51,598234	4,092111	2,406	10,0728	0,74	88,137	0	1015,34	7,6	9,4	9,3	1	1	1	1	1	1	1	1	1	0	1	-11,205074	275,090479	313,497174	0
15.01.2021	12:09:14	0	51,832787	4,546789	2,45925	354,1716	0,738	88,13	0	1015,34	7,6	9,4	9,3	1	1	1	1	1	1	1	1	1	0	1	-9,866103	275,041845	314,606585	0
15.01.2021	12:09:15	0	51,832804	4,09211	2,5155	350,3088	0,731	88,116	0	1015,22	7,6	9,4	9,3	1	1	1	1	1	1	1	1	1	0	1	-8,174771	275,046546	316,320102	0
15.01.2021	12:09:16	0	51,598282	2,841742	2,50425	346,4568	0,744	88,12	0	1015,3	7,6	9,4	9,3	1	1	1	1	1	1	1	1	1	0	1	-7,117689	274,898226	316,67781	0
15.01.2021	12:09:17	0	51,715568	3,52376	2,59725	0,8568	0,741	88,122	0	1015,28	7,6	9,4	9,3	1	1	1	1	1	1	1	1	1	0	1	-8,033827	274,842316	315,498334	0
15.01.2021	12:09:18	0	51,832853	4,660456	2,46225	347,2884	0,733	88,107	0	1015,24	7,6	9,4	9,3	1	1	1	1	1	1	1	1	1	0	1	-10,218464	274,954298	313,841298	0
15.01.2021	12:09:19	0	51,950138	4,774125	2,5155	346,8024	0,728	88,108	0	1015,34	7,6	9,4	9,3	1	1	1	1	1	1	1	1	1	0	1	-10,147992	274,902892	313,669494	0
15.01.2021	12:09:20	0	51,715616	2,95541	2,62575	3,7836	0,737	88,102	0	1015,28	7,6	9,4	9,3	1	1	1	1	1	1	1	1	1	0	1	-10,711769	274,952738	313,34064	0
15.01.2021	12:09:21	0	51,832902	5,001463	2,50875	348,6708	0,736	88,119	0	1015,34	7,6	9,4	9,3	1	1	1	1	1	1	1	1	1	0	1	-4,792107	275,070069	319,813789	0
15.01.2021	12:09:22	0	51,715649	3,523757	2,484	1,5444	0,737	88,111	0	1015,34	7,6	9,4	9,3	1	1	1	1	1	1	1	1	1	0	1	-10,359408	274,96678	313,759205	0
15.01.2021	12:09:23	0	51,715665	4,660452	2,39625	348,3036	0,741	88,117	0	1015,34	7,6	9,4	9,3	1	1	1	1	1	1	1	1	1	0	1	-9,020437	275,059088	315,533628	0
15.01.2021	12:09:24	0	51,715681	2,955408	2,29425	348,9732	0,733	88,1	0	1015,22	7,6	9,4	9,3	1	1	1	1	1	1	1	1	1	0	1	-8,879493	275,037145	315,571017	0
15.01.2021	12:09:25	0	51,715697	3,751095	2,13675	356,238	0,738	88,094	0	1015,32	7,6	9,4	9,3	1	1	1	1	1	1	1	1	1	0	1	-7,963354	274,916899	315,920129	0
15.01.2021	12:09:26	0	51,832983	3,637425	1,96125	347,868	0,734	88,092	0	1015,4	7,6	9,4	9,3	1	1	1	1	1	1	1	1	1	0	1	-16,138125	275,040278	308,327169	0
15.01.2021	12:09:27	0	51,832999	4,205772	1,866	340,9992	0,736	88,081	0	1015,24	7,6	9,4	9,3	1	1	1	1	1	1	1	1	1	0	1	-8,315715	274,901337	315,494441	0
15.01.2021	12:09:28	0	51,598477	3,410085	1,866	351,6804	0,73	88,09	0	1015,3	7,6	9,4	9,3	1	1	1	1	1	1	1	1	1	0	1	-12,191684	275,043412	312,288398	0
15.01.2021	12:09:29	0	52,302109	4,660448	1,8645	358,3728	0,734	88,099	0	1015,28	7,7	9,4	9,3	1	1	1	1	1	1	1	1	1	0	1	-12,403101	274,955858	311,664015	0
15.01.2021	12:09:30	0	52,067586	4,887786	1,797	358,3548	0,737	88,08	0	1015,34	7,6	9,4	9,3	1	1	1	1	1	1	1	1	1	0	1	-12,05074	275,087337	312,636677	0
15.01.2021	12:09:31	0	52,184872	3,97843	1,79025	354,6324	0,734	88,071	0	1015,24	7,6	9,4	9,3	1	1	1	1	1	1	1	1	1	0	1	-8,949965	275,007404	315,360233	0
15.01.2021	12:09:32	0	51,715811	4,092099	1,84275	2,6352	0,737	88,058	0	1015,26	7,6	9,4	9,3	1	1	1	1	1	1	1	1	1	0	1	-11,275546	275,082626	313,389629	0
15.01.2021	12:09:33	0	51,833096	3,523751	1,81275	345,1356	0,734	88,075	0	1015,26	7,6	9,4	9,3	1	1	1	1	1	1	1	1	1	0	1	-13,812544	274,954298	310,247218	0
15.01.2021	12:09:34	0	52,067651	3,296412	1,81575	353,2212	0,734	88,067	0	1015,24	7,6	9,4	9,3	1	1	1	1	1	1	1	1	1	0	1	-12,403101	275,071638	312,210203	0
15.01.2021	12:09:35	0	51,950398	3,52375	1,94775	348,678	0,737	88,069	0	1015,28	7,7	9,4	9,3	1	1	1	1	1	1	1	1	1	0	1	-8,315715	274,957418	315,758755	0
15.01.2021	12:09:36	0	52,067684	3,978427	2,01975	9,7344	0,731	88,069	0	1015,36	7,6	9,4	9,3	1	1	1	1	1	1	1	1	1	0	1	-8,80902	275,082626	315,856155	0
15.01.2021	12:09:37	0	51,715891	2,500725	2,0715	7,2216	0,733	88,063	0	1015,3	7,6	9,4	9,3	1	1	1	1	1	1	1	1	1	0	1	-13,812544	275,004276	310,482899	0
15.01.2021	12:09:38	0	51,833177	2,614394	2,019	0,2088	0,735	88,065	0	1015,26	7,6	9,4	9,3	1	1	1	1	1	1	1	1	1	0	1	-8,033827	274,885788	315,703073	0
15.01.2021	12:09:39	0	52,302272	3,864756	1,971	4,8456	0,734	88,063	0	1015,36	7,6	9,4	9,3	1	1	1	1	1	1	1	1	1	0	1	-9,866103	274,963659	314,237793	0
15.01.2021	12:09:40	0	52,419558	4,433102	2,01825	6,0624	0,736	88,059	0	1015,38	7,6	9,4	9,3	1	1	1	1	1	1	1	1	1	0	1	-16,27907	274,932473	307,677813	0
15.01.2021	12:09:41	0	52,185035	3,182739	2,05425	0,126	0,736	88,062	0	1015,4	7,6	9,4	9,3	1	1	1	1	1	1	1	1	1	0	1	-11,698379	274,990207	312,530704	0
15.01.2021	12:09:42	0	52,302321	2,9554	2,046	360	0,735	88,024	0	1015,26	7,7	9,4	9,3	1	1	1	1	1	1	1	1	1	0	1	-9,161381	274,901337	314,648775	0
15.01.2021	12:09:43	0	52,067797	3,637415	2,00925	22,0932	0,734	88,056	0	1015,38	7,6	9,4	9,3	1	1	1	1	1	1	1	1	1	0	1	-10,993658	275,032446	313,43468	0
15.01.2021	12:09:44	0	52,185083	3,523746	2,04675	25,7904	0,734	88,033	0	1015,34	7,6	9,4	9,3	1	1	1	1	1	1	1	1	1	0	1	-11,627907	275,084197	313,044681	0
15.01.2021	12:09:45	0	52,302369	2,614391	2,0355	34,326	0,729	88,036	0	1015,32	7,7	9,4	9,3	1	1	1	1	1	1	1	1	1	0	1	-12,825934	275,037145	311,624576	0
15.01.2021	12:09:46	0	52,419655	3,182737	2,05875	37,6596	0,737	88,042	0	1015,44	7,6	9,4	9,3	1	1	1	1	1	1	1	1	1	0	1	-12,332629	274,940265	311,660981	0
15.01.2021	12:09:47	0	52,185132	3,410075	1,9515	35,0892	0,735	88,061	0	1015,26	7,7	9,4	9,3	1	1	1	1	1	1	1	1	1	0	1	-9,161381	274,940265	314,832228	0
15.01.2021	12:09:48	0	52,536958	3,97842	1,76475	31,392	0,736	88,038	0	1015,4	7,6	9,4	9,3	1	1	1	1	1	1	1	1	1	0	1	-10,42988	275,066931	314,161203	0
15.01.2021	12:09:49	0	52,302434	4,546765	1,70925	28,368	0,737	88,053	0	1015,32	7,6	9,4	9,3	1	1	1	1	1	1	1	1	1	0	1	-12,473573	275,044979	312,013905	0
15.01.2021	12:09:50	0	52,53699	4,660434	1,60575	21,0204	0,731	88,047	0	1015,36	7,6	9,4	9,3	1	1	1	1	1	1	1	1	1	0	1	-13,460183	275,101478	311,293998	0
15.01.2021	12:09:51	0	52,654277	4,774102	1,63125	27,9684	0,737	88,057	0	1015,36	7,6	9,4	9,3	1	1	1	1	1	1	1	1	1	0	1	-11,698379	274,923127	312,214456	0
15.01.2021	12:09:52	0	52,654293	3,75108	1,62825	20,2932	0,731	88,062	0	1015,3	7,6	9,4	9,3	1	1	1	1	1	1	1	1	1	0	1	-9,302326	275,076347	315,333204	0
15.01.2021	12:09:53	0	52,419769	3,069065	1,6485	12,8484	0,734	88,049	0	1015,3	7,6	9,4	9,3	1	1	1	1	1	1	1	1	1	0	1	-11,980268	274,965219	312,130986	0
15.01.2021	12:09:54	0	52,419785	2,273381	1,69425	13,1652	0,735	88,052	0	1015,34	7,7	9,4	9,3	1	1	1	1	1	1	1	1	1	0	1	-10,852713	274,913785	313,016099	0
15.01.2021	12:09:55	0	52,888882	2,728057	1,79025	8,6112	0,738	88,07	0	1015,22	7,6	9,4	9,3	1	1	1	1	1	1	1	1	1	0	1	-9,302326	274,977709	314,86782	0
15.01.2021	12:09:56	0	52,654358	2,955394	1,8915	6,066	0,736	88,075	0	1015,4	7,6	9,4	9,3	1	1	1	1	1	1	1	1	1	0	1	-15,010571	275,081056	309,647192	0
15.01.2021	12:09:57	0	52,888915	3,978415	1,9425	8,6112	0,735	88,07	0	1015,42	7,6	9,4	9,3	1	1	1	1	1	1	1	1	1	0	1	-9,936575	275,062225	314,632295	0
15.01.2021	12:09:58	0	52,771661	2,728055	2,03925	12,1644	0,738	88,062	0	1015,4	7,7	9,4	9,3	1	1	1	1	1	1	1	1	1	0	1	-13,883016	275,055952	310,656247	0
15.01.2021	12:09:59	0	52,771677	2,841724	2,00025	20,6316	0,738	88,053	0	1015,34	7,7	9,4	9,3	1	1	1	1	1	1	1	1	1	0	1	-16,067653	275,09205	308,642012	0
15.01.2021	12:10:00	0	52,88898	2,614385	2,0085	21,0024	0,736	88,077	0	1015,32	7,6	9,4	9,3	1	1	1	1	1	1	1	1	1	0	1	-13,319239	275,026182	311,079547	0
15.01.2021	12:10:01	0	52,88898	2,614385	2,0085	21,0024	0,736	88,077	0	1015,32	7,6	9,4	9,3	1	1	1	1	1	1	1	1	1	0	1	-10,288936	274,934031	313,675291	0
15.01.2021	12:10:02	0	53,240435	3,296398	2,06325	356,5296	0,742	88,09	0	1015,32	7,7	9,5	9,3	1	1	1	1	1	1	1	1	1	0	1	-7,892882	275,0685	316,705607	0
15.01.2021	12:10:03	0	53,358095	3,182729	2,18175	354,2472	0,74	88,078	0	1015,42	7,6	9,4	9,3	1	1	1	1	1	1	1	1	1	0	1	-10,147992	275,082626	314,517183	0
15.01.2021	12:10:04	0	52,889029	2,500715	2,33025	352,5192	0,739	88,102	0	1015,36	7,7	9,4	9,3	1	1	1	1	1	1	1	1	1	0	1	-12,896406	275,088908	311,798426	0
15.01.2021	12:10:05	0	52,889045	2,500715	2,62575	20,9988	0,735	88,077	0	1015,32	7,6	9,4	9,3	1	1	1	1	1	1	1	1	1	0	1	-16,913319	274,94806	307,117034	0
15.01.2021	12:10:06	0	53,006332	2,728052	2,7225	10,4256	0,74	88,093	0	1015,38	7,7	9,4	9,3	1	1	1	1	1	1	1	1	1	0	1	-9,513742	275,049681	314,995925	0
15.01.2021	12:10:07	0	53,24089	4,319415	2,77725	14,2956	0,739	88,095	0	1015,36	7,7	9,4	9,3	1	1	1	1	1	1	1	1	1	0	1	-12,403101	275,096763	312,328819	0
15.01.2021	12:10:08	0	53,358177	2,84172	2,85675	13,158	0,734	88,102	0	1015,36	7,7	9,4	9,3	1	1	1	1	1	1	1	1	1	0	1	-14,517266	275,037145	309,933244	0
15.01.2021	12:10:09	0	53,240922	3,864739	2,88075	19,98	0,746	88,117	0	1015,32	7,7	9,4	9,3	1	1	1	1	1	1	1	1	1	0	1	-12,262156	275,101478	312,492024	0
15.01.2021	12:10:10	0	53,47548	4,433082	2,853	23,2164	0,739	88,102	0	1015,4	7,7	9,4	9,3	1	1	1	1	1	1	1	1	1	0	1	-13,6716	274,934031	310,292627	0
15.01.2021	12:10:11	0	53,827309	4,54675	2,8965	27,2772	0,742	88,111	0	1015,4	7,7	9,4	9,3	1	1	1	1	1	1	1	1	1	0	1	-11,557435	275,059088	312,99663	0
15.01.2021	12:10:12	0	53,475513	4,433081	2,87175	21,8484	0,738	88,092	0	1015,3	7,6	9,4	9,3	1	1	1	1	1	1	1	1	1	0	1	-15,221987	274,954298	308,837775	0
15.01.2021	12:10:13	0	53,827342	2,728049	2,93325	22,8348	0,742	88,101	0	1015,32	7,6	9,4	9,3	1	1	1	1	1	1	1	1	1	0	1	-15,574348	275,079486	309,076003	0
15.01.2021	12:10:14	0	53,475545	4,433079	2,7435	8,9964	0,745	88,112	0	1015,56	7,6	9,4	9,3	1	1	1	1	1	1	1	1	1	0	1	-7,399577	274,988644	316,822136	0
15.01.2021	12:10:15	0	53,710104	4,31941	2,451	2,6532	0,746	88,125	0	1015,48	7,7	9,4	9,3	1	1	1	1	1	1	1	1	1	0	1	-10,923185	274,902892	312,8943	0
15.01.2021	12:10:16	0	53,944662	3,069054	2,1225	19,2348	0,735	88,102	0	1015,34	7,7	9,4	9,3	1	1	1	1	1	1	1	1	1	0	1	-13,107822	275,043412	311,37226	0
15.01.2021	12:10:17	0	53,710136	3,978403	1,88625	10,4472	0,744	88,099	0	1015,48	7,6	9,4	9,3	1	1	1	1	1	1	1	1	1	0	1	-14,305849	275,103049	310,455754	0
15.01.2021	12:10:18	0	53,827424	2,955385	1,7355	0,1296	0,743	88,095	0	1015,36	7,7	9,4	9,3	1	1	1	1	1	1	1	1	1	0	1	-8,80902	274,957418	315,26545	0
15.01.2021	12:10:19	0	53,592898	4,319408	1,698	21,0204	0,741	88,106	0	1015,34	7,7	9,4	9,3	1	1	1	1	1	1	1	1	1	0	1	-12,755462	274,909116	311,091349	0
15.01.2021	12:10:20	0	53,710186	3,069052	1,731	1,9224	0,743	88,081	0	1015,48	7,7	9,4	9,3	1	1	1	1	1	1	1	1	1	0	1	-11,980268	274,935589	311,991303	0
15.01.2021	12:10:21	0	54,062015	4,546743	1,881	12,0924	0,742	88,088	0	1015,54	7,7	9,4	9,3	1	1	1	1	1	1	1	1	1	0	1	-12,614517	275,052816	311,909946	0
15.01.2021	12:10:22	0	54,062032	4,092069	1,98975	12,1032	0,742	88,09	0	1015,44	7,7	9,4	9,3	1	1	1	1	1	1	1	1	1	0	1	-13,03735	274,941823	310,963606	0
15.01.2021	12:10:23	0	54,17932	4,433074	1,97925	11,718	0,74	88,108	0	1015,6	7,7	9,4	9,3	1	1	1	1	1	1	1	1	1	0	1	-10,641297	274,96678	313,477316	0
15.01.2021	12:10:24	0	54,53115	4,546741	1,98525	9,7452	0,741	88,068	0	1015,34	7,7	9,4	9,3	1	1	1	1	1	1	1	1	1	0	1	-16,349542	275,060656	308,211925	0
15.01.2021	12:10:25	0	54,178973	2,500707	2,05125	10,8036	0,743	88,063	0	1015,32	7,7	9,5	9,3	1	1	1	1	1	1	1	1	1	0	1	-16,208598	275,038711	308,249304	0
15.01.2021	12:10:26	0	54,648454	4,774077	2,04225	351,756	0,74	88,056	0	1015,56	7,7	9,4	9,3	1	1	1	1	1	1	1	1	1	0	1	-14,094433	275,082626	310,570742	0
15.01.2021	12:10:27	0	54,413928	2,614375	1,88775	8,2656	0,743	88,061	0	1015,3	7,7	9,4	9,3	1	1	1	1	1	1	1	1	1	0	1	-10,993658	275,073207	313,627054	0
15.01.2021	12:10:28	0	54,296673	4,546739	1,7505	7,128	0,739	88,057	0	1015,32	7,6	9,4	9,3	1	1	1	1	1	1	1	1	1	0	1	-13,883016	274,901337	309,92714	0
15.01.2021	12:10:29	0	54,29669	4,319401	1,70175	10,4364	0,735	88,023	0	1015,3	7,7	9,4	9,3	1	1	1	1	1	1	1	1	1	0	1	-10,218464	274,987081	313,995881	0
15.01.2021	12:10:30	0	54,296706	4,546737	1,728	10,5408	0,738	88,037	0	1015,26	7,6	9,4	9,3	1	1	1	1	1	1	1	1	1	0	1	-12,191684	274,934031	311,772542	0
15.01.2021	12:10:31	0	54,296723	2,84171	1,74975	12,4452	0,739	88,036	0	1015,3	7,7	9,4	9,3	1	1	1	1	1	1	1	1	1	0	1	-13,460183	274,958978	310,621643	0
15.01.2021	12:10:32	0	54,296739	3,52372	1,65225	19,9116	0,737	88,024	0	1015,2	7,7	9,4	9,3	1	1	1	1	1	1	1	1	1	0	1	-17,26568	274,924684	306,654494	0
15.01.2021	12:10:33	0	54,179104	3,978394	1,57275	3,3768	0,734	88,03	0	1015,44	7,7	9,5	9,3	1	1	1	1	1	1	1	1	1	0	1	-9,725159	274,952738	314,32725	0
15.01.2021	12:10:34	0	54,296772	2,728041	1,52175	7,9056	0,737	88,025	0	1015,46	7,6	9,4	9,3	1	1	1	1	1	1	1	1	1	0	1	-10,923185	275,267213	314,614299	0
15.01.2021	12:10:35	0	54,765491	5,342413	1,53	358,0452	0,734	87,999	0	1015,24	7,7	9,5	9,3	1	1	1	1	1	1	1	1	1	0	1	-12,966878	275,007404	311,343319	0
15.01.2021	12:10:36	0	54,64862	3,182713	1,55475	9	0,741	88,009	0	1015,36	7,7	9,4	9,3	1	1	1	1	1	1	1	1	1	0	1	-11,839323	275,082626	312,825852	0
15.01.2021	12:10:37	0	54,765908	5,456079	1,59825	359,496	0,741	88,003	0	1015,34	7,7	9,4	9,3	1	1	1	1	1	1	1	1	1	0	1	-12,403101	275,035578	312,040018	0
15.01.2021	12:10:38	0	54,765924	4,205727	1,60725	4,3524	0,739	88,012	0	1015,34	7,7	9,4	9,3	1	1	1	1	1	1	1	1	1	0	1	-16,349542	274,924684	307,570632	0
15.01.2021	12:10:39	0	54,882828	5,001405	1,67175	4,086	0,735	87,985	0	1015,42	7,7	9,5	9,3	1	1	1	1	1	1	1	1	1	0	1	-12,191684	275,044979	312,295793	0
15.01.2021	12:10:40	0	54,648686	3,864721	1,728	11,1744	0,732	88,015	0	1015,54	7,7	9,4	9,3	1	1	1	1	1	1	1	1	1	0	1	-10,570825	275,082626	314,094351	0
15.01.2021	12:10:41	0	55,11779	5,569744	1,8285	15,3972	0,738	87,995	0	1015,24	7,7	9,4	9,3	1	1	1	1	1	1	1	1	1	0	1	-20,084567	275,073207	304,536145	0
15.01.2021	12:10:42	0	54,648719	3,069042	1,90125	17,694	0,735	88,002	0	1015,34	7,7	9,4	9,3	1	1	1	1	1	1	1	1	1	0	1	-11,346018	274,951178	312,699038	0
15.01.2021	12:10:43	0	54,648352	4,319392	1,86375	12,0888	0,743	88,041	0	1015,66	7,7	9,5	9,3	1	1	1	1	1	1	1	1	1	0	1	-15,010571	275,084197	309,662017	0
15.01.2021	12:10:44	0	54,414207	2,5007	1,78125	13,1616	0,733	87,986	0	1015,28	7,7	9,4	9,3	1	1	1	1	1	1	1	1	1	0	1	-14,799154	274,979271	309,378356	0
15.01.2021	12:10:45	0	55,000584	4,887732	1,764	7,4952	0,74	88,003	0	1015,38	7,7	9,4	9,3	1	1	1	1	1	1	1	1	1	0	1	-13,03735	275,052816	311,487113	0
15.01.2021	12:10:46	0	54,648401	4,546727	1,80525	24,7104	0,738	87,997	0	1015,38	7,6	9,5	9,3	1	1	1	1	1	1	1	1	1	0	1	-10,993658	275,024617	313,397742	0
15.01.2021	12:10:47	0	54,648801	2,728036	1,92375	13,9176	0,733	88,007	0	1015,26	7,7	9,4	9,3	1	1	1	1	1	1	1	1	1	0	1	-12,966878	275,081056	311,690885	0
15.01.2021	12:10:48	0	55,235178	4,660394	2,169	30,3192	0,738	88,005	0	1015,4	7,7	9,4	9,3	1	1	1	1	1	1	1	1	1	0	1	-10,007047	275,004276	314,288396	0
15.01.2021	12:10:49	0	55,117922	4,660393	2,304	13,1832	0,736	88	0	1015,48	7,7	9,4	9,3	1	1	1	1	1	1	1	1	1	0	1	-12,191684	274,90756	311,647794	0
15.01.2021	12:10:50	0	55,000281	3,182707	2,4855	9,3672	0,734	87,986	0	1015,38	7,7	9,5	9,3	1	1	1	1	1	1	1	1	1	0	1	-12,05074	275,035578	312,392379	0
15.01.2021	12:10:51	0	54,883411	3,523711	2,65425	11,7144	0,736	87,989	0	1015,34	7,7	9,4	9,3	1	1	1	1	1	1	1	1	1	0	1	-15,151515	274,916899	308,731969	0
15.01.2021	12:10:52	0	54,766155	2,614366	2,619	12,4668	0,738	87,99	0	1015,56	7,7	9,4	9,3	1	1	1	1	1	1	1	1	1	0	1	-16,349542	275,019921	308,019703	0
15.01.2021	12:10:53	0	55,00033	3,751046	2,62575	16,11	0,74	87,994	0	1015,36	7,7	9,5	9,3	1	1	1	1	1	1	1	1	1	0	1	-16,27907	275,077916	308,36387	0
15.01.2021	12:10:54	0	55,235277	3,637377	3,084	15,8004	0,74	87,985	0	1015,3	7,7	9,4	9,3	1	1	1	1	1	1	1	1	1	0	1	-12,755462	274,9465	311,267542	0
15.01.2021	12:10:55	0	55,117635	3,864713	3,543	8,6256	0,731	87,973	0	1015,2	7,7	9,5	9,3	1	1	1	1	1	1	1	1	1	0	1	-9,302326	274,941823	314,698631	0
15.01.2021	12:10:56	0	55,234923	4,433052	3,65625	12,4596	0,739	87,969	0	1015,4	7,7	9,5	9,3	1	1	1	1	1	1	1	1	1	0	1	-15,503876	274,954298	308,555886	0
15.01.2021	12:10:57	0	55,000396	3,637376	3,65025	15,0156	0,741	87,984	0	1015,26	7,7	9,5	9,3	1	1	1	1	1	1	1	1	1	0	1	-12,332629	275,087337	312,354788	0
15.01.2021	12:10:58	0	55,469499	4,546719	3,52125	10,0368	0,735	87,97	0	1015,42	7,7	9,5	9,3	1	1	1	1	1	1	1	1	1	0	1	-11,627907	275,060656	312,93356	0
15.01.2021	12:10:59	0	55,118087	2,500695	3,45525	1,17	0,74	87,964	0	1015,4	7,7	9,4	9,3	1	1	1	1	1	1	1	1	1	0	1	-14,094433	275,060656	310,467035	0
15.01.2021	12:11:00	0	55,235005	3,864709	3,56025	353,9376	0,732	87,956	0	1015,26	7,7	9,5	9,3	1	1	1	1	1	1	1	1	1	0	1	-12,332629	274,957418	311,741842	0
15.01.2021	12:11:01	0	55,235005	3,864709	3,56025	353,9376	0,732	87,956	0	1015,26	7,7	9,5	9,3	1	1	1	1	1	1	1	1	1	0	1	-13,812544	275,079486	310,837807	0
15.01.2021	12:11:02	0	55,352294	3,182701	3,31125	359,8308	0,735	87,942	0	1015,28	7,6	9,5	9,3	1	1	1	1	1	1	1	1	1	0	1	-10,852713	274,971463	313,287981	0
15.01.2021	12:11:03	0	55,235038	3,182701	3,018	358,668	0,736	87,949	0	1015,36	7,7	9,5	9,3	1	1	1	1	1	1	1	1	1	0	1	-9,725159	274,927799	314,209697	0
15.01.2021	12:11:04	0	55,352714	3,296368	2,85225	12,8448	0,732	87,908	0	1015,34	7,7	9,4	9,3	1	1	1	1	1	1	1	1	1	0	1	-14,235377	274,969902	309,897956	0
15.01.2021	12:11:05	0	55,235071	3,751039	2,87025	7,1172	0,727	87,934	0	1015,3	7,7	9,5	9,3	1	1	1	1	1	1	1	1	1	0	1	-12,684989	274,910672	311,169155	0
15.01.2021	12:11:06	0	55,117815	2,500693	2,99475	12,0852	0,732	87,926	0	1015,34	7,7	9,5	9,3	1	1	1	1	1	1	1	1	1	0	1	-8,245243	274,927799	315,689612	0
15.01.2021	12:11:07	0	55,469648	4,092042	3,11475	26,5068	0,738	87,939	0	1015,4	7,7	9,5	9,3	1	1	1	1	1	1	1	1	1	0	1	-10,42988	275,048113	314,07239	0
15.01.2021	12:11:08	0	55,469664	4,546712	3,168	359,8344	0,733	87,925	0	1015,36	7,7	9,5	9,3	1	1	1	1	1	1	1	1	1	0	1	-10,42988	274,924684	313,490294	0
15.01.2021	12:11:09	0	55,704225	4,66038	3,21525	359,8848	0,732	87,916	0	1015,36	7,7	9,5	9,3	1	1	1	1	1	1	1	1	1	0	1	-11,557435	275,071638	313,055869	0
15.01.2021	12:11:10	0	55,000609	2,387023	3,4065	0,4896	0,737	87,912	0	1015,4	7,7	9,5	9,3	1	1	1	1	1	1	1	1	1	0	1	-14,235377	274,741775	308,823633	0
15.01.2021	12:11:11	0	55,352441	4,660378	3,9525	350,7516	0,738	87,909	0	1015,32	7,7	9,5	9,3	1	1	1	1	1	1	1	1	1	0	1	-12,05074	275,077916	312,5922	0
15.01.2021	12:11:12	0	55,117913	2,50069	3,837	350,5464	0,734	87,909	0	1015,34	7,6	9,5	9,3	1	1	1	1	1	1	1	1	1	0	1	-13,742072	274,954298	310,31769	0
15.01.2021	12:11:13	0	55,587019	3,637367	3,648	356,544	0,74	87,899	0	1015,48	7,7	9,5	9,3	1	1	1	1	1	1	1	1	1	0	1	-16,913319	275,044979	307,574158	0
15.01.2021	12:11:14	0	55,469763	4,319373	3,4815	360	0,736	87,893	0	1015,22	7,7	9,5	9,3	1	1	1	1	1	1	1	1	1	0	1	-11,06413	274,901337	312,746026	0
15.01.2021	12:11:15	0	55,352507	3,182695	3,42	0,8604	0,734	87,892	0	1015,32	7,7	9,5	9,3	1	1	1	1	1	1	1	1	1	0	1	-9,725159	274,80668	313,639239	0
15.01.2021	12:11:16	0	55,117979	2,728024	3,453	1,908	0,727	87,902	0	1015,3	7,7	9,5	9,3	1	1	1	1	1	1	1	1	1	0	1	-10,147992	274,910672	313,706152	0
15.01.2021	12:11:17	0	55,704357	4,433039	3,45975	359,4708	0,735	87,914	0	1015,34	7,7	9,5	9,3	1	1	1	1	1	1	1	1	1	0	1	-9,654686	274,954298	314,405076	0
15.01.2021	12:11:18	0	55,352556	5,228712	3,49725	359,856	0,742	87,919	0	1015,28	7,7	9,5	9,3	1	1	1	1	1	1	1	1	1	0	1	-13,248767	274,918455	310,642054	0
15.01.2021	12:11:19	0	55,704389	3,864699	3,3855	1,9116	0,736	87,922	0	1015,36	7,7	9,5	9,3	1	1	1	1	1	1	1	1	1	0	1	-15,926709	274,980833	308,258167	0
15.01.2021	12:11:20	0	55,235316	2,84169	3,2565	3,7548	0,737	87,913	0	1015,44	7,7	9,5	9,3	1	1	1	1	1	1	1	1	1	0	1	-17,124736	275,070069	307,48116	0
15.01.2021	12:11:21	0	55,58715	4,546704	3,2475	358,4196	0,734	87,911	0	1015,3	7,7	9,5	9,3	1	1	1	1	1	1	1	1	1	0	1	-12,121212	275,019921	312,248032	0
15.01.2021	12:11:22	0	55,469894	3,978365	3,21375	9,3528	0,731	87,927	0	1015,48	7,7	9,5	9,3	1	1	1	1	1	1	1	1	1	0	1	-9,936575	275,070069	314,669321	0
15.01.2021	12:11:23	0	55,587183	3,069024	3,1905	8,2584	0,733	87,914	0	1015,34	7,7	9,5	9,3	1	1	1	1	1	1	1	1	1	0	1	-8,668076	274,941823	315,332881	0
15.01.2021	12:11:24	0	55,352654	2,728021	3,18	6,0444	0,734	87,917	0	1015,32	7,7	9,5	9,3	1	1	1	1	1	1	1	1	1	0	1	-16,420014	274,921569	307,485482	0
15.01.2021	12:11:25	0	55,35267	3,182691	3,20925	359,4384	0,735	87,921	0	1015,46	7,7	9,5	9,3	1	1	1	1	1	1	1	1	1	0	1	-12,121212	274,977709	312,048934	0
15.01.2021	12:11:26	0	55,352686	2,841688	3,18225	356,2236	0,734	87,916	0	1015,22	7,7	9,5	9,3	1	1	1	1	1	1	1	1	1	0	1	-12,966878	274,888896	310,784667	0
15.01.2021	12:11:27	0	55,352702	3,523693	3,02625	10,4472	0,732	87,923	0	1015,38	7,7	9,5	9,3	1	1	1	1	1	1	1	1	1	0	1	-14,376321	274,983957	309,823287	0
15.01.2021	12:11:28	0	55,352719	3,410025	2,85525	357,2712	0,728	87,915	0	1015,34	7,7	9,5	9,3	1	1	1	1	1	1	1	1	1	0	1	-12,614517	274,906004	311,217629	0
15.01.2021	12:11:29	0	55,58728	4,660366	2,79525	1,5372	0,73	87,914	0	1015,36	7,6	9,5	9,3	1	1	1	1	1	1	1	1	1	0	1	-12,544045	275,03088	311,876904	0
15.01.2021	12:11:30	0	55,470024	3,410024	2,79975	359,8776	0,728	87,914	0	1015,18	7,7	9,5	9,3	1	1	1	1	1	1	1	1	1	0	1	-9,231853	275,037145	315,218656	0
15.01.2021	12:11:31	0	55,704586	4,660393	2,87625	355,1472	0,733	87,906	0	1015,28	7,7	9,5	9,2	1	1	1	1	1	1	1	1	1	0	1	-14,164905	275,03088	310,256044	0
15.01.2021	12:11:32	0	55,587329	3,410023	2,93775	356,1732	0,73	87,914	0	1015,32	7,6	9,5	9,3	1	1	1	1	1	1	1	1	1	0	1	-12,262156	274,929357	311,680041	0
15.01.2021	12:11:33	0	55,3528	3,06902	2,8725	348,6132	0,732	87,89	0	1015,42	7,6	9,5	9,3	1	1	1	1	1	1	1	1	1	0	1	-11,627907	274,944941	312,387747	0
15.01.2021	12:11:34	0	55,821908	3,523689	2,8815	352,08	0,734	87,887	0	1015,4	7,7	9,5	9,3	1	1	1	1	1	1	1	1	1	0	1	-15,503876	275,09205	309,205789	0
15.01.2021	12:11:35	0	55,704651	4,433028	2,92725	3,0276	0,727	87,873	0	1015,26	7,7	9,5	9,3	1	1	1	1	1	1	1	1	1	0	1	-16,138125	274,930915	307,811414	0
15.01.2021	12:11:36	0	55,82194	3,296353	2,76	351,3024	0,733	87,878	0	1015,34	7,7	9,5	9,3	1	1	1	1	1	1	1	1	1	0	1	-10,42988	274,890451	313,328989	0
15.01.2021	12:11:37	0	55,470137	3,523688	2,6715	356,1588	0,732	87,865	0	1015,4	7,7	9,5	9,3	1	1	1	1	1	1	1	1	1	0	1	-12,755462	275,023051	311,628552	0
15.01.2021	12:11:38	0	55,821973	3,182685	2,5695	0,4752	0,728	87,85	0	1015,24	7,6	9,5	9,3	1	1	1	1	1	1	1	1	1	0	1	-12,896406	275,019921	311,472839	0
15.01.2021	12:11:39	0	55,352897	2,95535	2,385	356,202	0,736	87,867	0	1015,38	7,6	9,5	9,3	1	1	1	1	1	1	1	1	1	0	1	-13,883016	274,915342	309,993131	0
15.01.2021	12:11:40	0	55,939278	4,433024	2,32275	9,7272	0,731	87,847	0	1015,18	7,6	9,5	9,3	1	1	1	1	1	1	1	1	1	0	1	-17,124736	274,926242	306,802779	0
15.01.2021	12:11:41	0	55,470202	2,387013	2,33025	2,2932	0,73	87,855	0	1015,34	7,7	9,5	9,3	1	1	1	1	1	1	1	1	1	0	1	-10,711769	275,002712	313,576298	0
15.01.2021	12:11:42	0	55,587492	3,523706	2,26125	6,0444	0,726	87,86	0	1015,36	7,7	9,5	9,2	1	1	1	1	1	1	1	1	1	0	1	-13,601128	274,898226	310,194371	0
15.01.2021	12:11:43	0	55,587508	3,637352	2,28975	6,066	0,731	87,846	0	1015,32	7,6	9,5	9,3	1	1	1	1	1	1	1	1	1	0	1	-10,359408	275,015226	313,987688	0
15.01.2021	12:11:44	0	55,352977	2,955348	2,28	1,5552	0,731	87,843	0	1015,44	7,7	9,5	9,3	1	1	1	1	1	1	1	1	1	0	1	-14,235377	274,881125	309,47956	0
15.01.2021	12:11:45	0	55,93936	4,660356	2,08875	354,636	0,732	87,867	0	1015,42	7,6	9,5	9,3	1	1	1	1	1	1	1	1	1	0	1	-12,403101	275,002712	311,884966	0
15.01.2021	12:11:46	0	55,353009	3,069014	2,06325	355,0428	0,725	87,85	0	1015,38	7,6	9,5	9,3	1	1	1	1	1	1	1	1	1	0	1	-14,728682	274,893561	309,044837	0
15.01.2021	12:11:47	0	55,939392	5,342357	2,2815	11,7108	0,734	87,859	0	1015,32	7,6	9,5	9,3	1	1	1	1	1	1	1	1	1	0	1	-13,6716	275,027748	310,734573	0
15.01.2021	12:11:48	0	55,235768	3,296348	2,505	7,1136	0,729	87,855	0	1015,22	7,7	9,5	9,3	1	1	1	1	1	1	1	1	1	0	1	-16,138125	274,902892	307,67936	0
15.01.2021	12:11:49	0	55,587605	2,614344	2,6775	11,178	0,731	87,872	0	1015,34	7,6	9,5	9,3	1	1	1	1	1	1	1	1	1	0	1	-11,698379	274,941823	312,302578	0
15.01.2021	12:11:50	0	55,353074	2,841678	2,592	16,8588	0,726	87,857	0	1015,38	7,6	9,5	9,3	1	1	1	1	1	1	1	1	1	0	1	-16,27907	275,059088	308,274995	0
15.01.2021	12:11:51	0	55,70491	3,523702	2,373	13,1508	0,723	87,879	0	1015,36	7,7	9,5	9,2	1	1	1	1	1	1	1	1	1	0	1	-16,842847	274,901337	306,967309	0
15.01.2021	12:11:52	0	55,353106	2,72801	2,1945	358,8156	0,732	87,857	0	1015,46	7,6	9,5	9,3	1	1	1	1	1	1	1	1	1	0	1	-12,473573	275,016791	311,880906	0
15.01.2021	12:11:53	0	55,353122	4,433016	2,25975	7,5024	0,735	87,884	0	1015,5	7,6	9,5	9,3	1	1	1	1	1	1	1	1	1	0	1	-19,309373	275,074777	305,318747	0
15.01.2021	12:11:54	0	55,704959	3,751013	2,1945	360	0,729	87,889	0	1015,36	7,7	9,5	9,3	1	1	1	1	1	1	1	1	1	0	1	-13,812544	274,957418	310,261926	0
15.01.2021	12:11:55	0	55,587701	2,841676	2,13075	354,9636	0,724	87,878	0	1015,3	7,6	9,5	9,3	1	1	1	1	1	1	1	1	1	0	1	-11,205074	274,896671	312,583098	0
15.01.2021	12:11:56	0	55,470443	2,387008	2,034	355,0392	0,73	87,88	0	1015,28	7,6	9,5	9,3	1	1	1	1	1	1	1	1	1	0	1	-14,094433	275,018356	310,267428	0
15.01.2021	12:11:57	0	55,353186	3,410011	1,98525	2,6208	0,73	87,877	0	1015,36	7,7	9,5	9,3	1	1	1	1	1	1	1	1	1	0	1	-11,346018	275,077916	313,296922	0
15.01.2021	12:11:58	0	55,353202	4,319372	2,00625	10,422	0,724	87,887	0	1015,34	7,6	9,5	9,2	1	1	1	1	1	1	1	1	1	0	1	-14,65821	274,951178	309,386846	0
15.01.2021	12:11:59	0	55,353218	3,069009	2,04	359,892	0,725	87,884	0	1015,34	7,6	9,5	9,3	1	1	1	1	1	1	1	1	1	0	1	-11,06413	274,926242	312,863385	0
15.01.2021	12:12:00	0	55,587797	2,500673	2,1855	4,842	0,732	87,892	0	1015,46	7,6	9,5	9,3	1	1	1	1	1	1	1	1	1	0	1	-12,121212	274,921569	311,784284	0
15.01.2021	12:12:01	0	55,587797	2,500673	2,1855	4,842	0,732	87,892	0	1015,46	7,6	9,5	9,3	1	1	1	1	1	1	1	1	1	0	1	-14,869626	275,013661	309,470089	0
15.01.2021	12:12:02	0	55,470539	2,614355	2,22525	4,0752	0,723	87,883	0	1015,24	7,6	9,5	9,2	1	1	1	1	1	1	1	1	1	0	1	-16,420014	275,048113	308,082256	0
15.01.2021	12:12:03	0	55,470555	3,978366	2,38875	16,4664	0,729	87,898	0	1015,4	7,6	9,5	9,2	1	1	1	1	1	1	1	1	1	0	1	-13,107822	274,923127	310,805012	0
15.01.2021	12:12:04	0	55,236023	2,614339	2,40975	21,3804	0,723	87,894	0	1015,32	7,6	9,5	9,3	1	1	1	1	1	1	1	1	1	0	1	-11,698379	274,943382	312,309926	0
15.01.2021	12:12:05	0	55,470587	4,319342	2,388	19,9044	0,732	87,905	0	1015,3	7,6	9,5	9,3	1	1	1	1	1	1	1	1	1	0	1	-10,711769	275,063793	313,864505	0
15.01.2021	12:12:06	0	55,236055	2,728021	2,235	17,2404	0,729	87,905	0	1015,44	7,6	9,5	9,2	1	1	1	1	1	1	1	1	1	0	1	-15,64482	275,040278	308,820474	0
15.01.2021	12:12:07	0	55,470619	3,182672	2,1645	14,6484	0,732	87,905	0	1015,22	7,6	9,5	9,3	1	1	1	1	1	1	1	1	1	0	1	-11,346018	274,879571	312,361599	0
15.01.2021	12:12:08	0	55,236087	2,955356	2,12175	16,9164	0,728	87,911	0	1015,36	7,7	9,5	9,2	1	1	1	1	1	1	1	1	1	0	1	-16,772375	275,034012	307,663353	0
15.01.2021	12:12:09	0	55,353377	3,296358	2,013	25,0344	0,732	87,917	0	1015,38	7,6	9,5	9,2	1	1	1	1	1	1	1	1	1	0	1	-15,503876	274,893561	308,269643	0
15.01.2021	12:12:10	0	55,236118	2,614337	1,839	29,556	0,723	87,918	0	1015,26	7,6	9,5	9,3	1	1	1	1	1	1	1	1	1	0	1	-8,80902	274,998022	315,456922	0
15.01.2021	12:12:11	0	55,587957	4,660367	1,80375	32,4828	0,728	87,932	0	1015,28	7,6	9,5	9,2	1	1	1	1	1	1	1	1	1	0	1	-11,41649	274,90756	312,422988	0
15.01.2021	12:12:12	0	55,353424	4,205671	1,6575	29,9412	0,728	87,932	0	1015,32	7,6	9,5	9,3	1	1	1	1	1	1	1	1	1	0	1	-12,684989	275,05752	311,861674	0
15.01.2021	12:12:13	0	55,470714	2,728002	1,60125	16,1136	0,73	87,928	0	1015,42	7,6	9,5	9,3	1	1	1	1	1	1	1	1	1	0	1	-14,376321	275,004276	309,919122	0
15.01.2021	12:12:14	0	55,47073	4,546697	1,61925	23,9544	0,727	87,931	0	1015,32	7,6	9,5	9,2	1	1	1	1	1	1	1	1	1	0	1	-14,587738	274,879571	309,119879	0
15.01.2021	12:12:15	0	55,470746	3,523669	1,665	18,4536	0,729	87,943	0	1015,34	7,6	9,5	9,3	1	1	1	1	1	1	1	1	1	0	1	-16,772375	275,023051	307,611639	0
15.01.2021	12:12:16	0	55,354263	2,955352	1,71825	23,58	0,731	87,947	0	1015,38	7,6	9,3	9,2	1	1	1	1	1	1	1	1	1	0	1	-13,389711	274,890451	310,369158	0
15.01.2021	12:12:17	0	55,705327	5,001365	1,896	18,072	0,723	87,927	0	1015,36	7,6	9,5	9,2	1	1	1	1	1	1	1	1	1	0	1	-14,940099	274,990207	309,288985	0
15.01.2021	12:12:18	0	55,236245	4,205693	1,93275	15,0372	0,732	87,94	0	1015,38	7,6	9,5	9,2	1	1	1	1	1	1	1	1	1	0	1	-13,812544	275,055952	310,726719	0
15.01.2021	12:12:19	0	55,822242	4,546694	2,0535	16,4664	0,725	87,93	0	1015,36	7,6	9,6	9,2	1	1	1	1	1	1	1	1	1	0	1	-12,684989	274,968341	311,440983	0
15.01.2021	12:12:20	0	55,353551	4,319359	2,175	10,4256	0,73	87,921	0	1015,42	7,6	9,5	9,2	1	1	1	1	1	1	1	1	1	0	1	-13,03735	274,884233	310,692228	0
15.01.2021	12:12:21	0	55,588116	4,660332	2,25	10,8216	0,724	87,938	0	1015,4	7,6	9,5	9,3	1	1	1	1	1	1	1	1	1	0	1	-15,715292	274,957418	308,359178	0
15.01.2021	12:12:22	0	55,119033	2,841666	2,2065	21,0024	0,732	87,917	0	1015,46	7,6	9,5	9,3	1	1	1	1	1	1	1	1	1	0	1	-15,151515	274,887342	308,592707	0
15.01.2021	12:12:23	0	55,470484	4,774026	2,05575	17,694	0,734	87,936	0	1015,42	7,6	9,6	9,2	1	1	1	1	1	1	1	1	1	0	1	-16,490486	275,007404	307,819711	0
15.01.2021	12:12:24	0	55,588163	5,114997	1,9365	25,4196	0,751	87,926	0	1015,46	7,6	9,5	9,3	1	1	1	1	1	1	1	1	1	0	1	-13,107822	275,0685	311,490667	0
15.01.2021	12:12:25	0	55,940786	3,523685	1,9365	16,4664	0,734	87,926	0	1015,38	7,6	9,3	9,2	1	1	1	1	1	1	1	1	1	0	1	-16,349542	274,968341	307,776431	0
15.01.2021	12:12:26	0	55,470531	3,182683	2,0445	14,2884	0,728	87,929	0	1015,34	7,6	9,6	9,2	1	1	1	1	1	1	1	1	1	0	1	-12,473573	274,916899	311,409911	0
15.01.2021	12:12:27	0	55,354436	2,841681	2,115	8,2656	0,732	87,935	0	1015,46	7,6	9,3	9,2	1	1	1	1	1	1	1	1	1	0	1	-15,997181	275,016791	308,357297	0
15.01.2021	12:12:28	0	55,236402	3,637351	2,17875	359,3916	0,735	87,932	0	1015,48	7,6	9,5	9,2	1	1	1	1	1	1	1	1	1	0	1	-15,151515	275,066931	309,439568	0
15.01.2021	12:12:29	0	55,939674	4,660355	2,14725	7,5204	0,729	87,916	0	1015,42	7,6	9,6	9,2	1	1	1	1	1	1	1	1	1	0	1	-13,742072	274,971463	310,398622	0
15.01.2021	12:12:30	0	56,057357	4,88766	2,03925	354,6144	0,733	87,914	0	1015,46	7,6	9,5	9,3	1	1	1	1	1	1	1	1	1	0	1	-15,081043	274,910672	308,773101	0
15.01.2021	12:12:31	0	55,353336	2,841662	1,92075	19,5156	0,728	87,923	0	1015,3	7,6	9,6	9,3	1	1	1	1	1	1	1	1	1	0	1	-16,138125	274,938706	307,848137	0
15.01.2021	12:12:32	0	55,940114	2,955346	1,98	10,4292	0,723	87,911	0	1015,36	7,6	9,5	9,2	1	1	1	1	1	1	1	1	1	0	1	-13,319239	275,043412	311,160844	0
15.01.2021	12:12:33	0	55,353755	3,52366	2,05875	19,8756	0,727	87,927	0	1015,24	7,6	9,5	9,3	1	1	1	1	1	1	1	1	1	0	1	-12,191684	275,016791	312,162794	0
15.01.2021	12:12:34	0	55,939753	3,751015	2,2215	16,4916	0,729	87,928	0	1015,42	7,6	9,6	9,2	1	1	1	1	1	1	1	1	1	0	1	-13,389711	275,038711	311,068191	0
15.01.2021	12:12:35	0	55,705221	4,091967	2,24625	12,0888	0,732	87,927	0	1015,42	7,6	9,6	9,4	1	1	1	1	1	1	1	1	1	0	1	-18,393235	274,938706	305,593028	0
15.01.2021	12:12:36	0	56,292002	5,45602	2,40825	12,0924	0,73	87,923	0	1015,42	7,6	9,5	9,2	1	1	1	1	1	1	1	1	1	0	1	-14,587738	275,035578	309,855381	0
15.01.2021	12:12:37	0	55,822918	4,433016	2,57025	14,2956	0,731	87,928	0	1015,56	7,6	9,5	9,2	1	1	1	1	1	1	1	1	1	0	1	-11,205074	275,008968	313,112502	0
15.01.2021	12:12:38	0	55,823715	3,409991	2,54325	12,1068	0,73	87,933	0	1015,56	7,6	9,3	9,3	1	1	1	1	1	1	1	1	1	0	1	-18,675123	274,895116	305,105722	0
15.01.2021	12:12:39	0	56,174381	3,637345	2,49	4,4676	0,731	87,941	0	1015,38	7,6	9,6	9,2	1	1	1	1	1	1	1	1	1	0	1	-11,346018	274,962098	312,75052	0
15.01.2021	12:12:40	0	55,94024	2,955343	2,439	4,4676	0,73	87,919	0	1015,42	7,6	9,5	9,2	1	1	1	1	1	1	1	1	1	0	1	-15,64482	275,051248	308,872244	0
15.01.2021	12:12:41	0	56,174413	2,500674	2,4105	13,1436	0,735	87,924	0	1015,4	7,6	9,6	9,2	1	1	1	1	1	1	1	1	1	0	1	-13,883016	275,016791	310,471462	0
15.01.2021	12:12:42	0	55,93988	2,955342	2,2605	21,0096	0,73	87,932	0	1015,42	7,6	9,6	9,2	1	1	1	1	1	1	1	1	1	0	1	-12,614517	275,049681	311,89515	0
15.01.2021	12:12:43	0	56,526267	4,091987	2,241	17,7084	0,722	87,907	0	1015,34	7,6	9,6	9,3	1	1	1	1	1	1	1	1	1	0	1	-17,970402	275,023051	306,413612	0
15.01.2021	12:12:44	0	56,17446	2,61434	2,25525	20,6352	0,731	87,927	0	1015,44	7,6	9,6	9,2	1	1	1	1	1	1	1	1	1	0	1	-11,41649	275,029314	312,99707	0
15.01.2021	12:12:45	0	56,174869	4,319344	2,2935	22,0716	0,727	87,925	0	1015,42	7,6	9,5	9,2	1	1	1	1	1	1	1	1	1	0	1	-15,856237	275,027748	308,549936	0
15.01.2021	12:12:46	0	56,409436	3,296341	2,45175	18,0792	0,73	87,909	0	1015,22	7,6	9,5	9,2	1	1	1	1	1	1	1	1	1	0	1	-15,856237	275,054384	308,675626	0
15.01.2021	12:12:47	0	56,761278	5,001344	2,60625	20,898	0,728	87,907	0	1015,2	7,6	9,5	9,2	1	1	1	1	1	1	1	1	1	0	1	-14,094433	275,026182	310,304353	0
15.01.2021	12:12:48	0	56,409072	3,751008	2,63475	15,7752	0,73	87,921	0	1015,36	7,6	9,6	9,2	1	1	1	1	1	1	1	1	1	0	1	-16,138125	275,019921	308,231119	0
15.01.2021	12:12:49	0	56,292208	3,29634	2,643	18,8316	0,726	87,916	0	1015,36	7,6	9,5	9,2	1	1	1	1	1	1	1	1	1	0	1	-15,221987	274,887342	308,522235	0
15.01.2021	12:12:50	0	56,526774	3,410006	2,6595	13,9104	0,722	87,889	0	1015,32	7,6	9,5	9,2	1	1	1	1	1	1	1	1	1	0	1	-14,65821	274,934031	309,306017	0
15.01.2021	12:12:51	0	56,409119	2,841671	2,778	7,1316	0,728	87,909	0	1015,38	7,6	9,6	9,2	1	1	1	1	1	1	1	1	1	0	1	-12,755462	274,910672	311,098682	0
15.01.2021	12:12:52	0	56,52641	3,069005	2,86875	9,3456	0,728	87,9	0	1015,32	7,6	9,6	9,2	1	1	1	1	1	1	1	1	1	0	1	-14,376321	275,010532	309,948634	0
15.01.2021	12:12:53	0	56,526822	2,728004	2,91	6,8148	0,73	87,882	0	1015,4	7,6	9,5	9,2	1	1	1	1	1	1	1	1	1	0	1	-10,288936	274,904448	313,53588	0
15.01.2021	12:12:54	0	56,643716	3,864672	2,97975	3,78	0,725	87,864	0	1015,34	7,6	9,6	9,2	1	1	1	1	1	1	1	1	1	0	1	-14,940099	274,902892	308,877387	0
15.01.2021	12:12:55	0	57,231309	4,205646	2,93475	6,0624	0,73	87,854	0	1015,44	7,6	9,3	9,3	1	1	1	1	1	1	1	1	1	0	1	-16,420014	274,980833	307,764862	0
15.01.2021	12:12:56	0	56,761023	3,069003	2,8515	5,6844	0,728	87,854	0	1015,4	7,6	9,6	9,2	1	1	1	1	1	1	1	1	1	0	1	-18,181818	274,884233	305,54776	0
15.01.2021	12:12:57	0	57,113263	4,319311	2,82675	0,4788	0,729	87,845	0	1015,38	7,6	9,5	9,3	1	1	1	1	1	1	1	1	1	0	1	-13,953488	274,846969	309,600582	0
15.01.2021	12:12:58	0	56,996003	3,069002	2,8455	1,5444	0,729	87,849	0	1015,42	7,6	9,5	9,2	1	1	1	1	1	1	1	1	1	0	1	-9,372798	274,888896	314,378747	0
15.01.2021	12:12:59	0	57,347445	4,31931	2,847	359,6472	0,729	87,831	0	1015,44	7,6	9,6	9,3	1	1	1	1	1	1	1	1	1	0	1	-11,980268	275,019921	312,388977	0
15.01.2021	12:13:00	0	57,347477	2,955317	2,844	359,5032	0,73	87,824	0	1015,52	7,6	9,6	9,3	1	1	1	1	1	1	1	1	1	0	1	-12,684989	274,884233	311,044588	0
15.01.2021	12:13:01	0	57,347477	2,955317	2,844	359,5032	0,73	87,824	0	1015,52	7,6	9,6	9,3	1	1	1	1	1	1	1	1	1	0	1	-12,332629	275,012097	311,999706	0
15.01.2021	12:13:02	0	57,113343	3,068964	2,79075	2,952	0,726	87,826	0	1015,32	7,6	9,5	9,4	1	1	1	1	1	1	1	1	1	0	1	-9,584214	274,893561	314,189305	0
15.01.2021	12:13:03	0	57,465186	3,182667	2,826	8,2512	0,729	87,82	0	1015,3	7,6	9,5	9,2	1	1	1	1	1	1	1	1	1	0	1	-15,010571	275,048113	309,491699	0
15.01.2021	12:13:04	0	57,81703	3,068981	2,72775	16,0848	0,727	87,821	0	1015,34	7,6	9,5	9,3	1	1	1	1	1	1	1	1	1	0	1	-14,869626	274,926242	309,057888	0
15.01.2021	12:13:05	0	57,230666	3,068999	2,5755	3,4092	0,731	87,827	0	1015,38	7,6	9,5	9,2	1	1	1	1	1	1	1	1	1	0	1	-12,332629	274,870251	311,331086	0
15.01.2021	12:13:06	0	57,817062	3,296312	2,34075	337,5972	0,723	87,821	0	1015,18	7,6	9,5	9,3	1	1	1	1	1	1	1	1	1	0	1	-14,094433	274,971463	310,046262	0
15.01.2021	12:13:07	0	57,699802	2,50065	2,4735	356,9076	0,727	87,824	0	1015,28	7,6	9,5	9,3	1	1	1	1	1	1	1	1	1	0	1	-12,544045	274,885788	311,192854	0
15.01.2021	12:13:08	0	57,465266	4,091998	2,5725	359,1072	0,723	87,837	0	1015,52	7,6	9,5	9,2	1	1	1	1	1	1	1	1	1	0	1	-9,936575	274,888896	313,81497	0
15.01.2021	12:13:09	0	57,582558	2,614316	2,38125	3,7584	0,727	87,828	0	1015,38	7,6	9,5	9,3	1	1	1	1	1	1	1	1	1	0	1	-12,403101	274,892006	311,363093	0
15.01.2021	12:13:10	0	57,817126	2,955295	2,19975	3,762	0,729	87,831	0	1015,36	7,6	9,5	9,4	1	1	1	1	1	1	1	1	1	0	1	-9,090909	274,993332	315,152916	0
15.01.2021	12:13:11	0	57,58259	3,068978	2,15175	12,8268	0,726	87,825	0	1015,34	7,6	9,5	9,3	1	1	1	1	1	1	1	1	1	0	1	-13,389711	274,873357	310,288635	0
15.01.2021	12:13:12	0	57,582606	5,114963	2,046	358,3872	0,727	87,827	0	1015,44	7,6	9,5	9,3	1	1	1	1	1	1	1	1	1	0	1	-14,094433	274,943382	309,913872	0
15.01.2021	12:13:13	0	57,817174	4,09197	2,16975	9,3636	0,727	87,826	0	1015,3	7,6	9,5	9,3	1	1	1	1	1	1	1	1	1	0	1	-9,866103	275,038711	314,591799	0
15.01.2021	12:13:14	0	58,052556	3,637328	2,26425	10,548	0,722	87,849	0	1015,42	7,6	9,3	9,2	1	1	1	1	1	1	1	1	1	0	1	-11,346018	274,994895	312,905178	0
15.01.2021	12:13:15	0	58,051759	5,001296	2,29875	8,6004	0,72	87,829	0	1015,28	7,6	9,5	9,3	1	1	1	1	1	1	1	1	1	0	1	-13,530655	275,054384	311,001207	0
15.01.2021	12:13:16	0	57,699946	2,955311	2,27175	10,4364	0,728	87,841	0	1015,32	7,6	9,5	9,3	1	1	1	1	1	1	1	1	1	0	1	-13,107822	274,980833	311,077053	0
15.01.2021	12:13:17	0	57,934514	4,887658	2,15175	2,6496	0,725	87,831	0	1015,48	7,6	9,5	9,2	1	1	1	1	1	1	1	1	1	0	1	-14,305849	274,879571	309,401768	0
15.01.2021	12:13:18	0	57,93453	4,660296	2,121	10,0656	0,724	87,846	0	1015,34	7,6	9,5	9,3	1	1	1	1	1	1	1	1	1	0	1	-9,161381	274,985519	315,045595	0
15.01.2021	12:13:19	0	58,403652	4,205633	2,1885	360	0,729	87,849	0	1015,4	7,6	9,5	9,3	1	1	1	1	1	1	1	1	1	0	1	-12,544045	274,882679	311,178212	0
15.01.2021	12:13:20	0	58,286391	5,114958	2,3085	2,6532	0,724	87,855	0	1015,38	7,6	9,5	9,3	1	1	1	1	1	1	1	1	1	0	1	-13,319239	275,00584	310,983581	0
15.01.2021	12:13:21	0	58,403275	2,614312	2,424	360	0,727	87,856	0	1015,52	7,6	9,6	9,3	1	1	1	1	1	1	1	1	1	0	1	-10,147992	274,882679	313,574265	0
15.01.2021	12:13:22	0	58,169147	3,296305	2,4465	3,0096	0,72	87,852	0	1015,3	7,6	9,5	9,3	1	1	1	1	1	1	1	1	1	0	1	-9,654686	274,94806	314,375667	0
15.01.2021	12:13:23	0	58,051886	3,296305	2,4195	12,096	0,725	87,868	0	1015,42	7,6	9,5	9,3	1	1	1	1	1	1	1	1	1	0	1	-12,191684	274,882679	311,530573	0
15.01.2021	12:13:24	0	58,286455	2,727976	2,28225	4,464	0,725	87,85	0	1015,26	7,6	9,5	9,3	1	1	1	1	1	1	1	1	1	0	1	-15,574348	275,044979	308,913129	0
15.01.2021	12:13:25	0	58,169195	3,296304	2,2305	5,2164	0,723	87,846	0	1015,22	7,6	9,5	9,3	1	1	1	1	1	1	1	1	1	0	1	-7,892882	275,004276	316,402561	0
15.01.2021	12:13:26	0	57,934658	2,841641	2,33025	1,9152	0,722	87,874	0	1015,4	7,7	9,5	9,3	1	1	1	1	1	1	1	1	1	0	1	-11,134602	275,066931	313,456482	0
15.01.2021	12:13:27	0	58,169227	2,955306	2,43525	2,6424	0,728	87,87	0	1015,46	7,6	9,5	9,3	1	1	1	1	1	1	1	1	1	0	1	-10,007047	274,9465	314,015956	0
15.01.2021	12:13:28	0	57,934283	2,727975	2,3985	16,4916	0,725	87,868	0	1015,64	7,6	9,6	9,3	1	1	1	1	1	1	1	1	1	0	1	-14,728682	275,051248	309,788383	0
15.01.2021	12:13:29	0	58,286535	3,068971	2,412	3,3912	0,721	87,855	0	1015,44	7,6	9,5	9,3	1	1	1	1	1	1	1	1	1	0	1	-15,151515	274,987081	309,062829	0
15.01.2021	12:13:30	0	58,169275	4,205627	2,35425	25,0272	0,715	87,858	0	1015,36	7,6	9,5	9,3	1	1	1	1	1	1	1	1	1	0	1	-9,302326	275,066931	315,288758	0
15.01.2021	12:13:31	0	58,16929	3,637298	2,1315	10,7964	0,721	87,858	0	1015,34	7,6	9,5	9,3	1	1	1	1	1	1	1	1	1	0	1	-13,601128	274,955858	310,465988	0
15.01.2021	12:13:32	0	58,169306	3,750963	2,0835	9,09	0,721	87,871	0	1015,38	7,7	9,5	9,3	1	1	1	1	1	1	1	1	1	0	1	-12,121212	274,884233	311,608366	0
15.01.2021	12:13:33	0	58,052045	2,500642	2,136	11,7072	0,723	87,865	0	1015,48	7,7	9,5	9,3	1	1	1	1	1	1	1	1	1	0	1	-11,486963	274,968341	312,63901	0
15.01.2021	12:13:34	0	58,052061	3,182635	2,316	13,9068	0,722	87,861	0	1015,5	7,6	9,5	9,3	1	1	1	1	1	1	1	1	1	0	1	-11,486963	275,043412	312,99312	0
15.01.2021	12:13:35	0	58,521185	5,001282	2,3925	15,4008	0,72	87,859	0	1015,34	7,6	9,5	9,3	1	1	1	1	1	1	1	1	1	0	1	-10,218464	275,024617	314,172935	0
15.01.2021	12:13:36	0	58,16937	3,409965	2,3565	21,006	0,723	87,861	0	1015,44	7,7	9,5	9,3	1	1	1	1	1	1	1	1	1	0	1	-12,332629	275,060656	312,228839	0
15.01.2021	12:13:37	0	58,521217	4,660285	2,28	15,7788	0,717	87,845	0	1015,38	7,6	9,5	9,3	1	1	1	1	1	1	1	1	1	0	1	-15,151515	275,007404	309,158682	0
15.01.2021	12:13:38	0	58,169401	2,955302	2,376	16,8408	0,722	87,856	0	1015,42	7,7	9,5	9,3	1	1	1	1	1	1	1	1	1	0	1	-10,147992	275,037145	314,302518	0
15.01.2021	12:13:39	0	57,934863	3,409963	2,32875	17,226	0,724	87,86	0	1015,4	7,6	9,5	9,3	1	1	1	1	1	1	1	1	1	0	1	-12,896406	275,048113	311,605864	0
15.01.2021	12:13:40	0	58,052156	3,409963	2,2905	18,828	0,715	87,857	0	1015,4	7,5	9,5	9,3	1	1	1	1	1	1	1	1	1	0	1	-9,231853	274,996458	315,026716	0
15.01.2021	12:13:41	0	58,404003	4,546617	2,24775	17,2332	0,721	87,855	0	1015,42	7,6	9,5	9,3	1	1	1	1	1	1	1	1	1	0	1	-9,372798	275,054384	315,159065	0
15.01.2021	12:13:42	0	58,404019	3,637293	2,1825	13,2336	0,713	87,838	0	1015,3	7,6	9,5	9,3	1	1	1	1	1	1	1	1	1	0	1	-12,825934	274,935589	311,145637	0
15.01.2021	12:13:43	0	58,052203	2,727969	2,12175	8,9964	0,722	87,843	0	1015,3	7,7	9,5	9,3	1	1	1	1	1	1	1	1	1	0	1	-9,513742	274,882679	314,208515	0
15.01.2021	12:13:44	0	58,286773	4,205619	2,082	356,8752	0,714	87,839	0	1015,36	7,6	9,5	9,3	1	1	1	1	1	1	1	1	1	0	1	-11,275546	274,927799	312,659309	0
15.01.2021	12:13:45	0	58,052235	2,386973	2,055	353,61	0,715	87,84	0	1015,3	7,6	9,5	9,3	1	1	1	1	1	1	1	1	1	0	1	-13,03735	274,879571	310,670267	0
15.01.2021	12:13:46	0	58,404082	5,001275	2,00475	355,4208	0,717	87,826	0	1015,34	7,6	9,5	9,3	1	1	1	1	1	1	1	1	1	0	1	-11,134602	274,885788	312,602298	0
15.01.2021	12:13:47	0	58,286821	3,864621	2,0055	358,7796	0,717	87,845	0	1015,34	7,7	9,5	9,3	1	1	1	1	1	1	1	1	1	0	1	-9,725159	275,002712	314,562908	0
15.01.2021	12:13:48	0	57,935005	3,978286	2,01	359,0136	0,719	87,847	0	1015,42	7,6	9,5	9,3	1	1	1	1	1	1	1	1	1	0	1	-10,500352	275,048113	314,001917	0
15.01.2021	12:13:49	0	58,169575	2,955298	2,064	5,67	0,719	87,83	0	1015,46	7,7	9,5	9,3	1	1	1	1	1	1	1	1	1	0	1	-11,205074	274,994895	313,046123	0
15.01.2021	12:13:50	0	58,169591	5,114938	2,05275	12,8304	0,719	87,837	0	1015,52	7,7	9,5	9,3	1	1	1	1	1	1	1	1	1	0	1	-8,668076	274,885788	315,068823	0
15.01.2021	12:13:51	0	58,286884	3,864619	2,01	354,204	0,713	87,838	0	1015,34	7,7	9,5	9,3	1	1	1	1	1	1	1	1	1	0	1	-8,879493	274,994895	315,371704	0
15.01.2021	12:13:52	0	58,169622	2,727966	1,98225	350,2116	0,715	87,825	0	1015,42	7,6	9,5	9,3	1	1	1	1	1	1	1	1	1	0	1	-8,104299	274,904448	315,720517	0
15.01.2021	12:13:53	0	58,286915	3,750953	1,94175	337,5396	0,716	87,836	0	1015,28	7,7	9,5	9,3	1	1	1	1	1	1	1	1	1	0	1	-10,218464	275,012097	314,113871	0
15.01.2021	12:13:54	0	57,817821	2,841631	1,88175	357,66	0,715	87,825	0	1015,34	7,7	9,5	9,3	1	1	1	1	1	1	1	1	1	0	1	-8,949965	274,879571	314,757652	0
15.01.2021	12:13:55	0	57,817836	2,386969	1,881	8,2548	0,72	87,834	0	1015,34	7,6	9,5	9,3	1	1	1	1	1	1	1	1	1	0	1	-9,020437	274,94806	315,009917	0
15.01.2021	12:13:56	0	58,052407	5,001269	1,857	19,89	0,712	87,84	0	1015,3	7,6	9,5	9,3	1	1	1	1	1	1	1	1	1	0	1	-7,751938	274,884233	315,97764	0
15.01.2021	12:13:57	0	58,286978	4,432942	1,8525	9,7308	0,71	87,842	0	1015,22	7,5	9,5	9,3	1	1	1	1	1	1	1	1	1	0	1	-8,668076	274,988644	315,553637	0
15.01.2021	12:13:58	0	58,052438	4,319276	1,79025	8,2512	0,715	87,832	0	1015,32	7,6	9,5	9,3	1	1	1	1	1	1	1	1	1	0	1	-10,570825	274,892006	313,195369	0
15.01.2021	12:13:59	0	58,169732	3,97828	1,7805	7,506	0,718	87,85	0	1015,44	7,7	9,5	9,3	1	1	1	1	1	1	1	1	1	0	1	-5,84919	274,927799	318,085666	0
15.01.2021	12:14:00	0	58,287041	3,182623	1,8795	13,9032	0,715	87,84	0	1015,44	7,7	9,5	9,3	1	1	1	1	1	1	1	1	1	0	1	-10,077519	275,049681	314,432148	0
15.01.2021	12:14:01	0	58,287041	3,182623	1,8795	13,9032	0,715	87,84	0	1015,44	7,7	9,5	9,3	1	1	1	1	1	1	1	1	1	0	1	-8,104299	275,024617	316,2871	0
15.01.2021	12:14:02	0	57,935223	3,409953	1,91625	17,2404	0,713	87,847	0	1015,54	7,7	9,5	9,3	1	1	1	1	1	1	1	1	1	0	1	-7,470049	274,898226	316,32545	0
15.01.2021	12:14:03	0	58,169794	4,773934	1,97775	357,228	0,716	87,865	0	1015,32	7,7	9,5	9,3	1	1	1	1	1	1	1	1	1	0	1	-11,134602	275,044979	313,352876	0
15.01.2021	12:14:04	0	57,935254	2,727962	1,962	2,0124	0,717	87,86	0	1015,48	7,6	9,5	9,3	1	1	1	1	1	1	1	1	1	0	1	-5,144468	275,046546	319,350405	0
15.01.2021	12:14:05	0	58,052547	3,750947	2,10375	0	0,708	87,854	0	1015,38	7,7	9,5	9,3	1	1	1	1	1	1	1	1	1	0	1	-9,44327	274,94806	314,587084	0
15.01.2021	12:14:06	0	57,818007	4,319272	2,19675	11,1852	0,713	87,856	0	1015,34	7,7	9,5	9,3	1	1	1	1	1	1	1	1	1	0	1	-10,570825	275,054384	313,961038	0
15.01.2021	12:14:07	0	58,052578	3,637281	2,1915	3,7656	0,714	87,869	0	1015,52	7,7	9,5	9,3	1	1	1	1	1	1	1	1	1	0	1	-6,8358	274,962098	317,260739	0
15.01.2021	12:14:08	0	58,052594	4,660266	2,13525	0,1872	0,72	87,875	0	1015,2	7,7	9,5	9,3	1	1	1	1	1	1	1	1	1	0	1	-9,654686	275,071638	314,958617	0
15.01.2021	12:14:09	0	57,935331	3,296285	2,184	11,7036	0,711	87,876	0	1015,34	7,7	9,5	9,3	1	1	1	1	1	1	1	1	1	0	1	-7,329105	274,937147	316,649812	0
15.01.2021	12:14:10	0	58,052625	4,31927	2,226	3,3984	0,721	87,886	0	1015,36	7,7	9,5	9,3	1	1	1	1	1	1	1	1	1	0	1	-14,446794	275,019921	309,922451	0
15.01.2021	12:14:11	0	58,169919	4,432934	2,25225	18,4644	0,717	87,888	0	1015,52	7,7	9,5	9,3	1	1	1	1	1	1	1	1	1	0	1	-12,896406	275,012097	311,435929	0
15.01.2021	12:14:12	0	58,052656	4,205603	2,1255	20,3724	0,72	87,889	0	1015,52	7,7	9,5	9,3	1	1	1	1	1	1	1	1	1	0	1	-12,262156	275,059088	312,291909	0
15.01.2021	12:14:13	0	58,16995	4,546598	2,08875	14,6412	0,718	87,898	0	1015,4	7,7	9,5	9,3	1	1	1	1	1	1	1	1	1	0	1	-14,164905	274,94806	309,865449	0
15.01.2021	12:14:14	0	58,169965	4,432932	2,139	8,6004	0,714	87,897	0	1015,46	7,7	9,5	9,3	1	1	1	1	1	1	1	1	1	0	1	-10,288936	274,896671	313,499236	0
15.01.2021	12:14:15	0	58,16998	2,727958	2,11575	15,7968	0,716	87,9	0	1015,42	7,7	9,5	9,3	1	1	1	1	1	1	1	1	1	0	1	-7,047216	274,94806	316,983137	0
15.01.2021	12:14:16	0	58,287274	4,773926	2,07075	5,6736	0,721	87,902	0	1015,52	7,6	9,5	9,3	1	1	1	1	1	1	1	1	1	0	1	-8,45666	274,899781	315,346167	0
15.01.2021	12:14:17	0	58,170011	4,319266	2,02575	13,1544	0,715	87,907	0	1015,34	7,7	9,5	9,3	1	1	1	1	1	1	1	1	1	0	1	-14,376321	275,051248	310,140743	0
15.01.2021	12:14:18	0	58,170027	3,068951	2,01075	23,9688	0,719	87,919	0	1015,32	7,7	9,5	9,3	1	1	1	1	1	1	1	1	1	0	1	-13,178295	275,040278	311,287	0
15.01.2021	12:14:19	0	58,287321	4,660259	1,968	1,1736	0,715	87,918	0	1015,38	7,7	9,5	9,3	1	1	1	1	1	1	1	1	1	0	1	-8,597604	274,878018	315,102694	0
15.01.2021	12:14:20	0	58,287336	3,29628	2,04825	6,0588	0,714	87,917	0	1015,32	7,6	9,5	9,3	1	1	1	1	1	1	1	1	1	0	1	-13,953488	274,949619	310,084216	0
15.01.2021	12:14:21	0	57,935516	3,52361	2,1045	0,1332	0,717	87,91	0	1015,54	7,7	9,5	9,3	1	1	1	1	1	1	1	1	1	0	1	-4,721635	275,060656	319,839832	0
15.01.2021	12:14:22	0	58,05281	2,614291	2,18475	0,486	0,713	87,934	0	1015,46	7,7	9,5	9,3	1	1	1	1	1	1	1	1	1	0	1	-5,21494	274,828364	318,251529	0
15.01.2021	12:14:23	0	58,404661	4,546592	2,2545	356,8932	0,718	87,918	0	1015,38	7,7	9,5	9,3	1	1	1	1	1	1	1	1	1	0	1	-8,033827	275,060656	316,527641	0
15.01.2021	12:14:24	0	58,521955	3,068949	2,3475	355,4892	0,716	87,921	0	1015,34	7,6	9,5	9,3	1	1	1	1	1	1	1	1	1	0	1	-10,147992	274,957418	313,926479	0
15.01.2021	12:14:25	0	58,287413	3,637251	2,259	345,0852	0,719	87,937	0	1015,54	7,6	9,5	9,4	1	1	1	1	1	1	1	1	1	0	1	-9,513742	275,076347	315,121788	0
15.01.2021	12:14:26	0	58,052872	3,978266	2,2005	352,5156	0,714	87,934	0	1015,3	7,6	9,5	9,3	1	1	1	1	1	1	1	1	1	0	1	-5,990134	274,913785	317,878678	0
15.01.2021	12:14:27	0	58,287444	4,660254	2,15775	346,158	0,716	87,941	0	1015,36	7,6	9,5	9,3	1	1	1	1	1	1	1	1	1	0	1	-6,906272	275,016791	317,448206	0
15.01.2021	12:14:28	0	58,052902	2,273294	2,13525	350,2476	0,709	87,941	0	1015,46	7,7	9,5	9,3	1	1	1	1	1	1	1	1	1	0	1	-10,570825	275,052816	313,953639	0
15.01.2021	12:14:29	0	58,639311	4,09193	2,02725	341,3592	0,709	87,944	0	1015,36	7,7	9,5	9,3	1	1	1	1	1	1	1	1	1	0	1	-10,288936	274,94806	313,741418	0
15.01.2021	12:14:30	0	58,28749	4,319258	1,86525	356,562	0,713	87,945	0	1015,4	7,7	9,5	9,3	1	1	1	1	1	1	1	1	1	0	1	-10,147992	275,054384	314,383871	0
15.01.2021	12:14:31	0	58,522063	3,864599	1,82775	354,7728	0,715	87,95	0	1015,46	7,7	9,5	9,3	1	1	1	1	1	1	1	1	1	0	1	-5,567301	274,9465	318,455702	0
15.01.2021	12:14:32	0	58,287521	2,955264	1,71375	1,5228	0,712	87,949	0	1015,34	7,7	9,5	9,4	1	1	1	1	1	1	1	1	1	0	1	-4,439746	274,890451	319,319123	0
15.01.2021	12:14:33	0	58,170257	2,614287	1,6965	7,11	0,722	87,948	0	1015,3	7,7	9,5	9,3	1	1	1	1	1	1	1	1	1	0	1	-6,694856	275,010532	317,630099	0
15.01.2021	12:14:34	0	58,287552	3,18261	1,66275	39,8448	0,719	87,958	0	1015,38	7,6	9,5	9,3	1	1	1	1	1	1	1	1	1	0	1	-10,42988	275,041845	314,042808	0
15.01.2021	12:14:35	0	58,404846	5,569567	1,69875	31,0104	0,721	87,954	0	1015,4	7,7	9,5	9,3	1	1	1	1	1	1	1	1	1	0	1	-8,527132	274,999585	315,746185	0
15.01.2021	12:14:36	0	58,639419	3,864597	1,677	42,5916	0,722	87,967	0	1015,36	7,6	9,5	9,3	1	1	1	1	1	1	1	1	1	0	1	-6,765328	275,059088	317,788737	0
15.01.2021	12:14:37	0	58,639434	4,773913	1,64625	23,2056	0,724	87,966	0	1015,24	7,7	9,5	9,3	1	1	1	1	1	1	1	1	1	0	1	-6,342495	274,898226	317,453004	0
15.01.2021	12:14:38	0	58,639449	4,432919	1,69575	351,4788	0,72	87,973	0	1015,46	7,6	9,5	9,3	1	1	1	1	1	1	1	1	1	0	1	-9,161381	274,952738	314,891028	0
15.01.2021	12:14:39	0	57,935791	2,72795	1,6725	0,8604	0,719	87,96	0	1015,36	7,6	9,5	9,3	1	1	1	1	1	1	1	1	1	0	1	-5,144468	274,893561	318,629051	0
15.01.2021	12:14:40	0	58,287643	2,614285	1,512	3,0096	0,721	87,974	0	1015,4	7,7	9,5	9,3	1	1	1	1	1	1	1	1	1	0	1	-8,174771	275,029314	316,238789	0
15.01.2021	12:14:41	0	58,17038	3,296272	1,422	5,2128	0,718	87,978	0	1015,26	7,6	9,5	9,3	1	1	1	1	1	1	1	1	1	0	1	-9,372798	274,885788	314,364102	0
15.01.2021	12:14:42	0	58,287674	4,546581	1,38525	7,506	0,721	87,979	0	1015,36	7,6	9,5	9,3	1	1	1	1	1	1	1	1	1	0	1	-11,627907	275,008968	312,689669	0
15.01.2021	12:14:43	0	58,639526	4,54658	1,37175	6,0552	0,722	87,976	0	1015,38	7,6	9,5	9,3	1	1	1	1	1	1	1	1	1	0	1	-12,614517	275,015226	311,732579	0
15.01.2021	12:14:44	0	58,170425	2,727931	1,5	6,4404	0,722	87,993	0	1015,5	7,6	9,5	9,4	1	1	1	1	1	1	1	1	1	0	1	-8,104299	275,044979	316,383179	0
15.01.2021	12:14:45	0	58,404999	3,182605	1,60575	17,2296	0,721	87,991	0	1015,42	7,7	9,5	9,3	1	1	1	1	1	1	1	1	1	0	1	-10,147992	274,901337	313,662164	0
15.01.2021	12:14:46	0	58,170456	3,637263	1,6275	15,0228	0,724	88,003	0	1015,48	7,6	9,5	9,3	1	1	1	1	1	1	1	1	1	0	1	-10,42988	274,943382	313,578425	0
15.01.2021	12:14:47	0	58,053192	2,841611	1,6575	7,5168	0,718	88,012	0	1015,46	7,6	9,5	9,3	1	1	1	1	1	1	1	1	1	0	1	-7,963354	274,888896	315,788191	0
15.01.2021	12:14:48	0	58,405044	3,864591	1,707	6,0516	0,721	88,008	0	1015,4	7,6	9,5	9,3	1	1	1	1	1	1	1	1	1	0	1	-7,751938	274,955858	316,315178	0
15.01.2021	12:14:49	0	58,40506	3,182604	1,75725	10,0692	0,716	88,009	0	1015,34	7,6	9,5	9,3	1	1	1	1	1	1	1	1	1	0	1	-9,513742	274,895116	314,267103	0
15.01.2021	12:14:50	0	58,756913	4,773905	1,8435	13,9176	0,721	88,005	0	1015,22	7,7	9,5	9,3	1	1	1	1	1	1	1	1	1	0	1	-10,852713	275,024617	313,538686	0
15.01.2021	12:14:51	0	58,170531	4,773904	1,88175	9,378	0,726	88,019	0	1015,46	7,6	9,5	9,3	1	1	1	1	1	1	1	1	1	0	1	-8,386187	275,038711	316,071714	0
15.01.2021	12:14:52	0	58,639664	4,773875	1,88925	7,5204	0,72	88,012	0	1015,44	7,7	9,5	9,4	1	1	1	1	1	1	1	1	1	0	1	-11,557435	274,985519	312,649541	0
15.01.2021	12:14:53	0	58,40512	4,432884	2,00775	6,4332	0,715	88,02	0	1015,34	7,7	9,5	9,4	1	1	1	1	1	1	1	1	1	0	1	-10,147992	274,899781	313,654836	0
15.01.2021	12:14:54	0	58,405136	4,66021	2,09475	354,6972	0,713	88,021	0	1015,46	7,6	9,5	9,4	1	1	1	1	1	1	1	1	1	0	1	-7,540521	274,909116	316,306289	0
15.01.2021	12:14:55	0	57,936033	3,068919	2,229	4,8276	0,72	88,008	0	1015,44	7,6	9,5	9,4	1	1	1	1	1	1	1	1	1	0	1	-6,412967	274,9465	317,610036	0
15.01.2021	12:14:56	0	58,287886	3,864587	2,367	5,2272	0,723	88,035	0	1015,42	7,6	9,5	9,3	1	1	1	1	1	1	1	1	1	0	1	-5,778717	275,081056	318,879045	0
15.01.2021	12:14:57	0	58,52246	3,750945	2,48175	0,8604	0,714	88,016	0	1015,38	7,6	9,5	9,2	1	1	1	1	1	1	1	1	1	0	1	-4,651163	275,002712	319,636904	0
15.01.2021	12:14:58	0	58,405196	4,660236	2,39775	11,7036	0,719	88,031	0	1015,4	7,6	9,5	9,3	1	1	1	1	1	1	1	1	1	0	1	-6,131078	275,05752	318,415585	0
15.01.2021	12:14:59	0	58,63977	4,7739	2,2425	355,4352	0,724	88,029	0	1015,46	7,7	9,5	9,3	1	1	1	1	1	1	1	1	1	0	1	-11,205074	275,013661	313,134641	0
15.01.2021	12:15:00	0	58,522931	4,660206	2,4765	360	0,723	88,031	0	1015,46	7,6	9,4	9,4	1	1	1	1	1	1	1	1	1	0	1	-9,020437	275,062225	315,548433	0
15.01.2021	12:15:01	0	58,522931	4,660206	2,4765	360	0,723	88,031	0	1015,46	7,6	9,4	9,4	1	1	1	1	1	1	1	1	1	0	1	-10,923185	275,026182	313,4756	0
15.01.2021	12:15:02	0	58,170697	4,773898	2,562	8,5932	0,719	88,033	0	1015,34	7,7	9,5	9,3	1	1	1	1	1	1	1	1	1	0	1	-10,993658	275,065362	313,590021	0
15.01.2021	12:15:03	0	58,170712	3,637255	2,50275	8,9892	0,718	88,023	0	1015,34	7,7	9,5	9,3	1	1	1	1	1	1	1	1	1	0	1	-8,104299	274,898226	315,6912	0
15.01.2021	12:15:04	0	58,053448	3,86456	2,43975	4,8132	0,72	88,046	0	1015,22	7,7	9,5	9,4	1	1	1	1	1	1	1	1	1	0	1	-9,372798	274,920012	314,52536	0
15.01.2021	12:15:05	0	58,288022	2,841588	2,48475	352,4724	0,72	88,034	0	1015,36	7,7	9,5	9,4	1	1	1	1	1	1	1	1	1	0	1	-5,637773	275,063793	318,938501	0
15.01.2021	12:15:06	0	58,170757	4,205575	2,48025	348,0372	0,727	88,04	0	1015,4	7,7	9,5	9,3	1	1	1	1	1	1	1	1	1	0	1	-10,007047	274,904448	313,817769	0
15.01.2021	12:15:07	0	58,288052	4,660203	2,2995	344,6352	0,726	88,047	0	1015,32	7,6	9,5	9,4	1	1	1	1	1	1	1	1	1	0	1	-6,272023	275,027748	318,13415	0
15.01.2021	12:15:08	0	58,170787	4,660202	2,2845	345,024	0,725	88,038	0	1015,38	7,7	9,5	9,4	1	1	1	1	1	1	1	1	1	0	1	-6,483439	275,060656	318,078028	0
15.01.2021	12:15:09	0	58,405362	3,409904	2,397	353,97	0,724	88,016	0	1015,12	7,7	9,5	9,4	1	1	1	1	1	1	1	1	1	0	1	-5,496829	274,968341	318,629144	0
15.01.2021	12:15:10	0	57,818978	4,432874	2,4435	360	0,725	88,022	0	1015,42	7,7	9,5	9,4	1	1	1	1	1	1	1	1	1	0	1	-8,174771	275,081056	316,482992	0
15.01.2021	12:15:11	0	58,288112	2,841586	2,43	358,7472	0,724	88,018	0	1015,32	7,7	9,5	9,4	1	1	1	1	1	1	1	1	1	0	1	-6,553911	274,954298	317,505851	0
15.01.2021	12:15:12	0	58,288127	3,523566	2,3205	1,9188	0,723	88,008	0	1015,38	7,6	9,5	9,4	1	1	1	1	1	1	1	1	1	0	1	-7,470049	275,041845	317,002639	0
15.01.2021	12:15:13	0	58,522702	4,660199	2,2815	348,6348	0,727	88,022	0	1015,26	7,6	9,5	9,4	1	1	1	1	1	1	1	1	1	0	1	-10,42988	275,027748	313,976292	0
15.01.2021	12:15:14	0	58,053597	2,614258	2,217	344,2464	0,727	88,017	0	1015,28	7,7	9,5	9,4	1	1	1	1	1	1	1	1	1	0	1	-7,188161	274,885788	316,548739	0
15.01.2021	12:15:15	0	57,819052	4,432898	2,2335	8,2764	0,716	88,008	0	1015,38	7,6	9,5	9,3	1	1	1	1	1	1	1	1	1	0	1	-8,879493	274,952738	315,172916	0
15.01.2021	12:15:16	0	58,053627	3,750891	2,256	360	0,73	88,015	0	1015,42	7,7	9,5	9,4	1	1	1	1	1	1	1	1	1	0	1	-8,668076	275,071638	315,945227	0
15.01.2021	12:15:17	0	58,053642	3,182593	2,3805	6,4296	0,728	88,003	0	1015,38	7,7	9,5	9,3	1	1	1	1	1	1	1	1	1	0	1	-6,342495	274,9465	317,680509	0
15.01.2021	12:15:18	0	57,936376	2,72792	2,45175	0,8676	0,719	87,988	0	1015,34	7,6	9,5	9,4	1	1	1	1	1	1	1	1	1	0	1	-4,016913	275,085767	320,663089	0
15.01.2021	12:15:19	0	57,936391	3,296236	2,4825	360	0,724	87,982	0	1015,4	7,7	9,5	9,4	1	1	1	1	1	1	1	1	1	0	1	-6,060606	274,962098	318,035933	0
15.01.2021	12:15:20	0	57,819126	2,500593	2,502	1,9188	0,729	87,996	0	1015,44	7,6	9,5	9,4	1	1	1	1	1	1	1	1	1	0	1	-11,627907	275,05752	312,918757	0
15.01.2021	12:15:21	0	58,405542	4,205567	2,289	354,0276	0,731	88	0	1015,5	7,7	9,5	9,3	1	1	1	1	1	1	1	1	1	0	1	-10,218464	274,991769	314,01799	0
15.01.2021	12:15:22	0	58,053716	4,660222	2,11275	5,6844	0,722	87,994	0	1015,36	7,6	9,5	9,3	1	1	1	1	1	1	1	1	1	0	1	-9,584214	274,909116	314,262597	0
15.01.2021	12:15:23	0	58,288291	4,432867	1,95	25,7832	0,727	87,988	0	1015,44	7,7	9,5	9,4	1	1	1	1	1	1	1	1	1	0	1	-9,44327	274,96678	314,675343	0
15.01.2021	12:15:24	0	57,819185	4,091877	1,88925	19,512	0,719	87,978	0	1015,46	7,6	9,5	9,4	1	1	1	1	1	1	1	1	1	0	1	-8,738548	275,073207	315,882163	0
15.01.2021	12:15:25	0	57,93648	3,18257	1,86525	26,9028	0,721	87,986	0	1015,46	7,6	9,5	9,4	1	1	1	1	1	1	1	1	1	0	1	-7,258633	274,973025	316,889423	0
15.01.2021	12:15:26	0	58,053775	4,432892	1,98	32,8788	0,727	87,986	0	1015,46	7,7	9,5	9,3	1	1	1	1	1	1	1	1	1	0	1	-5,990134	274,909116	317,856677	0
15.01.2021	12:15:27	0	57,819229	3,409896	2,007	26,6508	0,726	87,966	0	1015,26	7,6	9,5	9,4	1	1	1	1	1	1	1	1	1	0	1	-3,59408	274,960538	320,495101	0
15.01.2021	12:15:28	0	58,053804	4,546527	2,0985	6,426	0,727	88	0	1015,4	7,6	9,5	9,4	1	1	1	1	1	1	1	1	1	0	1	-11,557435	275,077916	313,085505	0
15.01.2021	12:15:29	0	57,467417	3,182569	2,0895	16,4988	0,732	87,989	0	1015,26	7,6	9,5	9,4	1	1	1	1	1	1	1	1	1	0	1	-8,668076	274,955858	315,39904	0
15.01.2021	12:15:30	0	57,936553	3,068924	2,20275	5,2092	0,734	87,986	0	1015,44	7,7	9,5	9,3	1	1	1	1	1	1	1	1	1	0	1	-8,245243	275,076347	316,390287	0
15.01.2021	12:15:31	0	57,936568	2,841579	2,23125	3,7764	0,727	87,985	0	1015,46	7,6	9,5	9,4	1	1	1	1	1	1	1	1	1	0	1	-7,540521	274,969902	316,592812	0
15.01.2021	12:15:32	0	58,053863	3,63722	2,25675	7,4988	0,731	87,973	0	1015,42	7,6	9,5	9,4	1	1	1	1	1	1	1	1	1	0	1	-8,668076	275,060656	315,893391	0
15.01.2021	12:15:33	0	58,053878	3,29623	2,319	4,4604	0,729	87,996	0	1015,42	7,7	9,5	9,4	1	1	1	1	1	1	1	1	1	0	1	-5,144468	275,077916	319,498472	0
15.01.2021	12:15:34	0	58,171173	4,773908	2,4465	9,7416	0,731	87,983	0	1015,5	7,6	9,5	9,2	1	1	1	1	1	1	1	1	1	0	1	-6,412967	274,941823	317,58799	0
15.01.2021	12:15:35	0	58,053907	3,068903	2,61525	12,0924	0,73	87,988	0	1015,36	7,6	9,5	9,4	1	1	1	1	1	1	1	1	1	0	1	-6,553911	274,909116	317,2929	0
15.01.2021	12:15:36	0	58,053922	4,546523	2,799	8,6832	0,73	87,985	0	1015,4	7,6	9,5	9,4	1	1	1	1	1	1	1	1	1	0	1	-8,386187	274,999585	315,887129	0
15.01.2021	12:15:37	0	58,288498	4,205533	2,90775	11,7144	0,728	87,984	0	1015,38	7,7	9,5	9,4	1	1	1	1	1	1	1	1	1	0	1	-6,20155	275,040278	318,263744	0
15.01.2021	12:15:38	0	57,81939	2,955239	2,93625	9,3492	0,732	87,984	0	1015,4	7,6	9,5	9,4	1	1	1	1	1	1	1	1	1	0	1	-9,372798	274,941823	314,628159	0
15.01.2021	12:15:39	0	57,702124	2,841576	2,9505	3,3984	0,734	87,983	0	1015,5	7,6	9,5	9,4	1	1	1	1	1	1	1	1	1	0	1	-4,369274	275,074777	320,258846	0
15.01.2021	12:15:40	0	57,9367	3,182565	3,11775	11,196	0,726	87,995	0	1015,38	7,6	9,5	9,4	1	1	1	1	1	1	1	1	1	0	1	-6,906272	274,976147	317,25651	0
15.01.2021	12:15:41	0	57,702153	4,660211	3,1245	1,9152	0,731	87,987	0	1015,4	7,6	9,5	9,3	1	1	1	1	1	1	1	1	1	0	1	-5,84919	275,051248	318,667875	0
15.01.2021	12:15:42	0	58,05401	4,546547	3,0945	6,4332	0,73	87,984	0	1015,32	7,6	9,5	9,3	1	1	1	1	1	1	1	1	1	0	1	-8,104299	274,927799	315,830557	0
15.01.2021	12:15:43	0	57,819463	3,296226	3,14625	4,0788	0,725	87,977	0	1015,42	7,6	9,5	9,4	1	1	1	1	1	1	1	1	1	0	1	-14,376321	274,902892	309,441164	0
15.01.2021	12:15:44	0	58,054039	4,091867	3,15225	3,0312	0,73	87,986	0	1015,46	7,7	9,5	9,4	1	1	1	1	1	1	1	1	1	0	1	-9,795631	274,993332	314,448194	0
15.01.2021	12:15:45	0	57,819492	4,432855	3,28875	3,3948	0,732	87,962	0	1015,42	7,6	9,5	9,4	1	1	1	1	1	1	1	1	1	0	1	-8,879493	275,070069	315,726403	0
15.01.2021	12:15:46	0	57,70263	4,205529	3,26175	4,0824	0,727	87,97	0	1015,58	7,6	9,4	9,4	1	1	1	1	1	1	1	1	1	0	1	-11,980268	275,023051	312,403746	0
15.01.2021	12:15:47	0	57,819521	4,887506	3,03975	355,8276	0,726	87,956	0	1015,42	7,6	9,5	9,4	1	1	1	1	1	1	1	1	1	0	1	-10,147992	274,899781	313,654836	0
15.01.2021	12:15:48	0	57,819536	4,546516	3,054	0,1296	0,734	87,966	0	1015,32	7,6	9,5	9,4	1	1	1	1	1	1	1	1	1	0	1	-6,553911	275,074777	318,074209	0
15.01.2021	12:15:49	0	57,81955	3,182561	3,1065	16,0956	0,726	87,974	0	1015,44	7,7	9,5	9,4	1	1	1	1	1	1	1	1	1	0	1	-5,708245	275,048113	318,794024	0
15.01.2021	12:15:50	0	58,171408	4,773841	3,0555	13,5252	0,73	87,957	0	1015,3	7,6	9,5	9,4	1	1	1	1	1	1	1	1	1	0	1	-9,302326	275,007404	315,007872	0
15.01.2021	12:15:51	0	57,702298	5,001196	2,89275	9,0828	0,73	87,96	0	1015,5	7,6	9,5	9,3	1	1	1	1	1	1	1	1	1	0	1	-3,382664	274,896671	320,405508	0
15.01.2021	12:15:52	0	57,819593	2,727908	2,679	24,7248	0,729	87,968	0	1015,5	7,6	9,5	9,4	1	1	1	1	1	1	1	1	1	0	1	-7,681466	274,944941	316,334188	0
15.01.2021	12:15:53	0	57,467764	4,319188	2,5305	21,7728	0,728	87,969	0	1015,24	7,6	9,5	9,4	1	1	1	1	1	1	1	1	1	0	1	-3,59408	275,063793	320,982194	0
15.01.2021	12:15:54	0	57,702341	3,296222	2,46075	14,6484	0,726	87,965	0	1015,5	7,6	9,5	9,4	1	1	1	1	1	1	1	1	1	0	1	-7,329105	274,951178	316,715951	0
15.01.2021	12:15:55	0	57,585074	3,63721	2,4225	12,8376	0,728	87,958	0	1015,4	7,6	9,5	9,4	1	1	1	1	1	1	1	1	1	0	1	-6,483439	274,901337	317,326717	0
15.01.2021	12:15:56	0	57,819651	4,546512	2,5545	14,2812	0,729	87,956	0	1015,42	7,6	9,5	9,4	1	1	1	1	1	1	1	1	1	0	1	-5,426357	275,071638	319,186947	0
15.01.2021	12:15:57	0	57,467822	4,546539	2,577	4,8348	0,73	87,952	0	1015,48	7,6	9,5	9,3	1	1	1	1	1	1	1	1	1	0	1	-7,117689	274,912229	316,743789	0
15.01.2021	12:15:58	0	57,702399	4,205548	2,49525	0,1224	0,729	87,951	0	1015,42	7,6	9,5	9,3	1	1	1	1	1	1	1	1	1	0	1	-6,976744	274,958978	317,105082	0
15.01.2021	12:15:59	0	57,46785	2,727906	2,397	1,1736	0,73	87,932	0	1015,42	7,6	9,5	9,4	1	1	1	1	1	1	1	1	1	0	1	-2,114165	275,013661	322,22555	0
15.01.2021	12:16:00	0	57,702442	4,205546	2,50875	0	0,722	87,921	0	1015,5	7,6	9,5	9,3	1	1	1	1	1	1	1	1	1	0	1	-3,664553	274,885788	320,072347	0
15.01.2021	12:16:01	0	57,702442	4,205546	2,50875	0	0,722	87,921	0	1015,5	7,6	9,5	9,3	1	1	1	1	1	1	1	1	1	0	1	-7,258633	274,941823	316,742324	0
15.01.2021	12:16:02	0	57,467893	5,00116	2,5965	3,7692	0,728	87,9	0	1015,3	7,6	9,5	9,4	1	1	1	1	1	1	1	1	1	0	1	-7,117689	275,055952	317,421574	0
15.01.2021	12:16:03	0	57,350626	2,727921	2,649	13,9068	0,723	87,904	0	1015,4	7,6	9,5	9,3	1	1	1	1	1	1	1	1	1	0	1	-7,610994	275,05752	316,93567	0
15.01.2021	12:16:04	0	57,585203	3,978218	2,538	13,9032	0,727	87,902	0	1015,46	7,6	9,5	9,3	1	1	1	1	1	1	1	1	1	0	1	-5,567301	274,898226	318,228198	0
15.01.2021	12:16:05	0	57,820186	3,523564	2,325	13,9284	0,729	87,886	0	1015,34	7,6	9,4	9,3	1	1	1	1	1	1	1	1	1	0	1	-7,188161	275,048113	317,314109	0
15.01.2021	12:16:06	0	57,819795	4,432844	2,2005	8,982	0,729	87,89	0	1015,44	7,6	9,5	9,4	1	1	1	1	1	1	1	1	1	0	1	-4,510218	275,035578	319,9329	0
15.01.2021	12:16:07	0	57,585246	3,182573	2,18775	356,9256	0,728	87,878	0	1015,4	7,6	9,5	9,3	1	1	1	1	1	1	1	1	1	0	1	-8,174771	275,007404	316,135427	0
15.01.2021	12:16:08	0	57,116134	2,955246	2,28525	17,2368	0,726	87,874	0	1015,44	7,6	9,5	9,3	1	1	1	1	1	1	1	1	1	0	1	-9,302326	274,899781	314,500502	0
15.01.2021	12:16:09	0	57,350711	3,978192	2,325	16,0956	0,726	87,867	0	1015,34	7,6	9,5	9,4	1	1	1	1	1	1	1	1	1	0	1	-7,610994	275,019921	316,758251	0
15.01.2021	12:16:10	0	57,468007	2,727919	2,20725	357,6924	0,723	87,875	0	1015,32	7,6	9,5	9,3	1	1	1	1	1	1	1	1	1	0	1	-6,272023	274,892006	317,494171	0
15.01.2021	12:16:11	0	57,585303	4,432868	2,184	353,1924	0,728	87,867	0	1015,38	7,6	9,5	9,3	1	1	1	1	1	1	1	1	1	0	1	-3,523608	275,001149	320,757083	0
15.01.2021	12:16:12	0	57,585721	4,319178	2,32275	8,2584	0,724	87,867	0	1015,48	7,6	9,4	9,4	1	1	1	1	1	1	1	1	1	0	1	-4,087385	275,062225	320,481485	0
15.01.2021	12:16:13	0	57,233486	3,750887	2,3325	359,4132	0,725	87,866	0	1015,38	7,6	9,5	9,3	1	1	1	1	1	1	1	1	1	0	1	-5,567301	275,023051	318,816713	0
15.01.2021	12:16:14	0	57,585749	4,546502	2,27625	356,9616	0,726	87,866	0	1015,46	7,6	9,4	9,4	1	1	1	1	1	1	1	1	1	0	1	-4,298802	274,887342	319,44542	0
15.01.2021	12:16:15	0	57,351198	4,546502	2,15475	354,0672	0,722	87,867	0	1015,4	7,6	9,4	9,4	1	1	1	1	1	1	1	1	1	0	1	-7,963354	274,887342	315,780868	0
15.01.2021	12:16:16	0	57,585374	4,205513	2,016	345,7116	0,726	87,865	0	1015,38	7,6	9,5	9,4	1	1	1	1	1	1	1	1	1	0	1	-5,144468	274,874911	318,541195	0
15.01.2021	12:16:17	0	57,70267	4,773854	1,93725	350,2548	0,72	87,858	0	1015,34	7,6	9,5	9,3	1	1	1	1	1	1	1	1	1	0	1	-4,157858	275,015226	320,189239	0
15.01.2021	12:16:18	0	57,116275	2,727916	1,848	353,646	0,725	87,868	0	1015,4	7,6	9,5	9,3	1	1	1	1	1	1	1	1	1	0	1	-6,272023	275,062225	318,296848	0
15.01.2021	12:16:19	0	57,585417	3,750885	1,80075	1,9944	0,723	87,854	0	1015,24	7,6	9,5	9,3	1	1	1	1	1	1	1	1	1	0	1	-7,399577	274,985519	316,807399	0
15.01.2021	12:16:20	0	57,468149	4,432836	1,893	351,2448	0,72	87,844	0	1015,44	7,6	9,5	9,4	1	1	1	1	1	1	1	1	1	0	1	-9,725159	275,044979	314,762319	0
15.01.2021	12:16:21	0	57,468163	3,296231	2,05575	346,0608	0,721	87,845	0	1015,38	7,6	9,5	9,3	1	1	1	1	1	1	1	1	1	0	1	-5,355884	274,963659	318,748012	0
15.01.2021	12:16:22	0	57,116331	4,205536	2,24025	1,17	0,724	87,844	0	1015,44	7,6	9,5	9,3	1	1	1	1	1	1	1	1	1	0	1	-4,369274	275,062225	320,199596	0
15.01.2021	12:16:23	0	57,233627	3,978209	2,45175	4,0608	0,723	87,844	0	1015,34	7,6	9,5	9,3	1	1	1	1	1	1	1	1	1	0	1	-7,329105	274,990207	316,899978	0
15.01.2021	12:16:24	0	56,999077	2,500573	2,421	12,8376	0,726	87,852	0	1015,34	7,6	9,5	9,4	1	1	1	1	1	1	1	1	1	0	1	-4,298802	274,902892	319,518684	0
15.01.2021	12:16:25	0	57,233655	2,386925	2,22675	14,2956	0,727	87,852	0	1015,38	7,6	9,5	9,3	1	1	1	1	1	1	1	1	1	0	1	-5,84919	275,077916	318,79375	0
15.01.2021	12:16:26	0	57,468233	2,841577	2,0145	5,6736	0,723	87,849	0	1015,42	7,6	9,5	9,3	1	1	1	1	1	1	1	1	1	0	1	-11,41649	275,008968	312,901085	0
15.01.2021	12:16:27	0	57,350965	4,091846	1,9515	14,2956	0,724	87,859	0	1015,46	7,6	9,5	9,4	1	1	1	1	1	1	1	1	1	0	1	-6,8358	274,892006	316,930394	0
15.01.2021	12:16:28	0	57,468262	4,887482	1,9155	13,1652	0,72	87,851	0	1015,48	7,6	9,5	9,4	1	1	1	1	1	1	1	1	1	0	1	-8,315715	275,029314	316,097845	0
15.01.2021	12:16:29	0	57,351395	3,978206	1,809	12,4632	0,723	87,836	0	1015,56	7,6	9,4	9,3	1	1	1	1	1	1	1	1	1	0	1	-1,902748	275,004276	322,392695	0
15.01.2021	12:16:30	0	57,116443	5,001173	1,83825	2,3112	0,724	87,832	0	1015,38	7,6	9,5	9,3	1	1	1	1	1	1	1	1	1	0	1	-6,412967	274,888896	317,338578	0
15.01.2021	12:16:31	0	57,233338	3,40989	1,89075	6,4296	0,723	87,845	0	1015,48	7,6	9,6	9,3	1	1	1	1	1	1	1	1	1	0	1	-5,21494	274,968341	318,911033	0
15.01.2021	12:16:32	0	57,351035	2,841575	1,89525	11,7144	0,725	87,856	0	1015,44	7,6	9,5	9,3	1	1	1	1	1	1	1	1	1	0	1	-7,047216	274,90756	316,792262	0
15.01.2021	12:16:33	0	57,585614	4,660182	1,87125	16,1028	0,721	87,86	0	1015,38	7,6	9,5	9,3	1	1	1	1	1	1	1	1	1	0	1	-5,144468	274,96678	318,974145	0
15.01.2021	12:16:34	0	57,116499	2,500585	1,797	18,5724	0,722	87,862	0	1015,42	7,6	9,5	9,3	1	1	1	1	1	1	1	1	1	0	1	-5,285412	275,062225	319,283458	0
15.01.2021	12:16:35	0	57,702924	3,978179	1,716	11,2068	0,726	87,868	0	1015,42	7,6	9,5	9,4	1	1	1	1	1	1	1	1	1	0	1	-9,584214	275,03088	314,836734	0
15.01.2021	12:16:36	0	57,116126	3,068899	1,698	22,8276	0,724	87,842	0	1015,46	7,6	9,6	9,3	1	1	1	1	1	1	1	1	1	0	1	-6,553911	275,026182	317,844874	0
15.01.2021	12:16:37	0	57,233823	3,864516	1,512	15,7968	0,725	87,861	0	1015,38	7,6	9,5	9,4	1	1	1	1	1	1	1	1	1	0	1	-3,946441	274,890451	319,812428	0
15.01.2021	12:16:38	0	57,233837	2,72791	1,356	357,3396	0,719	87,863	0	1015,52	7,6	9,5	9,3	1	1	1	1	1	1	1	1	1	0	1	-7,047216	274,949619	316,990488	0
15.01.2021	12:16:39	0	57,468013	5,001168	1,33875	3,0204	0,721	87,842	0	1015,4	7,6	9,6	9,3	1	1	1	1	1	1	1	1	1	0	1	-6,765328	274,895116	317,015517	0
15.01.2021	12:16:40	0	57,350745	3,750853	1,4955	360	0,721	87,862	0	1015,4	7,6	9,6	9,4	1	1	1	1	1	1	1	1	1	0	1	-9,161381	274,994895	315,089815	0
15.01.2021	12:16:41	0	57,350759	2,955235	1,674	359,1324	0,728	87,851	0	1015,52	7,6	9,6	9,3	1	1	1	1	1	1	1	1	1	0	1	-3,946441	274,901337	319,863715	0
15.01.2021	12:16:42	0	57,233892	4,660177	1,76775	3,78	0,72	87,854	0	1015,52	7,6	9,5	9,3	1	1	1	1	1	1	1	1	1	0	1	-8,386187	274,929357	315,55601	0
15.01.2021	12:16:43	0	57,116623	4,432851	1,85925	7,1244	0,722	87,847	0	1015,44	7,6	9,5	9,3	1	1	1	1	1	1	1	1	1	0	1	-4,721635	274,884233	319,007943	0
15.01.2021	12:16:44	0	57,117037	4,205525	1,87275	13,9032	0,718	87,858	0	1015,44	7,6	9,4	9,3	1	1	1	1	1	1	1	1	1	0	1	-5,708245	275,055952	318,831018	0
15.01.2021	12:16:45	0	56,999368	2,727908	1,91925	8,622	0,724	87,868	0	1015,44	7,6	9,5	9,3	1	1	1	1	1	1	1	1	1	0	1	-2,466526	275,03088	321,954423	0
15.01.2021	12:16:46	0	57,116265	3,63721	2,169	5,238	0,73	87,875	0	1015,42	7,6	9,6	9,3	1	1	1	1	1	1	1	1	1	0	1	-7,329105	275,074777	317,299015	0
15.01.2021	12:16:47	0	57,703496	3,864535	2,44425	10,8036	0,728	87,87	0	1015,42	7,6	9,4	9,3	1	1	1	1	1	1	1	1	1	0	1	-5,84919	274,952738	318,203219	0
15.01.2021	12:16:48	0	57,351258	4,319186	2,62725	351,0576	0,725	87,872	0	1015,44	7,6	9,5	9,3	1	1	1	1	1	1	1	1	1	0	1	-9,302326	274,893561	314,471193	0
15.01.2021	12:16:49	0	56,881742	4,205522	2,643	359,2188	0,722	87,889	0	1015,44	7,6	9,6	9,3	1	1	1	1	1	1	1	1	1	0	1	-11,557435	274,941823	312,443522	0
15.01.2021	12:16:50	0	56,764871	3,182557	2,61825	357,2964	0,718	87,865	0	1015,48	7,6	9,5	9,3	1	1	1	1	1	1	1	1	1	0	1	-9,372798	275,054384	315,159065	0
15.01.2021	12:16:51	0	57,468179	3,523524	2,5365	0	0,719	87,873	0	1015,1	7,6	9,6	9,4	1	1	1	1	1	1	1	1	1	0	1	-4,22833	274,962098	319,868209	0
15.01.2021	12:16:52	0	56,88258	2,50058	2,397	32,1408	0,725	87,88	0	1015,42	7,6	9,4	9,3	1	1	1	1	1	1	1	1	1	0	1	-9,654686	274,887342	314,089536	0
15.01.2021	12:16:53	0	57,46861	4,546509	2,26275	30,69	0,727	87,884	0	1015,32	7,6	9,5	9,3	1	1	1	1	1	1	1	1	1	0	1	-3,664553	274,94806	320,365801	0
15.01.2021	12:16:54	0	57,116775	3,182556	2,2605	40,6044	0,723	87,89	0	1015,36	7,6	9,5	9,3	1	1	1	1	1	1	1	1	1	0	1	-7,329105	275,049681	317,180562	0
15.01.2021	12:16:55	0	57,23367	2,614242	2,199	30,996	0,725	87,892	0	1015,46	7,6	9,6	9,3	1	1	1	1	1	1	1	1	1	0	1	-4,157858	274,996458	320,100712	0
15.01.2021	12:16:56	0	57,233684	4,660114	2,30475	45,9432	0,718	87,879	0	1015,48	7,6	9,6	9,5	1	1	1	1	1	1	1	1	1	0	1	-5,778717	275,035578	318,664401	0
15.01.2021	12:16:57	0	57,117216	3,637205	2,427	33,9336	0,721	87,903	0	1015,44	7,6	9,4	9,3	1	1	1	1	1	1	1	1	1	0	1	-10,359408	275,071638	314,253895	0
15.01.2021	12:16:58	0	56,999147	4,660169	2,45325	46,9764	0,723	87,908	0	1015,58	7,6	9,6	9,3	1	1	1	1	1	1	1	1	1	0	1	-2,396054	275,010532	321,928901	0
15.01.2021	12:16:59	0	57,116443	4,887493	2,34675	35,0784	0,72	87,899	0	1015,58	7,6	9,6	9,3	1	1	1	1	1	1	1	1	1	0	1	-4,933051	274,879571	318,774566	0
15.01.2021	12:17:00	0	56,647341	2,61424	2,02125	41,4504	0,723	87,918	0	1015,4	7,6	9,6	9,3	1	1	1	1	1	1	1	1	1	0	1	-7,82241	274,944941	316,193244	0
15.01.2021	12:17:01	0	56,647341	2,61424	2,02125	41,4504	0,723	87,918	0	1015,4	7,6	9,6	9,3	1	1	1	1	1	1	1	1	1	0	1	-6,765328	274,901337	317,044828	0
15.01.2021	12:17:02	0	56,764637	2,61424	1,7985	48,9168	0,721	87,922	0	1015,4	7,6	9,6	9,3	1	1	1	1	1	1	1	1	1	0	1	-4,862579	275,051248	319,654485	0
15.01.2021	12:17:03	0	57,234181	3,97819	1,5645	7,1172	0,721	87,925	0	1015,38	7,6	9,5	9,3	1	1	1	1	1	1	1	1	1	0	1	-7,892882	274,924684	316,027292	0
15.01.2021	12:17:04	0	56,647778	3,52354	1,413	336,888	0,726	87,939	0	1015,36	7,6	9,5	9,3	1	1	1	1	1	1	1	1	1	0	1	-5,778717	274,901337	318,031439	0
15.01.2021	12:17:05	0	56,999242	3,978189	1,3065	342,0612	0,723	87,934	0	1015,38	7,6	9,6	9,3	1	1	1	1	1	1	1	1	1	0	1	-3,312192	274,940265	320,681418	0
15.01.2021	12:17:06	0	56,882372	3,523539	1,21875	348,6888	0,727	87,945	0	1015,54	7,6	9,5	9,3	1	1	1	1	1	1	1	1	1	0	1	-6,624383	274,895116	317,156461	0
15.01.2021	12:17:07	0	57,116952	3,637201	1,26825	4,0572	0,721	87,953	0	1015,36	7,6	9,5	9,3	1	1	1	1	1	1	1	1	1	0	1	-3,735025	274,998022	320,530918	0
15.01.2021	12:17:08	0	56,648229	3,068888	1,2555	358,2936	0,723	87,954	0	1015,42	7,6	9,4	9,3	1	1	1	1	1	1	1	1	1	0	1	-6,060606	274,90756	317,778872	0
15.01.2021	12:17:09	0	56,999696	3,409875	1,25925	350,3124	0,723	87,968	0	1015,34	7,6	9,5	9,3	1	1	1	1	1	1	1	1	1	0	1	-4,862579	274,90756	318,976899	0
15.01.2021	12:17:10	0	56,765143	3,523537	1,338	346,5252	0,727	87,961	0	1015,4	7,6	9,5	9,3	1	1	1	1	1	1	1	1	1	0	1	-6,272023	275,063793	318,304251	0
15.01.2021	12:17:11	0	56,88244	3,864524	1,34925	349,0776	0,718	87,964	0	1015,32	7,6	9,5	9,3	1	1	1	1	1	1	1	1	1	0	1	-9,513742	275,018356	314,848119	0
15.01.2021	12:17:12	0	56,999736	4,887486	1,32225	356,5872	0,716	87,968	0	1015,3	7,6	9,5	9,3	1	1	1	1	1	1	1	1	1	0	1	-6,060606	274,909116	317,786205	0
15.01.2021	12:17:13	0	56,999351	2,500574	1,27725	351,7416	0,727	87,971	0	1015,32	7,6	9,6	9,3	1	1	1	1	1	1	1	1	1	0	1	-3,382664	274,921569	320,522832	0
15.01.2021	12:17:14	0	57,116647	4,66016	1,326	343,1916	0,723	87,983	0	1015,34	7,6	9,6	9,3	1	1	1	1	1	1	1	1	1	0	1	-8,104299	274,918455	315,786522	0
15.01.2021	12:17:15	0	57,234344	3,978185	1,43025	351,3204	0,724	87,978	0	1015,4	7,6	9,5	9,3	1	1	1	1	1	1	1	1	1	0	1	-6,976744	275,034012	317,458984	0
15.01.2021	12:17:16	0	56,64794	3,29621	1,5105	349,5384	0,725	87,982	0	1015,4	7,6	9,5	9,3	1	1	1	1	1	1	1	1	1	0	1	-3,735025	275,05752	320,811639	0
15.01.2021	12:17:17	0	56,999804	3,29621	1,503	335,0412	0,725	87,981	0	1015,22	7,6	9,5	9,3	1	1	1	1	1	1	1	1	1	0	1	-5,073996	274,94806	318,956358	0
15.01.2021	12:17:18	0	56,64757	2,84156	1,48575	348,7464	0,727	87,986	0	1015,38	7,6	9,6	9,3	1	1	1	1	1	1	1	1	1	0	1	-8,80902	274,898226	314,986479	0
15.01.2021	12:17:19	0	56,882149	4,205483	1,47	341,3124	0,719	87,978	0	1015,4	7,6	9,6	9,4	1	1	1	1	1	1	1	1	1	0	1	-3,523608	275,029314	320,889952	0
15.01.2021	12:17:20	0	57,234411	4,773819	1,44	347,6736	0,724	88,003	0	1015,44	7,6	9,5	9,3	1	1	1	1	1	1	1	1	1	0	1	-6,624383	274,918455	317,266437	0
15.01.2021	12:17:21	0	56,999858	4,432831	1,503	349,4628	0,722	88,005	0	1015,48	7,6	9,5	9,3	1	1	1	1	1	1	1	1	1	0	1	-3,735025	274,926242	320,19249	0
15.01.2021	12:17:22	0	56,64802	3,637195	1,4145	347,5584	0,721	88,009	0	1015,26	7,6	9,5	9,3	1	1	1	1	1	1	1	1	1	0	1	-5,919662	275,074777	318,708458	0
15.01.2021	12:17:23	0	57,117168	4,43283	1,41525	355,032	0,722	88,007	0	1015,4	7,6	9,5	9,3	1	1	1	1	1	1	1	1	1	0	1	-0,775194	274,954298	323,284568	0
15.01.2021	12:17:24	0	56,882216	4,546492	1,46925	359,514	0,73	88,015	0	1015,4	7,6	9,6	9,3	1	1	1	1	1	1	1	1	1	0	1	-0,634249	274,906004	323,197897	0
15.01.2021	12:17:25	0	56,765344	3,637193	1,5045	0,8532	0,726	88,022	0	1015,56	7,6	9,5	9,3	1	1	1	1	1	1	1	1	1	0	1	-8,386187	274,893561	315,387331	0
15.01.2021	12:17:26	0	56,648073	4,205504	1,5195	1,5588	0,727	88,019	0	1015,36	7,6	9,5	9,3	1	1	1	1	1	1	1	1	1	0	1	-3,030303	275,059088	321,523762	0
15.01.2021	12:17:27	0	56,76537	2,614232	1,599	5,2092	0,723	88,018	0	1015,28	7,6	9,5	9,3	1	1	1	1	1	1	1	1	1	0	1	-8,315715	275,076347	316,319814	0
15.01.2021	12:17:28	0	56,765384	3,409868	1,6395	4,0788	0,728	88,017	0	1015,48	7,6	9,5	9,3	1	1	1	1	1	1	1	1	1	0	1	-10,923185	274,969902	313,210148	0
15.01.2021	12:17:29	0	56,648113	4,660152	1,7025	3,7692	0,731	88,036	0	1015,32	7,6	9,5	9,3	1	1	1	1	1	1	1	1	1	0	1	-8,879493	275,071638	315,733811	0
15.01.2021	12:17:30	0	56,882694	4,660151	1,78125	359,1684	0,729	88,036	0	1015,48	7,6	9,5	9,3	1	1	1	1	1	1	1	1	1	0	1	-10,42988	275,074777	314,19824	0
15.01.2021	12:17:31	0	56,765424	3,409867	1,83075	5,67	0,73	88,035	0	1015,54	7,6	9,5	9,3	1	1	1	1	1	1	1	1	1	0	1	-6,342495	274,977709	317,827651	0
15.01.2021	12:17:32	0	57,000005	4,319164	1,95975	356,9148	0,73	88,032	0	1015,46	7,6	9,5	9,3	1	1	1	1	1	1	1	1	1	0	1	-5,003524	275,096763	319,728396	0
15.01.2021	12:17:33	0	57,234586	4,319163	2,0325	4,0932	0,725	88,035	0	1015,5	7,6	9,5	9,3	1	1	1	1	1	1	1	1	1	0	1	-8,45666	274,962098	315,639879	0
15.01.2021	12:17:34	0	56,765066	3,63719	2,2035	3,3984	0,731	88,051	0	1015,48	7,6	9,6	9,3	1	1	1	1	1	1	1	1	1	0	1	-5,285412	275,082626	319,379763	0
15.01.2021	12:17:35	0	56,765477	3,750851	2,397	7,1172	0,727	88,055	0	1015,5	7,6	9,5	9,3	1	1	1	1	1	1	1	1	1	0	1	-9,44327	275,073207	315,177442	0
15.01.2021	12:17:36	0	56,647809	3,978175	2,46825	6,4296	0,733	88,065	0	1015,36	7,6	9,6	9,3	1	1	1	1	1	1	1	1	1	0	1	-6,412967	275,001149	317,867724	0
15.01.2021	12:17:37	0	56,648219	2,386905	2,31525	15,7716	0,728	88,04	0	1015,4	7,6	9,5	9,3	1	1	1	1	1	1	1	1	1	0	1	-8,738548	275,095192	315,985952	0
15.01.2021	12:17:38	0	56,765516	2,841553	2,2155	15,048	0,732	88,054	0	1015,48	7,6	9,5	9,3	1	1	1	1	1	1	1	1	1	0	1	-8,597604	274,991769	315,63885	0
15.01.2021	12:17:39	0	56,530565	4,31916	2,2125	12,096	0,735	88,075	0	1015,58	7,6	9,6	9,3	1	1	1	1	1	1	1	1	1	0	1	-6,8358	275,066931	317,755284	0
15.01.2021	12:17:40	0	56,647862	2,386904	2,22975	14,634	0,732	88,075	0	1015,56	7,6	9,6	9,3	1	1	1	1	1	1	1	1	1	0	1	-6,765328	274,979271	317,412183	0
15.01.2021	12:17:41	0	56,530592	2,500566	2,214	19,1376	0,734	88,066	0	1015,44	7,6	9,6	9,3	1	1	1	1	1	1	1	1	1	0	1	-3,24172	275,082626	321,423456	0
15.01.2021	12:17:42	0	56,765569	4,660145	2,11875	15,4152	0,731	88,074	0	1015,48	7,6	9,5	9,3	1	1	1	1	1	1	1	1	1	0	1	-9,725159	275,012097	314,607176	0
15.01.2021	12:17:43	0	56,882867	4,546483	2,1615	14,6484	0,732	88,066	0	1015,44	7,6	9,5	9,3	1	1	1	1	1	1	1	1	1	0	1	-6,624383	275,077916	318,018557	0
15.01.2021	12:17:44	0	56,647914	2,727889	2,247	13,158	0,731	88,082	0	1015,56	7,6	9,6	9,3	1	1	1	1	1	1	1	1	1	0	1	-5,355884	274,969902	318,777449	0
15.01.2021	12:17:45	0	56,647927	4,660144	2,36775	16,8444	0,734	88,077	0	1015,5	7,6	9,6	9,3	1	1	1	1	1	1	1	1	1	0	1	-8,174771	275,088908	316,520061	0
15.01.2021	12:17:46	0	56,648337	3,750847	2,35425	22,8492	0,734	88,092	0	1015,48	7,6	9,5	9,3	1	1	1	1	1	1	1	1	1	0	1	-8,668076	274,912229	315,193402	0
15.01.2021	12:17:47	0	56,647954	4,773805	2,28675	13,5324	0,736	88,09	0	1015,52	7,6	9,6	9,3	1	1	1	1	1	1	1	1	1	0	1	-12,684989	274,980833	311,499886	0
15.01.2021	12:17:48	0	56,648364	2,84155	2,23725	12,4776	0,735	88,106	0	1015,54	7,6	9,5	9,3	1	1	1	1	1	1	1	1	1	0	1	-4,087385	275,095192	320,637115	0
15.01.2021	12:17:49	0	56,296523	2,614226	2,1555	13,9212	0,73	88,1	0	1015,38	7,6	9,5	9,3	1	1	1	1	1	1	1	1	1	0	1	-5,919662	274,899781	317,883165	0
15.01.2021	12:17:50	0	56,765674	2,841549	2,01825	11,7288	0,734	88,082	0	1015,46	7,6	9,5	9,3	1	1	1	1	1	1	1	1	1	0	1	-6,765328	275,03088	317,655621	0
15.01.2021	12:17:51	0	56,765687	4,205493	1,85175	0,8712	0,732	88,082	0	1015,44	7,6	9,5	9,3	1	1	1	1	1	1	1	1	1	0	1	-10,218464	275,073207	314,402248	0
15.01.2021	12:17:52	0	56,648416	2,386901	1,7595	360	0,733	88,077	0	1015,42	7,6	9,5	9,3	1	1	1	1	1	1	1	1	1	0	1	-3,875969	274,979271	320,301541	0
15.01.2021	12:17:53	0	56,41386	4,773801	1,76775	357,2532	0,738	88,066	0	1015,34	7,6	9,5	9,3	1	1	1	1	1	1	1	1	1	0	1	-8,386187	274,910672	315,467957	0
15.01.2021	12:17:54	0	56,882613	4,432815	1,97475	1,1736	0,736	88,05	0	1015,44	7,6	9,6	9,3	1	1	1	1	1	1	1	1	1	0	1	-3,523608	275,024617	320,867791	0
15.01.2021	12:17:55	0	56,296601	2,500562	2,26575	357,66	0,736	88,05	0	1015,44	7,6	9,5	9,3	1	1	1	1	1	1	1	1	1	0	1	-6,412967	274,923127	317,499868	0
15.01.2021	12:17:56	0	56,882639	4,660138	2,5425	355,4028	0,74	88,038	0	1015,56	7,6	9,6	9,3	1	1	1	1	1	1	1	1	1	0	1	-6,624383	275,059088	317,929682	0
15.01.2021	12:17:57	0	56,648481	3,864504	2,649	355,7664	0,73	88,019	0	1015,38	7,6	9,5	9,3	1	1	1	1	1	1	1	1	1	0	1	-7,117689	274,920012	316,780469	0
15.01.2021	12:17:58	0	56,765779	4,432813	2,688	355,0752	0,736	88,013	0	1015,4	7,6	9,5	9,3	1	1	1	1	1	1	1	1	1	0	1	-6,976744	275,026182	317,422041	0
15.01.2021	12:17:59	0	56,296259	2,955208	2,5335	345,1392	0,737	88,015	0	1015,44	7,6	9,6	9,3	1	1	1	1	1	1	1	1	1	0	1	-8,386187	274,915342	315,48996	0
15.01.2021	12:18:00	0	56,883103	4,660135	2,214	354,9708	0,736	88,004	0	1015,42	7,6	9,5	9,3	1	1	1	1	1	1	1	1	1	0	1	-7,188161	275,098334	317,551179	0
15.01.2021	12:18:01	0	56,883103	4,660135	2,214	354,9708	0,736	88,004	0	1015,42	7,6	9,5	9,3	1	1	1	1	1	1	1	1	1	0	1	-7,188161	275,098334	317,551179	0
15.01.2021	12:18:02	0	56,765831	3,523516	2,2215	354,2436	0,733	87,982	0	1015,4	7,6	9,5	9,3	1	1	1	1	1	1	1	1	1	0	1	-6,412967	274,982395	317,779275	0
15.01.2021	12:18:03	0	56,765844	3,068869	2,292	357,6492	0,73	87,996	0	1015,34	7,6	9,5	9,3	1	1	1	1	1	1	1	1	1	0	1	-5,355884	274,949619	318,68182	0
15.01.2021	12:18:04	0	56,414002	4,43281	2,41875	355,3596	0,733	87,979	0	1015,42	7,6	9,5	9,3	1	1	1	1	1	1	1	1	1	0	1	-5,003524	275,101478	319,750657	0
15.01.2021	12:18:05	0	56,648585	2,614221	2,448	349,4124	0,738	87,979	0	1015,42	7,6	9,5	9,3	1	1	1	1	1	1	1	1	1	0	1	-0,352361	275,029314	324,061199	0
15.01.2021	12:18:06	0	56,883168	4,546471	2,38575	350,9568	0,737	87,98	0	1015,36	7,6	9,5	9,3	1	1	1	1	1	1	1	1	1	0	1	-4,510218	275,093621	320,206864	0
15.01.2021	12:18:07	0	56,531326	2,61422	2,4225	344,9196	0,736	87,972	0	1015,5	7,6	9,5	9,3	1	1	1	1	1	1	1	1	1	0	1	-8,80902	274,988644	315,412693	0
15.01.2021	12:18:08	0	56,414054	3,523514	2,43525	15,3936	0,732	87,952	0	1015,34	7,6	9,5	9,3	1	1	1	1	1	1	1	1	1	0	1	-9,584214	275,081056	315,073548	0
15.01.2021	12:18:09	0	56,413671	2,727882	2,34225	10,782	0,734	87,98	0	1015,46	7,6	9,6	9,3	1	1	1	1	1	1	1	1	1	0	1	-6,483439	274,976147	317,679343	0
15.01.2021	12:18:10	0	56,530968	5,001116	2,334	5,7456	0,737	87,96	0	1015,42	7,6	9,6	9,3	1	1	1	1	1	1	1	1	1	0	1	-7,681466	274,915342	316,194682	0
15.01.2021	12:18:11	0	56,296807	2,955204	2,49225	2,2968	0,739	87,976	0	1015,44	7,6	9,5	9,3	1	1	1	1	1	1	1	1	1	0	1	-5,990134	274,973025	318,157922	0
15.01.2021	12:18:12	0	56,53139	2,727881	2,63625	22,0824	0,732	87,966	0	1015,44	7,7	9,5	9,3	1	1	1	1	1	1	1	1	1	0	1	-4,369274	275,081056	320,288488	0
15.01.2021	12:18:13	0	56,531403	4,319144	2,73825	5,2164	0,736	87,961	0	1015,4	7,7	9,5	9,3	1	1	1	1	1	1	1	1	1	0	1	-5,637773	275,104621	319,131252	0
15.01.2021	12:18:14	0	56,413736	3,40985	2,856	7,1136	0,739	87,959	0	1015,48	7,6	9,6	9,3	1	1	1	1	1	1	1	1	1	0	1	-4,016913	275,040278	320,448381	0
15.01.2021	12:18:15	0	56,531429	4,660128	2,7135	1,548	0,734	87,962	0	1015,38	7,6	9,5	9,3	1	1	1	1	1	1	1	1	1	0	1	-3,59408	274,920012	320,304077	0
15.01.2021	12:18:16	0	56,296871	2,386895	2,58825	2,2968	0,73	87,963	0	1015,42	7,6	9,5	9,3	1	1	1	1	1	1	1	1	1	0	1	-6,624383	274,932473	317,332499	0
15.01.2021	12:18:17	0	56,413774	3,523511	2,5095	20,2968	0,739	87,956	0	1015,48	7,6	9,6	9,3	1	1	1	1	1	1	1	1	1	0	1	-4,087385	275,059088	320,46668	0
15.01.2021	12:18:18	0	56,766037	3,52351	2,418	23,2092	0,736	87,964	0	1015,48	7,6	9,5	9,3	1	1	1	1	1	1	1	1	1	0	1	-5,144468	274,971463	318,996226	0
15.01.2021	12:18:19	0	56,648368	3,182525	2,44275	38,4192	0,739	87,967	0	1015,38	7,6	9,6	9,3	1	1	1	1	1	1	1	1	1	0	1	-11,346018	275,084197	313,32657	0
15.01.2021	12:18:20	0	56,766063	3,182525	2,37	28,71	0,733	87,95	0	1015,4	7,6	9,5	9,3	1	1	1	1	1	1	1	1	1	0	1	-8,033827	275,043412	316,446256	0
15.01.2021	12:18:21	0	56,766076	4,091817	2,30325	29,0988	0,736	87,953	0	1015,38	7,7	9,5	9,3	1	1	1	1	1	1	1	1	1	0	1	-7,892882	275,040278	316,572412	0
15.01.2021	12:18:22	0	56,531518	4,546463	2,3115	32,2668	0,739	87,93	0	1015,46	7,6	9,5	9,3	1	1	1	1	1	1	1	1	1	0	1	-3,382664	274,912229	320,478814	0
15.01.2021	12:18:23	0	56,883387	4,773785	2,33025	23,5908	0,739	87,959	0	1015,32	7,6	9,5	9,3	1	1	1	1	1	1	1	1	1	0	1	-2,255109	274,994895	321,996087	0
15.01.2021	12:18:24	0	56,531544	3,068862	2,3325	22,0896	0,738	87,948	0	1015,48	7,6	9,5	9,3	1	1	1	1	1	1	1	1	1	0	1	-6,976744	275,096763	317,755175	0
15.01.2021	12:18:25	0	56,648842	4,319138	2,2185	18,828	0,736	87,953	0	1015,48	7,6	9,5	9,3	1	1	1	1	1	1	1	1	1	0	1	-5,144468	274,982395	319,047774	0
15.01.2021	12:18:26	0	56,648855	4,773784	2,115	21,7656	0,739	87,941	0	1015,4	7,7	9,5	9,3	1	1	1	1	1	1	1	1	1	0	1	-4,22833	275,090479	320,473918	0
15.01.2021	12:18:27	0	56,648867	2,727876	1,968	16,092	0,737	87,966	0	1015,46	7,6	9,5	9,3	1	1	1	1	1	1	1	1	1	0	1	-5,21494	274,906004	318,617207	0
15.01.2021	12:18:28	0	56,414309	2,386891	1,92375	16,4844	0,735	87,942	0	1015,4	7,6	9,5	9,3	1	1	1	1	1	1	1	1	1	0	1	-5,496829	275,021486	318,8798	0
15.01.2021	12:18:29	0	56,531607	3,06886	1,836	20,2824	0,736	87,952	0	1015,44	7,7	9,5	9,3	1	1	1	1	1	1	1	1	1	0	1	-6,20155	275,088908	318,493282	0
15.01.2021	12:18:30	0	56,883476	3,637167	1,7475	13,932	0,73	87,932	0	1015,36	7,6	9,5	9,3	1	1	1	1	1	1	1	1	1	0	1	-4,298802	275,008968	320,018774	0
15.01.2021	12:18:31	0	56,648521	4,66012	1,70025	21,78	0,739	87,957	0	1015,44	7,6	9,6	9,3	1	1	1	1	1	1	1	1	1	0	1	-7,470049	275,065362	317,113629	0
15.01.2021	12:18:32	0	57,000788	4,546458	1,74	36,9216	0,737	87,935	0	1015,38	7,6	9,5	9,3	1	1	1	1	1	1	1	1	1	0	1	-5,073996	275,054384	319,457867	0
15.01.2021	12:18:33	0	56,766229	4,432796	1,78875	25,866	0,736	87,94	0	1015,42	7,6	9,5	9,3	1	1	1	1	1	1	1	1	1	0	1	-9,654686	275,041845	314,818002	0
15.01.2021	12:18:34	0	56,883527	4,660118	1,845	20,6136	0,739	87,942	0	1015,48	7,6	9,5	9,3	1	1	1	1	1	1	1	1	1	0	1	-9,654686	275,107765	315,129186	0
15.01.2021	12:18:35	0	56,88354	2,955197	1,971	28,7208	0,733	87,933	0	1015,48	7,7	9,5	9,3	1	1	1	1	1	1	1	1	1	0	1	-4,721635	274,987081	319,49271	0
15.01.2021	12:18:36	0	56,531696	3,068858	2,0115	22,0788	0,734	87,958	0	1015,42	7,6	9,5	9,3	1	1	1	1	1	1	1	1	1	0	1	-5,144468	274,926242	318,783047	0
15.01.2021	12:18:37	0	56,76628	3,523503	1,98675	29,5704	0,738	87,943	0	1015,38	7,6	9,5	9,3	1	1	1	1	1	1	1	1	1	0	1	-3,523608	274,977709	320,646538	0
15.01.2021	12:18:38	0	57,000864	4,432794	1,914	18,5436	0,738	87,942	0	1015,4	7,6	9,5	9,3	1	1	1	1	1	1	1	1	1	0	1	-7,258633	275,09205	317,451032	0
15.01.2021	12:18:39	0	57,000877	3,296179	2,0145	19,9116	0,731	87,936	0	1015,58	7,7	9,5	9,3	1	1	1	1	1	1	1	1	1	0	1	-4,298802	274,968341	319,827171	0
15.01.2021	12:18:40	0	56,76592	4,887438	2,25525	33,2568	0,735	87,925	0	1015,48	7,7	9,6	9,3	1	1	1	1	1	1	1	1	1	0	1	-5,496829	275,085767	319,183173	0
15.01.2021	12:18:41	0	57,235073	3,978147	2,4405	27,2844	0,74	87,939	0	1015,44	7,6	9,6	9,3	1	1	1	1	1	1	1	1	1	0	1	-3,523608	274,96678	320,595005	0
15.01.2021	12:18:42	0	56,649057	2,841533	2,39475	12,4884	0,737	87,935	0	1015,54	7,6	9,5	9,3	1	1	1	1	1	1	1	1	1	0	1	-6,20155	275,081056	318,456212	0
15.01.2021	12:18:43	0	57,118213	4,887436	2,31075	29,5812	0,736	87,946	0	1015,38	7,7	9,5	9,3	1	1	1	1	1	1	1	1	1	0	1	-7,117689	274,935589	316,853883	0
15.01.2021	12:18:44	0	56,649082	3,182516	2,181	26,5104	0,735	87,935	0	1015,32	7,7	9,5	9,3	1	1	1	1	1	1	1	1	1	0	1	-4,580691	274,923127	319,332144	0
15.01.2021	12:18:45	0	57,235524	3,296177	2,14575	26,5212	0,733	87,925	0	1015,3	7,6	9,5	9,3	1	1	1	1	1	1	1	1	1	0	1	-7,681466	275,076347	316,954064	0
15.01.2021	12:18:46	0	56,883679	2,727871	2,0745	30,7044	0,738	87,953	0	1015,4	7,7	9,5	9,3	1	1	1	1	1	1	1	1	1	0	1	-11,346018	274,990207	312,883065	0
15.01.2021	12:18:47	0	57,118264	3,864483	1,99425	23,9616	0,741	87,94	0	1015,34	7,6	9,5	9,3	1	1	1	1	1	1	1	1	1	0	1	-5,144468	274,912229	318,71701	0
15.01.2021	12:18:48	0	57,352849	4,319128	1,97475	38,79	0,751	87,935	0	1015,52	7,7	9,5	9,3	1	1	1	1	1	1	1	1	1	0	1	-10,288936	274,996458	313,969633	0
15.01.2021	12:18:49	0	56,883717	2,955192	1,96725	28,728	0,734	87,963	0	1015,48	7,6	9,5	9,3	1	1	1	1	1	1	1	1	1	0	1	-7,470049	275,096763	317,26187	0
15.01.2021	12:18:50	0	57,235588	4,319127	1,965	21,4812	0,736	87,955	0	1015,48	7,6	9,5	9,3	1	1	1	1	1	1	1	1	1	0	1	-6,412967	274,927799	317,521889	0
15.01.2021	12:18:51	0	56,883742	2,386886	1,94925	21,3804	0,738	87,964	0	1015,42	7,6	9,5	9,3	1	1	1	1	1	1	1	1	1	0	1	-9,936575	274,912229	313,924903	0
15.01.2021	12:18:52	0	57,235613	4,205465	1,9125	15,7896	0,738	87,931	0	1015,4	7,7	9,5	9,3	1	1	1	1	1	1	1	1	1	0	1	-6,765328	275,001149	317,515364	0
15.01.2021	12:18:53	0	57,587484	2,727869	1,88475	21,384	0,739	87,943	0	1015,46	7,6	9,5	9,3	1	1	1	1	1	1	1	1	1	0	1	-7,117689	275,087337	317,569728	0
15.01.2021	12:18:54	0	57,470211	4,432786	1,81275	19,908	0,739	87,949	0	1015,56	7,7	9,5	9,3	1	1	1	1	1	1	1	1	1	0	1	-10,218464	275,035578	314,224655	0
15.01.2021	12:18:55	0	57,235651	4,432786	1,896	20,2896	0,733	87,949	0	1015,5	7,6	9,5	9,3	1	1	1	1	1	1	1	1	1	0	1	-9,936575	275,049681	314,573092	0
15.01.2021	12:18:56	0	57,470236	3,523496	1,866	15,4116	0,743	87,937	0	1015,38	7,7	9,5	9,3	1	1	1	1	1	1	1	1	1	0	1	-10,007047	274,916899	313,876436	0
15.01.2021	12:18:57	0	57,352962	4,546446	1,8405	21,3912	0,735	87,955	0	1015,42	7,6	9,5	9,3	1	1	1	1	1	1	1	1	1	0	1	-8,033827	275,05752	316,512837	0
15.01.2021	12:18:58	0	57,587547	3,523495	1,83375	20,2716	0,74	87,936	0	1015,46	7,7	9,5	9,3	1	1	1	1	1	1	1	1	1	0	1	-1,62086	274,921569	322,284636	0
15.01.2021	12:18:59	0	57,58756	4,432784	1,93125	15,0408	0,74	87,945	0	1015,4	7,7	9,5	9,3	1	1	1	1	1	1	1	1	1	0	1	-9,44327	274,962098	314,653269	0
15.01.2021	12:19:00	0	57,470299	2,614205	2,0415	22,4676	0,744	87,949	0	1015,5	7,6	9,5	9,3	1	1	1	1	1	1	1	1	1	0	1	-9,584214	275,093621	315,132868	0
15.01.2021	12:19:01	0	57,470299	2,614205	2,0415	22,4676	0,744	87,949	0	1015,5	7,6	9,5	9,3	1	1	1	1	1	1	1	1	1	0	1	-9,231853	275,041845	315,240835	0
15.01.2021	12:19:02	0	57,704884	4,20546	2,0775	25,8156	0,739	87,927	0	1015,44	7,6	9,5	9,3	1	1	1	1	1	1	1	1	1	0	1	-8,174771	275,088908	316,520061	0
15.01.2021	12:19:03	0	57,822183	3,18251	2,1135	17,6976	0,739	87,925	0	1015,4	7,7	9,5	9,3	1	1	1	1	1	1	1	1	1	0	1	-10,852713	274,962098	313,243825	0
15.01.2021	12:19:04	0	57,70491	2,273221	2,13075	26,8956	0,741	87,952	0	1015,52	7,7	9,5	9,3	1	1	1	1	1	1	1	1	1	0	1	-8,879493	275,087337	315,807924	0
15.01.2021	12:19:05	0	57,939495	4,432781	2,0925	29,9448	0,739	87,914	0	1015,44	7,7	9,5	9,3	1	1	1	1	1	1	1	1	1	0	1	-10,570825	275,054384	313,961038	0
15.01.2021	12:19:06	0	57,939508	3,750814	2,058	22,8276	0,743	87,93	0	1015,44	7,7	9,5	9,3	1	1	1	1	1	1	1	1	1	0	1	-9,584214	274,960538	314,504968	0
15.01.2021	12:19:07	0	58,056807	3,29617	1,992	17,6868	0,744	87,939	0	1015,48	7,7	9,5	9,3	1	1	1	1	1	1	1	1	1	0	1	-8,668076	274,958978	315,41375	0
15.01.2021	12:19:08	0	57,822247	3,523491	1,9215	25,7904	0,741	87,947	0	1015,48	7,7	9,5	9,3	1	1	1	1	1	1	1	1	1	0	1	-9,936575	274,958978	314,145251	0
15.01.2021	12:19:09	0	57,822259	2,955186	1,76175	13,5576	0,742	87,948	0	1015,44	7,7	9,5	9,3	1	1	1	1	1	1	1	1	1	0	1	-10,077519	275,073207	314,543192	0
15.01.2021	12:19:10	0	57,939558	2,955186	1,66425	18,8424	0,742	87,945	0	1015,34	7,7	9,5	9,3	1	1	1	1	1	1	1	1	1	0	1	-9,654686	275,041845	314,818002	0
15.01.2021	12:19:11	0	58,408717	4,887422	1,5555	8,9964	0,747	87,948	0	1015,42	7,7	9,5	9,3	1	1	1	1	1	1	1	1	1	0	1	-7,751938	274,973025	316,396118	0
15.01.2021	12:19:12	0	58,05687	2,500541	1,49925	21,78	0,738	87,938	0	1015,48	7,7	9,5	9,3	1	1	1	1	1	1	1	1	1	0	1	-7,188161	275,066931	317,402923	0
15.01.2021	12:19:13	0	58,291456	4,319116	1,54425	9,3636	0,743	87,953	0	1015,36	7,7	9,5	9,3	1	1	1	1	1	1	1	1	1	0	1	-8,879493	275,098334	315,859847	0
15.01.2021	12:19:14	0	58,408755	3,63715	1,647	18,9288	0,74	87,945	0	1015,5	7,7	9,5	9,3	1	1	1	1	1	1	1	1	1	0	1	-8,879493	275,026182	315,519293	0
15.01.2021	12:19:15	0	58,174195	2,386879	1,74825	35,8632	0,745	87,952	0	1015,38	7,7	9,5	9,3	1	1	1	1	1	1	1	1	1	0	1	-6,131078	275,109338	318,660219	0
15.01.2021	12:19:16	0	58,174207	3,068845	1,758	31,7664	0,735	87,94	0	1015,34	7,7	9,5	9,3	1	1	1	1	1	1	1	1	1	0	1	-9,372798	274,977709	314,797348	0
15.01.2021	12:19:17	0	58,408793	4,205453	1,776	29,9592	0,744	87,934	0	1015,38	7,7	9,5	9,3	1	1	1	1	1	1	1	1	1	0	1	-10,218464	274,934031	313,745763	0
15.01.2021	12:19:18	0	58,760666	3,068844	1,75425	23,5764	0,739	87,942	0	1015,26	7,7	9,5	9,3	1	1	1	1	1	1	1	1	1	0	1	-6,8358	275,029314	317,57776	0
15.01.2021	12:19:19	0	58,526105	2,841522	1,848	28,3644	0,737	87,94	0	1015,46	7,7	9,5	9,3	1	1	1	1	1	1	1	1	1	0	1	-7,82241	274,938706	316,163852	0
15.01.2021	12:19:20	0	58,877978	4,546435	1,96275	28,7136	0,746	87,941	0	1015,46	7,7	9,5	9,3	1	1	1	1	1	1	1	1	1	0	1	-5,708245	274,998022	318,557697	0
15.01.2021	12:19:21	0	58,526131	2,6142	2,0415	20,2932	0,736	87,916	0	1015,44	7,7	9,5	9,3	1	1	1	1	1	1	1	1	1	0	1	-5,708245	275,093621	319,008837	0
15.01.2021	12:19:22	0	58,878004	3,864469	1,998	28,0728	0,74	87,92	0	1015,38	7,7	9,5	9,3	1	1	1	1	1	1	1	1	1	0	1	-9,654686	275,044979	314,832791	0
15.01.2021	12:19:23	0	58,76073	3,637147	1,9245	21,7656	0,744	87,931	0	1015,52	7,7	9,5	9,3	1	1	1	1	1	1	1	1	1	0	1	-8,668076	274,921569	315,23742	0
15.01.2021	12:19:24	0	59,112603	2,500538	1,91475	19,5264	0,742	87,916	0	1015,32	7,7	9,5	9,3	1	1	1	1	1	1	1	1	1	0	1	-7,470049	275,048113	317,03222	0
15.01.2021	12:19:25	0	59,112616	4,432771	1,941	22,4568	0,743	87,914	0	1015,52	7,7	9,5	9,3	1	1	1	1	1	1	1	1	1	0	1	-9,654686	274,940265	314,338923	0
15.01.2021	12:19:26	0	59,347202	4,660093	1,9995	28,3428	0,743	87,928	0	1015,38	7,7	9,5	9,3	1	1	1	1	1	1	1	1	1	0	1	-10,077519	274,982395	314,114722	0
15.01.2021	12:19:27	0	58,878067	3,068841	1,962	17,7048	0,748	87,928	0	1015,5	7,7	9,5	9,3	1	1	1	1	1	1	1	1	1	0	1	-5,073996	274,951178	318,971061	0
15.01.2021	12:19:28	0	59,229941	4,546431	1,95075	19,9044	0,743	87,917	0	1015,46	7,7	9,5	9,3	1	1	1	1	1	1	1	1	1	0	1	-9,795631	275,040278	314,669664	0
15.01.2021	12:19:29	0	59,112667	3,296162	1,884	15,4044	0,743	87,932	0	1015,42	7,7	9,5	9,3	1	1	1	1	1	1	1	1	1	0	1	-7,117689	275,109338	317,673609	0
15.01.2021	12:19:30	0	59,699115	4,319083	1,83525	17,676	0,745	87,917	0	1015,46	7,7	9,5	9,4	1	1	1	1	1	1	1	1	1	0	1	-10,852713	275,085767	313,827289	0
15.01.2021	12:19:31	0	59,229979	4,432769	1,77	18,8244	0,749	87,917	0	1015,52	7,7	9,5	9,3	1	1	1	1	1	1	1	1	1	0	1	-11,06413	275,063793	313,512144	0
15.01.2021	12:19:32	0	59,112705	2,841518	1,788	18,4248	0,742	87,899	0	1015,44	7,7	9,5	9,3	1	1	1	1	1	1	1	1	1	0	1	-10,641297	274,943382	313,367008	0
15.01.2021	12:19:33	0	59,933727	5,228393	1,83825	12,8448	0,745	87,923	0	1015,46	7,7	9,5	9,3	1	1	1	1	1	1	1	1	1	0	1	-12,332629	275,055952	312,206634	0
15.01.2021	12:19:34	0	59,581879	3,1825	1,90875	18,0756	0,748	87,926	0	1015,46	7,7	9,5	9,3	1	1	1	1	1	1	1	1	1	0	1	-9,584214	274,941823	314,416742	0
15.01.2021	12:19:35	0	59,933753	4,432767	1,87875	20,628	0,742	87,923	0	1015,4	7,7	9,5	9,3	1	1	1	1	1	1	1	1	1	0	1	-8,45666	275,015226	315,890437	0
15.01.2021	12:19:36	0	59,816478	4,432766	1,83825	20,6316	0,741	87,915	0	1015,48	7,7	9,5	9,3	1	1	1	1	1	1	1	1	1	0	1	-9,795631	274,924684	314,124544	0
15.01.2021	12:19:37	0	60,402927	5,11473	1,7595	18,8136	0,739	87,921	0	1015,48	7,6	9,5	9,3	1	1	1	1	1	1	1	1	1	0	1	-9,866103	274,994895	314,385094	0
15.01.2021	12:19:38	0	59,816504	3,864462	1,8345	23,2164	0,745	87,927	0	1015,5	7,7	9,5	9,3	1	1	1	1	1	1	1	1	1	0	1	-7,188161	274,940265	316,805449	0
15.01.2021	12:19:39	0	59,933804	3,978122	1,962	22,0788	0,75	87,923	0	1015,42	7,7	9,5	9,3	1	1	1	1	1	1	1	1	1	0	1	-10,782241	274,938706	313,204022	0
15.01.2021	12:19:40	0	59,816529	2,955176	2,03775	21,0024	0,742	87,916	0	1015,54	7,7	9,5	9,3	1	1	1	1	1	1	1	1	1	0	1	-7,751938	274,963659	316,351958	0
15.01.2021	12:19:41	0	60,402979	5,228388	2,14575	25,02	0,745	87,905	0	1015,58	7,7	9,5	9,3	1	1	1	1	1	1	1	1	1	0	1	-7,610994	275,095192	317,113507	0
15.01.2021	12:19:42	0	59,933842	2,727855	2,19825	20,6172	0,75	87,917	0	1015,58	7,7	9,5	9,3	1	1	1	1	1	1	1	1	1	0	1	-6,553911	274,971463	317,586783	0
15.01.2021	12:19:43	0	60,16843	3,86446	2,03775	24,3324	0,745	87,912	0	1015,46	7,7	9,5	9,3	1	1	1	1	1	1	1	1	1	0	1	-9,231853	275,11091	315,56687	0
15.01.2021	12:19:44	0	60,168442	2,727854	1,91775	31,7736	0,745	87,909	0	1015,5	7,7	9,5	9,3	1	1	1	1	1	1	1	1	1	0	1	-5,708245	275,052816	318,816218	0
15.01.2021	12:19:45	0	60,637605	5,228386	1,839	22,8384	0,744	87,904	0	1015,44	7,7	9,5	9,3	1	1	1	1	1	1	1	1	1	0	1	-14,164905	275,099906	310,581855	0
15.01.2021	12:19:46	0	60,403043	2,614193	1,75275	27,6624	0,747	87,911	0	1015,42	7,7	9,5	9,3	1	1	1	1	1	1	1	1	1	0	1	-10,641297	274,930915	313,308243	0
15.01.2021	12:19:47	0	60,754493	3,978119	1,62075	22,824	0,741	87,892	0	1015,32	7,7	9,6	9,3	1	1	1	1	1	1	1	1	1	0	1	-6,976744	275,044979	317,510733	0
15.01.2021	12:19:48	0	60,637643	2,955174	1,56975	25,038	0,747	87,912	0	1015,5	7,7	9,5	9,3	1	1	1	1	1	1	1	1	1	0	1	-9,231853	274,940265	314,761756	0
15.01.2021	12:19:49	0	60,285794	2,614192	1,5855	18,4428	0,744	87,906	0	1015,38	7,7	9,5	9,3	1	1	1	1	1	1	1	1	1	0	1	-8,597604	274,934031	315,366623	0
15.01.2021	12:19:50	0	60,637669	4,3191	1,572	18,4428	0,745	87,896	0	1015,58	7,7	9,5	9,3	1	1	1	1	1	1	1	1	1	0	1	-10,993658	275,019921	313,375587	0
15.01.2021	12:19:51	0	60,75497	5,001062	1,569	18,45	0,743	87,908	0	1015,54	7,7	9,5	9,3	1	1	1	1	1	1	1	1	1	0	1	-10,782241	274,937147	313,196676	0
15.01.2021	12:19:52	0	61,106417	3,068833	1,518	26,1612	0,742	87,899	0	1015,5	7,7	9,6	9,3	1	1	1	1	1	1	1	1	1	0	1	-7,751938	275,052816	316,772525	0
15.01.2021	12:19:53	0	60,637707	3,296134	1,551	6,4368	0,748	87,902	0	1015,52	7,7	9,5	9,4	1	1	1	1	1	1	1	1	1	0	1	-10,711769	274,944941	313,303885	0
15.01.2021	12:19:54	0	61,341446	3,068833	1,551	1,6524	0,749	87,91	0	1015,52	7,7	9,5	9,3	1	1	1	1	1	1	1	1	1	0	1	-5,990134	275,048113	318,512136	0
15.01.2021	12:19:55	0	60,637733	2,727851	1,5615	6,0588	0,747	87,903	0	1015,44	7,7	9,5	9,3	1	1	1	1	1	1	1	1	1	0	1	-10,782241	275,103049	313,979362	0
15.01.2021	12:19:56	0	61,106897	2,61419	1,4895	21,762	0,745	87,907	0	1015,46	7,7	9,5	9,3	1	1	1	1	1	1	1	1	1	0	1	-9,795631	275,03088	314,625318	0
15.01.2021	12:19:57	0	60,989622	3,978115	1,407	18,828	0,747	87,919	0	1015,46	7,7	9,5	9,3	1	1	1	1	1	1	1	1	1	0	1	-12,684989	275,095192	312,039511	0
15.01.2021	12:19:58	0	61,22421	3,068813	1,3215	12,456	0,739	87,892	0	1015,5	7,7	9,5	9,4	1	1	1	1	1	1	1	1	1	0	1	-6,483439	274,976147	317,679343	0
15.01.2021	12:19:59	0	61,341511	4,773737	1,3725	14,3028	0,748	87,923	0	1015,52	7,7	9,5	9,3	1	1	1	1	1	1	1	1	1	0	1	-9,372798	275,103049	315,388805	0
15.01.2021	12:20:00	0	61,458824	2,727849	1,461	15,4008	0,749	87,92	0	1015,5	7,7	9,5	9,3	1	1	1	1	1	1	1	1	1	0	1	-10,923185	274,96678	313,195428	0
15.01.2021	12:20:01	0	61,458824	2,727849	1,461	15,4008	0,749	87,92	0	1015,5	7,7	9,5	9,3	1	1	1	1	1	1	1	1	1	0	1	-10,923185	274,96678	313,195428	0
15.01.2021	12:20:02	0	61,927988	4,773736	1,53675	15,0228	0,745	87,917	0	1015,42	7,7	9,5	9,3	1	1	1	1	1	1	1	1	1	0	1	-11,205074	275,065362	313,378604	0
15.01.2021	12:20:03	0	61,341562	2,727849	1,63425	2,3004	0,749	87,929	0	1015,56	7,7	9,5	9,3	1	1	1	1	1	1	1	1	1	0	1	-6,976744	275,082626	317,688431	0
15.01.2021	12:20:04	0	61,693439	4,432754	1,701	4,4532	0,744	87,932	0	1015,5	7,7	9,5	9,3	1	1	1	1	1	1	1	1	1	0	1	-10,42988	275,082626	314,235295	0
15.01.2021	12:20:05	0	61,576163	4,432753	1,75725	5,22	0,741	87,938	0	1015,54	7,7	9,5	9,3	1	1	1	1	1	1	1	1	1	0	1	-9,866103	275,048113	314,636167	0
15.01.2021	12:20:06	0	61,576176	2,727832	1,6965	2,6496	0,739	87,93	0	1015,56	7,7	9,5	9,4	1	1	1	1	1	1	1	1	1	0	1	-4,087385	275,09205	320,622279	0
15.01.2021	12:20:07	0	61,341613	2,727831	1,61625	356,6376	0,75	87,929	0	1015,44	7,7	9,5	9,4	1	1	1	1	1	1	1	1	1	0	1	-9,513742	274,952738	314,538667	0
15.01.2021	12:20:08	0	61,928066	3,63713	1,596	359,8452	0,753	87,941	0	1015,54	7,7	9,5	9,3	1	1	1	1	1	1	1	1	1	0	1	-7,681466	274,932473	316,275417	0
15.01.2021	12:20:09	0	61,928079	3,06881	1,50975	360	0,75	87,94	0	1015,44	7,7	9,5	9,4	1	1	1	1	1	1	1	1	1	0	1	-9,866103	275,007404	314,444095	0
15.01.2021	12:20:10	0	61,810804	4,09177	1,43625	0,486	0,748	87,946	0	1015,52	7,7	9,5	9,3	1	1	1	1	1	1	1	1	1	0	1	-5,567301	275,093621	319,149781	0
15.01.2021	12:20:11	0	62,045393	3,182488	1,37925	2,2932	0,743	87,937	0	1015,36	7,7	9,5	9,3	1	1	1	1	1	1	1	1	1	0	1	-7,258633	275,082626	317,406542	0
15.01.2021	12:20:12	0	62,044971	4,660043	1,32375	357,606	0,742	87,946	0	1015,42	7,7	9,6	9,4	1	1	1	1	1	1	1	1	1	0	1	-10,147992	275,077916	314,494948	0
15.01.2021	12:20:13	0	62,045418	2,955166	1,269	358,7364	0,746	87,952	0	1015,42	7,7	9,5	9,3	1	1	1	1	1	1	1	1	1	0	1	-7,399577	274,990207	316,829506	0
15.01.2021	12:20:14	0	62,045431	4,660042	1,23075	7,5168	0,746	87,944	0	1015,6	7,7	9,5	9,4	1	1	1	1	1	1	1	1	1	0	1	-7,188161	275,11091	317,610562	0
15.01.2021	12:20:15	0	62,045444	3,068808	1,1835	15,0192	0,746	87,94	0	1015,46	7,7	9,5	9,4	1	1	1	1	1	1	1	1	1	0	1	-11,909796	275,002712	312,378271	0
15.01.2021	12:20:16	0	61,928169	2,955166	1,14525	12,0996	0,739	87,937	0	1015,4	7,7	9,5	9,3	1	1	1	1	1	1	1	1	1	0	1	-7,610994	275,112483	317,195156	0
15.01.2021	12:20:17	0	62,514623	3,978107	1,12425	14,0868	0,745	87,963	0	1015,42	7,7	9,5	9,3	1	1	1	1	1	1	1	1	1	0	1	-7,681466	275,065362	316,902213	0
15.01.2021	12:20:18	0	62,162771	3,182485	1,086	23,5836	0,75	87,963	0	1015,42	7,7	9,5	9,3	1	1	1	1	1	1	1	1	1	0	1	-8,949965	274,955858	315,117151	0
15.01.2021	12:20:19	0	62,39736	2,955147	1,05825	8,2512	0,747	87,954	0	1015,36	7,7	9,5	9,4	1	1	1	1	1	1	1	1	1	0	1	-8,668076	275,066931	315,923007	0
15.01.2021	12:20:20	0	62,162797	2,727844	1,104	358,0164	0,746	87,959	0	1015,46	7,7	9,5	9,3	1	1	1	1	1	1	1	1	1	0	1	-7,117689	274,935589	316,853883	0
15.01.2021	12:20:21	0	62,749251	5,114676	1,12125	359,082	0,748	87,957	0	1015,48	7,7	9,5	9,4	1	1	1	1	1	1	1	1	1	0	1	-8,527132	275,090479	316,175116	0
15.01.2021	12:20:22	0	62,514687	5,342027	1,113	0,8712	0,753	87,96	0	1015,56	7,7	9,5	9,3	1	1	1	1	1	1	1	1	1	0	1	-7,117689	275,103049	317,643914	0
15.01.2021	12:20:23	0	62,866565	4,546405	1,098	2,628	0,747	87,935	0	1015,42	7,7	9,5	9,3	1	1	1	1	1	1	1	1	1	0	1	-10,42988	275,084197	314,242708	0
15.01.2021	12:20:24	0	62,397425	4,887385	1,01775	12,078	0,741	87,951	0	1015,34	7,7	9,5	9,3	1	1	1	1	1	1	1	1	1	0	1	-4,580691	275,001149	319,700001	0
15.01.2021	12:20:25	0	62,632014	4,432718	1,03725	24,354	0,748	87,969	0	1015,48	7,7	9,5	9,4	1	1	1	1	1	1	1	1	1	0	1	-7,610994	275,106193	317,165455	0
15.01.2021	12:20:26	0	62,632027	4,319084	1,03725	3,024	0,746	87,967	0	1015,56	7,7	9,5	9,3	1	1	1	1	1	1	1	1	1	0	1	-11,557435	275,103049	313,204168	0
15.01.2021	12:20:27	0	63,101194	4,319083	1,098	347,6556	0,751	87,96	0	1015,36	7,7	9,5	9,3	1	1	1	1	1	1	1	1	1	0	1	-7,399577	274,987081	316,814767	0
15.01.2021	12:20:28	0	62,632053	3,296123	1,15125	3,024	0,752	87,971	0	1015,46	7,7	9,5	9,4	1	1	1	1	1	1	1	1	1	0	1	-7,047216	274,926242	316,880298	0
15.01.2021	12:20:29	0	62,632066	3,978102	1,1175	14,3028	0,747	87,955	0	1015,36	7,7	9,5	9,3	1	1	1	1	1	1	1	1	1	0	1	-2,818887	274,979271	321,358624	0
15.01.2021	12:20:30	0	62,51479	2,500521	1,086	3,0132	0,751	87,976	0	1015,34	7,7	9,5	9,3	1	1	1	1	1	1	1	1	1	0	1	-3,523608	274,949619	320,514096	0
15.01.2021	12:20:31	0	62,632091	2,727841	1,0575	0,1332	0,749	87,976	0	1015,52	7,7	9,5	9,3	1	1	1	1	1	1	1	1	1	0	1	-0	274,892006	323,766194	0
15.01.2021	12:20:32	0	62,749393	2,841501	1,13325	7,8804	0,755	87,988	0	1015,5	7,7	9,5	9,3	1	1	1	1	1	1	1	1	1	0	1	-9,231853	274,940265	314,761756	0
15.01.2021	12:20:33	0	62,866694	3,068821	1,287	24,7248	0,757	87,981	0	1015,44	7,7	9,5	9,3	1	1	1	1	1	1	1	1	1	0	1	-7,329105	275,038711	317,128797	0
15.01.2021	12:20:34	0	62,983995	4,88738	1,3335	28,3428	0,756	87,981	0	1015,38	7,7	9,5	9,3	1	1	1	1	1	1	1	1	1	0	1	-8,104299	275,123494	316,753855	0
15.01.2021	12:20:35	0	63,218586	4,205395	1,3245	349,1064	0,753	87,98	0	1015,48	7,7	9,5	9,4	1	1	1	1	1	1	1	1	1	0	1	-10,288936	275,066931	314,302148	0
15.01.2021	12:20:36	0	63,335887	3,52346	1,33425	3,0204	0,749	87,986	0	1015,48	7,7	9,5	9,3	1	1	1	1	1	1	1	1	1	0	1	-9,866103	274,957418	314,208368	0
15.01.2021	12:20:37	0	63,218611	2,841482	1,25475	345,7224	0,754	87,972	0	1015,36	7,7	9,5	9,4	1	1	1	1	1	1	1	1	1	0	1	-5,990134	274,955858	318,076982	0
15.01.2021	12:20:38	0	63,335913	2,841499	1,143	340,5024	0,754	87,996	0	1015,56	7,7	9,5	9,3	1	1	1	1	1	1	1	1	1	0	1	-5,919662	274,949619	318,118043	0
15.01.2021	12:20:39	0	63,453215	2,841499	1,077	349,4232	0,752	87,986	0	1015,42	7,7	9,5	9,3	1	1	1	1	1	1	1	1	1	0	1	-5,355884	274,994895	318,895312	0
15.01.2021	12:20:40	0	63,101361	3,523437	1,0395	357,9624	0,751	87,999	0	1015,58	7,7	9,5	9,4	1	1	1	1	1	1	1	1	1	0	1	-4,933051	274,943382	319,075253	0
15.01.2021	12:20:41	0	63,687818	3,182478	1,05825	357,2568	0,749	88,005	0	1015,4	7,7	9,5	9,3	1	1	1	1	1	1	1	1	1	0	1	-6,483439	275,090479	318,218809	0
15.01.2021	12:20:42	0	63,453253	2,841481	1,04475	353,2788	0,746	88,013	0	1015,28	7,7	9,5	9,4	1	1	1	1	1	1	1	1	1	0	1	-10,147992	275,076347	314,487538	0
15.01.2021	12:20:43	0	63,805133	5,001036	1,05075	359,5284	0,756	88,012	0	1015,44	7,7	9,5	9,3	1	1	1	1	1	1	1	1	1	0	1	-5,637773	275,131363	319,257548	0
15.01.2021	12:20:44	0	63,218701	4,546369	1,06725	3,0132	0,757	88,016	0	1015,54	7,7	9,5	9,4	1	1	1	1	1	1	1	1	1	0	1	-3,030303	275,079486	321,620048	0
15.01.2021	12:20:45	0	63,336003	4,091731	1,11375	0,4824	0,757	88,023	0	1015,54	7,7	9,5	9,4	1	1	1	1	1	1	1	1	1	0	1	-12,191684	275,129789	312,696202	0
15.01.2021	12:20:46	0	63,687436	4,546395	1,16475	3,3804	0,751	88,003	0	1015,46	7,7	9,6	9,3	1	1	1	1	1	1	1	1	1	0	1	-7,188161	275,076347	317,447369	0
15.01.2021	12:20:47	0	63,218739	2,614177	1,2525	0,1332	0,757	88,021	0	1015,44	7,7	9,5	9,3	1	1	1	1	1	1	1	1	1	0	1	-11,768851	274,954298	312,290911	0
15.01.2021	12:20:48	0	63,570619	4,319074	1,353	0,4896	0,754	88,034	0	1015,48	7,7	9,5	9,3	1	1	1	1	1	1	1	1	1	0	1	-9,302326	275,065362	315,281353	0
15.01.2021	12:20:49	0	63,453343	4,205389	1,46175	3,7872	0,755	88,023	0	1015,5	7,7	9,5	9,4	1	1	1	1	1	1	1	1	1	0	1	-4,862579	274,952738	319,18983	0
15.01.2021	12:20:50	0	63,805223	4,205414	1,5315	7,506	0,759	88,026	0	1015,48	7,7	9,5	9,3	1	1	1	1	1	1	1	1	1	0	1	-5,355884	275,041845	319,116804	0
15.01.2021	12:20:51	0	63,687947	4,660053	1,5645	5,31	0,762	88,05	0	1015,52	7,7	9,5	9,3	1	1	1	1	1	1	1	1	1	0	1	-9,372798	275,142385	315,57459	0
15.01.2021	12:20:52	0	63,453381	3,523433	1,52625	6,8112	0,755	88,035	0	1015,42	7,7	9,5	9,4	1	1	1	1	1	1	1	1	1	0	1	-5,919662	274,987081	318,294683	0
15.01.2021	12:20:53	0	63,805261	3,750773	1,524	360	0,757	88,045	0	1015,48	7,7	9,5	9,3	1	1	1	1	1	1	1	1	1	0	1	-6,906272	275,019921	317,462973	0
15.01.2021	12:20:54	0	63,570696	3,864433	1,4625	351,3636	0,76	88,047	0	1015,48	7,7	9,5	9,3	1	1	1	1	1	1	1	1	1	0	1	-7,610994	275,147111	317,358718	0
15.01.2021	12:20:55	0	63,922576	4,546364	1,49175	357,7536	0,758	88,039	0	1015,5	7,7	9,5	9,4	1	1	1	1	1	1	1	1	1	0	1	-11,06413	274,960538	313,025052	0
15.01.2021	12:20:56	0	63,8053	3,75075	1,59825	0,846	0,755	88,049	0	1015,46	7,7	9,5	9,4	1	1	1	1	1	1	1	1	1	0	1	-7,751938	275,032446	316,6764	0
15.01.2021	12:20:57	0	63,805312	4,205386	1,74825	0,8496	0,754	88,04	0	1015,48	7,7	9,5	9,4	1	1	1	1	1	1	1	1	1	0	1	-7,117689	275,125068	317,747897	0
15.01.2021	12:20:58	0	63,922614	4,660022	1,8015	1,8936	0,754	88,054	0	1015,44	7,7	9,5	9,4	1	1	1	1	1	1	1	1	1	0	1	-4,510218	275,090479	320,19203	0
15.01.2021	12:20:59	0	63,688049	4,432703	1,89525	12,0924	0,76	88,055	0	1015,32	7,7	9,5	9,4	1	1	1	1	1	1	1	1	1	0	1	-9,161381	274,960538	314,927801	0
15.01.2021	12:21:00	0	64,157231	5,000997	2,19225	12,8592	0,762	88,059	0	1015,5	7,7	9,5	9,4	1	1	1	1	1	1	1	1	1	0	1	-9,513742	275,043412	314,96634	0
15.01.2021	12:21:01	0	64,157231	5,000997	2,19225	12,8592	0,762	88,059	0	1015,5	7,7	9,5	9,4	1	1	1	1	1	1	1	1	1	0	1	-9,513742	275,043412	314,96634	0
15.01.2021	12:21:02	0	63,570798	3,296112	2,43525	9,3564	0,759	88,043	0	1015,36	7,7	9,5	9,4	1	1	1	1	1	1	1	1	1	0	1	-5,637773	275,134512	319,272421	0
15.01.2021	12:21:03	0	63,6881	3,978089	2,53875	7,4952	0,761	88,05	0	1015,66	7,7	9,5	9,3	1	1	1	1	1	1	1	1	1	0	1	-13,107822	275,044979	311,379655	0
15.01.2021	12:21:04	0	64,274559	4,54636	2,514	348,7572	0,751	88,057	0	1015,32	7,7	9,5	9,4	1	1	1	1	1	1	1	1	1	0	1	-3,24172	275,134512	321,668474	0
15.01.2021	12:21:05	0	64,039993	4,091723	2,3115	360	0,76	88,05	0	1015,42	7,7	9,5	9,4	1	1	1	1	1	1	1	1	1	0	1	-8,386187	275,070069	316,219709	0
15.01.2021	12:21:06	0	64,157295	2,955133	2,1555	357,6744	0,759	88,066	0	1015,5	7,7	9,5	9,4	1	1	1	1	1	1	1	1	1	0	1	-2,60747	275,121921	322,243252	0
15.01.2021	12:21:07	0	64,040018	3,182451	2,11725	9,3564	0,758	88,054	0	1015,44	7,7	9,5	9,4	1	1	1	1	1	1	1	1	1	0	1	-6,412967	275,004276	317,882476	0
15.01.2021	12:21:08	0	63,922742	4,091722	2,1105	355,3956	0,755	88,044	0	1015,4	7,7	9,5	9,4	1	1	1	1	1	1	1	1	1	0	1	-11,486963	274,949619	312,550742	0
15.01.2021	12:21:09	0	64,157333	2,841474	2,10225	19,5048	0,757	88,035	0	1015,3	7,7	9,5	9,4	1	1	1	1	1	1	1	1	1	0	1	-9,513742	275,05752	315,032922	0
15.01.2021	12:21:10	0	64,040056	4,319039	2,02725	356,9148	0,767	88,03	0	1015,42	7,7	9,5	9,4	1	1	1	1	1	1	1	1	1	0	1	-5,21494	274,951178	318,830116	0
15.01.2021	12:21:11	0	63,80549	3,637107	2,00325	16,4736	0,766	88,028	0	1015,32	7,7	9,5	9,3	1	1	1	1	1	1	1	1	1	0	1	-4,298802	275,071638	320,314501	0
15.01.2021	12:21:12	0	63,805503	4,319064	2,02275	360	0,763	88,018	0	1015,44	7,7	9,5	9,3	1	1	1	1	1	1	1	1	1	0	1	-6,060606	275,121921	318,790116	0
15.01.2021	12:21:13	0	64,274674	3,409767	1,97175	0,8532	0,758	88,001	0	1015,46	7,7	9,5	9,4	1	1	1	1	1	1	1	1	1	0	1	-10,500352	275,077916	314,142588	0
15.01.2021	12:21:14	0	64,157397	4,319038	1,9815	351	0,766	87,999	0	1015,48	7,7	9,5	9,4	1	1	1	1	1	1	1	1	1	0	1	-6,20155	275,098334	318,537789	0
15.01.2021	12:21:15	0	64,274699	3,864402	2,0145	359,0676	0,759	87,998	0	1015,48	7,7	9,5	9,4	1	1	1	1	1	1	1	1	1	0	1	-8,245243	275,029314	316,168317	0
15.01.2021	12:21:16	0	63,805553	2,841472	2,04225	1,9224	0,763	87,974	0	1015,48	7,7	9,5	9,4	1	1	1	1	1	1	1	1	1	0	1	-7,188161	275,126641	317,684858	0
15.01.2021	12:21:17	0	63,922855	2,614154	2,04525	13,158	0,761	87,988	0	1015,44	7,7	9,5	9,4	1	1	1	1	1	1	1	1	1	0	1	-6,483439	275,074777	318,144681	0
15.01.2021	12:21:18	0	63,922868	4,432695	1,93425	37,2744	0,761	87,983	0	1015,34	7,7	9,5	9,4	1	1	1	1	1	1	1	1	1	0	1	-7,399577	274,971463	316,741117	0
15.01.2021	12:21:19	0	63,92288	2,727828	1,752	29,5668	0,755	87,972	0	1015,46	7,7	9,5	9,3	1	1	1	1	1	1	1	1	1	0	1	-11,346018	275,029314	313,067542	0
15.01.2021	12:21:20	0	64,040183	3,637082	1,5585	10,8216	0,764	87,985	0	1015,46	7,7	9,5	9,4	1	1	1	1	1	1	1	1	1	0	1	-8,668076	274,962098	315,428462	0
15.01.2021	12:21:21	0	64,157485	4,432694	1,44	1,9008	0,76	87,958	0	1015,36	7,7	9,5	9,4	1	1	1	1	1	1	1	1	1	0	1	-1,62086	275,035578	322,822259	0
15.01.2021	12:21:22	0	64,157498	4,432693	1,38525	353,106	0,762	87,975	0	1015,34	7,7	9,5	9,4	1	1	1	1	1	1	1	1	1	0	1	-10,218464	275,136086	314,699167	0
15.01.2021	12:21:23	0	64,15751	3,864399	1,40025	345,384	0,762	87,973	0	1015,42	7,7	9,5	9,4	1	1	1	1	1	1	1	1	1	0	1	-7,610994	275,016791	316,743485	0
15.01.2021	12:21:24	0	63,922943	3,75074	1,46475	348,3792	0,763	87,971	0	1015,6	7,7	9,5	9,4	1	1	1	1	1	1	1	1	1	0	1	-12,825934	275,132937	312,076824	0
15.01.2021	12:21:25	0	64,157535	4,887327	1,57575	353,5524	0,762	87,959	0	1015,4	7,7	9,5	9,4	1	1	1	1	1	1	1	1	1	0	1	-6,131078	275,049681	318,378589	0
15.01.2021	12:21:26	0	64,157548	4,432692	1,52775	10,044	0,761	87,956	0	1015,5	7,7	9,5	9,4	1	1	1	1	1	1	1	1	1	0	1	-3,382664	274,969902	320,750669	0
15.01.2021	12:21:27	0	63,922981	3,978056	1,55025	23,1984	0,76	87,971	0	1015,54	7,7	9,5	9,4	1	1	1	1	1	1	1	1	1	0	1	-10,007047	274,999585	314,266269	0
15.01.2021	12:21:28	0	64,157573	3,63708	1,71675	2,2824	0,762	87,957	0	1015,48	7,7	9,5	9,4	1	1	1	1	1	1	1	1	1	0	1	-7,610994	274,963659	316,492902	0
15.01.2021	12:21:29	0	64,157585	2,955145	1,9035	7,5132	0,76	87,948	0	1015,42	7,7	9,5	9,3	1	1	1	1	1	1	1	1	1	0	1	-8,597604	275,073207	316,023107	0
15.01.2021	12:21:30	0	63,923018	3,182444	1,8795	1,5552	0,766	87,965	0	1015,46	7,7	9,5	9,4	1	1	1	1	1	1	1	1	1	0	1	-4,157858	274,973025	319,990198	0
15.01.2021	12:21:31	0	64,04032	4,432689	1,75425	11,7108	0,763	87,967	0	1015,48	7,7	9,5	9,4	1	1	1	1	1	1	1	1	1	0	1	-5,003524	275,002712	319,284543	0
15.01.2021	12:21:32	0	63,923043	2,61415	1,581	21,7656	0,76	87,946	0	1015,48	7,7	9,5	9,4	1	1	1	1	1	1	1	1	1	0	1	-6,8358	274,965219	317,275454	0
15.01.2021	12:21:33	0	64,392215	3,523419	1,608	18,81	0,763	87,945	0	1015,56	7,7	9,5	9,4	1	1	1	1	1	1	1	1	1	0	1	-8,104299	275,034012	316,331429	0
15.01.2021	12:21:34	0	64,040358	2,727808	1,605	24,3396	0,758	87,94	0	1015,44	7,7	9,5	9,4	1	1	1	1	1	1	1	1	1	0	1	-3,805497	275,129789	321,08239	0
15.01.2021	12:21:35	0	64,27495	2,386832	1,578	28,3392	0,76	87,967	0	1015,46	7,7	9,5	9,4	1	1	1	1	1	1	1	1	1	0	1	-8,80902	275,071638	315,804283	0
15.01.2021	12:21:36	0	64,040383	2,045856	1,57875	24,6996	0,765	87,964	0	1015,44	7,7	9,5	9,4	1	1	1	1	1	1	1	1	1	0	1	-4,721635	274,955858	319,345481	0
15.01.2021	12:21:37	0	63,805815	2,841466	1,566	15,0408	0,761	87,942	0	1015,44	7,7	9,5	9,4	1	1	1	1	1	1	1	1	1	0	1	-3,382664	275,026182	321,016122	0
15.01.2021	12:21:38	0	64,040407	3,409779	1,6125	27,6552	0,768	87,963	0	1015,4	7,7	9,5	9,3	1	1	1	1	1	1	1	1	1	0	1	-9,584214	274,954298	314,475548	0
15.01.2021	12:21:39	0	64,39229	4,773691	1,60575	16,8372	0,765	87,955	0	1015,38	7,7	9,5	9,3	1	1	1	1	1	1	1	1	1	0	1	-6,412967	275,032446	318,015371	0
15.01.2021	12:21:40	0	63,923142	2,500489	1,58775	13,2444	0,761	87,96	0	1015,6	7,7	9,5	9,4	1	1	1	1	1	1	1	1	1	0	1	-13,178295	275,132937	311,724463	0
15.01.2021	12:21:41	0	64,275025	3,750734	1,671	5,202	0,767	87,968	0	1015,46	7,7	9,5	9,4	1	1	1	1	1	1	1	1	1	0	1	-7,963354	275,103049	316,798248	0
15.01.2021	12:21:42	0	63,923167	2,727806	1,7175	4,0824	0,767	87,971	0	1015,52	7,7	9,5	9,4	1	1	1	1	1	1	1	1	1	0	1	-12,191684	275,115628	312,62932	0
15.01.2021	12:21:43	0	63,923179	2,500489	1,74375	4,8384	0,766	87,964	0	1015,58	7,7	9,5	9,4	1	1	1	1	1	1	1	1	1	0	1	-9,020437	275,145535	315,941833	0
15.01.2021	12:21:44	0	64,157772	5,228294	1,83075	3,0924	0,758	87,972	0	1015,38	7,7	9,5	9,4	1	1	1	1	1	1	1	1	1	0	1	-10,007047	275,096763	314,724872	0
15.01.2021	12:21:45	0	64,509655	4,660001	1,998	10,8936	0,765	87,969	0	1015,46	7,7	9,5	9,4	1	1	1	1	1	1	1	1	1	0	1	-9,302326	275,126641	315,570693	0
15.01.2021	12:21:46	0	63,923216	4,432683	2,1165	4,842	0,764	87,979	0	1015,48	7,7	9,5	9,4	1	1	1	1	1	1	1	1	1	0	1	-11,698379	275,079486	312,951972	0
15.01.2021	12:21:47	0	64,275099	4,773658	2,10525	10,0728	0,774	87,988	0	1015,5	7,7	9,5	9,4	1	1	1	1	1	1	1	1	1	0	1	-7,751938	275,131363	317,143384	0
15.01.2021	12:21:48	0	64,275111	4,091707	1,97025	358,4088	0,758	87,972	0	1015,48	7,7	9,5	9,4	1	1	1	1	1	1	1	1	1	0	1	-9,584214	275,093621	315,132868	0
15.01.2021	12:21:49	0	64,157833	4,091706	1,85175	1,566	0,767	87,985	0	1015,46	7,7	9,5	9,4	1	1	1	1	1	1	1	1	1	0	1	-4,862579	275,139235	320,069928	0
15.01.2021	12:21:50	0	63,923265	4,773657	1,6725	351,0612	0,766	87,987	0	1015,48	7,7	9,5	9,4	1	1	1	1	1	1	1	1	1	0	1	-4,510218	275,082626	320,154957	0
15.01.2021	12:21:51	0	64,275148	4,432681	1,575	350,334	0,765	87,982	0	1015,38	7,7	9,5	9,4	1	1	1	1	1	1	1	1	1	0	1	-10,500352	275,123494	314,357801	0
15.01.2021	12:21:52	0	63,805999	2,841462	1,45575	347,6808	0,762	87,985	0	1015,42	7,7	9,5	9,4	1	1	1	1	1	1	1	1	1	0	1	-6,483439	274,960538	317,605743	0
15.01.2021	12:21:53	0	64,040592	2,841462	1,347	353,4804	0,762	87,98	0	1015,42	7,7	9,5	9,4	1	1	1	1	1	1	1	1	1	0	1	-2,748414	275,077916	321,894526	0
15.01.2021	12:21:54	0	64,040604	4,660025	1,3725	3,7656	0,764	88,006	0	1015,46	7,7	9,5	9,3	1	1	1	1	1	1	1	1	1	0	1	-4,439746	275,147111	320,529966	0
15.01.2021	12:21:55	0	63,806035	2,614144	1,3785	2,6244	0,764	87,989	0	1015,36	7,7	9,5	9,4	1	1	1	1	1	1	1	1	1	0	1	-6,765328	275,021486	317,611301	0
15.01.2021	12:21:56	0	63,923338	2,727803	1,42425	359,856	0,76	88	0	1015,34	7,7	9,5	9,4	1	1	1	1	1	1	1	1	1	0	1	-6,131078	275,125068	318,734508	0
15.01.2021	12:21:57	0	63,80606	2,841461	1,46325	354,6432	0,768	88	0	1015,5	7,7	9,5	9,4	1	1	1	1	1	1	1	1	1	0	1	-4,933051	275,037145	319,517458	0
15.01.2021	12:21:58	0	63,806072	4,546337	1,5345	356,5188	0,761	87,989	0	1015,46	7,7	9,5	9,4	1	1	1	1	1	1	1	1	1	0	1	-6,906272	274,982395	317,28597	0
15.01.2021	12:21:59	0	63,806084	3,637069	1,6335	358,6824	0,765	88,006	0	1015,44	7,7	9,5	9,4	1	1	1	1	1	1	1	1	1	0	1	-5,990134	275,027748	318,416039	0
15.01.2021	12:22:00	0	64,275271	4,773652	1,7295	357,0156	0,769	88,002	0	1015,5	7,7	9,5	9,4	1	1	1	1	1	1	1	1	1	0	1	-7,188161	275,137661	317,736908	0
15.01.2021	12:22:01	0	64,275271	4,773652	1,7295	357,0156	0,769	88,002	0	1015,5	7,7	9,5	9,4	1	1	1	1	1	1	1	1	1	0	1	-8,527132	275,087337	316,160285	0
15.01.2021	12:22:02	0	63,923411	3,978043	1,74375	352,1196	0,765	87,999	0	1015,42	7,7	9,5	9,4	1	1	1	1	1	1	1	1	1	0	1	-3,24172	275,139235	321,690788	0
15.01.2021	12:22:03	0	64,275295	3,978043	1,72575	360	0,761	88,001	0	1015,5	7,7	9,5	9,4	1	1	1	1	1	1	1	1	1	0	1	-6,20155	275,084197	318,471038	0
15.01.2021	12:22:04	0	64,158017	4,205359	1,61325	347,2956	0,758	87,996	0	1015,32	7,7	9,5	9,4	1	1	1	1	1	1	1	1	1	0	1	-0	274,968341	324,125973	0
15.01.2021	12:22:05	0	64,275319	4,432675	1,61025	357,1668	0,761	87,979	0	1015,48	7,7	9,5	9,4	1	1	1	1	1	1	1	1	1	0	1	-6,20155	275,081056	318,456212	0
15.01.2021	12:22:06	0	63,806169	3,750725	1,51575	4,5468	0,767	87,995	0	1015,48	7,7	9,5	9,4	1	1	1	1	1	1	1	1	1	0	1	-5,990134	275,132937	318,912623	0
15.01.2021	12:22:07	0	63,68889	4,205358	1,563	0,4788	0,767	87,999	0	1015,44	7,7	9,5	9,4	1	1	1	1	1	1	1	1	1	0	1	-9,090909	274,993332	315,152916	0
15.01.2021	12:22:08	0	63,806193	4,546333	1,6485	1,1556	0,766	87,998	0	1015,42	7,7	9,5	9,4	1	1	1	1	1	1	1	1	1	0	1	-7,963354	275,001149	316,317337	0
15.01.2021	12:22:09	0	63,688914	3,068774	1,7835	355,0644	0,771	88,002	0	1015,38	7,7	9,5	9,4	1	1	1	1	1	1	1	1	1	0	1	-8,104299	275,109338	316,686999	0
15.01.2021	12:22:10	0	63,571635	2,841457	1,794	2,2788	0,769	87,995	0	1015,52	7,7	9,5	9,4	1	1	1	1	1	1	1	1	1	0	1	-6,553911	274,957418	317,520559	0
15.01.2021	12:22:11	0	63,571647	2,841457	1,863	346,2192	0,767	87,99	0	1015,38	7,7	9,5	9,4	1	1	1	1	1	1	1	1	1	0	1	-7,610994	275,093621	317,106089	0
15.01.2021	12:22:12	0	63,68895	2,727799	2,04	2,646	0,772	87,994	0	1015,44	7,7	9,5	9,4	1	1	1	1	1	1	1	1	1	0	1	-0,704722	274,977709	323,465424	0
15.01.2021	12:22:13	0	63,337089	2,727798	2,08125	0	0,773	87,999	0	1015,36	7,7	9,5	9,4	1	1	1	1	1	1	1	1	1	0	1	-5,285412	275,013661	319,054303	0
15.01.2021	12:22:14	0	64,040846	4,432672	2,04375	355,4532	0,766	87,992	0	1015,36	7,7	9,5	9,4	1	1	1	1	1	1	1	1	1	0	1	-11,698379	275,103049	313,063224	0
15.01.2021	12:22:15	0	63,571695	3,86438	2,0925	354,7152	0,772	88,001	0	1015,6	7,7	9,5	9,4	1	1	1	1	1	1	1	1	1	0	1	-2,255109	275,101478	322,499072	0
15.01.2021	12:22:16	0	63,571707	3,86438	2,094	1,548	0,773	88,008	0	1015,44	7,7	9,5	9,4	1	1	1	1	1	1	1	1	1	0	1	-8,80902	274,962098	315,287518	0
15.01.2021	12:22:17	0	63,454427	3,637063	2,02875	2,0124	0,77	88,005	0	1015,36	7,7	9,5	9,4	1	1	1	1	1	1	1	1	1	0	1	-4,298802	275,051248	320,218263	0
15.01.2021	12:22:18	0	63,689021	2,955113	2,0145	324,7308	0,771	88,003	0	1015,46	7,7	9,5	9,4	1	1	1	1	1	1	1	1	1	0	1	-4,933051	274,991769	319,303402	0
15.01.2021	12:22:19	0	63,571742	2,955113	1,95075	347,202	0,77	88,011	0	1015,42	7,7	9,5	9,4	1	1	1	1	1	1	1	1	1	0	1	-7,399577	275,027748	317,006595	0
15.01.2021	12:22:20	0	63,454463	3,068771	1,87125	320,3604	0,771	87,989	0	1015,42	7,7	9,5	9,4	1	1	1	1	1	1	1	1	1	0	1	-6,624383	275,132937	318,278374	0
15.01.2021	12:22:21	0	63,923639	5,341934	1,812	332,1288	0,769	88,015	0	1015,46	7,7	9,5	9,4	1	1	1	1	1	1	1	1	1	0	1	-4,651163	275,115628	320,169841	0
15.01.2021	12:22:22	0	63,689069	4,31901	1,69725	330,1272	0,774	88,018	0	1015,38	7,7	9,5	9,4	1	1	1	1	1	1	1	1	1	0	1	-8,668076	274,982395	315,524166	0
15.01.2021	12:22:23	0	63,923663	2,50048	1,68675	337,5468	0,773	88,025	0	1015,6	7,7	9,5	9,4	1	1	1	1	1	1	1	1	1	0	1	-8,033827	275,150262	316,950772	0
15.01.2021	12:22:24	0	63,45451	2,841454	1,7835	336,78	0,773	88,022	0	1015,48	7,7	9,5	9,4	1	1	1	1	1	1	1	1	1	0	1	-5,144468	275,024617	319,246931	0
15.01.2021	12:22:25	0	63,689104	5,114616	1,77	342,8316	0,774	88,021	0	1015,4	7,7	9,5	9,4	1	1	1	1	1	1	1	1	1	0	1	-7,82241	275,14396	317,132418	0
15.01.2021	12:22:26	0	63,923699	3,864376	1,6785	336,0888	0,767	88,007	0	1015,42	7,7	9,5	9,4	1	1	1	1	1	1	1	1	1	0	1	-8,174771	275,023051	316,209243	0
15.01.2021	12:22:27	0	63,571837	4,091717	1,4565	352,1232	0,773	88,018	0	1015,44	7,7	9,5	9,3	1	1	1	1	1	1	1	1	1	0	1	-9,584214	275,161295	315,452512	0
15.01.2021	12:22:28	0	63,806431	3,523401	1,23375	359,4924	0,774	88,012	0	1015,38	7,7	9,5	9,4	1	1	1	1	1	1	1	1	1	0	1	-3,171247	275,066931	321,419836	0
15.01.2021	12:22:29	0	63,454569	3,068769	1,2195	351,3564	0,772	88,013	0	1015,46	7,7	9,5	9,4	1	1	1	1	1	1	1	1	1	0	1	-10,147992	275,131363	314,74733	0
15.01.2021	12:22:30	0	63,571872	3,182426	1,3245	344,0268	0,771	88,016	0	1015,4	7,7	9,5	9,4	1	1	1	1	1	1	1	1	1	0	1	-5,21494	274,999585	319,058376	0
15.01.2021	12:22:31	0	63,689175	3,864375	1,4685	349,9776	0,769	88,019	0	1015,6	7,7	9,5	9,4	1	1	1	1	1	1	1	1	1	0	1	-8,597604	275,158142	316,424225	0
15.01.2021	12:22:32	0	63,571896	2,727794	1,5555	355,0608	0,77	88,017	0	1015,34	7,7	9,5	9,4	1	1	1	1	1	1	1	1	1	0	1	-8,386187	275,096763	316,345732	0
15.01.2021	12:22:33	0	63,220033	4,09169	1,5585	357,7284	0,772	88,018	0	1015,46	7,7	9,5	9,4	1	1	1	1	1	1	1	1	1	0	1	-9,866103	275,161295	315,170623	0
15.01.2021	12:22:34	0	63,220045	3,296083	1,4685	345,2796	0,772	87,995	0	1015,5	7,7	9,5	9,4	1	1	1	1	1	1	1	1	1	0	1	-8,738548	275,096763	315,993371	0
15.01.2021	12:22:35	0	63,102765	3,182425	1,50225	347,5656	0,773	88,012	0	1015,4	7,7	9,5	9,4	1	1	1	1	1	1	1	1	1	0	1	-5,567301	274,979271	318,610209	0
15.01.2021	12:22:36	0	63,806525	4,546321	1,47525	337,6404	0,774	88,016	0	1015,46	7,7	9,5	9,4	1	1	1	1	1	1	1	1	1	0	1	-3,523608	275,016791	320,83087	0
15.01.2021	12:22:37	0	63,22008	2,84145	1,58925	354,0456	0,778	88,03	0	1015,52	7,7	9,5	9,4	1	1	1	1	1	1	1	1	1	0	1	-9,584214	275,147111	315,385498	0
15.01.2021	12:22:38	0	63,1028	2,727792	1,81875	347,9652	0,774	88,015	0	1015,38	7,7	9,5	9,4	1	1	1	1	1	1	1	1	1	0	1	-9,302326	275,071638	315,310978	0
15.01.2021	12:22:39	0	62,98552	3,182424	2,1135	5,2092	0,773	87,997	0	1015,42	7,7	9,5	9,4	1	1	1	1	1	1	1	1	1	0	1	-8,315715	274,982395	315,876527	0
15.01.2021	12:22:40	0	63,689281	4,887293	2,22375	350,7984	0,773	88,001	0	1015,34	7,7	9,5	9,4	1	1	1	1	1	1	1	1	1	0	1	-11,980268	275,054384	312,551595	0
15.01.2021	12:22:41	0	63,102835	4,887293	2,14575	341,3376	0,765	88,017	0	1015,3	7,7	9,5	9,4	1	1	1	1	1	1	1	1	1	0	1	-8,45666	275,158142	316,56517	0
15.01.2021	12:22:42	0	63,572012	3,409739	2,139	346,878	0,772	88,008	0	1015,4	7,7	9,5	9,4	1	1	1	1	1	1	1	1	1	0	1	-8,104299	275,065362	316,47938	0
15.01.2021	12:22:43	0	63,102858	4,319002	2,2815	345,7476	0,778	88,021	0	1015,52	7,7	9,5	9,4	1	1	1	1	1	1	1	1	1	0	1	-8,80902	275,159718	316,220257	0
15.01.2021	12:22:44	0	63,572036	4,659976	2,10825	337,9752	0,77	87,995	0	1015,36	7,7	9,5	9,4	1	1	1	1	1	1	1	1	1	0	1	-8,45666	275,084197	316,215929	0
15.01.2021	12:22:45	0	63,454756	4,091686	1,99125	332,4024	0,775	88,008	0	1015,44	7,7	9,5	9,4	1	1	1	1	1	1	1	1	1	0	1	-10,782241	275,010532	313,542714	0
15.01.2021	12:22:46	0	63,337476	4,773633	1,91625	342,0216	0,773	88,014	0	1015,44	7,7	9,5	9,4	1	1	1	1	1	1	1	1	1	0	1	-1,338971	275,088908	323,355861	0
15.01.2021	12:22:47	0	63,220195	2,955106	1,89075	348,2856	0,768	88,007	0	1015,4	7,7	9,5	9,4	1	1	1	1	1	1	1	1	1	0	1	-6,272023	275,018356	318,089839	0
15.01.2021	12:22:48	0	63,689374	5,114606	1,7775	351,036	0,769	88,02	0	1015,34	7,7	9,5	9,4	1	1	1	1	1	1	1	1	1	0	1	-3,100775	275,148686	321,87638	0
15.01.2021	12:22:49	0	63,220218	2,841447	1,812	341,604	0,773	87,998	0	1015,42	7,7	9,5	9,4	1	1	1	1	1	1	1	1	1	0	1	-11,275546	275,060656	313,285921	0
15.01.2021	12:22:50	0	63,219787	4,546315	2,085	342,0072	0,776	88,026	0	1015,54	7,7	9,6	9,4	1	1	1	1	1	1	1	1	1	0	1	-7,963354	275,162871	317,080822	0
15.01.2021	12:22:51	0	63,454825	4,318999	2,28375	329,7888	0,77	88,028	0	1015,54	7,7	9,5	9,4	1	1	1	1	1	1	1	1	1	0	1	-9,44327	275,109338	315,348028	0
15.01.2021	12:22:52	0	62,868378	2,500473	2,442	351,3636	0,775	88,015	0	1015,34	7,7	9,5	9,4	1	1	1	1	1	1	1	1	1	0	1	-5,778717	274,980833	318,406158	0
15.01.2021	12:22:53	0	63,220264	3,864367	2,487	350,6832	0,779	88,014	0	1015,44	7,7	9,5	9,4	1	1	1	1	1	1	1	1	1	0	1	-7,258633	275,015226	317,088464	0
15.01.2021	12:22:54	0	62,8684	2,500473	2,6745	1,548	0,772	88,008	0	1015,44	7,7	9,5	9,4	1	1	1	1	1	1	1	1	1	0	1	-5,919662	275,164448	319,131965	0
15.01.2021	12:22:55	0	63,337579	3,409735	2,7705	352,4328	0,769	88	0	1015,42	7,7	9,5	9,4	1	1	1	1	1	1	1	1	1	0	1	-10,359408	275,087337	314,328009	0
15.01.2021	12:22:56	0	63,220299	3,068761	3,06075	0	0,772	87,987	0	1015,42	7,7	9,5	9,4	1	1	1	1	1	1	1	1	1	0	1	-6,20155	274,985519	318,005426	0
15.01.2021	12:22:57	0	63,22031	4,432655	3,291	4,0788	0,78	87,989	0	1015,48	7,7	9,5	9,4	1	1	1	1	1	1	1	1	1	0	1	-6,906272	274,979271	317,271238	0
15.01.2021	12:22:58	0	63,220321	2,500472	3,411	1,9008	0,768	87,97	0	1015,36	7,7	9,5	9,4	1	1	1	1	1	1	1	1	1	0	1	-9,372798	275,101478	315,381383	0
15.01.2021	12:22:59	0	62,868457	2,614129	3,42375	360	0,769	87,967	0	1015,32	7,7	9,5	9,4	1	1	1	1	1	1	1	1	1	0	1	-3,805497	275,136086	321,112134	0
15.01.2021	12:23:00	0	62,985772	4,432653	3,4665	355,4064	0,78	87,97	0	1015,46	7,7	9,5	9,4	1	1	1	1	1	1	1	1	1	0	1	-11,486963	275,027748	312,91921	0
15.01.2021	12:23:01	0	62,985772	4,432653	3,4665	355,4064	0,78	87,97	0	1015,46	7,7	9,5	9,4	1	1	1	1	1	1	1	1	1	0	1	-7,470049	275,164448	317,581577	0
15.01.2021	12:23:02	0	63,454951	5,000942	3,309	355,0248	0,774	87,94	0	1015,46	7,7	9,5	9,4	1	1	1	1	1	1	1	1	1	0	1	-8,949965	275,090479	315,752283	0
15.01.2021	12:23:03	0	62,985794	4,318995	3,144	356,1912	0,769	87,952	0	1015,38	7,7	9,5	9,4	1	1	1	1	1	1	1	1	1	0	1	-10,077519	274,982395	314,114722	0
15.01.2021	12:23:04	0	62,985806	2,841444	3,147	352,0836	0,769	87,921	0	1015,36	7,7	9,5	9,4	1	1	1	1	1	1	1	1	1	0	1	-9,231853	275,059088	315,322212	0
15.01.2021	12:23:05	0	63,220401	4,887283	3,15675	346,6224	0,767	87,92	0	1015,4	7,7	9,5	9,4	1	1	1	1	1	1	1	1	1	0	1	-6,8358	275,148686	318,141355	0
15.01.2021	12:23:06	0	62,751244	4,546309	3,1095	348,1236	0,77	87,919	0	1015,38	7,7	9,5	9,4	1	1	1	1	1	1	1	1	1	0	1	-6,8358	275,154989	318,171135	0
15.01.2021	12:23:07	0	63,220424	5,00094	3,02325	350,7156	0,772	87,924	0	1015,4	7,7	9,5	9,4	1	1	1	1	1	1	1	1	1	0	1	-11,768851	275,103049	312,992751	0
15.01.2021	12:23:08	0	62,751267	3,864362	3,009	348,3144	0,776	87,91	0	1015,54	7,7	9,5	9,4	1	1	1	1	1	1	1	1	1	0	1	-3,171247	275,158142	321,850582	0
15.01.2021	12:23:09	0	62,985862	3,523389	2,80425	349,0668	0,766	87,883	0	1015,42	7,7	9,5	9,4	1	1	1	1	1	1	1	1	1	0	1	-6,483439	275,129789	318,404447	0
15.01.2021	12:23:10	0	62,985873	4,659965	2,6745	349,416	0,768	87,897	0	1015,48	7,7	9,5	9,4	1	1	1	1	1	1	1	1	1	0	1	-8,033827	275,126641	316,839192	0
15.01.2021	12:23:11	0	62,985884	2,614127	2,5485	349,092	0,765	87,877	0	1015,4	7,7	9,5	9,4	1	1	1	1	1	1	1	1	1	0	1	-5,355884	274,993332	318,88794	0
15.01.2021	12:23:12	0	63,103188	4,659964	2,34375	353,9628	0,765	87,892	0	1015,4	7,7	9,5	9,4	1	1	1	1	1	1	1	1	1	0	1	-5,073996	275,137661	319,851073	0
15.01.2021	12:23:13	0	62,985907	3,182414	2,16375	350,712	0,768	87,875	0	1015,3	7,7	9,5	9,4	1	1	1	1	1	1	1	1	1	0	1	-7,188161	275,038711	317,269741	0
15.01.2021	12:23:14	0	62,985918	4,205333	2,07525	338,3496	0,766	87,864	0	1015,32	7,7	9,5	9,4	1	1	1	1	1	1	1	1	1	0	1	-5,84919	274,982395	318,343052	0
15.01.2021	12:23:15	0	63,220514	2,727783	2,034	333,4356	0,769	87,876	0	1015,42	7,7	9,5	9,4	1	1	1	1	1	1	1	1	1	0	1	-3,664553	275,021486	320,712076	0
15.01.2021	12:23:16	0	62,868648	3,523387	1,91025	349,0884	0,772	87,871	0	1015,46	7,7	9,5	9,4	1	1	1	1	1	1	1	1	1	0	1	-6,412967	275,154989	318,593968	0
15.01.2021	12:23:17	0	62,634075	3,068756	1,84725	330,4656	0,768	87,849	0	1015,3	7,7	9,5	9,4	1	1	1	1	1	1	1	1	1	0	1	-4,933051	275,088908	319,761781	0
15.01.2021	12:23:18	0	62,751378	3,409728	1,839	337,5504	0,768	87,866	0	1015,46	7,7	9,5	9,4	1	1	1	1	1	1	1	1	1	0	1	-2,043693	275,121921	322,80703	0
15.01.2021	12:23:19	0	62,751389	3,182413	1,866	345,2976	0,767	87,847	0	1015,42	7,7	9,5	9,4	1	1	1	1	1	1	1	1	1	0	1	-4,651163	274,993332	319,592662	0
15.01.2021	12:23:20	0	63,103277	4,091673	1,94025	343,188	0,772	87,86	0	1015,38	7,7	9,5	9,4	1	1	1	1	1	1	1	1	1	0	1	-5,285412	275,027748	319,12076	0
15.01.2021	12:23:21	0	62,750972	2,614124	2,18625	356,1768	0,769	87,843	0	1015,46	7,7	9,6	9,4	1	1	1	1	1	1	1	1	1	0	1	-5,567301	275,008968	318,750275	0
15.01.2021	12:23:22	0	62,63413	3,7507	2,39325	345,7152	0,763	87,847	0	1015,46	7,7	9,5	9,4	1	1	1	1	1	1	1	1	1	0	1	-4,510218	275,120347	320,333073	0
15.01.2021	12:23:23	0	63,103311	3,978015	2,5935	357,732	0,763	87,859	0	1015,42	7,7	9,5	9,4	1	1	1	1	1	1	1	1	1	0	1	-4,510218	275,126641	320,3628	0
15.01.2021	12:23:24	0	62,868737	2,841439	2,628	355,8024	0,766	87,857	0	1015,48	7,7	9,5	9,4	1	1	1	1	1	1	1	1	1	0	1	-7,751938	274,982395	316,440304	0
15.01.2021	12:23:25	0	62,868748	2,955096	2,66325	354,024	0,764	87,845	0	1015,26	7,7	9,5	9,4	1	1	1	1	1	1	1	1	1	0	1	-4,510218	275,008968	319,807357	0
15.01.2021	12:23:26	0	63,220636	4,205329	2,5965	356,1336	0,77	87,856	0	1015,4	7,7	9,5	9,4	1	1	1	1	1	1	1	1	1	0	1	-8,80902	275,051248	315,708044	0
15.01.2021	12:23:27	0	63,220648	4,432643	2,427	355,3848	0,768	87,855	0	1015,34	7,7	9,5	9,4	1	1	1	1	1	1	1	1	1	0	1	-10,852713	275,154989	314,154222	0
15.01.2021	12:23:28	0	62,986074	3,978013	2,3175	353,6388	0,762	87,855	0	1015,34	7,7	9,5	9,4	1	1	1	1	1	1	1	1	1	0	1	-10,288936	275,026182	314,10985	0
15.01.2021	12:23:29	0	63,103377	4,659958	2,208	358,4196	0,765	87,844	0	1015,4	7,7	9,5	9,4	1	1	1	1	1	1	1	1	1	0	1	-9,161381	275,120347	315,68191	0
15.01.2021	12:23:30	0	62,986096	4,659957	2,15325	355,3488	0,765	87,867	0	1015,48	7,7	9,5	9,4	1	1	1	1	1	1	1	1	1	0	1	-9,654686	274,980833	314,530189	0
15.01.2021	12:23:31	0	62,868814	2,72778	2,11125	355,7376	0,763	87,851	0	1015,44	7,7	9,5	9,4	1	1	1	1	1	1	1	1	1	0	1	-8,104299	275,018356	316,257562	0
15.01.2021	12:23:32	0	62,751533	2,955094	2,142	354,7152	0,768	87,862	0	1015,42	7,7	9,5	9,4	1	1	1	1	1	1	1	1	1	0	1	-7,610994	275,148686	317,366162	0
15.01.2021	12:23:33	0	62,633812	2,500464	2,10225	360	0,764	87,855	0	1015,38	7,7	9,6	9,4	1	1	1	1	1	1	1	1	1	0	1	-5,708245	275,00584	318,594575	0
15.01.2021	12:23:34	0	62,98614	3,86433	2,09175	356,22	0,767	87,865	0	1015,34	7,7	9,5	9,5	1	1	1	1	1	1	1	1	1	0	1	-6,131078	275,021486	318,24555	0
15.01.2021	12:23:35	0	62,633834	3,750673	2,1285	4,464	0,769	87,874	0	1015,44	7,7	9,6	9,5	1	1	1	1	1	1	1	1	1	0	1	-4,510218	274,979271	319,667292	0
15.01.2021	12:23:36	0	63,103454	3,409723	2,0595	7,11	0,766	87,866	0	1015,42	7,7	9,5	9,4	1	1	1	1	1	1	1	1	1	0	1	-12,403101	275,054384	312,128762	0
15.01.2021	12:23:37	0	62,86888	2,955093	1,94475	0,8604	0,767	87,84	0	1015,5	7,7	9,5	9,4	1	1	1	1	1	1	1	1	1	0	1	-3,664553	275,148686	321,312603	0
15.01.2021	12:23:38	0	63,220769	4,659954	1,9695	7,5024	0,775	87,858	0	1015,5	7,7	9,5	9,4	1	1	1	1	1	1	1	1	1	0	1	-6,553911	275,120347	318,28938	0
15.01.2021	12:23:39	0	63,220337	5,114583	1,91025	7,1316	0,776	87,866	0	1015,52	7,7	9,6	9,4	1	1	1	1	1	1	1	1	1	0	1	-4,721635	274,991769	319,514819	0
15.01.2021	12:23:40	0	63,103498	4,546296	1,78875	7,8912	0,771	87,862	0	1015,4	7,7	9,5	9,4	1	1	1	1	1	1	1	1	1	0	1	-7,963354	275,120347	316,879937	0
15.01.2021	12:23:41	0	63,220802	4,887268	1,69275	355,8636	0,774	87,877	0	1015,52	7,7	9,5	9,4	1	1	1	1	1	1	1	1	1	0	1	-7,258633	274,980833	316,926243	0
15.01.2021	12:23:42	0	62,751642	2,727777	1,58025	3,3948	0,768	87,863	0	1015,34	7,7	9,5	9,4	1	1	1	1	1	1	1	1	1	0	1	-10,782241	275,073207	313,83847	0
15.01.2021	12:23:43	0	62,517067	2,15949	1,52475	11,844	0,772	87,87	0	1015,46	7,7	9,5	9,4	1	1	1	1	1	1	1	1	1	0	1	-5,073996	274,990207	319,155087	0
15.01.2021	12:23:44	0	62,986249	4,091665	1,5255	354,6648	0,768	87,864	0	1015,42	7,7	9,5	9,4	1	1	1	1	1	1	1	1	1	0	1	-9,020437	275,107765	315,763436	0
15.01.2021	12:23:45	0	62,751235	2,955109	1,5585	11,2032	0,77	87,876	0	1015,54	7,7	9,6	9,3	1	1	1	1	1	1	1	1	1	0	1	-11,346018	275,153413	313,653471	0
15.01.2021	12:23:46	0	62,868978	3,637035	1,479	11,1852	0,766	87,865	0	1015,44	7,7	9,5	9,4	1	1	1	1	1	1	1	1	1	0	1	-5,567301	275,034012	318,868427	0
15.01.2021	12:23:47	0	63,103132	5,11458	1,50675	0,1116	0,768	87,857	0	1015,4	7,7	9,6	9,4	1	1	1	1	1	1	1	1	1	0	1	-8,597604	275,153413	316,401885	0
15.01.2021	12:23:48	0	62,985851	2,727776	1,61325	5,6772	0,774	87,872	0	1015,42	7,7	9,6	9,4	1	1	1	1	1	1	1	1	1	0	1	-9,020437	275,059088	315,533628	0
15.01.2021	12:23:49	0	62,634424	2,500461	1,77525	357,6636	0,77	87,857	0	1015,36	7,7	9,5	9,4	1	1	1	1	1	1	1	1	1	0	1	-6,8358	274,991769	317,400654	0
15.01.2021	12:23:50	0	62,751728	3,637034	1,95825	358,344	0,775	87,878	0	1015,54	7,7	9,5	9,4	1	1	1	1	1	1	1	1	1	0	1	-8,668076	275,043412	315,812006	0
15.01.2021	12:23:51	0	62,634007	4,205295	2,04075	350,2872	0,769	87,869	0	1015,4	7,7	9,6	9,5	1	1	1	1	1	1	1	1	1	0	1	-8,386187	275,139235	316,54632	0
15.01.2021	12:23:52	0	62,985895	4,318977	1,9965	350,3124	0,769	87,874	0	1015,48	7,7	9,6	9,4	1	1	1	1	1	1	1	1	1	0	1	-2,818887	275,029314	321,594674	0
15.01.2021	12:23:53	0	62,634467	2,386803	2,0655	358,6968	0,769	87,877	0	1015,38	7,7	9,5	9,4	1	1	1	1	1	1	1	1	1	0	1	-7,963354	274,998022	316,302588	0
15.01.2021	12:23:54	0	62,869064	4,659948	2,2365	0,6624	0,771	87,884	0	1015,5	7,7	9,5	9,4	1	1	1	1	1	1	1	1	1	0	1	-8,45666	275,151838	316,535384	0
15.01.2021	12:23:55	0	62,751342	4,54629	2,35875	3,7692	0,771	87,881	0	1015,44	7,7	9,6	9,4	1	1	1	1	1	1	1	1	1	0	1	-12,684989	275,066931	311,906094	0
15.01.2021	12:23:56	0	62,869086	3,978004	2,346	5,67	0,774	87,889	0	1015,46	7,7	9,5	9,4	1	1	1	1	1	1	1	1	1	0	1	-4,580691	274,979271	319,59682	0
15.01.2021	12:23:57	0	62,868656	4,546289	2,2815	359,9388	0,772	87,897	0	1015,48	7,7	9,6	9,4	1	1	1	1	1	1	1	1	1	0	1	-5,990134	275,052816	318,534329	0
15.01.2021	12:23:58	0	62,634082	3,637031	2,2845	1,1736	0,777	87,887	0	1015,4	7,7	9,6	9,4	1	1	1	1	1	1	1	1	1	0	1	-2,255109	275,169179	322,818873	0
15.01.2021	12:23:59	0	62,634093	3,068745	2,24025	4,4676	0,768	87,908	0	1015,48	7,7	9,6	9,4	1	1	1	1	1	1	1	1	1	0	1	-5,990134	275,103049	318,771469	0
15.01.2021	12:24:00	0	62,751407	3,864345	2,25075	7,5024	0,772	87,907	0	1015,54	7,7	9,6	9,4	1	1	1	1	1	1	1	1	1	0	1	-7,047216	274,983957	317,152392	0
15.01.2021	12:24:01	0	62,751407	3,864345	2,25075	7,5024	0,772	87,907	0	1015,54	7,7	9,6	9,4	1	1	1	1	1	1	1	1	1	0	1	-10,923185	275,05752	313,623478	0
15.01.2021	12:24:02	0	62,634125	4,205316	2,2395	13,4064	0,774	87,908	0	1015,38	7,7	9,6	9,4	1	1	1	1	1	1	1	1	1	0	1	-8,668076	275,147111	316,301636	0
15.01.2021	12:24:03	0	62,634135	3,068725	2,094	6,4332	0,779	87,905	0	1015,42	7,7	9,6	9,5	1	1	1	1	1	1	1	1	1	0	1	-5,355884	274,985519	318,851092	0
15.01.2021	12:24:04	0	62,399998	3,523351	1,98375	4,0824	0,779	87,901	0	1015,6	7,7	9,5	9,5	1	1	1	1	1	1	1	1	1	0	1	-5,708245	275,048113	318,794024	0
15.01.2021	12:24:05	0	62,282279	3,068743	1,8855	12,4704	0,771	87,921	0	1015,38	7,7	9,6	9,4	1	1	1	1	1	1	1	1	1	0	1	-7,82241	274,990207	316,406673	0
15.01.2021	12:24:06	0	62,634606	4,546286	1,7745	345,8628	0,773	87,919	0	1015,48	7,7	9,5	9,4	1	1	1	1	1	1	1	1	1	0	1	-10,007047	275,087337	314,680369	0
15.01.2021	12:24:07	0	62,634617	3,296057	1,82925	2,3112	0,774	87,916	0	1015,46	7,7	9,5	9,4	1	1	1	1	1	1	1	1	1	0	1	-4,157858	275,162871	320,886318	0
15.01.2021	12:24:08	0	62,75192	4,432602	1,779	347,6808	0,78	87,906	0	1015,42	7,7	9,5	9,5	1	1	1	1	1	1	1	1	1	0	1	-6,906272	275,126641	317,966747	0
15.01.2021	12:24:09	0	62,517344	2,500442	1,70325	6,4224	0,767	87,912	0	1015,32	7,7	9,5	9,5	1	1	1	1	1	1	1	1	1	0	1	-7,470049	274,993332	316,773775	0
15.01.2021	12:24:10	0	62,517355	2,045828	1,5285	4,194	0,774	87,907	0	1015,42	7,7	9,5	9,4	1	1	1	1	1	1	1	1	1	0	1	-5,21494	275,043412	319,265142	0
15.01.2021	12:24:11	0	62,634659	3,296056	1,35825	3,006	0,779	87,921	0	1015,52	7,7	9,5	9,4	1	1	1	1	1	1	1	1	1	0	1	-8,668076	275,159718	316,361201	0
15.01.2021	12:24:12	0	63,220693	4,887255	1,257	1,1772	0,773	87,913	0	1015,36	7,7	9,6	9,4	1	1	1	1	1	1	1	1	1	0	1	-5,355884	275,051248	319,16118	0
15.01.2021	12:24:13	0	62,400093	3,864341	1,22475	358,758	0,776	87,912	0	1015,36	7,7	9,5	9,4	1	1	1	1	1	1	1	1	1	0	1	-10,288936	275,170756	314,7925	0
15.01.2021	12:24:14	0	62,63469	3,637005	1,26	0,1296	0,777	87,916	0	1015,54	7,7	9,5	9,5	1	1	1	1	1	1	1	1	1	0	1	-10,147992	275,055952	314,391271	0
15.01.2021	12:24:15	0	62,98614	4,773597	1,323	349,11	0,768	87,915	0	1015,32	7,7	9,6	9,4	1	1	1	1	1	1	1	1	1	0	1	-8,879493	275,164448	316,172134	0
15.01.2021	12:24:16	0	62,868858	3,637026	1,4235	344,6496	0,765	87,909	0	1015,36	7,7	9,6	9,4	1	1	1	1	1	1	1	1	1	0	1	-6,412967	275,062225	318,155903	0
15.01.2021	12:24:17	0	62,634283	3,068722	1,44075	349,9056	0,775	87,904	0	1015,54	7,7	9,6	9,5	1	1	1	1	1	1	1	1	1	0	1	-4,22833	275,167602	320,8382	0
15.01.2021	12:24:18	0	62,634732	4,773596	1,482	345,3336	0,775	87,91	0	1015,4	7,7	9,5	9,4	1	1	1	1	1	1	1	1	1	0	1	-3,805497	275,153413	321,193992	0
15.01.2021	12:24:19	0	62,751597	4,20531	1,4835	353,9484	0,77	87,904	0	1015,52	7,7	9,6	9,4	1	1	1	1	1	1	1	1	1	0	1	-4,510218	275,131363	320,385103	0
15.01.2021	12:24:20	0	62,517022	3,977996	1,53225	2,6316	0,778	87,914	0	1015,38	7,7	9,6	9,4	1	1	1	1	1	1	1	1	1	0	1	-6,906272	275,004276	317,389171	0
15.01.2021	12:24:21	0	62,986203	3,750681	1,58175	0,8424	0,767	87,888	0	1015,34	7,7	9,6	9,4	1	1	1	1	1	1	1	1	1	0	1	-3,664553	275,023051	320,719461	0
15.01.2021	12:24:22	0	62,634335	4,091652	1,58925	9,3672	0,776	87,892	0	1015,38	7,7	9,6	9,4	1	1	1	1	1	1	1	1	1	0	1	-5,990134	275,159718	319,039143	0
15.01.2021	12:24:23	0	62,517053	3,182396	1,5645	9,3672	0,775	87,924	0	1015,4	7,7	9,6	9,4	1	1	1	1	1	1	1	1	1	0	1	-8,879493	275,081056	315,77827	0
15.01.2021	12:24:24	0	62,282478	2,727768	1,57125	10,4436	0,777	87,911	0	1015,58	7,7	9,6	9,4	1	1	1	1	1	1	1	1	1	0	1	-6,624383	275,004276	317,67106	0
15.01.2021	12:24:25	0	62,399781	2,841407	1,51275	12,0852	0,767	87,9	0	1015,42	7,7	9,6	9,5	1	1	1	1	1	1	1	1	1	0	1	-8,245243	275,055952	316,29402	0
15.01.2021	12:24:26	0	62,634377	3,864337	1,5	9,36	0,772	87,926	0	1015,52	7,7	9,6	9,4	1	1	1	1	1	1	1	1	1	0	1	-11,06413	275,169179	314,009852	0
15.01.2021	12:24:27	0	62,986266	4,318939	1,518	16,0992	0,768	87,904	0	1015,5	7,7	9,6	9,5	1	1	1	1	1	1	1	1	1	0	1	-9,231853	275,137661	315,693216	0
15.01.2021	12:24:28	0	62,517105	3,977969	1,47975	13,158	0,772	87,918	0	1015,48	7,7	9,6	9,5	1	1	1	1	1	1	1	1	1	0	1	-9,231853	275,131363	315,663468	0
15.01.2021	12:24:29	0	62,751701	4,432594	1,4205	15,3972	0,776	87,919	0	1015,42	7,7	9,6	9,5	1	1	1	1	1	1	1	1	1	0	1	-5,144468	275,153413	319,855021	0
15.01.2021	12:24:30	0	62,752151	4,205281	1,452	11,1996	0,777	87,899	0	1015,44	7,7	9,5	9,5	1	1	1	1	1	1	1	1	1	0	1	-12,262156	275,137661	312,662913	0
15.01.2021	12:24:31	0	62,634429	3,523365	1,5525	16,578	0,777	87,927	0	1015,56	7,7	9,6	9,4	1	1	1	1	1	1	1	1	1	0	1	-12,191684	275,129789	312,696202	0
15.01.2021	12:24:32	0	62,517146	4,091649	1,68525	16,4772	0,769	87,93	0	1015,48	7,7	9,6	9,4	1	1	1	1	1	1	1	1	1	0	1	-10,923185	275,008968	313,394391	0
15.01.2021	12:24:33	0	62,751742	4,659905	1,82325	12,456	0,773	87,912	0	1015,5	7,7	9,6	9,5	1	1	1	1	1	1	1	1	1	0	1	-8,033827	275,114055	316,77975	0
15.01.2021	12:24:34	0	62,63446	4,091648	1,88175	19,152	0,778	87,937	0	1015,52	7,6	9,6	9,4	1	1	1	1	1	1	1	1	1	0	1	-8,174771	275,175489	316,929029	0
15.01.2021	12:24:35	0	62,869056	5,341842	1,854	22,8204	0,78	87,909	0	1015,52	7,7	9,6	9,5	1	1	1	1	1	1	1	1	1	0	1	-4,721635	275,153413	320,277854	0
15.01.2021	12:24:36	0	62,517187	4,432592	1,7775	13,1616	0,778	87,924	0	1015,5	7,7	9,6	9,5	1	1	1	1	1	1	1	1	1	0	1	-7,540521	275,103049	317,221081	0
15.01.2021	12:24:37	0	62,751784	4,546275	1,76025	16,8696	0,775	87,927	0	1015,46	7,7	9,6	9,4	1	1	1	1	1	1	1	1	1	0	1	-4,298802	275,004276	319,996641	0
15.01.2021	12:24:38	0	62,517208	3,86431	1,845	8,3556	0,777	87,925	0	1015,54	7,7	9,6	9,5	1	1	1	1	1	1	1	1	1	0	1	-6,342495	275,063793	318,233779	0
15.01.2021	12:24:39	0	62,517218	4,318934	1,74075	27,9792	0,775	87,921	0	1015,34	7,7	9,6	9,5	1	1	1	1	1	1	1	1	1	0	1	-5,919662	275,150262	319,064937	0
15.01.2021	12:24:40	0	62,282642	2,727748	1,7625	353,6964	0,781	87,93	0	1015,46	7,7	9,6	9,5	1	1	1	1	1	1	1	1	1	0	1	-4,933051	275,040278	319,532243	0
15.01.2021	12:24:41	0	62,517676	3,978013	1,95975	8,2728	0,78	87,942	0	1015,6	7,7	9,5	9,3	1	1	1	1	1	1	1	1	1	0	1	-6,976744	275,112483	317,829405	0
15.01.2021	12:24:42	0	62,283099	2,841438	2,094	3,7872	0,782	87,935	0	1015,44	7,7	9,5	9,3	1	1	1	1	1	1	1	1	1	0	1	-9,513742	275,170756	315,567693	0
15.01.2021	12:24:43	0	62,517259	4,205277	2,1555	4,8276	0,784	87,934	0	1015,5	7,7	9,6	9,5	1	1	1	1	1	1	1	1	1	0	1	-3,523608	275,048113	320,978662	0
15.01.2021	12:24:44	0	62,751855	4,546245	2,043	355,014	0,783	87,922	0	1015,5	7,7	9,6	9,5	1	1	1	1	1	1	1	1	1	0	1	-6,20155	274,991769	318,034903	0
15.01.2021	12:24:45	0	62,634572	3,409683	1,926	10,4472	0,787	87,942	0	1015,5	7,7	9,6	9,5	1	1	1	1	1	1	1	1	1	0	1	-10,288936	275,132937	314,613821	0
15.01.2021	12:24:46	0	62,282703	4,432588	1,76025	4,4532	0,785	87,934	0	1015,52	7,7	9,6	9,5	1	1	1	1	1	1	1	1	1	0	1	-9,725159	275,170756	315,356277	0
15.01.2021	12:24:47	0	62,5173	4,773556	1,6815	1,5552	0,784	87,925	0	1015,48	7,7	9,6	9,5	1	1	1	1	1	1	1	1	1	0	1	-6,553911	275,09205	318,155754	0
15.01.2021	12:24:48	0	62,400016	4,432587	1,71675	18,0792	0,782	87,909	0	1015,42	7,7	9,6	9,5	1	1	1	1	1	1	1	1	1	0	1	-7,047216	275,172334	318,041673	0
15.01.2021	12:24:49	0	62,282733	3,068733	1,764	16,4736	0,785	87,922	0	1015,46	7,7	9,6	9,4	1	1	1	1	1	1	1	1	1	0	1	-8,45666	275,099906	316,2901	0
15.01.2021	12:24:50	0	62,282743	3,296026	1,7745	16,4736	0,781	87,896	0	1015,42	7,7	9,6	9,5	1	1	1	1	1	1	1	1	1	0	1	-6,342495	274,994895	317,908702	0
15.01.2021	12:24:51	0	62,51734	3,523338	1,81425	10,0584	0,779	87,918	0	1015,52	7,7	9,6	9,5	1	1	1	1	1	1	1	1	1	0	1	-4,369274	275,106193	320,407175	0
15.01.2021	12:24:52	0	62,282763	2,727762	1,8015	16,4808	0,78	87,911	0	1015,34	7,7	9,6	9,4	1	1	1	1	1	1	1	1	1	0	1	-9,020437	275,178645	316,098276	0
15.01.2021	12:24:53	0	62,751947	4,205274	1,92375	19,9836	0,774	87,908	0	1015,52	7,7	9,6	9,5	1	1	1	1	1	1	1	1	1	0	1	-5,144468	275,087337	319,542949	0
15.01.2021	12:24:54	0	62,51737	4,659925	2,025	9,756	0,784	87,916	0	1015,46	7,7	9,6	9,4	1	1	1	1	1	1	1	1	1	0	1	-3,875969	274,996458	320,3826	0
15.01.2021	12:24:55	0	62,51738	5,114521	2,1525	7,866	0,78	87,906	0	1015,46	7,7	9,6	9,5	1	1	1	1	1	1	1	1	1	0	1	-5,426357	275,077916	319,216583	0
15.01.2021	12:24:56	0	62,400097	4,659925	2,283	6,4332	0,781	87,912	0	1015,46	7,7	9,6	9,4	1	1	1	1	1	1	1	1	1	0	1	-3,875969	275,167602	321,19056	0
15.01.2021	12:24:57	0	62,282814	3,068712	2,31375	10,8144	0,788	87,91	0	1015,5	7,7	9,6	9,5	1	1	1	1	1	1	1	1	1	0	1	-8,527132	275,048113	315,975138	0
15.01.2021	12:24:58	0	62,400117	3,86435	2,28	1,9188	0,781	87,914	0	1015,52	7,7	9,6	9,3	1	1	1	1	1	1	1	1	1	0	1	-8,45666	275,173911	316,639685	0
15.01.2021	12:24:59	0	62,400127	2,614088	2,22075	10,8	0,784	87,907	0	1015,66	7,7	9,6	9,5	1	1	1	1	1	1	1	1	1	0	1	-7,258633	275,121921	317,592089	0
15.01.2021	12:25:00	0	62,282854	2,727743	2,2875	11,7072	0,787	87,895	0	1015,48	7,7	9,6	9,5	1	1	1	1	1	1	1	1	1	0	1	-4,651163	275,164448	320,400464	0
15.01.2021	12:25:01	0	62,282854	2,727743	2,2875	11,7072	0,787	87,895	0	1015,48	7,7	9,6	9,5	1	1	1	1	1	1	1	1	1	0	1	-5,496829	275,126641	319,37619	0
15.01.2021	12:25:02	0	62,16557	4,318978	2,4255	10,4436	0,787	87,894	0	1015,54	7,7	9,6	9,3	1	1	1	1	1	1	1	1	1	0	1	-10,147992	275,169179	314,925991	0
15.01.2021	12:25:03	0	62,634754	2,500431	2,5035	9,7488	0,784	87,895	0	1015,46	7,7	9,6	9,5	1	1	1	1	1	1	1	1	1	0	1	-10,500352	275,024617	313,891047	0
15.01.2021	12:25:04	0	62,282883	3,296022	2,5575	5,6844	0,78	87,892	0	1015,34	7,7	9,6	9,5	1	1	1	1	1	1	1	1	1	0	1	-8,668076	275,132937	316,234681	0
15.01.2021	12:25:05	0	62,634774	4,887264	2,50725	360	0,784	87,885	0	1015,44	7,7	9,6	9,3	1	1	1	1	1	1	1	1	1	0	1	-5,778717	275,148686	319,198438	0
15.01.2021	12:25:06	0	62,51749	4,318925	2,4735	13,1652	0,782	87,871	0	1015,5	7,7	9,6	9,5	1	1	1	1	1	1	1	1	1	0	1	-6,906272	275,145535	318,055998	0
15.01.2021	12:25:07	0	62,634794	3,864301	2,403	7,1316	0,783	87,889	0	1015,46	7,7	9,6	9,5	1	1	1	1	1	1	1	1	1	0	1	-6,553911	275,172334	318,534978	0
15.01.2021	12:25:08	0	62,282923	2,727742	2,24775	11,1996	0,785	87,874	0	1015,42	7,7	9,6	9,5	1	1	1	1	1	1	1	1	1	0	1	-7,610994	275,175489	317,492806	0
15.01.2021	12:25:09	0	62,752108	5,00089	2,23275	6,0552	0,786	87,871	0	1015,4	7,7	9,6	9,4	1	1	1	1	1	1	1	1	1	0	1	-8,104299	275,112483	316,701851	0
15.01.2021	12:25:10	0	62,51753	4,43258	2,334	4,4532	0,779	87,886	0	1015,5	7,7	9,6	9,5	1	1	1	1	1	1	1	1	1	0	1	-7,258633	274,985519	316,948343	0
15.01.2021	12:25:11	0	62,752128	4,432633	2,4195	8,622	0,781	87,841	0	1015,48	7,7	9,6	9,3	1	1	1	1	1	1	1	1	1	0	1	-5,637773	275,153413	319,361716	0
15.01.2021	12:25:12	0	62,400256	3,636988	2,3055	359,8668	0,784	87,852	0	1015,6	7,7	9,6	9,5	1	1	1	1	1	1	1	1	1	0	1	-4,651163	275,123494	320,206991	0
15.01.2021	12:25:13	0	62,51756	4,546235	2,11425	346,608	0,769	87,851	0	1015,3	7,7	9,6	9,5	1	1	1	1	1	1	1	1	1	0	1	-8,949965	275,184957	316,198584	0
15.01.2021	12:25:14	0	62,869451	4,773546	1,986	360	0,785	87,864	0	1015,56	7,7	9,6	9,5	1	1	1	1	1	1	1	1	1	0	1	-6,20155	275,032446	318,226788	0
15.01.2021	12:25:15	0	62,400286	3,068745	1,90425	342,054	0,777	87,853	0	1015,32	7,7	9,6	9,3	1	1	1	1	1	1	1	1	1	0	1	-10,782241	275,021486	313,594388	0
15.01.2021	12:25:16	0	62,634883	4,432604	1,89975	346,5	0,784	87,845	0	1015,4	7,7	9,6	9,4	1	1	1	1	1	1	1	1	1	0	1	-12,896406	275,040278	311,568889	0
15.01.2021	12:25:17	0	62,283012	3,523373	1,94475	351,0288	0,782	87,855	0	1015,46	7,7	9,6	9,3	1	1	1	1	1	1	1	1	1	0	1	-7,751938	275,001149	316,528753	0
15.01.2021	12:25:18	0	62,400315	3,636986	2,04675	0,108	0,78	87,855	0	1015,44	7,7	9,6	9,5	1	1	1	1	1	1	1	1	1	0	1	-4,580691	274,84852	318,980684	0
15.01.2021	12:25:19	0	62,752207	4,546233	2,151	355,3632	0,784	87,857	0	1015,4	7,7	9,6	9,5	1	1	1	1	1	1	1	1	1	0	1	-3,875969	275,032446	320,552369	0
15.01.2021	12:25:20	0	62,400335	4,546232	2,1795	357,5952	0,781	87,856	0	1015,26	7,7	9,6	9,5	1	1	1	1	1	1	1	1	1	0	1	-9,302326	275,170756	315,77911	0
15.01.2021	12:25:21	0	62,634933	4,432576	2,17425	355,0104	0,782	87,855	0	1015,46	7,7	9,6	9,5	1	1	1	1	1	1	1	1	1	0	1	-8,245243	275,128215	316,635209	0
15.01.2021	12:25:22	0	62,400355	3,068706	2,2545	358,3656	0,784	87,86	0	1015,48	7,7	9,6	9,5	1	1	1	1	1	1	1	1	1	0	1	-9,795631	275,016791	314,558848	0
15.01.2021	12:25:23	0	62,634952	4,546286	2,316	349,8912	0,779	87,845	0	1015,4	7,7	9,6	9,3	1	1	1	1	1	1	1	1	1	0	1	-4,933051	275,073207	319,68766	0
15.01.2021	12:25:24	0	62,752256	3,864296	2,265	342,414	0,783	87,863	0	1015,5	7,7	9,6	9,5	1	1	1	1	1	1	1	1	1	0	1	-6,976744	275,162871	318,067432	0
15.01.2021	12:25:25	0	62,048502	2,95505	2,30775	341,2332	0,787	87,87	0	1015,48	7,7	9,6	9,5	1	1	1	1	1	1	1	1	1	0	1	-6,8358	275,021486	317,540829	0
15.01.2021	12:25:26	0	62,400394	3,296017	2,448	343,9296	0,776	87,87	0	1015,36	7,7	9,6	9,5	1	1	1	1	1	1	1	1	1	0	1	-9,090909	275,115628	315,730095	0
15.01.2021	12:25:27	0	62,283109	3,409672	2,48175	343,5732	0,785	87,873	0	1015,48	7,7	9,6	9,5	1	1	1	1	1	1	1	1	1	0	1	-7,329105	275,007404	316,981093	0
15.01.2021	12:25:28	0	62,635001	2,955049	2,463	343,4796	0,782	87,876	0	1015,42	7,7	9,6	9,5	1	1	1	1	1	1	1	1	1	0	1	-6,694856	275,128215	318,185597	0
15.01.2021	12:25:29	0	62,400423	2,955049	2,33625	343,1412	0,785	87,894	0	1015,64	7,7	9,6	9,5	1	1	1	1	1	1	1	1	1	0	1	-7,258633	275,191272	317,919763	0
15.01.2021	12:25:30	0	62,63502	4,318943	2,295	347,5692	0,781	87,877	0	1015,4	7,7	9,6	9,4	1	1	1	1	1	1	1	1	1	0	1	-7,470049	275,120347	317,373242	0
15.01.2021	12:25:31	0	62,283148	2,955049	2,181	343,53	0,786	87,885	0	1015,4	7,7	9,6	9,5	1	1	1	1	1	1	1	1	1	0	1	-6,694856	275,007404	317,615342	0
15.01.2021	12:25:32	0	62,165864	4,205261	2,27325	351,0144	0,782	87,868	0	1015,3	7,7	9,6	9,5	1	1	1	1	1	1	1	1	1	0	1	-7,117689	275,063793	317,458586	0
15.01.2021	12:25:33	0	62,63505	4,318916	2,307	3,3732	0,789	87,89	0	1015,38	7,7	9,6	9,5	1	1	1	1	1	1	1	1	1	0	1	-7,892882	275,172334	317,196007	0
15.01.2021	12:25:34	0	62,400471	3,068704	2,187	359,5212	0,785	87,894	0	1015,46	7,7	9,6	9,5	1	1	1	1	1	1	1	1	1	0	1	-7,82241	275,041845	316,650278	0
15.01.2021	12:25:35	0	62,400481	3,40967	2,145	352,5876	0,786	87,878	0	1015,3	7,7	9,6	9,5	1	1	1	1	1	1	1	1	1	0	1	-7,188161	275,027748	317,218012	0
15.01.2021	12:25:36	0	62,517784	2,955047	2,1075	355,824	0,782	87,888	0	1015,5	7,7	9,6	9,5	1	1	1	1	1	1	1	1	1	0	1	-2,396054	275,137661	322,529015	0
15.01.2021	12:25:37	0	62,635088	4,659882	2,127	346,5252	0,787	87,882	0	1015,46	7,7	9,6	9,5	1	1	1	1	1	1	1	1	1	0	1	-7,610994	275,118774	317,224868	0
15.01.2021	12:25:38	0	62,517804	5,114504	2,14725	352,8792	0,78	87,88	0	1015,44	7,7	9,6	9,5	1	1	1	1	1	1	1	1	1	0	1	-5,496829	275,177067	319,614427	0
15.01.2021	12:25:39	0	62,517813	4,43257	2,034	337,2012	0,781	87,866	0	1015,42	7,7	9,6	9,5	1	1	1	1	1	1	1	1	1	0	1	-2,466526	275,107765	322,317347	0
15.01.2021	12:25:40	0	62,048646	2,386768	1,9065	347,9472	0,781	87,852	0	1015,42	7,7	9,6	9,5	1	1	1	1	1	1	1	1	1	0	1	-4,157858	275,180223	320,968313	0
15.01.2021	12:25:41	0	62,635127	4,432569	1,83	352,8072	0,781	87,88	0	1015,42	7,7	9,6	9,5	1	1	1	1	1	1	1	1	1	0	1	-6,624383	275,114055	318,189193	0
15.01.2021	12:25:42	0	62,283254	4,65988	1,908	339,0984	0,783	87,87	0	1015,44	7,7	9,6	9,5	1	1	1	1	1	1	1	1	1	0	1	-9,231853	274,996458	315,026716	0
15.01.2021	12:25:43	0	62,517852	3,864291	2,00025	347,994	0,782	87,856	0	1015,42	7,7	9,6	9,5	1	1	1	1	1	1	1	1	1	0	1	-0,634249	275,11091	324,164474	0
15.01.2021	12:25:44	0	62,048684	2,614079	2,02725	0,1116	0,786	87,845	0	1015,42	7,7	9,6	9,5	1	1	1	1	1	1	1	1	1	0	1	-6,765328	275,184957	318,383221	0
15.01.2021	12:25:45	0	62,400576	4,887191	1,98225	347,2236	0,784	87,859	0	1015,4	7,7	9,6	9,5	1	1	1	1	1	1	1	1	1	0	1	-7,82241	275,085767	316,857592	0
15.01.2021	12:25:46	0	62,283292	3,636979	2,031	357,21	0,787	87,844	0	1015,44	7,7	9,6	9,5	1	1	1	1	1	1	1	1	1	0	1	-6,553911	275,180223	318,57226	0
15.01.2021	12:25:47	0	62,048712	3,182356	2,172	352,4724	0,781	87,839	0	1015,36	7,7	9,6	9,5	1	1	1	1	1	1	1	1	1	0	1	-8,949965	275,05752	315,596699	0
15.01.2021	12:25:48	0	62,400605	5,114501	2,4315	352,7208	0,78	87,838	0	1015,44	7,7	9,6	9,5	1	1	1	1	1	1	1	1	1	0	1	-2,818887	274,999585	321,45443	0
15.01.2021	12:25:49	0	62,166026	4,887189	2,53725	2,286	0,775	87,821	0	1015,38	7,7	9,6	9,5	1	1	1	1	1	1	1	1	1	0	1	-11,346018	275,112483	313,460131	0
15.01.2021	12:25:50	0	62,517918	4,546277	2,48025	358,6932	0,783	87,807	0	1015,38	7,7	9,6	9,3	1	1	1	1	1	1	1	1	1	0	1	-10,782241	275,169179	314,291741	0
15.01.2021	12:25:51	0	62,283339	4,432566	2,2665	353,2536	0,783	87,818	0	1015,46	7,7	9,6	9,5	1	1	1	1	1	1	1	1	1	0	1	-5,567301	275,109338	319,223997	0
15.01.2021	12:25:52	0	62,166054	4,091599	2,02575	348,2496	0,784	87,825	0	1015,4	7,7	9,6	9,5	1	1	1	1	1	1	1	1	1	0	1	-2,818887	275,191272	322,359509	0
15.01.2021	12:25:53	0	62,166064	2,841388	1,866	13,1508	0,778	87,806	0	1015,32	7,7	9,6	9,5	1	1	1	1	1	1	1	1	1	0	1	-7,117689	275,076347	317,517841	0
15.01.2021	12:25:54	0	62,517956	4,659904	1,782	355,1184	0,78	87,829	0	1015,4	7,7	9,6	9,4	1	1	1	1	1	1	1	1	1	0	1	-8,315715	275,175489	316,788085	0
15.01.2021	12:25:55	0	62,166082	3,182392	1,59225	356,5296	0,779	87,819	0	1015,48	7,7	9,6	9,3	1	1	1	1	1	1	1	1	1	0	1	-5,426357	275,038711	319,031545	0
15.01.2021	12:25:56	0	61,931503	3,182392	1,50675	7,992	0,781	87,829	0	1015,56	7,7	9,6	9,3	1	1	1	1	1	1	1	1	1	0	1	-8,949965	275,0685	315,648525	0
15.01.2021	12:25:57	0	62,40069	4,659875	1,54575	340,2576	0,775	87,821	0	1015,44	7,7	9,6	9,5	1	1	1	1	1	1	1	1	1	0	1	-5,496829	275,184957	319,65172	0
15.01.2021	12:25:58	0	62,283405	4,546219	1,71975	352,134	0,775	87,805	0	1015,18	7,7	9,6	9,5	1	1	1	1	1	1	1	1	1	0	1	-2,818887	275,099906	321,927873	0
15.01.2021	12:25:59	0	61,931531	3,296048	1,96125	350,6724	0,786	87,829	0	1015,52	7,7	9,6	9,3	1	1	1	1	1	1	1	1	1	0	1	-9,161381	275,013661	315,178334	0
15.01.2021	12:26:00	0	62,166139	3,068697	2,2485	344,0448	0,775	87,815	0	1015,42	7,7	9,6	9,5	1	1	1	1	1	1	1	1	1	0	1	-8,879493	275,101478	315,874688	0
15.01.2021	12:26:01	0	62,166139	3,068697	2,2485	344,0448	0,775	87,815	0	1015,42	7,7	9,6	9,5	1	1	1	1	1	1	1	1	1	0	1	-9,513742	275,001149	314,766949	0
15.01.2021	12:26:02	0	61,814264	3,296008	2,32875	358,7112	0,779	87,867	0	1015,76	7,7	9,6	9,5	1	1	1	1	1	1	1	1	1	0	1	-6,694856	275,128215	318,185597	0
15.01.2021	12:26:03	0	61,814273	3,977941	2,37525	353,9448	0,784	87,823	0	1015,46	7,7	9,6	9,5	1	1	1	1	1	1	1	1	1	0	1	-5,778717	275,013661	318,560998	0
15.01.2021	12:26:04	0	61,931577	3,864285	2,44275	351,4428	0,779	87,836	0	1015,66	7,7	9,6	9,5	1	1	1	1	1	1	1	1	1	0	1	-9,584214	275,114055	315,229362	0
15.01.2021	12:26:05	0	62,166176	4,659928	2,55525	346,5252	0,781	87,834	0	1015,42	7,7	9,6	9,3	1	1	1	1	1	1	1	1	1	0	1	-8,668076	275,018356	315,693785	0
15.01.2021	12:26:06	0	62,166185	3,864284	2,5845	338,7924	0,782	87,823	0	1015,36	7,7	9,6	9,5	1	1	1	1	1	1	1	1	1	0	1	-8,80902	275,076347	315,826509	0
15.01.2021	12:26:07	0	61,579721	2,72773	2,77125	354,0528	0,777	87,816	0	1015,52	7,7	9,6	9,5	1	1	1	1	1	1	1	1	1	0	1	-7,329105	275,175489	317,774695	0
15.01.2021	12:26:08	0	62,048909	4,773527	2,93025	348,4368	0,781	87,834	0	1015,52	7,7	9,6	9,5	1	1	1	1	1	1	1	1	1	0	1	-4,157858	275,103049	320,603745	0
15.01.2021	12:26:09	0	62,048918	4,205275	2,9895	355,3992	0,779	87,823	0	1015,38	7,7	9,6	9,4	1	1	1	1	1	1	1	1	1	0	1	-4,933051	275,181801	320,200578	0
15.01.2021	12:26:10	0	62,048927	4,773526	3,0135	351,7272	0,779	87,839	0	1015,42	7,7	9,6	9,5	1	1	1	1	1	1	1	1	1	0	1	-5,21494	275,109338	319,576357	0
15.01.2021	12:26:11	0	61,227873	2,386763	2,949	359,1144	0,78	87,837	0	1015,42	7,7	9,6	9,5	1	1	1	1	1	1	1	1	1	0	1	-4,933051	275,167602	320,133478	0
15.01.2021	12:26:12	0	61,814356	4,432559	3,02775	6,4296	0,779	87,826	0	1015,48	7,7	9,6	9,5	1	1	1	1	1	1	1	1	1	0	1	-4,157858	275,040278	320,307437	0
15.01.2021	12:26:13	0	61,697071	3,864282	2,82	13,914	0,784	87,839	0	1015,34	7,7	9,6	9,5	1	1	1	1	1	1	1	1	1	0	1	-4,580691	275,026182	319,818095	0
15.01.2021	12:26:14	0	61,69708	3,068731	2,631	15,012	0,775	87,834	0	1015,42	7,6	9,6	9,3	1	1	1	1	1	1	1	1	1	0	1	-11,06413	275,169179	314,009852	0
15.01.2021	12:26:15	0	61,345204	2,500448	2,4885	2,6424	0,781	87,844	0	1015,52	7,7	9,6	9,3	1	1	1	1	1	1	1	1	1	0	1	-7,329105	275,191272	317,849291	0
15.01.2021	12:26:16	0	61,697098	4,546213	2,39325	8,262	0,781	87,834	0	1015,54	7,7	9,6	9,5	1	1	1	1	1	1	1	1	1	0	1	-8,668076	275,151838	316,323967	0
15.01.2021	12:26:17	0	61,345222	3,40966	2,27775	0,8712	0,776	87,843	0	1015,48	7,7	9,6	9,5	1	1	1	1	1	1	1	1	1	0	1	-5,990134	275,186536	319,165876	0
15.01.2021	12:26:18	0	61,462526	3,637014	2,22	343,1556	0,776	87,821	0	1015,52	7,7	9,6	9,3	1	1	1	1	1	1	1	1	1	0	1	-11,06413	275,0685	313,53436	0
15.01.2021	12:26:19	0	61,697125	4,091591	2,5155	351,1404	0,783	87,832	0	1015,5	7,7	9,6	9,5	1	1	1	1	1	1	1	1	1	0	1	-8,668076	275,19759	316,540179	0
15.01.2021	12:26:20	0	61,345249	3,977936	2,8515	1,1556	0,778	87,839	0	1015,42	7,7	9,6	9,5	1	1	1	1	1	1	1	1	1	0	1	-5,073996	275,081056	319,583767	0
15.01.2021	12:26:21	0	61,697143	4,318901	3,11775	358,4196	0,768	87,829	0	1015,48	7,7	9,6	9,5	1	1	1	1	1	1	1	1	1	0	1	-9,513742	275,194431	315,679582	0
15.01.2021	12:26:22	0	61,345267	3,86428	3,1365	356,6412	0,778	87,823	0	1015,52	7,7	9,6	9,5	1	1	1	1	1	1	1	1	1	0	1	-3,24172	275,037145	321,20879	0
15.01.2021	12:26:23	0	61,462571	3,068693	3,16425	357,2064	0,78	87,832	0	1015,5	7,7	9,6	9,5	1	1	1	1	1	1	1	1	1	0	1	-7,047216	275,027748	317,358956	0
15.01.2021	12:26:24	0	61,345285	3,977935	3,25725	355,0032	0,775	87,825	0	1015,4	7,7	9,6	9,5	1	1	1	1	1	1	1	1	1	0	1	-11,205074	275,181801	313,928556	0
15.01.2021	12:26:25	0	61,462589	3,864325	3,3555	354,2868	0,774	87,815	0	1015,28	7,7	9,6	9,3	1	1	1	1	1	1	1	1	1	0	1	-11,205074	275,073207	313,415637	0
15.01.2021	12:26:26	0	60,876123	4,091589	3,624	354,3444	0,784	87,825	0	1015,44	7,7	9,6	9,5	1	1	1	1	1	1	1	1	1	0	1	-2,677942	275,180223	322,448229	0
15.01.2021	12:26:27	0	61,462607	4,432555	3,67725	359,496	0,775	87,822	0	1015,54	7,7	9,6	9,5	1	1	1	1	1	1	1	1	1	0	1	-1,550388	275,136086	323,367243	0
15.01.2021	12:26:28	0	60,993436	4,546264	3,58875	6,0372	0,771	87,829	0	1015,4	7,7	9,6	9,3	1	1	1	1	1	1	1	1	1	0	1	-4,087385	275,175489	321,016414	0
15.01.2021	12:26:29	0	60,993445	2,61407	3,4185	357,3576	0,782	87,825	0	1015,52	7,7	9,6	9,5	1	1	1	1	1	1	1	1	1	0	1	-5,567301	275,126641	319,305718	0
15.01.2021	12:26:30	0	61,345339	4,659864	3,495	355,4172	0,778	87,824	0	1015,4	7,7	9,6	9,5	1	1	1	1	1	1	1	1	1	0	1	-10,147992	275,19601	315,052798	0
15.01.2021	12:26:31	0	60,876168	4,318898	3,3375	345,1428	0,784	87,816	0	1015,4	7,7	9,6	9,5	1	1	1	1	1	1	1	1	1	0	1	-5,285412	275,066931	319,305671	0
15.01.2021	12:26:32	0	60,876176	2,500415	3,2625	347,6304	0,781	87,806	0	1015,5	7,6	9,6	9,5	1	1	1	1	1	1	1	1	1	0	1	-4,510218	275,016791	319,84426	0
15.01.2021	12:26:33	0	60,641595	3,182346	3,4005	11,7036	0,779	87,798	0	1015,46	7,7	9,6	9,5	1	1	1	1	1	1	1	1	1	0	1	-5,144468	275,046546	319,350405	0
15.01.2021	12:26:34	0	60,641604	2,84138	3,28875	0,5256	0,779	87,798	0	1015,42	7,7	9,6	9,5	1	1	1	1	1	1	1	1	1	0	1	-9,936575	275,015226	314,410521	0
15.01.2021	12:26:35	0	60,758908	3,409656	3,12675	17,6796	0,773	87,772	0	1015,46	7,7	9,6	9,5	1	1	1	1	1	1	1	1	1	0	1	-7,329105	275,14081	317,610842	0
15.01.2021	12:26:36	0	60,407031	2,95507	2,86275	8,9928	0,78	87,779	0	1015,4	7,7	9,6	9,3	1	1	1	1	1	1	1	1	1	0	1	-6,976744	275,186536	318,179265	0
15.01.2021	12:26:37	0	61,110811	4,546207	2,8215	7,5024	0,782	87,782	0	1015,42	7,7	9,6	9,5	1	1	1	1	1	1	1	1	1	0	1	-6,412967	275,136086	318,504664	0
15.01.2021	12:26:38	0	60,641639	4,205241	2,682	14,6628	0,784	87,776	0	1015,5	7,7	9,6	9,5	1	1	1	1	1	1	1	1	1	0	1	-4,016913	275,112483	320,789236	0
15.01.2021	12:26:39	0	60,289762	2,841379	2,5245	21,0168	0,782	87,783	0	1015,56	7,6	9,6	9,5	1	1	1	1	1	1	1	1	1	0	1	-7,82241	275,189694	317,348523	0
15.01.2021	12:26:40	0	60,28977	4,091585	2,43675	12,4704	0,785	87,782	0	1015,48	7,7	9,6	9,5	1	1	1	1	1	1	1	1	1	0	1	-6,694856	275,095192	318,029645	0
15.01.2021	12:26:41	0	60,407074	3,864275	2,65275	13,2768	0,777	87,77	0	1015,38	7,7	9,6	9,5	1	1	1	1	1	1	1	1	1	0	1	-4,862579	274,996458	319,39599	0
15.01.2021	12:26:42	0	60,641674	4,659916	2,8935	8,604	0,778	87,75	0	1015,52	7,7	9,6	9,3	1	1	1	1	1	1	1	1	1	0	1	-4,298802	275,101478	320,455379	0
15.01.2021	12:26:43	0	60,055206	3,977929	2,9775	5,22	0,781	87,752	0	1015,58	7,7	9,6	9,5	1	1	1	1	1	1	1	1	1	0	1	-7,963354	275,177067	317,147902	0
15.01.2021	12:26:44	0	60,4071	4,773572	2,964	355,8456	0,778	87,741	0	1015,4	7,7	9,6	9,3	1	1	1	1	1	1	1	1	1	0	1	-3,453136	275,09205	321,256529	0
15.01.2021	12:26:45	0	60,172518	4,205239	2,75325	6,4332	0,777	87,72	0	1015,52	7,7	9,6	9,5	1	1	1	1	1	1	1	1	1	0	1	-7,258633	275,173911	317,837712	0
15.01.2021	12:26:46	0	60,172527	4,432549	2,607	6,4332	0,781	87,734	0	1015,44	7,7	9,6	9,5	1	1	1	1	1	1	1	1	1	0	1	-8,245243	275,071638	316,36806	0
15.01.2021	12:26:47	0	59,937945	4,432602	2,55075	1,548	0,772	87,737	0	1015,38	7,7	9,6	9,3	1	1	1	1	1	1	1	1	1	0	1	-5,21494	275,001149	319,065751	0
15.01.2021	12:26:48	0	59,703362	3,182342	2,4075	1,548	0,776	87,728	0	1015,42	7,7	9,6	9,5	1	1	1	1	1	1	1	1	1	0	1	-2,114165	275,077916	322,528775	0
15.01.2021	12:26:49	0	59,820666	3,068687	2,32725	0,1404	0,781	87,73	0	1015,44	7,7	9,6	9,5	1	1	1	1	1	1	1	1	1	0	1	-7,540521	274,998022	316,725421	0
15.01.2021	12:26:50	0	59,703379	2,841411	2,35875	3,7728	0,772	87,703	0	1015,5	7,7	9,6	9,3	1	1	1	1	1	1	1	1	1	0	1	-8,45666	275,063793	316,119614	0
15.01.2021	12:26:51	0	59,703388	4,091631	2,388	9,7524	0,779	87,7	0	1015,48	7,7	9,6	9,3	1	1	1	1	1	1	1	1	1	0	1	-7,610994	275,172334	317,477896	0
15.01.2021	12:26:52	0	59,820692	2,614066	2,451	7,596	0,771	87,695	0	1015,46	7,7	9,6	9,5	1	1	1	1	1	1	1	1	1	0	1	-4,439746	275,060656	320,121721	0
15.01.2021	12:26:53	0	59,703405	3,295996	2,68575	8,6076	0,769	87,678	0	1015,44	7,7	9,6	9,5	1	1	1	1	1	1	1	1	1	0	1	-9,513742	275,175489	315,590058	0
15.01.2021	12:26:54	0	59,703413	4,4326	2,70675	3,402	0,779	87,684	0	1015,52	7,7	9,6	9,3	1	1	1	1	1	1	1	1	1	0	1	-3,735025	275,054384	320,796838	0
15.01.2021	12:26:55	0	59,586126	2,614097	2,70225	3,0348	0,774	87,67	0	1015,58	7,7	9,6	9,3	1	1	1	1	1	1	1	1	1	0	1	-5,003524	275,180223	320,122647	0
15.01.2021	12:26:56	0	59,820726	4,659856	2,742	352,9008	0,78	87,683	0	1015,54	7,7	9,6	9,5	1	1	1	1	1	1	1	1	1	0	1	-6,906272	275,128215	317,97418	0
15.01.2021	12:26:57	0	59,468847	2,95503	2,661	3,3984	0,779	87,672	0	1015,66	7,7	9,6	9,5	1	1	1	1	1	1	1	1	1	0	1	-6,342495	274,987081	317,87185	0
15.01.2021	12:26:58	0	59,116969	2,50041	2,502	357,3396	0,778	87,666	0	1015,58	7,7	9,6	9,5	1	1	1	1	1	1	1	1	1	0	1	-7,751938	275,158142	317,269891	0
15.01.2021	12:26:59	0	59,58616	2,841375	2,55525	1,9044	0,772	87,647	0	1015,54	7,7	9,6	9,5	1	1	1	1	1	1	1	1	1	0	1	-3,805497	275,021486	320,571132	0
15.01.2021	12:27:00	0	58,882403	2,727752	2,8965	9,3672	0,772	87,619	0	1015,54	7,7	9,6	9,3	1	1	1	1	1	1	1	1	1	0	1	-8,738548	275,162871	316,305628	0
15.01.2021	12:27:01	0	58,882403	2,727752	2,8965	9,3672	0,772	87,619	0	1015,54	7,7	9,6	9,3	1	1	1	1	1	1	1	1	1	0	1	-1,409443	275,115628	323,411561	0
15.01.2021	12:27:02	0	59,234298	4,091628	3,0315	11,286	0,77	87,627	0	1015,54	7,7	9,6	9,3	1	1	1	1	1	1	1	1	1	0	1	-3,312192	275,169179	321,76179	0
15.01.2021	12:27:03	0	59,234306	3,637003	3,009	2,3004	0,777	87,61	0	1015,52	7,7	9,6	9,3	1	1	1	1	1	1	1	1	1	0	1	-1,973221	275,077916	322,669719	0
15.01.2021	12:27:04	0	58,999723	5,000878	3,0855	0,4788	0,774	87,603	0	1015,42	7,6	9,6	9,3	1	1	1	1	1	1	1	1	1	0	1	-1,832276	274,991769	322,404177	0
15.01.2021	12:27:05	0	58,999731	4,091578	3,06	8,622	0,772	87,611	0	1015,54	7,7	9,6	9,5	1	1	1	1	1	1	1	1	1	0	1	-5,144468	275,082626	319,520707	0
15.01.2021	12:27:06	0	58,647852	2,614079	2,973	357,9192	0,775	87,597	0	1015,5	7,7	9,6	9,4	1	1	1	1	1	1	1	1	1	0	1	-8,597604	275,175489	316,506196	0
15.01.2021	12:27:07	0	59,234339	2,955028	2,91	6,0516	0,77	87,578	0	1015,44	7,7	9,6	9,5	1	1	1	1	1	1	1	1	1	0	1	-1,409443	275,088908	323,285389	0
15.01.2021	12:27:08	0	58,765165	3,636958	2,8125	6,4332	0,773	87,575	0	1015,56	7,7	9,6	9,5	1	1	1	1	1	1	1	1	1	0	1	-7,892882	275,156565	317,121499	0
15.01.2021	12:27:09	0	59,11706	4,88722	2,62425	15,3684	0,772	87,568	0	1015,3	7,7	9,6	9,3	1	1	1	1	1	1	1	1	1	0	1	-4,933051	275,044979	319,554426	0
15.01.2021	12:27:10	0	58,999772	3,750612	2,45775	3,7764	0,773	87,587	0	1015,6	7,7	9,6	9,5	1	1	1	1	1	1	1	1	1	0	1	-8,527132	275,167602	316,539398	0
15.01.2021	12:27:11	0	59,117076	4,318938	2,3595	12,0924	0,774	87,579	0	1015,44	7,7	9,6	9,3	1	1	1	1	1	1	1	1	1	0	1	-6,20155	275,071638	318,411753	0
15.01.2021	12:27:12	0	58,647901	3,864313	2,27025	358,8156	0,775	87,599	0	1015,44	7,7	9,6	9,3	1	1	1	1	1	1	1	1	1	0	1	-3,24172	275,170756	321,839716	0
15.01.2021	12:27:13	0	58,647909	3,750656	2,18925	20,6244	0,771	87,581	0	1015,56	7,7	9,6	9,3	1	1	1	1	1	1	1	1	1	0	1	-6,8358	275,041845	317,636888	0
15.01.2021	12:27:14	0	58,413326	2,841406	2,292	6,0624	0,772	87,579	0	1015,6	7,7	9,6	9,3	1	1	1	1	1	1	1	1	1	0	1	-5,778717	275,016791	318,575761	0
15.01.2021	12:27:15	0	58,53063	3,523343	2,31975	2,376	0,764	87,572	0	1015,44	7,7	9,6	9,3	1	1	1	1	1	1	1	1	1	0	1	-3,805497	275,170756	321,275939	0
15.01.2021	12:27:16	0	58,999821	4,659905	2,29425	2,6424	0,771	87,583	0	1015,48	7,7	9,6	9,3	1	1	1	1	1	1	1	1	1	0	1	-7,258633	275,077916	317,384307	0
15.01.2021	12:27:17	0	58,765238	3,409687	2,3805	353,6208	0,771	87,569	0	1015,5	7,7	9,6	9,3	1	1	1	1	1	1	1	1	1	0	1	-6,976744	274,977709	317,193402	0
15.01.2021	12:27:18	0	58,296062	2,841405	2,4375	358,7544	0,766	87,593	0	1015,5	7,8	9,6	9,3	1	1	1	1	1	1	1	1	1	0	1	-6,8358	274,991769	317,400654	0
15.01.2021	12:27:19	0	58,29607	3,068681	2,451	348,7212	0,773	87,61	0	1015,5	7,7	9,6	9,5	1	1	1	1	1	1	1	1	1	0	1	-3,875969	274,973025	320,272087	0
15.01.2021	12:27:20	0	58,647966	4,659848	2,4045	350,6292	0,77	87,591	0	1015,48	7,8	9,6	9,5	1	1	1	1	1	1	1	1	1	0	1	-2,043693	275,136086	322,873938	0
15.01.2021	12:27:21	0	58,413382	4,77356	2,373	349,1496	0,769	87,6	0	1015,48	7,6	9,6	9,3	1	1	1	1	1	1	1	1	1	0	1	-11,909796	275,159718	313,119482	0
15.01.2021	12:27:22	0	58,41339	3,977919	2,43675	342,3492	0,767	87,608	0	1015,42	7,7	9,6	9,5	1	1	1	1	1	1	1	1	1	0	1	-7,540521	275,121921	317,310201	0
15.01.2021	12:27:23	0	58,178806	4,318935	2,481	0,1188	0,767	87,611	0	1015,42	7,7	9,6	9,3	1	1	1	1	1	1	1	1	1	0	1	-5,990134	275,148686	318,987021	0
15.01.2021	12:27:24	0	58,413406	4,546247	2,4135	355,464	0,767	87,61	0	1015,5	7,7	9,6	9,3	1	1	1	1	1	1	1	1	1	0	1	-2,043693	275,125068	322,821893	0
15.01.2021	12:27:25	0	58,765302	4,659903	2,46975	359,1684	0,763	87,597	0	1015,44	7,7	9,6	9,3	1	1	1	1	1	1	1	1	1	0	1	-6,906272	275,120347	317,93702	0
15.01.2021	12:27:26	0	58,296126	2,95506	2,44125	358,4304	0,773	87,624	0	1015,54	7,7	9,6	9,3	1	1	1	1	1	1	1	1	1	0	1	-6,131078	274,982395	318,061164	0
15.01.2021	12:27:27	0	58,530726	3,977965	2,44725	356,5692	0,765	87,613	0	1015,44	7,8	9,6	9,3	1	1	1	1	1	1	1	1	1	0	1	-1,479915	275,048113	323,022354	0
15.01.2021	12:27:28	0	58,413438	4,318933	2,4405	1,548	0,767	87,604	0	1015,48	7,7	9,6	9,3	1	1	1	1	1	1	1	1	1	0	1	-8,174771	275,158142	316,847058	0
15.01.2021	12:27:29	0	58,29615	2,955059	2,4045	8,9784	0,761	87,621	0	1015,38	7,6	9,6	9,3	1	1	1	1	1	1	1	1	1	0	1	-6,060606	275,104621	318,708419	0
15.01.2021	12:27:30	0	58,53075	4,773557	2,2875	355,8312	0,764	87,637	0	1015,36	7,8	9,6	9,3	1	1	1	1	1	1	1	1	1	0	1	-6,272023	274,999585	318,001294	0
15.01.2021	12:27:31	0	58,178869	5,114525	2,28825	351,1368	0,769	87,617	0	1015,46	7,7	9,6	9,3	1	1	1	1	1	1	1	1	1	0	1	-4,651163	275,073207	319,969549	0
15.01.2021	12:27:32	0	57,944285	2,955059	2,20125	341,46	0,77	87,646	0	1015,6	7,8	9,6	9,3	1	1	1	1	1	1	1	1	1	0	1	-5,637773	275,177067	319,473483	0
15.01.2021	12:27:33	0	57,944293	4,091595	2,2005	3,3768	0,768	87,649	0	1015,48	7,8	9,6	9,4	1	1	1	1	1	1	1	1	1	0	1	-3,664553	275,158142	321,357277	0
15.01.2021	12:27:34	0	58,530781	4,432588	2,133	340,218	0,766	87,625	0	1015,44	7,8	9,6	9,3	1	1	1	1	1	1	1	1	1	0	1	-8,80902	275,128215	316,071432	0
15.01.2021	12:27:35	0	58,178901	3,068678	2,0115	9,7344	0,763	87,653	0	1015,5	7,7	9,6	9,5	1	1	1	1	1	1	1	1	1	0	1	-5,990134	275,156565	319,024248	0
15.01.2021	12:27:36	0	58,413501	2,841368	1,92675	357,264	0,766	87,655	0	1015,54	7,7	9,6	9,5	1	1	1	1	1	1	1	1	1	0	1	-8,879493	275,010532	315,445462	0
15.01.2021	12:27:37	0	58,413509	2,500434	1,941	352,8396	0,764	87,64	0	1015,38	7,7	9,6	9,3	1	1	1	1	1	1	1	1	1	0	1	-6,483439	275,05752	318,063225	0
15.01.2021	12:27:38	0	58,061628	2,841402	1,94175	356,5656	0,768	87,653	0	1015,54	7,8	9,6	9,3	1	1	1	1	1	1	1	1	1	0	1	-10,359408	275,041845	314,11328	0
15.01.2021	12:27:39	0	58,178932	3,636994	2,175	351,4248	0,758	87,643	0	1015,38	7,8	9,6	9,3	1	1	1	1	1	1	1	1	1	0	1	-4,298802	274,988644	319,922912	0
15.01.2021	12:27:40	0	58,17894	3,409682	2,32125	357,7248	0,755	87,645	0	1015,42	7,8	9,6	9,3	1	1	1	1	1	1	1	1	1	0	1	-6,20155	275,054384	318,330312	0
15.01.2021	12:27:41	0	58,178948	2,386777	2,47725	1,152	0,768	87,647	0	1015,46	7,8	9,6	9,3	1	1	1	1	1	1	1	1	1	0	1	-6,131078	275,162871	318,913098	0
15.01.2021	12:27:42	0	57,944363	3,296025	2,64075	0,108	0,765	87,662	0	1015,6	7,6	9,6	9,3	1	1	1	1	1	1	1	1	1	0	1	-5,285412	274,839215	318,232145	0
15.01.2021	12:27:43	0	58,061667	2,727745	2,78175	354,6864	0,761	87,664	0	1015,38	7,7	9,6	9,3	1	1	1	1	1	1	1	1	1	0	1	-3,735025	275,172334	321,353865	0
15.01.2021	12:27:44	0	58,53086	4,773553	2,87775	0,504	0,764	87,674	0	1015,5	7,8	9,6	9,3	1	1	1	1	1	1	1	1	1	0	1	-4,580691	275,065362	320,002988	0
15.01.2021	12:27:45	0	58,178979	4,887179	2,84475	6,066	0,77	87,676	0	1015,5	7,7	9,6	9,4	1	1	1	1	1	1	1	1	1	0	1	-2,889359	274,979271	321,288152	0
15.01.2021	12:27:46	0	58,413579	4,54624	2,8215	4,068	0,764	87,661	0	1015,46	7,7	9,6	9,3	1	1	1	1	1	1	1	1	1	0	1	-4,298802	275,101478	320,455379	0
15.01.2021	12:27:47	0	58,061698	2,727744	2,78475	358,3584	0,759	87,669	0	1015,5	7,6	9,6	9,3	1	1	1	1	1	1	1	1	1	0	1	-9,161381	274,988644	315,060332	0
15.01.2021	12:27:48	0	58,296298	5,000864	2,67375	349,9164	0,768	87,679	0	1015,38	7,7	9,6	9,3	1	1	1	1	1	1	1	1	1	0	1	-5,003524	275,098334	319,735816	0
15.01.2021	12:27:49	0	58,413602	5,228175	2,5185	346,8996	0,765	87,67	0	1015,54	7,8	9,6	9,3	1	1	1	1	1	1	1	1	1	0	1	-4,580691	275,180223	320,54548	0
15.01.2021	12:27:50	0	58,648203	2,727743	2,42025	8,244	0,756	87,669	0	1015,48	7,7	9,6	9,3	1	1	1	1	1	1	1	1	1	0	1	-6,483439	275,060656	318,078028	0
15.01.2021	12:27:51	0	58,296321	3,409679	2,3145	3,3984	0,769	87,68	0	1015,48	7,6	9,6	9,3	1	1	1	1	1	1	1	1	1	0	1	-6,060606	275,004276	318,234837	0
15.01.2021	12:27:52	0	58,530922	2,955055	2,2665	16,8336	0,758	87,663	0	1015,46	7,7	9,6	9,3	1	1	1	1	1	1	1	1	1	0	1	-3,946441	275,035578	320,496677	0
15.01.2021	12:27:53	0	58,648226	4,20527	2,23275	8,9856	0,768	87,649	0	1015,28	7,8	9,6	9,3	1	1	1	1	1	1	1	1	1	0	1	-4,016913	275,169179	321,057069	0
15.01.2021	12:27:54	0	58,765942	4,318926	2,15475	10,4508	0,768	87,666	0	1015,5	7,6	9,5	9,3	1	1	1	1	1	1	1	1	1	0	1	-7,540521	275,038711	316,91738	0
15.01.2021	12:27:55	0	58,530945	4,887176	2,202	6,066	0,76	87,66	0	1015,5	7,8	9,6	9,4	1	1	1	1	1	1	1	1	1	0	1	-5,496829	275,154989	319,510106	0
15.01.2021	12:27:56	0	58,765546	4,546237	2,2155	9,45	0,76	87,657	0	1015,52	7,7	9,6	9,3	1	1	1	1	1	1	1	1	1	0	1	-7,399577	275,115628	317,421427	0
15.01.2021	12:27:57	0	58,296367	3,068692	2,3535	10,8216	0,755	87,665	0	1015,48	7,6	9,6	9,4	1	1	1	1	1	1	1	1	1	0	1	-10,711769	275,118774	314,124093	0
15.01.2021	12:27:58	0	59,000154	4,432528	2,577	7,5168	0,765	87,663	0	1015,54	7,7	9,6	9,5	1	1	1	1	1	1	1	1	1	0	1	-6,553911	275,109338	318,237386	0
15.01.2021	12:27:59	0	58,648272	4,091613	2,72925	2,3004	0,765	87,654	0	1015,32	7,8	9,6	9,3	1	1	1	1	1	1	1	1	1	0	1	-0,98661	275,159718	324,042667	0
15.01.2021	12:28:00	0	58,648288	4,546236	2,7375	356,2812	0,765	87,66	0	1015,56	7,8	9,6	9,3	1	1	1	1	1	1	1	1	1	0	1	-4,580691	275,109338	320,210607	0
15.01.2021	12:28:01	0	58,648288	4,546236	2,7375	356,2812	0,765	87,66	0	1015,56	7,8	9,6	9,3	1	1	1	1	1	1	1	1	1	0	1	-3,523608	275,169179	321,550374	0
15.01.2021	12:28:02	0	58,765592	3,068709	2,6745	359,8704	0,765	87,655	0	1015,5	7,7	9,6	9,3	1	1	1	1	1	1	1	1	1	0	1	-6,483439	275,03088	317,93751	0
15.01.2021	12:28:03	0	59,000193	4,546208	2,6295	353,97	0,764	87,655	0	1015,3	7,6	9,6	9,4	1	1	1	1	1	1	1	1	1	0	1	-6,624383	275,180223	318,501788	0
15.01.2021	12:28:04	0	59,117497	3,29602	2,59425	355,4244	0,76	87,651	0	1015,4	7,8	9,6	9,3	1	1	1	1	1	1	1	1	1	0	1	-5,990134	275,055952	318,549129	0
15.01.2021	12:28:05	0	58,882911	3,182345	2,54475	360	0,761	87,653	0	1015,44	7,8	9,6	9,4	1	1	1	1	1	1	1	1	1	0	1	-5,003524	274,976147	319,159258	0
15.01.2021	12:28:06	0	59,234809	4,773546	2,586	4,068	0,763	87,648	0	1015,46	7,7	9,6	9,3	1	1	1	1	1	1	1	1	1	0	1	-6,272023	275,085767	318,40798	0
15.01.2021	12:28:07	0	59,000223	3,409655	2,53425	3,3768	0,767	87,649	0	1015,48	7,7	9,6	9,4	1	1	1	1	1	1	1	1	1	0	1	-4,933051	275,001149	319,34764	0
15.01.2021	12:28:08	0	59,117528	2,841379	2,48925	10,4292	0,76	87,642	0	1015,44	7,7	9,6	9,4	1	1	1	1	1	1	1	1	1	0	1	-3,24172	275,117201	321,586713	0
15.01.2021	12:28:09	0	58,882942	2,72774	2,4855	10,8144	0,763	87,646	0	1015,54	7,8	9,6	9,3	1	1	1	1	1	1	1	1	1	0	1	-6,20155	275,156565	318,812831	0
15.01.2021	12:28:10	0	59,117957	2,500428	2,59275	11,7036	0,759	87,624	0	1015,56	7,6	9,5	9,3	1	1	1	1	1	1	1	1	1	0	1	-1,338971	275,054384	323,192892	0
15.01.2021	12:28:11	0	59,234847	4,659861	2,589	15,03	0,762	87,619	0	1015,5	7,8	9,6	9,4	1	1	1	1	1	1	1	1	1	0	1	-8,45666	274,994895	315,794537	0
15.01.2021	12:28:12	0	59,586745	4,773544	2,4705	13,9284	0,764	87,63	0	1015,44	7,8	9,6	9,3	1	1	1	1	1	1	1	1	1	0	1	-3,523608	275,129789	321,364278	0
15.01.2021	12:28:13	0	59,352159	3,636964	2,391	16,8444	0,761	87,623	0	1015,56	7,7	9,6	9,4	1	1	1	1	1	1	1	1	1	0	1	-4,721635	275,136086	320,195996	0
15.01.2021	12:28:14	0	59,58676	5,455446	2,22525	1,5444	0,755	87,616	0	1015,4	7,7	9,6	9,4	1	1	1	1	1	1	1	1	1	0	1	-8,738548	275,134512	316,171646	0
15.01.2021	12:28:15	0	59,352174	2,727739	2,115	9,7416	0,761	87,628	0	1015,54	7,8	9,6	9,3	1	1	1	1	1	1	1	1	1	0	1	-10,218464	274,998022	314,047479	0
15.01.2021	12:28:16	0	59,234885	2,727723	2,26725	12,9276	0,758	87,636	0	1015,46	7,8	9,6	9,4	1	1	1	1	1	1	1	1	1	0	1	-6,412967	275,035578	318,030152	0
15.01.2021	12:28:17	0	59,586783	4,659859	2,39625	354,0024	0,759	87,627	0	1015,48	7,8	9,6	9,4	1	1	1	1	1	1	1	1	1	0	1	-9,090909	275,14081	315,849038	0
15.01.2021	12:28:18	0	59,469911	4,546204	2,4795	1,9188	0,762	87,642	0	1015,54	7,7	9,5	9,4	1	1	1	1	1	1	1	1	1	0	1	-7,540521	275,043412	316,939561	0
15.01.2021	12:28:19	0	59,586798	4,205238	2,4165	7,5096	0,756	87,61	0	1015,48	7,7	9,6	9,4	1	1	1	1	1	1	1	1	1	0	1	-8,245243	275,162871	316,798933	0
15.01.2021	12:28:20	0	59,821819	3,296017	2,24925	10,0548	0,761	87,629	0	1015,5	7,8	9,5	9,3	1	1	1	1	1	1	1	1	1	0	1	-3,805497	275,059088	320,748568	0
15.01.2021	12:28:21	0	59,586814	2,841377	2,12175	8,6292	0,758	87,636	0	1015,48	7,8	9,6	9,4	1	1	1	1	1	1	1	1	1	0	1	-8,245243	275,158142	316,776586	0
15.01.2021	12:28:22	0	60,056009	4,546203	2,04975	0,486	0,761	87,616	0	1015,58	7,7	9,6	9,4	1	1	1	1	1	1	1	1	1	0	1	-8,174771	275,120347	316,668521	0
15.01.2021	12:28:23	0	59,938719	4,54623	1,9695	2,6568	0,762	87,632	0	1015,54	7,7	9,6	9,3	1	1	1	1	1	1	1	1	1	0	1	-5,708245	275,148686	319,26891	0
15.01.2021	12:28:24	0	60,29104	4,773512	1,91925	6,0552	0,759	87,635	0	1015,58	7,7	9,5	9,4	1	1	1	1	1	1	1	1	1	0	1	-8,597604	275,037145	315,852906	0
15.01.2021	12:28:25	0	59,821438	2,841376	1,87125	360	0,754	87,621	0	1015,5	7,7	9,6	9,4	1	1	1	1	1	1	1	1	1	0	1	-7,681466	275,150262	317,303133	0
15.01.2021	12:28:26	0	60,290633	3,97795	1,8435	355,014	0,757	87,636	0	1015,64	7,7	9,6	9,3	1	1	1	1	1	1	1	1	1	0	1	-6,483439	275,002712	317,804628	0
15.01.2021	12:28:27	0	59,93875	3,523327	1,77975	346,0968	0,756	87,635	0	1015,56	7,6	9,6	9,3	1	1	1	1	1	1	1	1	1	0	1	-7,681466	274,996458	316,577103	0
15.01.2021	12:28:28	0	60,407945	4,205236	1,7205	348,012	0,759	87,636	0	1015,42	7,7	9,6	9,4	1	1	1	1	1	1	1	1	1	0	1	-12,473573	275,129789	312,414314	0
15.01.2021	12:28:29	0	60,407953	2,841375	1,69425	345,3228	0,761	87,641	0	1015,36	7,8	9,6	9,4	1	1	1	1	1	1	1	1	1	0	1	-2,818887	274,998022	321,447056	0
15.01.2021	12:28:30	0	60,525257	3,409671	1,68825	351,0144	0,755	87,643	0	1015,56	7,7	9,6	9,3	1	1	1	1	1	1	1	1	1	0	1	-4,087385	275,123494	320,770768	0
15.01.2021	12:28:31	0	60,642562	3,523305	1,8195	350,3268	0,762	87,65	0	1015,48	7,7	9,6	9,4	1	1	1	1	1	1	1	1	1	0	1	-7,329105	275,159718	317,700172	0
15.01.2021	12:28:32	0	60,642994	4,5462	1,9455	351,72	0,758	87,637	0	1015,44	7,7	9,5	9,4	1	1	1	1	1	1	1	1	1	0	1	-6,483439	275,074777	318,144681	0
15.01.2021	12:28:33	0	60,642577	3,068685	1,94175	351,036	0,756	87,648	0	1015,58	7,8	9,6	9,4	1	1	1	1	1	1	1	1	1	0	1	-7,399577	275,001149	316,881114	0
15.01.2021	12:28:34	0	60,525712	4,659854	1,92975	359,8992	0,75	87,641	0	1015,38	7,7	9,5	9,4	1	1	1	1	1	1	1	1	1	0	1	-2,255109	275,065362	322,328569	0
15.01.2021	12:28:35	0	60,759889	4,659854	1,90275	358,668	0,757	87,648	0	1015,42	7,8	9,6	9,4	1	1	1	1	1	1	1	1	1	0	1	-8,45666	275,181801	316,67697	0
15.01.2021	12:28:36	0	60,643025	3,864292	1,818	347,9652	0,755	87,672	0	1015,46	7,7	9,5	9,3	1	1	1	1	1	1	1	1	1	0	1	-7,258633	275,065362	317,325046	0
15.01.2021	12:28:37	0	60,759905	3,409649	1,79025	350,9928	0,761	87,657	0	1015,28	7,7	9,6	9,4	1	1	1	1	1	1	1	1	1	0	1	-6,412967	275,142385	318,53442	0
15.01.2021	12:28:38	0	60,877209	3,977923	1,77825	351,0828	0,76	87,658	0	1015,44	7,7	9,6	9,4	1	1	1	1	1	1	1	1	1	0	1	-2,325581	275,145535	322,636688	0
15.01.2021	12:28:39	0	60,75992	3,068684	1,75275	351,7596	0,758	87,67	0	1015,52	7,7	9,6	9,4	1	1	1	1	1	1	1	1	1	0	1	-5,637773	275,044979	318,849704	0
15.01.2021	12:28:40	0	60,877224	2,727719	1,63725	341,2656	0,759	87,672	0	1015,62	7,7	9,6	9,4	1	1	1	1	1	1	1	1	1	0	1	-2,114165	274,980833	322,070711	0
15.01.2021	12:28:41	0	60,642638	2,841373	1,4985	345,3768	0,759	87,67	0	1015,5	7,7	9,6	9,4	1	1	1	1	1	1	1	1	1	0	1	-7,258633	275,013661	317,081082	0
15.01.2021	12:28:42	0	61,346428	4,659852	1,362	352,854	0,752	87,667	0	1015,46	7,8	9,6	9,4	1	1	1	1	1	1	1	1	1	0	1	-7,681466	275,081056	316,976297	0
15.01.2021	12:28:43	0	61,112269	3,182338	1,3035	341,3484	0,758	87,676	0	1015,5	7,7	9,5	9,4	1	1	1	1	1	1	1	1	1	0	1	-0,563777	275,008968	323,753799	0
15.01.2021	12:28:44	0	61,111849	3,636957	1,32225	336,0852	0,757	87,681	0	1015,44	7,8	9,6	9,4	1	1	1	1	1	1	1	1	1	0	1	-5,426357	275,05752	319,120307	0
15.01.2021	12:28:45	0	61,346451	3,86429	1,404	346,1076	0,755	87,677	0	1015,5	7,7	9,6	9,3	1	1	1	1	1	1	1	1	1	0	1	-4,580691	275,173911	320,515654	0
15.01.2021	12:28:46	0	61,346888	3,182337	1,533	349,9704	0,76	87,674	0	1015,48	7,8	9,5	9,4	1	1	1	1	1	1	1	1	1	0	1	-7,892882	275,049681	316,616785	0
15.01.2021	12:28:47	0	61,815655	3,636957	1,67325	344,7108	0,755	87,7	0	1015,6	7,8	9,6	9,4	1	1	1	1	1	1	1	1	1	0	1	-2,396054	275,008968	321,921522	0
15.01.2021	12:28:48	0	61,815663	4,432541	1,6875	353,6316	0,753	87,699	0	1015,5	7,8	9,6	9,4	1	1	1	1	1	1	1	1	1	0	1	-5,990134	275,151838	319,00191	0
15.01.2021	12:28:49	0	61,698373	4,65985	1,656	355,9212	0,755	87,691	0	1015,28	7,7	9,6	9,4	1	1	1	1	1	1	1	1	1	0	1	-8,668076	275,131363	316,227245	0
15.01.2021	12:28:50	0	62,050707	4,546195	1,63875	352,8216	0,752	87,708	0	1015,42	7,7	9,5	9,4	1	1	1	1	1	1	1	1	1	0	1	-6,553911	274,985519	317,653065	0
15.01.2021	12:28:51	0	61,698388	4,091575	1,638	353,9196	0,759	87,713	0	1015,48	7,7	9,6	9,4	1	1	1	1	1	1	1	1	1	0	1	-5,426357	275,077916	319,216583	0
15.01.2021	12:28:52	0	61,463801	2,727717	1,7835	355,0752	0,755	87,714	0	1015,46	7,8	9,6	9,4	1	1	1	1	1	1	1	1	1	0	1	-4,862579	274,993332	319,381245	0
15.01.2021	12:28:53	0	61,932998	2,386752	1,7925	339,2424	0,761	87,715	0	1015,46	7,7	9,6	9,4	1	1	1	1	1	1	1	1	1	0	1	-8,527132	275,026182	315,871654	0
15.01.2021	12:28:54	0	62,050303	3,068681	1,8315	343,9116	0,758	87,736	0	1015,46	7,7	9,6	9,4	1	1	1	1	1	1	1	1	1	0	1	-3,100775	275,125068	321,764811	0
15.01.2021	12:28:55	0	62,284905	2,500407	1,89375	355,3812	0,763	87,729	0	1015,56	7,8	9,6	9,4	1	1	1	1	1	1	1	1	1	0	1	-4,439746	275,125068	320,425839	0
15.01.2021	12:28:56	0	62,167615	5,000813	1,98675	351,2772	0,757	87,727	0	1015,48	7,7	9,6	9,4	1	1	1	1	1	1	1	1	1	0	1	-9,090909	275,175489	316,012891	0
15.01.2021	12:28:57	0	62,167623	2,727716	2,05875	359,9532	0,762	87,732	0	1015,52	7,7	9,6	9,4	1	1	1	1	1	1	1	1	1	0	1	-3,453136	275,081056	321,204627	0
15.01.2021	12:28:58	0	62,519522	5,228153	2,112	354,2976	0,764	87,749	0	1015,46	7,7	9,6	9,3	1	1	1	1	1	1	1	1	1	0	1	-10,147992	275,183379	314,993097	0
15.01.2021	12:28:59	0	62,636827	4,546193	2,12175	353,2428	0,758	87,749	0	1015,5	7,8	9,6	9,4	1	1	1	1	1	1	1	1	1	0	1	-7,047216	275,002712	317,24085	0
15.01.2021	12:29:00	0	62,519545	2,61406	1,96875	348,318	0,766	87,771	0	1015,56	7,7	9,6	9,4	1	1	1	1	1	1	1	1	1	0	1	-2,114165	275,063793	322,462109	0
15.01.2021	12:29:01	0	62,519545	2,61406	1,96875	348,318	0,766	87,771	0	1015,56	7,7	9,6	9,4	1	1	1	1	1	1	1	1	1	0	1	-9,161381	274,987081	315,052963	0
15.01.2021	12:29:02	0	62,988742	4,659847	1,86375	355,896	0,768	87,765	0	1015,46	7,7	9,6	9,4	1	1	1	1	1	1	1	1	1	0	1	-7,82241	275,063793	316,753864	0
15.01.2021	12:29:03	0	62,637296	4,205227	1,7805	347,5548	0,762	87,773	0	1015,52	7,8	9,5	9,4	1	1	1	1	1	1	1	1	1	0	1	-9,090909	275,180223	316,035262	0
15.01.2021	12:29:04	0	63,106055	3,750608	1,78875	356,9364	0,763	87,773	0	1015,48	7,7	9,6	9,4	1	1	1	1	1	1	1	1	1	0	1	-6,8358	275,159718	318,193477	0
15.01.2021	12:29:05	0	63,340658	4,659846	1,8075	354,6576	0,759	87,763	0	1015,4	7,7	9,6	9,4	1	1	1	1	1	1	1	1	1	0	1	-6,624383	275,103049	318,137219	0
15.01.2021	12:29:06	0	63,106512	3,750607	1,72725	357,66	0,758	87,782	0	1015,44	7,8	9,5	9,4	1	1	1	1	1	1	1	1	1	0	1	-5,496829	275,035578	318,94629	0
15.01.2021	12:29:07	0	63,45797	5,455429	1,65075	357,9588	0,763	87,78	0	1015,5	7,8	9,6	9,4	1	1	1	1	1	1	1	1	1	0	1	-9,44327	275,158142	315,578559	0
15.01.2021	12:29:08	0	63,106085	4,432535	1,539	356,1264	0,764	87,79	0	1015,48	7,7	9,6	9,4	1	1	1	1	1	1	1	1	1	0	1	-10,852713	275,164448	314,198913	0
15.01.2021	12:29:09	0	62,988795	2,841369	1,43925	351,8064	0,766	87,791	0	1015,4	7,7	9,6	9,4	1	1	1	1	1	1	1	1	1	0	1	-6,553911	275,048113	317,948359	0
15.01.2021	12:29:10	0	63,458438	4,432535	1,51125	356,6124	0,763	87,795	0	1015,5	7,8	9,5	9,4	1	1	1	1	1	1	1	1	1	0	1	-8,738548	275,134512	316,171646	0
15.01.2021	12:29:11	0	63,223848	3,182333	1,6995	349,4916	0,76	87,804	0	1015,58	7,8	9,5	9,4	1	1	1	1	1	1	1	1	1	0	1	-4,792107	275,183379	320,348982	0
15.01.2021	12:29:12	0	63,575306	4,887153	1,97475	359,5464	0,761	87,785	0	1015,38	7,7	9,6	9,4	1	1	1	1	1	1	1	1	1	0	1	-9,725159	275,128215	315,155294	0
15.01.2021	12:29:13	0	63,693057	2,727713	2,19525	352,1196	0,766	87,804	0	1015,42	7,8	9,5	9,4	1	1	1	1	1	1	1	1	1	0	1	-6,412967	275,013661	317,926748	0
15.01.2021	12:29:14	0	63,458023	2,727713	2,23725	356,5728	0,765	87,815	0	1015,54	7,7	9,6	9,4	1	1	1	1	1	1	1	1	1	0	1	-12,614517	275,183379	312,526572	0
15.01.2021	12:29:15	0	63,809924	3,068677	2,24475	355,3668	0,761	87,81	0	1015,48	7,8	9,6	9,4	1	1	1	1	1	1	1	1	1	0	1	-5,567301	275,054384	318,964562	0
15.01.2021	12:29:16	0	63,810378	4,432533	2,30625	360	0,765	87,815	0	1015,48	7,7	9,5	9,4	1	1	1	1	1	1	1	1	1	0	1	-5,778717	275,004276	318,516726	0
15.01.2021	12:29:17	0	63,575343	2,727713	2,47425	0,9432	0,761	87,799	0	1015,38	7,7	9,6	9,4	1	1	1	1	1	1	1	1	1	0	1	-3,59408	275,059088	320,959985	0
15.01.2021	12:29:18	0	63,809946	3,63695	2,5215	3,3876	0,764	87,807	0	1015,5	7,7	9,6	9,4	1	1	1	1	1	1	1	1	1	0	1	-6,976744	275,199169	318,238977	0
15.01.2021	12:29:19	0	64,161847	4,659842	2,52375	3,3804	0,765	87,814	0	1015,42	7,8	9,6	9,4	1	1	1	1	1	1	1	1	1	0	1	-6,765328	275,109338	318,02597	0
15.01.2021	12:29:20	0	63,692664	2,955022	2,5815	13,5576	0,762	87,823	0	1015,58	7,8	9,6	9,4	1	1	1	1	1	1	1	1	1	0	1	-7,751938	275,012097	316,580397	0
15.01.2021	12:29:21	0	64,044564	2,955021	2,5605	3,1176	0,758	87,82	0	1015,42	7,8	9,6	9,4	1	1	1	1	1	1	1	1	1	0	1	-7,751938	275,019921	316,617307	0
15.01.2021	12:29:22	0	63,809976	2,614057	2,55075	5,2272	0,766	87,825	0	1015,46	7,7	9,6	9,4	1	1	1	1	1	1	1	1	1	0	1	-5,285412	275,194431	319,907912	0
15.01.2021	12:29:23	0	64,396924	3,977913	2,59875	0,1296	0,767	87,812	0	1015,34	7,7	9,5	9,4	1	1	1	1	1	1	1	1	1	0	1	-4,862579	275,09205	319,847086	0
15.01.2021	12:29:24	0	64,161884	3,18233	2,71125	344,0016	0,769	87,809	0	1015,66	7,8	9,6	9,4	1	1	1	1	1	1	1	1	1	0	1	-6,553911	275,173911	318,542433	0
15.01.2021	12:29:25	0	64,513785	2,614057	2,89125	348,7644	0,767	87,834	0	1015,48	7,8	9,6	9,4	1	1	1	1	1	1	1	1	1	0	1	-11,698379	275,112483	313,10777	0
15.01.2021	12:29:26	0	64,631091	3,523294	3,05775	352,5552	0,767	87,821	0	1015,52	7,7	9,6	9,4	1	1	1	1	1	1	1	1	1	0	1	-8,174771	275,016791	316,179708	0
15.01.2021	12:29:27	0	64,631098	3,409639	3,012	4,0788	0,76	87,816	0	1015,44	7,8	9,6	9,4	1	1	1	1	1	1	1	1	1	0	1	-4,22833	275,052816	320,296134	0
15.01.2021	12:29:28	0	64,513808	2,727711	2,838	359,1216	0,764	87,84	0	1015,5	7,7	9,6	9,4	1	1	1	1	1	1	1	1	1	0	1	-6,412967	275,14396	318,541861	0
15.01.2021	12:29:29	0	64,631113	4,546185	2,6625	0	0,768	87,817	0	1015,42	7,7	9,6	9,4	1	1	1	1	1	1	1	1	1	0	1	-6,412967	275,161295	318,623759	0
15.01.2021	12:29:30	0	64,748418	4,318875	2,637	0,1296	0,773	87,834	0	1015,54	7,8	9,6	9,4	1	1	1	1	1	1	1	1	1	0	1	-7,399577	275,118774	317,436285	0
15.01.2021	12:29:31	0	64,865724	3,864257	2,55975	358,0632	0,769	87,826	0	1015,48	7,8	9,6	9,4	1	1	1	1	1	1	1	1	1	0	1	-6,8358	275,00584	317,46702	0
15.01.2021	12:29:32	0	64,865731	4,773493	2,5305	349,5132	0,773	87,821	0	1015,5	7,7	9,6	9,4	1	1	1	1	1	1	1	1	1	0	1	-6,624383	275,128215	318,256069	0
15.01.2021	12:29:33	0	64,983037	3,409638	2,60025	349,02	0,767	87,831	0	1015,46	7,7	9,6	9,4	1	1	1	1	1	1	1	1	1	0	1	-3,523608	275,063793	321,052666	0
15.01.2021	12:29:34	0	64,748448	2,386746	2,6955	356,1444	0,771	87,827	0	1015,48	7,7	9,6	9,4	1	1	1	1	1	1	1	1	1	0	1	-2,396054	275,008968	321,921522	0
15.01.2021	12:29:35	0	65,218104	3,068674	2,649	348,7428	0,77	87,834	0	1015,52	7,8	9,5	9,4	1	1	1	1	1	1	1	1	1	0	1	-7,751938	275,145535	317,210332	0
15.01.2021	12:29:36	0	65,217655	2,955019	2,58975	353,2068	0,766	87,827	0	1015,58	7,7	9,6	9,4	1	1	1	1	1	1	1	1	1	0	1	-8,104299	274,999585	316,169018	0
15.01.2021	12:29:37	0	65,217662	3,97791	2,48325	351,684	0,769	87,82	0	1015,44	7,8	9,6	9,4	1	1	1	1	1	1	1	1	1	0	1	-8,104299	275,202329	317,126358	0
15.01.2021	12:29:38	0	65,569564	5,000801	2,5365	351,3132	0,772	87,816	0	1015,5	7,8	9,6	9,4	1	1	1	1	1	1	1	1	1	0	1	-6,20155	275,120347	318,641741	0
15.01.2021	12:29:39	0	65,334975	4,205219	2,73825	351,378	0,766	87,826	0	1015,5	7,8	9,6	9,4	1	1	1	1	1	1	1	1	1	0	1	-2,889359	275,013661	321,450357	0
15.01.2021	12:29:40	0	65,686877	4,773491	2,82975	355,4568	0,771	87,815	0	1015,44	7,7	9,6	9,4	1	1	1	1	1	1	1	1	1	0	1	-6,765328	275,09205	317,944337	0
15.01.2021	12:29:41	0	65,687344	4,432527	2,7165	358,7688	0,773	87,813	0	1015,46	7,7	9,5	9,4	1	1	1	1	1	1	1	1	1	0	1	-3,664553	275,027748	320,74162	0
15.01.2021	12:29:42	0	65,80419	4,091563	2,52525	0,8496	0,77	87,797	0	1015,42	7,8	9,6	9,4	1	1	1	1	1	1	1	1	1	0	1	-7,540521	275,112483	317,265628	0
15.01.2021	12:29:43	0	65,452303	2,727709	2,39175	353,5992	0,764	87,805	0	1015,32	7,7	9,6	9,4	1	1	1	1	1	1	1	1	1	0	1	-6,060606	275,002712	318,227461	0
15.01.2021	12:29:44	0	65,452311	2,5004	2,301	347,2776	0,772	87,797	0	1015,36	7,7	9,6	9,4	1	1	1	1	1	1	1	1	1	0	1	-6,060606	275,186536	319,095403	0
15.01.2021	12:29:45	0	66,15657	5,000799	2,322	359,9892	0,77	87,812	0	1015,52	7,8	9,5	9,4	1	1	1	1	1	1	1	1	1	0	1	-8,879493	275,14081	316,060454	0
15.01.2021	12:29:46	0	65,921518	4,54618	2,352	358,7724	0,773	87,805	0	1015,54	7,8	9,6	9,4	1	1	1	1	1	1	1	1	1	0	1	-5,567301	275,192852	319,618559	0
15.01.2021	12:29:47	0	66,038823	4,773489	2,25225	3,0024	0,771	87,785	0	1015,32	7,8	9,6	9,4	1	1	1	1	1	1	1	1	1	0	1	-9,795631	275,055952	314,743632	0
15.01.2021	12:29:48	0	65,804234	2,955017	2,09925	6,426	0,767	87,794	0	1015,34	7,7	9,6	9,4	1	1	1	1	1	1	1	1	1	0	1	-10,500352	275,175489	314,603448	0
15.01.2021	12:29:49	0	66,1566	2,614053	1,932	357,4368	0,771	87,796	0	1015,46	7,7	9,5	9,4	1	1	1	1	1	1	1	1	1	0	1	-7,82241	275,148686	317,154745	0
15.01.2021	12:29:50	0	65,804249	4,091562	1,86	2,3112	0,772	87,804	0	1015,58	7,8	9,6	9,4	1	1	1	1	1	1	1	1	1	0	1	-4,651163	275,189694	320,51977	0
15.01.2021	12:29:51	0	66,038853	3,182325	1,82175	7,1172	0,772	87,796	0	1015,58	7,8	9,6	9,4	1	1	1	1	1	1	1	1	1	0	1	-7,610994	275,081056	317,046769	0
15.01.2021	12:29:52	0	66,03886	4,31887	1,8165	359,4708	0,776	87,794	0	1015,44	7,8	9,6	9,4	1	1	1	1	1	1	1	1	1	0	1	-11,768851	275,203909	313,469275	0
15.01.2021	12:29:53	0	66,742657	2,841362	1,89	10,4328	0,774	87,787	0	1015,5	7,8	9,6	9,4	1	1	1	1	1	1	1	1	1	0	1	-4,510218	275,05752	320,036445	0
15.01.2021	12:29:54	0	66,156173	2,727707	1,94625	14,6448	0,778	87,796	0	1015,6	7,7	9,6	9,4	1	1	1	1	1	1	1	1	1	0	1	-7,540521	275,008968	316,777054	0
15.01.2021	12:29:55	0	66,62584	2,841361	1,99125	7,8624	0,77	87,772	0	1015,42	7,7	9,5	9,4	1	1	1	1	1	1	1	1	1	0	1	-6,8358	275,024617	317,555599	0
15.01.2021	12:29:56	0	66,390785	4,432524	2,04675	6,8112	0,769	87,787	0	1015,52	7,7	9,6	9,4	1	1	1	1	1	1	1	1	1	0	1	-9,090909	275,034012	315,344819	0
15.01.2021	12:29:57	0	66,390792	2,841361	2,0415	4,0752	0,778	87,783	0	1015,5	7,8	9,6	9,4	1	1	1	1	1	1	1	1	1	0	1	-10,500352	275,065362	314,083326	0
15.01.2021	12:29:58	0	66,742694	4,205214	2,0865	360	0,77	87,769	0	1015,48	7,8	9,6	9,4	1	1	1	1	1	1	1	1	1	0	1	-8,45666	275,05752	316,090004	0
15.01.2021	12:29:59	0	66,273973	2,614052	2,025	3,0384	0,776	87,775	0	1015,66	7,8	9,5	9,4	1	1	1	1	1	1	1	1	1	0	1	-4,087385	275,096763	320,644534	0
15.01.2021	12:30:00	0	66,50812	2,955015	1,77075	0,0936	0,768	87,766	0	1015,48	7,8	9,6	9,4	1	1	1	1	1	1	1	1	1	0	1	-9,44327	275,175489	315,66053	0
15.01.2021	12:30:01	0	66,50812	2,955015	1,77075	0,0936	0,768	87,766	0	1015,48	7,8	9,6	9,4	1	1	1	1	1	1	1	1	1	0	1	-0,704722	275,112483	324,101428	0
15.01.2021	12:30:02	0	66,625425	2,727706	1,6935	7,884	0,776	87,779	0	1015,44	7,7	9,6	9,4	1	1	1	1	1	1	1	1	1	0	1	-4,087385	275,181801	321,046244	0
15.01.2021	12:30:03	0	66,860029	3,068669	1,64625	360	0,775	87,778	0	1015,46	7,7	9,6	9,4	1	1	1	1	1	1	1	1	1	0	1	-8,45666	275,046546	316,038214	0
15.01.2021	12:30:04	0	66,977335	3,86425	1,73025	6,0516	0,776	87,782	0	1015,66	7,7	9,6	9,4	1	1	1	1	1	1	1	1	1	0	1	-1,198027	275,136086	323,719604	0
15.01.2021	12:30:05	0	66,860044	3,636941	1,6935	19,1592	0,775	87,783	0	1015,46	7,7	9,6	9,4	1	1	1	1	1	1	1	1	1	0	1	-3,100775	275,19601	322,100014	0
15.01.2021	12:30:06	0	67,095118	3,068669	1,60425	2,286	0,773	87,761	0	1015,34	7,7	9,5	9,4	1	1	1	1	1	1	1	1	1	0	1	-5,003524	275,139235	319,928984	0
15.01.2021	12:30:07	0	67,563849	4,546175	1,57275	341,3448	0,774	87,773	0	1015,54	7,8	9,6	9,4	1	1	1	1	1	1	1	1	1	0	1	-8,949965	275,010532	315,37499	0
15.01.2021	12:30:08	0	67,564329	4,091558	1,6665	359,9136	0,774	87,776	0	1015,44	7,8	9,5	9,4	1	1	1	1	1	1	1	1	1	0	1	-6,131078	275,169179	318,942904	0
15.01.2021	12:30:09	0	67,681162	5,114447	1,755	19,53	0,772	87,763	0	1015,6	7,8	9,6	9,4	1	1	1	1	1	1	1	1	1	0	1	-4,933051	275,173911	320,163293	0
15.01.2021	12:30:10	0	67,681169	4,659829	1,653	338,3712	0,769	87,762	0	1015,42	7,8	9,6	9,4	1	1	1	1	1	1	1	1	1	0	1	-3,171247	275,136086	321,746384	0
15.01.2021	12:30:11	0	67,563878	2,727705	1,659	350,658	0,773	87,762	0	1015,54	7,8	9,6	9,4	1	1	1	1	1	1	1	1	1	0	1	-3,946441	275,015226	320,400655	0
15.01.2021	12:30:12	0	67,681184	3,523285	1,70925	349,3584	0,774	87,762	0	1015,48	7,8	9,6	9,4	1	1	1	1	1	1	1	1	1	0	1	-4,580691	275,0685	320,017799	0
15.01.2021	12:30:13	0	67,915788	5,000791	1,86675	353,916	0,768	87,758	0	1015,52	7,8	9,6	9,4	1	1	1	1	1	1	1	1	1	0	1	-10,077519	275,19759	315,130736	0
15.01.2021	12:30:14	0	67,681199	4,546174	1,929	0,8496	0,769	87,758	0	1015,52	7,8	9,6	9,4	1	1	1	1	1	1	1	1	1	0	1	-7,329105	275,184957	317,819444	0
15.01.2021	12:30:15	0	67,915803	3,523284	1,908	355,0824	0,772	87,762	0	1015,48	7,8	9,6	9,4	1	1	1	1	1	1	1	1	1	0	1	-3,875969	275,024617	320,51543	0
15.01.2021	12:30:16	0	67,447089	2,955013	1,76625	343,9404	0,771	87,777	0	1015,7	7,7	9,5	9,4	1	1	1	1	1	1	1	1	1	0	1	-4,651163	275,081056	320,0066	0
15.01.2021	12:30:17	0	67,915818	4,318864	1,722	342,2988	0,794	87,748	0	1015,38	7,8	9,6	9,4	1	1	1	1	1	1	1	1	1	0	1	-9,372798	275,188115	315,790673	0
15.01.2021	12:30:18	0	68,033123	4,091555	1,6425	343,44	0,771	87,765	0	1015,48	7,7	9,6	9,4	1	1	1	1	1	1	1	1	1	0	1	-2,677942	275,156565	322,336439	0
15.01.2021	12:30:19	0	67,798534	4,318864	1,6515	357,3216	0,776	87,777	0	1015,34	7,8	9,6	9,4	1	1	1	1	1	1	1	1	1	0	1	-5,778717	275,010532	318,546238	0
15.01.2021	12:30:20	0	67,91584	2,614049	1,61475	352,7316	0,772	87,77	0	1015,34	7,8	9,6	9,4	1	1	1	1	1	1	1	1	1	0	1	-3,382664	275,134512	321,52753	0
15.01.2021	12:30:21	0	67,799023	2,727703	1,689	354,6504	0,766	87,776	0	1015,54	7,8	9,5	9,4	1	1	1	1	1	1	1	1	1	0	1	-9,513742	275,191272	315,664654	0
15.01.2021	12:30:22	0	68,150451	3,9779	1,71075	352,1232	0,772	87,758	0	1015,52	7,7	9,6	9,4	1	1	1	1	1	1	1	1	1	0	1	-3,382664	275,125068	321,482922	0
15.01.2021	12:30:23	0	67,798563	4,205209	1,69875	353,556	0,773	87,756	0	1015,54	7,8	9,6	9,4	1	1	1	1	1	1	1	1	1	0	1	-9,161381	275,203909	316,076745	0
15.01.2021	12:30:24	0	68,150943	2,614048	1,6635	356,112	0,773	87,784	0	1015,52	7,8	9,5	9,4	1	1	1	1	1	1	1	1	1	0	1	-6,976744	275,104621	317,792281	0
15.01.2021	12:30:25	0	68,033174	4,205208	1,641	357,7392	0,772	87,779	0	1015,56	7,8	9,6	9,4	1	1	1	1	1	1	1	1	1	0	1	-10,852713	275,21181	314,422768	0
15.01.2021	12:30:26	0	68,033182	3,068665	1,7055	356,5764	0,772	87,776	0	1015,56	7,8	9,6	9,4	1	1	1	1	1	1	1	1	1	0	1	-6,272023	275,071638	318,341281	0
15.01.2021	12:30:27	0	68,267786	2,727702	1,81575	1,9152	0,768	87,767	0	1015,3	7,8	9,6	9,4	1	1	1	1	1	1	1	1	1	0	1	-7,117689	275,189694	318,053245	0
15.01.2021	12:30:28	0	68,619689	4,432516	1,9695	7,1172	0,769	87,758	0	1015,54	7,8	9,6	9,4	1	1	1	1	1	1	1	1	1	0	1	-5,990134	275,150262	318,994465	0
15.01.2021	12:30:29	0	68,619697	3,636936	2,00175	360	0,77	87,752	0	1015,46	7,8	9,6	9,4	1	1	1	1	1	1	1	1	1	0	1	-5,990134	275,203909	319,247992	0
15.01.2021	12:30:30	0	68,619704	3,864244	1,95075	4,8384	0,776	87,765	0	1015,5	7,8	9,6	9,4	1	1	1	1	1	1	1	1	1	0	1	-9,936575	275,049681	314,573092	0
15.01.2021	12:30:31	0	68,619711	4,091553	2,06475	11,1924	0,773	87,779	0	1015,6	7,8	9,6	9,4	1	1	1	1	1	1	1	1	1	0	1	-8,315715	275,166025	316,743362	0
15.01.2021	12:30:32	0	68,737017	4,773478	2,08725	20,268	0,767	87,763	0	1015,48	7,8	9,6	9,4	1	1	1	1	1	1	1	1	1	0	1	-8,315715	275,029314	316,097845	0
15.01.2021	12:30:33	0	68,737024	3,182318	1,9395	20,2752	0,774	87,762	0	1015,52	7,7	9,6	9,4	1	1	1	1	1	1	1	1	1	0	1	-4,22833	275,131363	320,666992	0
15.01.2021	12:30:34	0	68,502434	2,500393	1,842	16,1028	0,765	87,751	0	1015,52	7,7	9,6	9,4	1	1	1	1	1	1	1	1	1	0	1	-8,80902	275,024617	315,582379	0
15.01.2021	12:30:35	0	68,971636	4,659823	1,83075	2,6496	0,768	87,765	0	1015,64	7,8	9,6	9,4	1	1	1	1	1	1	1	1	1	0	1	-6,553911	275,071638	318,059392	0
15.01.2021	12:30:36	0	68,854345	3,977897	1,88775	4,8276	0,773	87,77	0	1015,62	7,7	9,6	9,4	1	1	1	1	1	1	1	1	1	0	1	-3,171247	275,19601	322,029542	0
15.01.2021	12:30:37	0	68,737535	4,546168	2,0475	352,1628	0,772	87,773	0	1015,5	7,8	9,5	9,4	1	1	1	1	1	1	1	1	1	0	1	-6,412967	275,074777	318,215153	0
15.01.2021	12:30:38	0	69,088956	4,546168	2,01075	357,6348	0,772	87,777	0	1015,48	7,8	9,6	9,4	1	1	1	1	1	1	1	1	1	0	1	-10,500352	275,199169	314,715369	0
15.01.2021	12:30:39	0	68,971665	2,386738	1,9365	353,1852	0,775	87,783	0	1015,52	7,8	9,6	9,4	1	1	1	1	1	1	1	1	1	0	1	-7,892882	275,106193	316,883566	0
15.01.2021	12:30:40	0	68,971672	2,955009	1,8915	353,2248	0,771	87,775	0	1015,6	7,8	9,6	9,4	1	1	1	1	1	1	1	1	1	0	1	-7,681466	275,21023	317,586543	0
15.01.2021	12:30:41	0	69,088978	2,7277	1,94325	351,0252	0,774	87,772	0	1015,38	7,8	9,6	9,4	1	1	1	1	1	1	1	1	1	0	1	-8,668076	275,19759	316,540179	0
15.01.2021	12:30:42	0	69,55818	4,659821	2,04375	345,7584	0,777	87,776	0	1015,4	7,8	9,6	9,4	1	1	1	1	1	1	1	1	1	0	1	-6,765328	275,070069	317,840568	0
15.01.2021	12:30:43	0	69,206291	3,182317	2,1525	1,53	0,775	87,777	0	1015,38	7,8	9,6	9,4	1	1	1	1	1	1	1	1	1	0	1	-4,792107	275,037145	319,658403	0
15.01.2021	12:30:44	0	69,323597	4,546167	2,2125	360	0,775	87,787	0	1015,5	7,8	9,6	9,4	1	1	1	1	1	1	1	1	1	0	1	-8,315715	275,082626	316,34946	0
15.01.2021	12:30:45	0	69,323604	3,068662	2,12625	354,9564	0,777	87,771	0	1015,38	7,8	9,6	9,4	1	1	1	1	1	1	1	1	1	0	1	-8,386187	275,178645	316,732526	0
15.01.2021	12:30:46	0	69,441397	4,773474	2,12175	6,426	0,782	87,796	0	1015,48	7,8	9,5	9,4	1	1	1	1	1	1	1	1	1	0	1	-8,45666	275,208649	316,803877	0
15.01.2021	12:30:47	0	69,558216	3,182316	2,1315	349,1532	0,777	87,803	0	1015,5	7,7	9,6	9,4	1	1	1	1	1	1	1	1	1	0	1	-8,45666	275,076347	316,17887	0
15.01.2021	12:30:48	0	69,558224	2,500391	2,07975	346,1724	0,776	87,786	0	1015,46	7,8	9,6	9,4	1	1	1	1	1	1	1	1	1	0	1	-5,21494	275,019921	319,154304	0
15.01.2021	12:30:49	0	70,027426	5,114436	2,004	349,8588	0,779	87,801	0	1015,56	7,7	9,6	9,4	1	1	1	1	1	1	1	1	1	0	1	-5,496829	275,040278	318,968466	0
15.01.2021	12:30:50	0	70,027433	4,205203	1,89375	348,7104	0,774	87,797	0	1015,54	7,7	9,6	9,4	1	1	1	1	1	1	1	1	1	0	1	-7,399577	275,203909	317,838549	0
15.01.2021	12:30:51	0	69,558245	2,727699	1,8525	1,638	0,775	87,797	0	1015,38	7,8	9,6	9,4	1	1	1	1	1	1	1	1	1	0	1	-4,157858	275,156565	320,856524	0
15.01.2021	12:30:52	0	69,910149	2,500391	1,80075	352,0224	0,775	87,784	0	1015,5	7,8	9,6	9,4	1	1	1	1	1	1	1	1	1	0	1	-11,275546	275,200749	313,947643	0
15.01.2021	12:30:53	0	69,792857	4,773473	1,7625	358,776	0,778	87,802	0	1015,54	7,8	9,6	9,4	1	1	1	1	1	1	1	1	1	0	1	-8,527132	275,085767	316,15287	0
15.01.2021	12:30:54	0	70,144761	5,228089	1,91925	360	0,777	87,811	0	1015,4	7,7	9,6	9,4	1	1	1	1	1	1	1	1	1	0	1	-10,711769	275,200749	314,51142	0
15.01.2021	12:30:55	0	70,262067	3,750585	2,0925	346,1472	0,778	87,815	0	1015,42	7,8	9,6	9,4	1	1	1	1	1	1	1	1	1	0	1	-14,094433	275,112483	310,711717	0
15.01.2021	12:30:56	0	69,792878	3,864239	2,316	351,324	0,777	87,82	0	1015,4	7,7	9,6	9,4	1	1	1	1	1	1	1	1	1	0	1	-7,963354	275,027748	316,442818	0
15.01.2021	12:30:57	0	70,145274	2,841352	2,508	355,068	0,78	87,819	0	1015,4	7,7	9,5	9,4	1	1	1	1	1	1	1	1	1	0	1	-4,22833	275,128215	320,652122	0
15.01.2021	12:30:58	0	69,558294	2,614044	2,61375	350,6544	0,78	87,822	0	1015,52	7,7	9,6	9,4	1	1	1	1	1	1	1	1	1	0	1	-7,892882	275,0685	316,705607	0
15.01.2021	12:30:59	0	69,910198	3,864239	2,61225	351,3492	0,782	87,818	0	1015,4	7,7	9,6	9,4	1	1	1	1	1	1	1	1	1	0	1	-9,654686	275,062225	314,914184	0
15.01.2021	12:31:00	0	70,144811	3,63693	2,6595	351,432	0,78	87,828	0	1015,46	7,8	9,6	9,4	1	1	1	1	1	1	1	1	1	0	1	-6,483439	275,181801	318,650191	0
15.01.2021	12:31:01	0	70,144811	3,63693	2,6595	351,432	0,78	87,828	0	1015,46	7,8	9,6	9,4	1	1	1	1	1	1	1	1	1	0	1	-6,483439	275,181801	318,650191	0
15.01.2021	12:31:02	0	70,497209	4,659817	2,619	353,1708	0,774	87,84	0	1015,48	7,7	9,5	9,4	1	1	1	1	1	1	1	1	1	0	1	-8,315715	275,037145	316,134795	0
15.01.2021	12:31:03	0	70,496722	3,977892	2,58375	352,0908	0,777	87,833	0	1015,44	7,8	9,6	9,4	1	1	1	1	1	1	1	1	1	0	1	-9,302326	275,189694	315,868608	0
15.01.2021	12:31:04	0	70,37943	5,228086	2,51925	354,3192	0,775	87,832	0	1015,48	7,7	9,6	9,4	1	1	1	1	1	1	1	1	1	0	1	-8,45666	275,159718	316,572618	0
15.01.2021	12:31:05	0	70,02803	2,841351	2,43075	3,0168	0,781	87,848	0	1015,48	7,8	9,5	9,4	1	1	1	1	1	1	1	1	1	0	1	-11,06413	275,059088	313,489935	0
15.01.2021	12:31:06	0	70,144846	4,432508	2,30775	11,7	0,783	87,838	0	1015,42	7,8	9,6	9,4	1	1	1	1	1	1	1	1	1	0	1	-9,302326	275,202329	315,928332	0
15.01.2021	12:31:07	0	70,379944	3,409621	2,2785	6,8004	0,781	87,851	0	1015,4	7,8	9,5	9,4	1	1	1	1	1	1	1	1	1	0	1	-10,359408	275,132937	314,543349	0
15.01.2021	12:31:08	0	70,14486	2,500389	2,31075	6,0624	0,785	87,855	0	1015,48	7,7	9,6	9,4	1	1	1	1	1	1	1	1	1	0	1	-6,624383	275,200749	318,598806	0
15.01.2021	12:31:09	0	70,614558	4,205199	2,25825	17,6904	0,786	87,872	0	1015,52	7,8	9,5	9,4	1	1	1	1	1	1	1	1	1	0	1	-8,80902	275,158142	316,212809	0
15.01.2021	12:31:10	0	70,61407	2,614042	2,09175	9,3672	0,789	87,85	0	1015,56	7,8	9,6	9,4	1	1	1	1	1	1	1	1	1	0	1	-12,966878	275,200749	312,256311	0
15.01.2021	12:31:11	0	70,731376	3,523274	1,93725	346,1976	0,789	87,858	0	1015,54	7,8	9,6	9,4	1	1	1	1	1	1	1	1	1	0	1	-15,292459	275,159718	309,736818	0
15.01.2021	12:31:12	0	70,614084	4,432506	1,94025	354,2904	0,787	87,869	0	1015,52	7,7	9,6	9,4	1	1	1	1	1	1	1	1	1	0	1	-12,403101	275,194431	312,790223	0
15.01.2021	12:31:13	0	71,083288	4,887122	1,98825	358,0956	0,786	87,869	0	1015,54	7,7	9,6	9,4	1	1	1	1	1	1	1	1	1	0	1	-9,302326	275,106193	315,474123	0
15.01.2021	12:31:14	0	70,614098	2,727696	2,0145	350,6364	0,785	87,867	0	1015,5	7,8	9,6	9,4	1	1	1	1	1	1	1	1	1	0	1	-6,342495	275,021486	318,034134	0
15.01.2021	12:31:15	0	71,083302	3,864213	1,90275	360	0,785	87,855	0	1015,48	7,8	9,6	9,5	1	1	1	1	1	1	1	1	1	0	1	-7,681466	275,192852	317,504394	0
15.01.2021	12:31:16	0	70,731907	3,864236	1,809	343,1916	0,791	87,859	0	1015,56	7,7	9,5	9,4	1	1	1	1	1	1	1	1	1	0	1	-5,637773	275,131363	319,257548	0
15.01.2021	12:31:17	0	70,848717	4,659813	1,85625	7,5024	0,784	87,853	0	1015,54	7,8	9,6	9,4	1	1	1	1	1	1	1	1	1	0	1	-6,20155	275,21181	319,073931	0
15.01.2021	12:31:18	0	71,201121	4,546159	1,96725	360	0,788	87,849	0	1015,38	7,8	9,5	9,4	1	1	1	1	1	1	1	1	1	0	1	-10,641297	275,101478	314,112884	0
15.01.2021	12:31:19	0	71,08333	4,546159	1,9755	6,0552	0,787	87,849	0	1015,52	7,8	9,6	9,4	1	1	1	1	1	1	1	1	1	0	1	-5,84919	275,060656	318,712278	0
15.01.2021	12:31:20	0	71,317935	3,523273	1,9305	7,5024	0,784	87,821	0	1015,38	7,8	9,6	9,4	1	1	1	1	1	1	1	1	1	0	1	-11,41649	275,188115	313,74698	0
15.01.2021	12:31:21	0	71,083344	3,636927	1,794	8,2512	0,784	87,827	0	1015,52	7,8	9,6	9,4	1	1	1	1	1	1	1	1	1	0	1	-9,44327	275,071638	315,170033	0
15.01.2021	12:31:22	0	71,20065	3,864235	1,76325	4,4568	0,789	87,829	0	1015,48	7,8	9,6	9,4	1	1	1	1	1	1	1	1	1	0	1	-8,245243	275,202329	316,985414	0
15.01.2021	12:31:23	0	71,435255	3,182311	1,76925	10,0728	0,789	87,816	0	1015,52	7,8	9,6	9,4	1	1	1	1	1	1	1	1	1	0	1	-7,329105	275,109338	317,462193	0
15.01.2021	12:31:24	0	70,966065	2,955003	1,839	10,4508	0,784	87,823	0	1015,44	7,7	9,6	9,4	1	1	1	1	1	1	1	1	1	0	1	-6,342495	275,032446	318,085843	0
15.01.2021	12:31:25	0	71,20067	2,045771	1,84125	5,6844	0,788	87,82	0	1015,48	7,7	9,6	9,4	1	1	1	1	1	1	1	1	1	0	1	-7,399577	275,084197	317,273011	0
15.01.2021	12:31:26	0	70,849276	2,500372	1,79925	360	0,79	87,819	0	1015,6	7,7	9,5	9,5	1	1	1	1	1	1	1	1	1	0	1	-11,698379	275,221297	313,621952	0
15.01.2021	12:31:27	0	71,083883	2,841348	1,73625	353,5848	0,787	87,8	0	1015,56	7,7	9,5	9,4	1	1	1	1	1	1	1	1	1	0	1	-11,275546	275,088908	313,419286	0
15.01.2021	12:31:28	0	71,200691	3,068656	1,719	359,298	0,794	87,8	0	1015,3	7,8	9,6	9,4	1	1	1	1	1	1	1	1	1	0	1	-8,45666	275,032446	315,971678	0
15.01.2021	12:31:29	0	71,552596	2,955002	1,782	0	0,793	87,798	0	1015,46	7,8	9,6	9,4	1	1	1	1	1	1	1	1	1	0	1	-7,188161	275,084197	317,484428	0
15.01.2021	12:31:30	0	71,435804	3,295963	1,86525	353,2644	0,79	87,798	0	1015,46	7,7	9,5	9,4	1	1	1	1	1	1	1	1	1	0	1	-7,258633	275,034012	317,177095	0
15.01.2021	12:31:31	0	71,083412	2,727694	1,95675	360	0,787	87,799	0	1015,44	7,7	9,6	9,4	1	1	1	1	1	1	1	1	1	0	1	-9,020437	275,077916	315,622503	0
15.01.2021	12:31:32	0	71,669916	3,750579	2,004	350,748	0,789	87,786	0	1015,58	7,7	9,6	9,4	1	1	1	1	1	1	1	1	1	0	1	-10,641297	275,032446	313,787041	0
15.01.2021	12:31:33	0	71,552623	4,432502	2,031	356,1624	0,785	87,774	0	1015,36	7,8	9,6	9,4	1	1	1	1	1	1	1	1	1	0	1	-7,399577	275,136086	317,518054	0
15.01.2021	12:31:34	0	71,435831	3,636925	2,0925	352,1916	0,791	87,792	0	1015,52	7,8	9,5	9,4	1	1	1	1	1	1	1	1	1	0	1	-6,694856	275,21023	318,573153	0
15.01.2021	12:31:35	0	71,200739	4,318822	2,10825	351,396	0,788	87,79	0	1015,46	7,8	9,6	9,5	1	1	1	1	1	1	1	1	1	0	1	-7,82241	275,112483	316,983739	0
15.01.2021	12:31:36	0	71,200745	3,068655	2,08725	346,1796	0,785	87,795	0	1015,52	7,7	9,6	9,4	1	1	1	1	1	1	1	1	1	0	1	-9,866103	275,029314	314,547457	0
15.01.2021	12:31:37	0	71,66995	4,546155	1,98	354,726	0,787	87,786	0	1015,48	7,7	9,6	9,4	1	1	1	1	1	1	1	1	1	0	1	-7,892882	275,098334	316,846457	0
15.01.2021	12:31:38	0	71,670459	4,659809	1,92375	350,6544	0,789	87,792	0	1015,5	7,8	9,5	9,4	1	1	1	1	1	1	1	1	1	0	1	-7,399577	275,21023	317,868431	0
15.01.2021	12:31:39	0	71,318565	5,114424	1,92375	4,068	0,79	87,796	0	1015,38	7,8	9,5	9,4	1	1	1	1	1	1	1	1	1	0	1	-3,312192	275,14396	321,642636	0
15.01.2021	12:31:40	0	71,552671	3,182289	1,938	354,618	0,784	87,802	0	1015,52	7,7	9,6	9,5	1	1	1	1	1	1	1	1	1	0	1	-9,866103	275,208649	315,394434	0
15.01.2021	12:31:41	0	71,553179	3,068636	1,97775	1,9152	0,787	87,769	0	1015,46	7,8	9,5	9,5	1	1	1	1	1	1	1	1	1	0	1	-8,033827	275,14396	316,921002	0
15.01.2021	12:31:42	0	71,669984	4,4325	1,97175	355,3776	0,791	87,778	0	1015,6	7,7	9,6	9,4	1	1	1	1	1	1	1	1	1	0	1	-7,681466	275,214972	317,608962	0
15.01.2021	12:31:43	0	72,139694	4,318846	1,9335	349,4376	0,791	87,792	0	1015,5	7,8	9,5	9,4	1	1	1	1	1	1	1	1	1	0	1	-7,963354	275,103049	316,798248	0
15.01.2021	12:31:44	0	72,139701	3,636901	1,986	346,9032	0,789	87,786	0	1015,54	7,7	9,5	9,5	1	1	1	1	1	1	1	1	1	0	1	-11,205074	275,186536	313,950935	0
15.01.2021	12:31:45	0	71,905107	3,977884	1,97025	348,732	0,782	87,776	0	1015,4	7,7	9,5	9,4	1	1	1	1	1	1	1	1	1	0	1	-8,386187	275,188115	316,777283	0
15.01.2021	12:31:46	0	71,552711	3,182307	1,989	346,5936	0,788	87,788	0	1015,46	7,8	9,6	9,4	1	1	1	1	1	1	1	1	1	0	1	-5,567301	275,046546	318,927572	0
15.01.2021	12:31:47	0	71,90512	3,068653	1,8465	347,994	0,791	87,782	0	1015,5	7,7	9,5	9,4	1	1	1	1	1	1	1	1	1	0	1	-5,567301	275,173911	319,529043	0
15.01.2021	12:31:48	0	71,787323	4,432472	1,833	359,4276	0,783	87,767	0	1015,4	7,7	9,6	9,5	1	1	1	1	1	1	1	1	1	0	1	-5,285412	275,21023	319,982596	0
15.01.2021	12:31:49	0	71,786827	3,068635	1,88625	352,8288	0,785	87,78	0	1015,5	7,8	9,7	9,5	1	1	1	1	1	1	1	1	1	0	1	-13,601128	275,114055	311,212449	0
15.01.2021	12:31:50	0	71,904636	2,614038	1,92525	350,6868	0,806	87,775	0	1015,76	7,8	9,6	9,4	1	1	1	1	1	1	1	1	1	0	1	-8,879493	275,19759	316,328762	0
15.01.2021	12:31:51	0	72,021943	4,205166	1,91475	350,316	0,79	87,788	0	1015,5	7,7	9,6	9,5	1	1	1	1	1	1	1	1	1	0	1	-8,45666	275,216553	316,841243	0
15.01.2021	12:31:52	0	71,905153	2,841345	1,8735	352,782	0,788	87,776	0	1015,7	7,8	9,5	9,4	1	1	1	1	1	1	1	1	1	0	1	-8,174771	275,175489	316,929029	0
15.01.2021	12:31:53	0	71,670057	4,20519	1,842	357,2568	0,788	87,775	0	1015,6	7,8	9,6	9,4	1	1	1	1	1	1	1	1	1	0	1	-6,131078	275,041845	318,34161	0
15.01.2021	12:31:54	0	71,787363	3,523267	1,8015	358,7364	0,792	87,777	0	1015,48	7,8	9,6	9,4	1	1	1	1	1	1	1	1	1	0	1	-13,812544	275,175489	311,291256	0
15.01.2021	12:31:55	0	72,022474	3,636921	1,72425	359,8416	0,792	87,786	0	1015,38	7,7	9,5	9,4	1	1	1	1	1	1	1	1	1	0	1	-8,45666	275,21181	316,818821	0
15.01.2021	12:31:56	0	72,139275	4,546151	1,65975	358,686	0,785	87,781	0	1015,38	7,8	9,6	9,4	1	1	1	1	1	1	1	1	1	0	1	-11,768851	275,128215	313,111601	0
15.01.2021	12:31:57	0	71,904683	2,954998	1,7205	7,1064	0,786	87,805	0	1015,6	7,8	9,6	9,4	1	1	1	1	1	1	1	1	1	0	1	-9,795631	275,044979	314,691847	0
15.01.2021	12:31:58	0	72,021989	3,636921	1,65675	355,4352	0,787	87,78	0	1015,52	7,7	9,6	9,4	1	1	1	1	1	1	1	1	1	0	1	-6,412967	275,19759	318,795288	0
15.01.2021	12:31:59	0	72,021491	4,43247	1,593	356,2848	0,801	87,796	0	1015,52	7,8	9,7	9,5	1	1	1	1	1	1	1	1	1	0	1	-8,245243	275,183379	316,895846	0
15.01.2021	12:32:00	0	72,374415	2,954998	1,554	356,1984	0,785	87,782	0	1015,5	7,8	9,5	9,4	1	1	1	1	1	1	1	1	1	0	1	-10,007047	275,090479	314,695201	0
15.01.2021	12:32:01	0	72,374415	2,954998	1,554	356,1984	0,785	87,782	0	1015,5	7,8	9,5	9,4	1	1	1	1	1	1	1	1	1	0	1	-10,007047	275,090479	314,695201	0
15.01.2021	12:32:02	0	71,904715	3,750551	1,602	13,9104	0,791	87,784	0	1015,54	7,8	9,6	9,5	1	1	1	1	1	1	1	1	1	0	1	-12,262156	275,222878	313,065653	0
15.01.2021	12:32:03	0	72,022526	2,614036	1,5675	351,378	0,791	87,804	0	1015,4	7,8	9,5	9,4	1	1	1	1	1	1	1	1	1	0	1	-14,65821	275,159718	310,371067	0
15.01.2021	12:32:04	0	72,138823	4,318842	1,51275	0,864	0,788	87,797	0	1015,52	7,7	9,7	9,4	1	1	1	1	1	1	1	1	1	0	1	-5,21494	274,868698	318,44146	0
15.01.2021	12:32:05	0	72,139334	3,409612	1,485	5,6664	0,793	87,81	0	1015,4	7,8	9,6	9,4	1	1	1	1	1	1	1	1	1	0	1	-12,684989	275,125068	312,180596	0
15.01.2021	12:32:06	0	71,905245	3,977881	1,46625	15,0192	0,784	87,809	0	1015,48	7,8	9,5	9,4	1	1	1	1	1	1	1	1	1	0	1	-7,751938	275,034012	316,68379	0
15.01.2021	12:32:07	0	72,608546	4,773428	1,44675	8,9964	0,793	87,815	0	1015,44	7,7	9,6	9,5	1	1	1	1	1	1	1	1	1	0	1	-10,218464	275,177067	314,892793	0
15.01.2021	12:32:08	0	72,022054	3,409612	1,40025	1,9188	0,794	87,82	0	1015,38	7,7	9,6	9,4	1	1	1	1	1	1	1	1	1	0	1	-10,218464	275,219715	315,094391	0
15.01.2021	12:32:09	0	71,786958	4,432495	1,34475	357,4908	0,789	87,813	0	1015,52	7,7	9,7	9,4	1	1	1	1	1	1	1	1	1	0	1	-11,346018	275,093621	313,371064	0
15.01.2021	12:32:10	0	72,139872	4,546148	1,37775	2,2932	0,799	87,825	0	1015,42	7,8	9,5	9,4	1	1	1	1	1	1	1	1	1	0	1	-6,131078	275,095192	318,593422	0
15.01.2021	12:32:11	0	71,904774	3,636919	1,46625	3,3948	0,791	87,799	0	1015,5	7,7	9,6	9,4	1	1	1	1	1	1	1	1	1	0	1	-9,44327	275,233953	315,936904	0
15.01.2021	12:32:12	0	72,13938	4,659802	1,42125	359,9928	0,792	87,798	0	1015,5	7,8	9,6	9,4	1	1	1	1	1	1	1	1	1	0	1	-8,949965	275,137661	315,975104	0
15.01.2021	12:32:13	0	71,904786	3,182303	1,46025	356,2092	0,793	87,817	0	1015,66	7,8	9,6	9,4	1	1	1	1	1	1	1	1	1	0	1	-11,205074	275,169179	313,868908	0
15.01.2021	12:32:14	0	72,022597	2,841325	1,5585	351,7416	0,795	87,804	0	1015,48	7,8	9,5	9,5	1	1	1	1	1	1	1	1	1	0	1	-12,121212	275,227624	313,229035	0
15.01.2021	12:32:15	0	71,904799	3,182303	1,58775	0,8532	0,785	87,823	0	1015,48	7,8	9,6	9,4	1	1	1	1	1	1	1	1	1	0	1	-7,892882	275,169179	317,1811	0
15.01.2021	12:32:16	0	72,139405	2,386727	1,5555	351,0108	0,791	87,818	0	1015,46	7,8	9,6	9,4	1	1	1	1	1	1	1	1	1	0	1	-10,993658	275,218134	314,311721	0
15.01.2021	12:32:17	0	72,491819	4,887108	1,58175	344,6352	0,797	87,833	0	1015,54	7,7	9,5	9,4	1	1	1	1	1	1	1	1	1	0	1	-7,047216	275,093621	317,669866	0
15.01.2021	12:32:18	0	72,374018	5,341723	1,578	349,8804	0,796	87,824	0	1015,66	7,7	9,6	9,4	1	1	1	1	1	1	1	1	1	0	1	-13,601128	275,221297	311,719204	0
15.01.2021	12:32:19	0	72,256218	3,068631	1,60875	348,3108	0,799	87,828	0	1015,28	7,8	9,7	9,5	1	1	1	1	1	1	1	1	1	0	1	-11,557435	275,106193	313,219014	0
15.01.2021	12:32:20	0	72,49133	4,546146	1,52175	348,0696	0,797	87,832	0	1015,46	7,8	9,6	9,4	1	1	1	1	1	1	1	1	1	0	1	-9,654686	275,218134	315,650692	0
15.01.2021	12:32:21	0	72,491337	4,205185	1,48275	353,1708	0,801	87,823	0	1015,28	7,8	9,6	9,4	1	1	1	1	1	1	1	1	1	0	1	-6,906272	275,103049	317,855331	0
15.01.2021	12:32:22	0	72,022143	2,841324	1,422	351,6768	0,792	87,842	0	1015,5	7,8	9,6	9,5	1	1	1	1	1	1	1	1	1	0	1	-10,288936	275,19601	314,911853	0
15.01.2021	12:32:23	0	72,491349	4,773425	1,43325	348,732	0,799	87,847	0	1015,4	7,8	9,6	9,5	1	1	1	1	1	1	1	1	1	0	1	-8,668076	275,218134	316,637302	0
15.01.2021	12:32:24	0	72,491863	3,182283	1,5165	344,2644	0,798	87,832	0	1015,46	7,8	9,5	9,5	1	1	1	1	1	1	1	1	1	0	1	-9,725159	275,148686	315,251997	0
15.01.2021	12:32:25	0	72,256762	4,773453	1,58775	349,9668	0,802	87,85	0	1015,52	7,8	9,6	9,4	1	1	1	1	1	1	1	1	1	0	1	-10,147992	275,052816	314,376472	0
15.01.2021	12:32:26	0	72,374575	3,409609	1,56	342,7092	0,801	87,857	0	1015,44	7,8	9,5	9,4	1	1	1	1	1	1	1	1	1	0	1	-6,694856	275,161295	318,341871	0
15.01.2021	12:32:27	0	72,256774	2,273059	1,44525	347,6124	0,794	87,845	0	1015,38	7,7	9,6	9,5	1	1	1	1	1	1	1	1	1	0	1	-9,020437	275,213391	316,262517	0
15.01.2021	12:32:28	0	72,72649	4,205184	1,35375	345,0168	0,803	87,848	0	1015,48	7,8	9,5	9,4	1	1	1	1	1	1	1	1	1	0	1	-9,513742	275,117201	315,31469	0
15.01.2021	12:32:29	0	72,139992	2,500365	1,3965	352,8252	0,801	87,853	0	1015,56	7,8	9,5	9,5	1	1	1	1	1	1	1	1	1	0	1	-6,060606	275,241867	319,356993	0
15.01.2021	12:32:30	0	72,608693	3,636894	1,49625	355,5468	0,799	87,84	0	1015,48	7,8	9,6	9,5	1	1	1	1	1	1	1	1	1	0	1	-6,624383	275,101478	318,129797	0
15.01.2021	12:32:31	0	72,374099	3,295955	1,5585	349,4628	0,798	87,841	0	1015,44	7,8	9,6	9,4	1	1	1	1	1	1	1	1	1	0	1	-8,597604	275,060656	315,963863	0
15.01.2021	12:32:32	0	72,256806	2,72767	1,66425	352,08	0,797	87,852	0	1015,5	7,8	9,6	9,5	1	1	1	1	1	1	1	1	1	0	1	-9,725159	275,172334	315,363731	0
15.01.2021	12:32:33	0	72,256812	2,614017	1,59225	352,0836	0,799	87,867	0	1015,48	7,8	9,6	9,5	1	1	1	1	1	1	1	1	1	0	1	-8,527132	275,073207	316,09358	0
15.01.2021	12:32:34	0	72,843318	4,091505	1,53075	350,5536	0,795	87,838	0	1015,4	7,8	9,6	9,5	1	1	1	1	1	1	1	1	1	0	1	-9,513742	275,159718	315,515535	0
15.01.2021	12:32:35	0	72,843324	4,659797	1,46775	354,2184	0,81	87,872	0	1015,5	7,7	9,6	9,4	1	1	1	1	1	1	1	1	1	0	1	-11,768851	275,24345	313,656235	0
15.01.2021	12:32:36	0	72,60873	2,841323	1,44075	354,1752	0,803	87,864	0	1015,54	7,8	9,6	9,5	1	1	1	1	1	1	1	1	1	0	1	-6,624383	275,128215	318,256069	0
15.01.2021	12:32:37	0	72,25633	3,977851	1,4265	343,1016	0,802	87,861	0	1015,4	7,8	9,7	9,5	1	1	1	1	1	1	1	1	1	0	1	-10,077519	275,062225	314,491351	0
15.01.2021	12:32:38	0	72,37465	3,636893	1,4475	360	0,805	87,867	0	1015,46	7,7	9,5	9,5	1	1	1	1	1	1	1	1	1	0	1	-10,993658	275,05752	313,553006	0
15.01.2021	12:32:39	0	72,491449	2,727686	1,419	4,0788	0,804	87,878	0	1015,48	7,8	9,6	9,4	1	1	1	1	1	1	1	1	1	0	1	-13,248767	275,254536	312,228751	0
15.01.2021	12:32:40	0	72,490947	2,954975	1,452	1,5408	0,806	87,879	0	1015,56	7,8	9,7	9,5	1	1	1	1	1	1	1	1	1	0	1	-7,047216	275,162871	317,99696	0
15.01.2021	12:32:41	0	72,726571	4,318809	1,4625	0,1152	0,806	87,88	0	1015,38	7,8	9,5	9,5	1	1	1	1	1	1	1	1	1	0	1	-8,949965	275,233953	316,430209	0
15.01.2021	12:32:42	0	72,960668	4,887074	1,49175	351,3132	0,802	87,872	0	1015,5	7,8	9,6	9,5	1	1	1	1	1	1	1	1	1	0	1	-7,470049	275,123494	317,388104	0
15.01.2021	12:32:43	0	72,843374	3,18228	1,53825	358,776	0,808	87,884	0	1015,52	7,8	9,6	9,5	1	1	1	1	1	1	1	1	1	0	1	-6,060606	275,065362	318,523072	0
15.01.2021	12:32:44	0	72,608271	5,000726	1,59075	5,2092	0,807	87,883	0	1015,6	7,8	9,7	9,5	1	1	1	1	1	1	1	1	1	0	1	-9,866103	275,158142	315,155726	0
15.01.2021	12:32:45	0	72,609294	4,659767	1,6935	4,464	0,809	87,886	0	1015,56	7,8	9,5	9,5	1	1	1	1	1	1	1	1	1	0	1	-11,205074	275,233953	314,1751	0
15.01.2021	12:32:46	0	72,843902	4,205181	1,71525	4,8348	0,809	87,881	0	1015,48	7,7	9,5	9,4	1	1	1	1	1	1	1	1	1	0	1	-9,654686	275,112483	315,151463	0
15.01.2021	12:32:47	0	72,961209	5,000725	1,72725	359,4708	0,807	87,888	0	1015,5	7,8	9,5	9,5	1	1	1	1	1	1	1	1	1	0	1	-13,248767	275,076347	311,386763	0
15.01.2021	12:32:48	0	72,960704	4,205155	1,773	357,8904	0,804	87,895	0	1015,6	7,7	9,6	9,5	1	1	1	1	1	1	1	1	1	0	1	-10,641297	275,192852	314,544563	0
15.01.2021	12:32:49	0	72,609318	2,841321	1,86	0,2232	0,805	87,897	0	1015,46	7,8	9,5	9,5	1	1	1	1	1	1	1	1	1	0	1	-5,355884	275,107765	319,427988	0
15.01.2021	12:32:50	0	72,608816	2,38671	1,86975	3,0168	0,808	87,884	0	1015,56	7,8	9,6	9,5	1	1	1	1	1	1	1	1	1	0	1	-8,668076	275,084197	316,004512	0
15.01.2021	12:32:51	0	72,961233	2,38671	1,896	351,3888	0,809	87,917	0	1015,52	7,8	9,5	9,5	1	1	1	1	1	1	1	1	1	0	1	-8,033827	275,161295	317,0029	0
15.01.2021	12:32:52	0	73,078028	2,727668	1,926	354,7116	0,81	87,911	0	1015,56	7,8	9,6	9,5	1	1	1	1	1	1	1	1	1	0	1	-11,627907	275,114055	313,185669	0
15.01.2021	12:32:53	0	73,078034	5,114377	1,92375	346,1904	0,811	87,905	0	1015,56	7,8	9,6	9,5	1	1	1	1	1	1	1	1	1	0	1	-9,090909	275,241867	316,32669	0
15.01.2021	12:32:54	0	73,078552	3,977849	1,8255	352,8108	0,805	87,891	0	1015,48	7,8	9,5	9,5	1	1	1	1	1	1	1	1	1	0	1	-10,923185	275,096763	313,808734	0
15.01.2021	12:32:55	0	72,960746	2,84132	1,776	357,1344	0,806	87,903	0	1015,42	7,8	9,6	9,5	1	1	1	1	1	1	1	1	1	0	1	-11,698379	275,240284	313,711733	0
15.01.2021	12:32:56	0	72,960752	3,068644	1,7835	352,8072	0,807	87,898	0	1015,5	7,8	9,6	9,4	1	1	1	1	1	1	1	1	1	0	1	-7,751938	275,19759	317,456317	0
15.01.2021	12:32:57	0	72,608857	2,614015	1,82475	7,5024	0,81	87,92	0	1015,54	7,8	9,6	9,5	1	1	1	1	1	1	1	1	1	0	1	-6,412967	275,088908	318,281865	0
15.01.2021	12:32:58	0	73,078064	3,977848	1,91625	354,2976	0,806	87,91	0	1015,38	7,8	9,6	9,5	1	1	1	1	1	1	1	1	1	0	1	-11,205074	275,136086	313,712557	0
15.01.2021	12:32:59	0	73,195371	2,500362	1,974	356,6052	0,81	87,906	0	1015,4	7,8	9,6	9,5	1	1	1	1	1	1	1	1	1	0	1	-6,8358	275,249784	318,619243	0
15.01.2021	12:33:00	0	73,078082	3,068644	1,9695	354,2148	0,813	87,918	0	1015,46	7,8	9,6	9,4	1	1	1	1	1	1	1	1	1	0	1	-7,681466	275,073207	316,939246	0
15.01.2021	12:33:01	0	73,078082	3,068644	1,9695	354,2148	0,813	87,918	0	1015,46	7,8	9,6	9,4	1	1	1	1	1	1	1	1	1	0	1	-9,302326	275,098334	315,437014	0
15.01.2021	12:33:02	0	73,195901	3,182297	1,965	353,43	0,809	87,917	0	1015,54	7,8	9,5	9,4	1	1	1	1	1	1	1	1	1	0	1	-9,302326	275,134512	315,607868	0
15.01.2021	12:33:03	0	73,664595	4,546111	2,064	356,1876	0,813	87,916	0	1015,28	7,8	9,6	9,5	1	1	1	1	1	1	1	1	1	0	1	-13,319239	275,227624	312,031008	0
15.01.2021	12:33:04	0	73,547301	4,432458	2,082	360	0,81	87,917	0	1015,3	7,8	9,6	9,5	1	1	1	1	1	1	1	1	1	0	1	-4,721635	275,084197	319,950953	0
15.01.2021	12:33:05	0	73,781908	4,205178	2,11875	356,0976	0,813	87,924	0	1015,46	7,8	9,6	9,4	1	1	1	1	1	1	1	1	1	0	1	-11,980268	275,139235	312,95224	0
15.01.2021	12:33:06	0	73,195412	3,977847	2,0655	0,486	0,815	87,941	0	1015,5	7,8	9,6	9,5	1	1	1	1	1	1	1	1	1	0	1	-8,668076	274,935589	315,303495	0
15.01.2021	12:33:07	0	73,664619	3,977871	2,00175	0,4644	0,813	87,925	0	1015,58	7,8	9,6	9,4	1	1	1	1	1	1	1	1	1	0	1	-9,44327	275,131363	315,452052	0
15.01.2021	12:33:08	0	73,078123	2,727683	1,92075	360	0,818	87,922	0	1015,58	7,8	9,6	9,4	1	1	1	1	1	1	1	1	1	0	1	-12,473573	275,087337	312,213844	0
15.01.2021	12:33:09	0	72,960829	2,727666	1,95	3,7692	0,82	87,932	0	1015,52	7,8	9,6	9,5	1	1	1	1	1	1	1	1	1	0	1	-6,765328	275,136086	318,152303	0
15.01.2021	12:33:10	0	73,312736	3,523235	2,03625	2,2932	0,819	87,931	0	1015,52	7,8	9,6	9,5	1	1	1	1	1	1	1	1	1	0	1	-9,795631	275,076347	314,839899	0
15.01.2021	12:33:11	0	73,781943	4,65979	2,07	356,9832	0,817	87,93	0	1015,5	7,8	9,6	9,4	1	1	1	1	1	1	1	1	1	0	1	-9,020437	275,134512	315,889757	0
15.01.2021	12:33:12	0	73,781949	3,864193	2,127	11,2104	0,818	87,909	0	1015,5	7,8	9,6	9,5	1	1	1	1	1	1	1	1	1	0	1	-9,020437	275,264043	316,502052	0
15.01.2021	12:33:13	0	73,430053	4,318804	2,09625	6,8076	0,818	87,912	0	1015,5	7,8	9,6	9,5	1	1	1	1	1	1	1	1	1	0	1	-11,557435	275,126641	313,315584	0
15.01.2021	12:33:14	0	73,78196	4,432457	2,118	6,8112	0,817	87,929	0	1015,48	7,8	9,6	9,5	1	1	1	1	1	1	1	1	1	0	1	-9,584214	275,082626	315,080961	0
15.01.2021	12:33:15	0	74,016049	4,205176	2,0805	6,8148	0,823	87,936	0	1015,44	7,8	9,7	9,4	1	1	1	1	1	1	1	1	1	0	1	-8,527132	275,268798	317,017852	0
15.01.2021	12:33:16	0	73,664156	2,614013	1,96275	354,6792	0,816	87,938	0	1015,52	7,8	9,7	9,5	1	1	1	1	1	1	1	1	1	0	1	-9,44327	275,184957	315,705279	0
15.01.2021	12:33:17	0	73,547377	3,409582	1,836	4,8276	0,82	87,934	0	1015,54	7,8	9,6	9,5	1	1	1	1	1	1	1	1	1	0	1	-10,500352	275,246617	314,939711	0
15.01.2021	12:33:18	0	74,016066	3,75054	1,7055	3,0348	0,822	87,942	0	1015,46	7,8	9,7	9,5	1	1	1	1	1	1	1	1	1	0	1	-8,597604	275,184957	316,550945	0
15.01.2021	12:33:19	0	73,781989	4,20515	1,66125	3,762	0,824	87,946	0	1015,5	7,8	9,6	9,5	1	1	1	1	1	1	1	1	1	0	1	-12,614517	275,25612	312,870494	0
15.01.2021	12:33:20	0	73,899296	4,546108	1,59675	11,7288	0,827	87,938	0	1015,44	7,8	9,6	9,5	1	1	1	1	1	1	1	1	1	0	1	-8,597604	275,14081	316,342343	0
15.01.2021	12:33:21	0	73,782001	3,068623	1,56525	8,3376	0,824	87,958	0	1015,58	7,8	9,6	9,5	1	1	1	1	1	1	1	1	1	0	1	-13,530655	275,101478	311,223525	0
15.01.2021	12:33:22	0	74,133908	3,409581	1,578	7,8696	0,826	87,931	0	1015,6	7,8	9,6	9,5	1	1	1	1	1	1	1	1	1	0	1	-8,597604	275,14396	316,357224	0
15.01.2021	12:33:23	0	73,782012	2,841317	1,57425	2,304	0,825	87,952	0	1015,52	7,8	9,6	9,5	1	1	1	1	1	1	1	1	1	0	1	-4,651163	275,09205	320,058502	0
15.01.2021	12:33:24	0	74,36852	4,205175	1,641	356,9148	0,824	87,953	0	1015,58	7,8	9,6	9,4	1	1	1	1	1	1	1	1	1	0	1	-8,597604	275,170756	316,483831	0
15.01.2021	12:33:25	0	74,603127	4,659788	1,72425	358,3836	0,826	87,95	0	1015,56	7,8	9,6	9,4	1	1	1	1	1	1	1	1	1	0	1	-8,315715	275,275141	317,259272	0
15.01.2021	12:33:26	0	74,368532	3,977844	1,8855	351,6696	0,826	87,952	0	1015,56	7,8	9,6	9,5	1	1	1	1	1	1	1	1	1	0	1	-9,513742	275,121921	315,33698	0
15.01.2021	12:33:27	0	74,485838	3,636886	2,013	7,1172	0,824	87,946	0	1015,54	7,8	9,6	9,5	1	1	1	1	1	1	1	1	1	0	1	-8,45666	275,134512	316,453534	0
15.01.2021	12:33:28	0	74,251243	3,068622	2,0175	360	0,823	87,953	0	1015,52	7,8	9,6	9,5	1	1	1	1	1	1	1	1	1	0	1	-12,05074	275,276727	313,531751	0
15.01.2021	12:33:29	0	74,60315	4,205149	2,00325	358,4196	0,822	87,944	0	1015,44	7,8	9,6	9,5	1	1	1	1	1	1	1	1	1	0	1	-7,188161	275,161295	317,848566	0
15.01.2021	12:33:30	0	74,133953	2,386706	2,01825	1,5516	0,828	87,93	0	1015,66	7,8	9,6	9,5	1	1	1	1	1	1	1	1	1	0	1	-11,839323	275,264043	313,683165	0
15.01.2021	12:33:31	0	74,603161	4,205148	2,02875	355,8384	0,824	87,954	0	1015,38	7,8	9,6	9,5	1	1	1	1	1	1	1	1	1	0	1	-9,302326	275,148686	315,67483	0
15.01.2021	12:33:32	0	74,485866	4,091496	2,00475	354,6648	0,829	87,943	0	1015,3	7,8	9,6	9,5	1	1	1	1	1	1	1	1	1	0	1	-12,191684	275,230788	313,173524	0
15.01.2021	12:33:33	0	74,251271	2,38672	1,96125	351,8496	0,832	87,951	0	1015,64	7,8	9,6	9,4	1	1	1	1	1	1	1	1	1	0	1	-7,188161	275,093621	317,528922	0
15.01.2021	12:33:34	0	74,485356	3,977843	1,90875	350,1468	0,828	87,943	0	1015,54	7,8	9,7	9,5	1	1	1	1	1	1	1	1	1	0	1	-9,020437	275,233953	316,359737	0
15.01.2021	12:33:35	0	74,251282	3,636885	1,94325	352,0368	0,824	87,94	0	1015,56	7,8	9,6	9,5	1	1	1	1	1	1	1	1	1	0	1	-12,262156	275,265628	313,26783	0
15.01.2021	12:33:36	0	74,133468	4,887063	1,99425	348,7356	0,832	87,939	0	1015,54	7,8	9,7	9,5	1	1	1	1	1	1	1	1	1	0	1	-13,03735	275,241867	312,380249	0
15.01.2021	12:33:37	0	74,485895	2,727663	2,10225	355,4748	0,824	87,951	0	1015,46	7,8	9,6	9,5	1	1	1	1	1	1	1	1	1	0	1	-9,161381	275,208649	316,099156	0
15.01.2021	12:33:38	0	74,251299	2,841316	2,2545	349,4736	0,835	87,947	0	1015,56	7,8	9,6	9,5	1	1	1	1	1	1	1	1	1	0	1	-10,077519	275,096763	314,6544	0
15.01.2021	12:33:39	0	74,485906	2,500358	2,2425	1,9116	0,832	87,948	0	1015,48	7,8	9,6	9,5	1	1	1	1	1	1	1	1	1	0	1	-9,372798	275,191272	315,805598	0
15.01.2021	12:33:40	0	74,368611	2,841316	2,13	3,024	0,826	87,94	0	1015,48	7,8	9,6	9,5	1	1	1	1	1	1	1	1	1	0	1	-7,751938	275,264043	317,77055	0
15.01.2021	12:33:41	0	74,719995	2,841315	2,0385	352,6524	0,836	87,956	0	1015,52	7,8	9,7	9,5	1	1	1	1	1	1	1	1	1	0	1	-10,993658	275,129789	313,894229	0
15.01.2021	12:33:42	0	74,485922	3,409599	1,9485	0,1224	0,838	87,963	0	1015,62	7,8	9,6	9,4	1	1	1	1	1	1	1	1	1	0	1	-9,302326	275,2482	316,145227	0
15.01.2021	12:33:43	0	74,95513	4,887092	1,9155	357,6924	0,836	87,934	0	1015,56	7,8	9,6	9,4	1	1	1	1	1	1	1	1	1	0	1	-8,668076	275,181801	316,465553	0
15.01.2021	12:33:44	0	74,602711	2,954985	1,833	0,4752	0,834	87,952	0	1015,56	7,8	9,7	9,4	1	1	1	1	1	1	1	1	1	0	1	-11,134602	275,112483	313,671548	0
15.01.2021	12:33:45	0	74,837841	3,06862	1,7655	357,6852	0,833	87,931	0	1015,56	7,8	9,6	9,5	1	1	1	1	1	1	1	1	1	0	1	-8,104299	275,164448	316,947328	0
15.01.2021	12:33:46	0	74,837846	4,773409	1,72425	350,37	0,831	87,943	0	1015,48	7,8	9,6	9,5	1	1	1	1	1	1	1	1	1	0	1	-8,879493	275,278313	316,710502	0
15.01.2021	12:33:47	0	74,955153	4,773438	1,72575	346,5396	0,838	87,962	0	1015,54	7,8	9,6	9,4	1	1	1	1	1	1	1	1	1	0	1	-9,866103	275,202329	315,364554	0
15.01.2021	12:33:48	0	74,720557	3,977841	1,65375	354,4092	0,833	87,945	0	1015,58	7,8	9,6	9,5	1	1	1	1	1	1	1	1	1	0	1	-10,782241	275,093621	313,934841	0
15.01.2021	12:33:49	0	74,837863	2,727662	1,5585	360	0,829	87,952	0	1015,48	7,8	9,6	9,5	1	1	1	1	1	1	1	1	1	0	1	-13,107822	275,169179	311,96616	0
15.01.2021	12:33:50	0	75,07247	4,432451	1,5165	351,378	0,839	87,944	0	1015,5	7,8	9,6	9,5	1	1	1	1	1	1	1	1	1	0	1	-5,003524	275,098334	319,735816	0
15.01.2021	12:33:51	0	74,954649	4,773408	1,461	359,1252	0,831	87,959	0	1015,42	7,8	9,7	9,5	1	1	1	1	1	1	1	1	1	0	1	-8,45666	275,158142	316,56517	0
15.01.2021	12:33:52	0	75,072481	3,068638	1,50975	358,164	0,84	87,962	0	1015,48	7,8	9,6	9,4	1	1	1	1	1	1	1	1	1	0	1	-11,346018	275,249784	314,109024	0
15.01.2021	12:33:53	0	74,720584	3,409577	1,554	358,4628	0,835	87,969	0	1015,5	7,8	9,6	9,5	1	1	1	1	1	1	1	1	1	0	1	-8,80902	275,099906	315,937739	0
15.01.2021	12:33:54	0	75,424394	4,43245	1,608	4,4676	0,835	87,955	0	1015,46	7,8	9,6	9,5	1	1	1	1	1	1	1	1	1	0	1	-11,627907	275,216553	313,669996	0
15.01.2021	12:33:55	0	74,837895	2,954967	1,5435	359,8524	0,832	87,974	0	1015,4	7,8	9,6	9,5	1	1	1	1	1	1	1	1	1	0	1	-11,839323	275,115628	312,981681	0
15.01.2021	12:33:56	0	75,189276	4,659755	1,5195	355,0104	0,834	87,962	0	1015,44	7,8	9,7	9,5	1	1	1	1	1	1	1	1	1	0	1	-9,302326	275,169179	315,771657	0
15.01.2021	12:33:57	0	75,307109	4,546102	1,4685	352,4796	0,834	87,964	0	1015,5	7,8	9,6	9,5	1	1	1	1	1	1	1	1	1	0	1	-8,104299	275,219715	317,208556	0
15.01.2021	12:33:58	0	74,955212	4,432449	1,38375	349,9524	0,832	87,975	0	1015,44	7,8	9,6	9,5	1	1	1	1	1	1	1	1	1	0	1	-9,231853	275,270384	316,32063	0
15.01.2021	12:33:59	0	75,072518	4,659754	1,503	357,2532	0,84	87,972	0	1015,58	7,8	9,6	9,5	1	1	1	1	1	1	1	1	1	0	1	-10,077519	275,22446	315,257768	0
15.01.2021	12:34:00	0	75,307131	2,841313	1,8825	354,3084	0,845	87,974	0	1015,48	7,8	9,6	9,5	1	1	1	1	1	1	1	1	1	0	1	-8,45666	275,276727	317,125831	0
15.01.2021	12:34:01	0	75,307131	2,841313	1,8825	354,3084	0,845	87,974	0	1015,48	7,8	9,6	9,5	1	1	1	1	1	1	1	1	1	0	1	-12,403101	275,139235	312,529407	0
15.01.2021	12:34:02	0	75,423909	4,432449	2,01375	2,6316	0,838	87,979	0	1015,42	7,8	9,7	9,5	1	1	1	1	1	1	1	1	1	0	1	-7,82241	275,222878	317,505399	0
15.01.2021	12:34:03	0	75,07254	2,841313	2,031	4,4568	0,84	87,976	0	1015,54	7,8	9,6	9,5	1	1	1	1	1	1	1	1	1	0	1	-15,856237	275,103049	308,905366	0
15.01.2021	12:34:04	0	75,189319	2,614024	1,95225	349,9452	0,841	87,978	0	1015,52	7,8	9,7	9,4	1	1	1	1	1	1	1	1	1	0	1	-7,892882	275,115628	316,928122	0
15.01.2021	12:34:05	0	75,307152	4,773406	1,8165	352,6236	0,844	87,98	0	1015,52	7,8	9,6	9,5	1	1	1	1	1	1	1	1	1	0	1	-10,782241	275,158142	314,239588	0
15.01.2021	12:34:06	0	75,072556	2,84133	1,70475	346,6548	0,845	87,98	0	1015,58	7,8	9,6	9,4	1	1	1	1	1	1	1	1	1	0	1	-9,513742	275,112483	315,292407	0
15.01.2021	12:34:07	0	75,307163	4,659753	1,59075	345,852	0,848	87,992	0	1015,48	7,8	9,6	9,5	1	1	1	1	1	1	1	1	1	0	1	-9,725159	275,2482	315,722394	0
15.01.2021	12:34:08	0	75,424469	4,205143	1,611	349,416	0,85	87,988	0	1015,56	7,8	9,6	9,5	1	1	1	1	1	1	1	1	1	0	1	-5,778717	275,23237	319,593973	0
15.01.2021	12:34:09	0	75,189872	2,273064	1,5795	352,0404	0,845	87,989	0	1015,48	7,8	9,6	9,4	1	1	1	1	1	1	1	1	1	0	1	-8,949965	275,112483	315,856185	0
15.01.2021	12:34:10	0	75,54178	3,636902	1,5915	344,0448	0,85	87,989	0	1015,48	7,8	9,6	9,4	1	1	1	1	1	1	1	1	1	0	1	-9,44327	275,214972	315,847158	0
15.01.2021	12:34:11	0	75,424484	3,864185	1,55925	343,566	0,84	87,988	0	1015,46	7,8	9,6	9,5	1	1	1	1	1	1	1	1	1	0	1	-8,668076	275,106193	316,108373	0
15.01.2021	12:34:12	0	75,541791	4,205142	1,62975	338,4324	0,847	87,985	0	1015,44	7,8	9,6	9,5	1	1	1	1	1	1	1	1	1	0	1	-7,681466	275,233953	317,698708	0
15.01.2021	12:34:13	0	75,189893	2,386702	1,713	339,7896	0,845	87,981	0	1015,3	7,8	9,6	9,5	1	1	1	1	1	1	1	1	1	0	1	-9,372798	275,267213	316,164687	0
15.01.2021	12:34:14	0	75,659102	3,295942	1,797	353,376	0,853	87,99	0	1015,48	7,8	9,6	9,4	1	1	1	1	1	1	1	1	1	0	1	-7,892882	275,221297	317,427449	0
15.01.2021	12:34:15	0	75,424505	5,114392	1,779	351,3816	0,854	88,001	0	1015,46	7,8	9,6	9,4	1	1	1	1	1	1	1	1	1	0	1	-8,949965	275,279899	316,647534	0
15.01.2021	12:34:16	0	75,42451	3,750532	1,731	352,8504	0,849	87,967	0	1015,64	7,8	9,6	9,5	1	1	1	1	1	1	1	1	1	0	1	-7,751938	275,183379	317,389151	0
15.01.2021	12:34:17	0	75,776419	4,773404	1,68975	348,3864	0,848	87,987	0	1015,62	7,8	9,6	9,5	1	1	1	1	1	1	1	1	1	0	1	-9,231853	275,268798	316,31313	0
15.01.2021	12:34:18	0	75,893725	3,750554	1,62225	352,8216	0,849	87,982	0	1015,6	7,8	9,6	9,4	1	1	1	1	1	1	1	1	1	0	1	-7,258633	275,189694	317,9123	0
15.01.2021	12:34:19	0	75,541298	2,15941	1,58175	344,3544	0,856	87,978	0	1015,48	7,8	9,7	9,4	1	1	1	1	1	1	1	1	1	0	1	-9,372798	275,259289	316,127202	0
15.01.2021	12:34:20	0	75,30723	3,068635	1,4895	352,5336	0,853	87,986	0	1015,4	7,8	9,6	9,4	1	1	1	1	1	1	1	1	1	0	1	-9,936575	275,221297	315,383757	0
15.01.2021	12:34:21	0	75,658608	2,954964	1,43925	337,626	0,855	87,975	0	1015,52	7,8	9,7	9,5	1	1	1	1	1	1	1	1	1	0	1	-8,597604	275,095192	316,126897	0
15.01.2021	12:34:22	0	75,659143	4,659779	1,3605	339,4044	0,845	87,983	0	1015,42	7,8	9,6	9,4	1	1	1	1	1	1	1	1	1	0	1	-9,231853	275,180223	315,894318	0
15.01.2021	12:34:23	0	75,659148	2,727659	1,374	345,798	0,853	87,991	0	1015,54	7,8	9,6	9,5	1	1	1	1	1	1	1	1	1	0	1	-8,738548	275,268798	316,806435	0
15.01.2021	12:34:24	0	75,893224	2,841311	1,43475	346,554	0,854	87,989	0	1015,4	7,8	9,7	9,5	1	1	1	1	1	1	1	1	1	0	1	-5,84919	275,219715	319,463665	0
15.01.2021	12:34:25	0	75,77646	4,65975	1,4295	339,4404	0,852	87,986	0	1015,52	7,8	9,6	9,5	1	1	1	1	1	1	1	1	1	0	1	-14,376321	275,287832	311,25871	0
15.01.2021	12:34:26	0	75,893766	5,11436	1,41375	341,3052	0,857	87,984	0	1015,5	7,8	9,6	9,5	1	1	1	1	1	1	1	1	1	0	1	-9,795631	275,23237	315,57706	0
15.01.2021	12:34:27	0	75,659169	3,182287	1,3245	344,61	0,854	87,971	0	1015,36	7,8	9,6	9,4	1	1	1	1	1	1	1	1	1	0	1	-12,262156	275,121921	312,588566	0
15.01.2021	12:34:28	0	75,541873	3,409573	1,335	335,5092	0,853	87,975	0	1015,52	7,8	9,6	9,5	1	1	1	1	1	1	1	1	1	0	1	-6,412967	275,11091	318,385756	0
15.01.2021	12:34:29	0	75,659179	3,409573	1,40025	319,5972	0,852	87,991	0	1015,48	7,8	9,6	9,5	1	1	1	1	1	1	1	1	1	0	1	-8,245243	275,117201	316,583189	0
15.01.2021	12:34:30	0	76,245689	4,091487	1,338	309,186	0,852	87,994	0	1015,48	7,8	9,6	9,5	1	1	1	1	1	1	1	1	1	0	1	-13,319239	275,156565	311,695143	0
15.01.2021	12:34:31	0	76,245694	2,954963	1,2585	340,5312	0,854	87,989	0	1015,48	7,8	9,6	9,5	1	1	1	1	1	1	1	1	1	0	1	-7,540521	275,129789	317,347365	0
15.01.2021	12:34:32	0	76,245699	3,977835	1,2165	350,8272	0,854	87,977	0	1015,42	7,8	9,6	9,5	1	1	1	1	1	1	1	1	1	0	1	-14,235377	275,125068	310,630209	0
15.01.2021	12:34:33	0	76,363005	4,432471	1,116	358,0812	0,862	87,989	0	1015,44	7,8	9,6	9,4	1	1	1	1	1	1	1	1	1	0	1	-7,258633	275,233953	318,121541	0
15.01.2021	12:34:34	0	76,011107	4,091487	1,0215	12,8592	0,85	87,982	0	1015,42	7,8	9,6	9,5	1	1	1	1	1	1	1	1	1	0	1	-12,121212	275,213391	313,161742	0
15.01.2021	12:34:35	0	75,77651	2,84131	0,948	13,6368	0,86	88,004	0	1015,48	7,8	9,6	9,5	1	1	1	1	1	1	1	1	1	0	1	-11,980268	275,112483	312,825882	0
15.01.2021	12:34:36	0	76,36302	4,887083	1,00575	359,9064	0,853	87,995	0	1015,52	7,8	9,6	9,4	1	1	1	1	1	1	1	1	1	0	1	-9,090909	275,184957	316,05764	0
15.01.2021	12:34:37	0	76,011122	4,773401	1,11225	354,2904	0,859	87,991	0	1015,58	7,8	9,6	9,5	1	1	1	1	1	1	1	1	1	0	1	-7,117689	275,289419	318,524852	0
15.01.2021	12:34:38	0	76,36303	3,068615	1,21725	354,7188	0,862	87,995	0	1015,58	7,8	9,6	9,5	1	1	1	1	1	1	1	1	1	0	1	-10,782241	275,184957	314,366308	0
15.01.2021	12:34:39	0	76,011132	4,432443	1,25175	348,048	0,858	87,968	0	1015,56	7,8	9,6	9,5	1	1	1	1	1	1	1	1	1	0	1	-10,782241	275,287832	314,85279	0
15.01.2021	12:34:40	0	76,480341	3,750529	1,3305	345,8376	0,858	87,985	0	1015,46	7,8	9,6	9,5	1	1	1	1	1	1	1	1	1	0	1	-8,245243	275,22446	317,090045	0
15.01.2021	12:34:41	0	75,776539	2,500368	1,32075	350,6544	0,859	87,989	0	1015,38	7,8	9,6	9,4	1	1	1	1	1	1	1	1	1	0	1	-10,218464	275,106193	314,557985	0
15.01.2021	12:34:42	0	76,597652	5,000735	1,446	345,1104	0,859	87,981	0	1015,5	7,8	9,6	9,4	1	1	1	1	1	1	1	1	1	0	1	-11,557435	275,126641	313,315584	0
15.01.2021	12:34:43	0	76,480356	4,318791	1,48875	353,6532	0,853	87,974	0	1015,44	7,8	9,6	9,5	1	1	1	1	1	1	1	1	1	0	1	-8,879493	275,260873	316,628003	0
15.01.2021	12:34:44	0	76,832264	4,659748	1,51875	350,6904	0,86	87,974	0	1015,58	7,8	9,6	9,5	1	1	1	1	1	1	1	1	1	0	1	-8,245243	275,137661	316,679826	0
15.01.2021	12:34:45	0	76,480366	3,295939	1,61475	353,9124	0,862	87,965	0	1015,44	7,8	9,6	9,4	1	1	1	1	1	1	1	1	1	0	1	-9,44327	275,245033	315,989304	0
15.01.2021	12:34:46	0	76,245768	4,7734	1,62975	354,1572	0,861	87,962	0	1015,58	7,8	9,6	9,5	1	1	1	1	1	1	1	1	1	0	1	-10,852713	275,132937	314,050044	0
15.01.2021	12:34:47	0	76,597677	4,205163	1,53675	348,7536	0,857	87,973	0	1015,5	7,8	9,6	9,4	1	1	1	1	1	1	1	1	1	0	1	-10,077519	275,230788	315,287689	0
15.01.2021	12:34:48	0	76,714983	3,86418	1,57275	349,92	0,865	87,961	0	1015,52	7,8	9,6	9,5	1	1	1	1	1	1	1	1	1	0	1	-12,191684	275,123494	312,666469	0
15.01.2021	12:34:49	0	76,128481	2,841309	1,7235	353,2824	0,865	87,968	0	1015,56	7,8	9,6	9,5	1	1	1	1	1	1	1	1	1	0	1	-13,178295	275,25612	312,306717	0
15.01.2021	12:34:50	0	76,597691	3,295918	1,85625	346,2624	0,862	87,941	0	1015,44	7,8	9,6	9,5	1	1	1	1	1	1	1	1	1	0	1	-11,346018	275,134512	313,564175	0
15.01.2021	12:34:51	0	76,362559	3,86418	1,97175	351,7812	0,862	87,95	0	1015,46	7,8	9,7	9,5	1	1	1	1	1	1	1	1	1	0	1	-9,302326	275,241867	316,115273	0
15.01.2021	12:34:52	0	76,597701	2,614004	2,067	345,3444	0,863	87,943	0	1015,52	7,8	9,6	9,5	1	1	1	1	1	1	1	1	1	0	1	-10,077519	275,125068	314,788066	0
15.01.2021	12:34:53	0	76,597705	4,659774	2,16675	352,8972	0,864	87,958	0	1015,52	7,8	9,6	9,4	1	1	1	1	1	1	1	1	1	0	1	-10,077519	275,278313	315,512475	0
15.01.2021	12:34:54	0	76,715011	2,500352	2,21775	4,8168	0,861	87,96	0	1015,36	7,8	9,6	9,5	1	1	1	1	1	1	1	1	1	0	1	-10,711769	275,156565	314,302613	0
15.01.2021	12:34:55	0	77,06692	4,773427	2,12625	1,9116	0,858	87,944	0	1015,3	7,8	9,6	9,4	1	1	1	1	1	1	1	1	1	0	1	-10,007047	275,292593	315,650513	0
15.01.2021	12:34:56	0	76,480418	3,977832	2,03625	3,7728	0,866	87,943	0	1015,42	7,8	9,6	9,5	1	1	1	1	1	1	1	1	1	0	1	-8,033827	275,173911	317,062518	0
15.01.2021	12:34:57	0	76,480423	2,727656	2,00775	3,0168	0,866	87,933	0	1015,5	7,8	9,6	9,5	1	1	1	1	1	1	1	1	1	0	1	-10,852713	275,297355	314,827382	0
15.01.2021	12:34:58	0	76,71503	3,068613	1,9215	354,0132	0,866	87,945	0	1015,54	7,8	9,6	9,5	1	1	1	1	1	1	1	1	1	0	1	-5,708245	275,156565	319,306136	0
15.01.2021	12:34:59	0	76,949099	3,523222	1,929	357,714	0,871	87,947	0	1015,56	7,8	9,7	9,5	1	1	1	1	1	1	1	1	1	0	1	-8,45666	275,121921	316,394063	0
15.01.2021	12:35:00	0	77,066948	3,864179	2,1015	344,6424	0,863	87,933	0	1015,48	7,8	9,6	9,5	1	1	1	1	1	1	1	1	1	0	1	-7,399577	275,233953	317,980596	0
15.01.2021	12:35:01	0	77,066948	3,864179	2,1015	344,6424	0,863	87,933	0	1015,48	7,8	9,6	9,5	1	1	1	1	1	1	1	1	1	0	1	-4,22833	275,120347	320,614962	0
15.01.2021	12:35:02	0	77,066953	3,977855	2,27175	348,7608	0,865	87,929	0	1015,54	7,8	9,6	9,4	1	1	1	1	1	1	1	1	1	0	1	-7,470049	275,184957	317,678499	0
15.01.2021	12:35:03	0	77,184259	4,318788	2,346	346,482	0,868	87,938	0	1015,32	7,8	9,6	9,5	1	1	1	1	1	1	1	1	1	0	1	-9,372798	275,123494	315,485356	0
15.01.2021	12:35:04	0	77,184264	4,773397	2,32575	339,4656	0,857	87,937	0	1015,44	7,8	9,6	9,5	1	1	1	1	1	1	1	1	1	0	1	-12,684989	275,191272	312,493407	0
15.01.2021	12:35:05	0	76,949666	3,40959	2,403	340,596	0,867	87,926	0	1015,58	7,8	9,6	9,4	1	1	1	1	1	1	1	1	1	0	1	-5,355884	275,118774	319,479977	0
15.01.2021	12:35:06	0	76,832369	2,841308	2,4615	342,7848	0,861	87,938	0	1015,48	7,8	9,6	9,5	1	1	1	1	1	1	1	1	1	0	1	-8,104299	275,142385	316,843088	0
15.01.2021	12:35:07	0	77,301579	4,318813	2,433	339,8616	0,865	87,933	0	1015,52	7,8	9,6	9,4	1	1	1	1	1	1	1	1	1	0	1	-8,174771	275,283072	317,437738	0
15.01.2021	12:35:08	0	77,184282	4,091507	2,31525	348,3864	0,862	87,919	0	1015,48	7,8	9,6	9,4	1	1	1	1	1	1	1	1	1	0	1	-10,500352	275,23237	314,872338	0
15.01.2021	12:35:09	0	77,301588	4,887049	2,253	342,0432	0,866	87,928	0	1015,52	7,8	9,6	9,5	1	1	1	1	1	1	1	1	1	0	1	-5,990134	275,262458	319,524858	0
15.01.2021	12:35:10	0	77,301052	3,97783	2,1915	347,4324	0,871	87,921	0	1015,44	7,8	9,7	9,5	1	1	1	1	1	1	1	1	1	0	1	-9,936575	275,136086	314,981056	0
15.01.2021	12:35:11	0	77,183756	3,750525	2,16975	340,4772	0,87	87,925	0	1015,38	7,8	9,7	9,5	1	1	1	1	1	1	1	1	1	0	1	-9,866103	275,251368	315,596431	0
15.01.2021	12:35:12	0	77,418904	4,205134	2,17125	356,2812	0,868	87,915	0	1015,44	7,8	9,6	9,5	1	1	1	1	1	1	1	1	1	0	1	-10,711769	275,303707	314,998384	0
15.01.2021	12:35:13	0	77,418908	2,954942	2,0775	356,3028	0,871	87,927	0	1015,42	7,8	9,6	9,6	1	1	1	1	1	1	1	1	1	0	1	-5,285412	275,191272	319,892984	0
15.01.2021	12:35:14	0	77,067009	4,546091	1,9215	350,9676	0,874	87,917	0	1015,48	7,8	9,6	9,5	1	1	1	1	1	1	1	1	1	0	1	-11,909796	275,121921	312,940927	0
15.01.2021	12:35:15	0	77,535676	3,182283	1,9125	333,9396	0,866	87,907	0	1015,5	7,8	9,7	9,4	1	1	1	1	1	1	1	1	1	0	1	-12,121212	275,259289	313,378788	0
15.01.2021	12:35:16	0	77,653525	4,091482	2,016	343,2564	0,871	87,907	0	1015,44	7,8	9,6	9,5	1	1	1	1	1	1	1	1	1	0	1	-8,597604	275,300531	317,097519	0
15.01.2021	12:35:17	0	77,536228	3,977853	2,037	344,304	0,87	87,901	0	1015,5	7,8	9,6	9,4	1	1	1	1	1	1	1	1	1	0	1	-5,84919	275,251368	319,613344	0
15.01.2021	12:35:18	0	77,183787	2,50035	1,983	352,1304	0,87	87,914	0	1015,5	7,8	9,7	9,5	1	1	1	1	1	1	1	1	1	0	1	-9,231853	275,264043	316,290635	0
15.01.2021	12:35:19	0	77,301634	3,636894	1,947	356,9544	0,87	87,916	0	1015,42	7,8	9,6	9,4	1	1	1	1	1	1	1	1	1	0	1	-7,399577	275,173911	317,696767	0
15.01.2021	12:35:20	0	77,770844	3,977829	1,95375	354,6756	0,869	87,915	0	1015,46	7,8	9,6	9,5	1	1	1	1	1	1	1	1	1	0	1	-6,976744	275,117201	317,851688	0
15.01.2021	12:35:21	0	77,418944	4,205133	1,9905	358,794	0,869	87,914	0	1015,52	7,8	9,6	9,5	1	1	1	1	1	1	1	1	1	0	1	-11,346018	275,19759	313,862237	0
15.01.2021	12:35:22	0	77,301647	2,954959	1,85775	359,1324	0,873	87,909	0	1015,42	7,8	9,6	9,5	1	1	1	1	1	1	1	1	1	0	1	-9,654686	275,332316	316,190874	0
15.01.2021	12:35:23	0	77,888159	4,887047	1,77	349,5276	0,867	87,896	0	1015,42	7,8	9,6	9,5	1	1	1	1	1	1	1	1	1	0	1	-11,486963	275,219715	313,825892	0
15.01.2021	12:35:24	0	77,770862	4,659742	1,74225	350,298	0,865	87,893	0	1015,48	7,8	9,6	9,5	1	1	1	1	1	1	1	1	1	0	1	-13,460183	275,29418	312,204888	0
15.01.2021	12:35:25	0	77,418962	3,182263	1,8105	352,9044	0,866	87,907	0	1015,4	7,8	9,6	9,5	1	1	1	1	1	1	1	1	1	0	1	-7,610994	275,19601	317,589796	0
15.01.2021	12:35:26	0	78,004927	4,205158	1,8105	347,2956	0,87	87,902	0	1015,28	7,8	9,7	9,4	1	1	1	1	1	1	1	1	1	0	1	-10,147992	275,134512	314,762202	0
15.01.2021	12:35:27	0	78,005478	5,000698	1,85475	344,286	0,868	87,895	0	1015,4	7,8	9,6	9,5	1	1	1	1	1	1	1	1	1	0	1	-11,909796	275,203909	313,32833	0
15.01.2021	12:35:28	0	77,887636	4,887046	1,83825	341,3664	0,872	87,906	0	1015,54	7,8	9,7	9,5	1	1	1	1	1	1	1	1	1	0	1	-6,272023	275,286245	319,355501	0
15.01.2021	12:35:29	0	77,41898	2,727654	1,8915	345,0708	0,868	87,969	0	1015,5	7,8	9,6	9,5	1	1	1	1	1	1	1	1	1	0	1	-9,866103	275,22446	315,469185	0
15.01.2021	12:35:30	0	77,418984	4,318785	2,02275	347,4864	0,873	87,899	0	1015,42	7,8	9,6	9,5	1	1	1	1	1	1	1	1	1	0	1	-10,500352	275,295768	315,172231	0
15.01.2021	12:35:31	0	77,888194	4,773393	2,16825	355,1004	0,873	87,892	0	1015,46	7,8	9,6	9,5	1	1	1	1	1	1	1	1	1	0	1	-7,610994	275,128215	317,269459	0
15.01.2021	12:35:32	0	77,653596	2,727653	2,2995	8,2548	0,872	87,889	0	1015,48	7,8	9,6	9,5	1	1	1	1	1	1	1	1	1	0	1	-7,329105	275,147111	317,640607	0
15.01.2021	12:35:33	0	77,6536	3,636871	2,4435	0,8424	0,872	87,899	0	1015,36	7,8	9,6	9,5	1	1	1	1	1	1	1	1	1	0	1	-10,077519	275,200749	315,14567	0
15.01.2021	12:35:34	0	77,653604	5,11435	2,4615	5,1984	0,866	87,904	0	1015,52	7,8	9,6	9,5	1	1	1	1	1	1	1	1	1	0	1	-8,033827	275,295768	317,638756	0
15.01.2021	12:35:35	0	77,77091	4,432436	2,47275	6,4404	0,881	87,894	0	1015,56	7,8	9,6	9,5	1	1	1	1	1	1	1	1	1	0	1	-11,909796	275,318006	313,868031	0
15.01.2021	12:35:36	0	77,77037	4,205157	2,44725	7,5168	0,876	87,904	0	1015,56	7,8	9,7	9,4	1	1	1	1	1	1	1	1	1	0	1	-7,047216	275,281485	318,557787	0
15.01.2021	12:35:37	0	78,004976	4,432463	2,31525	1,9152	0,877	87,889	0	1015,44	7,8	9,7	9,4	1	1	1	1	1	1	1	1	1	0	1	-11,768851	275,303707	313,941302	0
15.01.2021	12:35:38	0	78,122828	2,727653	2,30475	355,8492	0,878	87,898	0	1015,5	7,8	9,6	9,5	1	1	1	1	1	1	1	1	1	0	1	-9,372798	275,241867	316,044801	0
15.01.2021	12:35:39	0	78,122832	4,091479	2,58975	8,3664	0,869	87,893	0	1015,44	7,8	9,6	9,5	1	1	1	1	1	1	1	1	1	0	1	-10,288936	275,305295	315,428733	0
15.01.2021	12:35:40	0	78,005535	2,614	2,57625	5,6808	0,879	87,892	0	1015,58	7,8	9,6	9,5	1	1	1	1	1	1	1	1	1	0	1	-7,610994	275,178645	317,50772	0
15.01.2021	12:35:41	0	78,122841	4,205106	2,4525	4,8312	0,873	87,875	0	1015,6	7,8	9,6	9,6	1	1	1	1	1	1	1	1	1	0	1	-10,711769	275,161295	314,324957	0
15.01.2021	12:35:42	0	77,888242	4,65974	2,55	10,8108	0,877	87,871	0	1015,32	7,8	9,6	9,5	1	1	1	1	1	1	1	1	1	0	1	-10,993658	275,302119	314,70898	0
15.01.2021	12:35:43	0	78,122849	4,546087	2,6805	5,3172	0,881	87,893	0	1015,74	7,8	9,6	9,5	1	1	1	1	1	1	1	1	1	0	1	-5,778717	275,233953	319,601456	0
15.01.2021	12:35:44	0	77,88825	3,409566	2,57775	9,3636	0,879	87,881	0	1015,54	7,8	9,6	9,5	1	1	1	1	1	1	1	1	1	0	1	-11,486963	275,128215	313,39349	0
15.01.2021	12:35:45	0	78,356912	4,546087	2,32275	18,4464	0,876	87,881	0	1015,6	7,8	9,7	9,5	1	1	1	1	1	1	1	1	1	0	1	-12,755462	275,270384	312,797022	0
15.01.2021	12:35:46	0	78,122862	4,205156	2,1135	19,8936	0,869	87,871	0	1015,46	7,8	9,6	9,4	1	1	1	1	1	1	1	1	1	0	1	-10,570825	275,271969	314,98916	0
15.01.2021	12:35:47	0	78,240167	3,864174	1,9665	20,3652	0,875	87,873	0	1015,56	7,8	9,6	9,5	1	1	1	1	1	1	1	1	1	0	1	-15,574348	275,289419	310,068192	0
15.01.2021	12:35:48	0	78,12287	3,750522	1,98525	13,5324	0,876	87,856	0	1015,66	7,8	9,6	9,5	1	1	1	1	1	1	1	1	1	0	1	-8,879493	275,233953	316,500681	0
15.01.2021	12:35:49	0	78,122874	3,636869	2,0295	6,0516	0,879	87,85	0	1015,52	7,8	9,6	9,5	1	1	1	1	1	1	1	1	1	0	1	-14,869626	275,306884	310,85556	0
15.01.2021	12:35:50	0	78,709386	3,523238	2,04975	13,1652	0,876	87,863	0	1015,52	7,8	9,6	9,4	1	1	1	1	1	1	1	1	1	0	1	-11,839323	275,227624	313,510923	0
15.01.2021	12:35:51	0	78,474787	4,887072	2,11575	359,9172	0,878	87,856	0	1015,6	7,8	9,6	9,4	1	1	1	1	1	1	1	1	1	0	1	-9,795631	275,297355	315,884465	0
15.01.2021	12:35:52	0	78,592093	3,068608	2,112	357,786	0,885	87,859	0	1015,54	7,8	9,6	9,5	1	1	1	1	1	1	1	1	1	0	1	-8,527132	275,238701	316,875495	0
15.01.2021	12:35:53	0	78,357494	3,864173	2,14575	0,486	0,873	87,823	0	1015,44	7,8	9,6	9,5	1	1	1	1	1	1	1	1	1	0	1	-8,738548	275,007404	315,571649	0
15.01.2021	12:35:54	0	78,592101	4,546086	2,1	356,1552	0,88	87,824	0	1015,48	7,8	9,6	9,5	1	1	1	1	1	1	1	1	1	0	1	-10,782241	275,237118	314,612901	0
15.01.2021	12:35:55	0	78,709407	3,977825	1,9515	332,442	0,874	87,817	0	1015,44	7,8	9,6	9,5	1	1	1	1	1	1	1	1	1	0	1	-10,641297	275,306884	315,08389	0
15.01.2021	12:35:56	0	78,59211	3,068626	2,001	350,0172	0,879	87,804	0	1015,52	7,8	9,6	9,4	1	1	1	1	1	1	1	1	1	0	1	-8,949965	275,227624	316,400282	0
15.01.2021	12:35:57	0	78,12236	2,727651	2,082	338,8356	0,881	87,8	0	1015,44	7,8	9,7	9,5	1	1	1	1	1	1	1	1	1	0	1	-11,839323	275,136086	313,078308	0
15.01.2021	12:35:58	0	78,592118	4,318781	2,14725	344,016	0,878	87,795	0	1015,48	7,8	9,6	9,5	1	1	1	1	1	1	1	1	1	0	1	-11,557435	275,29418	314,107636	0
15.01.2021	12:35:59	0	78,240217	3,295912	2,0895	349,128	0,881	87,789	0	1015,5	7,8	9,6	9,5	1	1	1	1	1	1	1	1	1	0	1	-11,41649	275,142385	313,530897	0
15.01.2021	12:36:00	0	78,944035	4,205154	1,992	343,9836	0,88	87,785	0	1015,46	7,9	9,6	9,4	1	1	1	1	1	1	1	1	1	0	1	-10,147992	275,161295	314,888735	0
15.01.2021	12:36:01	0	78,944035	4,205154	1,992	343,9836	0,88	87,785	0	1015,46	7,9	9,6	9,4	1	1	1	1	1	1	1	1	1	0	1	-11,486963	275,279899	314,110536	0
15.01.2021	12:36:02	0	78,474832	4,659765	1,9725	340,9452	0,882	87,797	0	1015,5	7,8	9,6	9,4	1	1	1	1	1	1	1	1	1	0	1	-15,221987	275,289419	310,420553	0
15.01.2021	12:36:03	0	78,474836	2,613999	1,92375	350,6148	0,881	87,799	0	1015,52	7,8	9,6	9,5	1	1	1	1	1	1	1	1	1	0	1	-11,486963	275,128215	313,39349	0
15.01.2021	12:36:04	0	78,709444	2,727651	2,04375	355,4748	0,879	87,783	0	1015,3	7,8	9,6	9,5	1	1	1	1	1	1	1	1	1	0	1	-11,134602	275,200749	314,088587	0
15.01.2021	12:36:05	0	78,474844	2,954955	2,02875	0,468	0,883	87,778	0	1015,44	7,8	9,6	9,5	1	1	1	1	1	1	1	1	1	0	1	-8,386187	275,300531	317,308935	0
15.01.2021	12:36:06	0	78,709451	4,887041	2,07075	359,514	0,882	87,773	0	1015,56	7,8	9,6	9,5	1	1	1	1	1	1	1	1	1	0	1	-10,077519	275,289419	315,565021	0
15.01.2021	12:36:07	0	78,826757	4,659765	2,16075	352,512	0,875	87,769	0	1015,54	7,8	9,6	9,4	1	1	1	1	1	1	1	1	1	0	1	-9,161381	275,284658	316,458635	0
15.01.2021	12:36:08	0	78,944063	2,500347	2,26875	357,7104	0,882	87,774	0	1015,64	7,8	9,6	9,5	1	1	1	1	1	1	1	1	1	0	1	-8,386187	275,158142	316,635642	0
15.01.2021	12:36:09	0	78,708912	2,727651	2,2485	360	0,878	87,765	0	1015,5	7,8	9,7	9,5	1	1	1	1	1	1	1	1	1	0	1	-13,389711	275,205489	311,855884	0
15.01.2021	12:36:10	0	78,943518	2,727651	2,241	352,8216	0,881	87,782	0	1015,3	7,8	9,7	9,5	1	1	1	1	1	1	1	1	1	0	1	-12,614517	275,298943	313,073092	0
15.01.2021	12:36:11	0	79,29598	4,887011	2,21625	343,494	0,881	87,77	0	1015,52	7,8	9,6	9,6	1	1	1	1	1	1	1	1	1	0	1	-9,866103	275,219715	315,446752	0
15.01.2021	12:36:12	0	79,06138	4,31878	2,2305	344,3256	0,878	87,792	0	1015,68	7,8	9,6	9,5	1	1	1	1	1	1	1	1	1	0	1	-7,751938	275,297355	317,928158	0
15.01.2021	12:36:13	0	78,709479	3,182278	2,1765	357,6384	0,878	87,785	0	1015,46	7,8	9,6	9,4	1	1	1	1	1	1	1	1	1	0	1	-10,993658	275,202329	314,237	0
15.01.2021	12:36:14	0	79,295992	4,773388	1,962	344,7216	0,874	87,775	0	1015,46	7,8	9,6	9,5	1	1	1	1	1	1	1	1	1	0	1	-10,218464	275,316417	315,55184	0
15.01.2021	12:36:15	0	79,178694	2,613998	1,82625	0,1152	0,881	87,79	0	1015,48	7,8	9,6	9,5	1	1	1	1	1	1	1	1	1	0	1	-14,940099	274,990207	309,288985	0
15.01.2021	12:36:16	0	79,060842	2,72765	1,79925	360	0,87	87,791	0	1015,46	7,8	9,7	9,5	1	1	1	1	1	1	1	1	1	0	1	-10,42988	275,316417	315,340424	0
15.01.2021	12:36:17	0	78,944098	4,091451	1,935	352,0764	0,879	87,804	0	1015,38	7,8	9,6	9,6	1	1	1	1	1	1	1	1	1	0	1	-10,570825	275,335497	315,289796	0
15.01.2021	12:36:18	0	79,296007	4,205127	2,04375	346,8492	0,877	87,799	0	1015,52	7,8	9,6	9,5	1	1	1	1	1	1	1	1	1	0	1	-12,121212	275,229206	313,236515	0
15.01.2021	12:36:19	0	78,943552	4,205102	2,19825	347,6412	0,881	87,804	0	1015,46	7,8	9,7	9,6	1	1	1	1	1	1	1	1	1	0	1	-13,883016	275,306884	311,84217	0
15.01.2021	12:36:20	0	79,296015	3,523236	2,24625	344,808	0,881	87,8	0	1015,26	7,8	9,6	9,4	1	1	1	1	1	1	1	1	1	0	1	-12,825934	275,199169	312,389788	0
15.01.2021	12:36:21	0	79,178162	3,523214	2,217	344,376	0,885	87,811	0	1015,4	7,8	9,7	9,5	1	1	1	1	1	1	1	1	1	0	1	-9,090909	275,337088	316,777242	0
15.01.2021	12:36:22	0	79,530626	4,54611	2,15175	345,1032	0,881	87,813	0	1015,46	7,8	9,6	9,4	1	1	1	1	1	1	1	1	1	0	1	-9,795631	275,279899	315,801868	0
15.01.2021	12:36:23	0	79,296026	3,636866	2,06175	343,2528	0,879	87,807	0	1015,5	7,8	9,6	9,5	1	1	1	1	1	1	1	1	1	0	1	-12,262156	275,306884	313,46303	0
15.01.2021	12:36:24	0	79,413332	3,523235	2,1375	360	0,881	87,792	0	1015,46	7,8	9,6	9,4	1	1	1	1	1	1	1	1	1	0	1	-14,164905	275,175489	310,938895	0
15.01.2021	12:36:25	0	79,296034	4,091475	2,1675	9,342	0,884	87,808	0	1015,48	7,8	9,6	9,5	1	1	1	1	1	1	1	1	1	0	1	-10,711769	275,159718	314,317508	0
15.01.2021	12:36:26	0	79,647943	4,546083	2,0535	352,476	0,881	87,786	0	1015,48	7,8	9,6	9,5	1	1	1	1	1	1	1	1	1	0	1	-12,544045	275,335497	313,316575	0
15.01.2021	12:36:27	0	79,178739	3,864147	2,18475	358,4016	0,88	87,807	0	1015,3	7,8	9,6	9,6	1	1	1	1	1	1	1	1	1	0	1	-14,65821	275,169179	310,415772	0
15.01.2021	12:36:28	0	79,530091	3,409562	2,38425	353,6136	0,887	87,817	0	1015,68	7,8	9,7	9,5	1	1	1	1	1	1	1	1	1	0	1	-10,007047	275,308472	315,725657	0
15.01.2021	12:36:29	0	79,178747	2,613997	2,6355	348,228	0,874	87,805	0	1015,38	7,8	9,6	9,5	1	1	1	1	1	1	1	1	1	0	1	-9,302326	275,200749	315,920863	0
15.01.2021	12:36:30	0	79,647958	3,977822	2,634	339,4764	0,883	87,813	0	1015,44	7,8	9,6	9,5	1	1	1	1	1	1	1	1	1	0	1	-9,302326	275,145535	315,659944	0
15.01.2021	12:36:31	0	79,178199	3,409562	2,5395	334,9728	0,887	87,81	0	1015,56	7,8	9,7	9,5	1	1	1	1	1	1	1	1	1	0	1	-9,44327	275,305295	316,274399	0
15.01.2021	12:36:32	0	79,764708	4,546082	2,47425	334,5372	0,883	87,801	0	1015,5	7,8	9,7	9,5	1	1	1	1	1	1	1	1	1	0	1	-14,65821	275,289419	310,98433	0
15.01.2021	12:36:33	0	79,413365	3,750518	2,29125	336,3912	0,884	87,804	0	1015,44	7,8	9,6	9,5	1	1	1	1	1	1	1	1	1	0	1	-9,866103	275,332316	315,979457	0
15.01.2021	12:36:34	0	79,178765	2,727649	2,112	334,5696	0,883	87,812	0	1015,54	7,8	9,6	9,5	1	1	1	1	1	1	1	1	1	0	1	-8,104299	275,200749	317,11889	0
15.01.2021	12:36:35	0	79,413372	4,091474	1,9605	335,3472	0,885	87,816	0	1015,52	7,8	9,6	9,5	1	1	1	1	1	1	1	1	1	0	1	-4,22833	275,162871	320,815846	0
15.01.2021	12:36:36	0	79,765281	3,864169	1,82325	354,2652	0,881	87,805	0	1015,58	7,9	9,6	9,5	1	1	1	1	1	1	1	1	1	0	1	-8,949965	275,325954	316,865484	0
15.01.2021	12:36:37	0	79,530681	4,091473	1,66575	5,67	0,886	87,807	0	1015,54	7,8	9,6	9,5	1	1	1	1	1	1	1	1	1	0	1	-9,725159	275,192852	315,460701	0
15.01.2021	12:36:38	0	79,412827	2,954953	1,5015	357,7068	0,886	87,794	0	1015,62	7,8	9,7	9,5	1	1	1	1	1	1	1	1	1	0	1	-17,26568	275,169179	307,808302	0
15.01.2021	12:36:39	0	79,765292	4,659733	1,50225	354,564	0,882	87,796	0	1015,46	7,8	9,6	9,5	1	1	1	1	1	1	1	1	1	0	1	-13,601128	275,332316	312,244432	0
15.01.2021	12:36:40	0	79,764737	2,954953	1,5075	349,902	0,879	87,781	0	1015,54	7,8	9,7	9,5	1	1	1	1	1	1	1	1	1	0	1	-13,460183	275,233953	311,91999	0
15.01.2021	12:36:41	0	79,765299	3,182238	1,50675	344,6712	0,883	87,772	0	1015,5	7,8	9,6	9,6	1	1	1	1	1	1	1	1	1	0	1	-10,42988	275,153413	314,569609	0
15.01.2021	12:36:42	0	79,530142	3,409561	1,485	353,52	0,88	87,772	0	1015,56	7,8	9,7	9,5	1	1	1	1	1	1	1	1	1	0	1	-10,077519	275,249784	315,377523	0
15.01.2021	12:36:43	0	79,178797	2,159388	1,50225	338,3676	0,876	87,757	0	1015,56	7,8	9,6	9,5	1	1	1	1	1	1	1	1	1	0	1	-10,077519	275,14396	314,877309	0
15.01.2021	12:36:44	0	79,882612	4,887037	1,461	360	0,884	87,764	0	1015,44	7,9	9,6	9,5	1	1	1	1	1	1	1	1	1	0	1	-10,147992	275,192852	315,037868	0
15.01.2021	12:36:45	0	79,765313	4,887037	1,425	1,5372	0,883	87,751	0	1015,5	7,8	9,6	9,5	1	1	1	1	1	1	1	1	1	0	1	-11,698379	275,14396	313,256449	0
15.01.2021	12:36:46	0	79,765317	2,500344	1,449	357,5916	0,881	87,743	0	1015,34	7,8	9,6	9,5	1	1	1	1	1	1	1	1	1	0	1	-11,134602	275,229206	314,223125	0
15.01.2021	12:36:47	0	79,530159	3,295908	1,4985	0,4788	0,877	87,743	0	1015,42	7,8	9,7	9,5	1	1	1	1	1	1	1	1	1	0	1	-10,923185	275,275141	314,651802	0
15.01.2021	12:36:48	0	79,648022	2,841283	1,59825	4,4856	0,887	87,745	0	1015,46	7,8	9,6	9,6	1	1	1	1	1	1	1	1	1	0	1	-10,359408	275,158142	314,662421	0
15.01.2021	12:36:49	0	80,117233	5,568948	1,67025	355,41	0,885	87,728	0	1015,48	7,8	9,6	9,5	1	1	1	1	1	1	1	1	1	0	1	-8,033827	275,262458	317,481165	0
15.01.2021	12:36:50	0	80,117237	4,432428	1,8495	345,0924	0,881	87,727	0	1015,46	7,8	9,6	9,5	1	1	1	1	1	1	1	1	1	0	1	-9,44327	275,302119	316,259368	0
15.01.2021	12:36:51	0	80,11724	3,182256	1,851	350,3412	0,885	87,732	0	1015,52	7,8	9,6	9,5	1	1	1	1	1	1	1	1	1	0	1	-12,825934	275,278313	312,76406	0
15.01.2021	12:36:52	0	79,999381	3,750494	1,899	345,456	0,879	87,729	0	1015,5	7,9	9,7	9,6	1	1	1	1	1	1	1	1	1	0	1	-12,262156	275,324365	313,545766	0
15.01.2021	12:36:53	0	79,999945	3,068622	1,896	352,8	0,882	87,722	0	1015,54	7,8	9,6	9,4	1	1	1	1	1	1	1	1	1	0	1	-10,359408	275,262458	315,155583	0
15.01.2021	12:36:54	0	80,11725	4,887036	1,8675	347,2308	0,873	87,731	0	1015,56	7,8	9,6	9,5	1	1	1	1	1	1	1	1	1	0	1	-12,262156	275,314828	313,500626	0
15.01.2021	12:36:55	0	79,999952	2,8413	1,91775	344,4048	0,882	87,725	0	1015,48	7,8	9,6	9,5	1	1	1	1	1	1	1	1	1	0	1	-7,399577	275,252952	318,070448	0
15.01.2021	12:36:56	0	79,999955	4,205099	1,94475	10,7928	0,885	87,702	0	1015,38	7,9	9,6	9,6	1	1	1	1	1	1	1	1	1	0	1	-12,332629	275,337088	313,535523	0
15.01.2021	12:36:57	0	79,882657	4,887036	1,9155	10,44	0,881	87,716	0	1015,46	7,9	9,6	9,5	1	1	1	1	1	1	1	1	1	0	1	-15,362932	275,208649	309,897605	0
15.01.2021	12:36:58	0	79,765358	3,864168	1,92	1,9188	0,883	87,727	0	1015,54	7,8	9,6	9,5	1	1	1	1	1	1	1	1	1	0	1	-11,486963	275,332316	314,358597	0
15.01.2021	12:36:59	0	80,117267	3,864168	1,8945	6,4332	0,883	87,724	0	1015,58	7,8	9,6	9,5	1	1	1	1	1	1	1	1	1	0	1	-16,772375	275,324365	309,035548	0
15.01.2021	12:37:00	0	79,765368	3,409559	1,797	1,1808	0,885	87,734	0	1015,4	7,8	9,6	9,5	1	1	1	1	1	1	1	1	1	0	1	-12,262156	275,2482	313,185396	0
15.01.2021	12:37:01	0	79,765368	3,409559	1,797	1,1808	0,885	87,734	0	1015,4	7,8	9,6	9,5	1	1	1	1	1	1	1	1	1	0	1	-12,05074	275,154989	312,956195	0
15.01.2021	12:37:02	0	80,117277	3,068585	1,692	360	0,881	87,726	0	1015,54	7,8	9,6	9,6	1	1	1	1	1	1	1	1	1	0	1	-10,500352	275,213391	314,782602	0
15.01.2021	12:37:03	0	79,765374	3,068603	1,68525	350,3376	0,877	87,717	0	1015,56	7,9	9,6	9,5	1	1	1	1	1	1	1	1	1	0	1	-14,164905	275,327545	311,658071	0
15.01.2021	12:37:04	0	80,351325	4,318775	1,78875	352,9296	0,885	87,732	0	1015,46	7,8	9,7	9,5	1	1	1	1	1	1	1	1	1	0	1	-14,094433	275,278313	311,495561	0
15.01.2021	12:37:05	0	80,351891	4,659731	1,80825	355,1184	0,886	87,74	0	1015,6	7,8	9,6	9,5	1	1	1	1	1	1	1	1	1	0	1	-8,033827	275,337088	317,834325	0
15.01.2021	12:37:06	0	80,586498	4,659731	1,824	349,1784	0,882	87,727	0	1015,54	7,9	9,6	9,5	1	1	1	1	1	1	1	1	1	0	1	-7,399577	275,329135	318,430926	0
15.01.2021	12:37:07	0	80,351898	2,954951	1,755	356,958	0,887	87,735	0	1015,48	7,8	9,6	9,5	1	1	1	1	1	1	1	1	1	0	1	-8,597604	275,332316	317,247956	0
15.01.2021	12:37:08	0	80,234037	3,636841	1,73775	0,1116	0,881	87,723	0	1015,48	7,9	9,7	9,6	1	1	1	1	1	1	1	1	1	0	1	-11,486963	275,284658	314,133053	0
15.01.2021	12:37:09	0	79,882136	3,295907	1,743	356,9796	0,889	87,728	0	1015,4	7,8	9,7	9,5	1	1	1	1	1	1	1	1	1	0	1	-12,825934	275,329135	313,004569	0
15.01.2021	12:37:10	0	80,116742	3,750515	1,76775	360	0,885	87,738	0	1015,38	7,8	9,7	9,5	1	1	1	1	1	1	1	1	1	0	1	-9,231853	275,388064	316,877692	0
15.01.2021	12:37:11	0	80,35191	2,954933	1,8285	356,6448	0,893	87,74	0	1015,7	7,8	9,6	9,6	1	1	1	1	1	1	1	1	1	0	1	-10,993658	275,178645	314,125056	0
15.01.2021	12:37:12	0	80,234611	4,318774	1,83675	1,9224	0,888	87,746	0	1015,58	7,8	9,6	9,5	1	1	1	1	1	1	1	1	1	0	1	-11,698379	275,159718	313,330898	0
15.01.2021	12:37:13	0	80,234053	4,091495	1,8585	360	0,884	87,733	0	1015,5	7,9	9,7	9,4	1	1	1	1	1	1	1	1	1	0	1	-10,147992	275,154989	314,858943	0
15.01.2021	12:37:14	0	80,585959	4,318748	1,81125	8,262	0,889	87,742	0	1015,48	7,9	9,7	9,6	1	1	1	1	1	1	1	1	1	0	1	-11,557435	275,297355	314,122661	0
15.01.2021	12:37:15	0	80,117319	4,318774	1,81275	1,9152	0,893	87,749	0	1015,52	7,8	9,6	9,5	1	1	1	1	1	1	1	1	1	0	1	-10,782241	275,279899	314,815258	0
15.01.2021	12:37:16	0	80,351363	3,068603	1,83975	359,856	0,887	87,761	0	1015,5	7,9	9,7	9,5	1	1	1	1	1	1	1	1	1	0	1	-13,248767	275,346636	312,664588	0
15.01.2021	12:37:17	0	80,469231	3,295906	1,89975	357,642	0,896	87,763	0	1015,56	7,8	9,6	9,5	1	1	1	1	1	1	1	1	1	0	1	-11,275546	275,241867	314,142053	0
15.01.2021	12:37:18	0	79,999466	2,273039	1,93125	359,5356	0,886	87,761	0	1015,48	7,9	9,7	9,5	1	1	1	1	1	1	1	1	1	0	1	-11,346018	275,348227	314,574872	0
15.01.2021	12:37:19	0	80,468674	3,295906	1,917	359,6472	0,885	87,763	0	1015,24	7,9	9,7	9,5	1	1	1	1	1	1	1	1	1	0	1	-12,262156	275,240284	313,147956	0
15.01.2021	12:37:20	0	80,234636	4,205122	1,8315	1,548	0,89	87,782	0	1015,52	7,9	9,6	9,5	1	1	1	1	1	1	1	1	1	0	1	-8,597604	275,166025	316,461474	0
15.01.2021	12:37:21	0	80,116776	3,182235	1,821	2,2788	0,881	87,764	0	1015,48	7,9	9,7	9,6	1	1	1	1	1	1	1	1	1	0	1	-11,768851	275,238701	313,633775	0
15.01.2021	12:37:22	0	80,351945	3,750514	1,79325	360	0,91	87,794	0	1015,62	7,8	9,6	9,5	1	1	1	1	1	1	1	1	1	0	1	-15,926709	275,186536	309,229301	0
15.01.2021	12:37:23	0	80,703289	4,887033	1,827	356,184	0,889	87,78	0	1015,58	7,9	9,7	9,5	1	1	1	1	1	1	1	1	1	0	1	-13,883016	275,348227	312,037875	0
15.01.2021	12:37:24	0	80,469253	2,273025	1,86225	352,188	0,889	87,776	0	1015,52	7,8	9,6	9,6	1	1	1	1	1	1	1	1	1	0	1	-13,883016	275,292593	311,774544	0
15.01.2021	12:37:25	0	80,585993	4,091469	1,7145	356,2236	0,888	87,768	0	1015,26	7,9	9,7	9,5	1	1	1	1	1	1	1	1	1	0	1	-11,275546	275,150262	313,709053	0
15.01.2021	12:37:26	0	80,469259	4,091469	1,6725	359,892	0,886	87,778	0	1015,46	7,9	9,6	9,5	1	1	1	1	1	1	1	1	1	0	1	-18,111346	275,192852	307,074514	0
15.01.2021	12:37:27	0	80,117355	2,841298	1,722	355,0752	0,894	87,789	0	1015,4	7,9	9,6	9,5	1	1	1	1	1	1	1	1	1	0	1	-12,966878	275,329135	312,863625	0
15.01.2021	12:37:28	0	80,3514	4,205121	1,77975	359,6004	0,89	87,798	0	1015,56	7,8	9,7	9,5	1	1	1	1	1	1	1	1	1	0	1	-12,755462	275,233953	312,624712	0
15.01.2021	12:37:29	0	80,351965	3,295906	1,8405	350,3664	0,894	87,791	0	1015,58	7,9	9,6	9,5	1	1	1	1	1	1	1	1	1	0	1	-10,288936	275,319595	315,496413	0
15.01.2021	12:37:30	0	80,469271	3,409578	1,95675	352,4256	0,896	87,8	0	1015,34	7,9	9,6	9,4	1	1	1	1	1	1	1	1	1	0	1	-10,852713	275,202329	314,377944	0
15.01.2021	12:37:31	0	80,469273	3,63684	2,06325	353,592	0,889	87,809	0	1015,46	7,8	9,6	9,6	1	1	1	1	1	1	1	1	1	0	1	-10,641297	275,184957	314,507252	0
15.01.2021	12:37:32	0	80,586579	4,77338	2,091	350,9568	0,887	87,798	0	1015,36	7,8	9,6	9,5	1	1	1	1	1	1	1	1	1	0	1	-11,980268	275,202329	313,250389	0
15.01.2021	12:37:33	0	80,468716	4,318747	2,07225	351,0144	0,89	87,804	0	1015,42	7,9	9,7	9,6	1	1	1	1	1	1	1	1	1	0	1	-10,641297	275,330725	315,196734	0
15.01.2021	12:37:34	0	80,586584	4,205096	2,0565	355,8024	0,897	87,794	0	1015,28	7,9	9,6	9,6	1	1	1	1	1	1	1	1	1	0	1	-10,782241	275,321185	315,010632	0
15.01.2021	12:37:35	0	80,35142	2,727629	2,055	351,2808	0,895	87,812	0	1015,5	7,9	9,7	9,6	1	1	1	1	1	1	1	1	1	0	1	-11,557435	275,306884	314,167752	0
15.01.2021	12:37:36	0	81,055799	3,977817	1,9905	354,276	0,893	87,825	0	1015,48	7,8	9,6	9,5	1	1	1	1	1	1	1	1	1	0	1	-11,627907	275,351411	314,308059	0
15.01.2021	12:37:37	0	80,703895	4,6597	1,99425	354,6576	0,896	87,816	0	1015,56	7,8	9,6	9,6	1	1	1	1	1	1	1	1	1	0	1	-10,147992	275,330725	315,69004	0
15.01.2021	12:37:38	0	80,586031	2,95495	1,992	355,1184	0,893	87,815	0	1015,52	7,9	9,7	9,5	1	1	1	1	1	1	1	1	1	0	1	-11,06413	275,208649	314,196407	0
15.01.2021	12:37:39	0	80,821203	3,295885	2,0415	352,8072	0,893	87,82	0	1015,58	7,8	9,6	9,6	1	1	1	1	1	1	1	1	1	0	1	-10,359408	275,319595	315,425941	0
15.01.2021	12:37:40	0	80,82064	3,864165	2,1495	352,7856	0,89	87,825	0	1015,64	7,9	9,7	9,5	1	1	1	1	1	1	1	1	1	0	1	-11,557435	275,365745	314,446406	0
15.01.2021	12:37:41	0	80,58604	2,841297	2,15175	354,4596	0,894	87,808	0	1015,44	7,9	9,7	9,5	1	1	1	1	1	1	1	1	1	0	1	-12,755462	275,183379	312,385627	0
15.01.2021	12:37:42	0	80,586607	3,523188	2,14875	348,0084	0,895	87,818	0	1015,54	7,9	9,6	9,6	1	1	1	1	1	1	1	1	1	0	1	-12,684989	275,216553	312,612914	0
15.01.2021	12:37:43	0	81,055251	4,318772	2,0925	358,3872	0,9	87,831	0	1015,64	7,9	9,7	9,5	1	1	1	1	1	1	1	1	1	0	1	-14,235377	275,181801	310,898253	0
15.01.2021	12:37:44	0	80,821217	4,546076	2,08425	348,696	0,899	87,828	0	1015,48	7,8	9,6	9,5	1	1	1	1	1	1	1	1	1	0	1	-13,319239	275,29418	312,345832	0
15.01.2021	12:37:45	0	80,703917	4,20512	2,13225	335,2932	0,898	87,827	0	1015,44	7,9	9,6	9,5	1	1	1	1	1	1	1	1	1	0	1	-10,570825	275,365745	315,433016	0
15.01.2021	12:37:46	0	80,938525	3,523209	2,187	348,0732	0,899	87,843	0	1015,44	7,9	9,6	9,5	1	1	1	1	1	1	1	1	1	0	1	-9,020437	275,300531	316,674686	0
15.01.2021	12:37:47	0	80,703923	3,636839	2,29575	348,66	0,903	87,842	0	1015,48	7,8	9,6	9,6	1	1	1	1	1	1	1	1	1	0	1	-14,094433	275,365745	311,909408	0
15.01.2021	12:37:48	0	80,703926	4,091468	2,241	4,464	0,901	87,849	0	1015,54	7,9	9,6	9,5	1	1	1	1	1	1	1	1	1	0	1	-15,715292	275,322775	310,085105	0
15.01.2021	12:37:49	0	80,821231	3,182253	2,01675	5,6772	0,903	87,842	0	1015,68	7,8	9,6	9,5	1	1	1	1	1	1	1	1	1	0	1	-13,178295	275,357781	312,787831	0
15.01.2021	12:37:50	0	80,821233	3,182253	2,01375	1,5336	0,904	87,846	0	1015,5	7,9	9,6	9,5	1	1	1	1	1	1	1	1	1	0	1	-11,41649	275,233953	313,963683	0
15.01.2021	12:37:51	0	81,05584	4,659699	2,2155	0,486	0,901	87,839	0	1015,48	7,8	9,6	9,6	1	1	1	1	1	1	1	1	1	0	1	-11,698379	275,186536	313,45763	0
15.01.2021	12:37:52	0	80,469332	2,727645	2,406	6,0624	0,904	87,841	0	1015,4	7,9	9,6	9,5	1	1	1	1	1	1	1	1	1	0	1	-11,768851	275,188115	313,39462	0
15.01.2021	12:37:53	0	81,055846	5,114304	2,45325	360	0,906	87,834	0	1015,48	7,9	9,6	9,6	1	1	1	1	1	1	1	1	1	0	1	-12,332629	275,330725	313,505402	0
15.01.2021	12:37:54	0	81,055848	3,295904	2,424	360	0,904	87,834	0	1015,48	7,9	9,6	9,5	1	1	1	1	1	1	1	1	1	0	1	-12,614517	275,356188	313,344067	0
15.01.2021	12:37:55	0	81,055851	3,295885	2,37975	359,8704	0,898	87,831	0	1015,44	7,9	9,6	9,6	1	1	1	1	1	1	1	1	1	0	1	-10,711769	275,188115	314,451702	0
15.01.2021	12:37:56	0	81,055286	3,068601	2,29875	6,5232	0,903	87,845	0	1015,42	7,9	9,7	9,5	1	1	1	1	1	1	1	1	1	0	1	-14,799154	275,270384	310,753329	0
15.01.2021	12:37:57	0	80,937987	2,84128	2,247	360	0,904	87,84	0	1015,48	7,9	9,7	9,6	1	1	1	1	1	1	1	1	1	0	1	-15,151515	275,423188	311,124435	0
15.01.2021	12:37:58	0	81,055291	4,205119	2,1165	7,8588	0,904	87,842	0	1015,48	7,9	9,7	9,5	1	1	1	1	1	1	1	1	1	0	1	-9,795631	275,19601	315,405158	0
15.01.2021	12:37:59	0	80,821257	3,63686	1,99725	1,9224	0,909	87,844	0	1015,5	7,9	9,6	9,5	1	1	1	1	1	1	1	1	1	0	1	-14,869626	275,298943	310,817982	0
15.01.2021	12:38:00	0	80,70396	3,409556	1,9185	7,524	0,906	87,846	0	1015,52	7,9	9,6	9,5	1	1	1	1	1	1	1	1	1	0	1	-12,825934	275,19759	312,382321	0
15.01.2021	12:38:01	0	80,70396	3,409556	1,9185	7,524	0,906	87,846	0	1015,52	7,9	9,6	9,5	1	1	1	1	1	1	1	1	1	0	1	-14,305849	275,273555	311,261636	0
15.01.2021	12:38:02	0	80,938	3,295904	1,926	350,2404	0,909	87,84	0	1015,6	7,9	9,7	9,5	1	1	1	1	1	1	1	1	1	0	1	-18,534179	275,362559	307,454573	0
15.01.2021	12:38:03	0	81,173174	5,227985	2,12175	345,3948	0,909	87,822	0	1015,54	7,9	9,6	9,5	1	1	1	1	1	1	1	1	1	0	1	-13,883016	275,251368	311,579518	0
15.01.2021	12:38:04	0	81,173176	4,432396	2,19675	344,7324	0,909	87,823	0	1015,4	7,9	9,6	9,6	1	1	1	1	1	1	1	1	1	0	1	-14,728682	275,19759	310,479573	0
15.01.2021	12:38:05	0	81,525086	5,227954	2,3145	347,2272	0,902	87,793	0	1015,44	7,9	9,6	9,6	1	1	1	1	1	1	1	1	1	0	1	-13,883016	275,31165	311,864726	0
15.01.2021	12:38:06	0	81,055879	2,841296	2,382	344,3328	0,911	87,785	0	1015,18	7,9	9,6	9,5	1	1	1	1	1	1	1	1	1	0	1	-10,641297	275,184957	314,507252	0
15.01.2021	12:38:07	0	81,173184	2,500341	2,33475	337,9572	0,906	87,765	0	1015,54	7,8	9,6	9,5	1	1	1	1	1	1	1	1	1	0	1	-12,191684	275,273555	313,375801	0
15.01.2021	12:38:08	0	81,055884	4,205118	2,2545	337,5504	0,907	87,753	0	1015,46	7,9	9,6	9,5	1	1	1	1	1	1	1	1	1	0	1	-15,010571	275,370526	311,015909	0
15.01.2021	12:38:09	0	81,290491	2,273023	2,21325	348,7284	0,91	87,75	0	1015,46	7,9	9,6	9,6	1	1	1	1	1	1	1	1	1	0	1	-12,403101	275,226042	312,939666	0
15.01.2021	12:38:10	0	80,938586	3,068581	2,12325	348,2604	0,911	87,742	0	1015,5	7,8	9,6	9,6	1	1	1	1	1	1	1	1	1	0	1	-12,684989	275,229206	312,672738	0
15.01.2021	12:38:11	0	81,290496	3,068581	1,989	352,8	0,909	87,72	0	1015,46	7,9	9,6	9,6	1	1	1	1	1	1	1	1	1	0	1	-12,825934	275,221297	312,494398	0
15.01.2021	12:38:12	0	81,055894	2,954966	1,99425	1,5624	0,91	87,714	0	1015,42	7,9	9,6	9,4	1	1	1	1	1	1	1	1	1	0	1	-11,980268	275,189694	313,190665	0
15.01.2021	12:38:13	0	81,055328	3,409555	2,05575	358,4556	0,907	87,716	0	1015,5	7,9	9,7	9,5	1	1	1	1	1	1	1	1	1	0	1	-14,305849	275,229206	311,051878	0
15.01.2021	12:38:14	0	81,173201	4,091442	2,16375	6,8112	0,908	87,714	0	1015,44	7,9	9,6	9,6	1	1	1	1	1	1	1	1	1	0	1	-15,856237	275,345044	310,049582	0
15.01.2021	12:38:15	0	81,290505	3,864163	2,2275	12,7656	0,91	87,715	0	1015,62	7,9	9,6	9,5	1	1	1	1	1	1	1	1	1	0	1	-16,138125	275,191272	309,040271	0
15.01.2021	12:38:16	0	81,290508	3,409555	2,18325	13,9068	0,906	87,699	0	1015,34	7,9	9,6	9,5	1	1	1	1	1	1	1	1	1	0	1	-12,473573	275,289419	313,168967	0
15.01.2021	12:38:17	0	81,29051	2,954948	2,19	356,616	0,909	87,699	0	1015,52	7,9	9,6	9,5	1	1	1	1	1	1	1	1	1	0	1	-12,825934	275,479199	313,715506	0
15.01.2021	12:38:18	0	81,407815	4,659697	2,1705	7,8768	0,905	87,674	0	1015,44	7,9	9,6	9,6	1	1	1	1	1	1	1	1	1	0	1	-12,332629	275,2482	313,114924	0
15.01.2021	12:38:19	0	81,173212	4,091441	2,23425	2,2968	0,909	87,7	0	1015,62	7,9	9,6	9,6	1	1	1	1	1	1	1	1	1	0	1	-14,305849	275,324365	311,502074	0
15.01.2021	12:38:20	0	81,290517	2,95493	2,29425	2,628	0,911	87,696	0	1015,54	7,9	9,6	9,6	1	1	1	1	1	1	1	1	1	0	1	-14,940099	275,199169	310,275623	0
15.01.2021	12:38:21	0	81,173217	4,432421	2,30925	2,6388	0,914	87,702	0	1015,54	7,9	9,6	9,5	1	1	1	1	1	1	1	1	1	0	1	-12,121212	275,332316	313,724348	0
15.01.2021	12:38:22	0	81,642429	4,887029	2,30925	358,5168	0,916	87,682	0	1015,48	7,9	9,6	9,5	1	1	1	1	1	1	1	1	1	0	1	-14,940099	275,240284	310,470014	0
15.01.2021	12:38:23	0	81,641859	2,95493	2,29425	0,126	0,933	87,699	0	1015,66	7,9	9,7	9,6	1	1	1	1	1	1	1	1	1	0	1	-17,970402	275,343452	307,927882	0
15.01.2021	12:38:24	0	81,407828	4,432421	2,376	354,312	0,903	87,679	0	1015,4	7,9	9,6	9,5	1	1	1	1	1	1	1	1	1	0	1	-13,03735	275,365745	312,966491	0
15.01.2021	12:38:25	0	81,055924	3,636858	2,43	354,7044	0,909	87,681	0	1015,52	7,9	9,6	9,5	1	1	1	1	1	1	1	1	1	0	1	-14,023961	275,19601	311,176829	0
15.01.2021	12:38:26	0	81,407833	3,523185	2,44725	4,4604	0,912	87,674	0	1015,62	7,9	9,6	9,6	1	1	1	1	1	1	1	1	1	0	1	-12,05074	275,262458	313,464252	0
15.01.2021	12:38:27	0	80,938626	2,841313	2,39625	354,9312	0,911	87,667	0	1015,42	7,9	9,6	9,4	1	1	1	1	1	1	1	1	1	0	1	-14,517266	275,177067	310,593991	0
15.01.2021	12:38:28	0	81,759744	4,659697	2,289	2,6388	0,909	87,669	0	1015,58	7,9	9,6	9,6	1	1	1	1	1	1	1	1	1	0	1	-18,957012	275,273555	306,610474	0
15.01.2021	12:38:29	0	81,641872	4,546073	2,23725	357,5448	0,903	87,675	0	1015,46	7,9	9,7	9,5	1	1	1	1	1	1	1	1	1	0	1	-12,614517	275,19601	312,586272	0
15.01.2021	12:38:30	0	81,641874	4,432421	2,14275	2,016	0,913	87,679	0	1015,48	7,9	9,7	9,5	1	1	1	1	1	1	1	1	1	0	1	-15,081043	275,240284	310,329069	0
15.01.2021	12:38:31	0	80,938067	2,727644	2,21475	3,7728	0,91	87,687	0	1015,56	7,9	9,7	9,5	1	1	1	1	1	1	1	1	1	0	1	-9,795631	275,227624	315,554616	0
15.01.2021	12:38:32	0	81,642451	3,523227	2,445	356,2632	0,913	87,678	0	1015,46	7,9	9,6	9,4	1	1	1	1	1	1	1	1	1	0	1	-14,446794	275,2482	311,000759	0
15.01.2021	12:38:33	0	81,52515	5,114362	2,664	352,494	0,907	87,674	0	1015,42	7,9	9,6	9,4	1	1	1	1	1	1	1	1	1	0	1	-10,993658	275,183379	314,147431	0
15.01.2021	12:38:34	0	81,290548	2,954929	2,72475	354,2724	0,913	87,682	0	1015,46	7,9	9,6	9,6	1	1	1	1	1	1	1	1	1	0	1	-12,966878	275,191272	312,211518	0
15.01.2021	12:38:35	0	81,641885	2,841295	2,6895	0,486	0,915	87,687	0	1015,48	7,9	9,7	9,5	1	1	1	1	1	1	1	1	1	0	1	-15,292459	275,324365	310,515463	0
15.01.2021	12:38:36	0	81,524586	4,318743	2,592	358,7148	0,899	87,677	0	1015,3	7,9	9,7	9,6	1	1	1	1	1	1	1	1	1	0	1	-13,812544	275,345044	312,093275	0
15.01.2021	12:38:37	0	81,290554	2,727643	2,52075	1,9188	0,91	87,688	0	1015,34	7,9	9,6	9,5	1	1	1	1	1	1	1	1	1	0	1	-13,319239	275,254536	312,158279	0
15.01.2021	12:38:38	0	81,407288	2,841295	2,61	16,092	0,912	87,695	0	1015,52	7,9	9,7	9,5	1	1	1	1	1	1	1	1	1	0	1	-15,433404	275,356188	310,52518	0
15.01.2021	12:38:39	0	81,642465	4,09144	2,58	354,3192	0,908	87,675	0	1015,5	7,9	9,6	9,6	1	1	1	1	1	1	1	1	1	0	1	-10,852713	275,200749	314,370476	0
15.01.2021	12:38:40	0	81,75977	2,613991	2,62875	351,0072	0,909	87,699	0	1015,56	7,9	9,6	9,5	1	1	1	1	1	1	1	1	1	0	1	-14,728682	275,252952	310,741343	0
15.01.2021	12:38:41	0	81,877074	4,546045	2,50725	352,7964	0,915	87,688	0	1015,5	7,9	9,6	9,6	1	1	1	1	1	1	1	1	1	0	1	-14,728682	275,362559	311,26007	0
15.01.2021	12:38:42	0	81,407296	3,06858	2,48475	351,6876	0,912	87,674	0	1015,58	7,9	9,7	9,6	1	1	1	1	1	1	1	1	1	0	1	-13,248767	275,229206	312,108961	0
15.01.2021	12:38:43	0	81,877078	4,546045	2,51625	345,0384	0,916	87,662	0	1015,46	7,9	9,6	9,6	1	1	1	1	1	1	1	1	1	0	1	-16,701903	275,219715	308,610952	0
15.01.2021	12:38:44	0	81,87708	5,1143	2,44125	344,0052	0,912	87,652	0	1015,42	7,9	9,6	9,6	1	1	1	1	1	1	1	1	1	0	1	-17,829457	275,375307	308,219668	0
15.01.2021	12:38:45	0	81,75978	5,000649	2,39475	351,288	0,911	87,677	0	1015,4	7,9	9,6	9,6	1	1	1	1	1	1	1	1	1	0	1	-11,346018	275,298943	314,34159	0
15.01.2021	12:38:46	0	81,641907	4,659696	2,3085	0,108	0,909	87,675	0	1015,4	7,8	9,7	9,6	1	1	1	1	1	1	1	1	1	0	1	-10,782241	275,330725	315,05579	0
15.01.2021	12:38:47	0	81,642481	3,636836	2,2425	11,682	0,913	87,667	0	1015,46	7,9	9,6	9,6	1	1	1	1	1	1	1	1	1	0	1	-14,376321	275,303707	311,333832	0
15.01.2021	12:38:48	0	81,759786	5,000679	2,133	349,452	0,917	87,669	0	1015,5	7,9	9,6	9,5	1	1	1	1	1	1	1	1	1	0	1	-11,627907	275,365745	314,375934	0
15.01.2021	12:38:49	0	81,876516	3,977789	2,1015	3,0204	0,911	87,674	0	1015,5	7,9	9,7	9,6	1	1	1	1	1	1	1	1	1	0	1	-11,134602	275,318006	314,643224	0
15.01.2021	12:38:50	0	81,759789	3,636835	2,09325	7,8696	0,916	87,661	0	1015,38	7,9	9,6	9,6	1	1	1	1	1	1	1	1	1	0	1	-13,601128	275,314828	312,161655	0
15.01.2021	12:38:51	0	81,407884	3,06858	1,99125	353,5704	0,907	87,674	0	1015,34	7,9	9,6	9,6	1	1	1	1	1	1	1	1	1	0	1	-14,799154	275,186536	310,356855	0
15.01.2021	12:38:52	0	81,759793	2,273036	1,842	353,2212	0,915	87,676	0	1015,4	7,9	9,6	9,5	1	1	1	1	1	1	1	1	1	0	1	-12,473573	275,199169	312,742149	0
15.01.2021	12:38:53	0	81,877097	5,000649	1,71825	358,3332	0,92	87,676	0	1015,52	7,9	9,6	9,6	1	1	1	1	1	1	1	1	1	0	1	-16,631431	275,25612	308,853581	0
15.01.2021	12:38:54	0	81,759224	3,18225	1,755	359,4888	0,92	87,688	0	1015,56	7,9	9,7	9,5	1	1	1	1	1	1	1	1	1	0	1	-12,05074	275,357781	313,915385	0
15.01.2021	12:38:55	0	82,111131	3,636835	1,818	4,0824	0,914	87,676	0	1015,6	7,9	9,7	9,6	1	1	1	1	1	1	1	1	1	0	1	-16,631431	275,330725	309,2066	0
15.01.2021	12:38:56	0	81,524625	3,182231	1,9215	1,17	0,915	87,674	0	1015,38	7,9	9,7	9,6	1	1	1	1	1	1	1	1	1	0	1	-16,138125	275,308472	309,594579	0
15.01.2021	12:38:57	0	81,876531	3,523205	2,03475	359,8848	0,91	87,674	0	1015,56	7,9	9,7	9,5	1	1	1	1	1	1	1	1	1	0	1	-11,768851	275,216553	313,529052	0
15.01.2021	12:38:58	0	81,642502	2,613975	2,13825	8,2692	0,917	87,687	0	1015,46	7,9	9,6	9,6	1	1	1	1	1	1	1	1	1	0	1	-12,191684	275,362559	313,797068	0
15.01.2021	12:38:59	0	81,877108	2,841277	2,2365	5,778	0,919	87,681	0	1015,64	7,9	9,6	9,6	1	1	1	1	1	1	1	1	1	0	1	-18,393235	275,205489	306,852361	0
15.01.2021	12:39:00	0	81,759809	2,954946	2,1795	12,8448	0,92	87,695	0	1015,54	7,9	9,6	9,5	1	1	1	1	1	1	1	1	1	0	1	-12,332629	275,249784	313,122414	0
15.01.2021	12:39:01	0	81,759809	2,954946	2,1795	12,8448	0,92	87,695	0	1015,54	7,9	9,6	9,5	1	1	1	1	1	1	1	1	1	0	1	-16,701903	275,37212	309,332124	0
15.01.2021	12:39:02	0	82,228445	3,636835	2,17125	12,1068	0,92	87,686	0	1015,6	7,8	9,7	9,6	1	1	1	1	1	1	1	1	1	0	1	-16,701903	275,34027	309,181313	0
15.01.2021	12:39:03	0	81,75924	3,636857	2,24325	15,0336	0,92	87,693	0	1015,48	7,9	9,7	9,5	1	1	1	1	1	1	1	1	1	0	1	-17,406624	275,218134	307,898754	0
15.01.2021	12:39:04	0	81,759242	3,18223	2,238	8,6148	0,921	87,696	0	1015,44	7,9	9,7	9,6	1	1	1	1	1	1	1	1	1	0	1	-15,362932	275,189694	309,808001	0
15.01.2021	12:39:05	0	82,111724	3,523184	2,17875	8,6004	0,923	87,692	0	1015,56	7,9	9,6	9,6	1	1	1	1	1	1	1	1	1	0	1	-13,953488	275,2482	311,494064	0
15.01.2021	12:39:06	0	82,228452	4,546071	2,2395	12,4776	0,921	87,702	0	1015,58	7,9	9,7	9,5	1	1	1	1	1	1	1	1	1	0	1	-9,936575	275,205489	315,30902	0
15.01.2021	12:39:07	0	82,22903	4,546043	2,30775	3,0168	0,925	87,698	0	1015,62	7,9	9,6	9,6	1	1	1	1	1	1	1	1	1	0	1	-17,054264	275,341861	308,836486	0
15.01.2021	12:39:08	0	81,994426	2,613991	2,38125	6,822	0,913	87,693	0	1015,54	7,9	9,6	9,5	1	1	1	1	1	1	1	1	1	0	1	-15,433404	275,21181	309,842077	0
15.01.2021	12:39:09	0	82,111155	3,068579	2,4675	4,4568	0,918	87,698	0	1015,56	7,9	9,7	9,6	1	1	1	1	1	1	1	1	1	0	1	-8,104299	275,240284	317,305814	0
15.01.2021	12:39:10	0	81,759252	3,523205	2,472	7,9848	0,921	87,698	0	1015,52	7,9	9,7	9,5	1	1	1	1	1	1	1	1	1	0	1	-14,164905	275,221297	311,155427	0
15.01.2021	12:39:11	0	82,345762	2,727642	2,55975	358,3152	0,92	87,679	0	1015,48	7,9	9,7	9,5	1	1	1	1	1	1	1	1	1	0	1	-15,081043	275,186536	310,074966	0
15.01.2021	12:39:12	0	81,87713	2,727626	2,54325	8,262	0,923	87,698	0	1015,66	7,9	9,6	9,6	1	1	1	1	1	1	1	1	1	0	1	-10,147992	275,300531	315,547131	0
15.01.2021	12:39:13	0	82,346342	4,432392	2,349	2,3004	0,918	87,674	0	1015,56	7,9	9,6	9,6	1	1	1	1	1	1	1	1	1	0	1	-13,319239	275,388064	312,790307	0
15.01.2021	12:39:14	0	82,346343	2,954928	2,23125	7,4952	0,917	87,679	0	1015,42	7,9	9,6	9,6	1	1	1	1	1	1	1	1	1	0	1	-11,486963	275,229206	313,870765	0
15.01.2021	12:39:15	0	82,229043	3,523183	2,24475	352,0332	0,914	87,676	0	1015,52	7,9	9,6	9,6	1	1	1	1	1	1	1	1	1	0	1	-13,953488	275,207069	311,299577	0
15.01.2021	12:39:16	0	82,463071	4,546043	2,18625	359,1288	0,918	87,669	0	1015,48	7,9	9,7	9,6	1	1	1	1	1	1	1	1	1	0	1	-14,869626	275,333906	310,983463	0
15.01.2021	12:39:17	0	82,111168	3,523183	2,1135	352,4508	0,916	87,666	0	1015,6	7,9	9,7	9,6	1	1	1	1	1	1	1	1	1	0	1	-13,883016	275,262458	311,631975	0
15.01.2021	12:39:18	0	82,463652	4,432418	1,9845	359,082	0,919	87,66	0	1015,5	7,9	9,6	9,5	1	1	1	1	1	1	1	1	1	0	1	-16,842847	275,348227	309,078044	0
15.01.2021	12:39:19	0	82,463654	3,409553	1,93725	353,6352	0,914	87,644	0	1015,52	7,9	9,6	9,5	1	1	1	1	1	1	1	1	1	0	1	-17,829457	275,192852	307,356402	0
15.01.2021	12:39:20	0	82,580958	5,000647	1,93425	5,202	0,919	87,645	0	1015,58	7,9	9,6	9,6	1	1	1	1	1	1	1	1	1	0	1	-18,957012	275,348227	306,963879	0
15.01.2021	12:39:21	0	82,228476	2,841294	2,01375	359,1684	0,919	87,658	0	1015,48	7,9	9,7	9,5	1	1	1	1	1	1	1	1	1	0	1	-15,503876	275,21181	309,771605	0
15.01.2021	12:39:22	0	82,697684	5,000647	2,02125	347,6304	0,92	87,649	0	1015,48	7,9	9,7	9,6	1	1	1	1	1	1	1	1	1	0	1	-15,926709	275,324365	309,881214	0
15.01.2021	12:39:23	0	82,580384	5,000647	2,01525	351,3528	0,926	87,66	0	1015,5	7,9	9,7	9,6	1	1	1	1	1	1	1	1	1	0	1	-16,842847	275,37212	309,19118	0
15.01.2021	12:39:24	0	82,346359	3,750508	2,0655	356,9148	0,922	87,662	0	1015,52	7,9	9,6	9,5	1	1	1	1	1	1	1	1	1	0	1	-11,557435	275,23237	313,815256	0
15.01.2021	12:39:25	0	82,698268	3,409532	1,99125	350,2116	0,92	87,662	0	1015,5	7,9	9,6	9,6	1	1	1	1	1	1	1	1	1	0	1	-19,309373	275,310061	306,43085	0
15.01.2021	12:39:26	0	82,580967	3,295881	2,0115	354,0168	0,924	87,666	0	1015,38	7,9	9,6	9,6	1	1	1	1	1	1	1	1	1	0	1	-13,248767	275,205489	311,996829	0
15.01.2021	12:39:27	0	82,345786	3,182249	2,26425	357,156	0,926	87,667	0	1015,38	7,9	9,7	9,5	1	1	1	1	1	1	1	1	1	0	1	-15,503876	275,240284	309,906236	0
15.01.2021	12:39:28	0	82,463089	2,727626	2,40075	1,9044	0,918	87,673	0	1015,42	7,9	9,7	9,6	1	1	1	1	1	1	1	1	1	0	1	-14,023961	275,166025	311,035117	0
15.01.2021	12:39:29	0	82,346366	4,318766	2,349	358,8084	0,924	87,655	0	1015,46	7,9	9,6	9,5	1	1	1	1	1	1	1	1	1	0	1	-15,010571	275,404022	311,174568	0
15.01.2021	12:39:30	0	82,932299	4,659694	2,38275	8,5968	0,922	87,663	0	1015,44	7,9	9,7	9,6	1	1	1	1	1	1	1	1	1	0	1	-20,718816	275,314828	305,043967	0
15.01.2021	12:39:31	0	82,580974	4,432391	2,415	4,0824	0,927	87,682	0	1015,68	7,9	9,6	9,6	1	1	1	1	1	1	1	1	1	0	1	-14,446794	275,226042	310,895973	0
15.01.2021	12:39:32	0	82,932302	2,500338	2,32425	5,6628	0,926	87,678	0	1015,44	7,9	9,7	9,5	1	1	1	1	1	1	1	1	1	0	1	-19,097956	275,222878	306,229853	0
15.01.2021	12:39:33	0	82,932884	5,114298	2,0535	343,944	0,928	87,689	0	1015,64	7,9	9,6	9,6	1	1	1	1	1	1	1	1	1	0	1	-16,913319	275,376902	309,143356	0
15.01.2021	12:39:34	0	82,932885	3,523204	1,875	355,536	0,919	87,685	0	1015,34	7,9	9,6	9,5	1	1	1	1	1	1	1	1	1	0	1	-14,164905	275,241867	311,252694	0
15.01.2021	12:39:35	0	82,815004	3,068597	1,758	347,2776	0,928	87,687	0	1015,58	7,9	9,7	9,5	1	1	1	1	1	1	1	1	1	0	1	-14,094433	275,364152	311,901864	0
15.01.2021	12:39:36	0	83,05019	3,29592	1,65675	351,3816	0,924	87,691	0	1015,54	7,9	9,6	9,4	1	1	1	1	1	1	1	1	1	0	1	-10,852713	275,194431	314,340611	0
15.01.2021	12:39:37	0	82,580981	4,773373	1,566	359,8308	0,927	87,695	0	1015,5	7,9	9,6	9,5	1	1	1	1	1	1	1	1	1	0	1	-8,386187	275,316417	317,384117	0
15.01.2021	12:39:38	0	83,16633	4,886995	1,518	342,7668	0,926	87,693	0	1015,44	7,9	9,8	9,6	1	1	1	1	1	1	1	1	1	0	1	-13,953488	275,367339	312,057898	0
15.01.2021	12:39:39	0	83,049612	3,29592	1,47975	337,1472	0,924	87,683	0	1015,54	7,9	9,7	9,4	1	1	1	1	1	1	1	1	1	0	1	-13,812544	275,202329	311,418113	0
15.01.2021	12:39:40	0	82,932312	3,977787	1,488	345,3984	0,929	87,706	0	1015,52	7,9	9,7	9,6	1	1	1	1	1	1	1	1	1	0	1	-17,124736	275,291006	308,525314	0
15.01.2021	12:39:41	0	82,932894	5,000676	1,49475	347,2848	0,928	87,697	0	1015,5	7,9	9,6	9,5	1	1	1	1	1	1	1	1	1	0	1	-15,64482	275,384874	310,449616	0
15.01.2021	12:39:42	0	83,049616	4,091462	1,5015	344,3184	0,923	87,692	0	1015,54	7,9	9,7	9,5	1	1	1	1	1	1	1	1	1	0	1	-11,275546	275,310061	314,464676	0
15.01.2021	12:39:43	0	82,815014	4,205114	1,452	347,5584	0,923	87,701	0	1015,54	7,9	9,7	9,5	1	1	1	1	1	1	1	1	1	0	1	-14,376321	275,370526	311,650158	0
15.01.2021	12:39:44	0	83,284222	4,318766	1,48425	349,9128	0,925	87,703	0	1015,44	7,9	9,7	9,5	1	1	1	1	1	1	1	1	1	0	1	-15,926709	275,338679	309,948974	0
15.01.2021	12:39:45	0	82,932318	3,068578	1,5225	342,7416	0,929	87,719	0	1015,56	7,9	9,7	9,6	1	1	1	1	1	1	1	1	1	0	1	-12,262156	275,386469	313,839834	0
15.01.2021	12:39:46	0	83,518828	5,000646	1,548	346,7952	0,932	87,712	0	1015,42	7,9	9,7	9,6	1	1	1	1	1	1	1	1	1	0	1	-12,755462	275,322775	313,044936	0
15.01.2021	12:39:47	0	83,167506	2,500323	1,51575	343,4544	0,927	87,724	0	1015,44	7,9	9,6	9,6	1	1	1	1	1	1	1	1	1	0	1	-13,742072	275,257704	311,750433	0
15.01.2021	12:39:48	0	82,697718	2,727625	1,5075	348,318	0,924	87,721	0	1015,38	7,9	9,7	9,6	1	1	1	1	1	1	1	1	1	0	1	-15,997181	275,207069	309,255885	0
15.01.2021	12:39:49	0	83,753435	4,659693	1,5135	344,6388	0,931	87,734	0	1015,44	7,9	9,7	9,6	1	1	1	1	1	1	1	1	1	0	1	-17,618041	275,295768	308,054542	0
15.01.2021	12:39:50	0	82,815602	2,727625	1,4715	345,636	0,931	87,731	0	1015,5	7,9	9,6	9,6	1	1	1	1	1	1	1	1	1	0	1	-15,433404	275,21023	309,834605	0
15.01.2021	12:39:51	0	83,518833	4,31874	1,36875	354,7188	0,924	87,714	0	1015,42	7,9	9,7	9,6	1	1	1	1	1	1	1	1	1	0	1	-13,389711	275,306884	312,335475	0
15.01.2021	12:39:52	0	83,284231	4,546042	1,404	353,6892	0,934	87,744	0	1015,48	7,9	9,7	9,6	1	1	1	1	1	1	1	1	1	0	1	-19,450317	275,384874	306,644119	0
15.01.2021	12:39:53	0	83,284232	3,523182	1,413	5,67	0,935	87,741	0	1015,36	7,9	9,7	9,6	1	1	1	1	1	1	1	1	1	0	1	-16,27907	275,341861	309,61168	0
15.01.2021	12:39:54	0	83,167514	2,386672	1,43625	0,4644	0,931	87,741	0	1015,5	7,9	9,6	9,6	1	1	1	1	1	1	1	1	1	0	1	-16,913319	275,241867	308,50428	0
15.01.2021	12:39:55	0	83,166932	2,841293	1,422	7,2216	0,934	87,744	0	1015,34	7,9	9,7	9,5	1	1	1	1	1	1	1	1	1	0	1	-16,420014	275,208649	308,840523	0
15.01.2021	12:39:56	0	83,402121	4,773344	1,368	12,8484	0,936	87,731	0	1015,36	7,9	9,6	9,6	1	1	1	1	1	1	1	1	1	0	1	-17,618041	275,319595	308,167308	0
15.01.2021	12:39:57	0	83,049633	2,954927	1,31475	3,7728	0,93	87,737	0	1015,42	7,9	9,7	9,6	1	1	1	1	1	1	1	1	1	0	1	-14,940099	275,219715	310,372756	0
15.01.2021	12:39:58	0	83,166936	3,409552	1,24725	11,6964	0,94	87,753	0	1015,52	7,9	9,7	9,5	1	1	1	1	1	1	1	1	1	0	1	-14,728682	275,329135	311,101821	0
15.01.2021	12:39:59	0	83,284822	4,432391	1,23375	8,9928	0,936	87,75	0	1015,48	7,9	9,6	9,6	1	1	1	1	1	1	1	1	1	0	1	-15,010571	275,383279	311,076311	0
15.01.2021	12:40:00	0	83,518844	4,659693	1,2315	1,17	0,936	87,736	0	1015,64	7,9	9,7	9,6	1	1	1	1	1	1	1	1	1	0	1	-13,530655	275,281485	312,074348	0
15.01.2021	12:40:01	0	83,518844	4,659693	1,2315	1,17	0,936	87,736	0	1015,64	7,9	9,7	9,6	1	1	1	1	1	1	1	1	1	0	1	-14,094433	275,21023	311,173576	0
15.01.2021	12:40:02	0	83,636146	5,114327	1,25475	12,8484	0,944	87,746	0	1015,34	7,9	9,7	9,5	1	1	1	1	1	1	1	1	1	0	1	-19,732206	275,354596	306,218838	0
15.01.2021	12:40:03	0	83,284825	3,2959	1,23075	7,1244	0,941	87,765	0	1015,58	7,9	9,6	9,5	1	1	1	1	1	1	1	1	1	0	1	-15,856237	275,245033	309,576338	0
15.01.2021	12:40:04	0	83,519432	4,205088	1,2855	346,9644	0,932	87,759	0	1015,48	7,9	9,6	9,6	1	1	1	1	1	1	1	1	1	0	1	-16,420014	275,249784	309,035029	0
15.01.2021	12:40:05	0	83,284827	2,500338	1,2735	4,0788	0,932	87,753	0	1015,36	7,9	9,6	9,5	1	1	1	1	1	1	1	1	1	0	1	-14,023961	275,213391	311,258994	0
15.01.2021	12:40:06	0	83,636736	3,409552	1,2795	4,464	0,942	87,76	0	1015,56	7,9	9,6	9,5	1	1	1	1	1	1	1	1	1	0	1	-15,362932	275,264043	310,159557	0
15.01.2021	12:40:07	0	83,049642	3,977786	1,25475	0,1044	0,943	87,766	0	1015,48	7,9	9,7	9,6	1	1	1	1	1	1	1	1	1	0	1	-13,6716	275,203909	311,566526	0
15.01.2021	12:40:08	0	83,284247	3,29588	1,25625	15,0192	0,945	87,758	0	1015,48	7,9	9,7	9,6	1	1	1	1	1	1	1	1	1	0	1	-19,520789	275,396041	306,626543	0
15.01.2021	12:40:09	0	83,284831	2,500323	1,25175	12,1032	0,94	87,76	0	1015,52	7,9	9,6	9,6	1	1	1	1	1	1	1	1	1	0	1	-17,124736	275,370526	308,901744	0
15.01.2021	12:40:10	0	83,167529	2,15937	1,25325	9,7488	0,94	87,755	0	1015,52	7,9	9,6	9,6	1	1	1	1	1	1	1	1	1	0	1	-16,349542	275,203909	308,888584	0
15.01.2021	12:40:11	0	83,16753	2,500323	1,194	4,0968	0,942	87,76	0	1015,5	7,9	9,6	9,6	1	1	1	1	1	1	1	1	1	0	1	-16,772375	275,327545	309,0506	0
15.01.2021	12:40:12	0	83,518853	4,659692	1,1085	9,072	0,934	87,765	0	1015,5	7,9	9,7	9,6	1	1	1	1	1	1	1	1	1	0	1	-15,574348	275,213391	309,708606	0
15.01.2021	12:40:13	0	83,753458	2,841276	1,074	22,0788	0,938	87,752	0	1015,6	7,9	9,7	9,6	1	1	1	1	1	1	1	1	1	0	1	-18,957012	275,302119	306,745626	0
15.01.2021	12:40:14	0	83,636743	4,43239	1,113	6,0768	0,946	87,77	0	1015,5	7,9	9,6	9,6	1	1	1	1	1	1	1	1	1	0	1	-17,970402	275,381685	308,108927	0
15.01.2021	12:40:15	0	83,519441	3,864135	1,10775	359,8848	0,945	87,762	0	1015,48	7,9	9,6	9,6	1	1	1	1	1	1	1	1	1	0	1	-14,094433	275,227624	311,255814	0
15.01.2021	12:40:16	0	83,754047	5,000645	1,146	0,4824	0,946	87,756	0	1015,52	7,9	9,6	9,6	1	1	1	1	1	1	1	1	1	0	1	-15,292459	275,313239	310,462802	0
15.01.2021	12:40:17	0	83,167535	2,841293	1,26675	1,1736	0,946	87,756	0	1015,5	7,9	9,6	9,5	1	1	1	1	1	1	1	1	1	0	1	-17,054264	275,378496	309,009962	0
15.01.2021	12:40:18	0	83,284255	4,43239	1,3125	1,9008	0,942	87,758	0	1015,52	7,9	9,7	9,6	1	1	1	1	1	1	1	1	1	0	1	-16,27907	275,405618	309,913633	0
15.01.2021	12:40:19	0	83,518859	3,523182	1,26975	356,9688	0,948	87,759	0	1015,58	7,9	9,7	9,6	1	1	1	1	1	1	1	1	1	0	1	-18,745595	275,394446	307,394178	0
15.01.2021	12:40:20	0	83,401558	3,29588	1,1865	12,0888	0,943	87,749	0	1015,46	7,9	9,7	9,6	1	1	1	1	1	1	1	1	1	0	1	-15,856237	275,227624	309,49401	0
15.01.2021	12:40:21	0	83,401558	4,205088	1,10625	3,4056	0,943	87,756	0	1015,4	7,9	9,7	9,6	1	1	1	1	1	1	1	1	1	0	1	-16,842847	275,319595	308,942502	0
15.01.2021	12:40:22	0	83,284841	3,182229	1,107	347,634	0,945	87,749	0	1015,58	7,9	9,6	9,6	1	1	1	1	1	1	1	1	1	0	1	-13,530655	275,241867	311,886944	0
15.01.2021	12:40:23	0	83,754052	3,750484	1,1205	353,9304	0,95	87,752	0	1015,5	7,9	9,6	9,6	1	1	1	1	1	1	1	1	1	0	1	-16,631431	275,338679	309,244253	0
15.01.2021	12:40:24	0	83,402145	2,727625	1,16475	357,228	0,952	87,766	0	1015,46	7,9	9,6	9,6	1	1	1	1	1	1	1	1	1	0	1	-15,574348	275,38009	310,497429	0
15.01.2021	12:40:25	0	83,284259	4,43239	1,1445	2,2824	0,947	87,752	0	1015,5	7,9	9,7	9,6	1	1	1	1	1	1	1	1	1	0	1	-15,856237	275,360966	310,124972	0
15.01.2021	12:40:26	0	83,518278	3,636855	1,1655	349,8156	0,943	87,762	0	1015,48	7,9	9,8	9,5	1	1	1	1	1	1	1	1	1	0	1	-20,295983	275,356188	305,662601	0
15.01.2021	12:40:27	0	83,402146	2,386672	1,14975	348,3144	0,944	87,739	0	1015,52	7,8	9,6	9,6	1	1	1	1	1	1	1	1	1	0	1	-17,26568	275,218134	308,039698	0
15.01.2021	12:40:28	0	83,518865	2,954927	1,15125	351,0792	0,95	87,752	0	1015,48	7,9	9,7	9,6	1	1	1	1	1	1	1	1	1	0	1	-15,715292	275,348227	310,205598	0
15.01.2021	12:40:29	0	83,284845	2,500338	1,1805	347,2812	0,94	87,737	0	1015,4	7,9	9,6	9,5	1	1	1	1	1	1	1	1	1	0	1	-18,816068	275,222878	306,511742	0
15.01.2021	12:40:30	0	83,402148	2,841276	1,2615	352,0584	0,947	87,755	0	1015,48	7,9	9,6	9,6	1	1	1	1	1	1	1	1	1	0	1	-20,014094	275,360966	305,967115	0
15.01.2021	12:40:31	0	83,049659	3,409531	1,323	341,2944	0,947	87,734	0	1015,54	7,9	9,7	9,6	1	1	1	1	1	1	1	1	1	0	1	-15,503876	275,388064	310,605669	0
15.01.2021	12:40:32	0	83,519452	4,43239	1,4895	5,1912	0,947	87,748	0	1015,46	7,9	9,6	9,6	1	1	1	1	1	1	1	1	1	0	1	-15,081043	275,375307	310,968082	0
15.01.2021	12:40:33	0	83,519452	3,636833	1,626	355,0392	0,948	87,755	0	1015,46	7,8	9,6	9,6	1	1	1	1	1	1	1	1	1	0	1	-19,168428	275,346636	306,744926	0
15.01.2021	12:40:34	0	83,050243	2,613974	1,6455	356,5512	0,948	87,738	0	1015,36	7,9	9,6	9,6	1	1	1	1	1	1	1	1	1	0	1	-16,490486	275,412005	309,732478	0
15.01.2021	12:40:35	0	83,284265	5,114296	1,644	0,1332	0,952	87,766	0	1015,66	7,9	9,7	9,6	1	1	1	1	1	1	1	1	1	0	1	-14,869626	275,279899	310,727872	0
15.01.2021	12:40:36	0	83,284849	4,205088	1,6485	7,8768	0,948	87,74	0	1015,44	7,9	9,6	9,6	1	1	1	1	1	1	1	1	1	0	1	-14,728682	275,397637	311,42621	0
15.01.2021	12:40:37	0	83,284266	4,887023	1,63875	0,4824	0,946	87,753	0	1015,36	7,9	9,7	9,5	1	1	1	1	1	1	1	1	1	0	1	-16,560958	275,389659	309,556143	0
15.01.2021	12:40:38	0	83,51887	4,205088	1,6695	5,2308	0,958	87,753	0	1015,56	7,9	9,7	9,6	1	1	1	1	1	1	1	1	1	0	1	-15,715292	275,254536	309,762226	0
15.01.2021	12:40:39	0	83,050245	3,636833	1,70475	358,398	0,955	87,749	0	1015,64	7,9	9,6	9,6	1	1	1	1	1	1	1	1	1	0	1	-17,970402	275,362559	308,018351	0
15.01.2021	12:40:40	0	83,518871	2,727624	1,68075	358,2504	0,954	87,757	0	1015,54	7,9	9,7	9,6	1	1	1	1	1	1	1	1	1	0	1	-19,238901	275,233953	306,141273	0
15.01.2021	12:40:41	0	83,166966	3,523182	1,6545	356,22	0,953	87,761	0	1015,42	7,9	9,7	9,6	1	1	1	1	1	1	1	1	1	0	1	-18,181818	275,364152	307,814478	0
15.01.2021	12:40:42	0	83,519457	4,659692	1,59	353,3328	0,95	87,755	0	1015,44	7,9	9,6	9,6	1	1	1	1	1	1	1	1	1	0	1	-16,772375	275,368932	309,246558	0
15.01.2021	12:40:43	0	83,400986	4,318739	1,5615	354,2688	0,952	87,763	0	1015,44	7,9	9,8	9,6	1	1	1	1	1	1	1	1	1	0	1	-17,477097	275,367339	308,53429	0
15.01.2021	12:40:44	0	82,698339	2,500322	1,4925	353,9628	0,946	87,75	0	1015,44	7,9	9,6	9,6	1	1	1	1	1	1	1	1	1	0	1	-12,191684	275,426384	314,099412	0
15.01.2021	12:40:45	0	83,166967	3,636833	1,52625	349,1568	0,948	87,76	0	1015,42	7,9	9,7	9,6	1	1	1	1	1	1	1	1	1	0	1	-17,26568	275,303707	308,444473	0
15.01.2021	12:40:46	0	82,815642	2,954926	1,521	355,4568	0,947	87,763	0	1015,54	7,9	9,6	9,6	1	1	1	1	1	1	1	1	1	0	1	-19,027484	275,235535	306,360173	0
15.01.2021	12:40:47	0	82,815063	3,523182	1,569	351,4284	0,952	87,764	0	1015,46	7,9	9,7	9,6	1	1	1	1	1	1	1	1	1	0	1	-15,715292	275,262458	309,799699	0
15.01.2021	12:40:48	0	83,049666	3,068578	1,62075	348,0336	0,958	87,767	0	1015,46	7,9	9,7	9,6	1	1	1	1	1	1	1	1	1	0	1	-17,758985	275,222878	307,568824	0
15.01.2021	12:40:49	0	83,049667	2,954926	1,6215	352,5516	0,952	87,768	0	1015,46	7,9	9,7	9,6	1	1	1	1	1	1	1	1	1	0	1	-17,195208	275,284658	308,424808	0
15.01.2021	12:40:50	0	82,815063	3,182229	1,6605	360	0,952	87,755	0	1015,44	7,9	9,7	9,6	1	1	1	1	1	1	1	1	1	0	1	-22,762509	275,407215	303,437758	0
15.01.2021	12:40:51	0	82,815644	2,727624	1,65975	353,952	0,954	87,762	0	1015,44	7,8	9,6	9,6	1	1	1	1	1	1	1	1	1	0	1	-14,587738	275,306884	311,137449	0
15.01.2021	12:40:52	0	82,815064	2,954926	1,73025	351,09	0,95	87,755	0	1015,54	7,9	9,7	9,6	1	1	1	1	1	1	1	1	1	0	1	-21,141649	275,237118	304,253493	0
15.01.2021	12:40:53	0	82,932366	2,500322	1,82475	8,244	0,953	87,761	0	1015,5	7,9	9,7	9,6	1	1	1	1	1	1	1	1	1	0	1	-19,732206	275,281485	305,872798	0
15.01.2021	12:40:54	0	82,815645	2,841275	1,824	4,4604	0,957	87,756	0	1015,5	7,8	9,6	9,6	1	1	1	1	1	1	1	1	1	0	1	-20,295983	275,375307	305,753142	0
15.01.2021	12:40:55	0	82,346434	2,727624	1,7985	0,1188	0,956	87,764	0	1015,5	7,9	9,6	9,6	1	1	1	1	1	1	1	1	1	0	1	-16,208598	275,249784	309,246445	0
15.01.2021	12:40:56	0	82,932948	3,409531	1,75875	360	0,963	87,769	0	1015,52	7,9	9,6	9,6	1	1	1	1	1	1	1	1	1	0	1	-18,463707	275,297355	307,216389	0
15.01.2021	12:40:57	0	82,463737	3,182248	1,7295	2,3004	0,961	87,769	0	1015,5	7,8	9,6	9,5	1	1	1	1	1	1	1	1	1	0	1	-18,322763	275,270384	307,229721	0
15.01.2021	12:40:58	0	82,58104	2,500322	1,698	360	0,963	87,77	0	1015,58	7,8	9,6	9,6	1	1	1	1	1	1	1	1	1	0	1	-16,138125	275,42159	310,130253	0
15.01.2021	12:40:59	0	82,46316	2,954926	1,6905	357,3108	0,956	87,763	0	1015,58	7,8	9,7	9,6	1	1	1	1	1	1	1	1	1	0	1	-17,758985	275,276727	307,823505	0
15.01.2021	12:41:00	0	82,463738	4,091437	1,761	351,7884	0,959	87,784	0	1015,5	7,9	9,6	9,6	1	1	1	1	1	1	1	1	1	0	1	-16,490486	275,410408	309,724911	0
15.01.2021	12:41:01	0	82,463738	4,091437	1,761	351,7884	0,959	87,784	0	1015,5	7,9	9,6	9,6	1	1	1	1	1	1	1	1	1	0	1	-17,829457	275,354596	308,121587	0
15.01.2021	12:41:02	0	82,228557	2,954926	1,87125	359,9064	0,954	87,777	0	1015,46	7,9	9,7	9,6	1	1	1	1	1	1	1	1	1	0	1	-16,772375	275,426384	309,518721	0
15.01.2021	12:41:03	0	82,580462	4,43239	1,896	1,1664	0,961	87,794	0	1015,48	7,9	9,7	9,6	1	1	1	1	1	1	1	1	1	0	1	-15,64482	275,302119	310,057817	0
15.01.2021	12:41:04	0	82,345859	4,091461	1,935	4,8348	0,962	87,781	0	1015,58	7,9	9,7	9,5	1	1	1	1	1	1	1	1	1	0	1	-17,26568	275,251368	308,196854	0
15.01.2021	12:41:05	0	82,579884	3,864135	2,00175	353,9736	0,959	87,79	0	1015,46	7,9	9,8	9,6	1	1	1	1	1	1	1	1	1	0	1	-14,869626	275,384874	311,224809	0
15.01.2021	12:41:06	0	82,580463	4,659692	2,0685	7,5096	0,965	87,773	0	1015,58	7,9	9,7	9,6	1	1	1	1	1	1	1	1	1	0	1	-18,25229	275,42159	308,016088	0
15.01.2021	12:41:07	0	81,993954	3,068596	2,23725	7,1244	0,963	87,783	0	1015,64	7,8	9,7	9,5	1	1	1	1	1	1	1	1	1	0	1	-16,631431	275,245033	308,801144	0
15.01.2021	12:41:08	0	81,75935	3,068596	2,30025	2,394	0,963	87,78	0	1015,54	7,9	9,7	9,5	1	1	1	1	1	1	1	1	1	0	1	-18,604651	275,332316	307,240909	0
15.01.2021	12:41:09	0	81,993954	4,659692	2,29425	3,402	0,962	87,773	0	1015,54	7,8	9,7	9,6	1	1	1	1	1	1	1	1	1	0	1	-19,027484	275,4152	307,210615	0
15.01.2021	12:41:10	0	82,463161	2,841292	2,292	2,6388	0,962	87,768	0	1015,52	7,8	9,7	9,5	1	1	1	1	1	1	1	1	1	0	1	-17,406624	275,365745	308,597217	0
15.01.2021	12:41:11	0	81,877226	2,613973	2,442	7,8948	0,964	87,769	0	1015,34	7,9	9,6	9,6	1	1	1	1	1	1	1	1	1	0	1	-17,758985	275,25612	307,726026	0
15.01.2021	12:41:12	0	82,229133	3,295899	2,51175	4,0896	0,963	87,755	0	1015,36	7,9	9,6	9,5	1	1	1	1	1	1	1	1	1	0	1	-19,450317	275,292593	306,207243	0
15.01.2021	12:41:13	0	81,993379	3,636833	2,55075	11,2104	0,964	87,767	0	1015,58	7,8	9,8	9,6	1	1	1	1	1	1	1	1	1	0	1	-15,151515	275,264043	310,370973	0
15.01.2021	12:41:14	0	81,876652	3,750484	2,505	5,2272	0,966	87,76	0	1015,56	7,9	9,7	9,6	1	1	1	1	1	1	1	1	1	0	1	-19,097956	275,437575	307,246174	0
15.01.2021	12:41:15	0	81,759923	3,409551	2,43225	8,5968	0,963	87,76	0	1015,54	7,9	9,6	9,5	1	1	1	1	1	1	1	1	1	0	1	-17,829457	275,298943	307,858151	0
15.01.2021	12:41:16	0	81,876652	3,636833	2,373	18,8316	0,965	87,735	0	1015,58	7,9	9,7	9,6	1	1	1	1	1	1	1	1	1	0	1	-17,477097	275,389659	308,640005	0
15.01.2021	12:41:17	0	81,876652	4,887023	2,163	21,3948	0,963	87,725	0	1015,42	7,8	9,7	9,5	1	1	1	1	1	1	1	1	1	0	1	-17,970402	275,383279	308,11648	0
15.01.2021	12:41:18	0	82,11068	2,500337	1,95975	24,3504	0,966	87,721	0	1015,58	7,9	9,8	9,5	1	1	1	1	1	1	1	1	1	0	1	-19,661734	275,435976	306,674818	0
15.01.2021	12:41:19	0	81,877225	3,182228	1,83075	19,5156	0,964	87,711	0	1015,46	7,9	9,6	9,6	1	1	1	1	1	1	1	1	1	0	1	-21,987315	275,365745	304,016526	0
15.01.2021	12:41:20	0	81,759922	3,295899	1,746	16,8444	0,964	87,717	0	1015,52	7,9	9,6	9,5	1	1	1	1	1	1	1	1	1	0	1	-21,000705	275,252952	304,469321	0
15.01.2021	12:41:21	0	81,642048	4,65972	1,71975	11,7036	0,966	87,693	0	1015,48	7,8	9,7	9,5	1	1	1	1	1	1	1	1	1	0	1	-21,353066	275,259289	304,146934	0
15.01.2021	12:41:22	0	81,525317	3,636833	1,72725	23,2164	0,969	87,697	0	1015,6	7,9	9,6	9,6	1	1	1	1	1	1	1	1	1	0	1	-21,212121	275,316417	304,558183	0
15.01.2021	12:41:23	0	81,524746	2,727624	1,68675	0,126	0,968	87,687	0	1015,52	7,9	9,7	9,6	1	1	1	1	1	1	1	1	1	0	1	-23,537703	275,252952	301,932323	0
15.01.2021	12:41:24	0	81,524745	2,613973	1,7055	8,2656	0,972	87,685	0	1015,58	7,9	9,7	9,6	1	1	1	1	1	1	1	1	1	0	1	-16,842847	275,399233	309,319606	0
15.01.2021	12:41:25	0	81,17284	2,613989	1,66425	19,9008	0,969	87,669	0	1015,38	8	9,7	9,5	1	1	1	1	1	1	1	1	1	0	1	-18,534179	275,450373	307,870607	0
15.01.2021	12:41:26	0	81,87665	2,841275	1,635	18,4644	0,971	87,661	0	1015,54	7,9	9,7	9,6	1	1	1	1	1	1	1	1	1	0	1	-16,138125	275,353003	309,805379	0
15.01.2021	12:41:27	0	81,642047	3,750506	1,647	19,224	0,966	87,642	0	1015,56	7,9	9,7	9,5	1	1	1	1	1	1	1	1	1	0	1	-18,745595	275,43118	307,568225	0
15.01.2021	12:41:28	0	81,524745	2,500322	1,6305	25,0452	0,962	87,64	0	1015,34	7,9	9,7	9,6	1	1	1	1	1	1	1	1	1	0	1	-23,185342	275,267213	302,352143	0
15.01.2021	12:41:29	0	81,29071	4,318739	1,5855	3,3984	0,975	87,645	0	1015,54	7,9	9,6	9,6	1	1	1	1	1	1	1	1	1	0	1	-20,718816	275,267213	304,818668	0
15.01.2021	12:41:30	0	81,524744	3,97781	1,5255	11,7072	0,968	87,652	0	1015,54	7,9	9,7	9,5	1	1	1	1	1	1	1	1	1	0	1	-17,26568	275,287832	308,369351	0
15.01.2021	12:41:31	0	81,407442	3,068577	1,5465	354,0096	0,97	87,636	0	1015,38	8	9,7	9,6	1	1	1	1	1	1	1	1	1	0	1	-16,701903	275,368932	309,31703	0
15.01.2021	12:41:32	0	81,29014	2,954926	1,5435	357,6672	0,964	87,635	0	1015,56	7,8	9,7	9,6	1	1	1	1	1	1	1	1	1	0	1	-17,688513	275,43118	308,625308	0
15.01.2021	12:41:33	0	81,172838	3,523203	1,52925	346,5792	0,963	87,625	0	1015,44	7,8	9,7	9,5	1	1	1	1	1	1	1	1	1	0	1	-17,054264	275,389659	309,062838	0
15.01.2021	12:41:34	0	80,938234	4,205088	1,5465	351,72	0,967	87,621	0	1015,5	8	9,7	9,6	1	1	1	1	1	1	1	1	1	0	1	-19,661734	275,268798	305,88325	0
15.01.2021	12:41:35	0	81,055536	4,091461	1,51425	356,634	0,96	87,622	0	1015,5	7,8	9,7	9,5	1	1	1	1	1	1	1	1	1	0	1	-19,168428	275,291006	306,481621	0
15.01.2021	12:41:36	0	81,290139	3,636833	1,497	355,5432	0,964	87,615	0	1015,42	8	9,7	9,6	1	1	1	1	1	1	1	1	1	0	1	-17,195208	275,38009	308,876569	0
15.01.2021	12:41:37	0	81,172837	3,523182	1,44375	354,24	0,962	87,605	0	1015,34	7,8	9,7	9,6	1	1	1	1	1	1	1	1	1	0	1	-19,732206	275,289419	305,910334	0
15.01.2021	12:41:38	0	80,938233	3,750484	1,40325	353,2104	0,965	87,578	0	1015,38	7,8	9,7	9,6	1	1	1	1	1	1	1	1	1	0	1	-20,85976	275,373713	305,181815	0
15.01.2021	12:41:39	0	80,586327	3,182229	1,29375	0,486	0,968	87,596	0	1015,46	7,8	9,7	9,6	1	1	1	1	1	1	1	1	1	0	1	-18,040874	275,25612	307,444137	0
15.01.2021	12:41:40	0	81,173404	4,43239	1,2525	346,6044	0,962	87,586	0	1015,58	7,8	9,6	9,6	1	1	1	1	1	1	1	1	1	0	1	-21,423538	275,370526	304,602942	0
15.01.2021	12:41:41	0	80,938232	4,205088	1,26825	360	0,966	87,58	0	1015,52	7,8	9,7	9,6	1	1	1	1	1	1	1	1	1	0	1	-20,014094	275,259289	305,485905	0
15.01.2021	12:41:42	0	80,820929	3,523182	1,27575	0,1224	0,968	87,573	0	1015,64	7,8	9,7	9,6	1	1	1	1	1	1	1	1	1	0	1	-21,916843	275,388064	304,192703	0
15.01.2021	12:41:43	0	80,469024	3,068578	1,29075	3,096	0,969	87,576	0	1015,44	7,9	9,7	9,6	1	1	1	1	1	1	1	1	1	0	1	-20,084567	275,275141	305,490421	0
15.01.2021	12:41:44	0	80,820928	4,205088	1,2975	3,7224	0,967	87,564	0	1015,38	7,9	9,7	9,6	1	1	1	1	1	1	1	1	1	0	1	-19,450317	275,295768	306,222266	0
15.01.2021	12:41:45	0	80,469586	4,091437	1,34775	7,5132	0,97	87,547	0	1015,38	7,8	9,6	9,6	1	1	1	1	1	1	1	1	1	0	1	-22,48062	275,381685	303,598709	0
15.01.2021	12:41:46	0	80,586324	3,864135	1,41975	360	0,97	87,535	0	1015,48	7,8	9,7	9,6	1	1	1	1	1	1	1	1	1	0	1	-19,168428	275,426384	307,122668	0
15.01.2021	12:41:47	0	80,23498	2,954927	1,38675	357,6456	0,973	87,558	0	1015,5	7,8	9,6	9,6	1	1	1	1	1	1	1	1	1	0	1	-24,312896	275,308472	301,419808	0
15.01.2021	12:41:48	0	80,469021	4,318765	1,44375	356,1588	0,969	87,557	0	1015,5	7,9	9,7	9,5	1	1	1	1	1	1	1	1	1	0	1	-22,903453	275,252952	302,566572	0
15.01.2021	12:41:49	0	80,234417	4,773343	1,50225	358,0128	0,968	87,549	0	1015,46	7,8	9,7	9,6	1	1	1	1	1	1	1	1	1	0	1	-24,524313	275,375307	301,524812	0
15.01.2021	12:41:50	0	80,586322	4,43239	1,4565	359,9208	0,96	87,551	0	1015,62	7,8	9,7	9,6	1	1	1	1	1	1	1	1	1	0	1	-19,379845	275,423188	306,896106	0
15.01.2021	12:41:51	0	80,234416	3,523203	1,42725	354,9492	0,973	87,539	0	1015,5	7,9	9,7	9,5	1	1	1	1	1	1	1	1	1	0	1	-17,618041	275,332316	308,227519	0
15.01.2021	12:41:52	0	80,351717	2,500338	1,43175	346,0788	0,963	87,513	0	1015,5	7,8	9,7	9,5	1	1	1	1	1	1	1	1	1	0	1	-15,503876	275,260873	310,003619	0
15.01.2021	12:41:53	0	80,703622	3,864158	1,39275	345,348	0,975	87,524	0	1015,24	8	9,7	9,5	1	1	1	1	1	1	1	1	1	0	1	-21,282593	275,376902	304,774081	0
15.01.2021	12:41:54	0	80,117674	3,068596	1,40775	358,8048	0,967	87,523	0	1015,4	7,8	9,6	9,5	1	1	1	1	1	1	1	1	1	0	1	-22,057787	275,337088	303,810364	0
15.01.2021	12:41:55	0	80,586319	4,432417	1,43925	360	0,967	87,531	0	1015,46	7,8	9,7	9,5	1	1	1	1	1	1	1	1	1	0	1	-16,842847	275,249784	308,612196	0
15.01.2021	12:41:56	0	80,117112	3,2959	1,45275	356,6052	0,959	87,522	0	1015,5	7,8	9,7	9,5	1	1	1	1	1	1	1	1	1	0	1	-20,014094	275,357781	305,952031	0
15.01.2021	12:41:57	0	79,999249	2,386672	1,44075	0,126	0,965	87,588	0	1015,42	7,9	9,8	9,6	1	1	1	1	1	1	1	1	1	0	1	-22,198732	275,418395	304,054506	0
15.01.2021	12:41:58	0	80,234412	5,000645	1,593	356,5476	0,966	87,522	0	1015,48	7,9	9,7	9,6	1	1	1	1	1	1	1	1	1	0	1	-21,987315	275,383279	304,099567	0
15.01.2021	12:41:59	0	79,882506	2,727641	1,75275	4,4532	0,969	87,536	0	1015,48	7,8	9,7	9,5	1	1	1	1	1	1	1	1	1	0	1	-17,618041	275,42159	308,650338	0
15.01.2021	12:42:00	0	79,999246	5,000645	1,71075	347,1552	0,968	87,511	0	1015,44	8	9,8	9,6	1	1	1	1	1	1	1	1	1	0	1	-20,295983	275,418395	305,957254	0
15.01.2021	12:42:01	0	79,999246	5,000645	1,71075	347,1552	0,968	87,511	0	1015,44	8	9,8	9,6	1	1	1	1	1	1	1	1	1	0	1	-20,295983	275,418395	305,957254	0
15.01.2021	12:42:02	0	80,117108	3,2959	1,70475	350,3304	0,974	87,523	0	1015,58	7,9	9,7	9,5	1	1	1	1	1	1	1	1	1	0	1	-20,85976	275,270384	304,692723	0
15.01.2021	12:42:03	0	79,765202	4,546068	1,70325	347,6556	0,966	87,534	0	1015,52	7,9	9,7	9,5	1	1	1	1	1	1	1	1	1	0	1	-20,648344	275,400829	305,52167	0
15.01.2021	12:42:04	0	80,117106	3,864135	1,6725	351,7776	0,966	87,514	0	1015,5	8	9,7	9,6	1	1	1	1	1	1	1	1	1	0	1	-23,255814	275,402425	302,921762	0
15.01.2021	12:42:05	0	80,000364	3,636833	1,65	353,9952	0,967	87,524	0	1015,58	7,8	9,6	9,6	1	1	1	1	1	1	1	1	1	0	1	-22,339676	275,289419	303,302864	0
15.01.2021	12:42:06	0	79,882501	3,750484	1,6065	344,7684	0,964	87,536	0	1015,42	7,9	9,7	9,6	1	1	1	1	1	1	1	1	1	0	1	-21,141649	275,375307	304,907476	0
15.01.2021	12:42:07	0	79,76464	3,409531	1,5285	357,2568	0,967	87,54	0	1015,52	7,8	9,8	9,6	1	1	1	1	1	1	1	1	1	0	1	-15,433404	275,435976	310,903148	0
15.01.2021	12:42:08	0	79,413293	2,841293	1,4955	357,3144	0,967	87,534	0	1015,42	7,8	9,7	9,5	1	1	1	1	1	1	1	1	1	0	1	-22,762509	275,376902	303,294166	0
15.01.2021	12:42:09	0	79,530594	2,500323	1,41675	338,3136	0,967	87,542	0	1015,48	7,8	9,7	9,6	1	1	1	1	1	1	1	1	1	0	1	-24,031008	275,429581	302,275237	0
15.01.2021	12:42:10	0	79,882498	3,182229	1,37325	340,6068	0,969	87,52	0	1015,38	7,9	9,7	9,6	1	1	1	1	1	1	1	1	1	0	1	-22,057787	275,370526	303,968692	0
15.01.2021	12:42:11	0	79,647894	5,341599	1,39575	347,616	0,97	87,534	0	1015,4	7,9	9,7	9,6	1	1	1	1	1	1	1	1	1	0	1	-24,171952	275,338679	301,703731	0
15.01.2021	12:42:12	0	79,412733	3,182248	1,39575	354,3156	0,964	87,541	0	1015,44	7,8	9,8	9,5	1	1	1	1	1	1	1	1	1	0	1	-20,85976	275,251368	304,602773	0
15.01.2021	12:42:13	0	79,413289	3,750484	1,41375	328,9824	0,97	87,538	0	1015,32	8	9,7	9,6	1	1	1	1	1	1	1	1	1	0	1	-23,749119	275,39285	302,383096	0
15.01.2021	12:42:14	0	79,295986	3,068578	1,52325	351,7236	0,964	87,552	0	1015,36	7,8	9,7	9,6	1	1	1	1	1	1	1	1	1	0	1	-22,48062	275,435976	303,855932	0
15.01.2021	12:42:15	0	79,178684	3,523182	1,653	334,6164	0,962	87,556	0	1015,54	7,8	9,7	9,6	1	1	1	1	1	1	1	1	1	0	1	-23,044397	275,432778	303,277	0
15.01.2021	12:42:16	0	79,531145	4,659692	1,69275	349,4844	0,963	87,553	0	1015,48	7,8	9,6	9,6	1	1	1	1	1	1	1	1	1	0	1	-25,581395	275,275141	299,993592	0
15.01.2021	12:42:17	0	79,178682	3,523182	1,61775	0,1296	0,964	87,552	0	1015,42	7,9	9,7	9,6	1	1	1	1	1	1	1	1	1	0	1	-20,85976	275,262458	304,655231	0
15.01.2021	12:42:18	0	79,413841	3,750484	1,4835	356,5944	0,963	87,547	0	1015,44	7,8	9,6	9,6	1	1	1	1	1	1	1	1	1	0	1	-21,705426	275,388064	304,404119	0
15.01.2021	12:42:19	0	79,41384	3,409531	1,344	360	0,963	87,55	0	1015,56	8	9,6	9,6	1	1	1	1	1	1	1	1	1	0	1	-20,577872	275,429581	305,728373	0
15.01.2021	12:42:20	0	79,413283	4,546042	1,33125	0,864	0,968	87,55	0	1015,38	7,8	9,7	9,6	1	1	1	1	1	1	1	1	1	0	1	-24,594785	275,38009	301,476992	0
15.01.2021	12:42:21	0	79,531141	4,432391	1,26975	355,8672	0,964	87,553	0	1015,46	8	9,6	9,6	1	1	1	1	1	1	1	1	1	0	1	-21,634954	275,29418	304,030117	0
15.01.2021	12:42:22	0	79,413281	4,432391	1,17825	355,1184	0,963	87,54	0	1015,38	7,9	9,7	9,6	1	1	1	1	1	1	1	1	1	0	1	-21,141649	275,423188	305,134301	0
15.01.2021	12:42:23	0	79,061375	4,31874	1,16475	348,9732	0,966	87,546	0	1015,48	7,8	9,7	9,6	1	1	1	1	1	1	1	1	1	0	1	-20,577872	275,437575	305,766259	0
15.01.2021	12:42:24	0	79,061928	2,954927	1,08675	349,4196	0,965	87,549	0	1015,42	7,8	9,6	9,6	1	1	1	1	1	1	1	1	1	0	1	-23,396758	275,335497	302,463862	0
15.01.2021	12:42:25	0	78,710019	2,613974	1,06725	352,8036	0,962	87,541	0	1015,44	7,9	9,6	9,6	1	1	1	1	1	1	1	1	1	0	1	-23,608175	275,448773	302,789027	0
15.01.2021	12:42:26	0	78,709467	4,205089	1,06125	356,2056	0,965	87,529	0	1015,48	7,8	9,7	9,6	1	1	1	1	1	1	1	1	1	0	1	-22,762509	275,404022	303,42263	0
15.01.2021	12:42:27	0	79,060817	3,182229	1,04325	357,1776	0,963	87,544	0	1015,38	7,8	9,8	9,6	1	1	1	1	1	1	1	1	1	0	1	-26,286117	275,427983	300,012553	0
15.01.2021	12:42:28	0	79,295973	4,091438	1,0635	353,5596	0,965	87,56	0	1015,44	8	9,7	9,6	1	1	1	1	1	1	1	1	1	0	1	-21,705426	275,300531	303,989696	0
15.01.2021	12:42:29	0	78,708912	2,613974	1,14975	356,6088	0,964	87,555	0	1015,48	8	9,8	9,6	1	1	1	1	1	1	1	1	1	0	1	-22,621564	275,396041	303,525768	0
15.01.2021	12:42:30	0	79,413273	4,887024	1,20675	358,776	0,963	87,547	0	1015,52	7,8	9,7	9,5	1	1	1	1	1	1	1	1	1	0	1	-20,789288	275,262458	304,725703	0
15.01.2021	12:42:31	0	79,061367	4,432391	1,28025	356,8896	0,969	87,558	0	1015,46	8	9,7	9,6	1	1	1	1	1	1	1	1	1	0	1	-21,212121	275,412005	305,010843	0
15.01.2021	12:42:32	0	79,179222	4,546042	1,37325	0,8568	0,964	87,568	0	1015,34	7,8	9,6	9,6	1	1	1	1	1	1	1	1	1	0	1	-24,383369	275,31165	301,364373	0
15.01.2021	12:42:33	0	78,70946	3,750485	1,383	360	0,969	87,542	0	1015,36	8	9,7	9,6	1	1	1	1	1	1	1	1	1	0	1	-23,396758	275,375307	302,652367	0
15.01.2021	12:42:34	0	78,826208	4,091462	1,3455	2,3076	0,966	87,566	0	1015,48	8	9,8	9,5	1	1	1	1	1	1	1	1	1	0	1	-22,269204	275,332316	303,576356	0
15.01.2021	12:42:35	0	78,709457	3,068578	1,26	354,2688	0,971	87,562	0	1015,54	7,9	9,7	9,6	1	1	1	1	1	1	1	1	1	0	1	-25,651868	275,267213	299,885617	0
15.01.2021	12:42:36	0	78,826206	4,659693	1,20225	343,1628	0,966	87,565	0	1015,34	7,9	9,8	9,6	1	1	1	1	1	1	1	1	1	0	1	-24,171952	275,437575	302,172178	0
15.01.2021	12:42:37	0	78,826757	4,886995	1,233	359,892	0,969	87,564	0	1015,52	8	9,7	9,6	1	1	1	1	1	1	1	1	1	0	1	-25,08809	275,391255	301,036568	0
15.01.2021	12:42:38	0	78,709454	4,659721	1,22475	2,6316	0,968	87,569	0	1015,5	7,8	9,7	9,5	1	1	1	1	1	1	1	1	1	0	1	-23,11487	275,303707	302,595283	0
15.01.2021	12:42:39	0	78,709453	4,318766	1,2105	358,3764	0,97	87,575	0	1015,52	7,8	9,7	9,5	1	1	1	1	1	1	1	1	1	0	1	-23,46723	275,249784	301,987812	0
15.01.2021	12:42:40	0	79,061357	4,886995	1,167	3,7584	0,967	87,572	0	1015,46	7,9	9,7	9,6	1	1	1	1	1	1	1	1	1	0	1	-24,10148	275,337088	301,766671	0
15.01.2021	12:42:41	0	78,474297	2,500323	1,101	1,9224	0,974	87,576	0	1015,46	7,8	9,8	9,6	1	1	1	1	1	1	1	1	1	0	1	-26,497533	275,435976	299,839019	0
15.01.2021	12:42:42	0	78,826751	4,773344	1,03125	355,1328	0,967	87,583	0	1015,54	7,8	9,7	9,6	1	1	1	1	1	1	1	1	1	0	1	-25,158562	275,346636	300,754792	0
15.01.2021	12:42:43	0	78,592146	3,523204	0,9795	344,0628	0,963	87,564	0	1015,48	7,9	9,7	9,5	1	1	1	1	1	1	1	1	1	0	1	-24,031008	275,276727	301,551483	0
15.01.2021	12:42:44	0	79,061352	5,000646	1,02975	342,7056	0,963	87,569	0	1015,42	7,9	9,7	9,6	1	1	1	1	1	1	1	1	1	0	1	-25,299507	275,4152	300,938592	0
15.01.2021	12:42:45	0	78,591593	4,773344	1,104	359,1	0,97	87,579	0	1015,38	8	9,8	9,6	1	1	1	1	1	1	1	1	1	0	1	-22,973925	275,408812	303,233906	0
15.01.2021	12:42:46	0	78,474291	2,954928	1,1625	360	0,972	87,581	0	1015,44	7,8	9,8	9,6	1	1	1	1	1	1	1	1	1	0	1	-25,72234	275,509672	300,963612	0
15.01.2021	12:42:47	0	78,357538	2,841294	1,1505	353,25	0,964	87,577	0	1015,52	7,9	9,7	9,5	1	1	1	1	1	1	1	1	1	0	1	-24,665257	275,329135	301,165246	0
15.01.2021	12:42:48	0	78,59214	2,841276	1,16175	352,8216	0,972	87,598	0	1015,44	8	9,7	9,6	1	1	1	1	1	1	1	1	1	0	1	-26,70895	275,440774	299,65034	0
15.01.2021	12:42:49	0	78,708889	3,977811	1,104	352,1628	0,972	87,582	0	1015,44	8	9,8	9,5	1	1	1	1	1	1	1	1	1	0	1	-22,762509	275,384874	303,331927	0
15.01.2021	12:42:50	0	78,239685	2,727625	1,14975	347,3424	0,97	87,585	0	1015,56	7,8	9,8	9,6	1	1	1	1	1	1	1	1	1	0	1	-24,665257	275,458376	301,777464	0
15.01.2021	12:42:51	0	78,240231	2,727642	1,158	349,4736	0,972	87,585	0	1015,48	8	9,7	9,5	1	1	1	1	1	1	1	1	1	0	1	-21,423538	275,373713	304,618038	0
15.01.2021	12:42:52	0	78,356983	4,205089	1,1445	345,7584	0,973	87,582	0	1015,4	7,8	9,8	9,6	1	1	1	1	1	1	1	1	1	0	1	-24,171952	275,450373	302,232834	0
15.01.2021	12:42:53	0	78,592134	4,886996	1,08	350,3412	0,966	87,582	0	1015,52	8	9,7	9,6	1	1	1	1	1	1	1	1	1	0	1	-28,470754	275,37212	297,563273	0
15.01.2021	12:42:54	0	78,592132	4,432392	1,06875	355,3056	0,967	87,574	0	1015,28	8	9,7	9,6	1	1	1	1	1	1	1	1	1	0	1	-26,145173	275,439175	300,206537	0
15.01.2021	12:42:55	0	78,826182	3,750485	1,0155	339,084	0,973	87,586	0	1015,52	7,8	9,8	9,6	1	1	1	1	1	1	1	1	1	0	1	-24,594785	275,378496	301,46944	0
15.01.2021	12:42:56	0	79,061336	4,659694	1,0005	341,244	0,973	87,598	0	1015,5	7,9	9,7	9,6	1	1	1	1	1	1	1	1	1	0	1	-25,08809	275,437575	301,25604	0
15.01.2021	12:42:57	0	78,70943	2,841277	0,9525	359,5176	0,972	87,581	0	1015,46	7,8	9,7	9,6	1	1	1	1	1	1	1	1	1	0	1	-20,930233	275,330725	304,907798	0
15.01.2021	12:42:58	0	78,474825	4,659722	0,95025	3,4488	0,974	87,597	0	1015,58	8	9,7	9,5	1	1	1	1	1	1	1	1	1	0	1	-26,427061	275,273555	299,140424	0
15.01.2021	12:42:59	0	78,709427	3,409532	0,91725	359,4276	0,975	87,582	0	1015,58	7,8	9,7	9,6	1	1	1	1	1	1	1	1	1	0	1	-24,947146	275,34027	300,93607	0
15.01.2021	12:43:00	0	78,709424	2,954946	0,95625	341,316	0,975	87,606	0	1015,58	8	9,7	9,5	1	1	1	1	1	1	1	1	1	0	1	-22,48062	275,249784	302,974423	0
15.01.2021	12:43:01	0	78,709424	2,954946	0,95625	341,316	0,975	87,606	0	1015,58	8	9,7	9,5	1	1	1	1	1	1	1	1	1	0	1	-31,430585	275,384874	294,663851	0
15.01.2021	12:43:02	0	78,826725	4,20509	0,98325	339,4584	0,975	87,587	0	1015,64	8	9,7	9,6	1	1	1	1	1	1	1	1	1	0	1	-22,973925	275,300531	302,721198	0
15.01.2021	12:43:03	0	78,239667	3,068579	0,96675	344,34	0,967	87,605	0	1015,44	8	9,8	9,6	1	1	1	1	1	1	1	1	1	0	1	-24,10148	275,292593	301,55608	0
15.01.2021	12:43:04	0	78,474267	4,432392	0,96075	338,7168	0,971	87,616	0	1015,68	7,8	9,8	9,6	1	1	1	1	1	1	1	1	1	0	1	-21,987315	275,273555	303,580171	0
15.01.2021	12:43:05	0	78,82672	4,20509	0,933	336,1032	0,973	87,588	0	1015,48	7,9	9,7	9,6	1	1	1	1	1	1	1	1	1	0	1	-25,369979	275,373713	300,671597	0
15.01.2021	12:43:06	0	78,591565	3,18223	0,92625	344,3004	0,968	87,594	0	1015,36	7,8	9,8	9,6	1	1	1	1	1	1	1	1	1	0	1	-23,608175	275,271969	301,951809	0
15.01.2021	12:43:07	0	79,061874	5,114299	0,9525	348,714	0,973	87,6	0	1015,38	7,8	9,6	9,6	1	1	1	1	1	1	1	1	1	0	1	-21,282593	275,402425	304,894983	0
15.01.2021	12:43:08	0	78,826716	3,750486	0,94875	347,238	0,972	87,601	0	1015,5	8	9,7	9,6	1	1	1	1	1	1	1	1	1	0	1	-29,809725	275,443973	296,564727	0
15.01.2021	12:43:09	0	78,592111	3,18223	0,939	337,158	0,971	87,584	0	1015,38	8	9,7	9,6	1	1	1	1	1	1	1	1	1	0	1	-22,692037	275,335497	303,168584	0
15.01.2021	12:43:10	0	79,179172	4,773374	0,96675	329,0184	0,978	87,604	0	1015,5	7,8	9,6	9,5	1	1	1	1	1	1	1	1	1	0	1	-27,484144	275,435976	298,852408	0
15.01.2021	12:43:11	0	78,709961	2,841294	0,981	333,8352	0,978	87,595	0	1015,48	7,8	9,6	9,5	1	1	1	1	1	1	1	1	1	0	1	-25,017618	275,394446	301,122156	0
15.01.2021	12:43:12	0	78,474805	4,432392	0,92325	349,434	0,974	87,598	0	1015,22	8	9,7	9,6	1	1	1	1	1	1	1	1	1	0	1	-24,947146	275,275141	300,627842	0
15.01.2021	12:43:13	0	79,061311	4,886997	0,8625	348,0084	0,973	87,589	0	1015,44	7,8	9,7	9,6	1	1	1	1	1	1	1	1	1	0	1	-23,678647	275,413603	302,551884	0
15.01.2021	12:43:14	0	78,944008	4,546043	0,8535	337,9896	0,969	87,589	0	1015,38	8	9,7	9,6	1	1	1	1	1	1	1	1	1	0	1	-26,004228	275,289419	299,638312	0
15.01.2021	12:43:15	0	78,944006	2,954928	0,9075	341,0172	0,979	87,606	0	1015,52	8	9,7	9,6	1	1	1	1	1	1	1	1	1	0	1	-29,175476	275,37212	296,858552	0
15.01.2021	12:43:16	0	78,944005	3,977788	1,05525	360	0,98	87,602	0	1015,34	8	9,7	9,6	1	1	1	1	1	1	1	1	1	0	1	-27,836505	275,447173	298,553113	0
15.01.2021	12:43:17	0	78,94345	2,386673	1,146	359,4924	0,978	87,601	0	1015,36	8	9,8	9,6	1	1	1	1	1	1	1	1	1	0	1	-25,651868	275,383279	300,435015	0
15.01.2021	12:43:18	0	78,474795	4,432393	1,20375	359,5248	0,983	87,603	0	1015,52	8	9,7	9,6	1	1	1	1	1	1	1	1	1	0	1	-27,625088	275,461578	298,832812	0
15.01.2021	12:43:19	0	78,592095	2,613975	1,203	1,9152	0,979	87,612	0	1015,44	8	9,7	9,6	1	1	1	1	1	1	1	1	1	0	1	-26,920366	275,305295	298,797303	0
15.01.2021	12:43:20	0	78,709395	2,386673	1,22775	355,8384	0,981	87,618	0	1015,5	8	9,7	9,6	1	1	1	1	1	1	1	1	1	0	1	-25,792812	275,275141	299,782176	0
15.01.2021	12:43:21	0	78,943443	2,386673	1,2315	360	0,978	87,602	0	1015,36	8	9,8	9,6	1	1	1	1	1	1	1	1	1	0	1	-22,832981	275,321185	302,959892	0
15.01.2021	12:43:22	0	78,59264	3,864137	1,2705	357,3864	0,985	87,628	0	1015,68	8	9,6	9,6	1	1	1	1	1	1	1	1	1	0	1	-29,739253	275,447173	296,650365	0
15.01.2021	12:43:23	0	79,061295	4,091439	1,24275	352,7928	0,978	87,6	0	1015,46	8	9,7	9,6	1	1	1	1	1	1	1	1	1	0	1	-28,047921	275,34027	297,835295	0
15.01.2021	12:43:24	0	79,060739	4,773346	1,17975	341,2944	0,98	87,625	0	1015,5	8	9,8	9,6	1	1	1	1	1	1	1	1	1	0	1	-24,242424	275,284658	301,377592	0
15.01.2021	12:43:25	0	79,178593	4,205091	1,1505	336,7368	0,987	87,622	0	1015,56	8	9,7	9,6	1	1	1	1	1	1	1	1	1	0	1	-26,215645	275,364152	299,780651	0
15.01.2021	12:43:26	0	78,943988	4,205091	1,0605	349,0884	0,98	87,622	0	1015,46	8	9,7	9,6	1	1	1	1	1	1	1	1	1	0	1	-28,470754	275,459977	297,979556	0
15.01.2021	12:43:27	0	79,178589	5,000648	0,9795	339,606	0,978	87,598	0	1015,58	8	9,7	9,6	1	1	1	1	1	1	1	1	1	0	1	-30,232558	275,338679	295,643125	0
15.01.2021	12:43:28	0	79,178587	3,523184	0,95775	318,4416	0,98	87,611	0	1015,38	8	9,7	9,6	1	1	1	1	1	1	1	1	1	0	1	-26,356589	275,467984	300,131678	0
15.01.2021	12:43:29	0	79,295887	5,11433	0,951	327,15	0,977	87,604	0	1015,5	8	9,7	9,5	1	1	1	1	1	1	1	1	1	0	1	-25,229035	275,321185	300,563838	0
15.01.2021	12:43:30	0	79,178584	4,318742	0,9615	337,9428	0,984	87,611	0	1015,48	8	9,7	9,6	1	1	1	1	1	1	1	1	1	0	1	-24,665257	275,337088	301,202894	0
15.01.2021	12:43:31	0	78,944532	2,159371	0,92925	336,0312	0,982	87,601	0	1015,38	7,8	9,6	9,6	1	1	1	1	1	1	1	1	1	0	1	-28,32981	275,451973	298,082562	0
15.01.2021	12:43:32	0	79,17858	3,06858	0,84375	331,578	0,974	87,599	0	1015,42	8	9,7	9,6	1	1	1	1	1	1	1	1	1	0	1	-29,034531	275,405618	297,158171	0
15.01.2021	12:43:33	0	79,06183	3,409533	0,7905	340,3692	0,974	87,598	0	1015,32	8	9,6	9,6	1	1	1	1	1	1	1	1	1	0	1	-26,145173	275,435976	300,191379	0
15.01.2021	12:43:34	0	79,178576	3,409554	0,69375	358,416	0,978	87,6	0	1015,44	8	9,7	9,5	1	1	1	1	1	1	1	1	1	0	1	-26,215645	275,458376	300,227076	0
15.01.2021	12:43:35	0	79,179129	3,750487	0,714	352,5408	0,976	87,602	0	1015,36	8	9,6	9,6	1	1	1	1	1	1	1	1	1	0	1	-25,792812	275,408812	300,41502	0
15.01.2021	12:43:36	0	78,826116	2,613976	0,74925	325,9872	0,984	87,616	0	1015,52	8	9,8	9,6	1	1	1	1	1	1	1	1	1	0	1	-27,343199	275,295768	298,329384	0
15.01.2021	12:43:37	0	79,295872	3,523185	0,80775	318,5748	0,984	87,617	0	1015,42	8	9,7	9,6	1	1	1	1	1	1	1	1	1	0	1	-24,453841	275,407215	301,746426	0
15.01.2021	12:43:38	0	79,29587	4,886998	0,885	331,1784	0,98	87,605	0	1015,5	8	9,7	9,6	1	1	1	1	1	1	1	1	1	0	1	-29,668781	275,477596	296,865061	0
15.01.2021	12:43:39	0	78,943411	4,773347	0,993	328,9104	0,982	87,622	0	1015,42	8	9,8	9,6	1	1	1	1	1	1	1	1	1	0	1	-24,312896	275,359373	301,66077	0
15.01.2021	12:43:40	0	79,17801	3,977813	1,107	329,3604	0,984	87,606	0	1015,24	8	9,8	9,5	1	1	1	1	1	1	1	1	1	0	1	-26,70895	275,279899	298,888549	0
15.01.2021	12:43:41	0	79,647769	5,000649	1,0665	334,242	0,982	87,622	0	1015,42	8	9,7	9,6	1	1	1	1	1	1	1	1	1	0	1	-25,440451	275,346636	300,472903	0
15.01.2021	12:43:42	0	79,296418	2,954929	1,0155	334,9836	0,983	87,618	0	1015,5	8	9,6	9,6	1	1	1	1	1	1	1	1	1	0	1	-26,568006	275,297355	299,11209	0
15.01.2021	12:43:43	0	79,413162	4,432394	0,9735	343,08	0,984	87,643	0	1015,36	8	9,7	9,6	1	1	1	1	1	1	1	1	1	0	1	-26,0747	275,413603	300,155831	0
15.01.2021	12:43:44	0	79,647763	4,773347	0,909	326,7324	0,985	87,613	0	1015,42	8	9,7	9,6	1	1	1	1	1	1	1	1	1	0	1	-24,453841	275,435976	301,882711	0
15.01.2021	12:43:45	0	79,061807	2,500325	0,83475	324,7164	0,985	87,622	0	1015,4	8	9,6	9,6	1	1	1	1	1	1	1	1	1	0	1	-34,038055	275,445573	292,34398	0
15.01.2021	12:43:46	0	79,531015	2,841278	0,795	343,1088	0,988	87,637	0	1015,48	8	9,6	9,6	1	1	1	1	1	1	1	1	1	0	1	-23,46723	275,29418	302,197841	0
15.01.2021	12:43:47	0	79,060695	3,182232	0,74025	343,1196	0,985	87,628	0	1015,38	8	9,8	9,6	1	1	1	1	1	1	1	1	1	0	1	-24,171952	275,42159	302,096427	0
15.01.2021	12:43:48	0	79,530453	3,750487	0,78375	327,384	0,988	87,648	0	1015,4	8	9,7	9,6	1	1	1	1	1	1	1	1	1	0	1	-26,215645	275,413603	300,014886	0
15.01.2021	12:43:49	0	79,295293	4,773347	0,86775	312,1272	0,986	87,644	0	1015,32	8	9,8	9,6	1	1	1	1	1	1	1	1	1	0	1	-28,964059	275,337088	296,904092	0
15.01.2021	12:43:50	0	79,530449	3,523185	0,89325	318,186	0,981	87,628	0	1015,42	8	9,7	9,6	1	1	1	1	1	1	1	1	1	0	1	-24,947146	275,461578	301,510754	0
15.01.2021	12:43:51	0	79,530447	4,432394	0,94725	344,772	0,983	87,644	0	1015,52	8	9,7	9,6	1	1	1	1	1	1	1	1	1	0	1	-25,933756	275,396041	300,213577	0
15.01.2021	12:43:52	0	79,529888	5,00065	1,005	355,1184	0,994	87,656	0	1015,5	8	9,8	9,6	1	1	1	1	1	1	1	1	1	0	1	-26,779422	275,300531	298,915701	0
15.01.2021	12:43:53	0	79,530443	3,182232	1,06575	357,7032	0,987	87,656	0	1015,48	8	9,7	9,6	1	1	1	1	1	1	1	1	1	0	1	-30,021142	275,356188	295,937442	0
15.01.2021	12:43:54	0	79,530441	3,864139	1,0215	6,0516	0,995	87,653	0	1015,44	8	9,7	9,6	1	1	1	1	1	1	1	1	1	0	1	-30,091614	275,319595	295,693735	0
15.01.2021	12:43:55	0	79,413137	2,841278	1,026	2,6532	0,989	87,634	0	1015,48	8	9,7	9,6	1	1	1	1	1	1	1	1	1	0	1	-28,611698	275,469585	297,884163	0
15.01.2021	12:43:56	0	79,295833	5,227984	1,01925	358,8444	0,992	87,653	0	1015,4	8	9,7	9,5	1	1	1	1	1	1	1	1	1	0	1	-27,272727	275,466382	299,207947	0
15.01.2021	12:43:57	0	79,412577	3,409534	1,074	1,944	0,994	87,658	0	1015,5	8	9,8	9,6	1	1	1	1	1	1	1	1	1	0	1	-28,32981	275,419992	297,930998	0
15.01.2021	12:43:58	0	79,647734	4,886999	1,0695	13,9176	0,995	87,649	0	1015,54	8	9,7	9,6	1	1	1	1	1	1	1	1	1	0	1	-26,497533	275,300531	299,197589	0
15.01.2021	12:43:59	0	79,295827	4,432395	1,01625	15,4764	0,988	87,67	0	1015,54	8	9,7	9,6	1	1	1	1	1	1	1	1	1	0	1	-28,752643	275,424786	297,53088	0
15.01.2021	12:44:00	0	79,530425	3,182232	0,8925	11,1924	0,997	87,668	0	1015,54	8	9,7	9,6	1	1	1	1	1	1	1	1	1	0	1	-31,078224	275,308472	294,65448	0
15.01.2021	12:44:01	0	79,530425	3,182232	0,8925	11,1924	0,997	87,668	0	1015,54	8	9,7	9,6	1	1	1	1	1	1	1	1	1	0	1	-31,994362	275,461578	294,463538	0
15.01.2021	12:44:02	0	79,647725	3,068581	0,84975	358,3656	0,995	87,662	0	1015,46	8	9,7	9,6	1	1	1	1	1	1	1	1	1	0	1	-26,145173	275,472789	300,365878	0
15.01.2021	12:44:03	0	79,882325	3,068581	0,822	1,1628	0,999	87,666	0	1015,46	8	9,7	9,6	1	1	1	1	1	1	1	1	1	0	1	-28,047921	275,407215	298,152346	0
15.01.2021	12:44:04	0	79,529862	3,409535	0,88575	359,622	0,998	87,66	0	1015,56	8	9,8	9,6	1	1	1	1	1	1	1	1	1	0	1	-31,782946	275,472789	294,728105	0
15.01.2021	12:44:05	0	79,765019	3,636837	0,85125	354,2796	0,999	87,665	0	1015,36	8	9,7	9,6	1	1	1	1	1	1	1	1	1	0	1	-25,651868	275,364152	300,344429	0
15.01.2021	12:44:06	0	79,765017	3,182251	0,85725	2,304	0,999	87,666	0	1015,5	8	9,7	9,5	1	1	1	1	1	1	1	1	1	0	1	-26,286117	275,459977	300,164193	0
15.01.2021	12:44:07	0	79,882316	4,773349	0,8055	359,4276	1,001	87,646	0	1015,44	8	9,7	9,6	1	1	1	1	1	1	1	1	1	0	1	-26,0747	275,346636	299,838654	0
15.01.2021	12:44:08	0	79,530409	3,068581	0,79725	359,8992	0,997	87,67	0	1015,44	8	9,7	9,6	1	1	1	1	1	1	1	1	1	0	1	-29,598309	275,281485	296,006695	0
15.01.2021	12:44:09	0	79,882312	2,727628	0,81675	4,0932	1,003	87,66	0	1015,38	8	9,7	9,6	1	1	1	1	1	1	1	1	1	0	1	-28,32981	275,38009	297,741967	0
15.01.2021	12:44:10	0	79,413103	4,091442	0,81675	7,8696	1,002	87,667	0	1015,44	8	9,7	9,6	1	1	1	1	1	1	1	1	1	0	1	-28,823115	275,480801	297,725924	0
15.01.2021	12:44:11	0	80,11691	4,432395	0,8505	16,0848	0,997	87,662	0	1015,42	8	9,7	9,6	1	1	1	1	1	1	1	1	1	0	1	-31,430585	275,448773	294,966617	0
15.01.2021	12:44:12	0	79,529843	2,613993	0,864	5,2236	1	87,66	0	1015,46	8	9,8	9,5	1	1	1	1	1	1	1	1	1	0	1	-25,72234	275,42159	300,546039	0
15.01.2021	12:44:13	0	79,765001	4,318744	0,85575	1,1736	0,999	87,651	0	1015,44	8	9,7	9,6	1	1	1	1	1	1	1	1	1	0	1	-31,148696	275,458376	295,294025	0
15.01.2021	12:44:14	0	79,647697	2,727628	0,8745	4,8528	1,003	87,653	0	1015,62	8	9,7	9,6	1	1	1	1	1	1	1	1	1	0	1	-25,229035	275,354596	300,722009	0
15.01.2021	12:44:15	0	79,764996	5,000652	0,89925	360	1,004	87,67	0	1015,58	8	9,7	9,6	1	1	1	1	1	1	1	1	1	0	1	-31,501057	275,306884	294,224129	0
15.01.2021	12:44:16	0	80,116898	4,546047	0,93375	355,7304	1,003	87,654	0	1015,52	8	9,7	9,6	1	1	1	1	1	1	1	1	1	0	1	-27,554616	275,434377	298,774358	0
15.01.2021	12:44:17	0	79,999594	4,773349	0,96825	10,44	1,002	87,642	0	1015,5	8	9,7	9,6	1	1	1	1	1	1	1	1	1	0	1	-30,162086	275,300531	295,533037	0
15.01.2021	12:44:18	0	80,116893	4,659698	0,945	18,8064	0,996	87,648	0	1015,44	8	9,7	9,6	1	1	1	1	1	1	1	1	1	0	1	-28,32981	275,459977	298,120501	0
15.01.2021	12:44:19	0	79,764986	4,546074	0,86925	354,978	0,995	87,642	0	1015,38	8	9,7	9,5	1	1	1	1	1	1	1	1	1	0	1	-29,175476	275,466382	297,305199	0
15.01.2021	12:44:20	0	79,764983	4,659698	0,903	349,0416	1,003	87,641	0	1015,62	8	9,7	9,6	1	1	1	1	1	1	1	1	1	0	1	-27,343199	275,464781	299,129883	0
15.01.2021	12:44:21	0	79,295775	2,727628	0,99075	5,2056	1,004	87,635	0	1015,52	8	9,7	9,6	1	1	1	1	1	1	1	1	1	0	1	-28,118393	275,332316	297,727167	0
15.01.2021	12:44:22	0	79,999021	2,500326	1,0305	9,3528	1,007	87,638	0	1015,54	8	9,8	9,6	1	1	1	1	1	1	1	1	1	0	1	-29,950669	275,287832	295,684362	0
15.01.2021	12:44:23	0	79,882277	3,409536	1,05225	3,006	1,004	87,626	0	1015,5	8	9,7	9,6	1	1	1	1	1	1	1	1	1	0	1	-31,360113	275,384874	294,734323	0
15.01.2021	12:44:24	0	79,764415	3,409556	1,071	359,136	1,002	87,629	0	1015,34	8	9,8	9,5	1	1	1	1	1	1	1	1	1	0	1	-29,668781	275,287832	295,966251	0
15.01.2021	12:44:25	0	80,000134	3,182233	1,0155	358,5204	1,001	87,622	0	1015,4	8	9,6	9,6	1	1	1	1	1	1	1	1	1	0	1	-26,427061	275,416797	299,818607	0
15.01.2021	12:44:26	0	80,116873	4,205094	0,99975	359,2332	1,011	87,641	0	1015,42	8	9,7	9,6	1	1	1	1	1	1	1	1	1	0	1	-30,93728	275,482404	295,619359	0
15.01.2021	12:44:27	0	79,882267	3,977792	0,963	4,0932	1	87,631	0	1015,26	8	9,7	9,6	1	1	1	1	1	1	1	1	1	0	1	-20,155039	275,389659	305,962063	0
15.01.2021	12:44:28	0	79,999566	3,523187	0,891	1,5444	1,001	87,614	0	1015,54	8	9,7	9,6	1	1	1	1	1	1	1	1	1	0	1	-27,977449	275,475994	298,548795	0
15.01.2021	12:44:29	0	80,233604	2,954931	0,84375	354,6612	1,005	87,61	0	1015,34	8	9,8	9,6	1	1	1	1	1	1	1	1	1	0	1	-29,386892	275,394446	296,752882	0
15.01.2021	12:44:30	0	80,116862	3,523187	0,83175	359,91	1,005	87,613	0	1015,56	8	9,7	9,6	1	1	1	1	1	1	1	1	1	0	1	-27,272727	275,284658	298,347289	0
15.01.2021	12:44:31	0	80,233599	4,432397	0,8325	2,6388	1,011	87,623	0	1015,5	8	9,8	9,6	1	1	1	1	1	1	1	1	1	0	1	-29,386892	275,384874	296,707544	0
15.01.2021	12:44:32	0	79,764953	2,500326	0,79275	0,864	1,011	87,633	0	1015,64	8	9,7	9,6	1	1	1	1	1	1	1	1	1	0	1	-27,69556	275,292593	297,962	0
15.01.2021	12:44:33	0	80,116293	2,500326	0,79875	357,3	1,001	87,609	0	1015,32	8	9,8	9,6	1	1	1	1	1	1	1	1	1	0	1	-27,977449	275,383279	298,109433	0
15.01.2021	12:44:34	0	80,350891	4,659699	0,8055	352,4652	1,006	87,609	0	1015,46	8	9,8	9,6	1	1	1	1	1	1	1	1	1	0	1	-28,047921	275,472789	298,46313	0
15.01.2021	12:44:35	0	80,23415	3,63686	0,7905	355,122	1,015	87,625	0	1015,56	8	9,7	9,5	1	1	1	1	1	1	1	1	1	0	1	-29,245948	275,359373	296,727719	0
15.01.2021	12:44:36	0	80,234147	2,954949	0,81525	354,0204	1,011	87,619	0	1015,34	8	9,7	9,5	1	1	1	1	1	1	1	1	1	0	1	-25,792812	275,329135	300,037691	0
15.01.2021	12:44:37	0	80,351446	5,000683	0,84525	349,8984	1,002	87,615	0	1015,34	8	9,7	9,5	1	1	1	1	1	1	1	1	1	0	1	-28,259338	275,287832	297,375694	0
15.01.2021	12:44:38	0	80,234142	4,546048	0,894	345,0528	1,007	87,63	0	1015,44	8	9,7	9,6	1	1	1	1	1	1	1	1	1	0	1	-28,893587	275,413603	297,336944	0
15.01.2021	12:44:39	0	79,881675	2,159373	0,92925	342,0468	1,009	87,633	0	1015,54	8	9,8	9,6	1	1	1	1	1	1	1	1	1	0	1	-26,004228	275,308472	299,728476	0
15.01.2021	12:44:40	0	80,116835	4,887032	0,9765	345,114	1,005	87,637	0	1015,48	8	9,7	9,5	1	1	1	1	1	1	1	1	1	0	1	-28,682171	275,432778	297,639227	0
15.01.2021	12:44:41	0	80,468736	3,750513	1,002	342,4428	1,007	87,638	0	1015,46	8	9,7	9,5	1	1	1	1	1	1	1	1	1	0	1	-25,933756	275,456775	300,501376	0
15.01.2021	12:44:42	0	79,999528	4,205095	1,07925	331,488	1,009	87,616	0	1015,46	8	9,7	9,6	1	1	1	1	1	1	1	1	1	0	1	-27,131783	275,472789	299,379268	0
15.01.2021	12:44:43	0	80,351429	2,841281	1,092	335,3508	1,011	87,63	0	1015,4	8	9,7	9,6	1	1	1	1	1	1	1	1	1	0	1	-26,568006	275,427983	299,730665	0
15.01.2021	12:44:44	0	80,351427	4,773351	1,15425	328,1472	1,016	87,625	0	1015,3	8	9,7	9,6	1	1	1	1	1	1	1	1	1	0	1	-26,990839	275,482404	299,5658	0
15.01.2021	12:44:45	0	80,586026	4,432424	1,15425	327,4308	1,011	87,618	0	1015,46	8	9,7	9,5	1	1	1	1	1	1	1	1	1	0	1	-29,175476	275,348227	296,745415	0
15.01.2021	12:44:46	0	80,116818	3,295886	1,2345	324,414	1,012	87,632	0	1015,4	8	9,7	9,6	1	1	1	1	1	1	1	1	1	0	1	-28,823115	275,463179	297,642376	0
15.01.2021	12:44:47	0	80,468719	4,6597	1,28925	332,802	1,008	87,626	0	1015,32	8	9,7	9,6	1	1	1	1	1	1	1	1	1	0	1	-31,289641	275,423188	294,98631	0
15.01.2021	12:44:48	0	80,468153	4,659728	1,257	353,2104	1,012	87,622	0	1015,22	8	9,8	9,5	1	1	1	1	1	1	1	1	1	0	1	-25,792812	275,482404	300,763827	0
15.01.2021	12:44:49	0	80,234111	3,977793	1,21425	346,806	1,013	87,637	0	1015,34	8	9,7	9,6	1	1	1	1	1	1	1	1	1	0	1	-33,756166	275,424786	292,527357	0
15.01.2021	12:44:50	0	80,116807	3,864142	1,24425	352,5084	1,011	87,624	0	1015,38	8	9,7	9,6	1	1	1	1	1	1	1	1	1	0	1	-32,135307	275,480801	294,413732	0
15.01.2021	12:44:51	0	80,351406	3,63684	1,353	352,908	1,008	87,633	0	1015,28	8	9,7	9,6	1	1	1	1	1	1	1	1	1	0	1	-26,849894	275,4152	299,388205	0
15.01.2021	12:44:52	0	80,234102	2,727646	1,49175	352,6704	1,015	87,625	0	1015,46	8	9,7	9,5	1	1	1	1	1	1	1	1	1	0	1	-24,665257	275,303707	301,044896	0
15.01.2021	12:44:53	0	79,999497	2,727646	1,659	359,1252	1,012	87,632	0	1015,5	8	9,7	9,5	1	1	1	1	1	1	1	1	1	0	1	-27,977449	275,467984	298,510819	0
15.01.2021	12:44:54	0	80,586	4,54605	1,8015	7,488	1,015	87,616	0	1015,4	8	9,7	9,6	1	1	1	1	1	1	1	1	1	0	1	-28,682171	275,292593	296,97539	0
15.01.2021	12:44:55	0	80,468132	4,432399	1,971	3,0312	1,013	87,609	0	1015,42	8	9,8	9,6	1	1	1	1	1	1	1	1	1	0	1	-28,823115	275,388064	297,286431	0
15.01.2021	12:44:56	0	80,468693	4,432425	2,02125	12,0888	1,015	87,617	0	1015,44	8	9,7	9,5	1	1	1	1	1	1	1	1	1	0	1	-29,245948	275,305295	296,471722	0
15.01.2021	12:44:57	0	80,585991	4,432399	1,98	9,36	1,015	87,621	0	1015,52	8	9,7	9,6	1	1	1	1	1	1	1	1	1	0	1	-30,162086	275,466382	296,318589	0
15.01.2021	12:44:58	0	80,234084	2,95495	1,99725	9,3744	1,018	87,627	0	1015,5	8	9,7	9,5	1	1	1	1	1	1	1	1	1	0	1	-29,245948	275,396041	296,901385	0
15.01.2021	12:44:59	0	80,468684	4,09147	1,93275	6,4548	1,01	87,621	0	1015,3	8	9,7	9,5	1	1	1	1	1	1	1	1	1	0	1	-27,272727	275,482404	299,283911	0
15.01.2021	12:45:00	0	80,468678	4,318748	1,71525	3,0276	1,016	87,606	0	1015,66	8	9,7	9,6	1	1	1	1	1	1	1	1	1	0	1	-26,286117	275,353003	299,657388	0
15.01.2021	12:45:01	0	80,468678	4,318748	1,71525	3,0276	1,016	87,606	0	1015,66	8	9,7	9,6	1	1	1	1	1	1	1	1	1	0	1	-27,202255	275,479199	299,339185	0
15.01.2021	12:45:02	0	80,820578	2,72763	1,59825	359,9172	1,019	87,619	0	1015,54	8	9,7	9,6	1	1	1	1	1	1	1	1	1	0	1	-27,202255	275,394446	298,937519	0
15.01.2021	12:45:03	0	80,937877	4,659702	1,539	354,0168	1,015	87,618	0	1015,4	8	9,7	9,6	1	1	1	1	1	1	1	1	1	0	1	-25,510923	275,303707	300,19923	0
15.01.2021	12:45:04	0	81,054607	4,659702	1,449	356,6772	1,01	87,609	0	1015,46	8	9,8	9,6	1	1	1	1	1	1	1	1	1	0	1	-26,568006	275,354596	299,383038	0
15.01.2021	12:45:05	0	80,937303	4,659702	1,43625	356,3028	1,009	87,609	0	1015,3	8	9,8	9,6	1	1	1	1	1	1	1	1	1	0	1	-30,93728	275,442374	295,429591	0
15.01.2021	12:45:06	0	80,351361	2,72763	1,52775	6,0624	1,02	87,62	0	1015,44	8	9,7	9,6	1	1	1	1	1	1	1	1	1	0	1	-25,017618	275,437575	301,326513	0
15.01.2021	12:45:07	0	80,703262	4,546051	1,68825	7,4952	1,023	87,624	0	1015,48	8	9,7	9,6	1	1	1	1	1	1	1	1	1	0	1	-27,554616	275,472789	298,956435	0
15.01.2021	12:45:08	0	80,82056	4,4324	1,7505	0,1152	1,015	87,604	0	1015,38	8	9,7	9,6	1	1	1	1	1	1	1	1	1	0	1	-28,400282	275,368932	297,618651	0
15.01.2021	12:45:09	0	80,585954	4,546051	1,77825	359,8092	1,02	87,596	0	1015,52	8	9,7	9,6	1	1	1	1	1	1	1	1	1	0	1	-29,527837	275,482404	297,028802	0
15.01.2021	12:45:10	0	80,937855	3,409538	1,77975	349,9056	1,017	87,575	0	1015,46	8	9,7	9,6	1	1	1	1	1	1	1	1	1	0	1	-27,131783	275,459977	299,318527	0
15.01.2021	12:45:11	0	81,055153	2,613995	1,785	333,5076	1,015	87,564	0	1015,4	8	9,7	9,5	1	1	1	1	1	1	1	1	1	0	1	-27,554616	275,34027	298,3286	0
15.01.2021	12:45:12	0	81,172451	4,318749	1,7235	338,3316	1,016	87,557	0	1015,42	8	9,7	9,6	1	1	1	1	1	1	1	1	1	0	1	-30,162086	275,475994	296,364158	0
15.01.2021	12:45:13	0	80,937278	4,318749	1,65975	332,8164	1,023	87,559	0	1015,46	8	9,8	9,6	1	1	1	1	1	1	1	1	1	0	1	-28,823115	275,370526	297,203365	0
15.01.2021	12:45:14	0	81,055143	3,295887	1,7175	338,3712	1,017	87,565	0	1015,48	8	9,7	9,6	1	1	1	1	1	1	1	1	1	0	1	-31,289641	275,407215	294,910626	0
15.01.2021	12:45:15	0	80,937838	3,068585	1,67475	343,5408	1,022	87,54	0	1015,4	8	9,7	9,6	1	1	1	1	1	1	1	1	1	0	1	-27,977449	275,29418	297,687622	0
15.01.2021	12:45:16	0	81,172438	2,954934	1,6905	340,6248	1,022	87,55	0	1015,46	8	9,7	9,6	1	1	1	1	1	1	1	1	1	0	1	-29,105004	275,405618	297,087699	0
15.01.2021	12:45:17	0	81,171866	2,841282	1,78725	340,5888	1,021	87,548	0	1015,36	8	9,8	9,6	1	1	1	1	1	1	1	1	1	0	1	-27,413672	275,480801	299,135367	0
15.01.2021	12:45:18	0	81,407033	3,295888	1,85625	340,2324	1,02	87,526	0	1015,5	8	9,7	9,6	1	1	1	1	1	1	1	1	1	0	1	-26,215645	275,337088	299,652507	0
15.01.2021	12:45:19	0	81,289729	4,432401	1,80675	339,1596	1,019	87,514	0	1015,48	8	9,7	9,6	1	1	1	1	1	1	1	1	1	0	1	-30,021142	275,445573	296,360893	0
15.01.2021	12:45:20	0	81,524328	5,22796	1,75125	353,5992	1,021	87,529	0	1015,4	8	9,7	9,6	1	1	1	1	1	1	1	1	1	0	1	-24,735729	275,472789	301,775322	0
15.01.2021	12:45:21	0	81,289722	3,068585	1,9125	338,3568	1,02	87,519	0	1015,48	8	9,7	9,6	1	1	1	1	1	1	1	1	1	0	1	-23,749119	275,346636	302,164235	0
15.01.2021	12:45:22	0	81,289719	4,091447	1,98375	352,8252	1,021	87,519	0	1015,34	8	9,7	9,6	1	1	1	1	1	1	1	1	1	0	1	-27,625088	275,29418	298,039983	0
15.01.2021	12:45:23	0	81,524889	3,52319	2,0445	348,0048	1,017	87,505	0	1015,44	8	9,6	9,6	1	1	1	1	1	1	1	1	1	0	1	-30,655391	275,367339	295,355995	0
15.01.2021	12:45:24	0	81,758917	5,455263	1,96125	343,4688	1,024	87,501	0	1015,46	8	9,7	9,6	1	1	1	1	1	1	1	1	1	0	1	-28,752643	275,310061	296,98758	0
15.01.2021	12:45:25	0	81,524311	2,954934	1,94475	349,8984	1,024	87,494	0	1015,64	8	9,7	9,6	1	1	1	1	1	1	1	1	1	0	1	-27,766032	275,370526	298,260447	0
15.01.2021	12:45:26	0	81,524307	3,523191	1,9605	347,5764	1,018	87,486	0	1015,38	8	9,7	9,6	1	1	1	1	1	1	1	1	1	0	1	-29,457364	275,474391	297,061283	0
15.01.2021	12:45:27	0	81,407003	2,954934	1,97775	335,3328	1,015	87,486	0	1015,48	8	9,7	9,6	1	1	1	1	1	1	1	1	1	0	1	-27,272727	275,351411	298,663239	0
15.01.2021	12:45:28	0	81,406429	2,954934	2,0355	342,0216	1,022	87,481	0	1015,46	8	9,8	9,6	1	1	1	1	1	1	1	1	1	0	1	-27,69556	275,303707	298,014593	0
15.01.2021	12:45:29	0	81,524297	3,182237	2,061	346,842	1,019	87,475	0	1015,38	8	9,7	9,6	1	1	1	1	1	1	1	1	1	0	1	-30,443975	275,341861	295,446775	0
15.01.2021	12:45:30	0	81,289691	3,523191	2,05425	342,4572	1,023	87,475	0	1015,38	8	9,7	9,6	1	1	1	1	1	1	1	1	1	0	1	-29,809725	275,310061	295,930497	0
15.01.2021	12:45:31	0	81,75832	4,318776	2,01675	351	1,021	87,481	0	1015,42	8	9,8	9,5	1	1	1	1	1	1	1	1	1	0	1	-27,836505	275,48561	298,735336	0
15.01.2021	12:45:32	0	81,524287	2,727632	1,96275	354,0528	1,02	87,479	0	1015,48	8	9,7	9,6	1	1	1	1	1	1	1	1	1	0	1	-25,72234	275,479199	300,8191	0
15.01.2021	12:45:33	0	82,110214	2,954935	1,83975	350,3304	1,032	87,474	0	1015,52	8	9,8	9,6	1	1	1	1	1	1	1	1	1	0	1	-29,034531	275,291006	296,615518	0
15.01.2021	12:45:34	0	81,876183	4,432429	1,75875	346,608	1,027	87,472	0	1015,42	8	9,7	9,5	1	1	1	1	1	1	1	1	1	0	1	-29,809725	275,475994	296,716519	0
15.01.2021	12:45:35	0	81,876179	4,091448	1,7985	354,2292	1,018	87,467	0	1015,4	8	9,7	9,6	1	1	1	1	1	1	1	1	1	0	1	-28,259338	275,327545	297,563638	0
15.01.2021	12:45:36	0	81,876176	4,318751	1,86675	344,2284	1,018	87,468	0	1015,48	8	9,7	9,6	1	1	1	1	1	1	1	1	1	0	1	-27,977449	275,487213	298,601994	0
15.01.2021	12:45:37	0	81,993473	3,636843	1,81575	349,9416	1,025	87,466	0	1015,38	8	9,7	9,6	1	1	1	1	1	1	1	1	1	0	1	-33,685694	275,432778	292,635703	0
15.01.2021	12:45:38	0	81,876169	3,068605	1,7445	342,6768	1,018	87,445	0	1015,42	8	9,7	9,5	1	1	1	1	1	1	1	1	1	0	1	-31,853418	275,445573	294,528617	0
15.01.2021	12:45:39	0	82,110767	3,068605	1,73775	346,8384	1,02	87,445	0	1015,38	8	9,7	9,5	1	1	1	1	1	1	1	1	1	0	1	-31,712474	275,322775	294,087924	0
15.01.2021	12:45:40	0	81,993462	4,432429	1,78275	347,6268	1,023	87,463	0	1015,36	8	9,7	9,5	1	1	1	1	1	1	1	1	1	0	1	-28,541226	275,303707	297,168927	0
15.01.2021	12:45:41	0	82,11076	2,613997	1,80075	346,8312	1,016	87,463	0	1015,42	8	9,7	9,5	1	1	1	1	1	1	1	1	1	0	1	-29,31642	275,348227	296,604471	0
15.01.2021	12:45:42	0	81,75828	2,841284	1,8465	353,9268	1,028	87,477	0	1015,5	8	9,8	9,6	1	1	1	1	1	1	1	1	1	0	1	-29,175476	275,310061	296,564747	0
15.01.2021	12:45:43	0	82,344778	3,295889	1,80225	349,9488	1,023	87,462	0	1015,44	8	9,8	9,6	1	1	1	1	1	1	1	1	1	0	1	-28,32981	275,396041	297,817523	0
15.01.2021	12:45:44	0	82,22805	2,954935	1,746	353,1528	1,021	87,453	0	1015,38	8	9,7	9,6	1	1	1	1	1	1	1	1	1	0	1	-25,369979	275,295768	300,302604	0
15.01.2021	12:45:45	0	82,462071	2,954953	1,68525	349,9848	1,024	87,448	0	1015,48	8	9,8	9,5	1	1	1	1	1	1	1	1	1	0	1	-28,400282	275,48561	298,171559	0
15.01.2021	12:45:46	0	82,462644	4,659706	1,632	350,9712	1,02	87,459	0	1015,36	8	9,7	9,6	1	1	1	1	1	1	1	1	1	0	1	-26,849894	275,408812	299,357937	0
15.01.2021	12:45:47	0	82,110162	2,841284	1,5825	356,5872	1,02	87,451	0	1015,42	8	9,8	9,6	1	1	1	1	1	1	1	1	1	0	1	-28,400282	275,300531	297,294841	0
15.01.2021	12:45:48	0	82,81454	4,318752	1,584	354,9816	1,016	87,434	0	1015,44	8	9,7	9,6	1	1	1	1	1	1	1	1	1	0	1	-28,752643	275,364152	297,243654	0
15.01.2021	12:45:49	0	82,579934	4,546055	1,63425	356,5728	1,02	87,441	0	1015,28	8	9,7	9,6	1	1	1	1	1	1	1	1	1	0	1	-27,625088	275,43118	298,688733	0
15.01.2021	12:45:50	0	82,462052	4,432403	1,64475	353,2284	1,024	87,451	0	1015,44	8	9,8	9,6	1	1	1	1	1	1	1	1	1	0	1	-28,047921	275,477596	298,48592	0
15.01.2021	12:45:51	0	82,813949	2,727633	1,67175	349,4088	1,023	87,445	0	1015,38	8	9,8	9,6	1	1	1	1	1	1	1	1	1	0	1	-23,537703	275,39285	302,594513	0
15.01.2021	12:45:52	0	82,814525	3,409541	1,76025	354,2364	1,019	87,451	0	1015,42	8	9,7	9,6	1	1	1	1	1	1	1	1	1	0	1	-25,369979	275,314828	300,392804	0
15.01.2021	12:45:53	0	82,931241	5,000661	1,97025	352,1412	1,019	87,427	0	1015,44	8	9,8	9,6	1	1	1	1	1	1	1	1	1	0	1	-27,202255	275,432778	299,119142	0
15.01.2021	12:45:54	0	83,165838	4,205101	2,154	353,9736	1,021	87,449	0	1015,32	8	9,8	9,6	1	1	1	1	1	1	1	1	1	0	1	-28,611698	275,335497	297,248922	0
15.01.2021	12:45:55	0	82,697212	2,727633	2,2245	355,4532	1,022	87,45	0	1015,4	8	9,7	9,6	1	1	1	1	1	1	1	1	1	0	1	-28,32981	275,306884	297,395377	0
15.01.2021	12:45:56	0	82,814509	2,954936	2,15625	355,3956	1,019	87,439	0	1015,38	8	9,7	9,6	1	1	1	1	1	1	1	1	1	0	1	-27,69556	275,337088	298,172591	0
15.01.2021	12:45:57	0	83,048526	4,773387	1,99875	346,4784	1,02	87,445	0	1015,32	8	9,8	9,5	1	1	1	1	1	1	1	1	1	0	1	-30,514447	275,471187	295,989009	0
15.01.2021	12:45:58	0	82,931222	2,613982	1,9065	348,6672	1,02	87,424	0	1015,38	8	9,8	9,6	1	1	1	1	1	1	1	1	1	0	1	-27,484144	275,427983	298,814527	0
15.01.2021	12:45:59	0	83,517718	5,227964	1,90575	353,6064	1,023	87,455	0	1015,28	8	9,8	9,6	1	1	1	1	1	1	1	1	1	0	1	-30,866808	275,287832	294,768224	0
15.01.2021	12:46:00	0	83,400994	2,727634	1,74675	346,1112	1,018	87,451	0	1015,5	8	9,7	9,6	1	1	1	1	1	1	1	1	1	0	1	-30,725863	275,407215	295,474403	0
15.01.2021	12:46:01	0	83,400994	2,727634	1,74675	346,1112	1,018	87,451	0	1015,5	8	9,7	9,6	1	1	1	1	1	1	1	1	1	0	1	-30,30303	275,484007	296,261209	0
15.01.2021	12:46:02	0	83,517706	3,523193	1,797	352,8108	1,022	87,464	0	1015,48	8	9,8	9,6	1	1	1	1	1	1	1	1	1	0	1	-30,725863	275,38009	295,345914	0
15.01.2021	12:46:03	0	83,518287	5,000692	1,86975	353,9556	1,015	87,431	0	1015,28	8	9,7	9,5	1	1	1	1	1	1	1	1	1	0	1	-30,725863	275,314828	295,036919	0
15.01.2021	12:46:04	0	83,283098	2,954937	1,87875	350,3016	1,017	87,431	0	1015,4	8	9,8	9,6	1	1	1	1	1	1	1	1	1	0	1	-29,034531	275,376902	297,022143	0
15.01.2021	12:46:05	0	83,870182	4,318754	1,82625	358,7544	1,02	87,451	0	1015,4	8	9,7	9,6	1	1	1	1	1	1	1	1	1	0	1	-30,091614	275,289419	295,550926	0
15.01.2021	12:46:06	0	83,63499	2,954937	1,8375	356,6304	1,016	87,45	0	1015,5	8	9,8	9,6	1	1	1	1	1	1	1	1	1	0	1	-30,584919	275,432778	295,736478	0
15.01.2021	12:46:07	0	83,987475	4,659708	1,81725	355,464	1,015	87,441	0	1015,2	8	9,7	9,6	1	1	1	1	1	1	1	1	1	0	1	-32,346723	275,484007	294,217516	0
15.01.2021	12:46:08	0	83,635568	2,500331	1,788	0,108	1,019	87,441	0	1015,46	8	9,7	9,6	1	1	1	1	1	1	1	1	1	0	1	-30,93728	275,418395	295,315958	0
15.01.2021	12:46:09	0	83,870166	4,318754	1,7805	3,3984	1,021	87,431	0	1015,32	8	9,7	9,6	1	1	1	1	1	1	1	1	1	0	1	-27,131783	275,319595	298,653566	0
15.01.2021	12:46:10	0	83,987463	2,841286	1,779	1,5336	1,024	87,436	0	1015,46	8	9,7	9,6	1	1	1	1	1	1	1	1	1	0	1	-25,863284	275,333906	299,989806	0
15.01.2021	12:46:11	0	83,98687	4,659708	1,833	360	1,02	87,426	0	1015,48	8	9,8	9,6	1	1	1	1	1	1	1	1	1	0	1	-30,514447	275,480801	296,034592	0
15.01.2021	12:46:12	0	84,338766	4,77336	1,8345	1,1772	1,022	87,419	0	1015,36	8	9,8	9,6	1	1	1	1	1	1	1	1	1	0	1	-30,232558	275,11091	294,566165	0
15.01.2021	12:46:13	0	83,869562	2,841286	1,8435	6,0588	1,022	87,421	0	1015,44	8	9,8	9,6	1	1	1	1	1	1	1	1	1	0	1	-29,245948	275,416797	296,99972	0
15.01.2021	12:46:14	0	84,339348	3,75052	1,80375	1,1664	1,019	87,415	0	1015,46	8	9,7	9,5	1	1	1	1	1	1	1	1	1	0	1	-24,171952	275,330725	301,666079	0
15.01.2021	12:46:15	0	84,338753	2,841286	1,872	360	1,011	87,4	0	1015,38	8	9,8	9,6	1	1	1	1	1	1	1	1	1	0	1	-28,188865	275,381685	297,890464	0
15.01.2021	12:46:16	0	84,456049	4,432406	1,92	360	1,013	87,424	0	1015,42	8	9,8	9,6	1	1	1	1	1	1	1	1	1	0	1	-30,584919	275,314828	295,177864	0
15.01.2021	12:46:17	0	84,104734	3,18224	1,97775	3,0276	1,023	87,429	0	1015,48	8	9,7	9,6	1	1	1	1	1	1	1	1	1	0	1	-29,739253	275,289419	295,903287	0
15.01.2021	12:46:18	0	84,690641	4,432406	2,03475	3,7656	1,017	87,418	0	1015,52	8	9,8	9,6	1	1	1	1	1	1	1	1	1	0	1	-27,977449	275,351411	297,958517	0
15.01.2021	12:46:19	0	85,043132	4,546058	2,08275	356,976	1,015	87,418	0	1015,46	8	9,7	9,6	1	1	1	1	1	1	1	1	1	0	1	-29,31642	275,459977	297,13389	0
15.01.2021	12:46:20	0	85,042532	4,65971	2,0355	354,3336	1,024	87,427	0	1015,42	8	9,8	9,6	1	1	1	1	1	1	1	1	1	0	1	-29,809725	275,423188	296,466225	0
15.01.2021	12:46:21	0	84,691221	3,409544	2,00625	352,044	1,014	87,41	0	1015,44	8	9,7	9,6	1	1	1	1	1	1	1	1	1	0	1	-25,299507	275,461578	301,158394	0
15.01.2021	12:46:22	0	84,925224	2,954938	1,95075	359,5392	1,012	87,426	0	1015,46	8	9,8	9,6	1	1	1	1	1	1	1	1	1	0	1	-29,598309	275,322775	296,202089	0
15.01.2021	12:46:23	0	85,159819	2,954938	1,88325	358,7508	1,017	87,415	0	1015,32	8	9,8	9,6	1	1	1	1	1	1	1	1	1	0	1	-26,990839	275,325954	298,82461	0
15.01.2021	12:46:24	0	85,160411	4,65971	1,836	358,38	1,019	87,419	0	1015,42	8	9,7	9,6	1	1	1	1	1	1	1	1	1	0	1	-32,699084	275,448773	293,698118	0
15.01.2021	12:46:25	0	85,277708	3,182241	1,93575	359,874	1,019	87,411	0	1015,38	8	9,7	9,6	1	1	1	1	1	1	1	1	1	0	1	-28,611698	275,416797	297,63397	0
15.01.2021	12:46:26	0	85,160403	4,432407	2,00625	0	1,02	87,394	0	1015,5	8	9,7	9,6	1	1	1	1	1	1	1	1	1	0	1	-28,682171	275,488817	297,904875	0
15.01.2021	12:46:27	0	85,277699	2,841287	2,08875	360	1,015	87,391	0	1015,4	8	9,7	9,6	1	1	1	1	1	1	1	1	1	0	1	-26,215645	275,353003	299,72786	0
15.01.2021	12:46:28	0	85,277097	5,000665	2,0625	359,424	1,018	87,403	0	1015,16	8	9,8	9,6	1	1	1	1	1	1	1	1	1	0	1	-27,766032	275,31165	297,981709	0
15.01.2021	12:46:29	0	85,629592	4,773362	2,03175	360	1,023	87,397	0	1015,5	8	9,7	9,6	1	1	1	1	1	1	1	1	1	0	1	-30,796335	275,443973	295,578117	0
15.01.2021	12:46:30	0	85,160385	3,864174	1,93125	359,8992	1,014	87,384	0	1015,36	8	9,7	9,5	1	1	1	1	1	1	1	1	1	0	1	-31,501057	275,337088	294,367094	0
15.01.2021	12:46:31	0	85,512283	2,727652	1,89375	4,8348	1,013	87,401	0	1015,32	8	9,7	9,5	1	1	1	1	1	1	1	1	1	0	1	-26,497533	275,300531	299,197589	0
15.01.2021	12:46:32	0	85,511679	2,159378	1,7835	1,1628	1,014	87,397	0	1015,46	8	9,8	9,6	1	1	1	1	1	1	1	1	1	0	1	-30,93728	275,419992	295,323528	0
15.01.2021	12:46:33	0	85,629574	2,841287	1,65075	1,9152	1,02	87,393	0	1015,48	8	9,7	9,6	1	1	1	1	1	1	1	1	1	0	1	-27,977449	275,471187	298,526007	0
15.01.2021	12:46:34	0	85,74627	2,727636	1,6095	358,0812	1,021	87,394	0	1015,52	8	9,8	9,6	1	1	1	1	1	1	1	1	1	0	1	-27,131783	275,434377	299,197191	0
15.01.2021	12:46:35	0	85,98207	4,546087	1,5405	359,8956	1,016	87,378	0	1015,28	8	9,6	9,5	1	1	1	1	1	1	1	1	1	0	1	-28,32981	275,338679	297,545874	0
15.01.2021	12:46:36	0	85,981463	4,54606	1,53675	1,188	1,021	87,367	0	1015,46	8	9,7	9,6	1	1	1	1	1	1	1	1	1	0	1	-28,752643	275,345044	297,153176	0
15.01.2021	12:46:37	0	86,098156	2,614	1,55025	355,0788	1,021	87,367	0	1015,54	8	9,8	9,5	1	1	1	1	1	1	1	1	1	0	1	-27,202255	275,338679	298,673428	0
15.01.2021	12:46:38	0	86,332751	2,841288	1,51575	359,9604	1,017	87,357	0	1015,42	8	9,8	9,6	1	1	1	1	1	1	1	1	1	0	1	-26,145173	275,306884	299,580014	0
15.01.2021	12:46:39	0	86,450046	3,7505	1,5075	3,384	1,016	87,352	0	1015,5	8	9,8	9,6	1	1	1	1	1	1	1	1	1	0	1	-29,175476	275,397637	296,979417	0
15.01.2021	12:46:40	0	86,567342	2,954939	1,4745	359,1108	1,016	87,356	0	1015,48	8	9,8	9,6	1	1	1	1	1	1	1	1	1	0	1	-30,796335	275,475994	295,729908	0
15.01.2021	12:46:41	0	86,215437	4,432409	1,45875	1,5408	1,017	87,353	0	1015,38	8	9,8	9,6	1	1	1	1	1	1	1	1	1	0	1	-25,863284	275,412005	300,35968	0
15.01.2021	12:46:42	0	86,567939	3,068591	1,44825	352,2312	1,014	87,363	0	1015,46	8	9,7	9,6	1	1	1	1	1	1	1	1	1	0	1	-26,70895	275,300531	298,986173	0
15.01.2021	12:46:43	0	86,567327	3,636849	1,464	359,0568	1,014	87,327	0	1015,36	8	9,8	9,6	1	1	1	1	1	1	1	1	1	0	1	-24,806202	275,440774	301,553088	0
15.01.2021	12:46:44	0	86,68523	4,318758	1,422	357,3432	1,021	87,366	0	1015,48	8	9,7	9,6	1	1	1	1	1	1	1	1	1	0	1	-26,920366	275,467984	299,567901	0
15.01.2021	12:46:45	0	86,802526	4,205106	1,38675	358,7328	1,018	87,348	0	1015,52	8	9,7	9,6	1	1	1	1	1	1	1	1	1	0	1	-25,651868	275,281485	299,953136	0
15.01.2021	12:46:46	0	86,684613	3,409546	1,36875	345,3912	1,013	87,345	0	1015,46	8	9,8	9,6	1	1	1	1	1	1	1	1	1	0	1	-26,920366	275,338679	298,955317	0
15.01.2021	12:46:47	0	87,037117	4,659713	1,36575	338,7384	1,016	87,352	0	1015,48	8	9,7	9,6	1	1	1	1	1	1	1	1	1	0	1	-26,638478	275,480801	299,910561	0
15.01.2021	12:46:48	0	86,802511	5,227971	1,46625	360	1,017	87,361	0	1015,44	8	9,7	9,6	1	1	1	1	1	1	1	1	1	0	1	-27,061311	275,477596	299,472531	0
15.01.2021	12:46:49	0	87,154408	3,295895	1,44975	360	1,012	87,351	0	1015,32	8	9,7	9,6	1	1	1	1	1	1	1	1	1	0	1	-22,48062	275,310061	303,259602	0
15.01.2021	12:46:50	0	86,801893	2,841289	1,4685	355,0392	1,013	87,37	0	1015,42	8	9,8	9,6	1	1	1	1	1	1	1	1	1	0	1	-28,893587	275,456775	297,541546	0
15.01.2021	12:46:51	0	86,919188	2,727637	1,47675	341,6976	1,01	87,344	0	1015,42	8	9,8	9,6	1	1	1	1	1	1	1	1	1	0	1	-33,403805	275,346636	292,509549	0
15.01.2021	12:46:52	0	87,154394	3,523198	1,47975	350,334	1,012	87,352	0	1015,44	8	9,7	9,6	1	1	1	1	1	1	1	1	1	0	1	-28,752643	275,456775	297,68249	0
15.01.2021	12:46:53	0	87,271078	4,773365	1,51575	351,7164	1,012	87,334	0	1015,4	8	9,8	9,6	1	1	1	1	1	1	1	1	1	0	1	-25,863284	275,349819	300,065144	0
15.01.2021	12:46:54	0	87,272296	3,523198	1,563	349,4736	1,017	87,34	0	1015,58	8	9,6	9,6	1	1	1	1	1	1	1	1	1	0	1	-24,594785	275,472789	301,916266	0
15.01.2021	12:46:55	0	87,154379	4,432411	1,58175	353,2392	1,009	87,357	0	1015,4	8	9,7	9,6	1	1	1	1	1	1	1	1	1	0	1	-28,541226	275,471187	297,96223	0
15.01.2021	12:46:56	0	87,740263	3,864153	1,563	351,0288	1,014	87,35	0	1015,24	8	9,8	9,6	1	1	1	1	1	1	1	1	1	0	1	-28,259338	275,455174	298,168207	0
15.01.2021	12:46:57	0	87,271058	2,613986	1,56825	343,836	1,012	87,35	0	1015,5	8	9,8	9,6	1	1	1	1	1	1	1	1	1	0	1	-26,638478	275,477596	299,895364	0
15.01.2021	12:46:58	0	87,740253	3,068592	1,5825	343,4904	1,013	87,341	0	1015,36	8	9,8	9,6	1	1	1	1	1	1	1	1	1	0	1	-23,749119	275,412005	302,473845	0
15.01.2021	12:46:59	0	87,740247	4,31876	1,57575	342,756	1,015	87,342	0	1015,58	8	9,8	9,6	1	1	1	1	1	1	1	1	1	0	1	-31,430585	275,484007	295,133654	0
15.01.2021	12:47:00	0	88,092137	4,773366	1,63275	344,6532	1,016	87,35	0	1015,46	8	9,8	9,6	1	1	1	1	1	1	1	1	1	0	1	-31,007752	275,464781	295,46533	0
15.01.2021	12:47:01	0	88,092137	4,773366	1,63275	344,6532	1,016	87,35	0	1015,46	8	9,8	9,6	1	1	1	1	1	1	1	1	1	0	1	-25,863284	275,394446	300,27649	0
15.01.2021	12:47:02	0	87,857532	4,432412	1,674	349,0416	1,015	87,327	0	1015,36	8	9,8	9,6	1	1	1	1	1	1	1	1	1	0	1	-27,836505	275,479199	298,704935	0
15.01.2021	12:47:03	0	87,623541	4,546063	1,62075	351,2952	1,012	87,351	0	1015,46	8	9,7	9,6	1	1	1	1	1	1	1	1	1	0	1	-29,880197	275,42159	296,388181	0
15.01.2021	12:47:04	0	88,092738	2,84129	1,575	341,6148	1,015	87,337	0	1015,36	8	9,7	9,6	1	1	1	1	1	1	1	1	1	0	1	-24,806202	275,308472	300,926503	0
15.01.2021	12:47:05	0	88,092116	2,613987	1,47225	344,2824	1,014	87,34	0	1015,48	8	9,8	9,6	1	1	1	1	1	1	1	1	1	0	1	-27,484144	275,368932	298,534789	0
15.01.2021	12:47:06	0	88,326711	4,091457	1,4325	347,2704	1,007	87,334	0	1015,42	8	9,8	9,6	1	1	1	1	1	1	1	1	1	0	1	-29,386892	275,424786	296,896631	0
15.01.2021	12:47:07	0	87,857506	3,068593	1,42875	344,3832	1,01	87,348	0	1015,42	8	9,8	9,6	1	1	1	1	1	1	1	1	1	0	1	-24,735729	275,480801	301,813309	0
15.01.2021	12:47:08	0	88,210018	4,318787	1,42575	340,1676	1,015	87,342	0	1015,4	8	9,7	9,5	1	1	1	1	1	1	1	1	1	0	1	-27,202255	275,416797	299,043413	0
15.01.2021	12:47:09	0	87,975412	4,432412	1,3995	336,78	1,009	87,337	0	1015,44	8	9,7	9,6	1	1	1	1	1	1	1	1	1	0	1	-24,383369	275,482404	302,17327	0
15.01.2021	12:47:10	0	88,210008	4,205109	1,38825	338,04	1,006	87,322	0	1015,64	8	9,7	9,6	1	1	1	1	1	1	1	1	1	0	1	-29,598309	275,357781	296,367816	0
15.01.2021	12:47:11	0	88,209385	4,546092	1,47825	334,1952	1,008	87,323	0	1015,5	8	9,8	9,5	1	1	1	1	1	1	1	1	1	0	1	-25,651868	275,484007	300,912372	0
15.01.2021	12:47:12	0	88,326679	3,5232	1,64925	339,8652	1,015	87,349	0	1015,48	8	9,8	9,6	1	1	1	1	1	1	1	1	1	0	1	-31,360113	275,418395	294,893125	0
15.01.2021	12:47:13	0	88,678573	4,773368	1,68525	355,4136	1,014	87,334	0	1015,56	8	9,8	9,6	1	1	1	1	1	1	1	1	1	0	1	-28,611698	275,298943	297,07591	0
15.01.2021	12:47:14	0	88,209987	2,727639	1,5555	343,9008	1,006	87,328	0	1015,42	8	9,7	9,6	1	1	1	1	1	1	1	1	1	0	1	-27,69556	275,451973	298,716812	0
15.01.2021	12:47:15	0	88,444582	4,773368	1,42725	344,7432	1,012	87,334	0	1015,42	8	9,7	9,6	1	1	1	1	1	1	1	1	1	0	1	-31,782946	275,471187	294,72051	0
15.01.2021	12:47:16	0	88,679178	3,409549	1,2945	344,9592	1,01	87,337	0	1015,46	8	9,7	9,6	1	1	1	1	1	1	1	1	1	0	1	-22,128259	275,327545	303,694716	0
15.01.2021	12:47:17	0	88,443952	4,546065	1,32675	335,34	1,01	87,333	0	1015,62	8	9,8	9,6	1	1	1	1	1	1	1	1	1	0	1	-30,584919	275,439175	295,766791	0
15.01.2021	12:47:18	0	88,795846	4,318762	1,4055	347,1732	1,014	87,332	0	1015,56	8	9,8	9,6	1	1	1	1	1	1	1	1	1	0	1	-29,809725	275,48561	296,762115	0
15.01.2021	12:47:19	0	88,678541	3,636852	1,5225	348,9984	1,01	87,316	0	1015,48	8	9,8	9,6	1	1	1	1	1	1	1	1	1	0	1	-29,386892	275,416797	296,858776	0
15.01.2021	12:47:20	0	88,561856	5,114324	1,656	340,5204	1,009	87,319	0	1015,44	8	9,7	9,6	1	1	1	1	1	1	1	1	1	0	1	-26,849894	275,469585	299,645967	0
15.01.2021	12:47:21	0	88,67853	4,432414	1,77375	342,6912	1,003	87,301	0	1015,5	8	9,8	9,6	1	1	1	1	1	1	1	1	1	0	1	-25,581395	275,354596	300,369649	0
15.01.2021	12:47:22	0	88,561845	3,523201	1,8465	344,2896	1,013	87,321	0	1015,42	8	9,7	9,6	1	1	1	1	1	1	1	1	1	0	1	-26,849894	275,302119	298,852743	0
15.01.2021	12:47:23	0	88,56122	3,864156	1,8825	340,1964	1,009	87,314	0	1015,46	8	9,8	9,6	1	1	1	1	1	1	1	1	1	0	1	-27,061311	275,359373	298,912356	0
15.01.2021	12:47:24	0	88,795813	2,954943	1,8945	334,9728	1,011	87,314	0	1015,3	8	9,8	9,6	1	1	1	1	1	1	1	1	1	0	1	-23,044397	275,34027	302,838819	0
15.01.2021	12:47:25	0	88,678508	2,841291	1,82925	336,15	1,009	87,319	0	1015,54	8	9,8	9,6	1	1	1	1	1	1	1	1	1	0	1	-23,326286	275,455174	303,101259	0
15.01.2021	12:47:26	0	89,030402	4,205111	1,86225	339,1272	1,01	87,307	0	1015,48	8	9,8	9,6	1	1	1	1	1	1	1	1	1	0	1	-26,990839	275,442374	299,376032	0
15.01.2021	12:47:27	0	88,796419	3,182246	1,8465	340,9164	1,009	87,284	0	1015,36	8	9,7	9,6	1	1	1	1	1	1	1	1	1	0	1	-26,920366	275,423188	299,355584	0
15.01.2021	12:47:28	0	88,678492	3,182247	1,81125	345,0312	1,009	87,304	0	1015,36	8	9,8	9,6	1	1	1	1	1	1	1	1	1	0	1	-23,185342	275,496835	303,439729	0
15.01.2021	12:47:29	0	88,913085	4,659718	1,80525	340,8408	1,009	87,285	0	1015,46	8	9,8	9,6	1	1	1	1	1	1	1	1	1	0	1	-26,145173	275,318006	299,632654	0
15.01.2021	12:47:30	0	89,148303	4,546067	1,8135	339,1488	1,002	87,289	0	1015,38	8	9,7	9,6	1	1	1	1	1	1	1	1	1	0	1	-24,806202	275,451973	301,60617	0
15.01.2021	12:47:31	0	89,030997	2,841292	1,92975	339,2028	1,009	87,279	0	1015,48	8	9,7	9,6	1	1	1	1	1	1	1	1	1	0	1	-28,188865	275,43118	298,124955	0
15.01.2021	12:47:32	0	88,913069	4,546067	1,8765	347,706	1,007	87,271	0	1015,44	8	9,8	9,6	1	1	1	1	1	1	1	1	1	0	1	-28,188865	275,455174	298,23868	0
15.01.2021	12:47:33	0	88,561785	2,613989	1,8465	338,4792	1,006	87,267	0	1015,42	8	9,7	9,6	1	1	1	1	1	1	1	1	1	0	1	-28,611698	275,305295	297,105971	0
15.01.2021	12:47:34	0	89,382882	4,318764	1,869	346,878	1	87,238	0	1015,36	8	9,7	9,6	1	1	1	1	1	1	1	1	1	0	1	-30,232558	275,388064	295,876987	0
15.01.2021	12:47:35	0	89,030351	4,205112	1,8705	340,9452	1,002	87,244	0	1015,44	8	9,8	9,6	1	1	1	1	1	1	1	1	1	0	1	-23,396758	275,298943	302,29085	0
15.01.2021	12:47:36	0	88,913046	3,068596	1,8615	339,9192	1	87,24	0	1015,42	8	9,8	9,6	1	1	1	1	1	1	1	1	1	0	1	-25,72234	275,353003	300,221165	0
15.01.2021	12:47:37	0	88,913663	3,409551	1,81575	344,7396	1,003	87,246	0	1015,5	8	9,7	9,6	1	1	1	1	1	1	1	1	1	0	1	-32,346723	275,306884	293,378463	0
15.01.2021	12:47:38	0	88,913658	4,318765	1,878	343,1448	1,005	87,23	0	1015,44	8	9,7	9,6	1	1	1	1	1	1	1	1	1	0	1	-30,373502	275,397637	295,78139	0
15.01.2021	12:47:39	0	89,147628	4,773371	1,91025	345,1356	1,005	87,234	0	1015,4	8	9,8	9,6	1	1	1	1	1	1	1	1	1	0	1	-27,131783	275,287832	298,503248	0
15.01.2021	12:47:40	0	88,913646	3,523203	1,91325	346,0824	1,002	87,227	0	1015,4	8	9,7	9,6	1	1	1	1	1	1	1	1	1	0	1	-28,611698	275,448773	297,785503	0
15.01.2021	12:47:41	0	89,148241	4,205113	1,944	351,36	1,004	87,232	0	1015,58	8	9,7	9,6	1	1	1	1	1	1	1	1	1	0	1	-25,792812	275,459977	300,657498	0
15.01.2021	12:47:42	0	89,030935	4,318765	1,908	346,4892	1,005	87,225	0	1015,48	8	9,7	9,6	1	1	1	1	1	1	1	1	1	0	1	-24,453841	275,456775	301,981292	0
15.01.2021	12:47:43	0	88,795707	3,636855	1,845	354,3696	0,999	87,218	0	1015,28	8	9,8	9,6	1	1	1	1	1	1	1	1	1	0	1	-27,484144	275,496835	299,140927	0
15.01.2021	12:47:44	0	89,030923	2,273034	1,8555	342,396	0,997	87,224	0	1015,44	8	9,7	9,6	1	1	1	1	1	1	1	1	1	0	1	-22,551092	275,359373	303,422574	0
15.01.2021	12:47:45	0	89,147593	4,432417	1,84725	346,4856	0,999	87,211	0	1015,36	8	9,8	9,6	1	1	1	1	1	1	1	1	1	0	1	-23,960536	275,479199	302,580904	0
15.01.2021	12:47:46	0	88,67839	3,523204	1,8105	342,7632	1,002	87,213	0	1015,44	8	9,8	9,6	1	1	1	1	1	1	1	1	1	0	1	-25,651868	275,455174	300,775677	0
15.01.2021	12:47:47	0	89,264881	4,546069	1,8	354,042	0,996	87,218	0	1015,48	8	9,8	9,6	1	1	1	1	1	1	1	1	1	0	1	-27,202255	275,445573	299,17978	0
15.01.2021	12:47:48	0	88,7963	2,500338	1,7355	346,5972	0,996	87,219	0	1015,38	8	9,7	9,6	1	1	1	1	1	1	1	1	1	0	1	-27,836505	275,359373	298,137162	0
15.01.2021	12:47:49	0	89,265495	4,659721	1,6575	348,2496	0,994	87,217	0	1015,38	8	9,7	9,6	1	1	1	1	1	1	1	1	1	0	1	-27,413672	275,479199	299,127768	0
15.01.2021	12:47:50	0	89,148189	5,000677	1,599	352,4544	1,006	87,218	0	1015,42	8	9,7	9,6	1	1	1	1	1	1	1	1	1	0	1	-27,554616	275,38009	298,517161	0
15.01.2021	12:47:51	0	88,79566	4,432418	1,61625	353,5992	0,999	87,213	0	1015,4	8	9,8	9,6	1	1	1	1	1	1	1	1	1	0	1	-29,950669	275,302119	295,751968	0
15.01.2021	12:47:52	0	89,030253	3,750508	1,572	353,9844	0,996	87,21	0	1015,22	8	9,8	9,6	1	1	1	1	1	1	1	1	1	0	1	-24,171952	275,324365	301,635971	0
15.01.2021	12:47:53	0	88,678349	4,318767	1,4475	355,0572	0,993	87,216	0	1015,14	8	9,8	9,6	1	1	1	1	1	1	1	1	1	0	1	-26,920366	275,310061	298,819856	0
15.01.2021	12:47:54	0	88,912942	2,273035	1,28325	342,0576	0,994	87,209	0	1015,34	8	9,8	9,6	1	1	1	1	1	1	1	1	1	0	1	-25,651868	275,348227	300,269023	0
15.01.2021	12:47:55	0	88,795636	3,977812	1,24275	324,3456	0,999	87,213	0	1015,46	8	9,8	9,6	1	1	1	1	1	1	1	1	1	0	1	-28,047921	275,429581	298,258324	0
15.01.2021	12:47:56	0	88,678331	4,205115	1,2405	350,3808	1	87,213	0	1015,36	8	9,8	9,6	1	1	1	1	1	1	1	1	1	0	1	-28,259338	275,479199	298,282102	0
15.01.2021	12:47:57	0	88,444346	2,500339	1,23	352,4832	0,998	87,22	0	1015,42	8	9,7	9,6	1	1	1	1	1	1	1	1	1	0	1	-26,286117	275,335497	299,574503	0
15.01.2021	12:47:58	0	88,914164	4,432419	1,29675	351,0072	1	87,214	0	1015,38	8	9,6	9,6	1	1	1	1	1	1	1	1	1	0	1	-26,779422	275,386469	299,322568	0
15.01.2021	12:47:59	0	88,561014	4,432419	1,35525	356,1948	0,997	87,199	0	1015,28	8	9,8	9,6	1	1	1	1	1	1	1	1	1	0	1	-27,836505	275,472789	298,674546	0
15.01.2021	12:48:00	0	88,678301	2,727643	1,4325	342,0468	0,993	87,205	0	1015,36	8	9,8	9,6	1	1	1	1	1	1	1	1	1	0	1	-25,933756	275,359373	300,039911	0
15.01.2021	12:48:01	0	88,678301	2,727643	1,4325	342,0468	0,993	87,205	0	1015,36	8	9,8	9,6	1	1	1	1	1	1	1	1	1	0	1	-27,554616	275,337088	298,313535	0
15.01.2021	12:48:02	0	88,795595	3,068598	1,53075	341,9784	0,997	87,211	0	1015,52	8	9,8	9,6	1	1	1	1	1	1	1	1	1	0	1	-23,396758	275,434377	302,932216	0
15.01.2021	12:48:03	0	88,914133	3,068598	1,6035	345,4308	0,995	87,201	0	1015,32	8	9,6	9,6	1	1	1	1	1	1	1	1	1	0	1	-25,651868	275,383279	300,435015	0
15.01.2021	12:48:04	0	88,327004	3,295902	1,61475	343,8648	0,999	87,222	0	1015,38	8	9,7	9,6	1	1	1	1	1	1	1	1	1	0	1	-29,457364	275,467984	297,030903	0
15.01.2021	12:48:05	0	88,444298	2,727643	1,69125	343,5804	0,995	87,197	0	1015,54	8	9,7	9,6	1	1	1	1	1	1	1	1	1	0	1	-28,823115	275,455174	297,60443	0
15.01.2021	12:48:06	0	88,79557	3,18225	1,7625	358,4016	0,998	87,221	0	1015,42	8	9,8	9,6	1	1	1	1	1	1	1	1	1	0	1	-24,594785	275,302119	301,107853	0
15.01.2021	12:48:07	0	88,560966	3,977813	1,8045	346,8816	0,991	87,201	0	1015,38	8,2	9,8	9,6	1	1	1	1	1	1	1	1	1	0	1	-26,356589	275,329135	299,473914	0
15.01.2021	12:48:08	0	88,67888	3,864161	1,71075	341,6184	0,995	87,211	0	1015,5	8	9,7	9,6	1	1	1	1	1	1	1	1	1	0	1	-29,457364	275,346636	296,45599	0
15.01.2021	12:48:09	0	88,678253	3,864162	1,61925	349,1604	0,991	87,21	0	1015,36	8	9,8	9,6	1	1	1	1	1	1	1	1	1	0	1	-23,749119	275,313239	302,006143	0
15.01.2021	12:48:10	0	88,443648	2,386688	1,55325	351,3348	0,995	87,223	0	1015,4	8	9,8	9,6	1	1	1	1	1	1	1	1	1	0	1	-22,48062	275,439175	303,87109	0
15.01.2021	12:48:11	0	88,443642	4,205117	1,6065	352,7748	0,991	87,215	0	1015,48	8	9,8	9,6	1	1	1	1	1	1	1	1	1	0	1	-29,598309	275,302119	296,104329	0
15.01.2021	12:48:12	0	88,326955	3,068599	1,58775	346,5108	0,99	87,219	0	1015,46	8	9,7	9,6	1	1	1	1	1	1	1	1	1	0	1	-27,413672	275,359373	298,559995	0
15.01.2021	12:48:13	0	88,209031	3,636858	1,548	349,9128	0,999	87,232	0	1015,5	8	9,8	9,6	1	1	1	1	1	1	1	1	1	0	1	-25,933756	275,496835	300,691315	0
15.01.2021	12:48:14	0	88,678843	4,205118	1,491	353,25	0,997	87,214	0	1015,42	8	9,7	9,6	1	1	1	1	1	1	1	1	1	0	1	-25,08809	275,362559	300,900662	0
15.01.2021	12:48:15	0	88,326318	3,0686	1,49175	342,8856	0,993	87,221	0	1015,42	8	9,8	9,6	1	1	1	1	1	1	1	1	1	0	1	-26,568006	275,316417	299,202298	0
15.01.2021	12:48:16	0	88,444231	3,0686	1,4205	333,1476	0,995	87,217	0	1015,32	8	9,7	9,6	1	1	1	1	1	1	1	1	1	0	1	-26,145173	275,337088	299,722979	0
15.01.2021	12:48:17	0	88,443605	3,750511	1,38075	342,3564	0,996	87,23	0	1015,34	8	9,8	9,6	1	1	1	1	1	1	1	1	1	0	1	-27,343199	275,349819	298,585228	0
15.01.2021	12:48:18	0	88,326299	4,546074	1,3005	344,3292	0,994	87,241	0	1015,38	8	9,8	9,6	1	1	1	1	1	1	1	1	1	0	1	-26,849894	275,48561	299,721946	0
15.01.2021	12:48:19	0	88,326293	3,295904	1,2675	350,208	0,993	87,214	0	1015,4	8	9,8	9,6	1	1	1	1	1	1	1	1	1	0	1	-21,141649	275,327545	304,681326	0
15.01.2021	12:48:20	0	88,208988	3,864163	1,29375	351,7596	0,998	87,235	0	1015,5	8	9,8	9,6	1	1	1	1	1	1	1	1	1	0	1	-23,960536	275,303707	301,749618	0
15.01.2021	12:48:21	0	88,561499	4,318771	1,3305	353,2356	0,996	87,238	0	1015,58	8	9,7	9,6	1	1	1	1	1	1	1	1	1	0	1	-21,49401	275,349819	304,434418	0
15.01.2021	12:48:22	0	88,091676	3,409556	1,41375	354,6576	0,996	87,222	0	1015,44	8	9,8	9,6	1	1	1	1	1	1	1	1	1	0	1	-25,72234	275,357781	300,243785	0
15.01.2021	12:48:23	0	88,209587	3,523208	1,452	6,0516	0,997	87,235	0	1015,38	8	9,7	9,6	1	1	1	1	1	1	1	1	1	0	1	-26,70895	275,349819	299,219478	0
15.01.2021	12:48:24	0	88,09228	3,864164	1,42125	351,2376	0,996	87,242	0	1015,46	8	9,7	9,6	1	1	1	1	1	1	1	1	1	0	1	-23,185342	275,455174	303,242203	0
15.01.2021	12:48:25	0	88,444174	5,114334	1,4565	344,6496	0,997	87,233	0	1015,52	8	9,7	9,6	1	1	1	1	1	1	1	1	1	0	1	-28,259338	275,477596	298,274504	0
15.01.2021	12:48:26	0	88,326249	4,318771	1,62	353,6928	0,998	87,232	0	1015,44	8	9,8	9,6	1	1	1	1	1	1	1	1	1	0	1	-26,286117	275,443973	300,088335	0
15.01.2021	12:48:27	0	87,857046	3,523208	1,7655	356,202	0,996	87,258	0	1015,56	8	9,8	9,6	1	1	1	1	1	1	1	1	1	0	1	-29,527837	275,506462	297,142891	0
15.01.2021	12:48:28	0	88,092255	2,273038	1,716	358,4376	0,989	87,238	0	1015,42	8	9,7	9,6	1	1	1	1	1	1	1	1	1	0	1	-24,171952	275,408812	302,03588	0
15.01.2021	12:48:29	0	87,857649	2,841297	1,656	359,4888	0,992	87,249	0	1015,44	8	9,7	9,6	1	1	1	1	1	1	1	1	1	0	1	-27,766032	275,496835	298,859039	0
15.01.2021	12:48:30	0	87,857642	3,295905	1,63125	359,1612	0,991	87,259	0	1015,56	8	9,7	9,6	1	1	1	1	1	1	1	1	1	0	1	-26,638478	275,356188	299,320106	0
15.01.2021	12:48:31	0	87,739722	2,500342	1,64775	3,3804	0,988	87,266	0	1015,52	8,2	9,8	9,6	1	1	1	1	1	1	1	1	1	0	1	-29,809725	275,488817	296,77732	0
15.01.2021	12:48:32	0	88,091612	4,659728	1,60575	358,3656	0,995	87,268	0	1015,46	8	9,8	9,6	1	1	1	1	1	1	1	1	1	0	1	-29,457364	275,324365	296,350558	0
15.01.2021	12:48:33	0	87,740323	2,727646	1,55325	351,3636	0,993	87,266	0	1015,46	8	9,7	9,6	1	1	1	1	1	1	1	1	1	0	1	-24,594785	275,413603	301,635746	0
15.01.2021	12:48:34	0	87,505104	2,273038	1,59375	0,5112	0,996	87,28	0	1015,52	8	9,8	9,6	1	1	1	1	1	1	1	1	1	0	1	-28,118393	275,321185	297,67448	0
15.01.2021	12:48:35	0	87,856995	3,864165	1,63275	350,2944	0,993	87,281	0	1015,48	8	9,8	9,6	1	1	1	1	1	1	1	1	1	0	1	-25,017618	275,418395	301,235619	0
15.01.2021	12:48:36	0	87,974288	4,318773	1,64625	354,96	0,997	87,281	0	1015,38	8	9,8	9,6	1	1	1	1	1	1	1	1	1	0	1	-23,960536	275,480801	302,588503	0
15.01.2021	12:48:37	0	87,505698	2,95495	1,6815	347,2848	1,004	87,287	0	1015,54	8	9,7	9,6	1	1	1	1	1	1	1	1	1	0	1	-27,554616	275,325954	298,260833	0
15.01.2021	12:48:38	0	87,388392	2,727646	1,683	357,948	0,994	87,295	0	1015,48	8	9,7	9,6	1	1	1	1	1	1	1	1	1	0	1	-28,32981	275,439175	298,0219	0
15.01.2021	12:48:39	0	87,974268	2,841298	1,70175	350,3556	0,994	87,276	0	1015,28	8	9,8	9,6	1	1	1	1	1	1	1	1	1	0	1	-26,779422	275,480801	299,769617	0
15.01.2021	12:48:40	0	87,505066	3,636862	1,6755	346,4604	0,996	87,297	0	1015,48	8	9,8	9,6	1	1	1	1	1	1	1	1	1	0	1	-28,893587	275,501648	297,754309	0
15.01.2021	12:48:41	0	87,622358	2,841298	1,65675	357,0588	0,995	87,297	0	1015,38	8,2	9,8	9,6	1	1	1	1	1	1	1	1	1	0	1	-30,514447	275,378496	295,549779	0
15.01.2021	12:48:42	0	87,505052	2,841299	1,632	356,9472	0,992	87,286	0	1015,4	8	9,8	9,6	1	1	1	1	1	1	1	1	1	0	1	-23,819591	275,330725	302,01844	0
15.01.2021	12:48:43	0	87,505659	4,546078	1,67325	0,4788	0,991	87,297	0	1015,56	8	9,7	9,6	1	1	1	1	1	1	1	1	1	0	1	-28,823115	275,443973	297,551338	0
15.01.2021	12:48:44	0	87,388353	4,65973	1,74075	0,8568	0,992	87,303	0	1015,46	8	9,7	9,6	1	1	1	1	1	1	1	1	1	0	1	-23,326286	275,322775	302,474111	0
15.01.2021	12:48:45	0	87,387734	3,409559	1,7835	6,426	1,001	87,298	0	1015,46	8,2	9,8	9,6	1	1	1	1	1	1	1	1	1	0	1	-25,792812	275,327545	300,030164	0
15.01.2021	12:48:46	0	87,505639	3,182255	1,752	360	0,997	87,29	0	1015,44	8	9,7	9,6	1	1	1	1	1	1	1	1	1	0	1	-28,188865	275,38009	297,882912	0
15.01.2021	12:48:47	0	87,740232	4,091471	1,70025	357,2424	0,997	87,292	0	1015,62	8	9,7	9,6	1	1	1	1	1	1	1	1	1	0	1	-27,272727	275,384874	298,821709	0
15.01.2021	12:48:48	0	87,622312	4,659731	1,66575	4,8348	1,004	87,337	0	1015,4	8	9,8	9,6	1	1	1	1	1	1	1	1	1	0	1	-28,188865	275,492024	298,413388	0
15.01.2021	12:48:49	0	87,15372	4,318775	1,6665	0,4788	0,997	87,296	0	1015,46	8	9,7	9,6	1	1	1	1	1	1	1	1	1	0	1	-27,836505	275,388064	298,273041	0
15.01.2021	12:48:50	0	87,270402	2,159388	1,61475	3,7512	0,992	87,292	0	1015,56	8	9,8	9,6	1	1	1	1	1	1	1	1	1	0	1	-23,890063	275,356188	302,068521	0
15.01.2021	12:48:51	0	87,270395	4,546079	1,602	3,0276	0,996	87,288	0	1015,58	8,2	9,8	9,6	1	1	1	1	1	1	1	1	1	0	1	-24,665257	275,381685	301,414072	0
15.01.2021	12:48:52	0	87,1537	3,523212	1,5735	348,0048	0,998	87,312	0	1015,52	8	9,7	9,6	1	1	1	1	1	1	1	1	1	0	1	-27,484144	275,332316	298,361416	0
15.01.2021	12:48:53	0	87,270382	3,068604	1,5225	356,328	0,995	87,286	0	1015,5	8,2	9,8	9,6	1	1	1	1	1	1	1	1	1	0	1	-23,396758	275,381685	302,682571	0
15.01.2021	12:48:54	0	87,035778	4,091472	1,4325	6,4368	0,995	87,307	0	1015,54	8	9,8	9,6	1	1	1	1	1	1	1	1	1	0	1	-27,061311	275,322775	298,739087	0
15.01.2021	12:48:55	0	87,035771	2,613996	1,43925	355,4532	0,995	87,301	0	1015,42	8,2	9,8	9,6	1	1	1	1	1	1	1	1	1	0	1	-32,628612	275,459977	293,821699	0
15.01.2021	12:48:56	0	87,036374	4,54608	1,43625	354,7224	0,998	87,306	0	1015,5	8,2	9,7	9,6	1	1	1	1	1	1	1	1	1	0	1	-25,017618	275,459977	301,432692	0
15.01.2021	12:48:57	0	87,153056	2,613996	1,476	358,4124	0,995	87,289	0	1015,56	8	9,8	9,6	1	1	1	1	1	1	1	1	1	0	1	-27,061311	275,337088	298,806841	0
15.01.2021	12:48:58	0	87,270349	4,318776	1,45125	1,1484	0,991	87,277	0	1015,42	8	9,8	9,6	1	1	1	1	1	1	1	1	1	0	1	-28,400282	275,479199	298,141158	0
15.01.2021	12:48:59	0	87,036963	4,887037	1,50225	354,6936	0,992	87,278	0	1015,36	8	9,6	9,6	1	1	1	1	1	1	1	1	1	0	1	-34,319944	275,479199	292,221496	0
15.01.2021	12:49:00	0	86,918432	4,318777	1,5435	3,7764	1	87,28	0	1015,52	8	9,8	9,6	1	1	1	1	1	1	1	1	1	0	1	-27,836505	275,479199	298,704935	0
15.01.2021	12:49:01	0	86,918432	4,318777	1,5435	3,7764	1	87,28	0	1015,52	8	9,8	9,6	1	1	1	1	1	1	1	1	1	0	1	-26,356589	275,362559	299,632163	0
15.01.2021	12:49:02	0	87,153023	2,841301	1,52325	357,6888	0,994	87,26	0	1015,38	8,2	9,8	9,6	1	1	1	1	1	1	1	1	1	0	1	-29,809725	275,357781	296,1564	0
15.01.2021	12:49:03	0	86,919027	4,432429	1,55925	355,4784	1	87,267	0	1015,38	8,2	9,7	9,6	1	1	1	1	1	1	1	1	1	0	1	-26,286117	275,49042	300,308532	0
15.01.2021	12:49:04	0	87,504905	4,659733	1,575	0,1224	1,002	87,277	0	1015,34	8,2	9,8	9,6	1	1	1	1	1	1	1	1	1	0	1	-26,427061	275,458376	300,01566	0
15.01.2021	12:49:05	0	86,918405	2,954953	1,59525	358,344	0,996	87,269	0	1015,42	8	9,8	9,6	1	1	1	1	1	1	1	1	1	0	1	-28,259338	275,500044	298,380949	0
15.01.2021	12:49:06	0	87,504892	4,887038	1,60575	356,1984	0,997	87,259	0	1015,46	8	9,8	9,6	1	1	1	1	1	1	1	1	1	0	1	-29,175476	275,456775	297,259657	0
15.01.2021	12:49:07	0	86,918391	3,409561	1,55475	353,2248	0,998	87,247	0	1015,62	8	9,8	9,6	1	1	1	1	1	1	1	1	1	0	1	-24,594785	275,501648	302,053111	0
15.01.2021	12:49:08	0	87,152982	4,546082	1,494	0,846	0,999	87,266	0	1015,3	8	9,8	9,6	1	1	1	1	1	1	1	1	1	0	1	-23,890063	275,394446	302,24971	0
15.01.2021	12:49:09	0	87,035676	2,954953	1,40475	355,8996	0,997	87,262	0	1015,6	8,2	9,8	9,6	1	1	1	1	1	1	1	1	1	0	1	-29,527837	275,511277	297,165729	0
15.01.2021	12:49:10	0	86,80168	5,000691	1,401	352,7712	0,999	87,248	0	1015,5	8,2	9,7	9,6	1	1	1	1	1	1	1	1	1	0	1	-28,470754	275,345044	297,435065	0
15.01.2021	12:49:11	0	86,684373	3,182258	1,45125	0,5868	0,997	87,254	0	1015,5	8	9,7	9,6	1	1	1	1	1	1	1	1	1	0	1	-27,061311	275,509672	299,624641	0
15.01.2021	12:49:12	0	87,035655	3,636866	1,4955	355,4604	0,997	87,246	0	1015,46	8,2	9,8	9,6	1	1	1	1	1	1	1	1	1	0	1	-29,386892	275,458376	297,055829	0
15.01.2021	12:49:13	0	87,035648	2,954954	1,5525	345,0456	0,995	87,256	0	1015,5	8	9,8	9,6	1	1	1	1	1	1	1	1	1	0	1	-23,890063	275,335497	301,970557	0
15.01.2021	12:49:14	0	86,801044	4,773387	1,56075	349,4196	1	87,235	0	1015,6	8	9,8	9,6	1	1	1	1	1	1	1	1	1	0	1	-29,457364	275,472789	297,053687	0
15.01.2021	12:49:15	0	86,801037	4,546083	1,524	347,3316	0,998	87,23	0	1015,6	8,2	9,8	9,6	1	1	1	1	1	1	1	1	1	0	1	-26,427061	275,335497	299,433559	0
15.01.2021	12:49:16	0	86,918329	4,205127	1,4685	339,48	0,997	87,207	0	1015,42	8,2	9,8	9,6	1	1	1	1	1	1	1	1	1	0	1	-23,537703	275,49042	303,056946	0
15.01.2021	12:49:17	0	86,683725	4,88704	1,46925	339,4404	1	87,231	0	1015,66	8,2	9,8	9,6	1	1	1	1	1	1	1	1	1	0	1	-30,30303	275,351411	295,632936	0
15.01.2021	12:49:18	0	87,035614	4,546084	1,51425	350,01	1,002	87,233	0	1015,5	8	9,8	9,6	1	1	1	1	1	1	1	1	1	0	1	-26,849894	275,346636	299,06346	0
15.01.2021	12:49:19	0	86,566412	4,546084	1,68975	353,2212	1	87,233	0	1015,64	8	9,8	9,6	1	1	1	1	1	1	1	1	1	0	1	-29,034531	275,496835	297,59054	0
15.01.2021	12:49:20	0	86,918301	2,841303	1,76625	345,7404	0,998	87,242	0	1015,46	8,2	9,8	9,6	1	1	1	1	1	1	1	1	1	0	1	-29,598309	275,4152	296,63979	0
15.01.2021	12:49:21	0	86,918294	5,000693	1,779	350,3808	0,996	87,246	0	1015,5	8	9,8	9,6	1	1	1	1	1	1	1	1	1	0	1	-28,259338	275,316417	297,510967	0
15.01.2021	12:49:22	0	86,800988	2,727651	1,75575	350,6832	1,001	87,218	0	1015,46	8	9,8	9,6	1	1	1	1	1	1	1	1	1	0	1	-25,792812	275,39285	300,339404	0
15.01.2021	12:49:23	0	86,800981	3,864172	1,806	340,6356	0,993	87,228	0	1015,48	8	9,8	9,6	1	1	1	1	1	1	1	1	1	0	1	-27,413672	275,480801	299,135367	0
15.01.2021	12:49:24	0	86,449078	3,75052	1,8285	325,5696	0,993	87,221	0	1015,24	8	9,8	9,6	1	1	1	1	1	1	1	1	1	0	1	-26,286117	275,447173	300,103501	0
15.01.2021	12:49:25	0	86,566976	2,954955	1,82175	347,6196	0,992	87,235	0	1015,4	8,2	9,7	9,6	1	1	1	1	1	1	1	1	1	0	1	-30,162086	275,49042	296,432563	0
15.01.2021	12:49:26	0	86,683661	4,205129	1,764	351,3852	0,997	87,235	0	1015,42	8	9,8	9,6	1	1	1	1	1	1	1	1	1	0	1	-25,440451	275,456775	300,994682	0
15.01.2021	12:49:27	0	86,331758	3,636868	1,695	346,6152	0,99	87,225	0	1015,36	8,2	9,8	9,6	1	1	1	1	1	1	1	1	1	0	1	-26,70895	275,349819	299,219478	0
15.01.2021	12:49:28	0	86,683647	4,205129	1,59375	0,4752	0,998	87,248	0	1015,38	8	9,8	9,6	1	1	1	1	1	1	1	1	1	0	1	-29,457364	275,495231	297,1601	0
15.01.2021	12:49:29	0	86,21505	2,954956	1,521	355,824	0,997	87,238	0	1015,56	8	9,7	9,6	1	1	1	1	1	1	1	1	1	0	1	-25,369979	275,333906	300,483111	0
15.01.2021	12:49:30	0	86,68424	4,659738	1,3935	355,3776	0,998	87,235	0	1015,42	8	9,7	9,6	1	1	1	1	1	1	1	1	1	0	1	-27,836505	275,37212	298,197523	0
15.01.2021	12:49:31	0	86,332939	2,614	1,3155	3,7692	1,001	87,23	0	1015,58	8	9,6	9,6	1	1	1	1	1	1	1	1	1	0	1	-25,440451	275,482404	301,116188	0
15.01.2021	12:49:32	0	86,449627	4,091478	1,2495	8,6112	1	87,236	0	1015,58	8	9,7	9,6	1	1	1	1	1	1	1	1	1	0	1	-29,105004	275,447173	297,284614	0
15.01.2021	12:49:33	0	85,862522	2,386695	1,21725	0,864	1,002	87,235	0	1015,46	8,2	9,8	9,6	1	1	1	1	1	1	1	1	1	0	1	-32,346723	275,316417	293,423581	0
15.01.2021	12:49:34	0	86,449007	3,295913	1,23675	352,7928	1,006	87,241	0	1015,52	8,2	9,8	9,6	1	1	1	1	1	1	1	1	1	0	1	-27,343199	275,400829	298,826815	0
15.01.2021	12:49:35	0	85,979806	4,432435	1,23975	357,6708	0,999	87,244	0	1015,5	8	9,8	9,6	1	1	1	1	1	1	1	1	1	0	1	-25,933756	275,492024	300,668497	0
15.01.2021	12:49:36	0	86,566291	4,091478	1,25925	356,9508	1,003	87,247	0	1015,62	8,2	9,8	9,6	1	1	1	1	1	1	1	1	1	0	1	-27,484144	275,343452	298,41414	0
15.01.2021	12:49:37	0	86,56689	3,864174	1,278	357,2568	0,997	87,245	0	1015,5	8	9,7	9,6	1	1	1	1	1	1	1	1	1	0	1	-25,299507	275,477596	301,234335	0
15.01.2021	12:49:38	0	86,214381	2,727652	1,25025	0,4824	1,005	87,239	0	1015,52	8	9,8	9,6	1	1	1	1	1	1	1	1	1	0	1	-25,651868	275,386469	300,450123	0
15.01.2021	12:49:39	0	86,097076	3,068609	1,25025	357,3576	1,002	87,241	0	1015,54	8	9,8	9,6	1	1	1	1	1	1	1	1	1	0	1	-25,299507	275,313239	300,455755	0
15.01.2021	12:49:40	0	86,214971	2,500348	1,215	359,8884	0,998	87,236	0	1015,4	8	9,7	9,6	1	1	1	1	1	1	1	1	1	0	1	-25,158562	275,370526	300,867917	0
15.01.2021	12:49:41	0	85,863667	2,273044	1,1835	0,126	0,998	87,249	0	1015,5	8	9,6	9,6	1	1	1	1	1	1	1	1	1	0	1	-24,031008	275,493628	302,578851	0
15.01.2021	12:49:42	0	86,097054	2,614001	1,2075	359,4708	0,999	87,244	0	1015,54	8	9,8	9,6	1	1	1	1	1	1	1	1	1	0	1	-26,427061	275,472789	300,08399	0
15.01.2021	12:49:43	0	86,214345	3,523219	1,21425	351,054	0,996	87,249	0	1015,42	8	9,8	9,6	1	1	1	1	1	1	1	1	1	0	1	-27,977449	275,447173	298,412169	0
15.01.2021	12:49:44	0	86,097039	2,954958	1,218	356,616	1,003	87,253	0	1015,66	8	9,8	9,6	1	1	1	1	1	1	1	1	1	0	1	-27,484144	275,322775	298,316254	0
15.01.2021	12:49:45	0	86,097032	2,386697	1,197	359,1036	0,996	87,248	0	1015,5	8,2	9,8	9,6	1	1	1	1	1	1	1	1	1	0	1	-27,69556	275,359373	298,278107	0
15.01.2021	12:49:46	0	85,745129	2,954958	1,18575	349,0848	0,999	87,248	0	1015,52	8	9,8	9,6	1	1	1	1	1	1	1	1	1	0	1	-27,977449	275,482404	298,57919	0
15.01.2021	12:49:47	0	86,214316	2,273045	1,1595	350,8956	0,999	87,235	0	1015,42	8	9,8	9,6	1	1	1	1	1	1	1	1	1	0	1	-29,809725	275,367339	296,201661	0
15.01.2021	12:49:48	0	85,745115	2,954958	1,12125	1,7316	0,995	87,26	0	1015,48	8	9,8	9,6	1	1	1	1	1	1	1	1	1	0	1	-28,752643	275,297355	296,927453	0
15.01.2021	12:49:49	0	86,214301	5,114351	1,04475	347,6268	0,996	87,251	0	1015,54	8	9,8	9,6	1	1	1	1	1	1	1	1	1	0	1	-27,977449	275,474391	298,541198	0
15.01.2021	12:49:50	0	85,862398	3,52322	1,05975	350,6724	0,999	87,265	0	1015,44	8	9,8	9,6	1	1	1	1	1	1	1	1	1	0	1	-25,158562	275,429581	301,147683	0
15.01.2021	12:49:51	0	85,979689	2,386697	1,0545	354,7224	1,004	87,252	0	1015,48	8	9,8	9,6	1	1	1	1	1	1	1	1	1	0	1	-25,229035	275,482404	301,327604	0
15.01.2021	12:49:52	0	86,097583	4,773395	1,05075	345,8088	1,001	87,261	0	1015,48	8,2	9,7	9,6	1	1	1	1	1	1	1	1	1	0	1	-27,413672	275,437575	298,930459	0
15.01.2021	12:49:53	0	85,862978	3,182263	1,02225	337,5	0,993	87,27	0	1015,5	8	9,7	9,6	1	1	1	1	1	1	1	1	1	0	1	-29,457364	275,49844	297,175314	0
15.01.2021	12:49:54	0	85,979667	3,295916	1,0545	3,3804	0,999	87,26	0	1015,4	8,2	9,8	9,6	1	1	1	1	1	1	1	1	1	0	1	-30,232558	275,37212	295,801469	0
15.01.2021	12:49:55	0	85,862361	4,887047	1,00725	19,512	1,001	87,271	0	1015,54	8	9,8	9,6	1	1	1	1	1	1	1	1	1	0	1	-29,739253	275,330725	296,098778	0
15.01.2021	12:49:56	0	85,979652	3,409568	0,92025	355,32	1,002	87,279	0	1015,68	8	9,8	9,6	1	1	1	1	1	1	1	1	1	0	1	-29,31642	275,359373	296,657247	0
15.01.2021	12:49:57	0	85,62775	2,954959	0,87075	332,7336	1,003	87,279	0	1015,52	8	9,8	9,6	1	1	1	1	1	1	1	1	1	0	1	-28,541226	275,456775	297,893906	0
15.01.2021	12:49:58	0	85,979637	4,205134	0,8415	332,6256	1,004	87,281	0	1015,4	8	9,8	9,6	1	1	1	1	1	1	1	1	1	0	1	-29,175476	275,469585	297,320386	0
15.01.2021	12:49:59	0	85,97963	4,205135	0,804	349,0992	0,996	87,274	0	1015,5	8	9,8	9,6	1	1	1	1	1	1	1	1	1	0	1	-26,849894	275,321185	298,942979	0
15.01.2021	12:50:00	0	85,862317	4,318787	0,7305	343,5876	1,003	87,297	0	1015,32	8	9,8	9,6	1	1	1	1	1	1	1	1	1	0	1	-27,272727	275,424786	299,010796	0
15.01.2021	12:50:01	0	85,862317	4,318787	0,7305	343,5876	1,003	87,297	0	1015,32	8	9,8	9,6	1	1	1	1	1	1	1	1	1	0	1	-25,581395	275,496835	301,043676	0
15.01.2021	12:50:02	0	85,627713	2,95496	0,7605	333,2304	0,995	87,287	0	1015,44	8	9,8	9,6	1	1	1	1	1	1	1	1	1	0	1	-29,668781	275,448773	296,728421	0
15.01.2021	12:50:03	0	85,745003	2,614003	0,7845	332,802	0,997	87,294	0	1015,48	8,2	9,8	9,6	1	1	1	1	1	1	1	1	1	0	1	-31,148696	275,321185	294,644177	0
15.01.2021	12:50:04	0	85,862294	2,95496	0,77175	346,2048	1,005	87,298	0	1015,5	8,2	9,8	9,6	1	1	1	1	1	1	1	1	1	0	1	-25,440451	275,399233	300,722002	0
15.01.2021	12:50:05	0	85,510991	2,500351	0,77925	353,9988	1,005	87,307	0	1015,52	8,2	9,7	9,6	1	1	1	1	1	1	1	1	1	0	1	-28,188865	275,313239	297,566396	0
15.01.2021	12:50:06	0	85,393684	2,841308	0,77925	349,4664	1,002	87,297	0	1015,4	8	9,7	9,6	1	1	1	1	1	1	1	1	1	0	1	-24,242424	275,376902	301,814251	0
15.01.2021	12:50:07	0	85,627675	2,841308	0,80775	352,8396	0,999	87,297	0	1015,36	8,2	9,8	9,6	1	1	1	1	1	1	1	1	1	0	1	-29,034531	275,453574	297,385427	0
15.01.2021	12:50:08	0	85,275773	2,841308	0,76875	350,9352	1,001	87,293	0	1015,42	8,2	9,8	9,6	1	1	1	1	1	1	1	1	1	0	1	-27,554616	275,482404	299,002023	0
15.01.2021	12:50:09	0	85,51096	3,068613	0,7455	350,2116	1,001	87,314	0	1015,52	8,2	9,7	9,6	1	1	1	1	1	1	1	1	1	0	1	-24,665257	275,466382	301,815417	0
15.01.2021	12:50:10	0	85,628252	4,318789	0,7155	358,0812	1,003	87,292	0	1015,5	8	9,7	9,6	1	1	1	1	1	1	1	1	1	0	1	-31,078224	275,488817	295,508821	0
15.01.2021	12:50:11	0	85,627644	3,86418	0,7095	2,6172	1,009	87,306	0	1015,2	8	9,8	9,6	1	1	1	1	1	1	1	1	1	0	1	-27,343199	275,435976	298,993353	0
15.01.2021	12:50:12	0	85,159041	2,614004	0,69225	4,0896	0,999	87,31	0	1015,38	8,2	9,7	9,6	1	1	1	1	1	1	1	1	1	0	1	-29,809725	275,506462	296,861002	0
15.01.2021	12:50:13	0	85,275735	4,432442	0,68175	354,6648	1,002	87,304	0	1015,52	8	9,8	9,6	1	1	1	1	1	1	1	1	1	0	1	-25,229035	275,376902	300,82764	0
15.01.2021	12:50:14	0	85,510323	2,841309	0,65775	343,5876	1,007	87,31	0	1015,48	8,2	9,8	9,6	1	1	1	1	1	1	1	1	1	0	1	-34,178999	275,512883	292,52218	0
15.01.2021	12:50:15	0	85,510316	4,887052	0,67425	346,86	1,003	87,303	0	1015,4	8	9,8	9,6	1	1	1	1	1	1	1	1	1	0	1	-29,175476	275,383279	296,911406	0
15.01.2021	12:50:16	0	85,510907	4,546095	0,64725	5,6736	1,003	87,303	0	1015,36	8,2	9,7	9,6	1	1	1	1	1	1	1	1	1	0	1	-25,440451	275,308472	300,292253	0
15.01.2021	12:50:17	0	85,5103	4,659747	0,62325	23,1984	1,004	87,294	0	1015,4	8	9,8	9,6	1	1	1	1	1	1	1	1	1	0	1	-27,836505	275,397637	298,318388	0
15.01.2021	12:50:18	0	84,923802	2,500352	0,63375	19,5156	0,999	87,311	0	1015,52	8,2	9,8	9,6	1	1	1	1	1	1	1	1	1	0	1	-30,655391	275,345044	295,250427	0
15.01.2021	12:50:19	0	85,276286	2,727657	0,615	10,0584	1,005	87,328	0	1015,54	8,2	9,7	9,6	1	1	1	1	1	1	1	1	1	0	1	-25,581395	275,364152	300,414901	0
15.01.2021	12:50:20	0	85,041085	3,864181	0,63975	12,0852	1,006	87,336	0	1015,52	8	9,8	9,6	1	1	1	1	1	1	1	1	1	0	1	-28,823115	275,492024	297,779139	0
15.01.2021	12:50:21	0	85,158375	2,84131	0,702	15,7788	0,995	87,318	0	1015,46	8,2	9,8	9,6	1	1	1	1	1	1	1	1	1	0	1	-30,232558	275,345044	295,67326	0
15.01.2021	12:50:22	0	84,923771	3,29592	0,738	15,0372	1,005	87,329	0	1015,42	8,2	9,8	9,6	1	1	1	1	1	1	1	1	1	0	1	-29,245948	275,466382	297,234727	0
15.01.2021	12:50:23	0	85,042253	3,068615	0,77775	7,5096	1,004	87,323	0	1015,38	8	9,6	9,6	1	1	1	1	1	1	1	1	1	0	1	-27,766032	275,520911	298,97323	0
15.01.2021	12:50:24	0	85,158352	3,864182	0,80475	9,3744	1,003	87,318	0	1015,38	8,2	9,8	9,6	1	1	1	1	1	1	1	1	1	0	1	-26,920366	275,445573	299,461668	0
15.01.2021	12:50:25	0	85,041046	4,432444	0,79275	16,848	1,002	87,327	0	1015,34	8,2	9,8	9,6	1	1	1	1	1	1	1	1	1	0	1	-28,188865	275,343452	297,709418	0
15.01.2021	12:50:26	0	85,276231	2,84131	0,81675	16,11	1,006	87,339	0	1015,52	8	9,7	9,6	1	1	1	1	1	1	1	1	1	0	1	-31,360113	275,370526	294,666367	0
15.01.2021	12:50:27	0	84,923732	4,318792	0,8175	17,7984	1,01	87,335	0	1015,46	8	9,8	9,6	1	1	1	1	1	1	1	1	1	0	1	-29,950669	275,341861	295,94008	0
15.01.2021	12:50:28	0	85,275618	5,000707	0,75975	30,708	1,007	87,339	0	1015,42	8,2	9,8	9,6	1	1	1	1	1	1	1	1	1	0	1	-27,766032	275,407215	298,434234	0
15.01.2021	12:50:29	0	84,689121	3,523225	0,7065	27,972	1,01	87,329	0	1015,68	8,2	9,8	9,6	1	1	1	1	1	1	1	1	1	0	1	-25,863284	275,354596	300,08776	0
15.01.2021	12:50:30	0	85,158305	2,727659	0,6825	15,4116	1,009	87,333	0	1015,5	8	9,8	9,6	1	1	1	1	1	1	1	1	1	0	1	-28,259338	275,440774	298,099952	0
15.01.2021	12:50:31	0	85,041595	4,432445	0,6075	19,5408	1,009	87,341	0	1015,5	8,2	9,7	9,6	1	1	1	1	1	1	1	1	1	0	1	-29,034531	275,349819	296,893897	0
15.01.2021	12:50:32	0	84,923693	3,750531	0,5715	23,598	1,008	87,349	0	1015,44	7,9	9,8	9,6	1	1	1	1	1	1	1	1	1	0	1	-29,527837	275,396041	296,619496	0
15.01.2021	12:50:33	0	84,806981	3,523226	0,57225	14,6448	1,01	87,342	0	1015,44	8,2	9,7	9,6	1	1	1	1	1	1	1	1	1	0	1	-30,443975	275,493628	296,165884	0
15.01.2021	12:50:34	0	85,040975	4,318793	0,59925	3,7656	1,01	87,338	0	1015,52	8	9,8	9,6	1	1	1	1	1	1	1	1	1	0	1	-31,994362	275,471187	294,509094	0
15.01.2021	12:50:35	0	84,924264	2,954964	0,64575	0,8676	1,009	87,348	0	1015,48	8,2	9,7	9,6	1	1	1	1	1	1	1	1	1	0	1	-31,289641	275,506462	295,381086	0
15.01.2021	12:50:36	0	84,924256	3,182269	0,67875	4,194	1,006	87,322	0	1015,46	8,2	9,7	9,6	1	1	1	1	1	1	1	1	1	0	1	-33,333333	275,516094	293,383077	0
15.01.2021	12:50:37	0	84,806356	2,727659	0,70875	4,8276	1,014	87,329	0	1015,54	8,2	9,8	9,6	1	1	1	1	1	1	1	1	1	0	1	-29,386892	275,466382	297,093782	0
15.01.2021	12:50:38	0	84,68905	2,954964	0,70575	351,1188	1,009	87,345	0	1015,56	8,2	9,8	9,6	1	1	1	1	1	1	1	1	1	0	1	-26,356589	275,348227	299,564302	0
15.01.2021	12:50:39	0	85,158233	4,659752	0,747	349,5024	1,014	87,352	0	1015,5	8	9,8	9,6	1	1	1	1	1	1	1	1	1	0	1	-28,682171	275,381685	297,397159	0
15.01.2021	12:50:40	0	84,924225	3,750532	0,777	350,2368	1,014	87,349	0	1015,62	8,2	9,7	9,6	1	1	1	1	1	1	1	1	1	0	1	-31,360113	275,39285	294,772103	0
15.01.2021	12:50:41	0	84,689026	3,068617	0,759	345,3444	1,009	87,33	0	1015,4	8,2	9,8	9,6	1	1	1	1	1	1	1	1	1	0	1	-28,752643	275,345044	297,153176	0
15.01.2021	12:50:42	0	85,158209	3,409575	0,7485	355,5288	1,011	87,349	0	1015,46	8,2	9,8	9,6	1	1	1	1	1	1	1	1	1	0	1	-29,175476	275,471187	297,32798	0
15.01.2021	12:50:43	0	84,806308	3,409575	0,7395	357,9876	1,011	87,339	0	1015,5	8,1	9,8	9,6	1	1	1	1	1	1	1	1	1	0	1	-28,118393	275,466382	298,362281	0
15.01.2021	12:50:44	0	85,158193	3,18227	0,7335	346,8384	1,012	87,337	0	1015,44	8,2	9,8	9,6	1	1	1	1	1	1	1	1	1	0	1	-33,756166	275,514488	292,952628	0
15.01.2021	12:50:45	0	85,158185	4,091491	0,71175	346,5108	1,011	87,341	0	1015,34	8,2	9,8	9,6	1	1	1	1	1	1	1	1	1	0	1	-25,72234	275,469585	300,773522	0
15.01.2021	12:50:46	0	84,923582	3,977838	0,70425	351,072	1,012	87,341	0	1015,46	8,2	9,8	9,6	1	1	1	1	1	1	1	1	1	0	1	-29,950669	275,337088	295,917482	0
15.01.2021	12:50:47	0	85,275467	4,091491	0,77625	347,6268	1,008	87,327	0	1015,4	8,2	9,8	9,6	1	1	1	1	1	1	1	1	1	0	1	-25,08809	275,391255	301,036568	0
15.01.2021	12:50:48	0	84,571672	2,614008	0,77475	355,7808	1,02	87,358	0	1015,5	8,2	9,8	9,6	1	1	1	1	1	1	1	1	1	0	1	-30,373502	275,343452	295,524781	0
15.01.2021	12:50:49	0	84,924152	4,546102	0,81225	0,4824	1,014	87,342	0	1015,44	8,2	9,7	9,6	1	1	1	1	1	1	1	1	1	0	1	-28,470754	275,408812	297,737078	0
15.01.2021	12:50:50	0	84,571656	3,295924	0,77025	349,8912	1,02	87,36	0	1015,42	8,2	9,8	9,6	1	1	1	1	1	1	1	1	1	0	1	-31,92389	275,341861	293,966859	0
15.01.2021	12:50:51	0	85,275434	4,205144	0,756	338,3712	1,019	87,36	0	1015,32	8,2	9,8	9,6	1	1	1	1	1	1	1	1	1	0	1	-31,782946	275,373713	294,25863	0
15.01.2021	12:50:52	0	85,040831	2,614009	0,74025	335,718	1,014	87,362	0	1015,38	8,2	9,8	9,6	1	1	1	1	1	1	1	1	1	0	1	-28,893587	275,384874	297,200849	0
15.01.2021	12:50:53	0	84,923525	2,841314	0,711	342,072	1,021	87,368	0	1015,44	8	9,8	9,6	1	1	1	1	1	1	1	1	1	0	1	-28,611698	275,349819	297,31673	0
15.01.2021	12:50:54	0	85,158112	4,205145	0,7305	345,7008	1,013	87,349	0	1015,38	8,2	9,8	9,6	1	1	1	1	1	1	1	1	1	0	1	-32,628612	275,427983	293,670059	0
15.01.2021	12:50:55	0	84,688913	2,727662	0,76425	352,5048	1,02	87,372	0	1015,4	8,2	9,8	9,6	1	1	1	1	1	1	1	1	1	0	1	-28,400282	275,5177	298,323745	0
15.01.2021	12:50:56	0	85,040798	2,500357	0,7965	1,9008	1,02	87,364	0	1015,38	8,2	9,8	9,6	1	1	1	1	1	1	1	1	1	0	1	-30,655391	275,439175	295,696319	0
15.01.2021	12:50:57	0	85,04079	5,228019	0,88875	5,202	1,019	87,378	0	1015,32	8,2	9,8	9,6	1	1	1	1	1	1	1	1	1	0	1	-27,343199	275,353003	298,600305	0
15.01.2021	12:50:58	0	85,275377	5,000714	0,978	3,0204	1,021	87,378	0	1015,44	8	9,8	9,6	1	1	1	1	1	1	1	1	1	0	1	-32,769556	275,384874	293,32488	0
15.01.2021	12:50:59	0	84,923475	3,977841	1,05825	6,8184	1,024	87,386	0	1015,46	8,1	9,8	9,6	1	1	1	1	1	1	1	1	1	0	1	-31,853418	275,360966	294,127791	0
15.01.2021	12:51:00	0	85,275352	4,432451	1,08975	7,1244	1,02	87,405	0	1015,62	8,2	9,8	9,6	1	1	1	1	1	1	1	1	1	0	1	-28,752643	275,345044	297,153176	0
15.01.2021	12:51:01	0	85,275352	4,432451	1,08975	7,1244	1,02	87,405	0	1015,62	8,2	9,8	9,6	1	1	1	1	1	1	1	1	1	0	1	-27,69556	275,467984	298,792707	0
15.01.2021	12:51:02	0	85,158046	3,864189	1,098	8,6112	1,022	87,387	0	1015,4	8,2	9,8	9,6	1	1	1	1	1	1	1	1	1	0	1	-33,403805	275,396041	292,743527	0
15.01.2021	12:51:03	0	84,806739	3,409578	1,11825	10,0584	1,024	87,394	0	1015,6	8,2	9,7	9,6	1	1	1	1	1	1	1	1	1	0	1	-30,232558	275,362559	295,756194	0
15.01.2021	12:51:04	0	84,923434	3,864189	1,1445	7,5132	1,023	87,383	0	1015,54	8,1	9,8	9,6	1	1	1	1	1	1	1	1	1	0	1	-26,990839	275,451973	299,421533	0
15.01.2021	12:51:05	0	84,806722	4,3188	1,15575	9,756	1,025	87,409	0	1015,48	8,2	9,7	9,6	1	1	1	1	1	1	1	1	1	0	1	-29,386892	275,343452	296,511391	0
15.01.2021	12:51:06	0	85,040715	2,954968	1,1715	26,244	1,025	87,401	0	1015,46	8	9,8	9,6	1	1	1	1	1	1	1	1	1	0	1	-35,236082	275,475994	291,290162	0
15.01.2021	12:51:07	0	84,923409	2,500358	1,11375	29,5596	1,024	87,407	0	1015,46	8,2	9,8	9,6	1	1	1	1	1	1	1	1	1	0	1	-32,840028	275,520911	293,899234	0
15.01.2021	12:51:08	0	85,157996	2,954969	1,041	15,8004	1,021	87,405	0	1015,2	8,2	9,8	9,6	1	1	1	1	1	1	1	1	1	0	1	-27,625088	275,434377	298,703886	0
15.01.2021	12:51:09	0	84,923392	2,614011	1,00575	9,36	1,025	87,409	0	1015,46	8,2	9,8	9,6	1	1	1	1	1	1	1	1	1	0	1	-28,047921	275,504857	298,615195	0
15.01.2021	12:51:10	0	85,393172	2,954969	0,9765	7,5132	1,026	87,422	0	1015,52	8,2	9,7	9,6	1	1	1	1	1	1	1	1	1	0	1	-30,021142	275,456775	296,413991	0
15.01.2021	12:51:11	0	84,806078	4,659759	1,04775	0,8748	1,03	87,428	0	1015,42	8,2	9,8	9,6	1	1	1	1	1	1	1	1	1	0	1	-27,554616	275,349819	298,373812	0
15.01.2021	12:51:12	0	85,275259	4,546106	1,0005	4,8492	1,026	87,421	0	1015,52	8	9,8	9,6	1	1	1	1	1	1	1	1	1	0	1	-28,400282	275,474391	298,118365	0
15.01.2021	12:51:13	0	85,157953	2,386706	1,03125	8,2584	1,024	87,433	0	1015,46	8,2	9,8	9,6	1	1	1	1	1	1	1	1	1	0	1	-30,232558	275,524124	296,521943	0
15.01.2021	12:51:14	0	85,157945	3,523233	1,02	24,714	1,032	87,437	0	1015,62	8,2	9,8	9,6	1	1	1	1	1	1	1	1	1	0	1	-27,202255	275,524124	299,552246	0
15.01.2021	12:51:15	0	85,392531	4,091496	1,0125	11,7108	1,03	87,434	0	1015,44	8,2	9,8	9,6	1	1	1	1	1	1	1	1	1	0	1	-29,739253	275,443973	296,635199	0
15.01.2021	12:51:16	0	84,923333	3,295928	1,04475	348,3648	1,035	87,438	0	1015,54	8,2	9,8	9,6	1	1	1	1	1	1	1	1	1	0	1	-28,259338	275,338679	297,616346	0
15.01.2021	12:51:17	0	85,275217	4,318802	1,02825	352,8828	1,03	87,442	0	1015,52	8,2	9,8	9,6	1	1	1	1	1	1	1	1	1	0	1	-27,766032	275,484007	298,798207	0
15.01.2021	12:51:18	0	85,275806	4,65976	0,969	357,2748	1,033	87,429	0	1015,6	8,2	9,7	9,6	1	1	1	1	1	1	1	1	1	0	1	-26,356589	275,472789	300,154462	0
15.01.2021	12:51:19	0	84,923308	3,295928	0,93675	338,4072	1,027	87,442	0	1015,26	8	9,8	9,6	1	1	1	1	1	1	1	1	1	0	1	-31,782946	275,383279	294,303936	0
15.01.2021	12:51:20	0	85,392489	3,523234	0,9255	324,4644	1,035	87,449	0	1015,48	8,2	9,8	9,6	1	1	1	1	1	1	1	1	1	0	1	-32,699084	275,532157	294,093527	0
15.01.2021	12:51:21	0	85,157885	2,727665	0,9105	328,896	1,03	87,451	0	1015,5	8,2	9,8	9,6	1	1	1	1	1	1	1	1	1	0	1	-30,655391	275,479199	295,886049	0
15.01.2021	12:51:22	0	84,923877	3,068623	0,87225	333,8136	1,03	87,458	0	1015,6	8,2	9,7	9,6	1	1	1	1	1	1	1	1	1	0	1	-26,497533	275,368932	299,521399	0
15.01.2021	12:51:23	0	85,041166	2,386707	0,894	329,2668	1,031	87,443	0	1015,44	8,2	9,7	9,6	1	1	1	1	1	1	1	1	1	0	1	-27,836505	275,37212	298,197523	0
15.01.2021	12:51:24	0	85,392454	3,864193	0,95925	332,0604	1,029	87,453	0	1015,38	8,2	9,8	9,6	1	1	1	1	1	1	1	1	1	0	1	-28,047921	275,439175	298,303789	0
15.01.2021	12:51:25	0	85,392445	2,614013	1,0095	347,6484	1,03	87,438	0	1015,52	8,2	9,8	9,6	1	1	1	1	1	1	1	1	1	0	1	-27,977449	275,391255	298,147209	0
15.01.2021	12:51:26	0	85,744329	3,409582	1,116	344,6208	1,033	87,476	0	1015,3	8,2	9,8	9,6	1	1	1	1	1	1	1	1	1	0	1	-28,541226	275,528943	298,236138	0
15.01.2021	12:51:27	0	85,157834	2,386708	1,15275	336,4704	1,033	87,469	0	1015,52	8,2	9,8	9,6	1	1	1	1	1	1	1	1	1	0	1	-32,135307	275,404022	294,049832	0
15.01.2021	12:51:28	0	85,157825	3,523235	1,24125	358,4124	1,029	87,466	0	1015,44	8,2	9,8	9,6	1	1	1	1	1	1	1	1	1	0	1	-23,396758	275,349819	302,53167	0
15.01.2021	12:51:29	0	85,509708	3,864194	1,25475	357,6384	1,036	87,466	0	1015,46	8,1	9,8	9,6	1	1	1	1	1	1	1	1	1	0	1	-29,105004	275,474391	297,413644	0
15.01.2021	12:51:30	0	85,744294	4,205152	1,26525	356,9688	1,032	87,45	0	1015,36	8,2	9,8	9,6	1	1	1	1	1	1	1	1	1	0	1	-27,061311	275,495231	299,556154	0
15.01.2021	12:51:31	0	85,275096	2,841319	1,275	5,2056	1,04	87,47	0	1015,56	8,2	9,8	9,6	1	1	1	1	1	1	1	1	1	0	1	-28,047921	275,399233	298,114532	0
15.01.2021	12:51:32	0	85,392384	3,523236	1,25625	1,8864	1,029	87,461	0	1015,42	8,2	9,8	9,6	1	1	1	1	1	1	1	1	1	0	1	-32,276251	275,360966	293,704958	0
15.01.2021	12:51:33	0	85,509673	2,841319	1,2195	3,0096	1,035	87,444	0	1015,38	8,2	9,8	9,6	1	1	1	1	1	1	1	1	1	0	1	-29,880197	275,472789	296,630854	0
15.01.2021	12:51:34	0	85,392367	4,205153	1,18275	13,1616	1,035	87,461	0	1015,32	8,2	9,8	9,6	1	1	1	1	1	1	1	1	1	0	1	-28,893587	275,541801	297,94478	0
15.01.2021	12:51:35	0	85,392358	3,523236	1,0785	12,852	1,039	87,469	0	1015,44	8,1	9,8	9,6	1	1	1	1	1	1	1	1	1	0	1	-28,32981	275,439175	298,0219	0
15.01.2021	12:51:36	0	85,392947	4,318806	1,04475	11,1996	1,039	87,455	0	1015,54	8,2	9,7	9,6	1	1	1	1	1	1	1	1	1	0	1	-30,091614	275,528943	296,685751	0
15.01.2021	12:51:37	0	85,626935	3,864195	0,9675	11,1888	1,043	87,464	0	1015,48	8,1	9,8	9,6	1	1	1	1	1	1	1	1	1	0	1	-28,259338	275,48561	298,312503	0
15.01.2021	12:51:38	0	85,392332	3,523237	0,89325	14,6448	1,044	87,478	0	1015,52	8,2	9,8	9,6	1	1	1	1	1	1	1	1	1	0	1	-28,964059	275,53055	297,820928	0
15.01.2021	12:51:39	0	85,861511	4,773418	0,82275	16,4808	1,039	87,464	0	1015,48	8,2	9,8	9,6	1	1	1	1	1	1	1	1	1	0	1	-31,501057	275,508067	295,177282	0
15.01.2021	12:51:40	0	85,509611	3,295932	0,759	13,158	1,043	87,449	0	1015,52	8,2	9,8	9,6	1	1	1	1	1	1	1	1	1	0	1	-26,849894	275,52573	299,912227	0
15.01.2021	12:51:41	0	85,392305	2,727668	0,71925	6,822	1,042	87,468	0	1015,52	8,2	9,8	9,6	1	1	1	1	1	1	1	1	1	0	1	-29,880197	275,410408	296,3352	0
15.01.2021	12:51:42	0	85,157702	2,614015	0,6795	8,262	1,042	87,464	0	1015,52	8,1	9,8	9,6	1	1	1	1	1	1	1	1	1	0	1	-28,188865	275,354596	297,762179	0
15.01.2021	12:51:43	0	85,978773	3,977849	0,6	10,8216	1,045	87,438	0	1015,44	8,2	9,8	9,6	1	1	1	1	1	1	1	1	1	0	1	-29,386892	275,467984	297,101375	0
15.01.2021	12:51:44	0	85,861467	4,887072	0,5955	7,1316	1,041	87,445	0	1015,46	8,2	9,8	9,6	1	1	1	1	1	1	1	1	1	0	1	-30,162086	275,548234	296,706801	0
15.01.2021	12:51:45	0	85,626863	3,409585	0,528	360	1,04	87,441	0	1015,46	8,1	9,8	9,6	1	1	1	1	1	1	1	1	1	0	1	-28,188865	275,442374	298,178005	0
15.01.2021	12:51:46	0	86,21334	4,318808	0,52875	339,4116	1,046	87,433	0	1015,46	7,9	9,8	9,6	1	1	1	1	1	1	1	1	1	0	1	-30,091614	275,376902	295,965061	0
15.01.2021	12:51:47	0	86,096034	4,091503	0,51075	324,324	1,04	87,436	0	1015,42	8,2	9,8	9,6	1	1	1	1	1	1	1	1	1	0	1	-27,69556	275,482404	298,861078	0
15.01.2021	12:51:48	0	85,978728	4,887073	0,528	321,2028	1,037	87,427	0	1015,38	8,1	9,8	9,6	1	1	1	1	1	1	1	1	1	0	1	-25,158562	275,375307	300,890563	0
15.01.2021	12:51:49	0	85,744125	3,409586	0,555	324,3996	1,037	87,423	0	1015,46	8,1	9,8	9,6	1	1	1	1	1	1	1	1	1	0	1	-27,131783	275,4152	299,106316	0
15.01.2021	12:51:50	0	86,447898	4,773421	0,5715	339,03	1,046	87,42	0	1015,5	8,1	9,8	9,6	1	1	1	1	1	1	1	1	1	0	1	-25,863284	275,488817	300,723761	0
15.01.2021	12:51:51	0	85,979303	3,750545	0,6165	353,5884	1,039	87,416	0	1015,32	8,2	9,7	9,6	1	1	1	1	1	1	1	1	1	0	1	-27,625088	275,364152	298,371208	0
15.01.2021	12:51:52	0	86,213285	2,727669	0,6195	356,166	1,043	87,406	0	1015,36	8,1	9,8	9,6	1	1	1	1	1	1	1	1	1	0	1	-26,920366	275,475994	299,605877	0
15.01.2021	12:51:53	0	85,978682	4,091504	0,654	357,6672	1,042	87,39	0	1015,46	8,2	9,8	9,6	1	1	1	1	1	1	1	1	1	0	1	-27,766032	275,538586	299,057079	0
15.01.2021	12:51:54	0	86,213267	3,977851	0,65175	2,646	1,042	87,381	0	1015,4	8,2	9,8	9,6	1	1	1	1	1	1	1	1	1	0	1	-26,356589	275,463179	300,108902	0
15.01.2021	12:51:55	0	85,978664	3,977852	0,63825	6,894	1,044	87,389	0	1015,38	8,1	9,8	9,6	1	1	1	1	1	1	1	1	1	0	1	-26,356589	275,543409	300,489407	0
15.01.2021	12:51:56	0	86,330546	4,546116	0,6255	7,8804	1,046	87,386	0	1015,42	8,1	9,8	9,6	1	1	1	1	1	1	1	1	1	0	1	-30,514447	275,412005	295,708517	0
15.01.2021	12:51:57	0	85,978646	4,546117	0,58875	10,0656	1,051	87,397	0	1015,5	8,1	9,8	9,6	1	1	1	1	1	1	1	1	1	0	1	-26,849894	275,548234	300,018993	0
15.01.2021	12:51:58	0	86,21323	3,636894	0,61125	10,4436	1,05	87,393	0	1015,48	8,2	9,8	9,6	1	1	1	1	1	1	1	1	1	0	1	-25,017618	275,43118	301,296203	0
15.01.2021	12:51:59	0	85,978627	4,091505	0,5835	5,238	1,053	87,384	0	1015,5	8,1	9,8	9,6	1	1	1	1	1	1	1	1	1	0	1	-28,470754	275,508067	298,207585	0
15.01.2021	12:52:00	0	86,213203	3,636894	0,51975	3,024	1,052	87,392	0	1015,56	8,1	9,8	9,6	1	1	1	1	1	1	1	1	1	0	1	-32,487667	275,52573	294,274454	0
15.01.2021	12:52:01	0	86,213203	3,636894	0,51975	3,024	1,052	87,392	0	1015,56	8,1	9,8	9,6	1	1	1	1	1	1	1	1	1	0	1	-27,554616	275,509672	299,131336	0
15.01.2021	12:52:02	0	86,213193	3,8642	0,47475	10,4364	1,054	87,383	0	1015,58	8,1	9,8	9,6	1	1	1	1	1	1	1	1	1	0	1	-31,148696	275,541801	295,689671	0
15.01.2021	12:52:03	0	86,213184	3,523241	0,4245	7,8732	1,054	87,365	0	1015,36	8,1	9,8	9,6	1	1	1	1	1	1	1	1	1	0	1	-29,175476	275,463179	297,290015	0
15.01.2021	12:52:04	0	86,213175	2,841324	0,41775	353,6136	1,049	87,393	0	1015,54	8,2	9,8	9,6	1	1	1	1	1	1	1	1	1	0	1	-25,863284	275,356188	300,0953	0
15.01.2021	12:52:05	0	86,447759	3,523242	0,375	325,134	1,051	87,368	0	1015,4	8,1	9,8	9,6	1	1	1	1	1	1	1	1	1	0	1	-30,93728	275,412005	295,285684	0
15.01.2021	12:52:06	0	86,565653	4,546119	0,40575	308,8836	1,053	87,379	0	1015,46	8,1	9,7	9,6	1	1	1	1	1	1	1	1	1	0	1	-28,188865	275,496835	298,436206	0
15.01.2021	12:52:07	0	86,096453	3,295936	0,43875	309,1788	1,051	87,384	0	1015,44	8,1	9,7	9,6	1	1	1	1	1	1	1	1	1	0	1	-26,215645	275,367339	299,795742	0
15.01.2021	12:52:08	0	86,916918	4,432466	0,45975	323,7192	1,055	87,39	0	1015,5	8,1	9,8	9,6	1	1	1	1	1	1	1	1	1	0	1	-24,665257	275,501648	301,982638	0
15.01.2021	12:52:09	0	86,682315	3,068631	0,46425	339,1128	1,051	87,383	0	1015,42	8,2	9,8	9,6	1	1	1	1	1	1	1	1	1	0	1	-31,501057	275,362559	294,487695	0
15.01.2021	12:52:10	0	86,682913	2,614019	0,44025	346,9716	1,051	87,376	0	1015,44	8,2	9,7	9,6	1	1	1	1	1	1	1	1	1	0	1	-29,739253	275,434377	296,589721	0
15.01.2021	12:52:11	0	86,682296	4,659773	0,438	346,8276	1,058	87,376	0	1015,42	8,1	9,8	9,6	1	1	1	1	1	1	1	1	1	0	1	-28,188865	275,546625	298,67239	0
15.01.2021	12:52:12	0	86,682287	2,954978	0,43875	350,694	1,054	87,39	0	1015,4	8,1	9,8	9,6	1	1	1	1	1	1	1	1	1	0	1	-29,457364	275,419992	296,803443	0
15.01.2021	12:52:13	0	86,447684	3,182284	0,50775	349,4448	1,05	87,382	0	1015,5	8,1	9,8	9,6	1	1	1	1	1	1	1	1	1	0	1	-27,413672	275,368932	298,605261	0
15.01.2021	12:52:14	0	86,330378	2,614019	0,564	345,5028	1,051	87,38	0	1015,44	8,1	9,8	9,6	1	1	1	1	1	1	1	1	1	0	1	-26,286117	275,399233	299,876336	0
15.01.2021	12:52:15	0	86,800163	4,773427	0,585	344,25	1,051	87,361	0	1015,42	8,1	9,7	9,6	1	1	1	1	1	1	1	1	1	0	1	-28,964059	275,538586	297,859053	0
15.01.2021	12:52:16	0	87,152046	4,659774	0,57825	351,4068	1,054	87,376	0	1015,3	8,1	9,7	9,6	1	1	1	1	1	1	1	1	1	0	1	-27,343199	275,533764	299,457035	0
15.01.2021	12:52:17	0	87,268723	4,546121	0,6195	6,4296	1,06	87,38	0	1015,3	8,1	9,8	9,6	1	1	1	1	1	1	1	1	1	0	1	-27,272727	275,461578	299,185173	0
15.01.2021	12:52:18	0	86,916823	2,954979	0,642	1,1628	1,058	87,403	0	1015,46	8,1	9,8	9,6	1	1	1	1	1	1	1	1	1	0	1	-28,259338	275,55145	298,624814	0
15.01.2021	12:52:19	0	87,03411	4,887081	0,645	347,5512	1,056	87,383	0	1015,34	8,1	9,8	9,6	1	1	1	1	1	1	1	1	1	0	1	-27,977449	275,475994	298,548795	0
15.01.2021	12:52:20	0	87,0341	3,864204	0,68625	333,8532	1,053	87,387	0	1015,48	8,1	9,8	9,6	1	1	1	1	1	1	1	1	1	0	1	-27,766032	275,541801	299,072335	0
15.01.2021	12:52:21	0	86,916794	3,750551	0,68925	333,8928	1,056	87,395	0	1015,36	8,2	9,8	9,6	1	1	1	1	1	1	1	1	1	0	1	-27,554616	275,464781	298,918466	0
15.01.2021	12:52:22	0	86,916785	2,841327	0,68625	343,0692	1,049	87,394	0	1015,4	8,1	9,8	9,6	1	1	1	1	1	1	1	1	1	0	1	-27,343199	275,354596	298,607845	0
15.01.2021	12:52:23	0	87,151368	3,295939	0,6855	352,0296	1,057	87,391	0	1015,5	8,2	9,8	9,6	1	1	1	1	1	1	1	1	1	0	1	-31,289641	275,378496	294,774585	0
15.01.2021	12:52:24	0	87,269266	5,000735	0,69075	353,9412	1,054	87,402	0	1015,22	8,2	9,7	9,6	1	1	1	1	1	1	1	1	1	0	1	-29,739253	275,43118	296,574568	0
15.01.2021	12:52:25	0	87,269257	3,864205	0,70425	358,4304	1,052	87,407	0	1015,38	8,1	9,7	9,6	1	1	1	1	1	1	1	1	1	0	1	-26,215645	275,554668	300,683774	0
15.01.2021	12:52:26	0	87,151339	4,432471	0,699	2,6496	1,051	87,406	0	1015,4	8,2	9,8	9,6	1	1	1	1	1	1	1	1	1	0	1	-26,779422	275,484007	299,784817	0
15.01.2021	12:52:27	0	87,503219	5,114389	0,63975	356,5692	1,059	87,391	0	1015,46	8,1	9,8	9,6	1	1	1	1	1	1	1	1	1	0	1	-29,598309	275,37212	296,435719	0
15.01.2021	12:52:28	0	87,15132	3,864205	0,64125	343,5552	1,055	87,401	0	1015,4	8,1	9,8	9,6	1	1	1	1	1	1	1	1	1	0	1	-28,259338	275,520911	298,479925	0
15.01.2021	12:52:29	0	87,15131	4,432471	0,61125	334,2744	1,064	87,418	0	1015,48	8,1	9,8	9,6	1	1	1	1	1	1	1	1	1	0	1	-25,651868	275,49042	300,942782	0
15.01.2021	12:52:30	0	86,916707	3,6369	0,585	334,5768	1,05	87,406	0	1015,34	8,1	9,8	9,6	1	1	1	1	1	1	1	1	1	0	1	-27,061311	275,559495	299,861015	0
15.01.2021	12:52:31	0	87,268587	2,614022	0,55575	337,14	1,06	87,406	0	1015,42	8,2	9,8	9,6	1	1	1	1	1	1	1	1	1	0	1	-30,443975	275,464781	296,029108	0
15.01.2021	12:52:32	0	87,2698	3,182288	0,56625	341,64	1,062	87,412	0	1015,54	8,1	9,6	9,6	1	1	1	1	1	1	1	1	1	0	1	-29,105004	275,553059	297,786781	0
15.01.2021	12:52:33	0	87,50316	3,750553	0,5865	343,5768	1,055	87,401	0	1015,4	8,1	9,8	9,6	1	1	1	1	1	1	1	1	1	0	1	-30,021142	275,410408	296,194256	0
15.01.2021	12:52:34	0	87,268557	2,614022	0,62475	342,3564	1,06	87,413	0	1015,54	8,1	9,8	9,6	1	1	1	1	1	1	1	1	1	0	1	-25,651868	275,405618	300,540835	0
15.01.2021	12:52:35	0	87,50314	5,114392	0,74025	348,1272	1,057	87,416	0	1015,22	8,1	9,8	9,6	1	1	1	1	1	1	1	1	1	0	1	-26,427061	275,527337	300,342681	0
15.01.2021	12:52:36	0	87,620427	2,841329	0,80325	356,1516	1,063	87,405	0	1015,34	8,1	9,8	9,6	1	1	1	1	1	1	1	1	1	0	1	-28,611698	275,492024	297,990555	0
15.01.2021	12:52:37	0	87,269139	3,409595	0,89175	358,4304	1,057	87,418	0	1015,5	8,1	9,7	9,6	1	1	1	1	1	1	1	1	1	0	1	-27,484144	275,381685	298,595185	0
15.01.2021	12:52:38	0	87,503111	4,31882	0,92775	356,202	1,058	87,406	0	1015,42	8,1	9,8	9,6	1	1	1	1	1	1	1	1	1	0	1	-29,386892	275,519305	297,344752	0
15.01.2021	12:52:39	0	87,385804	2,954982	0,981	357,6024	1,055	87,419	0	1015,42	8,2	9,8	9,6	1	1	1	1	1	1	1	1	1	0	1	-28,047921	275,394446	298,091853	0
15.01.2021	12:52:40	0	87,737683	3,068636	1,0455	357,624	1,062	87,434	0	1015,4	8,1	9,8	9,6	1	1	1	1	1	1	1	1	1	0	1	-28,823115	275,443973	297,551338	0
15.01.2021	12:52:41	0	87,737673	3,977861	1,11	357,5988	1,058	87,427	0	1015,36	8,1	9,8	9,6	1	1	1	1	1	1	1	1	1	0	1	-30,796335	275,533764	296,003899	0
15.01.2021	12:52:42	0	87,737663	3,182289	1,0605	357,6996	1,058	87,433	0	1015,3	8,2	9,8	9,6	1	1	1	1	1	1	1	1	1	0	1	-24,453841	275,496835	302,17123	0
15.01.2021	12:52:43	0	87,737653	4,432475	1,05675	352,8072	1,066	87,439	0	1015,52	8,2	9,8	9,6	1	1	1	1	1	1	1	1	1	0	1	-24,876674	275,360966	301,104535	0
15.01.2021	12:52:44	0	87,620961	2,954983	1,02525	354,5028	1,067	87,433	0	1015,42	8,1	9,7	9,6	1	1	1	1	1	1	1	1	1	0	1	-28,611698	275,479199	297,929741	0
15.01.2021	12:52:45	0	87,737633	2,500371	1,03875	356,85	1,068	87,44	0	1015,42	8,1	9,8	9,6	1	1	1	1	1	1	1	1	1	0	1	-32,276251	275,384874	293,818185	0
15.01.2021	12:52:46	0	87,855535	3,977863	1,10025	356,5692	1,062	87,424	0	1015,36	8,1	9,7	9,6	1	1	1	1	1	1	1	1	1	0	1	-27,554616	275,538586	299,268496	0
15.01.2021	12:52:47	0	87,620317	3,295943	1,10775	1,9008	1,065	87,442	0	1015,58	8,1	9,8	9,6	1	1	1	1	1	1	1	1	1	0	1	-24,242424	275,376902	301,814251	0
15.01.2021	12:52:48	0	87,50301	2,727677	1,101	3,0132	1,061	87,437	0	1015,38	8,1	9,8	9,6	1	1	1	1	1	1	1	1	1	0	1	-26,356589	275,4152	299,88151	0
15.01.2021	12:52:49	0	87,855505	3,636903	1,11825	359,028	1,068	87,435	0	1015,42	8,1	9,7	9,6	1	1	1	1	1	1	1	1	1	0	1	-28,893587	275,394446	297,246187	0
15.01.2021	12:52:50	0	87,855494	3,182291	1,08975	356,4972	1,071	87,435	0	1015,48	8,1	9,7	9,6	1	1	1	1	1	1	1	1	1	0	1	-28,611698	275,512883	298,089481	0
15.01.2021	12:52:51	0	88,207375	4,88709	1,065	356,9148	1,072	87,444	0	1015,38	8,1	9,7	9,6	1	1	1	1	1	1	1	1	1	0	1	-30,443975	275,514488	296,26482	0
15.01.2021	12:52:52	0	87,855474	4,432477	1,0425	356,4432	1,064	87,426	0	1015,46	8,1	9,7	9,6	1	1	1	1	1	1	1	1	1	0	1	-29,034531	275,570763	297,941271	0
15.01.2021	12:52:53	0	87,737552	2,500372	1,05225	358,3548	1,068	87,433	0	1015,48	8,1	9,8	9,6	1	1	1	1	1	1	1	1	1	0	1	-29,809725	275,493628	296,800133	0
15.01.2021	12:52:54	0	88,206727	4,205171	1,03125	355,302	1,068	87,434	0	1015,34	8,1	9,8	9,6	1	1	1	1	1	1	1	1	1	0	1	-29,31642	275,548234	297,552467	0
15.01.2021	12:52:55	0	87,620236	3,068638	1,01325	359,82	1,068	87,442	0	1015,38	8,1	9,8	9,6	1	1	1	1	1	1	1	1	1	0	1	-26,568006	275,394446	299,571768	0
15.01.2021	12:52:56	0	88,206706	4,205171	0,99375	2,6352	1,069	87,44	0	1015,44	8,1	9,8	9,6	1	1	1	1	1	1	1	1	1	0	1	-25,299507	275,528943	301,477858	0
15.01.2021	12:52:57	0	88,441288	4,773438	0,99825	356,9256	1,063	87,442	0	1015,38	8,1	9,8	9,6	1	1	1	1	1	1	1	1	1	0	1	-23,678647	275,389659	302,438454	0
15.01.2021	12:52:58	0	88,090007	4,432478	1,017	354,9816	1,076	87,445	0	1015,38	8,1	9,7	9,6	1	1	1	1	1	1	1	1	1	0	1	-26,215645	275,522518	300,531236	0
15.01.2021	12:52:59	0	87,854787	2,500373	1,05375	356,6124	1,069	87,461	0	1015,44	8,1	9,8	9,6	1	1	1	1	1	1	1	1	1	0	1	-31,289641	275,583649	295,747324	0
15.01.2021	12:53:00	0	87,972063	4,318826	1,0605	8,2476	1,074	87,447	0	1015,38	8,1	9,8	9,6	1	1	1	1	1	1	1	1	1	0	1	-24,312896	275,464781	302,160186	0
15.01.2021	12:53:01	0	87,972063	4,318826	1,0605	8,2476	1,074	87,447	0	1015,38	8,1	9,8	9,6	1	1	1	1	1	1	1	1	1	0	1	-27,413672	275,580427	299,607998	0
15.01.2021	12:53:02	0	88,32394	4,091519	0,99825	3,3984	1,072	87,456	0	1015,5	8,1	9,8	9,6	1	1	1	1	1	1	1	1	1	0	1	-25,863284	275,495231	300,75418	0
15.01.2021	12:53:03	0	88,32393	3,4096	0,94725	356,5296	1,073	87,443	0	1015,44	8,1	9,8	9,6	1	1	1	1	1	1	1	1	1	0	1	-28,682171	275,404022	297,502968	0
15.01.2021	12:53:04	0	87,854736	5,000747	0,94575	7,8912	1,071	87,458	0	1015,52	8,1	9,8	9,6	1	1	1	1	1	1	1	1	1	0	1	-25,017618	275,453574	301,40234	0
15.01.2021	12:53:05	0	88,089317	3,636907	0,94725	5,6736	1,075	87,46	0	1015,5	8,1	9,8	9,6	1	1	1	1	1	1	1	1	1	0	1	-22,973925	275,565933	303,978954	0
15.01.2021	12:53:06	0	88,441195	3,06864	0,93225	348,7428	1,073	87,457	0	1015,58	8,1	9,8	9,6	1	1	1	1	1	1	1	1	1	0	1	-26,004228	275,522518	300,742653	0
15.01.2021	12:53:07	0	88,323888	4,887094	0,96975	347,364	1,073	87,461	0	1015,38	8,1	9,8	9,6	1	1	1	1	1	1	1	1	1	0	1	-30,443975	275,533764	296,35626	0
15.01.2021	12:53:08	0	88,089286	2,159414	0,9885	355,104	1,078	87,444	0	1015,38	8,1	9,8	9,6	1	1	1	1	1	1	1	1	1	0	1	-26,568006	275,570763	300,407797	0
15.01.2021	12:53:09	0	88,206572	2,500374	1,02375	356,4864	1,078	87,467	0	1015,42	8,1	9,8	9,6	1	1	1	1	1	1	1	1	1	0	1	-29,105004	275,500044	297,535283	0
15.01.2021	12:53:10	0	88,206561	2,386721	1,086	355,8924	1,078	87,465	0	1015,28	8,1	9,8	9,6	1	1	1	1	1	1	1	1	1	0	1	-25,792812	275,396041	300,354521	0
15.01.2021	12:53:11	0	88,206551	2,727681	1,12725	360	1,078	87,475	0	1015,5	8,1	9,8	9,6	1	1	1	1	1	1	1	1	1	0	1	-22,198732	275,512883	304,502448	0
15.01.2021	12:53:12	0	88,558428	2,727681	1,149	357,9696	1,076	87,464	0	1015,3	8,1	9,8	9,6	1	1	1	1	1	1	1	1	1	0	1	-24,594785	275,391255	301,529873	0
15.01.2021	12:53:13	0	88,323825	3,182295	1,18725	2,7072	1,079	87,467	0	1015,52	8,1	9,8	9,6	1	1	1	1	1	1	1	1	1	0	1	-27,202255	275,427983	299,096415	0
15.01.2021	12:53:14	0	88,558407	5,228056	1,206	5,6736	1,08	87,467	0	1015,54	8,1	9,8	9,6	1	1	1	1	1	1	1	1	1	0	1	-30,162086	275,569153	296,806075	0
15.01.2021	12:53:15	0	88,206508	3,295949	1,2015	3,3912	1,077	87,472	0	1015,4	8,1	9,8	9,6	1	1	1	1	1	1	1	1	1	0	1	-27,343199	275,53055	299,441788	0
15.01.2021	12:53:16	0	88,324413	4,546136	1,155	2,6352	1,083	87,485	0	1015,6	8,1	9,7	9,6	1	1	1	1	1	1	1	1	1	0	1	-25,158562	275,60622	301,985555	0
15.01.2021	12:53:17	0	88,558375	4,432483	1,16625	351,3204	1,08	87,467	0	1015,62	8,1	9,8	9,6	1	1	1	1	1	1	1	1	1	0	1	-27,977449	275,442374	298,389422	0
15.01.2021	12:53:18	0	88,676281	4,31883	1,206	359,8992	1,081	87,472	0	1015,36	8,2	9,7	9,6	1	1	1	1	1	1	1	1	1	0	1	-27,413672	275,538586	299,40944	0
15.01.2021	12:53:19	0	88,441677	4,205177	1,21275	1,5516	1,074	87,469	0	1015,5	8,1	9,7	9,6	1	1	1	1	1	1	1	1	1	0	1	-27,272727	275,559495	299,649599	0
15.01.2021	12:53:20	0	88,323751	3,068643	1,27425	356,6052	1,076	87,466	0	1015,38	8,1	9,8	9,6	1	1	1	1	1	1	1	1	1	0	1	-24,735729	275,514488	301,973065	0
15.01.2021	12:53:21	0	88,558953	2,500376	1,25025	0,99	1,08	87,466	0	1015,44	8,2	9,7	9,6	1	1	1	1	1	1	1	1	1	0	1	-24,876674	275,586872	302,175589	0
15.01.2021	12:53:22	0	88,558322	3,523257	1,272	3,7584	1,083	87,468	0	1015,54	8,1	9,8	9,6	1	1	1	1	1	1	1	1	1	0	1	-28,611698	275,516094	298,104712	0
15.01.2021	12:53:23	0	88,558311	3,29595	1,26225	356,9976	1,079	87,469	0	1015,36	8,1	9,8	9,6	1	1	1	1	1	1	1	1	1	0	1	-24,10148	275,598156	303,004351	0
15.01.2021	12:53:24	0	88,558921	4,546138	1,251	0,8784	1,083	87,47	0	1015,48	8,2	9,7	9,6	1	1	1	1	1	1	1	1	1	0	1	-25,792812	275,514488	300,915983	0
15.01.2021	12:53:25	0	88,323698	2,159416	1,27725	0,8604	1,08	87,449	0	1015,38	8,2	9,8	9,6	1	1	1	1	1	1	1	1	1	0	1	-22,551092	275,419992	303,709715	0
15.01.2021	12:53:26	0	88,793492	4,091525	1,23975	0,8568	1,081	87,451	0	1015,38	8,1	9,7	9,6	1	1	1	1	1	1	1	1	1	0	1	-24,10148	275,405618	302,091222	0
15.01.2021	12:53:27	0	88,323677	2,61403	1,24725	2,304	1,088	87,468	0	1015,4	8,2	9,8	9,6	1	1	1	1	1	1	1	1	1	0	1	-29,880197	275,582038	297,149119	0
15.01.2021	12:53:28	0	89,02744	4,54614	1,2375	358,776	1,085	87,459	0	1015,44	8,1	9,8	9,6	1	1	1	1	1	1	1	1	1	0	1	-25,581395	275,477596	300,952446	0
15.01.2021	12:53:29	0	88,79346	4,091526	1,1925	359,1864	1,088	87,47	0	1015,48	8,1	9,7	9,6	1	1	1	1	1	1	1	1	1	0	1	-27,484144	275,594931	299,606378	0
15.01.2021	12:53:30	0	88,793449	3,182298	1,20375	358,4196	1,086	87,454	0	1015,48	8,2	9,7	9,6	1	1	1	1	1	1	1	1	1	0	1	-26,0747	275,506462	300,596027	0
15.01.2021	12:53:31	0	88,558225	5,000754	1,2255	354,3336	1,089	87,469	0	1015,5	8,1	9,8	9,6	1	1	1	1	1	1	1	1	1	0	1	-28,682171	275,410408	297,533227	0
15.01.2021	12:53:32	0	88,440918	2,954991	1,26975	349,074	1,084	87,475	0	1015,48	8,1	9,8	9,6	1	1	1	1	1	1	1	1	1	0	1	-26,427061	275,426384	299,864035	0
15.01.2021	12:53:33	0	88,67612	5,114408	1,25775	341,6112	1,082	87,457	0	1015,34	8,1	9,7	9,6	1	1	1	1	1	1	1	1	1	0	1	-25,863284	275,469585	300,632577	0
15.01.2021	12:53:34	0	89,027998	4,659795	1,221	340,218	1,083	87,485	0	1015,52	8,1	9,7	9,6	1	1	1	1	1	1	1	1	1	0	1	-29,386892	275,588483	297,673021	0
15.01.2021	12:53:35	0	89,027364	4,546141	1,1865	337,3092	1,083	87,463	0	1015,4	8,1	9,8	9,6	1	1	1	1	1	1	1	1	1	0	1	-27,977449	275,49042	298,6172	0
15.01.2021	12:53:36	0	88,676087	2,954992	1,15725	333,5112	1,083	87,465	0	1015,3	8,1	9,7	9,6	1	1	1	1	1	1	1	1	1	0	1	-29,245948	275,424786	297,037575	0
15.01.2021	12:53:37	0	88,55816	2,727685	1,1475	336,4452	1,086	87,484	0	1015,4	8,2	9,8	9,6	1	1	1	1	1	1	1	1	1	0	1	-26,356589	275,4152	299,88151	0
15.01.2021	12:53:38	0	88,910035	3,977874	1,119	339,4512	1,09	87,479	0	1015,28	8,1	9,8	9,6	1	1	1	1	1	1	1	1	1	0	1	-23,608175	275,520911	303,131088	0
15.01.2021	12:53:39	0	88,910024	3,068646	1,12425	356,562	1,091	87,481	0	1015,5	8,2	9,8	9,6	1	1	1	1	1	1	1	1	1	0	1	-29,950669	275,418395	296,302568	0
15.01.2021	12:53:40	0	88,441451	2,727686	1,09425	0	1,087	87,476	0	1015,44	8,2	9,7	9,6	1	1	1	1	1	1	1	1	1	0	1	-29,31642	275,562714	297,621181	0
15.01.2021	12:53:41	0	88,792707	2,614032	1,06725	347,6556	1,09	87,462	0	1015,46	8,2	9,8	9,6	1	1	1	1	1	1	1	1	1	0	1	-23,608175	275,451973	302,804197	0
15.01.2021	12:53:42	0	88,910614	2,727686	1,12875	349,128	1,09	87,485	0	1015,44	8,2	9,7	9,6	1	1	1	1	1	1	1	1	1	0	1	-26,638478	275,602994	300,490322	0
15.01.2021	12:53:43	0	88,90998	3,068647	1,15125	343,5588	1,092	87,469	0	1015,44	8,2	9,8	9,6	1	1	1	1	1	1	1	1	1	0	1	-28,893587	275,496835	297,731484	0
15.01.2021	12:53:44	0	89,14456	4,773451	1,16625	343,5408	1,084	87,487	0	1015,48	8,2	9,8	9,6	1	1	1	1	1	1	1	1	1	0	1	-22,269204	275,423188	304,006747	0
15.01.2021	12:53:45	0	89,027877	3,750569	1,29525	332,0856	1,087	87,487	0	1015,42	8,1	9,7	9,6	1	1	1	1	1	1	1	1	1	0	1	-29,527837	275,586872	297,524426	0
15.01.2021	12:53:46	0	89,027243	4,773452	1,41825	342,3528	1,096	87,486	0	1015,54	8,2	9,8	9,6	1	1	1	1	1	1	1	1	1	0	1	-24,876674	275,602994	302,252126	0
15.01.2021	12:53:47	0	88,909936	5,455374	1,53	344,6676	1,09	87,473	0	1015,42	8,1	9,8	9,6	1	1	1	1	1	1	1	1	1	0	1	-24,242424	275,52573	302,519697	0
15.01.2021	12:53:48	0	88,793251	3,523262	1,52175	349,8552	1,093	87,48	0	1015,34	8,1	9,7	9,6	1	1	1	1	1	1	1	1	1	0	1	-24,665257	275,443973	301,709195	0
15.01.2021	12:53:49	0	88,675323	4,546145	1,59825	358,326	1,09	87,477	0	1015,32	8,1	9,8	9,6	1	1	1	1	1	1	1	1	1	0	1	-26,920366	275,602994	300,208434	0
15.01.2021	12:53:50	0	89,145118	3,182302	1,63275	355,4532	1,096	87,485	0	1015,34	8,2	9,7	9,6	1	1	1	1	1	1	1	1	1	0	1	-28,893587	275,548234	297,9753	0
15.01.2021	12:53:51	0	88,675922	4,205185	1,6755	0,4752	1,097	87,483	0	1015,48	8,2	9,7	9,6	1	1	1	1	1	1	1	1	1	0	1	-25,08809	275,598156	302,017741	0
15.01.2021	12:53:52	0	88,441318	2,841341	1,71825	0,1152	1,098	87,466	0	1015,42	8,2	9,7	9,6	1	1	1	1	1	1	1	1	1	0	1	-25,229035	275,463179	301,236456	0
15.01.2021	12:53:53	0	88,675278	4,318839	1,716	13,9104	1,1	87,487	0	1015,48	8,2	9,8	9,6	1	1	1	1	1	1	1	1	1	0	1	-28,823115	275,601381	298,298028	0
15.01.2021	12:53:54	0	88,675888	4,432493	1,67925	3,7764	1,101	87,476	0	1015,5	8,2	9,7	9,6	1	1	1	1	1	1	1	1	1	0	1	-24,453841	275,447173	301,935777	0
15.01.2021	12:53:55	0	89,027766	2,727688	1,66725	350,6292	1,091	87,475	0	1015,38	8,2	9,7	9,6	1	1	1	1	1	1	1	1	1	0	1	-25,158562	275,559495	301,763764	0
15.01.2021	12:53:56	0	88,909836	4,659801	1,62975	348,3108	1,091	87,471	0	1015,54	8,1	9,8	9,6	1	1	1	1	1	1	1	1	1	0	1	-20,648344	275,432778	305,673053	0
15.01.2021	12:53:57	0	88,910447	3,06865	1,57875	357,6276	1,101	87,454	0	1015,44	8,1	9,7	9,6	1	1	1	1	1	1	1	1	1	0	1	-23,960536	275,469585	302,535326	0
15.01.2021	12:53:58	0	88,675844	2,954996	1,5165	358,0812	1,095	87,45	0	1015,4	8,2	9,7	9,6	1	1	1	1	1	1	1	1	1	0	1	-26,0747	275,586872	300,977562	0
15.01.2021	12:53:59	0	89,027721	3,295957	1,4895	9,7272	1,088	87,429	0	1015,38	8,2	9,7	9,6	1	1	1	1	1	1	1	1	1	0	1	-27,343199	275,545017	299,510426	0
15.01.2021	12:54:00	0	88,67581	3,295958	1,5525	354,042	1,1	87,429	0	1015,44	8,2	9,7	9,6	1	1	1	1	1	1	1	1	1	0	1	-26,497533	275,426384	299,793563	0
15.01.2021	12:54:01	0	88,67581	3,295958	1,5525	354,042	1,1	87,429	0	1015,44	8,2	9,7	9,6	1	1	1	1	1	1	1	1	1	0	1	-26,497533	275,426384	299,793563	0
15.01.2021	12:54:02	0	88,910391	3,97788	1,6395	4,0896	1,096	87,426	0	1015,4	8,2	9,7	9,6	1	1	1	1	1	1	1	1	1	0	1	-27,202255	275,447173	299,187363	0
15.01.2021	12:54:03	0	88,557871	3,182304	1,70625	2,2752	1,092	87,423	0	1015,36	8,2	9,8	9,6	1	1	1	1	1	1	1	1	1	0	1	-24,665257	275,594931	302,425265	0
15.01.2021	12:54:04	0	88,323888	2,954997	1,74075	360	1,098	87,418	0	1015,34	8,2	9,7	9,6	1	1	1	1	1	1	1	1	1	0	1	-26,779422	275,622357	300,441324	0
15.01.2021	12:54:05	0	89,144324	4,318842	1,76175	352,5516	1,101	87,418	0	1015,34	8,2	9,8	9,6	1	1	1	1	1	1	1	1	1	0	1	-24,524313	275,4152	301,713786	0
15.01.2021	12:54:06	0	89,027641	4,091535	1,78425	347,6196	1,099	87,422	0	1015,28	8,2	9,7	9,6	1	1	1	1	1	1	1	1	1	0	1	-26,0747	275,42159	300,193678	0
15.01.2021	12:54:07	0	88,558446	3,523266	1,6935	347,6736	1,096	87,407	0	1015,38	8,2	9,7	9,6	1	1	1	1	1	1	1	1	1	0	1	-23,185342	275,567543	303,775178	0
15.01.2021	12:54:08	0	88,910322	2,841344	1,566	341,6472	1,1	87,396	0	1015,44	8,2	9,7	9,6	1	1	1	1	1	1	1	1	1	0	1	-27,554616	275,451973	298,857756	0
15.01.2021	12:54:09	0	88,675719	4,091536	1,446	346,5468	1,094	87,379	0	1015,5	8,2	9,7	9,6	1	1	1	1	1	1	1	1	1	0	1	-23,890063	275,480801	302,658975	0
15.01.2021	12:54:10	0	88,793004	3,636943	1,4385	340,2144	1,096	87,394	0	1015,42	8,2	9,7	9,5	1	1	1	1	1	1	1	1	1	0	1	-25,651868	275,591707	301,423349	0
15.01.2021	12:54:11	0	88,792992	2,727691	1,3875	346,1076	1,097	87,369	0	1015,48	8,2	9,7	9,6	1	1	1	1	1	1	1	1	1	0	1	-21,705426	275,5177	305,018601	0
15.01.2021	12:54:12	0	89,027573	3,182306	1,3815	345,8052	1,098	87,367	0	1015,38	8,2	9,7	9,6	1	1	1	1	1	1	1	1	1	0	1	-26,0747	275,424786	300,208823	0
15.01.2021	12:54:13	0	88,675673	3,523268	1,44975	342,2808	1,095	87,364	0	1015,34	8,2	9,7	9,6	1	1	1	1	1	1	1	1	1	0	1	-25,08809	275,442374	301,278781	0
15.01.2021	12:54:14	0	88,675041	2,954999	1,43025	354,708	1,098	87,344	0	1015,38	8,2	9,8	9,6	1	1	1	1	1	1	1	1	1	0	1	-23,396758	275,601381	303,724385	0
15.01.2021	12:54:15	0	88,675651	4,091537	1,3065	352,0944	1,096	87,351	0	1015,42	8,2	9,7	9,6	1	1	1	1	1	1	1	1	1	0	1	-29,386892	275,591707	297,688324	0
15.01.2021	12:54:16	0	89,262118	5,34173	1,26675	357,6096	1,096	87,338	0	1015,34	8,2	9,7	9,6	1	1	1	1	1	1	1	1	1	0	1	-27,766032	275,549842	299,110486	0
15.01.2021	12:54:17	0	88,792923	3,977884	1,3425	1,5336	1,096	87,34	0	1015,46	8,1	9,7	9,6	1	1	1	1	1	1	1	1	1	0	1	-28,047921	275,604606	299,088537	0
15.01.2021	12:54:18	0	88,441024	2,841346	1,41975	348,3396	1,094	87,294	0	1015,38	8,2	9,7	9,6	1	1	1	1	1	1	1	1	1	0	1	-24,10148	275,577205	302,904898	0
15.01.2021	12:54:19	0	89,027492	2,727692	1,41825	358,038	1,096	87,295	0	1015,26	8,2	9,7	9,6	1	1	1	1	1	1	1	1	1	0	1	-25,299507	275,472789	301,211544	0
15.01.2021	12:54:20	0	88,792889	2,614039	1,45125	356,2776	1,102	87,295	0	1015,4	8,1	9,7	9,6	1	1	1	1	1	1	1	1	1	0	1	-23,819591	275,42159	302,448787	0
15.01.2021	12:54:21	0	89,027469	3,864231	1,5495	350,64	1,1	87,285	0	1015,38	8,2	9,7	9,6	1	1	1	1	1	1	1	1	1	0	1	-28,188865	275,435976	298,147687	0
15.01.2021	12:54:22	0	88,558274	4,205193	1,641	15,39	1,093	87,291	0	1015,42	8,1	9,7	9,6	1	1	1	1	1	1	1	1	1	0	1	-27,836505	275,594931	299,254017	0
15.01.2021	12:54:23	0	88,440967	2,727693	1,65975	0,8568	1,098	87,285	0	1015,4	8,2	9,7	9,6	1	1	1	1	1	1	1	1	1	0	1	-26,215645	275,49844	300,417034	0
15.01.2021	12:54:24	0	88,558251	2,614039	1,617	9,738	1,097	87,279	0	1015,66	8,2	9,7	9,6	1	1	1	1	1	1	1	1	1	0	1	-30,93728	275,43118	295,376541	0
15.01.2021	12:54:25	0	88,558239	2,955001	1,5645	356,4756	1,105	87,285	0	1015,36	8,2	9,7	9,6	1	1	1	1	1	1	1	1	1	0	1	-25,08809	275,488817	301,498955	0
15.01.2021	12:54:26	0	89,02741	4,432502	1,56	356,9904	1,102	87,283	0	1015,44	8,2	9,7	9,6	1	1	1	1	1	1	1	1	1	0	1	-30,021142	275,601381	297,100001	0
15.01.2021	12:54:27	0	88,910103	3,068655	1,53	354,1608	1,1	87,28	0	1015,56	8,2	9,7	9,6	1	1	1	1	1	1	1	1	1	0	1	-24,031008	275,532157	302,761603	0
15.01.2021	12:54:28	0	89,026763	4,773464	1,50825	358,7364	1,089	87,275	0	1015,32	8,2	9,8	9,6	1	1	1	1	1	1	1	1	1	0	1	-28,400282	275,564323	298,544958	0
15.01.2021	12:54:29	0	88,792784	5,000772	1,5465	355,8456	1,098	87,276	0	1015,42	8,2	9,7	9,6	1	1	1	1	1	1	1	1	1	0	1	-22,692037	275,58526	304,352577	0
15.01.2021	12:54:30	0	88,675477	5,22808	1,64025	357,9876	1,096	87,265	0	1015,28	8,2	9,7	9,6	1	1	1	1	1	1	1	1	1	0	1	-24,453841	275,556277	302,453213	0
15.01.2021	12:54:31	0	89,027352	2,727694	1,683	1,1484	1,1	87,249	0	1015,3	8,1	9,7	9,6	1	1	1	1	1	1	1	1	1	0	1	-25,229035	275,445573	301,153	0
15.01.2021	12:54:32	0	88,440862	3,068656	1,74525	343,9224	1,093	87,266	0	1015,18	8,2	9,7	9,6	1	1	1	1	1	1	1	1	1	0	1	-27,554616	275,416797	298,691052	0
15.01.2021	12:54:33	0	88,910033	3,18231	1,77075	340,938	1,1	87,263	0	1015,4	8,2	9,7	9,6	1	1	1	1	1	1	1	1	1	0	1	-29,598309	275,508067	297,08003	0
15.01.2021	12:54:34	0	88,67543	2,955003	1,8345	338,4576	1,099	87,272	0	1015,48	8,2	9,7	9,6	1	1	1	1	1	1	1	1	1	0	1	-24,031008	275,418395	302,22223	0
15.01.2021	12:54:35	0	88,909386	3,068657	1,87725	343,6596	1,099	87,274	0	1015,48	8,2	9,8	9,6	1	1	1	1	1	1	1	1	1	0	1	-25,510923	275,524124	301,243578	0
15.01.2021	12:54:36	0	88,558111	4,432505	1,866	346,1652	1,098	87,271	0	1015,46	8,2	9,7	9,6	1	1	1	1	1	1	1	1	1	0	1	-26,779422	275,591707	300,295794	0
15.01.2021	12:54:37	0	88,792068	4,659813	1,89225	352,0008	1,098	87,27	0	1015,54	8,2	9,8	9,6	1	1	1	1	1	1	1	1	1	0	1	-28,32981	275,442374	298,037061	0
15.01.2021	12:54:38	0	88,440792	2,955003	1,95675	349,5132	1,097	87,259	0	1015,36	8,2	9,7	9,6	1	1	1	1	1	1	1	1	1	0	1	-31,782946	275,593319	295,299923	0
15.01.2021	12:54:39	0	88,792666	4,091544	1,9395	351,0468	1,094	87,268	0	1015,5	8,2	9,7	9,6	1	1	1	1	1	1	1	1	1	0	1	-28,470754	275,469585	298,025107	0
15.01.2021	12:54:40	0	88,440768	3,182312	1,92	352,9224	1,096	87,269	0	1015,42	8,2	9,7	9,6	1	1	1	1	1	1	1	1	1	0	1	-24,383369	275,543409	302,462627	0
15.01.2021	12:54:41	0	88,440756	2,727696	1,9725	351,2916	1,091	87,254	0	1015,42	8,2	9,7	9,6	1	1	1	1	1	1	1	1	1	0	1	-26,0747	275,427983	300,22397	0
15.01.2021	12:54:42	0	88,675335	3,636928	1,956	357,6672	1,1	87,284	0	1015,4	8,2	9,7	9,6	1	1	1	1	1	1	1	1	1	0	1	-23,608175	275,477596	302,925667	0
15.01.2021	12:54:43	0	88,206142	2,727696	1,97175	353,1852	1,096	87,265	0	1015,34	8,2	9,7	9,6	1	1	1	1	1	1	1	1	1	0	1	-24,594785	275,424786	301,688738	0
15.01.2021	12:54:44	0	88,558016	4,091545	2,019	351,3996	1,096	87,274	0	1015,4	8,2	9,7	9,6	1	1	1	1	1	1	1	1	1	0	1	-25,510923	275,53055	301,274064	0
15.01.2021	12:54:45	0	89,143856	4,773469	2,03175	345,4488	1,091	87,289	0	1015,42	8,2	9,8	9,6	1	1	1	1	1	1	1	1	1	0	1	-29,668781	275,588483	297,391132	0
15.01.2021	12:54:46	0	88,440697	4,091545	1,96575	352,206	1,097	87,268	0	1015,44	8,2	9,7	9,6	1	1	1	1	1	1	1	1	1	0	1	-23,890063	275,434377	302,438911	0
15.01.2021	12:54:47	0	88,791949	4,432508	1,93575	345,3552	1,091	87,272	0	1015,22	8,2	9,8	9,6	1	1	1	1	1	1	1	1	1	0	1	-27,554616	275,540194	299,276123	0
15.01.2021	12:54:48	0	88,675264	4,546162	1,962	349,4592	1,094	87,272	0	1015,42	8,2	9,7	9,6	1	1	1	1	1	1	1	1	1	0	1	-28,611698	275,424786	297,671825	0
15.01.2021	12:54:49	0	88,792547	2,727681	1,9875	345,1968	1,097	87,264	0	1015,36	8,2	9,7	9,7	1	1	1	1	1	1	1	1	1	0	1	-25,72234	275,519305	301,009305	0
15.01.2021	12:54:50	0	88,67524	4,432509	2,00925	345,4092	1,1	87,261	0	1015,4	8,2	9,7	9,6	1	1	1	1	1	1	1	1	1	0	1	-27,272727	275,599768	299,840759	0
15.01.2021	12:54:51	0	88,792523	4,432509	1,98225	344,6892	1,097	87,268	0	1015,48	8,2	9,7	9,6	1	1	1	1	1	1	1	1	1	0	1	-27,554616	275,48561	299,017225	0
15.01.2021	12:54:52	0	88,909806	2,955024	1,9125	345,33	1,102	87,263	0	1015,34	8,2	9,7	9,5	1	1	1	1	1	1	1	1	1	0	1	-21,212121	275,573984	305,778967	0
15.01.2021	12:54:53	0	88,206023	2,841352	1,90875	344,8332	1,102	87,262	0	1015,48	8,2	9,7	9,6	1	1	1	1	1	1	1	1	1	0	1	-25,72234	275,435976	300,614212	0
15.01.2021	12:54:54	0	88,206011	3,409623	1,82025	344,6892	1,1	87,268	0	1015,3	8,2	9,7	9,6	1	1	1	1	1	1	1	1	1	0	1	-25,440451	275,456775	300,994682	0
15.01.2021	12:54:55	0	88,675179	3,409644	1,8405	344,7144	1,09	87,256	0	1015,3	8,2	9,7	9,5	1	1	1	1	1	1	1	1	1	0	1	-25,651868	275,590095	301,415697	0
15.01.2021	12:54:56	0	88,909758	3,63691	1,8135	342,3996	1,091	87,252	0	1015,46	8,2	9,7	9,7	1	1	1	1	1	1	1	1	1	0	1	-26,215645	275,561104	300,714318	0
15.01.2021	12:54:57	0	89,027041	4,546165	1,84725	342,7524	1,1	87,27	0	1015,34	8,2	9,7	9,6	1	1	1	1	1	1	1	1	1	0	1	-27,343199	275,442374	299,023671	0
15.01.2021	12:54:58	0	88,675143	2,955007	1,8465	353,1672	1,097	87,259	0	1015,34	8,2	9,7	9,6	1	1	1	1	1	1	1	1	1	0	1	-23,326286	275,442374	303,040585	0
15.01.2021	12:54:59	0	88,909721	4,65982	1,875	345,3768	1,098	87,274	0	1015,26	8,2	9,7	9,6	1	1	1	1	1	1	1	1	1	0	1	-27,202255	275,591707	299,872961	0
15.01.2021	12:55:00	0	88,792402	4,432538	1,73475	350,3052	1,106	87,271	0	1015,38	8,2	9,7	9,5	1	1	1	1	1	1	1	1	1	0	1	-26,004228	275,492024	300,598025	0
15.01.2021	12:55:01	0	88,792402	4,432538	1,73475	350,3052	1,106	87,271	0	1015,38	8,2	9,7	9,5	1	1	1	1	1	1	1	1	1	0	1	-26,497533	275,578816	300,51649	0
15.01.2021	12:55:02	0	88,909685	4,659821	1,6545	345,4596	1,098	87,275	0	1015,34	8,2	9,7	9,6	1	1	1	1	1	1	1	1	1	0	1	-24,453841	275,439175	301,897869	0
15.01.2021	12:55:03	0	88,675082	3,523258	1,56225	345,3372	1,098	87,252	0	1015,42	8,2	9,7	9,7	1	1	1	1	1	1	1	1	1	0	1	-25,72234	275,504857	300,940776	0
15.01.2021	12:55:04	0	88,557775	4,091575	1,55175	348,2316	1,104	87,274	0	1015,44	8,2	9,7	9,5	1	1	1	1	1	1	1	1	1	0	1	-25,510923	275,582038	301,518394	0
15.01.2021	12:55:05	0	88,792353	3,864242	1,57725	359,622	1,104	87,257	0	1015,5	8,2	9,7	9,6	1	1	1	1	1	1	1	1	1	0	1	-23,326286	275,61106	303,840812	0
15.01.2021	12:55:06	0	88,557751	4,88713	1,5645	357,2424	1,104	87,264	0	1015,42	8,2	9,7	9,6	1	1	1	1	1	1	1	1	1	0	1	-23,326286	275,561104	303,603677	0
15.01.2021	12:55:07	0	88,323149	2,273084	1,50375	349,4736	1,107	87,278	0	1015,44	8,2	9,7	9,6	1	1	1	1	1	1	1	1	1	0	1	-28,964059	275,439175	297,387651	0
15.01.2021	12:55:08	0	88,440431	3,068664	1,485	351,7668	1,103	87,269	0	1015,4	8,2	9,7	9,6	1	1	1	1	1	1	1	1	1	0	1	-25,440451	275,549842	301,436068	0
15.01.2021	12:55:09	0	88,323124	3,977897	1,44075	344,7252	1,1	87,256	0	1015,3	8,2	9,7	9,6	1	1	1	1	1	1	1	1	1	0	1	-24,171952	275,410408	302,043445	0
15.01.2021	12:55:10	0	88,440407	2,614063	1,38525	350,2476	1,101	87,268	0	1015,44	8,2	9,7	9,5	1	1	1	1	1	1	1	1	1	0	1	-26,849894	275,524124	299,904607	0
15.01.2021	12:55:11	0	88,674985	4,091552	1,359	345,0996	1,104	87,26	0	1015,42	8,2	9,7	9,6	1	1	1	1	1	1	1	1	1	0	1	-28,118393	275,458376	298,324328	0
15.01.2021	12:55:12	0	88,440382	3,636936	1,476	339,4476	1,102	87,246	0	1015,34	8,2	9,7	9,6	1	1	1	1	1	1	1	1	1	0	1	-24,10148	275,439175	302,25023	0
15.01.2021	12:55:13	0	88,674339	4,318861	1,65	355,4568	1,106	87,222	0	1015,42	8,2	9,8	9,6	1	1	1	1	1	1	1	1	1	0	1	-25,792812	275,548234	301,076075	0
15.01.2021	12:55:14	0	88,440358	2,386739	1,63125	344,7576	1,107	87,242	0	1015,34	8,2	9,7	9,6	1	1	1	1	1	1	1	1	1	0	1	-26,497533	275,596543	300,600643	0
15.01.2021	12:55:15	0	88,674935	3,182319	1,6455	340,9128	1,109	87,237	0	1015,34	8,2	9,7	9,6	1	1	1	1	1	1	1	1	1	0	1	-25,440451	275,541801	301,397916	0
15.01.2021	12:55:16	0	88,205743	2,727702	1,578	342,3708	1,105	87,234	0	1015,36	8,2	9,7	9,6	1	1	1	1	1	1	1	1	1	0	1	-21,141649	275,434377	305,187325	0
15.01.2021	12:55:17	0	88,557616	3,523282	1,512	334,6488	1,102	87,222	0	1015,3	8,2	9,7	9,6	1	1	1	1	1	1	1	1	1	0	1	-29,668781	275,472789	296,84227	0
15.01.2021	12:55:18	0	88,440308	3,9779	1,5435	347,5692	1,095	87,217	0	1015,36	8,2	9,7	9,6	1	1	1	1	1	1	1	1	1	0	1	-22,973925	275,60622	304,170192	0
15.01.2021	12:55:19	0	88,439677	4,546172	1,563	359,9532	1,104	87,211	0	1015,36	8,2	9,8	9,6	1	1	1	1	1	1	1	1	1	0	1	-27,413672	275,55145	299,47048	0
15.01.2021	12:55:20	0	88,088399	3,18232	1,58325	354,2256	1,1	87,201	0	1015,38	8,2	9,7	9,6	1	1	1	1	1	1	1	1	1	0	1	-29,950669	275,426384	296,340427	0
15.01.2021	12:55:21	0	88,792156	4,432518	1,644	355,1976	1,102	87,197	0	1015,6	8,2	9,7	9,6	1	1	1	1	1	1	1	1	1	0	1	-28,541226	275,509672	298,144726	0
15.01.2021	12:55:22	0	88,322964	2,614049	1,70925	359,8884	1,103	87,177	0	1015,42	8,2	9,7	9,6	1	1	1	1	1	1	1	1	1	0	1	-22,410148	275,479199	304,131292	0
15.01.2021	12:55:23	0	88,322952	3,636916	1,6545	357,3144	1,11	87,173	0	1015,5	8,2	9,7	9,7	1	1	1	1	1	1	1	1	1	0	1	-25,933756	275,619129	301,271658	0
15.01.2021	12:55:24	0	88,440234	2,72772	1,572	353,106	1,098	87,175	0	1015,46	8,2	9,7	9,5	1	1	1	1	1	1	1	1	1	0	1	-29,175476	275,493628	297,434383	0
15.01.2021	12:55:25	0	88,674811	4,887136	1,52325	357,5952	1,104	87,169	0	1015,46	8,2	9,7	9,6	1	1	1	1	1	1	1	1	1	0	1	-27,484144	275,593319	299,598725	0
15.01.2021	12:55:26	0	88,439589	3,750616	1,52925	358,0164	1,1	87,155	0	1015,18	8,2	9,8	9,5	1	1	1	1	1	1	1	1	1	0	1	-23,749119	275,599768	303,364367	0
15.01.2021	12:55:27	0	88,440196	4,432493	1,52625	357,3216	1,103	87,156	0	1015,44	8,2	9,7	9,7	1	1	1	1	1	1	1	1	1	0	1	-25,08809	275,540194	301,742649	0
15.01.2021	12:55:28	0	88,322889	4,091557	1,5285	352,8792	1,101	87,149	0	1015,4	8,2	9,7	9,6	1	1	1	1	1	1	1	1	1	0	1	-27,413672	275,602994	299,715129	0
15.01.2021	12:55:29	0	88,322877	3,636962	1,50825	0,4788	1,107	87,154	0	1015,38	8,2	9,7	9,5	1	1	1	1	1	1	1	1	1	0	1	-27,202255	275,469585	299,293606	0
15.01.2021	12:55:30	0	88,20557	3,068687	1,49625	354,6252	1,102	87,143	0	1015,46	8,2	9,7	9,5	1	1	1	1	1	1	1	1	1	0	1	-26,920366	275,591707	300,15485	0
15.01.2021	12:55:31	0	88,440146	3,864249	1,4565	358,3728	1,098	87,139	0	1015,3	8,2	9,7	9,6	1	1	1	1	1	1	1	1	1	0	1	-26,568006	275,482404	299,988633	0
15.01.2021	12:55:32	0	87,970955	3,63694	1,49475	352,494	1,108	87,177	0	1015,5	8,2	9,7	9,6	1	1	1	1	1	1	1	1	1	0	1	-22,762509	275,427983	303,536162	0
15.01.2021	12:55:33	0	88,322208	3,295978	1,49325	352,7316	1,103	87,149	0	1015,34	8,2	9,8	9,6	1	1	1	1	1	1	1	1	1	0	1	-24,665257	275,484007	301,898982	0
15.01.2021	12:55:34	0	88,088225	2,500397	1,50375	355,3956	1,099	87,155	0	1015,38	8,2	9,7	9,6	1	1	1	1	1	1	1	1	1	0	1	-27,554616	275,602994	299,574184	0
15.01.2021	12:55:35	0	88,322801	3,750596	1,4925	357,9696	1,109	87,161	0	1015,34	8,2	9,7	9,6	1	1	1	1	1	1	1	1	1	0	1	-26,849894	275,556277	300,05716	0
15.01.2021	12:55:36	0	88,322789	2,955015	1,46775	358,7544	1,099	87,152	0	1015,34	8,2	9,7	9,6	1	1	1	1	1	1	1	1	1	0	1	-24,735729	275,459977	301,714581	0
15.01.2021	12:55:37	0	88,088187	2,727723	1,3995	352,0404	1,107	87,159	0	1015,42	8,2	9,7	9,5	1	1	1	1	1	1	1	1	1	0	1	-24,876674	275,593319	302,206195	0
15.01.2021	12:55:38	0	88,557353	4,659832	1,404	353,1924	1,106	87,154	0	1015,18	8,2	9,7	9,6	1	1	1	1	1	1	1	1	1	0	1	-25,651868	275,519305	301,079777	0
15.01.2021	12:55:39	0	88,55734	4,205214	1,38375	348,768	1,11	87,16	0	1015,44	8,2	9,7	9,6	1	1	1	1	1	1	1	1	1	0	1	-25,581395	275,588483	301,478518	0
15.01.2021	12:55:40	0	88,557327	4,773487	1,32075	347,292	1,107	87,15	0	1015,4	8,2	9,7	9,6	1	1	1	1	1	1	1	1	1	0	1	-26,779422	275,599768	300,334064	0
15.01.2021	12:55:41	0	87,970842	2,727707	1,23225	341,3808	1,098	87,162	0	1015,32	8,2	9,7	9,6	1	1	1	1	1	1	1	1	1	0	1	-26,568006	275,500044	300,072281	0
15.01.2021	12:55:42	0	87,97083	2,500398	1,17	351,7884	1,102	87,176	0	1015,4	8,2	9,7	9,6	1	1	1	1	1	1	1	1	1	0	1	-24,031008	275,424786	302,252515	0
15.01.2021	12:55:43	0	87,736228	4,432551	1,17975	357,6312	1,103	87,173	0	1015,38	8,2	9,7	9,5	1	1	1	1	1	1	1	1	1	0	1	-27,836505	275,475994	298,689739	0
15.01.2021	12:55:44	0	88,439982	3,977907	1,209	351,45	1,106	87,156	0	1015,5	8,2	9,7	9,6	1	1	1	1	1	1	1	1	1	0	1	-22,551092	275,591707	304,524124	0
15.01.2021	12:55:45	0	88,20538	2,614053	1,24575	358,4484	1,106	87,154	0	1015,48	8,2	9,7	9,6	1	1	1	1	1	1	1	1	1	0	1	-30,443975	275,410408	295,771423	0
15.01.2021	12:55:46	0	87,970779	4,659834	1,20525	0,576	1,104	87,142	0	1015,36	8,2	9,7	9,6	1	1	1	1	1	1	1	1	1	0	1	-26,427061	275,501648	300,220834	0
15.01.2021	12:55:47	0	87,736177	3,182326	1,11525	341,3412	1,105	87,132	0	1015,36	8,2	9,7	9,6	1	1	1	1	1	1	1	1	1	0	1	-27,766032	275,599768	299,347454	0
15.01.2021	12:55:48	0	88,322636	4,546181	1,13025	340,902	1,101	87,144	0	1015,3	8,2	9,7	9,6	1	1	1	1	1	1	1	1	1	0	1	-26,286117	275,535371	300,521743	0
15.01.2021	12:55:49	0	88,205329	4,205217	1,1145	339,8688	1,115	87,147	0	1015,44	8,2	9,7	9,6	1	1	1	1	1	1	1	1	1	0	1	-26,849894	275,492024	299,752359	0
15.01.2021	12:55:50	0	87,970728	4,432527	1,1505	343,908	1,108	87,162	0	1015,46	8,2	9,7	9,6	1	1	1	1	1	1	1	1	1	0	1	-27,061311	275,418395	299,191927	0
15.01.2021	12:55:51	0	87,853421	3,523291	1,18275	349,1208	1,106	87,152	0	1015,36	8,2	9,7	9,6	1	1	1	1	1	1	1	1	1	0	1	-27,906977	275,583649	299,129988	0
15.01.2021	12:55:52	0	87,970702	3,864278	1,1925	355,1148	1,103	87,137	0	1015,36	8,2	9,7	9,5	1	1	1	1	1	1	1	1	1	0	1	-22,269204	275,535371	304,538656	0
15.01.2021	12:55:53	0	87,970689	3,977933	1,17825	348,3396	1,104	87,152	0	1015,5	8,2	9,7	9,5	1	1	1	1	1	1	1	1	1	0	1	-21,49401	275,407215	304,706257	0
15.01.2021	12:55:54	0	87,736088	2,614039	1,18125	339,12	1,103	87,128	0	1015,4	8,2	9,7	9,7	1	1	1	1	1	1	1	1	1	0	1	-19,309373	275,493628	307,300486	0
15.01.2021	12:55:55	0	87,970664	4,318874	1,182	340,9236	1,11	87,145	0	1015,42	8,2	9,7	9,6	1	1	1	1	1	1	1	1	1	0	1	-24,594785	275,588483	302,465128	0
15.01.2021	12:55:56	0	87,853357	3,523292	1,221	353,9844	1,112	87,148	0	1015,46	8,2	9,7	9,6	1	1	1	1	1	1	1	1	1	0	1	-25,017618	275,49042	301,577031	0
15.01.2021	12:55:57	0	87,73605	3,523292	1,173	358,4628	1,112	87,15	0	1015,32	8,2	9,7	9,6	1	1	1	1	1	1	1	1	1	0	1	-25,158562	275,609446	302,000874	0
15.01.2021	12:55:58	0	87,736037	4,091565	1,077	355,0536	1,105	87,148	0	1015,36	8,2	9,7	9,6	1	1	1	1	1	1	1	1	1	0	1	-23,396758	275,477596	303,137083	0
15.01.2021	12:55:59	0	87,61873	2,386747	0,975	340,9704	1,111	87,155	0	1015,38	8,2	9,7	9,6	1	1	1	1	1	1	1	1	1	0	1	-25,510923	275,427983	300,787747	0
15.01.2021	12:56:00	0	87,618704	3,750602	1,002	349,0704	1,108	87,152	0	1015,46	8,2	9,7	9,6	1	1	1	1	1	1	1	1	1	0	1	-24,524313	275,582038	302,505004	0
15.01.2021	12:56:01	0	87,618704	3,750602	1,002	349,0704	1,108	87,152	0	1015,46	8,2	9,7	9,6	1	1	1	1	1	1	1	1	1	0	1	-28,047921	275,549842	298,828598	0
15.01.2021	12:56:02	0	87,618691	4,432531	1,011	339,7896	1,11	87,14	0	1015,28	8,2	9,7	9,6	1	1	1	1	1	1	1	1	1	0	1	-24,665257	275,588483	302,394656	0
15.01.2021	12:56:03	0	87,735358	2,841366	1,02	333,2196	1,106	87,162	0	1015,4	8,2	9,8	9,6	1	1	1	1	1	1	1	1	1	0	1	-29,175476	275,471187	297,32798	0
15.01.2021	12:56:04	0	87,853254	4,318876	1,02375	349,0308	1,109	87,144	0	1015,36	8,2	9,7	9,6	1	1	1	1	1	1	1	1	1	0	1	-26,990839	275,419992	299,269969	0
15.01.2021	12:56:05	0	87,853241	2,955021	1,0665	342,7524	1,111	87,15	0	1015,42	8,2	9,7	9,6	1	1	1	1	1	1	1	1	1	0	1	-24,242424	275,410408	301,972973	0
15.01.2021	12:56:06	0	87,61864	4,205222	1,07325	336,1824	1,109	87,157	0	1015,5	8,2	9,7	9,6	1	1	1	1	1	1	1	1	1	0	1	-28,118393	275,541801	298,719974	0
15.01.2021	12:56:07	0	87,618627	2,614057	1,05075	345,4308	1,107	87,147	0	1015,46	8,2	9,7	9,6	1	1	1	1	1	1	1	1	1	0	1	-25,440451	275,404022	300,744688	0
15.01.2021	12:56:08	0	87,50132	2,84135	0,9825	349,4916	1,112	87,157	0	1015,38	8,2	9,7	9,7	1	1	1	1	1	1	1	1	1	0	1	-27,484144	275,538586	299,338968	0
15.01.2021	12:56:09	0	87,501307	3,750605	0,915	340,4556	1,111	87,164	0	1015,34	8,2	9,7	9,6	1	1	1	1	1	1	1	1	1	0	1	-26,920366	275,404022	299,264772	0
15.01.2021	12:56:10	0	87,383388	2,841367	0,8565	332,7336	1,107	87,153	0	1015,36	8,2	9,8	9,6	1	1	1	1	1	1	1	1	1	0	1	-22,551092	275,590095	304,516472	0
15.01.2021	12:56:11	0	87,266693	2,955022	0,85575	343,242	1,109	87,151	0	1015,46	8,2	9,7	9,6	1	1	1	1	1	1	1	1	1	0	1	-21,282593	275,455174	305,144952	0
15.01.2021	12:56:12	0	87,501268	4,09157	0,843	4,068	1,112	87,142	0	1015,46	8,2	9,7	9,6	1	1	1	1	1	1	1	1	1	0	1	-24,383369	275,577205	302,623009	0
15.01.2021	12:56:13	0	87,618549	3,068677	0,82425	12,8412	1,107	87,16	0	1015,38	8,2	9,7	9,6	1	1	1	1	1	1	1	1	1	0	1	-24,806202	275,435976	301,53035	0
15.01.2021	12:56:14	0	87,266043	2,727713	0,8445	9,7416	1,109	87,171	0	1015,4	8,2	9,8	9,6	1	1	1	1	1	1	1	1	1	0	1	-26,849894	275,569153	300,118266	0
15.01.2021	12:56:15	0	87,383935	3,750606	0,798	358,7652	1,119	87,171	0	1015,46	8,2	9,7	9,6	1	1	1	1	1	1	1	1	1	0	1	-26,286117	275,540194	300,544622	0
15.01.2021	12:56:16	0	87,501216	4,659844	0,8565	357,3036	1,117	87,172	0	1015,46	8,2	9,7	9,6	1	1	1	1	1	1	1	1	1	0	1	-25,792812	275,419992	300,467996	0
15.01.2021	12:56:17	0	87,50059	4,318881	0,897	4,068	1,112	87,166	0	1015,46	8,2	9,8	9,6	1	1	1	1	1	1	1	1	1	0	1	-26,990839	275,527337	299,778904	0
15.01.2021	12:56:18	0	87,618483	3,864262	0,888	357,2064	1,113	87,17	0	1015,4	8,2	9,7	9,6	1	1	1	1	1	1	1	1	1	0	1	-25,933756	275,412005	300,289208	0
15.01.2021	12:56:19	0	87,61847	4,887155	0,89175	354,2832	1,112	87,163	0	1015,44	8,2	9,7	9,6	1	1	1	1	1	1	1	1	1	0	1	-27,69556	275,520911	299,043702	0
15.01.2021	12:56:20	0	87,266576	3,636931	0,8955	357,6384	1,12	87,177	0	1015,52	8,2	9,7	9,7	1	1	1	1	1	1	1	1	1	0	1	-22,903453	275,590095	304,164111	0
15.01.2021	12:56:21	0	87,500537	3,977894	0,93	354,258	1,117	87,179	0	1015,52	8,2	9,8	9,7	1	1	1	1	1	1	1	1	1	0	1	-26,145173	275,561104	300,78479	0
15.01.2021	12:56:22	0	87,265938	2,84137	0,96375	357,2748	1,11	87,169	0	1015,44	8,2	9,8	9,6	1	1	1	1	1	1	1	1	1	0	1	-31,007752	275,52573	295,754369	0
15.01.2021	12:56:23	0	87,265925	2,159441	1,04025	0	1,114	87,176	0	1015,4	8,2	9,8	9,6	1	1	1	1	1	1	1	1	1	0	1	-28,823115	275,590095	298,244449	0
15.01.2021	12:56:24	0	87,500498	3,750609	1,041	348,6528	1,116	87,172	0	1015,54	8,2	9,8	9,6	1	1	1	1	1	1	1	1	1	0	1	-27,906977	275,469585	298,588885	0
15.01.2021	12:56:25	0	87,618391	5,000812	1,09425	344,0088	1,112	87,169	0	1015,32	8,2	9,7	9,6	1	1	1	1	1	1	1	1	1	0	1	-25,369979	275,43118	300,943842	0
15.01.2021	12:56:26	0	87,38379	4,546193	1,16475	355,3776	1,115	87,174	0	1015,4	8,2	9,7	9,6	1	1	1	1	1	1	1	1	1	0	1	-25,229035	275,410408	300,986363	0
15.01.2021	12:56:27	0	87,266483	2,727716	1,242	353,2644	1,117	87,172	0	1015,46	8,2	9,7	9,6	1	1	1	1	1	1	1	1	1	0	1	-28,752643	275,557886	298,162047	0
15.01.2021	12:56:28	0	87,26647	3,29599	1,29	358,3944	1,118	87,174	0	1015,32	8,2	9,7	9,6	1	1	1	1	1	1	1	1	1	0	1	-29,950669	275,586872	297,101593	0
15.01.2021	12:56:29	0	87,266457	4,318884	1,2735	351,2772	1,109	87,169	0	1015,34	8,2	9,7	9,6	1	1	1	1	1	1	1	1	1	0	1	-29,527837	275,522518	297,219045	0
15.01.2021	12:56:30	0	87,031857	4,318885	1,2615	3,0204	1,107	87,164	0	1015,28	8,2	9,7	9,6	1	1	1	1	1	1	1	1	1	0	1	-25,792812	275,586872	301,259451	0
15.01.2021	12:56:31	0	87,383724	3,295991	1,29825	360	1,114	87,173	0	1015,46	8,2	9,7	9,6	1	1	1	1	1	1	1	1	1	0	1	-23,960536	275,477596	302,573306	0
15.01.2021	12:56:32	0	87,265806	3,523301	1,3155	348,0516	1,115	87,18	0	1015,46	8,2	9,8	9,6	1	1	1	1	1	1	1	1	1	0	1	-23,749119	275,549842	303,1274	0
15.01.2021	12:56:33	0	87,266404	2,955027	1,314	333,828	1,115	87,17	0	1015,34	8,2	9,7	9,6	1	1	1	1	1	1	1	1	1	0	1	-24,735729	275,553059	302,156055	0
15.01.2021	12:56:34	0	87,500978	3,977921	1,26225	349,9596	1,116	87,174	0	1015,42	8,2	9,7	9,6	1	1	1	1	1	1	1	1	1	0	1	-24,876674	275,404022	301,308465	0
15.01.2021	12:56:35	0	87,03179	3,750634	1,20225	359,1	1,109	87,178	0	1015,3	8,2	9,7	9,5	1	1	1	1	1	1	1	1	1	0	1	-29,880197	275,573984	297,110891	0
15.01.2021	12:56:36	0	87,031777	3,068683	1,143	350,1936	1,115	87,172	0	1015,3	8,2	9,7	9,6	1	1	1	1	1	1	1	1	1	0	1	-26,004228	275,42159	300,26415	0
15.01.2021	12:56:37	0	87,149057	3,750612	1,08	353,628	1,132	87,156	0	1015,44	8,2	9,7	9,6	1	1	1	1	1	1	1	1	1	0	1	-26,356589	275,43118	299,957232	0
15.01.2021	12:56:38	0	87,383631	4,205232	1,0035	347,6268	1,113	87,169	0	1015,4	8,2	9,7	9,6	1	1	1	1	1	1	1	1	1	0	1	-28,541226	275,500044	298,09906	0
15.01.2021	12:56:39	0	87,031737	4,091578	0,97725	340,1892	1,117	87,15	0	1015,46	8,2	9,7	9,6	1	1	1	1	1	1	1	1	1	0	1	-27,202255	275,582038	299,827062	0
15.01.2021	12:56:40	0	86,796529	3,182319	0,963	345,3876	1,118	87,164	0	1015,4	8,2	9,8	9,7	1	1	1	1	1	1	1	1	1	0	1	-28,611698	275,42159	297,65668	0
15.01.2021	12:56:41	0	86,913808	4,432543	0,96975	349,4016	1,119	87,166	0	1015,4	8,2	9,8	9,6	1	1	1	1	1	1	1	1	1	0	1	-27,484144	275,553059	299,407641	0
15.01.2021	12:56:42	0	87,148991	4,659853	0,9045	353,5452	1,118	87,156	0	1015,44	8,2	9,7	9,6	1	1	1	1	1	1	1	1	1	0	1	-27,343199	275,418395	298,910038	0
15.01.2021	12:56:43	0	86,91439	3,523304	0,9195	354,0024	1,12	87,165	0	1015,32	8,2	9,7	9,6	1	1	1	1	1	1	1	1	1	0	1	-26,356589	275,469585	300,139272	0
15.01.2021	12:56:44	0	86,67979	3,409649	0,915	359,874	1,119	87,169	0	1015,42	8,2	9,7	9,6	1	1	1	1	1	1	1	1	1	0	1	-23,608175	275,583649	303,42879	0
15.01.2021	12:56:45	0	86,914364	3,295995	0,92025	0,486	1,113	87,166	0	1015,48	8,2	9,7	9,6	1	1	1	1	1	1	1	1	1	0	1	-29,527837	275,512883	297,173343	0
15.01.2021	12:56:46	0	86,91435	4,31889	0,92175	43,7112	1,112	87,163	0	1015,44	8,2	9,7	9,6	1	1	1	1	1	1	1	1	1	0	1	-24,10148	275,329135	301,729023	0
15.01.2021	12:56:47	0	86,914337	4,205235	0,9315	13,896	1,117	87,165	0	1015,42	8,2	9,7	9,6	1	1	1	1	1	1	1	1	1	0	1	-26,849894	275,492024	299,752359	0
15.01.2021	12:56:48	0	86,796422	4,09158	0,9105	9,7416	1,119	87,15	0	1015,38	8,2	9,8	9,6	1	1	1	1	1	1	1	1	1	0	1	-27,484144	275,582038	299,545173	0
15.01.2021	12:56:49	0	87,265578	4,546201	0,89325	351,7776	1,124	87,157	0	1015,62	8,2	9,8	9,6	1	1	1	1	1	1	1	1	1	0	1	-26,0747	275,440774	300,28459	0
15.01.2021	12:56:50	0	87,03098	3,182341	0,91125	346,878	1,113	87,178	0	1015,52	8,2	9,8	9,6	1	1	1	1	1	1	1	1	1	0	1	-27,766032	275,522518	298,980849	0
15.01.2021	12:56:51	0	86,79699	4,773512	0,87075	352,1232	1,117	87,155	0	1015,42	8,2	9,7	9,6	1	1	1	1	1	1	1	1	1	0	1	-28,893587	275,598156	298,212244	0
15.01.2021	12:56:52	0	86,914269	3,295996	0,822	351,7488	1,123	87,164	0	1015,38	8,2	9,7	9,6	1	1	1	1	1	1	1	1	1	0	1	-28,400282	275,524124	298,354219	0
15.01.2021	12:56:53	0	86,679062	4,205237	0,807	348,6816	1,123	87,165	0	1015,42	8,2	9,8	9,6	1	1	1	1	1	1	1	1	1	0	1	-25,369979	275,577205	301,636399	0
15.01.2021	12:56:54	0	86,913634	3,864272	0,771	346,5504	1,121	87,163	0	1015,3	8,2	9,8	9,6	1	1	1	1	1	1	1	1	1	0	1	-23,608175	275,453574	302,811783	0
15.01.2021	12:56:55	0	86,561743	2,614067	0,765	343,9152	1,125	87,175	0	1015,5	8,2	9,8	9,6	1	1	1	1	1	1	1	1	1	0	1	-25,08809	275,400829	301,081924	0
15.01.2021	12:56:56	0	86,796922	2,841377	0,7485	342,2844	1,118	87,161	0	1015,44	8,2	9,7	9,6	1	1	1	1	1	1	1	1	1	0	1	-29,175476	275,546625	297,68578	0
15.01.2021	12:56:57	0	86,679615	4,318893	0,795	343,5264	1,122	87,17	0	1015,5	8,2	9,7	9,6	1	1	1	1	1	1	1	1	1	0	1	-27,766032	275,559495	299,156294	0
15.01.2021	12:56:58	0	87,031481	5,34179	0,88575	352,0692	1,119	87,156	0	1015,36	8,2	9,7	9,6	1	1	1	1	1	1	1	1	1	0	1	-28,682171	275,586872	298,370092	0
15.01.2021	12:56:59	0	87,031468	3,977905	0,96075	358,1064	1,118	87,165	0	1015,32	8,2	9,7	9,7	1	1	1	1	1	1	1	1	1	0	1	-27,625088	275,495231	298,992376	0
15.01.2021	12:57:00	0	86,679561	5,11448	1,02525	357,2316	1,125	87,166	0	1015,48	8,2	9,7	9,6	1	1	1	1	1	1	1	1	1	0	1	-22,269204	275,434377	304,05977	0
15.01.2021	12:57:01	0	86,679561	5,11448	1,02525	357,2316	1,125	87,166	0	1015,48	8,2	9,7	9,6	1	1	1	1	1	1	1	1	1	0	1	-28,188865	275,569153	298,779295	0
15.01.2021	12:57:02	0	86,561648	3,977906	1,0365	356,2704	1,12	87,151	0	1015,32	8,2	9,8	9,7	1	1	1	1	1	1	1	1	1	0	1	-26,145173	275,48561	300,426668	0
15.01.2021	12:57:03	0	86,678927	3,864275	1,035	356,2128	1,121	87,15	0	1015,28	8,2	9,8	9,6	1	1	1	1	1	1	1	1	1	0	1	-24,735729	275,447173	301,653889	0
15.01.2021	12:57:04	0	86,796813	4,773516	1,04925	354,942	1,119	87,148	0	1015,4	8,2	9,7	9,6	1	1	1	1	1	1	1	1	1	0	1	-24,031008	275,42159	302,237371	0
15.01.2021	12:57:05	0	86,7968	4,091586	1,03425	356,2488	1,118	87,17	0	1015,42	8,2	9,7	9,6	1	1	1	1	1	1	1	1	1	0	1	-27,766032	275,450373	298,638754	0
15.01.2021	12:57:06	0	86,678886	2,955034	1,02975	353,5272	1,123	87,16	0	1015,46	8,2	9,8	9,6	1	1	1	1	1	1	1	1	1	0	1	-24,031008	275,391255	302,09365	0
15.01.2021	12:57:07	0	86,562186	4,432552	1,0905	355,0212	1,126	87,159	0	1015,4	8,2	9,7	9,6	1	1	1	1	1	1	1	1	1	0	1	-24,594785	275,404022	301,590354	0
15.01.2021	12:57:08	0	86,327587	2,955035	1,0935	0,108	1,134	87,157	0	1015,38	8,2	9,7	9,6	1	1	1	1	1	1	1	1	1	0	1	-26,497533	275,368932	299,521399	0
15.01.2021	12:57:09	0	86,444866	4,318897	1,0965	359,9496	1,119	87,168	0	1015,2	8,2	9,7	9,6	1	1	1	1	1	1	1	1	1	0	1	-25,72234	275,578816	301,291683	0
15.01.2021	12:57:10	0	86,444853	2,955035	1,07475	355,3596	1,125	87,172	0	1015,44	8,2	9,7	9,6	1	1	1	1	1	1	1	1	1	0	1	-25,440451	275,463179	301,02504	0
15.01.2021	12:57:11	0	86,678817	4,318898	1,029	351,738	1,127	87,151	0	1015,46	8,2	9,8	9,6	1	1	1	1	1	1	1	1	1	0	1	-25,651868	275,569153	301,316293	0
15.01.2021	12:57:12	0	86,913388	4,887174	1,03425	351,0504	1,125	87,159	0	1015,3	8,2	9,8	9,6	1	1	1	1	1	1	1	1	1	0	1	-25,510923	275,42159	300,757456	0
15.01.2021	12:57:13	0	86,67879	3,977933	1,0005	348,2892	1,126	87,15	0	1015,46	8,2	9,8	9,6	1	1	1	1	1	1	1	1	1	0	1	-26,0747	275,562714	300,862901	0
15.01.2021	12:57:14	0	86,796676	4,659865	0,999	347,598	1,124	87,142	0	1015,38	8,2	9,7	9,6	1	1	1	1	1	1	1	1	1	0	1	-24,031008	275,52573	302,731114	0
15.01.2021	12:57:15	0	86,562077	3,636968	1,0065	349,0452	1,124	87,145	0	1015,44	8,2	9,7	9,6	1	1	1	1	1	1	1	1	1	0	1	-24,031008	275,580427	302,990662	0
15.01.2021	12:57:16	0	86,44477	4,54621	1,04025	342,7416	1,121	87,156	0	1015,52	8,2	9,7	9,6	1	1	1	1	1	1	1	1	1	0	1	-26,0747	275,575594	300,924032	0
15.01.2021	12:57:17	0	86,561443	3,977934	1,10625	331,128	1,125	87,157	0	1015,48	8,2	9,8	9,6	1	1	1	1	1	1	1	1	1	0	1	-26,0747	275,484007	300,489539	0
15.01.2021	12:57:18	0	86,210157	3,750624	1,17375	333,5004	1,118	87,137	0	1015,18	8,2	9,7	9,6	1	1	1	1	1	1	1	1	1	0	1	-26,356589	275,586872	300,695674	0
15.01.2021	12:57:19	0	86,796607	4,318901	1,19325	338,7204	1,123	87,156	0	1015,42	8,2	9,7	9,6	1	1	1	1	1	1	1	1	1	0	1	-27,766032	275,474391	298,752615	0
15.01.2021	12:57:20	0	86,444109	4,546212	1,19925	333,1728	1,124	87,137	0	1015,5	8,2	9,8	9,6	1	1	1	1	1	1	1	1	1	0	1	-26,849894	275,404022	299,335245	0
15.01.2021	12:57:21	0	86,913872	4,659867	1,1625	341,6292	1,127	87,151	0	1015,44	8,2	9,7	9,6	1	1	1	1	1	1	1	1	1	0	1	-24,735729	275,464781	301,737353	0
15.01.2021	12:57:22	0	86,56198	3,296004	1,143	335,7648	1,124	87,134	0	1015,42	8,2	9,7	9,6	1	1	1	1	1	1	1	1	1	0	1	-24,10148	275,400829	302,068534	0
15.01.2021	12:57:23	0	86,56136	2,727728	1,06875	328,896	1,125	87,151	0	1015,56	8,2	9,8	9,6	1	1	1	1	1	1	1	1	1	0	1	-24,735729	275,442374	301,631141	0
15.01.2021	12:57:24	0	86,327367	3,296004	1,0515	333,882	1,125	87,142	0	1015,32	8,2	9,7	9,6	1	1	1	1	1	1	1	1	1	0	1	-28,259338	275,559495	298,662988	0
15.01.2021	12:57:25	0	86,326748	4,432558	1,1505	346,1796	1,125	87,143	0	1015,38	8,2	9,8	9,6	1	1	1	1	1	1	1	1	1	0	1	-25,792812	275,527337	300,976931	0
15.01.2021	12:57:26	0	86,67861	2,955039	1,116	353,2608	1,121	87,128	0	1015,26	8,2	9,8	9,6	1	1	1	1	1	1	1	1	1	0	1	-23,819591	275,458376	302,62313	0
15.01.2021	12:57:27	0	86,444012	4,546214	1,12575	339,4836	1,126	87,136	0	1015,46	8,2	9,8	9,6	1	1	1	1	1	1	1	1	1	0	1	-27,766032	275,575594	299,2327	0
15.01.2021	12:57:28	0	86,56129	3,296005	1,01025	339,4872	1,122	87,133	0	1015,32	8,2	9,8	9,6	1	1	1	1	1	1	1	1	1	0	1	-24,806202	275,504857	301,856914	0
15.01.2021	12:57:29	0	86,561882	4,205223	0,98925	342,0972	1,121	87,139	0	1015,42	8,2	9,7	9,7	1	1	1	1	1	1	1	1	1	0	1	-25,017618	275,588483	302,042295	0
15.01.2021	12:57:30	0	86,561868	2,95504	0,9855	352,4976	1,124	87,123	0	1015,48	8,2	9,7	9,6	1	1	1	1	1	1	1	1	1	0	1	-29,880197	275,503253	296,775308	0
15.01.2021	12:57:31	0	86,679147	3,750605	1,04475	344,0052	1,127	87,132	0	1015,32	8,2	9,7	9,7	1	1	1	1	1	1	1	1	1	0	1	-24,594785	275,586872	302,457478	0
15.01.2021	12:57:32	0	86,327256	4,318905	1,0635	335,6928	1,129	87,134	0	1015,42	8,2	9,7	9,6	1	1	1	1	1	1	1	1	1	0	1	-26,497533	275,561104	300,43243	0
15.01.2021	12:57:33	0	86,561826	3,636973	1,16175	340,6716	1,127	87,132	0	1015,5	8,2	9,7	9,6	1	1	1	1	1	1	1	1	1	0	1	-23,46723	275,49844	303,165448	0
15.01.2021	12:57:34	0	86,44452	4,318906	1,25625	343,1916	1,126	87,13	0	1015,42	8,2	9,7	9,6	1	1	1	1	1	1	1	1	1	0	1	-28,752643	275,596543	298,345533	0
15.01.2021	12:57:35	0	86,444506	4,546217	1,437	347,7024	1,127	87,127	0	1015,4	8,2	9,7	9,6	1	1	1	1	1	1	1	1	1	0	1	-23,255814	275,442374	303,111057	0
15.01.2021	12:57:36	0	86,209303	3,409663	1,554	356,5224	1,119	87,128	0	1015,32	8,2	9,8	9,6	1	1	1	1	1	1	1	1	1	0	1	-31,148696	275,434377	295,180278	0
15.01.2021	12:57:37	0	86,678455	4,205251	1,6695	351,1188	1,126	87,13	0	1015,44	8,2	9,8	9,6	1	1	1	1	1	1	1	1	1	0	1	-24,031008	275,458376	302,411713	0
15.01.2021	12:57:38	0	86,56115	4,887184	1,73175	354,3084	1,125	87,118	0	1015,5	8,2	9,8	9,6	1	1	1	1	1	1	1	1	1	0	1	-25,08809	275,511277	301,605475	0
15.01.2021	12:57:39	0	86,327157	4,659874	1,692	359,9388	1,125	87,123	0	1015,46	8,2	9,7	9,6	1	1	1	1	1	1	1	1	1	0	1	-22,832981	275,58526	304,211632	0
15.01.2021	12:57:40	0	86,561121	4,091597	1,62075	356,1408	1,118	87,11	0	1015,32	8,2	9,8	9,6	1	1	1	1	1	1	1	1	1	0	1	-24,594785	275,548234	302,274102	0
15.01.2021	12:57:41	0	86,912982	5,228152	1,57575	359,5212	1,127	87,115	0	1015,42	8,2	9,8	9,6	1	1	1	1	1	1	1	1	1	0	1	-31,078224	275,427983	295,220446	0
15.01.2021	12:57:42	0	86,444407	2,841387	1,542	359,5248	1,123	87,118	0	1015,52	8,2	9,7	9,6	1	1	1	1	1	1	1	1	1	0	1	-29,31642	275,58526	297,728193	0
15.01.2021	12:57:43	0	86,561079	3,52332	1,59375	357,498	1,124	87,121	0	1015,48	8,2	9,8	9,6	1	1	1	1	1	1	1	1	1	0	1	-26,286117	275,548234	300,58277	0
15.01.2021	12:57:44	0	86,913548	4,54622	1,56675	358,362	1,122	87,121	0	1015,46	8,2	9,7	9,6	1	1	1	1	1	1	1	1	1	0	1	-26,920366	275,535371	299,887493	0
15.01.2021	12:57:45	0	86,327073	3,29601	1,53825	351,3384	1,123	87,106	0	1015,34	8,2	9,7	9,6	1	1	1	1	1	1	1	1	1	0	1	-24,806202	275,570763	302,169601	0
15.01.2021	12:57:46	0	86,561036	2,955044	1,58025	347,3028	1,124	87,112	0	1015,44	8,2	9,8	9,6	1	1	1	1	1	1	1	1	1	0	1	-25,158562	275,553059	301,733222	0
15.01.2021	12:57:47	0	86,326439	3,182355	1,53075	353,9664	1,127	87,115	0	1015,54	8,2	9,8	9,6	1	1	1	1	1	1	1	1	1	0	1	-27,977449	275,577205	299,028929	0
15.01.2021	12:57:48	0	86,678299	3,0687	1,4715	351,306	1,127	87,111	0	1015,4	8,2	9,8	9,6	1	1	1	1	1	1	1	1	1	0	1	-31,360113	275,469585	295,135749	0
15.01.2021	12:57:49	0	86,443702	2,727733	1,40475	354,3948	1,123	87,112	0	1015,22	8,2	9,8	9,6	1	1	1	1	1	1	1	1	1	0	1	-27,484144	275,594931	299,606378	0
15.01.2021	12:57:50	0	86,678878	2,841389	1,3455	351,9936	1,128	87,108	0	1015,48	8,2	9,7	9,6	1	1	1	1	1	1	1	1	1	0	1	-28,118393	275,533764	298,681841	0
15.01.2021	12:57:51	0	86,443674	4,205256	1,413	349,11	1,127	87,087	0	1015,46	8,2	9,8	9,6	1	1	1	1	1	1	1	1	1	0	1	-26,990839	275,594931	300,099683	0
15.01.2021	12:57:52	0	86,796141	4,659879	1,55775	356,2164	1,131	87,102	0	1015,3	8,2	9,7	9,6	1	1	1	1	1	1	1	1	1	0	1	-26,779422	275,512883	299,921757	0
15.01.2021	12:57:53	0	86,443645	4,659879	1,70775	350,658	1,129	87,103	0	1015,34	8,2	9,8	9,6	1	1	1	1	1	1	1	1	1	0	1	-26,0747	275,591707	301,000516	0
15.01.2021	12:57:54	0	86,561529	2,727734	1,8795	359,9676	1,124	87,097	0	1015,44	8,2	9,7	9,6	1	1	1	1	1	1	1	1	1	0	1	-28,470754	275,524124	298,283747	0
15.01.2021	12:57:55	0	86,561514	4,432568	1,9245	353,3256	1,124	87,108	0	1015,52	8,2	9,7	9,6	1	1	1	1	1	1	1	1	1	0	1	-25,08809	275,570763	301,887712	0
15.01.2021	12:57:56	0	86,560894	4,432569	1,9575	351,252	1,127	87,101	0	1015,32	8,2	9,8	9,6	1	1	1	1	1	1	1	1	1	0	1	-30,232558	275,586872	296,819705	0
15.01.2021	12:57:57	0	86,560879	4,432596	1,95225	355,446	1,126	87,085	0	1015,38	8,2	9,8	9,5	1	1	1	1	1	1	1	1	1	0	1	-30,30303	275,437575	296,0411	0
15.01.2021	12:57:58	0	86,795447	3,523324	1,93875	346,914	1,131	87,097	0	1015,48	8,2	9,8	9,6	1	1	1	1	1	1	1	1	1	0	1	-23,396758	275,520911	303,342504	0
15.01.2021	12:57:59	0	86,561457	3,068702	1,899	351,0792	1,124	87,094	0	1015,36	8,2	9,7	9,6	1	1	1	1	1	1	1	1	1	0	1	-29,527837	275,583649	297,509128	0
15.01.2021	12:58:00	0	86,796012	3,523325	1,89525	347,5512	1,122	87,089	0	1015,34	8,2	9,7	9,6	1	1	1	1	1	1	1	1	1	0	1	-26,356589	275,42159	299,91179	0
15.01.2021	12:58:01	0	86,796012	3,523325	1,89525	347,5512	1,122	87,089	0	1015,34	8,2	9,7	9,6	1	1	1	1	1	1	1	1	1	0	1	-28,611698	275,49844	298,02098	0
15.01.2021	12:58:02	0	86,795389	4,432571	1,8915	3,7548	1,125	87,09	0	1015,26	8,2	9,8	9,6	1	1	1	1	1	1	1	1	1	0	1	-25,651868	275,404022	300,533271	0
15.01.2021	12:58:03	0	86,443502	2,500425	1,869	357,6996	1,13	87,093	0	1015,4	8,2	9,8	9,6	1	1	1	1	1	1	1	1	1	0	1	-29,457364	275,501648	297,190531	0
15.01.2021	12:58:04	0	86,678676	2,955048	1,81425	351,7308	1,126	87,089	0	1015,44	8,2	9,7	9,6	1	1	1	1	1	1	1	1	1	0	1	-25,651868	275,416797	300,5938	0
15.01.2021	12:58:05	0	86,678662	3,750638	1,72125	355,0428	1,129	87,088	0	1015,36	8,2	9,7	9,6	1	1	1	1	1	1	1	1	1	0	1	-25,440451	275,540194	301,390288	0
15.01.2021	12:58:06	0	86,560749	2,500425	1,7445	351,3024	1,121	87,088	0	1015,44	8,2	9,8	9,6	1	1	1	1	1	1	1	1	1	0	1	-30,584919	275,426384	295,706177	0
15.01.2021	12:58:07	0	86,678026	2,500426	1,7145	348,0012	1,126	87,078	0	1015,46	8,2	9,8	9,6	1	1	1	1	1	1	1	1	1	0	1	-30,091614	275,416797	296,154054	0
15.01.2021	12:58:08	0	86,912593	3,864295	1,6725	356,1372	1,128	87,075	0	1015,36	8,2	9,8	9,6	1	1	1	1	1	1	1	1	1	0	1	-20,85976	275,450373	305,545026	0
15.01.2021	12:58:09	0	86,326124	2,273115	1,6335	354,0276	1,126	87,044	0	1015,38	8,2	9,8	9,6	1	1	1	1	1	1	1	1	1	0	1	-29,880197	275,596543	297,217979	0
15.01.2021	12:58:10	0	86,795273	4,318918	1,5735	353,52	1,125	87,059	0	1015,42	8,2	9,8	9,6	1	1	1	1	1	1	1	1	1	0	1	-30,725863	275,536979	296,089622	0
15.01.2021	12:58:11	0	86,913158	3,523328	1,5525	355,1112	1,118	87,043	0	1015,3	8,2	9,7	9,6	1	1	1	1	1	1	1	1	1	0	1	-26,004228	275,477596	300,529613	0
15.01.2021	12:58:12	0	86,67856	4,432575	1,51875	357,2136	1,129	87,047	0	1015,38	8,2	9,7	9,6	1	1	1	1	1	1	1	1	1	0	1	-24,10148	275,580427	302,92019	0
15.01.2021	12:58:13	0	86,561254	3,977952	1,545	4,4496	1,123	87,018	0	1015,54	8,2	9,7	9,6	1	1	1	1	1	1	1	1	1	0	1	-29,386892	275,469585	297,108969	0
15.01.2021	12:58:14	0	86,443947	2,273116	1,6185	359,4888	1,123	87,021	0	1015,4	8,2	9,7	9,6	1	1	1	1	1	1	1	1	1	0	1	-27,202255	275,602994	299,926545	0
15.01.2021	12:58:15	0	86,678516	4,546204	1,6545	0,4716	1,124	86,996	0	1015,46	8,2	9,7	9,7	1	1	1	1	1	1	1	1	1	0	1	-28,047921	275,533764	298,752314	0
15.01.2021	12:58:16	0	87,030376	3,864297	1,67025	0	1,124	87,057	0	1015,54	8,2	9,7	9,6	1	1	1	1	1	1	1	1	1	0	1	-25,792812	275,557886	301,121878	0
15.01.2021	12:58:17	0	86,795778	4,318921	1,62	360	1,12	86,996	0	1015,44	8,2	9,7	9,6	1	1	1	1	1	1	1	1	1	0	1	-28,611698	275,533764	298,188536	0
15.01.2021	12:58:18	0	87,030347	3,296019	1,512	355,8096	1,125	86,971	0	1015,5	8,2	9,7	9,6	1	1	1	1	1	1	1	1	1	0	1	-26,004228	275,466382	300,476446	0
15.01.2021	12:58:19	0	86,795749	3,750642	1,422	3,4956	1,115	86,972	0	1015,36	8,2	9,7	9,6	1	1	1	1	1	1	1	1	1	0	1	-26,356589	275,413603	299,873942	0
15.01.2021	12:58:20	0	86,795126	2,273117	1,31025	353,682	1,124	86,95	0	1015,28	8,2	9,8	9,6	1	1	1	1	1	1	1	1	1	0	1	-22,410148	275,442374	303,956723	0
15.01.2021	12:58:21	0	87,264886	4,432578	1,206	354,3048	1,12	86,946	0	1015,46	8,2	9,7	9,6	1	1	1	1	1	1	1	1	1	0	1	-28,823115	275,596543	298,275061	0
15.01.2021	12:58:22	0	86,912387	1,932149	1,1745	354,3156	1,121	86,945	0	1015,5	8,2	9,8	9,6	1	1	1	1	1	1	1	1	1	0	1	-26,920366	275,455174	299,507179	0
15.01.2021	12:58:23	0	86,795082	2,727741	1,149	3,0132	1,119	86,938	0	1015,42	8,2	9,8	9,6	1	1	1	1	1	1	1	1	1	0	1	-24,242424	275,586872	302,809839	0
15.01.2021	12:58:24	0	86,912967	4,091611	1,07475	359,802	1,115	86,919	0	1015,26	8,2	9,7	9,6	1	1	1	1	1	1	1	1	1	0	1	-24,524313	275,543409	302,321683	0
15.01.2021	12:58:25	0	86,677762	2,955053	1,01175	1,908	1,12	86,929	0	1015,42	8,2	9,8	9,6	1	1	1	1	1	1	1	1	1	0	1	-29,809725	275,396041	296,337608	0
15.01.2021	12:58:26	0	86,912328	2,727741	0,91875	347,76	1,12	86,925	0	1015,6	8,2	9,8	9,6	1	1	1	1	1	1	1	1	1	0	1	-25,299507	275,527337	301,470236	0
15.01.2021	12:58:27	0	86,795023	2,614086	0,879	342,72	1,118	86,928	0	1015,44	8,2	9,8	9,6	1	1	1	1	1	1	1	1	1	0	1	-22,057787	275,599768	305,055699	0
15.01.2021	12:58:28	0	87,14749	2,841398	0,88575	345,3804	1,122	86,902	0	1015,36	8,2	9,7	9,6	1	1	1	1	1	1	1	1	1	0	1	-25,581395	275,522518	301,165486	0
15.01.2021	12:58:29	0	87,382058	4,773549	0,85875	344,3652	1,122	86,897	0	1015,36	8,2	9,7	9,6	1	1	1	1	1	1	1	1	1	0	1	-28,470754	275,565933	298,482125	0
15.01.2021	12:58:30	0	87,030169	3,523334	0,837	336,096	1,119	86,896	0	1015,5	8,2	9,7	9,6	1	1	1	1	1	1	1	1	1	0	1	-26,427061	275,582038	300,602255	0
15.01.2021	12:58:31	0	87,264736	4,091614	0,75975	334,9044	1,118	86,9	0	1015,28	8,2	9,7	9,6	1	1	1	1	1	1	1	1	1	0	1	-28,047921	275,53055	298,737066	0
15.01.2021	12:58:32	0	87,029529	2,955055	0,73275	340,1676	1,111	86,895	0	1015,38	8,2	9,8	9,6	1	1	1	1	1	1	1	1	1	0	1	-30,021142	275,575594	296,977591	0
15.01.2021	12:58:33	0	87,264706	2,841399	0,678	344,952	1,111	86,897	0	1015,36	8,2	9,7	9,6	1	1	1	1	1	1	1	1	1	0	1	-31,712474	275,450373	294,692313	0
15.01.2021	12:58:34	0	87,030109	3,636991	0,66525	340,9992	1,12	86,898	0	1015,36	8,2	9,7	9,6	1	1	1	1	1	1	1	1	1	0	1	-27,343199	275,575594	299,655533	0
15.01.2021	12:58:35	0	87,381968	3,864303	0,65175	327,4128	1,117	86,905	0	1015,36	8,2	9,7	9,6	1	1	1	1	1	1	1	1	1	0	1	-27,061311	275,533764	299,738924	0
15.01.2021	12:58:36	0	86,912788	3,523335	0,729	319,2084	1,115	86,91	0	1015,32	8,2	9,7	9,6	1	1	1	1	1	1	1	1	1	0	1	-26,0747	275,400829	300,095314	0
15.01.2021	12:58:37	0	87,030064	2,841383	0,74175	324,4284	1,111	86,901	0	1015,4	8,2	9,7	9,7	1	1	1	1	1	1	1	1	1	0	1	-27,272727	275,519305	299,458917	0
15.01.2021	12:58:38	0	87,14673	3,523336	0,74925	332,0028	1,118	86,912	0	1015,42	8,2	9,8	9,6	1	1	1	1	1	1	1	1	1	0	1	-27,413672	275,399233	298,748781	0
15.01.2021	12:58:39	0	87,146715	3,864304	0,74625	333,1548	1,106	86,897	0	1015,38	8,2	9,8	9,6	1	1	1	1	1	1	1	1	1	0	1	-29,668781	275,527337	297,100962	0
15.01.2021	12:58:40	0	87,38128	3,636993	0,7605	338,382	1,116	86,902	0	1015,44	8,2	9,8	9,6	1	1	1	1	1	1	1	1	1	0	1	-27,766032	275,447173	298,623586	0
15.01.2021	12:58:41	0	87,263975	2,614073	0,72375	342,2412	1,116	86,907	0	1015,42	8,2	9,8	9,7	1	1	1	1	1	1	1	1	1	0	1	-29,880197	275,564323	297,065043	0
15.01.2021	12:58:42	0	87,49854	4,659898	0,705	330,7284	1,113	86,886	0	1015,46	8,2	9,8	9,6	1	1	1	1	1	1	1	1	1	0	1	-29,950669	275,554668	296,948749	0
15.01.2021	12:58:43	0	87,616429	4,659898	0,756	320,8248	1,11	86,897	0	1015,26	8,2	9,7	9,6	1	1	1	1	1	1	1	1	1	0	1	-26,004228	275,554668	300,895191	0
15.01.2021	12:58:44	0	87,147249	3,068714	0,8085	324,144	1,111	86,887	0	1015,3	8,2	9,7	9,6	1	1	1	1	1	1	1	1	1	0	1	-26,145173	275,469585	300,350689	0
15.01.2021	12:58:45	0	87,499107	2,955058	0,83925	336,4092	1,115	86,889	0	1015,52	8,2	9,7	9,6	1	1	1	1	1	1	1	1	1	0	1	-26,920366	275,447173	299,469252	0
15.01.2021	12:58:46	0	87,26451	2,841402	0,81075	334,2024	1,116	86,899	0	1015,42	8,2	9,7	9,6	1	1	1	1	1	1	1	1	1	0	1	-29,598309	275,404022	296,58683	0
15.01.2021	12:58:47	0	87,615754	3,636995	0,8955	330,7464	1,112	86,874	0	1015,38	8,2	9,8	9,6	1	1	1	1	1	1	1	1	1	0	1	-30,443975	275,533764	296,35626	0
15.01.2021	12:58:48	0	87,498449	2,841402	0,93	330,3684	1,117	86,902	0	1015,54	8,2	9,8	9,6	1	1	1	1	1	1	1	1	1	0	1	-29,880197	275,426384	296,410899	0
15.01.2021	12:58:49	0	87,499046	2,955059	0,93225	331,1424	1,113	86,905	0	1015,4	8,2	9,7	9,6	1	1	1	1	1	1	1	1	1	0	1	-28,259338	275,394446	297,880436	0
15.01.2021	12:58:50	0	87,732998	4,659873	0,97125	327,3768	1,112	86,895	0	1015,36	8,2	9,8	9,7	1	1	1	1	1	1	1	1	1	0	1	-26,427061	275,496835	300,19801	0
15.01.2021	12:58:51	0	87,264434	2,727747	0,97575	324,7704	1,108	86,908	0	1015,36	8,2	9,7	9,6	1	1	1	1	1	1	1	1	1	0	1	-25,017618	275,413603	301,212913	0
15.01.2021	12:58:52	0	87,616291	4,432589	1,02075	328,662	1,107	86,888	0	1015,28	8,2	9,7	9,6	1	1	1	1	1	1	1	1	1	0	1	-31,148696	275,463179	295,316795	0
15.01.2021	12:58:53	0	87,498372	3,182372	1,062	325,5336	1,117	86,902	0	1015,38	8,2	9,8	9,6	1	1	1	1	1	1	1	1	1	0	1	-24,171952	275,408812	302,03588	0
15.01.2021	12:58:54	0	87,381679	2,95506	1,0515	332,766	1,107	86,896	0	1015,32	8,2	9,7	9,6	1	1	1	1	1	1	1	1	1	0	1	-27,272727	275,562714	299,664874	0
15.01.2021	12:58:55	0	87,850827	4,546247	1,03425	335,6856	1,11	86,891	0	1015,42	8,2	9,7	9,6	1	1	1	1	1	1	1	1	1	0	1	-26,427061	275,419992	299,833746	0
15.01.2021	12:58:56	0	87,498939	3,182373	1,0215	332,7588	1,114	86,895	0	1015,32	8,2	9,7	9,6	1	1	1	1	1	1	1	1	1	0	1	-27,906977	275,52573	298,855145	0
15.01.2021	12:58:57	0	87,967471	5,228184	0,9915	331,2036	1,107	86,89	0	1015,18	8,2	9,8	9,6	1	1	1	1	1	1	1	1	1	0	1	-24,031008	275,564323	302,914232	0
15.01.2021	12:58:58	0	87,498908	2,38678	0,969	340,5924	1,113	86,906	0	1015,42	8,2	9,7	9,6	1	1	1	1	1	1	1	1	1	0	1	-25,229035	275,434377	301,09994	0
15.01.2021	12:58:59	0	87,85015	4,659904	0,94125	344,3796	1,106	86,886	0	1015,4	8,2	9,8	9,6	1	1	1	1	1	1	1	1	1	0	1	-28,188865	275,546625	298,67239	0
15.01.2021	12:59:00	0	88,201988	4,887218	0,88125	329,2236	1,107	86,912	0	1015,36	8,2	9,8	9,6	1	1	1	1	1	1	1	1	1	0	1	-28,964059	275,562714	297,973542	0
15.01.2021	12:59:01	0	88,201988	4,887218	0,88125	329,2236	1,107	86,912	0	1015,36	8,2	9,8	9,6	1	1	1	1	1	1	1	1	1	0	1	-28,611698	275,575594	298,387034	0
15.01.2021	12:59:02	0	88,084683	5,000874	0,858	322,7328	1,109	86,912	0	1015,36	8,2	9,8	9,6	1	1	1	1	1	1	1	1	1	0	1	-30,373502	275,42159	295,894876	0
15.01.2021	12:59:03	0	87,967378	4,659906	0,84825	322,6932	1,114	86,916	0	1015,42	8,2	9,8	9,6	1	1	1	1	1	1	1	1	1	0	1	-28,682171	275,448773	297,715031	0
15.01.2021	12:59:04	0	87,967978	4,659906	0,80775	328,878	1,111	86,901	0	1015,48	8,2	9,7	9,6	1	1	1	1	1	1	1	1	1	0	1	-29,668781	275,60622	297,475336	0
15.01.2021	12:59:05	0	88,085253	2,159469	0,894	333,1656	1,109	86,918	0	1015,44	8,2	9,7	9,6	1	1	1	1	1	1	1	1	1	0	1	-29,31642	275,5177	297,407607	0
15.01.2021	12:59:06	0	88,084621	3,637001	0,93	326,4228	1,112	86,922	0	1015,4	8,2	9,8	9,6	1	1	1	1	1	1	1	1	1	0	1	-27,413672	275,604606	299,722787	0
15.01.2021	12:59:07	0	88,319803	2,727751	0,9825	322,686	1,116	86,917	0	1015,34	8,2	9,7	9,6	1	1	1	1	1	1	1	1	1	0	1	-30,866808	275,519305	295,864837	0
15.01.2021	12:59:08	0	88,084589	3,06872	1,026	325,1268	1,111	86,918	0	1015,36	8,2	9,8	9,6	1	1	1	1	1	1	1	1	1	0	1	-29,598309	275,596543	297,499867	0
15.01.2021	12:59:09	0	88,319772	3,296033	1,04925	323,7876	1,108	86,922	0	1015,4	8,2	9,7	9,6	1	1	1	1	1	1	1	1	1	0	1	-28,752643	275,503253	297,902863	0
15.01.2021	12:59:10	0	87,967884	3,864315	1,12725	328,59	1,11	86,907	0	1015,3	8,2	9,7	9,6	1	1	1	1	1	1	1	1	1	0	1	-29,739253	275,418395	296,513984	0
15.01.2021	12:59:11	0	88,20245	3,068721	1,21275	340,6104	1,11	86,906	0	1015,52	8,2	9,7	9,6	1	1	1	1	1	1	1	1	1	0	1	-25,440451	275,541801	301,397916	0
15.01.2021	12:59:12	0	88,671596	4,773566	1,227	339,8256	1,114	86,918	0	1015,5	8,2	9,7	9,6	1	1	1	1	1	1	1	1	1	0	1	-28,541226	275,556277	298,365828	0
15.01.2021	12:59:13	0	87,967837	2,841409	1,24575	343,116	1,115	86,936	0	1015,4	8,2	9,7	9,6	1	1	1	1	1	1	1	1	1	0	1	-29,809725	275,426384	296,481371	0
15.01.2021	12:59:14	0	88,788233	4,65991	1,23075	347,3244	1,108	86,93	0	1015,44	8,2	9,8	9,6	1	1	1	1	1	1	1	1	1	0	1	-25,863284	275,548234	301,005603	0
15.01.2021	12:59:15	0	88,436968	3,068722	1,21275	341,2368	1,11	86,927	0	1015,34	8,2	9,7	9,6	1	1	1	1	1	1	1	1	1	0	1	-25,158562	275,596543	301,939614	0
15.01.2021	12:59:16	0	88,085081	2,955066	1,185	339,4656	1,113	86,922	0	1015,52	8,2	9,7	9,6	1	1	1	1	1	1	1	1	1	0	1	-27,343199	275,528943	299,434165	0
15.01.2021	12:59:17	0	88,554226	3,296035	1,203	332,4564	1,111	86,924	0	1015,36	8,2	9,7	9,6	1	1	1	1	1	1	1	1	1	0	1	-29,598309	275,410408	296,617089	0
15.01.2021	12:59:18	0	88,671501	2,84141	1,18575	339,1776	1,111	86,926	0	1015,3	8,2	9,7	9,6	1	1	1	1	1	1	1	1	1	0	1	-27,484144	275,520911	299,255119	0
15.01.2021	12:59:19	0	89,023356	4,318943	1,167	352,8468	1,113	86,93	0	1015,34	8,3	9,7	9,6	1	1	1	1	1	1	1	1	1	0	1	-30,232558	275,413603	295,997973	0
15.01.2021	12:59:20	0	88,906049	2,727754	1,1445	351,0936	1,11	86,941	0	1015,34	8,2	9,7	9,6	1	1	1	1	1	1	1	1	1	0	1	-27,413672	275,538586	299,40944	0
15.01.2021	12:59:21	0	89,0227	4,318944	1,0905	324,2412	1,111	86,929	0	1015,42	8,2	9,8	9,6	1	1	1	1	1	1	1	1	1	0	1	-26,779422	275,594931	300,3111	0
15.01.2021	12:59:22	0	88,788727	3,523349	1,04475	330,0588	1,112	86,953	0	1015,46	8,2	9,7	9,6	1	1	1	1	1	1	1	1	1	0	1	-28,823115	275,541801	298,015252	0
15.01.2021	12:59:23	0	89,257247	3,864319	1,05075	351,3528	1,115	86,967	0	1015,4	8,2	9,8	9,6	1	1	1	1	1	1	1	1	1	0	1	-28,964059	275,583649	298,072906	0
15.01.2021	12:59:24	0	88,554115	2,614098	1,068	350,694	1,118	86,97	0	1015,52	8,2	9,7	9,6	1	1	1	1	1	1	1	1	1	0	1	-28,188865	275,549842	298,687653	0
15.01.2021	12:59:25	0	89,37513	2,955068	1,065	340,6716	1,116	86,971	0	1015,48	8,2	9,7	9,6	1	1	1	1	1	1	1	1	1	0	1	-28,400282	275,450373	298,004505	0
15.01.2021	12:59:26	0	89,257199	3,637029	1,00125	327,798	1,108	86,967	0	1015,22	8,2	9,8	9,5	1	1	1	1	1	1	1	1	1	0	1	-29,175476	275,60622	297,968641	0
15.01.2021	12:59:27	0	89,023227	2,386786	0,9555	311,7276	1,113	86,974	0	1015,46	8,2	9,7	9,6	1	1	1	1	1	1	1	1	1	0	1	-23,960536	275,496835	302,664536	0
15.01.2021	12:59:28	0	89,375082	4,091634	0,912	314,8884	1,111	86,986	0	1015,34	8,2	9,7	9,6	1	1	1	1	1	1	1	1	1	0	1	-25,651868	275,599768	301,461619	0
15.01.2021	12:59:29	0	89,374439	2,72774	0,8925	327,8376	1,108	86,984	0	1015,4	8,2	9,8	9,7	1	1	1	1	1	1	1	1	1	0	1	-26,0747	275,506462	300,596027	0
15.01.2021	12:59:30	0	89,139845	3,637008	0,9825	322,8552	1,118	86,988	0	1015,44	8,3	9,8	9,6	1	1	1	1	1	1	1	1	1	0	1	-23,255814	275,594931	303,834708	0
15.01.2021	12:59:31	0	89,726275	4,432604	1,01475	320,4108	1,121	86,997	0	1015,46	8,2	9,8	9,6	1	1	1	1	1	1	1	1	1	0	1	-32,135307	275,514488	294,573488	0
15.01.2021	12:59:32	0	89,726258	2,500444	1,00425	328,9824	1,117	87,007	0	1015,44	8,2	9,8	9,6	1	1	1	1	1	1	1	1	1	0	1	-26,356589	275,582038	300,672728	0
15.01.2021	12:59:33	0	89,609581	3,637009	1,014	334,2168	1,119	87	0	1015,4	8,3	9,7	9,6	1	1	1	1	1	1	1	1	1	0	1	-29,31642	275,546625	297,544836	0
15.01.2021	12:59:34	0	89,492274	2,841414	0,966	333,576	1,12	87,011	0	1015,44	8,2	9,7	9,6	1	1	1	1	1	1	1	1	1	0	1	-27,69556	275,419992	298,565247	0
15.01.2021	12:59:35	0	89,961418	3,63701	0,9735	330,0876	1,109	86,991	0	1015,32	8,3	9,7	9,6	1	1	1	1	1	1	1	1	1	0	1	-27,413672	275,527337	299,356071	0
15.01.2021	12:59:36	0	90,195982	5,341859	0,98175	328,5324	1,121	86,998	0	1015,4	8,2	9,7	9,6	1	1	1	1	1	1	1	1	1	0	1	-27,484144	275,429581	298,822101	0
15.01.2021	12:59:37	0	89,843466	3,409697	1,05675	335,2968	1,121	87,019	0	1015,36	8,2	9,8	9,6	1	1	1	1	1	1	1	1	1	0	1	-24,947146	275,527337	301,822597	0
15.01.2021	12:59:38	0	89,960739	4,31895	1,09425	342,0396	1,116	87,016	0	1015,34	8,2	9,8	9,6	1	1	1	1	1	1	1	1	1	0	1	-30,443975	275,602994	296,684826	0
15.01.2021	12:59:39	0	89,960722	3,637011	1,15575	346,8672	1,12	87,012	0	1015,4	8,3	9,8	9,6	1	1	1	1	1	1	1	1	1	0	1	-33,474278	275,60622	293,669839	0
15.01.2021	12:59:40	0	90,312573	3,296042	1,17675	344,79	1,113	87,004	0	1015,4	8,3	9,8	9,6	1	1	1	1	1	1	1	1	1	0	1	-27,131783	275,500044	299,508504	0
15.01.2021	12:59:41	0	90,547769	4,432608	1,19325	346,4784	1,12	87,026	0	1015,48	8,3	9,7	9,6	1	1	1	1	1	1	1	1	1	0	1	-25,863284	275,575594	301,135449	0
15.01.2021	12:59:42	0	90,430462	2,273133	1,18575	348,0948	1,121	87,034	0	1015,42	8,3	9,7	9,6	1	1	1	1	1	1	1	1	1	0	1	-27,906977	275,405618	298,285726	0
15.01.2021	12:59:43	0	90,898968	4,659922	1,221	334,9008	1,121	87,008	0	1015,62	8,3	9,8	9,6	1	1	1	1	1	1	1	1	1	0	1	-28,400282	275,469585	298,095579	0
15.01.2021	12:59:44	0	90,547719	3,637013	1,239	344,2788	1,122	87,014	0	1015,38	8,3	9,7	9,6	1	1	1	1	1	1	1	1	1	0	1	-28,541226	275,567543	298,419293	0
15.01.2021	12:59:45	0	90,664357	2,72776	1,215	345,7764	1,119	87,023	0	1015,3	8,3	9,8	9,6	1	1	1	1	1	1	1	1	1	0	1	-31,148696	275,590095	295,918868	0
15.01.2021	12:59:46	0	90,899555	3,296043	1,21575	341,5968	1,12	87,02	0	1015,46	8,3	9,7	9,6	1	1	1	1	1	1	1	1	1	0	1	-27,131783	275,533764	299,668452	0
15.01.2021	12:59:47	0	90,899538	4,546267	1,18125	350,28	1,113	87	0	1015,36	8,2	9,7	9,6	1	1	1	1	1	1	1	1	1	0	1	-26,638478	275,423188	299,637473	0
15.01.2021	12:59:48	0	91,134101	4,318954	1,1505	347,2488	1,12	87,003	0	1015,34	8,3	9,7	9,6	1	1	1	1	1	1	1	1	1	0	1	-26,920366	275,492024	299,681887	0
15.01.2021	12:59:49	0	90,547636	2,727761	1,08375	351,036	1,118	86,995	0	1015,48	8,3	9,7	9,6	1	1	1	1	1	1	1	1	1	0	1	-27,625088	275,423188	298,650862	0
15.01.2021	12:59:50	0	91,016777	3,523358	1,0725	351,054	1,121	87,003	0	1015,46	8,3	9,7	9,6	1	1	1	1	1	1	1	1	1	0	1	-29,880197	275,557886	297,034492	0
15.01.2021	12:59:51	0	91,25134	4,659926	1,008	346,662	1,119	87,001	0	1015,28	8,3	9,7	9,6	1	1	1	1	1	1	1	1	1	0	1	-29,245948	275,577205	297,76043	0
15.01.2021	12:59:52	0	91,368613	4,432613	0,987	348,7536	1,12	87,005	0	1015,36	8,3	9,7	9,6	1	1	1	1	1	1	1	1	1	0	1	-28,259338	275,426384	298,031759	0
15.01.2021	12:59:53	0	91,134017	2,273135	0,98175	349,4448	1,122	86,985	0	1015,36	8,3	9,7	9,6	1	1	1	1	1	1	1	1	1	0	1	-29,739253	275,480801	296,809786	0
15.01.2021	12:59:54	0	91,720448	4,659927	0,96825	350,694	1,122	87,009	0	1015,36	8,3	9,7	9,6	1	1	1	1	1	1	1	1	1	0	1	-26,568006	275,440774	299,791284	0
15.01.2021	12:59:55	0	91,016693	3,068733	0,9825	345,0708	1,113	86,991	0	1015,36	8,3	9,7	9,6	1	1	1	1	1	1	1	1	1	0	1	-24,665257	275,448773	301,731945	0
15.01.2021	12:59:56	0	91,251255	2,955076	0,95925	321,1812	1,122	86,993	0	1015,32	8,3	9,7	9,6	1	1	1	1	1	1	1	1	1	0	1	-30,655391	275,4152	295,582708	0
15.01.2021	12:59:57	0	91,485817	3,068733	0,96225	322,6284	1,114	86,991	0	1015,42	8,3	9,7	9,6	1	1	1	1	1	1	1	1	1	0	1	-30,373502	275,492024	296,228751	0
15.01.2021	12:59:58	0	91,368511	2,500449	0,96675	330,1128	1,118	86,986	0	1015,48	8,3	9,7	9,6	1	1	1	1	1	1	1	1	1	0	1	-29,105004	275,435976	297,231548	0
15.01.2021	12:59:59	0	92,18952	4,659929	0,93075	337,6332	1,113	86,962	0	1015,3	8,3	9,7	9,6	1	1	1	1	1	1	1	1	1	0	1	-26,286117	275,482404	300,270522	0
15.01.2021	13:00:00	0	91,954907	2,841421	0,97725	335,412	1,12	86,966	0	1015,38	8,2	9,7	9,6	1	1	1	1	1	1	1	1	1	0	1	-27,484144	275,596543	299,614032	0
15.01.2021	13:00:01	0	91,954907	2,841421	0,97725	335,412	1,12	86,966	0	1015,38	8,2	9,7	9,6	1	1	1	1	1	1	1	1	1	0	1	-29,668781	275,520911	297,070482	0
15.01.2021	13:00:02	0	92,306758	3,523362	1,02375	332,0496	1,121	86,968	0	1015,44	8,3	9,7	9,6	1	1	1	1	1	1	1	1	1	0	1	-30,93728	275,443973	295,437173	0
15.01.2021	13:00:03	0	91,954873	2,841404	1,044	333,2124	1,121	86,955	0	1015,44	8,2	9,7	9,7	1	1	1	1	1	1	1	1	1	0	1	-30,091614	275,479199	296,449826	0
15.01.2021	13:00:04	0	91,954856	2,95506	1,017	336,348	1,121	86,96	0	1015,34	8,2	9,7	9,7	1	1	1	1	1	1	1	1	1	0	1	-25,863284	275,442374	300,503587	0
15.01.2021	13:00:05	0	92,423996	2,955096	1,00875	333,9216	1,116	86,935	0	1015,44	8,3	9,7	9,5	1	1	1	1	1	1	1	1	1	0	1	-31,642001	275,596543	295,456175	0
15.01.2021	13:00:06	0	92,658557	4,546302	1,03575	329,6808	1,117	86,947	0	1015,48	8,3	9,7	9,5	1	1	1	1	1	1	1	1	1	0	1	-29,31642	275,493628	297,293439	0
15.01.2021	13:00:07	0	92,54125	4,432645	1,02075	331,1676	1,115	86,948	0	1015,22	8,3	9,7	9,5	1	1	1	1	1	1	1	1	1	0	1	-27,766032	275,609446	299,393404	0
15.01.2021	13:00:08	0	92,541233	4,432619	1,06575	336,4632	1,112	86,917	0	1015,4	8,3	9,7	9,6	1	1	1	1	1	1	1	1	1	0	1	-30,655391	275,472789	295,85566	0
15.01.2021	13:00:09	0	92,423926	2,727749	1,05825	335,4408	1,119	86,952	0	1015,4	8,2	9,7	9,7	1	1	1	1	1	1	1	1	1	0	1	-32,980973	275,601381	294,14017	0
15.01.2021	13:00:10	0	92,775777	4,546277	1,0185	324,09	1,117	86,928	0	1015,2	8,3	9,7	9,6	1	1	1	1	1	1	1	1	1	0	1	-33,192389	275,469585	293,303472	0
15.01.2021	13:00:11	0	92,65847	5,000905	1,0545	338,3712	1,113	86,914	0	1015,22	8,3	9,7	9,6	1	1	1	1	1	1	1	1	1	0	1	-29,739253	275,434377	296,589721	0
15.01.2021	13:00:12	0	93,01032	5,114562	1,05525	355,4568	1,117	86,927	0	1015,32	8,2	9,7	9,6	1	1	1	1	1	1	1	1	1	0	1	-27,554616	275,564323	299,390624	0
15.01.2021	13:00:13	0	92,658435	4,318964	1,0125	343,5012	1,117	86,928	0	1015,28	8,2	9,7	9,6	1	1	1	1	1	1	1	1	1	0	1	-27,413672	275,586872	299,638591	0
15.01.2021	13:00:14	0	93,244863	4,432621	0,97425	341,4312	1,114	86,918	0	1015,44	8,2	9,7	9,6	1	1	1	1	1	1	1	1	1	0	1	-23,960536	275,493628	302,649323	0
15.01.2021	13:00:15	0	93,010268	3,977994	0,95025	348,6456	1,11	86,919	0	1015,5	8,2	9,7	9,6	1	1	1	1	1	1	1	1	1	0	1	-28,893587	275,598156	298,212244	0
15.01.2021	13:00:16	0	93,127539	3,864337	0,918	348,048	1,115	86,911	0	1015,3	8,3	9,7	9,6	1	1	1	1	1	1	1	1	1	0	1	-31,501057	275,591707	295,574159	0
15.01.2021	13:00:17	0	93,244811	5,000907	0,912	345,1356	1,113	86,916	0	1015,36	8,3	9,7	9,6	1	1	1	1	1	1	1	1	1	0	1	-27,343199	275,434377	298,985775	0
15.01.2021	13:00:18	0	93,479371	4,205309	0,89325	333,4968	1,111	86,911	0	1015,4	8,3	9,7	9,6	1	1	1	1	1	1	1	1	1	0	1	-26,849894	275,583649	300,18707	0
15.01.2021	13:00:19	0	93,36141	2,500454	0,93675	332,82	1,104	86,909	0	1015,32	8,3	9,8	9,6	1	1	1	1	1	1	1	1	1	0	1	-34,954193	275,424786	291,32933	0
15.01.2021	13:00:20	0	93,362047	4,20531	0,933	342,396	1,112	86,891	0	1015,34	8,2	9,7	9,6	1	1	1	1	1	1	1	1	1	0	1	-28,541226	275,569153	298,426935	0
15.01.2021	13:00:21	0	93,479318	4,887252	0,88725	343,4868	1,118	86,902	0	1015,36	8,2	9,7	9,6	1	1	1	1	1	1	1	1	1	0	1	-28,047921	275,440774	298,311369	0
15.01.2021	13:00:22	0	93,831167	3,523368	0,85125	322,6644	1,112	86,895	0	1015,52	8,3	9,7	9,6	1	1	1	1	1	1	1	1	1	0	1	-27,413672	275,607833	299,738105	0
15.01.2021	13:00:23	0	93,479282	3,06874	0,89625	316,2168	1,112	86,896	0	1015,46	8,3	9,7	9,6	1	1	1	1	1	1	1	1	1	0	1	-24,383369	275,556277	302,523685	0
15.01.2021	13:00:24	0	93,831131	3,978021	0,984	330,0624	1,105	86,898	0	1015,28	8,2	9,7	9,5	1	1	1	1	1	1	1	1	1	0	1	-27,131783	275,413603	299,098748	0
15.01.2021	13:00:25	0	93,831113	3,409712	1,01775	344,6028	1,115	86,898	0	1015,38	8,3	9,7	9,6	1	1	1	1	1	1	1	1	1	0	1	-25,440451	275,536979	301,375034	0
15.01.2021	13:00:26	0	93,479229	2,614113	1,07325	333,1296	1,113	86,895	0	1015,42	8,3	9,7	9,6	1	1	1	1	1	1	1	1	1	0	1	-27,836505	275,594931	299,254017	0
15.01.2021	13:00:27	0	93,831078	4,659913	1,13475	319,194	1,114	86,903	0	1015,48	8,2	9,7	9,7	1	1	1	1	1	1	1	1	1	0	1	-29,034531	275,448773	297,36267	0
15.01.2021	13:00:28	0	93,948349	2,386799	1,16625	328,5144	1,104	86,898	0	1015,36	8,2	9,7	9,6	1	1	1	1	1	1	1	1	1	0	1	-30,655391	275,508067	296,022948	0
15.01.2021	13:00:29	0	93,948331	3,409713	1,17675	342,0288	1,103	86,886	0	1015,38	8,2	9,7	9,6	1	1	1	1	1	1	1	1	1	0	1	-26,920366	275,599768	300,19312	0
15.01.2021	13:00:30	0	94,065602	4,773599	1,1325	338,3064	1,11	86,887	0	1015,28	8,3	9,7	9,6	1	1	1	1	1	1	1	1	1	0	1	-28,964059	275,5177	297,759968	0
15.01.2021	13:00:31	0	94,534739	4,318971	1,1145	337,9788	1,111	86,882	0	1015,24	8,2	9,7	9,6	1	1	1	1	1	1	1	1	1	0	1	-32,487667	275,413603	293,742864	0
15.01.2021	13:00:32	0	94,417432	4,091657	1,08825	338,3856	1,11	86,891	0	1015,32	8,3	9,7	9,6	1	1	1	1	1	1	1	1	1	0	1	-24,171952	275,480801	302,377087	0
15.01.2021	13:00:33	0	93,948259	4,091658	1,0905	345,0204	1,109	86,879	0	1015,3	8,2	9,7	9,6	1	1	1	1	1	1	1	1	1	0	1	-26,215645	275,432778	300,105752	0
15.01.2021	13:00:34	0	94,182818	3,182401	1,0725	346,0716	1,109	86,879	0	1015,34	8,3	9,7	9,6	1	1	1	1	1	1	1	1	1	0	1	-27,554616	275,590095	299,512948	0
15.01.2021	13:00:35	0	93,948223	2,386801	1,0665	349,8696	1,112	86,894	0	1015,4	8,2	9,7	9,6	1	1	1	1	1	1	1	1	1	0	1	-24,524313	275,488817	302,062733	0
15.01.2021	13:00:36	0	94,534648	4,546315	1,0725	338,7528	1,112	86,905	0	1015,42	8,2	9,7	9,5	1	1	1	1	1	1	1	1	1	0	1	-25,933756	275,586872	301,118507	0
15.01.2021	13:00:37	0	94,182764	4,205342	1,11525	350,2836	1,111	86,881	0	1015,4	8,3	9,7	9,5	1	1	1	1	1	1	1	1	1	0	1	-24,524313	275,448773	301,872889	0
15.01.2021	13:00:38	0	94,417323	3,409716	1,24575	345,0168	1,103	86,875	0	1015,4	8,2	9,7	9,6	1	1	1	1	1	1	1	1	1	0	1	-34,813249	275,572373	292,170196	0
15.01.2021	13:00:39	0	94,651882	2,727773	1,272	349,398	1,104	86,889	0	1015,34	8,2	9,7	9,6	1	1	1	1	1	1	1	1	1	0	1	-32,135307	275,55145	294,748845	0
15.01.2021	13:00:40	0	94,182709	3,068727	1,1955	1,9116	1,11	86,892	0	1015,42	8,2	9,7	9,7	1	1	1	1	1	1	1	1	1	0	1	-25,651868	275,427983	300,646803	0
15.01.2021	13:00:41	0	94,651845	2,727774	1,11	355,7844	1,103	86,873	0	1015,34	8,2	9,7	9,6	1	1	1	1	1	1	1	1	1	0	1	-24,876674	275,543409	301,969322	0
15.01.2021	13:00:42	0	94,534539	3,409718	1,089	332,2116	1,111	86,872	0	1015,44	8,3	9,7	9,6	1	1	1	1	1	1	1	1	1	0	1	-30,232558	275,437575	296,111572	0
15.01.2021	13:00:43	0	94,53452	3,409697	1,1385	336,1392	1,114	86,875	0	1015,48	8,2	9,7	9,7	1	1	1	1	1	1	1	1	1	0	1	-28,047921	275,480801	298,501118	0
15.01.2021	13:00:44	0	94,886367	4,205319	1,12425	340,2108	1,107	86,889	0	1015,4	8,2	9,7	9,6	1	1	1	1	1	1	1	1	1	0	1	-23,396758	275,434377	302,932216	0
15.01.2021	13:00:45	0	94,534484	3,75069	1,155	327,1068	1,108	86,876	0	1015,38	8,2	9,7	9,6	1	1	1	1	1	1	1	1	1	0	1	-26,286117	275,52573	300,476004	0
15.01.2021	13:00:46	0	94,886331	4,887264	1,1835	340,596	1,108	86,874	0	1015,58	8,2	9,7	9,6	1	1	1	1	1	1	1	1	1	0	1	-24,312896	275,602994	302,815904	0
15.01.2021	13:00:47	0	94,76836	5,114579	1,167	351,0972	1,109	86,874	0	1015,42	8,2	9,8	9,6	1	1	1	1	1	1	1	1	1	0	1	-25,229035	275,564323	301,716205	0
15.01.2021	13:00:48	0	94,534429	3,182424	1,17825	328,6548	1,109	86,888	0	1015,46	8,2	9,7	9,5	1	1	1	1	1	1	1	1	1	0	1	-26,638478	275,593319	300,444391	0
15.01.2021	13:00:49	0	95,355429	4,65995	1,1205	338,4396	1,103	86,875	0	1015,2	8,2	9,7	9,6	1	1	1	1	1	1	1	1	1	0	1	-30,021142	275,617515	297,176608	0
15.01.2021	13:00:50	0	94,886257	1,932175	1,1655	345,7944	1,107	86,876	0	1015,4	8,2	9,7	9,6	1	1	1	1	1	1	1	1	1	0	1	-23,608175	275,522518	303,138707	0
15.01.2021	13:00:51	0	94,651662	2,614103	1,242	342,8136	1,11	86,878	0	1015,44	8,2	9,7	9,7	1	1	1	1	1	1	1	1	1	0	1	-25,933756	275,604606	301,202702	0
15.01.2021	13:00:52	0	94,768932	2,15949	1,29225	340,4124	1,109	86,858	0	1015,46	8,2	9,7	9,6	1	1	1	1	1	1	1	1	1	0	1	-29,809725	275,607833	297,342051	0
15.01.2021	13:00:53	0	95,238066	4,546322	1,323	340,596	1,104	86,887	0	1015,42	8,2	9,7	9,5	1	1	1	1	1	1	1	1	1	0	1	-26,215645	275,464781	300,257438	0
15.01.2021	13:00:54	0	94,651607	2,500447	1,4055	340,938	1,105	86,876	0	1015,36	8,2	9,7	9,7	1	1	1	1	1	1	1	1	1	0	1	-30,232558	275,429581	296,073687	0
15.01.2021	13:00:55	0	95,003453	3,864328	1,3935	342,7128	1,111	86,875	0	1015,34	8,2	9,7	9,7	1	1	1	1	1	1	1	1	1	0	1	-31,712474	275,561104	295,21749	0
15.01.2021	13:00:56	0	95,120056	2,159491	1,4295	335,3112	1,103	86,885	0	1015,42	8,3	9,8	9,6	1	1	1	1	1	1	1	1	1	0	1	-28,682171	275,607833	298,469606	0
15.01.2021	13:00:57	0	95,237992	3,409702	1,44975	330,3756	1,102	86,868	0	1015,32	8,2	9,7	9,7	1	1	1	1	1	1	1	1	1	0	1	-25,581395	275,488817	301,00565	0
15.01.2021	13:00:58	0	95,355261	3,864329	1,46175	331,4952	1,107	86,885	0	1015,48	8,2	9,7	9,7	1	1	1	1	1	1	1	1	1	0	1	-26,920366	275,564323	300,024873	0
15.01.2021	13:00:59	0	95,002713	2,614105	1,419	328,2552	1,102	86,875	0	1015,4	8,2	9,8	9,7	1	1	1	1	1	1	1	1	1	0	1	-24,806202	275,439175	301,545508	0
15.01.2021	13:01:00	0	95,003341	2,386807	1,35225	346,986	1,107	86,863	0	1015,16	8,2	9,7	9,6	1	1	1	1	1	1	1	1	1	0	1	-33,54475	275,543409	293,301246	0
15.01.2021	13:01:01	0	95,003341	2,386807	1,35225	346,986	1,107	86,863	0	1015,16	8,2	9,7	9,6	1	1	1	1	1	1	1	1	1	0	1	-22,762509	275,43118	303,551312	0
15.01.2021	13:01:02	0	95,12061	2,955094	1,28325	331,524	1,104	86,874	0	1015,4	8,2	9,7	9,6	1	1	1	1	1	1	1	1	1	0	1	-27,69556	275,416797	298,550108	0
15.01.2021	13:01:03	0	95,355168	3,409724	1,1985	331,4772	1,107	86,874	0	1015,34	8,2	9,7	9,6	1	1	1	1	1	1	1	1	1	0	1	-27,343199	275,556277	299,563854	0
15.01.2021	13:01:04	0	95,355149	2,955077	1,11975	328,5504	1,102	86,877	0	1015,24	8,2	9,7	9,7	1	1	1	1	1	1	1	1	1	0	1	-34,108527	275,423188	292,167423	0
15.01.2021	13:01:05	0	95,472418	4,319011	0,99075	333,2592	1,105	86,878	0	1015,36	8,2	9,7	9,5	1	1	1	1	1	1	1	1	1	0	1	-26,356589	275,575594	300,642143	0
15.01.2021	13:01:06	0	95,589018	2,386822	0,91275	337,2372	1,106	86,887	0	1015,36	8,2	9,8	9,5	1	1	1	1	1	1	1	1	1	0	1	-30,373502	275,4152	295,864597	0
15.01.2021	13:01:07	0	95,588999	4,659958	0,8535	341,3268	1,097	86,883	0	1015,46	8,2	9,8	9,6	1	1	1	1	1	1	1	1	1	0	1	-25,863284	275,480801	300,685755	0
15.01.2021	13:01:08	0	95,706938	4,659987	0,84225	347,2812	1,097	86,884	0	1015,36	8,2	9,7	9,5	1	1	1	1	1	1	1	1	1	0	1	-23,749119	275,474391	302,769528	0
15.01.2021	13:01:09	0	95,706919	3,523363	0,81075	342,054	1,104	86,942	0	1015,36	8,2	9,7	9,7	1	1	1	1	1	1	1	1	1	0	1	-25,229035	275,477596	301,304807	0
15.01.2021	13:01:10	0	95,589612	4,205304	0,864	338,0112	1,104	86,89	0	1015,56	8,2	9,7	9,7	1	1	1	1	1	1	1	1	1	0	1	-28,259338	275,482404	298,297301	0
15.01.2021	13:01:11	0	95,941457	4,546303	0,9825	341,7588	1,101	86,877	0	1015,4	8,2	9,7	9,6	1	1	1	1	1	1	1	1	1	0	1	-25,229035	275,599768	301,884452	0
15.01.2021	13:01:12	0	95,589574	4,773647	1,083	346,446	1,101	86,885	0	1015,38	8,2	9,7	9,5	1	1	1	1	1	1	1	1	1	0	1	-28,188865	275,598156	298,916966	0
15.01.2021	13:01:13	0	95,589555	2,84144	1,11825	340,9524	1,1	86,883	0	1015,38	8,2	9,7	9,6	1	1	1	1	1	1	1	1	1	0	1	-26,920366	275,434377	299,408608	0
15.01.2021	13:01:14	0	95,823441	3,182413	1,15125	340,92	1,095	86,879	0	1015,36	8,2	9,8	9,6	1	1	1	1	1	1	1	1	1	0	1	-24,312896	275,511277	302,380669	0
15.01.2021	13:01:15	0	95,589517	2,95508	1,17525	342,7632	1,102	86,872	0	1015,42	8,2	9,7	9,7	1	1	1	1	1	1	1	1	1	0	1	-28,188865	275,445573	298,193169	0
15.01.2021	13:01:16	0	96,057976	4,432647	1,2165	339,4188	1,095	86,857	0	1015,3	8,2	9,8	9,6	1	1	1	1	1	1	1	1	1	0	1	-30,373502	275,573984	296,617586	0
15.01.2021	13:01:17	0	95,236949	2,727783	1,236	342,8136	1,103	86,872	0	1015,36	8,2	9,8	9,6	1	1	1	1	1	1	1	1	1	0	1	-26,215645	275,443973	300,158808	0
15.01.2021	13:01:18	0	95,824036	5,000906	1,212	350,622	1,099	86,87	0	1015,22	8,2	9,7	9,7	1	1	1	1	1	1	1	1	1	0	1	-25,08809	275,496835	301,536981	0
15.01.2021	13:01:19	0	95,471485	4,205333	1,161	343,6056	1,097	86,856	0	1015,46	8,2	9,8	9,6	1	1	1	1	1	1	1	1	1	0	1	-27,272727	275,594931	299,817795	0
15.01.2021	13:01:20	0	95,70671	2,841442	1,1295	346,0176	1,097	86,867	0	1015,36	8,2	9,7	9,6	1	1	1	1	1	1	1	1	1	0	1	-27,131783	275,509672	299,554169	0
15.01.2021	13:01:21	0	95,941266	3,40973	1,1085	355,0176	1,099	86,866	0	1015,36	8,2	9,7	9,6	1	1	1	1	1	1	1	1	1	0	1	-24,665257	275,432778	301,65614	0
15.01.2021	13:01:22	0	95,471428	2,500484	1,10175	356,1624	1,1	86,88	0	1015,26	8,2	9,8	9,5	1	1	1	1	1	1	1	1	1	0	1	-27,554616	275,487213	299,024827	0
15.01.2021	13:01:23	0	95,472077	4,318966	1,1205	0,4716	1,1	86,852	0	1015,44	8,2	9,7	9,7	1	1	1	1	1	1	1	1	1	0	1	-24,242424	275,435976	302,094128	0
15.01.2021	13:01:24	0	95,940536	3,182397	1,08525	0,4644	1,098	86,85	0	1015,36	8,2	9,8	9,7	1	1	1	1	1	1	1	1	1	0	1	-24,524313	275,463179	301,941178	0
15.01.2021	13:01:25	0	95,823902	2,841426	1,008	359,8812	1,09	86,825	0	1015,24	8,2	9,7	9,7	1	1	1	1	1	1	1	1	1	0	1	-23,819591	275,561104	303,110372	0
15.01.2021	13:01:26	0	96,175745	4,659967	0,9645	353,9268	1,099	86,823	0	1015,48	8,2	9,7	9,6	1	1	1	1	1	1	1	1	1	0	1	-23,46723	275,604606	303,669228	0
15.01.2021	13:01:27	0	95,823192	2,500455	1,03875	348,3144	1,092	86,799	0	1015,36	8,2	9,8	9,7	1	1	1	1	1	1	1	1	1	0	1	-28,893587	275,511277	297,799978	0
15.01.2021	13:01:28	0	95,940459	3,864364	1,16025	340,1172	1,091	86,809	0	1015,36	8,2	9,8	9,6	1	1	1	1	1	1	1	1	1	0	1	-23,890063	275,434377	302,438911	0
15.01.2021	13:01:29	0	95,94044	3,750729	1,2435	332,478	1,096	86,809	0	1015,42	8,2	9,8	9,5	1	1	1	1	1	1	1	1	1	0	1	-30,725863	275,480801	295,823175	0
15.01.2021	13:01:30	0	95,941093	3,296095	1,30725	341,1972	1,086	86,794	0	1015,38	8,2	9,7	9,5	1	1	1	1	1	1	1	1	1	0	1	-30,091614	275,596543	297,006562	0
15.01.2021	13:01:31	0	96,058361	2,955085	1,3245	342,3816	1,089	86,779	0	1015,3	8,2	9,7	9,7	1	1	1	1	1	1	1	1	1	0	1	-24,031008	275,469585	302,464854	0
15.01.2021	13:01:32	0	96,175629	3,978023	1,3005	345,0456	1,093	86,788	0	1015,36	8,2	9,7	9,6	1	1	1	1	1	1	1	1	1	0	1	-32,135307	275,495231	294,482158	0
15.01.2021	13:01:33	0	96,292222	4,773628	1,2495	348,0084	1,092	86,781	0	1015,34	8,2	9,8	9,6	1	1	1	1	1	1	1	1	1	0	1	-22,410148	275,602994	304,718652	0
15.01.2021	13:01:34	0	96,05763	3,296077	1,25925	354,3048	1,09	86,78	0	1015,36	8,2	9,8	9,6	1	1	1	1	1	1	1	1	1	0	1	-25,863284	275,540194	300,967455	0
15.01.2021	13:01:35	0	96,527433	5,000914	1,25025	351,3528	1,09	86,787	0	1015,44	8,3	9,7	9,7	1	1	1	1	1	1	1	1	1	0	1	-23,185342	275,607833	303,966435	0
15.01.2021	13:01:36	0	96,292164	3,523393	1,281	348,3108	1,089	86,783	0	1015,36	8,2	9,8	9,6	1	1	1	1	1	1	1	1	1	0	1	-24,242424	275,53055	302,542563	0
15.01.2021	13:01:37	0	96,058245	4,546341	1,25175	346,8888	1,09	86,777	0	1015,24	8,2	9,7	9,5	1	1	1	1	1	1	1	1	1	0	1	-26,145173	275,619129	301,060242	0
15.01.2021	13:01:38	0	95,940266	3,068762	1,17075	339,3828	1,085	86,765	0	1015,3	8,2	9,8	9,6	1	1	1	1	1	1	1	1	1	0	1	-23,326286	275,577205	303,680091	0
15.01.2021	13:01:39	0	96,058206	4,205367	1,1385	340,2252	1,084	86,76	0	1015,24	8,2	9,7	9,5	1	1	1	1	1	1	1	1	1	0	1	-27,272727	275,477596	299,261114	0
15.01.2021	13:01:40	0	96,1748	3,63703	1,05525	336,4596	1,085	86,752	0	1015,4	8,2	9,8	9,7	1	1	1	1	1	1	1	1	1	0	1	-30,021142	275,640125	297,283987	0
15.01.2021	13:01:41	0	95,940208	4,205342	1,05225	334,1844	1,083	86,751	0	1015,22	8,3	9,8	9,6	1	1	1	1	1	1	1	1	1	0	1	-20,718816	275,565933	306,234063	0
15.01.2021	13:01:42	0	96,52662	3,182421	1,05375	341,6652	1,094	86,75	0	1015,3	8,2	9,8	9,6	1	1	1	1	1	1	1	1	1	0	1	-24,10148	275,596543	302,996696	0
15.01.2021	13:01:43	0	96,292028	3,068764	1,13625	331,488	1,082	86,742	0	1015,6	8,3	9,8	9,6	1	1	1	1	1	1	1	1	1	0	1	-23,326286	275,506462	303,344441	0
15.01.2021	13:01:44	0	96,174722	4,205369	1,17075	334,6776	1,088	86,77	0	1015,36	8,2	9,8	9,5	1	1	1	1	1	1	1	1	1	0	1	-25,72234	275,625587	301,513742	0
15.01.2021	13:01:45	0	96,40995	4,432633	1,10625	334,656	1,082	86,752	0	1015,34	8,2	9,7	9,7	1	1	1	1	1	1	1	1	1	0	1	-23,396758	275,554668	303,502661	0
15.01.2021	13:01:46	0	95,94011	3,068783	1,09125	336,7476	1,084	86,766	0	1015,4	8,3	9,8	9,5	1	1	1	1	1	1	1	1	1	0	1	-26,70895	275,617515	300,4888	0
15.01.2021	13:01:47	0	96,643808	4,319003	1,1325	327,7728	1,084	86,768	0	1015,36	8,2	9,8	9,6	1	1	1	1	1	1	1	1	1	0	1	-23,960536	275,575594	303,038197	0
15.01.2021	13:01:48	0	96,174643	4,318977	1,161	339,5088	1,085	86,778	0	1015,48	8,2	9,8	9,7	1	1	1	1	1	1	1	1	1	0	1	-25,440451	275,472789	301,0706	0
15.01.2021	13:01:49	0	96,29191	3,523376	1,15575	337,2156	1,082	86,773	0	1015,26	8,2	9,8	9,7	1	1	1	1	1	1	1	1	1	0	1	-24,876674	275,434377	301,4523	0
15.01.2021	13:01:50	0	96,526462	4,660006	1,20675	322,0164	1,084	86,78	0	1015,4	8,2	9,8	9,5	1	1	1	1	1	1	1	1	1	0	1	-27,202255	275,578816	299,811768	0
15.01.2021	13:01:51	0	96,644406	4,432636	1,29075	343,494	1,08	86,785	0	1015,34	8,3	9,7	9,7	1	1	1	1	1	1	1	1	1	0	1	-23,960536	275,549842	302,915983	0
15.01.2021	13:01:52	0	96,292525	2,955108	1,34025	330,696	1,083	86,786	0	1015,36	8,3	9,7	9,6	1	1	1	1	1	1	1	1	1	0	1	-21,141649	275,445573	305,240386	0
15.01.2021	13:01:53	0	96,291831	2,500477	1,37925	324,0432	1,079	86,776	0	1015,32	8,2	9,8	9,6	1	1	1	1	1	1	1	1	1	0	1	-26,427061	275,48561	300,144779	0
15.01.2021	13:01:54	0	96,057239	2,841434	1,41525	326,3616	1,083	86,805	0	1015,48	8,3	9,8	9,7	1	1	1	1	1	1	1	1	1	0	1	-24,735729	275,60622	302,408388	0
15.01.2021	13:01:55	0	96,644326	3,182425	1,39275	322,2432	1,08	86,784	0	1015,26	8,2	9,7	9,6	1	1	1	1	1	1	1	1	1	0	1	-22,128259	275,445573	304,253776	0
15.01.2021	13:01:56	0	96,64363	4,319006	1,3395	319,2408	1,083	86,799	0	1015,48	8,2	9,8	9,6	1	1	1	1	1	1	1	1	1	0	1	-25,792812	275,504857	300,870304	0
15.01.2021	13:01:57	0	96,409038	3,296084	1,28025	314,4528	1,085	86,81	0	1015,34	8,2	9,8	9,6	1	1	1	1	1	1	1	1	1	0	1	-26,356589	275,61106	300,810509	0
15.01.2021	13:01:58	0	96,878162	5,000956	1,12575	317,0304	1,085	86,805	0	1015,42	8,2	9,8	9,6	1	1	1	1	1	1	1	1	1	0	1	-25,510923	275,567543	301,449596	0
15.01.2021	13:01:59	0	96,526284	4,091667	1,113	324,4104	1,082	86,805	0	1015,42	8,3	9,8	9,7	1	1	1	1	1	1	1	1	1	0	1	-22,410148	275,622357	304,810599	0
15.01.2021	13:02:00	0	96,526244	4,091692	1,2135	355,8276	1,088	86,819	0	1015,5	8,3	9,8	9,6	1	1	1	1	1	1	1	1	1	0	1	-27,554616	275,504857	299,1085	0
15.01.2021	13:02:01	0	96,526244	4,091692	1,2135	355,8276	1,088	86,819	0	1015,5	8,3	9,8	9,6	1	1	1	1	1	1	1	1	1	0	1	-24,383369	275,437575	301,960762	0
15.01.2021	13:02:02	0	96,64351	4,546298	1,16475	356,1372	1,088	86,826	0	1015,44	8,2	9,8	9,7	1	1	1	1	1	1	1	1	1	0	1	-21,916843	275,590095	305,150721	0
15.01.2021	13:02:03	0	96,291633	2,614122	1,104	349,3728	1,082	86,825	0	1015,24	8,3	9,8	9,7	1	1	1	1	1	1	1	1	1	0	1	-20,85976	275,58526	306,184853	0
15.01.2021	13:02:04	0	96,64347	4,546353	1,07925	337,1292	1,079	86,822	0	1015,28	8,3	9,8	9,5	1	1	1	1	1	1	1	1	1	0	1	-22,973925	275,565933	303,978954	0
15.01.2021	13:02:05	0	96,64345	4,659985	1,06875	344,322	1,083	86,826	0	1015,34	8,2	9,8	9,6	1	1	1	1	1	1	1	1	1	0	1	-25,651868	275,632047	301,614894	0
15.01.2021	13:02:06	0	96,878002	3,750697	1,065	359,9136	1,078	86,808	0	1015,32	8,3	9,8	9,7	1	1	1	1	1	1	1	1	1	0	1	-22,269204	275,482404	304,287435	0
15.01.2021	13:02:07	0	96,64341	3,068753	1,10175	3,0132	1,084	86,811	0	1015,34	8,3	9,8	9,7	1	1	1	1	1	1	1	1	1	0	1	-25,792812	275,52573	300,969309	0
15.01.2021	13:02:08	0	96,877962	4,091671	1,1565	358,6896	1,079	86,818	0	1015,28	8,2	9,8	9,7	1	1	1	1	1	1	1	1	1	0	1	-22,057787	275,61106	305,109311	0
15.01.2021	13:02:09	0	96,526085	3,409746	1,15875	358,8156	1,086	86,83	0	1015,38	8,3	9,8	9,6	1	1	1	1	1	1	1	1	1	0	1	-23,537703	275,450373	302,867084	0
15.01.2021	13:02:10	0	96,760636	3,750699	1,1115	355,0068	1,086	86,818	0	1015,28	8,3	9,8	9,7	1	1	1	1	1	1	1	1	1	0	1	-24,171952	275,501648	302,475944	0
15.01.2021	13:02:11	0	96,526045	3,750722	1,0785	351,0936	1,082	86,826	0	1015,42	8,3	9,8	9,6	1	1	1	1	1	1	1	1	1	0	1	-22,339676	275,437575	304,004455	0
15.01.2021	13:02:12	0	96,408739	3,637064	1,0365	351,0108	1,085	86,825	0	1015,48	8,2	9,8	9,6	1	1	1	1	1	1	1	1	1	0	1	-24,10148	275,601381	303,019663	0
15.01.2021	13:02:13	0	96,995147	4,205355	0,99975	353,2464	1,085	86,833	0	1015,42	8,2	9,8	9,6	1	1	1	1	1	1	1	1	1	0	1	-26,215645	275,469585	300,280216	0
15.01.2021	13:02:14	0	96,877841	4,432672	0,933	351,1512	1,082	86,829	0	1015,28	8,3	9,8	9,6	1	1	1	1	1	1	1	1	1	0	1	-18,393235	275,561104	308,536728	0
15.01.2021	13:02:15	0	96,64325	3,182432	0,9435	345,7836	1,083	86,819	0	1015,34	8,3	9,8	9,6	1	1	1	1	1	1	1	1	1	0	1	-24,242424	275,630432	303,016666	0
15.01.2021	13:02:16	0	96,760515	2,955098	0,96825	333,4572	1,082	86,827	0	1015,32	8,2	9,8	9,7	1	1	1	1	1	1	1	1	1	0	1	-21,282593	275,488817	305,304452	0
15.01.2021	13:02:17	0	96,643209	2,955116	0,969	333,4536	1,078	86,807	0	1015,24	8,3	9,8	9,6	1	1	1	1	1	1	1	1	1	0	1	-25,369979	275,445573	301,012056	0
15.01.2021	13:02:18	0	96,995046	3,750724	0,9285	355,8096	1,08	86,802	0	1015,32	8,3	9,8	9,6	1	1	1	1	1	1	1	1	1	0	1	-21,987315	275,520911	304,751947	0
15.01.2021	13:02:19	0	96,643169	4,546333	0,93675	348,138	1,076	86,825	0	1015,48	8,3	9,8	9,6	1	1	1	1	1	1	1	1	1	0	1	-24,383369	275,614287	302,799054	0
15.01.2021	13:02:20	0	96,87772	4,205384	0,9495	336,7404	1,078	86,816	0	1015,18	8,3	9,8	9,5	1	1	1	1	1	1	1	1	1	0	1	-24,171952	275,500044	302,468335	0
15.01.2021	13:02:21	0	96,408558	2,955099	1,035	342,3564	1,079	86,815	0	1015,4	8,3	9,8	9,7	1	1	1	1	1	1	1	1	1	0	1	-23,326286	275,60622	303,817831	0
15.01.2021	13:02:22	0	96,760394	4,205359	1,17975	348,6168	1,08	86,843	0	1015,38	8,3	9,8	9,6	1	1	1	1	1	1	1	1	1	0	1	-23,044397	275,501648	303,603498	0
15.01.2021	13:02:23	0	96,760373	3,864385	1,272	353,9196	1,073	86,823	0	1015,38	8,3	9,8	9,6	1	1	1	1	1	1	1	1	1	0	1	-19,238901	275,492024	307,363353	0
15.01.2021	13:02:24	0	96,643068	3,864385	1,311	348,0048	1,07	86,84	0	1015,28	8,2	9,8	9,6	1	1	1	1	1	1	1	1	1	0	1	-21,49401	275,464781	304,979072	0
15.01.2021	13:02:25	0	96,760333	4,432677	1,3395	345,312	1,074	86,838	0	1015,38	8,3	9,8	9,6	1	1	1	1	1	1	1	1	1	0	1	-20,718816	275,580427	306,302853	0
15.01.2021	13:02:26	0	96,525742	3,97802	1,31475	351,0612	1,077	86,828	0	1015,38	8,3	9,8	9,7	1	1	1	1	1	1	1	1	1	0	1	-23,608175	275,630432	303,650916	0
15.01.2021	13:02:27	0	96,643007	4,091703	1,29	351,3456	1,072	86,833	0	1015,26	8,3	9,8	9,6	1	1	1	1	1	1	1	1	1	0	1	-21,916843	275,455174	304,510702	0
15.01.2021	13:02:28	0	96,525701	3,182436	1,23375	354,258	1,075	86,848	0	1015,44	8,3	9,8	9,6	1	1	1	1	1	1	1	1	1	0	1	-22,269204	275,564323	304,676036	0
15.01.2021	13:02:29	0	96,760251	3,068778	1,14075	353,4768	1,078	86,828	0	1015,3	8,2	9,8	9,6	1	1	1	1	1	1	1	1	1	0	1	-24,665257	275,580427	302,356412	0
15.01.2021	13:02:30	0	96,525661	3,523412	1,12425	349,434	1,078	86,856	0	1015,52	8,3	9,8	9,6	1	1	1	1	1	1	1	1	1	0	1	-21,916843	275,609446	305,242594	0
15.01.2021	13:02:31	0	96,526316	4,43268	1,101	338,796	1,072	86,841	0	1015,26	8,3	9,7	9,6	1	1	1	1	1	1	1	1	1	0	1	-22,973925	275,445573	303,40811	0
15.01.2021	13:02:32	0	96,760868	2,95512	1,0365	340,992	1,075	86,857	0	1015,38	8,3	9,7	9,6	1	1	1	1	1	1	1	1	1	0	1	-21,423538	275,527337	305,346205	0
15.01.2021	13:02:33	0	96,525599	3,068779	1,08075	342,3348	1,08	86,871	0	1015,36	8,3	9,8	9,6	1	1	1	1	1	1	1	1	1	0	1	-21,846371	275,632047	305,420391	0
15.01.2021	13:02:34	0	96,525579	3,296077	1,10325	340,4808	1,076	86,855	0	1015,38	8,3	9,8	9,7	1	1	1	1	1	1	1	1	1	0	1	-20,155039	275,590095	306,912525	0
15.01.2021	13:02:35	0	96,760129	4,659999	1,19325	353,5272	1,074	86,863	0	1015,52	8,3	9,8	9,6	1	1	1	1	1	1	1	1	1	0	1	-23,46723	275,447173	302,922388	0
15.01.2021	13:02:36	0	96,525538	4,546341	1,22175	343,2024	1,079	86,857	0	1015,3	8,3	9,8	9,6	1	1	1	1	1	1	1	1	1	0	1	-25,792812	275,49042	300,801837	0
15.01.2021	13:02:37	0	96,525518	3,06878	1,20225	342,4176	1,077	86,854	0	1015,2	8,3	9,8	9,6	1	1	1	1	1	1	1	1	1	0	1	-23,819591	275,495231	302,797873	0
15.01.2021	13:02:38	0	96,290927	4,091708	1,212	344,7828	1,077	86,849	0	1015,42	8,3	9,8	9,6	1	1	1	1	1	1	1	1	1	0	1	-23,044397	275,516094	303,672013	0
15.01.2021	13:02:39	0	96,877331	4,432684	1,2045	343,5084	1,075	86,852	0	1015,42	8,3	9,8	9,6	1	1	1	1	1	1	1	1	1	0	1	-23,044397	275,640125	304,260731	0
15.01.2021	13:02:40	0	96,408847	2,841464	1,2315	341,2584	1,075	86,852	0	1015,5	8,3	9,7	9,6	1	1	1	1	1	1	1	1	1	0	1	-21,987315	275,607833	305,164461	0
15.01.2021	13:02:41	0	96,760005	4,546343	1,20975	342,3996	1,07	86,851	0	1015,46	8,3	9,8	9,6	1	1	1	1	1	1	1	1	1	0	1	-24,10148	275,622357	303,119267	0
15.01.2021	13:02:42	0	96,526091	4,205368	1,1955	345,3336	1,079	86,832	0	1015,4	8,3	9,7	9,6	1	1	1	1	1	1	1	1	1	0	1	-22,410148	275,456775	304,024985	0
15.01.2021	13:02:43	0	96,642679	4,205368	1,182	340,9632	1,077	86,857	0	1015,34	8,3	9,8	9,6	1	1	1	1	1	1	1	1	1	0	1	-23,255814	275,602994	303,872986	0
15.01.2021	13:02:44	0	96,17352	4,09171	1,15575	343,1592	1,077	86,837	0	1015,38	8,3	9,8	9,6	1	1	1	1	1	1	1	1	1	0	1	-21,916843	275,53055	304,868144	0
15.01.2021	13:02:45	0	96,173499	5,00098	1,149	344,7108	1,071	86,862	0	1015,56	8,3	9,8	9,6	1	1	1	1	1	1	1	1	1	0	1	-21,353066	275,644973	305,975092	0
15.01.2021	13:02:46	0	96,290763	3,750735	1,16175	343,1304	1,076	86,852	0	1015,28	8,3	9,8	9,6	1	1	1	1	1	1	1	1	1	0	1	-24,031008	275,594931	303,059514	0
15.01.2021	13:02:47	0	96,408028	4,319029	1,128	344,0628	1,067	86,839	0	1015,34	8,3	9,8	9,6	1	1	1	1	1	1	1	1	1	0	1	-22,48062	275,628816	304,7708	0
15.01.2021	13:02:48	0	96,290722	3,182443	1,137	345,4236	1,072	86,857	0	1015,42	8,3	9,8	9,6	1	1	1	1	1	1	1	1	1	0	1	-24,242424	275,575594	302,756308	0
15.01.2021	13:02:49	0	96,173417	5,000982	1,12725	342,7992	1,079	86,853	0	1015,46	8,3	9,8	9,6	1	1	1	1	1	1	1	1	1	0	1	-21,353066	275,630432	305,906025	0
15.01.2021	13:02:50	0	96,056112	2,727808	1,12425	341,2548	1,074	86,855	0	1015,38	8,3	9,8	9,6	1	1	1	1	1	1	1	1	1	0	1	-21,353066	275,556277	305,553988	0
15.01.2021	13:02:51	0	96,173376	4,660007	1,11375	339,3576	1,071	86,862	0	1015,36	8,3	9,8	9,6	1	1	1	1	1	1	1	1	1	0	1	-24,242424	275,601381	302,878719	0
15.01.2021	13:02:52	0	95,938786	4,546348	1,08675	334,5552	1,068	86,856	0	1015,24	8,3	9,8	9,6	1	1	1	1	1	1	1	1	1	0	1	-26,356589	275,636893	300,93319	0
15.01.2021	13:02:53	0	95,938765	2,614151	1,122	338,7996	1,077	86,861	0	1015,2	8,3	9,8	9,6	1	1	1	1	1	1	1	1	1	0	1	-27,836505	275,500044	298,803782	0
15.01.2021	13:02:54	0	96,173314	4,773667	1,2165	339,1056	1,068	86,858	0	1015,3	8,3	9,8	9,6	1	1	1	1	1	1	1	1	1	0	1	-23,678647	275,588483	303,381266	0
15.01.2021	13:02:55	0	95,704155	3,182445	1,2855	332,7372	1,069	86,863	0	1015,36	8,3	9,8	9,6	1	1	1	1	1	1	1	1	1	0	1	-19,520789	275,466382	306,959885	0
15.01.2021	13:02:56	0	96,173272	4,659981	1,368	339,444	1,075	86,869	0	1015,34	8,3	9,8	9,7	1	1	1	1	1	1	1	1	1	0	1	-24,312896	275,49844	302,319782	0
15.01.2021	13:02:57	0	96,173252	4,2054	1,365	344,1816	1,074	86,871	0	1015,42	8,3	9,8	9,5	1	1	1	1	1	1	1	1	1	0	1	-21,564482	275,644973	305,763676	0
15.01.2021	13:02:58	0	95,821378	2,614152	1,3335	349,4052	1,068	86,865	0	1015,48	8,3	9,8	9,6	1	1	1	1	1	1	1	1	1	0	1	-26,638478	275,527337	300,131265	0
15.01.2021	13:02:59	0	95,586788	2,614168	1,28925	330,1488	1,076	86,861	0	1015,38	8,3	9,8	9,5	1	1	1	1	1	1	1	1	1	0	1	-24,312896	275,455174	302,114649	0
15.01.2021	13:03:00	0	95,704031	4,091717	1,218	346,536	1,077	86,863	0	1015,34	8,3	9,8	9,6	1	1	1	1	1	1	1	1	1	0	1	-21,634954	275,572373	305,348491	0
15.01.2021	13:03:01	0	95,704031	4,091717	1,218	346,536	1,077	86,863	0	1015,34	8,3	9,8	9,6	1	1	1	1	1	1	1	1	1	0	1	-22,128259	275,641741	305,184545	0
15.01.2021	13:03:02	0	96,055864	4,659984	1,131	345,7548	1,07	86,849	0	1015,3	8,3	9,8	9,7	1	1	1	1	1	1	1	1	1	0	1	-22,339676	275,61106	304,827422	0
15.01.2021	13:03:03	0	95,586706	3,978036	1,09275	352,8504	1,074	86,849	0	1015,26	8,3	9,8	9,7	1	1	1	1	1	1	1	1	1	0	1	-18,745595	275,463179	307,719895	0
15.01.2021	13:03:04	0	95,821254	4,546327	1,07175	353,6424	1,078	86,863	0	1015,44	8,3	9,8	9,7	1	1	1	1	1	1	1	1	1	0	1	-22,551092	275,620743	304,661988	0
15.01.2021	13:03:05	0	95,352096	2,95513	1,0755	353,2284	1,068	86,847	0	1015,34	8,3	9,8	9,6	1	1	1	1	1	1	1	1	1	0	1	-20,436927	275,487213	306,142515	0
15.01.2021	13:03:06	0	95,821212	4,660014	1,0515	359,1432	1,072	86,846	0	1015,24	8,3	9,8	9,6	1	1	1	1	1	1	1	1	1	0	1	-23,537703	275,594931	303,552819	0
15.01.2021	13:03:07	0	95,821191	4,773673	1,0875	348,7176	1,068	86,839	0	1015,18	8,3	9,8	9,6	1	1	1	1	1	1	1	1	1	0	1	-20,648344	275,503253	306,007161	0
15.01.2021	13:03:08	0	95,352034	4,205379	1,17975	349,9128	1,065	86,832	0	1015,32	8,3	9,8	9,6	1	1	1	1	1	1	1	1	1	0	1	-22,198732	275,636893	305,091048	0
15.01.2021	13:03:09	0	95,117445	3,296108	1,2195	349,5132	1,077	86,852	0	1015,44	8,3	9,8	9,6	1	1	1	1	1	1	1	1	1	0	1	-24,876674	275,575594	302,122059	0
15.01.2021	13:03:10	0	95,351992	4,546357	1,23075	349,0812	1,069	86,849	0	1015,34	8,3	9,8	9,6	1	1	1	1	1	1	1	1	1	0	1	-27,836505	275,459977	298,613806	0
15.01.2021	13:03:11	0	95,234687	2,841473	1,248	357,7032	1,069	86,829	0	1015,32	8,3	9,8	9,6	1	1	1	1	1	1	1	1	1	0	1	-19,802678	275,591707	307,272538	0
15.01.2021	13:03:12	0	95,117383	3,068792	1,2525	354,6252	1,075	86,845	0	1015,5	8,3	9,8	9,6	1	1	1	1	1	1	1	1	1	0	1	-24,031008	275,453574	302,38895	0
15.01.2021	13:03:13	0	95,117362	2,841474	1,20225	351,0252	1,072	86,85	0	1015,42	8,3	9,8	9,6	1	1	1	1	1	1	1	1	1	0	1	-21,775899	275,503253	304,879607	0
15.01.2021	13:03:14	0	95,351909	4,319041	1,20075	357,7032	1,068	86,832	0	1015,46	8,3	9,8	9,6	1	1	1	1	1	1	1	1	1	0	1	-23,396758	275,49844	303,23592	0
15.01.2021	13:03:15	0	95,11732	4,319041	1,20225	355,8276	1,069	86,844	0	1015,36	8,3	9,8	9,6	1	1	1	1	1	1	1	1	1	0	1	-18,604651	275,598156	308,50118	0
15.01.2021	13:03:16	0	94,53088	3,40977	1,194	350,0928	1,071	86,85	0	1015,38	8,3	9,8	9,6	1	1	1	1	1	1	1	1	1	0	1	-16,27907	275,633662	310,995364	0
15.01.2021	13:03:17	0	94,882711	3,750747	1,22475	352,8072	1,07	86,84	0	1015,42	8,3	9,8	9,6	1	1	1	1	1	1	1	1	1	0	1	-21,141649	275,459977	305,308661	0
15.01.2021	13:03:18	0	94,999974	3,068775	1,30875	351,306	1,07	86,836	0	1015,32	8,3	9,8	9,7	1	1	1	1	1	1	1	1	1	0	1	-20,930233	275,52573	305,831889	0
15.01.2021	13:03:19	0	94,648102	4,432702	1,3335	344,6892	1,069	86,826	0	1015,46	8,3	9,8	9,6	1	1	1	1	1	1	1	1	1	0	1	-23,11487	275,632047	304,151892	0
15.01.2021	13:03:20	0	94,765365	3,864408	1,344	347,5872	1,071	86,847	0	1015,4	8,3	9,8	9,6	1	1	1	1	1	1	1	1	1	0	1	-20,85976	275,514488	305,849034	0
15.01.2021	13:03:21	0	94,999912	4,432703	1,3485	351,3708	1,07	86,846	0	1015,34	8,3	9,8	9,6	1	1	1	1	1	1	1	1	1	0	1	-20,084567	275,632047	307,182195	0
15.01.2021	13:03:22	0	95,117175	3,978067	1,40325	344,6352	1,066	86,832	0	1015,32	8,3	9,8	9,6	1	1	1	1	1	1	1	1	1	0	1	-22,832981	275,527337	303,936761	0
15.01.2021	13:03:23	0	94,648019	3,182454	1,38375	348,0048	1,076	86,845	0	1015,34	8,3	9,8	9,6	1	1	1	1	1	1	1	1	1	0	1	-23,255814	275,466382	303,224861	0
15.01.2021	13:03:24	0	94,530714	4,205386	1,34475	353,2104	1,069	86,85	0	1015,36	8,3	9,8	9,6	1	1	1	1	1	1	1	1	1	0	1	-20,718816	275,506462	305,951911	0
15.01.2021	13:03:25	0	94,178842	2,159523	1,326	346,8168	1,065	86,843	0	1015,46	8,3	9,8	9,6	1	1	1	1	1	1	1	1	1	0	1	-20,295983	275,65144	307,062892	0
15.01.2021	13:03:26	0	94,413389	3,182455	1,317	347,2956	1,07	86,857	0	1015,36	8,3	9,8	9,6	1	1	1	1	1	1	1	1	1	0	1	-22,269204	275,564323	304,676036	0
15.01.2021	13:03:27	0	94,296084	2,841478	1,37625	346,1616	1,072	86,851	0	1015,38	8,3	9,8	9,6	1	1	1	1	1	1	1	1	1	0	1	-20,225511	275,649823	307,125683	0
15.01.2021	13:03:28	0	94,17878	4,773684	1,39425	336,7656	1,073	86,853	0	1015,52	8,3	9,8	9,6	1	1	1	1	1	1	1	1	1	0	1	-24,453841	275,594931	302,636681	0
15.01.2021	13:03:29	0	94,061475	2,72782	1,35975	349,4988	1,063	86,843	0	1015,38	8,3	9,8	9,6	1	1	1	1	1	1	1	1	1	0	1	-20,225511	275,602994	306,903289	0
15.01.2021	13:03:30	0	94,061455	3,750752	1,35075	336,0888	1,069	86,823	0	1015,34	8,3	9,8	9,6	1	1	1	1	1	1	1	1	1	0	1	-22,762509	275,471187	303,740947	0
15.01.2021	13:03:31	0	94,296001	4,20539	1,3245	339,4368	1,059	86,845	0	1015,46	8,3	9,8	9,6	1	1	1	1	1	1	1	1	1	0	1	-22,410148	275,506462	304,260579	0
15.01.2021	13:03:32	0	93,826846	2,273184	1,34625	335,0232	1,063	86,855	0	1015,36	8,3	9,8	9,6	1	1	1	1	1	1	1	1	1	0	1	-18,181818	275,632047	309,084943	0
15.01.2021	13:03:33	0	93,944109	4,773686	1,407	340,866	1,065	86,833	0	1015,4	8,3	9,8	9,6	1	1	1	1	1	1	1	1	1	0	1	-24,10148	275,527337	302,668263	0
15.01.2021	13:03:34	0	93,944088	2,727821	1,44825	341,8884	1,066	86,86	0	1015,38	8,3	9,8	9,6	1	1	1	1	1	1	1	1	1	0	1	-20,789288	275,464781	305,683794	0
15.01.2021	13:03:35	0	93,944067	4,546369	1,47075	340,92	1,069	86,855	0	1015,34	8,3	9,8	9,6	1	1	1	1	1	1	1	1	1	0	1	-21,634954	275,656291	305,746966	0
15.01.2021	13:03:36	0	93,592196	3,978073	1,434	340,2	1,07	86,842	0	1015,36	8,3	9,8	9,6	1	1	1	1	1	1	1	1	1	0	1	-21,141649	275,480801	305,40739	0
15.01.2021	13:03:37	0	93,709459	2,727822	1,42575	340,2072	1,071	86,861	0	1015,38	8,3	9,8	9,6	1	1	1	1	1	1	1	1	1	0	1	-19,520789	275,508067	307,15755	0
15.01.2021	13:03:38	0	93,357588	2,159526	1,4895	349,8804	1,074	86,857	0	1015,34	8,3	9,8	9,6	1	1	1	1	1	1	1	1	1	0	1	-24,031008	275,482404	302,525631	0
15.01.2021	13:03:39	0	93,8267	4,77369	1,48575	344,6964	1,065	86,867	0	1015,24	8,3	9,8	9,6	1	1	1	1	1	1	1	1	1	0	1	-21,705426	275,527337	305,064316	0
15.01.2021	13:03:40	0	93,592113	3,409779	1,47	351,3744	1,068	86,861	0	1015,28	8,3	9,8	9,6	1	1	1	1	1	1	1	1	1	0	1	-20,718816	275,653057	306,64774	0
15.01.2021	13:03:41	0	93,592092	4,091735	1,44375	360	1,068	86,852	0	1015,42	8,3	9,8	9,6	1	1	1	1	1	1	1	1	1	0	1	-24,031008	275,586872	303,021255	0
15.01.2021	13:03:42	0	93,357505	4,432713	1,37625	0	1,069	86,859	0	1015,34	8,3	9,8	9,6	1	1	1	1	1	1	1	1	1	0	1	-17,758985	275,479199	308,782454	0
15.01.2021	13:03:43	0	93,474767	2,614164	1,356	350,6724	1,07	86,866	0	1015,34	8,3	9,8	9,6	1	1	1	1	1	1	1	1	1	0	1	-18,181818	275,520911	308,557444	0
15.01.2021	13:03:44	0	93,357463	4,319055	1,35225	350,2044	1,071	86,87	0	1015,3	8,3	9,8	9,6	1	1	1	1	1	1	1	1	1	0	1	-18,040874	275,633662	309,233559	0
15.01.2021	13:03:45	0	93,122876	2,614165	1,353	356,2344	1,076	86,865	0	1015,36	8,3	9,8	9,6	1	1	1	1	1	1	1	1	1	0	1	-20,295983	275,456775	306,13915	0
15.01.2021	13:03:46	0	93,240138	4,205396	1,32975	353,9484	1,073	86,862	0	1015,28	8,3	9,8	9,6	1	1	1	1	1	1	1	1	1	0	1	-17,618041	275,578816	309,395982	0
15.01.2021	13:03:47	0	93,3574	4,432716	1,29	346,752	1,066	86,866	0	1015,42	8,3	9,8	9,6	1	1	1	1	1	1	1	1	1	0	1	-19,168428	275,659526	308,22886	0
15.01.2021	13:03:48	0	93,240096	3,75076	1,25325	352,8468	1,069	86,854	0	1015,06	8,3	9,8	9,6	1	1	1	1	1	1	1	1	1	0	1	-19,943622	275,548234	306,925265	0
15.01.2021	13:03:49	0	93,240076	4,660035	1,23525	358,4808	1,074	86,878	0	1015,42	8,3	9,8	9,6	1	1	1	1	1	1	1	1	1	0	1	-15,433404	275,653057	311,933152	0
15.01.2021	13:03:50	0	93,005489	4,091739	1,2105	356,6124	1,063	86,875	0	1015,34	8,3	9,8	9,6	1	1	1	1	1	1	1	1	1	0	1	-21,564482	275,528943	305,212882	0
15.01.2021	13:03:51	0	93,240034	3,637102	1,23	358,7796	1,068	86,872	0	1015,36	8,3	9,8	9,6	1	1	1	1	1	1	1	1	1	0	1	-19,379845	275,471187	307,123611	0
15.01.2021	13:03:52	0	93,005447	2,727826	1,22925	352,4364	1,07	86,878	0	1015,3	8,3	9,8	9,6	1	1	1	1	1	1	1	1	1	0	1	-15,856237	275,635278	311,425869	0
15.01.2021	13:03:53	0	92,888143	4,2054	1,2285	349,9524	1,073	86,885	0	1015,38	8,3	9,8	9,6	1	1	1	1	1	1	1	1	1	0	1	-17,758985	275,630432	309,500105	0
15.01.2021	13:03:54	0	92,536273	2,841486	1,1835	356,1552	1,066	86,87	0	1015,34	8,3	9,8	9,6	1	1	1	1	1	1	1	1	1	0	1	-17,829457	275,475994	308,696786	0
15.01.2021	13:03:55	0	92,770818	3,750763	1,194	0,4896	1,066	86,893	0	1015,4	8,3	9,8	9,6	1	1	1	1	1	1	1	1	1	0	1	-21,141649	275,522518	305,605232	0
15.01.2021	13:03:56	0	92,536231	2,500509	1,128	359,532	1,065	86,891	0	1015,28	8,3	9,8	9,6	1	1	1	1	1	1	1	1	1	0	1	-15,926709	275,781223	312,049114	0
15.01.2021	13:03:57	0	92,653494	3,864423	1,14225	347,5584	1,07	86,883	0	1015,32	8,3	9,8	9,6	1	1	1	1	1	1	1	1	1	0	1	-21,916843	275,506462	304,753884	0
15.01.2021	13:03:58	0	92,418907	4,54638	1,107	349,8444	1,076	86,898	0	1015,28	8,3	9,8	9,6	1	1	1	1	1	1	1	1	1	0	1	-18,675123	275,632047	308,591638	0
15.01.2021	13:03:59	0	92,301603	2,38685	1,062	360	1,073	86,902	0	1015,42	8,3	9,8	9,6	1	1	1	1	1	1	1	1	1	0	1	-21,987315	275,664379	305,43303	0
15.01.2021	13:04:00	0	92,418844	3,296127	1,02	355,3668	1,068	86,899	0	1015,46	8,3	9,8	9,6	1	1	1	1	1	1	1	1	1	0	1	-21,071177	275,480801	305,477862	0
15.01.2021	13:04:01	0	92,418844	3,296127	1,02	355,3668	1,068	86,899	0	1015,46	8,3	9,8	9,6	1	1	1	1	1	1	1	1	1	0	1	-19,520789	275,503253	307,134716	0
15.01.2021	13:04:02	0	92,184258	4,091744	0,9795	5,67	1,065	86,917	0	1015,36	8,3	9,8	9,6	1	1	1	1	1	1	1	1	1	0	1	-22,762509	275,463179	303,702982	0
15.01.2021	13:04:03	0	92,30152	3,637106	0,96075	7,4916	1,068	86,908	0	1015,46	8,3	9,8	9,6	1	1	1	1	1	1	1	1	1	0	1	-17,618041	275,61106	309,549057	0
15.01.2021	13:04:04	0	92,184216	2,84149	0,93675	4,9284	1,073	86,906	0	1015,24	8,3	9,8	9,6	1	1	1	1	1	1	1	1	1	0	1	-19,450317	275,612673	307,724442	0
15.01.2021	13:04:05	0	91,94963	2,159532	0,9495	3,4092	1,072	86,941	0	1015,44	8,3	9,8	9,6	1	1	1	1	1	1	1	1	1	0	1	-20,295983	275,467984	306,192284	0
15.01.2021	13:04:06	0	92,184174	2,84149	0,93525	1,9116	1,078	86,928	0	1015,5	8,3	9,8	9,6	1	1	1	1	1	1	1	1	1	0	1	-18,534179	275,533764	308,266056	0
15.01.2021	13:04:07	0	91,949588	4,660072	0,95925	0,1332	1,076	86,934	0	1015,46	8,3	9,8	9,5	1	1	1	1	1	1	1	1	1	0	1	-19,450317	275,657908	307,939287	0
15.01.2021	13:04:08	0	92,06685	4,319066	0,9675	358,776	1,073	86,915	0	1015,34	8,3	9,8	9,6	1	1	1	1	1	1	1	1	1	0	1	-19,661734	275,557886	307,252956	0
15.01.2021	13:04:09	0	91,949547	4,660046	0,97875	356,5944	1,077	86,946	0	1015,46	8,3	9,8	9,6	1	1	1	1	1	1	1	1	1	0	1	-19,732206	275,48561	306,839635	0
15.01.2021	13:04:10	0	91,597678	4,887365	0,9615	3,3984	1,075	86,928	0	1015,28	8,3	9,8	9,6	1	1	1	1	1	1	1	1	1	0	1	-20,295983	275,664379	307,124362	0
15.01.2021	13:04:11	0	92,066787	4,432727	0,9585	5,2128	1,076	86,948	0	1015,36	8,3	9,8	9,6	1	1	1	1	1	1	1	1	1	0	1	-20,295983	275,532157	306,496627	0
15.01.2021	13:04:12	0	91,363071	2,841492	0,94575	0,8676	1,073	86,937	0	1015,38	8,3	9,8	9,6	1	1	1	1	1	1	1	1	1	0	1	-21,987315	275,654674	305,386923	0
15.01.2021	13:04:13	0	91,597615	4,887367	0,903	352,1052	1,076	86,944	0	1015,46	8,3	9,8	9,6	1	1	1	1	1	1	1	1	1	0	1	-19,379845	275,656291	308,002075	0
15.01.2021	13:04:14	0	91,597595	3,182472	0,91575	344,7288	1,082	86,965	0	1015,36	8,3	9,8	9,6	1	1	1	1	1	1	1	1	1	0	1	-18,604651	275,532157	308,187959	0
15.01.2021	13:04:15	0	91,363009	1,932215	0,915	355,1724	1,076	86,957	0	1015,38	8,3	9,8	9,6	1	1	1	1	1	1	1	1	1	0	1	-19,027484	275,480801	307,521555	0
15.01.2021	13:04:16	0	91,48027	2,841493	0,8895	354,9888	1,07	87,014	0	1015,36	8,3	9,8	9,6	1	1	1	1	1	1	1	1	1	0	1	-22,269204	275,601381	304,851939	0
15.01.2021	13:04:17	0	91,245685	3,296133	0,924	357,768	1,08	86,96	0	1015,4	8,3	9,8	9,6	1	1	1	1	1	1	1	1	1	0	1	-18,816068	275,644973	308,51209	0
15.01.2021	13:04:18	0	91,245664	2,955154	0,9825	5,2056	1,072	86,965	0	1015,34	8,4	9,8	9,6	1	1	1	1	1	1	1	1	1	0	1	-19,732206	275,662761	307,680453	0
15.01.2021	13:04:19	0	90,893796	2,273195	0,97725	7,1136	1,075	86,974	0	1015,48	8,3	9,8	9,6	1	1	1	1	1	1	1	1	1	0	1	-22,551092	275,575594	304,44764	0
15.01.2021	13:04:20	0	91,011058	2,614175	1,0095	6,0408	1,078	86,967	0	1015,4	8,3	9,8	9,6	1	1	1	1	1	1	1	1	1	0	1	-19,379845	275,665997	308,048188	0
15.01.2021	13:04:21	0	91,597448	4,546392	1,00725	0	1,082	86,982	0	1015,42	8,4	9,8	9,6	1	1	1	1	1	1	1	1	1	0	1	-17,26568	275,648206	310,077835	0
15.01.2021	13:04:22	0	91,128298	3,296134	0,9945	356,1876	1,08	86,998	0	1015,46	8,3	9,8	9,6	1	1	1	1	1	1	1	1	1	0	1	-20,5074	275,64659	306,828436	0
15.01.2021	13:04:23	0	91,245559	4,319073	0,996	355,0356	1,075	86,983	0	1015,46	8,3	9,8	9,6	1	1	1	1	1	1	1	1	1	0	1	-17,547569	275,683804	309,965076	0
15.01.2021	13:04:24	0	91,010974	2,955156	1,04925	356,6052	1,082	86,994	0	1015,44	8,3	9,8	9,6	1	1	1	1	1	1	1	1	1	0	1	-19,450317	275,619129	307,755097	0
15.01.2021	13:04:25	0	90,776389	2,727836	1,095	356,5908	1,074	86,988	0	1015,32	8,3	9,8	9,6	1	1	1	1	1	1	1	1	1	0	1	-18,745595	275,500044	307,894691	0
15.01.2021	13:04:26	0	90,541804	2,386857	1,15725	359,4636	1,081	86,997	0	1015,4	8,3	9,8	9,6	1	1	1	1	1	1	1	1	1	0	1	-16,701903	275,482404	309,854736	0
15.01.2021	13:04:27	0	91,010911	5,114694	1,134	360	1,08	86,989	0	1015,34	8,3	9,8	9,6	1	1	1	1	1	1	1	1	1	0	1	-22,198732	275,61106	304,968366	0
15.01.2021	13:04:28	0	90,893608	4,432736	1,116	356,8968	1,083	86,996	0	1015,38	8,3	9,8	9,6	1	1	1	1	1	1	1	1	1	0	1	-20,789288	275,667615	306,646433	0
15.01.2021	13:04:29	0	90,541741	4,660056	1,107	357,7284	1,082	86,993	0	1015,52	8,3	9,8	9,6	1	1	1	1	1	1	1	1	1	0	1	-18,816068	275,628816	308,435352	0
15.01.2021	13:04:30	0	90,424438	4,205417	1,1145	358,812	1,084	87,009	0	1015,34	8,3	9,8	9,6	1	1	1	1	1	1	1	1	1	0	1	-15,997181	275,661143	311,407792	0
15.01.2021	13:04:31	0	90,776263	4,660057	1,095	356,6088	1,074	86,99	0	1015,38	8,3	9,8	9,6	1	1	1	1	1	1	1	1	1	0	1	-16,208598	275,669234	311,234812	0
15.01.2021	13:04:32	0	90,541679	3,068818	1,092	351,6624	1,083	87,009	0	1015,42	8,3	9,8	9,6	1	1	1	1	1	1	1	1	1	0	1	-20,718816	275,58526	306,325797	0
15.01.2021	13:04:33	0	90,776222	4,091758	1,0965	354,3552	1,075	86,993	0	1015,24	8,3	9,8	9,6	1	1	1	1	1	1	1	1	1	0	1	-19,520789	275,506462	307,149938	0
15.01.2021	13:04:34	0	90,541637	3,523459	1,0905	358,7508	1,083	87,019	0	1015,4	8,3	9,8	9,6	1	1	1	1	1	1	1	1	1	0	1	-20,366455	275,682185	307,138493	0
15.01.2021	13:04:35	0	90,424334	4,205419	1,095	3,7692	1,08	86,998	0	1015,34	8,3	9,8	9,6	1	1	1	1	1	1	1	1	1	0	1	-17,829457	275,588483	309,230456	0
15.01.2021	13:04:36	0	90,424313	3,75078	1,11075	6,4296	1,083	87,018	0	1015,3	8,3	9,8	9,6	1	1	1	1	1	1	1	1	1	0	1	-18,25229	275,669234	309,191119	0
15.01.2021	13:04:37	0	90,658856	3,75078	1,08675	354,0024	1,077	87,014	0	1015,32	8,3	9,8	9,6	1	1	1	1	1	1	1	1	1	0	1	-17,195208	275,667615	310,240513	0
15.01.2021	13:04:38	0	89,837862	2,72784	1,104	3,0276	1,092	87,026	0	1015,46	8,4	9,8	9,6	1	1	1	1	1	1	1	1	1	0	1	-24,242424	275,554668	302,656995	0
15.01.2021	13:04:39	0	90,541532	2,955161	1,06725	359,5032	1,092	87,043	0	1015,5	8,3	9,8	9,6	1	1	1	1	1	1	1	1	1	0	1	-19,661734	275,685424	307,858607	0
15.01.2021	13:04:40	0	90,658793	4,205421	1,13925	353,5344	1,09	87,028	0	1015,42	8,4	9,8	9,6	1	1	1	1	1	1	1	1	1	0	1	-22,410148	275,638509	304,887305	0
15.01.2021	13:04:41	0	90,306926	4,205422	1,14525	352,8648	1,087	87,034	0	1015,36	8,3	9,8	9,6	1	1	1	1	1	1	1	1	1	0	1	-19,732206	275,64659	307,60363	0
15.01.2021	13:04:42	0	90,306905	4,773723	1,1595	349,4232	1,088	87,035	0	1015,48	8,4	9,8	9,6	1	1	1	1	1	1	1	1	1	0	1	-16,349542	275,488817	310,237503	0
15.01.2021	13:04:43	0	90,424166	2,727842	1,1385	356,5764	1,082	87,02	0	1015,22	8,4	9,8	9,6	1	1	1	1	1	1	1	1	1	0	1	-18,040874	275,617515	309,156876	0
15.01.2021	13:04:44	0	90,541427	4,546404	1,11375	346,9536	1,092	87,03	0	1015,42	8,3	9,8	9,6	1	1	1	1	1	1	1	1	1	0	1	-19,027484	275,500044	307,612803	0
15.01.2021	13:04:45	0	90,189561	3,182483	1,098	352,7856	1,092	87,052	0	1015,38	8,3	9,8	9,6	1	1	1	1	1	1	1	1	1	0	1	-15,503876	275,593319	311,578993	0
15.01.2021	13:04:46	0	90,18954	4,887385	1,107	3,0132	1,093	87,043	0	1015,38	8,4	9,8	9,6	1	1	1	1	1	1	1	1	1	0	1	-19,309373	275,677327	308,172493	0
15.01.2021	13:04:47	0	89,954955	3,409804	1,056	7,1172	1,084	87,018	0	1015,26	8,3	9,8	9,6	1	1	1	1	1	1	1	1	1	0	1	-16,701903	275,5177	310,022124	0
15.01.2021	13:04:48	0	90,424061	5,001046	1,02375	4,0788	1,094	87,042	0	1015,28	8,3	9,8	9,6	1	1	1	1	1	1	1	1	1	0	1	-15,362932	275,628816	311,888488	0
15.01.2021	13:04:49	0	90,072195	4,432746	0,98475	1,1844	1,092	87,058	0	1015,48	8,4	9,8	9,6	1	1	1	1	1	1	1	1	1	0	1	-14,094433	275,527337	312,67531	0
15.01.2021	13:04:50	0	89,954262	3,637125	0,95475	4,0968	1,096	87,05	0	1015,36	8,3	9,9	9,6	1	1	1	1	1	1	1	1	1	0	1	-15,433404	275,49844	311,199275	0
15.01.2021	13:04:51	0	90,306716	3,864446	0,888	6,4224	1,093	87,053	0	1015,48	8,3	9,8	9,6	1	1	1	1	1	1	1	1	1	0	1	-18,25229	275,614287	308,930132	0
15.01.2021	13:04:52	0	89,837569	2,273204	0,85425	6,4368	1,09	87,065	0	1015,36	8,4	9,8	9,6	1	1	1	1	1	1	1	1	1	0	1	-16,138125	275,670852	311,312974	0
15.01.2021	13:04:53	0	89,954829	3,750787	0,8175	9,3564	1,098	87,064	0	1015,46	8,3	9,8	9,6	1	1	1	1	1	1	1	1	1	0	1	-22,198732	275,682185	305,306217	0
15.01.2021	13:04:54	0	90,072089	3,068826	0,83625	14,31	1,093	87,064	0	1015,46	8,4	9,8	9,6	1	1	1	1	1	1	1	1	1	0	1	-20,155039	275,565933	306,797841	0
15.01.2021	13:04:55	0	89,837506	4,205429	0,855	8,2692	1,099	87,074	0	1015,38	8,3	9,8	9,6	1	1	1	1	1	1	1	1	1	0	1	-20,225511	275,535371	306,582349	0
15.01.2021	13:04:56	0	89,720203	4,66007	0,82875	4,0932	1,099	87,082	0	1015,26	8,4	9,8	9,6	1	1	1	1	1	1	1	1	1	0	1	-24,171952	275,49844	302,460726	0
15.01.2021	13:04:57	0	90,072026	4,660071	0,8145	5,238	1,092	87,078	0	1015,36	8,4	9,8	9,6	1	1	1	1	1	1	1	1	1	0	1	-18,88654	275,622357	308,334207	0
15.01.2021	13:04:58	0	89,60288	2,727846	0,858	5,2236	1,103	87,079	0	1015,38	8,3	9,8	9,6	1	1	1	1	1	1	1	1	1	0	1	-17,89993	275,667615	309,535791	0
15.01.2021	13:04:59	0	89,602859	3,409808	0,9195	3,7692	1,101	87,083	0	1015,42	8,4	9,8	9,6	1	1	1	1	1	1	1	1	1	0	1	-23,537703	275,512883	303,163477	0
15.01.2021	13:05:00	0	89,368254	2,386866	0,94425	6,048	1,097	87,082	0	1015,38	8,4	9,8	9,6	1	1	1	1	1	1	1	1	1	0	1	-21,000705	275,598156	306,105126	0
15.01.2021	13:05:01	0	89,368254	2,386866	0,94425	6,048	1,097	87,082	0	1015,38	8,4	9,8	9,6	1	1	1	1	1	1	1	1	1	0	1	-17,89993	275,546625	308,961326	0
15.01.2021	13:05:02	0	90,07192	4,660073	0,95475	3,7836	1,101	87,091	0	1015,42	8,3	9,8	9,6	1	1	1	1	1	1	1	1	1	0	1	-21,282593	275,659526	306,114695	0
15.01.2021	13:05:03	0	89,837337	3,750791	0,951	355,8132	1,102	87,101	0	1015,26	8,3	9,8	9,6	1	1	1	1	1	1	1	1	1	0	1	-20,5074	275,543409	306,338596	0
15.01.2021	13:05:04	0	89,485472	2,955169	0,95475	341,3664	1,108	87,104	0	1015,42	8,3	9,8	9,6	1	1	1	1	1	1	1	1	1	0	1	-17,618041	275,503253	309,037464	0
15.01.2021	13:05:05	0	89,602732	3,409811	0,93675	345,1212	1,103	87,092	0	1015,42	8,4	9,8	9,6	1	1	1	1	1	1	1	1	1	0	1	-17,547569	275,548234	309,321318	0
15.01.2021	13:05:06	0	89,719992	3,409811	0,9015	359,9532	1,103	87,109	0	1015,28	8,4	9,8	9,6	1	1	1	1	1	1	1	1	1	0	1	-18,322763	275,536979	308,492723	0
15.01.2021	13:05:07	0	89,954533	5,114717	0,891	357,1884	1,098	87,087	0	1015,16	8,4	9,8	9,6	1	1	1	1	1	1	1	1	1	0	1	-21,282593	275,619129	305,922821	0
15.01.2021	13:05:08	0	89,83723	3,296152	0,86475	347,9508	1,104	87,117	0	1015,34	8,4	9,8	9,6	1	1	1	1	1	1	1	1	1	0	1	-16,490486	275,506462	310,180241	0
15.01.2021	13:05:09	0	89,602647	3,637133	0,85425	346,9752	1,108	87,114	0	1015,34	8,4	9,8	9,6	1	1	1	1	1	1	1	1	1	0	1	-14,587738	275,632047	312,679024	0
15.01.2021	13:05:10	0	89,368064	2,61419	0,82875	346,4892	1,106	87,111	0	1015,28	8,4	9,8	9,6	1	1	1	1	1	1	1	1	1	0	1	-16,701903	275,508067	309,976436	0
15.01.2021	13:05:11	0	89,602605	3,296153	0,82575	351,7056	1,106	87,109	0	1015,34	8,4	9,8	9,6	1	1	1	1	1	1	1	1	1	0	1	-20,366455	275,562714	306,571146	0
15.01.2021	13:05:12	0	89,368022	3,750795	0,7995	349,92	1,105	87,103	0	1015,3	8,3	9,8	9,6	1	1	1	1	1	1	1	1	1	0	1	-17,89993	275,509672	308,786022	0
15.01.2021	13:05:13	0	89,602562	4,319098	0,825	350,3592	1,109	87,111	0	1015,24	8,3	9,8	9,6	1	1	1	1	1	1	1	1	1	0	1	-21,49401	275,691904	306,057126	0
15.01.2021	13:05:14	0	89,602541	4,091777	0,84	354,7692	1,108	87,101	0	1015,32	8,4	9,8	9,6	1	1	1	1	1	1	1	1	1	0	1	-20,718816	275,540194	306,111923	0
15.01.2021	13:05:15	0	89,133396	4,54642	0,84825	348,7032	1,108	87,126	0	1015,32	8,4	9,8	9,6	1	1	1	1	1	1	1	1	1	0	1	-15,715292	275,703249	311,889763	0
15.01.2021	13:05:16	0	89,602498	3,409815	0,89775	350,3448	1,108	87,115	0	1015,3	8,4	9,8	9,6	1	1	1	1	1	1	1	1	1	0	1	-17,618041	275,546625	309,243215	0
15.01.2021	13:05:17	0	89,250635	2,841513	0,927	354,2652	1,108	87,106	0	1015,4	8,4	9,8	9,6	1	1	1	1	1	1	1	1	1	0	1	-18,88654	275,569153	308,081621	0
15.01.2021	13:05:18	0	89,485175	4,20544	0,91425	355,3956	1,113	87,114	0	1015,32	8,3	9,8	9,6	1	1	1	1	1	1	1	1	1	0	1	-17,336152	275,691904	310,214983	0
15.01.2021	13:05:19	0	89,602434	4,773743	0,8925	349,1316	1,109	87,125	0	1015,32	8,4	9,8	9,6	1	1	1	1	1	1	1	1	1	0	1	-24,031008	275,577205	302,97537	0
15.01.2021	13:05:20	0	89,13329	3,750798	0,918	352,0692	1,107	87,123	0	1015,32	8,4	9,8	9,6	1	1	1	1	1	1	1	1	1	0	1	-21,49401	275,524124	305,260491	0
15.01.2021	13:05:21	0	89,485111	4,319102	0,92475	357,6132	1,116	87,122	0	1015,4	8,4	9,8	9,6	1	1	1	1	1	1	1	1	1	0	1	-17,406624	275,654674	309,967613	0
15.01.2021	13:05:22	0	89,60237	4,546423	1,0005	359,1792	1,113	87,125	0	1015,4	8,4	9,8	9,6	1	1	1	1	1	1	1	1	1	0	1	-16,560958	275,670852	310,890141	0
15.01.2021	13:05:23	0	89,250507	2,386873	1,047	356,5512	1,114	87,108	0	1015,28	8,3	9,8	9,6	1	1	1	1	1	1	1	1	1	0	1	-16,349542	275,532157	310,443069	0
15.01.2021	13:05:24	0	89,133205	4,660085	1,125	356,7492	1,116	87,131	0	1015,3	8,4	9,8	9,6	1	1	1	1	1	1	1	1	1	0	1	-17,618041	275,577205	309,388337	0
15.01.2021	13:05:25	0	89,485025	3,750801	1,17075	358,146	1,113	87,116	0	1015,28	8,4	9,8	9,6	1	1	1	1	1	1	1	1	1	0	1	-18,463707	275,541801	308,37466	0
15.01.2021	13:05:26	0	89,367723	5,001068	1,221	360	1,117	87,122	0	1015,36	8,3	9,8	9,6	1	1	1	1	1	1	1	1	1	0	1	-22,128259	275,648206	305,215255	0
15.01.2021	13:05:27	0	88,781299	2,955177	1,21125	357,6132	1,105	87,126	0	1015,32	8,3	9,8	9,6	1	1	1	1	1	1	1	1	1	0	1	-17,547569	275,533764	309,252666	0
15.01.2021	13:05:28	0	89,015839	4,432766	1,2075	342,7956	1,117	87,131	0	1015,28	8,4	9,8	9,6	1	1	1	1	1	1	1	1	1	0	1	-18,816068	275,670852	308,635032	0
15.01.2021	13:05:29	0	88,546696	3,068838	1,23225	6,0552	1,12	87,143	0	1015,42	8,4	9,8	9,6	1	1	1	1	1	1	1	1	1	0	1	-15,503876	275,528943	311,273488	0
15.01.2021	13:05:30	0	89,133076	4,88738	1,27425	359,8956	1,118	87,146	0	1015,54	8,3	9,8	9,7	1	1	1	1	1	1	1	1	1	0	1	-19,591261	275,911878	309,006535	0
15.01.2021	13:05:31	0	89,133055	5,342053	1,30575	355,0644	1,117	87,136	0	1015,12	8,4	9,8	9,6	1	1	1	1	1	1	1	1	1	0	1	-15,715292	275,591707	311,359924	0
15.01.2021	13:05:32	0	88,663912	2,386875	1,317	358,1424	1,121	87,13	0	1015,44	8,4	9,8	9,6	1	1	1	1	1	1	1	1	1	0	1	-15,856237	275,706492	311,764231	0
15.01.2021	13:05:33	0	88,781171	3,409822	1,29825	358,7652	1,119	87,145	0	1015,36	8,3	9,8	9,6	1	1	1	1	1	1	1	1	1	0	1	-19,450317	275,657908	307,939287	0
15.01.2021	13:05:34	0	88,89843	4,773751	1,30125	357,5808	1,123	87,146	0	1015,36	8,4	9,8	9,6	1	1	1	1	1	1	1	1	1	0	1	-18,25229	275,688664	309,283446	0
15.01.2021	13:05:35	0	88,898409	4,319109	1,28325	344,754	1,121	87,137	0	1015,42	8,4	9,8	9,6	1	1	1	1	1	1	1	1	1	0	1	-13,953488	275,674089	313,512993	0
15.01.2021	13:05:36	0	88,898387	4,773752	1,22925	345,3336	1,114	87,142	0	1015,24	8,4	9,8	9,6	1	1	1	1	1	1	1	1	1	0	1	-16,490486	275,612673	310,684273	0
15.01.2021	13:05:37	0	88,311965	2,045894	1,2075	353,2788	1,121	87,142	0	1015,38	8,3	9,8	9,6	1	1	1	1	1	1	1	1	1	0	1	-15,64482	275,528943	311,132544	0
15.01.2021	13:05:38	0	88,780442	2,955181	1,1565	352,4832	1,124	87,135	0	1015,3	8,4	9,9	9,6	1	1	1	1	1	1	1	1	1	0	1	-17,547569	275,570763	309,428234	0
15.01.2021	13:05:39	0	88,428583	2,727859	1,14	343,2096	1,128	87,147	0	1015,28	8,4	9,9	9,6	1	1	1	1	1	1	1	1	1	0	1	-16,420014	275,540194	310,410725	0
15.01.2021	13:05:40	0	88,781021	3,750807	1,104	345,7908	1,125	87,137	0	1015,34	8,4	9,8	9,6	1	1	1	1	1	1	1	1	1	0	1	-18,25229	275,607833	308,899486	0
15.01.2021	13:05:41	0	88,89828	4,887416	1,1145	357,3324	1,126	87,139	0	1015,24	8,3	9,8	9,6	1	1	1	1	1	1	1	1	1	0	1	-20,366455	275,716223	307,30027	0
15.01.2021	13:05:42	0	88,311858	3,182504	1,1145	359,5572	1,126	87,14	0	1015,38	8,3	9,8	9,6	1	1	1	1	1	1	1	1	1	0	1	-15,433404	275,596543	311,664772	0
15.01.2021	13:05:43	0	88,429117	2,841522	1,10925	355,446	1,127	87,144	0	1015,34	8,3	9,8	9,6	1	1	1	1	1	1	1	1	1	0	1	-17,970402	275,532157	308,822209	0
15.01.2021	13:05:44	0	88,780935	4,205452	1,14075	7,8768	1,125	87,134	0	1015,38	8,3	9,8	9,6	1	1	1	1	1	1	1	1	1	0	1	-20,225511	275,628816	307,025909	0
15.01.2021	13:05:45	0	88,311175	4,091792	1,2	0,8532	1,131	87,158	0	1015,34	8,4	9,9	9,6	1	1	1	1	1	1	1	1	1	0	1	-16,842847	275,712979	310,808456	0
15.01.2021	13:05:46	0	88,780892	4,887419	1,16625	359,9244	1,129	87,152	0	1015,32	8,4	9,8	9,6	1	1	1	1	1	1	1	1	1	0	1	-14,235377	275,675708	313,238796	0
15.01.2021	13:05:47	0	88,311132	3,068826	1,077	3,0276	1,132	87,16	0	1015,4	8,3	9,9	9,7	1	1	1	1	1	1	1	1	1	0	1	-19,238901	275,674089	308,22758	0
15.01.2021	13:05:48	0	88,193832	2,955184	1,05975	6,4368	1,134	87,167	0	1015,42	8,4	9,9	9,6	1	1	1	1	1	1	1	1	1	0	1	-16,983791	275,557886	309,930898	0
15.01.2021	13:05:49	0	88,311708	3,296167	0,99975	6,426	1,135	87,154	0	1015,28	8,4	9,8	9,6	1	1	1	1	1	1	1	1	1	0	1	-16,420014	275,630432	310,839076	0
15.01.2021	13:05:50	0	88,077127	3,182507	0,94875	2,664	1,134	87,16	0	1015,42	8,3	9,8	9,6	1	1	1	1	1	1	1	1	1	0	1	-15,503876	275,582038	311,525441	0
15.01.2021	13:05:51	0	88,428325	4,546439	0,9675	6,8148	1,136	87,169	0	1015,44	8,3	9,9	9,6	1	1	1	1	1	1	1	1	1	0	1	-16,983791	275,535371	309,824068	0
15.01.2021	13:05:52	0	88,662861	4,432778	0,906	18,4464	1,139	87,168	0	1015,34	8,4	9,9	9,6	1	1	1	1	1	1	1	1	1	0	1	-21,071177	275,653057	306,295379	0
15.01.2021	13:05:53	0	88,077062	4,432779	0,86175	17,7048	1,135	87,169	0	1015,42	8,4	9,8	9,6	1	1	1	1	1	1	1	1	1	0	1	-15,785765	275,553059	311,10602	0
15.01.2021	13:05:54	0	88,076424	3,637152	0,89475	15,0372	1,136	87,167	0	1015,46	8,3	9,9	9,6	1	1	1	1	1	1	1	1	1	0	1	-14,799154	275,533764	312,00108	0
15.01.2021	13:05:55	0	88,311579	3,29617	0,96075	13,1616	1,137	87,177	0	1015,44	8,4	9,8	9,6	1	1	1	1	1	1	1	1	1	0	1	-19,097956	275,65144	308,260918	0
15.01.2021	13:05:56	0	88,076998	3,637153	0,98475	14,3028	1,133	87,168	0	1015,34	8,4	9,8	9,6	1	1	1	1	1	1	1	1	1	0	1	-15,926709	275,708113	311,701467	0
15.01.2021	13:05:57	0	88,194256	2,841509	0,98025	12,4668	1,134	87,175	0	1015,2	8,3	9,8	9,7	1	1	1	1	1	1	1	1	1	0	1	-14,094433	275,578816	312,91959	0
15.01.2021	13:05:58	0	88,194234	4,546443	0,9705	11,2068	1,143	87,173	0	1015,54	8,3	9,8	9,6	1	1	1	1	1	1	1	1	1	0	1	-17,89993	275,583649	309,137035	0
15.01.2021	13:05:59	0	87,959037	4,319095	0,99	13,1688	1,142	87,177	0	1015,36	8,3	9,9	9,7	1	1	1	1	1	1	1	1	1	0	1	-17,406624	275,536979	309,408861	0
15.01.2021	13:06:00	0	88,076273	2,955189	0,966	11,7144	1,146	87,171	0	1015,44	8,4	9,9	9,6	1	1	1	1	1	1	1	1	1	0	1	-17,477097	275,675708	309,997076	0
15.01.2021	13:06:01	0	88,076273	2,955189	0,966	11,7144	1,146	87,171	0	1015,44	8,4	9,9	9,6	1	1	1	1	1	1	1	1	1	0	1	-18,745595	275,714601	308,913418	0
15.01.2021	13:06:02	0	88,194148	3,864478	0,9375	358,83	1,141	87,157	0	1015,22	8,3	9,8	9,6	1	1	1	1	1	1	1	1	1	0	1	-15,292459	275,693524	312,266376	0
15.01.2021	13:06:03	0	87,958951	4,660078	0,894	345,4164	1,143	87,172	0	1015,3	8,4	9,9	9,7	1	1	1	1	1	1	1	1	1	0	1	-16,701903	275,695145	310,864634	0
15.01.2021	13:06:04	0	87,842266	2,38687	0,86025	354,3228	1,146	87,173	0	1015,32	8,3	9,8	9,7	1	1	1	1	1	1	1	1	1	0	1	-13,742072	275,572373	313,241373	0
15.01.2021	13:06:05	0	88,194082	3,750818	0,858	357,8688	1,145	87,164	0	1015,34	8,3	9,8	9,6	1	1	1	1	1	1	1	1	1	0	1	-17,829457	275,567543	309,131062	0
15.01.2021	13:06:06	0	87,958886	3,296174	0,861	351,3672	1,143	87,152	0	1015,4	8,4	9,9	9,6	1	1	1	1	1	1	1	1	1	0	1	-14,235377	275,675708	313,238796	0
15.01.2021	13:06:07	0	88,076143	4,43276	0,8595	350,316	1,145	87,158	0	1015,16	8,3	9,9	9,7	1	1	1	1	1	1	1	1	1	0	1	-15,856237	275,727582	311,86449	0
15.01.2021	13:06:08	0	87,958843	4,887432	0,8355	353,9736	1,146	87,163	0	1015,34	8,3	9,9	9,6	1	1	1	1	1	1	1	1	1	0	1	-15,926709	275,604606	311,209749	0
15.01.2021	13:06:09	0	87,959437	2,841513	0,8235	351,2844	1,145	87,14	0	1015,16	8,4	9,8	9,7	1	1	1	1	1	1	1	1	1	0	1	-14,587738	275,670852	312,863361	0
15.01.2021	13:06:10	0	87,606964	4,773771	0,861	349,8984	1,147	87,167	0	1015,36	8,3	9,9	9,6	1	1	1	1	1	1	1	1	1	0	1	-16,913319	275,734076	310,838283	0
15.01.2021	13:06:11	0	87,72545	2,159564	0,846	351,6012	1,148	87,159	0	1015,42	8,3	9,7	9,6	1	1	1	1	1	1	1	1	1	0	1	-16,631431	275,61106	310,535667	0
15.01.2021	13:06:12	0	87,489642	2,841531	0,879	348,048	1,145	87,141	0	1015,28	8,3	9,9	9,6	1	1	1	1	1	1	1	1	1	0	1	-16,349542	275,725959	311,363468	0
15.01.2021	13:06:13	0	88,076012	4,432763	0,918	351,0108	1,147	87,163	0	1015,3	8,3	9,9	9,7	1	1	1	1	1	1	1	1	1	0	1	-17,688513	275,695145	309,878024	0
15.01.2021	13:06:14	0	87,72477	4,091782	1,0065	349,4808	1,148	87,163	0	1015,22	8,3	9,8	9,7	1	1	1	1	1	1	1	1	1	0	1	-15,081043	275,543409	311,764953	0
15.01.2021	13:06:15	0	87,724134	4,660113	1,0515	350,2656	1,15	87,161	0	1015,38	8,3	9,9	9,6	1	1	1	1	1	1	1	1	1	0	1	-15,292459	275,644973	312,035698	0
15.01.2021	13:06:16	0	87,724112	3,409819	1,03425	354,0348	1,147	87,167	0	1015,24	8,3	9,9	9,7	1	1	1	1	1	1	1	1	1	0	1	-18,322763	275,55145	308,561389	0
15.01.2021	13:06:17	0	87,489534	3,864462	1,029	342,0648	1,153	87,165	0	1015,48	8,3	9,9	9,7	1	1	1	1	1	1	1	1	1	0	1	-14,446794	275,691904	313,104342	0
15.01.2021	13:06:18	0	88,075903	5,114729	1,01175	347,526	1,151	87,167	0	1015,28	8,4	9,9	9,7	1	1	1	1	1	1	1	1	1	0	1	-16,138125	275,559495	310,7842	0
15.01.2021	13:06:19	0	87,372212	3,296159	0,96525	355,8816	1,15	87,143	0	1015,24	8,3	9,9	9,7	1	1	1	1	1	1	1	1	1	0	1	-18,111346	275,617515	309,086404	0
15.01.2021	13:06:20	0	87,490082	4,660088	0,96	354,9636	1,146	87,147	0	1015,32	8,3	9,8	9,7	1	1	1	1	1	1	1	1	1	0	1	-19,661734	275,714601	307,99728	0
15.01.2021	13:06:21	0	87,724003	4,773778	0,9555	351,0288	1,152	87,146	0	1015,26	8,3	9,9	9,6	1	1	1	1	1	1	1	1	1	0	1	-16,701903	275,60622	310,442214	0
15.01.2021	13:06:22	0	87,841259	4,546428	0,975	353,142	1,152	87,15	0	1015,34	8,3	9,9	9,7	1	1	1	1	1	1	1	1	1	0	1	-18,675123	275,687044	308,852915	0
15.01.2021	13:06:23	0	87,489403	3,750804	0,9435	3,7368	1,158	87,155	0	1015,4	8,4	9,9	9,7	1	1	1	1	1	1	1	1	1	0	1	-14,305849	275,545017	312,547776	0
15.01.2021	13:06:24	0	87,372104	2,727858	0,89175	18,81	1,155	87,152	0	1015,28	8,3	9,9	9,7	1	1	1	1	1	1	1	1	1	0	1	-19,802678	275,635278	307,479428	0
15.01.2021	13:06:25	0	87,137526	2,614197	0,88125	12,0888	1,154	87,165	0	1015,24	8,3	9,9	9,7	1	1	1	1	1	1	1	1	1	0	1	-18,957012	275,72109	308,732852	0
15.01.2021	13:06:26	0	87,137504	2,95518	0,8475	2,2968	1,161	87,157	0	1015,34	8,3	9,9	9,7	1	1	1	1	1	1	1	1	1	0	1	-20,225511	275,541801	306,612856	0
15.01.2021	13:06:27	0	87,489316	3,523484	0,864	358,1532	1,154	87,161	0	1015,14	8,3	9,9	9,7	1	1	1	1	1	1	1	1	1	0	1	-20,014094	275,628816	307,237326	0
15.01.2021	13:06:28	0	87,137461	2,84152	0,8535	343,2456	1,162	87,153	0	1015,42	8,4	9,9	9,7	1	1	1	1	1	1	1	1	1	0	1	-17,89993	275,724336	309,805364	0
15.01.2021	13:06:29	0	87,723828	4,660093	0,90075	333,8496	1,158	87,144	0	1015,14	8,3	9,9	9,7	1	1	1	1	1	1	1	1	1	0	1	-16,631431	275,678946	310,858129	0
15.01.2021	13:06:30	0	87,020139	3,523485	0,98325	340,5708	1,155	87,163	0	1015,34	8,3	9,9	9,7	1	1	1	1	1	1	1	1	1	0	1	-16,208598	275,554668	310,690821	0
15.01.2021	13:06:31	0	87,371951	3,068842	1,00425	340,1676	1,157	87,17	0	1015,32	8,3	9,9	9,7	1	1	1	1	1	1	1	1	1	0	1	-13,883016	275,630432	313,376074	0
15.01.2021	13:06:32	0	87,137373	4,660095	1,062	336,816	1,161	87,162	0	1015,22	8,3	9,9	9,7	1	1	1	1	1	1	1	1	1	0	1	-17,336152	275,701628	310,261198	0
15.01.2021	13:06:33	0	86,903405	3,068843	1,06425	337,2768	1,165	87,16	0	1015,38	8,3	9,8	9,7	1	1	1	1	1	1	1	1	1	0	1	-12,262156	275,693524	315,296679	0
15.01.2021	13:06:34	0	86,902774	3,296165	1,11075	339,2748	1,164	87,151	0	1015,4	8,3	9,9	9,7	1	1	1	1	1	1	1	1	1	0	1	-15,574348	275,734076	312,177254	0
15.01.2021	13:06:35	0	87,137308	2,841522	1,14225	343,9692	1,164	87,17	0	1015,36	8,3	9,9	9,7	1	1	1	1	1	1	1	1	1	0	1	-18,111346	275,593319	308,971523	0
15.01.2021	13:06:36	0	87,020008	2,727878	1,152	333,2088	1,159	87,16	0	1015,34	8,3	9,9	9,6	1	1	1	1	1	1	1	1	1	0	1	-16,349542	275,722713	311,348037	0
15.01.2021	13:06:37	0	86,668154	2,386879	1,152	342,3168	1,165	87,185	0	1015,34	8,3	9,9	9,7	1	1	1	1	1	1	1	1	1	0	1	-17,477097	275,602994	309,651704	0
15.01.2021	13:06:38	0	87,019965	4,660098	1,1055	342,4788	1,167	87,166	0	1015,32	8,3	9,9	9,7	1	1	1	1	1	1	1	1	1	0	1	-12,755462	275,548234	314,113425	0
15.01.2021	13:06:39	0	86,785388	2,955184	1,07175	348,1128	1,163	87,164	0	1015,34	8,3	9,9	9,7	1	1	1	1	1	1	1	1	1	0	1	-14,235377	275,535371	312,572483	0
15.01.2021	13:06:40	0	86,785366	3,296168	1,047	349,902	1,169	87,18	0	1015,32	8,3	9,9	9,7	1	1	1	1	1	1	1	1	1	0	1	-13,6716	275,661143	313,733373	0
15.01.2021	13:06:41	0	87,019899	4,773761	0,975	354,3264	1,162	87,185	0	1015,3	8,3	9,9	9,7	1	1	1	1	1	1	1	1	1	0	1	-16,701903	275,556277	310,205151	0
15.01.2021	13:06:42	0	86,902599	4,319117	0,97275	352,89	1,171	87,178	0	1015,5	8,4	9,9	9,7	1	1	1	1	1	1	1	1	1	0	1	-16,27907	275,596543	310,819106	0
15.01.2021	13:06:43	0	87,25441	4,319144	0,9405	348,4728	1,167	87,157	0	1015,26	8,3	9,9	9,6	1	1	1	1	1	1	1	1	1	0	1	-16,772375	275,55145	310,111776	0
15.01.2021	13:06:44	0	86,550723	2,27322	0,90225	352,5012	1,162	87,18	0	1015,3	8,3	9,9	9,7	1	1	1	1	1	1	1	1	1	0	1	-18,463707	275,60622	308,68041	0
15.01.2021	13:06:45	0	86,785864	4,887424	0,88425	356,544	1,168	87,176	0	1015,26	8,3	9,8	9,7	1	1	1	1	1	1	1	1	1	0	1	-16,913319	275,577205	310,093058	0
15.01.2021	13:06:46	0	86,55068	4,432781	0,843	359,9568	1,17	87,172	0	1015,4	8,3	9,9	9,7	1	1	1	1	1	1	1	1	1	0	1	-15,715292	275,549842	311,161226	0
15.01.2021	13:06:47	0	86,90249	4,660103	0,84075	354,9492	1,167	87,177	0	1015,54	8,3	9,9	9,7	1	1	1	1	1	1	1	1	1	0	1	-20,436927	275,653057	306,929628	0
15.01.2021	13:06:48	0	87,019745	4,546443	0,82875	356,1948	1,166	87,168	0	1015,44	8,3	9,9	9,7	1	1	1	1	1	1	1	1	1	0	1	-17,829457	275,685424	309,690884	0
15.01.2021	13:06:49	0	86,316059	2,386883	0,816	6,4116	1,171	87,171	0	1015,36	8,3	9,9	9,7	1	1	1	1	1	1	1	1	1	0	1	-19,591261	275,654674	307,782976	0
15.01.2021	13:06:50	0	86,316642	2,841527	0,801	2,3868	1,17	87,157	0	1015,32	8,3	9,8	9,7	1	1	1	1	1	1	1	1	1	0	1	-16,208598	275,722713	311,488981	0
15.01.2021	13:06:51	0	86,081461	4,660105	0,7695	355,0248	1,17	87,172	0	1015,38	8,3	9,9	9,7	1	1	1	1	1	1	1	1	1	0	1	-18,88654	275,743821	308,911399	0
15.01.2021	13:06:52	0	86,433271	3,068869	0,7425	356,1516	1,177	87,188	0	1015,4	8,3	9,9	9,6	1	1	1	1	1	1	1	1	1	0	1	-18,181818	275,623972	309,046596	0
15.01.2021	13:06:53	0	86,550526	4,546445	0,705	1,1772	1,178	87,179	0	1015,24	8,3	9,9	9,7	1	1	1	1	1	1	1	1	1	0	1	-13,460183	275,730829	314,27598	0
15.01.2021	13:06:54	0	86,785666	3,75084	0,69375	14,634	1,173	87,174	0	1015,3	8,3	9,8	9,6	1	1	1	1	1	1	1	1	1	0	1	-19,450317	275,602994	307,678483	0
15.01.2021	13:06:55	0	86,198651	2,841529	0,69975	11,1852	1,172	87,152	0	1015,32	8,3	9,9	9,7	1	1	1	1	1	1	1	1	1	0	1	-16,772375	275,546625	310,088881	0
15.01.2021	13:06:56	0	86,55046	3,86448	0,66375	0,1296	1,175	87,152	0	1015,28	8,3	9,9	9,7	1	1	1	1	1	1	1	1	1	0	1	-13,742072	275,590095	313,325492	0
15.01.2021	13:06:57	0	86,316489	3,864481	0,64875	353,3292	1,175	87,153	0	1015,2	8,3	9,8	9,7	1	1	1	1	1	1	1	1	1	0	1	-19,097956	275,623972	308,130457	0
15.01.2021	13:06:58	0	86,081911	2,727869	0,64725	350,3736	1,179	87,164	0	1015,42	8,3	9,8	9,7	1	1	1	1	1	1	1	1	1	0	1	-18,322763	275,549842	308,553756	0
15.01.2021	13:06:59	0	86,31584	4,205465	0,6675	348,2892	1,176	87,148	0	1015,4	8,3	9,9	9,7	1	1	1	1	1	1	1	1	1	0	1	-17,124736	275,700007	310,46491	0
15.01.2021	13:07:00	0	86,081242	3,637182	0,61275	350,3052	1,178	87,145	0	1015,32	8,3	9,9	9,6	1	1	1	1	1	1	1	1	1	0	1	-18,393235	275,755197	309,458799	0
15.01.2021	13:07:01	0	86,081242	3,637182	0,61275	350,3052	1,178	87,145	0	1015,32	8,3	9,9	9,6	1	1	1	1	1	1	1	1	1	0	1	-19,591261	275,703249	308,013794	0
15.01.2021	13:07:02	0	85,72939	2,72787	0,59175	355,3848	1,181	87,147	0	1015,4	8,3	9,9	9,7	1	1	1	1	1	1	1	1	1	0	1	-16,420014	275,569153	310,548147	0
15.01.2021	13:07:03	0	86,433029	2,955193	0,61425	358,3476	1,179	87,157	0	1015,22	8,3	9,9	9,7	1	1	1	1	1	1	1	1	1	0	1	-11,909796	275,573984	315,081293	0
15.01.2021	13:07:04	0	86,081176	3,068855	0,6075	355,0176	1,183	87,129	0	1015,22	8,3	9,9	9,7	1	1	1	1	1	1	1	1	1	0	1	-21,000705	275,638509	306,296749	0
15.01.2021	13:07:05	0	85,729324	4,31913	0,6	350,6832	1,178	87,146	0	1015,28	8,3	9,9	9,7	1	1	1	1	1	1	1	1	1	0	1	-14,869626	275,549842	312,006892	0
15.01.2021	13:07:06	0	85,963855	4,660114	0,636	349,0488	1,182	87,136	0	1015,24	8,3	9,9	9,7	1	1	1	1	1	1	1	1	1	0	1	-18,604651	275,696765	308,969588	0
15.01.2021	13:07:07	0	86,198387	4,660115	0,675	350,4204	1,184	87,142	0	1015,34	8,3	9,9	9,7	1	1	1	1	1	1	1	1	1	0	1	-13,319239	275,583649	313,717726	0
15.01.2021	13:07:08	0	85,729858	3,068856	0,66075	356,544	1,18	87,168	0	1015,4	8,3	9,8	9,7	1	1	1	1	1	1	1	1	1	0	1	-17,195208	275,7357	310,564115	0
15.01.2021	13:07:09	0	86,198342	2,955195	0,74475	359,514	1,183	87,149	0	1015,32	8,3	9,9	9,7	1	1	1	1	1	1	1	1	1	0	1	-15,292459	275,575594	311,706273	0
15.01.2021	13:07:10	0	85,963767	4,205496	0,738	353,6532	1,19	87,152	0	1015,38	8,3	9,9	9,6	1	1	1	1	1	1	1	1	1	0	1	-19,591261	275,612673	307,583498	0
15.01.2021	13:07:11	0	86,315575	4,660117	0,7815	356,5332	1,186	87,159	0	1015,38	8,3	9,9	9,7	1	1	1	1	1	1	1	1	1	0	1	-18,393235	275,687044	309,134804	0
15.01.2021	13:07:12	0	85,612493	2,386889	0,7725	352,4436	1,184	87,164	0	1015,34	8,3	9,8	9,7	1	1	1	1	1	1	1	1	1	0	1	-17,688513	275,734076	310,063089	0
15.01.2021	13:07:13	0	85,963701	3,068858	0,77325	345,8304	1,185	87,151	0	1015,48	8,3	9,9	9,7	1	1	1	1	1	1	1	1	1	0	1	-15,151515	275,586872	311,900748	0
15.01.2021	13:07:14	0	85,729126	3,637166	0,82275	342,072	1,186	87,16	0	1015,28	8,3	9,9	9,7	1	1	1	1	1	1	1	1	1	0	1	-14,587738	275,564323	312,357502	0
15.01.2021	13:07:15	0	85,963657	4,887442	0,876	338,328	1,184	87,155	0	1015,34	8,3	9,9	9,7	1	1	1	1	1	1	1	1	1	0	1	-14,235377	275,680565	313,261876	0
15.01.2021	13:07:16	0	85,846959	2,841537	0,8955	343,5408	1,191	87,154	0	1015,34	8,3	9,8	9,7	1	1	1	1	1	1	1	1	1	0	1	-16,772375	275,557886	310,142315	0
15.01.2021	13:07:17	0	85,611783	3,523506	0,89325	345,1536	1,185	87,16	0	1015,28	8,3	9,9	9,7	1	1	1	1	1	1	1	1	1	0	1	-16,138125	275,708113	311,49005	0
15.01.2021	13:07:18	0	85,964192	4,205475	0,9	350,9604	1,189	87,159	0	1015,32	8,3	9,8	9,7	1	1	1	1	1	1	1	1	1	0	1	-20,155039	275,577205	306,851339	0
15.01.2021	13:07:19	0	85,611739	2,500553	0,8955	338,0184	1,187	87,167	0	1015,2	8,3	9,9	9,7	1	1	1	1	1	1	1	1	1	0	1	-20,85976	275,572373	306,123685	0
15.01.2021	13:07:20	0	85,728993	3,523507	0,912	320,8752	1,194	87,173	0	1015,42	8,3	9,9	9,7	1	1	1	1	1	1	1	1	1	0	1	-14,728682	275,751946	313,107892	0
15.01.2021	13:07:21	0	85,494418	3,068861	0,927	327,8052	1,193	87,164	0	1015,26	8,3	9,9	9,7	1	1	1	1	1	1	1	1	1	0	1	-12,966878	275,711357	314,676715	0
15.01.2021	13:07:22	0	85,37712	3,068862	0,91575	338,796	1,191	87,166	0	1015,28	8,3	9,9	9,7	1	1	1	1	1	1	1	1	1	0	1	-14,869626	275,567543	312,090893	0
15.01.2021	13:07:23	0	85,61225	4,773786	0,924	344,2896	1,182	87,152	0	1015,26	8,3	9,8	9,7	1	1	1	1	1	1	1	1	1	0	1	-16,772375	275,724336	310,932919	0
15.01.2021	13:07:24	0	85,377674	2,841539	0,88425	343,4472	1,185	87,149	0	1015,36	8,3	9,8	9,7	1	1	1	1	1	1	1	1	1	0	1	-18,534179	275,615901	308,655906	0
15.01.2021	13:07:25	0	85,377652	3,182524	0,84	346,9644	1,196	87,169	0	1015,36	8,3	9,8	9,7	1	1	1	1	1	1	1	1	1	0	1	-18,040874	275,737324	309,726171	0
15.01.2021	13:07:26	0	85,494308	5,001111	0,84225	348,3612	1,188	87,167	0	1015,46	8,3	9,9	9,7	1	1	1	1	1	1	1	1	1	0	1	-17,547569	275,60622	309,596548	0
15.01.2021	13:07:27	0	85,494285	4,319141	0,79275	353,2536	1,19	87,167	0	1015,34	8,3	9,9	9,7	1	1	1	1	1	1	1	1	1	0	1	-17,406624	275,580427	309,615045	0
15.01.2021	13:07:28	0	85,728815	4,660127	0,768	351,774	1,195	87,171	0	1015,32	8,3	9,9	9,7	1	1	1	1	1	1	1	1	1	0	1	-14,869626	275,717845	312,804811	0
15.01.2021	13:07:29	0	85,611517	4,887451	0,765	348,1308	1,192	87,172	0	1015,16	8,3	9,9	9,7	1	1	1	1	1	1	1	1	1	0	1	-11,839323	275,693524	315,719512	0
15.01.2021	13:07:30	0	85,612094	3,182526	0,756	340,9488	1,19	87,154	0	1015,28	8,3	9,8	9,7	1	1	1	1	1	1	1	1	1	0	1	-13,883016	275,578816	313,131007	0
15.01.2021	13:07:31	0	85,494196	2,955204	0,7545	349,7832	1,195	87,189	0	1015,3	8,3	9,9	9,7	1	1	1	1	1	1	1	1	1	0	1	-14,094433	275,714601	313,564581	0
15.01.2021	13:07:32	0	85,61205	5,001114	0,76275	352,0512	1,195	87,16	0	1015,28	8,3	9,8	9,7	1	1	1	1	1	1	1	1	1	0	1	-14,235377	275,564323	312,709863	0
15.01.2021	13:07:33	0	85,376876	2,955204	0,75075	346,788	1,198	87,175	0	1015,24	8,3	9,9	9,7	1	1	1	1	1	1	1	1	1	0	1	-17,829457	275,656291	309,552463	0
15.01.2021	13:07:34	0	85,142898	4,773792	0,717	345,6864	1,198	87,175	0	1015,36	8,3	9,8	9,7	1	1	1	1	1	1	1	1	1	0	1	-17,124736	275,7617	310,758226	0
15.01.2021	13:07:35	0	85,494107	2,500558	0,67875	330,6672	1,193	87,177	0	1015,36	8,3	9,9	9,7	1	1	1	1	1	1	1	1	1	0	1	-13,883016	275,656291	313,498904	0
15.01.2021	13:07:36	0	85,142257	4,432808	0,65625	331,1136	1,199	87,157	0	1015,32	8,3	9,9	9,7	1	1	1	1	1	1	1	1	1	0	1	-20,930233	275,729206	306,798212	0
15.01.2021	13:07:37	0	85,376787	3,409853	0,70425	355,4424	1,193	87,159	0	1015,34	8,3	9,9	9,7	1	1	1	1	1	1	1	1	1	0	1	-15,785765	275,601381	311,335378	0
15.01.2021	13:07:38	0	85,377363	4,205486	0,74175	15,012	1,202	87,169	0	1015,28	8,3	9,8	9,7	1	1	1	1	1	1	1	1	1	0	1	-18,604651	275,698386	308,977291	0
15.01.2021	13:07:39	0	85,142191	2,841545	0,7515	5,2128	1,203	87,164	0	1015,38	8,3	9,9	9,7	1	1	1	1	1	1	1	1	1	0	1	-17,829457	275,743821	309,968481	0
15.01.2021	13:07:40	0	85,493996	4,091825	0,795	355,0644	1,199	87,166	0	1015,32	8,3	9,9	9,7	1	1	1	1	1	1	1	1	1	0	1	-19,87315	275,700007	307,716496	0
15.01.2021	13:07:41	0	85,611249	3,409855	0,8805	356,58	1,202	87,172	0	1015,3	8,3	9,9	9,7	1	1	1	1	1	1	1	1	1	0	1	-17,124736	275,748696	310,696382	0
15.01.2021	13:07:42	0	85,2594	4,31915	0,8895	356,508	1,207	87,171	0	1015,36	8,3	9,9	9,7	1	1	1	1	1	1	1	1	1	0	1	-15,715292	275,617515	311,482457	0
15.01.2021	13:07:43	0	85,494527	4,773798	0,87675	353,628	1,2	87,154	0	1015,48	8,3	9,8	9,7	1	1	1	1	1	1	1	1	1	0	1	-20,225511	275,751946	307,611063	0
15.01.2021	13:07:44	0	85,259355	3,63718	0,8655	353,8476	1,204	87,168	0	1015,34	8,3	9,9	9,7	1	1	1	1	1	1	1	1	1	0	1	-14,587738	275,659526	312,80955	0
15.01.2021	13:07:45	0	85,25993	4,432813	0,843	345,3912	1,204	87,156	0	1015,42	8,3	9,8	9,7	1	1	1	1	1	1	1	1	1	0	1	-20,295983	275,764952	307,602448	0
15.01.2021	13:07:46	0	85,259907	4,546476	0,825	341,7264	1,2	87,153	0	1015,34	8,5	9,8	9,7	1	1	1	1	1	1	1	1	1	0	1	-14,305849	275,740572	313,476641	0
15.01.2021	13:07:47	0	85,259288	4,7738	0,84525	346,5396	1,204	87,157	0	1015,42	8,3	9,9	9,7	1	1	1	1	1	1	1	1	1	0	1	-18,816068	275,635278	308,466038	0
15.01.2021	13:07:48	0	85,494415	4,205491	0,79725	350,3304	1,205	87,159	0	1015,38	8,3	9,8	9,7	1	1	1	1	1	1	1	1	1	0	1	-19,87315	275,683804	307,639494	0
15.01.2021	13:07:49	0	84,790735	2,841548	0,78225	341,676	1,205	87,149	0	1015,24	8,5	9,8	9,7	1	1	1	1	1	1	1	1	1	0	1	-8,527132	275,577205	318,479246	0
15.01.2021	13:07:50	0	85,49437	5,114788	0,75825	342,7524	1,201	87,142	0	1015,18	8,5	9,8	9,7	1	1	1	1	1	1	1	1	1	0	1	-14,940099	275,654674	312,434139	0
15.01.2021	13:07:51	0	85,141923	3,864507	0,7455	353,934	1,208	87,168	0	1015,38	8,3	9,9	9,7	1	1	1	1	1	1	1	1	1	0	1	-20,366455	275,771459	307,562923	0
15.01.2021	13:07:52	0	85,377049	4,660141	0,77025	352,7928	1,199	87,141	0	1015,32	8,5	9,8	9,7	1	1	1	1	1	1	1	1	1	0	1	-20,718816	275,665997	306,709217	0
15.01.2021	13:07:53	0	84,907922	5,001128	0,75525	355,0356	1,204	87,157	0	1015,28	8,5	9,8	9,7	1	1	1	1	1	1	1	1	1	0	1	-16,560958	275,766579	311,345208	0
15.01.2021	13:07:54	0	85,02458	2,614226	0,732	351,0108	1,206	87,169	0	1015,42	8,5	9,9	9,7	1	1	1	1	1	1	1	1	1	0	1	-14,65821	275,58526	312,386403	0
15.01.2021	13:07:55	0	85,376981	4,546481	0,68625	353,1564	1,212	87,162	0	1015,38	8,3	9,8	9,7	1	1	1	1	1	1	1	1	1	0	1	-19,379845	275,703249	308,22521	0
15.01.2021	13:07:56	0	85,142407	3,864509	0,6885	0	1,206	87,174	0	1015,32	8,3	9,8	9,7	1	1	1	1	1	1	1	1	1	0	1	-16,349542	275,559495	310,572784	0
15.01.2021	13:07:57	0	85,141788	2,386903	0,684	358,3404	1,206	87,162	0	1015,34	8,3	9,9	9,7	1	1	1	1	1	1	1	1	1	0	1	-15,010571	275,636893	312,279208	0
15.01.2021	13:07:58	0	84,672664	2,273241	0,67125	349,5096	1,211	87,161	0	1015,32	8,3	9,9	9,7	1	1	1	1	1	1	1	1	1	0	1	-18,88654	275,578816	308,127483	0
15.01.2021	13:07:59	0	84,907787	2,72789	0,6735	343,5876	1,206	87,154	0	1015,18	8,5	9,8	9,7	1	1	1	1	1	1	1	1	1	0	1	-16,560958	275,623972	310,667455	0
15.01.2021	13:08:00	0	85,25957	4,31916	0,7215	348,2604	1,206	87,144	0	1015,2	8,3	9,8	9,7	1	1	1	1	1	1	1	1	1	0	1	-16,138125	275,777968	311,822213	0
15.01.2021	13:08:01	0	85,25957	4,31916	0,7215	348,2604	1,206	87,144	0	1015,2	8,3	9,8	9,7	1	1	1	1	1	1	1	1	1	0	1	-17,406624	275,738948	310,368143	0
15.01.2021	13:08:02	0	84,90772	3,637188	0,762	349,9524	1,215	87,158	0	1015,36	8,3	9,8	9,7	1	1	1	1	1	1	1	1	1	0	1	-16,983791	275,588483	310,076122	0
15.01.2021	13:08:03	0	85,259524	3,409864	0,76875	352,188	1,209	87,145	0	1015,36	8,3	9,8	9,7	1	1	1	1	1	1	1	1	1	0	1	-16,701903	275,773086	311,235214	0
15.01.2021	13:08:04	0	85,142226	2,614229	0,82275	351,0828	1,207	87,126	0	1015,28	8,3	9,8	9,7	1	1	1	1	1	1	1	1	1	0	1	-14,376321	275,701628	313,221029	0
15.01.2021	13:08:05	0	84,672507	2,955216	0,8145	349,8732	1,215	87,137	0	1015,26	8,5	9,9	9,7	1	1	1	1	1	1	1	1	1	0	1	-12,684989	275,582038	314,344327	0
15.01.2021	13:08:06	0	85,259457	3,978176	0,84525	352,1556	1,212	87,131	0	1015,32	8,3	9,8	9,7	1	1	1	1	1	1	1	1	1	0	1	-19,097956	275,717845	308,576481	0
15.01.2021	13:08:07	0	84,790331	2,159582	0,8955	349,8516	1,213	87,128	0	1015,36	8,3	9,8	9,7	1	1	1	1	1	1	1	1	1	0	1	-17,336152	275,760074	310,539076	0
15.01.2021	13:08:08	0	84,790308	3,409866	0,942	341,7192	1,208	87,12	0	1015,36	8,3	9,8	9,7	1	1	1	1	1	1	1	1	1	0	1	-11,627907	275,777968	316,332431	0
15.01.2021	13:08:09	0	84,907562	2,04592	0,9645	341,3124	1,21	87,134	0	1015,52	8,3	9,8	9,7	1	1	1	1	1	1	1	1	1	0	1	-18,816068	275,703249	308,788988	0
15.01.2021	13:08:10	0	84,790263	3,409867	0,90675	343,9872	1,212	87,139	0	1015,32	8,5	9,8	9,7	1	1	1	1	1	1	1	1	1	0	1	-20,014094	275,769832	307,907546	0
15.01.2021	13:08:11	0	84,789647	2,955219	0,855	348,6348	1,211	87,136	0	1015,3	8,5	9,9	9,7	1	1	1	1	1	1	1	1	1	0	1	-15,221987	275,716223	312,444738	0
15.01.2021	13:08:12	0	84,790218	2,386908	0,822	351,1188	1,214	87,105	0	1015,26	8,5	9,8	9,7	1	1	1	1	1	1	1	1	1	0	1	-16,560958	275,61106	310,606139	0
15.01.2021	13:08:13	0	85,024746	4,319167	0,828	337,2264	1,215	87,109	0	1015,28	8,5	9,8	9,7	1	1	1	1	1	1	1	1	1	0	1	-17,124736	275,691904	310,4264	0
15.01.2021	13:08:14	0	84,907448	2,727895	0,846	326,7972	1,218	87,112	0	1015,32	8,5	9,8	9,7	1	1	1	1	1	1	1	1	1	0	1	-13,601128	275,764952	314,297303	0
15.01.2021	13:08:15	0	85,259252	4,660155	0,84075	334,2816	1,214	87,127	0	1015,3	8,5	9,8	9,7	1	1	1	1	1	1	1	1	1	0	1	-16,27907	275,743821	311,518869	0
15.01.2021	13:08:16	0	85,259229	3,864519	0,83325	357,2712	1,212	87,109	0	1015,2	8,3	9,8	9,7	1	1	1	1	1	1	1	1	1	0	1	-16,490486	275,774713	311,45437	0
15.01.2021	13:08:17	0	85,024655	3,296208	0,79875	1,2384	1,211	87,125	0	1015,42	8,5	9,8	9,7	1	1	1	1	1	1	1	1	1	0	1	-14,517266	275,688664	313,018471	0
15.01.2021	13:08:18	0	84,789488	3,068884	0,78	352,2096	1,21	87,114	0	1015,34	8,3	9,9	9,7	1	1	1	1	1	1	1	1	1	0	1	-14,235377	275,583649	312,801588	0
15.01.2021	13:08:19	0	85,141289	2,727897	0,756	342,0648	1,219	87,108	0	1015,3	8,5	9,9	9,7	1	1	1	1	1	1	1	1	1	0	1	-16,631431	275,708113	310,996745	0
15.01.2021	13:08:20	0	84,672761	2,84156	0,7515	339,5088	1,221	87,115	0	1015,34	8,5	9,8	9,7	1	1	1	1	1	1	1	1	1	0	1	-15,503876	275,594931	311,586646	0
15.01.2021	13:08:21	0	85,024564	3,182547	0,75375	336,438	1,219	87,118	0	1015,34	8,3	9,8	9,7	1	1	1	1	1	1	1	1	1	0	1	-17,547569	275,700007	310,042077	0
15.01.2021	13:08:22	0	84,789991	3,29621	0,831	328,9896	1,222	87,12	0	1015,42	8,3	9,8	9,7	1	1	1	1	1	1	1	1	1	0	1	-13,460183	275,601381	313,66096	0
15.01.2021	13:08:23	0	84,672693	3,75086	0,927	345,7548	1,219	87,123	0	1015,24	8,5	9,8	9,7	1	1	1	1	1	1	1	1	1	0	1	-14,023961	275,693524	313,534875	0
15.01.2021	13:08:24	0	84,907221	3,409873	0,98325	348,4224	1,222	87,117	0	1015,3	8,5	9,8	9,7	1	1	1	1	1	1	1	1	1	0	1	-17,89993	275,764952	309,998501	0
15.01.2021	13:08:25	0	84,907198	2,614237	1,08225	339,9624	1,213	87,1	0	1015,28	8,5	9,8	9,7	1	1	1	1	1	1	1	1	1	0	1	-14,164905	275,725959	313,548105	0
15.01.2021	13:08:26	0	84,907175	3,409874	1,2105	338,4144	1,219	87,124	0	1015,38	8,5	9,8	9,7	1	1	1	1	1	1	1	1	1	0	1	-12,121212	275,586872	314,931051	0
15.01.2021	13:08:27	0	84,672602	2,386912	1,299	337,1328	1,218	87,11	0	1015,32	8,5	9,8	9,7	1	1	1	1	1	1	1	1	1	0	1	-14,940099	275,708113	312,688077	0
15.01.2021	13:08:28	0	84,907129	4,319175	1,308	337,554	1,225	87,127	0	1015,38	8,5	9,8	9,7	1	1	1	1	1	1	1	1	1	0	1	-19,802678	275,779595	308,165402	0
15.01.2021	13:08:29	0	84,555281	4,319176	1,2675	338,3532	1,221	87,119	0	1015,42	8,5	9,8	9,7	1	1	1	1	1	1	1	1	1	0	1	-19,87315	275,758448	307,994346	0
15.01.2021	13:08:30	0	85,024358	4,660164	1,20675	337,4964	1,224	87,135	0	1015,36	8,5	9,8	9,7	1	1	1	1	1	1	1	1	1	0	1	-13,601128	275,72109	314,088736	0
15.01.2021	13:08:31	0	84,789785	4,205514	1,215	338,346	1,217	87,119	0	1015,34	8,3	9,8	9,7	1	1	1	1	1	1	1	1	1	0	1	-13,812544	275,782851	314,171022	0
15.01.2021	13:08:32	0	85,141587	4,43284	1,227	351,6696	1,225	87,11	0	1015,38	8,5	9,8	9,7	1	1	1	1	1	1	1	1	1	0	1	-15,926709	275,653057	311,439847	0
15.01.2021	13:08:33	0	84,78974	3,750865	1,146	355,3956	1,217	87,116	0	1015,26	8,3	9,8	9,7	1	1	1	1	1	1	1	1	1	0	1	-14,869626	275,742197	312,920587	0
15.01.2021	13:08:34	0	84,672442	4,773829	1,134	351,3888	1,226	87,12	0	1015,32	8,5	9,8	9,7	1	1	1	1	1	1	1	1	1	0	1	-19,591261	275,596543	307,506915	0
15.01.2021	13:08:35	0	84,906969	3,296216	1,0875	347,2308	1,22	87,123	0	1015,36	8,3	9,8	9,7	1	1	1	1	1	1	1	1	1	0	1	-14,446794	275,716223	313,219931	0
15.01.2021	13:08:36	0	84,437846	3,52352	1,08225	354,2328	1,226	87,125	0	1015,46	8,3	9,8	9,8	1	1	1	1	1	1	1	1	1	0	1	-17,618041	275,77634	310,334556	0
15.01.2021	13:08:37	0	84,672373	4,205543	1,053	1,152	1,221	87,095	0	1015,38	8,5	9,8	9,6	1	1	1	1	1	1	1	1	1	0	1	-15,503876	275,662761	311,908783	0
15.01.2021	13:08:38	0	84,67235	3,86453	1,017	355,4964	1,218	87,101	0	1015,3	8,3	9,8	9,7	1	1	1	1	1	1	1	1	1	0	1	-12,473573	275,786107	315,525483	0
15.01.2021	13:08:39	0	84,789602	2,386902	1,02	347,9868	1,226	87,115	0	1015,38	8,3	9,8	9,8	1	1	1	1	1	1	1	1	1	0	1	-18,181818	275,706492	309,43865	0
15.01.2021	13:08:40	0	84,789579	5,114821	0,98325	339,426	1,229	87,114	0	1015,2	8,5	9,8	9,7	1	1	1	1	1	1	1	1	1	0	1	-16,138125	275,784478	311,853185	0
15.01.2021	13:08:41	0	84,789556	2,841567	0,97575	349,4124	1,222	87,096	0	1015,4	8,3	9,8	9,7	1	1	1	1	1	1	1	1	1	0	1	-13,248767	275,643357	314,071714	0
15.01.2021	13:08:42	0	84,672258	4,773834	1,00125	354,7116	1,226	87,101	0	1015,38	8,5	9,8	9,7	1	1	1	1	1	1	1	1	1	0	1	-16,983791	275,787735	311,02301	0
15.01.2021	13:08:43	0	84,672235	4,546509	0,9825	349,47	1,221	87,073	0	1015,34	8,3	9,8	9,7	1	1	1	1	1	1	1	1	1	0	1	-12,966878	275,678946	314,522681	0
15.01.2021	13:08:44	0	84,437663	2,50058	0,963	346,6116	1,228	87,054	0	1015,26	8,3	9,8	9,7	1	1	1	1	1	1	1	1	1	0	1	-12,896406	275,795878	315,149137	0
15.01.2021	13:08:45	0	84,672189	3,864534	0,90975	343,4292	1,225	87,079	0	1015,16	8,3	9,8	9,7	1	1	1	1	1	1	1	1	1	0	1	-12,332629	275,625587	314,903453	0
15.01.2021	13:08:46	0	84,78944	4,546484	0,87975	345,0384	1,223	87,076	0	1015,36	8,5	9,8	9,8	1	1	1	1	1	1	1	1	1	0	1	-18,463707	275,619129	308,741708	0
15.01.2021	13:08:47	0	84,789417	2,500596	0,876	349,398	1,225	87,065	0	1015,42	8,3	9,8	9,6	1	1	1	1	1	1	1	1	1	0	1	-15,503876	275,688664	312,031861	0
15.01.2021	13:08:48	0	84,67212	5,001163	0,9105	349,9344	1,229	87,068	0	1015,36	8,3	9,8	9,7	1	1	1	1	1	1	1	1	1	0	1	-14,235377	275,802395	313,841173	0
15.01.2021	13:08:49	0	84,788183	2,955251	0,921	343,5444	1,229	87,045	0	1015,36	8,3	10	9,6	1	1	1	1	1	1	1	1	1	0	1	-13,03735	275,688664	314,498386	0
15.01.2021	13:08:50	0	84,554799	3,182578	0,9315	345,8304	1,225	87,048	0	1015,42	8,3	9,8	9,6	1	1	1	1	1	1	1	1	1	0	1	-17,618041	275,602994	309,510759	0
15.01.2021	13:08:51	0	84,906599	4,887503	0,87675	348,7428	1,23	87,052	0	1015,36	8,3	9,8	9,7	1	1	1	1	1	1	1	1	1	0	1	-15,785765	275,756822	312,074	0
15.01.2021	13:08:52	0	84,906576	4,546542	0,891	346,5108	1,222	87,025	0	1015,24	8,3	9,8	9,6	1	1	1	1	1	1	1	1	1	0	1	-14,799154	275,786107	313,199901	0
15.01.2021	13:08:53	0	84,672004	2,614231	0,93075	344,7	1,224	87,034	0	1015,3	8,3	9,8	9,8	1	1	1	1	1	1	1	1	1	0	1	-11,980268	275,657908	315,409336	0
15.01.2021	13:08:54	0	84,437433	4,432826	0,97725	351,7416	1,226	87,027	0	1015,38	8,3	9,8	9,8	1	1	1	1	1	1	1	1	1	0	1	-13,389711	275,782851	314,593855	0
15.01.2021	13:08:55	0	84,788044	4,546516	0,9885	356,1588	1,228	87,027	0	1015,4	8,3	10	9,7	1	1	1	1	1	1	1	1	1	0	1	-17,336152	275,7617	310,54681	0
15.01.2021	13:08:56	0	84,671935	2,955254	1,0125	351,3816	1,228	87,014	0	1015,32	8,3	9,8	9,6	1	1	1	1	1	1	1	1	1	0	1	-15,362932	275,722713	312,334647	0
15.01.2021	13:08:57	0	84,90646	4,432828	1,026	349,9092	1,228	87,014	0	1015,12	8,3	9,8	9,8	1	1	1	1	1	1	1	1	1	0	1	-13,178295	275,795878	314,867248	0
15.01.2021	13:08:58	0	84,789162	4,773844	1,04625	347,22	1,226	87,022	0	1015,32	8,3	9,8	9,7	1	1	1	1	1	1	1	1	1	0	1	-16,772375	275,753571	311,071928	0
15.01.2021	13:08:59	0	84,554591	3,068919	1,0395	353,5236	1,224	87,004	0	1015,42	8,3	9,8	9,6	1	1	1	1	1	1	1	1	1	0	1	-10,852713	275,627202	316,391037	0
15.01.2021	13:09:00	0	84,43727	3,978229	1,01475	353,178	1,226	86,986	0	1015,3	8,3	9,8	9,6	1	1	1	1	1	1	1	1	1	0	1	-13,03735	275,625587	314,198732	0
15.01.2021	13:09:01	0	84,43727	3,978229	1,01475	353,178	1,226	86,986	0	1015,3	8,3	9,8	9,6	1	1	1	1	1	1	1	1	1	0	1	-13,03735	275,625587	314,198732	0
15.01.2021	13:09:02	0	84,319973	2,727929	0,984	359,8596	1,228	87,005	0	1015,44	8,3	9,8	9,6	1	1	1	1	1	1	1	1	1	0	1	-10,641297	275,682185	316,863652	0
15.01.2021	13:09:03	0	84,554498	4,546549	0,92775	7,4988	1,23	86,991	0	1015,32	8,3	9,8	9,6	1	1	1	1	1	1	1	1	1	0	1	-15,292459	275,768205	312,621444	0
15.01.2021	13:09:04	0	84,319927	4,432859	0,873	3,7584	1,224	86,981	0	1015,2	8,3	9,8	9,7	1	1	1	1	1	1	1	1	1	0	1	-14,446794	275,670852	313,004306	0
15.01.2021	13:09:05	0	84,671725	4,319196	0,873	356,2452	1,23	86,973	0	1015,46	8,3	9,8	9,7	1	1	1	1	1	1	1	1	1	0	1	-18,111346	275,787735	309,895456	0
15.01.2021	13:09:06	0	84,085333	2,841577	0,92325	1,9224	1,228	86,969	0	1015,42	8,5	9,8	9,7	1	1	1	1	1	1	1	1	1	0	1	-20,5074	275,737324	307,259645	0
15.01.2021	13:09:07	0	84,319857	3,296249	0,89925	8,6148	1,23	86,936	0	1015,34	8,3	9,8	9,6	1	1	1	1	1	1	1	1	1	0	1	-22,269204	275,804024	305,8151	0
15.01.2021	13:09:08	0	84,437107	4,205535	0,86175	13,9068	1,215	86,931	0	1015,32	8,3	9,8	9,7	1	1	1	1	1	1	1	1	1	0	1	-16,842847	275,72109	310,847017	0
15.01.2021	13:09:09	0	84,31981	3,637242	0,8265	16,848	1,222	86,943	0	1015,34	8,3	9,8	9,6	1	1	1	1	1	1	1	1	1	0	1	-12,403101	275,627202	314,84065	0
15.01.2021	13:09:10	0	84,319787	3,523557	0,81	9,8424	1,225	86,926	0	1015,18	8,3	9,8	9,7	1	1	1	1	1	1	1	1	1	0	1	-17,547569	275,649823	309,803626	0
15.01.2021	13:09:11	0	84,20249	3,068905	0,8325	1,1772	1,224	86,909	0	1015,44	8,3	9,8	9,7	1	1	1	1	1	1	1	1	1	0	1	-13,883016	275,774713	314,06184	0
15.01.2021	13:09:12	0	84,437014	3,637243	0,82725	8,9856	1,222	86,916	0	1015,22	8,3	9,8	9,6	1	1	1	1	1	1	1	1	1	0	1	-17,618041	275,755197	310,233993	0
15.01.2021	13:09:13	0	83,850623	2,841597	0,83175	14,382	1,226	86,921	0	1015,5	8,3	9,8	9,6	1	1	1	1	1	1	1	1	1	0	1	-16,27907	275,644973	311,049088	0
15.01.2021	13:09:14	0	83,967873	2,727917	0,82125	13,9104	1,231	86,918	0	1015,44	8,3	9,8	9,7	1	1	1	1	1	1	1	1	1	0	1	-18,957012	275,797507	309,096281	0
15.01.2021	13:09:15	0	83,96785	3,296233	0,82575	18,0828	1,225	86,907	0	1015,44	8,3	9,8	9,7	1	1	1	1	1	1	1	1	1	0	1	-16,138125	275,719468	311,544025	0
15.01.2021	13:09:16	0	83,849378	4,319229	0,80175	12,8484	1,226	86,9	0	1015,52	8,3	10	9,6	1	1	1	1	1	1	1	1	1	0	1	-17,195208	275,802395	310,881342	0
15.01.2021	13:09:17	0	84,20235	3,068908	0,8175	9,4392	1,227	86,878	0	1015,38	8,3	9,8	9,7	1	1	1	1	1	1	1	1	1	0	1	-15,081043	275,719468	312,601107	0
15.01.2021	13:09:18	0	83,614788	3,068908	0,7995	9,3636	1,226	86,877	0	1015,44	8,3	10	9,7	1	1	1	1	1	1	1	1	1	0	1	-15,433404	275,612673	311,741356	0
15.01.2021	13:09:19	0	83,96658	3,637225	0,798	7,146	1,22	86,866	0	1015,4	8,3	10	9,7	1	1	1	1	1	1	1	1	1	0	1	-16,983791	275,740572	310,798699	0
15.01.2021	13:09:20	0	83,732013	2,727919	0,8265	4,086	1,221	86,884	0	1015,32	8,3	10	9,7	1	1	1	1	1	1	1	1	1	0	1	-19,520789	275,596543	307,577387	0
15.01.2021	13:09:21	0	83,849262	4,887522	0,83625	3,402	1,218	86,883	0	1015,22	8,3	10	9,7	1	1	1	1	1	1	1	1	1	0	1	-16,631431	275,729206	311,097014	0
15.01.2021	13:09:22	0	83,731967	3,637248	0,8175	5,2128	1,227	86,878	0	1015,26	8,3	10	9,6	1	1	1	1	1	1	1	1	1	0	1	-18,25229	275,781223	309,723532	0
15.01.2021	13:09:23	0	83,849215	2,614257	0,78675	9,3672	1,222	86,874	0	1015,36	8,3	10	9,7	1	1	1	1	1	1	1	1	1	0	1	-13,389711	275,664379	314,030634	0
15.01.2021	13:09:24	0	83,73192	4,319233	0,768	15,7824	1,221	86,889	0	1015,42	8,3	10	9,6	1	1	1	1	1	1	1	1	1	0	1	-18,181818	275,619129	309,023596	0
15.01.2021	13:09:25	0	83,96644	3,978218	0,78	8,2656	1,231	86,9	0	1015,5	8,3	10	9,7	1	1	1	1	1	1	1	1	1	0	1	-19,732206	275,727582	307,988521	0
15.01.2021	13:09:26	0	83,614602	4,660199	0,801	10,4436	1,225	86,868	0	1015,44	8,3	10	9,7	1	1	1	1	1	1	1	1	1	0	1	-16,701903	275,659526	310,695385	0
15.01.2021	13:09:27	0	83,381204	2,159605	0,834	16,4916	1,226	86,89	0	1015,46	8,3	9,8	9,7	1	1	1	1	1	1	1	1	1	0	1	-14,587738	275,619129	312,617677	0
15.01.2021	13:09:28	0	84,202092	4,887556	0,90675	8,9856	1,222	86,861	0	1015,36	8,3	9,8	9,6	1	1	1	1	1	1	1	1	1	0	1	-15,433404	275,72109	312,25646	0
15.01.2021	13:09:29	0	83,615703	4,546537	0,933	6,0552	1,226	86,886	0	1015,44	8,3	9,8	9,7	1	1	1	1	1	1	1	1	1	0	1	-13,883016	275,617515	313,314733	0
15.01.2021	13:09:30	0	83,497237	2,841586	0,93225	5,67	1,221	86,88	0	1015,34	8,3	10	9,7	1	1	1	1	1	1	1	1	1	0	1	-13,742072	275,598156	313,363759	0
15.01.2021	13:09:31	0	83,497214	4,432875	0,95175	5,6844	1,229	86,881	0	1015,34	8,3	10	9,7	1	1	1	1	1	1	1	1	1	0	1	-18,322763	275,695145	309,243775	0
15.01.2021	13:09:32	0	83,615633	2,841604	0,987	359,9208	1,236	86,902	0	1015,46	8,3	9,8	9,6	1	1	1	1	1	1	1	1	1	0	1	-16,631431	275,794249	311,406362	0
15.01.2021	13:09:33	0	83,850156	4,54654	1,01025	0,1188	1,229	86,889	0	1015,3	8,3	9,8	9,7	1	1	1	1	1	1	1	1	1	0	1	-14,587738	275,677327	312,894128	0
15.01.2021	13:09:34	0	83,379872	2,841588	1,06425	8,2656	1,229	86,881	0	1015,44	8,3	10	9,7	1	1	1	1	1	1	1	1	1	0	1	-8,527132	275,641741	318,785672	0
15.01.2021	13:09:35	0	83,262578	3,750919	1,08525	10,8108	1,225	86,887	0	1015,38	8,3	10	9,6	1	1	1	1	1	1	1	1	1	0	1	-19,309373	275,693524	308,249463	0
15.01.2021	13:09:36	0	83,145283	2,614261	1,11825	12,8448	1,235	86,91	0	1015,48	8,3	10	9,7	1	1	1	1	1	1	1	1	1	0	1	-15,081043	275,61106	312,086055	0
15.01.2021	13:09:37	0	83,497073	3,409907	1,1085	9,3636	1,229	86,907	0	1015,38	8,3	10	9,7	1	1	1	1	1	1	1	1	1	0	1	-16,842847	275,7357	310,916476	0
15.01.2021	13:09:38	0	83,262508	4,091888	1,18125	2,6388	1,232	86,916	0	1015,42	8,3	10	9,7	1	1	1	1	1	1	1	1	1	0	1	-12,05074	275,794249	315,987053	0
15.01.2021	13:09:39	0	83,614297	4,77387	1,1745	17,7048	1,229	86,91	0	1015,36	8,3	10	9,7	1	1	1	1	1	1	1	1	1	0	1	-15,151515	275,709735	312,484369	0
15.01.2021	13:09:40	0	82,910648	2,84159	1,164	18,8352	1,23	86,899	0	1015,34	8,3	10	9,7	1	1	1	1	1	1	1	1	1	0	1	-12,755462	275,795878	315,290081	0
15.01.2021	13:09:41	0	83,61425	4,887535	1,134	3,4236	1,225	86,9	0	1015,16	8,3	10	9,7	1	1	1	1	1	1	1	1	1	0	1	-15,221987	275,758448	312,645509	0
15.01.2021	13:09:42	0	82,911762	2,841608	1,14975	10,818	1,231	86,914	0	1015,32	8,3	9,8	9,6	1	1	1	1	1	1	1	1	1	0	1	-10,570825	275,688664	316,964912	0
15.01.2021	13:09:43	0	82,910577	2,727927	1,143	17,6976	1,233	86,901	0	1015,46	8,3	10	9,7	1	1	1	1	1	1	1	1	1	0	1	-17,618041	275,612673	309,556719	0
15.01.2021	13:09:44	0	83,028988	4,319219	1,119	20,6244	1,23	86,891	0	1015,4	8,3	9,8	9,7	1	1	1	1	1	1	1	1	1	0	1	-14,376321	275,751946	313,460253	0
15.01.2021	13:09:45	0	82,910531	2,955256	1,1295	10,4472	1,233	86,908	0	1015,4	8,3	10	9,7	1	1	1	1	1	1	1	1	1	0	1	-16,983791	275,795878	311,061751	0
15.01.2021	13:09:46	0	83,027778	4,546548	1,14525	14,6376	1,232	86,908	0	1015,34	8,3	10	9,7	1	1	1	1	1	1	1	1	1	0	1	-12,191684	275,750321	315,637161	0
15.01.2021	13:09:47	0	82,910484	4,546548	1,09725	11,7072	1,232	86,911	0	1015,36	8,3	10	9,7	1	1	1	1	1	1	1	1	1	0	1	-13,812544	275,794249	314,225249	0
15.01.2021	13:09:48	0	82,79435	3,182584	1,0845	2,646	1,222	86,901	0	1015,44	8,3	9,8	9,7	1	1	1	1	1	1	1	1	1	0	1	-15,503876	275,678946	311,985683	0
15.01.2021	13:09:49	0	82,675895	2,500602	1,059	20,628	1,236	86,904	0	1015,42	8,3	10	9,7	1	1	1	1	1	1	1	1	1	0	1	-14,940099	275,632047	312,326663	0
15.01.2021	13:09:50	0	82,910414	4,54655	1,0215	22,0932	1,233	86,91	0	1015,44	8,3	10	9,7	1	1	1	1	1	1	1	1	1	0	1	-14,235377	275,769832	313,686263	0
15.01.2021	13:09:51	0	82,558578	3,637241	0,9615	16,4988	1,224	86,916	0	1015,34	8,3	10	9,7	1	1	1	1	1	1	1	1	1	0	1	-17,618041	275,633662	309,656392	0
15.01.2021	13:09:52	0	82,442439	2,614267	0,93825	9,7524	1,237	86,917	0	1015,38	8,3	9,8	9,7	1	1	1	1	1	1	1	1	1	0	1	-15,574348	275,622357	311,646398	0
15.01.2021	13:09:53	0	82,910343	3,409914	0,9045	4,086	1,232	86,907	0	1015,34	8,3	10	9,7	1	1	1	1	1	1	1	1	1	0	1	-14,587738	275,756822	313,272027	0
15.01.2021	13:09:54	0	82,207272	2,159612	0,837	6,4332	1,233	86,917	0	1015,4	8,3	9,9	9,7	1	1	1	1	1	1	1	1	1	0	1	-14,235377	275,622357	312,98537	0
15.01.2021	13:09:55	0	82,558484	3,409915	0,7515	354,978	1,226	86,901	0	1015,34	8,3	10	9,7	1	1	1	1	1	1	1	1	1	0	1	-14,587738	275,748696	313,23338	0
15.01.2021	13:09:56	0	82,206649	2,95526	0,71025	331,4592	1,235	86,919	0	1015,32	8,3	10	9,7	1	1	1	1	1	1	1	1	1	0	1	-16,490486	275,787735	311,516315	0
15.01.2021	13:09:57	0	82,675708	3,978235	0,66375	330,0732	1,232	86,925	0	1015,42	8,3	10	9,7	1	1	1	1	1	1	1	1	1	0	1	-12,896406	275,672471	314,562384	0
15.01.2021	13:09:58	0	82,794115	4,660219	0,61725	346,2516	1,23	86,91	0	1015,22	8,3	9,8	9,7	1	1	1	1	1	1	1	1	1	0	1	-14,023961	275,781223	313,951862	0
15.01.2021	13:09:59	0	82,676819	4,205564	0,6195	354,4344	1,228	86,896	0	1015,16	8,3	9,8	9,7	1	1	1	1	1	1	1	1	1	0	1	-17,89993	275,764952	309,998501	0
15.01.2021	13:10:00	0	82,792884	4,546557	0,6315	333,8532	1,233	86,922	0	1015,24	8,3	10	9,7	1	1	1	1	1	1	1	1	1	0	1	-14,799154	275,627202	312,444596	0
15.01.2021	13:10:01	0	82,792884	4,546557	0,6315	333,8532	1,233	86,922	0	1015,24	8,3	10	9,7	1	1	1	1	1	1	1	1	1	0	1	-13,107822	275,734076	314,64378	0
15.01.2021	13:10:02	0	82,324356	3,296254	0,62625	342,7632	1,235	86,92	0	1015,36	8,3	9,9	9,7	1	1	1	1	1	1	1	1	1	0	1	-15,081043	275,622357	312,139704	0
15.01.2021	13:10:03	0	82,441604	2,841599	0,6315	352,6308	1,234	86,926	0	1015,32	8,3	9,9	9,7	1	1	1	1	1	1	1	1	1	0	1	-12,966878	275,714601	314,692135	0
15.01.2021	13:10:04	0	82,206462	4,887551	0,6045	349,0884	1,238	86,935	0	1015,36	8,3	10	9,7	1	1	1	1	1	1	1	1	1	0	1	-16,27907	275,635278	311,003036	0
15.01.2021	13:10:05	0	82,207015	4,546559	0,59175	336,4056	1,233	86,943	0	1015,38	8,3	9,9	9,7	1	1	1	1	1	1	1	1	1	0	1	-13,178295	275,769832	314,743346	0
15.01.2021	13:10:06	0	82,08972	2,955264	0,58875	327,0852	1,234	86,914	0	1015,36	8,3	9,9	9,7	1	1	1	1	1	1	1	1	1	0	1	-15,574348	275,805654	312,51771	0
15.01.2021	13:10:07	0	81,854581	2,8416	0,5895	330,066	1,235	86,918	0	1015,12	8,3	10	9,7	1	1	1	1	1	1	1	1	1	0	1	-11,557435	275,755197	316,294599	0
15.01.2021	13:10:08	0	82,440909	5,34221	0,59775	339,8472	1,231	86,936	0	1015,3	8,5	10	9,7	1	1	1	1	1	1	1	1	1	0	1	-13,601128	275,786107	314,397928	0
15.01.2021	13:10:09	0	81,855108	2,614273	0,60225	346,1976	1,238	86,936	0	1015,26	8,3	9,9	9,7	1	1	1	1	1	1	1	1	1	0	1	-14,940099	275,808914	313,167471	0
15.01.2021	13:10:10	0	82,206321	5,001219	0,60525	347,976	1,241	86,948	0	1015,24	8,3	10	9,7	1	1	1	1	1	1	1	1	1	0	1	-13,742072	275,709735	313,893812	0
15.01.2021	13:10:11	0	81,737218	3,409922	0,606	354,996	1,24	86,956	0	1015,34	8,5	10	9,7	1	1	1	1	1	1	1	1	1	0	1	-19,732206	275,817066	308,414156	0
15.01.2021	13:10:12	0	81,619924	2,273282	0,5925	351,0612	1,234	86,945	0	1015,34	8,3	10	9,7	1	1	1	1	1	1	1	1	1	0	1	-10,993658	275,709735	316,642226	0
15.01.2021	13:10:13	0	81,737743	3,296259	0,6	337,1652	1,239	86,945	0	1015,32	8,5	9,9	9,7	1	1	1	1	1	1	1	1	1	0	1	-10,288936	275,815435	317,849666	0
15.01.2021	13:10:14	0	81,619877	2,841603	0,60075	333,1548	1,24	86,958	0	1015,22	8,5	10	9,7	1	1	1	1	1	1	1	1	1	0	1	-14,094433	275,690284	313,449003	0
15.01.2021	13:10:15	0	81,854394	3,29626	0,597	335,7684	1,242	86,97	0	1015,38	8,3	10	9,7	1	1	1	1	1	1	1	1	1	0	1	-11,627907	275,656291	315,754013	0
15.01.2021	13:10:16	0	81,737673	4,887559	0,57975	344,2752	1,243	86,959	0	1015,38	8,3	9,9	9,7	1	1	1	1	1	1	1	1	1	0	1	-14,305849	275,766579	313,600317	0
15.01.2021	13:10:17	0	81,268567	3,864582	0,57525	351,3528	1,237	86,973	0	1015,36	8,3	9,9	9,7	1	1	1	1	1	1	1	1	1	0	1	-10,993658	275,825221	317,191516	0
15.01.2021	13:10:18	0	81,503085	3,864583	0,5895	344,3328	1,246	86,968	0	1015,34	8,5	9,9	9,7	1	1	1	1	1	1	1	1	1	0	1	-14,869626	275,643357	312,450854	0
15.01.2021	13:10:19	0	81,26852	2,841605	0,60525	349,5456	1,242	86,963	0	1015,3	8,3	9,9	9,7	1	1	1	1	1	1	1	1	1	0	1	-17,124736	275,764952	310,773695	0
15.01.2021	13:10:20	0	81,385197	4,546569	0,59775	360	1,247	86,971	0	1015,34	8,3	10	9,7	1	1	1	1	1	1	1	1	1	0	1	-14,023961	275,821958	314,145686	0
15.01.2021	13:10:21	0	81,268473	3,182599	0,59325	1,1664	1,241	86,951	0	1015,22	8,3	9,9	9,7	1	1	1	1	1	1	1	1	1	0	1	-13,6716	275,760074	314,203629	0
15.01.2021	13:10:22	0	81,033909	2,614278	0,56025	352,26	1,24	86,975	0	1015,3	8,3	9,9	9,7	1	1	1	1	1	1	1	1	1	0	1	-16,560958	275,644973	310,767199	0
15.01.2021	13:10:23	0	81,854205	4,319242	0,54	340,1928	1,247	86,968	0	1015,26	8,5	10	9,7	1	1	1	1	1	1	1	1	1	0	1	-12,684989	275,703249	314,920066	0
15.01.2021	13:10:24	0	81,268403	2,955271	0,56025	341,0568	1,248	86,972	0	1015,36	8,3	9,9	9,7	1	1	1	1	1	1	1	1	1	0	1	-12,191684	275,771459	315,737694	0
15.01.2021	13:10:25	0	81,50292	3,978251	0,57	341,7408	1,248	86,968	0	1015,34	8,5	9,9	9,7	1	1	1	1	1	1	1	1	1	0	1	-12,332629	275,821958	315,837018	0
15.01.2021	13:10:26	0	81,151086	2,727944	0,55725	344,0052	1,243	86,98	0	1015,34	8,3	9,9	9,7	1	1	1	1	1	1	1	1	1	0	1	-12,825934	275,687044	314,702105	0
15.01.2021	13:10:27	0	81,619572	4,887566	0,552	344,7288	1,242	86,974	0	1015,36	8,5	10	9,7	1	1	1	1	1	1	1	1	1	0	1	-10,923185	275,643357	316,397295	0
15.01.2021	13:10:28	0	81,268309	4,205581	0,585	344,3724	1,25	86,981	0	1015,46	8,3	9,9	9,7	1	1	1	1	1	1	1	1	1	0	1	-14,235377	275,786107	313,763679	0
15.01.2021	13:10:29	0	81,385556	4,660239	0,59625	348,7644	1,24	86,973	0	1015,36	8,4	9,9	9,7	1	1	1	1	1	1	1	1	1	0	1	-10,711769	275,828484	317,488935	0
15.01.2021	13:10:30	0	81,268262	3,523596	0,61425	348,0228	1,247	86,98	0	1015,4	8,5	9,9	9,7	1	1	1	1	1	1	1	1	1	0	1	-13,601128	275,756822	314,258637	0
15.01.2021	13:10:31	0	81,150968	4,205583	0,678	337,536	1,251	86,98	0	1015,3	8,3	9,9	9,7	1	1	1	1	1	1	1	1	1	0	1	-13,389711	275,659526	314,007577	0
15.01.2021	13:10:32	0	80,916405	3,296268	0,74025	331,146	1,242	86,971	0	1015,26	8,3	9,9	9,7	1	1	1	1	1	1	1	1	1	0	1	-15,010571	275,682185	312,494378	0
15.01.2021	13:10:33	0	80,916381	2,614282	0,81225	333,9036	1,247	86,991	0	1015,36	8,5	9,9	9,7	1	1	1	1	1	1	1	1	1	0	1	-14,728682	275,665997	312,69935	0
15.01.2021	13:10:34	0	80,916358	4,319249	0,8325	339,0876	1,245	86,987	0	1015,36	8,4	9,9	9,7	1	1	1	1	1	1	1	1	1	0	1	-13,883016	275,763326	314,00768	0
15.01.2021	13:10:35	0	81,150874	4,887572	0,85875	335,2824	1,245	86,977	0	1015,08	8,4	9,9	9,7	1	1	1	1	1	1	1	1	1	0	1	-23,185342	275,669234	304,258068	0
15.01.2021	13:10:36	0	80,564501	3,637263	0,85875	333,9252	1,245	86,979	0	1015,44	8,3	9,9	9,7	1	1	1	1	1	1	1	1	1	0	1	-11,768851	275,810544	316,346475	0
15.01.2021	13:10:37	0	80,916287	1,818632	0,843	327,8376	1,248	86,991	0	1015,34	8,5	9,9	9,7	1	1	1	1	1	1	1	1	1	0	1	-14,305849	275,807284	313,793964	0
15.01.2021	13:10:38	0	80,681724	4,773909	0,864	327,384	1,244	86,977	0	1015,42	8,4	9,9	9,7	1	1	1	1	1	1	1	1	1	0	1	-9,231853	275,830116	318,976617	0
15.01.2021	13:10:39	0	80,91624	4,887575	0,88125	329,6088	1,253	86,984	0	1015,44	8,4	9,9	9,7	1	1	1	1	1	1	1	1	1	0	1	-12,825934	275,730829	314,910229	0
15.01.2021	13:10:40	0	80,212597	2,50062	0,9015	331,5744	1,252	86,986	0	1015,48	8,5	9,9	9,7	1	1	1	1	1	1	1	1	1	0	1	-14,164905	275,657908	313,224699	0
15.01.2021	13:10:41	0	80,564383	2,614285	0,9105	332,2476	1,257	86,99	0	1015,34	8,5	9,9	9,7	1	1	1	1	1	1	1	1	1	0	1	-14,587738	275,747071	313,225653	0
15.01.2021	13:10:42	0	80,32982	4,432918	0,9135	331,0884	1,25	86,994	0	1015,3	8,3	9,9	9,7	1	1	1	1	1	1	1	1	1	0	1	-11,557435	275,83338	316,66657	0
15.01.2021	13:10:43	0	80,212527	5,001242	0,909	333,8244	1,252	86,999	0	1015,44	8,5	9,9	9,7	1	1	1	1	1	1	1	1	1	0	1	-12,825934	275,774713	315,118923	0
15.01.2021	13:10:44	0	80,095234	3,523603	0,97725	330,0084	1,258	87,001	0	1015,24	8,5	9,9	9,7	1	1	1	1	1	1	1	1	1	0	1	-15,785765	275,818696	312,368358	0
15.01.2021	13:10:45	0	80,095211	3,296274	1,00725	326,2788	1,251	86,986	0	1015,4	8,4	9,9	9,7	1	1	1	1	1	1	1	1	1	0	1	-14,023961	275,659526	313,373327	0
15.01.2021	13:10:46	0	80,329727	4,432921	1,02975	333,8352	1,254	86,993	0	1015,32	8,5	9,9	9,7	1	1	1	1	1	1	1	1	1	0	1	-14,728682	275,714601	312,930331	0
15.01.2021	13:10:47	0	80,212433	4,319257	1,053	336,0024	1,255	86,993	0	1015,38	8,5	9,9	9,7	1	1	1	1	1	1	1	1	1	0	1	-10,711769	275,813804	317,419073	0
15.01.2021	13:10:48	0	80,09514	3,637269	1,056	329,4468	1,253	86,989	0	1015,36	8,4	9,9	9,7	1	1	1	1	1	1	1	1	1	0	1	-13,460183	275,662761	313,952476	0
15.01.2021	13:10:49	0	80,211825	2,273294	1,077	334,9332	1,252	86,984	0	1015,18	8,4	10	9,7	1	1	1	1	1	1	1	1	1	0	1	-15,221987	275,72109	312,467877	0
15.01.2021	13:10:50	0	80,212363	4,205594	1,0845	338,3928	1,255	86,992	0	1015,26	8,4	9,9	9,7	1	1	1	1	1	1	1	1	1	0	1	-15,433404	275,657908	311,9562	0
15.01.2021	13:10:51	0	80,329609	5,001248	1,07625	337,9644	1,256	87,001	0	1015,28	8,4	9,9	9,7	1	1	1	1	1	1	1	1	1	0	1	-14,799154	275,802395	313,277395	0
15.01.2021	13:10:52	0	79,74268	2,841618	1,0725	342,72	1,256	86,976	0	1015,2	8,4	10	9,7	1	1	1	1	1	1	1	1	1	0	1	-10,641297	275,670852	316,809803	0
15.01.2021	13:10:53	0	79,977754	3,523607	1,03575	335,7036	1,26	87,001	0	1015,34	8,4	9,9	9,7	1	1	1	1	1	1	1	1	1	0	1	-13,742072	275,709735	313,893812	0
15.01.2021	13:10:54	0	80,212269	2,727954	1,06725	321,48	1,259	86,992	0	1015,48	8,4	9,9	9,7	1	1	1	1	1	1	1	1	1	0	1	-13,178295	275,782851	314,805272	0
15.01.2021	13:10:55	0	79,860437	3,750938	1,074	331,1352	1,252	86,981	0	1015,38	8,4	9,9	9,7	1	1	1	1	1	1	1	1	1	0	1	-11,980268	275,662761	315,432391	0
15.01.2021	13:10:56	0	79,860414	3,523609	1,0755	330,7284	1,26	86,988	0	1015,44	8,4	9,9	9,7	1	1	1	1	1	1	1	1	1	0	1	-10,641297	275,698386	316,940645	0
15.01.2021	13:10:57	0	79,743121	4,205598	1,07925	341,3232	1,254	86,985	0	1015,32	8,4	9,9	9,7	1	1	1	1	1	1	1	1	1	0	1	-10,218464	275,844807	318,059939	0
15.01.2021	13:10:58	0	79,625828	3,978269	1,119	346,8312	1,26	86,983	0	1015,38	8,4	9,9	9,7	1	1	1	1	1	1	1	1	1	0	1	-13,601128	275,766579	314,305039	0
15.01.2021	13:10:59	0	79,860343	4,091935	1,137	334,2816	1,253	86,974	0	1015,16	8,4	9,9	9,7	1	1	1	1	1	1	1	1	1	0	1	-13,6716	275,838276	314,575714	0
15.01.2021	13:11:00	0	79,508489	4,319265	1,1565	348,6528	1,257	86,988	0	1015,36	8,5	9,9	9,7	1	1	1	1	1	1	1	1	1	0	1	-10,923185	275,730829	316,812978	0
15.01.2021	13:11:01	0	79,508489	4,319265	1,1565	348,6528	1,257	86,988	0	1015,36	8,5	9,9	9,7	1	1	1	1	1	1	1	1	1	0	1	-16,420014	275,83338	311,803991	0
15.01.2021	13:11:02	0	79,743004	4,091936	1,1415	347,256	1,259	86,968	0	1015,34	8,4	9,9	9,7	1	1	1	1	1	1	1	1	1	0	1	-17,89993	275,774713	310,044927	0
15.01.2021	13:11:03	0	79,156635	3,637277	1,13475	346,4856	1,254	86,98	0	1015,34	8,4	9,9	9,7	1	1	1	1	1	1	1	1	1	0	1	-13,812544	275,841542	314,450313	0
15.01.2021	13:11:04	0	79,156611	3,864608	1,131	341,6472	1,256	86,975	0	1015,44	8,4	9,9	9,7	1	1	1	1	1	1	1	1	1	0	1	-10,007047	275,722713	317,690531	0
15.01.2021	13:11:05	0	79,039319	2,386964	1,1445	344,2608	1,262	86,98	0	1015,3	8,4	9,9	9,7	1	1	1	1	1	1	1	1	1	0	1	-17,406624	275,835012	310,82515	0
15.01.2021	13:11:06	0	79,156565	2,841624	1,1535	342,0756	1,263	86,989	0	1015,36	8,4	9,9	9,7	1	1	1	1	1	1	1	1	1	0	1	-13,953488	275,70487	313,659273	0
15.01.2021	13:11:07	0	79,27381	2,841624	1,2	341,7012	1,265	86,978	0	1015,28	8,4	9,9	9,7	1	1	1	1	1	1	1	1	1	0	1	-13,389711	275,841542	314,873146	0
15.01.2021	13:11:08	0	79,156518	3,18262	1,248	341,9568	1,263	86,997	0	1015,44	8,4	9,9	9,7	1	1	1	1	1	1	1	1	1	0	1	-15,64482	275,677327	311,837045	0
15.01.2021	13:11:09	0	79,156495	3,40995	1,26675	343,0656	1,264	87	0	1015,42	8,4	9,9	9,7	1	1	1	1	1	1	1	1	1	0	1	-10,570825	275,797507	317,482469	0
15.01.2021	13:11:10	0	79,039202	2,500631	1,25925	349,4448	1,264	86,97	0	1015,3	8,4	9,9	9,7	1	1	1	1	1	1	1	1	1	0	1	-14,235377	275,674089	313,231104	0
15.01.2021	13:11:11	0	78,92191	3,864611	1,17225	338,004	1,263	86,988	0	1015,32	8,4	9,9	9,7	1	1	1	1	1	1	1	1	1	0	1	-15,926709	275,703249	311,678346	0
15.01.2021	13:11:12	0	79,273693	4,432937	1,17375	340,938	1,261	86,992	0	1015,36	8,4	9,9	9,7	1	1	1	1	1	1	1	1	1	0	1	-16,842847	275,804024	311,241456	0
15.01.2021	13:11:13	0	79,27367	4,091943	1,1745	351,3852	1,269	86,992	0	1015,26	8,4	9,9	9,7	1	1	1	1	1	1	1	1	1	0	1	-12,544045	275,675708	314,930128	0
15.01.2021	13:11:14	0	79,156377	4,546604	1,17225	340,8984	1,262	86,985	0	1015,24	8,4	9,9	9,7	1	1	1	1	1	1	1	1	1	0	1	-14,587738	275,745446	313,217926	0
15.01.2021	13:11:15	0	78,921816	4,660269	1,08075	332,0208	1,265	86,995	0	1015,44	8,4	9,9	9,7	1	1	1	1	1	1	1	1	1	0	1	-11,980268	275,844807	316,298135	0
15.01.2021	13:11:16	0	79,15633	3,523619	1,0455	335,3328	1,264	86,987	0	1015,34	8,4	9,9	9,7	1	1	1	1	1	1	1	1	1	0	1	-14,094433	275,782851	313,889134	0
15.01.2021	13:11:17	0	78,804501	3,182624	1,12575	334,1736	1,269	86,996	0	1015,44	8,4	9,9	9,7	1	1	1	1	1	1	1	1	1	0	1	-11,275546	275,857876	317,065073	0
15.01.2021	13:11:18	0	79,039015	5,342262	1,17225	340,2396	1,268	86,994	0	1015,4	8,4	9,9	9,7	1	1	1	1	1	1	1	1	1	0	1	-18,88654	275,800765	309,182257	0
15.01.2021	13:11:19	0	79,038991	4,091946	1,227	338,3388	1,27	87,004	0	1015,2	8,4	9,9	9,7	1	1	1	1	1	1	1	1	1	0	1	-16,067653	275,838276	312,17966	0
15.01.2021	13:11:20	0	78,804431	2,727965	1,329	335,7684	1,264	86,989	0	1015,28	8,4	9,9	9,7	1	1	1	1	1	1	1	1	1	0	1	-14,728682	275,708113	312,899493	0
15.01.2021	13:11:21	0	78,452602	2,727965	1,34175	327,924	1,265	87,004	0	1015,12	8,4	9,9	9,7	1	1	1	1	1	1	1	1	1	0	1	-13,319239	275,677327	314,162627	0
15.01.2021	13:11:22	0	78,804384	5,00127	1,3665	342,0288	1,266	87,006	0	1015,34	8,4	9,9	9,7	1	1	1	1	1	1	1	1	1	0	1	-13,319239	275,732453	314,424643	0
15.01.2021	13:11:23	0	78,218018	3,296292	1,3725	337,5648	1,267	87,007	0	1015,4	8,4	9,9	9,7	1	1	1	1	1	1	1	1	1	0	1	-14,65821	275,854608	313,66685	0
15.01.2021	13:11:24	0	78,452532	3,182627	1,35075	339,8184	1,273	87,01	0	1015,44	8,4	9,9	9,7	1	1	1	1	1	1	1	1	1	0	1	-13,178295	275,712979	314,473008	0
15.01.2021	13:11:25	0	78,33524	4,546611	1,42425	345,348	1,267	87,013	0	1015,36	8,4	9,9	9,7	1	1	1	1	1	1	1	1	1	0	1	-13,530655	275,677327	313,95121	0
15.01.2021	13:11:26	0	78,80429	4,432946	1,41375	339,8004	1,272	87,02	0	1015,3	8,4	9,9	9,7	1	1	1	1	1	1	1	1	1	0	1	-15,433404	275,800765	312,635393	0
15.01.2021	13:11:27	0	78,803714	4,887608	1,4295	339,3936	1,276	87,011	0	1015,2	8,4	10	9,7	1	1	1	1	1	1	1	1	1	0	1	-13,248767	275,683804	314,263878	0
15.01.2021	13:11:28	0	78,569706	4,432948	1,4475	339,4152	1,276	87,014	0	1015,44	8,4	9,9	9,7	1	1	1	1	1	1	1	1	1	0	1	-14,094433	275,781223	313,88139	0
15.01.2021	13:11:29	0	78,10061	3,068964	1,41675	338,6844	1,277	87,017	0	1015,34	8,4	9,9	9,7	1	1	1	1	1	1	1	1	1	0	1	-16,631431	275,854608	311,693629	0
15.01.2021	13:11:30	0	78,452391	3,523626	1,41225	337,5648	1,278	87,022	0	1015,36	8,4	9,9	9,7	1	1	1	1	1	1	1	1	1	0	1	-18,675123	275,745446	309,130541	0
15.01.2021	13:11:31	0	78,217831	3,523627	1,386	331,1964	1,275	87,022	0	1015,3	8,4	9,9	9,7	1	1	1	1	1	1	1	1	1	0	1	-16,349542	275,839909	311,905543	0
15.01.2021	13:11:32	0	78,68688	5,001277	1,368	336,8124	1,274	87,012	0	1015,22	8,4	9,9	9,7	1	1	1	1	1	1	1	1	1	0	1	-14,65821	275,743821	313,139729	0
15.01.2021	13:11:33	0	78,217784	3,296297	1,407	343,0404	1,275	87,017	0	1015,32	8,4	9,9	9,7	1	1	1	1	1	1	1	1	1	0	1	-12,191684	275,664379	315,228661	0
15.01.2021	13:11:34	0	78,335029	3,97829	1,44	344,9916	1,279	87,018	0	1015,28	8,4	9,9	9,7	1	1	1	1	1	1	1	1	1	0	1	-10,852713	275,738948	316,922054	0
15.01.2021	13:11:35	0	77,983202	3,97829	1,425	346,4604	1,271	87,027	0	1015,4	8,4	9,9	9,7	1	1	1	1	1	1	1	1	1	0	1	-14,869626	275,844807	313,408776	0
15.01.2021	13:11:36	0	77,983178	3,523629	1,4235	345,6792	1,278	87,017	0	1015,34	8,4	9,9	9,7	1	1	1	1	1	1	1	1	1	0	1	-13,883016	275,844807	314,395387	0
15.01.2021	13:11:37	0	78,217691	2,841637	1,45425	344,6496	1,276	87,027	0	1015,24	8,4	9,9	9,7	1	1	1	1	1	1	1	1	1	0	1	-10,42988	275,690284	317,113555	0
15.01.2021	13:11:38	0	77,983131	3,296299	1,37025	356,0976	1,278	87,024	0	1015,34	8,4	9,9	9,7	1	1	1	1	1	1	1	1	1	0	1	-13,460183	275,7357	314,29914	0
15.01.2021	13:11:39	0	78,217644	2,841638	1,3305	352,8432	1,269	87,012	0	1015,26	8,4	9,9	9,7	1	1	1	1	1	1	1	1	1	0	1	-12,191684	275,695145	315,374853	0
15.01.2021	13:11:40	0	78,334888	4,205624	1,4055	343,4652	1,275	87,009	0	1015,3	8,4	9,9	9,7	1	1	1	1	1	1	1	1	1	0	1	-13,248767	275,691904	314,302369	0
15.01.2021	13:11:41	0	77,983061	4,660287	1,46475	345,8412	1,277	87,022	0	1015,36	8,4	9,9	9,7	1	1	1	1	1	1	1	1	1	0	1	-14,235377	275,841542	314,02748	0
15.01.2021	13:11:42	0	77,748502	2,841639	1,476	350,3376	1,278	87,021	0	1015,32	8,4	9,9	9,7	1	1	1	1	1	1	1	1	1	0	1	-12,403101	275,828484	315,797603	0
15.01.2021	13:11:43	0	77,983014	3,182636	1,479	345,348	1,277	87,006	0	1015,38	8,4	9,9	9,7	1	1	1	1	1	1	1	1	1	0	1	-14,728682	275,774713	313,216174	0
15.01.2021	13:11:44	0	78,216978	4,660289	1,48575	353,3472	1,277	87,013	0	1015,28	8,4	10	9,7	1	1	1	1	1	1	1	1	1	0	1	-13,460183	275,818696	314,693939	0
15.01.2021	13:11:45	0	77,865154	4,205627	1,46775	351,0864	1,279	86,991	0	1015,36	8,4	10	9,7	1	1	1	1	1	1	1	1	1	0	1	-11,909796	275,685424	315,610545	0
15.01.2021	13:11:46	0	77,982943	3,864631	1,51125	350,2044	1,278	87,01	0	1015,4	8,4	9,9	9,7	1	1	1	1	1	1	1	1	1	0	1	-16,349542	275,709735	311,286342	0
15.01.2021	13:11:47	0	77,51385	2,841641	1,5885	351,7452	1,284	86,991	0	1015,5	8,4	9,9	9,7	1	1	1	1	1	1	1	1	1	0	1	-11,41649	275,677327	316,065375	0
15.01.2021	13:11:48	0	77,747817	2,955307	1,5705	352,0512	1,271	86,992	0	1015,22	8,4	10	9,7	1	1	1	1	1	1	1	1	1	0	1	-11,486963	275,777968	316,473376	0
15.01.2021	13:11:49	0	77,747793	3,068973	1,44225	350,208	1,279	86,968	0	1015,3	8,4	10	9,7	1	1	1	1	1	1	1	1	1	0	1	-9,161381	275,693524	318,397455	0
15.01.2021	13:11:50	0	77,74777	4,09194	1,35525	350,208	1,282	86,969	0	1015,28	8,4	10	9,8	1	1	1	1	1	1	1	1	1	0	1	-10,500352	275,818696	317,65377	0
15.01.2021	13:11:51	0	77,631023	4,091941	1,26375	352,5156	1,274	86,948	0	1015,24	8,4	9,9	9,8	1	1	1	1	1	1	1	1	1	0	1	-11,909796	275,677327	315,57207	0
15.01.2021	13:11:52	0	77,513189	4,432936	1,2735	354,222	1,279	86,933	0	1015,4	8,4	10	9,8	1	1	1	1	1	1	1	1	1	0	1	-11,557435	275,843175	316,713194	0
15.01.2021	13:11:53	0	77,748244	4,660295	1,29075	356,2344	1,275	86,923	0	1015,22	8,4	9,9	9,7	1	1	1	1	1	1	1	1	1	0	1	-16,842847	275,843175	311,427782	0
15.01.2021	13:11:54	0	77,864942	4,432964	1,317	353,3004	1,279	86,919	0	1015,3	8,4	10	9,7	1	1	1	1	1	1	1	1	1	0	1	-16,27907	275,734076	311,472532	0
15.01.2021	13:11:55	0	77,630385	4,887628	1,305	353,9736	1,279	86,925	0	1015,36	8,4	10	9,7	1	1	1	1	1	1	1	1	1	0	1	-10,852713	275,830116	317,355757	0
15.01.2021	13:11:56	0	77,748173	3,864637	1,26825	357,606	1,279	86,906	0	1015,38	8,4	9,9	9,7	1	1	1	1	1	1	1	1	1	0	1	-12,191684	275,771459	315,737694	0
15.01.2021	13:11:57	0	77,279081	2,386982	1,302	355,7232	1,281	86,891	0	1015,36	8,4	9,9	9,7	1	1	1	1	1	1	1	1	1	0	1	-12,966878	275,848074	315,327074	0
15.01.2021	13:11:58	0	77,630315	3,637306	1,40325	348,2784	1,277	86,877	0	1015,44	8,4	10	9,7	1	1	1	1	1	1	1	1	1	0	1	-14,094433	275,823589	314,082977	0
15.01.2021	13:11:59	0	77,279034	3,750973	1,48275	346,1184	1,275	86,87	0	1015,3	8,5	9,9	9,7	1	1	1	1	1	1	1	1	1	0	1	-15,574348	275,664379	311,845997	0
15.01.2021	13:12:00	0	77,512978	3,182644	1,545	347,5872	1,275	86,872	0	1015,42	8,4	10	9,7	1	1	1	1	1	1	1	1	1	0	1	-11,134602	275,734076	316,617	0
15.01.2021	13:12:01	0	77,512978	3,182644	1,545	347,5872	1,275	86,872	0	1015,42	8,4	10	9,7	1	1	1	1	1	1	1	1	1	0	1	-17,688513	275,711357	309,95508	0
15.01.2021	13:12:02	0	77,748031	4,887633	1,62	353,5812	1,279	86,87	0	1015,36	8,4	9,9	9,7	1	1	1	1	1	1	1	1	1	0	1	-11,839323	275,83338	316,384682	0
15.01.2021	13:12:03	0	77,278398	5,114966	1,6365	342,3816	1,279	86,87	0	1015,36	8,4	10	9,7	1	1	1	1	1	1	1	1	1	0	1	-14,446794	275,825221	313,73838	0
15.01.2021	13:12:04	0	77,278916	4,091949	1,617	339,4728	1,276	86,863	0	1015,5	8,4	9,9	9,8	1	1	1	1	1	1	1	1	1	0	1	-15,926709	275,662761	311,48595	0
15.01.2021	13:12:05	0	77,395617	4,319306	1,59225	348,012	1,273	86,859	0	1015,4	8,4	10	9,7	1	1	1	1	1	1	1	1	1	0	1	-11,768851	275,846441	316,517326	0
15.01.2021	13:12:06	0	77,278327	2,614301	1,5795	345,0744	1,276	86,848	0	1015,24	8,4	10	9,8	1	1	1	1	1	1	1	1	1	0	1	-10,711769	275,734076	317,039833	0
15.01.2021	13:12:07	0	77,513379	2,386985	1,54275	348,2964	1,273	86,844	0	1015,38	8,3	9,9	9,7	1	1	1	1	1	1	1	1	1	0	1	-13,107822	275,677327	314,374043	0
15.01.2021	13:12:08	0	77,043748	2,727967	1,5285	341,3448	1,271	86,83	0	1015,34	8,4	10	9,8	1	1	1	1	1	1	1	1	1	0	1	-14,023961	275,790992	313,998335	0
15.01.2021	13:12:09	0	77,278257	3,068982	1,40175	341,0208	1,277	86,842	0	1015,26	8,4	10	9,7	1	1	1	1	1	1	1	1	1	0	1	-15,081043	275,664379	312,339302	0
15.01.2021	13:12:10	0	77,395499	3,068983	1,22175	340,5996	1,273	86,839	0	1015,38	8,4	10	9,7	1	1	1	1	1	1	1	1	1	0	1	-16,349542	275,760074	311,525687	0
15.01.2021	13:12:11	0	77,160944	4,546642	1,1625	345,384	1,273	86,833	0	1015,38	8,5	10	9,7	1	1	1	1	1	1	1	1	1	0	1	-13,530655	275,843175	314,739974	0
15.01.2021	13:12:12	0	77,043654	4,773946	1,0875	342,2052	1,274	86,819	0	1015,32	8,4	10	9,8	1	1	1	1	1	1	1	1	1	0	1	-15,010571	275,769832	312,911069	0
15.01.2021	13:12:13	0	76,809099	3,068966	1,04925	340,6248	1,275	86,818	0	1015,38	8,4	10	9,8	1	1	1	1	1	1	1	1	1	0	1	-13,883016	275,843175	314,387613	0
15.01.2021	13:12:14	0	77,278138	3,637293	1,008	348,714	1,271	86,82	0	1015,38	8,4	10	9,8	1	1	1	1	1	1	1	1	1	0	1	-16,772375	275,763326	311,118321	0
15.01.2021	13:12:15	0	76,926856	3,97829	1,03725	346,536	1,279	86,828	0	1015,26	8,4	9,9	9,8	1	1	1	1	1	1	1	1	1	0	1	-14,235377	275,841542	314,02748	0
15.01.2021	13:12:16	0	77,278091	3,523629	1,011	333,1404	1,271	86,805	0	1015,26	8,5	10	9,8	1	1	1	1	1	1	1	1	1	0	1	-14,446794	275,766579	313,459373	0
15.01.2021	13:12:17	0	77,278067	4,773949	1,02225	338,778	1,276	86,814	0	1015,34	8,5	10	9,8	1	1	1	1	1	1	1	1	1	0	1	-13,460183	275,810544	314,655143	0
15.01.2021	13:12:18	0	77,278044	5,114946	1,05525	349,0632	1,274	86,816	0	1015,3	8,4	10	9,8	1	1	1	1	1	1	1	1	1	0	1	-15,574348	275,685424	311,945993	0
15.01.2021	13:12:19	0	77,043489	3,637296	1,05225	331,1712	1,278	86,829	0	1015,28	8,4	10	9,8	1	1	1	1	1	1	1	1	1	0	1	-14,376321	275,664379	313,044024	0
15.01.2021	13:12:20	0	77,160731	4,319289	1,06575	333,1116	1,276	86,812	0	1015,28	8,5	10	9,8	1	1	1	1	1	1	1	1	1	0	1	-13,601128	275,782851	314,382439	0
15.01.2021	13:12:21	0	76,80891	4,660314	1,071	342,3996	1,277	86,806	0	1015,32	8,4	10	9,7	1	1	1	1	1	1	1	1	1	0	1	-14,869626	275,844807	313,408776	0
15.01.2021	13:12:22	0	77,043418	3,06897	1,04925	338,4108	1,275	86,825	0	1015,36	8,5	10	9,8	1	1	1	1	1	1	1	1	1	0	1	-11,768851	275,779595	316,199229	0
15.01.2021	13:12:23	0	76,691598	4,205626	1,0395	333,9792	1,278	86,805	0	1015,34	8,4	10	9,8	1	1	1	1	1	1	1	1	1	0	1	-9,936575	275,857876	318,404044	0
15.01.2021	13:12:24	0	77,04337	3,864653	1,01475	335,664	1,272	86,813	0	1015,18	8,4	10	9,7	1	1	1	1	1	1	1	1	1	0	1	-13,953488	275,790992	314,068807	0
15.01.2021	13:12:25	0	76,69155	4,432958	0,9945	337,9572	1,275	86,782	0	1015,28	8,4	10	9,8	1	1	1	1	1	1	1	1	1	0	1	-14,799154	275,838276	313,448159	0
15.01.2021	13:12:26	0	76,691527	3,06899	0,93825	332,7732	1,273	86,796	0	1015,38	8,4	10	9,7	1	1	1	1	1	1	1	1	1	0	1	-12,332629	275,678946	315,156931	0
15.01.2021	13:12:27	0	76,926034	2,500644	0,8685	329,2848	1,274	86,781	0	1015,24	8,4	10	9,8	1	1	1	1	1	1	1	1	1	0	1	-13,742072	275,706492	313,878396	0
15.01.2021	13:12:28	0	76,574214	2,045982	0,822	336,8556	1,271	86,783	0	1015,3	8,5	10	9,8	1	1	1	1	1	1	1	1	1	0	1	-14,799154	275,789363	313,215394	0
15.01.2021	13:12:29	0	76,925986	2,614326	0,78	351,018	1,268	86,769	0	1015,24	8,4	10	9,7	1	1	1	1	1	1	1	1	1	0	1	-11,205074	275,714601	316,45394	0
15.01.2021	13:12:30	0	76,456902	2,955308	0,75975	342,0972	1,271	86,761	0	1015,44	8,4	10	9,8	1	1	1	1	1	1	1	1	1	0	1	-15,362932	275,662761	312,049727	0
15.01.2021	13:12:31	0	76,808673	2,955308	0,72075	318,978	1,278	86,758	0	1015,34	8,5	10	9,8	1	1	1	1	1	1	1	1	1	0	1	-12,614517	275,722713	315,083061	0
15.01.2021	13:12:32	0	76,691385	2,273314	0,729	308,5344	1,277	86,745	0	1015,38	8,3	10	9,8	1	1	1	1	1	1	1	1	1	0	1	-13,953488	275,65144	313,405386	0
15.01.2021	13:12:33	0	76,808626	3,409992	0,66675	315,5292	1,275	86,75	0	1015,36	8,4	10	9,7	1	1	1	1	1	1	1	1	1	0	1	-18,604651	275,777968	309,355687	0
15.01.2021	13:12:34	0	76,339542	2,386995	0,66525	326,7936	1,276	86,74	0	1015,38	8,3	10	9,7	1	1	1	1	1	1	1	1	1	0	1	-13,812544	275,851341	314,49696	0
15.01.2021	13:12:35	0	76,574048	3,750993	0,6975	332,8236	1,27	86,721	0	1015,34	8,5	10	9,7	1	1	1	1	1	1	1	1	1	0	1	-16,27907	275,830116	311,9294	0
15.01.2021	13:12:36	0	76,339495	3,864637	0,70725	333,4896	1,268	86,709	0	1015,24	8,4	10	9,8	1	1	1	1	1	1	1	1	1	0	1	-10,288936	275,700007	317,30071	0
15.01.2021	13:12:37	0	76,456736	4,205634	0,75675	330,7392	1,269	86,706	0	1015,42	8,4	10	9,8	1	1	1	1	1	1	1	1	1	0	1	-13,883016	275,688664	313,65272	0
15.01.2021	13:12:38	0	76,456712	4,660298	0,8445	333,4428	1,273	86,695	0	1015,4	8,4	10	9,8	1	1	1	1	1	1	1	1	1	0	1	-10,993658	275,65144	316,365217	0
15.01.2021	13:12:39	0	76,808483	4,319302	0,99	332,064	1,262	86,676	0	1015,3	8,5	10	9,8	1	1	1	1	1	1	1	1	1	0	1	-14,094433	275,789363	313,920116	0
15.01.2021	13:12:40	0	76,222135	2,841646	1,16025	333,936	1,271	86,668	0	1015,36	8,5	10	9,8	1	1	1	1	1	1	1	1	1	0	1	-18,181818	275,849707	310,11991	0
15.01.2021	13:12:41	0	76,456641	4,773966	1,3935	338,3244	1,27	86,659	0	1015,36	8,4	10	9,8	1	1	1	1	1	1	1	1	1	0	1	-11,557435	275,812174	316,565649	0
15.01.2021	13:12:42	0	76,573882	4,773967	1,5795	338,3928	1,26	86,624	0	1015,34	8,5	10	9,8	1	1	1	1	1	1	1	1	1	0	1	-13,460183	275,670852	313,990916	0
15.01.2021	13:12:43	0	76,456593	2,50065	1,65825	339,444	1,256	86,622	0	1015,38	8,5	10	9,8	1	1	1	1	1	1	1	1	1	0	1	-10,852713	275,802395	317,223837	0
15.01.2021	13:12:44	0	76,22204	3,864664	1,68525	344,1564	1,264	86,597	0	1015,24	8,5	10	9,7	1	1	1	1	1	1	1	1	1	0	1	-15,64482	275,85951	312,703579	0
15.01.2021	13:12:45	0	76,456546	3,182646	1,59075	333,1224	1,264	86,608	0	1015,32	8,5	10	9,8	1	1	1	1	1	1	1	1	1	0	1	-16,560958	275,77634	311,391639	0
15.01.2021	13:12:46	0	76,339257	3,409979	1,5405	336,4884	1,267	86,597	0	1015,46	8,3	10	9,8	1	1	1	1	1	1	1	1	1	0	1	-14,376321	275,852974	313,94096	0
15.01.2021	13:12:47	0	76,221969	2,955315	1,47225	339,1668	1,266	86,573	0	1015,28	8,5	10	9,8	1	1	1	1	1	1	1	1	1	0	1	-12,191684	275,802395	315,884865	0
15.01.2021	13:12:48	0	76,104681	2,84165	1,407	333,5544	1,267	86,572	0	1015,38	8,5	10	9,8	1	1	1	1	1	1	1	1	1	0	1	-12,262156	275,693524	315,296679	0
15.01.2021	13:12:49	0	76,45645	4,773972	1,32825	326,4156	1,265	86,576	0	1015,32	8,3	10	9,8	1	1	1	1	1	1	1	1	1	0	1	-11,557435	275,657908	315,832169	0
15.01.2021	13:12:50	0	76,339162	2,955317	1,34925	322,2288	1,26	86,551	0	1015,44	8,5	10	9,8	1	1	1	1	1	1	1	1	1	0	1	-13,812544	275,72109	313,87732	0
15.01.2021	13:12:51	0	75,987345	2,500653	1,30875	321,5052	1,255	86,555	0	1015,32	8,3	10	9,8	1	1	1	1	1	1	1	1	1	0	1	-16,983791	275,830116	311,224679	0
15.01.2021	13:12:52	0	76,104586	2,955317	1,30125	341,7876	1,256	86,537	0	1015,2	8,5	10	9,8	1	1	1	1	1	1	1	1	1	0	1	-12,191684	275,797507	315,861609	0
15.01.2021	13:12:53	0	75,870033	2,386987	1,26375	2,286	1,258	86,525	0	1015,36	8,5	10	9,8	1	1	1	1	1	1	1	1	1	0	1	-9,725159	275,659526	317,672129	0
15.01.2021	13:12:54	0	76,573595	4,432977	1,266	349,974	1,259	86,53	0	1015,34	8,3	10	9,8	1	1	1	1	1	1	1	1	1	0	1	-16,067653	275,706492	311,552815	0
15.01.2021	13:12:55	0	75,98725	3,637315	1,2705	339,5016	1,256	86,533	0	1015,4	8,5	10	9,8	1	1	1	1	1	1	1	1	1	0	1	-12,825934	275,841542	315,436923	0
15.01.2021	13:12:56	0	76,456283	4,432979	1,314	341,6688	1,263	86,527	0	1015,48	8,4	10	9,8	1	1	1	1	1	1	1	1	1	0	1	-15,151515	275,777968	312,808823	0
15.01.2021	13:12:57	0	76,221731	3,750983	1,359	330,0156	1,254	86,513	0	1015,32	8,5	10	9,8	1	1	1	1	1	1	1	1	1	0	1	-13,601128	275,687044	313,926911	0
15.01.2021	13:12:58	0	75,518122	3,409985	1,386	333,4824	1,245	86,511	0	1015,4	8,5	10	9,8	1	1	1	1	1	1	1	1	1	0	1	-10,711769	275,818696	317,442354	0
15.01.2021	13:12:59	0	76,338947	3,750984	1,467	328,1688	1,252	86,504	0	1015,32	8,3	10	9,8	1	1	1	1	1	1	1	1	1	0	1	-14,023961	275,712979	313,627342	0
15.01.2021	13:13:00	0	75,987107	3,750985	1,56075	335,3328	1,256	86,51	0	1015,44	8,5	10	9,8	1	1	1	1	1	1	1	1	1	0	1	-15,856237	275,714601	311,802777	0
15.01.2021	13:13:01	0	75,987107	3,750985	1,56075	335,3328	1,256	86,51	0	1015,44	8,5	10	9,8	1	1	1	1	1	1	1	1	1	0	1	-15,856237	275,714601	311,802777	0
15.01.2021	13:13:02	0	75,752555	2,841656	1,54125	328,8708	1,257	86,509	0	1015,48	8,5	10	9,8	1	1	1	1	1	1	1	1	1	0	1	-10,641297	275,64659	316,694539	0
15.01.2021	13:13:03	0	75,869795	4,432983	1,49925	332,8488	1,252	86,488	0	1015,5	8,5	10	9,8	1	1	1	1	1	1	1	1	1	0	1	-12,121212	275,782851	315,862354	0
15.01.2021	13:13:04	0	75,987035	3,750987	1,4595	336,5568	1,253	86,509	0	1015,36	8,5	10	9,8	1	1	1	1	1	1	1	1	1	0	1	-7,188161	275,743821	320,609778	0
15.01.2021	13:13:05	0	75,752483	3,409988	1,48725	337,5432	1,252	86,521	0	1015,4	8,5	10	9,8	1	1	1	1	1	1	1	1	1	0	1	-12,684989	275,818696	315,469133	0
15.01.2021	13:13:06	0	75,635196	3,750988	1,50525	331,9236	1,249	86,49	0	1015,38	8,5	10	9,8	1	1	1	1	1	1	1	1	1	0	1	-12,544045	275,779595	315,424035	0
15.01.2021	13:13:07	0	75,986963	4,887651	1,506	331,3692	1,251	86,51	0	1015,38	8,4	10	9,8	1	1	1	1	1	1	1	1	1	0	1	-16,208598	275,823589	311,968812	0
15.01.2021	13:13:08	0	75,517884	3,296324	1,491	332,7156	1,249	86,515	0	1015,26	8,5	10	9,8	1	1	1	1	1	1	1	1	1	0	1	-15,362932	275,683804	312,149713	0
15.01.2021	13:13:09	0	75,869652	3,864656	1,50975	330,426	1,247	86,512	0	1015,24	8,5	10	9,8	1	1	1	1	1	1	1	1	1	0	1	-13,107822	275,716223	314,558903	0
15.01.2021	13:13:10	0	75,400573	4,319322	1,49925	327,7872	1,253	86,523	0	1015,4	8,5	10	9,8	1	1	1	1	1	1	1	1	1	0	1	-12,473573	275,825221	315,711601	0
15.01.2021	13:13:11	0	75,986868	3,750991	1,509	329,328	1,25	86,527	0	1015,32	8,5	10	9,8	1	1	1	1	1	1	1	1	1	0	1	-13,03735	275,712979	314,613953	0
15.01.2021	13:13:12	0	75,400525	3,864681	1,47825	331,1352	1,247	86,511	0	1015,32	8,5	10	9,7	1	1	1	1	1	1	1	1	1	0	1	-12,403101	275,661143	315,001872	0
15.01.2021	13:13:13	0	75,635029	2,386995	1,509	315,8424	1,244	86,515	0	1015,44	8,5	10	9,8	1	1	1	1	1	1	1	1	1	0	1	-12,684989	275,734076	315,066613	0
15.01.2021	13:13:14	0	75,400478	3,978325	1,5435	338,7708	1,249	86,51	0	1015,32	8,5	10	9,8	1	1	1	1	1	1	1	1	1	0	1	-11,698379	275,653057	315,668177	0
15.01.2021	13:13:15	0	75,400454	3,864659	1,51725	320,0256	1,25	86,53	0	1015,38	8,5	10	9,8	1	1	1	1	1	1	1	1	1	0	1	-12,684989	275,763326	315,205707	0
15.01.2021	13:13:16	0	75,869484	4,319326	1,44375	318,5028	1,249	86,522	0	1015,48	8,5	10	9,8	1	1	1	1	1	1	1	1	1	0	1	-11,698379	275,649823	315,652815	0
15.01.2021	13:13:17	0	75,51767	2,955329	1,4325	344,376	1,248	86,533	0	1015,3	8,5	10	9,8	1	1	1	1	1	1	1	1	1	0	1	-9,513742	275,717845	318,160695	0
15.01.2021	13:13:18	0	75,517646	3,637328	1,39575	326,808	1,243	86,524	0	1015,4	8,5	10	9,8	1	1	1	1	1	1	1	1	1	0	1	-11,698379	275,844807	316,580024	0
15.01.2021	13:13:19	0	75,283095	2,95533	1,3185	317,6748	1,244	86,509	0	1015,38	8,5	10	9,8	1	1	1	1	1	1	1	1	1	0	1	-16,067653	275,698386	311,514289	0
15.01.2021	13:13:20	0	75,400334	4,773995	1,305	324,0504	1,242	86,526	0	1015,32	8,5	10	9,8	1	1	1	1	1	1	1	1	1	0	1	-13,883016	275,773086	314,054101	0
15.01.2021	13:13:21	0	75,7521	3,864663	1,33425	322,6104	1,249	86,543	0	1015,28	8,5	10	9,8	1	1	1	1	1	1	1	1	1	0	1	-12,896406	275,643357	314,424075	0
15.01.2021	13:13:22	0	75,283023	3,97833	1,299	321,876	1,251	86,539	0	1015,42	8,3	10	9,8	1	1	1	1	1	1	1	1	1	0	1	-9,584214	275,661143	317,820759	0
15.01.2021	13:13:23	0	75,517526	3,864664	1,27575	324,3924	1,247	86,541	0	1015,22	8,5	10	9,8	1	1	1	1	1	1	1	1	1	0	1	-13,03735	275,781223	314,938473	0
15.01.2021	13:13:24	0	75,165712	3,182665	1,224	323,3628	1,25	86,542	0	1015,36	8,5	10	9,8	1	1	1	1	1	1	1	1	1	0	1	-12,121212	275,664379	315,299133	0
15.01.2021	13:13:25	0	75,517478	3,864665	1,26825	315,1944	1,25	86,532	0	1015,42	8,5	10	9,8	1	1	1	1	1	1	1	1	1	0	1	-13,178295	275,700007	314,411351	0
15.01.2021	13:13:26	0	75,165664	4,773999	1,335	322,1712	1,247	86,547	0	1015,38	8,5	10	9,8	1	1	1	1	1	1	1	1	1	0	1	-12,896406	275,826852	315,296532	0
15.01.2021	13:13:27	0	75,048377	2,387	1,395	316,5588	1,25	86,54	0	1015,34	8,5	10	9,8	1	1	1	1	1	1	1	1	1	0	1	-12,896406	275,665997	314,531627	0
15.01.2021	13:13:28	0	75,400143	4,433	1,43475	322,128	1,251	86,542	0	1015,36	8,5	10	9,8	1	1	1	1	1	1	1	1	1	0	1	-14,023961	275,789363	313,990588	0
15.01.2021	13:13:29	0	74,696541	2,728001	1,3515	328,5648	1,251	86,528	0	1015,42	8,3	10	9,8	1	1	1	1	1	1	1	1	1	0	1	-15,64482	275,812174	312,478264	0
15.01.2021	13:13:30	0	75,282832	5,228669	1,33575	311,814	1,243	86,532	0	1015,36	8,5	10	9,8	1	1	1	1	1	1	1	1	1	0	1	-10,852713	275,835012	317,379061	0
15.01.2021	13:13:31	0	74,813756	3,069002	1,34325	314,7912	1,243	86,523	0	1015,34	8,5	10	9,8	1	1	1	1	1	1	1	1	1	0	1	-12,05074	275,794249	315,987053	0
15.01.2021	13:13:32	0	75,048258	2,841669	1,365	325,1016	1,249	86,529	0	1015,32	8,5	10	9,8	1	1	1	1	1	1	1	1	1	0	1	-13,389711	275,653057	313,976845	0
15.01.2021	13:13:33	0	75,165497	2,500669	1,371	321,1416	1,247	86,538	0	1015,42	8,5	10	9,8	1	1	1	1	1	1	1	1	1	0	1	-15,292459	275,781223	312,683363	0
15.01.2021	13:13:34	0	75,282736	4,546671	1,404	317,4156	1,247	86,531	0	1015,4	8,5	10	9,8	1	1	1	1	1	1	1	1	1	0	1	-10,42988	275,659526	316,967408	0
15.01.2021	13:13:35	0	74,930923	3,410004	1,362	322,5492	1,243	86,541	0	1015,38	8,5	10	9,8	1	1	1	1	1	1	1	1	1	0	1	-11,134602	275,747071	316,678789	0
15.01.2021	13:13:36	0	74,813636	3,864672	1,35525	315,8604	1,246	86,524	0	1015,3	8,5	10	9,8	1	1	1	1	1	1	1	1	1	0	1	-12,614517	275,817066	315,531844	0
15.01.2021	13:13:37	0	75,165401	4,66034	1,32975	314,892	1,246	86,55	0	1015,42	8,5	10	9,8	1	1	1	1	1	1	1	1	1	0	1	-11,557435	275,83338	316,66657	0
15.01.2021	13:13:38	0	74,813589	2,841671	1,3245	315,486	1,246	86,542	0	1015,3	8,5	10	9,8	1	1	1	1	1	1	1	1	1	0	1	-13,248767	275,725959	314,464243	0
15.01.2021	13:13:39	0	74,930827	4,205674	1,248	312,4296	1,247	86,566	0	1015,32	8,5	10	9,8	1	1	1	1	1	1	1	1	1	0	1	-10,570825	275,836644	317,668719	0
15.01.2021	13:13:40	0	74,813541	3,751007	1,22025	314,5104	1,247	86,558	0	1015,38	8,3	10	9,8	1	1	1	1	1	1	1	1	1	0	1	-13,953488	275,72109	313,736376	0
15.01.2021	13:13:41	0	74,930779	5,001344	1,16475	312,498	1,25	86,544	0	1015,24	8,5	10	9,8	1	1	1	1	1	1	1	1	1	0	1	-12,403101	275,815435	315,735501	0
15.01.2021	13:13:42	0	74,69623	3,069007	1,1205	311,022	1,248	86,546	0	1015,42	8,5	10	9,8	1	1	1	1	1	1	1	1	1	0	1	-14,446794	275,708113	313,181382	0
15.01.2021	13:13:43	0	75,165256	4,319344	1,0965	309,9564	1,247	86,55	0	1015,32	8,5	10	9,8	1	1	1	1	1	1	1	1	1	0	1	-13,03735	275,831748	315,178887	0
15.01.2021	13:13:44	0	74,930707	4,546678	1,08825	307,1484	1,245	86,549	0	1015,38	8,5	10	9,8	1	1	1	1	1	1	1	1	1	0	1	-17,970402	275,779595	309,997678	0
15.01.2021	13:13:45	0	74,461633	3,864677	1,041	303,9228	1,248	86,548	0	1015,46	8,5	10	9,8	1	1	1	1	1	1	1	1	1	0	1	-13,742072	275,828484	314,458632	0
15.01.2021	13:13:46	0	74,696134	2,841675	0,98925	304,6788	1,242	86,536	0	1015,4	8,5	10	9,8	1	1	1	1	1	1	1	1	1	0	1	-14,65821	275,737324	313,108835	0
15.01.2021	13:13:47	0	74,930635	2,955342	0,9375	307,2096	1,245	86,539	0	1015,4	8,5	10	9,8	1	1	1	1	1	1	1	1	1	0	1	-10,993658	275,636893	316,296122	0
15.01.2021	13:13:48	0	74,578824	2,500675	0,93075	311,0364	1,243	86,535	0	1015,34	8,5	10	9,8	1	1	1	1	1	1	1	1	1	0	1	-15,010571	275,797507	313,042722	0
15.01.2021	13:13:49	0	74,696062	3,182677	0,87375	314,424	1,247	86,543	0	1015,34	8,5	10	9,8	1	1	1	1	1	1	1	1	1	0	1	-10,288936	275,667615	317,146785	0
15.01.2021	13:13:50	0	74,696038	4,205681	0,8475	313,1712	1,245	86,548	0	1015,3	8,5	10	9,8	1	1	1	1	1	1	1	1	1	0	1	-14,446794	275,709735	313,18909	0
15.01.2021	13:13:51	0	74,696014	2,72801	0,83625	314,4564	1,245	86,554	0	1015,44	8,5	10	9,8	1	1	1	1	1	1	1	1	1	0	1	-6,624383	275,800765	321,444413	0
15.01.2021	13:13:52	0	74,813252	2,614343	0,80175	321,264	1,241	86,515	0	1015,26	8,5	10	9,8	1	1	1	1	1	1	1	1	1	0	1	-10,641297	275,83338	317,582709	0
15.01.2021	13:13:53	0	74,695966	3,410014	0,72825	324,8028	1,246	86,536	0	1015,32	8,5	10	9,8	1	1	1	1	1	1	1	1	1	0	1	-16,983791	275,740572	310,798699	0
15.01.2021	13:13:54	0	74,461418	2,046008	0,69825	321,156	1,248	86,575	0	1015,34	8,5	10	9,8	1	1	1	1	1	1	1	1	1	0	1	-16,27907	275,649823	311,072124	0
15.01.2021	13:13:55	0	74,695918	3,523682	0,7215	317,8188	1,239	86,524	0	1015,22	8,5	10	9,8	1	1	1	1	1	1	1	1	1	0	1	-12,403101	275,709735	315,232783	0
15.01.2021	13:13:56	0	74,695893	4,546687	0,7455	321,5556	1,24	86,53	0	1015,2	8,5	10	9,8	1	1	1	1	1	1	1	1	1	0	1	-10,147992	275,828484	318,052712	0
15.01.2021	13:13:57	0	74,813131	3,63735	0,77925	323,352	1,243	86,524	0	1015,32	8,5	10	9,8	1	1	1	1	1	1	1	1	1	0	1	-15,010571	275,777968	312,949767	0
15.01.2021	13:13:58	0	74,578583	3,069015	0,822	322,5672	1,25	86,534	0	1015,34	8,5	10	9,8	1	1	1	1	1	1	1	1	1	0	1	-12,966878	275,688664	314,568859	0
15.01.2021	13:13:59	0	74,461297	2,841681	0,822	318,4704	1,243	86,528	0	1015,42	8,5	10	9,8	1	1	1	1	1	1	1	1	1	0	1	-17,758985	275,805654	310,333073	0
15.01.2021	13:14:00	0	74,343987	3,296351	0,81825	333,7776	1,248	86,517	0	1015,38	8,5	10	9,8	1	1	1	1	1	1	1	1	1	0	1	-15,715292	275,682185	311,789656	0
15.01.2021	13:14:01	0	74,343987	3,296351	0,81825	333,7776	1,248	86,517	0	1015,38	8,5	10	9,8	1	1	1	1	1	1	1	1	1	0	1	-11,909796	275,657908	315,479808	0
15.01.2021	13:14:02	0	74,81301	4,092022	0,7995	329,6808	1,245	86,529	0	1015,26	8,5	10	9,8	1	1	1	1	1	1	1	1	1	0	1	-7,681466	275,662761	319,731193	0
15.01.2021	13:14:03	0	74,343939	2,614348	0,858	327,078	1,24	86,521	0	1015,36	8,5	10	9,8	1	1	1	1	1	1	1	1	1	0	1	-14,305849	275,831748	313,910388	0
15.01.2021	13:14:04	0	74,578438	2,273346	0,87675	330,8292	1,239	86,517	0	1015,32	8,5	10	9,8	1	1	1	1	1	1	1	1	1	0	1	-11,486963	275,706492	316,133505	0
15.01.2021	13:14:05	0	74,578414	3,864689	0,85125	330,7356	1,242	86,506	0	1015,28	8,5	10	9,8	1	1	1	1	1	1	1	1	1	0	1	-16,842847	275,79262	311,187197	0
15.01.2021	13:14:06	0	74,461128	4,774029	0,813	326,394	1,242	86,522	0	1015,4	8,5	10	9,8	1	1	1	1	1	1	1	1	1	0	1	-13,530655	275,79262	314,499388	0
15.01.2021	13:14:07	0	74,226581	3,523688	0,77175	324,8208	1,243	86,518	0	1015,32	8,5	10	9,8	1	1	1	1	1	1	1	1	1	0	1	-15,433404	275,83338	312,790601	0
15.01.2021	13:14:08	0	74,343818	3,864691	0,8085	321,9084	1,238	86,523	0	1015,4	8,5	10	9,8	1	1	1	1	1	1	1	1	1	0	1	-14,65821	275,784478	313,333101	0
15.01.2021	13:14:09	0	74,461056	4,433029	0,81975	312,48	1,244	86,53	0	1015,36	8,5	10	9,8	1	1	1	1	1	1	1	1	1	0	1	-13,319239	275,657908	314,070365	0
15.01.2021	13:14:10	0	74,226509	2,500683	0,876	320,832	1,243	86,522	0	1015,38	8,5	10	9,8	1	1	1	1	1	1	1	1	1	0	1	-18,675123	275,716223	308,991602	0
15.01.2021	13:14:11	0	73,991962	2,841686	1,0335	324,1224	1,248	86,528	0	1015,44	8,5	10	9,8	1	1	1	1	1	1	1	1	1	0	1	-15,081043	275,644973	312,247115	0
15.01.2021	13:14:12	0	73,991937	2,841686	1,218	324,1224	1,233	86,506	0	1015,28	8,5	10	9,8	1	1	1	1	1	1	1	1	1	0	1	-13,03735	275,810544	315,077976	0
15.01.2021	13:14:13	0	74,57822	4,433032	1,3905	324,7668	1,242	86,516	0	1015,42	8,5	10	9,8	1	1	1	1	1	1	1	1	1	0	1	-15,362932	275,661143	312,042041	0
15.01.2021	13:14:14	0	74,343673	3,18269	1,503	324,5292	1,246	86,497	0	1015,46	8,5	10	9,8	1	1	1	1	1	1	1	1	1	0	1	-15,64482	275,789363	312,369728	0
15.01.2021	13:14:15	0	74,226388	3,410025	1,52475	328,3668	1,235	86,51	0	1015,12	8,5	10	9,8	1	1	1	1	1	1	1	1	1	0	1	-11,41649	275,799136	316,644554	0
15.01.2021	13:14:16	0	74,109102	3,523693	1,57875	325,4148	1,24	86,504	0	1015,38	8,5	10	9,8	1	1	1	1	1	1	1	1	1	0	1	-14,940099	275,690284	312,603337	0
15.01.2021	13:14:17	0	74,578123	4,092032	1,60275	330,6996	1,242	86,516	0	1015,28	8,5	10	9,8	1	1	1	1	1	1	1	1	1	0	1	-14,869626	275,740572	312,912864	0
15.01.2021	13:14:18	0	74,460837	4,319368	1,57725	333,4608	1,243	86,516	0	1015,32	8,5	10	9,8	1	1	1	1	1	1	1	1	1	0	1	-11,698379	275,656291	315,683541	0
15.01.2021	13:14:19	0	74,226291	3,75103	1,53525	324,4104	1,24	86,497	0	1015,22	8,5	10	9,8	1	1	1	1	1	1	1	1	1	0	1	-11,557435	275,745446	316,248229	0
15.01.2021	13:14:20	0	73,991744	2,955358	1,4535	326,4408	1,24	86,517	0	1015,46	8,5	10	9,8	1	1	1	1	1	1	1	1	1	0	1	-11,134602	275,64659	316,201234	0
15.01.2021	13:14:21	0	74,226242	3,296361	1,43925	320,7924	1,245	86,516	0	1015,38	8,5	10	9,8	1	1	1	1	1	1	1	1	1	0	1	-10,923185	275,797507	317,130108	0
15.01.2021	13:14:22	0	74,108957	3,296362	1,428	318,4524	1,238	86,514	0	1015,38	8,5	10	9,8	1	1	1	1	1	1	1	1	1	0	1	-15,64482	275,807284	312,454993	0
15.01.2021	13:14:23	0	73,75715	3,523697	1,428	320,0436	1,236	86,517	0	1015,34	8,5	10	9,8	1	1	1	1	1	1	1	1	1	0	1	-12,755462	275,693524	314,803374	0
15.01.2021	13:14:24	0	74,108908	3,523698	1,47075	311,8464	1,237	86,51	0	1015,26	8,5	10	9,8	1	1	1	1	1	1	1	1	1	0	1	-14,65821	275,794249	313,379583	0
15.01.2021	13:14:25	0	73,874362	2,728025	1,4745	311,4072	1,242	86,52	0	1015,3	8,5	10	9,8	1	1	1	1	1	1	1	1	1	0	1	-18,040874	275,828484	310,15983	0
15.01.2021	13:14:26	0	73,757077	2,614357	1,458	314,1864	1,24	86,516	0	1015,36	8,5	10	9,8	1	1	1	1	1	1	1	1	1	0	1	-10,641297	275,763326	317,249399	0
15.01.2021	13:14:27	0	73,991575	4,205706	1,43175	318,4848	1,243	86,523	0	1015,32	8,5	10	9,8	1	1	1	1	1	1	1	1	1	0	1	-16,560958	275,841542	311,701898	0
15.01.2021	13:14:28	0	73,99155	4,319374	1,461	320,4684	1,241	86,522	0	1015,38	8,5	10	9,8	1	1	1	1	1	1	1	1	1	0	1	-14,023961	275,800765	314,044836	0
15.01.2021	13:14:29	0	73,991526	3,864704	1,43025	320,1516	1,238	86,515	0	1015,26	8,5	10	9,8	1	1	1	1	1	1	1	1	1	0	1	-13,953488	275,703249	313,651567	0
15.01.2021	13:14:30	0	73,63972	3,06903	1,458	317,0052	1,235	86,519	0	1015,3	8,5	10	9,8	1	1	1	1	1	1	1	1	1	0	1	-11,205074	275,669234	316,238336	0
15.01.2021	13:14:31	0	73,756956	2,841695	1,46775	318,8988	1,238	86,497	0	1015,22	8,5	10	9,8	1	1	1	1	1	1	1	1	1	0	1	-16,983791	275,769832	310,937849	0
15.01.2021	13:14:32	0	73,991453	4,433045	1,392	314,4672	1,232	86,501	0	1015,3	8,5	10	9,8	1	1	1	1	1	1	1	1	1	0	1	-10,500352	275,839909	317,754732	0
15.01.2021	13:14:33	0	73,874168	2,61436	1,275	312,5952	1,234	86,482	0	1015,32	8,5	10	9,8	1	1	1	1	1	1	1	1	1	0	1	-11,909796	275,750321	315,91905	0
15.01.2021	13:14:34	0	73,991404	4,205711	1,17525	326,0052	1,236	86,488	0	1015,48	8,5	10	9,8	1	1	1	1	1	1	1	1	1	0	1	-17,970402	275,836644	310,269142	0
15.01.2021	13:14:35	0	73,87412	2,15969	1,09725	325,9872	1,232	86,476	0	1015,34	8,5	10	9,8	1	1	1	1	1	1	1	1	1	0	1	-13,6716	275,708113	313,956576	0
15.01.2021	13:14:36	0	73,756835	4,31938	1,03725	320,04	1,237	86,479	0	1015,22	8,5	10	9,8	1	1	1	1	1	1	1	1	1	0	1	-11,909796	275,83338	316,31421	0
15.01.2021	13:14:37	0	73,991331	3,410037	0,95925	317,448	1,233	86,472	0	1015,32	8,5	10	9,8	1	1	1	1	1	1	1	1	1	0	1	-10,218464	275,711357	317,425129	0
15.01.2021	13:14:38	0	73,639526	4,546717	0,897	321,2424	1,237	86,473	0	1015,48	8,5	10	9,8	1	1	1	1	1	1	1	1	1	0	1	-14,869626	275,821958	313,30002	0
15.01.2021	13:14:39	0	74,108543	2,841699	0,8085	312,4512	1,235	86,453	0	1015,48	8,5	10	9,8	1	1	1	1	1	1	1	1	1	0	1	-11,346018	275,716223	316,320707	0
15.01.2021	13:14:40	0	73,639477	3,864711	0,786	309,8916	1,235	86,458	0	1015,34	8,5	10	9,8	1	1	1	1	1	1	1	1	1	0	1	-10,923185	275,641741	316,389619	0
15.01.2021	13:14:41	0	73,756713	4,660387	0,7185	320,9148	1,238	86,464	0	1015,38	8,5	10	9,8	1	1	1	1	1	1	1	1	1	0	1	-11,980268	275,72109	315,709596	0
15.01.2021	13:14:42	0	73,991209	2,8417	0,7305	322,2216	1,231	86,462	0	1015,26	8,5	10	9,8	1	1	1	1	1	1	1	1	1	0	1	-13,742072	275,654674	313,632166	0
15.01.2021	13:14:43	0	73,873925	4,433079	0,717	317,4084	1,231	86,447	0	1015,32	8,5	10	9,7	1	1	1	1	1	1	1	1	1	0	1	-11,134602	275,729206	316,593843	0
15.01.2021	13:14:44	0	73,75664	3,296373	0,71475	324,4428	1,232	86,452	0	1015,24	8,5	10	9,8	1	1	1	1	1	1	1	1	1	0	1	-7,470049	275,678946	320,01951	0
15.01.2021	13:14:45	0	73,991136	2,841701	0,76275	327,8412	1,234	86,465	0	1015,34	8,5	10	9,8	1	1	1	1	1	1	1	1	1	0	1	-14,65821	275,644973	312,669948	0
15.01.2021	13:14:46	0	73,639331	3,637378	0,9045	321,138	1,236	86,448	0	1015,36	8,5	10	9,8	1	1	1	1	1	1	1	1	1	0	1	-9,584214	275,719468	318,097936	0
15.01.2021	13:14:47	0	73,639307	4,433056	0,9975	343,0944	1,231	86,445	0	1015,3	8,5	10	9,8	1	1	1	1	1	1	1	1	1	0	1	-12,332629	275,838276	315,914685	0
15.01.2021	13:14:48	0	73,756542	2,500713	1,08525	345,0924	1,233	86,455	0	1015,36	8,5	10	9,7	1	1	1	1	1	1	1	1	1	0	1	-13,248767	275,683804	314,263878	0
15.01.2021	13:14:49	0	73,521998	2,841703	1,176	345,0672	1,233	86,45	0	1015,42	8,5	10	9,8	1	1	1	1	1	1	1	1	1	0	1	-17,195208	275,831748	311,021029	0
15.01.2021	13:14:50	0	73,756493	4,660422	1,16325	340,2648	1,232	86,448	0	1015,34	8,5	10	9,7	1	1	1	1	1	1	1	1	1	0	1	-15,151515	275,725959	312,561495	0
15.01.2021	13:14:51	0	73,521949	4,205722	1,13925	329,346	1,235	86,443	0	1015,38	8,5	10	9,8	1	1	1	1	1	1	1	1	1	0	1	-14,517266	275,656291	312,864655	0
15.01.2021	13:14:52	0	73,990964	4,092079	1,062	317,0304	1,234	86,453	0	1015,36	8,5	10	9,7	1	1	1	1	1	1	1	1	1	0	1	-11,134602	275,719468	316,547548	0
15.01.2021	13:14:53	0	73,63916	4,09208	1,02375	333,1368	1,231	86,452	0	1015,32	8,5	10	9,7	1	1	1	1	1	1	1	1	1	0	1	-14,446794	275,828484	313,75391	0
15.01.2021	13:14:54	0	73,639136	3,751051	0,978	349,0884	1,229	86,455	0	1015,36	8,5	10	9,8	1	1	1	1	1	1	1	1	1	0	1	-11,698379	275,758448	316,169117	0
15.01.2021	13:14:55	0	73,521851	2,841706	1,0125	329,6736	1,233	86,46	0	1015,5	8,5	10	9,8	1	1	1	1	1	1	1	1	1	0	1	-12,544045	275,678946	314,945514	0
15.01.2021	13:14:56	0	73,756346	4,546758	1,07475	319,3128	1,234	86,453	0	1015,42	8,5	10	9,7	1	1	1	1	1	1	1	1	1	0	1	-11,698379	275,835012	316,533395	0
15.01.2021	13:14:57	0	73,756322	4,546731	1,08375	334,62	1,232	86,444	0	1015,4	8,5	10	9,8	1	1	1	1	1	1	1	1	1	0	1	-13,812544	275,653057	313,554012	0
15.01.2021	13:14:58	0	73,521778	4,433063	1,0635	335,754	1,228	86,427	0	1015,34	8,5	10	9,8	1	1	1	1	1	1	1	1	1	0	1	-11,41649	275,734076	316,335112	0
15.01.2021	13:14:59	0	73,169975	2,841708	1,092	329,1876	1,231	86,446	0	1015,44	8,5	10	9,8	1	1	1	1	1	1	1	1	1	0	1	-15,785765	275,830116	312,422706	0
15.01.2021	13:15:00	0	73,287185	4,205729	1,21575	337,9392	1,232	86,448	0	1015,44	8,5	10	9,8	1	1	1	1	1	1	1	1	1	0	1	-11,134602	275,835012	317,097172	0
15.01.2021	13:15:01	0	73,287185	4,205729	1,21575	337,9392	1,232	86,448	0	1015,44	8,5	10	9,8	1	1	1	1	1	1	1	1	1	0	1	-11,134602	275,835012	317,097172	0
15.01.2021	13:15:02	0	73,287161	2,841709	1,2435	335,0448	1,225	86,43	0	1015,26	8,5	10	9,8	1	1	1	1	1	1	1	1	1	0	1	-11,839323	275,781223	316,136499	0
15.01.2021	13:15:03	0	73,638915	3,52372	1,26	323,9316	1,228	86,436	0	1015,42	8,5	10	9,8	1	1	1	1	1	1	1	1	1	0	1	-11,205074	275,802395	316,871476	0
15.01.2021	13:15:04	0	72,818074	2,387036	1,245	341,3052	1,232	86,443	0	1015,38	8,5	10	9,8	1	1	1	1	1	1	1	1	1	0	1	-9,654686	275,682185	317,850262	0
15.01.2021	13:15:05	0	73,638865	4,319426	1,2135	342,7092	1,229	86,454	0	1015,28	8,5	10	9,7	1	1	1	1	1	1	1	1	1	0	1	-14,235377	275,670852	313,215722	0
15.01.2021	13:15:06	0	73,052544	4,546738	1,19775	347,9076	1,233	86,431	0	1015,34	8,5	10	9,8	1	1	1	1	1	1	1	1	1	0	1	-11,557435	275,818696	316,596688	0
15.01.2021	13:15:07	0	73,287552	3,296405	1,158	334,2024	1,231	86,446	0	1015,32	8,5	10,1	9,7	1	1	1	1	1	1	1	1	1	0	1	-12,684989	275,774713	315,259867	0
15.01.2021	13:15:08	0	72,935236	3,069049	1,15275	326,2968	1,233	86,445	0	1015,38	8,5	10	9,8	1	1	1	1	1	1	1	1	1	0	1	-12,544045	275,813804	315,586797	0
15.01.2021	13:15:09	0	73,404249	3,182737	1,15875	324,0936	1,233	86,44	0	1015,42	8,5	10	9,7	1	1	1	1	1	1	1	1	1	0	1	-16,138125	275,711357	311,505468	0
15.01.2021	13:15:10	0	73,169706	3,978398	1,17525	333,1296	1,234	86,443	0	1015,32	8,5	10	9,8	1	1	1	1	1	1	1	1	1	0	1	-14,869626	275,825221	313,315547	0
15.01.2021	13:15:11	0	72,935163	4,66041	1,19175	325,5264	1,232	86,453	0	1015,3	8,5	10	9,8	1	1	1	1	1	1	1	1	1	0	1	-11,909796	275,781223	316,066027	0
15.01.2021	13:15:12	0	73,052398	5,001446	1,17525	322,8912	1,233	86,451	0	1015,38	8,5	10	9,7	1	1	1	1	1	1	1	1	1	0	1	-14,446794	275,812174	313,67629	0
15.01.2021	13:15:13	0	73,169632	4,77408	1,251	320,4036	1,233	86,458	0	1015,36	8,5	10	9,8	1	1	1	1	1	1	1	1	1	0	1	-11,41649	275,743821	316,381448	0
15.01.2021	13:15:14	0	73,052349	4,887779	1,287	318,3804	1,236	86,464	0	1015,36	8,5	10	9,7	1	1	1	1	1	1	1	1	1	0	1	-10,852713	275,830116	317,355757	0
15.01.2021	13:15:15	0	73,052324	4,433076	1,23975	320,3856	1,221	86,453	0	1015,3	8,5	10	9,8	1	1	1	1	1	1	1	1	1	0	1	-13,883016	275,755197	313,969017	0
15.01.2021	13:15:16	0	72,935041	3,410079	1,2735	325,1628	1,232	86,466	0	1015,3	8,5	10	9,7	1	1	1	1	1	1	1	1	1	0	1	-13,812544	275,83338	314,411461	0
15.01.2021	13:15:17	0	72,700498	3,296391	1,30875	341,6364	1,228	86,471	0	1015,4	8,5	10	9,8	1	1	1	1	1	1	1	1	1	0	1	-13,389711	275,810544	314,725615	0
15.01.2021	13:15:18	0	72,934991	4,546746	1,329	345,1536	1,234	86,467	0	1015,4	8,5	10	9,8	1	1	1	1	1	1	1	1	1	0	1	-12,966878	275,730829	314,769285	0
15.01.2021	13:15:19	0	72,818218	4,319436	1,3065	354,3156	1,228	86,475	0	1015,38	8,5	9,9	9,7	1	1	1	1	1	1	1	1	1	0	1	-12,966878	275,830116	315,241592	0
15.01.2021	13:15:20	0	72,583675	2,387057	1,2915	332,7588	1,228	86,475	0	1015,32	8,5	10,1	9,7	1	1	1	1	1	1	1	1	1	0	1	-14,65821	275,774713	313,286647	0
15.01.2021	13:15:21	0	72,817659	4,092098	1,26825	323,334	1,227	86,471	0	1015,36	8,5	10	9,7	1	1	1	1	1	1	1	1	1	0	1	-9,866103	275,83338	318,357902	0
15.01.2021	13:15:22	0	72,583117	3,069056	1,239	333,1944	1,228	86,483	0	1015,28	8,5	10	9,8	1	1	1	1	1	1	1	1	1	0	1	-12,191684	275,764952	315,706747	0
15.01.2021	13:15:23	0	72,934869	2,614381	1,266	337,1976	1,226	86,488	0	1015,36	8,5	10	9,8	1	1	1	1	1	1	1	1	1	0	1	-11,627907	275,656291	315,754013	0
15.01.2021	13:15:24	0	72,934844	4,433109	1,209	335,6856	1,231	86,482	0	1015,38	8,5	10	9,7	1	1	1	1	1	1	1	1	1	0	1	-8,668076	275,709735	318,967808	0
15.01.2021	13:15:25	0	72,817561	4,205771	1,14225	339,1092	1,236	86,494	0	1015,32	8,5	10	9,7	1	1	1	1	1	1	1	1	1	0	1	-11,06413	275,83338	317,159876	0
15.01.2021	13:15:26	0	72,348502	2,614383	1,12425	355,3884	1,23	86,497	0	1015,4	8,5	10	9,8	1	1	1	1	1	1	1	1	1	0	1	-9,231853	275,781223	318,743969	0
15.01.2021	13:15:27	0	72,818022	4,433111	1,1115	356,0832	1,231	86,485	0	1015,32	8,4	9,9	9,7	1	1	1	1	1	1	1	1	1	0	1	-19,309373	275,799136	308,751672	0
15.01.2021	13:15:28	0	72,34896	2,95539	1,06425	339,8256	1,237	86,494	0	1015,5	8,4	9,9	9,8	1	1	1	1	1	1	1	1	1	0	1	-11,41649	275,826852	316,776448	0
15.01.2021	13:15:29	0	72,934721	4,546782	1,0545	342,504	1,231	86,48	0	1015,28	8,5	10	9,7	1	1	1	1	1	1	1	1	1	0	1	-10,993658	275,747071	316,819733	0
15.01.2021	13:15:30	0	72,70018	4,546755	1,06575	348,7068	1,23	86,51	0	1015,5	8,5	10	9,8	1	1	1	1	1	1	1	1	1	0	1	-11,768851	275,802395	316,307698	0
15.01.2021	13:15:31	0	71,996605	2,84174	1,06125	344,2608	1,23	86,494	0	1015,28	8,5	10	9,7	1	1	1	1	1	1	1	1	1	0	1	-15,010571	275,823589	313,166839	0
15.01.2021	13:15:32	0	72,582872	4,887793	1,0995	347,9652	1,224	86,508	0	1015,2	8,5	10	9,7	1	1	1	1	1	1	1	1	1	0	1	-14,587738	275,808914	313,519831	0
15.01.2021	13:15:33	0	72,700106	3,978437	1,1235	360	1,23	86,508	0	1015,38	8,6	10	9,7	1	1	1	1	1	1	1	1	1	0	1	-15,926709	275,808914	312,18086	0
15.01.2021	13:15:34	0	72,700081	4,433116	1,1025	338,0724	1,227	86,499	0	1015,4	8,5	10	9,7	1	1	1	1	1	1	1	1	1	0	1	-14,940099	275,648206	312,403416	0
15.01.2021	13:15:35	0	72,348789	2,841741	1,16775	318,3948	1,228	86,505	0	1015,2	8,5	10,1	9,7	1	1	1	1	1	1	1	1	1	0	1	-11,41649	275,688664	316,119246	0
15.01.2021	13:15:36	0	72,466023	3,182732	1,22925	336,402	1,225	86,507	0	1015,3	8,5	9,9	9,8	1	1	1	1	1	1	1	1	1	0	1	-12,262156	275,773086	315,674961	0
15.01.2021	13:15:37	0	72,465491	4,205754	1,20525	351,3348	1,232	86,509	0	1015,32	8,5	10	9,8	1	1	1	1	1	1	1	1	1	0	1	-14,446794	275,669234	312,996616	0
15.01.2021	13:15:38	0	72,465466	3,296402	1,23825	336,1356	1,228	86,532	0	1015,36	8,4	10	9,8	1	1	1	1	1	1	1	1	1	0	1	-11,839323	275,730829	315,896839	0
15.01.2021	13:15:39	0	71,99641	3,637431	1,20675	340,2144	1,235	86,54	0	1015,42	8,4	10	9,7	1	1	1	1	1	1	1	1	1	0	1	-14,728682	275,648206	312,614833	0
15.01.2021	13:15:40	0	72,230901	3,864748	1,20225	352,836	1,234	86,541	0	1015,48	8,5	10	9,8	1	1	1	1	1	1	1	1	1	0	1	-14,376321	275,748696	313,444796	0
15.01.2021	13:15:41	0	72,230877	3,182754	1,16625	336,0348	1,236	86,539	0	1015,22	8,4	10	9,7	1	1	1	1	1	1	1	1	1	0	1	-8,879493	275,712979	318,77181	0
15.01.2021	13:15:42	0	71,879582	3,751103	1,125	335,3292	1,225	86,529	0	1015,28	8,5	10,1	9,7	1	1	1	1	1	1	1	1	1	0	1	-11,205074	275,839909	317,050011	0
15.01.2021	13:15:43	0	72,348085	3,751081	1,10775	336,384	1,233	86,552	0	1015,38	8,4	10	9,8	1	1	1	1	1	1	1	1	1	0	1	-12,262156	275,700007	315,327489	0
15.01.2021	13:15:44	0	72,231309	4,205784	1,1325	331,074	1,236	86,561	0	1015,38	8,5	9,9	9,7	1	1	1	1	1	1	1	1	1	0	1	-11,627907	275,669234	315,815503	0
15.01.2021	13:15:45	0	71,996263	3,410095	1,125	340,1676	1,232	86,555	0	1015,42	8,4	10	9,7	1	1	1	1	1	1	1	1	1	0	1	-13,319239	275,773086	314,617878	0
15.01.2021	13:15:46	0	71,761723	2,841747	1,13775	342,7812	1,238	86,56	0	1015,48	8,5	10	9,7	1	1	1	1	1	1	1	1	1	0	1	-11,486963	275,675708	315,98721	0
15.01.2021	13:15:47	0	72,113976	2,728077	1,164	332,352	1,239	86,564	0	1015,4	8,5	9,9	9,7	1	1	1	1	1	1	1	1	1	0	1	-12,191684	275,794249	315,846109	0
15.01.2021	13:15:48	0	71,878931	2,500723	1,16925	332,0424	1,229	86,57	0	1015,36	8,5	10	9,8	1	1	1	1	1	1	1	1	1	0	1	-14,305849	275,657908	313,083755	0
15.01.2021	13:15:49	0	71,996669	2,841731	1,20975	325,1412	1,23	86,548	0	1015,28	8,5	10,1	9,8	1	1	1	1	1	1	1	1	1	0	1	-9,654686	275,727582	318,06604	0
15.01.2021	13:15:50	0	71,644367	2,955418	1,2	325,2096	1,236	86,566	0	1015,34	8,5	10	9,7	1	1	1	1	1	1	1	1	1	0	1	-18,393235	275,674089	309,073246	0
15.01.2021	13:15:51	0	71,99662	3,864755	1,242	326,0088	1,231	86,585	0	1015,3	8,5	10,1	9,8	1	1	1	1	1	1	1	1	1	0	1	-9,654686	275,810544	318,46064	0
15.01.2021	13:15:52	0	71,64482	3,978425	1,2495	322,5276	1,233	86,586	0	1015,34	8,6	10,1	9,8	1	1	1	1	1	1	1	1	1	0	1	-13,883016	275,83338	314,340989	0
15.01.2021	13:15:53	0	71,644294	2,046048	1,29075	320,0688	1,235	86,581	0	1015,4	8,5	10	9,8	1	1	1	1	1	1	1	1	1	0	1	-17,406624	275,690284	310,136811	0
15.01.2021	13:15:54	0	71,410255	2,50074	1,239	318,8448	1,236	86,579	0	1015,24	8,5	10,1	9,7	1	1	1	1	1	1	1	1	1	0	1	-10,077519	275,662761	317,335139	0
15.01.2021	13:15:55	0	71,644245	1,932391	1,21575	320,7312	1,236	86,575	0	1015,42	8,5	10	9,7	1	1	1	1	1	1	1	1	1	0	1	-16,420014	275,807284	311,679799	0
15.01.2021	13:15:56	0	71,995992	4,546802	1,176	322,0704	1,24	86,576	0	1015,28	8,5	10	9,7	1	1	1	1	1	1	1	1	1	0	1	-14,869626	275,813804	313,261216	0
15.01.2021	13:15:57	0	71,410181	4,205793	1,17075	324,4392	1,233	86,576	0	1015,38	8,4	9,9	9,7	1	1	1	1	1	1	1	1	1	0	1	-10,007047	275,670852	317,444052	0
15.01.2021	13:15:58	0	71,409657	2,728082	1,1625	324,7164	1,237	86,573	0	1015,28	8,4	10	9,7	1	1	1	1	1	1	1	1	1	0	1	-18,816068	275,665997	308,611965	0
15.01.2021	13:15:59	0	71,761404	5,228825	1,21275	323,7048	1,233	86,573	0	1015,26	8,5	10	9,7	1	1	1	1	1	1	1	1	1	0	1	-11,134602	275,70487	316,47816	0
15.01.2021	13:16:00	0	71,527341	4,092125	1,1775	323,3772	1,235	86,587	0	1015,4	8,4	10,1	9,7	1	1	1	1	1	1	1	1	1	0	1	-17,406624	275,732453	310,337258	0
15.01.2021	13:16:01	0	71,527341	4,092125	1,1775	323,3772	1,235	86,587	0	1015,4	8,4	10,1	9,7	1	1	1	1	1	1	1	1	1	0	1	-17,829457	275,854608	310,495603	0
15.01.2021	13:16:02	0	71,527317	2,500744	1,17525	321,1344	1,235	86,576	0	1015,22	8,5	9,9	9,7	1	1	1	1	1	1	1	1	1	0	1	-14,799154	275,769832	313,122486	0
15.01.2021	13:16:03	0	71,058261	2,614414	1,15125	328,8996	1,234	86,577	0	1015,26	8,4	10,1	9,7	1	1	1	1	1	1	1	1	1	0	1	-12,191684	275,661143	315,213289	0
15.01.2021	13:16:04	0	70,940481	2,614399	1,23	325,5516	1,231	86,553	0	1015,38	8,5	10	9,8	1	1	1	1	1	1	1	1	1	0	1	-11,486963	275,779595	316,481117	0
15.01.2021	13:16:05	0	71,058212	2,955426	1,239	321,3972	1,233	86,571	0	1015,38	8,5	9,9	9,7	1	1	1	1	1	1	1	1	1	0	1	-11,909796	275,672471	315,548994	0
15.01.2021	13:16:06	0	71,409961	4,546782	1,269	336,8268	1,231	86,56	0	1015,36	8,5	9,9	9,8	1	1	1	1	1	1	1	1	1	0	1	-14,235377	275,782851	313,748189	0
15.01.2021	13:16:07	0	71,527194	4,774151	1,24575	325,1268	1,244	86,564	0	1015,34	8,6	10,1	9,7	1	1	1	1	1	1	1	1	1	0	1	-12,191684	275,688664	315,344052	0
15.01.2021	13:16:08	0	71,526668	2,841757	1,21125	321,5448	1,233	86,543	0	1015,3	8,6	10	9,7	1	1	1	1	1	1	1	1	1	0	1	-13,953488	275,769832	313,968152	0
15.01.2021	13:16:09	0	71,175372	2,955428	1,1895	330,0624	1,232	86,55	0	1015,26	8,5	9,9	9,7	1	1	1	1	1	1	1	1	1	0	1	-12,614517	275,656291	314,767403	0
15.01.2021	13:16:10	0	71,526619	5,115164	1,1355	330,9012	1,235	86,539	0	1015,2	8,4	10	9,7	1	1	1	1	1	1	1	1	1	0	1	-12,05074	275,725959	315,66227	0
15.01.2021	13:16:11	0	71,409838	2,841758	1,08675	332,1144	1,24	86,541	0	1015,4	8,5	9,9	9,7	1	1	1	1	1	1	1	1	1	0	1	-10,359408	275,844807	317,918995	0
15.01.2021	13:16:12	0	71,292056	2,614418	1,041	339,6744	1,235	86,543	0	1015,34	8,5	10	9,7	1	1	1	1	1	1	1	1	1	0	1	-15,433404	275,787735	312,573398	0
15.01.2021	13:16:13	0	71,409788	4,774156	0,97125	346,2192	1,232	86,515	0	1015,1	8,4	9,9	9,7	1	1	1	1	1	1	1	1	1	0	1	-16,560958	275,665997	310,867074	0
15.01.2021	13:16:14	0	71,175249	2,84176	0,9645	332,7768	1,231	86,511	0	1015,34	8,5	9,9	9,7	1	1	1	1	1	1	1	1	1	0	1	-9,795631	275,742197	317,994583	0
15.01.2021	13:16:15	0	70,822956	2,387079	0,957	332,784	1,238	86,513	0	1015,44	8,6	10	9,7	1	1	1	1	1	1	1	1	1	0	1	-13,812544	275,839909	314,442541	0
15.01.2021	13:16:16	0	71,057444	3,069102	0,9525	334,2456	1,232	86,5	0	1015,36	8,5	10	9,7	1	1	1	1	1	1	1	1	1	0	1	-11,768851	275,716223	315,897874	0
15.01.2021	13:16:17	0	71,175175	3,751125	0,9435	328,2372	1,234	86,495	0	1015,56	8,4	9,9	9,7	1	1	1	1	1	1	1	1	1	0	1	-15,010571	275,825221	313,174603	0
15.01.2021	13:16:18	0	71,057395	3,978443	0,9945	335,3472	1,234	86,487	0	1015,48	8,5	10	9,8	1	1	1	1	1	1	1	1	1	0	1	-14,094433	275,851341	314,215072	0
15.01.2021	13:16:19	0	70,588345	2,955433	0,96525	345,312	1,233	86,468	0	1015,28	8,4	10	9,7	1	1	1	1	1	1	1	1	1	0	1	-8,104299	275,815435	320,034303	0
15.01.2021	13:16:20	0	70,823329	3,523786	1,05	331,4664	1,233	86,472	0	1015,38	8,5	9,9	9,7	1	1	1	1	1	1	1	1	1	0	1	-9,020437	275,687044	318,507602	0
15.01.2021	13:16:21	0	70,822809	2,841746	1,1115	336,1896	1,234	86,468	0	1015,2	8,4	10	9,8	1	1	1	1	1	1	1	1	1	0	1	-10,711769	275,701628	316,885581	0
15.01.2021	13:16:22	0	70,705528	4,774134	1,143	348,6996	1,23	86,459	0	1015,34	8,5	10	9,8	1	1	1	1	1	1	1	1	1	0	1	-11,698379	275,841542	316,564477	0
15.01.2021	13:16:23	0	70,940513	2,728094	1,19325	343,1088	1,225	86,444	0	1015,36	8,6	10,1	9,7	1	1	1	1	1	1	1	1	1	0	1	-15,926709	275,742197	311,863505	0
15.01.2021	13:16:24	0	70,354203	2,500753	1,242	343,5372	1,233	86,432	0	1015,34	8,5	9,9	9,7	1	1	1	1	1	1	1	1	1	0	1	-14,164905	275,659526	313,232383	0
15.01.2021	13:16:25	0	70,940464	4,546824	1,27725	344,6784	1,234	86,423	0	1015,34	8,5	10,1	9,7	1	1	1	1	1	1	1	1	1	0	1	-18,604651	275,797507	309,448642	0
15.01.2021	13:16:26	0	70,353662	3,864801	1,293	340,236	1,229	86,42	0	1015,34	8,5	10	9,7	1	1	1	1	1	1	1	1	1	0	1	-14,235377	275,815435	313,903225	0
15.01.2021	13:16:27	0	70,939917	4,205814	1,3035	339,8148	1,227	86,407	0	1015,36	8,5	10	9,7	1	1	1	1	1	1	1	1	1	0	1	-14,799154	275,815435	313,339447	0
15.01.2021	13:16:28	0	70,353613	2,614425	1,32525	348,3612	1,231	86,403	0	1015,4	8,4	10	9,7	1	1	1	1	1	1	1	1	1	0	1	-10,42988	275,659526	316,967408	0
15.01.2021	13:16:29	0	70,588595	2,728096	1,335	334,2672	1,228	86,386	0	1015,26	8,5	10,1	9,7	1	1	1	1	1	1	1	1	1	0	1	-8,949965	275,714601	318,709049	0
15.01.2021	13:16:30	0	70,354057	2,614426	1,31475	338,4216	1,228	86,399	0	1015,38	8,5	10,1	9,7	1	1	1	1	1	1	1	1	1	0	1	-10,852713	275,846441	317,433464	0
15.01.2021	13:16:31	0	70,705307	2,841768	1,23975	347,9724	1,227	86,388	0	1015,36	8,5	10	9,7	1	1	1	1	1	1	1	1	1	0	1	-16,772375	275,734076	310,979227	0
15.01.2021	13:16:32	0	70,822538	3,864805	1,1925	342,3636	1,23	86,389	0	1015,36	8,5	10	9,7	1	1	1	1	1	1	1	1	1	0	1	-15,221987	275,662761	312,190671	0
15.01.2021	13:16:33	0	70,470746	2,728098	1,1595	342,7344	1,227	86,397	0	1015,44	8,5	10	9,7	1	1	1	1	1	1	1	1	1	0	1	-10,218464	275,800765	317,850333	0
15.01.2021	13:16:34	0	70,587977	2,273416	1,188	341,2908	1,223	86,368	0	1015,36	8,5	10	9,7	1	1	1	1	1	1	1	1	1	0	1	-10,42988	275,691904	317,121255	0
15.01.2021	13:16:35	0	70,587953	4,546832	1,19925	350,2548	1,223	86,367	0	1015,24	8,4	10	9,7	1	1	1	1	1	1	1	1	1	0	1	-12,755462	275,815435	315,38314	0
15.01.2021	13:16:36	0	70,705679	5,456199	1,275	347,8968	1,226	86,377	0	1015,4	8,5	10,1	9,7	1	1	1	1	1	1	1	1	1	0	1	-10,570825	275,690284	316,972611	0
15.01.2021	13:16:37	0	70,118881	3,410125	1,3155	346,842	1,228	86,366	0	1015,48	8,4	10	9,7	1	1	1	1	1	1	1	1	1	0	1	-18,816068	275,836644	309,423476	0
15.01.2021	13:16:38	0	70,587879	4,092151	1,28175	349,488	1,223	86,361	0	1015,34	8,5	10	9,7	1	1	1	1	1	1	1	1	1	0	1	-11,41649	275,813804	316,714352	0
15.01.2021	13:16:39	0	70,119323	2,955443	1,233	349,1136	1,225	86,376	0	1015,48	8,5	10,1	9,7	1	1	1	1	1	1	1	1	1	0	1	-15,221987	275,700007	312,367658	0
15.01.2021	13:16:40	0	70,236063	2,955443	1,16475	344,0016	1,221	86,355	0	1015,4	8,5	10	9,7	1	1	1	1	1	1	1	1	1	0	1	-10,993658	275,708113	316,634518	0
15.01.2021	13:16:41	0	70,353294	4,546836	1,1265	351,81	1,221	86,354	0	1015,4	8,5	10	9,7	1	1	1	1	1	1	1	1	1	0	1	-13,460183	275,846441	314,825994	0
15.01.2021	13:16:42	0	70,353269	3,069115	1,1085	353,97	1,225	86,36	0	1015,32	8,5	10	9,7	1	1	1	1	1	1	1	1	1	0	1	-11,627907	275,708113	316,000269	0
15.01.2021	13:16:43	0	70,4705	4,77418	1,0545	351,3852	1,219	86,355	0	1015,36	8,5	10	9,7	1	1	1	1	1	1	1	1	1	0	1	-10,641297	275,784478	317,350014	0
15.01.2021	13:16:44	0	70,118709	3,410129	1,047	346,464	1,218	86,359	0	1015,24	8,5	10	9,7	1	1	1	1	1	1	1	1	1	0	1	-9,936575	275,649823	317,414619	0
15.01.2021	13:16:45	0	70,47045	3,86479	1,0695	343,44	1,222	86,369	0	1015,34	8,5	10	9,8	1	1	1	1	1	1	1	1	1	0	1	-11,486963	275,763326	316,403733	0
15.01.2021	13:16:46	0	70,236407	3,978485	1,09875	355,0176	1,22	86,362	0	1015,32	8,5	10,1	9,7	1	1	1	1	1	1	1	1	1	0	1	-13,601128	275,838276	314,646186	0
15.01.2021	13:16:47	0	69,884125	2,955447	1,10175	354,2796	1,223	86,375	0	1015,42	8,5	10	9,7	1	1	1	1	1	1	1	1	1	0	1	-16,842847	275,823589	311,334562	0
15.01.2021	13:16:48	0	70,118611	2,841776	1,098	342,4356	1,225	86,379	0	1015,38	8,5	10	9,7	1	1	1	1	1	1	1	1	1	0	1	-11,486963	275,691904	316,064173	0
15.01.2021	13:16:49	0	70,587607	4,546843	1,09275	348,336	1,227	86,376	0	1015,28	8,5	10	9,7	1	1	1	1	1	1	1	1	1	0	1	-16,772375	275,771459	311,157003	0
15.01.2021	13:16:50	0	70,353072	4,660514	1,0425	356,5908	1,223	86,377	0	1015,22	8,5	10	9,7	1	1	1	1	1	1	1	1	1	0	1	-16,067653	275,830116	312,140817	0
15.01.2021	13:16:51	0	70,118537	2,61442	0,963	350,3016	1,222	86,386	0	1015,34	8,5	10	9,8	1	1	1	1	1	1	1	1	1	0	1	-12,896406	275,781223	315,079417	0
15.01.2021	13:16:52	0	69,766747	2,387094	0,9105	341,7048	1,222	86,375	0	1015,2	8,5	10	9,7	1	1	1	1	1	1	1	1	1	0	1	-10,359408	275,649823	316,991786	0
15.01.2021	13:16:53	0	70,001232	2,500765	0,89325	341,0244	1,223	86,381	0	1015,36	8,5	10	9,7	1	1	1	1	1	1	1	1	1	0	1	-18,393235	275,72109	309,296629	0
15.01.2021	13:16:54	0	69,883953	3,523785	0,85725	343,5948	1,222	86,389	0	1015,34	8,5	10	9,8	1	1	1	1	1	1	1	1	1	0	1	-16,138125	275,659526	311,259163	0
15.01.2021	13:16:55	0	69,883928	2,614437	0,8595	341,3376	1,216	86,39	0	1015,34	8,5	10	9,7	1	1	1	1	1	1	1	1	1	0	1	-7,963354	275,77634	319,989243	0
15.01.2021	13:16:56	0	70,118413	4,77419	0,87375	342,72	1,222	86,396	0	1015,36	8,5	10	9,7	1	1	1	1	1	1	1	1	1	0	1	-12,896406	275,823589	315,281004	0
15.01.2021	13:16:57	0	69,649369	2,728109	0,834	337,1688	1,223	86,408	0	1015,24	8,5	10	9,7	1	1	1	1	1	1	1	1	1	0	1	-14,235377	275,844807	314,043026	0
15.01.2021	13:16:58	0	70,118364	4,433178	0,83025	340,2396	1,218	86,397	0	1015,22	8,5	10	9,7	1	1	1	1	1	1	1	1	1	0	1	-12,473573	275,688664	315,062164	0
15.01.2021	13:16:59	0	70,118339	4,433179	0,8145	348,6528	1,223	86,403	0	1015,4	8,5	10	9,7	1	1	1	1	1	1	1	1	1	0	1	-9,654686	275,654674	317,719551	0
15.01.2021	13:17:00	0	69,649271	4,319509	0,87375	347,652	1,219	86,414	0	1015,32	8,5	10	9,7	1	1	1	1	1	1	1	1	1	0	1	-13,6716	275,825221	314,513574	0
15.01.2021	13:17:01	0	69,649271	4,319509	0,87375	347,652	1,219	86,414	0	1015,32	8,5	10	9,7	1	1	1	1	1	1	1	1	1	0	1	-16,27907	275,703249	311,325986	0
15.01.2021	13:17:02	0	69,766501	3,864802	0,9105	342,0576	1,219	86,42	0	1015,36	8,5	10	9,8	1	1	1	1	1	1	1	1	1	0	1	-9,866103	275,706492	317,754365	0
15.01.2021	13:17:03	0	70,11824	4,546853	0,9405	347,652	1,223	86,41	0	1015,46	8,5	10	9,7	1	1	1	1	1	1	1	1	1	0	1	-14,023961	275,807284	314,075853	0
15.01.2021	13:17:04	0	70,118215	4,546854	0,936	342,3528	1,219	86,423	0	1015,32	8,5	10	9,7	1	1	1	1	1	1	1	1	1	0	1	-10,147992	275,828484	318,052712	0
15.01.2021	13:17:05	0	69,766427	3,978498	0,936	341,3304	1,221	86,409	0	1015,26	8,5	10	9,7	1	1	1	1	1	1	1	1	1	0	1	-18,88654	275,670852	308,564559	0
15.01.2021	13:17:06	0	69,766402	3,18278	0,9135	340,5384	1,225	86,414	0	1015,3	8,5	10	9,8	1	1	1	1	1	1	1	1	1	0	1	-10,993658	275,703249	316,611398	0
15.01.2021	13:17:07	0	69,649123	3,751157	0,91725	338,7708	1,222	86,421	0	1015,34	8,5	10	9,7	1	1	1	1	1	1	1	1	1	0	1	-13,03735	275,831748	315,178887	0
15.01.2021	13:17:08	0	69,766353	3,06911	0,999	339,5196	1,216	86,421	0	1015,36	8,5	10	9,8	1	1	1	1	1	1	1	1	1	0	1	-12,614517	275,701628	314,982833	0
15.01.2021	13:17:09	0	70,000837	4,546858	1,0245	331,5096	1,22	86,422	0	1015,32	8,5	10	9,7	1	1	1	1	1	1	1	1	1	0	1	-12,05074	275,657908	315,338864	0
15.01.2021	13:17:10	0	69,883558	4,319516	1,00725	332,7876	1,22	86,433	0	1015,34	8,5	10	9,7	1	1	1	1	1	1	1	1	1	0	1	-11,698379	275,769832	316,223261	0
15.01.2021	13:17:11	0	69,766279	2,159758	1,02075	342,2916	1,225	86,424	0	1015,28	8,5	10	9,7	1	1	1	1	1	1	1	1	1	0	1	-16,560958	275,662761	310,8517	0
15.01.2021	13:17:12	0	69,766254	4,205821	1,0335	347,8932	1,224	86,433	0	1015,34	8,5	10	9,8	1	1	1	1	1	1	1	1	1	0	1	-14,094433	275,742197	313,695781	0
15.01.2021	13:17:13	0	70,117992	4,887847	0,97875	356,868	1,216	86,428	0	1015,36	8,5	10	9,8	1	1	1	1	1	1	1	1	1	0	1	-7,047216	275,835012	321,184558	0
15.01.2021	13:17:14	0	69,297188	2,95546	0,94725	360	1,22	86,448	0	1015,38	8,5	10	9,7	1	1	1	1	1	1	1	1	1	0	1	-11,346018	275,774713	316,598838	0
15.01.2021	13:17:15	0	69,531672	3,523798	0,87075	339,1632	1,224	86,433	0	1015,32	8,5	10	9,8	1	1	1	1	1	1	1	1	1	0	1	-17,054264	275,649823	310,296931	0
15.01.2021	13:17:16	0	69,766155	3,864811	0,81825	313,6536	1,217	86,434	0	1015,32	8,5	10	9,8	1	1	1	1	1	1	1	1	1	0	1	-13,389711	275,732453	314,354171	0
15.01.2021	13:17:17	0	69,414368	2,273419	0,7485	317,7576	1,216	86,436	0	1015,3	8,5	10	9,8	1	1	1	1	1	1	1	1	1	0	1	-13,460183	275,661143	313,94479	0
15.01.2021	13:17:18	0	69,883359	4,546865	0,68025	330,7248	1,212	86,441	0	1015,42	8,5	10	9,7	1	1	1	1	1	1	1	1	1	0	1	-14,164905	275,743821	313,633034	0
15.01.2021	13:17:19	0	69,062557	2,72812	0,687	327,8196	1,218	86,444	0	1015,36	8,5	10	9,7	1	1	1	1	1	1	1	1	1	0	1	-12,966878	275,64659	314,368958	0
15.01.2021	13:17:20	0	69,648802	2,955463	0,68475	326,3076	1,212	86,441	0	1015,38	8,5	10	9,7	1	1	1	1	1	1	1	1	1	0	1	-12,684989	275,815435	315,453612	0
15.01.2021	13:17:21	0	69,414269	3,637494	0,69075	328,914	1,217	86,457	0	1015,24	8,5	10	9,7	1	1	1	1	1	1	1	1	1	0	1	-13,248767	275,828484	314,951937	0
15.01.2021	13:17:22	0	69,88326	4,887883	0,71775	337,5072	1,223	86,451	0	1015,3	8,5	10	9,7	1	1	1	1	1	1	1	1	1	0	1	-12,966878	275,756822	314,892886	0
15.01.2021	13:17:23	0	69,765981	4,774213	0,7125	342,1008	1,221	86,469	0	1015,4	8,5	10	9,7	1	1	1	1	1	1	1	1	1	0	1	-12,966878	275,654674	314,40736	0
15.01.2021	13:17:24	0	69,765956	2,955465	0,714	343,0332	1,214	86,456	0	1015,22	8,5	10	9,7	1	1	1	1	1	1	1	1	1	0	1	-7,681466	275,711357	319,962127	0
15.01.2021	13:17:25	0	69,76642	3,86484	0,681	344,0016	1,215	86,457	0	1015,26	8,5	9,9	9,7	1	1	1	1	1	1	1	1	1	0	1	-13,460183	275,664379	313,960162	0
15.01.2021	13:17:26	0	69,648653	3,182791	0,7005	339,1416	1,219	86,453	0	1015,26	8,5	10	9,8	1	1	1	1	1	1	1	1	1	0	1	-9,302326	275,698386	318,279617	0
15.01.2021	13:17:27	0	69,296867	3,069139	0,70275	338,0148	1,223	86,477	0	1015,46	8,5	10	9,7	1	1	1	1	1	1	1	1	1	0	1	-12,05074	275,664379	315,369605	0
15.01.2021	13:17:28	0	69,648603	4,433175	0,69375	340,596	1,221	86,485	0	1015,38	8,5	10	9,8	1	1	1	1	1	1	1	1	1	0	1	-16,349542	275,802395	311,727008	0
15.01.2021	13:17:29	0	69,296818	3,751171	0,7125	328,59	1,223	86,487	0	1015,26	8,5	10	9,7	1	1	1	1	1	1	1	1	1	0	1	-10,42988	275,786107	317,569176	0
15.01.2021	13:17:30	0	69,648553	3,6375	0,73275	317,7576	1,223	86,474	0	1015,34	8,5	10	9,7	1	1	1	1	1	1	1	1	1	0	1	-14,65821	275,820327	313,503674	0
15.01.2021	13:17:31	0	69,296768	2,387095	0,789	320,1156	1,215	86,493	0	1015,32	8,5	10	9,8	1	1	1	1	1	1	1	1	1	0	1	-13,6716	275,779595	314,29648	0
15.01.2021	13:17:32	0	69,765757	4,433204	0,83175	330,8076	1,222	86,489	0	1015,32	8,5	10	9,7	1	1	1	1	1	1	1	1	1	0	1	-10,782241	275,826852	317,410697	0
15.01.2021	13:17:33	0	69,648478	3,296466	0,83775	334,6596	1,22	86,501	0	1015,46	8,5	10	9,8	1	1	1	1	1	1	1	1	1	0	1	-14,446794	275,706492	313,173675	0
15.01.2021	13:17:34	0	69,296694	3,751152	0,86325	319,2912	1,216	86,492	0	1015,26	8,5	10	9,8	1	1	1	1	1	1	1	1	1	0	1	-16,560958	275,664379	310,859387	0
15.01.2021	13:17:35	0	69,179415	2,500768	0,894	307,5156	1,217	86,496	0	1015,36	8,5	10	9,8	1	1	1	1	1	1	1	1	1	0	1	-14,940099	275,659526	312,457189	0
15.01.2021	13:17:36	0	69,53115	3,182816	0,984	308,8872	1,225	86,507	0	1015,4	8,5	10	9,7	1	1	1	1	1	1	1	1	1	0	1	-13,460183	275,688664	314,075553	0
15.01.2021	13:17:37	0	69,648378	3,978496	1,0515	311,76	1,22	86,505	0	1015,26	8,5	10	9,8	1	1	1	1	1	1	1	1	1	0	1	-13,03735	275,703249	314,567705	0
15.01.2021	13:17:38	0	69,296594	2,500785	1,044	317,718	1,222	86,521	0	1015,4	8,5	10	9,7	1	1	1	1	1	1	1	1	1	0	1	-12,332629	275,711357	315,310964	0
15.01.2021	13:17:39	0	69,413822	4,433183	1,011	320,652	1,221	86,525	0	1015,32	8,5	10	9,8	1	1	1	1	1	1	1	1	1	0	1	-14,376321	275,813804	313,754521	0
15.01.2021	13:17:40	0	69,062038	3,410162	1,0215	317,4336	1,221	86,534	0	1015,32	8,5	10	9,7	1	1	1	1	1	1	1	1	1	0	1	-14,587738	275,782851	313,395828	0
15.01.2021	13:17:41	0	69,531025	4,433185	1,0125	320,526	1,221	86,523	0	1015,24	8,5	10	9,8	1	1	1	1	1	1	1	1	1	0	1	-18,745595	275,800765	309,323201	0
15.01.2021	13:17:42	0	69,179241	3,069128	1,05075	315,2376	1,221	86,543	0	1015,26	8,5	10	9,8	1	1	1	1	1	1	1	1	1	0	1	-17,336152	275,691904	310,214983	0
15.01.2021	13:17:43	0	69,179217	3,864852	1,06875	312,1884	1,213	86,54	0	1015,32	8,5	10	9,7	1	1	1	1	1	1	1	1	1	0	1	-16,420014	275,794249	311,617779	0
15.01.2021	13:17:44	0	69,413697	4,66053	1,16475	310,0032	1,224	86,549	0	1015,38	8,5	10	9,8	1	1	1	1	1	1	1	1	1	0	1	-16,772375	275,844807	311,506028	0
15.01.2021	13:17:45	0	69,648178	4,887874	1,2375	304,272	1,219	86,537	0	1015,34	8,5	10	9,8	1	1	1	1	1	1	1	1	1	0	1	-12,191684	275,77634	315,760913	0
15.01.2021	13:17:46	0	69,179142	2,61446	1,30125	313,668	1,226	86,554	0	1015,38	8,5	10	9,7	1	1	1	1	1	1	1	1	1	0	1	-21,353066	275,64659	305,98277	0
15.01.2021	13:17:47	0	69,648128	4,319518	1,32375	320,022	1,224	86,536	0	1015,36	8,5	10	9,8	1	1	1	1	1	1	1	1	1	0	1	-12,403101	275,7617	315,479861	0
15.01.2021	13:17:48	0	69,413597	4,205872	1,35075	312,8184	1,221	86,543	0	1015,26	8,5	10	9,7	1	1	1	1	1	1	1	1	1	0	1	-14,517266	275,821958	313,652381	0
15.01.2021	13:17:49	0	69,29632	4,660562	1,434	316,2276	1,226	86,533	0	1015,3	8,5	10	9,7	1	1	1	1	1	1	1	1	1	0	1	-14,517266	275,753571	313,327038	0
15.01.2021	13:17:50	0	69,179042	4,433218	1,5675	325,0944	1,224	86,528	0	1015,2	8,5	10	9,7	1	1	1	1	1	1	1	1	1	0	1	-11,557435	275,667615	315,878286	0
15.01.2021	13:17:51	0	69,29627	3,751185	1,635	325,4832	1,22	86,511	0	1015,3	8,5	10	9,7	1	1	1	1	1	1	1	1	1	0	1	-16,560958	275,79262	311,469085	0
15.01.2021	13:17:52	0	69,413497	3,523841	1,6575	324,072	1,22	86,522	0	1015,22	8,5	10	9,7	1	1	1	1	1	1	1	1	1	0	1	-15,151515	275,65144	312,207359	0
15.01.2021	13:17:53	0	69,530725	4,546893	1,62975	327,1896	1,22	86,511	0	1015,42	8,5	10	9,7	1	1	1	1	1	1	1	1	1	0	1	-12,121212	275,760074	315,754017	0
15.01.2021	13:17:54	0	69,06169	4,205851	1,57875	315,5508	1,22	86,495	0	1015,22	8,5	10	9,8	1	1	1	1	1	1	1	1	1	0	1	-10,077519	275,848074	318,216433	0
15.01.2021	13:17:55	0	69,530674	4,31955	1,61475	332,8884	1,22	86,476	0	1015,16	8,5	10	9,7	1	1	1	1	1	1	1	1	1	0	1	-13,883016	275,727582	313,837711	0
15.01.2021	13:17:56	0	69,413397	4,77424	1,60425	331,6392	1,221	86,478	0	1015,02	8,5	10	9,7	1	1	1	1	1	1	1	1	1	0	1	-13,812544	275,669234	313,630866	0
15.01.2021	13:17:57	0	69,296119	3,2965	1,518	330,3144	1,216	86,471	0	1015,24	8,5	10	9,7	1	1	1	1	1	1	1	1	1	0	1	-17,829457	275,648206	309,514057	0
15.01.2021	13:17:58	0	69,06159	3,523824	1,527	326,0088	1,221	86,458	0	1015,34	8,5	10	9,8	1	1	1	1	1	1	1	1	1	0	1	-15,292459	275,675708	312,181713	0
15.01.2021	13:17:59	0	69,296069	3,069137	1,566	331,47	1,213	86,45	0	1015,3	8,5	10	9,8	1	1	1	1	1	1	1	1	1	0	1	-12,262156	275,688664	315,27358	0
15.01.2021	13:18:00	0	69,413271	3,864841	1,527	331,1532	1,214	86,435	0	1015,34	8,5	10	9,8	1	1	1	1	1	1	1	1	1	0	1	-12,966878	275,835012	315,264896	0
15.01.2021	13:18:01	0	69,413271	3,864841	1,527	331,1532	1,214	86,435	0	1015,34	8,5	10	9,8	1	1	1	1	1	1	1	1	1	0	1	-10,359408	275,79262	317,670636	0
15.01.2021	13:18:02	0	68,826985	2,72814	1,44675	337,1688	1,217	86,436	0	1015,44	8,5	10	9,7	1	1	1	1	1	1	1	1	1	0	1	-17,124736	275,685424	310,395605	0
15.01.2021	13:18:03	0	69,295968	3,978538	1,362	327,8628	1,217	86,417	0	1015,26	8,5	10	9,7	1	1	1	1	1	1	1	1	1	0	1	-17,26568	275,843175	311,004949	0
15.01.2021	13:18:04	0	69,295943	3,069159	1,22925	318,4992	1,218	86,427	0	1015,3	8,5	10	9,7	1	1	1	1	1	1	1	1	1	0	1	-9,584214	275,732453	318,159668	0
15.01.2021	13:18:05	0	69,41317	3,864867	1,14825	312,39	1,22	86,423	0	1015,38	8,5	10	9,7	1	1	1	1	1	1	1	1	1	0	1	-10,218464	275,706492	317,402004	0
15.01.2021	13:18:06	0	68,944137	3,523829	1,131	309,186	1,216	86,425	0	1015,32	8,5	10	9,8	1	1	1	1	1	1	1	1	1	0	1	-13,883016	275,83338	314,340989	0
15.01.2021	13:18:07	0	69,41312	4,319533	1,06425	315,3024	1,214	86,403	0	1015,32	8,5	10	9,8	1	1	1	1	1	1	1	1	1	0	1	-17,124736	275,698386	310,457206	0
15.01.2021	13:18:08	0	69,061339	3,410179	1,1505	334,206	1,22	86,407	0	1015,34	8,5	10	9,7	1	1	1	1	1	1	1	1	1	0	1	-12,473573	275,65144	314,885302	0
15.01.2021	13:18:09	0	69,295817	4,546878	1,23675	335,358	1,213	86,402	0	1015,3	8,5	10	9,8	1	1	1	1	1	1	1	1	1	0	1	-14,446794	275,708113	313,181382	0
15.01.2021	13:18:10	0	69,17854	4,546906	1,326	346,5	1,216	86,407	0	1015,36	8,5	10	9,7	1	1	1	1	1	1	1	1	1	0	1	-8,104299	275,828484	320,096405	0
15.01.2021	13:18:11	0	69,061263	3,182835	1,341	351,0756	1,217	86,408	0	1015,42	8,5	10	9,7	1	1	1	1	1	1	1	1	1	0	1	-15,503876	275,841542	312,758981	0
15.01.2021	13:18:12	0	69,17849	2,8418	1,37175	334,3032	1,214	86,376	0	1015,36	8,5	10	9,8	1	1	1	1	1	1	1	1	1	0	1	-15,856237	275,708113	311,771939	0
15.01.2021	13:18:13	0	69,178465	2,500785	1,38825	334,3032	1,22	86,391	0	1015,28	8,5	10	9,8	1	1	1	1	1	1	1	1	1	0	1	-9,936575	275,831748	318,279662	0
15.01.2021	13:18:14	0	69,295691	4,433237	1,3485	334,9656	1,214	86,404	0	1015,4	8,5	10	9,7	1	1	1	1	1	1	1	1	1	0	1	-12,262156	275,83338	315,961849	0
15.01.2021	13:18:15	0	68,826659	3,637506	1,3455	338,7132	1,218	86,414	0	1015,4	8,5	10	9,8	1	1	1	1	1	1	1	1	1	0	1	-14,305849	275,768205	313,608054	0
15.01.2021	13:18:16	0	68,943886	3,069165	1,36125	320,4468	1,207	86,391	0	1015,28	8,5	10	9,7	1	1	1	1	1	1	1	1	1	0	1	-16,067653	275,654674	311,306584	0
15.01.2021	13:18:17	0	68,943861	2,728131	1,3875	326,1276	1,237	86,366	0	1015,44	8,5	10	9,8	1	1	1	1	1	1	1	1	1	0	1	-13,178295	275,779595	314,789786	0
15.01.2021	13:18:18	0	69,412841	3,296492	1,32825	330,75	1,216	86,365	0	1015,4	8,5	10	9,8	1	1	1	1	1	1	1	1	1	0	1	-20,648344	275,836644	307,591199	0
15.01.2021	13:18:19	0	69,178313	2,841821	1,266	336,474	1,211	86,361	0	1015,36	8,5	10	9,7	1	1	1	1	1	1	1	1	1	0	1	-13,812544	275,675708	313,661629	0
15.01.2021	13:18:20	0	68,943785	3,978526	1,2645	347,3064	1,209	86,357	0	1015,34	8,5	10	9,8	1	1	1	1	1	1	1	1	1	0	1	-12,544045	275,630432	314,715045	0
15.01.2021	13:18:21	0	69,295514	4,774232	1,34475	350,7444	1,213	86,339	0	1015,42	8,5	10	9,8	1	1	1	1	1	1	1	1	1	0	1	-15,292459	275,734076	312,459143	0
15.01.2021	13:18:22	0	69,178237	4,433243	1,44975	345,8088	1,209	86,349	0	1015,26	8,5	10	9,7	1	1	1	1	1	1	1	1	1	0	1	-11,839323	275,687044	315,688715	0
15.01.2021	13:18:23	0	69,06096	3,978528	1,5165	343,9224	1,216	86,351	0	1015,36	8,5	10	9,8	1	1	1	1	1	1	1	1	1	0	1	-14,446794	275,664379	312,973552	0
15.01.2021	13:18:24	0	69,412689	4,54689	1,57875	345,1068	1,21	86,331	0	1015,34	8,5	10	9,8	1	1	1	1	1	1	1	1	1	0	1	-13,953488	275,794249	314,084304	0
15.01.2021	13:18:25	0	69,412663	2,614462	1,5825	344,4012	1,208	86,317	0	1015,28	8,5	10	9,8	1	1	1	1	1	1	1	1	1	0	1	-12,332629	275,696765	315,241611	0
15.01.2021	13:18:26	0	69,178136	4,43322	1,54875	338,4288	1,209	86,335	0	1015,42	8,5	10	9,8	1	1	1	1	1	1	1	1	1	0	1	-13,883016	275,77634	314,069581	0
15.01.2021	13:18:27	0	68,943608	3,637536	1,54575	335,754	1,212	86,327	0	1015,26	8,5	10	9,7	1	1	1	1	1	1	1	1	1	0	1	-14,728682	275,820327	313,433202	0
15.01.2021	13:18:28	0	69,295336	4,319575	1,58475	344,7648	1,214	86,34	0	1015,34	8,5	10	9,7	1	1	1	1	1	1	1	1	1	0	1	-14,023961	275,77634	313,928636	0
15.01.2021	13:18:29	0	69,178059	2,728153	1,59975	340,8048	1,211	86,349	0	1015,28	8,5	10	9,7	1	1	1	1	1	1	1	1	1	0	1	-11,346018	275,665997	316,082014	0
15.01.2021	13:18:30	0	68,943532	2,38712	1,67475	343,1736	1,211	86,344	0	1015,22	8,5	10	9,8	1	1	1	1	1	1	1	1	1	0	1	-17,406624	275,753571	310,437679	0
15.01.2021	13:18:31	0	69,295259	2,614481	1,76025	338,0724	1,203	86,339	0	1015,22	8,5	10	9,7	1	1	1	1	1	1	1	1	1	0	1	-14,235377	275,662761	313,177282	0
15.01.2021	13:18:32	0	69,177983	4,092207	1,82475	337,5072	1,212	86,335	0	1015,26	8,5	10	9,8	1	1	1	1	1	1	1	1	1	0	1	-11,768851	275,787735	316,23795	0
15.01.2021	13:18:33	0	69,412459	4,092232	1,85325	328,2228	1,205	86,336	0	1015,26	8,5	10	9,7	1	1	1	1	1	1	1	1	1	0	1	-15,221987	275,797507	312,831306	0
15.01.2021	13:18:34	0	69,412434	3,978536	1,818	331,1496	1,21	86,351	0	1015,34	8,5	10	9,8	1	1	1	1	1	1	1	1	1	0	1	-12,684989	275,838276	315,562324	0
15.01.2021	13:18:35	0	69,295157	2,72814	1,701	337,2336	1,208	86,359	0	1015,24	8,5	10	9,8	1	1	1	1	1	1	1	1	1	0	1	-13,530655	275,764952	314,367776	0
15.01.2021	13:18:36	0	68,94338	2,614483	1,5825	335,7468	1,212	86,358	0	1015,34	8,5	10	9,7	1	1	1	1	1	1	1	1	1	0	1	-14,305849	275,654674	313,068388	0
15.01.2021	13:18:37	0	69,295106	2,614468	1,5795	337,9788	1,21	86,359	0	1015,34	8,5	10	9,8	1	1	1	1	1	1	1	1	1	0	1	-15,715292	275,781223	312,26053	0
15.01.2021	13:18:38	0	68,943329	3,751194	1,53375	344,0052	1,213	86,353	0	1015,34	8,5	10	9,8	1	1	1	1	1	1	1	1	1	0	1	-11,768851	275,828484	316,431853	0
15.01.2021	13:18:39	0	69,412306	2,273451	1,51425	336,1248	1,213	86,372	0	1015,34	8,5	10	9,8	1	1	1	1	1	1	1	1	1	0	1	-11,839323	275,722713	315,858255	0
15.01.2021	13:18:40	0	68,943278	4,205886	1,47375	347,6124	1,207	86,362	0	1015,28	8,5	10	9,8	1	1	1	1	1	1	1	1	1	0	1	-14,869626	275,820327	313,292257	0
15.01.2021	13:18:41	0	69,295004	3,864869	1,5105	339,156	1,207	86,369	0	1015,34	8,5	10	9,8	1	1	1	1	1	1	1	1	1	0	1	-16,27907	275,711357	311,364523	0
15.01.2021	13:18:42	0	69,294978	3,751197	1,5045	336,4632	1,21	86,366	0	1015,32	8,5	10	9,8	1	1	1	1	1	1	1	1	1	0	1	-11,134602	275,79262	316,895442	0
15.01.2021	13:18:43	0	69,646704	4,31956	1,48725	343,9044	1,204	86,381	0	1015,44	8,5	10	9,8	1	1	1	1	1	1	1	1	1	0	1	-12,755462	275,849707	315,546266	0
15.01.2021	13:18:44	0	69,294927	3,523874	1,4355	342,1008	1,208	86,378	0	1015,32	8,5	10	9,7	1	1	1	1	1	1	1	1	1	0	1	-10,288936	275,695145	317,277601	0
15.01.2021	13:18:45	0	69,060401	4,774281	1,36125	333,468	1,212	86,396	0	1015,36	8,5	10	9,7	1	1	1	1	1	1	1	1	1	0	1	-10,711769	275,817066	317,434593	0
15.01.2021	13:18:46	0	69,294876	2,5008	1,365	340,8588	1,211	86,388	0	1015,36	8,5	10	9,8	1	1	1	1	1	1	1	1	1	0	1	-13,6716	275,688664	313,864137	0
15.01.2021	13:18:47	0	68,9431	2,728145	1,42125	347,4972	1,213	86,4	0	1015,44	8,5	10	9,8	1	1	1	1	1	1	1	1	1	0	1	-14,235377	275,839909	314,019708	0
15.01.2021	13:18:48	0	69,177575	3,751223	1,53	339,1452	1,209	86,397	0	1015,14	8,5	10	9,7	1	1	1	1	1	1	1	1	1	0	1	-13,601128	275,638509	313,696326	0
15.01.2021	13:18:49	0	69,412049	4,433238	1,626	341,01	1,206	86,403	0	1015,34	8,5	10	9,8	1	1	1	1	1	1	1	1	1	0	1	-13,6716	275,738948	314,103167	0
15.01.2021	13:18:50	0	69,412023	3,296531	1,692	352,5732	1,209	86,408	0	1015,34	8,5	10	9,7	1	1	1	1	1	1	1	1	1	0	1	-14,799154	275,654674	312,575083	0
15.01.2021	13:18:51	0	69,411998	2,387143	1,6605	356,562	1,21	86,406	0	1015,44	8,5	10	9,7	1	1	1	1	1	1	1	1	1	0	1	-11,134602	275,685424	316,385739	0
15.01.2021	13:18:52	0	68,942972	3,63753	1,58325	343,5408	1,208	86,414	0	1015,34	8,5	10	9,8	1	1	1	1	1	1	1	1	1	0	1	-12,614517	275,653057	314,752038	0
15.01.2021	13:18:53	0	69,294696	3,97855	1,572	348,3036	1,203	86,4	0	1015,26	8,5	10	9,8	1	1	1	1	1	1	1	1	1	0	1	-11,346018	275,755197	316,506015	0
15.01.2021	13:18:54	0	69,177421	2,38713	1,54575	356,202	1,207	86,416	0	1015,42	8,5	10	9,8	1	1	1	1	1	1	1	1	1	0	1	-16,560958	275,844807	311,717444	0
15.01.2021	13:18:55	0	69,763644	4,205897	1,536	344,3328	1,207	86,414	0	1015,3	8,5	10	9,8	1	1	1	1	1	1	1	1	1	0	1	-10,570825	275,795878	317,474718	0
15.01.2021	13:18:56	0	69,529119	2,955496	1,60275	355,4388	1,212	86,402	0	1015,36	8,5	10	9,8	1	1	1	1	1	1	1	1	1	0	1	-12,403101	275,802395	315,673449	0
15.01.2021	13:18:57	0	69,529093	4,546917	1,566	353,9664	1,208	86,41	0	1015,36	8,5	10	9,8	1	1	1	1	1	1	1	1	1	0	1	-15,081043	275,709735	312,554841	0
15.01.2021	13:18:58	0	68,942818	2,614494	1,524	355,4172	1,211	86,409	0	1015,32	8,5	10	9,7	1	1	1	1	1	1	1	1	1	0	1	-11,275546	275,677327	316,206319	0
15.01.2021	13:18:59	0	69,646291	4,433246	1,455	351,7056	1,207	86,412	0	1015,3	8,5	10	9,8	1	1	1	1	1	1	1	1	1	0	1	-12,403101	275,640125	314,902028	0
15.01.2021	13:19:00	0	69,29449	3,41019	1,54425	347,958	1,207	86,418	0	1015,16	8,5	10	9,8	1	1	1	1	1	1	1	1	1	0	1	-15,503876	275,7357	312,255447	0
15.01.2021	13:19:01	0	69,29449	3,41019	1,54425	347,958	1,207	86,418	0	1015,16	8,5	10	9,8	1	1	1	1	1	1	1	1	1	0	1	-13,178295	275,812174	314,944789	0
15.01.2021	13:19:02	0	69,411714	4,433248	1,54725	342,7848	1,21	86,415	0	1015,32	8,5	10	9,8	1	1	1	1	1	1	1	1	1	0	1	-16,701903	275,787735	311,304899	0
15.01.2021	13:19:03	0	69,411688	4,433249	1,53975	344,7216	1,205	86,423	0	1015,32	8,5	10	9,8	1	1	1	1	1	1	1	1	1	0	1	-14,164905	275,65144	313,19397	0
15.01.2021	13:19:04	0	69,528911	2,500808	1,617	350,2872	1,203	86,413	0	1015,3	8,5	10	9,8	1	1	1	1	1	1	1	1	1	0	1	-15,64482	275,682185	311,860128	0
15.01.2021	13:19:05	0	69,411636	4,205904	1,57875	335,0124	1,212	86,435	0	1015,46	8,5	10	9,8	1	1	1	1	1	1	1	1	1	0	1	-15,997181	275,831748	312,219056	0
15.01.2021	13:19:06	0	69,528859	2,387135	1,41975	333,522	1,21	86,431	0	1015,3	8,5	10	9,8	1	1	1	1	1	1	1	1	1	0	1	-13,883016	275,65144	313,475858	0
15.01.2021	13:19:07	0	69,294335	2,841828	1,3245	310,6512	1,211	86,423	0	1015,4	8,5	10	9,8	1	1	1	1	1	1	1	1	1	0	1	-11,768851	275,831748	316,447386	0
15.01.2021	13:19:08	0	69,646057	2,728156	1,23225	339,3828	1,201	86,408	0	1015,36	8,5	10	9,8	1	1	1	1	1	1	1	1	1	0	1	-11,557435	275,72109	316,132429	0
15.01.2021	13:19:09	0	69,294283	3,978561	1,182	345,2904	1,204	86,413	0	1015,22	8,5	10	9,8	1	1	1	1	1	1	1	1	1	0	1	-13,389711	275,830116	314,818759	0
15.01.2021	13:19:10	0	69,646005	4,092235	1,14225	330,0408	1,201	86,406	0	1015,4	8,5	10	9,8	1	1	1	1	1	1	1	1	1	0	1	-14,517266	275,800765	313,551531	0
15.01.2021	13:19:11	0	69,763228	4,092236	1,07325	343,1016	1,204	86,403	0	1015,28	8,5	10	9,8	1	1	1	1	1	1	1	1	1	0	1	-13,883016	275,805654	314,209042	0
15.01.2021	13:19:12	0	69,411454	2,614484	1,04925	339,4332	1,204	86,386	0	1015,3	8,5	10	9,8	1	1	1	1	1	1	1	1	1	0	1	-11,627907	275,641741	315,684897	0
15.01.2021	13:19:13	0	69,411428	2,614485	1,10775	348,3252	1,204	86,369	0	1015,24	8,5	10	9,8	1	1	1	1	1	1	1	1	1	0	1	-15,292459	275,771459	312,636919	0
15.01.2021	13:19:14	0	69,294153	2,728159	1,25325	359,8884	1,205	86,366	0	1015,34	8,5	10	9,8	1	1	1	1	1	1	1	1	1	0	1	-13,248767	275,769832	314,672874	0
15.01.2021	13:19:15	0	69,05963	4,546932	1,3125	345,1536	1,202	86,365	0	1015,34	8,5	10	9,8	1	1	1	1	1	1	1	1	1	0	1	-11,41649	275,821958	316,753156	0
15.01.2021	13:19:16	0	69,41135	4,433259	1,425	344,3616	1,2	86,336	0	1015,26	8,5	10	9,8	1	1	1	1	1	1	1	1	1	0	1	-16,560958	275,708113	311,067217	0
15.01.2021	13:19:17	0	69,294561	2,955507	1,497	350,3736	1,206	86,352	0	1015,34	8,6	9,9	9,8	1	1	1	1	1	1	1	1	1	0	1	-15,433404	275,632047	311,833358	0
15.01.2021	13:19:18	0	69,29405	2,614487	1,4655	346,9068	1,208	86,346	0	1015,34	8,5	10	9,8	1	1	1	1	1	1	1	1	1	0	1	-13,460183	275,758448	314,407313	0
15.01.2021	13:19:19	0	69,528521	4,092242	1,416	357,3684	1,203	86,328	0	1015,28	8,5	10	9,8	1	1	1	1	1	1	1	1	1	0	1	-11,909796	275,657908	315,479808	0
15.01.2021	13:19:20	0	69,411246	4,546936	1,3455	6,048	1,199	86,324	0	1015,4	8,5	10	9,8	1	1	1	1	1	1	1	1	1	0	1	-11,698379	275,779595	316,269701	0
15.01.2021	13:19:21	0	69,176723	2,387142	1,275	351,3816	1,197	86,31	0	1015,28	8,5	10	9,8	1	1	1	1	1	1	1	1	1	0	1	-15,362932	275,64659	311,972904	0
15.01.2021	13:19:22	0	69,76294	3,182856	1,2405	349,074	1,201	86,294	0	1015,36	8,5	10	9,8	1	1	1	1	1	1	1	1	1	0	1	-15,433404	275,768205	312,480499	0
15.01.2021	13:19:23	0	69,176671	2,387143	1,257	3,1104	1,205	86,302	0	1015,34	8,5	10	9,8	1	1	1	1	1	1	1	1	1	0	1	-14,376321	275,649823	312,974873	0
15.01.2021	13:19:24	0	69,997385	4,433266	1,263	354,3228	1,201	86,291	0	1015,38	8,5	10	9,8	1	1	1	1	1	1	1	1	1	0	1	-16,27907	275,789363	311,735478	0
15.01.2021	13:19:25	0	69,528364	2,841838	1,3215	357,6204	1,197	86,272	0	1015,32	8,5	10	9,8	1	1	1	1	1	1	1	1	1	0	1	-20,85976	275,648206	306,483754	0
15.01.2021	13:19:26	0	69,41109	2,387144	1,356	360	1,202	86,285	0	1015,3	8,5	10	9,8	1	1	1	1	1	1	1	1	1	0	1	-12,191684	275,867684	316,19563	0
15.01.2021	13:19:27	0	69,762809	2,955512	1,3815	354,7296	1,195	86,271	0	1015,28	8,5	10	9,8	1	1	1	1	1	1	1	1	1	0	1	-13,460183	275,703249	314,144872	0
15.01.2021	13:19:28	0	69,528286	3,978575	1,35975	346,5684	1,2	86,281	0	1015,38	8,5	10	9,8	1	1	1	1	1	1	1	1	1	0	1	-17,336152	275,654674	310,038085	0
15.01.2021	13:19:29	0	69,645508	3,637555	1,401	345,8844	1,199	86,279	0	1015,24	8,5	10	9,8	1	1	1	1	1	1	1	1	1	0	1	-12,755462	275,768205	315,158441	0
15.01.2021	13:19:30	0	69,410985	2,728167	1,38375	347,7024	1,192	86,278	0	1015,14	8,5	10	9,8	1	1	1	1	1	1	1	1	1	0	1	-15,010571	275,675708	312,463602	0
15.01.2021	13:19:31	0	69,528694	4,546945	1,34775	355,3704	1,197	86,268	0	1015,32	8,6	10,1	9,8	1	1	1	1	1	1	1	1	1	0	1	-13,319239	275,79262	314,710805	0
15.01.2021	13:19:32	0	69,645429	4,433272	1,305	351,7812	1,198	86,285	0	1015,46	8,5	10	9,8	1	1	1	1	1	1	1	1	1	0	1	-15,715292	275,823589	312,462117	0
15.01.2021	13:19:33	0	69,879899	4,433273	1,34775	344,3724	1,192	86,273	0	1015,34	8,5	10	9,8	1	1	1	1	1	1	1	1	1	0	1	-16,349542	275,719468	311,332608	0
15.01.2021	13:19:34	0	69,293632	2,614495	1,356	353,5704	1,197	86,291	0	1015,32	8,6	10	9,8	1	1	1	1	1	1	1	1	1	0	1	-15,503876	275,808914	312,603693	0
15.01.2021	13:19:35	0	69,64535	3,637559	1,31925	0,1152	1,193	86,291	0	1015,36	8,5	10	9,8	1	1	1	1	1	1	1	1	1	0	1	-16,560958	275,812174	311,562125	0
15.01.2021	13:19:36	0	69,645324	3,410212	1,3005	345,4128	1,191	86,289	0	1015,32	8,5	10	9,8	1	1	1	1	1	1	1	1	1	0	1	-15,574348	275,771459	312,35503	0
15.01.2021	13:19:37	0	69,528049	3,523886	1,278	356,9832	1,198	86,299	0	1015,32	8,5	10	9,8	1	1	1	1	1	1	1	1	1	0	1	-13,6716	275,818696	314,482523	0
15.01.2021	13:19:38	0	69,879767	4,433277	1,29075	353,1888	1,195	86,302	0	1015,32	8,6	10	9,8	1	1	1	1	1	1	1	1	1	0	1	-13,953488	275,690284	313,589947	0
15.01.2021	13:19:39	0	69,996988	3,751235	1,296	351,3456	1,191	86,318	0	1015,22	8,5	10	9,8	1	1	1	1	1	1	1	1	1	0	1	-14,799154	275,815435	313,339447	0
15.01.2021	13:19:40	0	69,879714	3,978584	1,31925	338,8068	1,19	86,319	0	1015,32	8,5	10	9,8	1	1	1	1	1	1	1	1	1	0	1	-12,544045	275,774713	315,400812	0
15.01.2021	13:19:41	0	69,996935	4,774301	1,23825	348,2388	1,193	86,299	0	1015,26	8,6	10	9,8	1	1	1	1	1	1	1	1	1	0	1	-14,235377	275,818696	313,918745	0
15.01.2021	13:19:42	0	70,114156	4,774302	1,2765	355,518	1,192	86,318	0	1015,3	8,5	10	9,8	1	1	1	1	1	1	1	1	1	0	1	-13,460183	275,638509	313,83727	0
15.01.2021	13:19:43	0	69,997373	4,660629	1,28325	346,2264	1,193	86,319	0	1015,22	8,5	9,9	9,8	1	1	1	1	1	1	1	1	1	0	1	-14,376321	275,747071	313,437069	0
15.01.2021	13:19:44	0	69,645113	2,500826	1,338	346,9284	1,196	86,337	0	1015,36	8,6	10	9,8	1	1	1	1	1	1	1	1	1	0	1	-13,03735	275,640125	314,267778	0
15.01.2021	13:19:45	0	69,879581	4,092261	1,32825	345,7368	1,187	86,332	0	1015,2	8,5	10	9,8	1	1	1	1	1	1	1	1	1	0	1	-12,544045	275,677327	314,937821	0
15.01.2021	13:19:46	0	69,64506	4,433284	1,32825	351,6696	1,192	86,333	0	1015,3	8,6	10	9,8	1	1	1	1	1	1	1	1	1	0	1	-11,627907	275,630432	315,631183	0
15.01.2021	13:19:47	0	69,879528	4,205937	1,32975	359,5248	1,198	86,343	0	1015,26	8,6	10	9,8	1	1	1	1	1	1	1	1	1	0	1	-13,389711	275,771459	314,539667	0
15.01.2021	13:19:48	0	69,410512	4,319611	1,3515	354,2256	1,194	86,361	0	1015,26	8,6	10	9,8	1	1	1	1	1	1	1	1	1	0	1	-13,883016	275,836644	314,356527	0
15.01.2021	13:19:49	0	69,762228	2,84185	1,33725	352,8144	1,199	86,363	0	1015,36	8,5	10	9,8	1	1	1	1	1	1	1	1	1	0	1	-12,614517	275,691904	314,936618	0
15.01.2021	13:19:50	0	69,645442	3,637591	1,30575	353,9556	1,194	86,371	0	1015,26	8,5	9,9	9,7	1	1	1	1	1	1	1	1	1	0	1	-13,742072	275,644973	313,586086	0
15.01.2021	13:19:51	0	69,644927	3,410221	1,34625	353,8512	1,196	86,348	0	1015,32	8,5	10	9,8	1	1	1	1	1	1	1	1	1	0	1	-14,094433	275,758448	313,773063	0
15.01.2021	13:19:52	0	69,996643	3,978592	1,30875	354,9888	1,196	86,379	0	1015,34	8,5	10	9,8	1	1	1	1	1	1	1	1	1	0	1	-12,262156	275,661143	315,142817	0
15.01.2021	13:19:53	0	69,527627	2,955544	1,29975	354,33	1,193	86,362	0	1015,36	8,5	10	9,7	1	1	1	1	1	1	1	1	1	0	1	-12,191684	275,643357	315,128796	0
15.01.2021	13:19:54	0	69,996589	4,546964	1,25175	357,1848	1,193	86,355	0	1015,44	8,5	10	9,8	1	1	1	1	1	1	1	1	1	0	1	-12,755462	275,683804	314,757183	0
15.01.2021	13:19:55	0	69,762068	3,523898	1,23975	357,696	1,191	86,368	0	1015,3	8,5	10	9,8	1	1	1	1	1	1	1	1	1	0	1	-10,500352	275,64659	316,835484	0
15.01.2021	13:19:56	0	69,762042	4,66064	1,23225	353,2572	1,19	86,393	0	1015,34	8,6	10	9,8	1	1	1	1	1	1	1	1	1	0	1	-16,983791	275,810544	311,131535	0
15.01.2021	13:19:57	0	70,348251	4,887989	1,2495	360	1,193	86,394	0	1015,32	8,5	10	9,8	1	1	1	1	1	1	1	1	1	0	1	-15,715292	275,711357	311,928301	0
15.01.2021	13:19:58	0	69,761989	2,387158	1,25625	0,8532	1,19	86,398	0	1015,32	8,5	10	9,8	1	1	1	1	1	1	1	1	1	0	1	-9,161381	275,808914	318,946188	0
15.01.2021	13:19:59	0	69,996456	2,614507	1,29525	359,5572	1,196	86,394	0	1015,36	8,5	10	9,8	1	1	1	1	1	1	1	1	1	0	1	-14,305849	275,695145	313,260688	0
15.01.2021	13:20:00	0	69,879156	4,887993	1,22475	344,6856	1,192	86,387	0	1015,32	8,5	10	9,8	1	1	1	1	1	1	1	1	1	0	1	-11,557435	275,810544	316,557891	0
15.01.2021	13:20:01	0	69,879156	4,887993	1,22475	344,6856	1,192	86,387	0	1015,32	8,5	10	9,8	1	1	1	1	1	1	1	1	1	0	1	-13,6716	275,725959	314,04141	0
15.01.2021	13:20:02	0	70,113623	4,092274	1,2255	342,36	1,184	86,398	0	1015,26	8,6	10	9,8	1	1	1	1	1	1	1	1	1	0	1	-16,067653	275,638509	311,2298	0
15.01.2021	13:20:03	0	69,996349	3,296555	1,2435	347,976	1,193	86,417	0	1015,3	8,5	10	9,8	1	1	1	1	1	1	1	1	1	0	1	-9,513742	275,732453	318,23014	0
15.01.2021	13:20:04	0	69,879565	2,841858	1,2705	347,2884	1,196	86,415	0	1015,3	8,5	9,9	9,8	1	1	1	1	1	1	1	1	1	0	1	-16,067653	275,821958	312,101993	0
15.01.2021	13:20:05	0	69,996295	4,887997	1,3395	340,9524	1,198	86,423	0	1015,26	8,5	10	9,8	1	1	1	1	1	1	1	1	1	0	1	-12,544045	275,7617	315,338917	0
15.01.2021	13:20:06	0	69,996268	3,523905	1,371	346,1292	1,192	86,413	0	1015,2	8,5	10	9,8	1	1	1	1	1	1	1	1	1	0	1	-16,208598	275,669234	311,234812	0
15.01.2021	13:20:07	0	69,996242	3,864929	1,449	339,1416	1,191	86,417	0	1015,34	8,5	10	9,8	1	1	1	1	1	1	1	1	1	0	1	-16,420014	275,83338	311,803991	0
15.01.2021	13:20:08	0	69,878968	3,296558	1,50075	340,5276	1,196	86,428	0	1015,3	8,5	10	9,8	1	1	1	1	1	1	1	1	1	0	1	-12,191684	275,708113	315,436491	0
15.01.2021	13:20:09	0	69,761695	2,500837	1,49325	348,4224	1,195	86,438	0	1015,28	8,5	10	9,8	1	1	1	1	1	1	1	1	1	0	1	-11,41649	275,648206	315,927024	0
15.01.2021	13:20:10	0	70,230654	3,637582	1,37175	360	1,199	86,452	0	1015,3	8,6	10	9,8	1	1	1	1	1	1	1	1	1	0	1	-17,89993	275,756822	309,959835	0
15.01.2021	13:20:11	0	69,761641	2,841862	1,329	355,5072	1,196	86,465	0	1015,42	8,6	10	9,8	1	1	1	1	1	1	1	1	1	0	1	-15,221987	275,825221	312,963186	0
15.01.2021	13:20:12	0	70,231092	3,182886	1,26225	352,0764	1,197	86,448	0	1015,34	8,5	9,9	9,8	1	1	1	1	1	1	1	1	1	0	1	-11,486963	275,662761	315,925696	0
15.01.2021	13:20:13	0	70,113327	2,614514	1,236	352,8036	1,199	86,47	0	1015,32	8,5	10	9,8	1	1	1	1	1	1	1	1	1	0	1	-14,164905	275,764952	313,733526	0
15.01.2021	13:20:14	0	69,996054	3,75126	1,27725	349,074	1,197	86,462	0	1015,22	8,5	10	9,8	1	1	1	1	1	1	1	1	1	0	1	-13,601128	275,667615	313,834593	0
15.01.2021	13:20:15	0	69,87878	3,410237	1,33425	354,0276	1,196	86,459	0	1015,36	8,6	10	9,8	1	1	1	1	1	1	1	1	1	0	1	-14,094433	275,70487	313,518329	0
15.01.2021	13:20:16	0	70,230492	2,72819	1,37175	355,8384	1,194	86,468	0	1015,3	8,5	10	9,8	1	1	1	1	1	1	1	1	1	0	1	-10,993658	275,672471	316,465132	0
15.01.2021	13:20:17	0	69,761969	2,500841	1,4355	357,21	1,194	86,482	0	1015,36	8,5	9,9	9,8	1	1	1	1	1	1	1	1	1	0	1	-15,221987	275,656291	312,159933	0
15.01.2021	13:20:18	0	69,761454	2,387167	1,3635	349,11	1,198	86,483	0	1015,24	8,5	10	9,8	1	1	1	1	1	1	1	1	1	0	1	-12,755462	275,669234	314,687948	0
15.01.2021	13:20:19	0	69,878673	2,955541	1,29225	339,4332	1,202	86,496	0	1015,34	8,5	10	9,8	1	1	1	1	1	1	1	1	1	0	1	-15,433404	275,729206	312,295041	0
15.01.2021	13:20:20	0	69,7614	2,500843	1,24425	352,2096	1,202	86,507	0	1015,38	8,5	10	9,8	1	1	1	1	1	1	1	1	1	0	1	-17,618041	275,828484	310,582663	0
15.01.2021	13:20:21	0	70,347603	4,433313	1,25775	359,1108	1,196	86,495	0	1015,28	8,6	10	9,8	1	1	1	1	1	1	1	1	1	0	1	-15,151515	275,696765	312,422724	0
15.01.2021	13:20:22	0	69,6441	2,387169	1,2225	346,554	1,194	86,503	0	1015,22	8,5	10	9,8	1	1	1	1	1	1	1	1	1	0	1	-14,517266	275,659526	312,880022	0
15.01.2021	13:20:23	0	70,113057	2,500844	1,2555	340,9272	1,198	86,493	0	1015,28	8,6	10	9,8	1	1	1	1	1	1	1	1	1	0	1	-15,151515	275,717845	312,522922	0
15.01.2021	13:20:24	0	70,347522	3,523917	1,27275	354,7224	1,204	86,519	0	1015,2	8,5	10	9,8	1	1	1	1	1	1	1	1	1	0	1	-14,799154	275,828484	313,401549	0
15.01.2021	13:20:25	0	70,347987	3,523918	1,272	343,0692	1,201	86,52	0	1015,28	8,6	10,1	9,8	1	1	1	1	1	1	1	1	1	0	1	-20,930233	275,7357	306,82909	0
15.01.2021	13:20:26	0	70,112976	3,523918	1,30725	338,778	1,208	86,526	0	1015,54	8,5	10	9,8	1	1	1	1	1	1	1	1	1	0	1	-14,446794	275,64659	312,889042	0
15.01.2021	13:20:27	0	70,347933	3,296569	1,299	358,686	1,202	86,508	0	1015,38	8,5	9,9	9,8	1	1	1	1	1	1	1	1	1	0	1	-14,869626	275,758448	312,99787	0
15.01.2021	13:20:28	0	70,464659	4,774343	1,2405	357,2136	1,203	86,535	0	1015,42	8,6	10	9,8	1	1	1	1	1	1	1	1	1	0	1	-13,107822	275,838276	315,139491	0
15.01.2021	13:20:29	0	70,464631	4,433319	1,21125	346,8816	1,195	86,535	0	1015,22	8,5	10	9,8	1	1	1	1	1	1	1	1	1	0	1	-16,349542	275,678946	311,140017	0
15.01.2021	13:20:30	0	70,465098	4,546995	1,1955	342,7452	1,204	86,54	0	1015,48	8,6	9,9	9,8	1	1	1	1	1	1	1	1	1	0	1	-14,940099	275,839909	313,314986	0
15.01.2021	13:20:31	0	70,113331	3,296572	1,2375	345,4092	1,205	86,545	0	1015,38	8,5	9,9	9,8	1	1	1	1	1	1	1	1	1	0	1	-12,825934	275,769832	315,095707	0
15.01.2021	13:20:32	0	70,46455	2,159823	1,30875	354,3624	1,203	86,541	0	1015,4	8,6	10	9,8	1	1	1	1	1	1	1	1	1	0	1	-18,25229	275,670852	309,198809	0
15.01.2021	13:20:33	0	70,230031	2,614524	1,32525	349,0056	1,207	86,545	0	1015,42	8,5	10	9,8	1	1	1	1	1	1	1	1	1	0	1	-21,775899	275,716223	305,890826	0
15.01.2021	13:20:34	0	70,230496	2,387174	1,392	338,6808	1,21	86,56	0	1015,38	8,6	9,9	9,8	1	1	1	1	1	1	1	1	1	0	1	-13,248767	275,826852	314,944172	0
15.01.2021	13:20:35	0	70,464961	2,841874	1,395	342,8064	1,207	86,565	0	1015,38	8,6	9,9	9,8	1	1	1	1	1	1	1	1	1	0	1	-16,842847	275,79262	311,187197	0
15.01.2021	13:20:36	0	70,230442	4,433325	1,39575	342,3024	1,207	86,571	0	1015,3	8,6	9,9	9,8	1	1	1	1	1	1	1	1	1	0	1	-13,178295	275,657908	314,211309	0
15.01.2021	13:20:37	0	70,582153	3,523926	1,44075	342,7848	1,205	86,558	0	1015,36	8,6	9,9	9,8	1	1	1	1	1	1	1	1	1	0	1	-16,913319	275,687044	310,614719	0
15.01.2021	13:20:38	0	70,230387	3,751276	1,458	345,7764	1,209	86,557	0	1015,4	8,6	9,9	9,8	1	1	1	1	1	1	1	1	1	0	1	-15,362932	275,839909	312,892153	0
15.01.2021	13:20:39	0	70,229868	2,841877	1,46175	348,2964	1,214	86,578	0	1015,28	8,5	10	9,8	1	1	1	1	1	1	1	1	1	0	1	-15,997181	275,795878	312,048362	0
15.01.2021	13:20:40	0	70,347579	3,296577	1,497	342,378	1,205	86,579	0	1015,32	8,5	9,9	9,8	1	1	1	1	1	1	1	1	1	0	1	-13,812544	275,664379	313,607801	0
15.01.2021	13:20:41	0	70,581549	3,864954	1,47225	352,7784	1,214	86,577	0	1015,32	8,6	10	9,8	1	1	1	1	1	1	1	1	1	0	1	-14,094433	275,740572	313,688057	0
15.01.2021	13:20:42	0	70,582016	2,955553	1,48725	336,7224	1,215	86,582	0	1015,36	8,5	9,9	9,8	1	1	1	1	1	1	1	1	1	0	1	-14,164905	275,665997	313,263128	0
15.01.2021	13:20:43	0	70,698739	4,888061	1,473	334,5876	1,212	86,568	0	1015,32	8,6	10	9,7	1	1	1	1	1	1	1	1	1	0	1	-19,450317	275,787735	308,556484	0
15.01.2021	13:20:44	0	70,581466	4,547007	1,4505	325,116	1,21	86,593	0	1015,38	8,6	10	9,8	1	1	1	1	1	1	1	1	1	0	1	-12,684989	275,653057	314,681566	0
15.01.2021	13:20:45	0	70,815929	4,206007	1,428	336,4488	1,209	86,584	0	1015,34	8,5	10	9,7	1	1	1	1	1	1	1	1	1	0	1	-17,336152	275,711357	310,307441	0
15.01.2021	13:20:46	0	70,698656	4,092308	1,44825	323,3484	1,217	86,602	0	1015,42	8,5	10	9,8	1	1	1	1	1	1	1	1	1	0	1	-15,010571	275,828484	313,190133	0
15.01.2021	13:20:47	0	70,464139	4,319659	1,42425	335,304	1,206	86,594	0	1015,34	8,6	10	9,8	1	1	1	1	1	1	1	1	1	0	1	-14,65821	275,83338	313,565795	0
15.01.2021	13:20:48	0	70,34736	3,978634	1,3875	352,4868	1,218	86,599	0	1015,3	8,6	9,9	9,8	1	1	1	1	1	1	1	1	1	0	1	-14,65821	275,714601	313,000804	0
15.01.2021	13:20:49	0	70,464084	3,637609	1,44675	344,3688	1,206	86,61	0	1015,28	8,6	10	9,8	1	1	1	1	1	1	1	1	1	0	1	-16,913319	275,838276	311,333994	0
15.01.2021	13:20:50	0	70,815791	3,069233	1,4325	336,834	1,218	86,607	0	1015,18	8,5	10	9,8	1	1	1	1	1	1	1	1	1	0	1	-15,503876	275,706492	312,116592	0
15.01.2021	13:20:51	0	70,464029	2,500857	1,45275	337,4892	1,21	86,604	0	1015,38	8,5	10	9,8	1	1	1	1	1	1	1	1	1	0	1	-14,094433	275,838276	314,152881	0
15.01.2021	13:20:52	0	70,815735	2,500858	1,47075	336,132	1,213	86,595	0	1015,24	8,5	10	9,8	1	1	1	1	1	1	1	1	1	0	1	-16,701903	275,795878	311,34364	0
15.01.2021	13:20:53	0	70,698958	3,069235	1,48725	346,1868	1,214	86,58	0	1015,32	8,5	9,9	9,8	1	1	1	1	1	1	1	1	1	0	1	-14,65821	275,843175	313,612419	0
15.01.2021	13:20:54	0	70,346702	3,637612	1,4745	351,0504	1,212	86,589	0	1015,16	8,5	10	9,8	1	1	1	1	1	1	1	1	1	0	1	-14,517266	275,795878	313,528277	0
15.01.2021	13:20:55	0	70,463919	3,182911	1,49925	344,9988	1,216	86,61	0	1015,36	8,6	10	9,8	1	1	1	1	1	1	1	1	1	0	1	-11,275546	275,665997	316,152486	0
15.01.2021	13:20:56	0	70,698875	4,774397	1,48275	345,8268	1,214	86,606	0	1015,28	8,5	9,9	9,7	1	1	1	1	1	1	1	1	1	0	1	-14,235377	275,823589	313,942033	0
15.01.2021	13:20:57	0	70,933338	4,547045	1,46625	359,0244	1,219	86,594	0	1015,16	8,6	9,9	9,7	1	1	1	1	1	1	1	1	1	0	1	-17,618041	275,799136	310,443004	0
15.01.2021	13:20:58	0	70,698325	4,660694	1,4355	359,1036	1,222	86,597	0	1015,38	8,6	10	9,8	1	1	1	1	1	1	1	1	1	0	1	-15,926709	275,677327	311,555157	0
15.01.2021	13:20:59	0	70,816038	3,86499	1,37025	353,2176	1,209	86,595	0	1015,26	8,6	10,1	9,7	1	1	1	1	1	1	1	1	1	0	1	-13,389711	275,714601	314,269303	0
15.01.2021	13:21:00	0	70,698737	3,523963	1,18275	359,1036	1,216	86,583	0	1015,32	8,6	10,1	9,7	1	1	1	1	1	1	1	1	1	0	1	-13,03735	275,828484	315,163354	0
15.01.2021	13:21:01	0	70,698737	3,523963	1,18275	359,1036	1,216	86,583	0	1015,32	8,6	10,1	9,7	1	1	1	1	1	1	1	1	1	0	1	-15,574348	275,848074	312,719604	0
15.01.2021	13:21:02	0	70,346974	2,728213	1,134	354,204	1,213	86,574	0	1015,36	8,6	10,1	9,8	1	1	1	1	1	1	1	1	1	0	1	-16,913319	275,777968	311,047019	0
15.01.2021	13:21:03	0	70,580942	3,523943	1,15575	331,1424	1,218	86,576	0	1015,38	8,6	10	9,8	1	1	1	1	1	1	1	1	1	0	1	-11,980268	275,802395	316,096282	0
15.01.2021	13:21:04	0	70,698159	4,547051	1,17975	329,6952	1,219	86,578	0	1015,38	8,6	10	9,7	1	1	1	1	1	1	1	1	1	0	1	-12,544045	275,83338	315,67996	0
15.01.2021	13:21:05	0	71,167605	4,774376	1,13625	336,7656	1,219	86,574	0	1015,3	8,6	10,1	9,8	1	1	1	1	1	1	1	1	1	0	1	-16,067653	275,826852	312,125285	0
15.01.2021	13:21:06	0	70,932591	4,092348	1,23225	333,198	1,213	86,565	0	1015,34	8,5	10	9,7	1	1	1	1	1	1	1	1	1	0	1	-15,785765	275,769832	312,135876	0
15.01.2021	13:21:07	0	71,049807	4,547027	1,49475	321,4512	1,218	86,562	0	1015,16	8,6	10	9,8	1	1	1	1	1	1	1	1	1	0	1	-12,825934	275,843175	315,444696	0
15.01.2021	13:21:08	0	71,050277	2,614541	1,671	326,7504	1,22	86,563	0	1015,24	8,6	9,9	9,8	1	1	1	1	1	1	1	1	1	0	1	-17,89993	275,782851	310,083637	0
15.01.2021	13:21:09	0	70,463532	2,841893	1,8435	323,712	1,217	86,563	0	1015,26	8,6	10	9,8	1	1	1	1	1	1	1	1	1	0	1	-16,701903	275,664379	310,718443	0
15.01.2021	13:21:10	0	71,166967	3,751299	1,935	318,4812	1,222	86,572	0	1015,28	8,6	10	9,8	1	1	1	1	1	1	1	1	1	0	1	-16,631431	275,703249	310,973625	0
15.01.2021	13:21:11	0	70,932949	4,660734	2,0055	326,3688	1,22	86,547	0	1015,38	8,6	10,1	9,7	1	1	1	1	1	1	1	1	1	0	1	-15,574348	275,843175	312,696281	0
15.01.2021	13:21:12	0	71,050165	3,182922	1,9395	323,3016	1,224	86,547	0	1015,24	8,6	9,9	9,8	1	1	1	1	1	1	1	1	1	0	1	-15,64482	275,725959	312,06819	0
15.01.2021	13:21:13	0	70,697909	2,614559	1,89075	333,1692	1,21	86,555	0	1015,22	8,6	10	9,7	1	1	1	1	1	1	1	1	1	0	1	-17,336152	275,665997	310,09188	0
15.01.2021	13:21:14	0	71,049611	3,069265	1,9095	322,5024	1,21	86,553	0	1015,26	8,6	10	9,7	1	1	1	1	1	1	1	1	1	0	1	-14,728682	275,763326	313,162014	0
15.01.2021	13:21:15	0	70,815096	3,637649	1,88175	323,4024	1,221	86,555	0	1015,34	8,5	10	9,7	1	1	1	1	1	1	1	1	1	0	1	-15,362932	275,844807	312,915471	0
15.01.2021	13:21:16	0	71,049555	3,182943	1,815	325,1196	1,219	86,567	0	1015,5	8,5	10	9,7	1	1	1	1	1	1	1	1	1	0	1	-15,221987	275,768205	312,691916	0
15.01.2021	13:21:17	0	71,050025	3,069267	1,7205	321,1164	1,217	86,528	0	1015,28	8,6	10,1	9,7	1	1	1	1	1	1	1	1	1	0	1	-20,014094	275,669234	307,429315	0
15.01.2021	13:21:18	0	71,166743	4,888093	1,64175	321,9012	1,213	86,523	0	1015,3	8,6	10	9,7	1	1	1	1	1	1	1	1	1	0	1	-22,128259	275,743821	305,669679	0
15.01.2021	13:21:19	0	71,049471	4,547037	1,55625	325,2492	1,218	86,528	0	1015,26	8,6	10	9,8	1	1	1	1	1	1	1	1	1	0	1	-19,168428	275,844807	309,109974	0
15.01.2021	13:21:20	0	71,049443	4,319686	1,56375	327,42	1,221	86,524	0	1015,32	8,6	10	9,8	1	1	1	1	1	1	1	1	1	0	1	-16,701903	275,794249	311,33589	0
15.01.2021	13:21:21	0	71,049415	2,614547	1,71975	329,6808	1,215	86,514	0	1015,34	8,6	10	9,8	1	1	1	1	1	1	1	1	1	0	1	-16,631431	275,657908	310,758173	0
15.01.2021	13:21:22	0	71,401617	3,97866	1,83825	337,1292	1,218	86,521	0	1015,24	8,6	9,9	9,8	1	1	1	1	1	1	1	1	1	0	1	-17,336152	275,766579	310,570014	0
15.01.2021	13:21:23	0	71,284345	2,500872	1,9725	335,286	1,219	86,532	0	1015,48	8,6	9,9	9,8	1	1	1	1	1	1	1	1	1	0	1	-11,909796	275,654674	315,464442	0
15.01.2021	13:21:24	0	71,283817	4,433365	2,0805	332,3844	1,211	86,51	0	1015,22	8,6	10	9,8	1	1	1	1	1	1	1	1	1	0	1	-17,758985	275,807284	310,340828	0
15.01.2021	13:21:25	0	71,049303	2,841918	2,10375	328,5288	1,218	86,516	0	1015,32	8,5	10	9,7	1	1	1	1	1	1	1	1	1	0	1	-14,235377	275,656291	313,146543	0
15.01.2021	13:21:26	0	71,401504	4,20604	2,0445	327,1464	1,217	86,5	0	1015,1	8,6	9,9	9,7	1	1	1	1	1	1	1	1	1	0	1	-16,138125	275,800765	311,930671	0
15.01.2021	13:21:27	0	71,518218	3,978687	1,99425	324,8208	1,213	86,502	0	1015,14	8,6	10	9,7	1	1	1	1	1	1	1	1	1	0	1	-15,433404	275,664379	311,986942	0
15.01.2021	13:21:28	0	71,401447	2,614551	1,944	332,8344	1,216	86,512	0	1015,34	8,6	9,9	9,8	1	1	1	1	1	1	1	1	1	0	1	-20,014094	275,777968	307,946244	0
15.01.2021	13:21:29	0	71,049688	2,841921	1,8675	325,9476	1,218	86,5	0	1015,32	8,6	9,9	9,7	1	1	1	1	1	1	1	1	1	0	1	-15,926709	275,65144	311,432166	0
15.01.2021	13:21:30	0	71,518634	3,97869	1,82025	322,9488	1,215	86,485	0	1015,26	8,6	9,9	9,7	1	1	1	1	1	1	1	1	1	0	1	-15,856237	275,703249	311,748819	0
15.01.2021	13:21:31	0	71,518105	3,865014	1,77525	322,1316	1,215	86,489	0	1015,26	8,6	10	9,7	1	1	1	1	1	1	1	1	1	0	1	-17,124736	275,758448	310,74276	0
15.01.2021	13:21:32	0	71,635319	4,319722	1,76325	332,442	1,218	86,487	0	1015,14	8,6	10	9,7	1	1	1	1	1	1	1	1	1	0	1	-18,957012	275,835012	309,274762	0
15.01.2021	13:21:33	0	71,518048	3,296611	1,80225	345,8628	1,217	86,488	0	1015,3	8,6	10	9,8	1	1	1	1	1	1	1	1	1	0	1	-17,758985	275,781223	310,216838	0
15.01.2021	13:21:34	0	71,283535	4,660754	1,9005	333,4428	1,213	86,48	0	1015,16	8,6	10	9,7	1	1	1	1	1	1	1	1	1	0	1	-19,591261	275,831748	308,624976	0
15.01.2021	13:21:35	0	71,283506	3,864993	1,95825	336,4416	1,209	86,48	0	1015,26	8,6	10	9,8	1	1	1	1	1	1	1	1	1	0	1	-14,587738	275,813804	313,543104	0
15.01.2021	13:21:36	0	71,635206	3,182955	1,9815	332,4024	1,221	86,454	0	1015,42	8,6	10	9,7	1	1	1	1	1	1	1	1	1	0	1	-14,305849	275,831748	313,910388	0
15.01.2021	13:21:37	0	71,401192	4,54708	1,90875	331,524	1,211	86,453	0	1015,22	8,6	10,1	9,7	1	1	1	1	1	1	1	1	1	0	1	-14,799154	275,779595	313,168926	0
15.01.2021	13:21:38	0	71,635149	3,523967	1,947	336,3732	1,217	86,459	0	1015,64	8,6	10	9,8	1	1	1	1	1	1	1	1	1	0	1	-18,604651	275,665997	308,823381	0
15.01.2021	13:21:39	0	71,16615	2,728249	2,1075	337,1904	1,215	86,446	0	1015,38	8,5	10	9,7	1	1	1	1	1	1	1	1	1	0	1	-13,107822	275,712979	314,543481	0
15.01.2021	13:21:40	0	71,635092	2,841927	2,20425	332,4528	1,205	86,42	0	1015,18	8,6	10	9,7	1	1	1	1	1	1	1	1	1	0	1	-15,574348	275,836644	312,665195	0
15.01.2021	13:21:41	0	71,518322	3,296636	2,2395	331,4988	1,214	86,413	0	1015,2	8,6	9,9	9,7	1	1	1	1	1	1	1	1	1	0	1	-18,534179	275,703249	309,070876	0
15.01.2021	13:21:42	0	71,635034	5,001793	2,142	340,5204	1,216	86,421	0	1015,3	8,5	10	9,7	1	1	1	1	1	1	1	1	1	0	1	-19,943622	275,844807	308,33478	0
15.01.2021	13:21:43	0	71,752248	3,069283	1,992	326,34	1,211	86,401	0	1015,34	8,6	10	9,7	1	1	1	1	1	1	1	1	1	0	1	-15,010571	275,799136	313,050474	0
15.01.2021	13:21:44	0	71,869462	2,955606	1,77675	343,548	1,217	86,407	0	1015,32	8,6	10	9,7	1	1	1	1	1	1	1	1	1	0	1	-18,463707	275,657908	308,925897	0
15.01.2021	13:21:45	0	71,517707	4,206056	1,7205	336,0564	1,214	86,406	0	1015,2	8,6	10	9,7	1	1	1	1	1	1	1	1	1	0	1	-14,164905	275,690284	313,378531	0
15.01.2021	13:21:46	0	71,986646	4,433411	1,72125	337,266	1,216	86,408	0	1015,46	8,6	10	9,7	1	1	1	1	1	1	1	1	1	0	1	-17,829457	275,654674	309,54478	0
15.01.2021	13:21:47	0	71,400407	2,387222	1,68075	338,7924	1,218	86,406	0	1015,32	8,6	10	9,7	1	1	1	1	1	1	1	1	1	0	1	-13,03735	275,781223	314,938473	0
15.01.2021	13:21:48	0	71,986589	4,888121	1,65825	343,7352	1,211	86,388	0	1015,24	8,6	10	9,7	1	1	1	1	1	1	1	1	1	0	1	-14,235377	275,782851	313,748189	0
15.01.2021	13:21:49	0	72,103802	4,547091	1,626	338,7888	1,215	86,384	0	1015,34	8,6	10	9,7	1	1	1	1	1	1	1	1	1	0	1	-12,191684	275,826852	316,001254	0
15.01.2021	13:21:50	0	71,752048	2,728255	1,614	352,5624	1,218	86,376	0	1015,3	8,6	10	9,7	1	1	1	1	1	1	1	1	1	0	1	-20,084567	275,682185	307,420382	0
15.01.2021	13:21:51	0	71,986503	5,001802	1,5615	346,626	1,209	86,37	0	1015,26	8,6	10	9,7	1	1	1	1	1	1	1	1	1	0	1	-14,517266	275,784478	313,474045	0
15.01.2021	13:21:52	0	71,634748	2,38721	1,59525	347,9832	1,212	86,385	0	1015,38	8,6	10	9,8	1	1	1	1	1	1	1	1	1	0	1	-18,957012	275,65144	308,401863	0
15.01.2021	13:21:53	0	71,400736	2,728256	1,593	348,048	1,209	86,379	0	1015,34	8,6	9,9	9,7	1	1	1	1	1	1	1	1	1	0	1	-17,688513	275,678946	309,801046	0
15.01.2021	13:21:54	0	71,986416	5,001804	1,58925	351,4212	1,205	86,369	0	1015,24	8,6	10	9,7	1	1	1	1	1	1	1	1	1	0	1	-16,631431	275,725959	311,081579	0
15.01.2021	13:21:55	0	72,103629	4,888128	1,68675	335,4156	1,2	86,361	0	1015,32	8,6	10	9,7	1	1	1	1	1	1	1	1	1	0	1	-14,376321	275,64659	312,959515	0
15.01.2021	13:21:56	0	72,104105	4,888129	1,71075	347,256	1,204	86,354	0	1015,36	8,6	9,9	9,7	1	1	1	1	1	1	1	1	1	0	1	-14,517266	275,79262	313,512778	0
15.01.2021	13:21:57	0	71,751846	4,319743	1,818	344,6676	1,214	86,355	0	1015,28	8,6	10	9,7	1	1	1	1	1	1	1	1	1	0	1	-19,238901	275,800765	308,829896	0
15.01.2021	13:21:58	0	72,103542	3,52398	1,899	346,5144	1,21	86,343	0	1015,34	8,6	10	9,8	1	1	1	1	1	1	1	1	1	0	1	-17,336152	275,669234	310,107257	0
15.01.2021	13:21:59	0	71,986272	3,637679	1,875	349,8732	1,207	86,359	0	1015,36	8,6	10	9,7	1	1	1	1	1	1	1	1	1	0	1	-19,450317	275,649823	307,900877	0
15.01.2021	13:22:00	0	72,220697	4,660779	1,74225	333,8352	1,208	86,335	0	1015,28	8,6	10	9,7	1	1	1	1	1	1	1	1	1	0	1	-20,295983	275,836644	307,94356	0
15.01.2021	13:22:01	0	72,220697	4,660779	1,74225	333,8352	1,208	86,335	0	1015,28	8,6	10	9,7	1	1	1	1	1	1	1	1	1	0	1	-22,692037	275,683804	304,820608	0
15.01.2021	13:22:02	0	72,220668	2,728245	1,725	336,78	1,212	86,356	0	1015,38	8,6	10	9,8	1	1	1	1	1	1	1	1	1	0	1	-16,420014	275,701628	311,177336	0
15.01.2021	13:22:03	0	71,751674	4,20607	1,65075	337,4604	1,205	86,354	0	1015,32	8,6	10	9,7	1	1	1	1	1	1	1	1	1	0	1	-17,89993	275,823589	310,27748	0
15.01.2021	13:22:04	0	72,22061	3,524005	1,59975	332,4456	1,21	86,349	0	1015,4	8,6	10	9,7	1	1	1	1	1	1	1	1	1	0	1	-19,097956	275,773086	308,839161	0
15.01.2021	13:22:05	0	72,10334	3,978717	1,61025	330,7788	1,204	86,357	0	1015,16	8,6	10	9,7	1	1	1	1	1	1	1	1	1	0	1	-19,379845	275,839909	308,87524	0
15.01.2021	13:22:06	0	72,103311	3,637684	1,6725	338,4108	1,207	86,349	0	1015,36	8,6	10	9,7	1	1	1	1	1	1	1	1	1	0	1	-20,155039	275,709735	307,480845	0
15.01.2021	13:22:07	0	72,103282	4,433402	1,69575	327,9924	1,215	86,36	0	1015,42	8,6	10	9,8	1	1	1	1	1	1	1	1	1	0	1	-18,322763	275,657908	309,066841	0
15.01.2021	13:22:08	0	72,337735	4,206074	1,69125	322,6104	1,209	86,354	0	1015,26	8,6	10	9,7	1	1	1	1	1	1	1	1	1	0	1	-15,221987	275,700007	312,367658	0
15.01.2021	13:22:09	0	71,985982	3,296634	1,6875	319,9968	1,208	86,371	0	1015,26	8,6	10	9,8	1	1	1	1	1	1	1	1	1	0	1	-15,574348	275,64659	311,761488	0
15.01.2021	13:22:10	0	72,338183	3,182957	1,60275	331,5456	1,204	86,358	0	1015,38	8,6	10,1	9,8	1	1	1	1	1	1	1	1	1	0	1	-20,577872	275,738948	307,196895	0
15.01.2021	13:22:11	0	72,337647	4,319754	1,52025	324,7956	1,205	86,368	0	1015,14	8,6	10	9,7	1	1	1	1	1	1	1	1	1	0	1	-16,842847	275,64659	310,492989	0
15.01.2021	13:22:12	0	72,337618	3,0693	1,42125	310,7304	1,207	86,362	0	1015,32	8,6	10	9,7	1	1	1	1	1	1	1	1	1	0	1	-16,913319	275,701628	310,684031	0
15.01.2021	13:22:13	0	72,103107	3,524012	1,34475	316,3104	1,202	86,35	0	1015,14	8,6	10	9,7	1	1	1	1	1	1	1	1	1	0	1	-17,688513	275,839909	310,566572	0
15.01.2021	13:22:14	0	72,103078	2,841945	1,38	312,858	1,206	86,372	0	1015,34	8,6	10	9,7	1	1	1	1	1	1	1	1	1	0	1	-16,701903	275,77634	311,250694	0
15.01.2021	13:22:15	0	72,33753	3,524013	1,395	320,4324	1,195	86,362	0	1015,34	8,6	10	9,7	1	1	1	1	1	1	1	1	1	0	1	-16,349542	275,831748	311,866695	0
15.01.2021	13:22:16	0	72,454742	2,728269	1,3875	330,7464	1,201	86,384	0	1015,16	8,6	10	9,7	1	1	1	1	1	1	1	1	1	0	1	-14,376321	275,70487	313,23644	0
15.01.2021	13:22:17	0	72,571953	4,31976	1,37775	325,944	1,204	86,385	0	1015,34	8,6	10	9,7	1	1	1	1	1	1	1	1	1	0	1	-17,89993	275,674089	309,566551	0
15.01.2021	13:22:18	0	72,454683	2,387236	1,3905	338,3676	1,206	86,395	0	1015,42	8,6	10	9,7	1	1	1	1	1	1	1	1	1	0	1	-18,111346	275,695145	309,455191	0
15.01.2021	13:22:19	0	72,454654	2,72827	1,4415	341,2908	1,202	86,383	0	1015,16	8,6	10	9,7	1	1	1	1	1	1	1	1	1	0	1	-14,587738	275,828484	313,612966	0
15.01.2021	13:22:20	0	72,571865	2,841932	1,55175	347,2704	1,206	86,394	0	1015,28	8,6	10	9,8	1	1	1	1	1	1	1	1	1	0	1	-20,789288	275,708113	306,838887	0
15.01.2021	13:22:21	0	72,689076	4,660797	1,58175	346,824	1,21	86,374	0	1015,3	8,6	10	9,7	1	1	1	1	1	1	1	1	1	0	1	-20,789288	275,810544	307,326038	0
15.01.2021	13:22:22	0	72,689047	3,41034	1,578	343,98	1,203	86,383	0	1015,36	8,6	10	9,7	1	1	1	1	1	1	1	1	1	0	1	-18,25229	275,706492	309,368178	0
15.01.2021	13:22:23	0	72,806258	5,001833	1,51125	335,3256	1,203	86,368	0	1015,34	8,6	10	9,7	1	1	1	1	1	1	1	1	1	0	1	-18,816068	275,818696	309,338055	0
15.01.2021	13:22:24	0	73,040709	4,206087	1,4775	332,7516	1,207	86,375	0	1015,32	8,6	10	9,7	1	1	1	1	1	1	1	1	1	0	1	-17,89993	275,709735	309,735954	0
15.01.2021	13:22:25	0	72,806199	4,092386	1,39725	342,072	1,201	86,375	0	1015,42	8,6	10	9,8	1	1	1	1	1	1	1	1	1	0	1	-19,379845	275,649823	307,971349	0
15.01.2021	13:22:26	0	72,923409	3,751377	1,35	327,8124	1,208	86,373	0	1015,4	8,6	10	9,7	1	1	1	1	1	1	1	1	1	0	1	-16,560958	275,714601	311,098055	0
15.01.2021	13:22:27	0	72,92338	2,387226	1,45725	322,2108	1,21	86,379	0	1015,36	8,6	10	9,8	1	1	1	1	1	1	1	1	1	0	1	-18,040874	275,841542	310,221983	0
15.01.2021	13:22:28	0	72,80611	4,43342	1,458	352,1808	1,206	86,382	0	1015,34	8,6	10	9,8	1	1	1	1	1	1	1	1	1	0	1	-16,983791	275,782851	310,999775	0
15.01.2021	13:22:29	0	72,923321	2,387241	1,425	341,316	1,205	86,387	0	1015,24	8,6	10	9,7	1	1	1	1	1	1	1	1	1	0	1	-16,983791	275,643357	310,336689	0
15.01.2021	13:22:30	0	72,923291	3,524023	1,329	342,4068	1,206	86,387	0	1015,24	8,6	10	9,7	1	1	1	1	1	1	1	1	1	0	1	-17,758985	275,706492	309,861483	0
15.01.2021	13:22:31	0	73,157741	3,865059	1,3455	335,2284	1,206	86,393	0	1015,36	8,6	10	9,7	1	1	1	1	1	1	1	1	1	0	1	-17,547569	275,790992	310,474727	0
15.01.2021	13:22:32	0	72,689261	4,547101	1,38975	335,0268	1,201	86,37	0	1015,24	8,6	9,9	9,8	1	1	1	1	1	1	1	1	1	0	1	-23,044397	275,820327	305,117487	0
15.01.2021	13:22:33	0	73,157682	2,841956	1,3935	339,282	1,203	86,376	0	1015,24	8,6	10	9,7	1	1	1	1	1	1	1	1	1	0	1	-19,520789	275,818696	308,633333	0
15.01.2021	13:22:34	0	72,923172	3,29667	1,413	332,784	1,203	86,379	0	1015,2	8,6	10	9,7	1	1	1	1	1	1	1	1	1	0	1	-18,604651	275,823589	309,572758	0
15.01.2021	13:22:35	0	73,157622	4,319775	1,4895	328,9572	1,208	86,374	0	1015,22	8,6	10	9,7	1	1	1	1	1	1	1	1	1	0	1	-17,89993	275,786107	310,099126	0
15.01.2021	13:22:36	0	73,040353	3,865062	1,5255	333,828	1,208	86,376	0	1015,3	8,6	10	9,7	1	1	1	1	1	1	1	1	1	0	1	-19,591261	275,836644	308,648282	0
15.01.2021	13:22:37	0	73,274802	3,296672	1,43625	332,8848	1,208	86,386	0	1015,06	8,6	10	9,7	1	1	1	1	1	1	1	1	1	0	1	-16,27907	275,7357	311,480253	0
15.01.2021	13:22:38	0	73,392012	4,319751	1,4565	325,9872	1,207	86,383	0	1015,38	8,6	10	9,8	1	1	1	1	1	1	1	1	1	0	1	-14,587738	275,838276	313,659576	0
15.01.2021	13:22:39	0	73,509222	4,2061	1,47	330,0696	1,207	86,391	0	1015,38	8,6	10	9,7	1	1	1	1	1	1	1	1	1	0	1	-18,675123	275,789363	309,339425	0
15.01.2021	13:22:40	0	73,157473	2,728282	1,48575	332,46	1,211	86,393	0	1015,32	8,6	10	9,7	1	1	1	1	1	1	1	1	1	0	1	-20,366455	275,667615	307,069265	0
15.01.2021	13:22:41	0	73,157443	3,182996	1,57725	330,0984	1,211	86,389	0	1015,3	8,6	10	9,7	1	1	1	1	1	1	1	1	1	0	1	-20,930233	275,680565	306,567021	0
15.01.2021	13:22:42	0	73,274653	3,524032	1,62675	336,3876	1,225	86,394	0	1015,5	8,6	10	9,7	1	1	1	1	1	1	1	1	1	0	1	-18,111346	275,836644	310,128197	0
15.01.2021	13:22:43	0	73,157384	3,296675	1,6365	326,7396	1,201	86,382	0	1015,14	8,6	10	9,7	1	1	1	1	1	1	1	1	1	0	1	-24,031008	275,799136	304,030037	0
15.01.2021	13:22:44	0	73,157354	2,841962	1,6515	327,8016	1,209	86,371	0	1015,24	8,6	10	9,7	1	1	1	1	1	1	1	1	1	0	1	-17,829457	275,656291	309,552463	0
15.01.2021	13:22:45	0	73,509042	3,637712	1,66275	331,5816	1,206	86,396	0	1015,34	8,6	10	9,7	1	1	1	1	1	1	1	1	1	0	1	-20,084567	275,838276	308,162747	0
15.01.2021	13:22:46	0	73,391772	3,751392	1,6905	324,1908	1,206	86,378	0	1015,44	8,6	10	9,7	1	1	1	1	1	1	1	1	1	0	1	-22,269204	275,831748	305,947034	0
15.01.2021	13:22:47	0	73,508982	3,524035	1,7205	338,7384	1,208	86,38	0	1015,4	8,6	10	9,7	1	1	1	1	1	1	1	1	1	0	1	-24,524313	275,808914	303,583256	0
15.01.2021	13:22:48	0	73,74343	4,319786	1,65675	337,1976	1,199	86,377	0	1015,26	8,6	10	9,7	1	1	1	1	1	1	1	1	1	0	1	-19,027484	275,802395	309,049066	0
15.01.2021	13:22:49	0	73,7434	4,774473	1,65225	327,4992	1,208	86,387	0	1015,36	8,6	10	9,8	1	1	1	1	1	1	1	1	1	0	1	-20,85976	275,758448	307,007736	0
15.01.2021	13:22:50	0	73,62613	4,319788	1,7505	333,8424	1,201	86,38	0	1015,26	8,6	10	9,7	1	1	1	1	1	1	1	1	1	0	1	-16,138125	275,661143	311,266848	0
15.01.2021	13:22:51	0	73,743339	3,069323	1,95525	335,6568	1,196	86,375	0	1015,26	8,6	10	9,7	1	1	1	1	1	1	1	1	1	0	1	-18,816068	275,716223	308,850657	0
15.01.2021	13:22:52	0	73,977787	3,751396	2,1045	350,5032	1,201	86,391	0	1015,22	8,6	10	9,7	1	1	1	1	1	1	1	1	1	0	1	-19,027484	275,691904	308,523651	0
15.01.2021	13:22:53	0	73,743279	2,728289	2,1075	341,2332	1,198	86,385	0	1015,26	8,6	10	9,7	1	1	1	1	1	1	1	1	1	0	1	-16,490486	275,665997	310,937546	0
15.01.2021	13:22:54	0	74,212204	4,206112	2,05425	345,7764	1,207	86,395	0	1015,32	8,6	10	9,7	1	1	1	1	1	1	1	1	1	0	1	-22,551092	275,79262	305,478952	0
15.01.2021	13:22:55	0	73,508741	2,955647	1,986	345,8016	1,203	86,385	0	1015,24	8,6	10	9,7	1	1	1	1	1	1	1	1	1	0	1	-19,238901	275,843175	309,031729	0
15.01.2021	13:22:56	0	73,860427	3,410363	1,89825	354,2652	1,206	86,375	0	1015,32	8,6	10	9,7	1	1	1	1	1	1	1	1	1	0	1	-20,084567	275,708113	307,543609	0
15.01.2021	13:22:57	0	74,094874	3,069327	1,7835	347,9796	1,204	86,384	0	1015,32	8,6	10	9,7	1	1	1	1	1	1	1	1	1	0	1	-21,634954	275,849707	306,666774	0
15.01.2021	13:22:58	0	74,094844	3,410364	1,65675	339,1092	1,205	86,37	0	1015,24	8,6	10	9,7	1	1	1	1	1	1	1	1	1	0	1	-21,634954	275,649823	305,71624	0
15.01.2021	13:22:59	0	73,860336	2,614613	1,52175	338,2992	1,205	86,374	0	1015,46	8,6	10	9,7	1	1	1	1	1	1	1	1	1	0	1	-17,688513	275,7357	310,07081	0
15.01.2021	13:23:00	0	74,329229	2,955651	1,42575	337,5072	1,204	86,368	0	1015,24	8,6	10	9,7	1	1	1	1	1	1	1	1	1	0	1	-18,181818	275,851341	310,127686	0
15.01.2021	13:23:01	0	74,329229	2,955651	1,42575	337,5072	1,204	86,368	0	1015,24	8,6	10	9,7	1	1	1	1	1	1	1	1	1	0	1	-17,829457	275,782851	310,154109	0
15.01.2021	13:23:02	0	74,329199	4,319798	1,43775	340,2252	1,205	86,369	0	1015,26	8,6	10	9,7	1	1	1	1	1	1	1	1	1	0	1	-17,89993	275,843175	310,3707	0
15.01.2021	13:23:03	0	74,21193	2,500921	1,5165	343,2384	1,206	86,371	0	1015,5	8,6	10	9,8	1	1	1	1	1	1	1	1	1	0	1	-17,26568	275,722713	310,431898	0
15.01.2021	13:23:04	0	74,446376	3,296689	1,557	346,8024	1,202	86,358	0	1015,34	8,6	10	9,7	1	1	1	1	1	1	1	1	1	0	1	-20,225511	275,843175	308,045118	0
15.01.2021	13:23:05	0	74,680822	4,319801	1,60125	339,4728	1,202	86,334	0	1015,34	8,6	10	9,7	1	1	1	1	1	1	1	1	1	0	1	-18,322763	275,77634	309,629835	0
15.01.2021	13:23:06	0	74,680791	5,001875	1,64625	337,4712	1,199	86,349	0	1015,38	8,6	10	9,7	1	1	1	1	1	1	1	1	1	0	1	-18,393235	275,83338	309,830771	0
15.01.2021	13:23:07	0	74,211807	3,183012	1,6965	339,5088	1,196	86,335	0	1015,3	8,6	10	9,7	1	1	1	1	1	1	1	1	1	0	1	-23,11487	275,804024	304,969434	0
15.01.2021	13:23:08	0	74,329015	3,751408	1,7055	343,1736	1,201	86,337	0	1015,3	8,6	10	9,7	1	1	1	1	1	1	1	1	1	0	1	-17,758985	275,649823	309,592209	0
15.01.2021	13:23:09	0	74,797937	4,774492	1,7175	334,6128	1,199	86,323	0	1015,32	8,6	10	9,8	1	1	1	1	1	1	1	1	1	0	1	-17,406624	275,769832	310,515016	0
15.01.2021	13:23:10	0	74,446192	3,296693	1,692	338,0652	1,2	86,299	0	1015,38	8,6	10	9,7	1	1	1	1	1	1	1	1	1	0	1	-16,420014	275,657908	310,96959	0
15.01.2021	13:23:11	0	74,915113	4,319806	1,6725	332,8776	1,195	86,309	0	1015,32	8,6	10	9,7	1	1	1	1	1	1	1	1	1	0	1	-19,238901	275,716223	308,427824	0
15.01.2021	13:23:12	0	74,44613	3,296694	1,65225	337,2228	1,199	86,297	0	1015,3	8,6	10	9,7	1	1	1	1	1	1	1	1	1	0	1	-17,054264	275,838276	311,19305	0
15.01.2021	13:23:13	0	74,915051	2,955658	1,54425	334,908	1,201	86,301	0	1015,1	8,6	10	9,7	1	1	1	1	1	1	1	1	1	0	1	-18,393235	275,769832	309,528406	0
15.01.2021	13:23:14	0	74,680545	3,751412	1,46775	338,7888	1,198	86,308	0	1015,28	8,6	10	9,7	1	1	1	1	1	1	1	1	1	0	1	-18,88654	275,830116	309,32193	0
15.01.2021	13:23:15	0	74,914989	4,20613	1,39875	340,1496	1,201	86,3	0	1015,26	8,6	10	9,7	1	1	1	1	1	1	1	1	1	0	1	-20,718816	275,716223	306,947909	0
15.01.2021	13:23:16	0	74,914958	2,500943	1,4295	337,9896	1,202	86,286	0	1015,3	8,6	10	9,7	1	1	1	1	1	1	1	1	1	0	1	-22,339676	275,638509	304,957778	0
15.01.2021	13:23:17	0	75,266641	4,206132	1,49775	334,9728	1,201	86,282	0	1015,28	8,6	10	9,7	1	1	1	1	1	1	1	1	1	0	1	-19,520789	275,732453	308,223093	0
15.01.2021	13:23:18	0	75,032134	2,955661	1,5945	333,8784	1,201	86,288	0	1015,36	8,6	10	9,7	1	1	1	1	1	1	1	1	1	0	1	-19,450317	275,843175	308,820312	0
15.01.2021	13:23:19	0	75,383816	3,978775	1,62525	336,2076	1,2	86,282	0	1015,38	8,6	10	9,7	1	1	1	1	1	1	1	1	1	0	1	-20,295983	275,781223	307,67984	0
15.01.2021	13:23:20	0	75,266547	2,841983	1,644	333,81	1,198	86,274	0	1015,34	8,6	10	9,7	1	1	1	1	1	1	1	1	1	0	1	-17,970402	275,693524	309,588434	0
15.01.2021	13:23:21	0	75,500991	4,547173	1,57575	336,7872	1,199	86,26	0	1015,26	8,6	10	9,7	1	1	1	1	1	1	1	1	1	0	1	-21,141649	275,690284	306,401787	0
15.01.2021	13:23:22	0	74,914772	2,500946	1,536	338,6592	1,195	86,26	0	1015,28	8,6	10	9,7	1	1	1	1	1	1	1	1	1	0	1	-19,027484	275,657908	308,36212	0
15.01.2021	13:23:23	0	75,266454	2,500946	1,4955	341,7372	1,198	86,257	0	1015,24	8,6	10	9,7	1	1	1	1	1	1	1	1	1	0	1	-18,181818	275,738948	309,592949	0
15.01.2021	13:23:24	0	75,38366	3,865099	1,48875	340,2288	1,195	86,241	0	1015,34	8,6	10	9,7	1	1	1	1	1	1	1	1	1	0	1	-15,715292	275,661143	311,689681	0
15.01.2021	13:23:25	0	75,266391	3,296703	1,482	349,4736	1,199	86,219	0	1015,28	8,6	10	9,7	1	1	1	1	1	1	1	1	1	0	1	-15,574348	275,799136	312,486696	0
15.01.2021	13:23:26	0	75,618072	4,774536	1,52025	350,6832	1,198	86,229	0	1015,16	8,6	10	9,7	1	1	1	1	1	1	1	1	1	0	1	-22,48062	275,804024	305,603683	0
15.01.2021	13:23:27	0	75,266329	4,31982	1,596	356,994	1,201	86,239	0	1015,38	8,6	10	9,7	1	1	1	1	1	1	1	1	1	0	1	-21,000705	275,807284	307,099109	0
15.01.2021	13:23:28	0	75,501301	3,751423	1,6005	357,6168	1,194	86,23	0	1015,26	8,6	9,9	9,7	1	1	1	1	1	1	1	1	1	0	1	-15,997181	275,709735	311,638703	0
15.01.2021	13:23:29	0	75,735215	4,433501	1,524	346,7988	1,192	86,221	0	1015,24	8,6	10	9,7	1	1	1	1	1	1	1	1	1	0	1	-20,366455	275,657908	307,023149	0
15.01.2021	13:23:30	0	75,617946	3,410386	1,49625	350,6688	1,194	86,211	0	1015,34	8,6	10	9,7	1	1	1	1	1	1	1	1	1	0	1	-19,87315	275,7617	308,009812	0
15.01.2021	13:23:31	0	75,617915	3,524066	1,458	357,2712	1,192	86,216	0	1015,28	8,6	10	9,7	1	1	1	1	1	1	1	1	1	0	1	-16,842847	275,665997	310,585186	0
15.01.2021	13:23:32	0	75,617883	3,865106	1,452	341,6688	1,194	86,206	0	1015,3	8,6	10	9,7	1	1	1	1	1	1	1	1	1	0	1	-24,031008	275,685424	303,489333	0
15.01.2021	13:23:33	0	75,617852	3,637747	1,5165	351,0792	1,196	86,219	0	1015,4	8,6	10	9,7	1	1	1	1	1	1	1	1	1	0	1	-19,168428	275,838276	309,078885	0
15.01.2021	13:23:34	0	75,969531	3,296709	1,512	345,3768	1,197	86,209	0	1015,32	8,6	10	9,7	1	1	1	1	1	1	1	1	1	0	1	-21,846371	275,740572	305,936119	0
15.01.2021	13:23:35	0	75,735026	4,774545	1,48875	334,2168	1,196	86,209	0	1015,36	8,6	10	9,7	1	1	1	1	1	1	1	1	1	0	1	-19,027484	275,823589	309,149925	0
15.01.2021	13:23:36	0	75,969468	4,433507	1,437	337,5	1,191	86,197	0	1015,3	8,6	10	9,7	1	1	1	1	1	1	1	1	1	0	1	-19,168428	275,782851	308,815138	0
15.01.2021	13:23:37	0	75,734962	2,728313	1,37175	337,1904	1,192	86,212	0	1015,22	8,6	10	9,7	1	1	1	1	1	1	1	1	1	0	1	-16,349542	275,823589	311,827868	0
15.01.2021	13:23:38	0	75,969404	5,115587	1,28775	346,1616	1,189	86,205	0	1015,36	8,6	10	9,7	1	1	1	1	1	1	1	1	1	0	1	-21,423538	275,698386	306,158404	0
15.01.2021	13:23:39	0	75,617662	2,614634	1,25925	342,396	1,191	86,214	0	1015,32	8,6	10	9,7	1	1	1	1	1	1	1	1	1	0	1	-21,634954	275,800765	306,433843	0
15.01.2021	13:23:40	0	76,086577	2,614619	1,2195	343,1196	1,184	86,198	0	1015,2	8,6	10	9,8	1	1	1	1	1	1	1	1	1	0	1	-15,433404	275,683804	312,079241	0
15.01.2021	13:23:41	0	75,617599	2,046236	1,24575	344,3544	1,192	86,195	0	1015,28	8,6	10	9,7	1	1	1	1	1	1	1	1	1	0	1	-18,25229	275,656291	309,12963	0
15.01.2021	13:23:42	0	76,20375	4,319833	1,31925	346,14	1,191	86,206	0	1015,24	8,6	10	9,7	1	1	1	1	1	1	1	1	1	0	1	-18,957012	275,72109	308,732852	0
15.01.2021	13:23:43	0	76,203719	4,660873	1,353	340,56	1,211	86,226	0	1015,42	8,6	10	9,7	1	1	1	1	1	1	1	1	1	0	1	-17,89993	275,839909	310,355155	0
15.01.2021	13:23:44	0	76,08645	3,865115	1,3485	338,0292	1,187	86,215	0	1015,44	8,6	10	9,7	1	1	1	1	1	1	1	1	1	0	1	-18,25229	275,700007	309,337355	0
15.01.2021	13:23:45	0	76,320891	4,888235	1,32375	342,7668	1,188	86,213	0	1015,36	8,6	10	9,7	1	1	1	1	1	1	1	1	1	0	1	-21,212121	275,838276	307,035192	0
15.01.2021	13:23:46	0	76,555332	4,774556	1,38225	343,1124	1,183	86,218	0	1015,28	8,6	10	9,7	1	1	1	1	1	1	1	1	1	0	1	-18,745595	275,750321	309,08325	0
15.01.2021	13:23:47	0	76,320827	2,387278	1,4415	342,8928	1,19	86,219	0	1015,4	8,6	10	9,7	1	1	1	1	1	1	1	1	1	0	1	-19,168428	275,653057	308,198127	0
15.01.2021	13:23:48	0	76,555268	4,774558	1,497	345,7548	1,189	86,222	0	1015,14	8,6	10	9,7	1	1	1	1	1	1	1	1	1	0	1	-19,238901	275,817066	308,907461	0
15.01.2021	13:23:49	0	76,438	4,206134	1,48725	349,884	1,19	86,24	0	1015,32	8,6	10	9,8	1	1	1	1	1	1	1	1	1	0	1	-29,527837	275,79262	298,502207	0
15.01.2021	13:23:50	0	76,320731	4,43352	1,46325	347,1768	1,195	86,239	0	1015,32	8,6	10	9,7	1	1	1	1	1	1	1	1	1	0	1	-21,141649	275,823589	307,035761	0
15.01.2021	13:23:51	0	76,672408	2,842	1,42875	348,3396	1,187	86,231	0	1015,22	8,6	10	9,7	1	1	1	1	1	1	1	1	1	0	1	-18,393235	275,774713	309,551622	0
15.01.2021	13:23:52	0	76,437903	2,842001	1,42125	351,0612	1,19	86,249	0	1015,48	8,6	10	9,7	1	1	1	1	1	1	1	1	1	0	1	-17,688513	275,790992	310,333783	0
15.01.2021	13:23:53	0	76,672343	4,774562	1,473	347,6448	1,187	86,25	0	1015,22	8,6	10	9,7	1	1	1	1	1	1	1	1	1	0	1	-19,309373	275,716223	308,357352	0
15.01.2021	13:23:54	0	76,672311	4,433523	1,509	347,2668	1,19	86,256	0	1015,22	8,6	10	9,7	1	1	1	1	1	1	1	1	1	0	1	-18,675123	275,828484	309,525581	0
15.01.2021	13:23:55	0	76,437807	4,433524	1,49175	341,748	1,19	86,25	0	1015,28	8,6	10	9,7	1	1	1	1	1	1	1	1	1	0	1	-21,353066	275,83338	306,87094	0
15.01.2021	13:23:56	0	76,437775	2,728323	1,4925	341,3376	1,183	86,242	0	1015,26	8,6	10	9,7	1	1	1	1	1	1	1	1	1	0	1	-18,25229	275,695145	309,314247	0
15.01.2021	13:23:57	0	76,554979	4,092485	1,51275	336,0744	1,188	86,253	0	1015,4	8,6	10	9,7	1	1	1	1	1	1	1	1	1	0	1	-17,970402	275,821958	310,199245	0
15.01.2021	13:23:58	0	76,554947	4,092486	1,533	345,2688	1,183	86,256	0	1015,28	8,6	10	9,7	1	1	1	1	1	1	1	1	1	0	1	-19,238901	275,701628	308,35845	0
15.01.2021	13:23:59	0	76,437679	2,728325	1,47675	336,708	1,193	86,27	0	1015,34	8,6	10	9,7	1	1	1	1	1	1	1	1	1	0	1	-19,379845	275,664379	308,0405	0
15.01.2021	13:24:00	0	76,906557	4,319849	1,3665	343,494	1,192	86,275	0	1015,32	8,6	10	9,7	1	1	1	1	1	1	1	1	1	0	1	-20,85976	275,789363	307,154788	0
15.01.2021	13:24:01	0	76,906557	4,319849	1,3665	343,494	1,192	86,275	0	1015,32	8,6	10	9,7	1	1	1	1	1	1	1	1	1	0	1	-18,463707	275,813804	309,667135	0
15.01.2021	13:24:02	0	76,789289	3,069367	1,3995	350,6256	1,188	86,277	0	1015,32	8,6	10	9,7	1	1	1	1	1	1	1	1	1	0	1	-19,238901	275,696765	308,335339	0
15.01.2021	13:24:03	0	77,258199	4,888252	1,36875	350,28	1,192	86,292	0	1015,28	8,6	10	9,7	1	1	1	1	1	1	1	1	1	0	1	-19,943622	275,653057	307,422933	0
15.01.2021	13:24:04	0	77,023695	3,865107	1,383	348,7392	1,19	86,282	0	1015,32	8,6	10	9,8	1	1	1	1	1	1	1	1	1	0	1	-17,970402	275,714601	309,688612	0
15.01.2021	13:24:05	0	76,554721	3,29673	1,37025	355,0644	1,185	86,286	0	1015,28	8,6	10	9,7	1	1	1	1	1	1	1	1	1	0	1	-19,309373	275,83338	308,914632	0
15.01.2021	13:24:06	0	76,789159	4,547214	1,3095	344,6676	1,191	86,303	0	1015,32	8,6	10	9,7	1	1	1	1	1	1	1	1	1	0	1	-17,758985	275,727582	309,961742	0
15.01.2021	13:24:07	0	77,023598	2,728329	1,27725	347,1984	1,186	86,289	0	1015,22	8,6	10	9,7	1	1	1	1	1	1	1	1	1	0	1	-14,799154	275,644973	312,529004	0
15.01.2021	13:24:08	0	77,023565	4,206175	1,278	336,4524	1,19	86,285	0	1015,36	8,6	10	9,7	1	1	1	1	1	1	1	1	1	0	1	-21,705426	275,703249	305,899629	0
15.01.2021	13:24:09	0	77,258003	3,637774	1,22625	336,7692	1,191	86,304	0	1015,3	8,6	10	9,7	1	1	1	1	1	1	1	1	1	0	1	-23,396758	275,831748	304,819479	0
15.01.2021	13:24:10	0	77,0235	3,069354	1,18875	345,87	1,189	86,296	0	1015,32	8,6	10	9,8	1	1	1	1	1	1	1	1	1	0	1	-16,560958	275,795878	311,484584	0
15.01.2021	13:24:11	0	77,140703	4,6609	1,17075	337,1616	1,194	86,305	0	1015,28	8,6	10	9,7	1	1	1	1	1	1	1	1	1	0	1	-21,353066	275,83338	306,87094	0
15.01.2021	13:24:12	0	77,37514	4,092498	1,194	339,8436	1,192	86,288	0	1015,34	8,6	10	9,7	1	1	1	1	1	1	1	1	1	0	1	-18,040874	275,789363	309,973674	0
15.01.2021	13:24:13	0	77,023402	2,614652	1,16325	342,7632	1,188	86,294	0	1015,28	8,6	10	9,7	1	1	1	1	1	1	1	1	1	0	1	-16,420014	275,795878	311,625529	0
15.01.2021	13:24:14	0	77,140605	3,183055	1,197	340,56	1,189	86,294	0	1015,3	8,6	10	9,7	1	1	1	1	1	1	1	1	1	0	1	-21,705426	275,667615	305,730294	0
15.01.2021	13:24:15	0	77,375042	4,0925	1,1505	336,4344	1,191	86,311	0	1015,32	8,6	10	9,7	1	1	1	1	1	1	1	1	1	0	1	-19,591261	275,784478	308,400049	0
15.01.2021	13:24:16	0	77,257774	3,183057	1,098	331,056	1,193	86,316	0	1015,32	8,6	10	9,7	1	1	1	1	1	1	1	1	1	0	1	-18,88654	275,677327	308,595326	0
15.01.2021	13:24:17	0	77,492211	4,433544	1,04475	332,7516	1,19	86,304	0	1015,22	8,6	10	9,7	1	1	1	1	1	1	1	1	1	0	1	-19,520789	275,665997	307,907243	0
15.01.2021	13:24:18	0	77,140474	2,046252	1,041	334,944	1,194	86,306	0	1015,3	8,6	10	9,7	1	1	1	1	1	1	1	1	1	0	1	-16,138125	275,769832	311,783515	0
15.01.2021	13:24:19	0	77,257676	2,842017	0,99375	333,4968	1,188	86,322	0	1015,38	8,6	10	9,7	1	1	1	1	1	1	1	1	1	0	1	-20,084567	275,813804	308,046276	0
15.01.2021	13:24:20	0	77,492113	3,183059	0,95625	334,3644	1,187	86,306	0	1015,36	8,6	10	9,7	1	1	1	1	1	1	1	1	1	0	1	-16,913319	275,821958	311,256327	0
15.01.2021	13:24:21	0	77,49208	3,978825	0,9735	338,4	1,199	86,334	0	1015,36	8,6	10	9,7	1	1	1	1	1	1	1	1	1	0	1	-16,420014	275,709735	311,21587	0
15.01.2021	13:24:22	0	77,492047	4,433549	0,9225	341,6796	1,192	86,319	0	1015,28	8,6	10	9,7	1	1	1	1	1	1	1	1	1	0	1	-19,591261	275,654674	307,782976	0
15.01.2021	13:24:23	0	77,492014	3,410423	0,9525	339,3936	1,195	86,338	0	1015,36	8,6	10	9,7	1	1	1	1	1	1	1	1	1	0	1	-22,269204	275,808914	305,838366	0
15.01.2021	13:24:24	0	77,491981	4,660884	0,95325	340,9956	1,192	86,329	0	1015,38	8,6	10	9,8	1	1	1	1	1	1	1	1	1	0	1	-18,816068	275,690284	308,727368	0
15.01.2021	13:24:25	0	77,491948	2,500963	0,9015	343,8828	1,192	86,335	0	1015,32	8,6	10	9,8	1	1	1	1	1	1	1	1	1	0	1	-18,393235	275,696765	309,181005	0
15.01.2021	13:24:26	0	77,726384	3,069382	0,87375	333,864	1,188	86,327	0	1015,36	8,6	10	9,7	1	1	1	1	1	1	1	1	1	0	1	-21,49401	275,688664	306,041727	0
15.01.2021	13:24:27	0	77,726351	3,183064	0,9285	330,8904	1,193	86,344	0	1015,46	8,6	10	9,7	1	1	1	1	1	1	1	1	1	0	1	-20,295983	275,805654	307,796075	0
15.01.2021	13:24:28	0	77,726318	3,637788	1,00425	344,718	1,194	86,353	0	1015,32	8,6	10	9,7	1	1	1	1	1	1	1	1	1	0	1	-19,591261	275,789363	308,423287	0
15.01.2021	13:24:29	0	77,609051	4,319874	1,09275	349,9776	1,185	86,332	0	1015,34	8,6	10	9,7	1	1	1	1	1	1	1	1	1	0	1	-19,943622	275,815435	308,194979	0
15.01.2021	13:24:30	0	77,96072	3,865151	1,10925	349,4988	1,191	86,334	0	1015,18	8,6	10	9,7	1	1	1	1	1	1	1	1	1	0	1	-26,004228	275,693524	301,554608	0
15.01.2021	13:24:31	0	77,960687	4,206195	1,07775	352,1268	1,192	86,345	0	1015,22	8,6	10	9,7	1	1	1	1	1	1	1	1	1	0	1	-20,577872	275,656291	306,804049	0
15.01.2021	13:24:32	0	77,608952	2,842024	1,06875	352,8324	1,194	86,355	0	1015,34	8,6	10	9,7	1	1	1	1	1	1	1	1	1	0	1	-16,631431	275,730829	311,104732	0
15.01.2021	13:24:33	0	77,608919	3,41043	1,08675	355,4316	1,197	86,35	0	1015,32	8,6	10	9,7	1	1	1	1	1	1	1	1	1	0	1	-22,551092	275,644973	304,777066	0
15.01.2021	13:24:34	0	77,608886	2,728344	1,12575	348,0588	1,197	86,359	0	1015,34	8,6	10	9,7	1	1	1	1	1	1	1	1	1	0	1	-18,816068	275,77634	309,136529	0
15.01.2021	13:24:35	0	77,84332	4,43356	1,107	343,5696	1,194	86,361	0	1015,38	8,6	10	9,7	1	1	1	1	1	1	1	1	1	0	1	-18,745595	275,823589	309,431814	0
15.01.2021	13:24:36	0	78,194989	4,31988	1,0635	355,1004	1,201	86,366	0	1015,26	8,6	10	9,7	1	1	1	1	1	1	1	1	1	0	1	-16,983791	275,787735	311,02301	0
15.01.2021	13:24:37	0	77,72602	4,660896	1,05075	355,4856	1,194	86,373	0	1015,4	8,6	10	9,8	1	1	1	1	1	1	1	1	1	0	1	-20,436927	275,839909	307,818157	0
15.01.2021	13:24:38	0	77,608753	2,273622	1,0455	356,9796	1,195	86,368	0	1015,32	8,6	10	9,7	1	1	1	1	1	1	1	1	1	0	1	-16,490486	275,659526	310,906802	0
15.01.2021	13:24:39	0	78,194889	3,865158	1,0935	353,6856	1,197	86,36	0	1015,34	8,6	10	9,7	1	1	1	1	1	1	1	1	1	0	1	-21,000705	275,807284	307,099109	0
15.01.2021	13:24:40	0	77,725921	4,547246	1,1325	344,8224	1,202	86,376	0	1015,36	8,6	10	9,7	1	1	1	1	1	1	1	1	1	0	1	-16,983791	275,649823	310,367403	0
15.01.2021	13:24:41	0	78,312055	4,660928	1,2075	345,1248	1,197	86,383	0	1015,4	8,6	10	9,7	1	1	1	1	1	1	1	1	1	0	1	-16,983791	275,669234	310,459618	0
15.01.2021	13:24:42	0	77,843088	4,206204	1,22925	344,0448	1,2	86,387	0	1015,36	8,6	10	9,7	1	1	1	1	1	1	1	1	1	0	1	-18,816068	275,804024	309,268236	0
15.01.2021	13:24:43	0	78,311988	4,547249	1,20975	339,1272	1,2	86,388	0	1015,3	8,6	10	9,7	1	1	1	1	1	1	1	1	1	0	1	-20,436927	275,786107	307,562128	0
15.01.2021	13:24:44	0	78,194721	4,319887	1,1925	339,138	1,204	86,395	0	1015,38	8,6	10	9,7	1	1	1	1	1	1	1	1	1	0	1	-14,940099	275,818696	313,214024	0
15.01.2021	13:24:45	0	78,194688	4,092526	1,18425	344,0268	1,202	86,38	0	1015,32	8,6	10	9,7	1	1	1	1	1	1	1	1	1	0	1	-21,423538	275,708113	306,204638	0
15.01.2021	13:24:46	0	77,842954	4,092527	1,152	347,3064	1,199	86,413	0	1015,4	8,6	10	9,7	1	1	1	1	1	1	1	1	1	0	1	-18,816068	275,830116	309,392403	0
15.01.2021	13:24:47	0	78,311854	4,31989	1,128	354,3336	1,198	86,398	0	1015,38	8,6	10	9,7	1	1	1	1	1	1	1	1	1	0	1	-18,675123	275,730829	309,06104	0
15.01.2021	13:24:48	0	77,725654	2,842034	1,04175	345,3768	1,202	86,408	0	1015,38	8,6	10	9,7	1	1	1	1	1	1	1	1	1	0	1	-18,111346	275,65144	309,247529	0
15.01.2021	13:24:49	0	77,842854	2,614671	0,95475	339,8544	1,201	86,447	0	1015,56	8,6	10	9,7	1	1	1	1	1	1	1	1	1	0	1	-14,305849	275,841542	313,957007	0
15.01.2021	13:24:50	0	77,960054	3,183079	0,9645	343,566	1,194	86,408	0	1015,34	8,6	10	9,7	1	1	1	1	1	1	1	1	1	0	1	-21,564482	275,687044	305,963556	0
15.01.2021	13:24:51	0	77,960021	2,842035	0,93375	344,6208	1,204	86,422	0	1015,36	8,6	10	9,7	1	1	1	1	1	1	1	1	1	0	1	-18,111346	275,820327	310,050538	0
15.01.2021	13:24:52	0	78,07722	3,524125	0,981	332,0604	1,195	86,394	0	1015,26	8,6	10	9,7	1	1	1	1	1	1	1	1	1	0	1	-16,913319	275,799136	311,147725	0
15.01.2021	13:24:53	0	78,077187	3,410444	0,9915	330,138	1,203	86,421	0	1015,36	8,6	10	9,7	1	1	1	1	1	1	1	1	1	0	1	-19,450317	275,836644	308,789226	0
15.01.2021	13:24:54	0	77,95992	3,524126	1,02375	330,4116	1,202	86,422	0	1015,38	8,6	10	9,7	1	1	1	1	1	1	1	1	1	0	1	-17,054264	275,804024	311,03004	0
15.01.2021	13:24:55	0	78,546051	4,319897	1,06125	342,3852	1,205	86,422	0	1015,32	8,6	10	9,7	1	1	1	1	1	1	1	1	1	0	1	-18,111346	275,828484	310,089358	0
15.01.2021	13:24:56	0	78,311552	2,387312	1,17	337,6116	1,202	86,42	0	1015,4	8,6	10	9,7	1	1	1	1	1	1	1	1	1	0	1	-15,151515	275,709735	312,484369	0
15.01.2021	13:24:57	0	78,077053	3,069402	1,2345	328,2084	1,195	86,412	0	1015,22	8,6	10	9,7	1	1	1	1	1	1	1	1	1	0	1	-15,433404	275,835012	312,79837	0
15.01.2021	13:24:58	0	78,311485	2,728358	1,25475	340,2684	1,198	86,402	0	1015,3	8,6	10	9,7	1	1	1	1	1	1	1	1	1	0	1	-16,067653	275,724336	311,637641	0
15.01.2021	13:24:59	0	78,076985	2,955722	1,2885	339,4188	1,207	86,422	0	1015,4	8,6	10	9,7	1	1	1	1	1	1	1	1	1	0	1	-19,802678	275,846441	308,483499	0
15.01.2021	13:25:00	0	78,311384	2,842041	1,34325	338,7492	1,207	86,422	0	1015,26	8,6	10	9,7	1	1	1	1	1	1	1	1	1	0	1	-17,195208	275,794249	310,842585	0
15.01.2021	13:25:01	0	78,311384	2,842041	1,34325	338,7492	1,207	86,422	0	1015,26	8,6	10	9,7	1	1	1	1	1	1	1	1	1	0	1	-21,423538	275,698386	306,158404	0
15.01.2021	13:25:02	0	78,663047	3,978859	1,32975	336,4812	1,207	86,42	0	1015,28	8,6	10	9,7	1	1	1	1	1	1	1	1	1	0	1	-21,141649	275,698386	306,440293	0
15.01.2021	13:25:03	0	78,545781	2,955724	1,3185	344,7072	1,206	86,419	0	1015,36	8,6	10	9,7	1	1	1	1	1	1	1	1	1	0	1	-15,362932	275,691904	312,188204	0
15.01.2021	13:25:04	0	78,19405	2,61468	1,347	339,1344	1,204	86,428	0	1015,26	8,6	10	9,7	1	1	1	1	1	1	1	1	1	0	1	-19,450317	275,687044	308,077721	0
15.01.2021	13:25:05	0	78,428481	2,728362	1,335	341,6868	1,209	86,417	0	1015,4	8,6	10	9,7	1	1	1	1	1	1	1	1	1	0	1	-21,916843	275,685424	305,603498	0
15.01.2021	13:25:06	0	78,193982	2,842044	1,356	346,554	1,21	86,425	0	1015,34	8,6	10	9,7	1	1	1	1	1	1	1	1	1	0	1	-19,87315	275,654674	307,501088	0
15.01.2021	13:25:07	0	78,545646	3,978863	1,35975	342,1656	1,208	86,425	0	1015,28	8,6	10	9,7	1	1	1	1	1	1	1	1	1	0	1	-18,463707	275,737324	309,303338	0
15.01.2021	13:25:08	0	78,428379	2,728347	1,299	343,3032	1,21	86,424	0	1015,24	8,6	10	9,8	1	1	1	1	1	1	1	1	1	0	1	-13,530655	275,648206	313,812859	0
15.01.2021	13:25:09	0	78,545578	2,614682	1,24275	357,6348	1,205	86,441	0	1015,34	8,6	10	9,7	1	1	1	1	1	1	1	1	1	0	1	-17,195208	275,771459	310,73417	0
15.01.2021	13:25:10	0	78,428312	3,978865	1,197	3,0168	1,205	86,445	0	1015,36	8,6	10	9,7	1	1	1	1	1	1	1	1	1	0	1	-16,772375	275,843175	311,498254	0
15.01.2021	13:25:11	0	78,428278	2,38732	1,09425	343,5732	1,208	86,436	0	1015,4	8,6	10	9,7	1	1	1	1	1	1	1	1	1	0	1	-18,463707	275,703249	309,141349	0
15.01.2021	13:25:12	0	78,311012	3,069412	1,053	329,472	1,21	86,44	0	1015,4	8,6	10	9,7	1	1	1	1	1	1	1	1	1	0	1	-19,732206	275,662761	307,680453	0
15.01.2021	13:25:13	0	78,662674	3,637822	0,92325	335,07	1,212	86,456	0	1015,34	8,6	10	9,7	1	1	1	1	1	1	1	1	1	0	1	-18,25229	275,732453	309,491592	0
15.01.2021	13:25:14	0	78,310944	3,296777	0,831	350,3232	1,213	86,451	0	1015,36	8,6	10	9,7	1	1	1	1	1	1	1	1	1	0	1	-16,913319	275,839909	311,341766	0
15.01.2021	13:25:15	0	78,428142	2,387322	0,78975	348,9948	1,21	86,441	0	1015,1	8,6	10	9,7	1	1	1	1	1	1	1	1	1	0	1	-16,913319	275,672471	310,54547	0
15.01.2021	13:25:16	0	78,779804	4,092528	0,747	333,45	1,209	86,431	0	1015,36	8,6	10	9,8	1	1	1	1	1	1	1	1	1	0	1	-15,926709	275,712979	311,724594	0
15.01.2021	13:25:17	0	78,662538	4,547281	0,72825	321,5016	1,206	86,45	0	1015,3	8,6	10	9,7	1	1	1	1	1	1	1	1	1	0	1	-19,802678	275,83338	308,421327	0
15.01.2021	13:25:18	0	78,662504	2,728369	0,7695	323,3448	1,208	86,455	0	1015,32	8,6	10	9,7	1	1	1	1	1	1	1	1	1	0	1	-16,842847	275,670852	310,608252	0
15.01.2021	13:25:19	0	78,66247	2,500991	0,8505	316,9872	1,211	86,458	0	1015,26	8,6	10	9,8	1	1	1	1	1	1	1	1	1	0	1	-17,618041	275,760074	310,257188	0
15.01.2021	13:25:20	0	78,545204	2,955735	0,9405	304,7292	1,215	86,449	0	1015,38	8,6	10	9,7	1	1	1	1	1	1	1	1	1	0	1	-18,534179	275,831748	309,682058	0
15.01.2021	13:25:21	0	78,896865	3,865192	0,98325	310,7232	1,212	86,457	0	1015,36	8,6	10	9,7	1	1	1	1	1	1	1	1	1	0	1	-17,970402	275,760074	309,904827	0
15.01.2021	13:25:22	0	78,662367	4,319922	1,023	328,23	1,204	86,451	0	1015,34	8,6	10	9,7	1	1	1	1	1	1	1	1	1	0	1	-23,396758	275,693524	304,162078	0
15.01.2021	13:25:23	0	78,662333	3,865194	1,03125	350,4456	1,214	86,464	0	1015,54	8,6	10	9,7	1	1	1	1	1	1	1	1	1	0	1	-19,591261	275,657908	307,798342	0
15.01.2021	13:25:24	0	78,77953	4,433579	0,9855	342,81	1,21	86,449	0	1015,32	8,6	10	9,8	1	1	1	1	1	1	1	1	1	0	1	-19,732206	275,841542	308,530651	0
15.01.2021	13:25:25	0	78,779496	3,183102	0,99825	329,634	1,214	86,466	0	1015,3	8,6	10	9,7	1	1	1	1	1	1	1	1	1	0	1	-20,155039	275,690284	307,388397	0
15.01.2021	13:25:26	0	78,427768	2,842056	1,0995	340,9668	1,216	86,452	0	1015,3	8,6	10	9,7	1	1	1	1	1	1	1	1	1	0	1	-18,25229	275,854608	310,07277	0
15.01.2021	13:25:27	0	78,896659	4,206219	1,25775	341,9748	1,216	86,46	0	1015,42	8,6	10	9,8	1	1	1	1	1	1	1	1	1	0	1	-19,168428	275,734076	308,583174	0
15.01.2021	13:25:28	0	78,4277	2,842057	1,3845	322,5996	1,214	86,461	0	1015,28	8,6	10	9,7	1	1	1	1	1	1	1	1	1	0	1	-16,701903	275,838276	311,545411	0
15.01.2021	13:25:29	0	78,662128	2,728376	1,4385	324,8244	1,213	86,463	0	1015,26	8,6	10	9,7	1	1	1	1	1	1	1	1	1	0	1	-17,195208	275,782851	310,788358	0
15.01.2021	13:25:30	0	78,779325	3,41047	1,3755	0	1,216	86,472	0	1015,22	8,6	10	9,7	1	1	1	1	1	1	1	1	1	0	1	-16,701903	275,661143	310,70307	0
15.01.2021	13:25:31	0	78,427597	3,637836	1,37925	19,1376	1,216	86,456	0	1015,32	8,6	10	9,7	1	1	1	1	1	1	1	1	1	0	1	-21,212121	275,789363	306,802427	0
15.01.2021	13:25:32	0	78,544794	3,296789	1,39725	0,1188	1,217	86,454	0	1015,3	8,6	10	9,7	1	1	1	1	1	1	1	1	1	0	1	-20,577872	275,661143	306,827101	0
15.01.2021	13:25:33	0	78,896453	2,614695	1,4355	330,7428	1,216	86,469	0	1015,34	8,6	10	9,7	1	1	1	1	1	1	1	1	1	0	1	-18,25229	275,766579	309,653876	0
15.01.2021	13:25:34	0	78,310264	3,637816	1,45125	331,4808	1,22	86,465	0	1015,32	8,6	10	9,8	1	1	1	1	1	1	1	1	1	0	1	-25,229035	275,844807	303,049368	0
15.01.2021	13:25:35	0	78,896384	3,069426	1,4865	340,6176	1,22	86,471	0	1015,3	8,6	10	9,7	1	1	1	1	1	1	1	1	1	0	1	-18,675123	275,813804	309,455719	0
15.01.2021	13:25:36	0	79,013581	4,660982	1,5105	323,7516	1,215	86,463	0	1015,34	8,6	10	9,7	1	1	1	1	1	1	1	1	1	0	1	-17,618041	275,649823	309,733153	0
15.01.2021	13:25:37	0	78,661854	4,5473	1,503	328,212	1,23	86,467	0	1015,38	8,6	10	9,7	1	1	1	1	1	1	1	1	1	0	1	-19,027484	275,835012	309,20429	0
15.01.2021	13:25:38	0	78,896281	3,296793	1,48425	336,4344	1,217	86,452	0	1015,36	8,6	10	9,7	1	1	1	1	1	1	1	1	1	0	1	-19,168428	275,724336	308,536865	0
15.01.2021	13:25:39	0	79,130708	3,296794	1,41675	327,8124	1,215	86,451	0	1015,22	8,6	10	9,7	1	1	1	1	1	1	1	1	1	0	1	-17,195208	275,802395	310,881342	0
15.01.2021	13:25:40	0	78,896212	2,842065	1,3905	326,376	1,217	86,459	0	1015,26	8,6	10	9,7	1	1	1	1	1	1	1	1	1	0	1	-14,446794	275,709735	313,18909	0
15.01.2021	13:25:41	0	79,130639	4,547277	1,317	337,9716	1,223	86,461	0	1015,34	8,6	10	9,8	1	1	1	1	1	1	1	1	1	0	1	-14,869626	275,669234	312,573783	0
15.01.2021	13:25:42	0	78,544451	2,387335	1,27875	333,486	1,222	86,467	0	1015,32	8,6	10	9,7	1	1	1	1	1	1	1	1	1	0	1	-20,366455	275,706492	307,254013	0
15.01.2021	13:25:43	0	78,544417	2,501003	1,18875	324,0864	1,217	86,464	0	1015,32	8,5	10	9,8	1	1	1	1	1	1	1	1	1	0	1	-21,916843	275,669234	305,526567	0
15.01.2021	13:25:44	0	78,661613	3,296798	1,0695	329,5872	1,221	86,467	0	1015,3	8,5	10	9,7	1	1	1	1	1	1	1	1	1	0	1	-18,816068	275,802395	309,260482	0
15.01.2021	13:25:45	0	78,89604	3,183116	1,0965	317,4948	1,222	86,46	0	1015,4	8,6	10	9,7	1	1	1	1	1	1	1	1	1	0	1	-18,745595	275,72109	308,944268	0
15.01.2021	13:25:46	0	78,896005	2,728385	1,1295	309,2256	1,216	86,451	0	1015,3	8,6	10	9,7	1	1	1	1	1	1	1	1	1	0	1	-18,111346	275,669234	309,332064	0
15.01.2021	13:25:47	0	78,54428	3,410482	1,20075	321,1776	1,218	86,447	0	1015,32	8,6	10	9,7	1	1	1	1	1	1	1	1	1	0	1	-16,349542	275,688664	311,186195	0
15.01.2021	13:25:48	0	78,778706	3,978873	1,30425	327,0816	1,224	86,449	0	1015,34	8,6	10	9,8	1	1	1	1	1	1	1	1	1	0	1	-21,564482	275,755197	306,287551	0
15.01.2021	13:25:49	0	78,895901	4,433602	1,3065	336,1716	1,222	86,426	0	1015,24	8,6	10	9,8	1	1	1	1	1	1	1	1	1	0	1	-19,450317	275,661143	307,954656	0
15.01.2021	13:25:50	0	78,661406	2,955736	1,25475	340,5312	1,226	86,44	0	1015,22	8,6	10	9,8	1	1	1	1	1	1	1	1	1	0	1	-14,446794	275,808914	313,660776	0
15.01.2021	13:25:51	0	78,661372	2,38734	1,23075	315,954	1,22	86,44	0	1015,36	8,6	10	9,7	1	1	1	1	1	1	1	1	1	0	1	-20,648344	275,843175	307,622285	0
15.01.2021	13:25:52	0	78,778568	2,501023	1,21425	332,0316	1,219	86,428	0	1015,26	8,6	10	9,7	1	1	1	1	1	1	1	1	1	0	1	-16,349542	275,674089	311,116939	0
15.01.2021	13:25:53	0	78,544073	3,524149	1,11675	353,1492	1,218	86,425	0	1015,2	8,6	10	9,8	1	1	1	1	1	1	1	1	1	0	1	-18,25229	275,683804	309,260354	0
15.01.2021	13:25:54	0	79,012958	3,183122	1,08225	335,3472	1,221	86,421	0	1015,2	8,6	10	9,7	1	1	1	1	1	1	1	1	1	0	1	-19,943622	275,779595	308,024458	0
15.01.2021	13:25:55	0	78,895694	4,319952	1,11975	318,8304	1,223	86,442	0	1015,44	8,6	10	9,7	1	1	1	1	1	1	1	1	1	0	1	-17,547569	275,838276	310,699745	0
15.01.2021	13:25:56	0	78,778429	2,955739	1,22625	336,8484	1,217	86,41	0	1015,3	8,6	10	9,8	1	1	1	1	1	1	1	1	1	0	1	-17,547569	275,706492	310,072899	0
15.01.2021	13:25:57	0	78,661165	2,501026	1,2045	344,3076	1,222	86,436	0	1015,2	8,6	10	9,7	1	1	1	1	1	1	1	1	1	0	1	-16,983791	275,670852	310,467308	0
15.01.2021	13:25:58	0	79,012819	3,637835	1,218	346,122	1,217	86,423	0	1015,36	8,6	10	9,8	1	1	1	1	1	1	1	1	1	0	1	-20,225511	275,745446	307,580153	0
15.01.2021	13:25:59	0	79,012785	4,31993	1,18425	359,9064	1,223	86,432	0	1015,44	8,6	10	9,8	1	1	1	1	1	1	1	1	1	0	1	-19,168428	275,828484	309,032275	0
15.01.2021	13:26:00	0	78,543797	3,637837	1,10775	21,762	1,222	86,442	0	1015,36	8,6	10	9,8	1	1	1	1	1	1	1	1	1	0	1	-20,5074	275,672471	306,95139	0
15.01.2021	13:26:01	0	78,543797	3,637837	1,10775	21,762	1,222	86,442	0	1015,36	8,6	10	9,8	1	1	1	1	1	1	1	1	1	0	1	-20,5074	275,672471	306,95139	0
15.01.2021	13:26:02	0	79,01268	4,547324	1,032	4,068	1,22	86,439	0	1015,44	8,6	10	9,7	1	1	1	1	1	1	1	1	1	0	1	-17,618041	275,849707	310,683687	0
15.01.2021	13:26:03	0	79,247104	4,206276	0,99975	349,5348	1,228	86,429	0	1015,38	8,7	10	9,7	1	1	1	1	1	1	1	1	1	0	1	-18,463707	275,795878	309,581836	0
15.01.2021	13:26:04	0	78,778152	3,751522	0,966	346,914	1,224	86,442	0	1015,36	8,6	10	9,8	1	1	1	1	1	1	1	1	1	0	1	-22,973925	275,85951	305,374474	0
15.01.2021	13:26:05	0	78,660888	3,410496	0,9195	355,4892	1,22	86,431	0	1015,38	8,6	10	9,7	1	1	1	1	1	1	1	1	1	0	1	-18,322763	275,677327	309,159103	0
15.01.2021	13:26:06	0	79,12977	4,433619	0,912	345,114	1,221	86,428	0	1015,36	8,6	10	9,8	1	1	1	1	1	1	1	1	1	0	1	-25,440451	275,766579	302,465716	0
15.01.2021	13:26:07	0	78,778048	4,433619	0,92325	332,7336	1,217	86,425	0	1015,4	8,6	10	9,8	1	1	1	1	1	1	1	1	1	0	1	-17,970402	275,828484	310,230302	0
15.01.2021	13:26:08	0	79,24693	4,774668	0,966	340,6464	1,222	86,399	0	1015,24	8,6	10	9,8	1	1	1	1	1	1	1	1	1	0	1	-18,25229	275,795878	309,793252	0
15.01.2021	13:26:09	0	78,426291	2,728382	0,95775	339,4656	1,22	86,411	0	1015,26	8,6	10	9,8	1	1	1	1	1	1	1	1	1	0	1	-16,631431	275,839909	311,623654	0
15.01.2021	13:26:10	0	78,895172	3,637844	0,92475	340,5744	1,222	86,414	0	1015,38	8,6	10	9,8	1	1	1	1	1	1	1	1	1	0	1	-17,688513	275,787735	310,318289	0
15.01.2021	13:26:11	0	78,895138	4,774671	0,95925	346,104	1,222	86,424	0	1015,26	8,5	10	9,8	1	1	1	1	1	1	1	1	1	0	1	-21,705426	275,823589	306,471983	0
15.01.2021	13:26:12	0	79,012332	3,296797	1,005	353,178	1,225	86,422	0	1015,34	8,6	10	9,8	1	1	1	1	1	1	1	1	1	0	1	-15,574348	275,732453	312,169534	0
15.01.2021	13:26:13	0	78,426152	3,410481	1,077	351,3564	1,225	86,409	0	1015,22	8,6	10	9,8	1	1	1	1	1	1	1	1	1	0	1	-19,168428	275,844807	309,109974	0
15.01.2021	13:26:14	0	78,895033	4,547309	1,05	350,2656	1,224	86,423	0	1015,3	8,5	10	9,8	1	1	1	1	1	1	1	1	1	0	1	-14,65821	275,737324	313,108835	0
15.01.2021	13:26:15	0	78,308854	2,614719	1,05525	350,7012	1,221	86,418	0	1015,4	8,6	10	9,7	1	1	1	1	1	1	1	1	1	0	1	-16,631431	275,662761	310,781228	0
15.01.2021	13:26:16	0	78,894963	4,092604	1,0365	357,2604	1,222	86,41	0	1015,4	8,6	10	9,7	1	1	1	1	1	1	1	1	1	0	1	-19,238901	275,727582	308,481826	0
15.01.2021	13:26:17	0	78,894928	3,296801	1,032	359,154	1,227	86,425	0	1015,44	8,6	10	9,8	1	1	1	1	1	1	1	1	1	0	1	-21,353066	275,674089	306,113415	0
15.01.2021	13:26:18	0	78,894893	2,955771	0,963	347,6376	1,23	86,429	0	1015,24	8,5	10	9,7	1	1	1	1	1	1	1	1	1	0	1	-15,715292	275,797507	312,338001	0
15.01.2021	13:26:19	0	79,129315	4,319948	0,951	339,2244	1,22	86,428	0	1015,34	8,6	10	9,8	1	1	1	1	1	1	1	1	1	0	1	-22,551092	275,825221	305,634081	0
15.01.2021	13:26:20	0	78,894823	3,183139	0,88725	345,438	1,223	86,427	0	1015,32	8,5	10	9,7	1	1	1	1	1	1	1	1	1	0	1	-20,648344	275,849707	307,653384	0
15.01.2021	13:26:21	0	78,894788	3,751535	0,8505	346,1472	1,218	86,43	0	1015,22	8,5	10	9,8	1	1	1	1	1	1	1	1	1	0	1	-18,604651	275,740572	309,177839	0
15.01.2021	13:26:22	0	78,777525	3,296805	0,81	336,7368	1,223	86,442	0	1015,22	8,6	10	9,8	1	1	1	1	1	1	1	1	1	0	1	-18,534179	275,664379	308,886166	0
15.01.2021	13:26:23	0	79,011947	3,86522	0,825	346,5684	1,232	86,447	0	1015,3	8,5	10	9,8	1	1	1	1	1	1	1	1	1	0	1	-17,829457	275,753571	310,014846	0
15.01.2021	13:26:24	0	78,543548	2,728408	0,8415	348,4044	1,231	86,431	0	1015,18	8,6	10,1	9,7	1	1	1	1	1	1	1	1	1	0	1	-17,406624	275,844807	310,871778	0
15.01.2021	13:26:25	0	78,77742	4,092588	0,8445	338,8212	1,225	86,445	0	1015,3	8,6	10	9,8	1	1	1	1	1	1	1	1	1	0	1	-19,87315	275,751946	307,963424	0
15.01.2021	13:26:26	0	78,660157	4,092588	0,96525	328,6188	1,232	86,446	0	1015,4	8,5	10	9,8	1	1	1	1	1	1	1	1	1	0	1	-20,366455	275,844807	307,911947	0
15.01.2021	13:26:27	0	78,77735	3,978906	1,101	328,6368	1,228	86,458	0	1015,2	8,5	10	9,8	1	1	1	1	1	1	1	1	1	0	1	-21,49401	275,797507	306,559283	0
15.01.2021	13:26:28	0	78,542859	2,614726	1,2375	343,98	1,226	86,443	0	1015,28	8,6	10	9,7	1	1	1	1	1	1	1	1	1	0	1	-17,688513	275,828484	310,512191	0
15.01.2021	13:26:29	0	78,777832	4,661007	1,34925	343,9044	1,229	86,451	0	1015,36	8,5	10,1	9,8	1	1	1	1	1	1	1	1	1	0	1	-18,675123	275,825221	309,51005	0
15.01.2021	13:26:30	0	78,425561	3,524198	1,37925	342,0612	1,232	86,452	0	1015,38	8,6	10	9,7	1	1	1	1	1	1	1	1	1	0	1	-18,111346	275,690284	309,43209	0
15.01.2021	13:26:31	0	78,659982	2,387346	1,3605	346,716	1,231	86,443	0	1015,42	8,5	10	9,8	1	1	1	1	1	1	1	1	1	0	1	-17,195208	275,800765	310,873589	0
15.01.2021	13:26:32	0	78,777175	2,728396	1,40025	331,1244	1,229	86,452	0	1015,48	8,6	10	9,8	1	1	1	1	1	1	1	1	1	0	1	-17,336152	275,848074	310,9578	0
15.01.2021	13:26:33	0	78,894368	3,637862	1,49475	338,4288	1,228	86,464	0	1015,34	8,6	10	9,8	1	1	1	1	1	1	1	1	1	0	1	-19,661734	275,740572	308,120756	0
15.01.2021	13:26:34	0	78,425421	2,728397	1,53225	335,1528	1,23	86,45	0	1015,34	8,5	10	9,8	1	1	1	1	1	1	1	1	1	0	1	-19,591261	275,670852	307,859838	0
15.01.2021	13:26:35	0	79,011525	3,978937	1,5975	332,5284	1,222	86,442	0	1015,12	8,6	10	9,7	1	1	1	1	1	1	1	1	1	0	1	-18,675123	275,766579	309,231043	0
15.01.2021	13:26:36	0	78,660358	3,410498	1,62525	334,2528	1,225	86,452	0	1015,4	8,6	10,1	9,8	1	1	1	1	1	1	1	1	1	0	1	-20,577872	275,831748	307,638366	0
15.01.2021	13:26:37	0	79,011455	5,229462	1,707	335,394	1,234	86,464	0	1015,38	8,5	10	9,7	1	1	1	1	1	1	1	1	1	0	1	-19,379845	275,831748	308,836392	0
15.01.2021	13:26:38	0	78,542509	2,842083	1,67025	331,1388	1,232	86,462	0	1015,24	8,5	10	9,8	1	1	1	1	1	1	1	1	1	0	1	-18,463707	275,722713	309,233872	0
15.01.2021	13:26:39	0	78,894157	4,661017	1,701	336,8376	1,231	86,457	0	1015,38	8,7	10	9,8	1	1	1	1	1	1	1	1	1	0	1	-22,128259	275,672471	305,33053	0
15.01.2021	13:26:40	0	79,011349	3,751573	1,782	335,4264	1,224	86,448	0	1015,24	8,6	10	9,7	1	1	1	1	1	1	1	1	1	0	1	-19,591261	275,802395	308,485288	0
15.01.2021	13:26:41	0	78,542404	2,614718	1,7805	324,4284	1,237	86,45	0	1015,3	8,5	10	9,8	1	1	1	1	1	1	1	1	1	0	1	-17,124736	275,835012	311,107038	0
15.01.2021	13:26:42	0	78,542369	2,273668	1,7655	314,82	1,226	86,455	0	1015,32	8,6	10	9,8	1	1	1	1	1	1	1	1	1	0	1	-20,014094	275,738948	307,760672	0
15.01.2021	13:26:43	0	78,542333	3,410503	1,755	336,3984	1,228	86,455	0	1015,22	8,5	10	9,8	1	1	1	1	1	1	1	1	1	0	1	-14,305849	275,849707	313,995879	0
15.01.2021	13:26:44	0	78,89398	2,614735	1,69125	328,2516	1,23	86,467	0	1015,34	8,6	10	9,7	1	1	1	1	1	1	1	1	1	0	1	-12,825934	275,729206	314,902511	0
15.01.2021	13:26:45	0	78,425036	3,296821	1,6065	327,1356	1,232	86,459	0	1015,42	8,7	10	9,8	1	1	1	1	1	1	1	1	1	0	1	-21,846371	275,870954	306,556515	0
15.01.2021	13:26:46	0	78,542228	3,069473	1,61325	334,9836	1,226	86,469	0	1015,32	8,6	10	9,7	1	1	1	1	1	1	1	1	1	0	1	-18,957012	275,781223	309,018811	0
15.01.2021	13:26:47	0	78,893874	3,637873	1,67625	333,8496	1,232	86,455	0	1015,38	8,5	10	9,8	1	1	1	1	1	1	1	1	1	0	1	-27,061311	275,862779	301,302652	0
15.01.2021	13:26:48	0	78,893839	2,614722	1,66575	333,8496	1,235	86,468	0	1015,42	8,6	10	9,8	1	1	1	1	1	1	1	1	1	0	1	-21,49401	275,734076	306,257592	0
15.01.2021	13:26:49	0	78,65935	3,410507	1,6245	330,7752	1,233	86,462	0	1015,3	8,6	10	9,8	1	1	1	1	1	1	1	1	1	0	1	-20,155039	275,70487	307,457723	0
15.01.2021	13:26:50	0	78,659865	3,524192	1,578	341,3628	1,23	86,456	0	1015,36	8,5	10,1	9,8	1	1	1	1	1	1	1	1	1	0	1	-18,181818	275,795878	309,863724	0
15.01.2021	13:26:51	0	78,424825	2,50104	1,48725	329,724	1,231	86,465	0	1015,34	8,6	10	9,8	1	1	1	1	1	1	1	1	1	0	1	-17,618041	275,675708	309,856132	0
15.01.2021	13:26:52	0	78,659244	4,206295	1,41375	320,04	1,228	86,465	0	1015,32	8,7	10	9,8	1	1	1	1	1	1	1	1	1	0	1	-20,295983	275,758448	307,571513	0
15.01.2021	13:26:53	0	78,541982	4,774714	1,41525	320,0436	1,23	86,463	0	1015,36	8,7	10	9,8	1	1	1	1	1	1	1	1	1	0	1	-22,339676	275,828484	305,861028	0
15.01.2021	13:26:54	0	78,659173	3,524195	1,43925	326,448	1,236	86,459	0	1015,22	8,6	10	9,8	1	1	1	1	1	1	1	1	1	0	1	-21,282593	275,698386	306,299349	0
15.01.2021	13:26:55	0	78,659138	3,865247	1,37175	327,4776	1,231	86,458	0	1015,24	8,6	10	9,8	1	1	1	1	1	1	1	1	1	0	1	-20,295983	275,817066	307,850378	0
15.01.2021	13:26:56	0	79,245236	4,54735	1,2795	324,2052	1,23	86,458	0	1015,12	8,6	10	9,8	1	1	1	1	1	1	1	1	1	0	1	-22,198732	275,856242	306,134107	0
15.01.2021	13:26:57	0	79,010747	4,661035	1,2795	326,0304	1,228	86,45	0	1015,34	8,5	10	9,8	1	1	1	1	1	1	1	1	1	0	1	-21,775899	275,766579	306,130268	0
15.01.2021	13:26:58	0	78,776259	2,728411	1,19475	326,8908	1,23	86,465	0	1015,32	8,5	10	9,8	1	1	1	1	1	1	1	1	1	0	1	-19,168428	275,674089	308,298052	0
15.01.2021	13:26:59	0	78,89345	2,842096	1,2345	319,2732	1,233	86,466	0	1015,26	8,5	10	9,8	1	1	1	1	1	1	1	1	1	0	1	-19,097956	275,734076	308,653646	0
15.01.2021	13:27:00	0	79,245613	4,888407	1,26975	326,4444	1,234	86,472	0	1015,36	8,6	10,1	9,8	1	1	1	1	1	1	1	1	1	0	1	-22,410148	275,662761	305,002511	0
15.01.2021	13:27:01	0	79,245613	4,888407	1,26975	326,4444	1,234	86,472	0	1015,36	8,6	10,1	9,8	1	1	1	1	1	1	1	1	1	0	1	-22,410148	275,747071	305,403242	0
15.01.2021	13:27:02	0	78,424987	2,501046	1,22625	329,724	1,232	86,466	0	1015,26	8,5	10,1	9,8	1	1	1	1	1	1	1	1	1	0	1	-21,846371	275,854608	306,478689	0
15.01.2021	13:27:03	0	78,893308	3,524202	1,245	330,8076	1,238	86,471	0	1015,28	8,6	10	9,8	1	1	1	1	1	1	1	1	1	0	1	-20,648344	275,813804	307,482498	0
15.01.2021	13:27:04	0	78,65882	4,31999	1,26	347,0364	1,238	86,474	0	1015,38	8,5	10	9,8	1	1	1	1	1	1	1	1	1	0	1	-23,044397	275,849707	305,25733	0
15.01.2021	13:27:05	0	78,307106	2,955783	1,2645	355,8852	1,234	86,462	0	1015,32	8,5	10	9,8	1	1	1	1	1	1	1	1	1	0	1	-16,983791	275,807284	311,116022	0
15.01.2021	13:27:06	0	79,24488	4,661072	1,26975	349,5384	1,237	86,48	0	1015,38	8,6	10	9,7	1	1	1	1	1	1	1	1	1	0	1	-16,420014	275,874225	311,998446	0
15.01.2021	13:27:07	0	78,893166	3,751573	1,25925	350,0028	1,236	86,493	0	1015,28	8,7	10	9,8	1	1	1	1	1	1	1	1	1	0	1	-19,097956	275,848074	309,195996	0
15.01.2021	13:27:08	0	78,89313	4,661046	1,24875	327,2256	1,236	86,489	0	1015,34	8,6	10	9,8	1	1	1	1	1	1	1	1	1	0	1	-23,396758	275,709735	304,239126	0
15.01.2021	13:27:09	0	78,77642	4,547363	1,308	324,7992	1,235	86,485	0	1015,38	8,6	10,1	9,8	1	1	1	1	1	1	1	1	1	0	1	-21,564482	275,835012	306,667292	0
15.01.2021	13:27:10	0	79,128065	4,661048	1,30575	332,4168	1,234	86,491	0	1015,36	8,6	10,1	9,8	1	1	1	1	1	1	1	1	1	0	1	-17,758985	275,787735	310,247816	0
15.01.2021	13:27:11	0	78,776349	3,410524	1,251	331,2108	1,238	86,486	0	1015,36	8,6	10,1	9,8	1	1	1	1	1	1	1	1	1	0	1	-18,393235	275,826852	309,799704	0
15.01.2021	13:27:12	0	79,010214	2,955788	1,23075	334,9044	1,237	86,483	0	1015,46	8,5	10	9,8	1	1	1	1	1	1	1	1	1	0	1	-16,420014	275,730829	311,316149	0
15.01.2021	13:27:13	0	78,776278	4,319999	1,269	336,0708	1,24	86,494	0	1015,38	8,6	10,1	9,8	1	1	1	1	1	1	1	1	1	0	1	-22,551092	275,849707	305,750635	0
15.01.2021	13:27:14	0	78,893469	2,614737	1,32675	339,5196	1,235	86,485	0	1015,34	8,6	10,1	9,8	1	1	1	1	1	1	1	1	1	0	1	-17,829457	275,711357	309,814136	0
15.01.2021	13:27:15	0	78,775655	3,524211	1,35375	339,9156	1,239	86,496	0	1015,2	8,6	10	9,8	1	1	1	1	1	1	1	1	1	0	1	-22,762509	275,682185	304,74244	0
15.01.2021	13:27:16	0	79,244522	4,547397	1,3365	340,2828	1,24	86,498	0	1015,24	8,6	10	9,7	1	1	1	1	1	1	1	1	1	0	1	-22,903453	275,838276	305,343861	0
15.01.2021	13:27:17	0	79,362268	5,002108	1,3455	336,4344	1,241	86,497	0	1015,24	8,6	10,1	9,8	1	1	1	1	1	1	1	1	1	0	1	-18,745595	275,678946	308,743964	0
15.01.2021	13:27:18	0	79,127225	2,955792	1,45725	344,0664	1,232	86,499	0	1015,3	8,5	10	9,8	1	1	1	1	1	1	1	1	1	0	1	-22,973925	275,818696	305,180197	0
15.01.2021	13:27:19	0	79,362196	4,888426	1,47825	330,8112	1,232	86,513	0	1015,34	8,5	10,1	9,8	1	1	1	1	1	1	1	1	1	0	1	-18,957012	275,742197	308,833202	0
15.01.2021	13:27:20	0	79,010481	2,955793	1,662	320,4576	1,232	86,494	0	1015,22	8,6	10,1	9,8	1	1	1	1	1	1	1	1	1	0	1	-17,195208	275,693524	310,363628	0
15.01.2021	13:27:21	0	79,127117	4,320006	1,848	316,7064	1,236	86,505	0	1015,4	8,6	10	9,8	1	1	1	1	1	1	1	1	1	0	1	-16,983791	275,848074	311,310161	0
15.01.2021	13:27:22	0	79,127636	2,84211	1,758	338,7996	1,239	86,503	0	1015,42	8,7	10,1	9,8	1	1	1	1	1	1	1	1	1	0	1	-17,688513	275,753571	310,15579	0
15.01.2021	13:27:23	0	79,010374	3,296848	1,69125	334,9548	1,241	86,495	0	1015,46	8,6	10,1	9,8	1	1	1	1	1	1	1	1	1	0	1	-21,282593	275,675708	306,19158	0
15.01.2021	13:27:24	0	78,892559	2,842111	1,743	326,8116	1,237	86,498	0	1015,24	8,5	10	9,8	1	1	1	1	1	1	1	1	1	0	1	-16,842847	275,790992	311,179449	0
15.01.2021	13:27:25	0	79,244199	3,524219	1,82475	332,7624	1,235	86,484	0	1015,3	8,5	10	9,8	1	1	1	1	1	1	1	1	1	0	1	-18,040874	275,805654	310,051184	0
15.01.2021	13:27:26	0	79,47917	4,661064	1,8615	327,4632	1,235	86,495	0	1015,28	8,5	10,1	9,8	1	1	1	1	1	1	1	1	1	0	1	-19,732206	275,732453	308,011676	0
15.01.2021	13:27:27	0	79,361908	4,547381	2,0865	326,808	1,238	86,497	0	1015,34	8,6	10,1	9,8	1	1	1	1	1	1	1	1	1	0	1	-21,071177	275,88404	307,394026	0
15.01.2021	13:27:28	0	79,244646	2,614745	2,184	333,486	1,238	86,51	0	1015,32	8,6	10,1	9,8	1	1	1	1	1	1	1	1	1	0	1	-20,5074	275,740572	307,27509	0
15.01.2021	13:27:29	0	79,127384	4,433698	2,29875	348,3036	1,243	86,509	0	1015,4	8,6	10,1	9,8	1	1	1	1	1	1	1	1	1	0	1	-17,406624	275,852974	310,910657	0
15.01.2021	13:27:30	0	79,127348	3,524222	2,2785	342,7596	1,242	86,503	0	1015,34	8,5	10,1	9,8	1	1	1	1	1	1	1	1	1	0	1	-21,141649	275,672471	306,317141	0
15.01.2021	13:27:31	0	79,596215	4,547385	2,08875	344,2716	1,242	86,493	0	1015,36	8,5	10,1	9,8	1	1	1	1	1	1	1	1	1	0	1	-21,141649	275,831748	307,074588	0
15.01.2021	13:27:32	0	79,010051	3,410539	1,96425	337,1832	1,267	86,517	0	1015,62	8,5	10,1	9,8	1	1	1	1	1	1	1	1	1	0	1	-25,440451	275,695145	302,126086	0
15.01.2021	13:27:33	0	79,244466	3,978963	1,91775	334,9476	1,246	86,509	0	1015,2	8,6	10,1	9,8	1	1	1	1	1	1	1	1	1	0	1	-21,071177	275,706492	306,549291	0
15.01.2021	13:27:34	0	79,24443	4,206334	1,869	335,4012	1,239	86,505	0	1015,28	8,6	10,1	9,8	1	1	1	1	1	1	1	1	1	0	1	-17,618041	275,854608	310,707019	0
15.01.2021	13:27:35	0	79,361063	2,842118	1,9695	336,0744	1,242	86,483	0	1015,3	8,5	10	9,8	1	1	1	1	1	1	1	1	1	0	1	-17,970402	275,724336	309,734892	0
15.01.2021	13:27:36	0	79,126578	2,614749	2,05425	341,6616	1,241	86,522	0	1015,4	8,7	10	9,8	1	1	1	1	1	1	1	1	1	0	1	-22,48062	275,85951	305,867779	0
15.01.2021	13:27:37	0	79,713223	4,547391	2,031	321,8256	1,244	86,511	0	1015,18	8,5	10,1	9,8	1	1	1	1	1	1	1	1	1	0	1	-21,49401	275,738948	306,280757	0
15.01.2021	13:27:38	0	79,244286	4,206337	2,22	320,3892	1,237	86,511	0	1015,22	8,6	10,1	9,8	1	1	1	1	1	1	1	1	1	0	1	-14,65821	275,85951	313,690189	0
15.01.2021	13:27:39	0	79,360919	2,501066	2,3205	332,0424	1,244	86,512	0	1015,38	8,6	10	9,8	1	1	1	1	1	1	1	1	1	0	1	-23,960536	275,786107	304,03852	0
15.01.2021	13:27:40	0	79,009209	3,183176	2,418	327,1716	1,246	86,497	0	1015,36	8,6	10	9,8	1	1	1	1	1	1	1	1	1	0	1	-20,577872	275,867684	307,809442	0
15.01.2021	13:27:41	0	79,595295	4,547395	2,52975	325,1556	1,246	86,502	0	1015,18	8,6	10	9,8	1	1	1	1	1	1	1	1	1	0	1	-20,577872	275,725959	307,135138	0
15.01.2021	13:27:42	0	79,361366	2,387383	2,553	335,7	1,241	86,477	0	1015,2	8,6	10,1	9,8	1	1	1	1	1	1	1	1	1	0	1	-18,181818	275,750321	309,647027	0
15.01.2021	13:27:43	0	79,12688	3,183178	2,4525	306,4068	1,243	86,477	0	1015,3	8,6	10,1	9,8	1	1	1	1	1	1	1	1	1	0	1	-16,349542	275,695145	311,216995	0
15.01.2021	13:27:44	0	79,830193	4,661083	2,337	326,3724	1,248	86,479	0	1015,36	8,6	10,1	9,8	1	1	1	1	1	1	1	1	1	0	1	-21,282593	275,807284	306,81722	0
15.01.2021	13:27:45	0	79,244032	2,046329	2,24175	324,4284	1,249	86,491	0	1015,42	8,6	10,1	9,8	1	1	1	1	1	1	1	1	1	0	1	-22,973925	275,857876	305,366693	0
15.01.2021	13:27:46	0	79,243996	2,50107	2,09625	332,4132	1,249	86,472	0	1015,42	8,6	10,1	9,8	1	1	1	1	1	1	1	1	1	0	1	-20,577872	275,869319	307,817228	0
15.01.2021	13:27:47	0	78,892286	2,387385	1,96725	335,3652	1,245	86,466	0	1015,38	8,6	10,1	9,8	1	1	1	1	1	1	1	1	1	0	1	-20,084567	275,856242	308,248272	0
15.01.2021	13:27:48	0	79,712823	3,183181	1,9245	325,5876	1,245	86,469	0	1015,38	8,6	10,1	9,8	1	1	1	1	1	1	1	1	1	0	1	-21,916843	275,794249	306,12095	0
15.01.2021	13:27:49	0	79,361112	2,387387	1,94775	326,0484	1,248	86,477	0	1015,24	8,6	10,1	9,8	1	1	1	1	1	1	1	1	1	0	1	-21,282593	275,687044	306,245445	0
15.01.2021	13:27:50	0	79,71275	3,183183	1,9845	328,5216	1,244	86,484	0	1015,34	8,6	10,1	9,8	1	1	1	1	1	1	1	1	1	0	1	-20,648344	275,717845	307,026093	0
15.01.2021	13:27:51	0	79,595489	5,229516	2,02875	327,3516	1,242	86,478	0	1015,34	8,6	10,1	9,8	1	1	1	1	1	1	1	1	1	0	1	-22,128259	275,818696	306,025863	0
15.01.2021	13:27:52	0	79,829342	3,296869	2,08875	329,2992	1,248	86,497	0	1015,44	8,6	10	9,8	1	1	1	1	1	1	1	1	1	0	1	-20,014094	275,696765	307,560145	0
15.01.2021	13:27:53	0	79,360967	4,092666	2,25375	330,3792	1,247	86,477	0	1015,52	8,6	10,1	9,8	1	1	1	1	1	1	1	1	1	0	1	-19,591261	275,843175	308,679368	0
15.01.2021	13:27:54	0	79,947053	2,955815	2,277	327,4488	1,249	86,479	0	1015,26	8,6	10,1	9,8	1	1	1	1	1	1	1	1	1	0	1	-17,688513	275,823589	310,488897	0
15.01.2021	13:27:55	0	79,478118	2,61476	2,3595	331,5204	1,243	86,476	0	1015,38	8,6	10,1	9,8	1	1	1	1	1	1	1	1	1	0	1	-23,044397	275,701628	304,552953	0
15.01.2021	13:27:56	0	79,712531	2,955816	2,43075	327,1428	1,247	86,466	0	1015,36	8,6	10,1	9,8	1	1	1	1	1	1	1	1	1	0	1	-16,560958	275,821958	311,608688	0
15.01.2021	13:27:57	0	79,360821	4,09267	2,4945	329,0328	1,249	86,472	0	1015,42	8,6	10,1	9,8	1	1	1	1	1	1	1	1	1	0	1	-18,957012	275,680565	308,540241	0
15.01.2021	13:27:58	0	79,829682	4,433727	2,46225	327,7764	1,244	86,476	0	1015,38	8,6	10,1	9,8	1	1	1	1	1	1	1	1	1	0	1	-23,678647	275,795878	304,366896	0
15.01.2021	13:27:59	0	79,477973	3,524245	2,4915	329,2308	1,252	86,47	0	1015,4	8,6	10,1	9,8	1	1	1	1	1	1	1	1	1	0	1	-17,970402	275,670852	309,480698	0
15.01.2021	13:28:00	0	79,594566	3,865303	2,4645	334,3068	1,249	86,444	0	1015,42	8,6	10	9,8	1	1	1	1	1	1	1	1	1	0	1	-23,46723	275,764952	304,4312	0
15.01.2021	13:28:01	0	79,594566	3,865303	2,4645	334,3068	1,249	86,444	0	1015,42	8,6	10	9,8	1	1	1	1	1	1	1	1	1	0	1	-18,322763	275,856242	310,010076	0
15.01.2021	13:28:02	0	79,712311	4,433731	2,3085	330,4728	1,244	86,422	0	1015,26	8,6	10,1	9,8	1	1	1	1	1	1	1	1	1	0	1	-18,675123	275,743821	309,122815	0
15.01.2021	13:28:03	0	80,063946	3,751619	2,18625	337,9356	1,251	86,439	0	1015,44	8,6	10,1	9,8	1	1	1	1	1	1	1	1	1	0	1	-19,309373	275,825221	308,875801	0
15.01.2021	13:28:04	0	80,063909	3,296878	2,1615	330,3468	1,238	86,415	0	1015,3	8,6	10,1	9,8	1	1	1	1	1	1	1	1	1	0	1	-19,168428	275,820327	308,993456	0
15.01.2021	13:28:05	0	80,181096	4,547419	2,32875	325,5264	1,244	86,409	0	1015,38	8,6	10,1	9,8	1	1	1	1	1	1	1	1	1	0	1	-19,309373	275,729206	308,419072	0
15.01.2021	13:28:06	0	79,477717	2,728452	2,45175	330,1452	1,241	86,383	0	1015,32	8,6	10,1	9,8	1	1	1	1	1	1	1	1	1	0	1	-17,688513	275,675708	309,78566	0
15.01.2021	13:28:07	0	80,298246	4,433736	2,5425	322,6068	1,242	86,369	0	1015,32	8,6	10,1	9,8	1	1	1	1	1	1	1	1	1	0	1	-20,436927	275,799136	307,624117	0
15.01.2021	13:28:08	0	79,946538	4,320051	2,49375	321,4836	1,245	86,362	0	1015,4	8,6	10,1	9,8	1	1	1	1	1	1	1	1	1	0	1	-20,718816	275,85951	307,629583	0
15.01.2021	13:28:09	0	79,946501	2,728454	2,42475	321,8904	1,239	86,343	0	1015,32	8,6	10,1	9,8	1	1	1	1	1	1	1	1	1	0	1	-19,238901	275,799136	308,822144	0
15.01.2021	13:28:10	0	79,946465	2,387398	2,42475	322,6392	1,243	86,334	0	1015,32	8,6	10,1	9,8	1	1	1	1	1	1	1	1	1	0	1	-19,168428	275,682185	308,33652	0
15.01.2021	13:28:11	0	80,063651	3,978997	2,442	323,7624	1,241	86,322	0	1015,24	8,6	10,1	9,8	1	1	1	1	1	1	1	1	1	0	1	-20,5074	275,790992	307,514896	0
15.01.2021	13:28:12	0	79,711944	2,501084	2,415	325,2528	1,235	86,299	0	1015,3	8,6	10,1	9,8	1	1	1	1	1	1	1	1	1	0	1	-17,406624	275,657908	309,982979	0
15.01.2021	13:28:13	0	80,298024	5,00217	2,3955	333,9216	1,241	86,281	0	1015,36	8,6	10,1	9,8	1	1	1	1	1	1	1	1	1	0	1	-20,436927	275,790992	307,585368	0
15.01.2021	13:28:14	0	80,06354	4,206371	2,33775	331,9884	1,235	86,266	0	1015,28	8,6	10,1	9,8	1	1	1	1	1	1	1	1	1	0	1	-16,27907	275,839909	311,976015	0
15.01.2021	13:28:15	0	80,180727	3,979001	2,30925	330,0624	1,238	86,223	0	1015,32	8,6	10,1	9,8	1	1	1	1	1	1	1	1	1	0	1	-19,238901	275,747071	308,57449	0
15.01.2021	13:28:16	0	79,946243	2,387401	2,265	337,5828	1,24	86,233	0	1015,32	8,6	10,1	9,8	1	1	1	1	1	1	1	1	1	0	1	-22,832981	275,861145	305,5232	0
15.01.2021	13:28:17	0	79,946206	3,410573	2,247	330,7572	1,24	86,196	0	1015,36	8,6	10,1	9,8	1	1	1	1	1	1	1	1	1	0	1	-17,758985	275,677327	309,72288	0
15.01.2021	13:28:18	0	79,946169	2,728459	2,17125	335,376	1,236	86,189	0	1015,24	8,6	10,1	9,8	1	1	1	1	1	1	1	1	1	0	1	-21,846371	275,682185	305,658578	0
15.01.2021	13:28:19	0	80,532248	4,888491	2,15025	332,0208	1,235	86,177	0	1015,4	8,6	10,1	9,8	1	1	1	1	1	1	1	1	1	0	1	-15,856237	275,802395	312,220313	0
15.01.2021	13:28:20	0	80,063319	3,183204	2,148	332,8092	1,231	86,152	0	1015,36	8,6	10,1	9,8	1	1	1	1	1	1	1	1	1	0	1	-16,560958	275,852974	311,756323	0
15.01.2021	13:28:21	0	80,297727	3,524262	2,1015	331,1316	1,23	86,143	0	1015,42	8,6	10,1	9,8	1	1	1	1	1	1	1	1	1	0	1	-17,477097	275,789363	310,537452	0
15.01.2021	13:28:22	0	80,532136	3,979007	2,07825	340,4952	1,232	86,143	0	1015,22	8,6	10,1	9,8	1	1	1	1	1	1	1	1	1	0	1	-16,772375	275,690284	310,771061	0
15.01.2021	13:28:23	0	79,711539	2,501091	2,112	339,3756	1,231	86,109	0	1015,38	8,6	10,1	9,8	1	1	1	1	1	1	1	1	1	0	1	-20,577872	275,693524	306,980964	0
15.01.2021	13:28:24	0	80,414839	2,614777	2,1315	333,2016	1,232	86,12	0	1015,36	8,6	10,1	9,8	1	1	1	1	1	1	1	1	1	0	1	-18,88654	275,787735	309,120262	0
15.01.2021	13:28:25	0	80,297579	2,955836	2,13225	330,7176	1,229	86,09	0	1015,26	8,6	10,1	9,8	1	1	1	1	1	1	1	1	1	0	1	-20,718816	275,805654	307,373242	0
15.01.2021	13:28:26	0	80,531987	2,614778	2,1285	331,1712	1,23	86,081	0	1015,28	8,6	10,1	9,8	1	1	1	1	1	1	1	1	1	0	1	-20,789288	275,670852	306,661811	0
15.01.2021	13:28:27	0	80,296942	3,296895	2,08575	337,2696	1,223	86,082	0	1015,34	8,6	10	9,8	1	1	1	1	1	1	1	1	1	0	1	-20,295983	275,808914	307,811586	0
15.01.2021	13:28:28	0	80,531912	3,296896	2,1255	339,8328	1,229	86,057	0	1015,36	8,6	10,1	9,8	1	1	1	1	1	1	1	1	1	0	1	-18,816068	275,701628	308,781283	0
15.01.2021	13:28:29	0	80,29743	3,296897	2,21625	326,7432	1,227	86,069	0	1015,3	8,6	10,1	9,8	1	1	1	1	1	1	1	1	1	0	1	-16,138125	275,831748	312,078112	0
15.01.2021	13:28:30	0	80,531838	4,547444	2,3265	333,828	1,223	86,051	0	1015,26	8,6	10,1	9,8	1	1	1	1	1	1	1	1	1	0	1	-19,238901	275,823589	308,938509	0
15.01.2021	13:28:31	0	80,179571	2,95584	2,45475	332,4204	1,219	86,043	0	1015,34	8,6	10	9,8	1	1	1	1	1	1	1	1	1	0	1	-18,111346	275,815435	310,027256	0
15.01.2021	13:28:32	0	80,648985	3,524271	2,52975	334,17	1,218	86,034	0	1015,38	8,5	10,1	9,8	1	1	1	1	1	1	1	1	1	0	1	-20,5074	275,835012	307,724374	0
15.01.2021	13:28:33	0	80,76617	5,115878	2,4795	336,7872	1,224	86,047	0	1015,36	8,6	10,1	9,8	1	1	1	1	1	1	1	1	1	0	1	-19,168428	275,656291	308,213492	0
15.01.2021	13:28:34	0	80,531688	2,728469	2,3415	339,5448	1,217	86,025	0	1015,44	8,6	10,1	9,8	1	1	1	1	1	1	1	1	1	0	1	-20,789288	275,753571	307,055015	0
15.01.2021	13:28:35	0	80,297206	3,410587	2,2635	331,0956	1,218	86,021	0	1015,36	8,6	10,1	9,8	1	1	1	1	1	1	1	1	1	0	1	-23,819591	275,662761	303,593068	0
15.01.2021	13:28:36	0	80,648835	3,183215	2,235	333,5292	1,219	86,016	0	1015,3	8,6	10,1	9,8	1	1	1	1	1	1	1	1	1	0	1	-16,27907	275,779595	311,68901	0
15.01.2021	13:28:37	0	81,000464	4,774824	2,0775	324,0504	1,223	86,032	0	1015,44	8,6	10,1	9,8	1	1	1	1	1	1	1	1	1	0	1	-19,661734	275,844807	308,616669	0
15.01.2021	13:28:38	0	80,414316	3,637962	1,97175	330,5016	1,219	86,012	0	1015,32	8,6	10,1	9,8	1	1	1	1	1	1	1	1	1	0	1	-25,08809	275,760074	302,787138	0
15.01.2021	13:28:39	0	80,414279	4,66114	1,8615	336,4416	1,215	86,003	0	1015,28	8,6	10,1	9,8	1	1	1	1	1	1	1	1	1	0	1	-15,221987	275,843175	313,048642	0
15.01.2021	13:28:40	0	80,883129	4,888514	1,8855	330,4008	1,216	86,005	0	1015,4	8,6	10,1	9,8	1	1	1	1	1	1	1	1	1	0	1	-15,010571	275,696765	312,563668	0
15.01.2021	13:28:41	0	80,883091	4,661142	1,9755	337,1256	1,218	86,013	0	1015,42	8,6	10,1	9,8	1	1	1	1	1	1	1	1	1	0	1	-23,678647	275,644973	303,649511	0
15.01.2021	13:28:42	0	80,64861	4,661143	2,04075	329,7024	1,213	86,004	0	1015,38	8,6	10,1	9,8	1	1	1	1	1	1	1	1	1	0	1	-17,26568	275,810544	310,849646	0
15.01.2021	13:28:43	0	80,648572	2,842161	2,1555	332,7768	1,208	85,977	0	1015,26	8,6	10,1	9,8	1	1	1	1	1	1	1	1	1	0	1	-15,362932	275,669234	312,080478	0
15.01.2021	13:28:44	0	80,765756	2,842162	2,20875	338,796	1,215	86,002	0	1015,48	8,6	10,1	9,8	1	1	1	1	1	1	1	1	1	0	1	-16,208598	275,700007	311,381048	0
15.01.2021	13:28:45	0	80,531275	3,979027	2,172	327,1572	1,209	85,976	0	1015,28	8,6	10,1	9,8	1	1	1	1	1	1	1	1	1	0	1	-19,943622	275,79262	308,086422	0
15.01.2021	13:28:46	0	80,882903	4,206401	2,1465	327,114	1,217	85,975	0	1015,32	8,6	10,1	9,8	1	1	1	1	1	1	1	1	1	0	1	-18,745595	275,838276	309,501718	0
15.01.2021	13:28:47	0	80,648422	3,865343	2,12175	329,7384	1,208	85,964	0	1015,4	8,6	10,1	9,8	1	1	1	1	1	1	1	1	1	0	1	-14,517266	275,766579	313,388901	0
15.01.2021	13:28:48	0	80,531163	3,296911	2,05725	333,2124	1,204	85,966	0	1015,26	8,6	10,1	9,8	1	1	1	1	1	1	1	1	1	0	1	-14,235377	275,830116	313,973093	0
15.01.2021	13:28:49	0	80,765568	2,955852	2,01675	333,486	1,203	85,953	0	1015,36	8,6	10,1	9,8	1	1	1	1	1	1	1	1	1	0	1	-15,64482	275,703249	311,960235	0
15.01.2021	13:28:50	0	80,413866	3,069539	1,995	328,2084	1,208	85,952	0	1015,46	8,6	10,1	9,8	1	1	1	1	1	1	1	1	1	0	1	-12,825934	275,700007	314,763712	0
15.01.2021	13:28:51	0	80,648271	4,547466	2,013	338,7816	1,206	85,937	0	1015,5	8,6	10,1	9,8	1	1	1	1	1	1	1	1	1	0	1	-17,477097	275,712979	310,174206	0
15.01.2021	13:28:52	0	80,999897	2,72848	2,0565	335,3904	1,199	85,913	0	1015,34	8,5	10,1	9,8	1	1	1	1	1	1	1	1	1	0	1	-19,87315	275,675708	307,601023	0
15.01.2021	13:28:53	0	81,117081	4,433781	2,076	349,8192	1,202	85,915	0	1015,34	8,6	10,1	9,8	1	1	1	1	1	1	1	1	1	0	1	-19,168428	275,846441	309,117748	0
15.01.2021	13:28:54	0	80,999821	4,661156	1,93275	338,778	1,203	85,901	0	1015,4	8,6	10,1	9,8	1	1	1	1	1	1	1	1	1	0	1	-20,5074	275,719468	307,174751	0
15.01.2021	13:28:55	0	80,999784	4,54747	1,8975	336,1536	1,203	85,902	0	1015,4	8,6	10,1	9,8	1	1	1	1	1	1	1	1	1	0	1	-18,25229	275,807284	309,847523	0
15.01.2021	13:28:56	0	80,765304	3,069543	1,9125	338,0328	1,203	85,895	0	1015,4	8,6	10,1	9,8	1	1	1	1	1	1	1	1	1	0	1	-18,604651	275,696765	308,969588	0
15.01.2021	13:28:57	0	80,882487	2,728483	1,89675	330,7212	1,194	85,877	0	1015,24	8,6	10,1	9,8	1	1	1	1	1	1	1	1	1	0	1	-20,225511	275,839909	308,029574	0
15.01.2021	13:28:58	0	81,351333	4,66116	1,86825	344,6784	1,204	85,881	0	1015,3	8,5	10,1	9,8	1	1	1	1	1	1	1	1	1	0	1	-19,87315	275,724336	307,832144	0
15.01.2021	13:28:59	0	80,999632	2,614798	1,851	327,87	1,194	85,862	0	1015,42	8,6	10,1	9,8	1	1	1	1	1	1	1	1	1	0	1	-21,564482	275,657908	305,825122	0
15.01.2021	13:29:00	0	80,999556	3,524294	1,9125	328,2156	1,199	85,846	0	1015,4	8,6	10,1	9,8	1	1	1	1	1	1	1	1	1	0	1	-21,916843	275,815435	306,221759	0
15.01.2021	13:29:01	0	80,999556	3,524294	1,9125	328,2156	1,199	85,846	0	1015,4	8,6	10,1	9,8	1	1	1	1	1	1	1	1	1	0	1	-18,534179	275,802395	309,542371	0
15.01.2021	13:29:02	0	81,233959	3,296921	1,85475	338,3532	1,191	85,834	0	1015,2	8,6	10,1	9,8	1	1	1	1	1	1	1	1	1	0	1	-17,970402	275,695145	309,596136	0
15.01.2021	13:29:03	0	81,116701	4,092731	1,7985	339,1596	1,196	85,861	0	1015,28	8,6	10,1	9,8	1	1	1	1	1	1	1	1	1	0	1	-18,111346	275,745446	309,694318	0
15.01.2021	13:29:04	0	80,999442	4,092731	1,8465	335,754	1,199	85,85	0	1015,32	8,6	10,1	9,8	1	1	1	1	1	1	1	1	1	0	1	-21,282593	275,828484	306,91811	0
15.01.2021	13:29:05	0	81,351065	2,27374	1,85925	327,8448	1,192	85,848	0	1015,4	8,6	10,1	9,8	1	1	1	1	1	1	1	1	1	0	1	-19,027484	275,680565	308,469769	0
15.01.2021	13:29:06	0	80,882145	2,842176	1,83225	353,2068	1,198	85,857	0	1015,4	8,7	10,1	9,8	1	1	1	1	1	1	1	1	1	0	1	-22,410148	275,638509	304,887305	0
15.01.2021	13:29:07	0	81,350989	2,387428	1,839	336,0924	1,192	85,866	0	1015,36	8,6	10,1	9,8	1	1	1	1	1	1	1	1	1	0	1	-16,420014	275,716223	311,246711	0
15.01.2021	13:29:08	0	81,350951	4,092735	1,92375	344,8116	1,192	85,851	0	1015,38	8,6	10,1	9,8	1	1	1	1	1	1	1	1	1	0	1	-22,621564	275,773086	305,315553	0
15.01.2021	13:29:09	0	81,116472	3,296926	1,98675	342,324	1,194	85,852	0	1015,38	8,6	10,1	9,8	1	1	1	1	1	1	1	1	1	0	1	-19,732206	275,818696	308,421917	0
15.01.2021	13:29:10	0	81,233654	2,614804	1,95075	337,2192	1,188	85,853	0	1015,34	8,6	10,1	9,8	1	1	1	1	1	1	1	1	1	0	1	-15,926709	275,638509	311,370745	0
15.01.2021	13:29:11	0	81,350836	5,22961	1,89975	343,1304	1,19	85,863	0	1015,4	8,6	10,1	9,8	1	1	1	1	1	1	1	1	1	0	1	-19,027484	275,688664	308,508253	0
15.01.2021	13:29:12	0	81,115789	2,273744	1,869	345,1212	1,191	85,854	0	1015,44	8,6	10	9,8	1	1	1	1	1	1	1	1	1	0	1	-19,450317	275,632047	307,816444	0
15.01.2021	13:29:13	0	81,467979	3,524304	1,8585	335,6604	1,188	85,871	0	1015,24	8,6	10,1	9,8	1	1	1	1	1	1	1	1	1	0	1	-18,181818	275,664379	309,238527	0
15.01.2021	13:29:14	0	81,585161	4,774864	1,8075	332,4492	1,188	85,872	0	1015,34	8,6	10,1	9,8	1	1	1	1	1	1	1	1	1	0	1	-17,89993	275,691904	309,651206	0
15.01.2021	13:29:15	0	81,233463	2,728494	1,7865	329,3028	1,188	85,882	0	1015,36	8,6	10,1	9,8	1	1	1	1	1	1	1	1	1	0	1	-16,842847	275,630432	310,416243	0
15.01.2021	13:29:16	0	81,585084	2,728495	1,779	337,1688	1,19	85,884	0	1015,38	8,6	10,1	9,8	1	1	1	1	1	1	1	1	1	0	1	-14,446794	275,693524	313,112042	0
15.01.2021	13:29:17	0	81,116166	2,842183	1,89075	342,6948	1,187	85,884	0	1015,34	8,6	10,1	9,8	1	1	1	1	1	1	1	1	1	0	1	-20,225511	275,810544	307,889815	0
15.01.2021	13:29:18	0	81,819447	4,433807	1,917	335,3076	1,19	85,865	0	1015,38	8,7	10,1	9,8	1	1	1	1	1	1	1	1	1	0	1	-13,6716	275,734076	314,080002	0
15.01.2021	13:29:19	0	81,467749	4,32012	1,96875	345,384	1,192	85,884	0	1015,28	8,6	10,1	9,8	1	1	1	1	1	1	1	1	1	0	1	-20,366455	275,812174	307,756629	0
15.01.2021	13:29:20	0	81,58493	2,501123	2,08875	341,2836	1,187	85,881	0	1015,32	8,6	10,1	9,8	1	1	1	1	1	1	1	1	1	0	1	-18,604651	275,725959	309,108359	0
15.01.2021	13:29:21	0	81,233233	2,387436	2,15325	336,4632	1,192	85,887	0	1015,36	8,6	10,1	9,8	1	1	1	1	1	1	1	1	1	0	1	-17,970402	275,625587	309,26568	0
15.01.2021	13:29:22	0	81,702073	4,774873	2,21475	337,23	1,187	85,87	0	1015,28	8,6	10,1	9,8	1	1	1	1	1	1	1	1	1	0	1	-20,5074	275,773086	307,429717	0
15.01.2021	13:29:23	0	81,233156	2,728499	2,23425	327,1284	1,184	85,875	0	1015,34	8,6	10,1	9,8	1	1	1	1	1	1	1	1	1	0	1	-13,883016	275,817066	314,263345	0
15.01.2021	13:29:24	0	81,819215	4,5475	2,3355	340,2684	1,181	85,876	0	1015,34	8,5	10,1	9,8	1	1	1	1	1	1	1	1	1	0	1	-20,155039	275,79262	307,875005	0
15.01.2021	13:29:25	0	81,701957	4,320126	2,32575	340,6356	1,185	85,868	0	1015,34	8,5	10,1	9,8	1	1	1	1	1	1	1	1	1	0	1	-20,85976	275,64659	306,476075	0
15.01.2021	13:29:26	0	81,46748	3,524314	2,22825	345,1248	1,181	85,881	0	1015,26	8,6	10,1	9,8	1	1	1	1	1	1	1	1	1	0	1	-18,181818	275,623972	309,046596	0
15.01.2021	13:29:27	0	82,053538	3,638003	2,20725	345,0852	1,177	85,866	0	1015,28	8,5	10,1	9,8	1	1	1	1	1	1	1	1	1	0	1	-16,983791	275,747071	310,829599	0
15.01.2021	13:29:28	0	81,467402	2,955878	2,26875	348,6636	1,178	85,879	0	1015,42	8,5	10,1	9,8	1	1	1	1	1	1	1	1	1	0	1	-19,802678	275,638509	307,494776	0
15.01.2021	13:29:29	0	81,819022	2,955878	2,29575	357,0372	1,186	85,884	0	1015,56	8,6	10,1	9,8	1	1	1	1	1	1	1	1	1	0	1	-15,221987	275,687044	312,306051	0
15.01.2021	13:29:30	0	81,584545	4,547506	2,26575	352,1232	1,184	85,88	0	1015,36	8,5	10,1	9,8	1	1	1	1	1	1	1	1	1	0	1	-19,168428	275,815435	308,970173	0
15.01.2021	13:29:31	0	81,467287	2,501129	2,2335	358,3692	1,182	85,882	0	1015,4	8,6	10,1	9,8	1	1	1	1	1	1	1	1	1	0	1	-16,983791	275,633662	310,290642	0
15.01.2021	13:29:32	0	81,701686	3,97907	2,16	339,8364	1,177	85,867	0	1015,4	8,7	10,1	9,8	1	1	1	1	1	1	1	1	1	0	1	-19,450317	275,790992	308,571979	0
15.01.2021	13:29:33	0	81,584429	4,206446	2,05725	351,3564	1,178	85,873	0	1015,4	8,6	10,1	9,8	1	1	1	1	1	1	1	1	1	0	1	-13,883016	275,817066	314,263345	0
15.01.2021	13:29:34	0	81,936047	4,774886	1,95075	352,9008	1,178	85,856	0	1015,26	8,6	10,1	9,8	1	1	1	1	1	1	1	1	1	0	1	-17,406624	275,711357	310,236969	0
15.01.2021	13:29:35	0	81,584351	2,501131	1,90875	338,3712	1,184	85,865	0	1015,3	8,6	10,1	9,8	1	1	1	1	1	1	1	1	1	0	1	-14,376321	275,808914	313,731248	0
15.01.2021	13:29:36	0	81,935969	4,547513	1,86225	336,7044	1,173	85,857	0	1015,38	8,6	10,1	9,8	1	1	1	1	1	1	1	1	1	0	1	-16,208598	275,630432	311,050493	0
15.01.2021	13:29:37	0	82,053149	3,865387	1,96725	344,7288	1,175	85,872	0	1015,34	8,6	10,1	9,8	1	1	1	1	1	1	1	1	1	0	1	-19,661734	275,675708	307,812439	0
15.01.2021	13:29:38	0	81,818672	4,206451	2,07225	332,3736	1,176	85,869	0	1015,34	8,6	10,1	9,8	1	1	1	1	1	1	1	1	1	0	1	-20,436927	275,635278	306,845178	0
15.01.2021	13:29:39	0	81,935278	4,32014	2,148	344,6928	1,176	85,865	0	1015,46	8,6	10	9,8	1	1	1	1	1	1	1	1	1	0	1	-19,732206	275,777968	308,228132	0
15.01.2021	13:29:40	0	82,053032	3,29695	2,14575	333,8712	1,183	85,871	0	1015,38	8,5	10,1	9,8	1	1	1	1	1	1	1	1	1	0	1	-16,913319	275,817066	311,233042	0
15.01.2021	13:29:41	0	82,052993	4,888582	2,15175	335,646	1,175	85,875	0	1015,36	8,6	10,1	9,8	1	1	1	1	1	1	1	1	1	0	1	-21,634954	275,675708	305,839219	0
15.01.2021	13:29:42	0	82,052954	4,092767	2,1465	333,5004	1,175	85,858	0	1015,36	8,6	10,1	9,8	1	1	1	1	1	1	1	1	1	0	1	-20,014094	275,807284	308,085719	0
15.01.2021	13:29:43	0	81,935696	4,092768	2,21775	333,8676	1,174	85,9	0	1015,38	8,6	10,1	9,8	1	1	1	1	1	1	1	1	1	0	1	-19,591261	275,641741	307,721543	0
15.01.2021	13:29:44	0	82,052876	4,433833	2,28825	337,6008	1,172	85,88	0	1015,38	8,6	10,1	9,8	1	1	1	1	1	1	1	1	1	0	1	-21,282593	275,743821	306,515345	0
15.01.2021	13:29:45	0	82,052837	4,433834	2,3415	339,1956	1,177	85,889	0	1015,38	8,6	10,1	9,8	1	1	1	1	1	1	1	1	1	0	1	-15,997181	275,633662	311,277252	0
15.01.2021	13:29:46	0	82,16944	2,38745	2,31	340,2072	1,172	85,944	0	1015,36	8,6	10	9,8	1	1	1	1	1	1	1	1	1	0	1	-15,926709	275,732453	311,817173	0
15.01.2021	13:29:47	0	81,93554	4,661212	2,23125	338,4072	1,176	85,87	0	1015,32	8,6	10,1	9,8	1	1	1	1	1	1	1	1	1	0	1	-17,829457	275,804024	310,254846	0
15.01.2021	13:29:48	0	82,052719	5,229654	2,1915	341,3916	1,177	85,883	0	1015,36	8,6	10,1	9,8	1	1	1	1	1	1	1	1	1	0	1	-17,477097	275,678946	310,012463	0
15.01.2021	13:29:49	0	81,934888	4,32015	2,127	346,2408	1,178	85,901	0	1015,38	8,6	10	9,8	1	1	1	1	1	1	1	1	1	0	1	-15,64482	275,820327	312,517064	0
15.01.2021	13:29:50	0	82,052641	3,410645	2,064	323,3304	1,174	85,895	0	1015,48	8,6	10,1	9,8	1	1	1	1	1	1	1	1	1	0	1	-21,141649	275,688664	306,394088	0
15.01.2021	13:29:51	0	82,052602	4,43384	2,1255	325,9008	1,173	85,903	0	1015,22	8,6	10,1	9,8	1	1	1	1	1	1	1	1	1	0	1	-14,728682	275,813804	313,40216	0
15.01.2021	13:29:52	0	82,286999	4,774906	2,21625	336,5316	1,172	85,913	0	1015,46	8,5	10,1	9,8	1	1	1	1	1	1	1	1	1	0	1	-18,393235	275,706492	309,227233	0
15.01.2021	13:29:53	0	81,818088	2,387453	2,25075	337,1508	1,176	85,902	0	1015,36	8,6	10,1	9,8	1	1	1	1	1	1	1	1	1	0	1	-23,46723	275,633662	303,807203	0
15.01.2021	13:29:54	0	81,935267	5,115973	2,223	339,7932	1,171	85,918	0	1015,34	8,6	10,1	9,8	1	1	1	1	1	1	1	1	1	0	1	-17,477097	275,799136	310,583948	0
15.01.2021	13:29:55	0	82,052445	4,206468	2,271	338,8248	1,174	85,917	0	1015,22	8,7	10,1	9,8	1	1	1	1	1	1	1	1	1	0	1	-17,970402	275,764952	309,928029	0
15.01.2021	13:29:56	0	81,935189	3,865404	2,2125	340,5636	1,17	85,922	0	1015,4	8,6	10,1	9,8	1	1	1	1	1	1	1	1	1	0	1	-16,349542	275,817066	311,79682	0
15.01.2021	13:29:57	0	82,286802	3,069586	2,10675	339,462	1,173	85,923	0	1015,3	8,6	10,1	9,8	1	1	1	1	1	1	1	1	1	0	1	-19,097956	275,64659	308,23788	0
15.01.2021	13:29:58	0	82,169545	4,661224	2,118	339,1164	1,171	85,927	0	1015,24	8,5	10,1	9,8	1	1	1	1	1	1	1	1	1	0	1	-14,094433	275,805654	313,997625	0
15.01.2021	13:29:59	0	82,286724	4,433848	2,16525	347,0868	1,172	85,93	0	1015,08	8,6	10,1	9,8	1	1	1	1	1	1	1	1	1	0	1	-17,970402	275,787735	310,0364	0
15.01.2021	13:30:00	0	82,169428	3,296966	2,43	342,756	1,169	85,933	0	1015,44	8,6	10,1	9,8	1	1	1	1	1	1	1	1	1	0	1	-21,423538	275,656291	305,958383	0
15.01.2021	13:30:01	0	82,169428	3,296966	2,43	342,756	1,169	85,933	0	1015,44	8,6	10,1	9,8	1	1	1	1	1	1	1	1	1	0	1	-19,87315	275,799136	308,187894	0
15.01.2021	13:30:02	0	82,168813	3,979097	2,4645	340,992	1,169	85,911	0	1015,34	8,6	10	9,8	1	1	1	1	1	1	1	1	1	0	1	-15,64482	275,683804	311,867824	0
15.01.2021	13:30:03	0	82,286566	4,547541	2,42925	337,9968	1,168	85,93	0	1015,4	8,6	10,1	9,8	1	1	1	1	1	1	1	1	1	0	1	-20,295983	275,795878	307,74956	0
15.01.2021	13:30:04	0	82,052092	3,524345	2,3805	338,7528	1,174	85,94	0	1015,42	8,5	10,1	9,8	1	1	1	1	1	1	1	1	1	0	1	-16,983791	275,782851	310,999775	0
15.01.2021	13:30:05	0	82,286487	4,092789	2,358	336,0312	1,172	85,927	0	1015,24	8,7	10,1	9,8	1	1	1	1	1	1	1	1	1	0	1	-21,775899	275,79262	306,254145	0
15.01.2021	13:30:06	0	82,052014	3,865413	2,32725	339,4116	1,171	85,947	0	1015,4	8,6	10,1	9,8	1	1	1	1	1	1	1	1	1	0	1	-16,138125	275,636893	311,151654	0
15.01.2021	13:30:07	0	82,637481	4,661234	2,25675	338,8788	1,171	85,956	0	1015,3	8,6	10	9,8	1	1	1	1	1	1	1	1	1	0	1	-16,420014	275,768205	311,493889	0
15.01.2021	13:30:08	0	81,817501	2,387462	2,1465	332,0604	1,168	85,944	0	1015,34	8,6	10,1	9,8	1	1	1	1	1	1	1	1	1	0	1	-16,208598	275,622357	311,012149	0
15.01.2021	13:30:09	0	82,286329	3,524349	2,02725	334,998	1,173	85,962	0	1015,34	8,6	10,1	9,8	1	1	1	1	1	1	1	1	1	0	1	-15,715292	275,677327	311,766573	0
15.01.2021	13:30:10	0	82,403507	2,955906	1,99425	334,2528	1,17	85,97	0	1015,3	8,5	10,1	9,8	1	1	1	1	1	1	1	1	1	0	1	-16,772375	275,812174	311,350709	0
15.01.2021	13:30:11	0	82,051817	3,069596	2,031	332,7768	1,172	85,952	0	1015,16	8,6	10,1	9,8	1	1	1	1	1	1	1	1	1	0	1	-18,745595	275,703249	308,85946	0
15.01.2021	13:30:12	0	82,286211	3,865418	2,0835	318,15	1,175	85,969	0	1015,34	8,7	10,1	9,8	1	1	1	1	1	1	1	1	1	0	1	-16,349542	275,643357	310,970939	0
15.01.2021	13:30:13	0	81,934521	3,638041	2,14875	329,976	1,169	85,978	0	1015,34	8,6	10,1	9,8	1	1	1	1	1	1	1	1	1	0	1	-17,547569	275,662761	309,86509	0
15.01.2021	13:30:14	0	82,051698	3,296976	2,10375	336,51	1,17	85,961	0	1015,3	8,7	10,1	9,8	1	1	1	1	1	1	1	1	1	0	1	-14,235377	275,818696	313,918745	0
15.01.2021	13:30:15	0	82,520526	4,661242	2,04225	336,4884	1,169	85,975	0	1015,38	8,7	10,1	9,8	1	1	1	1	1	1	1	1	1	0	1	-18,957012	275,717845	308,717425	0
15.01.2021	13:30:16	0	82,168836	3,751733	1,94025	351,36	1,172	85,976	0	1015,3	8,6	10,1	9,8	1	1	1	1	1	1	1	1	1	0	1	-19,661734	275,826852	308,531205	0
15.01.2021	13:30:17	0	82,286013	3,524356	1,77	351,0828	1,171	85,99	0	1015,4	8,6	10,1	9,8	1	1	1	1	1	1	1	1	1	0	1	-20,718816	275,709735	306,917068	0
15.01.2021	13:30:18	0	82,051541	4,320179	1,66725	0,1152	1,167	86	0	1015,42	8,6	10,1	9,8	1	1	1	1	1	1	1	1	1	0	1	-21,353066	275,804024	306,731238	0
15.01.2021	13:30:19	0	82,40315	2,955913	1,59975	356,6232	1,168	86,003	0	1015,34	8,6	10,1	9,8	1	1	1	1	1	1	1	1	1	0	1	-19,168428	275,691904	308,382707	0
15.01.2021	13:30:20	0	82,403111	3,865425	1,52775	349,5024	1,169	85,99	0	1015,3	8,7	10,1	9,8	1	1	1	1	1	1	1	1	1	0	1	-19,238901	275,674089	308,22758	0
15.01.2021	13:30:21	0	82,519709	3,524359	1,49925	349,434	1,169	85,997	0	1015,38	8,6	10	9,8	1	1	1	1	1	1	1	1	1	0	1	-19,238901	275,672471	308,219889	0
15.01.2021	13:30:22	0	82,285815	4,433872	1,4685	336,456	1,169	85,994	0	1015,34	8,7	10,1	9,8	1	1	1	1	1	1	1	1	1	0	1	-21,916843	275,632047	305,349919	0
15.01.2021	13:30:23	0	82,520208	4,092806	1,386	338,3496	1,167	86,003	0	1015,4	8,6	10,1	9,8	1	1	1	1	1	1	1	1	1	0	1	-15,715292	275,700007	311,874353	0
15.01.2021	13:30:24	0	82,637384	3,410672	1,28925	339,156	1,172	85,999	0	1015,38	8,6	10,1	9,8	1	1	1	1	1	1	1	1	1	0	1	-17,477097	275,820327	310,684787	0
15.01.2021	13:30:25	0	82,285696	5,570766	1,2525	345,8304	1,168	86,005	0	1015,32	8,6	10,1	9,8	1	1	1	1	1	1	1	1	1	0	1	-20,225511	275,794249	307,812282	0
15.01.2021	13:30:26	0	81,934008	2,387472	1,26975	343,9584	1,16	85,997	0	1015,3	8,6	10,1	9,8	1	1	1	1	1	1	1	1	1	0	1	-18,675123	275,758448	309,192373	0
15.01.2021	13:30:27	0	82,167825	3,638053	1,35525	329,7384	1,17	86,004	0	1015,36	8,6	10	9,8	1	1	1	1	1	1	1	1	1	0	1	-21,071177	275,815435	307,067425	0
15.01.2021	13:30:28	0	82,402793	4,661257	1,48425	334,2852	1,167	85,999	0	1015,42	8,6	10,1	9,8	1	1	1	1	1	1	1	1	1	0	1	-17,688513	275,682185	309,816436	0
15.01.2021	13:30:29	0	82,050531	4,433879	1,62075	318,9276	1,169	86,023	0	1015,34	8,6	10	9,8	1	1	1	1	1	1	1	1	1	0	1	-19,450317	275,643357	307,870163	0
15.01.2021	13:30:30	0	81,93385	2,614852	1,78575	332,802	1,161	86,006	0	1015,22	8,6	10,1	9,8	1	1	1	1	1	1	1	1	1	0	1	-18,745595	275,695145	308,820942	0
15.01.2021	13:30:31	0	82,519889	3,183299	1,8435	334,296	1,168	86,021	0	1015,38	8,6	10,1	9,8	1	1	1	1	1	1	1	1	1	0	1	-16,349542	275,818696	311,80458	0
15.01.2021	13:30:32	0	82,636486	4,433882	1,935	332,1036	1,173	86,013	0	1015,4	8,7	10	9,8	1	1	1	1	1	1	1	1	1	0	1	-18,816068	275,789363	309,198481	0
15.01.2021	13:30:33	0	82,050947	2,614854	2,022	342,3348	1,166	86,02	0	1015,42	8,6	10,1	9,8	1	1	1	1	1	1	1	1	1	0	1	-18,88654	275,662761	308,526119	0
15.01.2021	13:30:34	0	82,285338	2,614855	2,061	334,98	1,164	86,005	0	1015,3	8,5	10,1	9,8	1	1	1	1	1	1	1	1	1	0	1	-15,64482	275,750321	312,184025	0
15.01.2021	13:30:35	0	82,401937	4,774982	2,12175	341,748	1,164	86,001	0	1015,2	8,6	10	9,7	1	1	1	1	1	1	1	1	1	0	1	-23,255814	275,828484	304,94489	0
15.01.2021	13:30:36	0	82,402474	2,955924	2,02725	345,546	1,167	86,014	0	1015,34	8,6	10,1	9,8	1	1	1	1	1	1	1	1	1	0	1	-22,48062	275,740572	305,30187	0
15.01.2021	13:30:37	0	82,050213	2,842236	1,917	344,772	1,169	85,999	0	1015,32	8,6	10	9,8	1	1	1	1	1	1	1	1	1	0	1	-16,27907	275,623972	310,949344	0
15.01.2021	13:30:38	0	82,519609	4,20651	1,8315	346,5612	1,164	85,992	0	1015,34	8,5	10,1	9,8	1	1	1	1	1	1	1	1	1	0	1	-22,832981	275,708113	304,795195	0
15.01.2021	13:30:39	0	82,167348	2,842237	1,82475	330,3756	1,173	85,995	0	1015,38	8,6	10	9,8	1	1	1	1	1	1	1	1	1	0	1	-21,49401	275,635278	305,788096	0
15.01.2021	13:30:40	0	82,285099	3,410685	1,809	351,0648	1,168	85,969	0	1015,28	8,6	10,1	9,8	1	1	1	1	1	1	1	1	1	0	1	-17,89993	275,805654	310,192128	0
15.01.2021	13:30:41	0	82,636705	3,410686	1,82025	341,3556	1,164	85,975	0	1015,46	8,6	10,1	9,8	1	1	1	1	1	1	1	1	1	0	1	-19,450317	275,656291	307,931603	0
15.01.2021	13:30:42	0	82,402234	3,979135	1,89975	343,9764	1,165	85,96	0	1015,14	8,6	10,1	9,8	1	1	1	1	1	1	1	1	1	0	1	-16,631431	275,695145	310,935107	0
15.01.2021	13:30:43	0	82,284979	3,979135	1,90725	351,7164	1,163	85,971	0	1015,32	8,6	10,1	9,8	1	1	1	1	1	1	1	1	1	0	1	-17,618041	275,826852	310,574897	0
15.01.2021	13:30:44	0	82,518791	4,320205	1,98075	342,7848	1,159	85,953	0	1015,34	8,5	10	9,8	1	1	1	1	1	1	1	1	1	0	1	-18,534179	275,725959	309,178831	0
15.01.2021	13:30:45	0	82,402114	3,638068	2,121	347,292	1,166	85,942	0	1015,44	8,6	10,1	9,8	1	1	1	1	1	1	1	1	1	0	1	-19,943622	275,641741	307,369182	0
15.01.2021	13:30:46	0	82,402074	4,661276	2,2185	346,9248	1,167	85,943	0	1015,38	8,6	10,1	9,8	1	1	1	1	1	1	1	1	1	0	1	-16,842847	275,700007	310,746799	0
15.01.2021	13:30:47	0	82,167605	4,206519	2,3745	352,4796	1,166	85,952	0	1015,46	8,6	10,1	9,8	1	1	1	1	1	1	1	1	1	0	1	-16,772375	275,808914	311,335194	0
15.01.2021	13:30:48	0	82,284779	2,501174	2,47275	330,102	1,166	85,948	0	1015,34	8,6	10,1	9,8	1	1	1	1	1	1	1	1	1	0	1	-19,520789	275,640125	307,784339	0
15.01.2021	13:30:49	0	81,81588	2,728554	2,39925	354,672	1,168	85,953	0	1015,34	8,6	10,1	9,8	1	1	1	1	1	1	1	1	1	0	1	-15,292459	275,674089	312,174021	0
15.01.2021	13:30:50	0	82,284699	4,092832	2,193	339,1956	1,169	85,948	0	1015,26	8,6	10,1	9,8	1	1	1	1	1	1	1	1	1	0	1	-20,789288	275,802395	307,287261	0
15.01.2021	13:30:51	0	82,05023	3,410694	2,04	353,2896	1,165	85,945	0	1015,36	8,7	10,1	9,8	1	1	1	1	1	1	1	1	1	0	1	-17,89993	275,750321	309,928916	0
15.01.2021	13:30:52	0	82,284619	2,387486	1,93575	343,17	1,165	85,962	0	1015,38	8,6	10,1	9,8	1	1	1	1	1	1	1	1	1	0	1	-20,014094	275,628816	307,237326	0
15.01.2021	13:30:53	0	82,519008	2,728556	1,89525	351,8496	1,163	85,961	0	1015,16	8,7	10,1	9,8	1	1	1	1	1	1	1	1	1	0	1	-18,88654	275,730829	308,849623	0
15.01.2021	13:30:54	0	82,636183	4,092836	1,92675	339,5664	1,163	85,962	0	1015,46	8,6	10,1	9,8	1	1	1	1	1	1	1	1	1	0	1	-24,171952	275,628816	303,079468	0
15.01.2021	13:30:55	0	82,518928	3,183317	2,0535	338,7708	1,163	85,953	0	1015,32	8,6	10,1	9,8	1	1	1	1	1	1	1	1	1	0	1	-14,446794	275,695145	313,119744	0
15.01.2021	13:30:56	0	82,167245	3,524388	2,037	345,0348	1,161	85,96	0	1015,3	8,6	10,1	9,8	1	1	1	1	1	1	1	1	1	0	1	-20,648344	275,807284	307,451469	0
15.01.2021	13:30:57	0	82,401633	3,979149	2,0835	346,23	1,166	85,973	0	1015,34	8,6	10,1	9,8	1	1	1	1	1	1	1	1	1	0	1	-17,406624	275,763326	310,484072	0
15.01.2021	13:30:58	0	82,284379	2,84225	2,12325	356,5548	1,166	85,955	0	1015,26	8,6	10,1	9,8	1	1	1	1	1	1	1	1	1	0	1	-18,604651	275,667615	308,83107	0
15.01.2021	13:30:59	0	82,518189	3,4107	2,208	351,126	1,158	85,965	0	1015,22	8,6	10	9,8	1	1	1	1	1	1	1	1	1	0	1	-17,688513	275,763326	310,202183	0
15.01.2021	13:31:00	0	82,518108	3,069632	2,46975	357,5988	1,163	85,988	0	1015,36	8,6	10	9,8	1	1	1	1	1	1	1	1	1	0	1	-16,490486	275,633662	310,783947	0
15.01.2021	13:31:01	0	82,518108	3,069632	2,46975	357,5988	1,163	85,988	0	1015,36	8,6	10	9,8	1	1	1	1	1	1	1	1	1	0	1	-21,634954	275,667615	305,800767	0
15.01.2021	13:31:02	0	82,284218	4,206533	2,5395	349,1424	1,165	85,985	0	1015,38	8,6	10,1	9,8	1	1	1	1	1	1	1	1	1	0	1	-18,25229	275,641741	309,060514	0
15.01.2021	13:31:03	0	82,635241	4,774985	2,51775	346,1472	1,173	85,981	0	1015,56	8,6	10	9,8	1	1	1	1	1	1	1	1	1	0	1	-18,393235	275,737324	309,37381	0
15.01.2021	13:31:04	0	81,815282	2,046423	2,45475	353,9664	1,16	85,987	0	1015,24	8,6	10,1	9,8	1	1	1	1	1	1	1	1	1	0	1	-20,366455	275,640125	306,938673	0
15.01.2021	13:31:05	0	82,517947	3,183325	2,21625	349,4376	1,168	85,984	0	1015,44	8,6	10	9,8	1	1	1	1	1	1	1	1	1	0	1	-20,5074	275,669234	306,93601	0
15.01.2021	13:31:06	0	82,518485	4,433918	2,064	357,7104	1,164	85,988	0	1015,4	8,6	10,1	9,8	1	1	1	1	1	1	1	1	1	0	1	-17,124736	275,693524	310,4341	0
15.01.2021	13:31:07	0	82,518444	4,433919	1,96425	351,6732	1,164	85,977	0	1015,26	8,5	10,1	9,8	1	1	1	1	1	1	1	1	1	0	1	-21,705426	275,818696	306,448696	0
15.01.2021	13:31:08	0	82,518404	3,069637	1,88025	360	1,158	85,985	0	1015,22	8,6	10,1	9,8	1	1	1	1	1	1	1	1	1	0	1	-16,701903	275,709735	310,933981	0
15.01.2021	13:31:09	0	81,932296	4,661302	1,81425	1,6308	1,166	85,997	0	1015,3	8,6	10,1	9,8	1	1	1	1	1	1	1	1	1	0	1	-19,520789	275,813804	308,610053	0
15.01.2021	13:31:10	0	82,40111	2,955948	1,707	358,6824	1,163	85,977	0	1015,32	8,6	10,1	9,8	1	1	1	1	1	1	1	1	1	0	1	-16,701903	275,7617	311,181059	0
15.01.2021	13:31:11	0	81,932216	2,614878	1,5525	343,9548	1,162	86,002	0	1015,32	8,5	10,1	9,8	1	1	1	1	1	1	1	1	1	0	1	-19,238901	275,813804	308,891942	0
15.01.2021	13:31:12	0	82,518242	2,728569	1,48875	337,1904	1,164	86,014	0	1015,38	8,5	10,1	9,8	1	1	1	1	1	1	1	1	1	0	1	-18,322763	275,750321	309,506083	0
15.01.2021	13:31:13	0	82,400989	3,751783	1,50975	343,2996	1,167	85,999	0	1015,42	8,6	10,1	9,8	1	1	1	1	1	1	1	1	1	0	1	-18,957012	275,649823	308,394182	0
15.01.2021	13:31:14	0	82,400948	5,002378	1,60425	345,3948	1,161	86,001	0	1015,34	8,6	10,1	9,8	1	1	1	1	1	1	1	1	1	0	1	-20,295983	275,817066	307,850378	0
15.01.2021	13:31:15	0	82,400331	3,979166	1,62375	0,1296	1,16	86,007	0	1015,36	8,7	10	9,8	1	1	1	1	1	1	1	1	1	0	1	-17,124736	275,680565	310,372518	0
15.01.2021	13:31:16	0	82,400867	3,751786	1,67925	343,1412	1,164	86,01	0	1015,46	8,6	10,1	9,8	1	1	1	1	1	1	1	1	1	0	1	-15,292459	275,623972	311,935954	0
15.01.2021	13:31:17	0	82,400827	3,638096	1,71825	355,4244	1,161	86,001	0	1015,34	8,6	10,1	9,8	1	1	1	1	1	1	1	1	1	0	1	-26,920366	275,777968	301,039972	0
15.01.2021	13:31:18	0	82,518	3,865478	1,65825	352,8756	1,16	86,021	0	1015,46	8,7	10,1	9,8	1	1	1	1	1	1	1	1	1	0	1	-13,883016	275,657908	313,506588	0
15.01.2021	13:31:19	0	82,400746	4,433932	1,5465	344,2968	1,163	86,021	0	1015,28	8,7	10,1	9,8	1	1	1	1	1	1	1	1	1	0	1	-20,084567	275,669234	307,358843	0
15.01.2021	13:31:20	0	82,517919	5,002385	1,43925	359,8344	1,168	86,025	0	1015,28	8,6	10,1	9,8	1	1	1	1	1	1	1	1	1	0	1	-17,124736	275,820327	311,037148	0
15.01.2021	13:31:21	0	82,517878	3,865504	1,485	356,562	1,163	86,03	0	1015,44	8,6	10,1	9,7	1	1	1	1	1	1	1	1	1	0	1	-14,517266	275,786107	313,48179	0
15.01.2021	13:31:22	0	81,931773	2,842266	1,50825	349,4556	1,166	86,039	0	1015,36	8,6	10,1	9,8	1	1	1	1	1	1	1	1	1	0	1	-17,970402	275,790992	310,051894	0
15.01.2021	13:31:23	0	82,283371	4,320245	1,542	340,9524	1,161	86,034	0	1015,36	8,6	10,1	9,8	1	1	1	1	1	1	1	1	1	0	1	-19,520789	275,784478	308,470521	0
15.01.2021	13:31:24	0	81,931119	2,842267	1,5885	344,8476	1,161	86,026	0	1015,34	8,6	10	9,8	1	1	1	1	1	1	1	1	1	0	1	-19,450317	275,7617	308,432645	0
15.01.2021	13:31:25	0	82,28329	4,206556	1,64025	339,1488	1,162	86,029	0	1015,34	8,6	10,1	9,8	1	1	1	1	1	1	1	1	1	0	1	-17,477097	275,794249	310,560696	0
15.01.2021	13:31:26	0	81,8144	2,728578	1,65375	351,1332	1,161	86,016	0	1015,4	8,6	10,1	9,8	1	1	1	1	1	1	1	1	1	0	1	-19,309373	275,635278	307,972733	0
15.01.2021	13:31:27	0	82,165997	3,297032	1,61625	348,0408	1,167	86,027	0	1015,34	8,6	10,1	9,8	1	1	1	1	1	1	1	1	1	0	1	-12,191684	275,691904	315,359451	0
15.01.2021	13:31:28	0	82,517594	4,661323	1,62375	359,0352	1,164	86,024	0	1015,26	8,5	10,1	9,8	1	1	1	1	1	1	1	1	1	0	1	-16,701903	275,648206	310,641612	0
15.01.2021	13:31:29	0	82,517553	3,865488	1,659	352,9188	1,159	86,044	0	1015,34	8,6	10,1	9,8	1	1	1	1	1	1	1	1	1	0	1	-20,648344	275,815435	307,490258	0
15.01.2021	13:31:30	0	82,165875	3,751798	1,76175	0,846	1,162	86,048	0	1015,36	8,6	10,1	9,8	1	1	1	1	1	1	1	1	1	0	1	-13,248767	275,690284	314,294669	0
15.01.2021	13:31:31	0	81,814198	3,979181	1,88475	355,95	1,165	86,039	0	1015,36	8,7	10,1	9,8	1	1	1	1	1	1	1	1	1	0	1	-22,621564	275,805654	305,470493	0
15.01.2021	13:31:32	0	82,283007	2,842273	1,94625	6,1272	1,16	86,037	0	1015,2	8,7	10,1	9,8	1	1	1	1	1	1	1	1	1	0	1	-21,775899	275,674089	305,690582	0
15.01.2021	13:31:33	0	81,813544	3,63811	1,86975	358,7652	1,179	86,053	0	1015,56	8,6	10	9,8	1	1	1	1	1	1	1	1	1	0	1	-15,715292	275,805654	312,376765	0
15.01.2021	13:31:34	0	81,931289	2,955965	1,71675	360	1,17	86,06	0	1015,42	8,6	10,1	9,8	1	1	1	1	1	1	1	1	1	0	1	-17,829457	275,743821	309,968481	0
15.01.2021	13:31:35	0	82,400097	3,524442	1,6635	337,9824	1,169	86,054	0	1015,38	8,7	10,1	9,7	1	1	1	1	1	1	1	1	1	0	1	-14,940099	275,795878	313,105444	0
15.01.2021	13:31:36	0	82,400056	4,320258	1,72425	350,6292	1,167	86,049	0	1015,38	8,6	10,1	9,8	1	1	1	1	1	1	1	1	1	0	1	-19,87315	275,815435	308,265451	0
15.01.2021	13:31:37	0	82,400016	5,002406	1,6755	360	1,164	86,051	0	1015,36	8,6	10,1	9,8	1	1	1	1	1	1	1	1	1	0	1	-16,842847	275,635278	310,439259	0
15.01.2021	13:31:38	0	82,282763	3,638114	1,5885	337,896	1,159	86,045	0	1015,32	8,6	10,1	9,8	1	1	1	1	1	1	1	1	1	0	1	-13,107822	275,738948	314,666944	0
15.01.2021	13:31:39	0	81,813875	3,979188	1,5885	355,824	1,165	86,06	0	1015,44	8,6	10,1	9,8	1	1	1	1	1	1	1	1	1	0	1	-24,171952	275,800765	303,896845	0
15.01.2021	13:31:40	0	82,048258	4,433954	1,4865	349,9488	1,171	86,061	0	1015,3	8,6	10,1	9,8	1	1	1	1	1	1	1	1	1	0	1	-20,295983	275,760074	307,579246	0
15.01.2021	13:31:41	0	81,931006	3,638117	1,52625	346,1148	1,168	86,066	0	1015,38	8,6	10,1	9,8	1	1	1	1	1	1	1	1	1	0	1	-16,631431	275,812174	311,491653	0
15.01.2021	13:31:42	0	82,516446	4,661338	1,6365	348,8796	1,165	86,068	0	1015,38	8,6	10	9,8	1	1	1	1	1	1	1	1	1	0	1	-23,819591	275,77634	304,133006	0
15.01.2021	13:31:43	0	81,696501	2,84228	1,67025	347,5656	1,162	86,051	0	1015,38	8,6	10,1	9,8	1	1	1	1	1	1	1	1	1	0	1	-17,89993	275,635278	309,382176	0
15.01.2021	13:31:44	0	82,164732	2,842281	1,746	340,1748	1,167	86,068	0	1015,3	8,6	10	9,8	1	1	1	1	1	1	1	1	1	0	1	-21,705426	275,751946	306,131148	0
15.01.2021	13:31:45	0	82,282478	4,888724	1,8675	349,866	1,168	86,068	0	1015,28	8,5	10,1	9,8	1	1	1	1	1	1	1	1	1	0	1	-16,701903	275,823589	311,475507	0
15.01.2021	13:31:46	0	82,399649	3,183356	1,96125	341,172	1,167	86,047	0	1015,36	8,7	10,1	9,8	1	1	1	1	1	1	1	1	1	0	1	-17,547569	275,680565	309,949685	0
15.01.2021	13:31:47	0	82,282397	2,501209	1,92	339,1092	1,166	86,053	0	1015,34	8,6	10,1	9,8	1	1	1	1	1	1	1	1	1	0	1	-17,688513	275,638509	309,60894	0
15.01.2021	13:31:48	0	82,282356	3,865506	1,78575	339,7896	1,167	86,064	0	1015,34	8,5	10,1	9,8	1	1	1	1	1	1	1	1	1	0	1	-21,634954	275,748696	306,186163	0
15.01.2021	13:31:49	0	81,930681	2,728593	1,71975	341,3448	1,167	86,067	0	1015,5	8,6	10,1	9,8	1	1	1	1	1	1	1	1	1	0	1	-18,816068	275,640125	308,489061	0
15.01.2021	13:31:50	0	82,281698	2,614902	1,71975	337,9284	1,162	86,059	0	1015,24	8,6	10	9,8	1	1	1	1	1	1	1	1	1	0	1	-18,604651	275,771459	309,324727	0
15.01.2021	13:31:51	0	82,399445	2,728594	1,75275	356,1372	1,162	86,077	0	1015,28	8,6	10,1	9,8	1	1	1	1	1	1	1	1	1	0	1	-19,943622	275,659526	307,453666	0
15.01.2021	13:31:52	0	81,813348	3,751818	1,827	349,8516	1,169	86,047	0	1015,32	8,6	10,1	9,8	1	1	1	1	1	1	1	1	1	0	1	-20,014094	275,753571	307,830209	0
15.01.2021	13:31:53	0	81,930519	2,842287	1,809	354,2976	1,164	86,068	0	1015,34	8,6	10,1	9,8	1	1	1	1	1	1	1	1	1	0	1	-19,943622	275,638509	307,353831	0
15.01.2021	13:31:54	0	81,930478	2,728596	1,83075	346,104	1,165	86,062	0	1015,36	8,6	10,1	9,8	1	1	1	1	1	1	1	1	1	0	1	-17,195208	275,794249	310,842585	0
15.01.2021	13:31:55	0	82,516492	4,888736	1,80075	344,0952	1,164	86,063	0	1015,18	8,6	10,1	9,8	1	1	1	1	1	1	1	1	1	0	1	-20,718816	275,7617	307,164146	0
15.01.2021	13:31:56	0	82,164818	4,433971	1,75125	358,7364	1,173	86,076	0	1015,4	8,6	10,1	9,8	1	1	1	1	1	1	1	1	1	0	1	-15,574348	275,817066	312,572013	0
15.01.2021	13:31:57	0	81,930356	2,728598	1,74525	356,94	1,167	86,068	0	1015,48	8,6	10,1	9,8	1	1	1	1	1	1	1	1	1	0	1	-14,305849	275,773086	313,631268	0
15.01.2021	13:31:58	0	82,164737	4,547665	1,7445	341,2836	1,165	86,053	0	1015,36	8,5	10,1	9,8	1	1	1	1	1	1	1	1	1	0	1	-21,49401	275,830116	306,71446	0
15.01.2021	13:31:59	0	82,399117	4,206591	1,69425	357,1452	1,165	86,056	0	1015,26	8,6	10,1	9,8	1	1	1	1	1	1	1	1	1	0	1	-19,802678	275,730829	307,933485	0
15.01.2021	13:32:00	0	81,930193	2,728601	1,704	357,2712	1,173	86,053	0	1015,3	8,6	10,1	9,8	1	1	1	1	1	1	1	1	1	0	1	-22,692037	275,635278	304,590069	0
15.01.2021	13:32:01	0	81,930193	2,728601	1,704	357,2712	1,173	86,053	0	1015,3	8,6	10,1	9,8	1	1	1	1	1	1	1	1	1	0	1	-22,48062	275,683804	305,032024	0
15.01.2021	13:32:02	0	81,812941	2,728601	1,7445	5,22	1,163	86,06	0	1015,28	8,6	10,1	9,8	1	1	1	1	1	1	1	1	1	0	1	-18,322763	275,632047	308,943999	0
15.01.2021	13:32:03	0	81,930111	2,61491	1,743	12,8376	1,167	86,058	0	1015,22	8,6	10,1	9,8	1	1	1	1	1	1	1	1	1	0	1	-21,423538	275,708113	306,204638	0
15.01.2021	13:32:04	0	82,047281	4,320288	1,6935	360	1,164	86,047	0	1015,44	8,7	10,1	9,8	1	1	1	1	1	1	1	1	1	0	1	-16,349542	275,662761	311,063117	0
15.01.2021	13:32:05	0	82,398871	4,206597	1,67025	360	1,168	86,05	0	1015,38	8,6	10,1	9,8	1	1	1	1	1	1	1	1	1	0	1	-14,164905	275,674089	313,301576	0
15.01.2021	13:32:06	0	82,164409	3,183371	1,66875	358,7004	1,161	86,033	0	1015,26	8,6	10,1	9,8	1	1	1	1	1	1	1	1	1	0	1	-18,816068	275,77634	309,136529	0
15.01.2021	13:32:07	0	82,281579	4,206599	1,677	2,628	1,168	86,025	0	1015,28	8,6	10,1	9,8	1	1	1	1	1	1	1	1	1	0	1	-17,829457	275,795878	310,216085	0
15.01.2021	13:32:08	0	82,39817	4,661367	1,6395	353,6568	1,163	86,015	0	1015,4	8,6	10	9,8	1	1	1	1	1	1	1	1	1	0	1	-21,000705	275,729206	306,72774	0
15.01.2021	13:32:09	0	82,047076	3,297066	1,62375	358,4412	1,164	86,029	0	1015,4	8,7	10,1	9,8	1	1	1	1	1	1	1	1	1	0	1	-21,634954	275,808914	306,472615	0
15.01.2021	13:32:10	0	82,398665	3,979218	1,584	352,836	1,167	86,018	0	1015,34	8,6	10,1	9,8	1	1	1	1	1	1	1	1	1	0	1	-23,608175	275,750321	304,22067	0
15.01.2021	13:32:11	0	82,163629	3,297067	1,563	346,5144	1,161	85,999	0	1015,32	8,6	10	9,8	1	1	1	1	1	1	1	1	1	0	1	-21,49401	275,65144	305,864865	0
15.01.2021	13:32:12	0	81,81196	2,614916	1,56525	353,3076	1,159	86,003	0	1015,3	8,6	10	9,8	1	1	1	1	1	1	1	1	1	0	1	-19,520789	275,815435	308,617812	0
15.01.2021	13:32:13	0	82,397965	3,297069	1,563	345,7584	1,163	85,983	0	1015,3	8,7	10	9,8	1	1	1	1	1	1	1	1	1	0	1	-22,410148	275,740572	305,372342	0
15.01.2021	13:32:14	0	81,812452	2,842301	1,55475	355,3848	1,166	86,015	0	1015,4	8,6	10,1	9,8	1	1	1	1	1	1	1	1	1	0	1	-15,715292	275,636893	311,574487	0
15.01.2021	13:32:15	0	82,280673	2,842302	1,56975	356,58	1,164	86,01	0	1015,42	8,6	10	9,8	1	1	1	1	1	1	1	1	1	0	1	-17,829457	275,670852	309,621642	0
15.01.2021	13:32:16	0	82,163999	2,955995	1,55025	356,1804	1,171	86,049	0	1015,4	8,7	10,1	9,8	1	1	1	1	1	1	1	1	1	0	1	-15,292459	275,693524	312,266376	0
15.01.2021	13:32:17	0	82,046748	3,751863	1,599	358,4088	1,169	85,978	0	1015,2	8,6	10,1	9,7	1	1	1	1	1	1	1	1	1	0	1	-16,138125	275,635278	311,14398	0
15.01.2021	13:32:18	0	82,281126	3,865533	1,59225	356,5044	1,164	86,014	0	1015,36	8,6	10,1	9,8	1	1	1	1	1	1	1	1	1	0	1	-17,336152	275,627202	309,907598	0
15.01.2021	13:32:19	0	82,398295	4,206611	1,60425	360	1,165	86,007	0	1015,36	8,6	10,1	9,8	1	1	1	1	1	1	1	1	1	0	1	-16,420014	275,760074	311,455215	0
15.01.2021	13:32:20	0	81,929416	2,160152	1,58025	0	1,159	85,993	0	1015,34	8,7	10,1	9,8	1	1	1	1	1	1	1	1	1	0	1	-19,87315	275,810544	308,242176	0
15.01.2021	13:32:21	0	82,515422	4,54769	1,57575	353,1708	1,166	86,006	0	1015,34	8,6	10,1	9,8	1	1	1	1	1	1	1	1	1	0	1	-18,25229	275,659526	309,144998	0
15.01.2021	13:32:22	0	82,397594	3,751845	1,59075	358,7328	1,168	86,001	0	1015,36	8,6	10	9,8	1	1	1	1	1	1	1	1	1	0	1	-18,816068	275,815435	309,322534	0
15.01.2021	13:32:23	0	82,046502	2,273846	1,60425	360	1,164	85,979	0	1015,44	8,5	10,1	9,8	1	1	1	1	1	1	1	1	1	0	1	-18,604651	275,880768	309,844968	0
15.01.2021	13:32:24	0	82,515298	4,320308	1,6155	353,5632	1,163	85,991	0	1015,26	8,6	10,1	9,8	1	1	1	1	1	1	1	1	1	0	1	-19,309373	275,804024	308,774931	0
15.01.2021	13:32:25	0	82,163629	3,638155	1,64325	358,6824	1,162	85,988	0	1015,32	8,6	10,1	9,8	1	1	1	1	1	1	1	1	1	0	1	-18,322763	275,643357	308,997718	0
15.01.2021	13:32:26	0	82,515215	5,22985	1,632	354,2328	1,165	86,009	0	1015,38	8,7	10,1	9,8	1	1	1	1	1	1	1	1	1	0	1	-14,164905	275,747071	313,648486	0
15.01.2021	13:32:27	0	82,280755	4,661389	1,64175	357,2136	1,165	85,999	0	1015,4	8,5	10,1	9,8	1	1	1	1	1	1	1	1	1	0	1	-18,322763	275,669234	309,120647	0
15.01.2021	13:32:28	0	81,929087	4,547697	1,6635	349,4304	1,159	86,003	0	1015,26	8,5	10,1	9,8	1	1	1	1	1	1	1	1	1	0	1	-18,393235	275,604606	308,743223	0
15.01.2021	13:32:29	0	82,397882	3,865544	1,665	358,722	1,164	86,01	0	1015,4	8,6	10,1	9,8	1	1	1	1	1	1	1	1	1	0	1	-17,26568	275,682185	310,239269	0
15.01.2021	13:32:30	0	82,280631	4,434007	1,68075	355,0356	1,161	86,011	0	1015,28	8,6	10,1	9,8	1	1	1	1	1	1	1	1	1	0	1	-20,225511	275,813804	307,905331	0
15.01.2021	13:32:31	0	82,28059	3,297083	1,73775	352,4328	1,163	86,013	0	1015,28	8,7	10,1	9,8	1	1	1	1	1	1	1	1	1	0	1	-22,269204	275,802395	305,807346	0
15.01.2021	13:32:32	0	82,280549	3,524469	1,7835	354,69	1,17	86,019	0	1015,34	8,7	10,1	9,8	1	1	1	1	1	1	1	1	1	0	1	-13,530655	275,698386	314,051287	0
15.01.2021	13:32:33	0	82,514925	4,661396	1,77075	344,3616	1,163	86,018	0	1015,36	8,7	10,1	9,8	1	1	1	1	1	1	1	1	1	0	1	-19,802678	275,625587	307,433404	0
15.01.2021	13:32:34	0	82,163257	3,524471	1,8075	359,5788	1,164	86,031	0	1015,42	8,6	10,1	9,8	1	1	1	1	1	1	1	1	1	0	1	-17,336152	275,703249	310,268903	0
15.01.2021	13:32:35	0	82,046007	3,410779	1,767	358,0272	1,163	86,023	0	1015,4	8,7	10,1	9,8	1	1	1	1	1	1	1	1	1	0	1	-18,957012	275,812174	309,166072	0
15.01.2021	13:32:36	0	82,63143	4,661399	1,6965	356,238	1,17	86,022	0	1015,38	8,7	10	9,8	1	1	1	1	1	1	1	1	1	0	1	-19,732206	275,674089	307,734275	0
15.01.2021	13:32:37	0	82,514181	5,002478	1,65	358,0452	1,164	86,041	0	1015,48	8,7	10	9,8	1	1	1	1	1	1	1	1	1	0	1	-22,057787	275,717845	305,61665	0
15.01.2021	13:32:38	0	82,045309	2,614932	1,65075	350,9892	1,163	86,029	0	1015,44	8,6	10	9,8	1	1	1	1	1	1	1	1	1	0	1	-21,49401	275,640125	305,811119	0
15.01.2021	13:32:39	0	82,16305	4,775095	1,6635	358,7256	1,161	86,033	0	1015,4	8,5	10,1	9,8	1	1	1	1	1	1	1	1	1	0	1	-23,890063	275,755197	303,96197	0
15.01.2021	13:32:40	0	82,396848	4,206632	1,59225	2,3148	1,166	86,019	0	1015,28	8,6	10	9,8	1	1	1	1	1	1	1	1	1	0	1	-19,450317	275,630432	307,808773	0
15.01.2021	13:32:41	0	82,514592	4,092941	1,58175	358,4448	1,171	86,026	0	1015,38	8,7	10,1	9,8	1	1	1	1	1	1	1	1	1	0	1	-22,621564	275,719468	305,060586	0
15.01.2021	13:32:42	0	82,514551	3,297092	1,55325	357,6924	1,162	86,029	0	1015,38	8,6	10,1	9,8	1	1	1	1	1	1	1	1	1	0	1	-21,000705	275,614287	306,181717	0
15.01.2021	13:32:43	0	82,514509	4,775128	1,563	354,3336	1,164	86,037	0	1015,3	8,5	10,1	9,7	1	1	1	1	1	1	1	1	1	0	1	-15,221987	275,654674	312,15225	0
15.01.2021	13:32:44	0	82,279475	2,728629	1,52625	354,3588	1,165	86,03	0	1015,42	8,5	10	9,8	1	1	1	1	1	1	1	1	1	0	1	-19,943622	275,619129	307,261792	0
15.01.2021	13:32:45	0	82,162226	3,297094	1,5345	354,6576	1,165	86,043	0	1015,44	8,7	10	9,8	1	1	1	1	1	1	1	1	1	0	1	-20,084567	275,677327	307,397299	0
15.01.2021	13:32:46	0	82,631592	3,86556	1,5375	355,068	1,166	86,045	0	1015,38	8,6	10,1	9,8	1	1	1	1	1	1	1	1	1	0	1	-16,208598	275,820327	311,953286	0
15.01.2021	13:32:47	0	82,279927	3,183403	1,54425	354,9888	1,165	86,042	0	1015,46	8,6	10,1	9,8	1	1	1	1	1	1	1	1	1	0	1	-17,970402	275,669234	309,473008	0
15.01.2021	13:32:48	0	82,514301	4,434027	1,5075	356,9616	1,163	86,033	0	1015,34	8,7	10,1	9,8	1	1	1	1	1	1	1	1	1	0	1	-22,762509	275,672471	304,696281	0
15.01.2021	13:32:49	0	82,279844	3,069712	1,44225	352,8072	1,171	86,045	0	1015,42	8,6	10,1	9,8	1	1	1	1	1	1	1	1	1	0	1	-16,983791	275,633662	310,290642	0
15.01.2021	13:32:50	0	82,279802	4,206643	1,40025	352,4868	1,173	86,049	0	1015,4	8,7	10,1	9,8	1	1	1	1	1	1	1	1	1	0	1	-17,477097	275,685424	310,043245	0
15.01.2021	13:32:51	0	82,865799	4,661416	1,38525	357,6132	1,187	86,065	0	1015,5	8,7	10,1	9,8	1	1	1	1	1	1	1	1	1	0	1	-21,353066	275,786107	306,64599	0
15.01.2021	13:32:52	0	82,514134	2,728651	1,362	347,1588	1,166	86,049	0	1015,2	8,7	10,1	9,7	1	1	1	1	1	1	1	1	1	0	1	-16,067653	275,766579	311,838513	0
15.01.2021	13:32:53	0	82,748507	4,320339	1,30875	347,616	1,164	86,045	0	1015,26	8,6	10,1	9,8	1	1	1	1	1	1	1	1	1	0	1	-19,168428	275,790992	308,853867	0
15.01.2021	13:32:54	0	82,279636	3,297102	1,3035	358,4232	1,166	86,053	0	1015,42	8,7	10,1	9,8	1	1	1	1	1	1	1	1	1	0	1	-19,097956	275,812174	309,025128	0
15.01.2021	13:32:55	0	82,279594	3,524489	1,3095	349,8948	1,164	86,056	0	1015,28	8,7	10,1	9,8	1	1	1	1	1	1	1	1	1	0	1	-17,406624	275,657908	309,982979	0
15.01.2021	13:32:56	0	82,39676	4,434035	1,2615	347,544	1,169	86,06	0	1015,48	8,7	10,1	9,8	1	1	1	1	1	1	1	1	1	0	1	-19,520789	275,635278	307,761317	0
15.01.2021	13:32:57	0	82,279511	3,183411	1,23075	353,322	1,169	86,046	0	1015,3	8,7	10,1	9,8	1	1	1	1	1	1	1	1	1	0	1	-18,88654	275,656291	308,495381	0
15.01.2021	13:32:58	0	82,513305	3,069718	1,17525	343,4724	1,173	86,065	0	1015,3	8,6	10	9,8	1	1	1	1	1	1	1	1	1	0	1	-22,057787	275,640125	305,247341	0
15.01.2021	13:32:59	0	82,513263	2,387559	1,1745	339,4692	1,172	86,072	0	1015,34	8,6	10	9,8	1	1	1	1	1	1	1	1	1	0	1	-17,688513	275,654674	309,685725	0
15.01.2021	13:33:00	0	82,396551	3,638209	1,1535	1,6128	1,172	86,063	0	1015,14	8,6	10,1	9,7	1	1	1	1	1	1	1	1	1	0	1	-22,198732	275,675708	305,275441	0
15.01.2021	13:33:01	0	82,396551	3,638209	1,1535	1,6128	1,172	86,063	0	1015,14	8,6	10,1	9,7	1	1	1	1	1	1	1	1	1	0	1	-18,604651	275,821958	309,564995	0
15.01.2021	13:33:02	0	82,982544	4,661429	1,12725	351,3708	1,17	86,079	0	1015,38	8,7	10,1	9,8	1	1	1	1	1	1	1	1	1	0	1	-22,410148	275,779595	305,557932	0
15.01.2021	13:33:03	0	82,396467	3,297109	1,113	360	1,171	86,09	0	1015,38	8,6	10,1	9,8	1	1	1	1	1	1	1	1	1	0	1	-13,248767	275,808914	314,858803	0
15.01.2021	13:33:04	0	82,630839	4,775124	1,089	357,6384	1,175	86,084	0	1015,46	8,7	10,1	9,8	1	1	1	1	1	1	1	1	1	0	1	-22,198732	275,818696	305,955391	0
15.01.2021	13:33:05	0	82,2786	4,547739	1,07175	354,2616	1,169	86,067	0	1015,32	8,6	10	9,8	1	1	1	1	1	1	1	1	1	0	1	-16,631431	275,805654	311,460627	0
15.01.2021	13:33:06	0	82,630755	2,842337	1,10475	353,1888	1,169	86,088	0	1015,18	8,6	10,1	9,8	1	1	1	1	1	1	1	1	1	0	1	-21,000705	275,682185	306,504244	0
15.01.2021	13:33:07	0	82,865126	5,116208	1,17075	353,5992	1,162	86,089	0	1015,24	8,7	10,1	9,8	1	1	1	1	1	1	1	1	1	0	1	-16,701903	275,685424	310,818438	0
15.01.2021	13:33:08	0	82,513464	3,069726	1,25325	3,0168	1,174	86,082	0	1015,4	8,6	10,1	9,8	1	1	1	1	1	1	1	1	1	0	1	-21,987315	275,64659	305,348521	0
15.01.2021	13:33:09	0	82,747836	4,434049	1,3305	355,4532	1,169	86,08	0	1015,26	8,6	10,1	9,8	1	1	1	1	1	1	1	1	1	0	1	-21,141649	275,766579	306,764518	0
15.01.2021	13:33:10	0	82,630008	3,524502	1,32675	348,3036	1,175	86,082	0	1015,22	8,5	10	9,8	1	1	1	1	1	1	1	1	1	0	1	-19,87315	275,821958	308,296496	0
15.01.2021	13:33:11	0	82,513339	4,320358	1,31925	355,7664	1,178	86,093	0	1015,28	8,6	10,1	9,8	1	1	1	1	1	1	1	1	1	0	1	-20,5074	275,640125	306,797729	0
15.01.2021	13:33:12	0	82,74713	4,434053	1,2795	352,206	1,175	86,097	0	1015,2	8,7	10	9,8	1	1	1	1	1	1	1	1	1	0	1	-21,705426	275,795878	306,340116	0
15.01.2021	13:33:13	0	82,16106	3,297117	1,245	0	1,171	86,095	0	1015,22	8,7	10	9,8	1	1	1	1	1	1	1	1	1	0	1	-19,661734	275,787735	308,345068	0
15.01.2021	13:33:14	0	82,864831	4,661442	1,263	8,2368	1,171	86,104	0	1015,3	8,6	10,1	9,8	1	1	1	1	1	1	1	1	1	0	1	-21,987315	275,797507	306,065978	0
15.01.2021	13:33:15	0	82,395387	3,979281	1,236	7,866	1,173	86,104	0	1015,36	8,6	10	9,8	1	1	1	1	1	1	1	1	1	0	1	-19,732206	275,659526	307,665082	0
15.01.2021	13:33:16	0	82,51255	3,638201	1,2885	0	1,175	86,105	0	1015,52	8,7	10	9,8	1	1	1	1	1	1	1	1	1	0	1	-18,675123	275,825221	309,51005	0
15.01.2021	13:33:17	0	82,629714	4,547779	1,3395	353,9304	1,182	86,119	0	1015,4	8,7	10	9,7	1	1	1	1	1	1	1	1	1	0	1	-17,618041	275,768205	310,295862	0
15.01.2021	13:33:18	0	82,981868	4,547753	1,34325	350,658	1,18	86,107	0	1015,34	8,6	10,1	9,8	1	1	1	1	1	1	1	1	1	0	1	-17,970402	275,812174	310,152682	0
15.01.2021	13:33:19	0	82,747414	3,410816	1,368	347,2236	1,18	86,107	0	1015,36	8,7	10,1	9,8	1	1	1	1	1	1	1	1	1	0	1	-18,88654	275,687044	308,641499	0
15.01.2021	13:33:20	0	82,51296	2,956041	1,332	347,9436	1,18	86,107	0	1015,22	8,5	10,1	9,8	1	1	1	1	1	1	1	1	1	0	1	-21,705426	275,653057	305,661129	0
15.01.2021	13:33:21	0	82,74733	3,638205	1,3245	352,7712	1,179	86,106	0	1015,32	8,6	10,1	9,8	1	1	1	1	1	1	1	1	1	0	1	-19,450317	275,79262	308,579727	0
15.01.2021	13:33:22	0	82,630082	3,069736	1,28625	352,1664	1,179	86,083	0	1015,34	8,7	10,1	9,8	1	1	1	1	1	1	1	1	1	0	1	-18,040874	275,820327	310,12101	0
15.01.2021	13:33:23	0	82,746666	4,320371	1,19925	352,4616	1,178	86,096	0	1015,32	8,6	10	9,8	1	1	1	1	1	1	1	1	1	0	1	-19,87315	275,644973	307,455008	0
15.01.2021	13:33:24	0	82,863828	5,002536	1,13325	349,974	1,18	86,079	0	1015,32	8,7	10	9,8	1	1	1	1	1	1	1	1	1	0	1	-17,970402	275,745446	309,835262	0
15.01.2021	13:33:25	0	82,747161	3,183433	1,146	347,9904	1,178	86,101	0	1015,44	8,5	10,1	9,8	1	1	1	1	1	1	1	1	1	0	1	-20,5074	275,836644	307,732144	0
15.01.2021	13:33:26	0	82,863743	3,297128	1,23975	0	1,182	86,109	0	1015,34	8,7	10	9,8	1	1	1	1	1	1	1	1	1	0	1	-16,27907	275,400829	309,890944	0
15.01.2021	13:33:27	0	82,746496	4,206681	1,3245	355,3812	1,183	86,097	0	1015,3	8,7	10	9,8	1	1	1	1	1	1	1	1	1	0	1	-16,842847	275,661143	310,562126	0
15.01.2021	13:33:28	0	82,863659	2,842353	1,4535	0,846	1,183	86,1	0	1015,34	8,6	10	9,8	1	1	1	1	1	1	1	1	1	0	1	-15,785765	275,690284	311,757671	0
15.01.2021	13:33:29	0	82,512581	3,069742	1,56825	8,2548	1,184	86,11	0	1015,42	8,6	10,1	9,8	1	1	1	1	1	1	1	1	1	0	1	-22,128259	275,804024	305,956044	0
15.01.2021	13:33:30	0	82,394756	2,842354	1,635	359,0784	1,186	86,108	0	1015,36	8,6	10	9,8	1	1	1	1	1	1	1	1	1	0	1	-17,688513	275,640125	309,616615	0
15.01.2021	13:33:31	0	82,746907	4,547768	1,65075	3,0132	1,186	86,096	0	1015,26	8,7	10,1	9,8	1	1	1	1	1	1	1	1	1	0	1	-17,336152	275,77634	310,616445	0
15.01.2021	13:33:32	0	82,746864	4,434075	1,58025	346,446	1,186	86,103	0	1015,34	8,6	10,1	9,8	1	1	1	1	1	1	1	1	1	0	1	-19,450317	275,812174	308,672767	0
15.01.2021	13:33:33	0	82,746242	4,661464	1,57425	347,598	1,184	86,098	0	1015,38	8,7	10	9,8	1	1	1	1	1	1	1	1	1	0	1	-21,49401	275,835012	306,737764	0
15.01.2021	13:33:34	0	82,98119	3,638217	1,57875	351,3888	1,184	86,095	0	1015,46	8,7	10,1	9,8	1	1	1	1	1	1	1	1	1	0	1	-17,547569	275,687044	309,98047	0
15.01.2021	13:33:35	0	82,629532	3,410829	1,641	2,6316	1,183	86,116	0	1015,4	8,7	10,1	9,8	1	1	1	1	1	1	1	1	1	0	1	-23,396758	275,807284	304,703055	0
15.01.2021	13:33:36	0	82,863319	2,842358	1,662	11,1636	1,181	86,112	0	1015,24	8,5	10	9,8	1	1	1	1	1	1	1	1	1	0	1	-17,688513	275,747071	310,124877	0
15.01.2021	13:33:37	0	82,512242	3,410851	1,7145	5,202	1,187	86,116	0	1015,36	8,7	10,1	9,7	1	1	1	1	1	1	1	1	1	0	1	-21,564482	275,839909	306,690603	0
15.01.2021	13:33:38	0	82,981019	2,614971	1,76625	10,0512	1,188	86,123	0	1015,34	8,6	10,1	9,8	1	1	1	1	1	1	1	1	1	0	1	-16,138125	275,669234	311,305284	0
15.01.2021	13:33:39	0	83,215386	4,206694	1,73025	6,066	1,192	86,124	0	1015,48	8,6	10,1	9,8	1	1	1	1	1	1	1	1	1	0	1	-15,221987	275,756822	312,637777	0
15.01.2021	13:33:40	0	82,511537	3,06975	1,695	12,096	1,185	86,118	0	1015,3	8,7	10	9,8	1	1	1	1	1	1	1	1	1	0	1	-19,027484	275,633662	308,246949	0
15.01.2021	13:33:41	0	82,980892	3,751918	1,686	4,0788	1,187	86,129	0	1015,4	8,7	10,1	9,8	1	1	1	1	1	1	1	1	1	0	1	-19,591261	275,729206	308,137183	0
15.01.2021	13:33:42	0	82,628656	3,069752	1,6815	12,0996	1,192	86,122	0	1015,44	8,6	10	9,8	1	1	1	1	1	1	1	1	1	0	1	-20,648344	275,810544	307,466982	0
15.01.2021	13:33:43	0	82,746397	3,183447	1,70475	16,0992	1,192	86,124	0	1015,4	8,7	10,1	9,8	1	1	1	1	1	1	1	1	1	0	1	-18,816068	275,653057	308,550488	0
15.01.2021	13:33:44	0	82,980182	3,410837	1,674	9,7416	1,191	86,12	0	1015,34	8,6	10	9,8	1	1	1	1	1	1	1	1	1	0	1	-17,829457	275,771459	310,099921	0
15.01.2021	13:33:45	0	82,863517	2,72867	1,623	11,7036	1,191	86,11	0	1015,32	8,6	10,1	9,8	1	1	1	1	1	1	1	1	1	0	1	-21,564482	275,659526	305,832806	0
15.01.2021	13:33:46	0	83,214504	3,410839	1,536	12,0816	1,188	86,095	0	1015,24	8,5	10	9,8	1	1	1	1	1	1	1	1	1	0	1	-19,802678	275,753571	308,041625	0
15.01.2021	13:33:47	0	82,980636	4,434091	1,443	2,6316	1,191	86,103	0	1015,42	8,5	10,1	9,8	1	1	1	1	1	1	1	1	1	0	1	-14,728682	275,654674	312,645555	0
15.01.2021	13:33:48	0	82,862808	3,63823	1,3485	16,0956	1,188	86,088	0	1015,28	8,6	10	9,8	1	1	1	1	1	1	1	1	1	0	1	-18,040874	275,773086	309,896243	0
15.01.2021	13:33:49	0	82,863346	3,979315	1,2315	25,4088	1,198	86,074	0	1015,38	8,7	10,1	9,8	1	1	1	1	1	1	1	1	1	0	1	-17,406624	275,807284	310,693189	0
15.01.2021	13:33:50	0	83,33212	3,865621	1,2705	353,232	1,184	86,053	0	1015,32	8,7	10,1	9,8	1	1	1	1	1	1	1	1	1	0	1	-15,574348	275,693524	311,984488	0
15.01.2021	13:33:51	0	82,746057	2,273895	1,299	1,9296	1,186	86,058	0	1015,42	8,6	10,1	9,8	1	1	1	1	1	1	1	1	1	0	1	-15,292459	275,745446	312,513205	0
15.01.2021	13:33:52	0	83,449238	4,093012	1,239	15,1308	1,197	86,049	0	1015,52	8,7	10,1	9,8	1	1	1	1	1	1	1	1	1	0	1	-16,983791	275,756822	310,875973	0
15.01.2021	13:33:53	0	82,980379	4,206708	1,34175	7,5024	1,19	86,039	0	1015,32	8,6	10,1	9,8	1	1	1	1	1	1	1	1	1	0	1	-20,577872	275,653057	306,788684	0
15.01.2021	13:33:54	0	83,331948	4,775183	1,4835	12,8448	1,189	86,015	0	1015,3	8,5	10,1	9,8	1	1	1	1	1	1	1	1	1	0	1	-22,128259	275,779595	305,839821	0
15.01.2021	13:33:55	0	82,86309	3,979321	1,53675	17,7012	1,195	86,025	0	1015,38	8,6	10,1	9,8	1	1	1	1	1	1	1	1	1	0	1	-21,916843	275,7617	305,966119	0
15.01.2021	13:33:56	0	83,214658	3,751932	1,6125	21,3948	1,198	86,041	0	1015,28	8,6	10,1	9,8	1	1	1	1	1	1	1	1	1	0	1	-15,574348	275,661143	311,830625	0
15.01.2021	13:33:57	0	82,980208	3,410848	1,71	17,2476	1,199	86,01	0	1015,3	8,6	10,1	9,8	1	1	1	1	1	1	1	1	1	0	1	-14,799154	275,77634	313,153443	0
15.01.2021	13:33:58	0	83,331192	4,661493	1,81125	13,9032	1,194	86,003	0	1015,36	8,6	10	9,8	1	1	1	1	1	1	1	1	1	0	1	-16,138125	275,691904	311,41301	0
15.01.2021	13:33:59	0	82,862919	4,09302	1,91775	12,1032	1,189	85,98	0	1015,18	8,7	10,1	9,8	1	1	1	1	1	1	1	1	1	0	1	-18,957012	275,77634	308,995585	0
15.01.2021	13:34:00	0	82,980037	2,728681	1,88325	7,4952	1,197	85,963	0	1015,34	8,6	10,1	9,8	1	1	1	1	1	1	1	1	1	0	1	-16,490486	275,779595	311,477594	0
15.01.2021	13:34:01	0	82,980037	2,728681	1,88325	7,4952	1,197	85,963	0	1015,34	8,6	10,1	9,8	1	1	1	1	1	1	1	1	1	0	1	-16,490486	275,779595	311,477594	0
15.01.2021	13:34:02	0	82,745007	2,501292	1,84425	356,2344	1,197	85,981	0	1015,3	8,6	10	9,8	1	1	1	1	1	1	1	1	1	0	1	-16,983791	275,813804	311,147051	0
15.01.2021	13:34:03	0	83,331561	4,093024	1,8285	8,9784	1,199	85,972	0	1015,4	8,6	10,1	9,8	1	1	1	1	1	1	1	1	1	0	1	-18,463707	275,787735	309,543095	0
15.01.2021	13:34:04	0	82,979908	3,410854	1,83225	7,1316	1,198	85,988	0	1015,42	8,7	10,1	9,8	1	1	1	1	1	1	1	1	1	0	1	-17,829457	275,802395	310,247092	0
15.01.2021	13:34:05	0	83,214271	4,320416	1,7745	5,2236	1,189	85,946	0	1015,28	8,6	10,1	9,8	1	1	1	1	1	1	1	1	1	0	1	-19,591261	275,799136	308,469783	0
15.01.2021	13:34:06	0	83,213645	3,410856	1,88325	358,8264	1,19	85,975	0	1015,42	8,7	10	9,8	1	1	1	1	1	1	1	1	1	0	1	-20,648344	275,693524	306,910492	0
15.01.2021	13:34:07	0	82,862576	3,410856	1,9455	0	1,192	85,973	0	1015,42	8,6	10,1	9,8	1	1	1	1	1	1	1	1	1	0	1	-16,560958	275,810544	311,554368	0
15.01.2021	13:34:08	0	83,096939	3,183467	2,00025	359,5212	1,198	85,968	0	1015,48	8,6	10,1	9,8	1	1	1	1	1	1	1	1	1	0	1	-20,084567	275,672471	307,374223	0
15.01.2021	13:34:09	0	83,096896	4,434116	2,1225	353,2572	1,193	85,977	0	1015,4	8,7	10,1	9,8	1	1	1	1	1	1	1	1	1	0	1	-19,520789	275,70487	308,091972	0
15.01.2021	13:34:10	0	83,096853	3,63825	2,25	359,8812	1,199	85,963	0	1015,38	8,6	10,1	9,8	1	1	1	1	1	1	1	1	1	0	1	-20,930233	275,815435	307,208369	0
15.01.2021	13:34:11	0	82,979607	3,297165	2,2455	0,8532	1,191	85,982	0	1015,28	8,6	10,1	9,8	1	1	1	1	1	1	1	1	1	0	1	-20,648344	275,700007	306,941302	0
15.01.2021	13:34:12	0	83,213387	3,524556	2,13375	360	1,199	85,97	0	1015,3	8,6	10	9,8	1	1	1	1	1	1	1	1	1	0	1	-22,339676	275,711357	305,303917	0
15.01.2021	13:34:13	0	83,330545	4,206729	1,96725	349,0308	1,2	85,981	0	1015,4	8,6	10	9,8	1	1	1	1	1	1	1	1	1	0	1	-17,26568	275,838276	310,981634	0
15.01.2021	13:34:14	0	83,096681	3,751949	1,84425	339,0804	1,192	85,977	0	1015,4	8,5	10,1	9,8	1	1	1	1	1	1	1	1	1	0	1	-17,970402	275,719468	309,711748	0
15.01.2021	13:34:15	0	82,979435	3,183472	1,89525	350,2764	1,188	85,953	0	1015,26	8,6	10,1	9,8	1	1	1	1	1	1	1	1	1	0	1	-18,88654	275,643357	308,433941	0
15.01.2021	13:34:16	0	83,565404	3,979341	1,896	353,2392	1,198	85,962	0	1015,38	8,6	10,1	9,8	1	1	1	1	1	1	1	1	1	0	1	-18,957012	275,7617	308,92595	0
15.01.2021	13:34:17	0	82,979349	2,501301	1,9425	356,22	1,195	85,969	0	1015,32	8,6	10,1	9,8	1	1	1	1	1	1	1	1	1	0	1	-19,027484	275,640125	308,277644	0
15.01.2021	13:34:18	0	82,861523	2,387606	1,97175	357,3288	1,193	85,947	0	1015,34	8,7	10	9,8	1	1	1	1	1	1	1	1	1	0	1	-15,926709	275,675708	311,547464	0
15.01.2021	13:34:19	0	82,86206	1,819129	1,98525	347,6196	1,201	85,953	0	1015,22	8,6	10,1	9,8	1	1	1	1	1	1	1	1	1	0	1	-18,25229	275,77634	309,700307	0
15.01.2021	13:34:20	0	82,978638	2,160216	2,004	337,5036	1,185	85,943	0	1015,32	8,6	10	9,8	1	1	1	1	1	1	1	1	1	0	1	-19,450317	275,664379	307,970028	0
15.01.2021	13:34:21	0	83,447985	5,002607	2,097	348,3468	1,195	85,938	0	1015,24	8,6	10,1	9,8	1	1	1	1	1	1	1	1	1	0	1	-18,816068	275,680565	308,681186	0
15.01.2021	13:34:22	0	83,447942	2,842391	2,03175	335,4048	1,192	85,925	0	1015,36	8,6	10,1	9,8	1	1	1	1	1	1	1	1	1	0	1	-17,336152	275,691904	310,214983	0
15.01.2021	13:34:23	0	83,447314	3,069783	1,99725	345,762	1,196	85,942	0	1015,36	8,6	10	9,8	1	1	1	1	1	1	1	1	1	0	1	-18,25229	275,687044	309,275748	0
15.01.2021	13:34:24	0	83,213451	3,18348	1,88475	351,3708	1,195	85,921	0	1015,1	8,7	10,1	9,8	1	1	1	1	1	1	1	1	1	0	1	-23,608175	275,688664	303,927562	0
15.01.2021	13:34:25	0	83,213407	2,501306	1,95375	332,4924	1,194	85,919	0	1015,38	8,6	10,1	9,8	1	1	1	1	1	1	1	1	1	0	1	-21,705426	275,653057	305,661129	0
15.01.2021	13:34:26	0	83,447183	4,206743	1,98	353,2392	1,193	85,904	0	1015,38	8,6	10	9,8	1	1	1	1	1	1	1	1	1	0	1	-18,675123	275,708113	308,953052	0
15.01.2021	13:34:27	0	83,213321	2,387611	1,9845	342,0576	1,197	85,909	0	1015,28	8,6	10,1	9,8	1	1	1	1	1	1	1	1	1	0	1	-19,661734	275,800765	308,407063	0
15.01.2021	13:34:28	0	83,212695	2,273916	1,95975	353,592	1,194	85,913	0	1015,22	8,6	10	9,8	1	1	1	1	1	1	1	1	1	0	1	-19,591261	275,657908	307,798342	0
15.01.2021	13:34:29	0	83,564839	3,638267	1,974	343,4184	1,193	85,904	0	1015,26	8,6	10,1	9,8	1	1	1	1	1	1	1	1	1	0	1	-19,520789	275,703249	308,084266	0
15.01.2021	13:34:30	0	83,447009	3,751964	1,95525	345,4128	1,189	85,898	0	1015,38	8,6	10	9,8	1	1	1	1	1	1	1	1	1	0	1	-17,618041	275,638509	309,679413	0
15.01.2021	13:34:31	0	83,213147	4,093052	1,99725	350,226	1,193	85,906	0	1015,28	8,6	10,1	9,8	1	1	1	1	1	1	1	1	1	0	1	-21,000705	275,813804	307,130138	0
15.01.2021	13:34:32	0	83,330305	3,410878	1,94775	343,584	1,198	85,896	0	1015,42	8,6	10,1	9,8	1	1	1	1	1	1	1	1	1	0	1	-18,463707	275,758448	309,403789	0
15.01.2021	13:34:33	0	83,21306	2,387629	1,9395	344,7828	1,195	85,905	0	1015,38	8,6	10,1	9,7	1	1	1	1	1	1	1	1	1	0	1	-23,044397	275,640125	304,260731	0
15.01.2021	13:34:34	0	83,564621	3,183488	1,90275	343,5804	1,193	85,89	0	1015,3	8,6	10,1	9,8	1	1	1	1	1	1	1	1	1	0	1	-15,151515	275,709735	312,484369	0
15.01.2021	13:34:35	0	83,330175	3,069792	1,8435	339,8328	1,193	85,898	0	1015,28	8,6	10,1	9,8	1	1	1	1	1	1	1	1	1	0	1	-18,181818	275,653057	309,184738	0
15.01.2021	13:34:36	0	83,681735	2,615009	1,746	355,464	1,197	85,907	0	1015,38	8,6	10,1	9,8	1	1	1	1	1	1	1	1	1	0	1	-20,225511	275,784478	307,7658	0
15.01.2021	13:34:37	0	83,212887	3,638274	1,59525	338,778	1,199	85,914	0	1015,36	8,6	10,1	9,8	1	1	1	1	1	1	1	1	1	0	1	-17,477097	275,830116	310,731374	0
15.01.2021	13:34:38	0	83,330044	2,956099	1,47525	350,7084	1,196	85,91	0	1015,3	8,6	10,1	9,8	1	1	1	1	1	1	1	1	1	0	1	-16,138125	275,764952	311,760305	0
15.01.2021	13:34:39	0	83,2128	2,501315	1,4595	358,0452	1,195	85,886	0	1015,34	8,6	10,1	9,8	1	1	1	1	1	1	1	1	1	0	1	-23,46723	275,828484	304,733473	0
15.01.2021	13:34:40	0	83,447158	3,638277	1,4625	358,398	1,194	85,906	0	1015,42	8,6	10,1	9,8	1	1	1	1	1	1	1	1	1	0	1	-16,490486	275,724336	311,214808	0
15.01.2021	13:34:41	0	83,212713	2,956101	1,488	0,4788	1,195	85,901	0	1015,34	8,6	10,1	9,8	1	1	1	1	1	1	1	1	1	0	1	-25,158562	275,648206	302,184952	0
15.01.2021	13:34:42	0	83,798674	4,888937	1,46625	360	1,187	85,889	0	1015,26	8,6	10,1	9,8	1	1	1	1	1	1	1	1	1	0	1	-22,692037	275,835012	305,539737	0
15.01.2021	13:34:43	0	83,915831	4,661546	1,449	359,4816	1,196	85,881	0	1015,18	8,6	10,1	9,8	1	1	1	1	1	1	1	1	1	0	1	-22,339676	275,672471	305,119114	0
15.01.2021	13:34:44	0	83,212582	2,728727	1,545	360	1,188	85,881	0	1015,26	8,5	10,1	9,7	1	1	1	1	1	1	1	1	1	0	1	-19,238901	275,758448	308,628596	0
15.01.2021	13:34:45	0	83,211955	2,842408	1,632	7,1208	1,197	85,879	0	1015,38	8,6	10	9,8	1	1	1	1	1	1	1	1	1	0	1	-18,181818	275,800765	309,886979	0
15.01.2021	13:34:46	0	83,564097	3,638283	1,599	358,7328	1,195	85,876	0	1015,3	8,6	10,1	9,8	1	1	1	1	1	1	1	1	1	0	1	-21,000705	275,711357	306,642888	0
15.01.2021	13:34:47	0	83,329652	4,320462	1,572	354,9852	1,199	85,86	0	1015,38	8,6	10,1	9,8	1	1	1	1	1	1	1	1	1	0	1	-17,829457	275,820327	310,332427	0
15.01.2021	13:34:48	0	83,212408	3,410892	1,5345	360	1,201	85,866	0	1015,48	8,6	10,1	9,8	1	1	1	1	1	1	1	1	1	0	1	-18,463707	275,667615	308,972014	0
15.01.2021	13:34:49	0	83,446765	4,43416	1,4745	0,468	1,198	85,869	0	1015,36	8,6	10,1	9,8	1	1	1	1	1	1	1	1	1	0	1	-20,014094	275,844807	308,264308	0
15.01.2021	13:34:50	0	83,563336	2,387625	1,51875	360	1,19	85,846	0	1015,16	8,6	10	9,8	1	1	1	1	1	1	1	1	1	0	1	-16,138125	275,774713	311,806731	0
15.01.2021	13:34:51	0	83,212277	2,728715	1,5435	1,5336	1,19	85,851	0	1015,28	8,6	10,1	9,8	1	1	1	1	1	1	1	1	1	0	1	-23,608175	275,823589	304,569235	0
15.01.2021	13:34:52	0	83,914847	4,434164	1,515	357,66	1,195	85,858	0	1015,44	8,6	10	9,8	1	1	1	1	1	1	1	1	1	0	1	-20,5074	275,755197	307,344634	0
15.01.2021	13:34:53	0	83,44659	4,320468	1,359	359,8524	1,194	85,871	0	1015,34	8,6	10,1	9,8	1	1	1	1	1	1	1	1	1	0	1	-18,816068	275,838276	309,431246	0
15.01.2021	13:34:54	0	83,680946	2,501324	1,2645	355,0248	1,193	85,847	0	1015,32	8,7	10,1	9,8	1	1	1	1	1	1	1	1	1	0	1	-17,124736	275,72109	310,565128	0
15.01.2021	13:34:55	0	83,446502	2,842415	1,16625	346,1328	1,189	85,837	0	1015,22	8,6	10,1	9,8	1	1	1	1	1	1	1	1	1	0	1	-18,111346	275,653057	309,25521	0
15.01.2021	13:34:56	0	83,446458	3,069809	1,13925	355,0572	1,194	85,853	0	1015,26	8,6	10,1	9,8	1	1	1	1	1	1	1	1	1	0	1	-21,705426	275,763326	306,18527	0
15.01.2021	13:34:57	0	83,328631	4,093079	1,12875	8,604	1,193	85,843	0	1015,3	8,6	10	9,8	1	1	1	1	1	1	1	1	1	0	1	-24,312896	275,836644	303,926647	0
15.01.2021	13:34:58	0	83,797383	4,547867	1,0425	13,5324	1,191	85,866	0	1015,36	8,6	10	9,8	1	1	1	1	1	1	1	1	1	0	1	-22,269204	275,755197	305,58283	0
15.01.2021	13:34:59	0	83,446327	2,501328	0,99075	358,8048	1,193	85,869	0	1015,42	8,6	10,1	9,8	1	1	1	1	1	1	1	1	1	0	1	-19,591261	275,852974	308,72602	0
15.01.2021	13:35:00	0	83,446239	4,775264	1,056	351,4284	1,196	85,871	0	1015,34	8,6	10,1	9,8	1	1	1	1	1	1	1	1	1	0	1	-17,26568	275,799136	310,795365	0
15.01.2021	13:35:01	0	83,446239	4,775264	1,056	351,4284	1,196	85,871	0	1015,34	8,6	10,1	9,8	1	1	1	1	1	1	1	1	1	0	1	-17,688513	275,657908	309,701091	0
15.01.2021	13:35:02	0	83,328995	3,069813	1,1385	355,4136	1,185	85,867	0	1015,24	8,6	10,1	9,8	1	1	1	1	1	1	1	1	1	0	1	-21,49401	275,719468	306,18814	0
15.01.2021	13:35:03	0	83,79775	5,00266	1,149	356,2812	1,195	85,879	0	1015,34	8,6	10,1	9,8	1	1	1	1	1	1	1	1	1	0	1	-16,701903	275,664379	310,718443	0
15.01.2021	13:35:04	0	83,67992	4,093087	1,125	351,0792	1,196	85,876	0	1015,36	8,6	10	9,8	1	1	1	1	1	1	1	1	1	0	1	-17,195208	275,777968	310,76513	0
15.01.2021	13:35:05	0	83,446063	3,069816	1,06125	356,58	1,194	85,879	0	1015,3	8,6	10,1	9,8	1	1	1	1	1	1	1	1	1	0	1	-17,406624	275,644973	309,921533	0
15.01.2021	13:35:06	0	83,562633	2,728726	1,10175	353,538	1,194	85,896	0	1015,38	8,6	10	9,8	1	1	1	1	1	1	1	1	1	0	1	-24,031008	275,740572	303,751482	0
15.01.2021	13:35:07	0	83,562589	2,842423	1,18125	354,0132	1,191	85,889	0	1015,26	8,6	10	9,8	1	1	1	1	1	1	1	1	1	0	1	-22,057787	275,675708	305,416386	0
15.01.2021	13:35:08	0	83,56313	5,116364	1,254	355,4424	1,188	85,886	0	1015,24	8,6	10,1	9,8	1	1	1	1	1	1	1	1	1	0	1	-22,621564	275,831748	305,594673	0
15.01.2021	13:35:09	0	83,797485	2,615031	1,29975	360	1,19	85,874	0	1015,3	8,6	10,1	9,8	1	1	1	1	1	1	1	1	1	0	1	-20,436927	275,690284	307,106508	0
15.01.2021	13:35:10	0	83,445843	3,979396	1,34775	1,5624	1,194	85,89	0	1015,28	8,6	10,1	9,8	1	1	1	1	1	1	1	1	1	0	1	-17,89993	275,753571	309,944374	0
15.01.2021	13:35:11	0	83,914596	4,547882	1,37775	356,5872	1,195	85,879	0	1015,12	8,6	10,1	9,8	1	1	1	1	1	1	1	1	1	0	1	-21,634954	275,864414	306,736792	0
15.01.2021	13:35:12	0	83,562369	4,775278	1,42125	1,5372	1,197	85,906	0	1015,36	8,6	10	9,8	1	1	1	1	1	1	1	1	1	0	1	-23,46723	275,777968	304,493108	0
15.01.2021	13:35:13	0	83,914507	3,979399	1,4355	355,5072	1,201	85,906	0	1015,26	8,6	10,1	9,8	1	1	1	1	1	1	1	1	1	0	1	-18,463707	275,836644	309,775837	0
15.01.2021	13:35:14	0	83,797264	3,865703	1,431	357,7428	1,19	85,9	0	1015,36	8,7	10,1	9,8	1	1	1	1	1	1	1	1	1	0	1	-19,661734	275,727582	308,058993	0
15.01.2021	13:35:15	0	83,562822	2,615035	1,35975	2,6496	1,2	85,91	0	1015,44	8,6	10,1	9,8	1	1	1	1	1	1	1	1	1	0	1	-18,040874	275,857876	310,299745	0
15.01.2021	13:35:16	0	83,914374	3,752008	1,3185	359,0748	1,194	85,914	0	1015,3	8,6	10,1	9,8	1	1	1	1	1	1	1	1	1	0	1	-20,648344	275,768205	307,265559	0
15.01.2021	13:35:17	0	83,913742	3,638311	1,2795	358,0236	1,199	85,899	0	1015,22	8,6	10	9,8	1	1	1	1	1	1	1	1	1	0	1	-14,305849	275,661143	313,099124	0
15.01.2021	13:35:18	0	83,562689	3,865707	1,308	0,4896	1,198	85,921	0	1015,38	8,6	10,1	9,8	1	1	1	1	1	1	1	1	1	0	1	-15,715292	275,712979	311,93601	0
15.01.2021	13:35:19	0	83,679844	3,297221	1,26375	0,1152	1,194	85,902	0	1015,34	8,6	10,1	9,8	1	1	1	1	1	1	1	1	1	0	1	-18,25229	275,703249	309,352765	0
15.01.2021	13:35:20	0	83,679213	2,615038	1,23	342,3672	1,198	85,9	0	1015,36	8,6	10	9,8	1	1	1	1	1	1	1	1	1	0	1	-14,023961	275,825221	314,161213	0
15.01.2021	13:35:21	0	83,328159	2,842434	1,20825	342,1368	1,203	85,9	0	1015,36	8,6	10,1	9,8	1	1	1	1	1	1	1	1	1	0	1	-20,225511	275,669234	307,217899	0
15.01.2021	13:35:22	0	83,796322	3,183526	1,2225	348,696	1,199	85,92	0	1015,32	8,6	10	9,8	1	1	1	1	1	1	1	1	1	0	1	-17,829457	275,826852	310,363481	0
15.01.2021	13:35:23	0	83,796865	4,434199	1,14975	345,0888	1,198	85,917	0	1015,24	8,6	10,1	9,8	1	1	1	1	1	1	1	1	1	0	1	-18,25229	275,664379	309,168055	0
15.01.2021	13:35:24	0	83,328027	2,728738	1,13025	356,1768	1,198	85,893	0	1015,22	8,6	10,1	9,8	1	1	1	1	1	1	1	1	1	0	1	-19,168428	275,864414	309,203317	0
15.01.2021	13:35:25	0	83,678991	2,728739	1,13325	355,5756	1,192	85,903	0	1015,32	8,6	10	9,8	1	1	1	1	1	1	1	1	1	0	1	-21,846371	275,826852	306,346568	0
15.01.2021	13:35:26	0	83,796731	4,434202	1,18575	348,6204	1,195	85,913	0	1015,34	8,6	10,1	9,8	1	1	1	1	1	1	1	1	1	0	1	-18,322763	275,722713	309,374816	0
15.01.2021	13:35:27	0	84,031083	4,661598	1,17525	349,0632	1,197	85,918	0	1015,02	8,6	10,1	9,8	1	1	1	1	1	1	1	1	1	0	1	-20,5074	275,688664	307,028337	0
15.01.2021	13:35:28	0	83,796643	3,979414	1,173	348,7176	1,203	85,922	0	1015,24	8,6	10,1	9,8	1	1	1	1	1	1	1	1	1	0	1	-21,49401	275,838276	306,753304	0
15.01.2021	13:35:29	0	84,148192	3,638323	1,1385	349,974	1,195	85,917	0	1015,28	8,6	10,1	9,8	1	1	1	1	1	1	1	1	1	0	1	-23,326286	275,852974	304,990996	0
15.01.2021	13:35:30	0	83,678769	2,615045	1,06875	349,0668	1,198	85,924	0	1015,2	8,6	10	9,8	1	1	1	1	1	1	1	1	1	0	1	-18,393235	275,874225	310,025225	0
15.01.2021	13:35:31	0	84,030316	3,069836	1,07325	348,732	1,199	85,917	0	1015,4	8,7	10	9,8	1	1	1	1	1	1	1	1	1	0	1	-22,551092	275,712979	305,100211	0
15.01.2021	13:35:32	0	83,913075	3,069837	1,0755	349,9092	1,2	85,926	0	1015,3	8,7	10	9,8	1	1	1	1	1	1	1	1	1	0	1	-17,89993	275,848074	310,394022	0
15.01.2021	13:35:33	0	83,91303	2,728745	1,08975	347,9976	1,204	85,923	0	1015,3	8,6	10	9,8	1	1	1	1	1	1	1	1	1	0	1	-21,775899	275,758448	306,091598	0
15.01.2021	13:35:34	0	84,147969	2,842443	1,1535	352,5372	1,2	85,945	0	1015,32	8,7	10,1	9,8	1	1	1	1	1	1	1	1	1	0	1	-20,648344	275,688664	306,887393	0
15.01.2021	13:35:35	0	83,796331	3,183537	1,1925	353,5704	1,205	85,935	0	1015,4	8,6	10,1	9,8	1	1	1	1	1	1	1	1	1	0	1	-24,735729	275,683804	302,776915	0
15.01.2021	13:35:36	0	84,030093	3,06984	1,1805	354,2832	1,202	85,937	0	1015,18	8,6	10	9,8	1	1	1	1	1	1	1	1	1	0	1	-20,295983	275,784478	307,695328	0
15.01.2021	13:35:37	0	84,030637	4,320517	1,18575	353,6136	1,2	85,933	0	1015,34	8,7	10,1	9,8	1	1	1	1	1	1	1	1	1	0	1	-16,842847	275,85951	311,505552	0
15.01.2021	13:35:38	0	84,264987	4,20682	1,19175	349,4376	1,198	85,933	0	1015,34	8,7	10,1	9,8	1	1	1	1	1	1	1	1	1	0	1	-21,071177	275,768205	306,842726	0
15.01.2021	13:35:39	0	83,91335	4,206821	1,1865	347,742	1,201	85,946	0	1015,42	8,6	10,1	9,8	1	1	1	1	1	1	1	1	1	0	1	-22,128259	275,864414	306,243486	0
15.01.2021	13:35:40	0	84,382095	4,547916	1,1295	352,7856	1,199	85,94	0	1015,26	8,7	10,1	9,8	1	1	1	1	1	1	1	1	1	0	1	-21,49401	275,729206	306,234435	0
15.01.2021	13:35:41	0	84,147066	3,638334	1,04475	346,572	1,199	85,944	0	1015,2	8,6	10	9,8	1	1	1	1	1	1	1	1	1	0	1	-19,027484	275,83338	309,196521	0
15.01.2021	13:35:42	0	83,678235	3,183543	1,0395	347,6448	1,207	85,954	0	1015,32	8,6	10	9,8	1	1	1	1	1	1	1	1	1	0	1	-24,242424	275,682185	303,262524	0
15.01.2021	13:35:43	0	84,147566	4,661618	1,05075	355,3956	1,208	85,952	0	1015,44	8,7	10,1	9,8	1	1	1	1	1	1	1	1	1	0	1	-20,930233	275,784478	307,061078	0
15.01.2021	13:35:44	0	83,913127	2,84245	1,035	359,8956	1,208	85,954	0	1015,24	8,6	10,1	9,8	1	1	1	1	1	1	1	1	1	0	1	-18,816068	275,690284	308,727368	0
15.01.2021	13:35:45	0	84,147476	5,116412	1,011	356,5944	1,206	85,952	0	1015,3	8,7	10,1	9,8	1	1	1	1	1	1	1	1	1	0	1	-22,692037	275,774713	305,25282	0
15.01.2021	13:35:46	0	84,030234	3,52464	1,03725	358,8444	1,204	85,94	0	1015,22	8,7	10,1	9,8	1	1	1	1	1	1	1	1	1	0	1	-23,396758	275,683804	304,115886	0
15.01.2021	13:35:47	0	84,38178	2,160264	1,026	358,7508	1,209	85,956	0	1015,26	8,6	10,1	9,8	1	1	1	1	1	1	1	1	1	0	1	-16,913319	275,807284	311,186494	0
15.01.2021	13:35:48	0	84,147341	3,752038	1,03275	358,4124	1,204	85,964	0	1015,14	8,6	10,1	9,8	1	1	1	1	1	1	1	1	1	0	1	-17,970402	275,841542	310,292455	0
15.01.2021	13:35:49	0	83,795706	2,046567	1,04625	2,2824	1,211	85,967	0	1015,34	8,6	10,1	9,8	1	1	1	1	1	1	1	1	1	0	1	-20,5074	275,742197	307,282814	0
15.01.2021	13:35:50	0	84,147251	2,728757	1,0125	10,8072	1,212	85,955	0	1015,24	8,7	10,1	9,8	1	1	1	1	1	1	1	1	1	0	1	-19,379845	275,696765	308,194394	0
15.01.2021	13:35:51	0	84,6154	3,069852	1,0575	359,496	1,214	85,977	0	1015,4	8,6	10	9,8	1	1	1	1	1	1	1	1	1	0	1	-24,876674	275,758448	302,990822	0
15.01.2021	13:35:52	0	84,029965	3,524646	1,0905	357,6312	1,214	85,965	0	1015,34	8,6	10,1	9,8	1	1	1	1	1	1	1	1	1	0	1	-17,054264	275,695145	310,512274	0
15.01.2021	13:35:53	0	84,498706	4,547931	1,1115	0,1296	1,215	85,961	0	1015,36	8,6	10,1	9,8	1	1	1	1	1	1	1	1	1	0	1	-20,5074	275,771459	307,421979	0
15.01.2021	13:35:54	0	84,029875	4,661631	1,0725	353,5776	1,208	85,977	0	1015,42	8,7	10,1	9,8	1	1	1	1	1	1	1	1	1	0	1	-21,071177	275,856242	307,261662	0
15.01.2021	13:35:55	0	84,147026	2,842459	1,10625	0,864	1,219	85,98	0	1015,26	8,7	10,1	9,8	1	1	1	1	1	1	1	1	1	0	1	-23,11487	275,807284	304,984944	0
15.01.2021	13:35:56	0	84,498571	3,183554	1,086	6,066	1,217	85,972	0	1015,34	8,6	10,1	9,8	1	1	1	1	1	1	1	1	1	0	1	-22,057787	275,706492	305,562681	0
15.01.2021	13:35:57	0	84,02974	3,297254	1,10325	355,1292	1,211	85,971	0	1015,22	8,6	10,1	9,8	1	1	1	1	1	1	1	1	1	0	1	-20,718816	275,7357	307,040507	0
15.01.2021	13:35:58	0	84,49848	3,752048	1,15275	348,6636	1,214	85,993	0	1015,32	8,7	10,1	9,8	1	1	1	1	1	1	1	1	1	0	1	-21,564482	275,849707	306,737246	0
15.01.2021	13:35:59	0	84,02965	3,524652	1,19475	352,2096	1,225	85,993	0	1015,4	8,7	10,1	9,8	1	1	1	1	1	1	1	1	1	0	1	-19,168428	275,861145	309,187752	0
15.01.2021	13:36:00	0	84,498344	4,320544	1,449	359,064	1,225	85,988	0	1015,28	8,6	10,1	9,8	1	1	1	1	1	1	1	1	1	0	1	-21,49401	275,825221	306,691164	0
15.01.2021	13:36:01	0	84,498344	4,320544	1,449	359,064	1,225	85,988	0	1015,28	8,6	10,1	9,8	1	1	1	1	1	1	1	1	1	0	1	-19,661734	275,695145	307,904804	0
15.01.2021	13:36:02	0	84,498299	4,434243	1,4385	4,8276	1,221	85,988	0	1015,24	8,7	10,1	9,8	1	1	1	1	1	1	1	1	1	0	1	-23,185342	275,79262	304,844702	0
15.01.2021	13:36:03	0	84,146666	2,842464	1,37625	0,8532	1,222	85,987	0	1015,38	8,7	10,1	9,8	1	1	1	1	1	1	1	1	1	0	1	-16,560958	275,862779	311,803004	0
15.01.2021	13:36:04	0	84,849796	3,979451	1,32825	353,1816	1,222	85,999	0	1015,24	8,7	10,1	9,8	1	1	1	1	1	1	1	1	1	0	1	-18,604651	275,841542	309,658205	0
15.01.2021	13:36:05	0	84,615359	2,956165	1,2975	348,336	1,225	85,99	0	1015,4	8,6	10,1	9,8	1	1	1	1	1	1	1	1	1	0	1	-17,829457	275,70487	309,783304	0
15.01.2021	13:36:06	0	84,498118	2,956165	1,3365	342,828	1,223	86,006	0	1015,44	8,7	10,1	9,8	1	1	1	1	1	1	1	1	1	0	1	-20,014094	275,810544	308,101232	0
15.01.2021	13:36:07	0	84,732464	4,206852	1,38075	350,2872	1,224	86,001	0	1015,28	8,7	10,1	9,8	1	1	1	1	1	1	1	1	1	0	1	-18,604651	275,861145	309,75153	0
15.01.2021	13:36:08	0	84,615223	3,069866	1,45575	344,6928	1,223	86,003	0	1015,3	8,7	10,1	9,8	1	1	1	1	1	1	1	1	1	0	1	-23,678647	275,734076	304,072955	0
15.01.2021	13:36:09	0	84,615177	3,069866	1,506	346,8708	1,222	86	0	1015,28	8,7	10,1	9,8	1	1	1	1	1	1	1	1	1	0	1	-18,88654	275,874225	309,53192	0
15.01.2021	13:36:10	0	84,966718	3,979457	1,49625	355,05	1,224	86,006	0	1015,3	8,6	10,1	9,8	1	1	1	1	1	1	1	1	1	0	1	-23,890063	275,821958	304,279583	0
15.01.2021	13:36:11	0	84,849477	4,320555	1,4835	347,6196	1,222	85,983	0	1015,28	8,7	10,1	9,8	1	1	1	1	1	1	1	1	1	0	1	-19,87315	275,712979	307,778153	0
15.01.2021	13:36:12	0	84,615041	4,206857	1,44675	351,072	1,225	85,986	0	1015,2	8,7	10,1	9,8	1	1	1	1	1	1	1	1	1	0	1	-22,339676	275,706492	305,280792	0
15.01.2021	13:36:13	0	84,732191	2,501375	1,4475	340,3116	1,217	85,985	0	1015,26	8,7	10,1	9,8	1	1	1	1	1	1	1	1	1	0	1	-18,322763	275,695145	309,243775	0
15.01.2021	13:36:14	0	84,497755	2,728774	1,49475	350,2404	1,227	85,993	0	1015,28	8,7	10,1	9,8	1	1	1	1	1	1	1	1	1	0	1	-18,463707	275,856242	309,869132	0
15.01.2021	13:36:15	0	84,614904	4,547957	1,56	352,5012	1,226	85,998	0	1015,32	8,6	10,1	9,8	1	1	1	1	1	1	1	1	1	0	1	-15,292459	275,755197	312,559574	0
15.01.2021	13:36:16	0	84,614859	2,956173	1,61625	344,6676	1,224	85,972	0	1015,32	8,7	10,1	9,8	1	1	1	1	1	1	1	1	1	0	1	-26,145173	275,708113	301,483003	0
15.01.2021	13:36:17	0	84,966398	4,093164	1,632	349,0992	1,223	85,965	0	1015,18	8,7	10,1	9,8	1	1	1	1	1	1	1	1	1	0	1	-20,436927	275,743821	307,361011	0
15.01.2021	13:36:18	0	84,731963	4,889058	1,67625	349,452	1,227	85,964	0	1015,36	8,6	10,1	9,8	1	1	1	1	1	1	1	1	1	0	1	-20,366455	275,87586	308,059793	0
15.01.2021	13:36:19	0	84,497527	2,728777	1,7145	348,0084	1,225	85,963	0	1015,3	8,7	10,1	9,8	1	1	1	1	1	1	1	1	1	0	1	-13,953488	275,764952	313,944943	0
15.01.2021	13:36:20	0	84,614677	2,273982	1,71675	349,0776	1,228	85,951	0	1015,28	8,6	10,1	9,8	1	1	1	1	1	1	1	1	1	0	1	-21,071177	275,897135	307,456394	0
15.01.2021	13:36:21	0	84,966215	3,297274	1,63875	354,2724	1,22	85,924	0	1015,22	8,6	10,1	9,8	1	1	1	1	1	1	1	1	1	0	1	-19,238901	275,844807	309,039502	0
15.01.2021	13:36:22	0	84,848975	4,547966	1,55775	346,1184	1,22	85,913	0	1015,38	8,6	10,1	9,8	1	1	1	1	1	1	1	1	1	0	1	-20,014094	275,700007	307,575551	0
15.01.2021	13:36:23	0	84,731734	4,320568	1,52925	349,4268	1,221	85,918	0	1015,28	8,6	10,1	9,8	1	1	1	1	1	1	1	1	1	0	1	-23,396758	275,830116	304,811712	0
15.01.2021	13:36:24	0	84,614494	3,524675	1,596	341,7012	1,23	85,922	0	1015,36	8,6	10,1	9,8	1	1	1	1	1	1	1	1	1	0	1	-16,208598	275,701628	311,388753	0
15.01.2021	13:36:25	0	84,848837	3,069879	1,6245	336,0708	1,226	85,898	0	1015,24	8,7	10,1	9,8	1	1	1	1	1	1	1	1	1	0	1	-20,366455	275,782851	307,617111	0
15.01.2021	13:36:26	0	85,083181	4,206873	1,62225	332,4096	1,228	85,906	0	1015,34	8,7	10,1	9,8	1	1	1	1	1	1	1	1	1	0	1	-15,856237	275,708113	311,771939	0
15.01.2021	13:36:27	0	84,497163	2,615084	1,58925	345,402	1,223	85,895	0	1015,34	8,6	10,1	9,8	1	1	1	1	1	1	1	1	1	0	1	-18,957012	275,737324	308,810033	0
15.01.2021	13:36:28	0	84,965894	3,183581	1,6095	317,7936	1,226	85,891	0	1015,4	8,6	10,1	9,8	1	1	1	1	1	1	1	1	1	0	1	-21,987315	275,781223	305,988508	0
15.01.2021	13:36:29	0	84,614266	2,387686	1,63425	328,2552	1,219	85,885	0	1015,4	8,7	10,1	9,8	1	1	1	1	1	1	1	1	1	0	1	-16,067653	275,700007	311,521993	0
15.01.2021	13:36:30	0	85,200191	2,273988	1,6425	324,4104	1,221	85,865	0	1015,14	8,6	10,1	9,8	1	1	1	1	1	1	1	1	1	0	1	-22,551092	275,777968	305,409246	0
15.01.2021	13:36:31	0	84,965757	2,842485	1,65	326,124	1,221	85,87	0	1015,2	8,6	10,1	9,8	1	1	1	1	1	1	1	1	1	0	1	-15,221987	275,874225	313,196473	0
15.01.2021	13:36:32	0	85,200099	4,206879	1,6095	323,3592	1,222	85,852	0	1015,16	8,7	10,1	9,8	1	1	1	1	1	1	1	1	1	0	1	-17,970402	275,841542	310,292455	0
15.01.2021	13:36:33	0	84,965665	3,638383	1,533	337,5972	1,231	85,858	0	1015,46	8,6	10,1	9,8	1	1	1	1	1	1	1	1	1	0	1	-20,577872	275,708113	307,050304	0
15.01.2021	13:36:34	0	85,200007	4,775379	1,4925	349,1244	1,228	85,849	0	1015,34	8,6	10,1	9,8	1	1	1	1	1	1	1	1	1	0	1	-22,762509	275,751946	305,074065	0
15.01.2021	13:36:35	0	85,317154	3,297286	1,4085	356,5656	1,222	85,856	0	1015,34	8,6	10,1	9,8	1	1	1	1	1	1	1	1	1	0	1	-20,155039	275,712979	307,496264	0
15.01.2021	13:36:36	0	84,965527	3,865785	1,32525	358,0344	1,226	85,861	0	1015,24	8,5	10,1	9,8	1	1	1	1	1	1	1	1	1	0	1	-19,943622	275,700007	307,646024	0
15.01.2021	13:36:37	0	84,848287	4,206885	1,26975	7,8552	1,223	85,834	0	1015,38	8,6	10,1	9,8	1	1	1	1	1	1	1	1	1	0	1	-21,071177	275,843175	307,199452	0
15.01.2021	13:36:38	0	84,965435	2,84249	1,22925	6,426	1,225	85,844	0	1015,4	8,7	10,1	9,8	1	1	1	1	1	1	1	1	1	0	1	-18,25229	275,830116	309,95618	0
15.01.2021	13:36:39	0	85,199776	3,979488	1,17825	352,9404	1,222	85,829	0	1015,36	8,7	10,1	9,8	1	1	1	1	1	1	1	1	1	0	1	-20,155039	275,869319	308,240061	0
15.01.2021	13:36:40	0	85,19973	4,206888	1,12725	4,8312	1,222	85,844	0	1015,16	8,6	10,1	9,8	1	1	1	1	1	1	1	1	1	0	1	-19,309373	275,753571	308,53493	0
15.01.2021	13:36:41	0	85,551264	4,661688	1,09575	8,6148	1,222	85,829	0	1015,24	8,7	10,1	9,8	1	1	1	1	1	1	1	1	1	0	1	-22,762509	275,846441	305,523668	0
15.01.2021	13:36:42	0	84,848057	2,842493	1,1565	355,0572	1,219	85,821	0	1015,2	8,7	10,1	9,8	1	1	1	1	1	1	1	1	1	0	1	-21,564482	275,866049	306,815047	0
15.01.2021	13:36:43	0	85,316785	2,387695	1,20825	4,0896	1,226	85,814	0	1015,3	8,6	10,1	9,8	1	1	1	1	1	1	1	1	1	0	1	-20,5074	275,722713	307,190179	0
15.01.2021	13:36:44	0	85,316738	4,320592	1,1985	358,47	1,224	85,816	0	1015,26	8,5	10,1	9,8	1	1	1	1	1	1	1	1	1	0	1	-19,309373	275,716223	308,357352	0
15.01.2021	13:36:45	0	85,668272	4,661693	1,1925	5,6736	1,226	85,816	0	1015,3	8,6	10,1	9,8	1	1	1	1	1	1	1	1	1	0	1	-20,648344	275,751946	307,18823	0
15.01.2021	13:36:46	0	85,551032	3,297296	1,17225	355,446	1,223	85,81	0	1015,3	8,7	10,1	9,8	1	1	1	1	1	1	1	1	1	0	1	-23,044397	275,895498	305,475375	0
15.01.2021	13:36:47	0	85,433793	4,320596	1,2555	337,2012	1,224	85,818	0	1015,34	8,7	10,1	9,8	1	1	1	1	1	1	1	1	1	0	1	-19,732206	275,764952	308,166225	0
15.01.2021	13:36:48	0	85,316553	3,183598	1,3065	349,11	1,226	85,817	0	1015,38	8,7	10,1	9,8	1	1	1	1	1	1	1	1	1	0	1	-23,819591	275,703249	303,785464	0
15.01.2021	13:36:49	0	84,964928	2,842499	1,326	340,6176	1,217	85,8	0	1015,18	8,6	10,1	9,8	1	1	1	1	1	1	1	1	1	0	1	-24,312896	275,773086	303,624221	0
15.01.2021	13:36:50	0	84,964882	3,297299	1,34325	343,5048	1,222	85,804	0	1015,42	8,6	10,1	9,8	1	1	1	1	1	1	1	1	1	0	1	-18,816068	275,701628	308,781283	0
15.01.2021	13:36:51	0	85,316414	3,0699	1,30875	357,3036	1,222	85,798	0	1015,22	8,7	10,1	9,8	1	1	1	1	1	1	1	1	1	0	1	-22,269204	275,768205	305,644699	0
15.01.2021	13:36:52	0	85,550753	4,775401	1,206	1,53	1,225	85,814	0	1015,32	8,6	10,1	9,8	1	1	1	1	1	1	1	1	1	0	1	-19,450317	275,864414	308,921429	0
15.01.2021	13:36:53	0	85,433514	2,842502	1,161	353,2716	1,219	85,795	0	1015,34	8,6	10,1	9,8	1	1	1	1	1	1	1	1	1	0	1	-21,212121	275,83338	307,011884	0
15.01.2021	13:36:54	0	85,199082	3,638403	1,11975	349,1172	1,225	85,787	0	1015,18	8,6	10,1	9,8	1	1	1	1	1	1	1	1	1	0	1	-23,749119	275,696765	303,82512	0
15.01.2021	13:36:55	0	85,433421	5,230206	1,13175	348,6996	1,221	85,809	0	1015,4	8,7	10,1	9,8	1	1	1	1	1	1	1	1	1	0	1	-22,410148	275,774713	305,534709	0
15.01.2021	13:36:56	0	85,316182	4,206906	1,1475	354,6972	1,224	85,804	0	1015,22	8,6	10,1	9,8	1	1	1	1	1	1	1	1	1	0	1	-22,48062	275,882404	305,97679	0
15.01.2021	13:36:57	0	85,667713	3,524706	1,19025	348,8292	1,222	85,788	0	1015,3	8,7	10,1	9,8	1	1	1	1	1	1	1	1	1	0	1	-22,410148	275,753571	305,434155	0
15.01.2021	13:36:58	0	85,081704	4,093208	1,1445	353,2032	1,226	85,782	0	1015,26	8,7	10,1	9,8	1	1	1	1	1	1	1	1	1	0	1	-18,88654	275,763326	309,004156	0
15.01.2021	13:36:59	0	85,19885	4,320609	1,15875	356,562	1,22	85,794	0	1015,32	8,7	10,1	9,8	1	1	1	1	1	1	1	1	1	0	1	-18,393235	275,696765	309,181005	0
15.01.2021	13:37:00	0	85,667526	4,775413	1,15425	358,4088	1,23	85,8	0	1015,38	8,6	10,1	9,8	1	1	1	1	1	1	1	1	1	0	1	-15,221987	275,844807	313,056415	0
15.01.2021	13:37:01	0	85,667526	4,775413	1,15425	358,4088	1,23	85,8	0	1015,38	8,6	10,1	9,8	1	1	1	1	1	1	1	1	1	0	1	-18,040874	275,861145	310,315307	0
15.01.2021	13:37:02	0	85,784672	2,501407	1,1865	351,774	1,226	85,789	0	1015,36	8,7	10,1	9,8	1	1	1	1	1	1	1	1	1	0	1	-19,591261	275,787735	308,41554	0
15.01.2021	13:37:03	0	85,550241	3,06991	1,17825	350,7012	1,224	85,838	0	1015,26	8,6	10,1	9,8	1	1	1	1	1	1	1	1	1	0	1	-21,423538	275,711357	306,220055	0
15.01.2021	13:37:04	0	85,31581	2,615109	1,11525	347,3208	1,224	85,779	0	1015,3	8,7	10,1	9,8	1	1	1	1	1	1	1	1	1	0	1	-17,758985	275,856242	310,573854	0
15.01.2021	13:37:05	0	85,667339	3,411013	1,05525	347,724	1,218	85,786	0	1015,42	8,7	10,1	9,8	1	1	1	1	1	1	1	1	1	0	1	-19,027484	275,730829	308,708679	0
15.01.2021	13:37:06	0	85,667292	3,183613	1,07025	351,3636	1,226	85,781	0	1015,34	8,7	10,1	9,8	1	1	1	1	1	1	1	1	1	0	1	-19,591261	275,737324	308,175783	0
15.01.2021	13:37:07	0	85,432862	2,046609	1,05225	353,5488	1,221	85,784	0	1015,32	8,7	10,1	9,8	1	1	1	1	1	1	1	1	1	0	1	-17,970402	275,821958	310,199245	0
15.01.2021	13:37:08	0	85,432815	2,956213	0,948	352,62	1,226	85,791	0	1015,32	8,7	10,1	9,8	1	1	1	1	1	1	1	1	1	0	1	-21,282593	275,895498	307,237179	0
15.01.2021	13:37:09	0	85,54996	4,320621	0,86025	355,0104	1,221	85,779	0	1015,26	8,6	10,1	9,8	1	1	1	1	1	1	1	1	1	0	1	-19,732206	275,781223	308,243617	0
15.01.2021	13:37:10	0	85,667105	4,661723	0,7665	356,2308	1,231	85,778	0	1015,3	8,6	10,1	9,8	1	1	1	1	1	1	1	1	1	0	1	-18,745595	275,903686	309,813179	0
15.01.2021	13:37:11	0	85,549867	3,75212	0,71925	357,336	1,23	85,788	0	1015,28	8,6	10,1	9,8	1	1	1	1	1	1	1	1	1	0	1	-19,591261	275,7617	308,291701	0
15.01.2021	13:37:12	0	85,432628	2,501414	0,714	358,524	1,225	85,79	0	1015,3	8,5	10,1	9,8	1	1	1	1	1	1	1	1	1	0	1	-22,973925	275,722713	304,723653	0
15.01.2021	13:37:13	0	85,549773	4,206925	0,729	1,9044	1,229	85,792	0	1015,26	8,7	10,1	9,8	1	1	1	1	1	1	1	1	1	0	1	-19,661734	275,846441	308,624443	0
15.01.2021	13:37:14	0	85,666918	3,29732	0,78375	0,486	1,229	85,761	0	1015,22	8,7	10,1	9,8	1	1	1	1	1	1	1	1	1	0	1	-16,842847	275,898773	311,692524	0
15.01.2021	13:37:15	0	85,784062	4,548029	0,84825	358,6896	1,227	85,786	0	1015,22	8,7	10,1	9,8	1	1	1	1	1	1	1	1	1	0	1	-18,463707	275,848074	309,830245	0
15.01.2021	13:37:16	0	85,549633	4,320629	0,921	358,0164	1,238	85,8	0	1015,36	8,6	10,1	9,8	1	1	1	1	1	1	1	1	1	0	1	-19,450317	275,905324	309,11626	0
15.01.2021	13:37:17	0	85,666777	3,183622	0,945	357,3288	1,232	85,795	0	1015,36	8,7	10,1	9,8	1	1	1	1	1	1	1	1	1	0	1	-22,692037	275,763326	305,198659	0
15.01.2021	13:37:18	0	85,901112	4,434332	0,96225	358,0596	1,234	85,791	0	1015,2	8,7	10,1	9,8	1	1	1	1	1	1	1	1	1	0	1	-21,282593	275,911878	307,315203	0
15.01.2021	13:37:19	0	85,666683	3,97953	0,98475	2,3688	1,234	85,797	0	1015,32	8,6	10,1	9,8	1	1	1	1	1	1	1	1	1	0	1	-18,040874	275,841542	310,221983	0
15.01.2021	13:37:20	0	85,666636	3,069924	1,05225	355,7844	1,229	85,804	0	1015,34	8,6	10,1	9,8	1	1	1	1	1	1	1	1	1	0	1	-21,775899	275,716223	305,890826	0
15.01.2021	13:37:21	0	86,135353	4,548036	1,176	357,6744	1,233	85,801	0	1015,2	8,6	10,1	9,8	1	1	1	1	1	1	1	1	1	0	1	-18,745595	275,769832	309,176045	0
15.01.2021	13:37:22	0	85,666542	4,206935	1,272	356,6304	1,236	85,791	0	1015,28	8,6	10,1	9,8	1	1	1	1	1	1	1	1	1	0	1	-18,181818	275,890587	310,314563	0
15.01.2021	13:37:23	0	85,549304	3,069926	1,24275	333,0864	1,231	85,807	0	1015,32	8,7	10,1	9,8	1	1	1	1	1	1	1	1	1	0	1	-19,520789	275,808914	308,58678	0
15.01.2021	13:37:24	0	85,666448	3,638432	1,17975	340,2936	1,233	85,806	0	1015,28	8,7	10,1	9,8	1	1	1	1	1	1	1	1	1	0	1	-24,876674	275,712979	302,774629	0
15.01.2021	13:37:25	0	85,900783	2,842526	1,20075	344,3544	1,239	85,812	0	1015,22	8,7	10,1	9,8	1	1	1	1	1	1	1	1	1	0	1	-21,987315	275,870954	306,41557	0
15.01.2021	13:37:26	0	86,135117	4,889145	1,18725	341,6364	1,233	85,792	0	1015,06	8,7	10,1	9,8	1	1	1	1	1	1	1	1	1	0	1	-18,393235	275,848074	309,900717	0
15.01.2021	13:37:27	0	85,783498	4,661744	1,22025	333,9468	1,225	85,804	0	1015,3	8,7	10,1	9,8	1	1	1	1	1	1	1	1	1	0	1	-21,846371	275,902048	306,704602	0
15.01.2021	13:37:28	0	85,900641	3,865838	1,25175	343,0512	1,23	85,785	0	1015,26	8,7	10,1	9,8	1	1	1	1	1	1	1	1	1	0	1	-23,819591	275,880768	304,630028	0
15.01.2021	13:37:29	0	85,431832	2,842529	1,20675	336,7692	1,23	85,819	0	1015,26	8,7	10,1	9,8	1	1	1	1	1	1	1	1	1	0	1	-19,520789	275,714601	308,138224	0
15.01.2021	13:37:30	0	86,017737	4,661748	1,155	328,2984	1,231	85,798	0	1015,28	8,7	10,1	9,8	1	1	1	1	1	1	1	1	1	0	1	-22,692037	275,882404	305,765374	0
15.01.2021	13:37:31	0	86,01769	4,548048	1,17	352,152	1,233	85,8	0	1015,28	8,6	10,1	9,8	1	1	1	1	1	1	1	1	1	0	1	-20,5074	275,898773	308,027971	0
15.01.2021	13:37:32	0	85,783262	2,615128	1,28325	348,264	1,237	85,8	0	1015,36	8,7	10,1	9,8	1	1	1	1	1	1	1	1	1	0	1	-17,124736	275,807284	310,975077	0
15.01.2021	13:37:33	0	86,017595	3,183635	1,37775	347,2416	1,231	85,805	0	1015,3	8,7	10,1	9,8	1	1	1	1	1	1	1	1	1	0	1	-19,309373	275,910239	309,280618	0
15.01.2021	13:37:34	0	85,783167	2,956234	1,42875	355,3632	1,232	85,798	0	1015,44	8,6	10,1	9,8	1	1	1	1	1	1	1	1	1	0	1	-17,758985	275,836644	310,480558	0
15.01.2021	13:37:35	0	86,13469	4,548053	1,44975	360	1,236	85,8	0	1015,38	8,6	10,1	9,8	1	1	1	1	1	1	1	1	1	0	1	-19,027484	275,879132	309,414344	0
15.01.2021	13:37:36	0	86,369023	3,411041	1,47975	350,982	1,237	85,802	0	1015,2	8,7	10,1	9,8	1	1	1	1	1	1	1	1	1	0	1	-19,802678	275,918434	308,82635	0
15.01.2021	13:37:37	0	85,431456	2,728833	1,5735	355,0032	1,235	85,8	0	1015,34	8,7	10,1	9,8	1	1	1	1	1	1	1	1	1	0	1	-23,960536	275,848074	304,333416	0
15.01.2021	13:37:38	0	86,134548	3,524744	1,572	355,8996	1,234	85,792	0	1015,32	8,6	10,1	9,8	1	1	1	1	1	1	1	1	1	0	1	-18,111346	275,7357	309,647977	0
15.01.2021	13:37:39	0	86,25169	4,434356	1,55025	345,8628	1,23	85,785	0	1015,3	8,6	10,1	9,8	1	1	1	1	1	1	1	1	1	0	1	-17,124736	275,870954	311,27815	0
15.01.2021	13:37:40	0	86,134453	5,002865	1,4775	351,3816	1,239	85,804	0	1015,3	8,6	10,1	9,8	1	1	1	1	1	1	1	1	1	0	1	-21,846371	275,892224	306,657806	0
15.01.2021	13:37:41	0	85,900026	2,615135	1,371	352,1844	1,234	85,791	0	1015,28	8,7	10,1	9,8	1	1	1	1	1	1	1	1	1	0	1	-25,158562	275,910239	303,431428	0
15.01.2021	13:37:42	0	86,017168	4,889166	1,37925	357,966	1,237	85,798	0	1015,48	8,6	10,1	9,8	1	1	1	1	1	1	1	1	1	0	1	-20,225511	275,844807	308,052892	0
15.01.2021	13:37:43	0	85,665552	3,63845	1,464	351,3312	1,244	85,801	0	1015,34	8,6	10,1	9,8	1	1	1	1	1	1	1	1	1	0	1	-20,577872	275,910239	308,012119	0
15.01.2021	13:37:44	0	86,134263	3,979556	1,49175	356,9724	1,238	85,791	0	1015,32	8,6	10,1	9,8	1	1	1	1	1	1	1	1	1	0	1	-21,141649	275,879132	307,300179	0
15.01.2021	13:37:45	0	85,899836	2,956242	1,47225	351,0648	1,233	85,788	0	1015,16	8,6	10,1	9,8	1	1	1	1	1	1	1	1	1	0	1	-24,031008	275,734076	303,720594	0
15.01.2021	13:37:46	0	85,7826	2,387735	1,446	351,378	1,239	85,799	0	1015,32	8,7	10,1	9,8	1	1	1	1	1	1	1	1	1	0	1	-21,987315	275,848074	306,306637	0
15.01.2021	13:37:47	0	86,13412	3,297349	1,38	347,6304	1,241	85,773	0	1015,26	8,7	10,1	9,8	1	1	1	1	1	1	1	1	1	0	1	-22,903453	275,864414	305,468293	0
15.01.2021	13:37:48	0	86,016883	4,889174	1,3785	333,0288	1,241	85,802	0	1015,2	8,6	10,1	9,8	1	1	1	1	1	1	1	1	1	0	1	-20,436927	275,732453	307,306955	0
15.01.2021	13:37:49	0	86,134025	2,842544	1,38825	341,2512	1,235	85,799	0	1015,3	8,6	10,1	9,8	1	1	1	1	1	1	1	1	1	0	1	-16,349542	275,866049	312,029988	0
15.01.2021	13:37:50	0	86,133977	4,775475	1,41225	341,2296	1,239	85,8	0	1015,12	8,7	10,1	9,8	1	1	1	1	1	1	1	1	1	0	1	-19,661734	275,747071	308,151657	0
15.01.2021	13:37:51	0	86,368308	4,775476	1,41225	346,086	1,237	85,8	0	1015,34	8,6	10,1	9,8	1	1	1	1	1	1	1	1	1	0	1	-25,017618	275,851341	303,291886	0
15.01.2021	13:37:52	0	85,782315	3,183652	1,33725	333,1872	1,244	85,801	0	1015,3	8,6	10,1	9,8	1	1	1	1	1	1	1	1	1	0	1	-25,158562	275,750321	302,670283	0
15.01.2021	13:37:53	0	85,899457	3,524758	1,34625	333,1872	1,244	85,806	0	1015,3	8,6	10,1	9,8	1	1	1	1	1	1	1	1	1	0	1	-20,295983	275,918434	308,333045	0
15.01.2021	13:37:54	0	86,133787	4,77548	1,4055	333,828	1,243	85,815	0	1015,34	8,6	10,1	9,8	1	1	1	1	1	1	1	1	1	0	1	-20,295983	275,742197	307,494231	0
15.01.2021	13:37:55	0	86,250928	3,183654	1,4805	342,3132	1,244	85,794	0	1015,28	8,6	10,1	9,8	1	1	1	1	1	1	1	1	1	0	1	-18,322763	275,760074	309,552466	0
15.01.2021	13:37:56	0	86,25088	4,548079	1,51425	351,3636	1,244	85,804	0	1015,32	8,6	10,1	9,8	1	1	1	1	1	1	1	1	1	0	1	-18,816068	275,789363	309,198481	0
15.01.2021	13:37:57	0	86,133644	3,865868	1,5345	346,032	1,24	85,8	0	1015,34	8,6	10,1	9,8	1	1	1	1	1	1	1	1	1	0	1	-20,014094	275,857876	308,326524	0
15.01.2021	13:37:58	0	86,133596	4,434379	1,5585	351,36	1,252	85,866	0	1015,38	8,6	10,1	9,8	1	1	1	1	1	1	1	1	1	0	1	-17,758985	275,753571	310,085318	0
15.01.2021	13:37:59	0	86,01636	3,29736	1,54875	353,9556	1,247	85,802	0	1015,32	8,6	10,1	9,8	1	1	1	1	1	1	1	1	1	0	1	-21,071177	275,807284	307,028636	0
15.01.2021	13:38:00	0	86,250641	3,069957	1,4835	349,0416	1,241	85,798	0	1015,12	8,6	10,1	9,8	1	1	1	1	1	1	1	1	1	0	1	-21,353066	275,921712	307,291583	0
15.01.2021	13:38:01	0	86,250641	3,069957	1,4835	349,0416	1,241	85,798	0	1015,12	8,6	10,1	9,8	1	1	1	1	1	1	1	1	1	0	1	-20,577872	275,779595	307,390208	0
15.01.2021	13:38:02	0	86,016216	4,206954	1,50075	1,548	1,243	85,811	0	1015,36	8,6	10,1	9,9	1	1	1	1	1	1	1	1	1	0	1	-20,014094	275,88404	308,451108	0
15.01.2021	13:38:03	0	86,016169	2,842554	1,48425	360	1,245	85,82	0	1015,2	8,6	10,1	9,8	1	1	1	1	1	1	1	1	1	0	1	-22,339676	276,07644	307,042764	0
15.01.2021	13:38:04	0	86,250497	4,775493	1,407	340,2324	1,245	85,806	0	1015,2	8,6	10,1	9,8	1	1	1	1	1	1	1	1	1	0	1	-20,930233	275,747071	306,883158	0
15.01.2021	13:38:05	0	86,016073	4,206983	1,5045	338,0292	1,252	85,818	0	1015,34	8,6	10,1	9,8	1	1	1	1	1	1	1	1	1	0	1	-21,705426	275,864414	306,666319	0
15.01.2021	13:38:06	0	86,016025	2,728854	1,57275	356,9112	1,241	85,808	0	1015,24	8,6	10,1	9,8	1	1	1	1	1	1	1	1	1	0	1	-20,295983	275,903686	308,262791	0
15.01.2021	13:38:07	0	86,133166	2,95626	1,6065	1,6488	1,244	85,792	0	1015,34	8,7	10,1	9,8	1	1	1	1	1	1	1	1	1	0	1	-21,846371	275,756822	306,013394	0
15.01.2021	13:38:08	0	86,133118	3,979582	1,743	354,6684	1,25	85,802	0	1015,38	8,7	10,1	9,8	1	1	1	1	1	1	1	1	1	0	1	-21,49401	275,877496	306,940028	0
15.01.2021	13:38:09	0	86,015882	3,297329	1,848	0,1116	1,252	85,797	0	1015,24	8,6	10,1	10	1	1	1	1	1	1	1	1	1	0	1	-18,745595	275,911878	309,852201	0
15.01.2021	13:38:10	0	86,367397	4,434393	1,89825	358,4232	1,247	85,797	0	1015,26	8,6	10,1	9,8	1	1	1	1	1	1	1	1	1	0	1	-18,604651	275,897135	309,92292	0
15.01.2021	13:38:11	0	86,132974	2,728858	1,83675	0,5688	1,247	85,802	0	1015,22	8,7	10,1	9,8	1	1	1	1	1	1	1	1	1	0	1	-23,11487	275,870954	305,288016	0
15.01.2021	13:38:12	0	86,484489	4,206991	1,73775	360	1,254	85,806	0	1015,38	8,6	10,1	9,8	1	1	1	1	1	1	1	1	1	0	1	-21,564482	275,740572	306,218008	0
15.01.2021	13:38:13	0	86,250066	4,661774	1,6965	0,1188	1,251	85,799	0	1015,18	8,6	10,1	9,9	1	1	1	1	1	1	1	1	1	0	1	-17,477097	275,849707	310,824631	0
15.01.2021	13:38:14	0	86,015643	3,411075	1,63425	0	1,252	85,803	0	1015,18	8,6	10,1	9,8	1	1	1	1	1	1	1	1	1	0	1	-19,027484	275,905324	309,539093	0
15.01.2021	13:38:15	0	86,132782	2,387725	1,61325	359,91	1,247	85,807	0	1015,36	8,6	10,1	10	1	1	1	1	1	1	1	1	1	0	1	-22,48062	275,794249	305,557173	0
15.01.2021	13:38:16	0	85,898359	3,06997	1,64025	355,3776	1,255	85,811	0	1015,32	8,6	10,1	9,8	1	1	1	1	1	1	1	1	1	0	1	-20,436927	275,738948	307,337839	0
15.01.2021	13:38:17	0	86,601436	4,54805	1,64175	350,2332	1,253	85,819	0	1015,2	8,6	10,1	10	1	1	1	1	1	1	1	1	1	0	1	-23,396758	275,805654	304,6953	0
15.01.2021	13:38:18	0	85,898264	2,728863	1,61475	356,0976	1,253	85,805	0	1015,24	8,6	10,1	9,8	1	1	1	1	1	1	1	1	1	0	1	-26,356589	275,920073	302,280249	0
15.01.2021	13:38:19	0	86,13259	3,297377	1,5945	346,428	1,258	85,807	0	1015,18	8,6	10,1	9,8	1	1	1	1	1	1	1	1	1	0	1	-20,014094	275,755197	307,837939	0
15.01.2021	13:38:20	0	86,249729	3,752189	1,65975	344,7144	1,25	85,8	0	1015,24	8,6	10,1	9,8	1	1	1	1	1	1	1	1	1	0	1	-18,816068	275,908601	309,766118	0
15.01.2021	13:38:21	0	86,132494	3,638487	1,69425	353,628	1,256	85,809	0	1015,18	8,6	10,1	9,8	1	1	1	1	1	1	1	1	1	0	1	-16,349542	275,931552	312,341988	0
15.01.2021	13:38:22	0	86,249633	3,524786	1,728	350,2692	1,255	85,81	0	1015,34	8,6	10,1	9,8	1	1	1	1	1	1	1	1	1	0	1	-21,212121	275,807284	306,887692	0
15.01.2021	13:38:23	0	86,249585	4,320706	1,74525	353,1852	1,258	85,817	0	1015,32	8,6	10,1	9,8	1	1	1	1	1	1	1	1	1	0	1	-22,48062	275,877496	305,953418	0
15.01.2021	13:38:24	0	86,015163	3,865896	1,7865	345,3408	1,259	85,815	0	1015,24	8,6	10,1	9,8	1	1	1	1	1	1	1	1	1	0	1	-20,5074	275,764952	307,391031	0
15.01.2021	13:38:25	0	86,483862	3,069977	1,79625	339,39	1,256	85,81	0	1015,28	8,6	10,1	9,8	1	1	1	1	1	1	1	1	1	0	1	-25,581395	275,918434	303,047633	0
15.01.2021	13:38:26	0	86,483814	4,206956	1,7625	334,2204	1,257	85,81	0	1015,26	8,6	10,1	10	1	1	1	1	1	1	1	1	1	0	1	-19,238901	275,797507	308,814393	0
15.01.2021	13:38:27	0	86,600952	4,889225	1,57875	321,804	1,261	85,81	0	1015,24	8,6	10,1	9,8	1	1	1	1	1	1	1	1	1	0	1	-24,242424	275,893861	304,26955	0
15.01.2021	13:38:28	0	86,014971	2,842557	1,4265	319,5828	1,261	85,807	0	1015,38	8,6	10,1	9,9	1	1	1	1	1	1	1	1	1	0	1	-21,49401	275,750321	306,334835	0
15.01.2021	13:38:29	0	85,897736	2,160331	1,4115	316,5984	1,259	85,81	0	1015,32	8,6	10,1	10	1	1	1	1	1	1	1	1	1	0	1	-19,027484	275,794249	309,010309	0
15.01.2021	13:38:30	0	85,780502	2,387763	1,32525	320,0004	1,257	85,806	0	1015,32	8,6	10,1	9,8	1	1	1	1	1	1	1	1	1	0	1	-20,155039	275,782851	307,828528	0
15.01.2021	13:38:31	0	86,366386	4,093285	1,23525	329,3388	1,264	85,809	0	1015,26	8,6	10,1	9,9	1	1	1	1	1	1	1	1	1	0	1	-23,678647	275,782851	304,304919	0
15.01.2021	13:38:32	0	86,249151	4,09331	1,28925	353,6388	1,258	85,818	0	1015,32	8,6	10,1	9,8	1	1	1	1	1	1	1	1	1	0	1	-21,212121	275,755197	306,639912	0
15.01.2021	13:38:33	0	86,600662	2,274062	1,365	349,5708	1,263	85,821	0	1015,36	8,7	10,1	9,8	1	1	1	1	1	1	1	1	1	0	1	-17,195208	275,820327	310,966676	0
15.01.2021	13:38:34	0	86,366241	4,093313	1,4535	346,4712	1,256	85,801	0	1015,28	8,6	10,1	9,8	1	1	1	1	1	1	1	1	1	0	1	-19,238901	275,926632	309,429185	0
15.01.2021	13:38:35	0	86,366192	5,116642	1,5555	346,932	1,264	85,813	0	1015,42	8,6	10,1	9,8	1	1	1	1	1	1	1	1	1	0	1	-22,410148	275,800765	305,658649	0
15.01.2021	13:38:36	0	86,48333	2,615158	1,6365	342,0576	1,256	85,807	0	1015,32	8,6	10,1	9,9	1	1	1	1	1	1	1	1	1	0	1	-21,49401	275,926632	307,174076	0
15.01.2021	13:38:37	0	86,366096	3,752206	1,57575	353,6316	1,257	85,816	0	1015,28	8,6	10,1	9,8	1	1	1	1	1	1	1	1	1	0	1	-20,85976	275,856242	307,473079	0
15.01.2021	13:38:38	0	86,248861	4,54813	1,482	350,352	1,263	85,817	0	1015,28	8,6	10,1	9,8	1	1	1	1	1	1	1	1	1	0	1	-17,054264	275,936474	311,660718	0
15.01.2021	13:38:39	0	86,365999	3,752186	1,45125	346,572	1,262	85,815	0	1015,2	8,6	10,1	9,9	1	1	1	1	1	1	1	1	1	0	1	-17,054264	275,869319	311,340836	0
15.01.2021	13:38:40	0	86,248764	3,752209	1,45875	355,1004	1,266	85,824	0	1015,24	8,6	10,1	9,8	1	1	1	1	1	1	1	1	1	0	1	-23,396758	275,756822	304,463006	0
15.01.2021	13:38:41	0	86,483088	4,43443	1,48275	351,0504	1,264	85,807	0	1015,18	8,6	10,1	9,8	1	1	1	1	1	1	1	1	1	0	1	-21,353066	275,867684	307,034249	0
15.01.2021	13:38:42	0	86,014296	3,865915	1,5915	360	1,268	85,826	0	1015,44	8,6	10,1	9,8	1	1	1	1	1	1	1	1	1	0	1	-20,366455	275,926632	308,301631	0
15.01.2021	13:38:43	0	86,014248	2,615163	1,67775	352,1736	1,27	85,832	0	1015,28	8,7	10,1	9,9	1	1	1	1	1	1	1	1	1	0	1	-19,732206	275,856242	308,600633	0
15.01.2021	13:38:44	0	86,365756	2,728866	1,7385	360	1,261	85,824	0	1015,34	8,6	10,1	9,9	1	1	1	1	1	1	1	1	1	0	1	-17,970402	275,929912	310,713313	0
15.01.2021	13:38:45	0	86,365708	4,32068	1,773	356,5944	1,266	85,821	0	1015,34	8,7	10,1	10	1	1	1	1	1	1	1	1	1	0	1	-18,957012	275,802395	309,119538	0
15.01.2021	13:38:46	0	86,482845	3,979575	1,7745	356,5908	1,273	85,824	0	1015,24	8,6	10,1	10	1	1	1	1	1	1	1	1	1	0	1	-21,071177	275,902048	307,479796	0
15.01.2021	13:38:47	0	86,365611	3,183661	1,77675	356,796	1,268	85,835	0	1015,32	8,6	10,1	10	1	1	1	1	1	1	1	1	1	0	1	-20,366455	275,831748	307,849782	0
15.01.2021	13:38:48	0	86,717118	4,661846	1,78125	351,7272	1,27	85,843	0	1015,36	8,6	10,1	9,8	1	1	1	1	1	1	1	1	1	0	1	-17,970402	275,934833	310,736762	0
15.01.2021	13:38:49	0	86,482699	2,615167	1,78275	354,3444	1,274	85,836	0	1015,24	8,6	10,1	9,9	1	1	1	1	1	1	1	1	1	0	1	-18,957012	275,820327	309,204872	0
15.01.2021	13:38:50	0	86,599835	4,207009	1,80675	351,7812	1,269	85,836	0	1015,16	8,7	10,1	9,9	1	1	1	1	1	1	1	1	1	0	1	-26,145173	275,934833	302,561991	0
15.01.2021	13:38:51	0	86,482602	3,297406	1,76775	353,6892	1,274	85,845	0	1015,26	8,6	10,1	9,8	1	1	1	1	1	1	1	1	1	0	1	-19,097956	275,802395	308,978593	0
15.01.2021	13:38:52	0	86,365368	4,54812	1,71375	355,0104	1,271	85,853	0	1015,26	8,6	10,1	9,9	1	1	1	1	1	1	1	1	1	0	1	-21,000705	275,856242	307,332134	0
15.01.2021	13:38:53	0	86,248134	2,615154	1,72125	347,6592	1,277	85,85	0	1015,2	8,6	10,1	10	1	1	1	1	1	1	1	1	1	0	1	-24,806202	275,936474	303,90878	0
15.01.2021	13:38:54	0	86,83401	4,320716	1,67175	351,1404	1,274	85,86	0	1015,32	8,6	10,1	9,9	1	1	1	1	1	1	1	1	1	0	1	-23,819591	275,849707	304,482137	0
15.01.2021	13:38:55	0	85,896483	2,956298	1,647	350,2476	1,276	85,84	0	1015,36	8,6	10,1	9,8	1	1	1	1	1	1	1	1	1	0	1	-21,916843	275,934833	306,790321	0
15.01.2021	13:38:56	0	86,247989	2,728875	1,64625	349,0164	1,274	85,853	0	1015,26	8,6	10,1	9,9	1	1	1	1	1	1	1	1	1	0	1	-22,057787	275,885677	306,415209	0
15.01.2021	13:38:57	0	86,365125	4,43445	1,668	353,2644	1,27	85,86	0	1015,36	8,6	10,1	9,8	1	1	1	1	1	1	1	1	1	0	1	-17,195208	275,88404	311,269995	0
15.01.2021	13:38:58	0	86,130707	3,411116	1,677	348,7248	1,278	85,857	0	1015,3	8,6	10,1	9,8	1	1	1	1	1	1	1	1	1	0	1	-17,758985	275,921712	310,885664	0
15.01.2021	13:38:59	0	86,833766	4,889238	1,66575	348,7248	1,277	85,861	0	1015,28	8,6	10,1	9,9	1	1	1	1	1	1	1	1	1	0	1	-18,181818	275,771459	309,74756	0
15.01.2021	13:39:00	0	86,482114	4,207021	1,60725	343,9512	1,279	85,873	0	1015,22	8,6	10,1	9,9	1	1	1	1	1	1	1	1	1	0	1	-19,309373	275,890587	309,187008	0
15.01.2021	13:39:01	0	86,482114	4,207021	1,60725	343,9512	1,279	85,873	0	1015,22	8,6	10,1	9,9	1	1	1	1	1	1	1	1	1	0	1	-19,943622	275,812174	308,179462	0
15.01.2021	13:39:02	0	86,247697	4,661836	1,62	344,7036	1,278	85,875	0	1015,22	8,6	10,1	9,9	1	1	1	1	1	1	1	1	1	0	1	-23,608175	275,941396	305,130265	0
15.01.2021	13:39:03	0	85,896095	2,501459	1,6965	347,6844	1,284	85,865	0	1015,32	8,6	10,1	10	1	1	1	1	1	1	1	1	1	0	1	-19,097956	275,779595	308,870124	0
15.01.2021	13:39:04	0	86,247599	2,615178	1,71375	344,3148	1,28	85,85	0	1015,28	8,6	10,1	9,9	1	1	1	1	1	1	1	1	1	0	1	-23,185342	275,794249	304,852451	0
15.01.2021	13:39:05	0	86,481919	4,434433	1,7085	343,1124	1,285	85,875	0	1015,4	8,6	10,1	9,9	1	1	1	1	1	1	1	1	1	0	1	-24,947146	275,885677	303,52585	0
15.01.2021	13:39:06	0	86,247502	2,728866	1,67775	342,4176	1,284	85,878	0	1015,22	8,6	10,1	10	1	1	1	1	1	1	1	1	1	0	1	-22,692037	275,763326	305,198659	0
15.01.2021	13:39:07	0	86,247453	3,069994	1,68975	347,688	1,289	85,868	0	1015,3	8,6	10,1	9,9	1	1	1	1	1	1	1	1	1	0	1	-23,044397	275,877496	305,38964	0
15.01.2021	13:39:08	0	86,013037	2,387788	1,68675	342,7992	1,291	85,866	0	1015,26	8,6	10,1	9,8	1	1	1	1	1	1	1	1	1	0	1	-21,353066	275,763326	306,537631	0
15.01.2021	13:39:09	0	86,481724	4,320734	1,635	346,0896	1,29	85,894	0	1015,3	8,6	10,1	9,9	1	1	1	1	1	1	1	1	1	0	1	-19,661734	275,864414	308,710012	0
15.01.2021	13:39:10	0	85,895756	2,387775	1,5495	347,2776	1,29	85,866	0	1015,22	8,6	10,1	9,9	1	1	1	1	1	1	1	1	1	0	1	-19,87315	275,941396	308,86529	0
15.01.2021	13:39:11	0	86,59881	3,069997	1,57125	342,3672	1,291	85,889	0	1015,4	8,6	10,1	9,9	1	1	1	1	1	1	1	1	1	0	1	-18,534179	275,790992	309,488117	0
15.01.2021	13:39:12	0	85,895658	2,50148	1,60725	351,3132	1,285	85,873	0	1015,3	8,6	10,1	9,9	1	1	1	1	1	1	1	1	1	0	1	-22,269204	275,768205	305,644699	0
15.01.2021	13:39:13	0	86,247161	4,320765	1,5495	346,5792	1,29	85,872	0	1015,22	8,6	10,1	9,8	1	1	1	1	1	1	1	1	1	0	1	-22,057787	275,857876	306,282832	0
15.01.2021	13:39:14	0	86,129928	3,297407	1,512	346,914	1,29	85,877	0	1015,32	8,6	10,1	9,9	1	1	1	1	1	1	1	1	1	0	1	-21,141649	275,766579	306,764518	0
15.01.2021	13:39:15	0	86,247063	2,728889	1,4865	339,5052	1,293	85,877	0	1015,22	8,6	10,1	9,9	1	1	1	1	1	1	1	1	1	0	1	-16,631431	275,838276	311,615883	0
15.01.2021	13:39:16	0	86,129831	4,775557	1,48575	339,4584	1,29	85,873	0	1015,3	8,6	10,1	9,9	1	1	1	1	1	1	1	1	1	0	1	-18,322763	275,760074	309,552466	0
15.01.2021	13:39:17	0	86,246965	2,956298	1,473	338,6952	1,292	85,847	0	1015,22	8,6	10,1	9,9	1	1	1	1	1	1	1	1	1	0	1	-20,85976	275,83338	307,364245	0
15.01.2021	13:39:18	0	86,481283	3,29741	1,45575	337,5648	1,292	85,865	0	1015,32	8,6	10,1	9,9	1	1	1	1	1	1	1	1	1	0	1	-24,594785	275,926632	304,073301	0
15.01.2021	13:39:19	0	86,246867	4,320746	1,446	328,1868	1,293	85,854	0	1015,34	8,6	10,1	9,9	1	1	1	1	1	1	1	1	1	0	1	-20,930233	275,880768	307,519386	0
15.01.2021	13:39:20	0	86,364002	3,183708	1,42425	327,8016	1,287	85,851	0	1015,3	8,6	10,1	9,9	1	1	1	1	1	1	1	1	1	0	1	-17,688513	275,782851	310,295053	0
15.01.2021	13:39:21	0	86,363953	4,093341	1,398	337,5396	1,297	85,856	0	1015,2	8,6	10,1	9,9	1	1	1	1	1	1	1	1	1	0	1	-24,594785	275,851341	303,714719	0
15.01.2021	13:39:22	0	85,660805	2,387783	1,38975	332,0316	1,291	85,852	0	1015,32	8,6	10,1	9,9	1	1	1	1	1	1	1	1	1	0	1	-24,242424	275,934833	304,464739	0
15.01.2021	13:39:23	0	86,246672	4,434455	1,40175	336,3732	1,289	85,852	0	1015,22	8,6	10,1	9,9	1	1	1	1	1	1	1	1	1	0	1	-18,957012	275,951246	309,828367	0
15.01.2021	13:39:24	0	86,246623	4,434456	1,37025	340,182	1,295	85,856	0	1015,34	8,6	10,1	9,9	1	1	1	1	1	1	1	1	1	0	1	-23,396758	275,890587	305,099622	0
15.01.2021	13:39:25	0	86,247178	3,524825	1,3905	340,9344	1,295	85,849	0	1015,36	8,6	10,2	9,9	1	1	1	1	1	1	1	1	1	0	1	-20,718816	275,943038	308,027445	0
15.01.2021	13:39:26	0	85,894976	3,865938	1,3725	341,7444	1,288	85,838	0	1015,3	8,6	10,1	9,9	1	1	1	1	1	1	1	1	1	0	1	-22,269204	275,931552	306,422327	0
15.01.2021	13:39:27	0	86,129896	2,956306	1,362	341,6328	1,297	85,842	0	1015,34	8,6	10,2	9,9	1	1	1	1	1	1	1	1	1	0	1	-17,124736	275,802395	310,951814	0
15.01.2021	13:39:28	0	86,012061	3,411124	1,32825	342,7668	1,3	85,85	0	1015,24	8,6	10,1	9,9	1	1	1	1	1	1	1	1	1	0	1	-19,520789	275,956173	309,28807	0
15.01.2021	13:39:29	0	86,36356	2,842604	1,311	339,4692	1,299	85,829	0	1015,2	8,6	10,1	9,9	1	1	1	1	1	1	1	1	1	0	1	-20,366455	275,77634	307,586142	0
15.01.2021	13:39:30	0	85,894781	4,207055	1,269	343,0188	1,295	85,839	0	1015,36	8,6	10,1	9,9	1	1	1	1	1	1	1	1	1	0	1	-24,453841	275,831748	303,762397	0
15.01.2021	13:39:31	0	86,364067	5,002986	1,269	345,7764	1,292	85,831	0	1015,26	8,6	10,2	9,9	1	1	1	1	1	1	1	1	1	0	1	-18,463707	275,947962	310,306023	0
15.01.2021	13:39:32	0	85,777501	2,95631	1,203	344,268	1,297	85,821	0	1015,36	8,6	10,1	9,9	1	1	1	1	1	1	1	1	1	0	1	-20,789288	275,851341	307,520216	0
15.01.2021	13:39:33	0	86,129602	3,070016	1,24125	337,1796	1,301	85,825	0	1015,26	8,6	10,2	9,9	1	1	1	1	1	1	1	1	1	0	1	-21,775899	275,943038	306,970363	0
15.01.2021	13:39:34	0	86,246132	2,728903	1,2915	343,1376	1,298	85,823	0	1015,2	8,6	10,1	9,9	1	1	1	1	1	1	1	1	1	0	1	-19,097956	275,838276	309,149357	0
15.01.2021	13:39:35	0	86,128901	2,728904	1,31175	341,694	1,299	85,794	0	1015,3	8,6	10,1	9,9	1	1	1	1	1	1	1	1	1	0	1	-24,735729	275,774713	303,209127	0
15.01.2021	13:39:36	0	86,128852	4,320766	1,28775	337,1652	1,295	85,811	0	1015,2	8,6	10,1	9,9	1	1	1	1	1	1	1	1	1	0	1	-18,745595	275,903686	309,813179	0
15.01.2021	13:39:37	0	86,011621	4,434472	1,29	337,1652	1,299	85,812	0	1015,38	8,6	10,1	9,9	1	1	1	1	1	1	1	1	1	0	1	-18,816068	275,797507	309,237226	0
15.01.2021	13:39:38	0	85,89439	3,07002	1,29825	342,342	1,301	85,801	0	1015,36	8,6	10,1	9,9	1	1	1	1	1	1	1	1	1	0	1	-20,648344	275,944679	308,105739	0
15.01.2021	13:39:39	0	86,128705	3,979656	1,29825	351,0864	1,292	85,795	0	1015,3	8,6	10,1	9,9	1	1	1	1	1	1	1	1	1	0	1	-21,282593	275,854608	307,042467	0
15.01.2021	13:39:40	0	86,011474	3,183726	1,27875	357,6924	1,301	85,789	0	1015,28	8,6	10,1	9,9	1	1	1	1	1	1	1	1	1	0	1	-20,436927	275,79262	307,593116	0
15.01.2021	13:39:41	0	86,12921	2,387795	1,3095	358,6968	1,298	85,766	0	1015,32	8,6	10,2	9,9	1	1	1	1	1	1	1	1	1	0	1	-18,88654	275,828484	309,314164	0
15.01.2021	13:39:42	0	86,011376	5,003001	1,37175	357,2028	1,301	85,775	0	1015,2	8,6	10,1	9,9	1	1	1	1	1	1	1	1	1	0	1	-21,353066	275,959458	307,471451	0
15.01.2021	13:39:43	0	86,128508	2,046683	1,347	358,7148	1,296	85,766	0	1015,26	8,6	10,1	9,9	1	1	1	1	1	1	1	1	1	0	1	-21,916843	275,908601	306,665342	0
15.01.2021	13:39:44	0	85,659733	2,501502	1,362	1,2564	1,299	85,76	0	1015,36	8,6	10,1	9,9	1	1	1	1	1	1	1	1	1	0	1	-21,141649	275,745446	306,664015	0
15.01.2021	13:39:45	0	86,246195	4,207072	1,3275	7,1244	1,298	85,764	0	1015,32	8,6	10,2	9,9	1	1	1	1	1	1	1	1	1	0	1	-22,198732	275,885677	306,274265	0
15.01.2021	13:39:46	0	85,894599	3,070027	1,278	348,0192	1,292	85,749	0	1015,26	8,6	10,2	9,9	1	1	1	1	1	1	1	1	1	0	1	-22,057787	275,795878	305,987755	0
15.01.2021	13:39:47	0	86,128915	3,524846	1,2495	341,676	1,297	85,737	0	1015,2	8,6	10,2	9,9	1	1	1	1	1	1	1	1	1	0	1	-21,916843	275,841542	306,346014	0
15.01.2021	13:39:48	0	85,894501	2,956323	1,245	346,6476	1,3	85,745	0	1015,14	8,6	10,2	9,9	1	1	1	1	1	1	1	1	1	0	1	-20,5074	275,758448	307,360097	0
15.01.2021	13:39:49	0	86,128213	3,070029	1,26225	349,416	1,301	85,73	0	1015,32	8,6	10,1	9,9	1	1	1	1	1	1	1	1	1	0	1	-21,705426	275,906962	306,868954	0
15.01.2021	13:39:50	0	85,893801	2,501506	1,32075	338,0292	1,299	85,728	0	1015,26	8,6	10,1	9,9	1	1	1	1	1	1	1	1	1	0	1	-22,48062	275,794249	305,557173	0
15.01.2021	13:39:51	0	85,425626	2,387802	1,32075	4,4532	1,302	85,721	0	1015,38	8,6	10,2	9,9	1	1	1	1	1	1	1	1	1	0	1	-24,383369	275,949604	304,394185	0
15.01.2021	13:39:52	0	86,128065	3,638556	1,27125	7,956	1,3	85,733	0	1015,26	8,6	10,1	9,9	1	1	1	1	1	1	1	1	1	0	1	-26,427061	275,807284	301,672752	0
15.01.2021	13:39:53	0	85,893654	5,116721	1,24125	356,6556	1,3	85,713	0	1015,22	8,6	10,1	9,9	1	1	1	1	1	1	1	1	1	0	1	-19,943622	275,818696	308,2105	0
15.01.2021	13:39:54	0	85,542062	4,775607	1,2105	2,6424	1,301	85,718	0	1015,18	8,6	10,1	9,9	1	1	1	1	1	1	1	1	1	0	1	-21,916843	275,756822	305,942922	0
15.01.2021	13:39:55	0	85,659194	3,070034	1,2045	360	1,297	85,703	0	1015,3	8,6	10,1	9,9	1	1	1	1	1	1	1	1	1	0	1	-18,816068	275,880768	309,633551	0
15.01.2021	13:39:56	0	86,127868	3,752265	1,22025	358,452	1,297	85,703	0	1015,24	8,6	10,1	9,9	1	1	1	1	1	1	1	1	1	0	1	-18,88654	275,959458	309,937977	0
15.01.2021	13:39:57	0	86,245603	4,775611	1,2405	357,624	1,301	85,687	0	1015,38	8,6	10,2	9,9	1	1	1	1	1	1	1	1	1	0	1	-19,450317	275,823589	308,727092	0
15.01.2021	13:39:58	0	86,127769	3,752267	1,2045	343,5372	1,297	85,686	0	1015,18	8,6	10,1	9,9	1	1	1	1	1	1	1	1	1	0	1	-19,450317	275,95453	309,350715	0
15.01.2021	13:39:59	0	85,541817	2,387807	1,19775	344,3544	1,3	85,681	0	1015,24	8,6	10,1	9,9	1	1	1	1	1	1	1	1	1	0	1	-20,295983	275,810544	307,819343	0
15.01.2021	13:40:00	0	86,011043	4,434501	1,15575	350,6976	1,296	85,662	0	1015,24	8,6	10,2	9,9	1	1	1	1	1	1	1	1	1	0	1	-21,705426	275,959458	307,11909	0
15.01.2021	13:40:01	0	86,011043	4,434501	1,15575	350,6976	1,296	85,662	0	1015,24	8,6	10,2	9,9	1	1	1	1	1	1	1	1	1	0	1	-22,269204	275,794249	305,768589	0
15.01.2021	13:40:02	0	86,010994	3,411156	1,10625	351,5976	1,297	85,681	0	1015,28	8,6	10,2	9,9	1	1	1	1	1	1	1	1	1	0	1	-26,356589	275,831748	301,859648	0
15.01.2021	13:40:03	0	86,010944	3,865978	1,09875	349,8624	1,299	85,68	0	1015,24	8,6	10,2	9,9	1	1	1	1	1	1	1	1	1	0	1	-23,46723	275,779595	304,50085	0
15.01.2021	13:40:04	0	85,893112	4,54821	1,0575	348,7932	1,303	85,652	0	1015,18	8,6	10,1	9,9	1	1	1	1	1	1	1	1	1	0	1	-19,450317	275,952888	309,342888	0
15.01.2021	13:40:05	0	86,244603	4,548211	1,02975	350,6976	1,294	85,659	0	1015,26	8,6	10,1	9,9	1	1	1	1	1	1	1	1	1	0	1	-19,450317	275,864414	308,921429	0
15.01.2021	13:40:06	0	85,541473	3,63857	0,98025	349,4448	1,302	85,656	0	1015,3	8,6	10,1	9,9	1	1	1	1	1	1	1	1	1	0	1	-24,242424	275,774713	303,702432	0
15.01.2021	13:40:07	0	86,127928	4,320803	0,98475	352,0548	1,301	85,648	0	1015,28	8,6	10,2	9,9	1	1	1	1	1	1	1	1	1	0	1	-20,014094	275,839909	308,24099	0
15.01.2021	13:40:08	0	85,893517	4,661921	0,9375	1,17	1,297	85,626	0	1015,3	8,6	10,2	9,9	1	1	1	1	1	1	1	1	1	0	1	-18,111346	275,903686	310,447428	0
15.01.2021	13:40:09	0	85,658506	2,387814	0,8895	2,6388	1,304	85,652	0	1015,36	8,6	10,1	9,9	1	1	1	1	1	1	1	1	1	0	1	-21,000705	275,951246	307,784674	0
15.01.2021	13:40:10	0	85,541277	3,638574	0,8865	351,774	1,3	85,637	0	1015,22	8,6	10,1	9,9	1	1	1	1	1	1	1	1	1	0	1	-17,547569	275,808914	310,560001	0
15.01.2021	13:40:11	0	85,892767	2,728931	0,891	343,5336	1,302	85,639	0	1015,32	8,6	10,1	9,9	1	1	1	1	1	1	1	1	1	0	1	-23,819591	275,768205	304,094312	0
15.01.2021	13:40:12	0	85,892717	4,775631	0,8895	346,176	1,3	85,62	0	1015,28	8,6	10,1	9,9	1	1	1	1	1	1	1	1	1	0	1	-21,282593	275,799136	306,778451	0
15.01.2021	13:40:13	0	85,658309	3,979694	0,8805	346,5756	1,3	85,63	0	1015,32	8,6	10,1	9,9	1	1	1	1	1	1	1	1	1	0	1	-17,89993	275,800765	310,168867	0
15.01.2021	13:40:14	0	85,4239	2,615228	0,90675	349,9344	1,303	85,614	0	1015,36	8,6	10,1	9,9	1	1	1	1	1	1	1	1	1	0	1	-21,071177	275,786107	306,927879	0
15.01.2021	13:40:15	0	85,541031	3,070051	0,9255	353,1672	1,297	85,608	0	1015,24	8,6	10,1	9,9	1	1	1	1	1	1	1	1	1	0	1	-19,520789	275,911878	309,077007	0
15.01.2021	13:40:16	0	85,54158	2,842641	0,9375	341,7732	1,303	85,614	0	1015,16	8,6	10,2	9,9	1	1	1	1	1	1	1	1	1	0	1	-19,027484	275,951246	309,757895	0
15.01.2021	13:40:17	0	85,775291	4,775638	0,93075	330,588	1,302	85,651	0	1015,24	8,6	10,1	9,9	1	1	1	1	1	1	1	1	1	0	1	-22,48062	275,903686	306,078154	0
15.01.2021	13:40:18	0	85,775842	5,116756	0,9615	347,6628	1,301	85,585	0	1015,2	8,6	10,2	9,9	1	1	1	1	1	1	1	1	1	0	1	-21,282593	275,931552	307,408937	0
15.01.2021	13:40:19	0	85,658013	4,320818	0,95175	351,1404	1,298	85,604	0	1015,38	8,6	10,1	9,9	1	1	1	1	1	1	1	1	1	0	1	-24,735729	275,913517	303,869874	0
15.01.2021	13:40:20	0	85,540784	2,842644	0,906	343,4544	1,301	85,595	0	1015,24	8,6	10,1	9,9	1	1	1	1	1	1	1	1	1	0	1	-24,876674	275,771459	303,052705	0
15.01.2021	13:40:21	0	85,775093	3,297468	0,91275	351,0504	1,298	85,596	0	1015,3	8,6	10,1	9,9	1	1	1	1	1	1	1	1	1	0	1	-22,339676	275,915155	306,273735	0
15.01.2021	13:40:22	0	85,775043	4,775645	0,92325	357,2424	1,296	85,589	0	1015,26	8,6	10,1	9,9	1	1	1	1	1	1	1	1	1	0	1	-21,846371	275,938114	306,87643	0
15.01.2021	13:40:23	0	85,775595	4,320822	0,894	358,4016	1,304	85,605	0	1015,34	8,6	10,2	9,9	1	1	1	1	1	1	1	1	1	0	1	-23,678647	275,813804	304,452195	0
15.01.2021	13:40:24	0	86,126481	3,752294	0,81375	347,9724	1,298	85,601	0	1015,14	8,6	10,1	9,9	1	1	1	1	1	1	1	1	1	0	1	-23,749119	275,949604	305,028435	0
15.01.2021	13:40:25	0	85,774895	3,524883	0,71925	342,1908	1,3	85,593	0	1015,08	8,7	10,1	9,9	1	1	1	1	1	1	1	1	1	0	1	-21,353066	275,923352	307,299395	0
15.01.2021	13:40:26	0	86,009805	4,889356	0,60525	340,2864	1,299	85,604	0	1015,26	8,6	10,2	9,9	1	1	1	1	1	1	1	1	1	0	1	-21,705426	275,768205	306,208477	0
15.01.2021	13:40:27	0	85,774796	2,956356	0,5895	349,1712	1,303	85,594	0	1015,18	8,6	10,1	9,9	1	1	1	1	1	1	1	1	1	0	1	-20,930233	275,823589	307,247177	0
15.01.2021	13:40:28	0	85,657568	3,070062	0,6255	358,4844	1,297	85,594	0	1015,4	8,6	10,1	9,9	1	1	1	1	1	1	1	1	1	0	1	-17,054264	275,951246	311,731115	0
15.01.2021	13:40:29	0	85,774697	3,524887	0,702	358,398	1,295	85,59	0	1015,12	8,7	10,1	9,9	1	1	1	1	1	1	1	1	1	0	1	-23,537703	275,893861	304,974272	0
15.01.2021	13:40:30	0	86,009004	4,093419	0,756	354,0348	1,298	85,589	0	1015,28	8,6	10,1	9,9	1	1	1	1	1	1	1	1	1	0	1	-21,071177	275,933192	307,62817	0
15.01.2021	13:40:31	0	85,891776	4,320832	0,81375	1,5372	1,304	85,604	0	1015,26	8,6	10,1	9,9	1	1	1	1	1	1	1	1	1	0	1	-16,560958	275,903686	311,997816	0
15.01.2021	13:40:32	0	85,54079	2,842654	0,8265	6,1308	1,297	85,589	0	1015,32	8,6	10,2	9,9	1	1	1	1	1	1	1	1	1	0	1	-20,436927	275,933192	308,262419	0
15.01.2021	13:40:33	0	85,540741	4,434541	0,852	7,8732	1,305	85,595	0	1015,22	8,6	10,2	9,9	1	1	1	1	1	1	1	1	1	0	1	-20,225511	275,882404	308,2319	0
15.01.2021	13:40:34	0	85,65787	3,183774	0,81075	13,9176	1,304	85,6	0	1015,24	8,6	10,2	9,9	1	1	1	1	1	1	1	1	1	0	1	-26,356589	275,784478	301,634721	0
15.01.2021	13:40:35	0	85,774399	4,548249	0,77325	11,7072	1,304	85,596	0	1015,22	8,6	10,1	9,9	1	1	1	1	1	1	1	1	1	0	1	-24,524313	275,844807	303,75409	0
15.01.2021	13:40:36	0	85,306235	2,72895	0,77025	359,9244	1,304	85,601	0	1015,32	8,6	10,2	9,9	1	1	1	1	1	1	1	1	1	0	1	-21,987315	275,956173	306,821544	0
15.01.2021	13:40:37	0	85,540543	4,093427	0,74775	355,0932	1,299	85,591	0	1015,26	8,7	10,2	9,9	1	1	1	1	1	1	1	1	1	0	1	-18,322763	275,841542	309,940094	0
15.01.2021	13:40:38	0	85,306136	3,183777	0,7455	358,0704	1,302	85,595	0	1015,32	8,6	10,2	9,9	1	1	1	1	1	1	1	1	1	0	1	-20,225511	275,763326	307,665185	0
15.01.2021	13:40:39	0	85,891378	3,75231	0,7575	358,4808	1,304	85,595	0	1015,4	8,6	10,1	9,9	1	1	1	1	1	1	1	1	1	0	1	-21,282593	275,887313	307,198197	0
15.01.2021	13:40:40	0	85,656973	3,752311	0,71775	358,7472	1,3	85,599	0	1015,4	8,6	10,1	9,9	1	1	1	1	1	1	1	1	1	0	1	-19,661734	275,969316	309,209775	0
15.01.2021	13:40:41	0	85,774702	3,752312	0,69675	1,9116	1,307	85,596	0	1015,26	8,6	10,2	9,9	1	1	1	1	1	1	1	1	1	0	1	-15,574348	275,890587	312,922033	0
15.01.2021	13:40:42	0	85,657473	4,661965	0,63825	1,9188	1,302	85,599	0	1015,46	8,6	10,2	9,9	1	1	1	1	1	1	1	1	1	0	1	-20,5074	275,956173	308,30146	0
15.01.2021	13:40:43	0	85,423067	3,183782	0,60375	1,548	1,3	85,589	0	1015,26	8,6	10,2	9,9	1	1	1	1	1	1	1	1	1	0	1	-22,692037	275,872589	305,718636	0
15.01.2021	13:40:44	0	85,423017	2,728957	0,594	3,8736	1,303	85,59	0	1015,36	8,6	10,2	9,9	1	1	1	1	1	1	1	1	1	0	1	-22,973925	275,784478	305,017385	0
15.01.2021	13:40:45	0	85,773902	4,207143	0,5895	7,1208	1,303	85,579	0	1015,22	8,7	10,1	9,9	1	1	1	1	1	1	1	1	1	0	1	-24,171952	275,903686	304,386822	0
15.01.2021	13:40:46	0	85,657274	4,66197	0,5805	7,1208	1,313	85,593	0	1015,36	8,7	10,2	9,9	1	1	1	1	1	1	1	1	1	0	1	-22,269204	275,779595	305,698876	0
15.01.2021	13:40:47	0	85,422868	2,956372	0,5535	7,5204	1,303	85,573	0	1015,32	8,6	10,2	9,9	1	1	1	1	1	1	1	1	1	0	1	-19,027484	275,795878	309,018059	0
15.01.2021	13:40:48	0	85,539398	4,434559	0,57075	7,5096	1,31	85,574	0	1015,36	8,6	10,1	9,9	1	1	1	1	1	1	1	1	1	0	1	-19,309373	275,895498	309,2104	0
15.01.2021	13:40:49	0	85,657125	4,093441	0,5745	4,0824	1,309	85,575	0	1015,4	8,6	10,2	9,9	1	1	1	1	1	1	1	1	1	0	1	-18,816068	275,794249	309,221725	0
15.01.2021	13:40:50	0	85,891431	2,956375	0,56175	357,7176	1,308	85,578	0	1015,38	8,6	10,2	9,9	1	1	1	1	1	1	1	1	1	0	1	-19,379845	275,906962	309,194536	0
15.01.2021	13:40:51	0	85,657026	3,524909	0,5715	353,3004	1,306	85,578	0	1015,34	8,7	10,2	9,9	1	1	1	1	1	1	1	1	1	0	1	-20,5074	275,77634	307,445197	0
15.01.2021	13:40:52	0	85,304845	3,297497	0,579	359,496	1,311	85,567	0	1015,36	8,6	10,1	9,9	1	1	1	1	1	1	1	1	1	0	1	-22,339676	275,920073	306,297162	0
15.01.2021	13:40:53	0	85,773503	4,434566	0,58575	3,7656	1,307	85,558	0	1015,36	8,6	10,1	9,9	1	1	1	1	1	1	1	1	1	0	1	-23,819591	275,961101	305,012755	0
15.01.2021	13:40:54	0	85,774054	3,183792	0,567	1,5444	1,306	85,563	0	1015,36	8,6	10,2	9,9	1	1	1	1	1	1	1	1	1	0	1	-24,171952	275,828484	304,028752	0
15.01.2021	13:40:55	0	85,305293	2,046724	0,56325	354,6432	1,304	85,612	0	1015,26	8,6	10,2	9,9	1	1	1	1	1	1	1	1	1	0	1	-20,85976	275,972604	308,027418	0
15.01.2021	13:40:56	0	85,773954	4,77569	0,55575	347,3064	1,303	85,546	0	1015,24	8,7	10,2	9,9	1	1	1	1	1	1	1	1	1	0	1	-25,229035	275,877496	303,205003	0
15.01.2021	13:40:57	0	85,656126	2,842673	0,52575	343,548	1,308	85,531	0	1015,26	8,7	10,1	9,9	1	1	1	1	1	1	1	1	1	0	1	-18,604651	275,964386	310,243358	0
15.01.2021	13:40:58	0	85,773854	4,434572	0,53325	340,5744	1,307	85,549	0	1015,26	8,7	10,2	9,9	1	1	1	1	1	1	1	1	1	0	1	-22,551092	275,921712	306,093557	0
15.01.2021	13:40:59	0	85,773203	2,615261	0,51675	344,1456	1,306	85,541	0	1015,32	8,7	10,1	9,9	1	1	1	1	1	1	1	1	1	0	1	-16,490486	275,808914	311,617083	0
15.01.2021	13:41:00	0	85,890881	4,775697	0,5295	358,7472	1,305	85,529	0	1015,36	8,6	10,2	9,9	1	1	1	1	1	1	1	1	1	0	1	-20,648344	275,813804	307,482498	0
15.01.2021	13:41:01	0	85,890881	4,775697	0,5295	358,7472	1,305	85,529	0	1015,36	8,6	10,2	9,9	1	1	1	1	1	1	1	1	1	0	1	-19,097956	275,961101	309,73439	0
15.01.2021	13:41:02	0	85,187768	2,501556	0,50025	1,5408	1,306	85,536	0	1015,34	8,6	10,2	9,9	1	1	1	1	1	1	1	1	1	0	1	-21,916843	275,800765	306,151954	0
15.01.2021	13:41:03	0	85,773003	2,615264	0,47925	2,3796	1,303	85,524	0	1015,18	8,7	10,1	9,9	1	1	1	1	1	1	1	1	1	0	1	-18,463707	275,812174	309,659377	0
15.01.2021	13:41:04	0	85,5392	2,956386	0,48375	358,362	1,301	85,526	0	1015,3	8,7	10,2	9,9	1	1	1	1	1	1	1	1	1	0	1	-20,5074	275,911878	308,090397	0
15.01.2021	13:41:05	0	85,53915	5,003117	0,4305	352,7892	1,309	85,517	0	1015,44	8,6	10,2	9,9	1	1	1	1	1	1	1	1	1	0	1	-23,537703	275,923352	305,114758	0
15.01.2021	13:41:06	0	85,421325	4,207167	0,40875	351,2268	1,31	85,52	0	1015,36	8,6	10,1	9,9	1	1	1	1	1	1	1	1	1	0	1	-23,960536	275,959458	304,863981	0
15.01.2021	13:41:07	0	85,421873	2,615267	0,3495	350,6652	1,305	85,52	0	1015,3	8,6	10,2	9,9	1	1	1	1	1	1	1	1	1	0	1	-19,309373	275,821958	308,860274	0
15.01.2021	13:41:08	0	85,18747	2,50156	0,35025	353,2104	1,302	85,512	0	1015,3	8,6	10,2	9,9	1	1	1	1	1	1	1	1	1	0	1	-20,436927	275,96603	308,418914	0
15.01.2021	13:41:09	0	85,421774	2,501561	0,31275	357,2748	1,309	85,518	0	1015,46	8,7	10,2	9,9	1	1	1	1	1	1	1	1	1	0	1	-20,295983	275,88404	308,16922	0
15.01.2021	13:41:10	0	85,304547	2,842684	0,33375	358,5168	1,305	85,504	0	1015,26	8,7	10,2	9,9	1	1	1	1	1	1	1	1	1	0	1	-16,631431	275,799136	311,429614	0
15.01.2021	13:41:11	0	85,655427	4,093466	0,336	355,392	1,3	85,51	0	1015,24	8,6	10,1	9,9	1	1	1	1	1	1	1	1	1	0	1	-20,014094	275,869319	308,381005	0
15.01.2021	13:41:12	0	85,304447	2,842686	0,32175	348,0156	1,302	85,512	0	1015,26	8,7	10,2	9,9	1	1	1	1	1	1	1	1	1	0	1	-16,067653	275,786107	311,931402	0
15.01.2021	13:41:13	0	85,655927	2,842686	0,297	340,9056	1,306	85,522	0	1015,36	8,6	10,2	9,9	1	1	1	1	1	1	1	1	1	0	1	-17,970402	275,880768	310,479217	0
15.01.2021	13:41:14	0	85,5387	3,524932	0,33375	338,5152	1,31	85,504	0	1015,58	8,6	10,2	9,9	1	1	1	1	1	1	1	1	1	0	1	-19,661734	275,982469	309,272475	0
15.01.2021	13:41:15	0	85,773003	3,411226	0,33825	339,4728	1,299	85,516	0	1015,3	8,7	10,2	9,9	1	1	1	1	1	1	1	1	1	0	1	-19,168428	275,817066	308,977933	0
15.01.2021	13:41:16	0	85,655176	2,842689	0,3675	345,096	1,299	85,519	0	1015,26	8,6	10,1	9,9	1	1	1	1	1	1	1	1	1	0	1	-21,141649	275,794249	306,896144	0
15.01.2021	13:41:17	0	85,772902	3,070105	0,36375	349,4736	1,303	85,515	0	1015,26	8,7	10,2	9,9	1	1	1	1	1	1	1	1	1	0	1	-21,705426	275,787735	306,301375	0
15.01.2021	13:41:18	0	85,5385	3,638644	0,36075	347,3676	1,311	85,517	0	1015,36	8,7	10,2	9,9	1	1	1	1	1	1	1	1	1	0	1	-24,947146	275,854608	303,377914	0
15.01.2021	13:41:19	0	85,655026	3,979768	0,342	342,432	1,308	85,525	0	1015,2	8,7	10,1	9,9	1	1	1	1	1	1	1	1	1	0	1	-22,48062	275,924992	306,179653	0
15.01.2021	13:41:20	0	86,007103	4,548307	0,369	342,3528	1,307	85,508	0	1015,3	8,7	10,2	9,9	1	1	1	1	1	1	1	1	1	0	1	-22,621564	275,967673	306,24211	0
15.01.2021	13:41:21	0	85,889877	3,638647	0,387	342,3852	1,31	85,525	0	1015,34	8,7	10,2	9,9	1	1	1	1	1	1	1	1	1	0	1	-20,718816	275,852974	307,598466	0
15.01.2021	13:41:22	0	85,5377	3,866063	0,38475	340,1388	1,306	85,519	0	1015,3	8,6	10,1	9,9	1	1	1	1	1	1	1	1	1	0	1	-22,410148	275,931552	306,281382	0
15.01.2021	13:41:23	0	85,538249	2,615279	0,357	335,3544	1,305	85,516	0	1015,24	8,6	10,2	9,9	1	1	1	1	1	1	1	1	1	0	1	-22,057787	275,97096	306,821556	0
15.01.2021	13:41:24	0	86,240649	4,548312	0,37275	324,4608	1,31	85,514	0	1015,2	8,7	10,1	9,9	1	1	1	1	1	1	1	1	1	0	1	-25,08809	275,88895	303,400495	0
15.01.2021	13:41:25	0	85,538149	4,320898	0,38175	315,4932	1,311	85,521	0	1015,24	8,6	10,2	9,9	1	1	1	1	1	1	1	1	1	0	1	-21,916843	275,799136	306,144202	0
15.01.2021	13:41:26	0	85,655274	2,501573	0,42075	314,3952	1,31	85,516	0	1015,32	8,7	10,2	9,9	1	1	1	1	1	1	1	1	1	0	1	-20,225511	275,910239	308,364479	0
15.01.2021	13:41:27	0	85,772399	3,183821	0,4515	322,6752	1,307	85,519	0	1015,28	8,7	10,2	9,9	1	1	1	1	1	1	1	1	1	0	1	-24,242424	275,984114	304,699626	0
15.01.2021	13:41:28	0	86,006699	3,29753	0,444	327,7836	1,309	85,509	0	1015,24	8,7	10,2	9,9	1	1	1	1	1	1	1	1	1	0	1	-21,987315	275,870954	306,41557	0
15.01.2021	13:41:29	0	85,186422	4,320903	0,4725	332,766	1,308	85,511	0	1015,32	8,7	10,2	9,9	1	1	1	1	1	1	1	1	1	0	1	-23,11487	275,993985	305,874244	0
15.01.2021	13:41:30	0	86,240345	4,54832	0,47625	334,3176	1,312	85,504	0	1015,24	8,7	10,1	9,9	1	1	1	1	1	1	1	1	1	0	1	-20,014094	275,821958	308,155552	0
15.01.2021	13:41:31	0	85,772198	3,183825	0,459	329,7096	1,313	85,526	0	1015,16	8,6	10,2	9,9	1	1	1	1	1	1	1	1	1	0	1	-19,591261	275,795878	308,454281	0
15.01.2021	13:41:32	0	85,537198	2,95641	0,4485	321,8868	1,31	85,502	0	1015,36	8,7	10,1	9,9	1	1	1	1	1	1	1	1	1	0	1	-23,044397	275,794249	304,993395	0
15.01.2021	13:41:33	0	85,88867	3,070119	0,40875	316,6884	1,311	85,5	0	1015,28	8,7	10,1	9,9	1	1	1	1	1	1	1	1	1	0	1	-22,339676	275,941396	306,398764	0
15.01.2021	13:41:34	0	85,537696	2,387871	0,39975	315,9828	1,317	85,525	0	1015,18	8,7	10,2	9,9	1	1	1	1	1	1	1	1	1	0	1	-22,903453	275,826852	305,289485	0
15.01.2021	13:41:35	0	85,889171	4,32091	0,36225	318,1824	1,315	85,501	0	1015,26	8,7	10,2	9,9	1	1	1	1	1	1	1	1	1	0	1	-23,11487	275,820327	305,047014	0
15.01.2021	13:41:36	0	85,771945	1,933039	0,351	320,3676	1,308	85,506	0	1015,24	8,7	10,2	9,9	1	1	1	1	1	1	1	1	1	0	1	-24,524313	275,88404	303,94089	0
15.01.2021	13:41:37	0	85,65472	2,956414	0,3465	321,8796	1,309	85,524	0	1015,18	8,7	10,2	9,9	1	1	1	1	1	1	1	1	1	0	1	-24,453841	275,795878	303,591702	0
15.01.2021	13:41:38	0	85,65467	4,662039	0,408	323,3124	1,311	85,528	0	1015,32	8,7	10,2	9,9	1	1	1	1	1	1	1	1	1	0	1	-21,282593	275,972604	307,604585	0
15.01.2021	13:41:39	0	86,122714	3,524957	0,47475	325,9944	1,313	85,529	0	1015,3	8,7	10,1	9,9	1	1	1	1	1	1	1	1	1	0	1	-18,604651	275,843175	309,665978	0
15.01.2021	13:41:40	0	85,654569	4,77575	0,498	334,2528	1,314	85,525	0	1015,24	8,7	10,2	9,9	1	1	1	1	1	1	1	1	1	0	1	-18,322763	275,974248	310,572252	0
15.01.2021	13:41:41	0	86,123216	4,662043	0,46875	343,1808	1,314	85,52	0	1015,22	8,7	10,2	9,9	1	1	1	1	1	1	1	1	1	0	1	-22,551092	275,944679	306,202991	0
15.01.2021	13:41:42	0	85,771642	4,320919	0,45525	354,258	1,317	85,527	0	1015,38	8,7	10,2	9,9	1	1	1	1	1	1	1	1	1	0	1	-20,366455	275,799136	307,694589	0
15.01.2021	13:41:43	0	86,123115	4,662045	0,4635	6,4188	1,315	85,52	0	1015,22	8,7	10,2	9,9	1	1	1	1	1	1	1	1	1	0	1	-20,789288	275,838276	307,458025	0
15.01.2021	13:41:44	0	85,771541	3,524962	0,4635	6,066	1,317	85,514	0	1015,28	8,7	10,2	9,9	1	1	1	1	1	1	1	1	1	0	1	-19,168428	275,993985	309,820685	0
15.01.2021	13:41:45	0	85,771491	4,775756	0,45075	358,4268	1,312	85,515	0	1015,14	8,7	10,2	9,9	1	1	1	1	1	1	1	1	1	0	1	-24,242424	275,951246	304,542955	0
15.01.2021	13:41:46	0	85,537092	4,889466	0,477	347,6412	1,319	85,506	0	1015,3	8,7	10,2	9,9	1	1	1	1	1	1	1	1	1	0	1	-22,198732	275,962743	306,641446	0
15.01.2021	13:41:47	0	85,770788	2,842714	0,498	345,384	1,321	85,51	0	1015,12	8,7	10,1	9,9	1	1	1	1	1	1	1	1	1	0	1	-21,634954	275,962743	307,205223	0
15.01.2021	13:41:48	0	86,005687	3,411258	0,47025	353,286	1,321	85,514	0	1015,28	8,7	10,2	9,9	1	1	1	1	1	1	1	1	1	0	1	-20,789288	275,903686	307,769486	0
15.01.2021	13:41:49	0	86,005636	2,956424	0,44175	358,4268	1,319	85,524	0	1015,24	8,7	10,2	9,9	1	1	1	1	1	1	1	1	1	0	1	-20,295983	275,815435	307,842618	0
15.01.2021	13:41:50	0	86,122759	5,116889	0,4275	358,6608	1,318	85,514	0	1015,26	8,7	10,2	9,9	1	1	1	1	1	1	1	1	1	0	1	-22,410148	275,849707	305,89158	0
15.01.2021	13:41:51	0	85,88836	4,548347	0,4605	359,5032	1,32	85,512	0	1015,42	8,7	10,2	9,9	1	1	1	1	1	1	1	1	1	0	1	-20,85976	275,835012	307,372014	0
15.01.2021	13:41:52	0	85,88831	2,842718	0,49125	0,2268	1,325	85,524	0	1015,16	8,7	10,2	9,9	1	1	1	1	1	1	1	1	1	0	1	-22,903453	275,982469	306,030755	0
15.01.2021	13:41:53	0	86,122606	3,979806	0,45975	360	1,322	85,503	0	1015,12	8,7	10,2	9,9	1	1	1	1	1	1	1	1	1	0	1	-21,705426	275,997276	307,299382	0
15.01.2021	13:41:54	0	86,239125	4,434642	0,44025	355,3992	1,319	85,503	0	1015,22	8,7	10,1	9,9	1	1	1	1	1	1	1	1	1	0	1	-17,829457	275,854608	310,495603	0
15.01.2021	13:41:55	0	85,888157	2,501594	0,429	349,9308	1,321	85,507	0	1015,4	8,7	10,2	9,9	1	1	1	1	1	1	1	1	1	0	1	-18,25229	275,815435	309,886311	0
15.01.2021	13:41:56	0	86,00528	1,93305	0,462	348,9624	1,322	85,5	0	1015,26	8,7	10,2	9,9	1	1	1	1	1	1	1	1	1	0	1	-19,520789	275,813804	308,610053	0
15.01.2021	13:41:57	0	85,888056	3,07014	0,417	352,7892	1,32	85,507	0	1015,28	8,7	10,2	9,9	1	1	1	1	1	1	1	1	1	0	1	-23,11487	275,913517	305,490733	0
15.01.2021	13:41:58	0	86,005178	4,662093	0,43725	356,9616	1,322	85,494	0	1015,34	8,7	10,2	9,8	1	1	1	1	1	1	1	1	1	0	1	-21,705426	275,998922	307,30723	0
15.01.2021	13:41:59	0	86,005127	4,434649	0,42225	353,5632	1,317	85,502	0	1015,3	8,7	10,2	9,9	1	1	1	1	1	1	1	1	1	0	1	-19,309373	275,812174	308,813711	0
15.01.2021	13:42:00	0	85,887251	2,842725	0,38325	335,0016	1,326	85,506	0	1015,32	8,7	10,1	9,9	1	1	1	1	1	1	1	1	1	0	1	-20,225511	275,97096	308,653832	0
15.01.2021	13:42:01	0	85,887251	2,842725	0,38325	335,0016	1,326	85,506	0	1015,32	8,7	10,1	9,9	1	1	1	1	1	1	1	1	1	0	1	-18,88654	275,995631	310,11042	0
15.01.2021	13:42:02	0	86,238716	2,956435	0,41775	337,536	1,322	85,5	0	1015,22	8,7	10,1	9,9	1	1	1	1	1	1	1	1	1	0	1	-21,141649	275,870954	307,261236	0
15.01.2021	13:42:03	0	85,887149	3,070145	0,40875	346,2444	1,326	85,49	0	1015,24	8,7	10,1	9,9	1	1	1	1	1	1	1	1	1	0	1	-19,168428	275,990694	309,804994	0
15.01.2021	13:42:04	0	86,122045	3,070127	0,4515	349,0956	1,325	85,484	0	1015,14	8,7	10,2	10	1	1	1	1	1	1	1	1	1	0	1	-24,031008	275,951246	304,754371	0
15.01.2021	13:42:05	0	86,121994	4,093529	0,45525	348,2784	1,319	85,501	0	1015,26	8,7	10,2	9,9	1	1	1	1	1	1	1	1	1	0	1	-17,336152	275,995631	311,660808	0
15.01.2021	13:42:06	0	86,121943	2,842729	0,4485	358,4268	1,323	85,489	0	1015,38	8,7	10,2	9,9	1	1	1	1	1	1	1	1	1	0	1	-20,225511	275,885677	308,247485	0
15.01.2021	13:42:07	0	86,121289	4,662077	0,47175	6,4224	1,33	85,505	0	1015,18	8,7	10,1	9,9	1	1	1	1	1	1	1	1	1	0	1	-19,379845	275,817066	308,766517	0
15.01.2021	13:42:08	0	86,121841	3,752405	0,435	8,5896	1,345	85,5	0	1015,46	8,7	10,2	9,9	1	1	1	1	1	1	1	1	1	0	1	-16,490486	275,885677	311,98251	0
15.01.2021	13:42:09	0	85,886843	3,07015	0,414	8,262	1,33	85,499	0	1015,28	8,7	10,1	9,9	1	1	1	1	1	1	1	1	1	0	1	-19,943622	275,990694	309,0298	0
15.01.2021	13:42:10	0	86,238911	3,524988	0,39225	0,4824	1,326	85,498	0	1015,32	8,7	10,2	9,9	1	1	1	1	1	1	1	1	1	0	1	-20,930233	275,852974	307,387049	0
15.01.2021	13:42:11	0	86,121687	2,501605	0,3915	349,0416	1,325	85,503	0	1015,3	8,7	10,2	9,9	1	1	1	1	1	1	1	1	1	0	1	-20,930233	275,933192	307,769114	0
15.01.2021	13:42:12	0	86,355981	4,320956	0,3675	338,3892	1,324	85,503	0	1015,42	8,7	10,2	9,9	1	1	1	1	1	1	1	1	1	0	1	-20,5074	275,997276	308,497408	0
15.01.2021	13:42:13	0	86,00381	3,638701	0,387	339,2532	1,328	85,517	0	1015,28	8,7	10,1	9,9	1	1	1	1	1	1	1	1	1	0	1	-19,379845	275,849707	308,921883	0
15.01.2021	13:42:14	0	86,47305	4,320958	0,35775	348,4044	1,33	85,498	0	1015,3	8,7	10,2	9,9	1	1	1	1	1	1	1	1	1	0	1	-18,534179	275,88404	309,931024	0
15.01.2021	13:42:15	0	85,769966	3,070156	0,375	5,2236	1,33	85,502	0	1015,24	8,7	10,2	9,9	1	1	1	1	1	1	1	1	1	0	1	-21,564482	275,990694	307,40894	0
15.01.2021	13:42:16	0	86,237999	3,866123	0,363	16,47	1,327	85,503	0	1015,3	8,7	10,1	9,9	1	1	1	1	1	1	1	1	1	0	1	-25,72234	275,951246	303,063039	0
15.01.2021	13:42:17	0	86,237948	4,434672	0,3915	10,44	1,323	85,494	0	1015,26	8,7	10,1	9,9	1	1	1	1	1	1	1	1	1	0	1	-20,930233	275,820327	307,231651	0
15.01.2021	13:42:18	0	86,355068	2,729029	0,4545	359,2764	1,32	85,492	0	1015,32	8,7	10,1	9,9	1	1	1	1	1	1	1	1	1	0	1	-19,943622	275,893861	308,568352	0
15.01.2021	13:42:19	0	86,23845	4,093545	0,49275	347,634	1,327	85,501	0	1015,3	8,7	10,2	9,9	1	1	1	1	1	1	1	1	1	0	1	-19,87315	275,823589	308,304259	0
15.01.2021	13:42:20	0	86,237794	3,524998	0,50925	345,1212	1,328	85,512	0	1015,2	8,7	10,1	9,9	1	1	1	1	1	1	1	1	1	0	1	-21,423538	275,880768	307,026081	0
15.01.2021	13:42:21	0	86,121175	2,729015	0,5355	349,9236	1,33	85,503	0	1015,24	8,7	10,2	10	1	1	1	1	1	1	1	1	1	0	1	-20,789288	275,817066	307,357073	0
15.01.2021	13:42:22	0	86,121124	2,95647	0,54	355,374	1,328	85,504	0	1015,3	8,7	10,2	9,8	1	1	1	1	1	1	1	1	1	0	1	-22,410148	275,898773	306,125223	0
15.01.2021	13:42:23	0	86,355416	4,889518	0,5745	355,05	1,331	85,495	0	1015,32	8,7	10,2	9,9	1	1	1	1	1	1	1	1	1	0	1	-16,349542	276,005508	312,694516	0
15.01.2021	13:42:24	0	86,589707	4,434681	0,6135	351,4752	1,327	85,507	0	1015,18	8,7	10,2	9,9	1	1	1	1	1	1	1	1	1	0	1	-23,326286	275,962743	305,513891	0
15.01.2021	13:42:25	0	86,355313	2,046776	0,61575	360	1,329	85,509	0	1015,3	8,7	10,2	9,9	1	1	1	1	1	1	1	1	1	0	1	-21,846371	275,839909	306,408714	0
15.01.2021	13:42:26	0	86,354656	4,320973	0,61725	6,0696	1,332	85,507	0	1015,28	8,7	10,1	9,9	1	1	1	1	1	1	1	1	1	0	1	-17,829457	275,985759	311,120434	0
15.01.2021	13:42:27	0	86,237434	2,615327	0,63825	359,8308	1,332	85,505	0	1015,44	8,7	10,1	9,9	1	1	1	1	1	1	1	1	1	0	1	-21,564482	275,857876	306,776137	0
15.01.2021	13:42:28	0	86,471724	4,548396	0,64425	350,3772	1,33	85,523	0	1015,28	8,7	10,1	9,9	1	1	1	1	1	1	1	1	1	0	1	-18,534179	275,826852	309,658759	0
15.01.2021	13:42:29	0	86,589449	4,548424	0,645	352,1484	1,328	85,514	0	1015,44	8,7	10,2	9,8	1	1	1	1	1	1	1	1	1	0	1	-22,057787	275,941396	306,680653	0
15.01.2021	13:42:30	0	86,120713	4,207268	0,6435	355,5288	1,335	85,516	0	1015,26	8,7	10,2	9,9	1	1	1	1	1	1	1	1	1	0	1	-25,08809	275,817066	303,058271	0
15.01.2021	13:42:31	0	86,237228	2,84275	0,672	357,2172	1,334	85,502	0	1015,16	8,7	10,1	9,9	1	1	1	1	1	1	1	1	1	0	1	-19,87315	275,924992	308,787123	0
15.01.2021	13:42:32	0	86,471517	2,72904	0,66525	1,17	1,331	85,507	0	1015	8,7	10,1	9,9	1	1	1	1	1	1	1	1	1	0	1	-24,242424	275,848074	304,051528	0
15.01.2021	13:42:33	0	86,471465	3,411322	0,6615	359,1576	1,331	85,523	0	1015,22	8,7	10,1	9,8	1	1	1	1	1	1	1	1	1	0	1	-19,591261	275,921712	309,053387	0
15.01.2021	13:42:34	0	86,823532	4,320983	0,68025	354,7008	1,328	85,517	0	1015,2	8,7	10,2	9,9	1	1	1	1	1	1	1	1	1	0	1	-22,057787	275,826852	306,135151	0
15.01.2021	13:42:35	0	86,82348	4,434695	0,71325	351,3708	1,339	85,533	0	1015,44	8,7	10,2	9,9	1	1	1	1	1	1	1	1	1	0	1	-25,158562	275,90041	303,384609	0
15.01.2021	13:42:36	0	86,354141	2,387928	0,71925	351,0324	1,34	85,545	0	1015,28	8,7	10,1	9,8	1	1	1	1	1	1	1	1	1	0	1	-21,423538	275,946321	307,338368	0
15.01.2021	13:42:37	0	86,822768	4,093591	0,717	350,2008	1,336	85,534	0	1015,3	8,7	10,1	9,8	1	1	1	1	1	1	1	1	1	0	1	-18,745595	275,995631	310,251365	0
15.01.2021	13:42:38	0	86,822716	4,434725	0,72675	336,7476	1,33	85,541	0	1015,42	8,7	10,1	9,8	1	1	1	1	1	1	1	1	1	0	1	-22,128259	275,936474	306,586722	0
15.01.2021	13:42:39	0	86,588325	3,979859	0,747	342,2628	1,339	85,515	0	1015,12	8,7	10,1	9,9	1	1	1	1	1	1	1	1	1	0	1	-17,89993	276,018685	311,20697	0
15.01.2021	13:42:40	0	86,939781	4,548384	0,77775	359,9964	1,339	85,542	0	1015,22	8,7	10,1	10	1	1	1	1	1	1	1	1	1	0	1	-23,255814	275,929912	305,427901	0
15.01.2021	13:42:41	0	86,588221	3,297599	0,78225	357,6888	1,343	85,536	0	1015,26	8,7	10,1	9,9	1	1	1	1	1	1	1	1	1	0	1	-18,040874	275,826852	310,152064	0
15.01.2021	13:42:42	0	86,822508	4,548387	0,7965	346,0608	1,343	85,547	0	1015,34	8,7	10,1	10	1	1	1	1	1	1	1	1	1	0	1	-17,758985	275,906962	310,815396	0
15.01.2021	13:42:43	0	86,353779	2,842777	0,7995	347,9724	1,337	85,542	0	1015,22	8,7	10,1	9,8	1	1	1	1	1	1	1	1	1	0	1	-19,520789	275,835012	308,710985	0
15.01.2021	13:42:44	0	86,588672	4,0936	0,795	344,0376	1,34	85,539	0	1015,2	8,7	10,2	9,8	1	1	1	1	1	1	1	1	1	0	1	-21,49401	275,867684	306,893304	0
15.01.2021	13:42:45	0	86,939521	4,434707	0,834	332,4528	1,341	85,533	0	1015,18	8,7	10,1	9,9	1	1	1	1	1	1	1	1	1	0	1	-23,326286	275,838276	304,921028	0
15.01.2021	13:42:46	0	86,8223	3,070183	0,8415	342,0324	1,338	85,543	0	1015,2	8,7	10,1	9,9	1	1	1	1	1	1	1	1	1	0	1	-20,225511	275,97096	308,653832	0
15.01.2021	13:42:47	0	86,822248	4,207289	0,798	360	1,345	85,557	0	1015,18	8,7	10,1	9,9	1	1	1	1	1	1	1	1	1	0	1	-22,903453	275,85951	305,444946	0
15.01.2021	13:42:48	0	86,587858	4,093555	0,76125	357,6168	1,346	85,557	0	1015,18	8,7	10,1	10	1	1	1	1	1	1	1	1	1	0	1	-15,574348	275,906962	313,000033	0
15.01.2021	13:42:49	0	86,704975	2,956457	0,684	344,6892	1,345	85,548	0	1015,3	8,7	10,1	10	1	1	1	1	1	1	1	1	1	0	1	-23,537703	275,843175	304,732927	0
15.01.2021	13:42:50	0	87,056429	4,434687	0,63375	335,7576	1,345	85,558	0	1015,22	8,7	10,1	10	1	1	1	1	1	1	1	1	1	0	1	-18,181818	275,998922	310,830838	0
15.01.2021	13:42:51	0	86,822039	4,548426	0,58725	334,6344	1,339	85,556	0	1015,12	8,7	10,1	9,9	1	1	1	1	1	1	1	1	1	0	1	-20,648344	276,008801	308,41142	0
15.01.2021	13:42:52	0	86,821987	2,956478	0,57825	338,7132	1,342	85,548	0	1015,28	8,7	10,1	9,9	1	1	1	1	1	1	1	1	1	0	1	-17,829457	275,913517	310,776146	0
15.01.2021	13:42:53	0	86,939713	4,321007	0,60375	343,1268	1,342	85,559	0	1015,28	8,7	10,2	9,9	1	1	1	1	1	1	1	1	1	0	1	-18,463707	276,012095	310,611765	0
15.01.2021	13:42:54	0	86,704715	4,093587	0,57075	349,074	1,345	85,566	0	1015,3	8,7	10,1	9,9	1	1	1	1	1	1	1	1	1	0	1	-19,168428	275,952888	309,624776	0
15.01.2021	13:42:55	0	87,056168	4,775824	0,576	359,7336	1,346	85,578	0	1015,24	8,7	10,1	10	1	1	1	1	1	1	1	1	1	0	1	-21,353066	275,839909	306,902019	0
15.01.2021	13:42:56	0	86,938947	2,387941	0,5805	1,1664	1,352	85,57	0	1015,24	8,7	10,1	9,8	1	1	1	1	1	1	1	1	1	0	1	-15,362932	275,938114	313,359869	0
15.01.2021	13:42:57	0	86,704558	4,662173	0,5805	2,6208	1,354	85,573	0	1015,26	8,7	10,1	9,8	1	1	1	1	1	1	1	1	1	0	1	-18,393235	276,018685	310,713665	0
15.01.2021	13:42:58	0	86,821674	3,638726	0,6	4,0716	1,35	85,57	0	1015,38	8,7	10,1	10	1	1	1	1	1	1	1	1	1	0	1	-16,560958	275,885677	311,912038	0
15.01.2021	13:42:59	0	86,587286	3,525059	0,57825	6,4332	1,357	85,567	0	1015,42	8,7	10,1	9,8	1	1	1	1	1	1	1	1	1	0	1	-22,339676	276,026925	306,806526	0
15.01.2021	13:43:00	0	86,821518	3,183926	0,5925	342,3924	1,349	85,577	0	1015,32	8,7	10,1	9,8	1	1	1	1	1	1	1	1	1	0	1	-17,547569	276,03352	311,63009	0
15.01.2021	13:43:01	0	86,821518	3,183926	0,5925	342,3924	1,349	85,577	0	1015,32	8,7	10,1	9,8	1	1	1	1	1	1	1	1	1	0	1	-17,547569	276,03352	311,63009	0
15.01.2021	13:43:02	0	87,055801	3,866198	0,54525	340,6032	1,359	85,578	0	1015,34	8,7	10,1	9,8	1	1	1	1	1	1	1	1	1	0	1	-20,648344	275,908601	307,933841	0
15.01.2021	13:43:03	0	87,055749	3,866199	0,5745	347,2416	1,353	85,589	0	1015,38	8,7	10,1	9,8	1	1	1	1	1	1	1	1	1	0	1	-21,141649	275,857876	307,19897	0
15.01.2021	13:43:04	0	86,821361	2,16051	0,54825	348,7464	1,353	85,594	0	1015,18	8,8	10,1	9,9	1	1	1	1	1	1	1	1	1	0	1	-21,282593	275,826852	306,910345	0
15.01.2021	13:43:05	0	87,056254	3,297642	0,57075	349,0164	1,357	85,588	0	1015,22	8,7	10,2	9,8	1	1	1	1	1	1	1	1	1	0	1	-19,379845	275,895498	309,139927	0
15.01.2021	13:43:06	0	86,704089	4,662185	0,52875	348,3936	1,361	85,592	0	1015,36	8,7	10,1	9,8	1	1	1	1	1	1	1	1	1	0	1	-19,943622	276,030222	309,218306	0
15.01.2021	13:43:07	0	86,821204	2,729085	0,52725	348,7248	1,354	85,594	0	1015,32	8,7	10,1	9,8	1	1	1	1	1	1	1	1	1	0	1	-21,212121	275,913517	307,393482	0
15.01.2021	13:43:08	0	86,821152	4,321	0,50325	348,03	1,357	85,587	0	1015,26	8,8	10,1	10	1	1	1	1	1	1	1	1	1	0	1	-19,732206	276,035169	309,453319	0
15.01.2021	13:43:09	0	86,938267	2,842798	0,46275	344,8008	1,36	85,598	0	1015,32	8,7	10,1	9,8	1	1	1	1	1	1	1	1	1	0	1	-20,155039	275,951246	308,63034	0
15.01.2021	13:43:10	0	86,938214	4,889614	0,47925	342,432	1,355	85,586	0	1015,24	8,7	10,1	9,8	1	1	1	1	1	1	1	1	1	0	1	-16,349542	275,972604	312,537637	0
15.01.2021	13:43:11	0	86,469492	2,8428	0,48675	339,8976	1,364	85,584	0	1015,3	8,7	10,1	9,8	1	1	1	1	1	1	1	1	1	0	1	-17,054264	275,854608	311,270796	0
15.01.2021	13:43:12	0	86,820942	2,50165	0,48525	339,4224	1,351	85,596	0	1015,26	8,7	10,1	9,9	1	1	1	1	1	1	1	1	1	0	1	-22,339676	275,97918	306,578853	0
15.01.2021	13:43:13	0	87,289558	4,321032	0,5235	340,9668	1,364	85,608	0	1015,3	8,8	10,1	9,9	1	1	1	1	1	1	1	1	1	0	1	-20,930233	276,008801	308,129531	0
15.01.2021	13:43:14	0	86,820837	2,842785	0,5055	337,5504	1,365	85,597	0	1015,36	8,7	10,1	9,9	1	1	1	1	1	1	1	1	1	0	1	-17,758985	275,957815	311,057702	0
15.01.2021	13:43:15	0	86,703618	2,615347	0,56025	327,402	1,368	85,586	0	1015,3	8,7	10,1	10	1	1	1	1	1	1	1	1	1	0	1	-18,604651	276,043416	310,620216	0
15.01.2021	13:43:16	0	86,586398	2,615348	0,5415	321,8076	1,358	85,605	0	1015,32	8,7	10,1	10	1	1	1	1	1	1	1	1	1	0	1	-20,084567	275,83338	308,139439	0
15.01.2021	13:43:17	0	86,703513	2,842805	0,53475	324,4104	1,357	85,59	0	1015,12	8,7	10,1	9,8	1	1	1	1	1	1	1	1	1	0	1	-22,903453	275,893861	305,608521	0
15.01.2021	13:43:18	0	87,172128	3,411326	0,53625	334,9404	1,364	85,59	0	1015,26	8,8	10,1	10	1	1	1	1	1	1	1	1	1	0	1	-22,692037	276,012095	306,383436	0
15.01.2021	13:43:19	0	87,054908	3,411327	0,5805	336,0636	1,365	85,602	0	1015,32	8,7	10,1	10	1	1	1	1	1	1	1	1	1	0	1	-20,014094	275,885677	308,458902	0
15.01.2021	13:43:20	0	86,820522	4,321041	0,5925	330,426	1,367	85,604	0	1015,28	8,7	10,1	9,9	1	1	1	1	1	1	1	1	1	0	1	-19,379845	276,007154	309,672065	0
15.01.2021	13:43:21	0	87,406303	4,77586	0,6165	335,3436	1,365	85,604	0	1015,26	8,7	10,1	10	1	1	1	1	1	1	1	1	1	0	1	-23,749119	275,96603	305,106722	0
15.01.2021	13:43:22	0	87,05475	3,525083	0,6165	348,3936	1,365	85,603	0	1015,28	8,8	10,1	9,8	1	1	1	1	1	1	1	1	1	0	1	-19,168428	275,849707	309,133299	0
15.01.2021	13:43:23	0	86,937531	2,615354	0,6075	358,416	1,371	85,592	0	1015,3	8,7	10,1	10	1	1	1	1	1	1	1	1	1	0	1	-20,930233	275,936474	307,784749	0
15.01.2021	13:43:24	0	86,937479	2,61537	0,57225	355,3488	1,367	85,583	0	1015,28	8,7	10,1	9,9	1	1	1	1	1	1	1	1	1	0	1	-19,520789	275,88895	308,967796	0
15.01.2021	13:43:25	0	87,054592	4,434733	0,54825	351,0684	1,372	85,609	0	1015,3	8,7	10,1	10	1	1	1	1	1	1	1	1	1	0	1	-18,111346	275,87586	310,314903	0
15.01.2021	13:43:26	0	87,288872	4,207312	0,534	355,3884	1,368	85,594	0	1015,38	8,7	10,1	10	1	1	1	1	1	1	1	1	1	0	1	-18,816068	275,96603	310,039774	0
15.01.2021	13:43:27	0	86,702988	2,95649	0,48	355,3452	1,368	85,594	0	1015,42	8,7	10,1	10	1	1	1	1	1	1	1	1	1	0	1	-21,282593	275,831748	306,933644	0
15.01.2021	13:43:28	0	87,1716	2,956491	0,48825	348,0552	1,364	85,576	0	1015,2	8,7	10,1	10	1	1	1	1	1	1	1	1	1	0	1	-14,164905	275,964386	314,683104	0
15.01.2021	13:43:29	0	86,937215	3,75247	0,4695	342,0288	1,369	85,574	0	1015,24	8,8	10,1	10	1	1	1	1	1	1	1	1	1	0	1	-19,238901	276,040117	309,970227	0
15.01.2021	13:43:30	0	87,054329	4,207317	0,51375	345,8052	1,371	85,576	0	1015,3	8,8	10,1	10	1	1	1	1	1	1	1	1	1	0	1	-24,453841	275,88895	304,034744	0
15.01.2021	13:43:31	0	87,054276	4,321029	0,507	351,3852	1,367	85,566	0	1015,3	8,7	10,1	10	1	1	1	1	1	1	1	1	1	0	1	-19,027484	276,038467	310,173775	0
15.01.2021	13:43:32	0	87,054223	4,66222	0,51675	353,2896	1,37	85,575	0	1015,24	8,7	10,1	9,8	1	1	1	1	1	1	1	1	1	0	1	-20,789288	275,929912	307,894426	0
15.01.2021	13:43:33	0	86,819839	2,956495	0,55275	355,734	1,377	85,572	0	1015,46	8,7	10,1	10	1	1	1	1	1	1	1	1	1	0	1	-20,648344	275,857876	307,692275	0
15.01.2021	13:43:34	0	87,171283	4,321085	0,53475	358,6788	1,366	85,554	0	1015,2	8,7	10,1	9,8	1	1	1	1	1	1	1	1	1	0	1	-20,084567	275,980824	308,841802	0
15.01.2021	13:43:35	0	87,054064	4,889591	0,5415	4,4496	1,365	85,547	0	1015,18	8,7	10,1	10	1	1	1	1	1	1	1	1	1	0	1	-21,564482	275,984114	307,377568	0
15.01.2021	13:43:36	0	86,937455	4,434747	0,5355	13,9032	1,373	85,558	0	1015,22	8,7	10,2	10	1	1	1	1	1	1	1	1	1	0	1	-19,802678	275,866049	308,576852	0
15.01.2021	13:43:37	0	86,819628	2,615364	0,582	16,0812	1,363	85,542	0	1015,18	8,8	10,1	10	1	1	1	1	1	1	1	1	1	0	1	-19,097956	275,952888	309,695249	0
15.01.2021	13:43:38	0	86,70241	2,615365	0,6285	12,0924	1,375	85,546	0	1015,3	8,7	10,1	10	1	1	1	1	1	1	1	1	1	0	1	-23,11487	276,040117	306,094258	0
15.01.2021	13:43:39	0	86,702357	3,070212	0,6615	3,4632	1,373	85,549	0	1015,28	8,7	10,1	10	1	1	1	1	1	1	1	1	1	0	1	-19,027484	275,990694	309,945938	0
15.01.2021	13:43:40	0	86,819469	2,729078	0,7035	355,86	1,375	85,539	0	1015,28	8,8	10,1	10	1	1	1	1	1	1	1	1	1	0	1	-19,732206	275,838276	308,515108	0
15.01.2021	13:43:41	0	87,053747	2,387944	0,83025	350,0388	1,376	85,551	0	1015,32	8,7	10,1	10	1	1	1	1	1	1	1	1	1	0	1	-21,846371	275,926632	306,821715	0
15.01.2021	13:43:42	0	87,170859	4,662178	0,9165	351,3744	1,377	85,549	0	1015,3	8,7	10,1	10	1	1	1	1	1	1	1	1	1	0	1	-17,829457	276,003861	311,206749	0
15.01.2021	13:43:43	0	86,936476	4,548468	0,93675	360	1,372	85,531	0	1015,22	8,6	10,1	10	1	1	1	1	1	1	1	1	1	0	1	-23,11487	275,877496	305,319168	0
15.01.2021	13:43:44	0	87,053588	3,070217	0,9345	15,39	1,375	85,545	0	1015,26	8,8	10,1	10	1	1	1	1	1	1	1	1	1	0	1	-19,802678	275,880768	308,646941	0
15.01.2021	13:43:45	0	86,70204	2,61537	0,936	9,342	1,372	85,539	0	1015,32	8,7	10,1	10	1	1	1	1	1	1	1	1	1	0	1	-22,762509	275,869319	305,632591	0
15.01.2021	13:43:46	0	86,936317	2,956507	0,92925	3,8484	1,37	85,525	0	1015,06	8,8	10,1	10	1	1	1	1	1	1	1	1	1	0	1	-22,410148	275,882404	306,047262	0
15.01.2021	13:43:47	0	86,936264	4,662185	0,924	5,1624	1,379	85,523	0	1015,36	8,8	10,1	10	1	1	1	1	1	1	1	1	1	0	1	-19,027484	275,87586	309,398764	0
15.01.2021	13:43:48	0	87,170541	4,775927	0,85425	360	1,381	85,542	0	1015,46	8,7	10,1	9,9	1	1	1	1	1	1	1	1	1	0	1	-20,577872	276,045066	308,654866	0
15.01.2021	13:43:49	0	87,404817	4,889611	0,76125	349,9956	1,376	85,541	0	1015,42	8,7	10,1	10	1	1	1	1	1	1	1	1	1	0	1	-20,295983	276,041766	308,921014	0
15.01.2021	13:43:50	0	87,287599	4,548477	0,7185	339,4836	1,386	85,541	0	1015,28	8,7	10,1	10	1	1	1	1	1	1	1	1	1	0	1	-19,87315	275,984114	309,0689	0
15.01.2021	13:43:51	0	86,936053	2,956511	0,726	339,1164	1,379	85,539	0	1015,24	8,8	10,1	10	1	1	1	1	1	1	1	1	1	0	1	-16,208598	275,893861	312,303377	0
15.01.2021	13:43:52	0	86,584506	4,093681	0,7065	346,572	1,383	85,541	0	1015,22	8,8	10,1	9,8	1	1	1	1	1	1	1	1	1	0	1	-20,436927	276,025277	308,701412	0
15.01.2021	13:43:53	0	87,053111	4,548481	0,69225	346,8456	1,391	85,555	0	1015,24	8,7	10,1	10	1	1	1	1	1	1	1	1	1	0	1	-19,309373	276,050016	309,946983	0
15.01.2021	13:43:54	0	87,053058	2,842802	0,669	338,1156	1,382	85,535	0	1015,12	8,8	10,1	10	1	1	1	1	1	1	1	1	1	0	1	-20,577872	275,916794	308,043347	0
15.01.2021	13:43:55	0	87,170169	3,979923	0,64125	333,8532	1,383	85,557	0	1015,1	8,8	10,1	10	1	1	1	1	1	1	1	1	1	0	1	-20,436927	276,045066	308,795811	0
15.01.2021	13:43:56	0	87,170116	4,207349	0,62475	336,834	1,381	85,536	0	1015,4	8,8	10,1	10	1	1	1	1	1	1	1	1	1	0	1	-20,295983	275,88895	308,192602	0
15.01.2021	13:43:57	0	86,81857	3,297653	0,63225	336,1392	1,38	85,54	0	1015,26	8,7	10,1	10	1	1	1	1	1	1	1	1	1	0	1	-18,463707	275,910239	310,126284	0
15.01.2021	13:43:58	0	86,818517	4,093639	0,609	336,0204	1,382	85,529	0	1015,3	8,8	10,1	10	1	1	1	1	1	1	1	1	1	0	1	-18,957012	276,045066	310,275726	0
15.01.2021	13:43:59	0	86,584136	2,956518	0,59175	339,7608	1,383	85,552	0	1015,32	8,8	10,1	10	1	1	1	1	1	1	1	1	1	0	1	-21,564482	275,959458	307,260035	0
15.01.2021	13:44:00	0	86,935522	2,842807	0,63225	334,9404	1,385	85,539	0	1015,28	8,7	10,1	10	1	1	1	1	1	1	1	1	1	0	1	-19,097956	275,861145	309,258224	0
15.01.2021	13:44:01	0	86,935522	2,842807	0,63225	334,9404	1,385	85,539	0	1015,28	8,7	10,1	10	1	1	1	1	1	1	1	1	1	0	1	-18,534179	275,992339	310,447089	0
15.01.2021	13:44:02	0	86,584584	2,842842	0,69	335,3976	1,382	85,562	0	1015,26	8,8	10,2	9,8	1	1	1	1	1	1	1	1	1	0	1	-19,379845	276,05827	309,91589	0
15.01.2021	13:44:03	0	86,701088	2,842809	0,72	343,6056	1,385	85,544	0	1015,28	8,8	10,1	10	1	1	1	1	1	1	1	1	1	0	1	-17,406624	275,869319	310,988475	0
15.01.2021	13:44:04	0	87,169689	4,662208	0,7785	332,0208	1,387	85,557	0	1015,2	8,7	10,1	10	1	1	1	1	1	1	1	1	1	0	1	-17,124736	275,920073	311,512102	0
15.01.2021	13:44:05	0	87,052473	4,775922	0,82875	322,65	1,382	85,547	0	1015,28	8,8	10,1	10	1	1	1	1	1	1	1	1	1	0	1	-19,802678	276,054968	309,477303	0
15.01.2021	13:44:06	0	86,818093	2,729099	0,85575	333,3852	1,388	85,559	0	1015,26	8,8	10,1	10	1	1	1	1	1	1	1	1	1	0	1	-18,745595	275,921712	309,899053	0
15.01.2021	13:44:07	0	87,052366	4,662212	0,8595	343,1664	1,391	85,566	0	1015,3	8,8	10,1	10	1	1	1	1	1	1	1	1	1	0	1	-21,000705	276,051667	308,263525	0
15.01.2021	13:44:08	0	86,93515	4,093651	0,81975	337,6296	1,385	85,569	0	1015,28	8,7	10,1	10	1	1	1	1	1	1	1	1	1	0	1	-16,701903	276,041766	312,515094	0
15.01.2021	13:44:09	0	87,287197	4,548503	0,783	330,1164	1,392	85,557	0	1015,26	8,7	10,2	10	1	1	1	1	1	1	1	1	1	0	1	-20,930233	276,031871	308,23956	0
15.01.2021	13:44:10	0	86,818488	3,411378	0,786	330,8004	1,394	85,569	0	1015,26	8,6	10,2	10	1	1	1	1	1	1	1	1	1	0	1	-19,309373	276,008801	309,750391	0
15.01.2021	13:44:11	0	86,935599	3,070241	0,75525	334,1448	1,389	85,564	0	1015,1	8,7	10,2	10	1	1	1	1	1	1	1	1	1	0	1	-20,014094	275,933192	308,685252	0
15.01.2021	13:44:12	0	86,817774	4,434794	0,75975	339,9048	1,393	85,566	0	1015,28	8,7	10,1	10	1	1	1	1	1	1	1	1	1	0	1	-18,675123	276,041766	310,541874	0
15.01.2021	13:44:13	0	86,818328	3,070243	0,71475	349,0812	1,395	85,561	0	1015,3	8,7	10,2	10	1	1	1	1	1	1	1	1	1	0	1	-20,225511	275,997276	308,779297	0
15.01.2021	13:44:14	0	86,583948	2,956531	0,7035	352,548	1,395	85,556	0	1015,24	8,7	10,2	10	1	1	1	1	1	1	1	1	1	0	1	-21,353066	275,869319	307,042034	0
15.01.2021	13:44:15	0	87,051939	3,866234	0,67425	351,378	1,397	85,573	0	1015,26	8,7	10,1	10	1	1	1	1	1	1	1	1	1	0	1	-19,309373	276,023628	309,821106	0
15.01.2021	13:44:16	0	86,701005	3,070246	0,65325	347,2524	1,398	85,568	0	1015,24	8,7	10,2	10	1	1	1	1	1	1	1	1	1	0	1	-20,225511	275,892224	308,278666	0
15.01.2021	13:44:17	0	86,817507	3,070247	0,6165	346,5792	1,392	85,569	0	1015,22	8,7	10,1	10	1	1	1	1	1	1	1	1	1	0	1	-17,26568	276,020333	311,849078	0
15.01.2021	13:44:18	0	86,934617	2,501683	0,60375	347,274	1,394	85,553	0	1015,24	8,7	10,1	10	1	1	1	1	1	1	1	1	1	0	1	-18,463707	275,90041	310,079464	0
15.01.2021	13:44:19	0	86,466519	2,842823	0,53625	356,238	1,389	85,564	0	1015,2	8,7	10,2	10	1	1	1	1	1	1	1	1	1	0	1	-16,138125	276,013742	312,945202	0
15.01.2021	13:44:20	0	86,817955	3,070249	0,50625	360	1,394	85,566	0	1015,32	8,7	10,2	10	1	1	1	1	1	1	1	1	1	0	1	-19,450317	275,911878	309,147479	0
15.01.2021	13:44:21	0	86,583576	3,07025	0,492	347,5584	1,394	85,572	0	1015,32	8,7	10,2	10	1	1	1	1	1	1	1	1	1	0	1	-21,071177	275,887313	307,409613	0
15.01.2021	13:44:22	0	86,935012	5,003372	0,51075	321,1164	1,4	85,563	0	1015,32	8,8	10,2	10	1	1	1	1	1	1	1	1	1	0	1	-17,054264	275,921712	311,590385	0
15.01.2021	13:44:23	0	86,700632	4,662235	0,498	308,5272	1,398	85,559	0	1015,14	8,7	10,2	10	1	1	1	1	1	1	1	1	1	0	1	-17,195208	276,054968	312,084773	0
15.01.2021	13:44:24	0	87,052068	4,889662	0,5115	318,492	1,397	85,566	0	1015,34	8,7	10,2	10	1	1	1	1	1	1	1	1	1	0	1	-17,829457	276,045066	311,403281	0
15.01.2021	13:44:25	0	86,934243	3,638819	0,465	342,054	1,399	85,569	0	1015,32	8,8	10,1	10	1	1	1	1	1	1	1	1	1	0	1	-19,87315	275,995631	309,12381	0
15.01.2021	13:44:26	0	87,051351	5,003378	0,47475	5,67	1,393	85,547	0	1015,22	8,7	10,1	10	1	1	1	1	1	1	1	1	1	0	1	-17,054264	276,038467	312,146995	0
15.01.2021	13:44:27	0	87,051298	4,889666	0,46575	13,9068	1,398	85,566	0	1015,3	8,7	10,1	10	1	1	1	1	1	1	1	1	1	0	1	-20,648344	275,956173	308,160515	0
15.01.2021	13:44:28	0	86,348878	2,274264	0,441	11,1816	1,392	85,553	0	1015,2	8,7	10,2	10	1	1	1	1	1	1	1	1	1	0	1	-20,014094	276,068179	309,328922	0
15.01.2021	13:44:29	0	86,58315	4,775956	0,41325	360	1,399	85,561	0	1015,24	8,7	10,2	10	1	1	1	1	1	1	1	1	1	0	1	-20,366455	275,984114	308,575595	0
15.01.2021	13:44:30	0	86,583097	4,093678	0,402	343,1268	1,402	85,561	0	1015,14	8,7	10,2	10	1	1	1	1	1	1	1	1	1	0	1	-21,634954	275,957815	307,181733	0
15.01.2021	13:44:31	0	86,348718	2,387979	0,3675	337,9644	1,404	85,565	0	1015,28	8,7	10,2	10	1	1	1	1	1	1	1	1	1	0	1	-19,661734	275,924992	308,998539	0
15.01.2021	13:44:32	0	86,700152	2,72912	0,40425	346,1688	1,399	85,553	0	1015,24	8,7	10,2	10	1	1	1	1	1	1	1	1	1	0	1	-18,463707	275,890587	310,032674	0
15.01.2021	13:44:33	0	87,051586	5,003389	0,372	357,3612	1,402	85,563	0	1015,22	8,7	10,2	10	1	1	1	1	1	1	1	1	1	0	1	-22,410148	276,002215	306,618207	0
15.01.2021	13:44:34	0	86,465721	2,842835	0,38625	5,7672	1,409	85,559	0	1015,38	8,7	10,2	10	1	1	1	1	1	1	1	1	1	0	1	-21,071177	275,885677	307,401819	0
15.01.2021	13:44:35	0	86,231343	2,274269	0,38475	13,5432	1,405	85,548	0	1015,16	8,7	10,2	10	1	1	1	1	1	1	1	1	1	0	1	-16,27907	275,997276	312,725738	0
15.01.2021	13:44:36	0	86,348452	4,321112	0,32775	12,4668	1,407	85,541	0	1015,22	8,7	10,2	10	1	1	1	1	1	1	1	1	1	0	1	-18,604651	276,071483	310,754132	0
15.01.2021	13:44:37	0	86,464955	2,729124	0,3375	0,4824	1,403	85,556	0	1015,32	8,7	10,1	10	1	1	1	1	1	1	1	1	1	0	1	-19,802678	275,974248	309,092337	0
15.01.2021	13:44:38	0	86,348346	3,183979	0,3195	344,3328	1,411	85,557	0	1015,24	8,7	10,2	10	1	1	1	1	1	1	1	1	1	0	1	-16,983791	275,903686	311,574983	0
15.01.2021	13:44:39	0	86,81694	4,548543	0,29175	323,6688	1,405	85,558	0	1015,3	8,7	10,2	10	1	1	1	1	1	1	1	1	1	0	1	-18,816068	276,007154	310,235843	0
15.01.2021	13:44:40	0	86,816886	2,84284	0,29025	310,3164	1,412	85,556	0	1015,28	8,7	10,2	10	1	1	1	1	1	1	1	1	1	0	1	-16,842847	275,90041	311,700324	0
15.01.2021	13:44:41	0	86,582509	3,75255	0,31125	305,4456	1,405	85,549	0	1015,36	8,8	10,2	10	1	1	1	1	1	1	1	1	1	0	1	-20,155039	275,97918	308,76349	0
15.01.2021	13:44:42	0	86,348133	2,729128	0,36075	301,2804	1,407	85,542	0	1015,26	8,7	10,2	10	1	1	1	1	1	1	1	1	1	0	1	-19,097956	275,895498	309,421816	0
15.01.2021	13:44:43	0	86,699564	2,615415	0,38925	293,6844	1,408	85,531	0	1015,26	8,7	10,2	10	1	1	1	1	1	1	1	1	1	0	1	-20,366455	275,993985	308,622658	0
15.01.2021	13:44:44	0	86,230864	2,274275	0,39225	286,704	1,406	85,557	0	1015,28	8,7	10,2	10	1	1	1	1	1	1	1	1	1	0	1	-19,87315	276,071483	309,485633	0
15.01.2021	13:44:45	0	86,816618	4,434838	0,40125	284,8356	1,409	85,545	0	1015,26	8,7	10,2	10	1	1	1	1	1	1	1	1	1	0	1	-23,11487	276,025277	306,02347	0
15.01.2021	13:44:46	0	86,347919	4,434839	0,40425	292,2516	1,414	85,555	0	1015,2	8,7	10,2	10	1	1	1	1	1	1	1	1	1	0	1	-20,155039	275,895498	308,364734	0
15.01.2021	13:44:47	0	86,582188	3,411416	0,39	311,778	1,411	85,549	0	1015,1	8,7	10,2	10	1	1	1	1	1	1	1	1	1	0	1	-23,890063	276,05827	305,405671	0
15.01.2021	13:44:48	0	86,11349	2,615419	0,3975	332,4024	1,415	85,551	0	1015,38	8,7	10,2	10	1	1	1	1	1	1	1	1	1	0	1	-20,789288	275,902048	307,761684	0
15.01.2021	13:44:49	0	86,582081	4,321129	0,423	337,4496	1,411	85,553	0	1015,26	8,7	10,2	10	1	1	1	1	1	1	1	1	1	0	1	-20,295983	275,972604	308,591195	0
15.01.2021	13:44:50	0	86,113383	4,093702	0,41175	335,3544	1,408	85,553	0	1015,3	8,7	10,2	10	1	1	1	1	1	1	1	1	1	0	1	-18,675123	276,083051	310,73887	0
15.01.2021	13:44:51	0	86,464813	3,183992	0,39975	331,5096	1,415	85,556	0	1015,22	8,7	10,2	10	1	1	1	1	1	1	1	1	1	0	1	-17,970402	275,984114	310,971648	0
15.01.2021	13:44:52	0	86,347599	3,411421	0,37425	327,1428	1,414	85,547	0	1015,22	8,7	10,2	10	1	1	1	1	1	1	1	1	1	0	1	-22,269204	276,092973	307,192144	0
15.01.2021	13:44:53	0	86,581867	4,889704	0,3495	326,538	1,413	85,539	0	1015,22	8,7	10,2	10	1	1	1	1	1	1	1	1	1	0	1	-20,295983	275,959458	308,528534	0
15.01.2021	13:44:54	0	86,347492	2,729138	0,3285	336,8268	1,412	85,558	0	1015,32	8,7	10,2	10	1	1	1	1	1	1	1	1	1	0	1	-20,718816	275,924992	307,941457	0
15.01.2021	13:44:55	0	86,113117	4,207423	0,315	352,8036	1,416	85,532	0	1015,26	8,7	10,2	10	1	1	1	1	1	1	1	1	1	0	1	-20,014094	276,084704	309,407789	0
15.01.2021	13:44:56	0	86,464545	4,548566	0,33525	2,286	1,413	85,54	0	1015,26	8,7	10,2	10	1	1	1	1	1	1	1	1	1	0	1	-21,705426	275,969316	307,166082	0
15.01.2021	13:44:57	0	86,11301	5,344567	0,339	6,8112	1,416	85,536	0	1015,28	8,7	10,2	10	1	1	1	1	1	1	1	1	1	0	1	-17,618041	276,063224	311,701331	0
15.01.2021	13:44:58	0	86,230117	2,842856	0,4005	8,586	1,411	85,535	0	1015,3	8,7	10,2	10	1	1	1	1	1	1	1	1	1	0	1	-17,195208	275,952888	311,597997	0
15.01.2021	13:44:59	0	86,230064	4,775999	0,375	10,0548	1,425	85,533	0	1015,34	8,7	10,2	10	1	1	1	1	1	1	1	1	1	0	1	-19,520789	275,911878	309,077007	0
15.01.2021	13:45:00	0	86,229957	5,00343	0,45375	341,3808	1,424	85,512	0	1015,34	8,7	10,2	10	1	1	1	1	1	1	1	1	1	0	1	-17,547569	276,03352	311,63009	0
15.01.2021	13:45:01	0	86,229957	5,00343	0,45375	341,3808	1,424	85,512	0	1015,34	8,7	10,2	10	1	1	1	1	1	1	1	1	1	0	1	-17,688513	276,079745	311,709702	0
15.01.2021	13:45:02	0	85,878422	2,842859	0,5175	349,956	1,417	85,493	0	1015,26	8,7	10,2	10	1	1	1	1	1	1	1	1	1	0	1	-21,987315	276,048366	307,261167	0
15.01.2021	13:45:03	0	86,112689	2,729146	0,59025	13,9104	1,415	85,484	0	1015,3	8,7	10,2	10	1	1	1	1	1	1	1	1	1	0	1	-20,718816	276,041766	308,498181	0
15.01.2021	13:45:04	0	85,878316	2,501717	0,59625	24,084	1,411	85,466	0	1015,26	8,7	10,2	10	1	1	1	1	1	1	1	1	1	0	1	-20,930233	276,083051	308,48376	0
15.01.2021	13:45:05	0	86,112582	2,729147	0,58575	14,2956	1,414	85,465	0	1015,3	8,7	10,2	10	1	1	1	1	1	1	1	1	1	0	1	-21,353066	276,030222	307,808863	0
15.01.2021	13:45:06	0	85,761049	2,729148	0,5295	2,3076	1,414	85,463	0	1015,24	8,7	10,2	10	1	1	1	1	1	1	1	1	1	0	1	-17,89993	275,916794	310,72129	0
15.01.2021	13:45:07	0	86,229635	2,046862	0,49575	356,9364	1,418	85,467	0	1015,36	8,7	10,2	10	1	1	1	1	1	1	1	1	1	0	1	-22,128259	276,000568	306,892246	0
15.01.2021	13:45:08	0	86,581061	4,776012	0,48525	354,0132	1,417	85,454	0	1015,16	8,7	10,2	10	1	1	1	1	1	1	1	1	1	0	1	-17,618041	275,911878	310,979755	0
15.01.2021	13:45:09	0	85,995209	4,20744	0,5205	353,9484	1,414	85,453	0	1015,28	8,7	10,2	10	1	1	1	1	1	1	1	1	1	0	1	-19,238901	276,003861	309,797306	0
15.01.2021	13:45:10	0	86,229474	3,525154	0,5235	349,4484	1,407	85,441	0	1015,14	8,7	10,2	10	1	1	1	1	1	1	1	1	1	0	1	-18,25229	275,938114	310,47051	0
15.01.2021	13:45:11	0	86,34658	4,093728	0,5925	347,2596	1,418	85,45	0	1015,32	8,7	10,2	10	1	1	1	1	1	1	1	1	1	0	1	-18,816068	275,897135	309,711504	0
15.01.2021	13:45:12	0	86,346527	4,434873	0,62625	355,0644	1,415	85,44	0	1015,16	8,7	10,2	10	1	1	1	1	1	1	1	1	1	0	1	-16,983791	276,048366	312,264691	0
15.01.2021	13:45:13	0	85,994995	3,980016	0,636	355,86	1,415	85,439	0	1015,38	8,7	10,2	10	1	1	1	1	1	1	1	1	1	0	1	-16,772375	276,083051	312,641618	0
15.01.2021	13:45:14	0	86,22926	4,434876	0,66225	350,694	1,412	85,442	0	1015,1	8,7	10,2	10	1	1	1	1	1	1	1	1	1	0	1	-19,238901	276,026925	309,907301	0
15.01.2021	13:45:15	0	86,229206	4,207448	0,699	349,9308	1,415	85,436	0	1015,18	8,7	10,2	10	1	1	1	1	1	1	1	1	1	0	1	-19,732206	276,088011	309,705461	0
15.01.2021	13:45:16	0	86,111993	4,321164	0,70575	347,9508	1,421	85,442	0	1015,36	8,7	10,2	10	1	1	1	1	1	1	1	1	1	0	1	-15,151515	276,02198	313,971103	0
15.01.2021	13:45:17	0	85,99478	4,548595	0,70875	346,9248	1,413	85,442	0	1015,26	8,7	10,2	10	1	1	1	1	1	1	1	1	1	0	1	-18,745595	276,083051	310,668398	0
15.01.2021	13:45:18	0	85,877568	4,662311	0,708	350,2728	1,421	85,44	0	1015,44	8,7	10,2	10	1	1	1	1	1	1	1	1	1	0	1	-19,450317	276,091319	310,003136	0
15.01.2021	13:45:19	0	85,760355	3,184038	0,693	356,6844	1,416	85,446	0	1015,36	8,7	10,2	9,9	1	1	1	1	1	1	1	1	1	0	1	-21,141649	275,975892	307,761203	0
15.01.2021	13:45:20	0	85,760302	2,615444	0,65925	3,024	1,425	85,443	0	1015,36	8,7	10,2	10	1	1	1	1	1	1	1	1	1	0	1	-18,393235	276,096281	311,083904	0
15.01.2021	13:45:21	0	85,994566	3,63888	0,63525	9,3456	1,417	85,441	0	1015,36	8,7	10,2	10	1	1	1	1	1	1	1	1	1	0	1	-25,299507	275,993985	303,689607	0
15.01.2021	13:45:22	0	85,877354	3,184021	0,56325	5,6664	1,42	85,46	0	1015,24	8,7	10,2	10	1	1	1	1	1	1	1	1	1	0	1	-22,48062	275,915155	306,132791	0
15.01.2021	13:45:23	0	85,8773	2,729162	0,51225	350,0856	1,419	85,456	0	1015,36	8,7	10,2	10	1	1	1	1	1	1	1	1	1	0	1	-20,648344	275,957815	308,168344	0
15.01.2021	13:45:24	0	85,760088	4,434916	0,531	319,6008	1,423	85,435	0	1015,22	8,7	10,2	9,9	1	1	1	1	1	1	1	1	1	0	1	-20,366455	276,083051	309,047538	0
15.01.2021	13:45:25	0	85,877193	3,411454	0,5325	306,6984	1,423	85,44	0	1015,32	8,7	10,2	10	1	1	1	1	1	1	1	1	1	0	1	-19,661734	275,951246	309,123645	0
15.01.2021	13:45:26	0	85,759981	2,956595	0,6135	314,0892	1,428	85,461	0	1015,34	8,8	10,2	10	1	1	1	1	1	1	1	1	1	0	1	-22,973925	276,092973	306,487422	0
15.01.2021	13:45:27	0	86,228561	4,548609	0,7215	333,8748	1,418	85,44	0	1015,18	8,7	10,2	10	1	1	1	1	1	1	1	1	1	0	1	-18,463707	276,003861	310,572499	0
15.01.2021	13:45:28	0	85,759874	4,54861	0,7095	353,9772	1,427	85,456	0	1015,3	8,7	10,2	10	1	1	1	1	1	1	1	1	1	0	1	-21,846371	276,106209	307,678162	0
15.01.2021	13:45:29	0	85,525504	2,615452	0,6915	356,0544	1,427	85,456	0	1015,18	8,7	10,2	10	1	1	1	1	1	1	1	1	1	0	1	-17,26568	276,078092	312,124647	0
15.01.2021	13:45:30	0	85,994083	3,638912	0,786	340,218	1,428	85,453	0	1015,2	8,8	10,2	9,9	1	1	1	1	1	1	1	1	1	0	1	-17,547569	275,943038	311,198693	0
15.01.2021	13:45:31	0	85,994029	4,66233	0,92625	337,2444	1,426	85,443	0	1015,24	8,7	10,2	10	1	1	1	1	1	1	1	1	1	0	1	-17,688513	275,951246	311,096866	0
15.01.2021	13:45:32	0	86,228291	4,4349	1,10025	350,334	1,424	85,443	0	1015,22	8,8	10,2	10	1	1	1	1	1	1	1	1	1	0	1	-16,490486	276,041766	312,726511	0
15.01.2021	13:45:33	0	85,642448	3,297747	1,2495	341,6544	1,431	85,471	0	1015,28	8,7	10,2	10	1	1	1	1	1	1	1	1	1	0	1	-21,071177	276,094627	308,398066	0
15.01.2021	13:45:34	0	85,87671	2,842886	1,35825	340,7004	1,427	85,475	0	1015,3	8,7	10,2	10	1	1	1	1	1	1	1	1	1	0	1	-21,705426	276,101244	307,795406	0
15.01.2021	13:45:35	0	85,993814	4,434904	1,41825	339,93	1,426	85,461	0	1015,32	8,7	10,2	10	1	1	1	1	1	1	1	1	1	0	1	-21,564482	276,053317	307,707623	0
15.01.2021	13:45:36	0	85,642287	3,184054	1,467	336,1284	1,429	85,452	0	1015,34	8,7	10,2	9,9	1	1	1	1	1	1	1	1	1	0	1	-19,732206	275,924992	308,928067	0
15.01.2021	13:45:37	0	85,876549	2,72919	1,48425	334,2312	1,429	85,449	0	1015,18	8,7	10,2	9,9	1	1	1	1	1	1	1	1	1	0	1	-19,168428	275,949604	309,609125	0
15.01.2021	13:45:38	0	85,64218	3,411468	1,51575	335,2896	1,432	85,478	0	1015,16	8,7	10,2	10	1	1	1	1	1	1	1	1	1	0	1	-16,772375	276,101244	312,728457	0
15.01.2021	13:45:39	0	85,524969	2,842908	1,54125	338,0148	1,423	85,466	0	1015,18	8,8	10,2	9,9	1	1	1	1	1	1	1	1	1	0	1	-17,758985	275,959458	311,065531	0
15.01.2021	13:45:40	0	85,524915	3,41147	1,52325	340,866	1,43	85,47	0	1015,3	8,7	10,2	10	1	1	1	1	1	1	1	1	1	0	1	-17,195208	275,923352	311,457253	0
15.01.2021	13:45:41	0	86,110648	4,776088	1,51875	339,1128	1,432	85,532	0	1015,26	8,8	10,2	9,9	1	1	1	1	1	1	1	1	1	0	1	-17,89993	275,985759	311,049962	0
15.01.2021	13:45:42	0	85,641965	5,003522	1,5165	341,6724	1,431	85,475	0	1015,2	8,7	10,2	9,9	1	1	1	1	1	1	1	1	1	0	1	-20,436927	275,923352	308,215533	0
15.01.2021	13:45:43	0	85,759068	3,638926	1,50375	342,6732	1,426	85,473	0	1015,26	8,7	10,2	9,9	1	1	1	1	1	1	1	1	1	0	1	-14,376321	275,959458	314,448195	0
15.01.2021	13:45:44	0	85,759015	2,274316	1,4685	345,7116	1,425	85,461	0	1015,22	8,7	10,2	10	1	1	1	1	1	1	1	1	1	0	1	-15,433404	276,046716	313,807206	0
15.01.2021	13:45:45	0	85,758961	4,548634	1,4595	342,7488	1,432	85,482	0	1015,38	8,8	10,2	10	1	1	1	1	1	1	1	1	1	0	1	-17,618041	276,102899	311,89069	0
15.01.2021	13:45:46	0	85,758907	2,615481	1,4895	333,4464	1,437	85,476	0	1015,16	8,7	10,2	9,9	1	1	1	1	1	1	1	1	1	0	1	-20,295983	275,980824	308,630385	0
15.01.2021	13:45:47	0	85,758853	4,093773	1,47825	348,0804	1,436	85,477	0	1015,3	8,8	10,2	10	1	1	1	1	1	1	1	1	1	0	1	-20,155039	276,063224	309,164333	0
15.01.2021	13:45:48	0	85,407329	3,07033	1,3935	342,8784	1,434	85,49	0	1015,28	8,8	10,2	10	1	1	1	1	1	1	1	1	1	0	1	-15,856237	276,097935	313,628799	0
15.01.2021	13:45:49	0	85,641589	4,434923	1,3455	317,3796	1,437	85,464	0	1015,22	8,8	10,2	10	1	1	1	1	1	1	1	1	1	0	1	-16,27907	276,092973	313,182278	0
15.01.2021	13:45:50	0	85,524378	3,070332	1,2855	326,3364	1,434	85,489	0	1015,36	8,8	10,2	10	1	1	1	1	1	1	1	1	1	0	1	-18,88654	275,987404	310,071195	0
15.01.2021	13:45:51	0	85,407168	3,411502	1,31175	333,3888	1,436	85,484	0	1015,38	8,8	10,2	9,9	1	1	1	1	1	1	1	1	1	0	1	-16,983791	275,941396	311,754649	0
15.01.2021	13:45:52	0	85,407114	4,889821	1,4355	328,1544	1,436	85,479	0	1015,26	8,8	10,2	9,9	1	1	1	1	1	1	1	1	1	0	1	-20,718816	276,089665	308,726743	0
15.01.2021	13:45:53	0	85,75853	4,207496	1,46175	337,122	1,436	85,486	0	1015,24	8,7	10,2	10	1	1	1	1	1	1	1	1	1	0	1	-19,661734	275,964386	309,186275	0
15.01.2021	13:45:54	0	85,289851	2,388053	1,4775	336,3552	1,442	85,476	0	1015,22	8,8	10,2	9,9	1	1	1	1	1	1	1	1	1	0	1	-23,819591	276,117798	305,76027	0
15.01.2021	13:45:55	0	85,758422	3,525223	1,4475	327,528	1,438	85,483	0	1015,28	8,7	10,2	9,9	1	1	1	1	1	1	1	1	1	0	1	-21,212121	275,998922	307,800535	0
15.01.2021	13:45:56	0	85,406899	4,548658	1,3935	328,1652	1,437	85,483	0	1015,3	8,8	10,2	10,1	1	1	1	1	1	1	1	1	1	0	1	-18,604651	276,117798	310,97521	0
15.01.2021	13:45:57	0	85,641158	3,070339	1,36275	330,7752	1,443	85,487	0	1015,24	8,7	10,2	10	1	1	1	1	1	1	1	1	1	0	1	-18,816068	276,056619	310,47179	0
15.01.2021	13:45:58	0	85,289636	3,070358	1,2975	332,37	1,436	85,478	0	1015,26	8,8	10,2	9,9	1	1	1	1	1	1	1	1	1	0	1	-17,26568	276,102899	312,243051	0
15.01.2021	13:45:59	0	85,64105	2,956642	1,25625	326,7828	1,436	85,49	0	1015,34	8,7	10,2	9,9	1	1	1	1	1	1	1	1	1	0	1	-20,648344	275,962743	308,191833	0
15.01.2021	13:46:00	0	85,406631	2,501761	1,2915	323,4096	1,441	85,5	0	1015,22	8,8	10,2	10	1	1	1	1	1	1	1	1	1	0	1	-17,054264	275,915155	311,559147	0
15.01.2021	13:46:01	0	85,406631	2,501761	1,2915	323,4096	1,441	85,5	0	1015,22	8,8	10,2	10	1	1	1	1	1	1	1	1	1	0	1	-16,27907	275,97918	312,639459	0
15.01.2021	13:46:02	0	85,523733	4,77609	1,34175	346,1004	1,442	85,493	0	1015,22	8,7	10,2	10	1	1	1	1	1	1	1	1	1	0	1	-22,692037	276,054968	306,587944	0
15.01.2021	13:46:03	0	85,406523	4,434942	1,39125	329,3172	1,445	85,476	0	1015,18	8,8	10,2	10	1	1	1	1	1	1	1	1	1	0	1	-15,574348	275,920073	313,06249	0
15.01.2021	13:46:04	0	85,524224	3,184062	1,53225	314,172	1,444	85,493	0	1015,26	8,8	10,3	10	1	1	1	1	1	1	1	1	1	0	1	-21,705426	276,063224	307,613945	0
15.01.2021	13:46:05	0	85,406415	3,525234	1,593	324,0648	1,444	85,482	0	1015,36	8,8	10,2	9,9	1	1	1	1	1	1	1	1	1	0	1	-16,842847	275,95453	311,958185	0
15.01.2021	13:46:06	0	85,289206	2,615497	1,6005	320,0364	1,447	85,492	0	1015,24	8,8	10,2	9,9	1	1	1	1	1	1	1	1	1	0	1	-21,775899	276,101244	307,724933	0
15.01.2021	13:46:07	0	85,406308	2,842921	1,674	317,4444	1,447	85,49	0	1015,3	8,8	10,2	10,1	1	1	1	1	1	1	1	1	1	0	1	-23,749119	276,054968	305,530861	0
15.01.2021	13:46:08	0	85,289098	2,729199	1,821	324,4788	1,442	85,475	0	1015,16	8,8	10,2	10	1	1	1	1	1	1	1	1	1	0	1	-18,534179	276,104554	310,982452	0
15.01.2021	13:46:09	0	85,406798	5,230998	1,9665	322,6716	1,448	85,477	0	1015,08	8,8	10,3	9,9	1	1	1	1	1	1	1	1	1	0	1	-19,732206	276,003861	309,304	0
15.01.2021	13:46:10	0	85,523301	3,638934	2,0025	319,6404	1,451	85,48	0	1015,2	8,8	10,2	10	1	1	1	1	1	1	1	1	1	0	1	-16,349542	276,066527	312,985592	0
15.01.2021	13:46:11	0	85,640402	3,411502	2,0055	324,4212	1,444	85,479	0	1015,28	8,8	10,2	10	1	1	1	1	1	1	1	1	1	0	1	-22,903453	276,129395	306,731778	0
15.01.2021	13:46:12	0	85,640348	3,638937	1,91475	311,4072	1,451	85,481	0	1015,36	8,8	10,2	10	1	1	1	1	1	1	1	1	1	0	1	-18,816068	276,069831	310,534832	0
15.01.2021	13:46:13	0	85,172271	2,160619	1,89525	315,5472	1,445	85,469	0	1015,1	8,8	10,3	10	1	1	1	1	1	1	1	1	1	0	1	-23,537703	276,101244	305,963129	0
15.01.2021	13:46:14	0	85,17162	3,070373	1,76325	315,8892	1,451	85,48	0	1015,22	8,8	10,2	9,9	1	1	1	1	1	1	1	1	1	0	1	-23,890063	276,073135	305,476604	0
15.01.2021	13:46:15	0	84,702947	2,501786	1,57425	319,6332	1,454	85,474	0	1015,3	8,8	10,2	9,9	1	1	1	1	1	1	1	1	1	0	1	-23,537703	276,119455	306,050066	0
15.01.2021	13:46:16	0	85,288667	3,638941	1,52325	329,3496	1,45	85,472	0	1015,2	8,8	10,2	10	1	1	1	1	1	1	1	1	1	0	1	-18,111346	276,051667	311,152884	0
15.01.2021	13:46:17	0	84,819995	2,615505	1,50075	326,7432	1,455	85,489	0	1015,28	8,8	10,2	9,9	1	1	1	1	1	1	1	1	1	0	1	-18,181818	276,10952	311,358518	0
15.01.2021	13:46:18	0	85,05425	2,842942	1,389	338,7096	1,451	85,454	0	1015,3	8,8	10,2	9,9	1	1	1	1	1	1	1	1	1	0	1	-21,423538	276,07644	307,958902	0
15.01.2021	13:46:19	0	85,054197	3,525227	1,28325	343,1808	1,451	85,445	0	1015,36	8,8	10,2	10	1	1	1	1	1	1	1	1	1	0	1	-18,88654	276,094627	310,582703	0
15.01.2021	13:46:20	0	85,171297	4,207556	1,245	340,2324	1,455	85,461	0	1015,18	8,8	10,2	9,9	1	1	1	1	1	1	1	1	1	0	1	-20,155039	276,122767	309,448548	0
15.01.2021	13:46:21	0	85,288398	4,889835	1,23525	351,1152	1,454	85,45	0	1015,22	8,8	10,2	10	1	1	1	1	1	1	1	1	1	0	1	-20,5074	275,947962	308,26233	0
15.01.2021	13:46:22	0	85,406096	3,297816	1,18725	348,354	1,451	85,442	0	1015,3	8,8	10,3	9,9	1	1	1	1	1	1	1	1	1	0	1	-23,678647	276,05827	305,617088	0
15.01.2021	13:46:23	0	85,171135	2,160626	1,17	345,7404	1,454	85,452	0	1015,3	8,8	10,2	10	1	1	1	1	1	1	1	1	1	0	1	-18,463707	275,943038	310,282555	0
15.01.2021	13:46:24	0	85,054523	4,662414	1,11225	343,5084	1,454	85,438	0	1015,16	8,8	10,3	10,1	1	1	1	1	1	1	1	1	1	0	1	-16,701903	275,97918	312,216626	0
15.01.2021	13:46:25	0	85,171027	4,321255	1,04325	336,4344	1,454	85,437	0	1015,38	8,8	10,2	10	1	1	1	1	1	1	1	1	1	0	1	-18,745595	276,101244	310,755236	0
15.01.2021	13:46:26	0	85,523035	4,434973	1,02825	360	1,449	85,422	0	1015,34	8,8	10,3	10	1	1	1	1	1	1	1	1	1	0	1	-17,970402	276,071483	311,388381	0
15.01.2021	13:46:27	0	85,171516	3,980105	0,9975	7,4988	1,449	85,439	0	1015,3	8,8	10,3	10	1	1	1	1	1	1	1	1	1	0	1	-22,128259	276,003861	306,907947	0
15.01.2021	13:46:28	0	85,053712	2,842933	0,96675	345,744	1,455	85,431	0	1015,34	8,8	10,2	10	1	1	1	1	1	1	1	1	1	0	1	-19,168428	276,078092	310,221898	0
15.01.2021	13:46:29	0	84,936504	2,501782	0,939	340,9524	1,447	85,426	0	1015,06	8,8	10,2	10	1	1	1	1	1	1	1	1	1	0	1	-15,64482	275,969316	313,226688	0
15.01.2021	13:46:30	0	85,171354	3,525239	0,97575	353,2176	1,455	85,442	0	1015,32	8,8	10,3	10	1	1	1	1	1	1	1	1	1	0	1	-18,040874	276,088011	311,396793	0
15.01.2021	13:46:31	0	85,170703	2,842936	1,08075	354,2868	1,454	85,429	0	1015,34	8,8	10,2	10	1	1	1	1	1	1	1	1	1	0	1	-18,816068	276,127738	310,811251	0
15.01.2021	13:46:32	0	85,054092	3,525263	1,1145	349,974	1,454	85,414	0	1015,3	8,8	10,3	9,9	1	1	1	1	1	1	1	1	1	0	1	-15,785765	276,084704	313,636119	0
15.01.2021	13:46:33	0	85,288346	4,662446	1,19025	359,0964	1,456	85,427	0	1015,26	8,8	10,3	9,9	1	1	1	1	1	1	1	1	1	0	1	-24,453841	276,129395	305,18139	0
15.01.2021	13:46:34	0	84,936234	4,321266	1,19475	355,8564	1,45	85,425	0	1015,32	8,8	10,2	10	1	1	1	1	1	1	1	1	1	0	1	-17,688513	276,03352	311,489145	0
15.01.2021	13:46:35	0	85,05393	3,411527	1,16625	336,8232	1,46	85,433	0	1015,32	8,8	10,3	10	1	1	1	1	1	1	1	1	1	0	1	-18,393235	275,947962	310,376495	0
15.01.2021	13:46:36	0	85,287586	4,66245	1,15275	337,5864	1,45	85,418	0	1015,16	8,8	10,2	9,9	1	1	1	1	1	1	1	1	1	0	1	-20,5074	276,068179	308,835617	0
15.01.2021	13:46:37	0	85,053226	4,32127	1,149	356,9076	1,454	85,413	0	1015,2	8,8	10,2	10	1	1	1	1	1	1	1	1	1	0	1	-18,534179	275,941396	310,204261	0
15.01.2021	13:46:38	0	85,053767	2,729241	1,095	339,8328	1,461	85,425	0	1015,3	8,8	10,3	9,9	1	1	1	1	1	1	1	1	1	0	1	-18,393235	276,073135	310,973433	0
15.01.2021	13:46:39	0	84,936559	3,752685	1,164	352,5408	1,464	85,435	0	1015,2	8,8	10,3	10	1	1	1	1	1	1	1	1	1	0	1	-18,88654	276,068179	310,456476	0
15.01.2021	13:46:40	0	85,170216	3,297815	1,18125	359,9028	1,462	85,427	0	1015,3	8,8	10,2	10	1	1	1	1	1	1	1	1	1	0	1	-19,027484	275,938114	309,695316	0
15.01.2021	13:46:41	0	85,053009	4,434994	1,11975	352,8396	1,459	85,431	0	1015,32	8,8	10,2	10	1	1	1	1	1	1	1	1	1	0	1	-19,943622	276,040117	309,265505	0
15.01.2021	13:46:42	0	85,053551	4,321277	1,02075	340,578	1,463	85,433	0	1015,24	8,8	10,3	10	1	1	1	1	1	1	1	1	1	0	1	-20,155039	275,933192	308,544308	0
15.01.2021	13:46:43	0	84,702036	3,184106	1,005	326,7468	1,459	85,426	0	1015,14	8,8	10,3	10,1	1	1	1	1	1	1	1	1	1	0	1	-20,225511	275,972604	308,661668	0
15.01.2021	13:46:44	0	85,17	3,297819	1,00125	344,3652	1,461	85,416	0	1015,2	8,8	10,2	10	1	1	1	1	1	1	1	1	1	0	1	-17,477097	275,967673	311,386578	0
15.01.2021	13:46:45	0	85,170542	4,548717	0,9795	343,0728	1,462	85,428	0	1015,16	8,8	10,3	10	1	1	1	1	1	1	1	1	1	0	1	-19,520789	276,112831	310,035355	0
15.01.2021	13:46:46	0	85,169891	2,615513	0,92025	324,756	1,466	85,435	0	1015,34	8,8	10,2	10	1	1	1	1	1	1	1	1	1	0	1	-19,168428	275,993985	309,820685	0
15.01.2021	13:46:47	0	84,70182	2,501796	0,90075	309,96	1,469	85,439	0	1015,26	8,8	10,3	10	1	1	1	1	1	1	1	1	1	0	1	-20,155039	275,951246	308,63034	0
15.01.2021	13:46:48	0	85,053226	2,615515	0,8535	319,2012	1,46	85,431	0	1015,12	8,8	10,3	10	1	1	1	1	1	1	1	1	1	0	1	-17,89993	275,980824	311,026439	0
15.01.2021	13:46:49	0	84,584559	2,501797	0,87375	334,692	1,467	85,445	0	1015,48	8,8	10,3	10	1	1	1	1	1	1	1	1	1	0	1	-14,65821	276,131052	314,984934	0
15.01.2021	13:46:50	0	85,052522	3,525261	0,894	353,574	1,469	85,438	0	1015,22	8,8	10,2	10	1	1	1	1	1	1	1	1	1	0	1	-19,732206	276,061572	309,579286	0
15.01.2021	13:46:51	0	84,467299	2,729235	0,92925	355,7628	1,468	85,428	0	1015,04	8,8	10,3	10	1	1	1	1	1	1	1	1	1	0	1	-19,661734	275,946321	309,100172	0
15.01.2021	13:46:52	0	85,053009	4,207572	0,912	353,2824	1,466	85,423	0	1015,34	8,8	10,3	10	1	1	1	1	1	1	1	1	1	0	1	-16,983791	275,993985	312,005322	0
15.01.2021	13:46:53	0	85,052955	2,388082	0,93075	350,6616	1,464	85,434	0	1015,28	8,8	10,3	10	1	1	1	1	1	1	1	1	1	0	1	-17,406624	275,951246	311,378755	0
15.01.2021	13:46:54	0	84,583697	3,070392	0,93	341,73	1,466	85,404	0	1015,22	8,8	10,2	10	1	1	1	1	1	1	1	1	1	0	1	-18,25229	276,008801	310,807473	0
15.01.2021	13:46:55	0	84,34993	2,729239	0,96375	337,194	1,466	85,406	0	1015,26	8,8	10,3	10	1	1	1	1	1	1	1	1	1	0	1	-19,168428	276,132709	310,48263	0
15.01.2021	13:46:56	0	85,403652	4,435014	0,9795	339,0624	1,466	85,405	0	1015,28	8,8	10,2	10	1	1	1	1	1	1	1	1	1	0	1	-18,111346	276,056619	311,176511	0
15.01.2021	13:46:57	0	84,818433	4,435015	0,9825	331,524	1,458	85,396	0	1015,22	8,8	10,3	10	1	1	1	1	1	1	1	1	1	0	1	-19,450317	276,137682	310,224488	0
15.01.2021	13:46:58	0	84,934936	5,572201	1,04325	326,3796	1,461	85,401	0	1015,26	8,8	10,2	10	1	1	1	1	1	1	1	1	1	0	1	-20,5074	276,03352	308,670259	0
15.01.2021	13:46:59	0	84,818324	4,3213	1,05975	328,6296	1,463	85,404	0	1015,3	8,8	10,3	10	1	1	1	1	1	1	1	1	1	0	1	-14,235377	276,129395	315,399854	0
15.01.2021	13:47:00	0	84,818216	4,207584	1,07175	335,4264	1,467	85,395	0	1015,2	8,8	10,3	10	1	1	1	1	1	1	1	1	1	0	1	-19,097956	275,984114	309,844093	0
15.01.2021	13:47:01	0	84,818216	4,207584	1,07175	335,4264	1,467	85,395	0	1015,2	8,8	10,3	10	1	1	1	1	1	1	1	1	1	0	1	-18,816068	276,116142	310,755887	0
15.01.2021	13:47:02	0	84,818162	4,093867	1,02525	339,1956	1,471	85,388	0	1015,26	8,8	10,3	10	1	1	1	1	1	1	1	1	1	0	1	-17,406624	276,096281	312,070514	0
15.01.2021	13:47:03	0	84,817513	4,093868	1,02975	338,3856	1,464	85,389	0	1015,22	8,8	10,2	10	1	1	1	1	1	1	1	1	1	0	1	-19,520789	276,127738	310,106529	0
15.01.2021	13:47:04	0	84,466006	2,046935	1,02375	333,1512	1,47	85,379	0	1015,32	8,8	10,2	10	1	1	1	1	1	1	1	1	1	0	1	-20,718816	276,026925	308,427386	0
15.01.2021	13:47:05	0	84,583695	2,615528	0,9645	336,15	1,467	85,36	0	1015,16	8,8	10,3	10	1	1	1	1	1	1	1	1	1	0	1	-18,816068	275,951246	309,969311	0
15.01.2021	13:47:06	0	84,817945	4,662465	0,94875	340,6104	1,473	85,358	0	1015,28	8,8	10,3	10	1	1	1	1	1	1	1	1	1	0	1	-19,450317	276,13934	310,232405	0
15.01.2021	13:47:07	0	85,169346	4,435029	0,97875	329,6592	1,466	85,363	0	1015,24	8,8	10,3	10	1	1	1	1	1	1	1	1	1	0	1	-19,168428	276,010448	309,899189	0
15.01.2021	13:47:08	0	84,466381	2,274375	1,00425	319,5648	1,466	85,345	0	1015,14	8,8	10,3	10	1	1	1	1	1	1	1	1	1	0	1	-20,577872	276,000568	308,442634	0
15.01.2021	13:47:09	0	84,231434	2,72925	0,987	328,5864	1,47	85,341	0	1015,36	8,8	10,2	10	1	1	1	1	1	1	1	1	1	0	1	-17,829457	276,134367	311,829515	0
15.01.2021	13:47:10	0	85,051435	3,411564	0,972	343,9188	1,466	85,34	0	1015,32	8,8	10,2	10	1	1	1	1	1	1	1	1	1	0	1	-18,25229	276,030222	310,909638	0
15.01.2021	13:47:11	0	84,348476	2,501814	0,9915	347,598	1,464	85,334	0	1015,28	8,8	10,2	10	1	1	1	1	1	1	1	1	1	0	1	-15,997181	276,131052	313,645963	0
15.01.2021	13:47:12	0	84,934175	4,548755	0,97275	360	1,474	85,325	0	1015,26	8,8	10,2	10	1	1	1	1	1	1	1	1	1	0	1	-18,745595	276,012095	310,329877	0
15.01.2021	13:47:13	0	84,582669	4,321318	0,98775	351,6948	1,474	85,315	0	1015,18	8,8	10,2	10	1	1	1	1	1	1	1	1	1	0	1	-16,913319	276,106209	312,611213	0
15.01.2021	13:47:14	0	84,699765	3,980163	0,9825	340,9092	1,462	85,309	0	1015,34	8,8	10,2	10	1	1	1	1	1	1	1	1	1	0	1	-15,221987	276,10952	314,318349	0
15.01.2021	13:47:15	0	84,934607	4,43504	0,939	343,1556	1,459	85,304	0	1015,28	8,8	10,3	10	1	1	1	1	1	1	1	1	1	0	1	-21,141649	276,084704	308,280234	0
15.01.2021	13:47:16	0	84,465356	4,435041	0,8925	349,8012	1,471	85,303	0	1015,4	8,8	10,2	10	1	1	1	1	1	1	1	1	1	0	1	-20,930233	276,131052	308,712912	0
15.01.2021	13:47:17	0	84,699602	4,093886	0,84075	354,2796	1,473	85,292	0	1015,36	8,8	10,2	10	1	1	1	1	1	1	1	1	1	0	1	-15,574348	275,995631	313,422612	0
15.01.2021	13:47:18	0	84,933848	4,435044	0,86925	356,9292	1,466	85,276	0	1015,18	8,8	10,2	10	1	1	1	1	1	1	1	1	1	0	1	-15,292459	276,122767	314,311127	0
15.01.2021	13:47:19	0	84,582344	3,639012	0,83775	356,562	1,469	85,27	0	1015,12	8,8	10,2	10	1	1	1	1	1	1	1	1	1	0	1	-18,816068	276,112831	310,740077	0
15.01.2021	13:47:20	0	84,699439	2,501821	0,8175	354,8196	1,468	85,283	0	1015,26	8,8	10,2	10	1	1	1	1	1	1	1	1	1	0	1	-16,560958	275,980824	312,36541	0
15.01.2021	13:47:21	0	84,465677	2,729261	0,75825	358,02	1,471	85,282	0	1015,2	8,8	10,3	10	1	1	1	1	1	1	1	1	1	0	1	-20,366455	275,967673	308,497219	0
15.01.2021	13:47:22	0	85,051376	3,752734	0,74025	4,8204	1,471	85,258	0	1015,24	8,8	10,3	10	1	1	1	1	1	1	1	1	1	0	1	-18,957012	276,064875	310,37024	0
15.01.2021	13:47:23	0	84,113527	2,842981	0,76875	9,36	1,47	85,272	0	1015,2	8,8	10,2	10	1	1	1	1	1	1	1	1	1	0	1	-15,715292	275,957815	313,101395	0
15.01.2021	13:47:24	0	84,230623	2,729263	0,76275	4,8168	1,469	85,266	0	1015,26	8,8	10,2	10	1	1	1	1	1	1	1	1	1	0	1	-15,785765	276,121111	313,809913	0
15.01.2021	13:47:25	0	84,347718	2,501825	0,77475	4,0896	1,474	85,253	0	1015,46	8,8	10,2	10	1	1	1	1	1	1	1	1	1	0	1	-14,305849	275,998922	314,706807	0
15.01.2021	13:47:26	0	84,465405	3,411581	0,7755	6,0696	1,47	85,259	0	1015,22	8,8	10,3	10	1	1	1	1	1	1	1	1	1	0	1	-21,705426	276,116142	307,866529	0
15.01.2021	13:47:27	0	84,582501	4,435057	0,774	8,2728	1,472	85,25	0	1015,26	8,8	10,3	10	1	1	1	1	1	1	1	1	1	0	1	-19,168428	275,959458	309,656088	0
15.01.2021	13:47:28	0	84,464705	3,525303	0,75825	8,604	1,47	85,248	0	1015,18	8,8	10,2	10	1	1	1	1	1	1	1	1	1	0	1	-14,446794	275,934833	314,26037	0
15.01.2021	13:47:29	0	84,230352	2,388109	0,73725	8,6148	1,471	85,243	0	1015,14	8,8	10,2	10	1	1	1	1	1	1	1	1	1	0	1	-18,604651	276,073135	310,762017	0
15.01.2021	13:47:30	0	84,698895	4,321341	0,68325	12,852	1,467	85,237	0	1015,26	8,8	10,2	10	1	1	1	1	1	1	1	1	1	0	1	-17,970402	276,124424	311,641095	0
15.01.2021	13:47:31	0	84,464542	2,50183	0,6825	15,012	1,474	85,238	0	1015,22	8,8	10,2	10	1	1	1	1	1	1	1	1	1	0	1	-18,393235	276,059921	310,910378	0
15.01.2021	13:47:32	0	84,230189	2,501831	0,67725	7,8912	1,473	85,234	0	1015,4	8,8	10,2	10	1	1	1	1	1	1	1	1	1	0	1	-25,792812	276,129395	303,842419	0
15.01.2021	13:47:33	0	84,464433	2,95671	0,65475	3,78	1,466	85,226	0	1015,26	8,8	10,2	10	1	1	1	1	1	1	1	1	1	0	1	-13,6716	276,005508	315,372458	0
15.01.2021	13:47:34	0	84,112932	2,388113	0,633	353,9952	1,47	85,224	0	1015,26	8,8	10,2	10	1	1	1	1	1	1	1	1	1	0	1	-17,618041	275,936474	311,096941	0
15.01.2021	13:47:35	0	84,698622	4,776227	0,6015	346,2444	1,464	85,225	0	1015,24	8,8	10,2	10	1	1	1	1	1	1	1	1	1	0	1	-18,322763	276,003861	310,713444	0
15.01.2021	13:47:36	0	84,581419	4,548789	0,62775	341,0136	1,47	85,224	0	1015,3	8,8	10,2	10	1	1	1	1	1	1	1	1	1	0	1	-17,195208	276,145973	312,519191	0
15.01.2021	13:47:37	0	84,113358	2,388115	0,639	342,4248	1,469	85,232	0	1015,26	8,8	10,3	10	1	1	1	1	1	1	1	1	1	0	1	-20,084567	276,111175	309,463673	0
15.01.2021	13:47:38	0	84,229864	2,842995	0,66375	346,5504	1,466	85,223	0	1015,34	8,8	10,2	10	1	1	1	1	1	1	1	1	1	0	1	-13,107822	276,061572	316,203669	0
15.01.2021	13:47:39	0	83,878364	2,160677	0,705	349,5132	1,467	85,22	0	1015,32	8,8	10,2	10	1	1	1	1	1	1	1	1	1	0	1	-19,309373	275,947962	309,460357	0
15.01.2021	13:47:40	0	84,347494	4,889954	0,693	344,4048	1,468	85,213	0	1015,3	8,8	10,3	10	1	1	1	1	1	1	1	1	1	0	1	-19,732206	276,061572	309,579286	0
15.01.2021	13:47:41	0	84,463997	5,117395	0,6945	336,4344	1,468	85,214	0	1015,26	8,8	10,2	10	1	1	1	1	1	1	1	1	1	0	1	-21,212121	276,111175	308,336119	0
15.01.2021	13:47:42	0	84,581091	2,956718	0,68775	331,1316	1,47	85,218	0	1015,36	8,8	10,2	10	1	1	1	1	1	1	1	1	1	0	1	-18,181818	275,992339	310,799449	0
15.01.2021	13:47:43	0	84,34674	3,184159	0,753	326,8116	1,461	85,208	0	1015,22	8,8	10,2	10	1	1	1	1	1	1	1	1	1	0	1	-16,913319	276,048366	312,335163	0
15.01.2021	13:47:44	0	83,878093	2,38812	0,774	328,734	1,464	85,21	0	1015,24	8,8	10,2	10	1	1	1	1	1	1	1	1	1	0	1	-21,916843	275,957815	306,899845	0
15.01.2021	13:47:45	0	83,878039	2,501841	0,81375	338,832	1,468	85,219	0	1015,24	8,8	10,2	10	1	1	1	1	1	1	1	1	1	0	1	-16,420014	276,053317	312,852091	0
15.01.2021	13:47:46	0	84,112281	4,207643	0,82875	350,6796	1,469	85,225	0	1015,32	8,7	10,2	10	1	1	1	1	1	1	1	1	1	0	1	-15,433404	275,959458	313,391113	0
15.01.2021	13:47:47	0	84,46367	4,435084	0,837	353,9844	1,466	85,206	0	1015,22	8,8	10,2	10	1	1	1	1	1	1	1	1	1	0	1	-18,040874	276,071483	311,317909	0
15.01.2021	13:47:48	0	84,112172	2,843004	0,83325	340,9488	1,467	85,213	0	1015,34	8,8	10,2	10	1	1	1	1	1	1	1	1	1	0	1	-17,124736	275,997276	311,880072	0
15.01.2021	13:47:49	0	84,229265	4,435087	0,78975	327,7944	1,465	85,206	0	1015,26	8,8	10,2	10	1	1	1	1	1	1	1	1	1	0	1	-15,433404	276,142656	314,265155	0
15.01.2021	13:47:50	0	84,229211	2,843005	0,79125	332,0604	1,47	85,218	0	1015,32	8,8	10,2	10	1	1	1	1	1	1	1	1	1	0	1	-19,309373	276,01539	309,781812	0
15.01.2021	13:47:51	0	83,994861	3,980209	0,86025	325,1844	1,464	85,217	0	1015,26	8,8	10,2	10	1	1	1	1	1	1	1	1	1	0	1	-19,732206	275,95453	309,068826	0
15.01.2021	13:47:52	0	84,463397	4,321371	0,92625	327,5028	1,472	85,221	0	1015,52	8,8	10,2	10	1	1	1	1	1	1	1	1	1	0	1	-18,111346	276,005508	310,932712	0
15.01.2021	13:47:53	0	84,229047	4,776254	1,00275	343,1268	1,47	85,229	0	1015,28	8,7	10,2	10	1	1	1	1	1	1	1	1	1	0	1	-21,564482	276,121111	308,031195	0
15.01.2021	13:47:54	0	83,994698	4,548814	1,03425	343,926	1,469	85,227	0	1015,22	8,7	10,2	10	1	1	1	1	1	1	1	1	1	0	1	-20,225511	276,129395	309,40972	0
15.01.2021	13:47:55	0	84,346086	3,866493	1,0575	327,8052	1,471	85,205	0	1015,1	8,8	10,2	10	1	1	1	1	1	1	1	1	1	0	1	-20,155039	276,038467	309,04622	0
15.01.2021	13:47:56	0	84,228884	4,889979	1,068	328,2192	1,469	85,228	0	1015,22	8,8	10,2	10	1	1	1	1	1	1	1	1	1	0	1	-18,745595	275,969316	310,125913	0
15.01.2021	13:47:57	0	84,345976	4,435098	1,08375	328,554	1,472	85,229	0	1015,28	8,7	10,2	10	1	1	1	1	1	1	1	1	1	0	1	-20,436927	276,008801	308,622836	0
15.01.2021	13:47:58	0	83,99448	3,297895	1,12725	334,26	1,471	85,237	0	1015,24	8,8	10,2	10	1	1	1	1	1	1	1	1	1	0	1	-18,88654	276,000568	310,133966	0
15.01.2021	13:47:59	0	84,22872	2,615572	1,17	347,7276	1,471	85,216	0	1015,08	8,7	10,2	10	1	1	1	1	1	1	1	1	1	0	1	-23,326286	276,013742	305,757042	0
15.01.2021	13:48:00	0	83,994317	3,75278	1,146	344,6856	1,474	85,23	0	1015,16	8,8	10,2	10	1	1	1	1	1	1	1	1	1	0	1	-17,477097	276,136024	312,189792	0
15.01.2021	13:48:01	0	83,994317	3,75278	1,146	344,6856	1,474	85,23	0	1015,16	8,8	10,2	10	1	1	1	1	1	1	1	1	1	0	1	-17,477097	276,136024	312,189792	0
15.01.2021	13:48:02	0	84,345703	4,321384	1,1625	345,402	1,47	85,234	0	1015,2	8,7	10,2	10	1	1	1	1	1	1	1	1	1	0	1	-16,772375	276,097935	312,712661	0
15.01.2021	13:48:03	0	84,111355	4,662548	1,191	4,0716	1,474	85,238	0	1015,3	8,9	10,2	10	1	1	1	1	1	1	1	1	1	0	1	-16,349542	275,96603	312,506299	0
15.01.2021	13:48:04	0	84,1113	3,866504	1,1745	16,4772	1,472	85,23	0	1015,3	8,9	10,2	10	1	1	1	1	1	1	1	1	1	0	1	-16,983791	276,144314	312,722687	0
15.01.2021	13:48:05	0	83,994099	3,411623	1,10175	3,7656	1,471	85,235	0	1015,28	8,9	10,2	10	1	1	1	1	1	1	1	1	1	0	1	-20,789288	276,07644	308,593151	0
15.01.2021	13:48:06	0	84,228337	3,184182	1,04325	353,9844	1,469	85,231	0	1015,3	8,8	10,2	10	1	1	1	1	1	1	1	1	1	0	1	-22,128259	275,951246	306,65712	0
15.01.2021	13:48:07	0	84,111136	3,184183	0,9495	351,1188	1,469	85,226	0	1015,32	8,7	10,2	10	1	1	1	1	1	1	1	1	1	0	1	-21,564482	276,05827	307,731253	0
15.01.2021	13:48:08	0	84,111082	3,525347	0,92475	0,4824	1,472	85,227	0	1015,34	8,9	10,2	10	1	1	1	1	1	1	1	1	1	0	1	-16,631431	276,091319	312,822022	0
15.01.2021	13:48:09	0	83,993881	2,615581	0,89025	6,4008	1,47	85,215	0	1015,22	8,9	10,2	10	1	1	1	1	1	1	1	1	1	0	1	-16,701903	276,102899	312,806828	0
15.01.2021	13:48:10	0	84,110972	4,207674	0,9105	356,5764	1,462	85,212	0	1015,16	8,9	10,2	10	1	1	1	1	1	1	1	1	1	0	1	-15,503876	276,003861	313,53233	0
15.01.2021	13:48:11	0	84,110918	2,956745	0,924	346,6152	1,478	85,199	0	1015,36	8,8	10,2	10	1	1	1	1	1	1	1	1	1	0	1	-19,027484	275,993985	309,961629	0
15.01.2021	13:48:12	0	83,759425	2,615583	0,92475	344,7396	1,47	85,184	0	1015,36	8,9	10,2	10	1	1	1	1	1	1	1	1	1	0	1	-22,973925	275,987404	305,983809	0
15.01.2021	13:48:13	0	84,3451	5,003726	0,936	345,8232	1,468	85,176	0	1015,06	8,9	10,2	10	1	1	1	1	1	1	1	1	1	0	1	-20,014094	276,083051	309,399899	0
15.01.2021	13:48:14	0	83,759316	2,843027	0,98025	350,7552	1,472	85,187	0	1015,3	8,8	10,2	10	1	1	1	1	1	1	1	1	1	0	1	-22,410148	275,97096	306,469195	0
15.01.2021	13:48:15	0	83,52497	3,07047	0,969	349,4952	1,467	85,152	0	1015,24	8,8	10,2	10	1	1	1	1	1	1	1	1	1	0	1	-20,577872	276,061572	308,73362	0
15.01.2021	13:48:16	0	83,993498	4,321403	0,96375	350,3052	1,467	85,161	0	1015,24	8,8	10,2	10	1	1	1	1	1	1	1	1	1	0	1	-15,151515	275,961101	313,680831	0
15.01.2021	13:48:17	0	84,227735	3,86652	1,00875	357,7716	1,466	85,164	0	1015,28	8,9	10,2	10	1	1	1	1	1	1	1	1	1	0	1	-21,282593	276,030222	307,879335	0
15.01.2021	13:48:18	0	83,641952	3,866521	1,026	348,0552	1,465	85,152	0	1015,22	8,8	10,2	10	1	1	1	1	1	1	1	1	1	0	1	-15,926709	276,159245	313,851084	0
15.01.2021	13:48:19	0	84,11048	4,093965	0,999	332,352	1,475	85,158	0	1015,26	8,9	10,2	10	1	1	1	1	1	1	1	1	1	0	1	-16,27907	276,012095	312,796403	0
15.01.2021	13:48:20	0	84,110425	2,388147	0,9345	329,2992	1,476	85,142	0	1015,32	8,9	10,2	10	1	1	1	1	1	1	1	1	1	0	1	-16,349542	276,012095	312,72593	0
15.01.2021	13:48:21	0	83,87608	3,639082	0,903	332,0784	1,472	85,142	0	1015,32	8,9	10,2	10	1	1	1	1	1	1	1	1	1	0	1	-18,957012	276,140998	310,733628	0
15.01.2021	13:48:22	0	83,641734	2,615591	0,8385	337,4676	1,473	85,141	0	1015,4	8,9	10,2	10	1	1	1	1	1	1	1	1	1	0	1	-20,084567	275,992339	308,896701	0
15.01.2021	13:48:23	0	83,87597	3,639085	0,744	344,7144	1,472	85,123	0	1015,32	8,9	10,2	10	1	1	1	1	1	1	1	1	1	0	1	-24,665257	276,092973	304,79609	0
15.01.2021	13:48:24	0	83,75877	2,615593	0,6645	336,0636	1,469	85,118	0	1015,26	8,7	10,2	10	1	1	1	1	1	1	1	1	1	0	1	-20,5074	276,096281	308,969739	0
15.01.2021	13:48:25	0	83,993006	4,435137	0,62475	315,8748	1,471	85,112	0	1015,22	8,8	10,2	10	1	1	1	1	1	1	1	1	1	0	1	-19,661734	275,97096	309,217609	0
15.01.2021	13:48:26	0	83,641516	2,615595	0,633	303,8328	1,475	85,118	0	1015,3	8,8	10,2	10	1	1	1	1	1	1	1	1	1	0	1	-22,762509	276,132709	306,888549	0
15.01.2021	13:48:27	0	84,110041	4,548862	0,64425	308,484	1,471	85,113	0	1015,34	8,8	10,2	10	1	1	1	1	1	1	1	1	1	0	1	-20,014094	276,089665	309,431465	0
15.01.2021	13:48:28	0	83,875697	2,729318	0,6615	318,9456	1,473	85,11	0	1015,16	8,7	10,2	10	1	1	1	1	1	1	1	1	1	0	1	-20,5074	276,14929	309,222843	0
15.01.2021	13:48:29	0	83,992787	3,752813	0,6855	326,6856	1,471	85,109	0	1015,28	8,8	10,2	10	1	1	1	1	1	1	1	1	1	0	1	-19,943622	276,063224	309,375749	0
15.01.2021	13:48:30	0	83,875587	4,548866	0,72225	334,6092	1,468	85,081	0	1015,2	8,8	10,2	10	1	1	1	1	1	1	1	1	1	0	1	-20,789288	276,136024	308,8776	0
15.01.2021	13:48:31	0	83,641243	2,72932	0,7185	335,6856	1,461	85,083	0	1015,16	8,8	10,2	10	1	1	1	1	1	1	1	1	1	0	1	-18,111346	276,097935	311,37369	0
15.01.2021	13:48:32	0	83,641189	3,411652	0,729	324,3528	1,463	85,082	0	1015,26	8,8	10,2	10	1	1	1	1	1	1	1	1	1	0	1	-19,379845	276,13934	310,302877	0
15.01.2021	13:48:33	0	83,875423	3,184209	0,77025	315,2196	1,471	85,084	0	1015,2	8,8	10,2	10	1	1	1	1	1	1	1	1	1	0	1	-18,040874	276,018685	311,066026	0
15.01.2021	13:48:34	0	83,641079	4,207706	0,76125	321,8004	1,468	85,073	0	1015,2	8,8	10,2	10	1	1	1	1	1	1	1	1	1	0	1	-20,648344	275,964386	308,199665	0
15.01.2021	13:48:35	0	83,52388	2,956767	0,7665	327,4344	1,461	85,056	0	1015,22	8,8	10,2	10	1	1	1	1	1	1	1	1	1	0	1	-15,64482	276,005508	313,399238	0
15.01.2021	13:48:36	0	83,875258	4,321431	0,7755	324,0468	1,46	85,059	0	1015,34	8,8	10,2	10	1	1	1	1	1	1	1	1	1	0	1	-17,406624	275,944679	311,347459	0
15.01.2021	13:48:37	0	83,875203	3,411657	0,7965	321,8148	1,459	85,032	0	1015,2	8,7	10,2	10	1	1	1	1	1	1	1	1	1	0	1	-15,997181	276,026925	313,149021	0
15.01.2021	13:48:38	0	83,523716	3,52538	0,8205	318,564	1,468	85,025	0	1015,24	8,9	10,2	10	1	1	1	1	1	1	1	1	1	0	1	-18,745595	275,961101	310,086751	0
15.01.2021	13:48:39	0	83,75795	2,843049	0,8625	314,4888	1,461	85,026	0	1015,26	8,8	10,2	10	1	1	1	1	1	1	1	1	1	0	1	-16,983791	276,088011	312,453875	0
15.01.2021	13:48:40	0	83,875039	4,093992	0,90225	317,7756	1,466	85,039	0	1015,3	8,8	10,2	10	1	1	1	1	1	1	1	1	1	0	1	-22,692037	276,008801	306,367727	0
15.01.2021	13:48:41	0	83,640696	2,388163	0,9285	322,9416	1,47	85,035	0	1015,3	8,7	10,2	10	1	1	1	1	1	1	1	1	1	0	1	-18,816068	276,152608	310,930022	0
15.01.2021	13:48:42	0	83,874929	3,752829	0,93225	321,8436	1,47	85,028	0	1015,28	8,8	10,2	10	1	1	1	1	1	1	1	1	1	0	1	-18,88654	276,056619	310,401317	0
15.01.2021	13:48:43	0	83,406299	3,639108	0,909	326,3868	1,464	85,002	0	1015,22	8,8	10,2	10	1	1	1	1	1	1	1	1	1	0	1	-18,25229	276,157586	311,517575	0
15.01.2021	13:48:44	0	83,523388	3,866553	0,921	332,4924	1,467	85,01	0	1015,42	8,8	10,2	10	1	1	1	1	1	1	1	1	1	0	1	-22,128259	276,043416	307,096608	0
15.01.2021	13:48:45	0	83,40619	4,093999	0,86025	329,8716	1,466	85,026	0	1015,34	8,8	10,2	10	1	1	1	1	1	1	1	1	1	0	1	-16,420014	276,124424	313,191482	0
15.01.2021	13:48:46	0	83,757566	4,548889	0,8475	327,1536	1,459	85,003	0	1015,2	8,8	10,2	10	1	1	1	1	1	1	1	1	1	0	1	-18,463707	276,063224	310,855665	0
15.01.2021	13:48:47	0	83,523224	3,070501	0,80025	324,7704	1,461	84,99	0	1015,2	8,8	10,2	10	1	1	1	1	1	1	1	1	1	0	1	-18,957012	275,947962	309,812718	0
15.01.2021	13:48:48	0	83,288883	2,843057	0,77475	304,6752	1,457	84,988	0	1015,18	8,9	10,2	10	1	1	1	1	1	1	1	1	1	0	1	-17,688513	275,97918	311,230016	0
15.01.2021	13:48:49	0	83,405971	3,184232	0,77925	297,9072	1,459	84,979	0	1015,24	8,8	10,2	10,1	1	1	1	1	1	1	1	1	1	0	1	-20,014094	276,111175	309,534146	0
15.01.2021	13:48:50	0	83,288773	2,160725	0,76575	310,2696	1,462	84,981	0	1015,24	8,8	10,2	10	1	1	1	1	1	1	1	1	1	0	1	-21,987315	276,140998	307,703325	0
15.01.2021	13:48:51	0	83,874434	3,411672	0,78075	309,6324	1,464	84,978	0	1015,28	8,8	10,2	10	1	1	1	1	1	1	1	1	1	0	1	-21,353066	275,990694	307,620357	0
15.01.2021	13:48:52	0	83,52295	4,094008	0,8265	305,6184	1,463	84,985	0	1015,24	8,8	10,2	10	1	1	1	1	1	1	1	1	1	0	1	-16,490486	276,129395	313,144745	0
15.01.2021	13:48:53	0	83,405752	2,956784	0,87675	309,5352	1,465	84,97	0	1015,28	8,8	10,2	10	1	1	1	1	1	1	1	1	1	0	1	-18,88654	276,028573	310,267525	0
15.01.2021	13:48:54	0	83,171412	2,72934	0,94575	313,2864	1,456	84,98	0	1015,32	8,8	10,2	10	1	1	1	1	1	1	1	1	1	0	1	-20,084567	275,951246	308,700812	0
15.01.2021	13:48:55	0	83,2885	2,729341	0,95625	316,2132	1,46	84,966	0	1015,32	8,8	10,2	10	1	1	1	1	1	1	1	1	1	0	1	-20,718816	276,018685	308,388084	0
15.01.2021	13:48:56	0	83,171303	3,070516	0,98925	315,6084	1,455	84,968	0	1015,3	8,8	10,2	10,1	1	1	1	1	1	1	1	1	1	0	1	-18,604651	275,951246	310,180728	0
15.01.2021	13:48:57	0	83,522676	4,662627	0,987	318,8484	1,46	84,96	0	1015,24	8,8	10,2	10	1	1	1	1	1	1	1	1	1	0	1	-21,212121	276,073135	308,154547	0
15.01.2021	13:48:58	0	83,522621	5,003807	0,927	320,04	1,46	84,975	0	1015,34	8,8	10,2	10,1	1	1	1	1	1	1	1	1	1	0	1	-17,970402	275,962743	310,869776	0
15.01.2021	13:48:59	0	83,522566	4,20774	0,948	322,9524	1,462	84,964	0	1015,28	8,8	10,2	10	1	1	1	1	1	1	1	1	1	0	1	-17,195208	276,053317	312,076897	0
15.01.2021	13:49:00	0	83,405314	1,819564	0,94575	330,0444	1,461	84,972	0	1015,22	8,8	10,2	10	1	1	1	1	1	1	1	1	1	0	1	-20,225511	276,127738	309,401808	0
15.01.2021	13:49:01	0	83,405314	1,819564	0,94575	330,0444	1,461	84,972	0	1015,22	8,8	10,2	10	1	1	1	1	1	1	1	1	1	0	1	-16,701903	276,071483	312,65688	0
15.01.2021	13:49:02	0	83,405259	3,752852	0,93075	328,6044	1,46	84,98	0	1015,28	8,8	10,2	10	1	1	1	1	1	1	1	1	1	0	1	-17,829457	276,117798	311,750404	0
15.01.2021	13:49:03	0	83,639488	4,890082	0,94875	330,066	1,462	84,971	0	1015,26	8,8	10,2	10	1	1	1	1	1	1	1	1	1	0	1	-17,758985	276,010448	311,308632	0
15.01.2021	13:49:04	0	83,288007	4,321478	0,90525	326,8116	1,459	84,966	0	1015,28	8,8	10,2	10,1	1	1	1	1	1	1	1	1	1	0	1	-21,987315	275,951246	306,798064	0
15.01.2021	13:49:05	0	83,17081	2,160735	0,942	327,438	1,46	84,973	0	1015,32	8,8	10,2	10	1	1	1	1	1	1	1	1	1	0	1	-15,362932	276,083051	314,051061	0
15.01.2021	13:49:06	0	83,522766	2,729351	0,92025	331,2144	1,457	84,977	0	1015,18	8,8	10,3	10	1	1	1	1	1	1	1	1	1	0	1	-15,715292	275,943038	313,030969	0
15.01.2021	13:49:07	0	83,639268	4,662652	0,93	331,146	1,46	84,977	0	1015,28	8,8	10,2	10,1	1	1	1	1	1	1	1	1	1	0	1	-21,987315	276,036818	307,206076	0
15.01.2021	13:49:08	0	83,287788	4,321475	0,87825	342,432	1,464	84,975	0	1015,28	8,8	10,2	10	1	1	1	1	1	1	1	1	1	0	1	-18,25229	275,956173	310,556569	0
15.01.2021	13:49:09	0	83,287733	2,956799	0,846	336,1104	1,458	84,952	0	1015,22	8,8	10,2	10	1	1	1	1	1	1	1	1	1	0	1	-14,587738	276,083051	314,826255	0
15.01.2021	13:49:10	0	83,053395	2,729354	0,804	327,5388	1,462	84,963	0	1015,2	8,8	10,2	10	1	1	1	1	1	1	1	1	1	0	1	-19,238901	275,941396	309,49954	0
15.01.2021	13:49:11	0	83,639048	5,117541	0,7875	339,9012	1,461	84,957	0	1015,36	8,8	10,2	10	1	1	1	1	1	1	1	1	1	0	1	-22,128259	276,007154	306,923651	0
15.01.2021	13:49:12	0	83,170427	2,956802	0,78525	350,6868	1,451	84,96	0	1015,18	8,8	10,2	10	1	1	1	1	1	1	1	1	1	0	1	-12,121212	275,97096	316,758131	0
15.01.2021	13:49:13	0	83,756665	4,548937	0,7905	353,268	1,459	84,956	0	1015,26	8,8	10,3	10,1	1	1	1	1	1	1	1	1	1	0	1	-20,436927	276,023628	308,693551	0
15.01.2021	13:49:14	0	83,053176	3,297974	0,76275	346,1724	1,459	84,953	0	1015,26	8,8	10,2	10	1	1	1	1	1	1	1	1	1	0	1	-16,842847	275,959458	311,98167	0
15.01.2021	13:49:15	0	83,404544	2,843082	0,7245	339,1524	1,461	84,941	0	1015,4	8,8	10,2	10	1	1	1	1	1	1	1	1	1	0	1	-18,040874	276,03352	311,136784	0
15.01.2021	13:49:16	0	83,521631	3,411699	0,73425	336,456	1,457	84,938	0	1015,34	8,8	10,2	10	1	1	1	1	1	1	1	1	1	0	1	-20,85976	275,956173	307,949099	0
15.01.2021	13:49:17	0	83,053593	4,09404	0,81825	337,8708	1,456	84,935	0	1015,38	8,8	10,3	10	1	1	1	1	1	1	1	1	1	0	1	-21,564482	276,116142	308,007473	0
15.01.2021	13:49:18	0	83,404379	4,662659	0,846	348,2676	1,454	84,92	0	1015,26	8,8	10,2	10	1	1	1	1	1	1	1	1	1	0	1	-17,688513	276,081398	311,71759	0
15.01.2021	13:49:19	0	83,170042	3,070538	0,88875	353,6172	1,452	84,916	0	1015,22	8,8	10,2	10,1	1	1	1	1	1	1	1	1	1	0	1	-22,198732	275,95453	306,6023	0
15.01.2021	13:49:20	0	83,287128	4,3215	0,89775	350,2728	1,453	84,915	0	1015,36	8,8	10,2	10,1	1	1	1	1	1	1	1	1	1	0	1	-17,970402	276,028573	311,183663	0
15.01.2021	13:49:21	0	82,936232	2,61564	0,86925	355,3776	1,454	84,905	0	1015,28	8,8	10,3	10	1	1	1	1	1	1	1	1	1	0	1	-20,014094	275,933192	308,685252	0
15.01.2021	13:49:22	0	82,818455	2,729365	0,87975	0,8496	1,452	84,899	0	1015,38	8,8	10,2	10	1	1	1	1	1	1	1	1	1	0	1	-17,829457	276,008801	311,230306	0
15.01.2021	13:49:23	0	83,287546	3,980325	0,8745	359,4636	1,454	84,872	0	1015,3	8,8	10,3	10	1	1	1	1	1	1	1	1	1	0	1	-20,789288	276,140998	308,901352	0
15.01.2021	13:49:24	0	83,404049	3,752879	0,90075	344,7072	1,444	84,856	0	1015,32	8,8	10,2	10	1	1	1	1	1	1	1	1	1	0	1	-19,661734	276,023628	309,468745	0
15.01.2021	13:49:25	0	83,170295	3,980335	0,98325	347,3208	1,443	84,848	0	1015,28	8,8	10,3	10,1	1	1	1	1	1	1	1	1	1	0	1	-19,027484	276,140998	310,663156	0
15.01.2021	13:49:26	0	83,403938	4,66267	1,01175	348,3684	1,447	84,836	0	1015,28	8,8	10,2	10	1	1	1	1	1	1	1	1	1	0	1	-18,040874	276,059921	311,262739	0
15.01.2021	13:49:27	0	83,052462	2,274474	0,99225	339,138	1,448	84,85	0	1015,34	8,8	10,2	10	1	1	1	1	1	1	1	1	1	0	1	-17,970402	275,961101	310,861945	0
15.01.2021	13:49:28	0	83,521553	4,776397	0,978	342,7308	1,449	84,834	0	1015,2	8,8	10,3	10	1	1	1	1	1	1	1	1	1	0	1	-19,943622	276,069831	309,407277	0
15.01.2021	13:49:29	0	83,169492	4,435236	0,97875	345,3984	1,448	84,822	0	1015,4	8,8	10,2	10,1	1	1	1	1	1	1	1	1	1	0	1	-16,349542	276,134367	313,309431	0
15.01.2021	13:49:30	0	83,169437	4,548953	1,035	340,6104	1,448	84,815	0	1015,12	8,8	10,2	10	1	1	1	1	1	1	1	1	1	0	1	-22,339676	276,01539	306,751509	0
15.01.2021	13:49:31	0	83,403662	4,321506	1,02075	358,8048	1,448	84,809	0	1015,2	8,8	10,2	10	1	1	1	1	1	1	1	1	1	0	1	-20,436927	276,119455	309,150842	0
15.01.2021	13:49:32	0	82,935047	3,070551	1,03125	4,842	1,439	84,793	0	1015,24	8,8	10,2	10,1	1	1	1	1	1	1	1	1	1	0	1	-14,940099	276,031871	314,229694	0
15.01.2021	13:49:33	0	83,169272	3,525449	1,01775	347,5944	1,448	84,791	0	1015,32	8,8	10,2	10,1	1	1	1	1	1	1	1	1	1	0	1	-15,715292	276,132709	313,935766	0
15.01.2021	13:49:34	0	83,169217	2,843105	0,9645	324,8316	1,442	84,788	0	1015,22	8,8	10,2	10,1	1	1	1	1	1	1	1	1	1	0	1	-14,587738	276,094627	314,881505	0
15.01.2021	13:49:35	0	83,286301	3,41172	0,93825	324,4212	1,446	84,784	0	1015,34	8,8	10,2	10	1	1	1	1	1	1	1	1	1	0	1	-18,534179	275,952888	310,259026	0
15.01.2021	13:49:36	0	83,403386	4,207789	0,95775	321,1992	1,444	84,774	0	1015,22	8,8	10,2	10	1	1	1	1	1	1	1	1	1	0	1	-17,688513	276,088011	311,749154	0
15.01.2021	13:49:37	0	83,052494	3,184274	0,97125	324,18	1,445	84,76	0	1015,2	8,8	10,3	10	1	1	1	1	1	1	1	1	1	0	1	-15,151515	276,117798	314,428346	0
15.01.2021	13:49:38	0	83,051857	4,321516	1,02225	326,412	1,448	84,771	0	1015,36	8,8	10,2	10	1	1	1	1	1	1	1	1	1	0	1	-13,812544	275,975892	315,090308	0
15.01.2021	13:49:39	0	82,935243	3,752897	1,11675	333,4932	1,444	84,752	0	1015,1	8,8	10,3	10	1	1	1	1	1	1	1	1	1	0	1	-19,450317	275,949604	309,327237	0
15.01.2021	13:49:40	0	82,935188	4,435252	1,22775	342,4032	1,439	84,765	0	1015,2	8,8	10,3	10,1	1	1	1	1	1	1	1	1	1	0	1	-18,393235	276,074787	310,981319	0
15.01.2021	13:49:41	0	83,28597	3,752907	1,2945	348,39	1,432	84,747	0	1015,16	8,8	10,2	10,1	1	1	1	1	1	1	1	1	1	0	1	-12,05074	276,136024	317,616148	0
15.01.2021	13:49:42	0	83,520778	5,003867	1,2825	351,8532	1,443	84,747	0	1015,32	8,8	10,3	10	1	1	1	1	1	1	1	1	1	0	1	-21,49401	276,064875	307,833242	0
15.01.2021	13:49:43	0	82,934442	2,274486	1,25025	359,9568	1,442	84,756	0	1015,46	8,8	10,2	10	1	1	1	1	1	1	1	1	1	0	1	-14,376321	275,926632	314,291765	0
15.01.2021	13:49:44	0	83,052108	3,184281	1,16175	354,0744	1,439	84,73	0	1015,22	8,8	10,3	10	1	1	1	1	1	1	1	1	1	0	1	-19,732206	276,002215	309,29615	0
15.01.2021	13:49:45	0	83,286332	3,411731	1,14675	358,4844	1,44	84,751	0	1015,24	8,8	10,3	10	1	1	1	1	1	1	1	1	1	0	1	-19,943622	275,980824	308,982746	0
15.01.2021	13:49:46	0	83,285693	4,321536	1,18275	348,3648	1,438	84,749	0	1015,12	8,8	10,2	10,1	1	1	1	1	1	1	1	1	1	0	1	-19,87315	275,993985	309,115963	0
15.01.2021	13:49:47	0	83,285638	2,729386	1,17675	348,0444	1,44	84,752	0	1015,32	8,8	10,2	10	1	1	1	1	1	1	1	1	1	0	1	-20,577872	275,972604	308,309307	0
15.01.2021	13:49:48	0	83,169026	2,729393	1,1865	354,2868	1,44	84,763	0	1015,22	8,8	10,3	10,1	1	1	1	1	1	1	1	1	1	0	1	-19,450317	276,017037	309,648724	0
15.01.2021	13:49:49	0	82,934692	3,525467	1,167	352,5732	1,441	84,761	0	1015,32	8,8	10,3	10,1	1	1	1	1	1	1	1	1	1	0	1	-20,5074	276,152608	309,23869	0
15.01.2021	13:49:50	0	83,285472	3,411736	1,1805	349,8768	1,439	84,769	0	1015,26	8,8	10,2	10	1	1	1	1	1	1	1	1	1	0	1	-16,772375	276,008801	312,287389	0
15.01.2021	13:49:51	0	83,403139	4,776442	1,21875	351,4068	1,432	84,76	0	1015,3	8,8	10,3	10,1	1	1	1	1	1	1	1	1	1	0	1	-19,661734	276,13934	310,020988	0
15.01.2021	13:49:52	0	82,699669	2,501947	1,23	351,342	1,434	84,761	0	1015,28	8,8	10,2	10,1	1	1	1	1	1	1	1	1	1	0	1	-22,410148	276,124424	307,201348	0
15.01.2021	13:49:53	0	83,05161	3,298022	1,2525	346,194	1,438	84,779	0	1015,28	8,8	10,3	10,1	1	1	1	1	1	1	1	1	1	0	1	-17,477097	276,061572	311,834395	0
15.01.2021	13:49:54	0	83,050973	4,776437	1,2645	345,4416	1,436	84,781	0	1015,28	8,8	10,2	10	1	1	1	1	1	1	1	1	1	0	1	-15,221987	275,95453	313,579044	0
15.01.2021	13:49:55	0	83,285778	4,094098	1,29225	345,0996	1,437	84,771	0	1014,98	8,8	10,3	10,1	1	1	1	1	1	1	1	1	1	0	1	-15,503876	276,020333	313,610882	0
15.01.2021	13:49:56	0	83,051444	3,298025	1,332	345,7368	1,44	84,775	0	1015,24	8,8	10,3	10,1	1	1	1	1	1	1	1	1	1	0	1	-19,591261	275,949604	309,186292	0
15.01.2021	13:49:57	0	83,167945	4,321551	1,293	343,9188	1,44	84,787	0	1015,26	8,8	10,2	10,1	1	1	1	1	1	1	1	1	1	0	1	-21,705426	276,066527	307,629707	0
15.01.2021	13:49:58	0	83,16789	4,549003	1,2735	342,3348	1,442	84,789	0	1015,12	8,8	10,2	10,1	1	1	1	1	1	1	1	1	1	0	1	-13,812544	276,147631	315,909776	0
15.01.2021	13:49:59	0	83,051278	3,070578	1,2345	345,78	1,439	84,789	0	1015,36	8,8	10,3	10,1	1	1	1	1	1	1	1	1	1	0	1	-15,292459	275,990694	313,680963	0
15.01.2021	13:50:00	0	83,285445	4,207823	1,36875	334,6488	1,44	84,81	0	1015,36	8,8	10,3	10	1	1	1	1	1	1	1	1	1	0	1	-23,044397	276,132709	306,606661	0
15.01.2021	13:50:01	0	83,285445	4,207823	1,36875	334,6488	1,44	84,81	0	1015,36	8,8	10,3	10	1	1	1	1	1	1	1	1	1	0	1	-23,044397	276,132709	306,606661	0
15.01.2021	13:50:02	0	82,816255	2,7294	1,434	331,9632	1,436	84,788	0	1015,26	8,8	10,2	10	1	1	1	1	1	1	1	1	1	0	1	-17,89993	275,998922	311,112727	0
15.01.2021	13:50:03	0	82,81678	3,184301	1,46475	330,6564	1,438	84,812	0	1015,34	8,8	10,3	10	1	1	1	1	1	1	1	1	1	0	1	-16,420014	275,972604	312,467164	0
15.01.2021	13:50:04	0	83,16814	4,549002	1,497	330,3144	1,431	84,798	0	1015,12	8,8	10,3	10	1	1	1	1	1	1	1	1	1	0	1	-14,164905	276,000568	314,855601	0
15.01.2021	13:50:05	0	82,933808	4,207837	1,5165	330,6492	1,434	84,794	0	1015,2	8,8	10,3	10,1	1	1	1	1	1	1	1	1	1	0	1	-15,856237	276,117798	313,723625	0
15.01.2021	13:50:06	0	82,933171	4,43528	1,494	330,3324	1,435	84,815	0	1015,32	8,8	10,2	10	1	1	1	1	1	1	1	1	1	0	1	-18,181818	276,02198	310,9408	0
15.01.2021	13:50:07	0	82,933697	3,411762	1,48275	328,5684	1,441	84,803	0	1015,32	8,8	10,3	10,1	1	1	1	1	1	1	1	1	1	0	1	-20,718816	276,132709	308,932242	0
15.01.2021	13:50:08	0	82,815924	2,84313	1,40775	331,0884	1,432	84,808	0	1015,04	8,8	10,2	10	1	1	1	1	1	1	1	1	1	0	1	-18,111346	276,041766	311,105651	0
15.01.2021	13:50:09	0	82,933586	3,070588	1,41825	329,3208	1,437	84,812	0	1015,22	8,8	10,3	10,1	1	1	1	1	1	1	1	1	1	0	1	-18,463707	275,939755	310,266913	0
15.01.2021	13:50:10	0	83,284361	4,662736	1,395	322,9956	1,435	84,801	0	1015,24	8,8	10,2	10	1	1	1	1	1	1	1	1	1	0	1	-19,097956	275,949604	309,679598	0
15.01.2021	13:50:11	0	83,050613	3,980386	1,416	321,8328	1,435	84,809	0	1015,36	8,8	10,3	10	1	1	1	1	1	1	1	1	1	0	1	-18,534179	276,036818	310,659212	0
15.01.2021	13:50:12	0	82,699145	2,501958	1,51875	323,3304	1,438	84,814	0	1015,2	8,8	10,3	10	1	1	1	1	1	1	1	1	1	0	1	-18,25229	275,941396	310,48615	0
15.01.2021	13:50:13	0	83,167057	4,207848	1,5795	322,2252	1,438	84,804	0	1015,16	9	10,2	10,1	1	1	1	1	1	1	1	1	1	0	1	-17,618041	276,048366	311,630441	0
15.01.2021	13:50:14	0	82,933309	4,207841	1,65075	321,462	1,441	84,825	0	1015,38	8,8	10,3	10	1	1	1	1	1	1	1	1	1	0	1	-18,816068	276,136024	310,850821	0
15.01.2021	13:50:15	0	83,050391	2,388239	1,7085	321,1704	1,437	84,827	0	1015,24	8,8	10,3	10,1	1	1	1	1	1	1	1	1	1	0	1	-13,03735	276,059921	316,266263	0
15.01.2021	13:50:16	0	82,81548	2,729417	1,7235	322,614	1,436	84,819	0	1015,24	8,8	10,2	10,1	1	1	1	1	1	1	1	1	1	0	1	-17,547569	276,000568	311,472937	0
15.01.2021	13:50:17	0	82,581731	2,615693	1,70775	323,3484	1,438	84,823	0	1015,26	8,8	10,3	10,1	1	1	1	1	1	1	1	1	1	0	1	-15,574348	276,134367	314,084625	0
15.01.2021	13:50:18	0	82,81595	3,298042	1,65525	325,1052	1,441	84,826	0	1015,32	8,8	10,3	10	1	1	1	1	1	1	1	1	1	0	1	-14,517266	275,985759	314,432626	0
15.01.2021	13:50:19	0	83,283859	5,003927	1,614	325,98	1,441	84,822	0	1015,28	8,8	10,2	10	1	1	1	1	1	1	1	1	1	0	1	-20,366455	276,091319	309,086998	0
15.01.2021	13:50:20	0	83,050113	2,615695	1,5915	325,1664	1,442	84,822	0	1015,18	8,8	10,3	10,1	1	1	1	1	1	1	1	1	1	0	1	-15,715292	276,116142	313,856663	0
15.01.2021	13:50:21	0	83,167194	4,435311	1,49775	328,266	1,441	84,836	0	1015,14	8,8	10,3	10,1	1	1	1	1	1	1	1	1	1	0	1	-16,701903	275,947962	312,067827	0
15.01.2021	13:50:22	0	82,932865	4,435312	1,401	327,0924	1,438	84,82	0	1015,24	8,8	10,3	10,1	1	1	1	1	1	1	1	1	1	0	1	-18,181818	276,094627	311,287425	0
15.01.2021	13:50:23	0	83,049946	5,117659	1,3485	333,8496	1,437	84,845	0	1015,22	8,8	10,3	10	1	1	1	1	1	1	1	1	1	0	1	-16,560958	275,949604	312,216595	0
15.01.2021	13:50:24	0	82,581343	2,615693	1,26975	327,7656	1,435	84,836	0	1015,26	8,8	10,3	10	1	1	1	1	1	1	1	1	1	0	1	-21,775899	275,997276	307,228909	0
15.01.2021	13:50:25	0	82,815561	4,890211	1,28025	318,1644	1,443	84,843	0	1015,12	8,8	10,3	10	1	1	1	1	1	1	1	1	1	0	1	-19,379845	276,116142	310,19211	0
15.01.2021	13:50:26	0	82,932642	2,956878	1,25025	315,9144	1,443	84,85	0	1015,22	8,8	10,3	10,1	1	1	1	1	1	1	1	1	1	0	1	-18,88654	276,018685	310,22036	0
15.01.2021	13:50:27	0	82,697734	4,207858	1,3035	315,9144	1,442	84,855	0	1015,14	9	10,2	10	1	1	1	1	1	1	1	1	1	0	1	-18,322763	275,931552	310,368768	0
15.01.2021	13:50:28	0	83,049085	3,752964	1,35825	311,0076	1,442	84,857	0	1015,3	8,8	10,2	10,1	1	1	1	1	1	1	1	1	1	0	1	-17,26568	276,122767	312,337906	0
15.01.2021	13:50:29	0	82,932475	4,776501	1,35525	311,7276	1,438	84,844	0	1015,32	8,8	10,3	10,1	1	1	1	1	1	1	1	1	1	0	1	-15,362932	276,013742	313,720396	0
15.01.2021	13:50:30	0	82,815283	3,298054	1,323	305,7552	1,435	84,843	0	1015,28	8,8	10,3	10	1	1	1	1	1	1	1	1	1	0	1	-17,124736	275,95453	311,676296	0
15.01.2021	13:50:31	0	82,932364	3,525515	1,27125	302,058	1,439	84,85	0	1015,26	8,8	10,3	10,1	1	1	1	1	1	1	1	1	1	0	1	-14,094433	276,097935	315,390603	0
15.01.2021	13:50:32	0	82,697457	4,3216	1,2795	301,176	1,438	84,862	0	1015,38	8,8	10,2	10,1	1	1	1	1	1	1	1	1	1	0	1	-17,195208	276,097935	312,289828	0
15.01.2021	13:50:33	0	82,932252	2,729432	1,314	320,364	1,439	84,857	0	1015,32	8,8	10,3	10,1	1	1	1	1	1	1	1	1	1	0	1	-16,138125	276,038467	313,063134	0
15.01.2021	13:50:34	0	82,932197	4,662773	1,30275	330,7572	1,44	84,873	0	1015,28	8,8	10,3	10	1	1	1	1	1	1	1	1	1	0	1	-16,138125	275,959458	312,686391	0
15.01.2021	13:50:35	0	82,814425	4,094143	1,23075	321,1236	1,437	84,855	0	1015,24	8,8	10,2	10	1	1	1	1	1	1	1	1	1	0	1	-16,349542	275,964386	312,498467	0
15.01.2021	13:50:36	0	82,932085	4,435323	1,20525	313,254	1,439	84,863	0	1015,3	8,8	10,3	10	1	1	1	1	1	1	1	1	1	0	1	-19,87315	276,127738	309,754168	0
15.01.2021	13:50:37	0	82,463487	2,729431	1,176	318,4524	1,441	84,856	0	1015,38	8,8	10,3	10	1	1	1	1	1	1	1	1	1	0	1	-14,446794	275,949604	314,33076	0
15.01.2021	13:50:38	0	82,580567	2,388253	1,1865	324,3744	1,439	84,864	0	1015,28	8,8	10,3	10	1	1	1	1	1	1	1	1	1	0	1	-12,403101	275,997276	316,601707	0
15.01.2021	13:50:39	0	82,931918	3,525524	1,1595	326,0124	1,442	84,877	0	1015,12	8,8	10,3	10,1	1	1	1	1	1	1	1	1	1	0	1	-16,913319	276,140998	312,777321	0
15.01.2021	13:50:40	0	82,931281	2,615707	1,2075	315,8856	1,443	84,878	0	1015,28	8,8	10,2	10	1	1	1	1	1	1	1	1	1	0	1	-18,816068	276,050016	310,440288	0
15.01.2021	13:50:41	0	82,463265	3,980433	1,21575	316,2852	1,445	84,872	0	1015,36	8,8	10,3	10,1	1	1	1	1	1	1	1	1	1	0	1	-14,446794	276,145973	315,267606	0
15.01.2021	13:50:42	0	82,6969	3,980434	1,20825	332,0784	1,437	84,871	0	1015,12	8,8	10,2	10,1	1	1	1	1	1	1	1	1	1	0	1	-17,477097	276,112831	312,079048	0
15.01.2021	13:50:43	0	82,697424	4,321607	1,19775	322,632	1,441	84,871	0	1015,16	8,8	10,3	10	1	1	1	1	1	1	1	1	1	0	1	-18,534179	276,104554	310,982452	0
15.01.2021	13:50:44	0	82,814503	4,662797	1,22625	325,17	1,438	84,863	0	1015,18	8,8	10,3	10,1	1	1	1	1	1	1	1	1	1	0	1	-19,802678	276,140998	309,887962	0
15.01.2021	13:50:45	0	82,697313	3,18435	1,23225	324,1512	1,445	84,876	0	1015,26	8,9	10,3	10,1	1	1	1	1	1	1	1	1	1	0	1	-22,903453	276,000568	306,117052	0
15.01.2021	13:50:46	0	82,697257	3,525532	1,2795	318,1536	1,443	84,872	0	1015,22	8,8	10,3	10,1	1	1	1	1	1	1	1	1	1	0	1	-19,591261	276,124424	310,020235	0
15.01.2021	13:50:47	0	82,579488	4,435348	1,38075	314,4636	1,446	84,878	0	1015,24	8,9	10,2	10,1	1	1	1	1	1	1	1	1	1	0	1	-15,503876	276,018685	313,603024	0
15.01.2021	13:50:48	0	82,931415	4,094161	1,40025	322,6392	1,444	84,865	0	1015,18	8,8	10,3	10	1	1	1	1	1	1	1	1	1	0	1	-14,65821	276,127738	314,969109	0
15.01.2021	13:50:49	0	82,579955	3,752989	1,40175	328,5396	1,445	84,865	0	1015,26	9	10,3	10,1	1	1	1	1	1	1	1	1	1	0	1	-16,349542	276,031871	312,820251	0
15.01.2021	13:50:50	0	82,462765	3,070629	1,3485	314,8164	1,444	84,863	0	1015,14	8,8	10,3	10,1	1	1	1	1	1	1	1	1	1	0	1	-13,6716	275,97918	315,246929	0
15.01.2021	13:50:51	0	82,462709	4,207891	1,386	328,1796	1,444	84,857	0	1015,28	8,9	10,3	10	1	1	1	1	1	1	1	1	1	0	1	-15,221987	276,134367	314,436986	0
15.01.2021	13:50:52	0	82,93061	4,776536	1,4145	332,4708	1,438	84,87	0	1015,14	8,9	10,2	10,1	1	1	1	1	1	1	1	1	1	0	1	-16,842847	276,068179	312,500169	0
15.01.2021	13:50:53	0	82,462598	2,274542	1,41075	334,9908	1,439	84,847	0	1015,26	8,8	10,3	10,1	1	1	1	1	1	1	1	1	1	0	1	-15,926709	275,936474	312,788273	0
15.01.2021	13:50:54	0	82,462542	3,525541	1,42575	330,3936	1,438	84,854	0	1015,28	8,8	10,3	10,1	1	1	1	1	1	1	1	1	1	0	1	-16,983791	276,14929	312,746451	0
15.01.2021	13:50:55	0	82,696755	3,184361	1,40925	335,3976	1,439	84,843	0	1015,18	8,8	10,3	10,1	1	1	1	1	1	1	1	1	1	0	1	-19,097956	276,101244	310,402876	0
15.01.2021	13:50:56	0	82,696699	3,070635	1,368	332,4384	1,462	84,836	0	1015,38	8,9	10,3	10,1	1	1	1	1	1	1	1	1	1	0	1	-24,312896	276,126081	305,306511	0
15.01.2021	13:50:57	0	82,228107	3,980454	1,34475	323,7336	1,445	84,824	0	1015,24	8,8	10,3	10,1	1	1	1	1	1	1	1	1	1	0	1	-15,292459	276,131052	314,350685	0
15.01.2021	13:50:58	0	82,579453	4,321637	1,37025	324,2592	1,441	84,806	0	1015,28	8,8	10,3	10,1	1	1	1	1	1	1	1	1	1	0	1	-14,587738	276,059921	314,715875	0
15.01.2021	13:50:59	0	82,579397	4,094183	1,3035	323,2836	1,435	84,793	0	1015,28	8,8	10,3	10,1	1	1	1	1	1	1	1	1	1	0	1	-17,618041	276,136024	312,048848	0
15.01.2021	13:51:00	0	82,227884	2,61573	1,2525	326,7288	1,44	84,783	0	1015,18	8,8	10,3	10,1	1	1	1	1	1	1	1	1	1	0	1	-13,883016	276,031871	315,286777	0
15.01.2021	13:51:01	0	82,227884	2,61573	1,2525	326,7288	1,44	84,783	0	1015,18	8,8	10,3	10,1	1	1	1	1	1	1	1	1	1	0	1	-19,168428	276,14929	310,561814	0
15.01.2021	13:51:02	0	82,696363	4,435361	1,16925	325,1268	1,433	84,753	0	1015,18	8,8	10,3	10	1	1	1	1	1	1	1	1	1	0	1	-16,701903	276,01539	312,389282	0
15.01.2021	13:51:03	0	82,11064	2,388277	1,13925	323,334	1,437	84,775	0	1015,26	8,8	10,3	10,1	1	1	1	1	1	1	1	1	1	0	1	-16,983791	276,145973	312,730608	0
15.01.2021	13:51:04	0	82,579118	2,502005	1,06275	325,116	1,439	84,744	0	1015,26	8,8	10,3	10,1	1	1	1	1	1	1	1	1	1	0	1	-22,128259	276,003861	306,907947	0
15.01.2021	13:51:05	0	82,344795	3,184371	1,13025	326,6712	1,44	84,738	0	1015,28	9	10,3	10,1	1	1	1	1	1	1	1	1	1	0	1	-18,181818	275,97096	310,697525	0
15.01.2021	13:51:06	0	82,34474	3,75301	1,11525	326,3364	1,435	84,721	0	1015,26	9	10,3	10,1	1	1	1	1	1	1	1	1	1	0	1	-20,084567	276,073135	309,282101	0
15.01.2021	13:51:07	0	82,57895	2,38828	1,092	322,6752	1,434	84,705	0	1015,14	8,8	10,3	10,1	1	1	1	1	1	1	1	1	1	0	1	-19,520789	275,975892	309,382063	0
15.01.2021	13:51:08	0	82,461184	4,776561	1,0485	325,4868	1,431	84,697	0	1015,22	9	10,2	10,1	1	1	1	1	1	1	1	1	1	0	1	-22,410148	276,09959	307,082785	0
15.01.2021	13:51:09	0	82,344572	4,435371	1,071	331,1712	1,432	84,684	0	1015,26	8,8	10,3	10	1	1	1	1	1	1	1	1	1	0	1	-20,718816	276,121111	308,876861	0
15.01.2021	13:51:10	0	82,227383	4,094198	1,1475	330,3684	1,435	84,667	0	1015,26	9	10,3	10,1	1	1	1	1	1	1	1	1	1	0	1	-16,208598	276,129395	313,426633	0
15.01.2021	13:51:11	0	82,812992	4,662838	1,13925	336,0996	1,431	84,659	0	1015,22	8,8	10,3	10,1	1	1	1	1	1	1	1	1	1	0	1	-22,762509	276,078092	306,627818	0
15.01.2021	13:51:12	0	82,227272	3,639282	1,1505	327,8628	1,431	84,65	0	1015,3	9	10,3	10	1	1	1	1	1	1	1	1	1	0	1	-21,423538	275,95453	307,377494	0
15.01.2021	13:51:13	0	82,344349	2,729468	1,21275	321,876	1,423	84,629	0	1015,16	8,8	10,3	10,1	1	1	1	1	1	1	1	1	1	0	1	-19,802678	275,984114	309,139372	0
15.01.2021	13:51:14	0	82,578558	4,094204	1,3065	324,0828	1,428	84,635	0	1015,28	8,8	10,3	10,1	1	1	1	1	1	1	1	1	1	0	1	-21,000705	276,136024	308,666184	0
15.01.2021	13:51:15	0	82,695635	4,776572	1,35075	339,8184	1,426	84,62	0	1015,18	8,8	10,3	10,1	1	1	1	1	1	1	1	1	1	0	1	-15,926709	276,106209	313,597823	0
15.01.2021	13:51:16	0	82,109916	3,980478	1,359	339,4116	1,427	84,609	0	1015,38	9	10,3	10,1	1	1	1	1	1	1	1	1	1	0	1	-20,295983	276,083051	309,11801	0
15.01.2021	13:51:17	0	82,461258	4,435392	1,40625	327,8196	1,427	84,616	0	1015,24	9	10,3	10,1	1	1	1	1	1	1	1	1	1	0	1	-16,138125	276,119455	313,449644	0
15.01.2021	13:51:18	0	82,578334	4,321665	1,50975	336,0564	1,425	84,596	0	1015,06	8,8	10,3	10,1	1	1	1	1	1	1	1	1	1	0	1	-16,138125	276,017037	312,960916	0
15.01.2021	13:51:19	0	82,344014	3,980482	1,54875	327,9312	1,424	84,588	0	1015,12	9	10,3	10,1	1	1	1	1	1	1	1	1	1	0	1	-16,067653	275,943038	312,678608	0
15.01.2021	13:51:20	0	81,992561	3,184387	1,55475	344,0844	1,423	84,605	0	1015,22	8,8	10,3	10,1	1	1	1	1	1	1	1	1	1	0	1	-20,084567	275,998922	308,92809	0
15.01.2021	13:51:21	0	82,109637	4,321669	1,4685	323,0352	1,426	84,574	0	1015,2	8,8	10,3	10,1	1	1	1	1	1	1	1	1	1	0	1	-22,692037	276,127738	306,935282	0
15.01.2021	13:51:22	0	82,57811	4,662855	1,37475	316,9476	1,425	84,601	0	1015,34	8,8	10,3	10,1	1	1	1	1	1	1	1	1	1	0	1	-22,410148	276,063224	306,909224	0
15.01.2021	13:51:23	0	82,226658	4,094207	1,33275	328,572	1,421	84,583	0	1015,28	8,9	10,3	10	1	1	1	1	1	1	1	1	1	0	1	-19,943622	276,145973	309,770777	0
15.01.2021	13:51:24	0	81,992338	2,843206	1,36125	334,6308	1,422	84,59	0	1015,38	8,9	10,3	10,1	1	1	1	1	1	1	1	1	1	0	1	-16,560958	276,107864	312,971476	0
15.01.2021	13:51:25	0	82,46081	3,980482	1,281	340,9128	1,421	84,573	0	1015,32	9	10,3	10	1	1	1	1	1	1	1	1	1	0	1	-20,014094	276,096281	309,463044	0
15.01.2021	13:51:26	0	81,992227	3,866763	1,24875	323,3664	1,424	84,579	0	1015,26	8,8	10,3	10,1	1	1	1	1	1	1	1	1	1	0	1	-18,88654	275,944679	309,867543	0
15.01.2021	13:51:27	0	82,109303	2,956931	1,2975	302,0652	1,424	84,58	0	1015,2	8,9	10,3	10	1	1	1	1	1	1	1	1	1	0	1	-16,772375	276,005508	312,271683	0
15.01.2021	13:51:28	0	82,460641	3,070667	1,3455	326,3292	1,424	84,556	0	1015,22	8,9	10,3	10,1	1	1	1	1	1	1	1	1	1	0	1	-19,732206	276,121111	309,863472	0
15.01.2021	13:51:29	0	82,460585	3,63931	1,3965	318,8196	1,422	84,569	0	1015,26	8,9	10,3	10,1	1	1	1	1	1	1	1	1	1	0	1	-14,799154	276,051667	314,465075	0
15.01.2021	13:51:30	0	82,460529	4,321682	1,3275	326,7432	1,428	84,575	0	1015,2	8,9	10,3	10,1	1	1	1	1	1	1	1	1	1	0	1	-20,366455	276,122767	309,237131	0
15.01.2021	13:51:31	0	81,991948	2,956941	1,2165	335,826	1,424	84,575	0	1015,26	8,8	10,3	10,1	1	1	1	1	1	1	1	1	1	0	1	-19,732206	275,980824	309,194162	0
15.01.2021	13:51:32	0	81,874761	2,3883	1,179	328,6044	1,425	84,569	0	1015,2	8,9	10,3	10,1	1	1	1	1	1	1	1	1	1	0	1	-15,221987	275,959458	313,602529	0
15.01.2021	13:51:33	0	81,757001	2,615757	1,314	325,458	1,426	84,563	0	1015,26	8,8	10,2	10,1	1	1	1	1	1	1	1	1	1	0	1	-19,661734	275,997276	309,343074	0
15.01.2021	13:51:34	0	82,108911	4,321688	1,42275	331,5456	1,421	84,547	0	1015,2	8,9	10,3	10,1	1	1	1	1	1	1	1	1	1	0	1	-19,591261	276,122767	310,012325	0
15.01.2021	13:51:35	0	82,108855	4,662875	1,52175	332,118	1,414	84,559	0	1015,28	8,9	10,3	10,1	1	1	1	1	1	1	1	1	1	0	1	-14,094433	276,083051	315,31956	0
15.01.2021	13:51:36	0	81,757406	2,61576	1,54425	328,9752	1,421	84,552	0	1015,28	8,9	10,3	10,1	1	1	1	1	1	1	1	1	1	0	1	-25,017618	276,05827	304,278117	0
15.01.2021	13:51:37	0	81,757351	3,184405	1,53525	330,426	1,443	84,54	0	1015,5	8,8	10,3	10,1	1	1	1	1	1	1	1	1	1	0	1	-19,591261	276,134367	310,067711	0
15.01.2021	13:51:38	0	82,225818	3,525592	1,503	333,8928	1,417	84,538	0	1015,12	8,9	10,3	10,1	1	1	1	1	1	1	1	1	1	0	1	-14,869626	275,998922	314,14303	0
15.01.2021	13:51:39	0	81,757239	2,502034	1,49475	331,5168	1,42	84,521	0	1015,26	8,9	10,3	10,1	1	1	1	1	1	1	1	1	1	0	1	-21,141649	276,134367	308,517324	0
15.01.2021	13:51:40	0	81,757183	4,207967	1,4625	337,1724	1,412	84,504	0	1015,2	8,9	10,3	10,1	1	1	1	1	1	1	1	1	1	0	1	-16,560958	276,122767	313,042628	0
15.01.2021	13:51:41	0	82,108519	3,525595	1,42275	346,5144	1,407	84,499	0	1015,14	8,9	10,3	10,1	1	1	1	1	1	1	1	1	1	0	1	-18,88654	275,997276	310,118268	0
15.01.2021	13:51:42	0	81,757072	3,753054	1,374	338,7636	1,42	84,493	0	1015,22	8,9	10,3	10,1	1	1	1	1	1	1	1	1	1	0	1	-17,477097	275,944679	311,276987	0
15.01.2021	13:51:43	0	81,874146	4,776607	1,332	337,104	1,415	84,478	0	1015,24	8,9	10,3	10	1	1	1	1	1	1	1	1	1	0	1	-19,591261	276,038467	309,609998	0
15.01.2021	13:51:44	0	81,991221	4,321702	1,2885	341,7012	1,413	84,467	0	1015,28	9	10,3	10,1	1	1	1	1	1	1	1	1	1	0	1	-16,772375	276,132709	312,878683	0
15.01.2021	13:51:45	0	81,874035	5,345265	1,29225	328,6332	1,416	84,479	0	1015,28	8,9	10,3	10,1	1	1	1	1	1	1	1	1	1	0	1	-15,715292	276,084704	313,706591	0
15.01.2021	13:51:46	0	81,873979	2,956956	1,26675	332,82	1,417	84,469	0	1015,18	8,9	10,3	10,1	1	1	1	1	1	1	1	1	1	0	1	-14,728682	275,96603	314,127159	0
15.01.2021	13:51:47	0	81,756793	2,274582	1,2465	336,1572	1,414	84,462	0	1015,16	8,9	10,3	10,1	1	1	1	1	1	1	1	1	1	0	1	-17,477097	276,096281	312,000042	0
15.01.2021	13:51:48	0	82,108127	4,776624	1,25625	335,34	1,411	84,462	0	1015,3	8,9	10,3	10,1	1	1	1	1	1	1	1	1	1	0	1	-21,564482	276,089665	307,881077	0
15.01.2021	13:51:49	0	81,990941	4,549167	1,3185	335,0664	1,413	84,446	0	1015,26	8,9	10,3	10,1	1	1	1	1	1	1	1	1	1	0	1	-17,688513	276,114487	311,875536	0
15.01.2021	13:51:50	0	81,990885	3,866794	1,467	340,9416	1,401	84,433	0	1015,24	8,9	10,3	10,1	1	1	1	1	1	1	1	1	1	0	1	-17,829457	275,947962	310,940272	0
15.01.2021	13:51:51	0	81,873699	2,843232	1,58925	335,0556	1,405	84,423	0	1015,22	8,8	10,3	10,1	1	1	1	1	1	1	1	1	1	0	1	-16,772375	276,079745	312,62584	0
15.01.2021	13:51:52	0	81,756513	3,866788	1,695	339,2064	1,41	84,416	0	1015,18	8,9	10,3	10	1	1	1	1	1	1	1	1	1	0	1	-26,286117	276,122767	303,317469	0
15.01.2021	13:51:53	0	81,522198	2,274587	1,767	338,85	1,405	84,424	0	1015,4	8,9	10,3	10,1	1	1	1	1	1	1	1	1	1	0	1	-18,675123	275,933192	310,024223	0
15.01.2021	13:51:54	0	81,99066	3,866799	1,7715	343,152	1,398	84,406	0	1015,26	8,9	10,3	10,1	1	1	1	1	1	1	1	1	1	0	1	-15,503876	275,997276	313,500932	0
15.01.2021	13:51:55	0	81,404957	2,502047	1,76775	332,2944	1,407	84,418	0	1015,38	9	10,3	10,1	1	1	1	1	1	1	1	1	1	0	1	-17,89993	275,939755	310,83069	0
15.01.2021	13:51:56	0	81,873419	4,662907	1,8165	339,1992	1,397	84,406	0	1015,16	9	10,3	10,1	1	1	1	1	1	1	1	1	1	0	1	-19,379845	276,064875	309,947407	0
15.01.2021	13:51:57	0	81,756233	4,207991	1,81875	334,6236	1,407	84,42	0	1015,1	8,9	10,3	10,1	1	1	1	1	1	1	1	1	1	0	1	-18,181818	275,96603	310,674023	0
15.01.2021	13:51:58	0	81,756177	4,77663	1,7955	334,6308	1,397	84,41	0	1015,2	8,9	10,3	10	1	1	1	1	1	1	1	1	1	0	1	-21,282593	276,066527	308,05254	0
15.01.2021	13:51:59	0	81,638992	4,435453	1,77825	331,5492	1,408	84,41	0	1015,08	8,9	10,3	10,1	1	1	1	1	1	1	1	1	1	0	1	-15,362932	275,956173	313,445928	0
15.01.2021	13:52:00	0	81,63888	2,502052	1,7745	320,4576	1,402	84,405	0	1015,16	8,9	10,3	10,1	1	1	1	1	1	1	1	1	1	0	1	-17,195208	275,97918	311,723321	0
15.01.2021	13:52:01	0	81,63888	2,502052	1,7745	320,4576	1,402	84,405	0	1015,16	8,9	10,3	10,1	1	1	1	1	1	1	1	1	1	0	1	-15,785765	276,122767	313,817822	0
15.01.2021	13:52:02	0	81,755953	3,41189	1,68675	320,7708	1,402	84,396	0	1015,28	8,9	10,3	10,1	1	1	1	1	1	1	1	1	1	0	1	-20,436927	276,046716	308,803682	0
15.01.2021	13:52:03	0	81,755897	2,729513	1,614	325,1304	1,401	84,398	0	1015,26	8,9	10,3	10,1	1	1	1	1	1	1	1	1	1	0	1	-19,87315	275,936474	308,841832	0
15.01.2021	13:52:04	0	81,755841	3,411893	1,54725	322,2828	1,4	84,404	0	1015,28	8,9	10,3	10,1	1	1	1	1	1	1	1	1	1	0	1	-19,732206	276,124424	309,879291	0
15.01.2021	13:52:05	0	81,521528	2,843245	1,55175	320,0652	1,401	84,402	0	1015,24	8,9	10,3	10,1	1	1	1	1	1	1	1	1	1	0	1	-16,913319	276,018685	312,19358	0
15.01.2021	13:52:06	0	81,6386	4,662923	1,56225	328,9644	1,398	84,403	0	1015,28	8,9	10,3	10,1	1	1	1	1	1	1	1	1	1	0	1	-21,846371	276,102899	307,662361	0
15.01.2021	13:52:07	0	81,872801	4,890384	1,602	325,1232	1,395	84,389	0	1015,18	8,9	10,3	10,1	1	1	1	1	1	1	1	1	1	0	1	-18,181818	275,989049	310,78376	0
15.01.2021	13:52:08	0	81,169975	2,502058	1,605	328,1436	1,397	84,399	0	1015,12	8,9	10,3	10,1	1	1	1	1	1	1	1	1	1	0	1	-20,648344	275,926632	308,019742	0
15.01.2021	13:52:09	0	81,521304	4,435468	1,608	324,3924	1,395	84,381	0	1015,28	8,9	10,3	10,1	1	1	1	1	1	1	1	1	1	0	1	-17,547569	275,992339	311,433699	0
15.01.2021	13:52:10	0	81,989761	4,776659	1,6035	325,5264	1,4	84,396	0	1015,26	8,9	10,3	10,1	1	1	1	1	1	1	1	1	1	0	1	-18,745595	275,947962	310,024134	0
15.01.2021	13:52:11	0	81,872576	4,094281	1,60575	329,616	1,401	84,391	0	1015,28	8,8	10,3	10,1	1	1	1	1	1	1	1	1	1	0	1	-17,829457	275,957815	310,98723	0
15.01.2021	13:52:12	0	81,87252	4,435472	1,596	327,8556	1,4	84,388	0	1015,08	8,9	10,3	10,1	1	1	1	1	1	1	1	1	1	0	1	-20,930233	276,079745	308,467982	0
15.01.2021	13:52:13	0	81,286824	2,615792	1,66875	327,8988	1,398	84,389	0	1015,22	8,9	10,3	10,1	1	1	1	1	1	1	1	1	1	0	1	-21,141649	276,131052	308,501495	0
15.01.2021	13:52:14	0	81,755279	3,980555	1,70325	335,3688	1,389	84,381	0	1015,28	8,9	10,3	10,1	1	1	1	1	1	1	1	1	1	0	1	-19,027484	275,997276	309,977324	0
15.01.2021	13:52:15	0	81,40384	4,321746	1,73775	335,4228	1,391	84,393	0	1015,26	8,9	10,3	10,1	1	1	1	1	1	1	1	1	1	0	1	-18,181818	276,122767	311,421768	0
15.01.2021	13:52:16	0	81,638039	4,776669	1,72425	334,1844	1,389	84,386	0	1015,2	8,9	10,3	10,1	1	1	1	1	1	1	1	1	1	0	1	-19,027484	276,045066	310,205254	0
15.01.2021	13:52:17	0	81,520855	2,50206	1,74	328,9644	1,397	84,388	0	1015,34	8,9	10,3	10	1	1	1	1	1	1	1	1	1	0	1	-17,477097	276,045066	311,755641	0
15.01.2021	13:52:18	0	81,637927	4,662941	1,6605	340,5996	1,384	84,387	0	1015,26	8,9	10,3	10,1	1	1	1	1	1	1	1	1	1	0	1	-15,785765	276,119455	313,802004	0
15.01.2021	13:52:19	0	81,754998	4,549213	1,56075	343,1664	1,393	84,394	0	1015,24	8,9	10,3	10,1	1	1	1	1	1	1	1	1	1	0	1	-16,349542	275,975892	312,55331	0
15.01.2021	13:52:20	0	81,286432	1,933416	1,4685	346,9068	1,391	84,385	0	1015,08	8,9	10,3	10,1	1	1	1	1	1	1	1	1	1	0	1	-15,433404	275,921712	313,211245	0
15.01.2021	13:52:21	0	81,052122	3,525642	1,43625	345,582	1,393	84,387	0	1015,14	8,9	10,3	10,1	1	1	1	1	1	1	1	1	1	0	1	-19,591261	275,95453	309,20977	0
15.01.2021	13:52:22	0	81,520575	3,753104	1,4535	340,6284	1,388	84,402	0	1015,12	8,9	10,3	10,1	1	1	1	1	1	1	1	1	1	0	1	-20,5074	276,051667	308,75683	0
15.01.2021	13:52:23	0	81,05201	2,502065	1,4685	339,2208	1,394	84,407	0	1015,12	8,9	10,3	10	1	1	1	1	1	1	1	1	1	0	1	-15,715292	276,116142	313,856663	0
15.01.2021	13:52:24	0	81,169081	3,525639	1,55325	342,4644	1,392	84,396	0	1015,26	8,9	10,3	10	1	1	1	1	1	1	1	1	1	0	1	-18,040874	276,05827	311,254861	0
15.01.2021	13:52:25	0	81,286152	3,753108	1,57875	340,9668	1,391	84,417	0	1015,22	8,9	10,3	10,1	1	1	1	1	1	1	1	1	1	0	1	-17,688513	275,921712	310,956136	0
15.01.2021	13:52:26	0	81,286096	5,004136	1,6215	343,9872	1,385	84,395	0	1015,28	8,8	10,3	10	1	1	1	1	1	1	1	1	1	0	1	-19,450317	276,111175	310,097923	0
15.01.2021	13:52:27	0	81,520294	4,321764	1,64625	336,474	1,389	84,402	0	1015,28	8,9	10,3	10,1	1	1	1	1	1	1	1	1	1	0	1	-15,433404	275,972604	313,453775	0
15.01.2021	13:52:28	0	81,168857	4,890418	1,656	340,236	1,39	84,401	0	1015,26	8,9	10,3	10,1	1	1	1	1	1	1	1	1	1	0	1	-21,071177	276,102899	308,437554	0
15.01.2021	13:52:29	0	81,285928	4,435497	1,72275	339,102	1,387	84,414	0	1015,2	8,9	10,3	10,1	1	1	1	1	1	1	1	1	1	0	1	-16,138125	276,020333	312,976633	0
15.01.2021	13:52:30	0	81,168745	4,549229	1,82325	343,1736	1,392	84,421	0	1015,38	8,9	10,3	10,1	1	1	1	1	1	1	1	1	1	0	1	-16,772375	275,921712	311,872274	0
15.01.2021	13:52:31	0	81,402942	3,980577	1,84125	348,0228	1,395	84,415	0	1015,26	8,9	10,3	10,1	1	1	1	1	1	1	1	1	1	0	1	-20,718816	276,056619	308,569041	0
15.01.2021	13:52:32	0	81,402886	4,435502	1,83375	345,1644	1,39	84,418	0	1015,28	8,9	10,3	10,1	1	1	1	1	1	1	1	1	1	0	1	-18,322763	275,933192	310,376584	0
15.01.2021	13:52:33	0	81,285704	3,98058	1,782	346,9536	1,387	84,418	0	1015,1	8,9	10,3	10,1	1	1	1	1	1	1	1	1	1	0	1	-17,547569	276,061572	311,763923	0
15.01.2021	13:52:34	0	81,051395	3,411927	1,7505	344,7252	1,391	84,418	0	1015,1	8,9	10,3	10,1	1	1	1	1	1	1	1	1	1	0	1	-14,023961	276,097935	315,461075	0
15.01.2021	13:52:35	0	81,519844	3,525659	1,69275	343,98	1,386	84,427	0	1015,3	8,9	10,3	10,1	1	1	1	1	1	1	1	1	1	0	1	-17,688513	275,97918	311,230016	0
15.01.2021	13:52:36	0	80,934157	2,502081	1,65375	342,5112	1,389	84,443	0	1015,26	8,9	10,3	10,1	1	1	1	1	1	1	1	1	1	0	1	-17,829457	275,913517	310,776146	0
15.01.2021	13:52:37	0	81,051227	3,070737	1,6245	342,774	1,389	84,445	0	1015,36	8,9	10,3	10,1	1	1	1	1	1	1	1	1	1	0	1	-15,715292	275,944679	313,038791	0
15.01.2021	13:52:38	0	80,934045	2,615809	1,62	348,7104	1,385	84,425	0	1015,18	8,9	10,3	10	1	1	1	1	1	1	1	1	1	0	1	-19,309373	275,985759	309,640519	0
15.01.2021	13:52:39	0	81,285367	3,525663	1,593	340,9632	1,388	84,431	0	1015,06	8,9	10,3	10,1	1	1	1	1	1	1	1	1	1	0	1	-19,732206	276,094627	309,737037	0
15.01.2021	13:52:40	0	81,168185	2,729547	1,55775	339,8328	1,389	84,45	0	1015,2	8,9	10,3	10,1	1	1	1	1	1	1	1	1	1	0	1	-17,406624	276,059921	311,896988	0
15.01.2021	13:52:41	0	81,051003	4,208053	1,52325	341,4528	1,387	84,454	0	1015,18	8,9	10,3	10,1	1	1	1	1	1	1	1	1	1	0	1	-18,111346	275,959458	310,713171	0
15.01.2021	13:52:42	0	80,933821	3,753129	1,50075	345,3804	1,389	84,447	0	1015,36	8,9	10,3	10,1	1	1	1	1	1	1	1	1	1	0	1	-16,349542	275,898773	312,185829	0
15.01.2021	13:52:43	0	81,050891	3,866862	1,485	343,9116	1,388	84,443	0	1015,26	8,9	10,3	10,1	1	1	1	1	1	1	1	1	1	0	1	-16,772375	275,972604	312,114804	0
15.01.2021	13:52:44	0	80,582333	2,72955	1,50375	337,1832	1,388	84,461	0	1015,22	8,9	10,3	10,1	1	1	1	1	1	1	1	1	1	0	1	-16,208598	275,915155	312,404813	0
15.01.2021	13:52:45	0	80,933653	2,61582	1,48275	347,6808	1,389	84,444	0	1015,14	8,9	10,3	10,1	1	1	1	1	1	1	1	1	1	0	1	-16,913319	276,040117	312,295808	0
15.01.2021	13:52:46	0	81,284973	4,662985	1,4205	335,0448	1,391	84,465	0	1015,28	8,9	10,3	10,1	1	1	1	1	1	1	1	1	1	0	1	-18,675123	275,906962	309,899257	0
15.01.2021	13:52:47	0	80,816416	2,957016	1,4145	335,736	1,389	84,463	0	1015,2	8,9	10,3	10,1	1	1	1	1	1	1	1	1	1	0	1	-18,111346	275,97096	310,767997	0
15.01.2021	13:52:48	0	80,699235	3,184473	1,4355	341,9892	1,388	84,453	0	1015,16	8,9	10,3	10	1	1	1	1	1	1	1	1	1	0	1	-17,688513	276,091319	311,76494	0
15.01.2021	13:52:49	0	81,284804	4,435527	1,4295	339,1488	1,391	84,459	0	1015,38	8,9	10,3	10,1	1	1	1	1	1	1	1	1	1	0	1	-18,957012	276,081398	310,449091	0
15.01.2021	13:52:50	0	81,401873	4,549251	1,39275	334,2528	1,386	84,466	0	1015,24	8,9	10,3	10	1	1	1	1	1	1	1	1	1	0	1	-17,336152	276,025277	311,802188	0
15.01.2021	13:52:51	0	81,050442	4,094335	1,38975	332,7804	1,386	84,467	0	1015,22	8,9	10,3	10,1	1	1	1	1	1	1	1	1	1	0	1	-17,758985	275,931552	310,932545	0
15.01.2021	13:52:52	0	80,581886	2,615826	1,407	333,5724	1,39	84,478	0	1015,2	8,9	10,3	10,1	1	1	1	1	1	1	1	1	1	0	1	-19,238901	276,096281	310,238238	0
15.01.2021	13:52:53	0	81,050329	3,639411	1,42575	331,1676	1,388	84,475	0	1015,36	8,9	10,3	10,1	1	1	1	1	1	1	1	1	1	0	1	-17,054264	275,946321	311,707642	0
15.01.2021	13:52:54	0	80,933148	4,662998	1,4655	338,4216	1,393	84,488	0	1015,34	8,9	10,3	10,1	1	1	1	1	1	1	1	1	1	0	1	-21,353066	276,083051	308,060927	0
15.01.2021	13:52:55	0	80,698843	2,274634	1,437	343,9836	1,386	84,481	0	1015,18	8,9	10,3	10,1	1	1	1	1	1	1	1	1	1	0	1	-19,802678	276,066527	309,532456	0
15.01.2021	13:52:56	0	81,050161	4,663001	1,42875	332,4528	1,389	84,483	0	1015,28	8,9	10,3	10,1	1	1	1	1	1	1	1	1	1	0	1	-16,067653	275,910239	312,522337	0
15.01.2021	13:52:57	0	80,815855	3,070751	1,422	338,022	1,385	84,476	0	1015,28	8,9	10,3	10	1	1	1	1	1	1	1	1	1	0	1	-15,221987	276,017037	313,877054	0
15.01.2021	13:52:58	0	81,167172	4,890467	1,39875	334,98	1,383	84,47	0	1015,24	8,9	10,3	10,1	1	1	1	1	1	1	1	1	1	0	1	-19,520789	275,916794	309,10043	0
15.01.2021	13:52:59	0	80,581495	3,980614	1,40025	334,6056	1,382	84,479	0	1015,16	8,9	10,3	10,1	1	1	1	1	1	1	1	1	1	0	1	-19,520789	275,969316	309,350719	0
15.01.2021	13:53:00	0	80,698507	4,321813	1,35	328,9392	1,384	84,483	0	1015,1	8,9	10,3	10,1	1	1	1	1	1	1	1	1	1	0	1	-18,111346	275,913517	310,494257	0
15.01.2021	13:53:01	0	80,698507	4,321813	1,35	328,9392	1,384	84,483	0	1015,1	8,9	10,3	10,1	1	1	1	1	1	1	1	1	1	0	1	-17,054264	276,078092	312,336063	0
15.01.2021	13:53:02	0	80,815575	4,776732	1,3665	324,486	1,387	84,481	0	1015,36	8,9	10,3	10	1	1	1	1	1	1	1	1	1	0	1	-23,255814	276,104554	306,260817	0
15.01.2021	13:53:03	0	81,049766	3,866888	1,3815	325,5408	1,389	84,48	0	1015,18	8,9	10,3	10,1	1	1	1	1	1	1	1	1	1	0	1	-15,856237	275,992339	313,125031	0
15.01.2021	13:53:04	0	80,346967	2,274641	1,36575	324,45	1,39	84,498	0	1015,3	8,9	10,3	10,1	1	1	1	1	1	1	1	1	1	0	1	-15,785765	275,918434	312,843264	0
15.01.2021	13:53:05	0	80,698282	2,160909	1,386	331,146	1,391	84,501	0	1015,44	8,9	10,3	10,1	1	1	1	1	1	1	1	1	1	0	1	-17,970402	275,951246	310,814977	0
15.01.2021	13:53:06	0	80,698226	4,776748	1,4655	341,3052	1,38	84,491	0	1015,14	8,9	10,3	10,1	1	1	1	1	1	1	1	1	1	0	1	-15,292459	276,104554	314,224172	0
15.01.2021	13:53:07	0	80,69817	3,411964	1,50525	332,3556	1,386	84,497	0	1015,2	8,9	10,3	10,1	1	1	1	1	1	1	1	1	1	0	1	-15,010571	276,017037	314,088471	0
15.01.2021	13:53:08	0	80,112496	2,160911	1,54425	321,2604	1,384	84,502	0	1015,24	8,9	10,3	10,1	1	1	1	1	1	1	1	1	1	0	1	-18,111346	275,903686	310,447428	0
15.01.2021	13:53:09	0	80,580934	3,753163	1,56225	333,9	1,386	84,5	0	1015,2	8,9	10,3	10,1	1	1	1	1	1	1	1	1	1	0	1	-17,054264	276,017037	312,044778	0
15.01.2021	13:53:10	0	81,048804	4,54929	1,45425	337,1904	1,39	84,505	0	1015,16	8,9	10,2	10,1	1	1	1	1	1	1	1	1	1	0	1	-18,745595	276,101244	310,755236	0
15.01.2021	13:53:11	0	80,815069	2,502111	1,3965	320,3928	1,386	84,501	0	1015,18	8,9	10,3	10,1	1	1	1	1	1	1	1	1	1	0	1	-15,010571	275,957815	313,806117	0
15.01.2021	13:53:12	0	80,34652	2,502111	1,383	322,9344	1,388	84,51	0	1015,36	8,9	10,3	10,1	1	1	1	1	1	1	1	1	1	0	1	-20,5074	275,916794	308,113819	0
15.01.2021	13:53:13	0	80,112218	2,615845	1,35525	324,9036	1,387	84,516	0	1015,28	8,9	10,3	10,1	1	1	1	1	1	1	1	1	1	0	1	-13,319239	276,028573	315,834826	0
15.01.2021	13:53:14	0	80,346408	3,184501	1,3575	321,0696	1,387	84,514	0	1015,18	8,9	10,3	10	1	1	1	1	1	1	1	1	1	0	1	-20,718816	275,921712	307,925833	0
15.01.2021	13:53:15	0	80,346352	3,411973	1,428	332,028	1,384	84,509	0	1015,18	8,9	10,3	10,1	1	1	1	1	1	1	1	1	1	0	1	-15,433404	275,905324	313,133173	0
15.01.2021	13:53:16	0	80,814787	4,776765	1,48275	338,4	1,389	84,506	0	1015,38	8,9	10,3	10,1	1	1	1	1	1	1	1	1	1	0	1	-17,124736	276,045066	312,108002	0
15.01.2021	13:53:17	0	80,229117	3,411976	1,49475	328,6764	1,386	84,505	0	1015,2	8,9	10,3	10,1	1	1	1	1	1	1	1	1	1	0	1	-16,349542	276,107864	313,182892	0
15.01.2021	13:53:18	0	80,697552	4,094372	1,4865	324,0756	1,39	84,512	0	1015,16	8,9	10,3	10,1	1	1	1	1	1	1	1	1	1	0	1	-16,913319	276,053317	312,358786	0
15.01.2021	13:53:19	0	79,99476	3,866909	1,4625	331,506	1,392	84,512	0	1015,2	8,9	10,3	10,1	1	1	1	1	1	1	1	1	1	0	1	-18,25229	276,104554	311,264341	0
15.01.2021	13:53:20	0	79,877581	2,388385	1,4025	328,1652	1,381	84,488	0	1015,2	8,9	10,3	10,1	1	1	1	1	1	1	1	1	1	0	1	-14,094433	275,913517	314,51117	0
15.01.2021	13:53:21	0	80,580261	4,549298	1,41525	339,8364	1,385	84,524	0	1015,18	8,9	10,3	10	1	1	1	1	1	1	1	1	1	0	1	-14,446794	276,09959	315,04614	0
15.01.2021	13:53:22	0	80,814449	4,776765	1,51725	333,8604	1,388	84,508	0	1015,22	8,9	10,3	10	1	1	1	1	1	1	1	1	1	0	1	-14,376321	276,081398	315,029782	0
15.01.2021	13:53:23	0	80,345903	3,980646	1,50375	343,9404	1,387	84,518	0	1015,3	8,9	10,3	10,1	1	1	1	1	1	1	1	1	1	0	1	-19,450317	275,951246	309,335062	0
15.01.2021	13:53:24	0	80,697214	4,549312	1,5765	350,748	1,384	84,513	0	1015,14	8,9	10,3	10,1	1	1	1	1	1	1	1	1	1	0	1	-17,195208	275,918434	311,43382	0
15.01.2021	13:53:25	0	79,994425	3,525718	1,49475	339,0912	1,387	84,524	0	1015,24	8,9	10,3	10,1	1	1	1	1	1	1	1	1	1	0	1	-15,715292	275,947962	313,054437	0
15.01.2021	13:53:26	0	80,111491	3,525719	1,49175	341,6652	1,39	84,515	0	1015,22	8,9	10,3	10,1	1	1	1	1	1	1	1	1	1	0	1	-16,067653	276,079745	313,330561	0
15.01.2021	13:53:27	0	80,697045	4,435583	1,4505	337,1148	1,386	84,521	0	1015,28	8,9	10,3	10,1	1	1	1	1	1	1	1	1	1	0	1	-16,27907	275,924992	312,381203	0
15.01.2021	13:53:28	0	79,994257	2,957051	1,42275	328,0968	1,386	84,526	0	1015,22	8,9	10,3	10	1	1	1	1	1	1	1	1	1	0	1	-16,842847	275,951246	311,942532	0
15.01.2021	13:53:29	0	80,345567	2,843319	1,4145	327,3768	1,387	84,506	0	1015,18	8,9	10,3	10	1	1	1	1	1	1	1	1	1	0	1	-14,587738	276,069831	314,763161	0
15.01.2021	13:53:30	0	80,696876	4,208122	1,377	323,3592	1,386	84,522	0	1015,24	8,9	10,3	10,1	1	1	1	1	1	1	1	1	1	0	1	-21,987315	276,040117	307,221812	0
15.01.2021	13:53:31	0	79,994089	2,729594	1,3095	326,718	1,39	84,514	0	1015,3	8,9	10,3	10,1	1	1	1	1	1	1	1	1	1	0	1	-13,178295	275,905324	315,388283	0
15.01.2021	13:53:32	0	80,344835	4,321858	1,2225	332,802	1,388	84,522	0	1015,26	8,9	10,2	10,1	1	1	1	1	1	1	1	1	1	0	1	-19,520789	276,003861	309,515417	0
15.01.2021	13:53:33	0	79,759734	2,502129	1,11975	323,3376	1,391	84,527	0	1015,3	8,9	10,3	10,1	1	1	1	1	1	1	1	1	1	0	1	-17,406624	275,903686	311,15215	0
15.01.2021	13:53:34	0	80,228164	3,753187	1,05525	298,9296	1,39	84,526	0	1015,18	8,9	10,3	10	1	1	1	1	1	1	1	1	1	0	1	-22,762509	276,050016	306,493847	0
15.01.2021	13:53:35	0	79,759623	4,890528	1,017	306,45	1,387	84,525	0	1015,18	8,9	10,3	10,1	1	1	1	1	1	1	1	1	1	0	1	-16,983791	275,928272	311,692109	0
15.01.2021	13:53:36	0	79,876688	4,094397	1,0215	322,6392	1,388	84,516	0	1015,28	8,9	10,3	10,1	1	1	1	1	1	1	1	1	1	0	1	-14,587738	276,025277	314,550602	0
15.01.2021	13:53:37	0	79,641832	2,615866	1,08525	317,0376	1,386	84,517	0	1015,12	8,9	10,2	10,1	1	1	1	1	1	1	1	1	1	0	1	-17,970402	275,905324	310,596176	0
15.01.2021	13:53:38	0	80,110819	2,957067	1,044	320,7312	1,388	84,517	0	1015,3	8,9	10,3	10,1	1	1	1	1	1	1	1	1	1	0	1	-20,295983	275,97918	308,622546	0
15.01.2021	13:53:39	0	79,993641	2,615868	1,01625	322,9236	1,388	84,504	0	1015,2	8,9	10,3	10,1	1	1	1	1	1	1	1	1	1	0	1	-18,322763	276,104554	311,193869	0
15.01.2021	13:53:40	0	79,876464	2,843335	1,01025	323,9964	1,388	84,51	0	1015,22	8,9	10,3	10,1	1	1	1	1	1	1	1	1	1	0	1	-21,705426	275,980824	307,220942	0
15.01.2021	13:53:41	0	80,344892	4,435605	0,9645	321,4656	1,388	84,533	0	1015,26	8,9	10,3	10,1	1	1	1	1	1	1	1	1	1	0	1	-17,970402	276,101244	311,53043	0
15.01.2021	13:53:42	0	80,110594	5,004273	0,9705	326,3148	1,387	84,533	0	1015,22	8,9	10,3	10,1	1	1	1	1	1	1	1	1	1	0	1	-16,560958	276,054968	312,719022	0
15.01.2021	13:53:43	0	80,109977	3,639466	0,99375	332,3484	1,386	84,521	0	1015,2	8,9	10,2	10	1	1	1	1	1	1	1	1	1	0	1	-12,191684	276,056619	317,096173	0
15.01.2021	13:53:44	0	79,87624	3,753208	1,00725	336,1428	1,388	84,536	0	1015,32	8,9	10,3	10,1	1	1	1	1	1	1	1	1	1	0	1	-17,124736	276,079745	312,273479	0
15.01.2021	13:53:45	0	79,993305	4,435611	1,0065	331,506	1,385	84,524	0	1015,2	8,9	10,3	10,1	1	1	1	1	1	1	1	1	1	0	1	-16,701903	276,091319	312,75155	0
15.01.2021	13:53:46	0	79,876128	3,980677	1,04175	331,9992	1,387	84,534	0	1015,32	8,9	10,3	10,1	1	1	1	1	1	1	1	1	1	0	1	-17,406624	275,936474	311,308357	0
15.01.2021	13:53:47	0	80,110313	4,208146	1,035	335,3724	1,387	84,53	0	1015,28	8,9	10,3	10,1	1	1	1	1	1	1	1	1	1	0	1	-15,926709	275,956173	312,88215	0
15.01.2021	13:53:48	0	80,110257	4,435615	1,01775	336,024	1,388	84,526	0	1015,18	8,9	10,3	10,1	1	1	1	1	1	1	1	1	1	0	1	-17,054264	276,107864	312,47817	0
15.01.2021	13:53:49	0	79,87596	3,184539	0,99525	333,4392	1,388	84,519	0	1015,24	8,9	10,3	10	1	1	1	1	1	1	1	1	1	0	1	-19,238901	275,997276	309,765907	0
15.01.2021	13:53:50	0	79,407424	4,776819	0,97725	316,2888	1,388	84,531	0	1015,16	8,9	10,3	10,1	1	1	1	1	1	1	1	1	1	0	1	-16,772375	276,09959	312,720558	0
15.01.2021	13:53:51	0	80,109527	3,525749	0,98925	310,2516	1,392	84,53	0	1015,1	8,9	10,2	10,1	1	1	1	1	1	1	1	1	1	0	1	-20,155039	276,007154	308,896871	0
15.01.2021	13:53:52	0	79,641552	2,957081	1,00575	323,7588	1,387	84,539	0	1015,28	8,9	10,3	10,1	1	1	1	1	1	1	1	1	1	0	1	-19,591261	275,913517	309,014342	0
15.01.2021	13:53:53	0	79,524376	2,843348	1,05225	333,8928	1,385	84,523	0	1015,26	8,9	10,3	10,1	1	1	1	1	1	1	1	1	1	0	1	-16,490486	275,998922	312,52217	0
15.01.2021	13:53:54	0	79,52432	2,502147	1,2135	337,5144	1,392	84,541	0	1015,16	8,9	10,3	10,1	1	1	1	1	1	1	1	1	1	0	1	-16,913319	275,90041	311,629852	0
15.01.2021	13:53:55	0	79,758504	4,663094	1,2345	328,1184	1,393	84,551	0	1015,18	8,9	10,3	10,1	1	1	1	1	1	1	1	1	1	0	1	-20,014094	276,041766	309,202902	0
15.01.2021	13:53:56	0	79,758448	4,663086	1,29225	345,078	1,388	84,546	0	1015,2	8,9	10,3	10	1	1	1	1	1	1	1	1	1	0	1	-17,829457	275,913517	310,776146	0
15.01.2021	13:53:57	0	79,758392	4,208152	1,31625	351,6732	1,392	84,547	0	1015,26	8,9	10,3	10	1	1	1	1	1	1	1	1	1	0	1	-18,88654	276,059921	310,417073	0
15.01.2021	13:53:58	0	79,641216	4,549364	1,30425	324,4932	1,39	84,536	0	1015,14	8,9	10,3	10,1	1	1	1	1	1	1	1	1	1	0	1	-19,87315	276,091319	309,580303	0
15.01.2021	13:53:59	0	79,640602	3,412024	1,37325	322,848	1,388	84,556	0	1015,14	8,9	10,2	10,1	1	1	1	1	1	1	1	1	1	0	1	-14,305849	276,003861	314,730357	0
15.01.2021	13:54:00	0	79,172571	2,388419	1,464	345,4812	1,39	84,561	0	1015,28	8,9	10,3	10,1	1	1	1	1	1	1	1	1	1	0	1	-16,208598	275,921712	312,436051	0
15.01.2021	13:54:01	0	79,172571	2,388419	1,464	345,4812	1,39	84,561	0	1015,28	8,9	10,3	10,1	1	1	1	1	1	1	1	1	1	0	1	-16,560958	275,947962	312,208771	0
15.01.2021	13:54:02	0	79,640992	4,321893	1,4115	328,8816	1,394	84,581	0	1015,28	8,9	10,3	10	1	1	1	1	1	1	1	1	1	0	1	-18,957012	276,064875	310,37024	0
15.01.2021	13:54:03	0	79,875174	4,549372	1,40025	318,87	1,395	84,581	0	1015,26	8,9	10,3	10,1	1	1	1	1	1	1	1	1	1	0	1	-16,560958	276,038467	312,640301	0
15.01.2021	13:54:04	0	79,406642	3,525757	1,3995	329,2848	1,39	84,568	0	1015,18	8,9	10,3	10	1	1	1	1	1	1	1	1	1	0	1	-18,816068	275,928272	309,859832	0
15.01.2021	13:54:05	0	79,406586	3,184556	1,35375	322,2108	1,393	84,582	0	1015,32	8,9	10,3	10	1	1	1	1	1	1	1	1	1	0	1	-14,728682	275,952888	314,064523	0
15.01.2021	13:54:06	0	79,523649	3,298291	1,32225	327,1032	1,393	84,593	0	1015,26	8,9	10,3	10	1	1	1	1	1	1	1	1	1	0	1	-20,225511	275,984114	308,716539	0
15.01.2021	13:54:07	0	79,055118	2,274685	1,26	340,5636	1,385	84,589	0	1015,2	8,9	10,3	10	1	1	1	1	1	1	1	1	1	0	1	-15,64482	275,928272	313,03108	0
15.01.2021	13:54:08	0	79,640655	4,54938	1,17825	337,14	1,391	84,587	0	1015,26	8,9	10,3	10,1	1	1	1	1	1	1	1	1	1	0	1	-20,084567	276,056619	309,203291	0
15.01.2021	13:54:09	0	79,640599	3,639498	1,122	321,2028	1,392	84,594	0	1015,06	8,9	10,3	10	1	1	1	1	1	1	1	1	1	0	1	-16,701903	275,980824	312,224466	0
15.01.2021	13:54:10	0	79,640543	4,435648	1,1385	333,1512	1,39	84,61	0	1015,12	8,9	10,3	10,1	1	1	1	1	1	1	1	1	1	0	1	-18,463707	276,101244	311,037125	0
15.01.2021	13:54:11	0	79,172013	3,866977	1,1715	328,2444	1,396	84,615	0	1015,22	8,9	10,3	10,1	1	1	1	1	1	1	1	1	1	0	1	-19,450317	276,066527	309,884817	0
15.01.2021	13:54:12	0	79,054839	3,18457	1,24875	327,0924	1,398	84,625	0	1015,26	8,9	10,3	10,1	1	1	1	1	1	1	1	1	1	0	1	-16,983791	275,915155	311,629619	0
15.01.2021	13:54:13	0	78,937665	2,502158	1,317	335,1168	1,392	84,63	0	1015,26	8,9	10,3	10	1	1	1	1	1	1	1	1	1	0	1	-15,081043	275,969316	313,790465	0
15.01.2021	13:54:14	0	78,937609	2,388429	1,3335	336,4236	1,397	84,632	0	1015,28	8,9	10,3	10,1	1	1	1	1	1	1	1	1	1	0	1	-15,362932	275,923352	313,289529	0
15.01.2021	13:54:15	0	79,288908	2,729634	1,2915	336,5172	1,389	84,643	0	1015,26	8,9	10,3	10,1	1	1	1	1	1	1	1	1	1	0	1	-14,65821	276,051667	314,60602	0
15.01.2021	13:54:16	0	79,288852	4,321922	1,26525	335,4264	1,398	84,657	0	1015,38	8,9	10,3	10,1	1	1	1	1	1	1	1	1	1	0	1	-20,225511	275,916794	308,395708	0
15.01.2021	13:54:17	0	79,171678	2,274697	1,26675	340,1316	1,393	84,649	0	1015,22	8,9	10,3	10,1	1	1	1	1	1	1	1	1	1	0	1	-15,081043	275,972604	313,806136	0
15.01.2021	13:54:18	0	79,054504	3,298312	1,28025	348,3792	1,396	84,653	0	1015,14	8,9	10,3	10,1	1	1	1	1	1	1	1	1	1	0	1	-18,816068	276,086358	310,613707	0
15.01.2021	13:54:19	0	79,405801	4,435662	1,275	353,5956	1,395	84,653	0	1015,24	8,9	10,3	10,1	1	1	1	1	1	1	1	1	1	0	1	-18,745595	276,07644	310,636844	0
15.01.2021	13:54:20	0	78,937275	2,388434	1,29	340,182	1,395	84,669	0	1015,26	8,9	10,3	10,1	1	1	1	1	1	1	1	1	1	0	1	-21,353066	276,107864	308,179368	0
15.01.2021	13:54:21	0	79,288572	5,00433	1,26675	337,1724	1,399	84,678	0	1015,28	8,9	10,3	10	1	1	1	1	1	1	1	1	1	0	1	-15,433404	276,030222	313,728525	0
15.01.2021	13:54:22	0	79,171398	2,843376	1,173	0,864	1,392	84,678	0	1015,2	8,9	10,3	10,1	1	1	1	1	1	1	1	1	1	0	1	-14,376321	275,856242	313,956518	0
15.01.2021	13:54:23	0	79,405577	4,890608	1,0695	360	1,402	84,673	0	1015,14	8,9	10,3	10,1	1	1	1	1	1	1	1	1	1	0	1	-17,89993	276,217419	312,155826	0
15.01.2021	13:54:24	0	78,819934	3,070848	1,04475	356,1732	1,406	84,68	0	1015,36	8,9	10,3	10,1	1	1	1	1	1	1	1	1	1	0	1	-19,591261	276,104554	309,92537	0
15.01.2021	13:54:25	0	78,936996	2,843379	1,1055	358,092	1,4	84,678	0	1015,36	8,9	10,3	10,1	1	1	1	1	1	1	1	1	1	0	1	-18,463707	276,101244	311,037125	0
15.01.2021	13:54:26	0	79,171174	4,435672	1,182	359,4312	1,403	84,691	0	1015,3	8,9	10,3	10,1	1	1	1	1	1	1	1	1	1	0	1	-20,718816	276,012095	308,356656	0
15.01.2021	13:54:27	0	78,936884	2,61591	1,28475	357,6672	1,398	84,697	0	1015,34	8,9	10,3	10,1	1	1	1	1	1	1	1	1	1	0	1	-17,406624	275,933192	311,292722	0
15.01.2021	13:54:28	0	78,936828	2,502176	1,3425	358,7292	1,401	84,709	0	1015,3	8,9	10,3	10,1	1	1	1	1	1	1	1	1	1	0	1	-18,604651	276,064875	310,722601	0
15.01.2021	13:54:29	0	78,936772	3,184589	1,35975	353,142	1,398	84,708	0	1015,18	8,9	10,3	10,1	1	1	1	1	1	1	1	1	1	0	1	-20,718816	276,09959	308,774117	0
15.01.2021	13:54:30	0	79,288067	4,549414	1,3065	354,9384	1,405	84,726	0	1015,2	8,9	10,3	10,1	1	1	1	1	1	1	1	1	1	0	1	-17,618041	275,989049	311,347537	0
15.01.2021	13:54:31	0	78,468194	2,388443	1,28925	354,6504	1,406	84,722	0	1015,1	8,9	10,3	10,1	1	1	1	1	1	1	1	1	1	0	1	-15,997181	276,092973	313,464166	0
15.01.2021	13:54:32	0	78,819488	3,298327	1,2	355,5648	1,404	84,735	0	1015,22	8,9	10,3	10,1	1	1	1	1	1	1	1	1	1	0	1	-18,604651	275,929912	310,079064	0
15.01.2021	13:54:33	0	78,936548	4,435683	1,11975	346,1796	1,405	84,731	0	1015,26	8,9	10,3	10,1	1	1	1	1	1	1	1	1	1	0	1	-17,970402	276,066527	311,364732	0
15.01.2021	13:54:34	0	79,053609	4,663156	1,04325	340,9236	1,409	84,741	0	1015,3	8,9	10,3	10,1	1	1	1	1	1	1	1	1	1	0	1	-18,88654	275,928272	309,78936	0
15.01.2021	13:54:35	0	78,936437	2,388446	0,99675	332,8236	1,409	84,747	0	1015,28	8,9	10,3	10,1	1	1	1	1	1	1	1	1	1	0	1	-17,406624	275,972604	311,480554	0
15.01.2021	13:54:36	0	78,936381	4,208216	0,99525	327,8088	1,409	84,741	0	1015,16	8,9	10,3	10,1	1	1	1	1	1	1	1	1	1	0	1	-14,235377	276,114487	315,328672	0
15.01.2021	13:54:37	0	79,170557	3,070862	1,071	324,3708	1,411	84,755	0	1015,36	8,9	10,3	10,1	1	1	1	1	1	1	1	1	1	0	1	-18,675123	276,036818	310,518268	0
15.01.2021	13:54:38	0	78,936269	2,61592	1,14375	335,3868	1,411	84,751	0	1015,28	8,9	10,3	10,1	1	1	1	1	1	1	1	1	1	0	1	-16,490486	276,104554	313,026145	0
15.01.2021	13:54:39	0	78,584864	2,729657	1,167	342,3564	1,408	84,748	0	1015,2	8,9	10,3	10,1	1	1	1	1	1	1	1	1	1	0	1	-16,27907	276,041766	312,937927	0
15.01.2021	13:54:40	0	78,584809	2,729658	1,17825	349,4232	1,41	84,765	0	1015,2	8,9	10,3	10,1	1	1	1	1	1	1	1	1	1	0	1	-22,621564	276,122767	306,982022	0
15.01.2021	13:54:41	0	78,9361	3,412073	1,16925	359,9784	1,406	84,749	0	1015,16	8,9	10,3	10,1	1	1	1	1	1	1	1	1	1	0	1	-20,084567	276,008801	308,975197	0
15.01.2021	13:54:42	0	78,936044	3,298332	1,2375	347,9904	1,409	84,758	0	1015,26	8,9	10,3	10	1	1	1	1	1	1	1	1	1	0	1	-16,067653	276,05827	313,228081	0
15.01.2021	13:54:43	0	78,818873	3,867019	1,32825	337,2192	1,412	84,759	0	1015,36	8,9	10,3	10,1	1	1	1	1	1	1	1	1	1	0	1	-18,322763	276,094627	311,14648	0
15.01.2021	13:54:44	0	79,287279	4,4357	1,45275	339,8652	1,409	84,765	0	1015,26	8,9	10,3	10,1	1	1	1	1	1	1	1	1	1	0	1	-20,155039	276,031871	309,014754	0
15.01.2021	13:54:45	0	78,818761	4,549437	1,56675	338,0076	1,418	84,785	0	1015,26	8,9	10,3	10,1	1	1	1	1	1	1	1	1	1	0	1	-19,238901	276,107864	310,293533	0
15.01.2021	13:54:46	0	78,818705	2,615927	1,5615	340,182	1,415	84,784	0	1015,32	8,9	10,3	10,1	1	1	1	1	1	1	1	1	1	0	1	-17,124736	276,030222	312,037193	0
15.01.2021	13:54:47	0	78,818649	4,094496	1,59075	330,642	1,418	84,789	0	1015,36	8,9	10,3	10,1	1	1	1	1	1	1	1	1	1	0	1	-20,718816	276,045066	308,513922	0
15.01.2021	13:54:48	0	78,701477	3,980762	1,61325	343,5588	1,413	84,784	0	1015,36	8,9	10,3	10,1	1	1	1	1	1	1	1	1	1	0	1	-13,460183	276,097935	316,024852	0
15.01.2021	13:54:49	0	78,935652	4,66318	1,64025	329,6376	1,413	84,774	0	1015,2	8,9	10,3	10,1	1	1	1	1	1	1	1	1	1	0	1	-21,423538	276,040117	307,78559	0
15.01.2021	13:54:50	0	78,81848	4,321973	1,66725	331,506	1,421	84,79	0	1015,24	8,9	10,3	10,1	1	1	1	1	1	1	1	1	1	0	1	-19,87315	275,918434	308,755878	0
15.01.2021	13:54:51	0	78,467079	2,615932	1,68525	315,2412	1,414	84,77	0	1015,14	8,9	10,3	10,1	1	1	1	1	1	1	1	1	1	0	1	-17,477097	276,025277	311,661243	0
15.01.2021	13:54:52	0	79,169713	5,004393	1,6605	326,7648	1,416	84,784	0	1015,22	8,9	10,3	10,1	1	1	1	1	1	1	1	1	1	0	1	-17,970402	275,924992	310,689871	0
15.01.2021	13:54:53	0	78,818312	4,435714	1,58925	331,1244	1,419	84,805	0	1015,28	8,9	10,3	10,1	1	1	1	1	1	1	1	1	1	0	1	-18,816068	276,020333	310,298691	0
15.01.2021	13:54:54	0	78,349797	2,957143	1,539	330,0804	1,419	84,812	0	1015,34	8,9	10,3	10,1	1	1	1	1	1	1	1	1	1	0	1	-18,675123	275,933192	310,024223	0
15.01.2021	13:54:55	0	78,58397	3,41209	1,56075	319,5576	1,416	84,806	0	1015,24	8,9	10,3	10,1	1	1	1	1	1	1	1	1	1	0	1	-16,913319	275,964386	311,93469	0
15.01.2021	13:54:56	0	78,701029	3,980773	1,50975	325,5516	1,421	84,807	0	1015,24	8,9	10,3	10,1	1	1	1	1	1	1	1	1	1	0	1	-16,631431	276,122767	312,972156	0
15.01.2021	13:54:57	0	78,700973	3,070883	1,4985	325,1448	1,418	84,816	0	1015,24	8,9	10,3	10,1	1	1	1	1	1	1	1	1	1	0	1	-18,25229	276,007154	310,79962	0
15.01.2021	13:54:58	0	78,700917	2,615938	1,47225	308,4912	1,42	84,802	0	1015,06	8,9	10,3	10,1	1	1	1	1	1	1	1	1	1	0	1	-20,436927	276,102899	309,071804	0
15.01.2021	13:54:59	0	79,052204	4,20825	1,49025	323,2476	1,421	84,811	0	1015,34	8,9	10,3	10,1	1	1	1	1	1	1	1	1	1	0	1	-16,631431	276,020333	312,483328	0
15.01.2021	13:55:00	0	78,817863	4,435726	1,54125	314,8164	1,417	84,817	0	1015,3	8,9	10,3	10,1	1	1	1	1	1	1	1	1	1	0	1	-16,349542	275,921712	312,295107	0
15.01.2021	13:55:01	0	78,817863	4,435726	1,54125	314,8164	1,417	84,817	0	1015,3	8,9	10,3	10,1	1	1	1	1	1	1	1	1	1	0	1	-16,772375	276,023628	312,358104	0
15.01.2021	13:55:02	0	78,817807	3,639571	1,551	334,2528	1,421	84,812	0	1015,22	8,9	10,3	10,1	1	1	1	1	1	1	1	1	1	0	1	-21,353066	276,09959	308,139868	0
15.01.2021	13:55:03	0	78,700636	3,639565	1,53675	323,6868	1,418	84,803	0	1015,46	8,9	10,3	10	1	1	1	1	1	1	1	1	1	0	1	-18,111346	275,977536	310,799344	0
15.01.2021	13:55:04	0	78,817694	4,77694	1,63425	324,0828	1,423	84,814	0	1015,32	8,9	10,3	10,1	1	1	1	1	1	1	1	1	1	0	1	-17,970402	276,116142	311,601553	0
15.01.2021	13:55:05	0	78,934752	2,502208	1,68975	321,1668	1,416	84,809	0	1015,22	8,9	10,3	10,1	1	1	1	1	1	1	1	1	1	0	1	-18,393235	276,023628	310,737244	0
15.01.2021	13:55:06	0	78,349127	3,639576	1,746	325,9152	1,424	84,812	0	1015,32	8,9	10,3	10,1	1	1	1	1	1	1	1	1	1	0	1	-17,688513	276,112831	311,867631	0
15.01.2021	13:55:07	0	78,700412	4,208261	1,76625	330,7068	1,418	84,79	0	1015,16	8,9	10,3	10,1	1	1	1	1	1	1	1	1	1	0	1	-17,124736	275,990694	311,848687	0
15.01.2021	13:55:08	0	78,466128	3,184631	1,6905	339,1164	1,418	84,817	0	1015,2	8,9	10,3	10,1	1	1	1	1	1	1	1	1	1	0	1	-16,138125	276,114487	313,425924	0
15.01.2021	13:55:09	0	78,700299	4,094527	1,638	334,9656	1,427	84,804	0	1015,34	8,9	10,3	10,1	1	1	1	1	1	1	1	1	1	0	1	-18,88654	276,040117	310,322588	0
15.01.2021	13:55:10	0	78,466016	2,388475	1,6305	328,2228	1,431	84,821	0	1015,1	8,9	10,3	10,1	1	1	1	1	1	1	1	1	1	0	1	-22,057787	276,121111	307,53789	0
15.01.2021	13:55:11	0	78,46596	2,502213	1,677	331,4448	1,424	84,821	0	1015,3	8,9	10,3	10,1	1	1	1	1	1	1	1	1	1	0	1	-13,248767	276,048366	315,999716	0
15.01.2021	13:55:12	0	78,348791	4,208269	1,70475	337,968	1,426	84,822	0	1015,1	8,9	10,3	10,1	1	1	1	1	1	1	1	1	1	0	1	-13,460183	275,908601	315,122002	0
15.01.2021	13:55:13	0	78,231622	2,388478	1,73025	325,0944	1,427	84,82	0	1015,28	8,9	10,3	10,1	1	1	1	1	1	1	1	1	1	0	1	-14,728682	275,957815	314,088005	0
15.01.2021	13:55:14	0	78,700018	3,86706	1,7295	330,7104	1,427	84,823	0	1015,22	8,9	10,3	10,1	1	1	1	1	1	1	1	1	1	0	1	-17,89993	275,931552	310,791601	0
15.01.2021	13:55:15	0	78,582849	3,412113	1,6605	326,4624	1,427	84,81	0	1015,32	8,8	10,3	10,1	1	1	1	1	1	1	1	1	1	0	1	-16,842847	276,094627	312,626396	0
15.01.2021	13:55:16	0	78,817018	4,435749	1,62975	326,0124	1,433	84,819	0	1015,18	8,9	10,3	10,1	1	1	1	1	1	1	1	1	1	0	1	-21,000705	276,02198	308,121913	0
15.01.2021	13:55:17	0	78,348511	4,322013	1,69425	330,1056	1,431	84,812	0	1015,36	8,9	10,3	10,1	1	1	1	1	1	1	1	1	1	0	1	-15,715292	275,928272	312,960607	0
15.01.2021	13:55:18	0	78,58268	2,843431	1,74075	335,0412	1,43	84,82	0	1015,22	8,9	10,3	10,1	1	1	1	1	1	1	1	1	1	0	1	-13,742072	276,005508	315,301986	0
15.01.2021	13:55:19	0	78,582624	4,435753	1,836	321,8184	1,426	84,804	0	1015,14	8,9	10,3	10,1	1	1	1	1	1	1	1	1	1	0	1	-17,829457	276,079745	311,568757	0
15.01.2021	13:55:20	0	78,933905	4,208272	1,9305	323,3304	1,426	84,793	0	1015,34	8,9	10,3	10	1	1	1	1	1	1	1	1	1	0	1	-16,913319	276,064875	312,413933	0
15.01.2021	13:55:21	0	78,582511	2,957171	1,87425	353,9268	1,435	84,8	0	1015,28	8,9	10,3	10,1	1	1	1	1	1	1	1	1	1	0	1	-17,970402	275,956173	310,838458	0
15.01.2021	13:55:22	0	78,465343	2,502222	1,77975	337,176	1,433	84,806	0	1015,3	8,9	10,3	10,1	1	1	1	1	1	1	1	1	1	0	1	-20,436927	276,089665	309,008632	0
15.01.2021	13:55:23	0	78,348174	2,502223	1,689	334,386	1,43	84,808	0	1015,28	8,9	10,3	10,1	1	1	1	1	1	1	1	1	1	0	1	-14,869626	275,96603	313,986215	0
15.01.2021	13:55:24	0	78,46523	4,549489	1,64175	331,1172	1,424	84,82	0	1015,26	8,9	10,3	10	1	1	1	1	1	1	1	1	1	0	1	-15,362932	276,107864	314,169502	0
15.01.2021	13:55:25	0	78,582286	4,322025	1,611	328,9464	1,43	84,8	0	1015,28	8,9	10,3	10,1	1	1	1	1	1	1	1	1	1	0	1	-18,393235	276,040117	310,815893	0
15.01.2021	13:55:26	0	78,58223	4,094551	1,58175	333,2304	1,433	84,789	0	1015,22	8,9	10,3	10,1	1	1	1	1	1	1	1	1	1	0	1	-20,084567	276,107864	309,447867	0
15.01.2021	13:55:27	0	78,582173	2,957177	1,6545	333,558	1,428	84,796	0	1015,08	8,9	10,3	10,1	1	1	1	1	1	1	1	1	1	0	1	-17,89993	276,038467	311,301329	0
15.01.2021	13:55:28	0	78,816341	4,549505	1,6695	333,828	1,428	84,784	0	1015,3	8,9	10,3	10,1	1	1	1	1	1	1	1	1	1	0	1	-18,604651	276,066527	310,730483	0
15.01.2021	13:55:29	0	78,699173	4,208293	1,62525	332,784	1,437	84,789	0	1015,44	8,9	10,3	10,1	1	1	1	1	1	1	1	1	1	0	1	-15,221987	276,097935	314,263048	0
15.01.2021	13:55:30	0	78,699116	3,980819	1,6425	345,3876	1,432	84,781	0	1015,36	8,9	10,3	10,1	1	1	1	1	1	1	1	1	1	0	1	-16,420014	276,053317	312,852091	0
15.01.2021	13:55:31	0	78,581948	3,412132	1,70925	340,9236	1,424	84,753	0	1015,18	8,9	10,3	10,1	1	1	1	1	1	1	1	1	1	0	1	-20,577872	276,061572	308,73362	0
15.01.2021	13:55:32	0	78,46478	3,639609	1,6905	336,042	1,429	84,756	0	1015,3	8,9	10,3	10,1	1	1	1	1	1	1	1	1	1	0	1	-21,282593	276,10952	308,257743	0
15.01.2021	13:55:33	0	78,698947	3,412134	1,67325	336,1176	1,435	84,735	0	1015,26	8,9	10,3	10,1	1	1	1	1	1	1	1	1	1	0	1	-20,225511	276,096281	309,251628	0
15.01.2021	13:55:34	0	78,69889	2,957184	1,70475	346,7556	1,43	84,732	0	1015,3	8,9	10,3	10,1	1	1	1	1	1	1	1	1	1	0	1	-16,349542	275,956173	312,459317	0
15.01.2021	13:55:35	0	78,464611	3,184661	1,73925	345,7368	1,432	84,709	0	1015,18	8,9	10,3	10,1	1	1	1	1	1	1	1	1	1	0	1	-15,010571	276,078092	314,379756	0
15.01.2021	13:55:36	0	78,464554	3,525876	1,70625	336,0816	1,433	84,718	0	1015,3	8,9	10,3	10,1	1	1	1	1	1	1	1	1	1	0	1	-19,238901	275,969316	309,632608	0
15.01.2021	13:55:37	0	78,347387	4,322043	1,6725	344,6532	1,428	84,691	0	1015,12	8,9	10,3	10,1	1	1	1	1	1	1	1	1	1	0	1	-17,618041	276,078092	311,772286	0
15.01.2021	13:55:38	0	78,347331	4,890735	1,65675	339,1056	1,427	84,683	0	1015,3	8,9	10,3	10,1	1	1	1	1	1	1	1	1	1	0	1	-20,85976	276,05827	308,435974	0
15.01.2021	13:55:39	0	78,347274	3,070927	1,62675	351,1224	1,429	84,679	0	1015,22	8,9	10,3	10,1	1	1	1	1	1	1	1	1	1	0	1	-21,212121	275,916794	307,409098	0
15.01.2021	13:55:40	0	78,464329	2,729714	1,512	337,536	1,43	84,658	0	1015,34	8,9	10,3	10,1	1	1	1	1	1	1	1	1	1	0	1	-19,097956	275,987404	309,859778	0
15.01.2021	13:55:41	0	78,464272	4,663254	1,49925	329,6916	1,432	84,637	0	1015,12	8,9	10,3	10	1	1	1	1	1	1	1	1	1	0	1	-15,997181	276,086358	313,432593	0
15.01.2021	13:55:42	0	78,698438	4,094574	1,479	334,1124	1,427	84,645	0	1015,28	8,9	10,3	10,1	1	1	1	1	1	1	1	1	1	0	1	-13,953488	275,992339	315,027779	0
15.01.2021	13:55:43	0	78,229938	4,549519	1,47975	338,0364	1,429	84,649	0	1015,4	8,9	10,3	10	1	1	1	1	1	1	1	1	1	0	1	-17,195208	276,092973	312,26614	0
15.01.2021	13:55:44	0	78,581214	4,777007	1,4955	331,0164	1,429	84,643	0	1015,2	8,9	10,3	10,1	1	1	1	1	1	1	1	1	1	0	1	-13,812544	276,013742	315,270784	0
15.01.2021	13:55:45	0	78,112715	2,388504	1,48575	339,4296	1,431	84,639	0	1015,24	8,9	10,3	10,1	1	1	1	1	1	1	1	1	1	0	1	-19,238901	276,07644	310,143539	0
15.01.2021	13:55:46	0	78,46399	2,615982	1,4265	334,9656	1,424	84,642	0	1015,22	8,9	10,3	10,1	1	1	1	1	1	1	1	1	1	0	1	-18,816068	275,951246	309,969311	0
15.01.2021	13:55:47	0	78,346823	2,729721	1,4175	325,9764	1,428	84,622	0	1015,26	8,9	10,3	10,1	1	1	1	1	1	1	1	1	1	0	1	-16,772375	276,092973	312,688973	0
15.01.2021	13:55:48	0	78,698098	2,729722	1,39725	335,3544	1,416	84,613	0	1015,22	8,9	10,3	10,1	1	1	1	1	1	1	1	1	1	0	1	-19,379845	275,946321	309,382061	0
15.01.2021	13:55:49	0	78,580931	3,525885	1,458	333,3744	1,421	84,623	0	1015,28	8,9	10,3	10	1	1	1	1	1	1	1	1	1	0	1	-17,195208	275,923352	311,457253	0
15.01.2021	13:55:50	0	78,229544	4,777007	1,437	333,1692	1,422	84,624	0	1015,26	8,9	10,3	10	1	1	1	1	1	1	1	1	1	0	1	-17,89993	275,959458	310,924587	0
15.01.2021	13:55:51	0	78,346598	4,208326	1,4025	337,9752	1,425	84,614	0	1015,26	8,9	10,3	10,1	1	1	1	1	1	1	1	1	1	0	1	-15,856237	276,07644	313,526203	0
15.01.2021	13:55:52	0	78,463651	4,663281	1,332	343,5192	1,429	84,626	0	1015,3	8,9	10,3	10,1	1	1	1	1	1	1	1	1	1	0	1	-16,842847	275,972604	312,044331	0
15.01.2021	13:55:53	0	78,229375	3,184681	1,35675	332,4492	1,426	84,63	0	1015,18	8,9	10,3	10,1	1	1	1	1	1	1	1	1	1	0	1	-22,339676	276,07644	307,042764	0
15.01.2021	13:55:54	0	78,580648	2,615989	1,35675	339,4296	1,426	84,613	0	1015,1	8,9	10,3	10,1	1	1	1	1	1	1	1	1	1	0	1	-16,490486	275,962743	312,349691	0
15.01.2021	13:55:55	0	78,229262	4,208331	1,44375	330,0516	1,42	84,625	0	1015,18	8,9	10,3	10,1	1	1	1	1	1	1	1	1	1	0	1	-19,661734	276,069831	309,689166	0
15.01.2021	13:55:56	0	78,580534	4,322072	1,5825	324,7272	1,423	84,619	0	1015,2	8,9	10,3	10,1	1	1	1	1	1	1	1	1	1	0	1	-22,692037	275,972604	306,195142	0
15.01.2021	13:55:57	0	78,229149	3,639641	1,65375	326,754	1,423	84,618	0	1015,4	8,9	10,3	10,1	1	1	1	1	1	1	1	1	1	0	1	-23,326286	276,061572	305,985206	0
15.01.2021	13:55:58	0	78,346202	2,957209	1,7205	328,1328	1,426	84,626	0	1015,24	8,9	10,3	10,1	1	1	1	1	1	1	1	1	1	0	1	-16,560958	276,012095	312,514514	0
15.01.2021	13:55:59	0	78,346145	3,753382	1,73925	335,6856	1,424	84,623	0	1015,22	8,9	10,3	10,1	1	1	1	1	1	1	1	1	1	0	1	-11,627907	275,906962	316,946474	0
15.01.2021	13:56:00	0	78,463141	4,435818	1,71375	343,9116	1,421	84,629	0	1015,26	8,9	10,3	10,1	1	1	1	1	1	1	1	1	1	0	1	-15,997181	275,897135	312,53039	0
15.01.2021	13:56:01	0	78,463141	4,435818	1,71375	343,9116	1,421	84,629	0	1015,26	8,9	10,3	10,1	1	1	1	1	1	1	1	1	1	0	1	-20,014094	276,002215	309,014261	0
15.01.2021	13:56:02	0	78,463085	3,412169	1,63575	349,488	1,421	84,648	0	1015,56	8,9	10,3	10,1	1	1	1	1	1	1	1	1	1	0	1	-17,406624	275,913517	311,198979	0
15.01.2021	13:56:03	0	78,22881	2,729736	1,554	345,078	1,421	84,614	0	1015,14	8,9	10,3	10,1	1	1	1	1	1	1	1	1	1	0	1	-18,322763	275,943038	310,423499	0
15.01.2021	13:56:04	0	78,58008	4,77704	1,434	357,9084	1,425	84,612	0	1015,26	8,9	10,3	10,1	1	1	1	1	1	1	1	1	1	0	1	-18,181818	275,893861	310,330156	0
15.01.2021	13:56:05	0	78,462915	2,843477	1,41	351,2844	1,427	84,611	0	1015,24	8,9	10,3	10,1	1	1	1	1	1	1	1	1	1	0	1	-18,816068	276,018685	310,290832	0
15.01.2021	13:56:06	0	78,697075	4,322087	1,40475	349,5096	1,422	84,609	0	1015,38	8,9	10,3	10,1	1	1	1	1	1	1	1	1	1	0	1	-18,111346	276,074787	311,263207	0
15.01.2021	13:56:07	0	78,57991	4,890784	1,35675	342,6696	1,424	84,606	0	1015,2	8,9	10,3	10,1	1	1	1	1	1	1	1	1	1	0	1	-17,406624	275,897135	311,120947	0
15.01.2021	13:56:08	0	78,579853	5,004525	1,2855	338,3676	1,42	84,592	0	1015,22	8,9	10,3	10,1	1	1	1	1	1	1	1	1	1	0	1	-20,084567	275,952888	308,708638	0
15.01.2021	13:56:09	0	78,579796	2,843481	1,299	325,494	1,427	84,605	0	1015,36	8,8	10,3	10,1	1	1	1	1	1	1	1	1	1	0	1	-18,322763	275,892224	310,181415	0
15.01.2021	13:56:10	0	78,345522	3,639657	1,3455	325,494	1,42	84,588	0	1014,98	8,9	10,3	10,1	1	1	1	1	1	1	1	1	1	0	1	-16,842847	275,959458	311,98167	0
15.01.2021	13:56:11	0	78,579682	4,322094	1,39575	330,75	1,425	84,599	0	1015,22	8,9	10,3	10,1	1	1	1	1	1	1	1	1	1	0	1	-15,362932	276,078092	314,027395	0
15.01.2021	13:56:12	0	78,462517	3,980878	1,41825	342,792	1,419	84,594	0	1015,24	8,9	10,3	10,1	1	1	1	1	1	1	1	1	1	0	1	-19,591261	276,07644	309,791178	0
15.01.2021	13:56:13	0	78,813785	4,322097	1,3815	343,1664	1,424	84,589	0	1015,22	8,9	10,3	10,1	1	1	1	1	1	1	1	1	1	0	1	-21,000705	276,079745	308,39751	0
15.01.2021	13:56:14	0	78,462404	3,298437	1,42875	336,8988	1,417	84,588	0	1015,24	8,9	10,3	10	1	1	1	1	1	1	1	1	1	0	1	-22,762509	276,007154	306,289401	0
15.01.2021	13:56:15	0	78,111023	2,843481	1,53075	333,5076	1,423	84,583	0	1015,3	8,9	10,3	10	1	1	1	1	1	1	1	1	1	0	1	-18,111346	275,887313	310,369444	0
15.01.2021	13:56:16	0	78,345182	4,890799	1,536	342,81	1,417	84,551	0	1015,12	8,9	10,3	10,1	1	1	1	1	1	1	1	1	1	0	1	-21,705426	276,051667	307,558803	0
15.01.2021	13:56:17	0	78,696449	3,980885	1,5915	343,9836	1,419	84,567	0	1015,26	8,9	10,3	10,1	1	1	1	1	1	1	1	1	1	0	1	-18,745595	276,056619	310,542262	0
15.01.2021	13:56:18	0	78,462176	2,616011	1,581	345,4236	1,417	84,562	0	1015,26	8,9	10,3	10,1	1	1	1	1	1	1	1	1	1	0	1	-16,701903	275,902048	311,84907	0
15.01.2021	13:56:19	0	78,579227	2,843491	1,551	328,6224	1,411	84,564	0	1015,34	8,9	10,3	10,1	1	1	1	1	1	1	1	1	1	0	1	-17,688513	275,921712	310,956136	0
15.01.2021	13:56:20	0	78,462063	2,502273	1,60575	330,7644	1,415	84,56	0	1015,18	8,9	10,3	10,1	1	1	1	1	1	1	1	1	1	0	1	-18,816068	276,089665	310,629492	0
15.01.2021	13:56:21	0	78,462006	4,43584	1,692	334,3032	1,418	84,553	0	1015,16	8,9	10,3	10	1	1	1	1	1	1	1	1	1	0	1	-19,661734	275,97096	309,217609	0
15.01.2021	13:56:22	0	78,227734	3,184707	1,749	333,7992	1,416	84,563	0	1015,28	8,9	10,3	10	1	1	1	1	1	1	1	1	1	0	1	-19,520789	276,091319	309,932664	0
15.01.2021	13:56:23	0	78,344784	2,388531	1,854	333,846	1,415	84,559	0	1015,2	8,9	10,3	10	1	1	1	1	1	1	1	1	1	0	1	-13,178295	275,926632	315,489791	0
15.01.2021	13:56:24	0	78,578942	4,663333	1,8825	336,1068	1,419	84,559	0	1015,18	8,9	10,3	10,1	1	1	1	1	1	1	1	1	1	0	1	-14,376321	276,064875	314,950931	0
15.01.2021	13:56:25	0	78,578885	3,753416	1,8345	334,2348	1,418	84,557	0	1015,26	8,9	10,3	10,1	1	1	1	1	1	1	1	1	1	0	1	-16,842847	275,951246	311,942532	0
15.01.2021	13:56:26	0	78,461721	3,63967	1,8285	332,3952	1,412	84,567	0	1015,26	8,9	10,3	10	1	1	1	1	1	1	1	1	1	0	1	-14,094433	276,07644	315,288007	0
15.01.2021	13:56:27	0	78,812985	4,322118	1,85475	333,1296	1,415	84,565	0	1015,26	8,9	10,3	10,1	1	1	1	1	1	1	1	1	1	0	1	-17,336152	275,972604	311,551026	0
15.01.2021	13:56:28	0	78,227393	3,4122	1,8405	335,6928	1,418	84,544	0	1015,08	8,9	10,3	10,1	1	1	1	1	1	1	1	1	1	0	1	-16,842847	275,882404	311,614563	0
15.01.2021	13:56:29	0	78,344443	3,980893	1,785	332,0784	1,414	84,55	0	1015,22	8,9	10,3	10	1	1	1	1	1	1	1	1	1	0	1	-19,309373	275,967673	309,554302	0
15.01.2021	13:56:30	0	78,22728	3,525942	1,713	332,748	1,414	84,556	0	1015,18	8,9	10,3	10,1	1	1	1	1	1	1	1	1	1	0	1	-14,446794	275,88895	314,041792	0
15.01.2021	13:56:31	0	78,695649	3,184723	1,7145	330,7464	1,408	84,544	0	1015,28	8,9	10,3	10,1	1	1	1	1	1	1	1	1	1	0	1	-18,111346	276,010448	310,956271	0
15.01.2021	13:56:32	0	78,578485	4,777077	1,75425	332,4312	1,414	84,541	0	1015,22	8,8	10,3	10	1	1	1	1	1	1	1	1	1	0	1	-18,25229	276,083051	311,161703	0
15.01.2021	13:56:33	0	78,227109	2,957245	1,7565	332,3988	1,41	84,534	0	1015,22	8,9	10,3	10,1	1	1	1	1	1	1	1	1	1	0	1	-15,292459	276,030222	313,869469	0
15.01.2021	13:56:34	0	78,344158	2,957246	1,7985	336,4344	1,415	84,532	0	1015,24	8,9	10,3	10,1	1	1	1	1	1	1	1	1	1	0	1	-17,618041	275,913517	310,987562	0
15.01.2021	13:56:35	0	78,69542	4,435871	1,72875	333,162	1,415	84,541	0	1015,28	8,9	10,3	10,1	1	1	1	1	1	1	1	1	1	0	1	-19,309373	275,993985	309,679741	0
15.01.2021	13:56:36	0	78,695363	5,004564	1,671	337,1328	1,414	84,531	0	1015,32	8,9	10,3	10	1	1	1	1	1	1	1	1	1	0	1	-16,067653	276,043416	313,157214	0
15.01.2021	13:56:37	0	78,226881	4,208393	1,6185	334,2384	1,418	84,528	0	1015,3	8,9	10,3	10,1	1	1	1	1	1	1	1	1	1	0	1	-17,89993	276,010448	311,167688	0
15.01.2021	13:56:38	0	78,226824	2,616029	1,6845	334,98	1,416	84,535	0	1015,38	8,9	10,3	10,1	1	1	1	1	1	1	1	1	1	0	1	-14,728682	275,885677	313,744314	0
15.01.2021	13:56:39	0	78,226767	3,639687	1,6965	337,4568	1,417	84,532	0	1015,28	8,9	10,3	10	1	1	1	1	1	1	1	1	1	0	1	-20,155039	275,931552	308,536491	0
15.01.2021	13:56:40	0	78,22671	3,298474	1,67925	341,2404	1,413	84,521	0	1015,28	8,9	10,3	10,1	1	1	1	1	1	1	1	1	1	0	1	-13,530655	275,88404	314,934548	0
15.01.2021	13:56:41	0	78,460865	3,980918	1,67175	335,0016	1,412	84,529	0	1015,26	8,9	10,3	10,1	1	1	1	1	1	1	1	1	1	0	1	-18,745595	276,035169	310,439929	0
15.01.2021	13:56:42	0	78,109491	3,298476	1,6425	341,3232	1,412	84,531	0	1015,32	8,9	10,3	10,1	1	1	1	1	1	1	1	1	1	0	1	-17,195208	275,88404	311,269995	0
15.01.2021	13:56:43	0	78,577306	4,777096	1,59375	348,3036	1,408	84,508	0	1015,16	8,9	10,2	10	1	1	1	1	1	1	1	1	1	0	1	-16,631431	275,895498	311,888342	0
15.01.2021	13:56:44	0	78,343588	3,184738	1,56075	345,402	1,409	84,522	0	1015,32	8,9	10,3	10,1	1	1	1	1	1	1	1	1	1	0	1	-17,547569	276,005508	311,496489	0
15.01.2021	13:56:45	0	78,10932	2,388554	1,50075	345,7224	1,411	84,516	0	1015,36	8,9	10,3	10,1	1	1	1	1	1	1	1	1	1	0	1	-15,010571	275,877496	313,423467	0
15.01.2021	13:56:46	0	78,811895	3,525962	1,50975	345,024	1,413	84,516	0	1015,26	8,9	10,3	10,1	1	1	1	1	1	1	1	1	1	0	1	-16,983791	276,018685	312,123108	0
15.01.2021	13:56:47	0	78,577627	4,32214	1,4745	344,6388	1,408	84,515	0	1015,32	8,9	10,3	10	1	1	1	1	1	1	1	1	1	0	1	-15,292459	275,902048	313,258513	0
15.01.2021	13:56:48	0	78,57757	3,867179	1,41825	344,6748	1,408	84,508	0	1015,32	8,9	10,3	10	1	1	1	1	1	1	1	1	1	0	1	-17,406624	275,895498	311,113148	0
15.01.2021	13:56:49	0	78,109092	3,525966	1,3755	340,848	1,408	84,509	0	1015,16	8,9	10,3	10,1	1	1	1	1	1	1	1	1	1	0	1	-16,842847	276,043416	312,38202	0
15.01.2021	13:56:50	0	78,343245	4,322153	1,37925	332,8884	1,41	84,512	0	1015,18	8,9	10,3	10,1	1	1	1	1	1	1	1	1	1	0	1	-18,534179	275,910239	310,055811	0
15.01.2021	13:56:51	0	78,226083	3,639709	1,43175	335,7468	1,411	84,499	0	1015,22	8,9	10,3	10,1	1	1	1	1	1	1	1	1	1	0	1	-15,081043	276,083051	314,33295	0
15.01.2021	13:56:52	0	78,343131	3,412229	1,49025	345,9708	1,404	84,499	0	1015,28	8,8	10,3	10,1	1	1	1	1	1	1	1	1	1	0	1	-13,319239	275,969316	315,552269	0
15.01.2021	13:56:53	0	78,811493	3,867194	1,6155	340,2648	1,407	84,513	0	1015,26	8,9	10,3	10,1	1	1	1	1	1	1	1	1	1	0	1	-18,322763	276,018685	310,784137	0
15.01.2021	13:56:54	0	78,460121	4,663373	1,7175	352,7712	1,405	84,49	0	1015,26	8,9	10,3	10	1	1	1	1	1	1	1	1	1	0	1	-18,322763	276,012095	310,75271	0
15.01.2021	13:56:55	0	78,577168	4,208412	1,84425	343,0656	1,406	84,494	0	1015,32	8,9	10,3	10	1	1	1	1	1	1	1	1	1	0	1	-19,732206	275,882404	308,725205	0
15.01.2021	13:56:56	0	78,225798	2,729787	2,01675	351,0756	1,407	84,476	0	1015,2	8,9	10,3	10,1	1	1	1	1	1	1	1	1	1	0	1	-19,802678	276,025277	309,335662	0
15.01.2021	13:56:57	0	78,459949	2,843529	1,98525	352,7748	1,404	84,47	0	1015,16	8,9	10,3	10,1	1	1	1	1	1	1	1	1	1	0	1	-18,111346	276,035169	311,074178	0
15.01.2021	13:56:58	0	77,991475	2,729789	1,84425	342,702	1,409	84,476	0	1015,36	8,9	10,3	10,1	1	1	1	1	1	1	1	1	1	0	1	-18,181818	276,03352	310,99584	0
15.01.2021	13:56:59	0	78,34273	3,639712	1,66125	351,018	1,41	84,479	0	1015,36	8,9	10,3	10	1	1	1	1	1	1	1	1	1	0	1	-13,812544	275,993985	315,176569	0
15.01.2021	13:57:00	0	78,693928	4,663394	1,35975	346,7736	1,405	84,47	0	1015,34	8,9	10,3	10,1	1	1	1	1	1	1	1	1	1	0	1	-15,856237	276,064875	313,471016	0
15.01.2021	13:57:01	0	78,693928	4,663394	1,35975	346,7736	1,405	84,47	0	1015,34	8,9	10,3	10,1	1	1	1	1	1	1	1	1	1	0	1	-17,618041	276,003861	311,418165	0
15.01.2021	13:57:02	0	78,459662	4,322163	1,2435	333,1944	1,406	84,461	0	1015,3	8,9	10,3	10	1	1	1	1	1	1	1	1	1	0	1	-16,420014	276,053317	312,852091	0
15.01.2021	13:57:03	0	78,459605	2,388569	1,16175	316,8288	1,405	84,437	0	1015,18	8,9	10,3	10,1	1	1	1	1	1	1	1	1	1	0	1	-16,631431	275,939755	312,099189	0
15.01.2021	13:57:04	0	78,108236	3,412236	1,158	331,38	1,406	84,444	0	1015,32	8,9	10,3	10	1	1	1	1	1	1	1	1	1	0	1	-10,641297	275,882404	317,816114	0
15.01.2021	13:57:05	0	78,576594	3,07102	1,1985	327,1356	1,406	84,443	0	1015,18	8,9	10,3	10,1	1	1	1	1	1	1	1	1	1	0	1	-17,89993	276,035169	311,285595	0
15.01.2021	13:57:06	0	78,459433	4,208436	1,23675	321,894	1,399	84,436	0	1015,2	8,9	10,3	10,1	1	1	1	1	1	1	1	1	1	0	1	-20,648344	276,018685	308,458556	0
15.01.2021	13:57:07	0	78,576479	5,004629	1,32525	327,1176	1,397	84,429	0	1015,26	8,9	10,3	10,1	1	1	1	1	1	1	1	1	1	0	1	-18,040874	276,066527	311,29426	0
15.01.2021	13:57:08	0	78,225111	4,549655	1,38675	327,132	1,395	84,431	0	1015,26	8,9	10,3	10	1	1	1	1	1	1	1	1	1	0	1	-18,25229	275,998922	310,760366	0
15.01.2021	13:57:09	0	78,225053	2,616058	1,3935	330,7428	1,402	84,429	0	1015,3	8,9	10,3	10,1	1	1	1	1	1	1	1	1	1	0	1	-14,446794	276,064875	314,880459	0
15.01.2021	13:57:10	0	78,459203	3,980959	1,5075	338,4324	1,396	84,428	0	1015,26	8,9	10,3	10,1	1	1	1	1	1	1	1	1	1	0	1	-14,446794	275,97096	314,432549	0
15.01.2021	13:57:11	0	78,224939	3,412245	1,5945	336,7476	1,402	84,431	0	1015,16	8,9	10,3	10	1	1	1	1	1	1	1	1	1	0	1	-19,309373	275,874225	309,109087	0
15.01.2021	13:57:12	0	78,107778	3,071028	1,6305	339,1452	1,397	84,409	0	1015,24	8,9	10,3	10,1	1	1	1	1	1	1	1	1	1	0	1	-21,987315	276,002215	307,04104	0
15.01.2021	13:57:13	0	77,990618	4,777156	1,6095	348,2208	1,402	84,417	0	1015,3	8,9	10,3	10,1	1	1	1	1	1	1	1	1	1	0	1	-14,517266	276,073135	314,849402	0
15.01.2021	13:57:14	0	78,34187	3,639739	1,506	344,0232	1,4	84,426	0	1015,36	8,9	10,3	10,1	1	1	1	1	1	1	1	1	1	0	1	-17,688513	275,997276	311,316295	0
15.01.2021	13:57:15	0	77,873401	3,753475	1,38375	349,8156	1,399	84,431	0	1015,32	8,9	10,3	10	1	1	1	1	1	1	1	1	1	0	1	-17,477097	275,879132	310,964731	0
15.01.2021	13:57:16	0	78,57596	4,435935	1,2735	347,2632	1,389	84,419	0	1015,2	8,9	10,3	10,1	1	1	1	1	1	1	1	1	1	0	1	-14,587738	275,887313	313,893052	0
15.01.2021	13:57:17	0	78,341697	2,388581	1,18125	340,2288	1,399	84,436	0	1015,32	8,9	10,3	10,1	1	1	1	1	1	1	1	1	1	0	1	-14,65821	276,054968	314,621771	0
15.01.2021	13:57:18	0	78,107435	3,639744	1,09425	340,218	1,401	84,42	0	1015,3	8,9	10,3	10,1	1	1	1	1	1	1	1	1	1	0	1	-15,715292	276,056619	313,572565	0
15.01.2021	13:57:19	0	78,107377	2,957293	1,04025	338,274	1,391	84,402	0	1015,26	8,9	10,3	10,1	1	1	1	1	1	1	1	1	1	0	1	-19,591261	275,915155	309,022149	0
15.01.2021	13:57:20	0	78,458627	3,867231	1,01175	344,934	1,397	84,402	0	1015,34	8,9	10,3	10,1	1	1	1	1	1	1	1	1	1	0	1	-17,336152	275,880768	311,113467	0
15.01.2021	13:57:21	0	78,224365	5,004654	1,05975	337,1148	1,395	84,399	0	1015,18	8,9	10,3	10,1	1	1	1	1	1	1	1	1	1	0	1	-18,88654	276,020333	310,228219	0
15.01.2021	13:57:22	0	78,107205	3,867234	1,18875	328,824	1,391	84,383	0	1015,18	8,9	10,3	10,1	1	1	1	1	1	1	1	1	1	0	1	-12,614517	276,045066	316,618221	0
15.01.2021	13:57:23	0	77,990046	3,526008	1,26825	332,3628	1,392	84,397	0	1015,26	8,9	10,3	10,1	1	1	1	1	1	1	1	1	1	0	1	-16,349542	275,96603	312,506299	0
15.01.2021	13:57:24	0	77,989988	2,388587	1,31325	322,8444	1,394	84,392	0	1015,36	8,9	10,3	10,1	1	1	1	1	1	1	1	1	1	0	1	-14,65821	275,882404	313,7992	0
15.01.2021	13:57:25	0	78,341237	3,639753	1,35825	318,9816	1,393	84,39	0	1015,26	8,9	10,3	10,1	1	1	1	1	1	1	1	1	1	0	1	-11,346018	275,939755	317,384602	0
15.01.2021	13:57:26	0	77,872772	3,071043	1,38225	322,5672	1,391	84,376	0	1015,28	8,9	10,3	10,1	1	1	1	1	1	1	1	1	1	0	1	-17,618041	275,885677	310,854955	0
15.01.2021	13:57:27	0	78,22402	3,639749	1,5045	326,7108	1,392	84,377	0	1015,32	8,9	10,3	10	1	1	1	1	1	1	1	1	1	0	1	-15,010571	275,905324	313,556006	0
15.01.2021	13:57:28	0	77,989759	2,957303	1,69875	321,8148	1,388	84,365	0	1015,32	8,9	10,3	10,1	1	1	1	1	1	1	1	1	1	0	1	-13,530655	275,921712	315,113994	0
15.01.2021	13:57:29	0	77,8726	3,412274	1,89975	317,3868	1,389	84,35	0	1015,26	8,9	10,3	10,1	1	1	1	1	1	1	1	1	1	0	1	-19,238901	275,892224	309,265277	0
15.01.2021	13:57:30	0	78,223847	4,663442	2,00625	330,3288	1,389	84,345	0	1015,16	8,9	10,3	10,1	1	1	1	1	1	1	1	1	1	0	1	-18,181818	276,010448	310,885799	0
15.01.2021	13:57:31	0	77,755384	2,388593	2,02425	332,3952	1,39	84,325	0	1015,34	8,9	10,3	10,1	1	1	1	1	1	1	1	1	1	0	1	-20,225511	275,864414	308,146235	0
15.01.2021	13:57:32	0	78,223732	2,729822	1,98975	332,4024	1,381	84,316	0	1015,12	8,9	10,3	10,1	1	1	1	1	1	1	1	1	1	0	1	-18,604651	275,911878	309,993145	0
15.01.2021	13:57:33	0	78,223675	2,843565	2,02125	311,7564	1,38	84,298	0	1015,32	8,9	10,3	10,1	1	1	1	1	1	1	1	1	1	0	1	-16,701903	276,061572	312,609589	0
15.01.2021	13:57:34	0	78,223617	3,86725	1,9665	328,5216	1,386	84,279	0	1015,32	8,9	10,3	10,1	1	1	1	1	1	1	1	1	1	0	1	-16,138125	275,951246	312,647254	0
15.01.2021	13:57:35	0	77,872256	4,322214	1,8615	329,2812	1,385	84,281	0	1015,38	8,9	10,3	10	1	1	1	1	1	1	1	1	1	0	1	-17,124736	276,059921	312,178877	0
15.01.2021	13:57:36	0	78,223502	4,549709	1,8165	323,0568	1,382	84,241	0	1015,12	8,9	10,3	10,1	1	1	1	1	1	1	1	1	1	0	1	-16,983791	275,97918	311,934737	0
15.01.2021	13:57:37	0	77,872141	2,502341	1,73625	327,7476	1,384	84,235	0	1015,2	8,9	10,3	10,1	1	1	1	1	1	1	1	1	1	0	1	-20,85976	276,038467	308,341499	0
15.01.2021	13:57:38	0	78,106286	4,890931	1,647	317,7288	1,387	84,238	0	1015,28	8,9	10,3	10	1	1	1	1	1	1	1	1	1	0	1	-16,420014	276,036818	312,773377	0
15.01.2021	13:57:39	0	77,872027	2,616086	1,60875	315,504	1,377	84,212	0	1015,36	8,9	10,3	10,1	1	1	1	1	1	1	1	1	1	0	1	-17,547569	275,877496	310,886469	0
15.01.2021	13:57:40	0	77,98907	2,957315	1,5765	328,2192	1,376	84,19	0	1015,28	8,9	10,3	10,1	1	1	1	1	1	1	1	1	1	0	1	-16,560958	275,920073	312,07588	0
15.01.2021	13:57:41	0	77,989012	4,777203	1,5015	331,4628	1,379	84,176	0	1015,3	8,9	10,3	10,1	1	1	1	1	1	1	1	1	1	0	1	-17,829457	275,857876	310,511161	0
15.01.2021	13:57:42	0	77,988955	2,27486	1,54425	324,3312	1,379	84,162	0	1015,28	8,9	10,3	10,1	1	1	1	1	1	1	1	1	1	0	1	-14,940099	275,997276	314,064709	0
15.01.2021	13:57:43	0	78,340199	3,980998	1,63275	332,3952	1,372	84,137	0	1015,24	8,9	10,3	10	1	1	1	1	1	1	1	1	1	0	1	-20,014094	275,906962	308,560286	0
15.01.2021	13:57:44	0	78,22304	4,549713	1,74225	333,1476	1,37	84,15	0	1015,26	8,9	10,3	10	1	1	1	1	1	1	1	1	1	0	1	-15,856237	276,038467	313,345022	0
15.01.2021	13:57:45	0	77,754582	3,071064	1,66875	342,3816	1,376	84,117	0	1015,22	8,9	10,3	10,1	1	1	1	1	1	1	1	1	1	0	1	-18,604651	275,987404	310,353083	0
15.01.2021	13:57:46	0	77,520324	2,388606	1,593	344,3472	1,369	84,103	0	1015,16	8,8	10,3	10,1	1	1	1	1	1	1	1	1	1	0	1	-15,997181	276,061572	313,314311	0
15.01.2021	13:57:47	0	77,988667	3,526039	1,563	339,4404	1,372	84,084	0	1015,22	8,9	10,3	10,1	1	1	1	1	1	1	1	1	1	0	1	-15,010571	275,969316	313,860937	0
15.01.2021	13:57:48	0	78,222809	4,208499	1,5675	346,5576	1,37	84,077	0	1015,32	8,9	10,3	10,1	1	1	1	1	1	1	1	1	1	0	1	-17,89993	276,046716	311,34068	0
15.01.2021	13:57:49	0	77,871452	3,981014	1,6815	336,3912	1,365	84,053	0	1015,22	8,9	10,3	10,1	1	1	1	1	1	1	1	1	1	0	1	-18,675123	275,969316	310,196385	0
15.01.2021	13:57:50	0	77,637195	2,502353	1,725	341,4132	1,371	84,045	0	1015,34	8,9	10,3	10,1	1	1	1	1	1	1	1	1	1	0	1	-15,081043	275,861145	313,275138	0
15.01.2021	13:57:51	0	77,988437	4,663477	1,72725	343,602	1,366	84,024	0	1015,28	8,9	10,3	10,1	1	1	1	1	1	1	1	1	1	0	1	-16,067653	276,002215	312,960702	0
15.01.2021	13:57:52	0	78,222578	3,753532	1,66575	346,59	1,362	84,005	0	1015,36	8,9	10,3	10,1	1	1	1	1	1	1	1	1	1	0	1	-10,993658	276,041766	318,223339	0
15.01.2021	13:57:53	0	77,754122	2,957329	1,68525	360	1,363	84,013	0	1015,36	8,9	10,3	10,1	1	1	1	1	1	1	1	1	1	0	1	-15,221987	276,010448	313,84563	0
15.01.2021	13:57:54	0	77,988264	2,843587	1,782	343,5912	1,357	84,013	0	1015,24	8,9	10,3	10,1	1	1	1	1	1	1	1	1	1	0	1	-20,577872	275,989049	308,387706	0
15.01.2021	13:57:55	0	77,988206	3,526049	1,926	349,47	1,361	83,999	0	1015,18	8,9	10,3	10,1	1	1	1	1	1	1	1	1	1	0	1	-16,208598	276,03352	312,969061	0
15.01.2021	13:57:56	0	77,75395	4,435998	1,98225	337,212	1,36	84,015	0	1015,26	8,9	10,3	10,1	1	1	1	1	1	1	1	1	1	0	1	-19,379845	275,938114	309,342955	0
15.01.2021	13:57:57	0	78,10519	4,208513	2,03475	343,4544	1,36	84,009	0	1015,12	8,9	10,3	10,1	1	1	1	1	1	1	1	1	1	0	1	-18,322763	276,035169	310,862762	0
15.01.2021	13:57:58	0	78,222231	4,436001	2,076	343,9296	1,354	84,011	0	1015,3	8,9	10,3	10,1	1	1	1	1	1	1	1	1	1	0	1	-17,970402	275,929912	310,713313	0
15.01.2021	13:57:59	0	77,870876	3,184823	2,0625	341,6904	1,351	84,02	0	1015,1	8,9	10,3	10,1	1	1	1	1	1	1	1	1	1	0	1	-18,111346	276,026925	311,034856	0
15.01.2021	13:58:00	0	77,753662	2,72985	1,9065	340,8912	1,351	84,042	0	1015,38	8,8	10,3	10,1	1	1	1	1	1	1	1	1	1	0	1	-20,225511	275,908601	308,356674	0
15.01.2021	13:58:01	0	77,753662	2,72985	1,9065	340,8912	1,351	84,042	0	1015,38	8,8	10,3	10,1	1	1	1	1	1	1	1	1	1	0	1	-19,591261	275,861145	308,764919	0
15.01.2021	13:58:02	0	77,870703	3,981033	1,91025	339,372	1,355	84,045	0	1015,26	8,9	10,3	10,1	1	1	1	1	1	1	1	1	1	0	1	-14,940099	275,984114	314,001951	0
15.01.2021	13:58:03	0	78,221942	4,777241	1,87575	339,4692	1,356	84,045	0	1015,26	8,9	10,3	10,1	1	1	1	1	1	1	1	1	1	0	1	-17,89993	276,038467	311,301329	0
15.01.2021	13:58:04	0	78,104785	3,867292	1,88625	347,6772	1,358	84,062	0	1015,26	8,9	10,3	10,1	1	1	1	1	1	1	1	1	1	0	1	-17,547569	275,962743	311,292609	0
15.01.2021	13:58:05	0	77,402136	2,502366	1,90275	346,8528	1,353	84,072	0	1015,36	8,9	10,3	10,1	1	1	1	1	1	1	1	1	1	0	1	-15,926709	275,857876	312,41391	0
15.01.2021	13:58:06	0	77,753374	2,843599	1,9455	352,8468	1,351	84,076	0	1015,2	8,9	10,3	10,1	1	1	1	1	1	1	1	1	1	0	1	-19,802678	275,975892	309,100174	0
15.01.2021	13:58:07	0	77,870415	4,663504	1,91925	333,486	1,355	84,059	0	1015,08	8,9	10,3	10,1	1	1	1	1	1	1	1	1	1	0	1	-15,64482	276,043416	313,580047	0
15.01.2021	13:58:08	0	77,870357	4,777249	1,9305	346,8888	1,355	84,069	0	1015,2	8,9	10,3	10,1	1	1	1	1	1	1	1	1	1	0	1	-18,040874	275,910239	310,549116	0
15.01.2021	13:58:09	0	77,987397	2,729858	1,89525	323,7048	1,35	84,079	0	1015,04	8,9	10,3	10,1	1	1	1	1	1	1	1	1	1	0	1	-14,305849	275,861145	314,050331	0
15.01.2021	13:58:10	0	77,753143	4,094788	1,88175	334,2492	1,353	84,108	0	1015,26	8,9	10,3	10,1	1	1	1	1	1	1	1	1	1	0	1	-19,520789	275,934833	309,186374	0
15.01.2021	13:58:11	0	77,870184	4,208525	2,04975	328,698	1,355	84,094	0	1015,3	8,9	10,3	10	1	1	1	1	1	1	1	1	1	0	1	-19,097956	276,031871	310,071837	0
15.01.2021	13:58:12	0	77,753028	2,729861	2,19	350,9496	1,355	84,119	0	1015,3	8,9	10,3	10,1	1	1	1	1	1	1	1	1	1	0	1	-13,6716	275,870954	314,731286	0
15.01.2021	13:58:13	0	77,75297	3,867304	2,12625	336,7512	1,353	84,124	0	1015,22	8,9	10,3	10,1	1	1	1	1	1	1	1	1	1	0	1	-24,031008	275,898773	304,504363	0
15.01.2021	13:58:14	0	77,635815	4,208538	2,13675	335,3544	1,355	84,128	0	1015,3	8,9	10,3	10,1	1	1	1	1	1	1	1	1	1	0	1	-18,463707	275,857876	309,876912	0
15.01.2021	13:58:15	0	77,869952	3,184841	2,04675	348,6348	1,346	84,133	0	1015,16	8,9	10,3	10,1	1	1	1	1	1	1	1	1	1	0	1	-17,829457	276,013742	311,253871	0
15.01.2021	13:58:16	0	77,869894	3,753564	2,088	349,1388	1,348	84,124	0	1015,28	8,9	10,3	10,1	1	1	1	1	1	1	1	1	1	0	1	-15,926709	275,997276	313,078099	0
15.01.2021	13:58:17	0	77,635642	4,094798	2,01975	341,208	1,351	84,141	0	1015,2	8,9	10,3	10,1	1	1	1	1	1	1	1	1	1	0	1	-17,89993	275,959458	310,924587	0
15.01.2021	13:58:18	0	77,752681	4,436033	1,96275	332,8416	1,357	84,158	0	1015,3	8,9	10,3	10,1	1	1	1	1	1	1	1	1	1	0	1	-17,688513	276,023628	311,441966	0
15.01.2021	13:58:19	0	77,635526	3,29859	1,95525	330,2568	1,348	84,155	0	1015,22	8,9	10,3	10,1	1	1	1	1	1	1	1	1	1	0	1	-19,520789	275,934833	309,186374	0
15.01.2021	13:58:20	0	77,518371	2,388635	1,929	338,5224	1,35	84,158	0	1015,22	8,9	10,3	10,1	1	1	1	1	1	1	1	1	1	0	1	-14,023961	276,036818	315,169431	0
15.01.2021	13:58:21	0	77,869605	4,322293	1,90875	327,4164	1,346	84,165	0	1015,16	8,9	10,3	10,1	1	1	1	1	1	1	1	1	1	0	1	-16,490486	275,977536	312,420204	0
15.01.2021	13:58:22	0	77,401159	3,753572	1,9185	345,474	1,351	84,171	0	1015,22	8,9	10,3	10,1	1	1	1	1	1	1	1	1	1	0	1	-16,983791	276,010448	312,083826	0
15.01.2021	13:58:23	0	77,635295	3,867318	1,86375	339,156	1,351	84,195	0	1015,26	8,9	10,3	10,1	1	1	1	1	1	1	1	1	1	0	1	-19,591261	275,864414	308,780484	0
15.01.2021	13:58:24	0	77,752334	4,436043	1,728	319,1976	1,351	84,205	0	1015,32	8,9	10,3	10,1	1	1	1	1	1	1	1	1	1	0	1	-15,856237	276,020333	313,258522	0
15.01.2021	13:58:25	0	77,63518	2,957363	1,5765	334,5984	1,351	84,207	0	1015,3	8,9	10,3	10,1	1	1	1	1	1	1	1	1	1	0	1	-21,423538	276,038467	307,777721	0
15.01.2021	13:58:26	0	77,752219	2,843619	1,5225	329,3568	1,35	84,21	0	1015,2	8,9	10,3	10,1	1	1	1	1	1	1	1	1	1	0	1	-23,185342	275,911878	305,412455	0
15.01.2021	13:58:27	0	77,517968	2,502386	1,458	310,6944	1,353	84,222	0	1015,2	8,9	10,3	10,1	1	1	1	1	1	1	1	1	1	0	1	-18,604651	275,848074	309,689301	0
15.01.2021	13:58:28	0	77,752103	3,867325	1,389	331,47	1,345	84,221	0	1015,32	8,9	10,3	10,1	1	1	1	1	1	1	1	1	1	0	1	-18,745595	275,895498	309,774177	0
15.01.2021	13:58:29	0	77,517852	2,616133	1,377	342,756	1,347	84,233	0	1015,16	8,9	10,3	10,1	1	1	1	1	1	1	1	1	1	0	1	-12,614517	275,898773	315,920854	0
15.01.2021	13:58:30	0	77,283602	2,274899	1,43775	311,4612	1,348	84,223	0	1015,24	8,9	10,3	10,1	1	1	1	1	1	1	1	1	1	0	1	-15,151515	275,843175	313,119114	0
15.01.2021	13:58:31	0	77,517737	2,502389	1,61025	321,7536	1,35	84,25	0	1015,38	8,9	10,3	10,1	1	1	1	1	1	1	1	1	1	0	1	-10,852713	275,980824	318,073655	0
15.01.2021	13:58:32	0	77,517679	3,18486	1,78125	326,0016	1,344	84,246	0	1015,22	8,9	10,3	10,1	1	1	1	1	1	1	1	1	1	0	1	-15,997181	276,036818	313,19621	0
15.01.2021	13:58:33	0	77,517621	4,663547	1,86075	327,8232	1,351	84,257	0	1015,12	8,9	10,3	10,1	1	1	1	1	1	1	1	1	1	0	1	-15,715292	275,95453	313,085739	0
15.01.2021	13:58:34	0	77,517563	2,843627	1,8765	325,1664	1,352	84,263	0	1015,34	8,9	10,3	10,1	1	1	1	1	1	1	1	1	1	0	1	-16,27907	276,043416	312,945797	0
15.01.2021	13:58:35	0	77,283314	2,729883	1,88025	318,8124	1,346	84,25	0	1015,22	8,9	10,3	10,1	1	1	1	1	1	1	1	1	1	0	1	-16,631431	275,957815	312,185257	0
15.01.2021	13:58:36	0	77,400352	2,729884	1,8735	327,0996	1,353	84,267	0	1015,18	8,9	10,3	10,1	1	1	1	1	1	1	1	1	1	0	1	-15,574348	275,856242	312,758491	0
15.01.2021	13:58:37	0	77,751581	2,38865	1,83975	327,834	1,351	84,272	0	1015,02	8,9	10,3	10,1	1	1	1	1	1	1	1	1	1	0	1	-17,547569	275,967673	311,316106	0
15.01.2021	13:58:38	0	77,751523	2,502396	1,72875	326,0808	1,352	84,286	0	1015,3	8,9	10,3	10,1	1	1	1	1	1	1	1	1	1	0	1	-14,799154	276,045066	314,433584	0
15.01.2021	13:58:39	0	77,283083	2,274906	1,68825	329,2992	1,345	84,274	0	1015,32	8,9	10,3	10,1	1	1	1	1	1	1	1	1	1	0	1	-15,221987	276,020333	313,892771	0
15.01.2021	13:58:40	0	77,868503	4,663559	1,641	340,956	1,347	84,278	0	1015,18	8,9	10,3	10,1	1	1	1	1	1	1	1	1	1	0	1	-14,094433	275,969316	314,777076	0
15.01.2021	13:58:41	0	77,400063	3,981088	1,56675	331,9812	1,351	84,297	0	1015,36	8,9	10,3	10,1	1	1	1	1	1	1	1	1	1	0	1	-16,27907	276,026925	312,867132	0
15.01.2021	13:58:42	0	77,400005	3,071126	1,56225	340,5924	1,357	84,302	0	1015,14	8,9	10,3	10,1	1	1	1	1	1	1	1	1	1	0	1	-13,248767	275,959458	315,57575	0
15.01.2021	13:58:43	0	77,399948	3,7536	1,5855	341,7444	1,355	84,313	0	1015,24	8,9	10,3	10,1	1	1	1	1	1	1	1	1	1	0	1	-14,728682	276,031871	314,441111	0
15.01.2021	13:58:44	0	77,86827	2,843638	1,4205	354,3336	1,348	84,301	0	1015,12	8,9	10,3	10,1	1	1	1	1	1	1	1	1	1	0	1	-14,305849	275,959458	314,518667	0
15.01.2021	13:58:45	0	77,516927	4,436076	1,326	329,3568	1,35	84,301	0	1015,22	8,9	10,3	10,1	1	1	1	1	1	1	1	1	1	0	1	-17,054264	276,018685	312,052636	0
15.01.2021	13:58:46	0	77,516869	2,388653	1,2615	345,4056	1,348	84,313	0	1015,24	8,9	10,3	10	1	1	1	1	1	1	1	1	1	0	1	-11,909796	275,890587	316,586585	0
15.01.2021	13:58:47	0	77,399716	2,729895	1,25325	328,8276	1,352	84,309	0	1015,08	8,9	10,3	10,1	1	1	1	1	1	1	1	1	1	0	1	-15,856237	275,846441	312,42994	0
15.01.2021	13:58:48	0	77,750943	3,867353	1,29825	323,676	1,348	84,299	0	1015,22	8,9	10,3	10,1	1	1	1	1	1	1	1	1	1	0	1	-22,198732	275,969316	306,672777	0
15.01.2021	13:58:49	0	77,282506	2,616151	1,3605	334,9152	1,353	84,304	0	1015,22	8,9	10,3	10,1	1	1	1	1	1	1	1	1	1	0	1	-16,772375	275,851341	311,53713	0
15.01.2021	13:58:50	0	77,750826	3,639864	1,47975	344,2824	1,347	84,285	0	1015,2	8,9	10,3	10,1	1	1	1	1	1	1	1	1	1	0	1	-15,785765	275,910239	312,804226	0
15.01.2021	13:58:51	0	77,516579	3,52612	1,521	339,4476	1,352	84,3	0	1015,22	8,9	10,3	10,1	1	1	1	1	1	1	1	1	1	0	1	-12,191684	275,982469	316,742524	0
15.01.2021	13:58:52	0	77,282332	2,7299	1,752	332,4456	1,35	84,303	0	1015,22	8,9	10,3	10,1	1	1	1	1	1	1	1	1	1	0	1	-17,124736	276,012095	311,950737	0
15.01.2021	13:58:53	0	77,516463	2,61615	1,89	330,0804	1,352	84,299	0	1015,1	8,9	10,3	10	1	1	1	1	1	1	1	1	1	0	1	-21,705426	275,905324	306,861151	0
15.01.2021	13:58:54	0	77,516405	2,843648	1,9935	334,602	1,34	84,3	0	1015,2	8,9	10,3	10,1	1	1	1	1	1	1	1	1	1	0	1	-11,486963	276,035169	317,698562	0
15.01.2021	13:58:55	0	77,516347	4,322346	2,07825	336,4272	1,351	84,322	0	1015,22	8,9	10,3	10,1	1	1	1	1	1	1	1	1	1	0	1	-14,869626	275,882404	313,587784	0
15.01.2021	13:58:56	0	77,399195	3,867364	2,2005	332,3484	1,357	84,313	0	1015,18	8,9	10,3	10,1	1	1	1	1	1	1	1	1	1	0	1	-13,319239	275,839909	314,935846	0
15.01.2021	13:58:57	0	77,633325	3,639873	2,1975	315,1944	1,351	84,33	0	1015,42	8,9	10,3	10,1	1	1	1	1	1	1	1	1	1	0	1	-15,292459	275,962743	313,547718	0
15.01.2021	13:58:58	0	77,633267	4,663589	2,151	329,7312	1,347	84,329	0	1015,32	8,9	10,3	10,1	1	1	1	1	1	1	1	1	1	0	1	-16,842847	276,030222	312,319081	0
15.01.2021	13:58:59	0	77,398479	3,412384	2,02725	330,822	1,353	84,336	0	1015,5	8,9	10,2	10,1	1	1	1	1	1	1	1	1	1	0	1	-16,913319	276,023628	312,217159	0
15.01.2021	13:59:00	0	77,515999	3,639879	2,376	342,7416	1,35	84,322	0	1015,16	8,9	10,3	10,1	1	1	1	1	1	1	1	1	1	0	1	-18,322763	275,854608	310,002297	0
15.01.2021	13:59:01	0	77,515999	3,639879	2,376	342,7416	1,35	84,322	0	1015,16	8,9	10,3	10,1	1	1	1	1	1	1	1	1	1	0	1	-18,322763	275,854608	310,002297	0
15.01.2021	13:59:02	0	77,16466	1,933686	2,4135	349,4592	1,348	84,346	0	1015,32	8,9	10,3	10,1	1	1	1	1	1	1	1	1	1	0	1	-14,517266	275,911878	314,080531	0
15.01.2021	13:59:03	0	77,281696	4,549852	2,31675	347,6556	1,35	84,334	0	1015,3	8,9	10,3	10,1	1	1	1	1	1	1	1	1	1	0	1	-20,5074	275,997276	308,497408	0
15.01.2021	13:59:04	0	77,281638	3,412383	2,26275	342,6948	1,351	84,357	0	1015,28	8,9	10,3	10	1	1	1	1	1	1	1	1	1	0	1	-19,027484	275,88404	309,437719	0
15.01.2021	13:59:05	0	77,164486	3,298645	2,33475	353,2104	1,352	84,354	0	1015,04	8,9	10,3	10,1	1	1	1	1	1	1	1	1	1	0	1	-13,248767	275,854608	315,076293	0
15.01.2021	13:59:06	0	77,749895	4,777349	2,31	345,0456	1,354	84,366	0	1015,24	8,9	10,3	10,1	1	1	1	1	1	1	1	1	1	0	1	-18,393235	275,915155	310,220176	0
15.01.2021	13:59:07	0	77,51565	4,322357	2,15625	349,9452	1,349	84,346	0	1015,1	8,9	10,3	10	1	1	1	1	1	1	1	1	1	0	1	-18,111346	275,846441	310,174831	0
15.01.2021	13:59:08	0	77,281406	3,298648	2,0805	353,952	1,347	84,375	0	1015,26	8,9	10,3	10,1	1	1	1	1	1	1	1	1	1	0	1	-21,071177	275,918434	307,557851	0
15.01.2021	13:59:09	0	77,164255	4,549852	1,90725	358,7292	1,351	84,382	0	1015,28	8,9	10,3	10	1	1	1	1	1	1	1	1	1	0	1	-12,191684	276,02198	316,930934	0
15.01.2021	13:59:10	0	77,164197	3,867376	1,7475	352,1484	1,352	84,39	0	1015,2	8,9	10,3	10	1	1	1	1	1	1	1	1	1	0	1	-17,336152	275,848074	310,9578	0
15.01.2021	13:59:11	0	77,63251	4,208625	1,68225	329,0544	1,345	84,38	0	1015,18	8,9	10,3	10,1	1	1	1	1	1	1	1	1	1	0	1	-16,772375	275,939755	311,958245	0
15.01.2021	13:59:12	0	77,632452	2,388675	1,62825	331,0956	1,356	84,399	0	1015,26	8,9	10,3	10	1	1	1	1	1	1	1	1	1	0	1	-19,027484	276,017037	310,071557	0
15.01.2021	13:59:13	0	77,164023	3,867388	1,4775	356,1804	1,353	84,4	0	1015,3	8,9	10,3	10,1	1	1	1	1	1	1	1	1	1	0	1	-16,349542	275,90041	312,193629	0
15.01.2021	13:59:14	0	77,515242	5,004847	1,37025	359,8092	1,351	84,394	0	1015,22	8,9	10,3	10	1	1	1	1	1	1	1	1	1	0	1	-11,909796	276,025277	317,228544	0
15.01.2021	13:59:15	0	77,632277	4,436125	1,33125	354,2112	1,353	84,421	0	1015,22	8,9	10,3	10,1	1	1	1	1	1	1	1	1	1	0	1	-21,353066	275,977536	307,557624	0
15.01.2021	13:59:16	0	77,163849	2,843671	1,3425	342,6876	1,349	84,418	0	1015,2	8,9	10,3	10,1	1	1	1	1	1	1	1	1	1	0	1	-18,111346	275,982469	310,822863	0
15.01.2021	13:59:17	0	77,397975	3,639892	1,4325	349,0596	1,355	84,432	0	1015,3	8,9	10,3	10	1	1	1	1	1	1	1	1	1	0	1	-16,067653	276,020333	313,047105	0
15.01.2021	13:59:18	0	77,280825	3,412407	1,644	331,5276	1,357	84,44	0	1015,28	8,9	10,3	10,1	1	1	1	1	1	1	1	1	1	0	1	-19,238901	275,972604	309,648278	0
15.01.2021	13:59:19	0	77,749135	4,663625	1,902	347,6088	1,35	84,438	0	1015,28	8,9	10,3	10,1	1	1	1	1	1	1	1	1	1	0	1	-18,322763	276,010448	310,744855	0
15.01.2021	13:59:20	0	77,280709	3,753651	1,97475	358,7508	1,348	84,444	0	1015,22	8,9	10,3	10,1	1	1	1	1	1	1	1	1	1	0	1	-15,151515	275,882404	313,305895	0
15.01.2021	13:59:21	0	77,397742	3,639898	1,98225	353,4732	1,351	84,443	0	1015,24	8,9	10,3	10	1	1	1	1	1	1	1	1	1	0	1	-17,124736	275,836644	311,114808	0
15.01.2021	13:59:22	0	77,514776	3,526152	2,0235	348,3	1,352	84,465	0	1015,14	8,9	10,3	10	1	1	1	1	1	1	1	1	1	0	1	-13,883016	275,924992	314,777257	0
15.01.2021	13:59:23	0	77,514718	4,549885	2,1	351,3024	1,351	84,449	0	1015,24	8,9	10,3	10,1	1	1	1	1	1	1	1	1	1	0	1	-20,577872	276,028573	308,576193	0
15.01.2021	13:59:24	0	77,514659	4,208645	2,14575	340,2576	1,354	84,465	0	1015,34	8,9	10,3	10,1	1	1	1	1	1	1	1	1	1	0	1	-18,181818	275,941396	310,556622	0
15.01.2021	13:59:25	0	77,046235	3,298669	2,19825	339,0732	1,352	84,455	0	1015,3	8,9	10,3	10,1	1	1	1	1	1	1	1	1	1	0	1	-14,869626	275,831748	313,346611	0
15.01.2021	13:59:26	0	77,631634	4,663627	2,274	340,9128	1,35	84,472	0	1015,2	8,9	10,3	10	1	1	1	1	1	1	1	1	1	0	1	-14,728682	275,905324	313,837895	0
15.01.2021	13:59:27	0	76,929027	2,729935	2,403	337,9968	1,358	84,471	0	1015,24	8,9	10,3	10,1	1	1	1	1	1	1	1	1	1	0	1	-15,926709	276,017037	313,172333	0
15.01.2021	13:59:28	0	77,514426	2,729936	2,439	346,1688	1,352	84,486	0	1015,3	8,9	10,3	10,1	1	1	1	1	1	1	1	1	1	0	1	-15,433404	275,892224	313,070773	0
15.01.2021	13:59:29	0	77,280185	3,86741	2,27925	333,9072	1,356	84,492	0	1015,38	8,9	10,3	10,1	1	1	1	1	1	1	1	1	1	0	1	-18,957012	276,02198	310,165606	0
15.01.2021	13:59:30	0	76,928853	2,843679	2,20575	324,1008	1,361	84,485	0	1015,26	8,9	10,3	10	1	1	1	1	1	1	1	1	1	0	1	-18,745595	276,01539	310,345589	0
15.01.2021	13:59:31	0	77,397159	2,729939	2,13675	337,1472	1,354	84,49	0	1015,28	8,9	10,3	10,1	1	1	1	1	1	1	1	1	1	0	1	-17,758985	275,874225	310,659475	0
15.01.2021	13:59:32	0	77,162919	4,549899	2,01825	332,3664	1,369	84,507	0	1015,36	8,9	10,3	10,1	1	1	1	1	1	1	1	1	1	0	1	-15,362932	276,000568	313,657574	0
15.01.2021	13:59:33	0	77,397043	4,208659	2,07675	346,0896	1,354	84,506	0	1015,1	8,9	10,3	10,1	1	1	1	1	1	1	1	1	1	0	1	-17,336152	275,885677	311,136844	0
15.01.2021	13:59:34	0	77,396984	2,957437	2,196	336,3516	1,36	84,51	0	1015,44	8,9	10,3	10,1	1	1	1	1	1	1	1	1	1	0	1	-20,155039	276,030222	309,00689	0
15.01.2021	13:59:35	0	77,162744	2,616195	2,157	330,732	1,354	84,507	0	1015,18	8,9	10,3	10,1	1	1	1	1	1	1	1	1	1	0	1	-15,997181	275,88404	312,468022	0
15.01.2021	13:59:36	0	76,928505	2,957439	2,11575	348,03	1,356	84,512	0	1015,3	8,9	10,3	10,1	1	1	1	1	1	1	1	1	1	0	1	-15,503876	275,849707	312,797852	0
15.01.2021	13:59:37	0	77,279718	3,753674	2,208	336,8628	1,357	84,517	0	1015,3	8,9	10,3	10,1	1	1	1	1	1	1	1	1	1	0	1	-13,6716	275,993985	315,317514	0
15.01.2021	13:59:38	0	77,16257	4,322414	2,27175	334,6056	1,363	84,525	0	1015,18	8,9	10,3	10,1	1	1	1	1	1	1	1	1	1	0	1	-20,5074	275,841542	307,755457	0
15.01.2021	13:59:39	0	77,513782	3,753677	2,2935	343,926	1,358	84,525	0	1015,22	8,9	10,3	10,1	1	1	1	1	1	1	1	1	1	0	1	-17,618041	275,957815	311,198647	0
15.01.2021	13:59:40	0	77,279543	2,6162	2,2035	340,2468	1,359	84,525	0	1015,18	8,9	10,3	10,1	1	1	1	1	1	1	1	1	1	0	1	-18,604651	275,835012	309,627123	0
15.01.2021	13:59:41	0	77,396575	4,549914	2,0895	336,0096	1,362	84,538	0	1015,16	8,9	10,3	10,1	1	1	1	1	1	1	1	1	1	0	1	-13,178295	275,87586	315,247954	0
15.01.2021	13:59:42	0	77,279426	2,843698	2,013	339,1632	1,364	84,535	0	1015,24	8,9	10,3	10,1	1	1	1	1	1	1	1	1	1	0	1	-14,869626	275,902048	313,681346	0
15.01.2021	13:59:43	0	77,513548	2,616197	2,00475	331,488	1,362	84,533	0	1015,26	8,9	10,3	10	1	1	1	1	1	1	1	1	1	0	1	-17,547569	276,030222	311,61436	0
15.01.2021	13:59:44	0	77,16222	3,981179	2,013	329,7168	1,362	84,546	0	1015,16	8,9	10,3	10,1	1	1	1	1	1	1	1	1	1	0	1	-16,842847	275,993985	312,146266	0
15.01.2021	13:59:45	0	77,162161	3,753677	2,046	331,9092	1,368	84,555	0	1015,24	8,9	10,3	10	1	1	1	1	1	1	1	1	1	0	1	-14,728682	275,836644	313,510861	0
15.01.2021	13:59:46	0	77,513372	3,753686	2,11275	336,0636	1,36	84,544	0	1015,26	8,9	10,3	10,1	1	1	1	1	1	1	1	1	1	0	1	-16,490486	276,000568	312,530019	0
15.01.2021	13:59:47	0	77,162045	2,502458	2,1525	338,8068	1,364	84,558	0	1015,32	8,9	10,3	10,1	1	1	1	1	1	1	1	1	1	0	1	-16,560958	275,887313	311,919832	0
15.01.2021	13:59:48	0	77,044897	4,208682	2,2365	331,524	1,366	84,565	0	1015,4	8,9	10,3	10,1	1	1	1	1	1	1	1	1	1	0	1	-15,715292	276,018685	313,391607	0
15.01.2021	13:59:49	0	77,279017	2,616208	2,2575	335,7144	1,365	84,548	0	1015,26	8,9	10,3	10,1	1	1	1	1	1	1	1	1	1	0	1	-18,534179	275,88895	309,954406	0
15.01.2021	13:59:50	0	77,396048	3,753692	2,31	341,2476	1,356	84,572	0	1015,24	8,9	10,3	10,1	1	1	1	1	1	1	1	1	1	0	1	-13,460183	275,959458	315,364333	0
15.01.2021	13:59:51	0	76,810543	4,549922	2,22975	334,7244	1,363	84,567	0	1015,3	8,9	10,3	10	1	1	1	1	1	1	1	1	1	0	1	-19,097956	276,030222	310,063972	0
15.01.2021	13:59:52	0	77,161753	2,38871	2,2005	337,968	1,367	84,558	0	1015,26	8,9	10,3	10	1	1	1	1	1	1	1	1	1	0	1	-14,094433	275,890587	314,401948	0
15.01.2021	13:59:53	0	76,927516	2,388716	2,08125	330,0552	1,36	84,575	0	1015,28	8,9	10,3	10,1	1	1	1	1	1	1	1	1	1	0	1	-10,359408	275,88895	318,129177	0
15.01.2021	13:59:54	0	77,161636	2,957458	1,962	307,5984	1,359	84,588	0	1015,22	8,9	10,3	10,1	1	1	1	1	1	1	1	1	1	0	1	-19,097956	276,013742	309,985372	0
15.01.2021	13:59:55	0	77,044488	2,502466	1,932	309,2508	1,368	84,576	0	1015,28	8,9	10,3	10,1	1	1	1	1	1	1	1	1	1	0	1	-15,292459	275,898773	313,242911	0
15.01.2021	13:59:56	0	77,278608	2,957455	1,83975	301,6008	1,367	84,588	0	1015,12	8,9	10,3	10	1	1	1	1	1	1	1	1	1	0	1	-13,883016	275,870954	314,519869	0
15.01.2021	13:59:57	0	76,927283	3,298701	1,707	309,9204	1,363	84,592	0	1015,22	8,9	10,3	10	1	1	1	1	1	1	1	1	1	0	1	-16,349542	275,892224	312,154635	0
15.01.2021	13:59:58	0	77,395579	3,753703	1,5555	298,674	1,371	84,583	0	1015,06	8,9	10,3	10,1	1	1	1	1	1	1	1	1	1	0	1	-15,715292	275,949604	313,062261	0
15.01.2021	13:59:59	0	77,161343	3,981201	1,43775	323,0532	1,37	84,579	0	1015,24	8,9	10,3	10,1	1	1	1	1	1	1	1	1	1	0	1	-15,715292	275,83338	312,508713	0
15.01.2021	14:00:00	0	76,92705	2,502471	1,524	334,224	1,364	84,589	0	1015,3	8,9	10,3	10,1	1	1	1	1	1	1	1	1	1	0	1	-16,349542	275,90041	312,193629	0
15.01.2021	14:00:01	0	76,92705	2,502471	1,524	334,224	1,364	84,589	0	1015,3	8,9	10,3	10,1	1	1	1	1	1	1	1	1	1	0	1	-18,534179	276,02198	310,588439	0
15.01.2021	14:00:02	0	77,161168	3,753708	1,5645	317,0736	1,37	84,596	0	1015,22	8,9	10,3	10,1	1	1	1	1	1	1	1	1	1	0	1	-17,054264	276,030222	312,107665	0
15.01.2021	14:00:03	0	77,278197	3,184966	1,5375	314,4924	1,364	84,591	0	1015,2	8,9	10,3	10,1	1	1	1	1	1	1	1	1	1	0	1	-16,067653	275,887313	312,413137	0
15.01.2021	14:00:04	0	77,161051	2,502474	1,5345	322,9416	1,37	84,593	0	1015,2	8,9	10,3	10,1	1	1	1	1	1	1	1	1	1	0	1	-17,477097	275,843175	310,793533	0
15.01.2021	14:00:05	0	77,395168	2,616224	1,56075	324,3708	1,37	84,603	0	1015,22	8,9	10,3	10,1	1	1	1	1	1	1	1	1	1	0	1	-18,322763	275,895498	310,19701	0
15.01.2021	14:00:06	0	77,278021	4,549956	1,64775	327,4272	1,367	84,601	0	1015,28	8,9	10,3	10,1	1	1	1	1	1	1	1	1	1	0	1	-15,081043	276,017037	314,017999	0
15.01.2021	14:00:07	0	77,160875	5,004943	1,83375	324,0828	1,363	84,601	0	1015,26	8,9	10,3	10	1	1	1	1	1	1	1	1	1	0	1	-15,997181	275,893861	312,514793	0
15.01.2021	14:00:08	0	77,277904	3,753716	1,78425	332,4204	1,368	84,596	0	1015,34	8,9	10,3	10,1	1	1	1	1	1	1	1	1	1	0	1	-19,87315	275,841542	308,389707	0
15.01.2021	14:00:09	0	77,394933	3,52622	1,6455	333,5148	1,368	84,603	0	1015,24	8,9	10,3	10,1	1	1	1	1	1	1	1	1	1	0	1	-17,477097	275,96603	311,378745	0
15.01.2021	14:00:10	0	77,160699	3,753719	1,57725	330,1308	1,37	84,607	0	1015,28	8,9	10,3	10,1	1	1	1	1	1	1	1	1	1	0	1	-18,675123	276,025277	310,463217	0
15.01.2021	14:00:11	0	77,043553	3,526222	1,47075	325,962	1,373	84,602	0	1015,38	8,9	10,3	10,1	1	1	1	1	1	1	1	1	1	0	1	-11,557435	275,870954	316,845451	0
15.01.2021	14:00:12	0	77,394756	4,549966	1,42875	323,3088	1,372	84,601	0	1015,14	8,9	10,3	10,1	1	1	1	1	1	1	1	1	1	0	1	-17,195208	276,031871	311,974585	0
15.01.2021	14:00:13	0	77,511785	4,891215	1,46325	329,7636	1,369	84,585	0	1015,24	8,9	10,3	10,1	1	1	1	1	1	1	1	1	1	0	1	-16,772375	276,02198	312,350243	0
15.01.2021	14:00:14	0	77,394639	3,981223	1,50675	325,1916	1,371	84,606	0	1015,4	8,9	10,3	10,1	1	1	1	1	1	1	1	1	1	0	1	-18,816068	275,885677	309,656929	0
15.01.2021	14:00:15	0	76,809144	2,729977	1,46625	327,4488	1,37	84,601	0	1015,28	8,9	10,3	10	1	1	1	1	1	1	1	1	1	0	1	-14,023961	275,990694	314,949462	0
15.01.2021	14:00:16	0	77,394521	4,208725	1,38075	329,2704	1,37	84,575	0	1015,24	8,9	10,3	10,1	1	1	1	1	1	1	1	1	1	0	1	-13,530655	275,995631	315,466305	0
15.01.2021	14:00:17	0	77,511549	4,891222	1,305	323,3772	1,366	84,602	0	1015,22	8,9	10,3	10,1	1	1	1	1	1	1	1	1	1	0	1	-15,997181	275,85951	312,351218	0
15.01.2021	14:00:18	0	77,043143	2,616236	1,21425	318,1392	1,368	84,588	0	1015,12	8,9	10,3	10,1	1	1	1	1	1	1	1	1	1	0	1	-13,319239	275,836644	314,920305	0
15.01.2021	14:00:19	0	76,80891	2,274984	1,19025	315,5616	1,378	84,609	0	1015,28	8,9	10,3	10	1	1	1	1	1	1	1	1	1	0	1	-12,896406	275,852974	315,420876	0
15.01.2021	14:00:20	0	77,043025	2,388734	1,18875	322,5888	1,365	84,595	0	1015,28	8,9	10,3	10	1	1	1	1	1	1	1	1	1	0	1	-14,587738	275,90041	313,955433	0
15.01.2021	14:00:21	0	77,042967	4,436232	1,21275	327,1392	1,374	84,581	0	1015,3	8,9	10,3	10,1	1	1	1	1	1	1	1	1	1	0	1	-15,503876	275,852974	312,813406	0
15.01.2021	14:00:22	0	77,159994	5,004981	1,245	319,5756	1,372	84,598	0	1015,32	8,9	10,3	10,1	1	1	1	1	1	1	1	1	1	0	1	-16,208598	275,972604	312,678581	0
15.01.2021	14:00:23	0	76,925763	4,436235	1,21125	316,5948	1,366	84,589	0	1015,22	8,9	10,3	10,1	1	1	1	1	1	1	1	1	1	0	1	-12,614517	276,005508	316,429541	0
15.01.2021	14:00:24	0	77,04279	3,526232	1,1625	329,6916	1,37	84,595	0	1015,24	8,9	10,3	10	1	1	1	1	1	1	1	1	1	0	1	-15,292459	275,984114	313,64959	0
15.01.2021	14:00:25	0	77,042732	2,729993	1,1625	328,662	1,371	84,579	0	1015,14	8,9	10,3	10,1	1	1	1	1	1	1	1	1	1	0	1	-21,846371	275,831748	306,369867	0
15.01.2021	14:00:26	0	77,276845	4,66373	1,11375	320,7924	1,369	84,591	0	1015,26	8,9	10,3	10	1	1	1	1	1	1	1	1	1	0	1	-17,829457	275,964386	311,018551	0
15.01.2021	14:00:27	0	77,042614	3,412493	1,11825	316,7316	1,372	84,588	0	1015,32	8,9	10,3	10,1	1	1	1	1	1	1	1	1	1	0	1	-14,65821	275,831748	313,558027	0
15.01.2021	14:00:28	0	76,92547	2,72999	1,13325	319,6836	1,37	84,6	0	1015,26	8,9	10,3	10	1	1	1	1	1	1	1	1	1	0	1	-15,292459	275,946321	313,469447	0
15.01.2021	14:00:29	0	76,925411	3,639996	1,20375	327,4272	1,367	84,593	0	1015,34	8,9	10,3	10,1	1	1	1	1	1	1	1	1	1	0	1	-13,883016	275,835012	314,348758	0
15.01.2021	14:00:30	0	77,042438	2,161248	1,3365	312,2316	1,37	84,595	0	1015,08	8,9	10,3	10,1	1	1	1	1	1	1	1	1	1	0	1	-20,366455	275,972604	308,520723	0
15.01.2021	14:00:31	0	77,393636	4,891248	1,35075	313,2504	1,374	84,582	0	1015,32	8,9	10,3	10,1	1	1	1	1	1	1	1	1	1	0	1	-17,829457	276,007154	311,222453	0
15.01.2021	14:00:32	0	77,159406	4,7775	1,395	302,9004	1,374	84,59	0	1015,22	8,9	10,3	10,1	1	1	1	1	1	1	1	1	1	0	1	-16,420014	275,952888	312,373191	0
15.01.2021	14:00:33	0	76,691005	2,616245	1,43175	322,326	1,376	84,602	0	1015,36	8,9	10,3	10	1	1	1	1	1	1	1	1	1	0	1	-14,799154	275,995631	314,197806	0
15.01.2021	14:00:34	0	76,690946	2,502502	1,39275	330,7644	1,371	84,593	0	1015,32	8,9	10,3	10,1	1	1	1	1	1	1	1	1	1	0	1	-12,684989	275,821958	315,484657	0
15.01.2021	14:00:35	0	76,690888	2,957497	1,35075	314,4672	1,369	84,586	0	1015,3	8,9	10,3	10	1	1	1	1	1	1	1	1	1	0	1	-14,587738	275,995631	314,409222	0
15.01.2021	14:00:36	0	76,925	3,526255	1,2855	317,4408	1,382	84,594	0	1015,26	8,9	10,3	10,1	1	1	1	1	1	1	1	1	1	0	1	-18,25229	275,951246	310,533089	0
15.01.2021	14:00:37	0	76,690771	2,616255	1,2495	337,5756	1,368	84,593	0	1015,14	8,9	10,3	10,1	1	1	1	1	1	1	1	1	1	0	1	-12,684989	275,854608	315,640071	0
15.01.2021	14:00:38	0	76,456542	2,502505	1,22325	321,8076	1,369	84,607	0	1015,22	8,9	10,3	10,1	1	1	1	1	1	1	1	1	1	0	1	-16,560958	275,941396	312,177482	0
15.01.2021	14:00:39	0	76,690653	3,526252	1,1985	325,9116	1,374	84,616	0	1015,16	8,9	10,3	10	1	1	1	1	1	1	1	1	1	0	1	-17,829457	276,007154	311,222453	0
15.01.2021	14:00:40	0	77,041849	4,322512	1,13625	315,8532	1,37	84,588	0	1015,1	8,9	10,3	10,1	1	1	1	1	1	1	1	1	1	0	1	-10,852713	275,843175	317,417916	0
15.01.2021	14:00:41	0	77,041791	4,322514	1,14975	299,5272	1,363	84,614	0	1015,24	8,9	10,3	10,1	1	1	1	1	1	1	1	1	1	0	1	-17,970402	275,877496	310,463636	0
15.01.2021	14:00:42	0	76,573393	3,071261	1,2105	322,1856	1,373	84,617	0	1015,16	8,9	10,3	10,1	1	1	1	1	1	1	1	1	1	0	1	-18,88654	275,823589	309,29087	0
15.01.2021	14:00:43	0	76,573334	2,843761	1,19175	320,0868	1,37	84,627	0	1015,22	8,9	10,3	10,1	1	1	1	1	1	1	1	1	1	0	1	-15,926709	275,906962	312,647672	0
15.01.2021	14:00:44	0	76,69036	3,298764	1,164	313,5672	1,373	84,623	0	1015,26	8,9	10,3	10,1	1	1	1	1	1	1	1	1	1	0	1	-15,151515	275,838276	313,095799	0
15.01.2021	14:00:45	0	76,807386	3,75376	1,18125	313,2036	1,371	84,629	0	1015,28	8,9	10,3	10	1	1	1	1	1	1	1	1	1	0	1	-10,500352	275,866049	317,879177	0
15.01.2021	14:00:46	0	76,807327	3,86752	1,22625	322,272	1,376	84,633	0	1015,12	8,9	10,3	10,1	1	1	1	1	1	1	1	1	1	0	1	-13,03735	275,980824	315,889018	0
15.01.2021	14:00:47	0	77,041437	4,663775	1,197	306,414	1,369	84,614	0	1015,2	8,9	10,3	10,1	1	1	1	1	1	1	1	1	1	0	1	-16,067653	275,975892	312,835199	0
15.01.2021	14:00:48	0	76,924294	4,663777	1,2135	307,1952	1,374	84,635	0	1015,3	8,9	10,3	10,1	1	1	1	1	1	1	1	1	1	0	1	-16,701903	275,967673	312,161772	0
15.01.2021	14:00:49	0	76,690067	3,18502	1,15725	326,736	1,376	84,634	0	1015,26	8,9	10,3	10,1	1	1	1	1	1	1	1	1	1	0	1	-17,26568	275,818696	310,888442	0
15.01.2021	14:00:50	0	76,807092	3,298772	1,17225	334,3608	1,37	84,627	0	1015,24	8,9	10,3	10,1	1	1	1	1	1	1	1	1	1	0	1	-18,816068	275,887313	309,664723	0
15.01.2021	14:00:51	0	77,041201	4,095028	1,182	347,6196	1,371	84,637	0	1015,26	8,9	10,3	10,1	1	1	1	1	1	1	1	1	1	0	1	-16,631431	275,839909	311,623654	0
15.01.2021	14:00:52	0	76,806974	3,412525	1,19025	332,4636	1,369	84,641	0	1015,18	8,9	10,3	10,1	1	1	1	1	1	1	1	1	1	0	1	-16,631431	275,997276	312,373377	0
15.01.2021	14:00:53	0	76,923999	3,867522	1,24275	330,264	1,378	84,658	0	1015,24	8,9	10,3	10	1	1	1	1	1	1	1	1	1	0	1	-18,745595	276,007154	310,306315	0
15.01.2021	14:00:54	0	76,806856	4,436286	1,248	345,42	1,374	84,642	0	1015,2	8,9	10,3	10,1	1	1	1	1	1	1	1	1	1	0	1	-19,87315	275,982469	309,061059	0
15.01.2021	14:00:55	0	77,040965	4,663789	1,28925	345,042	1,369	84,652	0	1015,24	8,9	10,3	10,1	1	1	1	1	1	1	1	1	1	0	1	-18,957012	276,013742	310,126316	0
15.01.2021	14:00:56	0	76,572572	4,322529	1,3215	340,1676	1,379	84,665	0	1015,34	8,9	10,3	10	1	1	1	1	1	1	1	1	1	0	1	-15,997181	275,992339	312,984086	0
15.01.2021	14:00:57	0	76,923763	3,29878	1,341	338,058	1,375	84,662	0	1015,26	8,9	10,3	10,1	1	1	1	1	1	1	1	1	1	0	1	-16,560958	275,890587	311,935422	0
15.01.2021	14:00:58	0	76,806621	2,843777	1,20825	339,8436	1,369	84,658	0	1015,14	8,9	10,3	10,1	1	1	1	1	1	1	1	1	1	0	1	-16,631431	275,87586	311,794818	0
15.01.2021	14:00:59	0	76,455312	2,843772	1,1025	318,8016	1,374	84,678	0	1015,24	8,9	10,3	10	1	1	1	1	1	1	1	1	1	0	1	-17,547569	275,830116	310,660901	0
15.01.2021	14:01:00	0	76,689361	2,502527	1,22175	316,6776	1,373	84,678	0	1015,18	8,9	10,3	10,1	1	1	1	1	1	1	1	1	1	0	1	-16,138125	275,87586	312,288123	0
15.01.2021	14:01:01	0	76,689361	2,502527	1,22175	316,6776	1,373	84,678	0	1015,18	8,9	10,3	10,1	1	1	1	1	1	1	1	1	1	0	1	-15,292459	275,825221	312,892714	0
15.01.2021	14:01:02	0	76,689302	3,526289	1,27875	319,6224	1,373	84,672	0	1015,22	8,9	10,3	10,1	1	1	1	1	1	1	1	1	1	0	1	-14,869626	275,984114	314,072423	0
15.01.2021	14:01:03	0	76,689243	3,52629	1,30125	341,7156	1,381	84,683	0	1015,24	8,9	10,3	10,1	1	1	1	1	1	1	1	1	1	0	1	-16,067653	275,995631	312,929307	0
15.01.2021	14:01:04	0	76,689184	3,753794	1,2705	336,0672	1,384	84,677	0	1015,24	8,9	10,3	10,1	1	1	1	1	1	1	1	1	1	0	1	-13,460183	275,902048	315,090789	0
15.01.2021	14:01:05	0	76,572043	3,526293	1,2645	330,5232	1,376	84,659	0	1015,28	8,9	10,3	10,1	1	1	1	1	1	1	1	1	1	0	1	-21,49401	275,967673	307,369664	0
15.01.2021	14:01:06	0	76,689066	4,550048	1,17225	332,8056	1,372	84,671	0	1015,24	8,9	10,3	10	1	1	1	1	1	1	1	1	1	0	1	-18,957012	275,959458	309,867505	0
15.01.2021	14:01:07	0	76,571925	4,891313	1,16175	325,5552	1,38	84,656	0	1015,02	8,9	10,3	10,1	1	1	1	1	1	1	1	1	1	0	1	-21,212121	276,008801	307,847642	0
15.01.2021	14:01:08	0	76,805493	3,298794	1,11075	325,7964	1,377	84,672	0	1015,32	8,9	10,2	10,1	1	1	1	1	1	1	1	1	1	0	1	-19,097956	275,844807	309,180446	0
15.01.2021	14:01:09	0	76,68889	4,777565	1,0755	342,108	1,383	84,654	0	1015,32	8,9	10,3	10,1	1	1	1	1	1	1	1	1	1	0	1	-20,155039	275,997276	308,849769	0
15.01.2021	14:01:10	0	76,571748	3,526299	1,1265	346,8852	1,376	84,668	0	1015,2	8,9	10,3	10,1	1	1	1	1	1	1	1	1	1	0	1	-15,856237	275,959458	312,96828	0
15.01.2021	14:01:11	0	76,454607	2,388784	1,23825	349,938	1,376	84,667	0	1015,2	8,9	10,3	10,1	1	1	1	1	1	1	1	1	1	0	1	-12,825934	275,831748	315,390304	0
15.01.2021	14:01:12	0	76,220385	2,843792	1,314	360	1,382	84,679	0	1015,58	8,9	10,3	10,1	1	1	1	1	1	1	1	1	1	0	1	-15,856237	275,933192	312,84311	0
15.01.2021	14:01:13	0	76,688654	3,753807	1,353	344,0196	1,386	84,684	0	1015,2	8,9	10,3	10,1	1	1	1	1	1	1	1	1	1	0	1	-20,155039	276,010448	308,912579	0
15.01.2021	14:01:14	0	76,688595	4,436319	1,35375	344,6532	1,376	84,664	0	1015,16	8,9	10,3	10,1	1	1	1	1	1	1	1	1	1	0	1	-17,124736	275,962743	311,715442	0
15.01.2021	14:01:15	0	77,039781	3,753809	1,33575	339,8328	1,381	84,68	0	1015,26	8,9	10,3	10,1	1	1	1	1	1	1	1	1	1	0	1	-13,6716	276,010448	315,396018	0
15.01.2021	14:01:16	0	76,688477	3,526307	1,27425	335,3472	1,382	84,685	0	1015,18	8,9	10,3	10,1	1	1	1	1	1	1	1	1	1	0	1	-15,856237	275,993985	313,132877	0
15.01.2021	14:01:17	0	76,805499	5,005083	1,296	334,9692	1,374	84,669	0	1015,04	8,9	10,3	10,1	1	1	1	1	1	1	1	1	1	0	1	-18,463707	275,864414	309,908039	0
15.01.2021	14:01:18	0	76,337114	2,502537	1,29825	336,3768	1,381	84,68	0	1015,2	8,9	10,3	10	1	1	1	1	1	1	1	1	1	0	1	-14,446794	275,823589	313,730616	0
15.01.2021	14:01:19	0	76,805381	3,071303	1,24425	342,8532	1,379	84,687	0	1015,26	8,9	10,3	10,1	1	1	1	1	1	1	1	1	1	0	1	-16,772375	275,892224	311,731802	0
15.01.2021	14:01:20	0	76,102834	3,98132	1,17225	348,3828	1,383	84,692	0	1015,2	8,9	10,3	10,1	1	1	1	1	1	1	1	1	1	0	1	-15,997181	275,821958	312,172465	0
15.01.2021	14:01:21	0	76,5711	2,730049	1,113	344,6748	1,373	84,69	0	1015,16	8,9	10,3	10,1	1	1	1	1	1	1	1	1	1	0	1	-11,980268	275,88404	316,484935	0
15.01.2021	14:01:22	0	76,219798	2,616298	1,1265	352,8504	1,379	84,712	0	1015,38	8,9	10,3	10,1	1	1	1	1	1	1	1	1	1	0	1	-17,618041	275,839909	310,637044	0
15.01.2021	14:01:23	0	76,219739	3,867573	1,23	0	1,378	84,709	0	1015,3	8,9	10,3	10,1	1	1	1	1	1	1	1	1	1	0	1	-14,587738	275,936474	314,127244	0
15.01.2021	14:01:24	0	76,336761	3,867574	1,386	349,884	1,376	84,722	0	1015,2	8,9	10,3	10,1	1	1	1	1	1	1	1	1	1	0	1	-13,460183	275,828484	314,740521	0
15.01.2021	14:01:25	0	76,570864	3,867576	1,45575	354,9456	1,383	84,711	0	1015,12	8,9	10,3	10,1	1	1	1	1	1	1	1	1	1	0	1	-18,816068	276,002215	310,212288	0
15.01.2021	14:01:26	0	76,102482	2,957559	1,44075	343,9908	1,387	84,713	0	1015,24	8,9	10,3	10,1	1	1	1	1	1	1	1	1	1	0	1	-14,940099	275,88895	313,548486	0
15.01.2021	14:01:27	0	76,570746	2,730055	1,44375	333,9576	1,381	84,73	0	1015,34	8,9	10,3	10,1	1	1	1	1	1	1	1	1	1	0	1	-16,560958	275,818696	311,593164	0
15.01.2021	14:01:28	0	76,453606	2,502552	1,52175	337,0968	1,377	84,718	0	1015,34	8,9	10,3	10,1	1	1	1	1	1	1	1	1	1	0	1	-16,208598	275,944679	312,545486	0
15.01.2021	14:01:29	0	76,219386	3,185067	1,5015	331,4988	1,383	84,717	0	1015,28	8,9	10,3	10,1	1	1	1	1	1	1	1	1	1	0	1	-13,6716	275,844807	314,606803	0
15.01.2021	14:01:30	0	76,102247	2,388801	1,50075	322,596	1,382	84,705	0	1015,24	8,9	10,3	10,1	1	1	1	1	1	1	1	1	1	0	1	-16,208598	275,97918	312,709931	0
15.01.2021	14:01:31	0	76,336349	4,436347	1,57725	326,4264	1,386	84,721	0	1015,2	8,9	10,3	10,1	1	1	1	1	1	1	1	1	1	0	1	-14,446794	275,83338	313,777212	0
15.01.2021	14:01:32	0	76,33629	2,616308	1,68375	330,0228	1,382	84,721	0	1015,2	8,9	10,3	10,1	1	1	1	1	1	1	1	1	1	0	1	-13,460183	275,870954	314,942702	0
15.01.2021	14:01:33	0	76,570391	4,208845	1,72575	336,7368	1,387	84,715	0	1015,3	8,9	10,3	10,1	1	1	1	1	1	1	1	1	1	0	1	-17,406624	276,018685	311,700275	0
15.01.2021	14:01:34	0	76,687412	4,436352	1,734	332,4024	1,377	84,716	0	1015,24	8,9	10,3	10,1	1	1	1	1	1	1	1	1	1	0	1	-12,966878	275,956173	315,841981	0
15.01.2021	14:01:35	0	76,219033	4,208848	1,809	334,98	1,384	84,728	0	1015,2	8,9	10,3	10,1	1	1	1	1	1	1	1	1	1	0	1	-18,816068	276,020333	310,298691	0
15.01.2021	14:01:36	0	76,336054	4,20885	1,869	333,1548	1,375	84,716	0	1015,18	8,9	10,3	10,1	1	1	1	1	1	1	1	1	1	0	1	-18,675123	275,972604	310,212055	0
15.01.2021	14:01:37	0	76,101835	3,75384	1,91475	325,9692	1,386	84,726	0	1015,16	8,9	10,3	10,1	1	1	1	1	1	1	1	1	1	0	1	-18,111346	275,835012	310,120428	0
15.01.2021	14:01:38	0	76,453015	4,208853	1,9065	323,6544	1,374	84,717	0	1015,18	8,9	10,3	10,1	1	1	1	1	1	1	1	1	1	0	1	-16,772375	275,962743	312,067802	0
15.01.2021	14:01:39	0	76,687115	3,185079	1,88325	330,408	1,385	84,726	0	1015,1	8,9	10,3	10,1	1	1	1	1	1	1	1	1	1	0	1	-18,181818	275,869319	310,213281	0
15.01.2021	14:01:40	0	76,335818	3,412586	1,8015	330,0516	1,382	84,702	0	1015,24	8,9	10,3	10,1	1	1	1	1	1	1	1	1	1	0	1	-15,574348	275,97918	313,344181	0
15.01.2021	14:01:41	0	76,569917	3,753846	1,6605	316,7784	1,384	84,728	0	1015,26	8,9	10,3	10,1	1	1	1	1	1	1	1	1	1	0	1	-15,574348	275,980824	313,35202	0
15.01.2021	14:01:42	0	76,101541	2,843824	1,5585	321,8868	1,387	84,739	0	1015,08	8,9	10,3	10,1	1	1	1	1	1	1	1	1	1	0	1	-21,564482	275,848074	306,72947	0
15.01.2021	14:01:43	0	76,101482	3,753849	1,464	356,1768	1,383	84,726	0	1015,32	8,9	10,3	10,1	1	1	1	1	1	1	1	1	1	0	1	-17,618041	275,854608	310,707019	0
15.01.2021	14:01:44	0	76,218502	4,322615	1,38975	352,8648	1,384	84,731	0	1015,28	8,9	10,3	10,1	1	1	1	1	1	1	1	1	1	0	1	-16,138125	275,943038	312,608136	0
15.01.2021	14:01:45	0	76,218443	4,777629	1,28175	340,92	1,376	84,729	0	1015,14	8,9	10,3	10,1	1	1	1	1	1	1	1	1	1	0	1	-17,124736	276,020333	311,990023	0
15.01.2021	14:01:46	0	76,335463	2,388815	1,35825	355,0284	1,39	84,732	0	1015,3	8,9	10,3	10,1	1	1	1	1	1	1	1	1	1	0	1	-19,591261	275,918434	309,037767	0
15.01.2021	14:01:47	0	76,452483	2,730076	1,437	346,1832	1,393	84,748	0	1015,24	8,9	10,3	10,1	1	1	1	1	1	1	1	1	1	0	1	-16,349542	275,990694	312,62388	0
15.01.2021	14:01:48	0	76,452424	4,436375	1,548	359,6832	1,383	84,732	0	1015,28	8,9	10,3	10,1	1	1	1	1	1	1	1	1	1	0	1	-19,450317	276,003861	309,585889	0
15.01.2021	14:01:49	0	75,866971	2,843831	1,62975	352,7316	1,385	84,718	0	1015,02	8,9	10,3	10,1	1	1	1	1	1	1	1	1	1	0	1	-15,081043	275,906962	313,493338	0
15.01.2021	14:01:50	0	76,335227	2,616326	1,647	347,184	1,385	84,742	0	1015,1	8,9	10,3	10,1	1	1	1	1	1	1	1	1	1	0	1	-15,997181	275,866049	312,382348	0
15.01.2021	14:01:51	0	76,218089	4,09512	1,6485	347,2308	1,388	84,748	0	1015,3	8,9	10,3	10,1	1	1	1	1	1	1	1	1	1	0	1	-15,503876	276,020333	313,610882	0
15.01.2021	14:01:52	0	76,100951	5,118902	1,566	1,1556	1,396	84,738	0	1015,36	8,9	10,3	10,1	1	1	1	1	1	1	1	1	1	0	1	-15,292459	275,985759	313,657432	0
15.01.2021	14:01:53	0	76,335049	2,843835	1,416	358,4196	1,393	84,762	0	1015,2	8,9	10,3	10,1	1	1	1	1	1	1	1	1	1	0	1	-16,772375	275,906962	311,802006	0
15.01.2021	14:01:54	0	76,217912	4,663892	1,31625	333,2412	1,387	84,751	0	1015,22	8,9	10,3	10,1	1	1	1	1	1	1	1	1	1	0	1	-18,322763	276,026925	310,823439	0
15.01.2021	14:01:55	0	76,217852	2,61633	1,2615	336,1284	1,387	84,741	0	1015,2	8,9	10,3	10,1	1	1	1	1	1	1	1	1	1	0	1	-12,966878	275,941396	315,771562	0
15.01.2021	14:01:56	0	76,100715	3,981374	1,24275	351,7884	1,39	84,747	0	1015,18	8,9	10,3	10,1	1	1	1	1	1	1	1	1	1	0	1	-16,560958	275,843175	311,709671	0
15.01.2021	14:01:57	0	75,983578	2,84384	1,3155	338,0544	1,392	84,754	0	1015,24	8,9	10,3	10,1	1	1	1	1	1	1	1	1	1	0	1	-17,89993	275,880768	310,549689	0
15.01.2021	14:01:58	0	76,334753	4,322638	1,4445	343,8648	1,393	84,75	0	1015,26	8,9	10,3	10,1	1	1	1	1	1	1	1	1	1	0	1	-18,957012	275,97918	309,961517	0
15.01.2021	14:01:59	0	75,866383	2,502581	1,54125	339,6168	1,389	84,743	0	1015,26	8,9	10,3	10,1	1	1	1	1	1	1	1	1	1	0	1	-14,728682	275,849707	313,573046	0
15.01.2021	14:02:00	0	76,217497	2,73009	1,7235	345,042	1,387	84,756	0	1015,24	8,9	10,3	10,1	1	1	1	1	1	1	1	1	1	0	1	-12,473573	275,997276	316,531235	0
15.01.2021	14:02:01	0	76,217497	2,73009	1,7235	345,042	1,387	84,756	0	1015,24	8,9	10,3	10,1	1	1	1	1	1	1	1	1	1	0	1	-14,728682	275,975892	314,17417	0
15.01.2021	14:02:02	0	76,100361	4,208891	1,75275	341,6796	1,394	84,757	0	1015,26	8,9	10,3	10,1	1	1	1	1	1	1	1	1	1	0	1	-15,503876	275,880768	312,945743	0
15.01.2021	14:02:03	0	75,749069	2,730092	1,8075	351,396	1,391	84,764	0	1015,18	8,9	10,3	10,1	1	1	1	1	1	1	1	1	1	0	1	-16,842847	275,977536	312,067843	0
15.01.2021	14:02:04	0	75,866088	2,730093	1,7895	346,1112	1,393	84,764	0	1015,32	8,9	10,3	10,1	1	1	1	1	1	1	1	1	1	0	1	-14,799154	276,02198	314,323464	0
15.01.2021	14:02:05	0	76,451415	4,322649	1,8315	359,8596	1,399	84,769	0	1015,24	8,9	10,3	10,1	1	1	1	1	1	1	1	1	1	0	1	-15,574348	276,010448	313,493269	0
15.01.2021	14:02:06	0	75,86597	2,957603	1,93425	2,6388	1,387	84,769	0	1015,22	8,9	10,3	10,1	1	1	1	1	1	1	1	1	1	0	1	-12,614517	276,000568	316,405988	0
15.01.2021	14:02:07	0	76,334219	3,98139	1,84575	330,7392	1,394	84,771	0	1015,26	8,9	10,3	10,1	1	1	1	1	1	1	1	1	1	0	1	-15,64482	275,879132	312,797008	0
15.01.2021	14:02:08	0	75,982929	3,185114	1,716	334,9188	1,393	84,769	0	1015,38	8,9	10,3	10,1	1	1	1	1	1	1	1	1	1	0	1	-18,322763	276,010448	310,744855	0
15.01.2021	14:02:09	0	75,865793	2,50259	1,57875	324,4716	1,398	84,777	0	1015,34	8,9	10,3	10,1	1	1	1	1	1	1	1	1	1	0	1	-14,376321	276,023628	314,754157	0
15.01.2021	14:02:10	0	75,982811	3,640132	1,5255	327,1032	1,395	84,763	0	1015,14	8,9	10,3	10,1	1	1	1	1	1	1	1	1	1	0	1	-16,349542	275,944679	312,404541	0
15.01.2021	14:02:11	0	76,099828	4,777676	1,52775	315,5472	1,392	84,758	0	1015,14	8,9	10,3	10,1	1	1	1	1	1	1	1	1	1	0	1	-15,715292	276,030222	313,446636	0
15.01.2021	14:02:12	0	76,216845	4,891432	1,54575	316,7532	1,39	84,763	0	1015,18	8,9	10,3	10,1	1	1	1	1	1	1	1	1	1	0	1	-13,742072	275,977536	315,168618	0
15.01.2021	14:02:13	0	75,865557	3,185119	1,521	316,638	1,386	84,761	0	1015,1	8,9	10,3	10,1	1	1	1	1	1	1	1	1	1	0	1	-16,560958	275,852974	311,756323	0
15.01.2021	14:02:14	0	76,09965	2,843858	1,446	334,2204	1,394	84,765	0	1015,24	8,9	10,3	10,1	1	1	1	1	1	1	1	1	1	0	1	-18,181818	275,872589	310,228854	0
15.01.2021	14:02:15	0	76,333744	2,957613	1,317	334,5876	1,397	84,759	0	1015,24	8,9	10,3	10,1	1	1	1	1	1	1	1	1	1	0	1	-14,164905	275,848074	314,129047	0
15.01.2021	14:02:16	0	76,333684	4,208913	1,18875	318,4452	1,397	84,77	0	1015,38	8,9	10,3	10,1	1	1	1	1	1	1	1	1	1	0	1	-17,054264	275,944679	311,69982	0
15.01.2021	14:02:17	0	75,86532	3,640142	1,086	329,346	1,392	84,766	0	1015,28	8,9	10,3	10,1	1	1	1	1	1	1	1	1	1	0	1	-17,406624	275,836644	310,832919	0
15.01.2021	14:02:18	0	76,099413	3,412634	1,08975	345,06	1,4	84,758	0	1015,26	8,9	10,3	10,1	1	1	1	1	1	1	1	1	1	0	1	-18,463707	275,920073	310,173131	0
15.01.2021	14:02:19	0	76,21643	4,322672	1,2165	331,506	1,398	84,766	0	1015,08	8,9	10,3	10,1	1	1	1	1	1	1	1	1	1	0	1	-15,433404	276,031871	313,736389	0
15.01.2021	14:02:20	0	76,099295	3,753901	1,30875	327,3912	1,392	84,776	0	1015,26	8,9	10,3	10,1	1	1	1	1	1	1	1	1	1	0	1	-20,366455	275,903686	308,192319	0
15.01.2021	14:02:21	0	76,099235	4,436421	1,40325	331,2072	1,39	84,769	0	1015,34	8,9	10,3	10	1	1	1	1	1	1	1	1	1	0	1	-13,812544	275,862779	314,551419	0
15.01.2021	14:02:22	0	76,216252	5,005205	1,6545	339,5412	1,399	84,747	0	1015,2	8,9	10,3	10,1	1	1	1	1	1	1	1	1	1	0	1	-15,574348	275,992339	313,406919	0
15.01.2021	14:02:23	0	75,864966	2,275094	1,87725	342,4176	1,401	84,752	0	1015,28	8,9	10,3	10,1	1	1	1	1	1	1	1	1	1	0	1	-14,517266	276,017037	314,581776	0
15.01.2021	14:02:24	0	76,099057	3,071378	2,034	345,3804	1,398	84,761	0	1015,16	8,9	10,3	10,1	1	1	1	1	1	1	1	1	1	0	1	-18,111346	275,913517	310,494257	0
15.01.2021	14:02:25	0	75,630696	2,047586	2,04825	323,3592	1,402	84,745	0	1015,26	8,9	10,3	10,1	1	1	1	1	1	1	1	1	1	0	1	-14,376321	275,852974	313,94096	0
15.01.2021	14:02:26	0	76,098938	4,436438	2,055	321,5232	1,397	84,738	0	1015,12	8,9	10,3	10,1	1	1	1	1	1	1	1	1	1	0	1	-20,5074	275,956173	308,30146	0
15.01.2021	14:02:27	0	75,981804	4,66395	2,09175	327,1644	1,397	84,754	0	1015,22	8,9	10,3	10,1	1	1	1	1	1	1	1	1	1	0	1	-15,997181	275,854608	312,327879	0
15.01.2021	14:02:28	0	76,215895	3,981422	2,02575	324,7488	1,399	84,751	0	1015,36	8,9	10,3	10,1	1	1	1	1	1	1	1	1	1	0	1	-15,362932	275,880768	313,086687	0
15.01.2021	14:02:29	0	75,981685	5,232728	1,96875	331,1064	1,399	84,743	0	1015,26	8,9	10,3	10,1	1	1	1	1	1	1	1	1	1	0	1	-14,869626	276,012095	314,205846	0
15.01.2021	14:02:30	0	75,981626	4,663955	1,9065	333,1908	1,4	84,74	0	1015,22	8,9	10,3	10,1	1	1	1	1	1	1	1	1	1	0	1	-16,842847	275,987404	312,114887	0
15.01.2021	14:02:31	0	75,747417	2,616366	1,93575	336,7908	1,402	84,734	0	1015,26	8,9	10,3	10,1	1	1	1	1	1	1	1	1	1	0	1	-19,097956	275,852974	309,219326	0
15.01.2021	14:02:32	0	75,981507	4,777713	1,89225	326,3832	1,397	84,722	0	1015,22	8,9	10,3	10,1	1	1	1	1	1	1	1	1	1	0	1	-14,023961	275,902048	314,527012	0
15.01.2021	14:02:33	0	75,864373	3,526409	1,8075	328,9284	1,392	84,724	0	1015,16	8,9	10,3	10,1	1	1	1	1	1	1	1	1	1	0	1	-16,420014	276,02198	312,702604	0
15.01.2021	14:02:34	0	75,864314	4,095186	1,722	322,6572	1,398	84,72	0	1015,26	8,9	10,3	10,1	1	1	1	1	1	1	1	1	1	0	1	-19,87315	275,961101	308,959196	0
15.01.2021	14:02:35	0	75,74718	4,322698	1,67625	332,3988	1,4	84,721	0	1015,28	8,9	10,3	10,1	1	1	1	1	1	1	1	1	1	0	1	-15,151515	276,036818	314,041876	0
15.01.2021	14:02:36	0	75,98127	2,843881	1,6215	338,3424	1,401	84,71	0	1015,26	8,9	10,3	10,1	1	1	1	1	1	1	1	1	1	0	1	-12,684989	275,920073	315,951849	0
15.01.2021	14:02:37	0	76,098284	3,185148	1,49925	317,7864	1,397	84,701	0	1015,36	8,9	10,3	10,1	1	1	1	1	1	1	1	1	1	0	1	-12,262156	275,841542	316,0007	0
15.01.2021	14:02:38	0	75,981151	4,436458	1,42575	334,2204	1,397	84,706	0	1015,28	8,9	10,3	10,1	1	1	1	1	1	1	1	1	1	0	1	-19,520789	275,933192	309,178557	0
15.01.2021	14:02:39	0	75,629869	3,867683	1,37625	336,4092	1,399	84,679	0	1015,18	8,9	10,3	10,1	1	1	1	1	1	1	1	1	1	0	1	-14,728682	275,849707	313,573046	0
15.01.2021	14:02:40	0	76,21518	4,550217	1,40175	321,9372	1,394	84,69	0	1015,26	8,9	10,3	10,1	1	1	1	1	1	1	1	1	1	0	1	-20,295983	275,903686	308,262791	0
15.01.2021	14:02:41	0	75,746825	3,298909	1,524	337,1616	1,4	84,683	0	1015,28	8,9	10,3	10,1	1	1	1	1	1	1	1	1	1	0	1	-15,715292	276,03352	313,462366	0
15.01.2021	14:02:42	0	76,215061	3,412665	1,55625	328,9752	1,395	84,668	0	1015,28	8,9	10,3	10,1	1	1	1	1	1	1	1	1	1	0	1	-14,940099	275,88404	313,525104	0
15.01.2021	14:02:43	0	75,980853	4,436467	1,578	328,8816	1,397	84,663	0	1015,26	8,9	10,3	10,1	1	1	1	1	1	1	1	1	1	0	1	-18,040874	276,000568	310,979632	0
15.01.2021	14:02:44	0	75,746647	4,208957	1,692	335,3256	1,399	84,673	0	1015,24	8,9	10,3	10,1	1	1	1	1	1	1	1	1	1	0	1	-15,926709	276,007154	313,125201	0
15.01.2021	14:02:45	0	75,863661	3,981447	1,73625	332,046	1,39	84,657	0	1015,26	8,9	10,3	10,1	1	1	1	1	1	1	1	1	1	0	1	-9,866103	276,025277	319,272237	0
15.01.2021	14:02:46	0	76,097748	3,071403	1,78275	332,0604	1,396	84,654	0	1015,28	8,9	10,3	10,1	1	1	1	1	1	1	1	1	1	0	1	-16,067653	275,906962	312,506728	0
15.01.2021	14:02:47	0	76,097689	4,663985	1,899	346,1904	1,398	84,645	0	1015,3	8,9	10,3	10,1	1	1	1	1	1	1	1	1	1	0	1	-18,25229	276,03352	310,925368	0
15.01.2021	14:02:48	0	76,097629	4,436475	2,0325	327,7872	1,392	84,653	0	1015,3	8,9	10,3	10,1	1	1	1	1	1	1	1	1	1	0	1	-18,25229	275,908601	310,329895	0
15.01.2021	14:02:49	0	75,863423	2,843895	1,97775	348,0696	1,393	84,667	0	1015,16	8,9	10,3	10,1	1	1	1	1	1	1	1	1	1	0	1	-17,758985	275,874225	310,659475	0
15.01.2021	14:02:50	0	75,74629	3,981455	1,9455	342,774	1,397	84,654	0	1015,26	8,9	10,3	10,1	1	1	1	1	1	1	1	1	1	0	1	-19,309373	275,90041	309,233798	0
15.01.2021	14:02:51	0	76,214523	4,891504	1,9245	329,7384	1,396	84,641	0	1015,24	8,9	10,3	10,1	1	1	1	1	1	1	1	1	1	0	1	-17,688513	276,045066	311,544225	0
15.01.2021	14:02:52	0	76,09739	3,185166	1,90575	333,9432	1,395	84,643	0	1015,34	8,9	10,3	10,1	1	1	1	1	1	1	1	1	1	0	1	-15,221987	275,96603	313,633854	0
15.01.2021	14:02:53	0	75,863185	2,730144	1,872	342,7776	1,398	84,641	0	1015,28	8,9	10,3	10,1	1	1	1	1	1	1	1	1	1	0	1	-16,983791	275,849707	311,317936	0
15.01.2021	14:02:54	0	75,980198	2,843901	1,83375	334,6344	1,39	84,635	0	1015,28	8,9	10,3	10,1	1	1	1	1	1	1	1	1	1	0	1	-14,235377	275,956173	314,573482	0
15.01.2021	14:02:55	0	76,214284	4,550243	1,88775	340,9272	1,391	84,647	0	1015,18	8,9	10,3	10,1	1	1	1	1	1	1	1	1	1	0	1	-11,557435	275,851341	316,75207	0
15.01.2021	14:02:56	0	76,097151	3,981464	1,989	345,8016	1,395	84,644	0	1015,24	8,9	10,3	10,1	1	1	1	1	1	1	1	1	1	0	1	-17,195208	275,877496	311,23883	0
15.01.2021	14:02:57	0	76,097092	4,777759	2,01525	2,2932	1,395	84,638	0	1015,1	8,9	10,3	10,1	1	1	1	1	1	1	1	1	1	0	1	-13,319239	275,849707	314,982489	0
15.01.2021	14:02:58	0	75,862887	4,550248	1,88175	349,1208	1,391	84,623	0	1015,26	8,9	10,3	10,1	1	1	1	1	1	1	1	1	1	0	1	-18,463707	276,012095	310,611765	0
15.01.2021	14:02:59	0	75,862828	4,095225	1,71225	337,176	1,39	84,626	0	1015,26	8,9	10,3	10,1	1	1	1	1	1	1	1	1	1	0	1	-15,856237	275,902048	312,694736	0
15.01.2021	14:03:00	0	75,979781	4,436497	1,5555	320,0076	1,391	84,617	0	1015,26	8,9	10,3	10,1	1	1	1	1	1	1	1	1	1	0	1	-13,953488	276,040117	315,255639	0
15.01.2021	14:03:01	0	75,979781	4,436497	1,5555	320,0076	1,391	84,617	0	1015,26	8,9	10,3	10,1	1	1	1	1	1	1	1	1	1	0	1	-22,198732	276,028573	306,955333	0
15.01.2021	14:03:02	0	75,979721	2,047615	1,56	324,5076	1,397	84,613	0	1015,34	8,9	10,3	10,1	1	1	1	1	1	1	1	1	1	0	1	-17,688513	276,002215	311,339842	0
15.01.2021	14:03:03	0	76,213805	2,84391	1,61325	324,144	1,392	84,601	0	1015,26	8,9	10,3	10,1	1	1	1	1	1	1	1	1	1	0	1	-18,040874	276,028573	311,113191	0
15.01.2021	14:03:04	0	76,213745	4,208989	1,722	322,6428	1,394	84,599	0	1015,24	8,9	10,3	10,1	1	1	1	1	1	1	1	1	1	0	1	-14,728682	275,96603	314,127159	0
15.01.2021	14:03:05	0	75,979542	4,436504	1,7565	325,0764	1,393	84,603	0	1015,28	8,9	10,3	10,1	1	1	1	1	1	1	1	1	1	0	1	-13,460183	276,030222	315,701745	0
15.01.2021	14:03:06	0	76,096554	5,005288	1,698	324,7776	1,393	84,595	0	1015,2	8,9	10,3	10,1	1	1	1	1	1	1	1	1	1	0	1	-17,195208	275,995631	311,801752	0
15.01.2021	14:03:07	0	75,862351	2,275132	1,6335	332,3844	1,396	84,609	0	1015,22	8,9	10,3	10,1	1	1	1	1	1	1	1	1	1	0	1	-15,221987	275,867684	313,165327	0
15.01.2021	14:03:08	0	76,096434	5,346562	1,6815	316,9008	1,393	84,598	0	1015,28	8,9	10,3	10,1	1	1	1	1	1	1	1	1	1	0	1	-15,010571	276,030222	314,151358	0
15.01.2021	14:03:09	0	76,096374	3,4127	1,80075	338,3748	1,389	84,602	0	1015,26	8,9	10,3	10,1	1	1	1	1	1	1	1	1	1	0	1	-18,393235	275,877496	310,040803	0
15.01.2021	14:03:10	0	76,096314	4,664026	2,046	337,104	1,391	84,589	0	1015,2	8,9	10,3	10,1	1	1	1	1	1	1	1	1	1	0	1	-15,503876	275,893861	313,008098	0
15.01.2021	14:03:11	0	76,096254	3,640216	2,30475	341,6616	1,396	84,594	0	1015,28	8,9	10,3	10,1	1	1	1	1	1	1	1	1	1	0	1	-16,349542	275,851341	311,959962	0
15.01.2021	14:03:12	0	75,744981	2,50265	2,49	332,0928	1,399	84,587	0	1015,2	8,9	10,3	10,1	1	1	1	1	1	1	1	1	1	0	1	-12,262156	275,921712	316,382492	0
15.01.2021	14:03:13	0	76,096134	4,550274	2,54325	337,32	1,396	84,574	0	1015,26	8,9	10,3	10,1	1	1	1	1	1	1	1	1	1	0	1	-14,023961	276,023628	315,106518	0
15.01.2021	14:03:14	0	76,213145	3,071436	2,56125	337,122	1,394	84,58	0	1015,3	8,9	10,3	10,1	1	1	1	1	1	1	1	1	1	0	1	-17,688513	275,980824	311,237855	0
15.01.2021	14:03:15	0	76,213085	4,550277	2,451	337,5036	1,394	84,576	0	1015,24	8,9	10,3	10,1	1	1	1	1	1	1	1	1	1	0	1	-11,909796	275,843175	316,360834	0
15.01.2021	14:03:16	0	75,978884	2,957681	2,37075	335,7072	1,392	84,557	0	1015,22	8,9	10,3	10,1	1	1	1	1	1	1	1	1	1	0	1	-14,376321	275,88404	314,088882	0
15.01.2021	14:03:17	0	75,861753	2,843926	2,268	334,6164	1,391	84,557	0	1015,22	8,9	10,3	10,1	1	1	1	1	1	1	1	1	1	0	1	-15,503876	275,913517	313,101727	0
15.01.2021	14:03:18	0	76,212905	2,616413	2,2005	330,6924	1,394	84,542	0	1015,28	8,9	10,3	10,1	1	1	1	1	1	1	1	1	1	0	1	-15,715292	275,83338	312,508713	0
15.01.2021	14:03:19	0	76,446986	4,32277	2,202	320,8356	1,392	84,546	0	1015,2	8,9	10,3	10,1	1	1	1	1	1	1	1	1	1	0	1	-13,742072	275,911878	314,855724	0
15.01.2021	14:03:20	0	76,095714	3,298957	2,27025	332,784	1,392	84,547	0	1015,18	8,9	10,3	10,1	1	1	1	1	1	1	1	1	1	0	1	-16,701903	275,830116	311,506567	0
15.01.2021	14:03:21	0	76,095654	4,209016	2,32425	332,7732	1,394	84,533	0	1015,26	8,9	10,3	10,1	1	1	1	1	1	1	1	1	1	0	1	-11,768851	275,908601	316,813334	0
15.01.2021	14:03:22	0	75,978524	4,55029	2,32875	329,652	1,394	84,527	0	1015,18	8,9	10,3	10,1	1	1	1	1	1	1	1	1	1	0	1	-17,195208	276,010448	311,87241	0
15.01.2021	14:03:23	0	76,095534	4,550291	2,4285	330,7536	1,386	84,516	0	1015,16	8,9	10,3	10,1	1	1	1	1	1	1	1	1	1	0	1	-18,181818	275,908601	310,400367	0
15.01.2021	14:03:24	0	75,978404	3,298962	2,421	337,59	1,389	84,519	0	1015,36	8,9	10,3	10,1	1	1	1	1	1	1	1	1	1	0	1	-15,433404	276,023628	313,697075	0
15.01.2021	14:03:25	0	75,861275	2,730177	2,3835	333,4392	1,39	84,507	0	1015,28	8,9	10,3	10,1	1	1	1	1	1	1	1	1	1	0	1	-14,799154	275,895498	313,720618	0
15.01.2021	14:03:26	0	76,212424	3,412722	2,412	336,7656	1,394	84,497	0	1015,28	8,9	10,3	10,1	1	1	1	1	1	1	1	1	1	0	1	-15,151515	275,846441	313,134662	0
15.01.2021	14:03:27	0	76,095294	4,777813	2,415	327,924	1,389	84,505	0	1015,2	8,9	10,3	10,1	1	1	1	1	1	1	1	1	1	0	1	-16,701903	275,934833	312,005261	0
15.01.2021	14:03:28	0	76,446443	3,753997	2,493	328,6296	1,389	84,504	0	1015,26	8,9	10,3	10,1	1	1	1	1	1	1	1	1	1	0	1	-13,03735	276,040117	316,171777	0
15.01.2021	14:03:29	0	76,095174	4,095272	2,51925	330,786	1,39	84,496	0	1015,16	8,9	10,3	10,1	1	1	1	1	1	1	1	1	1	0	1	-16,631431	275,921712	312,013218	0
15.01.2021	14:03:30	0	76,329253	4,777819	2,44275	333,1368	1,387	84,498	0	1015,22	8,9	10,3	10,1	1	1	1	1	1	1	1	1	1	0	1	-17,970402	276,026925	311,1758	0
15.01.2021	14:03:31	0	75,743846	2,502668	2,2935	343,1304	1,386	84,482	0	1015,24	8,9	10,3	10,1	1	1	1	1	1	1	1	1	1	0	1	-14,446794	275,944679	314,30729	0
15.01.2021	14:03:32	0	76,212063	4,095276	2,30325	347,5656	1,387	84,472	0	1014,98	8,9	10,3	10,1	1	1	1	1	1	1	1	1	1	0	1	-17,688513	276,020333	311,426245	0
15.01.2021	14:03:33	0	76,329072	3,412731	2,32575	359,8452	1,392	84,483	0	1015,24	8,9	10,3	10,1	1	1	1	1	1	1	1	1	1	0	1	-15,010571	275,88895	313,478014	0
15.01.2021	14:03:34	0	76,094873	3,640248	2,235	338,4468	1,387	84,467	0	1015,26	8,9	10,3	10,1	1	1	1	1	1	1	1	1	1	0	1	-18,604651	275,821958	309,564995	0
15.01.2021	14:03:35	0	76,211882	2,843945	2,001	355,518	1,385	84,47	0	1015,12	8,9	10,3	10,1	1	1	1	1	1	1	1	1	1	0	1	-16,560958	275,893861	311,951016	0
15.01.2021	14:03:36	0	75,860615	3,18522	1,7535	356,8464	1,389	84,462	0	1015,24	8,9	10,3	10,1	1	1	1	1	1	1	1	1	1	0	1	-13,107822	275,848074	315,18613	0
15.01.2021	14:03:37	0	76,445899	4,664074	1,7055	326,3328	1,384	84,469	0	1015,26	8,9	10,3	10,1	1	1	1	1	1	1	1	1	1	0	1	-15,715292	275,985759	313,234599	0
15.01.2021	14:03:38	0	76,32877	2,616432	1,761	327,1284	1,382	84,466	0	1015,18	8,9	10,3	10,1	1	1	1	1	1	1	1	1	1	0	1	-18,675123	275,83338	309,548882	0
15.01.2021	14:03:39	0	76,211641	4,095279	1,97775	337,2336	1,385	84,46	0	1015,22	8,9	10,3	10	1	1	1	1	1	1	1	1	1	0	1	-15,715292	275,972604	313,171886	0
15.01.2021	14:03:40	0	75,860375	2,616434	2,13675	321,876	1,386	84,455	0	1015,2	8,9	10,3	10,1	1	1	1	1	1	1	1	1	1	0	1	-18,604651	275,846441	309,681526	0
15.01.2021	14:03:41	0	75,977383	3,981532	2,343	333,1584	1,383	84,45	0	1015,16	8,9	10,3	10,1	1	1	1	1	1	1	1	1	1	0	1	-15,433404	275,839909	312,821681	0
15.01.2021	14:03:42	0	76,445596	3,640259	2,499	324,7956	1,385	84,458	0	1015,28	8,9	10,3	10,1	1	1	1	1	1	1	1	1	1	0	1	-15,574348	275,975892	313,328504	0
15.01.2021	14:03:43	0	76,328468	4,664084	2,532	322,2432	1,381	84,452	0	1015,34	8,9	10,3	10,1	1	1	1	1	1	1	1	1	1	0	1	-16,349542	275,998922	312,663114	0
15.01.2021	14:03:44	0	76,211339	4,550328	2,4315	320,7852	1,374	84,458	0	1015,2	8,9	10,3	10,1	1	1	1	1	1	1	1	1	1	0	1	-17,195208	275,835012	311,036566	0
15.01.2021	14:03:45	0	75,860075	2,730198	2,376	334,2168	1,389	84,458	0	1015,44	8,8	10,3	10,1	1	1	1	1	1	1	1	1	1	0	1	-12,825934	275,828484	315,37477	0
15.01.2021	14:03:46	0	76,09415	3,185232	2,37825	325,458	1,376	84,449	0	1015,28	8,9	10,3	10,1	1	1	1	1	1	1	1	1	1	0	1	-17,336152	275,929912	311,347562	0
15.01.2021	14:03:47	0	75,859954	2,04765	2,43225	327,7872	1,377	84,455	0	1015,16	8,9	10,3	10,1	1	1	1	1	1	1	1	1	1	0	1	-13,460183	276,013742	315,623145	0
15.01.2021	14:03:48	0	76,328165	4,777851	2,40675	327,456	1,382	84,468	0	1015,08	8,9	10,3	10,1	1	1	1	1	1	1	1	1	1	0	1	-11,557435	275,877496	316,876603	0
15.01.2021	14:03:49	0	75,976902	4,891612	2,43525	328,5252	1,373	84,453	0	1015,14	8,9	10,3	10,1	1	1	1	1	1	1	1	1	1	0	1	-15,151515	276,01539	313,939669	0
15.01.2021	14:03:50	0	76,210977	4,664097	2,4675	327,9276	1,381	84,453	0	1015,14	8,9	10,3	10,1	1	1	1	1	1	1	1	1	1	0	1	-16,772375	275,95453	312,028657	0
15.01.2021	14:03:51	0	75,976781	2,843962	2,418	328,1616	1,377	84,45	0	1015,3	8,9	10,3	10,1	1	1	1	1	1	1	1	1	1	0	1	-18,534179	275,825221	309,650995	0
15.01.2021	14:03:52	0	76,210856	2,502688	2,3865	322,5816	1,378	84,458	0	1015,22	8,9	10,3	10,1	1	1	1	1	1	1	1	1	1	0	1	-12,544045	275,977536	316,366645	0
15.01.2021	14:03:53	0	76,093728	4,664102	2,36175	321,8544	1,374	84,452	0	1015,16	8,9	10,3	10,1	1	1	1	1	1	1	1	1	1	0	1	-16,349542	276,010448	312,718076	0
15.01.2021	14:03:54	0	76,444869	3,981552	2,34	320,0076	1,373	84,454	0	1015,3	8,9	10,3	10,1	1	1	1	1	1	1	1	1	1	0	1	-17,618041	275,951246	311,167338	0
15.01.2021	14:03:55	0	76,210674	4,664106	2,34075	333,1836	1,383	84,436	0	1015,44	8,9	10,3	10,1	1	1	1	1	1	1	1	1	1	0	1	-19,87315	275,993985	309,115963	0
15.01.2021	14:03:56	0	76,210614	3,981555	2,33925	327,7872	1,376	84,437	0	1015,22	8,9	10,3	10,1	1	1	1	1	1	1	1	1	1	0	1	-12,403101	275,83338	315,820904	0
15.01.2021	14:03:57	0	76,210553	4,891627	2,2815	318,438	1,374	84,431	0	1015,2	8,9	10,3	10,1	1	1	1	1	1	1	1	1	1	0	1	-18,322763	275,87586	310,103486	0
15.01.2021	14:03:58	0	76,210493	4,436593	2,27025	326,394	1,378	84,441	0	1015,24	8,9	10,3	10,1	1	1	1	1	1	1	1	1	1	0	1	-15,010571	276,003861	314,025635	0
15.01.2021	14:03:59	0	76,327499	3,526524	2,2155	323,6724	1,378	84,42	0	1015,24	8,9	10,3	10,1	1	1	1	1	1	1	1	1	1	0	1	-15,221987	275,874225	313,196473	0
15.01.2021	14:04:00	0	76,093245	4,436599	2,565	324,4248	1,378	84,425	0	1015,32	8,9	10,3	10,1	1	1	1	1	1	1	1	1	1	0	1	-19,943622	275,820327	308,218262	0
15.01.2021	14:04:01	0	76,093245	4,436599	2,565	324,4248	1,378	84,425	0	1015,32	8,9	10,3	10,1	1	1	1	1	1	1	1	1	1	0	1	-18,604651	275,887313	309,876139	0
15.01.2021	14:04:02	0	75,859051	3,29901	2,775	319,2048	1,376	84,415	0	1015,24	8,9	10,3	10,1	1	1	1	1	1	1	1	1	1	0	1	-16,490486	275,815435	311,648115	0
15.01.2021	14:04:03	0	76,327256	2,730217	3,081	322,9956	1,378	84,429	0	1015,24	8,9	10,3	10,1	1	1	1	1	1	1	1	1	1	0	1	-16,631431	275,956173	312,177429	0
15.01.2021	14:04:04	0	76,327196	2,957736	3,186	317,4408	1,38	84,415	0	1015,28	8,9	10,3	10,1	1	1	1	1	1	1	1	1	1	0	1	-16,983791	275,989049	311,981787	0
15.01.2021	14:04:05	0	76,093003	3,185255	3,06225	315,5292	1,378	84,409	0	1015,3	8,9	10,3	10,1	1	1	1	1	1	1	1	1	1	0	1	-13,812544	275,97918	315,105985	0
15.01.2021	14:04:06	0	76,210008	3,526534	3,09075	311,0292	1,378	84,393	0	1015,28	8,9	10,3	10,1	1	1	1	1	1	1	1	1	1	0	1	-16,772375	276,01539	312,318809	0
15.01.2021	14:04:07	0	76,209947	2,616462	3,05475	312,5196	1,374	84,382	0	1015,24	8,9	10,3	10,1	1	1	1	1	1	1	1	1	1	0	1	-13,812544	275,990694	315,160878	0
15.01.2021	14:04:08	0	76,561084	3,299018	2,94825	314,8956	1,369	84,386	0	1015,22	8,9	10,3	10,1	1	1	1	1	1	1	1	1	1	0	1	-18,040874	275,967673	310,8228	0
15.01.2021	14:04:09	0	76,678089	4,436612	2,88075	315,1872	1,373	84,4	0	1015,38	8,9	10,3	10,1	1	1	1	1	1	1	1	1	1	0	1	-14,517266	276,002215	314,51109	0
15.01.2021	14:04:10	0	76,326831	4,322855	2,8635	315,1008	1,368	84,37	0	1015,1	8,9	10,3	10,1	1	1	1	1	1	1	1	1	1	0	1	-14,940099	275,938114	313,782702	0
15.01.2021	14:04:11	0	76,32677	4,664134	2,77425	315,9072	1,373	84,362	0	1015,26	8,9	10,3	10,1	1	1	1	1	1	1	1	1	1	0	1	-12,191684	275,835012	316,04009	0
15.01.2021	14:04:12	0	76,560841	4,095339	2,6955	312,8112	1,372	84,353	0	1015,28	8,9	10,3	10,1	1	1	1	1	1	1	1	1	1	0	1	-13,953488	275,910239	314,636502	0
15.01.2021	14:04:13	0	75,975453	2,616468	2,6295	316,2132	1,372	84,357	0	1015,32	8,9	10,3	10,1	1	1	1	1	1	1	1	1	1	0	1	-20,155039	275,990694	308,818384	0
15.01.2021	14:04:14	0	76,560719	3,185266	2,59575	315,5832	1,367	84,346	0	1015,26	8,9	10,3	10,1	1	1	1	1	1	1	1	1	1	0	1	-17,829457	275,974248	311,065558	0
15.01.2021	14:04:15	0	76,326527	4,436622	2,6325	318,5028	1,368	84,33	0	1015,08	8,9	10,3	10,1	1	1	1	1	1	1	1	1	1	0	1	-18,040874	275,97918	310,877655	0
15.01.2021	14:04:16	0	76,443532	3,412788	2,65275	316,2636	1,373	84,326	0	1015,2	8,9	10,3	10,1	1	1	1	1	1	1	1	1	1	0	1	-16,842847	275,949604	311,934707	0
15.01.2021	14:04:17	0	76,092275	4,322866	2,565	319,2408	1,374	84,328	0	1015,1	8,9	10,3	10,1	1	1	1	1	1	1	1	1	1	0	1	-14,376321	275,998922	314,636335	0
15.01.2021	14:04:18	0	76,20928	3,185271	2,532	317,6856	1,368	84,309	0	1015,12	8,9	10,3	10,1	1	1	1	1	1	1	1	1	1	0	1	-18,957012	275,854608	309,368048	0
15.01.2021	14:04:19	0	76,092154	3,526551	2,5245	314,8992	1,371	84,317	0	1015,32	8,9	10,3	10,1	1	1	1	1	1	1	1	1	1	0	1	-14,305849	275,810544	313,809477	0
15.01.2021	14:04:20	0	76,677417	4,66415	2,511	312,1344	1,369	84,313	0	1015,08	8,9	10,3	10,1	1	1	1	1	1	1	1	1	1	0	1	-11,627907	275,867684	316,759407	0
15.01.2021	14:04:21	0	76,209097	3,071515	2,46225	313,2468	1,367	84,298	0	1015,28	8,9	10,3	10,1	1	1	1	1	1	1	1	1	1	0	1	-15,715292	276,012095	313,36018	0
15.01.2021	14:04:22	0	76,56023	2,843996	2,4255	311,7312	1,37	84,31	0	1015,38	8,9	10,3	10,1	1	1	1	1	1	1	1	1	1	0	1	-17,26568	275,870954	311,137205	0
15.01.2021	14:04:23	0	76,911363	4,664156	2,3835	312,1884	1,376	84,304	0	1015,24	8,9	10,3	10,1	1	1	1	1	1	1	1	1	1	0	1	-11,698379	275,841542	316,564477	0
15.01.2021	14:04:24	0	76,443044	2,843999	2,29725	313,2864	1,368	84,313	0	1015,26	8,8	10,3	10,1	1	1	1	1	1	1	1	1	1	0	1	-14,728682	275,807284	313,371131	0
15.01.2021	14:04:25	0	76,560047	4,436639	2,2035	318,4416	1,369	84,292	0	1015,28	8,9	10,3	10,1	1	1	1	1	1	1	1	1	1	0	1	-14,235377	275,957815	314,581311	0
15.01.2021	14:04:26	0	76,67705	4,777921	2,241	315,8892	1,36	84,28	0	1015,28	8,9	10,3	10,1	1	1	1	1	1	1	1	1	1	0	1	-17,406624	275,928272	311,269276	0
15.01.2021	14:04:27	0	76,559925	4,664163	2,127	316,314	1,36	84,283	0	1015,34	8,9	10,3	10,1	1	1	1	1	1	1	1	1	1	0	1	-15,997181	275,813804	312,133661	0
15.01.2021	14:04:28	0	76,325736	2,616483	2,13675	319,266	1,364	84,289	0	1015,24	8,9	10,3	10,1	1	1	1	1	1	1	1	1	1	0	1	-14,235377	275,856242	314,097462	0
15.01.2021	14:04:29	0	76,676866	3,754078	2,17725	331,146	1,361	84,278	0	1015,36	8,9	10,3	10	1	1	1	1	1	1	1	1	1	0	1	-14,235377	275,990694	314,738045	0
15.01.2021	14:04:30	0	76,325614	2,844005	2,1015	322,9632	1,366	84,259	0	1015,18	8,9	10,3	10,1	1	1	1	1	1	1	1	1	1	0	1	-15,081043	275,895498	313,438729	0
15.01.2021	14:04:31	0	76,091425	2,388965	2,097	335,2968	1,36	84,253	0	1015,28	8,9	10,3	10,1	1	1	1	1	1	1	1	1	1	0	1	-19,591261	275,804024	308,493042	0
15.01.2021	14:04:32	0	76,442555	4,550412	1,96725	332,7876	1,36	84,228	0	1015,18	9	10,3	10,1	1	1	1	1	1	1	1	1	1	0	1	-13,812544	275,882404	314,644866	0
15.01.2021	14:04:33	0	76,208367	3,41281	1,87575	335,3688	1,357	84,225	0	1015,16	8,9	10,3	10,1	1	1	1	1	1	1	1	1	1	0	1	-16,560958	275,947962	312,208771	0
15.01.2021	14:04:34	0	76,442433	5,232978	1,79775	339,174	1,364	84,231	0	1015,22	8,9	10,3	10,1	1	1	1	1	1	1	1	1	1	0	1	-17,336152	275,992339	311,645115	0
15.01.2021	14:04:35	0	76,208245	3,071531	1,76475	333,5112	1,364	84,223	0	1015,22	8,9	10,3	10,1	1	1	1	1	1	1	1	1	1	0	1	-22,973925	275,800765	305,094871	0
15.01.2021	14:04:36	0	76,559374	4,664179	1,8075	325,9872	1,355	84,218	0	1015,24	8,9	10,3	10,1	1	1	1	1	1	1	1	1	1	0	1	-13,883016	275,928272	314,792884	0
15.01.2021	14:04:37	0	76,208123	3,412809	1,90275	336,4452	1,359	84,196	0	1015,32	8,9	10,3	10	1	1	1	1	1	1	1	1	1	0	1	-15,785765	275,975892	313,117087	0
15.01.2021	14:04:38	0	76,676315	4,209132	1,89525	336,3336	1,359	84,208	0	1015,32	9	10,3	10	1	1	1	1	1	1	1	1	1	0	1	-13,6716	275,846441	314,614577	0
15.01.2021	14:04:39	0	76,325064	2,844009	1,80675	330,3036	1,351	84,181	0	1015,16	8,9	10,3	10	1	1	1	1	1	1	1	1	1	0	1	-12,332629	275,795878	315,712914	0
15.01.2021	14:04:40	0	76,442066	4,550417	1,677	346,1328	1,355	84,185	0	1015,28	8,9	10,3	10	1	1	1	1	1	1	1	1	1	0	1	-12,403101	275,947962	316,366629	0
15.01.2021	14:04:41	0	76,442005	3,071539	1,50675	351,0432	1,355	84,173	0	1015,18	8,9	10,3	10,1	1	1	1	1	1	1	1	1	1	0	1	-15,221987	275,799136	312,839057	0
15.01.2021	14:04:42	0	76,676069	2,161454	1,4445	340,9344	1,355	84,182	0	1015,24	8,9	10,3	10,1	1	1	1	1	1	1	1	1	1	0	1	-17,688513	275,802395	310,388037	0
15.01.2021	14:04:43	0	76,32482	2,502737	1,4475	332,4276	1,348	84,166	0	1015,2	8,8	10,3	10,1	1	1	1	1	1	1	1	1	1	0	1	-16,560958	275,813804	311,569884	0
15.01.2021	14:04:44	0	76,324759	2,73026	1,515	313,5564	1,348	84,139	0	1015,24	8,9	10,3	10,1	1	1	1	1	1	1	1	1	1	0	1	-15,574348	275,97096	313,304995	0
15.01.2021	14:04:45	0	76,558822	4,209152	1,47375	333,4788	1,347	84,135	0	1015,22	9	10,3	10,1	1	1	1	1	1	1	1	1	1	0	1	-13,530655	275,911878	315,067141	0
15.01.2021	14:04:46	0	76,441699	3,75411	1,50675	337,1796	1,349	84,12	0	1015,42	8,9	10,3	10,1	1	1	1	1	1	1	1	1	1	0	1	-17,26568	275,969316	311,605828	0
15.01.2021	14:04:47	0	76,5587	2,844024	1,809	336,096	1,348	84,117	0	1015,26	8,8	10,3	10,1	1	1	1	1	1	1	1	1	1	0	1	-16,913319	275,797507	311,139974	0
15.01.2021	14:04:48	0	76,6757	4,095388	2,05425	333,5004	1,348	84,107	0	1015,34	8,9	10,3	10	1	1	1	1	1	1	1	1	1	0	1	-16,138125	275,944679	312,615958	0
15.01.2021	14:04:49	0	76,675639	4,436681	2,12475	328,9104	1,348	84,119	0	1015,18	8,9	10,3	10,1	1	1	1	1	1	1	1	1	1	0	1	-17,829457	275,961101	311,002889	0
15.01.2021	14:04:50	0	76,558515	3,299071	2,22825	334,2492	1,35	84,108	0	1015,16	9	10,3	10,1	1	1	1	1	1	1	1	1	1	0	1	-16,490486	275,943038	312,255775	0
15.01.2021	14:04:51	0	76,792578	3,98164	2,2785	342,3204	1,344	84,123	0	1015,26	9	10,3	10,1	1	1	1	1	1	1	1	1	1	0	1	-15,785765	275,96603	313,070077	0
15.01.2021	14:04:52	0	76,792516	4,209163	2,241	339,1452	1,345	84,106	0	1015,18	9	10,3	10,1	1	1	1	1	1	1	1	1	1	0	1	-15,856237	275,817066	312,290125	0
15.01.2021	14:04:53	0	76,675393	3,867881	2,20125	327,8736	1,339	84,115	0	1015,2	8,8	10,3	10,1	1	1	1	1	1	1	1	1	1	0	1	-14,023961	275,929912	314,659754	0
15.01.2021	14:04:54	0	76,675331	4,664202	2,24175	329,3028	1,339	84,144	0	1015,32	8,9	10,3	10	1	1	1	1	1	1	1	1	1	0	1	-15,64482	275,782851	312,338746	0
15.01.2021	14:04:55	0	76,67527	3,981646	2,19525	326,0484	1,342	84,139	0	1015,22	8,8	10,3	10,1	1	1	1	1	1	1	1	1	1	0	1	-20,718816	275,903686	307,839958	0
15.01.2021	14:04:56	0	76,79227	4,891738	2,07225	307,6848	1,34	84,13	0	1015,34	8,9	10,3	10,1	1	1	1	1	1	1	1	1	1	0	1	-24,453841	275,946321	304,308065	0
15.01.2021	14:04:57	0	76,675147	4,322933	1,96875	320,4324	1,345	84,136	0	1015,28	8,8	10,3	10,1	1	1	1	1	1	1	1	1	1	0	1	-17,26568	275,936474	311,449302	0
15.01.2021	14:04:58	0	76,440963	3,18532	1,76175	304,2252	1,343	84,17	0	1015,28	8,9	10,3	10,1	1	1	1	1	1	1	1	1	1	0	1	-12,473573	275,952888	316,319632	0
15.01.2021	14:04:59	0	76,675023	4,664221	1,5585	310,644	1,339	84,156	0	1015,28	8,8	10,3	10,1	1	1	1	1	1	1	1	1	1	0	1	-19,238901	275,911878	309,358896	0
15.01.2021	14:05:00	0	76,6749	3,071562	1,4265	315,1296	1,336	84,171	0	1015,2	9	10,3	10,1	1	1	1	1	1	1	1	1	1	0	1	-18,88654	275,779595	309,08154	0
15.01.2021	14:05:01	0	76,6749	3,071562	1,4265	315,1296	1,336	84,171	0	1015,2	9	10,3	10,1	1	1	1	1	1	1	1	1	1	0	1	-14,305849	275,959458	314,518667	0
15.01.2021	14:05:02	0	76,90896	4,664226	1,52775	291,4992	1,344	84,19	0	1015,22	8,8	10,3	10,1	1	1	1	1	1	1	1	1	1	0	1	-22,057787	275,892224	306,44639	0
15.01.2021	14:05:03	0	76,791838	4,664228	1,662	287,0424	1,341	84,185	0	1015,22	8,8	10,3	10,1	1	1	1	1	1	1	1	1	1	0	1	-19,097956	275,969316	309,773552	0
15.01.2021	14:05:04	0	76,908837	4,550468	1,78725	306,7344	1,337	84,175	0	1015,16	8,8	10,3	10,1	1	1	1	1	1	1	1	1	1	0	1	-15,362932	275,959458	313,461585	0
15.01.2021	14:05:05	0	76,791714	4,209185	1,87725	315,9072	1,338	84,189	0	1015,18	8,8	10,3	10,1	1	1	1	1	1	1	1	1	1	0	1	-15,715292	275,956173	313,093567	0
15.01.2021	14:05:06	0	76,440471	2,502754	1,96725	297,3024	1,345	84,199	0	1015,2	8,8	10,3	10	1	1	1	1	1	1	1	1	1	0	1	-15,785765	275,975892	313,117087	0
15.01.2021	14:05:07	0	76,908651	4,777997	2,02725	301,6656	1,34	84,191	0	1015,14	8,8	10,3	10,1	1	1	1	1	1	1	1	1	1	0	1	-13,883016	275,88404	314,582187	0
15.01.2021	14:05:08	0	76,674469	2,616518	2,03775	295,5528	1,336	84,213	0	1015,18	8,9	10,3	10	1	1	1	1	1	1	1	1	1	0	1	-16,208598	275,944679	312,545486	0
15.01.2021	14:05:09	0	77,142647	4,436706	2,01	308,1168	1,339	84,225	0	1015,38	8,8	10,3	10	1	1	1	1	1	1	1	1	1	0	1	-17,758985	275,964386	311,089024	0
15.01.2021	14:05:10	0	76,674345	2,730282	1,94925	327,7764	1,334	84,204	0	1015,2	8,8	10,3	10	1	1	1	1	1	1	1	1	1	0	1	-14,65821	275,902048	313,892762	0
15.01.2021	14:05:11	0	76,908403	4,322956	1,827	315,27	1,342	84,205	0	1015,18	8,8	10,3	10,1	1	1	1	1	1	1	1	1	1	0	1	-18,534179	275,938114	310,188621	0
15.01.2021	14:05:12	0	76,557162	3,86791	1,89525	316,6272	1,333	84,21	0	1015,2	8,8	10,3	10,1	1	1	1	1	1	1	1	1	1	0	1	-16,349542	275,905324	312,217035	0
15.01.2021	14:05:13	0	76,790682	4,436722	1,98825	315,8712	1,337	84,2	0	1015,2	9	10,2	10,1	1	1	1	1	1	1	1	1	1	0	1	-15,151515	275,939755	313,579105	0
15.01.2021	14:05:14	0	76,908217	4,436724	2,00175	320,0508	1,338	84,207	0	1015,2	8,8	10,3	10,1	1	1	1	1	1	1	1	1	1	0	1	-14,376321	275,825221	313,808852	0
15.01.2021	14:05:15	0	76,674036	4,322955	2,0745	309,9708	1,338	84,234	0	1015,06	8,8	10,3	10	1	1	1	1	1	1	1	1	1	0	1	-22,339676	275,951246	306,445703	0
15.01.2021	14:05:16	0	77,025153	4,55048	2,13375	311,4036	1,338	84,203	0	1015,24	8,8	10,3	10	1	1	1	1	1	1	1	1	1	0	1	-13,6716	275,892224	314,832577	0
15.01.2021	14:05:17	0	76,907493	4,550482	2,1315	311,0148	1,333	84,202	0	1015,22	9	10,2	10	1	1	1	1	1	1	1	1	1	0	1	-17,89993	275,758448	309,967567	0
15.01.2021	14:05:18	0	77,142088	4,778008	2,0985	310,356	1,334	84,2	0	1015,22	8,8	10,3	10	1	1	1	1	1	1	1	1	1	0	1	-19,661734	275,828484	308,53897	0
15.01.2021	14:05:19	0	76,673789	4,436723	2,157	307,1232	1,336	84,198	0	1015,2	8,8	10,3	10	1	1	1	1	1	1	1	1	1	0	1	-16,208598	275,766579	311,697569	0
15.01.2021	14:05:20	0	77,024365	3,526628	2,21925	317,736	1,336	84,187	0	1015,24	8,8	10,2	10	1	1	1	1	1	1	1	1	1	0	1	-17,406624	275,835012	310,82515	0
15.01.2021	14:05:21	0	76,556606	2,730293	2,157	319,1868	1,331	84,176	0	1015,18	9	10,3	10	1	1	1	1	1	1	1	1	1	0	1	-14,094433	275,760074	313,780796	0
15.01.2021	14:05:22	0	77,024241	3,412868	2,124	313,2072	1,336	84,162	0	1015,28	8,8	10,2	10	1	1	1	1	1	1	1	1	1	0	1	-16,067653	275,830116	312,140817	0
15.01.2021	14:05:23	0	76,556483	2,730296	2,1375	322,1388	1,333	84,145	0	1015,28	8,8	10,3	10	1	1	1	1	1	1	1	1	1	0	1	-19,943622	275,944679	308,810461	0
15.01.2021	14:05:24	0	76,556421	2,844059	2,0985	318,708	1,332	84,117	0	1015,22	8,8	10,3	10	1	1	1	1	1	1	1	1	1	0	1	-15,221987	275,821958	312,947659	0
15.01.2021	14:05:25	0	76,907535	4,095447	2,01825	306,8244	1,327	84,085	0	1015,2	9	10,3	10	1	1	1	1	1	1	1	1	1	0	1	-18,322763	275,947962	310,446967	0
15.01.2021	14:05:26	0	77,258649	4,778023	2,0865	305,3592	1,326	84,086	0	1015,24	9	10,3	10	1	1	1	1	1	1	1	1	1	0	1	-15,292459	275,90041	313,250712	0
15.01.2021	14:05:27	0	77,141528	3,981687	2,08425	324,4104	1,329	84,055	0	1015,18	8,8	10,3	10	1	1	1	1	1	1	1	1	1	0	1	-16,560958	275,931552	312,130572	0
15.01.2021	14:05:28	0	77,024407	3,640401	2,17275	309,1932	1,32	84,026	0	1015,18	8,8	10,3	10	1	1	1	1	1	1	1	1	1	0	1	-16,560958	275,817066	311,585403	0
15.01.2021	14:05:29	0	76,790228	3,185352	2,25225	325,1844	1,326	84,01	0	1015,24	8,8	10,3	10	1	1	1	1	1	1	1	1	1	0	1	-20,85976	275,768205	307,054143	0
15.01.2021	14:05:30	0	76,906686	4,095455	2,39025	316,1952	1,323	84,002	0	1015,22	9	10,2	10	1	1	1	1	1	1	1	1	1	0	1	-17,970402	275,885677	310,502594	0
15.01.2021	14:05:31	0	76,555988	2,844067	2,3715	325,9512	1,325	83,99	0	1015,18	8,8	10,3	10	1	1	1	1	1	1	1	1	1	0	1	-16,490486	275,756822	311,369278	0
15.01.2021	14:05:32	0	77,258274	4,20922	2,34375	324,0864	1,318	83,978	0	1015,36	8,8	10,3	10	1	1	1	1	1	1	1	1	1	0	1	-15,151515	275,804024	312,932788	0
15.01.2021	14:05:33	0	76,907038	4,778036	2,3355	322,7148	1,324	83,972	0	1015,18	9	10,3	10	1	1	1	1	1	1	1	1	1	0	1	-12,614517	275,929912	316,069197	0
15.01.2021	14:05:34	0	77,024034	2,616545	2,27475	321,1812	1,321	83,971	0	1015,28	8,8	10,3	10	1	1	1	1	1	1	1	1	1	0	1	-14,517266	275,784478	313,474045	0
15.01.2021	14:05:35	0	77,258087	4,322988	2,2155	321,4836	1,32	83,971	0	1015,28	8,8	10,3	10	1	1	1	1	1	1	1	1	1	0	1	-17,195208	275,870954	311,207678	0
15.01.2021	14:05:36	0	77,023909	3,299124	2,15925	321,2064	1,314	83,964	0	1015,2	8,8	10,3	10	1	1	1	1	1	1	1	1	1	0	1	-16,27907	275,768205	311,634833	0
15.01.2021	14:05:37	0	77,257421	4,095466	2,133	320,7708	1,313	83,959	0	1015,02	8,8	10,2	10	1	1	1	1	1	1	1	1	1	0	1	-19,238901	275,789363	308,775648	0
15.01.2021	14:05:38	0	77,023245	4,778045	2,1345	319,2444	1,32	83,982	0	1015,26	9	10,2	10	1	1	1	1	1	1	1	1	1	0	1	-17,618041	275,905324	310,948536	0
15.01.2021	14:05:39	0	76,672013	2,61655	2,13525	318,78	1,319	83,984	0	1015,3	8,8	10,2	10	1	1	1	1	1	1	1	1	1	0	1	-16,842847	275,753571	311,001456	0
15.01.2021	14:05:40	0	77,140177	2,730314	2,09925	320,3856	1,31	83,992	0	1015,36	8,8	10,2	10	1	1	1	1	1	1	1	1	1	0	1	-18,675123	275,895498	309,844649	0
15.01.2021	14:05:41	0	77,023058	4,436762	2,067	318,7584	1,315	83,997	0	1015,28	8,8	10,2	10	1	1	1	1	1	1	1	1	1	0	1	-14,446794	275,908601	314,135392	0
15.01.2021	14:05:42	0	77,140052	3,640421	1,97175	321,8688	1,315	83,995	0	1015,24	8,8	10,2	10	1	1	1	1	1	1	1	1	1	0	1	-14,517266	275,789363	313,497283	0
15.01.2021	14:05:43	0	77,257587	3,071607	1,84725	320,3676	1,308	84,004	0	1015,14	8,8	10,3	10	1	1	1	1	1	1	1	1	1	0	1	-15,081043	275,769832	312,840597	0
15.01.2021	14:05:44	0	76,671703	2,730318	1,71075	309,8736	1,31	84,007	0	1015,34	8,8	10,2	10	1	1	1	1	1	1	1	1	1	0	1	-17,124736	275,781223	310,851087	0
15.01.2021	14:05:45	0	76,905752	2,730319	1,674	316,566	1,31	84,009	0	1015,18	8,8	10,2	10	1	1	1	1	1	1	1	1	1	0	1	-15,151515	275,929912	313,5322	0
15.01.2021	14:05:46	0	77,256858	3,07161	1,76625	322,2756	1,306	84,011	0	1015,38	8,8	10,2	10	1	1	1	1	1	1	1	1	1	0	1	-15,151515	275,874225	313,266945	0
15.01.2021	14:05:47	0	77,023223	3,185375	1,87125	314,0604	1,306	84	0	1015,24	8,8	10,3	10	1	1	1	1	1	1	1	1	1	0	1	-17,970402	275,753571	309,873902	0
15.01.2021	14:05:48	0	77,022621	4,209247	1,956	317,8116	1,306	84,001	0	1015,2	8,8	10,2	10	1	1	1	1	1	1	1	1	1	0	1	-17,195208	275,90041	311,347963	0
15.01.2021	14:05:49	0	77,140155	4,436775	2,04825	320,7348	1,303	83,994	0	1015,18	8,8	10,3	10	1	1	1	1	1	1	1	1	1	0	1	-15,362932	275,766579	312,543235	0
15.01.2021	14:05:50	0	77,022496	3,185378	2,0565	317,7864	1,299	83,996	0	1015,22	8,8	10,2	10	1	1	1	1	1	1	1	1	1	0	1	-16,983791	275,902048	311,567181	0
15.01.2021	14:05:51	0	76,905378	3,52667	2,03925	322,992	1,296	83,986	0	1015,16	8,8	10,2	10	1	1	1	1	1	1	1	1	1	0	1	-15,151515	275,77634	312,801082	0
15.01.2021	14:05:52	0	77,139426	3,867963	1,956	320,0976	1,305	83,994	0	1015,24	8,8	10,2	10	1	1	1	1	1	1	1	1	1	0	1	-14,940099	275,874225	313,478361	0
15.01.2021	14:05:53	0	76,905254	2,957855	1,92225	318,42	1,304	83,984	0	1015,14	8,8	10,2	10	1	1	1	1	1	1	1	1	1	0	1	-13,107822	275,908601	315,474363	0
15.01.2021	14:05:54	0	77,256356	3,981729	1,84425	316,2564	1,304	83,978	0	1015,24	8,8	10,2	10	1	1	1	1	1	1	1	1	1	0	1	-15,856237	275,864414	312,515509	0
15.01.2021	14:05:55	0	77,490404	4,778077	1,80075	314,4312	1,292	83,978	0	1015,18	8,8	10,2	10	1	1	1	1	1	1	1	1	1	0	1	-16,27907	275,910239	312,310921	0
15.01.2021	14:05:56	0	76,905066	2,957858	1,77	315,198	1,301	83,977	0	1015,1	8,8	10,2	10	1	1	1	1	1	1	1	1	1	0	1	-17,618041	275,774713	310,326816	0
15.01.2021	14:05:57	0	77,373223	3,86797	1,731	324,0324	1,297	83,973	0	1015,26	8,8	10,2	10	1	1	1	1	1	1	1	1	1	0	1	-17,758985	275,743821	310,038953	0
15.01.2021	14:05:58	0	76,904941	2,957861	1,6995	319,212	1,296	83,979	0	1015,36	8,8	10,2	10	1	1	1	1	1	1	1	1	1	0	1	-19,450317	275,864414	308,921429	0
15.01.2021	14:05:59	0	76,904879	2,730334	1,74375	317,8188	1,3	83,965	0	1015,16	8,8	10,2	10	1	1	1	1	1	1	1	1	1	0	1	-14,940099	275,898773	313,595272	0
15.01.2021	14:06:00	0	77,138863	4,095504	1,77975	321,462	1,284	83,967	0	1015,26	8,8	10,2	10	1	1	1	1	1	1	1	1	1	0	1	-16,983791	275,807284	311,116022	0
15.01.2021	14:06:01	0	77,138863	4,095504	1,77975	321,462	1,284	83,967	0	1015,26	8,8	10,2	10	1	1	1	1	1	1	1	1	1	0	1	-16,983791	275,807284	311,116022	0
15.01.2021	14:06:02	0	76,787637	2,275281	1,7625	320,8104	1,286	83,955	0	1015,18	8,8	10,2	10	1	1	1	1	1	1	1	1	1	0	1	-17,477097	275,902048	311,073876	0
15.01.2021	14:06:03	0	77,021683	2,730338	1,7925	327,8808	1,292	83,952	0	1015,18	8,8	10,2	10	1	1	1	1	1	1	1	1	1	0	1	-18,111346	275,872589	310,299326	0
15.01.2021	14:06:04	0	77,02162	3,071632	1,7895	325,0296	1,295	83,975	0	1015,18	8,8	10,2	10	1	1	1	1	1	1	1	1	1	0	1	-17,26568	275,890587	311,230701	0
15.01.2021	14:06:05	0	77,606828	4,664332	1,791	321,876	1,29	83,975	0	1015,22	8,8	10,2	10	1	1	1	1	1	1	1	1	1	0	1	-17,688513	275,874225	310,729947	0
15.01.2021	14:06:06	0	77,255603	3,412927	1,82925	343,0584	1,284	83,967	0	1015,2	8,8	10,2	10	1	1	1	1	1	1	1	1	1	0	1	-16,420014	275,782851	311,563552	0
15.01.2021	14:06:07	0	76,904379	2,957871	1,872	315,8604	1,288	83,974	0	1015,3	8,8	10,2	10	1	1	1	1	1	1	1	1	1	0	1	-16,560958	275,730829	311,175205	0
15.01.2021	14:06:08	0	77,255477	2,730344	1,9215	320,0472	1,284	83,967	0	1015,06	8,8	10,2	10	1	1	1	1	1	1	1	1	1	0	1	-12,896406	275,852974	315,420876	0
15.01.2021	14:06:09	0	77,37301	4,550575	1,96125	321,8544	1,286	83,971	0	1015,22	8,8	10,3	10	1	1	1	1	1	1	1	1	1	0	1	-17,195208	275,872589	311,215464	0
15.01.2021	14:06:10	0	77,138298	3,526697	1,97925	321,1992	1,291	83,979	0	1015,3	8,8	10,2	10	1	1	1	1	1	1	1	1	1	0	1	-17,618041	275,913517	310,987562	0
15.01.2021	14:06:11	0	77,255289	4,323049	2,0325	318,8088	1,284	83,974	0	1015,26	8,8	10,2	10	1	1	1	1	1	1	1	1	1	0	1	-17,618041	275,851341	310,691464	0
15.01.2021	14:06:12	0	77,255226	3,754228	2,04075	342,7668	1,277	83,974	0	1015,3	8,8	10,2	10	1	1	1	1	1	1	1	1	1	0	1	-18,675123	275,911878	309,922673	0
15.01.2021	14:06:13	0	77,255163	2,844114	1,914	333,4248	1,272	83,974	0	1015,08	8,8	10,2	10	1	1	1	1	1	1	1	1	1	0	1	-12,896406	275,7617	314,986556	0
15.01.2021	14:06:14	0	77,2551	4,20929	1,94175	324,8064	1,277	83,98	0	1015,24	8,8	10,2	10	1	1	1	1	1	1	1	1	1	0	1	-14,376321	275,908601	314,205864	0
15.01.2021	14:06:15	0	77,137984	2,730351	2,034	329,9364	1,278	83,97	0	1015,1	8,8	10,2	10	1	1	1	1	1	1	1	1	1	0	1	-13,389711	275,781223	314,586112	0
15.01.2021	14:06:16	0	77,254974	2,616588	2,0265	331,5636	1,274	83,972	0	1015,06	8,8	10,2	10	1	1	1	1	1	1	1	1	1	0	1	-17,758985	275,727582	309,961742	0
15.01.2021	14:06:17	0	77,254911	2,957883	1,9815	337,9968	1,274	83,966	0	1015,08	8,8	10,2	10	1	1	1	1	1	1	1	1	1	0	1	-12,614517	275,864414	315,757229	0
15.01.2021	14:06:18	0	77,020743	2,38906	1,90125	329,67	1,279	83,985	0	1015,18	8,8	10,2	10	1	1	1	1	1	1	1	1	1	0	1	-17,26568	275,7357	310,493643	0
15.01.2021	14:06:19	0	77,02068	2,730355	1,803	328,9608	1,278	84,001	0	1015,24	8,8	10,2	10	1	1	1	1	1	1	1	1	1	0	1	-16,842847	275,902048	311,708125	0
15.01.2021	14:06:20	0	77,488827	2,616592	1,86825	324,3204	1,277	83,998	0	1015,28	8,8	10,2	10	1	1	1	1	1	1	1	1	1	0	1	-17,406624	275,768205	310,507279	0
15.01.2021	14:06:21	0	77,020554	2,844123	2,00925	324,4176	1,274	84,003	0	1015,22	8,8	10,2	10	1	1	1	1	1	1	1	1	1	0	1	-14,305849	275,745446	313,499815	0
15.01.2021	14:06:22	0	77,371649	4,550598	2,12025	325,5048	1,277	83,989	0	1015,26	8,8	10,2	10	1	1	1	1	1	1	1	1	1	0	1	-15,221987	275,90041	313,321184	0
15.01.2021	14:06:23	0	77,371585	3,526715	2,0595	314,028	1,272	84,015	0	1015,24	8,8	10,2	10	1	1	1	1	1	1	1	1	1	0	1	-14,517266	275,844807	313,761137	0
15.01.2021	14:06:24	0	77,25447	4,209306	1,9905	321,4836	1,27	84,008	0	1015,12	8,8	10,2	10	1	1	1	1	1	1	1	1	1	0	1	-12,825934	275,910239	315,764057	0
15.01.2021	14:06:25	0	77,371459	3,526718	1,8915	317,8332	1,272	84,028	0	1015,14	8,8	10,2	10	1	1	1	1	1	1	1	1	1	0	1	-16,913319	275,830116	311,295151	0
15.01.2021	14:06:26	0	77,137292	3,412954	1,8075	321,138	1,277	84,03	0	1015,34	8,8	10,2	10	1	1	1	1	1	1	1	1	1	0	1	-12,05074	275,90041	316,492431	0
15.01.2021	14:06:27	0	77,371333	3,185425	1,842	331,992	1,277	84,034	0	1015,28	8,8	10,2	10	1	1	1	1	1	1	1	1	1	0	1	-14,094433	275,864414	314,277313	0
15.01.2021	14:06:28	0	76,903062	2,730365	1,94025	324,4176	1,274	84,025	0	1015,04	8,8	10,2	10	1	1	1	1	1	1	1	1	1	0	1	-17,829457	275,879132	310,612371	0
15.01.2021	14:06:29	0	77,020051	2,730366	1,99125	343,1232	1,271	84,058	0	1015,28	8,8	10,2	10	1	1	1	1	1	1	1	1	1	0	1	-15,997181	275,777968	311,963157	0
15.01.2021	14:06:30	0	77,019988	3,86802	2,0475	319,2012	1,268	84,032	0	1015,28	8,8	10,2	10	1	1	1	1	1	1	1	1	1	0	1	-13,178295	275,902048	315,372678	0
15.01.2021	14:06:31	0	77,019925	4,778145	1,9515	339,0696	1,268	84,062	0	1015,26	8,8	10,2	10	1	1	1	1	1	1	1	1	1	0	1	-15,221987	275,836644	313,017556	0
15.01.2021	14:06:32	0	77,019862	4,323085	2,04	344,9988	1,277	84,078	0	1015,26	8,8	10,2	10	1	1	1	1	1	1	1	1	1	0	1	-13,742072	275,906962	314,832309	0
15.01.2021	14:06:33	0	77,253902	4,550618	2,12625	341,28	1,273	84,069	0	1015,2	8,8	10,2	10	1	1	1	1	1	1	1	1	1	0	1	-14,799154	275,790992	313,223141	0
15.01.2021	14:06:34	0	77,253839	4,436854	2,14575	344,3328	1,276	84,073	0	1015,24	8,8	10,2	10	1	1	1	1	1	1	1	1	1	0	1	-16,490486	275,908601	312,091699	0
15.01.2021	14:06:35	0	77,136725	2,616607	2,00775	341,3304	1,267	84,075	0	1015,26	8,8	10,2	10	1	1	1	1	1	1	1	1	1	0	1	-16,983791	275,880768	311,465827	0
15.01.2021	14:06:36	0	77,487815	4,664389	1,88625	344,6352	1,27	84,086	0	1015,18	8,8	10,2	10	1	1	1	1	1	1	1	1	1	0	1	-16,560958	275,800765	311,507838	0
15.01.2021	14:06:37	0	77,019548	4,778156	1,75725	342,738	1,269	84,102	0	1015,34	8,8	10,2	10	1	1	1	1	1	1	1	1	1	0	1	-13,953488	275,916794	314,667731	0
15.01.2021	14:06:38	0	77,604739	3,185439	1,7115	338,7888	1,27	84,101	0	1015,22	8,8	10,2	10	1	1	1	1	1	1	1	1	1	0	1	-15,010571	275,786107	312,988485	0
15.01.2021	14:06:39	0	76,902371	1,820251	1,65825	333,4752	1,269	84,108	0	1015,24	8,8	10,2	10	1	1	1	1	1	1	1	1	1	0	1	-15,503876	275,906962	313,070505	0
15.01.2021	14:06:40	0	76,902308	2,502847	1,5555	325,9152	1,268	84,093	0	1015,2	8,8	10,2	10	1	1	1	1	1	1	1	1	1	0	1	-16,631431	275,821958	311,538216	0
15.01.2021	14:06:41	0	77,253397	4,209335	1,488	330,354	1,266	84,111	0	1015,18	8,8	10,2	10	1	1	1	1	1	1	1	1	1	0	1	-17,124736	275,905324	311,441841	0
15.01.2021	14:06:42	0	77,604485	4,6644	1,4265	319,9752	1,265	84,124	0	1015,14	8,8	10,2	10	1	1	1	1	1	1	1	1	1	0	1	-11,980268	275,779595	315,987812	0
15.01.2021	14:06:43	0	76,902119	2,50285	1,3755	309,8268	1,273	84,137	0	1015,22	8,8	10,2	10	1	1	1	1	1	1	1	1	1	0	1	-12,332629	275,727582	315,388098	0
15.01.2021	14:06:44	0	77,136157	3,185446	1,39875	305,3268	1,268	84,121	0	1015,28	8,8	10,2	10	1	1	1	1	1	1	1	1	1	0	1	-16,983791	275,831748	311,232446	0
15.01.2021	14:06:45	0	77,136093	4,095575	1,5	322,9164	1,272	84,138	0	1015,3	8,8	10,2	10	1	1	1	1	1	1	1	1	1	0	1	-16,842847	275,732453	310,901035	0
15.01.2021	14:06:46	0	77,37013	3,412981	1,77225	314,4924	1,268	84,137	0	1015,12	8,8	10,2	10	1	1	1	1	1	1	1	1	1	0	1	-16,560958	275,764952	311,337473	0
15.01.2021	14:06:47	0	77,370067	4,550643	2,0715	333,8712	1,271	84,153	0	1015,4	8,8	10,2	10	1	1	1	1	1	1	1	1	1	0	1	-15,503876	275,77634	312,448721	0
15.01.2021	14:06:48	0	76,667704	2,616621	2,3085	309,9456	1,273	84,158	0	1015,24	8,8	10,2	10	1	1	1	1	1	1	1	1	1	0	1	-15,151515	275,727582	312,569212	0
15.01.2021	14:06:49	0	77,25289	3,981816	2,50575	320,1084	1,266	84,147	0	1015,22	8,8	10,2	10	1	1	1	1	1	1	1	1	1	0	1	-23,11487	275,790992	304,907426	0
15.01.2021	14:06:50	0	76,901678	2,616638	2,55075	317,0916	1,269	84,145	0	1015,28	8,8	10,2	9,9	1	1	1	1	1	1	1	1	1	0	1	-12,403101	275,910239	316,18689	0
15.01.2021	14:06:51	0	77,486863	4,436884	2,39925	316,692	1,271	84,17	0	1015,24	8,8	10,2	10	1	1	1	1	1	1	1	1	1	0	1	-14,376321	275,83338	313,847684	0
15.01.2021	14:06:52	0	77,135651	3,754288	2,2485	306,4176	1,265	84,175	0	1015,06	8,8	10,2	10	1	1	1	1	1	1	1	1	1	0	1	-17,124736	275,895498	311,395037	0
15.01.2021	14:06:53	0	77,486736	4,323121	2,08275	334,62	1,259	84,173	0	1015,18	8,8	10,2	10	1	1	1	1	1	1	1	1	1	0	1	-19,87315	275,869319	308,521949	0
15.01.2021	14:06:54	0	77,135524	2,730393	1,97175	317,7504	1,267	84,209	0	1015,52	8,8	10,2	10	1	1	1	1	1	1	1	1	1	0	1	-15,151515	275,743821	312,646423	0
15.01.2021	14:06:55	0	77,486609	4,550657	2,03775	310,7628	1,27	84,199	0	1015,24	8,8	10,2	10	1	1	1	1	1	1	1	1	1	0	1	-17,195208	275,85951	311,153191	0
15.01.2021	14:06:56	0	76,78425	3,526761	2,16375	327,4056	1,262	84,188	0	1015,14	8,8	10,2	10	1	1	1	1	1	1	1	1	1	0	1	-11,698379	275,902048	316,852593	0
15.01.2021	14:06:57	0	77,486481	3,754295	2,3685	308,124	1,263	84,189	0	1015,2	8,8	10,2	10	1	1	1	1	1	1	1	1	1	0	1	-18,675123	275,821958	309,494523	0
15.01.2021	14:06:58	0	76,784124	2,957931	2,48925	310,6728	1,27	84,203	0	1015,18	8,8	10,2	10	1	1	1	1	1	1	1	1	1	0	1	-16,983791	275,730829	310,752372	0
15.01.2021	14:06:59	0	77,018159	3,071698	2,535	314,4204	1,261	84,195	0	1015,24	8,8	10,2	10	1	1	1	1	1	1	1	1	1	0	1	-16,560958	275,7617	311,322004	0
15.01.2021	14:07:00	0	77,369178	2,730401	2,406	316,6596	1,268	84,19	0	1015,18	8,8	10,2	10	1	1	1	1	1	1	1	1	1	0	1	-15,64482	275,725959	312,06819	0
15.01.2021	14:07:01	0	77,369178	2,730401	2,406	316,6596	1,268	84,19	0	1015,18	8,8	10,2	10	1	1	1	1	1	1	1	1	1	0	1	-18,322763	275,808914	309,784807	0
15.01.2021	14:07:02	0	77,252066	3,640536	2,36325	318,3696	1,27	84,192	0	1015,22	8,8	10,2	10	1	1	1	1	1	1	1	1	1	0	1	-18,816068	275,724336	308,889226	0
15.01.2021	14:07:03	0	77,252003	3,071703	2,41275	314,8596	1,263	84,195	0	1015,2	8,8	10,2	10	1	1	1	1	1	1	1	1	1	0	1	-12,332629	275,751946	315,503945	0
15.01.2021	14:07:04	0	77,017842	3,413005	2,487	317,826	1,262	84,189	0	1015,24	8,8	10,2	10	1	1	1	1	1	1	1	1	1	0	1	-13,812544	275,903686	314,74623	0
15.01.2021	14:07:05	0	77,251876	3,29924	2,6085	319,2552	1,265	84,19	0	1015,28	8,8	10,2	10	1	1	1	1	1	1	1	1	1	0	1	-14,517266	275,856242	313,815573	0
15.01.2021	14:07:06	0	76,549523	2,616639	2,679	320,3964	1,26	84,176	0	1015,16	8,8	10,2	10	1	1	1	1	1	1	1	1	1	0	1	-14,023961	275,734076	313,727642	0
15.01.2021	14:07:07	0	77,485845	4,323145	2,64525	324,1404	1,264	84,183	0	1015,28	8,8	10,2	10	1	1	1	1	1	1	1	1	1	0	1	-11,486963	275,716223	316,179762	0
15.01.2021	14:07:08	0	77,251685	3,185476	2,583	320,0004	1,268	84,182	0	1015,28	8,8	10,2	10	1	1	1	1	1	1	1	1	1	0	1	-12,121212	275,836644	316,118331	0
15.01.2021	14:07:09	0	76,78343	2,957944	2,58375	318,8196	1,264	84,175	0	1015,2	8,8	10,2	10	1	1	1	1	1	1	1	1	1	0	1	-17,124736	275,916794	311,496483	0
15.01.2021	14:07:10	0	76,783367	2,502876	2,5575	319,2084	1,264	84,156	0	1015,14	8,8	10,2	10	1	1	1	1	1	1	1	1	1	0	1	-13,460183	275,870954	314,942702	0
15.01.2021	14:07:11	0	77,017399	4,323178	2,53875	317,016	1,263	84,177	0	1015,26	8,8	10,2	9,9	1	1	1	1	1	1	1	1	1	0	1	-18,463707	275,905324	310,10287	0
15.01.2021	14:07:12	0	77,017335	3,981852	2,5065	317,3868	1,262	84,173	0	1015,24	8,8	10,2	10	1	1	1	1	1	1	1	1	1	0	1	-17,195208	275,743821	310,602731	0
15.01.2021	14:07:13	0	77,13432	3,071734	2,48625	316,2924	1,259	84,153	0	1015,24	8,8	10,2	9,9	1	1	1	1	1	1	1	1	1	0	1	-15,221987	275,714601	312,437026	0
15.01.2021	14:07:14	0	77,251303	3,754321	2,4765	317,4012	1,26	84,174	0	1015,22	8,8	10,2	10	1	1	1	1	1	1	1	1	1	0	1	-14,940099	275,817066	313,206263	0
15.01.2021	14:07:15	0	76,900098	4,323159	2,4435	316,2312	1,265	84,176	0	1015,2	8,8	10,2	10	1	1	1	1	1	1	1	1	1	0	1	-17,195208	275,714601	310,463806	0
15.01.2021	14:07:16	0	77,251176	3,868091	2,36175	317,898	1,256	84,166	0	1015,18	8,8	10,2	10	1	1	1	1	1	1	1	1	1	0	1	-16,138125	275,854608	312,186935	0
15.01.2021	14:07:17	0	77,017018	4,209395	2,38125	316,6416	1,262	84,152	0	1015,22	8,8	10,2	10	1	1	1	1	1	1	1	1	1	0	1	-16,349542	275,774713	311,595315	0
15.01.2021	14:07:18	0	77,017494	2,275349	2,32875	313,9776	1,257	84,162	0	1015,22	8,8	10,3	10	1	1	1	1	1	1	1	1	1	0	1	-13,248767	275,758448	314,618729	0
15.01.2021	14:07:19	0	76,782797	2,957955	2,29875	316,5516	1,259	84,176	0	1015,32	8,8	10,2	10	1	1	1	1	1	1	1	1	1	0	1	-17,89993	275,732453	309,843953	0
15.01.2021	14:07:20	0	77,133875	4,664479	2,28525	314,8236	1,25	84,177	0	1015,26	8,8	10,2	10,1	1	1	1	1	1	1	1	1	1	0	1	-16,067653	275,905324	312,498924	0
15.01.2021	14:07:21	0	77,016764	2,730439	2,37375	311,382	1,258	84,189	0	1015,18	8,8	10,2	9,9	1	1	1	1	1	1	1	1	1	0	1	-15,574348	275,818696	312,579774	0
15.01.2021	14:07:22	0	76,782607	3,640587	2,3415	313,1784	1,257	84,176	0	1015,2	8,8	10,2	9,9	1	1	1	1	1	1	1	1	1	0	1	-17,124736	275,717845	310,549701	0
15.01.2021	14:07:23	0	76,899591	4,550708	2,2635	314,874	1,256	84,191	0	1015,24	8,8	10,2	10	1	1	1	1	1	1	1	1	1	0	1	-15,151515	275,7617	312,731447	0
15.01.2021	14:07:24	0	77,13362	4,323174	2,3325	311,8248	1,255	84,198	0	1015,26	8,8	10,2	10	1	1	1	1	1	1	1	1	1	0	1	-18,463707	275,88895	310,024878	0
15.01.2021	14:07:25	0	77,250603	2,844212	2,3685	312,4188	1,255	84,205	0	1015,18	8,8	10,2	9,9	1	1	1	1	1	1	1	1	1	0	1	-17,688513	275,839909	310,566572	0
15.01.2021	14:07:26	0	76,8994	2,957964	2,42325	315,8928	1,256	84,202	0	1015,16	8,8	10,2	10	1	1	1	1	1	1	1	1	1	0	1	-16,349542	275,701628	311,247808	0
15.01.2021	14:07:27	0	76,899337	4,095644	2,373	307,2276	1,256	84,226	0	1015,24	8,8	10,2	10	1	1	1	1	1	1	1	1	1	0	1	-13,6716	275,72109	314,018264	0
15.01.2021	14:07:28	0	76,899273	4,209438	2,30775	320,8068	1,256	84,214	0	1015,1	8,7	10,2	9,9	1	1	1	1	1	1	1	1	1	0	1	-15,503876	275,751946	312,332698	0
15.01.2021	14:07:29	0	77,016256	4,323183	2,22975	311,4036	1,256	84,213	0	1015,26	8,8	10,2	10	1	1	1	1	1	1	1	1	1	0	1	-15,010571	275,892224	313,493606	0
15.01.2021	14:07:30	0	76,782101	4,550748	2,16225	316,5732	1,255	84,219	0	1015,34	8,8	10,2	9,9	1	1	1	1	1	1	1	1	1	0	1	-14,376321	275,745446	313,429343	0
15.01.2021	14:07:31	0	76,782575	3,981882	2,12325	311,7636	1,256	84,234	0	1015,32	8,8	10,3	10	1	1	1	1	1	1	1	1	1	0	1	-17,618041	275,88404	310,847162	0
15.01.2021	14:07:32	0	77,016065	3,413064	1,98525	321,6852	1,251	84,218	0	1015,28	8,8	10,2	9,9	1	1	1	1	1	1	1	1	1	0	1	-12,966878	275,830116	315,241592	0
15.01.2021	14:07:33	0	76,898956	4,323216	1,99725	316,9908	1,251	84,219	0	1015,06	8,8	10,2	9,9	1	1	1	1	1	1	1	1	1	0	1	-12,966878	275,885677	315,506118	0
15.01.2021	14:07:34	0	76,548292	3,640604	2,07225	314,8272	1,247	84,228	0	1015,2	8,8	10,3	9,9	1	1	1	1	1	1	1	1	1	0	1	-13,883016	275,799136	314,178028	0
15.01.2021	14:07:35	0	76,781783	3,413068	2,103	313,254	1,252	84,242	0	1015,28	8,8	10,2	9,9	1	1	1	1	1	1	1	1	1	0	1	-16,208598	275,683804	311,304047	0
15.01.2021	14:07:36	0	76,899304	2,844207	1,998	316,6632	1,253	84,24	0	1015,22	8,8	10,3	10	1	1	1	1	1	1	1	1	1	0	1	-12,191684	275,756822	315,66808	0
15.01.2021	14:07:37	0	76,781656	4,209428	1,87275	330,0444	1,252	84,249	0	1015,14	8,8	10,2	10	1	1	1	1	1	1	1	1	1	0	1	-20,014094	275,897135	308,513477	0
15.01.2021	14:07:38	0	76,898638	3,413051	1,69725	319,9752	1,252	84,244	0	1015,32	8,8	10,2	10	1	1	1	1	1	1	1	1	1	0	1	-16,842847	275,848074	311,451105	0
15.01.2021	14:07:39	0	76,898574	3,868126	1,58775	330,7212	1,253	84,244	0	1015,12	8,8	10,2	10	1	1	1	1	1	1	1	1	1	0	1	-15,574348	275,696765	311,999891	0
15.01.2021	14:07:40	0	77,015556	4,550739	1,458	337,5972	1,242	84,232	0	1015,16	8,8	10,2	10	1	1	1	1	1	1	1	1	1	0	1	-17,829457	275,774713	310,115399	0
15.01.2021	14:07:41	0	76,664357	4,209435	1,35	316,9872	1,248	84,234	0	1015,26	8,8	10,2	10	1	1	1	1	1	1	1	1	1	0	1	-17,26568	275,882404	311,19173	0
15.01.2021	14:07:42	0	77,015968	4,778308	1,36425	315,918	1,244	84,233	0	1015,16	8,9	10,3	9,9	1	1	1	1	1	1	1	1	1	0	1	-15,221987	275,828484	312,978717	0
15.01.2021	14:07:43	0	76,664231	2,502909	1,31325	321,7824	1,25	84,235	0	1015,06	8,8	10,2	10	1	1	1	1	1	1	1	1	1	0	1	-13,812544	275,711357	313,831049	0
15.01.2021	14:07:44	0	76,781212	4,095696	1,3575	325,1268	1,244	84,245	0	1015,2	8,8	10,2	9,9	1	1	1	1	1	1	1	1	1	0	1	-14,023961	275,743821	313,773978	0
15.01.2021	14:07:45	0	76,898731	5,119622	1,3425	324,7956	1,248	84,241	0	1015,08	8,8	10,3	9,9	1	1	1	1	1	1	1	1	1	0	1	-18,393235	275,877496	310,040803	0
15.01.2021	14:07:46	0	76,66404	4,095699	1,365	324,8172	1,245	84,237	0	1015	8,8	10,2	9,9	1	1	1	1	1	1	1	1	1	0	1	-16,420014	275,812174	311,70307	0
15.01.2021	14:07:47	0	76,781021	4,778289	1,37325	317,3796	1,244	84,25	0	1015,22	8,8	10,2	10	1	1	1	1	1	1	1	1	1	0	1	-13,812544	275,892224	314,691633	0
15.01.2021	14:07:48	0	76,898001	4,436984	1,368	316,6488	1,245	84,245	0	1014,96	8,8	10,2	10	1	1	1	1	1	1	1	1	1	0	1	-17,477097	275,771459	310,452282	0
15.01.2021	14:07:49	0	76,546806	3,640626	1,425	318,4488	1,245	84,26	0	1015,26	8,8	10,2	9,9	1	1	1	1	1	1	1	1	1	0	1	-10,570825	275,755197	317,281209	0
15.01.2021	14:07:50	0	76,78083	3,18553	1,4565	308,1672	1,251	84,262	0	1015,3	8,8	10,2	10	1	1	1	1	1	1	1	1	1	0	1	-14,305849	275,874225	314,112611	0
15.01.2021	14:07:51	0	76,547215	4,095707	1,50375	317,0268	1,253	84,267	0	1015,2	8,9	10,3	9,9	1	1	1	1	1	1	1	1	1	0	1	-15,362932	275,682185	312,142017	0
15.01.2021	14:07:52	0	77,01533	4,664539	1,52775	321,5088	1,245	84,264	0	1015,26	8,9	10,3	10,1	1	1	1	1	1	1	1	1	1	0	1	-12,262156	275,808914	315,845413	0
15.01.2021	14:07:53	0	76,664132	3,413092	1,524	321,8184	1,248	84,274	0	1015,4	8,8	10,3	9,9	1	1	1	1	1	1	1	1	1	0	1	-18,463707	275,880768	309,985912	0
15.01.2021	14:07:54	0	76,42998	2,844228	1,503	323,676	1,242	84,27	0	1015,24	8,8	10,3	10	1	1	1	1	1	1	1	1	1	0	1	-16,983791	275,831748	311,232446	0
15.01.2021	14:07:55	0	76,780512	5,005873	1,44825	329,3928	1,239	84,27	0	1015,16	8,8	10,2	9,9	1	1	1	1	1	1	1	1	1	0	1	-16,772375	275,880768	311,677244	0
15.01.2021	14:07:56	0	76,89803	4,550795	1,46925	327,4524	1,241	84,275	0	1015,24	8,8	10,3	9,9	1	1	1	1	1	1	1	1	1	0	1	-15,574348	275,807284	312,525465	0
15.01.2021	14:07:57	0	76,663341	2,275398	1,47975	316,674	1,248	84,287	0	1015,16	8,8	10,2	9,9	1	1	1	1	1	1	1	1	1	0	1	-16,138125	275,874225	312,280335	0
15.01.2021	14:07:58	0	76,78032	2,616709	1,4475	324,1116	1,24	84,292	0	1015,32	8,8	10,2	9,9	1	1	1	1	1	1	1	1	1	0	1	-17,477097	275,753571	310,367207	0
15.01.2021	14:07:59	0	77,014343	3,071772	1,44	323,8092	1,246	84,296	0	1015,18	8,8	10,2	10	1	1	1	1	1	1	1	1	1	0	1	-15,715292	275,867684	312,672022	0
15.01.2021	14:08:00	0	76,429001	2,502927	1,4655	328,2408	1,248	84,289	0	1015,34	8,8	10,2	10	1	1	1	1	1	1	1	1	1	0	1	-18,393235	275,879132	310,048593	0
15.01.2021	14:08:01	0	76,429001	2,502927	1,4655	328,2408	1,248	84,289	0	1015,34	8,8	10,2	10	1	1	1	1	1	1	1	1	1	0	1	-18,393235	275,879132	310,048593	0
15.01.2021	14:08:02	0	76,429472	2,958006	1,542	334,1952	1,246	84,297	0	1015,3	8,8	10,3	10	1	1	1	1	1	1	1	1	1	0	1	-15,292459	275,708113	312,335716	0
15.01.2021	14:08:03	0	76,78054	4,209472	1,572	335,9412	1,24	84,306	0	1015,24	8,8	10,3	10	1	1	1	1	1	1	1	1	1	0	1	-12,896406	275,758448	314,97109	0
15.01.2021	14:08:04	0	76,077682	2,50293	1,6005	336,3696	1,247	84,31	0	1015,32	8,8	10,2	10	1	1	1	1	1	1	1	1	1	0	1	-16,490486	275,880768	311,959133	0
15.01.2021	14:08:05	0	76,312239	3,413109	1,59075	341,6328	1,243	84,291	0	1015,18	8,8	10,3	9,9	1	1	1	1	1	1	1	1	1	0	1	-12,05074	275,737324	315,716305	0
15.01.2021	14:08:06	0	76,663305	2,844258	1,665	339,8832	1,239	84,311	0	1015,22	8,7	10,3	9,9	1	1	1	1	1	1	1	1	1	0	1	-16,208598	275,691904	311,342538	0
15.01.2021	14:08:07	0	76,546198	4,664586	1,56225	332,8632	1,245	84,316	0	1015,26	8,9	10,3	9,9	1	1	1	1	1	1	1	1	1	0	1	-16,420014	275,747071	311,393376	0
15.01.2021	14:08:08	0	76,429091	2,730479	1,47375	323,0028	1,241	84,314	0	1015,18	8,8	10,3	10,1	1	1	1	1	1	1	1	1	1	0	1	-15,574348	275,703249	312,030707	0
15.01.2021	14:08:09	0	76,429028	3,754403	1,311	329,2848	1,241	84,327	0	1015,42	8,9	10,3	10	1	1	1	1	1	1	1	1	1	0	1	-14,305849	275,755197	313,546184	0
15.01.2021	14:08:10	0	76,546007	4,323254	1,20075	333,1332	1,244	84,335	0	1015,34	8,9	10,3	10	1	1	1	1	1	1	1	1	1	0	1	-14,094433	275,880768	314,355186	0
15.01.2021	14:08:11	0	76,662986	2,844247	1,167	325,566	1,244	84,326	0	1015,2	8,8	10,3	10	1	1	1	1	1	1	1	1	1	0	1	-12,403101	275,764952	315,49533	0
15.01.2021	14:08:12	0	76,194752	4,437054	1,1415	334,2096	1,245	84,348	0	1015,28	8,9	10,3	9,9	1	1	1	1	1	1	1	1	1	0	1	-14,376321	275,885677	314,096675	0
15.01.2021	14:08:13	0	76,428773	4,437029	1,1805	339,4584	1,245	84,34	0	1015,24	8,9	10,3	10	1	1	1	1	1	1	1	1	1	0	1	-15,081043	275,709735	312,554841	0
15.01.2021	14:08:14	0	76,42871	4,323287	1,1415	321,8256	1,244	84,343	0	1015,24	8,9	10,3	9,9	1	1	1	1	1	1	1	1	1	0	1	-13,530655	275,818696	314,623467	0
15.01.2021	14:08:15	0	76,545689	4,209501	1,164	318,1464	1,24	84,35	0	1015,22	8,8	10,3	10,1	1	1	1	1	1	1	1	1	1	0	1	-12,966878	275,714601	314,692135	0
15.01.2021	14:08:16	0	76,428047	4,664574	1,22325	324,1872	1,24	84,346	0	1015,32	8,8	10,2	10	1	1	1	1	1	1	1	1	1	0	1	-18,745595	275,771459	309,183783	0
15.01.2021	14:08:17	0	76,194435	2,730484	1,227	310,7124	1,24	84,347	0	1015,3	8,8	10,3	10	1	1	1	1	1	1	1	1	1	0	1	-13,319239	275,864414	315,052507	0
15.01.2021	14:08:18	0	76,545497	3,071795	1,335	323,316	1,243	84,35	0	1015,28	8,9	10,3	10	1	1	1	1	1	1	1	1	1	0	1	-14,517266	275,851341	313,792239	0
15.01.2021	14:08:19	0	76,662475	4,55081	1,44	331,0812	1,243	84,365	0	1015,32	8,9	10,3	10	1	1	1	1	1	1	1	1	1	0	1	-14,305849	275,844807	313,972554	0
15.01.2021	14:08:20	0	76,194244	2,730487	1,575	322,5276	1,241	84,369	0	1015,26	8,9	10,3	10	1	1	1	1	1	1	1	1	1	0	1	-19,943622	275,729206	307,784822	0
15.01.2021	14:08:21	0	76,428264	3,41311	1,659	338,508	1,239	84,359	0	1015,28	8,9	10,3	10	1	1	1	1	1	1	1	1	1	0	1	-18,957012	275,841542	309,305845	0
15.01.2021	14:08:22	0	76,311159	3,18559	1,71375	300,9096	1,239	84,369	0	1015,12	8,8	10,3	9,9	1	1	1	1	1	1	1	1	1	0	1	-15,362932	275,879132	313,078896	0
15.01.2021	14:08:23	0	75,842398	2,844261	1,66875	308,16	1,24	84,376	0	1015,24	8,8	10,2	10	1	1	1	1	1	1	1	1	1	0	1	-13,248767	275,695145	314,31777	0
15.01.2021	14:08:24	0	76,076416	4,437049	1,539	332,5968	1,237	84,394	0	1015,24	8,9	10,2	10	1	1	1	1	1	1	1	1	1	0	1	-17,26568	275,867684	311,121634	0
15.01.2021	14:08:25	0	76,193927	2,616722	1,44975	323,7048	1,242	84,384	0	1015,2	8,9	10,3	10	1	1	1	1	1	1	1	1	1	0	1	-16,067653	275,807284	312,03216	0
15.01.2021	14:08:26	0	75,959781	5,119676	1,45725	317,7216	1,244	84,379	0	1015,22	8,9	10,3	10	1	1	1	1	1	1	1	1	1	0	1	-17,336152	275,856242	310,996687	0
15.01.2021	14:08:27	0	75,842676	2,616724	1,6395	303,5412	1,249	84,387	0	1015,28	8,9	10,3	10	1	1	1	1	1	1	1	1	1	0	1	-14,65821	275,732453	313,085672	0
15.01.2021	14:08:28	0	76,310242	2,161643	2,0145	311,0904	1,243	84,406	0	1015,16	8,7	10,2	10	1	1	1	1	1	1	1	1	1	0	1	-19,309373	275,70487	308,303389	0
15.01.2021	14:08:29	0	76,076631	4,550828	2,1945	328,8708	1,23	84,402	0	1015,12	8,9	10,3	10	1	1	1	1	1	1	1	1	1	0	1	-14,728682	275,861145	313,627499	0
15.01.2021	14:08:30	0	76,31065	2,730498	2,223	314,8092	1,245	84,414	0	1015,14	8,9	10,3	10	1	1	1	1	1	1	1	1	1	0	1	-14,799154	275,696765	312,775085	0
15.01.2021	14:08:31	0	76,076504	4,664603	2,19075	309,2364	1,243	84,418	0	1015,2	8,8	10,3	10	1	1	1	1	1	1	1	1	1	0	1	-15,574348	275,820327	312,587536	0
15.01.2021	14:08:32	0	75,842359	1,820333	2,22225	309,2328	1,24	84,414	0	1015,2	8,9	10,3	10	1	1	1	1	1	1	1	1	1	0	1	-15,221987	275,695145	312,34455	0
15.01.2021	14:08:33	0	76,310458	3,64069	2,24925	331,4952	1,242	84,425	0	1015,26	8,8	10,3	9,9	1	1	1	1	1	1	1	1	1	0	1	-19,309373	275,825221	308,875801	0
15.01.2021	14:08:34	0	75,607622	2,730519	2,121	325,188	1,245	84,441	0	1015,22	8,8	10,2	9,9	1	1	1	1	1	1	1	1	1	0	1	-14,517266	275,700007	313,07238	0
15.01.2021	14:08:35	0	76,309796	4,550839	1,95675	337,5036	1,245	84,431	0	1015,36	8,9	10,2	10	1	1	1	1	1	1	1	1	1	0	1	-12,896406	275,808914	315,211163	0
15.01.2021	14:08:36	0	76,309733	4,778383	1,82625	312,138	1,238	84,42	0	1015,22	8,9	10,2	10	1	1	1	1	1	1	1	1	1	0	1	-13,178295	275,869319	315,216805	0
15.01.2021	14:08:37	0	76,193163	4,550843	1,83375	315,8928	1,237	84,42	0	1015,36	8,9	10,3	10	1	1	1	1	1	1	1	1	1	0	1	-18,393235	275,831748	309,823003	0
15.01.2021	14:08:38	0	76,193099	4,550845	1,97175	304,6572	1,244	84,427	0	1015,16	8,7	10,3	10	1	1	1	1	1	1	1	1	1	0	1	-18,534179	275,714601	309,124835	0
15.01.2021	14:08:39	0	75,958956	3,413135	1,905	316,2852	1,237	84,415	0	1015,32	8,9	10,3	10	1	1	1	1	1	1	1	1	1	0	1	-17,970402	275,820327	310,191482	0
15.01.2021	14:08:40	0	75,724282	3,640679	1,96425	313,2072	1,243	84,417	0	1015,32	8,8	10,2	10	1	1	1	1	1	1	1	1	1	0	1	-15,926709	275,738948	311,848058	0
15.01.2021	14:08:41	0	76,075869	3,868223	2,03175	329,3172	1,238	84,398	0	1015,14	8,8	10,3	10	1	1	1	1	1	1	1	1	1	0	1	-18,745595	275,870954	309,65729	0
15.01.2021	14:08:42	0	75,724686	3,299368	2,00925	312,9084	1,239	84,382	0	1015,16	8,9	10,3	10	1	1	1	1	1	1	1	1	1	0	1	-13,107822	275,817066	315,038539	0
15.01.2021	14:08:43	0	76,075741	3,41314	2,03775	328,698	1,24	84,396	0	1015,3	8,8	10,3	10	1	1	1	1	1	1	1	1	1	0	1	-15,856237	275,844807	312,422166	0
15.01.2021	14:08:44	0	75,60752	2,730513	2,1855	324,3924	1,238	84,382	0	1015,34	8,8	10,3	10	1	1	1	1	1	1	1	1	1	0	1	-17,688513	275,687044	309,839525	0
15.01.2021	14:08:45	0	75,723965	3,868229	2,208	325,9512	1,236	84,373	0	1015,24	8,8	10,2	10	1	1	1	1	1	1	1	1	1	0	1	-16,772375	275,854608	311,552685	0
15.01.2021	14:08:46	0	76,19259	4,778402	2,14275	317,7432	1,234	84,367	0	1015,24	8,9	10,3	10	1	1	1	1	1	1	1	1	1	0	1	-20,084567	275,818696	308,069556	0
15.01.2021	14:08:47	0	75,6068	2,502974	2,20875	315,5364	1,233	84,376	0	1015,14	8,8	10,2	10	1	1	1	1	1	1	1	1	1	0	1	-11,768851	275,678946	315,720708	0
15.01.2021	14:08:48	0	75,840813	3,071833	2,3205	300,4308	1,235	84,336	0	1015,22	8,9	10,2	10	1	1	1	1	1	1	1	1	1	0	1	-14,164905	275,7357	313,594418	0
15.01.2021	14:08:49	0	75,84075	4,550865	2,502	318,8592	1,233	84,34	0	1015,18	8,9	10,2	10	1	1	1	1	1	1	1	1	1	0	1	-17,618041	275,866049	310,761489	0
15.01.2021	14:08:50	0	75,957724	2,616748	2,66325	323,7228	1,233	84,354	0	1015,28	8,9	10,2	10	1	1	1	1	1	1	1	1	1	0	1	-15,574348	275,830116	312,634122	0
15.01.2021	14:08:51	0	75,723585	2,389206	2,853	318,4344	1,238	84,35	0	1015,24	8,8	10,2	10	1	1	1	1	1	1	1	1	1	0	1	-14,517266	275,678946	312,972293	0
15.01.2021	14:08:52	0	75,958129	3,413153	2,8305	322,6248	1,231	84,343	0	1015,22	8,8	10,3	10	1	1	1	1	1	1	1	1	1	0	1	-13,812544	275,781223	314,163279	0
15.01.2021	14:08:53	0	75,60695	2,958067	2,8155	324,306	1,23	84,329	0	1015,28	8,9	10,3	10	1	1	1	1	1	1	1	1	1	0	1	-13,6716	275,682185	313,833349	0
15.01.2021	14:08:54	0	76,191545	3,982015	2,754	336,8628	1,23	84,322	0	1015,22	8,9	10,2	10	1	1	1	1	1	1	1	1	1	0	1	-15,926709	275,729206	311,801736	0
15.01.2021	14:08:55	0	75,606293	4,664648	2,7	326,3688	1,232	84,344	0	1015,14	8,9	10,2	10	1	1	1	1	1	1	1	1	1	0	1	-19,450317	275,849707	308,851411	0
15.01.2021	14:08:56	0	75,840305	2,730527	2,736	317,4012	1,23	84,338	0	1015,24	8,8	10,2	10	1	1	1	1	1	1	1	1	1	0	1	-18,745595	275,764952	309,152835	0
15.01.2021	14:08:57	0	75,957279	2,958072	2,658	299,7468	1,229	84,342	0	1015,22	8,8	10,2	10	1	1	1	1	1	1	1	1	1	0	1	-11,698379	275,687044	315,829659	0
15.01.2021	14:08:58	0	76,074785	3,640705	2,757	310,5864	1,235	84,345	0	1015,1	8,9	10,3	10	1	1	1	1	1	1	1	1	1	0	1	-16,560958	275,732453	311,182924	0
15.01.2021	14:08:59	0	75,957683	3,982023	2,8605	321,2172	1,23	84,331	0	1015,16	8,8	10,3	10	1	1	1	1	1	1	1	1	1	0	1	-15,433404	275,85951	312,914996	0
15.01.2021	14:09:00	0	75,488876	2,730532	2,89275	327,1572	1,228	84,352	0	1015,24	8,9	10,2	10	1	1	1	1	1	1	1	1	1	0	1	-14,728682	275,779595	313,239398	0
15.01.2021	14:09:01	0	75,488876	2,730532	2,89275	327,1572	1,228	84,352	0	1015,24	8,9	10,2	10	1	1	1	1	1	1	1	1	1	0	1	-13,530655	275,680565	313,966598	0
15.01.2021	14:09:02	0	75,605849	3,640711	2,9925	326,412	1,228	84,345	0	1015,22	8,8	10,2	10	1	1	1	1	1	1	1	1	1	0	1	-14,094433	275,799136	313,966612	0
15.01.2021	14:09:03	0	75,605786	4,778435	3,03825	323,7156	1,231	84,351	0	1015,26	8,9	10,2	10	1	1	1	1	1	1	1	1	1	0	1	-14,235377	275,857876	314,105242	0
15.01.2021	14:09:04	0	75,839796	4,323348	3,05925	330,0372	1,23	84,35	0	1015,12	8,8	10,2	10	1	1	1	1	1	1	1	1	1	0	1	-13,460183	275,712979	314,19112	0
15.01.2021	14:09:05	0	75,371586	2,616764	3,0855	326,016	1,233	84,346	0	1015,14	8,8	10,2	10	1	1	1	1	1	1	1	1	1	0	1	-14,023961	275,854608	314,301099	0
15.01.2021	14:09:06	0	75,722632	4,209579	3,1095	331,5384	1,226	84,324	0	1015,06	8,8	10,2	10	1	1	1	1	1	1	1	1	1	0	1	-12,262156	275,7617	315,620806	0
15.01.2021	14:09:07	0	75,956641	5,11976	3,06225	329,0364	1,232	84,327	0	1015,24	8,8	10,2	10	1	1	1	1	1	1	1	1	1	0	1	-15,926709	275,672471	311,532081	0
15.01.2021	14:09:08	0	75,839541	4,778445	2,955	329,2776	1,225	84,317	0	1015,3	8,8	10,2	10	1	1	1	1	1	1	1	1	1	0	1	-16,349542	275,812174	311,773542	0
15.01.2021	14:09:09	0	75,839477	3,868267	2,92575	325,0836	1,228	84,311	0	1015,4	8,8	10,2	10	1	1	1	1	1	1	1	1	1	0	1	-16,208598	275,79262	311,821446	0
15.01.2021	14:09:10	0	75,839413	3,52695	2,829	323,6328	1,226	84,311	0	1015,36	8,9	10,2	10	1	1	1	1	1	1	1	1	1	0	1	-14,940099	275,662761	312,47256	0
15.01.2021	14:09:11	0	75,371205	2,844316	2,78175	324,3492	1,221	84,278	0	1015,22	8,8	10,2	10	1	1	1	1	1	1	1	1	1	0	1	-14,728682	275,782851	313,254884	0
15.01.2021	14:09:12	0	75,488178	2,389226	2,7645	322,2396	1,225	84,298	0	1015,3	8,9	10,2	10	1	1	1	1	1	1	1	1	1	0	1	-15,997181	275,836644	312,242362	0
15.01.2021	14:09:13	0	75,839222	4,323364	2,766	329,3136	1,226	84,294	0	1015,28	8,8	10,2	10	1	1	1	1	1	1	1	1	1	0	1	-15,715292	275,659526	311,681996	0
15.01.2021	14:09:14	0	76,07323	4,437138	2,8635	326,7036	1,221	84,3	0	1015,2	8,8	10,2	10	1	1	1	1	1	1	1	1	1	0	1	-15,503876	275,690284	312,03956	0
15.01.2021	14:09:15	0	75,487988	2,958093	2,86275	326,7648	1,214	84,293	0	1015,28	8,8	10,2	10	1	1	1	1	1	1	1	1	1	0	1	-12,896406	275,688664	314,639331	0
15.01.2021	14:09:16	0	75,370888	2,844322	2,766	323,6508	1,225	84,292	0	1015,3	8,8	10,2	10	1	1	1	1	1	1	1	1	1	0	1	-12,614517	275,682185	314,890431	0
15.01.2021	14:09:17	0	76,073571	4,892235	2,73675	324,6732	1,219	84,284	0	1015,5	8,8	10,3	10	1	1	1	1	1	1	1	1	1	0	1	-15,010571	275,839909	313,244514	0
15.01.2021	14:09:18	0	75,838903	2,616778	2,73825	328,9032	1,216	84,262	0	1015,2	8,8	10,2	10	1	1	1	1	1	1	1	1	1	0	1	-14,517266	275,787735	313,489536	0
15.01.2021	14:09:19	0	75,604769	3,071871	2,69175	328,9752	1,216	84,267	0	1015,2	8,8	10,2	10	1	1	1	1	1	1	1	1	1	0	1	-16,490486	275,648206	310,853028	0
15.01.2021	14:09:20	0	75,253599	2,844326	2,48625	322,956	1,221	84,248	0	1015,32	8,8	10,2	10	1	1	1	1	1	1	1	1	1	0	1	-13,6716	275,717845	314,002837	0
15.01.2021	14:09:21	0	75,838711	3,754512	2,39025	319,2552	1,22	84,24	0	1015,12	8,8	10,2	10	1	1	1	1	1	1	1	1	1	0	1	-17,406624	275,649823	309,94457	0
15.01.2021	14:09:22	0	75,604578	2,616782	2,325	328,914	1,217	84,237	0	1015,24	8,8	10,2	10	1	1	1	1	1	1	1	1	1	0	1	-15,574348	275,771459	312,35503	0
15.01.2021	14:09:23	0	75,721549	3,413196	2,2755	309,888	1,217	84,225	0	1015,3	8,8	10,2	10	1	1	1	1	1	1	1	1	1	0	1	-15,926709	275,688664	311,609028	0
15.01.2021	14:09:24	0	75,487415	2,730558	2,21325	315,5292	1,212	84,2	0	1015,14	8,8	10,2	10	1	1	1	1	1	1	1	1	1	0	1	-16,560958	275,794249	311,476834	0
15.01.2021	14:09:25	0	75,487352	2,616786	2,23575	312,8724	1,212	84,194	0	1015,26	8,8	10,2	10	1	1	1	1	1	1	1	1	1	0	1	-14,587738	275,657908	312,801866	0
15.01.2021	14:09:26	0	75,721357	3,185653	2,352	322,9272	1,206	84,185	0	1015,24	8,8	10,2	10	1	1	1	1	1	1	1	1	1	0	1	-12,191684	275,769832	315,729956	0
15.01.2021	14:09:27	0	75,37019	4,323388	2,35725	320,4108	1,216	84,181	0	1015,24	8,8	10,2	10	1	1	1	1	1	1	1	1	1	0	1	-14,094433	275,649823	313,256762	0
15.01.2021	14:09:28	0	75,72123	2,730562	2,223	330,0444	1,209	84,155	0	1015,28	8,8	10,2	10	1	1	1	1	1	1	1	1	1	0	1	-17,547569	275,680565	309,949685	0
15.01.2021	14:09:29	0	75,721166	4,550939	2,05425	319,6872	1,207	84,153	0	1015,22	8,8	10,2	10	1	1	1	1	1	1	1	1	1	0	1	-15,64482	275,820327	312,517064	0
15.01.2021	14:09:30	0	75,604068	3,413205	1,9365	323,802	1,207	84,147	0	1015,26	8,8	10,2	10	1	1	1	1	1	1	1	1	1	0	1	-17,26568	275,685424	310,254661	0
15.01.2021	14:09:31	0	75,604004	3,413207	1,9215	326,34	1,206	84,115	0	1015,22	8,8	10,2	10	1	1	1	1	1	1	1	1	1	0	1	-17,336152	275,836644	310,903391	0
15.01.2021	14:09:32	0	75,135804	2,958114	1,83225	312,5376	1,201	84,105	0	1015,22	8,8	10,2	10	1	1	1	1	1	1	1	1	1	0	1	-15,221987	275,682185	312,282961	0
15.01.2021	14:09:33	0	75,252775	4,66472	1,71525	292,3272	1,205	84,118	0	1015,22	8,8	10,2	10	1	1	1	1	1	1	1	1	1	0	1	-16,983791	275,773086	310,953326	0
15.01.2021	14:09:34	0	75,603812	4,550948	1,65375	319,1796	1,201	84,095	0	1015,28	8,8	10,2	10	1	1	1	1	1	1	1	1	1	0	1	-16,983791	275,687044	310,544247	0
15.01.2021	14:09:35	0	75,486715	2,958117	1,61175	324,0972	1,202	84,087	0	1015,06	8,8	10,2	10	1	1	1	1	1	1	1	1	1	0	1	-11,06413	275,839909	317,190955	0
15.01.2021	14:09:36	0	75,720718	3,185666	1,719	327,3012	1,195	84,088	0	1015,18	8,8	10,2	10	1	1	1	1	1	1	1	1	1	0	1	-15,574348	275,740572	312,208142	0
15.01.2021	14:09:37	0	75,135487	2,389251	1,7925	318,42	1,2	84,087	0	1015,2	8,8	10,2	10	1	1	1	1	1	1	1	1	1	0	1	-11,627907	275,640125	315,677221	0
15.01.2021	14:09:38	0	75,72059	3,982086	1,956	315,882	1,204	84,072	0	1015,3	8,8	10,2	10	1	1	1	1	1	1	1	1	1	0	1	-14,799154	275,77634	313,153443	0
15.01.2021	14:09:39	0	75,83756	4,664731	2,094	312,444	1,198	84,066	0	1015,22	8,8	10,2	10	1	1	1	1	1	1	1	1	1	0	1	-14,940099	275,777968	313,02024	0
15.01.2021	14:09:40	0	75,486396	3,071897	2,20575	313,578	1,197	84,06	0	1015,16	8,8	10,2	10	1	1	1	1	1	1	1	1	1	0	1	-17,477097	275,640125	309,828032	0
15.01.2021	14:09:41	0	75,720398	4,323413	2,2575	310,284	1,188	84,054	0	1015,14	8,8	10,2	10	1	1	1	1	1	1	1	1	1	0	1	-13,6716	275,766579	314,234567	0
15.01.2021	14:09:42	0	74,901104	3,754544	2,19075	311,0616	1,186	84,049	0	1015,28	8,8	10,2	10	1	1	1	1	1	1	1	1	1	0	1	-16,349542	275,665997	311,078491	0
15.01.2021	14:09:43	0	75,486205	4,209642	2,2215	314,0316	1,189	84,057	0	1015,22	8,8	10,2	10	1	1	1	1	1	1	1	1	1	0	1	-16,913319	275,644973	310,414839	0
15.01.2021	14:09:44	0	75,720206	3,754547	2,19975	313,2	1,191	84,052	0	1015,24	8,8	10,2	10	1	1	1	1	1	1	1	1	1	0	1	-12,966878	275,693524	314,591958	0
15.01.2021	14:09:45	0	75,486077	4,664743	2,196	317,79	1,192	84,038	0	1015,14	8,8	10,2	10	1	1	1	1	1	1	1	1	1	0	1	-12,755462	275,648206	314,588053	0
15.01.2021	14:09:46	0	75,486013	3,527002	2,25225	312,4224	1,194	84,045	0	1015,34	8,8	10,2	10	1	1	1	1	1	1	1	1	1	0	1	-18,040874	275,77634	309,911723	0
15.01.2021	14:09:47	0	75,251884	4,209649	2,37	317,7504	1,189	84,053	0	1015,3	8,8	10,2	10	1	1	1	1	1	1	1	1	1	0	1	-15,785765	275,784478	312,205546	0
15.01.2021	14:09:48	0	75,485885	2,503036	2,3955	322,83	1,189	84,05	0	1015,26	8,8	10,2	10	1	1	1	1	1	1	1	1	1	0	1	-14,728682	275,643357	312,591798	0
15.01.2021	14:09:49	0	75,485821	3,86833	2,29125	324,4212	1,193	84,062	0	1015,18	8,8	10,2	10	1	1	1	1	1	1	1	1	1	0	1	-15,292459	275,766579	312,613707	0
15.01.2021	14:09:50	0	75,60279	4,778527	2,2605	310,626	1,188	84,061	0	1015,2	8,8	10,2	10	1	1	1	1	1	1	1	1	1	0	1	-16,913319	275,802395	311,16323	0
15.01.2021	14:09:51	0	75,017565	2,958137	2,27025	325,9188	1,188	84,07	0	1015,28	8,8	10,2	10	1	1	1	1	1	1	1	1	1	0	1	-13,6716	275,691904	313,879536	0
15.01.2021	14:09:52	0	75,134534	3,868334	2,36625	315,2592	1,189	84,064	0	1015,3	8,8	10,2	10	1	1	1	1	1	1	1	1	1	0	1	-15,433404	275,635278	311,848702	0
15.01.2021	14:09:53	0	75,251502	2,844365	2,4375	322,2828	1,185	84,083	0	1015,2	8,8	10,2	10	1	1	1	1	1	1	1	1	1	0	1	-14,164905	275,664379	313,25544	0
15.01.2021	14:09:54	0	75,485502	3,868337	2,37375	329,9976	1,188	84,083	0	1015,28	8,8	10,2	10	1	1	1	1	1	1	1	1	1	0	1	-13,601128	275,70487	314,011634	0
15.01.2021	14:09:55	0	75,134343	3,185691	2,2785	328,9032	1,186	84,098	0	1015,28	8,8	10,2	10	1	1	1	1	1	1	1	1	1	0	1	-16,983791	275,810544	311,131535	0
15.01.2021	14:09:56	0	75,134279	2,958143	2,16075	323,3088	1,188	84,093	0	1015,28	8,8	10,2	10	1	1	1	1	1	1	1	1	1	0	1	-12,966878	275,708113	314,661298	0
15.01.2021	14:09:57	0	74,900152	3,299468	2,022	327,1464	1,186	84,107	0	1015,26	8,8	10,2	10	1	1	1	1	1	1	1	1	1	0	1	-16,631431	275,643357	310,68905	0
15.01.2021	14:09:58	0	75,602277	4,550993	1,88325	326,7324	1,179	84,095	0	1015,18	8,8	10,2	10	1	1	1	1	1	1	1	1	1	0	1	-13,03735	275,653057	314,329205	0
15.01.2021	14:09:59	0	75,485182	2,844372	1,9275	313,6284	1,185	84,104	0	1015,24	8,8	10,2	10	1	1	1	1	1	1	1	1	1	0	1	-18,111346	275,821958	310,0583	0
15.01.2021	14:10:00	0	75,250992	3,868372	1,86225	319,6044	1,185	84,142	0	1015,12	8,8	10,2	9,9	1	1	1	1	1	1	1	1	1	0	1	-16,842847	275,659526	310,554441	0
15.01.2021	14:10:01	0	75,250992	3,868372	1,86225	319,6044	1,185	84,142	0	1015,12	8,8	10,2	9,9	1	1	1	1	1	1	1	1	1	0	1	-13,460183	275,784478	314,531127	0
15.01.2021	14:10:02	0	75,367959	3,299495	1,82475	304,3872	1,186	84,137	0	1015,2	8,8	10,2	9,9	1	1	1	1	1	1	1	1	1	0	1	-11,275546	275,825221	316,909627	0
15.01.2021	14:10:03	0	75,367895	4,095902	1,71825	306,4428	1,179	84,149	0	1015,12	8,8	10,2	10	1	1	1	1	1	1	1	1	1	0	1	-15,926709	275,763326	311,963987	0
15.01.2021	14:10:04	0	75,367831	4,323454	1,5675	323,6688	1,181	84,15	0	1015,18	8,8	10,2	10	1	1	1	1	1	1	1	1	1	0	1	-18,393235	275,774713	309,551622	0
15.01.2021	14:10:05	0	75,484798	3,75458	1,476	325,5012	1,178	84,137	0	1015,34	8,8	10,2	10	1	1	1	1	1	1	1	1	1	0	1	-12,825934	275,774713	315,118923	0
15.01.2021	14:10:06	0	75,016611	3,754581	1,48275	332,8056	1,174	84,14	0	1015,26	8,8	10,2	10	1	1	1	1	1	1	1	1	1	0	1	-15,010571	275,815435	313,128031	0
15.01.2021	14:10:07	0	75,133578	3,640808	1,50975	338,3568	1,171	84,133	0	1015,22	8,8	10,2	10	1	1	1	1	1	1	1	1	1	0	1	-16,913319	275,756822	310,946445	0
15.01.2021	14:10:08	0	75,484605	4,551011	1,72875	333,8316	1,18	84,134	0	1015,4	8,8	10,2	10	1	1	1	1	1	1	1	1	1	0	1	-14,235377	275,628816	313,016043	0
15.01.2021	14:10:09	0	75,13345	4,095912	1,887	347,7168	1,178	84,13	0	1015,28	8,8	10,2	10	1	1	1	1	1	1	1	1	1	0	1	-16,983791	275,817066	311,16257	0
15.01.2021	14:10:10	0	75,367447	4,095963	2,0025	344,0088	1,179	84,123	0	1015,18	8,8	10,2	9,8	1	1	1	1	1	1	1	1	1	0	1	-15,433404	275,695145	312,133133	0
15.01.2021	14:10:11	0	75,484413	4,437241	2,2155	337,122	1,179	84,121	0	1015,22	8,8	10,2	10	1	1	1	1	1	1	1	1	1	0	1	-17,054264	275,804024	311,03004	0
15.01.2021	14:10:12	0	75,484349	3,299489	2,32275	323,3628	1,18	84,114	0	1015,2	8,8	10,2	10	1	1	1	1	1	1	1	1	1	0	1	-15,010571	275,711357	312,633022	0
15.01.2021	14:10:13	0	74,899135	3,29951	2,424	317,0844	1,177	84,131	0	1015,3	8,8	10,2	9,9	1	1	1	1	1	1	1	1	1	0	1	-14,728682	275,805654	313,363376	0
15.01.2021	14:10:14	0	75,367191	4,4373	2,595	329,3424	1,171	84,1	0	1015,14	8,8	10,2	9,8	1	1	1	1	1	1	1	1	1	0	1	-13,953488	275,786107	314,045567	0
15.01.2021	14:10:15	0	75,367127	3,07196	2,7975	336,4452	1,172	84,109	0	1015,18	8,8	10,2	9,9	1	1	1	1	1	1	1	1	1	0	1	-14,305849	275,72109	313,384015	0
15.01.2021	14:10:16	0	75,015974	3,071961	2,916	329,6628	1,175	84,113	0	1015,2	8,8	10,2	9,9	1	1	1	1	1	1	1	1	1	0	1	-16,560958	275,674089	310,905522	0
15.01.2021	14:10:17	0	74,781851	2,616857	2,97675	328,5792	1,173	84,116	0	1015,24	8,8	10,2	9,9	1	1	1	1	1	1	1	1	1	0	1	-13,953488	275,799136	314,107556	0
15.01.2021	14:10:18	0	75,249905	4,323504	2,97525	316,6056	1,172	84,132	0	1015,24	8,8	10,2	9,9	1	1	1	1	1	1	1	1	1	0	1	-17,054264	275,781223	310,921559	0
15.01.2021	14:10:19	0	75,132812	3,640825	2,94375	333,1008	1,171	84,123	0	1015,22	8,8	10,2	10	1	1	1	1	1	1	1	1	1	0	1	-14,094433	275,753571	313,749871	0
15.01.2021	14:10:20	0	74,898689	2,730653	2,94975	333,7164	1,183	84,127	0	1015,36	8,8	10,2	9,8	1	1	1	1	1	1	1	1	1	0	1	-14,023961	275,630432	313,23513	0
15.01.2021	14:10:21	0	75,132684	2,275531	2,9865	334,6632	1,167	84,129	0	1015,22	8,8	10,2	9,9	1	1	1	1	1	1	1	1	1	0	1	-14,869626	275,674089	312,596854	0
15.01.2021	14:10:22	0	75,366678	4,095934	2,95275	333,1116	1,17	84,143	0	1015,22	8,8	10,2	10	1	1	1	1	1	1	1	1	1	0	1	-15,433404	275,813804	312,697438	0
15.01.2021	14:10:23	0	75,366614	4,209737	2,871	332,0136	1,172	84,147	0	1015,08	8,8	10,2	9,9	1	1	1	1	1	1	1	1	1	0	1	-16,560958	275,695145	311,005579	0
15.01.2021	14:10:24	0	75,132492	3,640855	2,7735	328,6404	1,164	84,141	0	1015,18	8,8	10,2	9,9	1	1	1	1	1	1	1	1	1	0	1	-14,799154	275,635278	312,482952	0
15.01.2021	14:10:25	0	75,483514	5,119954	2,7795	341,6724	1,164	84,124	0	1015,06	8,8	10,2	9,9	1	1	1	1	1	1	1	1	1	0	1	-13,6716	275,753571	314,172704	0
15.01.2021	14:10:26	0	74,781278	2,730643	2,60175	339,7248	1,163	84,161	0	1015,26	8,8	10,2	9,9	1	1	1	1	1	1	1	1	1	0	1	-12,614517	275,670852	314,836582	0
15.01.2021	14:10:27	0	75,249328	4,32352	2,45025	337,482	1,168	84,162	0	1015,36	8,8	10,2	9,9	1	1	1	1	1	1	1	1	1	0	1	-13,601128	275,687044	313,926911	0
15.01.2021	14:10:28	0	74,781151	2,616869	2,4345	344,6172	1,168	84,157	0	1015,2	8,8	10,2	9,9	1	1	1	1	1	1	1	1	1	0	1	-15,856237	275,632047	311,410525	0
15.01.2021	14:10:29	0	75,015143	4,09597	2,2725	352,476	1,165	84,155	0	1015,18	8,8	10,2	9,9	1	1	1	1	1	1	1	1	1	0	1	-12,896406	275,745446	314,909258	0
15.01.2021	14:10:30	0	74,663995	2,27554	2,124	356,2416	1,167	84,155	0	1015,24	8,8	10,2	9,9	1	1	1	1	1	1	1	1	1	0	1	-14,446794	275,622357	312,773953	0
15.01.2021	14:10:31	0	75,3661	4,778636	2,02125	354,3012	1,159	84,139	0	1015,14	8,8	10,2	9,9	1	1	1	1	1	1	1	1	1	0	1	-13,953488	275,782851	314,030078	0
15.01.2021	14:10:32	0	74,897924	3,640867	1,99275	352,1232	1,162	84,143	0	1015,2	8,8	10,2	9,9	1	1	1	1	1	1	1	1	1	0	1	-15,010571	275,643357	312,30991	0
15.01.2021	14:10:33	0	75,014888	2,616858	1,99725	336,3588	1,162	84,136	0	1015,22	8,8	10,2	10	1	1	1	1	1	1	1	1	1	0	1	-11,980268	275,661143	315,424705	0
15.01.2021	14:10:34	0	75,131851	4,43731	2,133	344,6568	1,159	84,125	0	1015,22	8,8	10,2	9,9	1	1	1	1	1	1	1	1	1	0	1	-15,926709	275,794249	312,111084	0
15.01.2021	14:10:35	0	75,248815	4,664838	2,21625	342,0756	1,161	84,116	0	1015,2	8,8	10,2	10	1	1	1	1	1	1	1	1	1	0	1	-11,275546	275,747071	316,537844	0
15.01.2021	14:10:36	0	75,365778	4,778646	2,22075	346,5288	1,159	84,118	0	1015,24	8,8	10,2	9,9	1	1	1	1	1	1	1	1	1	0	1	-15,574348	275,678946	311,915211	0
15.01.2021	14:10:37	0	75,131659	3,41332	2,14275	330,408	1,162	84,109	0	1015,28	8,8	10,2	9,9	1	1	1	1	1	1	1	1	1	0	1	-13,178295	275,61106	313,988803	0
15.01.2021	14:10:38	0	75,131595	3,413321	2,0475	329,4468	1,157	84,11	0	1015,12	8,8	10,2	9,9	1	1	1	1	1	1	1	1	1	0	1	-16,138125	275,748696	311,682992	0
15.01.2021	14:10:39	0	75,248558	2,275548	2,11125	323,3052	1,156	84,086	0	1015,22	8,8	10,2	9,9	1	1	1	1	1	1	1	1	1	0	1	-14,446794	275,625587	312,789288	0
15.01.2021	14:10:40	0	75,131467	2,730659	2,0715	328,1688	1,154	84,08	0	1015,16	8,8	10,2	9,9	1	1	1	1	1	1	1	1	1	0	1	-14,164905	275,751946	313,671669	0
15.01.2021	14:10:41	0	74,780321	4,323545	2,10675	329,6664	1,155	84,097	0	1015,2	8,8	10,2	9,9	1	1	1	1	1	1	1	1	1	0	1	-16,208598	275,787735	311,798204	0
15.01.2021	14:10:42	0	74,897284	3,071994	2,09775	328,14	1,152	84,087	0	1015,22	8,8	10,2	9,9	1	1	1	1	1	1	1	1	1	0	1	-15,292459	275,737324	312,474585	0
15.01.2021	14:10:43	0	75,131274	3,982216	2,10525	332,0604	1,154	84,105	0	1015,26	8,8	10,2	9,9	1	1	1	1	1	1	1	1	1	0	1	-12,544045	275,797507	315,509248	0
15.01.2021	14:10:44	0	75,014183	2,503108	2,15325	331,4916	1,155	84,098	0	1015,16	8,8	10,2	9,9	1	1	1	1	1	1	1	1	1	0	1	-13,319239	275,665997	314,108794	0
15.01.2021	14:10:45	0	75,014119	4,209775	2,34825	337,1652	1,155	84,097	0	1015,18	8,8	10,2	9,9	1	1	1	1	1	1	1	1	1	0	1	-10,782241	275,619129	316,423173	0
15.01.2021	14:10:46	0	75,014055	3,982221	2,5695	342,1116	1,156	84,094	0	1015,36	8,8	10,2	9,9	1	1	1	1	1	1	1	1	1	0	1	-14,587738	275,760074	313,287491	0
15.01.2021	14:10:47	0	75,013465	4,551112	2,54175	341,298	1,146	84,1	0	1015,16	8,8	10,1	9,9	1	1	1	1	1	1	1	1	1	0	1	-14,235377	275,738948	313,53939	0
15.01.2021	14:10:48	0	74,779874	3,299557	2,448	343,9944	1,149	84,099	0	1015,12	8,8	10,2	9,9	1	1	1	1	1	1	1	1	1	0	1	-15,010571	275,800765	313,058226	0
15.01.2021	14:10:49	0	74,896312	3,868448	2,28075	342,7128	1,154	84,127	0	1015,26	8,8	10,1	9,9	1	1	1	1	1	1	1	1	1	0	1	-12,05074	275,678946	315,438819	0
15.01.2021	14:10:50	0	74,896772	2,503115	2,18925	337,5252	1,146	84,134	0	1015,22	8,8	10,2	9,9	1	1	1	1	1	1	1	1	1	0	1	-16,842847	275,598156	310,262984	0
15.01.2021	14:10:51	0	75,013734	3,868451	2,166	337,1724	1,149	84,134	0	1015,26	8,8	10,2	9,9	1	1	1	1	1	1	1	1	1	0	1	-10,782241	275,609446	316,377196	0
15.01.2021	14:10:52	0	75,247195	4,551121	2,106	330,0156	1,151	84,122	0	1015,2	8,8	10,1	9,9	1	1	1	1	1	1	1	1	1	0	1	-19,238901	275,750321	308,589945	0
15.01.2021	14:10:53	0	75,130632	3,868454	2,10825	333,5508	1,151	84,147	0	1015,42	8,8	10,2	9,9	1	1	1	1	1	1	1	1	1	0	1	-13,812544	275,661143	313,592429	0
15.01.2021	14:10:54	0	75,364619	4,437347	2,05875	329,6232	1,151	84,139	0	1015,36	8,8	10,2	9,9	1	1	1	1	1	1	1	1	1	0	1	-20,014094	275,808914	308,093475	0
15.01.2021	14:10:55	0	75,012952	2,844454	1,959	326,772	1,147	84,17	0	1015,24	8,8	10,1	9,9	1	1	1	1	1	1	1	1	1	0	1	-14,094433	275,698386	313,487509	0
15.01.2021	14:10:56	0	74,778838	3,299568	1,82625	331,074	1,154	84,162	0	1015,26	8,8	10,1	9,9	1	1	1	1	1	1	1	1	1	0	1	-14,728682	275,617515	312,469067	0
15.01.2021	14:10:57	0	74,779298	2,6169	1,75125	313,2468	1,145	84,187	0	1015,24	8,8	10,2	9,9	1	1	1	1	1	1	1	1	1	0	1	-20,5074	275,734076	307,244203	0
15.01.2021	14:10:58	0	74,77871	2,616901	1,75125	322,6608	1,15	84,187	0	1015,34	8,7	10,1	9,9	1	1	1	1	1	1	1	1	1	0	1	-15,856237	275,583649	311,180728	0
15.01.2021	14:10:59	0	75,012695	4,437356	1,8585	318,8196	1,148	84,19	0	1015,3	8,8	10,1	9,9	1	1	1	1	1	1	1	1	1	0	1	-14,799154	275,740572	312,983336	0
15.01.2021	14:11:00	0	74,895542	3,527132	1,89375	337,2192	1,139	84,209	0	1015,1	8,8	10,1	9,9	1	1	1	1	1	1	1	1	1	0	1	-15,151515	275,657908	312,238089	0
15.01.2021	14:11:01	0	74,895542	3,527132	1,89375	337,2192	1,139	84,209	0	1015,1	8,8	10,1	9,9	1	1	1	1	1	1	1	1	1	0	1	-13,601128	275,813804	314,529715	0
15.01.2021	14:11:02	0	75,130052	2,958241	1,95525	339,3252	1,145	84,206	0	1015,12	8,8	10,2	9,9	1	1	1	1	1	1	1	1	1	0	1	-15,081043	275,690284	312,462393	0
15.01.2021	14:11:03	0	75,012963	3,86847	1,9275	332,8056	1,151	84,227	0	1015,42	8,7	10,2	9,9	1	1	1	1	1	1	1	1	1	0	1	-15,292459	275,61106	311,874638	0
15.01.2021	14:11:04	0	75,129924	4,096029	1,78425	312,1524	1,147	84,223	0	1015,24	8,8	10,2	9,9	1	1	1	1	1	1	1	1	1	0	1	-12,614517	275,753571	315,229786	0
15.01.2021	14:11:05	0	75,129859	3,413359	1,69875	320,4288	1,144	84,238	0	1015,26	8,8	10,2	9,9	1	1	1	1	1	1	1	1	1	0	1	-15,64482	275,804024	312,439483	0
15.01.2021	14:11:06	0	75,01277	2,503131	1,707	324,522	1,142	84,238	0	1015,22	8,8	10,2	9,9	1	1	1	1	1	1	1	1	1	0	1	-13,883016	275,690284	313,660419	0
15.01.2021	14:11:07	0	75,246755	3,640919	1,6755	325,9404	1,138	84,24	0	1015,22	8,8	10,2	9,9	1	1	1	1	1	1	1	1	1	0	1	-18,040874	275,61106	309,126224	0
15.01.2021	14:11:08	0	75,12914	4,437372	1,70925	320,0544	1,145	84,264	0	1015,36	8,8	10,1	9,9	1	1	1	1	1	1	1	1	1	0	1	-15,503876	275,656291	311,878044	0
15.01.2021	14:11:09	0	74,895028	3,640922	1,6725	316,7244	1,147	84,241	0	1015,34	8,8	10,1	9,9	1	1	1	1	1	1	1	1	1	0	1	-17,89993	275,768205	310,013974	0
15.01.2021	14:11:10	0	75,012513	2,503135	1,728	314,8776	1,147	84,273	0	1015,34	8,8	10,2	9,9	1	1	1	1	1	1	1	1	1	0	1	-21,49401	275,70487	306,118752	0
15.01.2021	14:11:11	0	74,660853	2,958252	1,698	310,2804	1,15	84,284	0	1015,28	8,8	10,1	9,9	1	1	1	1	1	1	1	1	1	0	1	-14,305849	275,804024	313,778454	0
15.01.2021	14:11:12	0	74,894835	4,664938	1,7265	291,2292	1,148	84,289	0	1015,22	8,8	10,1	9,9	1	1	1	1	1	1	1	1	1	0	1	-13,601128	275,654674	313,77311	0
15.01.2021	14:11:13	0	74,4272	2,503138	1,68975	304,29	1,139	84,29	0	1015,26	8,8	10,2	9,9	1	1	1	1	1	1	1	1	1	0	1	-13,389711	275,617515	313,808039	0
15.01.2021	14:11:14	0	75,01173	4,551162	1,6695	297,558	1,145	84,286	0	1015,18	8,8	10,1	9,9	1	1	1	1	1	1	1	1	1	0	1	-13,460183	275,766579	314,445983	0
15.01.2021	14:11:15	0	74,777619	4,323606	1,74225	306,0756	1,151	84,312	0	1015,24	8,8	10,1	9,9	1	1	1	1	1	1	1	1	1	0	1	-12,05074	275,61106	315,116358	0
15.01.2021	14:11:16	0	75,011601	3,868491	1,8015	321,8184	1,144	84,309	0	1015,02	8,8	10,1	9,9	1	1	1	1	1	1	1	1	1	0	1	-15,574348	275,640125	311,73078	0
15.01.2021	14:11:17	0	74,894514	2,616922	1,791	322,6608	1,16	84,32	0	1015,36	8,8	10,1	9,9	1	1	1	1	1	1	1	1	1	0	1	-11,909796	275,748696	315,911322	0
15.01.2021	14:11:18	0	75,128494	3,640936	1,73625	322,9092	1,141	84,32	0	1015,14	8,8	10,1	9,9	1	1	1	1	1	1	1	1	1	0	1	-12,403101	275,795878	315,642442	0
15.01.2021	14:11:19	0	74,54384	2,616924	1,7205	314,0676	1,136	84,335	0	1015,28	8,8	10,2	9,9	1	1	1	1	1	1	1	1	1	0	1	-12,896406	275,777968	315,063932	0
15.01.2021	14:11:20	0	74,426231	2,616925	1,62075	327,1176	1,145	84,345	0	1015,16	8,8	10,1	9,9	1	1	1	1	1	1	1	1	1	0	1	-15,151515	275,751946	312,685059	0
15.01.2021	14:11:21	0	74,660211	2,503147	1,51275	351,9072	1,146	84,338	0	1015,14	8,7	10,1	9,9	1	1	1	1	1	1	1	1	1	0	1	-15,292459	275,794249	312,745333	0
15.01.2021	14:11:22	0	75,011214	4,09606	1,5225	320,7708	1,144	84,336	0	1015,26	8,8	10,1	9,9	1	1	1	1	1	1	1	1	1	0	1	-14,65821	275,640125	312,646918	0
15.01.2021	14:11:23	0	74,777629	4,209841	1,5375	317,7648	1,14	84,363	0	1015,3	8,7	10,2	9,9	1	1	1	1	1	1	1	1	1	0	1	-14,869626	275,794249	313,168166	0
15.01.2021	14:11:24	0	74,542997	2,958268	1,50375	316,7316	1,146	84,367	0	1015,26	8,8	10,1	9,9	1	1	1	1	1	1	1	1	1	0	1	-13,601128	275,691904	313,950008	0
15.01.2021	14:11:25	0	75,011546	4,209845	1,49175	313,2864	1,147	84,359	0	1015,16	8,8	10,2	9,9	1	1	1	1	1	1	1	1	1	0	1	-16,349542	275,614287	310,83288	0
15.01.2021	14:11:26	0	74,65989	3,299609	1,42275	316,9692	1,145	84,374	0	1015,28	8,7	10,1	9,9	1	1	1	1	1	1	1	1	1	0	1	-15,64482	275,670852	311,806279	0
15.01.2021	14:11:27	0	74,542804	3,185831	1,3815	306,432	1,147	84,367	0	1015,32	8,7	10,1	9,9	1	1	1	1	1	1	1	1	1	0	1	-12,825934	275,797507	315,227359	0
15.01.2021	14:11:28	0	74,776783	3,640951	1,38	300,96	1,147	84,388	0	1015,3	8,7	10,1	9,9	1	1	1	1	1	1	1	1	1	0	1	-14,65821	275,748696	313,162907	0
15.01.2021	14:11:29	0	75,010762	4,323631	1,4595	299,7648	1,15	84,404	0	1015,22	8,8	10,1	9,9	1	1	1	1	1	1	1	1	1	0	1	-15,574348	275,614287	311,608074	0
15.01.2021	14:11:30	0	74,893676	3,185835	1,467	303,5592	1,152	84,408	0	1015,08	8,7	10,1	9,9	1	1	1	1	1	1	1	1	1	0	1	-13,389711	275,628816	313,861709	0
15.01.2021	14:11:31	0	75,010633	4,551195	1,3485	309,924	1,151	84,406	0	1015,22	8,8	10,1	9,9	1	1	1	1	1	1	1	1	1	0	1	-15,292459	275,7617	312,590502	0
15.01.2021	14:11:32	0	74,308441	2,503158	1,29	303,9264	1,15	84,417	0	1015,26	8,8	10,1	9,9	1	1	1	1	1	1	1	1	1	0	1	-15,715292	275,636893	311,574487	0
15.01.2021	14:11:33	0	74,776461	4,437392	1,203	307,6488	1,147	84,427	0	1015,16	8,7	10,1	10	1	1	1	1	1	1	1	1	1	0	1	-16,842847	275,787735	311,163954	0
15.01.2021	14:11:34	0	74,776397	3,07206	1,164	299,0592	1,151	84,432	0	1015,3	8,8	10,1	9,9	1	1	1	1	1	1	1	1	1	0	1	-15,292459	275,638509	312,004994	0
15.01.2021	14:11:35	0	74,659311	3,299622	1,2345	306,1692	1,149	84,441	0	1015,26	8,7	10,1	9,9	1	1	1	1	1	1	1	1	1	0	1	-14,235377	275,641741	313,077427	0
15.01.2021	14:11:36	0	74,776268	4,664984	1,329	301,2624	1,145	84,417	0	1015,16	8,8	10,1	9,9	1	1	1	1	1	1	1	1	1	0	1	-17,195208	275,779595	310,772872	0
15.01.2021	14:11:37	0	74,776203	2,730724	1,50225	302,8788	1,146	84,431	0	1015,28	8,8	10,1	9,9	1	1	1	1	1	1	1	1	1	0	1	-18,040874	275,670852	309,410225	0
15.01.2021	14:11:38	0	74,776139	2,730725	1,65	304,3152	1,152	84,44	0	1015,28	8,8	10,1	9,9	1	1	1	1	1	1	1	1	1	0	1	-17,054264	275,777968	310,906075	0
15.01.2021	14:11:39	0	74,776074	2,730726	1,653	305,8992	1,146	84,42	0	1015,2	8,7	10,1	9,9	1	1	1	1	1	1	1	1	1	0	1	-16,138125	275,727582	311,582601	0
15.01.2021	14:11:40	0	74,658989	4,551212	1,677	307,1844	1,15	84,416	0	1015,34	8,8	10,1	9,9	1	1	1	1	1	1	1	1	1	0	1	-14,094433	275,797507	313,958861	0
15.01.2021	14:11:41	0	74,892966	4,209847	1,69125	310,266	1,149	84,416	0	1015,24	8,8	10,1	10	1	1	1	1	1	1	1	1	1	0	1	-13,6716	275,677327	313,810266	0
15.01.2021	14:11:42	0	75,009921	4,209849	1,68	306,8244	1,137	84,407	0	1015,2	8,7	10,1	10	1	1	1	1	1	1	1	1	1	0	1	-12,684989	275,794249	315,352803	0
15.01.2021	14:11:43	0	74,77634	4,209876	1,548	311,5332	1,145	84,412	0	1015,16	8,7	10,2	9,9	1	1	1	1	1	1	1	1	1	0	1	-11,486963	275,7357	316,27236	0
15.01.2021	14:11:44	0	74,892772	2,730732	1,3935	296,8164	1,138	84,391	0	1015,28	8,8	10,1	9,9	1	1	1	1	1	1	1	1	1	0	1	-17,477097	275,60622	309,66702	0
15.01.2021	14:11:45	0	74,775687	3,299635	1,35	300,1644	1,147	84,409	0	1015,22	8,7	10,1	9,9	1	1	1	1	1	1	1	1	1	0	1	-15,151515	275,680565	312,345738	0
15.01.2021	14:11:46	0	74,424563	3,299637	1,36125	294,2496	1,142	84,409	0	1015,18	8,7	10,1	9,9	1	1	1	1	1	1	1	1	1	0	1	-16,772375	275,807284	311,327438	0
15.01.2021	14:11:47	0	74,541519	2,161832	1,416	293,7564	1,145	84,388	0	1015,22	8,8	10,1	9,9	1	1	1	1	1	1	1	1	1	0	1	-15,856237	275,745446	311,949427	0
15.01.2021	14:11:48	0	74,541454	4,437446	1,52175	308,124	1,145	84,395	0	1015,24	8,8	10,1	9,9	1	1	1	1	1	1	1	1	1	0	1	-10,570825	275,77634	317,381772	0
15.01.2021	14:11:49	0	74,775429	2,730721	1,58325	302,454	1,141	84,388	0	1015,3	8,8	10,1	10	1	1	1	1	1	1	1	1	1	0	1	-12,896406	275,753571	314,947897	0
15.01.2021	14:11:50	0	74,541325	3,868523	1,5765	298,9692	1,146	84,398	0	1015,28	8,7	10,1	10	1	1	1	1	1	1	1	1	1	0	1	-15,292459	275,771459	312,636919	0
15.01.2021	14:11:51	0	74,541783	2,048055	1,665	300,4056	1,14	84,377	0	1015,34	8,7	10,2	9,9	1	1	1	1	1	1	1	1	1	0	1	-13,03735	275,725959	314,67566	0
15.01.2021	14:11:52	0	74,658216	3,98233	1,6425	301,2984	1,15	84,375	0	1015,2	8,8	10,1	9,9	1	1	1	1	1	1	1	1	1	0	1	-17,477097	275,79262	310,552947	0
15.01.2021	14:11:53	0	74,658151	2,048056	1,5675	297,2808	1,144	84,36	0	1015,2	8,7	10,1	9,9	1	1	1	1	1	1	1	1	1	0	1	-12,825934	275,665997	314,602099	0
15.01.2021	14:11:54	0	74,775106	3,185867	1,5285	308,862	1,147	84,374	0	1015,12	8,7	10,1	9,9	1	1	1	1	1	1	1	1	1	0	1	-13,883016	275,615901	313,307069	0
15.01.2021	14:11:55	0	74,658022	2,503167	1,482	312,498	1,139	84,366	0	1015,12	8,7	10,1	10	1	1	1	1	1	1	1	1	1	0	1	-19,168428	275,662761	308,24423	0
15.01.2021	14:11:56	0	74,891995	3,29965	1,40925	325,2384	1,142	84,365	0	1015,16	8,7	10,1	9,9	1	1	1	1	1	1	1	1	1	0	1	-11,41649	275,769832	316,50515	0
15.01.2021	14:11:57	0	74,657893	2,730763	1,39275	319,5936	1,142	84,376	0	1015,26	8,7	10,1	9,8	1	1	1	1	1	1	1	1	1	0	1	-9,936575	275,594931	317,153947	0
15.01.2021	14:11:58	0	74,54081	4,778808	1,36575	308,1384	1,144	84,369	0	1015,28	8,7	10,1	9,9	1	1	1	1	1	1	1	1	1	0	1	-15,785765	275,698386	311,796178	0
15.01.2021	14:11:59	0	74,657764	3,185873	1,2645	316,2348	1,146	84,376	0	1015,3	8,7	10,1	9,9	1	1	1	1	1	1	1	1	1	0	1	-15,292459	275,612673	311,8823	0
15.01.2021	14:12:00	0	74,657634	4,892566	1,095	340,6248	1,141	84,372	0	1015,2	8,8	10,1	10	1	1	1	1	1	1	1	1	1	0	1	-15,503876	275,633662	311,770557	0
15.01.2021	14:12:01	0	74,657634	4,892566	1,095	340,6248	1,141	84,372	0	1015,2	8,8	10,1	10	1	1	1	1	1	1	1	1	1	0	1	-14,65821	275,779595	313,30987	0
15.01.2021	14:12:02	0	74,658093	3,982347	1,0755	324,7884	1,14	84,382	0	1015,2	8,7	10,2	9,9	1	1	1	1	1	1	1	1	1	0	1	-16,560958	275,7617	311,322004	0
15.01.2021	14:12:03	0	74,306971	3,29964	1,05525	303,21	1,145	84,364	0	1015,2	8,8	10,2	10	1	1	1	1	1	1	1	1	1	0	1	-14,376321	275,636893	312,913458	0
15.01.2021	14:12:04	0	74,774982	4,096132	1,04775	324,0684	1,138	84,367	0	1015,22	8,8	10,2	9,9	1	1	1	1	1	1	1	1	1	0	1	-16,27907	275,782851	311,704497	0
15.01.2021	14:12:05	0	74,774393	4,665013	1,07775	327,8664	1,143	84,38	0	1015,28	8,7	10,1	10	1	1	1	1	1	1	1	1	1	0	1	-11,557435	275,678946	315,932124	0
15.01.2021	14:12:06	0	74,18924	3,299644	1,18575	295,5672	1,142	84,37	0	1015,36	8,7	10,1	10	1	1	1	1	1	1	1	1	1	0	1	-16,138125	275,598156	310,967705	0
15.01.2021	14:12:07	0	74,774264	4,209893	1,3005	293,346	1,141	84,367	0	1015,3	8,7	10,1	10	1	1	1	1	1	1	1	1	1	0	1	-13,178295	275,662761	314,234364	0
15.01.2021	14:12:08	0	74,306129	4,665018	1,37325	313,2756	1,143	84,368	0	1015,22	8,7	10,1	10	1	1	1	1	1	1	1	1	1	0	1	-16,913319	275,779595	311,054761	0
15.01.2021	14:12:09	0	74,540099	3,868554	1,43775	291,4488	1,141	84,379	0	1015,14	8,7	10,1	10	1	1	1	1	1	1	1	1	1	0	1	-11,134602	275,64659	316,201234	0
15.01.2021	14:12:10	0	74,306	3,641015	1,43475	302,8608	1,143	84,35	0	1015,28	8,7	10,1	9,9	1	1	1	1	1	1	1	1	1	0	1	-18,88654	275,638509	308,410914	0
15.01.2021	14:12:11	0	74,422953	4,437462	1,437	303,4404	1,132	84,369	0	1015,28	8,7	10,1	10	1	1	1	1	1	1	1	1	1	0	1	-12,825934	275,782851	315,157633	0
15.01.2021	14:12:12	0	74,305871	4,323683	1,41975	289,6128	1,137	84,36	0	1015,3	8,7	10,1	10	1	1	1	1	1	1	1	1	1	0	1	-11,768851	275,674089	315,69763	0
15.01.2021	14:12:13	0	74,189309	3,072092	1,41525	303,9444	1,136	84,361	0	1015,24	8,7	10,2	10	1	1	1	1	1	1	1	1	1	0	1	-13,248767	275,644973	314,079391	0
15.01.2021	14:12:14	0	74,189245	2,730749	1,32075	306,1764	1,132	84,363	0	1015,2	8,7	10,2	10	1	1	1	1	1	1	1	1	1	0	1	-14,587738	275,768205	313,326165	0
15.01.2021	14:12:15	0	74,422695	2,616985	1,29525	307,1232	1,136	84,364	0	1015,16	8,7	10,1	9,9	1	1	1	1	1	1	1	1	1	0	1	-14,517266	275,612673	312,657494	0
15.01.2021	14:12:16	0	74,539647	3,868588	1,3665	310,0284	1,136	84,364	0	1015,3	8,7	10,1	9,9	1	1	1	1	1	1	1	1	1	0	1	-12,684989	275,693524	314,873846	0
15.01.2021	14:12:17	0	74,305549	2,389423	1,398	310,3668	1,139	84,373	0	1015,22	8,7	10,1	9,9	1	1	1	1	1	1	1	1	1	0	1	-15,715292	275,598156	311,390538	0
15.01.2021	14:12:18	0	74,305484	2,958317	1,40775	312,48	1,133	84,354	0	1015,08	8,7	10,1	10	1	1	1	1	1	1	1	1	1	0	1	-12,755462	275,732453	314,988421	0
15.01.2021	14:12:19	0	74,656992	4,209939	1,40175	312,4512	1,13	84,355	0	1015,24	8,7	10,2	9,9	1	1	1	1	1	1	1	1	1	0	1	-11,41649	275,625587	315,819591	0
15.01.2021	14:12:20	0	74,188339	2,389426	1,48575	311,8464	1,134	84,368	0	1015,28	8,7	10,1	9,9	1	1	1	1	1	1	1	1	1	0	1	-20,366455	275,693524	307,192381	0
15.01.2021	14:12:21	0	74,422828	4,209918	1,5735	301,5792	1,134	84,367	0	1015,28	8,7	10,2	10	1	1	1	1	1	1	1	1	1	0	1	-11,557435	275,612673	315,617325	0
15.01.2021	14:12:22	0	74,305747	4,096162	1,5405	311,04	1,132	84,364	0	1015,2	8,7	10,2	9,9	1	1	1	1	1	1	1	1	1	0	1	-13,812544	275,675708	313,661629	0
15.01.2021	14:12:23	0	74,071129	4,323755	1,49925	313,1892	1,134	84,375	0	1015,26	8,7	10,1	9,8	1	1	1	1	1	1	1	1	1	0	1	-17,195208	275,766579	310,710959	0
15.01.2021	14:12:24	0	73,954049	3,072106	1,51875	296,8704	1,131	84,368	0	1015,3	8,7	10,1	10	1	1	1	1	1	1	1	1	1	0	1	-15,433404	275,664379	311,986942	0
15.01.2021	14:12:25	0	74,07152	4,209925	1,5615	304,7004	1,131	84,362	0	1015,26	8,7	10,2	10	1	1	1	1	1	1	1	1	1	0	1	-15,433404	275,787735	312,573398	0
15.01.2021	14:12:26	0	74,187952	3,413454	1,536	302,0688	1,132	84,356	0	1015,32	8,7	10,1	10	1	1	1	1	1	1	1	1	1	0	1	-11,839323	275,623972	315,38909	0
15.01.2021	14:12:27	0	74,188407	3,07211	1,491	310,8924	1,135	84,364	0	1015,38	8,7	10,2	10	1	1	1	1	1	1	1	1	1	0	1	-11,134602	275,743821	316,663337	0
15.01.2021	14:12:28	0	74,421854	4,437547	1,437	301,6044	1,124	84,367	0	1015,22	8,7	10,1	9,8	1	1	1	1	1	1	1	1	1	0	1	-13,178295	275,790992	314,844001	0
15.01.2021	14:12:29	0	74,305294	3,527282	1,335	300,798	1,137	84,373	0	1015,3	8,7	10,2	9,8	1	1	1	1	1	1	1	1	1	0	1	-13,601128	275,758448	314,266369	0
15.01.2021	14:12:30	0	74,30523	2,048076	1,27875	300,816	1,131	84,375	0	1015,38	8,7	10,2	10	1	1	1	1	1	1	1	1	1	0	1	-13,6716	275,65144	313,687275	0
15.01.2021	14:12:31	0	73,954117	2,958333	1,29675	293,0148	1,127	84,371	0	1015,2	8,7	10,2	10	1	1	1	1	1	1	1	1	1	0	1	-18,111346	275,768205	309,802557	0
15.01.2021	14:12:32	0	73,837037	2,844552	1,32375	300,402	1,134	84,386	0	1015,28	8,7	10,2	10	1	1	1	1	1	1	1	1	1	0	1	-22,903453	275,734076	304,848149	0
15.01.2021	14:12:33	0	73,95347	2,844553	1,2855	318,4524	1,138	84,381	0	1015,36	8,7	10,1	10	1	1	1	1	1	1	1	1	1	0	1	-13,812544	275,598156	313,293287	0
15.01.2021	14:12:34	0	74,187955	3,527248	1,2675	309,2292	1,132	84,395	0	1015,32	8,7	10,2	10	1	1	1	1	1	1	1	1	1	0	1	-13,03735	275,755197	314,814683	0
15.01.2021	14:12:35	0	74,187371	2,616991	1,21125	299,7828	1,13	84,385	0	1015,28	8,7	10,1	10	1	1	1	1	1	1	1	1	1	0	1	-12,896406	275,649823	314,454788	0
15.01.2021	14:12:36	0	74,421857	4,437509	1,19175	316,6776	1,135	84,387	0	1015,3	8,8	10,2	10	1	1	1	1	1	1	1	1	1	0	1	-13,03735	275,751946	314,799224	0
15.01.2021	14:12:37	0	73,602684	2,275646	1,2015	314,3952	1,13	84,408	0	1015,24	8,7	10,2	10	1	1	1	1	1	1	1	1	1	0	1	-10,782241	275,625587	316,453841	0
15.01.2021	14:12:38	0	74,070681	3,072161	1,2645	320,6988	1,13	84,39	0	1015,36	8,7	10,2	9,8	1	1	1	1	1	1	1	1	1	0	1	-14,728682	275,782851	313,254884	0
15.01.2021	14:12:39	0	74,070617	4,551351	1,3035	319,9608	1,131	84,385	0	1015,34	8,7	10,2	9,8	1	1	1	1	1	1	1	1	1	0	1	-14,940099	275,7357	312,819224	0
15.01.2021	14:12:40	0	74,187048	4,210002	1,3155	299,7828	1,127	84,379	0	1015,16	8,8	10,1	9,8	1	1	1	1	1	1	1	1	1	0	1	-11,134602	275,601381	315,986541	0
15.01.2021	14:12:41	0	74,186983	4,551301	1,4145	309,96	1,13	84,392	0	1015,22	8,7	10,1	10	1	1	1	1	1	1	1	1	1	0	1	-12,332629	275,602994	314,796172	0
15.01.2021	14:12:42	0	74,303933	3,185912	1,45275	310,2912	1,131	84,393	0	1015,3	8,7	10,1	10	1	1	1	1	1	1	1	1	1	0	1	-15,221987	275,745446	312,583677	0
15.01.2021	14:12:43	0	73,836329	2,958348	1,464	311,4036	1,129	84,376	0	1015,18	8,7	10,2	10	1	1	1	1	1	1	1	1	1	0	1	-13,460183	275,601381	313,66096	0
15.01.2021	14:12:44	0	74,070294	3,641089	1,46475	318,15	1,131	84,374	0	1015,22	8,7	10,2	9,8	1	1	1	1	1	1	1	1	1	0	1	-9,44327	275,654674	317,930968	0
15.01.2021	14:12:45	0	74,187244	3,299738	1,4535	312,156	1,126	84,387	0	1015,26	8,7	10,2	9,8	1	1	1	1	1	1	1	1	1	0	1	-15,926709	275,724336	311,778585	0
15.01.2021	14:12:46	0	73,95315	3,754831	1,36875	315,2484	1,128	84,397	0	1015,28	8,7	10,2	10	1	1	1	1	1	1	1	1	1	0	1	-11,909796	275,740572	315,872694	0
15.01.2021	14:12:47	0	74,186595	4,551312	1,32975	313,218	1,125	84,391	0	1015,18	8,7	10,1	10	1	1	1	1	1	1	1	1	1	0	1	-12,966878	275,730829	314,769285	0
15.01.2021	14:12:48	0	73,601463	2,617006	1,35825	316,6704	1,129	84,395	0	1015,32	8,7	10,1	10	1	1	1	1	1	1	1	1	1	0	1	-16,27907	275,794249	311,758723	0
15.01.2021	14:12:49	0	74,069971	4,551371	1,347	319,1616	1,125	84,389	0	1015,26	8,7	10,2	9,8	1	1	1	1	1	1	1	1	1	0	1	-16,842847	275,625587	310,393235	0
15.01.2021	14:12:50	0	73,718348	2,730823	1,36725	321,48	1,129	84,402	0	1015,28	8,7	10,1	9,8	1	1	1	1	1	1	1	1	1	0	1	-13,319239	275,790992	314,703057	0
15.01.2021	14:12:51	0	74,069842	3,413531	1,43475	323,784	1,128	84,399	0	1015,12	8,7	10,2	9,8	1	1	1	1	1	1	1	1	1	0	1	-11,346018	275,730829	316,390145	0
15.01.2021	14:12:52	0	73,601721	3,072179	1,506	324,7092	1,13	84,398	0	1015,28	8,8	10,2	9,8	1	1	1	1	1	1	1	1	1	0	1	-13,6716	275,61106	313,495498	0
15.01.2021	14:12:53	0	73,952698	4,323809	1,50375	328,8744	1,127	84,405	0	1015,36	8,7	10,2	9,8	1	1	1	1	1	1	1	1	1	0	1	-9,302326	275,653057	318,06423	0
15.01.2021	14:12:54	0	73,718606	2,958397	1,482	328,9212	1,126	84,386	0	1015,2	8,7	10,2	9,8	1	1	1	1	1	1	1	1	1	0	1	-13,389711	275,607833	313,762065	0
15.01.2021	14:12:55	0	73,835556	3,982459	1,46625	322,542	1,125	84,412	0	1015,26	8,7	10,2	9,8	1	1	1	1	1	1	1	1	1	0	1	-16,27907	275,654674	311,095168	0
15.01.2021	14:12:56	0	73,484451	3,641107	1,449	322,9452	1,125	84,393	0	1015,36	8,7	10,2	9,8	1	1	1	1	1	1	1	1	1	0	1	-11,134602	275,588483	315,925311	0
15.01.2021	14:12:57	0	74,069453	2,730832	1,4415	321,8724	1,126	84,401	0	1015,26	8,7	10,2	9,8	1	1	1	1	1	1	1	1	1	0	1	-16,138125	275,70487	311,474636	0
15.01.2021	14:12:58	0	73,835362	4,665173	1,41	322,1784	1,128	84,408	0	1015,28	8,7	10,2	9,8	1	1	1	1	1	1	1	1	1	0	1	-17,477097	275,604606	309,659362	0
15.01.2021	14:12:59	0	73,952311	3,982466	1,38675	319,6512	1,125	84,413	0	1015,2	8,7	10,2	9,8	1	1	1	1	1	1	1	1	1	0	1	-16,842847	275,622357	310,3779	0
15.01.2021	14:13:00	0	73,601142	3,413545	1,44525	315,3276	1,126	84,421	0	1015,22	8,7	10,2	9,8	1	1	1	1	1	1	1	1	1	0	1	-17,688513	275,643357	309,631968	0
15.01.2021	14:13:01	0	73,601142	3,413545	1,44525	315,3276	1,126	84,421	0	1015,22	8,7	10,2	9,8	1	1	1	1	1	1	1	1	1	0	1	-13,530655	275,612673	313,644104	0
15.01.2021	14:13:02	0	73,367052	2,844622	1,443	327,906	1,121	84,419	0	1015,16	8,7	10,2	9,8	1	1	1	1	1	1	1	1	1	0	1	-14,869626	275,773086	313,067491	0
15.01.2021	14:13:03	0	74,186077	4,778967	1,458	326,4228	1,124	84,43	0	1015,36	8,7	10,2	9,8	1	1	1	1	1	1	1	1	1	0	1	-10,641297	275,758448	317,226199	0
15.01.2021	14:13:04	0	73,483937	4,437614	1,4655	321,498	1,125	84,414	0	1015,24	8,7	10,2	9,8	1	1	1	1	1	1	1	1	1	0	1	-15,574348	275,654674	311,79989	0
15.01.2021	14:13:05	0	73,717897	2,389486	1,38675	326,484	1,127	84,426	0	1015,32	8,8	10,2	9,8	1	1	1	1	1	1	1	1	1	0	1	-10,218464	275,632047	317,048298	0
15.01.2021	14:13:06	0	73,366796	2,275702	1,31475	313,5708	1,128	84,431	0	1015,38	8,7	10,2	9,8	1	1	1	1	1	1	1	1	1	0	1	-13,812544	275,730829	313,923619	0
15.01.2021	14:13:07	0	73,951793	4,323835	1,28175	318,8016	1,123	84,431	0	1015,3	8,7	10,2	9,8	1	1	1	1	1	1	1	1	1	0	1	-12,614517	275,633662	314,659916	0
15.01.2021	14:13:08	0	73,483679	3,982481	1,332	323,3124	1,128	84,423	0	1015,1	8,8	10,2	9,8	1	1	1	1	1	1	1	1	1	0	1	-18,111346	275,786107	309,88771	0
15.01.2021	14:13:09	0	73,717639	4,665194	1,398	325,152	1,124	84,433	0	1015,26	8,7	10,2	9,8	1	1	1	1	1	1	1	1	1	0	1	-15,292459	275,727582	312,428267	0
15.01.2021	14:13:10	0	73,366539	2,844632	1,335	316,6632	1,122	84,419	0	1015,22	8,7	10,2	9,8	1	1	1	1	1	1	1	1	1	0	1	-13,178295	275,599768	313,935192	0
15.01.2021	14:13:11	0	73,600498	2,275706	1,33575	314,0496	1,129	84,439	0	1015,28	8,7	10,2	9,8	1	1	1	1	1	1	1	1	1	0	1	-15,433404	275,623972	311,79501	0
15.01.2021	14:13:12	0	73,717445	4,323844	1,338	326,0664	1,126	84,434	0	1015,02	8,7	10,2	9,8	1	1	1	1	1	1	1	1	1	0	1	-10,500352	275,620743	316,712728	0
15.01.2021	14:13:13	0	73,600369	5,347915	1,38525	324,1332	1,121	84,432	0	1015,24	8,8	10,2	9,8	1	1	1	1	1	1	1	1	1	0	1	-16,138125	275,755197	311,713908	0
15.01.2021	14:13:14	0	73,483293	3,641135	1,404	325,4724	1,124	84,415	0	1015,24	8,7	10,2	9,8	1	1	1	1	1	1	1	1	1	0	1	-18,534179	275,717845	309,140258	0
15.01.2021	14:13:15	0	73,015183	3,641136	1,39575	331,9704	1,12	84,44	0	1015,24	8,8	10,2	9,8	1	1	1	1	1	1	1	1	1	0	1	-15,64482	275,769832	312,27682	0
15.01.2021	14:13:16	0	73,482649	3,754924	1,3485	322,704	1,122	84,455	0	1015,24	8,7	10,1	9,8	1	1	1	1	1	1	1	1	1	0	1	-15,503876	275,722713	312,193703	0
15.01.2021	14:13:17	0	73,834134	4,437639	1,29975	317,7432	1,129	84,448	0	1015,32	8,8	10,2	9,8	1	1	1	1	1	1	1	1	1	0	1	-11,557435	275,594931	315,533087	0
15.01.2021	14:13:18	0	73,366024	4,210069	1,39875	329,6448	1,126	84,455	0	1015,36	8,8	10,2	9,8	1	1	1	1	1	1	1	1	1	0	1	-14,517266	275,654674	312,856972	0
15.01.2021	14:13:19	0	73,599982	4,778942	1,4505	327,258	1,125	84,441	0	1015,28	8,8	10,2	10	1	1	1	1	1	1	1	1	1	0	1	-12,684989	275,771459	315,244389	0
15.01.2021	14:13:20	0	73,599917	4,779002	1,467	325,494	1,123	84,464	0	1015,34	8,7	10,2	9,8	1	1	1	1	1	1	1	1	1	0	1	-15,926709	275,693524	311,632127	0
15.01.2021	14:13:21	0	73,599853	3,641146	1,437	325,998	1,129	84,471	0	1015,36	8,7	10,2	9,8	1	1	1	1	1	1	1	1	1	0	1	-16,420014	275,760074	311,455215	0
15.01.2021	14:13:22	0	73,248756	4,096291	1,422	318,8376	1,119	84,461	0	1015,28	8,7	10,2	9,8	1	1	1	1	1	1	1	1	1	0	1	-13,883016	275,657908	313,506588	0
15.01.2021	14:13:23	0	73,599724	4,43765	1,425	321,8688	1,123	84,477	0	1015,28	8,7	10,2	9,8	1	1	1	1	1	1	1	1	1	0	1	-12,966878	275,58526	314,077735	0
15.01.2021	14:13:24	0	73,83368	4,778952	1,38525	309,9456	1,126	84,472	0	1015,34	8,7	10,2	10	1	1	1	1	1	1	1	1	1	0	1	-14,235377	275,725959	313,477633	0
15.01.2021	14:13:25	0	73,014542	3,527366	1,39275	315,5148	1,124	84,478	0	1015,42	8,7	10,2	9,8	1	1	1	1	1	1	1	1	1	0	1	-15,362932	275,604606	311,773527	0
15.01.2021	14:13:26	0	73,365509	3,527367	1,467	317,0772	1,133	84,489	0	1015,12	8,7	10,2	9,8	1	1	1	1	1	1	1	1	1	0	1	-16,560958	275,632047	310,705803	0
15.01.2021	14:13:27	0	72,897403	2,617049	1,46625	315,5364	1,129	84,507	0	1015,32	8,8	10,2	10	1	1	1	1	1	1	1	1	1	0	1	-15,292459	275,724336	312,412834	0
15.01.2021	14:13:28	0	72,897339	2,95844	1,446	318,8628	1,13	84,52	0	1015,34	8,7	10,2	9,8	1	1	1	1	1	1	1	1	1	0	1	-12,332629	275,564323	314,612611	0
15.01.2021	14:13:29	0	72,897275	2,503266	1,4385	326,754	1,125	84,504	0	1015,22	8,7	10,2	10	1	1	1	1	1	1	1	1	1	0	1	-10,42988	275,630432	316,82921	0
15.01.2021	14:13:30	0	73,014221	2,844656	1,428	319,1688	1,12	84,525	0	1015,16	8,7	10,2	9,8	1	1	1	1	1	1	1	1	1	0	1	-13,601128	275,591707	313,474088	0
15.01.2021	14:13:31	0	73,365187	4,551451	1,4445	321,2748	1,129	84,527	0	1015,42	8,7	10,2	9,8	1	1	1	1	1	1	1	1	1	0	1	-16,349542	275,677327	311,132324	0
15.01.2021	14:13:32	0	73,365122	4,210094	1,44375	326,3904	1,126	84,547	0	1015,16	8,7	10,2	9,8	1	1	1	1	1	1	1	1	1	0	1	-16,138125	275,580427	310,883544	0
15.01.2021	14:13:33	0	72,897019	4,437669	1,47075	323,298	1,118	84,533	0	1015,24	8,7	10,2	9,8	1	1	1	1	1	1	1	1	1	0	1	-13,6716	275,773086	314,265517	0
15.01.2021	14:13:34	0	72,896955	2,958447	1,43475	336,7764	1,128	84,552	0	1015,28	8,8	10,2	9,8	1	1	1	1	1	1	1	1	1	0	1	-14,446794	275,65144	312,912081	0
15.01.2021	14:13:35	0	72,779881	3,186021	1,42575	330,8076	1,127	84,562	0	1015,3	8,7	10,2	9,8	1	1	1	1	1	1	1	1	1	0	1	-16,560958	275,58526	310,483655	0
15.01.2021	14:13:36	0	73,130845	2,844663	1,4565	330,7644	1,128	84,542	0	1015,24	8,8	10,2	9,8	1	1	1	1	1	1	1	1	1	0	1	-12,473573	275,722713	315,224006	0
15.01.2021	14:13:37	0	73,130781	3,754957	1,39575	334,962	1,126	84,573	0	1015,36	8,8	10,2	9,8	1	1	1	1	1	1	1	1	1	0	1	-10,711769	275,654674	316,662469	0
15.01.2021	14:13:38	0	72,545671	2,844666	1,34775	338,5836	1,133	84,587	0	1015,4	8,8	10,2	9,8	1	1	1	1	1	1	1	1	1	0	1	-14,235377	275,615901	312,954708	0
15.01.2021	14:13:39	0	73,130652	3,07224	1,2135	333,4212	1,13	84,591	0	1015,28	8,8	10,2	9,8	1	1	1	1	1	1	1	1	1	0	1	-16,349542	275,730829	311,386621	0
15.01.2021	14:13:40	0	72,779561	3,299815	1,13625	322,2216	1,128	84,594	0	1015,18	8,8	10,2	9,8	1	1	1	1	1	1	1	1	1	0	1	-17,195208	275,590095	309,872356	0
15.01.2021	14:13:41	0	73,130523	2,844669	1,10175	317,7864	1,123	84,609	0	1015,22	8,8	10,2	9,8	1	1	1	1	1	1	1	1	1	0	1	-11,980268	275,688664	315,555469	0
15.01.2021	14:13:42	0	72,662424	3,413604	1,14825	327,8016	1,132	84,614	0	1015,38	8,7	10,2	9,8	1	1	1	1	1	1	1	1	1	0	1	-12,684989	275,781223	315,290833	0
15.01.2021	14:13:43	0	73,130395	3,98254	1,11075	329,4684	1,131	84,625	0	1015,32	8,7	10,2	9,8	1	1	1	1	1	1	1	1	1	0	1	-18,040874	275,662761	309,371785	0
15.01.2021	14:13:44	0	72,896313	3,982542	1,05675	320,8032	1,132	84,629	0	1015,14	8,8	10,2	9,8	1	1	1	1	1	1	1	1	1	0	1	-14,235377	275,590095	312,832187	0
15.01.2021	14:13:45	0	72,896249	4,437691	0,969	317,7576	1,129	84,655	0	1015,26	8,8	10,2	9,8	1	1	1	1	1	1	1	1	1	0	1	-15,081043	275,664379	312,339302	0
15.01.2021	14:13:46	0	72,779176	3,527355	0,94275	317,7756	1,132	84,646	0	1015,26	8,7	10,2	10	1	1	1	1	1	1	1	1	1	0	1	-13,248767	275,615901	313,941319	0
15.01.2021	14:13:47	0	72,779112	2,844676	0,942	316,6524	1,129	84,652	0	1015,3	8,8	10,2	9,8	1	1	1	1	1	1	1	1	1	0	1	-13,460183	275,635278	313,821923	0
15.01.2021	14:13:48	0	72,66204	3,299826	1,0185	314,8092	1,131	84,64	0	1015,3	8,7	10,2	9,8	1	1	1	1	1	1	1	1	1	0	1	-9,795631	275,756822	318,064134	0
15.01.2021	14:13:49	0	72,895992	3,527402	1,035	314,0964	1,137	84,647	0	1015,36	8,8	10,2	9,8	1	1	1	1	1	1	1	1	1	0	1	-13,319239	275,630432	313,939851	0
15.01.2021	14:13:50	0	72,77892	4,665275	0,98625	315,4104	1,128	84,668	0	1015,22	8,8	10,2	9,8	1	1	1	1	1	1	1	1	1	0	1	-16,349542	275,768205	311,564361	0
15.01.2021	14:13:51	0	72,895863	4,437703	0,948	324,3852	1,135	84,668	0	1015,22	8,8	10,2	9,8	1	1	1	1	1	1	1	1	1	0	1	-17,26568	275,764952	310,632751	0
15.01.2021	14:13:52	0	72,427768	3,527406	0,87675	316,5768	1,128	84,689	0	1015,2	8,8	10,2	9,8	1	1	1	1	1	1	1	1	1	0	1	-14,799154	275,782851	313,184412	0
15.01.2021	14:13:53	0	72,661719	4,437707	0,8415	318,8232	1,135	84,701	0	1015,22	8,8	10,2	9,8	1	1	1	1	1	1	1	1	1	0	1	-16,420014	275,774713	311,524843	0
15.01.2021	14:13:54	0	72,778663	2,275748	0,84825	320,3784	1,136	84,699	0	1015,26	8,8	10,2	9,8	1	1	1	1	1	1	1	1	1	0	1	-14,023961	275,727582	313,696766	0
15.01.2021	14:13:55	0	72,895606	3,072261	0,88875	305,4312	1,135	84,703	0	1015,32	8,8	10,2	9,8	1	1	1	1	1	1	1	1	1	0	1	-14,094433	275,60622	313,049684	0
15.01.2021	14:13:56	0	73,012549	4,779075	0,92625	320,742	1,135	84,716	0	1015,24	8,8	10,2	9,8	1	1	1	1	1	1	1	1	1	0	1	-12,191684	275,745446	315,61398	0
15.01.2021	14:13:57	0	72,895477	4,437714	0,93675	331,1676	1,136	84,714	0	1015,34	8,8	10,2	9,8	1	1	1	1	1	1	1	1	1	0	1	-17,195208	275,794249	310,842585	0
15.01.2021	14:13:58	0	72,66089	2,161964	0,91575	314,1396	1,139	84,737	0	1015,32	8,8	10,1	9,8	1	1	1	1	1	1	1	1	1	0	1	-14,65821	275,602994	312,47059	0
15.01.2021	14:13:59	0	72,895349	4,779081	0,88125	306,8028	1,134	84,745	0	1015,32	8,8	10,2	9,8	1	1	1	1	1	1	1	1	1	0	1	-20,014094	275,750321	307,814751	0
15.01.2021	14:14:00	0	72,427193	3,52742	0,837	324,3996	1,14	84,744	0	1015,4	8,8	10,2	9,8	1	1	1	1	1	1	1	1	1	0	1	-14,799154	275,622357	312,421592	0
15.01.2021	14:14:01	0	72,427193	3,52742	0,837	324,3996	1,14	84,744	0	1015,4	8,8	10,2	9,8	1	1	1	1	1	1	1	1	1	0	1	-12,825934	275,599768	314,287553	0
15.01.2021	14:14:02	0	72,661142	2,617119	0,846	331,4484	1,143	84,749	0	1015,18	8,8	10,2	9,8	1	1	1	1	1	1	1	1	1	0	1	-21,000705	275,649823	306,35049	0
15.01.2021	14:14:03	0	72,661078	3,754998	0,81975	322,1604	1,141	84,773	0	1015,24	8,8	10,2	9,8	1	1	1	1	1	1	1	1	1	0	1	-16,420014	275,615901	310,770071	0
15.01.2021	14:14:04	0	72,661014	2,958485	0,7995	305,6616	1,142	84,783	0	1015,4	8,8	10,2	9,8	1	1	1	1	1	1	1	1	1	0	1	-11,768851	275,729206	315,959593	0
15.01.2021	14:14:05	0	72,426937	4,210153	0,81	302,4432	1,142	84,775	0	1015,16	8,8	10,2	9,8	1	1	1	1	1	1	1	1	1	0	1	-12,896406	275,787735	315,110396	0
15.01.2021	14:14:06	0	72,309866	3,186063	0,822	317,718	1,147	84,805	0	1015,08	8,7	10,2	9,8	1	1	1	1	1	1	1	1	1	0	1	-15,574348	275,77634	312,378249	0
15.01.2021	14:14:07	0	72,543815	4,323945	0,85275	317,7072	1,142	84,792	0	1015,28	8,7	10,2	9,8	1	1	1	1	1	1	1	1	1	0	1	-14,517266	275,649823	312,833929	0
15.01.2021	14:14:08	0	72,426745	3,299854	0,83475	304,7328	1,137	84,806	0	1015,32	8,8	10,2	9,8	1	1	1	1	1	1	1	1	1	0	1	-16,138125	275,787735	311,868676	0
15.01.2021	14:14:09	0	72,777698	4,551525	0,7875	297,2124	1,142	84,803	0	1015,32	8,8	10,2	9,8	1	1	1	1	1	1	1	1	1	0	1	-16,067653	275,680565	311,4296	0
15.01.2021	14:14:10	0	72,543622	3,641222	0,8085	297,954	1,142	84,813	0	1015,22	8,7	10,2	9,8	1	1	1	1	1	1	1	1	1	0	1	-15,503876	275,627202	311,739875	0
15.01.2021	14:14:11	0	72,543558	2,844706	0,83475	299,358	1,146	84,819	0	1015,28	8,8	10,2	9,8	1	1	1	1	1	1	1	1	1	0	1	-13,248767	275,730829	314,487396	0
15.01.2021	14:14:12	0	72,309483	4,096378	0,83175	298,6164	1,146	84,838	0	1015,34	8,7	10,2	9,8	1	1	1	1	1	1	1	1	1	0	1	-20,366455	275,604606	306,770003	0
15.01.2021	14:14:13	0	72,54343	4,096379	0,86475	301,5504	1,141	84,835	0	1015,14	8,8	10,2	9,8	1	1	1	1	1	1	1	1	1	0	1	-12,614517	275,764952	315,283914	0
15.01.2021	14:14:14	0	72,660371	4,21017	0,86475	311,4396	1,142	84,846	0	1015,24	8,7	10,2	9,8	1	1	1	1	1	1	1	1	1	0	1	-12,544045	275,665997	314,883988	0
15.01.2021	14:14:15	0	72,192285	4,210171	0,92475	321,7896	1,146	84,85	0	1015,2	8,8	10,2	9,8	1	1	1	1	1	1	1	1	1	0	1	-15,64482	275,779595	312,32326	0
15.01.2021	14:14:16	0	72,543237	4,096385	0,91125	313,236	1,156	84,852	0	1015,44	8,8	10,2	9,8	1	1	1	1	1	1	1	1	1	0	1	-15,151515	275,654674	312,222722	0
15.01.2021	14:14:17	0	72,777183	4,551541	0,906	303,3	1,152	84,858	0	1015,32	8,8	10,2	9,8	1	1	1	1	1	1	1	1	1	0	1	-15,715292	275,764952	312,183138	0
15.01.2021	14:14:18	0	72,309098	3,641234	0,82575	306,918	1,152	84,847	0	1015,36	8,8	10,2	9,8	1	1	1	1	1	1	1	1	1	0	1	-12,332629	275,594931	314,757893	0
15.01.2021	14:14:19	0	72,543044	5,006699	0,76125	316,6704	1,153	84,857	0	1015,34	8,8	10,2	9,8	1	1	1	1	1	1	1	1	1	0	1	-9,936575	275,790992	318,085721	0
15.01.2021	14:14:20	0	72,191965	2,958505	0,70725	316,6488	1,149	84,857	0	1015,26	8,8	10,2	9,8	1	1	1	1	1	1	1	1	1	0	1	-15,997181	275,706492	311,623287	0
15.01.2021	14:14:21	0	72,542916	4,665337	0,70425	310,3344	1,15	84,855	0	1015,2	8,8	10,2	9,8	1	1	1	1	1	1	1	1	1	0	1	-12,403101	275,594931	314,687421	0
15.01.2021	14:14:22	0	72,425847	3,868818	0,708	304,632	1,154	84,863	0	1015,36	8,8	10,2	9,8	1	1	1	1	1	1	1	1	1	0	1	-12,755462	275,683804	314,757183	0
15.01.2021	14:14:23	0	72,308778	3,072298	0,774	318,042	1,152	84,872	0	1015,36	8,8	10,2	9,8	1	1	1	1	1	1	1	1	1	0	1	-9,161381	275,627202	318,082369	0
15.01.2021	14:14:24	0	72,308714	4,437765	0,84075	333,8424	1,156	84,875	0	1015,34	8,7	10,2	9,8	1	1	1	1	1	1	1	1	1	0	1	-10,923185	275,607833	316,228591	0
15.01.2021	14:14:25	0	72,425654	4,665345	0,89475	325,1232	1,156	84,876	0	1015,36	8,8	10,2	9,8	1	1	1	1	1	1	1	1	1	0	1	-14,446794	275,656291	312,935127	0
15.01.2021	14:14:26	0	72,308586	4,437769	0,96075	318,366	1,153	84,877	0	1015,2	8,7	10,2	9,8	1	1	1	1	1	1	1	1	1	0	1	-21,071177	275,65144	306,287698	0
15.01.2021	14:14:27	0	72,191517	2,389569	0,978	312,102	1,154	84,865	0	1015,16	8,7	10,2	9,8	1	1	1	1	1	1	1	1	1	0	1	-15,503876	275,773086	312,433241	0
15.01.2021	14:14:28	0	72,191453	2,730937	0,92625	309,1644	1,156	84,88	0	1015,28	8,8	10,2	9,8	1	1	1	1	1	1	1	1	1	0	1	-12,121212	275,657908	315,268392	0
15.01.2021	14:14:29	0	72,191389	2,389571	0,9285	310,734	1,156	84,882	0	1015,26	8,8	10,2	9,8	1	1	1	1	1	1	1	1	1	0	1	-14,869626	275,599768	312,24386	0
15.01.2021	14:14:30	0	72,308329	4,323988	0,96975	320,076	1,161	84,879	0	1015,06	8,8	10,2	9,8	1	1	1	1	1	1	1	1	1	0	1	-13,601128	275,737324	314,165917	0
15.01.2021	14:14:31	0	72,308265	3,868833	0,963	331,1064	1,153	84,887	0	1015,26	8,8	10,2	9,8	1	1	1	1	1	1	1	1	1	0	1	-14,65821	275,771459	313,271168	0
15.01.2021	14:14:32	0	72,308201	4,437781	0,915	329,634	1,156	84,892	0	1015,38	8,8	10,2	9,8	1	1	1	1	1	1	1	1	1	0	1	-17,547569	275,743821	310,25037	0
15.01.2021	14:14:33	0	72,42514	4,096415	0,8715	321,534	1,159	84,896	0	1015,36	8,8	10,2	9,8	1	1	1	1	1	1	1	1	1	0	1	-17,477097	275,662761	309,935562	0
15.01.2021	14:14:34	0	72,191069	2,844734	0,8535	312,4908	1,155	84,884	0	1015,4	8,7	10,2	9,8	1	1	1	1	1	1	1	1	1	0	1	-15,292459	275,602994	311,836341	0
15.01.2021	14:14:35	0	71,956998	2,275788	0,81075	309,3084	1,156	84,908	0	1015,24	8,8	10,2	9,8	1	1	1	1	1	1	1	1	1	0	1	-22,057787	275,750321	305,771058	0
15.01.2021	14:14:36	0	71,839931	3,186104	0,792	304,29	1,161	84,899	0	1015,36	8,8	10,2	9,8	1	1	1	1	1	1	1	1	1	0	1	-14,446794	275,607833	312,704983	0
15.01.2021	14:14:37	0	72,190876	2,389579	0,7785	305,7084	1,149	84,902	0	1015,26	8,8	10,2	9,8	1	1	1	1	1	1	1	1	1	0	1	-10,500352	275,72109	317,189512	0
15.01.2021	14:14:38	0	71,956806	3,186107	0,7365	320,1228	1,16	84,906	0	1015,3	8,7	10,2	9,8	1	1	1	1	1	1	1	1	1	0	1	-20,577872	275,607833	306,573905	0
15.01.2021	14:14:39	0	72,07324	4,210215	0,73725	312,156	1,166	84,921	0	1015,48	8,8	10,1	9,8	1	1	1	1	1	1	1	1	1	0	1	-14,517266	275,643357	312,803215	0
15.01.2021	14:14:40	0	72,190684	3,982637	0,774	290,4336	1,162	84,925	0	1015,26	8,8	10,2	9,8	1	1	1	1	1	1	1	1	1	0	1	-14,376321	275,766579	313,529845	0
15.01.2021	14:14:41	0	72,073617	4,096429	0,801	293,7132	1,165	84,926	0	1015,3	8,8	10,2	9,8	1	1	1	1	1	1	1	1	1	0	1	-13,953488	275,638509	313,343965	0
15.01.2021	14:14:42	0	71,839548	4,09643	0,8235	318,114	1,161	84,919	0	1015,44	8,8	10,2	9,8	1	1	1	1	1	1	1	1	1	0	1	-10,641297	275,677327	316,840569	0
15.01.2021	14:14:43	0	71,722482	2,844745	0,79275	317,3976	1,167	84,92	0	1015,08	8,8	10,2	9,8	1	1	1	1	1	1	1	1	1	0	1	-14,65821	275,617515	312,53954	0
15.01.2021	14:14:44	0	72,073425	3,186115	0,8085	311,382	1,157	84,933	0	1015,12	8,8	10,2	9,8	1	1	1	1	1	1	1	1	1	0	1	-15,926709	275,628816	311,324711	0
15.01.2021	14:14:45	0	71,722354	4,096436	0,804	311,7636	1,166	84,935	0	1015,22	8,8	10,2	9,8	1	1	1	1	1	1	1	1	1	0	1	-17,688513	275,680565	309,80874	0
15.01.2021	14:14:46	0	71,956294	2,730958	0,8145	312,4944	1,163	84,954	0	1015,1	8,7	10,2	9,8	1	1	1	1	1	1	1	1	1	0	1	-18,604651	275,641741	308,708153	0
15.01.2021	14:14:47	0	72,073232	4,096439	0,8925	298,296	1,167	84,949	0	1015,28	8,7	10,2	9,8	1	1	1	1	1	1	1	1	1	0	1	-14,446794	275,667615	312,988927	0
15.01.2021	14:14:48	0	71,956166	4,437811	0,8955	302,0292	1,162	84,95	0	1015,3	8,8	10,2	9,8	1	1	1	1	1	1	1	1	1	0	1	-17,336152	275,745446	310,469512	0
15.01.2021	14:14:49	0	72,190106	4,437813	0,92025	305,0424	1,16	84,941	0	1015,36	8,8	10,2	9,8	1	1	1	1	1	1	1	1	1	0	1	-10,359408	275,653057	317,007148	0
15.01.2021	14:14:50	0	71,605033	3,413704	0,9225	303,5988	1,169	84,965	0	1015,28	8,8	10,2	9,8	1	1	1	1	1	1	1	1	1	0	1	-11,698379	275,602994	315,430421	0
15.01.2021	14:14:51	0	72,072976	4,324027	0,882	308,7972	1,164	84,974	0	1015,34	8,8	10,2	9,8	1	1	1	1	1	1	1	1	1	0	1	-16,560958	275,725959	311,152052	0
15.01.2021	14:14:52	0	71,487403	2,958546	0,89925	307,224	1,172	84,976	0	1015,32	8,8	10,1	9,8	1	1	1	1	1	1	1	1	1	0	1	-14,446794	275,794249	313,590999	0
15.01.2021	14:14:53	0	72,072847	4,21024	0,88875	306,1584	1,171	84,971	0	1015,38	8,8	10,2	9,8	1	1	1	1	1	1	1	1	1	0	1	-14,164905	275,700007	313,424741	0
15.01.2021	14:14:54	0	71,83878	3,186129	0,91725	317,0736	1,163	84,979	0	1015,18	8,8	10,2	9,8	1	1	1	1	1	1	1	1	1	0	1	-12,403101	275,617515	314,794649	0
15.01.2021	14:14:55	0	71,955717	3,072303	0,92325	304,326	1,171	84,973	0	1015,32	8,7	10,2	10	1	1	1	1	1	1	1	1	1	0	1	-11,557435	275,670852	315,893664	0
15.01.2021	14:14:56	0	71,838652	3,413712	0,9195	293,7348	1,168	84,978	0	1015,32	8,8	10,2	9,8	1	1	1	1	1	1	1	1	1	0	1	-13,460183	275,628816	313,791237	0
15.01.2021	14:14:57	0	72,072085	4,437828	0,9105	305,3268	1,166	84,98	0	1015,32	8,8	10,1	9,8	1	1	1	1	1	1	1	1	1	0	1	-15,221987	275,675708	312,252186	0
15.01.2021	14:14:58	0	71,604522	3,072344	0,92475	311,7384	1,173	84,981	0	1015,16	8,8	10,2	9,8	1	1	1	1	1	1	1	1	1	0	1	-13,812544	275,790992	314,209752	0
15.01.2021	14:14:59	0	72,072462	4,09646	0,95025	313,1352	1,172	84,988	0	1015,26	8,8	10,2	9,8	1	1	1	1	1	1	1	1	1	0	1	-14,446794	275,669234	312,996616	0
15.01.2021	14:15:00	0	71,955332	3,868882	1,029	293,7168	1,178	85,01	0	1015,22	8,7	10,2	9,8	1	1	1	1	1	1	1	1	1	0	1	-15,151515	275,789363	312,863033	0
15.01.2021	14:15:01	0	71,955332	3,868882	1,029	293,7168	1,178	85,01	0	1015,22	8,7	10,2	9,8	1	1	1	1	1	1	1	1	1	0	1	-12,332629	275,734076	315,418974	0
15.01.2021	14:15:02	0	71,604267	4,77921	1,0755	305,0172	1,175	85,008	0	1015,2	8,7	10,2	9,8	1	1	1	1	1	1	1	1	1	0	1	-18,463707	275,609446	308,69573	0
15.01.2021	14:15:03	0	71,838204	2,844769	1,0815	307,242	1,179	84,992	0	1015,32	8,8	10,2	9,8	1	1	1	1	1	1	1	1	1	0	1	-16,420014	275,664379	311,000331	0
15.01.2021	14:15:04	0	72,18914	5,006796	1,01625	315,216	1,175	85,006	0	1015,34	8,8	10,2	9,8	1	1	1	1	1	1	1	1	1	0	1	-17,406624	275,685424	310,113717	0
15.01.2021	14:15:05	0	71,838075	4,096471	0,92625	338,3784	1,175	84,996	0	1015,22	8,8	10,2	9,8	1	1	1	1	1	1	1	1	1	0	1	-12,332629	275,622357	314,888118	0
15.01.2021	14:15:06	0	71,604011	2,844773	0,88875	324,288	1,18	85,006	0	1015,3	8,8	10,2	9,8	1	1	1	1	1	1	1	1	1	0	1	-14,65821	275,730829	313,077953	0
15.01.2021	14:15:07	0	71,954947	2,844774	0,88875	298,6128	1,18	85,021	0	1015,24	8,8	10,2	9,8	1	1	1	1	1	1	1	1	1	0	1	-13,883016	275,61106	313,284081	0
15.01.2021	14:15:08	0	71,720883	3,41373	0,85425	301,23	1,185	85,021	0	1015,28	8,8	10,2	9,8	1	1	1	1	1	1	1	1	1	0	1	-15,292459	275,760074	312,582769	0
15.01.2021	14:15:09	0	71,36982	2,617194	0,7905	315,864	1,177	85,021	0	1015,28	8,8	10,2	9,8	1	1	1	1	1	1	1	1	1	0	1	-13,953488	275,598156	313,152343	0
15.01.2021	14:15:10	0	71,720755	2,389613	0,74625	329,3028	1,178	85,017	0	1015,4	8,7	10,2	9,8	1	1	1	1	1	1	1	1	1	0	1	-12,755462	275,653057	314,611094	0
15.01.2021	14:15:11	0	71,83769	4,324064	0,7095	333,3024	1,184	85,018	0	1015,3	8,8	10,2	9,8	1	1	1	1	1	1	1	1	1	0	1	-9,725159	275,615901	317,464927	0
15.01.2021	14:15:12	0	71,603627	4,77923	0,675	327,1392	1,18	85,017	0	1015,26	8,8	10,2	9,8	1	1	1	1	1	1	1	1	1	0	1	-11,346018	275,685424	316,174323	0
15.01.2021	14:15:13	0	71,486564	2,844781	0,657	319,1112	1,178	85,01	0	1015,26	8,8	10,2	9,8	1	1	1	1	1	1	1	1	1	0	1	-15,503876	275,768205	312,410027	0
15.01.2021	14:15:14	0	71,603499	2,6172	0,588	320,4648	1,184	85,026	0	1015,34	8,8	10,2	9,8	1	1	1	1	1	1	1	1	1	0	1	-14,869626	275,669234	312,573783	0
15.01.2021	14:15:15	0	71,720435	3,072366	0,5625	325,1628	1,175	85,027	0	1015,26	8,8	10,2	9,8	1	1	1	1	1	1	1	1	1	0	1	-14,65821	275,800765	313,410587	0
15.01.2021	14:15:16	0	71,369373	3,527533	0,6075	328,8996	1,181	85,043	0	1015,28	8,7	10,2	9,8	1	1	1	1	1	1	1	1	1	0	1	-15,433404	275,750321	312,395441	0
15.01.2021	14:15:17	0	71,603307	3,868909	0,67125	323,6868	1,177	85,022	0	1015,38	8,8	10,2	9,8	1	1	1	1	1	1	1	1	1	0	1	-11,627907	275,779595	316,340173	0
15.01.2021	14:15:18	0	71,720242	3,07237	0,84675	325,5228	1,175	85,031	0	1015,32	8,8	10,2	9,8	1	1	1	1	1	1	1	1	1	0	1	-12,191684	275,740572	315,590806	0
15.01.2021	14:15:19	0	71,837177	4,893036	0,95625	326,3184	1,184	85,04	0	1015,32	8,8	10,2	9,8	1	1	1	1	1	1	1	1	1	0	1	-15,926709	275,790992	312,095587	0
15.01.2021	14:15:20	0	71,954111	5,120622	1,0005	325,5588	1,18	85,035	0	1015,3	8,8	10,2	9,8	1	1	1	1	1	1	1	1	1	0	1	-14,164905	275,685424	313,355436	0
15.01.2021	14:15:21	0	71,486053	4,210291	1,02825	327,3912	1,181	85,037	0	1015,24	8,7	10,2	9,8	1	1	1	1	1	1	1	1	1	0	1	-14,023961	275,602994	313,10484	0
15.01.2021	14:15:22	0	71,836984	3,982709	0,9885	328,8672	1,185	85,015	0	1015,28	8,8	10,2	9,8	1	1	1	1	1	1	1	1	1	0	1	-15,503876	275,742197	312,286338	0
15.01.2021	14:15:23	0	71,13493	2,844794	0,98325	329,6808	1,184	85,045	0	1015,3	8,7	10,2	9,8	1	1	1	1	1	1	1	1	1	0	1	-11,768851	275,612673	315,405908	0
15.01.2021	14:15:24	0	71,485861	2,844795	0,91875	337,9212	1,186	85,04	0	1015,28	8,8	10,2	9,8	1	1	1	1	1	1	1	1	1	0	1	-13,389711	275,714601	314,269303	0
15.01.2021	14:15:25	0	71,602795	2,617181	0,92175	337,5072	1,184	85,048	0	1015,34	8,7	10,2	10	1	1	1	1	1	1	1	1	1	0	1	-10,782241	275,781223	317,193582	0
15.01.2021	14:15:26	0	71,60273	4,551676	0,95625	330,7644	1,19	85,04	0	1015,22	8,8	10,2	9,8	1	1	1	1	1	1	1	1	1	0	1	-13,248767	275,708113	314,379409	0
15.01.2021	14:15:27	0	71,485669	2,617215	0,9075	333,1476	1,19	85,034	0	1015,28	8,8	10,2	9,8	1	1	1	1	1	1	1	1	1	0	1	-12,05074	275,797507	316,002553	0
15.01.2021	14:15:28	0	71,602101	3,98272	0,9225	327,4848	1,188	85,044	0	1015,22	8,8	10,1	9,8	1	1	1	1	1	1	1	1	1	0	1	-13,883016	275,77634	314,069581	0
15.01.2021	14:15:29	0	71,719536	4,779208	0,8745	321,1092	1,188	85,033	0	1015,26	8,8	10,2	10	1	1	1	1	1	1	1	1	1	0	1	-15,362932	275,657908	312,026672	0
15.01.2021	14:15:30	0	71,134484	2,958594	0,82425	319,9284	1,192	85,043	0	1015,2	8,8	10,2	9,8	1	1	1	1	1	1	1	1	1	0	1	-12,05074	275,607833	315,101036	0
15.01.2021	14:15:31	0	71,60241	4,437893	0,7635	324,7812	1,186	85,039	0	1015,32	8,8	10,2	9,8	1	1	1	1	1	1	1	1	1	0	1	-12,966878	275,635278	314,315228	0
15.01.2021	14:15:32	0	71,602345	4,551687	0,711	321,7896	1,188	85,034	0	1015,26	8,8	10,2	9,8	1	1	1	1	1	1	1	1	1	0	1	-14,446794	275,794249	313,590999	0
15.01.2021	14:15:33	0	71,368287	3,07239	0,69375	311,3424	1,187	85,028	0	1015,26	8,7	10,2	9,8	1	1	1	1	1	1	1	1	1	0	1	-12,825934	275,640125	314,479195	0
15.01.2021	14:15:34	0	71,251226	3,072392	0,6945	303,8868	1,185	85,026	0	1015,28	8,8	10,2	9,8	1	1	1	1	1	1	1	1	1	0	1	-12,755462	275,790992	315,266834	0
15.01.2021	14:15:35	0	71,602153	3,755102	0,62175	310,968	1,194	85,03	0	1015,32	8,8	10,2	10	1	1	1	1	1	1	1	1	1	0	1	-14,728682	275,724336	312,976612	0
15.01.2021	14:15:36	0	71,251098	2,617225	0,58875	320,3136	1,189	85,015	0	1015,38	8,8	10,2	9,8	1	1	1	1	1	1	1	1	1	0	1	-14,799154	275,790992	313,223141	0
15.01.2021	14:15:37	0	71,602024	4,551643	0,5775	315,1188	1,188	85,019	0	1015,36	8,8	10,2	10	1	1	1	1	1	1	1	1	1	0	1	-14,940099	275,755197	312,911935	0
15.01.2021	14:15:38	0	71,60196	5,006869	0,5685	309,8124	1,191	85,02	0	1015,2	8,8	10,2	9,8	1	1	1	1	1	1	1	1	1	0	1	-13,178295	275,789363	314,836254	0
15.01.2021	14:15:39	0	71,367903	4,665438	0,528	318,168	1,19	85,012	0	1015,28	8,8	10,2	10	1	1	1	1	1	1	1	1	1	0	1	-13,460183	275,751946	314,376391	0
15.01.2021	14:15:40	0	71,484835	4,437911	0,5025	324,3816	1,19	85,003	0	1015,34	8,8	10,2	9,8	1	1	1	1	1	1	1	1	1	0	1	-11,839323	275,787735	316,167478	0
15.01.2021	14:15:41	0	71,250778	2,958608	0,4905	318,3984	1,192	85,006	0	1015,4	8,8	10,2	9,8	1	1	1	1	1	1	1	1	1	0	1	-12,614517	275,7357	315,144806	0
15.01.2021	14:15:42	0	71,250714	2,95861	0,51675	305,37	1,198	85,023	0	1015,24	8,8	10,2	9,8	1	1	1	1	1	1	1	1	1	0	1	-12,473573	275,612673	314,701187	0
15.01.2021	14:15:43	0	71,484642	3,413782	0,54225	300,4056	1,196	85,009	0	1015,36	8,8	10,2	9,8	1	1	1	1	1	1	1	1	1	0	1	-13,319239	275,672471	314,139551	0
15.01.2021	14:15:44	0	71,016594	3,072405	0,57525	309,9852	1,196	85,013	0	1015,36	8,8	10,2	9,8	1	1	1	1	1	1	1	1	1	0	1	-17,054264	275,795878	310,991279	0
15.01.2021	14:15:45	0	71,367518	5,006884	0,58875	316,5768	1,191	85	0	1015,3	8,8	10,2	9,8	1	1	1	1	1	1	1	1	1	0	1	-14,094433	275,716223	313,572292	0
15.01.2021	14:15:46	0	71,016466	3,1862	0,5985	316,2564	1,193	84,999	0	1015,3	8,8	10,2	9,8	1	1	1	1	1	1	1	1	1	0	1	-16,913319	275,615901	310,276766	0
15.01.2021	14:15:47	0	71,133398	2,958616	0,60375	317,682	1,193	84,998	0	1015,34	8,8	10,2	9,8	1	1	1	1	1	1	1	1	1	0	1	-17,688513	275,656291	309,693407	0
15.01.2021	14:15:48	0	71,133334	4,324133	0,5475	323,3232	1,196	84,979	0	1015,18	8,8	10,2	9,8	1	1	1	1	1	1	1	1	1	0	1	-11,768851	275,808914	316,338718	0
15.01.2021	14:15:49	0	71,367261	4,096549	0,5235	325,1412	1,189	84,985	0	1015,3	8,8	10,2	9,8	1	1	1	1	1	1	1	1	1	0	1	-15,010571	275,768205	312,903332	0
15.01.2021	14:15:50	0	71,367197	2,844827	0,50025	327,4596	1,206	84,994	0	1015,32	8,8	10,2	9,8	1	1	1	1	1	1	1	1	1	0	1	-12,332629	275,724336	315,372665	0
15.01.2021	14:15:51	0	71,484128	4,893104	0,45825	331,434	1,197	84,992	0	1015,38	8,8	10,2	9,8	1	1	1	1	1	1	1	1	1	0	1	-15,362932	275,797507	312,690362	0
15.01.2021	14:15:52	0	71,133078	4,32414	0,44775	334,2456	1,195	84,99	0	1015,32	8,8	10,2	9,8	1	1	1	1	1	1	1	1	1	0	1	-12,403101	275,764952	315,49533	0
15.01.2021	14:15:53	0	71,133014	3,072417	0,41025	331,0884	1,198	84,99	0	1015,26	8,8	10,2	9,8	1	1	1	1	1	1	1	1	1	0	1	-13,742072	275,64659	313,593764	0
15.01.2021	14:15:54	0	71,249945	3,868971	0,42	317,3724	1,187	84,981	0	1015,16	8,8	10,2	9,8	1	1	1	1	1	1	1	1	1	0	1	-15,785765	275,678946	311,703795	0
15.01.2021	14:15:55	0	71,132886	4,665526	0,40575	306,4716	1,2	84,993	0	1015,4	8,8	10,2	9,8	1	1	1	1	1	1	1	1	1	0	1	-16,701903	275,786107	311,297153	0
15.01.2021	14:15:56	0	70,898833	2,617247	0,42375	306,5256	1,194	84,985	0	1015,24	8,8	10,2	9,8	1	1	1	1	1	1	1	1	1	0	1	-13,319239	275,64659	314,016597	0
15.01.2021	14:15:57	0	71,132758	2,389662	0,44925	317,7108	1,196	84,975	0	1015,24	8,8	10,2	9,8	1	1	1	1	1	1	1	1	1	0	1	-16,138125	275,680565	311,359128	0
15.01.2021	14:15:58	0	71,366683	4,893119	0,4845	334,5732	1,199	84,967	0	1015,18	8,8	10,2	9,8	1	1	1	1	1	1	1	1	1	0	1	-12,755462	275,808914	315,352108	0
15.01.2021	14:15:59	0	71,366619	3,300012	0,58875	351,3096	1,195	84,968	0	1015,22	8,8	10,2	9,8	1	1	1	1	1	1	1	1	1	0	1	-9,795631	275,758448	318,071865	0
15.01.2021	14:16:00	0	71,366491	3,072428	0,699	346,158	1,198	84,975	0	1015,3	8,8	10,2	9,8	1	1	1	1	1	1	1	1	1	0	1	-16,560958	275,802395	311,515591	0
15.01.2021	14:16:01	0	71,366491	3,072428	0,699	346,158	1,198	84,975	0	1015,3	8,8	10,2	9,8	1	1	1	1	1	1	1	1	1	0	1	-16,420014	275,732453	311,323868	0
15.01.2021	14:16:02	0	71,132438	2,844842	0,70425	345,4488	1,194	84,963	0	1015,32	8,7	10,2	9,8	1	1	1	1	1	1	1	1	1	0	1	-11,909796	275,782851	316,073771	0
15.01.2021	14:16:03	0	71,01538	3,07243	0,76275	327,0924	1,198	84,974	0	1015,32	8,8	10,2	9,8	1	1	1	1	1	1	1	1	1	0	1	-14,376321	275,664379	313,044024	0
15.01.2021	14:16:04	0	71,13231	4,210369	0,83775	328,2264	1,197	84,973	0	1015,24	8,8	10,2	9,8	1	1	1	1	1	1	1	1	1	0	1	-15,221987	275,653057	312,144568	0
15.01.2021	14:16:05	0	71,132246	3,755196	0,8775	351,0396	1,191	84,964	0	1015,3	8,7	10,2	9,8	1	1	1	1	1	1	1	1	1	0	1	-10,923185	275,784478	317,068125	0
15.01.2021	14:16:06	0	70,664207	2,389671	0,9075	345,7692	1,195	84,97	0	1015,28	8,8	10,2	9,8	1	1	1	1	1	1	1	1	1	0	1	-14,235377	275,614287	312,947045	0
15.01.2021	14:16:07	0	71,249111	3,527611	0,966	336,4092	1,199	84,978	0	1015,22	8,8	10,2	9,8	1	1	1	1	1	1	1	1	1	0	1	-12,403101	275,685424	315,11724	0
15.01.2021	14:16:08	0	71,482533	5,006934	1,00725	349,0632	1,194	84,97	0	1015,32	8,8	10,1	9,8	1	1	1	1	1	1	1	1	1	0	1	-14,799154	275,622357	312,421592	0
15.01.2021	14:16:09	0	71,131989	2,731056	1,05675	348,0336	1,192	84,955	0	1015,14	8,8	10,2	9,8	1	1	1	1	1	1	1	1	1	0	1	-12,121212	275,672471	315,337578	0
15.01.2021	14:16:10	0	70,663952	2,389675	1,05	342,8676	1,198	84,951	0	1015,24	8,8	10,2	9,8	1	1	1	1	1	1	1	1	1	0	1	-14,517266	275,636893	312,772514	0
15.01.2021	14:16:11	0	71,131861	4,43797	1,0395	339,4944	1,194	84,946	0	1015,14	8,7	10,2	9,8	1	1	1	1	1	1	1	1	1	0	1	-13,883016	275,732453	313,860866	0
15.01.2021	14:16:12	0	71,014803	4,437972	0,975	325,0836	1,2	84,948	0	1015,22	8,8	10,2	9,8	1	1	1	1	1	1	1	1	1	0	1	-15,997181	275,659526	311,400107	0
15.01.2021	14:16:13	0	71,131732	3,755209	0,99225	317,8152	1,196	84,949	0	1015,36	8,8	10,2	9,8	1	1	1	1	1	1	1	1	1	0	1	-14,517266	275,789363	313,497283	0
15.01.2021	14:16:14	0	71,248661	4,324182	1,01475	332,928	1,199	84,947	0	1015,3	8,8	10,2	9,8	1	1	1	1	1	1	1	1	1	0	1	-12,825934	275,703249	314,779122	0
15.01.2021	14:16:15	0	70,897618	3,413788	0,99825	333,954	1,201	84,946	0	1015,16	8,8	10,2	10	1	1	1	1	1	1	1	1	1	0	1	-14,517266	275,640125	312,787863	0
15.01.2021	14:16:16	0	71,248532	2,844859	0,98775	321,2172	1,197	84,943	0	1015,2	8,7	10,2	9,8	1	1	1	1	1	1	1	1	1	0	1	-14,305849	275,682185	313,199099	0
15.01.2021	14:16:17	0	70,780498	4,210393	0,95175	312,1812	1,2	84,935	0	1015,38	8,8	10,2	9,8	1	1	1	1	1	1	1	1	1	0	1	-17,054264	275,802395	311,022286	0
15.01.2021	14:16:18	0	71,131411	2,844861	0,9105	308,4516	1,192	84,932	0	1015,3	8,8	10,2	9,8	1	1	1	1	1	1	1	1	1	0	1	-18,322763	275,675708	309,15141	0
15.01.2021	14:16:19	0	70,663377	3,186246	0,9285	312,5232	1,201	84,938	0	1015,32	8,7	10,2	9,8	1	1	1	1	1	1	1	1	1	0	1	-16,27907	275,633662	310,995364	0
15.01.2021	14:16:20	0	70,780306	3,072453	0,906	322,1928	1,198	84,942	0	1015,24	8,8	10,2	9,8	1	1	1	1	1	1	1	1	1	0	1	-17,688513	275,65144	309,670362	0
15.01.2021	14:16:21	0	71,481694	4,893168	0,918	319,6008	1,194	84,917	0	1015,22	8,8	10,1	9,8	1	1	1	1	1	1	1	1	1	0	1	-13,883016	275,627202	313,360734	0
15.01.2021	14:16:22	0	70,89717	3,982813	0,95775	315,1188	1,2	84,931	0	1015,22	8,8	10,2	9,8	1	1	1	1	1	1	1	1	1	0	1	-16,983791	275,763326	310,906905	0
15.01.2021	14:16:23	0	71,248082	4,779378	0,9855	324,0036	1,195	84,928	0	1015,24	8,7	10,2	9,8	1	1	1	1	1	1	1	1	1	0	1	-17,970402	275,756822	309,889363	0
15.01.2021	14:16:24	0	71,131025	3,527637	0,95175	329,6124	1,197	84,924	0	1015,22	8,8	10,2	9,8	1	1	1	1	1	1	1	1	1	0	1	-15,997181	275,758448	311,870315	0
15.01.2021	14:16:25	0	70,546003	2,389691	0,912	329,6376	1,201	84,922	0	1015,26	8,8	10,2	9,8	1	1	1	1	1	1	1	1	1	0	1	-17,406624	275,789363	310,607924	0
15.01.2021	14:16:26	0	71,013905	4,893179	0,83625	331,974	1,196	84,938	0	1015,26	8,8	10,2	9,8	1	1	1	1	1	1	1	1	1	0	1	-14,376321	275,763326	313,514375	0
15.01.2021	14:16:27	0	70,896849	3,413806	0,87675	333,4824	1,203	84,934	0	1015,34	8,8	10,2	10	1	1	1	1	1	1	1	1	1	0	1	-13,812544	275,622357	313,408203	0
15.01.2021	14:16:28	0	70,896785	2,048309	0,84	344,25	1,199	84,938	0	1015,32	8,7	10,2	9,8	1	1	1	1	1	1	1	1	1	0	1	-12,684989	275,674089	314,781491	0
15.01.2021	14:16:29	0	70,77973	2,50349	0,915	316,9548	1,206	84,942	0	1015,1	8,7	10,2	9,8	1	1	1	1	1	1	1	1	1	0	1	-9,936575	275,802395	318,139975	0
15.01.2021	14:16:30	0	70,896657	2,731081	0,9945	335,3364	1,199	84,933	0	1015,18	8,8	10,2	9,8	1	1	1	1	1	1	1	1	1	0	1	-14,023961	275,683804	313,488684	0
15.01.2021	14:16:31	0	70,779602	2,731082	0,98325	347,2416	1,195	84,932	0	1015,3	8,8	10,2	9,8	1	1	1	1	1	1	1	1	1	0	1	-15,433404	275,800765	312,635393	0
15.01.2021	14:16:32	0	71,01352	2,503493	0,9735	339,1056	1,204	84,946	0	1015,3	8,8	10,2	9,8	1	1	1	1	1	1	1	1	1	0	1	-12,896406	275,789363	315,118142	0
15.01.2021	14:16:33	0	71,013455	4,893194	0,9315	340,8984	1,198	84,937	0	1015,26	8,8	10,2	9,8	1	1	1	1	1	1	1	1	1	0	1	-17,195208	275,745446	310,610456	0
15.01.2021	14:16:34	0	71,130382	2,617291	0,94125	350,3268	1,197	84,945	0	1015,34	8,8	10,2	9,8	1	1	1	1	1	1	1	1	1	0	1	-13,530655	275,632047	313,736106	0
15.01.2021	14:16:35	0	71,130317	4,437964	0,94275	342,1656	1,204	84,952	0	1015,32	8,8	10,2	10	1	1	1	1	1	1	1	1	1	0	1	-12,332629	275,758448	315,534868	0
15.01.2021	14:16:36	0	70,662291	4,324223	0,9345	326,7612	1,206	84,96	0	1015,36	8,8	10,2	9,8	1	1	1	1	1	1	1	1	1	0	1	-12,896406	275,826852	315,296532	0
15.01.2021	14:16:37	0	71,013198	4,438021	0,9585	321,5988	1,201	84,961	0	1015,3	8,8	10,2	9,8	1	1	1	1	1	1	1	1	1	0	1	-16,701903	275,688664	310,833834	0
15.01.2021	14:16:38	0	70,662163	3,300068	0,96375	333,5076	1,198	84,949	0	1015,18	8,7	10,2	9,8	1	1	1	1	1	1	1	1	1	0	1	-9,513742	275,800765	318,555055	0
15.01.2021	14:16:39	0	70,896079	2,617297	0,963	335,3364	1,2	84,943	0	1015,22	8,8	10,2	9,8	1	1	1	1	1	1	1	1	1	0	1	-15,503876	275,683804	312,008768	0
15.01.2021	14:16:40	0	70,896015	3,755253	1,0095	332,01	1,205	84,967	0	1015,38	8,8	10,2	9,8	1	1	1	1	1	1	1	1	1	0	1	-15,081043	275,802395	312,995507	0
15.01.2021	14:16:41	0	70,66197	2,389708	1,09875	324,36	1,198	84,955	0	1015,32	8,8	10,2	9,8	1	1	1	1	1	1	1	1	1	0	1	-13,248767	275,648206	314,094748	0
15.01.2021	14:16:42	0	70,895886	5,2346	1,20975	337,9968	1,206	84,951	0	1015,18	8,8	10,2	9,8	1	1	1	1	1	1	1	1	1	0	1	-14,235377	275,795878	313,810166	0
15.01.2021	14:16:43	0	71,129801	2,503505	1,28925	338,3496	1,204	84,952	0	1015,2	8,8	10,2	9,8	1	1	1	1	1	1	1	1	1	0	1	-13,6716	275,743821	314,126339	0
15.01.2021	14:16:44	0	71,129737	4,438034	1,3575	330,3972	1,202	84,974	0	1015,26	8,8	10,2	9,8	1	1	1	1	1	1	1	1	1	0	1	-17,618041	275,670852	309,833058	0
15.01.2021	14:16:45	0	70,661714	3,300078	1,461	322,6608	1,209	84,965	0	1015,34	8,8	10,2	9,8	1	1	1	1	1	1	1	1	1	0	1	-17,195208	275,797507	310,858085	0
15.01.2021	14:16:46	0	71,012618	4,210446	1,40175	332,3592	1,205	84,966	0	1015,4	8,7	10,2	9,8	1	1	1	1	1	1	1	1	1	0	1	-20,436927	275,77634	307,51567	0
15.01.2021	14:16:47	0	71,012554	4,779428	1,41975	336,1248	1,212	84,974	0	1015,28	8,7	10,2	9,8	1	1	1	1	1	1	1	1	1	0	1	-15,081043	275,831748	313,135194	0
15.01.2021	14:16:48	0	70,661522	2,844899	1,4835	336,7332	1,202	84,949	0	1015,16	8,7	10,2	9,8	1	1	1	1	1	1	1	1	1	0	1	-14,376321	275,750321	313,452524	0
15.01.2021	14:16:49	0	70,895436	3,527676	1,36875	323,3304	1,208	84,961	0	1015,16	8,8	10,2	9,8	1	1	1	1	1	1	1	1	1	0	1	-13,248767	275,820327	314,913117	0
15.01.2021	14:16:50	0	71,012361	4,551842	1,27125	309,8844	1,206	84,98	0	1015,34	8,7	10,2	9,8	1	1	1	1	1	1	1	1	1	0	1	-10,359408	275,678946	317,130151	0
15.01.2021	14:16:51	0	70,778318	2,844902	1,25025	321,1272	1,207	84,976	0	1015,32	8,8	10,2	9,8	1	1	1	1	1	1	1	1	1	0	1	-13,03735	275,817066	315,109011	0
15.01.2021	14:16:52	0	70,661265	2,617311	1,278	308,4804	1,203	84,951	0	1015,1	8,8	10,2	9,8	1	1	1	1	1	1	1	1	1	0	1	-14,940099	275,773086	312,997018	0
15.01.2021	14:16:53	0	70,895178	2,958701	1,31925	314,784	1,21	84,971	0	1015,32	8,8	10,2	9,8	1	1	1	1	1	1	1	1	1	0	1	-17,336152	275,649823	310,015042	0
15.01.2021	14:16:54	0	70,661137	2,844906	1,29975	332,0352	1,212	84,971	0	1015,22	8,8	10,2	9,8	1	1	1	1	1	1	1	1	1	0	1	-12,121212	275,790992	315,901084	0
15.01.2021	14:16:55	0	71,012038	4,665648	1,203	328,5288	1,213	84,97	0	1015,38	8,8	10,2	9,8	1	1	1	1	1	1	1	1	1	0	1	-16,913319	275,802395	311,16323	0
15.01.2021	14:16:56	0	70,54402	3,300094	1,11675	324,1008	1,212	84,969	0	1015,32	8,7	10,2	9,8	1	1	1	1	1	1	1	1	1	0	1	-15,785765	275,665997	311,642268	0
15.01.2021	14:16:57	0	71,011909	4,210467	1,05525	328,8672	1,209	84,954	0	1015,18	8,8	10,2	9,8	1	1	1	1	1	1	1	1	1	0	1	-14,65821	275,794249	313,379583	0
15.01.2021	14:16:58	0	70,894856	4,438061	1,0935	331,5312	1,209	84,959	0	1015,3	8,8	10,2	9,8	1	1	1	1	1	1	1	1	1	0	1	-16,631431	275,64659	310,704405	0
15.01.2021	14:16:59	0	70,777804	2,958709	1,27425	311,5224	1,21	84,948	0	1015,2	8,8	10,2	9,8	1	1	1	1	1	1	1	1	1	0	1	-16,27907	275,664379	311,141276	0
15.01.2021	14:17:00	0	70,660687	2,389729	1,5	323,2656	1,211	84,96	0	1015,32	8,8	10,2	9,8	1	1	1	1	1	1	1	1	1	0	1	-14,65821	275,654674	312,716028	0
15.01.2021	14:17:01	0	70,660687	2,389729	1,5	323,2656	1,211	84,96	0	1015,32	8,8	10,2	9,8	1	1	1	1	1	1	1	1	1	0	1	-8,45666	275,667615	318,979061	0
15.01.2021	14:17:02	0	70,543635	2,503526	1,527	319,122	1,209	84,952	0	1015,26	8,8	10,2	9,8	1	1	1	1	1	1	1	1	1	0	1	-16,701903	275,693524	310,856933	0
15.01.2021	14:17:03	0	70,894534	3,755291	1,6005	325,9872	1,208	84,947	0	1015,34	8,8	10,2	9,8	1	1	1	1	1	1	1	1	1	0	1	-12,262156	275,627202	314,981594	0
15.01.2021	14:17:04	0	70,894469	4,324276	1,683	333,522	1,21	84,941	0	1015,28	8,8	10,2	9,8	1	1	1	1	1	1	1	1	1	0	1	-13,03735	275,695145	314,529187	0
15.01.2021	14:17:05	0	70,777417	3,072514	1,65	330,786	1,214	84,933	0	1015,24	8,8	10,2	9,8	1	1	1	1	1	1	1	1	1	0	1	-11,205074	275,667615	316,230647	0
15.01.2021	14:17:06	0	70,543378	2,958718	1,60725	330,6672	1,208	84,927	0	1015,18	8,8	10,2	9,8	1	1	1	1	1	1	1	1	1	0	1	-11,768851	275,70487	315,84391	0
15.01.2021	14:17:07	0	70,894276	5,12086	1,61925	325,4508	1,213	84,936	0	1015,26	8,8	10,2	9,8	1	1	1	1	1	1	1	1	1	0	1	-10,500352	275,815435	317,638249	0
15.01.2021	14:17:08	0	70,894211	3,413908	1,785	321,8508	1,212	84,935	0	1015,36	8,8	10,2	9,8	1	1	1	1	1	1	1	1	1	0	1	-12,05074	275,738948	315,724027	0
15.01.2021	14:17:09	0	70,777159	2,503534	1,91475	329,3028	1,212	84,922	0	1015,24	8,8	10,2	9,8	1	1	1	1	1	1	1	1	1	0	1	-14,65821	275,805654	313,433848	0
15.01.2021	14:17:10	0	70,543121	2,731129	2,022	334,5156	1,212	84,925	0	1015,24	8,8	10,2	9,8	1	1	1	1	1	1	1	1	1	0	1	-10,923185	275,649823	316,428009	0
15.01.2021	14:17:11	0	70,77703	4,438087	2,166	327,1896	1,213	84,904	0	1015,26	8,7	10,2	9,8	1	1	1	1	1	1	1	1	1	0	1	-12,614517	275,674089	314,851964	0
15.01.2021	14:17:12	0	70,893953	3,755306	2,16975	331,4952	1,212	84,895	0	1015,42	8,8	10,2	9,8	1	1	1	1	1	1	1	1	1	0	1	-11,627907	275,805654	316,464151	0
15.01.2021	14:17:13	0	70,659915	4,665629	2,38725	322,1712	1,21	84,892	0	1015,32	8,7	10,2	10	1	1	1	1	1	1	1	1	1	0	1	-15,362932	275,680565	312,134322	0
15.01.2021	14:17:14	0	70,542864	2,389742	2,66475	304,7364	1,204	84,878	0	1015,28	8,8	10,2	9,8	1	1	1	1	1	1	1	1	1	0	1	-12,332629	275,823589	315,844781	0
15.01.2021	14:17:15	0	71,010745	3,982905	2,874	316,2636	1,207	84,859	0	1015,28	8,8	10,2	9,8	1	1	1	1	1	1	1	1	1	0	1	-13,460183	275,732453	314,283699	0
15.01.2021	14:17:16	0	71,010183	3,86911	2,89275	331,5132	1,212	84,853	0	1015,26	8,7	10,1	9,8	1	1	1	1	1	1	1	1	1	0	1	-11,346018	275,818696	316,808104	0
15.01.2021	14:17:17	0	70,542671	2,162151	2,84775	324,45	1,21	84,849	0	1015,24	8,8	10,2	9,8	1	1	1	1	1	1	1	1	1	0	1	-11,980268	275,742197	315,809946	0
15.01.2021	14:17:18	0	70,776579	3,413923	2,724	316,6776	1,21	84,853	0	1015,42	8,7	10,2	9,8	1	1	1	1	1	1	1	1	1	0	1	-14,587738	275,807284	313,512075	0
15.01.2021	14:17:19	0	70,776514	2,389747	2,5425	315,8856	1,206	84,841	0	1015,38	8,7	10,2	9,8	1	1	1	1	1	1	1	1	1	0	1	-15,997181	275,711357	311,646412	0
15.01.2021	14:17:20	0	71,127407	4,779497	2,44275	322,1748	1,206	84,812	0	1015,28	8,8	10,2	9,8	1	1	1	1	1	1	1	1	1	0	1	-13,883016	275,623972	313,345398	0
15.01.2021	14:17:21	0	70,893371	5,007094	2,3685	318,834	1,206	84,814	0	1015,3	8,8	10,2	9,8	1	1	1	1	1	1	1	1	1	0	1	-11,486963	275,800765	316,581834	0
15.01.2021	14:17:22	0	71,127278	4,438108	2,2365	316,2312	1,211	84,807	0	1015,28	8,8	10,2	9,8	1	1	1	1	1	1	1	1	1	0	1	-13,601128	275,743821	314,196811	0
15.01.2021	14:17:23	0	70,893242	3,072538	2,196	314,0496	1,206	84,802	0	1015,26	8,8	10,2	9,8	1	1	1	1	1	1	1	1	1	0	1	-11,768851	275,669234	315,674558	0
15.01.2021	14:17:24	0	70,425235	3,072539	2,17125	326,016	1,203	84,792	0	1015,28	8,8	10,2	9,8	1	1	1	1	1	1	1	1	1	0	1	-12,966878	275,756822	314,892886	0
15.01.2021	14:17:25	0	70,893112	4,665654	2,21775	333,126	1,203	84,804	0	1015,36	8,7	10,2	10	1	1	1	1	1	1	1	1	1	0	1	-18,040874	275,823589	310,136536	0
15.01.2021	14:17:26	0	70,775566	2,958744	2,19075	329,2848	1,207	84,796	0	1015,28	8,8	10,1	9,8	1	1	1	1	1	1	1	1	1	0	1	-14,164905	275,703249	313,440151	0
15.01.2021	14:17:27	0	70,308057	2,617352	2,112	321,138	1,198	84,79	0	1015,26	8,8	10,2	9,8	1	1	1	1	1	1	1	1	1	0	1	-15,574348	275,797507	312,478945	0
15.01.2021	14:17:28	0	71,009903	2,731151	1,947	311,7204	1,209	84,785	0	1015,26	8,8	10,2	9,8	1	1	1	1	1	1	1	1	1	0	1	-12,544045	275,665997	314,883988	0
15.01.2021	14:17:29	0	70,892853	4,893314	1,85775	310,032	1,207	84,787	0	1015,22	8,8	10,2	9,8	1	1	1	1	1	1	1	1	1	0	1	-13,812544	275,680565	313,684709	0
15.01.2021	14:17:30	0	71,126758	4,09673	1,944	321,9012	1,209	84,784	0	1015,3	8,8	10,2	9,8	1	1	1	1	1	1	1	1	1	0	1	-13,530655	275,753571	314,313648	0
15.01.2021	14:17:31	0	70,658754	4,438126	1,8765	324,432	1,21	84,781	0	1015,24	8,7	10,2	9,8	1	1	1	1	1	1	1	1	1	0	1	-16,842847	275,690284	310,700589	0
15.01.2021	14:17:32	0	71,009643	4,438128	1,83975	311,0148	1,204	84,773	0	1015,24	8,8	10,2	9,8	1	1	1	1	1	1	1	1	1	0	1	-12,121212	275,817066	316,025149	0
15.01.2021	14:17:33	0	70,775609	3,300108	1,86975	320,7924	1,205	84,785	0	1015,22	8,8	10,2	10	1	1	1	1	1	1	1	1	1	0	1	-13,742072	275,750321	314,086773	0
15.01.2021	14:17:34	0	70,775545	4,55193	1,85475	318,4164	1,21	84,784	0	1015,36	8,8	10,2	9,8	1	1	1	1	1	1	1	1	1	0	1	-15,503876	275,794249	312,533917	0
15.01.2021	14:17:35	0	70,892464	2,844923	1,8855	314,1216	1,205	84,777	0	1015,24	8,8	10,2	10	1	1	1	1	1	1	1	1	1	0	1	-12,403101	275,700007	315,186545	0
15.01.2021	14:17:36	0	70,424463	2,731128	1,7985	330,4656	1,209	84,794	0	1015,4	8,7	10,2	10	1	1	1	1	1	1	1	1	1	0	1	-15,856237	275,797507	312,197056	0
15.01.2021	14:17:37	0	70,541382	2,731162	1,63725	317,718	1,205	84,763	0	1015,24	8,8	10,2	9,8	1	1	1	1	1	1	1	1	1	0	1	-14,235377	275,674089	313,231104	0
15.01.2021	14:17:38	0	70,424334	3,413954	1,51875	298,3536	1,211	84,792	0	1015,06	8,8	10,2	9,8	1	1	1	1	1	1	1	1	1	0	1	-14,023961	275,677327	313,457905	0
15.01.2021	14:17:39	0	70,775221	4,324343	1,3905	324,3636	1,207	84,789	0	1015,38	8,8	10,2	9,8	1	1	1	1	1	1	1	1	1	0	1	-15,292459	275,812174	312,830624	0
15.01.2021	14:17:40	0	71,009124	5,234733	1,2645	312,4332	1,205	84,785	0	1015,2	8,8	10,2	9,8	1	1	1	1	1	1	1	1	1	0	1	-21,846371	275,656291	305,53555	0
15.01.2021	14:17:41	0	70,658108	3,641555	1,233	312,174	1,204	84,797	0	1015,14	8,8	10,2	9,8	1	1	1	1	1	1	1	1	1	0	1	-16,138125	275,768205	311,775778	0
15.01.2021	14:17:42	0	70,54106	2,958765	1,2765	316,9872	1,206	84,789	0	1015,14	8,8	10,2	9,8	1	1	1	1	1	1	1	1	1	0	1	-11,205074	275,643357	316,115407	0
15.01.2021	14:17:43	0	70,774962	3,755357	1,42125	308,124	1,204	84,768	0	1015,24	8,7	10,2	9,8	1	1	1	1	1	1	1	1	1	0	1	-10,993658	275,643357	316,326823	0
15.01.2021	14:17:44	0	70,89188	3,300164	1,524	302,8176	1,204	84,796	0	1015,28	8,8	10,2	9,8	1	1	1	1	1	1	1	1	1	0	1	-16,420014	275,769832	311,501626	0
15.01.2021	14:17:45	0	71,008799	3,869159	1,68225	312,3072	1,205	84,791	0	1015,12	8,8	10,2	9,8	1	1	1	1	1	1	1	1	1	0	1	-13,812544	275,763326	314,078152	0
15.01.2021	14:17:46	0	70,657784	3,527764	1,689	314,0496	1,207	84,808	0	1015,34	8,8	10,2	9,8	1	1	1	1	1	1	1	1	1	0	1	-13,178295	275,614287	314,004128	0
15.01.2021	14:17:47	0	70,774703	3,527724	1,6485	317,7216	1,209	84,799	0	1015,3	8,8	10,2	10	1	1	1	1	1	1	1	1	1	0	1	-13,883016	275,743821	313,914922	0
15.01.2021	14:17:48	0	70,657655	4,210561	1,689	321,1668	1,203	84,792	0	1015,32	8,8	10,2	9,8	1	1	1	1	1	1	1	1	1	0	1	-16,067653	275,797507	311,98564	0
15.01.2021	14:17:49	0	70,891556	3,869166	1,728	328,122	1,204	84,786	0	1015,2	8,8	10,2	9,8	1	1	1	1	1	1	1	1	1	0	1	-13,319239	275,787735	314,687563	0
15.01.2021	14:17:50	0	70,774508	4,551962	1,7565	325,9944	1,208	84,803	0	1015,42	8,7	10,2	9,8	1	1	1	1	1	1	1	1	1	0	1	-11,557435	275,753571	316,286868	0
15.01.2021	14:17:51	0	70,65746	4,096719	1,7685	323,7156	1,204	84,814	0	1015,24	8,8	10,2	10	1	1	1	1	1	1	1	1	1	0	1	-13,03735	275,632047	314,229411	0
15.01.2021	14:17:52	0	70,657396	2,389782	1,79625	317,3328	1,209	84,807	0	1015,22	8,8	10,2	9,8	1	1	1	1	1	1	1	1	1	0	1	-18,393235	275,691904	309,157901	0
15.01.2021	14:17:53	0	70,656836	4,438169	1,926	326,0124	1,204	84,822	0	1015,2	8,8	10,1	9,8	1	1	1	1	1	1	1	1	1	0	1	-14,305849	275,808914	313,80172	0
15.01.2021	14:17:54	0	70,306319	2,162186	2,11575	324,3204	1,207	84,821	0	1015,12	8,8	10,2	9,8	1	1	1	1	1	1	1	1	1	0	1	-13,460183	275,657908	313,929421	0
15.01.2021	14:17:55	0	70,540219	3,527779	2,1225	320,04	1,212	84,827	0	1015,2	8,8	10,2	9,8	1	1	1	1	1	1	1	1	1	0	1	-16,490486	275,805654	311,601572	0
15.01.2021	14:17:56	0	70,540154	3,413981	2,31975	312,1128	1,214	84,829	0	1015,24	8,8	10,2	9,8	1	1	1	1	1	1	1	1	1	0	1	-15,997181	275,680565	311,500072	0
15.01.2021	14:17:57	0	70,891035	3,641537	2,4015	318,8196	1,207	84,831	0	1015,18	8,8	10,2	10	1	1	1	1	1	1	1	1	1	0	1	-11,275546	275,810544	316,83978	0
15.01.2021	14:17:58	0	70,89097	3,527783	2,27475	319,5288	1,21	84,833	0	1015,32	8,8	10,2	9,8	1	1	1	1	1	1	1	1	1	0	1	-14,869626	275,688664	312,66611	0
15.01.2021	14:17:59	0	70,890905	3,641584	2,1195	316,314	1,214	84,832	0	1015,3	8,8	10,2	9,8	1	1	1	1	1	1	1	1	1	0	1	-14,940099	275,773086	312,997018	0
15.01.2021	14:18:00	0	70,539831	3,072589	1,94325	322,2288	1,213	84,845	0	1015,38	8,8	10,2	9,8	1	1	1	1	1	1	1	1	1	0	1	-11,909796	275,782851	316,073771	0
15.01.2021	14:18:01	0	70,539831	3,072589	1,94325	322,2288	1,213	84,845	0	1015,38	8,8	10,2	9,8	1	1	1	1	1	1	1	1	1	0	1	-14,65821	275,638509	312,639243	0
15.01.2021	14:18:02	0	70,539766	4,210587	1,863	323,0244	1,213	84,842	0	1015,3	8,8	10,2	9,8	1	1	1	1	1	1	1	1	1	0	1	-16,842847	275,799136	311,218198	0
15.01.2021	14:18:03	0	70,539701	3,300192	1,80825	344,718	1,211	84,847	0	1015,3	8,8	10,2	9,8	1	1	1	1	1	1	1	1	1	0	1	-12,403101	275,630432	314,85599	0
15.01.2021	14:18:04	0	70,89058	4,77959	1,752	305,6868	1,211	84,848	0	1015,42	8,7	10,2	9,8	1	1	1	1	1	1	1	1	1	0	1	-14,517266	275,790992	313,50503	0
15.01.2021	14:18:05	0	71,007496	4,665792	1,70925	316,692	1,206	84,841	0	1015,26	8,8	10,2	9,8	1	1	1	1	1	1	1	1	1	0	1	-15,362932	275,763326	312,527764	0
15.01.2021	14:18:06	0	71,00743	4,210595	1,6995	314,4672	1,213	84,836	0	1015,3	8,8	10,2	9,8	1	1	1	1	1	1	1	1	1	0	1	-15,010571	275,807284	313,089242	0
15.01.2021	14:18:07	0	70,773403	2,844964	1,80975	321,5016	1,208	84,835	0	1015,28	8,8	10,2	10	1	1	1	1	1	1	1	1	1	0	1	-11,627907	275,674089	315,838574	0
15.01.2021	14:18:08	0	70,539377	4,096799	1,8915	326,4084	1,205	84,851	0	1015,22	8,8	10,2	9,8	1	1	1	1	1	1	1	1	1	0	1	-13,530655	275,625587	313,705426	0
15.01.2021	14:18:09	0	70,773273	3,414	1,96125	318,8088	1,212	84,868	0	1015,32	8,8	10,2	9,8	1	1	1	1	1	1	1	1	1	0	1	-16,138125	275,748696	311,682992	0
15.01.2021	14:18:10	0	70,656228	4,096753	1,94475	320,0148	1,213	84,858	0	1015,24	8,8	10,2	10	1	1	1	1	1	1	1	1	1	0	1	-14,446794	275,764952	313,451637	0
15.01.2021	14:18:11	0	71,007104	3,983004	1,914	313,326	1,204	84,854	0	1015,22	8,8	10,2	9,8	1	1	1	1	1	1	1	1	1	0	1	-14,940099	275,693524	312,618737	0
15.01.2021	14:18:12	0	70,539118	4,324406	1,91175	319,518	1,209	84,86	0	1015,32	8,8	10,2	9,8	1	1	1	1	1	1	1	1	1	0	1	-13,530655	275,627202	313,713095	0
15.01.2021	14:18:13	0	71,123954	4,665809	1,93725	312,8112	1,21	84,864	0	1015,3	8,8	10,2	9,8	1	1	1	1	1	1	1	1	1	0	1	-14,446794	275,700007	313,142852	0
15.01.2021	14:18:14	0	70,538988	4,779611	2,022	315,0792	1,214	84,862	0	1015,34	8,8	10,2	9,8	1	1	1	1	1	1	1	1	1	0	1	-13,883016	275,830116	314,325454	0
15.01.2021	14:18:15	0	70,538923	2,845008	2,0265	320,7852	1,209	84,87	0	1015,22	8,8	10,2	9,8	1	1	1	1	1	1	1	1	1	0	1	-12,825934	275,828484	315,37477	0
15.01.2021	14:18:16	0	70,889797	4,210614	1,91925	309,2004	1,212	84,877	0	1015,28	8,8	10,2	9,8	1	1	1	1	1	1	1	1	1	0	1	-15,433404	275,661143	311,971569	0
15.01.2021	14:18:17	0	70,538793	3,414012	1,818	321,426	1,212	84,87	0	1015,4	8,8	10,2	9,8	1	1	1	1	1	1	1	1	1	0	1	-12,825934	275,804024	315,25837	0
15.01.2021	14:18:18	0	70,889667	4,77962	1,8105	321,8868	1,217	84,869	0	1015,26	8,8	10,2	9,8	1	1	1	1	1	1	1	1	1	0	1	-15,715292	275,77634	312,237305	0
15.01.2021	14:18:19	0	70,772622	4,210619	1,76625	333,108	1,209	84,859	0	1015,16	8,8	10,2	9,8	1	1	1	1	1	1	1	1	1	0	1	-13,601128	275,661143	313,803845	0
15.01.2021	14:18:20	0	70,655083	3,072615	1,73325	326,3328	1,21	84,856	0	1015,36	8,7	10,1	9,8	1	1	1	1	1	1	1	1	1	0	1	-15,926709	275,825221	312,258465	0
15.01.2021	14:18:21	0	70,655512	3,527819	1,72425	315,2268	1,216	84,874	0	1015,42	8,8	10,2	9,8	1	1	1	1	1	1	1	1	1	0	1	-15,503876	275,682185	312,001073	0
15.01.2021	14:18:22	0	70,772427	3,755422	1,68675	322,9056	1,216	84,871	0	1015,36	8,8	10,2	9,8	1	1	1	1	1	1	1	1	1	0	1	-15,010571	275,771459	312,918807	0
15.01.2021	14:18:23	0	70,538403	3,300221	1,7295	319,5468	1,212	84,869	0	1015,3	8,8	10,2	9,8	1	1	1	1	1	1	1	1	1	0	1	-14,517266	275,79262	313,512778	0
15.01.2021	14:18:24	0	70,655317	4,665832	1,7835	313,596	1,209	84,878	0	1015,22	8,8	10,2	9,8	1	1	1	1	1	1	1	1	1	0	1	-15,362932	275,799136	312,698113	0
15.01.2021	14:18:25	0	70,772231	3,072622	1,80075	321,5268	1,212	84,863	0	1015,18	8,8	10,2	9,8	1	1	1	1	1	1	1	1	1	0	1	-11,41649	275,680565	316,080763	0
15.01.2021	14:18:26	0	70,655187	3,414026	1,75875	316,224	1,212	84,877	0	1015,2	8,8	10,2	9,8	1	1	1	1	1	1	1	1	1	0	1	-12,755462	275,633662	314,518972	0
15.01.2021	14:18:27	0	70,421164	3,186426	1,7595	327,4128	1,218	84,885	0	1015,22	8,8	10,2	9,8	1	1	1	1	1	1	1	1	1	0	1	-13,953488	275,755197	313,898545	0
15.01.2021	14:18:28	0	70,421099	3,072626	1,72275	321,8508	1,213	84,877	0	1015,38	8,8	10,2	9,8	1	1	1	1	1	1	1	1	1	0	1	-19,379845	275,805654	308,712213	0
15.01.2021	14:18:29	0	70,537519	2,27602	1,76475	316,674	1,218	84,87	0	1015,36	8,8	10,1	9,8	1	1	1	1	1	1	1	1	1	0	1	-17,970402	275,698386	309,61154	0
15.01.2021	14:18:30	0	70,654926	3,18643	1,81725	337,9464	1,219	84,878	0	1015,3	8,8	10,2	9,8	1	1	1	1	1	1	1	1	1	0	1	-15,503876	275,654674	311,870362	0
15.01.2021	14:18:31	0	70,771839	3,414034	1,8135	322,956	1,212	84,878	0	1015,3	8,8	10,2	9,8	1	1	1	1	1	1	1	1	1	0	1	-15,574348	275,743821	312,223591	0
15.01.2021	14:18:32	0	70,537818	4,096842	1,77375	319,0968	1,218	84,857	0	1015,2	8,8	10,2	9,8	1	1	1	1	1	1	1	1	1	0	1	-12,825934	275,779595	315,142146	0
15.01.2021	14:18:33	0	70,654731	3,983043	1,68675	314,4492	1,217	84,88	0	1015,24	8,8	10,2	9,8	1	1	1	1	1	1	1	1	1	0	1	-12,755462	275,813804	315,375381	0
15.01.2021	14:18:34	0	70,771643	3,641641	1,66275	320,4756	1,216	84,89	0	1015,26	8,8	10,2	9,8	1	1	1	1	1	1	1	1	1	0	1	-13,953488	275,657908	313,436115	0
15.01.2021	14:18:35	0	70,6546	5,234861	1,614	316,6344	1,214	84,877	0	1015,3	8,8	10,2	9,8	1	1	1	1	1	1	1	1	1	0	1	-16,490486	275,690284	311,052949	0
15.01.2021	14:18:36	0	70,537557	3,527843	1,53375	311,7924	1,208	84,87	0	1015,28	8,8	10,2	9,8	1	1	1	1	1	1	1	1	1	0	1	-14,235377	275,627202	313,008374	0
15.01.2021	14:18:37	0	70,537492	2,845036	1,46475	315,9288	1,216	84,866	0	1015,34	8,8	10,2	9,8	1	1	1	1	1	1	1	1	1	0	1	-16,420014	275,730829	311,316149	0
15.01.2021	14:18:38	0	70,537427	3,755449	1,4535	299,3184	1,218	84,871	0	1015,34	8,8	10,2	9,8	1	1	1	1	1	1	1	1	1	0	1	-15,503876	275,825221	312,681298	0
15.01.2021	14:18:39	0	70,537362	2,617435	1,503	303,8004	1,215	84,855	0	1015,28	8,8	10,2	9,8	1	1	1	1	1	1	1	1	1	0	1	-15,010571	275,753571	312,833732	0
15.01.2021	14:18:40	0	70,771251	4,552063	1,566	301,2696	1,217	84,836	0	1015,28	8,8	10,2	9,8	1	1	1	1	1	1	1	1	1	0	1	-15,574348	275,799136	312,486696	0
15.01.2021	14:18:41	0	70,654209	3,869255	1,581	306,1836	1,216	84,831	0	1015,34	8,8	10,2	9,8	1	1	1	1	1	1	1	1	1	0	1	-14,164905	275,756822	313,69486	0
15.01.2021	14:18:42	0	70,303212	3,41405	1,5555	308,4912	1,213	84,835	0	1015,26	8,8	10,2	9,8	1	1	1	1	1	1	1	1	1	0	1	-11,41649	275,619129	315,788924	0
15.01.2021	14:18:43	0	70,771055	4,210664	1,5645	309,276	1,214	84,835	0	1015,24	8,8	10,2	9,8	1	1	1	1	1	1	1	1	1	0	1	-12,755462	275,740572	315,027028	0
15.01.2021	14:18:44	0	70,420059	2,389837	1,4625	311,8248	1,217	84,803	0	1015,26	8,8	10,2	9,8	1	1	1	1	1	1	1	1	1	0	1	-15,715292	275,635278	311,566813	0
15.01.2021	14:18:45	0	70,419994	4,665875	1,3455	311,1408	1,211	84,814	0	1015,26	8,8	10,2	9,8	1	1	1	1	1	1	1	1	1	0	1	-18,111346	275,7617	309,771616	0
15.01.2021	14:18:46	0	70,302952	2,617443	1,31175	317,034	1,218	84,79	0	1015,18	8,8	10,2	9,8	1	1	1	1	1	1	1	1	1	0	1	-15,292459	275,802395	312,78409	0
15.01.2021	14:18:47	0	70,653817	3,755419	1,341	325,5336	1,211	84,772	0	1015,18	8,8	10,2	10	1	1	1	1	1	1	1	1	1	0	1	-12,684989	275,691904	314,866146	0
15.01.2021	14:18:48	0	70,653751	2,958852	1,30875	324,4104	1,214	84,764	0	1015,42	8,8	10,2	9,8	1	1	1	1	1	1	1	1	1	0	1	-14,164905	275,612673	313,009855	0
15.01.2021	14:18:49	0	70,53671	4,893488	1,2735	324,45	1,214	84,749	0	1015,2	8,8	10,2	9,8	1	1	1	1	1	1	1	1	1	0	1	-16,560958	275,756822	311,298806	0
15.01.2021	14:18:50	0	70,653621	4,438281	1,22925	333,3996	1,21	84,74	0	1015,06	8,8	10,2	9,8	1	1	1	1	1	1	1	1	1	0	1	-12,896406	275,802395	315,180144	0
15.01.2021	14:18:51	0	70,185651	3,527866	1,21425	318,456	1,214	84,731	0	1015,1	8,8	10,2	9,8	1	1	1	1	1	1	1	1	1	0	1	-13,6716	275,756822	314,188165	0
15.01.2021	14:18:52	0	70,419538	2,845055	1,35375	313,6032	1,214	84,727	0	1015,12	8,8	10,2	9,8	1	1	1	1	1	1	1	1	1	0	1	-13,812544	275,753571	314,031759	0
15.01.2021	14:18:53	0	70,7704	4,665892	1,43775	336,7908	1,215	84,711	0	1015,34	8,8	10,2	9,8	1	1	1	1	1	1	1	1	1	0	1	-13,6716	275,817066	314,474762	0
15.01.2021	14:18:54	0	70,653359	3,98308	1,37325	322,1604	1,212	84,713	0	1015,26	8,8	10,2	9,8	1	1	1	1	1	1	1	1	1	0	1	-10,852713	275,725959	316,860297	0
15.01.2021	14:18:55	0	70,770269	3,41407	1,2675	319,5648	1,211	84,703	0	1015,32	8,8	10,2	9,8	1	1	1	1	1	1	1	1	1	0	1	-12,825934	275,815435	315,312668	0
15.01.2021	14:18:56	0	69,950885	2,503653	1,2525	329,6124	1,206	84,689	0	1015,12	8,8	10,1	9,8	1	1	1	1	1	1	1	1	1	0	1	-17,406624	275,709735	310,22926	0
15.01.2021	14:18:57	0	70,536187	4,552098	1,26	320,3784	1,204	84,672	0	1015,24	8,8	10,2	9,8	1	1	1	1	1	1	1	1	1	0	1	-15,081043	275,812174	313,042041	0
15.01.2021	14:18:58	0	70,185196	3,527877	1,31025	331,5384	1,209	84,683	0	1015,3	8,8	10,2	9,8	1	1	1	1	1	1	1	1	1	0	1	-13,460183	275,764952	314,438248	0
15.01.2021	14:18:59	0	70,419081	3,414076	1,46625	323,2944	1,208	84,674	0	1015,18	8,8	10,2	9,8	1	1	1	1	1	1	1	1	1	0	1	-15,785765	275,818696	312,368358	0
15.01.2021	14:19:00	0	70,068026	2,503658	1,57275	325,944	1,209	84,661	0	1015,32	8,8	10,2	9,8	1	1	1	1	1	1	1	1	1	0	1	-17,054264	275,748696	310,766854	0
15.01.2021	14:19:01	0	70,068026	2,503658	1,57275	325,944	1,209	84,661	0	1015,32	8,8	10,2	9,8	1	1	1	1	1	1	1	1	1	0	1	-11,06413	275,64659	316,271706	0
15.01.2021	14:19:02	0	70,76981	4,096897	1,554	327,4416	1,206	84,649	0	1015,18	8,7	10,2	9,8	1	1	1	1	1	1	1	1	1	0	1	-16,631431	275,687044	310,896608	0
15.01.2021	14:19:03	0	70,769745	4,552055	1,4835	318,3552	1,208	84,66	0	1015,26	8,8	10,2	10	1	1	1	1	1	1	1	1	1	0	1	-14,094433	275,820327	314,067451	0
15.01.2021	14:19:04	0	70,184806	3,072676	1,4415	329,67	1,205	84,654	0	1015,44	8,7	10,2	9,8	1	1	1	1	1	1	1	1	1	0	1	-9,654686	275,693524	317,90415	0
15.01.2021	14:19:05	0	70,41869	4,438311	1,38525	331,4988	1,203	84,643	0	1015,34	8,8	10,2	9,8	1	1	1	1	1	1	1	1	1	0	1	-17,618041	275,805654	310,474017	0
15.01.2021	14:19:06	0	70,418624	3,755496	1,41225	311,0256	1,199	84,633	0	1015,08	8,8	10,2	9,8	1	1	1	1	1	1	1	1	1	0	1	-14,65821	275,77634	313,294387	0
15.01.2021	14:19:07	0	70,418559	5,00733	1,49775	310,95	1,202	84,629	0	1015,22	8,8	10,2	9,8	1	1	1	1	1	1	1	1	1	0	1	-14,305849	275,748696	313,515268	0
15.01.2021	14:19:08	0	70,067571	3,072681	1,527	318,4236	1,206	84,635	0	1015,32	8,8	10,2	9,8	1	1	1	1	1	1	1	1	1	0	1	-16,983791	275,664379	310,436554	0
15.01.2021	14:19:09	0	70,067506	2,503667	1,476	329,6952	1,204	84,602	0	1015,22	8,8	10,2	9,8	1	1	1	1	1	1	1	1	1	0	1	-16,983791	275,799136	311,077253	0
15.01.2021	14:19:10	0	70,418363	3,30029	1,3995	337,6512	1,205	84,607	0	1015,3	8,8	10,2	9,8	1	1	1	1	1	1	1	1	1	0	1	-14,305849	275,769832	313,615791	0
15.01.2021	14:19:11	0	70,418298	3,641701	1,3305	316,602	1,204	84,62	0	1015,34	8,8	10,2	9,8	1	1	1	1	1	1	1	1	1	0	1	-11,275546	275,630432	315,983544	0
15.01.2021	14:19:12	0	70,301258	2,503671	1,28925	316,9656	1,203	84,601	0	1015,16	8,8	10,2	9,8	1	1	1	1	1	1	1	1	1	0	1	-11,980268	275,698386	315,601674	0
15.01.2021	14:19:13	0	70,301193	2,389868	1,1805	326,2428	1,205	84,613	0	1015,24	8,8	10,2	9,8	1	1	1	1	1	1	1	1	1	0	1	-12,825934	275,755197	315,0261	0
15.01.2021	14:19:14	0	70,067181	4,66588	1,15125	321,8544	1,197	84,619	0	1015,26	8,8	10,2	10	1	1	1	1	1	1	1	1	1	0	1	-11,839323	275,786107	316,159732	0
15.01.2021	14:19:15	0	70,184089	2,617477	1,10325	326,3508	1,209	84,61	0	1015,24	8,8	10,2	9,8	1	1	1	1	1	1	1	1	1	0	1	-12,262156	275,622357	314,95859	0
15.01.2021	14:19:16	0	70,06705	2,389872	1,02525	331,4952	1,2	84,601	0	1015,3	8,8	10,2	9,8	1	1	1	1	1	1	1	1	1	0	1	-16,067653	275,766579	311,838513	0
15.01.2021	14:19:17	0	70,066985	4,665942	0,94725	319,9932	1,206	84,615	0	1015,3	8,8	10,2	9,8	1	1	1	1	1	1	1	1	1	0	1	-13,883016	275,810544	314,23231	0
15.01.2021	14:19:18	0	69,949947	3,186498	0,96375	324,036	1,205	84,612	0	1015,38	8,8	10,2	9,8	1	1	1	1	1	1	1	1	1	0	1	-14,65821	275,706492	312,962258	0
15.01.2021	14:19:19	0	70,183828	4,324535	0,98925	327,7332	1,2	84,598	0	1015,04	8,8	10,2	9,8	1	1	1	1	1	1	1	1	1	0	1	-14,164905	275,619129	313,04051	0
15.01.2021	14:19:20	0	69,949817	2,84509	1,11075	319,2516	1,207	84,614	0	1015,24	8,8	10,2	9,8	1	1	1	1	1	1	1	1	1	0	1	-14,728682	275,768205	313,185221	0
15.01.2021	14:19:21	0	70,534616	3,869325	1,2015	332,01	1,203	84,607	0	1015,4	8,8	10,2	9,8	1	1	1	1	1	1	1	1	1	0	1	-15,785765	275,777968	312,174574	0
15.01.2021	14:19:22	0	70,183632	2,731289	1,248	329,6664	1,199	84,6	0	1015,14	8,8	10,2	9,8	1	1	1	1	1	1	1	1	1	0	1	-15,715292	275,623972	311,513121	0
15.01.2021	14:19:23	0	70,183567	2,845094	1,33725	324,36	1,196	84,614	0	1015,24	8,8	10,2	9,8	1	1	1	1	1	1	1	1	1	0	1	-11,909796	275,7357	315,849527	0
15.01.2021	14:19:24	0	70,066529	2,731259	1,449	331,1424	1,204	84,613	0	1015,26	8,8	10,2	10	1	1	1	1	1	1	1	1	1	0	1	-17,547569	275,800765	310,521228	0
15.01.2021	14:19:25	0	70,183437	2,845097	1,4685	318,3948	1,197	84,607	0	1015,24	8,8	10,2	9,8	1	1	1	1	1	1	1	1	1	0	1	-13,812544	275,716223	313,854181	0
15.01.2021	14:19:26	0	69,832454	3,641682	1,5645	322,596	1,196	84,621	0	1015,28	8,8	10,2	10	1	1	1	1	1	1	1	1	1	0	1	-17,195208	275,659526	310,20208	0
15.01.2021	14:19:27	0	69,949362	2,731295	1,63425	330,0012	1,2	84,617	0	1015,24	8,8	10,2	9,8	1	1	1	1	1	1	1	1	1	0	1	-15,010571	275,805654	313,081487	0
15.01.2021	14:19:28	0	69,949296	4,210749	1,71525	312,8436	1,202	84,62	0	1015,24	8,8	10,2	9,8	1	1	1	1	1	1	1	1	1	0	1	-14,517266	275,700007	313,07238	0
15.01.2021	14:19:29	0	70,183175	4,552163	1,78725	319,5324	1,201	84,602	0	1015,24	8,8	10,2	9,8	1	1	1	1	1	1	1	1	1	0	1	-10,993658	275,826852	317,199281	0
15.01.2021	14:19:30	0	70,417054	4,779773	1,7985	322,5276	1,195	84,606	0	1015,2	8,8	10,2	9,8	1	1	1	1	1	1	1	1	1	0	1	-13,6716	275,751946	314,164974	0
15.01.2021	14:19:31	0	69,715158	2,7313	1,83675	327,186	1,199	84,613	0	1015,3	8,8	10,2	9,8	1	1	1	1	1	1	1	1	1	0	1	-10,42988	275,617515	316,767869	0
15.01.2021	14:19:32	0	70,299951	3,983148	1,85475	303,2316	1,196	84,628	0	1015,28	8,8	10,2	9,8	1	1	1	1	1	1	1	1	1	0	1	-13,601128	275,742197	314,189086	0
15.01.2021	14:19:33	0	70,416857	4,77978	1,83225	331,182	1,194	84,625	0	1015,16	8,8	10,2	9,8	1	1	1	1	1	1	1	1	1	0	1	-11,980268	275,620743	315,232812	0
15.01.2021	14:19:34	0	69,831934	3,186521	1,8705	315,1044	1,2	84,623	0	1015,4	8,8	10,2	9,8	1	1	1	1	1	1	1	1	1	0	1	-9,654686	275,653057	317,711869	0
15.01.2021	14:19:35	0	69,831869	3,186484	2,028	329,3352	1,196	84,616	0	1015,2	8,8	10,2	10	1	1	1	1	1	1	1	1	1	0	1	-13,248767	275,797507	314,804526	0
15.01.2021	14:19:36	0	70,065746	4,779786	2,1045	305,7048	1,202	84,618	0	1015,28	8,8	10,2	9,8	1	1	1	1	1	1	1	1	1	0	1	-17,195208	275,669234	310,248202	0
15.01.2021	14:19:37	0	70,182652	4,096961	2,12625	312,4656	1,198	84,618	0	1015,3	8,8	10,2	9,8	1	1	1	1	1	1	1	1	1	0	1	-19,379845	275,807284	308,719968	0
15.01.2021	14:19:38	0	69,831674	3,641745	2,05725	295,4592	1,192	84,599	0	1015,24	8,8	10,2	9,8	1	1	1	1	1	1	1	1	1	0	1	-11,980268	275,693524	315,578568	0
15.01.2021	14:19:39	0	70,299492	4,779793	1,94175	295,5528	1,197	84,601	0	1015,34	8,8	10,2	9,8	1	1	1	1	1	1	1	1	1	0	1	-16,138125	275,815435	312,000476	0
15.01.2021	14:19:40	0	69,597602	4,096967	1,8135	309,2256	1,201	84,604	0	1015,28	8,7	10,2	9,8	1	1	1	1	1	1	1	1	1	0	1	-16,772375	275,714601	310,886639	0
15.01.2021	14:19:41	0	70,06542	2,617508	1,74825	309,5244	1,193	84,671	0	1015,3	8,8	10,2	9,8	1	1	1	1	1	1	1	1	1	0	1	-12,755462	275,604606	314,380997	0
15.01.2021	14:19:42	0	70,065354	4,324528	1,725	301,6404	1,193	84,589	0	1015,26	8,8	10,2	10	1	1	1	1	1	1	1	1	1	0	1	-15,785765	275,764952	312,112666	0
15.01.2021	14:19:43	0	70,065289	4,096973	1,68375	322,6284	1,197	84,599	0	1015,26	8,8	10,2	9,8	1	1	1	1	1	1	1	1	1	0	1	-15,715292	275,656291	311,666628	0
15.01.2021	14:19:44	0	69,480372	2,845121	1,57425	312,1848	1,192	84,593	0	1015,38	8,8	10,2	9,8	1	1	1	1	1	1	1	1	1	0	1	-10,923185	275,636893	316,366594	0
15.01.2021	14:19:45	0	69,947698	3,755516	1,45275	309,5388	1,196	84,598	0	1015,28	8,8	10,1	10	1	1	1	1	1	1	1	1	1	0	1	-14,094433	275,670852	313,356667	0
15.01.2021	14:19:46	0	69,597213	3,186538	1,37025	311,0112	1,193	84,583	0	1015,26	8,8	10,2	9,8	1	1	1	1	1	1	1	1	1	0	1	-13,460183	275,619129	313,745231	0
15.01.2021	14:19:47	0	69,948058	2,845125	1,338	318,4704	1,193	84,578	0	1015,24	8,8	10,2	9,8	1	1	1	1	1	1	1	1	1	0	1	-11,909796	275,690284	315,63364	0
15.01.2021	14:19:48	0	69,714052	2,958931	1,31325	326,0592	1,188	84,557	0	1015,24	8,8	10,2	9,8	1	1	1	1	1	1	1	1	1	0	1	-13,601128	275,628816	313,650293	0
15.01.2021	14:19:49	0	69,830957	5,34884	1,29675	327,1104	1,191	84,55	0	1015,32	8,8	10,2	9,8	1	1	1	1	1	1	1	1	1	0	1	-16,208598	275,678946	311,280962	0
15.01.2021	14:19:50	0	69,596953	4,324596	1,317	324,0324	1,191	84,558	0	1015,32	8,8	10,2	9,8	1	1	1	1	1	1	1	1	1	0	1	-16,772375	275,784478	311,218936	0
15.01.2021	14:19:51	0	69,947796	3,755572	1,25025	345,4128	1,19	84,558	0	1015,04	8,8	10,2	9,8	1	1	1	1	1	1	1	1	1	0	1	-13,248767	275,659526	314,148521	0
15.01.2021	14:19:52	0	69,713792	2,617489	1,1445	351,3744	1,193	84,548	0	1015,24	8,8	10,2	10	1	1	1	1	1	1	1	1	1	0	1	-14,305849	275,636893	312,98393	0
15.01.2021	14:19:53	0	69,596758	3,527964	1,0545	337,464	1,194	84,543	0	1015,3	8,8	10,2	9,8	1	1	1	1	1	1	1	1	1	0	1	-15,997181	275,810544	312,118145	0
15.01.2021	14:19:54	0	69,9476	2,958939	1,00125	332,4384	1,189	84,523	0	1015,3	8,8	10,2	9,8	1	1	1	1	1	1	1	1	1	0	1	-10,782241	275,695145	316,784296	0
15.01.2021	14:19:55	0	69,947535	5,348854	0,99675	350,6256	1,181	84,519	0	1015,2	8,8	10,2	9,8	1	1	1	1	1	1	1	1	1	0	1	-13,03735	275,804024	315,046953	0
15.01.2021	14:19:56	0	69,8305	4,43836	1,026	336,762	1,188	84,53	0	1015,26	8,8	10,2	10	1	1	1	1	1	1	1	1	1	0	1	-12,755462	275,678946	314,734098	0
15.01.2021	14:19:57	0	69,596497	4,096949	0,99975	320,778	1,185	84,533	0	1015,22	8,8	10,2	10	1	1	1	1	1	1	1	1	1	0	1	-13,248767	275,622357	313,97198	0
15.01.2021	14:19:58	0	69,83037	3,527972	1,0665	331,0704	1,179	84,511	0	1015,18	8,8	10,2	9,8	1	1	1	1	1	1	1	1	1	0	1	-14,446794	275,730829	313,289369	0
15.01.2021	14:19:59	0	69,36243	2,84514	1,04325	324,342	1,185	84,543	0	1015,22	8,8	10,2	9,8	1	1	1	1	1	1	1	1	1	0	1	-10,570825	275,596543	316,527352	0
15.01.2021	14:20:00	0	69,595749	2,503696	1,07175	291,7908	1,185	84,536	0	1015,3	8,8	10,1	10	1	1	1	1	1	1	1	1	1	0	1	-10,923185	275,789363	317,091363	0
15.01.2021	14:20:01	0	69,595749	2,503696	1,07175	291,7908	1,185	84,536	0	1015,3	8,8	10,1	10	1	1	1	1	1	1	1	1	1	0	1	-15,503876	275,72109	312,185988	0
15.01.2021	14:20:02	0	69,596172	4,324619	1,0305	299,0916	1,185	84,542	0	1015,28	8,8	10,2	9,8	1	1	1	1	1	1	1	1	1	0	1	-15,715292	275,802395	312,361257	0
15.01.2021	14:20:03	0	69,713075	3,414175	1,095	295,578	1,177	84,524	0	1015,32	8,8	10,2	9,8	1	1	1	1	1	1	1	1	1	0	1	-13,389711	275,7617	314,493251	0
15.01.2021	14:20:04	0	69,362105	3,300331	1,07625	299,4624	1,189	84,555	0	1015,38	8,8	10,2	10	1	1	1	1	1	1	1	1	1	0	1	-19,238901	275,774713	308,705956	0
15.01.2021	14:20:05	0	69,712944	4,210819	1,1115	325,2384	1,186	84,541	0	1015,2	8,8	10,2	9,8	1	1	1	1	1	1	1	1	1	0	1	-14,517266	275,7617	313,365696	0
15.01.2021	14:20:06	0	69,712391	4,552184	1,15725	334,2672	1,182	84,551	0	1015,26	8,8	10,1	10	1	1	1	1	1	1	1	1	1	0	1	-15,151515	275,802395	312,925035	0
15.01.2021	14:20:07	0	69,478392	3,527987	1,21275	324,0288	1,188	84,542	0	1015,08	8,8	10,1	9,8	1	1	1	1	1	1	1	1	1	0	1	-15,64482	275,7357	312,114503	0
15.01.2021	14:20:08	0	69,595781	3,072727	1,14	340,8948	1,179	84,538	0	1015,22	8,8	10,2	10	1	1	1	1	1	1	1	1	1	0	1	-12,403101	275,65144	314,955774	0
15.01.2021	14:20:09	0	69,244813	3,527948	1,119	338,49	1,192	84,559	0	1015,3	8,8	10,2	10	1	1	1	1	1	1	1	1	1	0	1	-16,772375	275,804024	311,311929	0
15.01.2021	14:20:10	0	69,595163	3,072767	1,14525	326,4084	1,189	84,562	0	1015,4	8,8	10,1	9,8	1	1	1	1	1	1	1	1	1	0	1	-14,376321	275,734076	313,375281	0
15.01.2021	14:20:11	0	69,244198	2,617543	1,22325	343,1268	1,183	84,573	0	1015,38	8,8	10,1	9,8	1	1	1	1	1	1	1	1	1	0	1	-17,336152	275,756822	310,523612	0
15.01.2021	14:20:12	0	69,478553	2,503738	1,32375	328,9716	1,177	84,547	0	1015,2	8,8	10,2	9,8	1	1	1	1	1	1	1	1	1	0	1	-13,601128	275,800765	314,467669	0
15.01.2021	14:20:13	0	69,711934	3,869369	1,4415	323,3232	1,183	84,572	0	1015,26	8,8	10,1	10	1	1	1	1	1	1	1	1	1	0	1	-14,094433	275,712979	313,55687	0
15.01.2021	14:20:14	0	69,361456	3,527998	1,50525	334,1592	1,183	84,572	0	1015,2	8,8	10,2	9,8	1	1	1	1	1	1	1	1	1	0	1	-15,221987	275,609446	311,937449	0
15.01.2021	14:20:15	0	69,244424	3,528	1,575	334,2348	1,182	84,576	0	1015,22	8,8	10,2	9,8	1	1	1	1	1	1	1	1	1	0	1	-11,980268	275,703249	315,624788	0
15.01.2021	14:20:16	0	69,244359	2,731323	1,5795	331,5348	1,191	84,59	0	1015,22	8,8	10,2	10	1	1	1	1	1	1	1	1	1	0	1	-14,728682	275,633662	312,545751	0
15.01.2021	14:20:17	0	69,36126	4,324648	1,6635	323,73	1,184	84,598	0	1015,3	8,8	10,2	9,8	1	1	1	1	1	1	1	1	1	0	1	-11,839323	275,712979	315,811979	0
15.01.2021	14:20:18	0	69,244229	2,845131	1,695	321,0984	1,183	84,584	0	1015,12	8,8	10,2	10	1	1	1	1	1	1	1	1	1	0	1	-12,05074	275,628816	315,20068	0
15.01.2021	14:20:19	0	69,243679	3,072742	1,60725	303,5448	1,187	84,6	0	1015,28	8,8	10,1	10	1	1	1	1	1	1	1	1	1	0	1	-15,926709	275,781223	312,049114	0
15.01.2021	14:20:20	0	69,59451	3,414201	1,56225	316,6668	1,19	84,606	0	1015,26	8,8	10,1	9,8	1	1	1	1	1	1	1	1	1	0	1	-15,221987	275,790992	312,800308	0
15.01.2021	14:20:21	0	69,127068	2,731362	1,53525	322,2936	1,182	84,607	0	1015,28	8,8	10,2	9,8	1	1	1	1	1	1	1	1	1	0	1	-13,389711	275,771459	314,539667	0
15.01.2021	14:20:22	0	69,243969	2,731363	1,521	310,32	1,192	84,61	0	1015,38	8,8	10,2	9,8	1	1	1	1	1	1	1	1	1	0	1	-12,262156	275,764952	315,636274	0
15.01.2021	14:20:23	0	69,36087	4,210853	1,65	305,3664	1,19	84,614	0	1015,3	8,8	10,2	9,8	1	1	1	1	1	1	1	1	1	0	1	-12,755462	275,625587	314,48062	0
15.01.2021	14:20:24	0	69,243839	2,617527	1,71	293,31	1,188	84,597	0	1015,2	8,8	10,2	10	1	1	1	1	1	1	1	1	1	0	1	-12,614517	275,688664	314,921219	0
15.01.2021	14:20:25	0	69,243289	3,186595	1,833	313,6104	1,182	84,608	0	1015,3	8,8	10,1	9,8	1	1	1	1	1	1	1	1	1	0	1	-14,65821	275,628816	312,59321	0
15.01.2021	14:20:26	0	69,009777	4,666087	1,96875	318,8304	1,187	84,619	0	1015,26	8,8	10,2	9,8	1	1	1	1	1	1	1	1	1	0	1	-18,675123	275,758448	309,192373	0
15.01.2021	14:20:27	0	69,243644	2,731337	2,08725	310,2696	1,182	84,611	0	1015,22	8,8	10,2	10	1	1	1	1	1	1	1	1	1	0	1	-14,517266	275,786107	313,48179	0
15.01.2021	14:20:28	0	69,243579	2,162309	2,40975	342,126	1,18	84,602	0	1015,22	8,8	10,2	10	1	1	1	1	1	1	1	1	1	0	1	-16,067653	275,662761	311,345005	0
15.01.2021	14:20:29	0	69,243514	3,072793	2,493	344,3256	1,182	84,619	0	1015,22	8,8	10,2	9,8	1	1	1	1	1	1	1	1	1	0	1	-12,544045	275,802395	315,532505	0
15.01.2021	14:20:30	0	68,892553	2,276117	2,42625	331,1244	1,192	84,624	0	1015,36	8,8	10,2	10	1	1	1	1	1	1	1	1	1	0	1	-15,081043	275,659526	312,316245	0
15.01.2021	14:20:31	0	69,243384	4,552236	2,2965	323,2404	1,186	84,62	0	1015,24	8,8	10,2	10	1	1	1	1	1	1	1	1	1	0	1	-15,221987	275,768205	312,691916	0
15.01.2021	14:20:32	0	69,359798	4,324626	2,26725	331,524	1,185	84,622	0	1015,34	8,8	10,1	10	1	1	1	1	1	1	1	1	1	0	1	-13,248767	275,703249	314,356289	0
15.01.2021	14:20:33	0	69,242768	4,210822	2,106	322,542	1,187	84,629	0	1015,3	8,8	10,1	10	1	1	1	1	1	1	1	1	1	0	1	-15,715292	275,623972	311,513121	0
15.01.2021	14:20:34	0	69,126223	3,869452	2,0355	312,9048	1,187	84,629	0	1015,16	8,8	10,2	9,8	1	1	1	1	1	1	1	1	1	0	1	-12,544045	275,773086	315,393072	0
15.01.2021	14:20:35	0	68,775264	2,61754	2,034	317,0736	1,187	84,627	0	1015,26	8,8	10,2	10	1	1	1	1	1	1	1	1	1	0	1	-12,05074	275,612673	315,12402	0
15.01.2021	14:20:36	0	69,008645	2,845154	2,2065	311,3964	1,186	84,621	0	1015,2	8,8	10,1	10	1	1	1	1	1	1	1	1	1	0	1	-14,446794	275,678946	313,042766	0
15.01.2021	14:20:37	0	69,126028	4,21083	2,45025	318,9096	1,185	84,609	0	1015,24	8,8	10,2	10	1	1	1	1	1	1	1	1	1	0	1	-13,953488	275,632047	313,313273	0
15.01.2021	14:20:38	0	68,892035	3,869413	2,529	316,0512	1,187	84,609	0	1015,18	8,8	10,2	10	1	1	1	1	1	1	1	1	1	0	1	-16,208598	275,725959	311,504412	0
15.01.2021	14:20:39	0	68,774524	4,552252	2,64075	311,7852	1,189	84,613	0	1015,36	8,8	10,1	10	1	1	1	1	1	1	1	1	1	0	1	-17,829457	275,805654	310,262601	0
15.01.2021	14:20:40	0	68,657496	4,779867	2,676	321,1992	1,187	84,627	0	1015,34	8,8	10,1	10	1	1	1	1	1	1	1	1	1	0	1	-15,715292	275,653057	311,651263	0
15.01.2021	14:20:41	0	68,657912	4,552256	2,66175	307,5804	1,186	84,62	0	1015,34	8,8	10,2	10	1	1	1	1	1	1	1	1	1	0	1	-14,446794	275,643357	312,873687	0
15.01.2021	14:20:42	0	68,657847	3,186619	2,5305	322,254	1,192	84,621	0	1015,32	8,8	10,2	9,8	1	1	1	1	1	1	1	1	1	0	1	-12,544045	275,625587	314,692037	0
15.01.2021	14:20:43	0	68,89171	2,61755	2,44725	316,368	1,185	84,626	0	1015,28	8,8	10,2	10	1	1	1	1	1	1	1	1	1	0	1	-16,913319	275,669234	310,53009	0
15.01.2021	14:20:44	0	68,891645	3,30043	2,469	320,4468	1,184	84,616	0	1015,2	8,8	10,2	9,8	1	1	1	1	1	1	1	1	1	0	1	-11,275546	275,632047	315,991215	0
15.01.2021	14:20:45	0	68,774617	3,528005	2,46225	313,4916	1,184	84,621	0	1015,24	8,8	10,2	10	1	1	1	1	1	1	1	1	1	0	1	-14,65821	275,682185	312,846739	0
15.01.2021	14:20:46	0	68,540145	2,959009	2,4375	309,2184	1,186	84,617	0	1015,32	8,8	10,1	9,8	1	1	1	1	1	1	1	1	1	0	1	-14,517266	275,609446	312,642171	0
15.01.2021	14:20:47	0	68,657043	4,893689	2,4795	297,4644	1,186	84,616	0	1015,16	8,8	10,1	10	1	1	1	1	1	1	1	1	1	0	1	-16,27907	275,675708	311,195103	0
15.01.2021	14:20:48	0	68,774423	4,893691	2,5095	300,1752	1,189	84,627	0	1015,22	8,8	10,2	10	1	1	1	1	1	1	1	1	1	0	1	-15,081043	275,604606	312,055415	0
15.01.2021	14:20:49	0	68,656914	2,731397	2,52075	294,0444	1,187	84,601	0	1015,38	8,8	10,1	9,8	1	1	1	1	1	1	1	1	1	0	1	-12,262156	275,763326	315,62854	0
15.01.2021	14:20:50	0	69,008219	3,186593	2,49525	297,2124	1,191	84,601	0	1015,24	8,8	10,2	10	1	1	1	1	1	1	1	1	1	0	1	-14,799154	275,648206	312,54436	0
15.01.2021	14:20:51	0	68,657265	4,324663	2,511	292,9572	1,186	84,592	0	1015,3	8,8	10,2	10	1	1	1	1	1	1	1	1	1	0	1	-14,940099	275,729206	312,788346	0
15.01.2021	14:20:52	0	68,6572	3,755675	2,3985	299,8224	1,185	84,569	0	1015,32	8,8	10,2	9,8	1	1	1	1	1	1	1	1	1	0	1	-16,983791	275,766579	310,922375	0
15.01.2021	14:20:53	0	68,422731	2,617562	2,259	309,5388	1,185	84,551	0	1015,2	8,8	10,1	10	1	1	1	1	1	1	1	1	1	0	1	-11,768851	275,643357	315,551629	0
15.01.2021	14:20:54	0	68,774033	3,641827	2,13825	329,6196	1,189	84,53	0	1015,3	8,8	10,2	10	1	1	1	1	1	1	1	1	1	0	1	-15,292459	275,64659	312,043376	0
15.01.2021	14:20:55	0	68,656525	4,666093	2,04225	308,8764	1,182	84,535	0	1015,4	8,8	10,1	10	1	1	1	1	1	1	1	1	1	0	1	-12,403101	275,804024	315,681203	0
15.01.2021	14:20:56	0	68,656941	3,528023	1,91775	302,4432	1,186	84,508	0	1015,34	8,8	10,2	10	1	1	1	1	1	1	1	1	1	0	1	-15,292459	275,734076	312,459143	0
15.01.2021	14:20:57	0	68,656877	3,072795	2,0475	298,2924	1,179	84,486	0	1015,26	8,8	10,2	10	1	1	1	1	1	1	1	1	1	0	1	-15,010571	275,635278	312,271535	0
15.01.2021	14:20:58	0	68,773774	4,438538	2,28225	309,1428	1,182	84,476	0	1015,22	8,8	10,2	9,8	1	1	1	1	1	1	1	1	1	0	1	-17,054264	275,719468	310,627887	0
15.01.2021	14:20:59	0	68,539785	3,41422	2,412	316,26	1,188	84,479	0	1015,34	8,8	10,2	10	1	1	1	1	1	1	1	1	1	0	1	-10,993658	275,794249	317,044135	0
15.01.2021	14:21:00	0	68,890541	4,324735	2,4165	316,9656	1,183	84,449	0	1015,3	8,8	10,2	9,8	1	1	1	1	1	1	1	1	1	0	1	-14,517266	275,795878	313,528277	0
15.01.2021	14:21:01	0	68,890541	4,324735	2,4165	316,9656	1,183	84,449	0	1015,3	8,8	10,2	9,8	1	1	1	1	1	1	1	1	1	0	1	-14,517266	275,795878	313,528277	0
15.01.2021	14:21:02	0	68,539591	3,528032	2,3865	322,6176	1,177	84,415	0	1015,28	8,8	10,2	10	1	1	1	1	1	1	1	1	1	0	1	-11,486963	275,743821	316,310976	0
15.01.2021	14:21:03	0	68,422085	2,845223	2,36925	312,4944	1,178	84,385	0	1015,12	8,8	10,1	9,8	1	1	1	1	1	1	1	1	1	0	1	-14,235377	275,635278	313,046729	0
15.01.2021	14:21:04	0	68,188577	2,617575	2,3055	317,7972	1,17	84,365	0	1015,2	8,8	10,2	10	1	1	1	1	1	1	1	1	1	0	1	-13,107822	275,748696	314,713295	0
15.01.2021	14:21:05	0	68,656358	3,869507	2,28975	326,3508	1,172	84,349	0	1015,28	8,8	10,2	9,8	1	1	1	1	1	1	1	1	1	0	1	-14,517266	275,7357	313,242057	0
15.01.2021	14:21:06	0	68,18797	2,845227	2,29875	321,1524	1,177	84,357	0	1015,42	8,8	10,1	9,8	1	1	1	1	1	1	1	1	1	0	1	-14,869626	275,630432	312,389464	0
15.01.2021	14:21:07	0	68,304866	4,779926	2,26125	308,8116	1,174	84,332	0	1015,3	8,8	10,1	10	1	1	1	1	1	1	1	1	1	0	1	-17,618041	275,630432	309,641049	0
15.01.2021	14:21:08	0	68,655682	4,552367	2,25375	315,252	1,171	84,325	0	1015,36	8,8	10,1	9,8	1	1	1	1	1	1	1	1	1	0	1	-15,292459	275,662761	312,120199	0
15.01.2021	14:21:09	0	68,304737	2,389965	2,1495	319,9896	1,178	84,303	0	1015,32	8,8	10,1	10	1	1	1	1	1	1	1	1	1	0	1	-12,403101	275,643357	314,91738	0
15.01.2021	14:21:10	0	68,187712	3,641897	2,04	326,2896	1,172	84,306	0	1015,26	8,8	10,1	9,8	1	1	1	1	1	1	1	1	1	0	1	-13,530655	275,766579	314,375511	0
15.01.2021	14:21:11	0	68,538528	4,666127	1,95	322,5924	1,168	84,29	0	1015,3	8,8	10,1	10	1	1	1	1	1	1	1	1	1	0	1	-13,319239	275,790992	314,703057	0
15.01.2021	14:21:12	0	68,421503	4,324705	1,8735	327,1392	1,168	84,29	0	1015,28	8,8	10,1	10	1	1	1	1	1	1	1	1	1	0	1	-13,460183	275,734076	314,291419	0
15.01.2021	14:21:13	0	67,954075	2,276189	1,74225	328,9176	1,17	84,273	0	1015,3	8,8	10,2	9,8	1	1	1	1	1	1	1	1	1	0	1	-14,728682	275,797507	313,324611	0
15.01.2021	14:21:14	0	68,187932	3,414285	1,638	329,2524	1,166	84,286	0	1015,28	8,8	10,2	9,8	1	1	1	1	1	1	1	1	1	0	1	-15,081043	275,670852	312,370056	0
15.01.2021	14:21:15	0	68,655228	4,552382	1,50375	327,474	1,164	84,274	0	1015,3	8,8	10,1	9,8	1	1	1	1	1	1	1	1	1	0	1	-11,980268	275,734076	315,771334	0
15.01.2021	14:21:16	0	68,304285	4,438521	1,509	322,596	1,166	84,266	0	1015,12	8,8	10,1	10	1	1	1	1	1	1	1	1	1	0	1	-13,107822	275,617515	314,089927	0
15.01.2021	14:21:17	0	68,421179	2,503782	1,464	324,8064	1,171	84,277	0	1015,34	8,8	10,1	10	1	1	1	1	1	1	1	1	1	0	1	-15,926709	275,742197	311,863505	0
15.01.2021	14:21:18	0	68,304155	4,324768	1,48725	323,3376	1,166	84,285	0	1015,32	8,8	10,1	9,8	1	1	1	1	1	1	1	1	1	0	1	-14,446794	275,768205	313,46711	0
15.01.2021	14:21:19	0	68,187132	2,84521	1,551	327,1212	1,165	84,291	0	1015,34	8,8	10,1	10	1	1	1	1	1	1	1	1	1	0	1	-11,346018	275,599768	315,767468	0
15.01.2021	14:21:20	0	68,420985	3,528104	1,54725	327,1464	1,164	84,284	0	1015,22	8,8	10,1	9,8	1	1	1	1	1	1	1	1	1	0	1	-10,782241	275,674089	316,68424	0
15.01.2021	14:21:21	0	68,303961	4,893765	1,4835	334,1916	1,165	84,296	0	1015,3	8,8	10,1	10	1	1	1	1	1	1	1	1	1	0	1	-16,701903	275,622357	310,518844	0
15.01.2021	14:21:22	0	67,836537	2,959022	1,3875	328,8744	1,176	84,294	0	1015,18	8,8	10,2	10	1	1	1	1	1	1	1	1	1	0	1	-13,6716	275,657908	313,718004	0
15.01.2021	14:21:23	0	68,420791	3,755683	1,2915	330,3828	1,163	84,277	0	1015,26	8,8	10,1	10	1	1	1	1	1	1	1	1	1	0	1	-20,5074	275,779595	307,460681	0
15.01.2021	14:21:24	0	67,718975	2,50379	1,21275	332,3988	1,163	84,317	0	1015,3	8,8	10,1	10	1	1	1	1	1	1	1	1	1	0	1	-11,627907	275,665997	315,800126	0
15.01.2021	14:21:25	0	68,069786	4,210922	1,17075	334,5372	1,163	84,308	0	1015,4	8,8	10,1	10	1	1	1	1	1	1	1	1	1	0	1	-12,121212	275,781223	315,854611	0
15.01.2021	14:21:26	0	68,303638	3,072836	1,15575	332,7984	1,163	84,326	0	1015,26	8,8	10,1	10	1	1	1	1	1	1	1	1	1	0	1	-12,825934	275,640125	314,479195	0
15.01.2021	14:21:27	0	68,186615	4,666161	1,16775	326,3832	1,158	84,314	0	1015,2	8,8	10,1	10	1	1	1	1	1	1	1	1	1	0	1	-15,081043	275,77634	312,871554	0
15.01.2021	14:21:28	0	67,952634	2,845221	1,17825	329,3604	1,165	84,341	0	1015,32	8,8	10,1	10	1	1	1	1	1	1	1	1	1	0	1	-12,614517	275,712979	315,036786	0
15.01.2021	14:21:29	0	68,186486	3,641885	1,17	327,8448	1,166	84,342	0	1015,14	8,8	10,1	10	1	1	1	1	1	1	1	1	1	0	1	-16,349542	275,593319	310,733327	0
15.01.2021	14:21:30	0	68,303379	4,779976	1,119	326,772	1,163	84,348	0	1015,3	8,8	10,1	10	1	1	1	1	1	1	1	1	1	0	1	-10,782241	275,70487	316,83052	0
15.01.2021	14:21:31	0	68,186356	4,779978	1,12575	315,2232	1,163	84,353	0	1015,28	8,8	10,1	10	1	1	1	1	1	1	1	1	1	0	1	-16,138125	275,774713	311,806731	0
15.01.2021	14:21:32	0	68,303249	4,552362	1,18725	334,1988	1,161	84,362	0	1015,28	8,8	10,1	10	1	1	1	1	1	1	1	1	1	0	1	-12,684989	275,604606	314,451469	0
15.01.2021	14:21:33	0	68,303663	4,779983	1,2135	359,8956	1,161	84,355	0	1015,16	8,8	10,2	10	1	1	1	1	1	1	1	1	1	0	1	-13,953488	275,799136	314,107556	0
15.01.2021	14:21:34	0	68,069205	2,959038	1,11	337,554	1,161	84,362	0	1015,24	8,8	10,1	10	1	1	1	1	1	1	1	1	1	0	1	-17,406624	275,742197	310,38359	0
15.01.2021	14:21:35	0	67,835701	4,438559	0,9555	324,8748	1,163	84,37	0	1015,28	8,8	10,2	10	1	1	1	1	1	1	1	1	1	0	1	-14,305849	275,674089	313,160632	0
15.01.2021	14:21:36	0	67,718204	2,389995	0,93	343,0332	1,158	84,371	0	1015,3	8,8	10,1	10	1	1	1	1	1	1	1	1	1	0	1	-11,839323	275,604606	315,297135	0
15.01.2021	14:21:37	0	68,185968	4,779991	0,921	344,2392	1,158	84,359	0	1015,06	8,8	10,1	10	1	1	1	1	1	1	1	1	1	0	1	-10,923185	275,72109	316,766679	0
15.01.2021	14:21:38	0	67,718076	3,300472	0,98625	322,2108	1,157	84,381	0	1015,18	8,8	10,1	10	1	1	1	1	1	1	1	1	1	0	1	-14,164905	275,77634	313,787692	0
15.01.2021	14:21:39	0	68,185839	4,666186	1,07325	326,2968	1,158	84,387	0	1015,22	8,7	10,1	10	1	1	1	1	1	1	1	1	1	0	1	-17,336152	275,717845	310,338285	0
15.01.2021	14:21:40	0	68,185774	4,666244	1,13625	344,3148	1,156	84,39	0	1015,32	8,8	10,1	9,8	1	1	1	1	1	1	1	1	1	0	1	-9,020437	275,781223	318,955386	0
15.01.2021	14:21:41	0	67,600926	4,324762	1,173	342,0504	1,156	84,394	0	1015,3	8,8	10,1	10	1	1	1	1	1	1	1	1	1	0	1	-12,332629	275,737324	315,434416	0
15.01.2021	14:21:42	0	67,834775	2,845239	1,20525	338,0256	1,157	84,388	0	1015,4	8,8	10,1	10	1	1	1	1	1	1	1	1	1	0	1	-10,570825	275,768205	317,343079	0
15.01.2021	14:21:43	0	67,951667	3,641908	1,18275	341,6688	1,158	84,403	0	1015,3	8,8	10,1	10	1	1	1	1	1	1	1	1	1	0	1	-18,816068	275,582038	308,213249	0
15.01.2021	14:21:44	0	67,834646	3,983339	1,1955	335,0556	1,161	84,402	0	1015,32	8,8	10,1	10	1	1	1	1	1	1	1	1	1	0	1	-11,768851	275,727582	315,951876	0
15.01.2021	14:21:45	0	67,717625	3,528102	1,23225	322,9704	1,159	84,397	0	1015,22	8,8	10,1	10	1	1	1	1	1	1	1	1	1	0	1	-10,570825	275,760074	317,304404	0
15.01.2021	14:21:46	0	67,834517	4,552391	1,3275	327,0888	1,156	84,402	0	1015,36	8,8	10,1	10	1	1	1	1	1	1	1	1	1	0	1	-14,799154	275,61106	312,367943	0
15.01.2021	14:21:47	0	67,366629	2,731436	1,641	309,9816	1,158	84,42	0	1015,36	8,8	10,1	10	1	1	1	1	1	1	1	1	1	0	1	-16,983791	275,753571	310,860512	0
15.01.2021	14:21:48	0	67,951344	4,893825	1,91175	324,7848	1,153	84,412	0	1015,32	8,8	10,1	10	1	1	1	1	1	1	1	1	1	0	1	-15,856237	275,763326	312,034459	0
15.01.2021	14:21:49	0	67,951279	4,780018	2,19225	324,756	1,152	84,428	0	1015,3	8,7	10,1	10	1	1	1	1	1	1	1	1	1	0	1	-13,6716	275,615901	313,518486	0
15.01.2021	14:21:50	0	67,834259	2,50382	2,3805	327,1536	1,155	84,435	0	1015,22	8,8	10,1	10	1	1	1	1	1	1	1	1	1	0	1	-14,728682	275,598156	312,377149	0
15.01.2021	14:21:51	0	67,717239	4,552402	2,44575	331,0416	1,153	84,439	0	1015,22	8,8	10,1	10	1	1	1	1	1	1	1	1	1	0	1	-16,349542	275,625587	310,88654	0
15.01.2021	14:21:52	0	67,83413	2,731442	2,53125	309,8592	1,15	84,443	0	1015,32	8,8	10,1	10	1	1	1	1	1	1	1	1	1	0	1	-13,601128	275,598156	313,504703	0
15.01.2021	14:21:53	0	67,600155	5,007647	2,496	328,8024	1,153	84,446	0	1015,12	8,8	10,1	10	1	1	1	1	1	1	1	1	1	0	1	-15,081043	275,598156	312,024788	0
15.01.2021	14:21:54	0	67,483135	4,210978	2,27025	308,8368	1,156	84,471	0	1015,34	8,7	10,1	10	1	1	1	1	1	1	1	1	1	0	1	-16,138125	275,582038	310,891191	0
15.01.2021	14:21:55	0	67,366116	2,731446	1,95	318,8196	1,156	84,466	0	1015,36	8,8	10,1	10	1	1	1	1	1	1	1	1	1	0	1	-13,178295	275,751946	314,658279	0
15.01.2021	14:21:56	0	67,833872	4,666223	1,71975	327,0996	1,151	84,467	0	1015,24	8,8	10,1	10	1	1	1	1	1	1	1	1	1	0	1	-14,869626	275,724336	312,835667	0
15.01.2021	14:21:57	0	67,365988	3,528121	1,599	307,1664	1,156	84,485	0	1015,32	8,7	10,1	10	1	1	1	1	1	1	1	1	1	0	1	-15,785765	275,601381	311,335378	0
15.01.2021	14:21:58	0	67,599833	3,869554	1,443	318,8232	1,151	84,486	0	1015,34	8,8	10,1	10	1	1	1	1	1	1	1	1	1	0	1	-14,446794	275,61106	312,720304	0
15.01.2021	14:21:59	0	67,716723	4,78004	1,30725	320,1552	1,146	84,487	0	1015,26	8,8	10,1	10	1	1	1	1	1	1	1	1	1	0	1	-14,164905	275,640125	313,140224	0
15.01.2021	14:22:00	0	67,59964	4,210991	1,21125	330,0372	1,151	84,522	0	1015,32	8,8	10,1	10	1	1	1	1	1	1	1	1	1	0	1	-15,997181	275,755197	311,854852	0
15.01.2021	14:22:01	0	67,59964	4,210991	1,21125	330,0372	1,151	84,522	0	1015,32	8,8	10,1	10	1	1	1	1	1	1	1	1	1	0	1	-17,89993	275,774713	310,044927	0
15.01.2021	14:22:02	0	67,599575	3,64194	1,22475	319,5252	1,149	84,505	0	1015,2	8,8	10,1	10	1	1	1	1	1	1	1	1	1	0	1	-11,627907	275,662761	315,784752	0
15.01.2021	14:22:03	0	67,365603	4,552427	1,32675	311,0184	1,149	84,53	0	1015,22	8,8	10,1	10	1	1	1	1	1	1	1	1	1	0	1	-18,040874	275,763326	309,849822	0
15.01.2021	14:22:04	0	67,599447	4,438618	1,3425	320,85	1,154	84,55	0	1015,38	8,7	10,1	10	1	1	1	1	1	1	1	1	1	0	1	-22,057787	275,725959	305,655223	0
15.01.2021	14:22:05	0	67,248991	2,845269	1,3815	323,6004	1,152	84,541	0	1015,16	8,8	10,2	10	1	1	1	1	1	1	1	1	1	0	1	-17,758985	275,601381	309,362158	0
15.01.2021	14:22:06	0	67,599318	4,09719	1,44675	321,084	1,155	84,548	0	1015,24	8,8	10,1	10	1	1	1	1	1	1	1	1	1	0	1	-14,940099	275,636893	312,349681	0
15.01.2021	14:22:07	0	67,482299	4,324814	1,6275	311,4288	1,152	84,559	0	1015,34	8,8	10,1	10	1	1	1	1	1	1	1	1	1	0	1	-12,191684	275,763326	315,699012	0
15.01.2021	14:22:08	0	67,599189	4,43868	1,845	313,992	1,155	84,567	0	1015,26	8,7	10,1	9,8	1	1	1	1	1	1	1	1	1	0	1	-16,560958	275,653057	310,805597	0
15.01.2021	14:22:09	0	67,482171	4,324818	2,02425	330,7464	1,156	84,566	0	1015,3	8,8	10,1	10	1	1	1	1	1	1	1	1	1	0	1	-16,560958	275,769832	311,360682	0
15.01.2021	14:22:10	0	67,365153	2,959087	1,9755	303,9048	1,157	84,575	0	1015,34	8,8	10,1	10	1	1	1	1	1	1	1	1	1	0	1	-13,883016	275,638509	313,414437	0
15.01.2021	14:22:11	0	67,365089	4,780066	1,90875	311,3424	1,152	84,547	0	1015,24	8,8	10,1	10	1	1	1	1	1	1	1	1	1	0	1	-13,812544	275,602994	313,316256	0
15.01.2021	14:22:12	0	67,365024	3,528146	1,97325	296,46	1,154	84,575	0	1015,26	8,8	10,1	10	1	1	1	1	1	1	1	1	1	0	1	-14,728682	275,683804	312,783962	0
15.01.2021	14:22:13	0	67,481913	4,78007	2,03025	298,7064	1,15	84,559	0	1015,24	8,8	10,1	10	1	1	1	1	1	1	1	1	1	0	1	-12,191684	275,714601	315,467329	0
15.01.2021	14:22:14	0	67,247943	3,300526	2,058	304,1964	1,142	84,546	0	1015,16	8,8	10,1	10	1	1	1	1	1	1	1	1	1	0	1	-10,147992	275,782851	317,835575	0
15.01.2021	14:22:15	0	67,130926	4,32483	2,13675	310,2156	1,154	84,57	0	1015,24	8,8	10,1	10	1	1	1	1	1	1	1	1	1	0	1	-15,292459	275,712979	312,358843	0
15.01.2021	14:22:16	0	67,364767	3,869586	2,18025	294,0588	1,153	84,547	0	1015,2	8,8	10,1	10	1	1	1	1	1	1	1	1	1	0	1	-15,433404	275,737324	312,333641	0
15.01.2021	14:22:17	0	67,130798	2,845285	2,3955	294,7716	1,161	84,584	0	1015,56	8,7	10,1	10	1	1	1	1	1	1	1	1	1	0	1	-13,812544	275,591707	313,262672	0
15.01.2021	14:22:18	0	67,598544	4,66627	2,51625	310,014	1,156	84,561	0	1015,12	8,8	10,1	10	1	1	1	1	1	1	1	1	1	0	1	-13,6716	275,722713	314,025979	0
15.01.2021	14:22:19	0	67,013717	2,617665	2,7075	301,6476	1,153	84,556	0	1015,22	8,8	10,1	10	1	1	1	1	1	1	1	1	1	0	1	-15,503876	275,766579	312,402291	0
15.01.2021	14:22:20	0	67,481462	4,097216	2,84325	317,4228	1,154	84,546	0	1015,26	8,8	10,1	10	1	1	1	1	1	1	1	1	1	0	1	-19,732206	275,748696	308,088912	0
15.01.2021	14:22:21	0	67,364445	3,869595	2,8965	315,2592	1,153	84,552	0	1015,16	8,8	10,1	10	1	1	1	1	1	1	1	1	1	0	1	-19,027484	275,633662	308,246949	0
15.01.2021	14:22:22	0	66,896573	2,959103	3,02625	305,0244	1,15	84,536	0	1015,2	8,7	10,1	10	1	1	1	1	1	1	1	1	1	0	1	-10,359408	275,593319	316,723461	0
15.01.2021	14:22:23	0	67,364317	3,98341	2,8965	303,1704	1,155	84,55	0	1015,42	8,8	10,1	10	1	1	1	1	1	1	1	1	1	0	1	-14,869626	275,615901	312,320459	0
15.01.2021	14:22:24	0	67,2473	4,438659	2,832	308,448	1,153	84,533	0	1015,32	8,7	10,1	10	1	1	1	1	1	1	1	1	1	0	1	-14,023961	275,599768	313,089526	0
15.01.2021	14:22:25	0	67,013802	4,780097	2,6925	314,6004	1,154	84,549	0	1015,32	8,8	10,2	10	1	1	1	1	1	1	1	1	1	0	1	-12,684989	275,750321	315,143856	0
15.01.2021	14:22:26	0	67,013269	4,438663	2,57325	337,0932	1,146	84,523	0	1015,12	8,8	10,1	10	1	1	1	1	1	1	1	1	1	0	1	-15,362932	275,582038	311,666385	0
15.01.2021	14:22:27	0	66,896253	3,186734	2,45775	322,956	1,151	84,525	0	1015,34	8,8	10,1	10	1	1	1	1	1	1	1	1	1	0	1	-17,195208	275,700007	310,394438	0
15.01.2021	14:22:28	0	67,363995	4,893915	2,47575	336,1176	1,151	84,528	0	1015,42	8,7	10,1	10	1	1	1	1	1	1	1	1	1	0	1	-17,406624	275,756822	310,45314	0
15.01.2021	14:22:29	0	67,130028	3,983421	2,328	330,7428	1,141	84,53	0	1015,28	8,8	10,1	10	1	1	1	1	1	1	1	1	1	0	1	-16,138125	275,764952	311,760305	0
15.01.2021	14:22:30	0	67,246915	4,324859	2,2605	337,104	1,143	84,522	0	1015,3	8,7	10,1	10	1	1	1	1	1	1	1	1	1	0	1	-15,715292	275,724336	311,990001	0
15.01.2021	14:22:31	0	67,012948	2,048619	2,196	331,056	1,15	84,514	0	1015,3	8,8	10,1	10	1	1	1	1	1	1	1	1	1	0	1	-13,460183	275,7357	314,29914	0
15.01.2021	14:22:32	0	67,129835	4,324863	2,1555	319,1832	1,149	84,531	0	1015,32	8,8	10,1	10	1	1	1	1	1	1	1	1	1	0	1	-12,896406	275,622357	314,324341	0
15.01.2021	14:22:33	0	67,246721	4,666302	2,0565	329,3316	1,148	84,517	0	1015,28	8,8	10,1	10	1	1	1	1	1	1	1	1	1	0	1	-13,248767	275,623972	313,979647	0
15.01.2021	14:22:34	0	67,012756	3,983431	1,971	314,4492	1,144	84,515	0	1015,28	8,8	10,1	10	1	1	1	1	1	1	1	1	1	0	1	-14,799154	275,781223	313,176668	0
15.01.2021	14:22:35	0	67,246593	3,755808	1,917	321,858	1,148	84,507	0	1015,28	8,7	10,1	10	1	1	1	1	1	1	1	1	1	0	1	-13,389711	275,615901	313,800374	0
15.01.2021	14:22:36	0	67,246528	4,324871	1,776	311,6988	1,146	84,502	0	1015,3	8,7	10,1	10	1	1	1	1	1	1	1	1	1	0	1	-15,997181	275,740572	311,785309	0
15.01.2021	14:22:37	0	67,129513	3,300561	1,6905	308,0952	1,141	84,507	0	1015,24	8,8	10,1	10	1	1	1	1	1	1	1	1	1	0	1	-14,65821	275,716223	313,008515	0
15.01.2021	14:22:38	0	66,661648	2,617688	1,59375	327,3156	1,146	84,476	0	1015,18	8,8	10,1	10	1	1	1	1	1	1	1	1	1	0	1	-13,6716	275,768205	314,242303	0
15.01.2021	14:22:39	0	67,246335	4,666315	1,58775	313,2	1,144	84,505	0	1015,26	8,8	10,1	10	1	1	1	1	1	1	1	1	1	0	1	-16,490486	275,687044	311,037552	0
15.01.2021	14:22:40	0	66,77847	3,528191	1,623	318,4416	1,145	84,503	0	1015,38	8,7	10,1	10	1	1	1	1	1	1	1	1	1	0	1	-12,473573	275,583649	314,563392	0
15.01.2021	14:22:41	0	67,012306	3,528193	1,7655	314,01	1,142	84,493	0	1015,4	8,7	10,1	10	1	1	1	1	1	1	1	1	1	0	1	-15,574348	275,675708	311,899825	0
15.01.2021	14:22:42	0	66,544443	2,959131	1,929	316,6416	1,141	84,502	0	1015,18	8,8	10,1	10	1	1	1	1	1	1	1	1	1	0	1	-9,584214	275,569153	317,383946	0
15.01.2021	14:22:43	0	67,012178	3,983447	2,03775	312,498	1,146	84,492	0	1015,3	8,7	10,1	10	1	1	1	1	1	1	1	1	1	0	1	-13,953488	275,72109	313,736376	0
15.01.2021	14:22:44	0	66,661265	3,186759	2,13	328,95	1,142	84,492	0	1015,2	8,8	10,1	10	1	1	1	1	1	1	1	1	1	0	1	-14,65821	275,768205	313,255693	0
15.01.2021	14:22:45	0	67,012049	4,666328	2,08575	330,768	1,141	84,488	0	1015,3	8,8	10,1	10	1	1	1	1	1	1	1	1	1	0	1	-18,745595	275,687044	308,782443	0
15.01.2021	14:22:46	0	66,544188	4,438704	2,09625	331,4016	1,146	84,485	0	1015,36	8,7	10,1	10	1	1	1	1	1	1	1	1	1	0	1	-15,64482	275,774713	312,300036	0
15.01.2021	14:22:47	0	66,661073	4,324893	2,18025	340,9128	1,144	84,497	0	1015,26	8,7	10,1	10	1	1	1	1	1	1	1	1	1	0	1	-15,221987	275,719468	312,460163	0
15.01.2021	14:22:48	0	66,777958	2,959139	2,1495	334,9512	1,147	84,503	0	1015,38	8,7	10,1	10	1	1	1	1	1	1	1	1	1	0	1	-19,943622	275,764952	307,954809	0
15.01.2021	14:22:49	0	66,777894	3,642019	2,10675	325,9476	1,141	84,483	0	1015,22	8,7	10,1	10	1	1	1	1	1	1	1	1	1	0	1	-13,460183	275,664379	313,960162	0
15.01.2021	14:22:50	0	66,660881	3,642021	2,08875	324,396	1,141	84,494	0	1015,34	8,7	10,1	10	1	1	1	1	1	1	1	1	1	0	1	-14,094433	275,622357	313,126314	0
15.01.2021	14:22:51	0	66,777766	4,666341	2,06475	333,4608	1,136	84,494	0	1015,32	8,7	10,1	10	1	1	1	1	1	1	1	1	1	0	1	-14,305849	275,701628	313,291501	0
15.01.2021	14:22:52	0	66,660753	5,121596	1,8495	338,7492	1,14	84,482	0	1015,26	8,8	10,1	10	1	1	1	1	1	1	1	1	1	0	1	-17,477097	275,58526	309,567517	0
15.01.2021	14:22:53	0	66,894586	4,666345	1,8735	316,9476	1,136	84,501	0	1015,28	8,8	10,1	10	1	1	1	1	1	1	1	1	1	0	1	-17,195208	275,669234	310,248202	0
15.01.2021	14:22:54	0	66,777574	3,186774	1,91775	320,3208	1,141	84,519	0	1015,26	8,8	10,1	10	1	1	1	1	1	1	1	1	1	0	1	-16,349542	275,763326	311,541154	0
15.01.2021	14:22:55	0	66,309716	2,731522	1,9605	316,2636	1,135	84,511	0	1015,24	8,7	10,1	10	1	1	1	1	1	1	1	1	1	0	1	-14,65821	275,623972	312,570204	0
15.01.2021	14:22:56	0	66,309652	2,845336	1,953	325,1124	1,14	84,528	0	1015,34	8,7	10,1	10	1	1	1	1	1	1	1	1	1	0	1	-11,346018	275,764952	316,552413	0
15.01.2021	14:22:57	0	66,777849	4,324913	1,899	322,2072	1,139	84,51	0	1015,1	8,7	10,2	10	1	1	1	1	1	1	1	1	1	0	1	-11,06413	275,7617	316,818832	0
15.01.2021	14:22:58	0	66,894265	4,666356	1,88475	316,2096	1,138	84,526	0	1015,28	8,7	10,1	10	1	1	1	1	1	1	1	1	1	0	1	-18,393235	275,740572	309,389255	0
15.01.2021	14:22:59	0	66,426409	2,390115	1,85175	317,7432	1,14	84,525	0	1015,22	8,7	10,1	9,8	1	1	1	1	1	1	1	1	1	0	1	-14,799154	275,575594	312,199578	0
15.01.2021	14:23:00	0	66,777124	4,666363	1,6305	313,5528	1,14	84,529	0	1015,2	8,8	10,1	10	1	1	1	1	1	1	1	1	1	0	1	-12,684989	275,72109	315,004875	0
15.01.2021	14:23:01	0	66,777124	4,666363	1,6305	313,5528	1,14	84,529	0	1015,2	8,8	10,1	10	1	1	1	1	1	1	1	1	1	0	1	-17,406624	275,596543	309,691552	0
15.01.2021	14:23:02	0	66,543165	2,390118	1,40625	295,1424	1,138	84,545	0	1015,28	8,8	10,1	9,8	1	1	1	1	1	1	1	1	1	0	1	-15,997181	275,620743	311,215899	0
15.01.2021	14:23:03	0	66,309206	2,95916	1,26	287,748	1,138	84,526	0	1015,3	8,7	10,1	10	1	1	1	1	1	1	1	1	1	0	1	-16,208598	275,635278	311,073508	0
15.01.2021	14:23:04	0	66,543037	2,959161	1,188	310,2876	1,14	84,536	0	1015,26	8,7	10,1	10	1	1	1	1	1	1	1	1	1	0	1	-16,208598	275,764952	311,689833	0
15.01.2021	14:23:05	0	66,776868	3,869674	1,14675	310,3308	1,138	84,53	0	1015,16	8,8	10,1	10	1	1	1	1	1	1	1	1	1	0	1	-14,869626	275,716223	312,797098	0
15.01.2021	14:23:06	0	66,659856	5,235506	1,14375	285,1956	1,137	84,545	0	1015,24	8,7	10,1	9,8	1	1	1	1	1	1	1	1	1	0	1	-17,758985	275,724336	309,946309	0
15.01.2021	14:23:07	0	66,309416	3,414421	1,173	300,1068	1,138	84,532	0	1015,38	8,7	10,2	10	1	1	1	1	1	1	1	1	1	0	1	-12,262156	275,588483	314,797757	0
15.01.2021	14:23:08	0	66,425834	2,048678	1,218	297,4968	1,138	84,552	0	1015,28	8,8	10,1	9,8	1	1	1	1	1	1	1	1	1	0	1	-13,178295	275,590095	313,88927	0
15.01.2021	14:23:09	0	66,308823	4,324937	1,20825	305,3412	1,145	84,552	0	1015,34	8,8	10,1	10	1	1	1	1	1	1	1	1	1	0	1	-17,336152	275,77634	310,616445	0
15.01.2021	14:23:10	0	66,6596	5,463081	1,1925	309,1608	1,138	84,548	0	1015,36	8,7	10,1	10	1	1	1	1	1	1	1	1	1	0	1	-13,601128	275,714601	314,057886	0
15.01.2021	14:23:11	0	66,308696	3,414427	1,25925	305,3052	1,141	84,546	0	1015,36	8,7	10,1	10	1	1	1	1	1	1	1	1	1	0	1	-17,547569	275,580427	309,474101	0
15.01.2021	14:23:12	0	66,308632	4,780201	1,38375	302,4612	1,14	84,534	0	1015,36	8,7	10,1	10	1	1	1	1	1	1	1	1	1	0	1	-14,376321	275,703249	313,228734	0
15.01.2021	14:23:13	0	66,659407	2,61773	1,52175	318,7692	1,134	84,547	0	1015,32	8,7	10,1	10	1	1	1	1	1	1	1	1	1	0	1	-14,094433	275,764952	313,803998	0
15.01.2021	14:23:14	0	66,42545	3,300618	1,5975	308,0628	1,136	84,534	0	1015,32	8,7	10,1	10	1	1	1	1	1	1	1	1	1	0	1	-19,027484	275,740572	308,755006	0
15.01.2021	14:23:15	0	66,074548	3,07299	1,59975	313,542	1,141	84,539	0	1015,34	8,8	10,1	10	1	1	1	1	1	1	1	1	1	0	1	-14,587738	275,607833	312,564039	0
15.01.2021	14:23:16	0	66,542268	4,325003	1,61625	307,2348	1,137	84,545	0	1015,28	8,7	10,1	9,8	1	1	1	1	1	1	1	1	1	0	1	-14,446794	275,635278	312,835312	0
15.01.2021	14:23:17	0	65,840529	2,390135	1,73325	314,8236	1,14	84,529	0	1015,2	8,7	10,1	9,8	1	1	1	1	1	1	1	1	1	0	1	-10,852713	275,60622	316,291404	0
15.01.2021	14:23:18	0	66,54214	4,211191	1,854	317,3112	1,141	84,534	0	1015,08	8,7	10,1	9,8	1	1	1	1	1	1	1	1	1	0	1	-11,346018	275,708113	316,282157	0
15.01.2021	14:23:19	0	66,42513	4,552587	1,89825	311,76	1,135	84,533	0	1015,34	8,7	10,1	10	1	1	1	1	1	1	1	1	1	0	1	-14,940099	275,764952	312,958332	0
15.01.2021	14:23:20	0	66,191175	2,845368	1,90725	270,3276	1,141	84,549	0	1015,26	8,7	10,1	10	1	1	1	1	1	1	1	1	1	0	1	-15,926709	275,70487	311,686052	0
15.01.2021	14:23:21	0	66,308057	4,666406	1,9605	286,1892	1,132	84,545	0	1015,28	8,7	10,1	10	1	1	1	1	1	1	1	1	1	0	1	-14,587738	275,771459	313,34164	0
15.01.2021	14:23:22	0	66,424938	4,552593	2,06175	323,6616	1,134	84,551	0	1015,22	8,7	10,1	10	1	1	1	1	1	1	1	1	1	0	1	-15,856237	275,703249	311,748819	0
15.01.2021	14:23:23	0	66,190984	4,438834	2,16525	288,4572	1,138	84,544	0	1015,32	8,7	10,1	9,8	1	1	1	1	1	1	1	1	1	0	1	-16,208598	275,743821	311,589341	0
15.01.2021	14:23:24	0	66,541755	3,755938	2,118	317,3688	1,14	84,552	0	1015,24	8,8	10,1	9,8	1	1	1	1	1	1	1	1	1	0	1	-15,221987	275,665997	312,206045	0
15.01.2021	14:23:25	0	66,073911	3,300674	2,088	315,9144	1,134	84,548	0	1015,24	8,7	10,1	9,8	1	1	1	1	1	1	1	1	1	0	1	-13,883016	275,590095	313,184548	0
15.01.2021	14:23:26	0	66,424682	2,959227	2,14875	309,1392	1,139	84,531	0	1015,26	8,7	10,1	9,8	1	1	1	1	1	1	1	1	1	0	1	-15,503876	275,638509	311,793577	0
15.01.2021	14:23:27	0	66,424618	3,414453	2,05275	309,4884	1,136	84,545	0	1015,26	8,7	10,1	10	1	1	1	1	1	1	1	1	1	0	1	-17,406624	275,763326	310,484072	0
15.01.2021	14:23:28	0	66,190665	5,121743	1,9065	321,8544	1,133	84,544	0	1015,34	8,8	10,1	9,8	1	1	1	1	1	1	1	1	1	0	1	-15,503876	275,693524	312,05496	0
15.01.2021	14:23:29	0	66,190601	3,300641	1,7955	323,3484	1,136	84,55	0	1015,32	8,7	10,1	10	1	1	1	1	1	1	1	1	1	0	1	-19,520789	275,617515	307,67696	0
15.01.2021	14:23:30	0	66,190537	3,869719	1,71825	317,7252	1,138	84,566	0	1015,3	8,7	10,1	10	1	1	1	1	1	1	1	1	1	0	1	-13,248767	275,580427	313,772903	0
15.01.2021	14:23:31	0	66,541306	4,097351	1,7265	325,4832	1,137	84,577	0	1015,2	8,7	10,1	10	1	1	1	1	1	1	1	1	1	0	1	-11,557435	275,583649	315,47953	0
15.01.2021	14:23:32	0	66,073465	2,845418	1,632	311,814	1,136	84,574	0	1015,28	8,7	10,1	9,8	1	1	1	1	1	1	1	1	1	0	1	-13,107822	275,630432	314,151268	0
15.01.2021	14:23:33	0	66,190345	3,98354	1,515	319,4892	1,133	84,574	0	1015,26	8,7	10,1	10	1	1	1	1	1	1	1	1	1	0	1	-12,614517	275,760074	315,260711	0
15.01.2021	14:23:34	0	66,190281	2,959238	1,40925	319,572	1,129	84,541	0	1015,38	8,7	10,1	9,8	1	1	1	1	1	1	1	1	1	0	1	-14,587738	275,638509	312,709716	0
15.01.2021	14:23:35	0	66,424105	3,869774	1,42275	325,2852	1,136	84,571	0	1015,26	8,7	10,1	9,8	1	1	1	1	1	1	1	1	1	0	1	-17,477097	275,743821	310,320842	0
15.01.2021	14:23:36	0	66,190617	4,324992	1,45575	339,1704	1,135	84,574	0	1015,26	8,7	10,2	10	1	1	1	1	1	1	1	1	1	0	1	-14,65821	275,680565	312,839043	0
15.01.2021	14:23:37	0	66,54092	3,414469	1,57425	324,1476	1,133	84,571	0	1015,36	8,7	10,1	10	1	1	1	1	1	1	1	1	1	0	1	-13,03735	275,755197	314,814683	0
15.01.2021	14:23:38	0	66,423912	4,552627	1,55475	325,6812	1,127	84,549	0	1015,22	8,7	10,1	10	1	1	1	1	1	1	1	1	1	0	1	-10,993658	275,695145	316,57288	0
15.01.2021	14:23:39	0	65,956074	4,211182	1,55775	316,962	1,13	84,55	0	1015,3	8,7	10,1	10	1	1	1	1	1	1	1	1	1	0	1	-10,993658	275,766579	316,912509	0
15.01.2021	14:23:40	0	66,072954	4,211184	1,7745	309,1608	1,129	84,539	0	1015,34	8,8	10,1	10	1	1	1	1	1	1	1	1	1	0	1	-12,403101	275,609446	314,756336	0
15.01.2021	14:23:41	0	66,189833	4,211237	1,93875	319,158	1,131	84,538	0	1015,26	8,7	10,1	9,8	1	1	1	1	1	1	1	1	1	0	1	-12,825934	275,760074	315,049295	0
15.01.2021	14:23:42	0	66,306712	4,55269	1,992	309,9384	1,129	84,533	0	1015,3	8,7	10,1	9,8	1	1	1	1	1	1	1	1	1	0	1	-15,081043	275,644973	312,247115	0
15.01.2021	14:23:43	0	65,838876	4,552638	1,93725	320,8428	1,131	84,504	0	1015,34	8,7	10,1	10	1	1	1	1	1	1	1	1	1	0	1	-16,983791	275,745446	310,821873	0
15.01.2021	14:23:44	0	65,72187	3,642112	1,94625	322,5996	1,128	84,524	0	1015,36	8,7	10,1	10	1	1	1	1	1	1	1	1	1	0	1	-11,557435	275,711357	316,086158	0
15.01.2021	14:23:45	0	65,838749	3,073033	2,157	308,8152	1,128	84,504	0	1015,2	8,7	10,1	10	1	1	1	1	1	1	1	1	1	0	1	-11,698379	275,753571	316,145924	0
15.01.2021	14:23:46	0	66,07257	4,438828	2,42175	315,2304	1,132	84,497	0	1015,26	8,7	10,1	10	1	1	1	1	1	1	1	1	1	0	1	-13,107822	275,687044	314,420216	0
15.01.2021	14:23:47	0	66,072507	3,983566	2,69325	307,548	1,13	84,49	0	1015,28	8,7	10,1	10	1	1	1	1	1	1	1	1	1	0	1	-16,631431	275,755197	311,220603	0
15.01.2021	14:23:48	0	66,072443	3,073075	2,8305	312,4548	1,127	84,481	0	1015,22	8,7	10,1	9,8	1	1	1	1	1	1	1	1	1	0	1	-10,993658	275,665997	316,434375	0
15.01.2021	14:23:49	0	66,072379	4,552651	3,01725	308,088	1,135	84,495	0	1015,26	8,7	10,1	10	1	1	1	1	1	1	1	1	1	0	1	-15,292459	275,575594	311,706273	0
15.01.2021	14:23:50	0	65,955372	4,32502	3,336	299,2968	1,129	84,495	0	1015,26	8,7	10,1	10	1	1	1	1	1	1	1	1	1	0	1	-14,446794	275,644973	312,881364	0
15.01.2021	14:23:51	0	65,370598	2,845443	3,48675	303,2532	1,125	84,499	0	1015,28	8,7	10,1	9,8	1	1	1	1	1	1	1	1	1	0	1	-18,393235	275,559495	308,529091	0
15.01.2021	14:23:52	0	66,189129	4,552712	3,459	301,6512	1,121	84,484	0	1015,24	8,7	10,1	9,8	1	1	1	1	1	1	1	1	1	0	1	-19,732206	275,683804	307,780439	0
15.01.2021	14:23:53	0	65,604355	4,097393	3,36825	304,9812	1,122	84,471	0	1015,28	8,7	10,1	10	1	1	1	1	1	1	1	1	1	0	1	-13,601128	275,7617	314,281834	0
15.01.2021	14:23:54	0	66,305942	4,894111	3,36675	303,4908	1,122	84,474	0	1015,18	8,7	10,1	10	1	1	1	1	1	1	1	1	1	0	1	-12,262156	275,672471	315,196633	0
15.01.2021	14:23:55	0	65,604228	3,073048	3,5445	310,626	1,124	84,485	0	1015,18	8,7	10,1	10	1	1	1	1	1	1	1	1	1	0	1	-16,208598	275,562714	310,729004	0
15.01.2021	14:23:56	0	65,604165	4,552665	3,64575	304,5996	1,125	84,506	0	1015,22	8,7	10,1	10	1	1	1	1	1	1	1	1	1	0	1	-15,081043	275,708113	312,547133	0
15.01.2021	14:23:57	0	65,48716	2,731601	3,56775	303,408	1,126	84,501	0	1015,22	8,7	10,1	10	1	1	1	1	1	1	1	1	1	0	1	-15,503876	275,748696	312,317241	0
15.01.2021	14:23:58	0	65,487096	2,276362	3,468	317,7216	1,124	84,485	0	1015,18	8,7	10,1	9,8	1	1	1	1	1	1	1	1	1	0	1	-12,262156	275,633662	315,012277	0
15.01.2021	14:23:59	0	65,837856	3,983588	2,97825	306,1296	1,119	84,483	0	1015,28	8,7	10,1	10	1	1	1	1	1	1	1	1	1	0	1	-16,067653	275,556277	310,839401	0
15.01.2021	14:24:00	0	65,837728	3,414548	2,59575	317,3328	1,12	84,471	0	1015,34	8,7	10,1	9,8	1	1	1	1	1	1	1	1	1	0	1	-14,305849	275,623972	312,922565	0
15.01.2021	14:24:01	0	65,837728	3,414548	2,59575	317,3328	1,12	84,471	0	1015,34	8,7	10,1	9,8	1	1	1	1	1	1	1	1	1	0	1	-16,560958	275,557886	310,353731	0
15.01.2021	14:24:02	0	65,486842	3,869776	2,7195	315,1764	1,114	84,476	0	1015,3	8,7	10,1	10	1	1	1	1	1	1	1	1	1	0	1	-15,64482	275,698386	311,937122	0
15.01.2021	14:24:03	0	65,486779	4,325046	2,814	320,3928	1,123	84,487	0	1015,28	8,7	10,1	10	1	1	1	1	1	1	1	1	1	0	1	-12,262156	275,743821	315,535782	0
15.01.2021	14:24:04	0	65,954939	4,552737	2,87775	316,3032	1,121	84,481	0	1015,26	8,7	10,2	9,8	1	1	1	1	1	1	1	1	1	0	1	-11,909796	275,591707	315,16542	0
15.01.2021	14:24:05	0	65,603592	3,869782	3,08175	320,7492	1,123	84,479	0	1015,24	8,7	10,1	10	1	1	1	1	1	1	1	1	1	0	1	-14,940099	275,706492	312,680369	0
15.01.2021	14:24:06	0	65,486588	4,552741	3,156	319,608	1,118	84,472	0	1015,24	8,7	10,1	9,8	1	1	1	1	1	1	1	1	1	0	1	-13,319239	275,559495	313,603087	0
15.01.2021	14:24:07	0	65,720405	3,414537	3,1455	316,6704	1,12	84,477	0	1015,2	8,7	10,1	9,9	1	1	1	1	1	1	1	1	1	0	1	-11,768851	275,548234	315,100036	0
15.01.2021	14:24:08	0	65,603861	2,731647	3,11025	315,6084	1,12	84,475	0	1015,38	8,7	10,2	9,8	1	1	1	1	1	1	1	1	1	0	1	-15,081043	275,627202	312,162708	0
15.01.2021	14:24:09	0	65,486397	4,097424	3,04125	315,5076	1,122	84,471	0	1015,3	8,7	10,1	10	1	1	1	1	1	1	1	1	1	0	1	-14,376321	275,738948	313,398446	0
15.01.2021	14:24:10	0	65,369394	2,503982	2,99775	316,6308	1,12	84,467	0	1015,28	8,7	10,1	10	1	1	1	1	1	1	1	1	1	0	1	-13,530655	275,602994	313,598145	0
15.01.2021	14:24:11	0	64,901571	2,504014	3,07125	323,262	1,116	84,448	0	1015,34	8,7	10,1	9,8	1	1	1	1	1	1	1	1	1	0	1	-12,332629	275,601381	314,788514	0
15.01.2021	14:24:12	0	65,252327	4,097479	3,08775	322,1748	1,111	84,463	0	1015,42	8,7	10,1	9,8	1	1	1	1	1	1	1	1	1	0	1	-7,470049	275,607833	319,681727	0
15.01.2021	14:24:13	0	65,603083	3,756024	3,03975	324,3672	1,121	84,464	0	1015,3	8,7	10,1	9,8	1	1	1	1	1	1	1	1	1	0	1	-15,221987	275,548234	311,6469	0
15.01.2021	14:24:14	0	65,486079	3,30075	2,98725	320,7456	1,115	84,462	0	1015,24	8,7	10,1	9,8	1	1	1	1	1	1	1	1	1	0	1	-11,134602	275,696765	316,439637	0
15.01.2021	14:24:15	0	65,486016	2,845458	2,90775	325,3968	1,112	84,441	0	1015,26	8,7	10,1	9,9	1	1	1	1	1	1	1	1	1	0	1	-15,362932	275,590095	311,704633	0
15.01.2021	14:24:16	0	65,71983	4,325125	2,901	330,0804	1,114	84,436	0	1015,18	8,7	10,1	9,8	1	1	1	1	1	1	1	1	1	0	1	-17,336152	275,690284	310,207283	0
15.01.2021	14:24:17	0	65,486347	3,186935	2,9565	321,7284	1,117	84,448	0	1015,2	8,7	10,2	9,8	1	1	1	1	1	1	1	1	1	0	1	-11,909796	275,58526	315,134818	0
15.01.2021	14:24:18	0	65,603223	5,008044	2,847	325,5156	1,111	84,44	0	1015,2	8,7	10,2	9,8	1	1	1	1	1	1	1	1	1	0	1	-13,601128	275,607833	313,550649	0
15.01.2021	14:24:19	0	65,251883	4,894227	2,787	328,8528	1,104	84,429	0	1015,26	8,7	10,1	9,8	1	1	1	1	1	1	1	1	1	0	1	-14,517266	275,698386	313,064676	0
15.01.2021	14:24:20	0	65,368759	3,073121	2,781	322,9308	1,109	84,41	0	1015,1	8,7	10,1	9,8	1	1	1	1	1	1	1	1	1	0	1	-15,715292	275,669234	311,728117	0
15.01.2021	14:24:21	0	64,900941	2,504025	2,81025	326,0844	1,11	84,428	0	1015,32	8,7	10,1	9,8	1	1	1	1	1	1	1	1	1	0	1	-15,433404	275,541801	311,404963	0
15.01.2021	14:24:22	0	64,900877	3,186943	2,8035	328,1004	1,11	84,409	0	1015,16	8,7	10,1	9,8	1	1	1	1	1	1	1	1	1	0	1	-14,517266	275,70487	313,095496	0
15.01.2021	14:24:23	0	65,251629	2,617847	2,85075	332,0532	1,102	84,405	0	1015,2	8,7	10,1	9,8	1	1	1	1	1	1	1	1	1	0	1	-15,856237	275,591707	311,218979	0
15.01.2021	14:24:24	0	65,134628	3,983682	2,78775	328,554	1,11	84,418	0	1015,22	8,7	10,1	9,8	1	1	1	1	1	1	1	1	1	0	1	-16,349542	275,556277	310,557512	0
15.01.2021	14:24:25	0	65,368441	4,666573	2,6265	326,718	1,108	84,411	0	1015,34	8,7	10,1	9,9	1	1	1	1	1	1	1	1	1	0	1	-15,503876	275,60622	311,640241	0
15.01.2021	14:24:26	0	65,134957	4,780423	2,51175	326,0232	1,107	84,432	0	1015,28	8,7	10,2	9,8	1	1	1	1	1	1	1	1	1	0	1	-15,997181	275,72109	311,692683	0
15.01.2021	14:24:27	0	65,602189	5,008035	2,45775	320,7528	1,1	84,432	0	1015,32	8,7	10,1	9,9	1	1	1	1	1	1	1	1	1	0	1	-14,446794	275,665997	312,981239	0
15.01.2021	14:24:28	0	65,36825	2,845493	2,391	314,802	1,11	84,425	0	1015,34	8,7	10,1	9,8	1	1	1	1	1	1	1	1	1	0	1	-14,65821	275,549842	312,218309	0
15.01.2021	14:24:29	0	65,485124	4,325125	2,4135	315,9072	1,1	84,42	0	1015,18	8,7	10,1	9,9	1	1	1	1	1	1	1	1	1	0	1	-15,362932	275,711357	312,280661	0
15.01.2021	14:24:30	0	64,783434	3,642234	2,59575	320,3784	1,1	84,434	0	1015,18	8,7	10,1	9,8	1	1	1	1	1	1	1	1	1	0	1	-11,909796	275,545017	314,94383	0
15.01.2021	14:24:31	0	65,017246	3,528374	2,50575	322,8444	1,105	84,444	0	1015,24	8,7	10,1	10	1	1	1	1	1	1	1	1	1	0	1	-12,896406	275,596543	314,20177	0
15.01.2021	14:24:32	0	65,017183	3,756057	2,3505	332,0244	1,098	84,446	0	1015,32	8,7	10,1	9,8	1	1	1	1	1	1	1	1	1	0	1	-11,486963	275,559495	315,435363	0
15.01.2021	14:24:33	0	64,666761	2,617859	2,1225	316,9908	1,102	84,436	0	1015,28	8,7	10,2	9,8	1	1	1	1	1	1	1	1	1	0	1	-15,64482	275,722713	312,052758	0
15.01.2021	14:24:34	0	65,13445	3,073141	2,07525	318,42	1,105	84,444	0	1015,28	8,8	10,2	9,8	1	1	1	1	1	1	1	1	1	0	1	-13,601128	275,656291	313,780793	0
15.01.2021	14:24:35	0	64,783119	2,731666	2,16975	297,2268	1,104	84,461	0	1015,32	8,7	10,1	9,9	1	1	1	1	1	1	1	1	1	0	1	-13,107822	275,706492	314,512646	0
15.01.2021	14:24:36	0	65,25126	3,756064	2,32275	324,3708	1,095	84,464	0	1015,28	8,7	10,2	9,8	1	1	1	1	1	1	1	1	1	0	1	-13,389711	275,644973	313,938447	0
15.01.2021	14:24:37	0	64,900384	3,186946	2,2845	309,492	1,1	84,472	0	1015,32	8,7	10,2	9,9	1	1	1	1	1	1	1	1	1	0	1	-11,909796	275,717845	315,764642	0
15.01.2021	14:24:38	0	65,251133	4,78045	2,184	320,3172	1,106	84,479	0	1015,34	8,7	10,2	9,8	1	1	1	1	1	1	1	1	1	0	1	-11,839323	275,688664	315,696413	0
15.01.2021	14:24:39	0	64,782866	2,845507	2,2965	310,6548	1,099	84,465	0	1015,16	8,7	10,1	9,8	1	1	1	1	1	1	1	1	1	0	1	-16,772375	275,546625	310,088881	0
15.01.2021	14:24:40	0	65,134069	4,097508	2,5695	297,5472	1,105	84,482	0	1015,24	8,7	10,2	9,9	1	1	1	1	1	1	1	1	1	0	1	-11,134602	275,674089	316,331879	0
15.01.2021	14:24:41	0	64,665803	3,756073	2,6925	303,1092	1,096	84,478	0	1015,2	8,8	10,1	9,8	1	1	1	1	1	1	1	1	1	0	1	-16,560958	275,712979	311,090344	0
15.01.2021	14:24:42	0	65,017004	4,438971	2,67075	314,8344	1,1	84,488	0	1015,34	8,7	10,2	9,9	1	1	1	1	1	1	1	1	1	0	1	-15,715292	275,612673	311,459467	0
15.01.2021	14:24:43	0	64,548741	2,731692	2,64675	324,6948	1,106	84,504	0	1015,34	8,7	10,1	9,8	1	1	1	1	1	1	1	1	1	0	1	-10,570825	275,546625	316,290431	0
15.01.2021	14:24:44	0	65,016878	3,983696	2,8185	318,4308	1,106	84,508	0	1015,34	8,7	10,2	9,9	1	1	1	1	1	1	1	1	1	0	1	-9,654686	275,607833	317,49709	0
15.01.2021	14:24:45	0	64,666004	3,869878	3,033	327,726	1,099	84,509	0	1015,28	8,7	10,2	9,9	1	1	1	1	1	1	1	1	1	0	1	-17,547569	275,711357	310,096024	0
15.01.2021	14:24:46	0	64,899814	3,52842	3,00525	350,9388	1,094	84,514	0	1015,32	8,8	10,2	9,9	1	1	1	1	1	1	1	1	1	0	1	-11,557435	275,714601	316,101579	0
15.01.2021	14:24:47	0	64,548941	2,617861	2,7855	329,2812	1,096	84,515	0	1015,4	8,7	10,2	9,9	1	1	1	1	1	1	1	1	1	0	1	-13,248767	275,578816	313,765256	0
15.01.2021	14:24:48	0	64,548878	3,756063	2,856	331,9992	1,097	84,533	0	1015,3	8,7	10,2	9,9	1	1	1	1	1	1	1	1	1	0	1	-10,359408	275,557886	316,555281	0
15.01.2021	14:24:49	0	64,899624	4,325166	2,8155	334,2672	1,094	84,512	0	1015,34	8,7	10,2	9,9	1	1	1	1	1	1	1	1	1	0	1	-15,64482	275,612673	311,529939	0
15.01.2021	14:24:50	0	64,431816	4,666628	2,649	337,9428	1,101	84,529	0	1015,12	8,7	10,2	9,9	1	1	1	1	1	1	1	1	1	0	1	-15,081043	275,724336	312,624251	0
15.01.2021	14:24:51	0	64,665625	5,121912	2,5065	321,1488	1,094	84,531	0	1015,34	8,8	10,2	9,9	1	1	1	1	1	1	1	1	1	0	1	-16,842847	275,604606	310,293611	0
15.01.2021	14:24:52	0	64,43169	3,983687	2,316	324,8208	1,091	84,532	0	1015,3	8,7	10,2	10	1	1	1	1	1	1	1	1	1	0	1	-14,446794	275,532157	312,345817	0
15.01.2021	14:24:53	0	64,781981	4,097533	2,17425	335,646	1,094	84,533	0	1015,44	8,7	10,1	9,9	1	1	1	1	1	1	1	1	1	0	1	-13,601128	275,653057	313,765428	0
15.01.2021	14:24:54	0	64,665436	3,300792	2,28375	321,498	1,099	84,535	0	1015,2	8,7	10,2	9,9	1	1	1	1	1	1	1	1	1	0	1	-16,560958	275,565933	310,391921	0
15.01.2021	14:24:55	0	64,314566	2,845512	2,22375	319,9788	1,093	84,528	0	1015,16	8,7	10,2	9,9	1	1	1	1	1	1	1	1	1	0	1	-12,191684	275,553059	314,7001	0
15.01.2021	14:24:56	0	64,548374	3,756077	2,34	325,1448	1,101	84,537	0	1015,34	8,8	10,2	9,9	1	1	1	1	1	1	1	1	1	0	1	-17,688513	275,680565	309,80874	0
15.01.2021	14:24:57	0	64,782181	4,439003	2,4015	326,3544	1,092	84,541	0	1015,26	8,7	10,2	9,9	1	1	1	1	1	1	1	1	1	0	1	-12,403101	275,588483	314,656812	0
15.01.2021	14:24:58	0	64,430861	2,617875	2,43075	318,1248	1,094	84,548	0	1015,24	8,7	10,1	9,9	1	1	1	1	1	1	1	1	1	0	1	-14,728682	275,706492	312,891786	0
15.01.2021	14:24:59	0	64,197379	3,756083	2,60475	335,304	1,095	84,533	0	1015,26	8,7	10,2	9,9	1	1	1	1	1	1	1	1	1	0	1	-20,225511	275,623972	307,002903	0
15.01.2021	14:25:00	0	64,431123	4,439011	2,40225	312,4116	1,09	84,544	0	1015,26	8,7	10,2	9,9	1	1	1	1	1	1	1	1	1	0	1	-13,883016	275,696765	313,691223	0
15.01.2021	14:25:01	0	64,431123	4,439011	2,40225	312,4116	1,09	84,544	0	1015,26	8,7	10,2	9,9	1	1	1	1	1	1	1	1	1	0	1	-13,178295	275,661143	314,226678	0
15.01.2021	14:25:02	0	64,43106	4,325192	2,43675	298,6596	1,087	84,532	0	1015,3	8,7	10,2	9,9	1	1	1	1	1	1	1	1	1	0	1	-14,799154	275,696765	312,775085	0
15.01.2021	14:25:03	0	64,664866	5,349582	2,39175	307,1808	1,089	84,549	0	1015,24	8,8	10,2	9,9	1	1	1	1	1	1	1	1	1	0	1	-15,292459	275,669234	312,15095	0
15.01.2021	14:25:04	0	64,313549	4,211375	2,3325	309,1932	1,088	84,547	0	1015,32	8,7	10,1	9,9	1	1	1	1	1	1	1	1	1	0	1	-13,6716	275,527337	313,098143	0
15.01.2021	14:25:05	0	64,664287	4,666661	2,319	308,79	1,094	84,559	0	1015,34	8,8	10,1	9,9	1	1	1	1	1	1	1	1	1	0	1	-14,869626	275,617515	312,328123	0
15.01.2021	14:25:06	0	64,313873	3,18699	2,199	309,5064	1,085	84,54	0	1015,3	8,8	10,2	9,9	1	1	1	1	1	1	1	1	1	0	1	-13,601128	275,522518	313,145754	0
15.01.2021	14:25:07	0	64,430745	2,959349	2,12775	297,2016	1,083	84,537	0	1015,18	8,8	10,2	9,9	1	1	1	1	1	1	1	1	1	0	1	-16,420014	275,583649	310,616951	0
15.01.2021	14:25:08	0	64,196813	3,642277	2,22075	316,6776	1,092	84,529	0	1015,26	8,7	10,2	9,9	1	1	1	1	1	1	1	1	1	0	1	-16,490486	275,72109	311,199378	0
15.01.2021	14:25:09	0	64,430167	3,073173	2,09175	311,7492	1,087	84,521	0	1015,26	8,8	10,1	9,9	1	1	1	1	1	1	1	1	1	0	1	-13,460183	275,65144	313,898691	0
15.01.2021	14:25:10	0	63,962372	3,414638	1,87425	313,1388	1,094	84,56	0	1015,36	8,8	10,1	9,9	1	1	1	1	1	1	1	1	1	0	1	-15,151515	275,701628	312,445835	0
15.01.2021	14:25:11	0	64,430492	2,959355	1,704	327,0708	1,086	84,548	0	1015,28	8,8	10,2	9,9	1	1	1	1	1	1	1	1	1	0	1	-11,275546	275,627202	315,968204	0
15.01.2021	14:25:12	0	64,196562	2,50407	1,61175	325,1016	1,089	84,551	0	1015,3	8,8	10,2	9,9	1	1	1	1	1	1	1	1	1	0	1	-12,332629	275,706492	315,28784	0
15.01.2021	14:25:13	0	64,312982	4,7805	1,61475	290,7756	1,087	84,555	0	1015,3	8,8	10,1	9,9	1	1	1	1	1	1	1	1	1	0	1	-12,544045	275,667615	314,891676	0
15.01.2021	14:25:14	0	64,079054	4,211395	1,70775	308,79	1,085	84,55	0	1015,36	8,7	10,1	9,9	1	1	1	1	1	1	1	1	1	0	1	-14,517266	275,670852	312,933834	0
15.01.2021	14:25:15	0	64,07944	3,300825	1,95375	293,292	1,09	84,568	0	1015,3	8,8	10,2	9,9	1	1	1	1	1	1	1	1	1	0	1	-11,980268	275,549842	314,896251	0
15.01.2021	14:25:16	0	63,962444	5,121972	2,2245	308,43	1,078	84,558	0	1015,22	8,7	10,2	9,9	1	1	1	1	1	1	1	1	1	0	1	-11,275546	275,70487	316,337215	0
15.01.2021	14:25:17	0	64,31273	4,666688	2,3205	309,8484	1,082	84,574	0	1015,36	8,7	10,1	9,9	1	1	1	1	1	1	1	1	1	0	1	-11,768851	275,649823	315,582343	0
15.01.2021	14:25:18	0	64,429599	4,211403	2,4465	309,9744	1,085	84,581	0	1015,28	8,7	10,1	9,9	1	1	1	1	1	1	1	1	1	0	1	-15,010571	275,536979	311,804915	0
15.01.2021	14:25:19	0	64,312604	4,325227	2,43975	321,1452	1,086	84,581	0	1015,26	8,7	10,1	9,9	1	1	1	1	1	1	1	1	1	0	1	-19,379845	275,696765	308,194394	0
15.01.2021	14:25:20	0	63,962193	2,845545	2,3505	319,1976	1,091	84,57	0	1015,4	8,8	10,2	9,9	1	1	1	1	1	1	1	1	1	0	1	-15,221987	275,632047	312,044774	0
15.01.2021	14:25:21	0	63,96213	3,983765	2,35725	315,8064	1,086	84,572	0	1015,26	8,8	10,2	9,9	1	1	1	1	1	1	1	1	1	0	1	-16,420014	275,536979	310,395471	0
15.01.2021	14:25:22	0	64,195932	4,097589	2,355	322,9344	1,087	84,584	0	1015,26	8,7	10,2	9,9	1	1	1	1	1	1	1	1	1	0	1	-13,812544	275,596543	313,285632	0
15.01.2021	14:25:23	0	64,078937	4,439057	2,38575	327,3408	1,083	84,569	0	1015,32	8,8	10,2	9,9	1	1	1	1	1	1	1	1	1	0	1	-10,641297	275,522518	316,105585	0
15.01.2021	14:25:24	0	64,312739	3,756127	2,508	329,7348	1,106	84,59	0	1015,56	8,7	10,2	9,9	1	1	1	1	1	1	1	1	1	0	1	-11,627907	275,643357	315,692574	0
15.01.2021	14:25:25	0	63,961431	4,211417	2,7585	320,7708	1,083	84,584	0	1015,24	8,8	10,1	9,9	1	1	1	1	1	1	1	1	1	0	1	-13,6716	275,714601	313,987414	0
15.01.2021	14:25:26	0	64,312162	4,666708	2,88675	318,4956	1,087	84,599	0	1015,2	8,8	10,1	9,9	1	1	1	1	1	1	1	1	1	0	1	-13,178295	275,609446	313,981142	0
15.01.2021	14:25:27	0	64,195168	3,64231	2,787	316,2348	1,09	84,605	0	1015,3	8,8	10,1	9,9	1	1	1	1	1	1	1	1	1	0	1	-12,966878	275,522518	313,780003	0
15.01.2021	14:25:28	0	64,078174	3,756134	2,72625	317,0376	1,081	84,6	0	1015,3	8,8	10,1	9,9	1	1	1	1	1	1	1	1	1	0	1	-11,768851	275,641741	315,543953	0
15.01.2021	14:25:29	0	63,844249	3,756136	2,7795	323,2728	1,08	84,59	0	1015,14	8,7	10,1	9,9	1	1	1	1	1	1	1	1	1	0	1	-12,755462	275,527337	314,014281	0
15.01.2021	14:25:30	0	64,078048	4,439072	2,7465	311,3748	1,083	84,594	0	1015,34	8,7	10,1	9,9	1	1	1	1	1	1	1	1	1	0	1	-11,557435	275,693524	316,001401	0
15.01.2021	14:25:31	0	64,077985	4,097607	2,6715	327,834	1,082	84,583	0	1015,36	8,7	10,1	9,9	1	1	1	1	1	1	1	1	1	0	1	-16,349542	275,65144	311,009333	0
15.01.2021	14:25:32	0	63,844061	3,414674	2,61375	325,548	1,085	84,587	0	1015,22	8,7	10,1	9,9	1	1	1	1	1	1	1	1	1	0	1	-13,03735	275,512883	313,663829	0
15.01.2021	14:25:33	0	64,31172	4,780546	2,457	334,9944	1,076	84,595	0	1015,34	8,7	10,1	9,9	1	1	1	1	1	1	1	1	1	0	1	-16,138125	275,644973	311,190032	0
15.01.2021	14:25:34	0	63,960866	3,187032	2,382	341,5932	1,081	84,601	0	1015,22	8,7	10,1	9,9	1	1	1	1	1	1	1	1	1	0	1	-12,825934	275,5177	313,898093	0
15.01.2021	14:25:35	0	63,610012	3,869969	2,37825	326,2896	1,08	84,61	0	1015,28	8,8	10,1	9,9	1	1	1	1	1	1	1	1	1	0	1	-14,305849	275,580427	312,71582	0
15.01.2021	14:25:36	0	63,49302	2,390276	2,44575	319,59	1,083	84,598	0	1015,38	8,7	10,1	9,9	1	1	1	1	1	1	1	1	1	0	1	-11,346018	275,700007	316,243627	0
15.01.2021	14:25:37	0	64,194537	3,642327	2,48775	330,7608	1,083	84,595	0	1015,14	8,7	10,1	9,9	1	1	1	1	1	1	1	1	1	0	1	-14,940099	275,583649	312,096866	0
15.01.2021	14:25:38	0	63,960614	4,780557	2,48925	318,114	1,08	84,592	0	1015,32	8,7	10,1	9,9	1	1	1	1	1	1	1	1	1	0	1	-16,913319	275,516094	309,803091	0
15.01.2021	14:25:39	0	63,609762	3,528508	2,58675	322,9236	1,08	84,589	0	1015,26	8,7	10,1	9,9	1	1	1	1	1	1	1	1	1	0	1	-13,6716	275,557886	313,24309	0
15.01.2021	14:25:40	0	64,077418	4,211447	2,73225	326,7576	1,083	84,598	0	1015,32	8,8	10,1	9,9	1	1	1	1	1	1	1	1	1	0	1	-18,463707	275,683804	309,048938	0
15.01.2021	14:25:41	0	63,258848	4,666741	2,7495	325,1772	1,077	84,596	0	1015,34	8,8	10,1	9,9	1	1	1	1	1	1	1	1	1	0	1	-17,336152	275,636893	309,953627	0
15.01.2021	14:25:42	0	63,609574	4,55292	2,631	319,9752	1,073	84,594	0	1015,4	8,7	10,1	9,9	1	1	1	1	1	1	1	1	1	0	1	-14,869626	275,690284	312,673809	0
15.01.2021	14:25:43	0	63,609512	3,983807	2,5665	323,3016	1,076	84,599	0	1015,34	8,8	10,1	9,9	1	1	1	1	1	1	1	1	1	0	1	-13,319239	275,627202	313,924512	0
15.01.2021	14:25:44	0	63,843307	5,008217	2,6955	327,0888	1,081	84,59	0	1015,28	8,7	10,1	9,9	1	1	1	1	1	1	1	1	1	0	1	-14,517266	275,5177	312,206761	0
15.01.2021	14:25:45	0	63,843244	3,869988	2,64	318,7332	1,08	84,618	0	1015,48	8,8	10,1	9,9	1	1	1	1	1	1	1	1	1	0	1	-18,88654	275,580427	308,13513	0
15.01.2021	14:25:46	0	63,375466	2,959404	2,541	313,1316	1,078	84,617	0	1015,48	8,7	10,1	9,9	1	1	1	1	1	1	1	1	1	0	1	-15,574348	275,685424	311,945993	0
15.01.2021	14:25:47	0	63,609261	3,983814	2,3955	315,8928	1,078	84,627	0	1015,28	8,7	10,1	9,9	1	1	1	1	1	1	1	1	1	0	1	-16,490486	275,594931	310,600036	0
15.01.2021	14:25:48	0	63,726127	5,008226	2,1435	322,5456	1,079	84,632	0	1015,4	8,7	10,1	9,9	1	1	1	1	1	1	1	1	1	0	1	-13,248767	275,677327	314,233099	0
15.01.2021	14:25:49	0	63,609136	2,845584	2,02125	319,9896	1,077	84,622	0	1015,24	8,7	10,1	9,9	1	1	1	1	1	1	1	1	1	0	1	-13,107822	275,570763	313,86798	0
15.01.2021	14:25:50	0	63,609073	4,552937	2,13675	320,7816	1,079	84,63	0	1015,24	8,8	10,1	9,9	1	1	1	1	1	1	1	1	1	0	1	-9,584214	275,49844	317,048464	0
15.01.2021	14:25:51	0	63,492082	2,845587	2,46675	320,0184	1,077	84,653	0	1015,3	8,7	10,1	9,9	1	1	1	1	1	1	1	1	1	0	1	-13,389711	275,55145	313,49444	0
15.01.2021	14:25:52	0	63,608948	4,894412	2,76375	318,3408	1,076	84,657	0	1015,3	8,8	10,1	9,9	1	1	1	1	1	1	1	1	1	0	1	-13,03735	275,630432	314,22174	0
15.01.2021	14:25:53	0	63,491957	2,959413	2,81775	327,7404	1,072	84,659	0	1015,38	8,7	10,1	9,9	1	1	1	1	1	1	1	1	1	0	1	-14,164905	275,511277	312,52866	0
15.01.2021	14:25:54	0	63,608822	3,642357	2,88375	327,7764	1,082	84,67	0	1015,28	8,7	10,1	9,9	1	1	1	1	1	1	1	1	1	0	1	-16,701903	275,669234	310,741507	0
15.01.2021	14:25:55	0	63,374904	4,325301	2,81775	321,1848	1,078	84,672	0	1015,26	8,7	10,1	9,9	1	1	1	1	1	1	1	1	1	0	1	-13,460183	275,674089	314,006298	0
15.01.2021	14:25:56	0	63,374841	3,414713	2,84625	321,1488	1,071	84,675	0	1015,3	8,7	10,1	9,9	1	1	1	1	1	1	1	1	1	0	1	-13,530655	275,630432	313,728435	0
15.01.2021	14:25:57	0	63,608634	2,731771	3,0105	338,3316	1,078	84,67	0	1015,26	8,7	10,1	9,9	1	1	1	1	1	1	1	1	1	0	1	-14,517266	275,630432	312,741825	0
15.01.2021	14:25:58	0	63,140861	3,414716	2,85375	328,158	1,078	84,688	0	1015,24	8,7	10,1	9,9	1	1	1	1	1	1	1	1	1	0	1	-15,64482	275,670852	311,806279	0
15.01.2021	14:25:59	0	63,257726	2,959422	2,619	329,2704	1,081	84,682	0	1015,32	8,7	10,1	9,9	1	1	1	1	1	1	1	1	1	0	1	-11,627907	275,562714	315,309694	0
15.01.2021	14:26:00	0	63,491456	4,211489	2,51475	324,4032	1,076	84,685	0	1015,32	8,7	10,1	9,9	1	1	1	1	1	1	1	1	1	0	1	-12,966878	275,677327	314,514988	0
15.01.2021	14:26:01	0	63,491456	4,211489	2,51475	324,4032	1,076	84,685	0	1015,32	8,7	10,1	9,9	1	1	1	1	1	1	1	1	1	0	1	-15,292459	275,588483	311,767454	0
15.01.2021	14:26:02	0	62,906758	3,414722	2,766	306,1548	1,074	84,675	0	1015,36	8,7	10,1	9,9	1	1	1	1	1	1	1	1	1	0	1	-16,420014	275,672471	311,038776	0
15.01.2021	14:26:03	0	63,491331	4,552965	2,7315	317,7648	1,076	84,693	0	1015,32	8,7	10,1	9,9	1	1	1	1	1	1	1	1	1	0	1	-15,574348	275,635278	311,707758	0
15.01.2021	14:26:04	0	62,789707	2,845605	2,694	300,1356	1,075	84,684	0	1015,14	8,7	10,1	9,9	1	1	1	1	1	1	1	1	1	0	1	-13,107822	275,512883	313,593357	0
15.01.2021	14:26:05	0	63,374278	4,439146	2,61975	323,2476	1,067	84,679	0	1015,14	8,7	10,1	9,9	1	1	1	1	1	1	1	1	1	0	1	-15,362932	275,670852	312,088168	0
15.01.2021	14:26:06	0	63,023436	3,18708	2,49225	318,4524	1,073	84,688	0	1015,2	8,7	10,1	9,9	1	1	1	1	1	1	1	1	1	0	1	-13,742072	275,596543	313,356104	0
15.01.2021	14:26:07	0	63,1403	3,642379	2,2515	330,6672	1,064	84,699	0	1015,24	8,7	10,1	9,9	1	1	1	1	1	1	1	1	1	0	1	-15,362932	275,669234	312,080478	0
15.01.2021	14:26:08	0	63,140238	2,959435	2,2215	324,1332	1,071	84,704	0	1015,32	8,7	10,1	9,9	1	1	1	1	1	1	1	1	1	0	1	-13,03735	275,674089	314,429131	0
15.01.2021	14:26:09	0	63,140176	3,75623	2,475	313,5708	1,073	84,713	0	1015,42	8,7	10,1	9,8	1	1	1	1	1	1	1	1	1	0	1	-15,221987	275,516094	311,494423	0
15.01.2021	14:26:10	0	62,789335	2,959437	2,6265	330,822	1,076	84,711	0	1015,22	8,7	10,1	9,9	1	1	1	1	1	1	1	1	1	0	1	-12,403101	275,630432	314,85599	0
15.01.2021	14:26:11	0	62,906199	3,414737	2,7165	334,9548	1,069	84,711	0	1015,24	8,7	10,1	9,9	1	1	1	1	1	1	1	1	1	0	1	-12,825934	275,482404	313,730705	0
15.01.2021	14:26:12	0	62,906137	2,845616	2,814	330,3864	1,074	84,709	0	1015,26	8,7	10,1	9,9	1	1	1	1	1	1	1	1	1	0	1	-13,460183	275,625587	313,775899	0
15.01.2021	14:26:13	0	63,139926	4,325338	3,0015	332,37	1,07	84,724	0	1015,34	8,7	10,1	9,9	1	1	1	1	1	1	1	1	1	0	1	-17,547569	275,657908	309,842035	0
15.01.2021	14:26:14	0	63,139864	2,959461	2,96175	310,7844	1,074	84,716	0	1015,2	8,7	10,1	9,8	1	1	1	1	1	1	1	1	1	0	1	-13,883016	275,546625	312,97824	0
15.01.2021	14:26:15	0	62,672099	3,52859	3,12675	324,738	1,067	84,719	0	1015,24	8,7	10,1	9,8	1	1	1	1	1	1	1	1	1	0	1	-14,65821	275,52573	312,103911	0
15.01.2021	14:26:16	0	62,788962	4,325344	3,10575	322,56	1,071	84,743	0	1015,32	8,7	10,1	9,9	1	1	1	1	1	1	1	1	1	0	1	-16,208598	275,688664	311,327139	0
15.01.2021	14:26:17	0	62,905826	4,211521	3,2385	316,584	1,071	84,72	0	1015,3	8,7	10,1	9,9	1	1	1	1	1	1	1	1	1	0	1	-14,869626	275,644973	312,458531	0
15.01.2021	14:26:18	0	62,671913	2,504149	3,3345	318,15	1,082	84,807	0	1015,3	8,7	10,1	9,9	1	1	1	1	1	1	1	1	1	0	1	-16,701903	275,524124	310,052598	0
15.01.2021	14:26:19	0	62,789216	3,6424	3,552	315,9216	1,074	84,766	0	1015,28	8,7	10,2	9,9	1	1	1	1	1	1	1	1	1	0	1	-15,221987	275,492024	311,380266	0
15.01.2021	14:26:20	0	62,788714	3,414731	3,68775	315,1476	1,076	84,761	0	1015,3	8,7	10,1	10	1	1	1	1	1	1	1	1	1	0	1	-12,755462	275,546625	314,105794	0
15.01.2021	14:26:21	0	63,022502	3,983879	3,78	314,7588	1,069	84,77	0	1015,3	8,7	10,1	9,9	1	1	1	1	1	1	1	1	1	0	1	-17,054264	275,52573	309,707858	0
15.01.2021	14:26:22	0	62,78859	3,870056	3,69375	311,7924	1,075	84,782	0	1015,12	8,7	10,1	9,9	1	1	1	1	1	1	1	1	1	0	1	-18,534179	275,48561	308,037661	0
15.01.2021	14:26:23	0	62,905893	3,187106	3,7455	312,8112	1,08	84,779	0	1015,26	8,7	10,2	9,9	1	1	1	1	1	1	1	1	1	0	1	-14,728682	275,548234	312,140205	0
15.01.2021	14:26:24	0	62,555054	3,642431	3,5175	307,1304	1,077	84,777	0	1015,12	8,7	10,2	9,8	1	1	1	1	1	1	1	1	1	0	1	-17,618041	275,653057	309,748515	0
15.01.2021	14:26:25	0	62,905328	3,870061	3,32625	315,162	1,08	84,785	0	1015,44	8,7	10,1	9,9	1	1	1	1	1	1	1	1	1	0	1	-11,486963	275,528943	315,290402	0
15.01.2021	14:26:26	0	62,905265	3,187111	3,15525	313,5924	1,077	84,782	0	1015,42	8,7	10,1	9,9	1	1	1	1	1	1	1	1	1	0	1	-14,517266	275,640125	312,787863	0
15.01.2021	14:26:27	0	62,788279	3,756239	3,11175	304,2504	1,076	84,781	0	1015,28	8,7	10,1	9,9	1	1	1	1	1	1	1	1	1	0	1	-14,446794	275,685424	313,073548	0
15.01.2021	14:26:28	0	63,022065	5,008322	3,06825	299,4264	1,072	84,777	0	1015,28	8,7	10,1	9,9	1	1	1	1	1	1	1	1	1	0	1	-13,248767	275,588483	313,811146	0
15.01.2021	14:26:29	0	62,320459	2,504147	2,98575	298,314	1,074	84,785	0	1015,32	8,7	10,1	10	1	1	1	1	1	1	1	1	1	0	1	-14,65821	275,506462	312,012517	0
15.01.2021	14:26:30	0	62,554245	4,439172	2,93325	302,058	1,079	84,793	0	1015,34	8,7	10,1	10	1	1	1	1	1	1	1	1	1	0	1	-18,181818	275,656291	309,200102	0
15.01.2021	14:26:31	0	62,437259	2,162687	2,901	306,468	1,073	84,783	0	1015,28	8,7	10,1	9,9	1	1	1	1	1	1	1	1	1	0	1	-13,03735	275,653057	314,329205	0
15.01.2021	14:26:32	0	62,32071	3,073276	2,883	314,1216	1,068	84,798	0	1015,28	8,7	10,2	10	1	1	1	1	1	1	1	1	1	0	1	-12,473573	275,533764	314,326662	0
15.01.2021	14:26:33	0	62,320212	4,666884	2,93175	306,6408	1,079	84,805	0	1015,18	8,7	10,1	9,8	1	1	1	1	1	1	1	1	1	0	1	-13,812544	275,662761	313,600115	0
15.01.2021	14:26:34	0	62,787843	2,959471	2,96925	311,3892	1,07	84,805	0	1015,24	8,7	10,1	9,9	1	1	1	1	1	1	1	1	1	0	1	-13,6716	275,548234	313,197287	0
15.01.2021	14:26:35	0	62,437011	3,642428	3,0135	297,9036	1,074	84,81	0	1015,32	8,7	10,1	9,9	1	1	1	1	1	1	1	1	1	0	1	-13,883016	275,48561	312,688824	0
15.01.2021	14:26:36	0	62,436949	3,642452	3,003	301,554	1,077	84,806	0	1015,22	8,7	10,1	9,8	1	1	1	1	1	1	1	1	1	0	1	-16,27907	275,504857	310,384046	0
15.01.2021	14:26:37	0	62,436887	4,894547	2,994	303,5088	1,077	84,805	0	1015,34	8,7	10,1	9,8	1	1	1	1	1	1	1	1	1	0	1	-11,275546	275,641741	316,037258	0
15.01.2021	14:26:38	0	62,787594	2,845668	2,862	296,4924	1,078	84,802	0	1015,26	8,7	10,1	9,8	1	1	1	1	1	1	1	1	1	0	1	-16,983791	275,628816	310,267629	0
15.01.2021	14:26:39	0	62,319841	2,845669	2,862	312,4836	1,075	84,809	0	1015,24	8,7	10,1	9,8	1	1	1	1	1	1	1	1	1	0	1	-14,376321	275,49844	312,256357	0
15.01.2021	14:26:40	0	62,904392	4,780727	2,8965	315,5112	1,077	84,8	0	1015,3	8,7	10,1	9,8	1	1	1	1	1	1	1	1	1	0	1	-14,305849	275,55145	312,578302	0
15.01.2021	14:26:41	0	62,553562	5,008383	2,718	296,1216	1,07	84,808	0	1015,38	8,7	10,1	9,8	1	1	1	1	1	1	1	1	1	0	1	-20,436927	275,662761	306,975731	0
15.01.2021	14:26:42	0	62,904267	4,894558	2,586	313,2324	1,073	84,784	0	1015,38	8,7	10,1	9,8	1	1	1	1	1	1	1	1	1	0	1	-14,587738	275,533764	312,212497	0
15.01.2021	14:26:43	0	62,67036	3,187118	2,4975	305,4852	1,068	84,79	0	1015,3	8,7	10,1	10	1	1	1	1	1	1	1	1	1	0	1	-16,560958	275,656291	310,820962	0
15.01.2021	14:26:44	0	62,670298	4,780736	2,415	310,3272	1,068	84,777	0	1015,26	8,7	10,1	9,8	1	1	1	1	1	1	1	1	1	0	1	-14,65821	275,479199	311,88323	0
15.01.2021	14:26:45	0	62,553314	4,553084	2,3295	293,238	1,072	84,789	0	1015,44	8,7	10,1	9,8	1	1	1	1	1	1	1	1	1	0	1	-13,953488	275,622357	313,267258	0
15.01.2021	14:26:46	0	62,319408	2,845679	2,301	305,0748	1,07	84,803	0	1015,3	8,7	10,1	9,8	1	1	1	1	1	1	1	1	1	0	1	-12,896406	275,487213	313,683037	0
15.01.2021	14:26:47	0	62,670111	2,959507	2,3115	315,0972	1,073	84,772	0	1015,36	8,7	10,1	9,8	1	1	1	1	1	1	1	1	1	0	1	-18,745595	275,524124	308,008905	0
15.01.2021	14:26:48	0	62,319284	3,300991	2,1555	296,3556	1,067	84,785	0	1015,32	8,7	10,1	9,8	1	1	1	1	1	1	1	1	1	0	1	-12,473573	275,474391	314,045074	0
15.01.2021	14:26:49	0	62,553065	4,439265	2,307	320,7276	1,072	84,782	0	1015,28	8,7	10,1	9,8	1	1	1	1	1	1	1	1	1	0	1	-14,799154	275,55145	312,084997	0
15.01.2021	14:26:50	0	62,085752	3,073339	2,403	309,924	1,076	84,784	0	1015,5	8,7	10,2	9,8	1	1	1	1	1	1	1	1	1	0	1	-12,896406	275,65144	314,462469	0
15.01.2021	14:26:51	0	62,552941	3,756283	2,5425	304,686	1,072	84,773	0	1015,26	8,7	10,1	9,9	1	1	1	1	1	1	1	1	1	0	1	-20,5074	275,599768	306,606087	0
15.01.2021	14:26:52	0	62,670239	4,09774	2,7165	317,7396	1,075	84,784	0	1015,36	8,7	10,2	10	1	1	1	1	1	1	1	1	1	0	1	-16,983791	275,493628	309,626067	0
15.01.2021	14:26:53	0	62,202053	2,845688	2,76	316,3284	1,073	84,76	0	1015,28	8,7	10,1	9,8	1	1	1	1	1	1	1	1	1	0	1	-13,460183	275,528943	313,317181	0
15.01.2021	14:26:54	0	62,435833	3,073345	2,74425	315,216	1,065	84,769	0	1015,28	8,7	10,1	9,8	1	1	1	1	1	1	1	1	1	0	1	-16,701903	275,622357	310,518844	0
15.01.2021	14:26:55	0	62,31885	2,618036	2,733	317,7288	1,072	84,788	0	1015,38	8,7	10,1	9,8	1	1	1	1	1	1	1	1	1	0	1	-16,067653	275,464781	310,405429	0
15.01.2021	14:26:56	0	62,435709	3,301003	2,82975	322,5168	1,066	84,772	0	1015,22	8,7	10,1	9,8	1	1	1	1	1	1	1	1	1	0	1	-12,684989	275,545017	314,168636	0
15.01.2021	14:26:57	0	62,084885	3,983971	2,8785	320,3964	1,073	84,767	0	1015,3	8,7	10,1	9,8	1	1	1	1	1	1	1	1	1	0	1	-13,178295	275,479199	313,363145	0
15.01.2021	14:26:58	0	62,084823	2,162728	2,90775	308,8152	1,068	84,76	0	1015,36	8,7	10,1	9,8	1	1	1	1	1	1	1	1	1	0	1	-12,614517	275,532157	314,178093	0
15.01.2021	14:26:59	0	62,552881	4,325459	2,87175	321,3576	1,07	84,747	0	1015,28	8,7	10,2	9,8	1	1	1	1	1	1	1	1	1	0	1	-11,275546	275,475994	315,250698	0
15.01.2021	14:27:00	0	62,201558	3,642495	2,74425	324,0468	1,071	84,72	0	1015,32	8,7	10,1	9,8	1	1	1	1	1	1	1	1	1	0	1	-16,208598	275,546625	310,652658	0
15.01.2021	14:27:01	0	62,201558	3,642495	2,74425	324,0468	1,071	84,72	0	1015,32	8,7	10,1	9,8	1	1	1	1	1	1	1	1	1	0	1	-15,433404	275,472789	311,077647	0
15.01.2021	14:27:02	0	62,318853	4,894605	2,74725	324,7956	1,064	84,705	0	1015,3	8,7	10,2	9,8	1	1	1	1	1	1	1	1	1	0	1	-13,460183	275,630432	313,798907	0
15.01.2021	14:27:03	0	61,968028	2,731874	2,78925	330,4368	1,065	84,684	0	1015,32	8,7	10,2	9,8	1	1	1	1	1	1	1	1	1	0	1	-13,03735	275,649823	314,313844	0
15.01.2021	14:27:04	0	62,084452	4,439297	2,727	331,452	1,063	84,667	0	1015,14	8,7	10,1	9,8	1	1	1	1	1	1	1	1	1	0	1	-14,023961	275,516094	312,69245	0
15.01.2021	14:27:05	0	61,967905	2,731877	2,70675	325,152	1,067	84,662	0	1015,36	8,7	10,2	9,8	1	1	1	1	1	1	1	1	1	0	1	-14,517266	275,480801	312,031773	0
15.01.2021	14:27:06	0	62,318605	3,073363	2,7375	327,834	1,069	84,654	0	1015,38	8,6	10,2	9,8	1	1	1	1	1	1	1	1	1	0	1	-11,41649	275,598156	315,68934	0
15.01.2021	14:27:07	0	62,084702	2,731879	2,7225	330,3504	1,064	84,634	0	1015,34	8,7	10,2	9,8	1	1	1	1	1	1	1	1	1	0	1	-14,376321	275,477596	312,15752	0
15.01.2021	14:27:08	0	62,318044	5,122276	2,7075	330,4116	1,061	84,61	0	1015,26	8,7	10,1	9,8	1	1	1	1	1	1	1	1	1	0	1	-15,926709	275,565933	311,02617	0
15.01.2021	14:27:09	0	62,084578	3,756338	2,7225	328,86	1,059	84,619	0	1015,3	8,7	10,2	9,8	1	1	1	1	1	1	1	1	1	0	1	-13,530655	275,472789	312,980396	0
15.01.2021	14:27:10	0	62,201436	3,301026	2,60475	320,8176	1,061	84,601	0	1015,4	8,7	10,2	9,8	1	1	1	1	1	1	1	1	1	0	1	-15,503876	275,599768	311,609611	0
15.01.2021	14:27:11	0	61,850615	2,390399	2,445	305,7192	1,058	84,599	0	1015,28	8,7	10,2	9,8	1	1	1	1	1	1	1	1	1	0	1	-11,486963	275,463179	314,978528	0
15.01.2021	14:27:12	0	62,084392	3,870172	2,406	320,4	1,062	84,594	0	1015,3	8,7	10,2	9,8	1	1	1	1	1	1	1	1	1	0	1	-15,292459	275,580427	311,72921	0
15.01.2021	14:27:13	0	61,733572	2,618059	2,40525	303,5088	1,062	84,569	0	1015,24	8,7	10,2	9,8	1	1	1	1	1	1	1	1	1	0	1	-15,292459	275,638509	312,004994	0
15.01.2021	14:27:14	0	62,318108	4,553147	2,379	308,7684	1,059	84,569	0	1015,38	8,7	10,2	9,8	1	1	1	1	1	1	1	1	1	0	1	-17,758985	275,609446	309,400451	0
15.01.2021	14:27:15	0	62,201126	2,959547	2,29875	302,7636	1,046	84,571	0	1015,1	8,7	10,2	9,8	1	1	1	1	1	1	1	1	1	0	1	-13,812544	275,511277	312,881021	0
15.01.2021	14:27:16	0	62,201064	3,301035	2,34825	301,5936	1,049	84,574	0	1015,32	8,7	10,2	9,8	1	1	1	1	1	1	1	1	1	0	1	-10,711769	275,475994	315,814475	0
15.01.2021	14:27:17	0	62,201002	4,553154	2,45175	320,6916	1,052	84,575	0	1015,36	8,7	10,2	9,8	1	1	1	1	1	1	1	1	1	0	1	-14,235377	275,643357	313,085104	0
15.01.2021	14:27:18	0	62,20094	4,097841	2,46375	306,3276	1,058	84,569	0	1015,26	8,7	10,2	9,8	1	1	1	1	1	1	1	1	1	0	1	-19,802678	275,625587	307,433404	0
15.01.2021	14:27:19	0	62,083959	4,439329	2,39475	305,3196	1,051	84,58	0	1015,28	8,7	10,2	9,8	1	1	1	1	1	1	1	1	1	0	1	-16,560958	275,482404	309,99568	0
15.01.2021	14:27:20	0	62,083897	3,870186	2,394	315,18	1,054	84,573	0	1015,36	8,7	10,2	9,8	1	1	1	1	1	1	1	1	1	0	1	-11,486963	275,501648	315,160933	0
15.01.2021	14:27:21	0	61,849998	3,984017	2,4465	311,7276	1,049	84,565	0	1015,34	8,7	10,2	9,8	1	1	1	1	1	1	1	1	1	0	1	-14,517266	275,604606	312,619192	0
15.01.2021	14:27:22	0	61,96642	3,87019	2,56275	316,674	1,056	84,575	0	1015,12	8,7	10,1	9,8	1	1	1	1	1	1	1	1	1	0	1	-14,869626	275,61106	312,297471	0
15.01.2021	14:27:23	0	61,732956	3,073388	2,57475	315,2556	1,051	84,573	0	1015,38	8,7	10,2	9,8	1	1	1	1	1	1	1	1	1	0	1	-15,221987	275,638509	312,075466	0
15.01.2021	14:27:24	0	61,849379	2,731902	2,55675	309,492	1,045	84,556	0	1015,24	8,6	10,1	9,8	1	1	1	1	1	1	1	1	1	0	1	-14,940099	275,495231	311,677366	0
15.01.2021	14:27:25	0	61,849751	2,845732	2,5005	305,3448	1,045	84,566	0	1015,34	8,6	10,2	9,8	1	1	1	1	1	1	1	1	1	0	1	-18,181818	275,638509	309,115635	0
15.01.2021	14:27:26	0	61,849689	3,756368	2,655	299,7612	1,05	84,57	0	1015,38	8,6	10,2	9,8	1	1	1	1	1	1	1	1	1	0	1	-7,610994	275,649823	319,740201	0
15.01.2021	14:27:27	0	61,849194	4,894664	2,78475	310,2084	1,04	84,571	0	1015,3	8,7	10,1	9,8	1	1	1	1	1	1	1	1	1	0	1	-13,883016	275,554668	313,016403	0
15.01.2021	14:27:28	0	61,381894	2,504248	2,80425	306,4464	1,049	84,59	0	1015,32	8,7	10,2	9,8	1	1	1	1	1	1	1	1	1	0	1	-14,305849	275,638509	312,991604	0
15.01.2021	14:27:29	0	61,849504	3,528715	2,7495	312,1416	1,042	84,585	0	1015,28	8,7	10,2	9,8	1	1	1	1	1	1	1	1	1	0	1	-13,389711	275,577205	313,616666	0
15.01.2021	14:27:30	0	61,966359	3,528716	2,6505	309,5388	1,042	84,596	0	1015,34	8,7	10,2	9,8	1	1	1	1	1	1	1	1	1	0	1	-13,248767	275,635278	314,033339	0
15.01.2021	14:27:31	0	62,083215	3,642548	2,6445	310,6044	1,039	84,585	0	1015,28	8,7	10,2	9,8	1	1	1	1	1	1	1	1	1	0	1	-16,208598	275,598156	310,897233	0
15.01.2021	14:27:32	0	61,732401	4,439357	2,62575	311,3928	1,042	84,583	0	1015,24	8,6	10,2	9,8	1	1	1	1	1	1	1	1	1	0	1	-14,728682	275,580427	312,292987	0
15.01.2021	14:27:33	0	61,615422	3,870211	2,60025	305,6976	1,043	84,612	0	1015,34	8,6	10,2	9,8	1	1	1	1	1	1	1	1	1	0	1	-10,218464	275,456775	316,216669	0
15.01.2021	14:27:34	0	62,083029	4,097872	2,46975	294,408	1,041	84,61	0	1015,32	8,7	10,2	9,8	1	1	1	1	1	1	1	1	1	0	1	-17,618041	275,582038	309,411276	0
15.01.2021	14:27:35	0	61,497951	2,618086	2,4555	292,986	1,042	84,62	0	1015,32	8,6	10,1	9,8	1	1	1	1	1	1	1	1	1	0	1	-13,248767	275,456775	313,186366	0
15.01.2021	14:27:36	0	61,732154	4,780855	2,478	289,5588	1,043	84,631	0	1015,22	8,6	10,2	9,8	1	1	1	1	1	1	1	1	1	0	1	-11,839323	275,594931	315,251198	0
15.01.2021	14:27:37	0	61,965926	4,667028	2,52225	293,4252	1,044	84,642	0	1015,34	8,6	10,2	9,8	1	1	1	1	1	1	1	1	1	0	1	-11,346018	275,635278	315,936088	0
15.01.2021	14:27:38	0	61,96543	4,09788	2,4975	311,3676	1,044	84,619	0	1015,26	8,6	10,1	9,8	1	1	1	1	1	1	1	1	1	0	1	-14,65821	275,500044	311,982077	0
15.01.2021	14:27:39	0	61,965802	4,780862	2,43675	296,1	1,036	84,636	0	1015,36	8,7	10,2	9,8	1	1	1	1	1	1	1	1	1	0	1	-13,883016	275,472789	312,628035	0
15.01.2021	14:27:40	0	61,848823	4,553204	2,36475	300,8988	1,043	84,649	0	1015,26	8,7	10,2	9,8	1	1	1	1	1	1	1	1	1	0	1	-12,05074	275,638509	315,246714	0
15.01.2021	14:27:41	0	61,848761	2,845754	2,316	309,3516	1,04	84,655	0	1015,22	8,7	10,2	9,8	1	1	1	1	1	1	1	1	1	0	1	-15,010571	275,58526	312,034043	0
15.01.2021	14:27:42	0	61,380604	2,276604	2,334	301,572	1,041	84,659	0	1015,28	8,7	10,1	9,8	1	1	1	1	1	1	1	1	1	0	1	-15,081043	275,636893	312,208736	0
15.01.2021	14:27:43	0	61,848637	3,414908	2,2125	296,0424	1,04	84,661	0	1015,3	8,6	10,2	9,8	1	1	1	1	1	1	1	1	1	0	1	-15,433404	275,569153	311,534757	0
15.01.2021	14:27:44	0	61,73166	3,30108	2,1825	294,4152	1,041	84,647	0	1015,44	8,7	10,2	9,8	1	1	1	1	1	1	1	1	1	0	1	-13,178295	275,615901	314,011791	0
15.01.2021	14:27:45	0	61,848514	4,097894	2,205	288,7812	1,034	84,659	0	1015,34	8,6	10,2	9,8	1	1	1	1	1	1	1	1	1	0	1	-13,953488	275,516094	312,762922	0
15.01.2021	14:27:46	0	61,731103	4,439387	2,11725	282,5244	1,039	84,667	0	1015,46	8,6	10,1	9,8	1	1	1	1	1	1	1	1	1	0	1	-12,332629	275,445573	314,049406	0
15.01.2021	14:27:47	0	61,731042	4,55322	1,96425	285,8832	1,04	84,672	0	1015,36	8,6	10,1	9,8	1	1	1	1	1	1	1	1	1	0	1	-11,839323	275,538586	314,983788	0
15.01.2021	14:27:48	0	62,082159	4,894714	1,857	283,4964	1,038	84,657	0	1015,32	8,6	10,2	9,8	1	1	1	1	1	1	1	1	1	0	1	-12,191684	275,635278	315,090422	0
15.01.2021	14:27:49	0	61,847833	2,504273	1,7835	282,2004	1,037	84,645	0	1015,28	8,6	10,1	9,8	1	1	1	1	1	1	1	1	1	0	1	-11,205074	275,500044	315,435213	0
15.01.2021	14:27:50	0	61,263627	2,390444	1,67475	299,4768	1,036	84,664	0	1015,38	8,6	10,2	9,8	1	1	1	1	1	1	1	1	1	0	1	-8,879493	275,429581	317,426753	0
15.01.2021	14:27:51	0	61,614311	2,618106	1,689	279,9036	1,036	84,683	0	1015,32	8,6	10,2	9,8	1	1	1	1	1	1	1	1	1	0	1	-14,023961	275,546625	312,837295	0
15.01.2021	14:27:52	0	61,61425	4,4394	1,674	291,2184	1,035	84,665	0	1015,16	8,6	10,2	9,8	1	1	1	1	1	1	1	1	1	0	1	-13,812544	275,643357	313,507937	0
15.01.2021	14:27:53	0	61,73067	4,553233	1,6665	289,2348	1,03	84,671	0	1015,3	8,6	10,1	9,8	1	1	1	1	1	1	1	1	1	0	1	-14,235377	275,612673	312,939382	0
15.01.2021	14:27:54	0	61,49678	3,756419	1,67775	294,4296	1,035	84,689	0	1015,28	8,7	10,1	9,8	1	1	1	1	1	1	1	1	1	0	1	-12,896406	275,643357	314,424075	0
15.01.2021	14:27:55	0	61,847894	3,984083	1,6095	279,8172	1,029	84,672	0	1015,16	8,6	10,2	9,8	1	1	1	1	1	1	1	1	1	0	1	-10,852713	275,52573	315,909408	0
15.01.2021	14:27:56	0	61,146344	3,187268	1,626	290,0088	1,038	84,673	0	1015,28	8,6	10,2	9,8	1	1	1	1	1	1	1	1	1	0	1	-13,460183	275,439175	312,891527	0
15.01.2021	14:27:57	0	61,379682	2,504283	1,68675	286,6176	1,032	84,693	0	1015,32	8,6	10,1	9,8	1	1	1	1	1	1	1	1	1	0	1	-10,782241	275,553059	316,109544	0
15.01.2021	14:27:58	0	61,496965	2,504284	1,66275	297,4896	1,038	84,69	0	1015,28	8,6	10,2	9,8	1	1	1	1	1	1	1	1	1	0	1	-18,040874	275,432778	308,280523	0
15.01.2021	14:27:59	0	61,379989	2,845779	1,569	296,4744	1,034	84,698	0	1015,38	8,6	10,2	9,8	1	1	1	1	1	1	1	1	1	0	1	-14,376321	275,561104	312,553642	0
15.01.2021	14:28:00	0	61,730175	3,528769	1,43325	285,2208	1,036	84,709	0	1015,44	8,6	10,1	9,8	1	1	1	1	1	1	1	1	1	0	1	-9,725159	275,602994	317,403642	0
15.01.2021	14:28:01	0	61,730175	3,528769	1,43325	285,2208	1,036	84,709	0	1015,44	8,6	10,1	9,8	1	1	1	1	1	1	1	1	1	0	1	-16,420014	275,442374	309,946857	0
15.01.2021	14:28:02	0	61,730113	3,870265	1,5285	297,2628	1,028	84,7	0	1015,24	8,6	10,1	9,8	1	1	1	1	1	1	1	1	1	0	1	-11,275546	275,458376	315,167175	0
15.01.2021	14:28:03	0	61,730051	4,09793	1,70775	288,7704	1,036	84,709	0	1015,18	8,6	10,1	9,8	1	1	1	1	1	1	1	1	1	0	1	-16,560958	275,575594	310,437774	0
15.01.2021	14:28:04	0	61,613076	4,439426	1,77825	302,1012	1,035	84,714	0	1015,38	8,6	10,1	9,8	1	1	1	1	1	1	1	1	1	0	1	-16,772375	275,617515	310,425375	0
15.01.2021	14:28:05	0	61,84684	4,097934	1,70175	287,3772	1,032	84,72	0	1015,3	8,6	10,1	9,8	1	1	1	1	1	1	1	1	1	0	1	-11,839323	275,503253	314,816182	0
15.01.2021	14:28:06	0	61,262215	4,325599	1,59225	283,2372	1,034	84,734	0	1015,2	8,6	10,1	9,8	1	1	1	1	1	1	1	1	1	0	1	-9,231853	275,455174	317,195692	0
15.01.2021	14:28:07	0	61,495978	4,325601	1,52325	291,1824	1,036	84,738	0	1015,32	8,6	10,1	9,8	1	1	1	1	1	1	1	1	1	0	1	-8,949965	275,625587	318,286117	0
15.01.2021	14:28:08	0	61,262092	2,73196	1,473	292,1904	1,03	84,737	0	1015,46	8,6	10,1	9,8	1	1	1	1	1	1	1	1	1	0	1	-15,151515	275,48561	311,420325	0
15.01.2021	14:28:09	0	61,379372	3,642615	1,44225	311,382	1,031	84,712	0	1015,4	8,6	10,2	9,8	1	1	1	1	1	1	1	1	1	0	1	-14,517266	275,628816	312,734154	0
15.01.2021	14:28:10	0	61,378881	3,756448	1,44675	313,6032	1,033	84,757	0	1015,3	8,6	10,1	9,8	1	1	1	1	1	1	1	1	1	0	1	-9,795631	275,49844	316,837048	0
15.01.2021	14:28:11	0	61,729555	3,528786	1,5225	309,7044	1,03	84,749	0	1015,3	8,7	10,1	9,8	1	1	1	1	1	1	1	1	1	0	1	-12,05074	275,614287	315,131682	0
15.01.2021	14:28:12	0	61,379187	4,439443	1,6155	314,4348	1,033	84,751	0	1015,38	8,6	10,2	9,8	1	1	1	1	1	1	1	1	1	0	1	-12,966878	275,484007	313,597361	0
15.01.2021	14:28:13	0	61,495607	4,667109	1,671	316,2564	1,036	84,752	0	1015,38	8,6	10,1	9,8	1	1	1	1	1	1	1	1	1	0	1	-14,376321	275,432778	311,945076	0
15.01.2021	14:28:14	0	61,84628	4,439447	1,6425	313,5816	1,036	84,756	0	1015,28	8,6	10,1	9,8	1	1	1	1	1	1	1	1	1	0	1	-13,460183	275,548234	313,408704	0
15.01.2021	14:28:15	0	61,26166	3,073465	1,60875	315,5472	1,029	84,762	0	1015,3	8,7	10,1	9,8	1	1	1	1	1	1	1	1	1	0	1	-13,953488	275,445573	312,428546	0
15.01.2021	14:28:16	0	61,37851	2,959634	1,593	310,2804	1,03	84,767	0	1015,4	8,6	10,1	9,8	1	1	1	1	1	1	1	1	1	0	1	-12,544045	275,541801	314,294322	0
15.01.2021	14:28:17	0	61,49536	3,756461	1,6815	306,9036	1,049	84,775	0	1015,54	8,6	10,1	9,8	1	1	1	1	1	1	1	1	1	0	1	-14,235377	275,632047	313,031384	0
15.01.2021	14:28:18	0	61,495298	4,667092	1,8915	311,4432	1,035	84,784	0	1015,34	8,6	10,1	9,9	1	1	1	1	1	1	1	1	1	0	1	-15,081043	275,580427	311,940627	0
15.01.2021	14:28:19	0	61,261414	4,780955	1,99275	290,4012	1,035	84,796	0	1015,36	8,7	10,1	9,8	1	1	1	1	1	1	1	1	1	0	1	-12,825934	275,632047	314,440828	0
15.01.2021	14:28:20	0	61,728996	3,528802	2,07525	291,8376	1,034	84,787	0	1015,38	8,6	10,1	9,8	1	1	1	1	1	1	1	1	1	0	1	-14,587738	275,503253	312,067768	0
15.01.2021	14:28:21	0	61,378202	5,008624	2,04225	290,0664	1,031	84,79	0	1015,34	8,6	10,1	9,8	1	1	1	1	1	1	1	1	1	0	1	-14,235377	275,607833	312,916399	0
15.01.2021	14:28:22	0	61,37814	4,2118	2,07225	303,5124	1,033	84,793	0	1015,44	8,6	10,1	9,8	1	1	1	1	1	1	1	1	1	0	1	-13,953488	275,567543	313,007031	0
15.01.2021	14:28:23	0	61,261167	3,642639	2,1405	301,23	1,034	84,797	0	1015,08	8,7	10,1	9,8	1	1	1	1	1	1	1	1	1	0	1	-18,816068	275,614287	308,366354	0
15.01.2021	14:28:24	0	61,378016	2,048973	2,304	294,7824	1,028	84,801	0	1015,24	8,6	10,1	9,9	1	1	1	1	1	1	1	1	1	0	1	-13,530655	275,538586	313,292456	0
15.01.2021	14:28:25	0	61,261044	3,52881	2,4135	292,1688	1,032	84,809	0	1015,32	8,7	10,1	9,8	1	1	1	1	1	1	1	1	1	0	1	-16,420014	275,423188	309,855936	0
15.01.2021	14:28:26	0	61,377893	3,756455	2,433	300,5316	1,03	84,818	0	1015,12	8,6	10,1	9,9	1	1	1	1	1	1	1	1	1	0	1	-12,05074	275,458376	314,391981	0
15.01.2021	14:28:27	0	61,14401	4,21181	2,3115	294,4224	1,03	84,83	0	1015,3	8,7	10,1	9,8	1	1	1	1	1	1	1	1	1	0	1	-18,816068	275,562714	308,121533	0
15.01.2021	14:28:28	0	61,260859	4,894838	2,2485	298,3248	1,029	84,821	0	1015,42	8,6	10,1	9,7	1	1	1	1	1	1	1	1	1	0	1	-15,856237	275,604606	311,280221	0
15.01.2021	14:28:29	0	61,728437	4,667145	2,21175	304,668	1,029	84,817	0	1015,32	8,7	10,1	9,8	1	1	1	1	1	1	1	1	1	0	1	-12,262156	275,535371	314,545703	0
15.01.2021	14:28:30	0	61,026916	2,276657	2,19975	297,9252	1,029	84,823	0	1015,32	8,6	10,1	9,8	1	1	1	1	1	1	1	1	1	0	1	-16,701903	275,609446	310,457534	0
15.01.2021	14:28:31	0	61,143764	2,959656	2,154	300,1212	1,031	84,835	0	1015,38	8,7	10,1	9,8	1	1	1	1	1	1	1	1	1	0	1	-12,332629	275,472789	314,178422	0
15.01.2021	14:28:32	0	60,792974	2,504325	2,07825	299,0052	1,03	84,83	0	1015,38	8,7	10,1	9,8	1	1	1	1	1	1	1	1	1	0	1	-17,618041	275,472789	308,89301	0
15.01.2021	14:28:33	0	61,26055	2,390479	2,0115	295,5636	1,03	84,84	0	1015,36	8,6	10,1	9,9	1	1	1	1	1	1	1	1	1	0	1	-15,362932	275,472789	311,148119	0
15.01.2021	14:28:34	0	61,260488	4,894823	2,01075	296,118	1,028	84,842	0	1015,26	8,7	10,1	9,8	1	1	1	1	1	1	1	1	1	0	1	-14,65821	275,601381	312,462933	0
15.01.2021	14:28:35	0	61,494245	4,439493	2,04075	296,4888	1,034	84,832	0	1015,44	8,7	10,1	9,8	1	1	1	1	1	1	1	1	1	0	1	-14,094433	275,593319	312,988436	0
15.01.2021	14:28:36	0	61,026547	2,84583	2,11875	299,0304	1,032	84,833	0	1015,3	8,7	10,1	9,8	1	1	1	1	1	1	1	1	1	0	1	-11,41649	275,543409	315,429505	0
15.01.2021	14:28:37	0	61,260303	3,073498	2,1525	294,7968	1,033	84,866	0	1015,38	8,7	10,1	9,8	1	1	1	1	1	1	1	1	1	0	1	-10,147992	275,61106	317,019106	0
15.01.2021	14:28:38	0	61,494059	4,553305	2,15025	301,2408	1,022	84,832	0	1015,28	8,7	10,1	9,9	1	1	1	1	1	1	1	1	1	0	1	-14,023961	275,5177	312,700066	0
15.01.2021	14:28:39	0	61,143271	2,618152	2,20275	296,4492	1,029	84,863	0	1015,34	8,7	10,1	9,9	1	1	1	1	1	1	1	1	1	0	1	-12,614517	275,458376	313,828204	0
15.01.2021	14:28:40	0	61,260118	4,667142	2,19375	298,6632	1,029	84,867	0	1015,32	8,7	10,1	9,9	1	1	1	1	1	1	1	1	1	0	1	-13,530655	275,578816	313,483368	0
15.01.2021	14:28:41	0	61,260056	3,528838	2,121	295,6032	1,025	84,854	0	1015,36	8,6	10,1	9,8	1	1	1	1	1	1	1	1	1	0	1	-14,517266	275,580427	312,504404	0
15.01.2021	14:28:42	0	61,143085	3,984174	2,2905	298,7064	1,029	84,858	0	1015,18	8,7	10,1	9,8	1	1	1	1	1	1	1	1	1	0	1	-8,80902	275,549842	318,067498	0
15.01.2021	14:28:43	0	60,792299	2,845823	2,4195	296,856	1,025	84,855	0	1015,4	8,7	10,1	9,9	1	1	1	1	1	1	1	1	1	0	1	-10,570825	275,609446	316,588612	0
15.01.2021	14:28:44	0	61,026054	3,642655	2,45625	289,098	1,032	84,857	0	1015,34	8,7	10,1	9,9	1	1	1	1	1	1	1	1	1	0	1	-11,134602	275,480801	315,414437	0
15.01.2021	14:28:45	0	61,376716	4,66721	2,337	291,8988	1,024	84,85	0	1015,2	8,7	10,1	9,7	1	1	1	1	1	1	1	1	1	0	1	-12,755462	275,570763	314,220341	0
15.01.2021	14:28:46	0	61,259746	4,553323	2,3055	305,7444	1,031	84,862	0	1015,4	8,7	10,1	9,9	1	1	1	1	1	1	1	1	1	0	1	-14,799154	275,469585	311,696707	0
15.01.2021	14:28:47	0	61,025869	3,187327	2,3085	304,2648	1,02	84,865	0	1015,32	8,7	10,1	9,9	1	1	1	1	1	1	1	1	1	0	1	-7,963354	275,466382	318,51732	0
15.01.2021	14:28:48	0	61,259623	4,439521	2,295	306,4428	1,043	84,881	0	1015,44	8,7	10,1	9,8	1	1	1	1	1	1	1	1	1	0	1	-11,134602	275,474391	315,384045	0
15.01.2021	14:28:49	0	61,025746	3,870353	2,14125	299,7144	1,027	84,876	0	1015,26	8,7	10,1	9,8	1	1	1	1	1	1	1	1	1	0	1	-10,218464	275,443973	316,155989	0
15.01.2021	14:28:50	0	61,025684	2,618181	2,04225	302,4432	1,028	84,876	0	1015,36	8,7	10,1	9,8	1	1	1	1	1	1	1	1	1	0	1	-13,812544	275,601381	313,308599	0
15.01.2021	14:28:51	0	61,376344	4,553361	2,16375	302,8284	1,022	84,87	0	1015,3	8,7	10,1	9,8	1	1	1	1	1	1	1	1	1	0	1	-16,349542	275,570763	310,626261	0
15.01.2021	14:28:52	0	61,259375	3,073502	2,29425	300,0888	1,028	84,848	0	1015,28	8,7	10,1	9,9	1	1	1	1	1	1	1	1	1	0	1	-15,433404	275,487213	311,146039	0
15.01.2021	14:28:53	0	60,908592	2,959688	2,36925	304,2432	1,026	84,85	0	1015,26	8,7	10,1	9,8	1	1	1	1	1	1	1	1	1	0	1	-14,587738	275,432778	311,733659	0
15.01.2021	14:28:54	0	61,142344	3,756528	2,376	300,1896	1,025	84,859	0	1015,34	8,7	10,1	9,8	1	1	1	1	1	1	1	1	1	0	1	-11,275546	275,549842	315,600973	0
15.01.2021	14:28:55	0	60,908469	2,504354	2,41125	297,2412	1,023	84,839	0	1015,38	8,7	10,1	9,8	1	1	1	1	1	1	1	1	1	0	1	-14,094433	275,423188	312,181518	0
15.01.2021	14:28:56	0	61,025314	2,845858	2,346	295,5528	1,027	84,842	0	1015,26	8,7	10,1	9,8	1	1	1	1	1	1	1	1	1	0	1	-13,883016	275,427983	312,415654	0
15.01.2021	14:28:57	0	61,025252	3,301177	2,31975	298,6488	1,016	84,843	0	1015,32	8,7	10,1	9,9	1	1	1	1	1	1	1	1	1	0	1	-15,151515	275,4152	311,086584	0
15.01.2021	14:28:58	0	61,259003	2,84586	2,187	299,412	1,019	84,832	0	1015,32	8,7	10,1	9,8	1	1	1	1	1	1	1	1	1	0	1	-13,460183	275,541801	313,378184	0
15.01.2021	14:28:59	0	61,025129	5,122551	2,18625	295,56	1,02	84,848	0	1015,4	8,7	10,1	9,8	1	1	1	1	1	1	1	1	1	0	1	-14,587738	275,61106	312,57936	0
15.01.2021	14:29:00	0	61,49263	4,439549	2,44725	308,448	1,023	84,841	0	1015,36	8,7	10,1	9,8	1	1	1	1	1	1	1	1	1	0	1	-14,446794	275,474391	312,071854	0
15.01.2021	14:29:01	0	61,49263	4,439549	2,44725	308,448	1,023	84,841	0	1015,36	8,7	10,1	9,8	1	1	1	1	1	1	1	1	1	0	1	-18,816068	275,434377	307,512906	0
15.01.2021	14:29:02	0	61,258755	4,781026	2,55225	295,2216	1,016	84,832	0	1015,24	8,7	10,1	9,9	1	1	1	1	1	1	1	1	1	0	1	-13,953488	275,599768	313,159998	0
15.01.2021	14:29:03	0	61,024882	2,618182	2,592	313,2396	1,023	84,833	0	1015,3	8,7	10,1	9,9	1	1	1	1	1	1	1	1	1	0	1	-15,010571	275,527337	311,759172	0
15.01.2021	14:29:04	0	60,907914	3,073538	2,66325	300,8484	1,022	84,831	0	1015,36	8,7	10,1	9,8	1	1	1	1	1	1	1	1	1	0	1	-14,023961	275,583649	313,013004	0
15.01.2021	14:29:05	0	60,907852	2,618201	2,61075	312,0912	1,022	84,832	0	1015,3	8,7	10,1	9,8	1	1	1	1	1	1	1	1	1	0	1	-14,728682	275,453574	311,691276	0
15.01.2021	14:29:06	0	60,907791	3,415046	2,5875	306,3996	1,02	84,821	0	1015,5	8,7	10,1	9,8	1	1	1	1	1	1	1	1	1	0	1	-14,235377	275,562714	312,702224	0
15.01.2021	14:29:07	0	60,790823	2,845873	2,73225	305,766	1,021	84,826	0	1015,28	8,7	10,1	9,8	1	1	1	1	1	1	1	1	1	0	1	-14,446794	275,455174	311,980751	0
15.01.2021	14:29:08	0	60,907667	3,187379	2,7	305,4276	1,016	84,814	0	1015,28	8,7	10,1	9,8	1	1	1	1	1	1	1	1	1	0	1	-12,473573	275,577205	314,532805	0
15.01.2021	14:29:09	0	60,673795	2,732041	2,64225	297,9756	1,016	84,825	0	1015,26	8,7	10,1	9,8	1	1	1	1	1	1	1	1	1	0	1	-13,953488	275,419992	312,307319	0
15.01.2021	14:29:10	0	61,024449	4,553403	2,55825	304,9884	1,016	84,822	0	1015,34	8,7	10,1	9,8	1	1	1	1	1	1	1	1	1	0	1	-15,503876	275,602994	311,624924	0
15.01.2021	14:29:11	0	61,258197	5,236416	2,643	289,4832	1,02	84,823	0	1015,34	8,7	10,1	9,8	1	1	1	1	1	1	1	1	1	0	1	-12,05074	275,561104	314,879223	0
15.01.2021	14:29:12	0	60,90742	2,84588	2,97	304,2288	1,02	84,814	0	1015,46	8,7	10,1	9,8	1	1	1	1	1	1	1	1	1	0	1	-13,883016	275,598156	313,222815	0
15.01.2021	14:29:13	0	61,024263	4,781052	3,00075	298,2456	1,009	84,807	0	1015,38	8,7	10,1	9,9	1	1	1	1	1	1	1	1	1	0	1	-17,124736	275,532157	309,667875	0
15.01.2021	14:29:14	0	60,907297	3,301224	2,733	303,57	1,016	84,814	0	1015,36	8,7	10,1	9,8	1	1	1	1	1	1	1	1	1	0	1	-17,195208	275,58526	309,849406	0
15.01.2021	14:29:15	0	60,790331	3,41504	2,466	302,9112	1,015	84,812	0	1015,46	8,7	10,1	9,9	1	1	1	1	1	1	1	1	1	0	1	-18,393235	275,472789	308,117816	0
15.01.2021	14:29:16	0	60,907173	2,73205	2,3175	320,4324	1,01	84,815	0	1015,32	8,7	10,1	9,8	1	1	1	1	1	1	1	1	1	0	1	-11,205074	275,42159	315,063305	0
15.01.2021	14:29:17	0	60,907111	2,845887	2,151	307,1664	1,009	84,792	0	1015,46	8,7	10,1	9,8	1	1	1	1	1	1	1	1	1	0	1	-14,446794	275,49042	312,147856	0
15.01.2021	14:29:18	0	61,257762	4,781092	2,2185	315,198	1,014	84,818	0	1015,48	8,7	10,1	9,8	1	1	1	1	1	1	1	1	1	0	1	-12,191684	275,599768	314,921802	0
15.01.2021	14:29:19	0	61,2577	4,781095	2,241	312,2028	1,009	84,811	0	1015,38	8,6	10,1	9,8	1	1	1	1	1	1	1	1	1	0	1	-18,745595	275,495231	307,871869	0
15.01.2021	14:29:20	0	61,257638	4,781097	2,43825	307,9836	1,012	84,825	0	1015,38	8,7	10,1	9,8	1	1	1	1	1	1	1	1	1	0	1	-14,305849	275,591707	312,769367	0
15.01.2021	14:29:21	0	60,789961	4,439592	2,69475	300,7908	1,012	84,825	0	1015,34	8,6	10,1	9,8	1	1	1	1	1	1	1	1	1	0	1	-10,218464	275,52573	316,543658	0
15.01.2021	14:29:22	0	60,556092	2,732042	2,74425	335,3256	1,014	84,833	0	1015,36	8,7	10,1	9,9	1	1	1	1	1	1	1	1	1	0	1	-10,782241	275,408812	315,425591	0
15.01.2021	14:29:23	0	60,906741	3,187403	2,4945	312,1812	1,012	84,827	0	1015,32	8,6	10,1	9,8	1	1	1	1	1	1	1	1	1	0	1	-12,896406	275,484007	313,667833	0
15.01.2021	14:29:24	0	60,906679	4,325763	2,43375	319,4892	1,009	84,822	0	1015,36	8,7	10,1	9,8	1	1	1	1	1	1	1	1	1	0	1	-12,473573	275,413603	313,756958	0
15.01.2021	14:29:25	0	60,906617	4,325765	2,349	315,9432	1,012	84,835	0	1015,32	8,6	10,1	9,8	1	1	1	1	1	1	1	1	1	0	1	-13,883016	275,586872	313,169247	0
15.01.2021	14:29:26	0	60,789652	4,667275	2,343	311,0076	1,009	84,834	0	1015,32	8,6	10,1	9,8	1	1	1	1	1	1	1	1	1	0	1	-14,728682	275,582038	312,300635	0
15.01.2021	14:29:27	0	61,140299	4,667277	2,4225	314,4312	1,006	84,829	0	1015,34	8,6	10,1	9,8	1	1	1	1	1	1	1	1	1	0	1	-12,332629	275,532157	314,459982	0
15.01.2021	14:29:28	0	60,321917	3,642755	2,658	309,294	1,013	84,849	0	1015,38	8,6	10,1	9,8	1	1	1	1	1	1	1	1	1	0	1	-15,010571	275,418395	311,242667	0
15.01.2021	14:29:29	0	61,257078	4,098101	2,9355	306,1836	1,007	84,834	0	1015,36	8,6	10,1	9,8	1	1	1	1	1	1	1	1	1	0	1	-16,913319	275,528943	309,864045	0
15.01.2021	14:29:30	0	60,438697	2,959741	3,0795	311,4324	1,009	84,845	0	1015,48	8,6	10,1	9,8	1	1	1	1	1	1	1	1	1	0	1	-12,05074	275,554668	314,848679	0
15.01.2021	14:29:31	0	60,672441	3,073579	3,00975	306,8568	1,008	84,841	0	1015,34	8,6	10,1	9,8	1	1	1	1	1	1	1	1	1	0	1	-13,6716	275,443973	312,702853	0
15.01.2021	14:29:32	0	60,906184	4,781125	2,9895	315,4608	1,009	84,845	0	1015,28	8,6	10,1	9,8	1	1	1	1	1	1	1	1	1	0	1	-15,997181	275,58526	311,047432	0
15.01.2021	14:29:33	0	60,672317	3,415091	2,87925	310,248	1,008	84,837	0	1015,28	8,7	10,1	9,8	1	1	1	1	1	1	1	1	1	0	1	-13,601128	275,410408	312,61427	0
15.01.2021	14:29:34	0	60,438451	3,18742	2,86125	309,906	1,01	84,843	0	1015,34	8,7	10,1	9,8	1	1	1	1	1	1	1	1	1	0	1	-13,883016	275,453574	312,536942	0
15.01.2021	14:29:35	0	60,672194	3,415094	2,64675	320,706	1,012	84,829	0	1015,28	8,6	10,1	9,8	1	1	1	1	1	1	1	1	1	0	1	-12,121212	275,588483	314,938701	0
15.01.2021	14:29:36	0	60,672132	3,756606	2,40975	305,7552	1,003	84,837	0	1015,32	8,6	10,1	9,8	1	1	1	1	1	1	1	1	1	0	1	-18,181818	275,545017	308,671807	0
15.01.2021	14:29:37	0	60,905874	4,781137	2,322	321,4512	1,007	84,823	0	1015,22	8,6	10,1	9,8	1	1	1	1	1	1	1	1	1	0	1	-13,530655	275,42159	312,737723	0
15.01.2021	14:29:38	0	61,139616	3,984283	2,30325	295,6032	1,011	84,834	0	1015,3	8,6	10,1	9,8	1	1	1	1	1	1	1	1	1	0	1	-15,715292	275,52573	311,046829	0
15.01.2021	14:29:39	0	60,555045	2,845918	2,4375	300,438	1,009	84,821	0	1015,3	8,6	10,1	9,8	1	1	1	1	1	1	1	1	1	0	1	-13,248767	275,593319	313,834102	0
15.01.2021	14:29:40	0	61,02259	4,55347	2,46	296,0856	1,005	84,831	0	1015,26	8,6	10,1	9,8	1	1	1	1	1	1	1	1	1	0	1	-15,151515	275,546625	311,709741	0
15.01.2021	14:29:41	0	60,788725	2,618247	2,481	302,1588	1,006	84,82	0	1015,34	8,6	10,1	9,8	1	1	1	1	1	1	1	1	1	0	1	-9,654686	275,437575	316,689444	0
15.01.2021	14:29:42	0	60,905564	3,301269	2,4225	285,9372	1,002	84,813	0	1015,22	8,6	10,1	9,8	1	1	1	1	1	1	1	1	1	0	1	-11,768851	275,464781	314,704231	0
15.01.2021	14:29:43	0	61,022403	4,553477	2,25975	309,9744	1,003	84,82	0	1015,26	8,6	10,1	9,8	1	1	1	1	1	1	1	1	1	0	1	-16,560958	275,407215	309,639308	0
15.01.2021	14:29:44	0	60,90544	2,390577	2,0445	307,1304	1,004	84,829	0	1015,46	8,6	10,1	9,8	1	1	1	1	1	1	1	1	1	0	1	-13,03735	275,535371	313,770509	0
15.01.2021	14:29:45	0	60,905378	3,984296	1,96725	299,0808	0,997	84,826	0	1015,34	8,6	10,1	9,8	1	1	1	1	1	1	1	1	1	0	1	-11,275546	275,557886	315,639143	0
15.01.2021	14:29:46	0	60,671515	4,098135	2,0625	305,3628	0,999	84,814	0	1015,5	8,6	10,1	9,8	1	1	1	1	1	1	1	1	1	0	1	-16,349542	275,527337	310,4202	0
15.01.2021	14:29:47	0	60,671453	2,959766	2,0775	293,6988	1	84,834	0	1015,4	8,6	10,1	9,8	1	1	1	1	1	1	1	1	1	0	1	-15,785765	275,416797	310,459903	0
15.01.2021	14:29:48	0	60,671391	2,390581	2,0325	283,626	1,002	84,832	0	1015,36	8,6	10,1	9,8	1	1	1	1	1	1	1	1	1	0	1	-14,094433	275,458376	312,348288	0
15.01.2021	14:29:49	0	60,90513	4,211979	1,88475	291,1464	1,002	84,827	0	1015,26	8,6	10,1	9,8	1	1	1	1	1	1	1	1	1	0	1	-16,208598	275,399233	309,953855	0
15.01.2021	14:29:50	0	60,905068	5,008842	1,70625	264,2868	0,998	84,834	0	1015,46	8,6	10,1	9,8	1	1	1	1	1	1	1	1	1	0	1	-12,262156	275,506462	314,408571	0
15.01.2021	14:29:51	0	60,553881	4,211983	1,6035	271,0224	0,998	84,842	0	1015,24	8,6	10	9,8	1	1	1	1	1	1	1	1	1	0	1	-15,503876	275,578816	311,510147	0
15.01.2021	14:29:52	0	60,788044	4,667334	1,6365	273,6468	1,002	84,854	0	1015,34	8,6	10,1	9,8	1	1	1	1	1	1	1	1	1	0	1	-12,262156	275,512883	314,439023	0
15.01.2021	14:29:53	0	60,554182	3,870474	1,605	309,852	0,993	84,834	0	1015,3	8,6	10,1	9,8	1	1	1	1	1	1	1	1	1	0	1	-16,560958	275,429581	309,745287	0
15.01.2021	14:29:54	0	60,43722	2,276751	1,58325	303,2424	0,995	84,833	0	1015,46	8,6	10,1	9,8	1	1	1	1	1	1	1	1	1	0	1	-15,64482	275,464781	310,828262	0
15.01.2021	14:29:55	0	60,787858	4,439666	1,69275	302,4612	0,994	84,848	0	1015,32	8,6	10,1	9,8	1	1	1	1	1	1	1	1	1	0	1	-10,42988	275,583649	316,607085	0
15.01.2021	14:29:56	0	60,553997	4,667344	1,719	306,4392	0,995	84,849	0	1015,36	8,6	10,1	9,8	1	1	1	1	1	1	1	1	1	0	1	-13,6716	275,575594	313,327133	0
15.01.2021	14:29:57	0	60,670834	2,95978	1,70775	292,9716	0,994	84,842	0	1015,36	8,6	10,1	9,8	1	1	1	1	1	1	1	1	1	0	1	-14,869626	275,451973	311,542745	0
15.01.2021	14:29:58	0	60,320074	2,845944	1,77825	291,9096	0,997	84,838	0	1015,46	8,6	10,1	9,8	1	1	1	1	1	1	1	1	1	0	1	-15,292459	275,39285	310,839756	0
15.01.2021	14:29:59	0	60,553811	3,870486	1,791	307,3572	1,002	84,859	0	1015,46	8,6	10,1	9,8	1	1	1	1	1	1	1	1	1	0	1	-13,389711	275,405618	312,802991	0
15.01.2021	14:30:00	0	60,787486	4,553517	1,9335	315,5148	0,992	84,861	0	1015,36	8,6	10,1	9,8	1	1	1	1	1	1	1	1	1	0	1	-13,03735	275,423188	313,2386	0
15.01.2021	14:30:01	0	60,787486	4,553517	1,9335	315,5148	0,992	84,861	0	1015,36	8,6	10,1	9,8	1	1	1	1	1	1	1	1	1	0	1	-13,6716	275,456775	312,763533	0
15.01.2021	14:30:02	0	60,904323	3,98433	2,02425	300,438	0,996	84,863	0	1015,3	8,6	10,1	9,8	1	1	1	1	1	1	1	1	1	0	1	-17,26568	275,58526	309,778933	0
15.01.2021	14:30:03	0	59,96907	2,845951	2,07825	305,406	0,992	84,862	0	1015,34	8,6	10,1	9,8	1	1	1	1	1	1	1	1	1	0	1	-14,376321	275,554668	312,523098	0
15.01.2021	14:30:04	0	60,202806	2,618276	2,001	315,2448	0,995	84,879	0	1015,4	8,6	10,1	9,8	1	1	1	1	1	1	1	1	1	0	1	-15,997181	275,384874	310,097255	0
15.01.2021	14:30:05	0	60,553441	4,32585	1,88925	310,7196	0,998	84,869	0	1015,36	8,6	10,1	9,8	1	1	1	1	1	1	1	1	1	0	1	-14,023961	275,577205	312,982417	0
15.01.2021	14:30:06	0	60,553379	3,528985	1,761	306,792	0,995	84,887	0	1015,38	8,6	10,1	9,8	1	1	1	1	1	1	1	1	1	0	1	-11,839323	275,434377	314,489651	0
15.01.2021	14:30:07	0	60,31952	2,845957	1,677	298,9296	0,992	84,88	0	1015,4	8,6	10,1	9,8	1	1	1	1	1	1	1	1	1	0	1	-12,544045	275,423188	313,731905	0
15.01.2021	14:30:08	0	60,670153	2,959796	1,7085	324,7884	0,991	84,898	0	1015,46	8,6	10,1	9,8	1	1	1	1	1	1	1	1	1	0	1	-13,742072	275,410408	312,473325	0
15.01.2021	14:30:09	0	60,553193	4,439697	1,785	308,8044	0,995	84,887	0	1015,34	8,6	10,1	9,8	1	1	1	1	1	1	1	1	1	0	1	-16,420014	275,439175	309,931696	0
15.01.2021	14:30:10	0	60,553131	2,618284	1,8795	317,7396	0,99	84,886	0	1015,34	8,6	10,1	9,8	1	1	1	1	1	1	1	1	1	0	1	-13,248767	275,426384	313,04233	0
15.01.2021	14:30:11	0	60,318851	2,732124	1,941	304,6068	0,991	84,912	0	1015,3	8,6	10	9,8	1	1	1	1	1	1	1	1	1	0	1	-12,684989	275,567543	314,27553	0
15.01.2021	14:30:12	0	60,786803	4,439703	2,133	292,6044	0,992	84,911	0	1015,32	8,6	10,1	9,8	1	1	1	1	1	1	1	1	1	0	1	-16,560958	275,543409	310,285038	0
15.01.2021	14:30:13	0	60,903638	4,439706	2,304	282,438	0,994	84,917	0	1015,42	8,6	10,1	9,8	1	1	1	1	1	1	1	1	1	0	1	-11,486963	275,399233	314,67549	0
15.01.2021	14:30:14	0	60,903576	4,781224	2,4465	274,6764	0,992	84,928	0	1015,32	8,6	10,1	9,8	1	1	1	1	1	1	1	1	1	0	1	-12,473573	275,5177	314,250454	0
15.01.2021	14:30:15	0	60,318605	3,073645	2,28975	306,8532	0,991	84,925	0	1015,28	8,6	10	9,8	1	1	1	1	1	1	1	1	1	0	1	-15,362932	275,402425	310,814645	0
15.01.2021	14:30:16	0	60,786554	4,895067	2,0865	337,0968	0,993	84,935	0	1015,24	8,6	10,1	9,8	1	1	1	1	1	1	1	1	1	0	1	-16,772375	275,540194	310,058364	0
15.01.2021	14:30:17	0	60,435378	4,098198	1,9755	285,8508	0,994	84,954	0	1015,4	8,6	10	9,8	1	1	1	1	1	1	1	1	1	0	1	-12,684989	275,39285	313,447226	0
15.01.2021	14:30:18	0	60,435316	3,529005	1,9005	305,6508	0,992	84,938	0	1015,3	8,6	10	9,8	1	1	1	1	1	1	1	1	1	0	1	-17,054264	275,556277	309,85279	0
15.01.2021	14:30:19	0	60,31878	3,18749	1,839	324,3672	0,995	84,973	0	1015,32	8,6	10,1	9,8	1	1	1	1	1	1	1	1	1	0	1	-15,856237	275,540194	310,974502	0
15.01.2021	14:30:20	0	60,318719	2,845975	1,761	325,08	0,994	84,973	0	1015,42	8,6	10,1	9,8	1	1	1	1	1	1	1	1	1	0	1	-15,64482	275,402425	310,532756	0
15.01.2021	14:30:21	0	60,552874	4,553562	1,65075	314,0388	0,998	84,974	0	1015,44	8,6	10,2	9,8	1	1	1	1	1	1	1	1	1	0	1	-14,094433	275,424786	312,18909	0
15.01.2021	14:30:22	0	60,66886	4,325886	1,6995	315,8532	0,993	84,972	0	1015,28	8,6	10	9,8	1	1	1	1	1	1	1	1	1	0	1	-10,500352	275,572373	316,483093	0
15.01.2021	14:30:23	0	60,318111	3,529014	1,82175	319,6224	0,991	84,998	0	1015,38	8,6	10	9,8	1	1	1	1	1	1	1	1	1	0	1	-14,869626	275,488817	311,717419	0
15.01.2021	14:30:24	0	60,318472	4,212051	1,9125	330,732	0,993	84,993	0	1015,18	8,6	10,1	9,8	1	1	1	1	1	1	1	1	1	0	1	-16,349542	275,577205	310,656836	0
15.01.2021	14:30:25	0	60,084197	2,845982	2,01975	329,3856	0,991	84,997	0	1015,36	8,6	10	9,8	1	1	1	1	1	1	1	1	1	0	1	-14,517266	275,453574	311,902692	0
15.01.2021	14:30:26	0	60,317926	3,073662	2,08425	316,5876	0,995	85,001	0	1015,28	8,6	10	9,8	1	1	1	1	1	1	1	1	1	0	1	-9,584214	275,397637	316,570678	0
15.01.2021	14:30:27	0	60,669399	4,781254	2,082	328,896	0,991	85,016	0	1015,36	8,6	10,2	9,8	1	1	1	1	1	1	1	1	1	0	1	-12,05074	275,549842	314,825779	0
15.01.2021	14:30:28	0	60,201329	3,642862	2,0115	320,4036	0,987	85,027	0	1015,34	8,6	10,1	9,8	1	1	1	1	1	1	1	1	1	0	1	-13,178295	275,582038	313,851022	0
15.01.2021	14:30:29	0	60,318163	2,732148	1,95825	320,0184	0,996	85,03	0	1015,34	8,6	10,1	9,8	1	1	1	1	1	1	1	1	1	0	1	-11,346018	275,432778	314,975379	0
15.01.2021	14:30:30	0	60,551892	4,895101	2,05275	306,2088	0,993	85,034	0	1015,42	8,6	10,1	9,8	1	1	1	1	1	1	1	1	1	0	1	-14,094433	275,435976	312,242119	0
15.01.2021	14:30:31	0	59,850038	2,390632	2,1255	307,2636	0,987	85,034	0	1015,28	8,6	10	9,8	1	1	1	1	1	1	1	1	1	0	1	-14,305849	275,391255	311,818809	0
15.01.2021	14:30:32	0	60,434449	3,756709	2,06775	290,0052	0,989	85,052	0	1015,44	8,6	10	9,8	1	1	1	1	1	1	1	1	1	0	1	-14,940099	275,467984	311,548169	0
15.01.2021	14:30:33	0	60,200599	3,529032	2,02125	306,4932	0,994	85,056	0	1015,24	8,6	10	9,8	1	1	1	1	1	1	1	1	1	0	1	-14,517266	275,38009	311,554511	0
15.01.2021	14:30:34	0	60,317431	3,529033	1,8555	311,7564	0,99	85,065	0	1015,4	8,6	10	9,8	1	1	1	1	1	1	1	1	1	0	1	-12,403101	275,439175	313,948609	0
15.01.2021	14:30:35	0	60,200475	3,301355	1,68675	314,0208	0,991	85,069	0	1015,48	8,6	10	9,8	1	1	1	1	1	1	1	1	1	0	1	-11,346018	275,378496	314,718207	0
15.01.2021	14:30:36	0	60,434625	2,732157	1,5675	303,2424	0,988	85,052	0	1015,3	8,6	10,1	9,8	1	1	1	1	1	1	1	1	1	0	1	-14,517266	275,479199	312,024174	0
15.01.2021	14:30:37	0	60,434563	2,618319	1,71375	309,3264	0,992	85,091	0	1015,46	8,6	10,1	9,8	1	1	1	1	1	1	1	1	1	0	1	-15,221987	275,540194	311,608752	0
15.01.2021	14:30:38	0	60,434078	3,75672	1,9155	319,5576	0,99	85,077	0	1015,3	8,6	10	9,8	1	1	1	1	1	1	1	1	1	0	1	-15,151515	275,445573	311,23052	0
15.01.2021	14:30:39	0	60,083756	2,618321	1,97775	304,9848	0,994	85,103	0	1015,3	8,6	10,1	9,8	1	1	1	1	1	1	1	1	1	0	1	-16,420014	275,591707	310,655202	0
15.01.2021	14:30:40	0	60,433954	2,959843	1,869	323,424	0,996	85,109	0	1015,5	8,6	10	9,8	1	1	1	1	1	1	1	1	1	0	1	-15,151515	275,459977	311,298795	0
15.01.2021	14:30:41	0	60,433892	3,870566	1,90575	319,5	0,992	85,112	0	1015,38	8,6	10	9,8	1	1	1	1	1	1	1	1	1	0	1	-13,460183	275,557886	313,454506	0
15.01.2021	14:30:42	0	60,08315	2,959846	2,0265	331,5024	0,992	85,113	0	1015,36	8,6	10	9,8	1	1	1	1	1	1	1	1	1	0	1	-15,785765	275,479199	310,755675	0
15.01.2021	14:30:43	0	59,966195	2,618327	2,007	350,5824	0,993	85,137	0	1015,34	8,6	10	9,8	1	1	1	1	1	1	1	1	1	0	1	-15,574348	275,39285	310,557867	0
15.01.2021	14:30:44	0	60,317658	2,618328	1,98825	359,4924	0,992	85,13	0	1015,12	8,6	10,2	9,8	1	1	1	1	1	1	1	1	1	0	1	-16,701903	275,426384	309,589194	0
15.01.2021	14:30:45	0	60,433644	2,84601	1,911	351,774	0,996	85,146	0	1015,32	8,6	10	9,8	1	1	1	1	1	1	1	1	1	0	1	-14,446794	275,388064	311,662752	0
15.01.2021	14:30:46	0	60,78426	2,618331	1,71375	359,4492	0,995	85,147	0	1015,36	8,6	10	9,8	1	1	1	1	1	1	1	1	1	0	1	-15,010571	275,500044	311,629716	0
15.01.2021	14:30:47	0	60,316627	2,846013	1,55475	7,2252	0,991	85,146	0	1015,36	8,6	10	9,8	1	1	1	1	1	1	1	1	1	0	1	-15,292459	275,564323	311,65278	0
15.01.2021	14:30:48	0	60,316987	3,073695	1,55175	347,2092	0,996	85,176	0	1015,42	8,6	10,1	9,8	1	1	1	1	1	1	1	1	1	0	1	-15,926709	275,553059	310,965076	0
15.01.2021	14:30:49	0	60,316503	4,212103	1,524	322,5528	0,993	85,174	0	1015,34	8,6	10	9,8	1	1	1	1	1	1	1	1	1	0	1	-14,305849	275,508067	312,37249	0
15.01.2021	14:30:50	0	60,19997	4,325946	1,6485	295,2108	0,994	85,182	0	1015,4	8,6	10,1	9,8	1	1	1	1	1	1	1	1	1	0	1	-15,503876	275,578816	311,510147	0
15.01.2021	14:30:51	0	60,083015	3,984426	1,707	313,5996	0,992	85,162	0	1015,32	8,6	10,1	9,8	1	1	1	1	1	1	1	1	1	0	1	-22,269204	275,557886	304,645486	0
15.01.2021	14:30:52	0	60,317162	3,187542	1,60125	319,1472	1	85,182	0	1015,46	8,6	10,2	9,8	1	1	1	1	1	1	1	1	1	0	1	-14,869626	275,448773	311,527575	0
15.01.2021	14:30:53	0	60,667356	4,781316	1,629	325,512	0,996	85,16	0	1015,32	8,6	10,1	9,8	1	1	1	1	1	1	1	1	1	0	1	-9,020437	275,39285	317,111779	0
15.01.2021	14:30:54	0	60,433508	3,073705	1,71525	348,2892	0,996	85,169	0	1015,32	8,6	10,1	9,8	1	1	1	1	1	1	1	1	1	0	1	-15,715292	275,475994	310,810951	0
15.01.2021	14:30:55	0	60,199239	2,846041	1,9125	334,1952	0,999	85,182	0	1015,52	8,6	10	9,7	1	1	1	1	1	1	1	1	1	0	1	-14,023961	275,545017	312,829665	0
15.01.2021	14:30:56	0	60,550276	4,553641	1,98225	349,3764	0,997	85,172	0	1015,46	8,6	10,1	9,8	1	1	1	1	1	1	1	1	1	0	1	-12,825934	275,466382	313,654741	0
15.01.2021	14:30:57	0	60,082645	2,732202	1,85925	338,6988	0,998	85,17	0	1015,48	8,6	10,1	9,7	1	1	1	1	1	1	1	1	1	0	1	-10,500352	275,397637	315,65454	0
15.01.2021	14:30:58	0	60,550152	4,667487	1,872	336,1536	0,994	85,176	0	1015,4	8,6	10,1	9,8	1	1	1	1	1	1	1	1	1	0	1	-16,420014	275,562714	310,517587	0
15.01.2021	14:30:59	0	60,550514	5,009012	2,07675	342,7884	0,996	85,169	0	1015,4	8,6	10,2	9,8	1	1	1	1	1	1	1	1	1	0	1	-13,389711	275,443973	312,984741	0
15.01.2021	14:31:00	0	59,848614	2,390667	2,21175	329,6988	0,995	85,189	0	1015,36	8,6	10,1	9,8	1	1	1	1	1	1	1	1	1	0	1	-15,503876	275,424786	310,779647	0
15.01.2021	14:31:01	0	59,848614	2,390667	2,21175	329,6988	0,995	85,189	0	1015,36	8,6	10,1	9,8	1	1	1	1	1	1	1	1	1	0	1	-12,896406	275,561104	314,033557	0
15.01.2021	14:31:02	0	59,965444	2,959875	2,07525	336,7008	0,99	85,172	0	1015,52	8,6	10,1	9,8	1	1	1	1	1	1	1	1	1	0	1	-13,812544	275,567543	313,147976	0
15.01.2021	14:31:03	0	60,54984	2,959877	1,99875	340,5744	0,99	85,16	0	1015,44	8,6	10,1	9,8	1	1	1	1	1	1	1	1	1	0	1	-13,530655	275,453574	312,889303	0
15.01.2021	14:31:04	0	60,198682	3,187561	1,97325	336,1788	0,993	85,18	0	1015,46	8,6	10	9,8	1	1	1	1	1	1	1	1	1	0	1	-12,896406	275,545017	313,95722	0
15.01.2021	14:31:05	0	60,432824	3,870635	1,94775	328,2264	0,99	85,161	0	1015,32	8,6	10,1	9,7	1	1	1	1	1	1	1	1	1	0	1	-12,473573	275,570763	314,50223	0
15.01.2021	14:31:06	0	60,081668	2,618356	1,97175	335,6784	1,001	85,175	0	1015,32	8,6	10	9,8	1	1	1	1	1	1	1	1	1	0	1	-11,627907	275,565933	315,324972	0
15.01.2021	14:31:07	0	60,315809	2,732199	1,9515	336,0528	0,996	85,177	0	1015,4	8,6	10,1	9,8	1	1	1	1	1	1	1	1	1	0	1	-13,460183	275,443973	312,914269	0
15.01.2021	14:31:08	0	60,549529	4,098301	1,83825	326,3328	0,993	85,173	0	1015,4	8,6	10,1	9,8	1	1	1	1	1	1	1	1	1	0	1	-13,812544	275,572373	313,170901	0
15.01.2021	14:31:09	0	60,549042	4,439828	1,7505	325,1916	0,998	85,172	0	1015,4	8,6	10	9,8	1	1	1	1	1	1	1	1	1	0	1	-13,530655	275,504857	313,13246	0
15.01.2021	14:31:10	0	60,315622	2,846062	1,71525	329,6808	0,993	85,171	0	1015,38	8,6	10,1	9,7	1	1	1	1	1	1	1	1	1	0	1	-15,362932	275,386469	310,739059	0
15.01.2021	14:31:11	0	60,432451	4,212174	1,67025	327,1572	0,995	85,181	0	1015,48	8,6	10,1	9,7	1	1	1	1	1	1	1	1	1	0	1	-16,208598	275,495231	310,408867	0
15.01.2021	14:31:12	0	60,315498	3,5291	1,64175	314,4456	0,992	85,179	0	1015,22	8,6	10,1	9,8	1	1	1	1	1	1	1	1	1	0	1	-14,235377	275,38009	311,8364	0
15.01.2021	14:31:13	0	60,548793	4,439837	1,66425	315,2484	0,996	85,181	0	1015,4	8,6	10	9,8	1	1	1	1	1	1	1	1	1	0	1	-17,829457	275,532157	308,963153	0
15.01.2021	14:31:14	0	60,315374	4,667524	1,6695	324,072	0,996	85,194	0	1015,38	8,6	10,1	9,8	1	1	1	1	1	1	1	1	1	0	1	-15,292459	275,496835	311,332612	0
15.01.2021	14:31:15	0	60,198422	3,415263	1,79325	291,1248	0,998	85,168	0	1015,26	8,6	10,1	9,8	1	1	1	1	1	1	1	1	1	0	1	-12,614517	275,557886	314,300172	0
15.01.2021	14:31:16	0	60,43214	4,895213	2,019	307,1664	0,993	85,177	0	1015,28	8,5	10,1	9,8	1	1	1	1	1	1	1	1	1	0	1	-16,631431	275,524124	310,12307	0
15.01.2021	14:31:17	0	59,964518	2,732213	1,944	301,6404	0,994	85,185	0	1015,36	8,6	10,1	9,8	1	1	1	1	1	1	1	1	1	0	1	-15,081043	275,404022	311,104096	0
15.01.2021	14:31:18	0	60,198235	2,732231	1,75125	309,2832	0,996	85,194	0	1015,36	8,5	10,1	9,7	1	1	1	1	1	1	1	1	1	0	1	-13,389711	275,410408	312,825686	0
15.01.2021	14:31:19	0	60,431953	2,846058	1,5555	321,4908	0,995	85,209	0	1015,38	8,6	10,1	9,8	1	1	1	1	1	1	1	1	1	0	1	-14,446794	275,488817	312,140252	0
15.01.2021	14:31:20	0	60,315001	4,781409	1,5735	327,8664	0,994	85,208	0	1015,36	8,5	10,1	9,7	1	1	1	1	1	1	1	1	1	0	1	-16,560958	275,389659	309,556143	0
15.01.2021	14:31:21	0	60,431828	2,504534	1,7475	315,882	0,986	85,21	0	1015,46	8,6	10,1	9,8	1	1	1	1	1	1	1	1	1	0	1	-13,812544	275,43118	312,501277	0
15.01.2021	14:31:22	0	60,314876	2,959905	1,8225	321,102	0,997	85,208	0	1015,42	8,5	10,1	9,8	1	1	1	1	1	1	1	1	1	0	1	-15,856237	275,570763	311,119566	0
15.01.2021	14:31:23	0	60,431703	3,52914	1,8195	312,1236	0,995	85,224	0	1015,38	8,6	10,1	9,7	1	1	1	1	1	1	1	1	1	0	1	-13,319239	275,373713	312,722337	0
15.01.2021	14:31:24	0	60,197863	3,756806	1,82625	305,3736	0,993	85,217	0	1015,36	8,6	10,1	9,8	1	1	1	1	1	1	1	1	1	0	1	-10,711769	275,466382	315,768906	0
15.01.2021	14:31:25	0	60,31469	3,529144	1,746	308,8872	1,002	85,236	0	1015,5	8,6	10,1	9,7	1	1	1	1	1	1	1	1	1	0	1	-13,6716	275,578816	313,342423	0
15.01.2021	14:31:26	0	60,548405	4,439893	1,67475	307,6632	0,996	85,248	0	1015,44	8,6	10,1	9,7	1	1	1	1	1	1	1	1	1	0	1	-14,728682	275,442374	311,638189	0
15.01.2021	14:31:27	0	60,548342	4,781397	1,68075	299,448	0,995	85,229	0	1015,02	8,7	10,1	9,8	1	1	1	1	1	1	1	1	1	0	1	-17,406624	275,540194	309,424115	0
15.01.2021	14:31:28	0	60,080726	4,326054	1,72725	308,1708	0,998	85,251	0	1015,26	8,6	10,1	9,7	1	1	1	1	1	1	1	1	1	0	1	-15,997181	275,548234	310,871706	0
15.01.2021	14:31:29	0	60,31444	4,212212	1,75275	282,1428	1,009	85,253	0	1015,36	8,6	10,1	9,7	1	1	1	1	1	1	1	1	1	0	1	-19,379845	275,565933	307,573034	0
15.01.2021	14:31:30	0	60,314378	2,276859	1,64025	308,5272	1,002	85,264	0	1015,4	8,6	10,1	9,8	1	1	1	1	1	1	1	1	1	0	1	-13,953488	275,528943	312,823876	0
15.01.2021	14:31:31	0	60,431204	4,098373	1,6035	297,594	0,998	85,262	0	1015,4	8,6	10,1	9,7	1	1	1	1	1	1	1	1	1	0	1	-17,618041	275,528943	309,159323	0
15.01.2021	14:31:32	0	60,314254	3,984507	1,605	285,1812	1,001	85,269	0	1015,4	8,7	10,1	9,8	1	1	1	1	1	1	1	1	1	0	1	-15,433404	275,445573	310,948631	0
15.01.2021	14:31:33	0	59,963527	3,187626	1,57575	307,1556	0,997	85,268	0	1015,36	8,6	10,1	9,7	1	1	1	1	1	1	1	1	1	0	1	-15,503876	275,391255	310,620782	0
15.01.2021	14:31:34	0	60,080353	3,870691	1,614	300,1932	1	85,284	0	1015,4	8,5	10,1	9,7	1	1	1	1	1	1	1	1	1	0	1	-16,349542	275,453574	310,070416	0
15.01.2021	14:31:35	0	60,197179	2,959942	1,743	311,5044	1,002	85,286	0	1015,48	8,6	10,1	9,7	1	1	1	1	1	1	1	1	1	0	1	-17,124736	275,562714	309,812865	0
15.01.2021	14:31:36	0	60,430892	4,781447	1,9845	322,9164	0,999	85,291	0	1015,5	8,6	10,1	9,7	1	1	1	1	1	1	1	1	1	0	1	-18,604651	275,427983	307,694019	0
15.01.2021	14:31:37	0	60,080167	2,390725	2,19675	318,1536	0,999	85,293	0	1015,4	8,6	10,1	9,7	1	1	1	1	1	1	1	1	1	0	1	-16,138125	275,413603	310,092406	0
15.01.2021	14:31:38	0	60,547654	4,895295	2,38875	320,7744	0,999	85,292	0	1015,4	8,6	10,1	9,7	1	1	1	1	1	1	1	1	1	0	1	-20,295983	275,445573	306,086052	0
15.01.2021	14:31:39	0	60,313817	5,009112	2,4345	325,2024	1,004	85,303	0	1015,46	8,6	10,1	9,8	1	1	1	1	1	1	1	1	1	0	1	-18,463707	275,39285	307,668509	0
15.01.2021	14:31:40	0	60,07998	2,959949	2,29875	321,084	0,995	85,297	0	1015,38	8,5	10,1	9,7	1	1	1	1	1	1	1	1	1	0	1	-12,896406	275,440774	313,462884	0
15.01.2021	14:31:41	0	60,079918	2,390729	2,29725	309,2832	1	85,31	0	1015,3	8,6	10,1	9,7	1	1	1	1	1	1	1	1	1	0	1	-11,41649	275,549842	315,460028	0
15.01.2021	14:31:42	0	60,31363	3,984551	2,40675	318,5244	1,005	85,318	0	1015,34	8,7	10,1	9,7	1	1	1	1	1	1	1	1	1	0	1	-13,601128	275,469585	312,894734	0
15.01.2021	14:31:43	0	60,196681	2,732265	2,48025	304,2396	1,004	85,321	0	1015,4	8,5	10,1	9,7	1	1	1	1	1	1	1	1	1	0	1	-16,701903	275,386469	309,400088	0
15.01.2021	14:31:44	0	60,313505	3,529177	2,41875	308,8404	1,002	85,322	0	1015,4	8,6	10,1	9,7	1	1	1	1	1	1	1	1	1	0	1	-14,376321	275,451973	312,036051	0
15.01.2021	14:31:45	0	59,962783	2,276876	2,39625	304,992	1	85,325	0	1015,38	8,6	10,1	9,8	1	1	1	1	1	1	1	1	1	0	1	-16,701903	275,384874	309,392533	0
15.01.2021	14:31:46	0	60,547153	4,667626	2,41575	317,3976	0,998	85,318	0	1015,42	8,6	10,1	9,7	1	1	1	1	1	1	1	1	1	0	1	-16,27907	275,528943	310,498295	0
15.01.2021	14:31:47	0	60,54709	4,667628	2,3445	323,7084	1,006	85,347	0	1015,46	8,5	10,1	9,7	1	1	1	1	1	1	1	1	1	0	1	-12,121212	275,412005	314,101752	0
15.01.2021	14:31:48	0	59,962597	3,073806	2,322	339,2136	0,998	85,303	0	1015,2	8,6	10,1	9,7	1	1	1	1	1	1	1	1	1	0	1	-16,208598	275,570763	310,767205	0
15.01.2021	14:31:49	0	60,430079	2,618428	2,35725	326,6964	0,997	85,296	0	1015,42	8,6	10,1	9,7	1	1	1	1	1	1	1	1	1	0	1	-11,557435	275,42159	314,710944	0
15.01.2021	14:31:50	0	60,196245	3,756877	2,4315	314,7912	1,01	85,303	0	1015,36	8,6	10,1	9,7	1	1	1	1	1	1	1	1	1	0	1	-15,221987	275,567543	311,738532	0
15.01.2021	14:31:51	0	60,429954	5,009172	2,58525	329,1876	0,999	85,293	0	1015,36	8,5	10,1	9,7	1	1	1	1	1	1	1	1	1	0	1	-16,913319	275,501648	309,734576	0
15.01.2021	14:31:52	0	60,079234	2,732277	2,5275	301,6476	1,004	85,294	0	1015,38	8,6	10,1	9,7	1	1	1	1	1	1	1	1	1	0	1	-14,094433	275,569153	312,873728	0
15.01.2021	14:31:53	0	60,429829	3,984573	2,5035	313,218	1,003	85,279	0	1015,34	8,6	10,1	9,7	1	1	1	1	1	1	1	1	1	0	1	-13,530655	275,524124	313,223846	0
15.01.2021	14:31:54	0	60,429766	3,984551	2,59725	313,6644	1,001	85,251	0	1015,3	8,7	10,1	9,8	1	1	1	1	1	1	1	1	1	0	1	-18,604651	275,569153	308,36351	0
15.01.2021	14:31:55	0	60,429703	4,781492	2,61975	296,5032	0,996	85,243	0	1015,3	8,5	10,1	9,7	1	1	1	1	1	1	1	1	1	0	1	-17,477097	275,503253	309,178409	0
15.01.2021	14:31:56	0	60,546526	4,553804	2,5725	291,5244	1,001	85,261	0	1015,64	8,6	10,1	9,7	1	1	1	1	1	1	1	1	1	0	1	-16,27907	275,399233	309,883383	0
15.01.2021	14:31:57	0	60,195808	3,643045	2,57175	300,456	0,997	85,199	0	1015,42	8,5	10,1	9,7	1	1	1	1	1	1	1	1	1	0	1	-17,547569	275,477596	308,986273	0
15.01.2021	14:31:58	0	60,078861	2,61844	2,6865	309,1932	0,994	85,207	0	1015,14	8,5	10,1	9,7	1	1	1	1	1	1	1	1	1	0	1	-15,503876	275,567543	311,456644	0
15.01.2021	14:31:59	0	60,429453	5,009192	2,53575	310,2696	0,996	85,203	0	1015,42	8,6	10,1	9,7	1	1	1	1	1	1	1	1	1	0	1	-13,178295	275,496835	313,446777	0
15.01.2021	14:32:00	0	60,429327	4,553788	2,45625	300,4488	0,995	85,184	0	1015,4	8,6	10,1	9,8	1	1	1	1	1	1	1	1	1	0	1	-14,869626	275,378496	311,194599	0
15.01.2021	14:32:01	0	60,429327	4,553788	2,45625	300,4488	0,995	85,184	0	1015,4	8,6	10,1	9,8	1	1	1	1	1	1	1	1	1	0	1	-14,164905	275,514488	312,54389	0
15.01.2021	14:32:02	0	60,429265	4,895354	2,304	302,0688	1,001	85,166	0	1015,44	8,6	10,1	9,7	1	1	1	1	1	1	1	1	1	0	1	-12,825934	275,524124	313,928567	0
15.01.2021	14:32:03	0	60,195433	2,504586	2,17125	298,6488	0,995	85,156	0	1015,28	8,5	10,1	9,8	1	1	1	1	1	1	1	1	1	0	1	-15,64482	275,423188	310,63113	0
15.01.2021	14:32:04	0	60,078487	3,415367	2,046	322,6752	0,994	85,14	0	1015,36	8,6	10,1	9,7	1	1	1	1	1	1	1	1	1	0	1	-11,275546	275,528943	315,501818	0
15.01.2021	14:32:05	0	60,195308	2,959986	2,16225	300,78	1	85,135	0	1015,34	8,6	10,1	9,7	1	1	1	1	1	1	1	1	1	0	1	-12,755462	275,439175	313,596248	0
15.01.2021	14:32:06	0	60,078362	3,984599	2,37375	309,2292	0,996	85,12	0	1015,4	8,6	10,1	9,7	1	1	1	1	1	1	1	1	1	0	1	-12,684989	275,419992	313,575818	0
15.01.2021	14:32:07	0	60,0783	3,529196	2,451	301,4532	0,992	85,107	0	1015,36	8,6	10,1	9,8	1	1	1	1	1	1	1	1	1	0	1	-15,292459	275,383279	310,794423	0
15.01.2021	14:32:08	0	60,312005	3,529219	2,445	300,4416	0,995	85,098	0	1015,38	8,6	10,1	9,7	1	1	1	1	1	1	1	1	1	0	1	-14,799154	275,508067	311,879185	0
15.01.2021	14:32:09	0	60,078175	3,415375	2,3805	296,4744	0,992	85,108	0	1015,3	8,6	10,1	9,7	1	1	1	1	1	1	1	1	1	0	1	-17,829457	275,562714	309,108144	0
15.01.2021	14:32:10	0	60,31188	2,959993	2,21325	329,6484	0,993	85,093	0	1015,24	8,6	10,1	9,7	1	1	1	1	1	1	1	1	1	0	1	-13,883016	275,533764	312,917218	0
15.01.2021	14:32:11	0	59,610517	2,618457	2,10525	319,986	0,992	85,091	0	1015,46	8,6	10,1	9,7	1	1	1	1	1	1	1	1	1	0	1	-17,970402	275,383279	308,11648	0
15.01.2021	14:32:12	0	60,545521	4,781533	2,004	319,14	0,995	85,091	0	1015,3	8,6	10,1	9,7	1	1	1	1	1	1	1	1	1	0	1	-16,420014	275,423188	309,855936	0
15.01.2021	14:32:13	0	60,077925	4,326125	2,00325	311,7852	0,993	85,077	0	1015,4	8,6	10,1	9,8	1	1	1	1	1	1	1	1	1	0	1	-14,869626	275,553059	312,022158	0
15.01.2021	14:32:14	0	60,545395	4,553845	1,97325	319,5468	0,995	85,069	0	1015,4	8,6	10,1	9,7	1	1	1	1	1	1	1	1	1	0	1	-16,208598	275,527337	310,561145	0
15.01.2021	14:32:15	0	60,077801	3,301539	1,923	316,6092	0,993	85,073	0	1015,46	8,6	10,1	9,7	1	1	1	1	1	1	1	1	1	0	1	-14,235377	275,549842	312,641142	0
15.01.2021	14:32:16	0	59,843973	2,846139	1,87275	330,0624	0,992	85,072	0	1015,2	8,6	10,1	9,8	1	1	1	1	1	1	1	1	1	0	1	-18,181818	275,423188	308,094132	0
15.01.2021	14:32:17	0	59,960793	2,960004	1,80225	313,9776	0,996	85,063	0	1015,4	8,6	10,1	9,7	1	1	1	1	1	1	1	1	1	0	1	-13,883016	275,419992	312,377791	0
15.01.2021	14:32:18	0	60,428261	3,301544	1,68825	315,8208	0,989	85,065	0	1015,3	8,6	10,1	9,7	1	1	1	1	1	1	1	1	1	0	1	-15,292459	275,4152	310,94564	0
15.01.2021	14:32:19	0	60,194433	4,098471	1,56225	326,2608	0,989	85,041	0	1015,42	8,6	10,1	9,7	1	1	1	1	1	1	1	1	1	0	1	-16,913319	275,504857	309,749797	0
15.01.2021	14:32:20	0	59,960606	2,732315	1,43025	324,7596	0,989	85,041	0	1015,34	8,6	10,1	9,7	1	1	1	1	1	1	1	1	1	0	1	-12,755462	275,378496	313,308764	0
15.01.2021	14:32:21	0	60,077426	3,415396	1,4325	330,7104	0,982	85,015	0	1015,36	8,6	10,1	9,7	1	1	1	1	1	1	1	1	1	0	1	-13,883016	275,453574	312,536942	0
15.01.2021	14:32:22	0	60,428009	4,781528	1,43025	338,3208	0,987	85,018	0	1015,5	8,6	10,1	9,8	1	1	1	1	1	1	1	1	1	0	1	-16,772375	275,546625	310,088881	0
15.01.2021	14:32:23	0	60,194183	4,553838	1,4085	325,2672	0,989	85,013	0	1015,38	8,6	10,1	9,8	1	1	1	1	1	1	1	1	1	0	1	-12,966878	275,495231	313,650586	0
15.01.2021	14:32:24	0	60,427884	4,212328	1,5015	323,2692	0,988	85,024	0	1015,42	8,6	10,1	9,7	1	1	1	1	1	1	1	1	1	0	1	-9,725159	275,394446	316,414615	0
15.01.2021	14:32:25	0	60,194057	3,301556	1,5555	324,7308	0,98	85,004	0	1015,22	8,6	10,1	9,7	1	1	1	1	1	1	1	1	1	0	1	-13,03735	275,419992	313,223457	0
15.01.2021	14:32:26	0	59,726469	2,390783	1,68225	326,2968	0,982	84,994	0	1015,26	8,5	10,1	9,7	1	1	1	1	1	1	1	1	1	0	1	-11,768851	275,4152	314,469248	0
15.01.2021	14:32:27	0	60,310814	4,553875	1,698	328,2192	0,984	85,009	0	1015,3	8,6	10,1	9,7	1	1	1	1	1	1	1	1	1	0	1	-14,235377	275,514488	312,473418	0
15.01.2021	14:32:28	0	60,19387	4,667724	1,7325	308,4408	0,981	85,007	0	1015,32	8,6	10,1	9,7	1	1	1	1	1	1	1	1	1	0	1	-13,178295	275,386469	312,923696	0
15.01.2021	14:32:29	0	60,076926	3,073869	1,71225	326,3544	0,98	85,005	0	1015,42	8,6	10,1	9,7	1	1	1	1	1	1	1	1	1	0	1	-17,758985	275,540194	309,071754	0
15.01.2021	14:32:30	0	60,310625	4,895423	1,779	321,1452	0,987	85,015	0	1015,34	8,6	10,1	9,7	1	1	1	1	1	1	1	1	1	0	1	-13,742072	275,412005	312,480892	0
15.01.2021	14:32:31	0	60,310562	4,440037	1,8705	312,516	0,985	85,025	0	1015,46	8,6	10,1	9,7	1	1	1	1	1	1	1	1	1	0	1	-18,675123	275,5177	308,048904	0
15.01.2021	14:32:32	0	59,959857	3,415415	1,89375	313,9956	0,981	85,023	0	1015,3	8,6	10,1	9,7	1	1	1	1	1	1	1	1	1	0	1	-15,081043	275,445573	311,300992	0
15.01.2021	14:32:33	0	59,959795	4,553861	1,84875	302,8032	0,983	85,035	0	1015,38	8,6	10,1	9,8	1	1	1	1	1	1	1	1	1	0	1	-16,138125	275,381685	309,941204	0
15.01.2021	14:32:34	0	59,959732	4,781585	1,76925	304,7112	0,982	85,029	0	1015,38	8,6	10,1	9,7	1	1	1	1	1	1	1	1	1	0	1	-15,715292	275,520911	311,02397	0
15.01.2021	14:32:35	0	59,842789	3,187706	1,824	300,8664	0,981	85,049	0	1015,38	8,6	10,1	9,8	1	1	1	1	1	1	1	1	1	0	1	-13,6716	275,561104	313,258363	0
15.01.2021	14:32:36	0	60,076488	3,756964	1,8645	303,84	0,978	85,057	0	1015,4	8,6	10,1	9,7	1	1	1	1	1	1	1	1	1	0	1	-15,715292	275,506462	310,955435	0
15.01.2021	14:32:37	0	60,076425	3,870813	1,82625	298,6236	0,979	85,058	0	1015,42	8,6	10,1	9,7	1	1	1	1	1	1	1	1	1	0	1	-16,349542	275,5177	310,374485	0
15.01.2021	14:32:38	0	60,076362	3,415425	1,7115	308,0232	0,982	85,051	0	1015,3	8,6	10,1	9,7	1	1	1	1	1	1	1	1	1	0	1	-14,728682	275,410408	311,486715	0
15.01.2021	14:32:39	0	59,95942	2,960019	1,70625	303,804	0,983	85,073	0	1015,34	8,6	10,1	9,8	1	1	1	1	1	1	1	1	1	0	1	-17,054264	275,4152	309,183836	0
15.01.2021	14:32:40	0	59,959357	3,529255	1,73325	306,1044	0,98	85,056	0	1015,36	8,6	10,1	9,8	1	1	1	1	1	1	1	1	1	0	1	-18,604651	275,554668	308,294768	0
15.01.2021	14:32:41	0	59,842415	3,187716	1,74975	320,184	0,974	85,078	0	1015,34	8,6	10,1	9,8	1	1	1	1	1	1	1	1	1	0	1	-17,336152	275,475994	309,190092	0
15.01.2021	14:32:42	0	59,842353	2,846193	1,7595	306,504	0,969	85,085	0	1015,36	8,6	10,1	9,7	1	1	1	1	1	1	1	1	1	0	1	-16,913319	275,548234	309,955568	0
15.01.2021	14:32:43	0	60,076049	3,52926	1,70025	291,1212	0,98	85,087	0	1015,34	8,6	10,1	9,8	1	1	1	1	1	1	1	1	1	0	1	-12,05074	275,412005	314,172224	0
15.01.2021	14:32:44	0	59,959107	4,326218	1,674	303,2496	0,985	85,093	0	1015,32	8,6	10,1	9,7	1	1	1	1	1	1	1	1	1	0	1	-10,288936	275,564323	316,656304	0
15.01.2021	14:32:45	0	60,426562	4,667764	1,6725	311,4216	0,982	85,095	0	1015,36	8,6	10,1	9,7	1	1	1	1	1	1	1	1	1	0	1	-13,530655	275,509672	313,155296	0
15.01.2021	14:32:46	0	60,309619	4,781614	1,68	327,114	0,975	85,104	0	1015,38	8,6	10,1	9,7	1	1	1	1	1	1	1	1	1	0	1	-17,124736	275,370526	308,901744	0
15.01.2021	14:32:47	0	59,95892	3,643115	1,74675	305,3772	0,983	85,097	0	1015,48	8,6	10,1	9,8	1	1	1	1	1	1	1	1	1	0	1	-16,27907	275,416797	309,966598	0
15.01.2021	14:32:48	0	60,309494	4,667743	1,791	296,8524	0,98	85,112	0	1015,36	8,6	10,1	9,8	1	1	1	1	1	1	1	1	1	0	1	-14,940099	275,370526	311,086381	0
15.01.2021	14:32:49	0	59,725037	2,732339	1,72125	295,542	0,985	85,108	0	1015,38	8,6	10,1	9,8	1	1	1	1	1	1	1	1	1	0	1	-8,879493	275,4152	317,358607	0
15.01.2021	14:32:50	0	60,192489	2,27695	1,6125	303,5412	0,981	85,104	0	1015,34	8,6	10,1	9,8	1	1	1	1	1	1	1	1	1	0	1	-16,067653	275,375307	309,981472	0
15.01.2021	14:32:51	0	60,075548	3,301579	1,74825	312,4836	0,98	85,123	0	1015,42	8,6	10,1	9,8	1	1	1	1	1	1	1	1	1	0	1	-15,785765	275,477596	310,748077	0
15.01.2021	14:32:52	0	59,72485	3,984667	1,83075	309,9996	0,978	85,126	0	1015,5	8,6	10,1	9,8	1	1	1	1	1	1	1	1	1	0	1	-13,319239	275,376902	312,737436	0
15.01.2021	14:32:53	0	59,958544	2,96004	1,8405	302,0796	0,98	85,129	0	1015,34	8,6	10,1	9,8	1	1	1	1	1	1	1	1	1	0	1	-12,684989	275,48561	313,886851	0
15.01.2021	14:32:54	0	60,425571	4,553909	1,85175	299,0484	0,974	85,121	0	1015,4	8,6	10	9,8	1	1	1	1	1	1	1	1	1	0	1	-11,486963	275,535371	315,320897	0
15.01.2021	14:32:55	0	60,075297	4,440064	1,86975	313,1892	0,977	85,132	0	1015,3	8,6	10,1	9,8	1	1	1	1	1	1	1	1	1	0	1	-15,785765	275,528943	310,9916	0
15.01.2021	14:32:56	0	59,958356	4,553914	1,95375	302,4	0,978	85,149	0	1015,38	8,6	10,1	9,8	1	1	1	1	1	1	1	1	1	0	1	-17,054264	275,53055	309,730723	0
15.01.2021	14:32:57	0	60,192049	2,73235	1,99575	309,1752	0,981	85,156	0	1015,44	8,6	10,1	9,8	1	1	1	1	1	1	1	1	1	0	1	-13,248767	275,429581	313,057478	0
15.01.2021	14:32:58	0	59,958231	2,618503	1,98225	313,1856	0,977	85,166	0	1015,36	8,6	10,1	9,8	1	1	1	1	1	1	1	1	1	0	1	-16,420014	275,488817	310,167031	0
15.01.2021	14:32:59	0	60,191923	3,415441	2,0025	319,5468	0,978	85,146	0	1015,38	8,6	10,1	9,8	1	1	1	1	1	1	1	1	1	0	1	-14,023961	275,375307	312,025164	0
15.01.2021	14:33:00	0	60,07492	4,89547	2,02425	303,8472	0,981	85,17	0	1015,34	8,6	10,1	9,8	1	1	1	1	1	1	1	1	1	0	1	-12,896406	275,396041	313,250927	0
15.01.2021	14:33:01	0	60,07492	4,89547	2,02425	303,8472	0,981	85,17	0	1015,34	8,6	10,1	9,8	1	1	1	1	1	1	1	1	1	0	1	-9,090909	275,565933	317,86197	0
15.01.2021	14:33:02	0	60,191734	4,667776	1,83975	302,7636	0,977	85,188	0	1015,38	8,6	10,1	9,8	1	1	1	1	1	1	1	1	1	0	1	-14,517266	275,408812	311,690566	0
15.01.2021	14:33:03	0	60,074794	3,073903	1,653	282,0888	0,981	85,171	0	1015,34	8,6	10,1	9,8	1	1	1	1	1	1	1	1	1	0	1	-12,05074	275,412005	314,172224	0
15.01.2021	14:33:04	0	60,074732	4,212413	1,596	287,7192	0,976	85,202	0	1015,36	8,6	10,1	9,7	1	1	1	1	1	1	1	1	1	0	1	-12,262156	275,419992	313,998651	0
15.01.2021	14:33:05	0	59,957792	4,440113	1,548	305,3592	0,975	85,198	0	1015,32	8,6	10,1	9,7	1	1	1	1	1	1	1	1	1	0	1	-17,970402	275,543409	308,875594	0
15.01.2021	14:33:06	0	60,191483	2,960059	1,5555	304,9848	0,973	85,197	0	1015,34	8,6	10,1	9,8	1	1	1	1	1	1	1	1	1	0	1	-17,547569	275,49042	309,04708	0
15.01.2021	14:33:07	0	59,957666	4,212394	1,6725	276,9156	0,98	85,211	0	1015,28	8,6	10,1	9,8	1	1	1	1	1	1	1	1	1	0	1	-12,755462	275,557886	314,159228	0
15.01.2021	14:33:08	0	59,957604	3,870873	1,695	310,284	0,976	85,206	0	1015,46	8,6	10,1	9,7	1	1	1	1	1	1	1	1	1	0	1	-16,138125	275,493628	310,471733	0
15.01.2021	14:33:09	0	59,606912	2,276972	1,7295	282,438	0,981	85,226	0	1015,58	8,6	10,1	9,8	1	1	1	1	1	1	1	1	1	0	1	-13,601128	275,373713	312,440448	0
15.01.2021	14:33:10	0	60,191231	4,440097	1,9215	300,492	0,982	85,225	0	1015,2	8,6	10,1	9,8	1	1	1	1	1	1	1	1	1	0	1	-15,221987	275,466382	311,258687	0
15.01.2021	14:33:11	0	59,840539	3,757007	2,19	301,698	0,983	85,236	0	1015,42	8,6	10,1	9,8	1	1	1	1	1	1	1	1	1	0	1	-13,601128	275,367339	312,410259	0
15.01.2021	14:33:12	0	59,957353	2,618522	2,39025	320,0328	0,981	85,243	0	1015,44	8,6	10,1	9,8	1	1	1	1	1	1	1	1	1	0	1	-15,292459	275,43118	311,021361	0
15.01.2021	14:33:13	0	60,074166	4,440104	2,21625	330,3504	0,986	85,236	0	1015,18	8,6	10,1	9,8	1	1	1	1	1	1	1	1	1	0	1	-13,6716	275,37212	312,362428	0
15.01.2021	14:33:14	0	60,074103	4,212408	2,076	314,7768	0,985	85,255	0	1015,44	8,7	10,1	9,8	1	1	1	1	1	1	1	1	1	0	1	-14,164905	275,479199	312,376535	0
15.01.2021	14:33:15	0	59,840289	2,504677	2,13675	306,162	0,981	85,27	0	1015,36	8,6	10,1	9,8	1	1	1	1	1	1	1	1	1	0	1	-12,473573	275,378496	313,590653	0
15.01.2021	14:33:16	0	60,073977	3,757017	2,26425	315,846	0,988	85,27	0	1015,46	8,6	10,1	9,8	1	1	1	1	1	1	1	1	1	0	1	-11,557435	275,52573	315,204686	0
15.01.2021	14:33:17	0	60,190789	4,098566	2,568	307,5768	0,985	85,264	0	1015,42	8,6	10,1	9,8	1	1	1	1	1	1	1	1	1	0	1	-17,547569	275,402425	308,630007	0
15.01.2021	14:33:18	0	60,073851	4,895512	2,613	319,1688	0,985	85,289	0	1015,36	8,6	10,1	9,8	1	1	1	1	1	1	1	1	1	0	1	-14,446794	275,443973	311,927659	0
15.01.2021	14:33:19	0	60,073788	4,440117	2,3895	337,0644	0,984	85,282	0	1015,32	8,6	10,1	9,8	1	1	1	1	1	1	1	1	1	0	1	-14,305849	275,561104	312,624114	0
15.01.2021	14:33:20	0	59,95685	3,073929	2,24325	301,2768	0,986	85,286	0	1015,32	8,6	10,1	9,8	1	1	1	1	1	1	1	1	1	0	1	-13,248767	275,492024	313,353487	0
15.01.2021	14:33:21	0	59,839913	4,440122	2,28825	299,3688	0,987	85,294	0	1015,36	8,6	10,1	9,8	1	1	1	1	1	1	1	1	1	0	1	-16,701903	275,543409	310,144093	0
15.01.2021	14:33:22	0	60,073599	2,61855	2,3595	299,4084	0,978	85,293	0	1015,42	8,6	10,1	9,7	1	1	1	1	1	1	1	1	1	0	1	-14,164905	275,482404	312,391734	0
15.01.2021	14:33:23	0	60,073536	3,75703	2,475	309,5244	0,982	85,31	0	1015,4	8,6	10,1	9,8	1	1	1	1	1	1	1	1	1	0	1	-14,376321	275,381685	311,703008	0
15.01.2021	14:33:24	0	59,839724	3,073935	2,595	288,792	0,986	85,31	0	1015,34	8,6	10,1	9,8	1	1	1	1	1	1	1	1	1	0	1	-13,03735	275,455174	313,390195	0
15.01.2021	14:33:25	0	59,722787	2,732388	2,619	308,0484	0,984	85,317	0	1015,44	8,6	10,1	9,8	1	1	1	1	1	1	1	1	1	0	1	-20,930233	275,541801	305,908135	0
15.01.2021	14:33:26	0	60,307096	4,895531	2,646	315,2232	0,982	85,324	0	1015,2	8,6	10,1	9,8	1	1	1	1	1	1	1	1	1	0	1	-14,65821	275,458376	311,784511	0
15.01.2021	14:33:27	0	59,95599	4,440135	2,592	311,7276	0,981	85,334	0	1015,34	8,6	10	9,8	1	1	1	1	1	1	1	1	1	0	1	-15,433404	275,562714	311,504197	0
15.01.2021	14:33:28	0	59,839473	4,440138	2,35275	311,778	0,984	85,326	0	1015,16	8,6	10,1	9,8	1	1	1	1	1	1	1	1	1	0	1	-15,362932	275,503253	311,292574	0
15.01.2021	14:33:29	0	59,722537	4,32629	2,148	314,8488	0,987	85,337	0	1015,34	8,6	10,1	9,8	1	1	1	1	1	1	1	1	1	0	1	-13,248767	275,549842	313,627752	0
15.01.2021	14:33:30	0	59,838928	2,846245	1,94625	318,4488	0,99	85,348	0	1015,22	8,6	10	9,8	1	1	1	1	1	1	1	1	1	0	1	-18,181818	275,437575	308,162312	0
15.01.2021	14:33:31	0	59,605538	2,618547	1,8375	300,8808	0,987	85,352	0	1015,36	8,6	10,1	9,8	1	1	1	1	1	1	1	1	1	0	1	-13,107822	275,55145	313,776329	0
15.01.2021	14:33:32	0	60,189842	3,984747	1,78725	310,806	0,989	85,361	0	1015,34	8,6	10,1	9,8	1	1	1	1	1	1	1	1	1	0	1	-13,03735	275,42159	313,231028	0
15.01.2021	14:33:33	0	59,839159	2,618549	1,8105	294,1128	0,988	85,365	0	1015,38	8,6	10,1	9,8	1	1	1	1	1	1	1	1	1	0	1	-17,336152	275,364152	308,660144	0
15.01.2021	14:33:34	0	60,072843	4,212451	1,845	300,1428	0,987	85,351	0	1015,34	8,5	10,1	9,8	1	1	1	1	1	1	1	1	1	0	1	-13,883016	275,424786	312,400507	0
15.01.2021	14:33:35	0	59,721742	3,301652	1,7805	302,0904	0,992	85,357	0	1015,24	8,6	10	9,8	1	1	1	1	1	1	1	1	1	0	1	-18,111346	275,55145	308,772805	0
15.01.2021	14:33:36	0	60,072296	4,781706	1,614	345,0672	0,989	85,382	0	1015,4	8,6	10	9,8	1	1	1	1	1	1	1	1	1	0	1	-16,560958	275,509672	310,124993	0
15.01.2021	14:33:37	0	59,605162	2,504704	1,45125	349,9308	0,992	85,385	0	1015,36	8,6	10,1	9,8	1	1	1	1	1	1	1	1	1	0	1	-14,869626	275,38009	311,20215	0
15.01.2021	14:33:38	0	59,955298	3,529358	1,3485	318,1536	0,996	85,378	0	1015,34	8,6	10	9,8	1	1	1	1	1	1	1	1	1	0	1	-14,305849	275,501648	312,342046	0
15.01.2021	14:33:39	0	59,955235	4,326312	1,3395	321,8652	0,997	85,389	0	1015,42	8,6	10	9,8	1	1	1	1	1	1	1	1	1	0	1	-13,953488	275,383279	312,133394	0
15.01.2021	14:33:40	0	60,072464	2,049307	1,38	318,4164	0,991	85,388	0	1015,36	8,6	10,1	9,8	1	1	1	1	1	1	1	1	1	0	1	-12,896406	275,404022	313,288733	0
15.01.2021	14:33:41	0	59,838656	2,960111	1,34475	342,3852	0,988	85,358	0	1015,24	8,6	10,1	9,8	1	1	1	1	1	1	1	1	1	0	1	-13,460183	275,388064	312,649362	0
15.01.2021	14:33:42	0	59,838593	3,870917	1,374	340,218	0,988	85,368	0	1015,32	8,6	10,1	9,8	1	1	1	1	1	1	1	1	1	0	1	-14,235377	275,527337	312,534365	0
15.01.2021	14:33:43	0	60,189147	4,09862	1,374	311,832	0,995	85,383	0	1015,34	8,5	10,1	9,8	1	1	1	1	1	1	1	1	1	0	1	-12,614517	275,391255	313,510141	0
15.01.2021	14:33:44	0	59,838468	3,643219	1,46325	322,4916	0,994	85,386	0	1015,42	8,6	10,1	9,8	1	1	1	1	1	1	1	1	1	0	1	-17,195208	275,553059	309,696577	0
15.01.2021	14:33:45	0	60,072148	3,643221	1,455	336,726	0,992	85,385	0	1015,32	8,6	10,1	9,8	1	1	1	1	1	1	1	1	1	0	1	-14,164905	275,477596	312,368937	0
15.01.2021	14:33:46	0	60,188535	5,009432	1,5165	320,7636	0,991	85,378	0	1015,36	8,7	10	9,8	1	1	1	1	1	1	1	1	1	0	1	-16,560958	275,553059	310,330826	0
15.01.2021	14:33:47	0	59,721407	3,073971	1,5585	313,2324	0,991	85,377	0	1015,4	8,6	10,1	9,8	1	1	1	1	1	1	1	1	1	0	1	-12,684989	275,522518	314,061892	0
15.01.2021	14:33:48	0	60,071959	3,301674	1,65225	326,3652	0,994	85,396	0	1015,4	8,6	10,1	9,8	1	1	1	1	1	1	1	1	1	0	1	-11,275546	275,400829	314,894468	0
15.01.2021	14:33:49	0	59,721282	3,87093	1,67325	307,2024	0,994	85,392	0	1015,46	8,6	10,1	9,8	1	1	1	1	1	1	1	1	1	0	1	-16,701903	275,496835	309,923168	0
15.01.2021	14:33:50	0	60,071412	2,504721	1,749	300,2472	0,993	85,384	0	1015,26	8,6	10	9,8	1	1	1	1	1	1	1	1	1	0	1	-11,698379	275,5177	315,025648	0
15.01.2021	14:33:51	0	59,838027	3,643232	1,82025	310,2588	0,994	85,381	0	1015,28	8,7	10,1	9,8	1	1	1	1	1	1	1	1	1	0	1	-11,909796	275,538586	314,913316	0
15.01.2021	14:33:52	0	60,188155	4,212489	1,863	321,8472	0,996	85,401	0	1015,4	8,7	10	9,8	1	1	1	1	1	1	1	1	1	0	1	-10,42988	275,527337	316,339862	0
15.01.2021	14:33:53	0	59,954772	3,984789	2,0925	304,362	0,991	85,395	0	1015,4	8,7	10,1	9,8	1	1	1	1	1	1	1	1	1	0	1	-11,839323	275,416797	314,406344	0
15.01.2021	14:33:54	0	60,071159	2,84628	2,31975	314,5464	0,995	85,406	0	1015,5	8,6	10	9,8	1	1	1	1	1	1	1	1	1	0	1	-12,473573	275,480801	314,075466	0
15.01.2021	14:33:55	0	59,837775	3,757091	2,3325	311,0616	0,991	85,394	0	1015,28	8,6	10,1	9,8	1	1	1	1	1	1	1	1	1	0	1	-14,65821	275,554668	312,241209	0
15.01.2021	14:33:56	0	59,954583	2,846282	2,34075	321,4944	0,996	85,398	0	1015,54	8,6	10,1	9,8	1	1	1	1	1	1	1	1	1	0	1	-15,433404	275,451973	310,978968	0
15.01.2021	14:33:57	0	59,72036	2,846284	2,25525	307,5372	0,99	85,388	0	1015,4	8,6	10	9,8	1	1	1	1	1	1	1	1	1	0	1	-13,812544	275,556277	313,09451	0
15.01.2021	14:33:58	0	60,070906	3,415542	2,16975	319,2912	0,993	85,41	0	1015,38	8,7	10	9,8	1	1	1	1	1	1	1	1	1	0	1	-11,768851	275,501648	314,879044	0
15.01.2021	14:33:59	0	59,603783	3,187841	2,076	317,4084	0,989	85,397	0	1015,28	8,7	10,1	9,8	1	1	1	1	1	1	1	1	1	0	1	-17,26568	275,37212	308,768347	0
15.01.2021	14:34:00	0	60,071137	4,554063	2,382	299,7756	0,989	85,381	0	1015,34	8,7	10,1	9,8	1	1	1	1	1	1	1	1	1	0	1	-12,614517	275,495231	314,002947	0
15.01.2021	14:34:01	0	60,071137	4,554063	2,382	299,7756	0,989	85,381	0	1015,34	8,7	10,1	9,8	1	1	1	1	1	1	1	1	1	0	1	-14,023961	275,405618	312,168742	0
15.01.2021	14:34:02	0	59,720464	2,960143	2,5665	302,0292	0,993	85,385	0	1015,4	8,6	10,1	9,8	1	1	1	1	1	1	1	1	1	0	1	-12,332629	275,418395	313,920609	0
15.01.2021	14:34:03	0	59,719983	3,757106	2,43375	303,9012	0,996	85,391	0	1015,38	8,7	10	9,8	1	1	1	1	1	1	1	1	1	0	1	-13,03735	275,386469	313,06464	0
15.01.2021	14:34:04	0	59,603051	3,301701	2,241	313,2144	0,998	85,385	0	1015,42	8,6	10	9,8	1	1	1	1	1	1	1	1	1	0	1	-11,134602	275,394446	315,005172	0
15.01.2021	14:34:05	0	59,719857	3,073999	2,1015	299,1672	0,994	85,389	0	1015,4	8,7	10	9,8	1	1	1	1	1	1	1	1	1	0	1	-14,65821	275,432778	311,663187	0
15.01.2021	14:34:06	0	59,720212	3,984816	2,01675	320,4756	0,993	85,382	0	1015,36	8,7	10,1	9,8	1	1	1	1	1	1	1	1	1	0	1	-19,802678	275,541801	307,035689	0
15.01.2021	14:34:07	0	59,837018	4,554077	2,028	289,6308	0,998	85,382	0	1015,42	8,7	10,1	9,8	1	1	1	1	1	1	1	1	1	0	1	-12,755462	275,567543	314,205058	0
15.01.2021	14:34:08	0	59,836536	3,98482	2,10375	293,7672	0,996	85,376	0	1015,44	8,7	10	9,8	1	1	1	1	1	1	1	1	1	0	1	-11,980268	275,450373	314,424519	0
15.01.2021	14:34:09	0	60,070209	4,554082	2,24625	296,4888	0,995	85,372	0	1015,44	8,7	10	9,8	1	1	1	1	1	1	1	1	1	0	1	-14,587738	275,384874	311,506698	0
15.01.2021	14:34:10	0	59,836829	2,504746	2,424	320,2272	0,995	85,374	0	1015,5	8,7	10,1	9,8	1	1	1	1	1	1	1	1	1	0	1	-13,6716	275,424786	312,611923	0
15.01.2021	14:34:11	0	59,719479	3,870974	2,45475	298,5912	0,995	85,372	0	1015,38	8,6	10	9,8	1	1	1	1	1	1	1	1	1	0	1	-16,349542	275,412005	309,873422	0
15.01.2021	14:34:12	0	59,953151	2,960158	2,44275	320,7564	0,99	85,371	0	1015,22	8,7	10	9,8	1	1	1	1	1	1	1	1	1	0	1	-17,195208	275,49844	309,437471	0
15.01.2021	14:34:13	0	60,069956	2,960159	2,481	304,9848	0,993	85,369	0	1015,46	8,6	10	9,8	1	1	1	1	1	1	1	1	1	0	1	-17,054264	275,359373	308,919403	0
15.01.2021	14:34:14	0	59,602422	3,187865	2,5065	304,0236	0,998	85,365	0	1015,42	8,5	10	9,8	1	1	1	1	1	1	1	1	1	0	1	-13,03735	275,5177	313,686677	0
15.01.2021	14:34:15	0	59,836094	2,732458	2,5215	293,3244	0,989	85,377	0	1015,4	8,7	10	9,8	1	1	1	1	1	1	1	1	1	0	1	-16,560958	275,562714	310,376643	0
15.01.2021	14:34:16	0	59,953318	2,732459	2,484	291,9168	0,996	85,388	0	1015,38	8,7	10,1	9,8	1	1	1	1	1	1	1	1	1	0	1	-15,926709	275,557886	310,987981	0
15.01.2021	14:34:17	0	59,835968	4,440248	2,343	287,7768	0,997	85,38	0	1015,48	8,7	10	9,8	1	1	1	1	1	1	1	1	1	0	1	-16,842847	275,514488	309,865948	0
15.01.2021	14:34:18	0	59,952772	4,667955	2,22225	298,6812	1	85,372	0	1015,46	8,6	10	9,8	1	1	1	1	1	1	1	1	1	0	1	-12,966878	275,37212	313,067149	0
15.01.2021	14:34:19	0	59,718974	3,187874	2,1765	297,5904	0,999	85,378	0	1015,44	8,7	10	9,8	1	1	1	1	1	1	1	1	1	0	1	-10,359408	275,416797	315,88626	0
15.01.2021	14:34:20	0	59,718911	3,529433	2,2665	308,1096	0,998	85,378	0	1015,34	8,6	10	9,8	1	1	1	1	1	1	1	1	1	0	1	-16,560958	275,512883	310,140221	0
15.01.2021	14:34:21	0	59,601982	3,529435	2,25825	303,5412	0,997	85,364	0	1015,36	8,7	10	9,8	1	1	1	1	1	1	1	1	1	0	1	-14,728682	275,561104	312,201281	0
15.01.2021	14:34:22	0	60,069806	4,89567	2,22075	307,5084	0,996	85,355	0	1015,4	8,7	10,1	9,8	1	1	1	1	1	1	1	1	1	0	1	-15,362932	275,413603	310,867599	0
15.01.2021	14:34:23	0	59,251257	2,618616	2,2965	308,844	1	85,345	0	1015,3	8,7	10	9,8	1	1	1	1	1	1	1	1	1	0	1	-11,627907	275,373713	314,413669	0
15.01.2021	14:34:24	0	59,952392	4,554117	2,29575	307,1448	0,998	85,341	0	1015,34	8,7	10	9,8	1	1	1	1	1	1	1	1	1	0	1	-14,446794	275,482404	312,109845	0
15.01.2021	14:34:25	0	59,718596	1,935501	2,4	326,3616	1,001	85,336	0	1015,4	8,7	10	9,8	1	1	1	1	1	1	1	1	1	0	1	-12,332629	275,561104	314,597335	0
15.01.2021	14:34:26	0	59,718533	4,554121	2,45325	335,682	0,999	85,331	0	1015,48	8,7	10	9,8	1	1	1	1	1	1	1	1	1	0	1	-19,450317	275,450373	306,954469	0
15.01.2021	14:34:27	0	59,602021	5,123389	2,5035	336,8592	1,001	85,33	0	1015,42	8,6	10,1	9,8	1	1	1	1	1	1	1	1	1	0	1	-16,490486	275,561104	310,439477	0
15.01.2021	14:34:28	0	59,718406	2,960182	2,46225	318,438	0,997	85,326	0	1015,34	8,7	10	9,8	1	1	1	1	1	1	1	1	1	0	1	-16,913319	275,424786	309,370204	0
15.01.2021	14:34:29	0	59,718762	2,163211	2,56575	325,9656	0,998	85,332	0	1015,48	8,6	10,1	9,8	1	1	1	1	1	1	1	1	1	0	1	-17,970402	275,524124	308,784099	0
15.01.2021	14:34:30	0	59,71828	3,074038	2,505	319,5576	0,988	85,315	0	1015,36	8,7	10	9,8	1	1	1	1	1	1	1	1	1	0	1	-17,477097	275,365745	308,526744	0
15.01.2021	14:34:31	0	59,601352	2,618626	2,4855	305,7732	0,992	85,311	0	1015,36	8,6	10	9,8	1	1	1	1	1	1	1	1	1	0	1	-21,353066	275,453574	305,066893	0
15.01.2021	14:34:32	0	59,601288	4,212575	2,38875	299,4264	0,99	85,321	0	1015,34	8,7	10	9,8	1	1	1	1	1	1	1	1	1	0	1	-14,305849	275,488817	312,281196	0
15.01.2021	14:34:33	0	59,951821	3,074043	2,29425	291,834	0,997	85,31	0	1015,38	8,7	10	9,8	1	1	1	1	1	1	1	1	1	0	1	-14,799154	275,373713	311,242421	0
15.01.2021	14:34:34	0	59,601162	3,529458	2,2605	313,1964	0,998	85,313	0	1015,5	8,6	10	9,8	1	1	1	1	1	1	1	1	1	0	1	-17,195208	275,362559	308,793544	0
15.01.2021	14:34:35	0	59,601099	3,301753	2,2725	294,354	0,992	85,292	0	1015,36	8,6	10	9,8	1	1	1	1	1	1	1	1	1	0	1	-10,852713	275,477596	315,681128	0
15.01.2021	14:34:36	0	60,068495	5,009559	2,24475	297,2808	0,99	85,294	0	1015,38	8,7	10	9,8	1	1	1	1	1	1	1	1	1	0	1	-11,41649	275,376902	314,640184	0
15.01.2021	14:34:37	0	59,484108	2,732488	2,1855	287,3592	0,991	85,294	0	1015,48	8,7	10	9,8	1	1	1	1	1	1	1	1	1	0	1	-13,742072	275,370526	312,284408	0
15.01.2021	14:34:38	0	59,717775	2,73249	2,1645	313,1892	0,997	85,293	0	1015,38	8,6	10	9,8	1	1	1	1	1	1	1	1	1	0	1	-11,909796	275,472789	314,601255	0
15.01.2021	14:34:39	0	59,367118	2,618637	2,199	309,8772	0,995	85,297	0	1015,38	8,7	10	9,8	1	1	1	1	1	1	1	1	1	0	1	-14,940099	275,554668	311,95932	0
15.01.2021	14:34:40	0	59,717648	3,984885	2,1525	325,5336	0,989	85,279	0	1015,24	8,7	10	9,8	1	1	1	1	1	1	1	1	1	0	1	-15,574348	275,419992	310,68646	0
15.01.2021	14:34:41	0	59,951313	3,187909	2,6505	284,4864	0,993	85,29	0	1015,26	8,6	10	9,8	1	1	1	1	1	1	1	1	1	0	1	-16,138125	275,368932	309,880807	0
15.01.2021	14:34:42	0	59,600657	3,871035	3,09225	322,1712	0,992	85,285	0	1015,44	8,6	10	9,8	1	1	1	1	1	1	1	1	1	0	1	-12,473573	275,427983	313,825097	0
15.01.2021	14:34:43	0	59,48373	2,504788	3,27825	309,8052	0,987	85,289	0	1015,3	8,6	10	9,8	1	1	1	1	1	1	1	1	1	0	1	-15,503876	275,381685	310,575453	0
15.01.2021	14:34:44	0	59,717395	3,415643	3,306	306,7812	0,992	85,304	0	1015,48	8,6	10	9,7	1	1	1	1	1	1	1	1	1	0	1	-15,926709	275,511277	310,766856	0
15.01.2021	14:34:45	0	59,600468	4,326457	3,30525	314,3988	0,989	85,293	0	1015,42	8,7	10	9,8	1	1	1	1	1	1	1	1	1	0	1	-12,121212	275,538586	314,7019	0
15.01.2021	14:34:46	0	59,950995	4,668022	3,27375	316,062	0,991	85,314	0	1015,36	8,5	10	9,8	1	1	1	1	1	1	1	1	1	0	1	-14,376321	275,480801	312,172717	0
15.01.2021	14:34:47	0	59,950932	3,301773	3,34125	317,4012	0,993	85,31	0	1015,38	8,6	10	9,8	1	1	1	1	1	1	1	1	1	0	1	-15,926709	275,364152	310,069587	0
15.01.2021	14:34:48	0	59,717142	3,529505	3,396	317,34	0,989	85,301	0	1015,36	8,6	10	9,7	1	1	1	1	1	1	1	1	1	0	1	-15,433404	275,509672	311,252548	0
15.01.2021	14:34:49	0	59,717078	4,895738	3,43875	314,046	0,996	85,316	0	1015,3	8,6	10	9,8	1	1	1	1	1	1	1	1	1	0	1	-15,715292	275,536979	311,100193	0
15.01.2021	14:34:50	0	59,600152	4,554177	3,30675	306,45	0,992	85,321	0	1015,56	8,6	10	9,8	1	1	1	1	1	1	1	1	1	0	1	-15,010571	275,48561	311,56127	0
15.01.2021	14:34:51	0	59,366363	2,846362	3,29175	311,7564	0,994	85,327	0	1015,46	8,6	10	9,8	1	1	1	1	1	1	1	1	1	0	1	-14,940099	275,549842	311,93642	0
15.01.2021	14:34:52	0	59,716888	3,871055	3,4815	312,4584	0,989	85,327	0	1015,5	8,7	10	9,8	1	1	1	1	1	1	1	1	1	0	1	-12,05074	275,367339	313,960646	0
15.01.2021	14:34:53	0	59,95055	4,668039	3,4965	308,16	0,991	85,334	0	1015,36	8,6	10	9,8	1	1	1	1	1	1	1	1	1	0	1	-14,517266	275,49844	312,115413	0
15.01.2021	14:34:54	0	59,483037	3,074076	3,4275	315,8496	0,992	85,308	0	1015,38	8,6	10	9,8	1	1	1	1	1	1	1	1	1	0	1	-14,869626	275,520911	311,869636	0
15.01.2021	14:34:55	0	59,717117	4,440334	3,37275	311,4	0,985	85,327	0	1015,36	8,7	10,1	9,8	1	1	1	1	1	1	1	1	1	0	1	-16,349542	275,466382	310,131133	0
15.01.2021	14:34:56	0	59,716635	5,351175	3,34725	309,1536	0,993	85,33	0	1015,38	8,6	10	9,8	1	1	1	1	1	1	1	1	1	0	1	-15,362932	275,538586	311,46018	0
15.01.2021	14:34:57	0	59,716572	3,871088	3,4395	308,0664	0,99	85,326	0	1015,28	8,6	10	9,7	1	1	1	1	1	1	1	1	1	0	1	-9,372798	275,410408	316,8426	0
15.01.2021	14:34:58	0	59,83337	3,643357	3,363	308,034	0,99	85,343	0	1015,28	8,6	10	9,8	1	1	1	1	1	1	1	1	1	0	1	-14,446794	275,540194	312,383946	0
15.01.2021	14:34:59	0	59,248997	3,074084	3,23325	312,786	0,991	85,343	0	1015,32	8,6	10	9,8	1	1	1	1	1	1	1	1	1	0	1	-13,460183	275,418395	312,793054	0
15.01.2021	14:35:00	0	59,716318	3,871072	2,94075	316,71	0,989	85,345	0	1015,38	8,6	10	9,8	1	1	1	1	1	1	1	1	1	0	1	-11,205074	275,538586	315,618038	0
15.01.2021	14:35:01	0	59,716318	3,871072	2,94075	316,71	0,989	85,345	0	1015,38	8,6	10	9,8	1	1	1	1	1	1	1	1	1	0	1	-16,208598	275,48561	310,363243	0
15.01.2021	14:35:02	0	59,36567	2,277103	2,78325	307,5912	0,99	85,333	0	1015,46	8,6	10	9,8	1	1	1	1	1	1	1	1	1	0	1	-12,966878	275,549842	313,909641	0
15.01.2021	14:35:03	0	59,482468	3,30182	2,75925	302,0076	0,995	85,334	0	1015,3	8,6	10	9,7	1	1	1	1	1	1	1	1	1	0	1	-14,305849	275,434377	312,023125	0
15.01.2021	14:35:04	0	59,248682	2,39096	2,85825	285,1884	0,991	85,338	0	1015,44	8,7	10	9,8	1	1	1	1	1	1	1	1	1	0	1	-17,829457	275,55145	309,054694	0
15.01.2021	14:35:05	0	59,365481	2,618672	2,877	289,512	0,99	85,316	0	1015,36	8,6	10	9,8	1	1	1	1	1	1	1	1	1	0	1	-13,530655	275,408812	312,677176	0
15.01.2021	14:35:06	0	59,248557	3,643372	2,82075	304,6284	0,992	85,323	0	1015,32	8,6	10	9,8	1	1	1	1	1	1	1	1	1	0	1	-12,755462	275,370526	313,271018	0
15.01.2021	14:35:07	0	59,482215	3,757229	3,02175	301,3236	0,987	85,312	0	1015,46	8,6	10	9,8	1	1	1	1	1	1	1	1	1	0	1	-17,970402	275,383279	308,11648	0
15.01.2021	14:35:08	0	59,248431	2,846387	3,13275	299,3832	0,995	85,296	0	1015,38	8,6	10	9,8	1	1	1	1	1	1	1	1	1	0	1	-13,389711	275,5177	313,334316	0
15.01.2021	14:35:09	0	59,71581	4,668077	3,24825	308,88	0,987	85,268	0	1015,32	8,6	10	9,8	1	1	1	1	1	1	1	1	1	0	1	-13,742072	275,400829	312,427942	0
15.01.2021	14:35:10	0	59,715747	5,123502	3,255	313,6032	0,99	85,27	0	1015,44	8,6	10	9,8	1	1	1	1	1	1	1	1	1	0	1	-19,87315	275,424786	306,410373	0
15.01.2021	14:35:11	0	59,365102	4,212659	3,1875	310,6332	0,989	85,27	0	1015,42	8,6	10	9,8	1	1	1	1	1	1	1	1	1	0	1	-19,732206	275,538586	307,090906	0
15.01.2021	14:35:12	0	59,481899	4,326543	3,069	297,9468	0,985	85,258	0	1015,4	8,6	10	9,7	1	1	1	1	1	1	1	1	1	0	1	-13,742072	275,404022	312,443067	0
15.01.2021	14:35:13	0	59,248116	2,846394	3,009	299,376	0,991	85,241	0	1015,5	8,6	10	9,8	1	1	1	1	1	1	1	1	1	0	1	-11,557435	275,546625	315,303821	0
15.01.2021	14:35:14	0	59,364913	3,871098	2,8455	295,5816	0,983	85,225	0	1015,34	8,6	10	9,8	1	1	1	1	1	1	1	1	1	0	1	-11,486963	275,519305	315,244682	0
15.01.2021	14:35:15	0	59,01427	3,415677	2,712	309,5388	0,988	85,218	0	1015,44	8,6	10	9,8	1	1	1	1	1	1	1	1	1	0	1	-15,997181	275,55145	310,88697	0
15.01.2021	14:35:16	0	59,598506	4,554265	2,62275	319,9788	0,985	85,206	0	1015,4	8,6	10	9,7	1	1	1	1	1	1	1	1	1	0	1	-15,574348	275,495231	311,043116	0
15.01.2021	14:35:17	0	59,247863	4,440384	2,55375	308,4624	0,98	85,2	0	1015,34	8,6	10	9,8	1	1	1	1	1	1	1	1	1	0	1	-16,560958	275,341861	309,329791	0
15.01.2021	14:35:18	0	59,48152	3,301826	2,40525	308,9376	0,982	85,169	0	1015,36	8,6	10	9,8	1	1	1	1	1	1	1	1	1	0	1	-14,164905	275,467984	312,323363	0
15.01.2021	14:35:19	0	59,247737	3,757274	2,277	300,1464	0,983	85,176	0	1015,38	8,6	10	9,7	1	1	1	1	1	1	1	1	1	0	1	-16,138125	275,533764	310,662109	0
15.01.2021	14:35:20	0	59,598252	4,098822	2,25975	305,6832	0,983	85,172	0	1015,36	8,6	10	9,8	1	1	1	1	1	1	1	1	1	0	1	-16,772375	275,405618	309,420327	0
15.01.2021	14:35:21	0	59,247611	4,440393	2,313	310,5864	0,982	85,178	0	1015,5	8,6	10	9,8	1	1	1	1	1	1	1	1	1	0	1	-14,869626	275,360966	311,111583	0
15.01.2021	14:35:22	0	59,481266	4,326565	2,28975	297,5004	0,984	85,173	0	1015,36	8,6	10	9,7	1	1	1	1	1	1	1	1	1	0	1	-14,869626	275,467984	311,618641	0
15.01.2021	14:35:23	0	59,247485	4,326567	2,2575	297,8856	0,985	85,174	0	1015,4	8,6	10	9,7	1	1	1	1	1	1	1	1	1	0	1	-10,782241	275,353003	315,161264	0
15.01.2021	14:35:24	0	59,364281	4,554256	2,32575	294,1308	0,984	85,162	0	1015,42	8,6	10	9,8	1	1	1	1	1	1	1	1	1	0	1	-14,799154	275,419992	311,461653	0
15.01.2021	14:35:25	0	58,896783	2,618699	2,4225	301,194	0,977	85,161	0	1015,38	8,6	10	9,8	1	1	1	1	1	1	1	1	1	0	1	-17,195208	275,353003	308,748297	0
15.01.2021	14:35:26	0	59,481013	4,326548	2,55	287,4204	0,982	85,164	0	1015,44	8,6	10	9,8	1	1	1	1	1	1	1	1	1	0	1	-16,983791	275,404022	309,201347	0
15.01.2021	14:35:27	0	59,130374	2,846415	2,66175	283,6908	0,98	85,144	0	1015,34	8,6	10	9,8	1	1	1	1	1	1	1	1	1	0	1	-12,473573	275,535371	314,334287	0
15.01.2021	14:35:28	0	58,896594	2,960273	2,6775	287,0496	0,977	85,142	0	1015,26	8,6	10	9,8	1	1	1	1	1	1	1	1	1	0	1	-12,403101	275,43118	313,91072	0
15.01.2021	14:35:29	0	59,130248	3,643436	2,64975	290,3796	0,981	85,13	0	1015,48	8,6	10	9,7	1	1	1	1	1	1	1	1	1	0	1	-14,517266	275,354596	311,433778	0
15.01.2021	14:35:30	0	59,247043	4,326557	2,7	294,1884	0,983	85,116	0	1015,34	8,6	10	9,8	1	1	1	1	1	1	1	1	1	0	1	-14,517266	275,474391	312,001381	0
15.01.2021	14:35:31	0	59,24698	3,985013	2,9145	285,2208	0,979	85,105	0	1015,38	8,6	10	9,7	1	1	1	1	1	1	1	1	1	0	1	-17,758985	275,512883	308,942194	0
15.01.2021	14:35:32	0	59,013201	2,846439	3,1605	279,126	0,972	85,106	0	1015,46	8,6	10	9,7	1	1	1	1	1	1	1	1	1	0	1	-19,732206	275,493628	306,877653	0
15.01.2021	14:35:33	0	59,129996	4,09885	3,2325	295,2	0,98	85,096	0	1015,38	8,6	10	9,8	1	1	1	1	1	1	1	1	1	0	1	-17,758985	275,506462	308,911742	0
15.01.2021	14:35:34	0	59,129933	3,41573	3,3525	297,9504	0,974	85,077	0	1015,32	8,6	10	9,7	1	1	1	1	1	1	1	1	1	0	1	-15,926709	275,346636	309,986645	0
15.01.2021	14:35:35	0	59,12987	4,895853	3,62625	300,1572	0,973	85,086	0	1015,38	8,6	10	9,8	1	1	1	1	1	1	1	1	1	0	1	-15,151515	275,488817	311,43553	0
15.01.2021	14:35:36	0	59,013363	4,212738	3,6645	295,5024	0,967	85,059	0	1015,44	8,6	10,1	9,7	1	1	1	1	1	1	1	1	1	0	1	-16,631431	275,37212	309,402597	0
15.01.2021	14:35:37	0	59,012886	5,009746	3,4695	294,2172	0,977	85,065	0	1015,36	8,6	10	9,7	1	1	1	1	1	1	1	1	1	0	1	-12,191684	275,345044	313,714134	0
15.01.2021	14:35:38	0	59,012823	4,554289	3,234	307,6236	0,974	85,051	0	1015,32	8,6	10	9,8	1	1	1	1	1	1	1	1	1	0	1	-15,574348	275,356188	310,384236	0
15.01.2021	14:35:39	0	59,480188	4,668149	3,02625	292,7052	0,967	85,045	0	1015,42	8,6	10	9,8	1	1	1	1	1	1	1	1	1	0	1	-10,711769	275,511277	315,981796	0
15.01.2021	14:35:40	0	58,895841	2,846434	3,01725	299,3796	0,97	85,052	0	1015,42	8,6	10	9,8	1	1	1	1	1	1	1	1	1	0	1	-15,997181	275,407215	310,203086	0
15.01.2021	14:35:41	0	59,129491	2,96031	3,048	305,7264	0,967	85,058	0	1015,34	8,6	10	9,7	1	1	1	1	1	1	1	1	1	0	1	-13,742072	275,367339	312,269315	0
15.01.2021	14:35:42	0	59,363141	4,668184	3,3135	298,5444	0,973	85,051	0	1015,48	8,6	10	9,7	1	1	1	1	1	1	1	1	1	0	1	-16,560958	275,48561	310,010882	0
15.01.2021	14:35:43	0	58,895652	4,212754	3,50025	299,7216	0,968	85,043	0	1015,44	8,6	10	9,7	1	1	1	1	1	1	1	1	1	0	1	-15,503876	275,362559	310,484876	0
15.01.2021	14:35:44	0	59,012445	4,895905	3,54225	296,8632	0,966	85,039	0	1015,22	8,6	10	9,7	1	1	1	1	1	1	1	1	1	0	1	-12,966878	275,434377	313,362096	0
15.01.2021	14:35:45	0	58,661814	3,529608	3,48825	297,972	0,967	85,019	0	1015,36	8,6	10	9,7	1	1	1	1	1	1	1	1	1	0	1	-15,292459	275,325954	310,522989	0
15.01.2021	14:35:46	0	58,895463	4,668194	3,3255	293,7636	0,971	85,017	0	1015,24	8,6	10	9,7	1	1	1	1	1	1	1	1	1	0	1	-18,957012	275,443973	307,41744	0
15.01.2021	14:35:47	0	59,012256	5,237488	3,23175	327,7908	0,967	85,029	0	1015,38	8,6	10	9,7	1	1	1	1	1	1	1	1	1	0	1	-13,812544	275,356188	312,14604	0
15.01.2021	14:35:48	0	59,012193	4,098881	3,03375	309,9528	0,962	85,005	0	1015,26	8,6	10	9,8	1	1	1	1	1	1	1	1	1	0	1	-15,503876	275,404022	310,681263	0
15.01.2021	14:35:49	0	58,544707	2,277171	2,86125	293,49	0,967	85,029	0	1015,46	8,6	10	9,7	1	1	1	1	1	1	1	1	1	0	1	-12,966878	275,34027	312,916338	0
15.01.2021	14:35:50	0	59,012067	3,871193	2,751	312,2352	0,968	85,013	0	1015,38	8,6	10	9,7	1	1	1	1	1	1	1	1	1	0	1	-14,587738	275,49042	312,006911	0
15.01.2021	14:35:51	0	58,661438	3,757336	2,71125	314,442	0,968	85,02	0	1015,46	8,6	10	9,7	1	1	1	1	1	1	1	1	1	0	1	-16,349542	275,548234	310,519345	0
15.01.2021	14:35:52	0	59,011941	4,326606	2,75175	320,796	0,962	85,009	0	1015,42	8,6	10	9,8	1	1	1	1	1	1	1	1	1	0	1	-13,601128	275,464781	312,871955	0
15.01.2021	14:35:53	0	58,895023	4,440493	2,8755	310,9968	0,963	85,003	0	1015,48	8,6	10	9,7	1	1	1	1	1	1	1	1	1	0	1	-15,926709	275,545017	310,926917	0
15.01.2021	14:35:54	0	58,89496	3,188048	2,71725	317,07	0,964	84,999	0	1015,46	8,6	10	9,7	1	1	1	1	1	1	1	1	1	0	1	-15,997181	275,453574	310,422777	0
15.01.2021	14:35:55	0	58,661187	2,277178	2,58075	309,5424	0,96	84,996	0	1015,38	8,6	10	9,7	1	1	1	1	1	1	1	1	1	0	1	-13,601128	275,543409	313,244868	0
15.01.2021	14:35:56	0	58,894834	4,4405	2,3115	308,5992	0,96	84,991	0	1015,22	8,6	10	9,7	1	1	1	1	1	1	1	1	1	0	1	-11,627907	275,479199	314,913533	0
15.01.2021	14:35:57	0	58,661061	4,326643	2,10525	307,1988	0,962	84,991	0	1015,34	8,6	10	9,7	1	1	1	1	1	1	1	1	1	0	1	-14,446794	275,536979	312,368692	0
15.01.2021	14:35:58	0	58,894708	3,415773	2,1495	314,0748	0,958	84,984	0	1015,26	8,6	10	9,7	1	1	1	1	1	1	1	1	1	0	1	-11,980268	275,447173	314,40935	0
15.01.2021	14:35:59	0	58,660936	3,529633	2,22975	312,8976	0,961	84,994	0	1015,42	8,6	10	9,7	1	1	1	1	1	1	1	1	1	0	1	-13,883016	275,533764	312,917218	0
15.01.2021	14:36:00	0	58,544366	3,415778	2,26575	306,828	0,962	85,011	0	1015,54	8,6	10,1	9,7	1	1	1	1	1	1	1	1	1	0	1	-13,953488	275,4152	312,284611	0
15.01.2021	14:36:01	0	58,544366	3,415778	2,26575	306,828	0,962	85,011	0	1015,54	8,6	10,1	9,7	1	1	1	1	1	1	1	1	1	0	1	-17,406624	275,532157	309,385986	0
15.01.2021	14:36:02	0	58,427039	2,732624	2,1135	303,174	0,953	84,997	0	1015,36	8,6	10	9,7	1	1	1	1	1	1	1	1	1	0	1	-16,208598	275,373713	309,832978	0
15.01.2021	14:36:03	0	58,661096	4,895953	1,944	300,8412	0,955	85,008	0	1015,36	8,6	10,1	9,7	1	1	1	1	1	1	1	1	1	0	1	-14,094433	275,4152	312,143666	0
15.01.2021	14:36:04	0	58,543768	3,188064	1,8825	294,4296	0,963	85,006	0	1015,44	8,6	10	9,7	1	1	1	1	1	1	1	1	1	0	1	-13,530655	275,357781	312,43547	0
15.01.2021	14:36:05	0	58,544115	3,529644	1,827	307,6092	0,958	85,012	0	1015,42	8,6	10,1	9,7	1	1	1	1	1	1	1	1	1	0	1	-12,684989	275,402425	313,492587	0
15.01.2021	14:36:06	0	58,543643	4,440523	1,89075	291,1932	0,957	85,018	0	1015,52	8,6	10	9,7	1	1	1	1	1	1	1	1	1	0	1	-11,557435	275,528943	315,21993	0
15.01.2021	14:36:07	0	58,660844	3,985086	2,1015	299,4912	0,963	85,017	0	1015,4	8,6	10,1	9,7	1	1	1	1	1	1	1	1	1	0	1	-12,896406	275,472789	313,614645	0
15.01.2021	14:36:08	0	58,426664	4,098948	2,29125	315,5472	0,96	85,019	0	1015,5	8,6	10	9,7	1	1	1	1	1	1	1	1	1	0	1	-13,178295	275,343452	312,719989	0
15.01.2021	14:36:09	0	58,543455	2,846493	2,36025	305,4024	0,957	85,031	0	1015,38	8,6	10	9,7	1	1	1	1	1	1	1	1	1	0	1	-16,138125	275,416797	310,107542	0
15.01.2021	14:36:10	0	58,660656	3,985093	2,445	300,1788	0,962	85,023	0	1015,4	8,6	10,1	9,7	1	1	1	1	1	1	1	1	1	0	1	-11,486963	275,52573	315,275159	0
15.01.2021	14:36:11	0	58,543739	4,782114	2,61375	302,0616	0,963	85,027	0	1015,48	8,6	10,1	9,7	1	1	1	1	1	1	1	1	1	0	1	-12,825934	275,469585	313,669928	0
15.01.2021	14:36:12	0	58,66053	4,440536	2,8395	303,4512	0,959	85,027	0	1015,38	8,6	10,1	9,7	1	1	1	1	1	1	1	1	1	0	1	-15,362932	275,53055	311,422055	0
15.01.2021	14:36:13	0	58,777321	4,326679	2,90625	306,8424	0,958	85,032	0	1015,48	8,6	10,1	9,7	1	1	1	1	1	1	1	1	1	0	1	-16,701903	275,426384	309,589194	0
15.01.2021	14:36:14	0	58,426698	3,643521	2,91825	315,5328	0,957	85,022	0	1015,38	8,6	10,1	9,7	1	1	1	1	1	1	1	1	1	0	1	-11,557435	275,354596	314,393609	0
15.01.2021	14:36:15	0	58,777195	3,529663	2,87775	303,2244	0,953	85,02	0	1015,42	8,6	10,1	9,7	1	1	1	1	1	1	1	1	1	0	1	-14,65821	275,447173	311,731408	0
15.01.2021	14:36:16	0	58,309719	4,782126	2,7495	301,2336	0,966	85,044	0	1015,36	8,6	10,1	9,7	1	1	1	1	1	1	1	1	1	0	1	-15,151515	275,545017	311,70211	0
15.01.2021	14:36:17	0	58,309657	2,618785	2,7075	306,7956	0,951	85,032	0	1015,34	8,6	10,1	9,7	1	1	1	1	1	1	1	1	1	0	1	-10,782241	275,39285	315,349975	0
15.01.2021	14:36:18	0	58,5433	5,009851	2,72475	309,8664	0,953	85,037	0	1015,44	8,6	10,1	9,7	1	1	1	1	1	1	1	1	1	0	1	-16,138125	275,514488	310,570669	0
15.01.2021	14:36:19	0	58,426384	2,846508	2,673	310,2696	0,952	85,051	0	1015,38	8,6	10,1	9,7	1	1	1	1	1	1	1	1	1	0	1	-7,963354	275,399233	318,199098	0
15.01.2021	14:36:20	0	58,075764	2,618789	2,5245	311,7024	0,955	85,058	0	1015,36	8,6	10,1	9,7	1	1	1	1	1	1	1	1	1	0	1	-13,601128	275,376902	312,455547	0
15.01.2021	14:36:21	0	58,659964	4,782138	2,53725	302,4252	0,952	85,047	0	1015,54	8,6	10,1	9,7	1	1	1	1	1	1	1	1	1	0	1	-12,403101	275,388064	313,706445	0
15.01.2021	14:36:22	0	58,426196	4,098978	2,5485	316,6488	0,951	85,058	0	1015,34	8,6	10,1	9,7	1	1	1	1	1	1	1	1	1	0	1	-13,319239	275,5177	313,404788	0
15.01.2021	14:36:23	0	58,426133	4,896004	2,499	320,814	0,952	85,05	0	1015,28	8,6	10,1	9,7	1	1	1	1	1	1	1	1	1	0	1	-14,869626	275,408812	311,338205	0
15.01.2021	14:36:24	0	58,542923	5,123728	2,424	314,028	0,959	85,082	0	1015,5	8,6	10,1	9,7	1	1	1	1	1	1	1	1	1	0	1	-10,42988	275,375307	315,619245	0
15.01.2021	14:36:25	0	58,54286	5,00987	2,2605	306,3888	0,952	85,071	0	1015,32	8,6	10,1	9,7	1	1	1	1	1	1	1	1	1	0	1	-18,040874	275,456775	308,394259	0
15.01.2021	14:36:26	0	58,309093	3,757404	2,0955	302,1192	0,956	85,101	0	1015,54	8,6	10,1	9,7	1	1	1	1	1	1	1	1	1	0	1	-15,856237	275,535371	310,951623	0
15.01.2021	14:36:27	0	58,192179	2,732659	2,08875	313,1424	0,958	85,075	0	1015,36	8,6	10,1	9,7	1	1	1	1	1	1	1	1	1	0	1	-14,587738	275,4152	311,650361	0
15.01.2021	14:36:28	0	58,308968	2,73266	2,17425	304,7652	0,956	85,094	0	1015,4	8,6	10,1	9,7	1	1	1	1	1	1	1	1	1	0	1	-14,869626	275,357781	311,096499	0
15.01.2021	14:36:29	0	58,659049	4,896019	2,19075	316,3176	0,953	85,099	0	1015,38	8,6	10	9,7	1	1	1	1	1	1	1	1	1	0	1	-17,618041	275,408812	308,589791	0
15.01.2021	14:36:30	0	58,191992	2,732663	2,16375	309,9132	0,961	85,102	0	1015,26	8,6	10,1	9,7	1	1	1	1	1	1	1	1	1	0	1	-10,852713	275,346636	315,060641	0
15.01.2021	14:36:31	0	58,191929	4,44058	2,0775	316,6704	0,959	85,095	0	1015,44	8,6	10,1	9,7	1	1	1	1	1	1	1	1	1	0	1	-16,349542	275,472789	310,161509	0
15.01.2021	14:36:32	0	58,308718	2,732666	1,97475	310,716	0,956	85,106	0	1015,26	8,6	10,1	9,7	1	1	1	1	1	1	1	1	1	0	1	-15,292459	275,338679	310,583224	0
15.01.2021	14:36:33	0	58,308655	4,440585	1,87275	309,3012	0,956	85,114	0	1015,42	8,6	10,1	9,7	1	1	1	1	1	1	1	1	1	0	1	-16,983791	275,399233	309,178662	0
15.01.2021	14:36:34	0	57,841189	3,074252	1,90125	314,4672	0,96	85,099	0	1015,54	8,6	10,1	9,7	1	1	1	1	1	1	1	1	1	0	1	-15,433404	275,360966	310,547805	0
15.01.2021	14:36:35	0	58,42538	2,846532	2,112	315,2088	0,956	85,11	0	1015,4	8,6	10,1	9,7	1	1	1	1	1	1	1	1	1	0	1	-11,346018	275,471187	315,157437	0
15.01.2021	14:36:36	0	58,308467	3,301978	2,1915	315,2628	0,952	85,098	0	1015,4	8,6	10,1	9,7	1	1	1	1	1	1	1	1	1	0	1	-15,503876	275,354596	310,447168	0
15.01.2021	14:36:37	0	58,074703	2,846534	2,18325	313,236	0,956	85,102	0	1015,44	8,6	10,1	9,7	1	1	1	1	1	1	1	1	1	0	1	-14,517266	275,42159	311,751113	0
15.01.2021	14:36:38	0	58,191491	4,440596	2,1585	305,3772	0,951	85,09	0	1015,5	8,6	10,1	9,7	1	1	1	1	1	1	1	1	1	0	1	-11,275546	275,532157	315,517064	0
15.01.2021	14:36:39	0	58,074578	4,326737	2,058	309,6108	0,954	85,091	0	1015,32	8,6	10,1	9,7	1	1	1	1	1	1	1	1	1	0	1	-19,591261	275,384874	306,503174	0
15.01.2021	14:36:40	0	57,957666	2,9604	1,93875	311,4	0,95	85,108	0	1015,48	8,6	10,1	9,7	1	1	1	1	1	1	1	1	1	0	1	-14,799154	275,359373	311,174512	0
15.01.2021	14:36:41	0	58,425003	3,985156	1,935	300,1284	0,955	85,108	0	1015,2	8,6	10,1	9,7	1	1	1	1	1	1	1	1	1	0	1	-10,147992	275,396041	315,999341	0
15.01.2021	14:36:42	0	57,723841	2,504957	1,93875	312,9192	0,955	85,113	0	1015,24	8,6	10,1	9,7	1	1	1	1	1	1	1	1	1	0	1	-13,460183	275,367339	312,551203	0
15.01.2021	14:36:43	0	57,957479	2,61882	2,148	307,2744	0,954	85,12	0	1015,48	8,6	10,1	9,7	1	1	1	1	1	1	1	1	1	0	1	-11,205074	275,365745	314,798767	0
15.01.2021	14:36:44	0	58,191116	4,212886	2,328	304,3116	0,958	85,135	0	1015,46	8,6	10,1	9,7	1	1	1	1	1	1	1	1	1	0	1	-12,896406	275,543409	313,94959	0
15.01.2021	14:36:45	0	58,191053	2,960408	2,517	302,8752	0,952	85,104	0	1015,3	8,6	10,1	9,7	1	1	1	1	1	1	1	1	1	0	1	-14,023961	275,484007	312,540279	0
15.01.2021	14:36:46	0	57,957292	4,896062	2,625	309,9384	0,956	85,128	0	1015,38	8,5	10,1	9,7	1	1	1	1	1	1	1	1	1	0	1	-12,755462	275,516094	313,960949	0
15.01.2021	14:36:47	0	58,074078	2,846549	2,652	313,182	0,946	85,133	0	1015,32	8,6	10,1	9,7	1	1	1	1	1	1	1	1	1	0	1	-11,486963	275,368932	314,53197	0
15.01.2021	14:36:48	0	58,190865	2,504965	2,61825	328,23	0,956	85,148	0	1015,42	8,5	10,1	9,7	1	1	1	1	1	1	1	1	1	0	1	-14,094433	275,413603	312,136098	0
15.01.2021	14:36:49	0	57,723406	2,277242	2,76225	311,7456	0,957	85,145	0	1015,38	8,6	10,1	9,7	1	1	1	1	1	1	1	1	1	0	1	-14,094433	275,362559	311,89432	0
15.01.2021	14:36:50	0	57,957042	3,643589	2,70675	314,838	0,954	85,161	0	1015,4	8,6	10,1	9,7	1	1	1	1	1	1	1	1	1	0	1	-13,248767	275,399233	312,913686	0
15.01.2021	14:36:51	0	57,606433	2,732693	2,67825	317,8152	0,954	85,161	0	1015,48	8,5	10,1	9,7	1	1	1	1	1	1	1	1	1	0	1	-14,094433	275,527337	312,67531	0
15.01.2021	14:36:52	0	57,840069	4,212904	2,75475	312,8508	0,957	85,165	0	1015,36	8,6	10,1	9,7	1	1	1	1	1	1	1	1	1	0	1	-13,460183	275,458376	312,982538	0
15.01.2021	14:36:53	0	57,840006	5,351529	2,82675	322,722	0,96	85,17	0	1015,32	8,6	10,1	9,7	1	1	1	1	1	1	1	1	1	0	1	-17,477097	275,5177	309,24693	0
15.01.2021	14:36:54	0	57,839944	3,188147	3,192	328,2336	0,956	85,182	0	1015,4	8,6	10,1	9,7	1	1	1	1	1	1	1	1	1	0	1	-17,054264	275,49042	309,540385	0
15.01.2021	14:36:55	0	57,606185	2,960423	3,3075	331,5096	0,959	85,189	0	1015,34	8,5	10,1	9,7	1	1	1	1	1	1	1	1	1	0	1	-16,560958	275,353003	309,382546	0
15.01.2021	14:36:56	0	57,956667	4,326775	3,243	329,616	0,957	85,196	0	1015,4	8,5	10,1	9,7	1	1	1	1	1	1	1	1	1	0	1	-14,728682	275,493628	311,881176	0
15.01.2021	14:36:57	0	57,722909	2,846564	3,06525	326,4624	0,955	85,202	0	1015,4	8,6	10,1	9,7	1	1	1	1	1	1	1	1	1	0	1	-14,164905	275,492024	312,437349	0
15.01.2021	14:36:58	0	57,956542	4,78223	2,91675	328,5972	0,959	85,206	0	1015,4	8,6	10,1	9,7	1	1	1	1	1	1	1	1	1	0	1	-14,65821	275,48561	311,91363	0
15.01.2021	14:36:59	0	57,372241	2,504979	2,7915	329,7132	0,963	85,211	0	1015,26	8,5	10,1	9,7	1	1	1	1	1	1	1	1	1	0	1	-12,755462	275,509672	313,93049	0
15.01.2021	14:37:00	0	57,72266	4,099061	2,36775	321,8832	0,954	85,218	0	1015,44	8,6	10,1	9,7	1	1	1	1	1	1	1	1	1	0	1	-10,500352	275,488817	316,086693	0
15.01.2021	14:37:01	0	57,72266	4,099061	2,36775	321,8832	0,954	85,218	0	1015,44	8,6	10,1	9,7	1	1	1	1	1	1	1	1	1	0	1	-12,896406	275,527337	313,873337	0
15.01.2021	14:37:02	0	57,722598	2,732709	2,19975	317,0628	0,952	85,232	0	1015,48	8,6	10,1	9,7	1	1	1	1	1	1	1	1	1	0	1	-14,023961	275,375307	312,025164	0
15.01.2021	14:37:03	0	57,722535	5,351557	2,172	303,1992	0,957	85,239	0	1015,36	8,5	10,1	9,7	1	1	1	1	1	1	1	1	1	0	1	-12,614517	275,472789	313,896534	0
15.01.2021	14:37:04	0	57,605626	4,668382	2,21325	303,1884	0,96	85,248	0	1015,52	8,6	10,1	9,7	1	1	1	1	1	1	1	1	1	0	1	-11,346018	275,519305	315,385626	0
15.01.2021	14:37:05	0	57,488717	3,188165	2,24625	306,45	0,962	85,257	0	1015,32	8,6	10,1	9,7	1	1	1	1	1	1	1	1	1	0	1	-12,684989	275,434377	313,643985	0
15.01.2021	14:37:06	0	57,371808	3,643619	2,28	306,8424	0,956	85,261	0	1015,38	8,5	10,1	9,7	1	1	1	1	1	1	1	1	1	0	1	-17,618041	275,351411	308,317925	0
15.01.2021	14:37:07	0	57,60544	3,98521	2,2695	302,832	0,961	85,263	0	1015,44	8,6	10,1	9,7	1	1	1	1	1	1	1	1	1	0	1	-13,389711	275,471187	313,113745	0
15.01.2021	14:37:08	0	57,605377	3,52976	2,38275	290,4336	0,96	85,267	0	1015,42	8,6	10,1	9,7	1	1	1	1	1	1	1	1	1	0	1	-11,557435	275,349819	314,370993	0
15.01.2021	14:37:09	0	57,371622	4,782257	2,55075	303,9768	0,958	85,274	0	1015,46	8,6	10,1	9,7	1	1	1	1	1	1	1	1	1	0	1	-12,332629	275,435976	314,003923	0
15.01.2021	14:37:10	0	57,605253	4,326806	2,64525	301,6152	0,955	85,272	0	1015,2	8,5	10,1	9,7	1	1	1	1	1	1	1	1	1	0	1	-15,010571	275,357781	310,955554	0
15.01.2021	14:37:11	0	57,488345	3,757492	2,4915	306,2268	0,959	85,27	0	1015,46	8,6	10,1	9,7	1	1	1	1	1	1	1	1	1	0	1	-14,587738	275,455174	311,839807	0
15.01.2021	14:37:12	0	57,488283	4,326811	2,46975	291,0204	0,957	85,259	0	1015,56	8,5	10,1	9,7	1	1	1	1	1	1	1	1	1	0	1	-12,896406	275,540194	313,934333	0
15.01.2021	14:37:13	0	57,254528	3,074315	2,41425	312,426	0,963	85,243	0	1015,32	8,5	10,1	9,7	1	1	1	1	1	1	1	1	1	0	1	-12,684989	275,43118	313,628831	0
15.01.2021	14:37:14	0	57,254467	2,960453	2,32875	297,9468	0,962	85,261	0	1015,48	8,6	10,1	9,7	1	1	1	1	1	1	1	1	1	0	1	-18,25229	275,527337	308,517452	0
15.01.2021	14:37:15	0	57,488096	4,326818	2,47425	304,2144	0,958	85,246	0	1015,4	8,5	10,1	9,7	1	1	1	1	1	1	1	1	1	0	1	-15,856237	275,458376	310,586484	0
15.01.2021	14:37:16	0	57,371189	3,074301	2,6355	309,2184	0,961	85,242	0	1015,42	8,5	10,1	9,8	1	1	1	1	1	1	1	1	1	0	1	-14,517266	275,354596	311,433778	0
15.01.2021	14:37:17	0	57,137436	2,73273	2,57925	307,6452	0,955	85,254	0	1015,4	8,5	10,1	9,7	1	1	1	1	1	1	1	1	1	0	1	-10,993658	275,416797	315,25201	0
15.01.2021	14:37:18	0	57,48791	4,440662	2,5215	301,5432	0,963	85,243	0	1015,46	8,5	10,1	9,8	1	1	1	1	1	1	1	1	1	0	1	-10,711769	275,423188	315,564182	0
15.01.2021	14:37:19	0	57,137312	2,732733	2,4135	313,4088	0,961	85,222	0	1015,26	8,5	10,1	9,7	1	1	1	1	1	1	1	1	1	0	1	-15,010571	275,532157	311,78204	0
15.01.2021	14:37:20	0	57,487786	3,529782	2,3955	317,0412	0,96	85,238	0	1015,42	8,5	10,1	9,7	1	1	1	1	1	1	1	1	1	0	1	-14,376321	275,368932	311,642611	0
15.01.2021	14:37:21	0	57,019944	3,529783	2,4375	315,4284	0,957	85,248	0	1015,68	8,5	10	9,7	1	1	1	1	1	1	1	1	1	0	1	-15,64482	275,360966	310,336389	0
15.01.2021	14:37:22	0	57,019882	3,529785	2,50425	320,0688	0,957	85,222	0	1015,4	8,6	10	9,7	1	1	1	1	1	1	1	1	1	0	1	-13,389711	275,543409	313,456285	0
15.01.2021	14:37:23	0	57,25391	3,188195	2,60925	314,8056	0,959	85,223	0	1015,36	8,5	10,1	9,7	1	1	1	1	1	1	1	1	1	0	1	-11,41649	275,459977	315,03382	0
15.01.2021	14:37:24	0	57,487134	4,782295	2,763	323,316	0,953	85,208	0	1015,36	8,5	10	9,7	1	1	1	1	1	1	1	1	1	0	1	-11,41649	275,520911	315,322772	0
15.01.2021	14:37:25	0	57,487475	2,846605	2,87925	317,8152	0,958	85,201	0	1015,34	8,5	10,1	9,7	1	1	1	1	1	1	1	1	1	0	1	-12,473573	275,480801	314,075466	0
15.01.2021	14:37:26	0	57,136479	4,668435	2,84325	314,3772	0,961	85,19	0	1015,26	8,5	10	9,7	1	1	1	1	1	1	1	1	1	0	1	-12,473573	275,512883	314,227607	0
15.01.2021	14:37:27	0	57,253662	4,554546	2,70525	316,9296	0,964	85,186	0	1015,36	8,5	10,1	9,8	1	1	1	1	1	1	1	1	1	0	1	-13,460183	275,53055	313,324804	0
15.01.2021	14:37:28	0	57,487288	4,099094	2,57175	311,8032	0,955	85,174	0	1015,48	8,5	10,1	9,8	1	1	1	1	1	1	1	1	1	0	1	-10,500352	275,461578	315,957548	0
15.01.2021	14:37:29	0	57,01985	2,846611	2,6535	308,7792	0,96	85,194	0	1015,3	8,5	10,1	9,7	1	1	1	1	1	1	1	1	1	0	1	-10,007047	275,533764	316,793187	0
15.01.2021	14:37:30	0	57,019788	3,188206	2,8725	308,5128	0,957	85,182	0	1015,42	8,5	10,1	9,7	1	1	1	1	1	1	1	1	1	0	1	-13,601128	275,423188	312,674823	0
15.01.2021	14:37:31	0	57,13657	3,188208	2,922	304,6788	0,953	85,177	0	1015,4	8,5	10,1	9,7	1	1	1	1	1	1	1	1	1	0	1	-13,107822	275,522518	313,639059	0
15.01.2021	14:37:32	0	57,369794	4,440721	2,8185	313,2108	0,959	85,173	0	1015,48	8,6	10	9,7	1	1	1	1	1	1	1	1	1	0	1	-14,376321	275,471187	312,127134	0
15.01.2021	14:37:33	0	57,019603	3,188211	2,787	320,0328	0,957	85,16	0	1015,46	8,5	10,1	9,7	1	1	1	1	1	1	1	1	1	0	1	-13,742072	275,512883	312,959108	0
15.01.2021	14:37:34	0	56,9023	2,277281	2,79675	313,56	0,955	85,18	0	1015,36	8,5	10	9,8	1	1	1	1	1	1	1	1	1	0	1	-12,825934	275,451973	313,586438	0
15.01.2021	14:37:35	0	57,01908	2,732755	2,907	303,8832	0,951	85,162	0	1015,38	8,5	10	9,7	1	1	1	1	1	1	1	1	1	0	1	-10,993658	275,38009	315,078119	0
15.01.2021	14:37:36	0	57,252703	3,302081	3,00225	316,3032	0,954	85,166	0	1015,4	8,5	10	9,7	1	1	1	1	1	1	1	1	1	0	1	-14,517266	275,538586	312,305846	0
15.01.2021	14:37:37	0	57,252641	4,440706	3,09225	314,7804	0,953	85,155	0	1015,36	8,6	10	9,8	1	1	1	1	1	1	1	1	1	0	1	-15,856237	275,492024	310,746017	0
15.01.2021	14:37:38	0	57,369421	5,01006	3,08775	311,7456	0,95	85,154	0	1015,3	8,5	10	9,7	1	1	1	1	1	1	1	1	1	0	1	-16,701903	275,464781	309,77118	0
15.01.2021	14:37:39	0	57,136075	4,554602	3,1785	308,862	0,955	85,156	0	1015,44	8,5	10,1	9,7	1	1	1	1	1	1	1	1	1	0	1	-12,966878	275,337088	312,901273	0
15.01.2021	14:37:40	0	56,785088	3,529818	3,2175	304,7112	0,964	85,162	0	1015,46	8,6	10	9,7	1	1	1	1	1	1	1	1	1	0	1	-19,027484	275,362559	306,961268	0
15.01.2021	14:37:41	0	57,252393	2,846612	3,144	306,7812	0,956	85,149	0	1015,42	8,5	10	9,8	1	1	1	1	1	1	1	1	1	0	1	-9,513742	275,378496	316,550483	0
15.01.2021	14:37:42	0	57,018648	4,896205	3,027	312,4944	0,946	85,146	0	1015,38	8,5	10	9,7	1	1	1	1	1	1	1	1	1	0	1	-16,067653	275,524124	310,686848	0
15.01.2021	14:37:43	0	56,784903	2,618886	3,009	301,1724	0,956	85,147	0	1015,44	8,5	10	9,8	1	1	1	1	1	1	1	1	1	0	1	-12,966878	275,410408	313,248519	0
15.01.2021	14:37:44	0	56,901683	2,618903	3,10425	308,5128	0,952	85,129	0	1015,5	8,5	10	9,7	1	1	1	1	1	1	1	1	1	0	1	-13,107822	275,5177	313,616205	0
15.01.2021	14:37:45	0	57,252145	3,871424	3,2145	314,4744	0,957	85,161	0	1015,38	8,5	10	9,7	1	1	1	1	1	1	1	1	1	0	1	-15,715292	275,443973	310,65916	0
15.01.2021	14:37:46	0	57,252082	3,529808	3,15525	312,4476	0,948	85,143	0	1015,38	8,6	10	9,8	1	1	1	1	1	1	1	1	1	0	1	-8,597604	275,319595	317,187745	0
15.01.2021	14:37:47	0	57,018339	3,074351	3,0435	314,4456	0,955	85,159	0	1015,2	8,6	10	9,8	1	1	1	1	1	1	1	1	1	0	1	-13,953488	275,384874	312,140947	0
15.01.2021	14:37:48	0	57,018277	2,505028	3,03525	321,0588	0,95	85,15	0	1015,44	8,5	10	9,8	1	1	1	1	1	1	1	1	1	0	1	-10,782241	275,488817	315,804804	0
15.01.2021	14:37:49	0	57,018215	4,213004	3,078	318,8448	0,955	85,15	0	1015,58	8,5	10	9,8	1	1	1	1	1	1	1	1	1	0	1	-11,06413	275,500044	315,576157	0
15.01.2021	14:37:50	0	57,251834	4,668494	3,17025	318,51	0,948	85,124	0	1015,32	8,5	10	9,7	1	1	1	1	1	1	1	1	1	0	1	-10,641297	275,514488	316,067498	0
15.01.2021	14:37:51	0	57,368612	3,302107	3,27225	325,188	0,949	85,135	0	1015,38	8,6	10	9,7	1	1	1	1	1	1	1	1	1	0	1	-13,248767	275,381685	312,830562	0
15.01.2021	14:37:52	0	57,13487	2,846628	3,2775	324,4248	0,953	85,128	0	1015,46	8,5	10	9,8	1	1	1	1	1	1	1	1	1	0	1	-10,570825	275,527337	316,198918	0
15.01.2021	14:37:53	0	57,017967	3,415956	3,282	320,76	0,95	85,11	0	1015,44	8,6	10	9,8	1	1	1	1	1	1	1	1	1	0	1	-13,389711	275,338679	312,485972	0
15.01.2021	14:37:54	0	57,251585	3,871442	3,315	320,6988	0,948	85,123	0	1015,44	8,5	10	9,7	1	1	1	1	1	1	1	1	1	0	1	-11,768851	275,419992	314,491956	0
15.01.2021	14:37:55	0	56,667324	2,846633	3,3225	321,5232	0,95	85,111	0	1015,38	8,6	10	9,8	1	1	1	1	1	1	1	1	1	0	1	-11,698379	275,322775	314,102018	0
15.01.2021	14:37:56	0	56,900942	2,9605	3,357	324,4212	0,949	85,122	0	1015,48	8,5	10	9,8	1	1	1	1	1	1	1	1	1	0	1	-15,362932	275,439175	310,988778	0
15.01.2021	14:37:57	0	57,251399	3,415963	3,345	325,1376	0,944	85,09	0	1015,2	8,5	10	9,8	1	1	1	1	1	1	1	1	1	0	1	-17,26568	275,504857	309,397436	0
15.01.2021	14:37:58	0	57,251738	5,010082	3,3045	318,4668	0,945	85,104	0	1015,38	8,6	10,1	9,8	1	1	1	1	1	1	1	1	1	0	1	-13,883016	275,493628	312,726842	0
15.01.2021	14:37:59	0	57,017596	4,668488	3,2085	318,3696	0,947	85,087	0	1015,4	8,6	10	9,8	1	1	1	1	1	1	1	1	1	0	1	-14,728682	275,348227	311,192209	0
15.01.2021	14:38:00	0	57,367989	4,440761	3,00375	320,4864	0,942	85,095	0	1015,46	8,6	10	9,8	1	1	1	1	1	1	1	1	1	0	1	-8,315715	275,386469	317,786275	0
15.01.2021	14:38:01	0	57,367989	4,440761	3,00375	320,4864	0,942	85,095	0	1015,46	8,6	10	9,8	1	1	1	1	1	1	1	1	1	0	1	-13,107822	275,509672	313,578129	0
15.01.2021	14:38:02	0	56,783732	3,302126	2,8995	320,4252	0,95	85,095	0	1015,38	8,6	10	9,7	1	1	1	1	1	1	1	1	1	0	1	-10,359408	275,501648	316,288488	0
15.01.2021	14:38:03	0	57,017348	2,846645	2,80875	321,8472	0,947	85,106	0	1015,42	8,5	10	9,8	1	1	1	1	1	1	1	1	1	0	1	-14,023961	275,38009	312,047816	0
15.01.2021	14:38:04	0	56,667167	2,96053	2,68425	309,3552	0,945	85,084	0	1015,36	8,5	10,1	9,7	1	1	1	1	1	1	1	1	1	0	1	-13,953488	275,397637	312,201404	0
15.01.2021	14:38:05	0	57,134063	3,529864	2,74725	311,4144	0,947	85,101	0	1015,4	8,6	10	9,7	1	1	1	1	1	1	1	1	1	0	1	-17,26568	275,503253	309,389825	0
15.01.2021	14:38:06	0	56,900324	2,846666	2,86725	318,456	0,95	85,084	0	1015,46	8,6	10	9,7	1	1	1	1	1	1	1	1	1	0	1	-9,513742	275,397637	316,64115	0
15.01.2021	14:38:07	0	56,900262	3,415981	2,805	316,8252	0,945	85,09	0	1015,42	8,6	10	9,8	1	1	1	1	1	1	1	1	1	0	1	-10,711769	275,314828	315,051014	0
15.01.2021	14:38:08	0	57,133876	2,846652	2,70075	315,8712	0,946	85,095	0	1015,44	8,6	10	9,8	1	1	1	1	1	1	1	1	1	0	1	-15,574348	275,458376	310,868373	0
15.01.2021	14:38:09	0	56,549624	2,732804	2,70825	312,8868	0,944	85,091	0	1015,34	8,6	10	9,7	1	1	1	1	1	1	1	1	1	0	1	-14,869626	275,511277	311,823939	0
15.01.2021	14:38:10	0	56,900076	2,732805	2,74875	316,2528	0,951	85,106	0	1015,42	8,6	10	9,7	1	1	1	1	1	1	1	1	1	0	1	-11,346018	275,464781	315,127064	0
15.01.2021	14:38:11	0	56,900014	4,554678	2,76675	315,972	0,95	85,117	0	1015,26	8,6	10	9,7	1	1	1	1	1	1	1	1	1	0	1	-12,544045	275,327545	313,27893	0
15.01.2021	14:38:12	0	56,783115	3,529877	2,72775	325,9656	0,947	85,105	0	1015,32	8,6	10	9,7	1	1	1	1	1	1	1	1	1	0	1	-16,27907	275,386469	309,82292	0
15.01.2021	14:38:13	0	57,133566	3,529858	2,59275	313,218	0,943	85,108	0	1015,42	8,6	10	9,8	1	1	1	1	1	1	1	1	1	0	1	-9,795631	275,349819	316,132797	0
15.01.2021	14:38:14	0	57,133503	2,960545	2,36775	333,0468	0,947	85,11	0	1015,46	8,6	10	9,7	1	1	1	1	1	1	1	1	1	0	1	-18,463707	275,370526	307,562773	0
15.01.2021	14:38:15	0	56,899767	2,391197	2,25525	323,2872	0,946	85,128	0	1015,4	8,6	10	9,8	1	1	1	1	1	1	1	1	1	0	1	-13,883016	275,348227	312,037875	0
15.01.2021	14:38:16	0	56,549193	3,643752	2,12775	312,8868	0,947	85,137	0	1015,32	8,6	10	9,7	1	1	1	1	1	1	1	1	1	0	1	-13,953488	275,321185	311,839385	0
15.01.2021	14:38:17	0	57,01648	4,440799	2,21025	322,1784	0,946	85,138	0	1015,34	8,6	10	9,8	1	1	1	1	1	1	1	1	1	0	1	-14,305849	275,362559	311,682903	0
15.01.2021	14:38:18	0	57,133255	3,074401	2,20725	314,118	0,945	85,135	0	1015,32	8,6	10	9,8	1	1	1	1	1	1	1	1	1	0	1	-9,372798	275,353003	316,570707	0
15.01.2021	14:38:19	0	57,016356	3,416002	2,163	315,27	0,938	85,148	0	1015,34	8,6	10	9,8	1	1	1	1	1	1	1	1	1	0	1	-13,178295	275,325954	312,637154	0
15.01.2021	14:38:20	0	57,016293	3,871495	2,3535	324,7812	0,944	85,144	0	1015,52	8,6	10	9,7	1	1	1	1	1	1	1	1	1	0	1	-10,711769	275,373713	315,329807	0
15.01.2021	14:38:21	0	57,249904	4,66857	2,53125	319,554	0,945	85,154	0	1015,32	8,6	10	9,7	1	1	1	1	1	1	1	1	1	0	1	-12,473573	275,477596	314,060268	0
15.01.2021	14:38:22	0	57,133006	2,84669	2,628	322,6284	0,944	85,139	0	1015,24	8,6	10	9,7	1	1	1	1	1	1	1	1	1	0	1	-12,966878	275,500044	313,673409	0
15.01.2021	14:38:23	0	57,132943	4,89631	2,7	318,4236	0,945	85,156	0	1015,38	8,6	10	9,7	1	1	1	1	1	1	1	1	1	0	1	-17,195208	275,484007	309,369031	0
15.01.2021	14:38:24	0	56,431864	2,846693	2,81175	315,5256	0,942	85,145	0	1015,3	8,6	10	9,7	1	1	1	1	1	1	1	1	1	0	1	-9,654686	275,402425	316,52289	0
15.01.2021	14:38:25	0	56,431803	2,618959	2,79975	325,5624	0,941	85,156	0	1015,46	8,6	10	9,7	1	1	1	1	1	1	1	1	1	0	1	-13,6716	275,313239	312,083662	0
15.01.2021	14:38:26	0	57,015921	3,529903	2,7915	321,8472	0,943	85,159	0	1015,38	8,6	10	9,7	1	1	1	1	1	1	1	1	1	0	1	-16,349542	275,375307	309,699583	0
15.01.2021	14:38:27	0	56,899023	2,391226	2,75025	324,0972	0,94	85,133	0	1015,4	8,6	10	9,7	1	1	1	1	1	1	1	1	1	0	1	-10,782241	275,343452	315,116043	0
15.01.2021	14:38:28	0	57,249468	5,010191	2,6985	316,6884	0,941	85,143	0	1015,38	8,6	10	9,7	1	1	1	1	1	1	1	1	1	0	1	-10,288936	275,504857	316,37418	0
15.01.2021	14:38:29	0	57,13257	4,554721	2,66925	312,5124	0,936	85,136	0	1015,24	8,6	10	9,7	1	1	1	1	1	1	1	1	1	0	1	-14,094433	275,487213	312,48501	0
15.01.2021	14:38:30	0	57,015672	4,554724	2,56875	317,0196	0,941	85,147	0	1015,32	8,6	10	9,7	1	1	1	1	1	1	1	1	1	0	1	-11,909796	275,367339	314,101591	0
15.01.2021	14:38:31	0	56,781939	4,213122	2,52	319,1868	0,942	85,162	0	1015,44	8,6	10	9,7	1	1	1	1	1	1	1	1	1	0	1	-14,869626	275,495231	311,747838	0
15.01.2021	14:38:32	0	56,898713	4,554701	2,42775	309,2508	0,948	85,154	0	1015,4	8,6	10	9,8	1	1	1	1	1	1	1	1	1	0	1	-11,06413	275,492024	315,538124	0
15.01.2021	14:38:33	0	56,548145	2,732838	2,343	316,6812	0,936	85,148	0	1015,36	8,6	10	9,7	1	1	1	1	1	1	1	1	1	0	1	-14,305849	275,368932	311,713083	0
15.01.2021	14:38:34	0	56,781753	2,391235	2,36025	313,6032	0,944	85,151	0	1015,46	8,6	10	9,7	1	1	1	1	1	1	1	1	1	0	1	-15,433404	275,381685	310,645925	0
15.01.2021	14:38:35	0	56,781692	2,96056	2,3415	309,9168	0,939	85,147	0	1015,54	8,6	10	9,8	1	1	1	1	1	1	1	1	1	0	1	-12,121212	275,386469	313,980778	0
15.01.2021	14:38:36	0	56,54796	2,618974	2,385	305,0532	0,945	85,157	0	1015,36	8,6	10	9,7	1	1	1	1	1	1	1	1	1	0	1	-15,081043	275,496835	311,544028	0
15.01.2021	14:38:37	0	57,015237	2,960581	2,33325	306,8064	0,942	85,15	0	1015,42	8,6	10	9,7	1	1	1	1	1	1	1	1	1	0	1	-15,292459	275,368932	310,726473	0
15.01.2021	14:38:38	0	57,015174	4,440874	2,2335	298,62	0,94	85,143	0	1015,28	8,6	10	9,7	1	1	1	1	1	1	1	1	1	0	1	-13,812544	275,492024	312,789709	0
15.01.2021	14:38:39	0	57,015112	4,896351	2,238	297,2448	0,937	85,135	0	1015,42	8,6	10	9,7	1	1	1	1	1	1	1	1	1	0	1	-14,094433	275,463179	312,371058	0
15.01.2021	14:38:40	0	57,01505	4,213116	2,44275	300,5064	0,934	85,145	0	1015,38	8,6	10	9,8	1	1	1	1	1	1	1	1	1	0	1	-13,178295	275,504857	313,484821	0
15.01.2021	14:38:41	0	57,131822	2,846702	2,50725	302,058	0,941	85,15	0	1015,38	8,6	10	9,8	1	1	1	1	1	1	1	1	1	0	1	-11,698379	275,453574	314,721579	0
15.01.2021	14:38:42	0	56,664424	2,618983	2,49075	295,5276	0,94	85,156	0	1015,36	8,6	10	9,7	1	1	1	1	1	1	1	1	1	0	1	-11,698379	275,488817	314,888666	0
15.01.2021	14:38:43	0	56,781196	2,732853	2,3865	288,2124	0,94	85,144	0	1015,28	8,6	10	9,7	1	1	1	1	1	1	1	1	1	0	1	-15,715292	275,362559	310,27346	0
15.01.2021	14:38:44	0	57,365302	3,643806	2,18625	311,5008	0,94	85,128	0	1015,44	8,6	10	9,7	1	1	1	1	1	1	1	1	1	0	1	-14,023961	275,49844	312,608718	0
15.01.2021	14:38:45	0	57,365239	4,896366	2,088	301,2696	0,933	85,136	0	1015,22	8,6	10	9,7	1	1	1	1	1	1	1	1	1	0	1	-15,151515	275,429581	311,15473	0
15.01.2021	14:38:46	0	57,014676	2,618988	2,14575	298,6452	0,943	85,142	0	1015,38	8,6	10	9,7	1	1	1	1	1	1	1	1	1	0	1	-12,262156	275,527337	314,507586	0
15.01.2021	14:38:47	0	57,131447	4,099288	2,103	294,0912	0,941	85,14	0	1015,38	8,6	10	9,7	1	1	1	1	1	1	1	1	1	0	1	-14,094433	275,407215	312,105834	0
15.01.2021	14:38:48	0	57,131385	3,074449	2,10675	296,4708	0,938	85,147	0	1015,56	8,6	10	9,8	1	1	1	1	1	1	1	1	1	0	1	-8,668076	275,496835	317,956995	0
15.01.2021	14:38:49	0	57,014489	2,618992	2,109	307,2024	0,935	85,127	0	1015,42	8,6	10	9,7	1	1	1	1	1	1	1	1	1	0	1	-9,302326	275,405618	316,890377	0
15.01.2021	14:38:50	0	57,248093	3,871533	2,04225	306,2088	0,93	85,139	0	1015,38	8,5	10	9,8	1	1	1	1	1	1	1	1	1	0	1	-11,627907	275,333906	314,225183	0
15.01.2021	14:38:51	0	57,24803	4,099296	2,08275	297,2952	0,93	85,116	0	1015,6	8,6	10	9,7	1	1	1	1	1	1	1	1	1	0	1	-15,997181	275,396041	310,150152	0
15.01.2021	14:38:52	0	57,131135	2,391258	2,15025	296,5104	0,936	85,122	0	1015,42	8,6	10	9,7	1	1	1	1	1	1	1	1	1	0	1	-15,856237	275,324365	309,951686	0
15.01.2021	14:38:53	0	57,247905	3,643823	2,32275	296,9208	0,936	85,147	0	1015,38	8,6	10	9,7	1	1	1	1	1	1	1	1	1	0	1	-13,178295	275,453574	313,241663	0
15.01.2021	14:38:54	0	56,897345	4,440912	2,511	299,8008	0,94	85,149	0	1015,4	8,6	10	9,7	1	1	1	1	1	1	1	1	1	0	1	-11,627907	275,327545	314,195068	0
15.01.2021	14:38:55	0	56,897283	3,188348	2,58375	296,8344	0,94	85,144	0	1015,34	8,6	10	9,7	1	1	1	1	1	1	1	1	1	0	1	-15,574348	275,333906	310,278742	0
15.01.2021	14:38:56	0	57,130885	2,391248	2,454	306,1476	0,937	85,143	0	1015,44	8,6	10	9,8	1	1	1	1	1	1	1	1	1	0	1	-11,06413	275,378496	315,000096	0
15.01.2021	14:38:57	0	57,481318	4,782499	2,47275	297,2628	0,933	85,141	0	1015,44	8,6	10	9,8	1	1	1	1	1	1	1	1	1	0	1	-14,65821	275,442374	311,708661	0
15.01.2021	14:38:58	0	56,663433	3,529963	2,52825	292,3524	0,935	85,161	0	1015,42	8,6	10	9,7	1	1	1	1	1	1	1	1	1	0	1	-11,839323	275,335497	314,021297	0
15.01.2021	14:38:59	0	57,247529	3,643834	2,526	299,3796	0,937	85,166	0	1015,42	8,6	10	9,7	1	1	1	1	1	1	1	1	1	0	1	-16,208598	275,370526	309,817882	0
15.01.2021	14:39:00	0	57,247404	3,302228	2,34825	304,704	0,935	85,167	0	1015,28	8,6	10	9,7	1	1	1	1	1	1	1	1	1	0	1	-12,544045	275,338679	313,331638	0
15.01.2021	14:39:01	0	57,247404	3,302228	2,34825	304,704	0,935	85,167	0	1015,28	8,6	10	9,7	1	1	1	1	1	1	1	1	1	0	1	-11,41649	275,463179	315,049	0
15.01.2021	14:39:02	0	57,13051	4,78254	2,2785	295,5348	0,933	85,163	0	1015,32	8,6	10	9,7	1	1	1	1	1	1	1	1	1	0	1	-13,6716	275,329135	312,158903	0
15.01.2021	14:39:03	0	57,364109	3,302232	2,33775	297,5688	0,935	85,184	0	1015,38	8,6	10	9,7	1	1	1	1	1	1	1	1	1	0	1	-15,997181	275,364152	309,999115	0
15.01.2021	14:39:04	0	56,896722	2,846753	2,3985	296,172	0,94	85,193	0	1015,28	8,6	10	9,7	1	1	1	1	1	1	1	1	1	0	1	-16,349542	275,482404	310,207097	0
15.01.2021	14:39:05	0	57,363984	4,896418	2,514	303,1632	0,935	85,18	0	1015,42	8,6	10	9,7	1	1	1	1	1	1	1	1	1	0	1	-14,869626	275,418395	311,383611	0
15.01.2021	14:39:06	0	57,130259	2,619016	2,5245	308,79	0,937	85,205	0	1015,42	8,6	10	9,7	1	1	1	1	1	1	1	1	1	0	1	-14,376321	275,330725	311,46171	0
15.01.2021	14:39:07	0	57,363858	3,074498	2,4825	294,0876	0,935	85,181	0	1015,36	8,6	10	9,7	1	1	1	1	1	1	1	1	1	0	1	-14,65821	275,381685	311,421119	0
15.01.2021	14:39:08	0	57,013304	2,391278	2,42025	306,1152	0,937	85,195	0	1015,44	8,6	10	9,7	1	1	1	1	1	1	1	1	1	0	1	-12,262156	275,354596	313,688888	0
15.01.2021	14:39:09	0	57,714224	4,668688	2,313	278,046	0,929	85,187	0	1015,2	8,6	10	9,7	1	1	1	1	1	1	1	1	1	0	1	-12,544045	275,39285	313,58817	0
15.01.2021	14:39:10	0	57,130009	2,846762	2,172	313,272	0,938	85,201	0	1015,4	8,6	10	9,7	1	1	1	1	1	1	1	1	1	0	1	-11,557435	275,493628	315,052424	0
15.01.2021	14:39:11	0	57,597267	5,124175	2,103	309,9384	0,94	85,198	0	1015,34	8,5	10	9,7	1	1	1	1	1	1	1	1	1	0	1	-15,151515	275,367339	310,859871	0
15.01.2021	14:39:12	0	57,129884	3,871601	2,028	298,3788	0,937	85,191	0	1015,3	8,6	10	9,7	1	1	1	1	1	1	1	1	1	0	1	-12,121212	275,475994	314,405032	0
15.01.2021	14:39:13	0	57,363481	5,12418	2,00925	299,0952	0,932	85,181	0	1015,38	8,6	10	9,7	1	1	1	1	1	1	1	1	1	0	1	-15,362932	275,459977	311,087379	0
15.01.2021	14:39:14	0	57,012929	3,871605	2,0625	306,7884	0,942	85,204	0	1015,48	8,6	10	9,7	1	1	1	1	1	1	1	1	1	0	1	-12,191684	275,487213	314,387758	0
15.01.2021	14:39:15	0	57,246525	3,416124	2,12025	304,6176	0,94	85,199	0	1015,4	8,6	10	9,7	1	1	1	1	1	1	1	1	1	0	1	-11,486963	275,368932	314,53197	0
15.01.2021	14:39:16	0	57,129633	3,529996	2,037	302,4648	0,937	85,206	0	1015,4	8,5	10	9,7	1	1	1	1	1	1	1	1	1	0	1	-12,614517	275,325954	313,200931	0
15.01.2021	14:39:17	0	57,12957	4,668707	2,0955	296,1144	0,94	85,204	0	1015,4	8,6	10	9,7	1	1	1	1	1	1	1	1	1	0	1	-17,829457	275,509672	308,856494	0
15.01.2021	14:39:18	0	57,363166	3,074516	2,142	295,5204	0,94	85,196	0	1015,44	8,6	10	9,7	1	1	1	1	1	1	1	1	1	0	1	-12,332629	275,459977	314,117682	0
15.01.2021	14:39:19	0	57,246274	4,44097	2,42025	300,834	0,941	85,197	0	1015,42	8,6	10	9,7	1	1	1	1	1	1	1	1	1	0	1	-12,544045	275,333906	313,309045	0
15.01.2021	14:39:20	0	57,246211	2,619035	2,4945	285,2316	0,939	85,194	0	1015,44	8,6	10	9,7	1	1	1	1	1	1	1	1	1	0	1	-15,64482	275,506462	311,025907	0
15.01.2021	14:39:21	0	57,246149	3,302263	2,53125	306,18	0,935	85,179	0	1015,44	8,6	10	9,7	1	1	1	1	1	1	1	1	1	0	1	-14,164905	275,413603	312,065626	0
15.01.2021	14:39:22	0	56,8956	2,84678	2,484	296,7804	0,94	85,178	0	1015,34	8,5	10	9,7	1	1	1	1	1	1	1	1	1	0	1	-9,090909	275,325954	316,72454	0
15.01.2021	14:39:23	0	56,895537	2,960653	2,45025	300,204	0,938	85,181	0	1015,4	8,6	10	9,7	1	1	1	1	1	1	1	1	1	0	1	-11,839323	275,435976	314,497229	0
15.01.2021	14:39:24	0	57,479617	4,554853	2,39775	300,4848	0,936	85,177	0	1015,32	8,6	10	9,7	1	1	1	1	1	1	1	1	1	0	1	-15,081043	275,504857	311,582073	0
15.01.2021	14:39:25	0	57,596382	4,554856	2,41275	305,784	0,929	85,187	0	1015,28	8,6	10	9,7	1	1	1	1	1	1	1	1	1	0	1	-13,460183	275,407215	312,740083	0
15.01.2021	14:39:26	0	57,129006	3,302272	2,46975	293,3316	0,937	85,2	0	1015,38	8,6	10	9,7	1	1	1	1	1	1	1	1	1	0	1	-15,785765	275,509672	310,900187	0
15.01.2021	14:39:27	0	57,713084	4,327117	2,466	303,8724	0,931	85,167	0	1015,42	8,6	10	9,7	1	1	1	1	1	1	1	1	1	0	1	-18,745595	275,388064	307,36395	0
15.01.2021	14:39:28	0	57,362537	4,32712	2,43825	299,394	0,936	85,186	0	1015,46	8,5	10	9,7	1	1	1	1	1	1	1	1	1	0	1	-13,178295	275,346636	312,73506	0
15.01.2021	14:39:29	0	57,128818	4,099379	2,379	305,3664	0,935	85,191	0	1015,36	8,6	10	9,7	1	1	1	1	1	1	1	1	1	0	1	-14,376321	275,456775	312,058811	0
15.01.2021	14:39:30	0	57,596066	3,643894	2,3655	305,7192	0,929	85,193	0	1015,34	8,5	10	9,7	1	1	1	1	1	1	1	1	1	0	1	-15,362932	275,511277	311,330634	0
15.01.2021	14:39:31	0	57,71283	4,099383	2,394	313,5924	0,93	85,179	0	1015,44	8,5	10	9,7	1	1	1	1	1	1	1	1	1	0	1	-14,094433	275,37212	311,939595	0
15.01.2021	14:39:32	0	57,479112	4,213257	2,39175	327,7908	0,936	85,187	0	1015,26	8,5	10	9,7	1	1	1	1	1	1	1	1	1	0	1	-14,869626	275,495231	311,747838	0
15.01.2021	14:39:33	0	57,362221	3,074541	2,4105	328,4424	0,931	85,175	0	1015,4	8,6	10	9,7	1	1	1	1	1	1	1	1	1	0	1	-14,376321	275,439175	311,975389	0
15.01.2021	14:39:34	0	57,011677	2,619054	2,28675	321,84	0,943	85,196	0	1015,46	8,6	10	9,7	1	1	1	1	1	1	1	1	1	0	1	-11,627907	275,324365	314,180016	0
15.01.2021	14:39:35	0	57,128441	2,732928	2,292	311,0724	0,942	85,202	0	1015,42	8,6	10	9,7	1	1	1	1	1	1	1	1	1	0	1	-12,614517	275,360966	313,366692	0
15.01.2021	14:39:36	0	57,478859	4,668754	2,35125	303,5592	0,938	85,185	0	1015,26	8,5	10	9,7	1	1	1	1	1	1	1	1	1	0	1	-12,614517	275,471187	313,888939	0
15.01.2021	14:39:37	0	57,361969	2,732931	2,4165	303,9156	0,938	85,206	0	1015,44	8,6	10	9,7	1	1	1	1	1	1	1	1	1	0	1	-15,433404	275,345044	310,472415	0
15.01.2021	14:39:38	0	57,59556	3,64391	2,4885	312,8724	0,937	85,206	0	1015,34	8,5	10	9,7	1	1	1	1	1	1	1	1	1	0	1	-14,940099	275,496835	311,684972	0
15.01.2021	14:39:39	0	57,945976	4,441017	2,2905	312,9084	0,94	85,208	0	1015,42	8,6	10	9,7	1	1	1	1	1	1	1	1	1	0	1	-12,403101	275,386469	313,698889	0
15.01.2021	14:39:40	0	57,595433	4,213275	2,1465	297,8928	0,94	85,198	0	1015,54	8,5	10	9,7	1	1	1	1	1	1	1	1	1	0	1	-8,80902	275,335497	317,0516	0
15.01.2021	14:39:41	0	57,478543	2,732936	2,17275	315,936	0,934	85,187	0	1015,44	8,5	10	9,7	1	1	1	1	1	1	1	1	1	0	1	-14,446794	275,440774	311,912496	0
15.01.2021	14:39:42	0	57,47848	2,84681	2,13675	307,242	0,937	85,199	0	1015,44	8,5	10	9,7	1	1	1	1	1	1	1	1	1	0	1	-13,107822	275,508067	313,570517	0
15.01.2021	14:39:43	0	57,478417	2,846812	2,21325	306,8136	0,933	85,197	0	1015,42	8,6	10	9,7	1	1	1	1	1	1	1	1	1	0	1	-14,023961	275,458376	312,418761	0
15.01.2021	14:39:44	0	57,478756	3,188431	2,382	312,8004	0,935	85,187	0	1015,3	8,5	9,9	9,7	1	1	1	1	1	1	1	1	1	0	1	-18,957012	275,388064	307,152533	0
15.01.2021	14:39:45	0	57,595116	4,441031	2,40825	302,4324	0,936	85,196	0	1015,36	8,5	10	9,7	1	1	1	1	1	1	1	1	1	0	1	-13,03735	275,466382	313,443324	0
15.01.2021	14:39:46	0	57,361401	3,41618	2,4255	318,798	0,93	85,187	0	1015,32	8,5	10	9,7	1	1	1	1	1	1	1	1	1	0	1	-13,107822	275,492024	313,494431	0
15.01.2021	14:39:47	0	57,82864	2,732945	2,4225	313,1352	0,94	85,205	0	1015,3	8,5	10	9,7	1	1	1	1	1	1	1	1	1	0	1	-12,403101	275,357781	313,563024	0
15.01.2021	14:39:48	0	57,594926	2,505201	2,39475	327,8232	0,938	85,185	0	1015,4	8,5	10	9,7	1	1	1	1	1	1	1	1	1	0	1	-14,235377	275,330725	311,602654	0
15.01.2021	14:39:49	0	57,711688	3,757804	2,34525	321,2064	0,937	85,211	0	1015,44	8,5	10	9,7	1	1	1	1	1	1	1	1	1	0	1	-12,332629	275,362559	313,656124	0
15.01.2021	14:39:50	0	57,361149	2,846822	2,26425	335,3256	0,941	85,21	0	1015,5	8,5	10	9,7	1	1	1	1	1	1	1	1	1	0	1	-16,560958	275,500044	310,079328	0
15.01.2021	14:39:51	0	57,71156	3,07457	2,373	317,0412	0,934	85,216	0	1015,32	8,5	10	9,7	1	1	1	1	1	1	1	1	1	0	1	-16,842847	275,503253	309,812658	0
15.01.2021	14:39:52	0	57,594672	3,985556	2,54625	306,1332	0,933	85,211	0	1015,46	8,5	10	9,7	1	1	1	1	1	1	1	1	1	0	1	-14,305849	275,376902	311,750826	0
15.01.2021	14:39:53	0	57,477784	3,985558	2,53575	307,9728	0,939	85,213	0	1015,46	8,5	10	9,7	1	1	1	1	1	1	1	1	1	0	1	-8,033827	275,319595	317,751523	0
15.01.2021	14:39:54	0	57,71137	3,757814	2,5035	279,2052	0,936	85,218	0	1015,38	8,5	10	9,7	1	1	1	1	1	1	1	1	1	0	1	-10,007047	275,357781	315,959078	0
15.01.2021	14:39:55	0	57,361234	3,757816	2,4465	296,118	0,94	85,227	0	1015,34	8,5	9,9	9,7	1	1	1	1	1	1	1	1	1	0	1	-19,379845	275,345044	306,525974	0
15.01.2021	14:39:56	0	57,828067	4,441057	2,30475	304,9596	0,938	85,214	0	1015,3	8,5	10	9,7	1	1	1	1	1	1	1	1	1	0	1	-12,191684	275,48561	314,380156	0
15.01.2021	14:39:57	0	57,828003	4,441059	2,14125	309,9132	0,938	85,224	0	1015,28	8,5	10	9,7	1	1	1	1	1	1	1	1	1	0	1	-14,446794	275,479199	312,094646	0
15.01.2021	14:39:58	0	57,477467	2,960708	1,97325	309,852	0,939	85,221	0	1015,4	8,5	10	9,7	1	1	1	1	1	1	1	1	1	0	1	-18,534179	275,343452	307,364105	0
15.01.2021	14:39:59	0	57,828281	4,554938	1,89825	302,4756	0,935	85,236	0	1015,38	8,5	9,9	9,7	1	1	1	1	1	1	1	1	1	0	1	-11,980268	275,325954	313,835181	0
15.01.2021	14:40:00	0	57,710924	4,554942	2,17875	288,1188	0,931	85,244	0	1015,48	8,5	10	9,7	1	1	1	1	1	1	1	1	1	0	1	-12,825934	275,338679	313,04975	0
15.01.2021	14:40:01	0	57,710924	4,554942	2,17875	288,1188	0,931	85,244	0	1015,48	8,5	10	9,7	1	1	1	1	1	1	1	1	1	0	1	-13,248767	275,496835	313,376304	0
15.01.2021	14:40:02	0	57,827684	3,985577	2,541	291,8412	0,941	85,246	0	1015,36	8,5	10	9,7	1	1	1	1	1	1	1	1	1	0	1	-12,684989	275,376902	313,371685	0
15.01.2021	14:40:03	0	57,944444	4,554947	2,80725	293,2884	0,942	85,258	0	1015,42	8,5	10	9,7	1	1	1	1	1	1	1	1	1	0	1	-12,825934	275,333906	313,027156	0
15.01.2021	14:40:04	0	57,59391	3,985581	2,81475	287,4024	0,935	85,238	0	1015,32	8,5	10	9,7	1	1	1	1	1	1	1	1	1	0	1	-11,980268	275,367339	314,031119	0
15.01.2021	14:40:05	0	57,944316	4,7827	2,7015	294,4764	0,938	85,273	0	1015,42	8,5	10	9,7	1	1	1	1	1	1	1	1	1	0	1	-18,181818	275,49042	308,412831	0
15.01.2021	14:40:06	0	57,47696	4,327207	2,63775	297,5508	0,931	85,261	0	1015,34	8,5	10	9,7	1	1	1	1	1	1	1	1	1	0	1	-18,040874	275,453574	308,379084	0
15.01.2021	14:40:07	0	57,24325	3,074596	2,58075	288,1116	0,94	85,253	0	1015,3	8,5	10	9,7	1	1	1	1	1	1	1	1	1	0	1	-20,225511	275,504857	306,437605	0
15.01.2021	14:40:08	0	57,593656	2,619102	2,57475	290,0736	0,936	85,265	0	1015,42	8,5	10	9,7	1	1	1	1	1	1	1	1	1	0	1	-12,262156	275,445573	314,119878	0
15.01.2021	14:40:09	0	57,827238	4,099466	2,66325	288,3888	0,942	85,273	0	1015,5	8,5	10	9,7	1	1	1	1	1	1	1	1	1	0	1	-12,544045	275,321185	313,248828	0
15.01.2021	14:40:10	0	57,827174	3,416223	2,77425	303,8652	0,942	85,294	0	1015,4	8,5	10	9,7	1	1	1	1	1	1	1	1	1	0	1	-11,134602	275,365745	314,869239	0
15.01.2021	14:40:11	0	57,477045	3,643973	2,8635	305,73	0,94	85,283	0	1015,26	8,5	9,9	9,7	1	1	1	1	1	1	1	1	1	0	1	-10,923185	275,314828	314,839597	0
15.01.2021	14:40:12	0	57,476982	4,668843	2,87325	308,8584	0,941	85,288	0	1015,42	8,5	9,9	9,7	1	1	1	1	1	1	1	1	1	0	1	-14,376321	275,503253	312,279184	0
15.01.2021	14:40:13	0	57,71016	4,668846	2,65125	292,95	0,94	85,28	0	1015,5	8,5	10	9,7	1	1	1	1	1	1	1	1	1	0	1	-17,195208	275,447173	309,19441	0
15.01.2021	14:40:14	0	57,593274	3,871728	2,55825	300,6	0,942	85,272	0	1015,42	8,5	10	9,7	1	1	1	1	1	1	1	1	1	0	1	-10,923185	275,508067	315,755154	0
15.01.2021	14:40:15	0	57,476389	2,505237	2,51625	294,1236	0,941	85,288	0	1015,46	8,5	10	9,7	1	1	1	1	1	1	1	1	1	0	1	-12,191684	275,42159	314,076694	0
15.01.2021	14:40:16	0	57,476728	2,732987	2,45775	310,6944	0,942	85,267	0	1015,34	8,5	9,9	9,7	1	1	1	1	1	1	1	1	1	0	1	-12,614517	275,488817	313,972528	0
15.01.2021	14:40:17	0	57,827132	4,213358	2,27475	283,572	0,942	85,268	0	1015,46	8,5	9,9	9,7	1	1	1	1	1	1	1	1	1	0	1	-12,755462	275,451973	313,65691	0
15.01.2021	14:40:18	0	57,710245	4,668858	2,30325	287,7588	0,942	85,255	0	1015,44	8,5	9,9	9,7	1	1	1	1	1	1	1	1	1	0	1	-11,41649	275,501648	315,231405	0
15.01.2021	14:40:19	0	57,827004	2,960741	2,4825	311,6988	0,94	85,239	0	1015,34	8,5	9,9	9,7	1	1	1	1	1	1	1	1	1	0	1	-13,178295	275,472789	313,332756	0
15.01.2021	14:40:20	0	57,476071	3,416262	2,622	313,218	0,943	85,252	0	1015,48	8,5	10	9,6	1	1	1	1	1	1	1	1	1	0	1	-15,997181	275,343452	309,901103	0
15.01.2021	14:40:21	0	57,359186	2,846886	2,44725	303,9408	0,945	85,252	0	1015,34	8,5	10	9,6	1	1	1	1	1	1	1	1	1	0	1	-16,349542	275,495231	310,267923	0
15.01.2021	14:40:22	0	57,476347	3,53012	2,35125	294,8436	0,939	85,241	0	1015,38	8,5	9,9	9,7	1	1	1	1	1	1	1	1	1	0	1	-13,953488	275,343452	311,944795	0
15.01.2021	14:40:23	0	57,47588	2,732997	2,40675	312,138	0,938	85,233	0	1015,4	8,5	10	9,7	1	1	1	1	1	1	1	1	1	0	1	-12,403101	275,310061	313,337122	0
15.01.2021	14:40:24	0	57,9431	4,554998	2,38275	322,6176	0,949	85,246	0	1015,5	8,5	10	9,7	1	1	1	1	1	1	1	1	1	0	1	-11,557435	275,410408	314,657963	0
15.01.2021	14:40:25	0	57,592574	3,985626	2,39175	307,62	0,937	85,236	0	1015,38	8,5	10	9,7	1	1	1	1	1	1	1	1	1	0	1	-11,41649	275,313239	314,338771	0
15.01.2021	14:40:26	0	57,358869	2,277502	2,40675	319,1832	0,942	85,247	0	1015,4	8,5	10	9,7	1	1	1	1	1	1	1	1	1	0	1	-11,486963	275,429581	314,819283	0
15.01.2021	14:40:27	0	57,475626	3,188504	2,25225	321,1812	0,94	85,241	0	1015,48	8,5	10	9,7	1	1	1	1	1	1	1	1	1	0	1	-13,460183	275,314828	312,302599	0
15.01.2021	14:40:28	0	57,826023	3,416256	2,08875	315,558	0,94	85,258	0	1015,52	8,5	10	9,7	1	1	1	1	1	1	1	1	1	0	1	-10,500352	275,432778	315,821045	0
15.01.2021	14:40:29	0	57,475902	3,985658	2,1075	320,5368	0,946	85,245	0	1015,36	8,5	9,9	9,6	1	1	1	1	1	1	1	1	1	0	1	-9,936575	275,333906	315,916515	0
15.01.2021	14:40:30	0	57,592255	4,099511	2,1735	318,7944	0,937	85,246	0	1015,36	8,5	10	9,7	1	1	1	1	1	1	1	1	1	0	1	-11,768851	275,314828	313,993931	0
15.01.2021	14:40:31	0	57,592595	2,96076	2,14425	312,714	0,936	85,243	0	1015,4	8,5	9,9	9,7	1	1	1	1	1	1	1	1	1	0	1	-13,6716	275,399233	312,490853	0
15.01.2021	14:40:32	0	57,358488	2,846886	2,07375	325,9908	0,943	85,247	0	1015,36	8,5	10	9,7	1	1	1	1	1	1	1	1	1	0	1	-12,332629	275,316417	313,437675	0
15.01.2021	14:40:33	0	57,709288	3,188514	1,995	325,5408	0,944	85,251	0	1015,4	8,5	10,1	9,7	1	1	1	1	1	1	1	1	1	0	1	-13,389711	275,443973	312,984741	0
15.01.2021	14:40:34	0	57,592	3,07464	1,84575	317,7576	0,938	85,256	0	1015,4	8,5	10	9,7	1	1	1	1	1	1	1	1	1	0	1	-11,839323	275,297355	313,840772	0
15.01.2021	14:40:35	0	57,59234	3,64402	1,7985	320,382	0,943	85,252	0	1015,34	8,5	10,1	9,7	1	1	1	1	1	1	1	1	1	0	1	-11,346018	275,397637	314,808874	0
15.01.2021	14:40:36	0	57,94233	3,074662	1,779	318,7656	0,939	85,263	0	1015,46	8,5	10	9,6	1	1	1	1	1	1	1	1	1	0	1	-10,993658	275,306884	314,731529	0
15.01.2021	14:40:37	0	57,942672	4,782781	1,82175	310,2948	0,941	85,263	0	1015,34	8,5	9,9	9,7	1	1	1	1	1	1	1	1	1	0	1	-11,41649	275,38009	314,655286	0
15.01.2021	14:40:38	0	57,474926	3,757902	1,938	312,4908	0,944	85,271	0	1015,5	8,5	10	9,7	1	1	1	1	1	1	1	1	1	0	1	-10,641297	275,501648	316,006599	0
15.01.2021	14:40:39	0	57,942138	4,327283	2,07075	317,664	0,941	85,266	0	1015,5	8,5	10	9,7	1	1	1	1	1	1	1	1	1	0	1	-13,178295	275,451973	313,234077	0
15.01.2021	14:40:40	0	57,825255	2,733039	2,19825	321,8904	0,934	85,266	0	1015,3	8,5	10	9,6	1	1	1	1	1	1	1	1	1	0	1	-8,45666	275,348227	317,464231	0
15.01.2021	14:40:41	0	57,825596	4,213386	2,3865	312,336	0,944	85,273	0	1015,44	8,5	9,9	9,8	1	1	1	1	1	1	1	1	1	0	1	-13,812544	275,448773	312,584658	0
15.01.2021	14:40:42	0	57,825127	4,555042	2,46075	318,1608	0,943	85,283	0	1015,44	8,5	10	9,7	1	1	1	1	1	1	1	1	1	0	1	-12,755462	275,496835	313,86961	0
15.01.2021	14:40:43	0	57,825063	4,441168	2,508	319,2156	0,936	85,279	0	1015,5	8,5	10	9,7	1	1	1	1	1	1	1	1	1	0	1	-21,987315	275,496835	304,637756	0
15.01.2021	14:40:44	0	57,708585	3,416285	2,379	298,6668	0,935	85,27	0	1015,4	8,5	9,9	9,7	1	1	1	1	1	1	1	1	1	0	1	-14,094433	275,453574	312,325525	0
15.01.2021	14:40:45	0	57,47448	2,846906	2,466	311,7672	0,942	85,287	0	1015,46	8,5	10	9,7	1	1	1	1	1	1	1	1	1	0	1	-11,346018	275,488817	315,241027	0
15.01.2021	14:40:46	0	58,058506	4,89668	2,74425	311,3748	0,945	85,292	0	1015,5	8,5	10	9,7	1	1	1	1	1	1	1	1	1	0	1	-14,65821	275,396041	311,489123	0
15.01.2021	14:40:47	0	57,240717	2,733032	2,796	307,8684	0,945	85,284	0	1015,44	8,5	10	9,7	1	1	1	1	1	1	1	1	1	0	1	-14,65821	275,503253	311,997295	0
15.01.2021	14:40:48	0	57,708329	3,757944	2,9475	307,5588	0,939	85,282	0	1015,34	8,5	10,1	9,6	1	1	1	1	1	1	1	1	1	0	1	-17,26568	275,442374	309,101191	0
15.01.2021	14:40:49	0	57,70786	2,619159	3,009	308,8368	0,945	85,29	0	1015,48	8,5	10	9,7	1	1	1	1	1	1	1	1	1	0	1	-14,799154	275,357781	311,166971	0
15.01.2021	14:40:50	0	57,590979	3,644049	2,9085	306,198	0,935	85,285	0	1015,24	8,5	10	9,7	1	1	1	1	1	1	1	1	1	0	1	-12,684989	275,509672	314,000962	0
15.01.2021	14:40:51	0	57,707732	2,505285	2,83875	327,1608	0,947	85,289	0	1015,36	8,5	10	9,7	1	1	1	1	1	1	1	1	1	0	1	-15,574348	275,356188	310,384236	0
15.01.2021	14:40:52	0	57,591254	3,871806	2,838	335,5164	0,936	85,287	0	1015,42	8,5	10,1	9,7	1	1	1	1	1	1	1	1	1	0	1	-15,010571	275,324365	310,797352	0
15.01.2021	14:40:53	0	57,591191	3,074671	2,946	321,822	0,943	85,285	0	1015,32	8,5	10,1	9,7	1	1	1	1	1	1	1	1	1	0	1	-12,544045	275,386469	313,557945	0
15.01.2021	14:40:54	0	57,357491	3,53018	2,8755	333,054	0,948	85,282	0	1015,44	8,5	9,9	9,7	1	1	1	1	1	1	1	1	1	0	1	-11,205074	275,316417	314,56523	0
15.01.2021	14:40:55	0	57,941515	3,302428	2,71725	319,9572	0,945	85,277	0	1015,3	8,5	9,9	9,7	1	1	1	1	1	1	1	1	1	0	1	-15,715292	275,43118	310,598528	0
15.01.2021	14:40:56	0	57,474181	4,213445	2,54625	330,0012	0,942	85,27	0	1015,34	8,5	9,9	9,7	1	1	1	1	1	1	1	1	1	0	1	-13,389711	275,500044	313,250576	0
15.01.2021	14:40:57	0	57,590935	3,188555	2,5755	335,7216	0,943	85,281	0	1015,38	8,5	9,9	9,7	1	1	1	1	1	1	1	1	1	0	1	-9,936575	275,424786	316,346948	0
15.01.2021	14:40:58	0	57,356835	4,668958	2,67675	327,3804	0,947	85,266	0	1015,38	8,5	10	9,7	1	1	1	1	1	1	1	1	1	0	1	-13,389711	275,48561	313,182129	0
15.01.2021	14:40:59	0	57,590403	2,733066	2,64525	325,5408	0,937	85,251	0	1015,36	8,5	10	9,6	1	1	1	1	1	1	1	1	1	0	1	-13,601128	275,416797	312,64454	0
15.01.2021	14:41:00	0	57,823907	2,277544	2,907	315,2268	0,936	85,258	0	1015,32	8,5	10	9,7	1	1	1	1	1	1	1	1	1	0	1	-12,614517	275,330725	313,223514	0
15.01.2021	14:41:01	0	57,823907	2,277544	2,907	315,2268	0,936	85,258	0	1015,32	8,5	10	9,7	1	1	1	1	1	1	1	1	1	0	1	-11,909796	275,327545	313,91318	0
15.01.2021	14:41:02	0	57,590615	3,074686	2,93325	317,9268	0,942	85,269	0	1015,32	8,5	10,1	9,7	1	1	1	1	1	1	1	1	1	0	1	-13,812544	275,321185	311,980329	0
15.01.2021	14:41:03	0	57,941001	4,782848	3,05325	324,108	0,938	85,272	0	1015,4	8,5	10,1	9,7	1	1	1	1	1	1	1	1	1	0	1	-14,940099	275,442374	311,426772	0
15.01.2021	14:41:04	0	57,590084	2,846935	3,04125	324,756	0,941	85,266	0	1015,28	8,5	10	9,7	1	1	1	1	1	1	1	1	1	0	1	-11,134602	275,319595	314,650747	0
15.01.2021	14:41:05	0	57,82365	3,757956	2,92425	316,6272	0,947	85,271	0	1015,56	8,5	10	9,7	1	1	1	1	1	1	1	1	1	0	1	-13,812544	275,413603	312,417987	0
15.01.2021	14:41:06	0	57,473543	2,846938	2,84625	324,9	0,938	85,267	0	1015,46	8,5	10,1	9,7	1	1	1	1	1	1	1	1	1	0	1	-14,023961	275,503253	312,631545	0
15.01.2021	14:41:07	0	57,940337	4,555103	2,889	322,9812	0,936	85,277	0	1015,34	8,5	10	9,7	1	1	1	1	1	1	1	1	1	0	1	-14,587738	275,402425	311,589838	0
15.01.2021	14:41:08	0	58,057088	4,668983	2,946	318,8124	0,941	85,278	0	1015,46	8,5	10	9,7	1	1	1	1	1	1	1	1	1	0	1	-13,107822	275,488817	313,479223	0
15.01.2021	14:41:09	0	57,706578	3,871841	3,00525	321,1524	0,938	85,289	0	1015,34	8,5	10	9,7	1	1	1	1	1	1	1	1	1	0	1	-14,094433	275,384874	312,000003	0
15.01.2021	14:41:10	0	57,940144	3,53021	2,98425	322,2396	0,944	85,278	0	1015,32	8,5	10	9,7	1	1	1	1	1	1	1	1	1	0	1	-14,164905	275,488817	312,422141	0
15.01.2021	14:41:11	0	57,473223	3,530212	2,7525	304,632	0,948	85,291	0	1015,36	8,5	9,9	9,7	1	1	1	1	1	1	1	1	1	0	1	-11,980268	275,455174	314,447277	0
15.01.2021	14:41:12	0	57,706386	3,302458	2,4945	317,0088	0,948	85,295	0	1015,42	8,5	10	9,7	1	1	1	1	1	1	1	1	1	0	1	-12,755462	275,327545	313,067514	0
15.01.2021	14:41:13	0	57,706726	2,960826	2,38875	329,8356	0,946	85,308	0	1015,44	8,5	10,1	9,7	1	1	1	1	1	1	1	1	1	0	1	-11,205074	275,448773	315,192128	0
15.01.2021	14:41:14	0	57,356216	2,505316	2,27775	316,2024	0,939	85,303	0	1015,3	8,5	10,1	9,7	1	1	1	1	1	1	1	1	1	0	1	-10,500352	275,341861	315,390397	0
15.01.2021	14:41:15	0	57,706597	3,074708	2,21775	322,2432	0,943	85,286	0	1015,48	8,5	9,9	9,7	1	1	1	1	1	1	1	1	1	0	1	-10,923185	275,443973	315,451267	0
15.01.2021	14:41:16	0	57,356089	3,302465	2,172	311,058	0,94	85,303	0	1015,42	8,5	9,9	9,7	1	1	1	1	1	1	1	1	1	0	1	-15,997181	275,492024	310,605072	0
15.01.2021	14:41:17	0	57,823284	3,188608	2,28525	307,4652	0,943	85,306	0	1015,38	8,5	9,9	9,6	1	1	1	1	1	1	1	1	1	0	1	-14,023961	275,445573	312,358074	0
15.01.2021	14:41:18	0	57,939628	3,757982	2,50425	321,1308	0,948	85,314	0	1015,24	8,5	10	9,7	1	1	1	1	1	1	1	1	1	0	1	-16,138125	275,484007	310,426114	0
15.01.2021	14:41:19	0	57,70634	2,733096	2,637	312,9048	0,946	85,314	0	1015,32	8,5	9,9	9,6	1	1	1	1	1	1	1	1	1	0	1	-17,970402	275,356188	307,988182	0
15.01.2021	14:41:20	0	57,939905	3,302473	2,6595	295,6068	0,944	85,303	0	1015,58	8,5	10,1	9,7	1	1	1	1	1	1	1	1	1	0	1	-15,433404	275,445573	310,948631	0
15.01.2021	14:41:21	0	57,472584	4,213502	2,64	309,546	0,943	85,315	0	1015,32	8,5	9,9	9,7	1	1	1	1	1	1	1	1	1	0	1	-14,65821	275,488817	311,928835	0
15.01.2021	14:41:22	0	58,05659	4,782896	2,58525	306,1008	0,943	85,323	0	1015,4	8,5	10,1	9,7	1	1	1	1	1	1	1	1	1	0	1	-14,305849	275,354596	311,645195	0
15.01.2021	14:41:23	0	57,939711	4,66902	2,36325	290,4516	0,943	85,317	0	1015,52	8,5	9,9	9,7	1	1	1	1	1	1	1	1	1	0	1	-12,544045	275,364152	313,452251	0
15.01.2021	14:41:24	0	57,588802	4,213508	2,229	301,5972	0,942	85,314	0	1015,22	8,5	10	9,7	1	1	1	1	1	1	1	1	1	0	1	-16,983791	275,461578	309,474109	0
15.01.2021	14:41:25	0	57,822363	4,327389	2,25375	299,7972	0,946	85,305	0	1015,34	8,5	10	9,7	1	1	1	1	1	1	1	1	1	0	1	-18,181818	275,458376	308,260903	0
15.01.2021	14:41:26	0	57,939112	4,896785	2,124	307,602	0,943	85,302	0	1015,38	8,5	10	9,7	1	1	1	1	1	1	1	1	1	0	1	-11,839323	275,448773	314,557878	0
15.01.2021	14:41:27	0	57,939047	4,327394	2,05275	306,432	0,969	85,334	0	1015,64	8,5	10	9,7	1	1	1	1	1	1	1	1	1	0	1	-16,560958	275,495231	310,056506	0
15.01.2021	14:41:28	0	58,055795	4,896791	2,1675	318,8952	0,937	85,297	0	1015,36	8,5	10	9,7	1	1	1	1	1	1	1	1	1	0	1	-15,362932	275,445573	311,019103	0
15.01.2021	14:41:29	0	57,355258	3,416367	2,2665	312,1416	0,95	85,309	0	1015,42	8,5	10,1	9,7	1	1	1	1	1	1	1	1	1	0	1	-14,940099	275,508067	311,73824	0
15.01.2021	14:41:30	0	57,472007	3,985764	2,433	301,266	0,942	85,318	0	1015,42	8,5	10,1	9,7	1	1	1	1	1	1	1	1	1	0	1	-16,631431	275,427983	309,66724	0
15.01.2021	14:41:31	0	57,354728	2,505339	2,373	309,4884	0,939	85,308	0	1015,44	8,6	10	9,7	1	1	1	1	1	1	1	1	1	0	1	-13,601128	275,332316	312,244432	0
15.01.2021	14:41:32	0	57,822317	3,985768	2,253	300,924	0,944	85,312	0	1015,32	8,4	10,1	9,7	1	1	1	1	1	1	1	1	1	0	1	-15,151515	275,384874	310,942921	0
15.01.2021	14:41:33	0	57,355002	3,98577	2,112	304,2756	0,945	85,321	0	1015,44	8,5	10,1	9,7	1	1	1	1	1	1	1	1	1	0	1	-12,332629	275,329135	313,497874	0
15.01.2021	14:41:34	0	57,588563	2,619222	2,24175	327,8052	0,944	85,318	0	1015,46	8,5	10,1	9,7	1	1	1	1	1	1	1	1	1	0	1	-10,782241	275,467984	315,706027	0
15.01.2021	14:41:35	0	57,354874	3,985775	2,3145	310,2444	0,94	85,31	0	1015,32	8,5	10,1	9,7	1	1	1	1	1	1	1	1	1	0	1	-15,574348	275,469585	310,921513	0
15.01.2021	14:41:36	0	57,471623	2,163707	2,18325	326,3616	0,941	85,318	0	1015,3	8,5	9,9	9,7	1	1	1	1	1	1	1	1	1	0	1	-14,65821	275,368932	311,360723	0
15.01.2021	14:41:37	0	57,588371	4,669055	2,169	310,6548	0,948	85,324	0	1015,42	8,5	10,1	9,7	1	1	1	1	1	1	1	1	1	0	1	-14,517266	275,493628	312,092593	0
15.01.2021	14:41:38	0	57,587903	3,416384	2,1825	310,7268	0,95	85,31	0	1015,48	8,5	10	9,7	1	1	1	1	1	1	1	1	1	0	1	-17,406624	275,453574	309,013334	0
15.01.2021	14:41:39	0	57,588242	3,074747	2,148	315,1152	0,947	85,322	0	1015,28	8,6	10,1	9,7	1	1	1	1	1	1	1	1	1	0	1	-11,134602	275,493628	315,475257	0
15.01.2021	14:41:40	0	57,471366	2,61923	2,2455	339,7536	0,944	85,36	0	1015,46	8,5	10,1	9,7	1	1	1	1	1	1	1	1	1	0	1	-15,926709	275,437575	310,417422	0
15.01.2021	14:41:41	0	57,821737	4,441306	2,27775	334,1664	0,946	85,306	0	1015,46	8,5	10,1	9,7	1	1	1	1	1	1	1	1	1	0	1	-13,460183	275,508067	313,218156	0
15.01.2021	14:41:42	0	57,704456	2,391474	2,424	318,4884	0,943	85,3	0	1015,3	8,5	10	9,7	1	1	1	1	1	1	1	1	1	0	1	-16,420014	275,432778	309,901383	0
15.01.2021	14:41:43	0	57,704392	4,669099	2,53725	333,432	0,945	85,298	0	1015,34	8,5	10	9,6	1	1	1	1	1	1	1	1	1	0	1	-15,64482	275,329135	310,185683	0
15.01.2021	14:41:44	0	57,821138	4,669073	2,73825	327,366	0,949	85,303	0	1015,44	8,5	10	9,7	1	1	1	1	1	1	1	1	1	0	1	-13,248767	275,458376	313,193954	0
15.01.2021	14:41:45	0	57,353832	3,530277	2,83875	327,0636	0,947	85,307	0	1015,36	8,5	10	9,7	1	1	1	1	1	1	1	1	1	0	1	-17,477097	275,437575	308,867034	0
15.01.2021	14:41:46	0	57,587792	3,530279	2,82	315,2592	0,95	85,31	0	1015,42	8,5	10,1	9,7	1	1	1	1	1	1	1	1	1	0	1	-13,601128	275,313239	312,154134	0
15.01.2021	14:41:47	0	57,354106	2,50536	3,12075	319,644	0,95	85,313	0	1015,4	8,5	10,1	9,7	1	1	1	1	1	1	1	1	1	0	1	-13,953488	275,362559	312,035264	0
15.01.2021	14:41:48	0	57,58726	5,238483	3,33525	312,4908	0,953	85,321	0	1015,42	8,6	10	9,7	1	1	1	1	1	1	1	1	1	0	1	-12,403101	275,480801	314,145938	0
15.01.2021	14:41:49	0	57,353978	2,847003	3,2865	313,5168	0,953	85,294	0	1015,38	8,4	10,1	9,7	1	1	1	1	1	1	1	1	1	0	1	-12,262156	275,445573	314,119878	0
15.01.2021	14:41:50	0	57,353914	3,758047	3,08925	309,2652	0,945	85,301	0	1015,3	8,5	10,1	9,7	1	1	1	1	1	1	1	1	1	0	1	-15,785765	275,310061	309,954458	0
15.01.2021	14:41:51	0	57,704281	3,074767	3,057	298,6344	0,945	85,285	0	1015,28	8,6	10,1	9,7	1	1	1	1	1	1	1	1	1	0	1	-13,107822	275,354596	312,843222	0
15.01.2021	14:41:52	0	57,120165	3,41641	2,82525	309,4776	0,949	85,293	0	1015,26	8,5	10,1	9,7	1	1	1	1	1	1	1	1	1	0	1	-9,584214	275,49042	317,010435	0
15.01.2021	14:41:53	0	57,703747	4,669096	2,64675	302,418	0,945	85,281	0	1015,54	8,5	10	9,7	1	1	1	1	1	1	1	1	1	0	1	-16,27907	275,447173	310,110548	0
15.01.2021	14:41:54	0	57,703683	3,985839	2,487	320,76	0,951	85,274	0	1015,42	8,5	10	9,6	1	1	1	1	1	1	1	1	1	0	1	-14,235377	275,37212	311,79865	0
15.01.2021	14:41:55	0	57,587213	4,669129	2,38425	312,7932	0,946	85,264	0	1015,38	8,5	10,1	9,6	1	1	1	1	1	1	1	1	1	0	1	-12,825934	275,504857	313,837182	0
15.01.2021	14:41:56	0	57,470339	3,416417	2,34	319,2156	0,942	85,263	0	1015,26	8,5	10,1	9,7	1	1	1	1	1	1	1	1	1	0	1	-11,839323	275,435976	314,497229	0
15.01.2021	14:41:57	0	57,236254	3,530299	2,22975	321,1812	0,951	85,252	0	1015,34	8,6	10	9,7	1	1	1	1	1	1	1	1	1	0	1	-14,164905	275,310061	311,575318	0
15.01.2021	14:41:58	0	57,587019	3,074779	1,96725	310,1076	0,944	85,234	0	1015,5	8,6	10,1	9,7	1	1	1	1	1	1	1	1	1	0	1	-13,883016	275,448773	312,514186	0
15.01.2021	14:41:59	0	57,703764	4,441376	1,911	307,0872	0,942	85,228	0	1015,4	8,6	10,1	9,6	1	1	1	1	1	1	1	1	1	0	1	-12,896406	275,503253	313,759099	0
15.01.2021	14:42:00	0	57,352806	3,758069	1,92375	328,5972	0,945	85,204	0	1015,32	8,5	10	9,7	1	1	1	1	1	1	1	1	1	0	1	-13,460183	275,321185	312,33269	0
15.01.2021	14:42:01	0	57,352806	3,758069	1,92375	328,5972	0,945	85,204	0	1015,32	8,5	10	9,7	1	1	1	1	1	1	1	1	1	0	1	-14,517266	275,364152	311,479031	0
15.01.2021	14:42:02	0	57,235934	3,188666	2,031	307,5984	0,945	85,204	0	1015,42	8,6	10	9,7	1	1	1	1	1	1	1	1	1	0	1	-14,799154	275,49042	311,795495	0
15.01.2021	14:42:03	0	57,586294	3,188668	2,01975	329,5656	0,944	85,179	0	1015,34	8,6	10	9,7	1	1	1	1	1	1	1	1	1	0	1	-9,725159	275,429581	316,581087	0
15.01.2021	14:42:04	0	57,469824	4,783004	1,97175	321,1884	0,941	85,163	0	1015,34	8,6	10,1	9,7	1	1	1	1	1	1	1	1	1	0	1	-10,147992	275,314828	315,614791	0
15.01.2021	14:42:05	0	57,35255	3,07479	1,998	315,8892	0,936	85,168	0	1015,4	8,6	10	9,7	1	1	1	1	1	1	1	1	1	0	1	-10,359408	275,443973	316,015044	0
15.01.2021	14:42:06	0	57,235678	4,213629	2,013	316,2492	0,941	85,162	0	1015,4	8,6	10	9,6	1	1	1	1	1	1	1	1	1	0	1	-12,614517	275,487213	313,964925	0
15.01.2021	14:42:07	0	57,352823	4,213606	2,00625	315,1476	0,944	85,143	0	1015,3	8,6	10,1	9,7	1	1	1	1	1	1	1	1	1	0	1	-16,631431	275,351411	309,304535	0
15.01.2021	14:42:08	0	57,352357	4,669133	2,04975	305,3412	0,943	85,144	0	1015,4	8,5	10	9,7	1	1	1	1	1	1	1	1	1	0	1	-15,715292	275,458376	310,727429	0
15.01.2021	14:42:09	0	57,118679	3,188678	2,1765	306,81	0,943	85,138	0	1015,44	8,5	10	9,7	1	1	1	1	1	1	1	1	1	0	1	-13,530655	275,360966	312,450554	0
15.01.2021	14:42:10	0	57,119015	3,18868	2,23875	304,686	0,94	85,14	0	1015,46	8,5	10,1	9,7	1	1	1	1	1	1	1	1	1	0	1	-12,544045	275,493628	314,065813	0
15.01.2021	14:42:11	0	57,235357	2,847037	2,26425	310,3056	0,935	85,119	0	1015,36	8,6	10	9,7	1	1	1	1	1	1	1	1	1	0	1	-11,980268	275,439175	314,371442	0
15.01.2021	14:42:12	0	57,352502	2,277631	2,26575	290,4228	0,94	85,111	0	1015,28	8,6	10,1	9,7	1	1	1	1	1	1	1	1	1	0	1	-14,517266	275,329135	311,313237	0
15.01.2021	14:42:13	0	57,23563	4,21362	2,175	294,408	0,943	85,121	0	1015,3	8,5	10,1	9,7	1	1	1	1	1	1	1	1	1	0	1	-12,121212	275,469585	314,374649	0
15.01.2021	14:42:14	0	57,351972	3,872	2,259	313,9812	0,945	85,125	0	1015,42	8,5	10	9,6	1	1	1	1	1	1	1	1	1	0	1	-14,728682	275,375307	311,320443	0
15.01.2021	14:42:15	0	57,352309	3,985885	2,34375	323,3484	0,943	85,101	0	1015,34	8,6	10,1	9,6	1	1	1	1	1	1	1	1	1	0	1	-12,684989	275,496835	313,940082	0
15.01.2021	14:42:16	0	57,468649	4,213626	2,391	323,3196	0,935	85,105	0	1015,38	8,5	10	9,7	1	1	1	1	1	1	1	1	1	0	1	-13,812544	275,396041	312,334789	0
15.01.2021	14:42:17	0	57,234973	5,010802	2,3805	299,8872	0,943	85,114	0	1015,46	8,4	10	9,7	1	1	1	1	1	1	1	1	1	0	1	-13,389711	275,488817	313,197334	0
15.01.2021	14:42:18	0	56,767685	2,847048	2,45025	309,2184	0,94	85,103	0	1015,38	8,6	10	9,7	1	1	1	1	1	1	1	1	1	0	1	-11,698379	275,325954	314,11707	0
15.01.2021	14:42:19	0	57,234844	4,213633	2,5215	312,444	0,936	85,096	0	1015,42	8,6	10	9,7	1	1	1	1	1	1	1	1	1	0	1	-12,684989	275,434377	313,643985	0
15.01.2021	14:42:20	0	57,468794	4,669164	2,59875	307,1412	0,942	85,111	0	1015,46	8,6	10,1	9,7	1	1	1	1	1	1	1	1	1	0	1	-12,825934	275,479199	313,715506	0
15.01.2021	14:42:21	0	56,767494	2,049878	2,67975	304,6716	0,935	85,099	0	1015,22	8,4	10	9,7	1	1	1	1	1	1	1	1	1	0	1	-14,164905	275,448773	312,232297	0
15.01.2021	14:42:22	0	57,351457	4,669197	2,67825	316,962	0,947	85,108	0	1015,42	8,5	10	9,6	1	1	1	1	1	1	1	1	1	0	1	-14,940099	275,451973	311,472273	0
15.01.2021	14:42:23	0	57,118182	4,896936	2,46	291,1428	0,933	85,112	0	1015,3	8,6	10,1	9,7	1	1	1	1	1	1	1	1	1	0	1	-12,896406	275,319595	312,888943	0
15.01.2021	14:42:24	0	57,117718	3,871998	2,37975	300,1788	0,94	85,118	0	1015,46	8,6	10	9,7	1	1	1	1	1	1	1	1	1	0	1	-12,825934	275,31165	312,921808	0
15.01.2021	14:42:25	0	56,884044	2,847076	2,307	298,9728	0,941	85,099	0	1015,52	8,5	10	9,6	1	1	1	1	1	1	1	1	1	0	1	-14,587738	275,488817	311,999308	0
15.01.2021	14:42:26	0	57,234395	4,213649	2,1345	305,982	0,937	85,113	0	1015,4	8,5	10	9,7	1	1	1	1	1	1	1	1	1	0	1	-12,896406	275,351411	313,03956	0
15.01.2021	14:42:27	0	56,767111	3,530357	2,1015	311,3532	0,936	85,092	0	1015,3	8,6	10	9,7	1	1	1	1	1	1	1	1	1	0	1	-15,292459	275,302119	310,410178	0
15.01.2021	14:42:28	0	57,117462	2,960946	2,08725	297,18	0,937	85,087	0	1015,4	8,6	10	9,7	1	1	1	1	1	1	1	1	1	0	1	-14,305849	275,365745	311,697992	0
15.01.2021	14:42:29	0	57,117397	4,327539	2,05425	306,0792	0,939	85,099	0	1015,58	8,6	10	9,7	1	1	1	1	1	1	1	1	1	0	1	-13,953488	275,501648	312,694407	0
15.01.2021	14:42:30	0	57,117333	4,441424	1,99875	315,5328	0,935	85,08	0	1015,32	8,5	10	9,7	1	1	1	1	1	1	1	1	1	0	1	-14,517266	275,378496	311,54696	0
15.01.2021	14:42:31	0	57,000465	3,302599	2,07225	313,6212	0,937	85,068	0	1015,44	8,5	10	9,7	1	1	1	1	1	1	1	1	1	0	1	-13,460183	275,479199	313,081256	0
15.01.2021	14:42:32	0	57,000401	3,644249	2,13525	328,8384	0,933	85,082	0	1015,46	8,6	10	9,7	1	1	1	1	1	1	1	1	1	0	1	-11,346018	275,443973	315,028434	0
15.01.2021	14:42:33	0	57,350749	4,555314	2,0955	324,3528	0,936	85,079	0	1015,56	8,6	10	9,7	1	1	1	1	1	1	1	1	1	0	1	-12,332629	275,453574	314,087329	0
15.01.2021	14:42:34	0	57,117077	3,07482	1,96875	315,4248	0,929	85,067	0	1015,3	8,5	10	9,8	1	1	1	1	1	1	1	1	1	0	1	-13,178295	275,496835	313,446777	0
15.01.2021	14:42:35	0	56,766601	4,783084	1,84725	299,3436	0,936	85,056	0	1015,38	8,6	10	9,7	1	1	1	1	1	1	1	1	1	0	1	-13,953488	275,440774	312,405802	0
15.01.2021	14:42:36	0	56,883341	4,783087	1,79475	315,8892	0,936	85,064	0	1015,44	8,5	10	9,7	1	1	1	1	1	1	1	1	1	0	1	-13,460183	275,487213	313,119259	0
15.01.2021	14:42:37	0	57,000081	4,669235	1,69125	326,4048	0,927	85,065	0	1015,36	8,5	10	9,6	1	1	1	1	1	1	1	1	1	0	1	-12,121212	275,435976	314,21534	0
15.01.2021	14:42:38	0	56,650004	2,733212	1,662	315,2448	0,932	85,047	0	1015,5	8,6	10,1	9,6	1	1	1	1	1	1	1	1	1	0	1	-10,570825	275,324365	315,237098	0
15.01.2021	14:42:39	0	56,766346	3,530401	1,6845	334,314	0,936	85,053	0	1015,36	8,5	10	9,6	1	1	1	1	1	1	1	1	1	0	1	-11,557435	275,407215	314,642832	0
15.01.2021	14:42:40	0	57,116692	3,416498	1,72125	329,5908	0,934	85,048	0	1015,3	8,5	10	9,7	1	1	1	1	1	1	1	1	1	0	1	-11,41649	275,319595	314,368859	0
15.01.2021	14:42:41	0	57,23343	4,896983	1,713	321,4296	0,934	85,063	0	1015,28	8,5	10	9,7	1	1	1	1	1	1	1	1	1	0	1	-13,319239	275,373713	312,722337	0
15.01.2021	14:42:42	0	56,882958	2,391551	1,65225	336,762	0,929	85,057	0	1015,4	8,5	10	9,7	1	1	1	1	1	1	1	1	1	0	1	-12,05074	275,324365	313,757183	0
15.01.2021	14:42:43	0	56,766091	4,441455	1,653	313,6032	0,93	85,051	0	1015,42	8,6	10	9,7	1	1	1	1	1	1	1	1	1	0	1	-14,587738	275,443973	311,786715	0
15.01.2021	14:42:44	0	56,766027	4,3276	1,7115	327,042	0,932	85,048	0	1015,32	8,6	10	9,6	1	1	1	1	1	1	1	1	1	0	1	-10,147992	275,480801	316,401047	0
15.01.2021	14:42:45	0	56,999568	4,213718	1,77375	321,8796	0,932	85,058	0	1015,36	8,5	10	9,6	1	1	1	1	1	1	1	1	1	0	1	-14,65821	275,429581	311,648035	0
15.01.2021	14:42:46	0	56,649097	4,441462	1,74075	312,1884	0,932	85,052	0	1015,44	8,5	10	9,7	1	1	1	1	1	1	1	1	1	0	1	-13,107822	275,477596	313,426019	0
15.01.2021	14:42:47	0	56,883036	3,644278	1,6755	310,9644	0,936	85,056	0	1015,46	8,5	10,1	9,7	1	1	1	1	1	1	1	1	1	0	1	-12,473573	275,447173	313,916045	0
15.01.2021	14:42:48	0	56,64897	4,783118	1,61475	306,8064	0,932	85,052	0	1015,4	8,6	10	9,7	1	1	1	1	1	1	1	1	1	0	1	-12,473573	275,48561	314,098268	0
15.01.2021	14:42:49	0	56,999311	4,897004	1,62	299,7252	0,933	85,056	0	1015,36	8,5	10	9,7	1	1	1	1	1	1	1	1	1	0	1	-11,06413	275,396041	315,083203	0
15.01.2021	14:42:50	0	56,648842	2,391562	1,61175	281,3688	0,927	85,048	0	1015,16	8,6	10	9,7	1	1	1	1	1	1	1	1	1	0	1	-16,490486	275,308472	309,242218	0
15.01.2021	14:42:51	0	56,999183	4,099847	1,7925	293,7888	0,929	85,05	0	1015,34	8,5	10	9,6	1	1	1	1	1	1	1	1	1	0	1	-10,993658	275,399233	315,168795	0
15.01.2021	14:42:52	0	56,765516	4,441503	1,87275	293,2668	0,933	85,044	0	1015,34	8,5	10	9,6	1	1	1	1	1	1	1	1	1	0	1	-13,812544	275,300531	311,882579	0
15.01.2021	14:42:53	0	56,181445	2,847102	1,87125	299,7792	0,93	85,054	0	1015,42	8,5	10	9,7	1	1	1	1	1	1	1	1	1	0	1	-17,124736	275,367339	308,886651	0
15.01.2021	14:42:54	0	56,882189	5,010902	1,812	305,3124	0,927	85,036	0	1015,36	8,5	10	9,7	1	1	1	1	1	1	1	1	1	0	1	-7,610994	275,322775	318,189404	0
15.01.2021	14:42:55	0	56,998926	4,89705	1,75125	315,8532	0,928	85,039	0	1015,4	8,5	10	9,6	1	1	1	1	1	1	1	1	1	0	1	-13,601128	275,439175	312,750582	0
15.01.2021	14:42:56	0	56,76526	3,302643	1,72125	302,778	0,93	85,031	0	1015,4	8,5	10	9,7	1	1	1	1	1	1	1	1	1	0	1	-10,218464	275,376902	315,838211	0
15.01.2021	14:42:57	0	56,648396	2,960992	1,818	301,1616	0,927	85,029	0	1015,4	8,6	10	9,7	1	1	1	1	1	1	1	1	1	0	1	-15,221987	275,333906	310,631102	0
15.01.2021	14:42:58	0	56,29793	3,530416	1,9305	308,07	0,929	85,04	0	1015,46	8,5	10	9,7	1	1	1	1	1	1	1	1	1	0	1	-9,020437	275,477596	317,513404	0
15.01.2021	14:42:59	0	56,765068	4,897002	1,947	322,8804	0,926	85,026	0	1015,42	8,5	10	9,8	1	1	1	1	1	1	1	1	1	0	1	-13,460183	275,448773	312,937019	0
15.01.2021	14:43:00	0	55,947338	2,73323	1,788	307,566	0,925	85,033	0	1015,34	8,5	10	9,7	1	1	1	1	1	1	1	1	1	0	1	-11,557435	275,308472	314,175269	0
15.01.2021	14:43:01	0	55,947338	2,73323	1,788	307,566	0,925	85,033	0	1015,34	8,5	10	9,7	1	1	1	1	1	1	1	1	1	0	1	-10,147992	275,34027	315,735224	0
15.01.2021	14:43:02	0	56,064076	2,619331	1,74825	315,486	0,932	85,036	0	1015,54	8,5	10	9,8	1	1	1	1	1	1	1	1	1	0	1	-15,081043	275,488817	311,506002	0
15.01.2021	14:43:03	0	56,648013	4,555415	1,74375	318,816	0,929	85,032	0	1015,28	8,5	10	9,6	1	1	1	1	1	1	1	1	1	0	1	-9,372798	275,388064	316,736748	0
15.01.2021	14:43:04	0	56,297549	3,530427	1,731	304,6716	0,932	85,05	0	1015,48	8,5	10	9,7	1	1	1	1	1	1	1	1	1	0	1	-12,755462	275,49844	313,877217	0
15.01.2021	14:43:05	0	56,414285	3,644292	1,72725	300,3732	0,925	85,042	0	1015,38	8,5	10	9,8	1	1	1	1	1	1	1	1	1	0	1	-12,614517	275,353003	313,328987	0
15.01.2021	14:43:06	0	56,180622	3,530431	1,69125	307,188	0,93	85,048	0	1015,42	8,5	10	9,7	1	1	1	1	1	1	1	1	1	0	1	-8,245243	275,305295	317,472426	0
15.01.2021	14:43:07	0	56,414158	4,555425	1,608	327,4344	0,932	85,057	0	1015,3	8,5	10	9,6	1	1	1	1	1	1	1	1	1	0	1	-14,164905	275,368932	311,854028	0
15.01.2021	14:43:08	0	56,297295	2,96101	1,57275	323,7444	0,93	85,064	0	1015,48	8,5	10	9,7	1	1	1	1	1	1	1	1	1	0	1	-12,05074	275,348227	313,870151	0
15.01.2021	14:43:09	0	56,180432	3,302687	1,55775	314,0964	0,932	85,066	0	1015,34	8,5	10	9,6	1	1	1	1	1	1	1	1	1	0	1	-8,738548	275,479199	317,802891	0
15.01.2021	14:43:10	0	56,413967	4,783175	1,59	324,3096	0,93	85,065	0	1015,28	8,5	10	9,7	1	1	1	1	1	1	1	1	1	0	1	-14,094433	275,359373	311,879234	0
15.01.2021	14:43:11	0	56,063507	2,847147	1,644	327,6756	0,928	85,062	0	1015,42	8,5	10	9,6	1	1	1	1	1	1	1	1	1	0	1	-13,530655	275,493628	313,079203	0
15.01.2021	14:43:12	0	56,180242	3,07492	1,7685	329,2668	0,925	85,067	0	1015,36	8,5	10	9,6	1	1	1	1	1	1	1	1	1	0	1	-13,6716	275,423188	312,604351	0
15.01.2021	14:43:13	0	56,413776	4,213782	1,81725	327,114	0,931	85,083	0	1015,26	8,5	10	9,6	1	1	1	1	1	1	1	1	1	0	1	-18,111346	275,314828	307,651437	0
15.01.2021	14:43:14	0	56,180115	3,758195	1,8255	326,3472	0,925	85,091	0	1015,3	8,5	10	9,8	1	1	1	1	1	1	1	1	1	0	1	-8,879493	275,408812	317,328339	0
15.01.2021	14:43:15	0	56,180052	2,961039	1,82025	321,8148	0,923	85,103	0	1015,3	8,5	10	9,6	1	1	1	1	1	1	1	1	1	0	1	-14,376321	275,49042	312,218328	0
15.01.2021	14:43:16	0	56,179988	3,87213	1,8	310,2696	0,929	85,108	0	1015,36	8,5	10	9,6	1	1	1	1	1	1	1	1	1	0	1	-12,473573	275,314828	313,28921	0
15.01.2021	14:43:17	0	56,413521	4,099905	1,8105	318,4056	0,933	85,109	0	1015,3	8,5	10	9,6	1	1	1	1	1	1	1	1	1	0	1	-9,654686	275,405618	316,538016	0
15.01.2021	14:43:18	0	56,29666	4,099858	1,74825	319,2444	0,931	85,123	0	1015,4	8,5	10	9,8	1	1	1	1	1	1	1	1	1	0	1	-13,178295	275,31165	312,569447	0
15.01.2021	14:43:19	0	56,179798	3,530477	1,692	319,5324	0,928	85,169	0	1015,34	8,5	10	9,6	1	1	1	1	1	1	1	1	1	0	1	-10,147992	275,429581	316,158254	0
15.01.2021	14:43:20	0	56,179735	4,669287	1,71375	310,6548	0,926	85,131	0	1015,3	8,5	10	9,8	1	1	1	1	1	1	1	1	1	0	1	-13,389711	275,434377	312,939263	0
15.01.2021	14:43:21	0	55,712481	4,441573	1,7775	320,7492	0,929	85,121	0	1015,34	8,5	10	9,6	1	1	1	1	1	1	1	1	1	0	1	-9,584214	275,487213	316,995228	0
15.01.2021	14:43:22	0	55,946013	4,441575	1,87725	304,218	0,927	85,136	0	1015,4	8,5	10	9,6	1	1	1	1	1	1	1	1	1	0	1	-9,231853	275,456775	317,203279	0
15.01.2021	14:43:23	0	55,829152	2,847148	1,92525	311,5332	0,93	85,169	0	1015,34	8,5	10	9,7	1	1	1	1	1	1	1	1	1	0	1	-14,023961	275,495231	312,593504	0
15.01.2021	14:43:24	0	55,945886	3,074922	1,99125	310,9572	0,934	85,171	0	1015,44	8,5	10	9,7	1	1	1	1	1	1	1	1	1	0	1	-14,869626	275,330725	310,968405	0
15.01.2021	14:43:25	0	56,296214	4,783243	1,998	312,0948	0,936	85,161	0	1015,48	8,5	10	9,6	1	1	1	1	1	1	1	1	1	0	1	-11,557435	275,303707	314,152718	0
15.01.2021	14:43:26	0	56,179354	4,441558	2,0325	313,1316	0,931	85,166	0	1015,44	8,5	10	9,7	1	1	1	1	1	1	1	1	1	0	1	-13,742072	275,432778	312,579325	0
15.01.2021	14:43:27	0	55,8289	4,441561	1,98825	326,358	0,933	85,183	0	1015,46	8,5	10	9,7	1	1	1	1	1	1	1	1	1	0	1	-18,534179	275,325954	307,28127	0
15.01.2021	14:43:28	0	55,828837	3,188795	1,83675	311,0328	0,934	85,202	0	1015,28	8,5	10	9,8	1	1	1	1	1	1	1	1	1	0	1	-11,134602	275,437575	315,209529	0
15.01.2021	14:43:29	0	56,062367	3,872157	1,75875	320,382	0,933	85,178	0	1015,44	8,5	10	9,6	1	1	1	1	1	1	1	1	1	0	1	-8,104299	275,313239	317,650963	0
15.01.2021	14:43:30	0	56,062303	4,327708	1,6245	324,3492	0,936	85,216	0	1015,44	8,5	10	9,6	1	1	1	1	1	1	1	1	1	0	1	-11,205074	275,443973	315,169378	0
15.01.2021	14:43:31	0	55,828647	5,238744	1,56225	304,5168	0,931	85,204	0	1015,38	8,5	10	9,8	1	1	1	1	1	1	1	1	1	0	1	-12,191684	275,477596	314,342157	0
15.01.2021	14:43:32	0	56,062176	4,897119	1,6605	311,8104	0,934	85,246	0	1015,46	8,5	10	9,7	1	1	1	1	1	1	1	1	1	0	1	-12,684989	275,373713	313,356586	0
15.01.2021	14:43:33	0	55,945317	4,669348	1,785	321,444	0,938	85,238	0	1015,46	8,5	10	9,7	1	1	1	1	1	1	1	1	1	0	1	-13,319239	275,461578	313,138661	0
15.01.2021	14:43:34	0	55,711662	2,505505	1,97475	319,5648	0,933	85,247	0	1015,28	8,5	10	9,7	1	1	1	1	1	1	1	1	1	0	1	-12,191684	275,488817	314,395361	0
15.01.2021	14:43:35	0	55,94519	2,73328	2,00925	316,2708	0,938	85,226	0	1015,34	8,5	10	9,7	1	1	1	1	1	1	1	1	1	0	1	-11,41649	275,397637	314,738402	0
15.01.2021	14:43:36	0	55,828331	2,961037	1,977	323,6652	0,934	85,252	0	1015,4	8,5	10	9,8	1	1	1	1	1	1	1	1	1	0	1	-12,825934	275,322775	312,974464	0
15.01.2021	14:43:37	0	55,711473	2,733299	1,8525	303,912	0,942	85,275	0	1015,48	8,5	10	9,6	1	1	1	1	1	1	1	1	1	0	1	-14,517266	275,389659	311,599836	0
15.01.2021	14:43:38	0	55,711409	2,847171	1,761	308,0808	0,942	85,267	0	1015,4	8,5	10	9,7	1	1	1	1	1	1	1	1	1	0	1	-12,262156	275,484007	314,302083	0
15.01.2021	14:43:39	0	55,944937	4,783279	1,602	310,644	0,937	85,277	0	1015,22	8,5	10	9,6	1	1	1	1	1	1	1	1	1	0	1	-14,65821	275,368932	311,360723	0
15.01.2021	14:43:40	0	55,477693	3,416609	1,4685	309,9492	0,94	85,294	0	1015,54	8,5	10	9,7	1	1	1	1	1	1	1	1	1	0	1	-12,755462	275,298943	312,932147	0
15.01.2021	14:43:41	0	55,594425	2,277741	1,45575	307,1664	0,938	85,301	0	1015,32	8,5	10	9,7	1	1	1	1	1	1	1	1	1	0	1	-12,755462	275,443973	313,618991	0
15.01.2021	14:43:42	0	55,594362	3,644387	1,449	304,6176	0,941	85,308	0	1015,34	8,5	10	9,7	1	1	1	1	1	1	1	1	1	0	1	-14,728682	275,306884	310,996504	0
15.01.2021	14:43:43	0	55,477505	2,733292	1,42725	309,2832	0,941	85,319	0	1015,42	8,5	10	9,7	1	1	1	1	1	1	1	1	1	0	1	-10,500352	275,357781	315,465773	0
15.01.2021	14:43:44	0	55,477442	3,074955	1,33125	311,6484	0,942	85,319	0	1015,34	8,5	10	9,7	1	1	1	1	1	1	1	1	1	0	1	-16,701903	275,316417	309,068401	0
15.01.2021	14:43:45	0	55,477379	3,530506	1,2705	307,188	0,939	85,327	0	1015,24	8,5	10	9,7	1	1	1	1	1	1	1	1	1	0	1	-12,825934	275,429581	313,480311	0
15.01.2021	14:43:46	0	55,59411	4,555494	1,3065	303,5376	0,94	85,346	0	1015,44	8,5	10	9,7	1	1	1	1	1	1	1	1	1	0	1	-14,728682	275,492024	311,873571	0
15.01.2021	14:43:47	0	55,360459	3,872172	1,35	309,4884	0,944	85,35	0	1015,44	8,5	10	9,7	1	1	1	1	1	1	1	1	1	0	1	-10,007047	275,373713	316,034528	0
15.01.2021	14:43:48	0	55,243602	3,872197	1,2945	315,1584	0,942	85,354	0	1015,48	8,5	10	9,6	1	1	1	1	1	1	1	1	1	0	1	-9,513742	275,300531	316,181381	0
15.01.2021	14:43:49	0	55,710715	5,011052	1,25175	319,1868	0,949	85,361	0	1015,38	8,5	10	9,7	1	1	1	1	1	1	1	1	1	0	1	-9,866103	275,31165	315,881639	0
15.01.2021	14:43:50	0	55,710652	3,986066	1,17825	332,0208	0,944	85,356	0	1015,32	8,5	10	9,7	1	1	1	1	1	1	1	1	1	0	1	-13,178295	275,375307	312,87083	0
15.01.2021	14:43:51	0	55,243414	2,847192	1,107	321,8184	0,946	85,35	0	1015,38	8,5	10	9,7	1	1	1	1	1	1	1	1	1	0	1	-8,174771	275,303707	317,535382	0
15.01.2021	14:43:52	0	55,126558	3,302764	1,0575	310,2084	0,946	85,367	0	1015,44	8,5	10	9,6	1	1	1	1	1	1	1	1	1	0	1	-10,42988	275,439175	315,92183	0
15.01.2021	14:43:53	0	55,126496	3,416634	1,0905	309,492	0,945	85,372	0	1015,38	8,5	10	9,7	1	1	1	1	1	1	1	1	1	0	1	-13,883016	275,343452	312,015267	0
15.01.2021	14:43:54	0	55,243226	2,847196	1,09125	318,7836	0,949	85,384	0	1015,42	8,5	10	9,7	1	1	1	1	1	1	1	1	1	0	1	-13,883016	275,480801	312,666023	0
15.01.2021	14:43:55	0	55,12637	2,847215	1,05	325,4904	0,948	85,375	0	1015,52	8,5	10	9,6	1	1	1	1	1	1	1	1	1	0	1	-9,090909	275,384874	317,003527	0
15.01.2021	14:43:56	0	55,59348	4,441631	1,0995	322,9704	0,953	85,376	0	1015,36	8,5	10	9,7	1	1	1	1	1	1	1	1	1	0	1	-9,654686	275,488817	316,932359	0
15.01.2021	14:43:57	0	55,243038	2,505537	1,07775	319,986	0,952	85,366	0	1015,4	8,5	10	9,7	1	1	1	1	1	1	1	1	1	0	1	-12,755462	275,376902	313,301213	0
15.01.2021	14:43:58	0	54,659012	3,074979	1,089	316,278	0,954	85,385	0	1015,44	8,5	10	9,7	1	1	1	1	1	1	1	1	1	0	1	-9,513742	275,480801	317,035297	0
15.01.2021	14:43:59	0	55,009328	2,733316	1,08675	316,2492	0,95	85,365	0	1015,38	8,5	10	9,7	1	1	1	1	1	1	1	1	1	0	1	-15,221987	275,357781	310,744138	0
15.01.2021	14:44:00	0	55,242788	4,66942	1,104	325,0332	0,945	85,355	0	1015,28	8,5	10	9,7	1	1	1	1	1	1	1	1	1	0	1	-10,42988	275,319595	315,355469	0
15.01.2021	14:44:01	0	55,242788	4,66942	1,104	325,0332	0,945	85,355	0	1015,28	8,5	10	9,7	1	1	1	1	1	1	1	1	1	0	1	-9,795631	275,443973	316,578822	0
15.01.2021	14:44:02	0	55,125933	4,099981	1,05375	322,6068	0,944	85,364	0	1015,4	8,5	10	9,7	1	1	1	1	1	1	1	1	1	0	1	-13,03735	275,496835	313,587721	0
15.01.2021	14:44:03	0	55,242662	4,213871	1,04925	319,9716	0,954	85,377	0	1015,4	8,5	10	9,7	1	1	1	1	1	1	1	1	1	0	1	-14,799154	275,404022	311,385985	0
15.01.2021	14:44:04	0	55,242599	3,302766	1,071	321,2028	0,95	85,375	0	1015,46	8,5	10	9,7	1	1	1	1	1	1	1	1	1	0	1	-13,03735	275,480801	313,511688	0
15.01.2021	14:44:05	0	55,359329	4,441653	1,0965	320,8572	0,95	85,381	0	1015,42	8,5	10	9,7	1	1	1	1	1	1	1	1	1	0	1	-14,869626	275,373713	311,171949	0
15.01.2021	14:44:06	0	54,892099	2,619422	1,11375	323,658	0,954	85,372	0	1015,36	8,5	10	9,8	1	1	1	1	1	1	1	1	1	0	1	-16,701903	275,503253	309,953603	0
15.01.2021	14:44:07	0	55,242411	3,986103	1,227	320,364	0,949	85,379	0	1015,34	8,5	10	9,7	1	1	1	1	1	1	1	1	1	0	1	-10,852713	275,34027	315,030503	0
15.01.2021	14:44:08	0	54,775183	3,188884	1,3965	313,11	0,951	85,376	0	1015,36	8,5	10	9,7	1	1	1	1	1	1	1	1	1	0	1	-10,782241	275,345044	315,123578	0
15.01.2021	14:44:09	0	55,359077	3,416643	1,55475	319,518	0,957	85,362	0	1015,4	8,5	10	9,8	1	1	1	1	1	1	1	1	1	0	1	-15,292459	275,354596	310,658584	0
15.01.2021	14:44:10	0	55,008641	4,327776	1,55475	323,7588	0,956	85,381	0	1015,42	8,5	10	9,7	1	1	1	1	1	1	1	1	1	0	1	-14,305849	275,49844	312,326829	0
15.01.2021	14:44:11	0	54,891787	3,074982	1,4775	321,138	0,949	85,385	0	1015,32	8,5	10	9,8	1	1	1	1	1	1	1	1	1	0	1	-13,319239	275,373713	312,722337	0
15.01.2021	14:44:12	0	54,658143	3,30278	1,4235	317,8188	0,956	85,398	0	1015,22	8,5	10	9,7	1	1	1	1	1	1	1	1	1	0	1	-10,923185	275,319595	314,862164	0
15.01.2021	14:44:13	0	55,242035	4,327783	1,50675	310,2732	0,956	85,413	0	1015,44	8,5	10	9,7	1	1	1	1	1	1	1	1	1	0	1	-11,41649	275,378496	314,647735	0
15.01.2021	14:44:14	0	55,125181	4,213897	1,50525	324,36	0,958	85,406	0	1015,24	8,5	10	9,7	1	1	1	1	1	1	1	1	1	0	1	-11,980268	275,475994	314,545976	0
15.01.2021	14:44:15	0	54,891537	3,758342	1,61025	322,9524	0,952	85,396	0	1015,22	8,5	10	9,7	1	1	1	1	1	1	1	1	1	0	1	-9,795631	275,442374	316,57124	0
15.01.2021	14:44:16	0	54,657894	4,32779	1,728	332,3628	0,957	85,381	0	1015,4	8,5	10	9,7	1	1	1	1	1	1	1	1	1	0	1	-11,557435	275,475994	314,968809	0
15.01.2021	14:44:17	0	54,891413	4,78335	1,7715	328,5576	0,951	85,402	0	1015,38	8,5	10	9,7	1	1	1	1	1	1	1	1	1	0	1	-16,420014	275,458376	310,022707	0
15.01.2021	14:44:18	0	55,00814	5,352767	1,674	316,6488	0,951	85,42	0	1015,42	8,5	10	9,8	1	1	1	1	1	1	1	1	1	0	1	-8,738548	275,466382	317,742126	0
15.01.2021	14:44:19	0	54,774498	3,530572	1,5825	322,6248	0,955	85,429	0	1015,42	8,5	10	9,7	1	1	1	1	1	1	1	1	1	0	1	-12,684989	275,365745	313,318852	0
15.01.2021	14:44:20	0	54,657646	4,669496	1,55925	309,8628	0,962	85,421	0	1015,44	8,5	10	9,6	1	1	1	1	1	1	1	1	1	0	1	-12,614517	275,49042	313,980132	0
15.01.2021	14:44:21	0	55,007953	3,302796	1,59	322,9884	0,957	85,42	0	1015,3	8,5	10	9,7	1	1	1	1	1	1	1	1	1	0	1	-11,41649	275,482404	315,140148	0
15.01.2021	14:44:22	0	54,774311	4,555584	1,64775	317,4012	0,958	85,408	0	1015,32	8,5	10	9,7	1	1	1	1	1	1	1	1	1	0	1	-12,121212	275,319595	313,664137	0
15.01.2021	14:44:23	0	55,124617	3,30278	1,7745	326,2608	0,963	85,419	0	1015,54	8,5	10	9,8	1	1	1	1	1	1	1	1	1	0	1	-11,768851	275,482404	314,787787	0
15.01.2021	14:44:24	0	54,423818	4,555589	1,8585	310,7664	0,96	85,416	0	1015,4	8,5	10	9,7	1	1	1	1	1	1	1	1	1	0	1	-17,195208	275,381685	308,884121	0
15.01.2021	14:44:25	0	54,423756	4,555591	1,899	314,4168	0,964	85,427	0	1015,4	8,5	10	9,7	1	1	1	1	1	1	1	1	1	0	1	-10,570825	275,492024	316,031429	0
15.01.2021	14:44:26	0	54,774061	2,961118	1,91175	322,2036	0,958	85,422	0	1015,44	8,5	10	9,8	1	1	1	1	1	1	1	1	1	0	1	-11,06413	275,37212	314,969898	0
15.01.2021	14:44:27	0	54,773999	2,961138	1,9575	313,3044	0,955	85,421	0	1015,42	8,5	10	9,7	1	1	1	1	1	1	1	1	1	0	1	-15,081043	275,484007	311,483196	0
15.01.2021	14:44:28	0	54,890726	3,416699	1,9935	320,4072	0,963	85,419	0	1015,32	8,5	10	9,7	1	1	1	1	1	1	1	1	1	0	1	-9,725159	275,437575	316,618972	0
15.01.2021	14:44:29	0	54,540297	4,441711	2,07	317,052	0,962	85,428	0	1015,42	8,5	10	9,7	1	1	1	1	1	1	1	1	1	0	1	-11,909796	275,506462	314,760931	0
15.01.2021	14:44:30	0	54,773812	2,847252	2,061	327,1536	0,962	85,43	0	1015,42	8,5	10	9,7	1	1	1	1	1	1	1	1	1	0	1	-12,966878	275,360966	313,014331	0
15.01.2021	14:44:31	0	54,540173	2,505583	2,06025	316,278	0,964	85,41	0	1015,48	8,5	10	9,7	1	1	1	1	1	1	1	1	1	0	1	-13,178295	275,49042	313,416354	0
15.01.2021	14:44:32	0	54,890475	4,441719	2,178	319,2912	0,958	85,402	0	1015,44	8,5	10	9,7	1	1	1	1	1	1	1	1	1	0	1	-10,570825	275,348227	315,350066	0
15.01.2021	14:44:33	0	54,306472	2,961147	2,25375	321,1128	0,967	85,409	0	1015,54	8,5	10	9,7	1	1	1	1	1	1	1	1	1	0	1	-11,41649	275,316417	314,353814	0
15.01.2021	14:44:34	0	54,539986	3,758381	2,22975	315,5148	0,96	85,405	0	1015,5	8,5	10	9,7	1	1	1	1	1	1	1	1	1	0	1	-8,45666	275,451973	317,955712	0
15.01.2021	14:44:35	0	54,189561	2,505589	2,06475	310,014	0,961	85,378	0	1015,38	8,5	10	9,7	1	1	1	1	1	1	1	1	1	0	1	-10,359408	275,357781	315,606717	0
15.01.2021	14:44:36	0	54,423074	2,961152	1,91625	313,5852	0,961	85,396	0	1015,38	8,5	10	9,7	1	1	1	1	1	1	1	1	1	0	1	-11,134602	275,308472	314,598102	0
15.01.2021	14:44:37	0	54,5398	4,669512	1,8195	312,8796	0,963	85,382	0	1015,36	8,5	10	9,7	1	1	1	1	1	1	1	1	1	0	1	-12,825934	275,458376	313,616787	0
15.01.2021	14:44:38	0	54,773313	4,555651	1,7595	299,0016	0,962	85,37	0	1015,32	8,5	10	9,6	1	1	1	1	1	1	1	1	1	0	1	-13,530655	275,488817	313,05639	0
15.01.2021	14:44:39	0	54,77325	4,669517	1,8045	312,4764	0,968	85,369	0	1015,22	8,5	10	9,7	1	1	1	1	1	1	1	1	1	0	1	-11,980268	275,405618	314,212435	0
15.01.2021	14:44:40	0	54,656401	3,644503	1,76625	311,8176	0,969	85,363	0	1015,48	8,5	10	9,7	1	1	1	1	1	1	1	1	1	0	1	-12,121212	275,487213	314,45823	0
15.01.2021	14:44:41	0	54,305977	3,075051	1,84725	297,9432	0,956	85,345	0	1015,38	8,5	10	9,7	1	1	1	1	1	1	1	1	1	0	1	-13,107822	275,364152	312,888474	0
15.01.2021	14:44:42	0	54,422702	3,644507	1,908	301,2264	0,959	85,354	0	1015,44	8,5	10	9,7	1	1	1	1	1	1	1	1	1	0	1	-9,725159	275,493628	316,8847	0
15.01.2021	14:44:43	0	54,539427	2,847273	1,9245	303,5772	0,957	85,328	0	1015,3	8,5	10	9,7	1	1	1	1	1	1	1	1	1	0	1	-10,923185	275,423188	315,352765	0
15.01.2021	14:44:44	0	54,072218	2,847274	1,9545	306,4248	0,961	85,335	0	1015,38	8,5	10	9,7	1	1	1	1	1	1	1	1	1	0	1	-16,631431	275,322775	309,168967	0
15.01.2021	14:44:45	0	54,305729	4,100077	1,929	311,4072	0,96	85,339	0	1015,42	8,5	10	9,7	1	1	1	1	1	1	1	1	1	0	1	-11,698379	275,388064	314,411166	0
15.01.2021	14:44:46	0	54,072095	2,847294	1,87875	305,3808	0,965	85,334	0	1015,5	8,5	10	9,6	1	1	1	1	1	1	1	1	1	0	1	-8,949965	275,487213	317,629478	0
15.01.2021	14:44:47	0	54,655964	4,89732	1,76625	312,84	0,954	85,312	0	1015,28	8,5	10	9,7	1	1	1	1	1	1	1	1	1	0	1	-11,205074	275,354596	314,74597	0
15.01.2021	14:44:48	0	54,42233	3,416737	1,77525	298,9296	0,963	85,32	0	1015,32	8,5	10	9,7	1	1	1	1	1	1	1	1	1	0	1	-11,486963	275,443973	314,88749	0
15.01.2021	14:44:49	0	54,071909	3,188956	1,845	310,4136	0,958	85,306	0	1015,4	8,5	10	9,7	1	1	1	1	1	1	1	1	1	0	1	-8,738548	275,322775	317,061849	0
15.01.2021	14:44:50	0	54,422205	3,075066	1,896	314,0532	0,961	85,315	0	1015,42	8,5	10	9,7	1	1	1	1	1	1	1	1	1	0	1	-13,6716	275,443973	312,702853	0
15.01.2021	14:44:51	0	54,188572	2,505611	1,8075	307,2348	0,959	85,316	0	1015,48	8,5	10	9,7	1	1	1	1	1	1	1	1	1	0	1	-14,446794	275,329135	311,383709	0
15.01.2021	14:44:52	0	54,071724	3,644505	1,7505	312,5556	0,957	85,297	0	1015,14	8,5	10	9,8	1	1	1	1	1	1	1	1	1	0	1	-9,231853	275,424786	317,05167	0
15.01.2021	14:44:53	0	54,305233	4,44177	1,65675	310,9248	0,96	85,304	0	1015,4	8,5	10	9,7	1	1	1	1	1	1	1	1	1	0	1	-12,825934	275,48561	313,745907	0
15.01.2021	14:44:54	0	53,954815	3,188965	1,7055	310,6944	0,961	85,296	0	1015,34	8,5	10	9,7	1	1	1	1	1	1	1	1	1	0	1	-9,090909	275,440774	317,268381	0
15.01.2021	14:44:55	0	54,188324	5,125125	1,8735	304,6932	0,959	85,295	0	1015,42	8,5	10	9,7	1	1	1	1	1	1	1	1	1	0	1	-7,681466	275,456775	318,753667	0
15.01.2021	14:44:56	0	54,305047	2,847293	2,0385	310,6872	0,961	85,266	0	1015,34	8,5	10	9,7	1	1	1	1	1	1	1	1	1	0	1	-12,966878	275,49042	313,627771	0
15.01.2021	14:44:57	0	54,1882	3,644537	2,1735	311,8248	0,963	85,297	0	1015,38	8,5	10	9,7	1	1	1	1	1	1	1	1	1	0	1	-15,856237	275,364152	310,14006	0
15.01.2021	14:44:58	0	54,071354	2,163932	2,24925	306,4752	0,962	85,297	0	1015,4	8,5	10	9,8	1	1	1	1	1	1	1	1	1	0	1	-13,178295	275,367339	312,833092	0
15.01.2021	14:44:59	0	54,421646	3,075081	2,24775	302,4756	0,963	85,292	0	1015,46	8,5	10	9,7	1	1	1	1	1	1	1	1	1	0	1	-11,698379	275,362559	314,290373	0
15.01.2021	14:45:00	0	53,604031	3,302869	2,07375	301,6152	0,962	85,297	0	1015,46	8,5	10	9,7	1	1	1	1	1	1	1	1	1	0	1	-12,05074	275,477596	314,483101	0
15.01.2021	14:45:01	0	53,604031	3,302869	2,07375	301,6152	0,962	85,297	0	1015,46	8,5	10	9,7	1	1	1	1	1	1	1	1	1	0	1	-10,218464	275,34027	315,664752	0
15.01.2021	14:45:02	0	54,304675	4,100115	2,22375	295,1496	0,963	85,3	0	1015,38	8,5	10	9,7	1	1	1	1	1	1	1	1	1	0	1	-12,191684	275,453574	314,228274	0
15.01.2021	14:45:03	0	54,421397	3,644549	2,3655	292,6836	0,962	85,304	0	1015,42	8,5	10	9,7	1	1	1	1	1	1	1	1	1	0	1	-16,208598	275,306884	309,516589	0
15.01.2021	14:45:04	0	54,187767	4,32793	2,36925	295,506	0,96	85,3	0	1015,2	8,5	10	9,6	1	1	1	1	1	1	1	1	1	0	1	-14,094433	275,333906	311,758657	0
15.01.2021	14:45:05	0	54,070921	2,163966	2,349	297,1836	0,962	85,311	0	1015,38	8,5	10	9,6	1	1	1	1	1	1	1	1	1	0	1	-10,42988	275,432778	315,891517	0
15.01.2021	14:45:06	0	53,837292	2,961201	2,286	299,7684	0,965	85,29	0	1015,24	8,5	10	9,7	1	1	1	1	1	1	1	1	1	0	1	-19,238901	275,31165	306,508841	0
15.01.2021	14:45:07	0	53,83723	2,961203	2,2005	301,1976	0,963	85,306	0	1015,36	8,5	10	9,7	1	1	1	1	1	1	1	1	1	0	1	-9,795631	275,480801	316,753408	0
15.01.2021	14:45:08	0	54,304302	4,441806	2,0865	302,04	0,959	85,292	0	1015,3	8,5	10	9,7	1	1	1	1	1	1	1	1	1	0	1	-10,993658	275,445573	315,388377	0
15.01.2021	14:45:09	0	53,60354	3,302883	1,947	321,1704	0,96	85,282	0	1015,34	8,5	10	9,7	1	1	1	1	1	1	1	1	1	0	1	-12,262156	275,330725	313,575875	0
15.01.2021	14:45:10	0	54,304178	4,669596	1,743	312,4188	0,961	85,291	0	1015,42	8,5	10	9,7	1	1	1	1	1	1	1	1	1	0	1	-9,725159	275,448773	316,672043	0
15.01.2021	14:45:11	0	54,07055	4,327921	1,6035	312,9156	0,963	85,284	0	1015,44	8,5	10	9,7	1	1	1	1	1	1	1	1	1	0	1	-14,799154	275,359373	311,174512	0
15.01.2021	14:45:12	0	53,836922	4,441816	1,44825	322,6068	0,965	85,279	0	1015,38	8,5	10	9,7	1	1	1	1	1	1	1	1	1	0	1	-12,191684	275,319595	313,593665	0
15.01.2021	14:45:13	0	53,720078	4,214033	1,4595	300,1392	0,96	85,269	0	1015,4	8,5	10	9,7	1	1	1	1	1	1	1	1	1	0	1	-8,738548	275,381685	317,340781	0
15.01.2021	14:45:14	0	53,953582	3,075107	1,50825	308,9052	0,961	85,258	0	1015,2	8,5	10	9,7	1	1	1	1	1	1	1	1	1	0	1	-9,372798	275,318006	316,405029	0
15.01.2021	14:45:15	0	54,187085	4,555716	1,52175	311,7636	0,96	85,252	0	1015,44	8,5	10	9,7	1	1	1	1	1	1	1	1	1	0	1	-13,742072	275,353003	312,201433	0
15.01.2021	14:45:16	0	54,303805	4,783476	1,49325	309,1536	0,961	85,224	0	1015,34	8,5	10	9,8	1	1	1	1	1	1	1	1	1	0	1	-11,909796	275,49042	314,684853	0
15.01.2021	14:45:17	0	53,953396	3,986256	1,398	315,486	0,964	85,225	0	1015,4	8,5	10	9,7	1	1	1	1	1	1	1	1	1	0	1	-12,896406	275,364152	313,09989	0
15.01.2021	14:45:18	0	53,71977	4,100152	1,314	315,504	0,966	85,222	0	1015,44	8,5	10	9,7	1	1	1	1	1	1	1	1	1	0	1	-16,490486	275,475994	310,035758	0
15.01.2021	14:45:19	0	54,070055	4,783513	1,28775	284,4468	0,962	85,206	0	1015,44	8,5	10	9,7	1	1	1	1	1	1	1	1	1	0	1	-11,346018	275,450373	315,058768	0
15.01.2021	14:45:20	0	53,953211	4,214049	1,26675	313,2792	0,96	85,204	0	1015,24	8,5	10	9,7	1	1	1	1	1	1	1	1	1	0	1	-11,346018	275,493628	315,26384	0
15.01.2021	14:45:21	0	53,836367	2,847332	1,34025	314,0856	0,953	85,186	0	1015,36	8,5	10	9,7	1	1	1	1	1	1	1	1	1	0	1	-10,359408	275,357781	315,606717	0
15.01.2021	14:45:22	0	53,485961	2,619547	1,50375	291,8016	0,964	85,162	0	1015,22	8,5	10	9,7	1	1	1	1	1	1	1	1	1	0	1	-10,641297	275,302119	315,061341	0
15.01.2021	14:45:23	0	54,069807	4,555709	1,64925	297,2412	0,961	85,167	0	1015,44	8,5	10	9,8	1	1	1	1	1	1	1	1	1	0	1	-15,997181	275,399233	310,165272	0
15.01.2021	14:45:24	0	53,369057	3,302911	1,7685	287,3988	0,962	85,162	0	1015,4	8,5	10	9,7	1	1	1	1	1	1	1	1	1	0	1	-13,460183	275,480801	313,088856	0
15.01.2021	14:45:25	0	53,602558	4,327954	1,812	301,2552	0,962	85,144	0	1015,4	8,5	10	9,7	1	1	1	1	1	1	1	1	1	0	1	-14,65821	275,394446	311,481564	0
15.01.2021	14:45:26	0	53,836059	4,669638	1,88625	299,7576	0,964	85,134	0	1015,4	8,5	10	9,7	1	1	1	1	1	1	1	1	1	0	1	-16,842847	275,482404	309,713791	0
15.01.2021	14:45:27	0	54,18634	4,555747	2,07225	288,126	0,957	85,12	0	1015,44	8,5	10	9,7	1	1	1	1	1	1	1	1	1	0	1	-12,966878	275,384874	313,127558	0
15.01.2021	14:45:28	0	53,952716	4,214043	2,1495	300,8952	0,952	85,093	0	1015,38	8,5	10	9,8	1	1	1	1	1	1	1	1	1	0	1	-10,993658	275,337088	314,874494	0
15.01.2021	14:45:29	0	53,835874	2,847345	2,14425	329,3388	0,955	85,108	0	1015,28	8,5	10	9,7	1	1	1	1	1	1	1	1	1	0	1	-10,359408	275,378496	315,704817	0
15.01.2021	14:45:30	0	53,719031	3,530709	2,08725	314,3736	0,955	85,109	0	1015,4	8,5	10	9,7	1	1	1	1	1	1	1	1	1	0	1	-11,839323	275,386469	314,262667	0
15.01.2021	14:45:31	0	53,71897	2,961242	1,98	326,7432	0,956	85,093	0	1015,32	8,5	10	9,7	1	1	1	1	1	1	1	1	1	0	1	-11,557435	275,335497	314,303185	0
15.01.2021	14:45:32	0	53,602128	5,011335	1,82475	294,7284	0,952	85,088	0	1015,22	8,5	10	9,7	1	1	1	1	1	1	1	1	1	0	1	-10,923185	275,378496	315,14104	0
15.01.2021	14:45:33	0	53,602066	3,530715	1,77	311,814	0,955	85,099	0	1015,38	8,5	10	9,7	1	1	1	1	1	1	1	1	1	0	1	-10,359408	275,493628	316,250451	0
15.01.2021	14:45:34	0	53,602005	3,416823	1,7955	316,998	0,956	85,085	0	1015,3	8,5	10	9,7	1	1	1	1	1	1	1	1	1	0	1	-9,372798	275,381685	316,706531	0
15.01.2021	14:45:35	0	53,485164	4,441873	1,89225	324,6768	0,953	85,072	0	1015,42	8,5	10	9,7	1	1	1	1	1	1	1	1	1	0	1	-8,527132	275,314828	317,235651	0
15.01.2021	14:45:36	0	53,601882	4,783558	1,82025	321,48	0,957	85,056	0	1015,34	8,5	10	9,7	1	1	1	1	1	1	1	1	1	0	1	-18,393235	275,442374	307,973636	0
15.01.2021	14:45:37	0	53,60182	4,555772	1,863	329,3352	0,954	85,064	0	1015,32	8,5	10	9,7	1	1	1	1	1	1	1	1	1	0	1	-11,06413	275,500044	315,576157	0
15.01.2021	14:45:38	0	53,484979	3,302936	1,97775	317,7576	0,95	85,046	0	1015,34	8,5	10	9,7	1	1	1	1	1	1	1	1	1	0	1	-12,896406	275,419992	313,364402	0
15.01.2021	14:45:39	0	53,835256	4,555777	2,17725	308,8188	0,956	85,043	0	1015,36	8,5	10	9,7	1	1	1	1	1	1	1	1	1	0	1	-14,023961	275,318006	311,753866	0
15.01.2021	14:45:40	0	53,134519	1,936206	2,40975	308,862	0,945	85,025	0	1015,26	8,5	10	9,7	1	1	1	1	1	1	1	1	1	0	1	-14,023961	275,487213	312,555482	0
15.01.2021	14:45:41	0	53,134458	2,847381	2,67525	308,8656	0,952	85,026	0	1015,4	8,5	10	9,6	1	1	1	1	1	1	1	1	1	0	1	-18,25229	275,333906	307,600799	0
15.01.2021	14:45:42	0	53,83507	4,783602	2,8095	309,2724	0,951	85,025	0	1015,42	8,4	10	9,6	1	1	1	1	1	1	1	1	1	0	1	-16,27907	275,400829	309,890944	0
15.01.2021	14:45:43	0	53,484672	4,555787	2,9265	309,8988	0,952	85,016	0	1015,22	8,5	10	9,7	1	1	1	1	1	1	1	1	1	0	1	-14,305849	275,492024	312,296404	0
15.01.2021	14:45:44	0	53,367832	4,328	3,00825	308,43	0,954	85,017	0	1015,38	8,5	10	9,7	1	1	1	1	1	1	1	1	1	0	1	-10,641297	275,442374	315,725574	0
15.01.2021	14:45:45	0	53,134214	3,302949	3,03675	308,8368	0,945	85,019	0	1015,42	8,5	10	9,7	1	1	1	1	1	1	1	1	1	0	1	-10,923185	275,453574	315,496773	0
15.01.2021	14:45:46	0	53,484488	4,100215	3,054	315,5328	0,947	84,99	0	1015,42	8,5	10	9,7	1	1	1	1	1	1	1	1	1	0	1	-12,473573	275,488817	314,113472	0
15.01.2021	14:45:47	0	53,25087	4,55577	3,0435	320,0328	0,952	85,004	0	1015,4	8,5	10	9,8	1	1	1	1	1	1	1	1	1	0	1	-14,094433	275,362559	311,89432	0
15.01.2021	14:45:48	0	53,601143	3,87243	3,05325	311,0328	0,956	85,005	0	1015,46	8,5	10	9,7	1	1	1	1	1	1	1	1	1	0	1	-13,953488	275,316417	311,816816	0
15.01.2021	14:45:49	0	53,484304	4,669725	3,12	321,1704	0,95	85,007	0	1015,48	8,5	10	9,6	1	1	1	1	1	1	1	1	1	0	1	-11,205074	275,455174	315,222471	0
15.01.2021	14:45:50	0	53,484242	2,961273	3,20325	321,1632	0,942	84,992	0	1015,32	8,5	10	9,7	1	1	1	1	1	1	1	1	1	0	1	-15,574348	275,322775	310,226049	0
15.01.2021	14:45:51	0	53,01707	2,391784	3,17325	321,8004	0,948	84,999	0	1015,34	8,5	10	9,8	1	1	1	1	1	1	1	1	1	0	1	-16,631431	275,461578	309,82647	0
15.01.2021	14:45:52	0	53,367342	3,530752	3,10575	314,802	0,949	84,995	0	1015,36	8,5	10	9,7	1	1	1	1	1	1	1	1	1	0	1	-14,023961	275,318006	311,753866	0
15.01.2021	14:45:53	0	53,484058	4,669707	3,10425	313,668	0,95	84,992	0	1015,34	8,5	10	9,7	1	1	1	1	1	1	1	1	1	0	1	-7,892882	275,400829	318,277132	0
15.01.2021	14:45:54	0	52,783332	2,733472	3,1665	312,1524	0,943	84,985	0	1015,34	8,5	10	9,8	1	1	1	1	1	1	1	1	1	0	1	-14,869626	275,313239	310,885635	0
15.01.2021	14:45:55	0	53,25038	3,872445	2,9985	311,3604	0,946	84,98	0	1015,36	8,5	10	9,7	1	1	1	1	1	1	1	1	1	0	1	-14,235377	275,413603	311,995154	0
15.01.2021	14:45:56	0	53,016765	2,847387	2,949	312,8652	0,951	84,988	0	1015,38	8,5	10	9,7	1	1	1	1	1	1	1	1	1	0	1	-12,191684	275,324365	313,616238	0
15.01.2021	14:45:57	0	53,250258	3,872449	2,85675	309,834	0,945	84,999	0	1015,2	8,5	10	9,7	1	1	1	1	1	1	1	1	1	0	1	-12,05074	275,330725	313,787291	0
15.01.2021	14:45:58	0	52,899866	3,0752	2,787	313,524	0,945	84,985	0	1015,52	8,3	10	9,6	1	1	1	1	1	1	1	1	1	0	1	-11,980268	275,408812	314,227564	0
15.01.2021	14:45:59	0	52,783029	3,87243	2,6955	311,0112	0,947	84,98	0	1015,38	8,5	10	9,8	1	1	1	1	1	1	1	1	1	0	1	-11,486963	275,474391	315,031684	0
15.01.2021	14:46:00	0	53,250013	4,100249	2,652	305,3988	0,943	84,961	0	1015,3	8,5	10	9,7	1	1	1	1	1	1	1	1	1	0	1	-12,825934	275,424786	313,457589	0
15.01.2021	14:46:01	0	53,250013	4,100249	2,652	305,3988	0,943	84,961	0	1015,3	8,5	10	9,7	1	1	1	1	1	1	1	1	1	0	1	-11,486963	275,487213	315,09248	0
15.01.2021	14:46:02	0	53,133175	4,783626	2,61825	307,5588	0,947	84,973	0	1015,42	8,5	10	9,7	1	1	1	1	1	1	1	1	1	0	1	-11,06413	275,39285	315,068086	0
15.01.2021	14:46:03	0	53,016338	3,758566	2,538	317,3688	0,939	84,957	0	1015,4	8,5	10	9,7	1	1	1	1	1	1	1	1	1	0	1	-14,587738	275,482404	311,968901	0
15.01.2021	14:46:04	0	53,016277	3,98636	2,3415	315,1368	0,945	84,952	0	1015,48	8,5	10	9,7	1	1	1	1	1	1	1	1	1	0	1	-16,842847	275,367339	309,168539	0
15.01.2021	14:46:05	0	53,016216	3,75857	2,3385	307,62	0,94	84,947	0	1015,34	8,5	10	9,7	1	1	1	1	1	1	1	1	1	0	1	-15,292459	275,302119	310,410178	0
15.01.2021	14:46:06	0	53,016155	3,872468	2,277	314,064	0,945	84,956	0	1015,36	8,4	10	9,7	1	1	1	1	1	1	1	1	1	0	1	-11,557435	275,330725	314,280596	0
15.01.2021	14:46:07	0	53,249645	4,78364	2,23875	309,5748	0,945	84,956	0	1015,56	8,5	10	9,7	1	1	1	1	1	1	1	1	1	0	1	-11,41649	275,49844	315,216188	0
15.01.2021	14:46:08	0	53,132808	2,847406	2,2485	309,8988	0,942	84,955	0	1015,4	8,5	10	9,7	1	1	1	1	1	1	1	1	1	0	1	-12,544045	275,341861	313,346704	0
15.01.2021	14:46:09	0	53,132747	4,441956	2,337	318,384	0,942	84,952	0	1015,32	8,5	10	9,7	1	1	1	1	1	1	1	1	1	0	1	-13,460183	275,442374	312,906688	0
15.01.2021	14:46:10	0	52,432035	2,50572	2,35875	317,0232	0,947	84,94	0	1015,42	8,5	10	9,7	1	1	1	1	1	1	1	1	1	0	1	-11,134602	275,319595	314,650747	0
15.01.2021	14:46:11	0	52,548749	4,100272	2,331	315,1944	0,942	84,96	0	1015,44	8,5	10	9,7	1	1	1	1	1	1	1	1	1	0	1	-13,319239	275,472789	313,191812	0
15.01.2021	14:46:12	0	53,015788	4,55586	2,32425	315,4896	0,935	84,953	0	1015,4	8,5	10	9,7	1	1	1	1	1	1	1	1	1	0	1	-10,077519	275,464781	316,395563	0
15.01.2021	14:46:13	0	52,665403	2,05015	2,42475	320,076	0,935	84,955	0	1015,28	8,5	10	9,6	1	1	1	1	1	1	1	1	1	0	1	-12,332629	275,357781	313,633496	0
15.01.2021	14:46:14	0	52,665342	2,733519	2,49075	321,9228	0,942	84,96	0	1015,4	8,5	10	9,7	1	1	1	1	1	1	1	1	1	0	1	-13,6716	275,469585	312,824262	0
15.01.2021	14:46:15	0	53,015605	2,733521	2,46225	313,164	0,933	84,941	0	1015,46	8,5	10	9,7	1	1	1	1	1	1	1	1	1	0	1	-14,446794	275,346636	311,466561	0
15.01.2021	14:46:16	0	53,249093	4,783664	2,47425	315,1728	0,94	84,938	0	1015,28	8,5	10	9,7	1	1	1	1	1	1	1	1	1	0	1	-10,359408	275,487213	316,220035	0
15.01.2021	14:46:17	0	53,015483	3,075214	2,42475	311,04	0,938	84,96	0	1015,34	8,5	10	9,7	1	1	1	1	1	1	1	1	1	0	1	-9,654686	275,426384	316,63641	0
15.01.2021	14:46:18	0	52,899018	3,416906	2,36325	318,3912	0,942	84,951	0	1015,32	8,5	10,1	9,7	1	1	1	1	1	1	1	1	1	0	1	-12,896406	275,479199	313,645034	0
15.01.2021	14:46:19	0	52,548265	2,96132	2,29275	309,5604	0,939	84,959	0	1015,32	8,4	10	9,7	1	1	1	1	1	1	1	1	1	0	1	-15,926709	275,333906	309,926381	0
15.01.2021	14:46:20	0	52,548204	2,505734	2,319	316,9872	0,944	84,958	0	1015,46	8,4	10	9,7	1	1	1	1	1	1	1	1	1	0	1	-9,795631	275,49042	316,799018	0
15.01.2021	14:46:21	0	53,132012	5,011471	2,4405	312,1848	0,942	84,952	0	1015,42	8,4	10	9,7	1	1	1	1	1	1	1	1	1	0	1	-12,825934	275,442374	313,540937	0
15.01.2021	14:46:22	0	52,548083	2,847428	2,59275	318,4452	0,94	84,948	0	1015,38	8,5	10	9,7	1	1	1	1	1	1	1	1	1	0	1	-10,570825	275,343452	315,327459	0
15.01.2021	14:46:23	0	52,664796	2,619651	2,697	312,8292	0,938	84,954	0	1015,44	8,5	10	9,6	1	1	1	1	1	1	1	1	1	0	1	-9,936575	275,319595	315,848774	0
15.01.2021	14:46:24	0	52,664735	2,733534	2,718	313,2036	0,939	84,945	0	1015,36	8,5	10	9,7	1	1	1	1	1	1	1	1	1	0	1	-15,221987	275,321185	310,570886	0
15.01.2021	14:46:25	0	52,664674	2,505741	2,8305	312,1344	0,94	84,955	0	1015,48	8,4	10	9,7	1	1	1	1	1	1	1	1	1	0	1	-13,812544	275,345044	312,093275	0
15.01.2021	14:46:26	0	52,54784	2,505742	2,9265	313,236	0,941	84,957	0	1015,52	8,5	10	9,7	1	1	1	1	1	1	1	1	1	0	1	-12,825934	275,474391	313,692713	0
15.01.2021	14:46:27	0	52,898098	3,872513	3,1155	312,7716	0,94	84,962	0	1015,42	8,4	10	9,7	1	1	1	1	1	1	1	1	1	0	1	-13,530655	275,375307	312,518469	0
15.01.2021	14:46:28	0	52,898037	3,075233	3,16875	312,8796	0,937	84,978	0	1015,34	8,4	10	9,7	1	1	1	1	1	1	1	1	1	0	1	-10,218464	275,303707	315,491689	0
15.01.2021	14:46:29	0	53,014749	4,442005	3,07725	314,478	0,94	84,976	0	1015,6	8,5	10	9,7	1	1	1	1	1	1	1	1	1	0	1	-11,909796	275,447173	314,479822	0
15.01.2021	14:46:30	0	53,014687	3,530827	2,9325	315,846	0,939	84,973	0	1015,42	8,5	10	9,7	1	1	1	1	1	1	1	1	1	0	1	-14,517266	275,300531	311,177857	0
15.01.2021	14:46:31	0	53,131398	4,328113	2,84925	303,5052	0,934	84,981	0	1015,3	8,5	10	9,7	1	1	1	1	1	1	1	1	1	0	1	-11,06413	275,373713	314,977446	0
15.01.2021	14:46:32	0	52,664248	3,303035	2,823	322,2108	0,935	84,989	0	1015,32	8,4	10	9,7	1	1	1	1	1	1	1	1	1	0	1	-14,235377	275,434377	312,093597	0
15.01.2021	14:46:33	0	52,897732	4,442015	2,84925	322,9272	0,94	84,989	0	1015,42	8,4	10	9,7	1	1	1	1	1	1	1	1	1	0	1	-11,41649	275,475994	315,109753	0
15.01.2021	14:46:34	0	52,780899	3,644733	2,8245	305,3772	0,94	85,001	0	1015,44	8,4	10	9,7	1	1	1	1	1	1	1	1	1	0	1	-9,584214	275,321185	316,208659	0
15.01.2021	14:46:35	0	52,664066	3,644735	2,73075	309,258	0,942	85,003	0	1015,34	8,4	10	9,7	1	1	1	1	1	1	1	1	1	0	1	-12,403101	275,445573	313,978934	0
15.01.2021	14:46:36	0	52,897548	4,669819	2,6145	310,2876	0,937	85,012	0	1015,44	8,5	10	9,7	1	1	1	1	1	1	1	1	1	0	1	-8,386187	275,455174	318,041358	0
15.01.2021	14:46:37	0	52,897487	4,555923	2,45625	296,0496	0,936	85,012	0	1015,26	8,5	10	9,7	1	1	1	1	1	1	1	1	1	0	1	-13,6716	275,492024	312,930654	0
15.01.2021	14:46:38	0	52,780655	2,505759	2,4285	305,3808	0,937	85,023	0	1015,36	8,4	10	9,7	1	1	1	1	1	1	1	1	1	0	1	-10,923185	275,429581	315,38306	0
15.01.2021	14:46:39	0	52,313509	2,847455	2,3025	311,3784	0,941	85,029	0	1015,38	8,4	10	9,7	1	1	1	1	1	1	1	1	1	0	1	-13,6716	275,480801	312,877439	0
15.01.2021	14:46:40	0	52,313448	2,961355	2,29275	310,3704	0,938	85,013	0	1015,32	8,4	10	9,7	1	1	1	1	1	1	1	1	1	0	1	-9,936575	275,353003	316,006929	0
15.01.2021	14:46:41	0	52,196617	2,619662	2,265	318,4848	0,939	85,051	0	1015,2	8,5	10	9,7	1	1	1	1	1	1	1	1	1	0	1	-13,389711	275,329135	312,440792	0
15.01.2021	14:46:42	0	52,780411	3,53085	2,32275	315,9036	0,938	85,049	0	1015,34	8,4	10	9,7	1	1	1	1	1	1	1	1	1	0	1	-16,913319	275,349819	309,015109	0
15.01.2021	14:46:43	0	52,89712	4,328142	2,43	313,1964	0,941	85,051	0	1015,38	8,5	10	9,7	1	1	1	1	1	1	1	1	1	0	1	-13,248767	275,298943	312,438842	0
15.01.2021	14:46:44	0	52,897059	4,214245	2,48475	315,2196	0,938	85,059	0	1015,34	8,4	10	9,7	1	1	1	1	1	1	1	1	1	0	1	-15,081043	275,360966	310,900166	0
15.01.2021	14:46:45	0	52,780227	4,555944	2,613	315,2628	0,937	85,065	0	1015,34	8,5	10	9,7	1	1	1	1	1	1	1	1	1	0	1	-13,6716	275,49844	312,961079	0
15.01.2021	14:46:46	0	52,429856	3,41696	2,67375	319,2084	0,939	85,066	0	1015,38	8,4	10	9,7	1	1	1	1	1	1	1	1	1	0	1	-15,715292	275,408812	310,492539	0
15.01.2021	14:46:47	0	52,663335	4,669847	2,565	315,8676	0,939	85,076	0	1015,48	8,4	10	9,7	1	1	1	1	1	1	1	1	1	0	1	-11,41649	275,487213	315,162952	0
15.01.2021	14:46:48	0	52,546872	2,847469	2,5095	321,0912	0,942	85,071	0	1015,5	8,5	10,1	9,7	1	1	1	1	1	1	1	1	1	0	1	-12,966878	275,418395	313,286359	0
15.01.2021	14:46:49	0	52,196134	4,214257	2,5155	307,6452	0,94	85,066	0	1015,34	8,4	10	9,7	1	1	1	1	1	1	1	1	1	0	1	-11,839323	275,313239	313,915938	0
15.01.2021	14:46:50	0	52,429613	2,733574	2,45175	316,314	0,943	85,095	0	1015,4	8,4	10	9,7	1	1	1	1	1	1	1	1	1	0	1	-12,191684	275,360966	313,789525	0
15.01.2021	14:46:51	0	52,312783	2,961373	2,44275	313,2468	0,942	85,063	0	1015,44	8,4	10	9,7	1	1	1	1	1	1	1	1	1	0	1	-8,245243	275,475994	318,281001	0
15.01.2021	14:46:52	0	52,312722	5,353254	2,56875	321,8328	0,94	85,094	0	1015,34	8,5	10	9,7	1	1	1	1	1	1	1	1	1	0	1	-9,090909	275,384874	317,003527	0
15.01.2021	14:46:53	0	52,662969	4,669863	2,6025	315,8388	0,943	85,091	0	1015,44	8,4	10	9,7	1	1	1	1	1	1	1	1	1	0	1	-7,963354	275,466382	318,51732	0
15.01.2021	14:46:54	0	52,546139	2,050185	2,62425	304,5312	0,944	85,089	0	1015,52	8,4	10	9,7	1	1	1	1	1	1	1	1	1	0	1	-11,980268	275,341861	313,910482	0
15.01.2021	14:46:55	0	52,779617	4,897667	2,65425	309,276	0,944	85,09	0	1015,24	8,4	10	9,7	1	1	1	1	1	1	1	1	1	0	1	-12,332629	275,482404	314,22401	0
15.01.2021	14:46:56	0	52,896324	5,239367	2,577	303,5412	0,947	85,093	0	1015,4	8,4	10	9,7	1	1	1	1	1	1	1	1	1	0	1	-8,45666	275,434377	317,872315	0
15.01.2021	14:46:57	0	52,19565	2,847484	2,46075	313,1712	0,942	85,096	0	1015,4	8,4	10	9,7	1	1	1	1	1	1	1	1	1	0	1	-11,980268	275,291006	313,669782	0
15.01.2021	14:46:58	0	52,078821	2,961385	2,29575	313,5528	0,944	85,101	0	1015,42	8,4	10	9,7	1	1	1	1	1	1	1	1	1	0	1	-14,023961	275,365745	311,97988	0
15.01.2021	14:46:59	0	52,429066	3,075286	2,19525	314,8416	0,935	85,1	0	1015,3	8,5	10	9,7	1	1	1	1	1	1	1	1	1	0	1	-13,460183	275,480801	313,088856	0
15.01.2021	14:47:00	0	52,662481	4,214285	2,3115	299,6892	0,939	85,082	0	1015,24	8,5	10	9,7	1	1	1	1	1	1	1	1	1	0	1	-12,544045	275,466382	313,936629	0
15.01.2021	14:47:01	0	52,662481	4,214285	2,3115	299,6892	0,939	85,082	0	1015,24	8,5	10	9,7	1	1	1	1	1	1	1	1	1	0	1	-12,544045	275,466382	313,936629	0
15.01.2021	14:47:02	0	52,66242	4,669886	2,4675	318,7872	0,942	85,091	0	1015,54	8,5	10	9,7	1	1	1	1	1	1	1	1	1	0	1	-13,389711	275,333906	312,463379	0
15.01.2021	14:47:03	0	52,662359	4,10039	2,3205	311,7384	0,937	85,093	0	1015,48	8,4	10	9,7	1	1	1	1	1	1	1	1	1	0	1	-16,208598	275,43118	310,105223	0
15.01.2021	14:47:04	0	52,662298	4,897691	2,139	301,2192	0,941	85,1	0	1015,36	8,4	10	9,7	1	1	1	1	1	1	1	1	1	0	1	-12,614517	275,413603	313,616014	0
15.01.2021	14:47:05	0	52,428702	2,847496	1,989	308,178	0,941	85,103	0	1015,38	8,4	10	9,7	1	1	1	1	1	1	1	1	1	0	1	-12,966878	275,351411	312,969088	0
15.01.2021	14:47:06	0	52,895711	3,303098	1,97775	302,7456	0,945	85,086	0	1015,36	8,4	10	9,7	1	1	1	1	1	1	1	1	1	0	1	-11,486963	275,459977	314,963348	0
15.01.2021	14:47:07	0	52,545348	2,9614	1,9155	303,1668	0,946	85,08	0	1015,36	8,4	10	9,7	1	1	1	1	1	1	1	1	1	0	1	-11,205074	275,292593	314,452486	0
15.01.2021	14:47:08	0	52,545287	3,986502	1,7655	304,2864	0,943	85,098	0	1015,38	8,5	10	9,7	1	1	1	1	1	1	1	1	1	0	1	-10,782241	275,479199	315,759199	0
15.01.2021	14:47:09	0	53,012294	4,556004	1,82325	315,882	0,934	85,09	0	1015,26	8,5	10	9,7	1	1	1	1	1	1	1	1	1	0	1	-11,06413	275,43118	315,249691	0
15.01.2021	14:47:10	0	52,428398	4,328207	1,8975	304,6968	0,948	85,104	0	1015,48	8,4	10	9,7	1	1	1	1	1	1	1	1	1	0	1	-15,081043	275,463179	311,384448	0
15.01.2021	14:47:11	0	52,545104	2,619705	1,94475	309,9456	0,946	85,109	0	1015,36	8,4	10	9,7	1	1	1	1	1	1	1	1	1	0	1	-14,235377	275,493628	312,374482	0
15.01.2021	14:47:12	0	52,194743	2,505807	1,99875	307,566	0,945	85,102	0	1015,54	8,4	10	9,7	1	1	1	1	1	1	1	1	1	0	1	-14,023961	275,316417	311,746344	0
15.01.2021	14:47:13	0	52,661748	2,619708	2,0055	311,4648	0,941	85,096	0	1015,44	8,5	10	9,7	1	1	1	1	1	1	1	1	1	0	1	-9,090909	275,351411	316,845057	0
15.01.2021	14:47:14	0	52,544921	4,669918	1,899	314,4924	0,947	85,101	0	1015,5	8,4	10	9,7	1	1	1	1	1	1	1	1	1	0	1	-11,627907	275,325954	314,187542	0
15.01.2021	14:47:15	0	52,661626	2,847512	1,812	308,0124	0,943	85,111	0	1015,4	8,4	10	9,7	1	1	1	1	1	1	1	1	1	0	1	-10,500352	275,416797	315,745316	0
15.01.2021	14:47:16	0	52,661565	3,758718	1,7805	300,4704	0,941	85,098	0	1015,38	8,4	10	9,7	1	1	1	1	1	1	1	1	1	0	1	-15,997181	275,49042	310,597468	0
15.01.2021	14:47:17	0	52,661504	2,391913	1,728	301,2624	0,945	85,101	0	1015,24	8,5	10	9,7	1	1	1	1	1	1	1	1	1	0	1	-11,346018	275,39285	314,786197	0
15.01.2021	14:47:18	0	52,661443	4,442127	1,659	287,856	0,943	85,086	0	1015,4	8,4	10	9,7	1	1	1	1	1	1	1	1	1	0	1	-12,191684	275,308472	313,54102	0
15.01.2021	14:47:19	0	52,894913	3,986526	1,719	296,5104	0,939	85,088	0	1015,28	8,4	10	9,7	1	1	1	1	1	1	1	1	1	0	1	-10,711769	275,39285	315,420447	0
15.01.2021	14:47:20	0	52,544555	3,303124	1,72875	290,0052	0,939	85,098	0	1015,36	8,6	10	9,7	1	1	1	1	1	1	1	1	1	0	1	-10,147992	275,302119	315,554646	0
15.01.2021	14:47:21	0	52,89479	3,417026	1,65525	302,4972	0,945	85,091	0	1015,34	8,5	10	9,7	1	1	1	1	1	1	1	1	1	0	1	-12,191684	275,424786	314,091839	0
15.01.2021	14:47:22	0	52,777964	4,556038	1,55175	306,1296	0,941	85,093	0	1015,38	8,4	10	9,7	1	1	1	1	1	1	1	1	1	0	1	-11,275546	275,306884	314,44964	0
15.01.2021	14:47:23	0	52,427606	2,847525	1,45875	302,0796	0,948	85,088	0	1015,44	8,4	10	9,7	1	1	1	1	1	1	1	1	1	0	1	-11,768851	275,49042	314,825798	0
15.01.2021	14:47:24	0	52,661076	3,758735	1,422	299,7108	0,946	85,057	0	1015,36	8,4	10	9,7	1	1	1	1	1	1	1	1	1	0	1	-10,923185	275,402425	315,254391	0
15.01.2021	14:47:25	0	52,661015	2,505825	1,4175	308,0448	0,944	85,057	0	1015,28	8,4	10	9,7	1	1	1	1	1	1	1	1	1	0	1	-13,883016	275,303707	311,827137	0
15.01.2021	14:47:26	0	52,894483	4,100443	1,386	299,4732	0,94	85,064	0	1015,36	8,6	10	9,7	1	1	1	1	1	1	1	1	1	0	1	-11,839323	275,42159	314,429055	0
15.01.2021	14:47:27	0	52,777657	4,783853	1,37925	318,4992	0,943	85,069	0	1015,46	8,4	10	9,7	1	1	1	1	1	1	1	1	1	0	1	-9,020437	275,479199	317,521003	0
15.01.2021	14:47:28	0	52,544066	2,733632	1,344	309,1752	0,944	85,056	0	1015,34	8,4	10	9,7	1	1	1	1	1	1	1	1	1	0	1	-10,852713	275,34027	315,030503	0
15.01.2021	14:47:29	0	52,894299	4,783858	1,314	307,6272	0,94	85,057	0	1015,32	8,6	10	9,7	1	1	1	1	1	1	1	1	1	0	1	-11,346018	275,295768	314,326565	0
15.01.2021	14:47:30	0	53,011001	3,417043	1,4325	309,9564	0,943	85,057	0	1015,38	8,5	10	9,7	1	1	1	1	1	1	1	1	1	0	1	-11,41649	275,410408	314,798907	0
15.01.2021	14:47:31	0	52,543883	2,619735	1,56525	313,5744	0,939	85,036	0	1015,46	8,5	10	9,7	1	1	1	1	1	1	1	1	1	0	1	-10,570825	275,292593	315,086736	0
15.01.2021	14:47:32	0	53,010878	2,961441	1,689	303,2316	0,944	85,052	0	1015,48	8,5	10	9,7	1	1	1	1	1	1	1	1	1	0	1	-8,45666	275,429581	317,849586	0
15.01.2021	14:47:33	0	53,010817	2,961443	1,80525	297,5472	0,942	85,05	0	1015,46	8,4	10	9,7	1	1	1	1	1	1	1	1	1	0	1	-12,825934	275,303707	312,884219	0
15.01.2021	14:47:34	0	53,010755	4,328265	2,09625	308,4516	0,941	85,049	0	1015,38	8,4	10	9,7	1	1	1	1	1	1	1	1	1	0	1	-8,45666	275,429581	317,849586	0
15.01.2021	14:47:35	0	52,777536	4,442169	2,3535	319,4604	0,945	85,062	0	1015,46	8,5	10,1	9,7	1	1	1	1	1	1	1	1	1	0	1	-12,191684	275,474391	314,326963	0
15.01.2021	14:47:36	0	53,127395	4,556073	2,457	320,382	0,941	85,047	0	1015,28	8,5	10	9,7	1	1	1	1	1	1	1	1	1	0	1	-14,305849	275,437575	312,038281	0
15.01.2021	14:47:37	0	53,010941	3,417057	2,46525	317,7828	0,942	85,049	0	1015,42	8,5	10,1	9,7	1	1	1	1	1	1	1	1	1	0	1	-7,329105	275,292593	318,328455	0
15.01.2021	14:47:38	0	53,010879	3,530961	2,60325	305,7624	0,939	85,042	0	1015,46	8,4	10,1	9,7	1	1	1	1	1	1	1	1	1	0	1	-9,654686	275,351411	316,281279	0
15.01.2021	14:47:39	0	53,12721	5,011689	2,77425	308,826	0,944	85,042	0	1015,42	8,4	10	9,7	1	1	1	1	1	1	1	1	1	0	1	-13,953488	275,300531	311,741634	0
15.01.2021	14:47:40	0	53,010385	2,847552	2,7585	311,4792	0,941	85,044	0	1015,38	8,5	10	9,7	1	1	1	1	1	1	1	1	1	0	1	-12,614517	275,443973	313,759935	0
15.01.2021	14:47:41	0	53,127086	4,328282	2,751	313,1028	0,941	85,109	0	1015,36	8,4	10	9,7	1	1	1	1	1	1	1	1	1	0	1	-14,587738	275,291006	311,062312	0
15.01.2021	14:47:42	0	53,127024	4,328284	2,66025	312,7536	0,946	85,061	0	1015,4	8,4	10	9,7	1	1	1	1	1	1	1	1	1	0	1	-10,007047	275,370526	316,019432	0
15.01.2021	14:47:43	0	53,0102	2,847557	2,63325	313,2036	0,946	85,059	0	1015,36	8,5	10	9,7	1	1	1	1	1	1	1	1	1	0	1	-12,403101	275,325954	313,412348	0
15.01.2021	14:47:44	0	53,1269	3,075363	2,592	312,0516	0,949	85,066	0	1015,34	8,4	10	9,7	1	1	1	1	1	1	1	1	1	0	1	-13,03735	275,364152	312,958946	0
15.01.2021	14:47:45	0	53,010076	3,075365	2,5725	314,4456	0,94	85,076	0	1015,4	8,5	10	9,7	1	1	1	1	1	1	1	1	1	0	1	-15,574348	275,310061	310,165874	0
15.01.2021	14:47:46	0	53,126777	4,214391	2,6115	308,7864	0,945	85,07	0	1015,3	8,6	10	9,7	1	1	1	1	1	1	1	1	1	0	1	-8,174771	275,360966	317,806438	0
15.01.2021	14:47:47	0	52,776429	3,644881	2,529	315,2232	0,942	85,07	0	1015,36	8,5	10	9,7	1	1	1	1	1	1	1	1	1	0	1	-13,953488	275,464781	312,519594	0
15.01.2021	14:47:48	0	53,126653	4,442201	2,5005	309,5064	0,942	85,069	0	1015,42	8,5	10	9,7	1	1	1	1	1	1	1	1	1	0	1	-11,134602	275,39285	314,997614	0
15.01.2021	14:47:49	0	53,243353	4,100496	2,48025	314,4636	0,939	85,076	0	1015,32	8,5	10	9,7	1	1	1	1	1	1	1	1	1	0	1	-12,614517	275,305295	313,103152	0
15.01.2021	14:47:50	0	53,009767	4,556109	2,511	306,0396	0,946	85,07	0	1015,46	8,5	10	9,7	1	1	1	1	1	1	1	1	1	0	1	-13,883016	275,427983	312,415654	0
15.01.2021	14:47:51	0	52,892944	3,075375	2,5005	314,7912	0,947	85,085	0	1015,58	8,4	10	9,7	1	1	1	1	1	1	1	1	1	0	1	-8,315715	275,306884	317,409471	0
15.01.2021	14:47:52	0	52,892882	3,530988	2,42775	309,258	0,946	85,078	0	1015,3	8,5	10	9,7	1	1	1	1	1	1	1	1	1	0	1	-11,134602	275,492024	315,467652	0
15.01.2021	14:47:53	0	53,009582	3,303185	2,379	315,9144	0,938	85,06	0	1015,58	8,5	10	9,7	1	1	1	1	1	1	1	1	1	0	1	-11,698379	275,376902	314,358296	0
15.01.2021	14:47:54	0	53,126281	4,556119	2,3085	311,7816	0,943	85,077	0	1015,42	8,5	10	9,7	1	1	1	1	1	1	1	1	1	0	1	-11,134602	275,472789	315,376449	0
15.01.2021	14:47:55	0	53,009458	2,847576	2,31375	310,662	0,941	85,078	0	1015,26	8,5	10	9,7	1	1	1	1	1	1	1	1	1	0	1	-13,601128	275,38009	312,470649	0
15.01.2021	14:47:56	0	52,893006	2,961481	2,319	305,4096	0,94	85,074	0	1015,4	8,6	10,1	9,7	1	1	1	1	1	1	1	1	1	0	1	-10,923185	275,472789	315,587866	0
15.01.2021	14:47:57	0	53,009335	3,303192	2,48775	315,1548	0,94	85,076	0	1015,34	8,5	10	9,7	1	1	1	1	1	1	1	1	1	0	1	-15,292459	275,434377	311,036515	0
15.01.2021	14:47:58	0	53,242794	5,011742	2,62725	317,3076	0,946	85,079	0	1015,38	8,5	10	9,7	1	1	1	1	1	1	1	1	1	0	1	-9,936575	275,482404	316,620063	0
15.01.2021	14:47:59	0	53,126344	3,189292	2,535	315,8244	0,951	85,086	0	1015,4	8,5	10,1	9,7	1	1	1	1	1	1	1	1	1	0	1	-10,852713	275,456775	315,582419	0
15.01.2021	14:48:00	0	52,892327	3,075393	2,36475	294,1128	0,942	85,07	0	1015,46	8,5	10	9,7	1	1	1	1	1	1	1	1	1	0	1	-19,097956	275,325954	306,717492	0
15.01.2021	14:48:01	0	52,892327	3,075393	2,36475	294,1128	0,942	85,07	0	1015,46	8,5	10	9,7	1	1	1	1	1	1	1	1	1	0	1	-16,772375	275,283072	308,840135	0
15.01.2021	14:48:02	0	53,009025	3,075394	2,301	306,486	0,945	85,081	0	1015,24	8,4	10	9,7	1	1	1	1	1	1	1	1	1	0	1	-7,610994	275,42159	318,657385	0
15.01.2021	14:48:03	0	53,359243	3,53101	2,17575	314,4132	0,943	85,069	0	1015,38	8,5	10	9,7	1	1	1	1	1	1	1	1	1	0	1	-15,292459	275,471187	311,210996	0
15.01.2021	14:48:04	0	52,775382	2,50588	2,01825	304,6104	0,948	85,078	0	1015,34	8,5	10	9,7	1	1	1	1	1	1	1	1	1	0	1	-15,856237	275,330725	309,981794	0
15.01.2021	14:48:05	0	53,00884	4,442244	2,0865	314,0784	0,943	85,077	0	1015,42	8,5	10	9,7	1	1	1	1	1	1	1	1	1	0	1	-7,258633	275,341861	318,632117	0
15.01.2021	14:48:06	0	52,775259	2,961497	2,19975	318,5496	0,947	85,096	0	1015,4	8,5	10	9,7	1	1	1	1	1	1	1	1	1	0	1	-13,319239	275,305295	312,39843	0
15.01.2021	14:48:07	0	53,242235	2,733691	2,17275	320,706	0,941	85,086	0	1015,34	8,6	10	9,7	1	1	1	1	1	1	1	1	1	0	1	-10,359408	275,305295	315,358261	0
15.01.2021	14:48:08	0	53,125413	4,100539	2,091	321,066	0,945	85,083	0	1015,28	8,5	10	9,7	1	1	1	1	1	1	1	1	1	0	1	-13,812544	275,364152	312,183752	0
15.01.2021	14:48:09	0	53,242483	4,442254	2,13375	321,7716	0,943	85,078	0	1015,3	8,5	10,1	9,7	1	1	1	1	1	1	1	1	1	0	1	-8,668076	275,480801	317,880963	0
15.01.2021	14:48:10	0	53,358807	4,55616	2,1945	326,0124	0,944	85,09	0	1015,44	8,5	10	9,7	1	1	1	1	1	1	1	1	1	0	1	-8,879493	275,335497	316,981128	0
15.01.2021	14:48:11	0	53,008468	4,442259	2,40375	306,828	0,936	85,093	0	1015,38	8,5	10	9,7	1	1	1	1	1	1	1	1	1	0	1	-11,134602	275,471187	315,368854	0
15.01.2021	14:48:12	0	53,242297	2,505891	2,511	313,128	0,949	85,09	0	1015,38	8,4	9,9	9,7	1	1	1	1	1	1	1	1	1	0	1	-13,460183	275,445573	312,921852	0
15.01.2021	14:48:13	0	53,241862	4,100551	2,5305	309,1896	0,949	85,097	0	1015,5	8,5	10	9,7	1	1	1	1	1	1	1	1	1	0	1	-12,544045	275,305295	313,173624	0
15.01.2021	14:48:14	0	53,125041	2,847606	2,63625	314,5068	0,946	85,107	0	1015,36	8,5	10	9,7	1	1	1	1	1	1	1	1	1	0	1	-14,869626	275,367339	311,14176	0
15.01.2021	14:48:15	0	53,008221	2,278086	2,601	308,502	0,947	85,109	0	1015,44	8,5	10	9,7	1	1	1	1	1	1	1	1	1	0	1	-11,41649	275,330725	314,421541	0
15.01.2021	14:48:16	0	53,475191	3,189323	2,598	314,8308	0,946	85,09	0	1015,34	8,5	10	9,7	1	1	1	1	1	1	1	1	1	0	1	-13,742072	275,416797	312,503596	0
15.01.2021	14:48:17	0	53,475129	4,556178	2,538	321,8508	0,946	85,099	0	1015,56	8,5	10	9,7	1	1	1	1	1	1	1	1	1	0	1	-10,993658	275,442374	315,373213	0
15.01.2021	14:48:18	0	53,24155	4,78399	2,4465	314,3628	0,945	85,108	0	1015,38	8,5	10	9,7	1	1	1	1	1	1	1	1	1	0	1	-10,782241	275,477596	315,7516	0
15.01.2021	14:48:19	0	53,241488	3,872756	2,41425	318,4812	0,949	85,122	0	1015,4	8,5	10	9,7	1	1	1	1	1	1	1	1	1	0	1	-17,336152	275,34027	308,547064	0
15.01.2021	14:48:20	0	52,891153	3,758853	2,2845	315,162	0,952	85,115	0	1015,4	8,5	10	9,7	1	1	1	1	1	1	1	1	1	0	1	-13,107822	275,471187	313,395633	0
15.01.2021	14:48:21	0	53,474878	4,442284	2,148	312,4764	0,944	85,134	0	1015,38	8,5	10	9,7	1	1	1	1	1	1	1	1	1	0	1	-12,191684	275,48561	314,380156	0
15.01.2021	14:48:22	0	53,124544	2,961524	2,01375	307,2564	0,949	85,127	0	1015,36	8,5	10	9,7	1	1	1	1	1	1	1	1	1	0	1	-8,104299	275,419992	318,156509	0
15.01.2021	14:48:23	0	53,474753	4,784003	1,932	299,7252	0,949	85,109	0	1015,3	8,5	10	9,7	1	1	1	1	1	1	1	1	1	0	1	-16,067653	275,442374	310,299218	0
15.01.2021	14:48:24	0	53,241177	2,164193	1,94775	305,3196	0,952	85,137	0	1015,44	8,5	10	9,7	1	1	1	1	1	1	1	1	1	0	1	-11,41649	275,354596	314,534553	0
15.01.2021	14:48:25	0	53,357871	3,417149	1,98075	311,76	0,951	85,131	0	1015,34	8,5	10	9,7	1	1	1	1	1	1	1	1	1	0	1	-11,134602	275,440774	315,224688	0
15.01.2021	14:48:26	0	53,474566	3,303246	2,07525	300,4272	0,951	85,138	0	1015,52	8,5	10	9,7	1	1	1	1	1	1	1	1	1	0	1	-13,389711	275,418395	312,863526	0
15.01.2021	14:48:27	0	53,24099	4,328394	2,136	307,1844	0,951	85,126	0	1015,44	8,5	10	9,7	1	1	1	1	1	1	1	1	1	0	1	-12,825934	275,472789	313,685117	0
15.01.2021	14:48:28	0	53,124171	2,505913	2,11125	315,8784	0,952	85,147	0	1015,34	8,5	10	9,7	1	1	1	1	1	1	1	1	1	0	1	-7,258633	275,423188	319,017318	0
15.01.2021	14:48:29	0	53,474378	4,214493	2,0805	311,0184	0,952	85,149	0	1015,14	8,5	10	9,7	1	1	1	1	1	1	1	1	1	0	1	-15,221987	275,475994	311,304257	0
15.01.2021	14:48:30	0	53,007291	4,670117	2,15325	304,6608	0,95	85,141	0	1015,48	8,5	10	9,7	1	1	1	1	1	1	1	1	1	0	1	-9,584214	275,399233	316,578239	0
15.01.2021	14:48:31	0	53,591009	4,89793	2,223	304,9632	0,953	85,163	0	1015,44	8,5	10	9,7	1	1	1	1	1	1	1	1	1	0	1	-14,728682	275,475994	311,797562	0
15.01.2021	14:48:32	0	53,007167	2,392014	2,247	307,6632	0,954	85,166	0	1015,4	8,5	10	9,7	1	1	1	1	1	1	1	1	1	0	1	-13,883016	275,405618	312,309686	0
15.01.2021	14:48:33	0	53,12386	2,847637	2,35575	296,0748	0,95	85,164	0	1015,34	8,5	10	9,7	1	1	1	1	1	1	1	1	1	0	1	-12,684989	275,493628	313,924869	0
15.01.2021	14:48:34	0	53,12417	3,417166	2,4105	302,4072	0,956	85,165	0	1015,42	8,5	9,9	9,7	1	1	1	1	1	1	1	1	1	0	1	-13,601128	275,354596	312,349916	0
15.01.2021	14:48:35	0	53,357247	4,328413	2,48925	284,0832	0,954	85,157	0	1015,44	8,5	10	9,7	1	1	1	1	1	1	1	1	1	0	1	-10,782241	275,308472	314,950463	0
15.01.2021	14:48:36	0	53,240429	4,442321	2,562	299,376	0,956	85,161	0	1015,4	8,5	10	9,7	1	1	1	1	1	1	1	1	1	0	1	-11,768851	275,479199	314,772588	0
15.01.2021	14:48:37	0	53,123983	3,303266	2,46525	296,8524	0,956	85,167	0	1015,36	8,5	9,9	9,7	1	1	1	1	1	1	1	1	1	0	1	-12,332629	275,343452	313,565655	0
15.01.2021	14:48:38	0	53,006794	3,417174	2,3685	296,838	0,957	85,181	0	1015,34	8,5	10	9,7	1	1	1	1	1	1	1	1	1	0	1	-11,768851	275,475994	314,757393	0
15.01.2021	14:48:39	0	53,006732	2,847647	2,39175	299,2896	0,954	85,176	0	1015,42	8,5	10	9,7	1	1	1	1	1	1	1	1	1	0	1	-6,976744	275,402425	319,200832	0
15.01.2021	14:48:40	0	53,240179	3,872801	2,40225	301,5972	0,956	85,185	0	1015,42	8,5	10	9,7	1	1	1	1	1	1	1	1	1	0	1	-13,6716	275,313239	312,083662	0
15.01.2021	14:48:41	0	53,123362	2,961556	2,48325	307,2636	0,958	85,183	0	1015,38	8,5	10	9,7	1	1	1	1	1	1	1	1	1	0	1	-13,530655	275,451973	312,881717	0
15.01.2021	14:48:42	0	53,356809	4,100618	2,39925	300,5172	0,958	85,184	0	1015,28	8,5	10	9,7	1	1	1	1	1	1	1	1	1	0	1	-14,376321	275,484007	312,187918	0
15.01.2021	14:48:43	0	53,590255	4,556245	2,38875	309,312	0,953	85,165	0	1015,4	8,5	10	9,7	1	1	1	1	1	1	1	1	1	0	1	-16,208598	275,356188	309,749987	0
15.01.2021	14:48:44	0	53,23993	4,897966	2,32725	308,1024	0,957	85,163	0	1015,4	8,5	10	9,7	1	1	1	1	1	1	1	1	1	0	1	-17,406624	275,466382	309,07405	0
15.01.2021	14:48:45	0	53,473376	3,758906	2,2605	309,8988	0,956	85,182	0	1015,52	8,4	10	9,7	1	1	1	1	1	1	1	1	1	0	1	-12,191684	275,475994	314,33456	0
15.01.2021	14:48:46	0	53,239805	4,32844	2,2485	308,07	0,955	85,156	0	1015,58	8,5	10	9,7	1	1	1	1	1	1	1	1	1	0	1	-9,936575	275,426384	316,354521	0
15.01.2021	14:48:47	0	53,122989	3,417191	2,19	305,3232	0,956	85,151	0	1015,34	8,5	10	9,7	1	1	1	1	1	1	1	1	1	0	1	-11,909796	275,303707	313,800357	0
15.01.2021	14:48:48	0	53,122926	2,961567	2,15625	307,1016	0,954	85,142	0	1015,38	8,5	10	9,7	1	1	1	1	1	1	1	1	1	0	1	-10,147992	275,34027	315,735224	0
15.01.2021	14:48:49	0	52,889727	2,961569	2,2035	305,3196	0,959	85,145	0	1015,44	8,5	10,1	9,7	1	1	1	1	1	1	1	1	1	0	1	-16,420014	275,434377	309,90896	0
15.01.2021	14:48:50	0	53,239555	4,556263	2,26125	303,8904	0,958	85,152	0	1015,4	8,5	10	9,7	1	1	1	1	1	1	1	1	1	0	1	-13,460183	275,306884	312,265003	0
15.01.2021	14:48:51	0	53,239493	3,189386	2,3415	312,5016	0,949	85,135	0	1015,32	8,5	10	9,7	1	1	1	1	1	1	1	1	1	0	1	-12,755462	275,360966	313,225748	0
15.01.2021	14:48:52	0	53,23943	3,645014	2,34975	304,9884	0,956	85,156	0	1015,4	8,5	10	9,7	1	1	1	1	1	1	1	1	1	0	1	-9,936575	275,300531	315,758548	0
15.01.2021	14:48:53	0	52,772356	2,050322	2,4405	313,6068	0,954	85,14	0	1015,38	8,5	10	9,7	1	1	1	1	1	1	1	1	1	0	1	-12,262156	275,408812	313,945675	0
15.01.2021	14:48:54	0	53,006171	2,961577	2,51925	305,3772	0,956	85,151	0	1015,36	8,5	9,9	9,7	1	1	1	1	1	1	1	1	1	0	1	-14,305849	275,459977	312,144461	0
15.01.2021	14:48:55	0	52,888985	2,733765	2,48025	309,186	0,953	85,149	0	1015,42	8,4	10	9,7	1	1	1	1	1	1	1	1	1	0	1	-12,684989	275,38009	313,386788	0
15.01.2021	14:48:56	0	53,006046	4,556278	2,47875	314,0208	0,952	85,128	0	1015,42	8,4	9,9	9,7	1	1	1	1	1	1	1	1	1	0	1	-13,953488	275,306884	311,771698	0
15.01.2021	14:48:57	0	53,122365	2,847675	2,5035	312,156	0,955	85,118	0	1015,5	8,5	10	9,7	1	1	1	1	1	1	1	1	1	0	1	-19,379845	275,482404	307,176794	0
15.01.2021	14:48:58	0	53,005922	4,67019	2,5965	315,504	0,952	85,123	0	1015,36	8,5	9,9	9,7	1	1	1	1	1	1	1	1	1	0	1	-14,940099	275,338679	310,935585	0
15.01.2021	14:48:59	0	53,238993	2,39205	2,67375	310,2372	0,95	85,113	0	1015,28	8,5	10	9,7	1	1	1	1	1	1	1	1	1	0	1	-14,376321	275,357781	311,589804	0
15.01.2021	14:49:00	0	53,239241	3,645033	2,77725	317,3472	0,96	85,112	0	1015,44	8,5	9,9	9,7	1	1	1	1	1	1	1	1	1	0	1	-9,231853	275,467984	317,256414	0
15.01.2021	14:49:01	0	53,239241	3,645033	2,77725	317,3472	0,96	85,112	0	1015,44	8,5	9,9	9,7	1	1	1	1	1	1	1	1	1	0	1	-13,601128	275,442374	312,765743	0
15.01.2021	14:49:02	0	52,88892	2,619869	2,90925	309,8952	0,962	85,109	0	1015,42	8,5	10,1	9,7	1	1	1	1	1	1	1	1	1	0	1	-13,6716	275,348227	312,249291	0
15.01.2021	14:49:03	0	53,355868	4,670204	2,8905	310,6476	0,95	85,101	0	1015,3	8,5	10,1	9,7	1	1	1	1	1	1	1	1	1	0	1	-16,490486	275,464781	309,982596	0
15.01.2021	14:49:04	0	53,239053	3,189409	2,82225	307,2636	0,96	85,105	0	1015,22	8,4	9,9	9,7	1	1	1	1	1	1	1	1	1	0	1	-11,839323	275,469585	314,656538	0
15.01.2021	14:49:05	0	53,355369	4,556301	2,835	306,3744	0,953	85,095	0	1015,38	8,5	10	9,7	1	1	1	1	1	1	1	1	1	0	1	-11,134602	275,475994	315,391642	0
15.01.2021	14:49:06	0	53,005424	3,986766	2,63625	310,6584	0,951	85,078	0	1015,34	8,5	10,1	9,7	1	1	1	1	1	1	1	1	1	0	1	-10,359408	275,434377	315,969566	0
15.01.2021	14:49:07	0	52,888239	2,961599	2,487	302,0868	0,956	85,068	0	1015,42	8,5	10	9,7	1	1	1	1	1	1	1	1	1	0	1	-10,288936	275,297355	315,39116	0
15.01.2021	14:49:08	0	53,121679	3,758955	2,43975	303,8724	0,959	85,076	0	1015,4	8,5	10	9,7	1	1	1	1	1	1	1	1	1	0	1	-11,980268	275,416797	314,2654	0
15.01.2021	14:49:09	0	52,888485	3,531142	2,4675	303,5412	0,954	85,078	0	1015,42	8,5	9,9	9,7	1	1	1	1	1	1	1	1	1	0	1	-9,020437	275,440774	317,338853	0
15.01.2021	14:49:10	0	52,888423	4,442406	2,44125	305,7192	0,956	85,063	0	1015,52	8,5	10,1	9,7	1	1	1	1	1	1	1	1	1	0	1	-14,305849	275,477596	312,227992	0
15.01.2021	14:49:11	0	53,005112	4,328501	2,48025	295,4916	0,957	85,063	0	1015,26	8,5	9,9	9,7	1	1	1	1	1	1	1	1	1	0	1	-13,6716	275,365745	312,332241	0
15.01.2021	14:49:12	0	53,121801	3,645056	2,5785	304,1532	0,956	85,061	0	1015,44	8,5	9,9	9,7	1	1	1	1	1	1	1	1	1	0	1	-10,782241	275,31165	314,965501	0
15.01.2021	14:49:13	0	52,888236	2,733793	2,62425	302,9004	0,956	85,054	0	1015,4	8,5	9,9	9,7	1	1	1	1	1	1	1	1	1	0	1	-18,322763	275,426384	307,968334	0
15.01.2021	14:49:14	0	52,771423	3,075519	2,56875	309,8736	0,954	85,071	0	1015,46	8,5	9,9	9,7	1	1	1	1	1	1	1	1	1	0	1	-10,993658	275,492024	315,608596	0
15.01.2021	14:49:15	0	52,887741	2,847704	2,5635	304,5996	0,953	85,057	0	1015,34	8,5	10	9,7	1	1	1	1	1	1	1	1	1	0	1	-11,346018	275,413603	314,884513	0
15.01.2021	14:49:16	0	53,121551	3,189431	2,577	306,198	0,949	85,067	0	1015,38	8,5	10,1	9,7	1	1	1	1	1	1	1	1	1	0	1	-14,869626	275,297355	310,810469	0
15.01.2021	14:49:17	0	53,238239	3,075524	2,49	305,3772	0,958	85,066	0	1015,26	8,5	9,9	9,7	1	1	1	1	1	1	1	1	1	0	1	-12,121212	275,418395	314,132025	0
15.01.2021	14:49:18	0	52,654424	3,075526	2,502	308,07	0,956	85,058	0	1015,26	8,5	9,9	9,7	1	1	1	1	1	1	1	1	1	0	1	-13,460183	275,29418	312,204888	0
15.01.2021	14:49:19	0	52,537244	4,100704	2,577	309,5496	0,949	85,071	0	1015,4	8,5	10	9,7	1	1	1	1	1	1	1	1	1	0	1	-12,966878	275,440774	313,392412	0
15.01.2021	14:49:20	0	52,771051	2,505987	2,673	312,4656	0,955	85,067	0	1015,34	8,5	10,1	9,7	1	1	1	1	1	1	1	1	1	0	1	-12,684989	275,332316	313,160571	0
15.01.2021	14:49:21	0	53,120866	4,442434	2,619	309,2148	0,961	85,072	0	1015,48	8,5	10	9,7	1	1	1	1	1	1	1	1	1	0	1	-12,896406	275,353003	313,047099	0
15.01.2021	14:49:22	0	52,887306	4,328528	2,556	308,5164	0,959	85,071	0	1015,5	8,5	10	9,7	1	1	1	1	1	1	1	1	1	0	1	-16,772375	275,475994	309,753869	0
15.01.2021	14:49:23	0	53,23749	5,011983	2,4735	308,5704	0,959	85,057	0	1015,44	8,5	10	9,7	1	1	1	1	1	1	1	1	1	0	1	-13,319239	275,370526	312,707241	0
15.01.2021	14:49:24	0	52,536935	3,303354	2,52	306,8676	0,963	85,064	0	1015,44	8,4	10	9,7	1	1	1	1	1	1	1	1	1	0	1	-16,138125	275,306884	309,587061	0
15.01.2021	14:49:25	0	52,77074	3,075538	2,505	310,6296	0,95	85,043	0	1015,28	8,5	10,1	9,7	1	1	1	1	1	1	1	1	1	0	1	-9,372798	275,482404	317,183841	0
15.01.2021	14:49:26	0	53,237675	4,328538	2,42775	313,6032	0,954	85,048	0	1015,5	8,5	9,9	9,7	1	1	1	1	1	1	1	1	1	0	1	-15,503876	275,435976	310,832676	0
15.01.2021	14:49:27	0	53,120491	3,986813	2,43225	310,5936	0,954	85,03	0	1015,44	8,5	10	9,7	1	1	1	1	1	1	1	1	1	0	1	-11,41649	275,367339	314,594896	0
15.01.2021	14:49:28	0	53,004051	2,505998	2,4045	306,3672	0,954	85,034	0	1015,44	8,5	9,9	9,7	1	1	1	1	1	1	1	1	1	0	1	-11,768851	275,29418	313,89622	0
15.01.2021	14:49:29	0	53,120366	2,847727	2,2605	318,4596	0,956	85,016	0	1015,44	8,5	10	9,7	1	1	1	1	1	1	1	1	1	0	1	-13,953488	275,373713	312,088087	0
15.01.2021	14:49:30	0	52,536932	2,392092	2,34075	322,2144	0,951	85,009	0	1015,34	8,5	9,9	9,7	1	1	1	1	1	1	1	1	1	0	1	-16,208598	275,482404	310,348041	0
15.01.2021	14:49:31	0	53,003493	4,100732	2,33025	314,334	0,95	85,005	0	1015,38	8,5	10	9,7	1	1	1	1	1	1	1	1	1	0	1	-13,319239	275,402425	312,858337	0
15.01.2021	14:49:32	0	52,886683	4,67028	2,31825	318,87	0,955	85,003	0	1015,28	8,5	10	9,7	1	1	1	1	1	1	1	1	1	0	1	-11,627907	275,305295	314,089762	0
15.01.2021	14:49:33	0	52,653125	2,392096	2,23125	307,2924	0,955	84,994	0	1015,42	8,5	10	9,7	1	1	1	1	1	1	1	1	1	0	1	-10,077519	275,354596	315,873525	0
15.01.2021	14:49:34	0	52,77018	4,442467	2,154	318,5424	0,945	84,977	0	1015,36	8,5	9,9	9,7	1	1	1	1	1	1	1	1	1	0	1	-9,866103	275,306884	315,859083	0
15.01.2021	14:49:35	0	52,65337	2,961646	2,13525	325,5264	0,952	84,998	0	1015,42	8,5	10,1	9,7	1	1	1	1	1	1	1	1	1	0	1	-10,007047	275,341861	315,883702	0
15.01.2021	14:49:36	0	52,53656	2,50601	2,1495	320,418	0,952	84,988	0	1015,42	8,5	10,1	9,7	1	1	1	1	1	1	1	1	1	0	1	-16,490486	275,310061	309,249736	0
15.01.2021	14:49:37	0	53,003489	4,328565	2,15625	324,3708	0,951	84,992	0	1015,36	8,5	9,9	9,7	1	1	1	1	1	1	1	1	1	0	1	-13,812544	275,410408	312,402853	0
15.01.2021	14:49:38	0	52,653184	3,30338	2,16675	318,1428	0,952	84,998	0	1015,5	8,5	9,9	9,7	1	1	1	1	1	1	1	1	1	0	1	-15,362932	275,289419	310,279609	0
15.01.2021	14:49:39	0	52,653122	2,847743	2,085	314,8236	0,949	84,981	0	1015,38	8,5	10,1	9,7	1	1	1	1	1	1	1	1	1	0	1	-13,03735	275,360966	312,943859	0
15.01.2021	14:49:40	0	52,653059	3,645113	2,08275	311,7132	0,945	84,971	0	1015,36	8,5	9,9	9,7	1	1	1	1	1	1	1	1	1	0	1	-11,627907	275,477596	314,905934	0
15.01.2021	14:49:41	0	52,419136	3,759025	2,055	309,8484	0,949	84,992	0	1015,3	8,5	10	9,7	1	1	1	1	1	1	1	1	1	0	1	-14,728682	275,43118	311,585139	0
15.01.2021	14:49:42	0	52,652566	2,506018	2,10675	315,8532	0,95	84,994	0	1015,48	8,5	10	9,7	1	1	1	1	1	1	1	1	1	0	1	-13,03735	275,305295	312,680319	0
15.01.2021	14:49:43	0	52,652873	3,75903	2,1045	308,0268	0,947	85,004	0	1015,52	8,5	10,1	9,7	1	1	1	1	1	1	1	1	1	0	1	-16,490486	275,400829	309,679528	0
15.01.2021	14:49:44	0	52,419317	4,100762	2,0775	314,0964	0,947	84,983	0	1015,3	8,5	9,9	9,7	1	1	1	1	1	1	1	1	1	0	1	-12,473573	275,479199	314,067867	0
15.01.2021	14:49:45	0	52,769495	2,847753	2,049	313,7076	0,951	84,999	0	1015,24	8,5	10,1	9,7	1	1	1	1	1	1	1	1	1	0	1	-13,460183	275,399233	312,70227	0
15.01.2021	14:49:46	0	52,419193	2,506024	2,08125	315,9504	0,95	84,977	0	1015,24	8,5	10,1	9,7	1	1	1	1	1	1	1	1	1	0	1	-10,782241	275,329135	315,048262	0
15.01.2021	14:49:47	0	52,53551	2,619936	2,07525	315,2772	0,948	84,986	0	1015,28	8,5	10	9,7	1	1	1	1	1	1	1	1	1	0	1	-10,218464	275,354596	315,73258	0
15.01.2021	14:49:48	0	52,769308	3,075578	2,0745	320,0112	0,952	84,996	0	1015,42	8,5	10,1	9,7	1	1	1	1	1	1	1	1	1	0	1	-10,993658	275,302119	314,70898	0
15.01.2021	14:49:49	0	52,768877	3,07558	2,02575	313,2036	0,953	84,997	0	1015,32	8,5	10	9,7	1	1	1	1	1	1	1	1	1	0	1	-14,376321	275,357781	311,589804	0
15.01.2021	14:49:50	0	52,652438	4,442507	2,0265	309,1788	0,951	85,002	0	1015,5	8,5	9,9	9,7	1	1	1	1	1	1	1	1	1	0	1	-13,6716	275,450373	312,733187	0
15.01.2021	14:49:51	0	52,301772	3,645136	2,0895	308,9088	0,942	85,003	0	1015,38	8,5	10	9,7	1	1	1	1	1	1	1	1	1	0	1	-11,346018	275,345044	314,5598	0
15.01.2021	14:49:52	0	52,535568	4,442512	2,19675	303,4368	0,947	84,982	0	1015,34	8,5	9,9	9,7	1	1	1	1	1	1	1	1	1	0	1	-8,174771	275,479199	318,366669	0
15.01.2021	14:49:53	0	52,652251	3,872962	2,1525	311,3964	0,949	85,005	0	1015,44	8,5	10,1	9,7	1	1	1	1	1	1	1	1	1	0	1	-11,557435	275,410408	314,657963	0
15.01.2021	14:49:54	0	52,301586	2,733857	2,05575	309,1644	0,946	85,028	0	1015,42	8,5	10	9,7	1	1	1	1	1	1	1	1	1	0	1	-13,178295	275,305295	312,539375	0
15.01.2021	14:49:55	0	52,301525	3,075591	2,0235	308,7756	0,954	85,026	0	1015,42	8,5	10	9,7	1	1	1	1	1	1	1	1	1	0	1	-11,768851	275,314828	313,993931	0
15.01.2021	14:49:56	0	52,651696	4,328611	1,926	302,0508	0,953	85,016	0	1015,46	8,5	10	9,7	1	1	1	1	1	1	1	1	1	0	1	-7,751938	275,435976	318,584614	0
15.01.2021	14:49:57	0	52,418145	3,303416	1,87875	300,8844	0,953	85,018	0	1015,42	8,5	10	9,7	1	1	1	1	1	1	1	1	1	0	1	-11,486963	275,484007	315,077276	0
15.01.2021	14:49:58	0	52,651571	2,847774	1,8555	304,6248	0,95	85,011	0	1015,34	8,5	10	9,7	1	1	1	1	1	1	1	1	1	0	1	-12,403101	275,345044	313,502718	0
15.01.2021	14:49:59	0	52,418021	2,733865	1,78275	302,85	0,948	85,025	0	1015,4	8,5	10	9,7	1	1	1	1	1	1	1	1	1	0	1	-14,164905	275,48561	312,406936	0
15.01.2021	14:50:00	0	52,184776	3,075601	1,6425	301,0464	0,957	85,044	0	1015,38	8,5	9,9	9,7	1	1	1	1	1	1	1	1	1	0	1	-12,191684	275,424786	314,091839	0
15.01.2021	14:50:01	0	52,184776	3,075601	1,6425	301,0464	0,957	85,044	0	1015,38	8,5	9,9	9,7	1	1	1	1	1	1	1	1	1	0	1	-12,05074	275,284658	313,569276	0
15.01.2021	14:50:02	0	52,534579	3,872981	1,65975	298,998	0,95	85,045	0	1015,32	8,5	10	9,7	1	1	1	1	1	1	1	1	1	0	1	-9,161381	275,410408	317,054016	0
15.01.2021	14:50:03	0	52,534885	4,556451	1,70325	321,174	0,956	85,03	0	1015,34	8,5	10,1	9,7	1	1	1	1	1	1	1	1	1	0	1	-17,547569	275,479199	308,993871	0
15.01.2021	14:50:04	0	52,534822	4,556454	1,78425	309,1896	0,95	85,034	0	1015,3	8,5	10,1	9,7	1	1	1	1	1	1	1	1	1	0	1	-10,641297	275,373713	315,400279	0
15.01.2021	14:50:05	0	52,417649	3,18952	1,863	306,4896	0,946	85,043	0	1015,38	8,5	10	9,7	1	1	1	1	1	1	1	1	1	0	1	-15,715292	275,292593	309,942268	0
15.01.2021	14:50:06	0	52,534698	3,986902	1,875	305,7444	0,955	85,055	0	1015,36	8,5	10,1	9,7	1	1	1	1	1	1	1	1	1	0	1	-11,486963	275,4152	314,751136	0
15.01.2021	14:50:07	0	52,417525	3,189523	1,86825	307,5336	0,955	85,055	0	1015,38	8,5	10	9,7	1	1	1	1	1	1	1	1	1	0	1	-13,6716	275,302119	312,031038	0
15.01.2021	14:50:08	0	52,183978	2,619967	1,8	309,8772	0,957	85,05	0	1015,4	8,5	10	9,7	1	1	1	1	1	1	1	1	1	0	1	-11,839323	275,345044	314,066495	0
15.01.2021	14:50:09	0	52,300659	4,670378	1,74375	313,56	0,958	85,056	0	1015,38	8,5	10	9,7	1	1	1	1	1	1	1	1	1	0	1	-13,460183	275,479199	313,081256	0
15.01.2021	14:50:10	0	52,067112	2,847793	1,68225	310,6728	0,952	85,041	0	1015,48	8,5	10	9,7	1	1	1	1	1	1	1	1	1	0	1	-8,315715	275,302119	317,386922	0
15.01.2021	14:50:11	0	52,300901	3,986913	1,62525	311,7708	0,95	85,037	0	1015,34	8,5	10,1	9,7	1	1	1	1	1	1	1	1	1	0	1	-13,601128	275,424786	312,682395	0
15.01.2021	14:50:12	0	52,534325	4,442563	1,53075	309,5388	0,952	85,06	0	1015,4	8,5	10,1	9,7	1	1	1	1	1	1	1	1	1	0	1	-16,913319	275,416797	309,332349	0
15.01.2021	14:50:13	0	52,533895	4,556477	1,48125	312,498	0,954	85,059	0	1015,42	8,3	10	9,7	1	1	1	1	1	1	1	1	1	0	1	-12,825934	275,482404	313,730705	0
15.01.2021	14:50:14	0	52,533833	3,303448	1,41525	307,6092	0,958	85,059	0	1015,5	8,5	10	9,7	1	1	1	1	1	1	1	1	1	0	1	-14,023961	275,427983	312,27471	0
15.01.2021	14:50:15	0	52,066804	2,733889	1,365	321,1524	0,959	85,062	0	1015,44	8,5	10	9,7	1	1	1	1	1	1	1	1	1	0	1	-11,980268	275,484007	314,583971	0
15.01.2021	14:50:16	0	52,417334	2,506067	1,29675	315,9792	0,955	85,058	0	1015,4	8,5	9,9	9,7	1	1	1	1	1	1	1	1	1	0	1	-12,262156	275,368932	313,756776	0
15.01.2021	14:50:17	0	52,06668	3,873014	1,272	315,8964	0,958	85,068	0	1015,54	8,5	10	9,7	1	1	1	1	1	1	1	1	1	0	1	-11,768851	275,286245	313,858672	0
15.01.2021	14:50:18	0	51,949877	3,417368	1,29675	319,5396	0,957	85,069	0	1015,3	8,3	10	9,7	1	1	1	1	1	1	1	1	1	0	1	-10,923185	275,469585	315,572676	0
15.01.2021	14:50:19	0	52,300039	4,670405	1,3065	311,022	0,957	85,07	0	1015,54	8,5	10	9,7	1	1	1	1	1	1	1	1	1	0	1	-10,641297	275,321185	315,151576	0
15.01.2021	14:50:20	0	52,300344	3,873021	1,3755	316,2744	0,961	85,073	0	1015,4	8,5	10,1	9,7	1	1	1	1	1	1	1	1	1	0	1	-10,993658	275,357781	314,972468	0
15.01.2021	14:50:21	0	52,299915	4,328673	1,434	320,0292	0,953	85,062	0	1015,5	8,5	10	9,7	1	1	1	1	1	1	1	1	1	0	1	-16,842847	275,466382	309,637828	0
15.01.2021	14:50:22	0	52,183478	3,417375	1,4295	306,7992	0,957	85,061	0	1015,42	8,5	10,1	9,7	1	1	1	1	1	1	1	1	1	0	1	-9,725159	275,410408	316,490239	0
15.01.2021	14:50:23	0	52,183416	4,214765	1,42575	309,24	0,958	85,095	0	1015,44	8,5	9,9	9,7	1	1	1	1	1	1	1	1	1	0	1	-8,315715	275,49042	318,278934	0
15.01.2021	14:50:24	0	52,182989	2,733903	1,3935	302,0436	0,954	85,071	0	1015,48	8,5	10	9,7	1	1	1	1	1	1	1	1	1	0	1	-8,668076	275,429581	317,638169	0
15.01.2021	14:50:25	0	52,416775	4,442596	1,31775	301,59	0,959	85,071	0	1015,38	8,5	10,1	9,7	1	1	1	1	1	1	1	1	1	0	1	-13,389711	275,300531	312,305412	0
15.01.2021	14:50:26	0	52,416345	3,30347	1,3665	312,1596	0,961	85,093	0	1015,42	8,5	10	9,7	1	1	1	1	1	1	1	1	1	0	1	-8,879493	275,405618	317,31321	0
15.01.2021	14:50:27	0	52,066428	3,075647	1,40175	311,3136	0,963	85,097	0	1015,66	8,3	10,1	9,7	1	1	1	1	1	1	1	1	1	0	1	-14,517266	275,310061	311,222957	0
15.01.2021	14:50:28	0	52,066001	3,645213	1,3695	314,0748	0,959	85,105	0	1015,54	8,5	10	9,7	1	1	1	1	1	1	1	1	1	0	1	-10,218464	275,360966	315,762745	0
15.01.2021	14:50:29	0	52,182679	3,189563	1,371	308,07	0,961	85,098	0	1015,38	8,5	10	9,7	1	1	1	1	1	1	1	1	1	0	1	-13,107822	275,303707	312,602331	0
15.01.2021	14:50:30	0	52,182618	4,784347	1,2975	321,8292	0,954	85,105	0	1015,44	8,5	10	9,7	1	1	1	1	1	1	1	1	1	0	1	-14,305849	275,354596	311,645195	0
15.01.2021	14:50:31	0	52,299295	2,847827	1,2465	319,1508	0,959	85,119	0	1015,4	8,3	10	9,7	1	1	1	1	1	1	1	1	1	0	1	-17,195208	275,493628	309,414651	0
15.01.2021	14:50:32	0	52,415972	3,417395	1,212	318,0672	0,958	85,112	0	1015,38	8,5	10	9,7	1	1	1	1	1	1	1	1	1	0	1	-15,081043	275,404022	311,104096	0
15.01.2021	14:50:33	0	52,065693	3,645223	1,188	314,4708	0,963	85,109	0	1015,2	8,5	10	9,7	1	1	1	1	1	1	1	1	1	0	1	-11,839323	275,29418	313,825748	0
15.01.2021	14:50:34	0	52,649326	4,670445	1,2135	314,424	0,96	85,108	0	1015,44	8,5	10	9,7	1	1	1	1	1	1	1	1	1	0	1	-15,715292	275,437575	310,628838	0
15.01.2021	14:50:35	0	52,299413	2,847834	1,2915	312,1524	0,951	85,106	0	1015,36	8,5	9,9	9,7	1	1	1	1	1	1	1	1	1	0	1	-8,245243	275,335497	317,615377	0
15.01.2021	14:50:36	0	52,416091	4,67045	1,35225	311,4144	0,958	85,127	0	1015,46	8,5	10,1	9,7	1	1	1	1	1	1	1	1	1	0	1	-9,302326	275,354596	316,648718	0
15.01.2021	14:50:37	0	51,948707	3,759145	1,3785	313,614	0,96	85,125	0	1015,44	8,5	10	9,7	1	1	1	1	1	1	1	1	1	0	1	-10,570825	275,477596	315,963017	0
15.01.2021	14:50:38	0	52,065384	2,847839	1,33875	322,5852	0,961	85,148	0	1015,48	8,5	10	9,7	1	1	1	1	1	1	1	1	1	0	1	-10,993658	275,306884	314,731529	0
15.01.2021	14:50:39	0	52,298798	4,784372	1,2675	311,346	0,953	85,134	0	1015,44	8,5	10	9,7	1	1	1	1	1	1	1	1	1	0	1	-15,856237	275,367339	310,15515	0
15.01.2021	14:50:40	0	52,298736	3,075669	1,2555	320,6664	0,96	85,138	0	1015,34	8,5	10	9,7	1	1	1	1	1	1	1	1	1	0	1	-10,500352	275,496835	316,124719	0
15.01.2021	14:50:41	0	52,065198	3,531326	1,2315	317,0196	0,96	85,145	0	1015,42	8,5	10	9,7	1	1	1	1	1	1	1	1	1	0	1	-13,883016	275,310061	311,857206	0
15.01.2021	14:50:42	0	52,181874	2,847845	1,2	309,1608	0,968	85,151	0	1015,34	8,5	10	9,7	1	1	1	1	1	1	1	1	1	0	1	-13,389711	275,349819	312,538717	0
15.01.2021	14:50:43	0	52,29855	3,873072	1,23	313,2108	0,96	85,132	0	1015,44	8,5	10	9,7	1	1	1	1	1	1	1	1	1	0	1	-14,376321	275,314828	311,386461	0
15.01.2021	14:50:44	0	52,065012	2,620021	1,311	311,0616	0,958	85,143	0	1015,48	8,5	10	9,7	1	1	1	1	1	1	1	1	1	0	1	-16,349542	275,360966	309,631667	0
15.01.2021	14:50:45	0	52,298426	2,392194	1,47075	311,3532	0,959	85,151	0	1015,32	8,5	10	9,7	1	1	1	1	1	1	1	1	1	0	1	-10,570825	275,305295	315,146845	0
15.01.2021	14:50:46	0	52,064889	2,392196	1,578	307,6164	0,966	85,16	0	1015,42	8,4	10	9,7	1	1	1	1	1	1	1	1	1	0	1	-14,940099	275,381685	311,13923	0
15.01.2021	14:50:47	0	52,181564	4,214823	1,65975	317,7396	0,964	85,161	0	1015,42	8,5	10	9,7	1	1	1	1	1	1	1	1	1	0	1	-17,26568	275,463179	309,199811	0
15.01.2021	14:50:48	0	51,948028	2,392198	1,656	326,3472	0,966	85,166	0	1015,62	8,4	10	9,7	1	1	1	1	1	1	1	1	1	0	1	-12,332629	275,49042	314,26202	0
15.01.2021	14:50:49	0	52,414914	4,898314	1,5915	321,8112	0,966	85,165	0	1015,56	8,4	10	9,7	1	1	1	1	1	1	1	1	1	0	1	-15,785765	275,472789	310,725286	0
15.01.2021	14:50:50	0	52,414852	5,126145	1,578	319,5648	0,965	85,149	0	1015,42	8,4	10	9,7	1	1	1	1	1	1	1	1	1	0	1	-14,305849	275,435976	312,030703	0
15.01.2021	14:50:51	0	52,064579	2,961774	1,566	315,162	0,967	85,167	0	1015,58	8,5	10	9,7	1	1	1	1	1	1	1	1	1	0	1	-11,205074	275,313239	314,550188	0
15.01.2021	14:50:52	0	51,831044	3,417434	1,49025	320,0472	0,968	85,153	0	1015,42	8,3	10	9,7	1	1	1	1	1	1	1	1	1	0	1	-12,755462	275,484007	313,808778	0
15.01.2021	14:50:53	0	51,947719	2,961778	1,395	316,944	0,964	85,162	0	1015,48	8,3	10	9,7	1	1	1	1	1	1	1	1	1	0	1	-17,124736	275,388064	308,98481	0
15.01.2021	14:50:54	0	52,297866	5,012242	1,42575	313,6104	0,97	85,166	0	1015,38	8,5	10	9,7	1	1	1	1	1	1	1	1	1	0	1	-10,007047	275,475994	316,519197	0
15.01.2021	14:50:55	0	52,064332	2,620037	1,42875	318,816	0,965	85,167	0	1015,44	8,5	10	9,7	1	1	1	1	1	1	1	1	1	0	1	-10,288936	275,346636	315,624418	0
15.01.2021	14:50:56	0	52,06427	3,873101	1,46775	335,9844	0,968	85,174	0	1015,4	8,5	10	9,7	1	1	1	1	1	1	1	1	1	0	1	-13,883016	275,471187	312,62044	0
15.01.2021	14:50:57	0	52,064208	4,784421	1,39125	334,1304	0,969	85,157	0	1015,3	8,5	10	9,7	1	1	1	1	1	1	1	1	1	0	1	-10,42988	275,375307	315,619245	0
15.01.2021	14:50:58	0	52,297617	5,012254	1,34475	327,4164	0,974	85,183	0	1015,34	8,5	10	9,7	1	1	1	1	1	1	1	1	1	0	1	-18,675123	275,313239	307,080139	0
15.01.2021	14:50:59	0	51,947348	2,506128	1,34925	326,3904	0,968	85,151	0	1015,4	8,5	10	9,7	1	1	1	1	1	1	1	1	1	0	1	-8,949965	275,319595	316,835385	0
15.01.2021	14:51:00	0	52,180695	4,442687	1,55175	307,1556	0,974	85,184	0	1015,24	8,4	10	9,7	1	1	1	1	1	1	1	1	1	0	1	-12,473573	275,419992	313,787235	0
15.01.2021	14:51:01	0	52,180695	4,442687	1,55175	307,1556	0,974	85,184	0	1015,24	8,4	10	9,7	1	1	1	1	1	1	1	1	1	0	1	-12,966878	275,318006	312,810948	0
15.01.2021	14:51:02	0	52,180633	3,075708	1,76625	316,1988	0,972	85,171	0	1015,4	8,5	10	9,7	1	1	1	1	1	1	1	1	1	0	1	-13,03735	275,447173	313,352268	0
15.01.2021	14:51:03	0	51,713631	4,214862	1,90275	319,518	0,973	85,182	0	1015,42	8,5	10	9,7	1	1	1	1	1	1	1	1	1	0	1	-13,530655	275,482404	313,025983	0
15.01.2021	14:51:04	0	52,180509	4,55661	1,94475	308,4768	0,97	85,159	0	1015,32	8,5	10	9,7	1	1	1	1	1	1	1	1	1	0	1	-12,191684	275,346636	313,72167	0
15.01.2021	14:51:05	0	52,063712	4,100951	1,9635	314,4168	0,979	85,178	0	1015,5	8,5	10	9,7	1	1	1	1	1	1	1	1	1	0	1	-16,067653	275,353003	309,875851	0
15.01.2021	14:51:06	0	51,947279	4,556615	1,8585	315,54	0,979	85,175	0	1015,42	8,5	9,9	9,7	1	1	1	1	1	1	1	1	1	0	1	-14,65821	275,314828	311,104573	0
15.01.2021	14:51:07	0	51,713384	2,50614	1,74225	321,4404	0,978	85,175	0	1015,46	8,5	10	9,7	1	1	1	1	1	1	1	1	1	0	1	-11,839323	275,360966	314,141886	0
15.01.2021	14:51:08	0	51,830057	3,987043	1,6155	316,998	0,975	85,167	0	1015,2	8,5	10	9,7	1	1	1	1	1	1	1	1	1	0	1	-8,174771	275,314828	317,588012	0
15.01.2021	14:51:09	0	52,180198	4,556623	1,62225	315,504	0,974	85,181	0	1015,32	8,4	10	9,7	1	1	1	1	1	1	1	1	1	0	1	-16,27907	275,477596	310,254772	0
15.01.2021	14:51:10	0	52,29687	4,784457	1,632	317,0196	0,976	85,177	0	1015,36	8,5	10	9,7	1	1	1	1	1	1	1	1	1	0	1	-13,03735	275,480801	313,511688	0
15.01.2021	14:51:11	0	52,180439	4,442712	1,6365	311,7528	0,982	85,186	0	1015,4	8,5	10,1	9,7	1	1	1	1	1	1	1	1	1	0	1	-12,684989	275,442374	313,681881	0
15.01.2021	14:51:12	0	52,063642	4,442715	1,6335	309,8988	0,977	85,181	0	1015,46	8,5	10,1	9,7	1	1	1	1	1	1	1	1	1	0	1	-9,513742	275,314828	316,249041	0
15.01.2021	14:51:13	0	51,596642	3,075728	1,743	299,772	0,974	85,193	0	1015,4	8,5	10,1	9,7	1	1	1	1	1	1	1	1	1	0	1	-11,909796	275,324365	313,898127	0
15.01.2021	14:51:14	0	51,712953	2,620066	1,83	305,0208	0,982	85,183	0	1015,36	8,5	10	9,7	1	1	1	1	1	1	1	1	1	0	1	-12,755462	275,353003	313,188043	0
15.01.2021	14:51:15	0	52,063092	3,873143	1,764	312,1596	0,98	85,194	0	1015,44	8,3	10	9,7	1	1	1	1	1	1	1	1	1	0	1	-13,601128	275,394446	312,538646	0
15.01.2021	14:51:16	0	51,71283	2,620069	1,7205	291,4704	0,98	85,198	0	1015,4	8,4	10	9,7	1	1	1	1	1	1	1	1	1	0	1	-10,218464	275,31165	315,529278	0
15.01.2021	14:51:17	0	52,296434	4,214896	1,719	317,7864	0,98	85,21	0	1015,42	8,5	10	9,7	1	1	1	1	1	1	1	1	1	0	1	-10,42988	275,365745	315,573961	0
15.01.2021	14:51:18	0	52,180004	4,328814	1,659	338,0076	0,98	85,199	0	1015,46	8,5	10,1	9,7	1	1	1	1	1	1	1	1	1	0	1	-11,768851	275,488817	314,818194	0
15.01.2021	14:51:19	0	52,062843	3,645319	1,605	312,2172	0,975	85,199	0	1015,32	8,5	10	9,7	1	1	1	1	1	1	1	1	1	0	1	-12,262156	275,310061	313,478066	0
15.01.2021	14:51:20	0	52,063146	4,556652	1,61475	321,1668	0,99	85,195	0	1015,22	8,4	10,1	9,7	1	1	1	1	1	1	1	1	1	0	1	-6,624383	275,368932	319,394549	0
15.01.2021	14:51:21	0	51,712884	3,075742	1,53225	307,1124	0,98	85,21	0	1015,38	8,5	10,1	9,7	1	1	1	1	1	1	1	1	1	0	1	-12,403101	275,332316	313,442459	0
15.01.2021	14:51:22	0	52,179389	3,759242	1,43775	311,7204	0,979	85,205	0	1015,26	8,4	10	9,7	1	1	1	1	1	1	1	1	1	0	1	-14,587738	275,451973	311,824634	0
15.01.2021	14:51:23	0	52,412792	4,328827	1,395	315,8856	0,981	85,211	0	1015,38	8,5	10	9,7	1	1	1	1	1	1	1	1	1	0	1	-12,121212	275,330725	313,716819	0
15.01.2021	14:51:24	0	51,829068	2,392248	1,43475	318,492	0,984	85,219	0	1015,48	8,5	10	9,7	1	1	1	1	1	1	1	1	1	0	1	-13,460183	275,362559	312,528569	0
15.01.2021	14:51:25	0	52,295935	3,417499	1,46925	318,0564	0,982	85,226	0	1015,38	8,4	10	9,7	1	1	1	1	1	1	1	1	1	0	1	-14,376321	275,324365	311,431601	0
15.01.2021	14:51:26	0	52,062773	4,214917	1,43475	316,3356	0,982	85,224	0	1015,34	8,3	10,1	9,7	1	1	1	1	1	1	1	1	1	0	1	-11,909796	275,359373	314,063871	0
15.01.2021	14:51:27	0	52,296176	3,075752	1,36275	315,198	0,983	85,233	0	1015,5	8,5	10,1	9,7	1	1	1	1	1	1	1	1	1	0	1	-12,896406	275,322775	312,903992	0
15.01.2021	14:51:28	0	52,062284	3,189671	1,3335	317,3832	0,987	85,232	0	1015,42	8,5	10	9,7	1	1	1	1	1	1	1	1	1	0	1	-14,235377	275,447173	312,154241	0
15.01.2021	14:51:29	0	52,295685	4,214925	1,33575	314,0928	0,986	85,244	0	1015,38	8,5	10	9,7	1	1	1	1	1	1	1	1	1	0	1	-12,825934	275,349819	313,102494	0
15.01.2021	14:51:30	0	51,945429	3,645342	1,39275	309,9312	0,981	85,234	0	1015,32	8,5	10	9,7	1	1	1	1	1	1	1	1	1	0	1	-11,980268	275,484007	314,583971	0
15.01.2021	14:51:31	0	52,062462	4,442763	1,353	322,5672	0,986	85,245	0	1015,46	8,3	10,1	9,7	1	1	1	1	1	1	1	1	1	0	1	-14,869626	275,424786	311,413897	0
15.01.2021	14:51:32	0	51,828573	3,417512	1,28025	308,1312	0,988	85,255	0	1015,5	8,4	10	9,7	1	1	1	1	1	1	1	1	1	0	1	-11,839323	275,306884	313,885863	0
15.01.2021	14:51:33	0	52,061973	3,9871	1,29675	320,3172	0,987	85,237	0	1015,5	8,5	10	9,7	1	1	1	1	1	1	1	1	1	0	1	-15,221987	275,400829	310,948027	0
15.01.2021	14:51:34	0	51,94518	4,10102	1,34175	320,3964	0,987	85,262	0	1015,46	8,4	10	9,7	1	1	1	1	1	1	1	1	1	0	1	-14,940099	275,337088	310,928053	0
15.01.2021	14:51:35	0	52,295676	2,392263	1,36125	307,1844	0,985	85,243	0	1015,38	8,5	10,1	9,7	1	1	1	1	1	1	1	1	1	0	1	-16,490486	275,357781	309,475639	0
15.01.2021	14:51:36	0	52,295614	2,734016	1,41075	303,5268	0,988	85,249	0	1015,38	8,5	9,9	9,7	1	1	1	1	1	1	1	1	1	0	1	-12,403101	275,319595	313,382249	0
15.01.2021	14:51:37	0	52,412283	4,556696	1,4625	323,3088	0,989	85,262	0	1015,4	8,5	10,1	9,7	1	1	1	1	1	1	1	1	1	0	1	-13,6716	275,388064	312,437946	0
15.01.2021	14:51:38	0	51,945296	3,759277	1,43175	304,9848	0,988	85,258	0	1015,44	8,5	10,1	9,7	1	1	1	1	1	1	1	1	1	0	1	-14,235377	275,373713	311,806199	0
15.01.2021	14:51:39	0	52,29506	4,101031	1,39875	297,2736	0,99	85,27	0	1015,46	8,4	10	9,7	1	1	1	1	1	1	1	1	1	0	1	-15,010571	275,500044	311,629716	0
15.01.2021	14:51:40	0	52,178633	2,84794	1,3965	308,4876	0,989	85,257	0	1015,42	8,5	10,1	9,7	1	1	1	1	1	1	1	1	1	0	1	-11,557435	275,37212	314,476592	0
15.01.2021	14:51:41	0	52,178571	4,328871	1,332	317,0736	0,983	85,265	0	1015,42	8,5	10,1	9,7	1	1	1	1	1	1	1	1	1	0	1	-15,997181	275,495231	310,620283	0
15.01.2021	14:51:42	0	52,295239	4,556709	1,3515	291,1824	0,987	85,268	0	1015,46	8,5	9,9	9,7	1	1	1	1	1	1	1	1	1	0	1	-17,336152	275,413603	308,894379	0
15.01.2021	14:51:43	0	52,061351	3,189698	1,38075	302,8068	0,996	85,274	0	1015,46	8,5	10	9,7	1	1	1	1	1	1	1	1	1	0	1	-13,6716	275,322775	312,128798	0
15.01.2021	14:51:44	0	52,294747	4,442797	1,31025	313,2144	0,992	85,283	0	1015,44	8,3	10	9,7	1	1	1	1	1	1	1	1	1	0	1	-9,725159	275,321185	316,067714	0
15.01.2021	14:51:45	0	52,294685	2,961866	1,27125	302,7528	0,994	85,262	0	1015,46	8,4	10	9,7	1	1	1	1	1	1	1	1	1	0	1	-14,094433	275,456775	312,3407	0
15.01.2021	14:51:46	0	52,528081	3,41754	1,3035	311,418	0,994	85,283	0	1015,34	8,4	10	9,7	1	1	1	1	1	1	1	1	1	0	1	-17,054264	275,496835	309,570808	0
15.01.2021	14:51:47	0	52,178196	5,240231	1,3275	315,1152	0,992	85,281	0	1015,46	8,5	10,1	9,7	1	1	1	1	1	1	1	1	1	0	1	-13,107822	275,365745	312,896019	0
15.01.2021	14:51:48	0	52,177768	2,961871	1,29075	301,6116	0,993	85,278	0	1015,42	8,5	10	9,7	1	1	1	1	1	1	1	1	1	0	1	-10,782241	275,500044	315,858046	0
15.01.2021	14:51:49	0	51,827883	3,189709	1,3845	309,8556	0,986	85,287	0	1015,44	8,5	10,1	9,7	1	1	1	1	1	1	1	1	1	0	1	-15,081043	275,49844	311,551636	0
15.01.2021	14:51:50	0	52,294372	5,012403	1,3665	327,8016	0,993	85,266	0	1015,44	8,5	10	9,7	1	1	1	1	1	1	1	1	1	0	1	-10,147992	275,503253	316,507514	0
15.01.2021	14:51:51	0	52,177947	2,961876	1,35825	322,5564	0,989	85,281	0	1015,44	8,5	10,1	9,7	1	1	1	1	1	1	1	1	1	0	1	-15,715292	275,407215	310,484974	0
15.01.2021	14:51:52	0	51,944426	3,303633	1,3965	312,1776	0,997	85,289	0	1015,42	8,5	10,1	9,7	1	1	1	1	1	1	1	1	1	0	1	-14,869626	275,504857	311,793489	0
15.01.2021	14:51:53	0	52,177456	3,759309	1,46775	303,858	0,994	85,304	0	1015,34	8,4	10	9,7	1	1	1	1	1	1	1	1	1	0	1	-11,486963	275,389659	314,630139	0
15.01.2021	14:51:54	0	52,527578	3,645393	1,50825	307,4976	0,996	85,307	0	1015,48	8,5	10	9,7	1	1	1	1	1	1	1	1	1	0	1	-12,332629	275,496835	314,292442	0
15.01.2021	14:51:55	0	52,177697	4,214988	1,572	306,0684	1	85,3	0	1015,46	8,5	10,1	9,7	1	1	1	1	1	1	1	1	1	0	1	-14,940099	275,475994	311,586145	0
15.01.2021	14:51:56	0	52,294363	3,303641	1,524	310,6224	0,997	85,309	0	1015,44	8,5	10,1	9,7	1	1	1	1	1	1	1	1	1	0	1	-14,799154	275,381685	311,280175	0
15.01.2021	14:51:57	0	52,060844	3,53148	1,4865	317,7792	0,995	85,309	0	1015,46	8,4	10,1	9,7	1	1	1	1	1	1	1	1	1	0	1	-13,883016	275,330725	311,955015	0
15.01.2021	14:51:58	0	52,177509	2,961888	1,39875	315,252	0,997	85,298	0	1015,46	8,5	10,1	9,7	1	1	1	1	1	1	1	1	1	0	1	-14,940099	275,404022	311,24504	0
15.01.2021	14:51:59	0	52,293809	3,417565	1,446	311,0004	1,001	85,315	0	1015,36	8,5	10	9,7	1	1	1	1	1	1	1	1	1	0	1	-15,362932	275,313239	310,39233	0
15.01.2021	14:52:00	0	51,943502	3,417569	1,36575	322,1388	1,005	85,324	0	1015,44	8,5	10	9,7	1	1	1	1	1	1	1	1	1	0	1	-13,883016	275,451973	312,529356	0
15.01.2021	14:52:01	0	51,943502	3,417569	1,36575	322,1388	1,005	85,324	0	1015,44	8,5	10	9,7	1	1	1	1	1	1	1	1	1	0	1	-13,601128	275,500044	313,039159	0
15.01.2021	14:52:02	0	52,177259	4,101086	1,2735	309,9636	1,007	85,318	0	1015,28	8,5	10,1	9,7	1	1	1	1	1	1	1	1	1	0	1	-10,923185	275,325954	314,892263	0
15.01.2021	14:52:03	0	52,410285	4,784603	1,34925	294,4152	1,006	85,322	0	1015,46	8,4	10	9,7	1	1	1	1	1	1	1	1	1	0	1	-11,768851	275,453574	314,651107	0
15.01.2021	14:52:04	0	52,060042	2,73406	1,51425	295,5492	0,999	85,329	0	1015,3	8,5	10	9,7	1	1	1	1	1	1	1	1	1	0	1	-13,03735	275,341861	312,853399	0
15.01.2021	14:52:05	0	52,293799	4,55677	1,6215	317,7792	1,005	85,333	0	1015,38	8,4	10,1	9,7	1	1	1	1	1	1	1	1	1	0	1	-13,812544	275,456775	312,622589	0
15.01.2021	14:52:06	0	52,176644	3,417579	1,62975	315,2016	1,002	85,326	0	1015,46	8,5	10	9,7	1	1	1	1	1	1	1	1	1	0	1	-11,134602	275,501648	315,513294	0
15.01.2021	14:52:07	0	52,293307	3,075823	1,572	307,242	1,009	85,338	0	1015,44	8,5	10	9,7	1	1	1	1	1	1	1	1	1	0	1	-14,376321	275,404022	311,808818	0
15.01.2021	14:52:08	0	52,409971	3,417583	1,52475	308,0556	1,009	85,349	0	1015,46	8,4	10	9,7	1	1	1	1	1	1	1	1	1	0	1	-17,618041	275,504857	309,045075	0
15.01.2021	14:52:09	0	52,410275	3,987183	1,4595	296,0316	0,997	85,35	0	1015,42	8,5	10,1	9,7	1	1	1	1	1	1	1	1	1	0	1	-13,953488	275,407215	312,246778	0
15.01.2021	14:52:10	0	52,526939	4,898541	1,344	325,188	1,006	85,36	0	1015,56	8,5	10,1	9,7	1	1	1	1	1	1	1	1	1	0	1	-12,825934	275,327545	312,997042	0
15.01.2021	14:52:11	0	52,05997	3,417589	1,257	325,9872	1,004	85,336	0	1015,4	8,5	10,1	9,7	1	1	1	1	1	1	1	1	1	0	1	-11,839323	275,455174	314,588221	0
15.01.2021	14:52:12	0	51,943181	3,075832	1,18725	320,7204	1,003	85,354	0	1015,4	8,5	10,1	9,7	1	1	1	1	1	1	1	1	1	0	1	-12,121212	275,327545	313,701763	0
15.01.2021	14:52:13	0	52,05948	3,075834	1,1205	318,978	1,009	85,38	0	1015,4	8,5	10	9,7	1	1	1	1	1	1	1	1	1	0	1	-12,262156	275,43118	314,051664	0
15.01.2021	14:52:14	0	51,943057	3,303675	1,0845	308,0736	1,006	85,352	0	1015,44	8,5	10,1	9,7	1	1	1	1	1	1	1	1	1	0	1	-13,6716	275,330725	312,166431	0
15.01.2021	14:52:15	0	52,293172	2,734078	1,119	303,138	1,011	85,364	0	1015,28	8,5	10,1	9,7	1	1	1	1	1	1	1	1	1	0	1	-13,03735	275,397637	313,117542	0
15.01.2021	14:52:16	0	51,942932	3,417599	1,221	307,3032	1,004	85,372	0	1015,46	8,5	10,1	9,7	1	1	1	1	1	1	1	1	1	0	1	-12,191684	275,333906	313,661405	0
15.01.2021	14:52:17	0	52,059595	3,987201	1,362	313,6068	1,01	85,375	0	1015,46	8,5	10,1	9,7	1	1	1	1	1	1	1	1	1	0	1	-12,614517	275,405618	313,578185	0
15.01.2021	14:52:18	0	52,059533	2,506242	1,42575	322,2108	1,012	85,39	0	1015,48	8,5	10,1	9,7	1	1	1	1	1	1	1	1	1	0	1	-16,208598	275,511277	310,484968	0
15.01.2021	14:52:19	0	52,409646	4,670727	1,48275	322,182	1,018	85,381	0	1015,4	8,5	10,1	9,7	1	1	1	1	1	1	1	1	1	0	1	-17,970402	275,466382	308,510273	0
15.01.2021	14:52:20	0	52,175767	4,78465	1,48725	310,302	1,017	85,384	0	1015,38	8,5	10	9,7	1	1	1	1	1	1	1	1	1	0	1	-13,178295	275,511277	313,515271	0
15.01.2021	14:52:21	0	52,17607	2,848007	1,4835	309,8808	1,007	85,389	0	1015,42	8,5	10,1	9,7	1	1	1	1	1	1	1	1	1	0	1	-11,557435	275,381685	314,521894	0
15.01.2021	14:52:22	0	52,292732	2,734089	1,44075	323,6472	1,009	85,378	0	1015,42	8,4	9,9	9,7	1	1	1	1	1	1	1	1	1	0	1	-13,6716	275,329135	312,158903	0
15.01.2021	14:52:23	0	52,409394	3,531533	1,3395	307,1736	1,013	85,384	0	1015,32	8,5	10,1	9,7	1	1	1	1	1	1	1	1	1	0	1	-10,852713	275,376902	315,203962	0
15.01.2021	14:52:24	0	52,526056	4,898581	1,29975	296,0748	1,017	85,386	0	1015,24	8,4	10,1	9,7	1	1	1	1	1	1	1	1	1	0	1	-11,134602	275,522518	315,612279	0
15.01.2021	14:52:25	0	52,875796	4,898584	1,28175	317,7792	1,02	85,392	0	1015,42	8,5	10	9,7	1	1	1	1	1	1	1	1	1	0	1	-14,164905	275,448773	312,232297	0
15.01.2021	14:52:26	0	52,52593	4,670745	1,34025	309,5028	1,018	85,402	0	1015,36	8,5	10,1	9,7	1	1	1	1	1	1	1	1	1	0	1	-13,6716	275,506462	312,999127	0
15.01.2021	14:52:27	0	52,759315	3,873303	1,488	295,6284	1,015	85,389	0	1015,36	8,5	10,1	9,7	1	1	1	1	1	1	1	1	1	0	1	-14,65821	275,410408	311,557187	0
15.01.2021	14:52:28	0	52,058907	2,620177	1,5495	310,6764	1,009	85,378	0	1015,34	8,5	10,1	9,7	1	1	1	1	1	1	1	1	1	0	1	-16,560958	275,5177	310,163069	0
15.01.2021	14:52:29	0	52,409017	2,961941	1,6035	304,992	1,018	85,396	0	1015,42	8,4	10,1	9,7	1	1	1	1	1	1	1	1	1	0	1	-14,164905	275,434377	312,164069	0
15.01.2021	14:52:30	0	52,408954	2,848022	1,60875	310,2912	1,019	85,382	0	1015,38	8,5	10,1	9,7	1	1	1	1	1	1	1	1	1	0	1	-12,544045	275,338679	313,331638	0
15.01.2021	14:52:31	0	52,642338	3,759391	1,653	304,7112	1,015	85,387	0	1015,46	8,4	10,1	9,7	1	1	1	1	1	1	1	1	1	0	1	-15,081043	275,424786	311,20248	0
15.01.2021	14:52:32	0	52,175015	3,189788	1,65825	316,602	1,018	85,378	0	1015,4	8,5	10	9,7	1	1	1	1	1	1	1	1	1	0	1	-13,601128	275,512883	313,100052	0
15.01.2021	14:52:33	0	52,292041	4,329001	1,70175	319,9968	1,019	85,376	0	1015,46	8,5	10,1	9,7	1	1	1	1	1	1	1	1	1	0	1	-15,503876	275,434377	310,825098	0
15.01.2021	14:52:34	0	52,175255	3,075871	1,7595	321,7932	1,018	85,385	0	1015,4	8,5	10,1	9,7	1	1	1	1	1	1	1	1	1	0	1	-10,923185	275,338679	314,952498	0
15.01.2021	14:52:35	0	52,525362	3,075873	1,722	319,5504	1,018	85,392	0	1015,48	8,4	10,1	9,7	1	1	1	1	1	1	1	1	1	0	1	-13,6716	275,484007	312,892639	0
15.01.2021	14:52:36	0	52,408575	2,734111	1,6305	316,6488	1,019	85,388	0	1015,44	8,5	10,1	9,7	1	1	1	1	1	1	1	1	1	0	1	-15,292459	275,353003	310,651045	0
15.01.2021	14:52:37	0	52,29179	2,848034	1,55475	306,4392	1,023	85,382	0	1015,3	8,5	10,1	9,7	1	1	1	1	1	1	1	1	1	0	1	-12,121212	275,394446	314,018562	0
15.01.2021	14:52:38	0	52,058282	3,531564	1,53	303,3756	1,022	85,367	0	1015,4	8,5	10,1	9,7	1	1	1	1	1	1	1	1	1	0	1	-11,909796	275,506462	314,760931	0
15.01.2021	14:52:39	0	52,291298	2,392351	1,5585	296,0712	1,022	85,373	0	1015,3	8,5	10	9,7	1	1	1	1	1	1	1	1	1	0	1	-14,094433	275,391255	312,030225	0
15.01.2021	14:52:40	0	52,407956	3,189803	1,58925	298,6452	1,024	85,371	0	1015,46	8,5	10	9,7	1	1	1	1	1	1	1	1	1	0	1	-16,349542	275,519305	310,382102	0
15.01.2021	14:52:41	0	52,758427	4,784708	1,65	296,5572	1,028	85,374	0	1015,38	8,5	10,1	9,7	1	1	1	1	1	1	1	1	1	0	1	-16,701903	275,381685	309,377426	0
15.01.2021	14:52:42	0	52,641641	3,075885	1,725	299,7468	1,029	85,38	0	1015,32	8,4	10,1	9,7	1	1	1	1	1	1	1	1	1	0	1	-13,460183	275,501648	313,187712	0
15.01.2021	14:52:43	0	52,641209	4,784713	1,68975	291,528	1,022	85,367	0	1015,4	8,5	10	9,7	1	1	1	1	1	1	1	1	1	0	1	-14,023961	275,373713	312,017615	0
15.01.2021	14:52:44	0	52,408071	4,101185	1,61175	291,7908	1,022	85,373	0	1015,38	8,5	10,1	9,7	1	1	1	1	1	1	1	1	1	0	1	-18,181818	275,348227	307,739073	0
15.01.2021	14:52:45	0	52,057843	2,734125	1,5495	302,0724	1,029	85,356	0	1015,42	8,5	10,1	9,7	1	1	1	1	1	1	1	1	1	0	1	-16,27907	275,404022	309,906069	0
15.01.2021	14:52:46	0	52,407945	5,126487	1,58325	296,0496	1,029	85,348	0	1015,36	8,5	10,1	9,7	1	1	1	1	1	1	1	1	1	0	1	-9,44327	275,524124	317,311231	0
15.01.2021	14:52:47	0	52,758046	3,873348	1,57875	296,91	1,025	85,334	0	1015,46	8,5	10,1	9,7	1	1	1	1	1	1	1	1	1	0	1	-15,221987	275,453574	311,197971	0
15.01.2021	14:52:48	0	52,407819	2,392363	1,659	291,852	1,029	85,321	0	1015,44	8,5	10,1	9,7	1	1	1	1	1	1	1	1	1	0	1	-15,151515	275,325954	310,663934	0
15.01.2021	14:52:49	0	52,524477	3,417664	1,76475	296,1	1,03	85,332	0	1015,4	8,4	10,1	9,7	1	1	1	1	1	1	1	1	1	0	1	-11,909796	275,396041	314,237537	0
15.01.2021	14:52:50	0	52,174251	3,303744	1,95075	295,5348	1,022	85,309	0	1015,36	8,4	10,1	9,7	1	1	1	1	1	1	1	1	1	0	1	-15,292459	275,514488	311,416335	0
15.01.2021	14:52:51	0	52,523982	4,784735	1,98075	295,1784	1,021	85,312	0	1015,32	8,3	10	9,7	1	1	1	1	1	1	1	1	1	0	1	-16,772375	275,477596	309,761466	0
15.01.2021	14:52:52	0	52,290846	2,734136	2,00175	306,8064	1,026	85,295	0	1015,46	8,5	10,1	9,7	1	1	1	1	1	1	1	1	1	0	1	-11,909796	275,343452	313,988488	0
15.01.2021	14:52:53	0	52,290783	2,39237	2,01975	303,534	1,026	85,308	0	1015,32	8,5	10,1	9,7	1	1	1	1	1	1	1	1	1	0	1	-12,755462	275,388064	313,354084	0
15.01.2021	14:52:54	0	52,757601	5,012589	2,0325	320,04	1,022	85,284	0	1015,36	8,5	10,1	9,7	1	1	1	1	1	1	1	1	1	0	1	-14,940099	275,508067	311,73824	0
15.01.2021	14:52:55	0	52,523729	2,620218	1,92375	319,1796	1,025	85,271	0	1015,42	8,4	10	9,7	1	1	1	1	1	1	1	1	1	0	1	-12,825934	275,423188	313,450017	0
15.01.2021	14:52:56	0	52,407314	3,759446	1,78275	321,7608	1,022	85,254	0	1015,22	8,5	10,1	9,7	1	1	1	1	1	1	1	1	1	0	1	-7,751938	275,346636	318,161416	0
15.01.2021	14:52:57	0	52,75741	3,987293	1,72875	324,0792	1,026	85,264	0	1015,4	8,5	10,1	9,7	1	1	1	1	1	1	1	1	1	0	1	-13,601128	275,469585	312,894734	0
15.01.2021	14:52:58	0	52,640627	3,303759	1,68075	328,1544	1,025	85,253	0	1015,42	8,5	10,1	9,7	1	1	1	1	1	1	1	1	1	0	1	-11,909796	275,53055	314,875191	0
15.01.2021	14:52:59	0	52,523844	2,961993	1,65975	321,1236	1,03	85,25	0	1015,28	8,5	10,1	9,7	1	1	1	1	1	1	1	1	1	0	1	-15,081043	275,432778	311,240354	0
15.01.2021	14:53:00	0	52,640436	4,329071	1,5855	330,7356	1,026	85,238	0	1015,3	8,4	10,1	9,7	1	1	1	1	1	1	1	1	1	0	1	-14,869626	275,5177	311,8544	0
15.01.2021	14:53:01	0	52,640436	4,329071	1,5855	330,7356	1,026	85,238	0	1015,3	8,4	10,1	9,7	1	1	1	1	1	1	1	1	1	0	1	-17,970402	275,429581	308,335844	0
15.01.2021	14:53:02	0	52,406934	4,784766	1,51875	322,5636	1,024	85,219	0	1015,44	8,5	10,1	9,7	1	1	1	1	1	1	1	1	1	0	1	-19,591261	275,512883	307,109918	0
15.01.2021	14:53:03	0	52,52359	3,303769	1,4355	323,6544	1,03	85,218	0	1015,42	8,5	10,1	9,7	1	1	1	1	1	1	1	1	1	0	1	-13,248767	275,459977	313,201544	0
15.01.2021	14:53:04	0	52,756965	4,784771	1,27575	330,7536	1,024	85,204	0	1015,38	8,5	10,1	9,7	1	1	1	1	1	1	1	1	1	0	1	-15,503876	275,447173	310,885742	0
15.01.2021	14:53:05	0	52,640182	4,556928	1,149	321,318	1,026	85,205	0	1015,4	8,3	10,1	9,7	1	1	1	1	1	1	1	1	1	0	1	-15,715292	275,53055	311,069695	0
15.01.2021	14:53:06	0	52,5234	2,506312	1,10475	315,9	1,024	85,196	0	1015,44	8,5	10,1	9,7	1	1	1	1	1	1	1	1	1	0	1	-12,403101	275,448773	313,994101	0
15.01.2021	14:53:07	0	52,523337	3,75947	1,104	316,5732	1,027	85,193	0	1015,46	8,5	10,1	9,7	1	1	1	1	1	1	1	1	1	0	1	-12,755462	275,338679	313,120222	0
15.01.2021	14:53:08	0	52,75671	4,215166	1,13325	311,85	1,026	85,197	0	1015,4	8,5	10,1	9,7	1	1	1	1	1	1	1	1	1	0	1	-17,829457	275,394446	308,310316	0
15.01.2021	14:53:09	0	52,990083	4,784785	1,2615	311,022	1,024	85,185	0	1015,36	8,5	10,1	9,7	1	1	1	1	1	1	1	1	1	0	1	-12,121212	275,482404	314,435426	0
15.01.2021	14:53:10	0	52,289344	3,189859	1,254	318,8016	1,025	85,199	0	1015,46	8,4	10	9,7	1	1	1	1	1	1	1	1	1	0	1	-11,06413	275,496835	315,560941	0
15.01.2021	14:53:11	0	52,289647	2,84809	1,275	336,4488	1,025	85,184	0	1015,54	8,5	10,1	9,7	1	1	1	1	1	1	1	1	1	0	1	-12,896406	275,335497	312,964214	0
15.01.2021	14:53:12	0	52,289584	2,734168	1,24875	331,5312	1,024	85,19	0	1015,44	8,5	10,1	9,7	1	1	1	1	1	1	1	1	1	0	1	-15,856237	275,397637	310,298656	0
15.01.2021	14:53:13	0	52,406239	4,443025	1,2315	312,1812	1,028	85,177	0	1015,28	8,5	10,1	9,7	1	1	1	1	1	1	1	1	1	0	1	-9,866103	275,325954	315,949346	0
15.01.2021	14:53:14	0	52,756328	4,556952	1,24875	326,3148	1,026	85,165	0	1015,26	8,5	10,1	9,7	1	1	1	1	1	1	1	1	1	0	1	-17,618041	275,42159	308,650338	0
15.01.2021	14:53:15	0	52,405745	3,987335	1,27425	318,798	1,028	85,178	0	1015,42	8,5	10	9,7	1	1	1	1	1	1	1	1	1	0	1	-13,953488	275,467984	312,534779	0
15.01.2021	14:53:16	0	52,406049	3,759489	1,179	312,048	1,029	85,193	0	1015,48	8,5	10,1	9,7	1	1	1	1	1	1	1	1	1	0	1	-16,208598	275,533764	310,591637	0
15.01.2021	14:53:17	0	52,405986	4,329112	1,173	324,3528	1,03	85,184	0	1015,4	8,5	10,1	9,7	1	1	1	1	1	1	1	1	1	0	1	-11,06413	275,458376	315,378591	0
15.01.2021	14:53:18	0	52,405922	3,075949	1,13625	315,864	1,029	85,177	0	1015,44	8,5	10,1	9,7	1	1	1	1	1	1	1	1	1	0	1	-12,403101	275,514488	314,305694	0
15.01.2021	14:53:19	0	52,522576	3,303799	1,083	299,7612	1,029	85,19	0	1015,32	8,5	10,1	9,7	1	1	1	1	1	1	1	1	1	0	1	-15,715292	275,472789	310,795759	0
15.01.2021	14:53:20	0	52,639229	3,189877	1,08075	306,126	1,028	85,196	0	1015,44	8,4	10,1	9,7	1	1	1	1	1	1	1	1	1	0	1	-17,26568	275,475994	309,260564	0
15.01.2021	14:53:21	0	52,639165	4,329122	1,13475	307,5588	1,029	85,182	0	1015,4	8,4	10,1	9,7	1	1	1	1	1	1	1	1	1	0	1	-14,164905	275,364152	311,831391	0
15.01.2021	14:53:22	0	52,872164	4,784821	1,10175	303,624	1,028	85,194	0	1015,44	8,4	10	9,7	1	1	1	1	1	1	1	1	1	0	1	-12,332629	275,519305	314,399016	0
15.01.2021	14:53:23	0	52,522322	2,734185	1,0515	306,1332	1,028	85,207	0	1015,4	8,3	10,1	9,7	1	1	1	1	1	1	1	1	1	0	1	-17,477097	275,37212	308,556931	0
15.01.2021	14:53:24	0	52,989123	4,10128	1,0215	309,564	1,03	85,199	0	1015,44	8,4	10,1	9,7	1	1	1	1	1	1	1	1	1	0	1	-11,980268	275,524124	314,774233	0
15.01.2021	14:53:25	0	52,288763	2,620264	1,005	314,0172	1,03	85,228	0	1015,78	8,4	10,1	9,7	1	1	1	1	1	1	1	1	1	0	1	-15,362932	275,37212	310,671096	0
15.01.2021	14:53:26	0	52,755563	3,873436	1,00125	307,2132	1,027	85,193	0	1015,3	8,4	10,1	9,7	1	1	1	1	1	1	1	1	1	0	1	-13,248767	275,522518	313,498115	0
15.01.2021	14:53:27	0	52,755499	3,18989	0,978	301,554	1,022	85,199	0	1015,48	8,4	10,1	9,7	1	1	1	1	1	1	1	1	1	0	1	-18,957012	275,482404	307,599627	0
15.01.2021	14:53:28	0	52,405289	3,531666	0,98625	300,474	1,023	85,21	0	1015,38	8,5	10,1	9,7	1	1	1	1	1	1	1	1	1	0	1	-16,842847	275,528943	309,934517	0
15.01.2021	14:53:29	0	52,755372	3,645593	1,06725	301,6404	1,028	85,214	0	1015,26	8,5	10,1	9,7	1	1	1	1	1	1	1	1	1	0	1	-13,389711	275,461578	313,068189	0
15.01.2021	14:53:30	0	52,171732	2,506347	1,23075	304,272	1,028	85,207	0	1015,4	8,5	10,1	9,7	1	1	1	1	1	1	1	1	1	0	1	-10,852713	275,337088	315,015438	0
15.01.2021	14:53:31	0	52,755244	3,303823	1,4535	297,1872	1,026	85,214	0	1015,36	8,5	10,1	9,7	1	1	1	1	1	1	1	1	1	0	1	-17,26568	275,453574	309,154278	0
15.01.2021	14:53:32	0	52,28832	3,531674	1,64025	293,2344	1,032	85,22	0	1015,52	8,4	10,1	9,7	1	1	1	1	1	1	1	1	1	0	1	-12,544045	275,448773	313,853157	0
15.01.2021	14:53:33	0	52,638402	3,417751	1,76325	292,6296	1,038	85,227	0	1015,38	8,5	10,1	9,7	1	1	1	1	1	1	1	1	1	0	1	-12,684989	275,338679	313,190694	0
15.01.2021	14:53:34	0	52,988482	4,557005	1,95075	295,074	1,025	85,209	0	1015,4	8,4	10,1	9,7	1	1	1	1	1	1	1	1	1	0	1	-15,151515	275,375307	310,89761	0
15.01.2021	14:53:35	0	52,988047	4,557007	2,049	301,6332	1,038	85,232	0	1015,32	8,5	10	9,7	1	1	1	1	1	1	1	1	1	0	1	-13,178295	275,445573	313,20374	0
15.01.2021	14:53:36	0	52,871639	4,556982	2,12475	297,1908	1,036	85,234	0	1015,38	8,4	10,1	9,8	1	1	1	1	1	1	1	1	1	0	1	-15,010571	275,5177	311,713456	0
15.01.2021	14:53:37	0	52,871575	4,329162	2,151	315,252	1,035	85,232	0	1015,44	8,5	10,1	9,7	1	1	1	1	1	1	1	1	1	0	1	-11,980268	275,447173	314,40935	0
15.01.2021	14:53:38	0	52,404655	2,734209	2,17875	313,5996	1,028	85,294	0	1015,4	8,5	10,1	9,7	1	1	1	1	1	1	1	1	1	0	1	-12,614517	275,37212	313,41951	0
15.01.2021	14:53:39	0	52,520937	2,962062	2,055	297,5004	1,035	85,227	0	1015,38	8,5	10	9,7	1	1	1	1	1	1	1	1	1	0	1	-14,235377	275,373713	311,806199	0
15.01.2021	14:53:40	0	52,637956	3,759542	2,00925	283,5792	1,031	85,221	0	1015,32	8,5	10,1	9,7	1	1	1	1	1	1	1	1	1	0	1	-11,275546	275,511277	315,418019	0
15.01.2021	14:53:41	0	52,637523	2,848139	1,9785	288,8172	1,035	85,251	0	1015,48	8,5	10	9,7	1	1	1	1	1	1	1	1	1	0	1	-14,728682	275,500044	311,911605	0
15.01.2021	14:53:42	0	52,870885	3,075992	2,01225	290,0844	1,038	85,244	0	1015,44	8,4	10	9,7	1	1	1	1	1	1	1	1	1	0	1	-13,6716	275,501648	312,976296	0
15.01.2021	14:53:43	0	52,754478	3,9874	2,00025	290,8188	1,033	85,246	0	1015,44	8,4	10,1	9,7	1	1	1	1	1	1	1	1	1	0	1	-12,896406	275,52573	313,865715	0
15.01.2021	14:53:44	0	52,520987	2,620293	1,91625	297,9612	1,038	85,256	0	1015,38	8,5	10,1	9,7	1	1	1	1	1	1	1	1	1	0	1	-11,768851	275,516094	314,947559	0
15.01.2021	14:53:45	0	53,10449	4,67096	1,87725	275,0724	1,032	85,24	0	1015,38	8,5	10,1	9,7	1	1	1	1	1	1	1	1	1	0	1	-13,248767	275,432778	313,07263	0
15.01.2021	14:53:46	0	52,987341	4,329185	1,7805	292,3272	1,036	85,259	0	1015,4	8,5	10	9,7	1	1	1	1	1	1	1	1	1	0	1	-13,883016	275,520911	312,856246	0
15.01.2021	14:53:47	0	52,754222	3,531705	1,7565	289,9908	1,036	85,263	0	1015,42	8,5	10,1	9,7	1	1	1	1	1	1	1	1	1	0	1	-11,980268	275,407215	314,219999	0
15.01.2021	14:53:48	0	52,870871	4,557042	1,69125	308,124	1,037	85,264	0	1015,32	8,5	10,1	9,7	1	1	1	1	1	1	1	1	1	0	1	-10,993658	275,351411	314,942308	0
15.01.2021	14:53:49	0	52,987519	3,759562	1,90125	312,1272	1,035	85,279	0	1015,52	8,5	9,9	9,7	1	1	1	1	1	1	1	1	1	0	1	-14,164905	275,466382	312,31577	0
15.01.2021	14:53:50	0	52,403893	3,189933	2,0685	307,224	1,04	85,268	0	1015,3	8,5	10,1	9,7	1	1	1	1	1	1	1	1	1	0	1	-12,614517	275,519305	314,117127	0
15.01.2021	14:53:51	0	52,520542	2,962065	1,9905	324,8748	1,04	85,273	0	1015,44	8,5	10,1	9,8	1	1	1	1	1	1	1	1	1	0	1	-13,883016	275,394446	312,256758	0
15.01.2021	14:53:52	0	52,987327	4,898831	1,82175	335,79	1,04	85,268	0	1015,42	8,4	10,1	9,7	1	1	1	1	1	1	1	1	1	0	1	-16,560958	275,5177	310,163069	0
15.01.2021	14:53:53	0	52,987263	4,670981	1,6845	319,1796	1,036	85,254	0	1015,42	8,5	10,1	9,7	1	1	1	1	1	1	1	1	1	0	1	-12,614517	275,38009	313,45726	0
15.01.2021	14:53:54	0	53,220622	4,329205	1,68075	309,3012	1,041	85,276	0	1015,4	8,5	10,1	9,7	1	1	1	1	1	1	1	1	1	0	1	-14,728682	275,514488	311,980112	0
15.01.2021	14:53:55	0	52,987134	4,443134	1,5885	314,4492	1,04	85,29	0	1015,32	8,5	10,1	9,7	1	1	1	1	1	1	1	1	1	0	1	-12,966878	275,508067	313,711461	0
15.01.2021	14:53:56	0	52,869988	3,303851	1,52775	296,5284	1,037	85,293	0	1015,52	8,5	10	9,8	1	1	1	1	1	1	1	1	1	0	1	-10,923185	275,383279	315,163697	0
15.01.2021	14:53:57	0	52,403448	2,734239	1,4535	294,0984	1,039	85,283	0	1015,4	8,5	10,1	9,7	1	1	1	1	1	1	1	1	1	0	1	-13,953488	275,524124	312,801013	0
15.01.2021	14:53:58	0	52,636439	3,417801	1,42575	298,3068	1,034	85,284	0	1015,3	8,3	10	9,7	1	1	1	1	1	1	1	1	1	0	1	-13,530655	275,407215	312,669611	0
15.01.2021	14:53:59	0	52,870166	4,898851	1,4265	293,0652	1,041	85,264	0	1015,28	8,5	10,1	9,7	1	1	1	1	1	1	1	1	1	0	1	-14,65821	275,5177	312,065817	0
15.01.2021	14:54:00	0	52,519905	2,506392	1,41975	297,5292	1,04	85,27	0	1015,28	8,5	10,1	9,7	1	1	1	1	1	1	1	1	1	0	1	-12,191684	275,359373	313,781982	0
15.01.2021	14:54:01	0	52,519905	2,506392	1,41975	297,5292	1,04	85,27	0	1015,28	8,5	10,1	9,7	1	1	1	1	1	1	1	1	1	0	1	-12,191684	275,359373	313,781982	0
15.01.2021	14:54:02	0	52,986684	4,784933	1,50075	302,454	1,041	85,274	0	1015,54	8,5	10,1	9,7	1	1	1	1	1	1	1	1	1	0	1	-9,584214	275,467984	316,904053	0
15.01.2021	14:54:03	0	52,869909	4,2153	1,5165	310,302	1,043	85,28	0	1015,46	8,5	10,1	9,7	1	1	1	1	1	1	1	1	1	0	1	-12,191684	275,543409	314,654312	0
15.01.2021	14:54:04	0	52,869845	4,898866	1,47825	309,5352	1,045	85,272	0	1015,38	8,4	10,1	9,7	1	1	1	1	1	1	1	1	1	0	1	-17,195208	275,477596	309,338633	0
15.01.2021	14:54:05	0	53,336622	4,44316	1,49475	326,0592	1,044	85,275	0	1015,42	8,4	10,1	9,7	1	1	1	1	1	1	1	1	1	0	1	-12,403101	275,480801	314,145938	0
15.01.2021	14:54:06	0	52,752637	3,531744	1,52325	315,8424	1,037	85,282	0	1015,42	8,5	10	9,7	1	1	1	1	1	1	1	1	1	0	1	-15,433404	275,34027	310,449812	0
15.01.2021	14:54:07	0	53,103072	4,21531	1,53975	312,1884	1,046	85,275	0	1015,52	8,4	10,1	9,7	1	1	1	1	1	1	1	1	1	0	1	-17,054264	275,459977	309,396047	0
15.01.2021	14:54:08	0	53,336054	4,78495	1,60275	316,4832	1,048	85,29	0	1015,44	8,5	10	9,7	1	1	1	1	1	1	1	1	1	0	1	-12,332629	275,533764	314,467606	0
15.01.2021	14:54:09	0	52,752814	3,873533	1,6215	305,7084	1,048	85,277	0	1015,26	8,5	10,1	9,7	1	1	1	1	1	1	1	1	1	0	1	-11,980268	275,367339	314,031119	0
15.01.2021	14:54:10	0	53,219216	3,531753	1,5435	314,8128	1,044	85,274	0	1015,42	8,5	10	9,7	1	1	1	1	1	1	1	1	1	0	1	-13,03735	275,386469	313,06464	0
15.01.2021	14:54:11	0	52,519267	2,506392	1,4685	317,0196	1,047	85,256	0	1015,52	8,5	10,1	9,8	1	1	1	1	1	1	1	1	1	0	1	-12,825934	275,341861	313,064816	0
15.01.2021	14:54:12	0	53,335795	5,126744	1,47075	299,4408	1,05	85,267	0	1015,4	8,5	10	9,7	1	1	1	1	1	1	1	1	1	0	1	-14,305849	275,464781	312,167233	0
15.01.2021	14:54:13	0	53,102685	4,784964	1,512	308,7576	1,046	85,243	0	1015,4	8,5	10,1	9,7	1	1	1	1	1	1	1	1	1	0	1	-11,627907	275,349819	314,300521	0
15.01.2021	14:54:14	0	52,519076	3,07605	1,5825	287,3628	1,046	85,264	0	1015,48	8,5	10,1	9,7	1	1	1	1	1	1	1	1	1	0	1	-15,433404	275,451973	310,978968	0
15.01.2021	14:54:15	0	52,985847	4,215305	1,66275	295,1316	1,042	85,26	0	1015,48	8,4	10,1	9,8	1	1	1	1	1	1	1	1	1	0	1	-11,768851	275,357781	314,197274	0
15.01.2021	14:54:16	0	52,985783	3,531765	1,6845	300,4308	1,042	85,244	0	1015,32	8,5	10,1	9,7	1	1	1	1	1	1	1	1	1	0	1	-12,825934	275,480801	313,723105	0
15.01.2021	14:54:17	0	52,985719	4,101407	1,608	294,0948	1,044	85,261	0	1015,5	8,4	10,1	9,7	1	1	1	1	1	1	1	1	1	0	1	-17,829457	275,527337	308,940285	0
15.01.2021	14:54:18	0	52,985283	3,417841	1,677	309,8988	1,067	85,262	0	1015,62	8,4	10	9,7	1	1	1	1	1	1	1	1	1	0	1	-11,486963	275,391255	314,637695	0
15.01.2021	14:54:19	0	52,868881	4,443196	1,88175	303,5016	1,04	85,24	0	1015,4	8,5	10,1	9,7	1	1	1	1	1	1	1	1	1	0	1	-16,772375	275,49844	309,860304	0
15.01.2021	14:54:20	0	52,868447	3,076061	2,1075	304,6392	1,046	85,235	0	1015,5	8,5	10	9,7	1	1	1	1	1	1	1	1	1	0	1	-17,618041	275,354596	308,333003	0
15.01.2021	14:54:21	0	53,218877	2,962116	2,2635	304,254	1,05	85,241	0	1015,46	8,5	10,1	9,8	1	1	1	1	1	1	1	1	1	0	1	-14,65821	275,419992	311,602598	0
15.01.2021	14:54:22	0	53,451854	4,67106	2,316	306,81	1,043	85,233	0	1015,4	8,5	10	9,7	1	1	1	1	1	1	1	1	1	0	1	-15,574348	275,511277	311,119217	0
15.01.2021	14:54:23	0	53,10204	2,734281	2,34525	305,3916	1,037	85,238	0	1015,48	8,5	10,1	9,7	1	1	1	1	1	1	1	1	1	0	1	-16,490486	275,383279	309,596396	0
15.01.2021	14:54:24	0	53,218683	4,671066	2,2665	305,7876	1,047	85,224	0	1015,38	8,5	10,1	9,7	1	1	1	1	1	1	1	1	1	0	1	-13,953488	275,388064	312,156057	0
15.01.2021	14:54:25	0	52,868125	2,734284	2,21625	300,4524	1,049	85,224	0	1015,32	8,4	10	9,7	1	1	1	1	1	1	1	1	1	0	1	-11,980268	275,546625	314,880988	0
15.01.2021	14:54:26	0	53,101474	4,215357	2,19	293,0652	1,05	85,224	0	1015,66	8,5	10	9,7	1	1	1	1	1	1	1	1	1	0	1	-10,923185	275,49042	315,671464	0
15.01.2021	14:54:27	0	52,868367	3,076073	2,118	310,3452	1,043	85,208	0	1015,28	8,3	10,1	9,7	1	1	1	1	1	1	1	1	1	0	1	-9,372798	275,488817	317,214248	0
15.01.2021	14:54:28	0	53,218424	2,962146	2,03025	290,8908	1,048	85,212	0	1015,54	8,5	10,1	9,7	1	1	1	1	1	1	1	1	1	0	1	-14,869626	275,488817	311,717419	0
15.01.2021	14:54:29	0	53,101652	2,506433	1,92525	300,1752	1,046	85,203	0	1015,44	8,5	10,1	9,7	1	1	1	1	1	1	1	1	1	0	1	-12,262156	275,496835	314,362915	0
15.01.2021	14:54:30	0	53,101587	4,671082	1,872	296,9208	1,049	85,197	0	1015,44	8,5	10,1	9,7	1	1	1	1	1	1	1	1	1	0	1	-14,65821	275,512883	312,04297	0
15.01.2021	14:54:31	0	53,451268	4,557129	1,815	295,5636	1,048	85,207	0	1015,5	8,5	10	9,8	1	1	1	1	1	1	1	1	1	0	1	-13,178295	275,384874	312,916141	0
15.01.2021	14:54:32	0	53,334871	4,671088	1,76625	282,4632	1,055	85,206	0	1015,48	8,5	10,1	9,7	1	1	1	1	1	1	1	1	1	0	1	-13,248767	275,349819	312,679661	0
15.01.2021	14:54:33	0	52,634568	3,303942	1,65825	285,5052	1,052	85,192	0	1015,48	8,4	10,1	9,7	1	1	1	1	1	1	1	1	1	0	1	-11,275546	275,424786	315,007977	0
15.01.2021	14:54:34	0	52,984251	2,620369	1,64325	290,124	1,044	85,183	0	1015,36	8,5	10	9,7	1	1	1	1	1	1	1	1	1	0	1	-14,446794	275,532157	312,345817	0
15.01.2021	14:54:35	0	53,21797	4,785025	1,635	290,754	1,046	85,181	0	1015,5	8,4	10,1	9,7	1	1	1	1	1	1	1	1	1	0	1	-15,221987	275,524124	311,532514	0
15.01.2021	14:54:36	0	53,217533	4,215382	1,659	302,0688	1,05	85,186	0	1015,42	8,4	10	9,7	1	1	1	1	1	1	1	1	1	0	1	-14,587738	275,467984	311,90053	0
15.01.2021	14:54:37	0	52,867353	2,506445	1,73025	291,4884	1,052	85,179	0	1015,5	8,5	10	9,7	1	1	1	1	1	1	1	1	1	0	1	-11,205074	275,354596	314,74597	0
15.01.2021	14:54:38	0	52,634247	2,392502	1,71	294,0876	1,049	85,172	0	1015,5	8,4	10,1	9,8	1	1	1	1	1	1	1	1	1	0	1	-12,473573	275,356188	313,485011	0
15.01.2021	14:54:39	0	53,217711	3,987506	1,698	290,772	1,049	85,164	0	1015,54	8,5	10,1	9,8	1	1	1	1	1	1	1	1	1	0	1	-11,909796	275,400829	314,260219	0
15.01.2021	14:54:40	0	53,217646	4,215392	1,8015	288,1548	1,048	85,147	0	1015,56	8,5	10,1	9,7	1	1	1	1	1	1	1	1	1	0	1	-14,446794	275,353003	311,496711	0
15.01.2021	14:54:41	0	53,100504	2,506436	1,8885	284,3568	1,048	85,146	0	1015,48	8,5	10	9,8	1	1	1	1	1	1	1	1	1	0	1	-13,883016	275,381685	312,196313	0
15.01.2021	14:54:42	0	53,217516	3,759655	1,9005	296,4276	1,05	85,147	0	1015,36	8,5	10,1	9,8	1	1	1	1	1	1	1	1	1	0	1	-15,503876	275,360966	310,477333	0
15.01.2021	14:54:43	0	53,334156	3,645751	1,98975	293,382	1,047	85,123	0	1015,36	8,5	10,1	9,7	1	1	1	1	1	1	1	1	1	0	1	-12,825934	275,394446	313,31384	0
15.01.2021	14:54:44	0	52,983977	3,076104	2,14725	293,7564	1,048	85,125	0	1015,38	8,5	10,1	9,7	1	1	1	1	1	1	1	1	1	0	1	-18,463707	275,545017	308,389919	0
15.01.2021	14:54:45	0	53,567436	4,443264	2,1795	294,1236	1,048	85,121	0	1015,5	8,4	10,1	9,7	1	1	1	1	1	1	1	1	1	0	1	-12,755462	275,416797	313,490206	0
15.01.2021	14:54:46	0	53,217257	3,190037	2,10225	298,998	1,05	85,113	0	1015,48	8,5	10,1	9,7	1	1	1	1	1	1	1	1	1	0	1	-11,205074	275,345044	314,700745	0
15.01.2021	14:54:47	0	53,56693	2,734319	1,8855	306,0936	1,048	85,112	0	1015,44	8,5	10	9,7	1	1	1	1	1	1	1	1	1	0	1	-12,614517	275,354596	313,336527	0
15.01.2021	14:54:48	0	52,983719	2,848251	1,74525	306,4212	1,05	85,094	0	1015,46	8,4	10,1	9,7	1	1	1	1	1	1	1	1	1	0	1	-13,6716	275,49042	312,923049	0
15.01.2021	14:54:49	0	53,45047	2,962183	1,695	322,614	1,046	85,087	0	1015,44	8,4	10,1	9,7	1	1	1	1	1	1	1	1	1	0	1	-15,997181	275,353003	309,946323	0
15.01.2021	14:54:50	0	53,216624	3,531835	1,78575	315,126	1,041	85,083	0	1015,26	8,4	10	9,7	1	1	1	1	1	1	1	1	1	0	1	-17,618041	275,408812	308,589791	0
15.01.2021	14:54:51	0	53,216932	3,873605	1,95525	322,5888	1,047	85,092	0	1015,4	8,5	10,1	9,8	1	1	1	1	1	1	1	1	1	0	1	-9,090909	275,373713	316,950667	0
15.01.2021	14:54:52	0	53,333571	2,164663	2,049	309,2184	1,039	85,077	0	1015,42	8,4	10,1	9,8	1	1	1	1	1	1	1	1	1	0	1	-13,883016	275,394446	312,256758	0
15.01.2021	14:54:53	0	52,983024	3,07612	2,1375	311,1156	1,045	85,071	0	1015,48	8,5	10	9,7	1	1	1	1	1	1	1	1	1	0	1	-12,966878	275,335497	312,893742	0
15.01.2021	14:54:54	0	53,333441	3,303963	2,163	306,3744	1,042	85,066	0	1015,44	8,4	10,1	9,8	1	1	1	1	1	1	1	1	1	0	1	-11,557435	275,471187	314,946021	0
15.01.2021	14:54:55	0	53,333376	3,873637	2,14425	311,724	1,044	85,059	0	1015,38	8,4	10,1	9,7	1	1	1	1	1	1	1	1	1	0	1	-10,147992	275,535371	316,659868	0
15.01.2021	14:54:56	0	53,332937	2,05075	2,067	306,378	1,047	85,066	0	1015,36	8,4	10	9,7	1	1	1	1	1	1	1	1	1	0	1	-16,560958	275,416797	309,684709	0
15.01.2021	14:54:57	0	53,449948	4,443295	1,956	308,1024	1,037	85,032	0	1015,4	8,5	10,1	9,7	1	1	1	1	1	1	1	1	1	0	1	-14,728682	275,356188	311,229902	0
15.01.2021	14:54:58	0	53,682913	3,759713	1,82475	308,1024	1,043	85,04	0	1015,42	8,4	10	9,7	1	1	1	1	1	1	1	1	1	0	1	-12,825934	275,439175	313,525776	0
15.01.2021	14:54:59	0	53,683223	4,671162	1,67925	316,9656	1,043	85,049	0	1015,46	8,5	10,1	9,7	1	1	1	1	1	1	1	1	1	0	1	-13,601128	275,512883	313,100052	0
15.01.2021	14:55:00	0	53,449687	2,734325	1,89975	320,7528	1,045	85,053	0	1015,44	8,5	10,1	9,8	1	1	1	1	1	1	1	1	1	0	1	-19,661734	275,351411	306,274232	0
15.01.2021	14:55:01	0	53,449687	2,734325	1,89975	320,7528	1,045	85,053	0	1015,44	8,5	10,1	9,8	1	1	1	1	1	1	1	1	1	0	1	-12,473573	275,451973	313,938799	0
15.01.2021	14:55:02	0	53,33292	2,848274	2,0235	317,6856	1,043	85,026	0	1015,52	8,5	10,1	9,7	1	1	1	1	1	1	1	1	1	0	1	-16,913319	275,488817	309,673726	0
15.01.2021	14:55:03	0	53,566259	4,557242	2,10825	311,9616	1,044	85,036	0	1015,38	8,4	10,1	9,7	1	1	1	1	1	1	1	1	1	0	1	-13,248767	275,522518	313,498115	0
15.01.2021	14:55:04	0	53,216088	2,6204	2,11575	317,7828	1,043	85,024	0	1015,42	8,4	10,1	9,8	1	1	1	1	1	1	1	1	1	0	1	-12,614517	275,474391	313,90413	0
15.01.2021	14:55:05	0	53,099321	4,101498	2,172	320,0256	1,046	85,023	0	1015,48	8,5	10,1	9,8	1	1	1	1	1	1	1	1	1	0	1	-12,191684	275,346636	313,72167	0
15.01.2021	14:55:06	0	53,682764	2,962212	2,2455	302,4936	1,035	85,002	0	1015,38	8,5	10,1	9,7	1	1	1	1	1	1	1	1	1	0	1	-14,305849	275,480801	312,24319	0
15.01.2021	14:55:07	0	53,448921	4,443321	2,16825	315,234	1,04	85,018	0	1015,46	8,4	10	9,7	1	1	1	1	1	1	1	1	1	0	1	-14,869626	275,532157	311,922984	0
15.01.2021	14:55:08	0	53,332529	4,557255	1,94175	324,4284	1,043	85,02	0	1015,36	8,4	10,1	9,7	1	1	1	1	1	1	1	1	1	0	1	-16,420014	275,384874	309,674422	0
15.01.2021	14:55:09	0	53,449165	4,55723	1,90575	315,27	1,041	84,995	0	1015,48	8,4	9,9	9,8	1	1	1	1	1	1	1	1	1	0	1	-14,799154	275,461578	311,658746	0
15.01.2021	14:55:10	0	53,332025	3,531877	1,875	314,8452	1,047	85,003	0	1015,42	8,5	10	9,7	1	1	1	1	1	1	1	1	1	0	1	-12,755462	275,509672	313,93049	0
15.01.2021	14:55:11	0	53,799137	4,215468	1,83	312,1632	1,04	85,009	0	1015,36	8,5	10,1	9,7	1	1	1	1	1	1	1	1	1	0	1	-17,195208	275,443973	309,179245	0
15.01.2021	14:55:12	0	53,682371	3,303998	1,91775	327,1536	1,039	85,009	0	1015,36	8,4	10,1	9,8	1	1	1	1	1	1	1	1	1	0	1	-16,631431	275,532157	310,16118	0
15.01.2021	14:55:13	0	53,799006	4,6712	1,896	327,8268	1,042	85,01	0	1015,36	8,4	10,1	9,7	1	1	1	1	1	1	1	1	1	0	1	-16,631431	275,39285	309,500785	0
15.01.2021	14:55:14	0	53,565539	2,962226	1,89825	332,046	1,044	85,021	0	1015,4	8,4	10,1	9,7	1	1	1	1	1	1	1	1	1	0	1	-12,755462	275,391255	313,369197	0
15.01.2021	14:55:15	0	53,214999	2,620417	1,87575	337,9464	1,037	84,997	0	1015,34	8,5	10	9,8	1	1	1	1	1	1	1	1	1	0	1	-15,151515	275,38009	310,920262	0
15.01.2021	14:55:16	0	53,565032	2,848281	1,90575	335,3328	1,038	85,005	0	1015,38	8,5	10	9,8	1	1	1	1	1	1	1	1	1	0	1	-12,05074	275,501648	314,597156	0
15.01.2021	14:55:17	0	53,448642	3,987619	1,926	336,0924	1,04	85,002	0	1015,32	8,4	10,1	9,7	1	1	1	1	1	1	1	1	1	0	1	-13,883016	275,527337	312,886726	0
15.01.2021	14:55:18	0	53,681601	2,848301	1,8585	337,5108	1,044	85,022	0	1015,32	8,5	10	9,7	1	1	1	1	1	1	1	1	1	0	1	-13,03735	275,408812	313,170481	0
15.01.2021	14:55:19	0	53,681911	3,304031	1,986	335,7756	1,039	85,026	0	1015,34	8,5	10,1	9,7	1	1	1	1	1	1	1	1	1	0	1	-13,107822	275,354596	312,843222	0
15.01.2021	14:55:20	0	53,331373	2,962219	2,2005	337,9824	1,043	85,031	0	1015,38	8,4	10	9,8	1	1	1	1	1	1	1	1	1	0	1	-13,319239	275,467984	313,169029	0
15.01.2021	14:55:21	0	53,56508	4,443331	2,22825	330,084	1,046	85,042	0	1015,3	8,4	10,1	9,8	1	1	1	1	1	1	1	1	1	0	1	-11,41649	275,524124	315,33801	0
15.01.2021	14:55:22	0	54,031433	4,671225	2,12625	325,1412	1,045	85,04	0	1015,42	8,4	10	9,7	1	1	1	1	1	1	1	1	1	0	1	-13,530655	275,461578	312,927245	0
15.01.2021	14:55:23	0	53,214851	2,278648	2,0595	325,5588	1,041	85,05	0	1015,38	8,5	10,1	9,7	1	1	1	1	1	1	1	1	1	0	1	-15,010571	275,349819	310,917857	0
15.01.2021	14:55:24	0	53,681582	2,506499	1,96425	315,2484	1,05	85,048	0	1015,42	8,4	10,1	9,8	1	1	1	1	1	1	1	1	1	0	1	-13,6716	275,479199	312,86984	0
15.01.2021	14:55:25	0	53,681141	4,329436	2,11575	321,1236	1,049	85,064	0	1015,44	8,4	10	9,7	1	1	1	1	1	1	1	1	1	0	1	-17,195208	275,52573	309,566913	0
15.01.2021	14:55:26	0	53,564377	4,443371	2,17425	325,2312	1,043	85,073	0	1015,34	8,5	10	9,7	1	1	1	1	1	1	1	1	1	0	1	-13,460183	275,426384	312,830913	0
15.01.2021	14:55:27	0	53,798084	4,215483	2,16975	334,2348	1,049	85,059	0	1015,26	8,5	10,1	9,8	1	1	1	1	1	1	1	1	1	0	1	-14,235377	275,360966	311,745832	0
15.01.2021	14:55:28	0	53,447922	4,329443	2,11125	312,192	1,047	85,084	0	1015,32	8,5	10,1	9,7	1	1	1	1	1	1	1	1	1	0	1	-18,957012	275,500044	307,683275	0
15.01.2021	14:55:29	0	53,447483	3,873691	2,02275	319,986	1,048	85,103	0	1015,5	8,4	10	9,8	1	1	1	1	1	1	1	1	1	0	1	-11,41649	275,354596	314,534553	0
15.01.2021	14:55:30	0	53,681188	4,899113	1,938	321,084	1,044	85,091	0	1015,42	8,5	10,1	9,7	1	1	1	1	1	1	1	1	1	0	1	-9,654686	275,416797	316,590981	0
15.01.2021	14:55:31	0	53,447352	4,899086	1,9005	319,536	1,051	85,105	0	1015,38	8,4	10	9,8	1	1	1	1	1	1	1	1	1	0	1	-14,65821	275,346636	311,255144	0
15.01.2021	14:55:32	0	53,564358	2,848325	1,80675	328,95	1,07	85,097	0	1015,66	8,4	10,1	9,7	1	1	1	1	1	1	1	1	1	0	1	-14,587738	275,440774	311,771552	0
15.01.2021	14:55:33	0	53,563918	3,759768	1,7115	310,68	1,047	85,108	0	1015,36	8,4	10	9,8	1	1	1	1	1	1	1	1	1	0	1	-16,913319	275,353003	309,030185	0
15.01.2021	14:55:34	0	53,797623	3,987635	1,674	317,7972	1,048	85,108	0	1015,4	8,4	10,1	9,8	1	1	1	1	1	1	1	1	1	0	1	-12,332629	275,475994	314,193615	0
15.01.2021	14:55:35	0	53,680859	2,73438	1,62525	319,5144	1,051	85,109	0	1015,24	8,5	10,1	9,8	1	1	1	1	1	1	1	1	1	0	1	-15,081043	275,396041	311,06629	0
15.01.2021	14:55:36	0	53,447399	3,645842	1,54575	314,7372	1,044	85,105	0	1015,36	8,4	10,1	9,8	1	1	1	1	1	1	1	1	1	0	1	-12,755462	275,391255	313,369197	0
15.01.2021	14:55:37	0	53,447333	4,443399	1,61475	310,2444	1,049	85,117	0	1015,46	8,4	10,1	9,7	1	1	1	1	1	1	1	1	1	0	1	-17,970402	275,48561	308,601439	0
15.01.2021	14:55:38	0	53,563965	3,076201	1,67025	322,1568	1,049	85,111	0	1015,44	8,5	10,1	9,7	1	1	1	1	1	1	1	1	1	0	1	-18,393235	275,360966	307,587975	0
15.01.2021	14:55:39	0	53,797293	2,848319	1,62975	324,7992	1,053	85,107	0	1015,28	8,4	10,1	9,8	1	1	1	1	1	1	1	1	1	0	1	-13,460183	275,418395	312,793054	0
15.01.2021	14:55:40	0	53,447136	3,873716	1,59825	324,4428	1,047	85,107	0	1015,42	8,4	10,1	9,8	1	1	1	1	1	1	1	1	1	0	1	-14,094433	275,360966	311,886776	0
15.01.2021	14:55:41	0	53,797161	4,557316	1,57875	331,5348	1,052	85,097	0	1015,46	8,5	10,1	9,8	1	1	1	1	1	1	1	1	1	0	1	-15,997181	275,493628	310,612677	0
15.01.2021	14:55:42	0	53,796718	3,873721	1,4955	331,128	1,052	85,1	0	1015,4	8,4	10	9,8	1	1	1	1	1	1	1	1	1	0	1	-19,591261	275,524124	307,163239	0
15.01.2021	14:55:43	0	53,330243	3,417991	1,56	324,1836	1,055	85,106	0	1015,58	8,4	10,1	9,8	1	1	1	1	1	1	1	1	1	0	1	-13,883016	275,528943	312,894348	0
15.01.2021	14:55:44	0	53,680267	2,848345	1,5345	333,1728	1,051	85,104	0	1015,52	8,5	10,1	9,7	1	1	1	1	1	1	1	1	1	0	1	-12,684989	275,408812	313,522842	0
15.01.2021	14:55:45	0	53,680201	3,417995	1,54275	333,4752	1,051	85,111	0	1015,44	8,4	10,1	9,8	1	1	1	1	1	1	1	1	1	0	1	-11,980268	275,520911	314,758995	0
15.01.2021	14:55:46	0	53,680135	3,417997	1,5975	327,114	1,051	85,092	0	1015,34	8,4	10,1	9,8	1	1	1	1	1	1	1	1	1	0	1	-13,883016	275,514488	312,825778	0
15.01.2021	14:55:47	0	53,796765	4,329466	1,65825	329,346	1,045	85,084	0	1015,4	8,4	10,1	9,8	1	1	1	1	1	1	1	1	1	0	1	-12,05074	275,496835	314,574331	0
15.01.2021	14:55:48	0	53,680003	4,443428	1,7475	324,414	1,048	85,077	0	1015,4	8,4	10,1	9,7	1	1	1	1	1	1	1	1	1	0	1	-13,601128	275,338679	312,274556	0
15.01.2021	14:55:49	0	53,679937	3,759826	1,8885	327,456	1,048	85,092	0	1015,5	8,5	10,1	9,7	1	1	1	1	1	1	1	1	1	0	1	-16,349542	275,48561	310,222299	0
15.01.2021	14:55:50	0	53,563176	4,329499	1,881	315,5184	1,051	85,083	0	1015,4	8,5	10,1	9,7	1	1	1	1	1	1	1	1	1	0	1	-12,121212	275,541801	314,717155	0
15.01.2021	14:55:51	0	53,562735	4,55737	1,8525	313,6248	1,047	85,074	0	1015,42	8,4	10	9,7	1	1	1	1	1	1	1	1	1	0	1	-12,966878	275,509672	313,719074	0
15.01.2021	14:55:52	0	53,563045	3,190142	1,8975	317,4012	1,05	85,077	0	1015,42	8,4	10,1	9,8	1	1	1	1	1	1	1	1	1	0	1	-14,235377	275,357781	311,730748	0
15.01.2021	14:55:53	0	53,913064	3,418011	1,83675	324,4932	1,046	85,069	0	1015,34	8,4	10,1	9,8	1	1	1	1	1	1	1	1	1	0	1	-12,05074	275,500044	314,589547	0
15.01.2021	14:55:54	0	53,796303	4,101616	1,74975	321,1164	1,048	85,069	0	1015,28	8,4	10,1	9,8	1	1	1	1	1	1	1	1	1	0	1	-13,6716	275,353003	312,271905	0
15.01.2021	14:55:55	0	53,562847	2,848346	1,66725	326,0268	1,047	85,073	0	1015,42	8,5	10,1	9,8	1	1	1	1	1	1	1	1	1	0	1	-12,403101	275,426384	313,887996	0
15.01.2021	14:55:56	0	53,212698	2,620496	1,6485	313,6428	1,047	85,076	0	1015,42	8,4	10,1	9,7	1	1	1	1	1	1	1	1	1	0	1	-12,966878	275,346636	312,946476	0
15.01.2021	14:55:57	0	53,446021	3,076217	1,57575	326,4084	1,047	85,082	0	1015,26	8,4	10,1	9,8	1	1	1	1	1	1	1	1	1	0	1	-15,64482	275,450373	310,759966	0
15.01.2021	14:55:58	0	53,329261	2,848351	1,5795	322,5024	1,05	85,078	0	1015,34	8,5	10,1	9,8	1	1	1	1	1	1	1	1	1	0	1	-15,785765	275,354596	310,165279	0
15.01.2021	14:55:59	0	53,912666	3,645914	1,63875	324,7596	1,05	85,096	0	1015,48	8,4	10,1	9,7	1	1	1	1	1	1	1	1	1	0	1	-18,040874	275,492024	308,56138	0
15.01.2021	14:56:00	0	53,445759	3,076243	1,6305	311,7636	1,04	85,088	0	1015,42	8,5	10,1	9,7	1	1	1	1	1	1	1	1	1	0	1	-15,926709	275,400829	310,243305	0
15.01.2021	14:56:01	0	53,445759	3,076243	1,6305	311,7636	1,04	85,088	0	1015,42	8,5	10,1	9,7	1	1	1	1	1	1	1	1	1	0	1	-15,926709	275,400829	310,243305	0
15.01.2021	14:56:02	0	53,795774	3,987701	1,6545	307,1808	1,052	85,1	0	1015,52	8,4	10,1	9,8	1	1	1	1	1	1	1	1	1	0	1	-15,010571	275,496835	311,6145	0
15.01.2021	14:56:03	0	53,562321	4,443468	1,67475	310,3308	1,054	85,106	0	1015,56	8,5	10,1	9,7	1	1	1	1	1	1	1	1	1	0	1	-15,926709	275,514488	310,782086	0
15.01.2021	14:56:04	0	53,562255	2,620508	1,71525	293,3136	1,052	85,084	0	1015,32	8,5	10,1	9,7	1	1	1	1	1	1	1	1	1	0	1	-13,530655	275,459977	312,919655	0
15.01.2021	14:56:05	0	53,795575	4,785279	1,7175	307,0872	1,05	85,108	0	1015,32	8,4	10,1	9,7	1	1	1	1	1	1	1	1	1	0	1	-11,839323	275,384874	314,255112	0
15.01.2021	14:56:06	0	53,562123	2,278692	1,671	308,106	1,052	85,095	0	1015,28	8,4	10,1	9,8	1	1	1	1	1	1	1	1	1	0	1	-13,601128	275,527337	313,168615	0
15.01.2021	14:56:07	0	53,795443	3,41804	1,62225	300,1284	1,051	85,116	0	1015,38	8,5	10,1	9,8	1	1	1	1	1	1	1	1	1	0	1	-17,054264	275,396041	309,093069	0
15.01.2021	14:56:08	0	53,678684	2,278694	1,7115	309,9312	1,052	85,1	0	1015,3	8,4	10,1	9,8	1	1	1	1	1	1	1	1	1	0	1	-15,574348	275,356188	310,384236	0
15.01.2021	14:56:09	0	53,678618	3,532	1,8615	307,1916	1,045	85,126	0	1015,5	8,4	10,1	9,7	1	1	1	1	1	1	1	1	1	0	1	-16,27907	275,412005	309,943894	0
15.01.2021	14:56:10	0	53,211782	2,278711	2,019	308,8692	1,052	85,117	0	1015,42	8,4	10,1	9,7	1	1	1	1	1	1	1	1	1	0	1	-13,460183	275,364152	312,536113	0
15.01.2021	14:56:11	0	53,444727	2,734438	2,172	297,4968	1,052	85,113	0	1015,48	8,4	10	9,8	1	1	1	1	1	1	1	1	1	0	1	-12,614517	275,368932	313,404415	0
15.01.2021	14:56:12	0	53,561728	5,24101	2,304	309,186	1,048	85,107	0	1015,28	8,4	10,1	9,8	1	1	1	1	1	1	1	1	1	0	1	-15,433404	275,504857	311,229712	0
15.01.2021	14:56:13	0	53,678354	4,329532	2,3115	322,974	1,048	85,112	0	1015,46	8,4	10,1	9,8	1	1	1	1	1	1	1	1	1	0	1	-12,896406	275,524124	313,858095	0
15.01.2021	14:56:14	0	53,444904	2,962313	2,3145	298,674	1,053	85,121	0	1015,44	8,4	10,1	9,8	1	1	1	1	1	1	1	1	1	0	1	-16,983791	275,474391	309,534856	0
15.01.2021	14:56:15	0	53,678222	3,076269	2,2935	306,8964	1,053	85,117	0	1015,38	8,4	10,1	9,7	1	1	1	1	1	1	1	1	1	0	1	-13,03735	275,348227	312,88354	0
15.01.2021	14:56:16	0	53,911161	4,101669	2,28375	303,912	1,053	85,119	0	1015,46	8,5	10	9,8	1	1	1	1	1	1	1	1	1	0	1	-15,64482	275,477596	310,889021	0
15.01.2021	14:56:17	0	53,794781	3,759866	2,22675	308,0484	1,046	85,116	0	1015,38	8,4	10,1	9,8	1	1	1	1	1	1	1	1	1	0	1	-14,305849	275,511277	312,387716	0
15.01.2021	14:56:18	0	53,794715	4,557416	2,33475	304,6464	1,055	85,109	0	1015,4	8,4	10,1	9,8	1	1	1	1	1	1	1	1	1	0	1	-13,601128	275,484007	312,963112	0
15.01.2021	14:56:19	0	53,910962	5,01316	2,39925	312,1632	1,055	85,117	0	1015,34	8,5	10	9,8	1	1	1	1	1	1	1	1	1	0	1	-18,675123	275,536979	308,140362	0
15.01.2021	14:56:20	0	53,5612	3,30413	2,41125	304,5924	1,054	85,121	0	1015,36	8,4	10,1	9,8	1	1	1	1	1	1	1	1	1	0	1	-16,701903	275,464781	309,77118	0
15.01.2021	14:56:21	0	53,561134	2,620519	2,33625	303,9768	1,053	85,118	0	1015,38	8,4	10,1	9,8	1	1	1	1	1	1	1	1	1	0	1	-13,107822	275,362559	312,88093	0
15.01.2021	14:56:22	0	53,911141	4,899263	2,2035	311,76	1,047	85,128	0	1015,44	8,4	10,1	9,7	1	1	1	1	1	1	1	1	1	0	1	-13,953488	275,445573	312,428546	0
15.01.2021	14:56:23	0	53,444312	4,329558	2,11125	299,7972	1,057	85,135	0	1015,36	8,4	10,1	9,8	1	1	1	1	1	1	1	1	1	0	1	-14,728682	275,514488	311,980112	0
15.01.2021	14:56:24	0	53,677627	3,987753	2,11575	304,6356	1,057	85,133	0	1015,32	8,4	10,1	9,8	1	1	1	1	1	1	1	1	1	0	1	-14,305849	275,477596	312,227992	0
15.01.2021	14:56:25	0	53,2108	3,987755	2,0475	300,8124	1,057	85,133	0	1015,54	8,4	10,1	9,8	1	1	1	1	1	1	1	1	1	0	1	-12,473573	275,536979	314,341912	0
15.01.2021	14:56:26	0	53,794185	4,785309	1,98525	308,4624	1,049	85,128	0	1015,36	8,5	10,1	9,8	1	1	1	1	1	1	1	1	1	0	1	-12,614517	275,373713	313,427058	0
15.01.2021	14:56:27	0	53,560739	2,620544	2,0235	301,6044	1,056	85,124	0	1015,42	8,5	10,1	9,7	1	1	1	1	1	1	1	1	1	0	1	-12,966878	275,373713	313,074698	0
15.01.2021	14:56:28	0	53,560673	3,987762	2,17125	305,3916	1,052	85,117	0	1015,46	8,4	10,1	9,8	1	1	1	1	1	1	1	1	1	0	1	-13,530655	275,477596	313,003186	0
15.01.2021	14:56:29	0	53,793609	4,101726	2,118	297,5616	1,051	85,134	0	1015,34	8,4	10	9,7	1	1	1	1	1	1	1	1	1	0	1	-14,023961	275,373713	312,017615	0
15.01.2021	14:56:30	0	53,910609	4,785321	2,14425	298,3464	1,05	85,137	0	1015,52	8,4	10,1	9,8	1	1	1	1	1	1	1	1	1	0	1	-12,684989	275,386469	313,417001	0
15.01.2021	14:56:31	0	53,093717	2,962361	2,163	300,8628	1,048	85,145	0	1015,42	8,5	10,1	9,7	1	1	1	1	1	1	1	1	1	0	1	-13,883016	275,364152	312,11328	0
15.01.2021	14:56:32	0	53,443719	3,0763	2,21775	298,2924	1,051	85,145	0	1015,38	8,4	10,1	9,7	1	1	1	1	1	1	1	1	1	0	1	-9,725159	275,541801	317,113209	0
15.01.2021	14:56:33	0	53,560342	3,532029	2,2995	298,7316	1,053	85,139	0	1015,48	8,4	10,1	9,8	1	1	1	1	1	1	1	1	1	0	1	-15,151515	275,435976	311,185037	0
15.01.2021	14:56:34	0	52,97646	2,734475	2,2995	295,1604	1,057	85,134	0	1015,42	8,5	10	9,8	1	1	1	1	1	1	1	1	1	0	1	-12,121212	275,541801	314,717155	0
15.01.2021	14:56:35	0	53,676899	4,329589	2,2935	299,8512	1,051	85,117	0	1015,38	8,4	10,1	9,8	1	1	1	1	1	1	1	1	1	0	1	-13,178295	275,448773	313,218907	0
15.01.2021	14:56:36	0	53,560144	3,759908	2,2515	308,0808	1,054	85,124	0	1015,4	8,4	10,1	9,8	1	1	1	1	1	1	1	1	1	0	1	-11,205074	275,353003	314,738431	0
15.01.2021	14:56:37	0	53,44339	2,73448	2,244	301,5324	1,055	85,119	0	1015,52	8,4	10,1	9,8	1	1	1	1	1	1	1	1	1	0	1	-16,420014	275,437575	309,924116	0
15.01.2021	14:56:38	0	53,443324	3,418102	2,2785	301,9464	1,053	85,096	0	1015,46	8,5	10,1	9,8	1	1	1	1	1	1	1	1	1	0	1	-16,560958	275,503253	310,094547	0
15.01.2021	14:56:39	0	53,676634	3,418125	2,27775	297,5328	1,049	85,1	0	1015,32	8,4	10,1	9,7	1	1	1	1	1	1	1	1	1	0	1	-12,755462	275,535371	314,052398	0
15.01.2021	14:56:40	0	53,443192	4,329627	2,184	307,6056	1,053	85,09	0	1015,42	8,4	10,1	9,7	1	1	1	1	1	1	1	1	1	0	1	-14,023961	275,506462	312,646767	0
15.01.2021	14:56:41	0	53,559439	2,050865	2,02125	314,4528	1,05	85,062	0	1015,32	8,4	10	9,8	1	1	1	1	1	1	1	1	1	0	1	-14,305849	275,487213	312,273593	0
15.01.2021	14:56:42	0	53,559748	4,899321	2,0235	315,234	1,052	85,065	0	1015,42	8,4	10,1	9,7	1	1	1	1	1	1	1	1	1	0	1	-14,517266	275,503253	312,13824	0
15.01.2021	14:56:43	0	53,209618	4,329635	2,136	315,342	1,053	85,053	0	1015,44	8,5	10,1	9,7	1	1	1	1	1	1	1	1	1	0	1	-13,178295	275,545017	313,675331	0
15.01.2021	14:56:44	0	53,792991	3,645989	2,205	324,7596	1,049	85,048	0	1015,44	8,4	10,1	9,8	1	1	1	1	1	1	1	1	1	0	1	-11,839323	275,467984	314,648944	0
15.01.2021	14:56:45	0	53,209487	3,418117	2,11875	318,852	1,052	85,033	0	1015,52	8,5	10,1	9,8	1	1	1	1	1	1	1	1	1	0	1	-11,909796	275,541801	314,928572	0
15.01.2021	14:56:46	0	53,559483	4,557519	1,992	321,8796	1,047	85,032	0	1015,44	8,4	10,1	9,7	1	1	1	1	1	1	1	1	1	0	1	-11,698379	275,364152	314,297917	0
15.01.2021	14:56:47	0	53,559417	2,734496	1,866	325,1736	1,046	85,015	0	1015,4	8,4	10,1	9,8	1	1	1	1	1	1	1	1	1	0	1	-16,560958	275,524124	310,193542	0
15.01.2021	14:56:48	0	53,676038	4,671462	1,95225	316,3032	1,048	84,998	0	1015,34	8,4	10,1	9,7	1	1	1	1	1	1	1	1	1	0	1	-15,081043	275,418395	311,172194	0
15.01.2021	14:56:49	0	53,675972	5,01328	2,04	303,5196	1,047	85,006	0	1015,36	8,4	10,1	9,7	1	1	1	1	1	1	1	1	1	0	1	-14,094433	275,501648	312,553463	0
15.01.2021	14:56:50	0	53,325845	4,67144	2,00775	304,7436	1,052	84,996	0	1015,46	8,5	10,1	9,8	1	1	1	1	1	1	1	1	1	0	1	-14,235377	275,493628	312,374482	0
15.01.2021	14:56:51	0	52,97572	5,3551	2,0085	289,2348	1,046	84,976	0	1015,4	8,5	10,1	9,7	1	1	1	1	1	1	1	1	1	0	1	-13,6716	275,5177	313,052427	0
15.01.2021	14:56:52	0	53,675397	4,215695	1,9695	294,3432	1,051	84,987	0	1015,34	8,5	10	9,8	1	1	1	1	1	1	1	1	1	0	1	-14,023961	275,477596	312,509881	0
15.01.2021	14:56:53	0	53,325648	2,848444	1,90125	290,1492	1,047	84,983	0	1015,46	8,4	10,1	9,8	1	1	1	1	1	1	1	1	1	0	1	-20,084567	275,365745	305,919274	0
15.01.2021	14:56:54	0	53,325582	3,532094	1,8855	303,9192	1,051	84,969	0	1015,42	8,4	10,1	9,7	1	1	1	1	1	1	1	1	1	0	1	-11,275546	275,482404	315,281092	0
15.01.2021	14:56:55	0	53,442202	2,734526	1,8555	311,4324	1,051	84,965	0	1015,34	8,4	10,1	9,7	1	1	1	1	1	1	1	1	1	0	1	-15,64482	275,365745	310,359021	0
15.01.2021	14:56:56	0	53,208764	3,532077	1,73925	309,5784	1,046	84,975	0	1015,5	8,5	10,1	9,8	1	1	1	1	1	1	1	1	1	0	1	-14,446794	275,466382	312,033881	0
15.01.2021	14:56:57	0	53,44207	2,962407	1,6245	310,2372	1,055	84,972	0	1015,4	8,4	10,1	9,7	1	1	1	1	1	1	1	1	1	0	1	-13,883016	275,378496	312,181209	0
15.01.2021	14:56:58	0	53,325318	2,620576	1,65525	306,504	1,044	84,957	0	1015,4	8,4	10,1	9,8	1	1	1	1	1	1	1	1	1	0	1	-13,03735	275,49042	313,557299	0
15.01.2021	14:56:59	0	53,208567	4,329676	1,62225	310,2984	1,049	84,961	0	1015,52	8,4	10,1	9,7	1	1	1	1	1	1	1	1	1	0	1	-15,64482	275,496835	310,980251	0
15.01.2021	14:57:00	0	53,32512	2,392704	1,59075	295,5024	1,048	84,954	0	1015,4	8,5	10,1	9,8	1	1	1	1	1	1	1	1	1	0	1	-12,755462	275,364152	313,240835	0
15.01.2021	14:57:01	0	53,32512	2,392704	1,59075	295,5024	1,048	84,954	0	1015,4	8,5	10,1	9,8	1	1	1	1	1	1	1	1	1	0	1	-13,953488	275,410408	312,261909	0
15.01.2021	14:57:02	0	53,325054	2,620582	1,59075	312,8472	1,048	84,95	0	1015,44	8,4	10,1	9,8	1	1	1	1	1	1	1	1	1	0	1	-14,094433	275,346636	311,818922	0
15.01.2021	14:57:03	0	53,208304	2,506646	1,545	306,8244	1,045	84,938	0	1015,42	8,4	10,1	9,8	1	1	1	1	1	1	1	1	1	0	1	-15,433404	275,49042	311,161245	0
15.01.2021	14:57:04	0	53,324922	3,873909	1,497	316,5804	1,048	84,94	0	1015,44	8,5	10,1	9,8	1	1	1	1	1	1	1	1	1	0	1	-14,799154	275,370526	311,227325	0
15.01.2021	14:57:05	0	53,55785	4,557543	1,44	318,3696	1,051	84,938	0	1015,44	8,4	10	9,8	1	1	1	1	1	1	1	1	1	0	1	-12,05074	275,493628	314,559119	0
15.01.2021	14:57:06	0	53,208106	3,418159	1,44825	307,1988	1,045	84,919	0	1015,4	8,4	10,1	9,8	1	1	1	1	1	1	1	1	1	0	1	-13,107822	275,402425	313,069754	0
15.01.2021	14:57:07	0	53,324725	2,734529	1,518	307,1952	1,044	84,912	0	1015,5	8,4	10,1	9,8	1	1	1	1	1	1	1	1	1	0	1	-12,121212	275,519305	314,610432	0
15.01.2021	14:57:08	0	53,324659	3,418184	1,7475	308,8728	1,046	84,904	0	1015,34	8,4	10,1	9,7	1	1	1	1	1	1	1	1	1	0	1	-10,782241	275,394446	315,357533	0
15.01.2021	14:57:09	0	53,324593	3,190288	1,8825	304,2792	1,046	84,926	0	1015,48	8,4	10,1	9,8	1	1	1	1	1	1	1	1	1	0	1	-15,64482	275,540194	311,185919	0
15.01.2021	14:57:10	0	53,324527	4,215765	2,058	297,5436	1,039	84,893	0	1015,36	8,4	10,1	9,7	1	1	1	1	1	1	1	1	1	0	1	-12,403101	275,495231	314,214364	0
15.01.2021	14:57:11	0	52,974409	3,532108	2,05725	292,2012	1,044	84,892	0	1015,36	8,4	10,1	9,8	1	1	1	1	1	1	1	1	1	0	1	-15,503876	275,516094	311,212534	0
15.01.2021	14:57:12	0	52,85766	2,962415	2,109	290,052	1,04	84,9	0	1015,42	8,4	10,1	9,8	1	1	1	1	1	1	1	1	1	0	1	-18,393235	275,362559	307,595518	0
15.01.2021	14:57:13	0	52,973907	2,962417	2,07225	296,8236	1,04	84,896	0	1015,4	8,4	10	9,8	1	1	1	1	1	1	1	1	1	0	1	-13,6716	275,469585	312,824262	0
15.01.2021	14:57:14	0	53,440946	4,785446	2,0505	289,512	1,045	84,882	0	1015,4	8,5	10,1	9,8	1	1	1	1	1	1	1	1	1	0	1	-13,178295	275,345044	312,727524	0
15.01.2021	14:57:15	0	53,557563	5,013357	1,97625	289,1952	1,042	84,85	0	1015,42	8,4	10,1	9,7	1	1	1	1	1	1	1	1	1	0	1	-10,007047	275,482404	316,549591	0
15.01.2021	14:57:16	0	53,207447	4,101815	1,908	289,512	1,044	84,869	0	1015,5	8,4	10,1	9,8	1	1	1	1	1	1	1	1	1	0	1	-16,913319	275,512883	309,78786	0
15.01.2021	14:57:17	0	53,440747	4,443663	1,8795	291,852	1,041	84,869	0	1015,4	8,4	10,1	9,7	1	1	1	1	1	1	1	1	1	0	1	-16,631431	275,39285	309,500785	0
15.01.2021	14:57:18	0	52,97395	2,734563	1,893	296,3592	1,041	84,878	0	1015,46	8,4	10,1	9,7	1	1	1	1	1	1	1	1	1	0	1	-16,913319	275,475994	309,612925	0
15.01.2021	14:57:19	0	53,20725	4,557581	1,878	294,4548	1,043	84,865	0	1015,32	8,4	10,1	9,8	1	1	1	1	1	1	1	1	1	0	1	-14,587738	275,53055	312,197249	0
15.01.2021	14:57:20	0	53,323866	4,671523	1,86	295,0884	1,039	84,853	0	1015,38	8,5	10,1	9,8	1	1	1	1	1	1	1	1	1	0	1	-15,221987	275,458376	311,220734	0
15.01.2021	14:57:21	0	52,973753	2,734568	1,7745	300,1284	1,033	84,845	0	1015,3	8,4	10,1	9,7	1	1	1	1	1	1	1	1	1	0	1	-15,64482	275,341861	310,245929	0
15.01.2021	14:57:22	0	52,973688	2,506674	1,74825	296,856	1,039	84,848	0	1015,46	8,4	10,1	9,8	1	1	1	1	1	1	1	1	1	0	1	-16,560958	275,373713	309,480617	0
15.01.2021	14:57:23	0	53,089932	3,987893	1,80225	302,004	1,041	84,863	0	1015,42	8,4	10	9,8	1	1	1	1	1	1	1	1	1	0	1	-15,362932	275,388064	310,746614	0
15.01.2021	14:57:24	0	52,740193	2,962436	1,8315	305,0676	1,04	84,829	0	1015,24	8,4	10,1	9,8	1	1	1	1	1	1	1	1	1	0	1	-17,195208	275,524124	309,559293	0
15.01.2021	14:57:25	0	53,090172	4,215803	1,84425	302,4468	1,038	84,847	0	1015,38	8,4	10,1	9,7	1	1	1	1	1	1	1	1	1	0	1	-16,701903	275,399233	309,46055	0
15.01.2021	14:57:26	0	53,090107	2,8485	1,8135	299,8512	1,042	84,849	0	1015,46	8,4	10,1	9,8	1	1	1	1	1	1	1	1	1	0	1	-13,03735	275,333906	312,815739	0
15.01.2021	14:57:27	0	53,323404	2,848519	1,806	296,4744	1,035	84,847	0	1015,48	8,4	10,1	9,7	1	1	1	1	1	1	1	1	1	0	1	-16,913319	275,471187	309,590137	0
15.01.2021	14:57:28	0	53,440019	4,899426	1,8735	308,4516	1,038	84,858	0	1015,48	8,4	10,1	9,8	1	1	1	1	1	1	1	1	1	0	1	-12,825934	275,375307	313,223191	0
15.01.2021	14:57:29	0	52,973228	3,760049	1,9455	311,7168	1,032	84,848	0	1015,44	8,4	10,1	9,7	1	1	1	1	1	1	1	1	1	0	1	-18,816068	275,475994	307,710176	0
15.01.2021	14:57:30	0	52,856481	4,101874	2,04225	303,2136	1,035	84,866	0	1015,44	8,4	10,1	9,7	1	1	1	1	1	1	1	1	1	0	1	-15,292459	275,533764	311,507775	0
15.01.2021	14:57:31	0	53,206458	3,53215	2,05125	302,8536	1,032	84,855	0	1015,46	8,4	10,1	9,8	1	1	1	1	1	1	1	1	1	0	1	-11,980268	275,419992	314,28054	0
15.01.2021	14:57:32	0	52,85635	4,557616	2,0055	314,0604	1,037	84,861	0	1015,5	8,4	10,1	9,8	1	1	1	1	1	1	1	1	1	0	1	-10,923185	275,533764	315,877049	0
15.01.2021	14:57:33	0	52,972965	3,076393	1,9185	321,174	1,037	84,87	0	1015,42	8,4	10,1	9,8	1	1	1	1	1	1	1	1	1	0	1	-11,768851	275,413603	314,46168	0
15.01.2021	14:57:34	0	52,972899	3,760038	1,84125	307,2132	1,036	84,864	0	1015,4	8,4	10,1	9,8	1	1	1	1	1	1	1	1	1	0	1	-14,799154	275,514488	311,90964	0
15.01.2021	14:57:35	0	52,972834	3,532159	1,713	319,1832	1,043	84,874	0	1015,38	8,4	10,1	9,8	1	1	1	1	1	1	1	1	1	0	1	-12,403101	275,381685	313,676228	0
15.01.2021	14:57:36	0	52,856088	2,848534	1,623	311,8068	1,034	84,872	0	1015,42	8,4	10,1	9,7	1	1	1	1	1	1	1	1	1	0	1	-16,138125	275,381685	309,941204	0
15.01.2021	14:57:37	0	52,739342	3,418222	1,4625	290,7288	1,039	84,879	0	1015,38	8,4	10,1	9,8	1	1	1	1	1	1	1	1	1	0	1	-14,65821	275,524124	312,096291	0
15.01.2021	14:57:38	0	53,205996	4,899455	1,347	288,5184	1,038	84,867	0	1015,38	8,4	10,1	9,8	1	1	1	1	1	1	1	1	1	0	1	-11,346018	275,412005	314,876946	0
15.01.2021	14:57:39	0	52,9722	4,557663	1,3215	320,8032	1,04	84,891	0	1015,38	8,4	10	9,7	1	1	1	1	1	1	1	1	1	0	1	-13,953488	275,500044	312,686798	0
15.01.2021	14:57:40	0	52,855825	4,215815	1,3515	312,2208	1,034	84,888	0	1015,38	8,4	10,1	9,8	1	1	1	1	1	1	1	1	1	0	1	-13,03735	275,509672	313,648602	0
15.01.2021	14:57:41	0	52,972439	4,899464	1,45575	311,7852	1,033	84,892	0	1015,42	8,4	10,1	9,8	1	1	1	1	1	1	1	1	1	0	1	-18,604651	275,400829	307,565363	0
15.01.2021	14:57:42	0	52,855694	3,19035	1,4865	309,564	1,04	84,893	0	1015,36	8,4	10,1	9,8	1	1	1	1	1	1	1	1	1	0	1	-13,107822	275,541801	313,730545	0
15.01.2021	14:57:43	0	53,205666	4,443705	1,5015	303,5844	1,039	84,894	0	1015,38	8,4	10,1	9,8	1	1	1	1	1	1	1	1	1	0	1	-12,614517	275,475994	313,911727	0
15.01.2021	14:57:44	0	52,738884	3,532199	1,57425	306,8424	1,037	84,897	0	1015,54	8,4	10,1	9,7	1	1	1	1	1	1	1	1	1	0	1	-12,614517	275,527337	314,155225	0
15.01.2021	14:57:45	0	53,205534	4,44371	1,6635	303,876	1,031	84,89	0	1015,34	8,4	10,1	9,8	1	1	1	1	1	1	1	1	1	0	1	-12,544045	275,37212	313,489982	0
15.01.2021	14:57:46	0	53,205468	4,44374	1,69725	313,218	1,036	84,896	0	1015,46	8,4	10,1	9,7	1	1	1	1	1	1	1	1	1	0	1	-11,205074	275,445573	315,176961	0
15.01.2021	14:57:47	0	52,972044	3,760067	1,755	314,0784	1,039	84,911	0	1015,48	8,4	10,1	9,8	1	1	1	1	1	1	1	1	1	0	1	-12,403101	275,362559	313,585652	0
15.01.2021	14:57:48	0	52,621943	3,304303	1,7445	326,8656	1,032	84,9	0	1015,42	8,5	10,1	9,8	1	1	1	1	1	1	1	1	1	0	1	-13,107822	275,504857	313,555293	0
15.01.2021	14:57:49	0	52,855235	2,620656	1,7265	308,106	1,036	84,913	0	1015,4	8,4	10,1	9,8	1	1	1	1	1	1	1	1	1	0	1	-12,896406	275,37212	313,137621	0
15.01.2021	14:57:50	0	52,738491	2,392789	1,65	315,9324	1,036	84,918	0	1015,32	8,4	10,1	9,7	1	1	1	1	1	1	1	1	1	0	1	-12,896406	275,535371	313,911454	0
15.01.2021	14:57:51	0	52,855103	4,329784	1,51125	327,4632	1,037	84,914	0	1015,42	8,4	10,1	9,8	1	1	1	1	1	1	1	1	1	0	1	-14,517266	275,402425	311,66031	0
15.01.2021	14:57:52	0	53,088393	2,848544	1,3965	321,138	1,034	84,927	0	1015,34	8,4	10,1	9,8	1	1	1	1	1	1	1	1	1	0	1	-14,869626	275,527337	311,900116	0
15.01.2021	14:57:53	0	53,088327	4,329816	1,368	315,5436	1,036	84,932	0	1015,42	8,4	10,1	9,7	1	1	1	1	1	1	1	1	1	0	1	-13,107822	275,432778	313,213575	0
15.01.2021	14:57:54	0	52,621551	2,734622	1,43325	308,1276	1,038	84,942	0	1015,26	8,4	10,1	9,7	1	1	1	1	1	1	1	1	1	0	1	-16,560958	275,402425	309,616618	0
15.01.2021	14:57:55	0	52,971518	2,734624	1,55325	309,0528	1,036	84,946	0	1015,38	8,4	10,1	9,7	1	1	1	1	1	1	1	1	1	0	1	-10,570825	275,49844	316,061854	0
15.01.2021	14:57:56	0	52,62142	3,987971	1,66425	315,1836	1,038	84,948	0	1015,56	8,4	10,1	9,8	1	1	1	1	1	1	1	1	1	0	1	-10,359408	275,495231	316,258056	0
15.01.2021	14:57:57	0	52,621355	4,215883	1,7085	325,5588	1,031	84,946	0	1015,44	8,4	10,1	9,7	1	1	1	1	1	1	1	1	1	0	1	-14,235377	275,528943	312,541987	0
15.01.2021	14:57:58	0	52,97132	2,962514	1,69575	305,6652	1,04	84,96	0	1015,5	8,4	10,1	9,7	1	1	1	1	1	1	1	1	1	0	1	-11,06413	275,418395	315,189108	0
15.01.2021	14:57:59	0	52,504547	4,329831	1,6395	310,7232	1,043	84,962	0	1015,42	8,4	10,1	9,7	1	1	1	1	1	1	1	1	1	0	1	-14,940099	275,527337	311,829644	0
15.01.2021	14:58:00	0	53,204475	4,215868	1,62075	309,816	1,033	84,967	0	1015,5	8,4	10,1	9,8	1	1	1	1	1	1	1	1	1	0	1	-16,631431	275,528943	310,145934	0
15.01.2021	14:58:01	0	53,204475	4,215868	1,62075	309,816	1,033	84,967	0	1015,5	8,4	10,1	9,8	1	1	1	1	1	1	1	1	1	0	1	-16,631431	275,528943	310,145934	0
15.01.2021	14:58:02	0	52,85438	4,443782	1,7085	310,6152	1,034	84,974	0	1015,4	8,4	10,1	9,7	1	1	1	1	1	1	1	1	1	0	1	-12,825934	275,397637	313,328959	0
15.01.2021	14:58:03	0	52,970991	4,443758	1,73775	310,266	1,035	84,981	0	1015,34	8,4	10,1	9,8	1	1	1	1	1	1	1	1	1	0	1	-15,785765	275,451973	310,626607	0
15.01.2021	14:58:04	0	52,737572	4,785617	1,7445	315,5508	1,036	84,992	0	1015,38	8,4	10,1	9,7	1	1	1	1	1	1	1	1	1	0	1	-17,26568	275,528943	309,511684	0
15.01.2021	14:58:05	0	52,970859	3,76013	1,67925	307,1952	1,037	85	0	1015,38	8,4	10,1	9,7	1	1	1	1	1	1	1	1	1	0	1	-15,715292	275,475994	310,810951	0
15.01.2021	14:58:06	0	52,737441	4,329823	1,6755	310,6332	1,04	85,003	0	1015,46	8,4	10,1	9,8	1	1	1	1	1	1	1	1	1	0	1	-13,530655	275,538586	313,292456	0
15.01.2021	14:58:07	0	52,854051	5,469287	1,63425	311,7348	1,035	85,006	0	1015,5	8,4	10,1	9,7	1	1	1	1	1	1	1	1	1	0	1	-14,305849	275,501648	312,342046	0
15.01.2021	14:58:08	0	52,853985	2,848588	1,602	315,8676	1,039	85,004	0	1015,46	8,4	10,1	9,7	1	1	1	1	1	1	1	1	1	0	1	-14,446794	275,37212	311,587234	0
15.01.2021	14:58:09	0	52,85392	2,962534	1,66425	307,0908	1,039	85,023	0	1015,52	8,4	10,1	9,7	1	1	1	1	1	1	1	1	1	0	1	-14,940099	275,453574	311,479859	0
15.01.2021	14:58:10	0	52,503828	4,443777	1,70175	317,142	1,04	85,014	0	1015,42	8,4	10,1	9,8	1	1	1	1	1	1	1	1	1	0	1	-13,742072	275,346636	312,171282	0
15.01.2021	14:58:11	0	52,387088	3,874064	1,67925	310,9968	1,041	85,012	0	1015,5	8,4	10,1	9,8	1	1	1	1	1	1	1	1	1	0	1	-17,970402	275,524124	308,784099	0
15.01.2021	14:58:12	0	52,970397	4,557752	1,656	316,6128	1,04	85,026	0	1015,32	8,4	10,1	9,7	1	1	1	1	1	1	1	1	1	0	1	-15,503876	275,471187	310,99958	0
15.01.2021	14:58:13	0	52,386957	2,962523	1,57125	312,444	1,037	85,029	0	1015,44	8,4	10,1	9,8	1	1	1	1	1	1	1	1	1	0	1	-13,601128	275,354596	312,349916	0
15.01.2021	14:58:14	0	53,08694	5,013504	1,46475	314,7732	1,044	85,041	0	1015,36	8,4	10,1	9,8	1	1	1	1	1	1	1	1	1	0	1	-15,081043	275,475994	311,445201	0
15.01.2021	14:58:15	0	52,853525	2,27888	1,4085	317,6316	1,033	85,039	0	1015,58	8,4	10,1	9,7	1	1	1	1	1	1	1	1	1	0	1	-13,319239	275,38009	312,752538	0
15.01.2021	14:58:16	0	52,853459	4,899596	1,365	321,0228	1,041	85,036	0	1015,26	8,4	10,1	9,7	1	1	1	1	1	1	1	1	1	0	1	-17,054264	275,477596	309,479578	0
15.01.2021	14:58:17	0	52,386696	2,848604	1,36875	320,0508	1,035	85,038	0	1015,38	8,4	10,1	9,7	1	1	1	1	1	1	1	1	1	0	1	-16,772375	275,341861	309,118375	0
15.01.2021	14:58:18	0	52,736653	2,962532	1,35375	321,3972	1,043	85,04	0	1015,64	8,4	10,1	9,8	1	1	1	1	1	1	1	1	1	0	1	-13,03735	275,451973	313,375022	0
15.01.2021	14:58:19	0	52,969935	4,785631	1,40925	325,116	1,037	85,038	0	1015,34	8,4	10,1	9,8	1	1	1	1	1	1	1	1	1	0	1	-11,980268	275,493628	314,629591	0
15.01.2021	14:58:20	0	52,853195	3,874085	1,40325	325,5048	1,042	85,05	0	1015,46	8,4	10,1	9,8	1	1	1	1	1	1	1	1	1	0	1	-16,067653	275,520911	310,671609	0
15.01.2021	14:58:21	0	52,969803	4,329888	1,371	319,5828	1,046	85,062	0	1015,28	8,4	10,1	9,7	1	1	1	1	1	1	1	1	1	0	1	-13,107822	275,407215	313,092444	0
15.01.2021	14:58:22	0	52,38637	3,988033	1,335	327,1356	1,042	85,057	0	1015,48	8,4	10,1	9,8	1	1	1	1	1	1	1	1	1	0	1	-20,85976	275,532157	305,93285	0
15.01.2021	14:58:23	0	52,619651	4,102004	1,28175	321,7896	1,041	85,061	0	1015,64	8,4	10,1	9,7	1	1	1	1	1	1	1	1	1	0	1	-14,869626	275,471187	311,633829	0
15.01.2021	14:58:24	0	52,03622	3,076505	1,2375	321,0876	1,043	85,069	0	1015,44	8,4	10,1	9,7	1	1	1	1	1	1	1	1	1	0	1	-14,376321	275,386469	311,725669	0
15.01.2021	14:58:25	0	52,502847	4,215954	1,2345	318,3624	1,044	85,063	0	1015,52	8,4	10,1	9,7	1	1	1	1	1	1	1	1	1	0	1	-13,883016	275,533764	312,917218	0
15.01.2021	14:58:26	0	52,502781	4,329901	1,29675	308,52	1,044	85,064	0	1015,5	8,4	10,1	9,7	1	1	1	1	1	1	1	1	1	0	1	-16,27907	275,520911	310,460193	0
15.01.2021	14:58:27	0	52,736061	2,620731	1,3575	318,4488	1,043	85,071	0	1015,3	8,4	10,1	9,7	1	1	1	1	1	1	1	1	1	0	1	-10,42988	275,419992	315,830927	0
15.01.2021	14:58:28	0	52,385978	2,962567	1,31025	332,4492	1,041	85,054	0	1015,44	8,4	10,1	9,7	1	1	1	1	1	1	1	1	1	0	1	-11,275546	275,34027	314,60767	0
15.01.2021	14:58:29	0	52,73593	3,760184	1,257	314,0676	1,045	85,071	0	1015,44	8,4	10,1	9,7	1	1	1	1	1	1	1	1	1	0	1	-15,856237	275,493628	310,753622	0
15.01.2021	14:58:30	0	52,852536	4,671719	1,3275	303,0912	1,049	85,067	0	1015,54	8,5	10,1	9,8	1	1	1	1	1	1	1	1	1	0	1	-17,406624	275,501648	309,241271	0
15.01.2021	14:58:31	0	52,619126	4,215944	1,4325	311,8284	1,038	85,065	0	1015,4	8,4	10,1	9,8	1	1	1	1	1	1	1	1	1	0	1	-13,883016	275,535371	312,924843	0
15.01.2021	14:58:32	0	52,152372	2,506794	1,51125	321,1452	1,048	85,065	0	1015,42	8,4	10,1	9,7	1	1	1	1	1	1	1	1	1	0	1	-16,631431	275,362559	309,357322	0
15.01.2021	14:58:33	0	52,735666	3,646248	1,60125	315,1512	1,041	85,069	0	1015,54	8,4	10,1	9,7	1	1	1	1	1	1	1	1	1	0	1	-14,023961	275,439175	312,327749	0
15.01.2021	14:58:34	0	52,385585	4,785703	1,66425	317,7576	1,042	85,059	0	1015,5	8,4	10,1	9,7	1	1	1	1	1	1	1	1	1	0	1	-13,6716	275,520911	313,067663	0
15.01.2021	14:58:35	0	52,735535	3,874143	1,69275	302,3568	1,04	85,068	0	1015,5	8,4	10,1	9,7	1	1	1	1	1	1	1	1	1	0	1	-11,627907	275,434377	314,701067	0
15.01.2021	14:58:36	0	52,502126	4,78568	1,686	300,1788	1,045	85,078	0	1015,48	8,4	10,1	9,8	1	1	1	1	1	1	1	1	1	0	1	-15,503876	275,343452	310,394408	0
15.01.2021	14:58:37	0	52,735403	3,760202	1,71	305,424	1,043	85,069	0	1015,52	8,4	10,1	9,7	1	1	1	1	1	1	1	1	1	0	1	-14,799154	275,443973	311,575298	0
15.01.2021	14:58:38	0	52,385324	4,443878	1,791	311,7888	1,048	85,075	0	1015,4	8,4	10,1	9,7	1	1	1	1	1	1	1	1	1	0	1	-13,319239	275,554668	313,58018	0
15.01.2021	14:58:39	0	52,385258	4,329935	1,8015	318,2112	1,047	85,069	0	1015,46	8,4	10,1	9,7	1	1	1	1	1	1	1	1	1	0	1	-16,208598	275,375307	309,840527	0
15.01.2021	14:58:40	0	52,385193	2,848643	1,77	316,6632	1,047	85,091	0	1015,4	8,4	10,1	9,7	1	1	1	1	1	1	1	1	1	0	1	-16,701903	275,368932	309,31703	0
15.01.2021	14:58:41	0	52,385127	4,671777	1,77825	318,0672	1,045	85,089	0	1015,4	8,4	10,1	9,7	1	1	1	1	1	1	1	1	1	0	1	-12,473573	275,359373	313,500094	0
15.01.2021	14:58:42	0	52,385062	3,874159	1,74525	321,0516	1,052	85,103	0	1015,48	8,4	10,1	9,7	1	1	1	1	1	1	1	1	1	0	1	-14,65821	275,471187	311,845246	0
15.01.2021	14:58:43	0	52,384997	4,557837	1,734	307,206	1,049	85,085	0	1015,42	8,5	10,1	9,7	1	1	1	1	1	1	1	1	1	0	1	-12,121212	275,538586	314,7019	0
15.01.2021	14:58:44	0	52,151591	3,190488	1,71975	315,2196	1,048	85,107	0	1015,36	8,4	10,1	9,7	1	1	1	1	1	1	1	1	1	0	1	-10,500352	275,482404	316,056286	0
15.01.2021	14:58:45	0	52,268196	2,962598	1,71675	311,3748	1,044	85,103	0	1015,38	8,4	10,1	9,7	1	1	1	1	1	1	1	1	1	0	1	-13,460183	275,512883	313,240996	0
15.01.2021	14:58:46	0	52,3848	3,988115	1,73625	308,052	1,043	85,108	0	1015,4	8,5	10,1	9,7	1	1	1	1	1	1	1	1	1	0	1	-12,755462	275,484007	313,808778	0
15.01.2021	14:58:47	0	52,501404	3,874148	1,7745	309,1932	1,051	85,109	0	1015,48	8,4	10,1	9,8	1	1	1	1	1	1	1	1	1	0	1	-13,883016	275,397637	312,271876	0
15.01.2021	14:58:48	0	52,618008	4,785743	1,7475	311,4	1,044	85,124	0	1015,4	8,4	10,1	9,7	1	1	1	1	1	1	1	1	1	0	1	-16,842847	275,34027	309,040369	0
15.01.2021	14:58:49	0	52,501273	2,848658	1,66125	324,4752	1,046	85,119	0	1015,52	8,4	10,1	9,7	1	1	1	1	1	1	1	1	1	0	1	-10,359408	275,357781	315,606717	0
15.01.2021	14:58:50	0	52,501208	2,848643	1,54725	302,04	1,05	85,12	0	1015,48	8,4	10,1	9,8	1	1	1	1	1	1	1	1	1	0	1	-13,248767	275,389659	312,868335	0
15.01.2021	14:58:51	0	52,384473	2,848645	1,43475	302,9148	1,053	85,132	0	1015,54	8,4	10,1	9,8	1	1	1	1	1	1	1	1	1	0	1	-15,081043	275,365745	310,922798	0
15.01.2021	14:58:52	0	52,501076	3,760236	1,371	306,0936	1,049	85,125	0	1015,4	8,4	10,1	9,7	1	1	1	1	1	1	1	1	1	0	1	-15,926709	275,451973	310,485663	0
15.01.2021	14:58:53	0	51,917666	3,418398	1,30725	298,9548	1,044	85,106	0	1015,42	8,4	10,1	9,7	1	1	1	1	1	1	1	1	1	0	1	-20,577872	275,509672	306,10808	0
15.01.2021	14:58:54	0	52,267607	4,216002	1,332	289,6668	1,05	85,132	0	1015,44	8,4	10,1	9,8	1	1	1	1	1	1	1	1	1	0	1	-12,05074	275,346636	313,862614	0
15.01.2021	14:58:55	0	52,267542	3,076562	1,464	301,2192	1,05	85,145	0	1015,46	8,4	10,1	9,7	1	1	1	1	1	1	1	1	1	0	1	-13,6716	275,437575	312,672531	0
15.01.2021	14:58:56	0	52,150808	4,216032	1,58175	291,4956	1,048	85,131	0	1015,44	8,4	10,1	9,7	1	1	1	1	1	1	1	1	1	0	1	-15,997181	275,519305	310,734463	0
15.01.2021	14:58:57	0	52,034075	3,30446	1,5945	300,4632	1,049	85,134	0	1015,74	8,4	10,1	9,7	1	1	1	1	1	1	1	1	1	0	1	-16,560958	275,451973	309,851413	0
15.01.2021	14:58:58	0	52,61735	3,874196	1,68825	298,6632	1,047	85,131	0	1015,48	8,5	10,1	9,7	1	1	1	1	1	1	1	1	1	0	1	-18,604651	275,53055	308,180336	0
15.01.2021	14:58:59	0	52,617285	4,329987	1,77375	304,704	1,055	85,134	0	1015,56	8,5	10,1	9,7	1	1	1	1	1	1	1	1	1	0	1	-14,446794	275,4152	311,791306	0
15.01.2021	14:59:00	0	52,150482	2,962626	1,79475	317,7612	1,059	85,152	0	1015,32	8,5	10,1	9,7	1	1	1	1	1	1	1	1	1	0	1	-9,936575	275,49844	316,696103	0
15.01.2021	14:59:01	0	52,150482	2,962626	1,79475	317,7612	1,059	85,152	0	1015,32	8,5	10,1	9,7	1	1	1	1	1	1	1	1	1	0	1	-17,618041	275,356188	308,340543	0
15.01.2021	14:59:02	0	52,150417	2,734734	1,71675	314,7084	1,053	85,147	0	1015,5	8,4	10,1	9,7	1	1	1	1	1	1	1	1	1	0	1	-11,980268	275,402425	314,197308	0
15.01.2021	14:59:03	0	52,383686	3,076577	1,7025	300,2292	1,053	85,152	0	1015,46	8,5	10,1	9,7	1	1	1	1	1	1	1	1	1	0	1	-12,262156	275,367339	313,74923	0
15.01.2021	14:59:04	0	52,150286	3,646316	1,70475	307,2204	1,057	85,139	0	1015,38	8,4	10,1	9,7	1	1	1	1	1	1	1	1	1	0	1	-12,896406	275,412005	313,326558	0
15.01.2021	14:59:05	0	52,033553	4,89974	1,695	306,1332	1,053	85,135	0	1015,52	8,4	10,1	9,7	1	1	1	1	1	1	1	1	1	0	1	-19,309373	275,543409	307,536623	0
15.01.2021	14:59:06	0	51,800154	2,848688	1,653	296,7768	1,051	85,122	0	1015,38	8,5	10,1	9,7	1	1	1	1	1	1	1	1	1	0	1	-13,248767	275,375307	312,800358	0
15.01.2021	14:59:07	0	52,266757	3,988141	1,629	294,7608	1,05	85,114	0	1015,32	8,4	10,1	9,8	1	1	1	1	1	1	1	1	1	0	1	-15,081043	275,456775	311,35409	0
15.01.2021	14:59:08	0	52,150025	3,646325	1,67775	302,7924	1,054	85,113	0	1015,38	8,4	10,1	9,7	1	1	1	1	1	1	1	1	1	0	1	-19,309373	275,522518	307,437508	0
15.01.2021	14:59:09	0	52,266626	2,734745	1,6665	291,4092	1,052	85,139	0	1015,38	8,4	10,1	9,7	1	1	1	1	1	1	1	1	1	0	1	-16,138125	275,480801	310,410913	0
15.01.2021	14:59:10	0	52,26656	2,620783	1,67025	299,8692	1,047	85,122	0	1015,4	8,4	10,1	9,8	1	1	1	1	1	1	1	1	1	0	1	-17,195208	275,399233	308,967245	0
15.01.2021	14:59:11	0	51,916132	2,848679	1,69575	310,7232	1,055	85,124	0	1015,52	8,4	10	9,8	1	1	1	1	1	1	1	1	1	0	1	-14,869626	275,351411	311,066339	0
15.01.2021	14:59:12	0	52,383096	4,557917	1,7145	309,9348	1,051	85,129	0	1015,38	8,5	10,1	9,7	1	1	1	1	1	1	1	1	1	0	1	-15,715292	275,49844	310,917386	0
15.01.2021	14:59:13	0	52,149698	3,874231	1,64475	317,7216	1,057	85,131	0	1015,38	8,4	10,1	9,7	1	1	1	1	1	1	1	1	1	0	1	-11,909796	275,351411	314,02617	0
15.01.2021	14:59:14	0	52,266298	2,848701	1,491	309,9888	1,046	85,121	0	1015,32	8,4	10,1	9,7	1	1	1	1	1	1	1	1	1	0	1	-11,839323	275,388064	314,270222	0
15.01.2021	14:59:15	0	52,266233	3,418444	1,452	310,3344	1,044	85,115	0	1015,4	8,4	10,1	9,7	1	1	1	1	1	1	1	1	1	0	1	-14,446794	275,351411	311,489172	0
15.01.2021	14:59:16	0	51,916171	3,76029	1,49175	320,0688	1,051	85,124	0	1015,5	8,4	10,1	9,7	1	1	1	1	1	1	1	1	1	0	1	-11,768851	275,533764	315,031383	0
15.01.2021	14:59:17	0	52,382767	4,671851	1,47225	319,5396	1,049	85,127	0	1015,48	8,5	10,1	9,8	1	1	1	1	1	1	1	1	1	0	1	-11,980268	275,474391	314,538379	0
15.01.2021	14:59:18	0	52,382702	3,532398	1,3845	323,7552	1,051	85,108	0	1015,42	8,4	10,1	9,7	1	1	1	1	1	1	1	1	1	0	1	-17,477097	275,535371	309,330763	0
15.01.2021	14:59:19	0	52,265971	2,734762	1,37025	323,64	1,042	85,122	0	1015,26	8,4	10,1	9,7	1	1	1	1	1	1	1	1	1	0	1	-12,896406	275,443973	313,478047	0
15.01.2021	14:59:20	0	52,499235	4,44399	1,51425	306,0756	1,048	85,101	0	1015,42	8,4	10,1	9,7	1	1	1	1	1	1	1	1	1	0	1	-13,460183	275,511277	313,233382	0
15.01.2021	14:59:21	0	51,79918	2,620801	1,5555	305,4492	1,052	85,12	0	1015,38	8,5	10,1	9,8	1	1	1	1	1	1	1	1	1	0	1	-13,742072	275,368932	312,276861	0
15.01.2021	14:59:22	0	52,265774	3,988201	1,6485	321,8616	1,054	85,123	0	1015,44	8,5	10,1	9,7	1	1	1	1	1	1	1	1	1	0	1	-16,138125	275,408812	310,069706	0
15.01.2021	14:59:23	0	51,682386	3,304511	1,68675	300,1284	1,054	85,126	0	1015,48	8,4	10,1	9,7	1	1	1	1	1	1	1	1	1	0	1	-10,218464	275,351411	315,717502	0
15.01.2021	14:59:24	0	52,148979	3,076616	1,7565	314,0784	1,048	85,131	0	1015,38	8,4	10,1	9,7	1	1	1	1	1	1	1	1	1	0	1	-19,168428	275,429581	307,137817	0
15.01.2021	14:59:25	0	52,148913	2,506874	1,74075	306,828	1,048	85,115	0	1015,42	8,4	10,1	9,7	1	1	1	1	1	1	1	1	1	0	1	-15,926709	275,535371	310,881151	0
15.01.2021	14:59:26	0	52,032184	4,330057	1,77825	306,0648	1,052	85,113	0	1015,44	8,5	10,1	9,7	1	1	1	1	1	1	1	1	1	0	1	-15,926709	275,545017	310,926917	0
15.01.2021	14:59:27	0	52,498774	3,532417	1,869	312,858	1,059	85,121	0	1015,5	8,5	10,1	9,7	1	1	1	1	1	1	1	1	1	0	1	-14,446794	275,484007	312,117446	0
15.01.2021	14:59:28	0	51,682062	2,73476	1,8795	303,8004	1,052	85,124	0	1015,46	8,5	10,1	9,8	1	1	1	1	1	1	1	1	1	0	1	-14,587738	275,528943	312,189626	0
15.01.2021	14:59:29	0	51,79866	2,278982	1,86525	296,0568	1,054	85,115	0	1015,38	8,5	10,1	9,7	1	1	1	1	1	1	1	1	1	0	1	-17,477097	275,482404	309,079542	0
15.01.2021	14:59:30	0	51,915259	3,076627	1,94025	290,7144	1,052	85,135	0	1015,38	8,4	10,1	9,7	1	1	1	1	1	1	1	1	1	0	1	-16,208598	275,527337	310,561145	0
15.01.2021	14:59:31	0	51,565204	2,165035	1,95225	290,7396	1,055	85,122	0	1015,48	8,4	10,1	9,7	1	1	1	1	1	1	1	1	1	0	1	-16,913319	275,53055	309,871668	0
15.01.2021	14:59:32	0	51,798465	2,962682	1,91475	295,488	1,055	85,119	0	1015,36	8,5	10,1	9,7	1	1	1	1	1	1	1	1	1	0	1	-14,587738	275,365745	311,416103	0
15.01.2021	14:59:33	0	52,031726	5,355588	1,99275	296,5644	1,051	85,132	0	1015,44	8,4	10,1	9,8	1	1	1	1	1	1	1	1	1	0	1	-12,544045	275,466382	313,936629	0
15.01.2021	14:59:34	0	52,031661	3,532432	2,12625	304,6248	1,06	85,143	0	1015,46	8,4	10,1	9,7	1	1	1	1	1	1	1	1	1	0	1	-14,164905	275,53055	312,620082	0
15.01.2021	14:59:35	0	51,914933	3,304516	2,1885	298,6524	1,051	85,127	0	1015,38	8,4	10,1	9,8	1	1	1	1	1	1	1	1	1	0	1	-14,517266	275,492024	312,084988	0
15.01.2021	14:59:36	0	52,381518	2,73479	2,21175	311,0004	1,054	85,135	0	1015,44	8,4	10,1	9,7	1	1	1	1	1	1	1	1	1	0	1	-15,433404	275,423188	310,842547	0
15.01.2021	14:59:37	0	52,031465	3,19059	2,172	291,5748	1,056	85,135	0	1015,36	8,4	10,1	9,7	1	1	1	1	1	1	1	1	1	0	1	-17,688513	275,469585	308,807348	0
15.01.2021	14:59:38	0	52,148062	3,98824	2,1255	305,3844	1,054	85,148	0	1015,54	8,4	10,1	9,7	1	1	1	1	1	1	1	1	1	0	1	-12,684989	275,370526	313,34149	0
15.01.2021	14:59:39	0	52,147996	3,874292	2,17425	305,7696	1,051	85,15	0	1015,4	8,5	10,1	9,7	1	1	1	1	1	1	1	1	1	0	1	-15,926709	275,545017	310,926917	0
15.01.2021	14:59:40	0	51,914607	2,848729	2,22825	311,4108	1,054	85,141	0	1015,36	8,4	10,1	9,8	1	1	1	1	1	1	1	1	1	0	1	-15,715292	275,448773	310,681909	0
15.01.2021	14:59:41	0	52,147865	3,190578	2,22675	297,4932	1,055	85,157	0	1015,48	8,4	10,1	9,8	1	1	1	1	1	1	1	1	1	0	1	-11,980268	275,362559	314,008485	0
15.01.2021	14:59:42	0	51,797815	3,30453	2,217	313,5708	1,054	85,144	0	1015,26	8,4	10,1	9,8	1	1	1	1	1	1	1	1	1	0	1	-16,349542	275,389659	309,767559	0
15.01.2021	14:59:43	0	52,147734	3,076651	2,175	308,8764	1,054	85,158	0	1015,58	8,5	10,1	9,7	1	1	1	1	1	1	1	1	1	0	1	-15,503876	275,447173	310,885742	0
15.01.2021	14:59:44	0	51,914346	4,899826	2,12775	307,566	1,055	85,144	0	1015,42	8,4	10,1	9,8	1	1	1	1	1	1	1	1	1	0	1	-14,235377	275,533764	312,564858	0
15.01.2021	14:59:45	0	51,914281	3,874306	2,05725	304,9812	1,059	85,158	0	1015,54	8,4	10,1	9,7	1	1	1	1	1	1	1	1	1	0	1	-15,503876	275,427983	310,794794	0
15.01.2021	14:59:46	0	52,030876	4,55801	2,013	299,0556	1,06	85,135	0	1015,34	8,5	10,1	9,7	1	1	1	1	1	1	1	1	1	0	1	-11,980268	275,349819	313,94816	0
15.01.2021	14:59:47	0	52,147472	4,558013	2,025	305,6616	1,054	85,149	0	1015,42	8,4	10,1	9,7	1	1	1	1	1	1	1	1	1	0	1	-15,292459	275,376902	310,764215	0
15.01.2021	14:59:48	0	52,030381	3,98824	2,0085	297,5328	1,054	85,147	0	1015,42	8,4	10	9,8	1	1	1	1	1	1	1	1	1	0	1	-17,195208	275,49042	309,399441	0
15.01.2021	14:59:49	0	51,797359	3,532443	1,94175	286,6788	1,053	85,125	0	1015,48	8,4	10,1	9,8	1	1	1	1	1	1	1	1	1	0	1	-16,349542	275,37212	309,684485	0
15.01.2021	14:59:50	0	51,913954	3,190615	1,9455	283,23	1,057	85,14	0	1015,4	8,4	10,1	9,7	1	1	1	1	1	1	1	1	1	0	1	-13,248767	275,448773	313,148435	0
15.01.2021	14:59:51	0	51,797228	3,76037	1,94925	294,822	1,053	85,122	0	1015,32	8,5	10,1	9,7	1	1	1	1	1	1	1	1	1	0	1	-18,393235	275,540194	308,437504	0
15.01.2021	14:59:52	0	51,797163	3,190619	2,01075	293,7456	1,058	85,134	0	1015,42	8,5	10,1	9,7	1	1	1	1	1	1	1	1	1	0	1	-14,023961	275,487213	312,555482	0
15.01.2021	14:59:53	0	52,147078	4,785931	2,0325	296,8236	1,054	85,129	0	1015,26	8,4	10,1	9,7	1	1	1	1	1	1	1	1	1	0	1	-15,926709	275,538586	310,896403	0
15.01.2021	14:59:54	0	51,797033	4,21618	2,0145	296,9028	1,057	85,139	0	1015,46	8,4	10,1	9,7	1	1	1	1	1	1	1	1	1	0	1	-16,27907	275,527337	310,490673	0
15.01.2021	14:59:55	0	51,913628	4,785937	1,95375	293,0508	1,058	85,126	0	1015,36	8,5	10,1	9,7	1	1	1	1	1	1	1	1	1	0	1	-13,883016	275,456775	312,552116	0
15.01.2021	14:59:56	0	51,913562	4,330136	2,0355	300,4776	1,053	85,126	0	1015,52	8,4	10,1	9,7	1	1	1	1	1	1	1	1	1	0	1	-12,403101	275,53055	314,381886	0
15.01.2021	14:59:57	0	51,680178	3,874334	2,14725	295,5096	1,052	85,113	0	1015,3	8,4	10,1	9,7	1	1	1	1	1	1	1	1	1	0	1	-13,742072	275,367339	312,269315	0
15.01.2021	14:59:58	0	51,680113	2,392973	2,14725	306,2088	1,057	85,109	0	1015,42	8,4	10,1	9,7	1	1	1	1	1	1	1	1	1	0	1	-17,195208	275,416797	309,05046	0
15.01.2021	14:59:59	0	51,796707	3,532486	2,13525	296,1324	1,058	85,117	0	1015,38	8,4	10,1	9,7	1	1	1	1	1	1	1	1	1	0	1	-17,477097	275,400829	308,692918	0
15.01.2021	15:00:00	0	51,679917	3,87432	2,1435	304,2828	1,057	85,131	0	1015,2	8,4	10,1	9,8	1	1	1	1	1	1	1	1	1	0	1	-16,208598	275,39285	309,923618	0
15.01.2021	15:00:01	0	51,679917	3,87432	2,1435	304,2828	1,057	85,131	0	1015,2	8,4	10,1	9,8	1	1	1	1	1	1	1	1	1	0	1	-18,88654	275,545017	307,967086	0
15.01.2021	15:00:02	0	51,329876	2,051124	2,13825	306,0972	1,061	85,134	0	1015,42	8,4	10,1	9,7	1	1	1	1	1	1	1	1	1	0	1	-17,547569	275,402425	308,630007	0
15.01.2021	15:00:03	0	51,796446	3,760374	2,1615	309,5316	1,056	85,114	0	1015,44	8,4	10,1	9,8	1	1	1	1	1	1	1	1	1	0	1	-18,181818	275,546625	308,679438	0
15.01.2021	15:00:04	0	51,446405	3,418545	2,2245	306,3816	1,057	85,128	0	1015,46	8,4	10,1	9,7	1	1	1	1	1	1	1	1	1	0	1	-12,825934	275,43118	313,487887	0
15.01.2021	15:00:05	0	51,796315	2,734837	2,27025	303,3036	1,057	85,132	0	1015,56	8,4	10,1	9,7	1	1	1	1	1	1	1	1	1	0	1	-17,124736	275,37212	308,909292	0
15.01.2021	15:00:06	0	51,562934	4,444114	2,40225	302,8068	1,054	85,115	0	1015,28	8,4	10,1	9,7	1	1	1	1	1	1	1	1	1	0	1	-14,235377	275,367339	311,776009	0
15.01.2021	15:00:07	0	51,912843	4,216188	2,421	304,9596	1,054	85,108	0	1015,38	8,4	10,1	9,8	1	1	1	1	1	1	1	1	1	0	1	-11,41649	275,488817	315,170555	0
15.01.2021	15:00:08	0	51,446146	2,734842	2,286	298,7208	1,055	85,115	0	1015,4	8,4	10,1	9,7	1	1	1	1	1	1	1	1	1	0	1	-17,124736	275,540194	309,706003	0
15.01.2021	15:00:09	0	51,562739	2,848779	2,1855	297,6372	1,055	85,099	0	1015,44	8,4	10,1	9,8	1	1	1	1	1	1	1	1	1	0	1	-10,923185	275,394446	315,216588	0
15.01.2021	15:00:10	0	51,795989	5,127836	2,0985	300,438	1,053	85,1	0	1015,38	8,4	10,1	9,7	1	1	1	1	1	1	1	1	1	0	1	-15,785765	275,477596	310,748077	0
15.01.2021	15:00:11	0	51,562609	3,418559	1,97625	303,9336	1,058	85,093	0	1015,46	8,5	10,1	9,7	1	1	1	1	1	1	1	1	1	0	1	-15,715292	275,484007	310,848947	0
15.01.2021	15:00:12	0	51,445887	3,874346	1,85025	300,1428	1,053	85,063	0	1015,26	8,4	10,1	9,8	1	1	1	1	1	1	1	1	1	0	1	-15,081043	275,548234	311,787844	0
15.01.2021	15:00:13	0	51,91245	4,33018	1,83975	299,358	1,062	85,074	0	1015,44	8,5	10,1	9,7	1	1	1	1	1	1	1	1	1	0	1	-16,27907	275,439175	310,07264	0
15.01.2021	15:00:14	0	51,212443	4,444135	1,9185	303,93	1,059	85,072	0	1015,46	8,5	10,1	9,7	1	1	1	1	1	1	1	1	1	0	1	-14,023961	275,348227	311,89693	0
15.01.2021	15:00:15	0	51,679006	4,55809	1,96875	302,4828	1,053	85,054	0	1015,5	8,5	10,1	9,7	1	1	1	1	1	1	1	1	1	0	1	-12,262156	275,404022	313,922982	0
15.01.2021	15:00:16	0	51,678941	2,96276	2,001	304,2936	1,059	85,049	0	1015,4	8,4	10,1	9,7	1	1	1	1	1	1	1	1	1	0	1	-14,517266	275,338679	311,358418	0
15.01.2021	15:00:17	0	51,445562	2,962744	2,02725	308,0736	1,057	85,053	0	1015,44	8,5	10,1	9,8	1	1	1	1	1	1	1	1	1	0	1	-14,235377	275,504857	312,427739	0
15.01.2021	15:00:18	0	51,67881	4,330193	2,04075	296,7696	1,055	85,053	0	1015,4	8,5	10,1	9,7	1	1	1	1	1	1	1	1	1	0	1	-14,869626	275,416797	311,376041	0
15.01.2021	15:00:19	0	51,445432	3,760433	2,08275	306,1872	1,055	85,06	0	1015,42	8,5	10,1	9,7	1	1	1	1	1	1	1	1	1	0	1	-19,238901	275,527337	307,530842	0
15.01.2021	15:00:20	0	51,67868	3,646483	1,99875	298,674	1,061	85,047	0	1015,34	8,5	10,1	9,7	1	1	1	1	1	1	1	1	1	0	1	-13,319239	275,495231	313,298226	0
15.01.2021	15:00:21	0	51,328647	2,8488	2,06775	302,4972	1,058	85,028	0	1015,54	8,5	10,1	9,8	1	1	1	1	1	1	1	1	1	0	1	-12,966878	275,360966	313,014331	0
15.01.2021	15:00:22	0	51,911861	4,216251	2,043	309,2256	1,055	85,045	0	1015,46	8,5	10,1	9,7	1	1	1	1	1	1	1	1	1	0	1	-13,953488	275,487213	312,625954	0
15.01.2021	15:00:23	0	51,678484	3,988348	1,97625	284,4576	1,048	85,037	0	1015,48	8,4	10,1	9,7	1	1	1	1	1	1	1	1	1	0	1	-15,081043	275,475994	311,445201	0
15.01.2021	15:00:24	0	51,561763	4,444162	1,95825	290,3256	1,056	85,029	0	1015,42	8,5	10,1	9,7	1	1	1	1	1	1	1	1	1	0	1	-14,517266	275,540194	312,313473	0
15.01.2021	15:00:25	0	51,211732	3,8744	1,97625	290,448	1,054	85,023	0	1015,48	8,5	10,1	9,7	1	1	1	1	1	1	1	1	1	0	1	-13,6716	275,423188	312,604351	0
15.01.2021	15:00:26	0	51,328323	4,216236	1,93875	279,9396	1,055	85	0	1015,42	8,5	10,1	9,8	1	1	1	1	1	1	1	1	1	0	1	-11,06413	275,541801	315,774237	0
15.01.2021	15:00:27	0	51,444913	2,734874	1,8255	280,188	1,049	85,006	0	1015,42	8,4	10,1	9,7	1	1	1	1	1	1	1	1	1	0	1	-13,460183	275,424786	312,82334	0
15.01.2021	15:00:28	0	51,328193	4,33022	1,692	284,3748	1,052	85,005	0	1015,46	8,5	10,1	9,7	1	1	1	1	1	1	1	1	1	0	1	-16,772375	275,543409	310,073621	0
15.01.2021	15:00:29	0	51,328128	4,102291	1,60875	288,8028	1,058	84,981	0	1015,6	8,4	10,1	9,8	1	1	1	1	1	1	1	1	1	0	1	-14,023961	275,495231	312,593504	0
15.01.2021	15:00:30	0	51,561373	2,962786	1,53075	287,4492	1,059	84,958	0	1015,22	8,5	10,1	9,7	1	1	1	1	1	1	1	1	1	0	1	-15,926709	275,402425	310,250867	0
15.01.2021	15:00:31	0	51,327999	3,304647	1,4235	292,9104	1,054	84,946	0	1015,34	8,5	10,1	9,7	1	1	1	1	1	1	1	1	1	0	1	-14,587738	275,535371	312,220122	0
15.01.2021	15:00:32	0	51,444588	3,760463	1,446	292,9752	1,045	84,957	0	1015,42	8,4	10,1	9,7	1	1	1	1	1	1	1	1	1	0	1	-14,940099	275,391255	311,184559	0
15.01.2021	15:00:33	0	51,677832	4,102326	1,548	296,46	1,053	84,951	0	1015,48	8,5	10,1	9,7	1	1	1	1	1	1	1	1	1	0	1	-14,305849	275,538586	312,517263	0
15.01.2021	15:00:34	0	51,561112	4,558143	1,55925	297,5076	1,051	84,976	0	1015,48	8,5	10,1	9,7	1	1	1	1	1	1	1	1	1	0	1	-15,292459	275,412005	310,930504	0
15.01.2021	15:00:35	0	51,561047	4,444192	1,63725	299,466	1,047	84,942	0	1015,34	8,5	10,1	9,7	1	1	1	1	1	1	1	1	1	0	1	-12,473573	275,375307	313,575552	0
15.01.2021	15:00:36	0	51,094367	2,506966	1,73625	306,3672	1,048	84,93	0	1015,46	8,5	10,1	9,8	1	1	1	1	1	1	1	1	1	0	1	-16,490486	275,376902	309,566189	0
15.01.2021	15:00:37	0	51,560917	4,330243	1,749	305,0784	1,047	84,931	0	1015,42	8,4	10,1	9,7	1	1	1	1	1	1	1	1	1	0	1	-10,923185	275,360966	315,058024	0
15.01.2021	15:00:38	0	51,094238	4,216292	1,63575	297,6768	1,05	84,929	0	1015,48	8,4	10,1	9,7	1	1	1	1	1	1	1	1	1	0	1	-16,349542	275,391255	309,775116	0
15.01.2021	15:00:39	0	51,094173	2,62094	1,64475	300,4884	1,045	84,93	0	1015,36	8,5	10,1	9,7	1	1	1	1	1	1	1	1	1	0	1	-17,547569	275,423188	308,728382	0
15.01.2021	15:00:40	0	51,210762	2,84885	1,70175	310,3344	1,051	84,938	0	1015,16	8,5	10,1	9,7	1	1	1	1	1	1	1	1	1	0	1	-13,6716	275,540194	313,159139	0
15.01.2021	15:00:41	0	51,677309	3,760484	1,67625	292,2732	1,049	84,923	0	1015,3	8,5	10,1	9,7	1	1	1	1	1	1	1	1	1	0	1	-12,121212	275,396041	314,026121	0
15.01.2021	15:00:42	0	51,443938	4,216302	1,69875	294,1272	1,051	84,933	0	1015,4	8,5	10,1	9,7	1	1	1	1	1	1	1	1	1	0	1	-14,235377	275,362559	311,753375	0
15.01.2021	15:00:43	0	51,093557	5,013954	1,7475	308,376	1,048	84,937	0	1015,48	8,5	10	9,8	1	1	1	1	1	1	1	1	1	0	1	-11,557435	275,410408	314,657963	0
15.01.2021	15:00:44	0	51,56046	4,672125	1,77075	296,8884	1,047	84,924	0	1015,52	8,5	10,1	9,7	1	1	1	1	1	1	1	1	1	0	1	-11,346018	275,500044	315,294268	0
15.01.2021	15:00:45	0	51,32709	2,393041	1,84875	315,8856	1,045	84,914	0	1015,28	8,5	10,1	9,7	1	1	1	1	1	1	1	1	1	0	1	-11,768851	275,493628	314,841007	0
15.01.2021	15:00:46	0	51,327025	2,84886	1,965	307,116	1,049	84,933	0	1015,42	8,5	10,1	9,7	1	1	1	1	1	1	1	1	1	0	1	-15,785765	275,412005	310,437199	0
15.01.2021	15:00:47	0	51,093656	4,444224	2,0085	311,3676	1,043	84,925	0	1015,44	8,4	10,1	9,7	1	1	1	1	1	1	1	1	1	0	1	-11,980268	275,541801	314,858099	0
15.01.2021	15:00:48	0	51,326895	4,558181	1,956	317,034	1,045	84,931	0	1015,4	8,4	10,1	9,7	1	1	1	1	1	1	1	1	1	0	1	-14,587738	275,475994	311,938506	0
15.01.2021	15:00:49	0	50,860223	2,279092	1,992	294,3756	1,048	84,933	0	1015,54	8,5	10,1	9,7	1	1	1	1	1	1	1	1	1	0	1	-15,081043	275,540194	311,749696	0
15.01.2021	15:00:50	0	50,97681	4,444232	2,04975	312,102	1,042	84,922	0	1015,28	8,5	10,1	9,7	1	1	1	1	1	1	1	1	1	0	1	-15,503876	275,477596	311,029965	0
15.01.2021	15:00:51	0	51,326701	4,444208	1,962	298,9548	1,057	84,906	0	1015,46	8,5	10,1	9,8	1	1	1	1	1	1	1	1	1	0	1	-16,913319	275,492024	309,688934	0
15.01.2021	15:00:52	0	51,209984	4,672147	1,96575	296,8632	1,048	84,907	0	1015,44	8,5	10,1	9,7	1	1	1	1	1	1	1	1	1	0	1	-14,023961	275,538586	312,799151	0
15.01.2021	15:00:53	0	51,093268	4,330285	2,076	306,09	1,047	84,916	0	1015,4	8,5	10,1	9,7	1	1	1	1	1	1	1	1	1	0	1	-16,560958	275,479199	309,980481	0
15.01.2021	15:00:54	0	50,976552	3,646558	2,21475	294,7392	1,046	84,924	0	1015,54	8,5	10,1	9,7	1	1	1	1	1	1	1	1	1	0	1	-13,883016	275,540194	312,947723	0
15.01.2021	15:00:55	0	51,326441	3,988426	2,2515	290,8008	1,047	84,917	0	1015,62	8,5	10,1	9,7	1	1	1	1	1	1	1	1	1	0	1	-14,940099	275,504857	311,723017	0
15.01.2021	15:00:56	0	51,326376	4,444248	2,23425	299,6712	1,048	84,907	0	1015,36	8,5	10,1	9,7	1	1	1	1	1	1	1	1	1	0	1	-14,940099	275,543409	311,905897	0
15.01.2021	15:00:57	0	51,20966	3,076789	2,169	291,87	1,042	84,906	0	1015,44	8,5	10,1	9,7	1	1	1	1	1	1	1	1	1	0	1	-13,812544	275,423188	312,463406	0
15.01.2021	15:00:58	0	50,859644	2,848881	2,091	311,4036	1,039	84,922	0	1015,58	8,5	10,1	9,7	1	1	1	1	1	1	1	1	1	0	1	-15,433404	275,345044	310,472415	0
15.01.2021	15:00:59	0	51,326181	4,900078	1,9785	300,8412	1,036	84,922	0	1015,34	8,5	10,1	9,7	1	1	1	1	1	1	1	1	1	0	1	-11,980268	275,484007	314,583971	0
15.01.2021	15:01:00	0	50,85945	3,646574	1,84275	296,4708	1,042	84,939	0	1015,48	8,5	10,1	9,7	1	1	1	1	1	1	1	1	1	0	1	-18,604651	275,543409	308,241345	0
15.01.2021	15:01:01	0	50,85945	3,646574	1,84275	296,4708	1,042	84,939	0	1015,48	8,5	10,1	9,7	1	1	1	1	1	1	1	1	1	0	1	-18,604651	275,543409	308,241345	0
15.01.2021	15:01:02	0	50,742736	3,646576	1,8405	298,3104	1,046	84,929	0	1015,54	8,5	10,1	9,7	1	1	1	1	1	1	1	1	1	0	1	-15,292459	275,474391	311,226188	0
15.01.2021	15:01:03	0	50,859321	3,646556	1,8795	323,7696	1,046	84,937	0	1015,44	8,5	10,1	9,8	1	1	1	1	1	1	1	1	1	0	1	-15,997181	275,348227	309,92371	0
15.01.2021	15:01:04	0	50,859257	2,962847	1,986	297,8604	1,048	84,937	0	1015,42	8,4	10,1	9,7	1	1	1	1	1	1	1	1	1	0	1	-12,191684	275,408812	314,016147	0
15.01.2021	15:01:05	0	50,859192	4,330317	1,9395	302,4864	1,043	84,942	0	1015,38	8,5	10,1	9,7	1	1	1	1	1	1	1	1	1	0	1	-16,208598	275,488817	310,378448	0
15.01.2021	15:01:06	0	50,742479	3,646585	1,7565	320,0508	1,044	84,949	0	1015,42	8,4	10,1	9,7	1	1	1	1	1	1	1	1	1	0	1	-18,25229	275,540194	308,578449	0
15.01.2021	15:01:07	0	50,742414	3,076808	1,67625	330,7824	1,049	84,948	0	1015,48	8,5	10,1	9,7	1	1	1	1	1	1	1	1	1	0	1	-11,768851	275,419992	314,491956	0
15.01.2021	15:01:08	0	50,975648	4,444254	1,6215	309,5496	1,048	84,938	0	1015,52	8,5	10,1	9,8	1	1	1	1	1	1	1	1	1	0	1	-15,785765	275,546625	311,075491	0
15.01.2021	15:01:09	0	50,858935	4,330328	1,52325	309,8772	1,046	84,938	0	1015,52	8,5	10,1	9,7	1	1	1	1	1	1	1	1	1	0	1	-12,896406	275,488817	313,690639	0
15.01.2021	15:01:10	0	50,742221	3,418682	1,48425	309,4884	1,044	84,942	0	1015,42	8,5	10,1	9,7	1	1	1	1	1	1	1	1	1	0	1	-12,544045	275,37212	313,489982	0
15.01.2021	15:01:11	0	51,092103	4,900114	1,6215	297,306	1,05	84,958	0	1015,4	8,5	10,1	9,7	1	1	1	1	1	1	1	1	1	0	1	-10,852713	275,404022	315,332426	0
15.01.2021	15:01:12	0	50,742093	3,532642	1,686	302,7816	1,043	84,961	0	1015,44	8,5	10,1	9,7	1	1	1	1	1	1	1	1	1	0	1	-17,195208	275,38009	308,876569	0
15.01.2021	15:01:13	0	50,62538	3,874513	1,77675	299,0448	1,047	84,97	0	1015,54	8,5	10,1	9,7	1	1	1	1	1	1	1	1	1	0	1	-12,614517	275,356188	313,344067	0
15.01.2021	15:01:14	0	50,858612	3,190777	1,81725	299,7576	1,046	84,948	0	1015,42	8,5	10,1	9,7	1	1	1	1	1	1	1	1	1	0	1	-14,587738	275,49042	312,006911	0
15.01.2021	15:01:15	0	50,858548	4,216387	1,7925	300,3192	1,041	84,953	0	1015,46	8,5	10,1	9,7	1	1	1	1	1	1	1	1	1	0	1	-14,235377	275,501648	312,412519	0
15.01.2021	15:01:16	0	50,858483	2,962851	1,79175	303,5232	1,04	84,958	0	1015,34	8,5	10,1	9,8	1	1	1	1	1	1	1	1	1	0	1	-10,993658	275,538586	315,829454	0
15.01.2021	15:01:17	0	50,858419	3,30474	1,80375	284,0508	1,057	84,971	0	1015,38	8,5	10,1	9,7	1	1	1	1	1	1	1	1	1	0	1	-14,376321	275,500044	312,263965	0
15.01.2021	15:01:18	0	50,275116	3,760568	1,80075	285,7968	1,041	84,957	0	1015,24	8,5	10,1	9,7	1	1	1	1	1	1	1	1	1	0	1	-12,262156	275,359373	313,71151	0
15.01.2021	15:01:19	0	50,741642	4,558267	1,82925	288,882	1,045	84,978	0	1015,44	8,5	10,1	9,7	1	1	1	1	1	1	1	1	1	0	1	-13,460183	275,451973	312,952189	0
15.01.2021	15:01:20	0	50,62493	3,304746	1,8255	298,7064	1,046	84,97	0	1015,44	8,5	10,1	9,7	1	1	1	1	1	1	1	1	1	0	1	-19,450317	275,543409	307,395679	0
15.01.2021	15:01:21	0	50,85816	4,67223	1,87875	293,6844	1,048	84,958	0	1015,54	8,5	10,1	9,7	1	1	1	1	1	1	1	1	1	0	1	-15,433404	275,467984	311,054864	0
15.01.2021	15:01:22	0	50,624802	2,165181	1,88025	288,4896	1,047	84,951	0	1015,4	8,5	10,1	9,7	1	1	1	1	1	1	1	1	1	0	1	-16,701903	275,546625	310,159353	0
15.01.2021	15:01:23	0	50,741384	4,444322	1,932	290,4588	1,042	84,948	0	1015,3	8,5	10,1	9,7	1	1	1	1	1	1	1	1	1	0	1	-12,825934	275,440774	313,533356	0
15.01.2021	15:01:24	0	50,274733	5,014109	1,9575	283,5648	1,045	84,966	0	1015,42	8,4	10,1	9,7	1	1	1	1	1	1	1	1	1	0	1	-20,084567	275,535371	306,723293	0
15.01.2021	15:01:25	0	50,507962	3,646627	2,02725	296,4384	1,043	84,938	0	1015,54	8,5	10,1	9,7	1	1	1	1	1	1	1	1	1	0	1	-15,574348	275,364152	310,421948	0
15.01.2021	15:01:26	0	50,624545	3,760587	2,1045	291,384	1,039	84,947	0	1015,4	8,5	10,1	9,7	1	1	1	1	1	1	1	1	1	0	1	-13,248767	275,464781	313,224316	0
15.01.2021	15:01:27	0	50,857773	3,760589	2,2965	290,1096	1,043	84,956	0	1015,48	8,5	10,1	9,7	1	1	1	1	1	1	1	1	1	0	1	-13,178295	275,541801	313,660073	0
15.01.2021	15:01:28	0	50,50777	2,848933	2,325	285,516	1,041	84,943	0	1015,48	8,5	10,1	9,7	1	1	1	1	1	1	1	1	1	0	1	-12,262156	275,474391	314,256491	0
15.01.2021	15:01:29	0	50,624352	5,128082	2,241	294,822	1,047	84,963	0	1015,42	8,5	10,1	9,7	1	1	1	1	1	1	1	1	1	0	1	-13,319239	275,356188	312,639345	0
15.01.2021	15:01:30	0	50,390996	2,962894	2,2215	298,0188	1,04	84,936	0	1015,36	8,5	10,1	9,7	1	1	1	1	1	1	1	1	1	0	1	-14,164905	275,472789	312,346146	0
15.01.2021	15:01:31	0	50,624223	4,786216	2,2485	302,4072	1,046	84,946	0	1015,5	8,5	10,1	9,7	1	1	1	1	1	1	1	1	1	0	1	-12,614517	275,538586	314,208595	0
15.01.2021	15:01:32	0	50,624159	3,076855	2,23425	298,2564	1,044	84,946	0	1015,5	8,5	10,1	9,7	1	1	1	1	1	1	1	1	1	0	1	-13,530655	275,495231	313,086809	0
15.01.2021	15:01:33	0	50,624095	4,330391	2,19975	282,4452	1,046	84,944	0	1015,4	8,5	10,1	9,7	1	1	1	1	1	1	1	1	1	0	1	-17,829457	275,376902	308,227217	0
15.01.2021	15:01:34	0	50,740675	5,01414	2,19675	295,236	1,043	84,919	0	1015,34	8,5	10,1	9,7	1	1	1	1	1	1	1	1	1	0	1	-13,319239	275,488817	313,267807	0
15.01.2021	15:01:35	0	50,274031	3,532692	2,277	289,5048	1,046	84,931	0	1015,42	8,5	10,1	9,7	1	1	1	1	1	1	1	1	1	0	1	-16,701903	275,55145	310,182249	0
15.01.2021	15:01:36	0	50,390612	4,216441	2,334	290,7864	1,039	84,924	0	1015,36	8,5	10,1	9,7	1	1	1	1	1	1	1	1	1	0	1	-11,980268	275,412005	314,242696	0
15.01.2021	15:01:37	0	50,390548	4,558317	2,28375	289,332	1,046	84,937	0	1015,38	8,4	10,1	9,7	1	1	1	1	1	1	1	1	1	0	1	-14,164905	275,487213	312,414538	0
15.01.2021	15:01:38	0	49,923905	3,304782	2,21625	293,0148	1,046	84,935	0	1015,44	8,5	10,1	9,7	1	1	1	1	1	1	1	1	1	0	1	-12,966878	275,495231	313,650586	0
15.01.2021	15:01:39	0	49,923841	2,507078	2,12775	286,9668	1,045	84,931	0	1015,34	8,5	10,1	9,7	1	1	1	1	1	1	1	1	1	0	1	-14,305849	275,545017	312,547776	0
15.01.2021	15:01:40	0	50,390355	4,558326	2,17275	296,532	1,044	84,939	0	1015,48	8,5	10,1	9,7	1	1	1	1	1	1	1	1	1	0	1	-15,151515	275,43118	311,162306	0
15.01.2021	15:01:41	0	50,273295	4,672287	2,11425	301,6512	1,045	84,929	0	1015,3	8,5	10	9,7	1	1	1	1	1	1	1	1	1	0	1	-12,544045	275,554668	314,355374	0
15.01.2021	15:01:42	0	49,807007	3,076874	1,99725	306,1584	1,043	84,975	0	1015,3	8,5	10,1	9,7	1	1	1	1	1	1	1	1	1	0	1	-14,587738	275,466382	311,892937	0
15.01.2021	15:01:43	0	50,273519	3,646667	1,926	287,7012	1,042	84,916	0	1015,64	8,5	10,1	9,7	1	1	1	1	1	1	1	1	1	0	1	-13,883016	275,399233	312,279437	0
15.01.2021	15:01:44	0	50,390099	4,558337	1,854	291,9348	1,042	84,921	0	1015,38	8,5	10,1	9,7	1	1	1	1	1	1	1	1	1	0	1	-14,517266	275,511277	312,1763	0
15.01.2021	15:01:45	0	50,040104	2,848962	1,89075	296,0964	1,041	84,931	0	1015,34	8,5	10,1	9,7	1	1	1	1	1	1	1	1	1	0	1	-21,987315	275,375307	304,06181	0
15.01.2021	15:01:46	0	50,273327	3,532715	1,8765	314,0784	1,039	84,933	0	1015,42	8,5	10,1	9,7	1	1	1	1	1	1	1	1	1	0	1	-11,980268	275,39285	314,151948	0
15.01.2021	15:01:47	0	50,15662	4,558345	1,7535	311,742	1,046	84,929	0	1015,44	8,5	10,1	9,7	1	1	1	1	1	1	1	1	1	0	1	-11,486963	275,509672	315,198989	0
15.01.2021	15:01:48	0	49,92327	2,507091	1,6335	313,7652	1,037	84,925	0	1015,48	8,5	10,1	9,7	1	1	1	1	1	1	1	1	1	0	1	-18,322763	275,360966	307,658447	0
15.01.2021	15:01:49	0	50,039849	4,786268	1,542	323,6796	1,044	84,95	0	1015,26	8,4	10,1	9,7	1	1	1	1	1	1	1	1	1	0	1	-15,292459	275,469585	311,203402	0
15.01.2021	15:01:50	0	49,923143	2,621053	1,48125	317,7504	1,047	84,938	0	1015,26	8,4	10,1	9,7	1	1	1	1	1	1	1	1	1	0	1	-13,883016	275,353003	312,060488	0
15.01.2021	15:01:51	0	50,156365	3,19083	1,455	315,9684	1,042	84,934	0	1015,48	8,5	10,1	9,8	1	1	1	1	1	1	1	1	1	0	1	-9,090909	275,501648	317,556987	0
15.01.2021	15:01:52	0	50,156301	3,988564	1,518	314,5176	1,044	84,942	0	1015,44	8,5	10,1	9,7	1	1	1	1	1	1	1	1	1	0	1	-13,883016	275,506462	312,787711	0
15.01.2021	15:01:53	0	50,039595	2,507099	1,53375	316,2132	1,043	84,94	0	1015,46	8,5	10,1	9,7	1	1	1	1	1	1	1	1	1	0	1	-14,587738	275,362559	311,401015	0
15.01.2021	15:01:54	0	49,922889	3,418774	1,59	303,9336	1,043	84,951	0	1015,36	8,5	10,1	9,7	1	1	1	1	1	1	1	1	1	0	1	-13,883016	275,405618	312,309686	0
15.01.2021	15:01:55	0	49,806183	3,418755	1,5045	300,4344	1,038	84,935	0	1015,44	8,5	10,1	9,8	1	1	1	1	1	1	1	1	1	0	1	-13,883016	275,375307	312,166109	0
15.01.2021	15:01:56	0	49,572835	2,735022	1,55325	282,8952	1,042	84,951	0	1015,42	8,5	10,1	9,7	1	1	1	1	1	1	1	1	1	0	1	-10,711769	275,451973	315,700603	0
15.01.2021	15:01:57	0	49,806056	3,304821	1,56225	308,4732	1,049	84,954	0	1015,44	8,5	10,1	9,7	1	1	1	1	1	1	1	1	1	0	1	-19,027484	275,546625	307,833772	0
15.01.2021	15:01:58	0	49,922634	3,190863	1,55175	292,158	1,037	84,94	0	1015,44	8,5	10,1	9,7	1	1	1	1	1	1	1	1	1	0	1	-14,376321	275,496835	312,24875	0
15.01.2021	15:01:59	0	50,155854	5,128176	1,44225	304,2828	1,038	84,962	0	1015,36	8,5	10,1	9,7	1	1	1	1	1	1	1	1	1	0	1	-16,420014	275,553059	310,471771	0
15.01.2021	15:02:00	0	49,805802	4,330465	1,32675	274,6476	1,039	84,976	0	1015,3	8,5	10,1	9,7	1	1	1	1	1	1	1	1	1	0	1	-12,191684	275,459977	314,258626	0
15.01.2021	15:02:01	0	49,805802	4,330465	1,32675	274,6476	1,039	84,976	0	1015,3	8,5	10,1	9,7	1	1	1	1	1	1	1	1	1	0	1	-11,346018	275,553059	315,545766	0
15.01.2021	15:02:02	0	49,689098	2,848992	1,2915	281,7468	1,043	84,972	0	1015,42	8,5	10,1	9,7	1	1	1	1	1	1	1	1	1	0	1	-11,134602	275,492024	315,467652	0
15.01.2021	15:02:03	0	49,572393	3,304833	1,239	280,98	1,045	84,974	0	1015,4	8,5	10,1	9,7	1	1	1	1	1	1	1	1	1	0	1	-11,698379	275,375307	314,350746	0
15.01.2021	15:02:04	0	49,688971	2,621076	1,2615	276,3828	1,045	84,989	0	1015,56	8,5	10,1	9,7	1	1	1	1	1	1	1	1	1	0	1	-14,587738	275,545017	312,265888	0
15.01.2021	15:02:05	0	49,805548	2,735021	1,242	285,4476	1,046	84,973	0	1015,36	8,5	10,1	9,8	1	1	1	1	1	1	1	1	1	0	1	-15,292459	275,493628	311,317399	0
15.01.2021	15:02:06	0	49,805485	2,848999	1,16925	299,3616	1,046	84,985	0	1015,3	8,5	10,1	9,7	1	1	1	1	1	1	1	1	1	0	1	-19,027484	275,459977	307,422826	0
15.01.2021	15:02:07	0	49,688781	3,532761	1,125	327,0312	1,045	85,003	0	1015,42	8,5	10,1	9,7	1	1	1	1	1	1	1	1	1	0	1	-15,856237	275,527337	310,913506	0
15.01.2021	15:02:08	0	49,805358	4,558404	1,1355	341,3016	1,044	84,997	0	1015,42	8,5	10,1	9,7	1	1	1	1	1	1	1	1	1	0	1	-11,346018	275,509672	315,339933	0
15.01.2021	15:02:09	0	49,804945	4,672367	1,1145	330,3684	1,044	84,994	0	1015,36	8,5	10	9,7	1	1	1	1	1	1	1	1	1	0	1	-13,460183	275,488817	313,126862	0
15.01.2021	15:02:10	0	49,805231	4,216529	1,074	336,1032	1,044	85,019	0	1015,44	8,5	10,1	9,7	1	1	1	1	1	1	1	1	1	0	1	-15,926709	275,360966	310,0545	0
15.01.2021	15:02:11	0	49,688527	3,64673	0,97275	347,9436	1,047	85,008	0	1015,42	8,5	10,1	9,7	1	1	1	1	1	1	1	1	1	0	1	-13,389711	275,55145	313,49444	0
15.01.2021	15:02:12	0	49,688464	4,330494	0,89625	345,3552	1,045	85,021	0	1015,46	8,5	10,1	9,7	1	1	1	1	1	1	1	1	1	0	1	-11,698379	275,458376	314,744342	0
15.01.2021	15:02:13	0	49,221843	2,62109	0,82275	335,3472	1,049	85,023	0	1015,48	8,5	10,1	9,7	1	1	1	1	1	1	1	1	1	0	1	-14,940099	275,356188	311,018485	0
15.01.2021	15:02:14	0	49,687989	4,102579	0,822	320,7672	1,04	85,018	0	1015,66	8,5	10	9,7	1	1	1	1	1	1	1	1	1	0	1	-12,191684	275,434377	314,13729	0
15.01.2021	15:02:15	0	49,454996	4,330502	0,786	313,5564	1,037	85,026	0	1015,38	8,5	10,1	9,7	1	1	1	1	1	1	1	1	1	0	1	-15,081043	275,546625	311,780213	0
15.01.2021	15:02:16	0	49,221654	2,849016	0,807	324,1188	1,046	85,044	0	1015,58	8,5	10,1	9,7	1	1	1	1	1	1	1	1	1	0	1	-10,711769	275,471187	315,791687	0
15.01.2021	15:02:17	0	49,804786	5,014272	0,83025	333,4932	1,049	85,042	0	1015,54	8,5	10,1	9,7	1	1	1	1	1	1	1	1	1	0	1	-13,6716	275,367339	312,339787	0
15.01.2021	15:02:18	0	49,221529	4,900314	0,85275	321,8544	1,047	85,046	0	1015,52	8,5	10,1	9,7	1	1	1	1	1	1	1	1	1	0	1	-15,785765	275,447173	310,603853	0
15.01.2021	15:02:19	0	49,454743	3,874669	0,85425	312,1776	1,05	85,048	0	1015,5	8,5	10,1	9,7	1	1	1	1	1	1	1	1	1	0	1	-14,023961	275,548234	312,844926	0
15.01.2021	15:02:20	0	49,45468	4,786359	0,84225	316,2888	1,048	85,048	0	1015,36	8,5	10,1	9,7	1	1	1	1	1	1	1	1	1	0	1	-17,618041	275,418395	308,635197	0
15.01.2021	15:02:21	0	49,22134	3,646752	0,83775	321,5232	1,05	85,048	0	1015,42	8,4	10,1	9,7	1	1	1	1	1	1	1	1	1	0	1	-12,825934	275,536979	313,989552	0
15.01.2021	15:02:22	0	49,337916	3,874677	0,8535	322,92	1,046	85,05	0	1015,34	8,5	10,1	9,7	1	1	1	1	1	1	1	1	1	0	1	-15,926709	275,424786	310,356814	0
15.01.2021	15:02:23	0	49,337853	2,735051	0,8355	325,9656	1,046	85,051	0	1015,38	8,5	10,1	9,8	1	1	1	1	1	1	1	1	1	0	1	-15,785765	275,501648	310,862131	0
15.01.2021	15:02:24	0	49,687703	4,558449	0,771	326,7828	1,047	85,041	0	1015,46	8,5	10,1	9,7	1	1	1	1	1	1	1	1	1	0	1	-12,825934	275,37212	313,208093	0
15.01.2021	15:02:25	0	49,454364	3,5328	0,7725	324,8064	1,042	85,028	0	1015,38	8,5	10,1	9,7	1	1	1	1	1	1	1	1	1	0	1	-16,349542	275,484007	310,214697	0
15.01.2021	15:02:26	0	49,221026	3,532802	0,765	321,4044	1,049	85,044	0	1015,5	8,5	10,1	9,7	1	1	1	1	1	1	1	1	1	0	1	-14,728682	275,362559	311,26007	0
15.01.2021	15:02:27	0	49,220963	4,558457	0,717	324,0792	1,048	85,038	0	1015,36	8,5	10,1	9,7	1	1	1	1	1	1	1	1	1	0	1	-11,768851	275,4152	314,469248	0
15.01.2021	15:02:28	0	49,104263	2,27923	0,76275	320,6916	1,047	85,036	0	1015,4	8,5	10,1	9,7	1	1	1	1	1	1	1	1	1	0	1	-16,701903	275,376902	309,354772	0
15.01.2021	15:02:29	0	49,337474	3,64677	0,81	319,5504	1,047	85,036	0	1015,46	8,5	10,1	9,7	1	1	1	1	1	1	1	1	1	0	1	-14,869626	275,410408	311,345771	0
15.01.2021	15:02:30	0	49,220774	3,988657	0,9285	312,5376	1,045	85,035	0	1015,28	8,5	10,1	9,7	1	1	1	1	1	1	1	1	1	0	1	-15,010571	275,53055	311,774416	0
15.01.2021	15:02:31	0	49,104075	3,98866	1,014	297,9252	1,05	85,023	0	1015,32	8,5	10,1	9,7	1	1	1	1	1	1	1	1	1	0	1	-15,715292	275,432778	310,606105	0
15.01.2021	15:02:32	0	49,104012	3,988662	1,128	300,1716	1,047	85,048	0	1015,6	8,5	10,1	9,7	1	1	1	1	1	1	1	1	1	0	1	-10,007047	275,506462	316,66368	0
15.01.2021	15:02:33	0	49,220586	4,558474	1,182	309,1896	1,047	85,026	0	1015,32	8,5	10,1	9,7	1	1	1	1	1	1	1	1	1	0	1	-11,980268	275,408812	314,227564	0
15.01.2021	15:02:34	0	48,98725	4,102629	1,2255	307,9764	1,052	85,051	0	1015,54	8,5	10,1	9,7	1	1	1	1	1	1	1	1	1	0	1	-14,869626	275,381685	311,209703	0
15.01.2021	15:02:35	0	48,870551	2,963012	1,22475	313,2504	1,05	85,028	0	1015,44	8,5	10,1	9,7	1	1	1	1	1	1	1	1	1	0	1	-14,235377	275,383279	311,851505	0
15.01.2021	15:02:36	0	49,103761	4,102634	1,2315	316,962	1,043	85,028	0	1015,34	8,5	10,1	9,7	1	1	1	1	1	1	1	1	1	0	1	-16,913319	275,464781	309,559763	0
15.01.2021	15:02:37	0	48,753791	2,16528	1,18575	310,6836	1,049	85,041	0	1015,48	8,5	10,1	9,7	1	1	1	1	1	1	1	1	1	0	1	-13,03735	275,356188	312,921234	0
15.01.2021	15:02:38	0	49,103635	5,014337	1,1595	329,994	1,048	85,031	0	1015,38	8,5	10,1	9,7	1	1	1	1	1	1	1	1	1	0	1	-11,627907	275,442374	314,738964	0
15.01.2021	15:02:39	0	48,753666	2,50717	1,062	330,0588	1,048	85,037	0	1015,44	8,5	10,1	9,7	1	1	1	1	1	1	1	1	1	0	1	-11,768851	275,524124	314,98565	0
15.01.2021	15:02:40	0	48,520333	2,735096	0,97725	328,9428	1,049	85,036	0	1015,3	8,5	10,1	9,7	1	1	1	1	1	1	1	1	1	0	1	-14,587738	275,435976	311,748814	0
15.01.2021	15:02:41	0	48,986812	3,874722	0,9375	328,9896	1,053	85,033	0	1015,52	8,5	10,1	9,7	1	1	1	1	1	1	1	1	1	0	1	-13,460183	275,373713	312,581392	0
15.01.2021	15:02:42	0	48,753479	2,393212	0,93375	327,4488	1,054	85,038	0	1015,5	8,5	10,1	9,7	1	1	1	1	1	1	1	1	1	0	1	-11,980268	275,365745	314,023573	0
15.01.2021	15:02:43	0	49,103321	3,076989	0,86925	318,4452	1,051	85,03	0	1015,46	8,5	10,1	9,7	1	1	1	1	1	1	1	1	1	0	1	-13,6716	275,495231	312,945865	0
15.01.2021	15:02:44	0	48,986624	5,014355	0,87225	315,2304	1,054	85,035	0	1015,36	8,5	10,1	9,7	1	1	1	1	1	1	1	1	1	0	1	-10,782241	275,37212	315,251786	0
15.01.2021	15:02:45	0	49,102852	3,304918	0,8895	324,3852	1,045	85,031	0	1015,28	8,5	10	9,7	1	1	1	1	1	1	1	1	1	0	1	-15,64482	275,503253	311,010685	0
15.01.2021	15:02:46	0	48,403326	2,507181	0,95475	325,4364	1,049	85,006	0	1015,46	8,5	10,1	9,7	1	1	1	1	1	1	1	1	1	0	1	-14,65821	275,370526	311,36827	0
15.01.2021	15:02:47	0	48,869801	3,076996	1,014	321,8616	1,05	85,037	0	1015,34	8,5	10,1	9,7	1	1	1	1	1	1	1	1	1	0	1	-11,205074	275,479199	315,336366	0
15.01.2021	15:02:48	0	48,753104	2,393221	1,0815	318,6828	1,051	85,042	0	1015,5	8,5	10,1	9,7	1	1	1	1	1	1	1	1	1	0	1	-12,966878	275,37212	313,067149	0
15.01.2021	15:02:49	0	48,753042	4,444556	1,11675	323,3988	1,048	85,027	0	1015,38	8,5	10,1	9,7	1	1	1	1	1	1	1	1	1	0	1	-13,812544	275,474391	312,706103	0
15.01.2021	15:02:50	0	48,519712	2,735113	1,2315	325,1196	1,052	85,042	0	1015,58	8,5	10,1	9,7	1	1	1	1	1	1	1	1	1	0	1	-20,930233	275,53055	305,854754	0
15.01.2021	15:02:51	0	48,51965	2,735098	1,31025	322,146	1,044	85,025	0	1015,34	8,5	10,1	9,8	1	1	1	1	1	1	1	1	1	0	1	-14,235377	275,423188	312,040573	0
15.01.2021	15:02:52	0	48,402954	2,393227	1,503	305,7372	1,053	85,053	0	1015,58	8,5	10,1	9,7	1	1	1	1	1	1	1	1	1	0	1	-14,164905	275,55145	312,719246	0
15.01.2021	15:02:53	0	48,752792	4,90042	1,674	311,3064	1,052	85,06	0	1015,44	8,5	10,1	9,7	1	1	1	1	1	1	1	1	1	0	1	-12,473573	275,475994	314,052671	0
15.01.2021	15:02:54	0	48,635756	4,786459	1,77825	312,1128	1,052	85,055	0	1015,48	8,5	10	9,7	1	1	1	1	1	1	1	1	1	0	1	-9,725159	275,546625	317,136097	0
15.01.2021	15:02:55	0	48,869301	4,330609	1,78575	315,1548	1,046	85,046	0	1015,34	8,5	10,1	9,7	1	1	1	1	1	1	1	1	1	0	1	-17,970402	275,437575	308,373729	0
15.01.2021	15:02:56	0	48,869238	5,014392	1,842	318,4236	1,053	85,069	0	1015,34	8,5	10,1	9,7	1	1	1	1	1	1	1	1	1	0	1	-15,221987	275,506462	311,44874	0
15.01.2021	15:02:57	0	48,402305	5,014395	1,80075	316,5408	1,055	85,076	0	1015,48	8,5	10	9,7	1	1	1	1	1	1	1	1	1	0	1	-12,966878	275,527337	313,802864	0
15.01.2021	15:02:58	0	48,635847	3,190981	1,78575	315,9216	1,055	85,078	0	1015,36	8,5	10,1	9,7	1	1	1	1	1	1	1	1	1	0	1	-11,346018	275,554668	315,553401	0
15.01.2021	15:02:59	0	48,635785	4,444583	1,74	314,8344	1,046	85,07	0	1015,38	8,5	10,1	9,7	1	1	1	1	1	1	1	1	1	0	1	-10,993658	275,49042	315,600992	0
15.01.2021	15:03:00	0	48,402396	3,418894	1,86675	318,114	1,047	85,081	0	1015,42	8,5	10,1	9,8	1	1	1	1	1	1	1	1	1	0	1	-13,389711	275,37212	312,644316	0
15.01.2021	15:03:01	0	48,402396	3,418894	1,86675	318,114	1,047	85,081	0	1015,42	8,5	10,1	9,8	1	1	1	1	1	1	1	1	1	0	1	-14,869626	275,419992	311,391181	0
15.01.2021	15:03:02	0	48,635598	3,077006	1,983	310,7268	1,05	85,076	0	1015,36	8,5	10,1	9,8	1	1	1	1	1	1	1	1	1	0	1	-15,926709	275,536979	310,888776	0
15.01.2021	15:03:03	0	48,635536	4,33063	1,9665	299,3832	1,056	85,085	0	1015,38	8,5	10,1	9,7	1	1	1	1	1	1	1	1	1	0	1	-16,067653	275,549842	310,808865	0
15.01.2021	15:03:04	0	48,285578	3,304957	1,866	318,4848	1,051	85,086	0	1015,52	8,5	10,1	9,7	1	1	1	1	1	1	1	1	1	0	1	-15,715292	275,52573	311,046829	0
15.01.2021	15:03:05	0	48,285516	3,988743	1,6365	336,0924	1,051	85,087	0	1015,3	8,5	10,1	9,7	1	1	1	1	1	1	1	1	1	0	1	-17,970402	275,434377	308,358572	0
15.01.2021	15:03:06	0	48,518717	4,786495	1,42425	316,656	1,049	85,099	0	1015,46	8,5	10,1	9,7	1	1	1	1	1	1	1	1	1	0	1	-13,883016	275,506462	312,787711	0
15.01.2021	15:03:07	0	48,751918	4,102712	1,4865	322,1964	1,05	85,097	0	1015,44	8,5	10,1	9,7	1	1	1	1	1	1	1	1	1	0	1	-18,463707	275,364152	307,532589	0
15.01.2021	15:03:08	0	48,401961	2,963072	1,608	324,3708	1,055	85,089	0	1015,42	8,5	10,1	9,7	1	1	1	1	1	1	1	1	1	0	1	-13,178295	275,466382	313,30238	0
15.01.2021	15:03:09	0	48,401899	4,330646	1,701	318,4812	1,055	85,112	0	1015,5	8,5	10,1	9,7	1	1	1	1	1	1	1	1	1	0	1	-13,530655	275,368932	312,488277	0
15.01.2021	15:03:10	0	48,635099	3,646862	1,8885	303,264	1,058	85,114	0	1015,4	8,5	10,1	9,7	1	1	1	1	1	1	1	1	1	0	1	-16,631431	275,493628	309,978428	0
15.01.2021	15:03:11	0	48,401775	2,963077	2,10225	308,808	1,059	85,112	0	1015,44	8,5	10,1	9,7	1	1	1	1	1	1	1	1	1	0	1	-16,631431	275,375307	309,417694	0
15.01.2021	15:03:12	0	48,168452	3,077044	2,22675	312,8544	1,053	85,123	0	1015,4	8,5	10,1	9,7	1	1	1	1	1	1	1	1	1	0	1	-14,023961	275,407215	312,176306	0
15.01.2021	15:03:13	0	48,051423	2,393258	2,19225	305,766	1,053	85,12	0	1015,42	8,5	10	9,7	1	1	1	1	1	1	1	1	1	0	1	-14,65821	275,549842	312,218309	0
15.01.2021	15:03:14	0	47,818437	2,507224	2,1285	286,6392	1,053	85,119	0	1015,36	8,5	10,1	9,7	1	1	1	1	1	1	1	1	1	0	1	-13,178295	275,455174	313,24925	0
15.01.2021	15:03:15	0	48,051636	2,507225	2,05875	299,3904	1,062	85,119	0	1015,44	8,5	10,1	9,7	1	1	1	1	1	1	1	1	1	0	1	-12,403101	275,359373	313,570566	0
15.01.2021	15:03:16	0	48,168204	3,76084	2,06775	308,1096	1,06	85,135	0	1015,5	8,5	10,1	9,7	1	1	1	1	1	1	1	1	1	0	1	-10,641297	275,49042	315,953352	0
15.01.2021	15:03:17	0	48,051513	2,963088	1,971	318,3624	1,055	85,134	0	1015,3	8,5	10,1	9,7	1	1	1	1	1	1	1	1	1	0	1	-10,923185	275,388064	315,18636	0
15.01.2021	15:03:18	0	48,051451	2,96309	1,7715	303,8688	1,057	85,103	0	1015,4	8,5	10,1	9,7	1	1	1	1	1	1	1	1	1	0	1	-10,993658	275,399233	315,168795	0
15.01.2021	15:03:19	0	48,401278	4,102743	1,6575	312,426	1,057	85,132	0	1015,38	8,5	10,1	9,7	1	1	1	1	1	1	1	1	1	0	1	-17,406624	275,500044	309,233662	0
15.01.2021	15:03:20	0	48,284586	4,786536	1,67175	314,7768	1,058	85,124	0	1015,48	8,5	10,1	9,7	1	1	1	1	1	1	1	1	1	0	1	-15,081043	275,540194	311,749696	0
15.01.2021	15:03:21	0	47,934637	2,507235	1,73775	310,2696	1,058	85,131	0	1015,36	8,5	10,1	9,7	1	1	1	1	1	1	1	1	1	0	1	-16,349542	275,42159	309,918837	0
15.01.2021	15:03:22	0	48,284462	4,330681	1,953	310,2732	1,066	85,133	0	1015,5	8,5	10,1	9,7	1	1	1	1	1	1	1	1	1	0	1	-18,957012	275,522518	307,789869	0
15.01.2021	15:03:23	0	47,701255	2,735168	2,06175	313,5708	1,061	85,139	0	1015,36	8,5	10,1	9,7	1	1	1	1	1	1	1	1	1	0	1	-13,883016	275,434377	312,445958	0
15.01.2021	15:03:24	0	48,400967	4,786548	2,02575	313,5888	1,06	85,133	0	1015,46	8,5	10,1	9,7	1	1	1	1	1	1	1	1	1	0	1	-12,121212	275,538586	314,7019	0
15.01.2021	15:03:25	0	48,400905	5,242413	1,923	302,0256	1,062	85,142	0	1015,32	8,5	10,1	9,7	1	1	1	1	1	1	1	1	1	0	1	-18,111346	275,49042	308,483303	0
15.01.2021	15:03:26	0	48,050957	2,735174	1,9035	301,6188	1,06	85,13	0	1015,6	8,5	10,1	9,7	1	1	1	1	1	1	1	1	1	0	1	-15,715292	275,546625	311,145963	0
15.01.2021	15:03:27	0	48,050895	4,330668	1,80825	297,9864	1,058	85,119	0	1015,32	8,5	10,1	9,8	1	1	1	1	1	1	1	1	1	0	1	-11,06413	275,484007	315,500109	0
15.01.2021	15:03:28	0	47,700949	4,216731	1,806	312,4548	1,061	85,141	0	1015,48	8,5	10,1	9,7	1	1	1	1	1	1	1	1	1	0	1	-16,067653	275,538586	310,755459	0
15.01.2021	15:03:29	0	48,284028	4,102768	1,85625	305,3736	1,057	85,113	0	1015,32	8,5	10,1	9,7	1	1	1	1	1	1	1	1	1	0	1	-13,460183	275,503253	313,195322	0
15.01.2021	15:03:30	0	47,700826	3,077059	1,89825	303,1488	1,064	85,129	0	1015,38	8,5	10,1	9,8	1	1	1	1	1	1	1	1	1	0	1	-13,107822	275,394446	313,031951	0
15.01.2021	15:03:31	0	47,934021	3,191046	1,93725	304,3008	1,058	85,108	0	1015,28	8,5	10,1	9,7	1	1	1	1	1	1	1	1	1	0	1	-16,560958	275,346636	309,352396	0
15.01.2021	15:03:32	0	48,050587	4,786571	2,01075	314,0172	1,06	85,124	0	1015,52	8,5	10,1	9,7	1	1	1	1	1	1	1	1	1	0	1	-18,181818	275,43118	308,132003	0
15.01.2021	15:03:33	0	47,584015	3,988812	2,019	297,936	1,057	85,11	0	1015,42	8,5	10,1	9,7	1	1	1	1	1	1	1	1	1	0	1	-17,970402	275,535371	308,837458	0
15.01.2021	15:03:34	0	47,9335	3,53295	2,0265	306,8424	1,061	85,123	0	1015,58	8,5	10	9,7	1	1	1	1	1	1	1	1	1	0	1	-18,463707	275,442374	307,903164	0
15.01.2021	15:03:35	0	47,817147	3,988817	2,09325	298,3608	1,062	85,094	0	1015,42	8,5	10,1	9,7	1	1	1	1	1	1	1	1	1	0	1	-13,178295	275,493628	313,431564	0
15.01.2021	15:03:36	0	48,166967	4,558651	2,1915	304,6644	1,062	85,103	0	1015,32	8,5	10,1	9,7	1	1	1	1	1	1	1	1	1	0	1	-13,248767	275,543409	313,597229	0
15.01.2021	15:03:37	0	47,816689	3,191057	2,21775	303,0912	1,054	85,079	0	1015,38	8,5	10	9,7	1	1	1	1	1	1	1	1	1	0	1	-13,460183	275,461578	312,997717	0
15.01.2021	15:03:38	0	47,583709	2,84916	2,27775	292,1796	1,065	85,087	0	1015,5	8,5	10,1	9,7	1	1	1	1	1	1	1	1	1	0	1	-13,812544	275,554668	313,086875	0
15.01.2021	15:03:39	0	48,050154	2,963128	2,26725	299,4372	1,057	85,076	0	1015,42	8,5	10,1	9,7	1	1	1	1	1	1	1	1	1	0	1	-21,564482	275,545017	305,289143	0
15.01.2021	15:03:40	0	47,816839	4,558635	2,23725	302,0544	1,059	85,08	0	1015,5	8,5	10,1	9,8	1	1	1	1	1	1	1	1	1	0	1	-15,292459	275,487213	311,286983	0
15.01.2021	15:03:41	0	47,583525	2,849165	2,25525	303,5196	1,056	85,055	0	1015,42	8,5	10,1	9,7	1	1	1	1	1	1	1	1	1	0	1	-12,191684	275,341861	313,699065	0
15.01.2021	15:03:42	0	47,70009	3,191067	2,28675	300,8952	1,059	85,071	0	1015,42	8,5	10,1	9,7	1	1	1	1	1	1	1	1	1	0	1	-14,023961	275,524124	312,73054	0
15.01.2021	15:03:43	0	47,933281	3,646936	2,298	300,4632	1,056	85,066	0	1015,42	8,5	10,1	9,7	1	1	1	1	1	1	1	1	1	0	1	-16,913319	275,484007	309,65092	0
15.01.2021	15:03:44	0	47,933219	3,191052	2,286	305,4168	1,062	85,059	0	1015,6	8,5	10,1	9,8	1	1	1	1	1	1	1	1	1	0	1	-11,557435	275,540194	315,273304	0
15.01.2021	15:03:45	0	47,816532	3,646941	2,3445	303,1488	1,058	85,037	0	1015,3	8,5	10,1	9,7	1	1	1	1	1	1	1	1	1	0	1	-11,06413	275,416797	315,181538	0
15.01.2021	15:03:46	0	47,466594	2,849174	2,283	305,4024	1,06	85,046	0	1015,48	8,5	10,1	9,7	1	1	1	1	1	1	1	1	1	0	1	-9,020437	275,356188	316,938147	0
15.01.2021	15:03:47	0	47,583158	3,418991	2,2005	306,0792	1,061	85,036	0	1015,36	8,5	10,1	9,8	1	1	1	1	1	1	1	1	1	0	1	-14,65821	275,493628	311,951649	0
15.01.2021	15:03:48	0	47,233221	2,621244	2,21475	298,9584	1,061	85,045	0	1015,5	8,5	10,1	9,7	1	1	1	1	1	1	1	1	1	0	1	-14,446794	275,359373	311,526873	0
15.01.2021	15:03:49	0	48,049536	4,672655	2,24625	298,2708	1,062	85,041	0	1015,36	8,5	10,1	9,7	1	1	1	1	1	1	1	1	1	0	1	-17,477097	275,427983	308,821574	0
15.01.2021	15:03:50	0	47,582974	4,444723	2,214	300,4596	1,063	85,018	0	1015,34	8,5	10,1	9,7	1	1	1	1	1	1	1	1	1	0	1	-13,107822	275,357781	312,858303	0
15.01.2021	15:03:51	0	47,699538	2,621248	2,11725	301,23	1,057	85,035	0	1015,46	8,5	10,1	9,7	1	1	1	1	1	1	1	1	1	0	1	-17,054264	275,435976	309,282288	0
15.01.2021	15:03:52	0	47,466227	3,532989	2,0805	294,0948	1,058	85,039	0	1015,38	8,5	10,1	9,7	1	1	1	1	1	1	1	1	1	0	1	-13,389711	275,370526	312,636768	0
15.01.2021	15:03:53	0	47,58279	2,963154	2,01225	306,8136	1,053	85,028	0	1015,32	8,5	10,1	9,7	1	1	1	1	1	1	1	1	1	0	1	-17,26568	275,405618	308,927022	0
15.01.2021	15:03:54	0	47,699353	2,963156	2,03925	309,33	1,062	85,034	0	1015,38	8,5	10,1	9,7	1	1	1	1	1	1	1	1	1	0	1	-16,349542	275,400829	309,820472	0
15.01.2021	15:03:55	0	47,349088	3,077125	2,01675	306,0756	1,066	85,032	0	1015,6	8,5	10	9,7	1	1	1	1	1	1	1	1	1	0	1	-13,601128	275,543409	313,244868	0
15.01.2021	15:03:56	0	47,349358	2,849192	1,91925	307,1376	1,06	85,048	0	1015,56	8,5	10,1	9,7	1	1	1	1	1	1	1	1	1	0	1	-16,490486	275,487213	310,088956	0
15.01.2021	15:03:57	0	47,699169	3,533	1,8795	314,8596	1,064	85,031	0	1015,44	8,5	10,1	9,7	1	1	1	1	1	1	1	1	1	0	1	-12,966878	275,541801	313,871489	0
15.01.2021	15:03:58	0	47,582484	2,165389	1,76775	314,3268	1,065	85,028	0	1015,44	8,5	10,1	9,7	1	1	1	1	1	1	1	1	1	0	1	-15,926709	275,456775	310,508424	0
15.01.2021	15:03:59	0	47,465799	2,849197	1,6635	313,5528	1,061	85,032	0	1015,46	8,5	10,1	9,7	1	1	1	1	1	1	1	1	1	0	1	-17,26568	275,354596	308,685364	0
15.01.2021	15:04:00	0	47,5823	4,216817	1,4985	319,9968	1,06	85,014	0	1015,52	8,5	10,1	9,7	1	1	1	1	1	1	1	1	1	0	1	-15,785765	275,408812	310,422067	0
15.01.2021	15:04:01	0	47,5823	4,216817	1,4985	319,9968	1,06	85,014	0	1015,52	8,5	10,1	9,7	1	1	1	1	1	1	1	1	1	0	1	-9,936575	275,501648	316,711321	0
15.01.2021	15:04:02	0	47,582238	4,78666	1,49175	297,5832	1,061	85,015	0	1015,42	8,5	10,1	9,7	1	1	1	1	1	1	1	1	1	0	1	-13,812544	275,506462	312,858183	0
15.01.2021	15:04:03	0	47,465554	3,077141	1,5105	305,6796	1,059	85,001	0	1015,46	8,5	10,1	9,7	1	1	1	1	1	1	1	1	1	0	1	-18,393235	275,360966	307,587975	0
15.01.2021	15:04:04	0	47,232247	2,735238	1,53225	307,1916	1,062	85,008	0	1015,44	8,5	10,1	9,7	1	1	1	1	1	1	1	1	1	0	1	-17,26568	275,378496	308,798545	0
15.01.2021	15:04:05	0	47,698677	4,444764	1,56675	313,5528	1,061	84,985	0	1015,46	8,5	10,1	9,7	1	1	1	1	1	1	1	1	1	0	1	-15,503876	275,508067	311,174463	0
15.01.2021	15:04:06	0	47,698615	5,356514	1,59	315,1512	1,061	84,986	0	1015,48	8,5	10,1	9,7	1	1	1	1	1	1	1	1	1	0	1	-15,503876	275,545017	311,34975	0
15.01.2021	15:04:07	0	47,815176	4,558738	1,58325	312,1956	1,063	84,976	0	1015,54	8,5	10,1	9,7	1	1	1	1	1	1	1	1	1	0	1	-9,44327	275,458376	316,999451	0
15.01.2021	15:04:08	0	47,58187	5,128584	1,66425	309,1176	1,059	84,967	0	1015,44	8,5	10,1	9,7	1	1	1	1	1	1	1	1	1	0	1	-16,983791	275,538586	309,83932	0
15.01.2021	15:04:09	0	47,231942	2,963183	1,71225	299,0556	1,055	84,959	0	1015,36	8,5	10,1	9,7	1	1	1	1	1	1	1	1	1	0	1	-12,544045	275,43118	313,769776	0
15.01.2021	15:04:10	0	47,11526	3,191123	1,79325	293,3748	1,059	84,959	0	1015,38	8,5	10,1	9,7	1	1	1	1	1	1	1	1	1	0	1	-11,839323	275,53055	314,945664	0
15.01.2021	15:04:11	0	47,348442	2,621281	1,797	292,6296	1,062	84,96	0	1015,44	8,5	10,1	9,7	1	1	1	1	1	1	1	1	1	0	1	-15,997181	275,475994	310,529063	0
15.01.2021	15:04:12	0	47,348381	4,78669	1,7025	296,0748	1,059	84,938	0	1015,48	8,5	10,1	9,7	1	1	1	1	1	1	1	1	1	0	1	-14,517266	275,541801	312,321101	0
15.01.2021	15:04:13	0	47,34832	2,735253	1,698	308,1564	1,059	84,954	0	1015,46	8,5	10,1	9,7	1	1	1	1	1	1	1	1	1	0	1	-13,319239	275,48561	313,252602	0
15.01.2021	15:04:14	0	47,231638	4,444789	1,72575	303,606	1,058	84,944	0	1015,5	8,5	10,1	9,7	1	1	1	1	1	1	1	1	1	0	1	-14,164905	275,402425	312,012671	0
15.01.2021	15:04:15	0	47,348198	4,67273	1,85025	308,898	1,061	84,951	0	1015,48	8,5	10,1	9,7	1	1	1	1	1	1	1	1	1	0	1	-16,138125	275,549842	310,738393	0
15.01.2021	15:04:16	0	47,347805	4,786702	1,905	303,9768	1,06	84,952	0	1015,5	8,5	10	9,7	1	1	1	1	1	1	1	1	1	0	1	-16,772375	275,440774	309,586915	0
15.01.2021	15:04:17	0	46,998213	3,874951	1,91625	288,864	1,057	84,932	0	1015,5	8,5	10,1	9,7	1	1	1	1	1	1	1	1	1	0	1	-16,772375	275,540194	310,058364	0
15.01.2021	15:04:18	0	47,464635	2,9632	2,01825	297,972	1,063	84,927	0	1015,48	8,5	10,1	9,7	1	1	1	1	1	1	1	1	1	0	1	-14,587738	275,448773	311,809464	0
15.01.2021	15:04:19	0	47,697481	3,760987	2,14125	304,2432	1,057	84,93	0	1015,54	8,5	10	9,7	1	1	1	1	1	1	1	1	1	0	1	-16,349542	275,540194	310,481197	0
15.01.2021	15:04:20	0	47,464513	4,102897	2,2515	308,8872	1,054	84,912	0	1015,28	8,5	10,1	9,7	1	1	1	1	1	1	1	1	1	0	1	-13,248767	275,418395	313,004471	0
15.01.2021	15:04:21	0	47,114591	3,419083	2,32725	301,6008	1,055	84,919	0	1015,46	8,5	10,1	9,7	1	1	1	1	1	1	1	1	1	0	1	-13,812544	275,535371	312,995316	0
15.01.2021	15:04:22	0	47,23115	3,647024	2,349	300,2148	1,057	84,917	0	1015,38	8,5	10,1	9,7	1	1	1	1	1	1	1	1	1	0	1	-15,010571	275,37212	311,023456	0
15.01.2021	15:04:23	0	46,997849	2,507331	2,349	299,7144	1,058	84,91	0	1015,44	8,5	10,1	9,7	1	1	1	1	1	1	1	1	1	0	1	-15,081043	275,402425	311,096533	0
15.01.2021	15:04:24	0	47,231028	4,102908	2,25675	294,4152	1,055	84,907	0	1015,54	8,5	10,1	9,7	1	1	1	1	1	1	1	1	1	0	1	-15,151515	275,549842	311,725004	0
15.01.2021	15:04:25	0	46,880779	2,507334	2,214	298,674	1,057	84,884	0	1015,52	8,5	10	9,7	1	1	1	1	1	1	1	1	1	0	1	-11,41649	275,410408	314,798907	0
15.01.2021	15:04:26	0	46,997667	3,874973	2,06025	300,7872	1,058	84,878	0	1015,46	8,5	10,1	9,7	1	1	1	1	1	1	1	1	1	0	1	-15,926709	275,496835	310,698362	0
15.01.2021	15:04:27	0	47,464083	4,216885	1,99725	301,9392	1,059	84,891	0	1015,5	8,5	10,1	9,7	1	1	1	1	1	1	1	1	1	0	1	-14,517266	275,357781	311,448859	0
15.01.2021	15:04:28	0	47,464022	3,647038	1,96575	298,6596	1,056	84,882	0	1015,38	8,5	10,1	9,7	1	1	1	1	1	1	1	1	1	0	1	-11,557435	275,506462	315,113292	0
15.01.2021	15:04:29	0	46,880865	4,67277	1,91775	302,454	1,059	84,877	0	1015,5	8,5	10,1	9,7	1	1	1	1	1	1	1	1	1	0	1	-15,292459	275,367339	310,718927	0
15.01.2021	15:04:30	0	47,230662	2,507342	1,938	311,0688	1,055	84,873	0	1015,42	8,5	10,1	9,7	1	1	1	1	1	1	1	1	1	0	1	-14,376321	275,402425	311,801255	0
15.01.2021	15:04:31	0	47,347219	4,102925	1,959	310,23	1,05	84,88	0	1015,42	8,5	10,1	9,7	1	1	1	1	1	1	1	1	1	0	1	-16,560958	275,543409	310,285038	0
15.01.2021	15:04:32	0	47,230539	4,444839	1,99725	316,6092	1,055	84,873	0	1015,38	8,5	10,1	9,7	1	1	1	1	1	1	1	1	1	0	1	-14,164905	275,4152	312,073194	0
15.01.2021	15:04:33	0	47,463715	4,900723	1,97925	327,1644	1,057	84,882	0	1015,36	8,5	10,1	9,7	1	1	1	1	1	1	1	1	1	0	1	-12,05074	275,532157	314,74187	0
15.01.2021	15:04:34	0	47,113799	3,761022	1,91325	316,2888	1,058	84,864	0	1015,44	8,5	10,1	9,7	1	1	1	1	1	1	1	1	1	0	1	-19,097956	275,48561	307,473884	0
15.01.2021	15:04:35	0	47,113738	2,73529	1,81275	328,1508	1,05	84,855	0	1015,48	8,5	10,1	9,7	1	1	1	1	1	1	1	1	1	0	1	-15,151515	275,546625	311,709741	0
15.01.2021	15:04:36	0	46,997059	4,44485	1,665	314,1324	1,053	84,857	0	1015,52	8,5	10,1	9,7	1	1	1	1	1	1	1	1	1	0	1	-17,406624	275,434377	308,92235	0
15.01.2021	15:04:37	0	46,647145	2,621323	1,5405	288,126	1,055	84,865	0	1015,46	8,5	10,1	9,7	1	1	1	1	1	1	1	1	1	0	1	-19,591261	275,349819	306,337166	0
15.01.2021	15:04:38	0	47,230173	2,849266	1,4745	292,6764	1,056	84,871	0	1015,46	8,5	10,1	9,7	1	1	1	1	1	1	1	1	1	0	1	-11,134602	275,458376	315,308119	0
15.01.2021	15:04:39	0	47,230112	5,128682	1,5405	297,2484	1,058	84,868	0	1015,48	8,5	10,1	9,7	1	1	1	1	1	1	1	1	1	0	1	-11,768851	275,359373	314,204815	0
15.01.2021	15:04:40	0	46,996816	3,419124	1,6335	322,2	1,05	84,869	0	1015,4	8,5	10,1	9,7	1	1	1	1	1	1	1	1	1	0	1	-13,460183	275,53055	313,324804	0
15.01.2021	15:04:41	0	46,996755	2,62133	1,662	318,4236	1,054	84,878	0	1015,46	8,5	10,1	9,7	1	1	1	1	1	1	1	1	1	0	1	-16,701903	275,437575	309,642228	0
15.01.2021	15:04:42	0	47,112981	2,849273	1,6545	307,6056	1,054	84,878	0	1015,3	8,5	10	9,7	1	1	1	1	1	1	1	1	1	0	1	-13,953488	275,52573	312,808633	0
15.01.2021	15:04:43	0	47,346484	4,55884	1,74975	310,6512	1,053	84,883	0	1015,46	8,5	10,1	9,7	1	1	1	1	1	1	1	1	1	0	1	-12,896406	275,39285	313,23581	0
15.01.2021	15:04:44	0	47,346423	3,761045	1,84425	310,3236	1,055	84,876	0	1015,4	8,5	10,1	9,7	1	1	1	1	1	1	1	1	1	0	1	-12,614517	275,540194	314,216222	0
15.01.2021	15:04:45	0	47,113128	3,98899	1,8645	309,24	1,05	84,862	0	1015,48	8,5	10,1	9,7	1	1	1	1	1	1	1	1	1	0	1	-12,191684	275,511277	314,501881	0
15.01.2021	15:04:46	0	46,996451	2,735309	1,8105	312,1776	1,055	84,884	0	1015,4	8,5	10,1	9,7	1	1	1	1	1	1	1	1	1	0	1	-13,883016	275,427983	312,415654	0
15.01.2021	15:04:47	0	47,229623	4,102966	1,88625	307,0872	1,05	84,876	0	1015,36	8,5	10,1	9,7	1	1	1	1	1	1	1	1	1	0	1	-16,349542	275,533764	310,450693	0
15.01.2021	15:04:48	0	47,229562	4,672825	1,857	296,1864	1,055	84,871	0	1015,32	8,5	10,1	9,7	1	1	1	1	1	1	1	1	1	0	1	-13,03735	275,455174	313,390195	0
15.01.2021	15:04:49	0	47,346116	4,330914	1,875	299,754	1,055	84,876	0	1015,52	8,5	10,1	9,7	1	1	1	1	1	1	1	1	1	0	1	-17,618041	275,532157	309,17457	0
15.01.2021	15:04:50	0	47,462671	4,444888	1,8735	298,2816	1,056	84,88	0	1015,5	8,5	10,1	9,7	1	1	1	1	1	1	1	1	1	0	1	-13,953488	275,480801	312,59555	0
15.01.2021	15:04:51	0	46,996147	3,305175	1,98375	297,9216	1,047	84,89	0	1015,38	8,5	10,1	9,7	1	1	1	1	1	1	1	1	1	0	1	-14,940099	275,545017	311,913527	0
15.01.2021	15:04:52	0	46,996086	4,90078	2,1075	314,4564	1,052	84,872	0	1015,28	8,5	10,1	9,7	1	1	1	1	1	1	1	1	1	0	1	-16,208598	275,487213	310,370845	0
15.01.2021	15:04:53	0	47,11264	4,786812	2,07	308,0664	1,055	84,882	0	1015,52	8,5	10,1	9,7	1	1	1	1	1	1	1	1	1	0	1	-14,235377	275,543409	312,610619	0
15.01.2021	15:04:54	0	46,995964	3,761069	1,98825	314,0496	1,047	84,882	0	1015,44	8,5	10,1	9,7	1	1	1	1	1	1	1	1	1	0	1	-10,993658	275,480801	315,555381	0
15.01.2021	15:04:55	0	47,462364	4,672846	1,8615	311,3352	1,057	84,887	0	1015,46	8,5	10,1	9,7	1	1	1	1	1	1	1	1	1	0	1	-13,953488	275,546625	312,907767	0
15.01.2021	15:04:56	0	47,112457	2,507382	1,73025	300,4164	1,052	84,896	0	1015,48	8,5	10,1	9,7	1	1	1	1	1	1	1	1	1	0	1	-18,322763	275,475994	308,203481	0
15.01.2021	15:04:57	0	46,645937	2,621356	1,74825	291,96	1,051	84,889	0	1015,5	8,5	10,1	9,7	1	1	1	1	1	1	1	1	1	0	1	-17,758985	275,522518	308,987896	0
15.01.2021	15:04:58	0	46,528936	2,279441	1,68525	317,3832	1,046	84,89	0	1015,58	8,5	10	9,7	1	1	1	1	1	1	1	1	1	0	1	-19,450317	275,407215	306,749949	0
15.01.2021	15:04:59	0	46,76243	3,76108	1,58025	315,3564	1,037	84,891	0	1015,36	8,5	10,1	9,7	1	1	1	1	1	1	1	1	1	0	1	-12,684989	275,373713	313,356586	0
15.01.2021	15:05:00	0	46,995538	4,444919	1,48425	317,0556	1,054	84,903	0	1015,44	8,5	10,1	9,7	1	1	1	1	1	1	1	1	1	0	1	-14,940099	275,536979	311,875387	0
15.01.2021	15:05:01	0	46,995538	4,444919	1,48425	317,0556	1,054	84,903	0	1015,44	8,5	10,1	9,7	1	1	1	1	1	1	1	1	1	0	1	-13,812544	275,545017	313,041081	0
15.01.2021	15:05:02	0	47,112091	3,191226	1,446	314,064	1,056	84,906	0	1015,52	8,5	10,1	9,7	1	1	1	1	1	1	1	1	1	0	1	-15,292459	275,445573	311,089575	0
15.01.2021	15:05:03	0	46,995416	3,191228	1,52325	313,2144	1,056	84,898	0	1015,34	8,5	10,1	9,7	1	1	1	1	1	1	1	1	1	0	1	-14,869626	275,357781	311,096499	0
15.01.2021	15:05:04	0	47,345196	4,672872	1,596	321,0768	1,072	84,908	0	1015,56	8,5	10,1	9,7	1	1	1	1	1	1	1	1	1	0	1	-18,040874	275,482404	308,515765	0
15.01.2021	15:05:05	0	46,87868	2,393424	1,54725	317,7396	1,054	84,901	0	1015,56	8,5	10,1	9,7	1	1	1	1	1	1	1	1	1	0	1	-12,262156	275,378496	313,802069	0
15.01.2021	15:05:06	0	46,878291	3,533152	1,52325	316,926	1,053	84,906	0	1015,56	8,5	10	9,7	1	1	1	1	1	1	1	1	1	0	1	-12,614517	275,501648	314,033378	0
15.01.2021	15:05:07	0	46,761945	3,077263	1,43175	315,1836	1,05	84,884	0	1015,6	8,5	10,1	9,7	1	1	1	1	1	1	1	1	1	0	1	-16,631431	275,349819	309,296997	0
15.01.2021	15:05:08	0	46,995111	2,735347	1,404	316,6524	1,054	84,899	0	1015,42	8,5	10,1	9,7	1	1	1	1	1	1	1	1	1	0	1	-15,081043	275,474391	311,437604	0
15.01.2021	15:05:09	0	46,99505	2,849321	1,347	325,9836	1,053	84,899	0	1015,5	8,5	10,1	9,7	1	1	1	1	1	1	1	1	1	0	1	-11,06413	275,365745	314,939711	0
15.01.2021	15:05:10	0	46,878048	3,191242	1,31925	325,4724	1,055	84,908	0	1015,44	8,5	10	9,7	1	1	1	1	1	1	1	1	1	0	1	-14,587738	275,439175	311,763972	0
15.01.2021	15:05:11	0	46,877987	2,735335	1,31175	321,8868	1,055	84,882	0	1015,46	8,5	10	9,8	1	1	1	1	1	1	1	1	1	0	1	-14,65821	275,512883	312,04297	0
15.01.2021	15:05:12	0	46,645029	3,191246	1,3065	310,968	1,052	84,907	0	1015,52	8,5	10,1	9,7	1	1	1	1	1	1	1	1	1	0	1	-13,389711	275,416797	312,855957	0
15.01.2021	15:05:13	0	46,878193	4,217006	1,34925	300,87	1,058	84,902	0	1015,42	8,5	10,1	9,7	1	1	1	1	1	1	1	1	1	0	1	-15,221987	275,532157	311,570623	0
15.01.2021	15:05:14	0	47,227969	3,19125	1,36725	302,8176	1,052	84,904	0	1015,3	8,5	10,1	9,7	1	1	1	1	1	1	1	1	1	0	1	-13,248767	275,400829	312,921247	0
15.01.2021	15:05:15	0	47,111296	3,077278	1,33425	313,4988	1,053	84,898	0	1015,46	8,5	10,1	9,7	1	1	1	1	1	1	1	1	1	0	1	-11,980268	275,353003	313,963237	0
15.01.2021	15:05:16	0	46,761399	2,621387	1,296	308,0952	1,046	84,9	0	1015,38	8,5	10,1	9,7	1	1	1	1	1	1	1	1	1	0	1	-16,560958	275,396041	309,586374	0
15.01.2021	15:05:17	0	46,994562	2,963309	1,254	309,8376	1,055	84,901	0	1015,56	8,5	10,1	9,7	1	1	1	1	1	1	1	1	1	0	1	-15,362932	275,375307	310,686193	0
15.01.2021	15:05:18	0	47,227724	3,305231	1,2615	300,4704	1,049	84,891	0	1015,34	8,5	10,1	9,7	1	1	1	1	1	1	1	1	1	0	1	-11,134602	275,407215	315,065665	0
15.01.2021	15:05:19	0	46,761217	3,989074	1,3755	301,2336	1,055	84,905	0	1015,42	8,5	10,1	9,7	1	1	1	1	1	1	1	1	1	0	1	-15,64482	275,553059	311,246964	0
15.01.2021	15:05:20	0	46,99405	2,165499	1,461	301,2336	1,05	84,899	0	1015,4	8,5	10	9,7	1	1	1	1	1	1	1	1	1	0	1	-19,943622	275,538586	306,87949	0
15.01.2021	15:05:21	0	46,994318	3,305237	1,41	309,2004	1,055	84,908	0	1015,52	8,3	10,1	9,7	1	1	1	1	1	1	1	1	1	0	1	-14,869626	275,461578	311,588274	0
15.01.2021	15:05:22	0	46,994257	4,558951	1,446	311,3892	1,052	84,898	0	1015,5	8,5	10,1	9,7	1	1	1	1	1	1	1	1	1	0	1	-17,26568	275,356188	308,692904	0
15.01.2021	15:05:23	0	47,110807	4,558954	1,4325	316,6416	1,048	84,911	0	1015,42	8,5	10,1	9,7	1	1	1	1	1	1	1	1	1	0	1	-13,389711	275,466382	313,090964	0
15.01.2021	15:05:24	0	47,110745	4,558956	1,4115	319,968	1,054	84,892	0	1015,44	8,5	10,1	9,7	1	1	1	1	1	1	1	1	1	0	1	-15,433404	275,359373	310,540263	0
15.01.2021	15:05:25	0	47,110684	4,444985	1,413	320,7168	1,051	84,909	0	1015,36	8,5	10,1	9,7	1	1	1	1	1	1	1	1	1	0	1	-12,332629	275,501648	314,315267	0
15.01.2021	15:05:26	0	47,110293	4,444988	1,46925	323,6544	1,051	84,918	0	1015,44	8,5	10	9,7	1	1	1	1	1	1	1	1	1	0	1	-12,755462	275,52573	314,00666	0
15.01.2021	15:05:27	0	46,877341	2,849353	1,56375	326,3184	1,058	84,927	0	1015,42	8,5	10,1	9,7	1	1	1	1	1	1	1	1	1	0	1	-18,322763	275,487213	308,25668	0
15.01.2021	15:05:28	0	47,227111	4,90089	1,608	325,0944	1,054	84,933	0	1015,4	8,5	10,1	9,7	1	1	1	1	1	1	1	1	1	0	1	-13,530655	275,535371	313,277204	0
15.01.2021	15:05:29	0	47,460269	4,786919	1,57575	314,3664	1,045	84,927	0	1015,38	8,5	10,1	9,7	1	1	1	1	1	1	1	1	1	0	1	-17,124736	275,419992	309,136072	0
15.01.2021	15:05:30	0	47,110378	5,242819	1,611	296,4708	1,055	84,933	0	1015,46	8,5	10,1	9,7	1	1	1	1	1	1	1	1	1	0	1	-12,473573	275,543409	314,372423	0
15.01.2021	15:05:31	0	46,527268	2,279488	1,52325	308,8404	1,056	84,937	0	1015,5	8,5	10,1	9,7	1	1	1	1	1	1	1	1	1	0	1	-12,614517	275,464781	313,858565	0
15.01.2021	15:05:32	0	46,993646	4,786928	1,4625	299,0052	1,056	84,948	0	1015,42	8,5	10,1	9,7	1	1	1	1	1	1	1	1	1	0	1	-13,107822	275,353003	312,835682	0
15.01.2021	15:05:33	0	47,109864	2,621415	1,362	303,9012	1,048	84,941	0	1015,4	8,5	10	9,7	1	1	1	1	1	1	1	1	1	0	1	-16,067653	275,49844	310,565025	0
15.01.2021	15:05:34	0	46,643696	2,393467	1,3305	304,218	1,047	84,936	0	1015,38	8,5	10,1	9,7	1	1	1	1	1	1	1	1	1	0	1	-10,852713	275,353003	315,090791	0
15.01.2021	15:05:35	0	46,527026	4,103089	1,31175	298,2528	1,049	84,942	0	1015,44	8,5	10,1	9,7	1	1	1	1	1	1	1	1	1	0	1	-13,812544	275,407215	312,387723	0
15.01.2021	15:05:36	0	46,876792	3,0773	1,3305	303,7968	1,055	84,95	0	1015,34	8,5	10,1	9,8	1	1	1	1	1	1	1	1	1	0	1	-14,517266	275,381685	311,562063	0
15.01.2021	15:05:37	0	46,876403	2,393472	1,317	293,688	1,05	84,931	0	1015,34	8,5	10	9,7	1	1	1	1	1	1	1	1	1	0	1	-13,178295	275,484007	313,385945	0
15.01.2021	15:05:38	0	47,226496	4,445021	1,4325	297,8964	1,059	84,958	0	1015,56	8,5	10,1	9,7	1	1	1	1	1	1	1	1	1	0	1	-19,732206	275,536979	307,08328	0
15.01.2021	15:05:39	0	46,876609	2,393475	1,45875	312,4404	1,054	84,945	0	1015,5	8,5	10,1	9,7	1	1	1	1	1	1	1	1	1	0	1	-12,755462	275,528943	314,021903	0
15.01.2021	15:05:40	0	46,759613	2,849376	1,47525	309,2436	1,059	84,945	0	1015,36	8,5	10	9,7	1	1	1	1	1	1	1	1	1	0	1	-13,319239	275,440774	313,040051	0
15.01.2021	15:05:41	0	46,876487	4,103104	1,47525	304,9524	1,059	84,965	0	1015,36	8,5	10,1	9,7	1	1	1	1	1	1	1	1	1	0	1	-19,309373	275,53055	307,475614	0
15.01.2021	15:05:42	0	46,759818	4,217082	1,3935	306,1008	1,054	84,947	0	1015,46	8,5	10,1	9,7	1	1	1	1	1	1	1	1	1	0	1	-16,560958	275,514488	310,147836	0
15.01.2021	15:05:43	0	47,342465	4,786961	1,26975	315,1872	1,062	84,96	0	1015,44	8,5	10	9,7	1	1	1	1	1	1	1	1	1	0	1	-10,500352	275,522518	316,246529	0
15.01.2021	15:05:44	0	46,992583	3,647211	1,1625	318,1716	1,054	84,963	0	1015,38	8,5	10	9,7	1	1	1	1	1	1	1	1	1	0	1	-14,094433	275,440774	312,264857	0
15.01.2021	15:05:45	0	46,526421	2,849385	1,1415	310,6476	1,057	84,982	0	1015,5	8,5	10,1	9,7	1	1	1	1	1	1	1	1	1	0	1	-13,953488	275,354596	311,997556	0
15.01.2021	15:05:46	0	46,992461	2,621436	1,128	312,12	1,061	84,974	0	1015,34	8,5	10	9,7	1	1	1	1	1	1	1	1	1	0	1	-13,248767	275,466382	313,231908	0
15.01.2021	15:05:47	0	47,34255	4,445046	1,11975	306,1512	1,058	84,966	0	1015,38	8,5	10,1	9,7	1	1	1	1	1	1	1	1	1	0	1	-13,742072	275,559495	313,180254	0
15.01.2021	15:05:48	0	46,875732	4,217098	1,17375	311,0796	1,058	84,97	0	1015,34	8,5	10	9,7	1	1	1	1	1	1	1	1	1	0	1	-14,023961	275,408812	312,183871	0
15.01.2021	15:05:49	0	46,759392	4,217101	1,24725	309,474	1,059	84,988	0	1015,46	8,3	10,1	9,7	1	1	1	1	1	1	1	1	1	0	1	-13,953488	275,53055	312,831499	0
15.01.2021	15:05:50	0	46,992216	2,96337	1,2945	312,1632	1,064	84,983	0	1015,5	8,5	10	9,7	1	1	1	1	1	1	1	1	1	0	1	-15,081043	275,394446	311,058731	0
15.01.2021	15:05:51	0	46,875549	3,419275	1,26675	305,3592	1,061	84,987	0	1015,48	8,5	10	9,7	1	1	1	1	1	1	1	1	1	0	1	-13,601128	275,496835	313,023944	0
15.01.2021	15:05:52	0	47,109029	4,672984	1,2555	302,4792	1,059	84,978	0	1015,42	8,5	10,1	9,8	1	1	1	1	1	1	1	1	1	0	1	-9,725159	275,545017	317,128467	0
15.01.2021	15:05:53	0	46,759149	2,849399	1,24875	292,212	1,062	84,993	0	1015,6	8,5	10,1	9,7	1	1	1	1	1	1	1	1	1	0	1	-13,883016	275,493628	312,726842	0
15.01.2021	15:05:54	0	46,642481	3,191329	1,1955	281,7288	1,059	84,994	0	1015,5	8,5	10,1	9,7	1	1	1	1	1	1	1	1	1	0	1	-11,275546	275,412005	314,947418	0
15.01.2021	15:05:55	0	46,875633	3,191312	1,13325	294,1992	1,066	84,998	0	1015,46	8,5	10,1	9,8	1	1	1	1	1	1	1	1	1	0	1	-13,03735	275,548234	313,831537	0
15.01.2021	15:05:56	0	46,991848	4,787	1,11075	284,4396	1,065	85,001	0	1015,32	8,5	10	9,7	1	1	1	1	1	1	1	1	1	0	1	-13,883016	275,400829	312,286998	0
15.01.2021	15:05:57	0	46,758905	4,445074	1,0395	303,4728	1,061	84,989	0	1015,38	8,5	10,1	9,7	1	1	1	1	1	1	1	1	1	0	1	-12,896406	275,496835	313,728665	0
15.01.2021	15:05:58	0	46,641912	2,849408	1,01625	334,5696	1,058	84,997	0	1015,5	8,5	10	9,7	1	1	1	1	1	1	1	1	1	0	1	-14,65821	275,49844	311,974469	0
15.01.2021	15:05:59	0	46,875388	2,735434	1,0395	315,8496	1,062	85	0	1015,36	8,5	10,1	9,7	1	1	1	1	1	1	1	1	1	0	1	-14,65821	275,553059	312,233575	0
15.01.2021	15:06:00	0	46,642056	4,445085	1,10475	313,326	1,066	84,999	0	1015,48	8,5	10,1	9,7	1	1	1	1	1	1	1	1	1	0	1	-13,389711	275,447173	312,999907	0
15.01.2021	15:06:01	0	46,642056	4,445085	1,10475	313,326	1,066	84,999	0	1015,48	8,5	10,1	9,7	1	1	1	1	1	1	1	1	1	0	1	-14,305849	275,538586	312,517263	0
15.01.2021	15:06:02	0	47,108085	4,786989	1,21425	319,698	1,062	85,005	0	1015,36	8,5	10	9,8	1	1	1	1	1	1	1	1	1	0	1	-17,124736	275,423188	309,151215	0
15.01.2021	15:06:03	0	46,758211	2,279534	1,32	324,1764	1,064	85,011	0	1015,42	8,3	10	9,7	1	1	1	1	1	1	1	1	1	0	1	-15,010571	275,535371	311,797289	0
15.01.2021	15:06:04	0	46,758151	2,849419	1,39575	301,5648	1,059	85,012	0	1015,54	8,5	10	9,7	1	1	1	1	1	1	1	1	1	0	1	-11,839323	275,445573	314,542711	0
15.01.2021	15:06:05	0	46,991626	3,647259	1,5675	300,7872	1,069	85,023	0	1015,44	8,4	10,1	9,7	1	1	1	1	1	1	1	1	1	0	1	-15,715292	275,538586	311,107819	0
15.01.2021	15:06:06	0	46,991236	2,621469	1,572	302,436	1,067	85,025	0	1015,5	8,5	10	9,7	1	1	1	1	1	1	1	1	1	0	1	-14,235377	275,43118	312,078444	0
15.01.2021	15:06:07	0	47,108108	5,242941	1,5885	297,9144	1,067	85,022	0	1015,58	8,5	10,1	9,7	1	1	1	1	1	1	1	1	1	0	1	-11,557435	275,353003	314,38607	0
15.01.2021	15:06:08	0	46,87451	4,217151	1,671	294,8472	1,07	85,025	0	1015,4	8,5	10	9,7	1	1	1	1	1	1	1	1	1	0	1	-15,926709	275,495231	310,690755	0
15.01.2021	15:06:09	0	46,524639	2,735434	1,71375	320,0184	1,067	85,028	0	1015,6	8,5	10	9,8	1	1	1	1	1	1	1	1	1	0	1	-12,755462	275,373713	313,286114	0
15.01.2021	15:06:10	0	47,107923	4,331133	1,66725	328,6296	1,061	85,026	0	1015,46	8,5	10,1	9,7	1	1	1	1	1	1	1	1	1	0	1	-13,883016	275,434377	312,445958	0
15.01.2021	15:06:11	0	46,758051	4,217159	1,63575	319,5252	1,065	85,016	0	1015,56	8,3	10,1	9,7	1	1	1	1	1	1	1	1	1	0	1	-15,64482	275,370526	310,381659	0
15.01.2021	15:06:12	0	46,874593	2,621479	1,659	317,7072	1,065	85,031	0	1015,4	8,5	10,1	9,7	1	1	1	1	1	1	1	1	1	0	1	-10,147992	275,386469	315,953999	0
15.01.2021	15:06:13	0	46,640999	3,077371	1,662	323,7408	1,063	85,023	0	1015,38	8,5	10	9,8	1	1	1	1	1	1	1	1	1	0	1	-12,614517	275,368932	313,404415	0
15.01.2021	15:06:14	0	46,524662	4,217167	1,65225	317,3724	1,065	85,034	0	1015,48	8,5	10,1	9,7	1	1	1	1	1	1	1	1	1	0	1	-15,926709	275,532157	310,865901	0
15.01.2021	15:06:15	0	46,757479	3,989214	1,62825	327,4632	1,062	85,032	0	1015,3	8,5	10	9,7	1	1	1	1	1	1	1	1	1	0	1	-12,966878	275,503253	313,688627	0
15.01.2021	15:06:16	0	46,52454	2,849423	1,6605	330,3036	1,07	85,027	0	1015,44	8,5	10,1	9,8	1	1	1	1	1	1	1	1	1	0	1	-15,574348	275,553059	311,317437	0
15.01.2021	15:06:17	0	46,524153	3,989219	1,74975	325,494	1,065	85,047	0	1015,54	8,3	10	9,7	1	1	1	1	1	1	1	1	1	0	1	-11,839323	275,503253	314,816182	0
15.01.2021	15:06:18	0	46,990829	4,103199	1,74075	314,3844	1,066	85,021	0	1015,38	8,4	10,1	9,7	1	1	1	1	1	1	1	1	1	0	1	-15,503876	275,480801	311,045163	0
15.01.2021	15:06:19	0	46,640633	4,331158	1,72875	310,662	1,064	85,027	0	1015,4	8,5	10	9,7	1	1	1	1	1	1	1	1	1	0	1	-11,346018	275,536979	315,469467	0
15.01.2021	15:06:20	0	46,640899	2,73547	1,69275	304,2324	1,07	85,025	0	1015,42	8,5	10,1	9,7	1	1	1	1	1	1	1	1	1	0	1	-12,825934	275,506462	313,844793	0
15.01.2021	15:06:21	0	46,524236	2,735455	1,60875	308,7756	1,067	85,046	0	1015,5	8,5	10,1	9,8	1	1	1	1	1	1	1	1	1	0	1	-9,302326	275,543409	317,54367	0
15.01.2021	15:06:22	0	46,640451	3,647276	1,55025	316,206	1,072	85,053	0	1015,58	8,5	10	9,8	1	1	1	1	1	1	1	1	1	0	1	-15,292459	275,504857	311,370656	0
15.01.2021	15:06:23	0	46,524115	2,735475	1,45275	315,0828	1,076	85,052	0	1015,3	8,3	10,1	9,7	1	1	1	1	1	1	1	1	1	0	1	-12,825934	275,484007	313,738305	0
15.01.2021	15:06:24	0	46,640656	2,849455	1,37175	307,1484	1,074	85,062	0	1015,42	8,5	10,1	9,7	1	1	1	1	1	1	1	1	1	0	1	-15,997181	275,546625	310,864075	0
15.01.2021	15:06:25	0	46,873798	2,849457	1,45425	316,9044	1,074	85,063	0	1015,46	8,5	10,1	9,7	1	1	1	1	1	1	1	1	1	0	1	-15,151515	275,496835	311,473556	0
15.01.2021	15:06:26	0	46,756807	2,963437	1,47975	312,156	1,074	85,06	0	1015,4	8,5	10	9,7	1	1	1	1	1	1	1	1	1	0	1	-15,574348	275,365745	310,429493	0
15.01.2021	15:06:27	0	46,990276	3,191395	1,5225	324,0468	1,072	85,044	0	1015,48	8,5	10,1	9,7	1	1	1	1	1	1	1	1	1	0	1	-14,094433	275,488817	312,492613	0
15.01.2021	15:06:28	0	46,640085	3,533333	1,50675	318,7908	1,072	85,057	0	1015,34	8,5	10	9,7	1	1	1	1	1	1	1	1	1	0	1	-10,42988	275,540194	316,400859	0
15.01.2021	15:06:29	0	46,990153	3,419356	1,47075	321,8616	1,069	85,055	0	1015,44	8,5	10,1	9,7	1	1	1	1	1	1	1	1	1	0	1	-10,923185	275,419992	315,337622	0
15.01.2021	15:06:30	0	46,523363	2,50753	1,434	330,0516	1,072	85,068	0	1015,36	8,5	10	9,7	1	1	1	1	1	1	1	1	1	0	1	-16,631431	275,546625	310,229825	0
15.01.2021	15:06:31	0	46,873102	4,103233	1,575	322,848	1,067	85,058	0	1015,36	8,5	10	9,7	1	1	1	1	1	1	1	1	1	0	1	-10,42988	275,419992	315,830927	0
15.01.2021	15:06:32	0	46,639841	2,73549	1,62975	326,0196	1,071	85,068	0	1015,38	8,5	10	9,7	1	1	1	1	1	1	1	1	1	0	1	-14,517266	275,536979	312,29822	0
15.01.2021	15:06:33	0	46,63978	3,077428	1,62975	324,4176	1,079	85,076	0	1015,48	8,5	10	9,7	1	1	1	1	1	1	1	1	1	0	1	-14,869626	275,412005	311,353337	0
15.01.2021	15:06:34	0	46,52312	2,963452	1,6365	321,8436	1,075	85,079	0	1015,44	8,5	10	9,7	1	1	1	1	1	1	1	1	1	0	1	-17,124736	275,538586	309,698376	0
15.01.2021	15:06:35	0	46,639985	3,761306	1,674	318,1068	1,075	85,079	0	1015,44	8,5	10,1	9,7	1	1	1	1	1	1	1	1	1	0	1	-13,248767	275,514488	313,460028	0
15.01.2021	15:06:36	0	46,873123	5,243005	1,68	324,504	1,068	85,081	0	1015,48	8,5	10,1	9,8	1	1	1	1	1	1	1	1	1	0	1	-15,221987	275,416797	311,023681	0
15.01.2021	15:06:37	0	46,756462	2,849478	1,6695	319,9284	1,074	85,076	0	1015,46	8,5	10,1	9,7	1	1	1	1	1	1	1	1	1	0	1	-11,909796	275,396041	314,237537	0
15.01.2021	15:06:38	0	46,756401	4,559168	1,63725	322,9416	1,065	85,065	0	1015,36	8,3	10,1	9,7	1	1	1	1	1	1	1	1	1	0	1	-13,178295	275,488817	313,408751	0
15.01.2021	15:06:39	0	46,639741	4,103253	1,5465	336,4596	1,072	85,076	0	1015,64	8,5	10,1	9,7	1	1	1	1	1	1	1	1	1	0	1	-17,477097	275,553059	309,414688	0
15.01.2021	15:06:40	0	46,756279	4,673153	1,41675	326,52	1,078	85,081	0	1015,38	8,5	10,1	9,7	1	1	1	1	1	1	1	1	1	0	1	-13,742072	275,527337	313,027671	0
15.01.2021	15:06:41	0	46,756218	2,735506	1,3065	330,678	1,07	85,066	0	1015,28	8,5	10,1	9,7	1	1	1	1	1	1	1	1	1	0	1	-16,349542	275,405618	309,84316	0
15.01.2021	15:06:42	0	46,756156	3,533364	1,19925	328,5108	1,076	85,09	0	1015,52	8,5	10,1	9,7	1	1	1	1	1	1	1	1	1	0	1	-12,755462	275,55145	314,12869	0
15.01.2021	15:06:43	0	46,522898	3,305407	1,113	330,0552	1,075	85,07	0	1015,38	8,5	10,1	9,7	1	1	1	1	1	1	1	1	1	0	1	-14,235377	275,514488	312,473418	0
15.01.2021	15:06:44	0	46,756034	2,279579	1,03425	328,9104	1,081	85,094	0	1015,52	8,5	10,1	9,8	1	1	1	1	1	1	1	1	1	0	1	-11,486963	275,504857	315,176153	0
15.01.2021	15:06:45	0	46,522776	2,507553	1,0215	315,9036	1,081	85,081	0	1015,46	8,5	10,1	9,7	1	1	1	1	1	1	1	1	1	0	1	-15,926709	275,364152	310,069587	0
15.01.2021	15:06:46	0	46,522389	3,191414	0,9975	308,5596	1,077	85,093	0	1015,46	8,5	10	9,8	1	1	1	1	1	1	1	1	1	0	1	-13,530655	275,501648	313,11724	0
15.01.2021	15:06:47	0	46,639252	4,445214	0,95025	313,2036	1,07	85,099	0	1015,42	8,3	10,1	9,7	1	1	1	1	1	1	1	1	1	0	1	-15,715292	275,423188	310,560658	0
15.01.2021	15:06:48	0	46,988985	3,761337	0,8985	332,4024	1,079	85,1	0	1015,48	8,5	10,1	9,7	1	1	1	1	1	1	1	1	1	0	1	-12,825934	275,541801	314,012433	0
15.01.2021	15:06:49	0	47,105521	4,673179	0,87225	324,3456	1,077	85,086	0	1015,42	8,5	10,1	9,7	1	1	1	1	1	1	1	1	1	0	1	-12,332629	275,474391	314,186018	0
15.01.2021	15:06:50	0	46,522145	3,191441	0,858	308,5884	1,072	85,091	0	1015,44	8,5	10	9,7	1	1	1	1	1	1	1	1	1	0	1	-14,728682	275,375307	311,320443	0
15.01.2021	15:06:51	0	46,872203	4,445225	0,849	304,938	1,08	85,094	0	1015,48	8,3	10,1	9,7	1	1	1	1	1	1	1	1	1	0	1	-15,151515	275,511277	311,54205	0
15.01.2021	15:06:52	0	46,289155	2,963485	0,79125	313,6572	1,079	85,084	0	1015,44	8,5	10,1	9,7	1	1	1	1	1	1	1	1	1	0	1	-13,107822	275,554668	313,791596	0
15.01.2021	15:06:53	0	46,988677	4,787142	0,7845	311,7204	1,083	85,087	0	1015,46	8,5	10,1	9,8	1	1	1	1	1	1	1	1	1	0	1	-17,547569	275,511277	309,145997	0
15.01.2021	15:06:54	0	46,522228	3,761351	0,8025	313,9956	1,078	85,088	0	1015,46	8,5	10,1	9,7	1	1	1	1	1	1	1	1	1	0	1	-15,221987	275,38009	310,84979	0
15.01.2021	15:06:55	0	46,521841	3,989314	0,86325	321,858	1,075	85,099	0	1015,38	8,3	10	9,7	1	1	1	1	1	1	1	1	1	0	1	-14,094433	275,461578	312,363467	0
15.01.2021	15:06:56	0	46,405184	3,875336	0,86625	311,0256	1,08	85,091	0	1015,44	8,3	10	9,7	1	1	1	1	1	1	1	1	1	0	1	-15,574348	275,351411	310,361618	0
15.01.2021	15:06:57	0	46,75491	4,673203	0,90525	288,1548	1,077	85,088	0	1015,4	8,5	10	9,7	1	1	1	1	1	1	1	1	1	0	1	-13,319239	275,453574	313,100719	0
15.01.2021	15:06:58	0	46,755177	4,103302	0,99975	293,364	1,078	85,082	0	1015,4	8,5	10,1	9,7	1	1	1	1	1	1	1	1	1	0	1	-11,486963	275,370526	314,539517	0
15.01.2021	15:06:59	0	46,871712	3,989324	1,104	326,3004	1,086	85,106	0	1015,5	8,3	10,1	9,7	1	1	1	1	1	1	1	1	1	0	1	-16,772375	275,559495	310,149951	0
15.01.2021	15:07:00	0	46,405205	3,647387	1,18425	320,3568	1,084	85,1	0	1015,44	8,5	10,1	9,7	1	1	1	1	1	1	1	1	1	0	1	-18,393235	275,434377	307,935739	0
15.01.2021	15:07:01	0	46,405205	3,647387	1,18425	320,3568	1,084	85,1	0	1015,44	8,5	10,1	9,7	1	1	1	1	1	1	1	1	1	0	1	-13,6716	275,535371	313,13626	0
15.01.2021	15:07:02	0	46,754931	2,735542	1,1925	310,2372	1,08	85,097	0	1015,42	8,5	10,1	9,7	1	1	1	1	1	1	1	1	1	0	1	-14,446794	275,49844	312,185885	0
15.01.2021	15:07:03	0	46,405083	2,507582	1,1985	312,4296	1,081	85,093	0	1015,42	8,5	10,1	9,7	1	1	1	1	1	1	1	1	1	0	1	-12,966878	275,416797	313,27879	0
15.01.2021	15:07:04	0	46,754809	4,33128	1,1325	313,1496	1,079	85,091	0	1015,34	8,5	10,1	9,7	1	1	1	1	1	1	1	1	1	0	1	-10,641297	275,501648	316,006599	0
15.01.2021	15:07:05	0	46,404961	2,621566	0,9855	312,5052	1,085	85,097	0	1015,44	8,5	10,1	9,7	1	1	1	1	1	1	1	1	1	0	1	-10,923185	275,360966	315,058024	0
15.01.2021	15:07:06	0	46,521496	3,76138	0,90525	318,4344	1,08	85,105	0	1015,4	8,5	10,1	9,7	1	1	1	1	1	1	1	1	1	0	1	-14,376321	275,455174	312,051224	0
15.01.2021	15:07:07	0	46,521435	4,559251	0,84075	317,0124	1,081	85,099	0	1015,42	8,5	10,1	9,7	1	1	1	1	1	1	1	1	1	0	1	-15,715292	275,549842	311,161226	0
15.01.2021	15:07:08	0	46,637968	2,849534	0,8265	309,2076	1,084	85,092	0	1015,42	8,5	10,1	9,7	1	1	1	1	1	1	1	1	1	0	1	-14,517266	275,423188	311,758685	0
15.01.2021	15:07:09	0	46,288123	3,077498	0,813	301,7268	1,086	85,097	0	1015,4	8,5	10,1	9,7	1	1	1	1	1	1	1	1	1	0	1	-13,530655	275,514488	313,178139	0
15.01.2021	15:07:10	0	46,287738	3,419445	0,777	297,2016	1,086	85,093	0	1015,5	8,5	10	9,7	1	1	1	1	1	1	1	1	1	0	1	-15,151515	275,375307	310,89761	0
15.01.2021	15:07:11	0	46,404596	4,673244	0,7695	311,4216	1,085	85,1	0	1015,48	8,5	10,1	9,7	1	1	1	1	1	1	1	1	1	0	1	-12,896406	275,527337	313,873337	0
15.01.2021	15:07:12	0	46,521129	2,279633	0,801	310,6656	1,084	85,107	0	1015,52	8,5	10,1	9,7	1	1	1	1	1	1	1	1	1	0	1	-17,054264	275,389659	309,062838	0
15.01.2021	15:07:13	0	46,870851	4,673222	0,83775	307,1808	1,093	85,094	0	1015,48	8,5	10,1	9,8	1	1	1	1	1	1	1	1	1	0	1	-12,544045	275,445573	313,83799	0
15.01.2021	15:07:14	0	46,521007	4,331307	0,8865	309,9636	1,088	85,107	0	1015,5	8,3	10,1	9,7	1	1	1	1	1	1	1	1	1	0	1	-13,248767	275,375307	312,800358	0
15.01.2021	15:07:15	0	46,171165	3,761401	0,94575	310,2696	1,086	85,089	0	1015,34	8,3	10,1	9,7	1	1	1	1	1	1	1	1	1	0	1	-16,631431	275,456775	309,803702	0
15.01.2021	15:07:16	0	46,520885	3,533439	0,948	300,1284	1,085	85,106	0	1015,52	8,3	10,1	9,7	1	1	1	1	1	1	1	1	1	0	1	-15,010571	275,561104	311,919392	0
15.01.2021	15:07:17	0	46,987198	4,787215	0,987	298,7604	1,088	85,105	0	1015,4	8,5	10,1	9,8	1	1	1	1	1	1	1	1	1	0	1	-16,420014	275,463179	310,045477	0
15.01.2021	15:07:18	0	46,520763	4,559282	1,07025	302,436	1,088	85,104	0	1015,54	8,5	10,1	9,7	1	1	1	1	1	1	1	1	1	0	1	-14,940099	275,378496	311,124127	0
15.01.2021	15:07:19	0	46,637295	3,875392	1,16175	305,388	1,089	85,084	0	1015,26	8,3	10,1	9,7	1	1	1	1	1	1	1	1	1	0	1	-10,993658	275,410408	315,22174	0
15.01.2021	15:07:20	0	46,520315	3,989353	1,18425	303,282	1,089	85,101	0	1015,4	8,5	10	9,8	1	1	1	1	1	1	1	1	1	0	1	-9,161381	275,506462	317,509346	0
15.01.2021	15:07:21	0	46,170801	2,621592	1,179	305,0172	1,092	85,087	0	1015,42	8,5	10,1	9,7	1	1	1	1	1	1	1	1	1	0	1	-12,825934	275,362559	313,162819	0
15.01.2021	15:07:22	0	46,637111	4,103365	1,15725	326,0052	1,085	85,093	0	1015,5	8,5	10,1	9,7	1	1	1	1	1	1	1	1	1	0	1	-14,094433	275,524124	312,660068	0
15.01.2021	15:07:23	0	46,753642	4,445314	1,12125	333,4212	1,093	85,089	0	1015,54	8,5	10,1	9,7	1	1	1	1	1	1	1	1	1	0	1	-12,05074	275,368932	313,968193	0
15.01.2021	15:07:24	0	46,403804	3,875405	1,02525	324,45	1,09	85,1	0	1015,4	8,5	10,1	9,7	1	1	1	1	1	1	1	1	1	0	1	-13,03735	275,504857	313,625766	0
15.01.2021	15:07:25	0	46,170558	2,735582	0,99825	313,2684	1,088	85,09	0	1015,34	8,5	10,1	9,7	1	1	1	1	1	1	1	1	1	0	1	-15,926709	275,384874	310,167727	0
15.01.2021	15:07:26	0	46,520274	4,103375	0,96	305,7624	1,088	85,086	0	1015,4	8,5	10,1	9,7	1	1	1	1	1	1	1	1	1	0	1	-17,829457	275,435976	308,507095	0
15.01.2021	15:07:27	0	46,287029	4,331343	1,01175	298,8324	1,09	85,1	0	1015,52	8,5	10,1	9,7	1	1	1	1	1	1	1	1	1	0	1	-12,614517	275,5177	314,10951	0
15.01.2021	15:07:28	0	46,40356	3,533466	1,10025	302,832	1,089	85,091	0	1015,46	8,5	10,1	9,7	1	1	1	1	1	1	1	1	1	0	1	-14,869626	275,554668	312,029792	0
15.01.2021	15:07:29	0	46,286907	2,963554	1,248	295,5276	1,096	85,091	0	1015,34	8,3	10,1	9,7	1	1	1	1	1	1	1	1	1	0	1	-13,601128	275,418395	312,65211	0
15.01.2021	15:07:30	0	46,053663	3,305505	1,365	297,2376	1,087	85,087	0	1015,42	8,5	10,1	9,7	1	1	1	1	1	1	1	1	1	0	1	-11,980268	275,378496	314,083958	0
15.01.2021	15:07:31	0	46,403377	4,787286	1,506	303,246	1,096	85,08	0	1015,46	8,5	10,1	9,7	1	1	1	1	1	1	1	1	1	0	1	-21,423538	275,400829	304,746476	0
15.01.2021	15:07:32	0	46,519907	4,44534	1,7115	296,8092	1,099	85,086	0	1015,48	8,5	10,1	9,7	1	1	1	1	1	1	1	1	1	0	1	-14,023961	275,553059	312,867824	0
15.01.2021	15:07:33	0	46,753028	4,559326	1,90125	311,7168	1,094	85,062	0	1015,5	8,5	10,1	9,7	1	1	1	1	1	1	1	1	1	0	1	-17,618041	275,509672	309,067911	0
15.01.2021	15:07:34	0	46,519785	4,787295	1,96875	312,876	1,098	85,035	0	1015,42	8,5	10,1	9,7	1	1	1	1	1	1	1	1	1	0	1	-13,248767	275,55145	313,635385	0
15.01.2021	15:07:35	0	46,286542	2,621616	1,9095	319,3344	1,094	85,044	0	1015,48	8,3	10,1	9,7	1	1	1	1	1	1	1	1	1	0	1	-15,856237	275,466382	310,624438	0
15.01.2021	15:07:36	0	46,052977	2,621617	1,821	316,6164	1,094	85,038	0	1015,32	8,5	10	9,7	1	1	1	1	1	1	1	1	1	0	1	-17,26568	275,546625	309,595576	0
15.01.2021	15:07:37	0	46,869372	4,217361	1,7055	310,3308	1,092	85,033	0	1015,44	8,5	10,1	9,8	1	1	1	1	1	1	1	1	1	0	1	-11,698379	275,500044	314,941908	0
15.01.2021	15:07:38	0	46,169445	4,217389	1,6965	312,7968	1,093	85,04	0	1015,48	8,5	10	9,7	1	1	1	1	1	1	1	1	1	0	1	-14,446794	275,565933	312,506086	0
15.01.2021	15:07:39	0	46,286298	3,305524	1,7835	310,2624	1,093	85,032	0	1015,48	8,5	10,1	9,7	1	1	1	1	1	1	1	1	1	0	1	-17,477097	275,496835	309,147975	0
15.01.2021	15:07:40	0	46,402827	3,077558	1,9275	303,2064	1,094	85,018	0	1015,46	8,5	10,1	9,7	1	1	1	1	1	1	1	1	1	0	1	-11,839323	275,554668	315,060095	0
15.01.2021	15:07:41	0	46,286176	4,445365	2,061	313,1352	1,09	85,023	0	1015,54	8,5	10,1	9,7	1	1	1	1	1	1	1	1	1	0	1	-17,829457	275,49042	308,765192	0
15.01.2021	15:07:42	0	46,169526	3,533497	2,10375	315,9252	1,088	85,009	0	1015,38	8,5	10,1	9,7	1	1	1	1	1	1	1	1	1	0	1	-14,235377	275,375307	311,813748	0
15.01.2021	15:07:43	0	46,169142	3,077564	2,0775	313,9596	1,094	85,002	0	1015,52	8,5	10	9,7	1	1	1	1	1	1	1	1	1	0	1	-12,544045	275,488817	314,043	0
15.01.2021	15:07:44	0	46,402583	2,849598	2,058	315,4932	1,098	85,005	0	1015,48	8,5	10,1	9,7	1	1	1	1	1	1	1	1	1	0	1	-13,389711	275,378496	312,674514	0
15.01.2021	15:07:45	0	46,519111	4,331392	2,052	316,5372	1,089	84,99	0	1015,38	8,5	10,1	9,7	1	1	1	1	1	1	1	1	1	0	1	-15,151515	275,554668	311,747904	0
15.01.2021	15:07:46	0	46,402461	4,787331	2,04075	315,1908	1,096	85,012	0	1015,44	8,5	10,1	9,7	1	1	1	1	1	1	1	1	1	0	1	-16,631431	275,424786	309,652092	0
15.01.2021	15:07:47	0	46,4024	2,62162	2,04375	317,0016	1,09	84,982	0	1015,42	8,5	10,1	9,8	1	1	1	1	1	1	1	1	1	0	1	-16,913319	275,367339	309,098067	0
15.01.2021	15:07:48	0	46,169161	2,621637	2,0745	316,2168	1,098	84,994	0	1015,28	8,5	10,1	9,7	1	1	1	1	1	1	1	1	1	0	1	-14,376321	275,532157	312,416289	0
15.01.2021	15:07:49	0	46,51854	3,419529	2,052	318,1644	1,1	84,997	0	1015,48	8,5	10	9,7	1	1	1	1	1	1	1	1	1	0	1	-16,138125	275,389659	309,978976	0
15.01.2021	15:07:50	0	46,169039	4,103437	2,1075	321,534	1,099	84,99	0	1015,48	8,5	10,1	9,7	1	1	1	1	1	1	1	1	1	0	1	-14,65821	275,423188	311,61774	0
15.01.2021	15:07:51	0	46,168979	3,875471	2,12925	321,84	1,093	84,984	0	1015,4	8,5	10,1	9,7	1	1	1	1	1	1	1	1	1	0	1	-14,446794	275,370526	311,579686	0
15.01.2021	15:07:52	0	46,168918	3,077582	2,08275	319,2192	1,092	84,972	0	1015,6	8,5	10,1	9,7	1	1	1	1	1	1	1	1	1	0	1	-12,614517	275,450373	313,790269	0
15.01.2021	15:07:53	0	46,285445	2,507661	2,02425	322,974	1,093	84,967	0	1015,32	8,5	10,1	9,7	1	1	1	1	1	1	1	1	1	0	1	-15,926709	275,376902	310,129966	0
15.01.2021	15:07:54	0	46,168796	3,647487	1,99725	320,364	1,091	84,954	0	1015,4	8,5	10,1	9,8	1	1	1	1	1	1	1	1	1	0	1	-15,715292	275,484007	310,848947	0
15.01.2021	15:07:55	0	45,935238	2,279694	2,02725	314,7408	1,096	84,966	0	1015,44	8,5	10	9,7	1	1	1	1	1	1	1	1	1	0	1	-12,262156	275,378496	313,802069	0
15.01.2021	15:07:56	0	46,40185	2,963605	1,9635	319,194	1,092	84,943	0	1015,48	8,5	10,1	9,7	1	1	1	1	1	1	1	1	1	0	1	-17,336152	275,443973	309,0383	0
15.01.2021	15:07:57	0	46,168614	2,849622	1,92825	318,4632	1,087	84,934	0	1015,4	8,5	10,1	9,7	1	1	1	1	1	1	1	1	1	0	1	-14,869626	275,408812	311,338205	0
15.01.2021	15:07:58	0	46,518314	4,445386	1,83675	315,8244	1,095	84,933	0	1015,48	8,3	10,1	9,8	1	1	1	1	1	1	1	1	1	0	1	-16,138125	275,477596	310,395716	0
15.01.2021	15:07:59	0	46,051905	4,5594	1,72725	312,1488	1,099	84,993	0	1015,5	8,5	10,1	9,7	1	1	1	1	1	1	1	1	1	0	1	-10,007047	275,575594	316,991685	0
15.01.2021	15:08:00	0	46,16837	4,673391	1,75725	318,096	1,095	84,925	0	1015,42	8,5	10,1	9,7	1	1	1	1	1	1	1	1	1	0	1	-13,178295	275,445573	313,20374	0
15.01.2021	15:08:01	0	46,16837	4,673391	1,75725	318,096	1,095	84,925	0	1015,42	8,5	10,1	9,7	1	1	1	1	1	1	1	1	1	0	1	-12,262156	275,562714	314,675445	0
15.01.2021	15:08:02	0	46,168309	3,533542	1,7865	307,1124	1,096	84,933	0	1015,44	8,5	10,1	9,7	1	1	1	1	1	1	1	1	1	0	1	-11,839323	275,488817	314,747722	0
15.01.2021	15:08:03	0	46,284835	4,4454	1,79325	313,5528	1,094	84,941	0	1015,46	8,5	10,1	9,8	1	1	1	1	1	1	1	1	1	0	1	-7,751938	275,397637	318,402954	0
15.01.2021	15:08:04	0	46,284774	4,559415	1,818	305,3844	1,085	84,931	0	1015,44	8,3	10,1	9,7	1	1	1	1	1	1	1	1	1	0	1	-9,020437	275,496835	317,604634	0
15.01.2021	15:08:05	0	46,05154	4,559418	1,875	314,7156	1,089	84,929	0	1015,58	8,3	10,1	9,7	1	1	1	1	1	1	1	1	1	0	1	-16,701903	275,376902	309,354772	0
15.01.2021	15:08:06	0	46,051157	2,393696	1,77825	308,0592	1,091	84,931	0	1015,6	8,5	10	9,7	1	1	1	1	1	1	1	1	1	0	1	-12,544045	275,432778	313,777352	0
15.01.2021	15:08:07	0	46,284591	4,901351	1,716	297,2664	1,094	84,925	0	1015,3	8,5	10,1	9,8	1	1	1	1	1	1	1	1	1	0	1	-12,966878	275,434377	313,362096	0
15.01.2021	15:08:08	0	46,167944	4,787398	1,719	315,2484	1,092	84,928	0	1015,44	8,5	10,1	9,7	1	1	1	1	1	1	1	1	1	0	1	-15,64482	275,522518	311,102061	0
15.01.2021	15:08:09	0	46,051297	3,305586	1,75575	302,0904	1,097	84,918	0	1015,48	8,5	10,1	9,7	1	1	1	1	1	1	1	1	1	0	1	-11,980268	275,503253	314,675238	0
15.01.2021	15:08:10	0	46,167822	5,015345	1,7985	301,6008	1,097	84,941	0	1015,48	8,5	10,1	9,8	1	1	1	1	1	1	1	1	1	0	1	-14,517266	275,559495	312,40506	0
15.01.2021	15:08:11	0	46,400932	4,331463	1,79475	305,7732	1,095	84,951	0	1015,46	8,5	10,1	9,7	1	1	1	1	1	1	1	1	1	0	1	-10,782241	275,440774	315,577049	0
15.01.2021	15:08:12	0	46,284285	4,217455	1,77075	309,258	1,094	84,948	0	1015,46	8,5	10,1	9,8	1	1	1	1	1	1	1	1	1	0	1	-14,65821	275,376902	311,398465	0
15.01.2021	15:08:13	0	46,051054	4,331469	1,82775	302,3856	1,092	84,945	0	1015,32	8,3	10,1	9,7	1	1	1	1	1	1	1	1	1	0	1	-16,208598	275,509672	310,477354	0
15.01.2021	15:08:14	0	45,934409	2,393694	1,83675	290,4372	1,094	84,952	0	1015,4	8,4	10,1	9,8	1	1	1	1	1	1	1	1	1	0	1	-16,138125	275,540194	310,692614	0
15.01.2021	15:08:15	0	45,934348	3,305599	1,7835	287,1108	1,1	84,952	0	1015,4	8,5	10,1	9,7	1	1	1	1	1	1	1	1	1	0	1	-14,094433	275,488817	312,492613	0
15.01.2021	15:08:16	0	46,284041	4,445463	1,6785	306,1476	1,096	84,961	0	1015,52	8,5	10,1	9,7	1	1	1	1	1	1	1	1	1	0	1	-17,406624	275,386469	308,695366	0
15.01.2021	15:08:17	0	46,167395	4,787425	1,6185	303,5412	1,098	84,968	0	1015,46	8,5	10,1	9,7	1	1	1	1	1	1	1	1	1	0	1	-19,87315	275,533764	306,927085	0
15.01.2021	15:08:18	0	46,167334	4,445469	1,50825	304,2936	1,098	84,962	0	1015,46	8,5	10,1	9,7	1	1	1	1	1	1	1	1	1	0	1	-19,450317	275,532157	307,342293	0
15.01.2021	15:08:19	0	45,934105	4,217474	1,5345	287,37	1,1	84,973	0	1015,54	8,5	10,1	9,8	1	1	1	1	1	1	1	1	1	0	1	-17,336152	275,509672	309,3498	0
15.01.2021	15:08:20	0	45,700877	3,305609	1,61925	283,6152	1,103	84,971	0	1015,56	8,5	10,1	9,7	1	1	1	1	1	1	1	1	1	0	1	-14,65821	275,519305	312,073434	0
15.01.2021	15:08:21	0	45,700817	4,103493	1,686	288,8532	1,099	84,976	0	1015,42	8,5	10,1	9,8	1	1	1	1	1	1	1	1	1	0	1	-14,517266	275,402425	311,66031	0
15.01.2021	15:08:22	0	46,050507	4,559467	1,686	300,798	1,1	84,975	0	1015,38	8,5	10,1	9,7	1	1	1	1	1	1	1	1	1	0	1	-16,983791	275,514488	309,725003	0
15.01.2021	15:08:23	0	45,817279	3,875549	1,6575	299,7936	1,101	84,987	0	1015,54	8,5	10,1	9,7	1	1	1	1	1	1	1	1	1	0	1	-15,433404	275,543409	311,412592	0
15.01.2021	15:08:24	0	45,933802	2,50771	1,66725	293,4036	1,107	84,986	0	1015,44	8,5	10,1	9,7	1	1	1	1	1	1	1	1	1	0	1	-11,698379	275,509672	314,987573	0
15.01.2021	15:08:25	0	45,933741	4,331502	1,67625	287,388	1,097	84,99	0	1015,24	8,5	10,1	9,7	1	1	1	1	1	1	1	1	1	0	1	-16,701903	275,367339	309,309484	0
15.01.2021	15:08:26	0	45,583932	3,76157	1,69125	287,7804	1,095	84,983	0	1015,26	8,5	10,1	9,7	1	1	1	1	1	1	1	1	1	0	1	-18,25229	275,418395	308,000947	0
15.01.2021	15:08:27	0	45,817037	4,331507	1,632	290,4732	1,099	84,99	0	1015,48	8,5	10,1	9,7	1	1	1	1	1	1	1	1	1	0	1	-13,883016	275,553059	313,008769	0
15.01.2021	15:08:28	0	46,050142	2,507716	1,575	298,314	1,1	84,973	0	1015,44	8,5	10,1	9,7	1	1	1	1	1	1	1	1	1	0	1	-13,812544	275,472789	312,698507	0
15.01.2021	15:08:29	0	45,933498	3,64759	1,4835	311,0616	1,107	84,998	0	1015,52	8,5	10,1	9,7	1	1	1	1	1	1	1	1	1	0	1	-16,349542	275,573984	310,641547	0
15.01.2021	15:08:30	0	45,816855	2,50772	1,5165	324,3924	1,103	85,003	0	1015,44	8,5	10,1	9,7	1	1	1	1	1	1	1	1	1	0	1	-11,768851	275,504857	314,894265	0
15.01.2021	15:08:31	0	46,049959	4,787468	1,509	320,3676	1,103	84,987	0	1015,42	8,5	10,1	9,7	1	1	1	1	1	1	1	1	1	0	1	-14,65821	275,565933	312,294669	0
15.01.2021	15:08:32	0	46,049898	2,849685	1,3935	326,7324	1,103	84,987	0	1015,48	8,3	10,1	9,7	1	1	1	1	1	1	1	1	1	0	1	-11,486963	275,487213	315,09248	0
15.01.2021	15:08:33	0	45,816674	4,673486	1,4115	319,986	1,102	84,979	0	1015,44	8,5	10,1	9,7	1	1	1	1	1	1	1	1	1	0	1	-20,225511	275,554668	306,673908	0
15.01.2021	15:08:34	0	46,049776	3,077664	1,51275	306,1548	1,097	84,966	0	1015,26	8,5	10,1	9,7	1	1	1	1	1	1	1	1	1	0	1	-17,26568	275,451973	309,146692	0
15.01.2021	15:08:35	0	45,932812	3,419608	1,5285	324,0828	1,098	84,993	0	1015,34	8,5	10	9,8	1	1	1	1	1	1	1	1	1	0	1	-18,393235	275,538586	308,429877	0
15.01.2021	15:08:36	0	46,049655	5,015458	1,4415	325,9656	1,101	84,983	0	1015,36	8,5	10,1	9,7	1	1	1	1	1	1	1	1	1	0	1	-14,446794	275,488817	312,140252	0
15.01.2021	15:08:37	0	45,816431	3,077669	1,38975	320,3424	1,102	84,971	0	1015,36	8,5	10,1	9,7	1	1	1	1	1	1	1	1	1	0	1	-15,292459	275,402425	310,885117	0
15.01.2021	15:08:38	0	45,932952	4,331538	1,344	314,4564	1,101	84,984	0	1015,52	8,3	10,1	9,7	1	1	1	1	1	1	1	1	1	0	1	-14,517266	275,435976	311,819286	0
15.01.2021	15:08:39	0	45,932891	3,761601	1,32	320,0148	1,103	84,992	0	1015,48	8,5	10,1	9,7	1	1	1	1	1	1	1	1	1	0	1	-15,151515	275,373713	310,890061	0
15.01.2021	15:08:40	0	45,816249	4,673507	1,34475	322,632	1,106	84,987	0	1015,38	8,3	10,1	9,7	1	1	1	1	1	1	1	1	1	0	1	-11,980268	275,423188	314,295683	0
15.01.2021	15:08:41	0	45,932769	3,419641	1,44975	310,1796	1,096	84,985	0	1015,34	8,5	10,1	9,7	1	1	1	1	1	1	1	1	1	0	1	-13,883016	275,388064	312,226529	0
15.01.2021	15:08:42	0	46,28245	4,673513	1,569	322,128	1,105	84,981	0	1015,44	8,5	10,1	9,7	1	1	1	1	1	1	1	1	1	0	1	-18,25229	275,451973	308,160082	0
15.01.2021	15:08:43	0	45,699487	2,621728	1,57725	304,5708	1,103	84,966	0	1015,48	8,5	10,1	9,7	1	1	1	1	1	1	1	1	1	0	1	-13,601128	275,365745	312,402713	0
15.01.2021	15:08:44	0	45,932587	3,647624	1,5765	321,7572	1,106	84,981	0	1015,26	8,4	10,1	9,7	1	1	1	1	1	1	1	1	1	0	1	-14,023961	275,434377	312,305014	0
15.01.2021	15:08:45	0	45,699046	2,621732	1,56975	337,14	1,096	84,98	0	1015,34	8,5	10	9,7	1	1	1	1	1	1	1	1	1	0	1	-10,923185	275,469585	315,572676	0
15.01.2021	15:08:46	0	45,815886	3,191675	1,5345	322,9524	1,101	84,979	0	1015,36	8,5	10,1	9,7	1	1	1	1	1	1	1	1	1	0	1	-16,913319	275,55145	309,970832	0
15.01.2021	15:08:47	0	45,815825	4,787516	1,65975	323,2908	1,102	84,983	0	1015,4	8,3	10,1	9,7	1	1	1	1	1	1	1	1	1	0	1	-14,235377	275,439175	312,116333	0
15.01.2021	15:08:48	0	45,699185	4,673531	1,7415	314,3448	1,1	84,977	0	1015,34	8,5	10,1	9,7	1	1	1	1	1	1	1	1	1	0	1	-16,983791	275,561104	309,946172	0
15.01.2021	15:08:49	0	45,465965	2,735727	1,72575	309,24	1,104	84,977	0	1015,48	8,5	10,1	9,7	1	1	1	1	1	1	1	1	1	0	1	-13,248767	275,453574	313,171191	0
15.01.2021	15:08:50	0	45,582484	3,53365	1,7055	317,34	1,109	84,983	0	1015,44	8,5	10,1	9,7	1	1	1	1	1	1	1	1	1	0	1	-10,711769	275,554668	316,18765	0
15.01.2021	15:08:51	0	45,465845	2,621742	1,68675	318,762	1,098	84,981	0	1015,4	8,5	10,1	9,7	1	1	1	1	1	1	1	1	1	0	1	-21,212121	275,458376	305,2306	0
15.01.2021	15:08:52	0	45,582364	4,445565	1,58625	317,34	1,106	84,983	0	1015,54	8,5	10,1	9,7	1	1	1	1	1	1	1	1	1	0	1	-12,403101	275,557886	314,511589	0
15.01.2021	15:08:53	0	45,465724	3,761634	1,569	306,4176	1,109	84,965	0	1015,34	8,5	10,1	9,7	1	1	1	1	1	1	1	1	1	0	1	-13,03735	275,557886	313,877339	0
15.01.2021	15:08:54	0	45,465664	3,533637	1,56975	309,474	1,102	84,967	0	1015,46	8,5	10,1	9,8	1	1	1	1	1	1	1	1	1	0	1	-15,715292	275,466382	310,765382	0
15.01.2021	15:08:55	0	45,349025	3,191694	1,52925	291,2292	1,105	84,984	0	1015,42	8,3	10,1	9,7	1	1	1	1	1	1	1	1	1	0	1	-14,65821	275,572373	312,325235	0
15.01.2021	15:08:56	0	45,348965	2,849711	1,46625	303,9192	1,104	84,975	0	1015,56	8,3	10,1	9,8	1	1	1	1	1	1	1	1	1	0	1	-13,319239	275,459977	313,131071	0
15.01.2021	15:08:57	0	45,69864	2,735741	1,5075	320,04	1,107	84,969	0	1015,56	8,5	10,1	9,7	1	1	1	1	1	1	1	1	1	0	1	-13,6716	275,38009	312,400177	0
15.01.2021	15:08:58	0	45,582001	2,849732	1,6665	299,8188	1,109	84,969	0	1015,36	8,3	10,1	9,7	1	1	1	1	1	1	1	1	1	0	1	-13,530655	275,472789	312,980396	0
15.01.2021	15:08:59	0	45,465363	3,647659	1,9155	306,2124	1,107	84,967	0	1015,42	8,5	10,1	9,7	1	1	1	1	1	1	1	1	1	0	1	-11,980268	275,572373	315,003177	0
15.01.2021	15:09:00	0	45,698397	3,875643	2,20125	297,9036	1,104	84,956	0	1015,4	8,3	10,1	9,7	1	1	1	1	1	1	1	1	1	0	1	-15,64482	275,388064	310,464725	0
15.01.2021	15:09:01	0	45,698397	3,875643	2,20125	297,9036	1,104	84,956	0	1015,4	8,3	10,1	9,7	1	1	1	1	1	1	1	1	1	0	1	-13,530655	275,557886	313,384034	0
15.01.2021	15:09:02	0	45,232027	2,849739	2,244	294,39	1,107	84,972	0	1015,34	8,5	10,1	9,7	1	1	1	1	1	1	1	1	1	0	1	-15,081043	275,519305	311,650601	0
15.01.2021	15:09:03	0	45,698276	3,19171	2,28225	289,512	1,105	84,968	0	1015,38	8,5	10,1	9,7	1	1	1	1	1	1	1	1	1	0	1	-13,389711	275,412005	312,833253	0
15.01.2021	15:09:04	0	45,348484	3,077722	2,247	295,1964	1,107	84,98	0	1015,46	8,5	10,1	9,7	1	1	1	1	1	1	1	1	1	0	1	-13,248767	275,429581	313,057478	0
15.01.2021	15:09:05	0	45,465001	2,621765	2,3355	306,4104	1,107	84,964	0	1015,5	8,5	10,1	9,7	1	1	1	1	1	1	1	1	1	0	1	-17,054264	275,424786	309,229259	0
15.01.2021	15:09:06	0	45,231787	2,735757	2,29725	288,8532	1,101	84,965	0	1015,44	8,4	10,1	9,7	1	1	1	1	1	1	1	1	1	0	1	-10,711769	275,388064	315,397777	0
15.01.2021	15:09:07	0	45,698034	4,787577	2,39175	307,2456	1,104	84,979	0	1015,48	8,5	10,1	9,7	1	1	1	1	1	1	1	1	1	0	1	-15,64482	275,522518	311,102061	0
15.01.2021	15:09:08	0	45,46482	3,533669	2,304	326,7504	1,105	84,956	0	1015,48	8,5	10,1	9,8	1	1	1	1	1	1	1	1	1	0	1	-18,181818	275,370526	307,844661	0
15.01.2021	15:09:09	0	45,231607	4,787583	2,0895	317,754	1,107	84,97	0	1015,46	8,5	10,1	9,7	1	1	1	1	1	1	1	1	1	0	1	-13,883016	275,559495	313,03931	0
15.01.2021	15:09:10	0	45,581276	4,217636	1,9815	305,0352	1,104	84,968	0	1015,54	8,5	10,1	9,7	1	1	1	1	1	1	1	1	1	0	1	-11,486963	275,488817	315,100083	0
15.01.2021	15:09:11	0	45,231487	3,647687	1,92	302,76	1,107	84,958	0	1015,3	8,5	10,1	9,7	1	1	1	1	1	1	1	1	1	0	1	-10,147992	275,354596	315,803052	0
15.01.2021	15:09:12	0	45,581155	3,76168	1,86675	285,5592	1,102	84,958	0	1015,32	8,4	10,1	9,7	1	1	1	1	1	1	1	1	1	0	1	-15,715292	275,480801	310,833746	0
15.01.2021	15:09:13	0	45,69767	4,445598	1,8135	296,4672	1,106	84,974	0	1015,3	8,5	10,1	9,8	1	1	1	1	1	1	1	1	1	0	1	-16,913319	275,554668	309,9861	0
15.01.2021	15:09:14	0	45,814185	4,559618	1,812	287,7624	1,105	84,967	0	1015,46	8,3	10,1	9,7	1	1	1	1	1	1	1	1	1	0	1	-14,869626	275,538586	311,953485	0
15.01.2021	15:09:15	0	45,347823	4,331614	1,7505	309,4884	1,11	84,956	0	1015,48	8,4	10,1	9,8	1	1	1	1	1	1	1	1	1	0	1	-12,262156	275,408812	313,945675	0
15.01.2021	15:09:16	0	45,697488	4,901595	1,72725	301,5828	1,103	84,963	0	1015,42	8,4	10,1	9,7	1	1	1	1	1	1	1	1	1	0	1	-9,725159	275,362559	316,263594	0
15.01.2021	15:09:17	0	45,464277	3,191738	1,8645	295,5888	1,102	84,944	0	1015,48	8,5	10,1	9,7	1	1	1	1	1	1	1	1	1	0	1	-9,936575	275,496835	316,688496	0
15.01.2021	15:09:18	0	45,697367	4,331648	1,941	293,2884	1,11	84,957	0	1015,46	8,5	10,1	9,7	1	1	1	1	1	1	1	1	1	0	1	-17,547569	275,399233	308,614884	0
15.01.2021	15:09:19	0	45,580731	3,875687	1,986	292,9968	1,102	84,942	0	1015,34	8,5	10,1	9,7	1	1	1	1	1	1	1	1	1	0	1	-13,812544	275,469585	312,683317	0
15.01.2021	15:09:20	0	44,881223	3,419706	2,03925	291,8052	1,106	84,954	0	1015,36	8,5	10,1	9,8	1	1	1	1	1	1	1	1	1	0	1	-14,65821	275,376902	311,398465	0
15.01.2021	15:09:21	0	45,58061	3,533719	2,10375	285,1884	1,109	84,949	0	1015,48	8,3	10,1	9,7	1	1	1	1	1	1	1	1	1	0	1	-12,966878	275,439175	313,384832	0
15.01.2021	15:09:22	0	45,58055	3,647713	2,148	294,1236	1,103	84,949	0	1015,56	8,4	10,1	9,7	1	1	1	1	1	1	1	1	1	0	1	-15,926709	275,412005	310,296255	0
15.01.2021	15:09:23	0	45,114193	3,077741	2,17425	291,1716	1,105	84,947	0	1015,44	8,4	10,1	9,8	1	1	1	1	1	1	1	1	1	0	1	-13,03735	275,368932	312,981582	0
15.01.2021	15:09:24	0	45,347281	2,849762	2,24475	294,3288	1,097	84,934	0	1015,4	8,5	10,1	9,8	1	1	1	1	1	1	1	1	1	0	1	-16,983791	275,412005	309,239172	0
15.01.2021	15:09:25	0	45,114073	2,963772	2,33175	288,8244	1,106	84,943	0	1015,44	8,5	10,1	9,7	1	1	1	1	1	1	1	1	1	0	1	-16,490486	275,545017	310,363139	0
15.01.2021	15:09:26	0	45,463734	4,787635	2,26875	293,3856	1,099	84,943	0	1015,64	8,4	10,1	9,7	1	1	1	1	1	1	1	1	1	0	1	-18,25229	275,466382	308,228384	0
15.01.2021	15:09:27	0	44,997064	2,50781	2,178	297,1836	1,099	84,915	0	1015,46	8,5	10	9,7	1	1	1	1	1	1	1	1	1	0	1	-18,88654	275,543409	307,959456	0
15.01.2021	15:09:28	0	45,580186	2,849786	2,13975	299,7756	1,105	84,924	0	1015,54	8,3	10,1	9,7	1	1	1	1	1	1	1	1	1	0	1	-18,25229	275,49844	308,380388	0
15.01.2021	15:09:29	0	45,346979	4,331678	2,166	293,7528	1,102	84,924	0	1015,38	8,5	10,1	9,7	1	1	1	1	1	1	1	1	1	0	1	-17,124736	275,43118	309,189085	0
15.01.2021	15:09:30	0	45,463492	3,533719	2,1195	307,5588	1,106	84,921	0	1015,42	8,3	10,1	9,8	1	1	1	1	1	1	1	1	1	0	1	-12,05074	275,522518	314,696141	0
15.01.2021	15:09:31	0	45,346859	2,849792	1,99725	306,7956	1,106	84,907	0	1015,46	8,5	10,1	9,7	1	1	1	1	1	1	1	1	1	0	1	-13,601128	275,52573	313,160994	0
15.01.2021	15:09:32	0	45,463371	4,103703	1,9245	303,552	1,098	84,911	0	1015,42	8,5	10,1	9,7	1	1	1	1	1	1	1	1	1	0	1	-16,349542	275,426384	309,941554	0
15.01.2021	15:09:33	0	45,230165	4,103681	1,91625	313,1676	1,103	84,894	0	1015,36	8,4	10,1	9,8	1	1	1	1	1	1	1	1	1	0	1	-10,570825	275,533764	316,22941	0
15.01.2021	15:09:34	0	45,113533	4,103708	1,96575	314,4744	1,104	84,895	0	1015,42	8,5	10,1	9,7	1	1	1	1	1	1	1	1	1	0	1	-15,715292	275,495231	310,902172	0
15.01.2021	15:09:35	0	44,880328	2,735791	1,97625	321,7752	1,105	84,881	0	1015,32	8,5	10,1	9,8	1	1	1	1	1	1	1	1	1	0	1	-17,195208	275,55145	309,688943	0
15.01.2021	15:09:36	0	45,229985	3,191777	1,96275	312,4404	1,098	84,882	0	1015,4	8,5	10,1	9,7	1	1	1	1	1	1	1	1	1	0	1	-17,195208	275,463179	309,270283	0
15.01.2021	15:09:37	0	45,113353	4,445692	1,992	320,7312	1,108	84,894	0	1015,48	8,5	10,1	9,7	1	1	1	1	1	1	1	1	1	0	1	-14,587738	275,375307	311,461387	0
15.01.2021	15:09:38	0	45,113293	3,64775	1,983	321,7752	1,104	84,887	0	1015,44	8,5	10,1	9,7	1	1	1	1	1	1	1	1	1	0	1	-13,460183	275,426384	312,830913	0
15.01.2021	15:09:39	0	45,346376	4,217714	1,95525	321,804	1,103	84,878	0	1015,46	8,4	10,1	9,7	1	1	1	1	1	1	1	1	1	0	1	-16,983791	275,368932	309,035141	0
15.01.2021	15:09:40	0	45,346316	4,331683	1,85325	319,2336	1,1	84,884	0	1015,46	8,4	10,1	9,8	1	1	1	1	1	1	1	1	1	0	1	-14,094433	275,474391	312,424214	0
15.01.2021	15:09:41	0	44,996541	3,875742	1,7295	321,2172	1,103	84,896	0	1015,48	8,5	10,1	9,7	1	1	1	1	1	1	1	1	1	0	1	-11,06413	275,553059	315,827655	0
15.01.2021	15:09:42	0	45,346195	3,647759	1,70325	314,4996	1,106	84,859	0	1015,48	8,4	10,1	9,7	1	1	1	1	1	1	1	1	1	0	1	-11,627907	275,440774	314,731383	0
15.01.2021	15:09:43	0	45,229564	3,419756	1,71525	319,1688	1,099	84,861	0	1015,46	8,5	10,1	9,8	1	1	1	1	1	1	1	1	1	0	1	-18,25229	275,556277	308,654763	0
15.01.2021	15:09:44	0	45,346075	4,33172	1,7865	320,3856	1,099	84,866	0	1015,32	8,4	10,1	9,7	1	1	1	1	1	1	1	1	1	0	1	-17,406624	275,516094	309,309786	0
15.01.2021	15:09:45	0	44,995987	4,331722	1,7565	318,7872	1,103	84,864	0	1015,46	8,4	10	9,7	1	1	1	1	1	1	1	1	1	0	1	-12,262156	275,548234	314,60673	0
15.01.2021	15:09:46	0	44,996242	3,647769	1,752	321,7896	1,105	84,866	0	1015,4	8,4	10,1	9,7	1	1	1	1	1	1	1	1	1	0	1	-14,517266	275,477596	312,016576	0
15.01.2021	15:09:47	0	44,996182	2,735828	1,758	324,882	1,103	84,862	0	1015,42	8,5	10,1	9,7	1	1	1	1	1	1	1	1	1	0	1	-17,054264	275,376902	309,002411	0
15.01.2021	15:09:48	0	45,112693	4,673709	1,8045	312,138	1,103	84,842	0	1015,48	8,4	10,1	9,7	1	1	1	1	1	1	1	1	1	0	1	-14,376321	275,451973	312,036051	0
15.01.2021	15:09:49	0	44,996062	3,305797	1,965	309,2148	1,104	84,861	0	1015,64	8,4	10,1	9,7	1	1	1	1	1	1	1	1	1	0	1	-13,248767	275,549842	313,627752	0
15.01.2021	15:09:50	0	44,879432	4,217743	2,02125	313,3008	1,099	84,848	0	1015,46	8,4	10,1	9,7	1	1	1	1	1	1	1	1	1	0	1	-16,138125	275,548234	310,730761	0
15.01.2021	15:09:51	0	44,879373	3,419773	2,00475	300,1068	1,106	84,846	0	1015,48	8,5	10,1	9,8	1	1	1	1	1	1	1	1	1	0	1	-16,490486	275,408812	309,717345	0
15.01.2021	15:09:52	0	45,345591	4,331742	1,983	302,436	1,102	84,847	0	1015,38	8,3	10,1	9,7	1	1	1	1	1	1	1	1	1	0	1	-15,221987	275,488817	311,365058	0
15.01.2021	15:09:53	0	44,878939	3,305785	1,94325	311,6304	1,104	84,838	0	1015,34	8,3	10	9,8	1	1	1	1	1	1	1	1	1	0	1	-17,195208	275,408812	309,012624	0
15.01.2021	15:09:54	0	45,228901	4,559707	1,89525	306,432	1,106	84,858	0	1015,5	8,5	10,1	9,8	1	1	1	1	1	1	1	1	1	0	1	-16,701903	275,373713	309,339673	0
15.01.2021	15:09:55	0	44,879134	2,849836	1,8435	306,8532	1,109	84,854	0	1015,46	8,5	10,1	9,7	1	1	1	1	1	1	1	1	1	0	1	-14,799154	275,408812	311,408677	0
15.01.2021	15:09:56	0	45,112212	3,989772	1,97325	310,2984	1,097	84,86	0	1015,2	8,5	10,1	9,7	1	1	1	1	1	1	1	1	1	0	1	-17,758985	275,484007	308,805254	0
15.01.2021	15:09:57	0	45,112152	2,849839	1,97775	311,4324	1,104	84,845	0	1015,38	8,5	10,1	9,7	1	1	1	1	1	1	1	1	1	0	1	-15,856237	275,413603	310,374294	0
15.01.2021	15:09:58	0	45,112092	4,901727	2,0295	316,6524	1,106	84,863	0	1015,36	8,4	10,1	9,7	1	1	1	1	1	1	1	1	1	0	1	-15,292459	275,375307	310,756665	0
15.01.2021	15:09:59	0	44,878894	2,963837	2,0055	312,2028	1,104	84,861	0	1015,42	8,5	10,1	9,7	1	1	1	1	1	1	1	1	1	0	1	-19,379845	275,440774	306,979445	0
15.01.2021	15:10:00	0	44,995343	3,191828	2,1075	315,9288	1,103	84,865	0	1015,54	8,4	10,1	9,7	1	1	1	1	1	1	1	1	1	0	1	-15,221987	275,541801	311,61638	0
15.01.2021	15:10:01	0	44,995343	3,191828	2,1075	315,9288	1,103	84,865	0	1015,54	8,4	10,1	9,7	1	1	1	1	1	1	1	1	1	0	1	-18,181818	275,410408	308,033579	0
15.01.2021	15:10:02	0	44,878715	3,7618	2,1465	315,9468	1,108	84,868	0	1015,48	8,5	10,1	9,7	1	1	1	1	1	1	1	1	1	0	1	-13,6716	275,375307	312,377525	0
15.01.2021	15:10:03	0	44,878341	2,963844	2,10075	322,9056	1,108	84,854	0	1015,4	8,4	10	9,7	1	1	1	1	1	1	1	1	1	0	1	-15,785765	275,512883	310,915415	0
15.01.2021	15:10:04	0	45,111731	4,103787	2,0205	315,2268	1,099	84,849	0	1015,56	8,4	10,1	9,7	1	1	1	1	1	1	1	1	1	0	1	-13,883016	275,418395	312,370221	0
15.01.2021	15:10:05	0	45,111671	4,217784	2,028	318,168	1,106	84,833	0	1015,46	8,5	10,1	9,7	1	1	1	1	1	1	1	1	1	0	1	-12,262156	275,368932	313,756776	0
15.01.2021	15:10:06	0	44,878475	2,621867	2,0505	319,6008	1,102	84,861	0	1015,38	8,4	10,1	9,7	1	1	1	1	1	1	1	1	1	0	1	-13,319239	275,49042	313,27541	0
15.01.2021	15:10:07	0	45,11155	4,217764	2,07075	308,034	1,104	84,855	0	1015,54	8,5	10,1	9,8	1	1	1	1	1	1	1	1	1	0	1	-13,460183	275,367339	312,551203	0
15.01.2021	15:10:08	0	44,994923	3,989803	2,001	309,9204	1,104	84,848	0	1015,4	8,4	10,1	9,7	1	1	1	1	1	1	1	1	1	0	1	-12,966878	275,467984	313,521389	0
15.01.2021	15:10:09	0	44,761415	4,559778	1,9755	312,4692	1,103	84,818	0	1015,36	8,4	10	9,7	1	1	1	1	1	1	1	1	1	0	1	-12,966878	275,540194	313,863861	0
15.01.2021	15:10:10	0	44,528536	3,191847	1,96875	285,4332	1,107	84,844	0	1015,56	8,4	10,1	9,7	1	1	1	1	1	1	1	1	1	0	1	-16,490486	275,453574	309,929472	0
15.01.2021	15:10:11	0	45,11131	4,559784	2,1225	307,548	1,102	84,84	0	1015,36	8,4	10,1	9,7	1	1	1	1	1	1	1	1	1	0	1	-22,692037	275,538586	304,131075	0
15.01.2021	15:10:12	0	44,644983	3,077837	2,18775	304,29	1,105	84,823	0	1015,4	8,4	10,1	9,8	1	1	1	1	1	1	1	1	1	0	1	-10,500352	275,432778	315,821045	0
15.01.2021	15:10:13	0	44,76149	4,445768	2,22975	320,058	1,106	84,826	0	1015,52	8,4	10,1	9,8	1	1	1	1	1	1	1	1	1	0	1	-12,121212	275,535371	314,686647	0
15.01.2021	15:10:14	0	45,227695	4,445798	2,28825	301,482	1,093	84,813	0	1015,4	8,4	10,1	9,7	1	1	1	1	1	1	1	1	1	0	1	-15,856237	275,429581	310,450008	0
15.01.2021	15:10:15	0	44,644492	3,989797	2,2275	330,7176	1,095	84,812	0	1015,46	8,4	10	9,8	1	1	1	1	1	1	1	1	1	0	1	-13,6716	275,565933	313,28128	0
15.01.2021	15:10:16	0	44,877877	3,647839	2,17125	321,1236	1,102	84,817	0	1015,5	8,4	10,1	9,7	1	1	1	1	1	1	1	1	1	0	1	-11,205074	275,49844	315,427605	0
15.01.2021	15:10:17	0	44,178422	2,507891	2,22525	330,0264	1,1	84,81	0	1015,5	8,5	10,1	9,7	1	1	1	1	1	1	1	1	1	0	1	-17,195208	275,554668	309,704211	0
15.01.2021	15:10:18	0	44,644313	2,963855	2,42925	326,0808	1,102	84,795	0	1015,46	8,3	10	9,8	1	1	1	1	1	1	1	1	1	0	1	-10,42988	275,434377	315,899094	0
15.01.2021	15:10:19	0	44,644253	4,445812	2,6145	323,6508	1,101	84,805	0	1015,54	8,4	10	9,7	1	1	1	1	1	1	1	1	1	0	1	-15,856237	275,538586	310,966875	0
15.01.2021	15:10:20	0	44,411376	2,507895	2,6175	324,4032	1,105	84,801	0	1015,42	8,4	10,1	9,7	1	1	1	1	1	1	1	1	1	0	1	-12,755462	275,487213	313,823981	0
15.01.2021	15:10:21	0	44,527882	4,559813	2,56725	335,2572	1,104	84,795	0	1015,54	8,3	10,1	9,7	1	1	1	1	1	1	1	1	1	0	1	-13,742072	275,540194	313,088667	0
15.01.2021	15:10:22	0	44,760639	3,533836	2,514	331,1172	1,099	84,774	0	1015,42	8,4	10	9,8	1	1	1	1	1	1	1	1	1	0	1	-14,376321	275,447173	312,013297	0
15.01.2021	15:10:23	0	44,527763	3,647833	2,349	335,0556	1,095	84,806	0	1015,44	8,5	10,1	9,8	1	1	1	1	1	1	1	1	1	0	1	-13,03735	275,368932	312,981582	0
15.01.2021	15:10:24	0	44,644268	4,103815	2,26425	337,5144	1,102	84,797	0	1015,54	8,4	10,1	9,8	1	1	1	1	1	1	1	1	1	0	1	-12,332629	275,364152	313,663668	0
15.01.2021	15:10:25	0	44,527644	4,331807	2,1495	329,6592	1,104	84,806	0	1015,5	8,4	10,1	9,8	1	1	1	1	1	1	1	1	1	0	1	-16,772375	275,458376	309,670346	0
15.01.2021	15:10:26	0	44,644149	3,761858	1,99425	314,0424	1,1	84,805	0	1015,5	8,4	10,1	9,7	1	1	1	1	1	1	1	1	1	0	1	-13,248767	275,364152	312,74753	0
15.01.2021	15:10:27	0	44,527525	3,76186	1,90125	319,0356	1,101	84,789	0	1015,44	8,4	10,1	9,7	1	1	1	1	1	1	1	1	1	0	1	-15,785765	275,418395	310,467473	0
15.01.2021	15:10:28	0	44,294337	3,077888	1,926	321,1488	1,104	84,824	0	1015,66	8,4	10,1	9,7	1	1	1	1	1	1	1	1	1	0	1	-14,728682	275,37212	311,305345	0
15.01.2021	15:10:29	0	44,760534	3,761842	2,0925	311,0508	1,102	84,82	0	1015,6	8,5	10,1	9,8	1	1	1	1	1	1	1	1	1	0	1	-10,147992	275,364152	315,848305	0
15.01.2021	15:10:30	0	44,410783	2,735904	2,49075	313,5744	1,105	84,812	0	1015,44	8,4	10,1	9,7	1	1	1	1	1	1	1	1	1	0	1	-15,856237	275,43118	310,457584	0
15.01.2021	15:10:31	0	44,177596	2,735889	2,80275	311,0112	1,106	84,821	0	1015,46	8,5	10,1	9,8	1	1	1	1	1	1	1	1	1	0	1	-15,081043	275,368932	310,93789	0
15.01.2021	15:10:32	0	44,876918	4,673841	3,03525	306,7416	1,101	84,816	0	1015,44	8,4	10,1	9,7	1	1	1	1	1	1	1	1	1	0	1	-18,675123	275,475994	307,851121	0
15.01.2021	15:10:33	0	44,527168	2,39392	3,26625	304,9776	1,103	84,823	0	1015,5	8,4	10,1	9,7	1	1	1	1	1	1	1	1	1	0	1	-15,856237	275,381685	310,223092	0
15.01.2021	15:10:34	0	44,760234	4,787843	3,4845	316,6488	1,105	84,819	0	1015,56	8,4	10,1	9,7	1	1	1	1	1	1	1	1	1	0	1	-17,336152	275,410408	308,879245	0
15.01.2021	15:10:35	0	44,527049	2,735896	3,4455	304,236	1,103	84,831	0	1015,54	8,4	10,1	9,8	1	1	1	1	1	1	1	1	1	0	1	-10,077519	275,501648	316,570376	0
15.01.2021	15:10:36	0	44,643239	3,077903	3,27225	311,3388	1,099	84,829	0	1015,52	8,4	10	9,7	1	1	1	1	1	1	1	1	1	0	1	-12,403101	275,402425	313,774475	0
15.01.2021	15:10:37	0	44,177242	2,507923	3,25125	315,5616	1,105	84,836	0	1015,46	8,4	10,1	9,7	1	1	1	1	1	1	1	1	1	0	1	-15,292459	275,543409	311,553536	0
15.01.2021	15:10:38	0	44,52687	4,445866	3,20475	314,4816	1,095	84,834	0	1015,46	8,4	10,1	9,7	1	1	1	1	1	1	1	1	1	0	1	-18,181818	275,538586	308,641294	0
15.01.2021	15:10:39	0	44,759935	2,735919	3,13725	320,7924	1,097	84,817	0	1015,5	8,4	10,1	9,7	1	1	1	1	1	1	1	1	1	0	1	-16,772375	275,484007	309,791864	0
15.01.2021	15:10:40	0	44,177064	3,305905	2,97075	320,3496	1,107	84,886	0	1015,6	8,4	10,1	9,7	1	1	1	1	1	1	1	1	1	0	1	-13,460183	275,389659	312,656918	0
15.01.2021	15:10:41	0	44,759815	4,67384	2,82075	314,5176	1,101	84,827	0	1015,5	8,4	10,1	9,8	1	1	1	1	1	1	1	1	1	0	1	-14,094433	275,399233	312,06802	0
15.01.2021	15:10:42	0	44,176946	3,191912	2,86275	315,9252	1,101	84,831	0	1015,42	8,4	10,1	9,7	1	1	1	1	1	1	1	1	1	0	1	-15,574348	275,365745	310,429493	0
15.01.2021	15:10:43	0	44,759696	4,559877	2,931	311,4288	1,098	84,825	0	1015,46	8,4	10,1	9,7	1	1	1	1	1	1	1	1	1	0	1	-12,614517	275,375307	313,434608	0
15.01.2021	15:10:44	0	44,526513	2,393937	2,9265	312,4332	1,095	84,834	0	1015,5	8,4	10,1	9,7	1	1	1	1	1	1	1	1	1	0	1	-11,627907	275,482404	314,928732	0
15.01.2021	15:10:45	0	44,642702	3,989898	2,9505	309,8736	1,095	84,834	0	1015,34	8,4	10	9,7	1	1	1	1	1	1	1	1	1	0	1	-15,997181	275,353003	309,946323	0
15.01.2021	15:10:46	0	44,409832	3,19192	3,096	309,8736	1,093	84,818	0	1015,4	8,5	10,1	9,7	1	1	1	1	1	1	1	1	1	0	1	-17,547569	275,466382	308,933106	0
15.01.2021	15:10:47	0	44,06009	2,735917	3,006	306,414	1,103	84,832	0	1015,28	8,5	10,1	9,8	1	1	1	1	1	1	1	1	1	0	1	-17,477097	275,549842	309,399422	0
15.01.2021	15:10:48	0	44,409713	3,419919	3,01125	302,4108	1,103	84,818	0	1015,46	8,4	10,1	9,7	1	1	1	1	1	1	1	1	1	0	1	-15,081043	275,472789	311,430008	0
15.01.2021	15:10:49	0	44,409654	4,673892	3,11775	302,8428	1,104	84,818	0	1015,5	8,4	10,1	9,7	1	1	1	1	1	1	1	1	1	0	1	-15,926709	275,381685	310,15262	0
15.01.2021	15:10:50	0	44,526155	3,419923	3,18225	309,1356	1,099	84,803	0	1015,44	8,4	10,1	9,7	1	1	1	1	1	1	1	1	1	0	1	-14,869626	275,42159	311,398752	0
15.01.2021	15:10:51	0	44,292664	3,077933	3,24225	309,5784	1,107	84,817	0	1015,34	8,5	10	9,7	1	1	1	1	1	1	1	1	1	0	1	-15,715292	275,545017	311,138333	0
15.01.2021	15:10:52	0	44,409475	2,735926	3,19575	313,254	1,1	84,779	0	1015,42	8,3	10,1	9,8	1	1	1	1	1	1	1	1	1	0	1	-13,248767	275,42159	313,019612	0
15.01.2021	15:10:53	0	44,642536	4,787873	3,0705	313,9812	1,103	84,782	0	1015,52	8,4	10,1	9,8	1	1	1	1	1	1	1	1	1	0	1	-13,530655	275,55145	313,353496	0
15.01.2021	15:10:54	0	44,642476	2,621932	2,97675	306,108	1,102	84,774	0	1015,42	8,5	10,1	9,8	1	1	1	1	1	1	1	1	1	0	1	-15,503876	275,432778	310,817521	0
15.01.2021	15:10:55	0	44,409297	2,963943	2,93475	309,168	1,098	84,767	0	1015,42	8,5	10,1	9,7	1	1	1	1	1	1	1	1	1	0	1	-15,362932	275,373713	310,678644	0
15.01.2021	15:10:56	0	44,059559	2,279958	2,93325	312,4044	1,097	84,746	0	1015,22	8,4	10,1	9,7	1	1	1	1	1	1	1	1	1	0	1	-16,349542	275,427983	309,949128	0
15.01.2021	15:10:57	0	44,525738	2,963929	2,85	312,4224	1,102	84,748	0	1015,56	8,4	10,1	9,8	1	1	1	1	1	1	1	1	1	0	1	-12,544045	275,536979	314,27144	0
15.01.2021	15:10:58	0	44,758797	4,559921	2,81025	316,62	1,1	84,741	0	1015,46	8,4	10,1	9,7	1	1	1	1	1	1	1	1	1	0	1	-10,782241	275,477596	315,7516	0
15.01.2021	15:10:59	0	44,2925	2,735954	2,68875	313,2252	1,095	84,737	0	1015,46	8,4	10,1	9,7	1	1	1	1	1	1	1	1	1	0	1	-15,292459	275,359373	310,681207	0
15.01.2021	15:11:00	0	44,525499	4,103937	2,46675	306,1692	1,097	84,711	0	1015,5	8,4	10,1	9,7	1	1	1	1	1	1	1	1	1	0	1	-17,618041	275,508067	309,060298	0
15.01.2021	15:11:01	0	44,525499	4,103937	2,46675	306,1692	1,097	84,711	0	1015,5	8,4	10,1	9,7	1	1	1	1	1	1	1	1	1	0	1	-16,772375	275,37212	309,261652	0
15.01.2021	15:11:02	0	44,525439	2,735943	2,406	310,6584	1,094	84,687	0	1015,48	8,5	10,1	9,8	1	1	1	1	1	1	1	1	1	0	1	-16,560958	275,376902	309,495716	0
15.01.2021	15:11:03	0	44,641938	3,761925	2,40525	309,4668	1,094	84,673	0	1015,56	8,5	10,1	9,8	1	1	1	1	1	1	1	1	1	0	1	-12,191684	275,4152	314,046415	0
15.01.2021	15:11:04	0	44,641878	4,559939	2,56125	311,7492	1,096	84,668	0	1015,52	8,4	10,1	9,7	1	1	1	1	1	1	1	1	1	0	1	-15,081043	275,360966	310,900166	0
15.01.2021	15:11:05	0	44,292144	2,621951	2,59275	315,1116	1,097	84,642	0	1015,48	8,4	10,1	9,8	1	1	1	1	1	1	1	1	1	0	1	-13,530655	275,49844	313,102023	0
15.01.2021	15:11:06	0	44,175526	3,30596	2,7555	310,5864	1,094	84,617	0	1015,54	8,4	10,1	9,7	1	1	1	1	1	1	1	1	1	0	1	-10,852713	275,538586	315,970399	0
15.01.2021	15:11:07	0	44,641699	4,787945	2,73825	309,8772	1,094	84,589	0	1015,42	8,4	10,1	9,7	1	1	1	1	1	1	1	1	1	0	1	-16,772375	275,412005	309,450589	0
15.01.2021	15:11:08	0	44,291655	4,103955	2,78625	300,5208	1,095	84,585	0	1015,4	8,4	10	9,7	1	1	1	1	1	1	1	1	1	0	1	-12,544045	275,511277	314,14952	0
15.01.2021	15:11:09	0	44,291596	4,103958	2,77875	315,216	1,094	84,591	0	1015,44	8,4	10	9,7	1	1	1	1	1	1	1	1	1	0	1	-13,812544	275,4152	312,425555	0
15.01.2021	15:11:10	0	44,408404	4,331959	2,61675	306,4356	1,086	84,578	0	1015,44	8,3	10,1	9,7	1	1	1	1	1	1	1	1	1	0	1	-18,604651	275,501648	308,043244	0
15.01.2021	15:11:11	0	44,291787	3,419969	2,499	309,222	1,096	84,568	0	1015,44	8,4	10,1	9,7	1	1	1	1	1	1	1	1	1	0	1	-14,094433	275,399233	312,06802	0
15.01.2021	15:11:12	0	44,291728	3,533971	2,51775	303,462	1,089	84,566	0	1015,48	8,4	10,1	9,7	1	1	1	1	1	1	1	1	1	0	1	-16,842847	275,520911	309,896415	0
15.01.2021	15:11:13	0	44,175111	2,165983	2,5275	305,3268	1,089	84,568	0	1015,52	8,4	10,1	9,7	1	1	1	1	1	1	1	1	1	0	1	-15,503876	275,375307	310,545249	0
15.01.2021	15:11:14	0	44,058495	3,419956	2,56425	306,4968	1,088	84,574	0	1015,46	8,4	10,1	9,8	1	1	1	1	1	1	1	1	1	0	1	-16,772375	275,512883	309,928805	0
15.01.2021	15:11:15	0	44,64122	3,989975	2,55675	295,1172	1,092	84,575	0	1015,5	8,4	10,1	9,7	1	1	1	1	1	1	1	1	1	0	1	-11,557435	275,400829	314,612579	0
15.01.2021	15:11:16	0	44,64116	3,41996	2,53725	298,9908	1,092	84,559	0	1015,54	8,4	10,1	9,8	1	1	1	1	1	1	1	1	1	0	1	-14,728682	275,533764	312,071552	0
15.01.2021	15:11:17	0	44,174874	3,191984	2,62725	296,7552	1,089	84,544	0	1015,44	8,4	10,1	9,7	1	1	1	1	1	1	1	1	1	0	1	-18,604651	275,405618	307,588051	0
15.01.2021	15:11:18	0	44,058259	2,849987	2,68575	293,3352	1,089	84,564	0	1015,52	8,4	10,1	9,7	1	1	1	1	1	1	1	1	1	0	1	-16,208598	275,508067	310,469741	0
15.01.2021	15:11:19	0	44,524424	3,533987	2,72775	293,3568	1,086	84,571	0	1015,44	8,4	10,1	9,7	1	1	1	1	1	1	1	1	1	0	1	-14,023961	275,49844	312,608718	0
15.01.2021	15:11:20	0	44,174696	3,19199	2,76375	292,2372	1,095	84,564	0	1015,7	8,4	10,1	9,7	1	1	1	1	1	1	1	1	1	0	1	-16,842847	275,39285	309,289369	0
15.01.2021	15:11:21	0	44,524304	3,98999	2,74275	293,6484	1,086	84,563	0	1015,46	8,4	10,1	9,7	1	1	1	1	1	1	1	1	1	0	1	-16,420014	275,482404	310,136624	0
15.01.2021	15:11:22	0	44,174268	4,559992	2,65725	293,2596	1,086	84,568	0	1015,42	8,4	10	9,7	1	1	1	1	1	1	1	1	1	0	1	-10,852713	275,520911	315,886549	0
15.01.2021	15:11:23	0	44,174518	3,647974	2,526	288,1836	1,086	84,575	0	1015,46	8,4	10,1	9,8	1	1	1	1	1	1	1	1	1	0	1	-13,742072	275,553059	313,149713	0
15.01.2021	15:11:24	0	44,407259	4,445998	2,3745	300,1176	1,083	84,589	0	1015,38	8,4	10	9,7	1	1	1	1	1	1	1	1	1	0	1	-14,305849	275,397637	311,849043	0
15.01.2021	15:11:25	0	44,407199	2,849983	2,214	279,8712	1,09	84,589	0	1015,36	8,4	10	9,8	1	1	1	1	1	1	1	1	1	0	1	-12,544045	275,39285	313,58817	0
15.01.2021	15:11:26	0	44,057785	2,736002	2,0505	288,1224	1,083	84,588	0	1015,44	8,4	10,1	9,7	1	1	1	1	1	1	1	1	1	0	1	-14,587738	275,504857	312,075378	0
15.01.2021	15:11:27	0	44,173972	2,280003	1,8795	305,316	1,086	84,594	0	1015,56	8,5	10	9,7	1	1	1	1	1	1	1	1	1	0	1	-15,503876	275,540194	311,326863	0
15.01.2021	15:11:28	0	44,290466	3,534007	1,83825	304,2864	1,086	84,605	0	1015,62	8,4	10	9,7	1	1	1	1	1	1	1	1	1	0	1	-16,701903	275,418395	309,551335	0
15.01.2021	15:11:29	0	44,057608	3,420009	2,00775	298,6956	1,081	84,596	0	1015,46	8,4	10,1	9,7	1	1	1	1	1	1	1	1	1	0	1	-12,896406	275,527337	313,873337	0
15.01.2021	15:11:30	0	44,407212	2,735993	2,12025	308,106	1,089	84,61	0	1015,42	8,4	10,1	9,8	1	1	1	1	1	1	1	1	1	0	1	-13,460183	275,532157	313,332427	0
15.01.2021	15:11:31	0	44,174044	3,876015	2,04225	316,2708	1,088	84,614	0	1015,48	8,4	10,1	9,7	1	1	1	1	1	1	1	1	1	0	1	-18,534179	275,532157	308,258431	0
15.01.2021	15:11:32	0	44,639888	4,104019	2,0145	315,2628	1,089	84,609	0	1015,54	8,4	10	9,7	1	1	1	1	1	1	1	1	1	0	1	-13,530655	275,501648	313,11724	0
15.01.2021	15:11:33	0	44,290479	3,192017	1,96875	291,1716	1,089	84,597	0	1015,46	8,4	10,1	9,7	1	1	1	1	1	1	1	1	1	0	1	-16,138125	275,42159	310,130253	0
15.01.2021	15:11:34	0	44,406662	4,446026	1,80225	307,1952	1,083	84,624	0	1015,48	8,4	10	9,7	1	1	1	1	1	1	1	1	1	0	1	-10,782241	275,536979	316,033244	0
15.01.2021	15:11:35	0	44,29036	4,56003	1,713	300,492	1,086	84,634	0	1015,44	8,4	10,1	9,7	1	1	1	1	1	1	1	1	1	0	1	-16,631431	275,43118	309,68239	0
15.01.2021	15:11:36	0	44,406854	2,85002	1,6185	322,9488	1,086	84,617	0	1015,54	8,4	10,1	9,7	1	1	1	1	1	1	1	1	1	0	1	-13,460183	275,389659	312,656918	0
15.01.2021	15:11:37	0	44,290241	2,622005	1,617	319,968	1,082	84,62	0	1015,44	8,4	10,1	9,8	1	1	1	1	1	1	1	1	1	0	1	-12,684989	275,49844	313,947689	0
15.01.2021	15:11:38	0	44,057075	2,736007	1,52175	307,5588	1,082	84,627	0	1015,52	8,4	10,1	9,8	1	1	1	1	1	1	1	1	1	0	1	-12,896406	275,360966	313,084803	0
15.01.2021	15:11:39	0	44,290122	4,446041	1,4595	309,2328	1,083	84,641	0	1015,66	8,4	10,1	9,7	1	1	1	1	1	1	1	1	1	0	1	-15,785765	275,423188	310,490186	0
15.01.2021	15:11:40	0	44,406304	4,674018	1,4595	303,4548	1,087	84,639	0	1015,54	8,4	10	9,8	1	1	1	1	1	1	1	1	1	0	1	-15,785765	275,535371	311,022095	0
15.01.2021	15:11:41	0	43,940037	2,964013	1,55925	283,5792	1,085	84,652	0	1015,46	8,4	10	9,8	1	1	1	1	1	1	1	1	1	0	1	-13,107822	275,435976	313,22873	0
15.01.2021	15:11:42	0	44,406495	4,332022	1,6155	292,194	1,082	84,64	0	1015,5	8,4	10,1	9,8	1	1	1	1	1	1	1	1	1	0	1	-11,627907	275,386469	314,474083	0
15.01.2021	15:11:43	0	43,823674	2,850016	1,64025	279,2196	1,091	84,639	0	1015,52	8,4	10,1	9,8	1	1	1	1	1	1	1	1	1	0	1	-15,715292	275,508067	310,963047	0
15.01.2021	15:11:44	0	44,056719	2,964001	1,6905	276,8148	1,09	84,637	0	1015,42	8,4	10,1	9,9	1	1	1	1	1	1	1	1	1	0	1	-16,631431	275,353003	309,312074	0
15.01.2021	15:11:45	0	44,172903	2,850037	1,65075	290,736	1,083	84,63	0	1015,46	8,4	10	9,7	1	1	1	1	1	1	1	1	1	0	1	-12,755462	275,480801	313,793577	0
15.01.2021	15:11:46	0	44,522808	4,218058	1,596	280,6992	1,08	84,644	0	1015,48	8,4	10,1	9,7	1	1	1	1	1	1	1	1	1	0	1	-15,503876	275,546625	311,35738	0
15.01.2021	15:11:47	0	44,406197	3,420049	1,602	262,8072	1,08	84,637	0	1015,42	8,4	10,1	9,7	1	1	1	1	1	1	1	1	1	0	1	-15,362932	275,48561	311,208909	0
15.01.2021	15:11:48	0	44,289585	4,446066	1,83075	301,608	1,08	84,628	0	1015,36	8,4	10,1	9,7	1	1	1	1	1	1	1	1	1	0	1	-14,517266	275,53055	312,267721	0
15.01.2021	15:11:49	0	44,289215	3,876037	1,89225	321,9372	1,079	84,622	0	1015,46	8,4	10	9,8	1	1	1	1	1	1	1	1	1	0	1	-14,235377	275,404022	311,949762	0
15.01.2021	15:11:50	0	44,638807	4,560074	1,806	280,2636	1,087	84,652	0	1015,34	8,4	10	9,7	1	1	1	1	1	1	1	1	1	0	1	-12,191684	275,373713	313,849891	0
15.01.2021	15:11:51	0	44,172546	2,73603	1,7115	306,486	1,082	84,627	0	1015,46	8,4	10	9,8	1	1	1	1	1	1	1	1	1	0	1	-12,966878	275,480801	313,582161	0
15.01.2021	15:11:52	0	44,405587	4,902086	1,54425	342,9756	1,079	84,635	0	1015,34	8,4	10	9,7	1	1	1	1	1	1	1	1	1	0	1	-11,909796	275,536979	314,90569	0
15.01.2021	15:11:53	0	44,172427	2,850052	1,344	334,2996	1,084	84,641	0	1015,46	8,4	10	9,7	1	1	1	1	1	1	1	1	1	0	1	-14,376321	275,440774	311,982969	0
15.01.2021	15:11:54	0	44,172368	4,788061	1,239	305,4096	1,083	84,633	0	1015,46	8,4	10	9,8	1	1	1	1	1	1	1	1	1	0	1	-11,698379	275,511277	314,995186	0
15.01.2021	15:11:55	0	44,172308	4,104055	1,22775	291,8916	1,087	84,651	0	1015,52	8,4	10	9,8	1	1	1	1	1	1	1	1	1	0	1	-13,460183	275,516094	313,256227	0
15.01.2021	15:11:56	0	43,8226	3,078062	1,24125	303,1956	1,084	84,629	0	1015,34	8,4	10	9,7	1	1	1	1	1	1	1	1	1	0	1	-15,010571	275,353003	310,932934	0
15.01.2021	15:11:57	0	44,288738	4,332064	1,338	339,1524	1,081	84,654	0	1015,6	8,4	10	9,8	1	1	1	1	1	1	1	1	1	0	1	-11,839323	275,456775	314,595809	0
15.01.2021	15:11:58	0	43,706239	2,508054	1,3125	339,4512	1,084	84,643	0	1015,28	8,4	10,1	9,7	1	1	1	1	1	1	1	1	1	0	1	-14,869626	275,345044	311,036192	0
15.01.2021	15:11:59	0	43,93928	3,990088	1,2345	302,4612	1,078	84,631	0	1015,38	8,4	10,1	9,7	1	1	1	1	1	1	1	1	1	0	1	-14,305849	275,427983	311,992821	0
15.01.2021	15:12:00	0	44,171951	4,902085	1,389	316,2348	1,08	84,626	0	1015,48	8,4	10	9,8	1	1	1	1	1	1	1	1	1	0	1	-15,785765	275,545017	311,067861	0
15.01.2021	15:12:01	0	44,171951	4,902085	1,389	316,2348	1,08	84,626	0	1015,48	8,4	10	9,8	1	1	1	1	1	1	1	1	1	0	1	-14,65821	275,493628	311,951649	0
15.01.2021	15:12:02	0	43,939102	2,736066	1,46925	292,2156	1,077	84,642	0	1015,42	8,4	10,1	9,7	1	1	1	1	1	1	1	1	1	0	1	-14,517266	275,359373	311,456401	0
15.01.2021	15:12:03	0	43,938735	2,622049	1,73025	306,4788	1,077	84,648	0	1015,44	8,4	10	9,8	1	1	1	1	1	1	1	1	1	0	1	-14,869626	275,48561	311,702214	0
15.01.2021	15:12:04	0	43,938984	2,622051	2,007	298,782	1,08	84,637	0	1015,46	8,4	10,1	9,8	1	1	1	1	1	1	1	1	1	0	1	-11,41649	275,53055	315,368497	0
15.01.2021	15:12:05	0	43,822376	2,736071	2,3445	299,7288	1,085	84,657	0	1015,46	8,4	10,1	9,7	1	1	1	1	1	1	1	1	1	0	1	-14,094433	275,38009	311,977344	0
15.01.2021	15:12:06	0	44,171653	3,990082	2,51625	297,9144	1,084	84,654	0	1015,48	8,4	10	9,8	1	1	1	1	1	1	1	1	1	0	1	-14,728682	275,43118	311,585139	0
15.01.2021	15:12:07	0	43,705709	2,622071	2,53125	294,1056	1,083	84,655	0	1015,52	8,4	10,1	9,7	1	1	1	1	1	1	1	1	1	0	1	-15,926709	275,356188	310,031875	0
15.01.2021	15:12:08	0	44,171844	2,394067	2,56575	297,2196	1,084	84,668	0	1015,5	8,4	10,1	9,7	1	1	1	1	1	1	1	1	1	0	1	-13,389711	275,466382	313,090964	0
15.01.2021	15:12:09	0	43,705285	2,964085	2,52825	300,8484	1,074	84,658	0	1015,46	8,4	10	9,7	1	1	1	1	1	1	1	1	1	0	1	-15,785765	275,345044	310,120054	0
15.01.2021	15:12:10	0	43,938321	3,990092	2,52525	306,5148	1,088	84,664	0	1015,38	8,4	10	9,8	1	1	1	1	1	1	1	1	1	0	1	-16,27907	275,445573	310,102965	0
15.01.2021	15:12:11	0	44,054808	3,078092	2,5785	307,5336	1,081	84,665	0	1015,5	8,4	10	9,7	1	1	1	1	1	1	1	1	1	0	1	-14,305849	275,418395	311,947388	0
15.01.2021	15:12:12	0	43,938202	2,508061	2,62875	311,7744	1,083	84,666	0	1015,58	8,4	10	9,8	1	1	1	1	1	1	1	1	1	0	1	-17,477097	275,527337	309,292646	0
15.01.2021	15:12:13	0	44,288093	4,218106	2,61375	305,4816	1,084	84,663	0	1015,42	8,4	10,1	9,8	1	1	1	1	1	1	1	1	1	0	1	-15,010571	275,354596	310,940473	0
15.01.2021	15:12:14	0	44,288034	5,016129	2,60025	306,8136	1,079	84,65	0	1015,58	8,4	10,1	9,8	1	1	1	1	1	1	1	1	1	0	1	-12,966878	275,443973	313,407574	0
15.01.2021	15:12:15	0	44,171117	2,964078	2,58675	309,2616	1,084	84,679	0	1015,48	8,4	10	9,8	1	1	1	1	1	1	1	1	1	0	1	-12,684989	275,543409	314,161006	0
15.01.2021	15:12:16	0	44,287914	4,902133	2,4915	306,8892	1,08	84,67	0	1015,5	8,4	10,1	9,8	1	1	1	1	1	1	1	1	1	0	1	-13,883016	275,487213	312,696426	0
15.01.2021	15:12:17	0	43,704813	4,560126	2,529	305,388	1,078	84,662	0	1015,4	8,4	10	9,8	1	1	1	1	1	1	1	1	1	0	1	-13,883016	275,524124	312,871485	0
15.01.2021	15:12:18	0	44,054392	4,67416	2,34675	294,3972	1,081	84,669	0	1015,5	8,4	10	9,7	1	1	1	1	1	1	1	1	1	0	1	-13,530655	275,49844	313,102023	0
15.01.2021	15:12:19	0	44,287425	3,762132	2,22	317,3616	1,083	84,671	0	1015,64	8,4	10	9,7	1	1	1	1	1	1	1	1	1	0	1	-11,557435	275,508067	315,120904	0
15.01.2021	15:12:20	0	43,821489	3,762111	2,35875	306,8244	1,084	84,671	0	1015,52	8,4	10,1	9,8	1	1	1	1	1	1	1	1	1	0	1	-16,138125	275,346636	309,775229	0
15.01.2021	15:12:21	0	44,054523	4,218128	2,5545	308,0052	1,079	84,654	0	1015,42	8,4	10,1	9,8	1	1	1	1	1	1	1	1	1	0	1	-12,755462	275,447173	313,634156	0
15.01.2021	15:12:22	0	43,937609	3,192099	2,60175	299,0592	1,081	84,669	0	1015,6	8,4	10	9,8	1	1	1	1	1	1	1	1	1	0	1	-14,235377	275,370526	311,791103	0
15.01.2021	15:12:23	0	43,93755	2,85009	2,60025	308,4048	1,074	84,663	0	1015,48	8,4	10	9,8	1	1	1	1	1	1	1	1	1	0	1	-14,869626	275,362559	311,119126	0
15.01.2021	15:12:24	0	44,054344	3,078118	2,5665	302,4108	1,077	84,664	0	1015,54	8,4	10,1	9,7	1	1	1	1	1	1	1	1	1	0	1	-19,168428	275,439175	307,183281	0
15.01.2021	15:12:25	0	44,170521	3,762124	2,47275	308,7864	1,083	84,672	0	1015,54	8,4	10	9,8	1	1	1	1	1	1	1	1	1	0	1	-13,248767	275,535371	313,559093	0
15.01.2021	15:12:26	0	44,053917	3,078122	2,44275	307,2852	1,078	84,674	0	1015,38	8,4	10	9,7	1	1	1	1	1	1	1	1	1	0	1	-10,993658	275,412005	315,229306	0
15.01.2021	15:12:27	0	43,587984	2,964119	2,409	304,6176	1,082	84,661	0	1015,58	8,4	10,1	9,7	1	1	1	1	1	1	1	1	1	0	1	-12,332629	275,360966	313,648581	0
15.01.2021	15:12:28	0	43,820709	5,016175	2,34075	306,8424	1,079	84,662	0	1015,3	8,4	10	9,8	1	1	1	1	1	1	1	1	1	0	1	-13,601128	275,516094	313,115283	0
15.01.2021	15:12:29	0	43,587561	3,420142	2,4375	304,5852	1,077	84,645	0	1015,58	8,4	10	9,7	1	1	1	1	1	1	1	1	1	0	1	-14,446794	275,388064	311,662752	0
15.01.2021	15:12:30	0	44,053679	2,736115	2,637	317,448	1,072	84,642	0	1015,46	8,4	10	9,7	1	1	1	1	1	1	1	1	1	0	1	-14,869626	275,487213	311,709816	0
15.01.2021	15:12:31	0	44,053619	4,560195	2,7165	310,9932	1,078	84,649	0	1015,4	8,4	10	9,7	1	1	1	1	1	1	1	1	1	0	1	-10,711769	275,410408	315,503629	0
15.01.2021	15:12:32	0	44,170104	2,508079	2,655	310,5684	1,074	84,643	0	1015,42	8,4	10	9,9	1	1	1	1	1	1	1	1	1	0	1	-12,403101	275,5177	314,320926	0
15.01.2021	15:12:33	0	43,937264	3,306146	2,70375	320,3352	1,082	84,631	0	1015,42	8,4	10,1	9,7	1	1	1	1	1	1	1	1	1	0	1	-13,601128	275,419992	312,65968	0
15.01.2021	15:12:34	0	43,937205	3,192143	2,55975	322,5672	1,079	84,655	0	1015,56	8,4	10,1	9,7	1	1	1	1	1	1	1	1	1	0	1	-15,010571	275,408812	311,197261	0
15.01.2021	15:12:35	0	43,820294	3,420155	2,46825	315,2196	1,079	84,634	0	1015,38	8,4	10	9,7	1	1	1	1	1	1	1	1	1	0	1	-11,909796	275,346636	314,003559	0
15.01.2021	15:12:36	0	43,936778	3,078123	2,3805	321,8976	1,081	84,647	0	1015,46	8,4	10	9,8	1	1	1	1	1	1	1	1	1	0	1	-16,772375	275,456775	309,662758	0
15.01.2021	15:12:37	0	43,820176	4,560185	2,31825	319,2084	1,079	84,64	0	1015,52	8,4	10	9,8	1	1	1	1	1	1	1	1	1	0	1	-14,587738	275,543409	312,258258	0
15.01.2021	15:12:38	0	43,820117	4,104169	2,382	324,4032	1,08	84,648	0	1015,56	8,4	10	9,8	1	1	1	1	1	1	1	1	1	0	1	-15,010571	275,424786	311,272952	0
15.01.2021	15:12:39	0	43,820058	3,306139	2,42625	314,1504	1,08	84,64	0	1015,54	8,4	10	9,8	1	1	1	1	1	1	1	1	1	0	1	-11,627907	275,536979	315,187578	0
15.01.2021	15:12:40	0	44,053083	4,788204	2,3025	324,0504	1,078	84,634	0	1015,28	8,4	10	9,8	1	1	1	1	1	1	1	1	1	0	1	-11,627907	275,477596	314,905934	0
15.01.2021	15:12:41	0	43,470312	2,052089	2,1645	303,5016	1,073	84,64	0	1015,56	8,4	10	9,8	1	1	1	1	1	1	1	1	1	0	1	-15,997181	275,535371	310,810679	0
15.01.2021	15:12:42	0	44,169506	4,78821	2,0385	326,7792	1,075	84,627	0	1015,52	8,4	10	9,8	1	1	1	1	1	1	1	1	1	0	1	-16,27907	275,456775	310,156063	0
15.01.2021	15:12:43	0	43,936363	3,534157	1,93875	318,7692	1,078	84,644	0	1015,54	8,4	10	9,8	1	1	1	1	1	1	1	1	1	0	1	-15,221987	275,383279	310,864895	0
15.01.2021	15:12:44	0	43,819761	3,648165	1,91025	328,8276	1,073	84,614	0	1015,5	8,4	10	9,8	1	1	1	1	1	1	1	1	1	0	1	-17,477097	275,346636	308,436258	0
15.01.2021	15:12:45	0	43,936244	4,902225	1,8705	325,1808	1,079	84,635	0	1015,56	8,4	10	9,8	1	1	1	1	1	1	1	1	1	0	1	-16,983791	275,522518	309,76309	0
15.01.2021	15:12:46	0	43,81995	4,446233	1,905	316,9908	1,081	84,628	0	1015,4	8,4	10,1	9,7	1	1	1	1	1	1	1	1	1	0	1	-17,618041	275,484007	308,946198	0
15.01.2021	15:12:47	0	43,81989	2,96414	1,971	306,126	1,074	84,614	0	1015,36	8,4	10,1	9,8	1	1	1	1	1	1	1	1	1	0	1	-15,856237	275,373713	310,185339	0
15.01.2021	15:12:48	0	44,052607	3,420163	2,09925	313,632	1,074	84,623	0	1015,62	8,4	10	9,8	1	1	1	1	1	1	1	1	1	0	1	-12,403101	275,484007	314,161138	0
15.01.2021	15:12:49	0	43,819465	3,192155	2,16825	307,5876	1,068	84,615	0	1015,44	8,4	10	9,8	1	1	1	1	1	1	1	1	1	0	1	-14,235377	275,376902	311,821298	0
15.01.2021	15:12:50	0	44,169028	3,420168	2,30325	303,2136	1,082	84,62	0	1015,46	8,4	10	9,8	1	1	1	1	1	1	1	1	1	0	1	-17,970402	275,536979	308,845084	0
15.01.2021	15:12:51	0	43,935887	3,078153	2,358	314,4456	1,08	84,628	0	1015,5	8,4	10	9,8	1	1	1	1	1	1	1	1	1	0	1	-12,262156	275,4152	313,975943	0
15.01.2021	15:12:52	0	43,819287	3,534178	2,4315	313,1748	1,075	84,622	0	1015,42	8,4	10	9,8	1	1	1	1	1	1	1	1	1	0	1	-13,319239	275,527337	313,450504	0
15.01.2021	15:12:53	0	43,819228	4,788244	2,45475	306,522	1,076	84,635	0	1015,5	8,4	10	9,8	1	1	1	1	1	1	1	1	1	0	1	-16,772375	275,456775	309,662758	0
15.01.2021	15:12:54	0	44,052249	3,8762	2,5305	326,718	1,079	84,632	0	1015,54	8,4	10	9,8	1	1	1	1	1	1	1	1	1	0	1	-14,65821	275,349819	311,270218	0
15.01.2021	15:12:55	0	43,702569	3,420179	2,4525	315,5472	1,08	84,629	0	1015,5	8,4	10	9,8	1	1	1	1	1	1	1	1	1	0	1	-16,067653	275,495231	310,549811	0
15.01.2021	15:12:56	0	43,81905	3,534208	2,30775	317,3868	1,076	84,615	0	1015,22	8,4	10	9,7	1	1	1	1	1	1	1	1	1	0	1	-20,718816	275,480801	305,830223	0
15.01.2021	15:12:57	0	43,819297	4,902263	2,3625	327,096	1,069	84,63	0	1015,4	8,4	10,1	9,8	1	1	1	1	1	1	1	1	1	0	1	-18,604651	275,39285	307,527564	0
15.01.2021	15:12:58	0	43,702391	4,218229	2,46	325,4544	1,079	84,628	0	1015,46	8,4	10	9,8	1	1	1	1	1	1	1	1	1	0	1	-16,701903	275,520911	310,03736	0
15.01.2021	15:12:59	0	43,585793	3,078169	2,4405	325,0836	1,076	84,625	0	1015,56	8,4	10	9,8	1	1	1	1	1	1	1	1	1	0	1	-15,926709	275,487213	310,652734	0
15.01.2021	15:13:00	0	43,70252	2,85016	2,736	320,292	1,077	84,634	0	1015,54	8,4	10,1	9,8	1	1	1	1	1	1	1	1	1	0	1	-18,816068	275,396041	307,331265	0
15.01.2021	15:13:01	0	43,70252	2,85016	2,736	320,292	1,077	84,634	0	1015,54	8,4	10,1	9,8	1	1	1	1	1	1	1	1	1	0	1	-18,816068	275,396041	307,331265	0
15.01.2021	15:13:02	0	43,702155	2,622149	2,74575	322,8912	1,07	84,634	0	1015,52	8,4	10	9,8	1	1	1	1	1	1	1	1	1	0	1	-15,715292	275,353003	310,228212	0
15.01.2021	15:13:03	0	43,585556	2,850181	2,75175	323,2764	1,074	84,655	0	1015,36	8,4	10	9,7	1	1	1	1	1	1	1	1	1	0	1	-11,839323	275,479199	314,702116	0
15.01.2021	15:13:04	0	43,585497	2,622153	2,64825	320,7672	1,071	84,659	0	1015,44	8,5	10	9,8	1	1	1	1	1	1	1	1	1	0	1	-16,560958	275,524124	310,193542	0
15.01.2021	15:13:05	0	43,701977	3,762221	2,51925	323,334	1,081	84,671	0	1015,5	8,4	10	9,8	1	1	1	1	1	1	1	1	1	0	1	-14,940099	275,410408	311,275299	0
15.01.2021	15:13:06	0	43,585379	2,85017	2,36775	324,7668	1,08	84,657	0	1015,6	8,4	10	9,8	1	1	1	1	1	1	1	1	1	0	1	-13,178295	275,337088	312,689857	0
15.01.2021	15:13:07	0	44,168321	4,560274	2,3775	312,9516	1,072	84,667	0	1015,46	8,5	10,1	9,8	1	1	1	1	1	1	1	1	1	0	1	-17,758985	275,477596	308,774856	0
15.01.2021	15:13:08	0	43,352185	3,078187	2,20275	333,198	1,078	84,66	0	1015,48	8,4	10	9,8	1	1	1	1	1	1	1	1	1	0	1	-13,460183	275,353003	312,483321	0
15.01.2021	15:13:09	0	43,818278	2,622161	1,94475	293,0148	1,079	84,695	0	1015,58	8,4	10	9,8	1	1	1	1	1	1	1	1	1	0	1	-17,195208	275,356188	308,763376	0
15.01.2021	15:13:10	0	44,28437	4,67429	1,77225	316,5984	1,077	84,694	0	1015,48	8,4	10	9,8	1	1	1	1	1	1	1	1	1	0	1	-21,846371	275,484007	304,717868	0
15.01.2021	15:13:11	0	43,701621	2,964186	1,74	318,8268	1,073	84,689	0	1015,52	8,4	10	9,8	1	1	1	1	1	1	1	1	1	0	1	-16,983791	275,53055	309,801196	0
15.01.2021	15:13:12	0	44,28425	4,788303	1,71975	311,832	1,077	84,686	0	1015,42	8,4	10	9,8	1	1	1	1	1	1	1	1	1	0	1	-18,393235	275,496835	308,231836	0
15.01.2021	15:13:13	0	43,701503	3,534226	1,70025	315,4644	1,079	84,687	0	1015,44	8,4	10	9,8	1	1	1	1	1	1	1	1	1	0	1	-13,248767	275,532157	313,543844	0
15.01.2021	15:13:14	0	43,701444	3,876251	1,71525	302,4684	1,078	84,694	0	1015,4	8,4	10	9,8	1	1	1	1	1	1	1	1	1	0	1	-14,305849	275,477596	312,227992	0
15.01.2021	15:13:15	0	43,701384	3,876253	1,82625	306,1188	1,084	84,711	0	1015,58	8,4	10	9,8	1	1	1	1	1	1	1	1	1	0	1	-16,560958	275,53055	310,224029	0
15.01.2021	15:13:16	0	44,050936	4,446293	2,0025	304,5744	1,073	84,701	0	1015,4	8,4	10	9,8	1	1	1	1	1	1	1	1	1	0	1	-16,842847	275,424786	309,440676	0
15.01.2021	15:13:17	0	43,817803	2,622175	2,08275	306,4788	1,078	84,699	0	1015,3	8,4	10	9,8	1	1	1	1	1	1	1	1	1	0	1	-13,953488	275,367339	312,057898	0
15.01.2021	15:13:18	0	43,93428	2,508169	2,1495	312,804	1,077	84,73	0	1015,38	8,5	10	9,8	1	1	1	1	1	1	1	1	1	0	1	-12,825934	275,49042	313,768715	0
15.01.2021	15:13:19	0	43,701147	3,306225	2,15025	309,5208	1,078	84,715	0	1015,44	8,4	10	9,8	1	1	1	1	1	1	1	1	1	0	1	-17,829457	275,55145	309,054694	0
15.01.2021	15:13:20	0	43,817624	4,446305	2,27475	315,5364	1,079	84,711	0	1015,52	8,4	10	9,8	1	1	1	1	1	1	1	1	1	0	1	-17,195208	275,394446	308,944566	0
15.01.2021	15:13:21	0	44,283709	4,446308	2,4135	307,5876	1,077	84,748	0	1015,8	8,4	10	9,8	1	1	1	1	1	1	1	1	1	0	1	-18,393235	275,503253	308,262271	0
15.01.2021	15:13:22	0	43,817812	4,674327	2,475	302,8824	1,074	84,7	0	1015,48	8,4	10,1	9,8	1	1	1	1	1	1	1	1	1	0	1	-14,023961	275,383279	312,062922	0
15.01.2021	15:13:23	0	43,933982	4,67433	2,493	294,8004	1,078	84,717	0	1015,38	8,4	10	9,8	1	1	1	1	1	1	1	1	1	0	1	-19,732206	275,512883	306,968974	0
15.01.2021	15:13:24	0	43,701157	4,560325	2,64975	302,814	1,081	84,705	0	1015,4	8,4	10,1	9,8	1	1	1	1	1	1	1	1	1	0	1	-12,262156	275,48561	314,309684	0
15.01.2021	15:13:25	0	44,050398	3,990287	2,8635	296,172	1,079	84,708	0	1015,46	8,4	10	9,8	1	1	1	1	1	1	1	1	1	0	1	-16,067653	275,488817	310,519392	0
15.01.2021	15:13:26	0	44,166873	3,990289	2,9685	301,6548	1,07	84,702	0	1015,54	8,5	10	9,8	1	1	1	1	1	1	1	1	1	0	1	-16,631431	275,509672	310,054521	0
15.01.2021	15:13:27	0	43,817208	3,876284	2,88225	291,87	1,076	84,697	0	1015,52	8,4	10	9,8	1	1	1	1	1	1	1	1	1	0	1	-14,376321	275,503253	312,279184	0
15.01.2021	15:13:28	0	43,817149	4,902362	2,823	298,2564	1,076	84,698	0	1015,54	8,5	10	9,8	1	1	1	1	1	1	1	1	1	0	1	-16,27907	275,388064	309,830476	0
15.01.2021	15:13:29	0	43,700554	2,850212	2,73	298,3104	1,08	84,69	0	1015,44	8,4	10	9,8	1	1	1	1	1	1	1	1	1	0	1	-14,869626	275,348227	311,051264	0
15.01.2021	15:13:30	0	43,933564	4,446334	2,661	300,4416	1,078	84,693	0	1015,52	8,4	10	9,8	1	1	1	1	1	1	1	1	1	0	1	-15,362932	275,487213	311,216511	0
15.01.2021	15:13:31	0	44,166574	4,332328	2,58825	291,9096	1,08	84,669	0	1015,38	8,4	10	9,8	1	1	1	1	1	1	1	1	1	0	1	-13,530655	275,423188	312,745295	0
15.01.2021	15:13:32	0	43,583842	2,166165	2,53275	302,0508	1,08	84,665	0	1015,46	8,4	10	9,8	1	1	1	1	1	1	1	1	1	0	1	-15,292459	275,373713	310,749116	0
15.01.2021	15:13:33	0	43,467248	3,306275	2,39325	311,364	1,077	84,662	0	1015,42	8,4	10	9,7	1	1	1	1	1	1	1	1	1	0	1	-18,745595	275,477596	307,788246	0
15.01.2021	15:13:34	0	44,166394	3,762292	2,24775	312,084	1,071	84,645	0	1015,56	8,4	10	9,8	1	1	1	1	1	1	1	1	1	0	1	-14,305849	275,52573	312,456272	0
15.01.2021	15:13:35	0	43,467435	2,394188	2,12325	319,5324	1,075	84,656	0	1015,44	8,4	10,1	9,8	1	1	1	1	1	1	1	1	1	0	1	-11,768851	275,434377	314,560123	0
15.01.2021	15:13:36	0	43,583605	3,762297	2,0745	304,2828	1,076	84,64	0	1015,42	8,4	10	9,8	1	1	1	1	1	1	1	1	1	0	1	-18,957012	275,532157	307,835598	0
15.01.2021	15:13:37	0	43,700385	3,7623	1,9935	302,9076	1,076	84,66	0	1015,42	8,4	10,1	9,8	1	1	1	1	1	1	1	1	1	0	1	-15,785765	275,413603	310,444766	0
15.01.2021	15:13:38	0	43,70002	4,10433	1,8825	303,1488	1,072	84,641	0	1015,46	8,5	10	9,8	1	1	1	1	1	1	1	1	1	0	1	-11,557435	275,53055	315,227552	0
15.01.2021	15:13:39	0	43,816494	3,876314	1,851	295,4844	1,077	84,649	0	1015,6	8,4	10	9,8	1	1	1	1	1	1	1	1	1	0	1	-15,503876	275,492024	311,098377	0
15.01.2021	15:13:40	0	43,699901	3,078251	1,91625	328,1904	1,07	84,632	0	1015,42	8,4	10	9,8	1	1	1	1	1	1	1	1	1	0	1	-15,856237	275,482404	310,700402	0
15.01.2021	15:13:41	0	44,049441	4,560375	1,84275	305,064	1,078	84,649	0	1015,42	8,4	10	9,8	1	1	1	1	1	1	1	1	1	0	1	-13,6716	275,528943	313,105765	0
15.01.2021	15:13:42	0	43,699782	3,876321	1,8525	297,4896	1,075	84,661	0	1015,52	8,5	10	9,8	1	1	1	1	1	1	1	1	1	0	1	-16,067653	275,439175	310,284057	0
15.01.2021	15:13:43	0	43,699723	4,218353	1,90425	292,6692	1,081	84,646	0	1015,52	8,4	10	9,8	1	1	1	1	1	1	1	1	1	0	1	-16,067653	275,538586	310,755459	0
15.01.2021	15:13:44	0	43,699664	4,560384	2,17125	292,932	1,078	84,647	0	1015,44	8,4	10	9,8	1	1	1	1	1	1	1	1	1	0	1	-19,591261	275,405618	306,601441	0
15.01.2021	15:13:45	0	43,816136	2,850242	2,41875	304,6536	1,077	84,644	0	1015,42	8,5	10	9,8	1	1	1	1	1	1	1	1	1	0	1	-13,178295	275,346636	312,73506	0
15.01.2021	15:13:46	0	43,583013	3,762322	2,5245	300,4452	1,074	84,642	0	1015,46	8,4	10	9,8	1	1	1	1	1	1	1	1	1	0	1	-15,997181	275,447173	310,392437	0
15.01.2021	15:13:47	0	43,582953	3,990344	2,577	310,2732	1,078	84,649	0	1015,56	8,4	10	9,8	1	1	1	1	1	1	1	1	1	0	1	-15,151515	275,353003	310,791989	0
15.01.2021	15:13:48	0	44,049021	3,078267	2,601	303,4728	1,079	84,662	0	1015,48	8,4	10	9,8	1	1	1	1	1	1	1	1	1	0	1	-14,587738	275,458376	311,854983	0
15.01.2021	15:13:49	0	43,699366	3,876339	2,667	306,4248	1,077	84,66	0	1015,5	8,4	10	9,8	1	1	1	1	1	1	1	1	1	0	1	-12,614517	275,351411	313,321449	0
15.01.2021	15:13:50	0	43,815838	3,648322	2,664	302,8176	1,078	84,659	0	1015,44	8,4	10	9,8	1	1	1	1	1	1	1	1	1	0	1	-11,980268	275,434377	314,348706	0
15.01.2021	15:13:51	0	43,93231	3,306294	2,64225	313,6176	1,079	84,64	0	1015,46	8,4	10	9,8	1	1	1	1	1	1	1	1	1	0	1	-18,745595	275,522518	308,001286	0
15.01.2021	15:13:52	0	43,93225	3,420306	2,59725	297,8532	1,077	84,651	0	1015,46	8,5	10	9,8	1	1	1	1	1	1	1	1	1	0	1	-11,275546	275,378496	314,788679	0
15.01.2021	15:13:53	0	43,699129	3,306298	2,55825	300,8304	1,078	84,686	0	1015,52	8,5	10	9,8	1	1	1	1	1	1	1	1	1	0	1	-13,389711	275,357781	312,576414	0
15.01.2021	15:13:54	0	43,582538	2,508228	2,484	300,1104	1,074	84,655	0	1015,28	8,5	10	9,8	1	1	1	1	1	1	1	1	1	0	1	-15,010571	275,474391	311,508076	0
15.01.2021	15:13:55	0	43,582479	3,876354	2,283	303,4692	1,081	84,681	0	1015,48	8,5	10	9,8	1	1	1	1	1	1	1	1	1	0	1	-15,292459	275,360966	310,68875	0
15.01.2021	15:13:56	0	43,58242	3,534325	2,09475	298,62	1,075	84,669	0	1015,46	8,4	10	9,8	1	1	1	1	1	1	1	1	1	0	1	-19,168428	275,423188	307,107522	0
15.01.2021	15:13:57	0	43,815728	3,762349	1,9635	315,2376	1,08	84,668	0	1015,46	8,5	10,1	9,8	1	1	1	1	1	1	1	1	1	0	1	-18,393235	275,353003	307,55027	0
15.01.2021	15:13:58	0	43,931892	5,130479	1,9305	309,906	1,079	84,672	0	1015,46	8,5	10	9,8	1	1	1	1	1	1	1	1	1	0	1	-12,332629	275,423188	313,943322	0
15.01.2021	15:13:59	0	43,582242	3,420322	2,1075	300,4416	1,081	84,669	0	1015,48	8,4	10	9,8	1	1	1	1	1	1	1	1	1	0	1	-17,477097	275,522518	309,269785	0
15.01.2021	15:14:00	0	43,465593	2,052196	2,2695	306,4788	1,079	84,661	0	1015,34	8,4	10	9,8	1	1	1	1	1	1	1	1	1	0	1	-14,799154	275,49042	311,795495	0
15.01.2021	15:14:01	0	43,465593	2,052196	2,2695	306,4788	1,079	84,661	0	1015,34	8,4	10	9,8	1	1	1	1	1	1	1	1	1	0	1	-16,067653	275,538586	310,755459	0
15.01.2021	15:14:02	0	43,582064	2,736263	2,1735	298,3824	1,08	84,665	0	1015,42	8,5	10	9,8	1	1	1	1	1	1	1	1	1	0	1	-11,698379	275,480801	314,85066	0
15.01.2021	15:14:03	0	43,815063	4,218408	2,09175	299,4228	1,081	84,651	0	1015,52	8,5	10	9,8	1	1	1	1	1	1	1	1	1	0	1	-16,067653	275,52573	310,694468	0
15.01.2021	15:14:04	0	43,465416	2,394233	2,028	303,5736	1,079	84,642	0	1015,58	8,5	10	9,8	1	1	1	1	1	1	1	1	1	0	1	-12,896406	275,474391	313,622241	0
15.01.2021	15:14:05	0	43,581886	3,078301	1,9785	297,5544	1,075	84,62	0	1015,44	8,4	10	9,8	1	1	1	1	1	1	1	1	1	0	1	-14,65821	275,376902	311,398465	0
15.01.2021	15:14:06	0	43,698355	3,762371	1,96875	307,5408	1,077	84,624	0	1015,56	8,5	10	9,8	1	1	1	1	1	1	1	1	1	0	1	-12,614517	275,48561	313,957323	0
15.01.2021	15:14:07	0	43,465238	2,394238	2,06025	291,4884	1,083	84,625	0	1015,48	8,5	10	9,8	1	1	1	1	1	1	1	1	1	0	1	-15,433404	275,536979	311,382082	0
15.01.2021	15:14:08	0	43,34865	2,850285	2,16825	300,852	1,073	84,611	0	1015,5	8,4	10	9,8	1	1	1	1	1	1	1	1	1	0	1	-13,601128	275,464781	312,871955	0
15.01.2021	15:14:09	0	43,698177	4,332436	2,20275	294,8148	1,075	84,614	0	1015,32	8,5	10	9,8	1	1	1	1	1	1	1	1	1	0	1	-16,490486	275,360966	309,490723	0
15.01.2021	15:14:10	0	43,698117	2,394242	2,0325	303,4296	1,08	84,603	0	1015,46	8,5	10	9,8	1	1	1	1	1	1	1	1	1	0	1	-16,208598	275,399233	309,953855	0
15.01.2021	15:14:11	0	43,814586	2,052209	1,96875	305,73	1,078	84,605	0	1015,56	8,5	10	9,8	1	1	1	1	1	1	1	1	1	0	1	-12,05074	275,362559	313,938012	0
15.01.2021	15:14:12	0	43,464942	4,560467	1,9875	295,1856	1,077	84,596	0	1015,52	8,4	10	9,8	1	1	1	1	1	1	1	1	1	0	1	-13,6716	275,484007	312,892639	0
15.01.2021	15:14:13	0	43,930994	3,8764	2,00475	305,01	1,078	84,591	0	1015,54	8,5	10	9,8	1	1	1	1	1	1	1	1	1	0	1	-14,65821	275,528943	312,119154	0
15.01.2021	15:14:14	0	43,931242	4,560473	2,01375	304,6392	1,075	84,585	0	1015,36	8,5	10,1	9,8	1	1	1	1	1	1	1	1	1	0	1	-13,6716	275,495231	312,945865	0
15.01.2021	15:14:15	0	43,581292	2,96431	2,1165	306,8604	1,07	84,563	0	1015,32	8,5	10	9,8	1	1	1	1	1	1	1	1	1	0	1	-16,420014	275,368932	309,598919	0
15.01.2021	15:14:16	0	43,581232	2,508264	2,3685	313,146	1,076	84,572	0	1015,44	8,4	10	9,8	1	1	1	1	1	1	1	1	1	0	1	-16,349542	275,429581	309,956703	0
15.01.2021	15:14:17	0	43,930754	3,30635	2,6715	315,2088	1,069	84,556	0	1015,44	8,5	10	9,8	1	1	1	1	1	1	1	1	1	0	1	-11,909796	275,496835	314,715275	0
15.01.2021	15:14:18	0	43,814168	4,104437	2,91675	296,8164	1,073	84,561	0	1015,52	8,4	10	9,8	1	1	1	1	1	1	1	1	1	0	1	-12,896406	275,359373	313,077261	0
15.01.2021	15:14:19	0	43,464527	2,964317	3,07875	306,1728	1,073	84,558	0	1015,42	8,4	10	9,8	1	1	1	1	1	1	1	1	1	0	1	-12,191684	275,413603	314,038847	0
15.01.2021	15:14:20	0	43,697521	4,560491	3,1395	304,9596	1,071	84,548	0	1015,68	8,5	10	9,8	1	1	1	1	1	1	1	1	1	0	1	-17,618041	275,335497	308,242579	0
15.01.2021	15:14:21	0	43,813988	2,850309	3,189	301,6404	1,065	84,551	0	1015,44	8,2	10	9,8	1	1	1	1	1	1	1	1	1	0	1	-13,883016	275,520911	312,856246	0
15.01.2021	15:14:22	0	43,813928	3,648398	3,1905	302,8536	1,076	84,553	0	1015,52	8,4	10	9,8	1	1	1	1	1	1	1	1	1	0	1	-14,869626	275,545017	311,983999	0
15.01.2021	15:14:23	0	43,347764	3,078338	3,1095	303,9372	1,068	84,52	0	1015,46	8,5	10	9,8	1	1	1	1	1	1	1	1	1	0	1	-11,275546	275,492024	315,326707	0
15.01.2021	15:14:24	0	44,046861	4,788528	3,10425	299,1024	1,074	84,55	0	1015,64	8,2	10	9,8	1	1	1	1	1	1	1	1	1	0	1	-16,420014	275,528943	310,35735	0
15.01.2021	15:14:25	0	43,697223	3,192354	3,144	303,1812	1,073	84,538	0	1015,56	8,2	10	9,8	1	1	1	1	1	1	1	1	1	0	1	-13,742072	275,493628	312,867787	0
15.01.2021	15:14:26	0	43,930215	3,990446	3,17175	303,1848	1,073	84,546	0	1015,64	8,5	10	9,8	1	1	1	1	1	1	1	1	1	0	1	-11,346018	275,520911	315,393244	0
15.01.2021	15:14:27	0	43,580578	2,622295	3,2445	300,8376	1,07	84,524	0	1015,58	8,5	10	9,8	1	1	1	1	1	1	1	1	1	0	1	-19,943622	275,459977	306,506688	0
15.01.2021	15:14:28	0	43,580519	3,306374	3,16425	300,4812	1,068	84,535	0	1015,4	8,5	10	9,8	1	1	1	1	1	1	1	1	1	0	1	-14,023961	275,541801	312,814407	0
15.01.2021	15:14:29	0	43,696985	4,332492	3,17925	297,8532	1,064	84,531	0	1015,44	8,5	10	9,8	1	1	1	1	1	1	1	1	1	0	1	-13,6716	275,410408	312,543798	0
15.01.2021	15:14:30	0	43,696925	4,674534	3,15825	300,4704	1,073	84,541	0	1015,48	8,5	10	9,8	1	1	1	1	1	1	1	1	1	0	1	-15,433404	275,357781	310,532721	0
15.01.2021	15:14:31	0	43,580646	3,534406	3,1545	300,8592	1,071	84,522	0	1015,44	8,2	10,1	9,8	1	1	1	1	1	1	1	1	1	0	1	-14,305849	275,484007	312,25839	0
15.01.2021	15:14:32	0	43,230706	2,50829	3,02025	306,3708	1,071	84,53	0	1015,46	8,5	10	9,8	1	1	1	1	1	1	1	1	1	0	1	-15,151515	275,532157	311,641095	0
15.01.2021	15:14:33	0	43,929795	3,420398	2,8335	298,9476	1,07	84,541	0	1015,44	8,4	10	9,8	1	1	1	1	1	1	1	1	1	0	1	-14,305849	275,455174	312,121696	0
15.01.2021	15:14:34	0	43,230588	2,508293	2,679	315,8676	1,07	84,539	0	1015,46	8,5	10	9,8	1	1	1	1	1	1	1	1	1	0	1	-13,601128	275,391255	312,523531	0
15.01.2021	15:14:35	0	43,463578	4,218496	2,56425	320,0328	1,074	84,532	0	1015,52	8,5	10	9,8	1	1	1	1	1	1	1	1	1	0	1	-17,89993	275,533764	308,900305	0
15.01.2021	15:14:36	0	43,580043	4,674553	2,5035	320,6988	1,068	84,526	0	1015,52	8,5	10	9,8	1	1	1	1	1	1	1	1	1	0	1	-17,618041	275,362559	308,370712	0
15.01.2021	15:14:37	0	43,230411	2,850339	2,52675	315,5724	1,071	84,527	0	1015,38	8,2	10	9,8	1	1	1	1	1	1	1	1	1	0	1	-13,812544	275,376902	312,244131	0
15.01.2021	15:14:38	0	43,812972	5,0166	2,47575	312,9048	1,064	84,491	0	1015,54	8,5	10	9,8	1	1	1	1	1	1	1	1	1	0	1	-15,785765	275,511277	310,907801	0
15.01.2021	15:14:39	0	43,696388	4,788575	2,4645	312,5016	1,065	84,505	0	1015,48	8,5	10	9,8	1	1	1	1	1	1	1	1	1	0	1	-17,688513	275,514488	309,020282	0
15.01.2021	15:14:40	0	43,812852	4,560551	2,5455	303,2748	1,066	84,489	0	1015,58	8,5	10	9,8	1	1	1	1	1	1	1	1	1	0	1	-14,799154	275,412005	311,42381	0
15.01.2021	15:14:41	0	43,579745	4,902596	2,71875	315,468	1,082	84,494	0	1015,64	8,5	10	9,8	1	1	1	1	1	1	1	1	1	0	1	-9,372798	275,346636	316,540557	0
15.01.2021	15:14:42	0	43,696209	4,902599	2,80875	319,6656	1,065	84,477	0	1015,48	8,4	10	9,8	1	1	1	1	1	1	1	1	1	0	1	-12,191684	275,475994	314,33456	0
15.01.2021	15:14:43	0	43,34658	2,622322	2,85825	304,9848	1,066	84,47	0	1015,36	8,5	10	9,8	1	1	1	1	1	1	1	1	1	0	1	-14,376321	275,356188	311,582263	0
15.01.2021	15:14:44	0	43,463044	2,166267	2,793	314,3916	1,057	84,447	0	1015,46	8,5	10	9,8	1	1	1	1	1	1	1	1	1	0	1	-12,191684	275,453574	314,228274	0
15.01.2021	15:14:45	0	43,462984	3,420425	2,71575	305,712	1,056	84,434	0	1015,42	8,5	10	9,8	1	1	1	1	1	1	1	1	1	0	1	-15,715292	275,520911	311,02397	0
15.01.2021	15:14:46	0	43,346402	2,736341	2,73675	309,1824	1,065	84,442	0	1015,54	8,4	10	9,8	1	1	1	1	1	1	1	1	1	0	1	-16,208598	275,488817	310,378448	0
15.01.2021	15:14:47	0	43,69591	3,078386	2,75775	307,152	1,064	84,412	0	1015,32	8,5	10	9,8	1	1	1	1	1	1	1	1	1	0	1	-16,27907	275,343452	309,619214	0
15.01.2021	15:14:48	0	43,462806	2,622331	2,7045	303,9696	1,065	84,409	0	1015,46	8,5	10	9,8	1	1	1	1	1	1	1	1	1	0	1	-12,473573	275,461578	313,984327	0
15.01.2021	15:14:49	0	43,579269	4,10452	2,62725	311,7852	1,059	84,379	0	1015,32	8,5	10	9,8	1	1	1	1	1	1	1	1	1	0	1	-10,42988	275,349819	315,498548	0
15.01.2021	15:14:50	0	43,229643	3,192407	2,58075	325,5264	1,063	84,379	0	1015,54	8,5	10	9,8	1	1	1	1	1	1	1	1	1	0	1	-14,235377	275,458376	312,207344	0
15.01.2021	15:14:51	0	43,695671	5,016642	2,60175	321,1668	1,061	84,371	0	1015,48	8,5	10	9,8	1	1	1	1	1	1	1	1	1	0	1	-13,389711	275,496835	313,23536	0
15.01.2021	15:14:52	0	43,229525	3,306426	2,5785	314,8344	1,055	84,343	0	1015,36	8,5	10	9,8	1	1	1	1	1	1	1	1	1	0	1	-14,305849	275,522518	312,441032	0
15.01.2021	15:14:53	0	43,345987	2,850369	2,51025	318,8772	1,059	84,351	0	1015,44	8,5	10	9,8	1	1	1	1	1	1	1	1	1	0	1	-14,446794	275,397637	311,708099	0
15.01.2021	15:14:54	0	43,578971	3,762489	2,5725	327,78	1,059	84,345	0	1015,46	8,5	10	9,8	1	1	1	1	1	1	1	1	1	0	1	-15,362932	275,351411	310,573034	0
15.01.2021	15:14:55	0	43,695432	3,648499	2,61825	325,9584	1,057	84,333	0	1015,42	8,5	10	9,7	1	1	1	1	1	1	1	1	1	0	1	-14,65821	275,384874	311,436226	0
15.01.2021	15:14:56	0	43,695372	2,964389	2,727	329,3244	1,058	84,333	0	1015,32	8,5	10	9,8	1	1	1	1	1	1	1	1	1	0	1	-19,732206	275,522518	307,014675	0
15.01.2021	15:14:57	0	43,462271	3,876512	2,739	328,5576	1,059	84,378	0	1015,44	8,5	10	9,8	1	1	1	1	1	1	1	1	1	0	1	-16,983791	275,396041	309,163541	0
15.01.2021	15:14:58	0	43,695253	4,44659	2,652	324,8352	1,053	84,309	0	1015,46	8,5	10	9,8	1	1	1	1	1	1	1	1	1	0	1	-13,601128	275,378496	312,463098	0
15.01.2021	15:14:59	0	43,462152	4,446593	2,56425	320,796	1,053	84,295	0	1015,32	8,5	10	9,8	1	1	1	1	1	1	1	1	1	0	1	-12,896406	275,467984	313,591862	0
15.01.2021	15:15:00	0	43,462033	4,560614	2,1555	311,8248	1,054	84,293	0	1015,46	8,5	10	9,8	1	1	1	1	1	1	1	1	1	0	1	-14,094433	275,519305	312,637212	0
15.01.2021	15:15:01	0	43,462033	4,560614	2,1555	311,8248	1,054	84,293	0	1015,46	8,5	10	9,8	1	1	1	1	1	1	1	1	1	0	1	-17,547569	275,405618	308,645134	0
15.01.2021	15:15:02	0	43,228934	3,192432	1,9635	306,1152	1,056	84,304	0	1015,56	8,5	10	9,8	1	1	1	1	1	1	1	1	1	0	1	-13,248767	275,501648	313,399129	0
15.01.2021	15:15:03	0	43,694954	3,306449	1,881	316,9944	1,054	84,304	0	1015,54	8,5	10	9,8	1	1	1	1	1	1	1	1	1	0	1	-17,618041	275,482404	308,938598	0
15.01.2021	15:15:04	0	43,694894	3,306452	1,7775	304,7328	1,052	84,299	0	1015,5	8,2	10	9,8	1	1	1	1	1	1	1	1	1	0	1	-15,503876	275,527337	311,265866	0
15.01.2021	15:15:05	0	43,694834	4,44661	1,62675	310,0248	1,055	84,302	0	1015,48	8,5	10	9,8	1	1	1	1	1	1	1	1	1	0	1	-14,869626	275,477596	311,664215	0
15.01.2021	15:15:06	0	43,461736	4,674645	1,6215	337,2192	1,044	84,286	0	1015,4	8,5	10	9,8	1	1	1	1	1	1	1	1	1	0	1	-14,305849	275,527337	312,463893	0
15.01.2021	15:15:07	0	43,345157	4,104569	1,6845	308,16	1,047	84,292	0	1015,44	8,5	10	9,8	1	1	1	1	1	1	1	1	1	0	1	-16,631431	275,466382	309,849244	0
15.01.2021	15:15:08	0	43,461617	4,446619	1,821	327,4416	1,053	84,306	0	1015,52	8,5	10	9,8	1	1	1	1	1	1	1	1	1	0	1	-14,940099	275,53055	311,844888	0
15.01.2021	15:15:09	0	43,578076	4,21859	1,9155	308,4444	1,053	84,302	0	1015,46	8,5	10	9,8	1	1	1	1	1	1	1	1	1	0	1	-18,463707	275,471187	308,039749	0
15.01.2021	15:15:10	0	43,578016	2,736401	2,01675	317,7324	1,055	84,307	0	1015,36	8,2	10	9,7	1	1	1	1	1	1	1	1	1	0	1	-16,208598	275,356188	309,749987	0
15.01.2021	15:15:11	0	43,344919	3,078435	2,121	309,9852	1,054	84,297	0	1015,52	8,5	10	9,8	1	1	1	1	1	1	1	1	1	0	1	-21,071177	275,516094	305,645234	0
15.01.2021	15:15:12	0	43,810934	4,674663	2,26425	314,4168	1,052	84,308	0	1015,4	8,5	10	9,8	1	1	1	1	1	1	1	1	1	0	1	-13,178295	275,509672	313,507657	0
15.01.2021	15:15:13	0	43,228282	3,876552	2,2185	328,8996	1,056	84,308	0	1015,58	8,5	10	9,8	1	1	1	1	1	1	1	1	1	0	1	-17,124736	275,520911	309,614527	0
15.01.2021	15:15:14	0	43,461259	2,736392	2,19	324,7668	1,048	84,311	0	1015,42	8,2	10	9,8	1	1	1	1	1	1	1	1	1	0	1	-14,517266	275,397637	311,637627	0
15.01.2021	15:15:15	0	43,4612	3,306475	2,1345	331,146	1,048	84,304	0	1015,28	8,5	10	9,8	1	1	1	1	1	1	1	1	1	0	1	-12,755462	275,538586	314,06765	0
15.01.2021	15:15:16	0	43,694176	3,420494	2,208	316,9764	1,047	84,314	0	1015,5	8,5	10	9,8	1	1	1	1	1	1	1	1	1	0	1	-13,319239	275,440774	313,040051	0
15.01.2021	15:15:17	0	43,344563	4,788695	2,2785	311,2812	1,055	84,326	0	1015,5	8,5	10	9,8	1	1	1	1	1	1	1	1	1	0	1	-14,305849	275,348227	311,615042	0
15.01.2021	15:15:18	0	43,461021	3,876565	2,32425	310,6836	1,051	84,34	0	1015,48	8,2	10	9,8	1	1	1	1	1	1	1	1	1	0	1	-14,869626	275,466382	311,611048	0
15.01.2021	15:15:19	0	43,344444	2,736401	2,397	305,0136	1,052	84,334	0	1015,54	8,5	10	9,8	1	1	1	1	1	1	1	1	1	0	1	-13,178295	275,524124	313,576206	0
15.01.2021	15:15:20	0	43,577419	2,850419	2,46675	325,998	1,048	84,34	0	1015,54	8,2	10	9,8	1	1	1	1	1	1	1	1	1	0	1	-16,067653	275,399233	310,0948	0
15.01.2021	15:15:21	0	43,227808	2,16632	2,3535	318,4344	1,049	84,317	0	1015,32	8,5	10	9,8	1	1	1	1	1	1	1	1	1	0	1	-13,6716	275,533764	313,128635	0
15.01.2021	15:15:22	0	43,5773	3,648541	2,1435	310,6332	1,044	84,34	0	1015,42	8,5	10	9,8	1	1	1	1	1	1	1	1	1	0	1	-16,490486	275,447173	309,899132	0
15.01.2021	15:15:23	0	43,344207	4,56068	2,058	295,6104	1,048	84,348	0	1015,32	8,5	10	9,8	1	1	1	1	1	1	1	1	1	0	1	-13,460183	275,528943	313,317181	0
15.01.2021	15:15:24	0	43,57718	2,73641	2,121	291,1644	1,044	84,364	0	1015,5	8,2	10	9,8	1	1	1	1	1	1	1	1	1	0	1	-11,768851	275,472789	314,7422	0
15.01.2021	15:15:25	0	43,344391	3,078463	2,2095	292,2084	1,042	84,367	0	1015,36	8,2	10,1	9,8	1	1	1	1	1	1	1	1	1	0	1	-13,742072	275,527337	313,027671	0
15.01.2021	15:15:26	0	43,693577	2,736413	2,23125	289,1844	1,048	84,359	0	1015,54	8,5	10	9,8	1	1	1	1	1	1	1	1	1	0	1	-11,839323	275,396041	314,308009	0
15.01.2021	15:15:27	0	43,577306	4,788726	2,24475	291,9168	1,051	84,389	0	1015,56	8,2	10,1	9,8	1	1	1	1	1	1	1	1	1	0	1	-12,403101	275,500044	314,237186	0
15.01.2021	15:15:28	0	43,576941	4,218643	2,19375	294,0804	1,052	84,382	0	1015,54	8,2	10	9,8	1	1	1	1	1	1	1	1	1	0	1	-14,940099	275,360966	311,041111	0
15.01.2021	15:15:29	0	43,227334	2,622401	2,06475	297,9864	1,047	84,388	0	1015,44	8,2	10	9,8	1	1	1	1	1	1	1	1	1	0	1	-12,614517	275,477596	313,919324	0
15.01.2021	15:15:30	0	43,34379	4,332666	1,9755	303,102	1,046	84,394	0	1015,56	8,2	10	9,8	1	1	1	1	1	1	1	1	1	0	1	-14,446794	275,357781	311,519332	0
15.01.2021	15:15:31	0	43,576762	3,078475	2,0265	294,8328	1,048	84,39	0	1015,56	8,5	10	9,8	1	1	1	1	1	1	1	1	1	0	1	-13,530655	275,479199	313,010784	0
15.01.2021	15:15:32	0	43,227156	4,560707	2,217	296,0856	1,043	84,395	0	1015,48	8,5	10	9,8	1	1	1	1	1	1	1	1	1	0	1	-15,010571	275,538586	311,812541	0
15.01.2021	15:15:33	0	43,460127	2,622408	2,346	287,388	1,046	84,397	0	1015,54	8,2	10	9,8	1	1	1	1	1	1	1	1	1	0	1	-11,557435	275,426384	314,733662	0
15.01.2021	15:15:34	0	43,227037	3,990624	2,36925	298,9548	1,052	84,4	0	1015,36	8,2	10	9,8	1	1	1	1	1	1	1	1	1	0	1	-19,168428	275,360966	306,812781	0
15.01.2021	15:15:35	0	43,460312	2,73643	2,27475	304,9848	1,046	84,396	0	1015,36	8,2	10,1	9,8	1	1	1	1	1	1	1	1	1	0	1	-17,406624	275,442374	308,960246	0
15.01.2021	15:15:36	0	43,576768	4,446701	2,07375	312,858	1,042	84,4	0	1015,3	8,2	10,1	9,8	1	1	1	1	1	1	1	1	1	0	1	-13,107822	275,364152	312,888474	0
15.01.2021	15:15:37	0	43,576403	4,560722	1,941	308,8116	1,044	84,399	0	1015,5	8,2	10	9,8	1	1	1	1	1	1	1	1	1	0	1	-17,970402	275,474391	308,548245	0
15.01.2021	15:15:38	0	43,576343	4,446707	1,96575	313,182	1,04	84,402	0	1015,5	8,2	10	9,8	1	1	1	1	1	1	1	1	1	0	1	-17,829457	275,519305	308,902187	0
15.01.2021	15:15:39	0	43,459769	4,560728	2,04975	296,478	1,052	84,416	0	1015,48	8,5	10	9,8	1	1	1	1	1	1	1	1	1	0	1	-17,054264	275,354596	308,89678	0
15.01.2021	15:15:40	0	43,576223	4,902786	2,1075	297,5436	1,051	84,398	0	1015,56	8,5	10	9,8	1	1	1	1	1	1	1	1	1	0	1	-15,856237	275,5177	310,86779	0
15.01.2021	15:15:41	0	43,576163	4,332697	2,16375	293,3316	1,049	84,409	0	1015,42	8,5	10	9,8	1	1	1	1	1	1	1	1	1	0	1	-15,221987	275,400829	310,948027	0
15.01.2021	15:15:42	0	43,925952	4,560737	2,18475	298,6488	1,067	84,409	0	1015,42	8,2	10,1	9,8	1	1	1	1	1	1	1	1	1	0	1	-15,926709	275,53055	310,858278	0
15.01.2021	15:15:43	0	43,45953	4,56074	2,13225	301,5972	1,049	84,421	0	1015,56	8,2	10	9,8	1	1	1	1	1	1	1	1	1	0	1	-10,42988	275,376902	315,626795	0
15.01.2021	15:15:44	0	42,993718	2,736446	2,07225	303,2208	1,059	84,438	0	1015,6	8,5	10,1	9,8	1	1	1	1	1	1	1	1	1	0	1	-11,41649	275,354596	314,534553	0
15.01.2021	15:15:45	0	43,459715	2,850466	1,96875	301,554	1,052	84,43	0	1015,5	8,2	10,1	9,8	1	1	1	1	1	1	1	1	1	0	1	-17,124736	275,463179	309,340755	0
15.01.2021	15:15:46	0	43,692683	4,218693	1,9155	296,9028	1,053	84,438	0	1015,56	8,5	10,1	9,8	1	1	1	1	1	1	1	1	1	0	1	-16,208598	275,524124	310,545903	0
15.01.2021	15:15:47	0	43,459291	2,622432	1,97025	296,8092	1,053	84,442	0	1015,54	8,5	10	9,8	1	1	1	1	1	1	1	1	1	0	1	-12,614517	275,386469	313,487473	0
15.01.2021	15:15:48	0	43,226206	3,192528	1,94025	314,4924	1,051	84,443	0	1015,52	8,2	10	9,8	1	1	1	1	1	1	1	1	1	0	1	-13,389711	275,487213	313,189731	0
15.01.2021	15:15:49	0	43,459172	3,990663	1,893	305,0424	1,048	84,433	0	1015,46	8,5	10	9,8	1	1	1	1	1	1	1	1	1	0	1	-12,684989	275,383279	313,401893	0
15.01.2021	15:15:50	0	43,575625	4,104685	1,8285	299,7324	1,052	84,456	0	1015,52	8,2	10	9,8	1	1	1	1	1	1	1	1	1	0	1	-11,346018	275,346636	314,567336	0
15.01.2021	15:15:51	0	43,692383	4,560764	1,803	314,7912	1,044	84,448	0	1015,42	8,2	10,1	9,8	1	1	1	1	1	1	1	1	1	0	1	-15,574348	275,394446	310,565426	0
15.01.2021	15:15:52	0	43,575505	3,420575	1,76475	305,7048	1,055	84,46	0	1015,58	8,5	10	9,8	1	1	1	1	1	1	1	1	1	0	1	-17,406624	275,528943	309,37074	0
15.01.2021	15:15:53	0	43,459237	3,306558	1,82175	315,684	1,054	84,457	0	1015,44	8,5	10,1	9,8	1	1	1	1	1	1	1	1	1	0	1	-12,403101	275,407215	313,797166	0
15.01.2021	15:15:54	0	43,808408	5,01685	1,92	315,2052	1,052	84,456	0	1015,52	8,2	10	9,8	1	1	1	1	1	1	1	1	1	0	1	-14,65821	275,345044	311,247609	0
15.01.2021	15:15:55	0	43,109279	2,964504	1,9665	312,2568	1,056	84,464	0	1015,66	8,5	10	9,8	1	1	1	1	1	1	1	1	1	0	1	-14,235377	275,427983	312,063293	0
15.01.2021	15:15:56	0	43,575265	4,218721	2,0355	291,5208	1,043	84,454	0	1015,52	8,5	10	9,8	1	1	1	1	1	1	1	1	1	0	1	-13,953488	275,520911	312,785774	0
15.01.2021	15:15:57	0	43,925047	4,560782	2,145	309,5532	1,049	84,479	0	1015,56	8,2	10,1	9,8	1	1	1	1	1	1	1	1	1	0	1	-17,406624	275,484007	309,157615	0
15.01.2021	15:15:58	0	43,225915	4,446765	2,1645	293,706	1,054	84,458	0	1015,56	8,2	10,1	9,8	1	1	1	1	1	1	1	1	1	0	1	-14,094433	275,49844	312,538246	0
15.01.2021	15:15:59	0	43,342367	2,736473	2,20575	300,8484	1,052	84,46	0	1015,46	8,5	10,1	9,8	1	1	1	1	1	1	1	1	1	0	1	-11,768851	275,368932	314,250081	0
15.01.2021	15:16:00	0	43,691782	3,420616	2,22	306,4572	1,054	84,481	0	1015,52	8,2	10,1	9,7	1	1	1	1	1	1	1	1	1	0	1	-16,490486	275,404022	309,694653	0
15.01.2021	15:16:01	0	43,691782	3,420616	2,22	306,4572	1,054	84,481	0	1015,52	8,2	10,1	9,7	1	1	1	1	1	1	1	1	1	0	1	-16,490486	275,404022	309,694653	0
15.01.2021	15:16:02	0	43,691722	5,016877	2,2035	308,8548	1,052	84,464	0	1015,4	8,2	10,1	9,8	1	1	1	1	1	1	1	1	1	0	1	-17,829457	275,495231	308,788007	0
15.01.2021	15:16:03	0	43,342129	2,73648	2,1375	324,1224	1,051	84,477	0	1015,58	8,5	10,1	9,8	1	1	1	1	1	1	1	1	1	0	1	-14,023961	275,493628	312,585898	0
15.01.2021	15:16:04	0	42,992235	2,280402	2,08875	324,36	1,056	84,476	0	1015,44	8,2	10	9,8	1	1	1	1	1	1	1	1	1	0	1	-15,221987	275,364152	310,774309	0
15.01.2021	15:16:05	0	43,574726	4,902866	2,0505	319,5504	1,062	84,476	0	1015,44	8,5	10	9,8	1	1	1	1	1	1	1	1	1	0	1	-15,785765	275,500044	310,854522	0
15.01.2021	15:16:06	0	43,225439	3,990708	1,992	318,4056	1,061	84,482	0	1015,44	8,2	10,1	9,8	1	1	1	1	1	1	1	1	1	0	1	-13,03735	275,53055	313,747637	0
15.01.2021	15:16:07	0	43,458096	3,990711	2,001	310,2552	1,056	84,473	0	1015,5	8,2	10	9,8	1	1	1	1	1	1	1	1	1	0	1	-11,205074	275,484007	315,359165	0
15.01.2021	15:16:08	0	43,341527	5,130917	2,0985	309,9348	1,058	84,478	0	1015,52	8,2	10	9,8	1	1	1	1	1	1	1	1	1	0	1	-16,349542	275,48561	310,222299	0
15.01.2021	15:16:09	0	43,224958	4,218757	2,163	303,57	1,06	84,473	0	1015,48	8,2	10	9,8	1	1	1	1	1	1	1	1	1	0	1	-14,164905	275,53055	312,620082	0
15.01.2021	15:16:10	0	43,574426	3,990718	2,304	318,6216	1,053	84,482	0	1015,5	8,2	10	9,8	1	1	1	1	1	1	1	1	1	0	1	-12,966878	275,480801	313,582161	0
15.01.2021	15:16:11	0	43,574366	3,192577	2,373	305,5932	1,057	84,479	0	1015,46	8,2	10	9,8	1	1	1	1	1	1	1	1	1	0	1	-15,64482	275,364152	310,351476	0
15.01.2021	15:16:12	0	43,341288	4,104744	2,46825	309,114	1,057	84,484	0	1015,34	8,2	10	9,8	1	1	1	1	1	1	1	1	1	0	1	-13,812544	275,356188	312,14604	0
15.01.2021	15:16:13	0	43,574246	4,902892	2,42325	292,2048	1,058	84,497	0	1015,5	8,2	10	9,8	1	1	1	1	1	1	1	1	1	0	1	-15,081043	275,488817	311,506002	0
15.01.2021	15:16:14	0	43,457677	4,10475	2,34	297,9108	1,057	84,5	0	1015,42	8,2	10	9,8	1	1	1	1	1	1	1	1	1	0	1	-15,292459	275,487213	311,286983	0
15.01.2021	15:16:15	0	43,923651	5,01692	2,1885	297,1512	1,05	84,506	0	1015,5	8,5	10	9,8	1	1	1	1	1	1	1	1	1	0	1	-16,842847	275,532157	309,949763	0
15.01.2021	15:16:16	0	43,108335	3,078566	2,03325	308,0628	1,059	84,502	0	1015,5	8,2	10,1	9,8	1	1	1	1	1	1	1	1	1	0	1	-11,346018	275,4152	314,892081	0
15.01.2021	15:16:17	0	43,574006	4,218779	1,91925	297,5976	1,061	84,501	0	1015,52	8,2	10	9,8	1	1	1	1	1	1	1	1	1	0	1	-15,574348	275,545017	311,279277	0
15.01.2021	15:16:18	0	43,574251	4,446824	1,86225	297,9324	1,055	84,509	0	1015,44	8,2	10,1	9,8	1	1	1	1	1	1	1	1	1	0	1	-14,305849	275,482404	312,250789	0
15.01.2021	15:16:19	0	43,457378	4,332806	1,794	299,4084	1,059	84,522	0	1015,44	8,2	10	9,8	1	1	1	1	1	1	1	1	1	0	1	-14,587738	275,548234	312,281149	0
15.01.2021	15:16:20	0	43,690333	4,332835	1,7985	305,3808	1,058	84,499	0	1015,64	8,2	10	9,7	1	1	1	1	1	1	1	1	1	0	1	-16,560958	275,399233	309,601495	0
15.01.2021	15:16:21	0	43,224243	3,420641	1,9065	310,6332	1,061	84,521	0	1015,74	8,2	10	9,8	1	1	1	1	1	1	1	1	1	0	1	-11,909796	275,351411	314,02617	0
15.01.2021	15:16:22	0	43,340995	3,648686	2,0175	304,4088	1,061	84,526	0	1015,5	8,2	10,1	9,8	1	1	1	1	1	1	1	1	1	0	1	-19,097956	275,475994	307,428288	0
15.01.2021	15:16:23	0	43,457138	5,016976	2,043	307,2528	1,06	84,518	0	1015,52	8,2	10	9,7	1	1	1	1	1	1	1	1	1	0	1	-11,627907	275,536979	315,187578	0
15.01.2021	15:16:24	0	43,340572	4,218799	2,0055	310,2012	1,064	84,544	0	1015,56	8,5	10	9,8	1	1	1	1	1	1	1	1	1	0	1	-13,812544	275,424786	312,470979	0
15.01.2021	15:16:25	0	43,224308	2,850541	2,01375	308,8296	1,063	84,53	0	1015,5	8,2	10,1	9,8	1	1	1	1	1	1	1	1	1	0	1	-16,701903	275,341861	309,188847	0
15.01.2021	15:16:26	0	43,224248	2,622516	2,05875	314,802	1,057	84,546	0	1015,5	8,2	10,1	9,7	1	1	1	1	1	1	1	1	1	0	1	-8,949965	275,463179	317,515526	0
15.01.2021	15:16:27	0	43,107379	2,964567	2,058	314,82	1,066	84,555	0	1015,52	8,2	10	9,8	1	1	1	1	1	1	1	1	1	0	1	-11,980268	275,532157	314,812343	0
15.01.2021	15:16:28	0	43,10732	2,850547	2,05125	311,4216	1,065	84,542	0	1015,44	8,2	10	9,8	1	1	1	1	1	1	1	1	1	0	1	-9,302326	275,509672	317,383626	0
15.01.2021	15:16:29	0	43,573285	4,332834	2,15925	318,4416	1,062	84,555	0	1015,52	8,2	10	9,8	1	1	1	1	1	1	1	1	1	0	1	-15,64482	275,509672	311,041131	0
15.01.2021	15:16:30	0	43,57353	4,332863	2,14575	326,358	1,057	84,528	0	1015,42	8,2	10,1	9,7	1	1	1	1	1	1	1	1	1	0	1	-16,208598	275,418395	310,04464	0
15.01.2021	15:16:31	0	43,340153	3,648708	2,17575	321,5124	1,066	84,568	0	1015,6	8,2	10	9,8	1	1	1	1	1	1	1	1	1	0	1	-16,913319	275,528943	309,864045	0
15.01.2021	15:16:32	0	43,806116	4,560887	2,27025	337,536	1,061	84,562	0	1015,62	8,2	10	9,8	1	1	1	1	1	1	1	1	1	0	1	-16,208598	275,396041	309,938735	0
15.01.2021	15:16:33	0	42,990818	2,622512	2,376	333,4248	1,065	84,56	0	1015,64	8,2	10,1	9,8	1	1	1	1	1	1	1	1	1	0	1	-13,742072	275,343452	312,156212	0
15.01.2021	15:16:34	0	43,339974	3,762737	2,35725	334,8864	1,063	84,534	0	1015,44	8,2	10	9,8	1	1	1	1	1	1	1	1	1	0	1	-17,970402	275,448773	308,4268	0
15.01.2021	15:16:35	0	43,456724	3,648717	2,277	321,822	1,07	84,558	0	1015,56	8,2	10,1	9,8	1	1	1	1	1	1	1	1	1	0	1	-15,221987	275,5177	311,50204	0
15.01.2021	15:16:36	0	43,339854	2,508495	2,3205	318,9276	1,064	84,569	0	1015,56	8,2	10	9,8	1	1	1	1	1	1	1	1	1	0	1	-12,403101	275,48561	314,16874	0
15.01.2021	15:16:37	0	43,573109	4,788948	2,499	318,7188	1,066	84,569	0	1015,56	8,2	10,1	9,8	1	1	1	1	1	1	1	1	1	0	1	-15,151515	275,540194	311,679224	0
15.01.2021	15:16:38	0	43,573049	4,446883	2,71425	321,7644	1,061	84,556	0	1015,4	8,2	10,1	9,8	1	1	1	1	1	1	1	1	1	0	1	-12,05074	275,467984	314,437528	0
15.01.2021	15:16:39	0	43,572989	4,902977	2,83725	323,5608	1,067	84,559	0	1015,58	8,2	10,1	9,8	1	1	1	1	1	1	1	1	1	0	1	-17,547569	275,527337	309,222174	0
15.01.2021	15:16:40	0	43,456119	3,078615	2,8035	320,0508	1,069	84,559	0	1015,32	8,5	10	9,8	1	1	1	1	1	1	1	1	1	0	1	-11,980268	275,484007	314,583971	0
15.01.2021	15:16:41	0	43,689374	4,104823	2,7315	321,1668	1,071	84,565	0	1015,46	8,2	10,1	9,8	1	1	1	1	1	1	1	1	1	0	1	-19,661734	275,522518	307,085148	0
15.01.2021	15:16:42	0	43,223294	2,736551	2,7435	324,1116	1,062	84,565	0	1015,5	8,2	10,1	9,8	1	1	1	1	1	1	1	1	1	0	1	-14,446794	275,463179	312,018697	0
15.01.2021	15:16:43	0	43,106428	2,394483	2,7495	326,1096	1,063	84,565	0	1015,58	8,2	10	9,8	1	1	1	1	1	1	1	1	1	0	1	-15,151515	275,536979	311,66397	0
15.01.2021	15:16:44	0	43,688887	4,674947	2,76075	315,4968	1,067	84,569	0	1015,62	8,2	10	9,8	1	1	1	1	1	1	1	1	1	0	1	-17,406624	275,447173	308,982994	0
15.01.2021	15:16:45	0	43,339619	4,788973	2,71425	316,296	1,066	84,571	0	1015,54	8,2	10,1	9,8	1	1	1	1	1	1	1	1	1	0	1	-16,842847	275,528943	309,934517	0
15.01.2021	15:16:46	0	43,572568	3,87679	2,655	315,486	1,066	84,575	0	1015,4	8,2	10,1	9,8	1	1	1	1	1	1	1	1	1	0	1	-18,111346	275,472789	308,399705	0
15.01.2021	15:16:47	0	43,572203	4,560933	2,6565	311,3604	1,064	84,573	0	1015,4	8,2	10	9,8	1	1	1	1	1	1	1	1	1	0	1	-18,88654	275,333906	306,96655	0
15.01.2021	15:16:48	0	43,805455	4,674959	2,63325	306,1188	1,059	84,566	0	1015,46	8,2	10,1	9,8	1	1	1	1	1	1	1	1	1	0	1	-18,957012	275,466382	307,523663	0
15.01.2021	15:16:49	0	43,455884	3,990821	2,586	314,442	1,067	84,575	0	1015,46	8,2	10,1	9,8	1	1	1	1	1	1	1	1	1	0	1	-18,181818	275,520911	308,557444	0
15.01.2021	15:16:50	0	43,106313	4,218871	2,625	317,376	1,063	84,589	0	1015,44	8,2	10,1	9,8	1	1	1	1	1	1	1	1	1	0	1	-12,684989	275,464781	313,788093	0
15.01.2021	15:16:51	0	43,222454	3,534732	2,6205	315,9936	1,068	84,586	0	1015,54	8,2	10	9,8	1	1	1	1	1	1	1	1	1	0	1	-13,460183	275,533764	313,340051	0
15.01.2021	15:16:52	0	43,572207	5,017043	2,55975	308,8728	1,07	84,578	0	1015,5	8,2	10,1	9,8	1	1	1	1	1	1	1	1	1	0	1	-14,65821	275,458376	311,784511	0
15.01.2021	15:16:53	0	42,98933	2,850594	2,57475	309,1716	1,07	84,576	0	1015,4	8,2	10	9,8	1	1	1	1	1	1	1	1	1	0	1	-13,389711	275,343452	312,508573	0
15.01.2021	15:16:54	0	43,805092	3,648785	2,50275	305,7588	1,067	84,573	0	1015,5	8,5	10,1	9,7	1	1	1	1	1	1	1	1	1	0	1	-16,842847	275,424786	309,440676	0
15.01.2021	15:16:55	0	43,571721	3,306694	2,547	305,4096	1,063	84,576	0	1015,56	8,2	10	9,8	1	1	1	1	1	1	1	1	1	0	1	-13,883016	275,349819	312,045412	0
15.01.2021	15:16:56	0	43,222155	4,332912	2,556	311,094	1,057	84,553	0	1015,4	8,2	10	9,8	1	1	1	1	1	1	1	1	1	0	1	-15,081043	275,482404	311,475596	0
15.01.2021	15:16:57	0	43,455403	2,850602	2,5275	309,222	1,065	84,553	0	1015,5	8,2	10,1	9,8	1	1	1	1	1	1	1	1	1	0	1	-12,544045	275,353003	313,399459	0
15.01.2021	15:16:58	0	43,338841	3,762797	2,5425	308,8368	1,067	84,56	0	1015,56	8,2	10,1	9,8	1	1	1	1	1	1	1	1	1	0	1	-19,097956	275,400829	307,072058	0
15.01.2021	15:16:59	0	43,455283	3,990848	2,5815	305,712	1,069	84,56	0	1015,56	8,5	10,1	9,8	1	1	1	1	1	1	1	1	1	0	1	-13,107822	275,509672	313,578129	0
15.01.2021	15:17:00	0	43,57136	4,674999	2,70375	316,5984	1,067	84,553	0	1015,48	8,2	10	9,8	1	1	1	1	1	1	1	1	1	0	1	-13,601128	275,524124	313,153373	0
15.01.2021	15:17:01	0	43,57136	4,674999	2,70375	316,5984	1,067	84,553	0	1015,48	8,2	10	9,8	1	1	1	1	1	1	1	1	1	0	1	-9,936575	275,52573	316,825546	0
15.01.2021	15:17:02	0	43,105296	3,990856	2,802	308,0736	1,071	84,567	0	1015,52	8,5	10	9,8	1	1	1	1	1	1	1	1	1	0	1	-17,195208	275,5177	309,528819	0
15.01.2021	15:17:03	0	42,989037	4,104883	2,727	306,8172	1,063	84,555	0	1015,42	8,2	10,1	9,8	1	1	1	1	1	1	1	1	1	0	1	-15,362932	275,488817	311,224114	0
15.01.2021	15:17:04	0	43,571179	4,560984	2,63925	310,7124	1,07	84,546	0	1015,52	8,2	10	9,8	1	1	1	1	1	1	1	1	1	0	1	-18,040874	275,423188	308,235077	0
15.01.2021	15:17:05	0	43,338422	3,990864	2,79225	312,5088	1,064	84,536	0	1015,46	8,2	10,1	9,8	1	1	1	1	1	1	1	1	1	0	1	-15,64482	275,532157	311,14779	0
15.01.2021	15:17:06	0	43,454558	3,078668	2,80725	318,1644	1,065	84,547	0	1015,38	8,3	10	9,8	1	1	1	1	1	1	1	1	1	0	1	-16,420014	275,4152	309,818085	0
15.01.2021	15:17:07	0	43,454802	4,789043	2,7015	320,4108	1,068	84,533	0	1015,48	8,2	10,1	9,8	1	1	1	1	1	1	1	1	1	0	1	-10,711769	275,527337	316,057974	0
15.01.2021	15:17:08	0	43,454438	3,306722	2,5065	316,2888	1,064	84,537	0	1015,44	8,2	10	9,8	1	1	1	1	1	1	1	1	1	0	1	-13,812544	275,407215	312,387723	0
15.01.2021	15:17:09	0	43,221681	3,762824	2,53125	317,8404	1,068	84,554	0	1015,48	8,2	10,1	9,8	1	1	1	1	1	1	1	1	1	0	1	-11,768851	275,351411	314,167115	0
15.01.2021	15:17:10	0	43,454622	4,332978	2,502	312,5124	1,071	84,552	0	1015,44	8,2	10,1	9,7	1	1	1	1	1	1	1	1	1	0	1	-14,023961	275,467984	312,464307	0
15.01.2021	15:17:11	0	42,988561	4,789056	2,52375	313,2	1,066	84,538	0	1015,54	8,2	10,1	9,8	1	1	1	1	1	1	1	1	1	0	1	-14,164905	275,471187	312,338551	0
15.01.2021	15:17:12	0	43,105002	2,964655	2,2875	310,9968	1,074	84,541	0	1015,44	8,2	10,1	9,8	1	1	1	1	1	1	1	1	1	0	1	-15,503876	275,349819	310,424552	0
15.01.2021	15:17:13	0	43,337638	4,903087	2,16975	308,6748	1,07	84,534	0	1015,46	8,2	10	9,8	1	1	1	1	1	1	1	1	1	0	1	-14,940099	275,527337	311,829644	0
15.01.2021	15:17:14	0	43,454381	3,534786	2,1195	302,8428	1,066	84,533	0	1015,58	8,2	10,1	9,8	1	1	1	1	1	1	1	1	1	0	1	-16,983791	275,396041	309,163541	0
15.01.2021	15:17:15	0	43,104823	3,876865	2,1315	312,8436	1,071	84,542	0	1015,58	8,3	10,1	9,8	1	1	1	1	1	1	1	1	1	0	1	-19,379845	275,359373	306,593822	0
15.01.2021	15:17:16	0	43,570455	2,850655	2,0025	300,2076	1,069	84,529	0	1015,42	8,2	10	9,7	1	1	1	1	1	1	1	1	1	0	1	-17,054264	275,368932	308,964669	0
15.01.2021	15:17:17	0	42,987903	2,508563	1,88025	306,0936	1,071	84,548	0	1015,5	8,2	10	9,8	1	1	1	1	1	1	1	1	1	0	1	-14,940099	275,461578	311,517802	0
15.01.2021	15:17:18	0	43,454141	4,903103	1,78125	317,3544	1,059	84,534	0	1015,46	8,3	10,1	9,8	1	1	1	1	1	1	1	1	1	0	1	-13,460183	275,535371	313,347676	0
15.01.2021	15:17:19	0	43,454081	4,218952	1,7055	313,6392	1,065	84,529	0	1015,54	8,2	10,1	9,8	1	1	1	1	1	1	1	1	1	0	1	-13,389711	275,472789	313,12134	0
15.01.2021	15:17:20	0	43,104222	3,306749	1,7145	305,0388	1,069	84,517	0	1015,54	8,2	10	9,8	1	1	1	1	1	1	1	1	1	0	1	-13,883016	275,362559	312,105736	0
15.01.2021	15:17:21	0	43,104465	4,332984	1,7175	312,9552	1,065	84,521	0	1015,48	8,2	10,1	9,8	1	1	1	1	1	1	1	1	1	0	1	-11,980268	275,427983	314,318403	0
15.01.2021	15:17:22	0	43,220903	5,017142	1,758	302,5296	1,067	84,522	0	1015,44	8,2	10,1	9,8	1	1	1	1	1	1	1	1	1	0	1	-14,65821	275,351411	311,277756	0
15.01.2021	15:17:23	0	43,337038	2,850651	1,836	301,3092	1,068	84,509	0	1015,48	8,2	10	9,8	1	1	1	1	1	1	1	1	1	0	1	-14,940099	275,48561	311,631742	0
15.01.2021	15:17:24	0	43,570278	4,903123	1,881	303,7176	1,071	84,532	0	1015,52	8,2	10,1	9,8	1	1	1	1	1	1	1	1	1	0	1	-14,728682	275,520911	312,01058	0
15.01.2021	15:17:25	0	43,337222	4,903126	1,82925	310,7376	1,071	84,523	0	1015,5	8,3	10,1	9,8	1	1	1	1	1	1	1	1	1	0	1	-14,235377	275,477596	312,298464	0
15.01.2021	15:17:26	0	43,570157	5,017156	1,7865	295,5564	1,07	84,504	0	1015,38	8,2	10,1	9,8	1	1	1	1	1	1	1	1	1	0	1	-16,138125	275,536979	310,67736	0
15.01.2021	15:17:27	0	43,337102	2,280527	1,9635	309,9816	1,067	84,509	0	1015,48	8,2	10,1	9,8	1	1	1	1	1	1	1	1	1	0	1	-18,463707	275,456775	307,971426	0
15.01.2021	15:17:28	0	43,453539	5,017162	2,0175	317,106	1,069	84,505	0	1015,52	8,2	10,1	9,8	1	1	1	1	1	1	1	1	1	0	1	-15,503876	275,351411	310,43209	0
15.01.2021	15:17:29	0	43,336981	3,078715	1,96725	314,4528	1,063	84,503	0	1015,46	8,3	10,1	9,8	1	1	1	1	1	1	1	1	1	0	1	-11,41649	275,400829	314,753524	0
15.01.2021	15:17:30	0	43,220121	2,736638	1,84125	313,6824	1,07	84,498	0	1015,56	8,2	10	9,8	1	1	1	1	1	1	1	1	1	0	1	-16,208598	275,346636	309,704757	0
15.01.2021	15:17:31	0	43,336861	3,420799	1,73175	311,3856	1,065	84,516	0	1015,64	8,2	10,1	9,8	1	1	1	1	1	1	1	1	1	0	1	-15,785765	275,477596	310,748077	0
15.01.2021	15:17:32	0	43,453298	2,508588	1,70925	305,3844	1,062	84,5	0	1015,46	8,2	10,1	9,8	1	1	1	1	1	1	1	1	1	0	1	-15,926709	275,375307	310,122416	0
15.01.2021	15:17:33	0	43,336741	4,561072	1,6815	309,33	1,07	84,495	0	1015,48	8,2	10,1	9,8	1	1	1	1	1	1	1	1	1	0	1	-14,305849	275,514488	312,402945	0
15.01.2021	15:17:34	0	43,220185	2,736645	1,63425	291,4956	1,071	84,515	0	1015,64	8,3	10,1	9,8	1	1	1	1	1	1	1	1	1	0	1	-16,631431	275,345044	309,274388	0
15.01.2021	15:17:35	0	43,220125	3,306782	1,746	301,2084	1,066	84,496	0	1015,48	8,2	10,1	9,8	1	1	1	1	1	1	1	1	1	0	1	-12,614517	275,445573	313,767518	0
15.01.2021	15:17:36	0	43,336561	3,876919	1,89075	294,4296	1,067	84,503	0	1015,52	8,5	10,1	9,8	1	1	1	1	1	1	1	1	1	0	1	-12,614517	275,349819	313,313911	0
15.01.2021	15:17:37	0	43,220005	3,990949	2,184	306,1008	1,07	84,508	0	1015,54	8,2	10,1	9,8	1	1	1	1	1	1	1	1	1	0	1	-18,745595	275,413603	307,484936	0
15.01.2021	15:17:38	0	42,753962	2,964707	2,3085	309,6468	1,07	84,502	0	1015,48	8,2	10,1	9,8	1	1	1	1	1	1	1	1	1	0	1	-16,490486	275,353003	309,453018	0
15.01.2021	15:17:39	0	43,33638	3,990978	2,2935	312,3792	1,07	84,494	0	1015,56	8,3	10,1	9,7	1	1	1	1	1	1	1	1	1	0	1	-15,151515	275,495231	311,465949	0
15.01.2021	15:17:40	0	43,219825	2,736656	2,19825	313,2576	1,089	84,504	0	1015,56	8,2	10,1	9,8	1	1	1	1	1	1	1	1	1	0	1	-14,164905	275,351411	311,771061	0
15.01.2021	15:17:41	0	43,10327	3,990959	2,22675	312,7824	1,072	84,513	0	1015,46	8,2	10,1	9,8	1	1	1	1	1	1	1	1	1	0	1	-15,362932	275,388064	310,746614	0
15.01.2021	15:17:42	0	43,335897	4,333044	2,26575	314,8128	1,069	84,487	0	1015,46	8,3	10	9,8	1	1	1	1	1	1	1	1	1	0	1	-17,195208	275,533764	309,605027	0
15.01.2021	15:17:43	0	43,33614	3,990964	2,30475	309,582	1,069	84,486	0	1015,56	8,2	10,1	9,8	1	1	1	1	1	1	1	1	1	0	1	-16,983791	275,360966	308,997418	0
15.01.2021	15:17:44	0	43,10309	4,561105	2,331	312,8904	1,071	84,499	0	1015,48	8,3	10,1	9,8	1	1	1	1	1	1	1	1	1	0	1	-16,701903	275,493628	309,907956	0
15.01.2021	15:17:45	0	42,986536	3,078748	2,2365	320,8032	1,071	84,506	0	1015,62	8,3	10,1	9,8	1	1	1	1	1	1	1	1	1	0	1	-13,248767	275,391255	312,875891	0
15.01.2021	15:17:46	0	43,33596	3,990972	2,1735	317,7684	1,075	84,509	0	1015,54	8,2	10,1	9,8	1	1	1	1	1	1	1	1	1	0	1	-17,758985	275,524124	308,995516	0
15.01.2021	15:17:47	0	43,219405	4,561114	2,1495	314,7912	1,071	84,509	0	1015,42	8,3	10,1	9,8	1	1	1	1	1	1	1	1	1	0	1	-17,618041	275,463179	308,84745	0
15.01.2021	15:17:48	0	42,986357	4,675145	2,17575	313,6428	1,071	84,495	0	1015,44	8,2	10,1	9,8	1	1	1	1	1	1	1	1	1	0	1	-14,940099	275,546625	311,921157	0
15.01.2021	15:17:49	0	43,219285	2,736672	2,166	310,6764	1,075	84,518	0	1015,58	8,2	10,1	9,8	1	1	1	1	1	1	1	1	1	0	1	-16,560958	275,37212	309,473069	0
15.01.2021	15:17:50	0	43,335719	3,876955	2,208	321,3684	1,074	84,514	0	1015,62	8,3	10,1	9,8	1	1	1	1	1	1	1	1	1	0	1	-14,094433	275,410408	312,120965	0
15.01.2021	15:17:51	0	42,636697	2,622648	2,1585	317,4228	1,069	84,514	0	1015,58	8,2	10,1	9,8	1	1	1	1	1	1	1	1	1	0	1	-16,631431	275,53055	310,153556	0
15.01.2021	15:17:52	0	43,335599	3,991012	2,073	311,7816	1,073	84,528	0	1015,48	8,2	10,1	9,7	1	1	1	1	1	1	1	1	1	0	1	-14,376321	275,426384	311,914775	0
15.01.2021	15:17:53	0	43,335538	3,990991	1,95225	313,65	1,076	84,527	0	1015,58	8,3	10,1	9,8	1	1	1	1	1	1	1	1	1	0	1	-13,03735	275,52573	313,724771	0
15.01.2021	15:17:54	0	43,102492	4,21905	1,89975	321,462	1,068	84,513	0	1015,3	8,2	10,1	9,8	1	1	1	1	1	1	1	1	1	0	1	-14,65821	275,413603	311,572321	0
15.01.2021	15:17:55	0	43,102432	4,561139	1,977	313,2684	1,07	84,52	0	1015,62	8,2	10,1	9,8	1	1	1	1	1	1	1	1	1	0	1	-15,081043	275,53055	311,703944	0
15.01.2021	15:17:56	0	42,985879	2,736685	2,0085	316,7352	1,075	84,518	0	1015,5	8,3	10,1	9,8	1	1	1	1	1	1	1	1	1	0	1	-11,980268	275,493628	314,629591	0
15.01.2021	15:17:57	0	42,985819	2,964744	1,96575	313,3152	1,074	84,526	0	1015,5	8,2	10,1	9,8	1	1	1	1	1	1	1	1	1	0	1	-14,65821	275,34027	311,225006	0
15.01.2021	15:17:58	0	43,102252	3,078775	1,932	317,0052	1,074	84,529	0	1015,46	8,2	10,1	9,8	1	1	1	1	1	1	1	1	1	0	1	-15,926709	275,49042	310,66794	0
15.01.2021	15:17:59	0	43,218382	3,876978	1,9035	321,9228	1,073	84,515	0	1015,44	8,2	10	9,8	1	1	1	1	1	1	1	1	1	0	1	-13,601128	275,362559	312,387625	0
15.01.2021	15:18:00	0	43,102073	3,991012	1,70775	333,5184	1,077	84,526	0	1015,64	8,2	10,1	9,8	1	1	1	1	1	1	1	1	1	0	1	-19,943622	275,416797	306,302046	0
15.01.2021	15:18:01	0	43,102073	3,991012	1,70775	333,5184	1,077	84,526	0	1015,64	8,2	10,1	9,8	1	1	1	1	1	1	1	1	1	0	1	-12,966878	275,357781	312,999247	0
15.01.2021	15:18:02	0	43,334997	5,017276	1,698	325,4976	1,073	84,51	0	1015,52	8,2	10,1	9,8	1	1	1	1	1	1	1	1	1	0	1	-14,940099	275,487213	311,639344	0
15.01.2021	15:18:03	0	42,635986	2,052523	1,67175	311,0292	1,079	84,519	0	1015,5	8,2	10,1	9,8	1	1	1	1	1	1	1	1	1	0	1	-12,332629	275,365745	313,671212	0
15.01.2021	15:18:04	0	42,9851	4,561166	1,62225	332,4996	1,079	84,516	0	1015,62	8,3	10	9,8	1	1	1	1	1	1	1	1	1	0	1	-11,980268	275,477596	314,553574	0
15.01.2021	15:18:05	0	42,86885	3,991023	1,5195	333,1944	1,076	84,521	0	1015,56	8,2	10,1	9,8	1	1	1	1	1	1	1	1	1	0	1	-12,825934	275,535371	313,981926	0
15.01.2021	15:18:06	0	42,985282	2,736703	1,47	328,1832	1,07	84,512	0	1015,52	8,2	10,1	9,8	1	1	1	1	1	1	1	1	1	0	1	-14,376321	275,48561	312,195519	0
15.01.2021	15:18:07	0	43,218204	5,131322	1,42425	341,28	1,095	84,547	0	1015,54	8,3	10,1	9,8	1	1	1	1	1	1	1	1	1	0	1	-12,966878	275,391255	313,15778	0
15.01.2021	15:18:08	0	43,218144	4,333145	1,35	345,0672	1,07	84,52	0	1015,34	8,3	10,1	9,7	1	1	1	1	1	1	1	1	1	0	1	-12,191684	275,548234	314,677203	0
15.01.2021	15:18:09	0	43,218084	3,420886	1,29225	332,3916	1,07	84,536	0	1015,52	8,3	10,1	9,8	1	1	1	1	1	1	1	1	1	0	1	-9,936575	275,443973	316,437877	0
15.01.2021	15:18:10	0	43,334515	4,333125	1,29375	334,278	1,072	84,522	0	1015,44	8,3	10,1	9,8	1	1	1	1	1	1	1	1	1	0	1	-13,03735	275,511277	313,656215	0
15.01.2021	15:18:11	0	43,217964	3,42089	1,35225	337,4892	1,07	84,526	0	1015,42	8,3	10,1	9,8	1	1	1	1	1	1	1	1	1	0	1	-14,517266	275,400829	311,652748	0
15.01.2021	15:18:12	0	42,868433	4,447161	1,31625	336,8016	1,07	84,522	0	1015,36	8,3	10,1	9,8	1	1	1	1	1	1	1	1	1	0	1	-15,081043	275,533764	311,719192	0
15.01.2021	15:18:13	0	42,984863	3,991044	1,38	330,282	1,063	84,522	0	1015,4	8,2	10,1	9,8	1	1	1	1	1	1	1	1	1	0	1	-12,614517	275,48561	313,957323	0
15.01.2021	15:18:14	0	42,751824	2,736718	1,473	340,9452	1,071	84,521	0	1015,52	8,2	10,1	9,8	1	1	1	1	1	1	1	1	1	0	1	-15,926709	275,548234	310,942178	0
15.01.2021	15:18:15	0	42,751764	2,62269	1,4955	346,5864	1,071	84,525	0	1015,5	8,3	10,1	9,8	1	1	1	1	1	1	1	1	1	0	1	-14,65821	275,447173	311,731408	0
15.01.2021	15:18:16	0	42,751705	2,850752	1,47075	341,2728	1,076	84,517	0	1015,42	8,2	10,1	9,8	1	1	1	1	1	1	1	1	1	0	1	-15,926709	275,527337	310,843033	0
15.01.2021	15:18:17	0	43,450582	4,789266	1,458	332,0928	1,077	84,536	0	1015,58	8,3	10,1	9,8	1	1	1	1	1	1	1	1	1	0	1	-14,869626	275,410408	311,345771	0
15.01.2021	15:18:18	0	42,635096	3,306876	1,5675	312,5052	1,078	84,538	0	1015,52	8,3	10,1	9,8	1	1	1	1	1	1	1	1	1	0	1	-17,829457	275,535371	308,978402	0
15.01.2021	15:18:19	0	42,984504	4,219121	1,728	325,2096	1,071	84,52	0	1015,56	8,3	10,1	9,8	1	1	1	1	1	1	1	1	1	0	1	-13,178295	275,479199	313,363145	0
15.01.2021	15:18:20	0	42,751467	3,763025	1,89525	314,19	1,067	84,54	0	1015,36	8,2	10,1	9,7	1	1	1	1	1	1	1	1	1	0	1	-18,534179	275,528943	308,243185	0
15.01.2021	15:18:21	0	42,984385	4,219126	1,93725	334,3104	1,077	84,548	0	1015,68	8,3	10,1	9,8	1	1	1	1	1	1	1	1	1	0	1	-16,772375	275,477596	309,761466	0
15.01.2021	15:18:22	0	42,634859	3,648977	1,998	322,65	1,081	84,545	0	1015,7	8,3	10,1	9,8	1	1	1	1	1	1	1	1	1	0	1	-14,023961	275,346636	311,889394	0
15.01.2021	15:18:23	0	43,100754	3,078826	1,87575	334,8216	1,074	84,554	0	1015,66	8,3	10,1	9,8	1	1	1	1	1	1	1	1	1	0	1	-14,446794	275,442374	311,920077	0
15.01.2021	15:18:24	0	43,100694	4,675258	1,8195	325,512	1,074	84,546	0	1015,6	8,3	10,1	9,8	1	1	1	1	1	1	1	1	1	0	1	-14,446794	275,354596	311,50425	0
15.01.2021	15:18:25	0	43,100634	2,736738	1,7985	315,8928	1,08	84,558	0	1015,66	8,2	10,1	9,8	1	1	1	1	1	1	1	1	1	0	1	-15,081043	275,405618	311,111659	0
15.01.2021	15:18:26	0	42,634621	2,622709	1,72725	308,5128	1,08	84,541	0	1015,52	8,3	10,1	9,8	1	1	1	1	1	1	1	1	1	0	1	-16,560958	275,353003	309,382546	0
15.01.2021	15:18:27	0	42,984026	4,219169	1,62225	320,1336	1,074	84,551	0	1015,46	8,3	10,1	9,7	1	1	1	1	1	1	1	1	1	0	1	-12,825934	275,504857	313,837182	0
15.01.2021	15:18:28	0	42,867478	3,53496	1,5675	316,3392	1,076	84,543	0	1015,44	8,3	10,1	9,8	1	1	1	1	1	1	1	1	1	0	1	-14,869626	275,357781	311,096499	0
15.01.2021	15:18:29	0	43,100394	2,850776	1,55325	320,4108	1,077	84,558	0	1015,58	8,2	10,1	9,8	1	1	1	1	1	1	1	1	1	0	1	-16,138125	275,434377	310,190849	0
15.01.2021	15:18:30	0	42,634384	4,561245	1,56225	323,8992	1,078	84,558	0	1015,5	8,2	10,1	9,8	1	1	1	1	1	1	1	1	1	0	1	-15,997181	275,522518	310,7497	0
15.01.2021	15:18:31	0	42,867299	2,964811	1,54725	329,7564	1,076	84,563	0	1015,48	8,3	10,1	9,8	1	1	1	1	1	1	1	1	1	0	1	-15,010571	275,427983	311,2881	0
15.01.2021	15:18:32	0	42,750752	2,508688	1,524	323,3484	1,081	84,549	0	1015,48	8,3	10,1	9,8	1	1	1	1	1	1	1	1	1	0	1	-16,27907	275,376902	309,777605	0
15.01.2021	15:18:33	0	43,100153	3,534972	1,5255	322,1496	1,084	84,565	0	1015,52	8,3	10,1	9,8	1	1	1	1	1	1	1	1	1	0	1	-15,715292	275,4152	310,522807	0
15.01.2021	15:18:34	0	43,21658	5,245446	1,5555	327,204	1,075	84,567	0	1015,62	8,3	10,1	9,8	1	1	1	1	1	1	1	1	1	0	1	-12,825934	275,533764	313,974301	0
15.01.2021	15:18:35	0	43,100033	2,964819	1,683	341,5968	1,079	84,564	0	1015,5	8,3	10,1	9,8	1	1	1	1	1	1	1	1	1	0	1	-10,923185	275,482404	315,633453	0
15.01.2021	15:18:36	0	42,983487	3,078853	1,84425	337,1544	1,088	84,569	0	1015,52	8,3	10,1	9,8	1	1	1	1	1	1	1	1	1	0	1	-15,292459	275,354596	310,658584	0
15.01.2021	15:18:37	0	43,099913	2,622728	1,8525	317,6748	1,082	84,562	0	1015,58	8,3	10,1	9,8	1	1	1	1	1	1	1	1	1	0	1	-10,359408	275,459977	316,090902	0
15.01.2021	15:18:38	0	42,866881	2,622746	1,82325	323,352	1,084	84,569	0	1015,6	8,3	10,1	9,7	1	1	1	1	1	1	1	1	1	0	1	-13,601128	275,351411	312,334838	0
15.01.2021	15:18:39	0	43,099793	3,534986	1,7085	322,2504	1,079	84,558	0	1015,52	8,3	10,1	9,8	1	1	1	1	1	1	1	1	1	0	1	-11,205074	275,432778	315,116323	0
15.01.2021	15:18:40	0	42,750276	3,534989	1,707	318,744	1,082	84,563	0	1015,58	8,3	10,1	9,8	1	1	1	1	1	1	1	1	1	0	1	-15,715292	275,348227	310,205598	0
15.01.2021	15:18:41	0	43,216158	3,763055	1,6935	328,9104	1,077	84,562	0	1015,54	8,3	10,1	9,8	1	1	1	1	1	1	1	1	1	0	1	-16,560958	275,423188	309,714992	0
15.01.2021	15:18:42	0	43,099613	3,877089	1,70325	317,8044	1,083	84,571	0	1015,5	8,3	10,1	9,8	1	1	1	1	1	1	1	1	1	0	1	-16,701903	275,535371	310,105957	0
15.01.2021	15:18:43	0	42,983067	2,736771	1,671	327,06	1,078	84,545	0	1015,56	8,3	10,1	9,8	1	1	1	1	1	1	1	1	1	0	1	-13,742072	275,408812	312,46576	0
15.01.2021	15:18:44	0	42,866522	4,447256	1,725	321,48	1,076	84,526	0	1015,6	8,3	10,1	9,8	1	1	1	1	1	1	1	1	1	0	1	-16,631431	275,343452	309,266853	0
15.01.2021	15:18:45	0	42,866462	2,736775	1,914	331,056	1,073	84,523	0	1015,4	8,2	10,1	9,8	1	1	1	1	1	1	1	1	1	0	1	-17,758985	275,394446	308,380789	0
15.01.2021	15:18:46	0	42,749918	2,394679	2,04675	321,1704	1,078	84,545	0	1015,56	8,3	10,1	9,8	1	1	1	1	1	1	1	1	1	0	1	-13,883016	275,353003	312,060488	0
15.01.2021	15:18:47	0	43,215797	4,675329	2,08575	330,696	1,082	84,528	0	1015,52	8,3	10,1	9,8	1	1	1	1	1	1	1	1	1	0	1	-16,490486	275,367339	309,5209	0
15.01.2021	15:18:48	0	42,749799	4,903427	2,10525	321,462	1,082	84,549	0	1015,46	8,3	10,1	9,7	1	1	1	1	1	1	1	1	1	0	1	-14,023961	275,508067	312,654379	0
15.01.2021	15:18:49	0	43,099192	4,105197	2,094	326,1204	1,082	84,515	0	1015,62	8,3	10,1	9,7	1	1	1	1	1	1	1	1	1	0	1	-8,80902	275,396041	317,338312	0
15.01.2021	15:18:50	0	42,749679	3,306947	1,98	336,816	1,085	84,533	0	1015,62	8,3	10,1	9,8	1	1	1	1	1	1	1	1	1	0	1	-13,6716	275,538586	313,151512	0
15.01.2021	15:18:51	0	43,099072	4,447276	1,95675	324,4356	1,072	84,523	0	1015,52	8,3	10,1	9,8	1	1	1	1	1	1	1	1	1	0	1	-17,829457	275,469585	308,666404	0
15.01.2021	15:18:52	0	42,633076	2,622755	2,07375	323,82	1,081	84,528	0	1015,66	8,3	10,1	9,8	1	1	1	1	1	1	1	1	1	0	1	-14,869626	275,349819	311,058801	0
15.01.2021	15:18:53	0	42,982468	2,850822	2,10975	330,786	1,084	84,524	0	1015,64	8,3	10,1	9,8	1	1	1	1	1	1	1	1	1	0	1	-13,812544	275,381685	312,266785	0
15.01.2021	15:18:54	0	42,982408	4,675351	2,0355	314,0244	1,083	84,529	0	1015,56	8,3	10,1	9,8	1	1	1	1	1	1	1	1	1	0	1	-16,772375	275,343452	309,125909	0
15.01.2021	15:18:55	0	42,982348	4,105189	1,911	318,1968	1,078	84,52	0	1015,52	8,3	10,1	9,8	1	1	1	1	1	1	1	1	1	0	1	-16,490486	275,412005	309,732478	0
15.01.2021	15:18:56	0	42,749321	3,192946	1,77	318,0996	1,073	84,512	0	1015,44	8,3	10,1	9,7	1	1	1	1	1	1	1	1	1	0	1	-16,420014	275,538586	310,403098	0
15.01.2021	15:18:57	0	43,098711	3,763095	1,68525	329,31	1,08	84,517	0	1015,5	8,3	10,1	9,8	1	1	1	1	1	1	1	1	1	0	1	-18,604651	275,416797	307,641017	0
15.01.2021	15:18:58	0	42,865685	3,306965	1,68	325,602	1,085	84,518	0	1015,58	8,3	10,1	9,8	1	1	1	1	1	1	1	1	1	0	1	-13,319239	275,34027	312,563977	0
15.01.2021	15:18:59	0	42,63266	4,105225	1,7685	334,2276	1,083	84,511	0	1015,68	8,3	10,1	9,7	1	1	1	1	1	1	1	1	1	0	1	-14,305849	275,451973	312,106523	0
15.01.2021	15:19:00	0	42,981988	3,877162	1,82925	331,0992	1,077	84,484	0	1015,44	8,3	10,1	9,7	1	1	1	1	1	1	1	1	1	0	1	-14,869626	275,533764	311,930608	0
15.01.2021	15:19:01	0	42,981988	3,877162	1,82925	331,0992	1,077	84,484	0	1015,44	8,3	10,1	9,7	1	1	1	1	1	1	1	1	1	0	1	-15,715292	275,405618	310,47741	0
15.01.2021	15:19:02	0	42,632481	3,078906	1,8075	328,9032	1,083	84,502	0	1015,54	8,3	10,1	9,8	1	1	1	1	1	1	1	1	1	0	1	-14,517266	275,52573	312,244856	0
15.01.2021	15:19:03	0	43,098349	4,789413	1,701	318,456	1,081	84,491	0	1015,46	8,3	10,1	9,8	1	1	1	1	1	1	1	1	1	0	1	-14,164905	275,458376	312,277816	0
15.01.2021	15:19:04	0	42,865326	2,850843	1,70475	329,2884	1,082	84,503	0	1015,52	8,2	10,1	9,8	1	1	1	1	1	1	1	1	1	0	1	-11,627907	275,360966	314,353302	0
15.01.2021	15:19:05	0	42,515821	2,850845	1,76025	336,1428	1,079	84,497	0	1015,56	8,3	10,1	9,8	1	1	1	1	1	1	1	1	1	0	1	-15,785765	275,479199	310,755675	0
15.01.2021	15:19:06	0	43,098169	4,447321	1,722	326,0232	1,079	84,48	0	1015,46	8,3	10,1	9,8	1	1	1	1	1	1	1	1	1	0	1	-15,010571	275,511277	311,682994	0
15.01.2021	15:19:07	0	42,748664	4,105222	1,7235	309,24	1,083	84,497	0	1015,64	8,3	10,1	9,8	1	1	1	1	1	1	1	1	1	0	1	-16,772375	275,407215	309,427892	0
15.01.2021	15:19:08	0	42,981567	2,850851	1,87575	319,9608	1,08	84,491	0	1015,56	8,3	10,1	9,8	1	1	1	1	1	1	1	1	1	0	1	-15,221987	275,383279	310,864895	0
15.01.2021	15:19:09	0	42,748545	3,306989	2,1165	318,8016	1,084	84,488	0	1015,5	8,3	10,1	9,8	1	1	1	1	1	1	1	1	1	0	1	-11,06413	275,520911	315,675133	0
15.01.2021	15:19:10	0	42,748485	3,649094	2,2395	315,27	1,08	84,489	0	1015,62	8,3	10,1	9,8	1	1	1	1	1	1	1	1	1	0	1	-13,953488	275,49042	312,641161	0
15.01.2021	15:19:11	0	42,864906	4,56137	2,283	316,6632	1,084	84,505	0	1015,6	8,3	10,1	9,8	1	1	1	1	1	1	1	1	1	0	1	-17,054264	275,512883	309,646916	0
15.01.2021	15:19:12	0	42,864846	3,535064	2,376	310,2696	1,081	84,493	0	1015,62	8,3	10,1	9,8	1	1	1	1	1	1	1	1	1	0	1	-21,987315	275,511277	304,70625	0
15.01.2021	15:19:13	0	42,981267	3,763136	2,4675	310,6908	1,084	84,493	0	1015,56	8,3	10,1	9,8	1	1	1	1	1	1	1	1	1	0	1	-16,983791	275,448773	309,41341	0
15.01.2021	15:19:14	0	42,748246	3,535069	2,5515	314,8236	1,08	84,488	0	1015,62	8,3	10,1	9,8	1	1	1	1	1	1	1	1	1	0	1	-11,134602	275,337088	314,73355	0
15.01.2021	15:19:15	0	42,398746	2,622795	2,47125	304,6428	1,083	84,494	0	1015,44	8,3	10,1	9,8	1	1	1	1	1	1	1	1	1	0	1	-17,26568	275,508067	309,412659	0
15.01.2021	15:19:16	0	42,631647	3,649108	2,16675	315,504	1,085	84,494	0	1015,54	8,3	10,1	9,8	1	1	1	1	1	1	1	1	1	0	1	-9,513742	275,345044	316,392077	0
15.01.2021	15:19:17	0	42,515107	2,850868	2,058	322,2612	1,084	84,506	0	1015,56	8,3	10,1	9,8	1	1	1	1	1	1	1	1	1	0	1	-16,490486	275,461578	309,967414	0
15.01.2021	15:19:18	0	42,864487	3,763148	2,0805	340,9272	1,084	84,492	0	1015,56	8,3	10,1	9,8	1	1	1	1	1	1	1	1	1	0	1	-17,477097	275,553059	309,414688	0
15.01.2021	15:19:19	0	43,213865	2,736837	1,947	340,1964	1,076	84,511	0	1015,46	8,3	10,1	9,8	1	1	1	1	1	1	1	1	1	0	1	-12,755462	275,437575	313,588669	0
15.01.2021	15:19:20	0	42,980846	2,964909	1,80075	334,1844	1,081	84,508	0	1015,48	8,3	10,1	9,8	1	1	1	1	1	1	1	1	1	0	1	-13,248767	275,511277	313,444799	0
15.01.2021	15:19:21	0	42,980786	2,850876	1,7745	331,1424	1,077	84,504	0	1015,62	8,3	10,1	9,8	1	1	1	1	1	1	1	1	1	0	1	-17,618041	275,407215	308,582226	0
15.01.2021	15:19:22	0	42,631289	4,561431	1,857	329,634	1,082	84,495	0	1015,6	8,3	10,1	9,7	1	1	1	1	1	1	1	1	1	0	1	-11,627907	275,351411	314,308059	0
15.01.2021	15:19:23	0	43,097144	2,622825	1,97325	331,9452	1,078	84,489	0	1015,58	8,3	10,1	9,7	1	1	1	1	1	1	1	1	1	0	1	-16,631431	275,467984	309,856837	0
15.01.2021	15:19:24	0	42,398212	3,991234	2,07975	319,482	1,083	84,52	0	1015,64	8,3	10,1	9,8	1	1	1	1	1	1	1	1	1	0	1	-16,27907	275,524124	310,475431	0
15.01.2021	15:19:25	0	43,213502	3,763166	2,3835	332,7732	1,085	84,517	0	1015,58	8,3	10,1	9,8	1	1	1	1	1	1	1	1	1	0	1	-14,65821	275,39285	311,474006	0
15.01.2021	15:19:26	0	43,096964	4,21931	2,55975	328,8564	1,086	84,519	0	1015,56	8,3	10,1	9,8	1	1	1	1	1	1	1	1	1	0	1	-11,839323	275,375307	314,209801	0
15.01.2021	15:19:27	0	43,096903	4,78949	2,73975	324,7416	1,082	84,506	0	1015,56	8,3	10,1	9,8	1	1	1	1	1	1	1	1	1	0	1	-12,262156	275,493628	314,347702	0
15.01.2021	15:19:28	0	43,096843	4,561422	2,7405	331,146	1,086	84,516	0	1015,46	8,3	10,1	9,8	1	1	1	1	1	1	1	1	1	0	1	-15,292459	275,472789	311,218592	0
15.01.2021	15:19:29	0	42,747349	3,763198	2,67675	324,3744	1,09	84,515	0	1015,7	8,3	10,1	9,7	1	1	1	1	1	1	1	1	1	0	1	-15,926709	275,343452	309,971575	0
15.01.2021	15:19:30	0	43,096722	4,789529	2,75025	322,992	1,09	84,516	0	1015,46	8,3	10,1	9,7	1	1	1	1	1	1	1	1	1	0	1	-15,926709	275,461578	310,531191	0
15.01.2021	15:19:31	0	42,514275	2,736859	2,77875	315,8784	1,088	84,52	0	1015,56	8,3	10,1	9,8	1	1	1	1	1	1	1	1	1	0	1	-16,913319	275,348227	309,007571	0
15.01.2021	15:19:32	0	42,980124	2,736861	2,77875	316,2276	1,087	84,518	0	1015,58	8,3	10,1	9,8	1	1	1	1	1	1	1	1	1	0	1	-14,023961	275,381685	312,055369	0
15.01.2021	15:19:33	0	42,74711	4,447402	2,66775	318,8628	1,088	84,505	0	1015,46	8,3	10,1	9,8	1	1	1	1	1	1	1	1	1	0	1	-11,41649	275,348227	314,5044	0
15.01.2021	15:19:34	0	42,863527	4,105297	2,58525	315,9288	1,085	84,516	0	1015,58	8,3	10,1	9,8	1	1	1	1	1	1	1	1	1	0	1	-14,517266	275,533764	312,282969	0
15.01.2021	15:19:35	0	42,979944	4,447408	2,5905	317,0196	1,09	84,507	0	1015,54	8,3	10,1	9,8	1	1	1	1	1	1	1	1	1	0	1	-14,65821	275,445573	311,723825	0
15.01.2021	15:19:36	0	42,863407	4,333374	2,59725	316,2672	1,089	84,504	0	1015,52	8,3	10,1	9,8	1	1	1	1	1	1	1	1	1	0	1	-13,812544	275,522518	312,934337	0
15.01.2021	15:19:37	0	42,979823	2,964942	2,463	312,1776	1,088	84,499	0	1015,48	8,3	10,1	9,8	1	1	1	1	1	1	1	1	1	0	1	-14,305849	275,38009	311,765928	0
15.01.2021	15:19:38	0	42,74681	3,535126	2,406	311,7492	1,086	84,514	0	1015,56	8,3	10,1	9,8	1	1	1	1	1	1	1	1	1	0	1	-12,896406	275,357781	313,069719	0
15.01.2021	15:19:39	0	42,863227	2,964946	2,35725	314,1108	1,09	84,5	0	1015,52	8,3	10,1	9,8	1	1	1	1	1	1	1	1	1	0	1	-16,560958	275,450373	309,843828	0
15.01.2021	15:19:40	0	42,397263	2,736875	2,25525	318,5388	1,092	84,498	0	1015,6	8,3	10,1	9,8	1	1	1	1	1	1	1	1	1	0	1	-11,627907	275,343452	314,270377	0
15.01.2021	15:19:41	0	43,212534	4,447452	2,2575	316,5768	1,086	84,477	0	1015,48	8,3	10,1	9,7	1	1	1	1	1	1	1	1	1	0	1	-14,094433	275,434377	312,234541	0
15.01.2021	15:19:42	0	42,630095	4,105343	2,286	319,212	1,089	84,501	0	1015,62	8,3	10,1	9,7	1	1	1	1	1	1	1	1	1	0	1	-14,587738	275,337088	311,280414	0
15.01.2021	15:19:43	0	42,51356	3,535138	2,14875	311,904	1,086	84,488	0	1015,68	8,3	10,1	9,8	1	1	1	1	1	1	1	1	1	0	1	-19,732206	275,522518	307,014675	0
15.01.2021	15:19:44	0	42,746451	2,964956	2,08875	315,198	1,085	84,472	0	1015,58	8,3	10,1	9,8	1	1	1	1	1	1	1	1	1	0	1	-14,376321	275,4152	311,861778	0
15.01.2021	15:19:45	0	42,629916	2,736885	2,0475	312,8508	1,09	84,461	0	1015,42	8,3	10,1	9,8	1	1	1	1	1	1	1	1	1	0	1	-17,195208	275,335497	308,665412	0
15.01.2021	15:19:46	0	42,513381	2,96496	2,17125	316,3176	1,091	84,454	0	1015,58	8,3	10,1	9,8	1	1	1	1	1	1	1	1	1	0	1	-13,883016	275,391255	312,241642	0
15.01.2021	15:19:47	0	42,862746	3,078999	2,5365	320,4324	1,088	84,455	0	1015,58	8,3	10,1	9,8	1	1	1	1	1	1	1	1	1	0	1	-15,081043	275,370526	310,945437	0
15.01.2021	15:19:48	0	42,979161	2,964964	2,80125	313,6248	1,086	84,461	0	1015,56	8,3	10,1	9,8	1	1	1	1	1	1	1	1	1	0	1	-16,983791	275,475994	309,542452	0
15.01.2021	15:19:49	0	42,862626	4,105338	2,937	320,004	1,089	84,461	0	1015,56	8,3	10,1	9,8	1	1	1	1	1	1	1	1	1	0	1	-7,047216	275,410408	319,168181	0
15.01.2021	15:19:50	0	42,513143	3,193043	2,9175	320,4216	1,086	84,456	0	1015,52	8,3	10,1	9,8	1	1	1	1	1	1	1	1	1	0	1	-15,010571	275,356188	310,948013	0
15.01.2021	15:19:51	0	42,862506	3,079008	2,95425	315,8712	1,088	84,452	0	1015,46	8,3	10,1	9,8	1	1	1	1	1	1	1	1	1	0	1	-15,292459	275,479199	311,24898	0
15.01.2021	15:19:52	0	42,862446	3,535159	2,9715	313,614	1,089	84,453	0	1015,62	8,3	10,1	9,8	1	1	1	1	1	1	1	1	1	0	1	-12,262156	275,522518	314,484725	0
15.01.2021	15:19:53	0	42,862385	2,394787	2,90925	312,4476	1,085	84,456	0	1015,56	8,3	10,1	9,8	1	1	1	1	1	1	1	1	1	0	1	-11,909796	275,384874	314,18464	0
15.01.2021	15:19:54	0	42,862325	4,333427	2,83875	311,04	1,091	84,453	0	1015,7	8,3	10,1	9,8	1	1	1	1	1	1	1	1	1	0	1	-12,966878	275,520911	313,772384	0
15.01.2021	15:19:55	0	42,978739	3,991341	2,715	319,4892	1,089	84,443	0	1015,48	8,3	10,1	9,7	1	1	1	1	1	1	1	1	1	0	1	-18,88654	275,399233	307,275913	0
15.01.2021	15:19:56	0	43,095152	4,219395	2,56725	319,2696	1,089	84,457	0	1015,42	8,3	10,1	9,8	1	1	1	1	1	1	1	1	1	0	1	-17,970402	275,359373	308,003265	0
15.01.2021	15:19:57	0	42,745672	3,307096	2,4405	322,272	1,086	84,454	0	1015,66	8,3	10,1	9,8	1	1	1	1	1	1	1	1	1	0	1	-11,980268	275,356188	313,978316	0
15.01.2021	15:19:58	0	42,745612	3,763249	2,36325	322,5672	1,09	84,454	0	1015,54	8,3	10,1	9,8	1	1	1	1	1	1	1	1	1	0	1	-15,856237	275,49042	310,738412	0
15.01.2021	15:19:59	0	42,745552	3,763252	2,361	326,7576	1,086	84,465	0	1015,62	8,3	10,1	9,8	1	1	1	1	1	1	1	1	1	0	1	-14,587738	275,53055	312,197249	0
15.01.2021	15:20:00	0	42,861904	4,675562	2,184	328,86	1,087	84,477	0	1015,52	8,3	10,1	9,8	1	1	1	1	1	1	1	1	1	0	1	-16,349542	275,424786	309,933981	0
15.01.2021	15:20:01	0	42,861904	4,675562	2,184	328,86	1,087	84,477	0	1015,52	8,3	10,1	9,8	1	1	1	1	1	1	1	1	1	0	1	-17,618041	275,528943	309,159323	0
15.01.2021	15:20:02	0	42,628899	3,07903	2,223	317,7288	1,088	84,472	0	1015,64	8,3	10,1	9,8	1	1	1	1	1	1	1	1	1	0	1	-19,661734	275,475994	306,86451	0
15.01.2021	15:20:03	0	42,512367	3,8773	2,32425	317,7648	1,09	84,465	0	1015,54	8,3	10,1	9,8	1	1	1	1	1	1	1	1	1	0	1	-15,151515	275,543409	311,694481	0
15.01.2021	15:20:04	0	42,62878	5,017686	2,3235	312,4872	1,085	84,463	0	1015,52	8,3	10,1	9,8	1	1	1	1	1	1	1	1	1	0	1	-15,856237	275,408812	310,351595	0
15.01.2021	15:20:05	0	43,094608	4,561536	2,3445	316,6668	1,088	84,48	0	1015,58	8,3	10,1	9,8	1	1	1	1	1	1	1	1	1	0	1	-18,957012	275,5177	307,767015	0
15.01.2021	15:20:06	0	42,62866	2,280769	2,2395	321,3864	1,087	84,473	0	1015,5	8,3	10,1	9,8	1	1	1	1	1	1	1	1	1	0	1	-16,490486	275,394446	309,649288	0
15.01.2021	15:20:07	0	42,861543	4,903657	2,082	328,6152	1,094	84,493	0	1015,66	8,3	10,1	9,8	1	1	1	1	1	1	1	1	1	0	1	-14,799154	275,512883	311,902025	0
15.01.2021	15:20:08	0	42,62854	2,622888	1,971	334,9476	1,089	84,489	0	1015,48	8,3	10,1	9,8	1	1	1	1	1	1	1	1	1	0	1	-16,913319	275,469585	309,582542	0
15.01.2021	15:20:09	0	42,395538	2,394813	1,959	325,4544	1,091	84,486	0	1015,58	8,3	10,1	9,8	1	1	1	1	1	1	1	1	1	0	1	-16,138125	275,338679	309,737558	0
15.01.2021	15:20:10	0	42,628421	2,508853	1,9815	333,5256	1,089	84,492	0	1015,66	8,3	10,1	9,8	1	1	1	1	1	1	1	1	1	0	1	-16,983791	275,49042	309,610858	0
15.01.2021	15:20:11	0	42,744832	5,01771	2,19225	332,406	1,085	84,494	0	1015,62	8,3	10,1	9,8	1	1	1	1	1	1	1	1	1	0	1	-14,517266	275,487213	312,062177	0
15.01.2021	15:20:12	0	42,744772	3,535207	2,33775	330,8004	1,094	84,5	0	1015,56	8,3	10,1	9,8	1	1	1	1	1	1	1	1	1	0	1	-15,292459	275,519305	311,439185	0
15.01.2021	15:20:13	0	42,861182	2,508858	2,32575	328,9716	1,094	84,493	0	1015,62	8,3	10,1	9,8	1	1	1	1	1	1	1	1	1	0	1	-16,349542	275,439175	310,002168	0
15.01.2021	15:20:14	0	42,511711	3,649251	2,30925	325,5264	1,091	84,509	0	1015,62	8,3	10,1	9,8	1	1	1	1	1	1	1	1	1	0	1	-15,221987	275,341861	310,668762	0
15.01.2021	15:20:15	0	43,094002	2,850979	2,24625	327,4524	1,097	84,502	0	1015,52	8,3	10,1	9,8	1	1	1	1	1	1	1	1	1	0	1	-16,349542	275,427983	309,949128	0
15.01.2021	15:20:16	0	42,861001	4,44753	2,32875	328,878	1,091	84,501	0	1015,6	8,3	10,1	9,8	1	1	1	1	1	1	1	1	1	0	1	-17,970402	275,514488	308,738393	0
15.01.2021	15:20:17	0	42,977411	4,333494	2,226	320,8932	1,096	84,497	0	1015,54	8,3	10,1	9,8	1	1	1	1	1	1	1	1	1	0	1	-14,094433	275,479199	312,447007	0
15.01.2021	15:20:18	0	42,860881	2,736962	1,935	304,3548	1,087	84,502	0	1015,58	8,3	10,1	9,7	1	1	1	1	1	1	1	1	1	0	1	-14,305849	275,527337	312,463893	0
15.01.2021	15:20:19	0	42,744351	4,105421	1,734	309,4776	1,091	84,5	0	1015,64	8,3	10,1	9,8	1	1	1	1	1	1	1	1	1	0	1	-14,023961	275,471187	312,479495	0
15.01.2021	15:20:20	0	42,744291	3,877345	1,665	297,9324	1,097	84,5	0	1015,66	8,3	10,1	9,8	1	1	1	1	1	1	1	1	1	0	1	-17,336152	275,337088	308,531999	0
15.01.2021	15:20:21	0	42,8607	4,447572	1,69725	316,7244	1,095	84,499	0	1015,48	8,3	10,1	9,7	1	1	1	1	1	1	1	1	1	0	1	-15,292459	275,477596	311,241382	0
15.01.2021	15:20:22	0	42,86064	4,447575	1,6185	325,566	1,09	84,496	0	1015,6	8,3	10,1	9,7	1	1	1	1	1	1	1	1	1	0	1	-21,775899	275,522518	304,970983	0
15.01.2021	15:20:23	0	43,093518	4,675631	1,6065	320,8644	1,086	84,5	0	1015,48	8,3	10,1	9,8	1	1	1	1	1	1	1	1	1	0	1	-16,27907	275,466382	310,201605	0
15.01.2021	15:20:24	0	43,093457	4,219475	1,6245	317,3652	1,092	84,509	0	1015,48	8,3	10,1	9,8	1	1	1	1	1	1	1	1	1	0	1	-15,715292	275,376902	310,341382	0
15.01.2021	15:20:25	0	42,627522	2,965056	1,65075	320,7384	1,096	84,503	0	1015,54	8,3	10,1	9,7	1	1	1	1	1	1	1	1	1	0	1	-18,393235	275,504857	308,269881	0
15.01.2021	15:20:26	0	42,74393	3,30716	1,7745	331,5492	1,094	84,505	0	1015,56	8,3	10,1	9,8	1	1	1	1	1	1	1	1	1	0	1	-13,107822	275,388064	313,001723	0
15.01.2021	15:20:27	0	42,627402	2,622922	1,8015	330,786	1,094	84,519	0	1015,56	8,3	10,1	9,8	1	1	1	1	1	1	1	1	1	0	1	-14,869626	275,5177	311,8544	0
15.01.2021	15:20:28	0	42,394406	3,421205	1,85625	332,7516	1,097	84,521	0	1015,68	8,3	10,1	9,8	1	1	1	1	1	1	1	1	1	0	1	-17,124736	275,351411	308,81123	0
15.01.2021	15:20:29	0	42,510814	4,447569	1,986	323,7048	1,094	84,513	0	1015,44	8,3	10,1	9,8	1	1	1	1	1	1	1	1	1	0	1	-13,389711	275,407215	312,810556	0
15.01.2021	15:20:30	0	42,976626	3,991411	2,00625	329,3712	1,092	84,516	0	1015,66	8,3	10,1	9,8	1	1	1	1	1	1	1	1	1	0	1	-15,010571	275,527337	311,759172	0
15.01.2021	15:20:31	0	42,860097	4,675656	1,94925	318,1608	1,088	84,517	0	1015,58	8,3	10,1	9,8	1	1	1	1	1	1	1	1	1	0	1	-10,500352	275,458376	315,942369	0
15.01.2021	15:20:32	0	42,510635	3,763335	1,81125	318,4488	1,099	84,532	0	1015,58	8,3	10,1	9,8	1	1	1	1	1	1	1	1	1	0	1	-13,319239	275,533764	313,480996	0
15.01.2021	15:20:33	0	42,510575	2,622933	1,90125	333,2124	1,088	84,52	0	1015,5	8,3	10,1	9,8	1	1	1	1	1	1	1	1	1	0	1	-14,517266	275,459977	311,933045	0
15.01.2021	15:20:34	0	42,626982	2,965056	2,322	335,3616	1,098	84,521	0	1015,58	8,3	10,1	9,8	1	1	1	1	1	1	1	1	1	0	1	-16,490486	275,524124	310,264015	0
15.01.2021	15:20:35	0	42,510455	4,561628	2,5455	326,3796	1,093	84,546	0	1015,58	8,3	10,1	9,8	1	1	1	1	1	1	1	1	1	0	1	-12,332629	275,477596	314,201213	0
15.01.2021	15:20:36	0	42,743329	4,333549	2,72325	342,7632	1,098	84,545	0	1015,56	8,3	10,1	9,8	1	1	1	1	1	1	1	1	1	0	1	-15,997181	275,333906	309,855909	0
15.01.2021	15:20:37	0	42,859736	4,105471	2,8725	329,7204	1,097	84,545	0	1015,46	8,3	10,1	9,8	1	1	1	1	1	1	1	1	1	0	1	-11,41649	275,442374	314,95038	0
15.01.2021	15:20:38	0	42,743209	3,763351	3,38925	331,1208	1,094	84,523	0	1015,38	8,3	10,1	9,8	1	1	1	1	1	1	1	1	1	0	1	-12,755462	275,338679	313,120222	0
15.01.2021	15:20:39	0	42,510216	2,508902	3,6285	327,1176	1,098	84,525	0	1015,56	8,3	10,1	9,8	1	1	1	1	1	1	1	1	1	0	1	-16,138125	275,477596	310,395716	0
15.01.2021	15:20:40	0	42,626622	3,535274	3,6285	324,396	1,096	84,545	0	1015,56	8,3	10,1	9,8	1	1	1	1	1	1	1	1	1	0	1	-15,292459	275,345044	310,613359	0
15.01.2021	15:20:41	0	42,743028	3,307213	3,4845	331,1676	1,102	84,542	0	1015,48	8,3	10,1	9,7	1	1	1	1	1	1	1	1	1	0	1	-12,121212	275,472789	314,389839	0
15.01.2021	15:20:42	0	42,277105	2,394866	3,2625	318,1572	1,099	84,604	0	1015,44	8,3	10,1	9,8	1	1	1	1	1	1	1	1	1	0	1	-17,054264	275,524124	309,700237	0
15.01.2021	15:20:43	0	42,975839	2,965074	3,033	319,4496	1,101	84,551	0	1015,52	8,3	10,1	9,8	1	1	1	1	1	1	1	1	1	0	1	-12,05074	275,408812	314,157092	0
15.01.2021	15:20:44	0	42,626382	4,675697	2,72925	315,234	1,098	84,548	0	1015,56	8,3	10,1	9,8	1	1	1	1	1	1	1	1	1	0	1	-14,164905	275,52573	312,597216	0
15.01.2021	15:20:45	0	42,859253	2,622954	2,664	304,6896	1,103	84,549	0	1015,66	8,3	10,1	9,8	1	1	1	1	1	1	1	1	1	0	1	-15,997181	275,442374	310,36969	0
15.01.2021	15:20:46	0	42,509797	2,736997	2,60775	338,76	1,103	84,546	0	1015,66	8,3	10,1	9,8	1	1	1	1	1	1	1	1	1	0	1	-18,957012	275,519305	307,774632	0
15.01.2021	15:20:47	0	42,859132	3,421249	2,72175	343,5444	1,096	84,54	0	1015,6	8,3	10,1	9,8	1	1	1	1	1	1	1	1	1	0	1	-12,755462	275,455174	313,672083	0
15.01.2021	15:20:48	0	42,975537	3,079126	2,8575	323,3628	1,095	84,535	0	1015,46	8,3	10,1	9,8	1	1	1	1	1	1	1	1	1	0	1	-11,698379	275,509672	314,987573	0
15.01.2021	15:20:49	0	42,742547	3,877444	2,9295	328,4568	1,1	84,563	0	1015,54	8,3	10,1	9,7	1	1	1	1	1	1	1	1	1	0	1	-16,27907	275,447173	310,110548	0
15.01.2021	15:20:50	0	42,742486	4,9038	2,90025	320,3856	1,1	84,558	0	1015,56	8,3	10,1	9,8	1	1	1	1	1	1	1	1	1	0	1	-15,362932	275,5177	311,361095	0
15.01.2021	15:20:51	0	42,393033	2,394881	2,88225	325,1232	1,093	84,545	0	1015,58	8,3	10,1	9,8	1	1	1	1	1	1	1	1	1	0	1	-18,181818	275,5177	308,542209	0
15.01.2021	15:20:52	0	42,625902	3,193176	3,04425	330,3792	1,095	84,56	0	1015,34	8,3	10,1	9,8	1	1	1	1	1	1	1	1	1	0	1	-12,191684	275,388064	313,917861	0
15.01.2021	15:20:53	0	42,625842	3,649347	3,156	332,856	1,093	84,55	0	1015,48	8,3	10,1	9,8	1	1	1	1	1	1	1	1	1	0	1	-14,446794	275,373713	311,594782	0
15.01.2021	15:20:54	0	42,742245	2,965096	3,0915	329,8068	1,1	84,541	0	1015,56	8,3	10,1	9,8	1	1	1	1	1	1	1	1	1	0	1	-14,587738	275,362559	311,401015	0
15.01.2021	15:20:55	0	42,742185	4,789774	2,97825	320,0472	1,096	84,538	0	1015,5	8,3	10,1	9,8	1	1	1	1	1	1	1	1	1	0	1	-17,970402	275,388064	308,139144	0
15.01.2021	15:20:56	0	42,625661	2,737016	2,8545	322,578	1,101	84,565	0	1015,52	8,3	10,1	9,8	1	1	1	1	1	1	1	1	1	0	1	-13,883016	275,349819	312,045412	0
15.01.2021	15:20:57	0	42,742065	3,421272	2,7315	327,4848	1,1	84,522	0	1015,54	8,3	10,1	9,8	1	1	1	1	1	1	1	1	1	0	1	-15,503876	275,378496	310,56035	0
15.01.2021	15:20:58	0	42,625541	4,447656	2,50575	332,352	1,102	84,53	0	1015,56	8,3	10,1	9,8	1	1	1	1	1	1	1	1	1	0	1	-20,789288	275,469585	305,706573	0
15.01.2021	15:20:59	0	42,741944	4,105532	2,42325	324,3672	1,099	84,514	0	1015,54	8,3	10,1	9,8	1	1	1	1	1	1	1	1	1	0	1	-16,560958	275,509672	310,124993	0
15.01.2021	15:21:00	0	42,858286	4,21958	2,87475	318,4236	1,1	84,518	0	1015,56	8,3	10,1	9,8	1	1	1	1	1	1	1	1	1	0	1	-13,883016	275,477596	312,650825	0
15.01.2021	15:21:01	0	42,858286	4,21958	2,87475	318,4236	1,1	84,518	0	1015,56	8,3	10,1	9,8	1	1	1	1	1	1	1	1	1	0	1	-13,883016	275,477596	312,650825	0
15.01.2021	15:21:02	0	42,741763	3,421283	2,86575	340,902	1,093	84,498	0	1015,64	8,3	10,1	9,8	1	1	1	1	1	1	1	1	1	0	1	-18,25229	275,514488	308,456504	0
15.01.2021	15:21:03	0	42,508778	3,307263	2,9085	335,7504	1,103	84,505	0	1015,4	8,3	10,1	9,7	1	1	1	1	1	1	1	1	1	0	1	-17,054264	275,402425	309,123313	0
15.01.2021	15:21:04	0	42,275794	2,73703	2,895	333,1656	1,1	84,499	0	1015,56	8,3	10,1	9,8	1	1	1	1	1	1	1	1	1	0	1	-11,41649	275,338679	314,459193	0
15.01.2021	15:21:05	0	42,741582	2,737032	2,9205	318,9564	1,093	84,478	0	1015,38	8,3	10,1	9,8	1	1	1	1	1	1	1	1	1	0	1	-11,06413	275,432778	315,257267	0
15.01.2021	15:21:06	0	42,974446	4,44768	2,907	326,7252	1,095	84,48	0	1015,5	8,3	10,1	9,8	1	1	1	1	1	1	1	1	1	0	1	-16,420014	275,343452	309,47827	0
15.01.2021	15:21:07	0	42,741462	4,333666	2,8125	323,7012	1,107	84,476	0	1015,44	8,3	10,1	9,7	1	1	1	1	1	1	1	1	1	0	1	-15,856237	275,455174	310,571308	0
15.01.2021	15:21:08	0	42,392017	3,76345	2,865	309,5892	1,101	84,468	0	1015,5	8,3	10,1	9,7	1	1	1	1	1	1	1	1	1	0	1	-17,618041	275,519305	309,113603	0
15.01.2021	15:21:09	0	42,62488	2,965126	2,997	323,2584	1,098	84,459	0	1015,52	8,3	10,1	9,8	1	1	1	1	1	1	1	1	1	0	1	-13,812544	275,459977	312,637766	0
15.01.2021	15:21:10	0	42,508358	3,307258	2,793	314,0064	1,094	84,462	0	1015,54	8,3	10,1	9,8	1	1	1	1	1	1	1	1	1	0	1	-10,993658	275,345044	314,912161	0
15.01.2021	15:21:11	0	42,74122	4,675782	2,56875	303,2064	1,097	84,456	0	1015,54	8,3	10,1	9,8	1	1	1	1	1	1	1	1	1	0	1	-14,376321	275,413603	311,85421	0
15.01.2021	15:21:12	0	42,391777	3,421306	2,36325	301,2336	1,097	84,455	0	1015,6	8,3	10,1	9,8	1	1	1	1	1	1	1	1	1	0	1	-13,812544	275,527337	312,957198	0
15.01.2021	15:21:13	0	42,7411	3,421309	2,23875	303,8184	1,094	84,462	0	1015,58	8,3	10,1	9,8	1	1	1	1	1	1	1	1	1	0	1	-20,014094	275,423188	306,261856	0
15.01.2021	15:21:14	0	42,391658	4,333661	1,977	307,5372	1,099	84,455	0	1015,62	8,3	10,1	9,8	1	1	1	1	1	1	1	1	1	0	1	-12,966878	275,337088	312,901273	0
15.01.2021	15:21:15	0	42,624519	4,21962	2,00775	315,936	1,101	84,456	0	1015,56	8,2	10,1	9,8	1	1	1	1	1	1	1	1	1	0	1	-15,574348	275,520911	311,164914	0
15.01.2021	15:21:16	0	42,507998	2,851096	2,178	303,9264	1,096	84,439	0	1015,44	8,2	10,1	9,8	1	1	1	1	1	1	1	1	1	0	1	-14,446794	275,368932	311,572139	0
15.01.2021	15:21:17	0	42,740858	4,789845	2,253	328,1652	1,099	84,433	0	1015,52	8,3	10,1	9,8	1	1	1	1	1	1	1	1	1	0	1	-12,332629	275,343452	313,565655	0
15.01.2021	15:21:18	0	42,507878	2,623012	2,33925	309,9492	1,102	84,448	0	1015,6	8,3	10,1	9,8	1	1	1	1	1	1	1	1	1	0	1	-13,389711	275,42159	312,878668	0
15.01.2021	15:21:19	0	42,274899	4,219631	2,382	324,1224	1,095	84,441	0	1015,5	8,3	10,1	9,8	1	1	1	1	1	1	1	1	1	0	1	-12,825934	275,53055	313,959053	0
15.01.2021	15:21:20	0	42,274839	3,193237	2,418	320,436	1,098	84,443	0	1015,66	8,3	10,1	9,8	1	1	1	1	1	1	1	1	1	0	1	-10,923185	275,378496	315,14104	0
15.01.2021	15:21:21	0	42,740617	4,447752	2,535	327,1644	1,103	84,446	0	1015,64	8,3	10,1	9,7	1	1	1	1	1	1	1	1	1	0	1	-15,856237	275,477596	310,677605	0
15.01.2021	15:21:22	0	42,507638	4,561773	2,4255	322,2036	1,101	84,448	0	1015,52	8,2	10,1	9,8	1	1	1	1	1	1	1	1	1	0	1	-9,795631	275,357781	316,170494	0
15.01.2021	15:21:23	0	42,740496	4,789865	2,31075	333,5148	1,098	84,445	0	1015,68	8,3	10,1	9,8	1	1	1	1	1	1	1	1	1	0	1	-15,503876	275,501648	311,14402	0
15.01.2021	15:21:24	0	42,2746	3,079201	2,32425	328,5072	1,096	84,424	0	1015,54	8,3	10,1	9,8	1	1	1	1	1	1	1	1	1	0	1	-16,067653	275,423188	310,208297	0
15.01.2021	15:21:25	0	42,041623	2,623025	2,4555	331,5024	1,096	84,436	0	1015,68	8,3	10,1	9,8	1	1	1	1	1	1	1	1	1	0	1	-20,577872	275,527337	306,191871	0
15.01.2021	15:21:26	0	42,27448	3,535384	2,505	312,3972	1,098	84,432	0	1015,46	8,3	10,1	9,8	1	1	1	1	1	1	1	1	1	0	1	-13,460183	275,396041	312,68715	0
15.01.2021	15:21:27	0	42,390879	4,561788	2,5065	319,9932	1,1	84,419	0	1015,66	8,3	10,1	9,8	1	1	1	1	1	1	1	1	1	0	1	-13,530655	275,337088	312,337496	0
15.01.2021	15:21:28	0	42,274361	2,62303	2,3835	310,6872	1,098	84,424	0	1015,56	8,3	10,1	9,8	1	1	1	1	1	1	1	1	1	0	1	-16,913319	275,418395	309,339918	0
15.01.2021	15:21:29	0	41,924927	2,508987	2,26725	312,1056	1,099	84,396	0	1015,42	8,3	10,1	9,8	1	1	1	1	1	1	1	1	1	0	1	-12,262156	275,528943	314,515208	0
15.01.2021	15:21:30	0	42,623615	3,079213	2,1555	304,254	1,1	84,415	0	1015,54	8,3	10,1	9,8	1	1	1	1	1	1	1	1	1	0	1	-15,785765	275,383279	310,301117	0
15.01.2021	15:21:31	0	42,507097	4,105621	2,43375	298,9656	1,101	84,401	0	1015,54	8,3	10,1	9,8	1	1	1	1	1	1	1	1	1	0	1	-16,842847	275,346636	309,070507	0
15.01.2021	15:21:32	0	42,39058	5,360119	2,62725	294,7968	1,097	84,4	0	1015,64	8,3	10,1	9,8	1	1	1	1	1	1	1	1	1	0	1	-13,812544	275,389659	312,304557	0
15.01.2021	15:21:33	0	42,041147	2,851129	2,75775	274,3128	1,099	84,389	0	1015,66	8,2	10,1	9,8	1	1	1	1	1	1	1	1	1	0	1	-15,997181	275,343452	309,901103	0
15.01.2021	15:21:34	0	42,157545	2,965194	2,646	307,3284	1,1	84,398	0	1015,6	8,3	10,1	9,7	1	1	1	1	1	1	1	1	1	0	1	-17,758985	275,475994	308,767259	0
15.01.2021	15:21:35	0	42,157485	4,561813	2,6265	285,5124	1,102	84,395	0	1015,56	8,3	10,1	9,8	1	1	1	1	1	1	1	1	1	0	1	-15,64482	275,504857	311,018296	0
15.01.2021	15:21:36	0	42,273883	3,649453	2,76525	299,4012	1,1	84,397	0	1015,5	8,3	10,1	9,8	1	1	1	1	1	1	1	1	1	0	1	-15,574348	275,519305	311,157296	0
15.01.2021	15:21:37	0	42,273823	3,763523	2,80275	299,322	1,099	84,392	0	1015,66	8,2	10,1	9,7	1	1	1	1	1	1	1	1	1	0	1	-13,6716	275,407215	312,528667	0
15.01.2021	15:21:38	0	42,04085	3,877549	2,8095	295,1748	1,092	84,39	0	1015,54	8,2	10,1	9,8	1	1	1	1	1	1	1	1	1	0	1	-15,292459	275,516094	311,423951	0
15.01.2021	15:21:39	0	42,157247	3,079232	2,7555	292,2588	1,093	84,391	0	1015,54	8,3	10,1	9,8	1	1	1	1	1	1	1	1	1	0	1	-17,477097	275,383279	308,609786	0
15.01.2021	15:21:40	0	42,506556	3,535417	2,72775	287,712	1,095	84,368	0	1015,52	8,3	10,1	9,8	1	1	1	1	1	1	1	1	1	0	1	-16,701903	275,482404	309,854736	0
15.01.2021	15:21:41	0	42,273584	4,33374	2,71725	297,216	1,1	84,379	0	1015,36	8,3	10,1	9,8	1	1	1	1	1	1	1	1	1	0	1	-14,869626	275,508067	311,808713	0
15.01.2021	15:21:42	0	42,506436	4,789926	2,88375	299,4012	1,099	84,386	0	1015,54	8,3	10,1	9,8	1	1	1	1	1	1	1	1	1	0	1	-14,869626	275,394446	311,270147	0
15.01.2021	15:21:43	0	42,157008	4,675884	2,9205	298,7208	1,095	84,39	0	1015,54	8,3	10,1	9,8	1	1	1	1	1	1	1	1	1	0	1	-13,953488	275,375307	312,095637	0
15.01.2021	15:21:44	0	42,156949	3,991611	2,83425	296,9172	1,089	84,369	0	1015,52	8,3	10,1	9,8	1	1	1	1	1	1	1	1	1	0	1	-13,03735	275,354596	312,913694	0
15.01.2021	15:21:45	0	42,273344	4,67589	2,66925	296,6076	1,097	84,384	0	1015,54	8,3	10,1	9,8	1	1	1	1	1	1	1	1	1	0	1	-19,238901	275,504857	307,424215	0
15.01.2021	15:21:46	0	42,156829	4,447801	2,67075	315,2304	1,099	84,388	0	1015,54	8,2	10,1	9,8	1	1	1	1	1	1	1	1	1	0	1	-15,503876	275,408812	310,703956	0
15.01.2021	15:21:47	0	42,15677	3,991619	2,694	320,382	1,097	84,393	0	1015,62	8,3	10,1	9,8	1	1	1	1	1	1	1	1	1	0	1	-16,560958	275,524124	310,193542	0
15.01.2021	15:21:48	0	42,506075	3,877575	2,62275	311,7996	1,096	84,384	0	1015,58	8,2	10,1	9,8	1	1	1	1	1	1	1	1	1	0	1	-15,926709	275,376902	310,129966	0
15.01.2021	15:21:49	0	42,946408	2,824328	2,61825	310,7556	1,098	84,374	0	1015,6	8,3	10,1	9,8	1	1	1	1	1	1	1	1	1	0	1	-11,980268	275,343452	313,918016	0
15.01.2021	15:21:50	0	43,065373	3,728113	2,712	305,7768	1,099	84,377	0	1015,58	8,3	10,1	9,8	1	1	1	1	1	1	1	1	1	0	1	-17,970402	275,386469	308,131589	0
15.01.2021	15:21:51	0	42,708478	2,711355	2,8905	303,9408	1,097	84,364	0	1015,62	8,3	10,1	9,8	1	1	1	1	1	1	1	1	1	0	1	-16,138125	275,49844	310,494553	0
15.01.2021	15:21:52	0	42,827443	4,067032	2,8455	306,1224	1,096	84,373	0	1015,58	8,3	10,1	9,8	1	1	1	1	1	1	1	1	1	0	1	-10,782241	275,383279	315,304641	0
15.01.2021	15:21:53	0	43,184338	5,309736	2,71425	309,2976	1,095	84,358	0	1015,58	8,3	10,1	9,8	1	1	1	1	1	1	1	1	1	0	1	-12,896406	275,332316	312,949154	0
15.01.2021	15:21:54	0	43,065373	4,631897	2,60625	293,0544	1,1	84,352	0	1015,6	8,3	10,1	9,8	1	1	1	1	1	1	1	1	1	0	1	-15,503876	275,474391	311,014771	0
15.01.2021	15:21:55	0	42,946408	3,615139	2,46225	296,8776	1,102	84,356	0	1015,62	8,2	10,1	9,8	1	1	1	1	1	1	1	1	1	0	1	-16,420014	275,533764	310,380221	0
15.01.2021	15:21:56	0	43,422268	2,711355	2,35725	313,2324	1,096	84,347	0	1015,5	8,3	10,1	9,8	1	1	1	1	1	1	1	1	1	0	1	-14,305849	275,410408	311,909548	0
15.01.2021	15:21:57	0	43,184338	3,954059	2,331	291,1968	1,095	84,332	0	1015,52	8,3	10,1	9,8	1	1	1	1	1	1	1	1	1	0	1	-14,094433	275,341861	311,796317	0
15.01.2021	15:21:58	0	42,946408	2,937301	2,34975	309,8232	1,095	84,334	0	1015,44	8,3	10,1	9,8	1	1	1	1	1	1	1	1	1	0	1	-17,618041	275,360966	308,363168	0
15.01.2021	15:21:59	0	43,184338	2,598381	2,29875	310,6404	1,099	84,324	0	1015,64	8,3	10,1	9,8	1	1	1	1	1	1	1	1	1	0	1	-13,6716	275,407215	312,528667	0
15.01.2021	15:22:00	0	42,946408	2,824328	2,4015	305,1	1,094	84,322	0	1015,6	8,3	10,1	9,8	1	1	1	1	1	1	1	1	1	0	1	-13,601128	275,349819	312,3273	0
15.01.2021	15:22:01	0	42,946408	2,824328	2,4015	305,1	1,094	84,322	0	1015,6	8,3	10,1	9,8	1	1	1	1	1	1	1	1	1	0	1	-13,460183	275,412005	312,762781	0
15.01.2021	15:22:02	0	42,946408	3,050274	2,658	318,4632	1,092	84,312	0	1015,56	8,3	10,1	9,8	1	1	1	1	1	1	1	1	1	0	1	-14,517266	275,509672	312,168686	0
15.01.2021	15:22:03	0	43,303303	2,146489	2,88975	319,302	1,093	84,311	0	1015,5	8,3	10,1	9,8	1	1	1	1	1	1	1	1	1	0	1	-11,627907	275,381685	314,451422	0
15.01.2021	15:22:04	0	43,184338	2,598381	2,943	295,1892	1,096	84,298	0	1015,6	8,3	10,1	9,8	1	1	1	1	1	1	1	1	1	0	1	-16,913319	275,512883	309,78786	0
15.01.2021	15:22:05	0	42,946408	4,857844	3,096	304,9848	1,099	84,296	0	1015,64	8,3	10,1	9,8	1	1	1	1	1	1	1	1	1	0	1	-13,812544	275,370526	312,213936	0
15.01.2021	15:22:06	0	43,065373	4,857844	3,35025	306,8892	1,103	84,299	0	1015,62	8,3	10,1	9,8	1	1	1	1	1	1	1	1	1	0	1	-15,64482	275,338679	310,230863	0
15.01.2021	15:22:07	0	43,303303	2,598381	3,47325	303,2892	1,093	84,266	0	1015,44	8,3	10,1	9,8	1	1	1	1	1	1	1	1	1	0	1	-12,825934	275,456775	313,609199	0
15.01.2021	15:22:08	0	43,184338	4,180005	3,52875	296,8524	1,091	84,279	0	1015,56	8,3	10,1	9,8	1	1	1	1	1	1	1	1	1	0	1	-15,926709	275,388064	310,182837	0
15.01.2021	15:22:09	0	43,184338	2,824328	3,621	301,6152	1,094	84,255	0	1015,42	8,2	10,1	9,8	1	1	1	1	1	1	1	1	1	0	1	-15,64482	275,354596	310,306224	0
15.01.2021	15:22:10	0	43,065373	4,744871	3,71325	317,376	1,089	84,232	0	1015,6	8,3	10,1	9,8	1	1	1	1	1	1	1	1	1	0	1	-16,420014	275,484007	310,144225	0
15.01.2021	15:22:11	0	42,946408	4,405951	3,636	309,9168	1,093	84,255	0	1015,66	8,2	10,1	9,8	1	1	1	1	1	1	1	1	1	0	1	-13,883016	275,508067	312,795323	0
15.01.2021	15:22:12	0	42,946408	4,292978	3,53325	309,2508	1,085	84,248	0	1015,52	8,3	10,1	9,8	1	1	1	1	1	1	1	1	1	0	1	-16,420014	275,504857	310,243102	0
15.01.2021	15:22:13	0	43,184338	2,824328	3,45675	308,0304	1,092	84,245	0	1015,6	8,2	10,1	9,8	1	1	1	1	1	1	1	1	1	0	1	-14,305849	275,471187	312,197607	0
15.01.2021	15:22:14	0	42,946408	2,711355	3,47625	312,8472	1,1	84,253	0	1015,66	8,3	10,1	9,8	1	1	1	1	1	1	1	1	1	0	1	-19,168428	275,500044	307,471858	0
15.01.2021	15:22:15	0	43,184338	4,180005	3,4635	309,546	1,093	84,251	0	1015,58	8,2	10,1	9,8	1	1	1	1	1	1	1	1	1	0	1	-13,742072	275,466382	312,738603	0
15.01.2021	15:22:16	0	43,184338	4,405978	3,38925	309,2436	1,095	84,262	0	1015,72	8,2	10,1	9,7	1	1	1	1	1	1	1	1	1	0	1	-16,349542	275,368932	309,669391	0
15.01.2021	15:22:17	0	43,065373	4,18003	3,2955	308,0736	1,093	84,254	0	1015,58	8,3	10,1	9,7	1	1	1	1	1	1	1	1	1	0	1	-14,023961	275,337088	311,844191	0
15.01.2021	15:22:18	0	43,065373	3,954059	3,177	308,1096	1,093	84,26	0	1015,68	8,2	10,1	9,8	1	1	1	1	1	1	1	1	1	0	1	-18,322763	275,463179	308,142728	0
15.01.2021	15:22:19	0	42,708478	3,389193	3,2145	306,8496	1,097	84,251	0	1015,54	8,3	10,1	9,8	1	1	1	1	1	1	1	1	1	0	1	-17,406624	275,512883	309,294555	0
15.01.2021	15:22:20	0	42,946408	3,389193	3,2235	309,186	1,089	84,235	0	1015,56	8,3	10,1	9,8	1	1	1	1	1	1	1	1	1	0	1	-17,054264	275,459977	309,396047	0
15.01.2021	15:22:21	0	42,946408	2,824328	3,25875	308,9376	1,093	84,232	0	1015,58	8,3	10,1	9,8	1	1	1	1	1	1	1	1	1	0	1	-14,869626	275,512883	311,831553	0
15.01.2021	15:22:22	0	42,946408	2,824345	3,42225	307,6812	1,086	84,237	0	1015,48	8,3	10,1	9,7	1	1	1	1	1	1	1	1	1	0	1	-16,349542	275,335497	309,511078	0
15.01.2021	15:22:23	0	43,184338	4,292978	3,35475	304,5672	1,096	84,247	0	1015,7	8,3	10,1	9,8	1	1	1	1	1	1	1	1	1	0	1	-15,292459	275,520911	311,446803	0
15.01.2021	15:22:24	0	42,827443	3,27622	3,174	309,2616	1,095	84,237	0	1015,58	8,2	10,1	9,8	1	1	1	1	1	1	1	1	1	0	1	-18,111346	275,434377	308,217628	0
15.01.2021	15:22:25	0	42,827443	3,163247	2,991	303,4764	1,092	84,24	0	1015,62	8,2	10,1	9,8	1	1	1	1	1	1	1	1	1	0	1	-18,463707	275,522518	308,283174	0
15.01.2021	15:22:26	0	43,065373	2,937301	3,0015	304,6176	1,086	84,229	0	1015,52	8,3	10,1	9,8	1	1	1	1	1	1	1	1	1	0	1	-15,151515	275,404022	311,033624	0
15.01.2021	15:22:27	0	43,065373	4,405951	3,02775	306,1512	1,09	84,23	0	1015,6	8,3	10,1	9,8	1	1	1	1	1	1	1	1	1	0	1	-16,490486	275,504857	310,17263	0
15.01.2021	15:22:28	0	43,065373	3,841086	3,10725	303,5556	1,087	84,225	0	1015,66	8,2	10,1	9,8	1	1	1	1	1	1	1	1	1	0	1	-14,517266	275,519305	312,214379	0
15.01.2021	15:22:29	0	43,065373	4,405978	3,147	305,7912	1,092	84,214	0	1015,52	8,3	10,1	9,7	1	1	1	1	1	1	1	1	1	0	1	-13,460183	275,503253	313,195322	0
15.01.2021	15:22:30	0	43,065373	4,518924	3,09525	302,4612	1,089	84,21	0	1015,6	8,3	10,1	9,8	1	1	1	1	1	1	1	1	1	0	1	-14,376321	275,48561	312,195519	0
15.01.2021	15:22:31	0	42,708478	2,372435	2,94	313,6608	1,089	84,204	0	1015,6	8,3	10,1	9,8	1	1	1	1	1	1	1	1	1	0	1	-11,627907	275,5177	315,09612	0
15.01.2021	15:22:32	0	43,422268	3,615139	2,8815	305,3808	1,088	84,187	0	1015,56	8,3	10,1	9,8	1	1	1	1	1	1	1	1	1	0	1	-13,883016	275,501648	312,764879	0
15.01.2021	15:22:33	0	42,827443	2,937301	2,751	304,254	1,085	84,186	0	1015,98	8,3	10,1	9,8	1	1	1	1	1	1	1	1	1	0	1	-13,883016	275,459977	312,567294	0
15.01.2021	15:22:34	0	42,589513	2,485408	2,589	300,87	1,087	84,253	0	1015,52	8,2	10,1	9,8	1	1	1	1	1	1	1	1	1	0	1	-13,6716	275,316417	312,098704	0
15.01.2021	15:22:35	0	42,946408	4,405978	2,40675	303,8904	1,084	84,167	0	1015,42	8,3	10,1	9,7	1	1	1	1	1	1	1	1	1	0	1	-13,742072	275,480801	312,806967	0
15.01.2021	15:22:36	0	43,303303	4,744871	2,3505	304,6896	1,09	84,193	0	1015,64	8,2	10,1	9,8	1	1	1	1	1	1	1	1	1	0	1	-15,715292	275,504857	310,947823	0
15.01.2021	15:22:37	0	43,303303	4,067032	2,4675	301,644	1,086	84,197	0	1015,6	8,2	10,1	9,8	1	1	1	1	1	1	1	1	1	0	1	-16,490486	275,39285	309,641729	0
15.01.2021	15:22:38	0	42,708478	3,389214	2,48325	310,6692	1,087	84,192	0	1015,58	8,2	10,1	9,7	1	1	1	1	1	1	1	1	1	0	1	-12,121212	275,321185	313,671661	0
15.01.2021	15:22:39	0	42,946408	3,728113	2,424	319,5432	1,086	84,184	0	1015,52	8,2	10,1	9,8	1	1	1	1	1	1	1	1	1	0	1	-13,248767	275,451973	313,163605	0
15.01.2021	15:22:40	0	43,065373	3,389214	2,61525	303,5232	1,087	84,186	0	1015,6	8,3	10,1	9,7	1	1	1	1	1	1	1	1	1	0	1	-12,755462	275,332316	313,090098	0
15.01.2021	15:22:41	0	43,184338	3,954059	2,70975	306,1404	1,084	84,197	0	1015,56	8,3	10,1	9,8	1	1	1	1	1	1	1	1	1	0	1	-14,799154	275,437575	311,544976	0
15.01.2021	15:22:42	0	42,827443	2,824328	2,6385	308,1096	1,088	84,199	0	1015,5	8,2	10,1	9,8	1	1	1	1	1	1	1	1	1	0	1	-15,785765	275,353003	310,15774	0
15.01.2021	15:22:43	0	43,065373	2,711371	2,6265	309,1824	1,086	84,194	0	1015,6	8,3	10,1	9,7	1	1	1	1	1	1	1	1	1	0	1	-15,010571	275,391255	311,114087	0
15.01.2021	15:22:44	0	42,589513	2,033516	2,6625	297,1008	1,087	84,188	0	1015,54	8,2	10,1	9,8	1	1	1	1	1	1	1	1	1	0	1	-16,349542	275,338679	309,526141	0
15.01.2021	15:22:45	0	42,589513	3,27624	2,58525	313,2036	1,086	84,189	0	1015,58	8,2	10,1	9,7	1	1	1	1	1	1	1	1	1	0	1	-14,376321	275,435976	311,960231	0
15.01.2021	15:22:46	0	42,589513	2,146489	2,4285	315,4896	1,086	84,176	0	1015,64	8,2	10,1	9,8	1	1	1	1	1	1	1	1	1	0	1	-13,389711	275,321185	312,403162	0
15.01.2021	15:22:47	0	43,065373	3,163266	2,322	305,4096	1,083	84,191	0	1015,6	8,3	10,1	9,7	1	1	1	1	1	1	1	1	1	0	1	-16,27907	275,407215	309,921197	0
15.01.2021	15:22:48	0	43,065373	2,711355	2,2815	307,602	1,084	84,198	0	1015,54	8,3	10,1	9,8	1	1	1	1	1	1	1	1	1	0	1	-18,957012	275,337088	306,911139	0
15.01.2021	15:22:49	0	42,708478	2,824328	2,28525	306,8352	1,083	84,196	0	1015,5	8,2	10,1	9,8	1	1	1	1	1	1	1	1	1	0	1	-17,124736	275,435976	309,211816	0
15.01.2021	15:22:50	0	42,708478	2,598381	2,32425	333,1476	1,085	84,196	0	1015,56	8,2	10,1	9,8	1	1	1	1	1	1	1	1	1	0	1	-14,446794	275,488817	312,140252	0
15.01.2021	15:22:51	0	42,708478	3,389193	2,27325	337,1472	1,081	84,185	0	1015,58	8,2	10,1	9,8	1	1	1	1	1	1	1	1	1	0	1	-15,433404	275,407215	310,766863	0
15.01.2021	15:22:52	0	43,065373	3,954059	2,19075	332,7732	1,084	84,202	0	1015,64	8,2	10,1	9,8	1	1	1	1	1	1	1	1	1	0	1	-13,742072	275,506462	312,928655	0
15.01.2021	15:22:53	0	43,184338	2,824345	2,0205	323,7372	1,077	84,214	0	1015,54	8,2	10,1	9,7	1	1	1	1	1	1	1	1	1	0	1	-14,587738	275,426384	311,703358	0
15.01.2021	15:22:54	0	43,184338	4,857844	1,911	320,3784	1,08	84,199	0	1015,48	8,2	10,1	9,8	1	1	1	1	1	1	1	1	1	0	1	-14,587738	275,332316	311,257822	0
15.01.2021	15:22:55	0	43,065373	4,631897	1,899	327,8628	1,085	84,223	0	1015,46	8,2	10,1	9,8	1	1	1	1	1	1	1	1	1	0	1	-16,420014	275,453574	309,999944	0
15.01.2021	15:22:56	0	43,065373	4,067056	1,8555	327,114	1,083	84,233	0	1015,6	8,3	10,1	9,7	1	1	1	1	1	1	1	1	1	0	1	-13,319239	275,5177	313,404788	0
15.01.2021	15:22:57	0	43,065373	3,615161	1,758	334,2276	1,088	84,237	0	1015,64	8,2	10,1	9,7	1	1	1	1	1	1	1	1	1	0	1	-16,490486	275,487213	310,088956	0
15.01.2021	15:22:58	0	43,065373	4,180005	1,69575	334,9908	1,085	84,236	0	1015,44	8,2	10,1	9,8	1	1	1	1	1	1	1	1	1	0	1	-16,772375	275,338679	309,103308	0
15.01.2021	15:22:59	0	42,827443	2,259462	1,61775	330,4116	1,086	84,246	0	1015,68	8,3	10,1	9,8	1	1	1	1	1	1	1	1	1	0	1	-15,574348	275,354596	310,376696	0
15.01.2021	15:23:00	0	42,708478	3,841109	2,15325	321,9084	1,087	84,26	0	1015,58	8,2	10,1	9,7	1	1	1	1	1	1	1	1	1	0	1	-16,067653	275,458376	310,375068	0
15.01.2021	15:23:01	0	42,708478	3,841109	2,15325	321,9084	1,087	84,26	0	1015,58	8,2	10,1	9,7	1	1	1	1	1	1	1	1	1	0	1	-15,362932	275,508067	311,315407	0
15.01.2021	15:23:02	0	42,946408	2,937318	2,214	340,9092	1,092	84,267	0	1015,6	8,3	10,1	9,7	1	1	1	1	1	1	1	1	1	0	1	-16,631431	275,432778	309,689966	0
15.01.2021	15:23:03	0	43,065373	5,08382	2,004	326,736	1,08	84,265	0	1015,54	8,2	10,1	9,7	1	1	1	1	1	1	1	1	1	0	1	-16,772375	275,492024	309,829878	0
15.01.2021	15:23:04	0	42,827443	3,389193	1,8615	323,6832	1,088	84,272	0	1015,54	8,2	10,1	9,8	1	1	1	1	1	1	1	1	1	0	1	-13,389711	275,413603	312,84082	0
15.01.2021	15:23:05	0	42,827443	3,163266	1,89375	318,8556	1,087	84,274	0	1015,4	8,2	10,1	9,7	1	1	1	1	1	1	1	1	1	0	1	-13,883016	275,327545	311,939959	0
15.01.2021	15:23:06	0	42,827443	3,050292	1,94775	311,9184	1,086	84,26	0	1015,56	8,2	10,1	9,7	1	1	1	1	1	1	1	1	1	0	1	-19,943622	275,42159	306,324756	0
15.01.2021	15:23:07	0	42,946408	4,292978	2,0265	308,4732	1,091	84,291	0	1015,58	8,2	10,1	9,8	1	1	1	1	1	1	1	1	1	0	1	-14,023961	275,332316	311,821599	0
15.01.2021	15:23:08	0	42,946408	4,518951	2,31	298,6632	1,09	84,29	0	1015,56	8,2	10,1	9,7	1	1	1	1	1	1	1	1	1	0	1	-12,966878	275,456775	313,468255	0
15.01.2021	15:23:09	0	42,946408	4,518924	2,556	297,9684	1,091	84,297	0	1015,6	8,2	10,1	9,8	1	1	1	1	1	1	1	1	1	0	1	-12,755462	275,511277	313,938104	0
15.01.2021	15:23:10	0	42,708478	4,631897	2,784	305,4096	1,091	84,31	0	1015,5	8,2	10,1	9,8	1	1	1	1	1	1	1	1	1	0	1	-11,486963	275,463179	314,978528	0
15.01.2021	15:23:11	0	42,946408	4,518924	2,799	299,7864	1,091	84,306	0	1015,58	8,2	10,1	9,8	1	1	1	1	1	1	1	1	1	0	1	-20,084567	275,516094	306,631844	0
15.01.2021	15:23:12	0	42,827443	3,615161	2,73	300,4272	1,082	84,3	0	1015,52	8,2	10,1	9,7	1	1	1	1	1	1	1	1	1	0	1	-18,604651	275,440774	307,754639	0
15.01.2021	15:23:13	0	42,946408	2,937318	2,56275	306,0324	1,084	84,318	0	1015,54	8,2	10,1	9,7	1	1	1	1	1	1	1	1	1	0	1	-14,446794	275,327545	311,376182	0
15.01.2021	15:23:14	0	42,827443	2,937318	2,4495	305,4312	1,092	84,308	0	1015,58	8,2	10,1	9,7	1	1	1	1	1	1	1	1	1	0	1	-13,319239	275,404022	312,8659	0
15.01.2021	15:23:15	0	42,708478	3,389214	2,35575	298,8072	1,093	84,334	0	1015,62	8,2	10,1	9,7	1	1	1	1	1	1	1	1	1	0	1	-15,081043	275,520911	311,658219	0
15.01.2021	15:23:16	0	43,065373	3,389193	2,39625	298,9836	1,089	84,335	0	1015,62	8,2	10,1	9,8	1	1	1	1	1	1	1	1	1	0	1	-14,164905	275,423188	312,111046	0
15.01.2021	15:23:17	0	42,708478	4,067032	2,5005	311,004	1,083	84,324	0	1015,7	8,2	10,1	9,8	1	1	1	1	1	1	1	1	1	0	1	-14,65821	275,332316	311,18735	0
15.01.2021	15:23:18	0	42,946107	4,067032	2,4855	304,2936	1,088	84,324	0	1015,6	8,2	10	9,8	1	1	1	1	1	1	1	1	1	0	1	-14,65821	275,389659	311,458891	0
15.01.2021	15:23:19	0	42,708478	3,050274	2,42925	312,4332	1,094	84,315	0	1015,52	8,2	10,1	9,8	1	1	1	1	1	1	1	1	1	0	1	-15,292459	275,514488	311,416335	0
15.01.2021	15:23:20	0	43,065373	4,518924	2,36625	321,8832	1,09	84,341	0	1015,52	8,2	10,1	9,8	1	1	1	1	1	1	1	1	1	0	1	-18,181818	275,448773	308,215384	0
15.01.2021	15:23:21	0	42,946107	2,598397	2,43075	320,022	1,085	84,35	0	1015,56	8,2	10	9,7	1	1	1	1	1	1	1	1	1	0	1	-19,450317	275,509672	307,235635	0
15.01.2021	15:23:22	0	42,827443	2,711371	2,5125	324,738	1,091	84,341	0	1015,56	8,2	10,1	9,7	1	1	1	1	1	1	1	1	1	0	1	-15,151515	275,448773	311,245687	0
15.01.2021	15:23:23	0	42,589513	2,259476	2,6625	317,2932	1,085	84,337	0	1015,54	8,2	10,1	9,7	1	1	1	1	1	1	1	1	1	0	1	-11,980268	275,370526	314,046212	0
15.01.2021	15:23:24	0	42,470547	2,598381	2,77725	316,2852	1,096	84,334	0	1015,56	8,2	10,1	9,8	1	1	1	1	1	1	1	1	1	0	1	-14,587738	275,52573	312,174383	0
15.01.2021	15:23:25	0	42,827143	3,615161	2,919	314,8092	1,09	84,352	0	1015,56	8,2	10	9,7	1	1	1	1	1	1	1	1	1	0	1	-15,362932	275,482404	311,193707	0
15.01.2021	15:23:26	0	42,946408	4,518951	3,13125	313,2972	1,084	84,339	0	1015,66	8,2	10,1	9,7	1	1	1	1	1	1	1	1	1	0	1	-17,124736	275,472789	309,386315	0
15.01.2021	15:23:27	0	42,351582	2,598397	3,22275	320,8392	1,094	84,35	0	1015,66	8,2	10,1	9,7	1	1	1	1	1	1	1	1	1	0	1	-16,490486	275,500044	310,1498	0
15.01.2021	15:23:28	0	42,827443	4,744871	3,126	328,6656	1,094	84,345	0	1015,46	8,2	10,1	9,8	1	1	1	1	1	1	1	1	1	0	1	-14,376321	275,511277	312,317244	0
15.01.2021	15:23:29	0	42,827443	3,050292	2,91	313,5456	1,087	84,328	0	1015,46	8,2	10,1	9,7	1	1	1	1	1	1	1	1	1	0	1	-14,869626	275,42159	311,398752	0
15.01.2021	15:23:30	0	42,589513	4,18003	2,781	315,8928	1,089	84,322	0	1015,7	8,2	10,1	9,7	1	1	1	1	1	1	1	1	1	0	1	-14,094433	275,504857	312,568683	0
15.01.2021	15:23:31	0	42,589513	2,259476	2,757	322,3368	1,093	84,342	0	1015,58	8,2	10,1	9,7	1	1	1	1	1	1	1	1	1	0	1	-15,010571	275,376902	311,046104	0
15.01.2021	15:23:32	0	42,470547	4,293004	2,74575	309,3048	1,092	84,345	0	1015,72	8,2	10,1	9,7	1	1	1	1	1	1	1	1	1	0	1	-14,376321	275,503253	312,279184	0
15.01.2021	15:23:33	0	42,827443	2,598397	2,6595	314,7948	1,093	84,342	0	1015,46	8,2	10,1	9,7	1	1	1	1	1	1	1	1	1	0	1	-17,195208	275,459977	309,255102	0
15.01.2021	15:23:34	0	42,351582	2,937318	2,655	309,2616	1,087	84,348	0	1015,6	8,2	10,1	9,7	1	1	1	1	1	1	1	1	1	0	1	-14,65821	275,329135	311,172293	0
15.01.2021	15:23:35	0	42,708478	3,954059	2,66475	306,8892	1,091	84,346	0	1015,56	8,2	10,1	9,8	1	1	1	1	1	1	1	1	1	0	1	-18,111346	275,456775	308,323787	0
15.01.2021	15:23:36	0	43,065373	4,744899	2,7525	306,5076	1,093	84,348	0	1015,66	8,2	10,1	9,7	1	1	1	1	1	1	1	1	1	0	1	-19,309373	275,49844	307,323306	0
15.01.2021	15:23:37	0	42,827443	3,841109	2,76675	301,7088	1,094	84,355	0	1015,6	8,2	10,1	9,7	1	1	1	1	1	1	1	1	1	0	1	-12,825934	275,466382	313,654741	0
15.01.2021	15:23:38	0	42,589513	3,728135	2,7165	303,138	1,085	84,344	0	1015,66	8,2	10,1	9,7	1	1	1	1	1	1	1	1	1	0	1	-15,503876	275,509672	311,182076	0
15.01.2021	15:23:39	0	42,946408	4,518924	2,74275	294,7788	1,087	84,344	0	1015,5	8,2	10,1	9,8	1	1	1	1	1	1	1	1	1	0	1	-15,503876	275,482404	311,052763	0
15.01.2021	15:23:40	0	42,708478	4,631925	2,787	291,5028	1,09	84,353	0	1015,64	8,2	10,1	9,7	1	1	1	1	1	1	1	1	1	0	1	-15,997181	275,338679	309,878502	0
15.01.2021	15:23:41	0	42,708478	2,711371	2,78475	297,2664	1,092	84,361	0	1015,58	8,2	10,1	9,7	1	1	1	1	1	1	1	1	1	0	1	-12,05074	275,388064	314,058805	0
15.01.2021	15:23:42	0	42,589513	4,067056	2,6175	301,626	1,091	84,35	0	1015,64	8,2	10,1	9,7	1	1	1	1	1	1	1	1	1	0	1	-13,460183	275,338679	312,4155	0
15.01.2021	15:23:43	0	42,232617	2,372449	2,52375	311,058	1,093	84,356	0	1015,7	8,2	10,1	9,7	1	1	1	1	1	1	1	1	1	0	1	-15,715292	275,375307	310,333832	0
15.01.2021	15:23:44	0	42,470547	4,293004	2,445	302,4288	1,092	84,356	0	1015,58	8,2	10,1	9,7	1	1	1	1	1	1	1	1	1	0	1	-18,393235	275,49844	308,239444	0
15.01.2021	15:23:45	0	42,589513	3,163266	2,3595	299,7612	1,088	84,355	0	1015,64	8,2	10,1	9,7	1	1	1	1	1	1	1	1	1	0	1	-15,081043	275,386469	311,020947	0
15.01.2021	15:23:46	0	42,708478	4,631897	2,373	294,7752	1,094	84,352	0	1015,7	8,2	10,1	9,8	1	1	1	1	1	1	1	1	1	0	1	-17,758985	275,456775	308,676147	0
15.01.2021	15:23:47	0	42,946408	4,744899	2,3265	312,516	1,092	84,352	0	1015,66	8,2	10,1	9,7	1	1	1	1	1	1	1	1	1	0	1	-17,336152	275,321185	308,456721	0
15.01.2021	15:23:48	0	43,065071	5,08382	2,16525	300,5532	1,095	84,35	0	1015,62	8,2	10	9,7	1	1	1	1	1	1	1	1	1	0	1	-17,26568	275,375307	308,783445	0
15.01.2021	15:23:49	0	42,351286	3,389214	2,07	322,614	1,088	84,341	0	1015,6	8,2	10	9,7	1	1	1	1	1	1	1	1	1	0	1	-13,6716	275,362559	312,317153	0
15.01.2021	15:23:50	0	42,827443	4,293004	2,0745	312,876	1,089	84,326	0	1015,52	8,2	10,1	9,7	1	1	1	1	1	1	1	1	1	0	1	-17,336152	275,450373	309,068634	0
15.01.2021	15:23:51	0	42,470547	4,631925	2,04825	317,6748	1,087	84,343	0	1015,6	8,2	10,1	9,7	1	1	1	1	1	1	1	1	1	0	1	-17,829457	275,324365	307,978465	0
15.01.2021	15:23:52	0	42,827443	3,502187	2,04675	309,2508	1,087	84,329	0	1015,5	8,2	10,1	9,7	1	1	1	1	1	1	1	1	1	0	1	-16,560958	275,394446	309,578815	0
15.01.2021	15:23:53	0	42,232617	3,728135	2,112	303,246	1,089	84,33	0	1015,54	8,2	10,1	9,7	1	1	1	1	1	1	1	1	1	0	1	-19,87315	275,335497	305,98747	0
15.01.2021	15:23:54	0	42,708478	3,27624	2,2665	311,7816	1,095	84,32	0	1015,6	8,2	10,1	9,7	1	1	1	1	1	1	1	1	1	0	1	-16,420014	275,464781	310,053068	0
15.01.2021	15:23:55	0	42,351582	2,711371	2,2635	306,7776	1,088	84,33	0	1015,62	8,2	10,1	9,7	1	1	1	1	1	1	1	1	1	0	1	-15,503876	275,514488	311,204919	0
15.01.2021	15:23:56	0	42,827443	3,954082	2,358	298,2672	1,086	84,301	0	1015,58	8,2	10,1	9,7	1	1	1	1	1	1	1	1	1	0	1	-14,164905	275,440774	312,194385	0
15.01.2021	15:23:57	0	42,589513	3,389214	2,541	312,5844	1,091	84,305	0	1015,62	8,2	10,1	9,7	1	1	1	1	1	1	1	1	1	0	1	-13,953488	275,511277	312,740077	0
15.01.2021	15:23:58	0	42,351286	2,598397	2,7435	309,2364	1,089	84,308	0	1015,62	8,2	10	9,7	1	1	1	1	1	1	1	1	1	0	1	-14,587738	275,39285	311,544478	0
15.01.2021	15:23:59	0	42,232617	2,485423	2,85075	313,2252	1,093	84,319	0	1015,68	8,2	10,1	9,7	1	1	1	1	1	1	1	1	1	0	1	-16,772375	275,501648	309,875521	0
15.01.2021	15:24:00	0	42,589513	4,518951	2,71125	321,804	1,082	84,31	0	1015,56	8,2	10,1	9,7	1	1	1	1	1	1	1	1	1	0	1	-13,6716	275,324365	312,136323	0
15.01.2021	15:24:01	0	42,589513	4,518951	2,71125	321,804	1,082	84,31	0	1015,56	8,2	10,1	9,7	1	1	1	1	1	1	1	1	1	0	1	-13,6716	275,324365	312,136323	0
15.01.2021	15:24:02	0	42,708478	3,954059	2,52225	330,012	1,088	84,294	0	1015,62	8,2	10,1	9,8	1	1	1	1	1	1	1	1	1	0	1	-14,446794	275,423188	311,829157	0
15.01.2021	15:24:03	0	42,232617	2,485423	2,36775	317,7324	1,093	84,307	0	1015,72	8,2	10,1	9,7	1	1	1	1	1	1	1	1	1	0	1	-16,913319	275,330725	308,924712	0
15.01.2021	15:24:04	0	42,708478	2,485423	2,3055	317,3616	1,087	84,277	0	1015,54	8,2	10,1	9,7	1	1	1	1	1	1	1	1	1	0	1	-13,6716	275,378496	312,392626	0
15.01.2021	15:24:05	0	42,232617	2,711371	2,29575	308,088	1,086	84,285	0	1015,6	8,2	10,1	9,7	1	1	1	1	1	1	1	1	1	0	1	-12,755462	275,504857	313,907654	0
15.01.2021	15:24:06	0	42,351582	3,27622	2,26875	316,566	1,085	84,294	0	1015,7	8,2	10,1	9,8	1	1	1	1	1	1	1	1	1	0	1	-13,107822	275,370526	312,918657	0
15.01.2021	15:24:07	0	42,47025	4,631925	2,277	312,4548	1,089	84,295	0	1015,62	8,2	10	9,7	1	1	1	1	1	1	1	1	1	0	1	-17,89993	275,337088	307,968222	0
15.01.2021	15:24:08	0	42,708478	5,08382	2,28975	306,8028	1,087	84,284	0	1015,54	8,2	10,1	9,7	1	1	1	1	1	1	1	1	1	0	1	-12,332629	275,423188	313,943322	0
15.01.2021	15:24:09	0	42,232617	2,937318	2,28	306,468	1,094	84,288	0	1015,6	8,2	10,1	9,7	1	1	1	1	1	1	1	1	1	0	1	-13,319239	275,330725	312,518792	0
15.01.2021	15:24:10	0	42,827443	4,631925	2,3385	299,412	1,085	84,281	0	1015,58	8,2	10,1	9,7	1	1	1	1	1	1	1	1	1	0	1	-18,745595	275,4152	307,492504	0
15.01.2021	15:24:11	0	42,708478	4,518951	2,292	322,5384	1,086	84,29	0	1015,66	8,2	10,1	9,7	1	1	1	1	1	1	1	1	1	0	1	-15,856237	275,345044	310,049582	0
15.01.2021	15:24:12	0	42,708478	4,631925	2,1345	305,4744	1,088	84,278	0	1015,54	8,2	10,1	9,7	1	1	1	1	1	1	1	1	1	0	1	-17,618041	275,424786	308,665482	0
15.01.2021	15:24:13	0	42,708179	3,502187	2,0385	324,756	1,091	84,271	0	1015,66	8,2	10	9,7	1	1	1	1	1	1	1	1	1	0	1	-13,460183	275,503253	313,195322	0
15.01.2021	15:24:14	0	42,946408	4,857873	1,8975	288,4176	1,09	84,265	0	1015,6	8,2	10,1	9,7	1	1	1	1	1	1	1	1	1	0	1	-11,980268	275,378496	314,083958	0
15.01.2021	15:24:15	0	42,351286	4,405978	1,90725	298,2852	1,089	84,265	0	1015,62	8,2	10	9,7	1	1	1	1	1	1	1	1	1	0	1	-17,336152	275,496835	309,288919	0
15.01.2021	15:24:16	0	42,113652	3,050292	1,89525	331,5312	1,087	84,249	0	1015,62	8,2	10,1	9,7	1	1	1	1	1	1	1	1	1	0	1	-19,027484	275,394446	307,11229	0
15.01.2021	15:24:17	0	42,47025	2,824345	1,92075	329,6844	1,088	84,258	0	1015,54	8,2	10	9,7	1	1	1	1	1	1	1	1	1	0	1	-15,997181	275,348227	309,92371	0
15.01.2021	15:24:18	0	42,351286	3,163266	1,84275	324,3816	1,081	84,231	0	1015,58	8,2	10	9,7	1	1	1	1	1	1	1	1	1	0	1	-11,909796	275,324365	313,898127	0
15.01.2021	15:24:19	0	42,351582	4,067056	1,80675	310,6368	1,085	84,239	0	1015,64	8,2	10,1	9,7	1	1	1	1	1	1	1	1	1	0	1	-17,618041	275,477596	308,915801	0
15.01.2021	15:24:20	0	42,351582	3,728135	1,75125	322,8768	1,088	84,238	0	1015,66	8,2	10,1	9,7	1	1	1	1	1	1	1	1	1	0	1	-13,601128	275,475994	312,925116	0
15.01.2021	15:24:21	0	42,708478	4,293004	1,82775	308,7972	1,086	84,21	0	1015,48	8,2	10,1	9,7	1	1	1	1	1	1	1	1	1	0	1	-15,081043	275,488817	311,506002	0
15.01.2021	15:24:22	0	42,589513	4,18003	1,965	319,5216	1,089	84,222	0	1015,56	8,2	10,1	9,7	1	1	1	1	1	1	1	1	1	0	1	-11,768851	275,37212	314,265176	0
15.01.2021	15:24:23	0	42,589513	3,841109	2,02725	306,7956	1,088	84,222	0	1015,66	8,2	10,1	9,7	1	1	1	1	1	1	1	1	1	0	1	-11,839323	275,511277	314,854242	0
15.01.2021	15:24:24	0	42,232321	3,163247	1,914	340,2144	1,089	84,216	0	1015,66	8,2	10	9,8	1	1	1	1	1	1	1	1	1	0	1	-17,618041	275,400829	308,551973	0
15.01.2021	15:24:25	0	42,113652	3,615161	1,695	331,506	1,085	84,222	0	1015,66	8,2	10,1	9,7	1	1	1	1	1	1	1	1	1	0	1	-19,027484	275,506462	307,643243	0
15.01.2021	15:24:26	0	42,47025	3,389214	1,596	339,0732	1,088	84,221	0	1015,64	8,2	10	9,7	1	1	1	1	1	1	1	1	1	0	1	-15,503876	275,453574	310,916082	0
15.01.2021	15:24:27	0	42,708179	4,631925	1,6755	344,3724	1,09	84,223	0	1015,6	8,2	10	9,7	1	1	1	1	1	1	1	1	1	0	1	-15,574348	275,332316	310,271212	0
15.01.2021	15:24:28	0	42,589513	3,27624	1,87725	334,1268	1,086	84,22	0	1015,64	8,2	10,1	9,7	1	1	1	1	1	1	1	1	1	0	1	-10,359408	275,375307	315,689717	0
15.01.2021	15:24:29	0	42,113357	2,937301	1,965	341,3268	1,086	84,225	0	1015,62	8,2	10	9,8	1	1	1	1	1	1	1	1	1	0	1	-17,26568	275,405618	308,927022	0
15.01.2021	15:24:30	0	41,875722	2,824345	1,99425	329,6484	1,087	84,202	0	1015,58	8,2	10,1	9,7	1	1	1	1	1	1	1	1	1	0	1	-11,768851	275,332316	314,076709	0
15.01.2021	15:24:31	0	42,351582	2,824328	2,088	335,6316	1,088	84,216	0	1015,52	8,2	10,1	9,8	1	1	1	1	1	1	1	1	1	0	1	-14,446794	275,399233	311,715659	0
15.01.2021	15:24:32	0	42,351286	2,824328	2,0685	328,1652	1,082	84,223	0	1015,64	8,2	10	9,8	1	1	1	1	1	1	1	1	1	0	1	-15,715292	275,493628	310,894566	0
15.01.2021	15:24:33	0	42,708179	4,970847	1,97475	318,5244	1,085	84,219	0	1015,7	8,2	10	9,7	1	1	1	1	1	1	1	1	1	0	1	-13,389711	275,472789	313,12134	0
15.01.2021	15:24:34	0	42,47025	3,728135	1,8885	301,158	1,075	84,223	0	1015,56	8,2	10	9,7	1	1	1	1	1	1	1	1	1	0	1	-16,490486	275,381685	309,588843	0
15.01.2021	15:24:35	0	42,589513	4,405951	1,7685	309,2256	1,083	84,227	0	1015,62	8,2	10,1	9,8	1	1	1	1	1	1	1	1	1	0	1	-18,816068	275,480801	307,732971	0
15.01.2021	15:24:36	0	41,875722	2,937318	1,6905	289,53	1,089	84,239	0	1015,64	8,2	10,1	9,7	1	1	1	1	1	1	1	1	1	0	1	-17,054264	275,482404	309,502375	0
15.01.2021	15:24:37	0	41,994393	2,485423	1,77525	292,2048	1,08	84,236	0	1015,64	8,2	10	9,7	1	1	1	1	1	1	1	1	1	0	1	-15,926709	275,453574	310,493249	0
15.01.2021	15:24:38	0	42,351582	4,744871	1,9725	292,9356	1,088	84,25	0	1015,52	8,2	10,1	9,8	1	1	1	1	1	1	1	1	1	0	1	-13,319239	275,343452	312,579045	0
15.01.2021	15:24:39	0	42,232617	3,27622	1,98675	289,2528	1,082	84,246	0	1015,58	8,2	10,1	9,8	1	1	1	1	1	1	1	1	1	0	1	-11,275546	275,351411	314,66042	0
15.01.2021	15:24:40	0	42,351286	4,518951	2,112	305,0208	1,088	84,254	0	1015,58	8,2	10	9,7	1	1	1	1	1	1	1	1	1	0	1	-13,953488	275,500044	312,686798	0
15.01.2021	15:24:41	0	42,351582	4,067056	2,259	313,3404	1,084	84,255	0	1015,72	8,2	10,1	9,7	1	1	1	1	1	1	1	1	1	0	1	-15,715292	275,416797	310,530375	0
15.01.2021	15:24:42	0	42,113652	3,389214	2,18025	306,4896	1,081	84,255	0	1015,6	8,2	10,1	9,7	1	1	1	1	1	1	1	1	1	0	1	-20,155039	275,508067	306,5233	0
15.01.2021	15:24:43	0	42,589214	4,970847	2,15025	314,478	1,082	84,266	0	1015,74	8,2	10	9,7	1	1	1	1	1	1	1	1	1	0	1	-16,27907	275,434377	310,049904	0
15.01.2021	15:24:44	0	41,994687	3,050292	2,2275	310,2876	1,086	84,281	0	1015,7	8,2	10,1	9,7	1	1	1	1	1	1	1	1	1	0	1	-14,235377	275,324365	311,572546	0
15.01.2021	15:24:45	0	42,351286	3,050292	2,3085	316,908	1,081	84,269	0	1015,72	8,2	10	9,7	1	1	1	1	1	1	1	1	1	0	1	-14,235377	275,388064	311,874168	0
15.01.2021	15:24:46	0	42,351286	2,824345	2,3775	319,6224	1,082	84,268	0	1015,66	8,2	10	9,7	1	1	1	1	1	1	1	1	1	0	1	-16,842847	275,461578	309,615053	0
15.01.2021	15:24:47	0	41,994393	4,631925	2,40225	310,3272	1,084	84,281	0	1015,64	8,2	10	9,7	1	1	1	1	1	1	1	1	1	0	1	-16,138125	275,337088	309,730026	0
15.01.2021	15:24:48	0	42,232617	3,389193	2,46225	318,1356	1,083	84,271	0	1015,54	8,2	10,1	9,8	1	1	1	1	1	1	1	1	1	0	1	-13,03735	275,367339	312,974036	0
15.01.2021	15:24:49	0	42,232321	3,615161	2,48925	312,8652	1,083	84,293	0	1015,72	8,2	10	9,7	1	1	1	1	1	1	1	1	1	0	1	-12,896406	275,508067	313,781933	0
15.01.2021	15:24:50	0	41,875429	3,841109	2,4615	315,252	1,079	84,287	0	1015,68	8,2	10	9,7	1	1	1	1	1	1	1	1	1	0	1	-16,560958	275,364152	309,435338	0
15.01.2021	15:24:51	0	41,756464	2,937318	2,42775	302,7528	1,082	84,301	0	1015,68	8,2	10	9,7	1	1	1	1	1	1	1	1	1	0	1	-14,728682	275,511277	311,964883	0
15.01.2021	15:24:52	0	41,994393	3,615139	2,4975	308,502	1,08	84,299	0	1015,68	8,2	10	9,8	1	1	1	1	1	1	1	1	1	0	1	-16,067653	275,39285	310,064562	0
15.01.2021	15:24:53	0	42,232617	4,518924	2,763	314,0532	1,085	84,305	0	1015,6	8,2	10,1	9,8	1	1	1	1	1	1	1	1	1	0	1	-17,336152	275,496835	309,288919	0
15.01.2021	15:24:54	0	42,351582	4,180005	2,84475	316,9656	1,084	84,307	0	1015,58	8,2	10,1	9,8	1	1	1	1	1	1	1	1	1	0	1	-16,349542	275,353003	309,593963	0
15.01.2021	15:24:55	0	42,113652	4,518951	2,87925	321,4584	1,082	84,294	0	1015,54	8,2	10,1	9,7	1	1	1	1	1	1	1	1	1	0	1	-16,842847	275,463179	309,622644	0
15.01.2021	15:24:56	0	42,232321	4,518924	2,775	324,7092	1,08	84,309	0	1015,66	8,2	10	9,8	1	1	1	1	1	1	1	1	1	0	1	-15,856237	275,343452	310,042047	0
15.01.2021	15:24:57	0	42,351286	3,502166	2,6955	303,264	1,073	84,302	0	1015,62	8,2	10	9,8	1	1	1	1	1	1	1	1	1	0	1	-16,560958	275,477596	309,972883	0
15.01.2021	15:24:58	0	42,232321	4,18003	2,71125	312,1524	1,081	84,305	0	1015,64	8,2	10	9,7	1	1	1	1	1	1	1	1	1	0	1	-15,081043	275,321185	310,71183	0
15.01.2021	15:24:59	0	41,994393	3,389193	2,739	312,5808	1,084	84,315	0	1015,54	8,2	10	9,8	1	1	1	1	1	1	1	1	1	0	1	-12,614517	275,353003	313,328987	0
15.01.2021	15:25:00	0	41,756464	2,711355	2,6565	315,1728	1,083	84,286	0	1015,58	8,2	10	9,8	1	1	1	1	1	1	1	1	1	0	1	-7,399577	275,500044	319,24071	0
15.01.2021	15:25:01	0	41,756464	2,711355	2,6565	315,1728	1,083	84,286	0	1015,58	8,2	10	9,8	1	1	1	1	1	1	1	1	1	0	1	-16,349542	275,455174	310,078003	0
15.01.2021	15:25:02	0	41,994393	2,598397	2,42775	321,0984	1,082	84,308	0	1015,62	8,2	10	9,7	1	1	1	1	1	1	1	1	1	0	1	-16,138125	275,496835	310,486946	0
15.01.2021	15:25:03	0	41,756464	2,824328	2,2215	316,2312	1,083	84,305	0	1015,6	8,2	10	9,8	1	1	1	1	1	1	1	1	1	0	1	-13,953488	275,480801	312,59555	0
15.01.2021	15:25:04	0	41,875429	3,27622	2,06325	316,7604	1,084	84,308	0	1015,64	8,2	10	9,8	1	1	1	1	1	1	1	1	1	0	1	-16,349542	275,370526	309,676938	0
15.01.2021	15:25:05	0	41,756464	2,598397	1,881	297,2808	1,081	84,317	0	1015,62	8,2	10	9,7	1	1	1	1	1	1	1	1	1	0	1	-13,389711	275,325954	312,425738	0
15.01.2021	15:25:06	0	41,994393	4,067032	1,8615	300,186	1,084	84,311	0	1015,5	8,2	10	9,8	1	1	1	1	1	1	1	1	1	0	1	-12,05074	275,373713	313,990836	0
15.01.2021	15:25:07	0	41,875429	3,502187	1,878	291,9204	1,084	84,307	0	1015,62	8,2	10	9,7	1	1	1	1	1	1	1	1	1	0	1	-15,64482	275,509672	311,041131	0
15.01.2021	15:25:08	0	41,756464	3,389193	1,73475	277,1892	1,085	84,3	0	1015,74	8,2	10	9,8	1	1	1	1	1	1	1	1	1	0	1	-15,151515	275,453574	311,268443	0
15.01.2021	15:25:09	0	41,875429	3,27624	1,6965	252,1152	1,078	84,306	0	1015,58	8,2	10	9,7	1	1	1	1	1	1	1	1	1	0	1	-13,6716	275,332316	312,17396	0
15.01.2021	15:25:10	0	41,875429	2,937318	1,6215	293,7348	1,085	84,313	0	1015,62	8,2	10	9,7	1	1	1	1	1	1	1	1	1	0	1	-16,208598	275,39285	309,923618	0
15.01.2021	15:25:11	0	41,637792	3,954082	1,65075	292,6872	1,086	84,319	0	1015,58	8,2	10,1	9,7	1	1	1	1	1	1	1	1	1	0	1	-10,711769	275,500044	315,928518	0
15.01.2021	15:25:12	0	42,113357	3,841086	1,70025	265,752	1,082	84,316	0	1015,7	8,2	10	9,8	1	1	1	1	1	1	1	1	1	0	1	-15,433404	275,362559	310,555349	0
15.01.2021	15:25:13	0	41,6375	3,502166	1,8525	274,41	1,084	84,318	0	1015,56	8,2	10	9,8	1	1	1	1	1	1	1	1	1	0	1	-16,631431	275,506462	310,039296	0
15.01.2021	15:25:14	0	41,875429	3,954059	1,84875	282,4596	1,079	84,304	0	1015,72	8,2	10	9,8	1	1	1	1	1	1	1	1	1	0	1	-14,235377	275,388064	311,874168	0
15.01.2021	15:25:15	0	41,875429	4,631925	1,87425	272,8512	1,084	84,309	0	1015,66	8,2	10	9,7	1	1	1	1	1	1	1	1	1	0	1	-13,6716	275,48561	312,900241	0
15.01.2021	15:25:16	0	41,756464	4,18003	1,9725	293,7312	1,087	84,308	0	1015,54	8,2	10	9,7	1	1	1	1	1	1	1	1	1	0	1	-12,755462	275,488817	313,831584	0
15.01.2021	15:25:17	0	41,875429	2,937318	2,10525	308,8332	1,081	84,313	0	1015,6	8,2	10	9,7	1	1	1	1	1	1	1	1	1	0	1	-15,292459	275,493628	311,317399	0
15.01.2021	15:25:18	0	41,875429	3,615139	2,20425	316,2924	1,084	84,31	0	1015,72	8,2	10	9,8	1	1	1	1	1	1	1	1	1	0	1	-14,940099	275,453574	311,479859	0
15.01.2021	15:25:19	0	41,994393	3,27622	2,337	290,7936	1,084	84,31	0	1015,56	8,2	10	9,8	1	1	1	1	1	1	1	1	1	0	1	-14,869626	275,527337	311,900116	0
15.01.2021	15:25:20	0	41,518536	3,728113	2,21475	282,8196	1,085	84,324	0	1015,68	8,2	10	9,8	1	1	1	1	1	1	1	1	1	0	1	-14,869626	275,330725	310,968405	0
15.01.2021	15:25:21	0	41,994687	3,502166	2,03475	298,332	1,086	84,326	0	1015,66	8,2	10,1	9,8	1	1	1	1	1	1	1	1	1	0	1	-16,631431	275,37212	309,402597	0
15.01.2021	15:25:22	0	41,875722	4,405951	1,85175	302,76	1,083	84,318	0	1015,6	8,2	10,1	9,8	1	1	1	1	1	1	1	1	1	0	1	-16,631431	275,348227	309,28946	0
15.01.2021	15:25:23	0	41,756464	3,163247	1,8135	314,9172	1,08	84,324	0	1015,66	8,2	10	9,8	1	1	1	1	1	1	1	1	1	0	1	-16,913319	275,373713	309,128256	0
15.01.2021	15:25:24	0	42,113357	4,631897	1,7895	314,1	1,079	84,311	0	1015,56	8,3	10	9,8	1	1	1	1	1	1	1	1	1	0	1	-12,614517	275,495231	314,002947	0
15.01.2021	15:25:25	0	41,399571	3,163247	1,94475	301,6764	1,077	84,312	0	1015,64	8,2	10	9,8	1	1	1	1	1	1	1	1	1	0	1	-13,601128	275,412005	312,621836	0
15.01.2021	15:25:26	0	41,875429	2,711355	2,11575	305,3628	1,086	84,321	0	1015,6	8,2	10	9,8	1	1	1	1	1	1	1	1	1	0	1	-15,715292	275,503253	310,940213	0
15.01.2021	15:25:27	0	41,875429	3,050274	2,09325	300,186	1,087	84,324	0	1015,66	8,2	10	9,8	1	1	1	1	1	1	1	1	1	0	1	-15,081043	275,391255	311,043615	0
15.01.2021	15:25:28	0	41,875722	4,067032	1,983	294,426	1,083	84,319	0	1015,62	8,2	10,1	9,8	1	1	1	1	1	1	1	1	1	0	1	-13,107822	275,459977	313,342488	0
15.01.2021	15:25:29	0	41,399571	3,502166	1,99125	289,6092	1,076	84,307	0	1015,52	8,2	10	9,8	1	1	1	1	1	1	1	1	1	0	1	-15,715292	275,375307	310,333832	0
15.01.2021	15:25:30	0	41,875429	3,27624	2,0025	317,7828	1,087	84,316	0	1015,62	8,2	10	9,7	1	1	1	1	1	1	1	1	1	0	1	-13,248767	275,511277	313,444799	0
15.01.2021	15:25:31	0	41,875429	4,292978	2,064	310,7556	1,076	84,29	0	1015,56	8,2	10	9,8	1	1	1	1	1	1	1	1	1	0	1	-12,684989	275,445573	313,697045	0
15.01.2021	15:25:32	0	41,875722	4,180005	2,11575	299,6028	1,084	84,311	0	1015,74	8,2	10,1	9,8	1	1	1	1	1	1	1	1	1	0	1	-17,758985	275,330725	308,079046	0
15.01.2021	15:25:33	0	41,756464	4,067032	2,19225	318,4956	1,081	84,33	0	1015,7	8,2	10	9,8	1	1	1	1	1	1	1	1	1	0	1	-19,450317	275,42159	306,818062	0
15.01.2021	15:25:34	0	41,875722	4,292978	2,32575	306,036	1,084	84,325	0	1015,68	8,2	10,1	9,8	1	1	1	1	1	1	1	1	1	0	1	-16,490486	275,500044	310,1498	0
15.01.2021	15:25:35	0	41,875429	4,292978	2,403	328,878	1,078	84,323	0	1015,62	8,2	10	9,8	1	1	1	1	1	1	1	1	1	0	1	-15,785765	275,351411	310,150201	0
15.01.2021	15:25:36	0	41,518536	4,292978	2,33925	312,4836	1,084	84,329	0	1015,58	8,2	10	9,8	1	1	1	1	1	1	1	1	1	0	1	-13,03735	275,480801	313,511688	0
15.01.2021	15:25:37	0	41,6375	4,292978	2,157	314,4564	1,083	84,329	0	1015,68	8,2	10	9,8	1	1	1	1	1	1	1	1	1	0	1	-17,547569	275,501648	309,100327	0
15.01.2021	15:25:38	0	41,518536	2,937301	2,18325	318,4704	1,084	84,334	0	1015,66	8,2	10	9,8	1	1	1	1	1	1	1	1	1	0	1	-12,403101	275,34027	313,480115	0
15.01.2021	15:25:39	0	41,6375	4,744871	2,31075	299,772	1,085	84,326	0	1015,56	8,3	10	9,8	1	1	1	1	1	1	1	1	1	0	1	-17,477097	275,456775	308,958036	0
15.01.2021	15:25:40	0	42,113357	4,744871	2,4795	293,3748	1,083	84,319	0	1015,52	8,3	10	9,8	1	1	1	1	1	1	1	1	1	0	1	-15,292459	275,495231	311,325005	0
15.01.2021	15:25:41	0	41,875429	4,631897	2,535	284,4792	1,079	84,321	0	1015,6	8,2	10	9,8	1	1	1	1	1	1	1	1	1	0	1	-18,534179	275,397637	307,620713	0
15.01.2021	15:25:42	0	41,518536	2,937301	2,55075	308,2356	1,082	84,334	0	1015,76	8,2	10	9,8	1	1	1	1	1	1	1	1	1	0	1	-19,097956	275,310061	306,642266	0
15.01.2021	15:25:43	0	41,518536	4,744871	2,58075	304,632	1,085	84,33	0	1015,72	8,2	10	9,8	1	1	1	1	1	1	1	1	1	0	1	-13,107822	275,427983	313,190848	0
15.01.2021	15:25:44	0	41,518536	3,502166	2,65875	300,24	1,085	84,329	0	1015,68	8,2	10	9,8	1	1	1	1	1	1	1	1	1	0	1	-15,574348	275,509672	311,111604	0
15.01.2021	15:25:45	0	41,875429	4,518924	2,69775	306,8676	1,084	84,326	0	1015,74	8,2	10	9,8	1	1	1	1	1	1	1	1	1	0	1	-17,336152	275,373713	308,705423	0
15.01.2021	15:25:46	0	41,399571	3,502166	2,679	306,918	1,088	84,343	0	1015,74	8,2	10	9,8	1	1	1	1	1	1	1	1	1	0	1	-11,134602	275,49844	315,498077	0
15.01.2021	15:25:47	0	41,875722	4,744871	2,6325	314,8128	1,082	84,326	0	1015,54	8,2	10,1	9,8	1	1	1	1	1	1	1	1	1	0	1	-16,138125	275,42159	310,130253	0
15.01.2021	15:25:48	0	41,399571	3,050274	2,67075	319,9176	1,08	84,326	0	1015,52	8,2	10	9,8	1	1	1	1	1	1	1	1	1	0	1	-18,111346	275,353003	307,832159	0
15.01.2021	15:25:49	0	41,994393	4,744871	2,67975	306,1548	1,087	84,346	0	1015,7	8,2	10	9,8	1	1	1	1	1	1	1	1	1	0	1	-13,248767	275,357781	312,717358	0
15.01.2021	15:25:50	0	41,280607	3,050274	2,55975	306,1728	1,083	84,335	0	1015,68	8,2	10	9,8	1	1	1	1	1	1	1	1	1	0	1	-16,913319	275,316417	308,856985	0
15.01.2021	15:25:51	0	41,756464	3,841086	2,3565	320,0976	1,082	84,333	0	1015,58	8,3	10	9,8	1	1	1	1	1	1	1	1	1	0	1	-17,124736	275,391255	308,999922	0
15.01.2021	15:25:52	0	41,518536	4,292978	2,16675	307,1592	1,086	84,339	0	1015,68	8,2	10	9,8	1	1	1	1	1	1	1	1	1	0	1	-15,433404	275,327545	310,389572	0
15.01.2021	15:25:53	0	41,518536	4,631897	2,07075	306,8424	1,086	84,342	0	1015,56	8,3	10	9,8	1	1	1	1	1	1	1	1	1	0	1	-11,980268	275,443973	314,394185	0
15.01.2021	15:25:54	0	41,399571	3,728113	2,058	297,234	1,08	84,337	0	1015,46	8,2	10	9,8	1	1	1	1	1	1	1	1	1	0	1	-12,684989	275,511277	314,008576	0
15.01.2021	15:25:55	0	41,042679	2,711355	2,07675	296,4924	1,086	84,354	0	1015,64	8,2	10	9,8	1	1	1	1	1	1	1	1	1	0	1	-16,138125	275,500044	310,502161	0
15.01.2021	15:25:56	0	41,6375	2,937301	2,06925	305,7588	1,078	84,334	0	1015,62	8,2	10	9,8	1	1	1	1	1	1	1	1	1	0	1	-13,883016	275,34027	312,0002	0
15.01.2021	15:25:57	0	41,399571	5,196763	2,0295	314,3808	1,086	84,342	0	1015,7	8,3	10	9,8	1	1	1	1	1	1	1	1	1	0	1	-14,65821	275,512883	312,04297	0
15.01.2021	15:25:58	0	41,399571	4,292978	2,058	311,742	1,084	84,327	0	1015,72	8,2	10	9,8	1	1	1	1	1	1	1	1	1	0	1	-13,953488	275,464781	312,519594	0
15.01.2021	15:25:59	0	41,6375	3,502166	2,14575	317,0772	1,079	84,354	0	1015,74	8,1	10	9,8	1	1	1	1	1	1	1	1	1	0	1	-14,65821	275,474391	311,860437	0
15.01.2021	15:26:00	0	41,161643	2,485408	2,124	322,7184	1,086	84,344	0	1015,64	8,3	10	9,8	1	1	1	1	1	1	1	1	1	0	1	-19,168428	275,450373	307,236358	0
15.01.2021	15:26:01	0	41,161643	2,485408	2,124	322,7184	1,086	84,344	0	1015,64	8,3	10	9,8	1	1	1	1	1	1	1	1	1	0	1	-19,238901	275,313239	306,516361	0
15.01.2021	15:26:02	0	41,518536	4,518924	2,25075	315,9288	1,082	84,339	0	1015,8	8,2	10	9,8	1	1	1	1	1	1	1	1	1	0	1	-16,842847	275,466382	309,637828	0
15.01.2021	15:26:03	0	40,923714	2,259462	2,3085	317,7288	1,079	84,336	0	1015,54	8,2	10	9,8	1	1	1	1	1	1	1	1	1	0	1	-18,816068	275,373713	307,225508	0
15.01.2021	15:26:04	0	41,399571	4,518924	2,43225	311,4648	1,081	84,33	0	1015,7	8,3	10	9,8	1	1	1	1	1	1	1	1	1	0	1	-11,627907	275,332316	314,217653	0
15.01.2021	15:26:05	0	41,399571	3,502166	2,562	311,0364	1,081	84,326	0	1015,64	8,3	10	9,8	1	1	1	1	1	1	1	1	1	0	1	-15,574348	275,376902	310,482327	0
15.01.2021	15:26:06	0	41,399571	4,292978	2,6625	306,2232	1,081	84,314	0	1015,5	8,2	10	9,8	1	1	1	1	1	1	1	1	1	0	1	-10,852713	275,512883	315,848466	0
15.01.2021	15:26:07	0	41,280607	3,27622	2,71875	307,4508	1,081	84,334	0	1015,62	8,2	10	9,8	1	1	1	1	1	1	1	1	1	0	1	-15,64482	275,443973	310,729632	0
15.01.2021	15:26:08	0	41,280607	3,954059	2,817	311,0076	1,083	84,326	0	1015,72	8,2	10	9,8	1	1	1	1	1	1	1	1	1	0	1	-12,403101	275,313239	313,352161	0
15.01.2021	15:26:09	0	41,6375	4,518924	2,94525	320,4288	1,085	84,317	0	1015,68	8,3	10	9,8	1	1	1	1	1	1	1	1	1	0	1	-14,094433	275,458376	312,348288	0
15.01.2021	15:26:10	0	41,6375	4,180005	2,946	329,6592	1,086	84,319	0	1015,8	8,2	10	9,8	1	1	1	1	1	1	1	1	1	0	1	-13,601128	275,503253	313,054378	0
15.01.2021	15:26:11	0	41,399571	4,405951	2,8755	321,4584	1,079	84,313	0	1015,64	8,2	10	9,8	1	1	1	1	1	1	1	1	1	0	1	-16,631431	275,455174	309,796114	0
15.01.2021	15:26:12	0	41,518536	2,485408	2,8425	321,1092	1,08	84,312	0	1015,56	8,3	10	9,8	1	1	1	1	1	1	1	1	1	0	1	-15,997181	275,514488	310,711614	0
15.01.2021	15:26:13	0	41,280607	3,163247	2,74125	326,7216	1,083	84,32	0	1015,56	8,2	10	9,8	1	1	1	1	1	1	1	1	1	0	1	-13,107822	275,348227	312,813068	0
15.01.2021	15:26:14	0	41,6375	4,518924	2,66025	317,0664	1,079	84,301	0	1015,64	8,2	10	9,8	1	1	1	1	1	1	1	1	1	0	1	-17,618041	275,456775	308,817092	0
15.01.2021	15:26:15	0	41,161643	4,631897	2,62425	312,444	1,088	84,309	0	1015,62	8,3	10	9,8	1	1	1	1	1	1	1	1	1	0	1	-14,094433	275,335497	311,766187	0
15.01.2021	15:26:16	0	41,161643	3,502166	2,56575	305,7804	1,086	84,31	0	1015,66	8,2	10	9,8	1	1	1	1	1	1	1	1	1	0	1	-10,923185	275,349819	315,005243	0
15.01.2021	15:26:17	0	41,280607	3,954059	2,50425	310,9896	1,078	84,303	0	1015,6	8,2	10	9,8	1	1	1	1	1	1	1	1	1	0	1	-13,883016	275,447173	312,506602	0
15.01.2021	15:26:18	0	41,518536	4,744871	2,3775	302,1012	1,086	84,303	0	1015,54	8,3	10	9,8	1	1	1	1	1	1	1	1	1	0	1	-11,839323	275,356188	314,119261	0
15.01.2021	15:26:19	0	41,161643	2,711355	2,163	303,9192	1,084	84,32	0	1015,72	8,3	10	9,8	1	1	1	1	1	1	1	1	1	0	1	-13,460183	275,440774	312,899107	0
15.01.2021	15:26:20	0	41,280607	3,954059	2,0805	304,002	1,082	84,314	0	1015,54	8,3	10	9,8	1	1	1	1	1	1	1	1	1	0	1	-15,362932	275,327545	310,460044	0
15.01.2021	15:26:21	0	41,280607	4,067032	2,1495	316,1736	1,084	84,323	0	1015,66	8,3	10	9,8	1	1	1	1	1	1	1	1	1	0	1	-10,077519	275,412005	316,145444	0
15.01.2021	15:26:22	0	41,280607	3,389193	2,25	318,7332	1,078	84,307	0	1015,66	8,3	10	9,8	1	1	1	1	1	1	1	1	1	0	1	-16,138125	275,504857	310,52499	0
15.01.2021	15:26:23	0	41,042679	3,050274	2,3655	305,0172	1,083	84,336	0	1015,72	8,3	10	9,8	1	1	1	1	1	1	1	1	1	0	1	-14,094433	275,410408	312,120965	0
15.01.2021	15:26:24	0	40,923714	2,711355	2,4465	311,7708	1,08	84,315	0	1015,76	8,2	10	9,8	1	1	1	1	1	1	1	1	1	0	1	-17,26568	275,321185	308,527193	0
15.01.2021	15:26:25	0	41,518536	4,518924	2,4135	315,1368	1,08	84,316	0	1015,62	8,2	10	9,8	1	1	1	1	1	1	1	1	1	0	1	-18,040874	275,445573	308,341161	0
15.01.2021	15:26:26	0	41,399571	3,954059	2,3685	321,1488	1,082	84,329	0	1015,58	8,2	10	9,8	1	1	1	1	1	1	1	1	1	0	1	-15,433404	275,500044	311,206883	0
15.01.2021	15:26:27	0	41,399571	3,728113	2,38875	325,5876	1,081	84,343	0	1015,52	8,2	10	9,8	1	1	1	1	1	1	1	1	1	0	1	-13,03735	275,426384	313,253746	0
15.01.2021	15:26:28	0	40,923714	3,050274	2,502	316,7136	1,082	84,349	0	1015,68	8,2	10	9,8	1	1	1	1	1	1	1	1	1	0	1	-15,997181	275,324365	309,810742	0
15.01.2021	15:26:29	0	41,280607	3,050274	2,64375	302,8644	1,082	84,342	0	1015,66	8,3	10	9,8	1	1	1	1	1	1	1	1	1	0	1	-11,980268	275,373713	314,061308	0
15.01.2021	15:26:30	0	41,042679	4,292978	2,81175	311,0256	1,082	84,357	0	1015,64	8,3	10	9,8	1	1	1	1	1	1	1	1	1	0	1	-13,107822	275,506462	313,562905	0
15.01.2021	15:26:31	0	41,042679	2,824328	2,89725	299,1276	1,081	84,328	0	1015,56	8,2	10	9,8	1	1	1	1	1	1	1	1	1	0	1	-16,842847	275,443973	309,531605	0
15.01.2021	15:26:32	0	41,518536	4,292978	2,91375	313,6032	1,087	84,352	0	1015,56	8,3	10	9,8	1	1	1	1	1	1	1	1	1	0	1	-17,26568	275,503253	309,389825	0
15.01.2021	15:26:33	0	41,161643	3,954059	2,87025	322,2504	1,081	84,349	0	1015,66	8,2	10	9,8	1	1	1	1	1	1	1	1	1	0	1	-19,661734	275,450373	306,743053	0
15.01.2021	15:26:34	0	41,042679	4,180005	2,7525	322,2684	1,085	84,363	0	1015,68	8,3	10	9,8	1	1	1	1	1	1	1	1	1	0	1	-14,728682	275,506462	311,942045	0
15.01.2021	15:26:35	0	41,280607	4,857844	2,68575	305,0856	1,078	84,339	0	1015,62	8,2	10	9,8	1	1	1	1	1	1	1	1	1	0	1	-12,121212	275,461578	314,336688	0
15.01.2021	15:26:36	0	41,042679	4,631897	2,48025	313,5996	1,087	84,365	0	1015,52	8,3	10	9,8	1	1	1	1	1	1	1	1	1	0	1	-15,503876	275,474391	311,014771	0
15.01.2021	15:26:37	0	41,280607	4,180005	2,391	305,0676	1,088	84,364	0	1015,7	8,3	10	9,8	1	1	1	1	1	1	1	1	1	0	1	-18,745595	275,34027	307,137621	0
15.01.2021	15:26:38	0	40,566821	3,27622	2,43975	312,138	1,085	84,353	0	1015,62	8,2	10	9,8	1	1	1	1	1	1	1	1	1	0	1	-14,940099	275,501648	311,707797	0
15.01.2021	15:26:39	0	41,399571	4,518924	2,4825	307,6128	1,084	84,357	0	1015,68	8,3	10	9,8	1	1	1	1	1	1	1	1	1	0	1	-14,164905	275,447173	312,224713	0
15.01.2021	15:26:40	0	41,042679	4,518924	2,4735	308,6352	1,086	84,372	0	1015,7	8,3	10	9,8	1	1	1	1	1	1	1	1	1	0	1	-14,940099	275,501648	311,707797	0
15.01.2021	15:26:41	0	41,280607	4,744871	2,517	312,5088	1,094	84,38	0	1015,7	8,3	10	9,8	1	1	1	1	1	1	1	1	1	0	1	-15,362932	275,442374	311,003939	0
15.01.2021	15:26:42	0	41,042679	2,824328	2,59425	314,0892	1,084	84,361	0	1015,7	8,3	10	9,8	1	1	1	1	1	1	1	1	1	0	1	-18,88654	275,511277	307,807025	0
15.01.2021	15:26:43	0	41,042679	4,405951	2,71575	315,972	1,086	84,373	0	1015,6	8,3	10	9,8	1	1	1	1	1	1	1	1	1	0	1	-15,997181	275,405618	310,195521	0
15.01.2021	15:26:44	0	41,280607	5,08379	2,79675	314,4348	1,088	84,38	0	1015,72	8,3	10	9,8	1	1	1	1	1	1	1	1	1	0	1	-13,389711	275,333906	312,463379	0
15.01.2021	15:26:45	0	41,042679	3,954059	2,74725	312,4908	1,084	84,369	0	1015,62	8,3	10	9,8	1	1	1	1	1	1	1	1	1	0	1	-15,292459	275,450373	311,112327	0
15.01.2021	15:26:46	0	40,923714	2,598381	2,76675	314,0316	1,085	84,377	0	1015,54	8,3	10	9,8	1	1	1	1	1	1	1	1	1	0	1	-11,980268	275,368932	314,038665	0
15.01.2021	15:26:47	0	41,042679	4,180005	2,913	310,6656	1,085	84,38	0	1015,64	8,2	10	9,8	1	1	1	1	1	1	1	1	1	0	1	-16,27907	275,506462	310,391657	0
15.01.2021	15:26:48	0	41,042679	2,485408	2,85675	301,5288	1,082	84,386	0	1015,48	8,3	10	9,8	1	1	1	1	1	1	1	1	1	0	1	-18,111346	275,391255	308,013312	0
15.01.2021	15:26:49	0	40,923714	3,841086	2,7645	303,2208	1,083	84,38	0	1015,64	8,2	10	9,8	1	1	1	1	1	1	1	1	1	0	1	-14,164905	275,514488	312,54389	0
15.01.2021	15:26:50	0	41,042679	3,389193	2,72775	298,3212	1,088	84,375	0	1015,62	8,3	10	9,8	1	1	1	1	1	1	1	1	1	0	1	-20,5074	275,384874	305,587036	0
15.01.2021	15:26:51	0	41,280607	4,857844	2,6385	307,224	1,089	84,38	0	1015,8	8,3	10	9,8	1	1	1	1	1	1	1	1	1	0	1	-16,208598	275,316417	309,561706	0
15.01.2021	15:26:52	0	41,042679	3,502166	2,66925	295,1928	1,09	84,381	0	1015,64	8,3	10	9,8	1	1	1	1	1	1	1	1	1	0	1	-15,010571	275,450373	311,394216	0
15.01.2021	15:26:53	0	40,566821	2,937301	2,7255	300,8376	1,085	84,374	0	1015,64	8,3	10	9,8	1	1	1	1	1	1	1	1	1	0	1	-17,26568	275,329135	308,564823	0
15.01.2021	15:26:54	0	41,161643	4,518924	2,80575	302,868	1,085	84,376	0	1015,58	8,3	10	9,8	1	1	1	1	1	1	1	1	1	0	1	-10,42988	275,442374	315,936991	0
15.01.2021	15:26:55	0	40,685786	4,631897	2,79675	309,2472	1,088	84,362	0	1015,66	8,2	10	9,8	1	1	1	1	1	1	1	1	1	0	1	-8,80902	275,487213	317,770422	0
15.01.2021	15:26:56	0	41,161643	4,518924	2,757	314,478	1,087	84,372	0	1015,66	8,3	10	9,8	1	1	1	1	1	1	1	1	1	0	1	-14,023961	275,461578	312,43394	0
15.01.2021	15:26:57	0	40,447857	3,050274	2,6205	312,2172	1,084	84,365	0	1015,58	8,2	10	9,8	1	1	1	1	1	1	1	1	1	0	1	-20,225511	275,359373	305,748156	0
15.01.2021	15:26:58	0	40,923714	4,518924	2,418	321,4296	1,089	84,376	0	1015,56	8,3	10	9,8	1	1	1	1	1	1	1	1	1	0	1	-13,03735	275,432778	313,284047	0
15.01.2021	15:26:59	0	40,685786	2,824328	2,21625	315,18	1,088	84,368	0	1015,68	8,1	10	9,8	1	1	1	1	1	1	1	1	1	0	1	-12,614517	275,327545	313,208458	0
15.01.2021	15:27:00	0	40,923714	2,937301	2,21625	312,8796	1,088	84,378	0	1015,66	8,3	10	9,8	1	1	1	1	1	1	1	1	1	0	1	-12,614517	275,466382	313,866157	0
15.01.2021	15:27:01	0	40,923714	2,937301	2,21625	312,8796	1,088	84,378	0	1015,66	8,3	10	9,8	1	1	1	1	1	1	1	1	1	0	1	-13,883016	275,319595	311,902333	0
15.01.2021	15:27:02	0	40,566821	4,518924	2,2665	307,5264	1,084	84,375	0	1015,64	8,3	10	9,8	1	1	1	1	1	1	1	1	1	0	1	-15,503876	275,495231	311,113588	0
15.01.2021	15:27:03	0	40,80475	3,389193	2,35875	305,3592	1,085	84,372	0	1015,68	8,3	10	9,8	1	1	1	1	1	1	1	1	1	0	1	-16,913319	275,329135	308,917184	0
15.01.2021	15:27:04	0	41,161643	4,405951	2,45475	309,8412	1,095	84,365	0	1015,58	8,3	10	9,8	1	1	1	1	1	1	1	1	1	0	1	-14,65821	275,386469	311,44378	0
15.01.2021	15:27:05	0	40,566821	2,824328	2,442	303,2028	1,091	84,373	0	1015,5	8,2	10	9,8	1	1	1	1	1	1	1	1	1	0	1	-12,544045	275,500044	314,096242	0
15.01.2021	15:27:06	0	40,566821	3,163247	2,4435	308,4732	1,086	84,374	0	1015,72	8,3	10	9,8	1	1	1	1	1	1	1	1	1	0	1	-14,799154	275,463179	311,666337	0
15.01.2021	15:27:07	0	40,566821	3,954059	2,37525	311,0292	1,088	84,375	0	1015,7	8,3	10	9,8	1	1	1	1	1	1	1	1	1	0	1	-10,500352	275,508067	316,177987	0
15.01.2021	15:27:08	0	40,566821	2,598381	2,37975	314,8992	1,086	84,375	0	1015,68	8,3	10	9,8	1	1	1	1	1	1	1	1	1	0	1	-18,040874	275,408812	308,166958	0
15.01.2021	15:27:09	0	40,80475	4,292978	2,33475	323,6652	1,089	84,353	0	1015,7	8,2	10	9,8	1	1	1	1	1	1	1	1	1	0	1	-15,503876	275,467984	310,984392	0
15.01.2021	15:27:10	0	40,685786	3,050274	2,14425	331,5276	1,084	84,367	0	1015,38	8,3	10	9,8	1	1	1	1	1	1	1	1	1	0	1	-16,772375	275,504857	309,890741	0
15.01.2021	15:27:11	0	40,923714	4,067032	1,869	318,1608	1,085	84,371	0	1015,6	8,3	10	9,8	1	1	1	1	1	1	1	1	1	0	1	-17,829457	275,484007	308,734782	0
15.01.2021	15:27:12	0	40,923714	4,292978	1,7985	319,2804	1,091	84,381	0	1015,68	8,3	10	9,8	1	1	1	1	1	1	1	1	1	0	1	-12,262156	275,49844	314,370522	0
15.01.2021	15:27:13	0	40,685786	5,196763	1,82325	319,2192	1,09	84,376	0	1015,52	8,3	10	9,8	1	1	1	1	1	1	1	1	1	0	1	-15,292459	275,453574	311,127499	0
15.01.2021	15:27:14	0	40,567106	3,502166	1,959	318,4812	1,09	84,381	0	1015,62	8,3	10,1	9,8	1	1	1	1	1	1	1	1	1	0	1	-12,684989	275,511277	314,008576	0
15.01.2021	15:27:15	0	40,685786	2,937301	2,097	321,1488	1,09	84,381	0	1015,62	8,3	10	9,8	1	1	1	1	1	1	1	1	1	0	1	-14,587738	275,364152	311,408558	0
15.01.2021	15:27:16	0	40,686071	2,711355	2,13675	306,072	1,096	84,379	0	1015,74	8,3	10,1	9,8	1	1	1	1	1	1	1	1	1	0	1	-17,970402	275,495231	308,647063	0
15.01.2021	15:27:17	0	40,685786	4,631897	2,1045	312,8472	1,09	84,389	0	1015,64	8,2	10	9,8	1	1	1	1	1	1	1	1	1	0	1	-15,221987	275,333906	310,631102	0
15.01.2021	15:27:18	0	40,80475	2,824328	2,05125	312,8796	1,084	84,383	0	1015,62	8,3	10	9,8	1	1	1	1	1	1	1	1	1	0	1	-15,785765	275,504857	310,877351	0
15.01.2021	15:27:19	0	40,685786	3,841086	2,0205	321,4836	1,089	84,373	0	1015,52	8,3	10	9,8	1	1	1	1	1	1	1	1	1	0	1	-21,212121	275,472789	305,29893	0
15.01.2021	15:27:20	0	40,923714	3,502166	1,94925	333,2016	1,09	84,382	0	1015,56	8,3	10	9,8	1	1	1	1	1	1	1	1	1	0	1	-11,909796	275,34027	313,97342	0
15.01.2021	15:27:21	0	40,80475	4,631897	1,8585	303,8796	1,086	84,384	0	1015,52	8,3	10	9,8	1	1	1	1	1	1	1	1	1	0	1	-19,027484	275,447173	307,362134	0
15.01.2021	15:27:22	0	40,923714	4,405951	1,8345	313,2828	1,091	84,383	0	1015,72	8,3	10	9,8	1	1	1	1	1	1	1	1	1	0	1	-12,614517	275,504857	314,048599	0
15.01.2021	15:27:23	0	40,566821	2,711355	1,78125	306,8964	1,091	84,378	0	1015,64	8,2	10	9,8	1	1	1	1	1	1	1	1	1	0	1	-18,393235	275,450373	308,011552	0
15.01.2021	15:27:24	0	40,447857	2,711355	1,76775	313,6644	1,091	84,384	0	1015,76	8,2	10	9,8	1	1	1	1	1	1	1	1	1	0	1	-16,420014	275,329135	309,410489	0
15.01.2021	15:27:25	0	40,566821	3,389193	1,737	313,614	1,086	84,365	0	1015,62	8,3	10	9,8	1	1	1	1	1	1	1	1	1	0	1	-16,772375	275,455174	309,65517	0
15.01.2021	15:27:26	0	40,685786	3,954059	1,6785	317,412	1,088	84,389	0	1015,62	8,3	10	9,8	1	1	1	1	1	1	1	1	1	0	1	-13,812544	275,376902	312,244131	0
15.01.2021	15:27:27	0	40,447857	4,631897	1,7205	322,2468	1,088	84,377	0	1015,56	8,3	10	9,8	1	1	1	1	1	1	1	1	1	0	1	-16,138125	275,504857	310,52499	0
15.01.2021	15:27:28	0	40,447857	2,824328	1,8585	331,9704	1,088	84,376	0	1015,64	8,2	10	9,8	1	1	1	1	1	1	1	1	1	0	1	-14,023961	275,34027	311,859255	0
15.01.2021	15:27:29	0	40,685786	3,389193	1,89825	325,1268	1,082	84,371	0	1015,64	8,2	10	9,8	1	1	1	1	1	1	1	1	1	0	1	-17,688513	275,383279	308,398369	0
15.01.2021	15:27:30	0	40,685786	3,954059	1,8765	320,7276	1,084	84,367	0	1015,46	8,3	10	9,8	1	1	1	1	1	1	1	1	1	0	1	-16,560958	275,329135	309,269544	0
15.01.2021	15:27:31	0	40,80475	4,744871	1,76625	313,5888	1,086	84,366	0	1015,66	8,2	10	9,8	1	1	1	1	1	1	1	1	1	0	1	-15,081043	275,373713	310,960533	0
15.01.2021	15:27:32	0	40,566821	3,163247	1,7145	302,7816	1,086	84,371	0	1015,68	8,3	10	9,8	1	1	1	1	1	1	1	1	1	0	1	-16,560958	275,324365	309,246964	0
15.01.2021	15:27:33	0	40,685786	4,631897	1,72575	315,9324	1,087	84,382	0	1015,54	8,2	10	9,8	1	1	1	1	1	1	1	1	1	0	1	-15,292459	275,394446	310,847314	0
15.01.2021	15:27:34	0	40,328893	3,502166	1,74225	299,7432	1,089	84,385	0	1015,68	8,3	10	9,8	1	1	1	1	1	1	1	1	1	0	1	-13,248767	275,325954	312,566682	0
15.01.2021	15:27:35	0	40,328893	2,824328	1,78275	316,2348	1,092	84,383	0	1015,62	8,3	10	9,8	1	1	1	1	1	1	1	1	1	0	1	-19,450317	275,445573	306,931718	0
15.01.2021	15:27:36	0	40,328893	3,841086	1,803	292,968	1,09	84,379	0	1015,7	8,3	10	9,8	1	1	1	1	1	1	1	1	1	0	1	-12,614517	275,500044	314,025769	0
15.01.2021	15:27:37	0	40,209929	3,163247	1,77375	316,2888	1,092	84,374	0	1015,56	8,3	10	9,8	1	1	1	1	1	1	1	1	1	0	1	-16,138125	275,455174	310,28942	0
15.01.2021	15:27:38	0	40,21021	2,711355	1,743	324,072	1,089	84,408	0	1015,64	8,2	10,1	9,8	1	1	1	1	1	1	1	1	1	0	1	-16,772375	275,467984	309,715893	0
15.01.2021	15:27:39	0	40,447857	4,631897	1,72125	312,4224	1,088	84,401	0	1015,56	8,3	10	9,8	1	1	1	1	1	1	1	1	1	0	1	-17,124736	275,451973	309,287636	0
15.01.2021	15:27:40	0	40,685786	4,744871	1,65825	321,444	1,091	84,398	0	1015,7	8,2	10	9,8	1	1	1	1	1	1	1	1	1	0	1	-15,081043	275,333906	310,772047	0
15.01.2021	15:27:41	0	40,328893	4,067032	1,68075	323,6724	1,091	84,401	0	1015,74	8,3	10	9,8	1	1	1	1	1	1	1	1	1	0	1	-15,081043	275,429581	311,225202	0
15.01.2021	15:27:42	0	40,328893	4,518924	1,632	322,5924	1,086	84,407	0	1015,66	8,2	10	9,8	1	1	1	1	1	1	1	1	1	0	1	-11,698379	275,329135	314,132124	0
15.01.2021	15:27:43	0	40,328893	2,937301	1,68375	309,2652	1,093	84,401	0	1015,64	8,2	10	9,8	1	1	1	1	1	1	1	1	1	0	1	-18,463707	275,439175	307,888003	0
15.01.2021	15:27:44	0	40,328893	3,502166	1,6965	299,4336	1,094	84,399	0	1015,48	8,2	10	9,8	1	1	1	1	1	1	1	1	1	0	1	-15,785765	275,319595	309,999585	0
15.01.2021	15:27:45	0	40,090964	3,389193	1,6995	328,6296	1,083	84,406	0	1015,58	8,3	10	9,8	1	1	1	1	1	1	1	1	1	0	1	-15,856237	275,456775	310,578896	0
15.01.2021	15:27:46	0	40,328893	2,711355	1,6185	326,2536	1,09	84,404	0	1015,62	8,3	10	9,8	1	1	1	1	1	1	1	1	1	0	1	-17,195208	275,316417	308,575096	0
15.01.2021	15:27:47	0	40,328893	3,841086	1,66575	314,4564	1,092	84,415	0	1015,72	8,3	10	9,8	1	1	1	1	1	1	1	1	1	0	1	-13,6716	275,389659	312,445502	0
15.01.2021	15:27:48	0	40,447857	3,050274	1,8615	307,2024	1,092	84,422	0	1015,64	8,3	10	9,8	1	1	1	1	1	1	1	1	1	0	1	-17,618041	275,319595	308,167308	0
15.01.2021	15:27:49	0	40,44814	2,372435	1,8765	304,218	1,093	84,41	0	1015,44	8,2	10,1	9,8	1	1	1	1	1	1	1	1	1	0	1	-17,195208	275,388064	308,914338	0
15.01.2021	15:27:50	0	39,853036	2,711355	1,8225	323,6688	1,092	84,409	0	1015,72	8,3	10	9,8	1	1	1	1	1	1	1	1	1	0	1	-11,839323	275,500044	314,800963	0
15.01.2021	15:27:51	0	39,972	3,27622	1,74	314,4276	1,086	84,416	0	1015,64	8,3	10	9,8	1	1	1	1	1	1	1	1	1	0	1	-15,503876	275,492024	311,098377	0
15.01.2021	15:27:52	0	40,566821	5,196763	1,6965	325,1844	1,096	84,428	0	1015,56	8,3	10	9,8	1	1	1	1	1	1	1	1	1	0	1	-16,208598	275,479199	310,332842	0
15.01.2021	15:27:53	0	40,328893	4,067032	1,605	327,114	1,096	84,439	0	1015,68	8,2	10	9,8	1	1	1	1	1	1	1	1	1	0	1	-14,023961	275,488817	312,563085	0
15.01.2021	15:27:54	0	40,566821	4,292978	1,5375	334,98	1,095	84,426	0	1015,64	8,2	10	9,8	1	1	1	1	1	1	1	1	1	0	1	-13,389711	275,480801	313,159328	0
15.01.2021	15:27:55	0	40,329175	2,711355	1,62825	316,2492	1,095	84,436	0	1015,6	8,2	10,1	9,8	1	1	1	1	1	1	1	1	1	0	1	-15,081043	275,362559	310,907709	0
15.01.2021	15:27:56	0	40,21021	4,744871	1,848	321,4548	1,093	84,44	0	1015,62	8,3	10,1	9,8	1	1	1	1	1	1	1	1	1	0	1	-18,957012	275,467984	307,531256	0
15.01.2021	15:27:57	0	40,447857	4,631897	1,97775	321,3972	1,098	84,446	0	1015,58	8,2	10	9,8	1	1	1	1	1	1	1	1	1	0	1	-16,349542	275,48561	310,222299	0
15.01.2021	15:27:58	0	40,209929	2,485408	1,95525	315,54	1,091	84,437	0	1015,62	8,2	10	9,8	1	1	1	1	1	1	1	1	1	0	1	-14,094433	275,362559	311,89432	0
15.01.2021	15:27:59	0	40,44814	4,067032	1,88625	338,3352	1,096	84,437	0	1015,66	8,2	10,1	9,8	1	1	1	1	1	1	1	1	1	0	1	-12,544045	275,487213	314,035397	0
15.01.2021	15:28:00	0	40,090964	3,163247	1,803	322,2	1,096	84,454	0	1015,6	8,2	10	9,8	1	1	1	1	1	1	1	1	1	0	1	-15,926709	275,466382	310,553966	0
15.01.2021	15:28:01	0	40,090964	3,163247	1,803	322,2	1,096	84,454	0	1015,6	8,2	10	9,8	1	1	1	1	1	1	1	1	1	0	1	-12,403101	275,333906	313,449989	0
15.01.2021	15:28:02	0	40,209929	4,067081	2,025	335,2608	1,096	84,44	0	1015,6	8,3	10	9,6	1	1	1	1	1	1	1	1	1	0	1	-16,701903	275,447173	309,687715	0
15.01.2021	15:28:03	0	40,209929	4,744871	2,18625	302,4612	1,099	84,456	0	1015,52	8,2	10	9,8	1	1	1	1	1	1	1	1	1	0	1	-18,25229	275,514488	308,456504	0
15.01.2021	15:28:04	0	40,328893	2,937301	2,4285	306,1188	1,098	84,467	0	1015,66	8,2	10	9,8	1	1	1	1	1	1	1	1	1	0	1	-15,574348	275,440774	310,784942	0
15.01.2021	15:28:05	0	40,090964	2,485408	2,42925	324,4068	1,091	84,453	0	1015,62	8,3	10	9,8	1	1	1	1	1	1	1	1	1	0	1	-12,755462	275,514488	313,953333	0
15.01.2021	15:28:06	0	39,972	3,954059	2,403	313,2144	1,095	84,452	0	1015,42	8,2	10	9,8	1	1	1	1	1	1	1	1	1	0	1	-16,208598	275,477596	310,325244	0
15.01.2021	15:28:07	0	40,209929	4,518924	2,29875	333,4464	1,09	84,464	0	1015,64	8,2	10	9,8	1	1	1	1	1	1	1	1	1	0	1	-12,825934	275,442374	313,540937	0
15.01.2021	15:28:08	0	39,853036	3,27622	2,21625	315,9612	1,095	84,469	0	1015,64	8,3	10	9,8	1	1	1	1	1	1	1	1	1	0	1	-19,802678	275,319595	305,982671	0
15.01.2021	15:28:09	0	39,853036	4,970817	2,1045	319,2552	1,098	84,47	0	1015,62	8,2	10	9,8	1	1	1	1	1	1	1	1	1	0	1	-14,376321	275,381685	311,703008	0
15.01.2021	15:28:10	0	40,329175	4,405951	2,1495	312,12	1,101	84,464	0	1015,74	8,3	10,1	9,8	1	1	1	1	1	1	1	1	1	0	1	-16,138125	275,506462	310,532602	0
15.01.2021	15:28:11	0	40,447857	4,292978	2,21175	319,5504	1,097	84,471	0	1015,58	8,2	10	9,8	1	1	1	1	1	1	1	1	1	0	1	-11,627907	275,402425	314,549669	0
15.01.2021	15:28:12	0	39,972	2,824328	2,127	307,6128	1,104	84,477	0	1015,74	8,2	10	9,8	1	1	1	1	1	1	1	1	1	0	1	-16,631431	275,508067	310,046908	0
15.01.2021	15:28:13	0	39,734071	2,485408	2,0295	314,046	1,096	84,461	0	1015,6	8,2	10	9,8	1	1	1	1	1	1	1	1	1	0	1	-13,601128	275,440774	312,758162	0
15.01.2021	15:28:14	0	40,091245	3,841086	2,118	321,1488	1,102	84,47	0	1015,58	8,2	10,1	9,8	1	1	1	1	1	1	1	1	1	0	1	-17,829457	275,503253	308,826048	0
15.01.2021	15:28:15	0	39,734071	2,937301	2,202	327,1212	1,102	84,49	0	1015,7	8,3	10	9,8	1	1	1	1	1	1	1	1	1	0	1	-16,983791	275,469585	309,51207	0
15.01.2021	15:28:16	0	39,97228	4,518924	2,28375	315,9072	1,093	84,474	0	1015,44	8,2	10,1	9,8	1	1	1	1	1	1	1	1	1	0	1	-13,03735	275,463179	313,428141	0
15.01.2021	15:28:17	0	39,734071	2,937301	2,256	320,4576	1,102	84,476	0	1015,74	8,2	10	9,8	1	1	1	1	1	1	1	1	1	0	1	-16,27907	275,332316	309,56649	0
15.01.2021	15:28:18	0	39,972	4,292978	2,2845	303,4764	1,101	84,483	0	1015,6	8,2	10	9,8	1	1	1	1	1	1	1	1	1	0	1	-9,584214	275,484007	316,980025	0
15.01.2021	15:28:19	0	39,615107	2,485408	2,4225	308,1348	1,101	84,469	0	1015,66	8,2	10	9,8	1	1	1	1	1	1	1	1	1	0	1	-15,503876	275,463179	310,961615	0
15.01.2021	15:28:20	0	39,853315	4,518924	2,61825	305,388	1,093	84,484	0	1015,72	8,2	10,1	9,8	1	1	1	1	1	1	1	1	1	0	1	-15,503876	275,508067	311,174463	0
15.01.2021	15:28:21	0	39,853036	3,728113	2,6475	298,2276	1,096	84,492	0	1015,68	8,2	10	9,8	1	1	1	1	1	1	1	1	1	0	1	-14,65821	275,404022	311,526929	0
15.01.2021	15:28:22	0	39,734071	4,292978	2,82675	305,0172	1,099	84,494	0	1015,66	8,3	10	9,8	1	1	1	1	1	1	1	1	1	0	1	-15,503876	275,338679	310,371807	0
15.01.2021	15:28:23	0	39,972	2,937301	2,961	309,2112	1,102	84,489	0	1015,62	8,2	10	9,8	1	1	1	1	1	1	1	1	1	0	1	-17,477097	275,39285	308,655119	0
15.01.2021	15:28:24	0	39,496143	3,615139	3,13425	309,9816	1,102	84,498	0	1015,64	8,3	10	9,8	1	1	1	1	1	1	1	1	1	0	1	-12,614517	275,346636	313,298837	0
15.01.2021	15:28:25	0	40,209929	4,405951	3,246	301,6116	1,103	84,501	0	1015,6	8,3	10	9,8	1	1	1	1	1	1	1	1	1	0	1	-14,164905	275,495231	312,45256	0
15.01.2021	15:28:26	0	39,853036	2,824328	3,16125	322,2936	1,098	84,475	0	1015,58	8,2	10	9,8	1	1	1	1	1	1	1	1	1	0	1	-16,772375	275,386469	309,329615	0
15.01.2021	15:28:27	0	40,090964	4,405951	3,19275	317,7756	1,104	84,486	0	1015,58	8,2	10	9,8	1	1	1	1	1	1	1	1	1	0	1	-14,940099	275,492024	311,662155	0
15.01.2021	15:28:28	0	39,97228	3,050274	3,21375	316,2852	1,096	84,495	0	1015,54	8,2	10,1	9,8	1	1	1	1	1	1	1	1	1	0	1	-11,839323	275,418395	314,413914	0
15.01.2021	15:28:29	0	39,377179	3,163247	3,285	322,8804	1,103	84,495	0	1015,54	8,2	10	9,8	1	1	1	1	1	1	1	1	1	0	1	-15,856237	275,508067	310,822102	0
15.01.2021	15:28:30	0	39,853036	4,631897	3,18975	309,2616	1,1	84,475	0	1015,58	8,2	10	9,8	1	1	1	1	1	1	1	1	1	0	1	-16,349542	275,42159	309,918837	0
15.01.2021	15:28:31	0	39,377179	2,824328	3,105	302,8608	1,105	84,486	0	1015,58	8,3	10	9,8	1	1	1	1	1	1	1	1	1	0	1	-13,6716	275,511277	313,021966	0
15.01.2021	15:28:32	0	39,377179	3,841086	3,216	304,9704	1,105	84,486	0	1015,6	8,2	10	9,8	1	1	1	1	1	1	1	1	1	0	1	-17,688513	275,484007	308,875726	0
15.01.2021	15:28:33	0	39,615107	4,518924	3,17175	289,7136	1,098	84,475	0	1015,64	8,3	10	9,8	1	1	1	1	1	1	1	1	1	0	1	-19,591261	275,509672	307,09469	0
15.01.2021	15:28:34	0	39,734071	4,067032	3,0735	323,3412	1,101	84,47	0	1015,62	8,3	10	9,8	1	1	1	1	1	1	1	1	1	0	1	-16,701903	275,4152	309,536196	0
15.01.2021	15:28:35	0	39,615107	4,631897	2,83425	319,9464	1,102	84,465	0	1015,64	8,2	10	9,8	1	1	1	1	1	1	1	1	1	0	1	-14,094433	275,522518	312,652449	0
15.01.2021	15:28:36	0	39,972	3,502166	2,583	318,0996	1,102	84,469	0	1015,74	8,2	10	9,8	1	1	1	1	1	1	1	1	1	0	1	-16,490486	275,482404	310,066152	0
15.01.2021	15:28:37	0	39,73435	4,518924	2,40075	312,5016	1,106	84,464	0	1015,68	8,2	10,1	9,8	1	1	1	1	1	1	1	1	1	0	1	-11,205074	275,475994	315,32117	0
15.01.2021	15:28:38	0	40,091245	4,292978	2,40075	315,9	1,103	84,467	0	1015,64	8,2	10,1	9,8	1	1	1	1	1	1	1	1	1	0	1	-15,292459	275,504857	311,370656	0
15.01.2021	15:28:39	0	39,734071	2,259462	2,4675	316,6884	1,126	84,47	0	1015,8	8,2	10	9,8	1	1	1	1	1	1	1	1	1	0	1	-13,389711	275,407215	312,810556	0
15.01.2021	15:28:40	0	39,377454	2,485408	2,37375	313,5708	1,105	84,453	0	1015,74	8,2	10,1	9,8	1	1	1	1	1	1	1	1	1	0	1	-12,896406	275,360966	313,084803	0
15.01.2021	15:28:41	0	39,615107	4,405951	2,40075	321,57	1,102	84,445	0	1015,68	8,2	10	9,8	1	1	1	1	1	1	1	1	1	0	1	-16,420014	275,333906	309,433076	0
15.01.2021	15:28:42	0	39,377454	2,937301	2,499	297,1692	1,106	84,455	0	1015,6	8,2	10,1	9,8	1	1	1	1	1	1	1	1	1	0	1	-13,812544	275,357781	312,153581	0
15.01.2021	15:28:43	0	39,734071	3,841132	2,54925	325,1412	1,105	84,44	0	1015,62	8,3	10	9,6	1	1	1	1	1	1	1	1	1	0	1	-13,248767	275,327545	312,574209	0
15.01.2021	15:28:44	0	39,853315	4,405951	2,517	319,536	1,103	84,45	0	1015,68	8,2	10,1	9,8	1	1	1	1	1	1	1	1	1	0	1	-14,65821	275,514488	312,050585	0
15.01.2021	15:28:45	0	39,615107	2,598381	2,70225	329,3352	1,099	84,45	0	1015,62	8,2	10	9,8	1	1	1	1	1	1	1	1	1	0	1	-15,010571	275,463179	311,45492	0
15.01.2021	15:28:46	0	39,615385	4,518924	2,66925	317,3148	1,102	84,452	0	1015,66	8,2	10,1	9,8	1	1	1	1	1	1	1	1	1	0	1	-13,601128	275,322775	312,19927	0
15.01.2021	15:28:47	0	39,377179	4,405951	2,3595	309,9564	1,097	84,435	0	1015,58	8,2	10	9,8	1	1	1	1	1	1	1	1	1	0	1	-20,5074	275,375307	305,541725	0
15.01.2021	15:28:48	0	39,615385	3,954106	2,1525	306,4752	1,102	84,436	0	1015,8	8,2	10,1	9,6	1	1	1	1	1	1	1	1	1	0	1	-19,027484	275,466382	307,45319	0
15.01.2021	15:28:49	0	39,258214	2,485408	2,06325	317,3472	1,101	84,433	0	1015,56	8,3	10	9,8	1	1	1	1	1	1	1	1	1	0	1	-12,262156	275,480801	314,286882	0
15.01.2021	15:28:50	0	39,496143	4,405951	1,96725	299,358	1,103	84,445	0	1015,84	8,2	10	9,8	1	1	1	1	1	1	1	1	1	0	1	-23,749119	275,455174	302,678426	0
15.01.2021	15:28:51	0	39,258489	3,27622	2,0295	302,3892	1,107	84,432	0	1015,7	8,2	10,1	9,8	1	1	1	1	1	1	1	1	1	0	1	-15,503876	275,337088	310,364275	0
15.01.2021	15:28:52	0	39,258489	3,27622	1,97175	303,228	1,103	84,434	0	1015,7	8,2	10,1	9,8	1	1	1	1	1	1	1	1	1	0	1	-15,926709	275,49844	310,70597	0
15.01.2021	15:28:53	0	39,49642	4,292978	1,91625	297,5112	1,105	84,432	0	1015,58	8,2	10,1	9,8	1	1	1	1	1	1	1	1	1	0	1	-12,966878	275,469585	313,528983	0
15.01.2021	15:28:54	0	39,734071	4,631897	1,94475	309,4704	1,101	84,437	0	1015,62	8,2	10	9,8	1	1	1	1	1	1	1	1	1	0	1	-16,138125	275,488817	310,44892	0
15.01.2021	15:28:55	0	39,615107	3,615139	1,989	329,9292	1,102	84,43	0	1015,7	8,2	10	9,8	1	1	1	1	1	1	1	1	1	0	1	-18,25229	275,378496	307,811935	0
15.01.2021	15:28:56	0	39,139524	2,598381	1,99575	325,8864	1,103	84,435	0	1015,66	8,2	10,1	9,8	1	1	1	1	1	1	1	1	1	0	1	-14,094433	275,49844	312,538246	0
15.01.2021	15:28:57	0	39,734071	4,180005	1,98375	321,8292	1,101	84,423	0	1015,74	8,2	10	9,8	1	1	1	1	1	1	1	1	1	0	1	-10,923185	275,424786	315,360338	0
15.01.2021	15:28:58	0	39,377179	4,292978	2,1135	309,8592	1,099	84,408	0	1015,5	8,2	10	9,8	1	1	1	1	1	1	1	1	1	0	1	-16,560958	275,495231	310,056506	0
15.01.2021	15:28:59	0	39,496143	3,389234	2,38725	322,074	1,1	84,422	0	1015,7	8,2	10	9,6	1	1	1	1	1	1	1	1	1	0	1	-13,248767	275,426384	313,04233	0
15.01.2021	15:29:00	0	39,258489	3,502166	2,526	315,1584	1,106	84,411	0	1015,8	8,2	10,1	9,8	1	1	1	1	1	1	1	1	1	0	1	-18,25229	275,501648	308,395605	0
15.01.2021	15:29:01	0	39,258489	3,502166	2,526	315,1584	1,106	84,411	0	1015,8	8,2	10,1	9,8	1	1	1	1	1	1	1	1	1	0	1	-15,292459	275,388064	310,817086	0
15.01.2021	15:29:02	0	39,139524	2,598381	2,62725	303,9228	1,1	84,425	0	1015,74	8,2	10,1	9,8	1	1	1	1	1	1	1	1	1	0	1	-15,997181	275,495231	310,620283	0
15.01.2021	15:29:03	0	39,377454	4,292978	2,5155	314,5356	1,094	84,406	0	1015,74	8,2	10,1	9,8	1	1	1	1	1	1	1	1	1	0	1	-17,829457	275,458376	308,613264	0
15.01.2021	15:29:04	0	39,377179	4,067032	2,40075	318,8664	1,099	84,416	0	1015,74	8,2	10	9,8	1	1	1	1	1	1	1	1	1	0	1	-14,587738	275,310061	311,152485	0
15.01.2021	15:29:05	0	39,49642	2,937301	2,2995	319,5756	1,101	84,424	0	1015,76	8,2	10,1	9,8	1	1	1	1	1	1	1	1	1	0	1	-11,557435	275,419992	314,703373	0
15.01.2021	15:29:06	0	39,139524	4,405951	2,15175	329,8644	1,11	84,422	0	1015,72	8,2	10,1	9,8	1	1	1	1	1	1	1	1	1	0	1	-14,305849	275,49042	312,2888	0
15.01.2021	15:29:07	0	39,496143	2,598381	2,049	334,1736	1,105	84,413	0	1015,6	8,2	10	9,8	1	1	1	1	1	1	1	1	1	0	1	-12,896406	275,437575	313,447725	0
15.01.2021	15:29:08	0	39,615107	3,389193	1,956	338,7312	1,104	84,412	0	1015,74	8,2	10	9,8	1	1	1	1	1	1	1	1	1	0	1	-17,054264	275,487213	309,525179	0
15.01.2021	15:29:09	0	39,258489	2,824328	1,8045	333,4392	1,107	84,412	0	1015,68	8,2	10,1	9,8	1	1	1	1	1	1	1	1	1	0	1	-14,587738	275,448773	311,809464	0
15.01.2021	15:29:10	0	39,020559	2,372435	1,668	330,354	1,106	84,408	0	1015,62	8,2	10,1	9,8	1	1	1	1	1	1	1	1	1	0	1	-16,420014	275,508067	310,258325	0
15.01.2021	15:29:11	0	39,258489	2,711355	1,704	326,3364	1,096	84,404	0	1015,7	8,2	10,1	9,8	1	1	1	1	1	1	1	1	1	0	1	-17,758985	275,500044	308,881301	0
15.01.2021	15:29:12	0	38,901321	4,518924	1,9605	350,2368	1,1	84,403	0	1015,62	8,2	10	9,8	1	1	1	1	1	1	1	1	1	0	1	-16,067653	275,480801	310,481385	0
15.01.2021	15:29:13	0	39,377454	3,050274	2,07	340,5924	1,104	84,414	0	1015,74	8,2	10,1	9,8	1	1	1	1	1	1	1	1	1	0	1	-11,557435	275,496835	315,067636	0
15.01.2021	15:29:14	0	39,496143	5,196763	2,05125	321,138	1,1	84,394	0	1015,68	8,2	10	9,8	1	1	1	1	1	1	1	1	1	0	1	-13,389711	275,49042	313,204938	0
15.01.2021	15:29:15	0	39,49642	3,27622	2,14425	317,7648	1,101	84,398	0	1015,68	8,2	10,1	9,8	1	1	1	1	1	1	1	1	1	0	1	-14,869626	275,397637	311,285266	0
15.01.2021	15:29:16	0	39,13925	2,711387	2,784	324,0252	1,107	84,393	0	1015,64	8,2	10	9,6	1	1	1	1	1	1	1	1	1	0	1	-13,460183	275,511277	313,233382	0
15.01.2021	15:29:17	0	39,377179	3,27622	3,03225	315,5112	1,101	84,409	0	1015,74	8,2	10	9,8	1	1	1	1	1	1	1	1	1	0	1	-14,799154	275,391255	311,325504	0
15.01.2021	15:29:18	0	39,139524	4,744871	3,09375	314,7624	1,102	84,404	0	1015,68	8,2	10,1	9,8	1	1	1	1	1	1	1	1	1	0	1	-12,966878	275,500044	313,673409	0
15.01.2021	15:29:19	0	38,901594	2,372464	3,22425	322,6356	1,101	84,416	0	1015,68	8,2	10,1	9,6	1	1	1	1	1	1	1	1	1	0	1	-14,235377	275,440774	312,123913	0
15.01.2021	15:29:20	0	39,496143	5,08379	3,168	325,08	1,107	84,405	0	1015,68	8,2	10	9,8	1	1	1	1	1	1	1	1	1	0	1	-12,473573	275,506462	314,197154	0
15.01.2021	15:29:21	0	39,377454	4,631897	3,00825	324,7812	1,103	84,38	0	1015,68	8,2	10,1	9,8	1	1	1	1	1	1	1	1	1	0	1	-13,03735	275,458376	313,405371	0
15.01.2021	15:29:22	0	39,258489	4,631897	2,9565	326,0124	1,105	84,404	0	1015,68	8,2	10,1	9,8	1	1	1	1	1	1	1	1	1	0	1	-10,711769	275,365745	315,292072	0
15.01.2021	15:29:23	0	39,377454	4,857844	3,20925	319,5684	1,098	84,391	0	1015,56	8,2	10,1	9,8	1	1	1	1	1	1	1	1	1	0	1	-12,896406	275,49042	313,698243	0
15.01.2021	15:29:24	0	39,258214	3,841086	3,5415	320,0328	1,1	84,396	0	1015,62	8,2	10	9,8	1	1	1	1	1	1	1	1	1	0	1	-12,966878	275,348227	312,954013	0
15.01.2021	15:29:25	0	39,49642	4,180005	3,4845	316,3356	1,097	84,4	0	1015,68	8,2	10,1	9,8	1	1	1	1	1	1	1	1	1	0	1	-15,433404	275,353003	310,510101	0
15.01.2021	15:29:26	0	39,139524	3,954059	3,2955	321,1092	1,1	84,38	0	1015,72	8,2	10,1	9,8	1	1	1	1	1	1	1	1	1	0	1	-13,03735	275,319595	312,747999	0
15.01.2021	15:29:27	0	39,49642	4,180005	3,31275	307,5012	1,106	84,385	0	1015,34	8,2	10,1	9,8	1	1	1	1	1	1	1	1	1	0	1	-16,420014	275,466382	310,06066	0
15.01.2021	15:29:28	0	38,782629	4,744871	3,34425	302,0652	1,105	84,399	0	1015,68	8,2	10,1	9,8	1	1	1	1	1	1	1	1	1	0	1	-16,208598	275,49844	310,424081	0
15.01.2021	15:29:29	0	39,020559	3,615139	3,36375	309,2328	1,096	84,383	0	1015,52	8,2	10,1	9,8	1	1	1	1	1	1	1	1	1	0	1	-12,05074	275,394446	314,089034	0
15.01.2021	15:29:30	0	38,782357	2,485408	3,21225	301,5828	1,105	84,391	0	1015,72	8,2	10	9,8	1	1	1	1	1	1	1	1	1	0	1	-15,503876	275,324365	310,304047	0
15.01.2021	15:29:31	0	39,020286	4,857844	3,168	301,5612	1,098	84,38	0	1015,68	8,2	10	9,8	1	1	1	1	1	1	1	1	1	0	1	-11,275546	275,474391	315,243101	0
15.01.2021	15:29:32	0	38,901594	3,389234	3,318	296,7984	1,103	84,379	0	1015,72	8,2	10,1	9,6	1	1	1	1	1	1	1	1	1	0	1	-13,03735	275,322775	312,763047	0
15.01.2021	15:29:33	0	39,139524	3,163247	3,4245	302,04	1,107	84,375	0	1015,68	8,2	10,1	9,8	1	1	1	1	1	1	1	1	1	0	1	-15,292459	275,434377	311,036515	0
15.01.2021	15:29:34	0	39,258214	3,502208	3,53475	309,9924	1,101	84,362	0	1015,58	8,2	10	9,6	1	1	1	1	1	1	1	1	1	0	1	-13,6716	275,37212	312,362428	0
15.01.2021	15:29:35	0	38,782629	2,711355	3,7065	299,3724	1,102	84,361	0	1015,62	8,2	10,1	9,8	1	1	1	1	1	1	1	1	1	0	1	-17,406624	275,302119	308,296013	0
15.01.2021	15:29:36	0	39,258489	3,954059	3,46875	293,2704	1,09	84,359	0	1015,62	8,2	10,1	9,8	1	1	1	1	1	1	1	1	1	0	1	-18,816068	275,360966	307,165142	0
15.01.2021	15:29:37	0	39,139524	4,631897	3,1995	295,1676	1,096	84,359	0	1015,76	8,2	10,1	9,8	1	1	1	1	1	1	1	1	1	0	1	-11,41649	275,337088	314,451661	0
15.01.2021	15:29:38	0	39,139524	3,728113	2,84475	297,1692	1,098	84,354	0	1015,82	8,2	10,1	9,8	1	1	1	1	1	1	1	1	1	0	1	-14,869626	275,356188	311,088958	0
15.01.2021	15:29:39	0	39,258489	4,067032	2,66475	314,046	1,099	84,344	0	1015,7	8,2	10,1	9,8	1	1	1	1	1	1	1	1	1	0	1	-12,544045	275,408812	313,663787	0
15.01.2021	15:29:40	0	38,782629	2,824328	2,4405	311,4936	1,102	84,337	0	1015,64	8,2	10,1	9,8	1	1	1	1	1	1	1	1	1	0	1	-14,869626	275,365745	311,134215	0
15.01.2021	15:29:41	0	39,139524	4,405951	2,409	299,0736	1,101	84,329	0	1015,7	8,2	10,1	9,8	1	1	1	1	1	1	1	1	1	0	1	-13,248767	275,373713	312,792809	0
15.01.2021	15:29:42	0	38,901594	3,615139	2,47575	293,7816	1,106	84,339	0	1015,72	8,2	10,1	9,8	1	1	1	1	1	1	1	1	1	0	1	-14,305849	275,509672	312,380103	0
15.01.2021	15:29:43	0	39,258214	2,824328	2,48775	294,7932	1,1	84,328	0	1015,64	8,2	10	9,8	1	1	1	1	1	1	1	1	1	0	1	-18,181818	275,378496	307,882407	0
15.01.2021	15:29:44	0	39,139524	4,292978	2,5215	303,1344	1,094	84,316	0	1015,8	8,2	10,1	9,8	1	1	1	1	1	1	1	1	1	0	1	-12,755462	275,330725	313,082569	0
15.01.2021	15:29:45	0	38,782629	3,615139	2,61375	315,5076	1,102	84,336	0	1015,78	8,2	10,1	9,8	1	1	1	1	1	1	1	1	1	0	1	-18,957012	275,455174	307,470533	0
15.01.2021	15:29:46	0	38,901594	4,067032	2,5335	284,8032	1,103	84,317	0	1015,62	8,2	10,1	9,8	1	1	1	1	1	1	1	1	1	0	1	-12,755462	275,495231	313,862003	0
15.01.2021	15:29:47	0	39,020559	2,824328	2,4375	302,5296	1,102	84,313	0	1015,68	8,2	10,1	9,8	1	1	1	1	1	1	1	1	1	0	1	-18,675123	275,429581	307,631122	0
15.01.2021	15:29:48	0	38,782629	4,292978	2,47275	287,7732	1,095	84,331	0	1015,7	8,2	10,1	9,8	1	1	1	1	1	1	1	1	1	0	1	-13,6716	275,496835	312,953471	0
15.01.2021	15:29:49	0	38,901594	2,485408	2,47875	284,8716	1,096	84,31	0	1015,6	8,2	10,1	9,8	1	1	1	1	1	1	1	1	1	0	1	-14,65821	275,341861	311,232539	0
15.01.2021	15:29:50	0	38,901594	3,163247	2,48775	291,492	1,1	84,302	0	1015,58	8,2	10,1	9,8	1	1	1	1	1	1	1	1	1	0	1	-12,896406	275,463179	313,569085	0
15.01.2021	15:29:51	0	38,663664	3,728157	2,39025	300,5784	1,099	84,29	0	1015,66	8,2	10,1	9,6	1	1	1	1	1	1	1	1	1	0	1	-13,530655	275,435976	312,805897	0
15.01.2021	15:29:52	0	38,782629	3,841086	2,247	288,2088	1,1	84,295	0	1015,78	8,2	10,1	9,8	1	1	1	1	1	1	1	1	1	0	1	-13,742072	275,493628	312,867787	0
15.01.2021	15:29:53	0	39,139524	4,970817	2,11125	298,3104	1,101	84,307	0	1015,7	8,2	10,1	9,8	1	1	1	1	1	1	1	1	1	0	1	-15,856237	275,373713	310,185339	0
15.01.2021	15:29:54	0	38,901594	4,518924	2,097	306,8712	1,098	84,306	0	1015,72	8,2	10,1	9,8	1	1	1	1	1	1	1	1	1	0	1	-18,957012	275,332316	306,888548	0
15.01.2021	15:29:55	0	38,544699	2,824328	2,04075	300,8952	1,103	84,289	0	1015,7	8,2	10,1	9,8	1	1	1	1	1	1	1	1	1	0	1	-13,03735	275,456775	313,397782	0
15.01.2021	15:29:56	0	38,782629	4,518924	2,19225	298,6344	1,102	84,298	0	1015,68	8,2	10,1	9,8	1	1	1	1	1	1	1	1	1	0	1	-18,111346	275,319595	307,674003	0
15.01.2021	15:29:57	0	38,901594	3,954059	2,31075	297,9792	1,1	84,297	0	1015,66	8,2	10,1	9,8	1	1	1	1	1	1	1	1	1	0	1	-12,403101	275,345044	313,502718	0
15.01.2021	15:29:58	0	38,663664	3,389234	2,379	296,9064	1,099	84,307	0	1015,66	8,2	10,1	9,6	1	1	1	1	1	1	1	1	1	0	1	-16,138125	275,335497	309,722495	0
15.01.2021	15:29:59	0	38,901594	4,067081	2,33175	306,5148	1,095	84,285	0	1015,62	8,2	10,1	9,6	1	1	1	1	1	1	1	1	1	0	1	-12,825934	275,313239	312,929328	0
15.01.2021	15:30:00	0	38,782629	4,744927	3,05325	294,1272	1,096	84,282	0	1015,74	8,2	10,1	9,6	1	1	1	1	1	1	1	1	1	0	1	-12,121212	275,442374	314,245659	0
15.01.2021	15:30:01	0	38,782629	4,744927	3,05325	294,1272	1,096	84,282	0	1015,74	8,2	10,1	9,6	1	1	1	1	1	1	1	1	1	0	1	-12,05074	275,48561	314,5211	0
15.01.2021	15:30:02	0	38,663664	4,405951	3,41475	296,1396	1,096	84,287	0	1015,6	8,2	10,1	9,8	1	1	1	1	1	1	1	1	1	0	1	-12,473573	275,437575	313,870558	0
15.01.2021	15:30:03	0	38,663393	4,857844	3,1575	309,9528	1,097	84,299	0	1015,6	8,2	10	9,8	1	1	1	1	1	1	1	1	1	0	1	-13,319239	275,302119	312,383399	0
15.01.2021	15:30:04	0	38,544699	2,711387	2,9985	311,382	1,094	84,292	0	1015,76	8,2	10,1	9,6	1	1	1	1	1	1	1	1	1	0	1	-16,913319	275,325954	308,902129	0
15.01.2021	15:30:05	0	38,425733	2,259462	3,0795	304,38	1,088	84,287	0	1015,72	8,2	10,1	9,8	1	1	1	1	1	1	1	1	1	0	1	-14,517266	275,351411	311,4187	0
15.01.2021	15:30:06	0	39,139524	3,954106	3,102	307,2564	1,096	84,274	0	1015,58	8,2	10,1	9,6	1	1	1	1	1	1	1	1	1	0	1	-15,010571	275,321185	310,782302	0
15.01.2021	15:30:07	0	38,306768	2,259489	3,07425	311,832	1,1	84,299	0	1015,74	8,2	10,1	9,6	1	1	1	1	1	1	1	1	1	0	1	-14,65821	275,322775	311,142187	0
15.01.2021	15:30:08	0	38,782629	4,518924	3,03225	320,0112	1,093	84,294	0	1015,58	8,2	10,1	9,8	1	1	1	1	1	1	1	1	1	0	1	-10,993658	275,43118	315,320163	0
15.01.2021	15:30:09	0	38,901594	4,292978	3,018	319,2264	1,098	84,295	0	1015,72	8,2	10,1	9,8	1	1	1	1	1	1	1	1	1	0	1	-14,305849	275,34027	311,577367	0
15.01.2021	15:30:10	0	38,663664	4,180005	3,27375	310,3344	1,095	84,349	0	1015,7	8,2	10,1	9,8	1	1	1	1	1	1	1	1	1	0	1	-17,970402	275,504857	308,692714	0
15.01.2021	15:30:11	0	38,663664	2,824328	3,42675	319,2912	1,095	84,303	0	1015,74	8,2	10,1	9,8	1	1	1	1	1	1	1	1	1	0	1	-15,715292	275,480801	310,833746	0
15.01.2021	15:30:12	0	38,544699	2,824362	3,429	311,0544	1,09	84,285	0	1015,64	8,2	10,1	9,6	1	1	1	1	1	1	1	1	1	0	1	-13,03735	275,338679	312,838333	0
15.01.2021	15:30:13	0	38,544699	3,163247	3,43575	317,7324	1,096	84,278	0	1015,72	8,2	10,1	9,8	1	1	1	1	1	1	1	1	1	0	1	-15,503876	275,426384	310,78722	0
15.01.2021	15:30:14	0	38,663664	2,485408	3,62925	314,064	1,091	84,278	0	1015,66	8,2	10,1	9,8	1	1	1	1	1	1	1	1	1	0	1	-17,477097	275,34027	308,406119	0
15.01.2021	15:30:15	0	38,425733	3,728113	3,7665	307,6056	1,095	84,296	0	1015,66	8,2	10,1	9,8	1	1	1	1	1	1	1	1	1	0	1	-14,799154	275,463179	311,666337	0
15.01.2021	15:30:16	0	39,020559	3,615139	3,74925	303,3972	1,095	84,29	0	1015,58	8,2	10,1	9,8	1	1	1	1	1	1	1	1	1	0	1	-13,812544	275,330725	312,025487	0
15.01.2021	15:30:17	0	38,901594	4,744871	3,8385	302,4792	1,091	84,298	0	1015,74	8,2	10,1	9,8	1	1	1	1	1	1	1	1	1	0	1	-18,604651	275,338679	307,271032	0
15.01.2021	15:30:18	0	38,544429	2,259462	3,68025	298,98	1,096	84,29	0	1015,74	8,2	10	9,8	1	1	1	1	1	1	1	1	1	0	1	-13,03735	275,308472	312,695354	0
15.01.2021	15:30:19	0	38,544699	3,502166	3,666	313,182	1,098	84,295	0	1015,68	8,2	10,1	9,8	1	1	1	1	1	1	1	1	1	0	1	-12,262156	275,487213	314,317286	0
15.01.2021	15:30:20	0	38,901594	4,518924	3,5085	303,1812	1,092	84,306	0	1015,7	8,2	10,1	9,8	1	1	1	1	1	1	1	1	1	0	1	-15,151515	275,427983	311,147155	0
15.01.2021	15:30:21	0	39,020559	4,292978	3,39375	303,8616	1,094	84,291	0	1015,82	8,2	10,1	9,8	1	1	1	1	1	1	1	1	1	0	1	-18,040874	275,34027	307,842342	0
15.01.2021	15:30:22	0	38,068838	2,937336	3,39825	304,254	1,096	84,302	0	1015,7	8,2	10,1	9,6	1	1	1	1	1	1	1	1	1	0	1	-15,503876	275,484007	311,060363	0
15.01.2021	15:30:23	0	38,544699	4,29303	3,4845	300,8844	1,098	84,305	0	1015,76	8,2	10,1	9,6	1	1	1	1	1	1	1	1	1	0	1	-10,077519	275,408812	316,130312	0
15.01.2021	15:30:24	0	38,306768	2,598381	3,6705	308,4876	1,099	84,304	0	1015,6	8,2	10,1	9,8	1	1	1	1	1	1	1	1	1	0	1	-11,839323	275,487213	314,740119	0
15.01.2021	15:30:25	0	38,663664	3,050311	3,95775	304,272	1,094	84,301	0	1015,68	8,2	10,1	9,6	1	1	1	1	1	1	1	1	1	0	1	-15,010571	275,442374	311,3563	0
15.01.2021	15:30:26	0	38,663664	4,405951	4,1265	303,9444	1,093	84,298	0	1015,72	8,2	10,1	9,8	1	1	1	1	1	1	1	1	1	0	1	-14,376321	275,493628	312,233537	0
15.01.2021	15:30:27	0	38,663664	2,824328	4,15125	318,5496	1,089	84,292	0	1015,72	8,2	10,1	9,8	1	1	1	1	1	1	1	1	1	0	1	-16,631431	275,354596	309,319613	0
15.01.2021	15:30:28	0	38,544699	3,050274	4,11	310,734	1,091	84,282	0	1015,62	8,2	10,1	9,8	1	1	1	1	1	1	1	1	1	0	1	-15,151515	275,375307	310,89761	0
15.01.2021	15:30:29	0	38,306768	2,485408	4,167	307,188	1,098	84,272	0	1015,74	8,2	10,1	9,8	1	1	1	1	1	1	1	1	1	0	1	-14,235377	275,492024	312,366876	0
15.01.2021	15:30:30	0	38,425733	2,824362	4,10925	309,2508	1,091	84,274	0	1015,76	8,2	10,1	9,6	1	1	1	1	1	1	1	1	1	0	1	-12,262156	275,407215	313,93811	0
15.01.2021	15:30:31	0	38,425733	4,405951	4,1415	305,748	1,091	84,284	0	1015,74	8,2	10,1	9,8	1	1	1	1	1	1	1	1	1	0	1	-13,812544	275,482404	312,744095	0
15.01.2021	15:30:32	0	38,782629	4,744927	4,13475	305,784	1,087	84,263	0	1015,66	8,2	10,1	9,6	1	1	1	1	1	1	1	1	1	0	1	-11,06413	275,353003	314,879375	0
15.01.2021	15:30:33	0	38,782629	4,631897	4,14075	298,4328	1,089	84,276	0	1015,42	8,2	10,1	9,8	1	1	1	1	1	1	1	1	1	0	1	-15,503876	275,467984	310,984392	0
15.01.2021	15:30:34	0	38,425733	2,824328	4,11225	303,2208	1,091	84,278	0	1015,68	8,2	10,1	9,8	1	1	1	1	1	1	1	1	1	0	1	-16,701903	275,389659	309,415199	0
15.01.2021	15:30:35	0	38,663664	4,518979	4,09575	309,5676	1,095	84,283	0	1015,74	8,2	10,1	9,6	1	1	1	1	1	1	1	1	1	0	1	-15,221987	275,492024	311,380266	0
15.01.2021	15:30:36	0	38,663664	2,372435	3,9255	314,118	1,093	84,28	0	1015,78	8,2	10,1	9,8	1	1	1	1	1	1	1	1	1	0	1	-14,376321	275,365745	311,62752	0
15.01.2021	15:30:37	0	38,901594	4,518924	3,8505	315,2268	1,091	84,277	0	1015,78	8,2	10,1	9,8	1	1	1	1	1	1	1	1	1	0	1	-14,446794	275,314828	311,315989	0
15.01.2021	15:30:38	0	38,663664	3,27622	3,846	316,6956	1,086	84,25	0	1015,72	8,2	10,1	9,8	1	1	1	1	1	1	1	1	1	0	1	-11,909796	275,42159	314,358583	0
15.01.2021	15:30:39	0	38,425733	3,954059	3,8385	316,2636	1,089	84,247	0	1015,76	8,2	10,1	9,8	1	1	1	1	1	1	1	1	1	0	1	-12,755462	275,480801	313,793577	0
15.01.2021	15:30:40	0	38,187803	2,03354	3,5415	326,7036	1,087	84,244	0	1015,7	8,2	10,1	9,6	1	1	1	1	1	1	1	1	1	0	1	-12,403101	275,389659	313,714001	0
15.01.2021	15:30:41	0	38,663664	4,518979	3,18525	323,748	1,09	84,25	0	1015,76	8,2	10,1	9,6	1	1	1	1	1	1	1	1	1	0	1	-13,248767	275,351411	312,687199	0
15.01.2021	15:30:42	0	38,663664	3,615183	3,10425	317,3796	1,089	84,243	0	1015,78	8,2	10,1	9,6	1	1	1	1	1	1	1	1	1	0	1	-17,336152	275,464781	309,13693	0
15.01.2021	15:30:43	0	38,068838	2,711387	3,3735	323,946	1,09	84,22	0	1015,66	8,2	10,1	9,6	1	1	1	1	1	1	1	1	1	0	1	-16,772375	275,305295	308,945294	0
15.01.2021	15:30:44	0	38,663664	4,631897	3,441	315,864	1,087	84,238	0	1015,66	8,2	10,1	9,8	1	1	1	1	1	1	1	1	1	0	1	-17,336152	275,453574	309,083806	0
15.01.2021	15:30:45	0	38,187803	2,824328	3,366	313,776	1,095	84,233	0	1015,68	8,2	10,1	9,8	1	1	1	1	1	1	1	1	1	0	1	-12,614517	275,37212	313,41951	0
15.01.2021	15:30:46	0	38,425733	4,744927	3,42975	333,1224	1,09	84,216	0	1015,72	8,2	10,1	9,6	1	1	1	1	1	1	1	1	1	0	1	-12,614517	275,313239	313,140745	0
15.01.2021	15:30:47	0	38,544699	4,180005	3,2655	342,4104	1,088	84,225	0	1015,76	8,2	10,1	9,8	1	1	1	1	1	1	1	1	1	0	1	-14,305849	275,37212	311,728178	0
15.01.2021	15:30:48	0	38,544699	4,406004	2,9895	326,7504	1,081	84,194	0	1015,7	8,2	10,1	9,6	1	1	1	1	1	1	1	1	1	0	1	-11,346018	275,313239	314,409244	0
15.01.2021	15:30:49	0	38,663664	3,954106	2,52525	317,7864	1,087	84,202	0	1015,68	8,2	10,1	9,6	1	1	1	1	1	1	1	1	1	0	1	-11,768851	275,349819	314,159577	0
15.01.2021	15:30:50	0	38,425733	3,728113	2,4315	327,9744	1,077	84,19	0	1015,64	8,2	10,1	9,8	1	1	1	1	1	1	1	1	1	0	1	-14,799154	275,487213	311,780288	0
15.01.2021	15:30:51	0	38,187803	2,598413	2,598	321,21	1,084	84,176	0	1015,68	8,2	10,1	9,6	1	1	1	1	1	1	1	1	1	0	1	-12,684989	275,458376	313,757732	0
15.01.2021	15:30:52	0	38,306768	4,29303	2,75625	309,2508	1,085	84,173	0	1015,74	8,2	10,1	9,6	1	1	1	1	1	1	1	1	1	0	1	-12,684989	275,482404	313,871649	0
15.01.2021	15:30:53	0	38,544699	2,598413	2,76375	296,8956	1,087	84,177	0	1015,74	8,2	10,1	9,6	1	1	1	1	1	1	1	1	1	0	1	-11,134602	275,362559	314,854151	0
15.01.2021	15:30:54	0	38,663664	3,841132	2,64975	299,43	1,083	84,163	0	1015,7	8,2	10,1	9,6	1	1	1	1	1	1	1	1	1	0	1	-15,715292	275,467984	310,772975	0
15.01.2021	15:30:55	0	38,306768	4,406004	2,5815	306,4464	1,082	84,159	0	1015,74	8,2	10,1	9,6	1	1	1	1	1	1	1	1	1	0	1	-11,134602	275,305295	314,583068	0
15.01.2021	15:30:56	0	38,425733	3,389234	2,58375	303,5592	1,078	84,161	0	1015,56	8,2	10,1	9,6	1	1	1	1	1	1	1	1	1	0	1	-16,27907	275,359373	309,694597	0
15.01.2021	15:30:57	0	38,187803	3,276259	2,328	317,016	1,082	84,156	0	1015,74	8,2	10,1	9,6	1	1	1	1	1	1	1	1	1	0	1	-13,742072	275,426384	312,549024	0
15.01.2021	15:30:58	0	38,306768	3,163247	2,1315	300,51	1,082	84,14	0	1015,56	8,2	10,1	9,8	1	1	1	1	1	1	1	1	1	0	1	-18,322763	275,475994	308,203481	0
15.01.2021	15:30:59	0	38,425733	3,050274	2,214	311,8536	1,085	84,14	0	1015,58	8,2	10,1	9,8	1	1	1	1	1	1	1	1	1	0	1	-11,205074	275,434377	315,1239	0
15.01.2021	15:31:00	0	38,425733	4,406004	2,13	290,0556	1,08	84,143	0	1016	8,2	10,1	9,6	1	1	1	1	1	1	1	1	1	0	1	-10,42988	275,310061	315,310342	0
15.01.2021	15:31:01	0	38,425733	4,406004	2,13	290,0556	1,08	84,143	0	1016	8,2	10,1	9,6	1	1	1	1	1	1	1	1	1	0	1	-18,040874	275,383279	308,046008	0
15.01.2021	15:31:02	0	38,306768	4,406004	2,3085	303,6096	1,075	84,138	0	1015,72	8,2	10,1	9,6	1	1	1	1	1	1	1	1	1	0	1	-14,164905	275,508067	312,513434	0
15.01.2021	15:31:03	0	38,187803	4,292978	2,427	312,444	1,073	84,13	0	1015,74	8,2	10,1	9,8	1	1	1	1	1	1	1	1	1	0	1	-13,812544	275,378496	312,251681	0
15.01.2021	15:31:04	0	38,306768	2,711387	2,5185	299,0772	1,079	84,141	0	1015,72	8,2	10,1	9,6	1	1	1	1	1	1	1	1	1	0	1	-15,715292	275,487213	310,86415	0
15.01.2021	15:31:05	0	38,544699	2,937336	2,6955	301,2156	1,08	84,166	0	1015,96	8,2	10,1	9,6	1	1	1	1	1	1	1	1	1	0	1	-15,715292	275,400829	310,454722	0
15.01.2021	15:31:06	0	38,187803	4,292978	2,7975	306,4536	1,079	84,132	0	1015,86	8,2	10,1	9,8	1	1	1	1	1	1	1	1	1	0	1	-13,03735	275,479199	313,504089	0
15.01.2021	15:31:07	0	38,544429	4,518979	2,92425	302,1552	1,084	84,131	0	1015,78	8,2	10	9,6	1	1	1	1	1	1	1	1	1	0	1	-16,772375	275,432778	309,549022	0
15.01.2021	15:31:08	0	38,187803	4,631953	3,03225	294,48	1,077	84,151	0	1015,7	8,2	10,1	9,6	1	1	1	1	1	1	1	1	1	0	1	-18,111346	275,495231	308,506118	0
15.01.2021	15:31:09	0	38,306768	4,067081	3,159	296,1396	1,076	84,127	0	1015,68	8,2	10,1	9,6	1	1	1	1	1	1	1	1	1	0	1	-16,560958	275,458376	309,881763	0
15.01.2021	15:31:10	0	38,544699	2,711387	3,23475	294,8184	1,074	84,14	0	1015,78	8,2	10,1	9,6	1	1	1	1	1	1	1	1	1	0	1	-14,517266	275,367339	311,494121	0
15.01.2021	15:31:11	0	38,306768	3,276259	3,411	294,7932	1,079	84,127	0	1015,78	8,2	10,1	9,6	1	1	1	1	1	1	1	1	1	0	1	-17,829457	275,313239	307,925804	0
15.01.2021	15:31:12	0	37,949873	4,292978	3,4575	297,3276	1,078	84,143	0	1015,76	8,2	10,1	9,8	1	1	1	1	1	1	1	1	1	0	1	-13,03735	275,474391	313,481297	0
15.01.2021	15:31:13	0	38,068838	4,970876	3,5745	300,1824	1,083	84,183	0	1015,96	8,2	10,1	9,6	1	1	1	1	1	1	1	1	1	0	1	-14,869626	275,496835	311,755445	0
15.01.2021	15:31:14	0	38,544699	3,502208	3,573	302,4432	1,081	84,155	0	1015,66	8,2	10,1	9,6	1	1	1	1	1	1	1	1	1	0	1	-14,446794	275,445573	311,935241	0
15.01.2021	15:31:15	0	38,068838	2,711387	3,51525	307,1952	1,075	84,166	0	1015,7	8,2	10,1	9,6	1	1	1	1	1	1	1	1	1	0	1	-16,842847	275,469585	309,653014	0
15.01.2021	15:31:16	0	38,187803	2,937336	3,38625	305,1432	1,077	84,151	0	1015,68	8,2	10,1	9,6	1	1	1	1	1	1	1	1	1	0	1	-14,65821	275,300531	311,036913	0
15.01.2021	15:31:17	0	38,306768	4,29303	3,38775	312,4476	1,083	84,157	0	1015,64	8,2	10,1	9,6	1	1	1	1	1	1	1	1	1	0	1	-15,503876	275,324365	310,304047	0
15.01.2021	15:31:18	0	38,425733	4,406004	3,459	305,3448	1,079	84,154	0	1015,6	8,2	10,1	9,6	1	1	1	1	1	1	1	1	1	0	1	-16,067653	275,466382	310,413021	0
15.01.2021	15:31:19	0	38,425733	4,857902	3,29025	303,5232	1,078	84,156	0	1015,76	8,2	10,1	9,6	1	1	1	1	1	1	1	1	1	0	1	-13,389711	275,404022	312,795428	0
15.01.2021	15:31:20	0	38,187803	4,29303	3,378	306,7704	1,068	84,145	0	1015,68	8,2	10,1	9,6	1	1	1	1	1	1	1	1	1	0	1	-11,346018	275,310061	314,394204	0
15.01.2021	15:31:21	0	38,187803	2,824328	3,44475	311,904	1,068	84,15	0	1015,64	8,2	10,1	9,8	1	1	1	1	1	1	1	1	1	0	1	-13,319239	275,341861	312,571511	0
15.01.2021	15:31:22	0	37,711943	2,937336	3,288	299,0664	1,08	84,151	0	1015,7	8,2	10,1	9,6	1	1	1	1	1	1	1	1	1	0	1	-15,010571	275,432778	311,310826	0
15.01.2021	15:31:23	0	38,068838	3,276259	3,24825	302,4936	1,081	84,14	0	1015,76	8,2	10,1	9,6	1	1	1	1	1	1	1	1	1	0	1	-10,923185	275,318006	314,854641	0
15.01.2021	15:31:24	0	37,949873	3,615183	3,264	306,1944	1,074	84,12	0	1015,68	8,2	10,1	9,6	1	1	1	1	1	1	1	1	1	0	1	-12,05074	275,437575	314,293391	0
15.01.2021	15:31:25	0	38,187536	2,485438	3,252	306,45	1,077	84,145	0	1015,72	8,2	10	9,6	1	1	1	1	1	1	1	1	1	0	1	-14,094433	275,443973	312,28002	0
15.01.2021	15:31:26	0	37,830908	2,485438	3,21375	298,7748	1,077	84,14	0	1015,68	8,2	10,1	9,6	1	1	1	1	1	1	1	1	1	0	1	-15,715292	275,451973	310,697079	0
15.01.2021	15:31:27	0	37,949873	4,180005	3,31575	306,8388	1,074	84,143	0	1015,72	8,2	10,1	9,8	1	1	1	1	1	1	1	1	1	0	1	-11,768851	275,49042	314,825798	0
15.01.2021	15:31:28	0	37,830908	3,163285	3,48675	303,1524	1,078	84,136	0	1015,74	8,2	10,1	9,6	1	1	1	1	1	1	1	1	1	0	1	-13,389711	275,367339	312,621675	0
15.01.2021	15:31:29	0	37,830908	4,857902	3,47625	313,5924	1,075	84,138	0	1015,6	8,2	10,1	9,6	1	1	1	1	1	1	1	1	1	0	1	-16,138125	275,447173	310,251493	0
15.01.2021	15:31:30	0	37,949873	4,29303	3,2865	311,5692	1,072	84,114	0	1015,58	8,2	10,1	9,6	1	1	1	1	1	1	1	1	1	0	1	-12,966878	275,447173	313,42274	0
15.01.2021	15:31:31	0	37,830908	2,485438	3,414	305,0748	1,074	84,122	0	1015,72	8,1	10,1	9,6	1	1	1	1	1	1	1	1	1	0	1	-13,953488	275,493628	312,65637	0
15.01.2021	15:31:32	0	37,949873	4,067081	3,5415	310,7196	1,071	84,127	0	1015,7	8,2	10,1	9,6	1	1	1	1	1	1	1	1	1	0	1	-14,65821	275,378496	311,406016	0
15.01.2021	15:31:33	0	37,949873	4,631953	3,4665	309,6288	1,07	84,136	0	1015,7	8,2	10,1	9,6	1	1	1	1	1	1	1	1	1	0	1	-17,336152	275,318006	308,441674	0
15.01.2021	15:31:34	0	37,830908	2,937336	3,28275	305,3376	1,069	84,125	0	1015,78	8,2	10,1	9,6	1	1	1	1	1	1	1	1	1	0	1	-14,940099	275,335497	310,920522	0
15.01.2021	15:31:35	0	37,949873	2,824362	3,14025	308,1456	1,074	84,115	0	1015,66	8,2	10,1	9,6	1	1	1	1	1	1	1	1	1	0	1	-15,997181	275,474391	310,521466	0
15.01.2021	15:31:36	0	37,711679	3,050311	3,14025	302,1768	1,073	84,127	0	1015,74	8,2	10	9,6	1	1	1	1	1	1	1	1	1	0	1	-14,940099	275,367339	311,071288	0
15.01.2021	15:31:37	0	38,068838	2,711387	2,964	309,2796	1,072	84,119	0	1015,8	8,2	10,1	9,6	1	1	1	1	1	1	1	1	1	0	1	-12,966878	275,300531	312,728245	0
15.01.2021	15:31:38	0	38,068838	3,163285	2,92575	311,4576	1,071	84,123	0	1015,78	8,2	10,1	9,6	1	1	1	1	1	1	1	1	1	0	1	-12,473573	275,367339	313,537813	0
15.01.2021	15:31:39	0	38,306768	3,050311	2,922	309,1968	1,066	84,121	0	1015,74	8,2	10,1	9,6	1	1	1	1	1	1	1	1	1	0	1	-15,503876	275,482404	311,052763	0
15.01.2021	15:31:40	0	37,711943	3,728157	2,98275	300,456	1,071	84,121	0	1015,74	8,2	10,1	9,6	1	1	1	1	1	1	1	1	1	0	1	-13,319239	275,389659	312,797863	0
15.01.2021	15:31:41	0	38,068838	4,067081	3,051	297,9612	1,069	84,11	0	1015,76	8,2	10,1	9,6	1	1	1	1	1	1	1	1	1	0	1	-12,544045	275,456775	313,891088	0
15.01.2021	15:31:42	0	37,592714	3,502208	3,132	289,5624	1,061	84,128	0	1015,7	8,2	10	9,6	1	1	1	1	1	1	1	1	1	0	1	-13,883016	275,333906	311,970074	0
15.01.2021	15:31:43	0	38,187803	4,744927	2,95725	302,8536	1,063	84,121	0	1015,68	8,2	10,1	9,6	1	1	1	1	1	1	1	1	1	0	1	-16,913319	275,42159	309,355059	0
15.01.2021	15:31:44	0	38,068838	3,841132	3,024	303,5556	1,065	84,128	0	1015,68	8,2	10,1	9,6	1	1	1	1	1	1	1	1	1	0	1	-10,641297	275,318006	315,13653	0
15.01.2021	15:31:45	0	38,187536	4,29303	3,14325	301,6476	1,072	84,134	0	1015,62	8,2	10	9,6	1	1	1	1	1	1	1	1	1	0	1	-15,785765	275,396041	310,361568	0
15.01.2021	15:31:46	0	37,711943	3,502208	3,1905	292,6368	1,066	84,131	0	1015,7	8,2	10,1	9,6	1	1	1	1	1	1	1	1	1	0	1	-10,359408	275,324365	315,448515	0
15.01.2021	15:31:47	0	37,830908	3,615183	3,1665	297,27	1,069	84,131	0	1015,78	8,2	10,1	9,6	1	1	1	1	1	1	1	1	1	0	1	-14,517266	275,364152	311,479031	0
15.01.2021	15:31:48	0	37,830908	2,824362	3,08175	318,384	1,063	84,117	0	1015,66	8,1	10,1	9,6	1	1	1	1	1	1	1	1	1	0	1	-14,023961	275,362559	311,964792	0
15.01.2021	15:31:49	0	38,068838	3,276259	3,15225	302,058	1,069	84,141	0	1015,68	8,2	10,1	9,6	1	1	1	1	1	1	1	1	1	0	1	-16,560958	275,471187	309,942497	0
15.01.2021	15:31:50	0	37,830643	4,857873	3,171	298,7316	1,068	84,138	0	1015,72	8,2	10	9,7	1	1	1	1	1	1	1	1	1	0	1	-10,500352	275,343452	315,397931	0
15.01.2021	15:31:51	0	37,949873	4,518979	3,10125	308,07	1,07	84,155	0	1015,52	8,2	10,1	9,6	1	1	1	1	1	1	1	1	1	0	1	-16,913319	275,432778	309,408078	0
15.01.2021	15:31:52	0	37,711943	2,485438	3,1485	309,978	1,068	84,161	0	1015,74	8,2	10,1	9,6	1	1	1	1	1	1	1	1	1	0	1	-16,983791	275,368932	309,035141	0
15.01.2021	15:31:53	0	37,949607	4,518979	2,99325	320,3856	1,07	84,154	0	1015,74	8,2	10	9,6	1	1	1	1	1	1	1	1	1	0	1	-11,698379	275,321185	314,094494	0
15.01.2021	15:31:54	0	37,592978	2,937336	2,799	298,0188	1,068	84,16	0	1015,78	8,2	10,1	9,6	1	1	1	1	1	1	1	1	1	0	1	-16,208598	275,348227	309,712293	0
15.01.2021	15:31:55	0	37,474013	2,711387	2,64975	317,358	1,069	84,146	0	1015,54	8,2	10,1	9,6	1	1	1	1	1	1	1	1	1	0	1	-14,376321	275,31165	311,371421	0
15.01.2021	15:31:56	0	37,830643	3,728157	2,55675	316,7604	1,06	84,153	0	1015,66	8,2	10	9,6	1	1	1	1	1	1	1	1	1	0	1	-15,503876	275,391255	310,620782	0
15.01.2021	15:31:57	0	37,949607	4,518979	2,5365	319,194	1,065	84,147	0	1015,8	8,2	10	9,6	1	1	1	1	1	1	1	1	1	0	1	-14,094433	275,327545	311,728543	0
15.01.2021	15:31:58	0	37,711943	4,406004	2,547	308,1168	1,065	84,166	0	1015,78	8,2	10,1	9,6	1	1	1	1	1	1	1	1	1	0	1	-18,322763	275,472789	308,188289	0
15.01.2021	15:31:59	0	37,949607	4,744927	2,45925	321,8616	1,06	84,139	0	1015,46	8,2	10	9,6	1	1	1	1	1	1	1	1	1	0	1	-17,618041	275,472789	308,89301	0
15.01.2021	15:32:00	0	37,830643	4,518979	2,11125	320,7672	1,064	84,152	0	1015,74	8,2	10	9,6	1	1	1	1	1	1	1	1	1	0	1	-19,309373	275,360966	306,671836	0
15.01.2021	15:32:01	0	37,830643	4,518979	2,11125	320,7672	1,064	84,152	0	1015,74	8,2	10	9,6	1	1	1	1	1	1	1	1	1	0	1	-15,292459	275,308472	310,440245	0
15.01.2021	15:32:02	0	37,711943	2,937336	2,208	323,73	1,066	84,141	0	1015,78	8,1	10,1	9,6	1	1	1	1	1	1	1	1	1	0	1	-15,64482	275,413603	310,585711	0
15.01.2021	15:32:03	0	37,354786	3,163285	2,35575	329,508	1,074	84,156	0	1015,78	8,2	10	9,6	1	1	1	1	1	1	1	1	1	0	1	-17,829457	275,283072	307,783052	0
15.01.2021	15:32:04	0	37,949873	4,744927	2,38425	314,0784	1,066	84,156	0	1015,82	8,1	10,1	9,6	1	1	1	1	1	1	1	1	1	0	1	-16,27907	275,418395	309,974168	0
15.01.2021	15:32:05	0	37,830643	2,598413	2,454	312,4908	1,064	84,142	0	1015,74	8,1	10	9,6	1	1	1	1	1	1	1	1	1	0	1	-14,869626	275,477596	311,664215	0
15.01.2021	15:32:06	0	37,711679	4,744927	2,505	315,954	1,069	84,159	0	1015,72	8,2	10	9,6	1	1	1	1	1	1	1	1	1	0	1	-14,446794	275,42159	311,821585	0
15.01.2021	15:32:07	0	37,711679	3,276259	2,38275	337,2516	1,066	84,153	0	1015,62	8,2	10	9,6	1	1	1	1	1	1	1	1	1	0	1	-16,067653	275,306884	309,657533	0
15.01.2021	15:32:08	0	37,474013	4,180055	2,181	314,7984	1,064	84,158	0	1015,72	8,2	10,1	9,6	1	1	1	1	1	1	1	1	1	0	1	-16,701903	275,373713	309,339673	0
15.01.2021	15:32:09	0	37,592978	3,502208	1,97475	308,1276	1,068	84,167	0	1015,72	8,1	10,1	9,6	1	1	1	1	1	1	1	1	1	0	1	-12,825934	275,305295	312,891736	0
15.01.2021	15:32:10	0	37,474013	2,824362	1,97775	297,9252	1,065	84,172	0	1015,56	8,2	10,1	9,6	1	1	1	1	1	1	1	1	1	0	1	-12,825934	275,413603	313,404597	0
15.01.2021	15:32:11	0	37,236082	3,163285	2,0625	306,8676	1,069	84,175	0	1015,66	8,1	10,1	9,6	1	1	1	1	1	1	1	1	1	0	1	-17,618041	275,308472	308,114663	0
15.01.2021	15:32:12	0	37,711679	4,631953	2,11575	303,9156	1,059	84,159	0	1015,6	8,2	10	9,6	1	1	1	1	1	1	1	1	1	0	1	-19,097956	275,437575	307,246174	0
15.01.2021	15:32:13	0	37,235821	2,824362	2,15775	301,5432	1,066	84,174	0	1015,6	8,2	10	9,6	1	1	1	1	1	1	1	1	1	0	1	-15,715292	275,472789	310,795759	0
15.01.2021	15:32:14	0	37,830643	3,163285	2,28375	306,2484	1,065	84,181	0	1015,66	8,2	10	9,6	1	1	1	1	1	1	1	1	1	0	1	-15,574348	275,458376	310,868373	0
15.01.2021	15:32:15	0	37,949607	4,29303	2,54925	315,2628	1,064	84,181	0	1015,66	8,1	10	9,6	1	1	1	1	1	1	1	1	1	0	1	-15,081043	275,48561	311,490797	0
15.01.2021	15:32:16	0	37,711943	3,954106	2,67975	309,5604	1,067	84,176	0	1015,56	8,1	10,1	9,6	1	1	1	1	1	1	1	1	1	0	1	-16,349542	275,440774	310,009748	0
15.01.2021	15:32:17	0	37,830908	3,615183	2,77875	320,4396	1,065	84,19	0	1015,64	8,2	10,1	9,6	1	1	1	1	1	1	1	1	1	0	1	-17,547569	275,442374	308,819302	0
15.01.2021	15:32:18	0	37,47375	3,276259	2,739	308,4804	1,065	84,183	0	1015,68	8,2	10	9,6	1	1	1	1	1	1	1	1	1	0	1	-11,839323	275,346636	314,074031	0
15.01.2021	15:32:19	0	37,354786	2,711387	2,646	305,406	1,061	84,185	0	1015,56	8,2	10	9,6	1	1	1	1	1	1	1	1	1	0	1	-15,64482	275,48561	310,92702	0
15.01.2021	15:32:20	0	37,474013	2,824362	2,559	317,4336	1,065	84,188	0	1015,52	8,2	10,1	9,6	1	1	1	1	1	1	1	1	1	0	1	-13,03735	275,364152	312,958946	0
15.01.2021	15:32:21	0	37,235821	3,389214	2,5065	323,334	1,061	84,193	0	1015,8	8,2	10	9,7	1	1	1	1	1	1	1	1	1	0	1	-16,420014	275,308472	309,31269	0
15.01.2021	15:32:22	0	37,355047	3,728157	2,403	320,4576	1,063	84,191	0	1015,78	8,1	10,1	9,6	1	1	1	1	1	1	1	1	1	0	1	-14,940099	275,423188	311,335852	0
15.01.2021	15:32:23	0	37,235821	3,050311	2,274	314,0856	1,063	84,183	0	1015,64	8,1	10	9,6	1	1	1	1	1	1	1	1	1	0	1	-17,547569	275,310061	308,192654	0
15.01.2021	15:32:24	0	37,592978	3,050311	2,15175	319,8348	1,063	84,181	0	1015,78	8,2	10,1	9,6	1	1	1	1	1	1	1	1	1	0	1	-11,768851	275,424786	314,514672	0
15.01.2021	15:32:25	0	37,592714	2,824362	2,043	325,6236	1,067	84,191	0	1015,64	8,1	10	9,6	1	1	1	1	1	1	1	1	1	0	1	-14,094433	275,467984	312,393835	0
15.01.2021	15:32:26	0	37,355047	3,615183	2,12625	329,6916	1,061	84,191	0	1015,52	8,1	10,1	9,6	1	1	1	1	1	1	1	1	1	0	1	-14,164905	275,370526	311,861575	0
15.01.2021	15:32:27	0	37,354786	3,276259	2,31225	340,5852	1,068	84,207	0	1015,8	8,1	10	9,6	1	1	1	1	1	1	1	1	1	0	1	-12,755462	275,310061	312,984761	0
15.01.2021	15:32:28	0	37,116857	3,728157	2,3535	324,3816	1,061	84,205	0	1015,66	8,2	10	9,6	1	1	1	1	1	1	1	1	1	0	1	-11,41649	275,357781	314,549635	0
15.01.2021	15:32:29	0	37,116857	2,259489	2,34525	330,7716	1,069	84,2	0	1015,74	8,2	10	9,6	1	1	1	1	1	1	1	1	1	0	1	-14,094433	275,297355	311,585663	0
15.01.2021	15:32:30	0	37,474013	4,518979	2,286	336,708	1,069	84,21	0	1015,74	8,2	10,1	9,6	1	1	1	1	1	1	1	1	1	0	1	-13,883016	275,365745	312,120825	0
15.01.2021	15:32:31	0	36,998152	2,824362	2,40225	334,2564	1,067	84,235	0	1015,86	8,2	10,1	9,6	1	1	1	1	1	1	1	1	1	0	1	-13,953488	275,488817	312,633557	0
15.01.2021	15:32:32	0	37,711679	4,631953	2,5845	338,382	1,064	84,215	0	1015,78	8,1	10	9,6	1	1	1	1	1	1	1	1	1	0	1	-14,517266	275,327545	311,30571	0
15.01.2021	15:32:33	0	37,235821	2,485438	2,79225	333,4896	1,064	84,221	0	1015,72	8,1	10	9,6	1	1	1	1	1	1	1	1	1	0	1	-17,406624	275,31165	308,341117	0
15.01.2021	15:32:34	0	37,47375	2,824345	3,0435	336,1464	1,071	84,215	0	1015,7	8,1	10	9,7	1	1	1	1	1	1	1	1	1	0	1	-14,164905	275,432778	312,156492	0
15.01.2021	15:32:35	0	37,116857	2,824362	3,22875	342,2916	1,061	84,223	0	1015,76	8,2	10	9,6	1	1	1	1	1	1	1	1	1	0	1	-11,205074	275,346636	314,70828	0
15.01.2021	15:32:36	0	37,354786	3,728135	2,96475	336,798	1,068	84,238	0	1015,62	8,2	10	9,7	1	1	1	1	1	1	1	1	1	0	1	-12,896406	275,367339	313,114981	0
15.01.2021	15:32:37	0	37,47375	3,050311	3,072	335,4588	1,063	84,242	0	1015,74	8,1	10	9,6	1	1	1	1	1	1	1	1	1	0	1	-13,530655	275,346636	312,382699	0
15.01.2021	15:32:38	0	37,235821	4,293004	3,1095	337,968	1,068	84,245	0	1015,76	8,2	10	9,7	1	1	1	1	1	1	1	1	1	0	1	-15,081043	275,31165	310,666699	0
15.01.2021	15:32:39	0	37,235821	3,728157	3,042	326,8188	1,07	84,257	0	1015,62	8,3	10	9,6	1	1	1	1	1	1	1	1	1	0	1	-14,446794	275,418395	311,806444	0
15.01.2021	15:32:40	0	37,116857	2,824362	2,805	318,744	1,065	84,256	0	1015,72	8,1	10	9,6	1	1	1	1	1	1	1	1	1	0	1	-10,007047	275,313239	315,748215	0
15.01.2021	15:32:41	0	37,236082	2,485438	2,6415	309,5496	1,066	84,262	0	1015,52	8,1	10,1	9,6	1	1	1	1	1	1	1	1	1	0	1	-14,869626	275,359373	311,10404	0
15.01.2021	15:32:42	0	37,117117	3,841109	2,67975	325,152	1,068	84,268	0	1015,72	8,1	10,1	9,7	1	1	1	1	1	1	1	1	1	0	1	-16,27907	275,332316	309,56649	0
15.01.2021	15:32:43	0	37,47375	4,631925	2,50575	301,1868	1,067	84,281	0	1015,76	8,2	10	9,7	1	1	1	1	1	1	1	1	1	0	1	-16,631431	275,349819	309,296997	0
15.01.2021	15:32:44	0	37,354786	3,954106	2,3715	310,6908	1,066	84,294	0	1015,8	8,1	10	9,6	1	1	1	1	1	1	1	1	1	0	1	-14,094433	275,305295	311,623237	0
15.01.2021	15:32:45	0	36,997893	3,163285	2,39625	320,0364	1,064	84,279	0	1015,72	8,3	10	9,6	1	1	1	1	1	1	1	1	1	0	1	-14,728682	275,458376	311,714039	0
15.01.2021	15:32:46	0	37,116857	3,389214	2,60625	328,5612	1,068	84,284	0	1015,88	8,2	10	9,7	1	1	1	1	1	1	1	1	1	0	1	-16,349542	275,373713	309,692034	0
15.01.2021	15:32:47	0	37,116857	4,744899	2,7945	315,1908	1,065	84,3	0	1015,84	8,2	10	9,7	1	1	1	1	1	1	1	1	1	0	1	-14,869626	275,482404	311,687012	0
15.01.2021	15:32:48	0	36,997893	2,485438	2,943	339,8436	1,064	84,283	0	1015,64	8,1	10	9,6	1	1	1	1	1	1	1	1	1	0	1	-11,205074	275,378496	314,859152	0
15.01.2021	15:32:49	0	37,116857	4,857873	2,94225	344,394	1,071	84,308	0	1015,72	8,1	10	9,7	1	1	1	1	1	1	1	1	1	0	1	-15,856237	275,493628	310,753622	0
15.01.2021	15:32:50	0	36,997893	4,970876	2,57025	355,0644	1,067	84,3	0	1015,62	8,1	10	9,6	1	1	1	1	1	1	1	1	1	0	1	-13,248767	275,432778	313,07263	0
15.01.2021	15:32:51	0	36,878929	2,824362	2,3265	299,8152	1,07	84,32	0	1015,8	8,1	10	9,6	1	1	1	1	1	1	1	1	1	0	1	-13,178295	275,479199	313,363145	0
15.01.2021	15:32:52	0	37,235821	4,518979	2,2815	322,9128	1,063	84,305	0	1015,78	8,2	10	9,6	1	1	1	1	1	1	1	1	1	0	1	-11,627907	275,496835	314,997164	0
15.01.2021	15:32:53	0	37,116857	3,841109	2,11425	303,174	1,065	84,306	0	1015,68	8,2	10	9,7	1	1	1	1	1	1	1	1	1	0	1	-17,124736	275,383279	308,962146	0
15.01.2021	15:32:54	0	36,759964	3,615183	2,046	312,8472	1,067	84,33	0	1015,78	8,2	10	9,6	1	1	1	1	1	1	1	1	1	0	1	-14,305849	275,48561	312,265991	0
15.01.2021	15:32:55	0	36,997893	4,29303	2,0655	322,2756	1,067	84,329	0	1015,7	8,2	10	9,6	1	1	1	1	1	1	1	1	1	0	1	-16,349542	275,373713	309,692034	0
15.01.2021	15:32:56	0	36,759964	2,372449	2,33175	291,5568	1,068	84,332	0	1015,82	8,2	10	9,7	1	1	1	1	1	1	1	1	1	0	1	-15,785765	275,49042	310,808884	0
15.01.2021	15:32:57	0	36,997893	3,615183	2,388	328,8924	1,076	84,334	0	1015,72	8,1	10	9,6	1	1	1	1	1	1	1	1	1	0	1	-13,742072	275,397637	312,412821	0
15.01.2021	15:32:58	0	36,759964	2,824345	2,151	297,4392	1,07	84,32	0	1015,74	8,1	10	9,7	1	1	1	1	1	1	1	1	1	0	1	-12,614517	275,321185	313,178356	0
15.01.2021	15:32:59	0	36,759964	3,615161	2,118	311,6952	1,07	84,333	0	1015,86	8,1	10	9,7	1	1	1	1	1	1	1	1	1	0	1	-13,03735	275,324365	312,770572	0
15.01.2021	15:33:00	0	36,997893	4,406004	2,4	306,432	1,064	84,335	0	1015,7	8,1	10	9,6	1	1	1	1	1	1	1	1	1	0	1	-15,926709	275,292593	309,730851	0
15.01.2021	15:33:01	0	36,997893	4,406004	2,4	306,432	1,064	84,335	0	1015,7	8,1	10	9,6	1	1	1	1	1	1	1	1	1	0	1	-15,362932	275,451973	311,04944	0
15.01.2021	15:33:02	0	36,878929	3,954082	2,3595	293,7096	1,069	84,355	0	1015,72	8,1	10	9,7	1	1	1	1	1	1	1	1	1	0	1	-16,27907	275,443973	310,095383	0
15.01.2021	15:33:03	0	37,235821	4,518951	2,41125	300,5028	1,065	84,356	0	1015,72	8,1	10	9,7	1	1	1	1	1	1	1	1	1	0	1	-13,953488	275,484007	312,610751	0
15.01.2021	15:33:04	0	36,878929	3,841132	2,49375	307,2564	1,068	84,351	0	1015,86	8,2	10	9,6	1	1	1	1	1	1	1	1	1	0	1	-13,6716	275,375307	312,377525	0
15.01.2021	15:33:05	0	36,759964	2,711371	2,51925	305,0676	1,075	84,363	0	1015,7	8,2	10	9,7	1	1	1	1	1	1	1	1	1	0	1	-17,688513	275,480801	308,860526	0
15.01.2021	15:33:06	0	36,641	4,744899	2,36625	298,7172	1,081	84,36	0	1015,74	8,1	10	9,7	1	1	1	1	1	1	1	1	1	0	1	-17,054264	275,381685	309,025066	0
15.01.2021	15:33:07	0	36,641	2,824362	2,14875	309,2796	1,071	84,354	0	1015,74	8,2	10	9,6	1	1	1	1	1	1	1	1	1	0	1	-9,513742	275,300531	316,181381	0
15.01.2021	15:33:08	0	36,759964	4,180055	2,0145	300,5784	1,068	84,347	0	1015,74	8,2	10	9,6	1	1	1	1	1	1	1	1	1	0	1	-15,785765	275,368932	310,233168	0
15.01.2021	15:33:09	0	36,522036	2,711371	1,93125	317,4336	1,074	84,351	0	1015,7	8,2	10	9,7	1	1	1	1	1	1	1	1	1	0	1	-15,221987	275,496835	311,403084	0
15.01.2021	15:33:10	0	36,759964	3,841109	1,866	312,2172	1,072	84,358	0	1015,8	8,2	10	9,7	1	1	1	1	1	1	1	1	1	0	1	-13,742072	275,364152	312,254224	0
15.01.2021	15:33:11	0	36,403071	3,276259	1,75575	300,258	1,067	84,343	0	1015,72	8,2	10	9,6	1	1	1	1	1	1	1	1	1	0	1	-15,362932	275,477596	311,17091	0
15.01.2021	15:33:12	0	36,641	4,18003	1,65225	293,4684	1,07	84,357	0	1015,68	8,2	10	9,7	1	1	1	1	1	1	1	1	1	0	1	-16,138125	275,434377	310,190849	0
15.01.2021	15:33:13	0	36,641	4,067056	1,533	283,266	1,071	84,353	0	1015,7	8,2	10	9,7	1	1	1	1	1	1	1	1	1	0	1	-16,631431	275,343452	309,266853	0
15.01.2021	15:33:14	0	36,759964	2,485423	1,39425	291,8412	1,073	84,354	0	1015,74	8,3	10	9,7	1	1	1	1	1	1	1	1	1	0	1	-19,168428	275,310061	306,571794	0
15.01.2021	15:33:15	0	37,235821	4,744927	1,41375	291,1716	1,066	84,354	0	1015,66	8,2	10	9,6	1	1	1	1	1	1	1	1	1	0	1	-16,772375	275,402425	309,405201	0
15.01.2021	15:33:16	0	36,641	4,631953	1,56225	285,5556	1,072	84,341	0	1015,7	8,1	10	9,6	1	1	1	1	1	1	1	1	1	0	1	-14,65821	275,42159	311,610169	0
15.01.2021	15:33:17	0	36,641	4,293004	1,66275	299,214	1,071	84,348	0	1015,66	8,2	10	9,7	1	1	1	1	1	1	1	1	1	0	1	-12,262156	275,305295	313,455513	0
15.01.2021	15:33:18	0	36,284107	2,485438	1,75125	290,8512	1,076	84,356	0	1015,72	8,1	10	9,6	1	1	1	1	1	1	1	1	1	0	1	-14,094433	275,43118	312,219388	0
15.01.2021	15:33:19	0	36,403071	2,711371	1,908	300,8556	1,066	84,351	0	1015,68	8,2	10	9,7	1	1	1	1	1	1	1	1	1	0	1	-16,138125	275,305295	309,579544	0
15.01.2021	15:33:20	0	36,403071	2,937318	2,03925	297,5832	1,071	84,351	0	1015,78	8,2	10	9,7	1	1	1	1	1	1	1	1	1	0	1	-18,675123	275,435976	307,661429	0
15.01.2021	15:33:21	0	36,165143	3,050292	2,09925	302,0796	1,071	84,339	0	1015,74	8,2	10	9,7	1	1	1	1	1	1	1	1	1	0	1	-15,503876	275,308472	310,228828	0
15.01.2021	15:33:22	0	36,641	4,29303	2,202	306,5112	1,069	84,329	0	1015,68	8,1	10	9,6	1	1	1	1	1	1	1	1	1	0	1	-13,530655	275,453574	312,889303	0
15.01.2021	15:33:23	0	36,403071	3,841109	2,2455	302,022	1,071	84,344	0	1015,74	8,1	10	9,7	1	1	1	1	1	1	1	1	1	0	1	-13,178295	275,343452	312,719989	0
15.01.2021	15:33:24	0	36,403071	4,067081	2,39025	312,444	1,068	84,332	0	1015,78	8,2	10	9,6	1	1	1	1	1	1	1	1	1	0	1	-12,614517	275,467984	313,87375	0
15.01.2021	15:33:25	0	36,522036	3,050292	2,436	317,8296	1,071	84,336	0	1015,76	8,2	10	9,7	1	1	1	1	1	1	1	1	1	0	1	-17,195208	275,49042	309,399441	0
15.01.2021	15:33:26	0	36,522036	4,518951	2,5695	309,2148	1,073	84,314	0	1015,68	8,2	10	9,7	1	1	1	1	1	1	1	1	1	0	1	-11,980268	275,435976	314,356284	0
15.01.2021	15:33:27	0	36,522036	2,824345	2,703	312,1884	1,07	84,319	0	1015,72	8,1	10	9,7	1	1	1	1	1	1	1	1	1	0	1	-17,336152	275,493628	309,273706	0
15.01.2021	15:33:28	0	36,641	4,293004	2,781	304,2504	1,07	84,301	0	1015,72	8,1	10	9,7	1	1	1	1	1	1	1	1	1	0	1	-10,641297	275,439175	315,710413	0
15.01.2021	15:33:29	0	36,165143	2,711371	2,679	293,4252	1,071	84,289	0	1015,6	8,2	10	9,7	1	1	1	1	1	1	1	1	1	0	1	-11,980268	275,488817	314,606778	0
15.01.2021	15:33:30	0	35,927214	3,728135	2,70975	285,5088	1,07	84,276	0	1015,66	8,2	10	9,7	1	1	1	1	1	1	1	1	1	0	1	-17,406624	275,435976	308,929928	0
15.01.2021	15:33:31	0	36,284107	3,163266	2,811	293,7564	1,064	84,277	0	1015,7	8,2	10	9,7	1	1	1	1	1	1	1	1	1	0	1	-13,03735	275,396041	313,109983	0
15.01.2021	15:33:32	0	36,641	4,518951	3,02325	308,07	1,071	84,278	0	1015,76	8,2	10	9,7	1	1	1	1	1	1	1	1	1	0	1	-14,235377	275,495231	312,382087	0
15.01.2021	15:33:33	0	36,284107	2,711371	2,994	308,1312	1,072	84,275	0	1015,76	8,2	10	9,7	1	1	1	1	1	1	1	1	1	0	1	-15,433404	275,343452	310,46488	0
15.01.2021	15:33:34	0	36,403071	4,293004	2,84775	312,5664	1,069	84,264	0	1015,82	8,2	10	9,7	1	1	1	1	1	1	1	1	1	0	1	-12,121212	275,300531	313,573911	0
15.01.2021	15:33:35	0	36,522036	4,406004	2,78175	296,5788	1,062	84,25	0	1015,64	8,2	10	9,6	1	1	1	1	1	1	1	1	1	0	1	-12,896406	275,477596	313,637435	0
15.01.2021	15:33:36	0	36,046179	3,841109	2,78625	314,424	1,072	84,245	0	1015,82	8,2	10	9,7	1	1	1	1	1	1	1	1	1	0	1	-10,147992	275,458376	316,29473	0
15.01.2021	15:33:37	0	36,046179	2,711387	2,6385	315,9504	1,071	84,241	0	1015,82	8,2	10	9,6	1	1	1	1	1	1	1	1	1	0	1	-11,486963	275,314828	314,27582	0
15.01.2021	15:33:38	0	36,165143	2,711387	2,505	300,9816	1,068	84,237	0	1015,78	8,3	10	9,6	1	1	1	1	1	1	1	1	1	0	1	-11,627907	275,376902	314,428768	0
15.01.2021	15:33:39	0	36,284107	4,518951	2,3895	317,7612	1,067	84,241	0	1015,78	8,2	10	9,7	1	1	1	1	1	1	1	1	1	0	1	-13,460183	275,298943	312,227426	0
15.01.2021	15:33:40	0	36,165143	3,615161	2,22675	291,5172	1,069	84,221	0	1015,88	8,1	10	9,7	1	1	1	1	1	1	1	1	1	0	1	-15,997181	275,475994	310,529063	0
15.01.2021	15:33:41	0	36,522036	4,631925	2,0775	293,4072	1,07	84,229	0	1015,72	8,2	10	9,7	1	1	1	1	1	1	1	1	1	0	1	-10,782241	275,455174	315,645304	0
15.01.2021	15:33:42	0	36,165143	4,067056	2,01075	297,5904	1,069	84,226	0	1015,62	8,2	10	9,7	1	1	1	1	1	1	1	1	1	0	1	-14,235377	275,471187	312,268079	0
15.01.2021	15:33:43	0	36,403071	4,405978	1,8225	311,1192	1,062	84,216	0	1015,8	8,2	10	9,7	1	1	1	1	1	1	1	1	1	0	1	-13,883016	275,474391	312,635631	0
15.01.2021	15:33:44	0	36,165143	3,050311	1,70325	321,8508	1,066	84,223	0	1015,8	8,2	10	9,6	1	1	1	1	1	1	1	1	1	0	1	-16,27907	275,4152	309,959029	0
15.01.2021	15:33:45	0	35,80825	3,728135	1,617	312,1812	1,064	84,228	0	1015,74	8,2	10	9,7	1	1	1	1	1	1	1	1	1	0	1	-13,460183	275,488817	313,126862	0
15.01.2021	15:33:46	0	36,165143	4,293004	1,6065	315,8532	1,062	84,224	0	1015,74	8,2	10	9,7	1	1	1	1	1	1	1	1	1	0	1	-10,852713	275,429581	315,453532	0
15.01.2021	15:33:47	0	35,927214	2,711371	1,52775	312,5124	1,072	84,233	0	1015,76	8,2	10	9,7	1	1	1	1	1	1	1	1	1	0	1	-12,966878	275,442374	313,399993	0
15.01.2021	15:33:48	0	35,927214	2,824345	1,44075	310,3668	1,068	84,237	0	1015,78	8,2	10	9,7	1	1	1	1	1	1	1	1	1	0	1	-12,121212	275,322775	313,679185	0
15.01.2021	15:33:49	0	36,165143	4,970847	1,44375	304,3296	1,066	84,233	0	1015,74	8,2	10	9,7	1	1	1	1	1	1	1	1	1	0	1	-15,715292	275,459977	310,735018	0
15.01.2021	15:33:50	0	35,689286	2,598397	1,5405	300,8376	1,067	84,215	0	1015,68	8,2	10	9,7	1	1	1	1	1	1	1	1	1	0	1	-13,953488	275,303707	311,756665	0
15.01.2021	15:33:51	0	36,165143	4,405978	1,66575	312,498	1,066	84,232	0	1015,7	8,2	10	9,7	1	1	1	1	1	1	1	1	1	0	1	-15,010571	275,435976	311,325981	0
15.01.2021	15:33:52	0	35,80825	2,372449	1,947	297,9648	1,068	84,237	0	1015,74	8,2	10	9,7	1	1	1	1	1	1	1	1	1	0	1	-13,953488	275,48561	312,618352	0
15.01.2021	15:33:53	0	35,689286	2,824345	2,00625	310,3776	1,066	84,227	0	1015,76	8,2	10	9,7	1	1	1	1	1	1	1	1	1	0	1	-11,980268	275,356188	313,978316	0
15.01.2021	15:33:54	0	36,046179	4,405978	1,9065	309,9204	1,059	84,236	0	1015,68	8,2	10	9,7	1	1	1	1	1	1	1	1	1	0	1	-12,121212	275,482404	314,435426	0
15.01.2021	15:33:55	0	35,689286	2,372449	1,85025	316,674	1,061	84,225	0	1015,76	8,2	10	9,7	1	1	1	1	1	1	1	1	1	0	1	-11,768851	275,356188	314,189733	0
15.01.2021	15:33:56	0	36,165143	4,744899	2,0325	320,4144	1,066	84,269	0	1015,94	8,2	10	9,7	1	1	1	1	1	1	1	1	1	0	1	-15,503876	275,474391	311,014771	0
15.01.2021	15:33:57	0	35,689286	3,050292	2,397	322,6104	1,067	84,235	0	1015,76	8,2	10	9,7	1	1	1	1	1	1	1	1	1	0	1	-14,094433	275,364152	311,901864	0
15.01.2021	15:33:58	0	35,927214	2,372449	2,77725	315,9252	1,069	84,226	0	1015,74	8,2	10	9,7	1	1	1	1	1	1	1	1	1	0	1	-12,896406	275,295768	312,776177	0
15.01.2021	15:33:59	0	35,927214	3,163266	3,087	318,4668	1,069	84,235	0	1015,86	8,2	10	9,7	1	1	1	1	1	1	1	1	1	0	1	-17,26568	275,435976	309,070872	0
15.01.2021	15:34:00	0	35,927214	3,615161	3,2235	315,5796	1,06	84,239	0	1015,78	8,2	10	9,7	1	1	1	1	1	1	1	1	1	0	1	-15,362932	275,313239	310,39233	0
15.01.2021	15:34:01	0	35,689286	2,711371	3,2595	312,1848	1,062	84,224	0	1015,78	8,2	10	9,7	1	1	1	1	1	1	1	1	1	0	1	-14,869626	275,375307	311,179498	0
15.01.2021	15:34:02	0	35,332393	3,728135	3,276	318,474	1,069	84,228	0	1015,66	8,2	10	9,7	1	1	1	1	1	1	1	1	1	0	1	-13,248767	275,480801	313,300272	0
15.01.2021	15:34:03	0	35,80825	2,711371	3,195	319,6188	1,066	84,254	0	1015,78	8,1	10	9,7	1	1	1	1	1	1	1	1	1	0	1	-14,235377	275,432778	312,08602	0
15.01.2021	15:34:04	0	36,046179	4,631925	3,1545	301,6872	1,07	84,235	0	1015,68	8,2	10	9,7	1	1	1	1	1	1	1	1	1	0	1	-17,970402	275,472789	308,540649	0
15.01.2021	15:34:05	0	35,689286	3,502187	3,249	316,6236	1,069	84,256	0	1015,68	8,2	10	9,7	1	1	1	1	1	1	1	1	1	0	1	-11,768851	275,43118	314,544969	0
15.01.2021	15:34:06	0	35,332393	2,485423	3,31725	317,8692	1,072	84,265	0	1015,72	8,2	10	9,7	1	1	1	1	1	1	1	1	1	0	1	-12,262156	275,308472	313,470548	0
15.01.2021	15:34:07	0	35,689286	4,293004	3,4425	318,5244	1,071	84,268	0	1015,82	8,2	10	9,7	1	1	1	1	1	1	1	1	1	0	1	-14,65821	275,501648	311,989686	0
15.01.2021	15:34:08	0	35,80825	3,27624	3,3465	316,044	1,068	84,26	0	1015,72	8,2	10	9,7	1	1	1	1	1	1	1	1	1	0	1	-13,389711	275,407215	312,810556	0
15.01.2021	15:34:09	0	35,451357	4,293004	3,1665	319,212	1,075	84,262	0	1015,72	8,2	10	9,7	1	1	1	1	1	1	1	1	1	0	1	-17,124736	275,495231	309,492729	0
15.01.2021	15:34:10	0	35,451357	4,405978	3,018	314,1072	1,064	84,265	0	1015,7	8,2	10	9,7	1	1	1	1	1	1	1	1	1	0	1	-16,983791	275,467984	309,504476	0
15.01.2021	15:34:11	0	35,451357	3,615161	2,901	315,1944	1,066	84,26	0	1015,74	8,2	10	9,7	1	1	1	1	1	1	1	1	1	0	1	-12,825934	275,318006	312,951893	0
15.01.2021	15:34:12	0	35,451357	3,841109	2,85225	317,7468	1,066	84,241	0	1015,82	8,2	10	9,7	1	1	1	1	1	1	1	1	1	0	1	-12,544045	275,360966	313,437164	0
15.01.2021	15:34:13	0	35,332393	4,18003	2,86125	321,1416	1,06	84,252	0	1015,66	8,2	10	9,7	1	1	1	1	1	1	1	1	1	0	1	-13,953488	275,313239	311,801773	0
15.01.2021	15:34:14	0	35,332393	2,824345	2,7825	315,234	1,067	84,268	0	1015,74	8,2	10	9,7	1	1	1	1	1	1	1	1	1	0	1	-14,305849	275,305295	311,41182	0
15.01.2021	15:34:15	0	35,332393	3,050311	2,74425	311,7528	1,07	84,262	0	1015,8	8,2	10	9,6	1	1	1	1	1	1	1	1	1	0	1	-13,178295	275,343452	312,719989	0
15.01.2021	15:34:16	0	35,570321	3,615161	2,6865	319,2084	1,065	84,25	0	1015,64	8,2	10	9,7	1	1	1	1	1	1	1	1	1	0	1	-11,980268	275,300531	313,714855	0
15.01.2021	15:34:17	0	35,451357	3,27624	2,721	308,8764	1,063	84,26	0	1015,7	8,2	10	9,7	1	1	1	1	1	1	1	1	1	0	1	-12,896406	275,396041	313,250927	0
15.01.2021	15:34:18	0	35,094464	3,27624	2,84625	302,7852	1,069	84,266	0	1015,9	8,2	10	9,7	1	1	1	1	1	1	1	1	1	0	1	-18,957012	275,324365	306,850911	0
15.01.2021	15:34:19	0	35,213429	2,937318	3,09225	302,8248	1,062	84,239	0	1015,78	8,2	10	9,7	1	1	1	1	1	1	1	1	1	0	1	-11,698379	275,464781	314,774703	0
15.01.2021	15:34:20	0	35,689286	4,631925	3,3885	310,0284	1,073	84,25	0	1015,72	8,2	10	9,7	1	1	1	1	1	1	1	1	1	0	1	-13,530655	275,378496	312,53357	0
15.01.2021	15:34:21	0	34,9755	3,050292	3,54975	309,276	1,07	84,245	0	1015,88	8,2	10	9,7	1	1	1	1	1	1	1	1	1	0	1	-14,446794	275,484007	312,117446	0
15.01.2021	15:34:22	0	35,332393	2,824345	3,477	309,6144	1,07	84,244	0	1015,78	8,2	10	9,7	1	1	1	1	1	1	1	1	1	0	1	-15,926709	275,450373	310,478078	0
15.01.2021	15:34:23	0	35,094464	3,954082	3,20625	314,8776	1,076	84,246	0	1015,82	8,2	10	9,7	1	1	1	1	1	1	1	1	1	0	1	-16,138125	275,472789	310,372926	0
15.01.2021	15:34:24	0	35,570321	4,405978	3,0615	320,0148	1,069	84,229	0	1015,78	8,2	10	9,7	1	1	1	1	1	1	1	1	1	0	1	-10,007047	275,408812	316,200784	0
15.01.2021	15:34:25	0	35,332393	2,937318	3,05925	317,7684	1,07	84,224	0	1015,7	8,2	10	9,7	1	1	1	1	1	1	1	1	1	0	1	-13,6716	275,302119	312,031038	0
15.01.2021	15:34:26	0	34,9755	3,27624	3,13575	321,48	1,063	84,213	0	1015,8	8,2	10	9,7	1	1	1	1	1	1	1	1	1	0	1	-13,742072	275,447173	312,647546	0
15.01.2021	15:34:27	0	35,332393	4,293004	3,603	315,18	1,061	84,217	0	1015,78	8,2	10	9,7	1	1	1	1	1	1	1	1	1	0	1	-14,587738	275,306884	311,137449	0
15.01.2021	15:34:28	0	35,094464	2,485423	4,11525	310,8348	1,066	84,212	0	1015,84	8,2	10	9,7	1	1	1	1	1	1	1	1	1	0	1	-18,25229	275,356188	307,706294	0
15.01.2021	15:34:29	0	35,213429	3,502187	4,22025	302,8464	1,069	84,21	0	1015,62	8,2	10	9,7	1	1	1	1	1	1	1	1	1	0	1	-13,107822	275,310061	312,6324	0
15.01.2021	15:34:30	0	35,332393	4,18003	4,69875	303,5196	1,068	84,212	0	1015,74	8,2	10	9,7	1	1	1	1	1	1	1	1	1	0	1	-13,883016	275,424786	312,400507	0
15.01.2021	15:34:31	0	35,094464	3,050292	4,725	306,4896	1,068	84,196	0	1015,66	8,2	10	9,7	1	1	1	1	1	1	1	1	1	0	1	-10,993658	275,313239	314,761604	0
15.01.2021	15:34:32	0	35,094464	3,163266	4,7145	304,362	1,065	84,202	0	1015,8	8,2	10	9,7	1	1	1	1	1	1	1	1	1	0	1	-15,715292	275,365745	310,288549	0
15.01.2021	15:34:33	0	34,856536	4,518951	4,74075	308,4948	1,073	84,211	0	1015,72	8,2	10	9,7	1	1	1	1	1	1	1	1	1	0	1	-14,305849	275,500044	312,334438	0
15.01.2021	15:34:34	0	34,9755	3,389214	4,45725	300,8124	1,067	84,22	0	1015,82	8,2	10	9,7	1	1	1	1	1	1	1	1	1	0	1	-9,795631	275,375307	316,253494	0
15.01.2021	15:34:35	0	34,737571	2,824345	4,4685	301,5936	1,066	84,21	0	1015,8	8,2	10	9,7	1	1	1	1	1	1	1	1	1	0	1	-16,420014	275,464781	310,053068	0
15.01.2021	15:34:36	0	34,856536	2,372449	4,89075	300,1644	1,065	84,208	0	1015,72	8,2	10	9,7	1	1	1	1	1	1	1	1	1	0	1	-11,839323	275,335497	314,021297	0
15.01.2021	15:34:37	0	34,499643	2,598397	5,33325	314,7804	1,064	84,203	0	1015,7	8,2	10	9,7	1	1	1	1	1	1	1	1	1	0	1	-15,433404	275,313239	310,321858	0
15.01.2021	15:34:38	0	34,856536	3,502187	5,484	290,8296	1,068	84,218	0	1015,76	8,2	10	9,7	1	1	1	1	1	1	1	1	1	0	1	-11,41649	275,357781	314,549635	0
15.01.2021	15:34:39	0	34,9755	4,631925	5,607	285,2604	1,066	84,212	0	1015,86	8,2	10	9,7	1	1	1	1	1	1	1	1	1	0	1	-11,980268	275,316417	313,790036	0
15.01.2021	15:34:40	0	34,9755	2,824345	5,37225	286,6752	1,07	84,201	0	1015,76	8,2	10	9,7	1	1	1	1	1	1	1	1	1	0	1	-14,094433	275,413603	312,136098	0
15.01.2021	15:34:41	0	34,856536	3,728135	5,35875	276,174	1,065	84,204	0	1015,76	8,2	10	9,7	1	1	1	1	1	1	1	1	1	0	1	-15,292459	275,314828	310,470323	0
15.01.2021	15:34:42	0	35,094464	4,970847	4,93575	321,4512	1,068	84,209	0	1015,76	8,2	10	9,7	1	1	1	1	1	1	1	1	1	0	1	-15,503876	275,463179	310,961615	0
15.01.2021	15:34:43	0	34,618607	4,518951	4,245	290,8512	1,069	84,188	0	1015,72	8,2	10	9,7	1	1	1	1	1	1	1	1	1	0	1	-13,742072	275,435976	312,59448	0
15.01.2021	15:34:44	0	34,618607	4,631925	3,9645	309,2544	1,067	84,168	0	1015,88	8,2	10	9,7	1	1	1	1	1	1	1	1	1	0	1	-15,362932	275,492024	311,239322	0
15.01.2021	15:34:45	0	34,856536	2,824345	3,8895	315,1872	1,068	84,186	0	1015,84	8,2	10	9,7	1	1	1	1	1	1	1	1	1	0	1	-15,151515	275,394446	310,988259	0
15.01.2021	15:34:46	0	34,9755	4,518951	3,67425	325,5768	1,067	84,18	0	1015,76	8,2	10	9,7	1	1	1	1	1	1	1	1	1	0	1	-11,134602	275,295768	314,537981	0
15.01.2021	15:34:47	0	34,856536	3,27624	3,345	324,8532	1,067	84,163	0	1015,76	8,2	10	9,7	1	1	1	1	1	1	1	1	1	0	1	-14,65821	275,466382	311,822465	0
15.01.2021	15:34:48	0	34,380679	2,711371	2,928	300,2616	1,06	84,171	0	1015,74	8,2	10	9,7	1	1	1	1	1	1	1	1	1	0	1	-13,883016	275,487213	312,696426	0
15.01.2021	15:34:49	0	34,737571	2,711371	3,108	300,0744	1,061	84,16	0	1015,76	8,2	10	9,7	1	1	1	1	1	1	1	1	1	0	1	-17,970402	275,356188	307,988182	0
15.01.2021	15:34:50	0	34,737571	4,857873	3,37575	345,7944	1,07	84,166	0	1015,64	8,2	10	9,7	1	1	1	1	1	1	1	1	1	0	1	-15,362932	275,487213	311,216511	0
15.01.2021	15:34:51	0	34,737571	4,518951	3,13575	299,106	1,066	84,163	0	1015,96	8,2	10	9,7	1	1	1	1	1	1	1	1	1	0	1	-16,560958	275,440774	309,798332	0
15.01.2021	15:34:52	0	34,9755	4,631925	3,06675	333,1728	1,062	84,169	0	1015,84	8,2	10	9,7	1	1	1	1	1	1	1	1	1	0	1	-14,094433	275,316417	311,675871	0
15.01.2021	15:34:53	0	34,618607	2,372449	3,1065	338,2884	1,067	84,157	0	1015,86	8,2	10	9,7	1	1	1	1	1	1	1	1	1	0	1	-15,292459	275,338679	310,583224	0
15.01.2021	15:34:54	0	34,618607	4,18003	3,1275	306,8352	1,065	84,162	0	1015,88	8,2	10	9,7	1	1	1	1	1	1	1	1	1	0	1	-12,614517	275,300531	313,080606	0
15.01.2021	15:34:55	0	34,499643	3,389214	2,69175	347,9688	1,071	84,167	0	1015,82	8,2	10	9,7	1	1	1	1	1	1	1	1	1	0	1	-13,812544	275,453574	312,607414	0
15.01.2021	15:34:56	0	34,499643	4,067081	2,136	325,9944	1,061	84,153	0	1015,66	8,2	10	9,6	1	1	1	1	1	1	1	1	1	0	1	-16,208598	275,332316	309,636962	0
15.01.2021	15:34:57	0	34,618607	2,824345	2,1105	308,8872	1,064	84,161	0	1015,7	8,2	10	9,7	1	1	1	1	1	1	1	1	1	0	1	-7,188161	275,362559	318,800592	0
15.01.2021	15:34:58	0	34,380679	3,841109	2,49825	343,0692	1,062	84,164	0	1015,82	8,2	10	9,7	1	1	1	1	1	1	1	1	1	0	1	-18,25229	275,329135	307,578212	0
15.01.2021	15:34:59	0	34,14275	3,502187	2,562	331,9632	1,059	84,164	0	1015,8	8,2	10	9,7	1	1	1	1	1	1	1	1	1	0	1	-12,544045	275,325954	313,271404	0
15.01.2021	15:35:00	0	34,261714	3,050292	2,86875	327,4992	1,064	84,163	0	1015,62	8,2	10	9,7	1	1	1	1	1	1	1	1	1	0	1	-14,235377	275,455174	312,192168	0
15.01.2021	15:35:01	0	34,261714	3,050292	2,86875	327,4992	1,064	84,163	0	1015,62	8,2	10	9,7	1	1	1	1	1	1	1	1	1	0	1	-13,812544	275,298943	311,875065	0
15.01.2021	15:35:02	0	34,618607	4,518951	3,003	335,3616	1,067	84,168	0	1015,62	8,2	10	9,7	1	1	1	1	1	1	1	1	1	0	1	-14,869626	275,435976	311,466925	0
15.01.2021	15:35:03	0	34,618607	4,631925	3,02775	331,5312	1,066	84,165	0	1015,7	8,2	10	9,7	1	1	1	1	1	1	1	1	1	0	1	-14,164905	275,318006	311,612921	0
15.01.2021	15:35:04	0	34,380679	3,163266	3,19575	324,3708	1,066	84,166	0	1015,76	8,2	10	9,7	1	1	1	1	1	1	1	1	1	0	1	-13,6716	275,300531	312,023523	0
15.01.2021	15:35:05	0	34,380679	4,293004	3,507	313,344	1,066	84,174	0	1015,74	8,2	10	9,7	1	1	1	1	1	1	1	1	1	0	1	-8,45666	275,370526	317,56982	0
15.01.2021	15:35:06	0	33,904821	3,389234	4,023	319,9284	1,063	84,187	0	1015,8	8,2	10	9,6	1	1	1	1	1	1	1	1	1	0	1	-13,530655	275,314828	312,232127	0
15.01.2021	15:35:07	0	34,618607	4,29303	4,2105	321,9552	1,066	84,164	0	1015,86	8,2	10	9,6	1	1	1	1	1	1	1	1	1	0	1	-13,389711	275,351411	312,546255	0
15.01.2021	15:35:08	0	33,904821	2,485423	4,413	329,6916	1,065	84,177	0	1015,8	8,2	10	9,7	1	1	1	1	1	1	1	1	1	0	1	-9,866103	275,31165	315,881639	0
15.01.2021	15:35:09	0	34,261714	3,728157	4,74825	332,0856	1,066	84,172	0	1015,74	8,2	10	9,6	1	1	1	1	1	1	1	1	1	0	1	-16,208598	275,399233	309,953855	0
15.01.2021	15:35:10	0	33,785857	2,711371	5,00775	325,1736	1,068	84,178	0	1015,78	8,2	10	9,7	1	1	1	1	1	1	1	1	1	0	1	-10,641297	275,333906	315,211793	0
15.01.2021	15:35:11	0	34,14275	3,163266	5,37975	322,6104	1,068	84,174	0	1015,7	8,2	10	9,7	1	1	1	1	1	1	1	1	1	0	1	-11,980268	275,375307	314,068857	0
15.01.2021	15:35:12	0	34,14275	4,405978	5,358	322,5744	1,066	84,179	0	1015,76	8,2	10	9,7	1	1	1	1	1	1	1	1	1	0	1	-7,82241	275,319595	317,962939	0
15.01.2021	15:35:13	0	33,785857	2,03354	5,082	325,926	1,067	84,182	0	1015,68	8,2	10	9,6	1	1	1	1	1	1	1	1	1	0	1	-14,094433	275,332316	311,751127	0
15.01.2021	15:35:14	0	34,023786	4,406004	4,88025	322,8912	1,067	84,184	0	1015,86	8,2	10	9,6	1	1	1	1	1	1	1	1	1	0	1	-18,816068	275,419992	307,44474	0
15.01.2021	15:35:15	0	34,023786	4,857902	4,97925	323,3196	1,064	84,18	0	1015,82	8,2	10	9,6	1	1	1	1	1	1	1	1	1	0	1	-15,715292	275,480801	310,833746	0
15.01.2021	15:35:16	0	33,785857	3,389214	4,9995	324,072	1,07	84,176	0	1015,66	8,2	10	9,7	1	1	1	1	1	1	1	1	1	0	1	-12,825934	275,348227	313,094957	0
15.01.2021	15:35:17	0	33,666893	2,372449	4,86825	326,7504	1,07	84,186	0	1015,86	8,2	10	9,7	1	1	1	1	1	1	1	1	1	0	1	-17,477097	275,300531	308,218026	0
15.01.2021	15:35:18	0	34,14275	3,615161	4,8135	330,696	1,069	84,178	0	1015,74	8,2	10	9,7	1	1	1	1	1	1	1	1	1	0	1	-13,601128	275,375307	312,447997	0
15.01.2021	15:35:19	0	33,904821	4,857873	4,94925	327,8088	1,068	84,147	0	1015,82	8,2	10	9,7	1	1	1	1	1	1	1	1	1	0	1	-13,742072	275,474391	312,776575	0
15.01.2021	15:35:20	0	34,023786	4,406004	5,20275	330,7572	1,064	84,165	0	1015,76	8,2	10	9,6	1	1	1	1	1	1	1	1	1	0	1	-15,574348	275,434377	310,754626	0
15.01.2021	15:35:21	0	33,666893	2,485423	5,4615	330,1092	1,071	84,164	0	1015,84	8,2	10	9,7	1	1	1	1	1	1	1	1	1	0	1	-8,738548	275,330725	317,099483	0
15.01.2021	15:35:22	0	33,904821	3,163285	5,5125	332,0496	1,068	84,17	0	1015,76	8,2	10	9,6	1	1	1	1	1	1	1	1	1	0	1	-15,433404	275,300531	310,261719	0
15.01.2021	15:35:23	0	33,904821	2,711387	5,532	332,0064	1,066	84,144	0	1015,74	8,2	10	9,6	1	1	1	1	1	1	1	1	1	0	1	-11,205074	275,429581	315,101171	0
15.01.2021	15:35:24	0	33,904821	2,937336	5,6055	332,0388	1,062	84,146	0	1015,6	8,2	10	9,6	1	1	1	1	1	1	1	1	1	0	1	-12,332629	275,303707	313,377524	0
15.01.2021	15:35:25	0	33,904821	3,27624	5,62875	328,2696	1,069	84,153	0	1015,78	8,2	10	9,7	1	1	1	1	1	1	1	1	1	0	1	-15,292459	275,357781	310,673666	0
15.01.2021	15:35:26	0	33,666893	2,937318	5,616	332,0856	1,066	84,151	0	1015,78	8,2	10	9,7	1	1	1	1	1	1	1	1	1	0	1	-14,517266	275,484007	312,046973	0
15.01.2021	15:35:27	0	33,904821	4,067081	5,6625	331,2684	1,067	84,147	0	1015,78	8,2	10	9,6	1	1	1	1	1	1	1	1	1	0	1	-13,530655	275,291006	312,119394	0
15.01.2021	15:35:28	0	33,785857	2,937318	5,65875	332,0388	1,062	84,134	0	1015,74	8,2	10	9,7	1	1	1	1	1	1	1	1	1	0	1	-13,03735	275,34027	312,845866	0
15.01.2021	15:35:29	0	33,904821	3,276259	5,4795	340,2612	1,065	84,122	0	1015,7	8,2	10	9,6	1	1	1	1	1	1	1	1	1	0	1	-15,081043	275,49042	311,513606	0
15.01.2021	15:35:30	0	33,547929	2,372464	5,27925	347,2524	1,06	84,144	0	1015,66	8,2	10	9,6	1	1	1	1	1	1	1	1	1	0	1	-10,711769	275,407215	315,488498	0
15.01.2021	15:35:31	0	33,666893	4,18003	5,24175	343,584	1,066	84,14	0	1015,64	8,2	10	9,7	1	1	1	1	1	1	1	1	1	0	1	-13,601128	275,480801	312,947911	0
15.01.2021	15:35:32	0	33,785857	4,293004	5,33325	351,0612	1,065	84,142	0	1015,78	8,2	10	9,7	1	1	1	1	1	1	1	1	1	0	1	-14,305849	275,416797	311,939819	0
15.01.2021	15:35:33	0	33,666893	4,067081	5,3265	345,3588	1,065	84,126	0	1015,78	8,2	10	9,6	1	1	1	1	1	1	1	1	1	0	1	-11,346018	275,305295	314,371651	0
15.01.2021	15:35:34	0	33,428964	3,27624	5,268	338,3964	1,059	84,128	0	1015,68	8,2	10	9,7	1	1	1	1	1	1	1	1	1	0	1	-10,711769	275,450373	315,693018	0
15.01.2021	15:35:35	0	33,666893	3,389214	5,0535	338,3748	1,058	84,128	0	1015,7	8,2	10	9,7	1	1	1	1	1	1	1	1	1	0	1	-14,65821	275,337088	311,209941	0
15.01.2021	15:35:36	0	33,666893	3,728135	5,04075	340,938	1,065	84,143	0	1015,8	8,2	10	9,7	1	1	1	1	1	1	1	1	1	0	1	-12,262156	275,467984	314,226111	0
15.01.2021	15:35:37	0	33,428964	3,841132	5,05125	334,2348	1,07	84,137	0	1015,76	8,2	10	9,6	1	1	1	1	1	1	1	1	1	0	1	-13,460183	275,475994	313,066061	0
15.01.2021	15:35:38	0	33,666893	2,711387	4,797	340,9704	1,066	84,122	0	1015,68	8,2	10	9,6	1	1	1	1	1	1	1	1	1	0	1	-15,221987	275,329135	310,608516	0
15.01.2021	15:35:39	0	33,31	4,067056	4,581	332,8092	1,065	84,131	0	1015,82	8,2	10	9,7	1	1	1	1	1	1	1	1	1	0	1	-11,41649	275,467984	315,071777	0
15.01.2021	15:35:40	0	33,547929	4,29303	4,74975	326,358	1,06	84,114	0	1015,68	8,2	10	9,6	1	1	1	1	1	1	1	1	1	0	1	-14,094433	275,418395	312,158805	0
15.01.2021	15:35:41	0	33,547929	3,954106	4,91475	328,9392	1,059	84,12	0	1015,76	8,2	10	9,6	1	1	1	1	1	1	1	1	1	0	1	-10,993658	275,480801	315,555381	0
15.01.2021	15:35:42	0	33,547929	3,502187	4,896	328,7556	1,064	84,111	0	1015,68	8,2	10	9,7	1	1	1	1	1	1	1	1	1	0	1	-14,235377	275,424786	312,048146	0
15.01.2021	15:35:43	0	33,31	4,29303	4,71375	331,5744	1,064	84,114	0	1015,76	8,2	10	9,6	1	1	1	1	1	1	1	1	1	0	1	-12,755462	275,480801	313,793577	0
15.01.2021	15:35:44	0	33,191036	2,711387	4,81125	323,7444	1,059	84,114	0	1015,86	8,2	10	9,6	1	1	1	1	1	1	1	1	1	0	1	-14,587738	275,418395	311,6655	0
15.01.2021	15:35:45	0	33,31	3,163285	4,80975	328,9716	1,064	84,127	0	1016,18	8,2	10	9,6	1	1	1	1	1	1	1	1	1	0	1	-13,178295	275,31165	312,569447	0
15.01.2021	15:35:46	0	33,191036	3,954082	4,62825	314,586	1,063	84,13	0	1015,74	8,2	10	9,7	1	1	1	1	1	1	1	1	1	0	1	-15,856237	275,477596	310,677605	0
15.01.2021	15:35:47	0	32,953107	2,372464	4,41675	328,986	1,065	84,122	0	1015,66	8,2	10	9,6	1	1	1	1	1	1	1	1	1	0	1	-13,530655	275,440774	312,828635	0
15.01.2021	15:35:48	0	33,428964	4,857902	3,91425	336,1212	1,065	84,123	0	1015,84	8,2	10	9,6	1	1	1	1	1	1	1	1	1	0	1	-14,940099	275,463179	311,525392	0
15.01.2021	15:35:49	0	33,072303	2,824362	4,14975	332,46	1,065	84,141	0	1015,9	8,2	10,1	9,6	1	1	1	1	1	1	1	1	1	0	1	-11,205074	275,306884	314,520112	0
15.01.2021	15:35:50	0	32,715408	2,711387	4,227	330,4296	1,06	84,118	0	1015,72	8,2	10,1	9,6	1	1	1	1	1	1	1	1	1	0	1	-11,134602	275,308472	314,598102	0
15.01.2021	15:35:51	0	33,191036	3,615183	4,2495	332,5068	1,067	84,145	0	1015,86	8,2	10	9,6	1	1	1	1	1	1	1	1	1	0	1	-13,6716	275,349819	312,256828	0
15.01.2021	15:35:52	0	33,429198	4,067081	4,34025	334,242	1,066	84,142	0	1015,82	8,2	10,1	9,6	1	1	1	1	1	1	1	1	1	0	1	-13,107822	275,31165	312,639919	0
15.01.2021	15:35:53	0	32,953107	3,728157	4,3005	339,4908	1,068	84,138	0	1015,72	8,2	10	9,6	1	1	1	1	1	1	1	1	1	0	1	-15,715292	275,407215	310,484974	0
15.01.2021	15:35:54	0	33,31	4,631953	4,29225	334,908	1,066	84,152	0	1015,84	8,2	10	9,6	1	1	1	1	1	1	1	1	1	0	1	-14,023961	275,469585	312,471901	0
15.01.2021	15:35:55	0	32,834143	2,598397	4,332	333,216	1,068	84,146	0	1015,78	8,2	10	9,7	1	1	1	1	1	1	1	1	1	0	1	-10,782241	275,429581	315,524004	0
15.01.2021	15:35:56	0	33,191268	2,711387	4,3695	334,6344	1,063	84,143	0	1015,68	8,2	10,1	9,6	1	1	1	1	1	1	1	1	1	0	1	-10,782241	275,297355	314,897854	0
15.01.2021	15:35:57	0	33,191036	4,518979	4,33575	327,3948	1,07	84,163	0	1015,84	8,2	10	9,6	1	1	1	1	1	1	1	1	1	0	1	-12,262156	275,345044	313,643662	0
15.01.2021	15:35:58	0	32,834143	4,18003	4,25925	327,2292	1,061	84,157	0	1015,8	8,1	10	9,7	1	1	1	1	1	1	1	1	1	0	1	-16,067653	275,474391	310,450994	0
15.01.2021	15:35:59	0	32,834143	3,389234	4,2195	323,7084	1,067	84,161	0	1015,78	8,2	10	9,6	1	1	1	1	1	1	1	1	1	0	1	-10,993658	275,426384	315,297439	0
15.01.2021	15:36:00	0	32,953107	4,180055	4,12725	319,3668	1,07	84,167	0	1015,66	8,2	10	9,6	1	1	1	1	1	1	1	1	1	0	1	-10,923185	275,295768	314,749398	0
15.01.2021	15:36:01	0	32,953107	4,180055	4,12725	319,3668	1,07	84,167	0	1015,66	8,2	10	9,6	1	1	1	1	1	1	1	1	1	0	1	-10,993658	275,351411	314,942308	0
15.01.2021	15:36:02	0	32,953107	4,631953	4,098	319,212	1,072	84,171	0	1015,92	8,2	10	9,6	1	1	1	1	1	1	1	1	1	0	1	-9,795631	275,453574	316,624327	0
15.01.2021	15:36:03	0	32,953107	4,406004	4,0425	320,4468	1,064	84,17	0	1015,8	8,2	10	9,6	1	1	1	1	1	1	1	1	1	0	1	-13,460183	275,43118	312,853638	0
15.01.2021	15:36:04	0	32,953107	3,163285	3,84	323,694	1,075	84,183	0	1015,72	8,2	10	9,6	1	1	1	1	1	1	1	1	1	0	1	-15,010571	275,4152	311,227528	0
15.01.2021	15:36:05	0	32,715408	3,954106	3,681	326,6712	1,07	84,188	0	1015,78	8,2	10,1	9,6	1	1	1	1	1	1	1	1	1	0	1	-10,007047	275,459977	316,443263	0
15.01.2021	15:36:06	0	32,715408	3,502208	3,49875	317,4552	1,066	84,186	0	1015,76	8,2	10,1	9,6	1	1	1	1	1	1	1	1	1	0	1	-15,362932	275,440774	310,996358	0
15.01.2021	15:36:07	0	32,596214	3,954106	3,27525	316,746	1,067	84,152	0	1015,76	8,2	10	9,6	1	1	1	1	1	1	1	1	1	0	1	-12,684989	275,34027	313,198227	0
15.01.2021	15:36:08	0	32,596443	3,050311	3,15525	321,8724	1,07	84,181	0	1015,8	8,2	10,1	9,6	1	1	1	1	1	1	1	1	1	0	1	-7,399577	275,310061	318,340645	0
15.01.2021	15:36:09	0	32,715408	4,180055	3,05475	318,1392	1,068	84,181	0	1015,88	8,2	10,1	9,6	1	1	1	1	1	1	1	1	1	0	1	-9,725159	275,408812	316,482673	0
15.01.2021	15:36:10	0	32,239321	2,485438	2,9925	319,302	1,069	84,175	0	1015,8	8,2	10	9,6	1	1	1	1	1	1	1	1	1	0	1	-13,742072	275,321185	312,050801	0
15.01.2021	15:36:11	0	32,953107	4,518979	2,952	324,4536	1,065	84,184	0	1015,72	8,2	10	9,6	1	1	1	1	1	1	1	1	1	0	1	-10,782241	275,475994	315,744003	0
15.01.2021	15:36:12	0	32,596214	2,598413	2,937	318,7872	1,07	84,166	0	1015,8	8,2	10	9,6	1	1	1	1	1	1	1	1	1	0	1	-11,768851	275,31165	313,978891	0
15.01.2021	15:36:13	0	32,953338	3,841132	2,87775	318,1464	1,066	84,164	0	1015,7	8,2	10,1	9,6	1	1	1	1	1	1	1	1	1	0	1	-15,221987	275,456775	311,213145	0
15.01.2021	15:36:14	0	32,358286	3,502208	2,73375	326,8116	1,073	84,165	0	1015,68	8,2	10	9,6	1	1	1	1	1	1	1	1	1	0	1	-12,473573	275,348227	313,447318	0
15.01.2021	15:36:15	0	32,358512	2,937336	2,646	322,6608	1,073	84,167	0	1015,86	8,2	10,1	9,6	1	1	1	1	1	1	1	1	1	0	1	-10,359408	275,306884	315,365778	0
15.01.2021	15:36:16	0	32,715179	2,711387	2,7165	316,2996	1,066	84,165	0	1015,74	8,2	10	9,6	1	1	1	1	1	1	1	1	1	0	1	-9,725159	275,332316	316,120401	0
15.01.2021	15:36:17	0	32,596214	4,744927	3,0045	316,728	1,072	84,165	0	1015,76	8,2	10	9,6	1	1	1	1	1	1	1	1	1	0	1	-14,305849	275,318006	311,471977	0
15.01.2021	15:36:18	0	32,715408	4,180055	3,0495	314,1468	1,069	84,179	0	1015,66	8,2	10,1	9,6	1	1	1	1	1	1	1	1	1	0	1	-10,500352	275,305295	315,217317	0
15.01.2021	15:36:19	0	32,953107	4,518979	2,994	316,3104	1,071	84,178	0	1015,78	8,2	10	9,6	1	1	1	1	1	1	1	1	1	0	1	-13,460183	275,410408	312,755214	0
15.01.2021	15:36:20	0	32,47725	4,406004	3,06525	317,4192	1,066	84,156	0	1015,68	8,2	10	9,6	1	1	1	1	1	1	1	1	1	0	1	-14,587738	275,466382	311,892937	0
15.01.2021	15:36:21	0	32,239547	3,728157	3,2445	325,548	1,073	84,223	0	1015,66	8,2	10,1	9,6	1	1	1	1	1	1	1	1	1	0	1	-17,829457	275,461578	308,628443	0
15.01.2021	15:36:22	0	32,358286	3,163285	3,2475	318,6468	1,065	84,16	0	1016,04	8,2	10	9,6	1	1	1	1	1	1	1	1	1	0	1	-10,007047	275,357781	315,959078	0
15.01.2021	15:36:23	0	32,715408	4,518979	3,10275	315,558	1,066	84,157	0	1015,7	8,2	10,1	9,6	1	1	1	1	1	1	1	1	1	0	1	-15,362932	275,477596	311,17091	0
15.01.2021	15:36:24	0	32,239547	2,259476	2,874	314,4528	1,068	84,158	0	1015,82	8,2	10,1	9,7	1	1	1	1	1	1	1	1	1	0	1	-16,067653	275,345044	309,838165	0
15.01.2021	15:36:25	0	31,882429	2,372464	2,9925	317,3904	1,065	84,146	0	1015,76	8,1	10	9,6	1	1	1	1	1	1	1	1	1	0	1	-11,134602	275,324365	314,673321	0
15.01.2021	15:36:26	0	32,596443	4,744927	3,23175	321,516	1,068	84,171	0	1015,88	8,2	10,1	9,6	1	1	1	1	1	1	1	1	1	0	1	-15,503876	275,456775	310,931257	0
15.01.2021	15:36:27	0	32,239547	5,083851	3,348	327,7944	1,066	84,143	0	1015,72	8,2	10,1	9,6	1	1	1	1	1	1	1	1	1	0	1	-11,980268	275,488817	314,606778	0
15.01.2021	15:36:28	0	32,358512	2,598413	3,28275	321,84	1,065	84,147	0	1015,74	8,1	10,1	9,6	1	1	1	1	1	1	1	1	1	0	1	-15,926709	275,316417	309,843595	0
15.01.2021	15:36:29	0	32,001617	3,728157	3,37725	322,5924	1,065	84,142	0	1015,76	8,2	10,1	9,6	1	1	1	1	1	1	1	1	1	0	1	-11,275546	275,416797	314,970122	0
15.01.2021	15:36:30	0	32,001617	2,598413	3,35175	322,8804	1,067	84,145	0	1015,88	8,2	10,1	9,6	1	1	1	1	1	1	1	1	1	0	1	-7,399577	275,330725	318,438454	0
15.01.2021	15:36:31	0	32,120357	2,598413	3,5265	321,9264	1,067	84,122	0	1015,94	8,2	10	9,6	1	1	1	1	1	1	1	1	1	0	1	-9,372798	275,337088	316,495354	0
15.01.2021	15:36:32	0	32,001617	2,711387	3,57225	316,2888	1,066	84,122	0	1015,7	8,1	10,1	9,6	1	1	1	1	1	1	1	1	1	0	1	-14,728682	275,316417	311,041622	0
15.01.2021	15:36:33	0	32,120357	4,518979	3,4245	322,2504	1,068	84,142	0	1015,8	8,1	10	9,6	1	1	1	1	1	1	1	1	1	0	1	-10,993658	275,375307	315,055467	0
15.01.2021	15:36:34	0	32,358512	3,276259	3,3825	338,7672	1,071	84,126	0	1015,78	8,2	10,1	9,6	1	1	1	1	1	1	1	1	1	0	1	-11,486963	275,295768	314,18562	0
15.01.2021	15:36:35	0	32,001617	2,03354	3,32925	332,0172	1,065	84,122	0	1015,76	8,2	10,1	9,6	1	1	1	1	1	1	1	1	1	0	1	-10,218464	275,378496	315,845762	0
15.01.2021	15:36:36	0	32,239547	4,067081	3,606	333,1368	1,068	84,102	0	1015,84	8,2	10,1	9,6	1	1	1	1	1	1	1	1	1	0	1	-12,403101	275,467984	314,085167	0
15.01.2021	15:36:37	0	32,001617	2,937336	3,74775	334,9836	1,07	84,106	0	1015,84	8,2	10,1	9,6	1	1	1	1	1	1	1	1	1	0	1	-13,319239	275,332316	312,526321	0
15.01.2021	15:36:38	0	32,239773	4,518979	3,5625	330,3288	1,069	84,098	0	1015,76	8,2	9,8	9,6	1	1	1	1	1	1	1	1	1	0	1	-17,124736	275,418395	309,128502	0
15.01.2021	15:36:39	0	32,001617	5,08382	3,42	328,23	1,068	84,104	0	1015,9	8,2	10,1	9,7	1	1	1	1	1	1	1	1	1	0	1	-11,839323	275,466382	314,641351	0
15.01.2021	15:36:40	0	31,882652	2,711387	3,36375	328,5936	1,069	84,096	0	1015,82	8,1	10,1	9,6	1	1	1	1	1	1	1	1	1	0	1	-6,8358	275,42159	319,432579	0
15.01.2021	15:36:41	0	31,763687	3,389234	3,303	325,278	1,063	84,089	0	1015,84	8,2	10,1	9,6	1	1	1	1	1	1	1	1	1	0	1	-8,597604	275,332316	317,247956	0
15.01.2021	15:36:42	0	31,644722	3,954106	3,30975	330,0696	1,059	84,084	0	1015,82	8,1	10,1	9,6	1	1	1	1	1	1	1	1	1	0	1	-9,44327	275,281485	316,161734	0
15.01.2021	15:36:43	0	31,763687	5,083851	3,402	330,75	1,066	84,08	0	1015,82	8,1	10,1	9,6	1	1	1	1	1	1	1	1	1	0	1	-15,997181	275,405618	310,195521	0
15.01.2021	15:36:44	0	31,882652	4,180055	3,37275	339,0156	1,062	84,083	0	1015,72	8,1	10,1	9,6	1	1	1	1	1	1	1	1	1	0	1	-13,107822	275,475994	313,418421	0
15.01.2021	15:36:45	0	32,239547	4,631953	3,32625	335,4192	1,062	84,065	0	1015,7	8,2	10,1	9,6	1	1	1	1	1	1	1	1	1	0	1	-15,926709	275,424786	310,356814	0
15.01.2021	15:36:46	0	32,120582	4,29303	3,237	322,2324	1,06	84,069	0	1015,68	8,2	10,1	9,6	1	1	1	1	1	1	1	1	1	0	1	-9,302326	275,432778	317,019071	0
15.01.2021	15:36:47	0	31,882875	4,970876	3,17775	330,75	1,063	84,084	0	1015,82	8,2	9,8	9,6	1	1	1	1	1	1	1	1	1	0	1	-13,389711	275,479199	313,151729	0
15.01.2021	15:36:48	0	32,120357	2,824362	3,10425	332,4564	1,067	84,069	0	1015,72	8,2	10	9,6	1	1	1	1	1	1	1	1	1	0	1	-13,883016	275,362559	312,105736	0
15.01.2021	15:36:49	0	31,644722	3,841132	2,92275	328,0968	1,068	84,086	0	1015,8	8,1	10,1	9,6	1	1	1	1	1	1	1	1	1	0	1	-12,05074	275,292593	313,60682	0
15.01.2021	15:36:50	0	31,763687	2,937336	2,78025	327,0888	1,068	84,079	0	1015,82	8,2	10,1	9,6	1	1	1	1	1	1	1	1	1	0	1	-6,976744	275,370526	319,049735	0
15.01.2021	15:36:51	0	31,644722	2,485438	2,68875	327,906	1,063	84,077	0	1015,78	8,2	10,1	9,6	1	1	1	1	1	1	1	1	1	0	1	-11,346018	275,289419	314,296522	0
15.01.2021	15:36:52	0	32,239547	4,518979	2,6955	331,1532	1,066	84,061	0	1015,82	8,1	10,1	9,6	1	1	1	1	1	1	1	1	1	0	1	-14,446794	275,345044	311,459025	0
15.01.2021	15:36:53	0	32,239547	4,631953	2,544	332,8704	1,065	84,07	0	1015,64	8,1	10,1	9,6	1	1	1	1	1	1	1	1	1	0	1	-13,530655	275,49042	313,063994	0
15.01.2021	15:36:54	0	31,763687	4,067081	2,481	326,0196	1,068	84,081	0	1015,9	8,1	10,1	9,6	1	1	1	1	1	1	1	1	1	0	1	-16,983791	275,448773	309,41341	0
15.01.2021	15:36:55	0	31,882652	4,518979	2,5005	327,114	1,069	84,073	0	1015,96	8,1	10,1	9,6	1	1	1	1	1	1	1	1	1	0	1	-12,966878	275,49042	313,627771	0
15.01.2021	15:36:56	0	31,644722	3,841132	2,40375	329,3064	1,063	84,062	0	1015,76	8,1	10,1	9,6	1	1	1	1	1	1	1	1	1	0	1	-10,570825	275,413603	315,659707	0
15.01.2021	15:36:57	0	31,644722	4,067081	2,41575	323,73	1,057	84,059	0	1015,66	8,2	10,1	9,6	1	1	1	1	1	1	1	1	1	0	1	-10,288936	275,471187	316,21452	0
15.01.2021	15:36:58	0	32,120582	4,631953	2,48325	326,3652	1,065	84,076	0	1015,82	8,2	10,1	9,6	1	1	1	1	1	1	1	1	1	0	1	-9,302326	275,316417	316,467979	0
15.01.2021	15:36:59	0	31,406791	2,259489	2,475	330,2028	1,071	84,084	0	1015,82	8,1	10,1	9,6	1	1	1	1	1	1	1	1	1	0	1	-11,275546	275,413603	314,954985	0
15.01.2021	15:37:00	0	32,001617	4,29303	2,5005	316,2744	1,07	84,079	0	1015,9	8,1	10,1	9,6	1	1	1	1	1	1	1	1	1	0	1	-11,557435	275,291006	314,092615	0
15.01.2021	15:37:01	0	32,001617	4,29303	2,5005	316,2744	1,07	84,079	0	1015,9	8,1	10,1	9,6	1	1	1	1	1	1	1	1	1	0	1	-15,010571	275,405618	311,182132	0
15.01.2021	15:37:02	0	31,882652	2,598413	2,5275	321,1632	1,065	84,076	0	1015,7	8,2	10,1	9,6	1	1	1	1	1	1	1	1	1	0	1	-14,517266	275,474391	312,001381	0
15.01.2021	15:37:03	0	31,763687	4,518979	2,5755	318,852	1,073	84,081	0	1015,84	8,1	10,1	9,6	1	1	1	1	1	1	1	1	1	0	1	-11,839323	275,337088	314,028828	0
15.01.2021	15:37:04	0	31,763687	3,163285	2,72775	315,0864	1,069	84,091	0	1015,68	8,1	10,1	9,6	1	1	1	1	1	1	1	1	1	0	1	-13,742072	275,477596	312,79177	0
15.01.2021	15:37:05	0	31,763687	4,857902	3,051	314,4528	1,067	84,082	0	1015,8	8,1	10,1	9,6	1	1	1	1	1	1	1	1	1	0	1	-12,544045	275,34027	313,339171	0
15.01.2021	15:37:06	0	31,287826	2,372464	3,27375	314,7804	1,067	84,095	0	1015,8	8,1	10,1	9,6	1	1	1	1	1	1	1	1	1	0	1	-10,641297	275,332316	315,204263	0
15.01.2021	15:37:07	0	31,644722	4,067081	3,3135	315,4752	1,068	84,086	0	1015,82	8,1	10,1	9,6	1	1	1	1	1	1	1	1	1	0	1	-12,684989	275,474391	313,833658	0
15.01.2021	15:37:08	0	31,406791	3,050311	3,276	321,8652	1,069	84,096	0	1015,9	8,1	10,1	9,6	1	1	1	1	1	1	1	1	1	0	1	-11,980268	275,396041	314,167065	0
15.01.2021	15:37:09	0	31,882652	3,163285	3,44475	318,3876	1,068	84,085	0	1015,76	8,1	10,1	9,6	1	1	1	1	1	1	1	1	1	0	1	-9,302326	275,300531	316,392797	0
15.01.2021	15:37:10	0	31,644722	5,3098	3,5745	315,828	1,067	84,101	0	1015,7	8,1	10,1	9,6	1	1	1	1	1	1	1	1	1	0	1	-9,936575	275,43118	316,377246	0
15.01.2021	15:37:11	0	31,644722	3,728157	3,474	319,986	1,065	84,103	0	1015,8	8,1	10,1	9,6	1	1	1	1	1	1	1	1	1	0	1	-12,121212	275,432778	314,200185	0
15.01.2021	15:37:12	0	31,406791	2,259489	3,351	331,614	1,071	84,105	0	1015,86	8,2	10,1	9,6	1	1	1	1	1	1	1	1	1	0	1	-10,288936	275,464781	316,184146	0
15.01.2021	15:37:13	0	31,644722	3,163285	3,27825	328,9248	1,066	84,097	0	1015,88	8,1	10,1	9,6	1	1	1	1	1	1	1	1	1	0	1	-16,631431	275,426384	309,659666	0
15.01.2021	15:37:14	0	31,287826	3,050311	3,45975	325,1448	1,068	84,101	0	1015,8	8,1	10,1	9,6	1	1	1	1	1	1	1	1	1	0	1	-14,305849	275,42159	311,96253	0
15.01.2021	15:37:15	0	32,001617	4,518979	3,49425	327,1716	1,065	84,105	0	1015,8	8,1	10,1	9,6	1	1	1	1	1	1	1	1	1	0	1	-12,473573	275,291006	313,176477	0
15.01.2021	15:37:16	0	31,525977	2,372464	3,58125	317,8224	1,066	84,101	0	1015,8	8,1	9,8	9,6	1	1	1	1	1	1	1	1	1	0	1	-14,517266	275,474391	312,001381	0
15.01.2021	15:37:17	0	31,525977	2,937336	3,42975	323,6688	1,066	84,094	0	1015,76	8,1	9,8	9,6	1	1	1	1	1	1	1	1	1	0	1	-11,980268	275,365745	314,023573	0
15.01.2021	15:37:18	0	31,763687	3,615183	3,32025	327,6072	1,075	84,107	0	1015,82	8,1	10,1	9,6	1	1	1	1	1	1	1	1	1	0	1	-15,715292	275,273555	309,852193	0
15.01.2021	15:37:19	0	31,525977	4,067081	3,15525	326,3544	1,067	84,106	0	1015,82	8,1	9,8	9,6	1	1	1	1	1	1	1	1	1	0	1	-13,742072	275,461578	312,715828	0
15.01.2021	15:37:20	0	31,168861	2,372464	2,9415	304,9812	1,066	84,087	0	1015,8	8,1	10,1	9,6	1	1	1	1	1	1	1	1	1	0	1	-12,121212	275,474391	314,397435	0
15.01.2021	15:37:21	0	31,525757	2,598413	3,0495	314,0892	1,067	84,106	0	1015,86	8,1	10,1	9,6	1	1	1	1	1	1	1	1	1	0	1	-8,033827	275,37212	318,000201	0
15.01.2021	15:37:22	0	31,644722	2,937336	3,1635	314,5212	1,072	84,107	0	1015,74	8,1	10,1	9,6	1	1	1	1	1	1	1	1	1	0	1	-10,42988	275,281485	315,175123	0
15.01.2021	15:37:23	0	31,644943	4,29303	3,05475	309,8808	1,07	84,092	0	1015,82	8,1	9,8	9,6	1	1	1	1	1	1	1	1	1	0	1	-16,349542	275,440774	310,009748	0
15.01.2021	15:37:24	0	31,406791	2,485438	2,9535	316,3284	1,07	84,098	0	1015,86	8,1	10,1	9,6	1	1	1	1	1	1	1	1	1	0	1	-11,41649	275,302119	314,286147	0
15.01.2021	15:37:25	0	31,882652	4,067081	2,8425	329,3208	1,067	84,102	0	1015,88	8,1	10,1	9,6	1	1	1	1	1	1	1	1	1	0	1	-13,883016	275,448773	312,514186	0
15.01.2021	15:37:26	0	31,882652	3,841132	2,5785	313,2216	1,069	84,11	0	1015,74	8,1	10,1	9,6	1	1	1	1	1	1	1	1	1	0	1	-11,627907	275,332316	314,217653	0
15.01.2021	15:37:27	0	31,287826	3,389234	2,4165	320,3208	1,063	84,107	0	1015,66	8,1	10,1	9,6	1	1	1	1	1	1	1	1	1	0	1	-13,742072	275,469585	312,753789	0
15.01.2021	15:37:28	0	31,525757	4,29303	2,346	325,476	1,068	84,114	0	1015,9	8,1	10,1	9,6	1	1	1	1	1	1	1	1	1	0	1	-18,816068	275,407215	307,384199	0
15.01.2021	15:37:29	0	31,525757	4,518951	2,23875	327,474	1,072	84,102	0	1015,78	8,1	10,1	9,7	1	1	1	1	1	1	1	1	1	0	1	-6,342495	275,279899	319,255004	0
15.01.2021	15:37:30	0	31,525977	4,067081	2,07525	313,2684	1,069	84,113	0	1015,82	8,1	9,8	9,6	1	1	1	1	1	1	1	1	1	0	1	-11,909796	275,408812	314,298036	0
15.01.2021	15:37:31	0	31,287826	3,050311	1,93275	329,7384	1,069	84,116	0	1015,84	8,1	10,1	9,6	1	1	1	1	1	1	1	1	1	0	1	-13,953488	275,471187	312,549967	0
15.01.2021	15:37:32	0	31,525757	4,406004	1,9455	324,8136	1,07	84,095	0	1015,88	8,1	10,1	9,6	1	1	1	1	1	1	1	1	1	0	1	-10,500352	275,31165	315,24739	0
15.01.2021	15:37:33	0	31,525757	3,276259	1,95825	317,8044	1,069	84,11	0	1015,86	8,1	10,1	9,6	1	1	1	1	1	1	1	1	1	0	1	-16,067653	275,450373	310,337133	0
15.01.2021	15:37:34	0	32,001617	4,406004	1,8855	321,4692	1,062	84,088	0	1015,74	8,2	10,1	9,6	1	1	1	1	1	1	1	1	1	0	1	-12,262156	275,471187	314,241299	0
15.01.2021	15:37:35	0	31,763687	4,29303	1,94475	317,8368	1,065	84,096	0	1015,72	8,1	10,1	9,6	1	1	1	1	1	1	1	1	1	0	1	-13,812544	275,348227	312,108347	0
15.01.2021	15:37:36	0	31,644722	3,050311	1,98525	316,782	1,072	84,105	0	1015,8	8,1	10,1	9,6	1	1	1	1	1	1	1	1	1	0	1	-10,42988	275,286245	315,197643	0
15.01.2021	15:37:37	0	31,406791	4,180055	2,0025	334,602	1,066	84,085	0	1015,78	8,1	10,1	9,6	1	1	1	1	1	1	1	1	1	0	1	-15,362932	275,325954	310,452517	0
15.01.2021	15:37:38	0	31,406791	3,841132	1,8465	345,3516	1,065	84,082	0	1015,8	8,1	10,1	9,6	1	1	1	1	1	1	1	1	1	0	1	-12,684989	275,349819	313,243438	0
15.01.2021	15:37:39	0	31,525757	3,615183	1,5975	339,192	1,068	84,095	0	1015,86	8,1	10,1	9,6	1	1	1	1	1	1	1	1	1	0	1	-10,359408	275,314828	315,403375	0
15.01.2021	15:37:40	0	31,407011	2,824362	1,5345	340,5708	1,072	84,105	0	1015,78	8,1	9,8	9,6	1	1	1	1	1	1	1	1	1	0	1	-10,993658	275,424786	315,289866	0
15.01.2021	15:37:41	0	31,407011	3,163285	1,572	338,742	1,071	84,106	0	1015,78	8,1	9,8	9,6	1	1	1	1	1	1	1	1	1	0	1	-11,909796	275,474391	314,608851	0
15.01.2021	15:37:42	0	31,525757	2,598413	1,743	349,0812	1,069	84,106	0	1015,88	8,1	10,1	9,6	1	1	1	1	1	1	1	1	1	0	1	-12,755462	275,354596	313,195582	0
15.01.2021	15:37:43	0	31,287826	2,259489	1,85475	338,5296	1,071	84,112	0	1015,96	8,1	10,1	9,6	1	1	1	1	1	1	1	1	1	0	1	-10,570825	275,281485	315,034179	0
15.01.2021	15:37:44	0	31,763687	3,954106	2,02725	345,4308	1,071	84,122	0	1015,9	8,1	10,1	9,6	1	1	1	1	1	1	1	1	1	0	1	-11,346018	275,450373	315,058768	0
15.01.2021	15:37:45	0	31,763909	4,180055	2,18475	325,4904	1,067	84,113	0	1015,82	8,1	9,8	9,6	1	1	1	1	1	1	1	1	1	0	1	-13,530655	275,333906	312,322434	0
15.01.2021	15:37:46	0	31,763687	4,744927	2,4705	327,7944	1,067	84,105	0	1015,82	8,1	10,1	9,6	1	1	1	1	1	1	1	1	1	0	1	-12,121212	275,475994	314,405032	0
15.01.2021	15:37:47	0	31,525977	3,389234	2,71275	327,474	1,069	84,114	0	1015,88	8,1	9,8	9,6	1	1	1	1	1	1	1	1	1	0	1	-11,909796	275,330725	313,928235	0
15.01.2021	15:37:48	0	31,525757	3,954106	2,7675	328,3488	1,072	84,114	0	1015,84	8,1	10,1	9,6	1	1	1	1	1	1	1	1	1	0	1	-11,839323	275,4152	314,398776	0
15.01.2021	15:37:49	0	31,050114	2,372464	2,985	320,5224	1,068	84,123	0	1015,78	8,1	9,8	9,6	1	1	1	1	1	1	1	1	1	0	1	-12,403101	275,298943	313,284508	0
15.01.2021	15:37:50	0	31,16908	2,259489	3,25725	326,376	1,07	84,116	0	1015,76	8,1	9,8	9,6	1	1	1	1	1	1	1	1	1	0	1	-13,389711	275,303707	312,320442	0
15.01.2021	15:37:51	0	31,525757	3,050311	3,27675	330,0192	1,077	84,134	0	1015,78	8,1	10,1	9,6	1	1	1	1	1	1	1	1	1	0	1	-15,081043	275,300531	310,61408	0
15.01.2021	15:37:52	0	31,168861	2,711387	3,231	332,8452	1,067	84,131	0	1015,92	8,1	10,1	9,6	1	1	1	1	1	1	1	1	1	0	1	-15,010571	275,461578	311,447329	0
15.01.2021	15:37:53	0	31,16908	2,824362	3,10575	319,986	1,069	84,112	0	1015,78	8,1	9,8	9,6	1	1	1	1	1	1	1	1	1	0	1	-12,191684	275,360966	313,789525	0
15.01.2021	15:37:54	0	31,644943	4,406004	2,90925	314,8524	1,071	84,115	0	1015,78	8,1	9,8	9,6	1	1	1	1	1	1	1	1	1	0	1	-15,151515	275,297355	310,52858	0
15.01.2021	15:37:55	0	31,525977	2,372464	2,67975	327,3228	1,068	84,131	0	1015,84	8,1	9,8	9,6	1	1	1	1	1	1	1	1	1	0	1	-13,6716	275,333906	312,18149	0
15.01.2021	15:37:56	0	31,406791	4,631953	2,4315	327,9168	1,077	84,131	0	1015,84	8,2	10,1	9,6	1	1	1	1	1	1	1	1	1	0	1	-12,544045	275,471187	313,959411	0
15.01.2021	15:37:57	0	31,525757	3,954106	2,26725	333,8856	1,069	84,108	0	1015,82	8,1	10,1	9,6	1	1	1	1	1	1	1	1	1	0	1	-16,067653	275,291006	309,582397	0
15.01.2021	15:37:58	0	31,644943	2,937336	2,2155	334,3356	1,068	84,131	0	1015,82	8,1	9,8	9,6	1	1	1	1	1	1	1	1	1	0	1	-9,372798	275,345044	316,533021	0
15.01.2021	15:37:59	0	31,288045	2,146515	2,04975	319,284	1,072	84,114	0	1015,8	8,1	9,8	9,6	1	1	1	1	1	1	1	1	1	0	1	-14,517266	275,284658	311,10275	0
15.01.2021	15:38:00	0	31,525757	4,857902	1,82475	293,2524	1,068	84,139	0	1015,82	8,1	10,1	9,6	1	1	1	1	1	1	1	1	1	0	1	-12,473573	275,442374	313,893298	0
15.01.2021	15:38:01	0	31,525757	4,857902	1,82475	293,2524	1,068	84,139	0	1015,82	8,1	10,1	9,6	1	1	1	1	1	1	1	1	1	0	1	-11,275546	275,447173	315,114072	0
15.01.2021	15:38:02	0	31,644722	4,857902	1,8135	317,214	1,069	84,123	0	1015,54	8,1	10,1	9,6	1	1	1	1	1	1	1	1	1	0	1	-12,473573	275,408812	313,734259	0
15.01.2021	15:38:03	0	31,763687	3,389234	1,85175	321,5052	1,07	84,139	0	1015,92	8,1	10,1	9,6	1	1	1	1	1	1	1	1	1	0	1	-16,067653	275,448773	310,329549	0
15.01.2021	15:38:04	0	31,407011	2,711387	1,97325	320,13	1,069	84,129	0	1015,78	8,1	9,8	9,6	1	1	1	1	1	1	1	1	1	0	1	-15,64482	275,327545	310,178155	0
15.01.2021	15:38:05	0	31,763909	4,744927	2,02425	322,2684	1,068	84,128	0	1015,88	8,1	9,8	9,6	1	1	1	1	1	1	1	1	1	0	1	-10,923185	275,399233	315,239268	0
15.01.2021	15:38:06	0	31,644943	4,067081	2,052	323,424	1,072	84,129	0	1015,68	8,1	9,8	9,6	1	1	1	1	1	1	1	1	1	0	1	-15,292459	275,466382	311,188215	0
15.01.2021	15:38:07	0	31,763909	3,954106	2,15625	335,2788	1,071	84,148	0	1015,9	8,1	9,8	9,6	1	1	1	1	1	1	1	1	1	0	1	-15,081043	275,378496	310,983183	0
15.01.2021	15:38:08	0	31,525977	3,615183	2,4855	324,8028	1,074	84,147	0	1015,76	8,1	9,8	9,6	1	1	1	1	1	1	1	1	1	0	1	-12,684989	275,314828	313,077793	0
15.01.2021	15:38:09	0	31,406791	3,276259	2,682	345,4164	1,069	84,141	0	1015,78	8,1	10,1	9,6	1	1	1	1	1	1	1	1	1	0	1	-9,090909	275,284658	316,529107	0
15.01.2021	15:38:10	0	31,525757	3,050311	2,6865	327,3804	1,072	84,15	0	1015,9	8,1	10,1	9,6	1	1	1	1	1	1	1	1	1	0	1	-12,05074	275,302119	313,651898	0
15.01.2021	15:38:11	0	31,406791	3,163285	2,71275	323,0136	1,076	84,133	0	1015,86	8,1	10,1	9,6	1	1	1	1	1	1	1	1	1	0	1	-17,054264	275,383279	309,032619	0
15.01.2021	15:38:12	0	31,763909	3,728157	2,9265	335,0052	1,075	84,14	0	1015,86	8,1	9,8	9,6	1	1	1	1	1	1	1	1	1	0	1	-14,587738	275,467984	311,90053	0
15.01.2021	15:38:13	0	31,644943	4,29303	3,22875	341,676	1,074	84,151	0	1015,82	8,1	9,8	9,6	1	1	1	1	1	1	1	1	1	0	1	-12,755462	275,410408	313,459936	0
15.01.2021	15:38:14	0	31,287826	2,485438	3,19125	333,8136	1,073	84,154	0	1015,82	8,1	10,1	9,6	1	1	1	1	1	1	1	1	1	0	1	-17,477097	275,477596	309,056745	0
15.01.2021	15:38:15	0	31,288045	4,29303	3,0525	339,5232	1,072	84,149	0	1015,88	8,1	9,8	9,6	1	1	1	1	1	1	1	1	1	0	1	-9,302326	275,319595	316,483024	0
15.01.2021	15:38:16	0	31,525977	3,502208	2,973	324,018	1,077	84,162	0	1015,78	8,1	9,8	9,6	1	1	1	1	1	1	1	1	1	0	1	-17,547569	275,394446	308,592205	0
15.01.2021	15:38:17	0	31,168861	2,824362	2,787	330,2928	1,078	84,169	0	1015,84	8,1	10,1	9,6	1	1	1	1	1	1	1	1	1	0	1	-16,701903	275,279899	308,895596	0
15.01.2021	15:38:18	0	31,288045	3,841132	2,7255	313,2504	1,07	84,163	0	1015,84	8,1	9,8	9,6	1	1	1	1	1	1	1	1	1	0	1	-12,614517	275,322775	313,18588	0
15.01.2021	15:38:19	0	31,407011	4,180055	2,86725	323,7084	1,078	84,164	0	1015,76	8,1	9,8	9,6	1	1	1	1	1	1	1	1	1	0	1	-14,869626	275,451973	311,542745	0
15.01.2021	15:38:20	0	31,644943	4,518979	3,26175	324,3132	1,079	84,167	0	1015,82	8,1	9,8	9,6	1	1	1	1	1	1	1	1	1	0	1	-13,319239	275,418395	312,933999	0
15.01.2021	15:38:21	0	31,763909	4,631953	3,6495	325,1592	1,074	84,163	0	1015,86	8,1	9,8	9,6	1	1	1	1	1	1	1	1	1	0	1	-10,147992	275,306884	315,577195	0
15.01.2021	15:38:22	0	31,525977	4,406004	3,65325	315,216	1,07	84,17	0	1015,74	8,1	9,8	9,6	1	1	1	1	1	1	1	1	1	0	1	-9,44327	275,286245	316,184253	0
15.01.2021	15:38:23	0	31,168861	3,050311	3,732	318,8448	1,073	84,172	0	1015,76	8,1	10,1	9,6	1	1	1	1	1	1	1	1	1	0	1	-11,134602	275,378496	314,929624	0
15.01.2021	15:38:24	0	31,525757	4,180055	3,63225	315,918	1,081	84,18	0	1015,86	8,1	10,1	9,6	1	1	1	1	1	1	1	1	1	0	1	-14,65821	275,469585	311,837651	0
15.01.2021	15:38:25	0	31,763909	4,518979	3,71775	317,4048	1,079	84,171	0	1015,92	8,1	9,8	9,6	1	1	1	1	1	1	1	1	1	0	1	-12,966878	275,364152	313,029418	0
15.01.2021	15:38:26	0	31,406791	4,29303	3,969	320,0364	1,076	84,173	0	1015,92	8,1	10,1	9,6	1	1	1	1	1	1	1	1	1	0	1	-12,825934	275,456775	313,609199	0
15.01.2021	15:38:27	0	31,407011	4,406004	3,98475	320,796	1,076	84,164	0	1015,82	8,1	9,8	9,6	1	1	1	1	1	1	1	1	1	0	1	-12,544045	275,432778	313,777352	0
15.01.2021	15:38:28	0	31,525977	2,259489	3,7245	322,2612	1,077	84,144	0	1015,76	8,1	9,8	9,6	1	1	1	1	1	1	1	1	1	0	1	-11,557435	275,416797	314,688233	0
15.01.2021	15:38:29	0	31,644722	3,163285	3,6045	328,1976	1,072	84,173	0	1015,78	8,1	10,1	9,6	1	1	1	1	1	1	1	1	1	0	1	-15,926709	275,337088	309,941442	0
15.01.2021	15:38:30	0	31,763687	4,518979	3,53925	324,7452	1,07	84,159	0	1015,76	8,1	10,1	9,6	1	1	1	1	1	1	1	1	1	0	1	-13,742072	275,292593	311,915488	0
15.01.2021	15:38:31	0	31,644722	4,970876	3,39225	317,3076	1,079	84,163	0	1015,78	8,1	10,1	9,6	1	1	1	1	1	1	1	1	1	0	1	-9,936575	275,359373	316,037092	0
15.01.2021	15:38:32	0	31,525757	4,970876	3,429	316,9656	1,077	84,162	0	1015,86	8,1	10,1	9,6	1	1	1	1	1	1	1	1	1	0	1	-12,614517	275,281485	312,990486	0
15.01.2021	15:38:33	0	31,644722	3,389234	3,3615	288,4716	1,079	84,157	0	1015,76	8,1	10,1	9,6	1	1	1	1	1	1	1	1	1	0	1	-13,178295	275,356188	312,78029	0
15.01.2021	15:38:34	0	31,287826	3,276259	3,165	292,3452	1,072	84,15	0	1015,86	8,1	10,1	9,6	1	1	1	1	1	1	1	1	1	0	1	-10,782241	275,450373	315,622545	0
15.01.2021	15:38:35	0	31,644943	2,937336	3,1815	301,1868	1,081	84,155	0	1015,86	8,1	9,8	9,6	1	1	1	1	1	1	1	1	1	0	1	-14,376321	275,316417	311,393983	0
15.01.2021	15:38:36	0	31,16908	3,050311	2,8635	313,254	1,083	84,155	0	1015,82	8,1	9,8	9,6	1	1	1	1	1	1	1	1	1	0	1	-15,715292	275,463179	310,750198	0
15.01.2021	15:38:37	0	31,644943	4,631953	2,67675	304,6968	1,081	84,158	0	1015,86	8,1	9,8	9,6	1	1	1	1	1	1	1	1	1	0	1	-14,587738	275,427983	311,710933	0
15.01.2021	15:38:38	0	31,16908	2,259489	2,79825	310,0032	1,08	84,155	0	1015,94	8,2	9,8	9,6	1	1	1	1	1	1	1	1	1	0	1	-14,235377	275,281485	311,369627	0
15.01.2021	15:38:39	0	31,525757	3,728157	2,7945	300,834	1,072	84,133	0	1015,74	8,1	10,1	9,6	1	1	1	1	1	1	1	1	1	0	1	-12,825934	275,43118	313,487887	0
15.01.2021	15:38:40	0	31,525977	2,711387	2,68575	302,1228	1,081	84,16	0	1015,86	8,2	9,8	9,6	1	1	1	1	1	1	1	1	1	0	1	-8,45666	275,456775	317,978473	0
15.01.2021	15:38:41	0	31,525977	3,276259	2,697	298,3032	1,076	84,142	0	1015,88	8,2	9,8	9,6	1	1	1	1	1	1	1	1	1	0	1	-10,782241	275,353003	315,161264	0
15.01.2021	15:38:42	0	31,644722	3,841132	2,772	331,5096	1,079	84,136	0	1015,82	8,1	10,1	9,6	1	1	1	1	1	1	1	1	1	0	1	-12,614517	275,29418	313,050554	0
15.01.2021	15:38:43	0	31,406791	2,824362	2,81025	327,15	1,077	84,153	0	1015,82	8,1	10,1	9,6	1	1	1	1	1	1	1	1	1	0	1	-8,245243	275,306884	317,479943	0
15.01.2021	15:38:44	0	31,644943	3,728157	2,7075	312,1992	1,079	84,14	0	1015,82	8,2	9,8	9,6	1	1	1	1	1	1	1	1	1	0	1	-17,618041	275,327545	308,204935	0
15.01.2021	15:38:45	0	31,406791	2,824362	2,58675	320,8248	1,076	84,133	0	1015,64	8,1	10,1	9,6	1	1	1	1	1	1	1	1	1	0	1	-9,795631	275,464781	316,677452	0
15.01.2021	15:38:46	0	31,644943	3,728157	2,4525	330,7716	1,075	84,124	0	1015,64	8,1	9,8	9,6	1	1	1	1	1	1	1	1	1	0	1	-15,785765	275,394446	310,354009	0
15.01.2021	15:38:47	0	31,288045	3,502208	2,451	327,402	1,08	84,125	0	1015,8	8,1	9,8	9,6	1	1	1	1	1	1	1	1	1	0	1	-12,191684	275,461578	314,266216	0
15.01.2021	15:38:48	0	31,407011	2,824362	2,39925	331,524	1,077	84,094	0	1015,86	8,1	9,8	9,6	1	1	1	1	1	1	1	1	1	0	1	-11,275546	275,396041	314,871787	0
15.01.2021	15:38:49	0	31,644943	4,518979	2,4525	331,1244	1,077	84,109	0	1015,86	8,1	9,8	9,6	1	1	1	1	1	1	1	1	1	0	1	-11,134602	275,467984	315,353666	0
15.01.2021	15:38:50	0	31,763909	4,067081	2,5455	330,0876	1,077	84,082	0	1015,78	8,1	9,8	9,6	1	1	1	1	1	1	1	1	1	0	1	-14,094433	275,424786	312,18909	0
15.01.2021	15:38:51	0	31,525757	4,631953	2,65725	335,7288	1,082	84,09	0	1015,78	8,2	10,1	9,6	1	1	1	1	1	1	1	1	1	0	1	-14,446794	275,327545	311,376182	0
15.01.2021	15:38:52	0	31,288045	2,937336	2,7375	327,474	1,079	84,066	0	1015,88	8,1	9,8	9,6	1	1	1	1	1	1	1	1	1	0	1	-12,191684	275,257704	313,300821	0
15.01.2021	15:38:53	0	31,882875	4,631953	2,84925	330,1164	1,076	84,086	0	1015,78	8,1	9,8	9,6	1	1	1	1	1	1	1	1	1	0	1	-17,618041	275,337088	308,25011	0
15.01.2021	15:38:54	0	31,644943	2,824362	2,9835	332,8452	1,083	84,078	0	1015,74	8,1	9,8	9,6	1	1	1	1	1	1	1	1	1	0	1	-14,376321	275,308472	311,356383	0
15.01.2021	15:38:55	0	31,287826	3,728157	3,087	338,2416	1,076	84,087	0	1015,7	8,2	10,1	9,6	1	1	1	1	1	1	1	1	1	0	1	-14,869626	275,308472	310,863078	0
15.01.2021	15:38:56	0	31,763687	4,406004	3,03975	340,1928	1,076	84,069	0	1015,74	8,2	10,1	9,6	1	1	1	1	1	1	1	1	1	0	1	-12,332629	275,289419	313,309912	0
15.01.2021	15:38:57	0	31,287826	3,841132	3,02325	346,8492	1,076	84,079	0	1015,78	8,1	10,1	9,6	1	1	1	1	1	1	1	1	1	0	1	-18,181818	275,313239	307,573444	0
15.01.2021	15:38:58	0	31,407011	2,598413	3,07125	343,5552	1,073	84,07	0	1015,8	8,1	9,8	9,6	1	1	1	1	1	1	1	1	1	0	1	-14,164905	275,271969	311,395079	0
15.01.2021	15:38:59	0	31,763909	4,857902	3,03225	343,026	1,078	84,08	0	1015,88	8,1	9,8	9,6	1	1	1	1	1	1	1	1	1	0	1	-13,460183	275,381685	312,619146	0
15.01.2021	15:39:00	0	31,288045	2,711387	2,79675	334,9296	1,079	84,081	0	1015,82	8,2	9,8	9,6	1	1	1	1	1	1	1	1	1	0	1	-10,570825	275,275141	315,004163	0
15.01.2021	15:39:01	0	31,288045	2,711387	2,79675	334,9296	1,079	84,081	0	1015,82	8,2	9,8	9,6	1	1	1	1	1	1	1	1	1	0	1	-14,305849	275,402425	311,871727	0
15.01.2021	15:39:02	0	31,525977	4,406004	2,71725	333,1044	1,08	84,071	0	1015,86	8,2	9,8	9,6	1	1	1	1	1	1	1	1	1	0	1	-9,866103	275,456775	316,56903	0
15.01.2021	15:39:03	0	31,644943	3,728157	2,505	335,7432	1,076	84,067	0	1015,88	8,2	9,8	9,6	1	1	1	1	1	1	1	1	1	0	1	-13,953488	275,337088	311,914663	0
15.01.2021	15:39:04	0	31,882652	4,406004	2,25	340,92	1,082	84,072	0	1015,88	8,2	10,1	9,6	1	1	1	1	1	1	1	1	1	0	1	-10,007047	275,469585	316,488814	0
15.01.2021	15:39:05	0	31,407011	3,050311	2,052	322,1676	1,083	84,065	0	1015,88	8,1	9,8	9,6	1	1	1	1	1	1	1	1	1	0	1	-13,812544	275,333906	312,040546	0
15.01.2021	15:39:06	0	31,525977	4,29303	1,9815	335,7288	1,083	84,078	0	1015,86	8,2	9,8	9,6	1	1	1	1	1	1	1	1	1	0	1	-15,926709	275,456775	310,508424	0
15.01.2021	15:39:07	0	31,882875	4,29303	1,9005	344,0052	1,07	84,064	0	1015,76	8,2	9,8	9,6	1	1	1	1	1	1	1	1	1	0	1	-10,782241	275,404022	315,402898	0
15.01.2021	15:39:08	0	31,644943	4,518979	1,983	332,3664	1,071	84,073	0	1015,74	8,2	9,8	9,6	1	1	1	1	1	1	1	1	1	0	1	-11,346018	275,43118	314,967802	0
15.01.2021	15:39:09	0	31,525977	3,163285	2,148	332,136	1,077	84,071	0	1015,96	8,1	9,8	9,6	1	1	1	1	1	1	1	1	1	0	1	-11,41649	275,298943	314,271118	0
15.01.2021	15:39:10	0	31,407011	2,598413	2,1585	327,798	1,071	84,07	0	1015,82	8,2	9,8	9,6	1	1	1	1	1	1	1	1	1	0	1	-13,530655	275,278313	312,059339	0
15.01.2021	15:39:11	0	31,763687	3,841132	2,2845	328,2768	1,094	84,077	0	1015,98	8,1	10,1	9,6	1	1	1	1	1	1	1	1	1	0	1	-15,574348	275,335497	310,286272	0
15.01.2021	15:39:12	0	31,763909	4,067081	2,352	336,4164	1,067	84,062	0	1015,76	8,1	9,8	9,6	1	1	1	1	1	1	1	1	1	0	1	-14,728682	275,279899	310,868816	0
15.01.2021	15:39:13	0	31,882875	4,631953	2,3295	334,5732	1,084	84,076	0	1015,88	8,2	9,8	9,6	1	1	1	1	1	1	1	1	1	0	1	-19,802678	275,292593	305,854882	0
15.01.2021	15:39:14	0	31,525977	4,180055	2,3235	327,1356	1,068	84,061	0	1015,7	8,2	9,8	9,6	1	1	1	1	1	1	1	1	1	0	1	-16,701903	275,324365	309,10602	0
15.01.2021	15:39:15	0	31,525977	2,824362	2,34375	326,358	1,079	84,077	0	1015,84	8,2	9,8	9,6	1	1	1	1	1	1	1	1	1	0	1	-16,772375	275,278313	308,817619	0
15.01.2021	15:39:16	0	31,882875	3,954106	2,33775	332,226	1,081	84,074	0	1015,84	8,1	9,8	9,6	1	1	1	1	1	1	1	1	1	0	1	-9,161381	275,383279	316,925501	0
15.01.2021	15:39:17	0	31,406791	2,259489	2,3895	334,5768	1,075	84,063	0	1015,74	8,1	10,1	9,6	1	1	1	1	1	1	1	1	1	0	1	-8,738548	275,289419	316,903992	0
15.01.2021	15:39:18	0	31,644943	3,841132	2,43075	324,3492	1,078	84,071	0	1015,82	8,2	9,8	9,6	1	1	1	1	1	1	1	1	1	0	1	-12,403101	275,367339	313,608286	0
15.01.2021	15:39:19	0	31,525757	4,518979	2,5605	342,72	1,08	84,077	0	1015,96	8,2	10,1	9,6	1	1	1	1	1	1	1	1	1	0	1	-7,751938	275,451973	318,660434	0
15.01.2021	15:39:20	0	31,644943	3,502208	2,7105	314,856	1,077	84,081	0	1015,86	8,2	9,8	9,6	1	1	1	1	1	1	1	1	1	0	1	-10,641297	275,313239	315,113965	0
15.01.2021	15:39:21	0	31,406791	3,163285	2,61975	341,4024	1,075	84,079	0	1015,9	8,1	10,1	9,6	1	1	1	1	1	1	1	1	1	0	1	-14,728682	275,283072	310,883827	0
15.01.2021	15:39:22	0	31,525977	3,163285	2,66325	329,3532	1,076	84,077	0	1015,76	8,1	9,8	9,6	1	1	1	1	1	1	1	1	1	0	1	-11,768851	275,357781	314,197274	0
15.01.2021	15:39:23	0	31,406791	4,518979	2,71575	336,816	1,073	84,087	0	1015,82	8,2	10,1	9,6	1	1	1	1	1	1	1	1	1	0	1	-15,433404	275,466382	311,047271	0
15.01.2021	15:39:24	0	31,407011	2,259489	2,562	323,7012	1,08	84,077	0	1015,82	8,1	9,8	9,6	1	1	1	1	1	1	1	1	1	0	1	-15,503876	275,381685	310,575453	0
15.01.2021	15:39:25	0	31,644943	4,744927	2,409	333,468	1,075	84,088	0	1015,72	8,2	9,8	9,6	1	1	1	1	1	1	1	1	1	0	1	-15,362932	275,440774	310,996358	0
15.01.2021	15:39:26	0	31,288045	2,824362	2,367	328,6368	1,081	84,087	0	1015,82	8,2	9,8	9,6	1	1	1	1	1	1	1	1	1	0	1	-13,742072	275,365745	312,261769	0
15.01.2021	15:39:27	0	31,525977	3,615161	2,42175	324,126	1,077	84,086	0	1015,84	8,2	9,8	9,7	1	1	1	1	1	1	1	1	1	0	1	-14,65821	275,450373	311,746576	0
15.01.2021	15:39:28	0	31,644722	4,29303	2,42025	342,0792	1,074	84,086	0	1015,76	8,2	10,1	9,6	1	1	1	1	1	1	1	1	1	0	1	-12,896406	275,368932	313,122527	0
15.01.2021	15:39:29	0	31,525977	4,29303	2,3085	349,1172	1,08	84,085	0	1015,84	8,1	9,8	9,6	1	1	1	1	1	1	1	1	1	0	1	-16,842847	275,456775	309,592286	0
15.01.2021	15:39:30	0	31,763909	4,518979	2,12925	339,4836	1,079	84,088	0	1015,88	8,2	9,8	9,6	1	1	1	1	1	1	1	1	1	0	1	-13,460183	275,410408	312,755214	0
15.01.2021	15:39:31	0	31,763687	4,29303	2,06025	327,798	1,075	84,076	0	1015,8	8,2	10,1	9,6	1	1	1	1	1	1	1	1	1	0	1	-12,896406	275,330725	312,941625	0
15.01.2021	15:39:32	0	31,644943	4,744927	1,9365	335,3652	1,079	84,083	0	1015,94	8,2	9,8	9,6	1	1	1	1	1	1	1	1	1	0	1	-14,235377	275,279899	311,362121	0
15.01.2021	15:39:33	0	31,644943	3,276259	1,98225	330,3216	1,079	84,077	0	1015,76	8,2	9,8	9,6	1	1	1	1	1	1	1	1	1	0	1	-13,953488	275,427983	312,345182	0
15.01.2021	15:39:34	0	31,763909	4,29303	2,05725	341,7372	1,077	84,078	0	1015,8	8,1	9,8	9,6	1	1	1	1	1	1	1	1	1	0	1	-11,205074	275,429581	315,101171	0
15.01.2021	15:39:35	0	31,644943	4,744927	2,0145	334,6416	1,081	84,095	0	1015,66	8,2	9,8	9,6	1	1	1	1	1	1	1	1	1	0	1	-13,178295	275,276727	312,404196	0
15.01.2021	15:39:36	0	31,407011	4,180055	1,935	333,4284	1,078	84,081	0	1015,86	8,1	9,8	9,6	1	1	1	1	1	1	1	1	1	0	1	-14,799154	275,416797	311,446514	0
15.01.2021	15:39:37	0	31,168861	2,711387	1,93725	345,3984	1,079	84,078	0	1015,76	8,2	10,1	9,6	1	1	1	1	1	1	1	1	1	0	1	-10,42988	275,260873	315,077615	0
15.01.2021	15:39:38	0	31,407011	4,180055	1,971	342,4788	1,084	84,078	0	1015,74	8,2	9,8	9,6	1	1	1	1	1	1	1	1	1	0	1	-17,195208	275,384874	308,899228	0
15.01.2021	15:39:39	0	31,16908	2,598413	1,9605	340,254	1,077	84,074	0	1015,84	8,2	9,8	9,6	1	1	1	1	1	1	1	1	1	0	1	-15,503876	275,268798	310,041108	0
15.01.2021	15:39:40	0	31,525977	2,824362	1,96575	356,2416	1,08	84,079	0	1015,72	8,2	9,8	9,6	1	1	1	1	1	1	1	1	1	0	1	-10,782241	275,356188	315,176343	0
15.01.2021	15:39:41	0	31,407011	3,841132	1,902	353,9664	1,077	84,077	0	1015,84	8,2	9,8	9,6	1	1	1	1	1	1	1	1	1	0	1	-13,601128	275,461578	312,856773	0
15.01.2021	15:39:42	0	31,882875	4,744927	1,91775	349,0524	1,077	84,069	0	1015,82	8,2	9,8	9,6	1	1	1	1	1	1	1	1	1	0	1	-15,785765	275,319595	309,999585	0
15.01.2021	15:39:43	0	31,050114	3,163285	1,86975	348,6492	1,079	84,054	0	1015,76	8,2	9,8	9,6	1	1	1	1	1	1	1	1	1	0	1	-9,654686	275,461578	316,803214	0
15.01.2021	15:39:44	0	31,525757	4,406004	1,848	340,5708	1,075	84,062	0	1015,78	8,2	9,9	9,6	1	1	1	1	1	1	1	1	1	0	1	-11,980268	275,405618	314,212435	0
15.01.2021	15:39:45	0	31,644943	4,067081	1,85325	345,7692	1,078	84,083	0	1015,84	8,2	9,8	9,6	1	1	1	1	1	1	1	1	1	0	1	-11,768851	275,276727	313,813639	0
15.01.2021	15:39:46	0	31,525977	4,744927	1,85475	339,03	1,079	84,062	0	1015,8	8,2	9,8	9,6	1	1	1	1	1	1	1	1	1	0	1	-12,191684	275,413603	314,038847	0
15.01.2021	15:39:47	0	31,288045	3,841132	1,79025	343,134	1,082	84,081	0	1015,84	8,2	9,8	9,6	1	1	1	1	1	1	1	1	1	0	1	-13,953488	275,281485	311,651515	0
15.01.2021	15:39:48	0	31,407011	3,728157	1,66125	332,7588	1,08	84,053	0	1015,84	8,1	9,8	9,6	1	1	1	1	1	1	1	1	1	0	1	-12,966878	275,413603	313,263653	0
15.01.2021	15:39:49	0	31,525757	4,744927	1,58625	339,7716	1,074	84,068	0	1015,64	8,2	9,9	9,6	1	1	1	1	1	1	1	1	1	0	1	-12,05074	275,474391	314,467907	0
15.01.2021	15:39:50	0	31,406791	3,841132	1,587	331,524	1,075	84,069	0	1015,78	8,2	10,1	9,6	1	1	1	1	1	1	1	1	1	0	1	-15,503876	275,343452	310,394408	0
15.01.2021	15:39:51	0	31,525977	2,937336	1,6725	355,0932	1,077	84,083	0	1015,92	8,2	9,8	9,6	1	1	1	1	1	1	1	1	1	0	1	-13,530655	275,443973	312,843797	0
15.01.2021	15:39:52	0	31,525977	2,485438	1,743	349,416	1,08	84,059	0	1015,8	8,2	9,8	9,6	1	1	1	1	1	1	1	1	1	0	1	-14,869626	275,373713	311,171949	0
15.01.2021	15:39:53	0	31,644943	4,631953	1,81275	346,1328	1,076	84,067	0	1015,76	8,1	9,8	9,6	1	1	1	1	1	1	1	1	1	0	1	-14,65821	275,281485	310,946794	0
15.01.2021	15:39:54	0	32,001841	4,631953	1,848	349,92	1,075	84,073	0	1015,78	8,2	9,8	9,6	1	1	1	1	1	1	1	1	1	0	1	-16,701903	275,345044	309,203916	0
15.01.2021	15:39:55	0	31,525757	3,841132	1,81875	337,176	1,072	84,085	0	1015,62	8,2	9,9	9,6	1	1	1	1	1	1	1	1	1	0	1	-15,221987	275,264043	310,300501	0
15.01.2021	15:39:56	0	31,525977	3,050311	1,911	329,2488	1,08	84,101	0	1015,82	8,2	9,8	9,6	1	1	1	1	1	1	1	1	1	0	1	-15,081043	275,302119	310,621595	0
15.01.2021	15:39:57	0	31,525977	3,389234	2,0415	335,7288	1,083	84,086	0	1015,92	8,2	9,8	9,6	1	1	1	1	1	1	1	1	1	0	1	-12,403101	275,461578	314,054799	0
15.01.2021	15:39:58	0	31,288045	3,502208	2,01825	330,7644	1,08	84,104	0	1015,84	8,2	9,8	9,6	1	1	1	1	1	1	1	1	1	0	1	-18,604651	275,405618	307,588051	0
15.01.2021	15:39:59	0	31,287826	4,29303	1,9485	324,1008	1,081	84,071	0	1015,94	8,2	9,9	9,6	1	1	1	1	1	1	1	1	1	0	1	-13,601128	275,459977	312,849183	0
15.01.2021	15:40:00	0	31,406791	4,744927	1,80825	323,3448	1,074	84,087	0	1015,96	8,1	9,9	9,6	1	1	1	1	1	1	1	1	1	0	1	-14,446794	275,453574	311,973165	0
15.01.2021	15:40:01	0	31,406791	4,744927	1,80825	323,3448	1,074	84,087	0	1015,96	8,1	9,9	9,6	1	1	1	1	1	1	1	1	1	0	1	-20,155039	275,432778	306,166358	0
15.01.2021	15:40:02	0	31,406791	3,050311	1,7655	323,3808	1,082	84,09	0	1015,74	8,2	9,9	9,6	1	1	1	1	1	1	1	1	1	0	1	-14,376321	275,407215	311,823945	0
15.01.2021	15:40:03	0	31,049896	2,485438	1,79475	319,6296	1,081	84,102	0	1015,84	8,2	10,1	9,6	1	1	1	1	1	1	1	1	1	0	1	-14,305849	275,273555	311,261636	0
15.01.2021	15:40:04	0	31,763909	4,744927	1,872	335,4984	1,08	84,094	0	1015,72	8,2	9,8	9,6	1	1	1	1	1	1	1	1	1	0	1	-15,574348	275,389659	310,542753	0
15.01.2021	15:40:05	0	31,288045	3,728157	1,926	333,8568	1,076	84,1	0	1015,88	8,2	9,8	9,6	1	1	1	1	1	1	1	1	1	0	1	-10,570825	275,286245	315,056699	0
15.01.2021	15:40:06	0	31,644943	4,518979	1,94775	326,07	1,085	84,089	0	1015,86	8,2	9,8	9,6	1	1	1	1	1	1	1	1	1	0	1	-13,6716	275,4152	312,566499	0
15.01.2021	15:40:07	0	31,525977	3,615183	1,99875	324,8496	1,086	84,109	0	1015,92	8,2	9,8	9,6	1	1	1	1	1	1	1	1	1	0	1	-12,262156	275,396041	313,885176	0
15.01.2021	15:40:08	0	31,644722	4,406004	1,97625	302,8176	1,082	84,1	0	1015,78	8,2	9,9	9,6	1	1	1	1	1	1	1	1	1	0	1	-15,785765	275,281485	309,819239	0
15.01.2021	15:40:09	0	31,525757	3,615183	1,98075	318,492	1,078	84,106	0	1015,86	8,2	9,9	9,6	1	1	1	1	1	1	1	1	1	0	1	-15,997181	275,404022	310,187958	0
15.01.2021	15:40:10	0	31,16908	3,502208	1,89375	327,114	1,087	84,114	0	1015,94	8,2	9,8	9,6	1	1	1	1	1	1	1	1	1	0	1	-10,852713	275,472789	315,658338	0
15.01.2021	15:40:11	0	31,763909	4,067081	1,803	318,384	1,085	84,11	0	1015,8	8,2	9,8	9,6	1	1	1	1	1	1	1	1	1	0	1	-16,067653	275,338679	309,80803	0
15.01.2021	15:40:12	0	31,288045	3,050311	1,79325	319,734	1,084	84,127	0	1015,92	8,2	9,8	9,6	1	1	1	1	1	1	1	1	1	0	1	-11,698379	275,451973	314,713993	0
15.01.2021	15:40:13	0	31,407011	3,276259	1,767	312,5088	1,087	84,105	0	1015,8	8,2	9,8	9,6	1	1	1	1	1	1	1	1	1	0	1	-14,094433	275,362559	311,89432	0
15.01.2021	15:40:14	0	31,644722	4,29303	1,722	312,5844	1,082	84,107	0	1015,84	8,2	9,9	9,6	1	1	1	1	1	1	1	1	1	0	1	-13,953488	275,416797	312,29218	0
15.01.2021	15:40:15	0	31,16908	3,728157	1,671	314,1252	1,083	84,098	0	1015,9	8,2	9,8	9,6	1	1	1	1	1	1	1	1	1	0	1	-10,007047	275,275141	315,56794	0
15.01.2021	15:40:16	0	31,168861	2,259489	1,68525	310,2804	1,083	84,099	0	1015,86	8,2	10,1	9,6	1	1	1	1	1	1	1	1	1	0	1	-15,010571	275,278313	310,579423	0
15.01.2021	15:40:17	0	31,406791	3,954106	1,7355	310,932	1,081	84,107	0	1015,92	8,2	9,9	9,6	1	1	1	1	1	1	1	1	1	0	1	-14,587738	275,386469	311,514252	0
15.01.2021	15:40:18	0	31,525757	4,406004	1,77375	312,39	1,086	84,102	0	1015,9	8,2	9,9	9,6	1	1	1	1	1	1	1	1	1	0	1	-14,65821	275,448773	311,738992	0
15.01.2021	15:40:19	0	31,525977	4,067081	1,788	302,8248	1,082	84,09	0	1015,82	8,2	9,8	9,6	1	1	1	1	1	1	1	1	1	0	1	-11,486963	275,300531	314,20816	0
15.01.2021	15:40:20	0	31,525977	4,518979	1,8255	309,9636	1,083	84,09	0	1015,78	8,2	9,8	9,6	1	1	1	1	1	1	1	1	1	0	1	-17,477097	275,426384	308,814	0
15.01.2021	15:40:21	0	31,644943	4,631953	1,8045	317,0232	1,088	84,104	0	1015,84	8,2	9,8	9,6	1	1	1	1	1	1	1	1	1	0	1	-14,094433	275,450373	312,310354	0
15.01.2021	15:40:22	0	31,407011	3,841132	1,785	302,418	1,085	84,09	0	1015,88	8,1	9,8	9,6	1	1	1	1	1	1	1	1	1	0	1	-15,926709	275,402425	310,250867	0
15.01.2021	15:40:23	0	31,287826	2,372464	1,81575	316,2708	1,084	84,109	0	1015,84	8,2	9,9	9,6	1	1	1	1	1	1	1	1	1	0	1	-11,980268	275,448773	314,416934	0
15.01.2021	15:40:24	0	31,288045	3,954106	1,93725	312,1812	1,086	84,091	0	1015,82	8,2	9,8	9,6	1	1	1	1	1	1	1	1	1	0	1	-19,309373	275,439175	307,042337	0
15.01.2021	15:40:25	0	31,525977	3,728157	2,01525	307,5804	1,078	84,096	0	1015,78	8,2	9,8	9,6	1	1	1	1	1	1	1	1	1	0	1	-13,953488	275,327545	311,869487	0
15.01.2021	15:40:26	0	31,16908	3,502208	1,95975	318,8412	1,086	84,109	0	1015,78	8,2	9,8	9,6	1	1	1	1	1	1	1	1	1	0	1	-15,856237	275,284658	309,763779	0
15.01.2021	15:40:27	0	31,644943	2,485438	1,9155	315,4932	1,093	84,114	0	1015,86	8,1	9,8	9,6	1	1	1	1	1	1	1	1	1	0	1	-9,44327	275,397637	316,711623	0
15.01.2021	15:40:28	0	31,406791	4,518979	1,854	320,4144	1,086	84,11	0	1015,86	8,2	9,9	9,6	1	1	1	1	1	1	1	1	1	0	1	-13,178295	275,267213	312,35919	0
15.01.2021	15:40:29	0	31,525977	4,857902	1,73475	306,1296	1,083	84,1	0	1015,7	8,2	9,8	9,6	1	1	1	1	1	1	1	1	1	0	1	-16,208598	275,424786	310,074925	0
15.01.2021	15:40:30	0	31,16908	4,406004	1,68675	320,7672	1,087	84,103	0	1015,8	8,2	9,8	9,6	1	1	1	1	1	1	1	1	1	0	1	-12,403101	275,39285	313,729115	0
15.01.2021	15:40:31	0	31,288045	2,598413	1,57575	312,1812	1,087	84,117	0	1015,78	8,2	9,8	9,6	1	1	1	1	1	1	1	1	1	0	1	-13,6716	275,443973	312,702853	0
15.01.2021	15:40:32	0	31,407011	3,502208	1,5045	316,3644	1,084	84,131	0	1015,8	8,2	9,8	9,6	1	1	1	1	1	1	1	1	1	0	1	-15,574348	275,337088	310,293803	0
15.01.2021	15:40:33	0	31,16908	3,276259	1,53075	313,6968	1,11	84,122	0	1015,88	8,2	9,8	9,6	1	1	1	1	1	1	1	1	1	0	1	-16,349542	275,43118	309,964279	0
15.01.2021	15:40:34	0	31,168861	4,29303	1,57575	317,7792	1,086	84,126	0	1015,82	8,2	9,9	9,6	1	1	1	1	1	1	1	1	1	0	1	-11,909796	275,416797	314,335872	0
15.01.2021	15:40:35	0	31,407011	2,598413	1,656	320,7564	1,09	84,129	0	1015,96	8,2	9,8	9,6	1	1	1	1	1	1	1	1	1	0	1	-12,684989	275,413603	313,545542	0
15.01.2021	15:40:36	0	31,406791	3,502208	1,7355	321,4584	1,088	84,125	0	1015,94	8,2	9,9	9,6	1	1	1	1	1	1	1	1	1	0	1	-18,25229	275,412005	307,970674	0
15.01.2021	15:40:37	0	30,931148	3,389234	1,749	305,0064	1,084	84,132	0	1015,88	8,2	9,8	9,6	1	1	1	1	1	1	1	1	1	0	1	-13,460183	275,267213	312,077301	0
15.01.2021	15:40:38	0	31,168861	3,389234	1,863	309,8772	1,083	84,141	0	1015,82	8,2	9,9	9,6	1	1	1	1	1	1	1	1	1	0	1	-10,923185	275,349819	315,005243	0
15.01.2021	15:40:39	0	31,050114	3,841132	1,84725	307,188	1,084	84,14	0	1015,76	8,2	9,8	9,6	1	1	1	1	1	1	1	1	1	0	1	-13,6716	275,443973	312,702853	0
15.01.2021	15:40:40	0	31,288045	4,067081	1,83675	308,844	1,085	84,142	0	1015,96	8,2	9,8	9,6	1	1	1	1	1	1	1	1	1	0	1	-11,980268	275,394446	314,159506	0
15.01.2021	15:40:41	0	31,16908	3,050311	1,87725	317,7648	1,084	84,144	0	1015,82	8,2	9,8	9,6	1	1	1	1	1	1	1	1	1	0	1	-11,205074	275,447173	315,184544	0
15.01.2021	15:40:42	0	31,287826	2,598413	2,10675	320,8356	1,09	84,14	0	1015,76	8,2	10,1	9,6	1	1	1	1	1	1	1	1	1	0	1	-18,88654	275,400829	307,283474	0
15.01.2021	15:40:43	0	31,525757	4,29303	2,31075	292,2012	1,089	84,145	0	1015,88	8,2	9,9	9,6	1	1	1	1	1	1	1	1	1	0	1	-14,094433	275,443973	312,28002	0
15.01.2021	15:40:44	0	31,16908	4,857902	2,4135	318,1716	1,09	84,141	0	1015,86	8,2	9,8	9,6	1	1	1	1	1	1	1	1	1	0	1	-11,909796	275,313239	313,845466	0
15.01.2021	15:40:45	0	30,931148	3,276259	2,61525	327,3912	1,091	84,136	0	1015,82	8,2	9,8	9,6	1	1	1	1	1	1	1	1	1	0	1	-11,980268	275,278313	313,609726	0
15.01.2021	15:40:46	0	31,525977	4,406004	2,66925	314,8488	1,083	84,152	0	1015,88	8,2	9,8	9,6	1	1	1	1	1	1	1	1	1	0	1	-12,825934	275,365745	313,177907	0
15.01.2021	15:40:47	0	31,049896	4,067081	2,829	316,0152	1,086	84,148	0	1015,86	8,2	9,9	9,6	1	1	1	1	1	1	1	1	1	0	1	-14,094433	275,451973	312,317939	0
15.01.2021	15:40:48	0	31,287826	4,631953	2,9415	325,9836	1,084	84,147	0	1015,9	8,2	9,9	9,6	1	1	1	1	1	1	1	1	1	0	1	-14,587738	275,39285	311,544478	0
15.01.2021	15:40:49	0	30,812182	3,502208	2,77425	331,5096	1,087	84,152	0	1015,9	8,2	9,8	9,6	1	1	1	1	1	1	1	1	1	0	1	-18,111346	275,442374	308,255525	0
15.01.2021	15:40:50	0	31,16908	3,954082	2,5125	326,6892	1,088	84,16	0	1015,84	8,2	9,8	9,7	1	1	1	1	1	1	1	1	1	0	1	-13,812544	275,419992	312,448264	0
15.01.2021	15:40:51	0	30,930931	2,598413	2,286	332,8776	1,091	84,164	0	1015,88	8,2	9,9	9,6	1	1	1	1	1	1	1	1	1	0	1	-17,477097	275,410408	308,738301	0
15.01.2021	15:40:52	0	31,168861	2,711387	2,07825	329,0328	1,078	84,142	0	1015,86	8,2	9,9	9,6	1	1	1	1	1	1	1	1	1	0	1	-14,094433	275,267213	311,443052	0
15.01.2021	15:40:53	0	31,168861	4,631953	1,998	336,3624	1,087	84,16	0	1015,86	8,2	9,9	9,6	1	1	1	1	1	1	1	1	1	0	1	-13,460183	275,337088	312,407968	0
15.01.2021	15:40:54	0	31,049896	3,389234	1,96575	321,84	1,083	84,166	0	1015,84	8,2	9,9	9,6	1	1	1	1	1	1	1	1	1	0	1	-13,530655	275,284658	312,089361	0
15.01.2021	15:40:55	0	31,168861	4,29303	1,92225	330,1776	1,087	84,169	0	1015,88	8,2	9,9	9,6	1	1	1	1	1	1	1	1	1	0	1	-16,772375	275,397637	309,382518	0
15.01.2021	15:40:56	0	31,406791	4,518979	1,8885	318,2616	1,092	84,157	0	1015,94	8,2	9,9	9,6	1	1	1	1	1	1	1	1	1	0	1	-14,869626	275,447173	311,519991	0
15.01.2021	15:40:57	0	31,16908	3,841132	1,77375	318,8664	1,091	84,153	0	1015,96	8,2	9,8	9,6	1	1	1	1	1	1	1	1	1	0	1	-17,406624	275,362559	308,582128	0
15.01.2021	15:40:58	0	31,288045	3,954106	1,608	311,49	1,085	84,152	0	1015,9	8,2	9,8	9,6	1	1	1	1	1	1	1	1	1	0	1	-12,825934	275,434377	313,50304	0
15.01.2021	15:40:59	0	31,287826	4,29303	1,43625	311,0472	1,089	84,155	0	1015,88	8,2	9,9	9,6	1	1	1	1	1	1	1	1	1	0	1	-12,191684	275,412005	314,03128	0
15.01.2021	15:41:00	0	31,288045	4,406004	1,49775	314,4348	1,089	84,146	0	1015,86	8,2	9,8	9,6	1	1	1	1	1	1	1	1	1	0	1	-12,825934	275,447173	313,563684	0
15.01.2021	15:41:01	0	31,288045	4,406004	1,49775	314,4348	1,089	84,146	0	1015,86	8,2	9,8	9,6	1	1	1	1	1	1	1	1	1	0	1	-12,825934	275,447173	313,563684	0
15.01.2021	15:41:02	0	31,288045	3,502208	1,545	317,4228	1,09	84,157	0	1015,94	8,2	9,8	9,6	1	1	1	1	1	1	1	1	1	0	1	-12,473573	275,381685	313,605756	0
15.01.2021	15:41:03	0	31,16908	3,502208	1,58625	315,9396	1,089	84,14	0	1015,86	8,2	9,8	9,6	1	1	1	1	1	1	1	1	1	0	1	-13,389711	275,445573	312,992324	0
15.01.2021	15:41:04	0	31,168861	3,615183	1,566	319,1508	1,088	84,127	0	1015,7	8,2	9,9	9,6	1	1	1	1	1	1	1	1	1	0	1	-14,446794	275,302119	311,255844	0
15.01.2021	15:41:05	0	31,16908	3,728157	1,53375	317,3688	1,088	84,138	0	1015,88	8,2	9,8	9,6	1	1	1	1	1	1	1	1	1	0	1	-16,208598	275,275141	309,36639	0
15.01.2021	15:41:06	0	31,288045	2,937336	1,6635	320,0292	1,091	84,132	0	1015,84	8,2	9,8	9,6	1	1	1	1	1	1	1	1	1	0	1	-14,094433	275,335497	311,766187	0
15.01.2021	15:41:07	0	31,049896	3,841132	1,94775	308,1312	1,087	84,129	0	1015,9	8,2	9,9	9,6	1	1	1	1	1	1	1	1	1	0	1	-14,305849	275,443973	312,068603	0
15.01.2021	15:41:08	0	31,050114	4,857902	2,238	315,9576	1,085	84,119	0	1015,64	8,1	9,8	9,6	1	1	1	1	1	1	1	1	1	0	1	-14,728682	275,356188	311,229902	0
15.01.2021	15:41:09	0	30,811966	4,180055	2,58375	311,9652	1,079	84,134	0	1015,72	8,2	9,9	9,6	1	1	1	1	1	1	1	1	1	0	1	-11,486963	275,439175	314,864747	0
15.01.2021	15:41:10	0	30,812182	2,259476	2,85825	309,2508	1,088	84,128	0	1015,94	8,2	9,8	9,7	1	1	1	1	1	1	1	1	1	0	1	-12,614517	275,313239	313,140745	0
15.01.2021	15:41:11	0	31,050114	4,29303	2,99925	316,6704	1,089	84,127	0	1015,98	8,2	9,8	9,6	1	1	1	1	1	1	1	1	1	0	1	-16,631431	275,426384	309,659666	0
15.01.2021	15:41:12	0	31,406791	4,970847	2,90025	318,1788	1,085	84,118	0	1015,74	8,2	9,9	9,7	1	1	1	1	1	1	1	1	1	0	1	-12,262156	275,322775	313,538241	0
15.01.2021	15:41:13	0	31,287826	4,29303	2,7135	318,204	1,089	84,126	0	1015,66	8,2	9,9	9,6	1	1	1	1	1	1	1	1	1	0	1	-14,023961	275,400829	312,146054	0
15.01.2021	15:41:14	0	31,049896	4,406004	2,607	315,4716	1,084	84,127	0	1015,86	8,2	9,9	9,6	1	1	1	1	1	1	1	1	1	0	1	-18,25229	275,324365	307,555632	0
15.01.2021	15:41:15	0	30,811966	4,518979	2,508	308,8728	1,078	84,116	0	1015,86	8,2	9,9	9,6	1	1	1	1	1	1	1	1	1	0	1	-13,530655	275,455174	312,89689	0
15.01.2021	15:41:16	0	31,049896	4,631953	2,39025	306,8784	1,092	84,118	0	1015,76	8,2	10,1	9,6	1	1	1	1	1	1	1	1	1	0	1	-15,292459	275,396041	310,854873	0
15.01.2021	15:41:17	0	31,049896	2,824345	2,3175	321,5016	1,086	84,116	0	1015,7	8,2	9,9	9,7	1	1	1	1	1	1	1	1	1	0	1	-13,03735	275,267213	312,500134	0
15.01.2021	15:41:18	0	30,693001	4,631953	2,36625	309,9852	1,084	84,12	0	1015,86	8,2	9,9	9,6	1	1	1	1	1	1	1	1	1	0	1	-14,305849	275,445573	312,076186	0
15.01.2021	15:41:19	0	30,930931	3,615183	2,37	316,3068	1,086	84,124	0	1015,88	8,2	9,9	9,6	1	1	1	1	1	1	1	1	1	0	1	-14,65821	275,329135	311,172293	0
15.01.2021	15:41:20	0	30,693001	2,711387	2,39625	312,2244	1,089	84,109	0	1015,92	8,2	9,9	9,6	1	1	1	1	1	1	1	1	1	0	1	-10,570825	275,440774	315,788465	0
15.01.2021	15:41:21	0	31,050114	4,631925	2,50425	319,752	1,088	84,123	0	1015,84	8,2	9,8	9,7	1	1	1	1	1	1	1	1	1	0	1	-14,023961	275,333906	311,829129	0
15.01.2021	15:41:22	0	31,049896	2,259489	2,73	308,8584	1,088	84,096	0	1015,76	8,1	10,1	9,6	1	1	1	1	1	1	1	1	1	0	1	-17,054264	275,270384	308,49822	0
15.01.2021	15:41:23	0	31,050114	4,29303	2,87925	300,906	1,088	84,118	0	1015,98	8,2	9,8	9,6	1	1	1	1	1	1	1	1	1	0	1	-15,64482	275,386469	310,45717	0
15.01.2021	15:41:24	0	31,049896	4,518979	2,8455	321,9228	1,085	84,099	0	1015,82	8,2	9,9	9,6	1	1	1	1	1	1	1	1	1	0	1	-15,785765	275,25612	309,699247	0
15.01.2021	15:41:25	0	30,811966	2,598413	2,757	317,7792	1,084	84,106	0	1015,74	8,2	9,9	9,6	1	1	1	1	1	1	1	1	1	0	1	-9,372798	275,316417	316,397506	0
15.01.2021	15:41:26	0	31,049896	4,857902	2,65425	314,928	1,088	84,1	0	1015,96	8,2	9,9	9,6	1	1	1	1	1	1	1	1	1	0	1	-11,275546	275,262458	314,239445	0
15.01.2021	15:41:27	0	30,811966	2,824362	2,69325	304,6536	1,079	84,107	0	1015,76	8,2	9,9	9,6	1	1	1	1	1	1	1	1	1	0	1	-14,305849	275,297355	311,374246	0
15.01.2021	15:41:28	0	30,455284	4,29303	2,82375	308,1924	1,088	84,162	0	1015,92	8,2	9,8	9,6	1	1	1	1	1	1	1	1	1	0	1	-17,336152	275,260873	308,171343	0
15.01.2021	15:41:29	0	31,049896	4,067081	2,77725	322,6536	1,086	84,1	0	1015,82	8,1	9,9	9,6	1	1	1	1	1	1	1	1	1	0	1	-15,64482	275,375307	310,404305	0
15.01.2021	15:41:30	0	30,930931	3,389234	2,76675	311,058	1,09	84,113	0	1015,94	8,2	9,9	9,6	1	1	1	1	1	1	1	1	1	0	1	-15,081043	275,43118	311,232778	0
15.01.2021	15:41:31	0	30,930931	2,824362	2,76525	317,0052	1,087	84,113	0	1015,82	8,2	9,9	9,6	1	1	1	1	1	1	1	1	1	0	1	-12,684989	275,278313	312,905005	0
15.01.2021	15:41:32	0	30,811966	3,389234	2,796	319,2516	1,086	84,101	0	1015,88	8,2	9,9	9,6	1	1	1	1	1	1	1	1	1	0	1	-13,6716	275,389659	312,445502	0
15.01.2021	15:41:33	0	31,049896	3,841109	2,808	318,4524	1,086	84,108	0	1015,84	8,2	9,9	9,7	1	1	1	1	1	1	1	1	1	0	1	-10,288936	275,440774	316,070354	0
15.01.2021	15:41:34	0	30,45507	3,276259	2,634	321,1596	1,089	84,11	0	1015,98	8,2	9,9	9,6	1	1	1	1	1	1	1	1	1	0	1	-12,966878	275,267213	312,570606	0
15.01.2021	15:41:35	0	30,45507	2,485423	2,5635	306,8568	1,086	84,108	0	1015,82	8,2	9,9	9,7	1	1	1	1	1	1	1	1	1	0	1	-12,896406	275,298943	312,791203	0
15.01.2021	15:41:36	0	30,574036	2,937336	2,55075	320,0796	1,087	84,112	0	1015,78	8,2	9,9	9,6	1	1	1	1	1	1	1	1	1	0	1	-15,503876	275,437575	310,840255	0
15.01.2021	15:41:37	0	30,45507	2,372449	2,4675	318,9096	1,082	84,098	0	1015,8	8,1	9,9	9,7	1	1	1	1	1	1	1	1	1	0	1	-15,574348	275,291006	310,075702	0
15.01.2021	15:41:38	0	30,931148	4,180055	2,47275	322,9452	1,093	84,095	0	1015,82	8,2	9,8	9,6	1	1	1	1	1	1	1	1	1	0	1	-11,275546	275,439175	315,076164	0
15.01.2021	15:41:39	0	30,45507	3,163285	2,5845	335,2608	1,088	84,109	0	1016,02	8,1	9,9	9,6	1	1	1	1	1	1	1	1	1	0	1	-15,081043	275,386469	311,020947	0
15.01.2021	15:41:40	0	30,21714	3,389234	2,61825	346,0824	1,085	84,103	0	1015,8	8,2	9,9	9,6	1	1	1	1	1	1	1	1	1	0	1	-10,288936	275,2482	315,158617	0
15.01.2021	15:41:41	0	30,693001	3,954106	2,613	321,7248	1,09	84,101	0	1015,98	8,2	9,9	9,6	1	1	1	1	1	1	1	1	1	0	1	-12,755462	275,319595	313,029888	0
15.01.2021	15:41:42	0	30,45507	3,954106	2,61675	329,2488	1,082	84,102	0	1015,8	8,1	9,9	9,6	1	1	1	1	1	1	1	1	1	0	1	-10,359408	275,419992	315,9014	0
15.01.2021	15:41:43	0	30,574036	4,744927	2,5395	327,1932	1,085	84,101	0	1015,68	8,2	9,9	9,6	1	1	1	1	1	1	1	1	1	0	1	-17,89993	275,330725	307,938102	0
15.01.2021	15:41:44	0	30,336105	2,937318	2,41875	333,072	1,083	84,105	0	1015,82	8,2	9,9	9,7	1	1	1	1	1	1	1	1	1	0	1	-14,587738	275,24345	310,837348	0
15.01.2021	15:41:45	0	30,336105	2,937336	2,37825	333,1188	1,086	84,091	0	1015,8	8,2	9,9	9,6	1	1	1	1	1	1	1	1	1	0	1	-10,993658	275,435976	315,342894	0
15.01.2021	15:41:46	0	30,45507	3,954106	2,45025	328,9176	1,088	84,105	0	1015,8	8,2	9,9	9,6	1	1	1	1	1	1	1	1	1	0	1	-14,799154	275,251368	310,663379	0
15.01.2021	15:41:47	0	30,693001	5,08382	2,45325	331,0992	1,087	84,097	0	1015,84	8,2	9,9	9,7	1	1	1	1	1	1	1	1	1	0	1	-15,221987	275,316417	310,548317	0
15.01.2021	15:41:48	0	30,45507	3,615161	2,3505	332,4096	1,088	84,102	0	1015,8	8,2	9,9	9,7	1	1	1	1	1	1	1	1	1	0	1	-9,372798	275,259289	316,127202	0
15.01.2021	15:41:49	0	30,574036	3,615183	2,16225	332,4492	1,09	84,101	0	1015,84	8,2	9,9	9,6	1	1	1	1	1	1	1	1	1	0	1	-14,446794	275,367339	311,564593	0
15.01.2021	15:41:50	0	30,336105	4,180055	2,00175	333,1368	1,089	84,103	0	1015,9	8,2	9,9	9,6	1	1	1	1	1	1	1	1	1	0	1	-11,205074	275,252952	314,264952	0
15.01.2021	15:41:51	0	30,45507	3,389234	1,91925	323,676	1,089	84,086	0	1015,86	8,1	9,9	9,6	1	1	1	1	1	1	1	1	1	0	1	-14,940099	275,39285	311,192117	0
15.01.2021	15:41:52	0	30,098175	4,180055	1,8675	315,1872	1,091	84,088	0	1015,98	8,1	9,9	9,6	1	1	1	1	1	1	1	1	1	0	1	-11,134602	275,450373	315,270185	0
15.01.2021	15:41:53	0	30,336105	2,146515	1,84575	330,8436	1,088	84,072	0	1015,68	8,1	9,9	9,6	1	1	1	1	1	1	1	1	1	0	1	-13,460183	275,314828	312,302599	0
15.01.2021	15:41:54	0	30,21714	2,485423	1,88175	325,6236	1,09	84,065	0	1015,84	8,2	9,9	9,7	1	1	1	1	1	1	1	1	1	0	1	-13,178295	275,24345	312,246792	0
15.01.2021	15:41:55	0	30,693001	4,744927	1,887	324,3744	1,085	84,071	0	1015,8	8,1	9,9	9,6	1	1	1	1	1	1	1	1	1	0	1	-16,138125	275,384874	309,95631	0
15.01.2021	15:41:56	0	30,45507	2,598413	1,89375	331,5168	1,088	84,066	0	1015,88	8,1	9,9	9,6	1	1	1	1	1	1	1	1	1	0	1	-15,715292	275,2482	309,73226	0
15.01.2021	15:41:57	0	30,811966	4,744899	1,8075	314,4024	1,08	84,06	0	1015,88	8,2	9,9	9,7	1	1	1	1	1	1	1	1	1	0	1	-11,627907	275,364152	314,368389	0
15.01.2021	15:41:58	0	30,098175	3,615183	1,737	334,6344	1,085	84,04	0	1015,86	8,2	9,9	9,6	1	1	1	1	1	1	1	1	1	0	1	-8,879493	275,443973	317,49496	0
15.01.2021	15:41:59	0	30,21714	3,27624	1,76325	337,9284	1,079	84,057	0	1015,78	8,2	9,9	9,7	1	1	1	1	1	1	1	1	1	0	1	-13,460183	275,426384	312,830913	0
15.01.2021	15:42:00	0	30,574036	4,518979	2,0505	347,238	1,076	84,036	0	1015,78	8,1	9,9	9,6	1	1	1	1	1	1	1	1	1	0	1	-15,292459	275,270384	310,260024	0
15.01.2021	15:42:01	0	30,574036	4,518979	2,0505	347,238	1,076	84,036	0	1015,78	8,1	9,9	9,6	1	1	1	1	1	1	1	1	1	0	1	-16,772375	275,408812	309,435457	0
15.01.2021	15:42:02	0	30,574036	2,824362	2,5095	331,4844	1,079	84,031	0	1015,92	8,1	9,9	9,6	1	1	1	1	1	1	1	1	1	0	1	-14,587738	275,251368	310,874796	0
15.01.2021	15:42:03	0	30,574036	3,954106	2,80425	319,122	1,087	84,038	0	1015,86	8,2	9,9	9,6	1	1	1	1	1	1	1	1	1	0	1	-13,389711	275,418395	312,863526	0
15.01.2021	15:42:04	0	30,21714	3,163285	2,89125	328,5396	1,082	84,045	0	1015,84	8,2	9,9	9,6	1	1	1	1	1	1	1	1	1	0	1	-13,742072	275,384874	312,352364	0
15.01.2021	15:42:05	0	30,45507	3,954106	2,712	330,4692	1,087	84,037	0	1015,98	8,1	9,9	9,6	1	1	1	1	1	1	1	1	1	0	1	-16,772375	275,418395	309,480863	0
15.01.2021	15:42:06	0	30,45507	3,841132	2,6115	333,162	1,085	84,032	0	1015,9	8,1	9,9	9,6	1	1	1	1	1	1	1	1	1	0	1	-12,825934	275,362559	313,162819	0
15.01.2021	15:42:07	0	30,21714	4,180055	2,5935	325,098	1,086	84,053	0	1015,84	8,1	9,9	9,6	1	1	1	1	1	1	1	1	1	0	1	-10,42988	275,268798	315,115103	0
15.01.2021	15:42:08	0	30,336105	2,598413	2,76075	323,6472	1,091	84,043	0	1015,8	8,1	9,9	9,6	1	1	1	1	1	1	1	1	1	0	1	-14,305849	275,313239	311,449413	0
15.01.2021	15:42:09	0	30,098175	4,405978	2,90475	323,9892	1,083	84,048	0	1016,02	8,1	9,9	9,7	1	1	1	1	1	1	1	1	1	0	1	-11,41649	275,434377	314,912484	0
15.01.2021	15:42:10	0	30,45507	4,631925	2,94225	327,1392	1,086	84,057	0	1015,94	8,2	9,9	9,7	1	1	1	1	1	1	1	1	1	0	1	-12,684989	275,402425	313,492587	0
15.01.2021	15:42:11	0	29,860245	3,502208	3,015	328,6044	1,087	84,038	0	1015,9	8,2	9,9	9,6	1	1	1	1	1	1	1	1	1	0	1	-16,490486	275,251368	308,972048	0
15.01.2021	15:42:12	0	30,574036	3,502208	2,89425	317,7504	1,083	84,049	0	1015,8	8,1	9,9	9,6	1	1	1	1	1	1	1	1	1	0	1	-19,097956	275,383279	306,988926	0
15.01.2021	15:42:13	0	30,098175	2,485423	2,59125	332,0784	1,089	84,046	0	1015,92	8,1	9,9	9,7	1	1	1	1	1	1	1	1	1	0	1	-12,473573	275,432778	313,847824	0
15.01.2021	15:42:14	0	30,336105	3,841132	2,475	327,1464	1,084	84,048	0	1015,9	8,2	9,9	9,6	1	1	1	1	1	1	1	1	1	0	1	-11,275546	275,295768	314,397037	0
15.01.2021	15:42:15	0	30,45507	3,389234	2,472	333,1548	1,089	84,068	0	1015,92	8,2	9,9	9,6	1	1	1	1	1	1	1	1	1	0	1	-15,221987	275,276727	310,360503	0
15.01.2021	15:42:16	0	30,21714	3,389234	2,56275	327,7656	1,085	84,059	0	1015,8	8,1	9,9	9,6	1	1	1	1	1	1	1	1	1	0	1	-17,124736	275,29418	308,540335	0
15.01.2021	15:42:17	0	30,098175	2,824362	2,57475	327,2868	1,083	84,051	0	1015,76	8,2	9,9	9,6	1	1	1	1	1	1	1	1	1	0	1	-13,6716	275,365745	312,332241	0
15.01.2021	15:42:18	0	30,21714	3,27624	2,6505	319,1616	1,085	84,061	0	1015,72	8,1	9,9	9,7	1	1	1	1	1	1	1	1	1	0	1	-14,164905	275,233953	311,215269	0
15.01.2021	15:42:19	0	30,098175	2,711371	2,58525	322,5744	1,085	84,07	0	1015,96	8,1	9,9	9,7	1	1	1	1	1	1	1	1	1	0	1	-12,403101	275,335497	313,457519	0
15.01.2021	15:42:20	0	29,97921	4,857902	2,4975	325,5192	1,085	84,06	0	1015,94	8,2	9,9	9,6	1	1	1	1	1	1	1	1	1	0	1	-16,490486	275,410408	309,724911	0
15.01.2021	15:42:21	0	30,098175	4,067056	2,2395	331,4844	1,087	84,064	0	1015,84	8,1	9,9	9,7	1	1	1	1	1	1	1	1	1	0	1	-16,842847	275,322775	308,95755	0
15.01.2021	15:42:22	0	29,97921	3,389214	2,085	314,064	1,088	84,068	0	1016,06	8,2	9,9	9,7	1	1	1	1	1	1	1	1	1	0	1	-15,362932	275,313239	310,39233	0
15.01.2021	15:42:23	0	29,97921	4,29303	2,04975	316,2384	1,087	84,061	0	1015,84	8,1	9,9	9,6	1	1	1	1	1	1	1	1	1	0	1	-11,839323	275,257704	313,653182	0
15.01.2021	15:42:24	0	29,97921	4,067056	2,1315	332,3592	1,083	84,074	0	1015,78	8,1	9,9	9,7	1	1	1	1	1	1	1	1	1	0	1	-20,225511	275,287832	305,409521	0
15.01.2021	15:42:25	0	30,45507	4,970847	2,313	331,4448	1,083	84,068	0	1015,68	8,1	9,9	9,7	1	1	1	1	1	1	1	1	1	0	1	-12,614517	275,418395	313,63872	0
15.01.2021	15:42:26	0	29,97921	4,405978	2,44125	318,8952	1,083	84,084	0	1015,92	8,1	9,9	9,7	1	1	1	1	1	1	1	1	1	0	1	-13,6716	275,286245	311,955924	0
15.01.2021	15:42:27	0	29,860245	3,389214	2,53425	312,8868	1,083	84,091	0	1015,84	8,1	9,9	9,7	1	1	1	1	1	1	1	1	1	0	1	-12,755462	275,24345	312,669625	0
15.01.2021	15:42:28	0	29,50335	2,598397	2,523	330,7032	1,086	84,084	0	1015,84	8,1	9,9	9,7	1	1	1	1	1	1	1	1	1	0	1	-17,477097	275,306884	308,24809	0
15.01.2021	15:42:29	0	29,860245	3,163285	2,352	331,5564	1,085	84,081	0	1015,86	8,1	9,9	9,6	1	1	1	1	1	1	1	1	1	0	1	-18,393235	275,418395	307,860003	0
15.01.2021	15:42:30	0	29,97921	1,920566	2,259	312,1416	1,087	84,085	0	1015,9	8,2	9,9	9,6	1	1	1	1	1	1	1	1	1	0	1	-10,711769	275,322775	315,088629	0
15.01.2021	15:42:31	0	29,860245	3,728157	2,1075	322,2216	1,083	84,07	0	1016,16	8,1	9,9	9,6	1	1	1	1	1	1	1	1	1	0	1	-13,03735	275,386469	313,06464	0
15.01.2021	15:42:32	0	30,098175	3,502187	2,121	333,2124	1,083	84,09	0	1015,86	8,1	9,9	9,7	1	1	1	1	1	1	1	1	1	0	1	-9,584214	275,265628	315,945772	0
15.01.2021	15:42:33	0	30,21714	4,518979	2,01375	315,2556	1,088	84,103	0	1015,84	8,1	9,9	9,6	1	1	1	1	1	1	1	1	1	0	1	-15,997181	275,418395	310,256056	0
15.01.2021	15:42:34	0	29,384384	2,372449	1,98675	323,3376	1,085	84,098	0	1015,72	8,1	9,9	9,7	1	1	1	1	1	1	1	1	1	0	1	-17,688513	275,292593	307,969047	0
15.01.2021	15:42:35	0	29,50335	2,259489	2,00325	325,6092	1,087	84,098	0	1015,74	8,1	9,9	9,6	1	1	1	1	1	1	1	1	1	0	1	-13,178295	275,254536	312,299223	0
15.01.2021	15:42:36	0	29,97921	2,711387	1,96275	324,1116	1,085	84,087	0	1015,86	8,1	9,9	9,6	1	1	1	1	1	1	1	1	1	0	1	-12,614517	275,287832	313,020514	0
15.01.2021	15:42:37	0	29,74128	3,728157	1,99575	323,0388	1,078	84,093	0	1015,78	8,2	9,9	9,6	1	1	1	1	1	1	1	1	1	0	1	-13,248767	275,251368	312,213767	0
15.01.2021	15:42:38	0	29,860245	4,29303	1,91625	318,15	1,089	84,101	0	1015,76	8,1	9,9	9,6	1	1	1	1	1	1	1	1	1	0	1	-15,362932	275,364152	310,633365	0
15.01.2021	15:42:39	0	29,384384	2,259489	1,73925	312,6564	1,091	84,105	0	1015,94	8,1	9,9	9,6	1	1	1	1	1	1	1	1	1	0	1	-10,641297	275,260873	314,866199	0
15.01.2021	15:42:40	0	30,098175	3,954106	1,7415	314,1468	1,094	84,106	0	1015,86	8,1	9,9	9,6	1	1	1	1	1	1	1	1	1	0	1	-15,292459	275,38009	310,779317	0
15.01.2021	15:42:41	0	29,860245	2,485438	1,773	321,9048	1,089	84,101	0	1015,94	8,1	9,9	9,6	1	1	1	1	1	1	1	1	1	0	1	-13,460183	275,241867	311,957416	0
15.01.2021	15:42:42	0	29,860245	2,711371	1,956	309,8412	1,085	84,106	0	1015,92	8,2	9,9	9,7	1	1	1	1	1	1	1	1	1	0	1	-12,191684	275,381685	313,887645	0
15.01.2021	15:42:43	0	29,97921	3,389214	2,16675	323,6652	1,088	84,112	0	1015,92	8,1	9,9	9,7	1	1	1	1	1	1	1	1	1	0	1	-10,570825	275,439175	315,780885	0
15.01.2021	15:42:44	0	29,97921	4,518951	2,23125	306,1332	1,086	84,103	0	1015,96	8,1	9,9	9,7	1	1	1	1	1	1	1	1	1	0	1	-12,544045	275,295768	313,128538	0
15.01.2021	15:42:45	0	29,860245	3,954082	2,226	327,114	1,089	84,118	0	1015,88	8,1	9,9	9,7	1	1	1	1	1	1	1	1	1	0	1	-10,218464	275,264043	315,304025	0
15.01.2021	15:42:46	0	29,97921	3,615183	2,19	317,1168	1,085	84,093	0	1015,76	8,2	9,9	9,6	1	1	1	1	1	1	1	1	1	0	1	-10,923185	275,289419	314,719355	0
15.01.2021	15:42:47	0	29,74128	4,293004	2,043	315,8928	1,086	84,104	0	1015,92	8,1	9,9	9,7	1	1	1	1	1	1	1	1	1	0	1	-12,896406	275,4152	313,341693	0
15.01.2021	15:42:48	0	29,622315	2,824345	2,0745	316,62	1,087	84,089	0	1015,84	8,1	9,9	9,7	1	1	1	1	1	1	1	1	1	0	1	-14,235377	275,375307	311,813748	0
15.01.2021	15:42:49	0	29,74128	4,405978	1,97625	330,7752	1,084	84,104	0	1015,84	8,1	9,9	9,7	1	1	1	1	1	1	1	1	1	0	1	-13,530655	275,423188	312,745295	0
15.01.2021	15:42:50	0	29,622315	4,631925	1,89825	328,0032	1,088	84,106	0	1015,92	8,1	9,9	9,7	1	1	1	1	1	1	1	1	1	0	1	-15,64482	275,365745	310,359021	0
15.01.2021	15:42:51	0	29,50335	2,372449	1,78425	329,652	1,086	84,088	0	1015,8	8,1	9,9	9,7	1	1	1	1	1	1	1	1	1	0	1	-13,6716	275,416797	312,574068	0
15.01.2021	15:42:52	0	29,860245	4,405978	1,7085	324,0576	1,093	84,103	0	1015,9	8,2	9,9	9,7	1	1	1	1	1	1	1	1	1	0	1	-19,591261	275,298943	306,096347	0
15.01.2021	15:42:53	0	29,265419	3,728135	1,6905	313,2504	1,081	84,077	0	1015,68	8,1	9,9	9,7	1	1	1	1	1	1	1	1	1	0	1	-8,104299	275,405618	318,088404	0
15.01.2021	15:42:54	0	29,97921	4,631925	1,629	325,1988	1,082	84,084	0	1015,86	8,1	9,9	9,7	1	1	1	1	1	1	1	1	1	0	1	-13,953488	275,316417	311,816816	0
15.01.2021	15:42:55	0	29,384384	3,050292	1,6035	322,668	1,082	84,101	0	1015,78	8,1	9,9	9,7	1	1	1	1	1	1	1	1	1	0	1	-7,82241	275,230788	317,542799	0
15.01.2021	15:42:56	0	29,50335	3,163266	1,69425	319,644	1,087	84,089	0	1016	8,1	9,9	9,7	1	1	1	1	1	1	1	1	1	0	1	-18,181818	275,298943	307,505791	0
15.01.2021	15:42:57	0	29,622315	4,518951	1,80075	315,612	1,085	84,088	0	1015,88	8,1	9,9	9,7	1	1	1	1	1	1	1	1	1	0	1	-13,883016	275,429581	312,423229	0
15.01.2021	15:42:58	0	29,74128	2,598397	1,98825	316,9908	1,081	84,102	0	1015,84	8,1	9,9	9,7	1	1	1	1	1	1	1	1	1	0	1	-13,460183	275,367339	312,551203	0
15.01.2021	15:42:59	0	29,50335	5,08382	2,04375	313,2648	1,084	84,095	0	1015,92	8,1	9,9	9,7	1	1	1	1	1	1	1	1	1	0	1	-15,292459	275,432778	311,028938	0
15.01.2021	15:43:00	0	29,860245	4,744899	2,32725	331,4592	1,088	84,085	0	1015,9	8,1	9,9	9,7	1	1	1	1	1	1	1	1	1	0	1	-15,081043	275,359373	310,892624	0
15.01.2021	15:43:01	0	29,860245	4,744899	2,32725	331,4592	1,088	84,085	0	1015,9	8,1	9,9	9,7	1	1	1	1	1	1	1	1	1	0	1	-13,883016	275,410408	312,332381	0
15.01.2021	15:43:02	0	29,860245	2,598397	2,5755	330,1668	1,09	84,087	0	1015,76	8,1	9,9	9,7	1	1	1	1	1	1	1	1	1	0	1	-12,121212	275,357781	313,844913	0
15.01.2021	15:43:03	0	29,74128	2,937318	2,57925	331,1496	1,08	84,075	0	1015,9	8,1	9,9	9,7	1	1	1	1	1	1	1	1	1	0	1	-11,980268	275,412005	314,242696	0
15.01.2021	15:43:04	0	29,265419	3,163266	2,56875	319,626	1,082	84,091	0	1015,84	8,1	9,9	9,7	1	1	1	1	1	1	1	1	1	0	1	-12,825934	275,302119	312,876704	0
15.01.2021	15:43:05	0	29,265419	3,954082	2,556	315,54	1,086	84,107	0	1015,86	8,1	9,9	9,7	1	1	1	1	1	1	1	1	1	0	1	-12,825934	275,257704	312,666571	0
15.01.2021	15:43:06	0	29,384384	2,485423	2,4945	324,3816	1,082	84,091	0	1015,94	8,1	9,9	9,7	1	1	1	1	1	1	1	1	1	0	1	-10,359408	275,287832	315,275623	0
15.01.2021	15:43:07	0	29,384384	3,27624	2,3415	323,3196	1,089	84,093	0	1015,92	8,1	9,9	9,7	1	1	1	1	1	1	1	1	1	0	1	-14,587738	275,42159	311,680641	0
15.01.2021	15:43:08	0	29,50335	3,502187	2,2725	317,0304	1,078	84,092	0	1015,84	8,1	9,9	9,7	1	1	1	1	1	1	1	1	1	0	1	-15,292459	275,359373	310,681207	0
15.01.2021	15:43:09	0	29,384384	3,389214	2,2875	320,0148	1,076	84,085	0	1015,8	8,1	9,9	9,7	1	1	1	1	1	1	1	1	1	0	1	-11,768851	275,2482	313,678701	0
15.01.2021	15:43:10	0	29,027489	3,163266	2,307	311,4504	1,084	84,089	0	1016	8,1	9,9	9,7	1	1	1	1	1	1	1	1	1	0	1	-15,010571	275,322775	310,789827	0
15.01.2021	15:43:11	0	29,622315	4,970847	2,26875	310,7628	1,08	84,102	0	1015,9	8,2	9,9	9,7	1	1	1	1	1	1	1	1	1	0	1	-13,883016	275,381685	312,196313	0
15.01.2021	15:43:12	0	29,146454	2,711371	2,04525	312,5124	1,086	84,098	0	1015,9	8,1	9,9	9,7	1	1	1	1	1	1	1	1	1	0	1	-14,094433	275,2482	311,35312	0
15.01.2021	15:43:13	0	29,384384	3,163266	1,97025	329,2488	1,087	84,1	0	1015,86	8,1	9,9	9,7	1	1	1	1	1	1	1	1	1	0	1	-11,205074	275,34027	314,678142	0
15.01.2021	15:43:14	0	29,622315	4,180055	2,1645	338,4648	1,078	84,089	0	1015,74	8,1	9,9	9,6	1	1	1	1	1	1	1	1	1	0	1	-9,936575	275,25612	315,548436	0
15.01.2021	15:43:15	0	29,265419	4,970876	2,31375	336,312	1,085	84,09	0	1015,84	8,1	9,9	9,6	1	1	1	1	1	1	1	1	1	0	1	-13,107822	275,378496	312,956403	0
15.01.2021	15:43:16	0	29,027489	2,598413	2,3085	344,7036	1,081	84,088	0	1015,9	8,1	9,9	9,6	1	1	1	1	1	1	1	1	1	0	1	-10,007047	275,24345	315,418039	0
15.01.2021	15:43:17	0	29,622315	4,405978	2,25375	337,4856	1,08	84,093	0	1015,84	8,1	9,9	9,7	1	1	1	1	1	1	1	1	1	0	1	-13,6716	275,397637	312,483293	0
15.01.2021	15:43:18	0	28,908524	2,598397	2,1015	319,9392	1,081	84,098	0	1015,9	8,1	9,9	9,7	1	1	1	1	1	1	1	1	1	0	1	-11,627907	275,265628	313,902079	0
15.01.2021	15:43:19	0	29,622315	4,067056	1,9845	324,0576	1,083	84,095	0	1015,92	8,1	9,9	9,7	1	1	1	1	1	1	1	1	1	0	1	-14,023961	275,373713	312,017615	0
15.01.2021	15:43:20	0	29,146454	2,824345	1,77675	309,5532	1,085	84,114	0	1015,96	8,1	9,9	9,7	1	1	1	1	1	1	1	1	1	0	1	-12,473573	275,388064	313,635973	0
15.01.2021	15:43:21	0	29,622315	3,841109	1,60125	327,1356	1,082	84,094	0	1015,94	8,1	9,9	9,7	1	1	1	1	1	1	1	1	1	0	1	-15,64482	275,389659	310,472281	0
15.01.2021	15:43:22	0	29,384384	2,598397	1,497	329,688	1,084	84,098	0	1015,7	8,1	9,9	9,7	1	1	1	1	1	1	1	1	1	0	1	-12,191684	275,362559	313,797068	0
15.01.2021	15:43:23	0	29,027489	3,389214	1,4445	343,9188	1,085	84,106	0	1016,02	8,1	9,9	9,7	1	1	1	1	1	1	1	1	1	0	1	-12,684989	275,246617	312,755074	0
15.01.2021	15:43:24	0	29,146454	2,598397	1,5285	324,3312	1,081	84,117	0	1015,8	8,1	9,9	9,7	1	1	1	1	1	1	1	1	1	0	1	-10,218464	275,329135	315,612039	0
15.01.2021	15:43:25	0	29,146454	3,728135	1,63125	324,0108	1,084	84,116	0	1015,88	8,1	9,9	9,7	1	1	1	1	1	1	1	1	1	0	1	-14,376321	275,43118	311,937499	0
15.01.2021	15:43:26	0	29,265419	3,615183	1,86225	316,2672	1,084	84,126	0	1015,86	8,1	9,9	9,6	1	1	1	1	1	1	1	1	1	0	1	-13,883016	275,375307	312,166109	0
15.01.2021	15:43:27	0	29,265419	2,824362	2,57775	329,652	1,086	84,111	0	1015,98	8,1	9,9	9,6	1	1	1	1	1	1	1	1	1	0	1	-13,883016	275,400829	312,286998	0
15.01.2021	15:43:28	0	29,384384	3,502187	2,853	329,238	1,083	84,11	0	1015,84	8,1	9,9	9,7	1	1	1	1	1	1	1	1	1	0	1	-13,812544	275,384874	312,281892	0
15.01.2021	15:43:29	0	29,384384	4,631925	3,07125	333,1728	1,085	84,109	0	1015,88	8,1	9,9	9,7	1	1	1	1	1	1	1	1	1	0	1	-12,191684	275,246617	313,248379	0
15.01.2021	15:43:30	0	29,146454	3,163266	3,1905	345,6972	1,078	84,121	0	1015,84	8,1	9,9	9,7	1	1	1	1	1	1	1	1	1	0	1	-15,997181	275,229206	309,360546	0
15.01.2021	15:43:31	0	29,265419	3,615161	3,228	347,2956	1,085	84,125	0	1015,9	8,1	9,9	9,7	1	1	1	1	1	1	1	1	1	0	1	-15,926709	275,359373	310,046958	0
15.01.2021	15:43:32	0	29,027489	3,389214	3,22425	324,1332	1,082	84,126	0	1015,9	8,1	9,9	9,7	1	1	1	1	1	1	1	1	1	0	1	-16,631431	275,230788	308,733778	0
15.01.2021	15:43:33	0	28,908524	3,389214	3,31275	337,2444	1,078	84,115	0	1015,88	8,1	9,9	9,7	1	1	1	1	1	1	1	1	1	0	1	-15,081043	275,378496	310,983183	0
15.01.2021	15:43:34	0	29,146454	3,502187	3,29025	348,3324	1,08	84,13	0	1015,94	8,1	9,9	9,7	1	1	1	1	1	1	1	1	1	0	1	-12,825934	275,408812	313,381898	0
15.01.2021	15:43:35	0	29,384384	4,744899	3,19275	324,3852	1,085	84,136	0	1015,92	8,1	9,9	9,7	1	1	1	1	1	1	1	1	1	0	1	-12,825934	275,310061	312,914289	0
15.01.2021	15:43:36	0	29,384384	4,631953	3,3315	324,1296	1,082	84,131	0	1015,98	8,1	9,9	9,6	1	1	1	1	1	1	1	1	1	0	1	-11,205074	275,408812	315,002758	0
15.01.2021	15:43:37	0	29,265419	4,18003	3,453	321,84	1,076	84,122	0	1015,78	8,1	9,9	9,7	1	1	1	1	1	1	1	1	1	0	1	-14,65821	275,338679	311,217473	0
15.01.2021	15:43:38	0	29,50335	4,18003	3,43575	313,6572	1,079	84,135	0	1015,82	8,1	9,9	9,7	1	1	1	1	1	1	1	1	1	0	1	-12,755462	275,412005	313,467502	0
15.01.2021	15:43:39	0	29,027489	4,857873	3,41175	310,6512	1,075	84,129	0	1015,82	8,1	9,9	9,7	1	1	1	1	1	1	1	1	1	0	1	-13,389711	275,308472	312,342993	0
15.01.2021	15:43:40	0	29,265419	3,389234	3,3075	316,9692	1,085	84,144	0	1015,94	8,1	9,9	9,6	1	1	1	1	1	1	1	1	1	0	1	-15,785765	275,405618	310,406938	0
15.01.2021	15:43:41	0	29,027489	2,937318	3,21225	338,3856	1,079	84,12	0	1015,88	8,1	9,9	9,7	1	1	1	1	1	1	1	1	1	0	1	-12,544045	275,273555	313,02344	0
15.01.2021	15:43:42	0	29,027489	2,937318	3,22575	326,016	1,083	84,14	0	1015,9	8,1	9,9	9,7	1	1	1	1	1	1	1	1	1	0	1	-16,772375	275,410408	309,443022	0
15.01.2021	15:43:43	0	28,908524	3,841155	3,38625	339,5304	1,076	84,127	0	1015,82	8,1	9,9	9,5	1	1	1	1	1	1	1	1	1	0	1	-15,433404	275,308472	310,2993	0
15.01.2021	15:43:44	0	28,908524	3,841109	3,4365	322,6032	1,079	84,138	0	1015,9	8,1	9,9	9,7	1	1	1	1	1	1	1	1	1	0	1	-13,530655	275,229206	311,827072	0
15.01.2021	15:43:45	0	29,146454	2,485423	3,3585	332,3736	1,086	84,152	0	1015,9	8,1	9,9	9,7	1	1	1	1	1	1	1	1	1	0	1	-9,513742	275,286245	316,113781	0
15.01.2021	15:43:46	0	28,908524	2,485423	3,4155	320,3424	1,084	84,151	0	1015,78	8,1	9,9	9,7	1	1	1	1	1	1	1	1	1	0	1	-12,332629	275,407215	313,867638	0
15.01.2021	15:43:47	0	28,908524	4,293004	3,61875	326,3796	1,085	84,152	0	1015,92	8,1	9,9	9,7	1	1	1	1	1	1	1	1	1	0	1	-12,332629	275,399233	313,829824	0
15.01.2021	15:43:48	0	29,265419	4,970847	3,5625	335,6712	1,085	84,156	0	1015,88	8,1	9,9	9,7	1	1	1	1	1	1	1	1	1	0	1	-14,446794	275,267213	311,090691	0
15.01.2021	15:43:49	0	29,265419	3,841109	3,33825	322,1928	1,085	84,16	0	1015,84	8,1	9,9	9,7	1	1	1	1	1	1	1	1	1	0	1	-14,094433	275,298943	311,593176	0
15.01.2021	15:43:50	0	28,789559	2,598397	3,28125	322,9596	1,085	84,157	0	1015,82	8,1	9,9	9,7	1	1	1	1	1	1	1	1	1	0	1	-9,866103	275,235535	315,521554	0
15.01.2021	15:43:51	0	29,146454	4,970847	3,39675	324,0828	1,078	84,161	0	1015,8	8,1	9,9	9,7	1	1	1	1	1	1	1	1	1	0	1	-12,332629	275,360966	313,648581	0
15.01.2021	15:43:52	0	28,432663	2,259476	3,47025	330,39	1,085	84,154	0	1015,96	8,1	9,9	9,7	1	1	1	1	1	1	1	1	1	0	1	-15,574348	275,237118	309,820793	0
15.01.2021	15:43:53	0	28,789559	3,163266	3,57975	325,512	1,085	84,165	0	1015,88	8,1	9,9	9,7	1	1	1	1	1	1	1	1	1	0	1	-14,305849	275,298943	311,38176	0
15.01.2021	15:43:54	0	29,027489	4,857873	3,636	315,1944	1,086	84,151	0	1015,84	8,1	9,9	9,7	1	1	1	1	1	1	1	1	1	0	1	-15,081043	275,22446	310,254245	0
15.01.2021	15:43:55	0	28,908524	4,18003	3,7545	338,0544	1,084	84,135	0	1015,9	8,1	9,9	9,7	1	1	1	1	1	1	1	1	1	0	1	-9,936575	275,378496	316,12765	0
15.01.2021	15:43:56	0	28,432663	2,711371	3,834	344,3796	1,08	84,138	0	1015,92	8,1	9,9	9,7	1	1	1	1	1	1	1	1	1	0	1	-12,825934	275,359373	313,147733	0
15.01.2021	15:43:57	0	29,027489	4,857873	4,197	339,0696	1,086	84,145	0	1015,84	8,1	9,9	9,7	1	1	1	1	1	1	1	1	1	0	1	-11,486963	275,400829	314,683052	0
15.01.2021	15:43:58	0	28,789559	4,631925	4,4085	337,2336	1,083	84,144	0	1015,92	8,1	9,9	9,7	1	1	1	1	1	1	1	1	1	0	1	-13,178295	275,310061	312,561928	0
15.01.2021	15:43:59	0	28,789559	4,857873	4,30875	332,838	1,085	84,147	0	1015,88	8,1	9,9	9,7	1	1	1	1	1	1	1	1	1	0	1	-10,147992	275,23237	315,224699	0
15.01.2021	15:44:00	0	28,551629	4,18003	4,10625	326,862	1,086	84,135	0	1015,84	8,1	9,9	9,7	1	1	1	1	1	1	1	1	1	0	1	-15,64482	275,278313	309,945174	0
15.01.2021	15:44:01	0	28,551629	4,18003	4,10625	326,862	1,086	84,135	0	1015,84	8,1	9,9	9,7	1	1	1	1	1	1	1	1	1	0	1	-12,684989	275,4152	313,55311	0
15.01.2021	15:44:02	0	28,908524	2,824345	3,95925	331,0668	1,083	84,137	0	1015,74	8,1	9,9	9,7	1	1	1	1	1	1	1	1	1	0	1	-17,758985	275,37212	308,275042	0
15.01.2021	15:44:03	0	28,908524	4,293004	3,72525	324,432	1,079	84,139	0	1015,84	8,1	9,9	9,7	1	1	1	1	1	1	1	1	1	0	1	-11,134602	275,283072	314,477908	0
15.01.2021	15:44:04	0	28,908524	4,518951	3,8025	322,9308	1,083	84,141	0	1015,88	8,1	9,9	9,7	1	1	1	1	1	1	1	1	1	0	1	-10,852713	275,400829	315,317301	0
15.01.2021	15:44:05	0	28,432663	2,824345	4,035	322,5996	1,078	84,139	0	1015,84	8,1	9,9	9,7	1	1	1	1	1	1	1	1	1	0	1	-12,825934	275,238701	312,576693	0
15.01.2021	15:44:06	0	28,908524	4,857902	4,224	319,2444	1,074	84,133	0	1015,78	8,1	9,9	9,6	1	1	1	1	1	1	1	1	1	0	1	-13,03735	275,31165	312,710392	0
15.01.2021	15:44:07	0	28,908524	4,293004	4,2315	311,418	1,082	84,137	0	1015,88	8,1	9,9	9,7	1	1	1	1	1	1	1	1	1	0	1	-9,584214	275,402425	316,593362	0
15.01.2021	15:44:08	0	28,670594	4,857873	4,13775	309,3372	1,082	84,138	0	1016	8,1	9,9	9,7	1	1	1	1	1	1	1	1	1	0	1	-14,376321	275,384874	311,718114	0
15.01.2021	15:44:09	0	28,432663	2,711371	4,06875	315,2196	1,08	84,136	0	1015,96	8,1	9,9	9,7	1	1	1	1	1	1	1	1	1	0	1	-9,866103	275,24345	315,558983	0
15.01.2021	15:44:10	0	28,551629	4,293004	3,93825	315,9252	1,075	84,129	0	1015,68	8,1	9,9	9,7	1	1	1	1	1	1	1	1	1	0	1	-10,923185	275,418395	315,330052	0
15.01.2021	15:44:11	0	28,432663	2,824345	3,81975	324,4428	1,082	84,14	0	1015,86	8,1	9,9	9,7	1	1	1	1	1	1	1	1	1	0	1	-11,768851	275,241867	313,648748	0
15.01.2021	15:44:12	0	28,551629	3,163266	3,68625	333,2736	1,085	84,145	0	1015,96	8,1	9,9	9,7	1	1	1	1	1	1	1	1	1	0	1	-13,953488	275,240284	311,456624	0
15.01.2021	15:44:13	0	28,670594	4,293004	3,2895	314,118	1,082	84,121	0	1015,88	8,1	9,9	9,7	1	1	1	1	1	1	1	1	1	0	1	-13,248767	275,353003	312,694738	0
15.01.2021	15:44:14	0	28,313698	2,146502	3,222	334,602	1,083	84,123	0	1015,88	8,1	9,9	9,7	1	1	1	1	1	1	1	1	1	0	1	-17,758985	275,397637	308,395907	0
15.01.2021	15:44:15	0	28,432663	4,405978	3,2085	326,3148	1,083	84,146	0	1015,86	8,1	9,9	9,7	1	1	1	1	1	1	1	1	1	0	1	-13,178295	275,348227	312,742596	0
15.01.2021	15:44:16	0	28,432663	3,389214	3,29175	333,8928	1,077	84,143	0	1015,9	8,1	9,9	9,7	1	1	1	1	1	1	1	1	1	0	1	-14,094433	275,23237	311,278258	0
15.01.2021	15:44:17	0	28,670594	3,389214	3,3615	342,0612	1,08	84,133	0	1015,9	8,1	9,9	9,7	1	1	1	1	1	1	1	1	1	0	1	-15,64482	275,346636	310,268534	0
15.01.2021	15:44:18	0	28,670594	4,067056	3,34425	340,9668	1,08	84,157	0	1015,94	8,1	9,9	9,7	1	1	1	1	1	1	1	1	1	0	1	-15,433404	275,214972	309,857024	0
15.01.2021	15:44:19	0	28,670594	4,970847	3,3405	334,9728	1,072	84,147	0	1015,82	8,1	9,9	9,7	1	1	1	1	1	1	1	1	1	0	1	-10,852713	275,264043	314,669775	0
15.01.2021	15:44:20	0	28,789559	3,728135	3,702	332,46	1,082	84,135	0	1015,86	8,1	9,9	9,7	1	1	1	1	1	1	1	1	1	0	1	-10,993658	275,400829	315,176357	0
15.01.2021	15:44:21	0	28,194536	2,485423	4,158	335,3544	1,077	84,133	0	1015,92	8,1	10	9,7	1	1	1	1	1	1	1	1	1	0	1	-11,06413	275,343452	314,834154	0
15.01.2021	15:44:22	0	28,432663	3,27624	4,35225	329,31	1,08	84,14	0	1015,84	8,1	9,9	9,7	1	1	1	1	1	1	1	1	1	0	1	-13,812544	275,218134	311,492834	0
15.01.2021	15:44:23	0	28,313698	3,728157	4,46325	324,18	1,079	84,136	0	1015,94	8,1	9,9	9,6	1	1	1	1	1	1	1	1	1	0	1	-11,275546	275,276727	314,306944	0
15.01.2021	15:44:24	0	28,432464	4,518951	4,548	324,5148	1,079	84,137	0	1015,86	8,1	10	9,7	1	1	1	1	1	1	1	1	1	0	1	-13,601128	275,402425	312,576449	0
15.01.2021	15:44:25	0	28,551629	1,920554	4,19325	323,2404	1,084	84,135	0	1015,82	8,1	9,9	9,7	1	1	1	1	1	1	1	1	1	0	1	-10,288936	275,346636	315,624418	0
15.01.2021	15:44:26	0	28,551629	3,276259	3,84975	331,2504	1,078	84,127	0	1015,84	8,1	9,9	9,6	1	1	1	1	1	1	1	1	1	0	1	-15,362932	275,400829	310,807083	0
15.01.2021	15:44:27	0	28,432663	3,050292	3,75075	327,8052	1,076	84,117	0	1015,86	8,1	9,9	9,7	1	1	1	1	1	1	1	1	1	0	1	-10,923185	275,275141	314,651802	0
15.01.2021	15:44:28	0	28,313897	3,841132	3,9585	325,5372	1,077	84,122	0	1015,92	8,1	9,8	9,6	1	1	1	1	1	1	1	1	1	0	1	-16,27907	275,396041	309,868263	0
15.01.2021	15:44:29	0	28,432663	3,502208	4,20825	327,3732	1,082	84,123	0	1015,84	8,1	9,9	9,6	1	1	1	1	1	1	1	1	1	0	1	-10,077519	275,281485	315,527484	0
15.01.2021	15:44:30	0	28,313698	2,372449	4,224	333,5652	1,082	84,129	0	1015,94	8,1	9,9	9,7	1	1	1	1	1	1	1	1	1	0	1	-13,6716	275,238701	311,731027	0
15.01.2021	15:44:31	0	28,075768	4,518951	4,011	339,156	1,077	84,111	0	1015,82	8,1	9,9	9,7	1	1	1	1	1	1	1	1	1	0	1	-11,980268	275,245033	313,452306	0
15.01.2021	15:44:32	0	28,194733	4,518951	3,897	343,4436	1,083	84,132	0	1015,92	8,1	9,9	9,7	1	1	1	1	1	1	1	1	1	0	1	-15,151515	275,399233	311,010938	0
15.01.2021	15:44:33	0	28,313698	2,824362	3,777	329,0292	1,073	84,113	0	1015,84	8,1	9,9	9,6	1	1	1	1	1	1	1	1	1	0	1	-12,614517	275,254536	312,863001	0
15.01.2021	15:44:34	0	28,194733	3,389214	3,87225	328,1616	1,078	84,113	0	1015,88	8,1	9,9	9,7	1	1	1	1	1	1	1	1	1	0	1	-11,627907	275,362559	314,360845	0
15.01.2021	15:44:35	0	27,956803	2,146502	3,74475	343,89	1,078	84,126	0	1015,88	8,1	9,9	9,7	1	1	1	1	1	1	1	1	1	0	1	-12,614517	275,203909	312,623609	0
15.01.2021	15:44:36	0	28,432663	2,937318	3,54525	331,5384	1,077	84,128	0	1015,88	8,1	9,9	9,7	1	1	1	1	1	1	1	1	1	0	1	-14,305849	275,330725	311,532182	0
15.01.2021	15:44:37	0	28,432663	4,518979	3,38925	335,3976	1,079	84,127	0	1015,96	8,1	9,9	9,6	1	1	1	1	1	1	1	1	1	0	1	-10,570825	275,400829	315,59919	0
15.01.2021	15:44:38	0	28,551629	4,631925	3,255	333,5508	1,07	84,113	0	1015,8	8,1	9,9	9,7	1	1	1	1	1	1	1	1	1	0	1	-10,288936	275,303707	315,421217	0
15.01.2021	15:44:39	0	28,432663	4,857902	3,51975	335,7288	1,082	84,126	0	1015,92	8,1	9,9	9,6	1	1	1	1	1	1	1	1	1	0	1	-16,138125	275,396041	310,009207	0
15.01.2021	15:44:40	0	28,075768	2,711371	3,753	336,5172	1,086	84,125	0	1015,84	8,1	9,9	9,7	1	1	1	1	1	1	1	1	1	0	1	-9,090909	275,348227	316,829982	0
15.01.2021	15:44:41	0	28,194733	4,405978	3,89625	337,1796	1,078	84,135	0	1016,1	8,1	9,9	9,7	1	1	1	1	1	1	1	1	1	0	1	-14,305849	275,214972	310,984579	0
15.01.2021	15:44:42	0	28,194733	4,857873	4,0155	337,95	1,077	84,116	0	1015,92	8,1	9,9	9,7	1	1	1	1	1	1	1	1	1	0	1	-11,06413	275,278313	314,525864	0
15.01.2021	15:44:43	0	28,551629	4,067056	3,84225	330,012	1,07	84,13	0	1015,84	8,1	9,9	9,7	1	1	1	1	1	1	1	1	1	0	1	-12,332629	275,388064	313,776917	0
15.01.2021	15:44:44	0	28,194733	4,067056	3,82275	335,3184	1,077	84,129	0	1015,98	8,1	9,9	9,7	1	1	1	1	1	1	1	1	1	0	1	-10,500352	275,360966	315,480857	0
15.01.2021	15:44:45	0	28,313698	4,067056	3,80775	332,4852	1,077	84,133	0	1016,02	8,1	9,9	9,7	1	1	1	1	1	1	1	1	1	0	1	-9,513742	275,295768	316,158841	0
15.01.2021	15:44:46	0	28,075571	2,146502	3,7815	333,2448	1,073	84,114	0	1015,94	8,1	10	9,7	1	1	1	1	1	1	1	1	1	0	1	-12,191684	275,216553	313,106219	0
15.01.2021	15:44:47	0	28,313698	2,937318	3,744	329,0112	1,076	84,115	0	1015,84	8,1	9,9	9,7	1	1	1	1	1	1	1	1	1	0	1	-15,997181	275,333906	309,855909	0
15.01.2021	15:44:48	0	28,432663	3,389234	3,65925	329,7096	1,074	84,115	0	1015,92	8,1	9,9	9,6	1	1	1	1	1	1	1	1	1	0	1	-12,755462	275,396041	313,391871	0
15.01.2021	15:44:49	0	28,194733	3,841109	3,56175	329,3568	1,072	84,094	0	1015,84	8,1	9,9	9,7	1	1	1	1	1	1	1	1	1	0	1	-17,547569	275,356188	308,411015	0
15.01.2021	15:44:50	0	28,194733	3,954106	3,55275	323,7552	1,076	84,125	0	1015,86	8,1	9,9	9,6	1	1	1	1	1	1	1	1	1	0	1	-13,6716	275,227624	311,678647	0
15.01.2021	15:44:51	0	28,432663	4,067056	3,4065	319,212	1,081	84,119	0	1015,88	8,1	9,9	9,7	1	1	1	1	1	1	1	1	1	0	1	-11,486963	275,362559	314,50179	0
15.01.2021	15:44:52	0	28,3135	3,954106	3,27225	320,0832	1,082	84,116	0	1015,72	8,1	10	9,6	1	1	1	1	1	1	1	1	1	0	1	-11,980268	275,2482	313,467285	0
15.01.2021	15:44:53	0	28,551829	4,857873	3,051	322,2396	1,073	84,131	0	1015,76	8,1	9,8	9,7	1	1	1	1	1	1	1	1	1	0	1	-19,027484	275,283072	306,585025	0
15.01.2021	15:44:54	0	28,313698	4,406004	2,9325	324,072	1,072	84,125	0	1015,9	8,1	9,9	9,6	1	1	1	1	1	1	1	1	1	0	1	-6,765328	275,386469	319,336663	0
15.01.2021	15:44:55	0	28,551829	4,406004	2,928	334,998	1,074	84,127	0	1015,92	8,1	9,8	9,6	1	1	1	1	1	1	1	1	1	0	1	-11,06413	275,349819	314,864298	0
15.01.2021	15:44:56	0	28,194733	2,598413	2,775	322,9668	1,069	84,131	0	1015,84	8,1	9,9	9,6	1	1	1	1	1	1	1	1	1	0	1	-9,584214	275,203909	315,653912	0
15.01.2021	15:44:57	0	28,551429	3,954106	2,78775	319,5684	1,079	84,122	0	1015,86	8,1	10	9,6	1	1	1	1	1	1	1	1	1	0	1	-10,923185	275,341861	314,967564	0
15.01.2021	15:44:58	0	27,837643	2,372449	2,9445	325,5732	1,078	84,127	0	1015,9	8,1	10	9,7	1	1	1	1	1	1	1	1	1	0	1	-11,698379	275,39285	314,433836	0
15.01.2021	15:44:59	0	28,670393	4,406004	3,2115	320,0436	1,074	84,13	0	1015,86	8,1	10	9,6	1	1	1	1	1	1	1	1	1	0	1	-13,530655	275,353003	312,412849	0
15.01.2021	15:45:00	0	28,3135	3,163285	3,231	331,5672	1,077	84,13	0	1015,98	8,1	10	9,6	1	1	1	1	1	1	1	1	1	0	1	-11,346018	275,394446	314,793755	0
15.01.2021	15:45:01	0	28,3135	3,163285	3,231	331,5672	1,077	84,13	0	1015,98	8,1	10	9,6	1	1	1	1	1	1	1	1	1	0	1	-19,661734	275,306884	306,063453	0
15.01.2021	15:45:02	0	27,956607	4,405978	3	328,932	1,074	84,132	0	1015,84	8,1	10	9,7	1	1	1	1	1	1	1	1	1	0	1	-11,768851	275,205489	313,476744	0
15.01.2021	15:45:03	0	28,313897	4,744927	3,08025	331,1352	1,074	84,128	0	1015,84	8,1	9,8	9,6	1	1	1	1	1	1	1	1	1	0	1	-17,477097	275,327545	308,345879	0
15.01.2021	15:45:04	0	28,194733	3,954106	3,219	317,8224	1,073	84,137	0	1015,98	8,1	9,9	9,6	1	1	1	1	1	1	1	1	1	0	1	-14,023961	275,37212	312,010067	0
15.01.2021	15:45:05	0	28,3135	4,518951	3,15675	332,4528	1,067	84,125	0	1015,86	8,1	10	9,7	1	1	1	1	1	1	1	1	1	0	1	-9,654686	275,267213	315,882798	0
15.01.2021	15:45:06	0	28,075768	5,083851	3,09675	331,1388	1,072	84,109	0	1015,8	8,1	9,9	9,6	1	1	1	1	1	1	1	1	1	0	1	-16,842847	275,218134	308,462531	0
15.01.2021	15:45:07	0	28,3135	3,954106	3,16425	329,5836	1,075	84,121	0	1015,8	8,1	10	9,6	1	1	1	1	1	1	1	1	1	0	1	-13,03735	275,314828	312,725432	0
15.01.2021	15:45:08	0	28,3135	3,163285	3,24375	335,3364	1,073	84,139	0	1015,98	8,1	10	9,6	1	1	1	1	1	1	1	1	1	0	1	-13,460183	275,22446	311,875104	0
15.01.2021	15:45:09	0	28,194536	4,518951	3,33375	332,7984	1,073	84,11	0	1015,78	8,1	10	9,7	1	1	1	1	1	1	1	1	1	0	1	-14,940099	275,305295	310,777571	0
15.01.2021	15:45:10	0	28,432663	4,631925	3,35175	332,8056	1,076	84,129	0	1015,94	8,1	9,9	9,7	1	1	1	1	1	1	1	1	1	0	1	-11,768851	275,208649	313,491685	0
15.01.2021	15:45:11	0	28,194733	2,598413	3,46275	330,0552	1,078	84,125	0	1015,88	8,1	9,9	9,6	1	1	1	1	1	1	1	1	1	0	1	-14,446794	275,310061	311,293429	0
15.01.2021	15:45:12	0	27,838033	3,615161	3,5475	321,1884	1,075	84,13	0	1015,86	8,2	9,8	9,7	1	1	1	1	1	1	1	1	1	0	1	-13,6716	275,384874	312,422836	0
15.01.2021	15:45:13	0	28,551629	3,163285	3,48375	309,2832	1,07	84,12	0	1015,82	8,1	9,9	9,6	1	1	1	1	1	1	1	1	1	0	1	-10,641297	275,314828	315,121486	0
15.01.2021	15:45:14	0	28,075571	2,485438	3,321	317,4336	1,074	84,127	0	1015,88	8,1	10	9,6	1	1	1	1	1	1	1	1	1	0	1	-12,544045	275,21181	312,731436	0
15.01.2021	15:45:15	0	28,313698	3,276259	3,05775	305,7588	1,076	84,114	0	1015,96	8,1	9,9	9,6	1	1	1	1	1	1	1	1	1	0	1	-12,262156	275,306884	313,46303	0
15.01.2021	15:45:16	0	28,194931	4,067081	2,8755	314,0244	1,076	84,115	0	1015,86	8,1	9,8	9,6	1	1	1	1	1	1	1	1	1	0	1	-16,490486	275,394446	309,649288	0
15.01.2021	15:45:17	0	27,956803	3,050311	2,787	297,2196	1,076	84,133	0	1015,9	8,1	9,9	9,6	1	1	1	1	1	1	1	1	1	0	1	-12,403101	275,341861	313,487649	0
15.01.2021	15:45:18	0	28,194931	3,841109	2,87025	316,854	1,079	84,124	0	1015,92	8,1	9,8	9,7	1	1	1	1	1	1	1	1	1	0	1	-11,134602	275,396041	315,012731	0
15.01.2021	15:45:19	0	28,194931	2,598413	3,0195	319,1616	1,076	84,117	0	1015,88	8,1	9,8	9,6	1	1	1	1	1	1	1	1	1	0	1	-13,03735	275,2482	312,410202	0
15.01.2021	15:45:20	0	27,956607	3,502208	2,925	319,6296	1,073	84,113	0	1015,8	8,1	10	9,6	1	1	1	1	1	1	1	1	1	0	1	-15,433404	275,381685	310,645925	0
15.01.2021	15:45:21	0	27,956803	4,744927	2,89425	334,2456	1,073	84,135	0	1015,92	8,1	9,9	9,6	1	1	1	1	1	1	1	1	1	0	1	-18,745595	275,364152	307,250701	0
15.01.2021	15:45:22	0	27,956607	2,824362	2,91075	312,138	1,073	84,133	0	1015,88	8,1	10	9,6	1	1	1	1	1	1	1	1	1	0	1	-17,406624	275,386469	308,695366	0
15.01.2021	15:45:23	0	28,075571	4,970876	2,89275	322,5924	1,072	84,119	0	1015,7	8,1	10	9,6	1	1	1	1	1	1	1	1	1	0	1	-13,460183	275,351411	312,475783	0
15.01.2021	15:45:24	0	27,956999	3,276259	3,0165	321,1308	1,081	84,13	0	1015,84	8,1	9,8	9,6	1	1	1	1	1	1	1	1	1	0	1	-15,64482	275,386469	310,45717	0
15.01.2021	15:45:25	0	28,670795	4,744899	2,9355	324,1116	1,072	84,136	0	1015,98	8,1	9,8	9,7	1	1	1	1	1	1	1	1	1	0	1	-14,517266	275,24345	310,907821	0
15.01.2021	15:45:26	0	27,956607	2,711371	2,72025	313,2612	1,076	84,134	0	1015,96	8,1	10	9,7	1	1	1	1	1	1	1	1	1	0	1	-13,03735	275,214972	312,253078	0
15.01.2021	15:45:27	0	28,194536	2,824362	2,52225	326,3436	1,067	84,127	0	1015,86	8,1	10	9,6	1	1	1	1	1	1	1	1	1	0	1	-12,473573	275,241867	312,944026	0
15.01.2021	15:45:28	0	27,956607	4,067081	2,49375	334,9908	1,071	84,136	0	1015,9	8	10	9,6	1	1	1	1	1	1	1	1	1	0	1	-13,6716	275,378496	312,392626	0
15.01.2021	15:45:29	0	28,075571	4,293004	2,295	336,1896	1,068	84,118	0	1015,84	8,1	10	9,7	1	1	1	1	1	1	1	1	1	0	1	-16,842847	275,332316	309,002713	0
15.01.2021	15:45:30	0	27,838033	3,841109	2,229	342,378	1,074	84,135	0	1015,9	8,1	9,8	9,7	1	1	1	1	1	1	1	1	1	0	1	-8,245243	275,375307	317,803882	0
15.01.2021	15:45:31	0	28,313897	4,180055	2,0265	345,0024	1,074	84,13	0	1015,82	8,1	9,8	9,6	1	1	1	1	1	1	1	1	1	0	1	-15,010571	275,345044	310,895248	0
15.01.2021	15:45:32	0	28,313897	4,067081	1,9125	340,2036	1,073	84,136	0	1015,74	8,1	9,8	9,6	1	1	1	1	1	1	1	1	1	0	1	-15,64482	275,246617	309,795243	0
15.01.2021	15:45:33	0	28,075965	2,937336	1,83975	329,7708	1,065	84,131	0	1015,9	8,1	9,8	9,6	1	1	1	1	1	1	1	1	1	0	1	-11,980268	275,343452	313,918016	0
15.01.2021	15:45:34	0	28,194536	3,502208	1,84575	315,5688	1,073	84,14	0	1015,9	8,1	10	9,6	1	1	1	1	1	1	1	1	1	0	1	-9,372798	275,324365	316,435125	0
15.01.2021	15:45:35	0	27,719067	2,711387	1,86975	332,0604	1,068	84,142	0	1015,66	8,1	9,8	9,6	1	1	1	1	1	1	1	1	1	0	1	-13,6716	275,21023	311,596409	0
15.01.2021	15:45:36	0	28,194733	2,372464	1,9425	324,2052	1,07	84,139	0	1015,96	8,1	9,9	9,6	1	1	1	1	1	1	1	1	1	0	1	-10,641297	275,2482	314,806256	0
15.01.2021	15:45:37	0	28,075965	3,276259	1,85625	336,4416	1,067	84,15	0	1015,92	8,1	9,8	9,6	1	1	1	1	1	1	1	1	1	0	1	-13,812544	275,375307	312,236581	0
15.01.2021	15:45:38	0	27,956607	3,615183	2,05275	323,9784	1,07	84,134	0	1015,82	8,1	10	9,6	1	1	1	1	1	1	1	1	1	0	1	-13,742072	275,291006	311,907978	0
15.01.2021	15:45:39	0	27,481135	2,711387	2,59125	322,2396	1,069	84,16	0	1015,84	8,1	9,8	9,6	1	1	1	1	1	1	1	1	1	0	1	-10,993658	275,383279	315,093225	0
15.01.2021	15:45:40	0	27,956999	3,841132	2,85825	329,6808	1,076	84,15	0	1015,96	8,1	9,8	9,6	1	1	1	1	1	1	1	1	1	0	1	-13,460183	275,25612	312,024828	0
15.01.2021	15:45:41	0	28,194536	4,857902	3,0375	333,81	1,071	84,155	0	1015,92	8,1	10	9,6	1	1	1	1	1	1	1	1	1	0	1	-11,134602	275,219715	314,178253	0
15.01.2021	15:45:42	0	28,194931	2,598413	3,15525	348,7068	1,07	84,158	0	1015,9	8,1	9,8	9,6	1	1	1	1	1	1	1	1	1	0	1	-12,896406	275,324365	312,911517	0
15.01.2021	15:45:43	0	27,838033	3,502208	3,051	331,4592	1,066	84,17	0	1016,04	8,1	9,8	9,6	1	1	1	1	1	1	1	1	1	0	1	-14,305849	275,221297	311,014482	0
15.01.2021	15:45:44	0	28,075965	4,406004	3,084	337,9536	1,067	84,161	0	1015,88	8,1	9,8	9,6	1	1	1	1	1	1	1	1	1	0	1	-12,332629	275,351411	313,603337	0
15.01.2021	15:45:45	0	27,600101	3,502208	3,38475	335,4012	1,074	84,173	0	1015,76	8,1	9,8	9,6	1	1	1	1	1	1	1	1	1	0	1	-12,05074	275,208649	313,209797	0
15.01.2021	15:45:46	0	27,838033	3,615183	3,74775	339,2172	1,072	84,174	0	1015,84	8,1	9,8	9,6	1	1	1	1	1	1	1	1	1	0	1	-16,138125	275,25612	309,346886	0
15.01.2021	15:45:47	0	27,956999	2,598413	3,82425	338,0472	1,072	84,185	0	1015,86	8,1	9,8	9,6	1	1	1	1	1	1	1	1	1	0	1	-16,420014	275,383279	309,666868	0
15.01.2021	15:45:48	0	28,194931	3,276259	3,5985	336,7656	1,064	84,208	0	1016,1	8	9,8	9,6	1	1	1	1	1	1	1	1	1	0	1	-12,684989	275,332316	313,160571	0
15.01.2021	15:45:49	0	28,075965	4,857873	3,5565	338,7492	1,066	84,174	0	1015,88	8,2	9,8	9,7	1	1	1	1	1	1	1	1	1	0	1	-14,446794	275,252952	311,023232	0
15.01.2021	15:45:50	0	28,075965	4,067081	3,6645	337,2048	1,067	84,194	0	1015,96	8,2	9,8	9,6	1	1	1	1	1	1	1	1	1	0	1	-13,03735	275,386469	313,06464	0
15.01.2021	15:45:51	0	28,075965	2,937336	3,75	336,708	1,071	84,188	0	1015,76	8,2	9,8	9,6	1	1	1	1	1	1	1	1	1	0	1	-10,641297	275,29418	315,023774	0
15.01.2021	15:45:52	0	28,075965	3,050311	3,579	342,3564	1,076	84,198	0	1015,76	8,1	9,8	9,6	1	1	1	1	1	1	1	1	1	0	1	-11,698379	275,208649	313,562158	0
15.01.2021	15:45:53	0	27,838033	2,824345	3,51375	344,2824	1,075	84,19	0	1015,86	8,1	9,8	9,7	1	1	1	1	1	1	1	1	1	0	1	-14,65821	275,230788	310,706999	0
15.01.2021	15:45:54	0	28,075965	4,518979	3,62625	338,7312	1,069	84,183	0	1015,92	8,1	9,8	9,6	1	1	1	1	1	1	1	1	1	0	1	-16,913319	275,389659	309,203782	0
15.01.2021	15:45:55	0	27,719067	4,406004	3,669	330,768	1,063	84,186	0	1015,8	8,1	9,8	9,6	1	1	1	1	1	1	1	1	1	0	1	-11,346018	275,254536	314,1315	0
15.01.2021	15:45:56	0	27,719067	3,841132	3,7215	332,3124	1,069	84,193	0	1015,92	8,1	9,8	9,6	1	1	1	1	1	1	1	1	1	0	1	-9,513742	275,376902	316,542933	0
15.01.2021	15:45:57	0	27,838033	4,29303	3,83625	336,8088	1,073	84,218	0	1015,96	8,1	9,8	9,6	1	1	1	1	1	1	1	1	1	0	1	-10,288936	275,216553	315,008967	0
15.01.2021	15:45:58	0	27,719067	4,406004	3,867	340,9776	1,075	84,202	0	1015,9	8	9,8	9,6	1	1	1	1	1	1	1	1	1	0	1	-16,772375	275,359373	309,201292	0
15.01.2021	15:45:59	0	27,838033	3,389234	3,801	338,8212	1,07	84,203	0	1015,62	8,1	9,8	9,6	1	1	1	1	1	1	1	1	1	0	1	-11,768851	275,289419	313,873689	0
15.01.2021	15:46:00	0	27,956999	3,389234	3,62625	340,5024	1,068	84,183	0	1015,74	8,1	9,8	9,6	1	1	1	1	1	1	1	1	1	0	1	-15,221987	275,370526	310,804492	0
15.01.2021	15:46:01	0	27,956999	3,389234	3,62625	340,5024	1,068	84,183	0	1015,74	8,1	9,8	9,6	1	1	1	1	1	1	1	1	1	0	1	-16,983791	275,359373	308,989875	0
15.01.2021	15:46:02	0	27,956999	2,937336	3,6075	350,9856	1,067	84,189	0	1015,84	8,2	9,8	9,6	1	1	1	1	1	1	1	1	1	0	1	-14,305849	275,19601	310,89494	0
15.01.2021	15:46:03	0	27,956999	3,954106	3,62325	345,726	1,071	84,189	0	1015,92	8	9,8	9,6	1	1	1	1	1	1	1	1	1	0	1	-11,980268	275,246617	313,459795	0
15.01.2021	15:46:04	0	27,481135	2,372464	3,603	344,2536	1,063	84,183	0	1015,94	8,2	9,8	9,6	1	1	1	1	1	1	1	1	1	0	1	-16,490486	275,37212	309,543541	0
15.01.2021	15:46:05	0	27,956999	3,954106	3,51075	338,7168	1,071	84,176	0	1015,7	8,2	9,8	9,6	1	1	1	1	1	1	1	1	1	0	1	-15,221987	275,34027	310,661229	0
15.01.2021	15:46:06	0	27,956607	4,631953	3,45075	341,9892	1,068	84,193	0	1016,02	8,1	10	9,6	1	1	1	1	1	1	1	1	1	0	1	-15,292459	275,357781	310,673666	0
15.01.2021	15:46:07	0	27,599714	2,937336	3,36225	341,5536	1,066	84,185	0	1015,88	8,1	10	9,6	1	1	1	1	1	1	1	1	1	0	1	-11,275546	275,319595	314,509803	0
15.01.2021	15:46:08	0	27,719067	4,406004	3,36	341,28	1,071	84,191	0	1015,88	8,1	9,8	9,6	1	1	1	1	1	1	1	1	1	0	1	-14,869626	275,202329	310,361031	0
15.01.2021	15:46:09	0	27,956999	3,841109	3,3585	333,8352	1,07	84,179	0	1015,86	8,1	9,8	9,7	1	1	1	1	1	1	1	1	1	0	1	-12,544045	275,316417	313,226259	0
15.01.2021	15:46:10	0	27,838033	3,502208	3,18975	331,4628	1,069	84,187	0	1015,88	8,1	9,8	9,6	1	1	1	1	1	1	1	1	1	0	1	-8,45666	275,203909	316,781466	0
15.01.2021	15:46:11	0	27,481135	2,598413	3,1245	341,6832	1,068	84,19	0	1015,82	8,2	9,8	9,6	1	1	1	1	1	1	1	1	1	0	1	-15,010571	275,384874	311,083865	0
15.01.2021	15:46:12	0	27,600101	3,276259	3,18825	338,3892	1,068	84,174	0	1015,86	8,1	9,8	9,6	1	1	1	1	1	1	1	1	1	0	1	-15,151515	275,19601	310,049274	0
15.01.2021	15:46:13	0	27,838033	2,485438	3,18825	339,8328	1,07	84,195	0	1015,94	8,2	9,8	9,6	1	1	1	1	1	1	1	1	1	0	1	-11,134602	275,265628	314,395384	0
15.01.2021	15:46:14	0	27,837838	3,276259	3,141	342,8064	1,068	84,174	0	1015,78	8,1	9,9	9,6	1	1	1	1	1	1	1	1	1	0	1	-11,275546	275,370526	314,750933	0
15.01.2021	15:46:15	0	27,719067	3,728157	3,14325	337,158	1,067	84,178	0	1015,94	8,1	9,8	9,6	1	1	1	1	1	1	1	1	1	0	1	-16,701903	275,273555	308,865583	0
15.01.2021	15:46:16	0	27,956999	4,518979	3,243	337,5936	1,072	84,189	0	1015,78	8,1	9,8	9,6	1	1	1	1	1	1	1	1	1	0	1	-11,839323	275,383279	314,247559	0
15.01.2021	15:46:17	0	28,075965	4,067081	3,222	330,6852	1,067	84,188	0	1015,72	8,1	9,8	9,6	1	1	1	1	1	1	1	1	1	0	1	-15,574348	275,306884	310,150838	0
15.01.2021	15:46:18	0	27,600101	3,276259	3,18525	334,1232	1,068	84,189	0	1015,88	8,1	9,8	9,6	1	1	1	1	1	1	1	1	1	0	1	-13,530655	275,19601	311,670134	0
15.01.2021	15:46:19	0	27,481135	4,406004	3,0615	338,3856	1,068	84,165	0	1015,68	8,1	9,8	9,6	1	1	1	1	1	1	1	1	1	0	1	-12,191684	275,246617	313,248379	0
15.01.2021	15:46:20	0	27,362169	1,920566	2,98725	331,4556	1,068	84,188	0	1015,88	8	9,8	9,6	1	1	1	1	1	1	1	1	1	0	1	-15,503876	275,221297	309,816456	0
15.01.2021	15:46:21	0	27,481135	3,389234	2,9055	332,8344	1,066	84,192	0	1015,9	8,1	9,8	9,6	1	1	1	1	1	1	1	1	1	0	1	-12,332629	275,237118	313,062513	0
15.01.2021	15:46:22	0	27,600101	3,163285	2,8995	336,0384	1,063	84,182	0	1015,9	8,2	9,8	9,6	1	1	1	1	1	1	1	1	1	0	1	-14,799154	275,199169	310,416567	0
15.01.2021	15:46:23	0	27,600101	4,067081	2,991	339,6888	1,065	84,185	0	1015,94	8,1	9,8	9,6	1	1	1	1	1	1	1	1	1	0	1	-12,966878	275,22446	312,36841	0
15.01.2021	15:46:24	0	27,481135	2,259489	3,07425	334,9044	1,068	84,19	0	1015,82	8,1	9,8	9,6	1	1	1	1	1	1	1	1	1	0	1	-11,06413	275,279899	314,533369	0
15.01.2021	15:46:25	0	27,481135	3,389234	3,12075	337,5396	1,061	84,178	0	1015,8	8,2	9,8	9,6	1	1	1	1	1	1	1	1	1	0	1	-12,191684	275,370526	313,834795	0
15.01.2021	15:46:26	0	27,481135	2,372464	2,96775	330,3756	1,069	84,188	0	1015,9	8,1	9,8	9,6	1	1	1	1	1	1	1	1	1	0	1	-14,235377	275,264043	311,287111	0
15.01.2021	15:46:27	0	27,719067	3,954106	2,77875	326,34	1,066	84,178	0	1015,78	8	9,8	9,6	1	1	1	1	1	1	1	1	1	0	1	-13,248767	275,205489	311,996829	0
15.01.2021	15:46:28	0	27,242821	4,29303	2,814	335,7	1,065	84,202	0	1015,84	8,1	10	9,6	1	1	1	1	1	1	1	1	1	0	1	-11,768851	275,273555	313,798634	0
15.01.2021	15:46:29	0	27,838033	4,29303	2,7135	327,0348	1,06	84,191	0	1015,94	8,1	9,8	9,6	1	1	1	1	1	1	1	1	1	0	1	-18,181818	275,370526	307,844661	0
15.01.2021	15:46:30	0	27,362169	4,518979	2,538	324,1476	1,063	84,2	0	1015,98	8	9,8	9,6	1	1	1	1	1	1	1	1	1	0	1	-16,349542	275,329135	309,480961	0
15.01.2021	15:46:31	0	27,362169	3,389234	2,532	325,584	1,07	84,2	0	1015,96	8,1	9,8	9,6	1	1	1	1	1	1	1	1	1	0	1	-11,839323	275,180223	313,286848	0
15.01.2021	15:46:32	0	27,481135	4,29303	2,70375	333,8424	1,064	84,194	0	1015,96	8,1	9,8	9,6	1	1	1	1	1	1	1	1	1	0	1	-10,288936	275,348227	315,631955	0
15.01.2021	15:46:33	0	27,838033	4,744927	2,9775	332,3664	1,067	84,206	0	1015,84	8,2	9,8	9,6	1	1	1	1	1	1	1	1	1	0	1	-14,517266	275,341861	311,373484	0
15.01.2021	15:46:34	0	27,362169	4,29303	3,243	337,446	1,067	84,212	0	1015,94	8,2	9,8	9,6	1	1	1	1	1	1	1	1	1	0	1	-11,346018	275,368932	314,672914	0
15.01.2021	15:46:35	0	27,481135	4,406004	3,432	331,5132	1,067	84,202	0	1015,86	8,1	9,8	9,6	1	1	1	1	1	1	1	1	1	0	1	-14,023961	275,34027	311,859255	0
15.01.2021	15:46:36	0	27,362169	3,050311	3,51	333,162	1,063	84,197	0	1015,86	8,2	9,8	9,6	1	1	1	1	1	1	1	1	1	0	1	-12,262156	275,19601	312,938633	0
15.01.2021	15:46:37	0	27,838033	4,518979	3,579	332,9856	1,067	84,203	0	1015,84	8,1	9,8	9,6	1	1	1	1	1	1	1	1	1	0	1	-14,446794	275,202329	310,783864	0
15.01.2021	15:46:38	0	27,124237	4,067081	3,7185	326,8584	1,069	84,205	0	1016	8,2	9,8	9,6	1	1	1	1	1	1	1	1	1	0	1	-12,896406	275,24345	312,52868	0
15.01.2021	15:46:39	0	27,243203	4,29303	3,68475	331,5348	1,072	84,218	0	1015,86	8	9,8	9,6	1	1	1	1	1	1	1	1	1	0	1	-11,627907	275,335497	314,232713	0
15.01.2021	15:46:40	0	27,481135	4,744927	3,5685	343,5336	1,065	84,209	0	1015,94	8,1	9,8	9,6	1	1	1	1	1	1	1	1	1	0	1	-16,842847	275,362559	309,145905	0
15.01.2021	15:46:41	0	27,481135	4,744927	3,51975	328,8456	1,069	84,22	0	1015,92	8,1	9,8	9,6	1	1	1	1	1	1	1	1	1	0	1	-17,195208	275,310061	308,545015	0
15.01.2021	15:46:42	0	27,362169	3,728157	3,54225	326,3508	1,07	84,22	0	1015,94	8,2	9,8	9,6	1	1	1	1	1	1	1	1	1	0	1	-11,980268	275,373713	314,061308	0
15.01.2021	15:46:43	0	27,243203	3,728157	3,52275	332,4384	1,062	84,226	0	1015,78	8,2	9,8	9,6	1	1	1	1	1	1	1	1	1	0	1	-12,896406	275,313239	312,858856	0
15.01.2021	15:46:44	0	27,124237	4,180055	3,5775	338,7204	1,062	84,22	0	1015,78	8,1	9,8	9,6	1	1	1	1	1	1	1	1	1	0	1	-15,64482	275,230788	309,720388	0
15.01.2021	15:46:45	0	27,124237	4,518979	3,549	338,4	1,071	84,235	0	1015,94	8,2	9,8	9,6	1	1	1	1	1	1	1	1	1	0	1	-14,65821	275,368932	311,360723	0
15.01.2021	15:46:46	0	27,243203	3,502208	3,5535	336,8124	1,065	84,219	0	1015,92	8,1	9,8	9,6	1	1	1	1	1	1	1	1	1	0	1	-13,248767	275,2482	312,198786	0
15.01.2021	15:46:47	0	27,600101	4,406004	3,5115	332,8272	1,062	84,222	0	1015,86	8,1	9,8	9,6	1	1	1	1	1	1	1	1	1	0	1	-14,094433	275,357781	311,871692	0
15.01.2021	15:46:48	0	27,362169	3,502208	3,441	340,938	1,061	84,223	0	1015,9	8,2	9,8	9,6	1	1	1	1	1	1	1	1	1	0	1	-11,275546	275,229206	314,082181	0
15.01.2021	15:46:49	0	26,886305	3,163285	3,342	336,3804	1,064	84,229	0	1015,86	8,2	9,8	9,6	1	1	1	1	1	1	1	1	1	0	1	-12,755462	275,237118	312,63968	0
15.01.2021	15:46:50	0	27,243203	3,163285	3,16725	334,5984	1,066	84,216	0	1015,94	8,2	9,8	9,6	1	1	1	1	1	1	1	1	1	0	1	-13,107822	275,38009	312,963955	0
15.01.2021	15:46:51	0	27,243203	4,29303	3,0945	337,9968	1,065	84,215	0	1015,78	8,1	9,8	9,6	1	1	1	1	1	1	1	1	1	0	1	-14,305849	275,226042	311,036918	0
15.01.2021	15:46:52	0	27,362169	4,631953	3,10725	333,1512	1,068	84,216	0	1015,84	8,2	9,8	9,6	1	1	1	1	1	1	1	1	1	0	1	-13,953488	275,370526	312,072991	0
15.01.2021	15:46:53	0	26,886305	2,824362	3,09075	333,8028	1,066	84,213	0	1015,98	8	9,8	9,6	1	1	1	1	1	1	1	1	1	0	1	-11,06413	275,279899	314,533369	0
15.01.2021	15:46:54	0	26,767339	2,711387	3,108	337,1616	1,066	84,216	0	1015,9	8,2	9,8	9,6	1	1	1	1	1	1	1	1	1	0	1	-12,544045	275,214972	312,746383	0
15.01.2021	15:46:55	0	27,124237	4,406004	3,114	323,7408	1,063	84,212	0	1015,86	8,1	9,8	9,6	1	1	1	1	1	1	1	1	1	0	1	-6,624383	275,218134	318,680995	0
15.01.2021	15:46:56	0	26,886305	2,711387	3,219	321,4692	1,063	84,208	0	1015,94	8,1	9,8	9,6	1	1	1	1	1	1	1	1	1	0	1	-12,121212	275,202329	313,109445	0
15.01.2021	15:46:57	0	27,124237	2,485438	3,3225	319,9824	1,062	84,198	0	1015,86	8,1	9,8	9,6	1	1	1	1	1	1	1	1	1	0	1	-16,138125	275,319595	309,647224	0
15.01.2021	15:46:58	0	26,767339	3,050311	3,29025	325,2384	1,064	84,215	0	1015,94	8,2	9,8	9,6	1	1	1	1	1	1	1	1	1	0	1	-8,80902	275,37212	317,225007	0
15.01.2021	15:46:59	0	27,124237	3,615183	3,38625	325,1772	1,061	84,213	0	1015,96	8	9,8	9,6	1	1	1	1	1	1	1	1	1	0	1	-12,896406	275,313239	312,858856	0
15.01.2021	15:47:00	0	27,124237	4,857902	3,56625	316,9728	1,062	84,222	0	1015,92	8,2	9,8	9,6	1	1	1	1	1	1	1	1	1	0	1	-15,574348	275,205489	309,671247	0
15.01.2021	15:47:01	0	27,124237	4,857902	3,56625	316,9728	1,062	84,222	0	1015,92	8,2	9,8	9,6	1	1	1	1	1	1	1	1	1	0	1	-13,601128	275,240284	311,808985	0
15.01.2021	15:47:02	0	26,767339	3,615183	3,9015	323,6796	1,061	84,185	0	1015,8	8,2	9,8	9,6	1	1	1	1	1	1	1	1	1	0	1	-13,389711	275,365745	312,61413	0
15.01.2021	15:47:03	0	27,124237	4,970876	4,43025	336,8052	1,059	84,183	0	1015,76	8,2	9,8	9,6	1	1	1	1	1	1	1	1	1	0	1	-18,393235	275,322775	307,407163	0
15.01.2021	15:47:04	0	26,648373	3,502208	4,593	338,0328	1,054	84,201	0	1015,94	8,2	9,8	9,6	1	1	1	1	1	1	1	1	1	0	1	-14,446794	275,376902	311,609881	0
15.01.2021	15:47:05	0	27,243203	4,970876	4,488	320,49	1,062	84,196	0	1015,82	8,2	9,8	9,6	1	1	1	1	1	1	1	1	1	0	1	-20,789288	275,303707	304,920865	0
15.01.2021	15:47:06	0	26,767339	3,615183	4,491	323,3052	1,061	84,203	0	1016	8,1	9,8	9,6	1	1	1	1	1	1	1	1	1	0	1	-8,949965	275,388064	317,159581	0
15.01.2021	15:47:07	0	26,886305	2,824362	4,48725	329,7132	1,061	84,192	0	1015,98	8,1	9,8	9,6	1	1	1	1	1	1	1	1	1	0	1	-13,03735	275,332316	312,80821	0
15.01.2021	15:47:08	0	26,529407	2,824362	4,371	329,6952	1,057	84,202	0	1015,96	8,1	9,8	9,6	1	1	1	1	1	1	1	1	1	0	1	-12,05074	275,306884	313,674446	0
15.01.2021	15:47:09	0	26,886305	3,954106	4,1505	324,8604	1,06	84,191	0	1015,88	8,1	9,8	9,6	1	1	1	1	1	1	1	1	1	0	1	-13,953488	275,186536	311,202521	0
15.01.2021	15:47:10	0	26,767339	2,372464	4,2855	325,9476	1,062	84,187	0	1015,88	8,1	9,8	9,6	1	1	1	1	1	1	1	1	1	0	1	-13,178295	275,287832	312,456737	0
15.01.2021	15:47:11	0	26,529407	2,824362	4,434	322,9848	1,067	84,198	0	1015,94	8,2	9,8	9,6	1	1	1	1	1	1	1	1	1	0	1	-13,953488	275,189694	311,217445	0
15.01.2021	15:47:12	0	26,529407	4,067081	4,48725	323,6868	1,06	84,191	0	1015,74	8,1	9,8	9,6	1	1	1	1	1	1	1	1	1	0	1	-18,463707	275,259289	307,036293	0
15.01.2021	15:47:13	0	26,648373	2,711387	4,25475	322,6032	1,058	84,17	0	1015,84	8,1	9,8	9,6	1	1	1	1	1	1	1	1	1	0	1	-13,883016	275,348227	312,037875	0
15.01.2021	15:47:14	0	26,648373	3,389234	4,28175	323,7516	1,057	84,162	0	1015,78	8,1	9,8	9,6	1	1	1	1	1	1	1	1	1	0	1	-10,359408	275,295768	315,313175	0
15.01.2021	15:47:15	0	26,886305	3,389234	4,25775	323,7156	1,058	84,17	0	1015,7	8,2	9,8	9,6	1	1	1	1	1	1	1	1	1	0	1	-12,332629	275,202329	312,898028	0
15.01.2021	15:47:16	0	26,767339	2,598413	4,2105	333,8604	1,06	84,161	0	1015,88	8,1	9,8	9,6	1	1	1	1	1	1	1	1	1	0	1	-10,711769	275,302119	314,990869	0
15.01.2021	15:47:17	0	26,886305	4,180055	4,443	332,5392	1,058	84,16	0	1015,88	8,1	9,8	9,6	1	1	1	1	1	1	1	1	1	0	1	-16,138125	275,338679	309,737558	0
15.01.2021	15:47:18	0	26,886305	3,276259	4,49175	330,8076	1,057	84,149	0	1015,86	8,1	9,8	9,6	1	1	1	1	1	1	1	1	1	0	1	-12,05074	275,318006	313,727086	0
15.01.2021	15:47:19	0	26,648373	4,067081	4,605	336,7296	1,053	84,128	0	1015,94	8,1	9,8	9,6	1	1	1	1	1	1	1	1	1	0	1	-11,06413	275,359373	314,909537	0
15.01.2021	15:47:20	0	27,005271	4,29303	4,65375	331,6464	1,059	84,128	0	1015,9	8,1	9,8	9,6	1	1	1	1	1	1	1	1	1	0	1	-7,117689	275,279899	318,47981	0
15.01.2021	15:47:21	0	26,648373	2,824362	4,6965	334,1772	1,051	84,126	0	1015,76	8,1	9,8	9,6	1	1	1	1	1	1	1	1	1	0	1	-15,292459	275,184957	309,856089	0
15.01.2021	15:47:22	0	26,648373	4,180055	4,73175	337,518	1,054	84,119	0	1016,02	8,1	9,8	9,6	1	1	1	1	1	1	1	1	1	0	1	-12,896406	275,265628	312,63358	0
15.01.2021	15:47:23	0	26,767339	4,518979	4,58025	339,8868	1,055	84,107	0	1015,86	8,1	9,8	9,6	1	1	1	1	1	1	1	1	1	0	1	-9,725159	275,172334	315,363731	0
15.01.2021	15:47:24	0	26,767339	4,631953	4,48275	343,3284	1,055	84,108	0	1015,78	8,1	9,8	9,6	1	1	1	1	1	1	1	1	1	0	1	-11,346018	275,240284	314,064094	0
15.01.2021	15:47:25	0	26,648373	2,711387	4,3485	329,3064	1,052	84,09	0	1015,86	8,1	9,8	9,6	1	1	1	1	1	1	1	1	1	0	1	-17,89993	275,162871	307,144246	0
15.01.2021	15:47:26	0	26,410441	3,502208	4,3185	333,1476	1,055	84,16	0	1015,94	8,1	9,8	9,6	1	1	1	1	1	1	1	1	1	0	1	-11,134602	275,257704	314,357903	0
15.01.2021	15:47:27	0	26,648373	3,728157	4,41	332,424	1,048	84,077	0	1015,88	8,1	9,8	9,6	1	1	1	1	1	1	1	1	1	0	1	-17,618041	275,19759	307,590214	0
15.01.2021	15:47:28	0	26,291475	3,728157	4,34925	340,5456	1,051	84,09	0	1015,76	8,1	9,8	9,6	1	1	1	1	1	1	1	1	1	0	1	-11,627907	275,289419	314,014633	0
15.01.2021	15:47:29	0	26,410441	4,744927	4,32975	327,3948	1,055	84,085	0	1015,94	8,1	9,8	9,6	1	1	1	1	1	1	1	1	1	0	1	-10,147992	275,19759	315,060264	0
15.01.2021	15:47:30	0	26,886305	4,631953	4,794	330,4008	1,048	84,074	0	1015,72	8,1	9,8	9,6	1	1	1	1	1	1	1	1	1	0	1	-13,6716	275,276727	311,910891	0
15.01.2021	15:47:31	0	26,291475	2,598413	5,1075	328,5756	1,046	84,074	0	1015,9	8,1	9,8	9,6	1	1	1	1	1	1	1	1	1	0	1	-12,473573	275,170756	312,607863	0
15.01.2021	15:47:32	0	26,291475	3,502208	5,01675	333,1908	1,047	84,071	0	1015,84	8,1	9,8	9,6	1	1	1	1	1	1	1	1	1	0	1	-13,812544	275,229206	311,545183	0
15.01.2021	15:47:33	0	26,410441	4,180055	4,8285	323,6796	1,045	84,071	0	1015,88	8,1	9,8	9,6	1	1	1	1	1	1	1	1	1	0	1	-13,460183	275,332316	312,385377	0
15.01.2021	15:47:34	0	26,291475	3,050311	4,7355	338,3316	1,049	84,081	0	1015,82	8,1	9,8	9,6	1	1	1	1	1	1	1	1	1	0	1	-19,87315	275,181801	305,260479	0
15.01.2021	15:47:35	0	26,529407	3,841132	4,581	336,5532	1,049	84,053	0	1015,9	8,1	9,8	9,6	1	1	1	1	1	1	1	1	1	0	1	-14,869626	275,265628	310,66036	0
15.01.2021	15:47:36	0	26,17251	3,050311	4,65675	340,5708	1,052	84,084	0	1015,96	8,1	9,8	9,6	1	1	1	1	1	1	1	1	1	0	1	-16,349542	275,178645	308,769171	0
15.01.2021	15:47:37	0	26,410441	4,29303	4,5315	342,8172	1,049	84,076	0	1015,92	8,1	9,8	9,6	1	1	1	1	1	1	1	1	1	0	1	-7,470049	275,29418	318,195022	0
15.01.2021	15:47:38	0	26,053544	2,824362	4,49775	341,6724	1,043	84,065	0	1015,88	8,1	9,8	9,6	1	1	1	1	1	1	1	1	1	0	1	-11,06413	275,346636	314,849225	0
15.01.2021	15:47:39	0	26,291475	4,406004	4,49175	341,6292	1,049	84,067	0	1015,92	8,1	9,8	9,6	1	1	1	1	1	1	1	1	1	0	1	-14,728682	275,335497	311,131938	0
15.01.2021	15:47:40	0	26,648373	4,067081	4,49475	322,8552	1,038	84,069	0	1015,88	8,1	9,8	9,6	1	1	1	1	1	1	1	1	1	0	1	-17,336152	275,316417	308,434152	0
15.01.2021	15:47:41	0	26,410441	4,406004	4,23825	314,0424	1,049	84,06	0	1015,88	8,1	9,8	9,6	1	1	1	1	1	1	1	1	1	0	1	-13,178295	275,21181	312,097186	0
15.01.2021	15:47:42	0	26,291475	3,502208	4,0965	319,2624	1,045	84,064	0	1015,7	8,1	9,8	9,6	1	1	1	1	1	1	1	1	1	0	1	-10,359408	275,356188	315,599176	0
15.01.2021	15:47:43	0	26,291475	2,824362	4,10175	319,914	1,037	84,041	0	1015,76	8,1	9,8	9,6	1	1	1	1	1	1	1	1	1	0	1	-10,147992	275,219715	315,164863	0
15.01.2021	15:47:44	0	26,17251	3,389234	3,6705	317,3688	1,041	84,046	0	1015,9	8,1	9,8	9,6	1	1	1	1	1	1	1	1	1	0	1	-10,782241	275,316417	314,988063	0
15.01.2021	15:47:45	0	26,17251	2,711387	3,53925	328,248	1,038	84,032	0	1015,88	8,1	9,8	9,6	1	1	1	1	1	1	1	1	1	0	1	-11,06413	275,181801	314,0695	0
15.01.2021	15:47:46	0	26,291475	4,180055	3,4965	338,7204	1,046	84,047	0	1015,9	8,1	9,8	9,6	1	1	1	1	1	1	1	1	1	0	1	-12,825934	275,291006	312,824116	0
15.01.2021	15:47:47	0	25,934578	3,615183	3,39525	328,1688	1,046	84,057	0	1015,92	8,1	9,8	9,6	1	1	1	1	1	1	1	1	1	0	1	-16,208598	275,367339	309,802789	0
15.01.2021	15:47:48	0	26,053544	2,259489	3,50325	331,488	1,043	84,054	0	1015,86	8,1	9,8	9,6	1	1	1	1	1	1	1	1	1	0	1	-7,681466	275,213391	317,601488	0
15.01.2021	15:47:49	0	25,934578	3,615183	3,7725	330,0228	1,046	84,042	0	1015,96	8,1	9,8	9,6	1	1	1	1	1	1	1	1	1	0	1	-10,288936	275,202329	314,941721	0
15.01.2021	15:47:50	0	26,053544	2,485438	3,98025	326,6316	1,043	84,044	0	1016,02	8,1	9,8	9,6	1	1	1	1	1	1	1	1	1	0	1	-13,03735	275,218134	312,268028	0
15.01.2021	15:47:51	0	26,17251	3,954106	3,98775	335,3004	1,042	84,043	0	1015,88	8,1	9,8	9,6	1	1	1	1	1	1	1	1	1	0	1	-12,332629	275,194431	312,860695	0
15.01.2021	15:47:52	0	25,57768	3,276259	3,96075	327,7836	1,041	84,053	0	1015,88	8,1	9,8	9,6	1	1	1	1	1	1	1	1	1	0	1	-11,41649	275,302119	314,286147	0
15.01.2021	15:47:53	0	25,815612	3,389234	3,9195	336,3804	1,039	84,038	0	1015,72	8,1	9,8	9,6	1	1	1	1	1	1	1	1	1	0	1	-17,124736	275,365745	308,879105	0
15.01.2021	15:47:54	0	25,815612	2,937336	3,55725	325,116	1,038	84,051	0	1016,02	8,1	9,8	9,6	1	1	1	1	1	1	1	1	1	0	1	-16,349542	275,222878	308,978267	0
15.01.2021	15:47:55	0	25,57768	3,163285	3,36075	330,7104	1,037	84,06	0	1015,94	8,1	9,8	9,6	1	1	1	1	1	1	1	1	1	0	1	-6,976744	275,216553	318,321159	0
15.01.2021	15:47:56	0	25,81525	4,631953	3,5385	325,1448	1,046	84,051	0	1015,86	8,1	10	9,6	1	1	1	1	1	1	1	1	1	0	1	-13,601128	275,191272	311,577268	0
15.01.2021	15:47:57	0	25,57768	2,824362	3,70875	328,122	1,036	84,047	0	1015,84	8,1	9,8	9,6	1	1	1	1	1	1	1	1	1	0	1	-10,782241	275,230788	314,582968	0
15.01.2021	15:47:58	0	26,053544	2,824362	3,828	315,2124	1,043	84,056	0	1015,84	8,1	9,8	9,6	1	1	1	1	1	1	1	1	1	0	1	-14,446794	275,318006	311,331033	0
15.01.2021	15:47:59	0	26,17251	4,518979	3,99975	327,4524	1,036	84,052	0	1015,94	8,1	9,8	9,6	1	1	1	1	1	1	1	1	1	0	1	-12,684989	275,345044	313,220829	0
15.01.2021	15:48:00	0	26,172143	4,067081	3,9885	328,1616	1,039	84,052	0	1015,82	8,1	10	9,6	1	1	1	1	1	1	1	1	1	0	1	-18,181818	275,21023	307,08619	0
15.01.2021	15:48:01	0	26,172143	4,067081	3,9885	328,1616	1,039	84,052	0	1015,82	8,1	10	9,6	1	1	1	1	1	1	1	1	1	0	1	-11,768851	275,302119	313,933786	0
15.01.2021	15:48:02	0	25,934578	4,180055	4,158	324,0828	1,036	84,039	0	1015,92	8,1	9,8	9,6	1	1	1	1	1	1	1	1	1	0	1	-11,275546	275,365745	314,728295	0
15.01.2021	15:48:03	0	25,815612	4,857902	4,46775	326,7432	1,041	84,045	0	1015,94	8,1	9,8	9,6	1	1	1	1	1	1	1	1	1	0	1	-10,359408	275,25612	315,125603	0
15.01.2021	15:48:04	0	25,815612	3,954106	4,61625	330,7392	1,039	84,05	0	1015,9	8,1	9,8	9,6	1	1	1	1	1	1	1	1	1	0	1	-13,178295	275,348227	312,742596	0
15.01.2021	15:48:05	0	25,577321	3,163285	4,629	325,53	1,038	84,018	0	1015,88	8,1	10	9,6	1	1	1	1	1	1	1	1	1	0	1	-11,839323	275,297355	313,840772	0
15.01.2021	15:48:06	0	25,815612	3,050311	4,65975	324,7416	1,036	84,032	0	1015,9	8,1	9,8	9,6	1	1	1	1	1	1	1	1	1	0	1	-13,178295	275,348227	312,742596	0
15.01.2021	15:48:07	0	25,815612	3,050311	4,5765	329,6952	1,031	84,028	0	1015,8	8,1	9,8	9,6	1	1	1	1	1	1	1	1	1	0	1	-13,6716	275,218134	311,633779	0
15.01.2021	15:48:08	0	25,696646	4,406004	4,41825	328,6476	1,039	84,035	0	1015,86	8,1	9,8	9,6	1	1	1	1	1	1	1	1	1	0	1	-11,980268	275,177067	313,130988	0
15.01.2021	15:48:09	0	25,696646	2,259489	4,4625	327,4236	1,038	84,025	0	1015,88	8,1	9,8	9,6	1	1	1	1	1	1	1	1	1	0	1	-11,627907	275,278313	313,962087	0
15.01.2021	15:48:10	0	25,81525	4,406004	4,21125	317,34	1,039	84,022	0	1015,96	8,1	10	9,6	1	1	1	1	1	1	1	1	1	0	1	-11,557435	275,341861	314,333315	0
15.01.2021	15:48:11	0	25,339748	2,937336	3,9225	323,28	1,03	84,015	0	1015,84	8,1	9,8	9,6	1	1	1	1	1	1	1	1	1	0	1	-11,486963	275,203909	313,751163	0
15.01.2021	15:48:12	0	26,053544	3,615183	3,843	328,9032	1,028	83,994	0	1015,86	8,1	9,8	9,6	1	1	1	1	1	1	1	1	1	0	1	-15,503876	275,322775	310,296522	0
15.01.2021	15:48:13	0	25,339748	3,276259	3,864	326,7216	1,037	84,009	0	1016	8,1	9,8	9,6	1	1	1	1	1	1	1	1	1	0	1	-12,332629	275,356188	313,625956	0
15.01.2021	15:48:14	0	25,458714	2,711387	3,8985	325,98	1,033	83,994	0	1015,82	8,1	9,8	9,6	1	1	1	1	1	1	1	1	1	0	1	-11,205074	275,329135	314,625429	0
15.01.2021	15:48:15	0	25,696646	4,518979	3,8415	326,7864	1,034	84	0	1015,92	8,1	9,8	9,6	1	1	1	1	1	1	1	1	1	0	1	-10,852713	275,314828	314,910069	0
15.01.2021	15:48:16	0	24,98285	2,372464	3,84675	328,2156	1,028	83,992	0	1015,94	8,1	9,8	9,6	1	1	1	1	1	1	1	1	1	0	1	-11,557435	275,219715	313,75542	0
15.01.2021	15:48:17	0	25,339748	3,841132	4,07175	327,0852	1,036	83,994	0	1015,98	8,1	9,8	9,6	1	1	1	1	1	1	1	1	1	0	1	-14,869626	275,360966	311,111583	0
15.01.2021	15:48:18	0	25,696646	4,631953	4,128	324,0648	1,029	83,984	0	1015,94	8,1	9,8	9,6	1	1	1	1	1	1	1	1	1	0	1	-14,728682	275,229206	310,629045	0
15.01.2021	15:48:19	0	25,458357	2,485438	4,08525	322,5708	1,025	83,976	0	1015,94	8,1	10	9,6	1	1	1	1	1	1	1	1	1	0	1	-14,023961	275,214972	311,266468	0
15.01.2021	15:48:20	0	25,220429	3,050311	4,1385	323,6292	1,034	83,986	0	1016	8,1	10	9,6	1	1	1	1	1	1	1	1	1	0	1	-14,869626	275,335497	310,990994	0
15.01.2021	15:48:21	0	25,458357	5,083851	4,13025	324,1008	1,027	83,966	0	1015,9	8,1	10	9,6	1	1	1	1	1	1	1	1	1	0	1	-11,486963	275,359373	314,486704	0
15.01.2021	15:48:22	0	25,458714	3,841132	4,041	323,3016	1,031	83,979	0	1015,84	8,1	9,8	9,6	1	1	1	1	1	1	1	1	1	0	1	-13,883016	275,265628	311,64697	0
15.01.2021	15:48:23	0	25,220782	2,485438	4,0545	313,1748	1,025	83,969	0	1015,82	8,1	9,8	9,6	1	1	1	1	1	1	1	1	1	0	1	-17,26568	275,186536	307,890329	0
15.01.2021	15:48:24	0	25,577321	4,180055	4,10625	327,7656	1,028	83,98	0	1015,86	8,1	10	9,6	1	1	1	1	1	1	1	1	1	0	1	-10,42988	275,316417	315,340424	0
15.01.2021	15:48:25	0	25,339393	4,857902	4,04475	333,1368	1,03	83,983	0	1015,88	8,1	10	9,6	1	1	1	1	1	1	1	1	1	0	1	-13,460183	275,207069	311,792883	0
15.01.2021	15:48:26	0	25,101816	2,711387	3,8055	321,858	1,032	83,984	0	1015,82	8,1	9,8	9,6	1	1	1	1	1	1	1	1	1	0	1	-10,359408	275,154989	314,647527	0
15.01.2021	15:48:27	0	25,339748	4,518979	3,67425	327,0852	1,023	83,98	0	1016	8,1	9,8	9,6	1	1	1	1	1	1	1	1	1	0	1	-13,389711	275,240284	312,020401	0
15.01.2021	15:48:28	0	25,101464	3,050311	3,6765	330,3972	1,022	83,985	0	1015,86	8,1	10	9,6	1	1	1	1	1	1	1	1	1	0	1	-9,725159	275,167602	315,341371	0
15.01.2021	15:48:29	0	24,98285	3,615183	3,6495	326,3688	1,027	84	0	1015,94	8,1	9,8	9,6	1	1	1	1	1	1	1	1	1	0	1	-11,346018	275,318006	314,431808	0
15.01.2021	15:48:30	0	25,220782	4,518979	3,597	325,1484	1,02	84,003	0	1015,8	8,1	9,8	9,6	1	1	1	1	1	1	1	1	1	0	1	-15,010571	275,158142	310,011258	0
15.01.2021	15:48:31	0	25,339393	3,502208	3,55275	322,5456	1,027	83,989	0	1015,92	8,1	10	9,6	1	1	1	1	1	1	1	1	1	0	1	-14,446794	275,271969	311,113191	0
15.01.2021	15:48:32	0	25,458357	4,180055	3,39825	325,998	1,025	84,009	0	1015,94	8,1	10	9,6	1	1	1	1	1	1	1	1	1	0	1	-11,06413	275,151838	313,927914	0
15.01.2021	15:48:33	0	25,220429	3,728157	3,2355	329,3496	1,024	84,014	0	1015,94	8,1	10	9,6	1	1	1	1	1	1	1	1	1	0	1	-12,544045	275,175489	312,559755	0
15.01.2021	15:48:34	0	25,220429	4,180055	3,0675	328,5792	1,024	84,006	0	1015,9	8,1	10	9,6	1	1	1	1	1	1	1	1	1	0	1	-11,275546	275,203909	313,96258	0
15.01.2021	15:48:35	0	24,863536	2,485438	3,057	337,9716	1,029	84,012	0	1015,88	8,2	10	9,6	1	1	1	1	1	1	1	1	1	0	1	-12,403101	275,14081	312,536846	0
15.01.2021	15:48:36	0	24,863536	4,29303	2,9685	332,82	1,013	84,012	0	1015,7	8,1	10	9,6	1	1	1	1	1	1	1	1	1	0	1	-10,147992	275,34027	315,735224	0
15.01.2021	15:48:37	0	25,220429	3,841132	2,87625	335,7072	1,028	84,021	0	1015,98	8,1	10	9,6	1	1	1	1	1	1	1	1	1	0	1	-13,530655	275,329135	312,299847	0
15.01.2021	15:48:38	0	24,98285	4,406031	2,76375	342,3492	1,027	84,017	0	1015,96	8,2	9,8	9,5	1	1	1	1	1	1	1	1	1	0	1	-13,107822	275,308472	312,624882	0
15.01.2021	15:48:39	0	24,9825	4,293004	2,57925	331,0524	1,028	84,027	0	1015,88	8,1	10	9,7	1	1	1	1	1	1	1	1	1	0	1	-9,654686	275,216553	315,643217	0
15.01.2021	15:48:40	0	25,220782	4,518979	2,3475	328,194	1,027	84,026	0	1015,98	8,1	9,8	9,6	1	1	1	1	1	1	1	1	1	0	1	-14,446794	275,343452	311,45149	0
15.01.2021	15:48:41	0	24,9825	4,406004	2,2275	324,414	1,022	84,029	0	1015,78	8,1	10	9,6	1	1	1	1	1	1	1	1	1	0	1	-13,530655	275,295768	312,141928	0
15.01.2021	15:48:42	0	24,863536	2,485438	2,38275	333,4968	1,021	84,026	0	1015,9	8,1	10	9,6	1	1	1	1	1	1	1	1	1	0	1	-14,446794	275,192852	310,739066	0
15.01.2021	15:48:43	0	25,220782	4,518979	2,59425	353,1672	1,018	84,024	0	1015,78	8,2	9,8	9,6	1	1	1	1	1	1	1	1	1	0	1	-14,728682	275,19601	310,472107	0
15.01.2021	15:48:44	0	24,625607	2,485438	2,69925	336,0456	1,022	84,019	0	1015,82	8,1	10	9,6	1	1	1	1	1	1	1	1	1	0	1	-10,570825	275,159718	314,458453	0
15.01.2021	15:48:45	0	24,863536	4,518979	2,75925	335,6532	1,023	84,029	0	1015,96	8,1	10	9,6	1	1	1	1	1	1	1	1	1	0	1	-13,389711	275,321185	312,403162	0
15.01.2021	15:48:46	0	25,101464	2,937336	2,631	327,3912	1,017	84,015	0	1015,86	8,2	10	9,6	1	1	1	1	1	1	1	1	1	0	1	-10,147992	275,192852	315,037868	0
15.01.2021	15:48:47	0	25,220429	3,841132	2,50425	318,438	1,021	84,012	0	1015,88	8,1	10	9,6	1	1	1	1	1	1	1	1	1	0	1	-11,980268	275,322775	313,82013	0
15.01.2021	15:48:48	0	25,101464	4,631953	2,3655	325,9044	1,022	84,02	0	1015,72	8,2	10	9,6	1	1	1	1	1	1	1	1	1	0	1	-9,372798	275,259289	316,127202	0
15.01.2021	15:48:49	0	24,626125	4,518979	2,394	317,3148	1,021	84,031	0	1015,74	8,1	9,7	9,6	1	1	1	1	1	1	1	1	1	0	1	-11,768851	275,345044	314,136967	0
15.01.2021	15:48:50	0	24,863536	4,631953	2,70975	330,0552	1,017	83,999	0	1015,92	8,2	10	9,6	1	1	1	1	1	1	1	1	1	0	1	-10,993658	275,286245	314,633866	0
15.01.2021	15:48:51	0	24,863536	2,598413	2,8155	327,1608	1,019	84,015	0	1015,7	8,1	10	9,6	1	1	1	1	1	1	1	1	1	0	1	-12,473573	275,345044	313,432246	0
15.01.2021	15:48:52	0	24,863536	3,502208	2,8065	327,222	1,022	84,024	0	1015,82	8,1	10	9,6	1	1	1	1	1	1	1	1	1	0	1	-16,208598	275,159718	308,82068	0
15.01.2021	15:48:53	0	25,101464	4,631953	2,88675	338,3532	1,014	84,006	0	1015,84	8,1	10	9,6	1	1	1	1	1	1	1	1	1	0	1	-12,262156	275,264043	313,260332	0
15.01.2021	15:48:54	0	24,387679	2,259489	2,99475	324,108	1,016	84,012	0	1015,8	8,1	10	9,6	1	1	1	1	1	1	1	1	1	0	1	-10,147992	275,177067	314,963265	0
15.01.2021	15:48:55	0	24,625607	4,970876	2,79075	327,3696	1,016	84,002	0	1015,84	8,1	10	9,6	1	1	1	1	1	1	1	1	1	0	1	-15,221987	275,202329	310,00867	0
15.01.2021	15:48:56	0	24,744571	2,372464	2,793	326,826	1,019	84,035	0	1015,96	8,1	10	9,6	1	1	1	1	1	1	1	1	1	0	1	-11,627907	275,21181	313,647574	0
15.01.2021	15:48:57	0	24,14975	2,711387	2,90475	334,1772	1,017	84,006	0	1015,94	8,2	10	9,6	1	1	1	1	1	1	1	1	1	0	1	-11,698379	275,308472	314,034325	0
15.01.2021	15:48:58	0	24,9825	3,954106	3,039	342,6948	1,019	84,034	0	1015,88	8,1	10	9,6	1	1	1	1	1	1	1	1	1	0	1	-11,980268	275,291006	313,669782	0
15.01.2021	15:48:59	0	24,506643	4,631953	3,0435	345,3696	1,015	84,036	0	1015,8	8,2	10	9,6	1	1	1	1	1	1	1	1	1	0	1	-12,121212	275,348227	313,799679	0
15.01.2021	15:49:00	0	24,14975	2,711387	3,0045	339,1488	1,014	84,045	0	1016	8,1	10	9,6	1	1	1	1	1	1	1	1	1	0	1	-13,883016	275,221297	311,437315	0
15.01.2021	15:49:01	0	24,14975	2,711387	3,0045	339,1488	1,014	84,045	0	1016	8,1	10	9,6	1	1	1	1	1	1	1	1	1	0	1	-10,147992	275,147111	314,821721	0
15.01.2021	15:49:02	0	24,506986	2,937336	3,1215	337,9716	1,019	84,041	0	1015,84	8,2	9,8	9,6	1	1	1	1	1	1	1	1	1	0	1	-9,936575	275,218134	315,368803	0
15.01.2021	15:49:03	0	24,38802	3,050311	3,15825	333,9108	1,016	84,047	0	1015,9	8,1	9,8	9,6	1	1	1	1	1	1	1	1	1	0	1	-11,980268	275,188115	313,183203	0
15.01.2021	15:49:04	0	24,506643	2,372464	2,99775	332,766	1,016	84,031	0	1015,72	8,2	10	9,6	1	1	1	1	1	1	1	1	1	0	1	-14,65821	275,235535	310,729447	0
15.01.2021	15:49:05	0	24,030786	2,598413	2,83425	330,7824	1,02	84,051	0	1015,84	8,1	10	9,6	1	1	1	1	1	1	1	1	1	0	1	-11,768851	275,316417	314,001453	0
15.01.2021	15:49:06	0	24,14975	4,518979	2,75775	342,036	1,02	84,047	0	1015,84	8,1	10	9,6	1	1	1	1	1	1	1	1	1	0	1	-14,305849	275,283072	311,30666	0
15.01.2021	15:49:07	0	24,14975	4,180055	2,7765	340,5708	1,016	84,038	0	1015,84	8,2	10	9,6	1	1	1	1	1	1	1	1	1	0	1	-15,221987	275,333906	310,631102	0
15.01.2021	15:49:08	0	24,744918	4,744956	2,71875	354,9744	1,013	84,046	0	1016,02	8,2	9,8	9,5	1	1	1	1	1	1	1	1	1	0	1	-12,614517	275,275141	312,96047	0
15.01.2021	15:49:09	0	24,506643	4,067105	2,628	346,5072	1,015	84,05	0	1015,94	8,2	10	9,5	1	1	1	1	1	1	1	1	1	0	1	-10,711769	275,341861	315,178981	0
15.01.2021	15:49:10	0	24,863884	4,970906	2,6055	339,4188	1,012	84,06	0	1015,86	8,2	9,8	9,5	1	1	1	1	1	1	1	1	1	0	1	-13,6716	275,227624	311,678647	0
15.01.2021	15:49:11	0	24,268714	3,95413	2,6085	344,2896	1,013	84,061	0	1015,86	8,2	10	9,5	1	1	1	1	1	1	1	1	1	0	1	-12,614517	275,316417	313,155787	0
15.01.2021	15:49:12	0	24,031122	3,276259	2,5365	349,4412	1,009	84,047	0	1015,96	8,2	9,8	9,6	1	1	1	1	1	1	1	1	1	0	1	-11,134602	275,295768	314,537981	0
15.01.2021	15:49:13	0	23,792857	4,406004	2,3475	335,7612	1,016	84,05	0	1015,84	8,1	10	9,6	1	1	1	1	1	1	1	1	1	0	1	-11,486963	275,142385	313,460425	0
15.01.2021	15:49:14	0	24,031122	2,711387	2,32425	328,932	1,015	84,078	0	1015,9	8,2	9,8	9,6	1	1	1	1	1	1	1	1	1	0	1	-13,03735	275,260873	312,470145	0
15.01.2021	15:49:15	0	24,031122	3,389234	2,4405	336,3588	1,009	84,062	0	1015,84	8,2	9,8	9,6	1	1	1	1	1	1	1	1	1	0	1	-10,923185	275,151838	314,068858	0
15.01.2021	15:49:16	0	24,268714	4,067081	2,64225	345,3624	1,014	84,069	0	1015,84	8,2	10	9,6	1	1	1	1	1	1	1	1	1	0	1	-14,305849	275,21023	310,962159	0
15.01.2021	15:49:17	0	24,268714	4,631953	2,7585	354,9528	1,015	84,073	0	1015,9	8,2	10	9,6	1	1	1	1	1	1	1	1	1	0	1	-8,45666	275,325954	317,358789	0
15.01.2021	15:49:18	0	23,911821	3,389234	2,844	339,7644	1,018	84,073	0	1015,94	8,2	10	9,6	1	1	1	1	1	1	1	1	1	0	1	-15,081043	275,303707	310,62911	0
15.01.2021	15:49:19	0	24,14975	2,598428	2,84025	338,3604	1,012	84,06	0	1015,88	8,2	10	9,5	1	1	1	1	1	1	1	1	1	0	1	-13,883016	275,310061	311,857206	0
15.01.2021	15:49:20	0	24,14975	2,485438	2,757	352,5048	1,014	84,077	0	1016,08	8,2	10	9,6	1	1	1	1	1	1	1	1	1	0	1	-11,557435	275,189694	313,613498	0
15.01.2021	15:49:21	0	24,150088	3,163304	2,604	338,3496	1,013	84,076	0	1015,9	8,1	9,8	9,5	1	1	1	1	1	1	1	1	1	0	1	-14,376321	275,156565	310,63806	0
15.01.2021	15:49:22	0	24,14975	3,502229	2,32725	335,3292	1,012	84,087	0	1015,96	8,1	10	9,5	1	1	1	1	1	1	1	1	1	0	1	-12,825934	275,260873	312,681562	0
15.01.2021	15:49:23	0	24,030786	4,29303	2,1555	317,7684	1,008	84,086	0	1015,84	8,2	10	9,6	1	1	1	1	1	1	1	1	1	0	1	-10,359408	275,333906	315,493682	0
15.01.2021	15:49:24	0	24,14975	3,502229	2,08275	324,6444	1,016	84,096	0	1015,94	8,2	10	9,5	1	1	1	1	1	1	1	1	1	0	1	-10,711769	275,271969	314,848215	0
15.01.2021	15:49:25	0	24,150088	3,502187	2,13675	315,4824	1,011	84,097	0	1015,9	8,1	9,8	9,7	1	1	1	1	1	1	1	1	1	0	1	-13,742072	275,158142	311,279757	0
15.01.2021	15:49:26	0	24,150088	4,067056	2,16525	330,7356	1,012	84,09	0	1015,92	8,2	9,8	9,7	1	1	1	1	1	1	1	1	1	0	1	-12,191684	275,276727	313,390806	0
15.01.2021	15:49:27	0	23,554929	2,937318	2,14575	335,2392	1,014	84,101	0	1015,88	8,1	10	9,7	1	1	1	1	1	1	1	1	1	0	1	-12,614517	275,325954	313,200931	0
15.01.2021	15:49:28	0	23,912156	2,485453	2,106	324,36	1,011	84,105	0	1015,96	8,2	9,8	9,5	1	1	1	1	1	1	1	1	1	0	1	-9,513742	275,22446	315,821546	0
15.01.2021	15:49:29	0	23,911821	3,615183	2,0265	332,2872	1,02	84,102	0	1015,92	8,2	10	9,6	1	1	1	1	1	1	1	1	1	0	1	-13,6716	275,175489	311,4322	0
15.01.2021	15:49:30	0	23,912156	4,518979	1,92525	331,3188	1,009	84,102	0	1015,94	8,1	9,8	9,6	1	1	1	1	1	1	1	1	1	0	1	-15,151515	275,183379	309,989574	0
15.01.2021	15:49:31	0	23,555259	2,485438	1,8585	334,6632	1,009	84,117	0	1015,94	8,1	9,8	9,6	1	1	1	1	1	1	1	1	1	0	1	-10,570825	275,147111	314,398888	0
15.01.2021	15:49:32	0	24,150088	4,857902	1,8675	315,1548	1,008	84,116	0	1015,8	8,2	9,8	9,6	1	1	1	1	1	1	1	1	1	0	1	-12,191684	275,291006	313,458366	0
15.01.2021	15:49:33	0	23,79319	2,485453	1,83225	334,5984	1,015	84,117	0	1015,96	8,2	9,8	9,5	1	1	1	1	1	1	1	1	1	0	1	-8,033827	275,147111	316,935885	0
15.01.2021	15:49:34	0	23,912156	2,937318	1,78575	328,8708	1,016	84,115	0	1015,82	8,1	9,8	9,7	1	1	1	1	1	1	1	1	1	0	1	-15,926709	275,270384	309,625775	0
15.01.2021	15:49:35	0	23,436293	2,598428	1,686	335,3868	1,008	84,126	0	1015,86	8,2	9,8	9,5	1	1	1	1	1	1	1	1	1	0	1	-13,953488	275,337088	311,914663	0
15.01.2021	15:49:36	0	23,79319	3,163304	1,74225	339,1344	1,013	84,122	0	1015,88	8,2	9,8	9,5	1	1	1	1	1	1	1	1	1	0	1	-11,980268	275,229206	313,37746	0
15.01.2021	15:49:37	0	23,912156	4,970876	1,85025	330,0084	1,013	84,127	0	1015,9	8,2	9,8	9,6	1	1	1	1	1	1	1	1	1	0	1	-10,782241	275,158142	314,239588	0
15.01.2021	15:49:38	0	23,436293	3,615161	1,89825	334,512	1,007	84,118	0	1015,9	8,2	9,8	9,7	1	1	1	1	1	1	1	1	1	0	1	-11,275546	275,158142	313,746283	0
15.01.2021	15:49:39	0	23,911821	4,857902	2,055	333,45	1,007	84,11	0	1015,9	8,1	10	9,6	1	1	1	1	1	1	1	1	1	0	1	-12,755462	275,283072	312,857048	0
15.01.2021	15:49:40	0	23,317327	4,180055	2,29425	336,438	1,003	84,136	0	1015,78	8,1	9,8	9,6	1	1	1	1	1	1	1	1	1	0	1	-14,305849	275,324365	311,502074	0
15.01.2021	15:49:41	0	23,79319	4,857931	2,325	334,2924	1,009	84,141	0	1015,94	8,2	9,8	9,5	1	1	1	1	1	1	1	1	1	0	1	-15,221987	275,252952	310,248038	0
15.01.2021	15:49:42	0	23,435964	2,485438	2,20575	330,6528	1,007	84,146	0	1015,88	8,1	10	9,6	1	1	1	1	1	1	1	1	1	0	1	-11,06413	275,137661	313,860939	0
15.01.2021	15:49:43	0	23,555259	3,615161	2,148	336,3984	1,003	84,131	0	1015,88	8,1	9,8	9,7	1	1	1	1	1	1	1	1	1	0	1	-13,6716	275,194431	311,521724	0
15.01.2021	15:49:44	0	23,079071	2,598413	2,18325	348,66	1,035	84,16	0	1016,22	8,2	10	9,6	1	1	1	1	1	1	1	1	1	0	1	-12,191684	275,139235	312,740823	0
15.01.2021	15:49:45	0	23,674225	3,502229	2,20425	337,4532	1,011	84,143	0	1015,8	8,1	9,8	9,5	1	1	1	1	1	1	1	1	1	0	1	-13,460183	275,199169	311,755538	0
15.01.2021	15:49:46	0	23,317327	4,067081	2,1945	333,8136	1,003	84,128	0	1015,88	8,1	9,8	9,6	1	1	1	1	1	1	1	1	1	0	1	-13,742072	275,295768	311,930511	0
15.01.2021	15:49:47	0	23,436293	3,276259	2,1885	336,096	1,007	84,134	0	1015,94	8,1	9,8	9,6	1	1	1	1	1	1	1	1	1	0	1	-13,248767	275,332316	312,596793	0
15.01.2021	15:49:48	0	23,555259	3,163285	2,37975	344,2428	1,012	84,151	0	1015,84	8,2	9,8	9,6	1	1	1	1	1	1	1	1	1	0	1	-15,856237	275,295768	309,816346	0
15.01.2021	15:49:49	0	23,436293	4,180055	2,5125	336,78	1,008	84,136	0	1015,96	8,2	9,8	9,6	1	1	1	1	1	1	1	1	1	0	1	-12,332629	275,322775	313,467769	0
15.01.2021	15:49:50	0	23,674225	3,276279	2,59125	352,1232	1,009	84,151	0	1015,88	8,1	9,8	9,5	1	1	1	1	1	1	1	1	1	0	1	-12,684989	275,306884	313,040197	0
15.01.2021	15:49:51	0	23,317327	3,615183	2,5335	355,41	1,008	84,148	0	1015,86	8,1	9,8	9,6	1	1	1	1	1	1	1	1	1	0	1	-14,446794	275,159718	310,582484	0
15.01.2021	15:49:52	0	23,317	3,050329	2,38125	330,0732	1,004	84,143	0	1015,9	8,1	10	9,5	1	1	1	1	1	1	1	1	1	0	1	-13,742072	275,199169	311,47365	0
15.01.2021	15:49:53	0	23,674225	4,518979	2,39775	339,4872	1,002	84,137	0	1015,86	8,2	9,8	9,6	1	1	1	1	1	1	1	1	1	0	1	-13,389711	275,271969	312,170273	0
15.01.2021	15:49:54	0	23,198361	4,857931	2,40675	333,8388	1,012	84,221	0	1015,96	8,2	9,8	9,5	1	1	1	1	1	1	1	1	1	0	1	-13,601128	275,308472	312,131577	0
15.01.2021	15:49:55	0	23,198361	3,389234	2,433	331,5348	1,009	84,154	0	1015,8	8,1	9,8	9,6	1	1	1	1	1	1	1	1	1	0	1	-15,64482	275,245033	309,787754	0
15.01.2021	15:49:56	0	22,960429	2,937354	2,38425	330,3648	1,001	84,15	0	1015,82	8,2	9,8	9,5	1	1	1	1	1	1	1	1	1	0	1	-13,812544	275,150262	311,172055	0
15.01.2021	15:49:57	0	22,841463	3,050292	2,3295	332,4276	1,013	84,155	0	1015,82	8,1	9,8	9,7	1	1	1	1	1	1	1	1	1	0	1	-13,460183	275,276727	312,122307	0
15.01.2021	15:49:58	0	23,198361	4,857902	2,2815	332,3268	1,008	84,151	0	1015,88	8,2	9,8	9,6	1	1	1	1	1	1	1	1	1	0	1	-14,023961	275,278313	311,566034	0
15.01.2021	15:49:59	0	23,079395	2,598428	2,29425	331,0668	1,012	84,169	0	1015,82	8,1	9,8	9,5	1	1	1	1	1	1	1	1	1	0	1	-12,262156	275,324365	313,545766	0
15.01.2021	15:50:00	0	23,198361	2,824362	2,23125	334,5696	1,007	84,166	0	1015,84	8,2	9,8	9,6	1	1	1	1	1	1	1	1	1	0	1	-14,869626	275,246617	310,570437	0
15.01.2021	15:50:01	0	23,198361	2,824362	2,23125	334,5696	1,007	84,166	0	1015,84	8,2	9,8	9,6	1	1	1	1	1	1	1	1	1	0	1	-14,235377	275,14396	310,719451	0
15.01.2021	15:50:02	0	23,079395	2,824362	2,28675	331,1316	1	84,155	0	1015,98	8,2	9,8	9,6	1	1	1	1	1	1	1	1	1	0	1	-11,134602	275,270384	314,417882	0
15.01.2021	15:50:03	0	22,841463	2,824362	2,307	333,4392	1,009	84,145	0	1015,84	8,2	9,8	9,6	1	1	1	1	1	1	1	1	1	0	1	-9,44327	275,131363	315,452052	0
15.01.2021	15:50:04	0	22,722497	2,937336	2,37525	328,1868	1,009	84,177	0	1015,9	8,1	9,8	9,6	1	1	1	1	1	1	1	1	1	0	1	-14,376321	275,252952	311,093704	0
15.01.2021	15:50:05	0	23,317327	4,406031	2,49075	329,256	1,006	84,18	0	1015,94	8,2	9,8	9,5	1	1	1	1	1	1	1	1	1	0	1	-9,090909	275,139235	315,841599	0
15.01.2021	15:50:06	0	23,079395	4,406004	2,53725	329,3136	1,009	84,168	0	1015,88	8,1	9,8	9,6	1	1	1	1	1	1	1	1	1	0	1	-15,715292	275,205489	309,530303	0
15.01.2021	15:50:07	0	23,079395	2,824362	2,56125	326,7072	1,012	84,166	0	1015,8	8,2	9,8	9,6	1	1	1	1	1	1	1	1	1	0	1	-11,06413	275,14081	313,875817	0
15.01.2021	15:50:08	0	22,841463	2,485438	2,64675	330,7248	1,008	84,171	0	1015,98	8,1	9,8	9,6	1	1	1	1	1	1	1	1	1	0	1	-11,980268	275,180223	313,145903	0
15.01.2021	15:50:09	0	22,960429	4,29303	2,64975	333,4248	1,011	84,177	0	1015,88	8,2	9,8	9,6	1	1	1	1	1	1	1	1	1	0	1	-7,399577	275,341861	318,491172	0
15.01.2021	15:50:10	0	23,198361	4,631953	2,6625	329,9832	1,009	84,154	0	1015,86	8,1	9,8	9,6	1	1	1	1	1	1	1	1	1	0	1	-14,799154	275,254536	310,678364	0
15.01.2021	15:50:11	0	23,198361	3,276259	2,78925	311,7744	1,011	84,17	0	1015,9	8,1	9,8	9,6	1	1	1	1	1	1	1	1	1	0	1	-16,208598	275,322775	309,5918	0
15.01.2021	15:50:12	0	22,603531	3,276259	2,74575	334,5984	1,01	84,164	0	1015,84	8,2	9,8	9,6	1	1	1	1	1	1	1	1	1	0	1	-9,090909	275,276727	316,491581	0
15.01.2021	15:50:13	0	22,484565	4,180055	2,6415	325,08	0,997	84,164	0	1015,94	8,2	9,8	9,6	1	1	1	1	1	1	1	1	1	0	1	-11,275546	275,142385	313,671841	0
15.01.2021	15:50:14	0	22,960429	3,502229	2,51025	316,5912	1,007	84,176	0	1015,9	8,2	9,8	9,5	1	1	1	1	1	1	1	1	1	0	1	-9,231853	275,264043	316,290635	0
15.01.2021	15:50:15	0	22,960429	4,631953	2,385	336,0852	1,009	84,183	0	1015,92	8,1	9,8	9,6	1	1	1	1	1	1	1	1	1	0	1	-14,446794	275,318006	311,331033	0
15.01.2021	15:50:16	0	23,079395	4,518979	2,45325	330,4512	1,009	84,178	0	1015,94	8,1	9,8	9,6	1	1	1	1	1	1	1	1	1	0	1	-12,262156	275,183379	312,878932	0
15.01.2021	15:50:17	0	22,365599	3,615183	2,517	323,2692	1,007	84,175	0	1015,9	8,1	9,8	9,6	1	1	1	1	1	1	1	1	1	0	1	-11,41649	275,321185	314,376383	0
15.01.2021	15:50:18	0	22,841463	4,744927	2,50125	324,0684	1,008	84,179	0	1015,92	8,2	9,8	9,6	1	1	1	1	1	1	1	1	1	0	1	-11,41649	275,233953	313,963683	0
15.01.2021	15:50:19	0	22,960429	4,518979	2,4345	320,7636	1,009	84,185	0	1015,94	8,2	9,8	9,6	1	1	1	1	1	1	1	1	1	0	1	-13,883016	275,287832	311,752015	0
15.01.2021	15:50:20	0	22,841463	3,841132	2,22975	320,1048	1,007	84,188	0	1015,96	8,1	9,8	9,6	1	1	1	1	1	1	1	1	1	0	1	-15,574348	275,147111	309,395364	0
15.01.2021	15:50:21	0	22,722497	3,728135	2,00625	336,3588	1,006	84,18	0	1015,98	8,1	9,8	9,7	1	1	1	1	1	1	1	1	1	0	1	-14,940099	275,226042	310,402668	0
15.01.2021	15:50:22	0	22,722497	5,083851	1,82325	338,688	1,005	84,163	0	1015,92	8,1	9,8	9,6	1	1	1	1	1	1	1	1	1	0	1	-11,557435	275,137661	313,367634	0
15.01.2021	15:50:23	0	22,960429	4,857902	1,70475	333,0684	1,008	84,177	0	1015,86	8,1	9,8	9,6	1	1	1	1	1	1	1	1	1	0	1	-12,614517	275,199169	312,601204	0
15.01.2021	15:50:24	0	22,484565	2,937318	1,61175	332,406	1	84,179	0	1015,84	8,2	9,8	9,7	1	1	1	1	1	1	1	1	1	0	1	-13,178295	275,156565	311,836087	0
15.01.2021	15:50:25	0	22,365599	2,824362	1,668	345,7728	1,005	84,162	0	1015,9	8,1	9,8	9,6	1	1	1	1	1	1	1	1	1	0	1	-19,732206	275,310061	306,008017	0
15.01.2021	15:50:26	0	22,484565	2,824362	1,75275	343,1448	1,007	84,181	0	1015,88	8,1	9,8	9,6	1	1	1	1	1	1	1	1	1	0	1	-11,41649	275,192852	313,769369	0
15.01.2021	15:50:27	0	22,246477	2,485438	1,7595	342,7704	1,005	84,181	0	1015,74	8,2	9,9	9,6	1	1	1	1	1	1	1	1	1	0	1	-14,799154	275,132937	310,103603	0
15.01.2021	15:50:28	0	22,603531	4,744927	1,77075	355,8708	1,006	84,185	0	1015,94	8,1	9,8	9,6	1	1	1	1	1	1	1	1	1	0	1	-13,812544	275,22446	311,522744	0
15.01.2021	15:50:29	0	22,246633	2,937336	1,908	338,0508	0,998	84,181	0	1015,86	8,1	9,8	9,6	1	1	1	1	1	1	1	1	1	0	1	-13,178295	275,303707	312,531859	0
15.01.2021	15:50:30	0	22,603373	4,744927	1,995	334,9044	1,003	84,183	0	1015,96	8,1	9,9	9,6	1	1	1	1	1	1	1	1	1	0	1	-12,896406	275,267213	312,641079	0
15.01.2021	15:50:31	0	22,365599	3,050311	2,1765	332,8056	1,005	84,182	0	1015,98	8,1	9,8	9,6	1	1	1	1	1	1	1	1	1	0	1	-15,574348	275,139235	309,35816	0
15.01.2021	15:50:32	0	22,127512	2,824362	2,3595	337,1112	1,001	84,19	0	1015,88	8,1	9,9	9,6	1	1	1	1	1	1	1	1	1	0	1	-10,641297	275,259289	314,858703	0
15.01.2021	15:50:33	0	22,246633	3,163285	2,49975	330,4296	0,998	84,169	0	1015,94	8,1	9,8	9,6	1	1	1	1	1	1	1	1	1	0	1	-14,869626	275,324365	310,938296	0
15.01.2021	15:50:34	0	22,246633	3,502208	2,51925	324,0432	1,006	84,185	0	1015,94	8,1	9,8	9,6	1	1	1	1	1	1	1	1	1	0	1	-12,05074	275,259289	313,44926	0
15.01.2021	15:50:35	0	22,603531	3,276259	2,59275	329,67	1,007	84,187	0	1015,94	8,1	9,8	9,6	1	1	1	1	1	1	1	1	1	0	1	-12,614517	275,161295	312,422209	0
15.01.2021	15:50:36	0	22,008701	2,711387	2,52675	339,444	1,002	84,175	0	1015,92	8,1	9,8	9,6	1	1	1	1	1	1	1	1	1	0	1	-16,27907	275,156565	308,735312	0
15.01.2021	15:50:37	0	22,246633	3,841132	2,376	339,444	1,004	84,166	0	1015,96	8,1	9,8	9,6	1	1	1	1	1	1	1	1	1	0	1	-11,557435	275,233953	313,822739	0
15.01.2021	15:50:38	0	22,365599	4,406004	2,3535	343,0548	1,004	84,186	0	1015,92	8,1	9,8	9,6	1	1	1	1	1	1	1	1	1	0	1	-11,627907	275,319595	314,157442	0
15.01.2021	15:50:39	0	22,127667	3,841132	2,3025	327,8016	1,001	84,178	0	1015,82	8,2	9,8	9,6	1	1	1	1	1	1	1	1	1	0	1	-13,389711	275,214972	311,900717	0
15.01.2021	15:50:40	0	22,127667	2,711387	2,4675	353,1672	0,998	84,184	0	1015,84	8,1	9,8	9,6	1	1	1	1	1	1	1	1	1	0	1	-10,359408	275,167602	314,707121	0
15.01.2021	15:50:41	0	22,246633	4,29303	2,79225	345,8232	1,008	84,189	0	1015,96	8,1	9,8	9,6	1	1	1	1	1	1	1	1	1	0	1	-11,557435	275,313239	314,197827	0
15.01.2021	15:50:42	0	22,246633	3,389234	2,96325	343,512	0,999	84,181	0	1015,88	8,1	9,8	9,6	1	1	1	1	1	1	1	1	1	0	1	-9,231853	275,177067	315,879403	0
15.01.2021	15:50:43	0	22,246633	2,485438	3,009	339,3504	1	84,202	0	1015,94	8,1	9,8	9,6	1	1	1	1	1	1	1	1	1	0	1	-7,258633	275,194431	317,934691	0
15.01.2021	15:50:44	0	22,246633	4,631953	3,12825	341,3556	1,003	84,188	0	1015,94	8,1	9,8	9,6	1	1	1	1	1	1	1	1	1	0	1	-14,446794	275,131363	310,448528	0
15.01.2021	15:50:45	0	21,889735	4,067081	3,3015	336,366	1,004	84,181	0	1016,02	8,1	9,8	9,6	1	1	1	1	1	1	1	1	1	0	1	-14,094433	275,249784	311,36061	0
15.01.2021	15:50:46	0	21,770769	2,598413	3,189	343,9224	0,998	84,185	0	1015,8	8,2	9,8	9,6	1	1	1	1	1	1	1	1	1	0	1	-14,446794	275,310061	311,293429	0
15.01.2021	15:50:47	0	22,365442	4,631953	3,02775	337,4604	1,003	84,192	0	1015,96	8,1	9,9	9,6	1	1	1	1	1	1	1	1	1	0	1	-11,980268	275,183379	313,160821	0
15.01.2021	15:50:48	0	21,770617	3,502208	3,0705	336,8088	0,998	84,19	0	1015,76	8,1	9,9	9,6	1	1	1	1	1	1	1	1	1	0	1	-10,42988	275,303707	315,280273	0
15.01.2021	15:50:49	0	22,365599	4,180055	3,25875	347,1768	1,005	84,199	0	1015,88	8,1	9,8	9,6	1	1	1	1	1	1	1	1	1	0	1	-11,557435	275,219715	313,75542	0
15.01.2021	15:50:50	0	21,770769	2,598413	3,05175	343,8504	1,005	84,195	0	1015,98	8,1	9,8	9,6	1	1	1	1	1	1	1	1	1	0	1	-13,883016	275,31165	311,864726	0
15.01.2021	15:50:51	0	21,770769	2,598413	3,18825	328,896	1,004	84,203	0	1015,9	8,1	9,8	9,6	1	1	1	1	1	1	1	1	1	0	1	-9,936575	275,281485	315,668429	0
15.01.2021	15:50:52	0	21,889735	4,744927	3,33075	336,4128	1	84,198	0	1015,9	8,1	9,8	9,6	1	1	1	1	1	1	1	1	1	0	1	-13,389711	275,31165	312,358031	0
15.01.2021	15:50:53	0	21,770769	2,372464	3,77475	339,0228	1,005	84,204	0	1016	8,1	9,8	9,6	1	1	1	1	1	1	1	1	1	0	1	-8,245243	275,137661	316,679826	0
15.01.2021	15:50:54	0	21,889735	2,598413	3,84075	325,5048	1,006	84,206	0	1016	8,1	9,8	9,6	1	1	1	1	1	1	1	1	1	0	1	-11,627907	275,219715	313,684948	0
15.01.2021	15:50:55	0	21,651803	2,598413	3,912	343,4976	1,007	84,202	0	1016,02	8,1	9,8	9,6	1	1	1	1	1	1	1	1	1	0	1	-9,231853	275,302119	316,470784	0
15.01.2021	15:50:56	0	21,889582	3,502208	3,89025	342,7236	1,01	84,21	0	1015,96	8,1	9,9	9,6	1	1	1	1	1	1	1	1	1	0	1	-9,795631	275,254536	315,681887	0
15.01.2021	15:50:57	0	21,413721	2,146515	3,8055	338,0256	1,003	84,185	0	1015,98	8,1	9,9	9,6	1	1	1	1	1	1	1	1	1	0	1	-8,527132	275,300531	317,167991	0
15.01.2021	15:50:58	0	21,770769	4,180055	3,75825	337,4892	0,995	84,198	0	1016,02	8,1	9,8	9,6	1	1	1	1	1	1	1	1	1	0	1	-9,866103	275,162871	315,178073	0
15.01.2021	15:50:59	0	21,770769	2,372464	3,65175	336,0816	1,004	84,204	0	1016,04	8,1	9,8	9,6	1	1	1	1	1	1	1	1	1	0	1	-14,728682	275,257704	310,763823	0
15.01.2021	15:51:00	0	21,770769	3,050311	3,62325	327,7476	1	84,203	0	1015,98	8,1	9,8	9,6	1	1	1	1	1	1	1	1	1	0	1	-7,540521	275,259289	317,959478	0
15.01.2021	15:51:01	0	21,770769	3,050311	3,62325	327,7476	1	84,203	0	1015,98	8,1	9,8	9,6	1	1	1	1	1	1	1	1	1	0	1	-14,164905	275,262458	311,350087	0
15.01.2021	15:51:02	0	21,770769	4,970876	3,618	339,1128	1,003	84,203	0	1015,92	8,1	9,8	9,6	1	1	1	1	1	1	1	1	1	0	1	-12,544045	275,308472	313,188659	0
15.01.2021	15:51:03	0	22,008547	4,857902	3,48	339,8868	1,003	84,205	0	1015,94	8,1	9,9	9,6	1	1	1	1	1	1	1	1	1	0	1	-15,292459	275,167602	309,77407	0
15.01.2021	15:51:04	0	21,889735	4,744927	3,35325	334,9332	0,999	84,206	0	1015,88	8,1	9,8	9,6	1	1	1	1	1	1	1	1	1	0	1	-13,319239	275,278313	312,270755	0
15.01.2021	15:51:05	0	21,532837	2,372464	3,33	347,2272	1,006	84,204	0	1015,98	8,1	9,8	9,6	1	1	1	1	1	1	1	1	1	0	1	-14,446794	275,303707	311,26336	0
15.01.2021	15:51:06	0	21,413721	3,389234	3,1995	338,7564	1,003	84,196	0	1015,72	8,1	9,9	9,6	1	1	1	1	1	1	1	1	1	0	1	-9,372798	275,237118	316,022344	0
15.01.2021	15:51:07	0	21,294905	3,615183	3,15	334,9008	1,005	84,185	0	1015,96	8,1	9,8	9,6	1	1	1	1	1	1	1	1	1	0	1	-13,248767	275,129789	311,63912	0
15.01.2021	15:51:08	0	21,770617	3,841132	3,15	355,4928	0,993	84,18	0	1015,86	8,1	9,9	9,6	1	1	1	1	1	1	1	1	1	0	1	-9,372798	275,189694	315,798135	0
15.01.2021	15:51:09	0	21,770617	4,518979	3,16425	343,5444	0,995	84,171	0	1015,88	8,1	9,9	9,6	1	1	1	1	1	1	1	1	1	0	1	-12,403101	275,303707	313,307052	0
15.01.2021	15:51:10	0	21,651803	4,518979	3,105	320,3964	1,006	84,196	0	1015,88	8,1	9,8	9,6	1	1	1	1	1	1	1	1	1	0	1	-11,839323	275,208649	313,421213	0
15.01.2021	15:51:11	0	21,413871	3,502208	2,81025	345,69	1	84,191	0	1015,94	8,1	9,8	9,6	1	1	1	1	1	1	1	1	1	0	1	-14,728682	275,117201	310,09975	0
15.01.2021	15:51:12	0	21,056826	2,711387	2,6835	334,5516	1,002	84,208	0	1015,92	8,1	9,9	9,6	1	1	1	1	1	1	1	1	1	0	1	-10,288936	275,291006	315,361114	0
15.01.2021	15:51:13	0	21,532837	4,180055	2,6445	327,42	0,997	84,197	0	1015,88	8,1	9,8	9,6	1	1	1	1	1	1	1	1	1	0	1	-12,825934	275,259289	312,674066	0
15.01.2021	15:51:14	0	21,294756	3,389234	2,76375	346,0932	0,998	84,185	0	1015,9	8,1	9,9	9,6	1	1	1	1	1	1	1	1	1	0	1	-11,557435	275,178645	313,561278	0
15.01.2021	15:51:15	0	21,651652	3,841132	2,83725	340,1568	1,002	84,215	0	1016,04	8,1	9,9	9,6	1	1	1	1	1	1	1	1	1	0	1	-9,866103	275,120347	314,977189	0
15.01.2021	15:51:16	0	20,937861	2,937336	2,775	353,8368	1,002	84,206	0	1016	8,1	9,9	9,6	1	1	1	1	1	1	1	1	1	0	1	-11,205074	275,207069	314,047992	0
15.01.2021	15:51:17	0	21,175791	3,050311	2,81475	355,3956	1	84,209	0	1015,9	8,1	9,9	9,6	1	1	1	1	1	1	1	1	1	0	1	-11,839323	275,150262	313,145276	0
15.01.2021	15:51:18	0	21,532687	4,180055	2,91525	354,978	0,998	84,198	0	1015,82	8,1	9,9	9,6	1	1	1	1	1	1	1	1	1	0	1	-11,486963	275,226042	313,855804	0
15.01.2021	15:51:19	0	21,056974	2,937336	2,95425	352,6992	1	84,209	0	1015,92	8,1	9,8	9,6	1	1	1	1	1	1	1	1	1	0	1	-11,205074	275,114055	313,608502	0
15.01.2021	15:51:20	0	21,056826	3,163285	2,85975	356,6232	1	84,19	0	1015,88	8,1	9,9	9,6	1	1	1	1	1	1	1	1	1	0	1	-12,755462	275,251368	312,707072	0
15.01.2021	15:51:21	0	21,294756	4,180055	3,06375	353,1816	1,003	84,213	0	1015,88	8,1	9,9	9,6	1	1	1	1	1	1	1	1	1	0	1	-8,245243	275,284658	317,374773	0
15.01.2021	15:51:22	0	21,175791	4,180055	3,45225	349,4088	0,998	84,2	0	1015,88	8,1	9,9	9,6	1	1	1	1	1	1	1	1	1	0	1	-11,275546	275,279899	314,321952	0
15.01.2021	15:51:23	0	21,056826	2,711387	3,348	336,15	0,998	84,19	0	1015,84	8,1	9,9	9,6	1	1	1	1	1	1	1	1	1	0	1	-9,161381	275,19601	316,039408	0
15.01.2021	15:51:24	0	21,413721	4,518979	3,64575	334,9044	1,003	84,207	0	1015,94	8,1	9,9	9,6	1	1	1	1	1	1	1	1	1	0	1	-12,332629	275,297355	313,347467	0
15.01.2021	15:51:25	0	21,056974	4,067081	4,00425	348,4152	1,001	84,204	0	1015,84	8,1	9,8	9,6	1	1	1	1	1	1	1	1	1	0	1	-14,799154	275,22446	310,536133	0
15.01.2021	15:51:26	0	21,056974	4,631953	3,75375	324,0792	0,997	84,197	0	1015,8	8,1	9,8	9,6	1	1	1	1	1	1	1	1	1	0	1	-14,587738	275,286245	311,039786	0
15.01.2021	15:51:27	0	21,056974	2,485438	3,678	333,828	1,004	84,199	0	1015,92	8,1	9,8	9,6	1	1	1	1	1	1	1	1	1	0	1	-13,03735	275,226042	312,305417	0
15.01.2021	15:51:28	0	21,056826	4,180055	3,62025	334,6236	0,999	84,203	0	1015,88	8,1	9,9	9,6	1	1	1	1	1	1	1	1	1	0	1	-16,983791	275,264043	308,538697	0
15.01.2021	15:51:29	0	21,175791	4,067081	3,498	336,1284	0,999	84,183	0	1015,9	8,1	9,9	9,6	1	1	1	1	1	1	1	1	1	0	1	-10,782241	275,297355	314,897854	0
15.01.2021	15:51:30	0	20,938008	2,824362	3,492	342,756	0,998	84,19	0	1015,74	8,1	9,8	9,6	1	1	1	1	1	1	1	1	1	0	1	-9,090909	275,172334	315,99798	0
15.01.2021	15:51:31	0	21,175791	4,406004	3,4005	340,2252	0,998	84,183	0	1016	8,1	9,9	9,6	1	1	1	1	1	1	1	1	1	0	1	-15,292459	275,292593	310,365101	0
15.01.2021	15:51:32	0	20,937861	2,711387	3,17775	336,1104	0,995	84,176	0	1015,98	8,1	9,9	9,6	1	1	1	1	1	1	1	1	1	0	1	-10,007047	275,230788	315,358161	0
15.01.2021	15:51:33	0	20,818896	2,711387	3,021	332,0352	1	84,182	0	1015,86	8,1	9,9	9,6	1	1	1	1	1	1	1	1	1	0	1	-10,923185	275,292593	314,734375	0
15.01.2021	15:51:34	0	20,580966	3,841132	2,93925	330,4152	0,989	84,186	0	1015,88	8,1	9,9	9,6	1	1	1	1	1	1	1	1	1	0	1	-9,090909	275,265628	316,439077	0
15.01.2021	15:51:35	0	20,699931	3,389234	2,98425	334,2132	0,994	84,187	0	1015,92	8,1	9,9	9,6	1	1	1	1	1	1	1	1	1	0	1	-10,42988	275,142385	314,517507	0
15.01.2021	15:51:36	0	21,175791	3,728157	3,273	330,39	0,997	84,191	0	1015,82	8,1	9,9	9,6	1	1	1	1	1	1	1	1	1	0	1	-12,191684	275,292593	313,465876	0
15.01.2021	15:51:37	0	20,818896	4,180055	3,41625	346,8744	0,997	84,18	0	1015,92	8,1	9,9	9,6	1	1	1	1	1	1	1	1	1	0	1	-9,725159	275,134512	315,185035	0
15.01.2021	15:51:38	0	20,699931	3,841132	3,5145	348,2964	0,997	84,182	0	1016	8,1	9,9	9,6	1	1	1	1	1	1	1	1	1	0	1	-12,755462	275,281485	312,849542	0
15.01.2021	15:51:39	0	21,056826	2,937336	3,67425	349,8696	0,996	84,177	0	1016,02	8,1	9,9	9,6	1	1	1	1	1	1	1	1	1	0	1	-10,641297	275,237118	314,753845	0
15.01.2021	15:51:40	0	20,818896	3,050311	3,61425	351,1152	0,992	84,181	0	1015,88	8,1	9,9	9,6	1	1	1	1	1	1	1	1	1	0	1	-14,376321	275,156565	310,63806	0
15.01.2021	15:51:41	0	20,818896	3,389234	3,3795	331,11	1	84,186	0	1016,02	8,1	9,9	9,6	1	1	1	1	1	1	1	1	1	0	1	-9,936575	275,29418	315,728496	0
15.01.2021	15:51:42	0	20,462	2,598413	3,273	339,0336	0,995	84,165	0	1015,98	8,1	9,9	9,6	1	1	1	1	1	1	1	1	1	0	1	-9,795631	275,167602	315,270899	0
15.01.2021	15:51:43	0	20,580966	3,615183	3,2775	337,5468	1,001	84,171	0	1015,94	8,1	9,9	9,6	1	1	1	1	1	1	1	1	1	0	1	-13,107822	275,121921	311,7429	0
15.01.2021	15:51:44	0	20,818896	4,631953	3,2745	329,6916	0,995	84,175	0	1015,98	8,1	9,9	9,6	1	1	1	1	1	1	1	1	1	0	1	-14,517266	275,262458	310,997726	0
15.01.2021	15:51:45	0	20,818896	2,824362	3,35925	337,536	1,001	84,162	0	1016	8,1	9,9	9,6	1	1	1	1	1	1	1	1	1	0	1	-11,909796	275,118774	312,926066	0
15.01.2021	15:51:46	0	20,937861	3,615183	3,20775	320,4504	0,995	84,175	0	1015,94	8,1	9,9	9,6	1	1	1	1	1	1	1	1	1	0	1	-10,923185	275,194431	314,270139	0
15.01.2021	15:51:47	0	20,699931	3,954106	3,16725	328,9644	0,993	84,161	0	1015,9	8,1	9,9	9,6	1	1	1	1	1	1	1	1	1	0	1	-12,191684	275,295768	313,480899	0
15.01.2021	15:51:48	0	20,818896	3,954106	2,8665	305,7552	0,999	84,157	0	1015,96	8,1	9,9	9,6	1	1	1	1	1	1	1	1	1	0	1	-15,503876	275,218134	309,801502	0
15.01.2021	15:51:49	0	20,580966	4,29303	2,84475	328,6152	1	84,159	0	1016,1	8,1	9,9	9,6	1	1	1	1	1	1	1	1	1	0	1	-8,668076	275,283072	316,944433	0
15.01.2021	15:51:50	0	20,462	4,406004	2,7765	339,5448	1,004	84,159	0	1015,9	8,1	9,9	9,6	1	1	1	1	1	1	1	1	1	0	1	-14,094433	275,23237	311,278258	0
15.01.2021	15:51:51	0	20,699931	4,857902	3,033	312,4476	0,999	84,147	0	1015,96	8,1	9,9	9,6	1	1	1	1	1	1	1	1	1	0	1	-8,738548	275,241867	316,679051	0
15.01.2021	15:51:52	0	20,462	3,050311	3,597	310,6404	0,995	84,151	0	1015,94	8,1	9,9	9,6	1	1	1	1	1	1	1	1	1	0	1	-12,825934	275,24345	312,599153	0
15.01.2021	15:51:53	0	20,462144	2,711387	3,71325	309,582	0,994	84,142	0	1015,96	8,1	9,8	9,6	1	1	1	1	1	1	1	1	1	0	1	-11,627907	275,153413	313,371582	0
15.01.2021	15:51:54	0	20,462	4,180055	3,648	335,3508	0,99	84,144	0	1015,88	8,1	9,9	9,6	1	1	1	1	1	1	1	1	1	0	1	-10,359408	275,291006	315,290642	0
15.01.2021	15:51:55	0	20,580966	2,711387	3,34725	321,7212	0,993	84,117	0	1015,82	8,1	9,9	9,6	1	1	1	1	1	1	1	1	1	0	1	-7,329105	275,154989	317,67783	0
15.01.2021	15:51:56	0	20,22407	4,29303	3,246	318,4596	0,994	84,122	0	1015,84	8,1	9,9	9,6	1	1	1	1	1	1	1	1	1	0	1	-17,26568	275,270384	308,286803	0
15.01.2021	15:51:57	0	20,699931	4,970876	3,003	315,9396	0,991	84,111	0	1015,88	8,1	9,9	9,6	1	1	1	1	1	1	1	1	1	0	1	-12,121212	275,246617	313,318851	0
15.01.2021	15:51:58	0	20,699931	2,372464	2,8665	328,1868	0,995	84,129	0	1015,94	8,1	9,9	9,6	1	1	1	1	1	1	1	1	1	0	1	-11,346018	275,112483	313,460131	0
15.01.2021	15:51:59	0	20,699931	3,502187	2,7675	320,7816	0,985	84,107	0	1015,9	8,1	9,9	9,7	1	1	1	1	1	1	1	1	1	0	1	-12,544045	275,175489	312,559755	0
15.01.2021	15:52:00	0	20,818896	4,744927	3,036	322,596	0,987	84,092	0	1015,88	8,1	9,9	9,6	1	1	1	1	1	1	1	1	1	0	1	-12,755462	275,289419	312,887079	0
15.01.2021	15:52:01	0	20,818896	4,744927	3,036	322,596	0,987	84,092	0	1015,88	8,1	9,9	9,6	1	1	1	1	1	1	1	1	1	0	1	-6,765328	275,129789	318,122559	0
15.01.2021	15:52:02	0	20,105105	3,050311	3,354	324,27	0,994	84,098	0	1015,98	8,1	9,9	9,6	1	1	1	1	1	1	1	1	1	0	1	-6,8358	275,191272	318,342596	0
15.01.2021	15:52:03	0	20,818896	4,857902	3,657	316,62	0,99	84,091	0	1015,98	8,1	9,9	9,6	1	1	1	1	1	1	1	1	1	0	1	-15,997181	275,267213	309,540303	0
15.01.2021	15:52:04	0	20,699931	4,518951	3,5805	314,7552	0,99	84,086	0	1015,9	8,1	9,9	9,7	1	1	1	1	1	1	1	1	1	0	1	-12,614517	275,154989	312,392418	0
15.01.2021	15:52:05	0	20,699931	4,18008	3,5505	318,0708	0,991	84,065	0	1015,86	8,1	9,9	9,5	1	1	1	1	1	1	1	1	1	0	1	-10,852713	275,24345	314,572373	0
15.01.2021	15:52:06	0	20,462	4,631925	3,6045	322,2072	0,983	84,049	0	1015,84	8,1	9,9	9,7	1	1	1	1	1	1	1	1	1	0	1	-16,27907	275,222878	309,048739	0
15.01.2021	15:52:07	0	20,22407	3,389234	3,5175	337,5108	0,991	84,054	0	1015,84	8,1	9,9	9,6	1	1	1	1	1	1	1	1	1	0	1	-12,332629	275,278313	313,257366	0
15.01.2021	15:52:08	0	20,343035	4,18003	3,27	312,1488	0,991	84,054	0	1015,9	8,1	9,9	9,7	1	1	1	1	1	1	1	1	1	0	1	-11,839323	275,164448	313,212303	0
15.01.2021	15:52:09	0	20,22407	4,518979	3,06075	311,0472	0,991	84,05	0	1015,94	8,1	9,9	9,6	1	1	1	1	1	1	1	1	1	0	1	-9,584214	275,273555	315,983271	0
15.01.2021	15:52:10	0	20,462	3,389234	2,93475	321,8868	0,985	84,038	0	1016,04	8,1	9,9	9,6	1	1	1	1	1	1	1	1	1	0	1	-8,527132	275,229206	316,830596	0
15.01.2021	15:52:11	0	19,98628	2,598397	2,757	328,7052	0,985	84,038	0	1016	8,1	9,8	9,7	1	1	1	1	1	1	1	1	1	0	1	-15,64482	275,099906	309,101939	0
15.01.2021	15:52:12	0	19,867175	2,711387	2,77725	326,7	0,986	84,029	0	1016	8,1	9,9	9,6	1	1	1	1	1	1	1	1	1	0	1	-14,235377	275,229206	311,12235	0
15.01.2021	15:52:13	0	20,105246	4,518979	2,793	352,1232	0,984	84,03	0	1015,92	8,1	9,8	9,6	1	1	1	1	1	1	1	1	1	0	1	-11,06413	275,292593	314,59343	0
15.01.2021	15:52:14	0	20,343035	4,406004	2,5875	342,7344	0,985	84,017	0	1015,84	8,1	9,9	9,6	1	1	1	1	1	1	1	1	1	0	1	-7,681466	275,216553	317,616437	0
15.01.2021	15:52:15	0	20,343178	2,598397	2,57025	336,3444	0,988	84,002	0	1015,76	8,1	9,8	9,7	1	1	1	1	1	1	1	1	1	0	1	-8,45666	275,096763	316,27526	0
15.01.2021	15:52:16	0	19,98614	2,711371	2,59425	351,3312	0,985	84,005	0	1016,06	8,1	9,9	9,7	1	1	1	1	1	1	1	1	1	0	1	-11,346018	275,227624	314,004228	0
15.01.2021	15:52:17	0	20,343035	3,502208	2,72325	343,9044	0,978	83,979	0	1015,92	8,1	9,9	9,6	1	1	1	1	1	1	1	1	1	0	1	-12,403101	275,095192	312,3214	0
15.01.2021	15:52:18	0	19,98614	3,954106	2,67075	342,252	0,981	83,992	0	1015,92	8,1	9,9	9,6	1	1	1	1	1	1	1	1	1	0	1	-10,359408	275,21023	314,908601	0
15.01.2021	15:52:19	0	19,98614	3,276259	2,53725	337,4712	0,976	83,982	0	1015,86	8,1	9,9	9,6	1	1	1	1	1	1	1	1	1	0	1	-11,768851	275,257704	313,723654	0
15.01.2021	15:52:20	0	19,867314	2,937318	2,4915	320,7384	0,983	83,975	0	1015,96	8,1	9,8	9,7	1	1	1	1	1	1	1	1	1	0	1	-13,107822	275,180223	312,018349	0
15.01.2021	15:52:21	0	19,748348	4,744899	2,4915	335,3004	0,974	83,961	0	1015,76	8,1	9,8	9,7	1	1	1	1	1	1	1	1	1	0	1	-9,161381	275,268798	316,383602	0
15.01.2021	15:52:22	0	20,105105	2,711387	2,2665	338,3784	0,981	83,967	0	1015,9	8,1	9,9	9,6	1	1	1	1	1	1	1	1	1	0	1	-8,597604	275,235535	316,790053	0
15.01.2021	15:52:23	0	20,343035	3,728157	2,2395	320,4108	0,979	83,957	0	1015,86	8,1	9,9	9,6	1	1	1	1	1	1	1	1	1	0	1	-12,332629	275,106193	312,44382	0
15.01.2021	15:52:24	0	20,22407	3,841109	2,53425	318,4344	0,978	83,942	0	1015,92	8,1	9,9	9,7	1	1	1	1	1	1	1	1	1	0	1	-12,262156	275,235535	313,125501	0
15.01.2021	15:52:25	0	20,224212	4,970847	2,7825	326,4264	0,976	83,956	0	1015,98	8,1	9,8	9,7	1	1	1	1	1	1	1	1	1	0	1	-13,812544	275,276727	311,769947	0
15.01.2021	15:52:26	0	19,74821	3,276259	2,96325	327,1356	0,981	83,948	0	1016	8,1	9,9	9,6	1	1	1	1	1	1	1	1	1	0	1	-13,883016	275,167602	311,183513	0
15.01.2021	15:52:27	0	20,105105	3,728135	2,99325	325,1952	0,978	83,94	0	1015,96	8,1	9,9	9,7	1	1	1	1	1	1	1	1	1	0	1	-11,346018	275,098334	313,393321	0
15.01.2021	15:52:28	0	19,74821	3,27624	2,8155	327,0744	0,973	83,94	0	1015,66	8,1	9,9	9,7	1	1	1	1	1	1	1	1	1	0	1	-10,359408	275,268798	315,185576	0
15.01.2021	15:52:29	0	19,748348	3,27624	2,66025	325,1844	0,975	83,955	0	1015,86	8,1	9,8	9,7	1	1	1	1	1	1	1	1	1	0	1	-14,65821	275,216553	310,639693	0
15.01.2021	15:52:30	0	19,510416	2,598397	2,676	316,2636	0,978	83,923	0	1016	8,1	9,8	9,7	1	1	1	1	1	1	1	1	1	0	1	-17,195208	275,257704	308,297297	0
15.01.2021	15:52:31	0	19,98614	4,406004	2,5065	332,3124	0,971	83,946	0	1015,96	8	9,9	9,6	1	1	1	1	1	1	1	1	1	0	1	-11,41649	275,240284	313,993622	0
15.01.2021	15:52:32	0	19,748348	3,72818	2,3535	319,14	0,977	83,941	0	1015,88	8,1	9,8	9,5	1	1	1	1	1	1	1	1	1	0	1	-14,587738	275,14396	310,36709	0
15.01.2021	15:52:33	0	19,98614	4,29303	2,466	306,4284	0,966	83,919	0	1015,86	8,1	9,9	9,6	1	1	1	1	1	1	1	1	1	0	1	-10,147992	275,267213	315,389493	0
15.01.2021	15:52:34	0	19,867175	4,744927	2,81625	316,6668	0,97	83,923	0	1015,9	8,1	9,9	9,6	1	1	1	1	1	1	1	1	1	0	1	-11,627907	275,139235	313,304601	0
15.01.2021	15:52:35	0	19,867314	3,728135	2,9985	323,6292	0,969	83,927	0	1015,8	8,1	9,8	9,7	1	1	1	1	1	1	1	1	1	0	1	-10,359408	275,109338	314,43189	0
15.01.2021	15:52:36	0	19,510416	3,163266	2,8785	314,8092	0,975	83,941	0	1016,16	8,1	9,8	9,7	1	1	1	1	1	1	1	1	1	0	1	-12,332629	275,226042	313,010138	0
15.01.2021	15:52:37	0	19,510416	3,163266	2,70375	336,042	0,972	83,932	0	1016,04	8,1	9,8	9,7	1	1	1	1	1	1	1	1	1	0	1	-9,44327	275,09205	315,266395	0
15.01.2021	15:52:38	0	19,51028	2,824379	2,53875	328,1148	0,967	83,937	0	1015,84	8,1	9,9	9,5	1	1	1	1	1	1	1	1	1	0	1	-10,641297	275,213391	314,641658	0
15.01.2021	15:52:39	0	20,105246	4,857873	2,37225	338,0292	0,972	83,943	0	1016	8,1	9,8	9,7	1	1	1	1	1	1	1	1	1	0	1	-10,570825	275,267213	314,96666	0
15.01.2021	15:52:40	0	19,98614	4,405978	2,0835	344,3364	0,97	83,935	0	1015,96	8,1	9,9	9,7	1	1	1	1	1	1	1	1	1	0	1	-13,812544	275,186536	311,343465	0
15.01.2021	15:52:41	0	20,224212	4,744899	1,84575	345,3336	0,967	83,932	0	1016,08	8,1	9,8	9,7	1	1	1	1	1	1	1	1	1	0	1	-10,147992	275,093621	314,569091	0
15.01.2021	15:52:42	0	19,74821	2,711387	1,78725	332,3988	0,967	83,934	0	1015,86	8,1	9,9	9,6	1	1	1	1	1	1	1	1	1	0	1	-14,728682	275,14396	310,226146	0
15.01.2021	15:52:43	0	19,867314	4,405978	1,84575	332,064	0,972	83,94	0	1015,9	8,1	9,8	9,7	1	1	1	1	1	1	1	1	1	0	1	-10,288936	275,088908	314,405896	0
15.01.2021	15:52:44	0	19,748348	3,502208	2,11125	329,238	0,968	83,941	0	1016,04	8,1	9,8	9,6	1	1	1	1	1	1	1	1	1	0	1	-13,248767	275,131363	311,646555	0
15.01.2021	15:52:45	0	19,39145	3,163266	2,40075	332,7912	0,967	83,937	0	1016,02	8,1	9,8	9,7	1	1	1	1	1	1	1	1	1	0	1	-15,292459	275,098334	309,44688	0
15.01.2021	15:52:46	0	19,867314	2,937336	2,5365	328,8888	0,965	83,944	0	1016,02	8,1	9,8	9,6	1	1	1	1	1	1	1	1	1	0	1	-10,923185	275,189694	314,247748	0
15.01.2021	15:52:47	0	19,510416	2,711371	2,57925	358,3296	0,967	83,946	0	1015,92	8	9,8	9,7	1	1	1	1	1	1	1	1	1	0	1	-12,544045	275,079486	312,106306	0
15.01.2021	15:52:48	0	19,629245	3,841109	2,60325	348,192	0,97	83,949	0	1016,04	8,1	9,9	9,7	1	1	1	1	1	1	1	1	1	0	1	-10,852713	275,14396	314,102115	0
15.01.2021	15:52:49	0	19,39145	3,841132	2,59575	341,3196	0,966	83,937	0	1015,9	8,1	9,8	9,6	1	1	1	1	1	1	1	1	1	0	1	-9,936575	275,275141	315,638413	0
15.01.2021	15:52:50	0	19,510416	2,711371	2,5515	350,19	0,962	83,935	0	1015,9	8,1	9,8	9,7	1	1	1	1	1	1	1	1	1	0	1	-19,309373	275,158142	305,712456	0
15.01.2021	15:52:51	0	19,629382	4,518979	2,49825	349,866	0,97	83,942	0	1015,98	8,1	9,8	9,6	1	1	1	1	1	1	1	1	1	0	1	-11,06413	275,281485	314,540874	0
15.01.2021	15:52:52	0	19,867175	4,857873	2,523	347,2236	0,968	83,953	0	1016,08	8,1	9,9	9,7	1	1	1	1	1	1	1	1	1	0	1	-14,446794	275,22446	310,888494	0
15.01.2021	15:52:53	0	19,510416	4,518979	2,46525	355,3848	0,956	83,95	0	1015,92	8,1	9,8	9,6	1	1	1	1	1	1	1	1	1	0	1	-12,262156	275,085767	312,417846	0
15.01.2021	15:52:54	0	19,391314	2,372478	2,394	351,6948	0,961	83,954	0	1016,22	8,1	9,9	9,5	1	1	1	1	1	1	1	1	1	0	1	-8,315715	275,137661	316,609354	0
15.01.2021	15:52:55	0	19,39145	3,954106	2,4975	343,5372	0,961	83,949	0	1016,06	8,1	9,8	9,6	1	1	1	1	1	1	1	1	1	0	1	-9,44327	275,088908	315,251562	0
15.01.2021	15:52:56	0	19,39145	2,259476	2,78775	339,8364	0,965	83,956	0	1016	8	9,8	9,7	1	1	1	1	1	1	1	1	1	0	1	-10,993658	275,208649	314,266879	0
15.01.2021	15:52:57	0	19,510416	2,711387	3,0405	332,4528	0,962	83,944	0	1015,8	8	9,8	9,6	1	1	1	1	1	1	1	1	1	0	1	-12,544045	275,084197	312,128543	0
15.01.2021	15:52:58	0	19,272484	3,954106	3,3315	327,3336	0,966	83,953	0	1015,88	8,1	9,8	9,6	1	1	1	1	1	1	1	1	1	0	1	-12,191684	275,221297	313,128647	0
15.01.2021	15:52:59	0	19,272484	2,711387	3,426	334,9332	0,965	83,968	0	1016	8,1	9,8	9,6	1	1	1	1	1	1	1	1	1	0	1	-12,684989	275,085767	311,995013	0
15.01.2021	15:53:00	0	19,034552	2,937336	3,30975	337,1904	0,968	83,963	0	1015,96	8,1	9,8	9,6	1	1	1	1	1	1	1	1	1	0	1	-7,963354	275,137661	316,961715	0
15.01.2021	15:53:01	0	19,034552	2,937336	3,30975	337,1904	0,968	83,963	0	1015,96	8,1	9,8	9,6	1	1	1	1	1	1	1	1	1	0	1	-9,584214	275,278313	316,00578	0
15.01.2021	15:53:02	0	19,272484	3,050292	3,12225	346,068	0,96	83,959	0	1016	8,1	9,8	9,7	1	1	1	1	1	1	1	1	1	0	1	-12,332629	275,112483	312,473521	0
15.01.2021	15:53:03	0	19,153518	3,841109	3,06525	339,39	0,965	83,974	0	1016,04	8,1	9,8	9,7	1	1	1	1	1	1	1	1	1	0	1	-10,852713	275,082626	313,812462	0
15.01.2021	15:53:04	0	19,748348	4,857873	3,156	340,2072	0,958	83,96	0	1015,92	8,1	9,8	9,7	1	1	1	1	1	1	1	1	1	0	1	-14,376321	275,208649	310,884215	0
15.01.2021	15:53:05	0	19,153518	4,18003	3,12825	336,8736	0,966	83,971	0	1015,96	8,1	9,8	9,7	1	1	1	1	1	1	1	1	1	0	1	-11,275546	275,259289	314,224454	0
15.01.2021	15:53:06	0	19,034552	3,389234	2,9985	339,4836	0,964	83,955	0	1016	8	9,8	9,6	1	1	1	1	1	1	1	1	1	0	1	-12,825934	275,162871	312,218242	0
15.01.2021	15:53:07	0	18,79662	2,372449	2,82225	347,5944	0,961	83,969	0	1016,1	8,1	9,8	9,7	1	1	1	1	1	1	1	1	1	0	1	-11,980268	275,082626	312,684907	0
15.01.2021	15:53:08	0	19,272484	2,824345	2,62425	333,8568	0,964	83,968	0	1015,98	8	9,8	9,7	1	1	1	1	1	1	1	1	1	0	1	-9,090909	275,14396	315,863919	0
15.01.2021	15:53:09	0	19,153518	4,067056	2,51625	348,3144	0,967	83,967	0	1016,12	8	9,8	9,7	1	1	1	1	1	1	1	1	1	0	1	-12,473573	275,093621	312,243509	0
15.01.2021	15:53:10	0	19,510416	4,29303	2,58825	344,7072	0,961	83,968	0	1016,02	8	9,8	9,6	1	1	1	1	1	1	1	1	1	0	1	-10,218464	275,150262	314,766135	0
15.01.2021	15:53:11	0	19,034552	2,485423	2,589	344,322	0,958	83,97	0	1015,82	8	9,8	9,7	1	1	1	1	1	1	1	1	1	0	1	-12,191684	275,084197	312,480904	0
15.01.2021	15:53:12	0	19,034552	4,518979	2,51625	340,1676	0,952	83,962	0	1015,94	8	9,8	9,6	1	1	1	1	1	1	1	1	1	0	1	-15,503876	275,126641	309,369143	0
15.01.2021	15:53:13	0	19,272484	3,389234	2,53125	342,1116	0,958	83,963	0	1015,8	8	9,8	9,6	1	1	1	1	1	1	1	1	1	0	1	-10,500352	275,09205	314,209312	0
15.01.2021	15:53:14	0	19,153518	3,050311	2,54925	348,246	0,958	83,959	0	1015,94	8,1	9,8	9,6	1	1	1	1	1	1	1	1	1	0	1	-9,302326	275,21023	315,965683	0
15.01.2021	15:53:15	0	19,034552	4,406004	2,37675	343,0548	0,964	83,954	0	1015,9	8,1	9,8	9,6	1	1	1	1	1	1	1	1	1	0	1	-9,090909	275,087337	315,596508	0
15.01.2021	15:53:16	0	18,915586	2,711387	2,316	344,718	0,955	83,968	0	1016	8	9,8	9,6	1	1	1	1	1	1	1	1	1	0	1	-15,292459	275,162871	309,751717	0
15.01.2021	15:53:17	0	19,272484	4,29303	2,301	349,9992	0,967	83,97	0	1015,98	8,1	9,8	9,6	1	1	1	1	1	1	1	1	1	0	1	-11,980268	275,260873	313,527228	0
15.01.2021	15:53:18	0	19,153518	4,406004	2,259	353,9232	0,961	83,979	0	1015,94	8	9,8	9,6	1	1	1	1	1	1	1	1	1	0	1	-8,315715	275,117201	316,512717	0
15.01.2021	15:53:19	0	19,034552	2,937336	2,1885	350,6256	0,964	83,978	0	1015,86	8,1	9,8	9,6	1	1	1	1	1	1	1	1	1	0	1	-17,124736	275,226042	308,218031	0
15.01.2021	15:53:20	0	19,272484	4,857873	2,15625	348,6168	0,956	83,973	0	1015,94	8,1	9,8	9,7	1	1	1	1	1	1	1	1	1	0	1	-10,147992	275,142385	314,799396	0
15.01.2021	15:53:21	0	18,915586	3,728157	2,2605	354,9996	0,958	83,98	0	1015,86	8,1	9,8	9,6	1	1	1	1	1	1	1	1	1	0	1	-9,584214	275,241867	315,833385	0
15.01.2021	15:53:22	0	18,79662	4,406004	2,35275	342,2988	0,958	83,972	0	1015,86	8,1	9,8	9,6	1	1	1	1	1	1	1	1	1	0	1	-12,403101	275,226042	312,939666	0
15.01.2021	15:53:23	0	19,153518	3,615183	2,382	349,4412	0,954	83,974	0	1015,78	8,1	9,8	9,6	1	1	1	1	1	1	1	1	1	0	1	-15,362932	275,238701	310,039695	0
15.01.2021	15:53:24	0	19,034552	3,050311	2,478	336,9168	0,955	83,961	0	1015,92	8	9,8	9,6	1	1	1	1	1	1	1	1	1	0	1	-9,161381	275,166025	315,897696	0
15.01.2021	15:53:25	0	19,272484	3,615183	2,42775	331,4484	0,953	83,987	0	1015,92	8	9,8	9,6	1	1	1	1	1	1	1	1	1	0	1	-10,993658	275,25612	314,491354	0
15.01.2021	15:53:26	0	19,034552	5,083851	2,337	346,4568	0,955	83,973	0	1016,1	8	9,8	9,6	1	1	1	1	1	1	1	1	1	0	1	-8,80902	275,173911	316,287324	0
15.01.2021	15:53:27	0	18,79662	3,502208	2,11875	321,4872	0,958	83,983	0	1015,96	8	9,8	9,6	1	1	1	1	1	1	1	1	1	0	1	-15,503876	275,238701	309,898751	0
15.01.2021	15:53:28	0	19,153518	4,067081	2,03775	338,3532	0,949	83,977	0	1015,94	8	9,8	9,6	1	1	1	1	1	1	1	1	1	0	1	-10,359408	275,181801	314,774222	0
15.01.2021	15:53:29	0	19,272484	4,744927	1,995	343,4904	0,954	83,976	0	1015,8	8	9,8	9,6	1	1	1	1	1	1	1	1	1	0	1	-14,446794	275,260873	311,060702	0
15.01.2021	15:53:30	0	19,034552	3,954106	2,17425	342,0468	0,959	83,982	0	1015,92	8	9,8	9,6	1	1	1	1	1	1	1	1	1	0	1	-11,275546	275,136086	313,642085	0
15.01.2021	15:53:31	0	18,439723	1,920566	2,49225	340,2288	0,959	83,977	0	1015,94	8,1	9,8	9,6	1	1	1	1	1	1	1	1	1	0	1	-10,218464	275,073207	314,402248	0
15.01.2021	15:53:32	0	18,915586	3,615183	2,673	326,808	0,95	83,984	0	1015,84	8	9,8	9,6	1	1	1	1	1	1	1	1	1	0	1	-17,124736	275,172334	307,964154	0
15.01.2021	15:53:33	0	18,79662	5,196794	2,688	324,1224	0,956	83,982	0	1015,94	8	9,8	9,7	1	1	1	1	1	1	1	1	1	0	1	-13,178295	275,264043	312,344194	0
15.01.2021	15:53:34	0	18,79662	3,728157	2,814	324,756	0,953	83,977	0	1016,06	8	9,8	9,6	1	1	1	1	1	1	1	1	1	0	1	-10,993658	275,128215	313,886795	0
15.01.2021	15:53:35	0	18,677655	3,615183	2,84325	338,8428	0,957	83,97	0	1016	8	9,8	9,6	1	1	1	1	1	1	1	1	1	0	1	-14,164905	275,21023	311,103104	0
15.01.2021	15:53:36	0	19,153518	4,857902	2,86425	349,074	0,955	83,974	0	1015,9	8	9,8	9,6	1	1	1	1	1	1	1	1	1	0	1	-13,742072	275,19759	311,466183	0
15.01.2021	15:53:37	0	18,558689	4,29303	2,84325	339,4548	0,956	83,981	0	1015,96	8	9,8	9,6	1	1	1	1	1	1	1	1	1	0	1	-9,654686	275,254536	315,822832	0
15.01.2021	15:53:38	0	19,034552	4,067081	2,81475	346,5144	0,957	83,983	0	1016,12	8	9,8	9,6	1	1	1	1	1	1	1	1	1	0	1	-11,980268	275,129789	312,907619	0
15.01.2021	15:53:39	0	18,677655	3,050311	2,80275	343,44	0,949	83,983	0	1015,94	8	9,8	9,6	1	1	1	1	1	1	1	1	1	0	1	-11,06413	275,262458	314,450862	0
15.01.2021	15:53:40	0	18,677655	4,180055	2,8095	331,0956	0,953	83,989	0	1015,96	8	9,8	9,6	1	1	1	1	1	1	1	1	1	0	1	-9,231853	275,264043	316,290635	0
15.01.2021	15:53:41	0	18,79662	4,857902	2,69625	336,114	0,95	83,973	0	1015,82	8	9,8	9,6	1	1	1	1	1	1	1	1	1	0	1	-12,544045	275,241867	312,873554	0
15.01.2021	15:53:42	0	18,79662	2,598413	2,61375	334,2312	0,952	83,966	0	1015,92	8,1	9,8	9,6	1	1	1	1	1	1	1	1	1	0	1	-13,178295	275,128215	311,702158	0
15.01.2021	15:53:43	0	18,79662	2,598413	2,5095	340,1748	0,948	83,987	0	1015,96	8	9,8	9,6	1	1	1	1	1	1	1	1	1	0	1	-12,614517	275,096763	312,117402	0
15.01.2021	15:53:44	0	18,79662	3,615183	2,46525	344,286	0,949	83,987	0	1015,9	8	9,8	9,6	1	1	1	1	1	1	1	1	1	0	1	-13,178295	275,114055	311,635282	0
15.01.2021	15:53:45	0	18,558689	2,485438	2,51325	350,6796	0,955	83,974	0	1015,9	8	9,8	9,6	1	1	1	1	1	1	1	1	1	0	1	-11,346018	275,262458	314,168973	0
15.01.2021	15:53:46	0	18,558689	4,518979	2,62575	343,152	0,95	83,978	0	1015,98	8,1	9,8	9,6	1	1	1	1	1	1	1	1	1	0	1	-9,866103	275,245033	315,566471	0
15.01.2021	15:53:47	0	18,439723	2,485438	2,84775	325,1412	0,955	83,971	0	1015,96	8	9,8	9,6	1	1	1	1	1	1	1	1	1	0	1	-9,372798	275,085767	315,307204	0
15.01.2021	15:53:48	0	18,79662	3,841132	2,853	330,7068	0,956	83,984	0	1015,9	8	9,8	9,6	1	1	1	1	1	1	1	1	1	0	1	-11,346018	275,103049	313,415584	0
15.01.2021	15:53:49	0	18,201791	3,954106	2,78775	319,1688	0,952	83,994	0	1015,92	8,1	9,8	9,6	1	1	1	1	1	1	1	1	1	0	1	-14,65821	275,257704	310,834295	0
15.01.2021	15:53:50	0	18,79662	4,631953	2,70375	326,7684	0,95	83,997	0	1015,98	8	9,8	9,6	1	1	1	1	1	1	1	1	1	0	1	-11,909796	275,169179	313,164186	0
15.01.2021	15:53:51	0	18,439723	4,29303	2,64225	325,1628	0,954	83,983	0	1015,9	8	9,8	9,6	1	1	1	1	1	1	1	1	1	0	1	-9,090909	275,259289	316,409091	0
15.01.2021	15:53:52	0	18,439723	4,406004	2,52375	339,0768	0,956	83,978	0	1015,8	8,1	9,8	9,6	1	1	1	1	1	1	1	1	1	0	1	-16,138125	275,129789	308,749761	0
15.01.2021	15:53:53	0	18,320757	3,615183	2,457	321,7608	0,955	83,99	0	1015,88	8,1	9,8	9,6	1	1	1	1	1	1	1	1	1	0	1	-10,993658	275,235535	314,394	0
15.01.2021	15:53:54	0	18,558689	3,728157	2,5335	328,14	0,953	83,987	0	1015,98	8	9,8	9,6	1	1	1	1	1	1	1	1	1	0	1	-14,65821	275,123494	310,199944	0
15.01.2021	15:53:55	0	18,439723	3,728157	2,57475	326,3832	0,949	83,991	0	1015,94	8,1	9,8	9,6	1	1	1	1	1	1	1	1	1	0	1	-11,486963	275,095192	313,237538	0
15.01.2021	15:53:56	0	18,677655	3,954106	2,56875	337,1148	0,949	83,976	0	1016,02	8,2	9,8	9,6	1	1	1	1	1	1	1	1	1	0	1	-13,6716	275,249784	311,783443	0
15.01.2021	15:53:57	0	18,677655	4,406004	2,616	341,262	0,952	83,993	0	1015,92	8,1	9,8	9,6	1	1	1	1	1	1	1	1	1	0	1	-10,923185	275,194431	314,270139	0
15.01.2021	15:53:58	0	18,320757	3,276259	2,49825	339,9084	0,945	83,98	0	1016	8	9,8	9,6	1	1	1	1	1	1	1	1	1	0	1	-14,587738	275,076347	310,047792	0
15.01.2021	15:53:59	0	18,201791	3,615183	2,355	354,294	0,946	83,987	0	1015,94	8	9,8	9,6	1	1	1	1	1	1	1	1	1	0	1	-7,470049	275,153413	317,52944	0
15.01.2021	15:54:00	0	18,320757	3,050311	2,3475	352,8324	0,952	83,995	0	1016,04	8	9,8	9,6	1	1	1	1	1	1	1	1	1	0	1	-12,332629	275,060656	312,228839	0
15.01.2021	15:54:01	0	18,320757	3,050311	2,3475	352,8324	0,952	83,995	0	1016,04	8	9,8	9,6	1	1	1	1	1	1	1	1	1	0	1	-13,460183	275,125068	311,405403	0
15.01.2021	15:54:02	0	18,320757	3,502208	2,37975	350,2656	0,947	83,999	0	1015,9	8,1	9,8	9,6	1	1	1	1	1	1	1	1	1	0	1	-12,121212	275,216553	313,176691	0
15.01.2021	15:54:03	0	18,677655	4,180055	2,424	342,792	0,945	84,01	0	1015,96	8,1	9,8	9,6	1	1	1	1	1	1	1	1	1	0	1	-12,544045	275,0685	312,054444	0
15.01.2021	15:54:04	0	18,558689	3,615183	2,59725	350,2224	0,948	83,998	0	1015,88	8,1	9,8	9,6	1	1	1	1	1	1	1	1	1	0	1	-13,389711	275,194431	311,803613	0
15.01.2021	15:54:05	0	18,320757	4,744927	2,835	341,3088	0,951	84,006	0	1016,1	8	9,8	9,6	1	1	1	1	1	1	1	1	1	0	1	-11,980268	275,074777	312,647852	0
15.01.2021	15:54:06	0	18,439723	3,728157	2,8305	343,4328	0,95	84,002	0	1015,94	8	9,8	9,6	1	1	1	1	1	1	1	1	1	0	1	-9,302326	275,189694	315,868608	0
15.01.2021	15:54:07	0	18,082825	3,050311	2,69025	348,9912	0,949	84,011	0	1016,02	8	9,8	9,6	1	1	1	1	1	1	1	1	1	0	1	-13,03735	275,082626	311,627825	0
15.01.2021	15:54:08	0	18,082825	2,146515	2,694	343,116	0,945	84,011	0	1015,92	8,1	9,8	9,6	1	1	1	1	1	1	1	1	1	0	1	-9,725159	275,103049	315,036444	0
15.01.2021	15:54:09	0	18,558689	4,29303	2,84325	350,3052	0,946	84,01	0	1015,98	8,1	9,8	9,6	1	1	1	1	1	1	1	1	1	0	1	-10,500352	275,237118	314,894789	0
15.01.2021	15:54:10	0	18,201791	4,631953	2,85525	336,4092	0,949	84,011	0	1016	8	9,8	9,6	1	1	1	1	1	1	1	1	1	0	1	-12,262156	275,194431	312,931168	0
15.01.2021	15:54:11	0	18,201791	2,824362	2,949	341,334	0,948	84,011	0	1015,96	8,1	9,8	9,6	1	1	1	1	1	1	1	1	1	0	1	-10,218464	275,077916	314,424476	0
15.01.2021	15:54:12	0	18,201791	2,937336	3,08175	348,0156	0,947	84,009	0	1015,94	8	9,8	9,6	1	1	1	1	1	1	1	1	1	0	1	-11,134602	275,107765	313,649271	0
15.01.2021	15:54:13	0	18,79662	4,631953	3,15975	334,5984	0,946	84,009	0	1015,98	8,1	9,8	9,6	1	1	1	1	1	1	1	1	1	0	1	-11,205074	275,084197	313,467514	0
15.01.2021	15:54:14	0	18,201791	2,824362	3,31875	346,1076	0,946	84,008	0	1015,76	8,1	9,8	9,6	1	1	1	1	1	1	1	1	1	0	1	-10,147992	275,121921	314,702731	0
15.01.2021	15:54:15	0	17,963859	2,937336	3,23325	343,944	0,949	84,01	0	1016,12	8,1	9,8	9,6	1	1	1	1	1	1	1	1	1	0	1	-8,174771	275,240284	317,235341	0
15.01.2021	15:54:16	0	17,963859	3,050311	3,339	350,154	0,948	84,008	0	1015,98	8	9,8	9,6	1	1	1	1	1	1	1	1	1	0	1	-17,829457	275,183379	307,311631	0
15.01.2021	15:54:17	0	18,320757	3,615183	3,21	343,8684	0,951	84,02	0	1015,94	8,1	9,8	9,6	1	1	1	1	1	1	1	1	1	0	1	-10,570825	275,218134	314,734554	0
15.01.2021	15:54:18	0	17,963859	2,711387	2,94525	340,8876	0,946	84,005	0	1016,1	8,1	9,8	9,6	1	1	1	1	1	1	1	1	1	0	1	-11,486963	275,107765	313,29691	0
15.01.2021	15:54:19	0	17,963859	4,631953	2,74725	346,4676	0,949	84,004	0	1015,84	8,1	9,8	9,6	1	1	1	1	1	1	1	1	1	0	1	-11,134602	275,238701	314,268025	0
15.01.2021	15:54:20	0	18,201791	2,372464	2,769	339,8364	0,942	83,997	0	1015,96	8,1	9,8	9,6	1	1	1	1	1	1	1	1	1	0	1	-7,892882	275,19601	317,307907	0
15.01.2021	15:54:21	0	18,320757	4,631953	2,706	346,3704	0,947	84,002	0	1015,98	8,1	9,8	9,6	1	1	1	1	1	1	1	1	1	0	1	-10,711769	275,052816	313,812695	0
15.01.2021	15:54:22	0	18,082825	3,502208	2,64375	339,7896	0,941	84,007	0	1016	8,1	9,8	9,6	1	1	1	1	1	1	1	1	1	0	1	-9,866103	275,145535	315,096167	0
15.01.2021	15:54:23	0	18,082825	3,615183	2,64	348,6888	0,944	84,007	0	1016	8,1	9,8	9,6	1	1	1	1	1	1	1	1	1	0	1	-12,262156	275,074777	312,365964	0
15.01.2021	15:54:24	0	18,320757	4,631953	2,6205	343,1232	0,948	84,005	0	1015,96	8,1	9,8	9,6	1	1	1	1	1	1	1	1	1	0	1	-8,949965	275,205489	316,295631	0
15.01.2021	15:54:25	0	17,963859	3,276259	2,54025	342,72	0,941	83,99	0	1015,86	8,1	9,8	9,6	1	1	1	1	1	1	1	1	1	0	1	-10,42988	275,096763	314,302039	0
15.01.2021	15:54:26	0	18,082825	3,502208	2,3295	328,5504	0,94	83,998	0	1015,78	8,1	9,8	9,6	1	1	1	1	1	1	1	1	1	0	1	-10,852713	275,112483	313,953436	0
15.01.2021	15:54:27	0	17,725927	3,615183	2,1975	328,8636	0,942	83,999	0	1015,9	8,1	9,8	9,6	1	1	1	1	1	1	1	1	1	0	1	-12,825934	275,054384	311,705929	0
15.01.2021	15:54:28	0	17,725927	3,389234	2,22	334,2348	0,943	84,002	0	1015,96	8,1	9,8	9,6	1	1	1	1	1	1	1	1	1	0	1	-9,090909	275,073207	315,529802	0
15.01.2021	15:54:29	0	18,082825	2,937336	2,319	340,2036	0,942	83,989	0	1015,76	8,1	9,8	9,6	1	1	1	1	1	1	1	1	1	0	1	-10,218464	275,19601	314,982326	0
15.01.2021	15:54:30	0	18,082825	3,841132	2,38575	342,7416	0,945	84,004	0	1015,82	8,1	9,8	9,6	1	1	1	1	1	1	1	1	1	0	1	-6,412967	275,054384	318,118896	0
15.01.2021	15:54:31	0	17,963859	3,276259	2,56425	340,1712	0,945	83,98	0	1015,9	8,1	9,8	9,6	1	1	1	1	1	1	1	1	1	0	1	-9,231853	275,202329	315,998804	0
15.01.2021	15:54:32	0	17,725927	3,050311	2,5965	334,5372	0,948	84,003	0	1016,02	8,1	9,8	9,6	1	1	1	1	1	1	1	1	1	0	1	-10,993658	275,238701	314,408969	0
15.01.2021	15:54:33	0	17,606961	3,728157	2,54325	350,19	0,944	83,991	0	1016,02	8,1	9,8	9,6	1	1	1	1	1	1	1	1	1	0	1	-13,6716	275,131363	311,223722	0
15.01.2021	15:54:34	0	17,844893	4,29303	2,45175	345,3984	0,942	83,992	0	1016	8,1	9,8	9,6	1	1	1	1	1	1	1	1	1	0	1	-11,909796	275,229206	313,447932	0
15.01.2021	15:54:35	0	17,844893	4,857902	2,2845	334,6164	0,945	83,985	0	1015,94	8,1	9,8	9,6	1	1	1	1	1	1	1	1	1	0	1	-11,839323	275,173911	313,257021	0
15.01.2021	15:54:36	0	17,606961	3,389234	2,208	341,2584	0,936	83,986	0	1015,84	8,1	9,8	9,6	1	1	1	1	1	1	1	1	1	0	1	-12,684989	275,073207	311,935722	0
15.01.2021	15:54:37	0	18,082825	4,518979	2,2365	329,6628	0,941	83,977	0	1016,12	8,1	9,8	9,6	1	1	1	1	1	1	1	1	1	0	1	-10,711769	275,183379	314,42932	0
15.01.2021	15:54:38	0	17,963859	4,970876	2,25525	340,8732	0,944	83,972	0	1015,86	8,1	9,8	9,6	1	1	1	1	1	1	1	1	1	0	1	-12,473573	275,213391	312,809381	0
15.01.2021	15:54:39	0	18,082825	4,518979	2,30775	319,5108	0,942	83,97	0	1015,78	8,1	9,8	9,6	1	1	1	1	1	1	1	1	1	0	1	-13,742072	275,184957	311,406477	0
15.01.2021	15:54:40	0	17,725927	3,841132	2,286	357,1956	0,944	83,971	0	1015,9	8,1	9,8	9,6	1	1	1	1	1	1	1	1	1	0	1	-11,698379	275,177067	313,412877	0
15.01.2021	15:54:41	0	18,201791	4,29303	2,4015	332,4204	0,937	83,976	0	1015,96	8,1	9,8	9,6	1	1	1	1	1	1	1	1	1	0	1	-10,782241	275,237118	314,612901	0
15.01.2021	15:54:42	0	17,725927	3,502208	2,49675	340,956	0,945	83,984	0	1016	8,1	9,8	9,6	1	1	1	1	1	1	1	1	1	0	1	-7,681466	275,166025	317,377612	0
15.01.2021	15:54:43	0	17,844893	4,29303	2,55	329,31	0,943	83,981	0	1015,94	8,1	9,8	9,6	1	1	1	1	1	1	1	1	1	0	1	-11,627907	275,219715	313,684948	0
15.01.2021	15:54:44	0	18,201791	4,857902	2,7015	322,5996	0,933	83,974	0	1015,94	8,1	9,8	9,6	1	1	1	1	1	1	1	1	1	0	1	-14,023961	275,207069	311,229105	0
15.01.2021	15:54:45	0	17,725927	3,163285	2,86725	335,2536	0,94	83,97	0	1015,92	8,1	9,8	9,6	1	1	1	1	1	1	1	1	1	0	1	-10,641297	275,178645	314,477417	0
15.01.2021	15:54:46	0	17,487995	3,728157	3,04275	339,1272	0,939	83,988	0	1016	8,1	9,8	9,6	1	1	1	1	1	1	1	1	1	0	1	-12,403101	275,044979	312,084377	0
15.01.2021	15:54:47	0	17,844893	4,744927	3,1125	340,9128	0,939	83,976	0	1015,94	8,1	9,8	9,6	1	1	1	1	1	1	1	1	1	0	1	-17,124736	275,148686	307,852419	0
15.01.2021	15:54:48	0	17,487995	4,744927	3	349,0776	0,937	83,966	0	1016,2	8,1	9,8	9,6	1	1	1	1	1	1	1	1	1	0	1	-12,121212	275,060656	312,440255	0
15.01.2021	15:54:49	0	17,725927	4,29303	2,75775	329,6016	0,934	83,969	0	1015,72	8,1	9,8	9,6	1	1	1	1	1	1	1	1	1	0	1	-13,883016	275,183379	311,258073	0
15.01.2021	15:54:50	0	17,963859	4,29303	2,52975	343,0224	0,941	83,974	0	1016,08	8,1	9,8	9,6	1	1	1	1	1	1	1	1	1	0	1	-14,023961	275,164448	311,027666	0
15.01.2021	15:54:51	0	17,845018	3,954106	2,3085	346,3308	0,943	83,98	0	1016	8,1	9,7	9,6	1	1	1	1	1	1	1	1	1	0	1	-11,41649	275,22446	313,918797	0
15.01.2021	15:54:52	0	17,487995	2,937336	2,193	335,6244	0,932	83,983	0	1015,9	8,1	9,8	9,6	1	1	1	1	1	1	1	1	1	0	1	-12,684989	275,164448	312,366637	0
15.01.2021	15:54:53	0	17,369029	2,485438	2,2425	329,0112	0,937	83,973	0	1016,04	8,1	9,8	9,6	1	1	1	1	1	1	1	1	1	0	1	-8,949965	275,046546	315,544909	0
15.01.2021	15:54:54	0	17,606961	2,824362	2,262	338,6952	0,933	83,958	0	1015,78	8,1	9,8	9,6	1	1	1	1	1	1	1	1	1	0	1	-14,446794	275,118774	310,389068	0
15.01.2021	15:54:55	0	17,369029	2,485438	2,4555	327,8088	0,944	83,972	0	1016,04	8,1	9,8	9,6	1	1	1	1	1	1	1	1	1	0	1	-12,966878	275,245033	312,465696	0
15.01.2021	15:54:56	0	17,725927	3,615183	2,51775	339,8364	0,941	83,961	0	1015,82	8,1	9,8	9,6	1	1	1	1	1	1	1	1	1	0	1	-10,007047	275,219715	315,305807	0
15.01.2021	15:54:57	0	17,369029	5,083851	2,481	346,464	0,942	83,97	0	1016,02	8,1	9,8	9,6	1	1	1	1	1	1	1	1	1	0	1	-11,486963	275,085767	313,193039	0
15.01.2021	15:54:58	0	17,250063	2,711387	2,39325	337,1364	0,937	83,981	0	1015,94	8,1	9,8	9,6	1	1	1	1	1	1	1	1	1	0	1	-8,033827	275,077916	316,609113	0
15.01.2021	15:54:59	0	17,606961	4,857902	2,19225	349,506	0,936	83,973	0	1015,96	8,1	9,8	9,6	1	1	1	1	1	1	1	1	1	0	1	-12,191684	275,148686	312,785471	0
15.01.2021	15:55:00	0	17,606961	4,067081	2,3895	341,8056	0,938	83,965	0	1015,96	8,1	9,8	9,6	1	1	1	1	1	1	1	1	1	0	1	-15,010571	275,216553	310,287332	0
15.01.2021	15:55:01	0	17,606961	4,067081	2,3895	341,8056	0,938	83,965	0	1015,96	8,1	9,8	9,6	1	1	1	1	1	1	1	1	1	0	1	-10,923185	275,081056	313,734577	0
15.01.2021	15:55:02	0	16,893165	2,372464	2,4255	338,3856	0,942	83,971	0	1015,92	8,1	9,8	9,6	1	1	1	1	1	1	1	1	1	0	1	-15,574348	275,052816	308,950115	0
15.01.2021	15:55:03	0	17,487995	4,29303	2,355	336,7296	0,93	83,952	0	1016,04	8,1	9,8	9,6	1	1	1	1	1	1	1	1	1	0	1	-7,188161	275,093621	317,528922	0
15.01.2021	15:55:04	0	17,131217	2,824362	2,376	336,42	0,936	83,943	0	1015,92	8,1	9,7	9,6	1	1	1	1	1	1	1	1	1	0	1	-16,27907	275,214972	309,011359	0
15.01.2021	15:55:05	0	17,725927	4,518979	2,418	338,706	0,937	83,965	0	1015,98	8,1	9,8	9,6	1	1	1	1	1	1	1	1	1	0	1	-12,332629	275,175489	312,771171	0
15.01.2021	15:55:06	0	17,250063	2,485438	2,36025	343,0404	0,933	83,945	0	1016,02	8,1	9,8	9,6	1	1	1	1	1	1	1	1	1	0	1	-19,87315	275,214972	305,417278	0
15.01.2021	15:55:07	0	17,487995	2,711387	2,32425	350,9604	0,937	83,965	0	1015,96	8,1	9,8	9,6	1	1	1	1	1	1	1	1	1	0	1	-12,191684	275,199169	313,024037	0
15.01.2021	15:55:08	0	17,012131	3,276259	2,355	342,1476	0,935	83,956	0	1016,04	8,1	9,8	9,6	1	1	1	1	1	1	1	1	1	0	1	-12,121212	275,027748	312,28496	0
15.01.2021	15:55:09	0	17,369151	3,276259	2,29425	341,5716	0,935	83,947	0	1015,94	8,1	9,7	9,6	1	1	1	1	1	1	1	1	1	0	1	-14,65821	275,09205	310,051455	0
15.01.2021	15:55:10	0	17,012131	2,824362	2,241	345,0528	0,934	83,954	0	1015,96	8,1	9,8	9,6	1	1	1	1	1	1	1	1	1	0	1	-9,725159	275,024617	314,666241	0
15.01.2021	15:55:11	0	17,487995	4,067081	2,1375	347,958	0,936	83,967	0	1015,94	8,1	9,8	9,6	1	1	1	1	1	1	1	1	1	0	1	-12,403101	275,115628	312,417903	0
15.01.2021	15:55:12	0	17,131097	2,824362	2,013	339,4512	0,935	83,954	0	1016,04	8,1	9,8	9,6	1	1	1	1	1	1	1	1	1	0	1	-8,245243	275,040278	316,220052	0
15.01.2021	15:55:13	0	17,250184	2,824362	2,0475	353,2104	0,927	83,957	0	1015,94	8,1	9,7	9,6	1	1	1	1	1	1	1	1	1	0	1	-14,65821	275,123494	310,199944	0
15.01.2021	15:55:14	0	17,131097	2,598413	2,0475	353,5812	0,94	83,953	0	1016	8,1	9,8	9,6	1	1	1	1	1	1	1	1	1	0	1	-13,319239	275,073207	311,301473	0
15.01.2021	15:55:15	0	17,131097	3,276259	1,96425	340,9632	0,938	83,964	0	1016,02	8,1	9,8	9,6	1	1	1	1	1	1	1	1	1	0	1	-14,235377	275,194431	310,957947	0
15.01.2021	15:55:16	0	17,250063	4,180055	2,028	358,3044	0,936	83,968	0	1015,98	8,1	9,8	9,6	1	1	1	1	1	1	1	1	1	0	1	-10,42988	275,169179	314,644102	0
15.01.2021	15:55:17	0	17,131097	4,518979	2,03025	351,0972	0,931	83,96	0	1016,06	8,1	9,8	9,6	1	1	1	1	1	1	1	1	1	0	1	-9,584214	275,05752	314,962449	0
15.01.2021	15:55:18	0	17,250063	4,857902	2,10375	345,4056	0,93	83,956	0	1016,1	8,1	9,8	9,6	1	1	1	1	1	1	1	1	1	0	1	-16,701903	275,184957	308,446646	0
15.01.2021	15:55:19	0	16,893165	2,824362	2,325	342,7992	0,933	83,969	0	1016	8,1	9,8	9,6	1	1	1	1	1	1	1	1	1	0	1	-12,896406	275,21181	312,379075	0
15.01.2021	15:55:20	0	17,369029	4,631953	2,61375	340,1352	0,934	83,956	0	1015,96	8,1	9,8	9,6	1	1	1	1	1	1	1	1	1	0	1	-11,346018	275,151838	313,646025	0
15.01.2021	15:55:21	0	16,774199	2,485438	2,81625	344,3184	0,932	83,965	0	1015,86	8,1	9,8	9,6	1	1	1	1	1	1	1	1	1	0	1	-8,386187	275,082626	316,278988	0
15.01.2021	15:55:22	0	17,131097	3,615183	3,297	343,4724	0,93	83,978	0	1016,02	8,1	9,8	9,6	1	1	1	1	1	1	1	1	1	0	1	-10,500352	275,038711	313,95755	0
15.01.2021	15:55:23	0	17,012012	3,050311	3,62325	339,084	0,934	83,973	0	1015,96	8,1	9,9	9,6	1	1	1	1	1	1	1	1	1	0	1	-15,151515	275,103049	309,610088	0
15.01.2021	15:55:24	0	17,131217	4,970876	3,7455	334,6164	0,928	83,979	0	1016,06	8,1	9,7	9,6	1	1	1	1	1	1	1	1	1	0	1	-10,359408	275,221297	314,960924	0
15.01.2021	15:55:25	0	16,774317	2,824379	3,423	335,412	0,932	83,973	0	1015,88	8,1	9,7	9,5	1	1	1	1	1	1	1	1	1	0	1	-12,825934	275,087337	311,861483	0
15.01.2021	15:55:26	0	17,012012	3,615183	3,20325	353,9844	0,933	83,982	0	1016	8,1	9,9	9,6	1	1	1	1	1	1	1	1	1	0	1	-11,346018	275,032446	313,08232	0
15.01.2021	15:55:27	0	17,250063	2,937336	2,88375	355,3632	0,93	83,963	0	1015,88	8,1	9,8	9,6	1	1	1	1	1	1	1	1	1	0	1	-17,406624	275,09205	307,30304	0
15.01.2021	15:55:28	0	16,655233	3,389254	2,94375	360	0,936	83,979	0	1016	8,1	9,8	9,5	1	1	1	1	1	1	1	1	1	0	1	-11,980268	275,077916	312,662672	0
15.01.2021	15:55:29	0	17,131217	4,406004	2,86275	352,7532	0,928	83,974	0	1015,96	8	9,7	9,6	1	1	1	1	1	1	1	1	1	0	1	-12,332629	275,077916	312,310311	0
15.01.2021	15:55:30	0	16,893165	2,598413	2,7315	323,7048	0,929	83,986	0	1016	8,1	9,8	9,6	1	1	1	1	1	1	1	1	1	0	1	-11,698379	275,166025	313,360698	0
15.01.2021	15:55:31	0	17,131217	4,180055	2,75325	330,7464	0,939	83,984	0	1015,9	8,1	9,7	9,6	1	1	1	1	1	1	1	1	1	0	1	-11,275546	275,173911	313,820798	0
15.01.2021	15:55:32	0	17,250184	4,406031	2,94825	339,1524	0,935	83,979	0	1015,94	8,1	9,7	9,5	1	1	1	1	1	1	1	1	1	0	1	-17,758985	275,121921	307,091737	0
15.01.2021	15:55:33	0	16,893165	3,954106	3,16125	352,1412	0,934	83,975	0	1016,04	8,1	9,8	9,6	1	1	1	1	1	1	1	1	1	0	1	-13,953488	275,038711	310,504414	0
15.01.2021	15:55:34	0	17,01225	2,598413	3,069	360	0,937	83,962	0	1016,04	8,1	9,7	9,6	1	1	1	1	1	1	1	1	1	0	1	-6,20155	275,115628	318,619454	0
15.01.2021	15:55:35	0	16,417416	2,711403	2,75775	13,5252	0,934	83,953	0	1016	8,1	9,7	9,5	1	1	1	1	1	1	1	1	1	0	1	-14,094433	275,044979	310,393045	0
15.01.2021	15:55:36	0	17,250063	4,518979	2,38125	7,1064	0,933	83,939	0	1016,08	8,1	9,8	9,6	1	1	1	1	1	1	1	1	1	0	1	-8,949965	275,181801	316,183665	0
15.01.2021	15:55:37	0	16,655233	4,518979	1,98375	2,628	0,931	83,934	0	1016,16	8,1	9,8	9,6	1	1	1	1	1	1	1	1	1	0	1	-13,460183	275,207069	311,792883	0
15.01.2021	15:55:38	0	16,774199	4,18008	1,76775	7,8696	0,932	83,923	0	1015,98	8,1	9,8	9,5	1	1	1	1	1	1	1	1	1	0	1	-11,980268	275,19601	313,220521	0
15.01.2021	15:55:39	0	16,655117	2,711387	1,76775	345,4272	0,93	83,923	0	1016	8,1	9,9	9,6	1	1	1	1	1	1	1	1	1	0	1	-10,42988	275,090479	314,272368	0
15.01.2021	15:55:40	0	16,774199	4,293055	1,851	356,6088	0,929	83,913	0	1016,06	8,1	9,8	9,5	1	1	1	1	1	1	1	1	1	0	1	-11,41649	275,194431	313,776834	0
15.01.2021	15:55:41	0	16,655233	3,502208	1,92825	346,8276	0,932	83,924	0	1016	8,1	9,8	9,6	1	1	1	1	1	1	1	1	1	0	1	-9,866103	275,015226	314,480994	0
15.01.2021	15:55:42	0	16,893165	2,598413	1,962	343,9044	0,93	83,916	0	1016,08	8	9,8	9,6	1	1	1	1	1	1	1	1	1	0	1	-11,698379	275,162871	313,345797	0
15.01.2021	15:55:43	0	16,774317	4,744956	2,01675	354,276	0,924	83,91	0	1015,86	8,1	9,7	9,5	1	1	1	1	1	1	1	1	1	0	1	-11,980268	275,222878	313,347541	0
15.01.2021	15:55:44	0	16,893165	4,406004	1,9935	339,5592	0,934	83,909	0	1016,02	8,1	9,8	9,6	1	1	1	1	1	1	1	1	1	0	1	-17,054264	275,14081	307,885684	0
15.01.2021	15:55:45	0	16,655233	2,372464	2,0625	351,0396	0,926	83,914	0	1015,98	8,1	9,8	9,6	1	1	1	1	1	1	1	1	1	0	1	-10,852713	275,024617	313,538686	0
15.01.2021	15:55:46	0	17,012131	4,29303	2,2275	341,2944	0,925	83,895	0	1015,92	8,1	9,8	9,6	1	1	1	1	1	1	1	1	1	0	1	-17,477097	275,22446	307,858191	0
15.01.2021	15:55:47	0	16,298335	3,276259	2,39925	347,94	0,931	83,901	0	1015,94	8,1	9,8	9,6	1	1	1	1	1	1	1	1	1	0	1	-11,41649	275,104621	313,352535	0
15.01.2021	15:55:48	0	16,774317	4,18008	2,39175	336,762	0,927	83,88	0	1016,1	8,1	9,7	9,5	1	1	1	1	1	1	1	1	1	0	1	-10,288936	275,21181	314,986545	0
15.01.2021	15:55:49	0	16,536383	4,067081	2,25225	337,2192	0,93	83,917	0	1016,02	8,1	9,7	9,6	1	1	1	1	1	1	1	1	1	0	1	-16,067653	275,126641	308,805365	0
15.01.2021	15:55:50	0	16,893284	4,406031	2,157	337,1256	0,926	83,897	0	1016,02	8	9,7	9,5	1	1	1	1	1	1	1	1	1	0	1	-9,725159	275,03088	314,69579	0
15.01.2021	15:55:51	0	16,417416	3,276279	2,11425	327,834	0,927	83,885	0	1016	8,1	9,7	9,5	1	1	1	1	1	1	1	1	1	0	1	-13,883016	275,131363	311,012305	0
15.01.2021	15:55:52	0	16,417416	2,598428	2,27925	338,4036	0,925	83,902	0	1016,02	8,1	9,7	9,5	1	1	1	1	1	1	1	1	1	0	1	-13,601128	275,22446	311,73416	0
15.01.2021	15:55:53	0	16,893284	3,615183	2,33025	351,792	0,922	83,906	0	1015,96	8,1	9,7	9,6	1	1	1	1	1	1	1	1	1	0	1	-15,503876	275,084197	309,168712	0
15.01.2021	15:55:54	0	16,893284	4,857931	2,274	351,0324	0,929	83,9	0	1016,02	8,1	9,7	9,5	1	1	1	1	1	1	1	1	1	0	1	-14,094433	275,207069	311,158633	0
15.01.2021	15:55:55	0	16,417301	2,711387	2,22	346,194	0,929	83,921	0	1016,02	8	9,8	9,6	1	1	1	1	1	1	1	1	1	0	1	-10,852713	275,037145	313,597797	0
15.01.2021	15:55:56	0	16,417301	3,163285	2,244	354,636	0,921	83,9	0	1016,04	8,1	9,8	9,6	1	1	1	1	1	1	1	1	1	0	1	-11,205074	275,046546	313,289799	0
15.01.2021	15:55:57	0	16,417301	3,615205	2,36175	340,1604	0,928	83,904	0	1015,76	8,1	9,8	9,5	1	1	1	1	1	1	1	1	1	0	1	-11,839323	275,084197	312,833265	0
15.01.2021	15:55:58	0	16,536267	2,824379	2,418	338,7708	0,922	83,897	0	1015,86	8	9,8	9,5	1	1	1	1	1	1	1	1	1	0	1	-11,980268	275,023051	312,403746	0
15.01.2021	15:55:59	0	16,417301	4,067081	2,54175	334,998	0,929	83,91	0	1016,08	8,1	9,8	9,6	1	1	1	1	1	1	1	1	1	0	1	-10,641297	275,03088	313,779652	0
15.01.2021	15:56:00	0	16,774199	2,711387	2,18625	333,882	0,923	83,91	0	1016,08	8,1	9,8	9,6	1	1	1	1	1	1	1	1	1	0	1	-10,570825	275,043412	313,909258	0
15.01.2021	15:56:01	0	16,774199	2,711387	2,18625	333,882	0,923	83,91	0	1016,08	8,1	9,8	9,6	1	1	1	1	1	1	1	1	1	0	1	-7,751938	275,161295	317,284788	0
15.01.2021	15:56:02	0	16,655233	4,180055	1,95675	332,0676	0,923	83,909	0	1016,1	8	9,8	9,6	1	1	1	1	1	1	1	1	1	0	1	-14,164905	275,205489	311,080691	0
15.01.2021	15:56:03	0	16,417301	3,502229	1,989	337,9932	0,92	83,886	0	1016,14	8	9,8	9,5	1	1	1	1	1	1	1	1	1	0	1	-11,839323	275,145535	313,122946	0
15.01.2021	15:56:04	0	16,536267	4,067081	2,22075	347,6016	0,929	83,932	0	1016,04	8,1	9,8	9,6	1	1	1	1	1	1	1	1	1	0	1	-11,06413	275,199169	314,151592	0
15.01.2021	15:56:05	0	16,655233	4,067081	2,304	349,9236	0,916	83,907	0	1016,02	8	9,8	9,6	1	1	1	1	1	1	1	1	1	0	1	-6,906272	275,129789	317,981614	0
15.01.2021	15:56:06	0	16,417416	4,519006	2,40975	338,0796	0,927	83,913	0	1016,12	8	9,7	9,5	1	1	1	1	1	1	1	1	1	0	1	-12,191684	275,19759	313,016571	0
15.01.2021	15:56:07	0	16,298335	2,711387	2,508	349,1568	0,929	83,914	0	1016,04	8,1	9,8	9,6	1	1	1	1	1	1	1	1	1	0	1	-12,262156	275,136086	312,655475	0
15.01.2021	15:56:08	0	16,536267	3,163304	2,69025	346,8564	0,915	83,916	0	1015,94	8	9,8	9,5	1	1	1	1	1	1	1	1	1	0	1	-9,866103	275,188115	315,297368	0
15.01.2021	15:56:09	0	16,17937	2,711387	2,77425	345,8628	0,926	83,911	0	1016,02	8	9,8	9,6	1	1	1	1	1	1	1	1	1	0	1	-6,765328	275,093621	317,951755	0
15.01.2021	15:56:10	0	16,417301	2,485453	2,862	338,742	0,924	83,901	0	1015,9	8,1	9,8	9,5	1	1	1	1	1	1	1	1	1	0	1	-11,627907	275,207069	313,625159	0
15.01.2021	15:56:11	0	16,417301	2,033553	3,033	342,1908	0,923	83,905	0	1016,06	8	9,8	9,5	1	1	1	1	1	1	1	1	1	0	1	-11,627907	275,066931	312,963177	0
15.01.2021	15:56:12	0	16,893165	4,857902	3,08925	343,1664	0,923	83,911	0	1016	8	9,8	9,6	1	1	1	1	1	1	1	1	1	0	1	-7,751938	275,023051	316,632076	0
15.01.2021	15:56:13	0	16,417301	5,083851	3,16875	343,9908	0,921	83,912	0	1016,06	8	9,8	9,6	1	1	1	1	1	1	1	1	1	0	1	-10,852713	275,167602	314,213816	0
15.01.2021	15:56:14	0	16,774199	3,502229	3,23025	348,0336	0,923	83,912	0	1015,96	8	9,8	9,5	1	1	1	1	1	1	1	1	1	0	1	-10,147992	275,14396	314,806837	0
15.01.2021	15:56:15	0	16,060404	3,841155	3,29925	343,5228	0,928	83,915	0	1016,04	8	9,8	9,5	1	1	1	1	1	1	1	1	1	0	1	-11,557435	275,194431	313,635889	0
15.01.2021	15:56:16	0	16,060404	3,72818	3,522	346,8564	0,923	83,912	0	1016,02	8	9,8	9,5	1	1	1	1	1	1	1	1	1	0	1	-9,725159	275,085767	314,954843	0
15.01.2021	15:56:17	0	16,17937	4,293055	3,7245	331,9164	0,921	83,912	0	1015,96	8	9,8	9,5	1	1	1	1	1	1	1	1	1	0	1	-8,80902	275,188115	316,35445	0
15.01.2021	15:56:18	0	16,298335	3,95413	3,90825	334,3068	0,919	83,902	0	1016	8,1	9,8	9,5	1	1	1	1	1	1	1	1	1	0	1	-13,6716	275,115628	311,149404	0
15.01.2021	15:56:19	0	16,17937	4,29303	4,026	332,7588	0,924	83,908	0	1016,02	8	9,8	9,6	1	1	1	1	1	1	1	1	1	0	1	-12,403101	275,188115	312,76037	0
15.01.2021	15:56:20	0	16,536267	4,744956	4,164	331,1136	0,924	83,9	0	1015,98	8	9,8	9,5	1	1	1	1	1	1	1	1	1	0	1	-9,302326	275,156565	315,712056	0
15.01.2021	15:56:21	0	16,298335	2,598428	4,2285	331,5708	0,92	83,901	0	1016,02	8	9,8	9,5	1	1	1	1	1	1	1	1	1	0	1	-12,403101	275,125068	312,462485	0
15.01.2021	15:56:22	0	16,060404	4,293055	4,0785	330,2352	0,92	83,913	0	1016,06	8	9,8	9,5	1	1	1	1	1	1	1	1	1	0	1	-8,879493	275,203909	316,358633	0
15.01.2021	15:56:23	0	16,417301	4,631981	4,06275	328,176	0,923	83,89	0	1015,96	8	9,8	9,5	1	1	1	1	1	1	1	1	1	0	1	-12,755462	275,070069	311,850434	0
15.01.2021	15:56:24	0	15,941438	4,067105	3,93075	332,7336	0,926	83,88	0	1015,98	8	9,8	9,5	1	1	1	1	1	1	1	1	1	0	1	-15,856237	275,191272	309,322159	0
15.01.2021	15:56:25	0	16,17937	3,615205	3,79725	331,4772	0,915	83,863	0	1016,04	8	9,8	9,5	1	1	1	1	1	1	1	1	1	0	1	-11,980268	275,096763	312,751652	0
15.01.2021	15:56:26	0	15,941438	3,389254	3,6405	333,5148	0,918	83,871	0	1016,04	8	9,8	9,5	1	1	1	1	1	1	1	1	1	0	1	-14,235377	275,046546	310,259496	0
15.01.2021	15:56:27	0	16,298335	2,711403	3,486	340,8912	0,919	83,878	0	1015,98	8	9,8	9,5	1	1	1	1	1	1	1	1	1	0	1	-8,597604	275,139235	316,334904	0
15.01.2021	15:56:28	0	16,298335	4,18008	3,2355	336,0276	0,919	83,879	0	1016	8,1	9,8	9,5	1	1	1	1	1	1	1	1	1	0	1	-10,218464	275,19601	314,982326	0
15.01.2021	15:56:29	0	16,17937	4,406031	3,144	337,4244	0,921	83,871	0	1015,94	8	9,8	9,5	1	1	1	1	1	1	1	1	1	0	1	-10,782241	275,087337	313,905176	0
15.01.2021	15:56:30	0	16,060404	4,067105	3,28125	342,0216	0,916	83,858	0	1015,96	8	9,8	9,5	1	1	1	1	1	1	1	1	1	0	1	-9,231853	275,00584	315,070966	0
15.01.2021	15:56:31	0	16,417301	3,95413	3,40425	339,138	0,92	83,861	0	1016,08	8	9,8	9,5	1	1	1	1	1	1	1	1	1	0	1	-10,007047	275,077916	314,635893	0
15.01.2021	15:56:32	0	16,298335	3,72818	3,357	326,79	0,918	83,863	0	1016,02	8	9,8	9,5	1	1	1	1	1	1	1	1	1	0	1	-12,191684	275,015226	312,155412	0
15.01.2021	15:56:33	0	16,298335	2,711403	3,3315	329,4252	0,913	83,832	0	1016,12	8	9,8	9,5	1	1	1	1	1	1	1	1	1	0	1	-17,829457	275,024617	306,561942	0
15.01.2021	15:56:34	0	15,822472	4,744956	3,47025	345,8268	0,92	83,855	0	1015,88	8	9,8	9,5	1	1	1	1	1	1	1	1	1	0	1	-13,883016	275,166025	311,176061	0
15.01.2021	15:56:35	0	16,17937	3,615205	3,447	352,7964	0,914	83,821	0	1016	8	9,8	9,5	1	1	1	1	1	1	1	1	1	0	1	-17,406624	275,055952	307,132638	0
15.01.2021	15:56:36	0	15,822472	3,276279	3,4905	330,2892	0,915	83,822	0	1016	8	9,8	9,5	1	1	1	1	1	1	1	1	1	0	1	-13,742072	275,032446	310,686266	0
15.01.2021	15:56:37	0	16,298335	3,276279	3,70425	352,7568	0,914	83,833	0	1015,88	8	9,8	9,5	1	1	1	1	1	1	1	1	1	0	1	-12,403101	275,161295	312,633626	0
15.01.2021	15:56:38	0	15,941438	2,711403	3,5565	353,2644	0,913	83,82	0	1016,12	8	9,8	9,5	1	1	1	1	1	1	1	1	1	0	1	-10,993658	275,077916	313,649282	0
15.01.2021	15:56:39	0	16,17937	3,163304	3,52575	349,4988	0,911	83,821	0	1016	8	9,8	9,5	1	1	1	1	1	1	1	1	1	0	1	-13,460183	275,040278	311,005112	0
15.01.2021	15:56:40	0	16,060404	4,519006	3,57	339,1956	0,916	83,802	0	1016,06	8	9,8	9,5	1	1	1	1	1	1	1	1	1	0	1	-11,839323	275,126641	313,033695	0
15.01.2021	15:56:41	0	15,941438	3,163304	3,54075	343,9044	0,906	83,801	0	1016,04	8	9,8	9,5	1	1	1	1	1	1	1	1	1	0	1	-11,06413	275,029314	313,349431	0
15.01.2021	15:56:42	0	16,17937	4,744956	3,7365	351,4392	0,912	83,799	0	1016,04	8	9,8	9,5	1	1	1	1	1	1	1	1	1	0	1	-11,839323	275,137661	313,085746	0
15.01.2021	15:56:43	0	15,822472	2,711403	3,6825	0,4824	0,914	83,797	0	1015,96	8	9,8	9,5	1	1	1	1	1	1	1	1	1	0	1	-10,641297	274,952738	313,411112	0
15.01.2021	15:56:44	0	15,703506	3,050329	3,531	349,8696	0,914	83,789	0	1016,16	8	9,8	9,5	1	1	1	1	1	1	1	1	1	0	1	-11,980268	275,136086	312,937363	0
15.01.2021	15:56:45	0	15,822472	4,18008	3,513	344,3472	0,913	83,773	0	1016,1	8	9,8	9,5	1	1	1	1	1	1	1	1	1	0	1	-10,711769	275,200749	314,51142	0
15.01.2021	15:56:46	0	15,822472	3,615205	3,4095	3,0312	0,911	83,773	0	1015,86	8	9,8	9,5	1	1	1	1	1	1	1	1	1	0	1	-12,121212	275,060656	312,440255	0
15.01.2021	15:56:47	0	15,822472	2,937354	3,26775	357,2604	0,91	83,779	0	1016,04	8	9,8	9,5	1	1	1	1	1	1	1	1	1	0	1	-11,980268	275,147111	312,989444	0
15.01.2021	15:56:48	0	15,822472	5,083881	3,027	352,8936	0,909	83,776	0	1015,88	8	9,8	9,5	1	1	1	1	1	1	1	1	1	0	1	-13,530655	275,189694	311,640278	0
15.01.2021	15:56:49	0	15,703506	2,598428	3,117	360	0,911	83,767	0	1016	8	9,8	9,5	1	1	1	1	1	1	1	1	1	0	1	-9,090909	275,059088	315,463156	0
15.01.2021	15:56:50	0	16,060404	4,29303	3,144	340,9632	0,909	83,769	0	1016	8	9,8	9,6	1	1	1	1	1	1	1	1	1	0	1	-10,923185	275,172334	314,165704	0
15.01.2021	15:56:51	0	16,060404	3,163285	3,06	340,578	0,915	83,767	0	1016,06	8	9,8	9,6	1	1	1	1	1	1	1	1	1	0	1	-10,42988	275,19759	314,778375	0
15.01.2021	15:56:52	0	15,941438	4,744927	2,93475	343,2024	0,908	83,755	0	1015,96	8	9,8	9,6	1	1	1	1	1	1	1	1	1	0	1	-8,033827	275,136086	316,883804	0
15.01.2021	15:56:53	0	15,941438	4,970876	2,8905	339,1056	0,902	83,752	0	1016,04	8	9,8	9,6	1	1	1	1	1	1	1	1	1	0	1	-10,711769	275,191272	314,466627	0
15.01.2021	15:56:54	0	15,941438	2,824379	2,919	348,714	0,908	83,757	0	1016,04	8	9,8	9,5	1	1	1	1	1	1	1	1	1	0	1	-11,06413	275,096763	313,66779	0
15.01.2021	15:56:55	0	15,703506	4,293055	3,06225	348,4116	0,903	83,754	0	1016,02	8	9,8	9,5	1	1	1	1	1	1	1	1	1	0	1	-12,825934	275,021486	311,550695	0
15.01.2021	15:56:56	0	15,941438	2,485438	3,02325	351,3852	0,905	83,742	0	1016	8	9,8	9,6	1	1	1	1	1	1	1	1	1	0	1	-10,007047	275,044979	314,48043	0
15.01.2021	15:56:57	0	15,58454	3,728157	3,02025	350,7552	0,908	83,744	0	1016,04	8	9,8	9,6	1	1	1	1	1	1	1	1	1	0	1	-15,715292	275,194431	309,478032	0
15.01.2021	15:56:58	0	15,822472	2,259489	3,30525	350,2944	0,907	83,735	0	1016,06	8	9,8	9,6	1	1	1	1	1	1	1	1	1	0	1	-12,544045	275,125068	312,321541	0
15.01.2021	15:56:59	0	15,703506	4,519006	3,52425	343,5588	0,901	83,732	0	1016,08	8	9,8	9,5	1	1	1	1	1	1	1	1	1	0	1	-13,6716	275,183379	311,469489	0
15.01.2021	15:57:00	0	15,941438	4,293055	3,50025	336,762	0,926	83,742	0	1016,16	8	9,8	9,5	1	1	1	1	1	1	1	1	1	0	1	-10,359408	275,131363	314,535913	0
15.01.2021	15:57:01	0	15,941438	3,389254	3,4755	335,7252	0,902	83,724	0	1016,04	8	9,8	9,5	1	1	1	1	1	1	1	1	1	0	1	-10,500352	275,180223	314,625819	0
15.01.2021	15:57:02	0	15,465574	3,389254	3,5505	340,9596	0,906	83,732	0	1016,1	8	9,8	9,5	1	1	1	1	1	1	1	1	1	0	1	-8,738548	275,158142	316,283281	0
15.01.2021	15:57:03	0	15,703506	4,293055	3,492	331,146	0,902	83,726	0	1016,14	8	9,8	9,5	1	1	1	1	1	1	1	1	1	0	1	-10,711769	275,03088	313,70918	0
15.01.2021	15:57:04	0	15,227642	2,824362	3,663	334,6524	0,909	83,72	0	1016,02	8	9,8	9,6	1	1	1	1	1	1	1	1	1	0	1	-9,090909	274,987081	315,123435	0
15.01.2021	15:57:05	0	15,941438	4,857931	3,7005	330,3756	0,902	83,735	0	1016,22	8	9,8	9,5	1	1	1	1	1	1	1	1	1	0	1	-9,725159	275,131363	315,170163	0
15.01.2021	15:57:06	0	15,822472	4,631981	3,60225	335,4768	0,899	83,716	0	1015,98	8	9,8	9,5	1	1	1	1	1	1	1	1	1	0	1	-12,825934	275,178645	312,29278	0
15.01.2021	15:57:07	0	15,703506	4,744956	3,6255	335,3364	0,904	83,717	0	1016,06	8	9,8	9,5	1	1	1	1	1	1	1	1	1	0	1	-6,20155	275,055952	318,337712	0
15.01.2021	15:57:08	0	16,060404	2,937354	3,58575	338,8032	0,907	83,716	0	1016,04	8	9,8	9,5	1	1	1	1	1	1	1	1	1	0	1	-10,147992	275,153413	314,851497	0
15.01.2021	15:57:09	0	15,941438	4,406004	3,38025	339,9228	0,902	83,712	0	1015,96	8	9,8	9,6	1	1	1	1	1	1	1	1	1	0	1	-11,06413	275,125068	313,801456	0
15.01.2021	15:57:10	0	15,703506	4,857931	3,441	340,9272	0,89	83,703	0	1016,04	8	9,8	9,5	1	1	1	1	1	1	1	1	1	0	1	-8,033827	275,142385	316,913561	0
15.01.2021	15:57:11	0	15,465574	3,502208	3,30525	339,7968	0,901	83,705	0	1016,02	8	9,8	9,6	1	1	1	1	1	1	1	1	1	0	1	-8,527132	275,153413	316,472357	0
15.01.2021	15:57:12	0	15,227642	2,598413	3,1485	346,59	0,904	83,704	0	1016,1	8	9,8	9,6	1	1	1	1	1	1	1	1	1	0	1	-9,302326	275,186536	315,853684	0
15.01.2021	15:57:13	0	16,060404	4,518979	3,06225	337,0572	0,897	83,696	0	1016,08	8	9,8	9,6	1	1	1	1	1	1	1	1	1	0	1	-13,812544	275,088908	310,882288	0
15.01.2021	15:57:14	0	15,58454	4,631953	3,0855	350,5824	0,9	83,704	0	1016,02	8	9,8	9,6	1	1	1	1	1	1	1	1	1	0	1	-10,218464	275,004276	314,076979	0
15.01.2021	15:57:15	0	15,58454	4,18008	3,078	354,2472	0,896	83,684	0	1015,94	8	9,8	9,5	1	1	1	1	1	1	1	1	1	0	1	-9,44327	275,139235	315,489238	0
15.01.2021	15:57:16	0	15,346608	3,728157	3,11325	352,152	0,899	83,685	0	1016,06	8	9,8	9,6	1	1	1	1	1	1	1	1	1	0	1	-6,624383	275,015226	317,722713	0
15.01.2021	15:57:17	0	15,346608	4,067105	2,99175	0	0,895	83,679	0	1016,08	8	9,8	9,5	1	1	1	1	1	1	1	1	1	0	1	-9,725159	275,104621	315,043867	0
15.01.2021	15:57:18	0	15,58454	4,631981	2,9655	359,9244	0,896	83,674	0	1015,9	8	9,8	9,5	1	1	1	1	1	1	1	1	1	0	1	-14,164905	275,181801	310,968725	0
15.01.2021	15:57:19	0	15,227642	3,841155	2,8755	359,5068	0,903	83,678	0	1016,14	8	9,8	9,5	1	1	1	1	1	1	1	1	1	0	1	-10,007047	274,998022	314,258895	0
15.01.2021	15:57:20	0	15,465574	3,502208	2,75025	356,49	0,903	83,669	0	1016,12	8	9,8	9,6	1	1	1	1	1	1	1	1	1	0	1	-11,557435	275,132937	313,345322	0
15.01.2021	15:57:21	0	15,465574	3,163304	2,57325	338,4252	0,899	83,665	0	1016	8	9,8	9,5	1	1	1	1	1	1	1	1	1	0	1	-6,624383	275,03088	317,796565	0
15.01.2021	15:57:22	0	15,58454	3,95413	2,4795	338,3172	0,895	83,668	0	1016,14	8	9,8	9,5	1	1	1	1	1	1	1	1	1	0	1	-11,698379	275,029314	312,715181	0
15.01.2021	15:57:23	0	15,346608	2,937336	2,47125	330,3792	0,892	83,662	0	1016	8	9,8	9,6	1	1	1	1	1	1	1	1	1	0	1	-10,500352	275,015226	313,846744	0
15.01.2021	15:57:24	0	15,227749	2,598428	2,46075	332,46	0,896	83,654	0	1016,1	8	9,7	9,5	1	1	1	1	1	1	1	1	1	0	1	-13,178295	275,142385	311,769093	0
15.01.2021	15:57:25	0	15,465574	2,598428	2,3925	325,1952	0,892	83,656	0	1016,02	8	9,8	9,5	1	1	1	1	1	1	1	1	1	0	1	-12,896406	275,162871	312,14777	0
15.01.2021	15:57:26	0	15,58454	3,954106	2,47425	328,9644	0,889	83,644	0	1016,06	8	9,8	9,6	1	1	1	1	1	1	1	1	1	0	1	-10,993658	275,125068	313,871928	0
15.01.2021	15:57:27	0	14,98971	2,485438	2,63175	328,9608	0,895	83,656	0	1016,1	8	9,8	9,6	1	1	1	1	1	1	1	1	1	0	1	-11,627907	274,994895	312,62329	0
15.01.2021	15:57:28	0	15,58454	2,711387	2,6115	344,016	0,893	83,659	0	1016	8	9,8	9,6	1	1	1	1	1	1	1	1	1	0	1	-12,121212	275,115628	312,699792	0
15.01.2021	15:57:29	0	15,227642	2,372478	2,44425	343,6308	0,89	83,655	0	1016	8	9,8	9,5	1	1	1	1	1	1	1	1	1	0	1	-10,711769	275,178645	314,406944	0
15.01.2021	15:57:30	0	14,98971	2,824362	2,3115	339,8256	0,886	83,649	0	1016	8	9,8	9,6	1	1	1	1	1	1	1	1	1	0	1	-12,614517	275,051248	311,902548	0
15.01.2021	15:57:31	0	14,98971	4,406004	2,26725	340,5636	0,896	83,652	0	1016,16	8	9,8	9,6	1	1	1	1	1	1	1	1	1	0	1	-15,64482	275,166025	309,414257	0
15.01.2021	15:57:32	0	15,346608	4,29303	2,2275	344,862	0,887	83,641	0	1015,96	8	9,8	9,6	1	1	1	1	1	1	1	1	1	0	1	-13,883016	275,145535	311,079254	0
15.01.2021	15:57:33	0	15,227749	3,276279	2,247	335,6712	0,89	83,657	0	1016,02	8	9,7	9,5	1	1	1	1	1	1	1	1	1	0	1	-6,8358	275,167602	318,23073	0
15.01.2021	15:57:34	0	15,227642	4,180055	2,5425	332,7912	0,892	83,641	0	1016,08	8	9,8	9,6	1	1	1	1	1	1	1	1	1	0	1	-8,104299	274,983957	316,09531	0
15.01.2021	15:57:35	0	15,346715	3,954106	2,7105	322,2468	0,894	83,644	0	1016,04	8	9,7	9,6	1	1	1	1	1	1	1	1	1	0	1	-13,389711	275,046546	311,105162	0
15.01.2021	15:57:36	0	15,58454	3,728157	2,7465	336,798	0,888	83,634	0	1015,98	8	9,8	9,6	1	1	1	1	1	1	1	1	1	0	1	-9,231853	275,173911	315,864491	0
15.01.2021	15:57:37	0	14,98971	2,372478	2,73375	326,0484	0,893	83,64	0	1015,96	8	9,8	9,5	1	1	1	1	1	1	1	1	1	0	1	-6,483439	275,035578	317,959679	0
15.01.2021	15:57:38	0	15,346715	3,389254	2,763	332,5068	0,888	83,653	0	1016,02	8	9,7	9,5	1	1	1	1	1	1	1	1	1	0	1	-10,570825	275,134512	314,339369	0
15.01.2021	15:57:39	0	15,58454	4,29303	2,87175	337,1292	0,89	83,65	0	1016,06	8	9,8	9,6	1	1	1	1	1	1	1	1	1	0	1	-7,047216	274,999585	317,2261	0
15.01.2021	15:57:40	0	15,108676	3,954106	3	342,0576	0,888	83,634	0	1015,94	8	9,8	9,6	1	1	1	1	1	1	1	1	1	0	1	-9,090909	275,015226	315,256187	0
15.01.2021	15:57:41	0	15,465574	4,180055	3,02025	338,6664	0,89	83,635	0	1016,12	8	9,8	9,6	1	1	1	1	1	1	1	1	1	0	1	-8,45666	275,035578	315,986459	0
15.01.2021	15:57:42	0	15,465574	2,937336	2,9235	355,0464	0,887	83,637	0	1016,06	8	9,8	9,6	1	1	1	1	1	1	1	1	1	0	1	-12,684989	275,177067	312,426267	0
15.01.2021	15:57:43	0	14,98971	3,276259	2,89125	344,7468	0,885	83,637	0	1016	8	9,8	9,6	1	1	1	1	1	1	1	1	1	0	1	-13,812544	275,170756	311,268891	0
15.01.2021	15:57:44	0	15,346608	3,728157	2,7585	318,4488	0,882	83,626	0	1015,8	8	9,8	9,6	1	1	1	1	1	1	1	1	1	0	1	-10,852713	275,181801	314,280916	0
15.01.2021	15:57:45	0	14,870744	3,389234	2,871	328,5432	0,889	83,635	0	1015,94	8	9,8	9,6	1	1	1	1	1	1	1	1	1	0	1	-14,305849	274,993332	309,937976	0
15.01.2021	15:57:46	0	14,989815	2,824362	2,8905	338,67	0,886	83,627	0	1016,06	8	9,7	9,6	1	1	1	1	1	1	1	1	1	0	1	-5,21494	275,018356	319,146921	0
15.01.2021	15:57:47	0	15,346715	4,29303	2,8155	330,138	0,886	83,639	0	1016,14	8	9,7	9,6	1	1	1	1	1	1	1	1	1	0	1	-11,980268	275,11091	312,818455	0
15.01.2021	15:57:48	0	15,227642	3,841132	2,64075	340,668	0,907	83,627	0	1016,24	8	9,8	9,6	1	1	1	1	1	1	1	1	1	0	1	-8,45666	275,010532	315,868295	0
15.01.2021	15:57:49	0	15,227642	4,631953	2,403	349,8156	0,884	83,622	0	1015,9	8	9,8	9,6	1	1	1	1	1	1	1	1	1	0	1	-14,65821	275,041845	309,814478	0
15.01.2021	15:57:50	0	15,227642	4,744927	2,4045	338,8356	0,891	83,638	0	1016,06	8	9,8	9,6	1	1	1	1	1	1	1	1	1	0	1	-14,305849	275,139235	310,626658	0
15.01.2021	15:57:51	0	15,227642	3,050311	2,37825	339,5484	0,88	83,621	0	1015,94	8	9,8	9,6	1	1	1	1	1	1	1	1	1	0	1	-10,359408	275,161295	314,677318	0
15.01.2021	15:57:52	0	15,108676	3,163285	2,34825	350,9856	0,884	83,632	0	1016	8	9,8	9,6	1	1	1	1	1	1	1	1	1	0	1	-10,641297	275,00584	313,661523	0
15.01.2021	15:57:53	0	14,98971	2,824362	2,25375	350,6796	0,885	83,626	0	1016,02	8	9,8	9,6	1	1	1	1	1	1	1	1	1	0	1	-11,205074	275,001149	313,075617	0
15.01.2021	15:57:54	0	14,870744	4,067081	2,18025	346,6548	0,886	83,614	0	1016,08	8	9,8	9,6	1	1	1	1	1	1	1	1	1	0	1	-9,231853	275,007404	315,078344	0
15.01.2021	15:57:55	0	15,227642	4,631953	2,07675	341,6616	0,887	83,615	0	1016	8	9,8	9,6	1	1	1	1	1	1	1	1	1	0	1	-11,627907	275,024617	312,763492	0
15.01.2021	15:57:56	0	15,346715	2,937336	2,079	340,182	0,883	83,62	0	1016,04	8	9,7	9,6	1	1	1	1	1	1	1	1	1	0	1	-9,090909	275,170756	315,990526	0
15.01.2021	15:57:57	0	14,751778	3,276259	2,04825	339,8688	0,884	83,634	0	1016,02	8	9,8	9,6	1	1	1	1	1	1	1	1	1	0	1	-11,627907	275,049681	312,88176	0
15.01.2021	15:57:58	0	15,108782	2,711387	2,112	329,4036	0,883	83,636	0	1016,12	8	9,7	9,6	1	1	1	1	1	1	1	1	1	0	1	-12,896406	275,170756	312,18503	0
15.01.2021	15:57:59	0	14,751778	4,857902	2,1735	329,6916	0,89	83,623	0	1015,96	8	9,8	9,6	1	1	1	1	1	1	1	1	1	0	1	-10,993658	275,117201	313,834775	0
15.01.2021	15:58:00	0	15,108676	4,29303	2,26425	341,3376	0,88	83,614	0	1015,92	8	9,8	9,6	1	1	1	1	1	1	1	1	1	0	1	-12,825934	275,015226	311,521163	0
15.01.2021	15:58:01	0	15,108676	4,29303	2,26425	341,3376	0,88	83,614	0	1015,92	8	9,8	9,6	1	1	1	1	1	1	1	1	1	0	1	-11,980268	275,132937	312,922489	0
15.01.2021	15:58:02	0	14,751778	2,485438	2,3775	339,1668	0,881	83,615	0	1016,08	8	9,8	9,6	1	1	1	1	1	1	1	1	1	0	1	-14,799154	275,00584	309,503666	0
15.01.2021	15:58:03	0	15,108782	2,598413	2,28975	337,5504	0,883	83,626	0	1016,02	8	9,7	9,6	1	1	1	1	1	1	1	1	1	0	1	-7,399577	275,151838	317,592466	0
15.01.2021	15:58:04	0	15,227749	4,857902	2,19975	350,748	0,879	83,599	0	1016,02	8	9,7	9,6	1	1	1	1	1	1	1	1	1	0	1	-12,825934	275,060656	311,735534	0
15.01.2021	15:58:05	0	14,751778	2,259489	2,223	337,1112	0,881	83,597	0	1015,96	8,1	9,8	9,6	1	1	1	1	1	1	1	1	1	0	1	-9,866103	275,162871	315,178073	0
15.01.2021	15:58:06	0	14,989815	3,615183	2,1765	332,46	0,878	83,614	0	1016,1	8	9,7	9,6	1	1	1	1	1	1	1	1	1	0	1	-12,121212	275,129789	312,766674	0
15.01.2021	15:58:07	0	15,227749	4,744927	2,3115	327,42	0,879	83,613	0	1016,08	8	9,7	9,6	1	1	1	1	1	1	1	1	1	0	1	-6,906272	275,162871	318,137904	0
15.01.2021	15:58:08	0	14,870744	2,372464	2,61075	333,8532	0,89	83,606	0	1016,02	8	9,8	9,6	1	1	1	1	1	1	1	1	1	0	1	-9,866103	275,079486	314,784248	0
15.01.2021	15:58:09	0	14,751881	4,857902	2,6895	318,9276	0,887	83,611	0	1016,04	8	9,7	9,6	1	1	1	1	1	1	1	1	1	0	1	-9,725159	274,979271	314,452352	0
15.01.2021	15:58:10	0	14,870744	2,598413	2,679	335,6676	0,884	83,61	0	1016,16	8	9,8	9,6	1	1	1	1	1	1	1	1	1	0	1	-10,218464	275,027748	314,187709	0
15.01.2021	15:58:11	0	14,513846	2,598413	2,66475	333,6552	0,88	83,595	0	1015,88	8	9,8	9,6	1	1	1	1	1	1	1	1	1	0	1	-13,812544	275,010532	310,512411	0
15.01.2021	15:58:12	0	14,989815	3,502208	2,85375	334,1664	0,884	83,605	0	1015,94	8,1	9,7	9,6	1	1	1	1	1	1	1	1	1	0	1	-13,319239	275,120347	311,524053	0
15.01.2021	15:58:13	0	14,632915	2,711403	2,8305	320,4396	0,882	83,594	0	1015,92	8	9,7	9,5	1	1	1	1	1	1	1	1	1	0	1	-8,174771	274,990207	316,054312	0
15.01.2021	15:58:14	0	14,870848	3,841132	2,5725	322,614	0,883	83,606	0	1016,06	8	9,7	9,6	1	1	1	1	1	1	1	1	1	0	1	-11,557435	275,107765	313,226438	0
15.01.2021	15:58:15	0	14,632915	3,728157	2,59425	315,4824	0,883	83,603	0	1015,94	8	9,7	9,6	1	1	1	1	1	1	1	1	1	0	1	-9,302326	275,03088	315,118623	0
15.01.2021	15:58:16	0	15,108782	4,180055	2,4915	322,2864	0,885	83,605	0	1016,08	8	9,7	9,6	1	1	1	1	1	1	1	1	1	0	1	-7,963354	274,985519	316,243622	0
15.01.2021	15:58:17	0	14,870848	4,631953	2,5455	328,2048	0,879	83,587	0	1016	8	9,7	9,6	1	1	1	1	1	1	1	1	1	0	1	-10,42988	275,034012	314,005848	0
15.01.2021	15:58:18	0	14,632812	4,067081	2,9355	332,7732	0,881	83,584	0	1016,06	8	9,8	9,6	1	1	1	1	1	1	1	1	1	0	1	-11,698379	275,175489	313,405421	0
15.01.2021	15:58:19	0	14,751778	3,502208	3,3135	315,4572	0,878	83,583	0	1016,1	8	9,8	9,6	1	1	1	1	1	1	1	1	1	0	1	-7,470049	275,079486	317,180302	0
15.01.2021	15:58:20	0	14,751881	4,067081	3,405	333,4464	0,875	83,577	0	1016,02	8	9,7	9,6	1	1	1	1	1	1	1	1	1	0	1	-12,966878	275,158142	312,054951	0
15.01.2021	15:58:21	0	14,870848	2,824379	3,7575	334,6128	0,875	83,59	0	1016,02	8,1	9,7	9,5	1	1	1	1	1	1	1	1	1	0	1	-9,090909	275,073207	315,529802	0
15.01.2021	15:58:22	0	14,632915	3,615183	3,8595	332,3916	0,877	83,575	0	1015,98	8	9,7	9,6	1	1	1	1	1	1	1	1	1	0	1	-12,825934	275,161295	312,210793	0
15.01.2021	15:58:23	0	14,632915	4,970906	3,86025	332,3844	0,879	83,566	0	1015,9	8	9,7	9,5	1	1	1	1	1	1	1	1	1	0	1	-17,89993	275,095192	306,824571	0
15.01.2021	15:58:24	0	14,276014	2,372464	3,807	324,3924	0,879	83,58	0	1016,04	8,1	9,7	9,6	1	1	1	1	1	1	1	1	1	0	1	-13,460183	274,985519	310,746793	0
15.01.2021	15:58:25	0	15,108782	4,744927	4,023	336,78	0,874	83,57	0	1015,88	7,9	9,7	9,6	1	1	1	1	1	1	1	1	1	0	1	-9,513742	275,131363	315,381579	0
15.01.2021	15:58:26	0	14,989815	4,067105	4,10775	335,3256	0,874	83,582	0	1016,06	8	9,7	9,5	1	1	1	1	1	1	1	1	1	0	1	-12,121212	275,044979	312,366265	0
15.01.2021	15:58:27	0	14,632915	3,841132	4,12275	339,2388	0,879	83,562	0	1015,9	8,1	9,7	9,6	1	1	1	1	1	1	1	1	1	0	1	-9,725159	274,979271	314,452352	0
15.01.2021	15:58:28	0	14,513948	3,050329	4,0125	337,5252	0,875	83,564	0	1016,08	8	9,7	9,5	1	1	1	1	1	1	1	1	1	0	1	-8,597604	275,008968	315,719972	0
15.01.2021	15:58:29	0	14,751881	3,615183	4,0785	337,0716	0,875	83,558	0	1016,08	8	9,7	9,6	1	1	1	1	1	1	1	1	1	0	1	-10,711769	275,00584	313,591051	0
15.01.2021	15:58:30	0	14,632915	4,180055	4,11225	328,338	0,867	83,553	0	1015,98	7,9	9,7	9,6	1	1	1	1	1	1	1	1	1	0	1	-8,033827	275,103049	316,727776	0
15.01.2021	15:58:31	0	14,632915	3,050311	4,08375	328,8924	0,88	83,563	0	1016,22	8	9,7	9,6	1	1	1	1	1	1	1	1	1	0	1	-11,627907	274,960538	312,461275	0
15.01.2021	15:58:32	0	14,870848	4,180055	4,1025	328,9896	0,874	83,556	0	1016,02	7,9	9,7	9,6	1	1	1	1	1	1	1	1	1	0	1	-14,023961	275,052816	310,500503	0
15.01.2021	15:58:33	0	14,751881	4,406004	4,10025	314,0424	0,875	83,556	0	1015,96	8	9,7	9,6	1	1	1	1	1	1	1	1	1	0	1	-9,44327	275,14081	315,496677	0
15.01.2021	15:58:34	0	14,870848	4,970876	4,06725	306,4788	0,874	83,559	0	1016,12	8,1	9,7	9,6	1	1	1	1	1	1	1	1	1	0	1	-16,138125	275,090479	308,564123	0
15.01.2021	15:58:35	0	14,632915	4,518979	3,7365	315,198	0,875	83,552	0	1016,14	8,1	9,7	9,6	1	1	1	1	1	1	1	1	1	0	1	-10,147992	274,987081	314,066353	0
15.01.2021	15:58:36	0	14,513948	2,824379	3,66825	311,0544	0,873	83,553	0	1016,02	8	9,7	9,5	1	1	1	1	1	1	1	1	1	0	1	-9,372798	274,976147	314,789984	0
15.01.2021	15:58:37	0	15,108782	4,631953	3,55425	332,7948	0,873	83,543	0	1016,04	7,9	9,7	9,6	1	1	1	1	1	1	1	1	1	0	1	-12,755462	275,114055	312,058115	0
15.01.2021	15:58:38	0	14,751881	4,631981	3,33975	326,7432	0,875	83,543	0	1016,04	8,1	9,7	9,5	1	1	1	1	1	1	1	1	1	0	1	-10,288936	275,125068	314,57665	0
15.01.2021	15:58:39	0	14,751881	5,196856	2,973	336,0924	0,879	83,54	0	1016,02	8,1	9,7	9,5	1	1	1	1	1	1	1	1	1	0	1	-9,654686	274,976147	314,508095	0
15.01.2021	15:58:40	0	14,394981	4,067105	2,73675	344,286	0,872	83,514	0	1015,86	8,1	9,7	9,5	1	1	1	1	1	1	1	1	1	0	1	-12,825934	275,09205	311,883731	0
15.01.2021	15:58:41	0	14,632915	2,372478	2,8275	327,0816	0,873	83,529	0	1015,98	8	9,7	9,5	1	1	1	1	1	1	1	1	1	0	1	-9,936575	275,007404	314,373622	0
15.01.2021	15:58:42	0	14,751778	3,163285	2,6355	355,3524	0,871	83,512	0	1015,92	8,1	9,8	9,6	1	1	1	1	1	1	1	1	1	0	1	-16,208598	274,991769	308,027856	0
15.01.2021	15:58:43	0	14,513948	4,29303	2,42325	321,8148	0,873	83,518	0	1016,04	8,1	9,7	9,6	1	1	1	1	1	1	1	1	1	0	1	-11,627907	275,117201	313,200526	0
15.01.2021	15:58:44	0	14,513948	4,631953	2,53875	323,7624	0,87	83,507	0	1016	8,1	9,7	9,6	1	1	1	1	1	1	1	1	1	0	1	-10,147992	275,134512	314,762202	0
15.01.2021	15:58:45	0	14,751881	2,485438	2,562	310,3344	0,873	83,5	0	1015,92	8,1	9,7	9,6	1	1	1	1	1	1	1	1	1	0	1	-8,879493	275,038711	315,578409	0
15.01.2021	15:58:46	0	14,870848	3,615205	2,30325	317,0628	0,869	83,511	0	1015,92	8,1	9,7	9,5	1	1	1	1	1	1	1	1	1	0	1	-10,007047	274,962098	314,089491	0
15.01.2021	15:58:47	0	14,157047	2,033553	2,32125	316,3284	0,871	83,508	0	1016,06	8,1	9,7	9,5	1	1	1	1	1	1	1	1	1	0	1	-11,486963	275,037145	312,963547	0
15.01.2021	15:58:48	0	14,276014	3,276259	2,2455	328,8636	0,867	83,49	0	1016,06	8,1	9,7	9,6	1	1	1	1	1	1	1	1	1	0	1	-12,403101	274,979271	311,77441	0
15.01.2021	15:58:49	0	14,157047	3,276259	2,187	323,406	0,868	83,5	0	1016	8	9,7	9,6	1	1	1	1	1	1	1	1	1	0	1	-8,245243	275,024617	316,146156	0
15.01.2021	15:58:50	0	14,157047	3,615205	2,502	319,2228	0,866	83,491	0	1015,94	8	9,7	9,5	1	1	1	1	1	1	1	1	1	0	1	-13,601128	275,139235	311,33138	0
15.01.2021	15:58:51	0	14,513948	4,519006	2,808	330,1056	0,869	83,516	0	1016	8	9,7	9,5	1	1	1	1	1	1	1	1	1	0	1	-10,993658	275,103049	313,767945	0
15.01.2021	15:58:52	0	14,276014	2,372478	2,96775	327,0564	0,871	83,505	0	1016	8	9,7	9,5	1	1	1	1	1	1	1	1	1	0	1	-8,315715	274,974586	315,839703	0
15.01.2021	15:58:53	0	14,394981	4,18008	3,156	329,3964	0,867	83,501	0	1016,02	8,1	9,7	9,5	1	1	1	1	1	1	1	1	1	0	1	-16,349542	274,993332	307,894283	0
15.01.2021	15:58:54	0	14,870848	4,970876	3,18975	334,2096	0,86	83,488	0	1015,96	8,1	9,7	9,6	1	1	1	1	1	1	1	1	1	0	1	-9,161381	275,14081	315,778566	0
15.01.2021	15:58:55	0	14,276014	2,937354	3,2655	326,4012	0,865	83,495	0	1016,04	8,1	9,7	9,5	1	1	1	1	1	1	1	1	1	0	1	-11,839323	275,147111	313,130389	0
15.01.2021	15:58:56	0	14,751881	4,293055	3,378	313,1784	0,859	83,494	0	1016,02	8,1	9,7	9,5	1	1	1	1	1	1	1	1	1	0	1	-11,768851	275,093621	312,948231	0
15.01.2021	15:58:57	0	14,870744	4,631981	3,525	324,1008	0,86	83,49	0	1015,9	7,9	9,8	9,5	1	1	1	1	1	1	1	1	1	0	1	-11,698379	275,167602	313,36815	0
15.01.2021	15:58:58	0	14,632915	2,711403	3,45675	317,3328	0,87	83,496	0	1016,02	8	9,7	9,5	1	1	1	1	1	1	1	1	1	0	1	-15,221987	275,019921	309,147257	0
15.01.2021	15:58:59	0	14,632915	4,067105	3,30525	315,1584	0,87	83,486	0	1016,02	8,1	9,7	9,5	1	1	1	1	1	1	1	1	1	0	1	-9,090909	274,976147	315,071873	0
15.01.2021	15:59:00	0	14,870848	4,970906	3,144	316,2636	0,866	83,497	0	1016,06	8	9,7	9,5	1	1	1	1	1	1	1	1	1	0	1	-9,936575	275,071638	314,676728	0
15.01.2021	15:59:01	0	14,870848	4,970906	3,144	316,2636	0,866	83,497	0	1016,06	8	9,7	9,5	1	1	1	1	1	1	1	1	1	0	1	-14,094433	274,977709	310,075713	0
15.01.2021	15:59:02	0	14,276014	3,050329	3,12225	332,3844	0,868	83,483	0	1016,02	8	9,7	9,5	1	1	1	1	1	1	1	1	1	0	1	-5,567301	275,040278	318,897994	0
15.01.2021	15:59:03	0	14,038081	2,824379	2,9745	336,4812	0,863	83,486	0	1016,08	8	9,7	9,5	1	1	1	1	1	1	1	1	1	0	1	-11,909796	274,958978	312,17203	0
15.01.2021	15:59:04	0	14,632915	3,163304	2,85075	324,8784	0,861	83,484	0	1016,1	8	9,7	9,5	1	1	1	1	1	1	1	1	1	0	1	-11,768851	275,021486	312,607777	0
15.01.2021	15:59:05	0	14,513948	2,937336	2,70525	351,8208	0,86	83,465	0	1016,02	8	9,7	9,6	1	1	1	1	1	1	1	1	1	0	1	-8,174771	275,121921	316,675951	0
15.01.2021	15:59:06	0	14,276014	4,406031	2,547	330,75	0,863	83,454	0	1016,02	8	9,7	9,5	1	1	1	1	1	1	1	1	1	0	1	-8,315715	275,151838	316,676328	0
15.01.2021	15:59:07	0	14,157047	2,937354	2,5365	346,1652	0,864	83,478	0	1015,9	8,1	9,7	9,5	1	1	1	1	1	1	1	1	1	0	1	-11,627907	274,998022	312,638036	0
15.01.2021	15:59:08	0	14,513948	3,615205	2,493	349,0488	0,855	83,459	0	1016,16	8	9,7	9,5	1	1	1	1	1	1	1	1	1	0	1	-13,389711	274,96678	310,728902	0
15.01.2021	15:59:09	0	14,276014	4,18008	2,34225	349,0848	0,863	83,471	0	1016,08	8	9,7	9,5	1	1	1	1	1	1	1	1	1	0	1	-12,191684	275,090479	312,510564	0
15.01.2021	15:59:10	0	14,513948	4,293055	2,46075	339,1056	0,863	83,456	0	1016,04	8	9,7	9,5	1	1	1	1	1	1	1	1	1	0	1	-8,668076	275,134512	316,242118	0
15.01.2021	15:59:11	0	14,157047	3,163304	2,48475	336,3552	0,866	83,458	0	1015,94	8	9,7	9,5	1	1	1	1	1	1	1	1	1	0	1	-11,627907	275,109338	313,163391	0
15.01.2021	15:59:12	0	14,513948	3,95413	2,59575	347,6592	0,86	83,458	0	1016,04	8	9,7	9,5	1	1	1	1	1	1	1	1	1	0	1	-11,06413	275,132937	313,838628	0
15.01.2021	15:59:13	0	14,394981	4,067105	2,6445	339,7896	0,865	83,462	0	1016,04	8,1	9,7	9,5	1	1	1	1	1	1	1	1	1	0	1	-7,610994	275,115628	317,21001	0
15.01.2021	15:59:14	0	14,394981	3,615205	2,66025	325,494	0,859	83,443	0	1015,92	8	9,7	9,5	1	1	1	1	1	1	1	1	1	0	1	-10,077519	275,008968	314,240056	0
15.01.2021	15:59:15	0	14,038081	2,598428	2,80425	325,53	0,857	83,44	0	1015,96	8	9,7	9,5	1	1	1	1	1	1	1	1	1	0	1	-10,993658	275,14081	313,94629	0
15.01.2021	15:59:16	0	14,038081	2,824379	3,02175	347,3604	0,862	83,446	0	1016,04	8	9,7	9,5	1	1	1	1	1	1	1	1	1	0	1	-8,45666	275,052816	316,067804	0
15.01.2021	15:59:17	0	14,157047	4,519006	3,198	343,2024	0,864	83,451	0	1015,96	8	9,7	9,5	1	1	1	1	1	1	1	1	1	0	1	-9,866103	275,147111	315,103609	0
15.01.2021	15:59:18	0	14,276014	3,389254	3,21	349,8948	0,866	83,444	0	1015,98	7,9	9,7	9,5	1	1	1	1	1	1	1	1	1	0	1	-13,883016	275,123494	310,975137	0
15.01.2021	15:59:19	0	14,513948	4,519006	3,12675	338,7564	0,863	83,439	0	1016,02	8	9,7	9,5	1	1	1	1	1	1	1	1	1	0	1	-8,597604	275,098334	316,141735	0
15.01.2021	15:59:20	0	14,513948	4,519006	2,96025	329,2308	0,855	83,446	0	1016	8	9,7	9,5	1	1	1	1	1	1	1	1	1	0	1	-11,980268	274,96678	312,138345	0
15.01.2021	15:59:21	0	14,513846	4,406031	2,76675	339,102	0,858	83,443	0	1016,02	8	9,8	9,5	1	1	1	1	1	1	1	1	1	0	1	-12,755462	275,132937	312,147296	0
15.01.2021	15:59:22	0	14,038081	2,146528	2,75475	333,144	0,862	83,439	0	1016,04	8	9,7	9,5	1	1	1	1	1	1	1	1	1	0	1	-12,191684	274,944941	311,823969	0
15.01.2021	15:59:23	0	14,632915	4,519006	2,51175	332,478	0,857	83,446	0	1016,14	8	9,7	9,5	1	1	1	1	1	1	1	1	1	0	1	-11,205074	275,114055	313,608502	0
15.01.2021	15:59:24	0	14,632915	5,083881	2,6325	321,444	0,858	83,45	0	1015,96	8	9,7	9,5	1	1	1	1	1	1	1	1	1	0	1	-14,799154	275,098334	309,940185	0
15.01.2021	15:59:25	0	14,038081	3,95413	2,8545	323,3448	0,856	83,437	0	1015,96	8	9,7	9,5	1	1	1	1	1	1	1	1	1	0	1	-9,866103	274,96678	314,25251	0
15.01.2021	15:59:26	0	14,276014	3,615205	2,64825	342,7272	0,859	83,433	0	1015,88	8	9,7	9,5	1	1	1	1	1	1	1	1	1	0	1	-12,544045	275,043412	311,936037	0
15.01.2021	15:59:27	0	14,394981	4,519006	2,54625	345,042	0,854	83,444	0	1016	8	9,7	9,5	1	1	1	1	1	1	1	1	1	0	1	-7,892882	274,962098	316,203656	0
15.01.2021	15:59:28	0	14,157047	3,163304	2,514	353,178	0,854	83,434	0	1016,06	8	9,7	9,5	1	1	1	1	1	1	1	1	1	0	1	-10,852713	275,052816	313,67175	0
15.01.2021	15:59:29	0	14,157047	3,050329	2,3925	331,596	0,857	83,445	0	1015,96	8	9,7	9,5	1	1	1	1	1	1	1	1	1	0	1	-19,732206	275,002712	304,555861	0
15.01.2021	15:59:30	0	14,276014	3,389254	2,39925	351,378	0,861	83,452	0	1016	8	9,7	9,5	1	1	1	1	1	1	1	1	1	0	1	-10,42988	275,081056	314,227882	0
15.01.2021	15:59:31	0	14,394981	3,389254	2,55675	341,37	0,855	83,462	0	1016,02	8	9,7	9,5	1	1	1	1	1	1	1	1	1	0	1	-7,610994	275,14396	317,343834	0
15.01.2021	15:59:32	0	13,800147	2,711403	2,922	340,5888	0,857	83,457	0	1016,02	8	9,7	9,5	1	1	1	1	1	1	1	1	1	0	1	-15,081043	274,958978	309,000783	0
15.01.2021	15:59:33	0	14,394981	4,857931	2,991	341,298	0,854	83,456	0	1016,08	8	9,7	9,5	1	1	1	1	1	1	1	1	1	0	1	-14,799154	275,093621	309,917928	0
15.01.2021	15:59:34	0	14,394981	4,293055	2,853	349,9308	0,855	83,454	0	1016,02	8	9,7	9,5	1	1	1	1	1	1	1	1	1	0	1	-16,208598	275,139235	308,72391	0
15.01.2021	15:59:35	0	14,156948	2,824379	2,84025	320,436	0,852	83,448	0	1015,98	8	9,8	9,5	1	1	1	1	1	1	1	1	1	0	1	-15,715292	275,013661	308,624423	0
15.01.2021	15:59:36	0	13,68118	3,050329	2,8695	332,838	0,854	83,454	0	1016,06	8	9,7	9,5	1	1	1	1	1	1	1	1	1	0	1	-11,768851	275,139235	313,163656	0
15.01.2021	15:59:37	0	14,276014	4,519006	2,81475	348,7068	0,852	83,454	0	1016	8	9,7	9,5	1	1	1	1	1	1	1	1	1	0	1	-11,768851	274,955858	312,298265	0
15.01.2021	15:59:38	0	14,038081	5,083881	2,6505	343,1016	0,856	83,444	0	1016,04	8	9,7	9,5	1	1	1	1	1	1	1	1	1	0	1	-12,755462	275,032446	311,672876	0
15.01.2021	15:59:39	0	14,156948	3,163304	2,72175	327,8232	0,851	83,439	0	1015,92	8	9,8	9,5	1	1	1	1	1	1	1	1	1	0	1	-10,077519	274,94806	313,952834	0
15.01.2021	15:59:40	0	14,394981	4,970906	3,00075	325,1808	0,858	83,452	0	1015,94	8	9,7	9,5	1	1	1	1	1	1	1	1	1	0	1	-12,473573	275,052816	312,05089	0
15.01.2021	15:59:41	0	13,800147	2,598428	3,0735	326,79	0,853	83,46	0	1015,9	8	9,7	9,5	1	1	1	1	1	1	1	1	1	0	1	-10,077519	275,134512	314,832674	0
15.01.2021	15:59:42	0	14,038081	4,293055	3,06525	330,9516	0,859	83,459	0	1016,06	8	9,7	9,5	1	1	1	1	1	1	1	1	1	0	1	-11,275546	275,063793	313,300728	0
15.01.2021	15:59:43	0	14,394981	4,406031	3,05775	338,418	0,852	83,443	0	1016,06	8	9,7	9,5	1	1	1	1	1	1	1	1	1	0	1	-8,104299	274,941823	315,896658	0
15.01.2021	15:59:44	0	14,038081	2,598428	2,9655	344,7144	0,846	83,455	0	1016,1	8	9,7	9,5	1	1	1	1	1	1	1	1	1	0	1	-8,45666	275,104621	316,312366	0
15.01.2021	15:59:45	0	14,037982	3,276279	2,829	346,1544	0,855	83,447	0	1015,96	8	9,8	9,5	1	1	1	1	1	1	1	1	1	0	1	-10,993658	275,129789	313,894229	0
15.01.2021	15:59:46	0	14,276014	4,631981	2,86875	354,3336	0,854	83,45	0	1016,12	8	9,7	9,5	1	1	1	1	1	1	1	1	1	0	1	-14,164905	275,062225	310,403965	0
15.01.2021	15:59:47	0	14,038081	3,615205	2,85675	328,86	0,854	83,455	0	1016,06	8	9,7	9,5	1	1	1	1	1	1	1	1	1	0	1	-6,976744	275,136086	317,940887	0
15.01.2021	15:59:48	0	14,276014	4,744956	2,89575	339,4512	0,854	83,46	0	1016,04	8	9,7	9,5	1	1	1	1	1	1	1	1	1	0	1	-10,007047	275,027748	314,399125	0
15.01.2021	15:59:49	0	14,038081	4,293055	2,82225	348,2928	0,857	83,441	0	1015,86	8	9,7	9,5	1	1	1	1	1	1	1	1	1	0	1	-9,231853	274,96678	314,88676	0
15.01.2021	15:59:50	0	14,038081	3,050329	2,697	340,2252	0,852	83,456	0	1015,96	8	9,7	9,5	1	1	1	1	1	1	1	1	1	0	1	-6,765328	274,980833	317,419548	0
15.01.2021	15:59:51	0	14,275914	3,615205	2,54025	341,2224	0,854	83,451	0	1016,08	8	9,8	9,5	1	1	1	1	1	1	1	1	1	0	1	-8,597604	275,013661	315,742111	0
15.01.2021	15:59:52	0	14,275914	2,711403	2,7135	333,4752	0,851	83,443	0	1015,74	8	9,8	9,5	1	1	1	1	1	1	1	1	1	0	1	-10,42988	274,969902	313,703453	0
15.01.2021	15:59:53	0	14,038081	4,293055	3,0195	338,7384	0,859	83,461	0	1016,2	8	9,7	9,5	1	1	1	1	1	1	1	1	1	0	1	-7,610994	275,034012	316,824734	0
15.01.2021	15:59:54	0	13,919114	4,293055	3,06975	344,7756	0,872	83,465	0	1016,2	8	9,7	9,5	1	1	1	1	1	1	1	1	1	0	1	-12,966878	275,082626	311,698297	0
15.01.2021	15:59:55	0	13,919016	4,067105	2,8575	337,6188	0,858	83,458	0	1016,14	8	9,8	9,5	1	1	1	1	1	1	1	1	1	0	1	-11,41649	274,935589	312,555081	0
15.01.2021	15:59:56	0	14,276014	3,050329	2,694	340,1892	0,853	83,438	0	1016,02	8	9,7	9,5	1	1	1	1	1	1	1	1	1	0	1	-8,527132	275,004276	315,768311	0
15.01.2021	15:59:57	0	14,038081	4,067105	2,64375	350,5644	0,848	83,444	0	1015,94	8	9,7	9,5	1	1	1	1	1	1	1	1	1	0	1	-12,121212	275,00584	312,181608	0
15.01.2021	15:59:58	0	13,800147	3,050329	2,57625	332,3412	0,85	83,452	0	1016,04	8	9,7	9,5	1	1	1	1	1	1	1	1	1	0	1	-12,966878	274,996458	311,291691	0
15.01.2021	15:59:59	0	14,037982	4,744956	2,73225	346,0428	0,851	83,457	0	1016	8	9,8	9,5	1	1	1	1	1	1	1	1	1	0	1	-12,403101	274,974586	311,752318	0
15.01.2021	16:00:00	0	13,919016	2,937354	3,44475	342,0828	0,853	83,451	0	1016,06	8	9,8	9,5	1	1	1	1	1	1	1	1	1	0	1	-6,8358	275,032446	317,592538	0
15.01.2021	16:00:01	0	13,919016	2,937354	3,44475	342,0828	0,853	83,451	0	1016,06	8	9,8	9,5	1	1	1	1	1	1	1	1	1	0	1	-11,909796	274,944941	312,105858	0
15.01.2021	16:00:02	0	14,038081	2,711403	3,37275	356,6412	0,848	83,455	0	1016,06	8	9,7	9,5	1	1	1	1	1	1	1	1	1	0	1	-9,584214	275,082626	315,080961	0
15.01.2021	16:00:03	0	13,800147	2,598428	3,294	342,3672	0,847	83,448	0	1015,9	8	9,7	9,5	1	1	1	1	1	1	1	1	1	0	1	-11,346018	275,118774	313,489843	0
15.01.2021	16:00:04	0	13,562214	2,485453	3,28275	343,584	0,849	83,446	0	1015,96	8	9,7	9,5	1	1	1	1	1	1	1	1	1	0	1	-10,500352	275,015226	313,846744	0
15.01.2021	16:00:05	0	13,800147	3,72818	3,171	340,2576	0,847	83,498	0	1016,08	8	9,7	9,5	1	1	1	1	1	1	1	1	1	0	1	-12,896406	275,132937	312,006351	0
15.01.2021	16:00:06	0	13,562119	4,293055	3,258	333,8352	0,846	83,442	0	1016,06	8	9,8	9,5	1	1	1	1	1	1	1	1	1	0	1	-13,530655	275,084197	311,141933	0
15.01.2021	16:00:07	0	13,443247	3,502229	3,35925	335,7648	0,851	83,434	0	1015,98	8	9,7	9,5	1	1	1	1	1	1	1	1	1	0	1	-12,966878	275,145535	311,995392	0
15.01.2021	16:00:08	0	13,800147	2,598428	3,3255	332,4852	0,848	83,436	0	1016,02	8	9,7	9,5	1	1	1	1	1	1	1	1	1	0	1	-7,892882	275,112483	316,913267	0
15.01.2021	16:00:09	0	13,800147	2,372478	3,15	338,778	0,858	83,43	0	1015,98	8	9,7	9,5	1	1	1	1	1	1	1	1	1	0	1	-11,486963	275,085767	313,193039	0
15.01.2021	16:00:10	0	14,038081	2,937354	3,02175	339,8688	0,855	83,435	0	1015,98	8	9,7	9,5	1	1	1	1	1	1	1	1	1	0	1	-8,668076	274,960538	315,421106	0
15.01.2021	16:00:11	0	13,80005	3,95413	2,92875	346,5072	0,852	83,437	0	1016,06	8	9,8	9,5	1	1	1	1	1	1	1	1	1	0	1	-10,500352	275,096763	314,231567	0
15.01.2021	16:00:12	0	13,681085	4,744956	2,93925	342,3456	0,847	83,427	0	1016,06	8	9,8	9,5	1	1	1	1	1	1	1	1	1	0	1	-11,768851	275,087337	312,918565	0
15.01.2021	16:00:13	0	14,037982	4,970906	2,98875	343,9548	0,856	83,434	0	1016,02	8	9,8	9,5	1	1	1	1	1	1	1	1	1	0	1	-9,231853	275,107765	315,552019	0
15.01.2021	16:00:14	0	13,800244	3,841155	3,18	349,074	0,845	83,425	0	1015,96	8	9,6	9,5	1	1	1	1	1	1	1	1	1	0	1	-7,540521	274,941823	316,460435	0
15.01.2021	16:00:15	0	13,443153	3,163304	3,21975	351,0252	0,85	83,427	0	1016,08	8	9,8	9,5	1	1	1	1	1	1	1	1	1	0	1	-19,027484	274,973025	305,120572	0
15.01.2021	16:00:16	0	13,919114	4,18008	3,15525	333,864	0,847	83,391	0	1015,94	8	9,7	9,5	1	1	1	1	1	1	1	1	1	0	1	-8,174771	275,00584	316,128049	0
15.01.2021	16:00:17	0	13,800147	4,18008	2,9715	347,2632	0,851	83,413	0	1016,06	8	9,7	9,5	1	1	1	1	1	1	1	1	1	0	1	-8,033827	275,121921	316,816896	0
15.01.2021	16:00:18	0	13,800147	2,824379	2,871	341,2944	0,848	83,423	0	1016,06	8	9,7	9,5	1	1	1	1	1	1	1	1	1	0	1	-10,288936	275,066931	314,302148	0
15.01.2021	16:00:19	0	13,68118	3,615205	2,7375	355,0644	0,851	83,421	0	1016,06	8	9,7	9,5	1	1	1	1	1	1	1	1	1	0	1	-14,164905	275,123494	310,693249	0
15.01.2021	16:00:20	0	13,681085	2,711403	2,57775	326,7144	0,848	83,404	0	1016,1	8	9,8	9,5	1	1	1	1	1	1	1	1	1	0	1	-10,218464	275,018356	314,143397	0
15.01.2021	16:00:21	0	13,68118	2,711403	2,4225	330,8616	0,841	83,408	0	1016,02	8	9,7	9,5	1	1	1	1	1	1	1	1	1	0	1	-11,698379	275,114055	313,115197	0
15.01.2021	16:00:22	0	13,562214	2,937354	2,445	311,7312	0,852	83,399	0	1016,14	8	9,7	9,5	1	1	1	1	1	1	1	1	1	0	1	-8,668076	275,043412	315,812006	0
15.01.2021	16:00:23	0	13,562119	3,389254	2,4555	316,9224	0,851	83,394	0	1016,1	8	9,8	9,5	1	1	1	1	1	1	1	1	1	0	1	-9,795631	275,131363	315,099691	0
15.01.2021	16:00:24	0	13,919016	3,72818	2,2785	316,3032	0,844	83,381	0	1016,08	8	9,8	9,5	1	1	1	1	1	1	1	1	1	0	1	-10,570825	275,012097	313,76151	0
15.01.2021	16:00:25	0	13,562214	3,389254	2,09775	320,4504	0,85	83,389	0	1016,14	8	9,7	9,5	1	1	1	1	1	1	1	1	1	0	1	-13,389711	275,109338	311,401587	0
15.01.2021	16:00:26	0	13,681085	4,970906	2,01	327,87	0,85	83,394	0	1016,08	8	9,8	9,5	1	1	1	1	1	1	1	1	1	0	1	-12,262156	275,029314	312,151404	0
15.01.2021	16:00:27	0	13,681085	3,389254	2,067	333,4464	0,849	83,396	0	1015,98	8	9,8	9,5	1	1	1	1	1	1	1	1	1	0	1	-8,174771	274,980833	316,010105	0
15.01.2021	16:00:28	0	13,562214	2,937354	2,1105	332,7912	0,849	83,394	0	1015,92	8	9,7	9,5	1	1	1	1	1	1	1	1	1	0	1	-8,315715	274,951178	315,729341	0
15.01.2021	16:00:29	0	13,919016	4,519006	2,262	322,2216	0,848	83,375	0	1016,22	8	9,8	9,5	1	1	1	1	1	1	1	1	1	0	1	-8,879493	275,063793	315,696781	0
15.01.2021	16:00:30	0	13,324187	2,711403	2,379	321,8112	0,849	83,387	0	1016,12	8	9,8	9,5	1	1	1	1	1	1	1	1	1	0	1	-9,020437	275,123494	315,837717	0
15.01.2021	16:00:31	0	13,919016	3,163304	2,45775	321,462	0,847	83,382	0	1016	8	9,8	9,5	1	1	1	1	1	1	1	1	1	0	1	-6,8358	274,971463	317,304894	0
15.01.2021	16:00:32	0	13,681085	4,293055	2,28	317,1492	0,85	83,384	0	1016,14	8	9,8	9,5	1	1	1	1	1	1	1	1	1	0	1	-9,654686	275,084197	315,017902	0
15.01.2021	16:00:33	0	13,443153	2,937354	2,1195	315,8676	0,85	83,384	0	1016,26	8	9,8	9,5	1	1	1	1	1	1	1	1	1	0	1	-12,755462	275,131363	312,13986	0
15.01.2021	16:00:34	0	13,681085	2,259503	2,0205	321,1128	0,846	83,367	0	1016,06	8	9,8	9,5	1	1	1	1	1	1	1	1	1	0	1	-9,725159	275,010532	314,599796	0
15.01.2021	16:00:35	0	13,681085	3,502229	1,96275	326,7	0,844	83,359	0	1016,06	8	9,8	9,5	1	1	1	1	1	1	1	1	1	0	1	-7,963354	275,095192	316,761146	0
15.01.2021	16:00:36	0	13,562119	4,067105	2,10375	310,3632	0,846	83,358	0	1016,04	8	9,8	9,5	1	1	1	1	1	1	1	1	1	0	1	-12,05074	275,098334	312,688599	0
15.01.2021	16:00:37	0	13,681085	3,502229	2,2035	339,462	0,845	83,336	0	1016,08	8	9,8	9,5	1	1	1	1	1	1	1	1	1	0	1	-10,852713	275,098334	313,886626	0
15.01.2021	16:00:38	0	13,324187	3,050329	2,22525	321,084	0,845	83,362	0	1016	8	9,8	9,5	1	1	1	1	1	1	1	1	1	0	1	-10,288936	275,11091	314,509787	0
15.01.2021	16:00:39	0	13,562214	2,937354	2,166	325,6164	0,839	83,344	0	1016,16	8	9,7	9,5	1	1	1	1	1	1	1	1	1	0	1	-11,41649	275,077916	313,226449	0
15.01.2021	16:00:40	0	14,037982	4,18008	2,09925	327,2148	0,846	83,332	0	1015,86	8	9,8	9,5	1	1	1	1	1	1	1	1	1	0	1	-13,319239	275,115628	311,501765	0
15.01.2021	16:00:41	0	13,324187	2,937354	1,9785	8,9928	0,839	83,346	0	1016,02	8	9,8	9,5	1	1	1	1	1	1	1	1	1	0	1	-10,007047	275,101478	314,747134	0
15.01.2021	16:00:42	0	13,681085	4,744956	1,803	327,3552	0,846	83,348	0	1016,12	8	9,8	9,5	1	1	1	1	1	1	1	1	1	0	1	-11,346018	275,103049	313,415584	0
15.01.2021	16:00:43	0	13,562214	3,72818	1,746	351,054	0,841	83,334	0	1015,88	8	9,7	9,5	1	1	1	1	1	1	1	1	1	0	1	-10,359408	274,993332	313,884417	0
15.01.2021	16:00:44	0	13,086255	2,711403	1,926	344,358	0,848	83,334	0	1016,02	8	9,8	9,5	1	1	1	1	1	1	1	1	1	0	1	-11,980268	274,94806	312,050086	0
15.01.2021	16:00:45	0	13,800147	3,276279	2,16075	351,7488	0,845	83,35	0	1016,02	8	9,7	9,5	1	1	1	1	1	1	1	1	1	0	1	-15,856237	274,979271	308,321274	0
15.01.2021	16:00:46	0	13,324187	3,163304	2,28375	349,002	0,842	83,34	0	1016,02	8	9,8	9,5	1	1	1	1	1	1	1	1	1	0	1	-8,597604	275,073207	316,023107	0
15.01.2021	16:00:47	0	13,324187	3,95413	2,35875	333,5004	0,841	83,326	0	1015,98	8	9,8	9,5	1	1	1	1	1	1	1	1	1	0	1	-12,825934	275,123494	312,03222	0
15.01.2021	16:00:48	0	13,205221	3,95413	2,385	339,7716	0,842	83,346	0	1016,04	8	9,8	9,5	1	1	1	1	1	1	1	1	1	0	1	-10,782241	275,027748	313,623931	0
15.01.2021	16:00:49	0	13,324187	2,598428	2,37675	347,2524	0,838	83,354	0	1015,94	8	9,8	9,5	1	1	1	1	1	1	1	1	1	0	1	-9,725159	274,954298	314,334603	0
15.01.2021	16:00:50	0	13,681085	4,293055	2,391	324,8244	0,843	83,352	0	1016,02	8	9,8	9,5	1	1	1	1	1	1	1	1	1	0	1	-10,007047	275,026182	314,391738	0
15.01.2021	16:00:51	0	13,443153	4,406031	2,56125	320,3784	0,843	83,353	0	1015,98	8	9,8	9,5	1	1	1	1	1	1	1	1	1	0	1	-12,825934	275,096763	311,905986	0
15.01.2021	16:00:52	0	13,68118	2,372478	2,4825	342,702	0,844	83,345	0	1015,9	8	9,7	9,5	1	1	1	1	1	1	1	1	1	0	1	-10,288936	274,943382	313,719369	0
15.01.2021	16:00:53	0	13,324187	4,067105	2,33475	341,2836	0,843	83,356	0	1016,08	8	9,8	9,5	1	1	1	1	1	1	1	1	1	0	1	-10,993658	274,980833	313,191218	0
15.01.2021	16:00:54	0	13,68118	4,631981	2,22675	340,2252	0,844	83,358	0	1016,06	8	9,7	9,5	1	1	1	1	1	1	1	1	1	0	1	-10,359408	275,104621	314,409617	0
15.01.2021	16:00:55	0	13,205221	3,502229	2,26425	336,42	0,845	83,341	0	1016	8	9,8	9,5	1	1	1	1	1	1	1	1	1	0	1	-13,03735	274,983957	311,162258	0
15.01.2021	16:00:56	0	13,324187	4,18008	2,31075	326,7216	0,846	83,366	0	1016,12	8	9,8	9,5	1	1	1	1	1	1	1	1	1	0	1	-7,82241	275,117201	317,006022	0
15.01.2021	16:00:57	0	13,324187	2,824379	2,43525	338,8104	0,846	83,357	0	1016,18	8	9,8	9,5	1	1	1	1	1	1	1	1	1	0	1	-11,346018	275,019921	313,023226	0
15.01.2021	16:00:58	0	13,562119	3,050329	2,4585	351,2736	0,841	83,353	0	1016,06	8	9,8	9,5	1	1	1	1	1	1	1	1	1	0	1	-11,06413	275,132937	313,838628	0
15.01.2021	16:00:59	0	13,086346	2,485453	2,3985	337,9608	0,847	83,36	0	1016,06	8	9,7	9,5	1	1	1	1	1	1	1	1	1	0	1	-13,6716	274,954298	310,388162	0
15.01.2021	16:01:00	0	13,443247	4,293055	2,47425	350,2728	0,84	83,352	0	1016,04	8	9,7	9,5	1	1	1	1	1	1	1	1	1	0	1	-13,530655	274,987081	310,683689	0
15.01.2021	16:01:01	0	13,443247	4,293055	2,47425	350,2728	0,84	83,352	0	1016,04	8	9,7	9,5	1	1	1	1	1	1	1	1	1	0	1	-14,517266	274,944941	309,498388	0
15.01.2021	16:01:02	0	13,681085	4,519006	2,49675	349,9524	0,84	83,341	0	1016,02	8	9,8	9,5	1	1	1	1	1	1	1	1	1	0	1	-16,349542	274,993332	307,894283	0
15.01.2021	16:01:03	0	13,205313	4,406031	2,40375	327,8844	0,841	83,344	0	1016,04	8	9,7	9,5	1	1	1	1	1	1	1	1	1	0	1	-10,288936	275,103049	314,472667	0
15.01.2021	16:01:04	0	13,32428	3,502229	2,4015	347,958	0,843	83,344	0	1016,12	8	9,7	9,5	1	1	1	1	1	1	1	1	1	0	1	-9,44327	274,944941	314,572384	0
15.01.2021	16:01:05	0	13,562214	3,276279	2,37375	355,0212	0,838	83,327	0	1015,96	8	9,7	9,5	1	1	1	1	1	1	1	1	1	0	1	-15,081043	275,007404	309,229155	0
15.01.2021	16:01:06	0	13,443153	4,406031	2,349	352,1196	0,839	83,337	0	1016	8	9,8	9,5	1	1	1	1	1	1	1	1	1	0	1	-14,869626	275,106193	309,906822	0
15.01.2021	16:01:07	0	13,562119	4,744956	2,34525	350,3376	0,842	83,349	0	1016,06	8	9,8	9,5	1	1	1	1	1	1	1	1	1	0	1	-13,319239	275,114055	311,494337	0
15.01.2021	16:01:08	0	13,443153	4,519006	2,20125	354,06	0,834	83,327	0	1015,88	8	9,8	9,5	1	1	1	1	1	1	1	1	1	0	1	-9,513742	275,077916	315,129198	0
15.01.2021	16:01:09	0	13,324187	2,598428	2,172	357,8076	0,842	83,336	0	1015,96	8	9,8	9,5	1	1	1	1	1	1	1	1	1	0	1	-14,376321	275,114055	310,437255	0
15.01.2021	16:01:10	0	12,96738	4,293055	2,26125	343,5264	0,84	83,335	0	1016,06	8	9,7	9,5	1	1	1	1	1	1	1	1	1	0	1	-8,386187	275,029314	316,027373	0
15.01.2021	16:01:11	0	12,96738	2,598428	2,289	349,3404	0,847	83,329	0	1015,96	8	9,7	9,5	1	1	1	1	1	1	1	1	1	0	1	-9,654686	274,937147	314,32423	0
15.01.2021	16:01:12	0	12,96738	3,050329	2,4	336,8484	0,84	83,343	0	1016,04	7,9	9,7	9,5	1	1	1	1	1	1	1	1	1	0	1	-10,007047	275,052816	314,517416	0
15.01.2021	16:01:13	0	12,848413	2,259503	2,73525	341,6508	0,837	83,338	0	1016,04	8	9,7	9,5	1	1	1	1	1	1	1	1	1	0	1	-10,359408	274,929357	313,582789	0
15.01.2021	16:01:14	0	13,086346	4,631981	2,817	330,822	0,844	83,348	0	1016	8	9,7	9,5	1	1	1	1	1	1	1	1	1	0	1	-12,191684	275,010532	312,133271	0
15.01.2021	16:01:15	0	13,205313	2,824379	2,8545	335,2608	0,84	83,332	0	1016,1	8	9,7	9,5	1	1	1	1	1	1	1	1	1	0	1	-12,614517	275,128215	312,265935	0
15.01.2021	16:01:16	0	13,205313	4,744956	2,934	330,0084	0,842	83,342	0	1016,02	7,9	9,7	9,5	1	1	1	1	1	1	1	1	1	0	1	-10,359408	275,024617	314,031991	0
15.01.2021	16:01:17	0	13,086346	4,18008	2,95575	338,3748	0,837	83,33	0	1016	7,9	9,7	9,5	1	1	1	1	1	1	1	1	1	0	1	-7,892882	275,123494	316,965271	0
15.01.2021	16:01:18	0	12,967289	2,711403	2,793	344,2428	0,839	83,344	0	1016,02	8	9,8	9,5	1	1	1	1	1	1	1	1	1	0	1	-7,188161	275,117201	317,640272	0
15.01.2021	16:01:19	0	13,086255	2,259503	2,64225	348,6816	0,843	83,346	0	1016,08	8	9,8	9,5	1	1	1	1	1	1	1	1	1	0	1	-12,825934	274,988644	311,39578	0
15.01.2021	16:01:20	0	13,205313	3,163304	2,49	335,7432	0,839	83,34	0	1016,06	8	9,7	9,5	1	1	1	1	1	1	1	1	1	0	1	-12,121212	274,990207	312,107871	0
15.01.2021	16:01:21	0	13,324187	3,389254	2,664	335,2896	0,847	83,336	0	1016,04	7,9	9,8	9,5	1	1	1	1	1	1	1	1	1	0	1	-11,980268	274,924684	311,939907	0
15.01.2021	16:01:22	0	13,086346	4,293081	2,91375	341,6832	0,845	83,337	0	1016,08	8	9,7	9,4	1	1	1	1	1	1	1	1	1	0	1	-9,090909	274,996458	315,16766	0
15.01.2021	16:01:23	0	13,086346	4,857931	2,96925	333,8748	0,847	83,332	0	1016	8	9,7	9,5	1	1	1	1	1	1	1	1	1	0	1	-8,386187	274,934031	315,578039	0
15.01.2021	16:01:24	0	13,205313	2,711403	2,937	359,4852	0,841	83,335	0	1016,08	8	9,7	9,5	1	1	1	1	1	1	1	1	1	0	1	-11,06413	275,109338	313,727168	0
15.01.2021	16:01:25	0	13,32428	4,857931	3,09225	347,6052	0,841	83,338	0	1016,02	8	9,7	9,5	1	1	1	1	1	1	1	1	1	0	1	-9,866103	275,059088	314,687962	0
15.01.2021	16:01:26	0	12,96738	3,502208	3,11925	355,068	0,841	83,328	0	1015,92	8	9,7	9,6	1	1	1	1	1	1	1	1	1	0	1	-6,765328	274,938706	317,220935	0
15.01.2021	16:01:27	0	13,086346	4,29303	3,123	347,3892	0,84	83,326	0	1016,06	8	9,7	9,6	1	1	1	1	1	1	1	1	1	0	1	-13,389711	274,944941	310,625943	0
15.01.2021	16:01:28	0	13,205313	3,954106	2,92275	329,2956	0,838	83,329	0	1016,18	8	9,7	9,6	1	1	1	1	1	1	1	1	1	0	1	-6,131078	275,074777	318,497042	0
15.01.2021	16:01:29	0	13,086255	4,631981	2,6655	333,8892	0,84	83,317	0	1016,04	7,9	9,8	9,5	1	1	1	1	1	1	1	1	1	0	1	-9,090909	274,932473	314,865974	0
15.01.2021	16:01:30	0	13,086346	2,937354	2,5695	323,3628	0,84	83,334	0	1015,96	8	9,7	9,5	1	1	1	1	1	1	1	1	1	0	1	-14,587738	274,999585	309,685579	0
15.01.2021	16:01:31	0	12,96738	3,389254	2,78175	331,5132	0,836	83,331	0	1016,08	7,9	9,7	9,5	1	1	1	1	1	1	1	1	1	0	1	-14,65821	275,095192	310,066291	0
15.01.2021	16:01:32	0	13,086346	3,163304	3,03975	344,5884	0,842	83,334	0	1016,14	7,9	9,7	9,5	1	1	1	1	1	1	1	1	1	0	1	-9,513742	274,926242	314,413773	0
15.01.2021	16:01:33	0	12,848413	3,389254	2,99025	349,1172	0,844	83,332	0	1016,08	8	9,7	9,5	1	1	1	1	1	1	1	1	1	0	1	-10,147992	275,035578	314,295127	0
15.01.2021	16:01:34	0	12,729446	4,406031	2,736	339,1344	0,836	83,321	0	1016,04	8	9,7	9,5	1	1	1	1	1	1	1	1	1	0	1	-12,473573	275,112483	312,332576	0
15.01.2021	16:01:35	0	12,848413	2,711387	2,62575	339,4836	0,837	83,31	0	1015,9	8	9,7	9,6	1	1	1	1	1	1	1	1	1	0	1	-7,82241	275,076347	316,81312	0
15.01.2021	16:01:36	0	13,086346	3,841155	2,68875	353,1672	0,839	83,333	0	1016,16	7,9	9,7	9,5	1	1	1	1	1	1	1	1	1	0	1	-12,614517	274,988644	311,607196	0
15.01.2021	16:01:37	0	12,967289	4,406031	2,57625	347,292	0,842	83,322	0	1016,02	7,9	9,8	9,5	1	1	1	1	1	1	1	1	1	0	1	-9,44327	274,934031	314,520957	0
15.01.2021	16:01:38	0	12,729446	4,293055	2,43375	3,8628	0,84	83,333	0	1015,92	8	9,7	9,5	1	1	1	1	1	1	1	1	1	0	1	-8,597604	274,982395	315,594638	0
15.01.2021	16:01:39	0	12,848413	3,728202	2,19375	351,0252	0,842	83,333	0	1015,96	7,9	9,7	9,4	1	1	1	1	1	1	1	1	1	0	1	-8,527132	274,969902	315,606201	0
15.01.2021	16:01:40	0	12,96738	2,937354	2,09175	349,0128	0,844	83,321	0	1016,08	7,9	9,7	9,5	1	1	1	1	1	1	1	1	1	0	1	-7,188161	274,990207	317,040923	0
15.01.2021	16:01:41	0	12,96738	4,744956	2,09025	354,9708	0,845	83,324	0	1016,12	8	9,7	9,5	1	1	1	1	1	1	1	1	1	0	1	-10,852713	275,096763	313,879206	0
15.01.2021	16:01:42	0	13,086346	4,632009	2,19975	351,3672	0,842	83,329	0	1015,94	8	9,7	9,4	1	1	1	1	1	1	1	1	1	0	1	-11,980268	275,099906	312,766492	0
15.01.2021	16:01:43	0	13,086346	3,050329	2,3115	347,6088	0,842	83,327	0	1016,1	8	9,7	9,5	1	1	1	1	1	1	1	1	1	0	1	-10,288936	275,008968	314,02864	0
15.01.2021	16:01:44	0	12,610479	3,72818	2,33025	355,3668	0,839	83,334	0	1015,96	8	9,7	9,5	1	1	1	1	1	1	1	1	1	0	1	-13,248767	274,932473	310,708116	0
15.01.2021	16:01:45	0	12,729446	2,937371	2,21775	352,0836	0,844	83,341	0	1016,02	8	9,7	9,4	1	1	1	1	1	1	1	1	1	0	1	-13,6716	275,104621	311,097426	0
15.01.2021	16:01:46	0	12,96738	3,163304	2,1555	337,0608	0,841	83,323	0	1016,04	7,9	9,7	9,5	1	1	1	1	1	1	1	1	1	0	1	-9,302326	275,09205	315,407339	0
15.01.2021	16:01:47	0	12,848413	3,95413	2,10675	349,9704	0,841	83,319	0	1016,08	7,9	9,7	9,5	1	1	1	1	1	1	1	1	1	0	1	-10,359408	274,932473	313,597475	0
15.01.2021	16:01:48	0	12,848413	2,598413	2,03325	327,7764	0,836	83,319	0	1015,98	7,9	9,7	9,6	1	1	1	1	1	1	1	1	1	0	1	-15,362932	274,987081	308,851413	0
15.01.2021	16:01:49	0	12,729446	3,163285	2,03325	335,2896	0,842	83,337	0	1016,04	8	9,7	9,6	1	1	1	1	1	1	1	1	1	0	1	-9,866103	274,929357	314,076094	0
15.01.2021	16:01:50	0	12,610479	3,615205	1,9515	342,6624	0,835	83,33	0	1016,04	7,9	9,7	9,5	1	1	1	1	1	1	1	1	1	0	1	-11,06413	274,941823	312,936827	0
15.01.2021	16:01:51	0	12,610479	3,502229	1,89	350,2872	0,843	83,333	0	1016,1	8	9,7	9,5	1	1	1	1	1	1	1	1	1	0	1	-8,033827	275,065362	316,549852	0
15.01.2021	16:01:52	0	12,610479	3,954154	1,85325	347,1012	0,84	83,313	0	1016,06	7,9	9,7	9,4	1	1	1	1	1	1	1	1	1	0	1	-14,587738	274,949619	309,449967	0
15.01.2021	16:01:53	0	12,729446	4,519006	1,746	344,6748	0,836	83,317	0	1016	8	9,7	9,5	1	1	1	1	1	1	1	1	1	0	1	-10,923185	274,971463	313,217509	0
15.01.2021	16:01:54	0	12,610479	3,728157	1,7655	336,0348	0,845	83,311	0	1016	8	9,7	9,6	1	1	1	1	1	1	1	1	1	0	1	-10,359408	274,937147	313,619509	0
15.01.2021	16:01:55	0	12,729446	3,276279	1,7595	320,0004	0,843	83,335	0	1016,12	7,9	9,7	9,5	1	1	1	1	1	1	1	1	1	0	1	-5,355884	275,046546	319,138989	0
15.01.2021	16:01:56	0	12,96738	3,050347	1,87125	326,0484	0,841	83,322	0	1015,96	7,9	9,7	9,4	1	1	1	1	1	1	1	1	1	0	1	-13,460183	274,929357	310,482014	0
15.01.2021	16:01:57	0	12,372459	2,259489	1,94325	315,1656	0,839	83,332	0	1016,06	7,9	9,8	9,6	1	1	1	1	1	1	1	1	1	0	1	-8,315715	275,032446	316,112623	0
15.01.2021	16:01:58	0	12,491513	3,050329	1,9665	318,5028	0,84	83,337	0	1016,12	8	9,7	9,5	1	1	1	1	1	1	1	1	1	0	1	-6,906272	275,065362	317,677406	0
15.01.2021	16:01:59	0	12,848413	4,406004	1,84575	321,5448	0,844	83,332	0	1015,96	7,9	9,7	9,6	1	1	1	1	1	1	1	1	1	0	1	-6,694856	274,937147	317,284061	0
15.01.2021	16:02:00	0	12,491513	3,389254	1,74225	318,7764	0,85	83,334	0	1015,92	8	9,7	9,5	1	1	1	1	1	1	1	1	1	0	1	-5,567301	274,988644	318,654413	0
15.01.2021	16:02:01	0	12,491513	3,389254	1,74225	318,7764	0,85	83,334	0	1015,92	8	9,7	9,5	1	1	1	1	1	1	1	1	1	0	1	-10,359408	275,118774	314,476454	0
15.01.2021	16:02:02	0	12,372546	4,744956	1,80825	342,0324	0,845	83,323	0	1016,12	7,9	9,7	9,5	1	1	1	1	1	1	1	1	1	0	1	-9,513742	274,932473	314,443141	0
15.01.2021	16:02:03	0	12,253579	3,050329	1,77075	335,52	0,843	83,343	0	1016,06	7,9	9,7	9,5	1	1	1	1	1	1	1	1	1	0	1	-10,711769	274,963659	313,392127	0
15.01.2021	16:02:04	0	12,134612	4,744956	1,79325	339,0984	0,843	83,334	0	1016,04	7,9	9,7	9,5	1	1	1	1	1	1	1	1	1	0	1	-10,218464	275,077916	314,424476	0
15.01.2021	16:02:05	0	12,729446	3,841155	1,70625	339,1812	0,841	83,338	0	1016,02	7,9	9,7	9,5	1	1	1	1	1	1	1	1	1	0	1	-11,134602	275,037145	313,315908	0
15.01.2021	16:02:06	0	12,729446	5,083881	1,728	345,1284	0,841	83,315	0	1016,12	7,9	9,7	9,5	1	1	1	1	1	1	1	1	1	0	1	-12,332629	274,929357	311,609569	0
15.01.2021	16:02:07	0	12,253579	2,711403	1,69125	321,3288	0,844	83,334	0	1016,1	7,9	9,7	9,5	1	1	1	1	1	1	1	1	1	0	1	-14,235377	274,952738	309,817032	0
15.01.2021	16:02:08	0	12,491513	2,711387	1,85325	321,174	0,841	83,337	0	1015,98	7,9	9,7	9,6	1	1	1	1	1	1	1	1	1	0	1	-9,090909	274,951178	314,954147	0
15.01.2021	16:02:09	0	12,491513	2,598444	2,076	323,6976	0,844	83,331	0	1015,92	7,9	9,7	9,4	1	1	1	1	1	1	1	1	1	0	1	-11,627907	274,982395	312,564335	0
15.01.2021	16:02:10	0	12,491513	3,502229	2,26425	328,5972	0,841	83,316	0	1015,88	7,9	9,7	9,5	1	1	1	1	1	1	1	1	1	0	1	-7,751938	274,965219	316,359316	0
15.01.2021	16:02:11	0	12,491513	2,485453	2,33925	321,9516	0,84	83,319	0	1016,04	7,9	9,7	9,5	1	1	1	1	1	1	1	1	1	0	1	-11,557435	275,099906	313,189325	0
15.01.2021	16:02:12	0	12,610479	4,744956	2,379	327,0852	0,841	83,335	0	1016	7,9	9,7	9,5	1	1	1	1	1	1	1	1	1	0	1	-11,557435	274,955858	312,509681	0
15.01.2021	16:02:13	0	12,610479	2,937354	2,32725	325,5228	0,837	83,326	0	1016	7,9	9,7	9,5	1	1	1	1	1	1	1	1	1	0	1	-11,768851	274,926242	312,158663	0
15.01.2021	16:02:14	0	12,491513	3,276299	2,20575	332,0316	0,844	83,318	0	1016,16	7,9	9,7	9,4	1	1	1	1	1	1	1	1	1	0	1	-14,587738	275,049681	309,921929	0
15.01.2021	16:02:15	0	12,253579	3,841178	2,1765	346,9104	0,842	83,318	0	1015,92	7,9	9,7	9,4	1	1	1	1	1	1	1	1	1	0	1	-11,698379	274,934031	312,265848	0
15.01.2021	16:02:16	0	12,134612	2,937354	2,25975	348,7392	0,846	83,329	0	1015,86	7,9	9,7	9,5	1	1	1	1	1	1	1	1	1	0	1	-10,147992	274,954298	313,91177	0
15.01.2021	16:02:17	0	12,372546	3,954106	2,3445	352,0872	0,842	83,328	0	1015,98	7,9	9,7	9,6	1	1	1	1	1	1	1	1	1	0	1	-9,020437	274,982395	315,171805	0
15.01.2021	16:02:18	0	12,372546	4,519006	2,29275	348,7212	0,841	83,316	0	1015,9	7,9	9,7	9,5	1	1	1	1	1	1	1	1	1	0	1	-8,174771	275,101478	316,57941	0
15.01.2021	16:02:19	0	12,610479	4,519033	2,076	342,0828	0,844	83,319	0	1015,98	7,9	9,7	9,4	1	1	1	1	1	1	1	1	1	0	1	-11,909796	275,051248	312,607269	0
15.01.2021	16:02:20	0	12,610479	3,050329	1,98075	329,292	0,846	83,318	0	1016	7,9	9,7	9,5	1	1	1	1	1	1	1	1	1	0	1	-6,694856	274,912229	317,166622	0
15.01.2021	16:02:21	0	12,610479	4,406004	1,881	337,5864	0,842	83,323	0	1015,96	7,9	9,7	9,6	1	1	1	1	1	1	1	1	1	0	1	-13,601128	275,065362	310,982551	0
15.01.2021	16:02:22	0	12,610479	4,293055	1,74825	343,9656	0,841	83,328	0	1015,98	7,9	9,7	9,5	1	1	1	1	1	1	1	1	1	0	1	-10,500352	274,963659	313,603544	0
15.01.2021	16:02:23	0	12,253579	4,519006	1,6845	342,7956	0,836	83,323	0	1016,12	7,9	9,7	9,5	1	1	1	1	1	1	1	1	1	0	1	-8,45666	275,074777	316,171461	0
15.01.2021	16:02:24	0	12,134612	3,050329	1,73625	328,9068	0,845	83,327	0	1016,04	7,9	9,7	9,5	1	1	1	1	1	1	1	1	1	0	1	-9,725159	275,081056	314,932604	0
15.01.2021	16:02:25	0	12,729446	3,615183	1,767	351,0324	0,84	83,321	0	1015,98	7,9	9,7	9,6	1	1	1	1	1	1	1	1	1	0	1	-9,231853	274,958978	314,849972	0
15.01.2021	16:02:26	0	12,253579	3,841155	1,81275	337,1616	0,837	83,318	0	1015,86	7,9	9,7	9,5	1	1	1	1	1	1	1	1	1	0	1	-10,147992	274,924684	313,772183	0
15.01.2021	16:02:27	0	12,610479	4,744956	1,9545	344,3004	0,838	83,312	0	1016,06	7,9	9,7	9,5	1	1	1	1	1	1	1	1	1	0	1	-7,681466	274,987081	316,532879	0
15.01.2021	16:02:28	0	12,134612	2,71142	1,9845	338,7384	0,837	83,328	0	1015,98	7,9	9,7	9,4	1	1	1	1	1	1	1	1	1	0	1	-6,553911	274,921569	317,351585	0
15.01.2021	16:02:29	0	12,372546	2,937336	1,9875	338,3496	0,834	83,315	0	1016,1	7,9	9,7	9,6	1	1	1	1	1	1	1	1	1	0	1	-11,557435	274,969902	312,575898	0
15.01.2021	16:02:30	0	12,015645	2,485453	2,00325	333,4068	0,842	83,314	0	1015,98	7,9	9,7	9,5	1	1	1	1	1	1	1	1	1	0	1	-12,896406	275,09205	311,813259	0
15.01.2021	16:02:31	0	12,253579	2,598413	1,9815	336,42	0,838	83,327	0	1016,04	7,9	9,7	9,6	1	1	1	1	1	1	1	1	1	0	1	-8,738548	275,054384	315,793314	0
15.01.2021	16:02:32	0	12,491513	3,841178	1,9545	332,4096	0,84	83,31	0	1015,96	7,9	9,7	9,4	1	1	1	1	1	1	1	1	1	0	1	-14,023961	275,077916	310,618979	0
15.01.2021	16:02:33	0	12,253579	3,502229	1,863	341,7012	0,842	83,311	0	1016,02	7,9	9,7	9,5	1	1	1	1	1	1	1	1	1	0	1	-11,839323	274,934031	312,124903	0
15.01.2021	16:02:34	0	12,134612	2,372464	1,887	327,1392	0,837	83,296	0	1016	7,9	9,7	9,6	1	1	1	1	1	1	1	1	1	0	1	-10,007047	274,971463	314,133647	0
15.01.2021	16:02:35	0	12,134612	2,598428	1,80375	325,206	0,843	83,33	0	1016,06	7,9	9,7	9,5	1	1	1	1	1	1	1	1	1	0	1	-10,42988	274,918455	313,46094	0
15.01.2021	16:02:36	0	11,896679	2,824379	1,82475	330,0624	0,84	83,314	0	1016,04	7,9	9,7	9,5	1	1	1	1	1	1	1	1	1	0	1	-12,121212	274,968341	312,004761	0
15.01.2021	16:02:37	0	12,253579	2,598444	1,9335	341,6688	0,835	83,318	0	1016,04	7,9	9,7	9,4	1	1	1	1	1	1	1	1	1	0	1	-11,768851	274,965219	312,342403	0
15.01.2021	16:02:38	0	12,134612	4,631981	2,01525	332,0352	0,844	83,318	0	1016,04	7,9	9,7	9,5	1	1	1	1	1	1	1	1	1	0	1	-7,329105	275,090479	317,373143	0
15.01.2021	16:02:39	0	12,491513	4,631981	2,0535	337,5288	0,842	83,319	0	1016,12	7,9	9,7	9,5	1	1	1	1	1	1	1	1	1	0	1	-9,654686	275,0685	314,943803	0
15.01.2021	16:02:40	0	12,372546	4,631953	2,0505	342,0612	0,842	83,317	0	1016,16	7,9	9,7	9,6	1	1	1	1	1	1	1	1	1	0	1	-12,05074	274,909116	311,796071	0
15.01.2021	16:02:41	0	12,015645	4,519006	2,082	340,9092	0,836	83,307	0	1016,14	7,9	9,7	9,5	1	1	1	1	1	1	1	1	1	0	1	-9,231853	275,048113	315,270416	0
15.01.2021	16:02:42	0	12,134612	3,163323	2,11125	335,6892	0,843	83,317	0	1015,96	7,9	9,7	9,4	1	1	1	1	1	1	1	1	1	0	1	-9,302326	274,921569	314,60317	0
15.01.2021	16:02:43	0	12,253579	4,970906	2,07075	340,236	0,84	83,328	0	1015,92	7,9	9,7	9,5	1	1	1	1	1	1	1	1	1	0	1	-8,879493	275,063793	315,696781	0
15.01.2021	16:02:44	0	12,253579	3,615205	2,05575	348,3072	0,839	83,32	0	1016,04	7,9	9,7	9,5	1	1	1	1	1	1	1	1	1	0	1	-5,567301	274,96678	318,551312	0
15.01.2021	16:02:45	0	12,015645	2,937354	2,20875	339,6996	0,842	83,308	0	1016	7,9	9,7	9,5	1	1	1	1	1	1	1	1	1	0	1	-12,473573	274,918455	311,417247	0
15.01.2021	16:02:46	0	12,015645	2,711403	2,31	337,536	0,843	83,352	0	1016,26	7,9	9,7	9,5	1	1	1	1	1	1	1	1	1	0	1	-13,389711	274,96678	310,728902	0
15.01.2021	16:02:47	0	12,610479	4,970906	2,39925	336,06	0,841	83,31	0	1016,04	7,9	9,7	9,5	1	1	1	1	1	1	1	1	1	0	1	-13,389711	274,915342	310,486437	0
15.01.2021	16:02:48	0	12,491513	4,293081	2,39925	347,1696	0,841	83,321	0	1016,04	7,9	9,7	9,4	1	1	1	1	1	1	1	1	1	0	1	-10,218464	274,977709	313,951682	0
15.01.2021	16:02:49	0	12,134612	4,18008	2,33925	343,1556	0,839	83,32	0	1016,04	7,9	9,7	9,5	1	1	1	1	1	1	1	1	1	0	1	-12,121212	275,098334	312,618127	0
15.01.2021	16:02:50	0	12,134612	2,259503	2,20725	332,4348	0,838	83,319	0	1015,94	7,9	9,7	9,5	1	1	1	1	1	1	1	1	1	0	1	-8,386187	275,012097	315,946147	0
15.01.2021	16:02:51	0	12,134612	4,631981	2,00025	313,992	0,841	83,31	0	1016	7,9	9,7	9,5	1	1	1	1	1	1	1	1	1	0	1	-13,812544	275,09205	310,897121	0
15.01.2021	16:02:52	0	12,015645	3,841155	1,947	325,476	0,839	83,315	0	1016,1	7,9	9,7	9,5	1	1	1	1	1	1	1	1	1	0	1	-10,288936	274,949619	313,748769	0
15.01.2021	16:02:53	0	12,134612	2,824379	1,91925	329,2164	0,842	83,326	0	1016,08	7,9	9,7	9,5	1	1	1	1	1	1	1	1	1	0	1	-13,248767	274,912229	310,612711	0
15.01.2021	16:02:54	0	12,015645	3,276279	2,03325	343,8648	0,84	83,307	0	1016	7,9	9,7	9,5	1	1	1	1	1	1	1	1	1	0	1	-12,332629	275,043412	312,147454	0
15.01.2021	16:02:55	0	12,372546	2,937354	2,148	340,2252	0,84	83,315	0	1016,06	7,9	9,7	9,5	1	1	1	1	1	1	1	1	1	0	1	-9,231853	274,927799	314,703002	0
15.01.2021	16:02:56	0	12,372546	4,857931	2,27775	346,7484	0,847	83,338	0	1016,02	8	9,7	9,5	1	1	1	1	1	1	1	1	1	0	1	-5,285412	275,060656	319,276055	0
15.01.2021	16:02:57	0	12,253579	4,406031	2,33625	342,7488	0,835	83,272	0	1016,06	8	9,7	9,5	1	1	1	1	1	1	1	1	1	0	1	-10,993658	275,034012	313,44207	0
15.01.2021	16:02:58	0	12,134612	4,631981	2,45775	342,0936	0,839	83,321	0	1016,02	7,9	9,7	9,5	1	1	1	1	1	1	1	1	1	0	1	-8,45666	275,079486	316,193691	0
15.01.2021	16:02:59	0	12,015645	4,857931	2,5965	336,7728	0,842	83,314	0	1016	8	9,7	9,5	1	1	1	1	1	1	1	1	1	0	1	-9,584214	274,962098	314,512324	0
15.01.2021	16:03:00	0	12,253579	4,519006	2,42175	340,5168	0,838	83,308	0	1015,96	7,9	9,7	9,5	1	1	1	1	1	1	1	1	1	0	1	-8,033827	275,085767	316,646175	0
15.01.2021	16:03:01	0	12,253579	4,519006	2,42175	340,5168	0,838	83,308	0	1015,96	7,9	9,7	9,5	1	1	1	1	1	1	1	1	1	0	1	-10,288936	275,023051	314,095078	0
15.01.2021	16:03:02	0	12,015645	3,72818	2,48175	342,3456	0,838	83,297	0	1016,08	7,9	9,7	9,5	1	1	1	1	1	1	1	1	1	0	1	-10,993658	275,076347	313,641872	0
15.01.2021	16:03:03	0	11,658745	2,259489	2,427	333,1116	0,835	83,306	0	1015,92	8	9,7	9,6	1	1	1	1	1	1	1	1	1	0	1	-9,090909	274,957418	314,983561	0
15.01.2021	16:03:04	0	12,134612	2,598428	2,38425	340,9056	0,843	83,312	0	1016,16	8	9,7	9,5	1	1	1	1	1	1	1	1	1	0	1	-10,007047	275,044979	314,48043	0
15.01.2021	16:03:05	0	11,896679	3,841155	2,2965	338,3496	0,841	83,299	0	1015,98	7,9	9,7	9,5	1	1	1	1	1	1	1	1	1	0	1	-10,147992	275,065362	314,435687	0
15.01.2021	16:03:06	0	12,134612	2,824379	2,2605	330,0552	0,843	83,314	0	1016,02	7,9	9,7	9,5	1	1	1	1	1	1	1	1	1	0	1	-9,795631	275,00584	314,507189	0
15.01.2021	16:03:07	0	12,015645	3,276279	2,23875	337,1688	0,842	83,311	0	1016,06	8	9,7	9,5	1	1	1	1	1	1	1	1	1	0	1	-8,879493	274,937147	315,099424	0
15.01.2021	16:03:08	0	12,015645	2,937354	2,3025	337,914	0,841	83,305	0	1016,02	8	9,7	9,5	1	1	1	1	1	1	1	1	1	0	1	-9,795631	274,954298	314,264131	0
15.01.2021	16:03:09	0	11,777712	4,406031	2,3325	346,1004	0,843	83,299	0	1015,92	8	9,7	9,5	1	1	1	1	1	1	1	1	1	0	1	-10,993658	274,951178	313,051399	0
15.01.2021	16:03:10	0	11,539778	2,937354	2,33325	346,158	0,841	83,307	0	1016,1	8	9,7	9,5	1	1	1	1	1	1	1	1	1	0	1	-9,936575	275,084197	314,736013	0
15.01.2021	16:03:11	0	11,896679	4,631981	2,388	337,212	0,841	83,305	0	1016,1	8	9,7	9,5	1	1	1	1	1	1	1	1	1	0	1	-14,587738	274,951178	309,457319	0
15.01.2021	16:03:12	0	11,658745	2,824379	2,454	340,5924	0,843	83,305	0	1016,02	8	9,7	9,5	1	1	1	1	1	1	1	1	1	0	1	-6,976744	275,073207	317,643967	0
15.01.2021	16:03:13	0	12,134612	3,050329	2,42925	342,3492	0,838	83,29	0	1016	7,9	9,7	9,5	1	1	1	1	1	1	1	1	1	0	1	-8,386187	275,018356	315,975674	0
15.01.2021	16:03:14	0	11,777712	4,970906	2,49075	356,1804	0,831	83,284	0	1015,9	8	9,7	9,5	1	1	1	1	1	1	1	1	1	0	1	-8,738548	275,088908	315,956284	0
15.01.2021	16:03:15	0	11,539778	3,050329	2,4975	0,108	0,838	83,298	0	1016,06	8	9,7	9,5	1	1	1	1	1	1	1	1	1	0	1	-6,272023	275,037145	318,178487	0
15.01.2021	16:03:16	0	11,777712	3,72818	2,44275	331,0884	0,834	83,289	0	1016,04	8	9,7	9,5	1	1	1	1	1	1	1	1	1	0	1	-13,107822	275,03088	311,313126	0
15.01.2021	16:03:17	0	11,896679	4,406031	2,42775	345,114	0,84	83,295	0	1016,06	8	9,7	9,5	1	1	1	1	1	1	1	1	1	0	1	-6,131078	274,885788	317,605821	0
15.01.2021	16:03:18	0	12,134612	5,083881	2,27775	341,3448	0,839	83,274	0	1016,12	8	9,7	9,5	1	1	1	1	1	1	1	1	1	0	1	-8,315715	275,015226	316,031381	0
15.01.2021	16:03:19	0	11,896679	4,744956	2,16825	342,054	0,839	83,293	0	1016,08	8	9,7	9,5	1	1	1	1	1	1	1	1	1	0	1	-6,624383	275,081056	318,033379	0
15.01.2021	16:03:20	0	11,777712	2,711403	2,13225	338,4036	0,843	83,282	0	1016,14	8	9,7	9,5	1	1	1	1	1	1	1	1	1	0	1	-10,570825	275,010532	313,75413	0
15.01.2021	16:03:21	0	11,777712	4,406031	2,15775	339,39	0,84	83,303	0	1016,02	7,9	9,7	9,5	1	1	1	1	1	1	1	1	1	0	1	-11,275546	274,94806	312,754807	0
15.01.2021	16:03:22	0	11,777712	3,95413	2,2035	344,2392	0,843	83,282	0	1016,08	8	9,7	9,5	1	1	1	1	1	1	1	1	1	0	1	-6,976744	275,073207	317,643967	0
15.01.2021	16:03:23	0	11,896679	4,406031	2,20725	341,7156	0,844	83,286	0	1016,12	8	9,7	9,5	1	1	1	1	1	1	1	1	1	0	1	-9,302326	274,963659	314,80157	0
15.01.2021	16:03:24	0	11,658745	4,744956	2,1825	355,14	0,843	83,283	0	1016,08	8	9,7	9,5	1	1	1	1	1	1	1	1	1	0	1	-12,544045	274,885788	311,192854	0
15.01.2021	16:03:25	0	11,539778	2,598428	2,19675	349,434	0,837	83,277	0	1016,04	8	9,7	9,5	1	1	1	1	1	1	1	1	1	0	1	-11,346018	275,040278	313,119276	0
15.01.2021	16:03:26	0	11,539778	3,163304	2,109	354,2652	0,834	83,27	0	1015,92	8	9,7	9,5	1	1	1	1	1	1	1	1	1	0	1	-6,765328	274,934031	317,198899	0
15.01.2021	16:03:27	0	11,420811	3,72818	2,028	355,0176	0,838	83,277	0	1016,08	8	9,7	9,5	1	1	1	1	1	1	1	1	1	0	1	-11,486963	274,904448	312,337853	0
15.01.2021	16:03:28	0	11,896679	2,485453	2,00625	357,642	0,839	83,267	0	1015,98	8	9,7	9,5	1	1	1	1	1	1	1	1	1	0	1	-7,681466	275,016791	316,673013	0
15.01.2021	16:03:29	0	12,015645	3,95413	1,9365	337,9464	0,838	83,274	0	1016,02	8	9,7	9,5	1	1	1	1	1	1	1	1	1	0	1	-9,513742	275,051248	315,003323	0
15.01.2021	16:03:30	0	11,539778	3,389254	1,902	351,378	0,842	83,281	0	1016,02	8	9,7	9,5	1	1	1	1	1	1	1	1	1	0	1	-9,020437	275,051248	315,496628	0
15.01.2021	16:03:31	0	12,134612	4,631981	1,87875	351,6552	0,834	83,274	0	1016,04	8	9,7	9,5	1	1	1	1	1	1	1	1	1	0	1	-6,20155	275,049681	318,308116	0
15.01.2021	16:03:32	0	11,539778	3,841155	1,9155	341,3124	0,833	83,265	0	1015,98	8	9,7	9,5	1	1	1	1	1	1	1	1	1	0	1	-12,614517	275,073207	312,006194	0
15.01.2021	16:03:33	0	11,896679	4,519006	1,93875	341,6688	0,836	83,255	0	1016,08	8	9,7	9,5	1	1	1	1	1	1	1	1	1	0	1	-7,329105	274,938706	316,657158	0
15.01.2021	16:03:34	0	11,539778	2,824379	1,88325	338,4288	0,837	83,255	0	1015,96	8	9,7	9,5	1	1	1	1	1	1	1	1	1	0	1	-13,883016	274,90756	309,956462	0
15.01.2021	16:03:35	0	11,420811	2,711403	1,8045	354,3012	0,838	83,277	0	1015,88	8	9,7	9,5	1	1	1	1	1	1	1	1	1	0	1	-9,584214	275,066931	315,006869	0
15.01.2021	16:03:36	0	11,301845	2,824379	1,71225	349,074	0,835	83,268	0	1016	8	9,7	9,5	1	1	1	1	1	1	1	1	1	0	1	-7,329105	275,019921	317,04014	0
15.01.2021	16:03:37	0	12,015645	4,970906	1,68075	347,1228	0,839	83,27	0	1016,02	8	9,7	9,5	1	1	1	1	1	1	1	1	1	0	1	-8,879493	274,899781	314,923334	0
15.01.2021	16:03:38	0	11,658745	2,824379	1,72725	349,4772	0,86	83,26	0	1016,26	8	9,7	9,5	1	1	1	1	1	1	1	1	1	0	1	-12,332629	274,943382	311,675676	0
15.01.2021	16:03:39	0	11,658745	4,18008	1,7025	347,9328	0,831	83,264	0	1016,08	8	9,7	9,5	1	1	1	1	1	1	1	1	1	0	1	-9,090909	274,918455	314,799911	0
15.01.2021	16:03:40	0	11,658745	4,857931	1,7055	347,544	0,837	83,258	0	1015,92	8	9,7	9,5	1	1	1	1	1	1	1	1	1	0	1	-7,892882	275,065362	316,690796	0
15.01.2021	16:03:41	0	11,539778	3,502229	1,81575	344,3544	0,837	83,272	0	1015,88	8	9,7	9,5	1	1	1	1	1	1	1	1	1	0	1	-8,527132	274,934031	315,437095	0
15.01.2021	16:03:42	0	11,420811	2,711403	2,15175	344,7324	0,837	83,265	0	1016,04	8	9,7	9,5	1	1	1	1	1	1	1	1	1	0	1	-12,544045	275,071638	312,069258	0
15.01.2021	16:03:43	0	11,658745	4,406031	2,28825	338,418	0,836	83,273	0	1016,06	8	9,7	9,5	1	1	1	1	1	1	1	1	1	0	1	-5,21494	274,985519	318,992036	0
15.01.2021	16:03:44	0	11,658745	3,050329	2,39025	345,4056	0,835	83,277	0	1015,8	8	9,7	9,5	1	1	1	1	1	1	1	1	1	0	1	-7,470049	274,887342	316,274173	0
15.01.2021	16:03:45	0	11,658745	2,598428	2,37375	341,298	0,835	83,272	0	1015,96	8	9,7	9,5	1	1	1	1	1	1	1	1	1	0	1	-8,527132	274,887342	315,21709	0
15.01.2021	16:03:46	0	11,539778	4,519006	2,3295	340,9596	0,842	83,265	0	1015,9	8	9,7	9,5	1	1	1	1	1	1	1	1	1	0	1	-9,866103	275,027748	314,54007	0
15.01.2021	16:03:47	0	11,658745	3,163304	2,28	343,1412	0,832	83,256	0	1015,92	8	9,7	9,5	1	1	1	1	1	1	1	1	1	0	1	-8,386187	274,937147	315,592729	0
15.01.2021	16:03:48	0	11,301845	3,050329	2,22825	340,578	0,837	83,273	0	1016,08	8	9,7	9,5	1	1	1	1	1	1	1	1	1	0	1	-10,218464	274,898226	313,577035	0
15.01.2021	16:03:49	0	11,777794	4,519006	2,25675	345,7764	0,833	83,279	0	1016	8	9,6	9,5	1	1	1	1	1	1	1	1	1	0	1	-10,147992	274,957418	313,926479	0
15.01.2021	16:03:50	0	11,539778	3,389254	2,286	342,6912	0,839	83,279	0	1016	8	9,7	9,5	1	1	1	1	1	1	1	1	1	0	1	-9,090909	274,915342	314,785239	0
15.01.2021	16:03:51	0	11,539778	4,631981	2,2965	339,1776	0,838	83,282	0	1016,02	8	9,7	9,5	1	1	1	1	1	1	1	1	1	0	1	-7,329105	275,037145	317,121405	0
15.01.2021	16:03:52	0	11,658745	2,824379	2,20275	339,9552	0,836	83,273	0	1016,08	8	9,7	9,5	1	1	1	1	1	1	1	1	1	0	1	-8,245243	274,999585	316,028073	0
15.01.2021	16:03:53	0	11,301845	4,293055	2,22825	332,8236	0,831	83,271	0	1015,96	8	9,7	9,5	1	1	1	1	1	1	1	1	1	0	1	-9,513742	275,05752	315,032922	0
15.01.2021	16:03:54	0	11,420811	2,598428	2,25525	328,554	0,839	83,289	0	1015,94	8	9,7	9,5	1	1	1	1	1	1	1	1	1	0	1	-9,44327	274,979271	314,73424	0
15.01.2021	16:03:55	0	11,420811	4,970906	2,295	324,018	0,838	83,269	0	1015,98	8	9,7	9,5	1	1	1	1	1	1	1	1	1	0	1	-12,121212	275,027748	312,28496	0
15.01.2021	16:03:56	0	11,420811	3,502229	2,4375	325,9692	0,839	83,271	0	1015,96	8	9,7	9,5	1	1	1	1	1	1	1	1	1	0	1	-14,164905	275,054384	310,366958	0
15.01.2021	16:03:57	0	11,539778	3,050329	2,541	330,3108	0,84	83,283	0	1016,02	8	9,7	9,5	1	1	1	1	1	1	1	1	1	0	1	-8,879493	275,035578	315,563626	0
15.01.2021	16:03:58	0	11,301845	2,937354	2,52	322,5528	0,841	83,292	0	1016,1	8	9,7	9,5	1	1	1	1	1	1	1	1	1	0	1	-9,936575	275,070069	314,669321	0
15.01.2021	16:03:59	0	11,777712	3,050329	2,4285	333,4788	0,834	83,275	0	1016	8	9,7	9,5	1	1	1	1	1	1	1	1	1	0	1	-8,104299	275,021486	316,27233	0
15.01.2021	16:04:00	0	11,182878	3,389254	2,034	327,8088	0,845	83,294	0	1016,14	8	9,7	9,5	1	1	1	1	1	1	1	1	1	0	1	-7,399577	274,920012	316,498581	0
15.01.2021	16:04:01	0	11,182878	3,389254	2,034	327,8088	0,845	83,294	0	1016,14	8	9,7	9,5	1	1	1	1	1	1	1	1	1	0	1	-8,033827	275,059088	316,520238	0
15.01.2021	16:04:02	0	10,944944	2,598428	1,87725	339,1092	0,833	83,291	0	1016,02	8	9,7	9,5	1	1	1	1	1	1	1	1	1	0	1	-8,174771	274,969902	315,958562	0
15.01.2021	16:04:03	0	10,944944	2,259503	1,69725	325,458	0,837	83,29	0	1015,9	8	9,7	9,5	1	1	1	1	1	1	1	1	1	0	1	-11,205074	274,884233	312,524504	0
15.01.2021	16:04:04	0	11,301845	3,502229	1,581	327,7944	0,837	83,289	0	1016,04	8	9,7	9,5	1	1	1	1	1	1	1	1	1	0	1	-14,094433	275,063793	310,481841	0
15.01.2021	16:04:05	0	11,420811	2,259503	1,72275	314,8524	0,844	83,291	0	1016,02	8	9,7	9,5	1	1	1	1	1	1	1	1	1	0	1	-7,82241	275,004276	316,473033	0
15.01.2021	16:04:06	0	11,182878	4,519006	1,827	323,388	0,844	83,286	0	1015,98	8	9,7	9,5	1	1	1	1	1	1	1	1	1	0	1	-10,570825	275,040278	313,89447	0
15.01.2021	16:04:07	0	11,301845	1,920577	2,07525	332,0316	0,843	83,275	0	1015,9	8	9,7	9,5	1	1	1	1	1	1	1	1	1	0	1	-12,966878	274,898226	310,828621	0
15.01.2021	16:04:08	0	11,420811	3,389254	2,22675	322,1676	0,84	83,29	0	1015,92	7,8	9,7	9,5	1	1	1	1	1	1	1	1	1	0	1	-9,725159	274,912229	314,136319	0
15.01.2021	16:04:09	0	11,063911	2,598428	2,22	336,3552	0,842	83,282	0	1016	8	9,7	9,5	1	1	1	1	1	1	1	1	1	0	1	-6,694856	274,885788	317,042044	0
15.01.2021	16:04:10	0	10,825977	2,372478	2,205	321,4116	0,842	83,281	0	1015,76	8	9,7	9,5	1	1	1	1	1	1	1	1	1	0	1	-12,191684	275,023051	312,192329	0
15.01.2021	16:04:11	0	11,301845	4,406031	2,1765	329,8068	0,842	83,285	0	1015,94	7,8	9,7	9,5	1	1	1	1	1	1	1	1	1	0	1	-13,248767	275,012097	311,083568	0
15.01.2021	16:04:12	0	11,658745	4,519006	2,16675	331,4196	0,838	83,263	0	1016	8	9,7	9,5	1	1	1	1	1	1	1	1	1	0	1	-14,376321	275,059088	310,177744	0
15.01.2021	16:04:13	0	11,420811	2,598428	2,09175	344,6424	0,843	83,285	0	1015,98	8	9,7	9,5	1	1	1	1	1	1	1	1	1	0	1	-13,248767	275,010532	311,076188	0
15.01.2021	16:04:14	0	11,182878	4,970906	1,8945	353,5092	0,843	83,278	0	1015,92	8	9,7	9,5	1	1	1	1	1	1	1	1	1	0	1	-7,82241	275,051248	316,694655	0
15.01.2021	16:04:15	0	11,420811	3,72818	1,71225	348,3252	0,835	83,277	0	1015,98	7,8	9,7	9,5	1	1	1	1	1	1	1	1	1	0	1	-10,852713	274,991769	313,38374	0
15.01.2021	16:04:16	0	11,063911	4,631981	1,542	348,7212	0,84	83,26	0	1016	8	9,7	9,5	1	1	1	1	1	1	1	1	1	0	1	-10,147992	275,004276	314,147451	0
15.01.2021	16:04:17	0	10,826053	2,598428	1,48425	0,4824	0,836	83,274	0	1016,16	7,8	9,6	9,5	1	1	1	1	1	1	1	1	1	0	1	-6,765328	274,888896	316,986217	0
15.01.2021	16:04:18	0	10,944944	2,598428	1,512	348,6456	0,834	83,258	0	1016,08	8	9,7	9,5	1	1	1	1	1	1	1	1	1	0	1	-11,41649	274,934031	312,547736	0
15.01.2021	16:04:19	0	11,182878	4,18008	1,6485	345,0996	0,834	83,271	0	1015,88	8	9,7	9,5	1	1	1	1	1	1	1	1	1	0	1	-10,007047	274,902892	313,810438	0
15.01.2021	16:04:20	0	10,944944	4,067105	1,8015	350,9712	0,836	83,26	0	1015,98	8	9,7	9,5	1	1	1	1	1	1	1	1	1	0	1	-10,500352	275,019921	313,868892	0
15.01.2021	16:04:21	0	11,063911	2,824379	1,90875	347,202	0,841	83,266	0	1016,04	8	9,7	9,5	1	1	1	1	1	1	1	1	1	0	1	-7,963354	275,074777	316,664766	0
15.01.2021	16:04:22	0	10,945021	2,485453	1,92525	343,9764	0,841	83,273	0	1016,08	7,8	9,6	9,5	1	1	1	1	1	1	1	1	1	0	1	-7,751938	275,077916	316,891002	0
15.01.2021	16:04:23	0	11,182878	2,598428	1,90875	344,3328	0,841	83,265	0	1016,04	8	9,7	9,5	1	1	1	1	1	1	1	1	1	0	1	-8,879493	275,001149	315,401199	0
15.01.2021	16:04:24	0	11,182878	4,631981	1,83975	347,6268	0,843	83,271	0	1016	8	9,7	9,5	1	1	1	1	1	1	1	1	1	0	1	-8,527132	275,060656	316,034336	0
15.01.2021	16:04:25	0	11,063989	4,857931	1,86525	333,4248	0,843	83,262	0	1016,04	8	9,6	9,5	1	1	1	1	1	1	1	1	1	0	1	-12,544045	275,013661	311,79567	0
15.01.2021	16:04:26	0	11,063989	3,050329	1,929	327,978	0,836	83,252	0	1015,88	8	9,6	9,5	1	1	1	1	1	1	1	1	1	0	1	-9,584214	274,910672	314,26993	0
15.01.2021	16:04:27	0	10,825977	2,824379	1,96125	324,0324	0,838	83,26	0	1016,02	8	9,7	9,5	1	1	1	1	1	1	1	1	1	0	1	-13,178295	274,890451	310,580574	0
15.01.2021	16:04:28	0	11,182878	3,050329	1,932	325,2204	0,841	83,243	0	1015,98	7,8	9,7	9,5	1	1	1	1	1	1	1	1	1	0	1	-8,668076	274,932473	315,288807	0
15.01.2021	16:04:29	0	11,063911	4,519006	1,827	320,4504	0,844	83,279	0	1016,08	8	9,7	9,5	1	1	1	1	1	1	1	1	1	0	1	-8,527132	274,932473	315,429751	0
15.01.2021	16:04:30	0	11,301845	3,841155	1,6635	329,6484	0,844	83,272	0	1016	8	9,7	9,5	1	1	1	1	1	1	1	1	1	0	1	-11,205074	274,873357	312,473272	0
15.01.2021	16:04:31	0	11,301924	3,841155	1,63125	321,9048	0,842	83,266	0	1015,96	7,8	9,6	9,5	1	1	1	1	1	1	1	1	1	0	1	-10,500352	274,996458	313,758217	0
15.01.2021	16:04:32	0	11,063989	3,050329	1,5765	327,1824	0,836	83,241	0	1016	7,8	9,6	9,5	1	1	1	1	1	1	1	1	1	0	1	-12,403101	274,910672	311,451043	0
15.01.2021	16:04:33	0	10,944944	3,502229	1,5	338,0364	0,843	83,256	0	1016,02	7,8	9,7	9,5	1	1	1	1	1	1	1	1	1	0	1	-8,949965	275,074777	315,678155	0
15.01.2021	16:04:34	0	10,944944	3,95413	1,5165	330,7608	0,833	83,255	0	1015,94	7,8	9,7	9,5	1	1	1	1	1	1	1	1	1	0	1	-12,473573	274,979271	311,703937	0
15.01.2021	16:04:35	0	10,825977	3,163304	1,5765	334,1808	0,839	83,253	0	1015,96	7,8	9,7	9,5	1	1	1	1	1	1	1	1	1	0	1	-10,993658	274,918455	312,897163	0
15.01.2021	16:04:36	0	11,063911	4,744956	1,578	333,5256	0,841	83,255	0	1016,04	8	9,7	9,5	1	1	1	1	1	1	1	1	1	0	1	-7,610994	275,055952	316,928269	0
15.01.2021	16:04:37	0	11,301845	4,744956	1,506	325,9368	0,832	83,236	0	1016	7,8	9,7	9,5	1	1	1	1	1	1	1	1	1	0	1	-9,725159	275,00584	314,577661	0
15.01.2021	16:04:38	0	10,944944	2,372478	1,455	322,5888	0,833	83,261	0	1016,02	8	9,7	9,5	1	1	1	1	1	1	1	1	1	0	1	-10,923185	275,065362	313,660493	0
15.01.2021	16:04:39	0	10,825977	3,276279	1,386	344,3652	0,843	83,252	0	1016,06	8	9,7	9,5	1	1	1	1	1	1	1	1	1	0	1	-9,725159	274,895116	314,055686	0
15.01.2021	16:04:40	0	10,707011	3,163304	1,3125	343,5948	0,837	83,267	0	1016,04	8	9,7	9,5	1	1	1	1	1	1	1	1	1	0	1	-8,033827	274,923127	315,879008	0
15.01.2021	16:04:41	0	10,46915	2,372478	1,23375	330,6708	0,845	83,257	0	1016,12	7,8	9,6	9,5	1	1	1	1	1	1	1	1	1	0	1	-8,245243	274,873357	315,433103	0
15.01.2021	16:04:42	0	10,707011	2,711403	1,25475	326,0232	0,837	83,247	0	1016,02	7,8	9,7	9,5	1	1	1	1	1	1	1	1	1	0	1	-9,44327	274,915342	314,432878	0
15.01.2021	16:04:43	0	10,588118	2,259503	1,299	334,5696	0,839	83,269	0	1015,98	7,8	9,6	9,5	1	1	1	1	1	1	1	1	1	0	1	-12,614517	274,873357	311,063828	0
15.01.2021	16:04:44	0	10,469077	2,372478	1,26375	340,1352	0,842	83,253	0	1016,1	8	9,7	9,5	1	1	1	1	1	1	1	1	1	0	1	-9,866103	274,915342	314,010045	0
15.01.2021	16:04:45	0	10,825977	3,841155	1,30275	339,0984	0,84	83,262	0	1016,08	7,8	9,7	9,5	1	1	1	1	1	1	1	1	1	0	1	-9,231853	275,062225	315,337017	0
15.01.2021	16:04:46	0	10,945021	3,615205	1,34175	356,5368	0,837	83,239	0	1015,96	8	9,6	9,5	1	1	1	1	1	1	1	1	1	0	1	-9,090909	274,949619	314,946796	0
15.01.2021	16:04:47	0	10,944944	2,824379	1,3125	334,6452	0,838	83,263	0	1016,04	8	9,7	9,5	1	1	1	1	1	1	1	1	1	0	1	-5,778717	274,878018	317,921581	0
15.01.2021	16:04:48	0	10,46915	3,95413	1,3545	341,7048	0,841	83,242	0	1015,98	8	9,6	9,5	1	1	1	1	1	1	1	1	1	0	1	-12,966878	275,063793	311,609396	0
15.01.2021	16:04:49	0	10,707011	2,598428	1,34925	347,2272	0,835	83,244	0	1015,98	7,8	9,7	9,5	1	1	1	1	1	1	1	1	1	0	1	-9,020437	274,979271	315,157073	0
15.01.2021	16:04:50	0	10,707011	2,485453	1,35975	338,7492	0,838	83,27	0	1016,08	8	9,7	9,5	1	1	1	1	1	1	1	1	1	0	1	-9,020437	274,874911	314,665226	0
15.01.2021	16:04:51	0	11,063989	5,083881	1,323	346,5144	0,835	83,262	0	1016,02	7,8	9,6	9,5	1	1	1	1	1	1	1	1	1	0	1	-13,319239	274,974586	310,83618	0
15.01.2021	16:04:52	0	10,588118	3,050329	1,33125	2,2932	0,84	83,256	0	1015,98	8	9,6	9,5	1	1	1	1	1	1	1	1	1	0	1	-10,147992	275,055952	314,391271	0
15.01.2021	16:04:53	0	10,825977	2,824379	1,29525	357,8472	0,831	83,258	0	1015,8	7,8	9,7	9,5	1	1	1	1	1	1	1	1	1	0	1	-8,386187	274,929357	315,55601	0
15.01.2021	16:04:54	0	10,826053	2,598428	1,2585	358,0056	0,842	83,258	0	1016,12	7,8	9,6	9,5	1	1	1	1	1	1	1	1	1	0	1	-9,302326	274,876464	314,390654	0
15.01.2021	16:04:55	0	10,945021	3,163304	1,221	353,7216	0,838	83,243	0	1016,02	7,8	9,6	9,5	1	1	1	1	1	1	1	1	1	0	1	-7,117689	274,951178	316,927368	0
15.01.2021	16:04:56	0	10,707086	4,631981	1,19625	347,5368	0,838	83,269	0	1015,98	7,8	9,6	9,5	1	1	1	1	1	1	1	1	1	0	1	-6,553911	275,065362	318,029767	0
15.01.2021	16:04:57	0	10,707011	2,937354	1,146	359,5824	0,841	83,271	0	1016,06	7,8	9,7	9,5	1	1	1	1	1	1	1	1	1	0	1	-9,795631	275,054384	314,736232	0
15.01.2021	16:04:58	0	10,826053	2,937354	1,07925	353,9664	0,841	83,268	0	1016,14	7,8	9,6	9,5	1	1	1	1	1	1	1	1	1	0	1	-11,275546	274,902892	312,541939	0
15.01.2021	16:04:59	0	10,588044	3,95413	1,03575	331,9056	0,836	83,255	0	1016,04	7,8	9,7	9,5	1	1	1	1	1	1	1	1	1	0	1	-11,980268	275,027748	312,425905	0
15.01.2021	16:05:00	0	10,826053	4,406031	1,0155	343,1592	0,839	83,278	0	1016,2	7,8	9,6	9,5	1	1	1	1	1	1	1	1	1	0	1	-12,05074	274,994895	312,200457	0
15.01.2021	16:05:01	0	10,826053	4,406031	1,0155	343,1592	0,839	83,278	0	1016,2	7,8	9,6	9,5	1	1	1	1	1	1	1	1	1	0	1	-11,698379	275,055952	312,840884	0
15.01.2021	16:05:02	0	10,707086	3,95413	0,972	336,8304	0,844	83,274	0	1016,08	7,8	9,6	9,5	1	1	1	1	1	1	1	1	1	0	1	-17,336152	274,876464	306,356828	0
15.01.2021	16:05:03	0	10,469077	3,276279	1,03575	343,1844	0,839	83,277	0	1015,98	7,8	9,7	9,5	1	1	1	1	1	1	1	1	1	0	1	-8,45666	275,013661	315,883056	0
15.01.2021	16:05:04	0	10,707086	2,711403	1,13775	349,8444	0,841	83,271	0	1016,1	7,8	9,6	9,5	1	1	1	1	1	1	1	1	1	0	1	-11,346018	275,008968	312,971558	0
15.01.2021	16:05:05	0	10,588118	2,824379	1,224	351,6948	0,839	83,258	0	1016,02	7,8	9,6	9,5	1	1	1	1	1	1	1	1	1	0	1	-8,597604	275,035578	315,845515	0
15.01.2021	16:05:06	0	10,707086	3,389254	1,2645	347,2848	0,842	83,263	0	1016,08	7,8	9,6	9,5	1	1	1	1	1	1	1	1	1	0	1	-12,191684	275,041845	312,281004	0
15.01.2021	16:05:07	0	10,588044	4,631981	1,281	349,0308	0,842	83,276	0	1016,04	8	9,7	9,5	1	1	1	1	1	1	1	1	1	0	1	-15,503876	275,035578	308,939243	0
15.01.2021	16:05:08	0	10,944944	4,067105	1,29075	345,816	0,839	83,259	0	1016,02	7,8	9,7	9,5	1	1	1	1	1	1	1	1	1	0	1	-10,288936	274,923127	313,623899	0
15.01.2021	16:05:09	0	10,945021	4,519006	1,33725	350,3124	0,84	83,274	0	1016,14	8	9,6	9,5	1	1	1	1	1	1	1	1	1	0	1	-11,698379	275,040278	312,766916	0
15.01.2021	16:05:10	0	11,182956	4,631981	1,38975	352,4652	0,839	83,281	0	1015,96	7,8	9,6	9,5	1	1	1	1	1	1	1	1	1	0	1	-9,302326	274,890451	314,456543	0
15.01.2021	16:05:11	0	10,945021	4,406031	1,395	353,1672	0,84	83,272	0	1016,04	7,8	9,6	9,5	1	1	1	1	1	1	1	1	1	0	1	-10,007047	275,018356	314,354814	0
15.01.2021	16:05:12	0	10,588118	3,502229	1,41	351,6588	0,843	83,257	0	1015,98	7,8	9,6	9,5	1	1	1	1	1	1	1	1	1	0	1	-9,020437	274,884233	314,709141	0
15.01.2021	16:05:13	0	10,469077	3,72818	1,431	346,4856	0,838	83,26	0	1015,92	7,9	9,7	9,5	1	1	1	1	1	1	1	1	1	0	1	-7,470049	274,963659	316,633847	0
15.01.2021	16:05:14	0	10,588118	2,711403	1,506	345,1032	0,845	83,271	0	1016,04	7,8	9,6	9,5	1	1	1	1	1	1	1	1	1	0	1	-7,470049	274,868698	316,18635	0
15.01.2021	16:05:15	0	10,588044	3,276279	1,47675	356,4864	0,844	83,251	0	1015,92	7,8	9,7	9,5	1	1	1	1	1	1	1	1	1	0	1	-10,500352	275,038711	313,95755	0
15.01.2021	16:05:16	0	10,945021	4,519006	1,46175	343,9152	0,84	83,264	0	1016,14	7,8	9,6	9,5	1	1	1	1	1	1	1	1	1	0	1	-12,825934	275,008968	311,491642	0
15.01.2021	16:05:17	0	10,46915	4,293055	1,43325	352,0908	0,837	83,253	0	1015,92	7,8	9,6	9,5	1	1	1	1	1	1	1	1	1	0	1	-7,681466	274,878018	316,018832	0
15.01.2021	16:05:18	0	10,588118	3,276279	1,398	341,7948	0,847	83,277	0	1016,04	7,8	9,6	9,5	1	1	1	1	1	1	1	1	1	0	1	-13,178295	274,921569	310,727201	0
15.01.2021	16:05:19	0	10,588044	4,744956	1,33125	350,2764	0,839	83,275	0	1015,96	7,8	9,7	9,5	1	1	1	1	1	1	1	1	1	0	1	-7,82241	275,049681	316,687257	0
15.01.2021	16:05:20	0	10,588118	3,050329	1,248	353,8008	0,84	83,266	0	1016	7,8	9,6	9,5	1	1	1	1	1	1	1	1	1	0	1	-10,288936	274,90756	313,550543	0
15.01.2021	16:05:21	0	10,588044	2,146528	1,28175	351,3852	0,844	83,265	0	1015,92	7,9	9,7	9,5	1	1	1	1	1	1	1	1	1	0	1	-7,892882	274,9465	316,130121	0
15.01.2021	16:05:22	0	10,350183	3,615205	1,31025	356,184	0,847	83,276	0	1016,04	7,8	9,6	9,5	1	1	1	1	1	1	1	1	1	0	1	-9,584214	275,05752	314,962449	0
15.01.2021	16:05:23	0	10,588118	2,937354	1,37925	351,0576	0,84	83,272	0	1015,9	7,8	9,6	9,5	1	1	1	1	1	1	1	1	1	0	1	-6,412967	274,94806	317,617387	0
15.01.2021	16:05:24	0	10,588044	2,824379	1,43025	349,8696	0,84	83,268	0	1015,98	7,8	9,7	9,5	1	1	1	1	1	1	1	1	1	0	1	-5,285412	274,870251	318,378302	0
15.01.2021	16:05:25	0	10,112177	2,372478	1,42875	351,3492	0,84	83,273	0	1016,02	7,9	9,7	9,5	1	1	1	1	1	1	1	1	1	0	1	-8,80902	274,899781	314,993807	0
15.01.2021	16:05:26	0	10,826053	4,293055	1,458	348,7032	0,839	83,276	0	1016,08	7,9	9,6	9,5	1	1	1	1	1	1	1	1	1	0	1	-11,486963	274,951178	312,558094	0
15.01.2021	16:05:27	0	10,825977	4,293055	1,56375	351,7164	0,851	83,265	0	1016,02	7,8	9,7	9,5	1	1	1	1	1	1	1	1	1	0	1	-8,104299	275,038711	316,353603	0
15.01.2021	16:05:28	0	10,350038	4,067105	1,6605	352,098	0,842	83,285	0	1015,9	7,8	9,8	9,5	1	1	1	1	1	1	1	1	1	0	1	-8,738548	274,985519	315,468428	0
15.01.2021	16:05:29	0	10,588118	2,824379	1,69275	355,842	0,842	83,271	0	1016,16	7,8	9,6	9,5	1	1	1	1	1	1	1	1	1	0	1	-10,359408	274,86404	313,275052	0
15.01.2021	16:05:30	0	10,707086	4,857931	1,8315	351,2196	0,84	83,274	0	1016,12	7,8	9,6	9,5	1	1	1	1	1	1	1	1	1	0	1	-7,047216	274,918455	316,843604	0
15.01.2021	16:05:31	0	10,588044	4,970906	1,82025	352,0728	0,836	83,293	0	1016,04	7,9	9,7	9,5	1	1	1	1	1	1	1	1	1	0	1	-9,372798	275,012097	314,959537	0
15.01.2021	16:05:32	0	10,469077	2,937354	1,761	347,9796	0,836	83,274	0	1016,14	7,8	9,7	9,5	1	1	1	1	1	1	1	1	1	0	1	-10,288936	275,041845	314,183752	0
15.01.2021	16:05:33	0	10,826053	4,067105	1,64925	346,05	0,844	83,283	0	1016,04	7,8	9,6	9,5	1	1	1	1	1	1	1	1	1	0	1	-9,866103	274,916899	314,017381	0
15.01.2021	16:05:34	0	10,231215	3,050329	1,6245	350,7336	0,842	83,286	0	1016,02	7,8	9,6	9,5	1	1	1	1	1	1	1	1	1	0	1	-11,134602	274,879571	312,573015	0
15.01.2021	16:05:35	0	10,588118	3,276279	1,52925	352,4544	0,848	83,287	0	1015,94	7,8	9,6	9,5	1	1	1	1	1	1	1	1	1	0	1	-10,359408	274,977709	313,810738	0
15.01.2021	16:05:36	0	10,46915	3,95413	1,53375	3,7584	0,846	83,296	0	1015,98	7,8	9,6	9,5	1	1	1	1	1	1	1	1	1	0	1	-9,866103	275,043412	314,61398	0
15.01.2021	16:05:37	0	10,707086	4,519006	1,563	351,1008	0,845	83,277	0	1016	7,8	9,6	9,5	1	1	1	1	1	1	1	1	1	0	1	-10,570825	274,980833	313,614051	0
15.01.2021	16:05:38	0	10,825977	4,744956	1,59525	357,2388	0,844	83,283	0	1016,04	7,9	9,7	9,5	1	1	1	1	1	1	1	1	1	0	1	-7,963354	274,994895	316,287842	0
15.01.2021	16:05:39	0	10,707011	4,067105	1,6575	353,9016	0,846	83,288	0	1016,02	7,8	9,7	9,5	1	1	1	1	1	1	1	1	1	0	1	-10,077519	275,026182	314,321266	0
15.01.2021	16:05:40	0	10,825977	4,519006	1,73025	353,7108	0,836	83,288	0	1016,04	7,8	9,7	9,5	1	1	1	1	1	1	1	1	1	0	1	-8,104299	274,971463	316,036395	0
15.01.2021	16:05:41	0	10,588118	4,631981	1,73625	359,1468	0,842	83,287	0	1015,98	7,9	9,6	9,5	1	1	1	1	1	1	1	1	1	0	1	-14,305849	275,051248	310,211216	0
15.01.2021	16:05:42	0	10,707086	2,937354	1,776	346,194	0,844	83,291	0	1016,04	7,8	9,6	9,5	1	1	1	1	1	1	1	1	1	0	1	-8,738548	274,924684	315,181626	0
15.01.2021	16:05:43	0	10,707011	3,72818	1,76475	340,9848	0,847	83,296	0	1016,12	7,9	9,7	9,5	1	1	1	1	1	1	1	1	1	0	1	-14,587738	274,860935	309,0321	0
15.01.2021	16:05:44	0	10,826053	4,180105	1,767	341,7696	0,845	83,286	0	1016,08	7,9	9,6	9,4	1	1	1	1	1	1	1	1	1	0	1	-9,090909	274,870251	314,572805	0
15.01.2021	16:05:45	0	10,469077	3,389254	1,73775	349,8768	0,845	83,286	0	1015,96	7,9	9,7	9,5	1	1	1	1	1	1	1	1	1	0	1	-13,6716	274,963659	310,432296	0
15.01.2021	16:05:46	0	9,99328	2,824379	1,76775	331,5024	0,838	83,283	0	1016,06	7,9	9,6	9,5	1	1	1	1	1	1	1	1	1	0	1	-9,44327	274,865592	314,198503	0
15.01.2021	16:05:47	0	10,350183	4,18008	1,81425	340,5348	0,847	83,292	0	1016,04	7,9	9,6	9,5	1	1	1	1	1	1	1	1	1	0	1	-10,993658	274,9465	313,029346	0
15.01.2021	16:05:48	0	10,469077	4,744956	1,87425	356,1624	0,846	83,295	0	1015,86	7,8	9,7	9,5	1	1	1	1	1	1	1	1	1	0	1	-7,258633	274,854727	316,331968	0
15.01.2021	16:05:49	0	10,35011	4,18008	1,9995	335,6712	0,849	83,291	0	1015,98	7,8	9,7	9,5	1	1	1	1	1	1	1	1	1	0	1	-8,174771	274,862487	315,452378	0
15.01.2021	16:05:50	0	10,35011	3,615205	2,10225	339,1524	0,846	83,293	0	1016,1	7,9	9,7	9,5	1	1	1	1	1	1	1	1	1	0	1	-11,980268	274,932473	311,976615	0
15.01.2021	16:05:51	0	10,231215	4,744956	2,097	338,0184	0,852	83,295	0	1016,06	7,8	9,6	9,5	1	1	1	1	1	1	1	1	1	0	1	-10,077519	275,059088	314,476546	0
15.01.2021	16:05:52	0	10,46915	4,519006	2,01975	335,3436	0,842	83,275	0	1016,12	7,9	9,6	9,5	1	1	1	1	1	1	1	1	1	0	1	-9,161381	274,893561	314,612138	0
15.01.2021	16:05:53	0	10,112248	3,163304	2,0025	332,802	0,84	83,287	0	1015,94	7,8	9,6	9,5	1	1	1	1	1	1	1	1	1	0	1	-8,245243	274,851623	315,330743	0
15.01.2021	16:05:54	0	10,112248	3,615205	1,90725	332,766	0,843	83,29	0	1016,02	7,9	9,6	9,5	1	1	1	1	1	1	1	1	1	0	1	-15,010571	275,029314	309,402989	0
15.01.2021	16:05:55	0	10,112248	3,050329	1,98525	336,078	0,84	83,277	0	1016,02	7,9	9,6	9,5	1	1	1	1	1	1	1	1	1	0	1	-7,610994	274,965219	316,500261	0
15.01.2021	16:05:56	0	10,588044	4,744956	2,16675	339,5016	0,849	83,284	0	1016,04	7,9	9,7	9,5	1	1	1	1	1	1	1	1	1	0	1	-6,483439	274,850072	317,085241	0
15.01.2021	16:05:57	0	10,35011	3,615205	2,37	343,1628	0,848	83,277	0	1016,18	7,9	9,7	9,5	1	1	1	1	1	1	1	1	1	0	1	-6,412967	274,876464	317,280013	0
15.01.2021	16:05:58	0	10,350183	5,309864	2,34525	349,8624	0,844	83,279	0	1015,9	7,9	9,6	9,4	1	1	1	1	1	1	1	1	1	0	1	-11,346018	275,002712	312,942048	0
15.01.2021	16:05:59	0	10,46915	4,293055	2,22375	338,3172	0,842	83,282	0	1016,02	7,9	9,6	9,5	1	1	1	1	1	1	1	1	1	0	1	-8,879493	275,040278	315,585802	0
15.01.2021	16:06:00	0	10,231144	3,502229	2,067	337,9896	0,848	83,275	0	1015,86	7,9	9,7	9,5	1	1	1	1	1	1	1	1	1	0	1	-12,05074	274,924684	311,869434	0
15.01.2021	16:06:01	0	10,231144	3,502229	2,067	337,9896	0,848	83,275	0	1015,86	7,9	9,7	9,5	1	1	1	1	1	1	1	1	1	0	1	-12,05074	274,924684	311,869434	0
15.01.2021	16:06:02	0	10,112106	4,631981	2,26575	336,42	0,845	83,267	0	1016,14	7,9	9,8	9,5	1	1	1	1	1	1	1	1	1	0	1	-9,513742	275,03088	314,907207	0
15.01.2021	16:06:03	0	10,112248	3,389254	2,59425	332,4996	0,84	83,251	0	1015,98	7,9	9,6	9,5	1	1	1	1	1	1	1	1	1	0	1	-11,698379	274,881125	312,016557	0
15.01.2021	16:06:04	0	10,231215	4,067105	2,68875	339,3936	0,844	83,255	0	1016,08	7,9	9,6	9,5	1	1	1	1	1	1	1	1	1	0	1	-13,742072	274,996458	310,516497	0
15.01.2021	16:06:05	0	9,99328	2,937354	2,67225	333,5616	0,848	83,257	0	1015,98	7,9	9,6	9,5	1	1	1	1	1	1	1	1	1	0	1	-8,738548	274,865592	314,903224	0
15.01.2021	16:06:06	0	10,350183	4,631981	2,7705	338,3676	0,847	83,254	0	1015,94	7,9	9,6	9,5	1	1	1	1	1	1	1	1	1	0	1	-10,641297	274,971463	313,499398	0
15.01.2021	16:06:07	0	10,112177	4,18008	2,71125	340,8912	0,843	83,242	0	1015,9	7,9	9,7	9,5	1	1	1	1	1	1	1	1	1	0	1	-7,470049	275,035578	316,973069	0
15.01.2021	16:06:08	0	9,874312	2,485453	2,6055	340,2684	0,845	83,255	0	1016,04	7,9	9,6	9,5	1	1	1	1	1	1	1	1	1	0	1	-13,883016	274,915342	309,993131	0
15.01.2021	16:06:09	0	10,112177	4,067105	2,55825	336,7728	0,845	83,246	0	1015,96	7,8	9,7	9,5	1	1	1	1	1	1	1	1	1	0	1	-12,262156	275,026182	312,136629	0
15.01.2021	16:06:10	0	10,112177	2,937371	2,50875	336,1212	0,84	83,256	0	1015,84	7,9	9,7	9,4	1	1	1	1	1	1	1	1	1	0	1	-10,570825	275,044979	313,916653	0
15.01.2021	16:06:11	0	10,112177	2,711403	2,46375	341,658	0,846	83,258	0	1016,04	7,8	9,7	9,5	1	1	1	1	1	1	1	1	1	0	1	-10,570825	274,932473	313,386058	0
15.01.2021	16:06:12	0	10,35011	2,937354	2,3625	354,312	0,846	83,243	0	1016,06	7,9	9,7	9,5	1	1	1	1	1	1	1	1	1	0	1	-12,825934	275,026182	311,572852	0
15.01.2021	16:06:13	0	9,99321	3,389254	2,47875	343,602	0,844	83,255	0	1016,02	7,9	9,7	9,5	1	1	1	1	1	1	1	1	1	0	1	-9,584214	274,916899	314,299269	0
15.01.2021	16:06:14	0	10,35011	4,067105	2,70375	348,7104	0,85	83,256	0	1016,06	7,9	9,7	9,5	1	1	1	1	1	1	1	1	1	0	1	-7,82241	274,853175	315,760883	0
15.01.2021	16:06:15	0	10,112248	3,050329	2,715	343,926	0,844	83,244	0	1016	7,9	9,6	9,5	1	1	1	1	1	1	1	1	1	0	1	-12,896406	274,963659	311,20749	0
15.01.2021	16:06:16	0	9,874243	2,824379	2,58525	342,846	0,847	83,268	0	1016,04	7,9	9,7	9,5	1	1	1	1	1	1	1	1	1	0	1	-9,866103	274,893561	313,907416	0
15.01.2021	16:06:17	0	10,35011	3,95413	2,48325	341,28	0,848	83,249	0	1015,96	7,9	9,7	9,5	1	1	1	1	1	1	1	1	1	0	1	-11,486963	274,887342	312,257259	0
15.01.2021	16:06:18	0	9,99328	3,163304	2,451	351,4104	0,849	83,245	0	1016,12	7,9	9,6	9,5	1	1	1	1	1	1	1	1	1	0	1	-9,866103	274,913785	314,00271	0
15.01.2021	16:06:19	0	10,112177	3,050329	2,349	352,0872	0,85	83,253	0	1016,02	7,9	9,7	9,5	1	1	1	1	1	1	1	1	1	0	1	-12,825934	274,840765	310,698925	0
15.01.2021	16:06:20	0	10,231144	4,631981	2,136	355,0392	0,852	83,261	0	1016,04	7,9	9,7	9,5	1	1	1	1	1	1	1	1	1	0	1	-10,007047	274,988644	314,214666	0
15.01.2021	16:06:21	0	10,112177	2,598428	2,031	334,3356	0,849	83,238	0	1015,98	7,9	9,7	9,5	1	1	1	1	1	1	1	1	1	0	1	-13,742072	275,018356	310,619789	0
15.01.2021	16:06:22	0	9,636377	3,163304	1,89075	332,4168	0,85	83,249	0	1015,94	7,9	9,6	9,5	1	1	1	1	1	1	1	1	1	0	1	-11,134602	274,904448	312,690214	0
15.01.2021	16:06:23	0	9,51741	2,711403	1,88175	339,8544	0,844	83,235	0	1015,86	7,9	9,6	9,5	1	1	1	1	1	1	1	1	1	0	1	-6,131078	274,998022	318,134864	0
15.01.2021	16:06:24	0	9,99321	2,937371	1,89525	342,0036	0,847	83,236	0	1015,84	7,9	9,7	9,4	1	1	1	1	1	1	1	1	1	0	1	-13,248767	275,024617	311,142632	0
15.01.2021	16:06:25	0	9,99328	2,937354	1,881	347,5584	0,852	83,234	0	1016,08	7,9	9,6	9,5	1	1	1	1	1	1	1	1	1	0	1	-11,909796	274,898226	311,885703	0
15.01.2021	16:06:26	0	9,874312	2,937354	1,84125	338,49	0,85	83,241	0	1016,08	7,9	9,6	9,5	1	1	1	1	1	1	1	1	1	0	1	-10,147992	274,853175	313,435301	0
15.01.2021	16:06:27	0	10,231144	4,631981	1,956	332,7588	0,843	83,243	0	1016	7,9	9,7	9,5	1	1	1	1	1	1	1	1	1	0	1	-8,527132	274,994895	315,724065	0
15.01.2021	16:06:28	0	10,231144	3,276279	1,95375	330,3612	0,848	83,232	0	1016	7,9	9,7	9,5	1	1	1	1	1	1	1	1	1	0	1	-9,090909	274,851623	314,485077	0
15.01.2021	16:06:29	0	9,99328	2,937371	1,8615	346,8096	0,845	83,237	0	1015,94	7,9	9,6	9,4	1	1	1	1	1	1	1	1	1	0	1	-7,399577	274,974586	316,755841	0
15.01.2021	16:06:30	0	10,231144	2,598428	1,81425	330,3792	0,851	83,233	0	1016,02	7,9	9,7	9,5	1	1	1	1	1	1	1	1	1	0	1	-9,654686	274,878018	314,045612	0
15.01.2021	16:06:31	0	10,112248	3,841155	1,79775	344,6604	0,852	83,222	0	1015,94	7,9	9,6	9,5	1	1	1	1	1	1	1	1	1	0	1	-10,288936	274,910672	313,565208	0
15.01.2021	16:06:32	0	9,99321	4,519033	1,7685	328,6188	0,844	83,227	0	1016,06	7,9	9,7	9,4	1	1	1	1	1	1	1	1	1	0	1	-11,134602	275,037145	313,315908	0
15.01.2021	16:06:33	0	9,874243	2,259503	1,70475	327,8412	0,849	83,238	0	1016,04	7,9	9,7	9,5	1	1	1	1	1	1	1	1	1	0	1	-9,231853	274,915342	314,644294	0
15.01.2021	16:06:34	0	10,231144	4,631981	1,60425	336,0888	0,849	83,23	0	1016,08	7,9	9,7	9,5	1	1	1	1	1	1	1	1	1	0	1	-11,839323	274,898226	311,956175	0
15.01.2021	16:06:35	0	9,99321	3,050329	1,599	348,0984	0,847	83,207	0	1016,04	7,9	9,7	9,5	1	1	1	1	1	1	1	1	1	0	1	-9,654686	275,029314	314,758874	0
15.01.2021	16:06:36	0	10,112177	4,180105	1,6785	350,2872	0,841	83,207	0	1016	7,9	9,7	9,4	1	1	1	1	1	1	1	1	1	0	1	-11,909796	274,937147	312,069121	0
15.01.2021	16:06:37	0	10,112177	4,970906	1,73625	354,312	0,849	83,227	0	1016,02	7,9	9,7	9,5	1	1	1	1	1	1	1	1	1	0	1	-10,852713	275,021486	313,523916	0
15.01.2021	16:06:38	0	9,874243	3,72818	1,72575	348,6492	0,843	83,2	0	1015,9	7,9	9,7	9,5	1	1	1	1	1	1	1	1	1	0	1	-8,45666	274,963659	315,647236	0
15.01.2021	16:06:39	0	9,755276	2,372478	1,75275	332,0496	0,844	83,213	0	1015,86	7,9	9,7	9,5	1	1	1	1	1	1	1	1	1	0	1	-6,694856	274,839215	316,822702	0
15.01.2021	16:06:40	0	9,874243	2,711403	1,88775	339,822	0,845	83,221	0	1015,96	7,9	9,7	9,5	1	1	1	1	1	1	1	1	1	0	1	-9,795631	274,84852	313,765744	0
15.01.2021	16:06:41	0	9,874243	4,406031	2,043	335,6604	0,846	83,218	0	1015,86	7,9	9,7	9,5	1	1	1	1	1	1	1	1	1	0	1	-9,372798	274,952738	314,679611	0
15.01.2021	16:06:42	0	9,874243	4,18008	2,0505	336,1104	0,844	83,203	0	1016	7,9	9,7	9,5	1	1	1	1	1	1	1	1	1	0	1	-8,597604	275,016791	315,756875	0
15.01.2021	16:06:43	0	9,874243	2,372492	2,0145	336,3732	0,847	83,218	0	1015,92	7,9	9,7	9,4	1	1	1	1	1	1	1	1	1	0	1	-10,147992	274,957418	313,926479	0
15.01.2021	16:06:44	0	9,99321	4,744956	2,09775	345,0744	0,84	83,209	0	1016,12	7,9	9,7	9,5	1	1	1	1	1	1	1	1	1	0	1	-8,174771	274,968341	315,951202	0
15.01.2021	16:06:45	0	9,398376	2,259516	2,13825	352,1196	0,84	83,213	0	1016	7,9	9,7	9,4	1	1	1	1	1	1	1	1	1	0	1	-6,694856	274,850072	316,873824	0
15.01.2021	16:06:46	0	10,231144	4,970906	2,13	354,3516	0,841	83,189	0	1015,88	7,9	9,7	9,5	1	1	1	1	1	1	1	1	1	0	1	-11,909796	274,890451	311,849073	0
15.01.2021	16:06:47	0	9,99321	4,519006	2,08575	346,0752	0,847	83,197	0	1016,02	7,9	9,7	9,5	1	1	1	1	1	1	1	1	1	0	1	-12,121212	274,988644	312,100501	0
15.01.2021	16:06:48	0	9,63631	2,937354	2,094	343,6488	0,84	83,209	0	1016	7,9	9,7	9,5	1	1	1	1	1	1	1	1	1	0	1	-8,738548	275,021486	315,63808	0
15.01.2021	16:06:49	0	9,99321	4,406031	2,094	336,0888	0,848	83,21	0	1015,96	7,9	9,7	9,5	1	1	1	1	1	1	1	1	1	0	1	-8,033827	274,951178	316,01123	0
15.01.2021	16:06:50	0	9,874243	2,824395	2,0325	333,468	0,845	83,199	0	1015,94	7,9	9,7	9,4	1	1	1	1	1	1	1	1	1	0	1	-5,84919	274,870251	317,814525	0
15.01.2021	16:06:51	0	9,755276	4,519006	2,01375	332,7732	0,848	83,189	0	1015,92	7,9	9,7	9,5	1	1	1	1	1	1	1	1	1	0	1	-17,829457	274,850072	305,739223	0
15.01.2021	16:06:52	0	9,874312	3,615205	1,923	335,7108	0,842	83,179	0	1015,96	7,9	9,6	9,5	1	1	1	1	1	1	1	1	1	0	1	-10,147992	274,987081	314,066353	0
15.01.2021	16:06:53	0	9,517343	2,485453	1,7175	337,9752	0,849	83,188	0	1016,08	7,9	9,7	9,5	1	1	1	1	1	1	1	1	1	0	1	-10,641297	275,00584	313,661523	0
15.01.2021	16:06:54	0	9,99321	4,519033	1,731	343,8972	0,845	83,192	0	1016	7,9	9,7	9,4	1	1	1	1	1	1	1	1	1	0	1	-10,147992	274,977709	314,022154	0
15.01.2021	16:06:55	0	10,112177	3,50225	1,74225	344,6496	0,846	83,198	0	1016	7,9	9,7	9,4	1	1	1	1	1	1	1	1	1	0	1	-11,486963	274,867145	312,162123	0
15.01.2021	16:06:56	0	9,99321	4,519033	1,72875	352,0692	0,845	83,191	0	1015,94	7,9	9,7	9,4	1	1	1	1	1	1	1	1	1	0	1	-11,346018	274,837664	312,164239	0
15.01.2021	16:06:57	0	9,99321	2,937371	1,743	347,2488	0,842	83,191	0	1015,9	7,9	9,7	9,4	1	1	1	1	1	1	1	1	1	0	1	-12,403101	274,920012	311,495057	0
15.01.2021	16:06:58	0	9,874243	4,519033	1,74675	347,616	0,845	83,198	0	1016,02	7,9	9,7	9,4	1	1	1	1	1	1	1	1	1	0	1	-8,033827	274,836114	315,469131	0
15.01.2021	16:06:59	0	9,874243	2,937354	1,74375	347,742	0,844	83,195	0	1015,98	7,9	9,7	9,5	1	1	1	1	1	1	1	1	1	0	1	-9,302326	274,899781	314,500502	0
15.01.2021	16:07:00	0	9,755276	3,502229	1,74375	339,4728	0,849	83,173	0	1016,12	7,9	9,7	9,5	1	1	1	1	1	1	1	1	1	0	1	-8,245243	275,03088	316,175706	0
15.01.2021	16:07:01	0	9,755276	3,502229	1,74375	339,4728	0,849	83,173	0	1016,12	7,9	9,7	9,5	1	1	1	1	1	1	1	1	1	0	1	-10,570825	274,999585	313,702492	0
15.01.2021	16:07:02	0	9,874243	3,615226	1,77	339,7896	0,846	83,176	0	1016,02	7,9	9,7	9,4	1	1	1	1	1	1	1	1	1	0	1	-12,755462	274,983957	311,444147	0
15.01.2021	16:07:03	0	9,874243	4,067129	1,728	340,8696	0,854	83,181	0	1015,9	7,9	9,7	9,4	1	1	1	1	1	1	1	1	1	0	1	-12,403101	275,032446	312,025237	0
15.01.2021	16:07:04	0	9,99321	4,857931	1,692	345,7908	0,848	83,194	0	1016,12	7,9	9,7	9,5	1	1	1	1	1	1	1	1	1	0	1	-14,65821	274,9465	309,364793	0
15.01.2021	16:07:05	0	9,874243	4,519006	1,6035	340,8876	0,844	83,186	0	1015,94	7,9	9,7	9,5	1	1	1	1	1	1	1	1	1	0	1	-9,936575	275,004276	314,358868	0
15.01.2021	16:07:06	0	9,874243	2,937354	1,575	336,8196	0,846	83,178	0	1016,04	7,9	9,7	9,5	1	1	1	1	1	1	1	1	1	0	1	-13,319239	274,893561	310,45428	0
15.01.2021	16:07:07	0	9,398376	2,598444	1,64625	336,0564	0,847	83,18	0	1016	7,9	9,7	9,4	1	1	1	1	1	1	1	1	1	0	1	-5,144468	274,831463	318,336594	0
15.01.2021	16:07:08	0	9,517343	2,711403	1,75575	337,1652	0,84	83,182	0	1015,98	7,9	9,7	9,5	1	1	1	1	1	1	1	1	1	0	1	-11,346018	275,018356	313,015843	0
15.01.2021	16:07:09	0	9,874243	3,163304	1,83	340,1964	0,847	83,177	0	1015,92	7,9	9,7	9,5	1	1	1	1	1	1	1	1	1	0	1	-10,923185	274,887342	312,821037	0
15.01.2021	16:07:10	0	10,112177	3,389254	1,81875	337,1436	0,844	83,185	0	1016,06	7,9	9,7	9,5	1	1	1	1	1	1	1	1	1	0	1	-9,513742	275,004276	314,781701	0
15.01.2021	16:07:11	0	9,755276	2,711403	1,8225	335,4012	0,844	83,168	0	1015,9	7,9	9,7	9,5	1	1	1	1	1	1	1	1	1	0	1	-12,896406	274,932473	311,060477	0
15.01.2021	16:07:12	0	9,755276	4,519006	1,833	336,3804	0,843	83,169	0	1015,9	7,9	9,7	9,5	1	1	1	1	1	1	1	1	1	0	1	-8,668076	275,012097	315,664259	0
15.01.2021	16:07:13	0	9,63631	2,824379	1,809	333,5328	0,846	83,178	0	1016,04	7,9	9,7	9,5	1	1	1	1	1	1	1	1	1	0	1	-12,896406	275,019921	311,472839	0
15.01.2021	16:07:14	0	9,874243	4,406057	1,7685	326,2788	0,846	83,177	0	1016,04	7,9	9,7	9,4	1	1	1	1	1	1	1	1	1	0	1	-12,896406	274,985519	311,31057	0
15.01.2021	16:07:15	0	9,874243	4,519033	1,71375	328,9464	0,845	83,167	0	1016,04	7,9	9,7	9,4	1	1	1	1	1	1	1	1	1	0	1	-6,483439	274,895116	317,297406	0
15.01.2021	16:07:16	0	9,99321	4,85796	1,73475	330,0372	0,845	83,175	0	1015,94	7,9	9,7	9,4	1	1	1	1	1	1	1	1	1	0	1	-9,654686	274,979271	314,522824	0
15.01.2021	16:07:17	0	9,63631	3,95413	1,70925	330,3324	0,846	83,166	0	1016,02	7,9	9,7	9,5	1	1	1	1	1	1	1	1	1	0	1	-9,513742	274,854727	314,076858	0
15.01.2021	16:07:18	0	9,874243	4,406031	1,674	340,1928	0,847	83,169	0	1016,02	7,9	9,7	9,5	1	1	1	1	1	1	1	1	1	0	1	-7,258633	274,94806	316,771721	0
15.01.2021	16:07:19	0	9,755276	2,937371	1,66425	336,7548	0,841	83,173	0	1016,06	7,9	9,7	9,4	1	1	1	1	1	1	1	1	1	0	1	-8,033827	274,853175	315,549466	0
15.01.2021	16:07:20	0	9,755276	4,857931	1,722	332,406	0,844	83,178	0	1016,08	7,9	9,7	9,5	1	1	1	1	1	1	1	1	1	0	1	-13,6716	274,840765	309,853259	0
15.01.2021	16:07:21	0	9,99321	4,180105	1,81575	327,7728	0,85	83,166	0	1016,04	7,9	9,7	9,4	1	1	1	1	1	1	1	1	1	0	1	-7,470049	274,962098	316,626489	0
15.01.2021	16:07:22	0	9,517343	2,71142	1,85775	338,3856	0,849	83,175	0	1016,02	7,9	9,7	9,4	1	1	1	1	1	1	1	1	1	0	1	-12,05074	275,013661	312,288975	0
15.01.2021	16:07:23	0	9,63631	4,180105	1,83525	337,1616	0,846	83,163	0	1016,06	7,9	9,7	9,4	1	1	1	1	1	1	1	1	1	0	1	-9,795631	274,892006	313,970563	0
15.01.2021	16:07:24	0	9,63631	3,954154	1,7445	337,5288	0,841	83,169	0	1015,82	7,9	9,7	9,4	1	1	1	1	1	1	1	1	1	0	1	-6,906272	274,976147	317,25651	0
15.01.2021	16:07:25	0	10,231144	4,85796	1,7115	342,0972	0,839	83,156	0	1015,96	7,9	9,7	9,4	1	1	1	1	1	1	1	1	1	0	1	-12,121212	274,862487	311,505936	0
15.01.2021	16:07:26	0	9,63631	2,937371	1,764	342,3672	0,844	83,169	0	1015,82	7,9	9,7	9,4	1	1	1	1	1	1	1	1	1	0	1	-10,711769	274,871804	312,959261	0
15.01.2021	16:07:27	0	9,398376	2,598444	1,764	341,6472	0,837	83,165	0	1015,9	7,9	9,7	9,4	1	1	1	1	1	1	1	1	1	0	1	-11,698379	274,993332	312,545446	0
15.01.2021	16:07:28	0	9,398376	2,824395	1,761	343,4688	0,844	83,167	0	1015,96	7,8	9,7	9,4	1	1	1	1	1	1	1	1	1	0	1	-11,06413	274,86404	312,570331	0
15.01.2021	16:07:29	0	9,517343	3,728202	1,71825	349,47	0,847	83,165	0	1016	7,9	9,7	9,4	1	1	1	1	1	1	1	1	1	0	1	-11,41649	274,991769	312,819963	0
15.01.2021	16:07:30	0	9,517343	3,954154	1,6665	342,3888	0,848	83,166	0	1016,02	7,9	9,7	9,4	1	1	1	1	1	1	1	1	1	0	1	-8,527132	274,898226	315,268367	0
15.01.2021	16:07:31	0	9,755276	3,954154	1,548	341,2368	0,848	83,17	0	1015,96	7,9	9,7	9,4	1	1	1	1	1	1	1	1	1	0	1	-8,315715	274,84852	315,245659	0
15.01.2021	16:07:32	0	9,755276	3,728202	1,5915	336,3408	0,848	83,163	0	1015,88	7,9	9,7	9,4	1	1	1	1	1	1	1	1	1	0	1	-8,104299	274,899781	315,698528	0
15.01.2021	16:07:33	0	9,517343	3,276299	1,67925	341,3412	0,843	83,167	0	1016,02	7,9	9,7	9,4	1	1	1	1	1	1	1	1	1	0	1	-9,725159	275,010532	314,599796	0
15.01.2021	16:07:34	0	9,755276	4,180105	1,70025	334,8864	0,847	83,163	0	1016,04	7,9	9,7	9,4	1	1	1	1	1	1	1	1	1	0	1	-12,473573	274,893561	311,299946	0
15.01.2021	16:07:35	0	9,874243	4,406031	1,698	338,67	0,842	83,167	0	1016,06	7,8	9,7	9,5	1	1	1	1	1	1	1	1	1	0	1	-10,711769	274,962098	313,38477	0
15.01.2021	16:07:36	0	9,398376	3,954154	1,64175	336,7656	0,844	83,165	0	1016,02	7,8	9,7	9,4	1	1	1	1	1	1	1	1	1	0	1	-8,245243	274,836114	315,257714	0
15.01.2021	16:07:37	0	9,99321	3,276299	1,638	338,6412	0,84	83,159	0	1016,04	7,9	9,7	9,4	1	1	1	1	1	1	1	1	1	0	1	-8,879493	274,934031	315,084734	0
15.01.2021	16:07:38	0	9,874243	4,067129	1,6605	339,426	0,847	83,145	0	1015,92	7,9	9,7	9,4	1	1	1	1	1	1	1	1	1	0	1	-9,654686	274,998022	314,611256	0
15.01.2021	16:07:39	0	9,63631	3,276299	1,611	332,7624	0,842	83,152	0	1015,82	7,9	9,7	9,4	1	1	1	1	1	1	1	1	1	0	1	-12,473573	274,958978	311,608253	0
15.01.2021	16:07:40	0	9,874243	4,293081	1,59225	330,8436	0,846	83,161	0	1016	7,9	9,7	9,4	1	1	1	1	1	1	1	1	1	0	1	-6,272023	274,890451	317,486846	0
15.01.2021	16:07:41	0	9,160443	2,71142	1,56225	335,6712	0,84	83,164	0	1015,92	7,8	9,7	9,4	1	1	1	1	1	1	1	1	1	0	1	-10,923185	274,829914	312,55058	0
15.01.2021	16:07:42	0	9,517343	2,824395	1,5315	327,8304	0,844	83,16	0	1016,02	7,9	9,7	9,4	1	1	1	1	1	1	1	1	1	0	1	-10,147992	274,958978	313,933834	0
15.01.2021	16:07:43	0	9,755276	4,406057	1,50375	334,6524	0,839	83,15	0	1016,1	7,9	9,7	9,4	1	1	1	1	1	1	1	1	1	0	1	-13,319239	274,996458	310,93933	0
15.01.2021	16:07:44	0	9,398376	3,728202	1,52775	333,8748	0,849	83,163	0	1015,98	7,9	9,7	9,4	1	1	1	1	1	1	1	1	1	0	1	-7,188161	274,84852	316,373214	0
15.01.2021	16:07:45	0	9,279409	3,050347	1,524	332,4348	0,844	83,154	0	1015,98	7,8	9,7	9,4	1	1	1	1	1	1	1	1	1	0	1	-12,332629	274,924684	311,587546	0
15.01.2021	16:07:46	0	9,279409	3,841178	1,542	330,1056	0,84	83,152	0	1015,88	7,8	9,7	9,4	1	1	1	1	1	1	1	1	1	0	1	-12,05074	275,007404	312,259458	0
15.01.2021	16:07:47	0	9,63631	2,937371	1,5135	332,064	0,842	83,147	0	1016	7,8	9,7	9,4	1	1	1	1	1	1	1	1	1	0	1	-9,866103	274,892006	313,900091	0
15.01.2021	16:07:48	0	9,63631	2,71142	1,52625	330,6852	0,842	83,142	0	1015,94	7,8	9,7	9,4	1	1	1	1	1	1	1	1	1	0	1	-8,174771	274,901337	315,635385	0
15.01.2021	16:07:49	0	9,398376	3,615226	1,51875	334,53	0,846	83,151	0	1015,96	7,8	9,7	9,4	1	1	1	1	1	1	1	1	1	0	1	-12,614517	275,010532	311,710438	0
15.01.2021	16:07:50	0	9,041476	2,598444	1,48275	318,1464	0,841	83,152	0	1015,96	7,9	9,7	9,4	1	1	1	1	1	1	1	1	1	0	1	-10,288936	274,998022	313,977007	0
15.01.2021	16:07:51	0	9,755276	4,744984	1,44525	330,6312	0,848	83,15	0	1015,98	7,9	9,7	9,4	1	1	1	1	1	1	1	1	1	0	1	-12,332629	274,977709	311,837517	0
15.01.2021	16:07:52	0	9,874243	4,85796	1,3815	334,2636	0,845	83,146	0	1016	7,8	9,7	9,4	1	1	1	1	1	1	1	1	1	0	1	-11,41649	274,850072	312,152189	0
15.01.2021	16:07:53	0	9,279409	2,937371	1,24575	331,1388	0,843	83,143	0	1015,94	7,8	9,7	9,4	1	1	1	1	1	1	1	1	1	0	1	-11,275546	274,915342	312,600602	0
15.01.2021	16:07:54	0	9,63631	4,293081	1,1715	323,7048	0,842	83,133	0	1016,1	7,8	9,7	9,4	1	1	1	1	1	1	1	1	1	0	1	-5,426357	274,839215	318,091201	0
15.01.2021	16:07:55	0	9,755276	5,083912	1,131	313,2288	0,848	83,138	0	1016,1	7,8	9,7	9,4	1	1	1	1	1	1	1	1	1	0	1	-9,020437	274,927799	314,914419	0
15.01.2021	16:07:56	0	9,279409	2,824395	1,098	333,2628	0,839	83,134	0	1015,96	7,8	9,7	9,4	1	1	1	1	1	1	1	1	1	0	1	-10,570825	275,021486	313,805804	0
15.01.2021	16:07:57	0	9,517343	2,598444	1,074	333,4788	0,845	83,131	0	1015,94	7,8	9,7	9,4	1	1	1	1	1	1	1	1	1	0	1	-10,42988	274,94806	313,600473	0
15.01.2021	16:07:58	0	9,160443	2,937371	1,0455	332,0568	0,844	83,126	0	1016,02	7,9	9,7	9,4	1	1	1	1	1	1	1	1	1	0	1	-6,412967	274,868698	317,243433	0
15.01.2021	16:07:59	0	9,279409	2,485468	1,07775	327,8088	0,847	83,131	0	1015,92	7,8	9,7	9,4	1	1	1	1	1	1	1	1	1	0	1	-11,557435	275,008968	312,760141	0
15.01.2021	16:08:00	0	9,398376	2,937371	1,06875	330,408	0,842	83,112	0	1016,02	7,9	9,7	9,4	1	1	1	1	1	1	1	1	1	0	1	-10,077519	274,923127	313,835315	0
15.01.2021	16:08:01	0	9,398376	2,937371	1,06875	330,408	0,842	83,112	0	1016,02	7,9	9,7	9,4	1	1	1	1	1	1	1	1	1	0	1	-8,104299	274,859383	315,508228	0
15.01.2021	16:08:02	0	9,398376	2,372492	1,09275	329,6376	0,841	83,129	0	1015,88	7,8	9,7	9,4	1	1	1	1	1	1	1	1	1	0	1	-15,292459	274,982395	308,899782	0
15.01.2021	16:08:03	0	9,63631	2,824395	1,13025	336,402	0,847	83,132	0	1015,94	7,8	9,7	9,4	1	1	1	1	1	1	1	1	1	0	1	-8,80902	274,860935	314,810817	0
15.01.2021	16:08:04	0	9,755276	3,276299	1,18875	327,3552	0,844	83,127	0	1016,06	7,8	9,7	9,4	1	1	1	1	1	1	1	1	1	0	1	-11,627907	275,015226	312,71919	0
15.01.2021	16:08:05	0	9,755276	4,85796	1,19025	327,114	0,842	83,134	0	1016,08	7,8	9,7	9,4	1	1	1	1	1	1	1	1	1	0	1	-8,174771	274,976147	315,988011	0
15.01.2021	16:08:06	0	9,279409	4,632009	1,15275	327,8016	0,845	83,131	0	1015,96	7,8	9,7	9,4	1	1	1	1	1	1	1	1	1	0	1	-8,949965	274,980833	315,234911	0
15.01.2021	16:08:07	0	9,755276	3,841178	1,182	327,0096	0,848	83,137	0	1015,92	7,8	9,7	9,4	1	1	1	1	1	1	1	1	1	0	1	-12,614517	274,968341	311,511456	0
15.01.2021	16:08:08	0	9,279409	2,937371	1,1715	331,1208	0,843	83,129	0	1016	7,8	9,7	9,4	1	1	1	1	1	1	1	1	1	0	1	-10,641297	274,987081	313,573048	0
15.01.2021	16:08:09	0	9,398376	3,389275	1,134	330,732	0,844	83,118	0	1016	7,9	9,7	9,4	1	1	1	1	1	1	1	1	1	0	1	-14,235377	274,940265	309,758232	0
15.01.2021	16:08:10	0	9,517343	3,954154	1,17525	330,732	0,837	83,123	0	1015,96	7,8	9,7	9,4	1	1	1	1	1	1	1	1	1	0	1	-11,346018	274,817519	312,069398	0
15.01.2021	16:08:11	0	9,517343	3,841178	1,1775	330,372	0,844	83,113	0	1015,88	7,9	9,7	9,4	1	1	1	1	1	1	1	1	1	0	1	-8,386187	274,885788	315,350712	0
15.01.2021	16:08:12	0	9,398376	4,632009	1,1385	331,5456	0,85	83,136	0	1015,92	7,8	9,7	9,4	1	1	1	1	1	1	1	1	1	0	1	-7,399577	275,008968	316,917999	0
15.01.2021	16:08:13	0	9,279409	2,824395	1,11525	317,628	0,841	83,14	0	1016,18	7,8	9,7	9,4	1	1	1	1	1	1	1	1	1	0	1	-9,513742	274,845418	314,033024	0
15.01.2021	16:08:14	0	9,279409	3,276299	1,1505	306,4716	0,844	83,132	0	1015,9	7,9	9,7	9,4	1	1	1	1	1	1	1	1	1	0	1	-9,090909	274,969902	315,042424	0
15.01.2021	16:08:15	0	9,63631	4,85796	1,092	309,2688	0,839	83,119	0	1016	7,8	9,7	9,4	1	1	1	1	1	1	1	1	1	0	1	-9,584214	274,918455	314,306606	0
15.01.2021	16:08:16	0	9,874243	4,744984	1,0455	315,8712	0,844	83,127	0	1015,9	7,8	9,7	9,4	1	1	1	1	1	1	1	1	1	0	1	-9,795631	274,990207	314,433452	0
15.01.2021	16:08:17	0	9,517343	4,632009	1,00575	315,8676	0,848	83,128	0	1016,1	7,8	9,7	9,4	1	1	1	1	1	1	1	1	1	0	1	-8,80902	274,943382	315,199284	0
15.01.2021	16:08:18	0	9,398376	4,744984	0,957	306,108	0,844	83,12	0	1015,98	7,8	9,7	9,4	1	1	1	1	1	1	1	1	1	0	1	-8,668076	274,836114	314,834881	0
15.01.2021	16:08:19	0	9,041476	2,598444	0,92775	304,3152	0,848	83,126	0	1016,06	7,8	9,7	9,4	1	1	1	1	1	1	1	1	1	0	1	-8,738548	274,973025	315,409508	0
15.01.2021	16:08:20	0	9,398376	4,293081	0,954	309,9456	0,844	83,127	0	1015,9	7,8	9,7	9,4	1	1	1	1	1	1	1	1	1	0	1	-9,725159	274,969902	314,408175	0
15.01.2021	16:08:21	0	9,279409	4,180105	0,99825	302,1228	0,848	83,118	0	1015,98	7,8	9,7	9,4	1	1	1	1	1	1	1	1	1	0	1	-5,21494	274,882679	318,507317	0
15.01.2021	16:08:22	0	9,755276	4,519033	1,0905	299,808	0,845	83,132	0	1015,92	7,8	9,7	9,4	1	1	1	1	1	1	1	1	1	0	1	-12,825934	274,859383	310,786593	0
15.01.2021	16:08:23	0	9,755276	4,857931	1,1955	303,2028	0,838	83,125	0	1015,9	7,8	9,7	9,5	1	1	1	1	1	1	1	1	1	0	1	-9,44327	274,826814	314,015904	0
15.01.2021	16:08:24	0	9,755276	4,744984	1,2885	318,852	0,841	83,111	0	1016	7,8	9,7	9,4	1	1	1	1	1	1	1	1	1	0	1	-9,654686	274,965219	314,456568	0
15.01.2021	16:08:25	0	9,041476	3,163323	1,2915	324,1044	0,842	83,106	0	1016	7,8	9,7	9,4	1	1	1	1	1	1	1	1	1	0	1	-8,104299	275,016791	316,25018	0
15.01.2021	16:08:26	0	9,63631	4,293081	1,22025	304,632	0,833	83,105	0	1015,96	7,9	9,7	9,4	1	1	1	1	1	1	1	1	1	0	1	-16,420014	274,923127	307,492821	0
15.01.2021	16:08:27	0	9,279409	4,067129	1,18725	290,4876	0,841	83,115	0	1015,92	7,8	9,7	9,4	1	1	1	1	1	1	1	1	1	0	1	-12,473573	274,980833	311,711303	0
15.01.2021	16:08:28	0	9,398376	3,050329	1,07475	300,1644	0,834	83,117	0	1015,68	7,8	9,7	9,5	1	1	1	1	1	1	1	1	1	0	1	-5,426357	274,962098	318,670182	0
15.01.2021	16:08:29	0	9,755276	4,970936	1,03875	323,3124	0,837	83,1	0	1015,98	7,8	9,7	9,4	1	1	1	1	1	1	1	1	1	0	1	-10,852713	275,00584	313,450107	0
15.01.2021	16:08:30	0	9,160443	4,067129	1,0695	334,9692	0,846	83,091	0	1015,96	7,8	9,7	9,4	1	1	1	1	1	1	1	1	1	0	1	-10,077519	274,851623	313,498467	0
15.01.2021	16:08:31	0	9,398376	4,519033	1,14825	340,1928	0,843	83,118	0	1016,04	7,8	9,7	9,4	1	1	1	1	1	1	1	1	1	0	1	-8,386187	274,976147	315,776594	0
15.01.2021	16:08:32	0	9,279409	3,050347	1,1805	330,3828	0,845	83,107	0	1015,9	7,8	9,7	9,4	1	1	1	1	1	1	1	1	1	0	1	-9,090909	274,836114	314,412048	0
15.01.2021	16:08:33	0	9,517343	4,744984	1,20225	324,414	0,842	83,105	0	1016,06	7,8	9,7	9,4	1	1	1	1	1	1	1	1	1	0	1	-11,839323	274,938706	312,146939	0
15.01.2021	16:08:34	0	9,041476	2,937371	1,167	334,9116	0,843	83,098	0	1016,08	7,8	9,7	9,4	1	1	1	1	1	1	1	1	1	0	1	-12,05074	274,991769	312,185714	0
15.01.2021	16:08:35	0	9,517343	3,50225	1,15275	333,4644	0,84	83,11	0	1016,02	7,9	9,7	9,4	1	1	1	1	1	1	1	1	1	0	1	-10,359408	274,871804	313,311622	0
15.01.2021	16:08:36	0	8,684575	3,389275	1,0935	322,5636	0,845	83,105	0	1015,9	7,8	9,7	9,4	1	1	1	1	1	1	1	1	1	0	1	-17,688513	274,996458	306,570056	0
15.01.2021	16:08:37	0	9,398376	3,050347	1,02825	321,1344	0,844	83,107	0	1015,84	7,8	9,7	9,4	1	1	1	1	1	1	1	1	1	0	1	-9,020437	274,954298	315,039325	0
15.01.2021	16:08:38	0	9,041539	2,598444	0,99075	321,822	0,843	83,095	0	1015,94	7,8	9,6	9,4	1	1	1	1	1	1	1	1	1	0	1	-9,372798	274,811325	314,01346	0
15.01.2021	16:08:39	0	9,63631	4,180105	0,94275	326,3616	0,847	83,107	0	1016,06	7,8	9,7	9,4	1	1	1	1	1	1	1	1	1	0	1	-11,275546	274,882679	312,446711	0
15.01.2021	16:08:40	0	9,398442	3,841178	0,8955	327,0456	0,837	83,109	0	1016,04	7,8	9,6	9,4	1	1	1	1	1	1	1	1	1	0	1	-12,825934	274,985519	311,381042	0
15.01.2021	16:08:41	0	9,279409	3,728202	0,825	328,59	0,841	83,083	0	1015,94	7,8	9,7	9,4	1	1	1	1	1	1	1	1	1	0	1	-10,923185	274,976147	313,239596	0
15.01.2021	16:08:42	0	9,398442	4,632009	0,74475	324,1764	0,84	83,098	0	1016	7,8	9,6	9,4	1	1	1	1	1	1	1	1	1	0	1	-12,684989	275,002712	311,603077	0
15.01.2021	16:08:43	0	8,803542	2,372492	0,74775	316,9764	0,843	83,08	0	1016,06	7,8	9,7	9,4	1	1	1	1	1	1	1	1	1	0	1	-12,05074	274,988644	312,170974	0
15.01.2021	16:08:44	0	9,517343	3,954154	0,74775	321,8544	0,838	83,085	0	1015,78	7,8	9,7	9,4	1	1	1	1	1	1	1	1	1	0	1	-9,654686	274,930915	314,294853	0
15.01.2021	16:08:45	0	9,398376	2,937371	0,72075	332,6904	0,842	83,078	0	1015,98	7,8	9,7	9,4	1	1	1	1	1	1	1	1	1	0	1	-8,738548	274,814422	314,662287	0
15.01.2021	16:08:46	0	9,279409	2,937371	0,66975	339,4476	0,845	83,092	0	1015,98	7,8	9,7	9,4	1	1	1	1	1	1	1	1	1	0	1	-11,275546	274,944941	312,740108	0
15.01.2021	16:08:47	0	9,398376	2,598444	0,6735	340,236	0,835	83,079	0	1015,94	7,8	9,7	9,4	1	1	1	1	1	1	1	1	1	0	1	-9,936575	274,887342	313,807647	0
15.01.2021	16:08:48	0	9,041476	2,485468	0,66525	325,9584	0,841	83,088	0	1016,12	7,8	9,7	9,4	1	1	1	1	1	1	1	1	1	0	1	-11,768851	274,805132	311,58826	0
15.01.2021	16:08:49	0	9,160443	2,485468	0,61575	317,7648	0,841	83,087	0	1015,96	7,8	9,7	9,4	1	1	1	1	1	1	1	1	1	0	1	-10,782241	274,940265	313,211368	0
15.01.2021	16:08:50	0	9,398376	4,406057	0,56025	325,9656	0,84	83,091	0	1015,98	7,8	9,7	9,4	1	1	1	1	1	1	1	1	1	0	1	-12,825934	274,929357	311,116264	0
15.01.2021	16:08:51	0	9,160443	3,163323	0,5745	339,4476	0,845	83,095	0	1015,96	7,8	9,7	9,4	1	1	1	1	1	1	1	1	1	0	1	-9,372798	274,990207	314,856285	0
15.01.2021	16:08:52	0	9,279409	4,519033	0,5805	345,0852	0,836	83,085	0	1015,92	7,8	9,7	9,4	1	1	1	1	1	1	1	1	1	0	1	-14,587738	274,958978	309,494088	0
15.01.2021	16:08:53	0	9,160443	2,71142	0,546	342,396	0,832	83,101	0	1015,92	7,8	9,7	9,4	1	1	1	1	1	1	1	1	1	0	1	-9,654686	275,007404	314,655511	0
15.01.2021	16:08:54	0	9,279409	4,406057	0,5775	334,2744	0,843	83,099	0	1015,98	7,8	9,7	9,4	1	1	1	1	1	1	1	1	1	0	1	-7,117689	274,865592	316,524084	0
15.01.2021	16:08:55	0	9,398376	4,632009	0,546	326,7144	0,842	83,094	0	1016,14	7,8	9,7	9,4	1	1	1	1	1	1	1	1	1	0	1	-12,544045	274,932473	311,412838	0
15.01.2021	16:08:56	0	9,517343	3,954154	0,54825	330,3828	0,835	83,095	0	1016,02	8	9,7	9,4	1	1	1	1	1	1	1	1	1	0	1	-8,879493	274,825265	314,572386	0
15.01.2021	16:08:57	0	9,160443	2,937371	0,52575	332,0496	0,837	83,095	0	1015,88	7,8	9,7	9,4	1	1	1	1	1	1	1	1	1	0	1	-9,725159	274,96678	314,393455	0
15.01.2021	16:08:58	0	9,041476	2,937371	0,5445	335,6316	0,834	83,092	0	1016,04	7,8	9,7	9,4	1	1	1	1	1	1	1	1	1	0	1	-9,090909	274,862487	314,536239	0
15.01.2021	16:08:59	0	9,160507	4,406057	0,546	339,8328	0,831	83,1	0	1016,08	7,8	9,6	9,4	1	1	1	1	1	1	1	1	1	0	1	-8,174771	274,808228	315,196913	0
15.01.2021	16:09:00	0	9,041476	3,050347	0,609	353,2716	0,837	83,097	0	1015,94	7,8	9,7	9,4	1	1	1	1	1	1	1	1	1	0	1	-9,513742	274,808228	313,857941	0
15.01.2021	16:09:01	0	9,041476	3,050347	0,609	353,2716	0,837	83,097	0	1015,94	7,8	9,7	9,4	1	1	1	1	1	1	1	1	1	0	1	-9,513742	274,808228	313,857941	0
15.01.2021	16:09:02	0	9,041539	3,276299	0,59025	352,5336	0,839	83,079	0	1015,84	7,8	9,6	9,4	1	1	1	1	1	1	1	1	1	0	1	-9,584214	274,856278	314,013694	0
15.01.2021	16:09:03	0	9,160443	4,180105	0,6525	338,4072	0,839	83,099	0	1016,14	7,8	9,7	9,4	1	1	1	1	1	1	1	1	1	0	1	-11,134602	274,812873	312,258945	0
15.01.2021	16:09:04	0	9,279409	2,937371	0,62925	327,0528	0,831	83,096	0	1015,98	7,8	9,7	9,4	1	1	1	1	1	1	1	1	1	0	1	-10,852713	274,879571	312,854904	0
15.01.2021	16:09:05	0	9,041539	4,180105	0,642	326,0484	0,836	83,09	0	1015,94	7,8	9,6	9,4	1	1	1	1	1	1	1	1	1	0	1	-11,205074	274,994895	313,046123	0
15.01.2021	16:09:06	0	8,922509	4,519033	0,6885	336,1104	0,838	83,104	0	1016,06	7,8	9,7	9,4	1	1	1	1	1	1	1	1	1	0	1	-7,329105	274,828364	316,137364	0
15.01.2021	16:09:07	0	8,922509	3,50225	0,696	342,3996	0,841	83,096	0	1015,98	7,8	9,7	9,4	1	1	1	1	1	1	1	1	1	0	1	-9,513742	274,878018	314,186556	0
15.01.2021	16:09:08	0	8,922509	2,372478	0,669	343,926	0,836	83,092	0	1016,02	7,8	9,7	9,5	1	1	1	1	1	1	1	1	1	0	1	-10,500352	274,80668	312,864045	0
15.01.2021	16:09:09	0	9,398442	3,389275	0,6885	344,7504	0,845	83,105	0	1016,06	7,8	9,6	9,4	1	1	1	1	1	1	1	1	1	0	1	-8,738548	274,926242	315,188966	0
15.01.2021	16:09:10	0	8,922571	4,744984	0,70275	343,5156	0,84	83,089	0	1015,96	7,8	9,6	9,4	1	1	1	1	1	1	1	1	1	0	1	-15,221987	274,957418	308,852483	0
15.01.2021	16:09:11	0	9,160507	4,293055	0,75225	336,0528	0,831	83,092	0	1015,98	7,8	9,6	9,5	1	1	1	1	1	1	1	1	1	0	1	-7,117689	274,934031	316,846538	0
15.01.2021	16:09:12	0	9,517343	4,632009	0,7635	334,9908	0,843	83,102	0	1016,2	7,8	9,7	9,4	1	1	1	1	1	1	1	1	1	0	1	-11,346018	274,977709	312,824127	0
15.01.2021	16:09:13	0	8,803542	2,485468	0,76875	343,8936	0,84	83,107	0	1016,02	7,8	9,7	9,4	1	1	1	1	1	1	1	1	1	0	1	-10,711769	274,988644	313,509945	0
15.01.2021	16:09:14	0	9,160443	3,389275	0,7605	353,556	0,844	83,104	0	1016,06	7,8	9,7	9,4	1	1	1	1	1	1	1	1	1	0	1	-7,188161	274,906004	316,643986	0
15.01.2021	16:09:15	0	9,160443	5,196856	0,738	351,0504	0,839	83,109	0	1016,04	7,8	9,7	9,5	1	1	1	1	1	1	1	1	1	0	1	-11,06413	274,990207	313,164954	0
15.01.2021	16:09:16	0	9,041539	4,744984	0,7155	347,31	0,833	83,095	0	1015,92	7,8	9,6	9,4	1	1	1	1	1	1	1	1	1	0	1	-12,825934	274,943382	311,182371	0
15.01.2021	16:09:17	0	9,279474	4,406057	0,759	348,012	0,842	83,105	0	1015,98	7,8	9,6	9,4	1	1	1	1	1	1	1	1	1	0	1	-9,161381	274,937147	314,817535	0
15.01.2021	16:09:18	0	8,922509	3,72818	0,7845	358,74	0,845	83,104	0	1016,06	7,8	9,7	9,5	1	1	1	1	1	1	1	1	1	0	1	-10,923185	274,996458	313,335384	0
15.01.2021	16:09:19	0	9,041476	3,615226	0,7845	360	0,84	83,084	0	1015,88	7,8	9,7	9,4	1	1	1	1	1	1	1	1	1	0	1	-11,980268	274,913785	311,888545	0
15.01.2021	16:09:20	0	8,803542	3,72818	0,7425	343,0692	0,838	83,096	0	1015,94	7,8	9,7	9,5	1	1	1	1	1	1	1	1	1	0	1	-10,852713	274,80668	312,511684	0
15.01.2021	16:09:21	0	9,041539	3,276299	0,7215	338,2812	0,841	83,099	0	1016,02	7,8	9,6	9,4	1	1	1	1	1	1	1	1	1	0	1	-9,795631	274,912229	314,065847	0
15.01.2021	16:09:22	0	8,922509	4,406057	0,741	0,1188	0,846	83,105	0	1016,08	7,8	9,7	9,4	1	1	1	1	1	1	1	1	1	0	1	-6,131078	275,002712	318,156989	0
15.01.2021	16:09:23	0	8,922571	2,146541	0,72825	15,7644	0,838	83,099	0	1015,88	7,8	9,6	9,4	1	1	1	1	1	1	1	1	1	0	1	-10,782241	274,882679	312,940016	0
15.01.2021	16:09:24	0	8,803542	4,406057	0,702	10,8108	0,841	83,094	0	1015,82	7,8	9,7	9,4	1	1	1	1	1	1	1	1	1	0	1	-10,711769	274,991769	313,524685	0
15.01.2021	16:09:25	0	9,160443	3,728202	0,687	358,344	0,846	83,098	0	1015,86	7,8	9,7	9,4	1	1	1	1	1	1	1	1	1	0	1	-11,768851	274,94806	312,261502	0
15.01.2021	16:09:26	0	9,041539	2,71142	0,666	340,8732	0,84	83,091	0	1015,94	7,8	9,6	9,4	1	1	1	1	1	1	1	1	1	0	1	-8,315715	274,814422	315,08512	0
15.01.2021	16:09:27	0	9,041476	3,50225	0,6735	330,0984	0,843	83,088	0	1016,04	7,8	9,7	9,4	1	1	1	1	1	1	1	1	1	0	1	-10,007047	274,867145	313,642039	0
15.01.2021	16:09:28	0	9,160443	4,18008	0,6225	334,0476	0,843	83,111	0	1016,12	7,8	9,7	9,5	1	1	1	1	1	1	1	1	1	0	1	-9,936575	274,812873	313,456972	0
15.01.2021	16:09:29	0	9,041476	4,519033	0,62775	339,498	0,846	83,105	0	1015,96	7,8	9,7	9,4	1	1	1	1	1	1	1	1	1	0	1	-8,245243	274,969902	315,88809	0
15.01.2021	16:09:30	0	9,398442	4,970906	0,6165	335,3148	0,845	83,124	0	1016,12	7,8	9,6	9,5	1	1	1	1	1	1	1	1	1	0	1	-9,795631	274,860935	313,824207	0
15.01.2021	16:09:31	0	8,684575	3,389254	0,59925	331,5096	0,846	83,12	0	1016,02	7,8	9,7	9,5	1	1	1	1	1	1	1	1	1	0	1	-7,047216	274,80668	316,317181	0
15.01.2021	16:09:32	0	8,803604	2,937354	0,65025	330,7788	0,838	83,11	0	1016	7,8	9,6	9,5	1	1	1	1	1	1	1	1	1	0	1	-10,077519	274,850072	313,491161	0
15.01.2021	16:09:33	0	9,160443	4,067129	0,654	332,8452	0,841	83,107	0	1016	7,8	9,7	9,4	1	1	1	1	1	1	1	1	1	0	1	-9,302326	274,980833	314,88255	0
15.01.2021	16:09:34	0	9,160443	4,067129	0,669	335,3184	0,835	83,096	0	1016,02	7,8	9,7	9,4	1	1	1	1	1	1	1	1	1	0	1	-11,275546	274,915342	312,600602	0
15.01.2021	16:09:35	0	8,922509	4,180105	0,63375	333,8424	0,841	83,105	0	1015,9	7,8	9,7	9,4	1	1	1	1	1	1	1	1	1	0	1	-10,077519	274,996458	314,18105	0
15.01.2021	16:09:36	0	8,922509	3,050347	0,63825	326,7756	0,835	83,1	0	1015,96	7,8	9,7	9,4	1	1	1	1	1	1	1	1	1	0	1	-11,557435	274,870251	312,10628	0
15.01.2021	16:09:37	0	9,041476	3,841155	0,657	319,9896	0,841	83,101	0	1015,98	7,8	9,7	9,5	1	1	1	1	1	1	1	1	1	0	1	-7,892882	274,979271	316,284628	0
15.01.2021	16:09:38	0	8,922571	2,824395	0,6765	321,8616	0,838	83,108	0	1015,98	7,8	9,6	9,4	1	1	1	1	1	1	1	1	1	0	1	-14,446794	274,918455	309,444027	0
15.01.2021	16:09:39	0	9,041476	4,406057	0,68475	320,0652	0,843	83,107	0	1016,04	7,8	9,7	9,4	1	1	1	1	1	1	1	1	1	0	1	-8,104299	274,993332	316,139526	0
15.01.2021	16:09:40	0	8,684575	2,937354	0,705	313,2396	0,841	83,106	0	1016,02	7,8	9,7	9,5	1	1	1	1	1	1	1	1	1	0	1	-7,399577	274,876464	316,293403	0
15.01.2021	16:09:41	0	9,160443	4,406031	0,73275	315,1764	0,835	83,109	0	1015,96	7,8	9,7	9,5	1	1	1	1	1	1	1	1	1	0	1	-12,473573	275,001149	311,807118	0
15.01.2021	16:09:42	0	9,160443	3,615205	0,75	316,2384	0,835	83,107	0	1015,94	7,8	9,7	9,5	1	1	1	1	1	1	1	1	1	0	1	-9,302326	274,895116	314,478519	0
15.01.2021	16:09:43	0	9,041476	3,954154	0,81525	307,2024	0,844	83,105	0	1016,1	7,8	9,7	9,4	1	1	1	1	1	1	1	1	1	0	1	-13,812544	274,808228	309,55914	0
15.01.2021	16:09:44	0	8,803604	2,824395	0,9225	296,3988	0,849	83,115	0	1015,96	7,8	9,6	9,4	1	1	1	1	1	1	1	1	1	0	1	-12,684989	274,834564	310,810669	0
15.01.2021	16:09:45	0	8,922571	3,72818	1,08	315,2304	0,842	83,105	0	1015,96	7,8	9,6	9,5	1	1	1	1	1	1	1	1	1	0	1	-11,346018	274,867145	312,303068	0
15.01.2021	16:09:46	0	9,041476	4,406057	1,33875	326,2968	0,844	83,129	0	1016,08	7,8	9,7	9,4	1	1	1	1	1	1	1	1	1	0	1	-9,302326	274,977709	314,86782	0
15.01.2021	16:09:47	0	8,565669	3,163304	1,61475	314,82	0,844	83,111	0	1016,04	7,8	9,6	9,5	1	1	1	1	1	1	1	1	1	0	1	-9,231853	274,980833	314,953022	0
15.01.2021	16:09:48	0	8,922571	3,389254	1,8855	314,0136	0,845	83,115	0	1016,1	7,8	9,6	9,5	1	1	1	1	1	1	1	1	1	0	1	-6,272023	274,888896	317,479523	0
15.01.2021	16:09:49	0	8,803604	4,519006	2,025	316,8936	0,842	83,101	0	1015,9	7,8	9,6	9,5	1	1	1	1	1	1	1	1	1	0	1	-13,460183	274,971463	310,680511	0
15.01.2021	16:09:50	0	8,922509	4,632009	1,94625	317,7288	0,844	83,109	0	1016,04	7,8	9,7	9,4	1	1	1	1	1	1	1	1	1	0	1	-9,161381	274,963659	314,942515	0
15.01.2021	16:09:51	0	8,803604	2,71142	1,84275	312,1596	0,842	83,1	0	1016,08	7,8	9,6	9,4	1	1	1	1	1	1	1	1	1	0	1	-9,725159	274,957418	314,349312	0
15.01.2021	16:09:52	0	8,803542	2,146541	1,8315	314,4852	0,841	83,122	0	1016,08	7,8	9,7	9,4	1	1	1	1	1	1	1	1	1	0	1	-16,560958	274,850072	307,007722	0
15.01.2021	16:09:53	0	8,922509	2,598444	1,7655	322,5744	0,839	83,115	0	1015,96	7,8	9,7	9,4	1	1	1	1	1	1	1	1	1	0	1	-9,654686	274,971463	314,486008	0
15.01.2021	16:09:54	0	9,160507	4,293055	1,6605	323,01	0,836	83,108	0	1016	7,8	9,6	9,5	1	1	1	1	1	1	1	1	1	0	1	-10,641297	274,850072	312,927383	0
15.01.2021	16:09:55	0	8,684636	3,841178	1,5975	315,5724	0,841	83,097	0	1016,04	7,8	9,6	9,4	1	1	1	1	1	1	1	1	1	0	1	-8,80902	274,960538	315,280161	0
15.01.2021	16:09:56	0	8,803604	5,083912	1,542	318,4416	0,837	83,116	0	1015,9	7,8	9,6	9,4	1	1	1	1	1	1	1	1	1	0	1	-10,711769	274,823715	312,732816	0
15.01.2021	16:09:57	0	8,684575	2,824379	1,449	329,6592	0,841	83,115	0	1015,9	7,8	9,7	9,5	1	1	1	1	1	1	1	1	1	0	1	-7,892882	274,958978	316,188943	0
15.01.2021	16:09:58	0	8,922571	3,050347	1,42875	348,3216	0,836	83,113	0	1015,82	7,8	9,6	9,4	1	1	1	1	1	1	1	1	1	0	1	-10,923185	274,846969	312,630885	0
15.01.2021	16:09:59	0	8,565609	3,50225	1,4625	343,5012	0,848	83,122	0	1016,02	7,8	9,7	9,4	1	1	1	1	1	1	1	1	1	0	1	-12,121212	274,820617	311,308787	0
15.01.2021	16:10:00	0	8,565669	3,050329	1,719	314,4456	0,839	83,104	0	1016,02	7,8	9,6	9,5	1	1	1	1	1	1	1	1	1	0	1	-9,795631	274,854727	313,79497	0
15.01.2021	16:10:01	0	8,565669	3,050329	1,719	314,4456	0,839	83,104	0	1016,02	7,8	9,6	9,5	1	1	1	1	1	1	1	1	1	0	1	-11,768851	274,811325	311,617407	0
15.01.2021	16:10:02	0	8,922571	3,276279	1,839	322,9884	0,842	83,123	0	1016,1	7,8	9,6	9,5	1	1	1	1	1	1	1	1	1	0	1	-7,751938	274,968341	316,374035	0
15.01.2021	16:10:03	0	8,922509	2,711403	1,935	318,1752	0,841	83,104	0	1015,9	7,8	9,7	9,5	1	1	1	1	1	1	1	1	1	0	1	-10,923185	274,797395	312,397509	0
15.01.2021	16:10:04	0	8,803604	4,18008	1,91175	329,4612	0,838	83,091	0	1016	7,8	9,6	9,5	1	1	1	1	1	1	1	1	1	0	1	-9,302326	274,929357	314,639872	0
15.01.2021	16:10:05	0	8,803604	3,841178	1,77675	328,5252	0,842	83,103	0	1016,04	7,8	9,6	9,4	1	1	1	1	1	1	1	1	1	0	1	-10,288936	274,845418	313,25783	0
15.01.2021	16:10:06	0	8,684636	4,970936	1,71225	333,7848	0,842	83,08	0	1015,94	7,8	9,6	9,4	1	1	1	1	1	1	1	1	1	0	1	-16,420014	274,802037	306,922529	0
15.01.2021	16:10:07	0	8,565669	3,389254	1,67175	341,262	0,839	83,097	0	1016,04	7,8	9,6	9,5	1	1	1	1	1	1	1	1	1	0	1	-15,574348	274,962098	308,52219	0
15.01.2021	16:10:08	0	8,803604	3,502229	1,737	331,416	0,842	83,083	0	1016	7,8	9,6	9,5	1	1	1	1	1	1	1	1	1	0	1	-11,980268	274,94806	312,050086	0
15.01.2021	16:10:09	0	9,041539	3,841155	1,8765	327,1572	0,843	83,095	0	1016,02	7,8	9,6	9,5	1	1	1	1	1	1	1	1	1	0	1	-10,711769	274,955858	313,355347	0
15.01.2021	16:10:10	0	8,922571	2,711403	1,827	314,1	0,846	83,077	0	1016,02	7,8	9,6	9,5	1	1	1	1	1	1	1	1	1	0	1	-6,553911	274,797395	316,766783	0
15.01.2021	16:10:11	0	8,922509	4,631981	1,86675	304,2864	0,839	83,094	0	1015,9	7,8	9,7	9,5	1	1	1	1	1	1	1	1	1	0	1	-9,725159	274,843867	313,814304	0
15.01.2021	16:10:12	0	8,922571	3,615205	1,929	311,7348	0,836	83,073	0	1015,96	7,8	9,6	9,5	1	1	1	1	1	1	1	1	1	0	1	-10,147992	274,802037	313,194551	0
15.01.2021	16:10:13	0	8,922571	3,163304	2,0325	307,1628	0,839	83,095	0	1015,96	7,8	9,6	9,5	1	1	1	1	1	1	1	1	1	0	1	-8,033827	274,9465	315,989177	0
15.01.2021	16:10:14	0	8,565669	3,502229	2,02425	333,5076	0,838	83,056	0	1015,9	7,8	9,6	9,5	1	1	1	1	1	1	1	1	1	0	1	-9,725159	274,811325	313,6611	0
15.01.2021	16:10:15	0	8,803604	3,615205	2,013	316,9476	0,843	83,069	0	1016,1	7,8	9,6	9,5	1	1	1	1	1	1	1	1	1	0	1	-5,567301	274,929357	318,374896	0
15.01.2021	16:10:16	0	8,684636	2,824379	1,96725	324,396	0,845	83,067	0	1015,96	7,8	9,6	9,5	1	1	1	1	1	1	1	1	1	0	1	-5,919662	274,802037	317,422881	0
15.01.2021	16:10:17	0	8,922571	2,937354	1,9725	317,0376	0,841	83,073	0	1015,98	7,8	9,6	9,5	1	1	1	1	1	1	1	1	1	0	1	-8,245243	274,871804	315,425787	0
15.01.2021	16:10:18	0	8,565669	3,276279	1,95825	323,7444	0,84	83,07	0	1015,98	7,8	9,6	9,5	1	1	1	1	1	1	1	1	1	0	1	-11,980268	274,990207	312,248815	0
15.01.2021	16:10:19	0	8,446701	2,824379	1,8345	323,7156	0,839	83,066	0	1016,06	7,8	9,6	9,5	1	1	1	1	1	1	1	1	1	0	1	-6,765328	274,920012	317,13283	0
15.01.2021	16:10:20	0	8,565669	4,18008	1,83375	305,0676	0,842	83,06	0	1016,04	7,8	9,6	9,5	1	1	1	1	1	1	1	1	1	0	1	-6,131078	274,963659	317,972818	0
15.01.2021	16:10:21	0	8,684636	2,937354	1,91475	321,1704	0,838	83,052	0	1015,98	7,8	9,6	9,5	1	1	1	1	1	1	1	1	1	0	1	-8,245243	274,890451	315,513626	0
15.01.2021	16:10:22	0	8,446701	2,937354	1,86075	320,3532	0,84	83,062	0	1016	7,8	9,6	9,5	1	1	1	1	1	1	1	1	1	0	1	-8,949965	274,785021	314,312499	0
15.01.2021	16:10:23	0	8,922571	3,841155	1,72875	332,082	0,839	83,061	0	1015,94	7,8	9,6	9,5	1	1	1	1	1	1	1	1	1	0	1	-10,993658	274,882679	312,728599	0
15.01.2021	16:10:24	0	8,565669	2,937354	1,677	350,2944	0,837	83,035	0	1016,04	7,8	9,6	9,5	1	1	1	1	1	1	1	1	1	0	1	-11,134602	274,803585	312,215225	0
15.01.2021	16:10:25	0	8,803604	3,163304	1,69875	334,26	0,84	83,059	0	1016,02	7,8	9,6	9,5	1	1	1	1	1	1	1	1	1	0	1	-9,795631	274,888896	313,955914	0
15.01.2021	16:10:26	0	8,565669	2,937354	1,7235	332,0316	0,841	83,042	0	1016,06	7,8	9,6	9,5	1	1	1	1	1	1	1	1	1	0	1	-6,131078	274,965219	317,980176	0
15.01.2021	16:10:27	0	8,803604	4,970906	1,84875	326,7144	0,841	83,043	0	1015,98	7,8	9,6	9,5	1	1	1	1	1	1	1	1	1	0	1	-12,896406	274,962098	311,200133	0
15.01.2021	16:10:28	0	8,446701	2,598428	1,98975	341,3664	0,842	83,034	0	1016,16	7,8	9,6	9,5	1	1	1	1	1	1	1	1	1	0	1	-10,147992	274,96678	313,970622	0
15.01.2021	16:10:29	0	8,446701	2,485453	2,1705	325,3032	0,841	83,052	0	1016,06	7,8	9,6	9,5	1	1	1	1	1	1	1	1	1	0	1	-6,412967	274,80668	316,95143	0
15.01.2021	16:10:30	0	8,684636	2,937354	2,30625	335,3472	0,844	83,035	0	1016,12	7,8	9,6	9,5	1	1	1	1	1	1	1	1	1	0	1	-6,553911	274,862487	317,073237	0
15.01.2021	16:10:31	0	8,922571	4,857931	2,3895	327,0492	0,838	83,041	0	1015,96	7,8	9,6	9,5	1	1	1	1	1	1	1	1	1	0	1	-10,993658	274,937147	312,985259	0
15.01.2021	16:10:32	0	8,327733	2,372478	2,3475	306,18	0,837	83,039	0	1016,02	7,8	9,6	9,5	1	1	1	1	1	1	1	1	1	0	1	-13,601128	274,9465	310,421876	0
15.01.2021	16:10:33	0	8,803604	4,744956	2,21025	318,2184	0,84	83,029	0	1016,12	7,8	9,6	9,5	1	1	1	1	1	1	1	1	1	0	1	-6,624383	274,940265	317,369226	0
15.01.2021	16:10:34	0	8,565669	3,95413	2,1465	315,9108	0,839	83,039	0	1015,94	7,8	9,6	9,5	1	1	1	1	1	1	1	1	1	0	1	-10,500352	274,934031	313,463874	0
15.01.2021	16:10:35	0	8,684636	3,95413	2,10975	315,252	0,836	83,02	0	1015,96	7,8	9,6	9,5	1	1	1	1	1	1	1	1	1	0	1	-9,725159	274,999585	314,548158	0
15.01.2021	16:10:36	0	8,565609	4,067105	2,09925	319,1724	0,832	83,029	0	1016	7,8	9,7	9,5	1	1	1	1	1	1	1	1	1	0	1	-9,302326	274,851623	314,27366	0
15.01.2021	16:10:37	0	8,446701	2,598428	2,02725	323,28	0,842	83,041	0	1016,08	7,8	9,6	9,5	1	1	1	1	1	1	1	1	1	0	1	-8,668076	274,809776	314,710894	0
15.01.2021	16:10:38	0	8,565669	3,841155	1,9875	325,9872	0,836	83,009	0	1016	7,8	9,6	9,5	1	1	1	1	1	1	1	1	1	0	1	-8,738548	274,78966	314,545747	0
15.01.2021	16:10:39	0	8,803604	2,824379	1,96575	322,956	0,837	83,036	0	1016,06	7,8	9,6	9,5	1	1	1	1	1	1	1	1	1	0	1	-10,641297	274,923127	313,271538	0
15.01.2021	16:10:40	0	8,208766	3,276279	2,01975	325,9764	0,839	83,041	0	1015,9	7,8	9,6	9,5	1	1	1	1	1	1	1	1	1	0	1	-8,45666	274,822166	314,980632	0
15.01.2021	16:10:41	0	8,684636	3,72818	2,0835	324,4248	0,838	83,037	0	1016,12	7,8	9,6	9,5	1	1	1	1	1	1	1	1	1	0	1	-9,020437	274,802037	314,322106	0
15.01.2021	16:10:42	0	8,565609	2,711403	2,10825	325,5948	0,838	83,038	0	1016,02	7,8	9,7	9,5	1	1	1	1	1	1	1	1	1	0	1	-9,090909	274,86404	314,543551	0
15.01.2021	16:10:43	0	8,684636	4,519006	2,196	319,626	0,836	83,037	0	1016	7,8	9,6	9,5	1	1	1	1	1	1	1	1	1	0	1	-7,540521	274,795848	315,772892	0
15.01.2021	16:10:44	0	8,684636	2,598428	2,2125	322,6608	0,838	83,016	0	1016	7,8	9,6	9,5	1	1	1	1	1	1	1	1	1	0	1	-10,711769	274,85783	312,893449	0
15.01.2021	16:10:45	0	8,684636	4,293055	2,22375	321,1992	0,84	83,02	0	1016	7,7	9,6	9,5	1	1	1	1	1	1	1	1	1	0	1	-8,738548	274,977709	315,431597	0
15.01.2021	16:10:46	0	8,684636	2,824379	2,169	322,6788	0,841	83,015	0	1016,06	7,8	9,6	9,5	1	1	1	1	1	1	1	1	1	0	1	-12,191684	274,867145	311,457402	0
15.01.2021	16:10:47	0	8,922571	4,293055	2,148	320,4396	0,834	83,002	0	1015,98	7,8	9,6	9,5	1	1	1	1	1	1	1	1	1	0	1	-11,275546	274,795848	312,037867	0
15.01.2021	16:10:48	0	8,803604	3,615205	2,13075	327,3876	0,831	83,009	0	1016,04	7,8	9,6	9,5	1	1	1	1	1	1	1	1	1	0	1	-9,090909	274,853175	314,492384	0
15.01.2021	16:10:49	0	8,684636	3,502229	2,1165	324,1188	0,838	82,996	0	1016	7,8	9,6	9,5	1	1	1	1	1	1	1	1	1	0	1	-8,386187	274,785021	314,876276	0
15.01.2021	16:10:50	0	8,446701	4,631981	2,13	324,774	0,835	82,994	0	1016,08	7,8	9,6	9,5	1	1	1	1	1	1	1	1	1	0	1	-7,117689	274,973025	317,030368	0
15.01.2021	16:10:51	0	8,565609	4,970906	2,04525	332,1	0,835	82,996	0	1015,88	7,8	9,7	9,5	1	1	1	1	1	1	1	1	1	0	1	-9,161381	274,904448	314,663435	0
15.01.2021	16:10:52	0	8,208766	2,711403	2,00625	322,5744	0,836	82,979	0	1015,84	7,8	9,6	9,5	1	1	1	1	1	1	1	1	1	0	1	-10,993658	274,772655	312,21062	0
15.01.2021	16:10:53	0	8,803604	3,841155	1,99875	325,1196	0,829	82,984	0	1016,06	7,8	9,6	9,5	1	1	1	1	1	1	1	1	1	0	1	-12,191684	274,854727	311,398916	0
15.01.2021	16:10:54	0	8,803604	3,502229	1,96875	327,0852	0,827	82,964	0	1015,98	7,8	9,6	9,5	1	1	1	1	1	1	1	1	1	0	1	-13,460183	274,96678	310,65843	0
15.01.2021	16:10:55	0	8,803604	2,598428	1,96875	342,0504	0,832	82,978	0	1015,92	7,8	9,6	9,5	1	1	1	1	1	1	1	1	1	0	1	-10,852713	274,909116	312,994098	0
15.01.2021	16:10:56	0	8,565609	2,485453	1,93725	338,0652	0,826	82,965	0	1015,96	7,7	9,7	9,5	1	1	1	1	1	1	1	1	1	0	1	-9,372798	274,780383	313,867841	0
15.01.2021	16:10:57	0	8,327733	4,631981	1,86975	335,0484	0,835	82,984	0	1016	7,8	9,6	9,5	1	1	1	1	1	1	1	1	1	0	1	-11,346018	274,940265	312,647591	0
15.01.2021	16:10:58	0	8,446701	3,502229	1,86525	322,1712	0,827	82,971	0	1016,02	7,8	9,6	9,5	1	1	1	1	1	1	1	1	1	0	1	-7,188161	274,822166	316,249131	0
15.01.2021	16:10:59	0	8,327733	3,95413	1,95975	331,5456	0,824	82,957	0	1015,82	7,8	9,6	9,5	1	1	1	1	1	1	1	1	1	0	1	-9,795631	274,800489	313,539629	0
15.01.2021	16:11:00	0	8,446701	3,050329	2,09325	336,0672	0,829	82,962	0	1015,96	7,8	9,6	9,5	1	1	1	1	1	1	1	1	1	0	1	-10,782241	274,943382	313,226064	0
15.01.2021	16:11:01	0	8,446701	3,050329	2,09325	336,0672	0,829	82,962	0	1015,96	7,8	9,6	9,5	1	1	1	1	1	1	1	1	1	0	1	-8,527132	274,893561	315,246387	0
15.01.2021	16:11:02	0	8,089798	2,937354	2,127	330,318	0,833	82,954	0	1015,92	7,7	9,6	9,5	1	1	1	1	1	1	1	1	1	0	1	-10,500352	274,792754	312,7985	0
15.01.2021	16:11:03	0	8,327733	2,937354	2,0565	331,164	0,834	82,961	0	1016	7,9	9,6	9,5	1	1	1	1	1	1	1	1	1	0	1	-11,06413	274,916899	312,819354	0
15.01.2021	16:11:04	0	8,565669	2,711403	2,06625	334,656	0,834	82,96	0	1016,1	7,7	9,6	9,5	1	1	1	1	1	1	1	1	1	0	1	-9,654686	274,819068	313,768021	0
15.01.2021	16:11:05	0	8,327733	2,598428	2,0355	329,2632	0,828	82,962	0	1015,82	7,7	9,6	9,5	1	1	1	1	1	1	1	1	1	0	1	-4,862579	274,781929	318,385334	0
15.01.2021	16:11:06	0	8,565669	4,857931	1,93725	324,4536	0,832	82,955	0	1015,9	7,9	9,6	9,5	1	1	1	1	1	1	1	1	1	0	1	-14,940099	274,902892	308,877387	0
15.01.2021	16:11:07	0	8,446701	3,050329	1,79925	324,4104	0,832	82,954	0	1016,04	7,9	9,6	9,5	1	1	1	1	1	1	1	1	1	0	1	-11,06413	274,828364	312,40234	0
15.01.2021	16:11:08	0	8,208766	2,25953	1,77675	325,5552	0,834	82,971	0	1016,04	7,8	9,6	9,3	1	1	1	1	1	1	1	1	1	0	1	-11,627907	274,94806	312,402447	0
15.01.2021	16:11:09	0	8,565669	2,598428	1,70325	334,9548	0,83	82,955	0	1016,06	7,9	9,6	9,5	1	1	1	1	1	1	1	1	1	0	1	-10,077519	274,834564	313,418139	0
15.01.2021	16:11:10	0	8,089798	2,824379	1,599	336,744	0,823	82,96	0	1016,02	7,8	9,6	9,5	1	1	1	1	1	1	1	1	1	0	1	-9,302326	274,926242	314,625189	0
15.01.2021	16:11:11	0	8,684636	3,276279	1,506	333,1368	0,826	82,954	0	1015,8	7,8	9,6	9,5	1	1	1	1	1	1	1	1	1	0	1	-10,711769	274,797395	312,608926	0
15.01.2021	16:11:12	0	8,565669	2,711403	1,5315	334,2276	0,829	82,954	0	1016	7,9	9,6	9,5	1	1	1	1	1	1	1	1	1	0	1	-9,725159	274,84852	313,836216	0
15.01.2021	16:11:13	0	8,089798	4,744956	1,51275	332,4024	0,82	82,957	0	1015,96	7,8	9,6	9,5	1	1	1	1	1	1	1	1	1	0	1	-8,104299	274,963659	315,999597	0
15.01.2021	16:11:14	0	8,089798	2,485453	1,5885	335,6748	0,821	82,939	0	1015,92	7,8	9,6	9,5	1	1	1	1	1	1	1	1	1	0	1	-12,191684	274,923127	311,72115	0
15.01.2021	16:11:15	0	8,327733	3,050329	1,61625	338,004	0,823	82,951	0	1015,92	7,9	9,6	9,5	1	1	1	1	1	1	1	1	1	0	1	-9,090909	274,808228	314,280774	0
15.01.2021	16:11:16	0	8,208708	4,631981	1,64025	341,7156	0,826	82,962	0	1016,08	7,8	9,7	9,5	1	1	1	1	1	1	1	1	1	0	1	-12,262156	274,974586	311,893262	0
15.01.2021	16:11:17	0	8,446701	4,631981	1,61925	340,2576	0,826	82,967	0	1016,12	7,7	9,6	9,5	1	1	1	1	1	1	1	1	1	0	1	-8,386187	274,906004	315,445959	0
15.01.2021	16:11:18	0	8,684636	4,970906	1,60575	345,0024	0,83	82,951	0	1016,06	7,9	9,6	9,5	1	1	1	1	1	1	1	1	1	0	1	-12,684989	274,802037	310,657553	0
15.01.2021	16:11:19	0	8,684636	4,406031	1,55625	347,9724	0,831	82,963	0	1016	7,7	9,6	9,5	1	1	1	1	1	1	1	1	1	0	1	-9,513742	274,805132	313,84337	0
15.01.2021	16:11:20	0	8,446701	4,631981	1,55625	349,0524	0,82	82,956	0	1015,92	7,8	9,6	9,5	1	1	1	1	1	1	1	1	1	0	1	-7,610994	274,935589	316,360578	0
15.01.2021	16:11:21	0	8,565669	2,598428	1,55625	356,0868	0,826	82,952	0	1016	7,9	9,6	9,5	1	1	1	1	1	1	1	1	1	0	1	-6,553911	274,809776	316,825059	0
15.01.2021	16:11:22	0	8,327733	4,631981	1,50675	0,4896	0,825	82,953	0	1016,04	7,8	9,6	9,5	1	1	1	1	1	1	1	1	1	0	1	-10,923185	274,937147	313,055731	0
15.01.2021	16:11:23	0	8,565669	4,067105	1,46475	1,9008	0,828	82,965	0	1015,98	7,7	9,6	9,5	1	1	1	1	1	1	1	1	1	0	1	-9,725159	274,826814	313,734015	0
15.01.2021	16:11:24	0	8,446701	4,631981	1,42725	5,6808	0,83	82,968	0	1015,92	7,8	9,6	9,5	1	1	1	1	1	1	1	1	1	0	1	-5,355884	274,899781	318,446943	0
15.01.2021	16:11:25	0	7,97083	2,485453	1,377	8,6796	0,825	82,955	0	1015,98	7,7	9,6	9,5	1	1	1	1	1	1	1	1	1	0	1	-13,248767	274,976147	310,914015	0
15.01.2021	16:11:26	0	8,565669	3,72818	1,311	360	0,826	82,963	0	1016,1	7,8	9,6	9,5	1	1	1	1	1	1	1	1	1	0	1	-7,751938	274,918455	316,138882	0
15.01.2021	16:11:27	0	8,327733	4,631981	1,27125	354,744	0,828	82,957	0	1016,14	7,7	9,6	9,5	1	1	1	1	1	1	1	1	1	0	1	-8,80902	274,952738	315,243388	0
15.01.2021	16:11:28	0	8,208766	3,615205	1,22475	355,0212	0,825	82,96	0	1016,04	7,7	9,6	9,5	1	1	1	1	1	1	1	1	1	0	1	-8,386187	274,910672	315,467957	0
15.01.2021	16:11:29	0	8,208708	3,389295	1,194	3,0168	0,826	82,961	0	1016,02	7,9	9,7	9,3	1	1	1	1	1	1	1	1	1	0	1	-9,866103	274,96678	314,25251	0
15.01.2021	16:11:30	0	8,089798	4,293055	1,1535	0,8568	0,82	82,959	0	1016	7,8	9,6	9,5	1	1	1	1	1	1	1	1	1	0	1	-11,346018	274,888896	312,405527	0
15.01.2021	16:11:31	0	8,089798	2,824379	1,16925	350,2296	0,822	82,939	0	1015,98	7,9	9,6	9,5	1	1	1	1	1	1	1	1	1	0	1	-4,933051	274,780383	318,307587	0
15.01.2021	16:11:32	0	8,089798	2,937389	1,20675	347,598	0,829	82,966	0	1016,1	7,9	9,6	9,3	1	1	1	1	1	1	1	1	1	0	1	-11,41649	274,817519	311,998925	0
15.01.2021	16:11:33	0	8,446701	3,050365	1,287	345,0348	0,827	82,983	0	1016,12	7,9	9,6	9,3	1	1	1	1	1	1	1	1	1	0	1	-8,033827	274,853175	315,549466	0
15.01.2021	16:11:34	0	8,208766	3,050329	1,27575	344,2968	0,829	82,967	0	1015,92	7,8	9,6	9,5	1	1	1	1	1	1	1	1	1	0	1	-7,681466	274,957418	316,393005	0
15.01.2021	16:11:35	0	8,446701	3,502271	1,269	332,3268	0,823	82,976	0	1016,04	7,8	9,6	9,3	1	1	1	1	1	1	1	1	1	0	1	-10,42988	274,915342	313,446267	0
15.01.2021	16:11:36	0	8,089798	3,841155	1,2285	340,6392	0,821	82,968	0	1016,04	7,8	9,6	9,5	1	1	1	1	1	1	1	1	1	0	1	-13,03735	274,791207	310,254223	0
15.01.2021	16:11:37	0	8,446701	3,95413	1,1535	343,5444	0,828	82,971	0	1016,06	7,8	9,6	9,5	1	1	1	1	1	1	1	1	1	0	1	-9,725159	274,893561	314,04836	0
15.01.2021	16:11:38	0	7,851863	2,824379	1,161	337,5828	0,821	82,964	0	1016,2	7,8	9,6	9,5	1	1	1	1	1	1	1	1	1	0	1	-6,20155	274,764931	316,966384	0
15.01.2021	16:11:39	0	8,327733	2,598428	1,1805	339,876	0,822	82,97	0	1015,9	7,7	9,6	9,5	1	1	1	1	1	1	1	1	1	0	1	-10,147992	274,874911	313,537671	0
15.01.2021	16:11:40	0	8,089798	3,502229	1,233	352,782	0,824	82,97	0	1015,8	7,8	9,6	9,5	1	1	1	1	1	1	1	1	1	0	1	-7,047216	274,968341	317,078756	0
15.01.2021	16:11:41	0	8,565669	4,18013	1,323	0,8604	0,822	82,963	0	1015,98	7,7	9,6	9,3	1	1	1	1	1	1	1	1	1	0	1	-7,540521	274,932473	316,416361	0
15.01.2021	16:11:42	0	7,97083	4,18008	1,332	342,0756	0,825	82,978	0	1015,98	7,9	9,6	9,5	1	1	1	1	1	1	1	1	1	0	1	-11,41649	274,792754	311,882362	0
15.01.2021	16:11:43	0	8,089798	3,163304	1,33575	354,726	0,824	82,986	0	1016,04	7,8	9,6	9,5	1	1	1	1	1	1	1	1	1	0	1	-6,906272	274,893561	316,867247	0
15.01.2021	16:11:44	0	7,970775	4,18013	1,32975	356,184	0,826	82,991	0	1016,1	7,9	9,7	9,3	1	1	1	1	1	1	1	1	1	0	1	-8,104299	274,949619	315,933406	0
15.01.2021	16:11:45	0	8,089798	4,293107	1,326	344,3436	0,826	82,979	0	1016,02	7,8	9,6	9,3	1	1	1	1	1	1	1	1	1	0	1	-8,033827	274,887342	315,710395	0
15.01.2021	16:11:46	0	8,446701	4,067154	1,335	346,518	0,822	82,98	0	1016	7,7	9,6	9,3	1	1	1	1	1	1	1	1	1	0	1	-7,751938	274,780383	315,488701	0
15.01.2021	16:11:47	0	8,089798	2,598459	1,32075	352,1088	0,823	82,981	0	1015,98	7,8	9,6	9,3	1	1	1	1	1	1	1	1	1	0	1	-10,570825	274,828364	312,895645	0
15.01.2021	16:11:48	0	8,208766	4,293055	1,26075	349,9596	0,82	82,977	0	1015,96	7,8	9,6	9,5	1	1	1	1	1	1	1	1	1	0	1	-4,369274	274,780383	318,871365	0
15.01.2021	16:11:49	0	8,208766	4,18013	1,15425	352,9512	0,818	82,977	0	1016,12	7,8	9,6	9,3	1	1	1	1	1	1	1	1	1	0	1	-8,45666	274,890451	315,302209	0
15.01.2021	16:11:50	0	8,089798	4,51906	1,08825	338,0004	0,824	82,986	0	1016,06	7,8	9,6	9,3	1	1	1	1	1	1	1	1	1	0	1	-8,949965	274,780383	314,290674	0
15.01.2021	16:11:51	0	7,851863	2,259503	1,13025	340,542	0,827	82,983	0	1016,02	7,8	9,6	9,5	1	1	1	1	1	1	1	1	1	0	1	-15,785765	274,831463	307,695298	0
15.01.2021	16:11:52	0	7,851863	3,841201	1,242	3,7728	0,828	82,979	0	1015,96	7,8	9,6	9,3	1	1	1	1	1	1	1	1	1	0	1	-10,147992	274,94806	313,882362	0
15.01.2021	16:11:53	0	8,208766	4,293055	1,29375	357,6204	0,818	82,976	0	1015,96	7,9	9,6	9,5	1	1	1	1	1	1	1	1	1	0	1	-11,980268	274,812873	311,413279	0
15.01.2021	16:11:54	0	8,327733	2,937354	1,314	353,088	0,826	82,997	0	1016,04	7,8	9,6	9,5	1	1	1	1	1	1	1	1	1	0	1	-11,557435	274,963659	312,546461	0
15.01.2021	16:11:55	0	8,327733	2,824412	1,4025	350,298	0,824	82,998	0	1016,06	7,9	9,6	9,3	1	1	1	1	1	1	1	1	1	0	1	-9,302326	274,826814	314,156848	0
15.01.2021	16:11:56	0	7,851863	3,276279	1,49925	347,2776	0,817	82,975	0	1015,92	7,8	9,6	9,5	1	1	1	1	1	1	1	1	1	0	1	-12,544045	274,940265	311,449564	0
15.01.2021	16:11:57	0	8,327733	2,485453	1,539	343,35	0,825	82,997	0	1016,08	7,7	9,6	9,5	1	1	1	1	1	1	1	1	1	0	1	-9,44327	274,895116	314,337575	0
15.01.2021	16:11:58	0	7,851863	4,744956	1,557	338,3928	0,821	82,989	0	1016,02	7,8	9,6	9,5	1	1	1	1	1	1	1	1	1	0	1	-10,007047	274,941823	313,993909	0
15.01.2021	16:11:59	0	8,089798	4,067154	1,506	340,542	0,827	82,99	0	1016,04	7,8	9,6	9,3	1	1	1	1	1	1	1	1	1	0	1	-8,80902	274,795848	314,504393	0
15.01.2021	16:12:00	0	8,208766	2,711436	1,362	341,6832	0,827	82,998	0	1016,04	7,8	9,6	9,3	1	1	1	1	1	1	1	1	1	0	1	-13,883016	274,943382	310,125289	0
15.01.2021	16:12:01	0	8,208766	2,711436	1,362	341,6832	0,827	82,998	0	1016,04	7,8	9,6	9,3	1	1	1	1	1	1	1	1	1	0	1	-11,980268	274,851623	311,595718	0
15.01.2021	16:12:02	0	7,851863	3,050329	1,35	337,5	0,825	82,982	0	1015,78	7,8	9,6	9,5	1	1	1	1	1	1	1	1	1	0	1	-10,641297	274,78966	312,642998	0
15.01.2021	16:12:03	0	8,327733	3,615205	1,35075	355,8852	0,824	83,004	0	1016,02	7,7	9,6	9,5	1	1	1	1	1	1	1	1	1	0	1	-10,782241	274,918455	313,108579	0
15.01.2021	16:12:04	0	8,089798	3,95413	1,323	353,268	0,823	83,011	0	1016,16	7,8	9,6	9,5	1	1	1	1	1	1	1	1	1	0	1	-12,825934	274,910672	311,02821	0
15.01.2021	16:12:05	0	7,97083	2,711436	1,45725	338,6916	0,823	83,001	0	1016,02	7,8	9,6	9,3	1	1	1	1	1	1	1	1	1	0	1	-9,795631	274,9465	314,227373	0
15.01.2021	16:12:06	0	7,732895	3,276279	1,6635	333,5688	0,824	83,006	0	1016,04	7,8	9,6	9,5	1	1	1	1	1	1	1	1	1	0	1	-10,570825	274,840765	312,954034	0
15.01.2021	16:12:07	0	7,97083	4,293107	1,953	343,9476	0,823	83,007	0	1016,04	7,8	9,6	9,3	1	1	1	1	1	1	1	1	1	0	1	-12,191684	274,957418	311,882786	0
15.01.2021	16:12:08	0	8,208766	3,276318	2,09475	336,402	0,823	83,013	0	1016,02	7,9	9,6	9,3	1	1	1	1	1	1	1	1	1	0	1	-9,513742	274,811325	313,872516	0
15.01.2021	16:12:09	0	7,732895	3,95413	2,18775	330,714	0,821	83,016	0	1016,04	7,8	9,6	9,5	1	1	1	1	1	1	1	1	1	0	1	-5,496829	274,775746	317,721991	0
15.01.2021	16:12:10	0	8,327733	4,51906	2,1675	339,3612	0,823	83,017	0	1016	7,8	9,6	9,3	1	1	1	1	1	1	1	1	1	0	1	-7,892882	274,935589	316,078689	0
15.01.2021	16:12:11	0	7,851863	3,841201	2,046	1,5588	0,825	83,015	0	1016,04	7,8	9,6	9,3	1	1	1	1	1	1	1	1	1	0	1	-10,218464	274,797395	313,102231	0
15.01.2021	16:12:12	0	7,97083	4,970966	1,99425	357,2856	0,82	83,012	0	1015,82	7,8	9,6	9,3	1	1	1	1	1	1	1	1	1	0	1	-10,570825	274,920012	313,327333	0
15.01.2021	16:12:13	0	7,732895	4,406083	1,845	353,6064	0,817	83,016	0	1016	7,8	9,6	9,3	1	1	1	1	1	1	1	1	1	0	1	-10,852713	274,938706	313,133549	0
15.01.2021	16:12:14	0	8,208766	4,293055	1,7355	341,37	0,821	83,021	0	1016,08	7,8	9,6	9,5	1	1	1	1	1	1	1	1	1	0	1	-8,738548	274,940265	315,255061	0
15.01.2021	16:12:15	0	8,089798	4,51906	1,6695	334,1664	0,824	83,029	0	1016,04	7,8	9,6	9,3	1	1	1	1	1	1	1	1	1	0	1	-10,993658	274,916899	312,889826	0
15.01.2021	16:12:16	0	8,327733	4,51906	1,62675	340,2396	0,816	83,026	0	1015,96	7,8	9,6	9,3	1	1	1	1	1	1	1	1	1	0	1	-8,879493	274,932473	315,07739	0
15.01.2021	16:12:17	0	7,851863	3,050365	1,59825	343,566	0,824	83,034	0	1016,06	7,8	9,6	9,3	1	1	1	1	1	1	1	1	1	0	1	-9,302326	274,803585	314,047501	0
15.01.2021	16:12:18	0	7,851863	4,067154	1,57875	337,4424	0,822	83,037	0	1015,88	7,8	9,6	9,3	1	1	1	1	1	1	1	1	1	0	1	-11,134602	274,888896	312,616943	0
15.01.2021	16:12:19	0	7,851863	2,485483	1,67475	339,408	0,824	83,034	0	1016	7,8	9,6	9,3	1	1	1	1	1	1	1	1	1	0	1	-9,302326	274,940265	314,691284	0
15.01.2021	16:12:20	0	8,089798	3,615248	1,72575	344,808	0,811	83,03	0	1016,02	7,8	9,6	9,3	1	1	1	1	1	1	1	1	1	0	1	-13,03735	274,834564	310,458308	0
15.01.2021	16:12:21	0	7,97083	4,857989	1,749	335,3148	0,821	83,025	0	1015,98	7,8	9,6	9,3	1	1	1	1	1	1	1	1	1	0	1	-9,654686	274,952738	314,397722	0
15.01.2021	16:12:22	0	7,97083	2,598459	1,71	329,3568	0,818	83,043	0	1016,06	7,8	9,6	9,3	1	1	1	1	1	1	1	1	1	0	1	-11,134602	274,811325	312,251656	0
15.01.2021	16:12:23	0	7,97083	4,406083	1,713	340,218	0,82	83,035	0	1016,1	7,8	9,6	9,3	1	1	1	1	1	1	1	1	1	0	1	-8,668076	274,74949	314,427225	0
15.01.2021	16:12:24	0	8,089798	4,406083	1,68525	334,6488	0,818	83,028	0	1015,82	7,8	9,6	9,3	1	1	1	1	1	1	1	1	1	0	1	-6,624383	274,892006	317,14181	0
15.01.2021	16:12:25	0	7,851863	3,615205	1,67025	333,126	0,824	83,045	0	1016,18	7,8	9,6	9,5	1	1	1	1	1	1	1	1	1	0	1	-10,288936	274,935589	313,682635	0
15.01.2021	16:12:26	0	7,732895	2,25953	1,62825	340,218	0,82	83,029	0	1016,04	7,8	9,6	9,3	1	1	1	1	1	1	1	1	1	0	1	-11,134602	274,902892	312,682884	0
15.01.2021	16:12:27	0	8,089798	3,841201	1,551	325,224	0,825	83,036	0	1016,14	7,8	9,6	9,3	1	1	1	1	1	1	1	1	1	0	1	-11,909796	274,788114	311,367222	0
15.01.2021	16:12:28	0	7,97083	4,406083	1,566	323,334	0,817	83,05	0	1016,06	7,8	9,6	9,3	1	1	1	1	1	1	1	1	1	0	1	-7,681466	274,937147	316,297451	0
15.01.2021	16:12:29	0	7,851863	4,293107	1,6035	339,2028	0,817	83,034	0	1015,82	7,8	9,6	9,3	1	1	1	1	1	1	1	1	1	0	1	-11,275546	274,9465	312,747457	0
15.01.2021	16:12:30	0	7,851863	2,824379	1,668	345,3516	0,819	83,036	0	1015,98	7,8	9,6	9,5	1	1	1	1	1	1	1	1	1	0	1	-8,879493	274,902892	314,937993	0
15.01.2021	16:12:31	0	7,732895	4,406083	1,668	327,1032	0,824	83,056	0	1016,18	7,8	9,6	9,3	1	1	1	1	1	1	1	1	1	0	1	-9,302326	274,938706	314,683937	0
15.01.2021	16:12:32	0	7,97083	3,841201	1,6095	336,5208	0,828	83,104	0	1015,92	7,8	9,6	9,3	1	1	1	1	1	1	1	1	1	0	1	-10,993658	274,795848	312,319756	0
15.01.2021	16:12:33	0	7,97083	3,050329	1,485	342,7236	0,825	83,048	0	1016,04	7,8	9,6	9,5	1	1	1	1	1	1	1	1	1	0	1	-11,768851	274,802037	311,573691	0
15.01.2021	16:12:34	0	7,851863	5,083942	1,3605	341,3052	0,816	83,04	0	1016	7,8	9,6	9,3	1	1	1	1	1	1	1	1	1	0	1	-8,45666	274,763386	314,704009	0
15.01.2021	16:12:35	0	7,97083	4,51906	1,2975	328,3668	0,822	83,037	0	1016,22	7,8	9,6	9,3	1	1	1	1	1	1	1	1	1	0	1	-14,940099	274,884233	308,789479	0
15.01.2021	16:12:36	0	7,613928	4,970906	1,323	335,43	0,828	83,055	0	1016,08	7,8	9,6	9,5	1	1	1	1	1	1	1	1	1	0	1	-8,527132	274,927799	315,407724	0
15.01.2021	16:12:37	0	8,208766	4,519006	1,34775	335,6928	0,818	83,05	0	1015,86	7,8	9,6	9,5	1	1	1	1	1	1	1	1	1	0	1	-15,362932	274,918455	308,527889	0
15.01.2021	16:12:38	0	8,089798	3,841155	1,36725	336,1284	0,819	83,052	0	1016	7,8	9,6	9,5	1	1	1	1	1	1	1	1	1	0	1	-8,527132	274,879571	315,180485	0
15.01.2021	16:12:39	0	7,851863	2,824412	1,329	335,0376	0,817	83,052	0	1016,06	7,8	9,6	9,3	1	1	1	1	1	1	1	1	1	0	1	-9,584214	274,761842	313,569188	0
15.01.2021	16:12:40	0	7,613928	2,146528	1,25175	333,8748	0,821	83,047	0	1015,9	7,8	9,6	9,5	1	1	1	1	1	1	1	1	1	0	1	-13,248767	274,772655	309,955511	0
15.01.2021	16:12:41	0	7,49496	2,937389	1,1925	327,888	0,817	83,059	0	1015,98	7,8	9,6	9,3	1	1	1	1	1	1	1	1	1	0	1	-10,007047	274,890451	313,751822	0
15.01.2021	16:12:42	0	7,851863	3,954177	1,12275	323,712	0,821	83,051	0	1016,02	7,8	9,6	9,3	1	1	1	1	1	1	1	1	1	0	1	-11,698379	274,777291	311,527713	0
15.01.2021	16:12:43	0	7,49496	3,728224	1,07625	336,8016	0,822	83,051	0	1015,92	7,8	9,6	9,3	1	1	1	1	1	1	1	1	1	0	1	-8,597604	274,873357	315,080742	0
15.01.2021	16:12:44	0	7,732895	2,824412	1,12575	344,2104	0,828	83,049	0	1016,02	7,8	9,6	9,3	1	1	1	1	1	1	1	1	1	0	1	-11,41649	274,752578	311,693332	0
15.01.2021	16:12:45	0	7,732895	2,937389	1,1265	328,6224	0,822	83,063	0	1016,02	7,8	9,6	9,3	1	1	1	1	1	1	1	1	1	0	1	-8,104299	274,788114	315,172718	0
15.01.2021	16:12:46	0	8,089798	4,067129	1,1415	337,5756	0,821	83,055	0	1016,02	7,8	9,6	9,4	1	1	1	1	1	1	1	1	1	0	1	-12,825934	274,754121	310,29115	0
15.01.2021	16:12:47	0	7,851863	4,51906	1,09575	332,7624	0,821	83,06	0	1016,08	7,8	9,6	9,3	1	1	1	1	1	1	1	1	1	0	1	-9,372798	274,76802	313,809672	0
15.01.2021	16:12:48	0	7,732895	3,615248	1,08	325,9692	0,824	83,067	0	1016,08	7,8	9,6	9,3	1	1	1	1	1	1	1	1	1	0	1	-7,258633	274,881125	316,456304	0
15.01.2021	16:12:49	0	7,732895	2,25953	1,15425	323,3088	0,825	83,057	0	1016	7,8	9,6	9,3	1	1	1	1	1	1	1	1	1	0	1	-9,725159	274,761842	313,428244	0
15.01.2021	16:12:50	0	8,089798	4,51906	1,18125	326,7252	0,817	83,053	0	1015,92	7,8	9,6	9,3	1	1	1	1	1	1	1	1	1	0	1	-7,892882	274,823715	315,551703	0
15.01.2021	16:12:51	0	7,49496	2,485453	1,2825	324,1116	0,824	83,064	0	1015,98	7,8	9,6	9,5	1	1	1	1	1	1	1	1	1	0	1	-9,725159	274,760297	313,420979	0
15.01.2021	16:12:52	0	7,97083	4,51906	1,41525	319,1148	0,824	83,068	0	1016,06	7,8	9,6	9,3	1	1	1	1	1	1	1	1	1	0	1	-9,44327	274,833013	314,04509	0
15.01.2021	16:12:53	0	7,732895	4,51906	1,515	328,9392	0,826	83,078	0	1015,96	7,8	9,6	9,3	1	1	1	1	1	1	1	1	1	0	1	-6,624383	274,766475	316,550819	0
15.01.2021	16:12:54	0	7,732895	2,824395	1,5975	335,3616	0,821	83,064	0	1016,1	7,8	9,6	9,4	1	1	1	1	1	1	1	1	1	0	1	-8,174771	274,881125	315,540166	0
15.01.2021	16:12:55	0	7,851863	3,728224	1,569	334,26	0,823	83,046	0	1016	7,8	9,6	9,3	1	1	1	1	1	1	1	1	1	0	1	-13,460183	274,921569	310,445313	0
15.01.2021	16:12:56	0	8,089798	4,293107	1,54125	333,882	0,824	83,067	0	1016,06	7,8	9,6	9,3	1	1	1	1	1	1	1	1	1	0	1	-12,121212	274,822166	311,31608	0
15.01.2021	16:12:57	0	7,851863	4,18013	1,497	326,4156	0,819	83,064	0	1016,06	7,8	9,6	9,3	1	1	1	1	1	1	1	1	1	0	1	-8,879493	274,805132	314,477619	0
15.01.2021	16:12:58	0	7,613928	2,824412	1,479	330,8328	0,82	83,063	0	1016,1	7,8	9,6	9,3	1	1	1	1	1	1	1	1	1	0	1	-12,544045	274,927799	311,39081	0
15.01.2021	16:12:59	0	7,732841	3,389275	1,4715	334,6668	0,821	83,056	0	1015,98	7,8	9,7	9,4	1	1	1	1	1	1	1	1	1	0	1	-12,121212	274,895116	311,659633	0
15.01.2021	16:13:00	0	7,851863	3,163342	1,443	335,7216	0,821	83,083	0	1015,92	7,8	9,6	9,3	1	1	1	1	1	1	1	1	1	0	1	-12,896406	274,9465	311,126597	0
15.01.2021	16:13:01	0	7,851863	4,067105	1,428	336,384	0,824	83,077	0	1016,02	7,8	9,6	9,5	1	1	1	1	1	1	1	1	1	0	1	-8,245243	274,909116	315,601568	0
15.01.2021	16:13:02	0	7,613874	2,71142	1,40025	324,8676	0,817	83,066	0	1015,98	7,8	9,7	9,4	1	1	1	1	1	1	1	1	1	0	1	-11,557435	274,757209	311,574174	0
15.01.2021	16:13:03	0	7,732895	4,519033	1,3905	321,7896	0,818	83,054	0	1015,94	7,8	9,6	9,4	1	1	1	1	1	1	1	1	1	0	1	-9,302326	274,909116	314,544485	0
15.01.2021	16:13:04	0	7,49496	4,632036	1,38	322,6104	0,827	83,071	0	1016,02	7,8	9,6	9,3	1	1	1	1	1	1	1	1	1	0	1	-9,231853	274,906004	314,600293	0
15.01.2021	16:13:05	0	7,732895	2,937389	1,31925	333,486	0,828	83,071	0	1016,14	7,8	9,6	9,3	1	1	1	1	1	1	1	1	1	0	1	-10,782241	274,795848	312,531172	0
15.01.2021	16:13:06	0	7,613928	3,050365	1,2555	343,1736	0,817	83,064	0	1015,9	7,8	9,6	9,3	1	1	1	1	1	1	1	1	1	0	1	-15,151515	274,916899	308,731969	0
15.01.2021	16:13:07	0	7,851863	3,163342	1,1925	335,3688	0,824	83,078	0	1016,04	7,8	9,6	9,3	1	1	1	1	1	1	1	1	1	0	1	-12,825934	274,757209	310,305675	0
15.01.2021	16:13:08	0	7,49496	2,824412	1,218	334,3284	0,825	83,072	0	1016,08	7,8	9,6	9,3	1	1	1	1	1	1	1	1	1	0	1	-11,346018	274,775746	311,872802	0
15.01.2021	16:13:09	0	7,851863	2,824412	1,25775	327,0888	0,823	83,078	0	1016	7,8	9,6	9,3	1	1	1	1	1	1	1	1	1	0	1	-10,359408	274,772655	312,84487	0
15.01.2021	16:13:10	0	7,613874	3,050329	1,305	336,1032	0,82	83,056	0	1015,98	7,8	9,7	9,5	1	1	1	1	1	1	1	1	1	0	1	-6,483439	274,878018	317,216859	0
15.01.2021	16:13:11	0	7,257025	2,146553	1,3845	336,4884	0,819	83,084	0	1016,04	7,8	9,6	9,3	1	1	1	1	1	1	1	1	1	0	1	-10,852713	274,735605	312,177277	0
15.01.2021	16:13:12	0	8,089855	4,293107	1,49475	336,7908	0,824	83,075	0	1016,02	7,8	9,5	9,3	1	1	1	1	1	1	1	1	1	0	1	-10,923185	274,805132	312,433926	0
15.01.2021	16:13:13	0	7,613874	3,502271	1,548	333,9684	0,82	83,08	0	1016,04	7,8	9,7	9,3	1	1	1	1	1	1	1	1	1	0	1	-11,346018	274,937147	312,632898	0
15.01.2021	16:13:14	0	7,732895	4,18013	1,602	343,5264	0,82	83,074	0	1016,04	7,8	9,6	9,3	1	1	1	1	1	1	1	1	1	0	1	-14,446794	274,809776	308,932177	0
15.01.2021	16:13:15	0	7,97083	4,632036	1,6125	344,6244	0,822	83,066	0	1015,96	7,8	9,6	9,3	1	1	1	1	1	1	1	1	1	0	1	-8,949965	274,940265	315,043644	0
15.01.2021	16:13:16	0	7,494908	3,050365	1,54875	322,6212	0,818	83,066	0	1016,02	7,8	9,7	9,3	1	1	1	1	1	1	1	1	1	0	1	-11,627907	274,795848	311,685506	0
15.01.2021	16:13:17	0	7,97083	5,422839	1,485	332,7732	0,822	83,07	0	1015,92	7,8	9,6	9,4	1	1	1	1	1	1	1	1	1	0	1	-10,359408	274,876464	313,333572	0
15.01.2021	16:13:18	0	7,376044	4,51906	1,416	328,1724	0,822	83,073	0	1016,08	7,8	9,5	9,3	1	1	1	1	1	1	1	1	1	0	1	-7,047216	274,943382	316,961088	0
15.01.2021	16:13:19	0	7,375992	2,824412	1,37475	323,6976	0,824	83,065	0	1015,98	7,8	9,6	9,3	1	1	1	1	1	1	1	1	1	0	1	-8,033827	274,761842	315,119576	0
15.01.2021	16:13:20	0	7,732895	2,937389	1,329	329,7204	0,82	83,07	0	1015,82	7,8	9,6	9,3	1	1	1	1	1	1	1	1	1	0	1	-10,993658	274,80668	312,37074	0
15.01.2021	16:13:21	0	7,851808	3,615248	1,353	327,4452	0,822	83,075	0	1015,92	7,8	9,7	9,3	1	1	1	1	1	1	1	1	1	0	1	-8,174771	274,757209	314,956838	0
15.01.2021	16:13:22	0	7,732841	4,857989	1,3665	325,998	0,816	83,052	0	1016	7,8	9,7	9,3	1	1	1	1	1	1	1	1	1	0	1	-9,090909	274,898226	314,70459	0
15.01.2021	16:13:23	0	7,613874	3,050365	1,3665	326,0052	0,818	83,062	0	1016,02	7,8	9,7	9,3	1	1	1	1	1	1	1	1	1	0	1	-9,866103	274,800489	313,469156	0
15.01.2021	16:13:24	0	7,851808	4,857989	1,33575	330,3	0,822	83,064	0	1016,02	7,8	9,7	9,3	1	1	1	1	1	1	1	1	1	0	1	-9,372798	274,909116	314,474013	0
15.01.2021	16:13:25	0	7,375992	2,824412	1,4835	346,8564	0,822	83,065	0	1015,96	7,8	9,6	9,3	1	1	1	1	1	1	1	1	1	0	1	-10,782241	274,932473	313,174642	0
15.01.2021	16:13:26	0	7,613874	2,937371	1,71375	334,9512	0,817	83,048	0	1015,92	7,8	9,7	9,4	1	1	1	1	1	1	1	1	1	0	1	-17,26568	274,882679	306,456577	0
15.01.2021	16:13:27	0	7,49496	4,067154	1,98525	337,2588	0,821	83,054	0	1015,96	7,8	9,6	9,3	1	1	1	1	1	1	1	1	1	0	1	-10,147992	274,760297	312,998146	0
15.01.2021	16:13:28	0	7,851863	4,744984	2,13675	342,7776	0,816	83,047	0	1015,94	7,8	9,6	9,4	1	1	1	1	1	1	1	1	1	0	1	-11,980268	274,906004	311,851879	0
15.01.2021	16:13:29	0	7,613928	2,937371	2,229	340,2144	0,818	83,062	0	1016,04	7,8	9,6	9,4	1	1	1	1	1	1	1	1	1	0	1	-11,41649	274,932473	312,540392	0
15.01.2021	16:13:30	0	7,97083	3,841178	2,17425	341,6508	0,816	83,063	0	1016,04	7,8	9,6	9,4	1	1	1	1	1	1	1	1	1	0	1	-9,372798	274,904448	314,452018	0
15.01.2021	16:13:31	0	7,613874	4,519033	1,9725	334,8972	0,816	83,045	0	1016,02	7,8	9,7	9,4	1	1	1	1	1	1	1	1	1	0	1	-10,993658	274,926242	312,933857	0
15.01.2021	16:13:32	0	7,613874	3,050347	1,82925	337,5756	0,817	83,056	0	1016,08	7,8	9,7	9,4	1	1	1	1	1	1	1	1	1	0	1	-5,708245	274,797395	317,612449	0
15.01.2021	16:13:33	0	7,613928	3,954177	1,80225	343,3608	0,817	83,059	0	1015,96	7,8	9,6	9,3	1	1	1	1	1	1	1	1	1	0	1	-12,896406	274,930915	311,053134	0
15.01.2021	16:13:34	0	7,375941	3,615226	1,8105	346,1652	0,822	83,056	0	1016,08	7,8	9,7	9,4	1	1	1	1	1	1	1	1	1	0	1	-7,188161	274,850072	316,380519	0
15.01.2021	16:13:35	0	7,613928	4,406057	1,84125	337,0968	0,822	83,056	0	1016,04	7,8	9,6	9,4	1	1	1	1	1	1	1	1	1	0	1	-9,513742	274,934031	314,450485	0
15.01.2021	16:13:36	0	7,732841	4,293107	1,7475	342,8136	0,817	83,061	0	1016,02	7,8	9,7	9,3	1	1	1	1	1	1	1	1	1	0	1	-11,41649	274,842316	312,11567	0
15.01.2021	16:13:37	0	8,089798	4,519033	1,73475	343,566	0,812	83,052	0	1016	7,8	9,6	9,4	1	1	1	1	1	1	1	1	1	0	1	-11,980268	274,882679	311,741989	0
15.01.2021	16:13:38	0	7,375941	3,050365	1,6755	334,2204	0,814	83,052	0	1016	7,8	9,7	9,3	1	1	1	1	1	1	1	1	1	0	1	-12,825934	274,780383	310,414705	0
15.01.2021	16:13:39	0	7,851808	4,293081	1,72725	341,352	0,814	83,066	0	1016,04	7,8	9,7	9,4	1	1	1	1	1	1	1	1	1	0	1	-6,906272	274,74949	316,189029	0
15.01.2021	16:13:40	0	7,494908	3,728202	1,68975	332,7696	0,82	83,059	0	1016,06	7,8	9,7	9,4	1	1	1	1	1	1	1	1	1	0	1	-6,8358	274,840765	316,689059	0
15.01.2021	16:13:41	0	7,256974	2,372492	1,61625	329,0148	0,822	83,061	0	1016,1	7,8	9,7	9,4	1	1	1	1	1	1	1	1	1	0	1	-9,231853	274,927799	314,703002	0
15.01.2021	16:13:42	0	7,613928	3,050347	1,53825	316,9728	0,816	83,043	0	1016,2	7,8	9,6	9,4	1	1	1	1	1	1	1	1	1	0	1	-6,765328	274,839215	316,75223	0
15.01.2021	16:13:43	0	7,375992	2,598459	1,44075	307,6524	0,817	83,06	0	1016,02	7,8	9,6	9,3	1	1	1	1	1	1	1	1	1	0	1	-9,584214	274,760297	313,561923	0
15.01.2021	16:13:44	0	7,613928	2,372478	1,42575	328,9608	0,812	83,058	0	1015,82	7,8	9,6	9,5	1	1	1	1	1	1	1	1	1	0	1	-12,262156	274,80668	311,102241	0
15.01.2021	16:13:45	0	7,613928	3,954154	1,4745	332,442	0,819	83,056	0	1015,92	7,8	9,6	9,4	1	1	1	1	1	1	1	1	1	0	1	-9,372798	274,904448	314,452018	0
15.01.2021	16:13:46	0	7,613874	4,519033	1,54875	327,1392	0,816	83,067	0	1016,22	7,8	9,7	9,4	1	1	1	1	1	1	1	1	1	0	1	-10,218464	274,920012	313,679694	0
15.01.2021	16:13:47	0	7,613874	3,276318	1,5075	327,4416	0,813	83,041	0	1016,06	7,8	9,7	9,3	1	1	1	1	1	1	1	1	1	0	1	-11,768851	274,723271	311,203133	0
15.01.2021	16:13:48	0	7,257025	2,824412	1,473	329,058	0,812	83,062	0	1016,12	7,8	9,6	9,3	1	1	1	1	1	1	1	1	1	0	1	-11,486963	274,909116	312,359848	0
15.01.2021	16:13:49	0	7,375992	4,180105	1,46175	328,8816	0,816	83,051	0	1015,94	7,8	9,6	9,4	1	1	1	1	1	1	1	1	1	0	1	-7,681466	274,879571	316,026151	0
15.01.2021	16:13:50	0	7,494908	2,372492	1,5405	322,5636	0,814	83,053	0	1016,02	7,8	9,7	9,4	1	1	1	1	1	1	1	1	1	0	1	-11,06413	274,920012	312,834028	0
15.01.2021	16:13:51	0	7,732841	4,406057	1,79175	323,6508	0,814	83,062	0	1016,14	7,8	9,7	9,4	1	1	1	1	1	1	1	1	1	0	1	-9,795631	274,78966	313,488664	0
15.01.2021	16:13:52	0	7,732895	2,824395	2,0595	326,8728	0,817	83,06	0	1016,16	7,8	9,6	9,4	1	1	1	1	1	1	1	1	1	0	1	-7,329105	274,924684	316,591069	0
15.01.2021	16:13:53	0	7,851808	4,632009	2,11125	325,5732	0,814	83,058	0	1016,04	7,8	9,7	9,4	1	1	1	1	1	1	1	1	1	0	1	-12,403101	274,840765	311,121758	0
15.01.2021	16:13:54	0	7,257025	2,598444	2,082	321,9336	0,813	83,051	0	1016,1	7,8	9,6	9,4	1	1	1	1	1	1	1	1	1	0	1	-6,906272	274,730979	316,101961	0
15.01.2021	16:13:55	0	7,494908	3,615226	1,9755	311,724	0,816	83,047	0	1015,94	7,8	9,7	9,4	1	1	1	1	1	1	1	1	1	0	1	-11,41649	274,871804	312,254539	0
15.01.2021	16:13:56	0	7,257025	3,163342	1,851	309,5352	0,813	83,061	0	1016,08	7,8	9,6	9,3	1	1	1	1	1	1	1	1	1	0	1	-11,134602	274,795848	312,178811	0
15.01.2021	16:13:57	0	7,375941	3,050347	1,73625	315,9468	0,82	83,055	0	1016,02	7,8	9,7	9,4	1	1	1	1	1	1	1	1	1	0	1	-15,433404	274,732521	307,582081	0
15.01.2021	16:13:58	0	7,494908	4,067129	1,692	312,516	0,818	83,049	0	1016,06	7,8	9,7	9,4	1	1	1	1	1	1	1	1	1	0	1	-6,765328	274,846969	316,788742	0
15.01.2021	16:13:59	0	7,494908	4,406057	1,641	322,5348	0,816	83,056	0	1016,02	7,8	9,7	9,4	1	1	1	1	1	1	1	1	1	0	1	-7,82241	274,752578	315,287412	0
15.01.2021	16:14:00	0	7,851863	4,519033	1,551	321,8112	0,809	83,046	0	1016,1	7,8	9,6	9,4	1	1	1	1	1	1	1	1	1	0	1	-9,725159	274,837664	313,785098	0
15.01.2021	16:14:01	0	7,851863	4,519033	1,551	321,8112	0,809	83,046	0	1016,1	7,8	9,6	9,4	1	1	1	1	1	1	1	1	1	0	1	-8,386187	274,758753	314,752685	0
15.01.2021	16:14:02	0	7,613928	3,163323	1,57725	326,0016	0,809	83,047	0	1016,04	7,8	9,6	9,4	1	1	1	1	1	1	1	1	1	0	1	-10,923185	274,873357	312,75516	0
15.01.2021	16:14:03	0	7,375992	4,293081	1,5915	326,394	0,81	83,055	0	1016,06	7,8	9,6	9,4	1	1	1	1	1	1	1	1	1	0	1	-12,966878	274,902892	310,850607	0
15.01.2021	16:14:04	0	7,138057	2,598444	1,572	332,0208	0,814	83,059	0	1016,08	7,8	9,6	9,4	1	1	1	1	1	1	1	1	1	0	1	-7,188161	274,778837	316,045205	0
15.01.2021	16:14:05	0	7,256974	2,711436	1,6935	328,5972	0,815	83,057	0	1016,06	7,8	9,7	9,3	1	1	1	1	1	1	1	1	1	0	1	-13,742072	274,926242	310,185443	0
15.01.2021	16:14:06	0	7,613928	4,632009	1,6935	343,1196	0,81	83,045	0	1016	7,8	9,6	9,4	1	1	1	1	1	1	1	1	1	0	1	-6,624383	274,896671	317,163788	0
15.01.2021	16:14:07	0	7,494908	3,050347	1,64025	340,2108	0,815	83,047	0	1016,08	7,8	9,7	9,4	1	1	1	1	1	1	1	1	1	0	1	-7,047216	274,781929	316,200697	0
15.01.2021	16:14:08	0	7,01904	2,485483	1,5555	331,4736	0,817	83,035	0	1015,94	7,8	9,7	9,3	1	1	1	1	1	1	1	1	1	0	1	-6,553911	274,743318	316,512356	0
15.01.2021	16:14:09	0	7,732841	4,519033	1,4955	327,3804	0,815	83,058	0	1016,02	7,8	9,7	9,4	1	1	1	1	1	1	1	1	1	0	1	-10,782241	274,795848	312,531172	0
15.01.2021	16:14:10	0	7,851808	4,632009	1,5195	326,4048	0,812	83,059	0	1016,04	7,8	9,7	9,4	1	1	1	1	1	1	1	1	1	0	1	-8,45666	274,730979	314,551573	0
15.01.2021	16:14:11	0	7,375941	2,485483	1,518	325,1556	0,812	83,058	0	1016,18	7,8	9,7	9,3	1	1	1	1	1	1	1	1	1	0	1	-11,346018	274,846969	312,208052	0
15.01.2021	16:14:12	0	7,256974	3,389275	1,53825	330,3936	0,817	83,048	0	1016,12	7,8	9,7	9,4	1	1	1	1	1	1	1	1	1	0	1	-9,302326	274,918455	314,588495	0
15.01.2021	16:14:13	0	7,375941	2,71142	1,55925	320,0688	0,808	83,042	0	1016,06	7,8	9,7	9,4	1	1	1	1	1	1	1	1	1	0	1	-8,245243	274,873357	315,433103	0
15.01.2021	16:14:14	0	7,613981	3,615226	1,53675	327,8124	0,81	83,042	0	1016,06	7,8	9,5	9,4	1	1	1	1	1	1	1	1	1	0	1	-12,614517	274,761842	310,538885	0
15.01.2021	16:14:15	0	7,613874	3,615226	1,4625	327,7512	0,813	83,059	0	1016,1	7,8	9,7	9,4	1	1	1	1	1	1	1	1	1	0	1	-10,42988	274,803585	312,919947	0
15.01.2021	16:14:16	0	7,375941	3,728202	1,449	327,4488	0,812	83,064	0	1016,1	7,8	9,7	9,4	1	1	1	1	1	1	1	1	1	0	1	-8,033827	274,73869	315,010672	0
15.01.2021	16:14:17	0	7,257025	2,937371	1,4895	334,9044	0,812	83,055	0	1016,1	7,8	9,6	9,4	1	1	1	1	1	1	1	1	1	0	1	-8,738548	274,876464	314,954432	0
15.01.2021	16:14:18	0	7,613874	4,067129	1,48275	335,3256	0,814	83,06	0	1016	7,8	9,7	9,4	1	1	1	1	1	1	1	1	1	0	1	-7,329105	274,893561	316,444414	0
15.01.2021	16:14:19	0	7,256974	3,954154	1,479	340,6428	0,812	83,052	0	1016,08	7,8	9,7	9,4	1	1	1	1	1	1	1	1	1	0	1	-11,627907	274,81597	311,780218	0
15.01.2021	16:14:20	0	7,375941	4,180105	1,5405	344,6388	0,809	83,06	0	1016,08	7,8	9,7	9,4	1	1	1	1	1	1	1	1	1	0	1	-9,584214	274,926242	314,3433	0
15.01.2021	16:14:21	0	7,257025	4,406057	1,57275	345,8232	0,809	83,059	0	1016,1	7,8	9,6	9,4	1	1	1	1	1	1	1	1	1	0	1	-9,161381	274,803585	314,188446	0
15.01.2021	16:14:22	0	7,613928	3,728202	1,539	345,1284	0,816	83,073	0	1015,94	7,8	9,6	9,4	1	1	1	1	1	1	1	1	1	0	1	-11,486963	274,920012	312,411195	0
15.01.2021	16:14:23	0	7,01909	2,71142	1,593	341,388	0,811	83,056	0	1016,12	7,8	9,6	9,4	1	1	1	1	1	1	1	1	1	0	1	-9,020437	274,764931	314,147498	0
15.01.2021	16:14:24	0	7,613874	4,180105	1,59825	341,64	0,81	83,051	0	1016,08	7,8	9,7	9,4	1	1	1	1	1	1	1	1	1	0	1	-8,45666	274,898226	315,338839	0
15.01.2021	16:14:25	0	7,138007	3,050347	1,653	336,0708	0,81	83,068	0	1016,04	7,8	9,7	9,4	1	1	1	1	1	1	1	1	1	0	1	-11,275546	274,878018	312,424752	0
15.01.2021	16:14:26	0	7,732841	4,067129	1,6455	340,5852	0,817	83,057	0	1015,94	7,8	9,7	9,4	1	1	1	1	1	1	1	1	1	0	1	-9,302326	274,760297	313,843812	0
15.01.2021	16:14:27	0	7,138057	2,711436	1,70025	330,4476	0,81	83,057	0	1016,04	7,8	9,6	9,3	1	1	1	1	1	1	1	1	1	0	1	-6,624383	274,737147	316,412861	0
15.01.2021	16:14:28	0	7,494908	4,519033	1,74825	341,5968	0,803	83,052	0	1015,98	7,8	9,7	9,4	1	1	1	1	1	1	1	1	1	0	1	-9,44327	274,850072	314,12541	0
15.01.2021	16:14:29	0	7,257025	4,632009	1,74525	333,5292	0,81	83,066	0	1016,08	7,8	9,6	9,4	1	1	1	1	1	1	1	1	1	0	1	-11,698379	274,909116	312,148432	0
15.01.2021	16:14:30	0	7,494908	3,841178	1,7745	340,56	0,805	83,065	0	1016,04	7,8	9,7	9,4	1	1	1	1	1	1	1	1	1	0	1	-11,980268	274,831463	311,500795	0
15.01.2021	16:14:31	0	7,375941	3,615226	1,74975	342,7308	0,803	83,055	0	1016,06	7,8	9,7	9,4	1	1	1	1	1	1	1	1	1	0	1	-10,42988	274,73869	312,614619	0
15.01.2021	16:14:32	0	7,732841	4,632009	1,69875	349,092	0,809	83,058	0	1015,98	7,8	9,7	9,4	1	1	1	1	1	1	1	1	1	0	1	-8,527132	274,84852	315,034243	0
15.01.2021	16:14:33	0	7,138057	2,485468	1,5885	344,664	0,808	83,064	0	1016,12	7,7	9,6	9,4	1	1	1	1	1	1	1	1	1	0	1	-7,892882	274,729437	315,1081	0
15.01.2021	16:14:34	0	7,494908	3,728202	1,4925	342,3204	0,804	83,07	0	1016,1	7,7	9,7	9,4	1	1	1	1	1	1	1	1	1	0	1	-8,879493	274,842316	314,652668	0
15.01.2021	16:14:35	0	7,256974	4,744984	1,49475	336,8772	0,805	83,056	0	1016,02	7,8	9,7	9,4	1	1	1	1	1	1	1	1	1	0	1	-8,738548	274,723271	314,233436	0
15.01.2021	16:14:36	0	7,375992	3,728202	1,524	332,3196	0,802	83,067	0	1016,08	7,8	9,6	9,4	1	1	1	1	1	1	1	1	1	0	1	-7,540521	274,843867	315,998941	0
15.01.2021	16:14:37	0	7,376044	4,519033	1,4925	328,2012	0,807	83,073	0	1015,88	7,7	9,5	9,4	1	1	1	1	1	1	1	1	1	0	1	-13,178295	274,747947	309,909747	0
15.01.2021	16:14:38	0	7,732841	3,728202	1,52625	321,102	0,806	83,073	0	1016,12	7,8	9,7	9,4	1	1	1	1	1	1	1	1	1	0	1	-11,698379	274,906004	312,133768	0
15.01.2021	16:14:39	0	7,49496	4,632009	1,5615	321,1596	0,801	83,061	0	1016,14	7,7	9,6	9,4	1	1	1	1	1	1	1	1	1	0	1	-7,82241	274,851623	315,753576	0
15.01.2021	16:14:40	0	7,613874	4,406057	1,53975	327,384	0,799	83,058	0	1015,86	7,7	9,7	9,4	1	1	1	1	1	1	1	1	1	0	1	-4,298802	274,879571	319,408815	0
15.01.2021	16:14:41	0	6,662233	2,71142	1,49925	332,01	0,809	83,068	0	1016,18	7,8	9,5	9,4	1	1	1	1	1	1	1	1	1	0	1	-11,839323	274,888896	311,912222	0
15.01.2021	16:14:42	0	7,256974	2,485468	1,52775	338,3748	0,805	83,078	0	1016,1	7,8	9,7	9,4	1	1	1	1	1	1	1	1	1	0	1	-7,540521	274,741775	315,518489	0
15.01.2021	16:14:43	0	7,375992	4,519033	1,53	348,0984	0,806	83,079	0	1016,12	7,8	9,6	9,4	1	1	1	1	1	1	1	1	1	0	1	-9,090909	274,890451	314,66796	0
15.01.2021	16:14:44	0	7,732895	4,519033	1,46325	353,9376	0,807	83,072	0	1015,96	7,7	9,6	9,4	1	1	1	1	1	1	1	1	1	0	1	-8,033827	274,854727	315,556774	0
15.01.2021	16:14:45	0	7,01904	3,615226	1,3395	348,012	0,806	83,088	0	1016,1	7,8	9,7	9,4	1	1	1	1	1	1	1	1	1	0	1	-10,218464	274,734063	312,804274	0
15.01.2021	16:14:46	0	7,613928	4,293081	1,266	341,3052	0,802	83,065	0	1015,98	7,8	9,6	9,4	1	1	1	1	1	1	1	1	1	0	1	-12,544045	274,843867	310,995418	0
15.01.2021	16:14:47	0	6,781154	2,485468	1,26225	329,2884	0,806	83,08	0	1016,04	7,7	9,6	9,4	1	1	1	1	1	1	1	1	1	0	1	-12,403101	274,726354	310,583381	0
15.01.2021	16:14:48	0	7,01909	3,050347	1,2915	328,1688	0,805	83,082	0	1016,02	7,8	9,6	9,4	1	1	1	1	1	1	1	1	1	0	1	-9,372798	274,760297	313,773339	0
15.01.2021	16:14:49	0	7,01904	2,372492	1,35225	335,3904	0,802	83,093	0	1016,04	7,8	9,7	9,4	1	1	1	1	1	1	1	1	1	0	1	-6,483439	274,901337	317,326717	0
15.01.2021	16:14:50	0	7,613874	3,615226	1,41375	328,1832	0,802	83,066	0	1015,94	7,8	9,7	9,4	1	1	1	1	1	1	1	1	1	0	1	-11,486963	274,867145	312,162123	0
15.01.2021	16:14:51	0	6,900122	3,276299	1,4025	337,5216	0,805	83,072	0	1016	7,8	9,6	9,4	1	1	1	1	1	1	1	1	1	0	1	-13,178295	274,902892	310,639191	0
15.01.2021	16:14:52	0	7,375941	4,85796	1,356	345,8232	0,806	83,085	0	1016,02	7,7	9,7	9,4	1	1	1	1	1	1	1	1	1	0	1	-8,668076	274,78966	314,616219	0
15.01.2021	16:14:53	0	7,01909	3,50225	1,3335	332,7948	0,806	83,086	0	1016,06	7,7	9,6	9,4	1	1	1	1	1	1	1	1	1	0	1	-8,033827	274,902892	315,783659	0
15.01.2021	16:14:54	0	7,732895	4,067129	1,3125	340,956	0,8	83,074	0	1016	7,8	9,6	9,4	1	1	1	1	1	1	1	1	1	0	1	-14,376321	274,785021	308,886142	0
15.01.2021	16:14:55	0	7,138057	3,954154	1,31175	330,3396	0,804	83,08	0	1016,04	7,8	9,6	9,4	1	1	1	1	1	1	1	1	1	0	1	-8,315715	274,718647	314,634529	0
15.01.2021	16:14:56	0	7,375992	3,954154	1,2555	325,2168	0,802	83,085	0	1016,02	7,7	9,6	9,4	1	1	1	1	1	1	1	1	1	0	1	-10,993658	274,860935	312,62618	0
15.01.2021	16:14:57	0	7,01909	2,485468	1,2585	332,0676	0,8	83,076	0	1016,06	7,8	9,6	9,4	1	1	1	1	1	1	1	1	1	0	1	-7,470049	274,797395	315,850645	0
15.01.2021	16:14:58	0	7,257025	3,163323	1,263	327,132	0,799	83,085	0	1016,06	7,8	9,6	9,4	1	1	1	1	1	1	1	1	1	0	1	-7,329105	274,896671	316,459067	0
15.01.2021	16:14:59	0	6,900074	2,598444	1,257	320,7168	0,801	83,093	0	1016,02	7,7	9,7	9,4	1	1	1	1	1	1	1	1	1	0	1	-6,694856	274,846969	316,859214	0
15.01.2021	16:15:00	0	7,257025	3,389275	1,25625	328,5828	0,804	83,083	0	1016,2	7,8	9,6	9,4	1	1	1	1	1	1	1	1	1	0	1	-8,80902	274,732521	314,206464	0
15.01.2021	16:15:01	0	7,257025	3,389275	1,25625	328,5828	0,804	83,083	0	1016,2	7,8	9,6	9,4	1	1	1	1	1	1	1	1	1	0	1	-10,570825	274,77111	312,626183	0
15.01.2021	16:15:02	0	7,257025	4,970936	1,2705	336,4488	0,805	83,085	0	1016,08	7,8	9,6	9,4	1	1	1	1	1	1	1	1	1	0	1	-5,355884	274,865592	318,285888	0
15.01.2021	16:15:03	0	7,01904	3,728202	1,24275	336,078	0,802	83,087	0	1016,12	7,7	9,7	9,4	1	1	1	1	1	1	1	1	1	0	1	-12,825934	274,899781	310,976893	0
15.01.2021	16:15:04	0	7,01909	2,146541	1,22325	318,7656	0,799	83,074	0	1015,96	7,7	9,6	9,4	1	1	1	1	1	1	1	1	1	0	1	-7,117689	274,822166	316,319603	0
15.01.2021	16:15:05	0	7,01909	4,632009	1,152	321,8076	0,802	83,085	0	1016,06	7,8	9,6	9,4	1	1	1	1	1	1	1	1	1	0	1	-10,288936	274,729437	312,712046	0
15.01.2021	16:15:06	0	7,138057	3,389275	1,149	325,9872	0,801	83,084	0	1016,08	7,7	9,6	9,4	1	1	1	1	1	1	1	1	1	0	1	-7,258633	274,856278	316,339276	0
15.01.2021	16:15:07	0	7,01909	3,163323	1,0935	324,4212	0,803	83,075	0	1015,9	7,7	9,6	9,4	1	1	1	1	1	1	1	1	1	0	1	-9,584214	274,90756	314,255264	0
15.01.2021	16:15:08	0	7,257025	4,970936	1,13925	304,3332	0,796	83,071	0	1016,04	7,7	9,6	9,4	1	1	1	1	1	1	1	1	1	0	1	-7,610994	274,783475	315,644194	0
15.01.2021	16:15:09	0	6,781107	2,372492	1,26975	311,3928	0,798	83,065	0	1015,82	7,7	9,7	9,4	1	1	1	1	1	1	1	1	1	0	1	-10,993658	274,721729	311,971079	0
15.01.2021	16:15:10	0	7,01909	3,276299	1,308	318,1464	0,801	83,071	0	1016,06	7,7	9,6	9,4	1	1	1	1	1	1	1	1	1	0	1	-10,147992	274,846969	313,406078	0
15.01.2021	16:15:11	0	7,01904	2,485468	1,3125	303,9624	0,798	83,072	0	1016,08	7,7	9,7	9,4	1	1	1	1	1	1	1	1	1	0	1	-11,346018	274,893561	312,427501	0
15.01.2021	16:15:12	0	7,256974	3,163323	1,281	315,5004	0,791	83,071	0	1016,04	7,8	9,7	9,4	1	1	1	1	1	1	1	1	1	0	1	-11,486963	274,833013	312,001397	0
15.01.2021	16:15:13	0	7,49496	4,85796	1,29525	315,9504	0,804	83,07	0	1016,26	7,7	9,6	9,4	1	1	1	1	1	1	1	1	1	0	1	-13,6716	274,727895	309,322132	0
15.01.2021	16:15:14	0	7,375941	4,519033	1,3095	309,2148	0,798	83,073	0	1016	7,7	9,7	9,4	1	1	1	1	1	1	1	1	1	0	1	-9,090909	274,839215	314,426648	0
15.01.2021	16:15:15	0	7,257025	3,954154	1,308	304,992	0,8	83,079	0	1016,08	7,8	9,6	9,4	1	1	1	1	1	1	1	1	1	0	1	-12,896406	274,721729	310,068331	0
15.01.2021	16:15:16	0	7,138057	3,954154	1,365	308,5092	0,792	83,057	0	1016,02	7,8	9,6	9,4	1	1	1	1	1	1	1	1	1	0	1	-8,949965	274,836114	314,552992	0
15.01.2021	16:15:17	0	7,01909	2,372492	1,34925	320,364	0,797	83,077	0	1016,08	7,7	9,6	9,4	1	1	1	1	1	1	1	1	1	0	1	-10,359408	274,884233	313,37017	0
15.01.2021	16:15:18	0	7,01909	2,824395	1,356	317,3904	0,793	83,062	0	1016	7,7	9,6	9,4	1	1	1	1	1	1	1	1	1	0	1	-11,768851	274,785021	311,493612	0
15.01.2021	16:15:19	0	6,900122	3,841178	1,42425	312,4728	0,797	83,058	0	1015,88	7,7	9,6	9,4	1	1	1	1	1	1	1	1	1	0	1	-8,738548	274,714025	314,189961	0
15.01.2021	16:15:20	0	6,781154	3,615226	1,41375	335,7612	0,803	83,08	0	1016,12	7,7	9,6	9,4	1	1	1	1	1	1	1	1	1	0	1	-9,795631	274,859383	313,816896	0
15.01.2021	16:15:21	0	7,138057	2,824395	1,38225	324,4428	0,8	83,072	0	1016,12	7,7	9,6	9,4	1	1	1	1	1	1	1	1	1	0	1	-7,258633	274,740232	315,793122	0
15.01.2021	16:15:22	0	7,138057	4,51906	1,281	323,9964	0,798	83,053	0	1015,92	7,7	9,6	9,3	1	1	1	1	1	1	1	1	1	0	1	-9,513742	274,862487	314,113406	0
15.01.2021	16:15:23	0	7,375992	4,632009	1,19625	325,4904	0,798	83,078	0	1016,08	7,7	9,6	9,4	1	1	1	1	1	1	1	1	1	0	1	-11,698379	274,882679	312,023878	0
15.01.2021	16:15:24	0	7,49496	4,406083	1,15425	331,542	0,797	83,071	0	1016,04	7,7	9,6	9,3	1	1	1	1	1	1	1	1	1	0	1	-8,879493	274,840765	314,645366	0
15.01.2021	16:15:25	0	6,781154	3,954154	1,14975	330,3432	0,796	83,079	0	1015,98	7,7	9,6	9,4	1	1	1	1	1	1	1	1	1	0	1	-10,359408	274,888896	313,392137	0
15.01.2021	16:15:26	0	7,01909	4,293081	1,1505	326,376	0,797	83,065	0	1015,94	7,7	9,6	9,4	1	1	1	1	1	1	1	1	1	0	1	-7,399577	274,74949	315,695724	0
15.01.2021	16:15:27	0	6,662187	3,050347	1,22025	319,1148	0,796	83,072	0	1016	7,7	9,6	9,4	1	1	1	1	1	1	1	1	1	0	1	-11,486963	274,878018	312,213335	0
15.01.2021	16:15:28	0	7,138057	2,937389	1,34625	313,6248	0,796	83,07	0	1016,06	7,7	9,6	9,3	1	1	1	1	1	1	1	1	1	0	1	-10,218464	274,898226	313,577035	0
15.01.2021	16:15:29	0	6,900122	2,71142	1,67325	311,7276	0,79	83,079	0	1016,12	7,7	9,6	9,4	1	1	1	1	1	1	1	1	1	0	1	-7,188161	274,763386	315,972508	0
15.01.2021	16:15:30	0	6,781154	4,406057	1,917	300,5496	0,79	83,073	0	1015,94	7,7	9,6	9,4	1	1	1	1	1	1	1	1	1	0	1	-9,513742	274,887342	314,23048	0
15.01.2021	16:15:31	0	7,01909	4,067129	1,9815	300,1536	0,793	83,087	0	1016	7,7	9,6	9,4	1	1	1	1	1	1	1	1	1	0	1	-11,06413	274,898226	312,731369	0
15.01.2021	16:15:32	0	7,01909	4,744984	1,9545	330,3972	0,795	83,077	0	1016,04	7,7	9,6	9,4	1	1	1	1	1	1	1	1	1	0	1	-12,332629	274,74949	310,762672	0
15.01.2021	16:15:33	0	7,375992	4,85796	1,875	323,7156	0,792	83,069	0	1016,06	7,8	9,6	9,4	1	1	1	1	1	1	1	1	1	0	1	-11,557435	274,867145	312,091651	0
15.01.2021	16:15:34	0	7,257025	3,728224	1,8	334,4616	0,793	83,084	0	1016,04	7,7	9,6	9,3	1	1	1	1	1	1	1	1	1	0	1	-5,919662	274,882679	317,802595	0
15.01.2021	16:15:35	0	7,375992	4,293081	1,77675	332,3736	0,79	83,084	0	1016,06	7,7	9,6	9,4	1	1	1	1	1	1	1	1	1	0	1	-14,235377	274,761842	308,918025	0
15.01.2021	16:15:36	0	6,543219	2,485468	1,9185	315,8856	0,794	83,077	0	1016,02	7,8	9,6	9,4	1	1	1	1	1	1	1	1	1	0	1	-6,8358	274,723271	316,136185	0
15.01.2021	16:15:37	0	7,01909	2,598444	2,0625	322,6572	0,797	83,071	0	1016,04	7,7	9,6	9,4	1	1	1	1	1	1	1	1	1	0	1	-7,681466	274,775746	315,537354	0
15.01.2021	16:15:38	0	7,138057	3,728224	2,29125	328,3308	0,79	83,059	0	1016,02	7,7	9,6	9,3	1	1	1	1	1	1	1	1	1	0	1	-5,778717	274,712485	317,142549	0
15.01.2021	16:15:39	0	7,138057	4,180105	2,352	325,1988	0,798	83,07	0	1016,1	7,7	9,6	9,4	1	1	1	1	1	1	1	1	1	0	1	-11,41649	274,843867	312,122972	0
15.01.2021	16:15:40	0	6,662187	3,276299	2,3865	321,84	0,794	83,073	0	1016	7,7	9,6	9,4	1	1	1	1	1	1	1	1	1	0	1	-10,852713	274,721729	312,112024	0
15.01.2021	16:15:41	0	6,900122	4,970966	2,466	322,6068	0,79	83,074	0	1016,12	7,7	9,6	9,3	1	1	1	1	1	1	1	1	1	0	1	-7,470049	274,870251	316,193665	0
15.01.2021	16:15:42	0	7,138057	4,293081	2,44125	320,0004	0,795	83,079	0	1016,12	7,7	9,6	9,4	1	1	1	1	1	1	1	1	1	0	1	-7,82241	274,718647	315,127834	0
15.01.2021	16:15:43	0	7,49496	4,293081	2,36025	328,5756	0,789	83,081	0	1016,02	7,7	9,6	9,4	1	1	1	1	1	1	1	1	1	0	1	-6,976744	274,732521	316,038741	0
15.01.2021	16:15:44	0	7,138057	2,937371	2,391	311,3892	0,792	83,068	0	1016,02	7,7	9,6	9,4	1	1	1	1	1	1	1	1	1	0	1	-7,329105	274,707864	315,570435	0
15.01.2021	16:15:45	0	6,900122	2,937371	2,45475	315,8388	0,788	83,066	0	1016,06	7,7	9,6	9,4	1	1	1	1	1	1	1	1	1	0	1	-10,42988	274,720188	312,52761	0
15.01.2021	16:15:46	0	7,01909	3,728224	2,37075	331,0776	0,787	83,055	0	1016	7,7	9,6	9,3	1	1	1	1	1	1	1	1	1	0	1	-9,866103	274,854727	313,724497	0
15.01.2021	16:15:47	0	6,900122	4,51906	2,21625	328,5972	0,792	83,071	0	1016,04	7,7	9,6	9,3	1	1	1	1	1	1	1	1	1	0	1	-7,751938	274,717106	315,19106	0
15.01.2021	16:15:48	0	7,01909	3,615226	2,154	328,8924	0,787	83,085	0	1016,1	7,7	9,6	9,4	1	1	1	1	1	1	1	1	1	0	1	-8,879493	274,754121	314,237591	0
15.01.2021	16:15:49	0	6,900122	4,51906	2,0535	333,1152	0,794	83,084	0	1016,02	7,7	9,6	9,3	1	1	1	1	1	1	1	1	1	0	1	-6,553911	274,873357	317,124435	0
15.01.2021	16:15:50	0	6,900122	3,954154	1,93875	321,0156	0,793	83,082	0	1016,06	7,7	9,6	9,4	1	1	1	1	1	1	1	1	1	0	1	-9,866103	274,788114	313,410914	0
15.01.2021	16:15:51	0	7,138057	4,632036	1,93125	315,9396	0,787	83,088	0	1016	7,7	9,6	9,3	1	1	1	1	1	1	1	1	1	0	1	-7,117689	274,910672	316,736455	0
15.01.2021	16:15:52	0	7,257025	4,745013	1,89	327,0852	0,792	83,092	0	1016,1	7,7	9,6	9,3	1	1	1	1	1	1	1	1	1	0	1	-10,641297	274,81597	312,766829	0
15.01.2021	16:15:53	0	6,900122	2,824395	1,767	335,3004	0,794	83,094	0	1016,04	7,7	9,6	9,4	1	1	1	1	1	1	1	1	1	0	1	-7,047216	274,884233	316,682361	0
15.01.2021	16:15:54	0	6,781154	3,389275	1,53075	326,7216	0,79	83,091	0	1016,02	7,7	9,6	9,4	1	1	1	1	1	1	1	1	1	0	1	-11,557435	274,874911	312,128228	0
15.01.2021	16:15:55	0	7,257025	3,276318	1,44375	327,8124	0,796	83,104	0	1016	7,7	9,6	9,3	1	1	1	1	1	1	1	1	1	0	1	-9,44327	274,854727	314,14733	0
15.01.2021	16:15:56	0	6,900122	3,50225	1,44825	317,7108	0,786	83,077	0	1015,96	7,7	9,6	9,4	1	1	1	1	1	1	1	1	1	0	1	-10,711769	274,842316	312,820391	0
15.01.2021	16:15:57	0	6,900122	3,841178	1,57575	287,7804	0,786	83,101	0	1016,02	7,7	9,6	9,4	1	1	1	1	1	1	1	1	1	0	1	-13,742072	274,873357	309,936274	0
15.01.2021	16:15:58	0	6,543219	2,485468	1,71525	294,804	0,793	83,096	0	1016,12	7,7	9,6	9,4	1	1	1	1	1	1	1	1	1	0	1	-7,82241	274,712485	315,098856	0
15.01.2021	16:15:59	0	6,781154	2,824412	1,86975	304,2756	0,789	83,097	0	1015,98	7,7	9,6	9,3	1	1	1	1	1	1	1	1	1	0	1	-6,272023	274,720188	316,685467	0
15.01.2021	16:16:00	0	6,781154	2,372506	2,01	311,7636	0,783	83,095	0	1016,04	7,7	9,6	9,3	1	1	1	1	1	1	1	1	1	0	1	-4,792107	274,717106	318,150891	0
15.01.2021	16:16:01	0	6,781154	2,372506	2,01	311,7636	0,783	83,095	0	1016,04	7,7	9,6	9,3	1	1	1	1	1	1	1	1	1	0	1	-8,45666	274,76802	314,72581	0
15.01.2021	16:16:02	0	6,900122	2,937371	2,21475	300,15	0,787	83,1	0	1016,1	7,7	9,6	9,4	1	1	1	1	1	1	1	1	1	0	1	-11,627907	274,709404	311,278874	0
15.01.2021	16:16:03	0	7,256974	4,293055	2,37	307,6848	0,793	83,092	0	1016,04	7,7	9,7	9,5	1	1	1	1	1	1	1	1	1	0	1	-5,496829	274,834564	317,998829	0
15.01.2021	16:16:04	0	6,424251	2,824412	2,2905	308,2104	0,784	83,085	0	1016,06	7,7	9,6	9,3	1	1	1	1	1	1	1	1	1	0	1	-8,386187	274,709404	314,520594	0
15.01.2021	16:16:05	0	7,01909	4,406031	2,06175	301,5432	0,79	83,077	0	1015,96	7,7	9,6	9,5	1	1	1	1	1	1	1	1	1	0	1	-10,711769	274,800489	312,62349	0
15.01.2021	16:16:06	0	6,900122	2,824412	2,09025	318,0276	0,791	83,088	0	1016,1	7,7	9,6	9,3	1	1	1	1	1	1	1	1	1	0	1	-12,191684	274,73869	310,852815	0
15.01.2021	16:16:07	0	6,662187	3,50225	2,09325	311,4504	0,79	83,076	0	1016,08	7,7	9,6	9,4	1	1	1	1	1	1	1	1	1	0	1	-14,235377	274,878018	309,464921	0
15.01.2021	16:16:08	0	7,138057	4,406057	2,1375	318,8196	0,785	83,087	0	1016,06	7,7	9,6	9,4	1	1	1	1	1	1	1	1	1	0	1	-9,795631	274,856278	313,802278	0
15.01.2021	16:16:09	0	6,543219	2,71142	2,0355	326,3652	0,788	83,086	0	1016,14	7,7	9,6	9,4	1	1	1	1	1	1	1	1	1	0	1	-7,963354	274,732521	315,05213	0
15.01.2021	16:16:10	0	6,781154	3,163342	1,863	325,1088	0,787	83,059	0	1016,22	7,7	9,6	9,3	1	1	1	1	1	1	1	1	1	0	1	-5,637773	274,751034	317,464788	0
15.01.2021	16:16:11	0	7,01909	3,954177	1,66875	327,402	0,79	83,086	0	1016,18	7,7	9,6	9,3	1	1	1	1	1	1	1	1	1	0	1	-9,936575	274,896671	313,851596	0
15.01.2021	16:16:12	0	6,900122	3,502271	1,60575	309,924	0,786	83,083	0	1016,04	7,7	9,6	9,3	1	1	1	1	1	1	1	1	1	0	1	-4,721635	274,786567	318,548105	0
15.01.2021	16:16:13	0	7,01909	4,51906	1,68	315,5544	0,783	83,071	0	1016,16	7,7	9,6	9,3	1	1	1	1	1	1	1	1	1	0	1	-5,355884	274,707864	317,543656	0
15.01.2021	16:16:14	0	6,900122	3,615226	1,689	322,596	0,782	83,055	0	1016	7,7	9,6	9,4	1	1	1	1	1	1	1	1	1	0	1	-9,654686	274,842316	313,877474	0
15.01.2021	16:16:15	0	6,781154	4,519033	1,63275	342,3924	0,779	83,062	0	1015,96	7,7	9,6	9,4	1	1	1	1	1	1	1	1	1	0	1	-7,82241	274,862487	315,804738	0
15.01.2021	16:16:16	0	6,662187	2,824395	1,554	320,6988	0,783	83,046	0	1016	7,7	9,6	9,4	1	1	1	1	1	1	1	1	1	0	1	-14,023961	274,76802	309,158509	0
15.01.2021	16:16:17	0	6,781154	4,857931	1,51875	331,0956	0,787	83,044	0	1016,06	7,7	9,6	9,5	1	1	1	1	1	1	1	1	1	0	1	-10,42988	274,888896	313,321665	0
15.01.2021	16:16:18	0	7,01909	2,824395	1,503	312,39	0,773	83,041	0	1015,98	7,7	9,6	9,4	1	1	1	1	1	1	1	1	1	0	1	-8,245243	274,788114	315,031774	0
15.01.2021	16:16:19	0	6,662187	2,711436	1,458	316,9296	0,782	83,032	0	1016	7,7	9,6	9,3	1	1	1	1	1	1	1	1	1	0	1	-4,792107	274,720188	318,165383	0
15.01.2021	16:16:20	0	6,781154	2,937389	1,449	326,3688	0,78	83,029	0	1016,16	7,7	9,6	9,3	1	1	1	1	1	1	1	1	1	0	1	-13,03735	274,744861	310,036174	0
15.01.2021	16:16:21	0	6,662187	4,293081	1,32825	335,6604	0,792	83,039	0	1016,12	7,7	9,6	9,4	1	1	1	1	1	1	1	1	1	0	1	-9,725159	274,726354	313,261323	0
15.01.2021	16:16:22	0	6,781154	2,824395	1,17375	306,828	0,782	83,036	0	1016,08	7,7	9,6	9,4	1	1	1	1	1	1	1	1	1	0	1	-8,315715	274,698626	314,540391	0
15.01.2021	16:16:23	0	6,781154	4,18008	1,143	310,6728	0,779	83,022	0	1016,08	7,7	9,6	9,5	1	1	1	1	1	1	1	1	1	0	1	-11,134602	274,898226	312,660897	0
15.01.2021	16:16:24	0	7,257025	4,744956	1,35525	315,4752	0,778	82,999	0	1015,84	7,7	9,6	9,5	1	1	1	1	1	1	1	1	1	0	1	-8,174771	274,817519	315,240645	0
15.01.2021	16:16:25	0	6,543219	3,502271	1,51125	316,6272	0,775	83,017	0	1016,04	7,7	9,6	9,3	1	1	1	1	1	1	1	1	1	0	1	-6,976744	274,890451	316,782125	0
15.01.2021	16:16:26	0	7,01909	5,083912	1,53975	309,9132	0,781	83,013	0	1015,94	7,7	9,6	9,4	1	1	1	1	1	1	1	1	1	0	1	-10,500352	274,829914	312,973413	0
15.01.2021	16:16:27	0	6,900122	4,51906	1,5465	314,5392	0,776	83,002	0	1015,98	7,7	9,6	9,3	1	1	1	1	1	1	1	1	1	0	1	-9,302326	274,892006	314,463868	0
15.01.2021	16:16:28	0	6,900122	5,309895	1,51425	314,0388	0,781	82,997	0	1016,1	7,7	9,6	9,3	1	1	1	1	1	1	1	1	1	0	1	-12,614517	274,800489	310,720742	0
15.01.2021	16:16:29	0	6,543219	3,050365	1,47	316,6596	0,78	82,994	0	1016,06	7,7	9,6	9,3	1	1	1	1	1	1	1	1	1	0	1	-6,553911	274,697086	316,294959	0
15.01.2021	16:16:30	0	6,543219	2,71142	1,44525	319,5288	0,771	82,985	0	1016	7,7	9,6	9,4	1	1	1	1	1	1	1	1	1	0	1	-11,205074	274,837664	312,305183	0
15.01.2021	16:16:31	0	6,662187	2,937371	1,5795	327,1464	0,778	82,996	0	1016,14	7,7	9,6	9,4	1	1	1	1	1	1	1	1	1	0	1	-8,45666	274,720188	314,50083	0
15.01.2021	16:16:32	0	6,305284	2,372506	1,8225	315,198	0,775	82,992	0	1016,08	7,7	9,6	9,3	1	1	1	1	1	1	1	1	1	0	1	-9,231853	274,761842	313,921549	0
15.01.2021	16:16:33	0	6,305284	3,050365	1,94625	321,2028	0,779	82,995	0	1016,1	7,7	9,6	9,3	1	1	1	1	1	1	1	1	1	0	1	-12,403101	274,878018	311,297197	0
15.01.2021	16:16:34	0	6,662187	3,615248	1,91775	335,8116	0,774	82,978	0	1016,02	7,7	9,6	9,3	1	1	1	1	1	1	1	1	1	0	1	-10,923185	274,754121	312,193898	0
15.01.2021	16:16:35	0	6,543219	2,598459	1,87125	324,1116	0,775	82,978	0	1016,08	7,7	9,6	9,3	1	1	1	1	1	1	1	1	1	0	1	-12,896406	274,712485	310,02486	0
15.01.2021	16:16:36	0	6,781154	2,372506	1,782	314,1	0,775	82,987	0	1015,9	7,7	9,6	9,3	1	1	1	1	1	1	1	1	1	0	1	-9,302326	274,791207	313,989248	0
15.01.2021	16:16:37	0	6,543219	2,598444	1,6845	319,2264	0,776	82,973	0	1016,08	7,7	9,6	9,4	1	1	1	1	1	1	1	1	1	0	1	-12,966878	274,735605	310,063112	0
15.01.2021	16:16:38	0	7,01909	4,51906	1,5675	319,572	0,773	82,978	0	1015,88	7,7	9,6	9,3	1	1	1	1	1	1	1	1	1	0	1	-5,496829	274,834564	317,998829	0
15.01.2021	16:16:39	0	6,900122	3,728224	1,5315	310,2732	0,771	82,975	0	1016,06	7,7	9,6	9,3	1	1	1	1	1	1	1	1	1	0	1	-11,346018	274,881125	312,368918	0
15.01.2021	16:16:40	0	6,662187	3,95413	1,5495	308,7972	0,777	82,96	0	1016,02	7,7	9,6	9,5	1	1	1	1	1	1	1	1	1	0	1	-13,178295	274,764931	309,98964	0
15.01.2021	16:16:41	0	6,543219	2,711436	1,56825	325,962	0,773	82,975	0	1016,1	7,7	9,6	9,3	1	1	1	1	1	1	1	1	1	0	1	-12,684989	274,899781	311,117838	0
15.01.2021	16:16:42	0	6,305284	2,372506	1,6695	320,0472	0,768	82,982	0	1016,18	7,8	9,6	9,3	1	1	1	1	1	1	1	1	1	0	1	-11,346018	274,7742	311,86553	0
15.01.2021	16:16:43	0	6,781154	3,728224	1,7025	321,84	0,773	82,988	0	1016	7,7	9,6	9,3	1	1	1	1	1	1	1	1	1	0	1	-5,919662	274,721729	317,045075	0
15.01.2021	16:16:44	0	6,424251	3,050365	1,72275	323,6868	0,77	82,974	0	1016,06	7,7	9,6	9,3	1	1	1	1	1	1	1	1	1	0	1	-9,302326	274,764931	313,865609	0
15.01.2021	16:16:45	0	6,543219	3,050365	1,7835	316,926	0,771	82,982	0	1015,94	7,7	9,6	9,3	1	1	1	1	1	1	1	1	1	0	1	-7,047216	274,734063	315,975521	0
15.01.2021	16:16:46	0	6,543219	3,954177	1,85025	318,8556	0,768	82,979	0	1015,94	7,7	9,6	9,3	1	1	1	1	1	1	1	1	1	0	1	-10,500352	274,701705	312,370229	0
15.01.2021	16:16:47	0	6,662187	4,293107	1,96125	321,4152	0,769	82,967	0	1015,92	7,8	9,6	9,3	1	1	1	1	1	1	1	1	1	0	1	-10,42988	274,758753	312,708993	0
15.01.2021	16:16:48	0	6,424251	3,502271	1,9935	313,6068	0,771	82,981	0	1016,08	7,7	9,6	9,3	1	1	1	1	1	1	1	1	1	0	1	-6,624383	274,712485	316,296883	0
15.01.2021	16:16:49	0	6,900122	3,389295	1,9965	322,938	0,77	82,978	0	1016,14	7,7	9,6	9,3	1	1	1	1	1	1	1	1	1	0	1	-11,768851	274,81597	311,639274	0
15.01.2021	16:16:50	0	6,662187	3,728224	1,986	318,798	0,765	82,985	0	1016,1	7,7	9,6	9,3	1	1	1	1	1	1	1	1	1	0	1	-12,614517	274,885788	311,122382	0
15.01.2021	16:16:51	0	6,424251	4,632036	1,99275	318,4308	0,767	82,983	0	1015,92	7,7	9,6	9,3	1	1	1	1	1	1	1	1	1	0	1	-7,399577	274,888896	316,351968	0
15.01.2021	16:16:52	0	6,781154	3,502271	1,9305	318,7908	0,764	82,963	0	1016,02	7,7	9,6	9,3	1	1	1	1	1	1	1	1	1	0	1	-10,42988	274,743318	312,636387	0
15.01.2021	16:16:53	0	6,662187	3,615248	1,87725	320,094	0,774	82,986	0	1016,02	7,8	9,6	9,3	1	1	1	1	1	1	1	1	1	0	1	-4,862579	274,707864	318,036961	0
15.01.2021	16:16:54	0	6,781154	3,728224	1,83675	321,8508	0,768	82,991	0	1015,98	7,7	9,6	9,3	1	1	1	1	1	1	1	1	1	0	1	-10,147992	274,853175	313,435301	0
15.01.2021	16:16:55	0	6,424251	3,050365	1,8195	329,3064	0,761	82,982	0	1015,82	7,8	9,6	9,3	1	1	1	1	1	1	1	1	1	0	1	-11,980268	274,714025	310,948242	0
15.01.2021	16:16:56	0	6,543219	3,276318	1,78425	322,218	0,77	82,983	0	1016,14	7,7	9,6	9,3	1	1	1	1	1	1	1	1	1	0	1	-10,500352	274,754121	312,616731	0
15.01.2021	16:16:57	0	6,662187	4,067154	1,839	333,4104	0,769	82,994	0	1016,12	7,8	9,6	9,3	1	1	1	1	1	1	1	1	1	0	1	-9,725159	274,845418	313,821607	0
15.01.2021	16:16:58	0	6,781154	4,406083	1,866	328,5432	0,765	82,997	0	1016,04	7,8	9,6	9,3	1	1	1	1	1	1	1	1	1	0	1	-12,473573	274,860935	311,146265	0
15.01.2021	16:16:59	0	6,781154	3,389295	1,90275	331,5312	0,767	82,979	0	1015,98	7,7	9,6	9,3	1	1	1	1	1	1	1	1	1	0	1	-8,879493	274,853175	314,7038	0
15.01.2021	16:17:00	0	6,662187	2,485483	2,19225	327,4992	0,788	82,988	0	1016,1	7,7	9,6	9,3	1	1	1	1	1	1	1	1	1	0	1	-13,530655	274,890451	310,228214	0
15.01.2021	16:17:01	0	6,662187	2,485483	2,19225	327,4992	0,788	82,988	0	1016,1	7,7	9,6	9,3	1	1	1	1	1	1	1	1	1	0	1	-10,711769	274,805132	312,645343	0
15.01.2021	16:17:02	0	6,305284	4,406083	2,2965	335,7756	0,761	82,986	0	1016,06	7,7	9,6	9,3	1	1	1	1	1	1	1	1	1	0	1	-7,681466	274,85783	315,923752	0
15.01.2021	16:17:03	0	6,662187	3,728224	2,13525	332,7696	0,766	82,998	0	1016,04	7,8	9,6	9,3	1	1	1	1	1	1	1	1	1	0	1	-6,624383	274,751034	316,478178	0
15.01.2021	16:17:04	0	6,543219	4,293107	1,9815	312,0984	0,77	82,999	0	1016	7,8	9,6	9,3	1	1	1	1	1	1	1	1	1	0	1	-10,147992	274,706324	312,744308	0
15.01.2021	16:17:05	0	6,662187	3,615248	1,92375	326,4228	0,768	83,003	0	1016,06	7,7	9,6	9,3	1	1	1	1	1	1	1	1	1	0	1	-8,315715	274,743318	314,750552	0
15.01.2021	16:17:06	0	6,305284	3,163342	2,05875	323,0604	0,767	82,989	0	1016,04	7,7	9,6	9,3	1	1	1	1	1	1	1	1	1	0	1	-13,460183	274,707864	309,439357	0
15.01.2021	16:17:07	0	6,781154	5,196919	2,18625	335,3148	0,763	83,004	0	1016	7,7	9,6	9,3	1	1	1	1	1	1	1	1	1	0	1	-10,42988	274,798942	312,898096	0
15.01.2021	16:17:08	0	6,543219	3,050365	2,22525	334,5804	0,762	83,003	0	1015,96	7,7	9,6	9,3	1	1	1	1	1	1	1	1	1	0	1	-9,231853	274,879571	314,475764	0
15.01.2021	16:17:09	0	6,424251	2,711436	2,2365	325,9944	0,762	83,007	0	1016	7,8	9,6	9,3	1	1	1	1	1	1	1	1	1	0	1	-9,513742	274,755665	313,610604	0
15.01.2021	16:17:10	0	6,543219	4,51906	2,3595	319,6188	0,762	83	0	1015,94	7,8	9,6	9,3	1	1	1	1	1	1	1	1	1	0	1	-8,174771	274,873357	315,503575	0
15.01.2021	16:17:11	0	6,781154	3,728224	2,4375	315,522	0,762	83,018	0	1015,98	7,8	9,6	9,3	1	1	1	1	1	1	1	1	1	0	1	-7,610994	274,826814	315,84818	0
15.01.2021	16:17:12	0	6,900122	4,406083	2,433	318,1284	0,762	83,027	0	1016,04	7,8	9,6	9,3	1	1	1	1	1	1	1	1	1	0	1	-9,795631	274,887342	313,948591	0
15.01.2021	16:17:13	0	6,424251	3,728224	2,42625	316,0224	0,762	83,026	0	1015,92	7,8	9,6	9,3	1	1	1	1	1	1	1	1	1	0	1	-8,315715	274,78966	314,96858	0
15.01.2021	16:17:14	0	6,424251	2,824412	2,532	318,1608	0,765	83,032	0	1015,98	7,8	9,6	9,3	1	1	1	1	1	1	1	1	1	0	1	-9,654686	274,724812	313,324546	0
15.01.2021	16:17:15	0	6,662187	4,857989	2,65275	320,8284	0,76	83,033	0	1016,1	7,8	9,6	9,3	1	1	1	1	1	1	1	1	1	0	1	-10,711769	274,846969	312,842301	0
15.01.2021	16:17:16	0	6,781154	3,276318	2,7645	331,5312	0,76	83,025	0	1016,08	7,8	9,6	9,3	1	1	1	1	1	1	1	1	1	0	1	-11,06413	274,878018	312,636168	0
15.01.2021	16:17:17	0	6,900122	3,728224	2,79075	330,0948	0,763	83,039	0	1016,06	7,7	9,6	9,3	1	1	1	1	1	1	1	1	1	0	1	-10,782241	274,846969	312,771829	0
15.01.2021	16:17:18	0	6,543219	4,632036	2,76075	328,5108	0,765	83,019	0	1015,94	7,8	9,6	9,3	1	1	1	1	1	1	1	1	1	0	1	-12,191684	274,870251	311,47203	0
15.01.2021	16:17:19	0	6,424251	3,841201	2,73	327,1788	0,759	83,039	0	1015,86	7,8	9,6	9,3	1	1	1	1	1	1	1	1	1	0	1	-8,80902	274,860935	314,810817	0
15.01.2021	16:17:20	0	6,662187	4,293107	2,59575	325,9944	0,772	83,052	0	1016,06	7,8	9,6	9,3	1	1	1	1	1	1	1	1	1	0	1	-9,161381	274,876464	314,531599	0
15.01.2021	16:17:21	0	6,543219	2,824412	2,4555	326,4948	0,756	83,04	0	1015,96	7,8	9,6	9,3	1	1	1	1	1	1	1	1	1	0	1	-7,681466	274,764931	315,486469	0
15.01.2021	16:17:22	0	6,662187	4,857989	2,24925	327,222	0,759	83,044	0	1016,04	7,8	9,6	9,3	1	1	1	1	1	1	1	1	1	0	1	-8,245243	274,686315	314,552992	0
15.01.2021	16:17:23	0	6,424251	2,598459	2,21025	321,1488	0,758	83,033	0	1016,08	7,8	9,6	9,3	1	1	1	1	1	1	1	1	1	0	1	-11,205074	274,747947	311,882967	0
15.01.2021	16:17:24	0	6,662187	4,406083	2,346	328,9428	0,759	83,051	0	1016,02	7,8	9,6	9,3	1	1	1	1	1	1	1	1	1	0	1	-12,05074	274,878018	311,649558	0
15.01.2021	16:17:25	0	6,186316	3,050365	2,4705	328,9104	0,758	83,031	0	1016,1	7,8	9,6	9,3	1	1	1	1	1	1	1	1	1	0	1	-5,778717	274,808228	317,592966	0
15.01.2021	16:17:26	0	6,900122	4,632036	2,51925	329,994	0,75	83,042	0	1016,12	7,8	9,6	9,3	1	1	1	1	1	1	1	1	1	0	1	-9,302326	274,850072	314,266354	0
15.01.2021	16:17:27	0	6,067349	2,25953	2,4375	334,2492	0,759	83,06	0	1016,02	7,8	9,6	9,3	1	1	1	1	1	1	1	1	1	0	1	-9,795631	274,704784	313,089429	0
15.01.2021	16:17:28	0	6,424251	2,937389	2,35125	332,4384	0,758	83,06	0	1015,88	7,8	9,6	9,3	1	1	1	1	1	1	1	1	1	0	1	-8,245243	274,743318	314,821024	0
15.01.2021	16:17:29	0	6,305328	4,293107	2,20125	324,8424	0,762	83,049	0	1015,9	7,8	9,5	9,3	1	1	1	1	1	1	1	1	1	0	1	-11,346018	274,882679	312,376239	0
15.01.2021	16:17:30	0	6,424251	4,067154	2,2725	318,3948	0,752	83,047	0	1016	7,8	9,6	9,3	1	1	1	1	1	1	1	1	1	0	1	-6,976744	274,840765	316,548114	0
15.01.2021	16:17:31	0	6,305284	2,485483	2,175	325,1736	0,754	83,047	0	1015,96	7,7	9,6	9,3	1	1	1	1	1	1	1	1	1	0	1	-11,134602	274,86404	312,499858	0
15.01.2021	16:17:32	0	6,662187	3,163342	2,04075	317,79	0,754	83,068	0	1016,06	7,8	9,6	9,3	1	1	1	1	1	1	1	1	1	0	1	-9,231853	274,740232	313,819901	0
15.01.2021	16:17:33	0	6,424251	2,485483	2,20725	311,4324	0,757	83,052	0	1016,08	7,7	9,6	9,3	1	1	1	1	1	1	1	1	1	0	1	-5,637773	274,874911	318,047889	0
15.01.2021	16:17:34	0	6,781154	4,51906	2,4735	319,608	0,758	83,066	0	1016,04	7,8	9,6	9,3	1	1	1	1	1	1	1	1	1	0	1	-6,483439	274,837664	317,026818	0
15.01.2021	16:17:35	0	6,424251	4,18013	2,427	321,1524	0,76	83,062	0	1016,1	7,8	9,6	9,3	1	1	1	1	1	1	1	1	1	0	1	-10,218464	274,873357	313,459882	0
15.01.2021	16:17:36	0	6,543219	4,745013	2,2845	312,4944	0,759	83,061	0	1016,12	7,8	9,6	9,3	1	1	1	1	1	1	1	1	1	0	1	-10,147992	274,839215	313,369566	0
15.01.2021	16:17:37	0	6,305284	3,954177	2,1735	315,576	0,759	83,075	0	1016,22	7,8	9,6	9,3	1	1	1	1	1	1	1	1	1	0	1	-11,06413	274,695547	311,777505	0
15.01.2021	16:17:38	0	6,424251	3,163342	2,17275	321,1344	0,751	83,073	0	1016,06	7,8	9,6	9,3	1	1	1	1	1	1	1	1	1	0	1	-12,473573	274,798942	310,854404	0
15.01.2021	16:17:39	0	6,186316	2,711436	2,2095	328,914	0,75	83,071	0	1016,1	7,8	9,6	9,3	1	1	1	1	1	1	1	1	1	0	1	-9,090909	274,697086	313,757961	0
15.01.2021	16:17:40	0	6,186316	2,711436	2,1375	324,1116	0,755	83,064	0	1016,04	7,8	9,6	9,3	1	1	1	1	1	1	1	1	1	0	1	-11,205074	274,837664	312,305183	0
15.01.2021	16:17:41	0	6,543219	4,406083	2,03475	336,4236	0,759	83,076	0	1016,1	7,7	9,6	9,3	1	1	1	1	1	1	1	1	1	0	1	-8,949965	274,86404	314,684495	0
15.01.2021	16:17:42	0	6,543219	2,485483	1,94625	331,4232	0,751	83,058	0	1016,14	7,8	9,6	9,3	1	1	1	1	1	1	1	1	1	0	1	-11,134602	274,751034	311,967959	0
15.01.2021	16:17:43	0	6,305284	3,050365	1,85175	322,92	0,752	83,069	0	1016,08	7,8	9,6	9,3	1	1	1	1	1	1	1	1	1	0	1	-8,527132	274,695547	314,314503	0
15.01.2021	16:17:44	0	6,781154	5,083942	1,80075	332,3988	0,755	83,066	0	1016,08	7,8	9,6	9,3	1	1	1	1	1	1	1	1	1	0	1	-11,205074	274,727895	311,788658	0
15.01.2021	16:17:45	0	6,305328	2,711436	1,8	310,716	0,75	83,052	0	1015,96	7,8	9,5	9,3	1	1	1	1	1	1	1	1	1	0	1	-10,147992	274,85783	313,457226	0
15.01.2021	16:17:46	0	6,543219	2,25953	1,86075	321,174	0,744	83,052	0	1016,1	7,8	9,6	9,3	1	1	1	1	1	1	1	1	1	0	1	-9,584214	274,84852	313,97716	0
15.01.2021	16:17:47	0	6,424251	3,163342	1,9035	318,816	0,752	83,07	0	1016,12	7,8	9,6	9,3	1	1	1	1	1	1	1	1	1	0	1	-5,778717	274,845418	317,768049	0
15.01.2021	16:17:48	0	6,305284	2,372506	1,99575	342,3492	0,752	83,064	0	1016,06	7,8	9,6	9,3	1	1	1	1	1	1	1	1	1	0	1	-8,315715	274,700165	314,547629	0
15.01.2021	16:17:49	0	6,424296	2,711436	2,202	324,4464	0,751	83,07	0	1016,12	7,7	9,5	9,3	1	1	1	1	1	1	1	1	1	0	1	-10,782241	274,828364	312,684228	0
15.01.2021	16:17:50	0	6,424251	2,372506	2,20875	330,156	0,753	83,067	0	1016,06	7,8	9,6	9,3	1	1	1	1	1	1	1	1	1	0	1	-8,45666	274,743318	314,609607	0
15.01.2021	16:17:51	0	6,305284	3,502271	2,2035	330,7644	0,755	83,07	0	1016,04	7,8	9,6	9,3	1	1	1	1	1	1	1	1	1	0	1	-7,470049	274,865592	316,171723	0
15.01.2021	16:17:52	0	6,543219	3,163342	2,14125	330,0228	0,75	83,08	0	1016,02	7,7	9,6	9,3	1	1	1	1	1	1	1	1	1	0	1	-9,090909	274,854727	314,499691	0
15.01.2021	16:17:53	0	6,662187	3,841201	2,08725	326,124	0,752	83,076	0	1016,08	7,6	9,6	9,3	1	1	1	1	1	1	1	1	1	0	1	-12,614517	274,892006	311,151676	0
15.01.2021	16:17:54	0	6,305284	2,25953	2,0475	324,4248	0,751	83,071	0	1016,16	7,8	9,6	9,3	1	1	1	1	1	1	1	1	1	0	1	-9,513742	274,81597	313,894383	0
15.01.2021	16:17:55	0	6,305284	3,276318	2,082	322,9596	0,749	83,063	0	1015,96	7,8	9,6	9,3	1	1	1	1	1	1	1	1	1	0	1	-5,496829	274,735605	317,533162	0
15.01.2021	16:17:56	0	6,424251	3,502271	2,0775	322,9848	0,756	83,068	0	1016,12	7,7	9,6	9,3	1	1	1	1	1	1	1	1	1	0	1	-10,641297	274,881125	313,07364	0
15.01.2021	16:17:57	0	6,543219	3,276318	2,07525	328,1256	0,753	83,071	0	1016,1	7,8	9,6	9,3	1	1	1	1	1	1	1	1	1	0	1	-9,725159	274,746404	313,355624	0
15.01.2021	16:17:58	0	6,305284	3,050365	2,2035	314,8668	0,75	83,081	0	1016,1	7,7	9,6	9,3	1	1	1	1	1	1	1	1	1	0	1	-9,372798	274,876464	314,320182	0
15.01.2021	16:17:59	0	6,186316	3,276318	2,27175	321,786	0,75	83,079	0	1016,06	7,8	9,6	9,3	1	1	1	1	1	1	1	1	1	0	1	-11,980268	274,826814	311,478906	0
15.01.2021	16:18:00	0	6,424251	3,389295	2,39325	324,3996	0,75	83,059	0	1016,12	7,7	9,6	9,3	1	1	1	1	1	1	1	1	1	0	1	-14,446794	274,86404	309,187667	0
15.01.2021	16:18:01	0	6,662187	4,293107	2,35725	322,6068	0,746	83,06	0	1016,04	7,7	9,6	9,3	1	1	1	1	1	1	1	1	1	0	1	-9,44327	274,831463	314,037792	0
15.01.2021	16:18:02	0	6,305328	4,293107	2,40375	335,6964	0,746	83,083	0	1016,04	7,7	9,5	9,3	1	1	1	1	1	1	1	1	1	0	1	-9,725159	274,692469	313,102007	0
15.01.2021	16:18:03	0	6,305284	4,067154	2,52975	330,786	0,748	83,068	0	1016,02	7,7	9,6	9,3	1	1	1	1	1	1	1	1	1	0	1	-7,047216	274,720188	315,910274	0
15.01.2021	16:18:04	0	6,424251	4,51906	2,62425	343,5516	0,745	83,077	0	1016,08	7,7	9,6	9,3	1	1	1	1	1	1	1	1	1	0	1	-10,570825	274,764931	312,59711	0
15.01.2021	16:18:05	0	6,305284	4,745013	2,56875	325,1412	0,751	83,068	0	1016,06	7,7	9,6	9,3	1	1	1	1	1	1	1	1	1	0	1	-7,681466	274,710944	315,232557	0
15.01.2021	16:18:06	0	6,186316	2,937389	2,34	351,7524	0,741	83,065	0	1016,04	7,8	9,6	9,3	1	1	1	1	1	1	1	1	1	0	1	-6,342495	274,76802	316,839975	0
15.01.2021	16:18:07	0	6,067349	2,711436	2,2785	326,3292	0,736	83,078	0	1015,96	7,7	9,6	9,3	1	1	1	1	1	1	1	1	1	0	1	-13,389711	274,689392	309,422988	0
15.01.2021	16:18:08	0	6,305284	3,050365	2,3115	335,3292	0,742	83,075	0	1016,16	7,8	9,6	9,3	1	1	1	1	1	1	1	1	1	0	1	-5,285412	274,744861	317,788112	0
15.01.2021	16:18:09	0	6,18636	2,711436	2,34975	325,1304	0,744	83,085	0	1016,08	7,7	9,5	9,3	1	1	1	1	1	1	1	1	1	0	1	-7,329105	274,706324	315,563194	0
15.01.2021	16:18:10	0	6,186316	4,406083	2,4285	321,1704	0,744	83,103	0	1016,1	7,7	9,6	9,3	1	1	1	1	1	1	1	1	1	0	1	-9,161381	274,842316	314,370779	0
15.01.2021	16:18:11	0	5,829454	2,485483	2,46	315,9432	0,747	83,097	0	1016,2	7,7	9,5	9,3	1	1	1	1	1	1	1	1	1	0	1	-6,8358	274,888896	316,915745	0
15.01.2021	16:18:12	0	6,305284	3,276318	2,42325	315,216	0,743	83,075	0	1016,04	7,7	9,6	9,3	1	1	1	1	1	1	1	1	1	0	1	-9,090909	274,845418	314,455857	0
15.01.2021	16:18:13	0	6,305328	4,406083	2,415	320,4072	0,744	83,082	0	1015,98	7,7	9,5	9,3	1	1	1	1	1	1	1	1	1	0	1	-9,090909	274,73869	313,95359	0
15.01.2021	16:18:14	0	6,067349	2,598459	2,35575	321,0372	0,748	83,102	0	1016,08	7,7	9,6	9,3	1	1	1	1	1	1	1	1	1	0	1	-7,751938	274,726354	315,234544	0
15.01.2021	16:18:15	0	6,543219	3,163342	2,289	324,4284	0,739	83,092	0	1016,04	7,7	9,6	9,3	1	1	1	1	1	1	1	1	1	0	1	-9,513742	274,826814	313,945432	0
15.01.2021	16:18:16	0	6,543265	2,937389	2,2455	323,748	0,743	83,098	0	1016,08	7,7	9,5	9,3	1	1	1	1	1	1	1	1	1	0	1	-5,21494	274,856278	318,382968	0
15.01.2021	16:18:17	0	6,424296	3,954177	2,1435	311,7492	0,734	83,111	0	1016,08	7,7	9,5	9,3	1	1	1	1	1	1	1	1	1	0	1	-13,03735	274,781929	310,210563	0
15.01.2021	16:18:18	0	5,948423	2,598459	1,99875	325,9476	0,746	83,114	0	1016,02	7,7	9,5	9,3	1	1	1	1	1	1	1	1	1	0	1	-11,275546	274,876464	312,417434	0
15.01.2021	16:18:19	0	5,948381	3,276318	1,968	325,6776	0,748	83,112	0	1015,86	7,7	9,6	9,3	1	1	1	1	1	1	1	1	1	0	1	-10,782241	274,763386	312,378427	0
15.01.2021	16:18:20	0	6,067391	3,389295	2,01825	329,7024	0,747	83,115	0	1016,14	7,7	9,5	9,3	1	1	1	1	1	1	1	1	1	0	1	-10,218464	274,868698	313,437936	0
15.01.2021	16:18:21	0	6,305328	2,824412	1,95975	335,7324	0,741	83,113	0	1016,04	7,7	9,5	9,3	1	1	1	1	1	1	1	1	1	0	1	-7,329105	274,76802	315,853365	0
15.01.2021	16:18:22	0	6,543265	4,067154	1,818	322,254	0,747	83,123	0	1016,14	7,7	9,5	9,3	1	1	1	1	1	1	1	1	1	0	1	-8,668076	274,737147	314,369168	0
15.01.2021	16:18:23	0	6,186316	2,824412	1,86	319,248	0,741	83,112	0	1016	7,7	9,6	9,3	1	1	1	1	1	1	1	1	1	0	1	-8,104299	274,885788	315,632601	0
15.01.2021	16:18:24	0	6,305328	2,937389	1,99575	329,9976	0,737	83,13	0	1016,04	7,7	9,5	9,3	1	1	1	1	1	1	1	1	1	0	1	-8,879493	274,769565	314,310246	0
15.01.2021	16:18:25	0	6,186316	2,372492	1,94175	319,2444	0,739	83,129	0	1016,04	7,8	9,6	9,4	1	1	1	1	1	1	1	1	1	0	1	-12,403101	274,878018	311,297197	0
15.01.2021	16:18:26	0	6,543219	4,067154	1,80975	318,1896	0,743	83,133	0	1016,02	7,7	9,6	9,3	1	1	1	1	1	1	1	1	1	0	1	-8,80902	274,74949	314,286281	0
15.01.2021	16:18:27	0	6,662187	4,745013	1,7655	322,6392	0,746	83,13	0	1016	7,8	9,6	9,3	1	1	1	1	1	1	1	1	1	0	1	-9,513742	274,874911	314,17192	0
15.01.2021	16:18:28	0	6,543265	4,406083	1,79925	323,4132	0,742	83,137	0	1016,36	7,7	9,5	9,3	1	1	1	1	1	1	1	1	1	0	1	-9,372798	274,760297	313,773339	0
15.01.2021	16:18:29	0	6,305328	3,276318	1,97775	328,5576	0,745	83,154	0	1016,24	7,7	9,5	9,3	1	1	1	1	1	1	1	1	1	0	1	-11,980268	274,874911	311,705395	0
15.01.2021	16:18:30	0	6,305328	2,824412	2,1825	320,3712	0,74	83,133	0	1016	7,7	9,5	9,3	1	1	1	1	1	1	1	1	1	0	1	-9,231853	274,741775	313,827157	0
15.01.2021	16:18:31	0	6,305284	2,711436	2,1675	313,2072	0,741	83,152	0	1016,04	7,7	9,6	9,3	1	1	1	1	1	1	1	1	1	0	1	-10,923185	274,729437	312,077797	0
15.01.2021	16:18:32	0	6,18636	3,615248	2,24325	320,7348	0,746	83,142	0	1016,16	7,7	9,5	9,3	1	1	1	1	1	1	1	1	1	0	1	-13,03735	274,856278	310,560558	0
15.01.2021	16:18:33	0	6,424296	3,728247	2,3235	323,3052	0,734	83,124	0	1016,1	7,7	9,5	9,2	1	1	1	1	1	1	1	1	1	0	1	-7,610994	274,772655	315,593284	0
15.01.2021	16:18:34	0	6,424296	4,51906	2,39625	319,9572	0,744	83,138	0	1016,12	7,7	9,5	9,3	1	1	1	1	1	1	1	1	1	0	1	-4,862579	274,700165	318,000765	0
15.01.2021	16:18:35	0	6,424296	4,745013	2,463	318,4344	0,74	83,138	0	1016,02	7,7	9,5	9,3	1	1	1	1	1	1	1	1	1	0	1	-9,302326	274,823715	314,142259	0
15.01.2021	16:18:36	0	5,829413	2,485483	2,45775	310,338	0,738	83,133	0	1016	7,7	9,6	9,3	1	1	1	1	1	1	1	1	1	0	1	-11,909796	274,811325	311,476463	0
15.01.2021	16:18:37	0	6,305328	2,598459	2,4255	305,4168	0,735	83,127	0	1016,04	7,7	9,5	9,3	1	1	1	1	1	1	1	1	1	0	1	-13,107822	274,712485	309,813444	0
15.01.2021	16:18:38	0	6,424296	4,745013	2,30025	318,294	0,742	83,126	0	1016	7,7	9,5	9,3	1	1	1	1	1	1	1	1	1	0	1	-14,235377	274,707864	308,664163	0
15.01.2021	16:18:39	0	6,305328	2,598459	2,0835	303,5808	0,738	83,139	0	1015,94	7,7	9,5	9,3	1	1	1	1	1	1	1	1	1	0	1	-11,839323	274,764931	311,328611	0
15.01.2021	16:18:40	0	6,305284	3,954177	2,03925	292,9536	0,74	83,127	0	1015,96	7,7	9,6	9,3	1	1	1	1	1	1	1	1	1	0	1	-10,852713	274,86404	312,781747	0
15.01.2021	16:18:41	0	5,829454	3,163342	2,118	306,81	0,736	83,132	0	1016,2	7,8	9,5	9,3	1	1	1	1	1	1	1	1	1	0	1	-7,82241	274,686315	314,975825	0
15.01.2021	16:18:42	0	5,948423	2,372506	2,25975	315,288	0,739	83,13	0	1016,06	7,8	9,5	9,3	1	1	1	1	1	1	1	1	1	0	1	-12,473573	274,695547	310,368062	0
15.01.2021	16:18:43	0	6,424296	3,954177	2,3385	318,3804	0,738	83,143	0	1015,98	7,7	9,5	9,3	1	1	1	1	1	1	1	1	1	0	1	-11,346018	274,794301	311,960114	0
15.01.2021	16:18:44	0	6,067349	4,51906	2,44725	315,9252	0,742	83,136	0	1015,98	7,8	9,6	9,3	1	1	1	1	1	1	1	1	1	0	1	-5,919662	274,856278	317,678247	0
15.01.2021	16:18:45	0	6,305328	4,85796	2,54025	325,566	0,738	83,141	0	1015,94	7,7	9,5	9,4	1	1	1	1	1	1	1	1	1	0	1	-6,976744	274,803585	316,373083	0
15.01.2021	16:18:46	0	5,829413	3,163342	2,5185	329,9976	0,74	83,142	0	1016,1	7,7	9,6	9,3	1	1	1	1	1	1	1	1	1	0	1	-14,728682	274,690931	308,091249	0
15.01.2021	16:18:47	0	6,18636	4,745013	2,463	324,7956	0,735	83,141	0	1016,12	7,7	9,5	9,3	1	1	1	1	1	1	1	1	1	0	1	-11,980268	274,808228	311,391416	0
15.01.2021	16:18:48	0	6,18636	2,598459	2,4045	327,15	0,741	83,148	0	1016,1	7,7	9,5	9,3	1	1	1	1	1	1	1	1	1	0	1	-11,134602	274,701705	311,73598	0
15.01.2021	16:18:49	0	6,067391	2,71142	2,301	323,3592	0,74	83,124	0	1015,96	7,7	9,5	9,4	1	1	1	1	1	1	1	1	1	0	1	-8,45666	274,704784	314,4284	0
15.01.2021	16:18:50	0	6,067391	2,824412	2,27625	317,7	0,739	83,137	0	1016,08	7,7	9,5	9,3	1	1	1	1	1	1	1	1	1	0	1	-10,711769	274,795848	312,601644	0
15.01.2021	16:18:51	0	5,829454	3,615248	2,142	321,8184	0,737	83,125	0	1015,96	7,7	9,5	9,3	1	1	1	1	1	1	1	1	1	0	1	-5,496829	274,718647	317,453415	0
15.01.2021	16:18:52	0	6,18636	3,502271	2,08575	324,4068	0,738	83,144	0	1016,06	7,7	9,5	9,3	1	1	1	1	1	1	1	1	1	0	1	-10,42988	274,809776	312,94909	0
15.01.2021	16:18:53	0	6,067391	4,293107	2,007	321,7932	0,739	83,148	0	1016,04	7,7	9,5	9,3	1	1	1	1	1	1	1	1	1	0	1	-6,8358	274,876464	316,85718	0
15.01.2021	16:18:54	0	6,18636	3,954201	1,92	330,7932	0,74	83,148	0	1016,08	7,7	9,5	9,2	1	1	1	1	1	1	1	1	1	0	1	-14,587738	274,792754	308,711115	0
15.01.2021	16:18:55	0	6,067349	3,502271	1,9605	323,658	0,741	83,155	0	1016,14	7,7	9,6	9,3	1	1	1	1	1	1	1	1	1	0	1	-7,681466	274,878018	316,018832	0
15.01.2021	16:18:56	0	6,067391	4,067154	2,13225	318,9708	0,738	83,149	0	1016,2	7,7	9,5	9,3	1	1	1	1	1	1	1	1	1	0	1	-12,896406	274,843867	310,643057	0
15.01.2021	16:18:57	0	5,829413	4,744984	2,295	323,388	0,741	83,137	0	1016,04	7,7	9,6	9,4	1	1	1	1	1	1	1	1	1	0	1	-7,82241	274,686315	314,975825	0
15.01.2021	16:18:58	0	6,424296	4,51906	2,29425	323,7732	0,738	83,149	0	1016,06	7,8	9,5	9,3	1	1	1	1	1	1	1	1	1	0	1	-8,104299	274,837664	315,405958	0
15.01.2021	16:18:59	0	6,543265	3,954177	2,283	326,3796	0,747	83,155	0	1015,94	7,7	9,5	9,3	1	1	1	1	1	1	1	1	1	0	1	-9,725159	274,833013	313,763201	0
15.01.2021	16:19:00	0	6,424296	4,632036	2,26275	329,994	0,735	83,147	0	1016,1	7,7	9,5	9,3	1	1	1	1	1	1	1	1	1	0	1	-13,03735	274,729437	309,963632	0
15.01.2021	16:19:01	0	6,424296	4,632036	2,26275	329,994	0,735	83,147	0	1016,1	7,7	9,5	9,3	1	1	1	1	1	1	1	1	1	0	1	-13,03735	274,729437	309,963632	0
15.01.2021	16:19:02	0	6,067391	3,841201	2,23725	331,1028	0,738	83,149	0	1015,94	7,7	9,5	9,3	1	1	1	1	1	1	1	1	1	0	1	-9,513742	274,695547	313,327893	0
15.01.2021	16:19:03	0	6,067391	4,293133	2,181	328,644	0,739	83,142	0	1016,14	7,7	9,5	9,2	1	1	1	1	1	1	1	1	1	0	1	-10,147992	274,783475	313,107196	0
15.01.2021	16:19:04	0	6,18636	5,083942	2,1405	325,4904	0,732	83,131	0	1016,08	7,7	9,5	9,3	1	1	1	1	1	1	1	1	1	0	1	-10,923185	274,854727	312,667415	0
15.01.2021	16:19:05	0	6,067391	2,824395	2,12025	329,184	0,735	83,145	0	1016,12	7,7	9,5	9,4	1	1	1	1	1	1	1	1	1	0	1	-7,82241	274,785021	315,440054	0
15.01.2021	16:19:06	0	6,424296	2,485483	2,09325	331,9416	0,732	83,129	0	1016,04	7,8	9,5	9,3	1	1	1	1	1	1	1	1	1	0	1	-10,570825	274,694008	312,263575	0
15.01.2021	16:19:07	0	6,186316	4,51906	1,986	331,1136	0,734	83,133	0	1016,04	7,8	9,6	9,3	1	1	1	1	1	1	1	1	1	0	1	-9,513742	274,797395	313,806952	0
15.01.2021	16:19:08	0	6,424296	4,970996	1,86825	332,37	0,732	83,132	0	1016,06	7,7	9,5	9,2	1	1	1	1	1	1	1	1	1	0	1	-7,470049	274,856278	316,127859	0
15.01.2021	16:19:09	0	6,543265	4,519087	1,8435	320,418	0,729	83,146	0	1015,98	7,7	9,5	9,2	1	1	1	1	1	1	1	1	1	0	1	-9,936575	274,820617	313,493424	0
15.01.2021	16:19:10	0	6,067391	3,615248	1,80375	319,2228	0,73	83,128	0	1016,04	7,7	9,5	9,3	1	1	1	1	1	1	1	1	1	0	1	-8,45666	274,86404	315,177801	0
15.01.2021	16:19:11	0	5,829454	2,937389	1,77075	311,3424	0,735	83,146	0	1016,16	7,7	9,5	9,3	1	1	1	1	1	1	1	1	1	0	1	-5,285412	274,740232	317,766342	0
15.01.2021	16:19:12	0	6,067391	3,050347	1,82625	317,79	0,735	83,143	0	1016,16	7,7	9,5	9,4	1	1	1	1	1	1	1	1	1	0	1	-11,768851	274,867145	311,880235	0
15.01.2021	16:19:13	0	5,948423	4,067154	1,9665	333,8532	0,733	83,14	0	1016,04	7,7	9,5	9,3	1	1	1	1	1	1	1	1	1	0	1	-9,584214	274,714025	313,344295	0
15.01.2021	16:19:14	0	5,829454	4,293081	1,98225	324,792	0,739	83,131	0	1016,04	7,7	9,5	9,4	1	1	1	1	1	1	1	1	1	0	1	-12,614517	274,871804	311,056512	0
15.01.2021	16:19:15	0	6,067349	3,728202	2,133	322,8768	0,726	83,14	0	1015,96	7,7	9,6	9,4	1	1	1	1	1	1	1	1	1	0	1	-13,742072	274,751034	309,360489	0
15.01.2021	16:19:16	0	6,18636	2,937407	2,13825	320,4252	0,732	83,141	0	1016,12	7,7	9,5	9,2	1	1	1	1	1	1	1	1	1	0	1	-8,527132	274,692469	314,300033	0
15.01.2021	16:19:17	0	6,067391	3,050365	1,99725	322,9488	0,726	83,15	0	1016,02	7,7	9,5	9,3	1	1	1	1	1	1	1	1	1	0	1	-5,84919	274,805132	317,507922	0
15.01.2021	16:19:18	0	6,18636	3,389275	1,8915	313,2396	0,733	83,146	0	1016,06	7,7	9,5	9,4	1	1	1	1	1	1	1	1	1	0	1	-7,188161	274,707864	315,711379	0
15.01.2021	16:19:19	0	6,067391	4,745013	1,8225	321,4764	0,731	83,148	0	1016,16	7,7	9,5	9,3	1	1	1	1	1	1	1	1	1	0	1	-8,527132	274,707864	314,372408	0
15.01.2021	16:19:20	0	6,18636	4,632064	1,8435	316,296	0,734	83,155	0	1016,04	7,7	9,5	9,2	1	1	1	1	1	1	1	1	1	0	1	-11,768851	274,842316	311,763309	0
15.01.2021	16:19:21	0	6,067391	3,163323	1,9575	313,2612	0,736	83,155	0	1016,02	7,7	9,5	9,4	1	1	1	1	1	1	1	1	1	0	1	-10,570825	274,6817	312,20572	0
15.01.2021	16:19:22	0	6,18636	4,293081	2,00475	320,0724	0,727	83,153	0	1016,04	7,7	9,5	9,4	1	1	1	1	1	1	1	1	1	0	1	-10,570825	274,826814	312,888349	0
15.01.2021	16:19:23	0	6,067391	4,067154	2,0505	317,7792	0,728	83,15	0	1016,04	7,7	9,5	9,3	1	1	1	1	1	1	1	1	1	0	1	-8,315715	274,870251	315,347999	0
15.01.2021	16:19:24	0	6,067391	3,163323	2,055	328,914	0,729	83,151	0	1015,94	7,7	9,5	9,4	1	1	1	1	1	1	1	1	1	0	1	-7,258633	274,797395	316,062062	0
15.01.2021	16:19:25	0	5,829454	2,937371	1,944	327,4416	0,727	83,16	0	1016,04	7,7	9,5	9,4	1	1	1	1	1	1	1	1	1	0	1	-12,191684	274,674012	310,548723	0
15.01.2021	16:19:26	0	5,948423	2,598459	1,8915	316,9908	0,73	83,163	0	1016,1	7,7	9,5	9,3	1	1	1	1	1	1	1	1	1	0	1	-5,990134	274,781929	317,257779	0
15.01.2021	16:19:27	0	5,948423	3,502271	1,85625	317,4372	0,732	83,159	0	1016,14	7,7	9,5	9,3	1	1	1	1	1	1	1	1	1	0	1	-9,866103	274,84852	313,695272	0
15.01.2021	16:19:28	0	6,18636	4,406057	1,89375	305,4168	0,728	83,165	0	1016,02	7,7	9,5	9,4	1	1	1	1	1	1	1	1	1	0	1	-8,80902	274,842316	314,72314	0
15.01.2021	16:19:29	0	6,305328	4,970966	1,905	321,4872	0,729	83,161	0	1016,02	7,7	9,5	9,3	1	1	1	1	1	1	1	1	1	0	1	-8,45666	274,837664	315,053597	0
15.01.2021	16:19:30	0	5,829413	2,598459	1,87575	319,5828	0,729	83,168	0	1016,2	7,7	9,6	9,3	1	1	1	1	1	1	1	1	1	0	1	-10,923185	274,697086	311,925685	0
15.01.2021	16:19:31	0	6,067391	2,824429	1,78275	325,5732	0,727	83,153	0	1016,08	7,7	9,5	9,2	1	1	1	1	1	1	1	1	1	0	1	-11,346018	274,80668	312,018379	0
15.01.2021	16:19:32	0	5,710486	2,372506	1,68075	312,2604	0,727	83,153	0	1015,98	7,7	9,5	9,3	1	1	1	1	1	1	1	1	1	0	1	-3,59408	274,720188	319,36341	0
15.01.2021	16:19:33	0	5,710486	2,711436	1,70625	313,2324	0,735	83,154	0	1016,14	7,7	9,5	9,3	1	1	1	1	1	1	1	1	1	0	1	-10,641297	274,862487	312,985852	0
15.01.2021	16:19:34	0	6,18636	4,632036	1,7115	325,1952	0,729	83,161	0	1016,12	7,7	9,5	9,3	1	1	1	1	1	1	1	1	1	0	1	-6,694856	274,752578	316,414967	0
15.01.2021	16:19:35	0	5,829454	3,276318	1,7475	321,5412	0,728	83,145	0	1016	7,7	9,5	9,3	1	1	1	1	1	1	1	1	1	0	1	-9,372798	274,879571	314,334819	0
15.01.2021	16:19:36	0	6,067391	3,50225	1,71375	320,5548	0,723	83,162	0	1016,12	7,7	9,5	9,4	1	1	1	1	1	1	1	1	1	0	1	-10,641297	274,834564	312,854361	0
15.01.2021	16:19:37	0	6,067391	3,276299	1,752	320,0688	0,729	83,158	0	1015,98	7,7	9,5	9,4	1	1	1	1	1	1	1	1	1	0	1	-9,513742	274,724812	313,465491	0
15.01.2021	16:19:38	0	5,829454	3,276318	1,8	323,2512	0,729	83,16	0	1016,22	7,7	9,5	9,3	1	1	1	1	1	1	1	1	1	0	1	-9,161381	274,840765	314,363477	0
15.01.2021	16:19:39	0	5,948339	3,841178	1,75425	322,56	0,725	83,14	0	1016,04	7,7	9,7	9,4	1	1	1	1	1	1	1	1	1	0	1	-6,483439	274,721729	316,481298	0
15.01.2021	16:19:40	0	5,710486	2,937407	1,743	321,7932	0,731	83,145	0	1016,16	7,8	9,5	9,2	1	1	1	1	1	1	1	1	1	0	1	-8,949965	274,809776	314,429006	0
15.01.2021	16:19:41	0	5,47251	2,146566	1,716	325,998	0,727	83,161	0	1016,04	7,7	9,6	9,2	1	1	1	1	1	1	1	1	1	0	1	-7,82241	274,689392	314,990289	0
15.01.2021	16:19:42	0	5,710486	2,824395	1,67175	308,8512	0,732	83,14	0	1016	7,7	9,5	9,4	1	1	1	1	1	1	1	1	1	0	1	-11,627907	274,870251	312,035807	0
15.01.2021	16:19:43	0	6,18636	3,954177	1,84425	319,986	0,73	83,159	0	1016,06	7,7	9,5	9,3	1	1	1	1	1	1	1	1	1	0	1	-7,751938	274,800489	315,583321	0
15.01.2021	16:19:44	0	5,948381	3,954177	2,136	311,8572	0,725	83,135	0	1016,02	7,7	9,6	9,3	1	1	1	1	1	1	1	1	1	0	1	-13,319239	274,712485	309,602027	0
15.01.2021	16:19:45	0	5,948423	4,858019	2,23125	326,7972	0,729	83,16	0	1016,06	7,7	9,5	9,2	1	1	1	1	1	1	1	1	1	0	1	-11,557435	274,769565	311,632304	0
15.01.2021	16:19:46	0	6,067349	3,841201	2,20575	332,3808	0,731	83,163	0	1016,02	7,7	9,6	9,3	1	1	1	1	1	1	1	1	1	0	1	-10,782241	274,697086	312,066629	0
15.01.2021	16:19:47	0	6,305328	2,937389	2,241	329,346	0,726	83,144	0	1015,96	7,7	9,5	9,3	1	1	1	1	1	1	1	1	1	0	1	-10,077519	274,692469	312,749646	0
15.01.2021	16:19:48	0	5,829454	3,954154	2,118	332,3844	0,731	83,163	0	1015,88	7,7	9,5	9,4	1	1	1	1	1	1	1	1	1	0	1	-11,909796	274,7742	311,301753	0
15.01.2021	16:19:49	0	5,710486	1,807624	2,0265	329,7204	0,726	83,164	0	1016,06	7,7	9,5	9,3	1	1	1	1	1	1	1	1	1	0	1	-9,866103	274,867145	313,782983	0
15.01.2021	16:19:50	0	5,591478	2,711436	1,947	333,9072	0,724	83,176	0	1016,12	7,7	9,6	9,3	1	1	1	1	1	1	1	1	1	0	1	-8,033827	274,703244	314,843994	0
15.01.2021	16:19:51	0	5,948381	3,276338	1,815	321,264	0,731	83,164	0	1016,14	7,7	9,6	9,2	1	1	1	1	1	1	1	1	1	0	1	-11,909796	274,884233	311,819782	0
15.01.2021	16:19:52	0	6,067391	4,180155	1,6935	331,2288	0,726	83,157	0	1015,8	7,7	9,5	9,2	1	1	1	1	1	1	1	1	1	0	1	-7,892882	274,775746	315,325938	0
15.01.2021	16:19:53	0	6,067391	2,598475	1,5465	327,798	0,727	83,165	0	1016,14	7,7	9,5	9,2	1	1	1	1	1	1	1	1	1	0	1	-10,711769	274,695547	312,129866	0
15.01.2021	16:19:54	0	5,829454	3,502271	1,47075	303,5448	0,731	83,165	0	1016,08	7,7	9,5	9,3	1	1	1	1	1	1	1	1	1	0	1	-11,41649	274,686315	311,381744	0
15.01.2021	16:19:55	0	5,829454	2,598459	1,44675	315,5724	0,72	83,168	0	1016,02	7,7	9,5	9,3	1	1	1	1	1	1	1	1	1	0	1	-10,077519	274,710944	312,836504	0
15.01.2021	16:19:56	0	5,710486	2,485483	1,4775	332,7732	0,724	83,154	0	1016,14	7,7	9,5	9,3	1	1	1	1	1	1	1	1	1	0	1	-5,637773	274,704784	317,247286	0
15.01.2021	16:19:57	0	5,829454	2,937389	1,593	324,7524	0,729	83,161	0	1015,98	7,7	9,5	9,3	1	1	1	1	1	1	1	1	1	0	1	-9,866103	274,743318	313,200164	0
15.01.2021	16:19:58	0	5,710446	2,598444	1,908	320,022	0,72	83,155	0	1015,92	7,7	9,6	9,4	1	1	1	1	1	1	1	1	1	0	1	-9,936575	274,86404	313,697885	0
15.01.2021	16:19:59	0	6,067391	3,276318	2,18025	322,6644	0,725	83,161	0	1016,12	7,7	9,5	9,3	1	1	1	1	1	1	1	1	1	0	1	-12,684989	274,780383	310,555649	0
15.01.2021	16:20:00	0	6,186316	4,293107	2,55075	306,3456	0,721	83,162	0	1016,1	7,7	9,6	9,3	1	1	1	1	1	1	1	1	1	0	1	-10,570825	274,666327	312,133464	0
15.01.2021	16:20:01	0	6,186316	4,293107	2,55075	306,3456	0,721	83,162	0	1016,1	7,7	9,6	9,3	1	1	1	1	1	1	1	1	1	0	1	-10,711769	274,778837	312,521596	0
15.01.2021	16:20:02	0	5,47251	2,824412	2,664	304,5024	0,728	83,17	0	1016,14	7,7	9,6	9,3	1	1	1	1	1	1	1	1	1	0	1	-11,839323	274,85783	311,765894	0
15.01.2021	16:20:03	0	5,948423	2,824412	2,66625	302,0868	0,726	83,196	0	1016,4	7,7	9,5	9,3	1	1	1	1	1	1	1	1	1	0	1	-6,906272	274,730979	316,101961	0
15.01.2021	16:20:04	0	5,829413	4,067154	2,69925	304,7076	0,721	83,179	0	1016,14	7,7	9,6	9,3	1	1	1	1	1	1	1	1	1	0	1	-11,627907	274,6817	311,148637	0
15.01.2021	16:20:05	0	5,591517	2,485468	2,682	309,15	0,725	83,171	0	1016,06	7,7	9,5	9,4	1	1	1	1	1	1	1	1	1	0	1	-8,949965	274,791207	314,341609	0
15.01.2021	16:20:06	0	6,305328	3,502271	2,63775	308,1132	0,723	83,15	0	1016,18	7,7	9,5	9,3	1	1	1	1	1	1	1	1	1	0	1	-11,768851	274,672475	310,964331	0
15.01.2021	16:20:07	0	5,829413	2,937407	2,706	315,9432	0,718	83,154	0	1016,04	7,7	9,6	9,2	1	1	1	1	1	1	1	1	1	0	1	-11,768851	274,743318	311,297416	0
15.01.2021	16:20:08	0	5,948423	3,389295	2,6865	312,4656	0,721	83,164	0	1016,18	7,7	9,5	9,3	1	1	1	1	1	1	1	1	1	0	1	-8,386187	274,85783	315,21903	0
15.01.2021	16:20:09	0	5,829454	3,389295	2,70675	307,134	0,723	83,148	0	1016,08	7,7	9,5	9,3	1	1	1	1	1	1	1	1	1	0	1	-6,976744	274,720188	315,980746	0
15.01.2021	16:20:10	0	5,35358	2,485483	2,78325	314,118	0,717	83,153	0	1016,16	7,7	9,5	9,3	1	1	1	1	1	1	1	1	1	0	1	-6,694856	274,700165	316,168488	0
15.01.2021	16:20:11	0	6,067349	5,196919	2,7855	313,6392	0,719	83,156	0	1016,06	7,7	9,6	9,3	1	1	1	1	1	1	1	1	1	0	1	-9,584214	274,763386	313,576454	0
15.01.2021	16:20:12	0	5,710446	3,615248	2,6745	311,7672	0,724	83,164	0	1015,98	7,7	9,6	9,3	1	1	1	1	1	1	1	1	1	0	1	-12,966878	274,6817	309,809666	0
15.01.2021	16:20:13	0	5,710446	3,389315	2,57325	300,1716	0,724	83,166	0	1015,98	7,7	9,6	9,2	1	1	1	1	1	1	1	1	1	0	1	-14,65821	274,865592	308,983563	0
15.01.2021	16:20:14	0	5,710486	3,389315	2,5065	294,39	0,717	83,156	0	1016	7,7	9,5	9,2	1	1	1	1	1	1	1	1	1	0	1	-9,020437	274,77111	314,176571	0
15.01.2021	16:20:15	0	5,591517	3,050365	2,34825	289,5336	0,722	83,165	0	1016,14	7,7	9,5	9,3	1	1	1	1	1	1	1	1	1	0	1	-11,06413	274,727895	311,929602	0
15.01.2021	16:20:16	0	5,829454	4,293081	2,15325	300,1536	0,717	83,165	0	1016,08	7,7	9,5	9,4	1	1	1	1	1	1	1	1	1	0	1	-9,725159	274,760297	313,420979	0
15.01.2021	16:20:17	0	5,829454	3,954177	1,9365	300,0024	0,723	83,161	0	1016	7,7	9,5	9,3	1	1	1	1	1	1	1	1	1	0	1	-8,174771	274,868698	315,481629	0
15.01.2021	16:20:18	0	5,948381	4,067154	1,7955	314,4384	0,727	83,164	0	1016,14	7,7	9,6	9,3	1	1	1	1	1	1	1	1	1	0	1	-7,540521	274,73869	315,503978	0
15.01.2021	16:20:19	0	5,710446	4,180105	1,815	326,0232	0,719	83,17	0	1016,14	7,7	9,6	9,4	1	1	1	1	1	1	1	1	1	0	1	-10,500352	274,873357	313,177993	0
15.01.2021	16:20:20	0	5,710446	2,711436	1,695	314,4744	0,72	83,158	0	1016,1	7,7	9,6	9,3	1	1	1	1	1	1	1	1	1	0	1	-10,359408	274,760297	312,786729	0
15.01.2021	16:20:21	0	5,829454	3,502271	1,611	329,6376	0,723	83,168	0	1016,18	7,7	9,5	9,3	1	1	1	1	1	1	1	1	1	0	1	-9,372798	274,701705	313,497784	0
15.01.2021	16:20:22	0	5,591517	4,970936	1,51125	310,2588	0,721	83,174	0	1016,18	7,7	9,5	9,4	1	1	1	1	1	1	1	1	1	0	1	-12,332629	274,826814	311,126545	0
15.01.2021	16:20:23	0	6,067349	2,824412	1,614	294,4368	0,722	83,16	0	1016,12	7,7	9,6	9,3	1	1	1	1	1	1	1	1	1	0	1	-8,949965	274,694008	313,884435	0
15.01.2021	16:20:24	0	5,948381	2,25953	1,71825	297,1872	0,727	83,17	0	1016	7,7	9,6	9,3	1	1	1	1	1	1	1	1	1	0	1	-8,315715	274,755665	314,808631	0
15.01.2021	16:20:25	0	5,591517	3,050365	1,6455	285,8868	0,722	83,171	0	1015,98	7,7	9,5	9,3	1	1	1	1	1	1	1	1	1	0	1	-11,627907	274,859383	311,98462	0
15.01.2021	16:20:26	0	6,067349	4,406083	1,509	299,8224	0,719	83,166	0	1016,22	7,7	9,6	9,3	1	1	1	1	1	1	1	1	1	0	1	-8,386187	274,846969	315,167882	0
15.01.2021	16:20:27	0	5,829454	4,632036	1,515	301,2192	0,717	83,171	0	1016,1	7,7	9,5	9,3	1	1	1	1	1	1	1	1	1	0	1	-10,641297	274,826814	312,817877	0
15.01.2021	16:20:28	0	5,948423	4,745013	1,587	312,7932	0,714	83,16	0	1016,06	7,7	9,5	9,3	1	1	1	1	1	1	1	1	1	0	1	-7,963354	274,737147	315,07389	0
15.01.2021	16:20:29	0	5,710486	4,51906	1,6305	310,6332	0,72	83,168	0	1016,14	7,7	9,5	9,3	1	1	1	1	1	1	1	1	1	0	1	-13,03735	274,84852	310,524024	0
15.01.2021	16:20:30	0	5,710446	5,083942	1,62375	317,7288	0,72	83,163	0	1016,04	7,7	9,6	9,3	1	1	1	1	1	1	1	1	1	0	1	-8,527132	274,798942	314,800845	0
15.01.2021	16:20:31	0	5,829454	2,485483	1,518	322,938	0,718	83,163	0	1016,06	7,7	9,5	9,3	1	1	1	1	1	1	1	1	1	0	1	-8,597604	274,85783	315,007614	0
15.01.2021	16:20:32	0	6,067349	4,519087	1,40625	319,1292	0,719	83,129	0	1016,04	7,7	9,6	9,2	1	1	1	1	1	1	1	1	1	0	1	-11,698379	274,795848	311,615034	0
15.01.2021	16:20:33	0	5,47251	4,406083	1,416	312,1056	0,72	83,179	0	1016,12	7,7	9,6	9,3	1	1	1	1	1	1	1	1	1	0	1	-5,637773	274,839215	317,879784	0
15.01.2021	16:20:34	0	5,829413	4,18013	1,6725	298,2276	0,71	83,166	0	1016,08	7,7	9,6	9,3	1	1	1	1	1	1	1	1	1	0	1	-9,866103	274,856278	313,731806	0
15.01.2021	16:20:35	0	5,591478	2,598459	1,89975	307,6056	0,717	83,179	0	1016,06	7,7	9,6	9,3	1	1	1	1	1	1	1	1	1	0	1	-13,107822	274,798942	310,220154	0
15.01.2021	16:20:36	0	5,591478	4,632064	2,0295	307,2168	0,711	83,16	0	1015,92	7,7	9,6	9,2	1	1	1	1	1	1	1	1	1	0	1	-9,161381	274,846969	314,392689	0
15.01.2021	16:20:37	0	5,948423	4,51906	2,1	312,0264	0,717	83,162	0	1016	7,7	9,5	9,3	1	1	1	1	1	1	1	1	1	0	1	-9,44327	274,781929	313,804643	0
15.01.2021	16:20:38	0	5,591517	4,18013	2,18625	308,8152	0,711	83,167	0	1015,94	7,7	9,5	9,3	1	1	1	1	1	1	1	1	1	0	1	-6,8358	274,859383	316,776727	0
15.01.2021	16:20:39	0	6,067391	4,632036	2,23125	307,1772	0,714	83,171	0	1015,98	7,7	9,5	9,3	1	1	1	1	1	1	1	1	1	0	1	-9,866103	274,785021	313,396361	0
15.01.2021	16:20:40	0	5,47251	2,937371	2,21475	315,9252	0,718	83,166	0	1016,2	7,7	9,6	9,4	1	1	1	1	1	1	1	1	1	0	1	-5,21494	274,846969	318,33913	0
15.01.2021	16:20:41	0	5,829413	3,389315	2,17575	308,8836	0,719	83,183	0	1016,1	7,7	9,6	9,2	1	1	1	1	1	1	1	1	1	0	1	-6,342495	274,730979	316,665738	0
15.01.2021	16:20:42	0	5,948423	4,406083	2,15325	316,26	0,713	83,176	0	1016,2	7,7	9,5	9,3	1	1	1	1	1	1	1	1	1	0	1	-13,319239	274,853175	310,264054	0
15.01.2021	16:20:43	0	5,472549	2,711436	2,0715	314,802	0,715	83,17	0	1016,04	7,7	9,5	9,3	1	1	1	1	1	1	1	1	1	0	1	-6,8358	274,77111	316,361208	0
15.01.2021	16:20:44	0	5,948423	3,728224	2,055	325,1916	0,717	83,193	0	1016,08	7,7	9,5	9,3	1	1	1	1	1	1	1	1	1	0	1	-10,641297	274,85783	312,963921	0
15.01.2021	16:20:45	0	5,948381	3,954177	2,08425	317,3652	0,719	83,18	0	1016,08	7,7	9,6	9,3	1	1	1	1	1	1	1	1	1	0	1	-11,768851	274,77111	311,428157	0
15.01.2021	16:20:46	0	5,710446	3,389295	2,17725	330,7392	0,718	83,187	0	1016	7,7	9,6	9,3	1	1	1	1	1	1	1	1	1	0	1	-8,033827	274,704784	314,851233	0
15.01.2021	16:20:47	0	5,710446	3,502271	2,16225	315,8928	0,719	83,188	0	1016,04	7,7	9,6	9,3	1	1	1	1	1	1	1	1	1	0	1	-8,80902	274,803585	314,540806	0
15.01.2021	16:20:48	0	5,948381	3,728224	2,07525	338,6808	0,721	83,187	0	1016,22	7,7	9,6	9,3	1	1	1	1	1	1	1	1	1	0	1	-6,765328	274,667863	315,946183	0
15.01.2021	16:20:49	0	5,591478	4,51906	1,95825	324,3564	0,711	83,181	0	1016	7,7	9,6	9,3	1	1	1	1	1	1	1	1	1	0	1	-8,80902	274,811325	314,577238	0
15.01.2021	16:20:50	0	6,067391	3,615248	1,9095	335,034	0,721	83,198	0	1016,14	7,7	9,5	9,3	1	1	1	1	1	1	1	1	1	0	1	-10,359408	274,707864	312,540132	0
15.01.2021	16:20:51	0	5,591478	2,25953	1,908	327,1248	0,722	83,185	0	1016	7,7	9,6	9,3	1	1	1	1	1	1	1	1	1	0	1	-7,329105	274,684777	315,461899	0
15.01.2021	16:20:52	0	5,829454	3,954177	1,791	318,7908	0,716	83,183	0	1016,12	7,7	9,5	9,3	1	1	1	1	1	1	1	1	1	0	1	-10,359408	274,798942	312,968569	0
15.01.2021	16:20:53	0	5,591478	3,615248	1,665	302,4	0,714	83,19	0	1016,06	7,7	9,6	9,3	1	1	1	1	1	1	1	1	1	0	1	-9,372798	274,657108	313,28817	0
15.01.2021	16:20:54	0	5,829413	4,745013	1,63275	303,4836	0,713	83,189	0	1016,08	7,7	9,6	9,3	1	1	1	1	1	1	1	1	1	0	1	-9,866103	274,81597	313,542023	0
15.01.2021	16:20:55	0	5,47251	2,711452	1,57875	319,6512	0,717	83,191	0	1016,04	7,7	9,6	9,2	1	1	1	1	1	1	1	1	1	0	1	-9,584214	274,851623	313,991772	0
15.01.2021	16:20:56	0	5,829413	4,632036	1,5555	297,9036	0,715	83,202	0	1016,1	7,7	9,6	9,3	1	1	1	1	1	1	1	1	1	0	1	-11,627907	274,764931	311,540028	0
15.01.2021	16:20:57	0	5,591478	3,163342	1,5405	316,62	0,715	83,191	0	1016,08	7,7	9,6	9,3	1	1	1	1	1	1	1	1	1	0	1	-9,866103	274,709404	313,040678	0
15.01.2021	16:20:58	0	5,829413	2,485483	1,4565	332,0856	0,715	83,199	0	1016,04	7,7	9,6	9,3	1	1	1	1	1	1	1	1	1	0	1	-7,681466	274,836114	315,821491	0
15.01.2021	16:20:59	0	5,948423	3,841201	1,458	316,6488	0,709	83,19	0	1016,2	7,7	9,5	9,3	1	1	1	1	1	1	1	1	1	0	1	-10,42988	274,740232	312,621874	0
15.01.2021	16:21:00	0	5,829413	4,857989	1,4325	327,8016	0,714	83,2	0	1016,14	7,7	9,6	9,3	1	1	1	1	1	1	1	1	1	0	1	-8,386187	274,850072	315,182493	0
15.01.2021	16:21:01	0	5,829413	4,857989	1,4325	327,8016	0,714	83,2	0	1016,14	7,7	9,6	9,3	1	1	1	1	1	1	1	1	1	0	1	-9,795631	274,834564	313,700027	0
15.01.2021	16:21:02	0	5,591478	2,824412	1,497	311,346	0,718	83,21	0	1016,1	7,6	9,6	9,3	1	1	1	1	1	1	1	1	1	0	1	-7,047216	274,811325	316,339042	0
15.01.2021	16:21:03	0	5,591478	3,954177	1,5615	318,8484	0,718	83,201	0	1016,08	7,7	9,6	9,3	1	1	1	1	1	1	1	1	1	0	1	-13,389711	274,670938	309,336247	0
15.01.2021	16:21:04	0	5,591478	3,502271	1,59825	323,6436	0,714	83,209	0	1015,88	7,7	9,6	9,3	1	1	1	1	1	1	1	1	1	0	1	-9,513742	274,694008	313,320657	0
15.01.2021	16:21:05	0	5,353543	2,146553	1,59375	303,2604	0,717	83,178	0	1015,92	7,7	9,6	9,3	1	1	1	1	1	1	1	1	1	0	1	-6,624383	274,684777	316,166621	0
15.01.2021	16:21:06	0	5,710446	4,406083	1,509	285,8364	0,716	83,188	0	1016,08	7,6	9,6	9,3	1	1	1	1	1	1	1	1	1	0	1	-8,033827	274,803585	315,316	0
15.01.2021	16:21:07	0	5,353543	4,406083	1,51575	315,54	0,715	83,197	0	1016,08	7,7	9,6	9,3	1	1	1	1	1	1	1	1	1	0	1	-10,993658	274,715566	311,942096	0
15.01.2021	16:21:08	0	5,710486	3,841201	1,51275	336,9924	0,718	83,188	0	1016,04	7,7	9,5	9,3	1	1	1	1	1	1	1	1	1	0	1	-11,768851	274,717106	311,174147	0
15.01.2021	16:21:09	0	5,591478	4,970966	1,47	329,6412	0,717	83,203	0	1016,1	7,7	9,6	9,3	1	1	1	1	1	1	1	1	1	0	1	-9,231853	274,853175	314,351439	0
15.01.2021	16:21:10	0	5,829413	4,745013	1,431	327,384	0,711	83,195	0	1016,12	7,7	9,6	9,3	1	1	1	1	1	1	1	1	1	0	1	-9,302326	274,772655	313,901952	0
15.01.2021	16:21:11	0	5,47251	3,276318	1,5135	355,0212	0,712	83,184	0	1016,06	7,7	9,6	9,3	1	1	1	1	1	1	1	1	1	0	1	-6,8358	274,6817	315,940745	0
15.01.2021	16:21:12	0	5,710486	3,841201	1,50225	331,9884	0,715	83,201	0	1016,1	7,7	9,5	9,3	1	1	1	1	1	1	1	1	1	0	1	-8,738548	274,718647	314,211696	0
15.01.2021	16:21:13	0	5,472549	2,824412	1,446	333,4752	0,715	83,193	0	1016,08	7,7	9,5	9,3	1	1	1	1	1	1	1	1	1	0	1	-5,990134	274,84852	317,571241	0
15.01.2021	16:21:14	0	6,067349	4,51906	1,38075	347,6664	0,714	83,192	0	1016,08	7,6	9,6	9,3	1	1	1	1	1	1	1	1	1	0	1	-9,513742	274,812873	313,879805	0
15.01.2021	16:21:15	0	5,948423	4,632036	1,335	330,1056	0,712	83,19	0	1016,08	7,7	9,5	9,3	1	1	1	1	1	1	1	1	1	0	1	-7,188161	274,843867	316,351302	0
15.01.2021	16:21:16	0	5,710446	3,389295	1,3485	338,7996	0,712	83,188	0	1016,02	7,7	9,6	9,3	1	1	1	1	1	1	1	1	1	0	1	-7,540521	274,707864	315,359018	0
15.01.2021	16:21:17	0	5,710446	4,293107	1,326	335,7612	0,715	83,194	0	1016,02	7,7	9,6	9,3	1	1	1	1	1	1	1	1	1	0	1	-8,033827	274,729437	314,967155	0
15.01.2021	16:21:18	0	5,591478	4,857989	1,3665	325,206	0,712	83,189	0	1016,02	7,7	9,6	9,3	1	1	1	1	1	1	1	1	1	0	1	-12,403101	274,865592	311,238672	0
15.01.2021	16:21:19	0	5,472549	4,293107	1,3155	330,3612	0,712	83,19	0	1016,1	7,7	9,5	9,3	1	1	1	1	1	1	1	1	1	0	1	-7,963354	274,814422	315,437481	0
15.01.2021	16:21:20	0	5,710486	2,598459	1,3185	329,3208	0,714	83,18	0	1016,1	7,6	9,5	9,3	1	1	1	1	1	1	1	1	1	0	1	-7,892882	274,726354	315,0936	0
15.01.2021	16:21:21	0	5,47251	3,163342	1,368	329,616	0,714	83,185	0	1016,08	7,6	9,6	9,3	1	1	1	1	1	1	1	1	1	0	1	-11,346018	274,677087	311,408842	0
15.01.2021	16:21:22	0	5,47251	2,598459	1,461	306,1692	0,714	83,183	0	1016	7,7	9,6	9,3	1	1	1	1	1	1	1	1	1	0	1	-5,003524	274,798942	318,324453	0
15.01.2021	16:21:23	0	5,948381	4,632036	1,47375	330,0696	0,708	83,174	0	1016,22	7,7	9,6	9,3	1	1	1	1	1	1	1	1	1	0	1	-6,553911	274,678625	316,208176	0
15.01.2021	16:21:24	0	5,591478	2,711436	1,4805	333,2412	0,714	83,183	0	1016,12	7,7	9,6	9,3	1	1	1	1	1	1	1	1	1	0	1	-11,768851	274,737147	311,268393	0
15.01.2021	16:21:25	0	5,591517	4,293107	1,53525	321,4908	0,711	83,175	0	1016,02	7,7	9,5	9,3	1	1	1	1	1	1	1	1	1	0	1	-6,131078	274,859383	317,481449	0
15.01.2021	16:21:26	0	5,353543	2,711436	1,54875	330,7248	0,71	83,184	0	1016,14	7,6	9,6	9,3	1	1	1	1	1	1	1	1	1	0	1	-9,936575	274,683238	312,847199	0
15.01.2021	16:21:27	0	5,829413	4,406083	1,55625	334,872	0,714	83,184	0	1016,2	7,7	9,6	9,3	1	1	1	1	1	1	1	1	1	0	1	-6,8358	274,817519	316,579616	0
15.01.2021	16:21:28	0	5,829413	4,18013	1,6695	346,4712	0,713	83,192	0	1015,96	7,7	9,6	9,3	1	1	1	1	1	1	1	1	1	0	1	-7,188161	274,6817	315,588384	0
15.01.2021	16:21:29	0	5,829413	3,728224	1,79175	339,12	0,714	83,191	0	1016,12	7,7	9,6	9,3	1	1	1	1	1	1	1	1	1	0	1	-7,470049	274,706324	315,42225	0
15.01.2021	16:21:30	0	5,948381	4,51906	1,9425	326,754	0,713	83,183	0	1016,1	7,6	9,6	9,3	1	1	1	1	1	1	1	1	1	0	1	-8,45666	274,85783	315,148558	0
15.01.2021	16:21:31	0	5,710446	4,745013	2,06775	334,2132	0,711	83,176	0	1015,92	7,7	9,6	9,3	1	1	1	1	1	1	1	1	1	0	1	-8,45666	274,700165	314,406684	0
15.01.2021	16:21:32	0	5,234612	3,050365	2,3265	338,7456	0,716	83,185	0	1016,1	7,7	9,5	9,3	1	1	1	1	1	1	1	1	1	0	1	-11,346018	274,846969	312,208052	0
15.01.2021	16:21:33	0	5,710446	4,067154	2,47575	338,0508	0,707	83,183	0	1016,12	7,7	9,6	9,3	1	1	1	1	1	1	1	1	1	0	1	-11,698379	274,707864	311,201161	0
15.01.2021	16:21:34	0	5,591478	4,18013	2,50425	337,968	0,707	83,169	0	1016,14	7,7	9,6	9,3	1	1	1	1	1	1	1	1	1	0	1	-9,936575	274,6817	312,839969	0
15.01.2021	16:21:35	0	5,234575	2,937389	2,427	333,4932	0,709	83,179	0	1016,2	7,7	9,6	9,3	1	1	1	1	1	1	1	1	1	0	1	-6,553911	274,80668	316,810486	0
15.01.2021	16:21:36	0	5,353543	2,711436	2,40375	330,7932	0,71	83,189	0	1016,08	7,7	9,6	9,3	1	1	1	1	1	1	1	1	1	0	1	-9,302326	274,657108	313,358642	0
15.01.2021	16:21:37	0	5,353543	3,163342	2,418	342,3924	0,711	83,172	0	1016,1	7,7	9,6	9,3	1	1	1	1	1	1	1	1	1	0	1	-4,157858	274,684777	318,633146	0
15.01.2021	16:21:38	0	5,948381	2,711436	2,32425	331,2612	0,711	83,19	0	1016,18	7,7	9,6	9,3	1	1	1	1	1	1	1	1	1	0	1	-8,315715	274,717106	314,627283	0
15.01.2021	16:21:39	0	5,47251	4,293107	2,1705	332,8884	0,706	83,184	0	1016,08	7,7	9,6	9,3	1	1	1	1	1	1	1	1	1	0	1	-7,892882	274,842316	315,639278	0
15.01.2021	16:21:40	0	5,710446	3,841201	2,187	338,3532	0,704	83,177	0	1016	7,6	9,6	9,3	1	1	1	1	1	1	1	1	1	0	1	-6,8358	274,720188	316,12169	0
15.01.2021	16:21:41	0	5,710446	3,163342	2,21025	340,2036	0,707	83,188	0	1016,18	7,7	9,6	9,3	1	1	1	1	1	1	1	1	1	0	1	-9,372798	274,718647	313,577446	0
15.01.2021	16:21:42	0	5,710446	3,163342	2,232	343,1592	0,707	83,189	0	1016,08	7,7	9,6	9,3	1	1	1	1	1	1	1	1	1	0	1	-11,134602	274,839215	312,382955	0
15.01.2021	16:21:43	0	5,353543	2,598459	2,3445	325,9836	0,707	83,183	0	1016,06	7,7	9,6	9,3	1	1	1	1	1	1	1	1	1	0	1	-9,302326	274,786567	313,967415	0
15.01.2021	16:21:44	0	5,115608	2,598459	2,45625	319,1868	0,707	83,197	0	1016,04	7,7	9,6	9,3	1	1	1	1	1	1	1	1	1	0	1	-11,768851	274,851623	311,807135	0
15.01.2021	16:21:45	0	5,829413	4,857989	2,382	314,9028	0,709	83,191	0	1015,98	7,7	9,6	9,3	1	1	1	1	1	1	1	1	1	0	1	-11,06413	274,76802	312,11834	0
15.01.2021	16:21:46	0	5,234575	2,033577	2,30025	330,8076	0,705	83,186	0	1015,98	7,7	9,6	9,3	1	1	1	1	1	1	1	1	1	0	1	-10,711769	274,842316	312,820391	0
15.01.2021	16:21:47	0	5,710446	4,857989	2,13225	324,4176	0,708	83,184	0	1016,3	7,6	9,6	9,3	1	1	1	1	1	1	1	1	1	0	1	-7,258633	274,775746	315,960187	0
15.01.2021	16:21:48	0	5,710446	4,067154	2,1225	310,7052	0,71	83,193	0	1016,04	7,7	9,6	9,3	1	1	1	1	1	1	1	1	1	0	1	-10,500352	274,854727	313,090248	0
15.01.2021	16:21:49	0	5,591478	2,824412	2,22075	315,198	0,71	83,183	0	1016,16	7,6	9,6	9,3	1	1	1	1	1	1	1	1	1	0	1	-7,610994	274,672475	315,122189	0
15.01.2021	16:21:50	0	5,591478	3,954177	2,28225	324,6228	0,708	83,182	0	1016,06	7,7	9,6	9,3	1	1	1	1	1	1	1	1	1	0	1	-13,6716	274,819068	309,751107	0
15.01.2021	16:21:51	0	5,47251	4,067154	2,23125	315,54	0,714	83,21	0	1016,14	7,6	9,6	9,3	1	1	1	1	1	1	1	1	1	0	1	-11,346018	274,694008	311,488381	0
15.01.2021	16:21:52	0	5,47251	3,050365	2,121	333,7992	0,713	83,196	0	1016,06	7,6	9,6	9,3	1	1	1	1	1	1	1	1	1	0	1	-7,047216	274,701705	315,823365	0
15.01.2021	16:21:53	0	5,353543	3,163342	2,034	339,1596	0,708	83,188	0	1015,94	7,7	9,6	9,3	1	1	1	1	1	1	1	1	1	0	1	-5,919662	274,84852	317,641713	0
15.01.2021	16:21:54	0	5,353543	4,745013	1,94625	332,8092	0,707	83,185	0	1016	7,6	9,6	9,3	1	1	1	1	1	1	1	1	1	0	1	-10,218464	274,755665	312,905882	0
15.01.2021	16:21:55	0	5,115608	2,711436	1,9425	333,4824	0,706	83,188	0	1016,02	7,6	9,6	9,3	1	1	1	1	1	1	1	1	1	0	1	-9,513742	274,672475	313,21944	0
15.01.2021	16:21:56	0	5,47251	2,598459	1,83	343,9692	0,705	83,192	0	1015,94	7,6	9,6	9,3	1	1	1	1	1	1	1	1	1	0	1	-8,668076	274,732521	314,347409	0
15.01.2021	16:21:57	0	5,829413	4,51906	1,716	339,4692	0,702	83,186	0	1016,06	7,6	9,6	9,3	1	1	1	1	1	1	1	1	1	0	1	-9,302326	274,674012	313,438082	0
15.01.2021	16:21:58	0	5,710446	4,18013	1,61475	327,4992	0,705	83,195	0	1016,12	7,7	9,6	9,3	1	1	1	1	1	1	1	1	1	0	1	-10,218464	274,803585	313,131363	0
15.01.2021	16:21:59	0	5,591517	3,728224	1,599	322,2144	0,71	83,198	0	1016,08	7,7	9,5	9,3	1	1	1	1	1	1	1	1	1	0	1	-6,694856	274,678625	316,067232	0
15.01.2021	16:22:00	0	5,710446	3,841201	1,9245	337,1904	0,71	83,199	0	1016,08	7,7	9,6	9,3	1	1	1	1	1	1	1	1	1	0	1	-9,372798	274,704784	313,512262	0
15.01.2021	16:22:01	0	5,710446	3,841201	1,9245	337,1904	0,71	83,199	0	1016,08	7,7	9,6	9,3	1	1	1	1	1	1	1	1	1	0	1	-9,725159	274,843867	313,814304	0
15.01.2021	16:22:02	0	5,353543	3,050365	2,0625	327,5028	0,705	83,199	0	1016,12	7,6	9,6	9,3	1	1	1	1	1	1	1	1	1	0	1	-7,963354	274,727895	315,030377	0
15.01.2021	16:22:03	0	5,47251	4,632036	2,061	329,7276	0,709	83,211	0	1016,22	7,6	9,6	9,3	1	1	1	1	1	1	1	1	1	0	1	-9,725159	274,854727	313,865442	0
15.01.2021	16:22:04	0	5,234575	2,598459	2,07	307,1988	0,712	83,206	0	1016,12	7,6	9,6	9,3	1	1	1	1	1	1	1	1	1	0	1	-7,470049	274,843867	316,069413	0
15.01.2021	16:22:05	0	5,829413	4,51906	2,043	320,0004	0,704	83,185	0	1015,96	7,7	9,6	9,3	1	1	1	1	1	1	1	1	1	0	1	-12,825934	274,828364	310,640536	0
15.01.2021	16:22:06	0	5,47251	3,615248	1,98225	327,24	0,711	83,202	0	1016,14	7,7	9,6	9,3	1	1	1	1	1	1	1	1	1	0	1	-7,892882	274,84852	315,668492	0
15.01.2021	16:22:07	0	5,591478	3,841201	1,97775	321,8328	0,711	83,197	0	1016,08	7,7	9,6	9,3	1	1	1	1	1	1	1	1	1	0	1	-11,627907	274,700165	311,235437	0
15.01.2021	16:22:08	0	5,353543	3,502271	2,106	319,5396	0,706	83,202	0	1016,12	7,6	9,6	9,3	1	1	1	1	1	1	1	1	1	0	1	-5,990134	274,680162	316,779182	0
15.01.2021	16:22:09	0	4,877672	2,824412	2,11425	320,3964	0,705	83,209	0	1016,14	7,6	9,6	9,3	1	1	1	1	1	1	1	1	1	0	1	-8,80902	274,729437	314,191962	0
15.01.2021	16:22:10	0	5,234575	3,276318	2,14575	309,2724	0,706	83,193	0	1016,14	7,6	9,6	9,3	1	1	1	1	1	1	1	1	1	0	1	-6,976744	274,846969	316,577326	0
15.01.2021	16:22:11	0	5,115608	2,372506	2,36025	309,5532	0,709	83,196	0	1016,18	7,6	9,6	9,3	1	1	1	1	1	1	1	1	1	0	1	-10,852713	274,714025	312,075796	0
15.01.2021	16:22:12	0	5,353543	4,18013	2,6355	321,9228	0,711	83,203	0	1016,18	7,6	9,6	9,3	1	1	1	1	1	1	1	1	1	0	1	-5,990134	274,686315	316,808101	0
15.01.2021	16:22:13	0	5,591478	3,502271	2,655	316,26	0,71	83,198	0	1016,1	7,6	9,6	9,3	1	1	1	1	1	1	1	1	1	0	1	-5,637773	274,84852	317,923602	0
15.01.2021	16:22:14	0	5,47251	2,824412	2,71875	320,0112	0,706	83,189	0	1016,16	7,7	9,6	9,3	1	1	1	1	1	1	1	1	1	0	1	-8,527132	274,778837	314,706233	0
15.01.2021	16:22:15	0	5,591478	4,067154	2,76225	316,6308	0,705	83,205	0	1016,24	7,6	9,6	9,3	1	1	1	1	1	1	1	1	1	0	1	-9,44327	274,839215	314,074287	0
15.01.2021	16:22:16	0	5,353543	3,389295	2,71875	310,7088	0,703	83,183	0	1015,98	7,7	9,6	9,3	1	1	1	1	1	1	1	1	1	0	1	-12,403101	274,73869	310,641398	0
15.01.2021	16:22:17	0	5,115608	3,163342	2,66325	318,204	0,707	83,19	0	1015,92	7,6	9,6	9,3	1	1	1	1	1	1	1	1	1	0	1	-12,332629	274,675549	310,415005	0
15.01.2021	16:22:18	0	5,353543	4,293107	2,5515	315,5544	0,703	83,183	0	1016,04	7,8	9,6	9,3	1	1	1	1	1	1	1	1	1	0	1	-9,161381	274,81597	314,246744	0
15.01.2021	16:22:19	0	5,47251	3,050365	2,466	322,0488	0,704	83,191	0	1016,1	7,6	9,6	9,3	1	1	1	1	1	1	1	1	1	0	1	-7,188161	274,663253	315,501685	0
15.01.2021	16:22:20	0	5,47251	4,067154	2,427	315,9216	0,703	83,179	0	1016,02	7,6	9,6	9,3	1	1	1	1	1	1	1	1	1	0	1	-8,104299	274,780383	315,13634	0
15.01.2021	16:22:21	0	4,99664	2,25953	2,36025	316,674	0,708	83,185	0	1016,18	7,6	9,6	9,3	1	1	1	1	1	1	1	1	1	0	1	-10,641297	274,667863	312,070214	0
15.01.2021	16:22:22	0	5,234575	2,824412	2,35875	315,4932	0,703	83,183	0	1016,1	7,6	9,6	9,3	1	1	1	1	1	1	1	1	1	0	1	-10,147992	274,714025	312,780518	0
15.01.2021	16:22:23	0	5,234575	3,728224	2,463	322,2036	0,706	83,171	0	1016,1	7,7	9,6	9,3	1	1	1	1	1	1	1	1	1	0	1	-9,44327	274,660181	313,232135	0
15.01.2021	16:22:24	0	5,948381	4,745013	2,63175	327,8052	0,704	83,178	0	1016,1	7,7	9,6	9,3	1	1	1	1	1	1	1	1	1	0	1	-8,45666	274,714025	314,47185	0
15.01.2021	16:22:25	0	5,591478	4,067154	2,6625	324,4212	0,701	83,171	0	1015,98	7,7	9,6	9,3	1	1	1	1	1	1	1	1	1	0	1	-10,500352	274,829914	312,973413	0
15.01.2021	16:22:26	0	5,47251	2,824412	2,6805	329,6916	0,701	83,193	0	1016,16	7,7	9,6	9,3	1	1	1	1	1	1	1	1	1	0	1	-12,825934	274,695547	310,015701	0
15.01.2021	16:22:27	0	5,353543	2,485483	2,6265	321,5268	0,694	83,172	0	1016,02	7,6	9,6	9,3	1	1	1	1	1	1	1	1	1	0	1	-12,614517	274,81597	310,793608	0
15.01.2021	16:22:28	0	5,353543	3,502271	2,53425	318,4416	0,7	83,182	0	1016,18	7,6	9,6	9,3	1	1	1	1	1	1	1	1	1	0	1	-8,597604	274,817519	314,817812	0
15.01.2021	16:22:29	0	5,47251	4,857989	2,42475	324,7416	0,7	83,176	0	1015,94	7,7	9,6	9,3	1	1	1	1	1	1	1	1	1	0	1	-7,329105	274,695547	315,51253	0
15.01.2021	16:22:30	0	5,47251	4,293107	2,337	312,4764	0,703	83,159	0	1015,92	7,6	9,6	9,3	1	1	1	1	1	1	1	1	1	0	1	-11,41649	274,81597	311,991635	0
15.01.2021	16:22:31	0	5,47251	4,067154	2,253	317,3832	0,701	83,179	0	1016,14	7,7	9,6	9,3	1	1	1	1	1	1	1	1	1	0	1	-9,161381	274,712485	313,759885	0
15.01.2021	16:22:32	0	5,115608	3,502271	2,1705	327,708	0,698	83,153	0	1016,06	7,6	9,6	9,3	1	1	1	1	1	1	1	1	1	0	1	-5,637773	274,650965	316,994328	0
15.01.2021	16:22:33	0	5,353543	3,163342	2,07075	329,3424	0,695	83,154	0	1015,96	7,7	9,6	9,3	1	1	1	1	1	1	1	1	1	0	1	-10,711769	274,729437	312,289213	0
15.01.2021	16:22:34	0	5,591478	4,293107	1,95525	338,7564	0,697	83,171	0	1016,12	7,6	9,6	9,3	1	1	1	1	1	1	1	1	1	0	1	-9,654686	274,836114	313,848271	0
15.01.2021	16:22:35	0	5,234575	2,824412	1,85625	327,9132	0,699	83,162	0	1016	7,7	9,6	9,3	1	1	1	1	1	1	1	1	1	0	1	-7,681466	274,755665	315,44288	0
15.01.2021	16:22:36	0	5,115608	2,598459	1,85025	324,108	0,698	83,166	0	1016,12	7,6	9,6	9,3	1	1	1	1	1	1	1	1	1	0	1	-7,399577	274,678625	315,36251	0
15.01.2021	16:22:37	0	5,47251	3,050365	1,84575	336,0636	0,693	83,164	0	1016,02	7,6	9,6	9,3	1	1	1	1	1	1	1	1	1	0	1	-10,218464	274,794301	313,087669	0
15.01.2021	16:22:38	0	5,47251	4,970966	1,902	348,6564	0,694	83,177	0	1015,96	7,6	9,6	9,3	1	1	1	1	1	1	1	1	1	0	1	-6,976744	274,836114	316,526213	0
15.01.2021	16:22:39	0	5,234575	4,18013	1,959	336,8052	0,696	83,159	0	1016,06	7,6	9,6	9,3	1	1	1	1	1	1	1	1	1	0	1	-14,65821	274,811325	308,728048	0
15.01.2021	16:22:40	0	5,353543	2,711436	1,9575	330,3108	0,699	83,16	0	1015,94	7,7	9,6	9,3	1	1	1	1	1	1	1	1	1	0	1	-8,386187	274,654036	314,260346	0
15.01.2021	16:22:41	0	5,115608	2,598459	1,91925	329,6484	0,706	83,168	0	1016,16	7,6	9,6	9,3	1	1	1	1	1	1	1	1	1	0	1	-9,513742	274,791207	313,777831	0
15.01.2021	16:22:42	0	5,353543	2,711436	1,836	326,7216	0,699	83,176	0	1016,08	7,6	9,6	9,3	1	1	1	1	1	1	1	1	1	0	1	-4,369274	274,707864	318,530266	0
15.01.2021	16:22:43	0	5,591478	4,067154	1,8375	318,2112	0,696	83,177	0	1016,18	7,7	9,6	9,3	1	1	1	1	1	1	1	1	1	0	1	-4,016913	274,654036	318,62962	0
15.01.2021	16:22:44	0	5,47251	2,824412	1,887	325,1628	0,699	83,175	0	1016,16	7,6	9,6	9,3	1	1	1	1	1	1	1	1	1	0	1	-9,44327	274,775746	313,77555	0
15.01.2021	16:22:45	0	5,591478	3,615248	1,9065	322,6068	0,701	83,157	0	1016,14	7,7	9,6	9,3	1	1	1	1	1	1	1	1	1	0	1	-13,389711	274,833013	310,098649	0
15.01.2021	16:22:46	0	5,47251	3,615248	1,848	326,4012	0,703	83,17	0	1016,16	7,6	9,6	9,3	1	1	1	1	1	1	1	1	1	0	1	-7,470049	274,734063	315,552688	0
15.01.2021	16:22:47	0	5,115608	4,18013	1,98225	320,058	0,696	83,175	0	1016,16	7,6	9,6	9,3	1	1	1	1	1	1	1	1	1	0	1	-8,597604	274,839215	314,919953	0
15.01.2021	16:22:48	0	5,829413	4,406083	2,16225	327,186	0,69	83,15	0	1016,04	7,6	9,6	9,3	1	1	1	1	1	1	1	1	1	0	1	-5,778717	274,743318	317,28755	0
15.01.2021	16:22:49	0	5,234575	4,293107	2,29575	325,9692	0,696	83,161	0	1016,16	7,6	9,6	9,3	1	1	1	1	1	1	1	1	1	0	1	-3,805497	274,837664	319,70476	0
15.01.2021	16:22:50	0	5,47251	3,615248	2,39325	322,2072	0,697	83,155	0	1016,1	7,7	9,6	9,3	1	1	1	1	1	1	1	1	1	0	1	-6,8358	274,692469	315,991365	0
15.01.2021	16:22:51	0	5,47251	3,728224	2,36025	329,7276	0,693	83,155	0	1016,04	7,7	9,6	9,3	1	1	1	1	1	1	1	1	1	0	1	-6,20155	274,712485	316,719716	0
15.01.2021	16:22:52	0	5,47251	2,711436	2,28675	326,0196	0,695	83,16	0	1016,24	7,7	9,6	9,3	1	1	1	1	1	1	1	1	1	0	1	-7,117689	274,726354	315,868793	0
15.01.2021	16:22:53	0	5,591517	4,406083	2,22	315,9216	0,7	83,166	0	1016,12	7,8	9,5	9,3	1	1	1	1	1	1	1	1	1	0	1	-10,288936	274,843867	313,250527	0
15.01.2021	16:22:54	0	5,353543	2,937389	2,14875	317,79	0,699	83,151	0	1016,1	7,6	9,6	9,3	1	1	1	1	1	1	1	1	1	0	1	-9,020437	274,717106	313,922561	0
15.01.2021	16:22:55	0	5,115608	3,163342	2,067	321,2244	0,696	83,165	0	1016,04	7,6	9,6	9,3	1	1	1	1	1	1	1	1	1	0	1	-7,82241	274,683238	314,961364	0
15.01.2021	16:22:56	0	5,47251	4,745013	2,04075	331,1316	0,7	83,155	0	1016,12	7,6	9,6	9,3	1	1	1	1	1	1	1	1	1	0	1	-8,245243	274,809776	315,133727	0
15.01.2021	16:22:57	0	5,47251	4,18013	2,046	332,7984	0,69	83,137	0	1016,12	7,7	9,6	9,3	1	1	1	1	1	1	1	1	1	0	1	-9,090909	274,666327	313,613379	0
15.01.2021	16:22:58	0	5,472549	4,293107	2,28825	316,98	0,694	83,148	0	1016,14	7,7	9,5	9,3	1	1	1	1	1	1	1	1	1	0	1	-9,020437	274,730979	313,987796	0
15.01.2021	16:22:59	0	5,353543	2,598459	2,4255	351,378	0,698	83,154	0	1016,12	7,8	9,6	9,3	1	1	1	1	1	1	1	1	1	0	1	-10,007047	274,826814	313,452127	0
15.01.2021	16:23:00	0	5,47251	4,293107	2,307	333,8496	0,699	83,154	0	1016,06	7,7	9,6	9,3	1	1	1	1	1	1	1	1	1	0	1	-7,399577	274,743318	315,66669	0
15.01.2021	16:23:01	0	5,47251	4,293107	2,307	333,8496	0,699	83,154	0	1016,06	7,7	9,6	9,3	1	1	1	1	1	1	1	1	1	0	1	-6,906272	274,652501	315,733045	0
15.01.2021	16:23:02	0	5,591517	4,51906	2,28	336,3876	0,691	83,152	0	1016,14	7,7	9,5	9,3	1	1	1	1	1	1	1	1	1	0	1	-9,795631	274,792754	313,503222	0
15.01.2021	16:23:03	0	5,47251	4,406083	2,20425	337,158	0,697	83,149	0	1016,06	7,7	9,6	9,3	1	1	1	1	1	1	1	1	1	0	1	-8,45666	274,831463	315,024403	0
15.01.2021	16:23:04	0	5,591517	4,745013	2,01975	307,2024	0,693	83,148	0	1016,08	7,7	9,5	9,3	1	1	1	1	1	1	1	1	1	0	1	-8,033827	274,805132	315,323285	0
15.01.2021	16:23:05	0	5,47251	2,824412	2,0505	316,3068	0,69	83,137	0	1016,1	7,6	9,6	9,3	1	1	1	1	1	1	1	1	1	0	1	-8,879493	274,677087	313,875368	0
15.01.2021	16:23:06	0	5,234612	4,745013	2,30325	305,496	0,694	83,135	0	1016,02	7,7	9,5	9,3	1	1	1	1	1	1	1	1	1	0	1	-10,500352	274,81597	312,907773	0
15.01.2021	16:23:07	0	5,710446	4,745013	2,64225	308,0772	0,693	83,148	0	1016,16	7,6	9,6	9,3	1	1	1	1	1	1	1	1	1	0	1	-8,245243	274,680162	314,524073	0
15.01.2021	16:23:08	0	5,234575	4,632036	2,7585	318,1464	0,696	83,125	0	1016,1	7,7	9,6	9,3	1	1	1	1	1	1	1	1	1	0	1	-11,205074	274,66479	311,491992	0
15.01.2021	16:23:09	0	5,353543	3,728224	2,853	312,894	0,694	83,141	0	1016,16	7,6	9,6	9,3	1	1	1	1	1	1	1	1	1	0	1	-9,725159	274,761842	313,428244	0
15.01.2021	16:23:10	0	5,591478	4,067154	2,826	326,0736	0,684	83,142	0	1016	7,7	9,6	9,3	1	1	1	1	1	1	1	1	1	0	1	-7,399577	274,783475	315,855611	0
15.01.2021	16:23:11	0	5,353543	3,502271	2,838	333,4644	0,698	83,144	0	1016,04	7,6	9,6	9,3	1	1	1	1	1	1	1	1	1	0	1	-7,963354	274,660181	314,712051	0
15.01.2021	16:23:12	0	5,234575	2,937389	2,82375	329,58	0,692	83,123	0	1016,12	7,7	9,6	9,3	1	1	1	1	1	1	1	1	1	0	1	-10,147992	274,757209	312,983618	0
15.01.2021	16:23:13	0	5,47251	4,745013	2,8065	336,132	0,694	83,138	0	1016,12	7,7	9,6	9,3	1	1	1	1	1	1	1	1	1	0	1	-8,80902	274,837664	314,701236	0
15.01.2021	16:23:14	0	4,996675	2,598459	2,91225	329,4792	0,687	83,117	0	1016	7,7	9,5	9,3	1	1	1	1	1	1	1	1	1	0	1	-5,84919	274,783475	317,405998	0
15.01.2021	16:23:15	0	5,115643	2,937389	3,06225	319,5036	0,697	83,149	0	1016,18	7,7	9,5	9,3	1	1	1	1	1	1	1	1	1	0	1	-9,231853	274,851623	314,344133	0
15.01.2021	16:23:16	0	5,47251	3,728224	3,1365	328,9068	0,688	83,132	0	1016	7,7	9,6	9,3	1	1	1	1	1	1	1	1	1	0	1	-6,694856	274,785021	316,567608	0
15.01.2021	16:23:17	0	5,234612	2,937389	3,1005	323,28	0,694	83,143	0	1016,14	7,6	9,5	9,3	1	1	1	1	1	1	1	1	1	0	1	-6,272023	274,833013	317,216337	0
15.01.2021	16:23:18	0	5,115608	3,389295	3,08625	321,0948	0,692	83,152	0	1016,2	7,6	9,6	9,3	1	1	1	1	1	1	1	1	1	0	1	-12,121212	274,80668	311,243185	0
15.01.2021	16:23:19	0	5,591478	2,824412	3,03525	325,9404	0,691	83,149	0	1016,06	7,7	9,6	9,3	1	1	1	1	1	1	1	1	1	0	1	-8,879493	274,692469	313,947673	0
15.01.2021	16:23:20	0	4,99664	3,841201	2,9355	324,3744	0,693	83,142	0	1016,12	7,7	9,6	9,3	1	1	1	1	1	1	1	1	1	0	1	-12,403101	274,777291	310,822992	0
15.01.2021	16:23:21	0	5,47251	4,632036	3,0375	327,1716	0,694	83,133	0	1016,2	7,6	9,6	9,3	1	1	1	1	1	1	1	1	1	0	1	-9,654686	274,674012	313,085721	0
15.01.2021	16:23:22	0	5,47251	2,937389	3,00675	322,9848	0,693	83,134	0	1016,2	7,7	9,6	9,3	1	1	1	1	1	1	1	1	1	0	1	-3,875969	274,74949	319,219332	0
15.01.2021	16:23:23	0	5,47251	4,067154	2,973	322,2756	0,693	83,139	0	1016,28	7,7	9,6	9,3	1	1	1	1	1	1	1	1	1	0	1	-4,792107	274,666327	317,912181	0
15.01.2021	16:23:24	0	5,591478	2,824412	3,01725	323,3484	0,691	83,142	0	1016,18	7,7	9,6	9,3	1	1	1	1	1	1	1	1	1	0	1	-7,610994	274,670938	315,114964	0
15.01.2021	16:23:25	0	5,47251	2,711436	3,0135	337,5	0,692	83,145	0	1016,1	7,6	9,6	9,3	1	1	1	1	1	1	1	1	1	0	1	-11,346018	274,718647	311,604226	0
15.01.2021	16:23:26	0	5,47251	3,954177	2,94225	325,1916	0,688	83,141	0	1016,12	7,7	9,6	9,3	1	1	1	1	1	1	1	1	1	0	1	-6,20155	274,674012	316,538857	0
15.01.2021	16:23:27	0	5,234612	3,502271	2,6655	320,4252	0,686	83,126	0	1016,08	7,7	9,5	9,3	1	1	1	1	1	1	1	1	1	0	1	-9,725159	274,746404	313,355624	0
15.01.2021	16:23:28	0	5,35358	4,745013	2,526	312,5052	0,694	83,147	0	1016,1	7,7	9,5	9,3	1	1	1	1	1	1	1	1	1	0	1	-13,03735	274,846969	310,51672	0
15.01.2021	16:23:29	0	5,591478	4,18013	2,3835	315,9684	0,69	83,143	0	1016,28	7,7	9,6	9,3	1	1	1	1	1	1	1	1	1	0	1	-10,288936	274,764931	312,878999	0
15.01.2021	16:23:30	0	5,710446	4,293107	2,36775	325,962	0,689	83,132	0	1016,02	7,7	9,6	9,3	1	1	1	1	1	1	1	1	1	0	1	-7,117689	274,851623	316,458298	0
15.01.2021	16:23:31	0	5,234575	2,598459	2,23275	319,9212	0,691	83,146	0	1016,14	7,7	9,6	9,3	1	1	1	1	1	1	1	1	1	0	1	-13,319239	274,723271	309,652746	0
15.01.2021	16:23:32	0	5,353543	3,615248	2,28975	320,7384	0,691	83,147	0	1016,02	7,7	9,6	9,3	1	1	1	1	1	1	1	1	1	0	1	-6,906272	274,661717	315,776353	0
15.01.2021	16:23:33	0	4,99664	3,163342	2,337	323,3556	0,684	83,138	0	1016,1	7,7	9,6	9,3	1	1	1	1	1	1	1	1	1	0	1	-11,839323	274,726354	311,147158	0
15.01.2021	16:23:34	0	5,234612	3,502271	2,28075	339,8148	0,693	83,141	0	1016,2	7,7	9,5	9,3	1	1	1	1	1	1	1	1	1	0	1	-9,866103	274,837664	313,644154	0
15.01.2021	16:23:35	0	5,591517	4,632036	2,35725	343,53	0,69	83,151	0	1016,14	7,7	9,5	9,3	1	1	1	1	1	1	1	1	1	0	1	-4,157858	274,720188	318,799632	0
15.01.2021	16:23:36	0	5,353543	4,51906	2,3655	338,7852	0,689	83,148	0	1016,1	7,7	9,6	9,3	1	1	1	1	1	1	1	1	1	0	1	-6,694856	274,833013	316,793504	0
15.01.2021	16:23:37	0	5,710446	4,857989	2,17575	346,1436	0,685	83,138	0	1016,18	7,7	9,6	9,3	1	1	1	1	1	1	1	1	1	0	1	-10,570825	274,828364	312,895645	0
15.01.2021	16:23:38	0	5,35358	3,389295	1,91025	295,596	0,686	83,146	0	1016,2	7,7	9,5	9,3	1	1	1	1	1	1	1	1	1	0	1	-10,288936	274,800489	313,046323	0
15.01.2021	16:23:39	0	4,99664	2,485483	1,74525	312,2172	0,69	83,144	0	1016,14	7,7	9,6	9,3	1	1	1	1	1	1	1	1	1	0	1	-6,20155	274,850072	317,36713	0
15.01.2021	16:23:40	0	5,353543	2,937389	1,60125	322,2432	0,682	83,13	0	1015,98	7,7	9,6	9,3	1	1	1	1	1	1	1	1	1	0	1	-8,949965	274,720188	314,007525	0
15.01.2021	16:23:41	0	5,47251	4,632036	1,518	307,5948	0,689	83,138	0	1015,98	7,7	9,6	9,3	1	1	1	1	1	1	1	1	1	0	1	-7,751938	274,803585	315,597889	0
15.01.2021	16:23:42	0	5,47251	2,598459	1,4955	332,082	0,688	83,14	0	1016,2	7,7	9,6	9,3	1	1	1	1	1	1	1	1	1	0	1	-6,906272	274,694008	315,928128	0
15.01.2021	16:23:43	0	5,472549	4,406083	1,70625	325,1484	0,683	83,131	0	1016,26	7,7	9,5	9,3	1	1	1	1	1	1	1	1	1	0	1	-8,949965	274,802037	314,392578	0
15.01.2021	16:23:44	0	4,996675	3,502271	1,78725	332,4816	0,689	83,125	0	1016,12	7,7	9,5	9,3	1	1	1	1	1	1	1	1	1	0	1	-7,540521	274,658644	315,127665	0
15.01.2021	16:23:45	0	4,99664	2,372506	1,72275	330,2712	0,688	83,137	0	1016,02	7,7	9,6	9,3	1	1	1	1	1	1	1	1	1	0	1	-4,651163	274,743318	318,415104	0
15.01.2021	16:23:46	0	4,996675	2,937389	1,6965	326,07	0,691	83,132	0	1016,2	7,7	9,5	9,3	1	1	1	1	1	1	1	1	1	0	1	-7,82241	274,833013	315,66595	0
15.01.2021	16:23:47	0	5,47251	4,745013	1,71225	325,5624	0,686	83,129	0	1015,94	7,7	9,6	9,3	1	1	1	1	1	1	1	1	1	0	1	-8,033827	274,761842	315,119576	0
15.01.2021	16:23:48	0	5,234612	3,050365	1,77225	325,5084	0,685	83,125	0	1016,14	7,7	9,5	9,3	1	1	1	1	1	1	1	1	1	0	1	-7,258633	274,831463	316,222429	0
15.01.2021	16:23:49	0	5,234612	2,25953	1,872	314,0748	0,688	83,137	0	1015,94	7,7	9,5	9,3	1	1	1	1	1	1	1	1	1	0	1	-7,751938	274,811325	315,63432	0
15.01.2021	16:23:50	0	5,234575	3,050365	1,98375	303,21	0,685	83,124	0	1016,06	7,7	9,6	9,3	1	1	1	1	1	1	1	1	1	0	1	-10,570825	274,667863	312,140686	0
15.01.2021	16:23:51	0	5,353543	4,18013	1,98225	323,3088	0,684	83,131	0	1016,26	7,6	9,6	9,3	1	1	1	1	1	1	1	1	1	0	1	-10,993658	274,805132	312,363454	0
15.01.2021	16:23:52	0	5,115643	3,389295	1,90425	315,4788	0,683	83,14	0	1016,16	7,7	9,5	9,3	1	1	1	1	1	1	1	1	1	0	1	-4,369274	274,820617	319,060725	0
15.01.2021	16:23:53	0	4,99664	2,937389	1,794	336,3408	0,68	83,132	0	1016,24	7,7	9,6	9,3	1	1	1	1	1	1	1	1	1	0	1	-10,711769	274,675549	312,035865	0
15.01.2021	16:23:54	0	5,353543	3,050365	1,7865	318,4164	0,685	83,13	0	1016,22	7,7	9,6	9,3	1	1	1	1	1	1	1	1	1	0	1	-8,386187	274,766475	314,789015	0
15.01.2021	16:23:55	0	4,877707	3,050365	1,75125	318,4128	0,689	83,124	0	1016,1	7,7	9,5	9,3	1	1	1	1	1	1	1	1	1	0	1	-7,681466	274,836114	315,821491	0
15.01.2021	16:23:56	0	5,115643	3,615248	1,752	322,182	0,688	83,138	0	1016,14	7,7	9,5	9,3	1	1	1	1	1	1	1	1	1	0	1	-10,147992	274,839215	313,369566	0
15.01.2021	16:23:57	0	5,353543	3,502271	1,79775	321,1416	0,679	83,111	0	1016,24	7,7	9,6	9,3	1	1	1	1	1	1	1	1	1	0	1	-3,946441	274,6694	318,772293	0
15.01.2021	16:23:58	0	5,234612	2,485483	1,91475	328,2228	0,682	83,131	0	1016,16	7,7	9,5	9,3	1	1	1	1	1	1	1	1	1	0	1	-9,654686	274,780383	313,585952	0
15.01.2021	16:23:59	0	5,234575	2,824412	2,01075	318,474	0,682	83,125	0	1016,08	7,7	9,6	9,3	1	1	1	1	1	1	1	1	1	0	1	-7,610994	274,700165	315,25235	0
15.01.2021	16:24:00	0	5,115643	2,824412	1,89675	310,6944	0,68	83,128	0	1016,14	7,7	9,5	9,3	1	1	1	1	1	1	1	1	1	0	1	-10,359408	274,778837	312,873957	0
15.01.2021	16:24:01	0	5,115643	2,824412	1,89675	310,6944	0,68	83,128	0	1016,14	7,7	9,5	9,3	1	1	1	1	1	1	1	1	1	0	1	-10,288936	274,638685	312,285466	0
15.01.2021	16:24:02	0	5,234612	2,824412	1,7565	342,036	0,682	83,12	0	1016,14	7,7	9,5	9,3	1	1	1	1	1	1	1	1	1	0	1	-5,778717	274,777291	317,447375	0
15.01.2021	16:24:03	0	5,35358	3,954177	1,6335	330,3432	0,69	83,133	0	1016,24	7,6	9,5	9,3	1	1	1	1	1	1	1	1	1	0	1	-11,486963	274,840765	312,037896	0
15.01.2021	16:24:04	0	5,35358	4,406083	1,6695	311,0688	0,685	83,13	0	1016	7,7	9,5	9,3	1	1	1	1	1	1	1	1	1	0	1	-6,553911	274,714025	316,374598	0
15.01.2021	16:24:05	0	5,115643	3,954177	1,7175	296,8416	0,685	83,118	0	1016,02	7,7	9,5	9,3	1	1	1	1	1	1	1	1	1	0	1	-7,610994	274,840765	315,913865	0
15.01.2021	16:24:06	0	4,996675	2,937389	1,88475	325,5336	0,685	83,127	0	1016,2	7,7	9,5	9,3	1	1	1	1	1	1	1	1	1	0	1	-9,44327	274,661717	313,239355	0
15.01.2021	16:24:07	0	5,234612	3,163342	2,0265	307,6092	0,685	83,13	0	1016,16	7,7	9,5	9,3	1	1	1	1	1	1	1	1	1	0	1	-9,161381	274,701705	313,7092	0
15.01.2021	16:24:08	0	5,234612	4,857989	2,0805	321,7752	0,68	83,108	0	1016,22	7,7	9,5	9,3	1	1	1	1	1	1	1	1	1	0	1	-11,909796	274,783475	311,345392	0
15.01.2021	16:24:09	0	5,234612	3,050365	2,13375	326,394	0,683	83,132	0	1016,02	7,6	9,5	9,3	1	1	1	1	1	1	1	1	1	0	1	-8,386187	274,677087	314,368673	0
15.01.2021	16:24:10	0	5,35358	3,502271	2,31075	319,1652	0,684	83,133	0	1015,96	7,7	9,5	9,3	1	1	1	1	1	1	1	1	1	0	1	-7,610994	274,781929	315,636919	0
15.01.2021	16:24:11	0	4,99664	4,51906	2,4885	320,6772	0,685	83,119	0	1016,06	7,7	9,6	9,3	1	1	1	1	1	1	1	1	1	0	1	-7,681466	274,812873	315,712081	0
15.01.2021	16:24:12	0	5,35358	4,067154	2,60025	324,774	0,685	83,119	0	1016,06	7,7	9,5	9,3	1	1	1	1	1	1	1	1	1	0	1	-8,174771	274,809776	315,2042	0
15.01.2021	16:24:13	0	5,234612	2,485483	2,64825	317,0196	0,678	83,113	0	1016,16	7,7	9,5	9,3	1	1	1	1	1	1	1	1	1	0	1	-6,906272	274,734063	316,116465	0
15.01.2021	16:24:14	0	5,115643	3,502292	2,67825	326,3256	0,686	83,121	0	1016,12	7,7	9,5	9,2	1	1	1	1	1	1	1	1	1	0	1	-10,923185	274,845418	312,623581	0
15.01.2021	16:24:15	0	5,115643	3,163342	2,7525	326,484	0,678	83,124	0	1016,2	7,7	9,5	9,3	1	1	1	1	1	1	1	1	1	0	1	-11,275546	274,723271	311,696438	0
15.01.2021	16:24:16	0	5,234575	3,276318	2,69475	325,9872	0,68	83,104	0	1015,86	7,7	9,6	9,3	1	1	1	1	1	1	1	1	1	0	1	-4,792107	274,704784	318,092952	0
15.01.2021	16:24:17	0	5,35358	4,067154	2,7105	325,224	0,678	83,1	0	1016,04	7,7	9,5	9,3	1	1	1	1	1	1	1	1	1	0	1	-9,302326	274,812873	314,091221	0
15.01.2021	16:24:18	0	5,234612	3,502271	2,6055	322,1928	0,687	83,112	0	1016,16	7,7	9,5	9,3	1	1	1	1	1	1	1	1	1	0	1	-8,174771	274,6694	314,543963	0
15.01.2021	16:24:19	0	5,472549	4,406083	2,54025	332,064	0,681	83,108	0	1016,1	7,7	9,5	9,3	1	1	1	1	1	1	1	1	1	0	1	-12,05074	274,829914	311,423025	0
15.01.2021	16:24:20	0	4,877707	2,824412	2,5965	329,6376	0,684	83,108	0	1016,08	7,7	9,5	9,3	1	1	1	1	1	1	1	1	1	0	1	-11,06413	274,77111	312,132878	0
15.01.2021	16:24:21	0	5,234612	3,954177	2,54925	328,896	0,682	83,114	0	1016,24	7,7	9,5	9,3	1	1	1	1	1	1	1	1	1	0	1	-10,570825	274,833013	312,917535	0
15.01.2021	16:24:22	0	5,35358	4,745013	2,5425	328,6152	0,683	83,113	0	1016	7,7	9,5	9,3	1	1	1	1	1	1	1	1	1	0	1	-5,919662	274,712485	317,001604	0
15.01.2021	16:24:23	0	5,115643	3,502271	2,6865	322,0992	0,68	83,108	0	1016,08	7,7	9,5	9,3	1	1	1	1	1	1	1	1	1	0	1	-7,188161	274,717106	315,754838	0
15.01.2021	16:24:24	0	4,877707	4,632036	2,69175	325,1592	0,684	83,11	0	1016,14	7,7	9,5	9,3	1	1	1	1	1	1	1	1	1	0	1	-9,090909	274,833013	314,397451	0
15.01.2021	16:24:25	0	4,877707	4,067154	2,6205	331,9884	0,679	83,08	0	1016,06	7,7	9,5	9,3	1	1	1	1	1	1	1	1	1	0	1	-8,174771	274,714025	314,753738	0
15.01.2021	16:24:26	0	5,35358	2,824429	2,6415	328,158	0,682	83,082	0	1016,18	7,7	9,5	9,2	1	1	1	1	1	1	1	1	1	0	1	-8,386187	274,646359	314,224272	0
15.01.2021	16:24:27	0	5,35358	4,745013	2,6025	327,4344	0,675	83,082	0	1016,1	7,7	9,5	9,3	1	1	1	1	1	1	1	1	1	0	1	-7,963354	274,712485	314,957912	0
15.01.2021	16:24:28	0	4,996675	3,841201	2,40975	310,6764	0,68	83,105	0	1016,1	7,7	9,5	9,3	1	1	1	1	1	1	1	1	1	0	1	-10,42988	274,660181	312,245525	0
15.01.2021	16:24:29	0	4,758738	2,711452	2,16375	324,7776	0,681	83,086	0	1016,1	7,7	9,5	9,2	1	1	1	1	1	1	1	1	1	0	1	-7,892882	274,683238	314,890892	0
15.01.2021	16:24:30	0	5,234612	2,711452	1,91325	329,6916	0,676	83,077	0	1016,18	7,7	9,5	9,2	1	1	1	1	1	1	1	1	1	0	1	-10,288936	274,661717	312,393689	0
15.01.2021	16:24:31	0	5,115608	3,841201	1,806	335,3292	0,676	83,078	0	1016,1	7,7	9,6	9,3	1	1	1	1	1	1	1	1	1	0	1	-9,936575	274,788114	313,340442	0
15.01.2021	16:24:32	0	4,996675	4,745013	1,70175	315,2664	0,681	83,066	0	1016,16	7,7	9,5	9,3	1	1	1	1	1	1	1	1	1	0	1	-7,258633	274,837664	316,251624	0
15.01.2021	16:24:33	0	4,877707	2,372506	1,64025	308,8224	0,678	83,083	0	1016,16	7,7	9,5	9,3	1	1	1	1	1	1	1	1	1	0	1	-8,386187	274,674012	314,35422	0
15.01.2021	16:24:34	0	4,758738	2,824412	1,6275	327,9024	0,676	83,088	0	1016,06	7,7	9,5	9,3	1	1	1	1	1	1	1	1	1	0	1	-9,936575	274,64943	312,688312	0
15.01.2021	16:24:35	0	5,35358	4,745013	1,76325	317,9988	0,677	83,077	0	1016,08	7,7	9,5	9,3	1	1	1	1	1	1	1	1	1	0	1	-6,8358	274,795848	316,477613	0
15.01.2021	16:24:36	0	5,35358	4,406083	2,04525	321,4332	0,682	83,097	0	1016,2	7,7	9,5	9,3	1	1	1	1	1	1	1	1	1	0	1	-6,906272	274,834564	316,589386	0
15.01.2021	16:24:37	0	4,877707	2,711452	2,12025	324,8064	0,672	83,07	0	1016,14	7,7	9,5	9,2	1	1	1	1	1	1	1	1	1	0	1	-9,161381	274,698626	313,694725	0
15.01.2021	16:24:38	0	5,115643	4,632036	2,0235	319,59	0,67	83,076	0	1016,06	7,7	9,5	9,3	1	1	1	1	1	1	1	1	1	0	1	-8,597604	274,794301	314,708529	0
15.01.2021	16:24:39	0	4,63977	3,163342	1,9965	322,2288	0,679	83,068	0	1016,02	7,7	9,5	9,3	1	1	1	1	1	1	1	1	1	0	1	-7,751938	274,698626	315,104169	0
15.01.2021	16:24:40	0	4,758738	2,824412	1,83975	322,1928	0,676	83,094	0	1016,14	7,7	9,5	9,3	1	1	1	1	1	1	1	1	1	0	1	-5,778717	274,660181	316,896688	0
15.01.2021	16:24:41	0	5,234612	3,276318	1,71075	319,9428	0,679	83,084	0	1016,12	7,7	9,5	9,3	1	1	1	1	1	1	1	1	1	0	1	-6,20155	274,690931	316,618381	0
15.01.2021	16:24:42	0	5,234612	4,745041	1,75425	322,3332	0,679	83,094	0	1016,26	7,7	9,5	9,2	1	1	1	1	1	1	1	1	1	0	1	-11,768851	274,826814	311,690323	0
15.01.2021	16:24:43	0	5,35358	2,372506	1,9185	315,2556	0,676	83,067	0	1016,2	7,7	9,5	9,3	1	1	1	1	1	1	1	1	1	0	1	-7,892882	274,74949	315,202419	0
15.01.2021	16:24:44	0	4,877707	2,25953	2,0895	314,046	0,683	83,078	0	1015,92	7,7	9,5	9,3	1	1	1	1	1	1	1	1	1	0	1	-6,20155	274,836114	317,301407	0
15.01.2021	16:24:45	0	5,234575	2,824412	2,27625	314,82	0,677	83,077	0	1015,86	7,7	9,6	9,3	1	1	1	1	1	1	1	1	1	0	1	-7,540521	274,76802	315,641948	0
15.01.2021	16:24:46	0	4,877707	4,293133	2,445	326,4228	0,679	83,084	0	1016,12	7,7	9,5	9,2	1	1	1	1	1	1	1	1	1	0	1	-11,275546	274,652501	311,363771	0
15.01.2021	16:24:47	0	4,996675	4,406083	2,301	308,8152	0,675	83,084	0	1016,14	7,7	9,5	9,3	1	1	1	1	1	1	1	1	1	0	1	-9,725159	274,747947	313,362883	0
15.01.2021	16:24:48	0	5,234612	3,276318	2,2575	319,2372	0,681	83,088	0	1016	7,7	9,5	9,3	1	1	1	1	1	1	1	1	1	0	1	-6,20155	274,666327	316,502738	0
15.01.2021	16:24:49	0	5,115643	3,502292	2,33925	316,71	0,672	83,074	0	1016,06	7,7	9,5	9,2	1	1	1	1	1	1	1	1	1	0	1	-10,570825	274,764931	312,59711	0
15.01.2021	16:24:50	0	4,996675	3,954177	2,38275	322,1676	0,679	83,095	0	1016,22	7,7	9,5	9,3	1	1	1	1	1	1	1	1	1	0	1	-6,342495	274,786567	316,927245	0
15.01.2021	16:24:51	0	4,63977	3,276338	2,37675	320,346	0,678	83,086	0	1016,04	7,7	9,5	9,2	1	1	1	1	1	1	1	1	1	0	1	-9,584214	274,689392	313,228484	0
15.01.2021	16:24:52	0	4,758738	4,632064	2,4105	318,402	0,677	83,075	0	1016,18	7,6	9,5	9,2	1	1	1	1	1	1	1	1	1	0	1	-10,359408	274,798942	312,968569	0
15.01.2021	16:24:53	0	4,877707	3,61527	2,4885	316,9584	0,669	83,096	0	1016,16	7,7	9,5	9,2	1	1	1	1	1	1	1	1	1	0	1	-10,923185	274,683238	311,860589	0
15.01.2021	16:24:54	0	5,115643	4,632036	2,48625	321,4548	0,669	83,085	0	1016,1	7,7	9,5	9,3	1	1	1	1	1	1	1	1	1	0	1	-8,033827	274,712485	314,887439	0
15.01.2021	16:24:55	0	5,115643	4,067154	2,48325	324,0252	0,676	83,102	0	1016,16	7,7	9,5	9,3	1	1	1	1	1	1	1	1	1	0	1	-7,681466	274,674012	315,058942	0
15.01.2021	16:24:56	0	5,115643	3,954201	2,424	318,4668	0,673	83,096	0	1016,2	7,7	9,5	9,2	1	1	1	1	1	1	1	1	1	0	1	-6,906272	274,704784	315,978787	0
15.01.2021	16:24:57	0	4,877707	2,259544	2,4075	334,2132	0,678	83,097	0	1016,18	7,7	9,5	9,2	1	1	1	1	1	1	1	1	1	0	1	-9,231853	274,695547	313,609781	0
15.01.2021	16:24:58	0	4,996675	2,372506	2,3265	322,2	0,669	83,092	0	1016,14	7,7	9,5	9,3	1	1	1	1	1	1	1	1	1	0	1	-6,060606	274,828364	317,405863	0
15.01.2021	16:24:59	0	5,234612	2,598459	2,3085	333,8856	0,67	83,089	0	1016	7,7	9,5	9,3	1	1	1	1	1	1	1	1	1	0	1	-10,42988	274,692469	312,397285	0
15.01.2021	16:25:00	0	5,234612	2,598459	2,445	322,5528	0,678	83,092	0	1016,06	7,7	9,5	9,3	1	1	1	1	1	1	1	1	1	0	1	-7,82241	274,686315	314,975825	0
15.01.2021	16:25:01	0	5,234612	2,598459	2,445	322,5528	0,678	83,092	0	1016,06	7,7	9,5	9,3	1	1	1	1	1	1	1	1	1	0	1	-7,82241	274,686315	314,975825	0
15.01.2021	16:25:02	0	4,996675	3,502292	2,44875	335,3364	0,675	83,091	0	1016,06	7,6	9,5	9,2	1	1	1	1	1	1	1	1	1	0	1	-10,147992	274,660181	312,527414	0
15.01.2021	16:25:03	0	5,115643	2,598475	2,42475	329,2884	0,678	83,104	0	1016,22	7,7	9,5	9,2	1	1	1	1	1	1	1	1	1	0	1	-15,64482	274,704784	307,240239	0
15.01.2021	16:25:04	0	4,758738	2,598475	2,36925	331,5528	0,669	83,107	0	1016,16	7,7	9,5	9,2	1	1	1	1	1	1	1	1	1	0	1	-9,231853	274,78966	314,052442	0
15.01.2021	16:25:05	0	4,877707	3,954177	2,38575	334,9764	0,672	83,106	0	1016,12	7,7	9,5	9,3	1	1	1	1	1	1	1	1	1	0	1	-8,033827	274,680162	314,735489	0
15.01.2021	16:25:06	0	4,996675	4,632036	2,43225	339,0624	0,672	83,099	0	1016,06	7,6	9,5	9,3	1	1	1	1	1	1	1	1	1	0	1	-8,879493	274,829914	314,594273	0
15.01.2021	16:25:07	0	4,877707	3,954201	2,427	325,908	0,673	83,107	0	1016,24	7,6	9,5	9,2	1	1	1	1	1	1	1	1	1	0	1	-8,45666	274,823715	314,987925	0
15.01.2021	16:25:08	0	4,758738	3,163361	2,3535	339,4044	0,674	83,105	0	1016,04	7,7	9,5	9,2	1	1	1	1	1	1	1	1	1	0	1	-8,597604	274,704784	314,287455	0
15.01.2021	16:25:09	0	4,877707	2,598459	2,436	321,876	0,669	83,097	0	1016,08	7,6	9,5	9,3	1	1	1	1	1	1	1	1	1	0	1	-7,399577	274,840765	316,125281	0
15.01.2021	16:25:10	0	5,35358	4,293107	2,5605	330,732	0,67	83,108	0	1015,92	7,6	9,5	9,3	1	1	1	1	1	1	1	1	1	0	1	-13,883016	274,744861	309,190508	0
15.01.2021	16:25:11	0	4,996675	3,954201	2,4705	335,7684	0,67	83,085	0	1016,18	7,6	9,5	9,2	1	1	1	1	1	1	1	1	1	0	1	-6,624383	274,828364	316,842086	0
15.01.2021	16:25:12	0	4,63977	2,711452	2,35425	334,584	0,671	83,098	0	1016,2	7,7	9,5	9,2	1	1	1	1	1	1	1	1	1	0	1	-8,174771	274,690931	314,645161	0
15.01.2021	16:25:13	0	5,35358	4,632036	2,36025	332,3736	0,673	83,091	0	1016,18	7,7	9,5	9,3	1	1	1	1	1	1	1	1	1	0	1	-9,654686	274,667863	313,056824	0
15.01.2021	16:25:14	0	5,234612	3,163342	2,25975	334,566	0,67	83,099	0	1016,1	7,7	9,5	9,3	1	1	1	1	1	1	1	1	1	0	1	-11,134602	274,658644	311,533584	0
15.01.2021	16:25:15	0	5,234612	4,293133	2,139	315,9756	0,67	83,104	0	1016	7,7	9,5	9,2	1	1	1	1	1	1	1	1	1	0	1	-13,178295	274,704784	309,706765	0
15.01.2021	16:25:16	0	4,758738	2,711452	2,07675	330,7536	0,676	83,103	0	1016,14	7,6	9,5	9,2	1	1	1	1	1	1	1	1	1	0	1	-8,245243	274,842316	315,286917	0
15.01.2021	16:25:17	0	5,234612	3,841224	2,10975	331,5744	0,676	83,097	0	1016,06	7,7	9,5	9,2	1	1	1	1	1	1	1	1	1	0	1	-9,725159	274,772655	313,479119	0
15.01.2021	16:25:18	0	5,234612	4,970966	2,04075	334,2492	0,669	83,102	0	1016,14	7,7	9,5	9,3	1	1	1	1	1	1	1	1	1	0	1	-10,852713	274,81597	312,555412	0
15.01.2021	16:25:19	0	5,234612	4,406083	1,91625	330,7392	0,674	83,099	0	1016,22	7,6	9,5	9,3	1	1	1	1	1	1	1	1	1	0	1	-7,540521	274,803585	315,809305	0
15.01.2021	16:25:20	0	4,758738	4,632064	1,7865	326,3652	0,672	83,099	0	1016,08	7,7	9,5	9,2	1	1	1	1	1	1	1	1	1	0	1	-8,033827	274,712485	314,887439	0
15.01.2021	16:25:21	0	4,996675	4,519087	1,7145	336,798	0,672	83,094	0	1016,18	7,7	9,5	9,2	1	1	1	1	1	1	1	1	1	0	1	-9,936575	274,644824	312,666671	0
15.01.2021	16:25:22	0	4,996675	4,067178	1,66725	331,1892	0,671	83,081	0	1016,1	7,6	9,5	9,2	1	1	1	1	1	1	1	1	1	0	1	-10,500352	274,823715	312,944233	0
15.01.2021	16:25:23	0	4,758738	3,502292	1,56	331,5276	0,672	83,084	0	1016,16	7,7	9,5	9,2	1	1	1	1	1	1	1	1	1	0	1	-11,839323	274,7742	311,372225	0
15.01.2021	16:25:24	0	4,758738	3,163342	1,6785	321,4152	0,67	83,059	0	1016,28	7,7	9,5	9,3	1	1	1	1	1	1	1	1	1	0	1	-11,486963	274,6694	311,231771	0
15.01.2021	16:25:25	0	5,234612	4,40611	1,8135	341,3268	0,673	83,08	0	1016,16	7,7	9,5	9,2	1	1	1	1	1	1	1	1	1	0	1	-8,879493	274,820617	314,550506	0
15.01.2021	16:25:26	0	4,996675	2,485498	1,88025	312,5088	0,67	83,06	0	1016,02	7,7	9,5	9,2	1	1	1	1	1	1	1	1	1	0	1	-6,765328	274,690931	316,054604	0
15.01.2021	16:25:27	0	4,877707	3,050384	1,9845	322,9308	0,674	83,072	0	1016,18	7,7	9,5	9,2	1	1	1	1	1	1	1	1	1	0	1	-8,80902	274,670938	313,916937	0
15.01.2021	16:25:28	0	4,996675	3,841224	2,04825	321,9084	0,67	83,06	0	1016,14	7,7	9,5	9,2	1	1	1	1	1	1	1	1	1	0	1	-8,245243	274,715566	314,69051	0
15.01.2021	16:25:29	0	5,234612	4,632036	2,08875	321,8652	0,675	83,065	0	1016,1	7,7	9,5	9,3	1	1	1	1	1	1	1	1	1	0	1	-12,403101	274,811325	310,983157	0
15.01.2021	16:25:30	0	4,758738	2,824412	2,163	329,4288	0,672	83,054	0	1016,12	7,7	9,5	9,3	1	1	1	1	1	1	1	1	1	0	1	-13,107822	274,674012	309,632585	0
15.01.2021	16:25:31	0	4,877707	2,711452	2,14725	321,5412	0,67	83,051	0	1016,12	7,6	9,5	9,2	1	1	1	1	1	1	1	1	1	0	1	-6,906272	274,675549	315,841362	0
15.01.2021	16:25:32	0	5,234612	4,40611	2,09025	331,0956	0,671	83,066	0	1016,1	7,7	9,5	9,2	1	1	1	1	1	1	1	1	1	0	1	-11,557435	274,795848	311,755978	0
15.01.2021	16:25:33	0	4,63977	2,711452	2,00925	334,9656	0,672	83,034	0	1015,98	7,7	9,5	9,2	1	1	1	1	1	1	1	1	1	0	1	-13,601128	274,674012	309,13928	0
15.01.2021	16:25:34	0	4,758738	2,372521	2,01	327,1968	0,673	83,064	0	1016,14	7,7	9,5	9,2	1	1	1	1	1	1	1	1	1	0	1	-9,866103	274,833013	313,622257	0
15.01.2021	16:25:35	0	4,877707	4,857989	2,09175	329,3172	0,664	83,046	0	1016,06	7,7	9,5	9,3	1	1	1	1	1	1	1	1	1	0	1	-7,751938	274,726354	315,234544	0
15.01.2021	16:25:36	0	5,115643	4,745041	2,15475	329,3388	0,672	83,042	0	1016,12	7,6	9,5	9,2	1	1	1	1	1	1	1	1	1	0	1	-8,668076	274,822166	314,769216	0
15.01.2021	16:25:37	0	5,115643	4,858019	2,24175	331,4556	0,674	83,043	0	1016,16	7,6	9,5	9,2	1	1	1	1	1	1	1	1	1	0	1	-5,84919	274,735605	317,180801	0
15.01.2021	16:25:38	0	5,234612	4,745041	2,22375	337,518	0,672	83,047	0	1016,14	7,7	9,5	9,2	1	1	1	1	1	1	1	1	1	0	1	-5,778717	274,650965	316,853384	0
15.01.2021	16:25:39	0	5,115643	2,711452	2,115	321,498	0,671	83,055	0	1016,16	7,6	9,5	9,2	1	1	1	1	1	1	1	1	1	0	1	-8,738548	274,710944	314,175475	0
15.01.2021	16:25:40	0	5,115643	5,083973	2,07225	317,7468	0,673	83,061	0	1016,24	7,7	9,5	9,2	1	1	1	1	1	1	1	1	1	0	1	-6,553911	274,833013	316,934449	0
15.01.2021	16:25:41	0	5,35358	4,519087	2,04075	323,3016	0,668	83,034	0	1016,14	7,6	9,5	9,2	1	1	1	1	1	1	1	1	1	0	1	-8,245243	274,714025	314,683266	0
15.01.2021	16:25:42	0	5,115643	3,841224	2,0865	318,7944	0,675	83,058	0	1016,16	7,7	9,5	9,2	1	1	1	1	1	1	1	1	1	0	1	-11,06413	274,647894	311,553543	0
15.01.2021	16:25:43	0	4,996675	3,276338	2,12025	328,8816	0,668	83,055	0	1016,1	7,6	9,5	9,2	1	1	1	1	1	1	1	1	1	0	1	-10,077519	274,792754	313,221333	0
15.01.2021	16:25:44	0	4,758738	2,485498	2,08575	324,7848	0,67	83,04	0	1016,12	7,6	9,5	9,2	1	1	1	1	1	1	1	1	1	0	1	-10,500352	274,839215	313,017205	0
15.01.2021	16:25:45	0	4,996675	2,372506	1,9695	329,8356	0,667	83,048	0	1016,06	7,7	9,5	9,3	1	1	1	1	1	1	1	1	1	0	1	-9,866103	274,686315	312,932132	0
15.01.2021	16:25:46	0	5,234612	3,502292	1,9425	319,5504	0,671	83,056	0	1016,16	7,7	9,5	9,2	1	1	1	1	1	1	1	1	1	0	1	-7,751938	274,826814	315,707236	0
15.01.2021	16:25:47	0	4,758738	3,163361	1,938	316,2708	0,671	83,055	0	1016,06	7,6	9,5	9,2	1	1	1	1	1	1	1	1	1	0	1	-10,923185	274,788114	312,353832	0
15.01.2021	16:25:48	0	5,234612	4,293133	1,88025	309,9024	0,669	83,052	0	1016,14	7,7	9,5	9,2	1	1	1	1	1	1	1	1	1	0	1	-11,346018	274,692469	311,481147	0
15.01.2021	16:25:49	0	5,115643	4,293133	1,80675	320,0148	0,669	83,07	0	1016,3	7,6	9,5	9,2	1	1	1	1	1	1	1	1	1	0	1	-10,852713	274,837664	312,657544	0
15.01.2021	16:25:50	0	5,35358	4,970966	1,6485	343,4796	0,674	83,055	0	1016,1	7,6	9,5	9,3	1	1	1	1	1	1	1	1	1	0	1	-11,346018	274,680162	311,423297	0
15.01.2021	16:25:51	0	5,115643	3,728247	1,70925	324,7668	0,668	83,071	0	1016,14	7,7	9,5	9,2	1	1	1	1	1	1	1	1	1	0	1	-9,44327	274,657108	313,217698	0
15.01.2021	16:25:52	0	5,115643	4,293107	1,80675	340,2252	0,667	83,059	0	1016,14	7,6	9,5	9,3	1	1	1	1	1	1	1	1	1	0	1	-12,332629	274,700165	310,530715	0
15.01.2021	16:25:53	0	4,996675	3,841224	1,8825	330,7788	0,664	83,065	0	1016,24	7,6	9,5	9,2	1	1	1	1	1	1	1	1	1	0	1	-8,597604	274,661717	314,085021	0
15.01.2021	16:25:54	0	4,63977	3,163361	1,87275	332,7588	0,671	83,067	0	1016,14	7,6	9,5	9,2	1	1	1	1	1	1	1	1	1	0	1	-11,839323	274,811325	311,546935	0
15.01.2021	16:25:55	0	4,877707	3,841224	1,8315	330,048	0,665	83,068	0	1016,12	7,6	9,5	9,2	1	1	1	1	1	1	1	1	1	0	1	-9,654686	274,6694	313,064047	0
15.01.2021	16:25:56	0	4,52077	2,598475	1,7715	322,9452	0,662	83,07	0	1016,1	7,6	9,6	9,2	1	1	1	1	1	1	1	1	1	0	1	-10,641297	274,657108	312,019671	0
15.01.2021	16:25:57	0	5,115643	3,163361	1,7835	318,4488	0,67	83,056	0	1016,12	7,7	9,5	9,2	1	1	1	1	1	1	1	1	1	0	1	-10,007047	274,692469	312,820118	0
15.01.2021	16:25:58	0	5,234612	4,067178	1,72575	319,5252	0,662	83,068	0	1016,02	7,6	9,5	9,2	1	1	1	1	1	1	1	1	1	0	1	-14,728682	274,6817	308,047862	0
15.01.2021	16:25:59	0	5,115643	4,51906	1,6545	318,384	0,666	83,081	0	1016,12	7,6	9,5	9,3	1	1	1	1	1	1	1	1	1	0	1	-7,117689	274,834564	316,37797	0
15.01.2021	16:26:00	0	4,520801	2,485498	1,668	336,4236	0,667	83,058	0	1016,08	7,6	9,5	9,2	1	1	1	1	1	1	1	1	1	0	1	-9,725159	274,675549	313,022475	0
15.01.2021	16:26:01	0	4,877707	2,937407	1,72575	329,652	0,668	83,074	0	1016,02	7,6	9,5	9,2	1	1	1	1	1	1	1	1	1	0	1	-7,329105	274,684777	315,461899	0
15.01.2021	16:26:02	0	5,234612	4,180155	1,74825	326,4192	0,668	83,058	0	1016,02	7,6	9,5	9,2	1	1	1	1	1	1	1	1	1	0	1	-9,090909	274,683238	313,692865	0
15.01.2021	16:26:03	0	5,234612	4,180155	1,761	325,53	0,668	83,073	0	1016,12	7,6	9,5	9,2	1	1	1	1	1	1	1	1	1	0	1	-5,355884	274,820617	318,074115	0
15.01.2021	16:26:04	0	5,115643	2,485498	1,65	314,4312	0,667	83,073	0	1016,08	7,6	9,5	9,2	1	1	1	1	1	1	1	1	1	0	1	-12,262156	274,81597	311,145969	0
15.01.2021	16:26:05	0	4,877707	4,293133	1,575	312,8004	0,671	83,086	0	1016,22	7,6	9,5	9,2	1	1	1	1	1	1	1	1	1	0	1	-11,557435	274,752578	311,552387	0
15.01.2021	16:26:06	0	5,115643	4,632064	1,46625	315,2412	0,666	83,078	0	1016,06	7,6	9,5	9,2	1	1	1	1	1	1	1	1	1	0	1	-9,725159	274,811325	313,6611	0
15.01.2021	16:26:07	0	4,758738	3,61527	1,458	321,7896	0,671	83,068	0	1016,06	7,6	9,5	9,2	1	1	1	1	1	1	1	1	1	0	1	-6,20155	274,812873	317,191996	0
15.01.2021	16:26:08	0	4,996675	3,61527	1,596	326,754	0,668	83,077	0	1016,22	7,6	9,5	9,2	1	1	1	1	1	1	1	1	1	0	1	-8,527132	274,692469	314,300033	0
15.01.2021	16:26:09	0	4,877707	3,163361	1,791	326,0232	0,67	83,085	0	1016,18	7,6	9,5	9,2	1	1	1	1	1	1	1	1	1	0	1	-7,470049	274,64943	315,154837	0
15.01.2021	16:26:10	0	4,996675	3,841224	1,99575	328,1688	0,67	83,073	0	1015,98	7,6	9,5	9,2	1	1	1	1	1	1	1	1	1	0	1	-8,315715	274,689392	314,496983	0
15.01.2021	16:26:11	0	4,877707	4,067178	2,13825	329,6484	0,664	83,079	0	1016,12	7,7	9,5	9,2	1	1	1	1	1	1	1	1	1	0	1	-6,906272	274,825265	316,545607	0
15.01.2021	16:26:12	0	5,234612	4,519087	2,22225	320,4144	0,671	83,086	0	1015,98	7,6	9,5	9,2	1	1	1	1	1	1	1	1	1	0	1	-10,147992	274,795848	313,165422	0
15.01.2021	16:26:13	0	4,63977	2,711452	2,352	335,6496	0,668	83,087	0	1016,16	7,6	9,5	9,2	1	1	1	1	1	1	1	1	1	0	1	-6,906272	274,812873	316,487275	0
15.01.2021	16:26:14	0	4,996675	3,502292	2,487	342,0288	0,663	83,073	0	1015,96	7,6	9,5	9,2	1	1	1	1	1	1	1	1	1	0	1	-7,329105	274,754121	315,787979	0
15.01.2021	16:26:15	0	4,996675	4,745013	2,631	323,3304	0,661	83,087	0	1016,14	7,7	9,5	9,3	1	1	1	1	1	1	1	1	1	0	1	-5,496829	274,823715	317,947756	0
15.01.2021	16:26:16	0	4,758738	2,824429	2,64225	316,584	0,665	83,064	0	1016,1	7,6	9,5	9,2	1	1	1	1	1	1	1	1	1	0	1	-5,637773	274,724812	317,34146	0
15.01.2021	16:26:17	0	4,758738	2,485498	2,7975	317,6964	0,668	83,087	0	1016,08	7,6	9,5	9,2	1	1	1	1	1	1	1	1	1	0	1	-12,544045	274,828364	310,922424	0
15.01.2021	16:26:18	0	4,877707	2,485498	2,814	316,5804	0,665	83,075	0	1015,98	7,6	9,5	9,2	1	1	1	1	1	1	1	1	1	0	1	-4,22833	274,751034	318,874231	0
15.01.2021	16:26:19	0	4,996675	3,389315	2,72775	322,182	0,666	83,083	0	1016,04	7,6	9,5	9,2	1	1	1	1	1	1	1	1	1	0	1	-9,795631	274,822166	313,641661	0
15.01.2021	16:26:20	0	4,63977	3,389315	2,592	322,9524	0,671	83,083	0	1016,08	7,6	9,5	9,2	1	1	1	1	1	1	1	1	1	0	1	-8,245243	274,726354	314,741239	0
15.01.2021	16:26:21	0	4,877707	4,180155	2,4975	313,9776	0,665	83,086	0	1016,1	7,6	9,5	9,2	1	1	1	1	1	1	1	1	1	0	1	-8,174771	274,634082	314,378005	0
15.01.2021	16:26:22	0	4,996675	4,067154	2,30325	317,7432	0,669	83,087	0	1016,14	7,6	9,5	9,3	1	1	1	1	1	1	1	1	1	0	1	-13,319239	274,769565	309,8705	0
15.01.2021	16:26:23	0	4,996675	3,728247	2,16	344,4012	0,67	83,085	0	1016,14	7,6	9,5	9,2	1	1	1	1	1	1	1	1	1	0	1	-11,698379	274,814422	311,702457	0
15.01.2021	16:26:24	0	4,758738	2,824429	2,03475	352,4652	0,662	83,081	0	1016,12	7,6	9,5	9,2	1	1	1	1	1	1	1	1	1	0	1	-7,188161	274,734063	315,834577	0
15.01.2021	16:26:25	0	4,63977	3,61527	1,92	357,2892	0,667	83,087	0	1016,08	7,6	9,5	9,2	1	1	1	1	1	1	1	1	1	0	1	-9,090909	274,817519	314,324507	0
15.01.2021	16:26:26	0	4,996675	3,728224	1,83375	359,5428	0,669	83,087	0	1016,14	7,6	9,5	9,3	1	1	1	1	1	1	1	1	1	0	1	-9,936575	274,763386	313,224093	0
15.01.2021	16:26:27	0	4,63977	2,937407	1,83825	353,2068	0,667	83,072	0	1016,12	7,6	9,5	9,2	1	1	1	1	1	1	1	1	1	0	1	-4,510218	274,640219	318,071394	0
15.01.2021	16:26:28	0	4,877707	3,276338	1,80525	319,2156	0,669	83,068	0	1015,94	7,6	9,5	9,2	1	1	1	1	1	1	1	1	1	0	1	-3,735025	274,734063	319,287713	0
15.01.2021	16:26:29	0	4,758738	4,745041	1,74675	327,168	0,662	83,086	0	1016,14	7,6	9,5	9,2	1	1	1	1	1	1	1	1	1	0	1	-6,8358	274,812873	316,557747	0
15.01.2021	16:26:30	0	4,758738	2,937407	2,04375	337,1112	0,664	83,088	0	1016,2	7,6	9,5	9,2	1	1	1	1	1	1	1	1	1	0	1	-13,6716	274,678625	309,090488	0
15.01.2021	16:26:31	0	4,996675	4,067178	2,24625	327,492	0,67	83,088	0	1016	7,6	9,5	9,2	1	1	1	1	1	1	1	1	1	0	1	-8,245243	274,809776	315,133727	0
15.01.2021	16:26:32	0	4,996675	4,745013	2,373	330,822	0,666	83,084	0	1016,22	7,6	9,5	9,3	1	1	1	1	1	1	1	1	1	0	1	-11,980268	274,751034	311,122293	0
15.01.2021	16:26:33	0	4,877707	4,40611	2,4225	336,4632	0,669	83,091	0	1016,12	7,6	9,5	9,2	1	1	1	1	1	1	1	1	1	0	1	-6,976744	274,825265	316,475135	0
15.01.2021	16:26:34	0	4,63977	3,389315	2,49225	333,4932	0,668	83,086	0	1016,06	7,6	9,5	9,2	1	1	1	1	1	1	1	1	1	0	1	-8,386187	274,76802	314,796282	0
15.01.2021	16:26:35	0	4,63977	3,276338	2,62425	336,3336	0,664	83,093	0	1016,1	7,6	9,5	9,2	1	1	1	1	1	1	1	1	1	0	1	-8,738548	274,638685	313,835854	0
15.01.2021	16:26:36	0	4,996675	3,389315	2,48175	338,0796	0,668	83,098	0	1016,14	7,6	9,5	9,2	1	1	1	1	1	1	1	1	1	0	1	-10,077519	274,775746	313,141301	0
15.01.2021	16:26:37	0	4,877707	3,61527	2,25225	312,4512	0,669	83,101	0	1016,1	7,6	9,5	9,2	1	1	1	1	1	1	1	1	1	0	1	-5,637773	274,826814	317,821401	0
15.01.2021	16:26:38	0	5,115643	4,293133	2,12625	332,0964	0,668	83,099	0	1015,92	7,6	9,5	9,2	1	1	1	1	1	1	1	1	1	0	1	-6,8358	274,775746	316,38302	0
15.01.2021	16:26:39	0	4,758738	4,293133	2,05725	336,9132	0,667	83,089	0	1016,12	7,6	9,5	9,2	1	1	1	1	1	1	1	1	1	0	1	-6,765328	274,803585	316,584499	0
15.01.2021	16:26:40	0	4,996675	2,711452	2,01675	325,5588	0,671	83,1	0	1016,18	7,6	9,5	9,2	1	1	1	1	1	1	1	1	1	0	1	-5,637773	274,658644	317,030413	0
15.01.2021	16:26:41	0	4,996675	3,61527	1,97475	336,7584	0,662	83,092	0	1016,1	7,6	9,5	9,2	1	1	1	1	1	1	1	1	1	0	1	-13,601128	274,805132	309,755984	0
15.01.2021	16:26:42	0	4,996675	4,180155	1,7595	339,21	0,665	83,083	0	1016,04	7,6	9,5	9,2	1	1	1	1	1	1	1	1	1	0	1	-8,174771	274,631013	314,363591	0
15.01.2021	16:26:43	0	4,758738	2,937407	1,65975	343,9188	0,664	83,101	0	1016,14	7,6	9,5	9,2	1	1	1	1	1	1	1	1	1	0	1	-9,231853	274,73869	313,812646	0
15.01.2021	16:26:44	0	4,520801	3,728247	1,56825	332,7192	0,666	83,111	0	1016,22	7,6	9,5	9,2	1	1	1	1	1	1	1	1	1	0	1	-11,06413	274,632547	311,481439	0
15.01.2021	16:26:45	0	4,877707	2,824412	1,42125	337,5864	0,664	83,096	0	1016,18	7,6	9,5	9,3	1	1	1	1	1	1	1	1	1	0	1	-5,778717	274,704784	317,106342	0
15.01.2021	16:26:46	0	4,758738	4,970966	1,35	328,5792	0,664	83,108	0	1016,14	7,6	9,5	9,3	1	1	1	1	1	1	1	1	1	0	1	-10,42988	274,81597	312,978245	0
15.01.2021	16:26:47	0	5,115643	4,067178	1,24125	330,8328	0,662	83,102	0	1016,12	7,6	9,5	9,2	1	1	1	1	1	1	1	1	1	0	1	-8,45666	274,703244	314,421161	0
15.01.2021	16:26:48	0	4,520801	2,485498	1,1565	317,3544	0,669	83,087	0	1016,12	7,6	9,5	9,2	1	1	1	1	1	1	1	1	1	0	1	-6,483439	274,640219	316,098173	0
15.01.2021	16:26:49	0	4,996675	2,711436	1,1535	306,216	0,66	83,08	0	1016,14	7,6	9,5	9,3	1	1	1	1	1	1	1	1	1	0	1	-10,147992	274,744861	312,925533	0
15.01.2021	16:26:50	0	4,877707	4,632064	1,146	318,5352	0,665	83,106	0	1016,18	7,6	9,5	9,2	1	1	1	1	1	1	1	1	1	0	1	-7,188161	274,64943	315,436726	0
15.01.2021	16:26:51	0	4,758738	3,050384	1,1955	339,1956	0,662	83,09	0	1016,12	7,6	9,5	9,2	1	1	1	1	1	1	1	1	1	0	1	-13,248767	274,715566	309,686987	0
15.01.2021	16:26:52	0	4,758738	4,632036	1,17375	352,458	0,662	83,09	0	1016,02	7,6	9,5	9,3	1	1	1	1	1	1	1	1	1	0	1	-10,641297	274,81597	312,766829	0
15.01.2021	16:26:53	0	4,877707	4,519087	1,18125	340,0848	0,661	83,1	0	1016,32	7,6	9,5	9,2	1	1	1	1	1	1	1	1	1	0	1	-8,668076	274,73869	314,376423	0
15.01.2021	16:26:54	0	4,996675	3,728247	1,21575	333,7992	0,665	83,107	0	1016,12	7,6	9,5	9,2	1	1	1	1	1	1	1	1	1	0	1	-8,386187	274,64943	314,238699	0
15.01.2021	16:26:55	0	4,996675	3,050384	1,269	336,3912	0,662	83,107	0	1015,96	7,6	9,5	9,2	1	1	1	1	1	1	1	1	1	0	1	-11,768851	274,727895	311,22488	0
15.01.2021	16:26:56	0	4,877672	3,050384	1,32225	346,0788	0,662	83,105	0	1016	7,6	9,6	9,2	1	1	1	1	1	1	1	1	1	0	1	-8,104299	274,808228	315,267385	0
15.01.2021	16:26:57	0	4,996675	4,745013	1,338	334,224	0,665	83,102	0	1016,14	7,6	9,5	9,3	1	1	1	1	1	1	1	1	1	0	1	-6,8358	274,812873	316,557747	0
15.01.2021	16:26:58	0	4,877707	3,615248	1,31325	330,4188	0,666	83,108	0	1016,12	7,6	9,5	9,3	1	1	1	1	1	1	1	1	1	0	1	-9,513742	274,819068	313,908965	0
15.01.2021	16:26:59	0	5,115643	4,632036	1,23525	330,3432	0,662	83,098	0	1016,1	7,6	9,5	9,3	1	1	1	1	1	1	1	1	1	0	1	-5,144468	274,726354	317,842014	0
15.01.2021	16:27:00	0	5,234612	3,841201	1,22625	328,6728	0,66	83,098	0	1016,04	7,6	9,5	9,3	1	1	1	1	1	1	1	1	1	0	1	-5,496829	274,814422	317,904007	0
15.01.2021	16:27:01	0	5,234612	3,841201	1,22625	328,6728	0,66	83,098	0	1016,04	7,6	9,5	9,3	1	1	1	1	1	1	1	1	1	0	1	-6,131078	274,732521	316,884407	0
15.01.2021	16:27:02	0	4,401802	2,598459	1,2075	322,3008	0,669	83,109	0	1016,16	7,6	9,6	9,3	1	1	1	1	1	1	1	1	1	0	1	-9,302326	274,817519	314,11309	0
15.01.2021	16:27:03	0	4,996675	3,389295	1,119	325,1052	0,664	83,085	0	1016,1	7,6	9,5	9,3	1	1	1	1	1	1	1	1	1	0	1	-11,486963	274,666327	311,217326	0
15.01.2021	16:27:04	0	4,996675	4,632064	1,04925	316,9836	0,665	83,114	0	1016,18	7,6	9,5	9,2	1	1	1	1	1	1	1	1	1	0	1	-6,8358	274,820617	316,594199	0
15.01.2021	16:27:05	0	4,758738	4,406083	1,06425	329,6052	0,664	83,121	0	1016,08	7,6	9,5	9,3	1	1	1	1	1	1	1	1	1	0	1	-12,05074	274,718647	310,899504	0
15.01.2021	16:27:06	0	4,639737	4,745013	1,1325	317,3688	0,666	83,11	0	1016,14	7,6	9,6	9,3	1	1	1	1	1	1	1	1	1	0	1	-11,980268	274,829914	311,493498	0
15.01.2021	16:27:07	0	5,115643	3,728247	1,1895	314,0316	0,669	83,106	0	1016,24	7,6	9,5	9,2	1	1	1	1	1	1	1	1	1	0	1	-10,288936	274,7742	312,922613	0
15.01.2021	16:27:08	0	4,996675	3,502292	1,293	323,2944	0,658	83,113	0	1016,12	7,6	9,5	9,2	1	1	1	1	1	1	1	1	1	0	1	-6,906272	274,647894	315,7114	0
15.01.2021	16:27:09	0	4,520801	3,61527	1,3545	312,4476	0,662	83,114	0	1016,1	7,6	9,5	9,2	1	1	1	1	1	1	1	1	1	0	1	-9,090909	274,666327	313,613379	0
15.01.2021	16:27:10	0	4,877672	4,857989	1,29525	315,8496	0,667	83,107	0	1016,1	7,6	9,6	9,3	1	1	1	1	1	1	1	1	1	0	1	-11,980268	274,775746	311,238552	0
15.01.2021	16:27:11	0	5,115643	4,406083	1,29375	317,7792	0,666	83,113	0	1016	7,6	9,5	9,3	1	1	1	1	1	1	1	1	1	0	1	-7,258633	274,757209	315,872976	0
15.01.2021	16:27:12	0	4,758738	3,163342	1,245	326,7504	0,663	83,113	0	1016,18	7,6	9,5	9,3	1	1	1	1	1	1	1	1	1	0	1	-9,44327	274,632547	313,102299	0
15.01.2021	16:27:13	0	4,877707	3,61527	1,19775	313,3764	0,666	83,105	0	1016,12	7,6	9,5	9,2	1	1	1	1	1	1	1	1	1	0	1	-8,949965	274,695547	313,89167	0
15.01.2021	16:27:14	0	4,52077	2,824412	1,176	286,992	0,665	83,11	0	1016,06	7,6	9,6	9,3	1	1	1	1	1	1	1	1	1	0	1	-9,725159	274,811325	313,6611	0
15.01.2021	16:27:15	0	4,758705	4,406083	1,12575	293,6844	0,663	83,089	0	1016,06	7,6	9,6	9,3	1	1	1	1	1	1	1	1	1	0	1	-6,624383	274,694008	316,210016	0
15.01.2021	16:27:16	0	4,877707	3,502271	1,1385	302,0796	0,664	83,101	0	1016,14	7,6	9,5	9,3	1	1	1	1	1	1	1	1	1	0	1	-11,205074	274,63715	311,362119	0
15.01.2021	16:27:17	0	5,115643	4,970996	1,15875	303,9444	0,657	83,108	0	1015,96	7,6	9,5	9,2	1	1	1	1	1	1	1	1	1	0	1	-11,768851	274,785021	311,493612	0
15.01.2021	16:27:18	0	4,758738	2,937407	1,1565	305,784	0,665	83,106	0	1015,9	7,6	9,5	9,2	1	1	1	1	1	1	1	1	1	0	1	-12,825934	274,689392	309,986765	0
15.01.2021	16:27:19	0	5,115643	3,163342	1,14675	321,1488	0,665	83,122	0	1016,2	7,6	9,5	9,3	1	1	1	1	1	1	1	1	1	0	1	-6,765328	274,638685	315,809074	0
15.01.2021	16:27:20	0	4,877707	2,937389	1,15125	322,9452	0,665	83,112	0	1016,12	7,6	9,5	9,3	1	1	1	1	1	1	1	1	1	0	1	-5,073996	274,740232	317,977759	0
15.01.2021	16:27:21	0	4,758738	4,293107	1,17	332,8704	0,664	83,091	0	1016,06	7,6	9,5	9,3	1	1	1	1	1	1	1	1	1	0	1	-10,147992	274,809776	313,230979	0
15.01.2021	16:27:22	0	4,758738	2,937407	1,19325	335,3868	0,661	83,095	0	1016,02	7,6	9,5	9,2	1	1	1	1	1	1	1	1	1	0	1	-6,8358	274,755665	316,288546	0
15.01.2021	16:27:23	0	4,639737	2,824429	1,25175	325,2024	0,664	83,107	0	1016,16	7,6	9,6	9,2	1	1	1	1	1	1	1	1	1	0	1	-7,892882	274,638685	314,68152	0
15.01.2021	16:27:24	0	4,877707	2,598459	1,36575	319,5684	0,661	83,107	0	1016,18	7,6	9,5	9,3	1	1	1	1	1	1	1	1	1	0	1	-11,627907	274,675549	311,119727	0
15.01.2021	16:27:25	0	4,996675	4,858019	1,401	337,9464	0,666	83,096	0	1016,08	7,6	9,5	9,2	1	1	1	1	1	1	1	1	1	0	1	-9,302326	274,822166	314,134966	0
15.01.2021	16:27:26	0	4,877707	4,406083	1,40775	342,7452	0,66	83,117	0	1016,06	7,6	9,5	9,3	1	1	1	1	1	1	1	1	1	0	1	-8,245243	274,741775	314,813767	0
15.01.2021	16:27:27	0	4,877672	3,728247	1,58025	326,4516	0,668	83,111	0	1016,3	7,6	9,6	9,2	1	1	1	1	1	1	1	1	1	0	1	-11,41649	274,814422	311,984345	0
15.01.2021	16:27:28	0	4,877672	3,276338	1,6575	339,1308	0,661	83,092	0	1016,02	7,6	9,6	9,2	1	1	1	1	1	1	1	1	1	0	1	-7,963354	274,714025	314,965155	0
15.01.2021	16:27:29	0	4,520801	2,711436	1,73175	330,408	0,663	83,117	0	1015,98	7,6	9,5	9,3	1	1	1	1	1	1	1	1	1	0	1	-8,104299	274,798942	315,223678	0
15.01.2021	16:27:30	0	4,877707	4,858019	1,74075	324,1008	0,659	83,115	0	1016,1	7,6	9,5	9,2	1	1	1	1	1	1	1	1	1	0	1	-10,993658	274,710944	311,920366	0
15.01.2021	16:27:31	0	4,282864	2,372506	1,638	332,4888	0,665	83,118	0	1016,04	7,6	9,5	9,3	1	1	1	1	1	1	1	1	1	0	1	-7,610994	274,641754	314,977829	0
15.01.2021	16:27:32	0	4,877672	2,824412	1,6215	325,5192	0,668	83,115	0	1016,04	7,6	9,6	9,3	1	1	1	1	1	1	1	1	1	0	1	-11,980268	274,677087	310,774592	0
15.01.2021	16:27:33	0	4,63977	2,711436	1,596	327,222	0,666	83,114	0	1016,14	7,6	9,5	9,3	1	1	1	1	1	1	1	1	1	0	1	-7,963354	274,644824	314,639892	0
15.01.2021	16:27:34	0	4,877707	4,632036	1,545	343,0944	0,666	83,128	0	1015,94	7,6	9,5	9,3	1	1	1	1	1	1	1	1	1	0	1	-6,765328	274,692469	316,061838	0
15.01.2021	16:27:35	0	4,99664	2,711436	1,494	327,4488	0,666	83,135	0	1016,2	7,6	9,6	9,3	1	1	1	1	1	1	1	1	1	0	1	-7,681466	274,803585	315,668361	0
15.01.2021	16:27:36	0	4,520801	4,745013	1,4265	327,4596	0,664	83,117	0	1016,08	7,6	9,5	9,3	1	1	1	1	1	1	1	1	1	0	1	-7,399577	274,81597	316,008548	0
15.01.2021	16:27:37	0	4,52077	5,196919	1,41075	335,7396	0,669	83,137	0	1016,04	7,6	9,6	9,3	1	1	1	1	1	1	1	1	1	0	1	-8,386187	274,769565	314,803551	0
15.01.2021	16:27:38	0	4,52077	2,598459	1,56675	323,73	0,668	83,135	0	1016,16	7,6	9,6	9,3	1	1	1	1	1	1	1	1	1	0	1	-6,483439	274,786567	316,786301	0
15.01.2021	16:27:39	0	4,99664	4,970966	1,6365	322,6464	0,666	83,111	0	1016,04	7,6	9,6	9,3	1	1	1	1	1	1	1	1	1	0	1	-12,191684	274,694008	310,642715	0
15.01.2021	16:27:40	0	4,63977	4,970966	1,74225	312,8724	0,665	83,14	0	1016,02	7,6	9,5	9,3	1	1	1	1	1	1	1	1	1	0	1	-3,59408	274,631013	318,944282	0
15.01.2021	16:27:41	0	4,520801	4,632036	1,86975	328,9104	0,663	83,113	0	1016,24	7,6	9,5	9,3	1	1	1	1	1	1	1	1	1	0	1	-6,20155	274,661717	316,481074	0
15.01.2021	16:27:42	0	4,877707	3,276318	1,92225	328,8708	0,663	83,133	0	1016,12	7,6	9,5	9,3	1	1	1	1	1	1	1	1	1	0	1	-10,077519	274,644824	312,525727	0
15.01.2021	16:27:43	0	4,758705	4,18013	1,85475	331,1244	0,66	83,13	0	1016,06	7,6	9,6	9,3	1	1	1	1	1	1	1	1	1	0	1	-5,84919	274,678625	316,912898	0
15.01.2021	16:27:44	0	4,99664	3,841201	1,80525	320,04	0,662	83,117	0	1016,08	7,6	9,6	9,3	1	1	1	1	1	1	1	1	1	0	1	-3,664553	274,775746	319,554268	0
15.01.2021	16:27:45	0	4,401802	2,598459	1,8705	321,7824	0,667	83,134	0	1016,02	7,6	9,6	9,3	1	1	1	1	1	1	1	1	1	0	1	-7,399577	274,632547	315,145992	0
15.01.2021	16:27:46	0	4,401833	3,050365	1,845	343,5336	0,667	83,129	0	1016,12	7,6	9,5	9,3	1	1	1	1	1	1	1	1	1	0	1	-2,60747	274,707864	320,29207	0
15.01.2021	16:27:47	0	4,520801	4,067154	1,8525	318,4596	0,669	83,123	0	1016,06	7,6	9,5	9,3	1	1	1	1	1	1	1	1	1	0	1	-7,681466	274,641754	314,907357	0
15.01.2021	16:27:48	0	4,520801	3,050365	1,6995	325,188	0,664	83,137	0	1016,26	7,6	9,5	9,3	1	1	1	1	1	1	1	1	1	0	1	-10,147992	274,730979	312,860242	0
15.01.2021	16:27:49	0	4,163896	3,050365	1,683	313,6032	0,665	83,11	0	1016,08	7,6	9,5	9,3	1	1	1	1	1	1	1	1	1	0	1	-11,486963	274,808228	311,884721	0
15.01.2021	16:27:50	0	4,520801	2,598475	1,65825	318,402	0,669	83,141	0	1016,1	7,6	9,5	9,2	1	1	1	1	1	1	1	1	1	0	1	-8,315715	274,77111	314,881293	0
15.01.2021	16:27:51	0	4,758738	3,728224	1,692	315,522	0,667	83,13	0	1016,1	7,6	9,5	9,3	1	1	1	1	1	1	1	1	1	0	1	-10,570825	274,666327	312,133464	0
15.01.2021	16:27:52	0	4,401802	3,502271	1,62525	315,8388	0,665	83,129	0	1016,14	7,6	9,6	9,3	1	1	1	1	1	1	1	1	1	0	1	-8,033827	274,794301	315,272306	0
15.01.2021	16:27:53	0	4,758738	4,632036	1,58325	321,2676	0,66	83,133	0	1015,98	7,7	9,5	9,3	1	1	1	1	1	1	1	1	1	0	1	-12,684989	274,769565	310,504749	0
15.01.2021	16:27:54	0	4,520801	4,067154	1,54575	332,3484	0,66	83,134	0	1016,04	7,6	9,5	9,3	1	1	1	1	1	1	1	1	1	0	1	-6,20155	274,778837	317,031815	0
15.01.2021	16:27:55	0	4,99664	4,406083	1,59075	324,3708	0,665	83,127	0	1016,08	7,6	9,6	9,3	1	1	1	1	1	1	1	1	1	0	1	-5,637773	274,744861	317,435751	0
15.01.2021	16:27:56	0	4,52077	3,728224	1,614	327,204	0,671	83,136	0	1016,16	7,6	9,6	9,3	1	1	1	1	1	1	1	1	1	0	1	-8,386187	274,629479	314,144969	0
15.01.2021	16:27:57	0	4,520833	2,937389	1,632	330,1884	0,669	83,127	0	1016,08	7,6	9,4	9,3	1	1	1	1	1	1	1	1	1	0	1	-11,768851	274,632547	310,776718	0
15.01.2021	16:27:58	0	4,758738	4,857989	1,743	330,8364	0,661	83,114	0	1016,1	7,6	9,5	9,3	1	1	1	1	1	1	1	1	1	0	1	-8,45666	274,724812	314,522573	0
15.01.2021	16:27:59	0	4,520801	3,502271	1,74525	326,3472	0,663	83,136	0	1016,04	7,6	9,5	9,3	1	1	1	1	1	1	1	1	1	0	1	-14,65821	274,805132	308,698902	0
15.01.2021	16:28:00	0	4,639737	4,51906	1,82475	324,3384	0,662	83,133	0	1016,16	7,6	9,6	9,3	1	1	1	1	1	1	1	1	1	0	1	-7,117689	274,754121	315,999395	0
15.01.2021	16:28:01	0	4,639737	4,51906	1,82475	324,3384	0,662	83,133	0	1016,16	7,6	9,6	9,3	1	1	1	1	1	1	1	1	1	0	1	-8,104299	274,754121	315,012785	0
15.01.2021	16:28:02	0	4,520801	3,276318	1,89	327,1104	0,667	83,123	0	1016,1	7,6	9,5	9,3	1	1	1	1	1	1	1	1	1	0	1	-3,805497	274,621812	318,689641	0
15.01.2021	16:28:03	0	4,758705	4,857989	1,821	339,1704	0,667	83,105	0	1016,02	7,6	9,6	9,3	1	1	1	1	1	1	1	1	1	0	1	-9,513742	274,663253	313,176103	0
15.01.2021	16:28:04	0	4,996675	4,632036	1,8015	334,476	0,666	83,131	0	1016,06	7,6	9,5	9,3	1	1	1	1	1	1	1	1	1	0	1	-13,03735	274,655572	309,6164	0
15.01.2021	16:28:05	0	4,639737	4,40611	1,878	352,0224	0,663	83,121	0	1016,38	7,6	9,6	9,2	1	1	1	1	1	1	1	1	1	0	1	-7,399577	274,763386	315,761091	0
15.01.2021	16:28:06	0	4,758738	4,632036	1,944	340,8588	0,665	83,13	0	1016,2	7,6	9,5	9,3	1	1	1	1	1	1	1	1	1	0	1	-5,919662	274,764931	317,248273	0
15.01.2021	16:28:07	0	4,758705	3,276318	1,98525	345,1212	0,663	83,125	0	1016,12	7,6	9,6	9,3	1	1	1	1	1	1	1	1	1	0	1	-12,684989	274,680162	310,084326	0
15.01.2021	16:28:08	0	4,163867	2,598459	1,995	343,116	0,667	83,119	0	1016,08	7,6	9,6	9,3	1	1	1	1	1	1	1	1	1	0	1	-6,412967	274,614147	316,046169	0
15.01.2021	16:28:09	0	4,639737	3,615248	1,98975	324,036	0,667	83,123	0	1016,14	7,7	9,6	9,3	1	1	1	1	1	1	1	1	1	0	1	-6,624383	274,781929	316,62353	0
15.01.2021	16:28:10	0	4,758705	4,067154	1,95	328,914	0,662	83,127	0	1016,2	7,6	9,6	9,3	1	1	1	1	1	1	1	1	1	0	1	-9,725159	274,674012	313,015249	0
15.01.2021	16:28:11	0	4,163867	2,711436	1,9755	322,7724	0,663	83,12	0	1016,18	7,6	9,6	9,3	1	1	1	1	1	1	1	1	1	0	1	-4,439746	274,635616	318,120238	0
15.01.2021	16:28:12	0	4,52077	4,293107	1,875	325,2168	0,668	83,123	0	1016	7,6	9,6	9,3	1	1	1	1	1	1	1	1	1	0	1	-9,866103	274,694008	312,968297	0
15.01.2021	16:28:13	0	4,639802	3,163342	1,77075	326,0196	0,662	83,113	0	1016,12	7,7	9,4	9,3	1	1	1	1	1	1	1	1	1	0	1	-10,359408	274,678625	312,40268	0
15.01.2021	16:28:14	0	4,282834	2,033577	1,671	323,3304	0,659	83,109	0	1016	7,6	9,6	9,3	1	1	1	1	1	1	1	1	1	0	1	-8,104299	274,78966	315,179996	0
15.01.2021	16:28:15	0	4,520801	3,389295	1,5585	326,7	0,661	83,129	0	1016,12	7,6	9,5	9,3	1	1	1	1	1	1	1	1	1	0	1	-9,513742	274,66479	313,183324	0
15.01.2021	16:28:16	0	4,282834	4,857989	1,47675	325,422	0,666	83,181	0	1016,1	7,6	9,6	9,3	1	1	1	1	1	1	1	1	1	0	1	-6,694856	274,792754	316,603997	0
15.01.2021	16:28:17	0	4,52077	3,389295	1,4475	326,0304	0,665	83,117	0	1016,06	7,6	9,6	9,3	1	1	1	1	1	1	1	1	1	0	1	-8,033827	274,723271	314,938158	0
15.01.2021	16:28:18	0	4,163896	2,372506	1,50675	336,1068	0,667	83,126	0	1016,12	7,6	9,5	9,3	1	1	1	1	1	1	1	1	1	0	1	-9,372798	274,644824	313,230448	0
15.01.2021	16:28:19	0	4,401833	3,389295	1,5465	340,596	0,663	83,118	0	1016,1	7,7	9,5	9,3	1	1	1	1	1	1	1	1	1	0	1	-8,45666	274,794301	314,849473	0
15.01.2021	16:28:20	0	4,639737	2,372506	1,5435	348,9984	0,667	83,122	0	1016,14	7,6	9,6	9,3	1	1	1	1	1	1	1	1	1	0	1	-12,403101	274,689392	310,409598	0
15.01.2021	16:28:21	0	4,401802	3,163342	1,48575	329,7132	0,658	83,111	0	1016,04	7,6	9,6	9,3	1	1	1	1	1	1	1	1	1	0	1	-9,725159	274,623345	312,777182	0
15.01.2021	16:28:22	0	4,639737	3,163342	1,39875	333,1728	0,663	83,126	0	1016,16	7,6	9,6	9,3	1	1	1	1	1	1	1	1	1	0	1	-9,584214	274,732521	313,431271	0
15.01.2021	16:28:23	0	4,282834	4,632036	1,3275	342,3312	0,664	83,134	0	1016,14	7,6	9,6	9,3	1	1	1	1	1	1	1	1	1	0	1	-10,500352	274,595765	311,872451	0
15.01.2021	16:28:24	0	4,044899	4,067154	1,3275	321,8508	0,661	83,115	0	1016,1	7,6	9,6	9,3	1	1	1	1	1	1	1	1	1	0	1	-7,751938	274,772655	315,45234	0
15.01.2021	16:28:25	0	4,401802	4,857989	1,33425	332,0496	0,664	83,123	0	1016,06	7,7	9,6	9,3	1	1	1	1	1	1	1	1	1	0	1	-11,698379	274,61568	310,767956	0
15.01.2021	16:28:26	0	4,163896	4,745013	1,407	336,6072	0,664	83,125	0	1016,14	7,7	9,5	9,3	1	1	1	1	1	1	1	1	1	0	1	-6,624383	274,752578	316,485439	0
15.01.2021	16:28:27	0	4,877672	4,406083	1,44	330,4476	0,664	83,122	0	1016,1	7,7	9,6	9,3	1	1	1	1	1	1	1	1	1	0	1	-13,178295	274,746404	309,902488	0
15.01.2021	16:28:28	0	4,52077	4,745013	1,43625	324,4248	0,666	83,129	0	1016,06	7,6	9,6	9,3	1	1	1	1	1	1	1	1	1	0	1	-8,315715	274,791207	314,975858	0
15.01.2021	16:28:29	0	4,52077	2,824412	1,473	338,0688	0,666	83,131	0	1016,04	7,6	9,6	9,3	1	1	1	1	1	1	1	1	1	0	1	-8,668076	274,744861	314,405448	0
15.01.2021	16:28:30	0	4,63977	3,502271	1,404	340,416	0,667	83,135	0	1016,14	7,6	9,5	9,3	1	1	1	1	1	1	1	1	1	0	1	-6,694856	274,626412	315,821891	0
15.01.2021	16:28:31	0	4,639737	3,615248	1,42875	324,4392	0,667	83,106	0	1016,06	7,7	9,6	9,3	1	1	1	1	1	1	1	1	1	0	1	-6,483439	274,78966	316,800856	0
15.01.2021	16:28:32	0	4,52077	2,824412	1,4265	341,334	0,668	83,122	0	1016	7,7	9,6	9,3	1	1	1	1	1	1	1	1	1	0	1	-9,44327	274,635616	313,116714	0
15.01.2021	16:28:33	0	4,520801	2,937389	1,41075	339,4872	0,667	83,128	0	1015,98	7,6	9,5	9,3	1	1	1	1	1	1	1	1	1	0	1	-8,80902	274,760297	314,337117	0
15.01.2021	16:28:34	0	4,63977	3,841201	1,38975	329,3712	0,667	83,118	0	1016,12	7,6	9,5	9,3	1	1	1	1	1	1	1	1	1	0	1	-8,949965	274,786567	314,319775	0
15.01.2021	16:28:35	0	4,282834	2,824412	1,4355	339,4584	0,662	83,128	0	1016,08	7,6	9,6	9,3	1	1	1	1	1	1	1	1	1	0	1	-9,725159	274,670938	313,000799	0
15.01.2021	16:28:36	0	4,63977	3,276318	1,41225	324,3708	0,664	83,113	0	1016,16	7,6	9,5	9,3	1	1	1	1	1	1	1	1	1	0	1	-6,976744	274,631013	315,561618	0
15.01.2021	16:28:37	0	4,163896	3,050365	1,413	332,4024	0,668	83,115	0	1016,08	7,7	9,5	9,3	1	1	1	1	1	1	1	1	1	0	1	-8,386187	274,672475	314,346995	0
15.01.2021	16:28:38	0	4,163867	2,485483	1,44975	328,266	0,662	83,116	0	1016	7,7	9,6	9,3	1	1	1	1	1	1	1	1	1	0	1	-9,372798	274,606486	313,050354	0
15.01.2021	16:28:39	0	4,52077	3,050365	1,476	330,8112	0,658	83,121	0	1016,1	7,7	9,6	9,3	1	1	1	1	1	1	1	1	1	0	1	-7,610994	274,744861	315,462531	0
15.01.2021	16:28:40	0	4,63977	3,728224	1,53675	326,8476	0,661	83,119	0	1016,24	7,7	9,5	9,3	1	1	1	1	1	1	1	1	1	0	1	-8,315715	274,754121	314,801368	0
15.01.2021	16:28:41	0	4,401802	2,937389	1,53975	347,9796	0,662	83,111	0	1016,12	7,7	9,6	9,3	1	1	1	1	1	1	1	1	1	0	1	-6,765328	274,683238	316,018446	0
15.01.2021	16:28:42	0	4,401802	4,745013	1,46925	339,4224	0,662	83,115	0	1016,02	7,7	9,6	9,3	1	1	1	1	1	1	1	1	1	0	1	-13,883016	274,76802	309,299454	0
15.01.2021	16:28:43	0	4,282834	2,598459	1,44	336,4812	0,663	83,104	0	1016,16	7,6	9,6	9,3	1	1	1	1	1	1	1	1	1	0	1	-8,949965	274,747947	314,138077	0
15.01.2021	16:28:44	0	4,520801	4,632036	1,491	331,1064	0,664	83,114	0	1016,06	7,7	9,5	9,3	1	1	1	1	1	1	1	1	1	0	1	-8,80902	274,66479	313,888046	0
15.01.2021	16:28:45	0	4,163896	2,937389	1,44075	326,7432	0,659	83,11	0	1016,1	7,7	9,5	9,3	1	1	1	1	1	1	1	1	1	0	1	-6,342495	274,638685	316,231907	0
15.01.2021	16:28:46	0	4,163896	2,711436	1,422	337,1652	0,668	83,112	0	1015,88	7,4	9,5	9,3	1	1	1	1	1	1	1	1	1	0	1	-9,020437	274,672475	313,712745	0
15.01.2021	16:28:47	0	4,520801	4,18013	1,40625	327,7872	0,667	83,125	0	1016,18	7,7	9,5	9,3	1	1	1	1	1	1	1	1	1	0	1	-5,355884	274,792754	317,942968	0
15.01.2021	16:28:48	0	4,639737	5,083942	1,4565	330,7824	0,662	83,113	0	1016,14	7,7	9,6	9,3	1	1	1	1	1	1	1	1	1	0	1	-4,298802	274,775746	318,920018	0
15.01.2021	16:28:49	0	4,52077	4,293107	1,41375	337,9896	0,661	83,1	0	1015,96	7,4	9,6	9,3	1	1	1	1	1	1	1	1	1	0	1	-10,147992	274,680162	312,621324	0
15.01.2021	16:28:50	0	4,163867	3,276318	1,31175	345,402	0,666	83,106	0	1016,08	7,7	9,6	9,3	1	1	1	1	1	1	1	1	1	0	1	-7,540521	274,80668	315,823876	0
15.01.2021	16:28:51	0	4,044899	4,293107	1,275	335,6964	0,667	83,103	0	1016	7,4	9,6	9,3	1	1	1	1	1	1	1	1	1	0	1	-7,117689	274,772655	316,086589	0
15.01.2021	16:28:52	0	3,925931	3,841201	1,2645	328,2012	0,667	83,116	0	1016,14	7,6	9,6	9,3	1	1	1	1	1	1	1	1	1	0	1	-10,147992	274,650965	312,48411	0
15.01.2021	16:28:53	0	4,758705	4,745013	1,23975	325,314	0,665	83,118	0	1016,12	7,4	9,6	9,3	1	1	1	1	1	1	1	1	1	0	1	-9,161381	274,660181	313,514024	0
15.01.2021	16:28:54	0	4,52077	4,406083	1,173	327,4416	0,659	83,113	0	1016,1	7,4	9,6	9,3	1	1	1	1	1	1	1	1	1	0	1	-5,708245	274,670938	317,017712	0
15.01.2021	16:28:55	0	4,63977	2,824412	1,101	326,7648	0,664	83,121	0	1016,1	7,7	9,5	9,3	1	1	1	1	1	1	1	1	1	0	1	-8,45666	274,760297	314,689478	0
15.01.2021	16:28:56	0	4,401802	4,293107	1,09125	323,3592	0,657	83,09	0	1016,02	7,4	9,6	9,3	1	1	1	1	1	1	1	1	1	0	1	-8,033827	274,795848	315,279587	0
15.01.2021	16:28:57	0	4,52077	4,745013	1,08225	332,0388	0,665	83,1	0	1016	7,7	9,6	9,3	1	1	1	1	1	1	1	1	1	0	1	-6,483439	274,717106	316,459559	0
15.01.2021	16:28:58	0	4,52077	3,841201	1,11225	338,4144	0,666	83,108	0	1016,2	7,6	9,6	9,3	1	1	1	1	1	1	1	1	1	0	1	-9,725159	274,792754	313,573694	0
15.01.2021	16:28:59	0	4,520801	4,970966	1,09425	331,2036	0,659	83,086	0	1015,92	7,7	9,5	9,3	1	1	1	1	1	1	1	1	1	0	1	-10,993658	274,766475	312,181544	0
15.01.2021	16:29:00	0	4,282864	4,970966	1,02525	326,7324	0,659	83,093	0	1016,2	7,7	9,5	9,3	1	1	1	1	1	1	1	1	1	0	1	-10,711769	274,755665	312,412577	0
15.01.2021	16:29:01	0	4,282864	4,970966	1,02525	326,7324	0,659	83,093	0	1016,2	7,7	9,5	9,3	1	1	1	1	1	1	1	1	1	0	1	-10,711769	274,755665	312,412577	0
15.01.2021	16:29:02	0	4,282834	3,615248	1,09275	328,9716	0,656	83,101	0	1016,06	7,4	9,6	9,3	1	1	1	1	1	1	1	1	1	0	1	-5,84919	274,785021	317,413274	0
15.01.2021	16:29:03	0	4,282834	4,18013	1,13175	325,6164	0,662	83,102	0	1016,14	7,4	9,6	9,3	1	1	1	1	1	1	1	1	1	0	1	-5,84919	274,666327	316,855099	0
15.01.2021	16:29:04	0	4,401833	4,970966	1,16925	332,8164	0,666	83,105	0	1016,14	7,7	9,5	9,3	1	1	1	1	1	1	1	1	1	0	1	-7,681466	274,80668	315,682931	0
15.01.2021	16:29:05	0	4,163896	3,050365	1,1505	334,602	0,654	83,091	0	1016	7,7	9,5	9,3	1	1	1	1	1	1	1	1	1	0	1	-5,073996	274,727895	317,919736	0
15.01.2021	16:29:06	0	4,282864	2,824412	1,1055	310,2948	0,66	83,084	0	1016,04	7,4	9,5	9,3	1	1	1	1	1	1	1	1	1	0	1	-6,8358	274,643289	315,760234	0
15.01.2021	16:29:07	0	4,044899	2,711436	1,11825	316,6632	0,664	83,103	0	1016,06	7,7	9,6	9,3	1	1	1	1	1	1	1	1	1	0	1	-9,513742	274,687853	313,291724	0
15.01.2021	16:29:08	0	4,044899	3,502271	1,1325	327,7944	0,661	83,114	0	1016,06	7,4	9,6	9,3	1	1	1	1	1	1	1	1	1	0	1	-10,782241	274,618746	311,698494	0
15.01.2021	16:29:09	0	4,282864	3,615248	1,18575	333,4932	0,66	83,092	0	1016	7,7	9,5	9,3	1	1	1	1	1	1	1	1	1	0	1	-8,738548	274,683238	314,045226	0
15.01.2021	16:29:10	0	4,520801	4,857989	1,227	339,4008	0,656	83,095	0	1016,1	7,6	9,5	9,3	1	1	1	1	1	1	1	1	1	0	1	-10,641297	274,600359	311,75308	0
15.01.2021	16:29:11	0	4,401802	4,745013	1,20225	334,9476	0,661	83,108	0	1016,1	7,7	9,6	9,3	1	1	1	1	1	1	1	1	1	0	1	-10,500352	274,730979	312,507881	0
15.01.2021	16:29:12	0	4,163896	3,841201	1,1745	343,5588	0,66	83,092	0	1016,02	7,7	9,5	9,3	1	1	1	1	1	1	1	1	1	0	1	-7,117689	274,792754	316,181164	0
15.01.2021	16:29:13	0	4,401802	4,51906	1,13775	345,1896	0,659	83,112	0	1016,12	7,4	9,6	9,3	1	1	1	1	1	1	1	1	1	0	1	-8,104299	274,740232	314,947456	0
15.01.2021	16:29:14	0	4,044927	2,711436	1,1085	336,2544	0,66	83,108	0	1016,12	7,4	9,5	9,3	1	1	1	1	1	1	1	1	1	0	1	-9,231853	274,794301	314,074279	0
15.01.2021	16:29:15	0	4,163867	2,824412	1,07475	332,4816	0,664	83,108	0	1016,2	7,4	9,6	9,3	1	1	1	1	1	1	1	1	1	0	1	-6,694856	274,644824	315,908391	0
15.01.2021	16:29:16	0	4,044927	2,598459	1,04925	334,6776	0,663	83,113	0	1016,08	7,7	9,5	9,3	1	1	1	1	1	1	1	1	1	0	1	-7,470049	274,600359	314,924328	0
15.01.2021	16:29:17	0	4,044927	3,163342	1,02225	330,7572	0,656	83,1	0	1016,02	7,7	9,5	9,3	1	1	1	1	1	1	1	1	1	0	1	-7,399577	274,6817	315,376967	0
15.01.2021	16:29:18	0	4,163867	2,485483	1,0605	325,4688	0,663	83,119	0	1016,16	7,4	9,6	9,3	1	1	1	1	1	1	1	1	1	0	1	-6,483439	274,606486	315,939713	0
15.01.2021	16:29:19	0	4,282864	4,406083	1,08825	330,408	0,657	83,097	0	1016,06	7,7	9,5	9,3	1	1	1	1	1	1	1	1	1	0	1	-10,782241	274,6817	311,994303	0
15.01.2021	16:29:20	0	4,282864	4,18013	1,164	324,0828	0,664	83,113	0	1016,16	7,4	9,5	9,3	1	1	1	1	1	1	1	1	1	0	1	-9,231853	274,785021	314,03061	0
15.01.2021	16:29:21	0	3,925959	2,824412	1,3155	320,1048	0,656	83,096	0	1016,12	7,4	9,5	9,3	1	1	1	1	1	1	1	1	1	0	1	-7,892882	274,654036	314,753651	0
15.01.2021	16:29:22	0	4,044927	4,632036	1,404	328,5468	0,659	83,107	0	1016,1	7,4	9,5	9,3	1	1	1	1	1	1	1	1	1	0	1	-8,033827	274,778837	315,199539	0
15.01.2021	16:29:23	0	4,163896	3,276318	1,518	331,488	0,658	83,108	0	1016,12	7,4	9,5	9,3	1	1	1	1	1	1	1	1	1	0	1	-8,174771	274,672475	314,558411	0
15.01.2021	16:29:24	0	4,282864	2,598459	1,59675	330,102	0,66	83,121	0	1016,08	7,7	9,5	9,3	1	1	1	1	1	1	1	1	1	0	1	-5,073996	274,634082	317,47878	0
15.01.2021	16:29:25	0	4,282864	4,18013	1,71675	315,9108	0,657	83,099	0	1016,12	7,4	9,5	9,3	1	1	1	1	1	1	1	1	1	0	1	-5,708245	274,744861	317,365279	0
15.01.2021	16:29:26	0	4,044927	3,276318	1,82775	331,542	0,665	83,111	0	1016,24	7,7	9,5	9,3	1	1	1	1	1	1	1	1	1	0	1	-9,936575	274,791207	313,354998	0
15.01.2021	16:29:27	0	4,044899	4,745013	1,9155	326,4444	0,654	83,11	0	1015,88	7,4	9,6	9,3	1	1	1	1	1	1	1	1	1	0	1	-3,735025	274,786567	319,534715	0
15.01.2021	16:29:28	0	4,401802	4,406083	2,01975	334,2924	0,659	83,102	0	1015,98	7,4	9,6	9,3	1	1	1	1	1	1	1	1	1	0	1	-8,45666	274,715566	314,479094	0
15.01.2021	16:29:29	0	4,520801	3,389295	2,03475	330,0336	0,661	83,126	0	1016,1	7,4	9,5	9,3	1	1	1	1	1	1	1	1	1	0	1	-7,610994	274,794301	315,695139	0
15.01.2021	16:29:30	0	4,282864	2,937389	2,004	331,5204	0,662	83,129	0	1016,12	7,4	9,5	9,3	1	1	1	1	1	1	1	1	1	0	1	-10,923185	274,666327	311,781103	0
15.01.2021	16:29:31	0	4,163896	4,406083	2,0205	327,4164	0,654	83,116	0	1016,18	7,4	9,5	9,3	1	1	1	1	1	1	1	1	1	0	1	-9,654686	274,594233	312,710927	0
15.01.2021	16:29:32	0	4,163896	4,745013	1,96575	332,9352	0,657	83,106	0	1016	7,4	9,5	9,3	1	1	1	1	1	1	1	1	1	0	1	-5,003524	274,66479	317,693543	0
15.01.2021	16:29:33	0	3,80699	2,485483	1,9275	332,46	0,661	83,128	0	1016,14	7,4	9,5	9,3	1	1	1	1	1	1	1	1	1	0	1	-8,386187	274,777291	314,839905	0
15.01.2021	16:29:34	0	4,401802	4,406083	1,9215	331,6464	0,66	83,111	0	1016,18	7,4	9,6	9,3	1	1	1	1	1	1	1	1	1	0	1	-7,470049	274,791207	315,821524	0
15.01.2021	16:29:35	0	3,688022	2,937389	1,91475	334,5588	0,659	83,093	0	1016	7,4	9,5	9,3	1	1	1	1	1	1	1	1	1	0	1	-8,033827	274,760297	315,112311	0
15.01.2021	16:29:36	0	3,925959	2,146553	1,91925	330,6852	0,656	83,12	0	1016,1	7,4	9,5	9,3	1	1	1	1	1	1	1	1	1	0	1	-8,033827	274,63715	314,533366	0
15.01.2021	16:29:37	0	3,687996	2,937389	1,91925	336,0672	0,659	83,12	0	1016,12	7,4	9,6	9,3	1	1	1	1	1	1	1	1	1	0	1	-12,614517	274,60189	309,787053	0
15.01.2021	16:29:38	0	4,163896	3,728224	1,91925	338,3928	0,659	83,118	0	1016,18	7,4	9,5	9,3	1	1	1	1	1	1	1	1	1	0	1	-7,329105	274,654036	315,317428	0
15.01.2021	16:29:39	0	4,282864	4,632064	1,8645	333,4248	0,657	83,119	0	1016,16	7,7	9,5	9,2	1	1	1	1	1	1	1	1	1	0	1	-7,963354	274,597296	314,416639	0
15.01.2021	16:29:40	0	4,044927	4,745013	1,86075	343,0728	0,66	83,097	0	1015,9	7,4	9,5	9,3	1	1	1	1	1	1	1	1	1	0	1	-6,131078	274,735605	316,898912	0
15.01.2021	16:29:41	0	4,282864	4,406083	1,8285	338,094	0,664	83,11	0	1016,14	7,4	9,5	9,3	1	1	1	1	1	1	1	1	1	0	1	-5,778717	274,783475	317,476471	0
15.01.2021	16:29:42	0	4,282864	2,598459	1,81725	336,0744	0,662	83,114	0	1016,1	7,4	9,5	9,3	1	1	1	1	1	1	1	1	1	0	1	-8,104299	274,700165	314,759045	0
15.01.2021	16:29:43	0	3,925931	2,824412	1,77825	334,6452	0,661	83,11	0	1016,02	7,4	9,6	9,3	1	1	1	1	1	1	1	1	1	0	1	-5,355884	274,591172	316,995351	0
15.01.2021	16:29:44	0	4,163896	3,502271	1,758	334,944	0,659	83,11	0	1016,06	7,7	9,5	9,3	1	1	1	1	1	1	1	1	1	0	1	-4,298802	274,751034	318,803759	0
15.01.2021	16:29:45	0	3,925959	3,954177	1,65825	338,7204	0,66	83,115	0	1016,1	7,4	9,5	9,3	1	1	1	1	1	1	1	1	1	0	1	-7,681466	274,632547	314,864103	0
15.01.2021	16:29:46	0	3,688022	2,937389	1,632	327,1068	0,664	83,111	0	1016,2	7,4	9,5	9,3	1	1	1	1	1	1	1	1	1	0	1	-4,721635	274,58658	317,608039	0
15.01.2021	16:29:47	0	4,163896	4,067154	1,5765	334,6884	0,662	83,098	0	1016,04	7,4	9,5	9,3	1	1	1	1	1	1	1	1	1	0	1	-9,936575	274,667863	312,774936	0
15.01.2021	16:29:48	0	3,925959	4,632036	1,53675	336,4272	0,662	83,107	0	1016,1	7,4	9,5	9,3	1	1	1	1	1	1	1	1	1	0	1	-9,020437	274,777291	314,205655	0
15.01.2021	16:29:49	0	4,163867	4,51906	1,44825	340,2576	0,662	83,113	0	1016,1	7,4	9,6	9,3	1	1	1	1	1	1	1	1	1	0	1	-13,319239	274,703244	309,558581	0
15.01.2021	16:29:50	0	4,163896	2,598459	1,368	341,316	0,664	83,114	0	1016,06	7,4	9,5	9,3	1	1	1	1	1	1	1	1	1	0	1	-3,875969	274,604954	318,539988	0
15.01.2021	16:29:51	0	4,163896	3,615248	1,32	336,762	0,663	83,116	0	1016,08	7,4	9,5	9,3	1	1	1	1	1	1	1	1	1	0	1	-8,386187	274,718647	314,564056	0
15.01.2021	16:29:52	0	3,925959	4,406083	1,263	332,766	0,658	83,107	0	1016,14	7,4	9,5	9,3	1	1	1	1	1	1	1	1	1	0	1	-10,147992	274,77111	313,049016	0
15.01.2021	16:29:53	0	4,282864	4,632036	1,236	335,3292	0,662	83,12	0	1016,04	7,4	9,5	9,3	1	1	1	1	1	1	1	1	1	0	1	-12,473573	274,657108	310,187395	0
15.01.2021	16:29:54	0	4,520801	4,406083	1,2225	334,2564	0,658	83,116	0	1016,06	7,4	9,5	9,3	1	1	1	1	1	1	1	1	1	0	1	-5,637773	274,734063	317,384964	0
15.01.2021	16:29:55	0	4,044927	2,824429	1,21125	330,0048	0,661	83,121	0	1016,02	7,4	9,5	9,2	1	1	1	1	1	1	1	1	1	0	1	-8,104299	274,600359	314,290078	0
15.01.2021	16:29:56	0	4,163896	3,163342	1,2435	329,6448	0,656	83,11	0	1015,96	7,4	9,5	9,3	1	1	1	1	1	1	1	1	1	0	1	-10,711769	274,737147	312,325476	0
15.01.2021	16:29:57	0	4,044899	3,050365	1,26225	328,41	0,657	83,127	0	1016,02	7,4	9,6	9,3	1	1	1	1	1	1	1	1	1	0	1	-11,627907	274,777291	311,598185	0
15.01.2021	16:29:58	0	3,925959	2,824412	1,30725	318,4092	0,658	83,116	0	1016,04	7,4	9,5	9,3	1	1	1	1	1	1	1	1	1	0	1	-7,963354	274,674012	314,777053	0
15.01.2021	16:29:59	0	3,925931	4,406083	1,36875	322,2756	0,658	83,094	0	1016,08	7,4	9,6	9,3	1	1	1	1	1	1	1	1	1	0	1	-11,134602	274,617213	311,338933	0
15.01.2021	16:30:00	0	4,044927	3,841224	1,42125	327,8808	0,661	83,119	0	1016,14	7,4	9,5	9,2	1	1	1	1	1	1	1	1	1	0	1	-8,949965	274,646359	313,660494	0
15.01.2021	16:30:01	0	3,925959	3,728224	1,45425	324,8136	0,659	83,119	0	1016,14	7,4	9,5	9,3	1	1	1	1	1	1	1	1	1	0	1	-6,553911	274,741775	316,505099	0
15.01.2021	16:30:02	0	4,044927	2,937389	1,509	327,1212	0,655	83,107	0	1016,12	7,4	9,5	9,3	1	1	1	1	1	1	1	1	1	0	1	-9,372798	274,606486	313,050354	0
15.01.2021	16:30:03	0	4,282864	4,745013	1,512	324,7164	0,657	83,109	0	1016,02	7,4	9,5	9,3	1	1	1	1	1	1	1	1	1	0	1	-8,738548	274,721729	314,226189	0
15.01.2021	16:30:04	0	4,163896	4,406083	1,50675	331,5492	0,657	83,124	0	1016,08	7,4	9,5	9,3	1	1	1	1	1	1	1	1	1	0	1	-6,906272	274,746404	316,174511	0
15.01.2021	16:30:05	0	4,163896	3,728224	1,51875	322,6176	0,66	83,131	0	1016,08	7,4	9,5	9,3	1	1	1	1	1	1	1	1	1	0	1	-11,134602	274,775746	312,084218	0
15.01.2021	16:30:06	0	4,163896	2,711436	1,5945	326,736	0,653	83,123	0	1016,02	7,4	9,5	9,3	1	1	1	1	1	1	1	1	1	0	1	-8,174771	274,632547	314,370798	0
15.01.2021	16:30:07	0	4,044927	4,293107	1,6695	326,43	0,661	83,128	0	1016,08	7,4	9,5	9,3	1	1	1	1	1	1	1	1	1	0	1	-9,866103	274,723271	313,105882	0
15.01.2021	16:30:08	0	3,569054	2,485483	1,76325	335,772	0,657	83,103	0	1016,1	7,4	9,5	9,3	1	1	1	1	1	1	1	1	1	0	1	-8,527132	274,591172	313,824104	0
15.01.2021	16:30:09	0	4,044927	4,970966	1,7865	326,4516	0,66	83,127	0	1016,12	7,4	9,5	9,3	1	1	1	1	1	1	1	1	1	0	1	-7,399577	274,718647	315,550667	0
15.01.2021	16:30:10	0	3,688022	3,050384	1,791	335,646	0,654	83,12	0	1016,1	7,7	9,5	9,2	1	1	1	1	1	1	1	1	1	0	1	-4,792107	274,614147	317,667029	0
15.01.2021	16:30:11	0	3,925959	4,51906	1,767	323,316	0,658	83,107	0	1016,04	7,4	9,5	9,3	1	1	1	1	1	1	1	1	1	0	1	-6,765328	274,764931	316,402607	0
15.01.2021	16:30:12	0	3,925959	4,745041	1,695	328,1868	0,655	83,11	0	1016	7,4	9,5	9,2	1	1	1	1	1	1	1	1	1	0	1	-9,513742	274,632547	313,031827	0
15.01.2021	16:30:13	0	3,80699	3,389295	1,6605	335,8116	0,658	83,122	0	1016,02	7,4	9,5	9,3	1	1	1	1	1	1	1	1	1	0	1	-8,879493	274,715566	314,056261	0
15.01.2021	16:30:14	0	4,044927	3,728224	1,659	333,9036	0,654	83,134	0	1016,14	7,4	9,5	9,3	1	1	1	1	1	1	1	1	1	0	1	-9,090909	274,777291	314,135183	0
15.01.2021	16:30:15	0	4,044927	3,954177	1,63875	331,5744	0,659	83,136	0	1016,14	7,4	9,5	9,3	1	1	1	1	1	1	1	1	1	0	1	-6,272023	274,734063	316,750715	0
15.01.2021	16:30:16	0	3,80699	4,857989	1,59	335,7792	0,657	83,124	0	1016,1	7,4	9,5	9,3	1	1	1	1	1	1	1	1	1	0	1	-12,614517	274,752578	310,495305	0
15.01.2021	16:30:17	0	4,044927	4,970996	1,56375	337,5504	0,656	83,134	0	1016,04	7,4	9,5	9,2	1	1	1	1	1	1	1	1	1	0	1	-8,597604	274,726354	314,388878	0
15.01.2021	16:30:18	0	3,925959	3,050365	1,62675	327,7404	0,656	83,133	0	1016,16	7,4	9,5	9,3	1	1	1	1	1	1	1	1	1	0	1	-5,637773	274,594233	316,72784	0
15.01.2021	16:30:19	0	4,163896	3,615248	1,6035	315,1908	0,661	83,13	0	1015,96	7,4	9,5	9,3	1	1	1	1	1	1	1	1	1	0	1	-3,523608	274,718647	319,426636	0
15.01.2021	16:30:20	0	3,688022	4,293107	1,55775	310,7124	0,657	83,121	0	1016,08	7,4	9,5	9,3	1	1	1	1	1	1	1	1	1	0	1	-8,879493	274,57434	313,392714	0
15.01.2021	16:30:21	0	4,044927	4,51906	1,43175	317,0484	0,655	83,114	0	1016,04	7,4	9,5	9,3	1	1	1	1	1	1	1	1	1	0	1	-14,65821	274,66479	308,038856	0
15.01.2021	16:30:22	0	3,569054	4,067154	1,35825	313,2612	0,65	83,128	0	1016,06	7,4	9,5	9,3	1	1	1	1	1	1	1	1	1	0	1	-11,627907	274,777291	311,598185	0
15.01.2021	16:30:23	0	3,80699	4,970966	1,26675	314,0784	0,657	83,137	0	1016,12	7,4	9,5	9,3	1	1	1	1	1	1	1	1	1	0	1	-8,45666	274,661717	314,225965	0
15.01.2021	16:30:24	0	3,925959	3,276338	1,20525	306,8208	0,659	83,128	0	1016,02	7,4	9,5	9,2	1	1	1	1	1	1	1	1	1	0	1	-10,288936	274,76802	312,893534	0
15.01.2021	16:30:25	0	3,80699	4,067154	1,1865	306,1044	0,661	83,133	0	1016,16	7,4	9,5	9,3	1	1	1	1	1	1	1	1	1	0	1	-6,412967	274,64943	316,21192	0
15.01.2021	16:30:26	0	3,925959	3,050365	1,16475	321,9804	0,65	83,122	0	1015,94	7,4	9,5	9,3	1	1	1	1	1	1	1	1	1	0	1	-9,866103	274,772655	313,338175	0
15.01.2021	16:30:27	0	3,925959	2,937389	1,173	317,6892	0,656	83,141	0	1016,12	7,4	9,5	9,3	1	1	1	1	1	1	1	1	1	0	1	-8,527132	274,6694	314,191602	0
15.01.2021	16:30:28	0	3,450085	2,485483	1,24425	302,4864	0,66	83,119	0	1016,08	7,4	9,5	9,3	1	1	1	1	1	1	1	1	1	0	1	-7,681466	274,600359	314,712911	0
15.01.2021	16:30:29	0	3,80699	2,937389	1,42125	278,0856	0,658	83,124	0	1016,02	7,4	9,5	9,3	1	1	1	1	1	1	1	1	1	0	1	-6,342495	274,723271	316,62949	0
15.01.2021	16:30:30	0	4,044927	4,51906	1,5465	297,5652	0,657	83,114	0	1015,96	7,4	9,5	9,3	1	1	1	1	1	1	1	1	1	0	1	-10,359408	274,597296	312,020586	0
15.01.2021	16:30:31	0	3,80699	2,824412	1,584	300,9096	0,658	83,126	0	1016,12	7,4	9,5	9,3	1	1	1	1	1	1	1	1	1	0	1	-7,540521	274,631013	314,997841	0
15.01.2021	16:30:32	0	4,163896	3,954177	1,6425	301,2588	0,658	83,126	0	1016,14	7,4	9,5	9,3	1	1	1	1	1	1	1	1	1	0	1	-10,500352	274,612615	311,951586	0
15.01.2021	16:30:33	0	3,569054	3,728224	1,51275	340,848	0,654	83,13	0	1016,16	7,4	9,5	9,3	1	1	1	1	1	1	1	1	1	0	1	-8,738548	274,60189	313,663022	0
15.01.2021	16:30:34	0	4,163896	3,502271	1,33125	343,9152	0,656	83,124	0	1016,16	7,4	9,5	9,3	1	1	1	1	1	1	1	1	1	0	1	-4,510218	274,766475	318,664984	0
15.01.2021	16:30:35	0	3,925959	3,61527	1,19925	330,4584	0,654	83,13	0	1015,98	7,4	9,5	9,2	1	1	1	1	1	1	1	1	1	0	1	-11,346018	274,626412	311,170729	0
15.01.2021	16:30:36	0	4,163896	3,389315	1,08975	334,2888	0,658	83,116	0	1016,12	7,4	9,5	9,2	1	1	1	1	1	1	1	1	1	0	1	-13,6716	274,757209	309,460009	0
15.01.2021	16:30:37	0	3,569054	2,937389	0,98925	324,7668	0,659	83,135	0	1016,18	7,4	9,5	9,3	1	1	1	1	1	1	1	1	1	0	1	-4,721635	274,623345	317,780705	0
15.01.2021	16:30:38	0	3,80699	3,841224	0,942	313,5384	0,658	83,128	0	1016	7,4	9,5	9,2	1	1	1	1	1	1	1	1	1	0	1	-13,883016	274,729437	309,117966	0
15.01.2021	16:30:39	0	3,80699	5,083942	0,85425	320,454	0,663	83,143	0	1016,28	7,4	9,5	9,3	1	1	1	1	1	1	1	1	1	0	1	-6,342495	274,758753	316,796378	0
15.01.2021	16:30:40	0	3,569054	3,050365	0,864	0,486	0,661	83,126	0	1015,98	7,4	9,5	9,3	1	1	1	1	1	1	1	1	1	0	1	-3,171247	274,379554	318,187437	0
15.01.2021	16:30:41	0	4,044927	4,857989	1,002	351,7488	0,648	83,124	0	1016,08	7,4	9,5	9,3	1	1	1	1	1	1	1	1	1	0	1	-7,470049	274,603422	314,938714	0
15.01.2021	16:30:42	0	3,80699	2,598459	1,14825	336,4236	0,678	83,147	0	1016,32	7,4	9,5	9,3	1	1	1	1	1	1	1	1	1	0	1	-9,020437	274,707864	313,879103	0
15.01.2021	16:30:43	0	3,569054	3,050365	1,251	341,0208	0,663	83,147	0	1016,14	7,4	9,5	9,3	1	1	1	1	1	1	1	1	1	0	1	-5,144468	274,57587	317,13492	0
15.01.2021	16:30:44	0	3,688022	3,276338	1,32	342,4428	0,658	83,138	0	1016,28	7,5	9,5	9,2	1	1	1	1	1	1	1	1	1	0	1	-5,708245	274,754121	317,408838	0
15.01.2021	16:30:45	0	4,044927	3,050384	1,3455	342,6876	0,656	83,134	0	1016,06	7,4	9,5	9,2	1	1	1	1	1	1	1	1	1	0	1	-7,188161	274,621812	315,306977	0
15.01.2021	16:30:46	0	3,569054	5,083942	1,3425	334,206	0,655	83,119	0	1016,16	7,4	9,5	9,3	1	1	1	1	1	1	1	1	1	0	1	-6,272023	274,760297	316,874115	0
15.01.2021	16:30:47	0	3,569054	3,61527	1,359	338,7888	0,653	83,133	0	1015,96	7,5	9,5	9,2	1	1	1	1	1	1	1	1	1	0	1	-8,597604	274,641754	313,991219	0
15.01.2021	16:30:48	0	3,569054	3,61527	1,35525	346,5504	0,652	83,137	0	1016,08	7,4	9,5	9,2	1	1	1	1	1	1	1	1	1	0	1	-6,765328	274,754121	316,351756	0
15.01.2021	16:30:49	0	3,688022	3,050365	1,389	339,1272	0,659	83,133	0	1016,14	7,4	9,5	9,3	1	1	1	1	1	1	1	1	1	0	1	-8,104299	274,66479	314,592768	0
15.01.2021	16:30:50	0	4,044927	4,857989	1,38	338,7132	0,651	83,133	0	1015,88	7,4	9,5	9,3	1	1	1	1	1	1	1	1	1	0	1	-5,708245	274,758753	317,430628	0
15.01.2021	16:30:51	0	3,80699	4,51906	1,37325	339,9048	0,656	83,137	0	1016,06	7,4	9,5	9,3	1	1	1	1	1	1	1	1	1	0	1	-6,20155	274,729437	316,799432	0
15.01.2021	16:30:52	0	3,688022	4,406083	1,33875	341,316	0,655	83,139	0	1016,18	7,4	9,5	9,3	1	1	1	1	1	1	1	1	1	0	1	-2,818887	274,598827	319,568299	0
15.01.2021	16:30:53	0	4,044927	4,40611	1,32075	339,8868	0,652	83,146	0	1016,12	7,4	9,5	9,2	1	1	1	1	1	1	1	1	1	0	1	-10,359408	274,698626	312,496699	0
15.01.2021	16:30:54	0	3,688022	4,406083	1,32825	334,3032	0,652	83,134	0	1016,04	7,4	9,5	9,3	1	1	1	1	1	1	1	1	1	0	1	-4,933051	274,589641	317,410996	0
15.01.2021	16:30:55	0	3,569054	4,51906	1,3575	326,0736	0,654	83,132	0	1016,12	7,4	9,5	9,3	1	1	1	1	1	1	1	1	1	0	1	-7,610994	274,717106	315,332005	0
15.01.2021	16:30:56	0	3,212148	3,050384	1,43025	342,0252	0,656	83,131	0	1016,04	7,5	9,5	9,2	1	1	1	1	1	1	1	1	1	0	1	-7,751938	274,589641	314,59211	0
15.01.2021	16:30:57	0	3,688022	2,598475	1,6275	324,1548	0,659	83,148	0	1016	7,4	9,5	9,2	1	1	1	1	1	1	1	1	1	0	1	-2,466526	274,617213	320,007009	0
15.01.2021	16:30:58	0	3,569054	2,711436	1,8135	335,034	0,656	83,137	0	1016,12	7,5	9,5	9,3	1	1	1	1	1	1	1	1	1	0	1	-4,792107	274,755665	318,332239	0
15.01.2021	16:30:59	0	3,450085	4,40611	1,88925	331,1352	0,654	83,154	0	1016,1	7,4	9,5	9,2	1	1	1	1	1	1	1	1	1	0	1	-9,936575	274,760297	313,209562	0
15.01.2021	16:31:00	0	3,688022	4,293133	1,944	338,418	0,656	83,141	0	1016	7,4	9,5	9,2	1	1	1	1	1	1	1	1	1	0	1	-8,80902	274,712485	314,112246	0
15.01.2021	16:31:01	0	3,688022	4,293133	1,944	338,418	0,656	83,141	0	1016	7,4	9,5	9,2	1	1	1	1	1	1	1	1	1	0	1	-7,047216	274,740232	316,004538	0
15.01.2021	16:31:02	0	3,450085	4,632064	2,05875	332,8668	0,649	83,149	0	1015,94	7,4	9,5	9,2	1	1	1	1	1	1	1	1	1	0	1	-8,949965	274,591172	313,401271	0
15.01.2021	16:31:03	0	3,688022	3,050384	2,16675	328,5648	0,652	83,153	0	1016,12	7,4	9,5	9,2	1	1	1	1	1	1	1	1	1	0	1	-3,24172	274,627946	319,282232	0
15.01.2021	16:31:04	0	3,80699	4,858019	2,17725	324,8136	0,651	83,146	0	1015,92	7,4	9,5	9,2	1	1	1	1	1	1	1	1	1	0	1	-10,993658	274,60955	311,443886	0
15.01.2021	16:31:05	0	3,80699	3,389295	2,1585	332,1288	0,652	83,16	0	1016,14	7,4	9,5	9,3	1	1	1	1	1	1	1	1	1	0	1	-4,721635	274,730979	318,286598	0
15.01.2021	16:31:06	0	3,688022	3,841224	2,1375	334,3644	0,651	83,159	0	1016,14	7,4	9,5	9,2	1	1	1	1	1	1	1	1	1	0	1	-6,412967	274,7742	316,798582	0
15.01.2021	16:31:07	0	3,569054	3,502292	1,98225	321,9012	0,654	83,152	0	1016,16	7,4	9,5	9,2	1	1	1	1	1	1	1	1	1	0	1	-9,654686	274,704784	313,230373	0
15.01.2021	16:31:08	0	3,688022	3,615248	1,88625	324,0792	0,651	83,143	0	1016,06	7,4	9,5	9,3	1	1	1	1	1	1	1	1	1	0	1	-6,272023	274,640219	316,309589	0
15.01.2021	16:31:09	0	3,80699	4,40611	1,82025	330,3468	0,653	83,146	0	1016,12	7,4	9,5	9,2	1	1	1	1	1	1	1	1	1	0	1	-9,654686	274,740232	313,397068	0
15.01.2021	16:31:10	0	3,331117	2,598459	1,70175	316,4364	0,654	83,157	0	1016,04	7,4	9,5	9,3	1	1	1	1	1	1	1	1	1	0	1	-5,426357	274,63715	317,140836	0
15.01.2021	16:31:11	0	3,331117	3,389315	1,59075	323,3916	0,654	83,165	0	1016,04	7,4	9,5	9,2	1	1	1	1	1	1	1	1	1	0	1	-7,963354	274,585049	314,359134	0
15.01.2021	16:31:12	0	3,688022	3,954177	1,539	330,7788	0,656	83,154	0	1016,24	7,5	9,5	9,3	1	1	1	1	1	1	1	1	1	0	1	-4,439746	274,723271	318,532238	0
15.01.2021	16:31:13	0	3,450085	4,067178	1,4625	317,0448	0,658	83,168	0	1016,04	7,4	9,5	9,2	1	1	1	1	1	1	1	1	1	0	1	-6,272023	274,74949	316,823278	0
15.01.2021	16:31:14	0	3,80699	4,293133	1,44	322,2144	0,651	83,154	0	1016,04	7,5	9,5	9,2	1	1	1	1	1	1	1	1	1	0	1	-8,738548	274,734063	314,284189	0
15.01.2021	16:31:15	0	3,688022	4,632064	1,3725	329,0076	0,656	83,169	0	1016,14	7,4	9,5	9,2	1	1	1	1	1	1	1	1	1	0	1	-9,090909	274,595765	313,281894	0
15.01.2021	16:31:16	0	3,688022	4,40611	1,38675	322,5816	0,657	83,167	0	1016,06	7,5	9,5	9,2	1	1	1	1	1	1	1	1	1	0	1	-7,892882	274,726354	315,0936	0
15.01.2021	16:31:17	0	3,450085	3,502292	1,4175	330,7716	0,659	83,17	0	1016,08	7,4	9,5	9,2	1	1	1	1	1	1	1	1	1	0	1	-9,513742	274,632547	313,031827	0
15.01.2021	16:31:18	0	3,450085	2,598475	1,42575	333,2124	0,649	83,168	0	1016,1	7,4	9,5	9,2	1	1	1	1	1	1	1	1	1	0	1	-11,346018	274,568223	310,897471	0
15.01.2021	16:31:19	0	3,569054	2,711452	1,42125	325,5444	0,655	83,169	0	1016	7,4	9,5	9,2	1	1	1	1	1	1	1	1	1	0	1	-7,82241	274,660181	314,852995	0
15.01.2021	16:31:20	0	3,331117	2,824429	1,389	333,2448	0,655	83,172	0	1016,16	7,4	9,5	9,2	1	1	1	1	1	1	1	1	1	0	1	-9,44327	274,595765	312,929533	0
15.01.2021	16:31:21	0	3,450085	4,970996	1,40775	331,1028	0,652	83,167	0	1016,1	7,4	9,5	9,2	1	1	1	1	1	1	1	1	1	0	1	-9,866103	274,644824	312,737143	0
15.01.2021	16:31:22	0	3,569054	3,61527	1,48725	327,816	0,658	83,167	0	1016,2	7,5	9,5	9,2	1	1	1	1	1	1	1	1	1	0	1	-7,540521	274,754121	315,576562	0
15.01.2021	16:31:23	0	3,212148	2,937407	1,53375	333,8676	0,663	83,168	0	1016,08	7,4	9,5	9,2	1	1	1	1	1	1	1	1	1	0	1	-5,355884	274,670938	317,370073	0
15.01.2021	16:31:24	0	3,212148	2,485498	1,614	322,6248	0,653	83,176	0	1016,14	7,5	9,5	9,2	1	1	1	1	1	1	1	1	1	0	1	-7,892882	274,58658	314,436792	0
15.01.2021	16:31:25	0	3,688022	4,067178	1,61775	323,3448	0,66	83,168	0	1016,18	7,4	9,5	9,2	1	1	1	1	1	1	1	1	1	0	1	-11,134602	274,720188	311,822888	0
15.01.2021	16:31:26	0	3,688022	4,745041	1,54425	327,5244	0,659	83,162	0	1016,18	7,5	9,5	9,2	1	1	1	1	1	1	1	1	1	0	1	-10,711769	274,760297	312,434368	0
15.01.2021	16:31:27	0	3,331117	2,937407	1,57575	330,0696	0,66	83,164	0	1016,06	7,5	9,5	9,2	1	1	1	1	1	1	1	1	1	0	1	-9,795631	274,621812	312,699507	0
15.01.2021	16:31:28	0	3,212148	2,598475	1,55175	330,4224	0,656	83,17	0	1016,1	7,4	9,5	9,2	1	1	1	1	1	1	1	1	1	0	1	-6,20155	274,717106	316,741448	0
15.01.2021	16:31:29	0	3,212148	2,146553	1,5435	327,1536	0,661	83,16	0	1016,1	7,4	9,5	9,3	1	1	1	1	1	1	1	1	1	0	1	-5,990134	274,763386	317,170534	0
15.01.2021	16:31:30	0	3,212148	3,163361	1,56525	328,9716	0,653	83,167	0	1016,06	7,5	9,5	9,2	1	1	1	1	1	1	1	1	1	0	1	-6,976744	274,6817	315,7998	0
15.01.2021	16:31:31	0	3,09318	2,711452	1,536	336,6864	0,654	83,173	0	1016,22	7,4	9,5	9,2	1	1	1	1	1	1	1	1	1	0	1	-2,889359	274,754121	320,227725	0
15.01.2021	16:31:32	0	3,569054	3,615248	1,473	335,3508	0,654	83,168	0	1016,08	7,5	9,5	9,3	1	1	1	1	1	1	1	1	1	0	1	-8,033827	274,66479	314,66324	0
15.01.2021	16:31:33	0	3,331117	4,180155	1,389	336,8376	0,655	83,178	0	1016,12	7,4	9,5	9,2	1	1	1	1	1	1	1	1	1	0	1	-6,060606	274,764931	317,107329	0
15.01.2021	16:31:34	0	3,569054	3,163342	1,35225	331,956	0,652	83,168	0	1016,2	7,4	9,5	9,3	1	1	1	1	1	1	1	1	1	0	1	-7,963354	274,670938	314,762603	0
15.01.2021	16:31:35	0	3,569054	4,745041	1,341	332,4348	0,655	83,181	0	1016,08	7,5	9,5	9,2	1	1	1	1	1	1	1	1	1	0	1	-6,553911	274,568223	315,689578	0
15.01.2021	16:31:36	0	3,569054	4,406083	1,30575	326,7972	0,655	83,179	0	1016,1	7,5	9,5	9,3	1	1	1	1	1	1	1	1	1	0	1	-6,8358	274,695547	316,005835	0
15.01.2021	16:31:37	0	3,450085	4,180155	1,35075	322,6032	0,66	83,176	0	1016,26	7,4	9,5	9,2	1	1	1	1	1	1	1	1	1	0	1	-10,641297	274,772655	312,562981	0
15.01.2021	16:31:38	0	3,331117	2,824429	1,28625	340,6716	0,658	83,177	0	1016,06	7,4	9,5	9,2	1	1	1	1	1	1	1	1	1	0	1	-7,963354	274,726354	315,023127	0
15.01.2021	16:31:39	0	3,212148	4,519087	1,2555	342,4032	0,658	83,163	0	1016,04	7,4	9,5	9,2	1	1	1	1	1	1	1	1	1	0	1	-9,231853	274,758753	313,907019	0
15.01.2021	16:31:40	0	3,331117	3,61527	1,2255	330,3684	0,655	83,176	0	1016,06	7,5	9,5	9,2	1	1	1	1	1	1	1	1	1	0	1	-13,883016	274,64943	308,74187	0
15.01.2021	16:31:41	0	3,212148	2,146566	1,20225	332,7732	0,655	83,172	0	1016,12	7,4	9,5	9,2	1	1	1	1	1	1	1	1	1	0	1	-7,258633	274,577399	315,027937	0
15.01.2021	16:31:42	0	3,688022	4,632064	1,18425	328,2516	0,649	83,166	0	1016,16	7,5	9,5	9,2	1	1	1	1	1	1	1	1	1	0	1	-7,963354	274,680162	314,805961	0
15.01.2021	16:31:43	0	3,569054	3,050384	1,22925	318,4668	0,652	83,152	0	1016,02	7,5	9,5	9,2	1	1	1	1	1	1	1	1	1	0	1	-6,342495	274,581989	315,965624	0
15.01.2021	16:31:44	0	3,569054	3,163361	1,398	317,8332	0,655	83,166	0	1015,96	7,5	9,5	9,2	1	1	1	1	1	1	1	1	1	0	1	-5,84919	274,718647	317,101054	0
15.01.2021	16:31:45	0	3,80699	4,745041	1,48875	326,43	0,657	83,171	0	1016,12	7,5	9,5	9,2	1	1	1	1	1	1	1	1	1	0	1	-5,21494	274,632547	317,330629	0
15.01.2021	16:31:46	0	3,688022	4,858019	1,554	313,2	0,658	83,163	0	1016,12	7,5	9,5	9,2	1	1	1	1	1	1	1	1	1	0	1	-5,285412	274,743318	317,780855	0
15.01.2021	16:31:47	0	3,331117	2,711452	1,53525	328,9176	0,654	83,167	0	1016,18	7,5	9,5	9,2	1	1	1	1	1	1	1	1	1	0	1	-3,735025	274,686315	319,06321	0
15.01.2021	16:31:48	0	3,212148	2,598475	1,46925	344,3328	0,657	83,158	0	1016,24	7,5	9,5	9,2	1	1	1	1	1	1	1	1	1	0	1	-6,131078	274,760297	317,015059	0
15.01.2021	16:31:49	0	3,331117	2,711452	1,34475	337,1544	0,655	83,159	0	1016,04	7,5	9,5	9,2	1	1	1	1	1	1	1	1	1	0	1	-10,42988	274,617213	312,043655	0
15.01.2021	16:31:50	0	3,688022	2,824429	1,28775	337,572	0,656	83,165	0	1016,18	7,5	9,5	9,2	1	1	1	1	1	1	1	1	1	0	1	-6,624383	274,700165	316,238961	0
15.01.2021	16:31:51	0	3,331117	2,598475	1,2465	332,5248	0,655	83,173	0	1016,1	7,5	9,5	9,2	1	1	1	1	1	1	1	1	1	0	1	-8,45666	274,76802	314,72581	0
15.01.2021	16:31:52	0	3,569054	4,40611	1,28775	327,8592	0,66	83,162	0	1016,1	7,5	9,5	9,2	1	1	1	1	1	1	1	1	1	0	1	-9,513742	274,695547	313,327893	0
15.01.2021	16:31:53	0	3,569054	3,389315	1,40625	347,2452	0,66	83,166	0	1016,1	7,5	9,5	9,2	1	1	1	1	1	1	1	1	1	0	1	-6,553911	274,57434	315,718296	0
15.01.2021	16:31:54	0	3,569054	3,050384	1,4175	357,6384	0,657	83,177	0	1016,08	7,5	9,5	9,2	1	1	1	1	1	1	1	1	1	0	1	-5,708245	274,643289	316,887789	0
15.01.2021	16:31:55	0	3,80699	4,180155	1,4715	350,7804	0,653	83,171	0	1016,12	7,5	9,5	9,2	1	1	1	1	1	1	1	1	1	0	1	-6,624383	274,58811	315,712477	0
15.01.2021	16:31:56	0	3,688022	3,276338	1,527	341,3592	0,656	83,175	0	1016,16	7,5	9,5	9,2	1	1	1	1	1	1	1	1	1	0	1	-9,302326	274,60189	313,099244	0
15.01.2021	16:31:57	0	3,212148	2,711452	1,59975	345,7836	0,656	83,193	0	1016,1	7,5	9,5	9,2	1	1	1	1	1	1	1	1	1	0	1	-6,624383	274,694008	316,210016	0
15.01.2021	16:31:58	0	2,855243	2,824429	1,821	341,7336	0,655	83,166	0	1016,2	7,5	9,5	9,2	1	1	1	1	1	1	1	1	1	0	1	-8,386187	274,766475	314,789015	0
15.01.2021	16:31:59	0	3,450085	3,841224	1,99725	341,388	0,654	83,172	0	1016,12	7,5	9,5	9,2	1	1	1	1	1	1	1	1	1	0	1	-7,117689	274,654036	315,528845	0
15.01.2021	16:32:00	0	3,331117	4,067178	2,06025	340,5564	0,659	83,192	0	1016,28	7,5	9,5	9,2	1	1	1	1	1	1	1	1	1	0	1	-8,597604	274,764931	314,570331	0
15.01.2021	16:32:01	0	3,331117	4,067178	2,06025	340,5564	0,659	83,192	0	1016,28	7,5	9,5	9,2	1	1	1	1	1	1	1	1	1	0	1	-8,527132	274,723271	314,444853	0
15.01.2021	16:32:02	0	3,331117	4,858019	2,02425	336,7008	0,653	83,164	0	1015,9	7,5	9,5	9,2	1	1	1	1	1	1	1	1	1	0	1	-7,892882	274,730979	315,115351	0
15.01.2021	16:32:03	0	3,212148	2,372521	1,899	329,9832	0,65	83,163	0	1016,04	7,4	9,5	9,2	1	1	1	1	1	1	1	1	1	0	1	-5,21494	274,743318	317,851327	0
15.01.2021	16:32:04	0	3,212148	2,485498	1,725	332,7552	0,654	83,173	0	1016,06	7,5	9,5	9,2	1	1	1	1	1	1	1	1	1	0	1	-3,24172	274,595765	319,131084	0
15.01.2021	16:32:05	0	3,569054	4,293133	1,65375	330,0912	0,652	83,164	0	1015,92	7,5	9,5	9,2	1	1	1	1	1	1	1	1	1	0	1	-9,513742	274,624879	312,995801	0
15.01.2021	16:32:06	0	3,331117	4,293133	1,683	322,9128	0,655	83,177	0	1016,12	7,5	9,5	9,2	1	1	1	1	1	1	1	1	1	0	1	-5,144468	274,747947	317,943574	0
15.01.2021	16:32:07	0	3,331117	3,276338	1,64475	323,4096	0,658	83,183	0	1016,14	7,5	9,5	9,2	1	1	1	1	1	1	1	1	1	0	1	-6,624383	274,658644	316,043803	0
15.01.2021	16:32:08	0	3,212148	3,728247	1,683	322,9488	0,652	83,175	0	1016,16	7,5	9,5	9,2	1	1	1	1	1	1	1	1	1	0	1	-7,470049	274,700165	315,393295	0
15.01.2021	16:32:09	0	3,569054	4,745041	1,67925	338,3064	0,653	83,172	0	1016,08	7,5	9,5	9,2	1	1	1	1	1	1	1	1	1	0	1	-4,510218	274,571281	317,747628	0
15.01.2021	16:32:10	0	3,331117	3,163361	1,6695	334,7568	0,655	83,182	0	1016,14	7,5	9,5	9,2	1	1	1	1	1	1	1	1	1	0	1	-9,866103	274,6817	312,910442	0
15.01.2021	16:32:11	0	3,450085	2,824429	1,72125	333,1692	0,656	83,188	0	1016,08	7,5	9,5	9,2	1	1	1	1	1	1	1	1	1	0	1	-7,82241	274,707864	315,07713	0
15.01.2021	16:32:12	0	3,331117	4,293133	1,875	327,5028	0,655	83,18	0	1016,14	7,5	9,5	9,2	1	1	1	1	1	1	1	1	1	0	1	-7,470049	274,597296	314,909944	0
15.01.2021	16:32:13	0	3,450085	4,180155	1,85625	333,2016	0,644	83,175	0	1016	7,5	9,5	9,2	1	1	1	1	1	1	1	1	1	0	1	-7,329105	274,704784	315,555954	0
15.01.2021	16:32:14	0	3,09318	3,954201	1,73325	302,0868	0,648	83,18	0	1016,08	7,5	9,5	9,2	1	1	1	1	1	1	1	1	1	0	1	-5,84919	274,597296	316,530804	0
15.01.2021	16:32:15	0	3,331117	4,067178	1,66275	321,0948	0,651	83,175	0	1016,16	7,5	9,5	9,2	1	1	1	1	1	1	1	1	1	0	1	-8,668076	274,700165	314,195268	0
15.01.2021	16:32:16	0	3,09318	2,033589	1,5915	309,5388	0,655	83,174	0	1016	7,4	9,5	9,2	1	1	1	1	1	1	1	1	1	0	1	-3,946441	274,568223	318,297049	0
15.01.2021	16:32:17	0	3,212148	3,954201	1,46175	322,6032	0,658	83,177	0	1016,14	7,5	9,5	9,2	1	1	1	1	1	1	1	1	1	0	1	-11,557435	274,710944	311,356588	0
15.01.2021	16:32:18	0	3,688022	4,632064	1,443	336,3876	0,651	83,181	0	1016,12	7,5	9,5	9,2	1	1	1	1	1	1	1	1	1	0	1	-4,298802	274,704784	318,586257	0
15.01.2021	16:32:19	0	3,450085	2,711452	1,4745	332,0172	0,656	83,179	0	1015,94	7,5	9,5	9,2	1	1	1	1	1	1	1	1	1	0	1	-5,496829	274,598827	316,890356	0
15.01.2021	16:32:20	0	3,688022	5,19695	1,4565	331,5276	0,654	83,182	0	1016,14	7,5	9,5	9,2	1	1	1	1	1	1	1	1	1	0	1	-7,892882	274,569752	314,357786	0
15.01.2021	16:32:21	0	3,569054	2,711452	1,40475	340,9344	0,65	83,171	0	1016,16	7,4	9,5	9,2	1	1	1	1	1	1	1	1	1	0	1	-7,82241	274,695547	315,019224	0
15.01.2021	16:32:22	0	3,09318	2,824429	1,3515	346,8816	0,646	83,172	0	1016,06	7,4	9,5	9,2	1	1	1	1	1	1	1	1	1	0	1	-11,275546	274,580459	311,025389	0
15.01.2021	16:32:23	0	3,331117	2,711452	1,29075	329,6916	0,65	83,168	0	1015,92	7,5	9,5	9,2	1	1	1	1	1	1	1	1	1	0	1	-6,624383	274,614147	315,834753	0
15.01.2021	16:32:24	0	3,331117	3,841224	1,26675	329,6772	0,658	83,172	0	1015,98	7,5	9,5	9,2	1	1	1	1	1	1	1	1	1	0	1	-10,077519	274,760297	313,068618	0
15.01.2021	16:32:25	0	3,212148	2,824429	1,341	336,0852	0,652	83,157	0	1016,02	7,4	9,5	9,2	1	1	1	1	1	1	1	1	1	0	1	-6,131078	274,657108	316,52989	0
15.01.2021	16:32:26	0	3,09318	2,711452	1,36575	339,444	0,649	83,168	0	1016,14	7,4	9,5	9,2	1	1	1	1	1	1	1	1	1	0	1	-6,131078	274,57587	316,148309	0
15.01.2021	16:32:27	0	3,569054	4,180155	1,4325	338,3748	0,652	83,175	0	1016,14	7,5	9,5	9,2	1	1	1	1	1	1	1	1	1	0	1	-5,496829	274,714025	317,431681	0
15.01.2021	16:32:28	0	3,331117	4,293133	1,41075	336,4596	0,654	83,174	0	1016,1	7,5	9,5	9,2	1	1	1	1	1	1	1	1	1	0	1	-9,654686	274,743318	313,411581	0
15.01.2021	16:32:29	0	3,331117	3,163361	1,50075	325,1664	0,65	83,159	0	1016,1	7,5	9,5	9,2	1	1	1	1	1	1	1	1	1	0	1	-6,765328	274,698626	316,090779	0
15.01.2021	16:32:30	0	3,450085	3,954201	1,47975	321,8832	0,652	83,18	0	1016,06	7,5	9,5	9,2	1	1	1	1	1	1	1	1	1	0	1	-11,346018	274,578929	310,947733	0
15.01.2021	16:32:31	0	3,450085	3,841224	1,3815	328,248	0,653	83,17	0	1016,06	7,5	9,5	9,2	1	1	1	1	1	1	1	1	1	0	1	-4,862579	274,683238	317,921195	0
15.01.2021	16:32:32	0	3,212148	3,502292	1,32	323,3592	0,653	83,159	0	1016,08	7,5	9,5	9,2	1	1	1	1	1	1	1	1	1	0	1	-11,980268	274,751034	311,122293	0
15.01.2021	16:32:33	0	3,212148	2,824429	1,2735	327,1356	0,658	83,172	0	1016,04	7,5	9,5	9,2	1	1	1	1	1	1	1	1	1	0	1	-4,580691	274,690931	318,239241	0
15.01.2021	16:32:34	0	3,212148	3,841224	1,19925	332,8308	0,643	83,165	0	1016,04	7,5	9,5	9,2	1	1	1	1	1	1	1	1	1	0	1	-5,355884	274,562108	316,858899	0
15.01.2021	16:32:35	0	3,688022	4,51906	1,18725	333,882	0,654	83,162	0	1016,12	7,5	9,5	9,3	1	1	1	1	1	1	1	1	1	0	1	-6,412967	274,631013	316,125396	0
15.01.2021	16:32:36	0	3,331117	3,050384	1,1745	338,0832	0,648	83,148	0	1015,84	7,5	9,5	9,2	1	1	1	1	1	1	1	1	1	0	1	-5,84919	274,585049	316,473298	0
15.01.2021	16:32:37	0	3,331117	3,163361	1,10175	336,204	0,651	83,166	0	1016,16	7,4	9,5	9,2	1	1	1	1	1	1	1	1	1	0	1	-6,8358	274,61568	315,630535	0
15.01.2021	16:32:38	0	3,212148	3,841224	1,05	332,424	0,656	83,172	0	1016,18	7,5	9,5	9,2	1	1	1	1	1	1	1	1	1	0	1	-6,624383	274,730979	316,38385	0
15.01.2021	16:32:39	0	3,80699	4,40611	1,017	322,9992	0,652	83,177	0	1016,04	7,5	9,5	9,2	1	1	1	1	1	1	1	1	1	0	1	-7,892882	274,687853	314,912584	0
15.01.2021	16:32:40	0	3,09318	4,293133	0,96225	321,3864	0,649	83,151	0	1016,02	7,4	9,5	9,2	1	1	1	1	1	1	1	1	1	0	1	-10,007047	274,743318	313,05922	0
15.01.2021	16:32:41	0	3,569054	4,632064	0,984	336,0672	0,652	83,167	0	1016,04	7,4	9,5	9,2	1	1	1	1	1	1	1	1	1	0	1	-9,372798	274,631013	313,165565	0
15.01.2021	16:32:42	0	3,569054	4,970996	1,00725	332,4456	0,648	83,17	0	1016,06	7,5	9,5	9,2	1	1	1	1	1	1	1	1	1	0	1	-7,470049	274,565165	314,759086	0
15.01.2021	16:32:43	0	3,450085	4,180155	1,04025	321,822	0,646	83,155	0	1016,1	7,5	9,5	9,2	1	1	1	1	1	1	1	1	1	0	1	-6,976744	274,726354	316,009738	0
15.01.2021	16:32:44	0	3,450085	3,728247	1,14	334,26	0,65	83,168	0	1016,04	7,5	9,5	9,2	1	1	1	1	1	1	1	1	1	0	1	-7,610994	274,6817	315,165551	0
15.01.2021	16:32:45	0	3,212148	4,858019	1,25775	331,4736	0,652	83,163	0	1016,06	7,5	9,5	9,2	1	1	1	1	1	1	1	1	1	0	1	-8,527132	274,752578	314,58269	0
15.01.2021	16:32:46	0	3,331117	4,632064	1,428	328,6044	0,651	83,156	0	1016,06	7,5	9,5	9,2	1	1	1	1	1	1	1	1	1	0	1	-10,077519	274,644824	312,525727	0
15.01.2021	16:32:47	0	2,974211	2,937407	1,485	327,816	0,647	83,157	0	1016,12	7,4	9,5	9,2	1	1	1	1	1	1	1	1	1	0	1	-8,949965	274,720188	314,007525	0
15.01.2021	16:32:48	0	2,974211	3,61527	1,53075	331,146	0,644	83,164	0	1016,06	7,5	9,5	9,2	1	1	1	1	1	1	1	1	1	0	1	-11,839323	274,589641	310,504724	0
15.01.2021	16:32:49	0	3,212148	2,711452	1,5375	331,5384	0,652	83,165	0	1016,1	7,5	9,5	9,2	1	1	1	1	1	1	1	1	1	0	1	-5,990134	274,562108	316,22465	0
15.01.2021	16:32:50	0	3,331117	4,970996	1,455	326,736	0,65	83,164	0	1015,92	7,4	9,5	9,2	1	1	1	1	1	1	1	1	1	0	1	-8,315715	274,620279	314,172221	0
15.01.2021	16:32:51	0	3,212171	2,485498	1,3755	321,5736	0,653	83,159	0	1016,02	7,5	9,4	9,2	1	1	1	1	1	1	1	1	1	0	1	-9,654686	274,57587	312,624701	0
15.01.2021	16:32:52	0	3,093201	4,40611	1,335	318,222	0,649	83,146	0	1016,12	7,5	9,4	9,2	1	1	1	1	1	1	1	1	1	0	1	-5,496829	274,689392	317,31587	0
15.01.2021	16:32:53	0	3,212148	2,711452	1,341	327,8376	0,651	83,143	0	1016,08	7,4	9,5	9,2	1	1	1	1	1	1	1	1	1	0	1	-7,188161	274,700165	315,675183	0
15.01.2021	16:32:54	0	3,212148	2,824429	1,35675	325,5336	0,649	83,167	0	1016,22	7,4	9,5	9,2	1	1	1	1	1	1	1	1	1	0	1	-5,778717	274,572811	316,486309	0
15.01.2021	16:32:55	0	3,331117	5,083973	1,3545	324,8568	0,653	83,165	0	1015,94	7,4	9,5	9,2	1	1	1	1	1	1	1	1	1	0	1	-7,610994	274,686315	315,187241	0
15.01.2021	16:32:56	0	3,80699	4,632064	1,43625	323,4024	0,65	83,168	0	1016,2	7,4	9,5	9,2	1	1	1	1	1	1	1	1	1	0	1	-9,725159	274,563637	312,496801	0
15.01.2021	16:32:57	0	3,212148	2,598475	1,479	326,4372	0,651	83,147	0	1016,18	7,5	9,5	9,2	1	1	1	1	1	1	1	1	1	0	1	-7,470049	274,667863	315,241461	0
15.01.2021	16:32:58	0	3,09318	3,502292	1,52325	324,468	0,644	83,162	0	1016	7,5	9,5	9,2	1	1	1	1	1	1	1	1	1	0	1	-8,738548	274,57587	313,540839	0
15.01.2021	16:32:59	0	2,974211	2,033589	1,596	326,0412	0,652	83,173	0	1016,24	7,4	9,5	9,2	1	1	1	1	1	1	1	1	1	0	1	-7,892882	274,571281	314,364965	0
15.01.2021	16:33:00	0	3,212148	3,954201	1,734	324,4068	0,654	83,176	0	1016,08	7,4	9,5	9,2	1	1	1	1	1	1	1	1	1	0	1	-5,919662	274,755665	317,204684	0
15.01.2021	16:33:01	0	3,212148	3,954201	1,734	324,4068	0,654	83,176	0	1016,08	7,4	9,5	9,2	1	1	1	1	1	1	1	1	1	0	1	-8,738548	274,6694	313,980186	0
15.01.2021	16:33:02	0	3,212148	3,728247	1,8315	309,222	0,649	83,18	0	1016,2	7,5	9,5	9,2	1	1	1	1	1	1	1	1	1	0	1	-10,42988	274,744861	312,643644	0
15.01.2021	16:33:03	0	3,331117	2,711452	2,02875	300,5496	0,655	83,168	0	1016,02	7,5	9,5	9,2	1	1	1	1	1	1	1	1	1	0	1	-7,399577	274,700165	315,463767	0
15.01.2021	16:33:04	0	3,212148	3,728247	2,32425	307,5804	0,65	83,153	0	1016,16	7,4	9,5	9,2	1	1	1	1	1	1	1	1	1	0	1	-6,765328	274,565165	315,463808	0
15.01.2021	16:33:05	0	3,212148	4,632064	2,42175	306,4896	0,65	83,156	0	1016,12	7,4	9,5	9,2	1	1	1	1	1	1	1	1	1	0	1	-9,725159	274,717106	313,21784	0
15.01.2021	16:33:06	0	3,331117	3,954201	2,3655	309,204	0,651	83,166	0	1016,16	7,4	9,5	9,2	1	1	1	1	1	1	1	1	1	0	1	-5,637773	274,701705	317,232809	0
15.01.2021	16:33:07	0	2,974211	3,050384	2,22225	317,4228	0,652	83,171	0	1016,12	7,4	9,5	9,2	1	1	1	1	1	1	1	1	1	0	1	-4,510218	274,735605	318,519772	0
15.01.2021	16:33:08	0	3,331117	4,519087	2,1645	314,46	0,651	83,155	0	1016,1	7,4	9,5	9,2	1	1	1	1	1	1	1	1	1	0	1	-10,147992	274,727895	312,84574	0
15.01.2021	16:33:09	0	3,212148	3,954201	2,18625	324,1332	0,644	83,147	0	1015,96	7,5	9,5	9,2	1	1	1	1	1	1	1	1	1	0	1	-9,090909	274,658644	313,577277	0
15.01.2021	16:33:10	0	3,212148	4,293133	2,07375	332,532	0,649	83,141	0	1015,96	7,5	9,5	9,2	1	1	1	1	1	1	1	1	1	0	1	-6,131078	274,741775	316,927932	0
15.01.2021	16:33:11	0	2,974211	4,180155	1,896	340,4592	0,651	83,156	0	1016,1	7,5	9,5	9,2	1	1	1	1	1	1	1	1	1	0	1	-5,567301	274,680162	317,202015	0
15.01.2021	16:33:12	0	3,450085	4,519087	1,794	333,4572	0,651	83,161	0	1016,14	7,5	9,5	9,2	1	1	1	1	1	1	1	1	1	0	1	-7,329105	274,717106	315,613893	0
15.01.2021	16:33:13	0	2,974232	3,163361	1,81725	336,798	0,647	83,164	0	1016,14	7,4	9,4	9,2	1	1	1	1	1	1	1	1	1	0	1	-6,131078	274,744861	316,942446	0
15.01.2021	16:33:14	0	3,450085	4,180155	1,824	318,3948	0,649	83,167	0	1016,08	7,4	9,5	9,2	1	1	1	1	1	1	1	1	1	0	1	-8,668076	274,608018	313,762271	0
15.01.2021	16:33:15	0	2,974211	3,61527	1,89675	331,1424	0,647	83,16	0	1016,04	7,5	9,5	9,2	1	1	1	1	1	1	1	1	1	0	1	-8,104299	274,577399	314,182271	0
15.01.2021	16:33:16	0	2,855243	2,824429	1,929	324,4788	0,648	83,147	0	1016,08	7,5	9,5	9,2	1	1	1	1	1	1	1	1	1	0	1	-7,751938	274,552939	314,419807	0
15.01.2021	16:33:17	0	3,09318	3,276338	1,956	331,578	0,647	83,152	0	1016,14	7,4	9,5	9,2	1	1	1	1	1	1	1	1	1	0	1	-5,919662	274,732521	317,095823	0
15.01.2021	16:33:18	0	3,212148	2,824429	1,992	327,816	0,65	83,145	0	1016,1	7,4	9,5	9,2	1	1	1	1	1	1	1	1	1	0	1	-5,003524	274,629479	317,527633	0
15.01.2021	16:33:19	0	3,09318	4,970996	1,99275	326,0952	0,647	83,147	0	1016,08	7,4	9,5	9,2	1	1	1	1	1	1	1	1	1	0	1	-4,22833	274,730979	318,779903	0
15.01.2021	16:33:20	0	2,974211	3,050384	2,0655	321,1272	0,644	83,136	0	1016,26	7,5	9,5	9,2	1	1	1	1	1	1	1	1	1	0	1	-9,090909	274,692469	313,736256	0
15.01.2021	16:33:21	0	2,974211	2,937407	2,0985	318,5388	0,647	83,14	0	1016,06	7,5	9,5	9,2	1	1	1	1	1	1	1	1	1	0	1	-8,668076	274,747947	314,419965	0
15.01.2021	16:33:22	0	3,212148	4,745041	2,169	331,5456	0,643	83,144	0	1016,08	7,4	9,5	9,2	1	1	1	1	1	1	1	1	1	0	1	-10,711769	274,680162	312,057547	0
15.01.2021	16:33:23	0	2,974211	4,40611	2,20275	336,87	0,649	83,142	0	1016,18	7,4	9,5	9,2	1	1	1	1	1	1	1	1	1	0	1	-8,597604	274,729437	314,403378	0
15.01.2021	16:33:24	0	3,212148	2,824429	2,02575	337,9896	0,646	83,122	0	1016,06	7,4	9,5	9,2	1	1	1	1	1	1	1	1	1	0	1	-9,44327	274,657108	313,217698	0
15.01.2021	16:33:25	0	3,212148	4,745041	1,98825	333,8388	0,64	83,131	0	1016,08	7,4	9,5	9,2	1	1	1	1	1	1	1	1	1	0	1	-11,627907	274,56058	310,579702	0
15.01.2021	16:33:26	0	2,974211	4,632064	2,12925	320,4072	0,644	83,12	0	1016,06	7,4	9,5	9,2	1	1	1	1	1	1	1	1	1	0	1	-13,319239	274,695547	309,522396	0
15.01.2021	16:33:27	0	2,855263	3,276338	2,27325	333,1944	0,65	83,128	0	1015,88	7,5	9,4	9,2	1	1	1	1	1	1	1	1	1	0	1	-4,22833	274,730979	318,779903	0
15.01.2021	16:33:28	0	3,212148	2,485498	2,35725	319,2048	0,639	83,135	0	1016,08	7,5	9,5	9,2	1	1	1	1	1	1	1	1	1	0	1	-5,285412	274,600359	317,108965	0
15.01.2021	16:33:29	0	3,093201	2,372521	2,358	333,5148	0,646	83,139	0	1016,16	7,5	9,4	9,2	1	1	1	1	1	1	1	1	1	0	1	-7,470049	274,734063	315,552688	0
15.01.2021	16:33:30	0	3,09318	4,632064	2,385	325,9872	0,646	83,134	0	1016,14	7,4	9,5	9,2	1	1	1	1	1	1	1	1	1	0	1	-4,933051	274,589641	317,410996	0
15.01.2021	16:33:31	0	2,974211	2,598475	2,43075	324,8136	0,647	83,141	0	1016,1	7,5	9,5	9,2	1	1	1	1	1	1	1	1	1	0	1	-5,708245	274,692469	317,11892	0
15.01.2021	16:33:32	0	2,736274	2,372521	2,517	326,7972	0,643	83,139	0	1016,14	7,4	9,5	9,2	1	1	1	1	1	1	1	1	1	0	1	-11,41649	274,559051	310,783944	0
15.01.2021	16:33:33	0	2,974232	4,40611	2,5365	316,3464	0,643	83,14	0	1016,06	7,5	9,4	9,2	1	1	1	1	1	1	1	1	1	0	1	-10,993658	274,627946	311,530294	0
15.01.2021	16:33:34	0	2,855263	2,937407	2,49525	319,1616	0,644	83,136	0	1016,26	7,4	9,4	9,2	1	1	1	1	1	1	1	1	1	0	1	-9,302326	274,581989	313,005793	0
15.01.2021	16:33:35	0	3,093201	4,632064	2,42625	312,1848	0,639	83,126	0	1016,12	7,4	9,4	9,2	1	1	1	1	1	1	1	1	1	0	1	-8,949965	274,568223	313,293525	0
15.01.2021	16:33:36	0	3,212148	2,711452	2,47575	311,6664	0,645	83,137	0	1016,06	7,4	9,5	9,2	1	1	1	1	1	1	1	1	1	0	1	-7,258633	274,60189	315,142937	0
15.01.2021	16:33:37	0	2,855263	2,259544	2,469	298,71	0,652	83,139	0	1016,14	7,5	9,4	9,2	1	1	1	1	1	1	1	1	1	0	1	-7,963354	274,568223	314,280135	0
15.01.2021	16:33:38	0	3,450085	4,858019	2,45625	306,1008	0,643	83,135	0	1016,26	7,4	9,5	9,2	1	1	1	1	1	1	1	1	1	0	1	-12,684989	274,700165	310,178354	0
15.01.2021	16:33:39	0	3,33114	4,745041	2,397	309,1824	0,647	83,132	0	1016,16	7,4	9,4	9,2	1	1	1	1	1	1	1	1	1	0	1	-7,892882	274,655572	314,760868	0
15.01.2021	16:33:40	0	3,09318	2,824429	2,241	306,4572	0,646	83,13	0	1016,1	7,4	9,5	9,2	1	1	1	1	1	1	1	1	1	0	1	-6,624383	274,58658	315,70529	0
15.01.2021	16:33:41	0	2,974211	2,259544	2,2185	311,814	0,647	83,142	0	1016,04	7,4	9,5	9,2	1	1	1	1	1	1	1	1	1	0	1	-6,765328	274,595765	315,607475	0
15.01.2021	16:33:42	0	3,212171	3,954201	2,19225	299,43	0,638	83,133	0	1016,06	7,4	9,4	9,2	1	1	1	1	1	1	1	1	1	0	1	-6,483439	274,709404	316,423342	0
15.01.2021	16:33:43	0	3,212148	3,050384	2,1615	312,2064	0,646	83,138	0	1016,06	7,4	9,5	9,2	1	1	1	1	1	1	1	1	1	0	1	-10,218464	274,654036	312,42807	0
15.01.2021	16:33:44	0	2,974232	3,61527	2,09025	316,6056	0,642	83,137	0	1016,18	7,4	9,4	9,2	1	1	1	1	1	1	1	1	1	0	1	-9,725159	274,572811	312,539868	0
15.01.2021	16:33:45	0	3,331117	3,276338	2,04225	320,0292	0,643	83,147	0	1015,94	7,4	9,5	9,2	1	1	1	1	1	1	1	1	1	0	1	-4,510218	274,667863	318,201292	0
15.01.2021	16:33:46	0	3,093201	2,711452	2,01525	336,366	0,643	83,145	0	1016,08	7,4	9,4	9,2	1	1	1	1	1	1	1	1	1	0	1	-3,523608	274,591172	318,827627	0
15.01.2021	16:33:47	0	3,212148	4,40611	1,9305	327,0816	0,642	83,138	0	1016,04	7,4	9,5	9,2	1	1	1	1	1	1	1	1	1	0	1	-4,580691	274,692469	318,246475	0
15.01.2021	16:33:48	0	3,212148	4,970996	1,83525	321,0768	0,645	83,147	0	1016,1	7,4	9,5	9,2	1	1	1	1	1	1	1	1	1	0	1	-8,527132	274,712485	314,394134	0
15.01.2021	16:33:49	0	2,855263	3,163361	1,80975	330,048	0,643	83,156	0	1016,12	7,4	9,4	9,2	1	1	1	1	1	1	1	1	1	0	1	-7,188161	274,729437	315,812821	0
15.01.2021	16:33:50	0	2,974211	4,40611	1,78275	322,2108	0,639	83,142	0	1016,1	7,4	9,5	9,2	1	1	1	1	1	1	1	1	1	0	1	-4,933051	274,672475	317,800131	0
15.01.2021	16:33:51	0	3,093201	3,389315	1,701	323,0136	0,64	83,134	0	1015,96	7,4	9,4	9,2	1	1	1	1	1	1	1	1	1	0	1	-7,610994	274,548357	314,539242	0
15.01.2021	16:33:52	0	2,974211	4,180155	1,6305	315,9468	0,639	83,147	0	1015,92	7,4	9,5	9,2	1	1	1	1	1	1	1	1	1	0	1	-11,275546	274,730979	311,732687	0
15.01.2021	16:33:53	0	3,331117	4,40611	1,64475	333,432	0,644	83,139	0	1015,9	7,4	9,5	9,2	1	1	1	1	1	1	1	1	1	0	1	-7,681466	274,703244	315,196354	0
15.01.2021	16:33:54	0	2,855243	2,711452	1,671	327,1392	0,637	83,151	0	1016,14	7,4	9,5	9,2	1	1	1	1	1	1	1	1	1	0	1	-7,047216	274,563637	315,174743	0
15.01.2021	16:33:55	0	3,33114	4,293107	1,62	328,248	0,644	83,148	0	1016,1	7,4	9,4	9,3	1	1	1	1	1	1	1	1	1	0	1	-8,668076	274,557523	313,525185	0
15.01.2021	16:33:56	0	3,450109	4,632064	1,566	334,9152	0,64	83,147	0	1016,16	7,5	9,4	9,2	1	1	1	1	1	1	1	1	1	0	1	-8,45666	274,621812	314,038478	0
15.01.2021	16:33:57	0	2,736294	2,598459	1,542	327,9312	0,638	83,151	0	1016,14	7,5	9,4	9,3	1	1	1	1	1	1	1	1	1	0	1	-6,131078	274,581989	316,17704	0
15.01.2021	16:33:58	0	3,331117	4,40611	1,57425	333,4212	0,637	83,142	0	1016,14	7,4	9,5	9,2	1	1	1	1	1	1	1	1	1	0	1	-9,302326	274,604954	313,113632	0
15.01.2021	16:33:59	0	3,212171	4,293107	1,58925	327,1284	0,642	83,167	0	1016,04	7,4	9,4	9,3	1	1	1	1	1	1	1	1	1	0	1	-5,919662	274,566694	316,31665	0
15.01.2021	16:34:00	0	3,33114	4,632064	1,63125	321,3792	0,64	83,141	0	1016,1	7,4	9,4	9,2	1	1	1	1	1	1	1	1	1	0	1	-10,218464	274,694008	312,615936	0
15.01.2021	16:34:01	0	3,33114	4,632064	1,63125	321,3792	0,64	83,141	0	1016,1	7,4	9,4	9,2	1	1	1	1	1	1	1	1	1	0	1	-8,033827	274,546829	314,10924	0
15.01.2021	16:34:02	0	2,855263	2,598475	1,5315	324,8028	0,64	83,149	0	1016,06	7,4	9,4	9,2	1	1	1	1	1	1	1	1	1	0	1	-6,060606	274,552939	316,111139	0
15.01.2021	16:34:03	0	2,736294	2,485498	1,4805	319,176	0,645	83,163	0	1016,18	7,5	9,4	9,2	1	1	1	1	1	1	1	1	1	0	1	-9,44327	274,57434	312,828937	0
15.01.2021	16:34:04	0	3,212171	3,954201	1,47075	308,0736	0,637	83,146	0	1016,12	7,4	9,4	9,2	1	1	1	1	1	1	1	1	1	0	1	-8,597604	274,704784	314,287455	0
15.01.2021	16:34:05	0	2,974232	5,083973	1,5105	316,6416	0,639	83,157	0	1016,12	7,4	9,4	9,2	1	1	1	1	1	1	1	1	1	0	1	-6,8358	274,697086	316,01307	0
15.01.2021	16:34:06	0	3,212171	4,858019	1,55775	327,2112	0,634	83,137	0	1016,02	7,4	9,4	9,2	1	1	1	1	1	1	1	1	1	0	1	-8,386187	274,732521	314,629297	0
15.01.2021	16:34:07	0	3,093201	2,372521	1,65525	322,9308	0,643	83,146	0	1015,98	7,4	9,4	9,2	1	1	1	1	1	1	1	1	1	0	1	-9,020437	274,683238	313,763337	0
15.01.2021	16:34:08	0	3,33114	4,858019	1,7055	334,9512	0,635	83,146	0	1016,08	7,5	9,4	9,2	1	1	1	1	1	1	1	1	1	0	1	-11,205074	274,718647	311,74517	0
15.01.2021	16:34:09	0	2,617324	3,050384	1,7325	321,5016	0,637	83,13	0	1016,02	7,4	9,4	9,2	1	1	1	1	1	1	1	1	1	0	1	-6,272023	274,667863	316,439488	0
15.01.2021	16:34:10	0	2,736294	2,598475	1,82475	329,2704	0,64	83,144	0	1016,16	7,4	9,4	9,2	1	1	1	1	1	1	1	1	1	0	1	-8,527132	274,732521	314,488353	0
15.01.2021	16:34:11	0	3,093201	3,276318	1,80375	325,1592	0,632	83,149	0	1016	7,4	9,4	9,3	1	1	1	1	1	1	1	1	1	0	1	-13,460183	274,675549	309,28745	0
15.01.2021	16:34:12	0	2,974232	3,954201	1,84275	317,0736	0,641	83,153	0	1016,14	7,4	9,4	9,2	1	1	1	1	1	1	1	1	1	0	1	-8,033827	274,543775	314,094905	0
15.01.2021	16:34:13	0	3,093201	2,711452	1,84125	331,524	0,644	83,153	0	1015,98	7,5	9,4	9,2	1	1	1	1	1	1	1	1	1	0	1	-8,738548	274,57587	313,540839	0
15.01.2021	16:34:14	0	3,093201	2,937389	1,83	326,3868	0,639	83,14	0	1016,08	7,4	9,4	9,3	1	1	1	1	1	1	1	1	1	0	1	-4,792107	274,555995	317,393982	0
15.01.2021	16:34:15	0	3,450085	4,40611	1,725	321,8688	0,639	83,147	0	1016,04	7,4	9,5	9,2	1	1	1	1	1	1	1	1	1	0	1	-9,231853	274,650965	313,400248	0
15.01.2021	16:34:16	0	3,212171	3,389295	1,60125	341,622	0,64	83,157	0	1016,12	7,4	9,4	9,3	1	1	1	1	1	1	1	1	1	0	1	-8,104299	274,743318	314,961968	0
15.01.2021	16:34:17	0	2,855243	4,745041	1,52925	332,0928	0,638	83,132	0	1016,12	7,4	9,5	9,2	1	1	1	1	1	1	1	1	1	0	1	-8,033827	274,631013	314,504536	0
15.01.2021	16:34:18	0	3,569079	4,632064	1,518	332,7444	0,637	83,142	0	1016,08	7,5	9,4	9,2	1	1	1	1	1	1	1	1	1	0	1	-6,272023	274,56058	315,935586	0
15.01.2021	16:34:19	0	2,974232	3,841224	1,56975	320,7564	0,634	83,138	0	1016	7,4	9,4	9,2	1	1	1	1	1	1	1	1	1	0	1	-11,839323	274,684777	310,951681	0
15.01.2021	16:34:20	0	2,736294	2,824429	1,67775	336,4848	0,639	83,145	0	1016	7,4	9,4	9,2	1	1	1	1	1	1	1	1	1	0	1	-9,584214	274,563637	312,637745	0
15.01.2021	16:34:21	0	3,212148	3,502292	1,83675	323,3448	0,64	83,144	0	1016,1	7,4	9,5	9,2	1	1	1	1	1	1	1	1	1	0	1	-2,043693	274,57587	320,235695	0
15.01.2021	16:34:22	0	2,736274	2,824429	1,79475	315,5544	0,637	83,152	0	1016,12	7,4	9,5	9,2	1	1	1	1	1	1	1	1	1	0	1	-5,637773	274,718647	317,312471	0
15.01.2021	16:34:23	0	2,974232	4,293133	1,70175	319,7232	0,637	83,139	0	1016,12	7,5	9,4	9,2	1	1	1	1	1	1	1	1	1	0	1	-10,288936	274,695547	312,552699	0
15.01.2021	16:34:24	0	2,617324	2,598475	1,75425	314,1144	0,64	83,143	0	1016,08	7,5	9,4	9,2	1	1	1	1	1	1	1	1	1	0	1	-4,651163	274,718647	318,299081	0
15.01.2021	16:34:25	0	2,736274	3,61527	1,8615	335,718	0,635	83,151	0	1016,12	7,5	9,5	9,2	1	1	1	1	1	1	1	1	1	0	1	-7,399577	274,689392	315,413121	0
15.01.2021	16:34:26	0	2,617324	2,937407	2,0115	311,796	0,641	83,154	0	1016,1	7,5	9,4	9,2	1	1	1	1	1	1	1	1	1	0	1	-10,852713	274,555995	311,333375	0
15.01.2021	16:34:27	0	2,855263	3,728247	2,22525	319,6224	0,635	83,142	0	1015,98	7,5	9,4	9,2	1	1	1	1	1	1	1	1	1	0	1	-9,302326	274,638685	313,272076	0
15.01.2021	16:34:28	0	3,093201	3,954201	2,60925	322,9956	0,634	83,144	0	1016,04	7,5	9,4	9,2	1	1	1	1	1	1	1	1	1	0	1	-5,355884	274,554467	316,823032	0
15.01.2021	16:34:29	0	2,855263	3,163361	2,71575	300,9276	0,632	83,151	0	1016,08	7,5	9,4	9,2	1	1	1	1	1	1	1	1	1	0	1	-12,614517	274,658644	310,053669	0
15.01.2021	16:34:30	0	3,450109	4,180155	2,772	327,618	0,636	83,151	0	1016,06	7,5	9,4	9,2	1	1	1	1	1	1	1	1	1	0	1	-7,610994	274,701705	315,259588	0
15.01.2021	16:34:31	0	2,617324	2,711452	2,7255	314,0892	0,634	83,151	0	1016,02	7,4	9,4	9,2	1	1	1	1	1	1	1	1	1	0	1	-10,218464	274,612615	312,233474	0
15.01.2021	16:34:32	0	2,736294	4,293107	2,61525	325,5048	0,634	83,161	0	1016,08	7,5	9,4	9,3	1	1	1	1	1	1	1	1	1	0	1	-1,338971	274,726354	321,647511	0
15.01.2021	16:34:33	0	3,212171	3,954177	2,418	321,8544	0,634	83,141	0	1016,12	7,4	9,4	9,3	1	1	1	1	1	1	1	1	1	0	1	-9,936575	274,647894	312,681097	0
15.01.2021	16:34:34	0	3,093201	3,954177	2,301	315,594	0,631	83,143	0	1015,96	7,4	9,4	9,3	1	1	1	1	1	1	1	1	1	0	1	-11,41649	274,732521	311,598994	0
15.01.2021	16:34:35	0	3,093201	4,745041	2,37075	313,2972	0,634	83,148	0	1016,06	7,4	9,4	9,2	1	1	1	1	1	1	1	1	1	0	1	-8,738548	274,689392	314,07415	0
15.01.2021	16:34:36	0	3,33114	3,276338	2,64825	316,6596	0,628	83,143	0	1016,02	7,5	9,4	9,2	1	1	1	1	1	1	1	1	1	0	1	-10,500352	274,598827	311,886833	0
15.01.2021	16:34:37	0	3,093201	4,067154	2,94525	313,2432	0,63	83,148	0	1016,1	7,5	9,4	9,3	1	1	1	1	1	1	1	1	1	0	1	-11,486963	274,608018	310,943385	0
15.01.2021	16:34:38	0	2,974232	2,711436	2,99475	322,2576	0,633	83,15	0	1016,16	7,5	9,4	9,3	1	1	1	1	1	1	1	1	1	0	1	-6,8358	274,548357	315,314435	0
15.01.2021	16:34:39	0	2,855243	3,163361	3,0075	324,7452	0,635	83,151	0	1016,18	7,4	9,5	9,2	1	1	1	1	1	1	1	1	1	0	1	-2,60747	274,594233	319,758143	0
15.01.2021	16:34:40	0	2,736274	3,389295	2,964	313,254	0,639	83,165	0	1016,12	7,4	9,5	9,3	1	1	1	1	1	1	1	1	1	0	1	-8,245243	274,717106	314,697755	0
15.01.2021	16:34:41	0	3,33114	4,180155	3,051	318,1572	0,631	83,166	0	1015,98	7,5	9,4	9,2	1	1	1	1	1	1	1	1	1	0	1	-4,792107	274,690931	318,027824	0
15.01.2021	16:34:42	0	2,736294	3,502271	3,132	317,0628	0,638	83,153	0	1016,06	7,4	9,4	9,3	1	1	1	1	1	1	1	1	1	0	1	-7,82241	274,709404	315,084371	0
15.01.2021	16:34:43	0	3,093201	4,970996	3,0315	311,3388	0,634	83,155	0	1015,9	7,4	9,4	9,2	1	1	1	1	1	1	1	1	1	0	1	-9,302326	274,660181	313,37308	0
15.01.2021	16:34:44	0	2,617324	2,711468	2,991	316,9908	0,641	83,16	0	1016,1	7,4	9,4	9,1	1	1	1	1	1	1	1	1	1	0	1	-8,949965	274,559051	313,25047	0
15.01.2021	16:34:45	0	3,093201	4,51906	2,778	317,7648	0,638	83,148	0	1015,94	7,4	9,4	9,3	1	1	1	1	1	1	1	1	1	0	1	-5,567301	274,692469	317,259864	0
15.01.2021	16:34:46	0	2,736294	4,632036	2,6085	320,0472	0,634	83,13	0	1016,14	7,4	9,4	9,3	1	1	1	1	1	1	1	1	1	0	1	-9,936575	274,689392	312,876124	0
15.01.2021	16:34:47	0	2,974232	4,632064	2,5905	320,0616	0,636	83,153	0	1015,98	7,5	9,4	9,2	1	1	1	1	1	1	1	1	1	0	1	-7,117689	274,741775	315,941322	0
15.01.2021	16:34:48	0	2,855243	3,163342	2,694	327,5604	0,632	83,131	0	1016,12	7,5	9,5	9,3	1	1	1	1	1	1	1	1	1	0	1	-6,060606	274,704784	316,824453	0
15.01.2021	16:34:49	0	3,33114	3,954201	2,91	317,3364	0,632	83,141	0	1016,04	7,4	9,4	9,2	1	1	1	1	1	1	1	1	1	0	1	-12,332629	274,715566	310,603125	0
15.01.2021	16:34:50	0	3,093201	3,728224	2,853	317,6928	0,636	83,128	0	1016,06	7,5	9,4	9,3	1	1	1	1	1	1	1	1	1	0	1	-8,879493	274,594233	313,486121	0
15.01.2021	16:34:51	0	2,974232	4,745041	2,88075	312,5016	0,636	83,12	0	1016,12	7,5	9,4	9,2	1	1	1	1	1	1	1	1	1	0	1	-8,738548	274,735605	314,291442	0
15.01.2021	16:34:52	0	3,093201	2,711436	2,67825	333,9324	0,636	83,125	0	1016,18	7,4	9,4	9,3	1	1	1	1	1	1	1	1	1	0	1	-6,765328	274,577399	315,521242	0
15.01.2021	16:34:53	0	3,093201	2,146566	2,37375	310,6728	0,628	83,118	0	1016,1	7,5	9,4	9,2	1	1	1	1	1	1	1	1	1	0	1	-7,329105	274,606486	315,094047	0
15.01.2021	16:34:54	0	3,093201	2,259544	2,14125	328,9464	0,63	83,129	0	1016,04	7,5	9,4	9,2	1	1	1	1	1	1	1	1	1	0	1	-10,42988	274,721729	312,534857	0
15.01.2021	16:34:55	0	2,736294	3,050365	1,90725	306,8388	0,631	83,121	0	1016	7,5	9,4	9,3	1	1	1	1	1	1	1	1	1	0	1	-8,879493	274,559051	313,320942	0
15.01.2021	16:34:56	0	2,974232	5,309927	1,704	320,1012	0,633	83,115	0	1016,06	7,5	9,4	9,2	1	1	1	1	1	1	1	1	1	0	1	-10,570825	274,718647	312,379419	0
15.01.2021	16:34:57	0	3,212171	4,180155	1,63725	350,3052	0,63	83,114	0	1015,96	7,5	9,4	9,2	1	1	1	1	1	1	1	1	1	0	1	-6,8358	274,635616	315,724184	0
15.01.2021	16:34:58	0	2,855263	4,180155	1,6065	319,986	0,627	83,107	0	1016,08	7,5	9,4	9,2	1	1	1	1	1	1	1	1	1	0	1	-6,906272	274,58658	315,423402	0
15.01.2021	16:34:59	0	3,093201	4,632064	1,63725	339,0876	0,629	83,11	0	1016,14	7,4	9,4	9,2	1	1	1	1	1	1	1	1	1	0	1	-5,990134	274,730979	317,018099	0
15.01.2021	16:35:00	0	2,498355	2,146566	1,641	326,0376	0,63	83,101	0	1016,08	7,5	9,4	9,2	1	1	1	1	1	1	1	1	1	0	1	-7,117689	274,566694	315,118624	0
15.01.2021	16:35:01	0	2,974232	3,050365	1,818	324,8388	0,627	83,091	0	1016,02	7,5	9,4	9,3	1	1	1	1	1	1	1	1	1	0	1	-2,114165	274,583519	320,201138	0
15.01.2021	16:35:02	0	2,736294	3,502271	2,0115	323,334	0,632	83,105	0	1016,22	7,5	9,4	9,3	1	1	1	1	1	1	1	1	1	0	1	-7,117689	274,709404	315,789093	0
15.01.2021	16:35:03	0	3,093201	3,841224	2,172	337,176	0,624	83,093	0	1016,06	7,4	9,4	9,2	1	1	1	1	1	1	1	1	1	0	1	-5,144468	274,697086	317,704402	0
15.01.2021	16:35:04	0	2,855243	3,615248	2,09025	324,7632	0,63	83,082	0	1016,14	7,5	9,5	9,3	1	1	1	1	1	1	1	1	1	0	1	-4,933051	274,549884	317,224353	0
15.01.2021	16:35:05	0	2,617324	3,728224	2,001	311,3928	0,624	83,094	0	1015,84	7,5	9,4	9,3	1	1	1	1	1	1	1	1	1	0	1	-7,258633	274,594233	315,10698	0
15.01.2021	16:35:06	0	2,617306	3,389315	1,95225	309,9384	0,633	83,092	0	1016,04	7,5	9,5	9,2	1	1	1	1	1	1	1	1	1	0	1	-5,21494	274,546829	316,928127	0
15.01.2021	16:35:07	0	2,855263	4,18013	2,00925	312,1884	0,627	83,085	0	1016	7,5	9,4	9,3	1	1	1	1	1	1	1	1	1	0	1	-4,298802	274,666327	318,405486	0
15.01.2021	16:35:08	0	2,736294	3,163361	2,22975	326,7324	0,626	83,093	0	1016,2	7,5	9,4	9,2	1	1	1	1	1	1	1	1	1	0	1	-8,527132	274,536141	313,565774	0
15.01.2021	16:35:09	0	2,736294	2,598459	2,32125	331,1244	0,628	83,091	0	1016,2	7,5	9,4	9,3	1	1	1	1	1	1	1	1	1	0	1	-9,302326	274,618746	313,17841	0
15.01.2021	16:35:10	0	2,617324	2,598475	2,43375	320,526	0,632	83,093	0	1016,22	7,4	9,4	9,2	1	1	1	1	1	1	1	1	1	0	1	-7,540521	274,551412	314,624053	0
15.01.2021	16:35:11	0	3,450109	4,406083	2,59125	326,0052	0,634	83,096	0	1016,04	7,5	9,4	9,3	1	1	1	1	1	1	1	1	1	0	1	-4,298802	274,652501	318,340515	0
15.01.2021	16:35:12	0	3,33114	4,745013	2,616	316,602	0,628	83,092	0	1016,24	7,5	9,4	9,3	1	1	1	1	1	1	1	1	1	0	1	-9,866103	274,555995	312,319986	0
15.01.2021	16:35:13	0	3,212148	3,163342	2,66325	329,3244	0,627	83,091	0	1016,08	7,5	9,5	9,3	1	1	1	1	1	1	1	1	1	0	1	-7,610994	274,63715	314,956199	0
15.01.2021	16:35:14	0	2,617324	4,632064	2,60925	323,3844	0,625	83,099	0	1016,12	7,5	9,4	9,2	1	1	1	1	1	1	1	1	1	0	1	-5,778717	274,73869	317,265782	0
15.01.2021	16:35:15	0	2,855263	3,728224	2,7705	306,4716	0,628	83,08	0	1016,1	7,5	9,4	9,3	1	1	1	1	1	1	1	1	1	0	1	-7,963354	274,663253	314,726491	0
15.01.2021	16:35:16	0	2,974211	4,745013	2,80425	340,542	0,626	83,104	0	1016,02	7,5	9,5	9,3	1	1	1	1	1	1	1	1	1	0	1	-7,610994	274,734063	315,411744	0
15.01.2021	16:35:17	0	3,09318	3,389295	2,913	314,0856	0,623	83,08	0	1015,94	7,5	9,5	9,3	1	1	1	1	1	1	1	1	1	0	1	-10,570825	274,689392	312,241874	0
15.01.2021	16:35:18	0	2,736294	2,937389	2,961	338,7636	0,622	83,091	0	1016,1	7,5	9,4	9,3	1	1	1	1	1	1	1	1	1	0	1	-9,795631	274,723271	313,176354	0
15.01.2021	16:35:19	0	2,974232	3,728269	2,9175	338,3712	0,624	83,088	0	1016,14	7,5	9,4	9,1	1	1	1	1	1	1	1	1	1	0	1	-10,782241	274,634082	311,770535	0
15.01.2021	16:35:20	0	2,736294	3,615248	2,7585	330,3252	0,627	83,103	0	1016,04	7,5	9,4	9,3	1	1	1	1	1	1	1	1	1	0	1	-10,500352	274,734063	312,522385	0
15.01.2021	16:35:21	0	3,09318	4,18013	2,60325	330,6672	0,625	83,093	0	1016,04	7,5	9,5	9,3	1	1	1	1	1	1	1	1	1	0	1	-8,597604	274,60189	313,803966	0
15.01.2021	16:35:22	0	2,974232	4,40611	2,58225	327,8268	0,62	83,094	0	1016,06	7,5	9,4	9,2	1	1	1	1	1	1	1	1	1	0	1	-8,738548	274,723271	314,233436	0
15.01.2021	16:35:23	0	2,855243	3,050365	2,6145	313,2216	0,628	83,089	0	1016	7,5	9,5	9,3	1	1	1	1	1	1	1	1	1	0	1	-8,245243	274,638685	314,329159	0
15.01.2021	16:35:24	0	2,736294	3,728224	2,664	327,8232	0,625	83,087	0	1016	7,5	9,4	9,3	1	1	1	1	1	1	1	1	1	0	1	-8,033827	274,543775	314,094905	0
15.01.2021	16:35:25	0	3,093201	4,857989	2,7855	332,7336	0,625	83,089	0	1015,98	7,5	9,4	9,3	1	1	1	1	1	1	1	1	1	0	1	-7,258633	274,557523	314,934629	0
15.01.2021	16:35:26	0	3,212148	3,502271	2,84925	333,3708	0,623	83,084	0	1016,1	7,5	9,5	9,3	1	1	1	1	1	1	1	1	1	0	1	-5,355884	274,697086	317,492986	0
15.01.2021	16:35:27	0	2,736274	2,937389	2,82675	321,1596	0,625	83,089	0	1016,1	7,5	9,5	9,3	1	1	1	1	1	1	1	1	1	0	1	-11,980268	274,684777	310,810736	0
15.01.2021	16:35:28	0	3,09318	3,502313	2,715	342,3168	0,621	83,092	0	1016,14	7,5	9,5	9,1	1	1	1	1	1	1	1	1	1	0	1	-9,866103	274,701705	313,004479	0
15.01.2021	16:35:29	0	3,212148	3,841201	2,62875	321,1668	0,623	83,093	0	1016,18	7,5	9,5	9,3	1	1	1	1	1	1	1	1	1	0	1	-3,805497	274,658644	318,862689	0
15.01.2021	16:35:30	0	2,855263	3,050365	2,46225	339,0336	0,623	83,077	0	1015,94	7,5	9,4	9,3	1	1	1	1	1	1	1	1	1	0	1	-5,144468	274,562108	317,070316	0
15.01.2021	16:35:31	0	2,855263	4,519087	2,26425	339,4044	0,628	83,091	0	1016,06	7,5	9,4	9,2	1	1	1	1	1	1	1	1	1	0	1	-8,80902	274,692469	314,018145	0
15.01.2021	16:35:32	0	2,855263	3,728269	2,088	328,5396	0,623	83,088	0	1016,1	7,5	9,4	9,1	1	1	1	1	1	1	1	1	1	0	1	-4,792107	274,543775	317,336624	0
15.01.2021	16:35:33	0	2,855243	2,937389	2,178	322,9776	0,627	83,087	0	1016,02	7,5	9,5	9,3	1	1	1	1	1	1	1	1	1	0	1	-7,117689	274,589641	315,226359	0
15.01.2021	16:35:34	0	2,617306	2,598459	2,4135	321,8004	0,623	83,087	0	1016,1	7,5	9,5	9,3	1	1	1	1	1	1	1	1	1	0	1	-7,963354	274,546829	314,179712	0
15.01.2021	16:35:35	0	3,09318	3,389295	2,31075	317,7072	0,619	83,075	0	1016,02	7,5	9,5	9,3	1	1	1	1	1	1	1	1	1	0	1	-4,651163	274,647894	317,96651	0
15.01.2021	16:35:36	0	2,736274	4,51906	2,14575	346,8708	0,617	83,085	0	1016,12	7,5	9,5	9,3	1	1	1	1	1	1	1	1	1	0	1	-6,765328	274,732521	316,250157	0
15.01.2021	16:35:37	0	3,212148	3,615248	2,01225	327,8268	0,623	83,092	0	1016,06	7,5	9,5	9,3	1	1	1	1	1	1	1	1	1	0	1	-5,567301	274,644824	317,035945	0
15.01.2021	16:35:38	0	2,617306	3,163361	1,9425	330,0336	0,622	83,1	0	1016,16	7,5	9,5	9,2	1	1	1	1	1	1	1	1	1	0	1	-7,470049	274,734063	315,552688	0
15.01.2021	16:35:39	0	3,09318	4,632064	1,96575	319,5252	0,622	83,091	0	1016,06	7,5	9,5	9,2	1	1	1	1	1	1	1	1	1	0	1	-9,44327	274,604954	312,972687	0
15.01.2021	16:35:40	0	2,498355	2,937389	2,088	324,3528	0,618	83,097	0	1016,16	7,5	9,4	9,3	1	1	1	1	1	1	1	1	1	0	1	-6,412967	274,545302	315,722932	0
15.01.2021	16:35:41	0	2,974232	3,502292	2,172	322,2396	0,619	83,084	0	1016,16	7,5	9,4	9,2	1	1	1	1	1	1	1	1	1	0	1	-4,580691	274,675549	318,166943	0
15.01.2021	16:35:42	0	2,736274	3,615291	2,18325	321,1308	0,621	83,093	0	1016,14	7,5	9,5	9,1	1	1	1	1	1	1	1	1	1	0	1	-9,090909	274,545302	313,04499	0
15.01.2021	16:35:43	0	2,974211	2,711436	2,27325	312,2064	0,623	83,075	0	1016,04	7,5	9,5	9,3	1	1	1	1	1	1	1	1	1	0	1	-8,245243	274,612615	314,206695	0
15.01.2021	16:35:44	0	2,498355	2,485483	2,322	316,6452	0,626	83,094	0	1016	7,4	9,4	9,3	1	1	1	1	1	1	1	1	1	0	1	-5,778717	274,744861	317,294807	0
15.01.2021	16:35:45	0	2,974211	4,519087	2,29875	314,4672	0,626	83,095	0	1016,04	7,5	9,5	9,2	1	1	1	1	1	1	1	1	1	0	1	-11,134602	274,620279	311,353334	0
15.01.2021	16:35:46	0	2,617306	3,050365	2,31825	309,5676	0,621	83,089	0	1016,1	7,5	9,5	9,3	1	1	1	1	1	1	1	1	1	0	1	-4,087385	274,727895	318,906346	0
15.01.2021	16:35:47	0	2,855243	4,40611	2,358	320,4252	0,617	83,084	0	1016,06	7,5	9,5	9,2	1	1	1	1	1	1	1	1	1	0	1	-11,909796	274,704784	310,975264	0
15.01.2021	16:35:48	0	2,855243	3,276318	2,2605	324,4068	0,626	83,094	0	1016,16	7,5	9,5	9,3	1	1	1	1	1	1	1	1	1	0	1	-7,751938	274,678625	315,01015	0
15.01.2021	16:35:49	0	2,736274	4,51906	2,235	323,3016	0,619	83,085	0	1016,12	7,5	9,5	9,3	1	1	1	1	1	1	1	1	1	0	1	-7,047216	274,723271	315,924768	0
15.01.2021	16:35:50	0	2,736294	3,276318	2,36625	322,5636	0,617	83,088	0	1016,1	7,5	9,4	9,3	1	1	1	1	1	1	1	1	1	0	1	-4,439746	274,647894	318,177926	0
15.01.2021	16:35:51	0	3,212148	4,293107	2,4885	321,21	0,623	83,098	0	1016,22	7,5	9,5	9,3	1	1	1	1	1	1	1	1	1	0	1	-6,976744	274,718647	315,9735	0
15.01.2021	16:35:52	0	2,974211	4,067178	2,5425	314,3772	0,624	83,096	0	1016,02	7,5	9,5	9,2	1	1	1	1	1	1	1	1	1	0	1	-4,016913	274,600359	318,377464	0
15.01.2021	16:35:53	0	3,331117	3,841201	2,517	323,622	0,623	83,086	0	1016,12	7,5	9,5	9,3	1	1	1	1	1	1	1	1	1	0	1	-8,668076	274,732521	314,347409	0
15.01.2021	16:35:54	0	2,974232	3,050384	2,502	315,2376	0,621	83,092	0	1016,02	7,5	9,4	9,2	1	1	1	1	1	1	1	1	1	0	1	-9,302326	274,591172	313,04891	0
15.01.2021	16:35:55	0	3,212148	3,728247	2,39775	318,1824	0,615	83,077	0	1016,04	7,5	9,5	9,2	1	1	1	1	1	1	1	1	1	0	1	-5,990134	274,740232	317,061621	0
15.01.2021	16:35:56	0	2,974211	4,40611	2,3175	317,8188	0,62	83,086	0	1016,1	7,5	9,5	9,2	1	1	1	1	1	1	1	1	1	0	1	-12,191684	274,626412	310,325063	0
15.01.2021	16:35:57	0	3,33114	4,632064	2,3085	323,5968	0,619	83,081	0	1016,1	7,5	9,4	9,2	1	1	1	1	1	1	1	1	1	0	1	-4,721635	274,565165	317,5075	0
15.01.2021	16:35:58	0	3,09318	3,61527	2,26275	317,0232	0,613	83,094	0	1016,02	7,5	9,5	9,2	1	1	1	1	1	1	1	1	1	0	1	-5,84919	274,640219	316,732422	0
15.01.2021	16:35:59	0	2,617306	3,502271	2,1495	317,736	0,618	83,092	0	1016,04	7,5	9,5	9,3	1	1	1	1	1	1	1	1	1	0	1	-7,329105	274,559051	314,87133	0
15.01.2021	16:36:00	0	3,09318	4,745041	1,92675	306,8064	0,621	83,086	0	1016,18	7,5	9,5	9,2	1	1	1	1	1	1	1	1	1	0	1	-10,711769	274,695547	312,129866	0
15.01.2021	16:36:01	0	3,09318	4,745041	1,92675	306,8064	0,621	83,086	0	1016,18	7,5	9,5	9,2	1	1	1	1	1	1	1	1	1	0	1	-10,147992	274,543775	311,98074	0
15.01.2021	16:36:02	0	3,09318	3,728247	1,83225	326,4012	0,62	83,093	0	1016,12	7,5	9,5	9,2	1	1	1	1	1	1	1	1	1	0	1	-10,42988	274,60189	311,97169	0
15.01.2021	16:36:03	0	3,09318	4,067154	1,82475	305,3484	0,618	83,074	0	1016,1	7,5	9,5	9,3	1	1	1	1	1	1	1	1	1	0	1	-6,624383	274,548357	315,525852	0
15.01.2021	16:36:04	0	3,09318	4,406083	1,82625	309,258	0,622	83,102	0	1016,22	7,5	9,5	9,3	1	1	1	1	1	1	1	1	1	0	1	-7,258633	274,6817	315,517912	0
15.01.2021	16:36:05	0	2,617306	2,711452	1,878	308,8296	0,62	83,088	0	1016,12	7,5	9,5	9,2	1	1	1	1	1	1	1	1	1	0	1	-8,80902	274,724812	314,170212	0
15.01.2021	16:36:06	0	3,09318	4,40611	1,9725	305,3592	0,614	83,089	0	1016,04	7,5	9,5	9,2	1	1	1	1	1	1	1	1	1	0	1	-9,372798	274,660181	313,302607	0
15.01.2021	16:36:07	0	2,974211	4,067154	2,22675	301,734	0,609	83,098	0	1016,02	7,5	9,5	9,3	1	1	1	1	1	1	1	1	1	0	1	-8,104299	274,557523	314,088963	0
15.01.2021	16:36:08	0	3,212148	3,954177	2,3745	293,364	0,611	83,083	0	1015,92	7,5	9,5	9,3	1	1	1	1	1	1	1	1	1	0	1	-9,161381	274,695547	313,680253	0
15.01.2021	16:36:09	0	2,855243	2,937407	2,47875	290,7864	0,617	83,1	0	1016,1	7,5	9,5	9,2	1	1	1	1	1	1	1	1	1	0	1	-4,439746	274,591172	317,911489	0
15.01.2021	16:36:10	0	2,855243	3,728224	2,51925	304,254	0,616	83,095	0	1016,12	7,5	9,5	9,3	1	1	1	1	1	1	1	1	1	0	1	-7,329105	274,729437	315,671877	0
15.01.2021	16:36:11	0	2,617306	2,485498	2,505	309,9312	0,62	83,099	0	1016,12	7,5	9,5	9,2	1	1	1	1	1	1	1	1	1	0	1	-8,315715	274,647894	314,301957	0
15.01.2021	16:36:12	0	3,09318	5,19695	2,844	295,6644	0,622	83,088	0	1016	7,5	9,5	9,2	1	1	1	1	1	1	1	1	1	0	1	-10,570825	274,670938	312,155133	0
15.01.2021	16:36:13	0	2,736274	3,389315	3,0165	301,2048	0,62	83,086	0	1016,06	7,5	9,5	9,2	1	1	1	1	1	1	1	1	1	0	1	-6,342495	274,721729	316,622242	0
15.01.2021	16:36:14	0	2,617306	2,711452	2,95875	303,8652	0,606	83,084	0	1016,08	7,5	9,5	9,2	1	1	1	1	1	1	1	1	1	0	1	-9,231853	274,717106	313,711145	0
15.01.2021	16:36:15	0	3,212148	3,389315	2,65425	283,2084	0,62	83,089	0	1016,06	7,5	9,5	9,2	1	1	1	1	1	1	1	1	1	0	1	-6,906272	274,569752	315,344396	0
15.01.2021	16:36:16	0	2,736294	2,485498	2,46	314,8164	0,61	83,092	0	1016,08	7,5	9,4	9,2	1	1	1	1	1	1	1	1	1	0	1	-6,060606	274,726354	316,925876	0
15.01.2021	16:36:17	0	2,617306	2,485498	2,4645	320,0868	0,618	83,079	0	1016,04	7,5	9,5	9,2	1	1	1	1	1	1	1	1	1	0	1	-9,161381	274,594233	313,204232	0
15.01.2021	16:36:18	0	2,974211	2,824429	2,3505	300,222	0,617	83,087	0	1016,12	7,5	9,5	9,2	1	1	1	1	1	1	1	1	1	0	1	-6,624383	274,603422	315,78438	0
15.01.2021	16:36:19	0	2,974211	3,389315	2,32125	297,486	0,617	83,086	0	1016,14	7,5	9,5	9,2	1	1	1	1	1	1	1	1	1	0	1	-7,188161	274,557523	315,005101	0
15.01.2021	16:36:20	0	2,617306	3,163361	2,2425	313,5564	0,617	83,091	0	1016,06	7,5	9,5	9,2	1	1	1	1	1	1	1	1	1	0	1	-9,372798	274,612615	313,07914	0
15.01.2021	16:36:21	0	2,736274	3,615248	2,1915	309,9672	0,619	83,101	0	1016,2	7,5	9,5	9,3	1	1	1	1	1	1	1	1	1	0	1	-7,892882	274,730979	315,115351	0
15.01.2021	16:36:22	0	2,855243	4,745041	2,19	318,474	0,616	83,099	0	1016,06	7,5	9,5	9,2	1	1	1	1	1	1	1	1	1	0	1	-6,060606	274,60955	316,376938	0
15.01.2021	16:36:23	0	2,736274	4,180155	2,15925	327,7872	0,617	83,096	0	1016,16	7,5	9,5	9,2	1	1	1	1	1	1	1	1	1	0	1	-8,879493	274,744861	314,194032	0
15.01.2021	16:36:24	0	2,855243	2,824429	2,34075	315,918	0,614	83,105	0	1016,1	7,5	9,5	9,2	1	1	1	1	1	1	1	1	1	0	1	-8,597604	274,629479	313,933553	0
15.01.2021	16:36:25	0	2,736274	3,502292	2,86875	320,0544	0,614	83,102	0	1016,08	7,5	9,5	9,2	1	1	1	1	1	1	1	1	1	0	1	-7,751938	274,735605	315,278053	0
15.01.2021	16:36:26	0	3,212148	4,40611	3,267	316,7676	0,611	83,082	0	1016,02	7,5	9,5	9,2	1	1	1	1	1	1	1	1	1	0	1	-10,852713	274,672475	311,880469	0
15.01.2021	16:36:27	0	2,736274	2,711452	3,52125	319,6044	0,618	83,099	0	1016,18	7,5	9,5	9,2	1	1	1	1	1	1	1	1	1	0	1	-6,624383	274,741775	316,434627	0
15.01.2021	16:36:28	0	3,212148	4,858019	3,6885	311,3856	0,616	83,104	0	1016,08	7,5	9,5	9,2	1	1	1	1	1	1	1	1	1	0	1	-9,936575	274,697086	312,912295	0
15.01.2021	16:36:29	0	2,617306	3,050365	3,60375	307,206	0,617	83,077	0	1016,1	7,5	9,5	9,3	1	1	1	1	1	1	1	1	1	0	1	-11,275546	274,721729	311,689191	0
15.01.2021	16:36:30	0	2,617306	2,598475	3,486	310,9932	0,612	83,098	0	1016,16	7,5	9,5	9,2	1	1	1	1	1	1	1	1	1	0	1	-7,188161	274,612615	315,263777	0
15.01.2021	16:36:31	0	2,617306	2,711452	3,399	306,4608	0,609	83,089	0	1016,14	7,5	9,5	9,2	1	1	1	1	1	1	1	1	1	0	1	-11,768851	274,726354	311,217631	0
15.01.2021	16:36:32	0	3,09318	4,519087	3,38025	308,1528	0,618	83,082	0	1016,1	7,5	9,5	9,2	1	1	1	1	1	1	1	1	1	0	1	-7,610994	274,697086	315,237877	0
15.01.2021	16:36:33	0	2,617306	2,485498	3,32325	312,1524	0,614	83,093	0	1016,16	7,5	9,5	9,2	1	1	1	1	1	1	1	1	1	0	1	-4,439746	274,710944	318,474277	0
15.01.2021	16:36:34	0	2,855243	4,293133	3,414	311,4324	0,616	83,082	0	1016,02	7,5	9,5	9,2	1	1	1	1	1	1	1	1	1	0	1	-6,765328	274,730979	316,242905	0
15.01.2021	16:36:35	0	2,974211	4,51906	3,31575	324,0648	0,616	83,086	0	1016,1	7,5	9,5	9,3	1	1	1	1	1	1	1	1	1	0	1	-10,077519	274,692469	312,749646	0
15.01.2021	16:36:36	0	2,617306	2,485498	3,40425	317,718	0,612	83,09	0	1016,14	7,5	9,5	9,2	1	1	1	1	1	1	1	1	1	0	1	-7,117689	274,549884	315,039716	0
15.01.2021	16:36:37	0	2,974211	2,711452	3,65025	321,4728	0,621	83,079	0	1016	7,4	9,5	9,2	1	1	1	1	1	1	1	1	1	0	1	-8,668076	274,712485	314,25319	0
15.01.2021	16:36:38	0	2,974211	3,163361	3,72375	324,0828	0,608	83,072	0	1016,04	7,5	9,5	9,2	1	1	1	1	1	1	1	1	1	0	1	-7,117689	274,703244	315,760132	0
15.01.2021	16:36:39	0	2,974211	3,389315	3,66375	326,0052	0,61	83,072	0	1016,12	7,5	9,5	9,2	1	1	1	1	1	1	1	1	1	0	1	-7,82241	274,6817	314,954134	0
15.01.2021	16:36:40	0	2,617306	2,598475	3,7125	334,9836	0,615	83,067	0	1016,08	7,5	9,5	9,2	1	1	1	1	1	1	1	1	1	0	1	-7,329105	274,677087	315,425755	0
15.01.2021	16:36:41	0	3,212148	3,841224	3,48375	331,1172	0,614	83,068	0	1016,02	7,5	9,5	9,2	1	1	1	1	1	1	1	1	1	0	1	-10,007047	274,734063	313,01569	0
15.01.2021	16:36:42	0	2,498337	2,598475	3,41475	318,456	0,617	83,049	0	1016,16	7,5	9,5	9,2	1	1	1	1	1	1	1	1	1	0	1	-11,839323	274,684777	310,951681	0
15.01.2021	16:36:43	0	2,736274	4,632036	3,46425	319,248	0,616	83,048	0	1015,94	7,5	9,5	9,3	1	1	1	1	1	1	1	1	1	0	1	-10,077519	274,751034	313,025042	0
15.01.2021	16:36:44	0	2,736274	2,937407	3,33525	322,2144	0,615	83,055	0	1016,18	7,5	9,5	9,2	1	1	1	1	1	1	1	1	1	0	1	-4,862579	274,689392	317,950119	0
15.01.2021	16:36:45	0	3,09318	4,519087	3,186	321,8364	0,617	83,062	0	1016,12	7,5	9,5	9,2	1	1	1	1	1	1	1	1	1	0	1	-4,510218	274,73869	318,534281	0
15.01.2021	16:36:46	0	2,498337	2,824429	3,0855	328,9608	0,616	83,058	0	1016,08	7,5	9,5	9,2	1	1	1	1	1	1	1	1	1	0	1	-8,80902	274,565165	313,420115	0
15.01.2021	16:36:47	0	3,09318	4,632064	2,94075	333,5004	0,611	83,041	0	1016,04	7,5	9,5	9,2	1	1	1	1	1	1	1	1	1	0	1	-12,473573	274,720188	310,483917	0
15.01.2021	16:36:48	0	2,855243	3,954201	2,76975	328,5972	0,615	83,058	0	1016,14	7,5	9,5	9,2	1	1	1	1	1	1	1	1	1	0	1	-9,866103	274,710944	313,04792	0
15.01.2021	16:36:49	0	3,212148	4,858019	2,67375	332,3844	0,61	83,051	0	1016,1	7,5	9,5	9,2	1	1	1	1	1	1	1	1	1	0	1	-12,755462	274,712485	310,165804	0
15.01.2021	16:36:50	0	2,736274	2,711452	2,7435	345,1644	0,612	83,042	0	1016,12	7,4	9,5	9,2	1	1	1	1	1	1	1	1	1	0	1	-6,060606	274,724812	316,918627	0
15.01.2021	16:36:51	0	3,09318	4,745041	2,823	327,87	0,61	83,051	0	1016,18	7,5	9,5	9,2	1	1	1	1	1	1	1	1	1	0	1	-10,641297	274,692469	312,185869	0
15.01.2021	16:36:52	0	3,212148	4,180155	2,99625	347,3028	0,611	83,05	0	1016,04	7,4	9,5	9,2	1	1	1	1	1	1	1	1	1	0	1	-8,45666	274,700165	314,406684	0
15.01.2021	16:36:53	0	2,974211	2,598475	3,294	332,7588	0,613	83,059	0	1015,9	7,5	9,5	9,2	1	1	1	1	1	1	1	1	1	0	1	-8,174771	274,732521	314,840714	0
15.01.2021	16:36:54	0	2,974211	4,293133	3,37425	331,1676	0,615	83,048	0	1016,02	7,5	9,5	9,2	1	1	1	1	1	1	1	1	1	0	1	-3,664553	274,697086	319,184318	0
15.01.2021	16:36:55	0	3,09318	2,372521	3,3555	317,8404	0,613	83,044	0	1016,18	7,5	9,5	9,2	1	1	1	1	1	1	1	1	1	0	1	-8,174771	274,600359	314,219606	0
15.01.2021	16:36:56	0	2,855243	4,519087	3,1965	326,7864	0,611	83,044	0	1016	7,5	9,5	9,2	1	1	1	1	1	1	1	1	1	0	1	-6,694856	274,721729	316,269881	0
15.01.2021	16:36:57	0	3,09318	4,519087	3,12225	326,0484	0,607	83,038	0	1016,04	7,4	9,5	9,2	1	1	1	1	1	1	1	1	1	0	1	-9,020437	274,652501	313,61888	0
15.01.2021	16:36:58	0	2,736274	4,519087	3,1305	327,87	0,611	83,055	0	1016,12	7,5	9,5	9,2	1	1	1	1	1	1	1	1	1	0	1	-4,933051	274,734063	318,089686	0
15.01.2021	16:36:59	0	2,974211	3,163361	3,0855	333,8532	0,612	83,05	0	1016,2	7,5	9,5	9,2	1	1	1	1	1	1	1	1	1	0	1	-6,694856	274,60189	315,706714	0
15.01.2021	16:37:00	0	2,736274	3,954201	2,9565	334,62	0,61	83,046	0	1016,08	7,5	9,5	9,2	1	1	1	1	1	1	1	1	1	0	1	-9,090909	274,712485	313,830357	0
15.01.2021	16:37:01	0	2,736274	3,954201	2,9565	334,62	0,61	83,046	0	1016,08	7,5	9,5	9,2	1	1	1	1	1	1	1	1	1	0	1	-6,342495	274,592702	316,015929	0
15.01.2021	16:37:02	0	2,498337	2,711452	2,8065	334,9404	0,614	83,047	0	1015,94	7,5	9,5	9,2	1	1	1	1	1	1	1	1	1	0	1	-7,470049	274,594233	314,895564	0
15.01.2021	16:37:03	0	2,617306	2,485498	2,83725	335,7468	0,612	83,048	0	1016,12	7,5	9,5	9,2	1	1	1	1	1	1	1	1	1	0	1	-6,20155	274,60955	316,235993	0
15.01.2021	16:37:04	0	2,855243	2,711452	2,89125	330,8148	0,61	83,039	0	1016,1	7,5	9,5	9,2	1	1	1	1	1	1	1	1	1	0	1	-8,245243	274,732521	314,770242	0
15.01.2021	16:37:05	0	2,855243	2,937407	2,847	322,2648	0,606	83,056	0	1016,08	7,5	9,5	9,2	1	1	1	1	1	1	1	1	1	0	1	-6,131078	274,581989	316,17704	0
15.01.2021	16:37:06	0	2,974211	3,61527	2,81175	339,4656	0,617	83,058	0	1016,02	7,5	9,5	9,2	1	1	1	1	1	1	1	1	1	0	1	-8,879493	274,709404	314,027289	0
15.01.2021	16:37:07	0	3,09318	4,293107	2,74725	333,432	0,609	83,034	0	1016,04	7,5	9,5	9,3	1	1	1	1	1	1	1	1	1	0	1	-10,570825	274,692469	312,256341	0
15.01.2021	16:37:08	0	2,617306	2,598475	2,61075	328,9752	0,613	83,052	0	1016,22	7,5	9,5	9,2	1	1	1	1	1	1	1	1	1	0	1	-9,513742	274,726354	313,47274	0
15.01.2021	16:37:09	0	2,974211	3,276338	2,43975	327,1212	0,605	83,064	0	1016,1	7,5	9,5	9,2	1	1	1	1	1	1	1	1	1	0	1	-4,22833	274,627946	318,295622	0
15.01.2021	16:37:10	0	2,617306	2,711452	2,37975	328,9536	0,617	83,053	0	1016,06	7,5	9,5	9,2	1	1	1	1	1	1	1	1	1	0	1	-9,725159	274,727895	313,268573	0
15.01.2021	16:37:11	0	2,855243	3,276338	2,3265	330,048	0,608	83,06	0	1016,06	7,5	9,5	9,2	1	1	1	1	1	1	1	1	1	0	1	-9,936575	274,715566	312,999178	0
15.01.2021	16:37:12	0	2,736274	3,502292	2,484	333,2016	0,609	83,038	0	1016,28	7,5	9,5	9,2	1	1	1	1	1	1	1	1	1	0	1	-8,386187	274,565165	313,842948	0
15.01.2021	16:37:13	0	3,09318	3,728224	2,46825	326,0124	0,607	83,039	0	1016,16	7,5	9,5	9,3	1	1	1	1	1	1	1	1	1	0	1	-7,82241	274,737147	315,214834	0
15.01.2021	16:37:14	0	2,736274	4,40611	2,571	327,9204	0,605	83,037	0	1016,14	7,5	9,5	9,2	1	1	1	1	1	1	1	1	1	0	1	-11,627907	274,717106	311,315091	0
15.01.2021	16:37:15	0	3,09318	4,745041	2,5635	333,8892	0,607	83,053	0	1016,16	7,5	9,5	9,2	1	1	1	1	1	1	1	1	1	0	1	-10,711769	274,730979	312,296464	0
15.01.2021	16:37:16	0	2,736274	4,293133	2,454	329,6628	0,611	83,045	0	1016,08	7,4	9,5	9,2	1	1	1	1	1	1	1	1	1	0	1	-8,879493	274,674012	313,860915	0
15.01.2021	16:37:17	0	2,736274	2,937407	2,34525	331,488	0,604	83,048	0	1016,1	7,5	9,5	9,2	1	1	1	1	1	1	1	1	1	0	1	-11,205074	274,735605	311,824917	0
15.01.2021	16:37:18	0	2,736274	3,163361	2,3565	317,3796	0,607	83,053	0	1016,18	7,6	9,5	9,2	1	1	1	1	1	1	1	1	1	0	1	-5,144468	274,56058	317,063141	0
15.01.2021	16:37:19	0	2,736274	3,954201	2,3205	328,2372	0,609	83,054	0	1016,26	7,5	9,5	9,2	1	1	1	1	1	1	1	1	1	0	1	-7,751938	274,621812	314,7432	0
15.01.2021	16:37:20	0	3,09318	4,858019	2,30775	318,7728	0,602	83,053	0	1016,12	7,5	9,5	9,2	1	1	1	1	1	1	1	1	1	0	1	-8,949965	274,740232	314,10179	0
15.01.2021	16:37:21	0	3,09318	4,519087	2,2845	325,4004	0,611	83,051	0	1016,16	7,4	9,5	9,2	1	1	1	1	1	1	1	1	1	0	1	-5,21494	274,631013	317,323422	0
15.01.2021	16:37:22	0	2,617306	4,745041	2,298	318,0528	0,611	83,061	0	1016,24	7,5	9,5	9,2	1	1	1	1	1	1	1	1	1	0	1	-4,087385	274,566694	318,148927	0
15.01.2021	16:37:23	0	2,974211	2,937407	2,23125	323,2476	0,603	83,045	0	1016,1	7,4	9,5	9,2	1	1	1	1	1	1	1	1	1	0	1	-8,033827	274,700165	314,829517	0
15.01.2021	16:37:24	0	2,498337	2,372521	2,1105	316,1628	0,606	83,043	0	1015,86	7,5	9,5	9,2	1	1	1	1	1	1	1	1	1	0	1	-9,231853	274,721729	313,732884	0
15.01.2021	16:37:25	0	2,974211	5,083973	2,00025	312,5196	0,606	83,039	0	1016,16	7,5	9,5	9,2	1	1	1	1	1	1	1	1	1	0	1	-9,513742	274,675549	313,233891	0
15.01.2021	16:37:26	0	2,617306	2,033589	1,93125	320,7888	0,609	83,05	0	1016,08	7,5	9,5	9,2	1	1	1	1	1	1	1	1	1	0	1	-8,104299	274,557523	314,088963	0
15.01.2021	16:37:27	0	2,379369	2,485498	1,90575	314,8776	0,607	83,059	0	1016,12	7,5	9,5	9,2	1	1	1	1	1	1	1	1	1	0	1	-5,567301	274,592702	316,791123	0
15.01.2021	16:37:28	0	2,974211	3,61527	1,8825	308,8368	0,599	83,061	0	1016,08	7,4	9,5	9,2	1	1	1	1	1	1	1	1	1	0	1	-5,637773	274,712485	317,283493	0
15.01.2021	16:37:29	0	3,09318	4,858019	1,833	320,0292	0,6	83,054	0	1016,08	7,5	9,5	9,2	1	1	1	1	1	1	1	1	1	0	1	-15,856237	274,721729	307,1085	0
15.01.2021	16:37:30	0	2,974211	3,502292	1,758	312,2352	0,604	83,061	0	1016,14	7,6	9,5	9,2	1	1	1	1	1	1	1	1	1	0	1	-6,765328	274,591172	315,585908	0
15.01.2021	16:37:31	0	2,974211	3,954201	1,67325	313,6608	0,604	83,052	0	1016,12	7,4	9,5	9,2	1	1	1	1	1	1	1	1	1	0	1	-4,580691	274,581989	317,727428	0
15.01.2021	16:37:32	0	2,855243	2,598475	1,608	315,8712	0,61	83,062	0	1016,06	7,5	9,5	9,2	1	1	1	1	1	1	1	1	1	0	1	-8,80902	274,723271	314,162964	0
15.01.2021	16:37:33	0	2,855243	4,180155	1,55025	322,1964	0,605	83,068	0	1016,26	7,4	9,5	9,2	1	1	1	1	1	1	1	1	1	0	1	-10,42988	274,694008	312,404519	0
15.01.2021	16:37:34	0	3,09318	3,61527	1,557	310,7124	0,609	83,062	0	1016,06	7,5	9,5	9,2	1	1	1	1	1	1	1	1	1	0	1	-6,906272	274,677087	315,848588	0
15.01.2021	16:37:35	0	2,974211	4,632064	1,566	322,2432	0,609	83,062	0	1016,06	7,5	9,5	9,2	1	1	1	1	1	1	1	1	1	0	1	-8,104299	274,754121	315,012785	0
15.01.2021	16:37:36	0	2,974211	3,954201	1,60725	308,1492	0,6	83,052	0	1016,16	7,4	9,5	9,2	1	1	1	1	1	1	1	1	1	0	1	-4,651163	274,647894	317,96651	0
15.01.2021	16:37:37	0	2,498337	3,954201	1,6515	320,3748	0,607	83,056	0	1016,12	7,4	9,5	9,2	1	1	1	1	1	1	1	1	1	0	1	-5,21494	274,724812	317,764293	0
15.01.2021	16:37:38	0	2,974211	4,632064	1,64475	312,8472	0,607	83,065	0	1016,06	7,5	9,5	9,2	1	1	1	1	1	1	1	1	1	0	1	-9,372798	274,683238	313,410976	0
15.01.2021	16:37:39	0	2,498337	3,954201	1,55925	311,9184	0,608	83,062	0	1016,16	7,5	9,5	9,2	1	1	1	1	1	1	1	1	1	0	1	-11,205074	274,712485	311,716192	0
15.01.2021	16:37:40	0	2,855243	2,259544	1,51275	298,3644	0,608	83,047	0	1015,98	7,4	9,5	9,2	1	1	1	1	1	1	1	1	1	0	1	-12,332629	274,734063	310,690109	0
15.01.2021	16:37:41	0	3,212148	4,632064	1,55325	304,2828	0,596	83,044	0	1016,08	7,4	9,5	9,2	1	1	1	1	1	1	1	1	1	0	1	-6,483439	274,6694	316,235295	0
15.01.2021	16:37:42	0	2,855243	2,824429	1,533	307,5984	0,605	83,057	0	1016,06	7,4	9,5	9,2	1	1	1	1	1	1	1	1	1	0	1	-7,540521	274,741775	315,518489	0
15.01.2021	16:37:43	0	2,855243	3,163361	1,542	294,462	0,603	83,041	0	1015,94	7,5	9,5	9,2	1	1	1	1	1	1	1	1	1	0	1	-6,8358	274,66479	315,861267	0
15.01.2021	16:37:44	0	2,379369	2,485498	1,497	308,8188	0,608	83,069	0	1016,12	7,5	9,5	9,2	1	1	1	1	1	1	1	1	1	0	1	-8,174771	274,565165	314,054364	0
15.01.2021	16:37:45	0	2,498337	2,824429	1,4115	302,8068	0,598	83,057	0	1015,98	7,4	9,5	9,2	1	1	1	1	1	1	1	1	1	0	1	-6,976744	274,578929	315,317008	0
15.01.2021	16:37:46	0	2,736274	4,519087	1,40475	308,5704	0,605	83,064	0	1016,1	7,6	9,5	9,2	1	1	1	1	1	1	1	1	1	0	1	-10,359408	274,566694	311,876904	0
15.01.2021	16:37:47	0	2,498337	2,824429	1,47975	307,5768	0,599	83,058	0	1016,16	7,4	9,5	9,2	1	1	1	1	1	1	1	1	1	0	1	-7,470049	274,594233	314,895564	0
15.01.2021	16:37:48	0	2,736274	4,40611	1,52325	308,1168	0,607	83,073	0	1016,1	7,4	9,5	9,2	1	1	1	1	1	1	1	1	1	0	1	-5,567301	274,557523	316,62596	0
15.01.2021	16:37:49	0	2,974211	3,163361	1,43925	309,9708	0,605	83,077	0	1016,18	7,6	9,5	9,2	1	1	1	1	1	1	1	1	1	0	1	-8,527132	274,614147	313,932005	0
15.01.2021	16:37:50	0	2,855243	3,502292	1,3725	318,7836	0,607	83,078	0	1016,22	7,5	9,5	9,2	1	1	1	1	1	1	1	1	1	0	1	-7,540521	274,73869	315,503978	0
15.01.2021	16:37:51	0	2,974211	4,519087	1,38675	321,9372	0,607	83,074	0	1016,12	7,4	9,5	9,2	1	1	1	1	1	1	1	1	1	0	1	-10,923185	274,638685	311,651217	0
15.01.2021	16:37:52	0	2,617306	4,40611	1,37925	328,6512	0,603	83,06	0	1016,1	7,4	9,5	9,2	1	1	1	1	1	1	1	1	1	0	1	-8,033827	274,551412	314,130748	0
15.01.2021	16:37:53	0	2,855243	4,858019	1,3335	325,134	0,602	83,072	0	1016,06	7,4	9,5	9,2	1	1	1	1	1	1	1	1	1	0	1	-9,302326	274,706324	313,589974	0
15.01.2021	16:37:54	0	2,498337	4,293133	1,31625	330,498	0,601	83,074	0	1016,08	7,4	9,5	9,2	1	1	1	1	1	1	1	1	1	0	1	-9,654686	274,707864	313,244854	0
15.01.2021	16:37:55	0	2,974211	4,293133	1,36425	331,488	0,6	83,068	0	1016	7,4	9,5	9,2	1	1	1	1	1	1	1	1	1	0	1	-11,486963	274,635616	311,073021	0
15.01.2021	16:37:56	0	2,736274	4,519087	1,32675	307,2564	0,598	83,069	0	1016,04	7,6	9,5	9,2	1	1	1	1	1	1	1	1	1	0	1	-7,399577	274,740232	315,652177	0
15.01.2021	16:37:57	0	2,617306	3,050384	1,36425	315,2448	0,605	83,08	0	1016,14	7,4	9,5	9,2	1	1	1	1	1	1	1	1	1	0	1	-9,936575	274,687853	312,868891	0
15.01.2021	16:37:58	0	2,736274	4,519087	1,359	319,6656	0,598	83,068	0	1016,06	7,6	9,5	9,2	1	1	1	1	1	1	1	1	1	0	1	-14,305849	274,551412	307,858725	0
15.01.2021	16:37:59	0	2,498337	2,824429	1,32675	320,058	0,605	83,067	0	1016,14	7,4	9,5	9,2	1	1	1	1	1	1	1	1	1	0	1	-6,412967	274,674012	316,327441	0
15.01.2021	16:38:00	0	2,736274	3,389315	1,4325	319,0716	0,604	83,07	0	1015,98	7,4	9,5	9,2	1	1	1	1	1	1	1	1	1	0	1	-10,359408	274,741775	312,699602	0
15.01.2021	16:38:01	0	2,736274	3,389315	1,4325	319,0716	0,604	83,07	0	1015,98	7,4	9,5	9,2	1	1	1	1	1	1	1	1	1	0	1	-10,077519	274,680162	312,691796	0
15.01.2021	16:38:02	0	2,617306	3,954201	1,4955	328,9068	0,597	83,065	0	1016,06	7,4	9,5	9,2	1	1	1	1	1	1	1	1	1	0	1	-4,298802	274,572811	317,966224	0
15.01.2021	16:38:03	0	3,212148	4,293133	1,485	322,6284	0,603	83,076	0	1016,12	7,6	9,5	9,2	1	1	1	1	1	1	1	1	1	0	1	-11,768851	274,690931	311,05108	0
15.01.2021	16:38:04	0	2,617306	2,824429	1,51875	330,066	0,603	83,078	0	1016,14	7,4	9,5	9,2	1	1	1	1	1	1	1	1	1	0	1	-8,033827	274,546829	314,10924	0
15.01.2021	16:38:05	0	2,974211	5,083973	1,58625	311,3964	0,601	83,073	0	1015,94	7,4	9,5	9,2	1	1	1	1	1	1	1	1	1	0	1	-12,896406	274,663253	309,793439	0
15.01.2021	16:38:06	0	2,736274	4,632064	1,58475	327,4344	0,602	83,08	0	1016,08	7,5	9,5	9,2	1	1	1	1	1	1	1	1	1	0	1	-5,990134	274,735605	317,039857	0
15.01.2021	16:38:07	0	2,855243	4,632064	1,63575	312,4008	0,594	83,068	0	1016,06	7,4	9,5	9,2	1	1	1	1	1	1	1	1	1	0	1	-7,188161	274,640219	315,393451	0
15.01.2021	16:38:08	0	2,855243	2,711452	1,7175	330,0804	0,6	83,073	0	1016,08	7,5	9,5	9,2	1	1	1	1	1	1	1	1	1	0	1	-8,527132	274,727895	314,4666	0
15.01.2021	16:38:09	0	2,855243	4,632064	1,776	321,8688	0,603	83,075	0	1016,16	7,4	9,5	9,2	1	1	1	1	1	1	1	1	1	0	1	-10,007047	274,720188	312,950443	0
15.01.2021	16:38:10	0	2,855243	4,632064	1,75125	327,0024	0,6	83,066	0	1016,12	7,4	9,5	9,2	1	1	1	1	1	1	1	1	1	0	1	-7,751938	274,61568	314,714397	0
15.01.2021	16:38:11	0	2,379369	3,61527	1,75575	322,578	0,601	83,078	0	1016,16	7,4	9,5	9,2	1	1	1	1	1	1	1	1	1	0	1	-6,694856	274,548357	315,45538	0
15.01.2021	16:38:12	0	2,974211	3,841224	1,722	321,4764	0,601	83,088	0	1016,1	7,4	9,5	9,2	1	1	1	1	1	1	1	1	1	0	1	-7,82241	274,670938	314,903548	0
15.01.2021	16:38:13	0	2,498337	3,163361	1,71975	319,302	0,604	83,077	0	1016,12	7,4	9,5	9,2	1	1	1	1	1	1	1	1	1	0	1	-7,188161	274,740232	315,863594	0
15.01.2021	16:38:14	0	2,736274	4,40611	1,70925	317,3724	0,601	83,095	0	1016,2	7,4	9,5	9,2	1	1	1	1	1	1	1	1	1	0	1	-7,258633	274,710944	315,65539	0
15.01.2021	16:38:15	0	2,974253	3,050384	1,69725	320,4396	0,603	83,077	0	1016,3	7,4	9,3	9,2	1	1	1	1	1	1	1	1	1	0	1	-7,188161	274,612615	315,263777	0
15.01.2021	16:38:16	0	2,498337	2,937407	1,72725	319,1472	0,601	83,091	0	1016,04	7,4	9,5	9,2	1	1	1	1	1	1	1	1	1	0	1	-8,597604	274,562108	313,61718	0
15.01.2021	16:38:17	0	2,379369	3,61527	1,7895	318,8952	0,601	83,08	0	1016,2	7,6	9,5	9,2	1	1	1	1	1	1	1	1	1	0	1	-7,540521	274,58811	314,796339	0
15.01.2021	16:38:18	0	2,260401	2,711452	1,8615	308,8728	0,596	83,081	0	1016,14	7,4	9,5	9,2	1	1	1	1	1	1	1	1	1	0	1	-8,949965	274,56058	313,257644	0
15.01.2021	16:38:19	0	2,736274	5,19695	1,9965	312,1092	0,6	83,075	0	1016,06	7,4	9,5	9,2	1	1	1	1	1	1	1	1	1	0	1	-7,610994	274,60189	314,790576	0
15.01.2021	16:38:20	0	2,855283	2,824429	2,26275	307,2204	0,599	83,057	0	1016,12	7,6	9,3	9,2	1	1	1	1	1	1	1	1	1	0	1	-10,077519	274,724812	312,901713	0
15.01.2021	16:38:21	0	2,379369	2,598475	2,41875	315,5328	0,602	83,053	0	1015,84	7,5	9,5	9,2	1	1	1	1	1	1	1	1	1	0	1	-12,825934	274,690931	309,993998	0
15.01.2021	16:38:22	0	2,617306	3,163361	2,73975	311,8212	0,605	83,075	0	1016,14	7,4	9,5	9,2	1	1	1	1	1	1	1	1	1	0	1	-9,302326	274,706324	313,589974	0
15.01.2021	16:38:23	0	2,736274	3,276338	2,90625	313,254	0,604	83,082	0	1016,16	7,4	9,5	9,2	1	1	1	1	1	1	1	1	1	0	1	-8,597604	274,718647	314,35264	0
15.01.2021	16:38:24	0	2,260401	2,824429	3,231	309,2364	0,599	83,066	0	1016,14	7,4	9,5	9,2	1	1	1	1	1	1	1	1	1	0	1	-7,892882	274,572811	314,372144	0
15.01.2021	16:38:25	0	2,974211	4,180155	3,372	311,0004	0,606	83,073	0	1016,18	7,4	9,5	9,2	1	1	1	1	1	1	1	1	1	0	1	-10,782241	274,686315	312,015994	0
15.01.2021	16:38:26	0	2,736274	3,841224	3,41625	313,2792	0,602	83,067	0	1016,1	7,4	9,5	9,2	1	1	1	1	1	1	1	1	1	0	1	-9,936575	274,734063	313,086162	0
15.01.2021	16:38:27	0	2,617306	4,632064	3,30225	318,4704	0,598	83,069	0	1016,1	7,4	9,5	9,2	1	1	1	1	1	1	1	1	1	0	1	-8,033827	274,632547	314,511742	0
15.01.2021	16:38:28	0	2,379369	2,711452	3,069	318,1392	0,601	83,074	0	1016,1	7,4	9,5	9,2	1	1	1	1	1	1	1	1	1	0	1	-10,993658	274,565165	311,235478	0
15.01.2021	16:38:29	0	2,974211	4,745041	2,8575	313,6068	0,603	83,073	0	1016,12	7,4	9,5	9,2	1	1	1	1	1	1	1	1	1	0	1	-8,315715	274,611082	314,129025	0
15.01.2021	16:38:30	0	2,736274	4,519087	2,87025	322,668	0,595	83,075	0	1016,1	7,4	9,5	9,2	1	1	1	1	1	1	1	1	1	0	1	-5,84919	274,724812	317,130043	0
15.01.2021	16:38:31	0	2,379369	2,598475	2,907	320,3676	0,624	83,069	0	1016,34	7,4	9,5	9,2	1	1	1	1	1	1	1	1	1	0	1	-7,399577	274,603422	315,009186	0
15.01.2021	16:38:32	0	2,736274	4,519087	2,7705	335,0124	0,595	83,065	0	1016,18	7,4	9,5	9,2	1	1	1	1	1	1	1	1	1	0	1	-9,372798	274,548357	312,777438	0
15.01.2021	16:38:33	0	2,974211	4,293133	2,42025	314,5104	0,601	83,06	0	1016,04	7,4	9,5	9,2	1	1	1	1	1	1	1	1	1	0	1	-7,047216	274,678625	315,714871	0
15.01.2021	16:38:34	0	2,736313	4,745041	2,1825	316,9764	0,601	83,061	0	1016,14	7,4	9,3	9,2	1	1	1	1	1	1	1	1	1	0	1	-7,681466	274,540721	314,432933	0
15.01.2021	16:38:35	0	2,379369	3,050384	2,0955	330,4332	0,6	83,047	0	1016,06	7,4	9,5	9,2	1	1	1	1	1	1	1	1	1	0	1	-9,302326	274,608018	313,128022	0
15.01.2021	16:38:36	0	2,379369	2,937407	1,971	323,3304	0,599	83,056	0	1016,14	7,4	9,5	9,2	1	1	1	1	1	1	1	1	1	0	1	-6,483439	274,555995	315,70265	0
15.01.2021	16:38:37	0	2,855243	4,858019	2,17275	322,2432	0,601	83,062	0	1016,14	7,4	9,5	9,2	1	1	1	1	1	1	1	1	1	0	1	-5,003524	274,695547	317,838111	0
15.01.2021	16:38:38	0	3,093223	4,180155	2,56725	319,5468	0,599	83,058	0	1016,18	7,4	9,3	9,2	1	1	1	1	1	1	1	1	1	0	1	-7,892882	274,629479	314,638274	0
15.01.2021	16:38:39	0	2,498337	3,502292	2,823	316,3104	0,592	83,052	0	1016,04	7,4	9,5	9,2	1	1	1	1	1	1	1	1	1	0	1	-7,399577	274,539194	314,707657	0
15.01.2021	16:38:40	0	2,617306	4,970996	2,94975	319,1688	0,6	83,052	0	1016,12	7,4	9,5	9,2	1	1	1	1	1	1	1	1	1	0	1	-11,41649	274,6694	311,302243	0
15.01.2021	16:38:41	0	2,855243	2,824429	3,02175	324,3528	0,598	83,061	0	1016,12	7,4	9,5	9,2	1	1	1	1	1	1	1	1	1	0	1	-5,567301	274,562108	316,647483	0
15.01.2021	16:38:42	0	2,260401	3,163361	3,12075	328,23	0,599	83,051	0	1016,16	7,4	9,5	9,2	1	1	1	1	1	1	1	1	1	0	1	-8,80902	274,715566	314,126733	0
15.01.2021	16:38:43	0	2,855243	4,745041	3,07275	333,1836	0,596	83,041	0	1016,04	7,4	9,5	9,2	1	1	1	1	1	1	1	1	1	0	1	-11,275546	274,723271	311,696438	0
15.01.2021	16:38:44	0	2,855283	4,745041	3,1005	332,766	0,598	83,029	0	1016,16	7,4	9,3	9,2	1	1	1	1	1	1	1	1	1	0	1	-10,42988	274,675549	312,317753	0
15.01.2021	16:38:45	0	2,260432	2,485498	2,93775	309,9096	0,599	83,041	0	1016	7,4	9,3	9,2	1	1	1	1	1	1	1	1	1	0	1	-10,007047	274,557523	312,186214	0
15.01.2021	16:38:46	0	2,379386	2,146566	2,93625	312,1704	0,596	83,037	0	1016,16	7,4	9,4	9,2	1	1	1	1	1	1	1	1	1	0	1	-8,45666	274,624879	314,052884	0
15.01.2021	16:38:47	0	2,498337	4,858019	2,89725	343,1592	0,599	83,042	0	1016,06	7,4	9,5	9,2	1	1	1	1	1	1	1	1	1	0	1	-8,386187	274,729437	314,614795	0
15.01.2021	16:38:48	0	2,974211	4,067178	2,71725	333,1224	0,595	83,034	0	1015,84	7,4	9,5	9,2	1	1	1	1	1	1	1	1	1	0	1	-9,936575	274,644824	312,666671	0
15.01.2021	16:38:49	0	2,974211	3,954201	2,577	322,9956	0,598	83,012	0	1016,14	7,4	9,5	9,2	1	1	1	1	1	1	1	1	1	0	1	-6,412967	274,726354	316,573515	0
15.01.2021	16:38:50	0	2,974211	4,632064	2,634	323,7588	0,593	83,019	0	1016	7,4	9,5	9,2	1	1	1	1	1	1	1	1	1	0	1	-9,161381	274,678625	313,600706	0
15.01.2021	16:38:51	0	2,617343	3,728247	2,75775	327,4128	0,59	83,016	0	1016,04	7,4	9,3	9,2	1	1	1	1	1	1	1	1	1	0	1	-7,82241	274,712485	315,098856	0
15.01.2021	16:38:52	0	2,974211	5,422904	2,9415	332,802	0,594	83,028	0	1016,24	7,4	9,5	9,2	1	1	1	1	1	1	1	1	1	0	1	-8,315715	274,712485	314,605551	0
15.01.2021	16:38:53	0	2,617306	2,711452	2,86875	348,0552	0,601	83,025	0	1015,98	7,4	9,5	9,2	1	1	1	1	1	1	1	1	1	0	1	-7,892882	274,701705	314,977699	0
15.01.2021	16:38:54	0	2,498337	2,259544	2,685	349,8912	0,596	83,02	0	1016,2	7,4	9,5	9,2	1	1	1	1	1	1	1	1	1	0	1	-9,654686	274,554467	312,52423	0
15.01.2021	16:38:55	0	2,855283	3,163361	2,334	344,3868	0,594	83,022	0	1016,2	7,4	9,3	9,2	1	1	1	1	1	1	1	1	1	0	1	-10,147992	274,634082	312,404785	0
15.01.2021	16:38:56	0	2,855263	4,745041	2,199	316,7208	0,591	83,025	0	1015,96	7,4	9,4	9,2	1	1	1	1	1	1	1	1	1	0	1	-11,698379	274,735605	311,331611	0
15.01.2021	16:38:57	0	2,617343	3,954201	2,3055	336,0492	0,597	83,031	0	1016,12	7,4	9,3	9,2	1	1	1	1	1	1	1	1	1	0	1	-6,765328	274,58811	315,571533	0
15.01.2021	16:38:58	0	2,498337	2,824429	2,21775	314,8848	0,599	83,04	0	1016,12	7,4	9,5	9,2	1	1	1	1	1	1	1	1	1	0	1	-7,82241	274,720188	315,13508	0
15.01.2021	16:38:59	0	2,379369	4,180155	1,89075	313,218	0,595	83,025	0	1016,14	7,4	9,5	9,2	1	1	1	1	1	1	1	1	1	0	1	-9,020437	274,629479	313,51072	0
15.01.2021	16:39:00	0	2,498373	4,067178	1,7895	324,7884	0,601	83,038	0	1016,14	7,4	9,3	9,2	1	1	1	1	1	1	1	1	1	0	1	-12,332629	274,73869	310,71187	0
15.01.2021	16:39:01	0	2,736274	4,519087	1,827	311,7816	0,594	83,031	0	1016,18	7,4	9,5	9,2	1	1	1	1	1	1	1	1	1	0	1	-10,288936	274,64943	312,335951	0
15.01.2021	16:39:02	0	2,736294	3,841224	1,98075	330,7356	0,6	83,041	0	1016,14	7,4	9,4	9,2	1	1	1	1	1	1	1	1	1	0	1	-9,020437	274,551412	313,144138	0
15.01.2021	16:39:03	0	2,617306	2,937407	2,27475	321,7968	0,593	83,021	0	1016,18	7,4	9,5	9,2	1	1	1	1	1	1	1	1	1	0	1	-6,20155	274,591172	316,149685	0
15.01.2021	16:39:04	0	2,855243	4,40611	2,39925	324,3924	0,59	83,026	0	1016,08	7,4	9,5	9,2	1	1	1	1	1	1	1	1	1	0	1	-10,711769	274,729437	312,289213	0
15.01.2021	16:39:05	0	2,855243	4,519087	2,31375	315,5004	0,595	83,019	0	1016,08	7,4	9,5	9,2	1	1	1	1	1	1	1	1	1	0	1	-7,399577	274,674012	315,34083	0
15.01.2021	16:39:06	0	2,617306	4,180155	2,29275	318,4236	0,594	83,025	0	1016,14	7,4	9,5	9,2	1	1	1	1	1	1	1	1	1	0	1	-10,711769	274,732521	312,303716	0
15.01.2021	16:39:07	0	2,498373	3,050384	2,412	308,1168	0,592	83,022	0	1016,12	7,4	9,3	9,2	1	1	1	1	1	1	1	1	1	0	1	-10,007047	274,698626	312,84906	0
15.01.2021	16:39:08	0	2,855243	4,632064	2,3475	298,0296	0,595	83,024	0	1016,06	7,4	9,5	9,2	1	1	1	1	1	1	1	1	1	0	1	-8,597604	274,608018	313,832744	0
15.01.2021	16:39:09	0	2,855243	4,632064	2,56575	298,7352	0,596	83,017	0	1015,96	7,4	9,5	9,2	1	1	1	1	1	1	1	1	1	0	1	-7,188161	274,687853	315,617306	0
15.01.2021	16:39:10	0	2,617343	4,745041	2,80575	306,4824	0,598	83,021	0	1016,12	7,4	9,3	9,2	1	1	1	1	1	1	1	1	1	0	1	-7,540521	274,555995	314,645567	0
15.01.2021	16:39:11	0	2,617324	4,519087	2,835	309,5028	0,591	83,017	0	1016,06	7,4	9,4	9,2	1	1	1	1	1	1	1	1	1	0	1	-6,906272	274,552939	315,265473	0
15.01.2021	16:39:12	0	2,260432	2,711452	2,991	310,7088	0,598	83,025	0	1016,18	7,4	9,3	9,2	1	1	1	1	1	1	1	1	1	0	1	-8,949965	274,563637	313,271994	0
15.01.2021	16:39:13	0	2,498337	2,372521	3,24075	315,2664	0,594	83,019	0	1016,22	7,4	9,5	9,2	1	1	1	1	1	1	1	1	1	0	1	-11,627907	274,735605	311,402084	0
15.01.2021	16:39:14	0	2,379402	3,276338	3,1755	314,1864	0,597	83,033	0	1016,2	7,4	9,3	9,2	1	1	1	1	1	1	1	1	1	0	1	-8,45666	274,73869	314,587839	0
15.01.2021	16:39:15	0	2,855243	4,40611	3,04425	312,8652	0,596	83,034	0	1016,16	7,4	9,5	9,2	1	1	1	1	1	1	1	1	1	0	1	-11,06413	274,729437	311,936852	0
15.01.2021	16:39:16	0	2,736274	4,180155	2,9115	315,522	0,599	83,029	0	1016,08	7,4	9,5	9,2	1	1	1	1	1	1	1	1	1	0	1	-9,372798	274,614147	313,086339	0
15.01.2021	16:39:17	0	2,498373	2,598475	2,847	313,8588	0,591	83,034	0	1016	7,4	9,3	9,2	1	1	1	1	1	1	1	1	1	0	1	-10,500352	274,551412	311,664222	0
15.01.2021	16:39:18	0	2,617306	3,954201	2,86425	324,144	0,599	83,033	0	1015,98	7,4	9,5	9,2	1	1	1	1	1	1	1	1	1	0	1	-8,597604	274,600359	313,796773	0
15.01.2021	16:39:19	0	2,260401	3,841224	2,754	326,7396	0,602	83,028	0	1016,26	7,6	9,5	9,2	1	1	1	1	1	1	1	1	1	0	1	-7,610994	274,737147	315,426251	0
15.01.2021	16:39:20	0	2,617306	3,728247	2,5935	327,2004	0,59	83,018	0	1016,12	7,4	9,5	9,2	1	1	1	1	1	1	1	1	1	0	1	-7,892882	274,6817	314,883662	0
15.01.2021	16:39:21	0	2,736274	4,293133	2,33325	299,0052	0,595	83,026	0	1016,14	7,4	9,5	9,2	1	1	1	1	1	1	1	1	1	0	1	-10,711769	274,552939	311,459976	0
15.01.2021	16:39:22	0	2,260432	2,711452	2,3475	290,8296	0,597	83,014	0	1016,04	7,4	9,3	9,2	1	1	1	1	1	1	1	1	1	0	1	-7,470049	274,646359	315,14041	0
15.01.2021	16:39:23	0	2,617324	4,858019	2,412	288,45	0,598	83,016	0	1016,22	7,4	9,4	9,2	1	1	1	1	1	1	1	1	1	0	1	-8,45666	274,555995	313,729429	0
15.01.2021	16:39:24	0	2,617306	4,632064	2,30625	299,3868	0,596	83,009	0	1016,16	7,4	9,5	9,2	1	1	1	1	1	1	1	1	1	0	1	-7,117689	274,627946	315,406263	0
15.01.2021	16:39:25	0	2,855243	5,309927	2,2455	293,0292	0,6	83,013	0	1016,2	7,4	9,5	9,2	1	1	1	1	1	1	1	1	1	0	1	-7,117689	274,721729	315,847048	0
15.01.2021	16:39:26	0	2,617324	3,163361	2,21175	299,3292	0,593	83,006	0	1016,06	7,4	9,4	9,2	1	1	1	1	1	1	1	1	1	0	1	-9,161381	274,621812	313,333757	0
15.01.2021	16:39:27	0	2,379369	4,180155	2,26125	303,5052	0,596	83,019	0	1016,1	7,4	9,5	9,2	1	1	1	1	1	1	1	1	1	0	1	-5,003524	274,543775	317,125208	0
15.01.2021	16:39:28	0	2,498337	4,180155	2,22375	303,9228	0,597	83,012	0	1016,08	7,4	9,5	9,2	1	1	1	1	1	1	1	1	1	0	1	-9,161381	274,614147	313,297755	0
15.01.2021	16:39:29	0	2,379369	2,937407	2,196	305,0424	0,59	82,997	0	1016,02	7,4	9,5	9,2	1	1	1	1	1	1	1	1	1	0	1	-10,852713	274,554467	311,326203	0
15.01.2021	16:39:30	0	2,260401	3,728247	2,08425	300,2004	0,599	82,99	0	1016,06	7,4	9,5	9,2	1	1	1	1	1	1	1	1	1	0	1	-6,20155	274,698626	316,654556	0
15.01.2021	16:39:31	0	2,141462	2,372521	1,935	296,082	0,597	83,005	0	1016,12	7,4	9,3	9,2	1	1	1	1	1	1	1	1	1	0	1	-7,751938	274,559051	314,448497	0
15.01.2021	16:39:32	0	2,617343	4,632064	1,8525	301,68	0,597	82,984	0	1016,14	7,4	9,3	9,2	1	1	1	1	1	1	1	1	1	0	1	-8,879493	274,689392	313,933206	0
15.01.2021	16:39:33	0	2,141447	2,598475	1,89825	311,778	0,618	83,014	0	1016,26	7,4	9,4	9,2	1	1	1	1	1	1	1	1	1	0	1	-5,919662	274,555995	316,266427	0
15.01.2021	16:39:34	0	2,974253	4,519087	2,049	305,4384	0,595	82,992	0	1016,14	7,4	9,3	9,2	1	1	1	1	1	1	1	1	1	0	1	-7,681466	274,6694	315,037268	0
15.01.2021	16:39:35	0	2,498337	5,083973	2,0955	322,6464	0,597	83,011	0	1016,24	7,4	9,5	9,2	1	1	1	1	1	1	1	1	1	0	1	-6,624383	274,554467	315,554533	0
15.01.2021	16:39:36	0	2,736294	3,163361	1,92975	323,298	0,594	82,993	0	1016,1	7,4	9,4	9,2	1	1	1	1	1	1	1	1	1	0	1	-7,258633	274,569752	314,992035	0
15.01.2021	16:39:37	0	2,379369	4,180155	1,90425	314,4204	0,594	82,991	0	1016,32	7,4	9,5	9,2	1	1	1	1	1	1	1	1	1	0	1	-9,44327	274,694008	313,39113	0
15.01.2021	16:39:38	0	2,736274	4,180155	1,815	318,4092	0,591	82,984	0	1016,14	7,4	9,5	9,2	1	1	1	1	1	1	1	1	1	0	1	-6,624383	274,74949	316,470918	0
15.01.2021	16:39:39	0	2,379386	2,824429	1,734	316,2564	0,589	82,982	0	1016,04	7,4	9,4	9,2	1	1	1	1	1	1	1	1	1	0	1	-8,879493	274,652501	313,759824	0
15.01.2021	16:39:40	0	2,498355	4,632064	1,64625	297,3096	0,6	82,993	0	1016,26	7,4	9,4	9,2	1	1	1	1	1	1	1	1	1	0	1	-6,976744	274,723271	315,99524	0
15.01.2021	16:39:41	0	2,141462	2,937407	1,74225	306,5976	0,6	82,993	0	1016,14	7,4	9,3	9,2	1	1	1	1	1	1	1	1	1	0	1	-9,725159	274,600359	312,669219	0
15.01.2021	16:39:42	0	2,260416	3,61527	1,91475	314,2008	0,591	82,987	0	1016,1	7,4	9,4	9,2	1	1	1	1	1	1	1	1	1	0	1	-7,610994	274,591172	314,740242	0
15.01.2021	16:39:43	0	2,498337	4,519087	2,154	315,8712	0,598	83	0	1016,2	7,4	9,5	9,2	1	1	1	1	1	1	1	1	1	0	1	-13,6716	274,741775	309,387411	0
15.01.2021	16:39:44	0	2,498373	2,937407	2,30775	300,8808	0,594	82,995	0	1016,06	7,4	9,3	9,2	1	1	1	1	1	1	1	1	1	0	1	-9,372798	274,621812	313,12234	0
15.01.2021	16:39:45	0	2,260416	2,711452	2,3325	312,4872	0,591	82,983	0	1016,22	7,4	9,4	9,2	1	1	1	1	1	1	1	1	1	0	1	-7,329105	274,751034	315,773456	0
15.01.2021	16:39:46	0	2,498355	4,970996	2,34225	308,1384	0,594	82,994	0	1016,26	7,4	9,4	9,2	1	1	1	1	1	1	1	1	1	0	1	-9,584214	274,626412	312,932533	0
15.01.2021	16:39:47	0	2,260401	3,954201	2,4885	309,9024	0,595	83,001	0	1016,22	7,4	9,5	9,2	1	1	1	1	1	1	1	1	1	0	1	-6,20155	274,557523	315,991711	0
15.01.2021	16:39:48	0	2,617324	3,61527	2,619	315,4824	0,59	82,986	0	1016	7,4	9,4	9,2	1	1	1	1	1	1	1	1	1	0	1	-9,725159	274,631013	312,813204	0
15.01.2021	16:39:49	0	2,617324	4,745041	2,592	305,4024	0,596	83,004	0	1016,08	7,4	9,4	9,2	1	1	1	1	1	1	1	1	1	0	1	-10,993658	274,727895	312,000074	0
15.01.2021	16:39:50	0	2,498355	2,937407	2,505	312,8616	0,591	82,999	0	1016,02	7,4	9,4	9,2	1	1	1	1	1	1	1	1	1	0	1	-6,20155	274,663253	316,488295	0
15.01.2021	16:39:51	0	2,379402	4,40611	2,3595	313,2252	0,592	83,003	0	1016,18	7,4	9,3	9,2	1	1	1	1	1	1	1	1	1	0	1	-10,711769	274,740232	312,339986	0
15.01.2021	16:39:52	0	2,498355	3,954201	2,1885	306,4104	0,591	83	0	1016,14	7,4	9,4	9,2	1	1	1	1	1	1	1	1	1	0	1	-7,892882	274,618746	314,587853	0
15.01.2021	16:39:53	0	2,736294	4,067178	1,97175	328,914	0,598	83,005	0	1016,12	7,4	9,4	9,2	1	1	1	1	1	1	1	1	1	0	1	-8,668076	274,566694	313,568236	0
15.01.2021	16:39:54	0	2,736274	3,954201	1,78125	320,418	0,59	82,987	0	1015,96	7,4	9,5	9,2	1	1	1	1	1	1	1	1	1	0	1	-11,41649	274,707864	311,483049	0
15.01.2021	16:39:55	0	2,617306	5,083973	1,803	321,1704	0,593	82,986	0	1015,88	7,4	9,5	9,2	1	1	1	1	1	1	1	1	1	0	1	-7,751938	274,704784	315,133121	0
15.01.2021	16:39:56	0	2,379386	4,180155	1,86525	320,8176	0,593	83,005	0	1016,06	7,4	9,4	9,2	1	1	1	1	1	1	1	1	1	0	1	-7,610994	274,729437	315,389988	0
15.01.2021	16:39:57	0	2,617343	4,293133	1,8465	332,1108	0,596	83,003	0	1016,2	7,4	9,3	9,2	1	1	1	1	1	1	1	1	1	0	1	-11,627907	274,606486	310,795245	0
15.01.2021	16:39:58	0	2,498337	4,519087	1,8255	316,7532	0,598	82,998	0	1015,96	7,4	9,5	9,2	1	1	1	1	1	1	1	1	1	0	1	-7,047216	274,740232	316,004538	0
15.01.2021	16:39:59	0	2,379369	3,389315	1,725	334,962	0,598	83,005	0	1016,12	7,4	9,5	9,2	1	1	1	1	1	1	1	1	1	0	1	-6,906272	274,634082	315,646504	0
15.01.2021	16:40:00	0	2,617306	3,276338	1,62225	321,0696	0,594	82,98	0	1016,08	7,4	9,5	9,2	1	1	1	1	1	1	1	1	1	0	1	-12,262156	274,549884	309,895248	0
15.01.2021	16:40:01	0	2,617306	3,276338	1,62225	321,0696	0,594	82,98	0	1016,08	7,4	9,5	9,2	1	1	1	1	1	1	1	1	1	0	1	-6,131078	274,660181	316,544327	0
15.01.2021	16:40:02	0	2,379402	2,711452	1,72875	321,8724	0,596	82,994	0	1016,2	7,4	9,3	9,2	1	1	1	1	1	1	1	1	1	0	1	-5,144468	274,58658	317,185206	0
15.01.2021	16:40:03	0	2,498355	2,937407	1,788	332,8524	0,6	83,001	0	1016,18	7,4	9,4	9,2	1	1	1	1	1	1	1	1	1	0	1	-9,654686	274,726354	313,331795	0
15.01.2021	16:40:04	0	2,379386	4,180155	1,75125	337,2228	0,595	82,984	0	1016,1	7,4	9,4	9,2	1	1	1	1	1	1	1	1	1	0	1	-10,007047	274,554467	312,171869	0
15.01.2021	16:40:05	0	2,379386	2,711452	1,79175	326,3796	0,594	82,992	0	1016,14	7,4	9,4	9,2	1	1	1	1	1	1	1	1	1	0	1	-7,610994	274,674012	315,129414	0
15.01.2021	16:40:06	0	2,260416	3,276338	1,94175	329,9616	0,594	83,012	0	1016,14	7,4	9,4	9,2	1	1	1	1	1	1	1	1	1	0	1	-7,963354	274,569752	314,287313	0
15.01.2021	16:40:07	0	2,498373	4,970996	2,18325	327,168	0,597	82,997	0	1016,26	7,4	9,3	9,2	1	1	1	1	1	1	1	1	1	0	1	-7,258633	274,58811	315,078228	0
15.01.2021	16:40:08	0	2,260416	2,711452	2,28675	325,944	0,596	83,007	0	1016,14	7,4	9,4	9,2	1	1	1	1	1	1	1	1	1	0	1	-7,399577	274,545302	314,736322	0
15.01.2021	16:40:09	0	2,141432	2,259544	2,439	324,2988	0,596	83,006	0	1016,14	7,4	9,5	9,2	1	1	1	1	1	1	1	1	1	0	1	-9,513742	274,620279	312,974194	0
15.01.2021	16:40:10	0	2,736294	5,083973	2,439	339,8616	0,596	82,993	0	1016,06	7,4	9,4	9,2	1	1	1	1	1	1	1	1	1	0	1	-11,839323	274,721729	311,125413	0
15.01.2021	16:40:11	0	2,617324	2,711452	2,39325	341,6976	0,591	83,004	0	1015,98	7,4	9,4	9,2	1	1	1	1	1	1	1	1	1	0	1	-8,879493	274,73869	314,165006	0
15.01.2021	16:40:12	0	2,736294	4,745041	2,39325	336,0888	0,594	82,997	0	1016,1	7,4	9,4	9,2	1	1	1	1	1	1	1	1	1	0	1	-7,399577	274,623345	315,102763	0
15.01.2021	16:40:13	0	2,498355	4,519087	2,39175	353,2068	0,591	82,99	0	1016	7,4	9,4	9,2	1	1	1	1	1	1	1	1	1	0	1	-11,557435	274,554467	310,621482	0
15.01.2021	16:40:14	0	2,617324	3,163361	2,31975	335,3688	0,588	82,996	0	1015,8	7,4	9,4	9,2	1	1	1	1	1	1	1	1	1	0	1	-4,087385	274,667863	318,624125	0
15.01.2021	16:40:15	0	2,141447	2,937407	2,241	330,84	0,599	83,01	0	1016,16	7,4	9,4	9,2	1	1	1	1	1	1	1	1	1	0	1	-8,033827	274,73869	315,010672	0
15.01.2021	16:40:16	0	2,498355	3,61527	2,30325	340,56	0,595	82,987	0	1016,06	7,4	9,4	9,2	1	1	1	1	1	1	1	1	1	0	1	-5,144468	274,58811	317,192392	0
15.01.2021	16:40:17	0	2,141447	3,502292	2,34525	329,7204	0,59	83,008	0	1016	7,4	9,4	9,2	1	1	1	1	1	1	1	1	1	0	1	-10,993658	274,552939	311,178088	0
15.01.2021	16:40:18	0	2,379386	4,632064	2,5815	360	0,593	82,993	0	1016,16	7,4	9,4	9,2	1	1	1	1	1	1	1	1	1	0	1	-10,147992	274,687853	312,657475	0
15.01.2021	16:40:19	0	2,141447	3,163361	2,63775	338,8572	0,596	83	0	1016,24	7,4	9,4	9,2	1	1	1	1	1	1	1	1	1	0	1	-6,272023	274,551412	315,892552	0
15.01.2021	16:40:20	0	2,498355	2,485498	2,508	342,108	0,594	83,008	0	1016,18	7,4	9,4	9,2	1	1	1	1	1	1	1	1	1	0	1	-5,21494	274,677087	317,53992	0
15.01.2021	16:40:21	0	2,617324	3,954201	2,316	330,0948	0,615	83,011	0	1016,26	7,4	9,4	9,2	1	1	1	1	1	1	1	1	1	0	1	-8,033827	274,73869	315,010672	0
15.01.2021	16:40:22	0	2,736294	4,858019	2,2215	324,4104	0,594	82,987	0	1016,02	7,4	9,4	9,2	1	1	1	1	1	1	1	1	1	0	1	-8,033827	274,714025	314,894683	0
15.01.2021	16:40:23	0	2,498355	2,824429	2,259	332,8416	0,598	82,992	0	1016,16	7,4	9,4	9,2	1	1	1	1	1	1	1	1	1	0	1	-6,20155	274,657108	316,459417	0
15.01.2021	16:40:24	0	2,141447	2,824429	2,25975	339,8508	0,597	82,992	0	1016,2	7,4	9,4	9,2	1	1	1	1	1	1	1	1	1	0	1	-8,315715	274,562108	313,899068	0
15.01.2021	16:40:25	0	2,260416	4,293133	2,34675	327,1896	0,594	82,991	0	1016,14	7,4	9,4	9,2	1	1	1	1	1	1	1	1	1	0	1	-9,795631	274,672475	312,937552	0
15.01.2021	16:40:26	0	2,260416	3,050384	2,442	336,8052	0,601	82,971	0	1016,16	7,4	9,4	9,2	1	1	1	1	1	1	1	1	1	0	1	-9,090909	274,724812	313,888324	0
15.01.2021	16:40:27	0	2,141447	3,389315	2,39625	334,2708	0,597	82,961	0	1016,1	7,4	9,4	9,2	1	1	1	1	1	1	1	1	1	0	1	-9,44327	274,580459	312,857665	0
15.01.2021	16:40:28	0	2,260416	2,824429	2,33775	330,8328	0,596	82,973	0	1016,08	7,4	9,4	9,2	1	1	1	1	1	1	1	1	1	0	1	-13,03735	274,542248	309,084215	0
15.01.2021	16:40:29	0	2,379386	3,050384	2,24025	333,378	0,586	82,97	0	1016,04	7,4	9,4	9,2	1	1	1	1	1	1	1	1	1	0	1	-8,949965	274,6694	313,768769	0
15.01.2021	16:40:30	0	2,260416	2,711452	1,9875	317,8368	0,599	82,948	0	1016,16	7,4	9,4	9,2	1	1	1	1	1	1	1	1	1	0	1	-12,403101	274,533089	309,675479	0
15.01.2021	16:40:31	0	2,855263	4,519087	2,07225	334,5516	0,592	82,962	0	1016,06	7,4	9,4	9,2	1	1	1	1	1	1	1	1	1	0	1	-8,245243	274,660181	314,430162	0
15.01.2021	16:40:32	0	2,141447	2,937407	2,08725	318,4992	0,593	82,966	0	1016,1	7,4	9,4	9,2	1	1	1	1	1	1	1	1	1	0	1	-8,668076	274,740232	314,383678	0
15.01.2021	16:40:33	0	2,379386	2,711452	1,995	326,4012	0,591	82,97	0	1016,16	7,4	9,4	9,2	1	1	1	1	1	1	1	1	1	0	1	-8,315715	274,57434	313,956491	0
15.01.2021	16:40:34	0	2,379386	4,745041	2,04075	322,7184	0,584	82,972	0	1016,22	7,4	9,4	9,2	1	1	1	1	1	1	1	1	1	0	1	-6,483439	274,58811	315,853421	0
15.01.2021	16:40:35	0	2,498355	4,293133	2,17575	324,8352	0,59	82,958	0	1016	7,4	9,4	9,2	1	1	1	1	1	1	1	1	1	0	1	-8,527132	274,735605	314,502859	0
15.01.2021	16:40:36	0	2,141462	2,598475	2,24025	332,8272	0,592	82,975	0	1016,18	7,4	9,3	9,2	1	1	1	1	1	1	1	1	1	0	1	-7,82241	274,606486	314,600742	0
15.01.2021	16:40:37	0	2,260416	3,61527	2,4405	334,3644	0,588	82,971	0	1016,02	7,4	9,4	9,2	1	1	1	1	1	1	1	1	1	0	1	-5,84919	274,726354	317,137292	0
15.01.2021	16:40:38	0	2,260401	2,598475	2,6445	333,1548	0,593	82,975	0	1016,16	7,4	9,5	9,2	1	1	1	1	1	1	1	1	1	0	1	-6,483439	274,640219	316,098173	0
15.01.2021	16:40:39	0	2,498373	4,180155	2,60325	337,14	0,596	82,97	0	1016,02	7,4	9,3	9,2	1	1	1	1	1	1	1	1	1	0	1	-7,047216	274,726354	315,939266	0
15.01.2021	16:40:40	0	2,379386	3,050384	2,568	330,768	0,585	82,976	0	1016,02	7,4	9,4	9,2	1	1	1	1	1	1	1	1	1	0	1	-11,698379	274,583519	310,616924	0
15.01.2021	16:40:41	0	2,736294	4,858019	2,67225	330,1128	0,589	82,978	0	1015,92	7,4	9,4	9,2	1	1	1	1	1	1	1	1	1	0	1	-10,359408	274,686315	312,438827	0
15.01.2021	16:40:42	0	2,022478	4,40611	2,7045	332,7912	0,594	82,967	0	1016,04	7,4	9,4	9,2	1	1	1	1	1	1	1	1	1	0	1	-8,597604	274,732521	314,417881	0
15.01.2021	16:40:43	0	2,260416	2,598475	2,577	323,7228	0,589	82,969	0	1016,02	7,4	9,4	9,2	1	1	1	1	1	1	1	1	1	0	1	-10,782241	274,686315	312,015994	0
15.01.2021	16:40:44	0	2,260416	4,40611	2,5695	320,8032	0,586	82,972	0	1016,1	7,4	9,4	9,2	1	1	1	1	1	1	1	1	1	0	1	-9,161381	274,726354	313,825101	0
15.01.2021	16:40:45	0	2,260416	3,728247	2,68125	330,84	0,592	82,961	0	1016,1	7,4	9,4	9,2	1	1	1	1	1	1	1	1	1	0	1	-8,527132	274,594233	313,838481	0
15.01.2021	16:40:46	0	2,379386	3,502292	2,571	325,9728	0,592	82,985	0	1016,08	7,4	9,4	9,2	1	1	1	1	1	1	1	1	1	0	1	-7,399577	274,551412	314,764997	0
15.01.2021	16:40:47	0	2,379386	4,632064	2,4585	317,826	0,593	82,974	0	1016,1	7,4	9,4	9,2	1	1	1	1	1	1	1	1	1	0	1	-9,654686	274,658644	313,0135	0
15.01.2021	16:40:48	0	2,141447	2,824446	2,26575	321,5592	0,588	82,978	0	1016,1	7,4	9,4	9,1	1	1	1	1	1	1	1	1	1	0	1	-7,610994	274,732521	315,404491	0
15.01.2021	16:40:49	0	2,498355	4,745041	2,0805	317,7288	0,592	82,987	0	1016,18	7,4	9,4	9,2	1	1	1	1	1	1	1	1	1	0	1	-5,637773	274,638685	316,936629	0
15.01.2021	16:40:50	0	2,617324	4,180181	1,97025	320,0004	0,595	82,976	0	1016,14	7,4	9,4	9,1	1	1	1	1	1	1	1	1	1	0	1	-6,8358	274,559051	315,364635	0
15.01.2021	16:40:51	0	2,379386	3,61527	1,977	320,4036	0,591	82,988	0	1016	7,4	9,4	9,2	1	1	1	1	1	1	1	1	1	0	1	-12,191684	274,695547	310,64995	0
15.01.2021	16:40:52	0	2,498373	4,519087	2,022	318,348	0,593	82,983	0	1016,2	7,4	9,3	9,2	1	1	1	1	1	1	1	1	1	0	1	-10,500352	274,701705	312,370229	0
15.01.2021	16:40:53	0	2,141447	2,937407	2,115	327,9312	0,591	82,991	0	1016,1	7,4	9,4	9,2	1	1	1	1	1	1	1	1	1	0	1	-7,188161	274,727895	315,805571	0
15.01.2021	16:40:54	0	2,141447	2,485498	2,18925	333,1764	0,594	82,954	0	1016,12	7,4	9,4	9,2	1	1	1	1	1	1	1	1	1	0	1	-11,41649	274,714025	311,512019	0
15.01.2021	16:40:55	0	2,141447	2,033601	2,1465	329,3064	0,593	82,984	0	1016,2	7,4	9,4	9,1	1	1	1	1	1	1	1	1	1	0	1	-8,315715	274,542248	313,80585	0
15.01.2021	16:40:56	0	2,379386	3,954201	2,29275	307,242	0,59	82,965	0	1016,12	7,4	9,4	9,2	1	1	1	1	1	1	1	1	1	0	1	-6,412967	274,666327	316,291321	0
15.01.2021	16:40:57	0	2,022478	2,937407	2,49	327,8196	0,586	82,977	0	1016	7,4	9,4	9,2	1	1	1	1	1	1	1	1	1	0	1	-6,060606	274,735605	316,969385	0
15.01.2021	16:40:58	0	2,260416	4,74507	2,55075	315,8928	0,588	82,963	0	1016,12	7,4	9,4	9,1	1	1	1	1	1	1	1	1	1	0	1	-9,513742	274,680162	313,255574	0
15.01.2021	16:40:59	0	2,498355	2,937424	2,481	326,898	0,595	82,956	0	1016,14	7,4	9,4	9,1	1	1	1	1	1	1	1	1	1	0	1	-4,792107	274,557523	317,401154	0
15.01.2021	16:41:00	0	2,379386	2,598475	2,3085	317,7684	0,589	82,954	0	1015,98	7,4	9,4	9,2	1	1	1	1	1	1	1	1	1	0	1	-9,725159	274,703244	313,152662	0
15.01.2021	16:41:01	0	2,379386	2,598475	2,3085	317,7684	0,589	82,954	0	1015,98	7,4	9,4	9,2	1	1	1	1	1	1	1	1	1	0	1	-7,751938	274,589641	314,59211	0
15.01.2021	16:41:02	0	2,141447	2,824429	2,17725	328,6152	0,596	82,972	0	1016,12	7,5	9,4	9,2	1	1	1	1	1	1	1	1	1	0	1	-6,060606	274,591172	316,290629	0
15.01.2021	16:41:03	0	2,379386	4,293158	2,256	302,5872	0,599	82,964	0	1016,12	7,5	9,4	9,1	1	1	1	1	1	1	1	1	1	0	1	-8,80902	274,687853	313,996446	0
15.01.2021	16:41:04	0	2,141447	4,632064	2,47425	323,3232	0,595	82,936	0	1016,02	7,4	9,4	9,2	1	1	1	1	1	1	1	1	1	0	1	-9,231853	274,591172	313,119382	0
15.01.2021	16:41:05	0	2,498355	4,40611	2,5815	321,12	0,597	82,952	0	1016,14	7,5	9,4	9,2	1	1	1	1	1	1	1	1	1	0	1	-6,624383	274,709404	316,282398	0
15.01.2021	16:41:06	0	2,260416	2,937424	2,472	327,1788	0,592	82,944	0	1016	7,5	9,4	9,1	1	1	1	1	1	1	1	1	1	0	1	-8,033827	274,657108	314,627141	0
15.01.2021	16:41:07	0	2,141447	4,40611	2,487	332,8092	0,594	82,951	0	1016,12	7,5	9,4	9,2	1	1	1	1	1	1	1	1	1	0	1	-11,275546	274,715566	311,660207	0
15.01.2021	16:41:08	0	2,498355	3,615291	2,4915	336,4344	0,59	82,949	0	1016,04	7,4	9,4	9,1	1	1	1	1	1	1	1	1	1	0	1	-9,020437	274,631013	313,517926	0
15.01.2021	16:41:09	0	2,022478	3,389315	2,43075	333,9036	0,592	82,962	0	1016,22	7,4	9,4	9,2	1	1	1	1	1	1	1	1	1	0	1	-5,990134	274,536141	316,102772	0
15.01.2021	16:41:10	0	2,379386	3,502313	2,28525	329,6808	0,59	82,95	0	1016,1	7,4	9,4	9,1	1	1	1	1	1	1	1	1	1	0	1	-11,768851	274,594233	310,596762	0
15.01.2021	16:41:11	0	2,379386	2,598475	2,21775	309,2292	0,597	82,946	0	1016,12	7,4	9,4	9,2	1	1	1	1	1	1	1	1	1	0	1	-10,42988	274,709404	312,476901	0
15.01.2021	16:41:12	0	2,617324	4,180155	2,211	321,2136	0,595	82,944	0	1016,18	7,4	9,4	9,2	1	1	1	1	1	1	1	1	1	0	1	-8,45666	274,700165	314,406684	0
15.01.2021	16:41:13	0	2,617324	4,970996	2,295	306,468	0,584	82,943	0	1016,14	7,5	9,4	9,2	1	1	1	1	1	1	1	1	1	0	1	-11,346018	274,683238	311,437756	0
15.01.2021	16:41:14	0	1,903509	2,937424	2,26575	325,224	0,592	82,939	0	1016,04	7,4	9,4	9,1	1	1	1	1	1	1	1	1	1	0	1	-7,963354	274,717106	314,979644	0
15.01.2021	16:41:15	0	2,498355	4,40611	2,18025	331,6392	0,588	82,952	0	1015,96	7,5	9,4	9,2	1	1	1	1	1	1	1	1	1	0	1	-6,765328	274,540721	315,349071	0
15.01.2021	16:41:16	0	2,260416	3,050402	1,9815	314,9028	0,594	82,951	0	1015,92	7,4	9,4	9,1	1	1	1	1	1	1	1	1	1	0	1	-9,513742	274,64943	313,111145	0
15.01.2021	16:41:17	0	2,022478	3,615291	1,73475	315,8964	0,591	82,95	0	1016,16	7,5	9,4	9,1	1	1	1	1	1	1	1	1	1	0	1	-9,584214	274,539194	312,52302	0
15.01.2021	16:41:18	0	2,022478	4,632064	1,827	330,3828	0,596	82,951	0	1016,14	7,4	9,4	9,2	1	1	1	1	1	1	1	1	1	0	1	-9,654686	274,617213	312,818848	0
15.01.2021	16:41:19	0	2,022478	2,485498	2,20875	330,066	0,586	82,935	0	1016,24	7,4	9,4	9,2	1	1	1	1	1	1	1	1	1	0	1	-7,117689	274,724812	315,861544	0
15.01.2021	16:41:20	0	2,260416	3,61527	2,289	328,1328	0,593	82,954	0	1016,2	7,4	9,4	9,2	1	1	1	1	1	1	1	1	1	0	1	-11,486963	274,674012	311,253445	0
15.01.2021	16:41:21	0	2,022478	3,16338	2,35875	324,198	0,595	82,924	0	1015,96	7,4	9,4	9,1	1	1	1	1	1	1	1	1	1	0	1	-5,990134	274,690931	316,829798	0
15.01.2021	16:41:22	0	2,379386	5,309959	2,484	325,1484	0,587	82,925	0	1016,26	7,4	9,4	9,1	1	1	1	1	1	1	1	1	1	0	1	-5,567301	274,690931	317,252631	0
15.01.2021	16:41:23	0	2,022478	3,163361	2,49525	333,162	0,59	82,946	0	1016,1	7,3	9,4	9,2	1	1	1	1	1	1	1	1	1	0	1	-11,698379	274,540721	310,41602	0
15.01.2021	16:41:24	0	2,617324	5,422904	2,51475	333,1728	0,589	82,93	0	1016,08	7,5	9,4	9,2	1	1	1	1	1	1	1	1	1	0	1	-6,624383	274,707864	316,275157	0
15.01.2021	16:41:25	0	2,617324	4,74507	2,5185	331,578	0,589	82,919	0	1016,08	7,5	9,4	9,1	1	1	1	1	1	1	1	1	1	0	1	-11,346018	274,565165	310,883117	0
15.01.2021	16:41:26	0	2,379386	4,858048	2,4885	333,1152	0,592	82,93	0	1016,08	7,5	9,4	9,1	1	1	1	1	1	1	1	1	1	0	1	-9,795631	274,562108	312,419153	0
15.01.2021	16:41:27	0	2,498355	4,067203	2,505	331,9848	0,587	82,921	0	1016,12	7,4	9,4	9,1	1	1	1	1	1	1	1	1	1	0	1	-9,795631	274,621812	312,699507	0
15.01.2021	16:41:28	0	1,903509	2,598475	2,40675	333,5004	0,589	82,92	0	1016,06	7,5	9,4	9,2	1	1	1	1	1	1	1	1	1	0	1	-5,496829	274,525459	316,545949	0
15.01.2021	16:41:29	0	2,022478	3,728269	2,35575	334,2204	0,591	82,906	0	1016,06	7,5	9,4	9,1	1	1	1	1	1	1	1	1	1	0	1	-4,721635	274,678625	318,040453	0
15.01.2021	16:41:30	0	1,903509	2,485498	2,40225	337,1112	0,592	82,939	0	1016,1	7,3	9,4	9,2	1	1	1	1	1	1	1	1	1	0	1	-8,949965	274,542248	313,1716	0
15.01.2021	16:41:31	0	2,379386	3,050384	2,442	338,004	0,583	82,911	0	1016,12	7,4	9,4	9,2	1	1	1	1	1	1	1	1	1	0	1	-9,020437	274,686315	313,777798	0
15.01.2021	16:41:32	0	2,141447	3,954225	2,46975	327,852	0,592	82,917	0	1016,14	7,4	9,4	9,1	1	1	1	1	1	1	1	1	1	0	1	-9,584214	274,545302	312,551685	0
15.01.2021	16:41:33	0	2,022478	3,502292	2,523	338,4216	0,591	82,913	0	1016,12	7,4	9,4	9,2	1	1	1	1	1	1	1	1	1	0	1	-10,288936	274,533089	311,789644	0
15.01.2021	16:41:34	0	2,141447	3,841224	2,478	333,5436	0,584	82,902	0	1016,06	7,5	9,4	9,2	1	1	1	1	1	1	1	1	1	0	1	-7,470049	274,677087	315,284811	0
15.01.2021	16:41:35	0	2,379386	4,406136	2,42925	320,8284	0,593	82,906	0	1016,18	7,4	9,4	9,1	1	1	1	1	1	1	1	1	1	0	1	-10,711769	274,578929	311,581983	0
15.01.2021	16:41:36	0	2,379386	3,841247	2,55375	326,0268	0,584	82,899	0	1016,04	7,5	9,4	9,1	1	1	1	1	1	1	1	1	1	0	1	-11,557435	274,631013	310,980928	0
15.01.2021	16:41:37	0	1,903509	2,598475	2,6805	316,2528	0,588	82,899	0	1016,1	7,5	9,4	9,2	1	1	1	1	1	1	1	1	1	0	1	-7,117689	274,721729	315,847048	0
15.01.2021	16:41:38	0	2,141447	3,050384	2,8785	326,7648	0,584	82,899	0	1016,12	7,4	9,4	9,2	1	1	1	1	1	1	1	1	1	0	1	-9,231853	274,58811	313,105007	0
15.01.2021	16:41:39	0	2,260416	4,40611	2,97	325,6452	0,589	82,9	0	1016,14	7,5	9,4	9,2	1	1	1	1	1	1	1	1	1	0	1	-5,919662	274,737147	317,117583	0
15.01.2021	16:41:40	0	2,379386	4,180155	2,97075	325,692	0,59	82,896	0	1016,14	7,5	9,4	9,2	1	1	1	1	1	1	1	1	1	0	1	-7,470049	274,672475	315,263133	0
15.01.2021	16:41:41	0	2,498355	4,632092	2,82	319,2156	0,592	82,904	0	1016,18	7,5	9,4	9,1	1	1	1	1	1	1	1	1	1	0	1	-5,84919	274,540721	316,26521	0
15.01.2021	16:41:42	0	2,141447	3,954201	2,8665	322,9668	0,586	82,885	0	1016,16	7,5	9,4	9,2	1	1	1	1	1	1	1	1	1	0	1	-7,399577	274,618746	315,081158	0
15.01.2021	16:41:43	0	2,022478	4,40611	2,82675	324,0972	0,585	82,889	0	1016,08	7,4	9,4	9,2	1	1	1	1	1	1	1	1	1	0	1	-8,80902	274,548357	313,341215	0
15.01.2021	16:41:44	0	2,379386	4,293133	2,8155	319,644	0,59	82,882	0	1016,14	7,5	9,4	9,2	1	1	1	1	1	1	1	1	1	0	1	-8,033827	274,670938	314,692131	0
15.01.2021	16:41:45	0	2,498355	4,745041	2,91375	324,8244	0,581	82,884	0	1016,14	7,4	9,4	9,2	1	1	1	1	1	1	1	1	1	0	1	-5,496829	274,551412	316,667746	0
15.01.2021	16:41:46	0	2,379386	3,954201	2,9235	323,7516	0,591	82,893	0	1016,04	7,5	9,4	9,2	1	1	1	1	1	1	1	1	1	0	1	-5,144468	274,660181	317,530937	0
15.01.2021	16:41:47	0	1,903509	4,293158	2,8575	321,5484	0,594	82,88	0	1016,2	7,5	9,4	9,1	1	1	1	1	1	1	1	1	1	0	1	-10,641297	274,715566	312,294457	0
15.01.2021	16:41:48	0	2,022478	3,389336	2,7675	334,6524	0,585	82,872	0	1016,22	7,4	9,4	9,1	1	1	1	1	1	1	1	1	1	0	1	-5,990134	274,629479	316,541023	0
15.01.2021	16:41:49	0	2,141447	4,293158	2,56875	333,2592	0,587	82,875	0	1016,04	7,5	9,4	9,1	1	1	1	1	1	1	1	1	1	0	1	-5,21494	274,549884	316,942464	0
15.01.2021	16:41:50	0	2,617324	4,745041	2,454	333,4752	0,589	82,893	0	1016,2	7,5	9,4	9,2	1	1	1	1	1	1	1	1	1	0	1	-7,258633	274,680162	315,510683	0
15.01.2021	16:41:51	0	1,903509	3,728269	2,577	319,3308	0,589	82,867	0	1016,08	7,5	9,4	9,1	1	1	1	1	1	1	1	1	1	0	1	-8,104299	274,562108	314,110485	0
15.01.2021	16:41:52	0	2,260416	3,163361	2,67225	321,1596	0,592	82,883	0	1016,14	7,5	9,4	9,2	1	1	1	1	1	1	1	1	1	0	1	-5,708245	274,56058	316,499364	0
15.01.2021	16:41:53	0	2,379386	4,745041	2,77875	345,8844	0,588	82,87	0	1016,12	7,5	9,4	9,2	1	1	1	1	1	1	1	1	1	0	1	-8,174771	274,678625	314,587317	0
15.01.2021	16:41:54	0	2,498355	3,841247	2,658	343,4904	0,593	82,876	0	1015,92	7,5	9,4	9,1	1	1	1	1	1	1	1	1	1	0	1	-10,077519	274,726354	312,908962	0
15.01.2021	16:41:55	0	2,141447	2,824446	2,538	340,1928	0,589	82,884	0	1016,2	7,4	9,4	9,1	1	1	1	1	1	1	1	1	1	0	1	-9,020437	274,667863	313,691074	0
15.01.2021	16:41:56	0	2,141447	2,372521	2,48175	338,4036	0,592	82,885	0	1016,18	7,5	9,4	9,2	1	1	1	1	1	1	1	1	1	0	1	-9,725159	274,554467	312,453758	0
15.01.2021	16:41:57	0	2,022478	3,954201	2,63925	343,6272	0,589	82,885	0	1016,18	7,4	9,4	9,2	1	1	1	1	1	1	1	1	1	0	1	-8,033827	274,655572	314,619924	0
15.01.2021	16:41:58	0	2,379386	3,276338	2,71275	334,9224	0,587	82,873	0	1016,1	7,5	9,4	9,2	1	1	1	1	1	1	1	1	1	0	1	-7,047216	274,548357	315,103019	0
15.01.2021	16:41:59	0	2,022478	2,937407	2,70675	339,4836	0,589	82,884	0	1016,12	7,5	9,4	9,2	1	1	1	1	1	1	1	1	1	0	1	-6,20155	274,589641	316,142497	0
15.01.2021	16:42:00	0	2,141447	4,632064	2,5815	340,5744	0,588	82,881	0	1016	7,5	9,4	9,2	1	1	1	1	1	1	1	1	1	0	1	-9,020437	274,690931	313,799495	0
15.01.2021	16:42:01	0	1,903509	2,598491	2,529	343,4328	0,593	82,879	0	1016,08	7,5	9,4	9,1	1	1	1	1	1	1	1	1	1	0	1	-8,386187	274,730979	314,622046	0
15.01.2021	16:42:02	0	2,141447	2,485513	2,55675	342,3492	0,589	82,892	0	1016,2	7,5	9,4	9,1	1	1	1	1	1	1	1	1	1	0	1	-8,879493	274,620279	313,608444	0
15.01.2021	16:42:03	0	2,379386	2,598475	2,49225	347,3028	0,582	82,884	0	1016,14	7,5	9,4	9,2	1	1	1	1	1	1	1	1	1	0	1	-7,047216	274,542248	315,074349	0
15.01.2021	16:42:04	0	2,498355	4,74507	2,38275	347,6988	0,583	82,867	0	1015,96	7,5	9,4	9,1	1	1	1	1	1	1	1	1	1	0	1	-7,681466	274,608018	314,748882	0
15.01.2021	16:42:05	0	1,903495	3,16338	2,3055	336,7944	0,583	82,887	0	1016,14	7,5	9,5	9,1	1	1	1	1	1	1	1	1	1	0	1	-10,147992	274,545302	311,987907	0
15.01.2021	16:42:06	0	2,379386	2,824446	2,187	345,4344	0,584	82,869	0	1016,02	7,4	9,4	9,1	1	1	1	1	1	1	1	1	1	0	1	-7,047216	274,60955	315,390327	0
15.01.2021	16:42:07	0	2,141447	3,615291	2,13525	332,4204	0,586	82,881	0	1016,18	7,4	9,4	9,1	1	1	1	1	1	1	1	1	1	0	1	-10,077519	274,542248	312,044046	0
15.01.2021	16:42:08	0	2,379386	4,067178	2,10675	340,6176	0,582	82,871	0	1016,06	7,4	9,4	9,2	1	1	1	1	1	1	1	1	1	0	1	-12,544045	274,672475	310,189137	0
15.01.2021	16:42:09	0	2,141447	3,502292	2,1015	337,338	0,591	82,872	0	1016,16	7,5	9,4	9,2	1	1	1	1	1	1	1	1	1	0	1	-8,174771	274,721729	314,789966	0
15.01.2021	16:42:10	0	2,498355	4,067178	2,1735	337,608	0,592	82,885	0	1016	7,5	9,4	9,2	1	1	1	1	1	1	1	1	1	0	1	-7,610994	274,686315	315,187241	0
15.01.2021	16:42:11	0	2,260416	4,970996	2,286	337,968	0,592	82,893	0	1016,06	7,4	9,4	9,2	1	1	1	1	1	1	1	1	1	0	1	-9,725159	274,715566	313,210595	0
15.01.2021	16:42:12	0	2,141447	4,180181	2,4915	340,9596	0,59	82,891	0	1016,12	7,5	9,4	9,1	1	1	1	1	1	1	1	1	1	0	1	-5,637773	274,591172	316,713462	0
15.01.2021	16:42:13	0	2,260416	3,276358	2,6175	341,0316	0,587	82,88	0	1016,02	7,4	9,4	9,1	1	1	1	1	1	1	1	1	1	0	1	-9,372798	274,724812	313,606435	0
15.01.2021	16:42:14	0	2,141447	3,841224	2,5095	336,1248	0,589	82,892	0	1016,14	7,5	9,4	9,2	1	1	1	1	1	1	1	1	1	0	1	-4,510218	274,694008	318,324181	0
15.01.2021	16:42:15	0	2,260416	3,841224	2,5065	341,28	0,593	82,88	0	1016,1	7,4	9,4	9,2	1	1	1	1	1	1	1	1	1	0	1	-8,315715	274,727895	314,678016	0
15.01.2021	16:42:16	0	2,141447	2,598491	2,3505	333,486	0,589	82,879	0	1016,12	7,4	9,4	9,1	1	1	1	1	1	1	1	1	1	0	1	-12,05074	274,591172	310,300495	0
15.01.2021	16:42:17	0	2,379386	4,293133	2,2845	339,894	0,59	82,895	0	1016,32	7,4	9,4	9,2	1	1	1	1	1	1	1	1	1	0	1	-9,44327	274,606486	312,979882	0
15.01.2021	16:42:18	0	1,903509	2,598475	2,32125	338,6736	0,593	82,889	0	1016,08	7,4	9,4	9,2	1	1	1	1	1	1	1	1	1	0	1	-6,553911	274,723271	316,418073	0
15.01.2021	16:42:19	0	2,260416	2,485513	2,33775	320,4396	0,591	82,891	0	1016,16	7,5	9,4	9,1	1	1	1	1	1	1	1	1	1	0	1	-7,963354	274,598827	314,423831	0
15.01.2021	16:42:20	0	2,736294	5,084003	2,3745	335,6496	0,59	82,896	0	1016,18	7,5	9,4	9,1	1	1	1	1	1	1	1	1	1	0	1	-9,090909	274,737147	313,946335	0
15.01.2021	16:42:21	0	2,141447	4,180181	2,4975	339,1308	0,59	82,897	0	1016,02	7,5	9,4	9,1	1	1	1	1	1	1	1	1	1	0	1	-15,151515	274,614147	307,307621	0
15.01.2021	16:42:22	0	2,379386	3,841247	2,475	339,1668	0,588	82,905	0	1016,06	7,5	9,4	9,1	1	1	1	1	1	1	1	1	1	0	1	-11,486963	274,721729	311,477774	0
15.01.2021	16:42:23	0	2,141447	4,519087	2,457	338,7384	0,587	82,897	0	1016,1	7,4	9,4	9,2	1	1	1	1	1	1	1	1	1	0	1	-9,090909	274,58811	313,245951	0
15.01.2021	16:42:24	0	2,498355	4,745041	2,35575	340,5744	0,582	82,892	0	1016,1	7,5	9,4	9,2	1	1	1	1	1	1	1	1	1	0	1	-6,624383	274,533089	315,454197	0
15.01.2021	16:42:25	0	2,379386	4,858048	2,29425	346,2156	0,593	82,894	0	1016,12	7,5	9,4	9,1	1	1	1	1	1	1	1	1	1	0	1	-8,738548	274,589641	313,605499	0
15.01.2021	16:42:26	0	2,498355	4,970996	2,17125	340,9416	0,592	82,89	0	1016,06	7,4	9,4	9,2	1	1	1	1	1	1	1	1	1	0	1	-9,231853	274,674012	313,508554	0
15.01.2021	16:42:27	0	2,141447	2,598475	2,05725	336,3732	0,588	82,887	0	1016,12	7,5	9,4	9,2	1	1	1	1	1	1	1	1	1	0	1	-8,45666	274,695547	314,384975	0
15.01.2021	16:42:28	0	2,022478	4,180155	1,9755	333,9	0,588	82,883	0	1016,04	7,4	9,4	9,2	1	1	1	1	1	1	1	1	1	0	1	-5,567301	274,740232	317,484453	0
15.01.2021	16:42:29	0	2,022478	3,61527	1,88625	333,8568	0,591	82,9	0	1016,14	7,5	9,4	9,2	1	1	1	1	1	1	1	1	1	0	1	-8,949965	274,641754	313,638858	0
15.01.2021	16:42:30	0	1,784539	2,937407	1,79025	332,7624	0,581	82,893	0	1016,16	7,4	9,4	9,2	1	1	1	1	1	1	1	1	1	0	1	-7,540521	274,548357	314,609714	0
15.01.2021	16:42:31	0	2,379386	3,954225	1,77225	327,8232	0,587	82,887	0	1016,18	7,5	9,4	9,1	1	1	1	1	1	1	1	1	1	0	1	-5,708245	274,672475	317,024937	0
15.01.2021	16:42:32	0	2,141447	4,180155	1,7205	326,7036	0,588	82,903	0	1016,1	7,5	9,4	9,2	1	1	1	1	1	1	1	1	1	0	1	-6,553911	274,732521	316,461574	0
15.01.2021	16:42:33	0	2,260416	4,970996	1,66275	331,56	0,585	82,898	0	1016,16	7,5	9,4	9,2	1	1	1	1	1	1	1	1	1	0	1	-5,990134	274,626412	316,526613	0
15.01.2021	16:42:34	0	2,141447	4,519114	1,58025	340,2216	0,595	82,909	0	1016,18	7,5	9,4	9,1	1	1	1	1	1	1	1	1	1	0	1	-10,42988	274,718647	312,520364	0
15.01.2021	16:42:35	0	2,379386	4,745041	1,4775	333,9108	0,589	82,883	0	1016,16	7,4	9,4	9,2	1	1	1	1	1	1	1	1	1	0	1	-9,584214	274,581989	312,723904	0
15.01.2021	16:42:36	0	2,022478	2,824446	1,476	326,0376	0,588	82,897	0	1016,12	7,5	9,4	9,1	1	1	1	1	1	1	1	1	1	0	1	-8,949965	274,606486	313,473187	0
15.01.2021	16:42:37	0	2,379386	4,858048	1,611	312,516	0,59	82,902	0	1016,04	7,4	9,4	9,1	1	1	1	1	1	1	1	1	1	0	1	-12,332629	274,717106	310,61037	0
15.01.2021	16:42:38	0	1,903495	2,372506	1,701	328,2732	0,587	82,899	0	1016,16	7,4	9,5	9,3	1	1	1	1	1	1	1	1	1	0	1	-8,245243	274,638685	314,329159	0
15.01.2021	16:42:39	0	2,498355	4,858019	1,62825	335,3292	0,589	82,895	0	1016,14	7,4	9,4	9,2	1	1	1	1	1	1	1	1	1	0	1	-5,285412	274,717106	317,657586	0
15.01.2021	16:42:40	0	2,379386	4,40611	1,4565	318,4488	0,589	82,888	0	1016,08	7,5	9,4	9,2	1	1	1	1	1	1	1	1	1	0	1	-13,953488	274,692469	308,873677	0
15.01.2021	16:42:41	0	1,66557	2,711436	1,3905	324,3708	0,59	82,914	0	1016,1	7,5	9,4	9,3	1	1	1	1	1	1	1	1	1	0	1	-7,399577	274,595765	314,973226	0
15.01.2021	16:42:42	0	2,022478	3,276338	1,407	326,7396	0,59	82,905	0	1016,12	7,4	9,4	9,2	1	1	1	1	1	1	1	1	1	0	1	-11,768851	274,554467	310,410065	0
15.01.2021	16:42:43	0	1,903509	2,824429	1,44525	322,9884	0,588	82,895	0	1016,04	7,5	9,4	9,2	1	1	1	1	1	1	1	1	1	0	1	-10,500352	274,629479	312,030804	0
15.01.2021	16:42:44	0	1,784539	2,033601	1,509	321,516	0,597	82,909	0	1016,1	7,4	9,4	9,1	1	1	1	1	1	1	1	1	1	0	1	-9,866103	274,720188	313,091387	0
15.01.2021	16:42:45	0	2,022478	3,61527	1,5495	332,7732	0,586	82,902	0	1016,02	7,5	9,4	9,2	1	1	1	1	1	1	1	1	1	0	1	-8,738548	274,56058	313,469061	0
15.01.2021	16:42:46	0	1,903509	2,824429	1,626	335,3148	0,591	82,923	0	1016,28	7,4	9,4	9,2	1	1	1	1	1	1	1	1	1	0	1	-7,610994	274,663253	315,078852	0
15.01.2021	16:42:47	0	2,260416	4,745041	1,6665	328,518	0,592	82,913	0	1016,26	7,4	9,4	9,2	1	1	1	1	1	1	1	1	1	0	1	-10,147992	274,712485	312,773274	0
15.01.2021	16:42:48	0	1,903509	3,502292	1,65375	327,4056	0,59	82,912	0	1016,08	7,4	9,4	9,2	1	1	1	1	1	1	1	1	1	0	1	-5,919662	274,643289	316,676372	0
15.01.2021	16:42:49	0	1,784539	2,937407	1,73025	317,0448	0,589	82,92	0	1016,08	7,5	9,4	9,2	1	1	1	1	1	1	1	1	1	0	1	-10,147992	274,549884	312,009413	0
15.01.2021	16:42:50	0	2,141447	4,971026	1,878	319,1976	0,591	82,911	0	1016,14	7,5	9,4	9,1	1	1	1	1	1	1	1	1	1	0	1	-10,007047	274,594233	312,358566	0
15.01.2021	16:42:51	0	2,141432	2,485498	2,0625	327,1716	0,586	82,914	0	1016,12	7,4	9,5	9,2	1	1	1	1	1	1	1	1	1	0	1	-11,41649	274,712485	311,504776	0
15.01.2021	16:42:52	0	2,260416	4,180155	2,1915	331,0884	0,586	82,908	0	1016,14	7,5	9,4	9,2	1	1	1	1	1	1	1	1	1	0	1	-9,090909	274,703244	313,786911	0
15.01.2021	16:42:53	0	2,260416	3,502313	2,19525	330,2136	0,589	82,918	0	1016,16	7,4	9,4	9,1	1	1	1	1	1	1	1	1	1	0	1	-7,82241	274,60189	314,57916	0
15.01.2021	16:42:54	0	1,784539	2,372506	2,0565	317,052	0,592	82,9	0	1016,2	7,4	9,4	9,3	1	1	1	1	1	1	1	1	1	0	1	-9,372798	274,727895	313,620934	0
15.01.2021	16:42:55	0	2,260416	4,293133	2,06475	320,0652	0,589	82,917	0	1016	7,4	9,4	9,2	1	1	1	1	1	1	1	1	1	0	1	-8,738548	274,623345	313,763792	0
15.01.2021	16:42:56	0	2,498355	4,632092	2,08275	328,2228	0,597	82,929	0	1016,1	7,5	9,4	9,1	1	1	1	1	1	1	1	1	1	0	1	-9,866103	274,714025	313,062407	0
15.01.2021	16:42:57	0	2,141447	2,711452	2,19	322,38	0,584	82,915	0	1015,88	7,4	9,4	9,2	1	1	1	1	1	1	1	1	1	0	1	-6,483439	274,604954	315,932518	0
15.01.2021	16:42:58	0	2,141447	4,40611	2,22	339,1452	0,592	82,901	0	1016,14	7,5	9,4	9,2	1	1	1	1	1	1	1	1	1	0	1	-11,698379	274,73869	311,34612	0
15.01.2021	16:42:59	0	2,141447	4,970996	2,2185	333,18	0,591	82,914	0	1016,12	7,4	9,4	9,2	1	1	1	1	1	1	1	1	1	0	1	-11,768851	274,583519	310,546452	0
15.01.2021	16:43:00	0	2,141447	2,598475	2,22	327,8196	0,594	82,919	0	1016,12	7,4	9,4	9,2	1	1	1	1	1	1	1	1	1	0	1	-6,765328	274,674012	315,97508	0
15.01.2021	16:43:01	0	2,141447	2,598475	2,22	327,8196	0,594	82,919	0	1016,12	7,4	9,4	9,2	1	1	1	1	1	1	1	1	1	0	1	-6,765328	274,674012	315,97508	0
15.01.2021	16:43:02	0	2,141447	4,067203	2,19	322,9596	0,591	82,912	0	1016,2	7,4	9,4	9,1	1	1	1	1	1	1	1	1	1	0	1	-10,077519	274,539194	312,029715	0
15.01.2021	16:43:03	0	2,141447	3,841224	2,06925	330,3504	0,594	82,912	0	1015,96	7,5	9,4	9,2	1	1	1	1	1	1	1	1	1	0	1	-6,272023	274,589641	316,072025	0
15.01.2021	16:43:04	0	2,260401	3,841224	2,0115	318,6324	0,592	82,911	0	1016,04	7,4	9,5	9,2	1	1	1	1	1	1	1	1	1	0	1	-7,047216	274,666327	315,657072	0
15.01.2021	16:43:05	0	1,427631	2,598475	1,9245	324,4752	0,588	82,902	0	1016,16	7,4	9,4	9,2	1	1	1	1	1	1	1	1	1	0	1	-8,104299	274,551412	314,060276	0
15.01.2021	16:43:06	0	2,141447	3,050402	1,9185	326,7576	0,592	82,915	0	1016,1	7,4	9,4	9,1	1	1	1	1	1	1	1	1	1	0	1	-8,527132	274,604954	313,888826	0
15.01.2021	16:43:07	0	2,498355	4,632064	1,94925	327,1392	0,6	82,911	0	1016,16	7,4	9,4	9,2	1	1	1	1	1	1	1	1	1	0	1	-8,527132	274,522408	313,50133	0
15.01.2021	16:43:08	0	2,022464	3,954201	1,98525	328,9068	0,595	82,911	0	1016,18	7,4	9,5	9,2	1	1	1	1	1	1	1	1	1	0	1	-8,033827	274,670938	314,692131	0
15.01.2021	16:43:09	0	2,141432	3,389295	2,07975	331,1244	0,595	82,898	0	1016,2	7,4	9,5	9,3	1	1	1	1	1	1	1	1	1	0	1	-10,359408	274,519358	311,654741	0
15.01.2021	16:43:10	0	1,903509	3,276338	2,01825	341,3052	0,591	82,907	0	1016,16	7,4	9,4	9,2	1	1	1	1	1	1	1	1	1	0	1	-7,892882	274,646359	314,717577	0
15.01.2021	16:43:11	0	1,903509	4,632064	1,98525	325,1592	0,598	82,903	0	1016,04	7,4	9,4	9,2	1	1	1	1	1	1	1	1	1	0	1	-8,879493	274,718647	314,070751	0
15.01.2021	16:43:12	0	2,141432	3,841224	2,08875	338,3568	0,594	82,896	0	1016,06	7,4	9,5	9,2	1	1	1	1	1	1	1	1	1	0	1	-8,879493	274,660181	313,795913	0
15.01.2021	16:43:13	0	2,379369	4,970996	2,145	328,6152	0,595	82,9	0	1016,12	7,4	9,5	9,2	1	1	1	1	1	1	1	1	1	0	1	-12,05074	274,706324	310,841559	0
15.01.2021	16:43:14	0	1,903509	2,711452	2,172	336,726	0,587	82,899	0	1016,18	7,4	9,4	9,2	1	1	1	1	1	1	1	1	1	0	1	-7,329105	274,64943	315,295782	0
15.01.2021	16:43:15	0	1,903495	3,276338	2,1795	331,2468	0,595	82,888	0	1016	7,4	9,5	9,2	1	1	1	1	1	1	1	1	1	0	1	-13,107822	274,545302	309,028076	0
15.01.2021	16:43:16	0	2,141432	4,745041	2,199	323,5896	0,592	82,897	0	1016,08	7,4	9,5	9,2	1	1	1	1	1	1	1	1	1	0	1	-13,107822	274,686315	309,690412	0
15.01.2021	16:43:17	0	2,141447	4,519087	2,205	329,652	0,59	82,879	0	1016,12	7,4	9,4	9,2	1	1	1	1	1	1	1	1	1	0	1	-7,610994	274,698626	315,245113	0
15.01.2021	16:43:18	0	1,784527	2,711452	2,2695	337,4712	0,585	82,9	0	1016,08	7,4	9,5	9,2	1	1	1	1	1	1	1	1	1	0	1	-9,936575	274,531562	312,134843	0
15.01.2021	16:43:19	0	1,903509	4,745041	2,1735	326,0448	0,594	82,88	0	1016,04	7,5	9,4	9,2	1	1	1	1	1	1	1	1	1	0	1	-13,601128	274,66479	309,095939	0
15.01.2021	16:43:20	0	2,022464	4,293133	2,118	327,7332	0,592	82,898	0	1016,2	7,4	9,5	9,2	1	1	1	1	1	1	1	1	1	0	1	-5,990134	274,715566	316,94562	0
15.01.2021	16:43:21	0	1,784527	3,276338	2,043	322,9956	0,592	82,886	0	1015,84	7,4	9,5	9,2	1	1	1	1	1	1	1	1	1	0	1	-8,45666	274,666327	314,247629	0
15.01.2021	16:43:22	0	1,903495	3,728247	2,06025	309,9312	0,588	82,903	0	1016,18	7,4	9,5	9,2	1	1	1	1	1	1	1	1	1	0	1	-4,721635	274,710944	318,192388	0
15.01.2021	16:43:23	0	2,260416	3,050384	2,09325	321,4584	0,589	82,9	0	1016	7,4	9,4	9,2	1	1	1	1	1	1	1	1	1	0	1	-10,852713	274,577399	311,433856	0
15.01.2021	16:43:24	0	2,260416	4,067178	2,14725	315,2232	0,587	82,892	0	1016,14	7,4	9,4	9,2	1	1	1	1	1	1	1	1	1	0	1	-5,21494	274,618746	317,265795	0
15.01.2021	16:43:25	0	2,022464	3,954201	2,16525	313,596	0,59	82,901	0	1016,12	7,4	9,5	9,2	1	1	1	1	1	1	1	1	1	0	1	-13,178295	274,534615	308,907448	0
15.01.2021	16:43:26	0	2,141432	2,937407	2,13075	312,8508	0,587	82,892	0	1015,98	7,4	9,5	9,2	1	1	1	1	1	1	1	1	1	0	1	-7,258633	274,591172	315,092603	0
15.01.2021	16:43:27	0	1,903495	2,485513	2,0985	315,936	0,594	82,895	0	1016	7,4	9,5	9,1	1	1	1	1	1	1	1	1	1	0	1	-10,218464	274,551412	311,946111	0
15.01.2021	16:43:28	0	2,141432	3,502292	1,98075	318,816	0,595	82,896	0	1016,12	7,4	9,5	9,2	1	1	1	1	1	1	1	1	1	0	1	-9,936575	274,58658	312,393099	0
15.01.2021	16:43:29	0	1,784539	2,033589	1,86975	320,0004	0,586	82,898	0	1016,1	7,5	9,4	9,2	1	1	1	1	1	1	1	1	1	0	1	-9,725159	274,537668	312,374911	0
15.01.2021	16:43:30	0	2,141447	4,970996	1,82025	338,0472	0,588	82,885	0	1016,06	7,4	9,4	9,2	1	1	1	1	1	1	1	1	1	0	1	-9,161381	274,589641	313,182666	0
15.01.2021	16:43:31	0	1,903509	5,309927	1,7265	336,4344	0,593	82,899	0	1016,02	7,4	9,4	9,2	1	1	1	1	1	1	1	1	1	0	1	-6,131078	274,715566	316,804675	0
15.01.2021	16:43:32	0	2,379369	4,745041	1,79325	338,4036	0,589	82,887	0	1015,92	7,4	9,5	9,2	1	1	1	1	1	1	1	1	1	0	1	-11,205074	274,652501	311,434243	0
15.01.2021	16:43:33	0	1,903509	2,937407	1,857	328,176	0,592	82,912	0	1016,06	7,4	9,4	9,2	1	1	1	1	1	1	1	1	1	0	1	-6,483439	274,533089	315,595141	0
15.01.2021	16:43:34	0	1,427621	2,711452	1,83825	339,3792	0,593	82,891	0	1016,04	7,4	9,5	9,2	1	1	1	1	1	1	1	1	1	0	1	-11,768851	274,572811	310,496175	0
15.01.2021	16:43:35	0	1,784539	3,163361	1,86825	335,7036	0,595	82,895	0	1016,02	7,4	9,4	9,2	1	1	1	1	1	1	1	1	1	0	1	-10,42988	274,581989	311,878238	0
15.01.2021	16:43:36	0	1,66557	3,502292	1,96875	329,0616	0,589	82,881	0	1016,08	7,4	9,4	9,2	1	1	1	1	1	1	1	1	1	0	1	-10,923185	274,585049	311,399303	0
15.01.2021	16:43:37	0	2,379369	3,502292	2,052	325,1916	0,592	82,908	0	1016,04	7,4	9,5	9,2	1	1	1	1	1	1	1	1	1	0	1	-11,134602	274,718647	311,815642	0
15.01.2021	16:43:38	0	2,260416	2,937407	2,151	319,5828	0,595	82,886	0	1016,24	7,4	9,4	9,2	1	1	1	1	1	1	1	1	1	0	1	-6,765328	274,608018	315,66502	0
15.01.2021	16:43:39	0	1,54659	2,937407	2,1495	318,492	0,592	82,894	0	1016,18	7,4	9,5	9,2	1	1	1	1	1	1	1	1	1	0	1	-10,42988	274,714025	312,498629	0
15.01.2021	16:43:40	0	2,379369	3,61527	2,0385	323,7048	0,585	82,892	0	1016,16	7,4	9,5	9,2	1	1	1	1	1	1	1	1	1	0	1	-8,527132	274,608018	313,903216	0
15.01.2021	16:43:41	0	2,141432	3,050384	1,9155	327,6	0,591	82,888	0	1016,12	7,4	9,5	9,2	1	1	1	1	1	1	1	1	1	0	1	-9,725159	274,715566	313,210595	0
15.01.2021	16:43:42	0	2,022478	3,163361	1,89975	334,2312	0,584	82,9	0	1016,1	7,4	9,4	9,2	1	1	1	1	1	1	1	1	1	0	1	-11,839323	274,672475	310,893859	0
15.01.2021	16:43:43	0	2,141432	4,519087	1,92225	336,1068	0,593	82,913	0	1016,22	7,4	9,5	9,2	1	1	1	1	1	1	1	1	1	0	1	-9,372798	274,670938	313,35316	0
15.01.2021	16:43:44	0	2,141432	2,824429	1,962	340,2432	0,595	82,905	0	1016,16	7,4	9,5	9,2	1	1	1	1	1	1	1	1	1	0	1	-5,285412	274,536141	316,807493	0
15.01.2021	16:43:45	0	2,260401	3,954201	1,9215	338,5224	0,596	82,9	0	1016,1	7,4	9,5	9,2	1	1	1	1	1	1	1	1	1	0	1	-5,426357	274,604954	316,989601	0
15.01.2021	16:43:46	0	1,903495	3,841224	1,908	330,4188	0,594	82,898	0	1016,12	7,4	9,5	9,2	1	1	1	1	1	1	1	1	1	0	1	-10,993658	274,536141	311,099248	0
15.01.2021	16:43:47	0	2,141432	4,293133	1,9365	340,9344	0,591	82,894	0	1016,26	7,4	9,5	9,2	1	1	1	1	1	1	1	1	1	0	1	-7,188161	274,655572	315,465589	0
15.01.2021	16:43:48	0	1,903495	4,40611	2,03625	331,4664	0,588	82,89	0	1016,1	7,4	9,5	9,2	1	1	1	1	1	1	1	1	1	0	1	-11,275546	274,734063	311,747191	0
15.01.2021	16:43:49	0	2,022464	3,502292	1,92825	329,742	0,591	82,911	0	1016,22	7,4	9,5	9,2	1	1	1	1	1	1	1	1	1	0	1	-13,03735	274,670938	309,688607	0
15.01.2021	16:43:50	0	2,141432	4,180155	1,81125	330,7392	0,591	82,914	0	1016,2	7,4	9,5	9,2	1	1	1	1	1	1	1	1	1	0	1	-9,584214	274,720188	313,373276	0
15.01.2021	16:43:51	0	2,141447	3,050384	1,7175	332,0424	0,592	82,953	0	1016,24	7,4	9,4	9,2	1	1	1	1	1	1	1	1	1	0	1	-9,020437	274,61568	313,445898	0
15.01.2021	16:43:52	0	2,260401	4,40611	1,6215	322,9956	0,593	82,901	0	1016,12	7,4	9,5	9,2	1	1	1	1	1	1	1	1	1	0	1	-11,698379	274,700165	311,164965	0
15.01.2021	16:43:53	0	1,903495	3,050384	1,656	318,1212	0,593	82,902	0	1016,1	7,4	9,5	9,2	1	1	1	1	1	1	1	1	1	0	1	-6,553911	274,660181	316,121494	0
15.01.2021	16:43:54	0	1,784539	3,502292	1,82325	327,7908	0,597	82,907	0	1016,08	7,4	9,4	9,2	1	1	1	1	1	1	1	1	1	0	1	-10,782241	274,712485	312,139025	0
15.01.2021	16:43:55	0	2,379369	4,858019	1,85775	330,3144	0,592	82,884	0	1016	7,4	9,5	9,2	1	1	1	1	1	1	1	1	1	0	1	-6,694856	274,657108	315,966112	0
15.01.2021	16:43:56	0	1,665558	3,050384	1,90125	310,2192	0,591	82,908	0	1016,14	7,4	9,5	9,2	1	1	1	1	1	1	1	1	1	0	1	-9,161381	274,707864	313,738159	0
15.01.2021	16:43:57	0	2,379369	4,632064	1,8825	322,956	0,593	82,9	0	1016,08	7,4	9,5	9,2	1	1	1	1	1	1	1	1	1	0	1	-8,45666	274,694008	314,37774	0
15.01.2021	16:43:58	0	2,022464	3,954201	1,8165	315,2196	0,59	82,875	0	1015,98	7,4	9,5	9,2	1	1	1	1	1	1	1	1	1	0	1	-7,117689	274,559051	315,082746	0
15.01.2021	16:43:59	0	2,379369	4,745041	1,72875	322,5888	0,595	82,9	0	1016,2	7,4	9,5	9,2	1	1	1	1	1	1	1	1	1	0	1	-8,104299	274,545302	314,0316	0
15.01.2021	16:44:00	0	1,784527	3,502292	1,54575	335,6928	0,591	82,892	0	1016,16	7,4	9,5	9,2	1	1	1	1	1	1	1	1	1	0	1	-5,21494	274,726354	317,771542	0
15.01.2021	16:44:01	0	1,784527	3,502292	1,54575	335,6928	0,591	82,892	0	1016,16	7,4	9,5	9,2	1	1	1	1	1	1	1	1	1	0	1	-9,020437	274,522408	313,008025	0
15.01.2021	16:44:02	0	1,903495	4,858019	1,49325	330,0876	0,588	82,892	0	1016,08	7,4	9,5	9,2	1	1	1	1	1	1	1	1	1	0	1	-7,470049	274,640219	315,111563	0
15.01.2021	16:44:03	0	2,022464	3,954201	1,47225	312,7644	0,589	82,889	0	1016	7,4	9,5	9,2	1	1	1	1	1	1	1	1	1	0	1	-5,778717	274,563637	316,443242	0
15.01.2021	16:44:04	0	1,54659	2,146566	1,488	324,0756	0,586	82,892	0	1016,14	7,4	9,5	9,2	1	1	1	1	1	1	1	1	1	0	1	-8,80902	274,695547	314,032614	0
15.01.2021	16:44:05	0	1,784539	2,937407	1,48125	322,56	0,588	82,898	0	1016,38	7,4	9,4	9,2	1	1	1	1	1	1	1	1	1	0	1	-6,20155	274,571281	316,056296	0
15.01.2021	16:44:06	0	1,54659	2,824429	1,4835	329,2128	0,592	82,891	0	1016,28	7,4	9,5	9,2	1	1	1	1	1	1	1	1	1	0	1	-10,147992	274,559051	312,052443	0
15.01.2021	16:44:07	0	1,903522	4,40611	1,48875	310,788	0,595	82,894	0	1016,1	7,4	9,3	9,2	1	1	1	1	1	1	1	1	1	0	1	-7,892882	274,721729	315,071855	0
15.01.2021	16:44:08	0	2,260416	3,050384	1,38075	319,9536	0,589	82,894	0	1016,06	7,4	9,4	9,2	1	1	1	1	1	1	1	1	1	0	1	-9,090909	274,568223	313,152581	0
15.01.2021	16:44:09	0	1,54659	3,841224	1,28325	321,84	0,586	82,9	0	1016,1	7,4	9,5	9,2	1	1	1	1	1	1	1	1	1	0	1	-8,738548	274,710944	314,175475	0
15.01.2021	16:44:10	0	2,022464	3,728247	1,2	323,6904	0,59	82,884	0	1016,26	7,4	9,5	9,2	1	1	1	1	1	1	1	1	1	0	1	-15,574348	274,6694	307,144386	0
15.01.2021	16:44:11	0	2,022464	4,858019	1,2195	325,5264	0,588	82,881	0	1016,24	7,4	9,5	9,2	1	1	1	1	1	1	1	1	1	0	1	-13,178295	274,714025	309,750215	0
15.01.2021	16:44:12	0	1,903495	2,598475	1,27725	330,408	0,592	82,901	0	1016,08	7,4	9,5	9,2	1	1	1	1	1	1	1	1	1	0	1	-8,879493	274,614147	313,579644	0
15.01.2021	16:44:13	0	1,784527	3,276338	1,3035	339,192	0,591	82,897	0	1016,14	7,4	9,5	9,2	1	1	1	1	1	1	1	1	1	0	1	-8,174771	274,534615	313,910972	0
15.01.2021	16:44:14	0	2,141432	4,519087	1,2645	337,1688	0,585	82,894	0	1016,16	7,4	9,5	9,2	1	1	1	1	1	1	1	1	1	0	1	-7,892882	274,666327	314,811406	0
15.01.2021	16:44:15	0	1,66557	4,18013	1,212	322,6464	0,591	82,888	0	1016,12	7,4	9,4	9,3	1	1	1	1	1	1	1	1	1	0	1	-8,386187	274,709404	314,520594	0
15.01.2021	16:44:16	0	2,022464	2,485498	1,1145	326,0052	0,586	82,888	0	1016,12	7,4	9,5	9,2	1	1	1	1	1	1	1	1	1	0	1	-7,258633	274,595765	315,11417	0
15.01.2021	16:44:17	0	1,665558	2,259544	1,0995	326,718	0,588	82,885	0	1016	7,4	9,5	9,2	1	1	1	1	1	1	1	1	1	0	1	-10,359408	274,706324	312,532891	0
15.01.2021	16:44:18	0	2,141432	4,180155	1,10625	317,754	0,589	82,893	0	1016,14	7,4	9,5	9,2	1	1	1	1	1	1	1	1	1	0	1	-5,144468	274,640219	317,437144	0
15.01.2021	16:44:19	0	1,784527	2,824429	1,21275	334,62	0,588	82,872	0	1016,2	7,4	9,5	9,2	1	1	1	1	1	1	1	1	1	0	1	-9,936575	274,562108	312,278209	0
15.01.2021	16:44:20	0	2,022464	2,824429	1,28475	322,2576	0,59	82,888	0	1016,14	7,4	9,5	9,2	1	1	1	1	1	1	1	1	1	0	1	-9,231853	274,680162	313,537462	0
15.01.2021	16:44:21	0	1,665558	3,502292	1,299	314,118	0,593	82,879	0	1016,1	7,4	9,5	9,2	1	1	1	1	1	1	1	1	1	0	1	-8,879493	274,533089	313,199087	0
15.01.2021	16:44:22	0	2,260401	4,632064	1,31325	320,76	0,588	82,878	0	1016,04	7,4	9,5	9,2	1	1	1	1	1	1	1	1	1	0	1	-10,147992	274,548357	312,002244	0
15.01.2021	16:44:23	0	1,665558	2,711452	1,29675	323,3376	0,591	82,894	0	1016,16	7,4	9,5	9,2	1	1	1	1	1	1	1	1	1	0	1	-5,919662	274,57587	316,359726	0
15.01.2021	16:44:24	0	1,784539	4,180155	1,302	339,8184	0,588	82,884	0	1016,14	7,4	9,4	9,2	1	1	1	1	1	1	1	1	1	0	1	-12,403101	274,714025	310,525409	0
15.01.2021	16:44:25	0	1,54659	2,824429	1,33425	345,3192	0,59	82,89	0	1016,1	7,4	9,5	9,2	1	1	1	1	1	1	1	1	1	0	1	-8,879493	274,597296	313,500501	0
15.01.2021	16:44:26	0	1,665558	4,293133	1,38075	332,3988	0,594	82,899	0	1016,22	7,4	9,5	9,2	1	1	1	1	1	1	1	1	1	0	1	-8,879493	274,530036	313,184765	0
15.01.2021	16:44:27	0	2,141447	4,180155	1,38675	340,1856	0,59	82,873	0	1016,08	7,4	9,4	9,2	1	1	1	1	1	1	1	1	1	0	1	-6,131078	274,620279	316,356858	0
15.01.2021	16:44:28	0	1,784527	4,293133	1,38225	333,432	0,593	82,897	0	1016,06	7,4	9,5	9,2	1	1	1	1	1	1	1	1	1	0	1	-10,641297	274,695547	312,200338	0
15.01.2021	16:44:29	0	1,784527	3,61527	1,32675	325,2744	0,59	82,894	0	1016,12	7,4	9,5	9,2	1	1	1	1	1	1	1	1	1	0	1	-8,668076	274,655572	313,985674	0
15.01.2021	16:44:30	0	1,903495	3,502292	1,3215	325,1412	0,592	82,903	0	1016,26	7,4	9,5	9,2	1	1	1	1	1	1	1	1	1	0	1	-7,188161	274,675549	315,559473	0
15.01.2021	16:44:31	0	2,260401	3,841224	1,30725	334,2276	0,588	82,897	0	1016,14	7,4	9,5	9,2	1	1	1	1	1	1	1	1	1	0	1	-9,44327	274,683238	313,340504	0
15.01.2021	16:44:32	0	1,784527	2,598475	1,2615	333,5184	0,594	82,896	0	1016,1	7,4	9,5	9,2	1	1	1	1	1	1	1	1	1	0	1	-7,329105	274,64943	315,295782	0
15.01.2021	16:44:33	0	2,141432	3,954201	1,161	325,9116	0,59	82,911	0	1016,14	7,4	9,5	9,2	1	1	1	1	1	1	1	1	1	0	1	-13,319239	274,692469	309,507926	0
15.01.2021	16:44:34	0	1,54659	4,40611	1,22175	328,9032	0,592	82,88	0	1016,14	7,4	9,5	9,2	1	1	1	1	1	1	1	1	1	0	1	-12,403101	274,695547	310,438534	0
15.01.2021	16:44:35	0	1,784527	3,841224	1,22625	328,9212	0,594	82,894	0	1016,26	7,4	9,5	9,2	1	1	1	1	1	1	1	1	1	0	1	-11,346018	274,658644	311,322168	0
15.01.2021	16:44:36	0	2,022464	2,711452	1,293	331,992	0,589	82,892	0	1016,22	7,4	9,5	9,2	1	1	1	1	1	1	1	1	1	0	1	-8,033827	274,581989	314,274292	0
15.01.2021	16:44:37	0	1,903509	3,728247	1,38975	332,7768	0,59	82,896	0	1016,04	7,4	9,4	9,2	1	1	1	1	1	1	1	1	1	0	1	-10,641297	274,697086	312,207574	0
15.01.2021	16:44:38	0	1,903495	2,485498	1,49625	347,6376	0,592	82,908	0	1016,24	7,4	9,5	9,2	1	1	1	1	1	1	1	1	1	0	1	-11,768851	274,683238	311,014923	0
15.01.2021	16:44:39	0	1,784527	3,502292	1,59	336,8232	0,582	82,906	0	1015,92	7,4	9,5	9,2	1	1	1	1	1	1	1	1	1	0	1	-10,500352	274,687853	312,305114	0
15.01.2021	16:44:40	0	1,665558	2,711452	1,596	346,878	0,592	82,905	0	1016,18	7,4	9,5	9,2	1	1	1	1	1	1	1	1	1	0	1	-13,812544	274,631013	308,725818	0
15.01.2021	16:44:41	0	1,665558	2,824429	1,5795	349,0452	0,587	82,903	0	1016,14	7,4	9,5	9,2	1	1	1	1	1	1	1	1	1	0	1	-7,188161	274,519358	314,825988	0
15.01.2021	16:44:42	0	1,903495	4,519087	1,56075	333,8496	0,59	82,892	0	1016,18	7,4	9,5	9,2	1	1	1	1	1	1	1	1	1	0	1	-6,8358	274,581989	315,472319	0
15.01.2021	16:44:43	0	1,903509	4,632064	1,572	337,6476	0,59	82,908	0	1016,28	7,4	9,4	9,2	1	1	1	1	1	1	1	1	1	0	1	-9,372798	274,701705	313,497784	0
15.01.2021	16:44:44	0	2,141432	4,970996	1,59675	322,236	0,585	82,901	0	1016	7,4	9,5	9,2	1	1	1	1	1	1	1	1	1	0	1	-10,641297	274,631013	311,897066	0
15.01.2021	16:44:45	0	1,665558	3,954201	1,551	333,8028	0,59	82,908	0	1016,12	7,4	9,5	9,2	1	1	1	1	1	1	1	1	1	0	1	-9,161381	274,678625	313,600706	0
15.01.2021	16:44:46	0	1,665558	4,632064	1,5915	339,9408	0,587	82,911	0	1016,16	7,4	9,5	9,2	1	1	1	1	1	1	1	1	1	0	1	-11,134602	274,66479	311,562465	0
15.01.2021	16:44:47	0	1,427641	3,276338	1,66725	343,8792	0,591	82,9	0	1016,1	7,4	9,3	9,2	1	1	1	1	1	1	1	1	1	0	1	-7,540521	274,701705	315,33006	0
15.01.2021	16:44:48	0	1,784527	3,61527	1,7685	333,2088	0,589	82,905	0	1016,08	7,4	9,5	9,2	1	1	1	1	1	1	1	1	1	0	1	-9,584214	274,58658	312,74546	0
15.01.2021	16:44:49	0	1,427621	2,937407	1,905	340,6284	0,59	82,89	0	1016,2	7,4	9,5	9,2	1	1	1	1	1	1	1	1	1	0	1	-11,134602	274,717106	311,808396	0
15.01.2021	16:44:50	0	1,903495	3,954201	1,9845	329,6988	0,585	82,93	0	1016,5	7,4	9,5	9,2	1	1	1	1	1	1	1	1	1	0	1	-10,852713	274,537668	311,247356	0
15.01.2021	16:44:51	0	1,665558	4,745041	2,073	322,9632	0,589	82,907	0	1016,12	7,4	9,5	9,2	1	1	1	1	1	1	1	1	1	0	1	-7,963354	274,548357	314,186881	0
15.01.2021	16:44:52	0	1,427621	2,485498	2,1525	315,9504	0,585	82,91	0	1016,3	7,4	9,5	9,2	1	1	1	1	1	1	1	1	1	0	1	-10,641297	274,687853	312,16417	0
15.01.2021	16:44:53	0	1,784527	4,632064	2,2245	316,692	0,589	82,91	0	1016,02	7,4	9,5	9,2	1	1	1	1	1	1	1	1	1	0	1	-9,584214	274,641754	313,004608	0
15.01.2021	16:44:54	0	2,022464	4,632064	2,31075	315,522	0,584	82,911	0	1016,16	7,4	9,5	9,2	1	1	1	1	1	1	1	1	1	0	1	-5,285412	274,549884	316,871992	0
15.01.2021	16:44:55	0	1,903495	3,163361	2,2815	309,2148	0,583	82,906	0	1016	7,4	9,5	9,2	1	1	1	1	1	1	1	1	1	0	1	-9,020437	274,652501	313,61888	0
15.01.2021	16:44:56	0	1,784527	3,389315	2,1615	312,1884	0,588	82,924	0	1016,12	7,4	9,5	9,2	1	1	1	1	1	1	1	1	1	0	1	-11,346018	274,689392	311,46668	0
15.01.2021	16:44:57	0	1,665558	3,163361	2,091	315,5148	0,583	82,911	0	1016,1	7,4	9,5	9,2	1	1	1	1	1	1	1	1	1	0	1	-7,892882	274,660181	314,782523	0
15.01.2021	16:44:58	0	1,784527	3,050384	2,0775	327,1104	0,591	82,905	0	1016,06	7,4	9,5	9,2	1	1	1	1	1	1	1	1	1	0	1	-7,399577	274,697086	315,449293	0
15.01.2021	16:44:59	0	1,903495	4,180155	1,99575	329,364	0,587	82,899	0	1016,24	7,4	9,5	9,2	1	1	1	1	1	1	1	1	1	0	1	-9,44327	274,594233	312,922343	0
15.01.2021	16:45:00	0	1,784527	4,858019	2,076	319,644	0,58	82,914	0	1016,16	7,4	9,5	9,2	1	1	1	1	1	1	1	1	1	0	1	-9,44327	274,698626	313,412837	0
15.01.2021	16:45:01	0	1,784527	4,858019	2,076	319,644	0,58	82,914	0	1016,16	7,4	9,5	9,2	1	1	1	1	1	1	1	1	1	0	1	-8,738548	274,647894	313,879124	0
15.01.2021	16:45:02	0	1,784527	4,067178	2,14125	332,1396	0,583	82,924	0	1016,26	7,4	9,5	9,2	1	1	1	1	1	1	1	1	1	0	1	-10,570825	274,525459	311,471954	0
15.01.2021	16:45:03	0	2,141432	4,519087	2,23725	328,2156	0,59	82,912	0	1016,26	7,4	9,5	9,2	1	1	1	1	1	1	1	1	1	0	1	-8,174771	274,536141	313,918135	0
15.01.2021	16:45:04	0	1,665558	2,824429	2,30625	329,634	0,592	82,928	0	1016,02	7,4	9,5	9,2	1	1	1	1	1	1	1	1	1	0	1	-14,587738	274,504112	307,354886	0
15.01.2021	16:45:05	0	2,141462	4,519087	2,3895	327,4092	0,592	82,922	0	1016,24	7,4	9,3	9,2	1	1	1	1	1	1	1	1	1	0	1	-11,205074	274,655572	311,448676	0
15.01.2021	16:45:06	0	1,308653	2,598475	2,44125	334,5804	0,595	82,92	0	1016,14	7,4	9,5	9,2	1	1	1	1	1	1	1	1	1	0	1	-8,386187	274,523933	313,649432	0
15.01.2021	16:45:07	0	1,665558	3,163361	2,343	330,3756	0,586	82,915	0	1016,18	7,4	9,5	9,2	1	1	1	1	1	1	1	1	1	0	1	-10,711769	274,577399	311,574801	0
15.01.2021	16:45:08	0	1,665558	2,711452	2,23875	325,1736	0,592	82,928	0	1016,16	7,4	9,5	9,2	1	1	1	1	1	1	1	1	1	0	1	-15,574348	274,680162	307,194968	0
15.01.2021	16:45:09	0	1,427621	3,050384	2,1825	334,296	0,588	82,914	0	1016,16	7,4	9,5	9,2	1	1	1	1	1	1	1	1	1	0	1	-5,426357	274,66479	317,27071	0
15.01.2021	16:45:10	0	1,784527	3,163361	2,06625	330,2604	0,582	82,913	0	1016,14	7,4	9,5	9,2	1	1	1	1	1	1	1	1	1	0	1	-5,637773	274,523933	316,397847	0
15.01.2021	16:45:11	0	2,141462	4,519087	2,031	322,2324	0,593	82,916	0	1016,12	7,4	9,3	9,2	1	1	1	1	1	1	1	1	1	0	1	-11,41649	274,552939	310,755255	0
15.01.2021	16:45:12	0	1,427641	3,841224	2,016	330,7428	0,591	82,925	0	1016,06	7,4	9,3	9,2	1	1	1	1	1	1	1	1	1	0	1	-11,41649	274,559051	310,783944	0
15.01.2021	16:45:13	0	1,546612	2,711452	2,00775	318,1464	0,58	82,909	0	1016,08	7,4	9,3	9,2	1	1	1	1	1	1	1	1	1	0	1	-8,949965	274,56058	313,257644	0
15.01.2021	16:45:14	0	1,784552	4,632064	1,96425	322,6896	0,592	82,928	0	1016,12	7,4	9,3	9,2	1	1	1	1	1	1	1	1	1	0	1	-9,020437	274,687853	313,785029	0
15.01.2021	16:45:15	0	1,784552	4,632064	1,85475	332,3412	0,583	82,922	0	1016,12	7,4	9,3	9,2	1	1	1	1	1	1	1	1	1	0	1	-9,936575	274,571281	312,321272	0
15.01.2021	16:45:16	0	1,665558	4,858019	1,797	331,5132	0,582	82,925	0	1016,08	7,4	9,5	9,2	1	1	1	1	1	1	1	1	1	0	1	-7,610994	274,697086	315,237877	0
15.01.2021	16:45:17	0	1,427621	2,937407	1,731	337,9752	0,587	82,922	0	1016,16	7,4	9,5	9,2	1	1	1	1	1	1	1	1	1	0	1	-11,205074	274,657108	311,455894	0
15.01.2021	16:45:18	0	1,427641	2,598475	1,59825	343,5264	0,592	82,92	0	1016,14	7,4	9,3	9,2	1	1	1	1	1	1	1	1	1	0	1	-8,245243	274,510209	313,725983	0
15.01.2021	16:45:19	0	1,665558	3,502292	1,4715	341,7192	0,591	82,914	0	1016,22	7,4	9,5	9,2	1	1	1	1	1	1	1	1	1	0	1	-7,258633	274,58811	315,078228	0
15.01.2021	16:45:20	0	1,784552	2,824429	1,3515	342,378	0,589	82,921	0	1016,1	7,4	9,3	9,2	1	1	1	1	1	1	1	1	1	0	1	-6,20155	274,513258	315,78398	0
15.01.2021	16:45:21	0	1,903495	4,745041	1,3035	338,3316	0,587	82,923	0	1016,04	7,4	9,5	9,2	1	1	1	1	1	1	1	1	1	0	1	-13,389711	274,624879	309,119832	0
15.01.2021	16:45:22	0	1,665558	3,728247	1,233	342,0108	0,585	82,903	0	1016,04	7,4	9,5	9,2	1	1	1	1	1	1	1	1	1	0	1	-11,06413	274,498018	310,849903	0
15.01.2021	16:45:23	0	2,022464	3,389315	1,2	345,0996	0,587	82,927	0	1016	7,4	9,5	9,2	1	1	1	1	1	1	1	1	1	0	1	-9,090909	274,698626	313,765198	0
15.01.2021	16:45:24	0	1,665558	3,728247	1,1775	333,126	0,595	82,934	0	1015,98	7,4	9,5	9,2	1	1	1	1	1	1	1	1	1	0	1	-12,825934	274,640219	309,755678	0
15.01.2021	16:45:25	0	1,54659	2,711452	1,1475	355,0464	0,588	82,926	0	1016,16	7,4	9,5	9,2	1	1	1	1	1	1	1	1	1	0	1	-10,852713	274,700165	312,010631	0
15.01.2021	16:45:26	0	1,903495	4,40611	1,12125	351,0252	0,594	82,93	0	1016,1	7,4	9,5	9,2	1	1	1	1	1	1	1	1	1	0	1	-10,711769	274,64943	311,913118	0
15.01.2021	16:45:27	0	1,784527	4,293133	1,0845	333,9108	0,592	82,93	0	1016,06	7,4	9,5	9,2	1	1	1	1	1	1	1	1	1	0	1	-5,426357	274,513258	316,559174	0
15.01.2021	16:45:28	0	1,54659	3,841224	1,12275	341,7624	0,587	82,935	0	1016,08	7,4	9,5	9,2	1	1	1	1	1	1	1	1	1	0	1	-5,84919	274,534615	316,236553	0
15.01.2021	16:45:29	0	2,022492	4,519087	1,2195	342,8172	0,586	82,918	0	1015,92	7,4	9,3	9,2	1	1	1	1	1	1	1	1	1	0	1	-9,090909	274,554467	313,088007	0
15.01.2021	16:45:30	0	1,665558	2,259544	1,29	346,59	0,59	82,929	0	1016,18	7,4	9,5	9,2	1	1	1	1	1	1	1	1	1	0	1	-4,298802	274,545302	317,837097	0
15.01.2021	16:45:31	0	1,54659	4,180155	1,329	350,0316	0,589	82,934	0	1016,2	7,4	9,5	9,2	1	1	1	1	1	1	1	1	1	0	1	-9,020437	274,674012	313,719971	0
15.01.2021	16:45:32	0	2,022492	4,180155	1,34925	345,492	0,587	82,911	0	1016,16	7,4	9,3	9,2	1	1	1	1	1	1	1	1	1	0	1	-7,892882	274,6817	314,883662	0
15.01.2021	16:45:33	0	1,665558	3,61527	1,33125	336,1068	0,595	82,935	0	1016,08	7,4	9,5	9,2	1	1	1	1	1	1	1	1	1	0	1	-9,936575	274,66479	312,760491	0
15.01.2021	16:45:34	0	1,54659	2,824429	1,34925	338,0292	0,591	82,933	0	1016,04	7,4	9,5	9,2	1	1	1	1	1	1	1	1	1	0	1	-4,510218	274,545302	317,62568	0
15.01.2021	16:45:35	0	1,665558	3,163361	1,40625	355,374	0,588	82,912	0	1016,04	7,4	9,5	9,2	1	1	1	1	1	1	1	1	1	0	1	-6,20155	274,511733	315,776827	0
15.01.2021	16:45:36	0	1,784552	4,745041	1,58775	349,578	0,59	82,911	0	1016,12	7,4	9,3	9,2	1	1	1	1	1	1	1	1	1	0	1	-10,147992	274,647894	312,469681	0
15.01.2021	16:45:37	0	1,54659	4,858019	1,84725	348,0408	0,589	82,934	0	1016,14	7,4	9,5	9,2	1	1	1	1	1	1	1	1	1	0	1	-10,359408	274,678625	312,40268	0
15.01.2021	16:45:38	0	2,022464	4,519087	1,91925	352,1628	0,584	82,931	0	1016,14	7,4	9,5	9,2	1	1	1	1	1	1	1	1	1	0	1	-10,42988	274,687853	312,375586	0
15.01.2021	16:45:39	0	1,546612	3,050384	1,8165	356,6088	0,596	82,925	0	1016,14	7,4	9,3	9,2	1	1	1	1	1	1	1	1	1	0	1	-12,614517	274,569752	309,636151	0
15.01.2021	16:45:40	0	1,54659	3,61527	1,80675	339,174	0,592	82,94	0	1016,18	7,4	9,5	9,2	1	1	1	1	1	1	1	1	1	0	1	-9,936575	274,695547	312,90506	0
15.01.2021	16:45:41	0	1,546612	3,502292	1,8165	341,3232	0,585	82,922	0	1016,26	7,4	9,3	9,2	1	1	1	1	1	1	1	1	1	0	1	-8,104299	274,508685	313,859775	0
15.01.2021	16:45:42	0	1,784527	4,293133	1,8825	330,8292	0,59	82,911	0	1016,12	7,4	9,5	9,2	1	1	1	1	1	1	1	1	1	0	1	-10,711769	274,631013	311,826594	0
15.01.2021	16:45:43	0	1,784552	4,519087	1,8525	330,3684	0,586	82,924	0	1016,08	7,4	9,3	9,2	1	1	1	1	1	1	1	1	1	0	1	-6,624383	274,683238	316,159391	0
15.01.2021	16:45:44	0	1,54659	2,937407	1,81425	332,4816	0,588	82,934	0	1016,12	7,4	9,5	9,2	1	1	1	1	1	1	1	1	1	0	1	-8,949965	274,572811	313,315062	0
15.01.2021	16:45:45	0	1,784552	3,728247	1,73025	321,1848	0,592	82,934	0	1016,26	7,4	9,3	9,2	1	1	1	1	1	1	1	1	1	0	1	-8,879493	274,533089	313,199087	0
15.01.2021	16:45:46	0	1,903522	3,163361	1,58625	327,5316	0,589	82,922	0	1016,2	7,4	9,3	9,2	1	1	1	1	1	1	1	1	1	0	1	-12,544045	274,647894	310,073627	0
15.01.2021	16:45:47	0	1,665582	4,293133	1,455	327,4416	0,588	82,938	0	1016,08	7,4	9,3	9,2	1	1	1	1	1	1	1	1	1	0	1	-7,117689	274,672475	315,615494	0
15.01.2021	16:45:48	0	1,665558	4,293133	1,43175	328,9068	0,587	82,93	0	1016,36	7,4	9,5	9,2	1	1	1	1	1	1	1	1	1	0	1	-9,302326	274,643289	313,293709	0
15.01.2021	16:45:49	0	1,784527	4,40611	1,422	338,7672	0,592	82,943	0	1016,12	7,4	9,5	9,2	1	1	1	1	1	1	1	1	1	0	1	-9,090909	274,689392	313,72179	0
15.01.2021	16:45:50	0	1,784527	4,632064	1,446	330,9012	0,59	82,927	0	1016,14	7,4	9,5	9,2	1	1	1	1	1	1	1	1	1	0	1	-7,258633	274,655572	315,395117	0
15.01.2021	16:45:51	0	1,903522	4,632064	1,455	328,2768	0,597	82,937	0	1016,14	7,4	9,3	9,2	1	1	1	1	1	1	1	1	1	0	1	-5,919662	274,526985	316,130275	0
15.01.2021	16:45:52	0	1,784552	4,40611	1,44675	322,9956	0,589	82,939	0	1016	7,4	9,3	9,2	1	1	1	1	1	1	1	1	1	0	1	-11,980268	274,641754	310,608555	0
15.01.2021	16:45:53	0	2,022492	4,745041	1,398	319,1904	0,582	82,931	0	1016,22	7,4	9,3	9,2	1	1	1	1	1	1	1	1	1	0	1	-6,624383	274,695547	316,217251	0
15.01.2021	16:45:54	0	1,665558	4,180155	1,39275	324,5904	0,589	82,934	0	1016,18	7,4	9,5	9,2	1	1	1	1	1	1	1	1	1	0	1	-7,82241	274,632547	314,723159	0
15.01.2021	16:45:55	0	1,189701	2,598475	1,41375	335,772	0,587	82,937	0	1016,2	7,4	9,3	9,2	1	1	1	1	1	1	1	1	1	0	1	-7,399577	274,674012	315,34083	0
15.01.2021	16:45:56	0	1,54659	2,937407	1,41675	327,8088	0,584	82,935	0	1015,94	7,4	9,5	9,2	1	1	1	1	1	1	1	1	1	0	1	-14,094433	274,552939	308,077313	0
15.01.2021	16:45:57	0	1,546612	4,632064	1,43625	316,6596	0,586	82,908	0	1016,12	7,3	9,3	9,2	1	1	1	1	1	1	1	1	1	0	1	-10,641297	274,680162	312,128019	0
15.01.2021	16:45:58	0	1,546612	4,180155	1,51725	311,8464	0,586	82,931	0	1016,04	7,3	9,3	9,2	1	1	1	1	1	1	1	1	1	0	1	-10,570825	274,542248	311,55074	0
15.01.2021	16:45:59	0	1,308671	3,502292	1,47675	322,6104	0,587	82,935	0	1016,22	7,4	9,3	9,2	1	1	1	1	1	1	1	1	1	0	1	-8,879493	274,505636	313,070281	0
15.01.2021	16:46:00	0	1,308653	2,824429	1,422	321,1128	0,59	82,928	0	1016,2	7,4	9,5	9,2	1	1	1	1	1	1	1	1	1	0	1	-11,909796	274,56058	310,297813	0
15.01.2021	16:46:01	0	1,784527	4,067178	1,43325	320,0868	0,59	82,935	0	1016,16	7,4	9,5	9,2	1	1	1	1	1	1	1	1	1	0	1	-11,698379	274,672475	311,034803	0
15.01.2021	16:46:02	0	1,784552	4,858019	1,452	328,9824	0,586	82,913	0	1016,14	7,4	9,3	9,2	1	1	1	1	1	1	1	1	1	0	1	-7,258633	274,508685	314,705441	0
15.01.2021	16:46:03	0	1,665558	2,937407	1,44525	340,6068	0,587	82,919	0	1016,24	7,4	9,5	9,2	1	1	1	1	1	1	1	1	1	0	1	-8,949965	274,618746	313,53077	0
15.01.2021	16:46:04	0	1,784527	4,745041	1,4715	333,1584	0,588	82,931	0	1016,16	7,4	9,5	9,2	1	1	1	1	1	1	1	1	1	0	1	-10,007047	274,491925	311,878406	0
15.01.2021	16:46:05	0	1,665558	4,632064	1,49775	333,5688	0,591	82,921	0	1016,18	7,4	9,5	9,2	1	1	1	1	1	1	1	1	1	0	1	-14,376321	274,626412	308,140426	0
15.01.2021	16:46:06	0	1,427621	3,389315	1,47525	326,6748	0,59	82,929	0	1016,06	7,4	9,5	9,2	1	1	1	1	1	1	1	1	1	0	1	-6,342495	274,680162	316,426821	0
15.01.2021	16:46:07	0	1,665582	3,502292	1,51425	335,7036	0,592	82,907	0	1016,18	7,4	9,3	9,2	1	1	1	1	1	1	1	1	1	0	1	-11,768851	274,57587	310,510536	0
15.01.2021	16:46:08	0	1,189685	2,824429	1,518	329,634	0,59	82,924	0	1016,02	7,4	9,5	9,2	1	1	1	1	1	1	1	1	1	0	1	-8,104299	274,510209	313,866927	0
15.01.2021	16:46:09	0	1,308653	2,824429	1,53675	315,2412	0,585	82,91	0	1016,06	7,4	9,5	9,2	1	1	1	1	1	1	1	1	1	0	1	-6,906272	274,537668	315,193797	0
15.01.2021	16:46:10	0	1,665582	3,728247	1,6215	330,39	0,592	82,915	0	1016,12	7,4	9,3	9,2	1	1	1	1	1	1	1	1	1	0	1	-7,82241	274,657108	314,838558	0
15.01.2021	16:46:11	0	1,665558	2,937407	1,59075	317,7756	0,589	82,911	0	1016,08	7,4	9,5	9,2	1	1	1	1	1	1	1	1	1	0	1	-10,500352	274,598827	311,886833	0
15.01.2021	16:46:12	0	2,022492	4,293133	1,554	323,7156	0,592	82,907	0	1016	7,4	9,3	9,2	1	1	1	1	1	1	1	1	1	0	1	-4,933051	274,549884	317,224353	0
15.01.2021	16:46:13	0	1,308653	4,067178	1,4955	332,442	0,589	82,924	0	1016,26	7,4	9,5	9,2	1	1	1	1	1	1	1	1	1	0	1	-7,470049	274,491925	314,415404	0
15.01.2021	16:46:14	0	1,784527	3,61527	1,43475	324,7308	0,587	82,932	0	1016	7,3	9,5	9,2	1	1	1	1	1	1	1	1	1	0	1	-11,134602	274,577399	311,151968	0
15.01.2021	16:46:15	0	1,070716	2,598475	1,43325	343,9188	0,584	82,929	0	1016,22	7,3	9,5	9,2	1	1	1	1	1	1	1	1	1	0	1	-12,473573	274,50716	309,48335	0
15.01.2021	16:46:16	0	1,546612	3,728247	1,443	327,15	0,59	82,921	0	1016,22	7,3	9,3	9,2	1	1	1	1	1	1	1	1	1	0	1	-5,637773	274,585049	316,684715	0
15.01.2021	16:46:17	0	1,308671	3,050384	1,4595	328,9248	0,586	82,906	0	1016,1	7,3	9,3	9,2	1	1	1	1	1	1	1	1	1	0	1	-8,174771	274,505636	313,775002	0
15.01.2021	16:46:18	0	2,141432	4,745041	1,42575	330,4008	0,584	82,906	0	1016,14	7,4	9,5	9,2	1	1	1	1	1	1	1	1	1	0	1	-8,45666	274,58811	313,880201	0
15.01.2021	16:46:19	0	1,427641	3,61527	1,365	333,1224	0,584	82,912	0	1016,08	7,3	9,3	9,2	1	1	1	1	1	1	1	1	1	0	1	-14,587738	274,66479	308,109329	0
15.01.2021	16:46:20	0	1,665582	4,180155	1,3575	335,7036	0,583	82,906	0	1016,12	7,4	9,3	9,2	1	1	1	1	1	1	1	1	1	0	1	-11,275546	274,638685	311,298856	0
15.01.2021	16:46:21	0	1,308653	2,937407	1,308	330,7536	0,593	82,923	0	1016,18	7,4	9,5	9,2	1	1	1	1	1	1	1	1	1	0	1	-10,218464	274,672475	312,514719	0
15.01.2021	16:46:22	0	1,308653	2,485498	1,3095	332,7336	0,591	82,926	0	1016,04	7,3	9,5	9,2	1	1	1	1	1	1	1	1	1	0	1	-8,80902	274,627946	313,714931	0
15.01.2021	16:46:23	0	1,308671	2,711452	1,392	340,5312	0,589	82,92	0	1016,18	7,4	9,3	9,2	1	1	1	1	1	1	1	1	1	0	1	-6,765328	274,508685	315,198747	0
15.01.2021	16:46:24	0	1,903522	3,954201	1,41975	343,7064	0,58	82,919	0	1015,98	7,4	9,3	9,2	1	1	1	1	1	1	1	1	1	0	1	-9,372798	274,638685	313,201604	0
15.01.2021	16:46:25	0	1,546612	3,502292	1,48425	336,1068	0,588	82,929	0	1016,24	7,3	9,3	9,2	1	1	1	1	1	1	1	1	1	0	1	-7,117689	274,479745	314,710637	0
15.01.2021	16:46:26	0	1,784552	4,293133	1,467	332,7516	0,582	82,911	0	1016,12	7,4	9,3	9,2	1	1	1	1	1	1	1	1	1	0	1	-9,302326	274,606486	313,120826	0
15.01.2021	16:46:27	0	1,427621	2,485498	1,521	330,1164	0,587	82,918	0	1015,9	7,4	9,5	9,2	1	1	1	1	1	1	1	1	1	0	1	-10,993658	274,516308	311,006181	0
15.01.2021	16:46:28	0	2,022492	3,502292	1,58925	340,6356	0,582	82,923	0	1016,08	7,3	9,3	9,2	1	1	1	1	1	1	1	1	1	0	1	-6,060606	274,568223	316,182884	0
15.01.2021	16:46:29	0	1,784552	4,293133	1,57725	308,1492	0,585	82,928	0	1016,18	7,4	9,3	9,2	1	1	1	1	1	1	1	1	1	0	1	-11,486963	274,496494	310,419924	0
15.01.2021	16:46:30	0	1,308653	3,502292	1,60575	311,7852	0,59	82,91	0	1016,14	7,4	9,5	9,2	1	1	1	1	1	1	1	1	1	0	1	-5,355884	274,618746	317,124851	0
15.01.2021	16:46:31	0	1,784552	4,180155	1,6695	317,07	0,588	82,913	0	1016,06	7,3	9,3	9,2	1	1	1	1	1	1	1	1	1	0	1	-9,302326	274,496494	312,604561	0
15.01.2021	16:46:32	0	1,546612	2,598475	1,85775	315,2016	0,589	82,909	0	1016,2	7,4	9,3	9,2	1	1	1	1	1	1	1	1	1	0	1	-6,976744	274,635616	315,58324	0
15.01.2021	16:46:33	0	1,784552	4,067178	2,08575	360	0,593	82,904	0	1016,14	7,3	9,3	9,2	1	1	1	1	1	1	1	1	1	0	1	-10,852713	274,667863	311,858797	0
15.01.2021	16:46:34	0	1,784552	3,61527	2,24775	342,36	0,59	82,923	0	1016,14	7,4	9,3	9,2	1	1	1	1	1	1	1	1	1	0	1	-16,420014	274,499541	305,501166	0
15.01.2021	16:46:35	0	1,54659	4,293133	2,38575	348,9624	0,587	82,903	0	1016,04	7,4	9,5	9,2	1	1	1	1	1	1	1	1	1	0	1	-10,993658	274,568223	311,249832	0
15.01.2021	16:46:36	0	1,665582	2,937407	2,44875	353,2104	0,583	82,92	0	1016,14	7,4	9,3	9,2	1	1	1	1	1	1	1	1	1	0	1	-10,500352	274,484312	311,349391	0
15.01.2021	16:46:37	0	1,665582	4,40611	2,487	343,5516	0,581	82,906	0	1016,06	7,3	9,3	9,2	1	1	1	1	1	1	1	1	1	0	1	-11,486963	274,568223	310,756527	0
15.01.2021	16:46:38	0	1,308671	2,372521	2,45925	352,8108	0,589	82,909	0	1016,12	7,3	9,3	9,2	1	1	1	1	1	1	1	1	1	0	1	-5,426357	274,517833	316,580637	0
15.01.2021	16:46:39	0	1,546612	4,632064	2,41125	341,0208	0,59	82,915	0	1016,1	7,3	9,3	9,2	1	1	1	1	1	1	1	1	1	0	1	-8,738548	274,680162	314,030767	0
15.01.2021	16:46:40	0	1,427621	3,502292	2,35425	337,2012	0,589	82,909	0	1016,14	7,3	9,5	9,2	1	1	1	1	1	1	1	1	1	0	1	-12,825934	274,565165	309,403202	0
15.01.2021	16:46:41	0	1,308671	3,276338	2,42775	334,98	0,59	82,913	0	1016,2	7,3	9,3	9,2	1	1	1	1	1	1	1	1	1	0	1	-8,033827	274,686315	314,764408	0
15.01.2021	16:46:42	0	2,022492	5,422904	2,33775	338,4324	0,594	82,909	0	1015,94	7,3	9,3	9,2	1	1	1	1	1	1	1	1	1	0	1	-10,42988	274,585049	311,892608	0
15.01.2021	16:46:43	0	1,54659	2,824429	2,1795	342,1116	0,587	82,915	0	1016,14	7,4	9,5	9,2	1	1	1	1	1	1	1	1	1	0	1	-10,359408	274,504112	311,583216	0
15.01.2021	16:46:44	0	1,665582	3,954201	2,08125	350,2872	0,588	82,917	0	1016,14	7,3	9,3	9,2	1	1	1	1	1	1	1	1	1	0	1	-7,751938	274,56058	314,455671	0
15.01.2021	16:46:45	0	1,189701	3,389315	2,0415	345,8088	0,587	82,905	0	1016,18	7,3	9,3	9,2	1	1	1	1	1	1	1	1	1	0	1	-7,610994	274,485834	314,24589	0
15.01.2021	16:46:46	0	1,546601	4,745041	1,9845	342,0072	0,588	82,913	0	1016,02	7,3	9,4	9,2	1	1	1	1	1	1	1	1	1	0	1	-7,82241	274,60955	314,615134	0
15.01.2021	16:46:47	0	1,546612	2,824429	2,00475	357,2064	0,583	82,91	0	1016,02	7,3	9,3	9,2	1	1	1	1	1	1	1	1	1	0	1	-8,315715	274,488879	313,555452	0
15.01.2021	16:46:48	0	1,308653	3,502292	1,95075	340,6212	0,588	82,913	0	1016,1	7,4	9,5	9,2	1	1	1	1	1	1	1	1	1	0	1	-9,866103	274,667863	312,845408	0
15.01.2021	16:46:49	0	1,665582	3,954201	1,78125	351,7308	0,589	82,919	0	1016,12	7,4	9,3	9,2	1	1	1	1	1	1	1	1	1	0	1	-8,033827	274,505636	313,915947	0
15.01.2021	16:46:50	0	1,427641	4,40611	1,63275	335,0304	0,581	82,917	0	1016,1	7,4	9,3	9,2	1	1	1	1	1	1	1	1	1	0	1	-10,359408	274,488879	311,511759	0
15.01.2021	16:46:51	0	1,546612	4,40611	1,641	334,6236	0,582	82,904	0	1016,08	7,5	9,3	9,2	1	1	1	1	1	1	1	1	1	0	1	-8,949965	274,520883	313,07134	0
15.01.2021	16:46:52	0	1,427641	4,858019	1,791	317,4552	0,584	82,919	0	1016,14	7,4	9,3	9,2	1	1	1	1	1	1	1	1	1	0	1	-10,782241	274,667863	311,92927	0
15.01.2021	16:46:53	0	1,546612	3,728247	1,959	335,7072	0,583	82,919	0	1016,1	7,4	9,3	9,2	1	1	1	1	1	1	1	1	1	0	1	-8,174771	274,539194	313,932463	0
15.01.2021	16:46:54	0	1,546601	4,180155	2,034	336,1464	0,584	82,914	0	1016,12	7,3	9,4	9,2	1	1	1	1	1	1	1	1	1	0	1	-6,483439	274,655572	316,170311	0
15.01.2021	16:46:55	0	1,903522	4,745041	1,88625	339,8868	0,588	82,91	0	1016,04	7,4	9,3	9,2	1	1	1	1	1	1	1	1	1	0	1	-7,681466	274,63715	314,885727	0
15.01.2021	16:46:56	0	1,308671	2,711468	1,803	328,2768	0,586	82,888	0	1016,02	7,3	9,3	9,1	1	1	1	1	1	1	1	1	1	0	1	-11,839323	274,663253	310,850522	0
15.01.2021	16:46:57	0	1,308653	2,598475	1,8435	333,882	0,589	82,903	0	1016,1	7,4	9,5	9,2	1	1	1	1	1	1	1	1	1	0	1	-7,117689	274,533089	314,960892	0
15.01.2021	16:46:58	0	1,427641	2,937407	1,79475	336,7944	0,59	82,908	0	1016,08	7,4	9,3	9,2	1	1	1	1	1	1	1	1	1	0	1	-9,936575	274,670938	312,789383	0
15.01.2021	16:46:59	0	1,427641	3,954201	1,76475	347,6268	0,582	82,906	0	1016,14	7,3	9,3	9,2	1	1	1	1	1	1	1	1	1	0	1	-11,486963	274,488879	310,384204	0
15.01.2021	16:47:00	0	1,546601	4,293133	1,65525	342,8388	0,585	82,909	0	1016,08	7,3	9,4	9,2	1	1	1	1	1	1	1	1	1	0	1	-8,527132	274,549884	313,630273	0
15.01.2021	16:47:01	0	1,546601	4,293133	1,65525	342,8388	0,585	82,909	0	1016,08	7,3	9,4	9,2	1	1	1	1	1	1	1	1	1	0	1	-7,963354	274,672475	314,769828	0
15.01.2021	16:47:02	0	1,546612	2,598475	1,64925	330,174	0,582	82,884	0	1016,08	7,4	9,3	9,2	1	1	1	1	1	1	1	1	1	0	1	-8,879493	274,606486	313,543659	0
15.01.2021	16:47:03	0	1,427641	3,61527	1,73775	342,45	0,586	82,902	0	1016,2	7,3	9,3	9,2	1	1	1	1	1	1	1	1	1	0	1	-10,359408	274,488879	311,511759	0
15.01.2021	16:47:04	0	1,308671	4,632064	1,75725	340,3224	0,588	82,905	0	1016,12	7,3	9,3	9,2	1	1	1	1	1	1	1	1	1	0	1	-10,570825	274,514783	311,42186	0
15.01.2021	16:47:05	0	1,189693	2,824429	1,7235	340,974	0,587	82,889	0	1016,24	7,4	9,4	9,2	1	1	1	1	1	1	1	1	1	0	1	-10,570825	274,655572	312,082926	0
15.01.2021	16:47:06	0	1,665582	2,598475	1,74225	348,3288	0,587	82,899	0	1016,08	7,3	9,3	9,2	1	1	1	1	1	1	1	1	1	0	1	-6,8358	274,644824	315,767446	0
15.01.2021	16:47:07	0	1,546601	2,824429	1,83225	340,5312	0,589	82,901	0	1016,22	7,3	9,4	9,2	1	1	1	1	1	1	1	1	1	0	1	-10,288936	274,655572	312,364814	0
15.01.2021	16:47:08	0	1,427621	2,937407	1,98375	334,9584	0,59	82,908	0	1016,32	7,3	9,5	9,2	1	1	1	1	1	1	1	1	1	0	1	-8,668076	274,58658	313,661598	0
15.01.2021	16:47:09	0	1,427641	4,632064	2,0175	331,1352	0,586	82,906	0	1016,1	7,4	9,3	9,2	1	1	1	1	1	1	1	1	1	0	1	-7,047216	274,670938	315,678741	0
15.01.2021	16:47:10	0	1,427641	2,824429	1,95975	322,9308	0,587	82,885	0	1016,08	7,3	9,3	9,2	1	1	1	1	1	1	1	1	1	0	1	-8,597604	274,61568	313,868731	0
15.01.2021	16:47:11	0	1,308671	4,519087	2,10525	332,0316	0,593	82,905	0	1016,2	7,3	9,3	9,2	1	1	1	1	1	1	1	1	1	0	1	-7,470049	274,654036	315,176484	0
15.01.2021	16:47:12	0	1,784552	4,180155	2,316	334,3464	0,586	82,888	0	1016,12	7,3	9,3	9,2	1	1	1	1	1	1	1	1	1	0	1	-9,231853	274,549884	312,925551	0
15.01.2021	16:47:13	0	1,665582	4,180155	2,478	336,0636	0,584	82,886	0	1016,22	7,3	9,3	9,2	1	1	1	1	1	1	1	1	1	0	1	-11,41649	274,632547	311,129079	0
15.01.2021	16:47:14	0	1,070731	2,259544	2,58	339,9228	0,588	82,894	0	1016,28	7,5	9,3	9,2	1	1	1	1	1	1	1	1	1	0	1	-7,329105	274,526985	314,720832	0
15.01.2021	16:47:15	0	1,784539	4,293133	2,52675	343,998	0,589	82,887	0	1016,12	7,3	9,4	9,2	1	1	1	1	1	1	1	1	1	0	1	-8,45666	274,64943	314,168227	0
15.01.2021	16:47:16	0	1,308662	2,937407	2,3895	332,4024	0,592	82,89	0	1016,12	7,3	9,4	9,2	1	1	1	1	1	1	1	1	1	0	1	-12,403101	274,536141	309,689805	0
15.01.2021	16:47:17	0	1,903522	4,858019	2,364	331,0956	0,582	82,873	0	1016,12	7,4	9,3	9,2	1	1	1	1	1	1	1	1	1	0	1	-11,205074	274,663253	311,484771	0
15.01.2021	16:47:18	0	1,308671	2,824429	2,2245	333,4752	0,584	82,887	0	1016,04	7,3	9,3	9,2	1	1	1	1	1	1	1	1	1	0	1	-7,963354	274,64943	314,661532	0
15.01.2021	16:47:19	0	1,665582	4,293133	2,1765	330,0372	0,588	82,891	0	1016,02	7,3	9,3	9,2	1	1	1	1	1	1	1	1	1	0	1	-10,218464	274,64943	312,406423	0
15.01.2021	16:47:20	0	1,427641	4,519087	2,25975	336,0528	0,588	82,888	0	1016,16	7,3	9,3	9,2	1	1	1	1	1	1	1	1	1	0	1	-10,500352	274,654036	312,146181	0
15.01.2021	16:47:21	0	1,546601	4,745041	2,364	339,876	0,585	82,872	0	1016,06	7,3	9,4	9,2	1	1	1	1	1	1	1	1	1	0	1	-14,023961	274,666327	308,680328	0
15.01.2021	16:47:22	0	1,308653	4,40611	2,4735	333,6228	0,603	82,881	0	1016,18	7,3	9,5	9,2	1	1	1	1	1	1	1	1	1	0	1	-12,191684	274,562108	310,023099	0
15.01.2021	16:47:23	0	1,784539	3,954201	2,62125	336,4344	0,582	82,881	0	1016,16	7,3	9,4	9,2	1	1	1	1	1	1	1	1	1	0	1	-12,966878	274,498018	308,947155	0
15.01.2021	16:47:24	0	1,665582	2,711468	2,79225	333,5184	0,578	82,877	0	1016,1	7,3	9,3	9,1	1	1	1	1	1	1	1	1	1	0	1	-12,121212	274,608018	310,309135	0
15.01.2021	16:47:25	0	1,189701	2,598475	2,89725	336,1572	0,582	82,876	0	1016,08	7,3	9,3	9,2	1	1	1	1	1	1	1	1	1	0	1	-8,45666	274,680162	314,312656	0
15.01.2021	16:47:26	0	1,427641	3,276338	2,85975	338,022	0,584	82,887	0	1016,16	7,3	9,3	9,2	1	1	1	1	1	1	1	1	1	0	1	-10,077519	274,61568	312,388816	0
15.01.2021	16:47:27	0	1,427631	4,745041	2,844	338,7636	0,586	82,885	0	1016,22	7,4	9,4	9,2	1	1	1	1	1	1	1	1	1	0	1	-11,768851	274,677087	310,986009	0
15.01.2021	16:47:28	0	1,66557	3,954201	2,925	338,0616	0,588	82,877	0	1016,14	7,3	9,4	9,2	1	1	1	1	1	1	1	1	1	0	1	-8,879493	274,591172	313,471743	0
15.01.2021	16:47:29	0	1,546601	4,745041	2,9115	338,7132	0,577	82,878	0	1016,06	7,3	9,4	9,2	1	1	1	1	1	1	1	1	1	0	1	-10,218464	274,6694	312,50027	0
15.01.2021	16:47:30	0	1,308662	2,598475	2,9085	336,4812	0,584	82,895	0	1016,18	7,5	9,4	9,2	1	1	1	1	1	1	1	1	1	0	1	-14,517266	274,603422	307,891498	0
15.01.2021	16:47:31	0	1,546601	3,163361	2,93175	342,1152	0,581	82,885	0	1016,2	7,4	9,4	9,2	1	1	1	1	1	1	1	1	1	0	1	-7,892882	274,650965	314,739219	0
15.01.2021	16:47:32	0	1,665582	4,519087	2,916	343,9656	0,58	82,89	0	1016,18	7,3	9,3	9,2	1	1	1	1	1	1	1	1	1	0	1	-6,342495	274,583519	315,972808	0
15.01.2021	16:47:33	0	1,189701	3,276338	2,91825	334,728	0,584	82,874	0	1015,94	7,4	9,3	9,2	1	1	1	1	1	1	1	1	1	0	1	-8,668076	274,482789	313,174527	0
15.01.2021	16:47:34	0	1,189693	3,502292	2,847	341,3268	0,58	82,881	0	1015,96	7,4	9,4	9,2	1	1	1	1	1	1	1	1	1	0	1	-8,879493	274,520883	313,141813	0
15.01.2021	16:47:35	0	1,546612	4,40611	2,6955	337,1796	0,58	82,878	0	1016,04	7,3	9,3	9,2	1	1	1	1	1	1	1	1	1	0	1	-9,090909	274,64943	313,533977	0
15.01.2021	16:47:36	0	1,546612	4,519087	2,60925	339,1272	0,582	82,882	0	1015,86	7,3	9,3	9,2	1	1	1	1	1	1	1	1	1	0	1	-7,82241	274,611082	314,62233	0
15.01.2021	16:47:37	0	1,308662	4,180181	2,5365	339,9948	0,585	82,888	0	1016,16	7,4	9,4	9,1	1	1	1	1	1	1	1	1	1	0	1	-8,527132	274,494971	313,37261	0
15.01.2021	16:47:38	0	1,427641	3,728247	2,44875	339,3684	0,577	82,885	0	1016,18	7,3	9,3	9,2	1	1	1	1	1	1	1	1	1	0	1	-8,386187	274,519358	313,627962	0
15.01.2021	16:47:39	0	1,189693	4,293133	2,42775	339,1488	0,586	82,889	0	1016,08	7,4	9,4	9,2	1	1	1	1	1	1	1	1	1	0	1	-9,020437	274,546829	313,12263	0
15.01.2021	16:47:40	0	1,070724	2,824429	2,529	338,0688	0,586	82,889	0	1016,2	7,3	9,4	9,2	1	1	1	1	1	1	1	1	1	0	1	-14,869626	274,473658	306,930152	0
15.01.2021	16:47:41	0	1,308662	4,632064	2,574	332,118	0,587	82,89	0	1016,24	7,3	9,4	9,2	1	1	1	1	1	1	1	1	1	0	1	-11,698379	274,623345	310,803961	0
15.01.2021	16:47:42	0	1,189693	4,180155	2,718	331,5348	0,581	82,869	0	1016,1	7,3	9,4	9,2	1	1	1	1	1	1	1	1	1	0	1	-8,80902	274,534615	313,276722	0
15.01.2021	16:47:43	0	1,546601	4,180155	2,71575	336,7764	0,582	82,89	0	1016,16	7,4	9,4	9,2	1	1	1	1	1	1	1	1	1	0	1	-14,235377	274,655572	308,418373	0
15.01.2021	16:47:44	0	1,427631	2,824429	2,712	334,6488	0,582	82,886	0	1016,16	7,3	9,4	9,2	1	1	1	1	1	1	1	1	1	0	1	-12,896406	274,540721	309,217993	0
15.01.2021	16:47:45	0	1,189693	3,502292	2,76525	336,4632	0,584	82,89	0	1016,2	7,3	9,4	9,2	1	1	1	1	1	1	1	1	1	0	1	-12,473573	274,640219	310,108039	0
15.01.2021	16:47:46	0	1,546601	4,406136	2,7645	333,8892	0,586	82,889	0	1016,08	7,3	9,4	9,1	1	1	1	1	1	1	1	1	1	0	1	-9,161381	274,620279	313,326555	0
15.01.2021	16:47:47	0	0,951754	2,372521	2,679	331,1568	0,584	82,892	0	1016,24	7,3	9,4	9,2	1	1	1	1	1	1	1	1	1	0	1	-7,751938	274,476701	314,062113	0
15.01.2021	16:47:48	0	1,070724	3,276358	2,5965	334,2348	0,586	82,879	0	1016,2	7,4	9,4	9,1	1	1	1	1	1	1	1	1	1	0	1	-12,262156	274,548357	309,888079	0
15.01.2021	16:47:49	0	1,308662	2,937407	2,6235	331,1604	0,588	82,894	0	1016,16	7,4	9,4	9,2	1	1	1	1	1	1	1	1	1	0	1	-7,188161	274,627946	315,335791	0
15.01.2021	16:47:50	0	1,546601	4,180181	2,628	327,1104	0,582	82,877	0	1016,1	7,3	9,4	9,1	1	1	1	1	1	1	1	1	1	0	1	-12,332629	274,493448	309,559968	0
15.01.2021	16:47:51	0	1,427631	2,824429	2,53125	334,656	0,582	82,889	0	1016,08	7,4	9,4	9,2	1	1	1	1	1	1	1	1	1	0	1	-7,188161	274,552939	314,983585	0
15.01.2021	16:47:52	0	1,070724	2,259544	2,35875	328,176	0,585	82,895	0	1016,22	7,4	9,4	9,2	1	1	1	1	1	1	1	1	1	0	1	-8,033827	274,491925	313,851626	0
15.01.2021	16:47:53	0	1,308662	3,389315	2,16	333,4608	0,585	82,885	0	1016,14	7,4	9,4	9,2	1	1	1	1	1	1	1	1	1	0	1	-11,768851	274,540721	310,345548	0
15.01.2021	16:47:54	0	1,903509	2,711452	2,13225	331,9668	0,581	82,877	0	1016,1	7,4	9,4	9,2	1	1	1	1	1	1	1	1	1	0	1	-15,292459	274,52851	306,764637	0
15.01.2021	16:47:55	0	1,308662	4,180155	2,187	314,838	0,586	82,881	0	1016,22	7,4	9,4	9,2	1	1	1	1	1	1	1	1	1	0	1	-7,117689	274,655572	315,536062	0
15.01.2021	16:47:56	0	1,308662	3,276338	2,253	336,8628	0,584	82,87	0	1016,14	7,4	9,4	9,2	1	1	1	1	1	1	1	1	1	0	1	-7,963354	274,598827	314,423831	0
15.01.2021	16:47:57	0	1,308662	3,163361	2,21475	327,8448	0,589	82,87	0	1016,08	7,4	9,4	9,2	1	1	1	1	1	1	1	1	1	0	1	-7,188161	274,652501	315,451156	0
15.01.2021	16:47:58	0	1,189693	2,824429	2,18775	325,4652	0,583	82,869	0	1016,12	7,4	9,4	9,2	1	1	1	1	1	1	1	1	1	0	1	-7,329105	274,554467	314,849812	0
15.01.2021	16:47:59	0	1,427631	2,937407	2,1285	318,8664	0,584	82,85	0	1016,16	7,4	9,4	9,2	1	1	1	1	1	1	1	1	1	0	1	-15,433404	274,490402	306,444906	0
15.01.2021	16:48:00	0	1,070724	2,824429	2,1555	323,4384	0,585	82,87	0	1016,18	7,4	9,4	9,2	1	1	1	1	1	1	1	1	1	0	1	-5,496829	274,571281	316,761018	0
15.01.2021	16:48:01	0	1,070724	2,824429	2,1555	323,4384	0,585	82,87	0	1016,18	7,4	9,4	9,2	1	1	1	1	1	1	1	1	1	0	1	-9,513742	274,491925	312,371711	0
15.01.2021	16:48:02	0	1,546601	3,050384	2,00625	335,8548	0,583	82,869	0	1016,18	7,4	9,4	9,2	1	1	1	1	1	1	1	1	1	0	1	-6,131078	274,603422	316,277685	0
15.01.2021	16:48:03	0	1,308662	3,050384	1,836	320,4324	0,583	82,854	0	1016,1	7,4	9,4	9,2	1	1	1	1	1	1	1	1	1	0	1	-9,795631	274,488879	312,075536	0
15.01.2021	16:48:04	0	1,189693	2,598475	1,8135	318,4632	0,58	82,852	0	1016,14	7,4	9,4	9,2	1	1	1	1	1	1	1	1	1	0	1	-11,698379	274,484312	310,151364	0
15.01.2021	16:48:05	0	1,427631	4,40611	1,92225	321,1848	0,584	82,868	0	1016,32	7,4	9,4	9,2	1	1	1	1	1	1	1	1	1	0	1	-16,913319	274,606486	305,509833	0
15.01.2021	16:48:06	0	1,546601	5,084003	2,10675	336,4092	0,577	82,866	0	1016,22	7,3	9,4	9,1	1	1	1	1	1	1	1	1	1	0	1	-6,553911	274,604954	315,862046	0
15.01.2021	16:48:07	0	1,665582	4,745041	2,13225	334,1772	0,576	82,862	0	1016,02	7,4	9,3	9,2	1	1	1	1	1	1	1	1	1	0	1	-10,218464	274,470615	311,567045	0
15.01.2021	16:48:08	0	1,308662	3,502313	2,08725	332,7624	0,575	82,855	0	1016,08	7,4	9,4	9,1	1	1	1	1	1	1	1	1	1	0	1	-9,302326	274,603422	313,106438	0
15.01.2021	16:48:09	0	1,427631	2,937407	2,0025	333,8568	0,584	82,855	0	1016,22	7,4	9,4	9,2	1	1	1	1	1	1	1	1	1	0	1	-7,188161	274,654036	315,458373	0
15.01.2021	16:48:10	0	1,546601	2,711452	1,974	340,866	0,58	82,864	0	1016,24	7,4	9,4	9,2	1	1	1	1	1	1	1	1	1	0	1	-7,540521	274,612615	314,911417	0
15.01.2021	16:48:11	0	1,427631	2,485498	1,98075	347,9148	0,58	82,852	0	1016,16	7,4	9,4	9,2	1	1	1	1	1	1	1	1	1	0	1	-7,258633	274,510209	314,712593	0
15.01.2021	16:48:12	0	1,546601	2,937424	1,917	351,0684	0,581	82,86	0	1016,2	7,3	9,4	9,1	1	1	1	1	1	1	1	1	1	0	1	-10,993658	274,611082	311,451083	0
15.01.2021	16:48:13	0	1,427631	3,615291	1,90125	342,378	0,584	82,865	0	1016,22	7,4	9,4	9,1	1	1	1	1	1	1	1	1	1	0	1	-2,60747	274,666327	320,096818	0
15.01.2021	16:48:14	0	1,308662	2,485498	1,85475	348,1056	0,584	82,856	0	1016,04	7,3	9,4	9,2	1	1	1	1	1	1	1	1	1	0	1	-9,302326	274,578929	312,991426	0
15.01.2021	16:48:15	0	1,546601	3,16338	1,8105	338,418	0,574	82,853	0	1016,1	7,4	9,4	9,1	1	1	1	1	1	1	1	1	1	0	1	-9,584214	274,479745	312,244111	0
15.01.2021	16:48:16	0	1,189693	2,259557	1,7685	344,7468	0,583	82,852	0	1016,14	7,4	9,4	9,1	1	1	1	1	1	1	1	1	1	0	1	-9,936575	274,592702	312,421849	0
15.01.2021	16:48:17	0	1,308662	4,40611	1,7145	355,9536	0,578	82,847	0	1016,1	7,4	9,4	9,2	1	1	1	1	1	1	1	1	1	0	1	-10,218464	274,654036	312,42807	0
15.01.2021	16:48:18	0	1,66557	3,841247	1,65375	343,9404	0,579	82,855	0	1016,08	7,4	9,4	9,1	1	1	1	1	1	1	1	1	1	0	1	-7,963354	274,631013	314,575008	0
15.01.2021	16:48:19	0	1,189693	2,937424	1,58175	347,5872	0,581	82,853	0	1016,1	7,4	9,4	9,1	1	1	1	1	1	1	1	1	1	0	1	-9,302326	274,511733	312,676052	0
15.01.2021	16:48:20	0	1,546601	3,728247	1,5165	344,6388	0,575	82,846	0	1016,04	7,4	9,4	9,2	1	1	1	1	1	1	1	1	1	0	1	-9,161381	274,61568	313,304954	0
15.01.2021	16:48:21	0	1,070724	2,937424	1,4985	349,956	0,585	82,864	0	1016,16	7,4	9,4	9,1	1	1	1	1	1	1	1	1	1	0	1	-10,993658	274,479745	310,834668	0
15.01.2021	16:48:22	0	1,427631	2,937424	1,422	352,8792	0,582	82,844	0	1016,12	7,4	9,4	9,1	1	1	1	1	1	1	1	1	1	0	1	-8,104299	274,523933	313,931321	0
15.01.2021	16:48:23	0	1,427631	4,406136	1,42125	333,5544	0,575	82,85	0	1016,14	7,4	9,4	9,1	1	1	1	1	1	1	1	1	1	0	1	-6,483439	274,660181	316,191966	0
15.01.2021	16:48:24	0	1,546601	4,180155	1,40775	335,9376	0,577	82,848	0	1015,92	7,4	9,4	9,2	1	1	1	1	1	1	1	1	1	0	1	-10,570825	274,499541	311,350355	0
15.01.2021	16:48:25	0	0,951754	2,711452	1,43625	340,5636	0,58	82,858	0	1016,2	7,4	9,4	9,2	1	1	1	1	1	1	1	1	1	0	1	-7,329105	274,543775	314,799627	0
15.01.2021	16:48:26	0	1,427631	4,519114	1,46175	349,002	0,578	82,833	0	1016,24	7,4	9,4	9,1	1	1	1	1	1	1	1	1	1	0	1	-10,147992	274,641754	312,440831	0
15.01.2021	16:48:27	0	1,427631	4,180181	1,4655	335,7396	0,579	82,851	0	1016,22	7,4	9,4	9,1	1	1	1	1	1	1	1	1	1	0	1	-9,020437	274,589641	313,323611	0
15.01.2021	16:48:28	0	1,546601	3,163361	1,5105	339,2028	0,582	82,855	0	1016,1	7,4	9,4	9,2	1	1	1	1	1	1	1	1	1	0	1	-11,980268	274,476701	309,833783	0
15.01.2021	16:48:29	0	1,66557	4,293133	1,50075	339,8256	0,583	82,862	0	1016,18	7,4	9,4	9,2	1	1	1	1	1	1	1	1	1	0	1	-4,721635	274,600359	317,672742	0
15.01.2021	16:48:30	0	1,189693	4,74507	1,55025	332,784	0,577	82,863	0	1016,08	7,4	9,4	9,1	1	1	1	1	1	1	1	1	1	0	1	-13,178295	274,47518	308,62862	0
15.01.2021	16:48:31	0	1,427631	4,74507	1,54875	334,2312	0,571	82,857	0	1016,2	7,4	9,4	9,1	1	1	1	1	1	1	1	1	1	0	1	-9,302326	274,523933	312,733294	0
15.01.2021	16:48:32	0	1,189693	3,728269	1,64025	340,938	0,579	82,857	0	1016,28	7,4	9,4	9,1	1	1	1	1	1	1	1	1	1	0	1	-8,597604	274,646359	314,012855	0
15.01.2021	16:48:33	0	1,66557	4,180181	1,6425	333,216	0,575	82,853	0	1016,08	7,4	9,4	9,1	1	1	1	1	1	1	1	1	1	0	1	-10,852713	274,543775	311,276018	0
15.01.2021	16:48:34	0	1,308662	4,406136	1,61775	336,3696	0,576	82,846	0	1016,12	7,4	9,4	9,1	1	1	1	1	1	1	1	1	1	0	1	-8,315715	274,487357	313,54831	0
15.01.2021	16:48:35	0	1,427631	2,259557	1,5705	325,1844	0,576	82,847	0	1016,14	7,4	9,4	9,1	1	1	1	1	1	1	1	1	1	0	1	-6,412967	274,517833	315,594027	0
15.01.2021	16:48:36	0	1,189693	3,502292	1,56375	334,9368	0,58	82,857	0	1016,22	7,4	9,4	9,2	1	1	1	1	1	1	1	1	1	0	1	-13,178295	274,64943	309,446592	0
15.01.2021	16:48:37	0	1,546601	5,422904	1,509	335,7432	0,577	82,85	0	1016,22	7,4	9,4	9,2	1	1	1	1	1	1	1	1	1	0	1	-9,44327	274,585049	312,879218	0
15.01.2021	16:48:38	0	1,66557	4,858019	1,58025	326,0736	0,582	82,869	0	1015,96	7,4	9,4	9,2	1	1	1	1	1	1	1	1	1	0	1	-8,386187	274,47518	313,420727	0
15.01.2021	16:48:39	0	1,66557	5,196981	1,64625	335,7216	0,573	82,851	0	1016,26	7,4	9,4	9,1	1	1	1	1	1	1	1	1	1	0	1	-13,883016	274,571281	308,374831	0
15.01.2021	16:48:40	0	1,427631	4,632092	1,64175	342,3348	0,576	82,858	0	1016,22	7,4	9,4	9,1	1	1	1	1	1	1	1	1	1	0	1	-7,047216	274,469094	314,731159	0
15.01.2021	16:48:41	0	1,189693	3,728269	1,5675	331,5456	0,575	82,861	0	1016,1	7,4	9,4	9,1	1	1	1	1	1	1	1	1	1	0	1	-7,117689	274,510209	314,853537	0
15.01.2021	16:48:42	0	1,189693	4,406136	1,50525	333,1728	0,569	82,862	0	1016,16	7,4	9,4	9,1	1	1	1	1	1	1	1	1	1	0	1	-12,191684	274,504112	309,75094	0
15.01.2021	16:48:43	0	1,427631	2,372535	1,55025	347,598	0,576	82,86	0	1016,26	7,4	9,4	9,1	1	1	1	1	1	1	1	1	1	0	1	-11,980268	274,61568	310,486067	0
15.01.2021	16:48:44	0	1,308662	4,067178	1,58175	350,2872	0,571	82,887	0	1016,22	7,4	9,4	9,2	1	1	1	1	1	1	1	1	1	0	1	-6,906272	274,647894	315,7114	0
15.01.2021	16:48:45	0	1,427631	2,711468	1,61475	342,1836	0,575	82,861	0	1016,1	7,4	9,4	9,1	1	1	1	1	1	1	1	1	1	0	1	-6,553911	274,514783	315,438773	0
15.01.2021	16:48:46	0	1,189693	4,519114	1,56375	330,5016	0,574	82,876	0	1015,96	7,4	9,4	9,1	1	1	1	1	1	1	1	1	1	0	1	-11,205074	274,654036	311,441459	0
15.01.2021	16:48:47	0	1,189693	4,632092	1,4235	330,1776	0,579	82,865	0	1016,14	7,4	9,4	9,1	1	1	1	1	1	1	1	1	1	0	1	-10,852713	274,620279	311,635223	0
15.01.2021	16:48:48	0	1,308662	4,519114	1,39275	330,8256	0,572	82,861	0	1016,08	7,4	9,4	9,1	1	1	1	1	1	1	1	1	1	0	1	-8,527132	274,479745	313,301194	0
15.01.2021	16:48:49	0	1,546601	4,632092	1,4385	326,0124	0,573	82,861	0	1016,14	7,4	9,4	9,1	1	1	1	1	1	1	1	1	1	0	1	-5,84919	274,531562	316,222229	0
15.01.2021	16:48:50	0	1,189693	4,067178	1,50225	338,3568	0,579	82,863	0	1016,22	7,4	9,4	9,2	1	1	1	1	1	1	1	1	1	0	1	-9,090909	274,47518	312,716005	0
15.01.2021	16:48:51	0	1,308662	2,711468	1,575	331,542	0,577	82,884	0	1016,16	7,4	9,4	9,1	1	1	1	1	1	1	1	1	1	0	1	-12,262156	274,545302	309,873742	0
15.01.2021	16:48:52	0	1,070724	2,598491	1,59825	328,9752	0,576	82,866	0	1016,24	7,4	9,4	9,1	1	1	1	1	1	1	1	1	1	0	1	-10,641297	274,64943	311,98359	0
15.01.2021	16:48:53	0	1,546601	4,519087	1,623	333,4716	0,575	82,86	0	1016,02	7,4	9,4	9,2	1	1	1	1	1	1	1	1	1	0	1	-9,090909	274,523933	312,944711	0
15.01.2021	16:48:54	0	0,951754	3,389315	1,65075	328,59	0,574	82,841	0	1016,04	7,4	9,4	9,2	1	1	1	1	1	1	1	1	1	0	1	-10,077519	274,473658	311,722259	0
15.01.2021	16:48:55	0	1,189693	2,937424	1,662	329,328	0,572	82,87	0	1016,08	7,4	9,4	9,1	1	1	1	1	1	1	1	1	1	0	1	-8,668076	274,501065	313,260251	0
15.01.2021	16:48:56	0	1,070724	2,711468	1,70925	331,128	0,568	82,87	0	1016,06	7,4	9,4	9,1	1	1	1	1	1	1	1	1	1	0	1	-11,486963	274,490402	310,391347	0
15.01.2021	16:48:57	0	1,308662	4,067203	1,746	335,7504	0,572	82,871	0	1016,08	7,4	9,4	9,1	1	1	1	1	1	1	1	1	1	0	1	-8,104299	274,606486	314,318853	0
15.01.2021	16:48:58	0	1,546601	4,858048	1,7505	330,7752	0,578	82,855	0	1016,18	7,4	9,4	9,1	1	1	1	1	1	1	1	1	1	0	1	-8,033827	274,525459	314,008952	0
15.01.2021	16:48:59	0	1,189693	4,406136	1,79025	331,506	0,576	82,848	0	1016,16	7,4	9,4	9,1	1	1	1	1	1	1	1	1	1	0	1	-10,147992	274,655572	312,505759	0
15.01.2021	16:49:00	0	1,070724	2,824446	1,84725	331,434	0,573	82,869	0	1016,2	7,4	9,4	9,1	1	1	1	1	1	1	1	1	1	0	1	-7,82241	274,534615	314,263332	0
15.01.2021	16:49:01	0	0,951754	2,937424	1,81725	334,1484	0,577	82,865	0	1016,16	7,4	9,4	9,1	1	1	1	1	1	1	1	1	1	0	1	-11,134602	274,469094	310,643773	0
15.01.2021	16:49:02	0	1,427631	4,293158	1,86075	321,8436	0,575	82,869	0	1016,22	7,4	9,4	9,1	1	1	1	1	1	1	1	1	1	0	1	-9,44327	274,552939	312,728475	0
15.01.2021	16:49:03	0	1,189693	3,389336	1,821	337,5648	0,574	82,854	0	1016,12	7,4	9,4	9,1	1	1	1	1	1	1	1	1	1	0	1	-6,906272	274,641754	315,682551	0
15.01.2021	16:49:04	0	1,546601	4,180181	1,674	334,2312	0,572	82,888	0	1016,16	7,4	9,4	9,1	1	1	1	1	1	1	1	1	1	0	1	-9,302326	274,58811	313,034535	0
15.01.2021	16:49:05	0	1,070724	3,276358	1,64175	321,2928	0,573	82,88	0	1016,02	7,4	9,4	9,1	1	1	1	1	1	1	1	1	1	0	1	-12,684989	274,479745	309,143336	0
15.01.2021	16:49:06	0	1,308662	2,485513	1,66725	326,0664	0,564	82,863	0	1016,08	7,4	9,4	9,1	1	1	1	1	1	1	1	1	1	0	1	-10,218464	274,488879	311,652703	0
15.01.2021	16:49:07	0	0,951754	2,711468	1,69875	327,4956	0,576	82,884	0	1016,1	7,4	9,4	9,1	1	1	1	1	1	1	1	1	1	0	1	-8,245243	274,488879	313,625924	0
15.01.2021	16:49:08	0	1,189693	3,16338	1,66275	332,1036	0,575	82,877	0	1016,2	7,4	9,4	9,1	1	1	1	1	1	1	1	1	1	0	1	-6,694856	274,50716	315,262068	0
15.01.2021	16:49:09	0	1,189693	4,180181	1,605	327,1968	0,574	82,881	0	1016,14	7,4	9,4	9,1	1	1	1	1	1	1	1	1	1	0	1	-10,359408	274,543775	311,769323	0
15.01.2021	16:49:10	0	1,427631	4,293158	1,56225	332,4888	0,577	82,88	0	1016,04	7,4	9,4	9,1	1	1	1	1	1	1	1	1	1	0	1	-11,346018	274,488879	310,525149	0
15.01.2021	16:49:11	0	1,427631	3,954225	1,50675	331,452	0,575	82,881	0	1016,22	7,4	9,4	9,1	1	1	1	1	1	1	1	1	1	0	1	-7,751938	274,581989	314,556181	0
15.01.2021	16:49:12	0	0,951754	2,372535	1,4505	337,194	0,567	82,882	0	1016,02	7,4	9,4	9,1	1	1	1	1	1	1	1	1	1	0	1	-13,03735	274,473658	308,762428	0
15.01.2021	16:49:13	0	1,070724	3,502313	1,38225	347,562	0,567	82,861	0	1016,06	7,4	9,4	9,1	1	1	1	1	1	1	1	1	1	0	1	-9,44327	274,589641	312,900778	0
15.01.2021	16:49:14	0	0,832785	2,485513	1,36575	336,7296	0,576	82,881	0	1016,1	7,4	9,4	9,1	1	1	1	1	1	1	1	1	1	0	1	-11,698379	274,466052	310,065731	0
15.01.2021	16:49:15	0	1,189693	2,824446	1,437	321,8292	0,576	82,882	0	1016,16	7,4	9,4	9,1	1	1	1	1	1	1	1	1	1	0	1	-6,553911	274,517833	315,453082	0
15.01.2021	16:49:16	0	1,546601	3,841247	1,47225	339,8976	0,568	82,88	0	1016,04	7,4	9,4	9,1	1	1	1	1	1	1	1	1	1	0	1	-11,698379	274,513258	310,287152	0
15.01.2021	16:49:17	0	1,070724	3,389336	1,4325	344,3436	0,574	82,881	0	1016,22	7,4	9,4	9,1	1	1	1	1	1	1	1	1	1	0	1	-6,272023	274,654036	316,374511	0
15.01.2021	16:49:18	0	1,308662	3,276358	1,4205	341,7048	0,572	82,881	0	1016,24	7,4	9,4	9,1	1	1	1	1	1	1	1	1	1	0	1	-10,711769	274,520883	311,309536	0
15.01.2021	16:49:19	0	1,189693	2,824446	1,40175	339,1128	0,575	82,885	0	1016,24	7,4	9,4	9,1	1	1	1	1	1	1	1	1	1	0	1	-11,980268	274,647894	310,637405	0
15.01.2021	16:49:20	0	1,427631	4,519114	1,347	336,402	0,573	82,887	0	1016,04	7,4	9,4	9,1	1	1	1	1	1	1	1	1	1	0	1	-9,725159	274,581989	312,58296	0
15.01.2021	16:49:21	0	1,070724	4,406136	1,28025	340,668	0,575	82,886	0	1015,94	7,4	9,4	9,1	1	1	1	1	1	1	1	1	1	0	1	-10,641297	274,64943	311,98359	0
15.01.2021	16:49:22	0	1,308662	5,084003	1,23075	322,6644	0,572	82,9	0	1016,18	7,4	9,4	9,1	1	1	1	1	1	1	1	1	1	0	1	-11,909796	274,490402	309,968514	0
15.01.2021	16:49:23	0	1,546601	4,519114	1,25325	316,278	0,572	82,876	0	1016,26	7,4	9,4	9,1	1	1	1	1	1	1	1	1	1	0	1	-13,460183	274,624879	309,04936	0
15.01.2021	16:49:24	0	0,832785	2,485513	1,26075	327,2256	0,57	82,879	0	1016,28	7,4	9,4	9,1	1	1	1	1	1	1	1	1	1	0	1	-7,540521	274,467573	314,230721	0
15.01.2021	16:49:25	0	1,546601	4,406136	1,293	328,9392	0,57	82,879	0	1016,04	7,4	9,4	9,1	1	1	1	1	1	1	1	1	1	0	1	-10,570825	274,591172	311,780411	0
15.01.2021	16:49:26	0	1,189693	3,502313	1,3245	321,8868	0,565	82,882	0	1015,98	7,4	9,4	9,1	1	1	1	1	1	1	1	1	1	0	1	-12,825934	274,455409	308,888268	0
15.01.2021	16:49:27	0	1,427631	4,067203	1,401	327,1392	0,568	82,894	0	1016,1	7,4	9,4	9,1	1	1	1	1	1	1	1	1	1	0	1	-11,06413	274,621812	311,431008	0
15.01.2021	16:49:28	0	1,308662	4,180181	1,39425	331,038	0,567	82,89	0	1016,2	7,4	9,4	9,1	1	1	1	1	1	1	1	1	1	0	1	-9,654686	274,517833	312,352307	0
15.01.2021	16:49:29	0	1,308662	4,519114	1,347	327,8124	0,574	82,905	0	1016,24	7,4	9,4	9,1	1	1	1	1	1	1	1	1	1	0	1	-11,557435	274,640219	311,024177	0
15.01.2021	16:49:30	0	1,308662	4,632092	1,31475	318,3984	0,57	82,878	0	1016,12	7,4	9,4	9,1	1	1	1	1	1	1	1	1	1	0	1	-10,147992	274,504112	311,794632	0
15.01.2021	16:49:31	0	1,308662	4,971026	1,36125	333,4716	0,566	82,887	0	1016,14	7,4	9,4	9,1	1	1	1	1	1	1	1	1	1	0	1	-9,44327	274,612615	313,008668	0
15.01.2021	16:49:32	0	1,070724	3,841247	1,3995	340,2468	0,57	82,871	0	1016,2	7,4	9,4	9,1	1	1	1	1	1	1	1	1	1	0	1	-7,681466	274,487357	314,182559	0
15.01.2021	16:49:33	0	0,951754	3,841247	1,4325	331,9272	0,572	82,893	0	1016,1	7,4	9,4	9,1	1	1	1	1	1	1	1	1	1	0	1	-9,090909	274,513258	312,894622	0
15.01.2021	16:49:34	0	0,951754	3,276358	1,47825	343,1232	0,565	82,889	0	1016,06	7,4	9,4	9,1	1	1	1	1	1	1	1	1	1	0	1	-6,765328	274,61568	315,701008	0
15.01.2021	16:49:35	0	1,427631	2,711468	1,55025	340,2504	0,573	82,909	0	1016,16	7,4	9,4	9,1	1	1	1	1	1	1	1	1	1	0	1	-9,725159	274,510209	312,246067	0
15.01.2021	16:49:36	0	1,189693	4,519114	1,5405	333,3852	0,566	82,869	0	1016,22	7,3	9,4	9,1	1	1	1	1	1	1	1	1	1	0	1	-11,134602	274,606486	311,28855	0
15.01.2021	16:49:37	0	1,427631	3,954225	1,56	324,4032	0,574	82,896	0	1016,16	7,4	9,4	9,1	1	1	1	1	1	1	1	1	1	0	1	-9,372798	274,624879	313,136746	0
15.01.2021	16:49:38	0	1,070724	3,502313	1,52325	322,938	0,573	82,901	0	1016,22	7,4	9,4	9,1	1	1	1	1	1	1	1	1	1	0	1	-8,245243	274,635616	314,314741	0
15.01.2021	16:49:39	0	1,189693	4,067203	1,4475	314,4744	0,569	82,901	0	1016,16	7,4	9,4	9,1	1	1	1	1	1	1	1	1	1	0	1	-10,007047	274,470615	311,778462	0
15.01.2021	16:49:40	0	1,308662	3,16338	1,40325	320,382	0,568	82,893	0	1016,14	7,4	9,4	9,1	1	1	1	1	1	1	1	1	1	0	1	-10,711769	274,525459	311,331009	0
15.01.2021	16:49:41	0	1,189693	3,615291	1,34775	315,2052	0,572	82,899	0	1016,1	7,4	9,4	9,1	1	1	1	1	1	1	1	1	1	0	1	-8,245243	274,502589	313,690232	0
15.01.2021	16:49:42	0	1,070724	4,180181	1,28025	313,9848	0,574	82,909	0	1016,18	7,4	9,4	9,1	1	1	1	1	1	1	1	1	1	0	1	-6,553911	274,627946	315,97004	0
15.01.2021	16:49:43	0	1,308662	4,293158	1,2915	315,1944	0,572	82,903	0	1016,12	7,4	9,4	9,1	1	1	1	1	1	1	1	1	1	0	1	-8,668076	274,626412	313,848671	0
15.01.2021	16:49:44	0	1,070724	3,841247	1,3275	327,1392	0,57	82,903	0	1016,16	7,3	9,4	9,1	1	1	1	1	1	1	1	1	1	0	1	-10,570825	274,583519	311,744478	0
15.01.2021	16:49:45	0	1,308662	3,16338	1,4235	324,7668	0,566	82,9	0	1016,22	7,4	9,4	9,1	1	1	1	1	1	1	1	1	1	0	1	-10,007047	274,479745	311,821279	0
15.01.2021	16:49:46	0	0,951754	2,485513	1,49625	314,1252	0,564	82,887	0	1016,16	7,4	9,4	9,1	1	1	1	1	1	1	1	1	1	0	1	-7,610994	274,611082	314,833747	0
15.01.2021	16:49:47	0	1,189693	3,502313	1,5645	323,3628	0,573	82,909	0	1016,1	7,4	9,4	9,1	1	1	1	1	1	1	1	1	1	0	1	-4,580691	274,640219	318,000921	0
15.01.2021	16:49:48	0	1,308662	3,728269	1,713	314,7912	0,572	82,905	0	1016,12	7,4	9,4	9,1	1	1	1	1	1	1	1	1	1	0	1	-12,473573	274,583519	309,84173	0
15.01.2021	16:49:49	0	1,070724	2,485513	1,77	331,9596	0,575	82,912	0	1016,14	7,4	9,4	9,1	1	1	1	1	1	1	1	1	1	0	1	-11,980268	274,644824	310,622978	0
15.01.2021	16:49:50	0	1,308662	2,711468	1,707	313,9848	0,586	82,898	0	1016,24	7,4	9,4	9,1	1	1	1	1	1	1	1	1	1	0	1	-12,332629	274,530036	309,731629	0
15.01.2021	16:49:51	0	1,070724	3,615291	1,704	309,6036	0,567	82,899	0	1016,06	7,4	9,4	9,1	1	1	1	1	1	1	1	1	1	0	1	-11,346018	274,455409	310,368184	0
15.01.2021	16:49:52	0	1,427631	3,615291	1,626	308,9664	0,569	82,914	0	1016,12	7,4	9,4	9,1	1	1	1	1	1	1	1	1	1	0	1	-10,993658	274,505636	310,956116	0
15.01.2021	16:49:53	0	1,308662	4,858048	1,59825	305,7192	0,571	82,919	0	1016,34	7,4	9,4	9,1	1	1	1	1	1	1	1	1	1	0	1	-8,315715	274,643289	314,280319	0
15.01.2021	16:49:54	0	1,427631	4,293158	1,4925	303,48	0,573	82,973	0	1016,12	7,4	9,4	9,1	1	1	1	1	1	1	1	1	1	0	1	-9,654686	274,502589	312,280789	0
15.01.2021	16:49:55	0	1,189693	4,971026	1,422	305,7624	0,573	82,913	0	1016,1	7,4	9,4	9,1	1	1	1	1	1	1	1	1	1	0	1	-10,007047	274,634082	312,545729	0
15.01.2021	16:49:56	0	0,951754	3,276358	1,3605	300,8052	0,57	82,901	0	1016,16	7,3	9,4	9,1	1	1	1	1	1	1	1	1	1	0	1	-9,654686	274,520883	312,366619	0
15.01.2021	16:49:57	0	0,951761	3,16338	1,30875	309,9744	0,567	82,924	0	1016,22	7,4	9,3	9,1	1	1	1	1	1	1	1	1	1	0	1	-8,033827	274,631013	314,504536	0
15.01.2021	16:49:58	0	1,070724	3,16338	1,2555	315,1548	0,571	82,918	0	1016,24	7,4	9,4	9,1	1	1	1	1	1	1	1	1	1	0	1	-12,191684	274,57434	310,080522	0
15.01.2021	16:49:59	0	1,308671	4,971026	1,236	323,4348	0,567	82,905	0	1016,06	7,4	9,3	9,1	1	1	1	1	1	1	1	1	1	0	1	-7,399577	274,644824	315,203669	0
15.01.2021	16:50:00	0	0,951754	4,74507	1,31025	314,0604	0,568	82,917	0	1016,08	7,4	9,4	9,1	1	1	1	1	1	1	1	1	1	0	1	-9,090909	274,520883	312,930396	0
15.01.2021	16:50:01	0	0,951754	4,74507	1,31025	314,0604	0,568	82,917	0	1016,08	7,4	9,4	9,1	1	1	1	1	1	1	1	1	1	0	1	-9,936575	274,634082	312,616201	0
15.01.2021	16:50:02	0	1,308662	4,632092	1,35375	330,0948	0,57	82,916	0	1016,12	7,4	9,4	9,1	1	1	1	1	1	1	1	1	1	0	1	-9,725159	274,534615	312,360584	0
15.01.2021	16:50:03	0	1,189693	4,971026	1,392	337,5468	0,567	82,916	0	1015,98	7,4	9,4	9,1	1	1	1	1	1	1	1	1	1	0	1	-10,288936	274,63715	312,278257	0
15.01.2021	16:50:04	0	1,54659	4,858048	1,44375	333,1584	0,568	82,901	0	1016	7,4	9,5	9,1	1	1	1	1	1	1	1	1	1	0	1	-9,513742	274,531562	312,557676	0
15.01.2021	16:50:05	0	1,070724	3,615291	1,43325	324,4356	0,571	82,911	0	1016,2	7,4	9,4	9,1	1	1	1	1	1	1	1	1	1	0	1	-9,866103	274,641754	312,72272	0
15.01.2021	16:50:06	0	1,427641	4,180181	1,40775	328,2228	0,566	82,912	0	1016,22	7,3	9,3	9,1	1	1	1	1	1	1	1	1	1	0	1	-13,530655	274,542248	308,59091	0
15.01.2021	16:50:07	0	1,189701	3,728269	1,35	339,1056	0,566	82,917	0	1016,22	7,4	9,3	9,1	1	1	1	1	1	1	1	1	1	0	1	-9,866103	274,640219	312,715509	0
15.01.2021	16:50:08	0	0,832785	2,937424	1,35825	328,1616	0,568	82,913	0	1016,06	7,4	9,4	9,1	1	1	1	1	1	1	1	1	1	0	1	-8,174771	274,470615	313,610738	0
15.01.2021	16:50:09	0	0,713816	2,259557	1,344	339,8436	0,565	82,913	0	1016,24	7,4	9,4	9,1	1	1	1	1	1	1	1	1	1	0	1	-9,795631	274,453888	311,911444	0
15.01.2021	16:50:10	0	1,308662	3,16338	1,34925	335,2032	0,574	82,913	0	1016,12	7,4	9,4	9,1	1	1	1	1	1	1	1	1	1	0	1	-7,610994	274,566694	314,625318	0
15.01.2021	16:50:11	0	1,308662	3,615291	1,31625	327,8268	0,568	82,929	0	1016,18	7,4	9,4	9,1	1	1	1	1	1	1	1	1	1	0	1	-12,896406	274,621812	309,598732	0
15.01.2021	16:50:12	0	1,308662	4,74507	1,27575	332,8416	0,567	82,923	0	1016,18	7,3	9,4	9,1	1	1	1	1	1	1	1	1	1	0	1	-8,245243	274,635616	314,314741	0
15.01.2021	16:50:13	0	0,951754	3,050402	1,24725	327,8412	0,567	82,928	0	1016,14	7,4	9,4	9,1	1	1	1	1	1	1	1	1	1	0	1	-7,610994	274,493448	314,281603	0
15.01.2021	16:50:14	0	1,070724	2,485513	1,18575	321,3108	0,57	82,92	0	1016,2	7,4	9,4	9,1	1	1	1	1	1	1	1	1	1	0	1	-9,584214	274,629479	312,946942	0
15.01.2021	16:50:15	0	1,189693	3,16338	1,1415	328,6044	0,564	82,917	0	1015,98	7,4	9,4	9,1	1	1	1	1	1	1	1	1	1	0	1	-9,090909	274,511733	312,887469	0
15.01.2021	16:50:16	0	0,832791	2,711468	1,1175	324,1548	0,565	82,938	0	1016,18	7,4	9,3	9,1	1	1	1	1	1	1	1	1	1	0	1	-5,637773	274,452369	316,062176	0
15.01.2021	16:50:17	0	1,546601	4,519114	1,04475	318,474	0,566	82,926	0	1016,06	7,4	9,4	9,1	1	1	1	1	1	1	1	1	1	0	1	-13,248767	274,594233	309,116846	0
15.01.2021	16:50:18	0	1,189701	4,293158	1,05	324,126	0,567	82,924	0	1016,22	7,4	9,3	9,1	1	1	1	1	1	1	1	1	1	0	1	-11,839323	274,487357	310,024702	0
15.01.2021	16:50:19	0	1,308662	4,519087	0,98325	328,6008	0,562	82,916	0	1015,92	7,4	9,4	9,2	1	1	1	1	1	1	1	1	1	0	1	-6,342495	274,517833	315,664499	0
15.01.2021	16:50:20	0	1,546601	3,615291	0,978	327,4524	0,566	82,905	0	1016,14	7,4	9,4	9,1	1	1	1	1	1	1	1	1	1	0	1	-11,980268	274,631013	310,558095	0
15.01.2021	16:50:21	0	1,308662	3,050402	0,93075	322,344	0,569	82,921	0	1015,98	7,4	9,4	9,1	1	1	1	1	1	1	1	1	1	0	1	-11,275546	274,493448	310,617051	0
15.01.2021	16:50:22	0	1,189693	4,293158	0,90525	316,3284	0,565	82,932	0	1016,2	7,4	9,4	9,1	1	1	1	1	1	1	1	1	1	0	1	-10,570825	274,635616	311,98916	0
15.01.2021	16:50:23	0	1,427631	5,084003	0,87075	313,2144	0,565	82,921	0	1016,24	7,3	9,4	9,1	1	1	1	1	1	1	1	1	1	0	1	-10,782241	274,519358	311,231908	0
15.01.2021	16:50:24	0	1,189693	3,389315	0,87675	315,936	0,566	82,926	0	1015,98	7,4	9,4	9,2	1	1	1	1	1	1	1	1	1	0	1	-7,258633	274,458449	314,469825	0
15.01.2021	16:50:25	0	1,070731	2,598491	0,90225	304,6284	0,563	82,925	0	1016,14	7,4	9,3	9,1	1	1	1	1	1	1	1	1	1	0	1	-10,077519	274,539194	312,029715	0
15.01.2021	16:50:26	0	0,832791	2,824446	0,96375	305,4168	0,559	82,927	0	1016,14	7,4	9,3	9,1	1	1	1	1	1	1	1	1	1	0	1	-9,654686	274,453888	312,052389	0
15.01.2021	16:50:27	0	0,951754	3,16338	1,07625	311,7672	0,567	82,928	0	1016,26	7,3	9,4	9,1	1	1	1	1	1	1	1	1	1	0	1	-11,768851	274,537668	310,331218	0
15.01.2021	16:50:28	0	1,189701	4,632064	1,1055	317,0916	0,564	82,932	0	1016,12	7,4	9,3	9,2	1	1	1	1	1	1	1	1	1	0	1	-10,852713	274,449329	310,832985	0
15.01.2021	16:50:29	0	1,189693	4,519114	1,14075	329,6124	0,563	82,923	0	1016,1	7,4	9,4	9,1	1	1	1	1	1	1	1	1	1	0	1	-9,302326	274,57587	312,977062	0
15.01.2021	16:50:30	0	1,308662	5,196981	1,134	323,7372	0,559	82,937	0	1016,14	7,4	9,4	9,1	1	1	1	1	1	1	1	1	1	0	1	-9,936575	274,443252	311,72063	0
15.01.2021	16:50:31	0	0,951754	2,485513	1,0965	308,7972	0,568	82,94	0	1016,22	7,4	9,4	9,1	1	1	1	1	1	1	1	1	1	0	1	-2,255109	274,519358	319,75904	0
15.01.2021	16:50:32	0	0,832785	4,519114	1,0545	310,0212	0,564	82,934	0	1016,18	7,4	9,4	9,1	1	1	1	1	1	1	1	1	1	0	1	-7,540521	274,620279	314,947415	0
15.01.2021	16:50:33	0	1,189693	4,293158	1,10025	317,7972	0,564	82,925	0	1016,18	7,4	9,4	9,1	1	1	1	1	1	1	1	1	1	0	1	-7,540521	274,522408	314,487941	0
15.01.2021	16:50:34	0	1,189693	4,971026	1,11075	307,2168	0,565	82,933	0	1016,18	7,4	9,4	9,1	1	1	1	1	1	1	1	1	1	0	1	-11,627907	274,631013	310,910455	0
15.01.2021	16:50:35	0	1,070731	4,180181	1,1745	298,7208	0,565	82,936	0	1016,28	7,4	9,3	9,1	1	1	1	1	1	1	1	1	1	0	1	-7,751938	274,50716	314,204985	0
15.01.2021	16:50:36	0	1,308662	2,711468	1,23375	306,1512	0,56	82,938	0	1016,22	7,4	9,4	9,1	1	1	1	1	1	1	1	1	1	0	1	-8,174771	274,598827	314,212414	0
15.01.2021	16:50:37	0	0,832785	2,485513	1,37325	316,6488	0,561	82,93	0	1016,12	7,4	9,4	9,1	1	1	1	1	1	1	1	1	1	0	1	-7,892882	274,50716	314,064041	0
15.01.2021	16:50:38	0	1,189693	3,61527	1,40775	322,3044	0,567	82,937	0	1016,32	7,4	9,4	9,2	1	1	1	1	1	1	1	1	1	0	1	-9,44327	274,632547	313,102299	0
15.01.2021	16:50:39	0	1,070724	4,180181	1,392	314,5104	0,565	82,942	0	1016,2	7,3	9,4	9,1	1	1	1	1	1	1	1	1	1	0	1	-10,993658	274,583519	311,321645	0
15.01.2021	16:50:40	0	1,189701	3,841247	1,42275	297,9612	0,568	82,925	0	1016,12	7,3	9,3	9,1	1	1	1	1	1	1	1	1	1	0	1	-8,80902	274,61568	313,657315	0
15.01.2021	16:50:41	0	1,070731	3,389336	1,54725	315,612	0,565	82,938	0	1016,14	7,4	9,3	9,1	1	1	1	1	1	1	1	1	1	0	1	-8,527132	274,611082	313,917609	0
15.01.2021	16:50:42	0	1,427631	5,309959	1,6395	309,8844	0,559	82,928	0	1016,1	7,4	9,4	9,1	1	1	1	1	1	1	1	1	1	0	1	-5,496829	274,526985	316,553108	0
15.01.2021	16:50:43	0	0,951748	2,937407	1,668	305,4528	0,566	82,937	0	1016,1	7,4	9,5	9,2	1	1	1	1	1	1	1	1	1	0	1	-11,346018	274,624879	311,163525	0
15.01.2021	16:50:44	0	1,189693	2,372521	1,692	314,1	0,567	82,946	0	1016,16	7,3	9,4	9,2	1	1	1	1	1	1	1	1	1	0	1	-11,06413	274,562108	311,150654	0
15.01.2021	16:50:45	0	1,308671	4,858048	1,7715	311,0328	0,564	82,935	0	1016,04	7,3	9,3	9,1	1	1	1	1	1	1	1	1	1	0	1	-9,866103	274,453888	311,840972	0
15.01.2021	16:50:46	0	1,427631	4,519114	1,78125	310,788	0,563	82,935	0	1016,12	7,4	9,4	9,1	1	1	1	1	1	1	1	1	1	0	1	-10,147992	274,520883	311,873314	0
15.01.2021	16:50:47	0	1,070724	4,067203	1,773	323,7372	0,569	82,933	0	1016,06	7,3	9,4	9,1	1	1	1	1	1	1	1	1	1	0	1	-10,711769	274,606486	311,711383	0
15.01.2021	16:50:48	0	1,070716	3,050384	1,773	337,2192	0,566	82,937	0	1016,1	7,4	9,5	9,2	1	1	1	1	1	1	1	1	1	0	1	-8,527132	274,531562	313,544287	0
15.01.2021	16:50:49	0	1,070716	4,74507	1,68375	328,9788	0,569	82,934	0	1016,3	7,3	9,5	9,1	1	1	1	1	1	1	1	1	1	0	1	-9,936575	274,627946	312,587376	0
15.01.2021	16:50:50	0	1,427631	3,841224	1,63125	316,7172	0,569	82,941	0	1016,2	7,4	9,4	9,2	1	1	1	1	1	1	1	1	1	0	1	-7,892882	274,504112	314,049742	0
15.01.2021	16:50:51	0	0,594842	2,711452	1,50375	7,8732	0,561	82,928	0	1016,2	7,3	9,5	9,2	1	1	1	1	1	1	1	1	1	0	1	-11,557435	274,450849	310,135388	0
15.01.2021	16:50:52	0	1,308662	4,180181	1,32825	16,0848	0,564	82,947	0	1016,34	7,4	9,4	9,1	1	1	1	1	1	1	1	1	1	0	1	-7,047216	274,611082	315,397524	0
15.01.2021	16:50:53	0	1,546601	4,745041	1,1655	350,9496	0,563	82,944	0	1016,14	7,3	9,4	9,2	1	1	1	1	1	1	1	1	1	0	1	-8,033827	274,493448	313,85877	0
15.01.2021	16:50:54	0	1,070724	2,711468	1,0695	355,446	0,561	82,931	0	1016,16	7,4	9,4	9,1	1	1	1	1	1	1	1	1	1	0	1	-8,949965	274,458449	312,778493	0
15.01.2021	16:50:55	0	0,951754	3,502313	1,00875	351,7524	0,565	82,946	0	1016	7,4	9,4	9,1	1	1	1	1	1	1	1	1	1	0	1	-9,725159	274,617213	312,748376	0
15.01.2021	16:50:56	0	1,189685	2,937424	1,041	345,3984	0,561	82,938	0	1016,12	7,4	9,5	9,1	1	1	1	1	1	1	1	1	1	0	1	-6,694856	274,502589	315,24062	0
15.01.2021	16:50:57	0	1,189685	4,632064	1,10775	334,584	0,563	82,936	0	1016,2	7,3	9,5	9,2	1	1	1	1	1	1	1	1	1	0	1	-7,470049	274,608018	314,960298	0
15.01.2021	16:50:58	0	1,308662	4,406136	1,188	334,0368	0,564	82,942	0	1016	7,3	9,4	9,1	1	1	1	1	1	1	1	1	1	0	1	-5,496829	274,600359	316,897548	0
15.01.2021	16:50:59	0	0,832791	2,372521	1,34025	327,8448	0,563	82,923	0	1016,26	7,3	9,3	9,2	1	1	1	1	1	1	1	1	1	0	1	-8,245243	274,46301	313,504604	0
15.01.2021	16:51:00	0	1,189701	4,858019	1,4865	339,1668	0,565	82,938	0	1016,2	7,3	9,3	9,2	1	1	1	1	1	1	1	1	1	0	1	-9,020437	274,452369	312,679512	0
15.01.2021	16:51:01	0	1,189701	4,858019	1,4865	339,1668	0,565	82,938	0	1016,2	7,3	9,3	9,2	1	1	1	1	1	1	1	1	1	0	1	-9,020437	274,452369	312,679512	0
15.01.2021	16:51:02	0	1,308662	2,824446	1,5255	335,2752	0,564	82,956	0	1016,12	7,3	9,4	9,1	1	1	1	1	1	1	1	1	1	0	1	-10,218464	274,484312	311,63128	0
15.01.2021	16:51:03	0	1,189693	4,293158	1,53525	335,6244	0,555	82,933	0	1016,08	7,3	9,4	9,1	1	1	1	1	1	1	1	1	1	0	1	-8,245243	274,458449	313,483215	0
15.01.2021	16:51:04	0	1,070724	4,40611	1,494	336,3156	0,565	82,936	0	1016,1	7,4	9,4	9,2	1	1	1	1	1	1	1	1	1	0	1	-7,963354	274,591172	314,387881	0
15.01.2021	16:51:05	0	0,832785	2,937424	1,41675	349,8264	0,56	82,945	0	1016,2	7,4	9,4	9,1	1	1	1	1	1	1	1	1	1	0	1	-10,923185	274,572811	311,341841	0
15.01.2021	16:51:06	0	1,308662	4,406136	1,275	340,5456	0,567	82,949	0	1016,2	7,3	9,4	9,1	1	1	1	1	1	1	1	1	1	0	1	-6,765328	274,443252	314,891878	0
15.01.2021	16:51:07	0	1,070716	4,519114	1,17525	330,0696	0,562	82,948	0	1016,2	7,3	9,5	9,1	1	1	1	1	1	1	1	1	1	0	1	-11,557435	274,543775	310,571297	0
15.01.2021	16:51:08	0	0,951761	3,954201	1,0935	328,1616	0,568	82,961	0	1016,1	7,3	9,3	9,2	1	1	1	1	1	1	1	1	1	0	1	-9,513742	274,431103	312,08651	0
15.01.2021	16:51:09	0	1,189693	3,163361	1,038	328,5828	0,564	82,947	0	1016	7,3	9,4	9,2	1	1	1	1	1	1	1	1	1	0	1	-13,319239	274,502589	308,616236	0
15.01.2021	16:51:10	0	0,951754	3,050384	1,00125	332,0352	0,559	82,955	0	1016,18	7,4	9,4	9,2	1	1	1	1	1	1	1	1	1	0	1	-9,795631	274,624879	312,713913	0
15.01.2021	16:51:11	0	1,189685	4,519087	0,981	338,7888	0,566	82,946	0	1016,18	7,3	9,5	9,2	1	1	1	1	1	1	1	1	1	0	1	-9,231853	274,551412	312,932721	0
15.01.2021	16:51:12	0	0,832785	3,050402	0,963	317,79	0,561	82,952	0	1016,14	7,3	9,4	9,1	1	1	1	1	1	1	1	1	1	0	1	-10,288936	274,60955	312,148608	0
15.01.2021	16:51:13	0	1,308671	5,084003	1,065	308,8836	0,566	82,951	0	1016,08	7,3	9,3	9,1	1	1	1	1	1	1	1	1	1	0	1	-9,161381	274,530036	312,902876	0
15.01.2021	16:51:14	0	1,189693	3,954225	1,15875	312,4152	0,56	82,96	0	1016,22	7,4	9,4	9,1	1	1	1	1	1	1	1	1	1	0	1	-8,738548	274,443252	312,918657	0
15.01.2021	16:51:15	0	0,951761	3,276338	1,31475	310,2948	0,559	82,943	0	1016,18	7,3	9,3	9,2	1	1	1	1	1	1	1	1	1	0	1	-9,725159	274,478223	312,096029	0
15.01.2021	16:51:16	0	0,951754	4,40611	1,56075	317,7396	0,564	82,954	0	1016,12	7,3	9,4	9,2	1	1	1	1	1	1	1	1	1	0	1	-4,792107	274,44781	316,886467	0
15.01.2021	16:51:17	0	0,832785	3,050402	1,8195	328,3092	0,561	82,962	0	1016,16	7,3	9,4	9,1	1	1	1	1	1	1	1	1	1	0	1	-9,090909	274,476701	312,723142	0
15.01.2021	16:51:18	0	0,713811	3,16338	1,989	321,8472	0,561	82,958	0	1016,18	7,3	9,5	9,1	1	1	1	1	1	1	1	1	1	0	1	-11,205074	274,581989	311,103045	0
15.01.2021	16:51:19	0	1,189693	3,61527	2,1195	324,0684	0,566	82,96	0	1016,18	7,3	9,4	9,2	1	1	1	1	1	1	1	1	1	0	1	-7,117689	274,629479	315,413468	0
15.01.2021	16:51:20	0	1,189685	2,598475	2,17425	329,6988	0,555	82,939	0	1016,12	7,3	9,5	9,2	1	1	1	1	1	1	1	1	1	0	1	-7,188161	274,543775	314,940571	0
15.01.2021	16:51:21	0	1,189693	5,309927	2,091	319,2336	0,56	82,949	0	1016,16	7,3	9,4	9,2	1	1	1	1	1	1	1	1	1	0	1	-7,188161	274,452369	314,511788	0
15.01.2021	16:51:22	0	1,427621	3,841224	2,07675	331,4088	0,556	82,945	0	1016,08	7,3	9,5	9,2	1	1	1	1	1	1	1	1	1	0	1	-9,302326	274,542248	312,819239	0
15.01.2021	16:51:23	0	0,832785	2,598491	2,07	329,346	0,558	82,955	0	1016,04	7,3	9,4	9,1	1	1	1	1	1	1	1	1	1	0	1	-6,20155	274,640219	316,380062	0
15.01.2021	16:51:24	0	0,951761	4,970996	2,0475	332,406	0,561	82,949	0	1016,16	7,3	9,3	9,2	1	1	1	1	1	1	1	1	1	0	1	-10,077519	274,58811	312,259341	0
15.01.2021	16:51:25	0	1,070731	2,485513	1,97925	342,3636	0,558	82,948	0	1016,08	7,3	9,3	9,1	1	1	1	1	1	1	1	1	1	0	1	-6,765328	274,443252	314,891878	0
15.01.2021	16:51:26	0	1,189701	3,841247	1,866	344,8008	0,563	82,963	0	1016,14	7,3	9,3	9,1	1	1	1	1	1	1	1	1	1	0	1	-8,80902	274,469094	312,969355	0
15.01.2021	16:51:27	0	1,189693	2,598475	1,8045	339,8472	0,56	82,957	0	1016,22	7,3	9,4	9,2	1	1	1	1	1	1	1	1	1	0	1	-8,738548	274,60955	313,698995	0
15.01.2021	16:51:28	0	0,951761	4,40611	1,686	328,9248	0,563	82,962	0	1016,22	7,3	9,3	9,2	1	1	1	1	1	1	1	1	1	0	1	-6,976744	274,568223	315,266746	0
15.01.2021	16:51:29	0	1,308662	3,61527	1,686	321,8328	0,559	82,942	0	1016,1	7,3	9,4	9,2	1	1	1	1	1	1	1	1	1	0	1	-8,879493	274,566694	313,35682	0
15.01.2021	16:51:30	0	0,951761	4,858019	1,60575	331,5564	0,563	82,947	0	1016,08	7,3	9,3	9,2	1	1	1	1	1	1	1	1	1	0	1	-9,725159	274,470615	312,06035	0
15.01.2021	16:51:31	0	0,713816	3,954201	1,4925	335,682	0,564	82,957	0	1016,18	7,3	9,4	9,2	1	1	1	1	1	1	1	1	1	0	1	-7,329105	274,441733	314,320979	0
15.01.2021	16:51:32	0	1,070731	4,40611	1,41825	310,9464	0,561	82,959	0	1016,14	7,3	9,3	9,2	1	1	1	1	1	1	1	1	1	0	1	-7,82241	274,603422	314,586353	0
15.01.2021	16:51:33	0	1,070724	2,937407	1,36425	319,4928	0,56	82,947	0	1016,26	7,3	9,4	9,2	1	1	1	1	1	1	1	1	1	0	1	-6,906272	274,481267	314,929192	0
15.01.2021	16:51:34	0	1,189693	4,067178	1,344	333,5544	0,558	82,94	0	1016,16	7,3	9,4	9,2	1	1	1	1	1	1	1	1	1	0	1	-8,45666	274,623345	314,045681	0
15.01.2021	16:51:35	0	1,189693	4,519087	1,28025	329,3316	0,561	82,955	0	1016,14	7,3	9,4	9,2	1	1	1	1	1	1	1	1	1	0	1	-11,275546	274,551412	310,889028	0
15.01.2021	16:51:36	0	0,832785	2,824429	1,24725	333,3132	0,558	82,957	0	1016,2	7,3	9,4	9,2	1	1	1	1	1	1	1	1	1	0	1	-10,782241	274,614147	311,676895	0
15.01.2021	16:51:37	0	0,832785	4,293158	1,2405	336,8196	0,554	82,937	0	1016,08	7,3	9,4	9,1	1	1	1	1	1	1	1	1	1	0	1	-13,107822	274,508685	308,856252	0
15.01.2021	16:51:38	0	0,832785	4,40611	1,1745	336,4344	0,561	82,957	0	1016,24	7,3	9,4	9,2	1	1	1	1	1	1	1	1	1	0	1	-12,825934	274,627946	309,698018	0
15.01.2021	16:51:39	0	1,189693	4,40611	1,134	334,9548	0,56	82,955	0	1016,18	7,3	9,4	9,2	1	1	1	1	1	1	1	1	1	0	1	-11,205074	274,543775	310,923658	0
15.01.2021	16:51:40	0	1,189693	3,954201	1,18725	326,3652	0,559	82,94	0	1016,22	7,3	9,4	9,2	1	1	1	1	1	1	1	1	1	0	1	-8,949965	274,431103	312,650287	0
15.01.2021	16:51:41	0	1,308662	4,40611	1,2525	328,518	0,555	82,925	0	1016,1	7,3	9,4	9,2	1	1	1	1	1	1	1	1	1	0	1	-7,540521	274,591172	314,810714	0
15.01.2021	16:51:42	0	0,713821	2,824429	1,38225	313,6212	0,555	82,938	0	1016,02	7,3	9,3	9,2	1	1	1	1	1	1	1	1	1	0	1	-13,03735	274,614147	309,421786	0
15.01.2021	16:51:43	0	0,951761	4,858019	1,55175	331,2324	0,556	82,945	0	1016,14	7,3	9,3	9,2	1	1	1	1	1	1	1	1	1	0	1	-11,557435	274,583519	310,757868	0
15.01.2021	16:51:44	0	1,427641	3,389315	1,66425	326,7468	0,553	82,935	0	1016,04	7,3	9,3	9,2	1	1	1	1	1	1	1	1	1	0	1	-8,738548	274,548357	313,411687	0
15.01.2021	16:51:45	0	0,832779	4,632064	1,725	336,2688	0,553	82,942	0	1016,2	7,4	9,5	9,2	1	1	1	1	1	1	1	1	1	0	1	-3,382664	274,441733	318,26742	0
15.01.2021	16:51:46	0	0,951754	2,711452	1,659	333,846	0,548	82,94	0	1015,94	7,3	9,4	9,2	1	1	1	1	1	1	1	1	1	0	1	-8,668076	274,470615	313,117433	0
15.01.2021	16:51:47	0	1,070724	4,067178	1,605	335,718	0,562	82,94	0	1016,16	7,3	9,4	9,2	1	1	1	1	1	1	1	1	1	0	1	-7,188161	274,629479	315,342996	0
15.01.2021	16:51:48	0	1,189693	4,40611	1,55775	345,096	0,555	82,926	0	1015,9	7,3	9,4	9,2	1	1	1	1	1	1	1	1	1	0	1	-7,258633	274,514783	314,734051	0
15.01.2021	16:51:49	0	1,070724	2,937407	1,46925	331,1208	0,557	82,931	0	1016,06	7,3	9,4	9,2	1	1	1	1	1	1	1	1	1	0	1	-11,346018	274,617213	311,127517	0
15.01.2021	16:51:50	0	0,832791	2,485498	1,43175	335,5884	0,554	82,939	0	1016,16	7,3	9,3	9,2	1	1	1	1	1	1	1	1	1	0	1	-13,107822	274,578929	309,185929	0
15.01.2021	16:51:51	0	0,832785	2,937407	1,4205	339,7788	0,56	82,933	0	1016,16	7,3	9,4	9,2	1	1	1	1	1	1	1	1	1	0	1	-10,500352	274,577399	311,786217	0
15.01.2021	16:51:52	0	0,713821	4,40611	1,39575	333,8316	0,558	82,987	0	1016,2	7,3	9,3	9,2	1	1	1	1	1	1	1	1	1	0	1	-10,42988	274,604954	311,986077	0
15.01.2021	16:51:53	0	0,832785	2,485498	1,3035	317,7576	0,558	82,945	0	1016,1	7,3	9,4	9,2	1	1	1	1	1	1	1	1	1	0	1	-11,06413	274,502589	310,871345	0
15.01.2021	16:51:54	0	0,475877	2,259544	1,19625	321,1524	0,559	82,934	0	1016,22	7,3	9,4	9,2	1	1	1	1	1	1	1	1	1	0	1	-8,386187	274,444771	313,27814	0
15.01.2021	16:51:55	0	0,713816	2,824429	1,0815	318,1536	0,559	82,941	0	1016,1	7,3	9,4	9,2	1	1	1	1	1	1	1	1	1	0	1	-8,527132	274,482789	313,315472	0
15.01.2021	16:51:56	0	1,189693	4,745041	1,0365	315,5688	0,554	82,929	0	1016,14	7,3	9,4	9,2	1	1	1	1	1	1	1	1	1	0	1	-8,738548	274,614147	313,720588	0
15.01.2021	16:51:57	0	0,832779	2,824429	1,0035	321,4872	0,551	82,941	0	1016,12	7,3	9,5	9,2	1	1	1	1	1	1	1	1	1	0	1	-10,500352	274,488879	311,370815	0
15.01.2021	16:51:58	0	0,594851	2,259544	0,9645	328,878	0,554	82,939	0	1016,22	7,3	9,3	9,2	1	1	1	1	1	1	1	1	1	0	1	-9,090909	274,44781	312,587665	0
15.01.2021	16:51:59	0	1,070731	4,632064	0,95325	334,9368	0,555	82,93	0	1016,04	7,3	9,3	9,2	1	1	1	1	1	1	1	1	1	0	1	-7,258633	274,476701	314,555418	0
15.01.2021	16:52:00	0	1,189693	3,841224	1,02	319,1508	0,552	82,925	0	1016,12	7,4	9,4	9,2	1	1	1	1	1	1	1	1	1	0	1	-8,738548	274,606486	313,684604	0
15.01.2021	16:52:01	0	1,189693	3,841224	1,02	319,1508	0,552	82,925	0	1016,12	7,4	9,4	9,2	1	1	1	1	1	1	1	1	1	0	1	-9,44327	274,498018	312,470763	0
15.01.2021	16:52:02	0	0,832779	3,954201	1,0425	327,816	0,556	82,916	0	1016,18	7,3	9,5	9,2	1	1	1	1	1	1	1	1	1	0	1	-10,782241	274,614147	311,676895	0
15.01.2021	16:52:03	0	1,189693	4,632064	1,00725	334,134	0,558	82,922	0	1015,98	7,3	9,4	9,2	1	1	1	1	1	1	1	1	1	0	1	-12,755462	274,505636	309,194312	0
15.01.2021	16:52:04	0	0,832791	3,163361	0,97575	334,3572	0,556	82,931	0	1016	7,3	9,3	9,2	1	1	1	1	1	1	1	1	1	0	1	-5,496829	274,455409	316,217373	0
15.01.2021	16:52:05	0	0,951761	4,745041	0,9555	331,452	0,556	82,925	0	1016,24	7,3	9,3	9,2	1	1	1	1	1	1	1	1	1	0	1	-4,721635	274,591172	317,6296	0
15.01.2021	16:52:06	0	0,951754	3,050384	0,94725	327,1464	0,557	82,932	0	1016,18	7,3	9,4	9,2	1	1	1	1	1	1	1	1	1	0	1	-10,711769	274,464531	311,045209	0
15.01.2021	16:52:07	0	1,427631	5,083973	0,942	328,5468	0,547	82,923	0	1016,1	7,3	9,4	9,2	1	1	1	1	1	1	1	1	1	0	1	-7,117689	274,56058	315,08992	0
15.01.2021	16:52:08	0	1,189693	3,841224	0,93675	333,1008	0,553	82,928	0	1016,16	7,3	9,4	9,2	1	1	1	1	1	1	1	1	1	0	1	-9,161381	274,438695	312,474462	0
15.01.2021	16:52:09	0	1,070724	4,632064	0,91875	341,3088	0,554	82,938	0	1016,14	7,3	9,4	9,2	1	1	1	1	1	1	1	1	1	0	1	-10,782241	274,50716	311,174682	0
15.01.2021	16:52:10	0	1,189693	4,519087	0,9645	330,3432	0,551	82,924	0	1016,04	7,3	9,4	9,2	1	1	1	1	1	1	1	1	1	0	1	-8,104299	274,577399	314,182271	0
15.01.2021	16:52:11	0	0,832785	3,728247	1,104	314,4132	0,55	82,932	0	1016,1	7,3	9,4	9,2	1	1	1	1	1	1	1	1	1	0	1	-5,708245	274,598827	316,67894	0
15.01.2021	16:52:12	0	0,951754	3,728247	1,22025	315,9144	0,555	82,93	0	1016,26	7,3	9,4	9,2	1	1	1	1	1	1	1	1	1	0	1	-6,20155	274,432621	315,405819	0
15.01.2021	16:52:13	0	0,951754	2,598475	1,40325	333,8136	0,553	82,93	0	1015,96	7,3	9,4	9,2	1	1	1	1	1	1	1	1	1	0	1	-9,725159	274,533089	312,353422	0
15.01.2021	16:52:14	0	0,832785	2,598475	1,56075	333,7164	0,556	82,928	0	1015,96	7,3	9,4	9,2	1	1	1	1	1	1	1	1	1	0	1	-5,637773	274,598827	316,749412	0
15.01.2021	16:52:15	0	1,070724	3,954201	1,569	321,12	0,552	82,934	0	1016,24	7,3	9,4	9,2	1	1	1	1	1	1	1	1	1	0	1	-11,980268	274,562108	310,234516	0
15.01.2021	16:52:16	0	0,832785	4,519087	1,55175	318,1356	0,545	82,926	0	1016,08	7,3	9,4	9,2	1	1	1	1	1	1	1	1	1	0	1	-6,765328	274,594233	315,600286	0
15.01.2021	16:52:17	0	0,951754	4,067178	1,6275	332,7336	0,558	82,937	0	1016,02	7,3	9,4	9,2	1	1	1	1	1	1	1	1	1	0	1	-8,80902	274,578929	313,484731	0
15.01.2021	16:52:18	0	1,070724	3,389315	1,63425	343,9116	0,553	82,924	0	1016,18	7,3	9,4	9,2	1	1	1	1	1	1	1	1	1	0	1	-10,711769	274,611082	311,732972	0
15.01.2021	16:52:19	0	1,189693	4,293133	1,58925	327,7152	0,549	82,938	0	1016,1	7,3	9,4	9,2	1	1	1	1	1	1	1	1	1	0	1	-10,359408	274,580459	311,941527	0
15.01.2021	16:52:20	0	0,832791	2,937407	1,59975	331,5492	0,546	82,927	0	1016,14	7,3	9,3	9,2	1	1	1	1	1	1	1	1	1	0	1	-8,949965	274,47518	312,856949	0
15.01.2021	16:52:21	0	1,308662	4,74507	1,53825	342,0288	0,554	82,943	0	1016	7,3	9,4	9,1	1	1	1	1	1	1	1	1	1	0	1	-10,641297	274,58658	311,688377	0
15.01.2021	16:52:22	0	1,070724	2,824429	1,422	338,04	0,555	82,936	0	1016,18	7,3	9,4	9,2	1	1	1	1	1	1	1	1	1	0	1	-7,82241	274,600359	314,571967	0
15.01.2021	16:52:23	0	0,951754	3,050402	1,31925	325,0656	0,557	82,928	0	1016,18	7,3	9,4	9,1	1	1	1	1	1	1	1	1	1	0	1	-12,332629	274,592702	310,025795	0
15.01.2021	16:52:24	0	0,951754	2,824429	1,2615	341,6832	0,554	82,946	0	1016,16	7,3	9,4	9,2	1	1	1	1	1	1	1	1	1	0	1	-7,470049	274,557523	314,723212	0
15.01.2021	16:52:25	0	0,713816	4,858019	1,19625	338,76	0,55	82,949	0	1016,2	7,3	9,4	9,2	1	1	1	1	1	1	1	1	1	0	1	-9,866103	274,56058	312,341506	0
15.01.2021	16:52:26	0	0,475877	3,050384	1,16175	322,9308	0,549	82,938	0	1016,12	7,3	9,4	9,2	1	1	1	1	1	1	1	1	1	0	1	-11,06413	274,449329	310,621569	0
15.01.2021	16:52:27	0	1,427631	4,858019	1,1355	333,216	0,55	82,925	0	1016,08	7,3	9,4	9,2	1	1	1	1	1	1	1	1	1	0	1	-6,765328	274,431103	314,834925	0
15.01.2021	16:52:28	0	0,951754	2,937407	1,0635	340,5708	0,549	82,972	0	1016,08	7,3	9,4	9,2	1	1	1	1	1	1	1	1	1	0	1	-7,892882	274,485834	313,964002	0
15.01.2021	16:52:29	0	1,070724	4,067178	1,044	324,3276	0,549	82,934	0	1015,98	7,3	9,4	9,2	1	1	1	1	1	1	1	1	1	0	1	-11,909796	274,431103	309,690457	0
15.01.2021	16:52:30	0	1,070731	2,485498	1,041	326,0124	0,552	82,942	0	1016,18	7,3	9,3	9,2	1	1	1	1	1	1	1	1	1	0	1	-12,332629	274,591172	310,018607	0
15.01.2021	16:52:31	0	1,070724	4,293133	1,089	333,5472	0,551	82,938	0	1016,08	7,3	9,4	9,2	1	1	1	1	1	1	1	1	1	0	1	-12,825934	274,513258	309,159597	0
15.01.2021	16:52:32	0	0,713816	2,372521	1,13775	330,4152	0,551	82,931	0	1015,88	7,3	9,4	9,2	1	1	1	1	1	1	1	1	1	0	1	-8,174771	274,444771	313,489557	0
15.01.2021	16:52:33	0	0,951754	3,841224	1,224	305,784	0,548	82,95	0	1016,22	7,3	9,4	9,2	1	1	1	1	1	1	1	1	1	0	1	-9,936575	274,568223	312,306915	0
15.01.2021	16:52:34	0	0,832785	4,74507	1,179	318,024	0,551	82,95	0	1016,24	7,3	9,4	9,1	1	1	1	1	1	1	1	1	1	0	1	-11,205074	274,58811	311,131786	0
15.01.2021	16:52:35	0	0,832785	3,954201	1,12275	328,5684	0,551	82,946	0	1016,28	7,3	9,4	9,2	1	1	1	1	1	1	1	1	1	0	1	-7,329105	274,611082	315,115636	0
15.01.2021	16:52:36	0	1,070724	4,745041	1,09575	319,5324	0,55	82,939	0	1016,1	7,3	9,4	9,2	1	1	1	1	1	1	1	1	1	0	1	-8,245243	274,52851	313,811854	0
15.01.2021	16:52:37	0	0,951754	2,824429	1,0995	317,7936	0,554	82,952	0	1016,08	7,3	9,4	9,2	1	1	1	1	1	1	1	1	1	0	1	-6,624383	274,437176	315,00434	0
15.01.2021	16:52:38	0	1,070724	4,970996	1,0365	327,8916	0,551	82,941	0	1016,16	7,3	9,4	9,2	1	1	1	1	1	1	1	1	1	0	1	-10,218464	274,491925	311,666989	0
15.01.2021	16:52:39	0	1,070724	5,535882	0,96	342,0468	0,554	82,947	0	1016,06	7,3	9,4	9,2	1	1	1	1	1	1	1	1	1	0	1	-6,8358	274,534615	315,249943	0
15.01.2021	16:52:40	0	1,070724	3,276338	0,984	326,0124	0,552	82,952	0	1016,2	7,3	9,4	9,2	1	1	1	1	1	1	1	1	1	0	1	-7,188161	274,420478	314,362293	0
15.01.2021	16:52:41	0	0,594846	2,372521	1,029	324,8352	0,553	82,956	0	1016,2	7,3	9,4	9,2	1	1	1	1	1	1	1	1	1	0	1	-16,631431	274,525459	305,411348	0
15.01.2021	16:52:42	0	0,594846	3,050384	1,11375	335,5668	0,551	82,953	0	1016,12	7,3	9,4	9,2	1	1	1	1	1	1	1	1	1	0	1	-10,923185	274,425031	310,648607	0
15.01.2021	16:52:43	0	1,189693	4,858019	1,09275	333,5364	0,547	82,948	0	1016,2	7,3	9,4	9,2	1	1	1	1	1	1	1	1	1	0	1	-8,174771	274,56058	314,032838	0
15.01.2021	16:52:44	0	0,832785	3,389315	1,0665	324,8712	0,552	82,962	0	1016,22	7,3	9,4	9,2	1	1	1	1	1	1	1	1	1	0	1	-15,433404	274,608018	306,996944	0
15.01.2021	16:52:45	0	1,070724	4,632064	1,09125	323,6508	0,551	82,954	0	1016,16	7,3	9,4	9,2	1	1	1	1	1	1	1	1	1	0	1	-8,033827	274,510209	313,937399	0
15.01.2021	16:52:46	0	0,475877	2,598475	1,083	324,7452	0,55	82,966	0	1016,08	7,3	9,4	9,2	1	1	1	1	1	1	1	1	1	0	1	-7,329105	274,449329	314,356593	0
15.01.2021	16:52:47	0	0,594846	4,293133	1,15575	325,9404	0,551	82,963	0	1016,12	7,3	9,4	9,2	1	1	1	1	1	1	1	1	1	0	1	-9,090909	274,569752	313,159759	0
15.01.2021	16:52:48	0	0,594846	2,711452	1,1715	325,1304	0,553	82,949	0	1016,12	7,3	9,4	9,2	1	1	1	1	1	1	1	1	1	0	1	-16,631431	274,614147	305,827706	0
15.01.2021	16:52:49	0	0,951754	4,180155	1,152	328,1724	0,552	82,958	0	1016,24	7,3	9,4	9,2	1	1	1	1	1	1	1	1	1	0	1	-11,134602	274,476701	310,679449	0
15.01.2021	16:52:50	0	1,070724	4,519087	1,1175	316,2744	0,553	82,953	0	1016,1	7,3	9,4	9,2	1	1	1	1	1	1	1	1	1	0	1	-9,513742	274,61568	312,952593	0
15.01.2021	16:52:51	0	0,951754	2,711452	1,179	319,9932	0,551	82,962	0	1016,14	7,3	9,4	9,2	1	1	1	1	1	1	1	1	1	0	1	-10,993658	274,481267	310,841807	0
15.01.2021	16:52:52	0	0,832785	2,372521	1,2195	330,282	0,551	82,961	0	1016,24	7,3	9,4	9,2	1	1	1	1	1	1	1	1	1	0	1	-11,768851	274,458449	309,959607	0
15.01.2021	16:52:53	0	1,070724	4,519087	1,2375	312,858	0,545	82,943	0	1016,02	7,3	9,4	9,2	1	1	1	1	1	1	1	1	1	0	1	-9,161381	274,543775	312,96735	0
15.01.2021	16:52:54	0	0,713816	3,728247	1,21875	318,0924	0,55	82,953	0	1016,18	7,3	9,4	9,2	1	1	1	1	1	1	1	1	1	0	1	-8,104299	274,598827	314,282886	0
15.01.2021	16:52:55	0	0,713816	2,598475	1,263	310,7052	0,543	82,957	0	1016	7,3	9,4	9,2	1	1	1	1	1	1	1	1	1	0	1	-9,513742	274,494971	312,386	0
15.01.2021	16:52:56	0	1,070724	4,293133	1,29675	309,5064	0,554	82,964	0	1016,18	7,3	9,4	9,2	1	1	1	1	1	1	1	1	1	0	1	-11,134602	274,58811	311,202259	0
15.01.2021	16:52:57	0	0,832785	3,841224	1,31325	324,6948	0,545	82,96	0	1016,22	7,3	9,4	9,2	1	1	1	1	1	1	1	1	1	0	1	-10,42988	274,559051	311,770555	0
15.01.2021	16:52:58	0	0,832785	3,050384	1,46175	334,5552	0,548	82,963	0	1016,12	7,3	9,4	9,2	1	1	1	1	1	1	1	1	1	0	1	-11,41649	274,58811	310,92037	0
15.01.2021	16:52:59	0	0,832791	2,937424	1,53975	333,3888	0,544	82,963	0	1016,14	7,3	9,3	9,1	1	1	1	1	1	1	1	1	1	0	1	-8,315715	274,569752	313,934953	0
15.01.2021	16:53:00	0	1,070724	4,067178	1,46325	332,3808	0,553	82,956	0	1016,2	7,3	9,4	9,2	1	1	1	1	1	1	1	1	1	0	1	-9,44327	274,595765	312,929533	0
15.01.2021	16:53:01	0	1,070724	4,067178	1,46325	332,3808	0,553	82,956	0	1016,2	7,3	9,4	9,2	1	1	1	1	1	1	1	1	1	0	1	-11,346018	274,540721	310,768381	0
15.01.2021	16:53:02	0	1,189693	3,728247	1,455	334,2096	0,55	82,972	0	1016,2	7,3	9,4	9,2	1	1	1	1	1	1	1	1	1	0	1	-9,231853	274,60955	313,20569	0
15.01.2021	16:53:03	0	0,832785	2,372521	1,45425	325,944	0,55	82,957	0	1016,12	7,3	9,4	9,2	1	1	1	1	1	1	1	1	1	0	1	-6,976744	274,551412	315,18783	0
15.01.2021	16:53:04	0	0,713816	2,824429	1,47	327,9312	0,544	82,975	0	1016,22	7,3	9,4	9,2	1	1	1	1	1	1	1	1	1	0	1	-7,329105	274,421996	314,228461	0
15.01.2021	16:53:05	0	1,308662	4,970996	1,49775	328,9428	0,548	82,977	0	1016,18	7,3	9,4	9,2	1	1	1	1	1	1	1	1	1	0	1	-12,403101	274,508685	309,560973	0
15.01.2021	16:53:06	0	0,713816	4,067178	1,455	323,3412	0,55	82,983	0	1016,1	7,3	9,4	9,2	1	1	1	1	1	1	1	1	1	0	1	-9,936575	274,435658	311,68503	0
15.01.2021	16:53:07	0	0,832785	2,711452	1,47225	340,5672	0,547	82,98	0	1016,14	7,3	9,4	9,2	1	1	1	1	1	1	1	1	1	0	1	-12,473573	274,551412	309,691002	0
15.01.2021	16:53:08	0	1,308662	4,519087	1,476	336,7728	0,555	82,988	0	1016,08	7,3	9,4	9,2	1	1	1	1	1	1	1	1	1	0	1	-7,82241	274,434139	313,792076	0
15.01.2021	16:53:09	0	0,951754	4,519114	1,44525	337,536	0,548	82,968	0	1016,1	7,3	9,4	9,1	1	1	1	1	1	1	1	1	1	0	1	-7,751938	274,44629	313,919512	0
15.01.2021	16:53:10	0	0,594846	3,276358	1,41675	334,638	0,551	82,97	0	1016,16	7,3	9,4	9,1	1	1	1	1	1	1	1	1	1	0	1	-7,188161	274,444771	314,476167	0
15.01.2021	16:53:11	0	0,951754	3,61527	1,356	332,0784	0,547	82,98	0	1016,28	7,3	9,4	9,2	1	1	1	1	1	1	1	1	1	0	1	-6,342495	274,559051	315,85794	0
15.01.2021	16:53:12	0	0,951754	3,728247	1,26675	335,3328	0,548	82,985	0	1016,28	7,3	9,4	9,2	1	1	1	1	1	1	1	1	1	0	1	-9,936575	274,580459	312,36436	0
15.01.2021	16:53:13	0	0,951754	3,954225	1,23	335,7576	0,548	82,975	0	1016,08	7,3	9,4	9,1	1	1	1	1	1	1	1	1	1	0	1	-9,231853	274,426549	312,347053	0
15.01.2021	16:53:14	0	0,713816	4,970996	1,22625	325,4976	0,55	82,975	0	1016,14	7,3	9,4	9,2	1	1	1	1	1	1	1	1	1	0	1	-12,614517	274,597296	309,765477	0
15.01.2021	16:53:15	0	0,832785	3,050402	1,28625	324,0036	0,548	82,976	0	1016,1	7,3	9,4	9,1	1	1	1	1	1	1	1	1	1	0	1	-5,21494	274,540721	316,899459	0
15.01.2021	16:53:16	0	1,308662	5,083973	1,24425	331,1244	0,551	82,977	0	1016,12	7,3	9,4	9,2	1	1	1	1	1	1	1	1	1	0	1	-13,319239	274,597296	309,060755	0
15.01.2021	16:53:17	0	0,832785	3,841247	1,2345	325,5696	0,55	82,987	0	1016,08	7,3	9,4	9,1	1	1	1	1	1	1	1	1	1	0	1	-8,738548	274,47518	313,068366	0
15.01.2021	16:53:18	0	0,594846	2,598475	1,24575	317,7504	0,55	82,998	0	1016,3	7,3	9,4	9,2	1	1	1	1	1	1	1	1	1	0	1	-10,711769	274,423513	310,85291	0
15.01.2021	16:53:19	0	0,713816	4,293133	1,203	308,4372	0,551	82,99	0	1016,22	7,3	9,4	9,2	1	1	1	1	1	1	1	1	1	0	1	-5,567301	274,571281	316,690546	0
15.01.2021	16:53:20	0	0,713816	3,615291	1,1985	312,174	0,546	82,985	0	1016,12	7,3	9,4	9,1	1	1	1	1	1	1	1	1	1	0	1	-11,768851	274,41441	309,753161	0
15.01.2021	16:53:21	0	0,951754	3,389315	1,263	318,4488	0,543	82,981	0	1016,12	7,3	9,4	9,2	1	1	1	1	1	1	1	1	1	0	1	-10,077519	274,539194	312,029715	0
15.01.2021	16:53:22	0	1,189693	3,502292	1,27725	326,8368	0,542	82,996	0	1016,2	7,3	9,4	9,2	1	1	1	1	1	1	1	1	1	0	1	-5,567301	274,60189	316,834269	0
15.01.2021	16:53:23	0	0,951754	2,711452	1,29225	327,0816	0,549	82,998	0	1016,18	7,3	9,4	9,2	1	1	1	1	1	1	1	1	1	0	1	-7,751938	274,449329	313,93376	0
15.01.2021	16:53:24	0	0,594846	2,598475	1,2975	323,6472	0,551	82,998	0	1016,06	7,3	9,4	9,2	1	1	1	1	1	1	1	1	1	0	1	-16,067653	274,441733	305,582431	0
15.01.2021	16:53:25	0	1,189693	4,858019	1,299	324,4068	0,55	82,992	0	1016,16	7,3	9,4	9,2	1	1	1	1	1	1	1	1	1	0	1	-9,231853	274,548357	312,918382	0
15.01.2021	16:53:26	0	1,070724	2,937407	1,33275	319,608	0,551	82,992	0	1016,22	7,3	9,4	9,2	1	1	1	1	1	1	1	1	1	0	1	-6,694856	274,540721	315,419544	0
15.01.2021	16:53:27	0	0,713816	3,615291	1,41525	321,1812	0,555	83,016	0	1016,24	7,3	9,4	9,1	1	1	1	1	1	1	1	1	1	0	1	-11,486963	274,418961	310,05638	0
15.01.2021	16:53:28	0	0,832785	3,502292	1,55325	325,1304	0,544	83,001	0	1016,24	7,3	9,4	9,2	1	1	1	1	1	1	1	1	1	0	1	-15,715292	274,536141	306,377613	0
15.01.2021	16:53:29	0	0,832785	4,632064	1,67175	320,0148	0,549	82,98	0	1015,94	7,3	9,4	9,2	1	1	1	1	1	1	1	1	1	0	1	-8,738548	274,592702	313,619876	0
15.01.2021	16:53:30	0	0,832785	2,824429	1,788	327,1608	0,543	82,986	0	1016,1	7,3	9,4	9,2	1	1	1	1	1	1	1	1	1	0	1	-11,06413	274,455409	310,650072	0
15.01.2021	16:53:31	0	0,594846	3,389315	1,81875	321,5304	0,548	83	0	1016,18	7,3	9,4	9,2	1	1	1	1	1	1	1	1	1	0	1	-12,755462	274,425031	308,81633	0
15.01.2021	16:53:32	0	0,951754	4,40611	1,83	322,5888	0,552	82,997	0	1016,08	7,3	9,4	9,2	1	1	1	1	1	1	1	1	1	0	1	-8,668076	274,555995	313,518013	0
15.01.2021	16:53:33	0	1,189693	4,180181	1,77525	324,3312	0,552	82,997	0	1016,12	7,3	9,4	9,1	1	1	1	1	1	1	1	1	1	0	1	-14,094433	274,46149	307,648284	0
15.01.2021	16:53:34	0	0,832785	4,632064	1,698	316,6884	0,551	82,991	0	1016,12	7,3	9,4	9,2	1	1	1	1	1	1	1	1	1	0	1	-10,852713	274,578929	311,441039	0
15.01.2021	16:53:35	0	1,189693	4,632064	1,623	320,7312	0,553	83,014	0	1016,04	7,3	9,4	9,2	1	1	1	1	1	1	1	1	1	0	1	-10,359408	274,591172	311,991827	0
15.01.2021	16:53:36	0	0,594846	3,050402	1,6365	313,6032	0,549	82,999	0	1016,3	7,3	9,4	9,1	1	1	1	1	1	1	1	1	1	0	1	-10,570825	274,488879	311,300343	0
15.01.2021	16:53:37	0	0,475877	2,598475	1,55775	318,4164	0,552	83,008	0	1016,12	7,3	9,4	9,2	1	1	1	1	1	1	1	1	1	0	1	-9,090909	274,44629	312,580541	0
15.01.2021	16:53:38	0	0,951754	3,502292	1,503	310,662	0,55	83,016	0	1016,18	7,3	9,4	9,2	1	1	1	1	1	1	1	1	1	0	1	-9,513742	274,551412	312,650832	0
15.01.2021	16:53:39	0	0,951754	4,519114	1,4385	311,436	0,546	82,996	0	1016,12	7,3	9,4	9,1	1	1	1	1	1	1	1	1	1	0	1	-9,654686	274,421996	311,902879	0
15.01.2021	16:53:40	0	0,832785	4,293158	1,39725	305,4456	0,55	83,001	0	1016,12	7,3	9,4	9,1	1	1	1	1	1	1	1	1	1	0	1	-11,980268	274,47518	309,826646	0
15.01.2021	16:53:41	0	0,594846	2,598475	1,37625	304,2936	0,554	83,002	0	1016,08	7,3	9,4	9,2	1	1	1	1	1	1	1	1	1	0	1	-11,346018	274,617213	311,127517	0
15.01.2021	16:53:42	0	0,832785	4,745041	1,25925	309,9096	0,548	83	0	1016,08	7,3	9,4	9,2	1	1	1	1	1	1	1	1	1	0	1	-6,906272	274,536141	315,186634	0
15.01.2021	16:53:43	0	0,713816	3,61527	1,23375	310,6872	0,55	82,995	0	1016,2	7,3	9,4	9,2	1	1	1	1	1	1	1	1	1	0	1	-14,940099	274,417444	306,596133	0
15.01.2021	16:53:44	0	0,713816	2,937424	1,24875	311,7924	0,553	82,993	0	1016,12	7,3	9,4	9,1	1	1	1	1	1	1	1	1	1	0	1	-9,654686	274,464531	312,102292	0
15.01.2021	16:53:45	0	0,475877	2,711452	1,25925	315,9	0,546	82,993	0	1016,04	7,3	9,4	9,2	1	1	1	1	1	1	1	1	1	0	1	-8,527132	274,578929	313,76662	0
15.01.2021	16:53:46	0	0,832785	4,632064	1,272	319,5576	0,557	83,005	0	1016,2	7,3	9,4	9,2	1	1	1	1	1	1	1	1	1	0	1	-8,668076	274,57434	313,604131	0
15.01.2021	16:53:47	0	0,951754	4,971026	1,305	322,614	0,545	82,996	0	1016,08	7,3	9,4	9,1	1	1	1	1	1	1	1	1	1	0	1	-12,191684	274,469094	309,586691	0
15.01.2021	16:53:48	0	1,070724	4,632064	1,3125	311,4288	0,553	83,012	0	1016,04	7,3	9,4	9,2	1	1	1	1	1	1	1	1	1	0	1	-14,235377	274,603422	308,173386	0
15.01.2021	16:53:49	0	0,713816	3,615291	1,3185	319,6404	0,549	83,013	0	1016,22	7,3	9,4	9,1	1	1	1	1	1	1	1	1	1	0	1	-7,399577	274,482789	314,443026	0
15.01.2021	16:53:50	0	0,713816	3,050402	1,3005	317,3832	0,554	83,011	0	1016,14	7,3	9,4	9,1	1	1	1	1	1	1	1	1	1	0	1	-12,121212	274,591172	310,230023	0
15.01.2021	16:53:51	0	0,594846	4,067178	1,3455	312,1632	0,549	83,018	0	1016,08	7,3	9,4	9,2	1	1	1	1	1	1	1	1	1	0	1	-9,090909	274,543775	313,037822	0
15.01.2021	16:53:52	0	0,713816	3,16338	1,491	318,8772	0,549	83,011	0	1016,22	7,3	9,4	9,1	1	1	1	1	1	1	1	1	1	0	1	-7,117689	274,562108	315,097095	0
15.01.2021	16:53:53	0	0,832785	4,067203	1,6245	321,1776	0,549	83,006	0	1016,12	7,3	9,4	9,1	1	1	1	1	1	1	1	1	1	0	1	-9,44327	274,456929	312,27806	0
15.01.2021	16:53:54	0	0,832785	4,74507	1,641	319,5396	0,547	82,999	0	1016,18	7,3	9,4	9,1	1	1	1	1	1	1	1	1	1	0	1	-8,949965	274,565165	313,279171	0
15.01.2021	16:53:55	0	0,356908	2,824446	1,6425	315,5112	0,546	83,013	0	1016,14	7,3	9,4	9,1	1	1	1	1	1	1	1	1	1	0	1	-15,856237	274,552939	306,315508	0
15.01.2021	16:53:56	0	0,475877	3,502313	1,6425	308,0808	0,551	83,003	0	1016,16	7,4	9,4	9,1	1	1	1	1	1	1	1	1	1	0	1	-10,782241	274,57434	311,489966	0
15.01.2021	16:53:57	0	0,713816	3,502313	1,66125	310,752	0,551	83,018	0	1016,18	7,3	9,4	9,1	1	1	1	1	1	1	1	1	1	0	1	-11,486963	274,548357	310,663273	0
15.01.2021	16:53:58	0	0,713816	3,502313	1,6035	315,2592	0,551	83,009	0	1016,04	7,4	9,4	9,1	1	1	1	1	1	1	1	1	1	0	1	-10,42988	274,423513	311,134798	0
15.01.2021	16:53:59	0	0,832785	4,40611	1,5375	319,6296	0,547	83,006	0	1016,08	7,3	9,4	9,2	1	1	1	1	1	1	1	1	1	0	1	-10,007047	274,585049	312,315441	0
15.01.2021	16:54:00	0	0,475877	2,372535	1,386	309,1896	0,552	83,014	0	1016,14	7,3	9,4	9,1	1	1	1	1	1	1	1	1	1	0	1	-8,033827	274,533089	314,044753	0
15.01.2021	16:54:01	0	0,475877	2,372535	1,386	309,1896	0,552	83,014	0	1016,14	7,3	9,4	9,1	1	1	1	1	1	1	1	1	1	0	1	-7,258633	274,443252	314,398573	0
15.01.2021	16:54:02	0	0,475877	2,824446	1,36425	317,0268	0,551	83,006	0	1015,9	7,3	9,4	9,1	1	1	1	1	1	1	1	1	1	0	1	-9,513742	274,537668	312,586327	0
15.01.2021	16:54:03	0	0,832785	3,728247	1,34325	316,9044	0,55	83,025	0	1016,18	7,3	9,4	9,2	1	1	1	1	1	1	1	1	1	0	1	-7,963354	274,591172	314,387881	0
15.01.2021	16:54:04	0	0,832785	3,389315	1,25475	317,8656	0,548	83,015	0	1016,12	7,3	9,4	9,2	1	1	1	1	1	1	1	1	1	0	1	-13,107822	274,542248	309,013743	0
15.01.2021	16:54:05	0	0,475877	2,372521	1,23525	318,4236	0,548	83,004	0	1016,12	7,3	9,4	9,2	1	1	1	1	1	1	1	1	1	0	1	-11,980268	274,580459	310,320667	0
15.01.2021	16:54:06	0	0,713816	3,389336	1,22175	315,8856	0,556	83,014	0	1015,94	7,4	9,4	9,1	1	1	1	1	1	1	1	1	1	0	1	-10,42988	274,530036	311,634377	0
15.01.2021	16:54:07	0	0,832785	4,519114	1,1985	311,04	0,551	83,024	0	1016	7,3	9,4	9,1	1	1	1	1	1	1	1	1	1	0	1	-6,272023	274,594233	316,093591	0
15.01.2021	16:54:08	0	0,951754	2,824446	1,2015	317,4048	0,549	83,014	0	1016,16	7,2	9,4	9,1	1	1	1	1	1	1	1	1	1	0	1	-8,315715	274,450849	313,377108	0
15.01.2021	16:54:09	0	0,951754	4,632092	1,24125	322,1784	0,55	83,013	0	1016,18	7,3	9,4	9,1	1	1	1	1	1	1	1	1	1	0	1	-10,782241	274,57587	311,497147	0
15.01.2021	16:54:10	0	0,356908	2,824429	1,224	321,9948	0,544	83,018	0	1016,18	7,3	9,4	9,2	1	1	1	1	1	1	1	1	1	0	1	-9,513742	274,443252	312,143463	0
15.01.2021	16:54:11	0	1,070724	5,083973	1,2285	321,462	0,55	83,021	0	1016,1	7,3	9,4	9,2	1	1	1	1	1	1	1	1	1	0	1	-10,852713	274,408343	310,640869	0
15.01.2021	16:54:12	0	0,594846	2,711468	1,20375	333,882	0,548	83,015	0	1016,14	7,3	9,4	9,1	1	1	1	1	1	1	1	1	1	0	1	-12,614517	274,546829	309,528549	0
15.01.2021	16:54:13	0	0,475877	3,389336	1,11525	347,2632	0,548	83,011	0	1015,94	7,3	9,4	9,1	1	1	1	1	1	1	1	1	1	0	1	-11,839323	274,565165	310,389812	0
15.01.2021	16:54:14	0	0,475877	3,841247	1,07475	340,1964	0,551	83,021	0	1016,3	7,3	9,4	9,1	1	1	1	1	1	1	1	1	1	0	1	-7,82241	274,58658	314,507264	0
15.01.2021	16:54:15	0	0,832785	3,841247	1,06725	322,614	0,549	83,021	0	1016,2	7,2	9,4	9,1	1	1	1	1	1	1	1	1	1	0	1	-7,681466	274,559051	314,518969	0
15.01.2021	16:54:16	0	0,832785	3,728269	1,09275	327,8772	0,549	83,025	0	1016,18	7,3	9,4	9,1	1	1	1	1	1	1	1	1	1	0	1	-7,610994	274,533089	314,467586	0
15.01.2021	16:54:17	0	0,713816	3,728269	1,14825	337,968	0,546	83,011	0	1016,12	7,3	9,4	9,1	1	1	1	1	1	1	1	1	1	0	1	-10,923185	274,589641	311,420862	0
15.01.2021	16:54:18	0	0,713816	2,824446	1,2435	330,0984	0,543	83,002	0	1016,08	7,4	9,4	9,1	1	1	1	1	1	1	1	1	1	0	1	-5,355884	274,467573	316,415358	0
15.01.2021	16:54:19	0	0,237939	2,824446	1,34475	334,9908	0,553	83,03	0	1016,14	7,4	9,4	9,1	1	1	1	1	1	1	1	1	1	0	1	-11,275546	274,595765	311,097257	0
15.01.2021	16:54:20	0	0,832785	3,615291	1,37625	323,6904	0,549	83,005	0	1016,28	7,4	9,4	9,1	1	1	1	1	1	1	1	1	1	0	1	-9,866103	274,47518	311,940811	0
15.01.2021	16:54:21	0	0,594846	2,711468	1,39725	334,944	0,554	83,007	0	1016,22	7,3	9,4	9,1	1	1	1	1	1	1	1	1	1	0	1	-11,909796	274,600359	310,484581	0
15.01.2021	16:54:22	0	0,951754	4,180181	1,39875	323,0568	0,554	83,013	0	1016,16	7,3	9,4	9,1	1	1	1	1	1	1	1	1	1	0	1	-6,20155	274,517833	315,805443	0
15.01.2021	16:54:23	0	0,713816	4,406136	1,42125	325,4904	0,554	83,007	0	1016,22	7,4	9,4	9,1	1	1	1	1	1	1	1	1	1	0	1	-13,530655	274,450849	308,162168	0
15.01.2021	16:54:24	0	0,475877	3,954225	1,42425	326,7324	0,547	83,015	0	1016,16	7,4	9,4	9,1	1	1	1	1	1	1	1	1	1	0	1	-11,557435	274,578929	310,736317	0
15.01.2021	16:54:25	0	0,951754	4,858048	1,3905	330,3288	0,551	83,009	0	1016,14	7,3	9,4	9,1	1	1	1	1	1	1	1	1	1	0	1	-7,540521	274,563637	314,681438	0
15.01.2021	16:54:26	0	0,356908	3,728224	1,35675	336,4056	0,55	83,026	0	1016,2	7,4	9,4	9,3	1	1	1	1	1	1	1	1	1	0	1	-8,245243	274,417444	313,290989	0
15.01.2021	16:54:27	0	0,713816	3,16338	1,32675	331,0812	0,547	82,989	0	1016,24	7,4	9,4	9,1	1	1	1	1	1	1	1	1	1	0	1	-5,496829	274,578929	316,796923	0
15.01.2021	16:54:28	0	0,832785	4,519114	1,31625	339,4728	0,552	83,015	0	1016,24	7,4	9,4	9,1	1	1	1	1	1	1	1	1	1	0	1	-11,768851	274,572811	310,496175	0
15.01.2021	16:54:29	0	0,832785	4,74507	1,278	334,5444	0,549	83,01	0	1016,28	7,4	9,4	9,1	1	1	1	1	1	1	1	1	1	0	1	-10,288936	274,525459	311,753842	0
15.01.2021	16:54:30	0	0,594846	3,728269	1,22325	331,1424	0,546	83,066	0	1016,24	7,4	9,4	9,1	1	1	1	1	1	1	1	1	1	0	1	-12,896406	274,438695	308,739437	0
15.01.2021	16:54:31	0	0,475877	3,615291	1,209	327,0636	0,551	83,014	0	1016,16	7,3	9,4	9,1	1	1	1	1	1	1	1	1	1	0	1	-8,80902	274,40986	312,691668	0
15.01.2021	16:54:32	0	0,356908	2,711452	1,15875	322,6176	0,551	83,011	0	1016,1	7,4	9,4	9,2	1	1	1	1	1	1	1	1	1	0	1	-8,245243	274,525459	313,797535	0
15.01.2021	16:54:33	0	0,475877	3,050402	1,13925	323,352	0,546	83,003	0	1016,04	7,3	9,4	9,1	1	1	1	1	1	1	1	1	1	0	1	-7,047216	274,57434	315,22499	0
15.01.2021	16:54:34	0	0,475877	3,841247	1,107	327,0492	0,539	83,001	0	1016,08	7,3	9,4	9,1	1	1	1	1	1	1	1	1	1	0	1	-8,245243	274,488879	313,625924	0
15.01.2021	16:54:35	0	0,356908	2,372535	1,0545	324,4032	0,546	82,986	0	1016,22	7,3	9,4	9,1	1	1	1	1	1	1	1	1	1	0	1	-15,997181	274,577399	306,289388	0
15.01.2021	16:54:36	0	0,951754	4,971026	1,04925	328,248	0,545	83,005	0	1016,14	7,3	9,4	9,1	1	1	1	1	1	1	1	1	1	0	1	-9,936575	274,520883	312,08473	0
15.01.2021	16:54:37	0	0,356905	2,598475	1,02825	330,0696	0,547	83,012	0	1016,14	7,3	9,5	9,2	1	1	1	1	1	1	1	1	1	0	1	-9,372798	274,589641	312,97125	0
15.01.2021	16:54:38	0	0,951754	4,858048	1,05	339,84	0,544	82,986	0	1016,1	7,3	9,4	9,1	1	1	1	1	1	1	1	1	1	0	1	-9,513742	274,542248	312,607823	0
15.01.2021	16:54:39	0	0,832785	4,632092	1,08225	337,7304	0,547	83,01	0	1016,22	7,3	9,4	9,1	1	1	1	1	1	1	1	1	1	0	1	-10,570825	274,551412	311,59375	0
15.01.2021	16:54:40	0	0,475877	3,16338	1,1775	326,43	0,543	83,005	0	1016,24	7,4	9,4	9,1	1	1	1	1	1	1	1	1	1	0	1	-10,923185	274,47518	310,883729	0
15.01.2021	16:54:41	0	0,475877	4,74507	1,368	323,6328	0,548	83,019	0	1016,18	7,3	9,4	9,1	1	1	1	1	1	1	1	1	1	0	1	-7,82241	274,577399	314,464159	0
15.01.2021	16:54:42	0	0,475877	2,937424	1,551	323,2584	0,547	83,01	0	1016,12	7,4	9,4	9,1	1	1	1	1	1	1	1	1	1	0	1	-9,372798	274,450849	312,320025	0
15.01.2021	16:54:43	0	0,237937	2,259557	1,66575	327,1392	0,55	83,015	0	1016,24	7,4	9,5	9,1	1	1	1	1	1	1	1	1	1	0	1	-6,976744	274,411376	314,531052	0
15.01.2021	16:54:44	0	0,594846	2,937407	1,71825	338,0256	0,547	82,996	0	1016,16	7,4	9,4	9,2	1	1	1	1	1	1	1	1	1	0	1	-9,44327	274,511733	312,535108	0
15.01.2021	16:54:45	0	0,594846	4,293158	1,692	331,452	0,546	83,024	0	1016,18	7,4	9,4	9,1	1	1	1	1	1	1	1	1	1	0	1	-11,768851	274,577399	310,517718	0
15.01.2021	16:54:46	0	0,832785	3,050384	1,65675	336,1284	0,544	83,003	0	1016,16	7,2	9,4	9,2	1	1	1	1	1	1	1	1	1	0	1	-10,147992	274,472137	311,644652	0
15.01.2021	16:54:47	0	0,475877	2,824429	1,674	326,0016	0,542	83,014	0	1016,18	7,4	9,4	9,2	1	1	1	1	1	1	1	1	1	0	1	-8,104299	274,569752	314,146369	0
15.01.2021	16:54:48	0	1,070724	4,519087	1,65525	326,7396	0,551	83,021	0	1016,16	7,3	9,4	9,2	1	1	1	1	1	1	1	1	1	0	1	-12,473573	274,505636	309,4762	0
15.01.2021	16:54:49	0	0,951754	4,40611	1,57875	333,8424	0,546	83,012	0	1016,16	7,4	9,4	9,2	1	1	1	1	1	1	1	1	1	0	1	-7,399577	274,566694	314,836735	0
15.01.2021	16:54:50	0	0,475877	3,16338	1,53075	336,4704	0,544	83,018	0	1015,98	7,3	9,4	9,1	1	1	1	1	1	1	1	1	1	0	1	-11,41649	274,491925	310,468962	0
15.01.2021	16:54:51	0	0,594846	4,180181	1,4865	328,9032	0,552	83,014	0	1016,16	7,4	9,4	9,1	1	1	1	1	1	1	1	1	1	0	1	-7,610994	274,405311	313,868377	0
15.01.2021	16:54:52	0	0,832785	4,74507	1,54575	322,9812	0,54	83,005	0	1016,02	7,3	9,4	9,1	1	1	1	1	1	1	1	1	1	0	1	-7,82241	274,472137	313,970233	0
15.01.2021	16:54:53	0	0,237939	2,598475	1,61475	327,816	0,546	83,014	0	1016,08	7,3	9,4	9,2	1	1	1	1	1	1	1	1	1	0	1	-7,751938	274,402279	313,713224	0
15.01.2021	16:54:54	0	0,594846	4,293158	1,62825	328,1688	0,551	83,01	0	1016,1	7,2	9,4	9,1	1	1	1	1	1	1	1	1	1	0	1	-6,342495	274,494971	315,557247	0
15.01.2021	16:54:55	0	0,475877	2,372535	1,60275	326,4192	0,552	83,018	0	1016,28	7,4	9,4	9,1	1	1	1	1	1	1	1	1	1	0	1	-9,584214	274,583519	312,731089	0
15.01.2021	16:54:56	0	0,594851	3,050384	1,64625	323,3052	0,537	83,005	0	1016,08	7,3	9,3	9,2	1	1	1	1	1	1	1	1	1	0	1	-10,711769	274,418961	310,831574	0
15.01.2021	16:54:57	0	0,713816	3,954225	1,713	327,1104	0,543	83,013	0	1016,22	7,3	9,4	9,1	1	1	1	1	1	1	1	1	1	0	1	-11,909796	274,583519	310,405507	0
15.01.2021	16:54:58	0	0,594846	2,711468	1,86375	331,1712	0,55	83,013	0	1016,12	7,4	9,4	9,1	1	1	1	1	1	1	1	1	1	0	1	-7,751938	274,539194	314,355296	0
15.01.2021	16:54:59	0	0,356908	3,050402	1,92675	329,994	0,548	83,021	0	1016,26	7,3	9,4	9,1	1	1	1	1	1	1	1	1	1	0	1	-11,134602	274,57587	311,144786	0
15.01.2021	16:55:00	0	0,237939	3,050384	1,84275	326,0052	0,546	83,028	0	1016,26	7,2	9,4	9,2	1	1	1	1	1	1	1	1	1	0	1	-14,446794	274,452369	307,253155	0
15.01.2021	16:55:01	0	0,237939	3,050384	1,84275	326,0052	0,546	83,028	0	1016,26	7,2	9,4	9,2	1	1	1	1	1	1	1	1	1	0	1	-11,134602	274,591172	311,216634	0
15.01.2021	16:55:02	0	1,070724	4,970996	1,85025	325,2096	0,542	83,009	0	1016,08	7,4	9,4	9,2	1	1	1	1	1	1	1	1	1	0	1	-11,06413	274,559051	311,136305	0
15.01.2021	16:55:03	0	0,594846	4,74507	1,893	328,6332	0,544	83,007	0	1016,2	7,3	9,4	9,1	1	1	1	1	1	1	1	1	1	0	1	-9,090909	274,581989	313,217209	0
15.01.2021	16:55:04	0	0,832779	3,841224	1,98675	328,6368	0,546	83,007	0	1016,14	7,4	9,5	9,2	1	1	1	1	1	1	1	1	1	0	1	-11,346018	274,493448	310,546579	0
15.01.2021	16:55:05	0	0,475874	3,389315	1,99125	322,9992	0,546	83,015	0	1016,22	7,3	9,5	9,2	1	1	1	1	1	1	1	1	1	0	1	-11,205074	274,568223	311,038416	0
15.01.2021	16:55:06	0	0,713811	3,954225	1,965	332,4708	0,547	83,016	0	1016,16	7,4	9,5	9,1	1	1	1	1	1	1	1	1	1	0	1	-7,117689	274,543775	315,011043	0
15.01.2021	16:55:07	0	0,832779	4,067203	1,93125	324,7776	0,549	83,025	0	1016,12	7,3	9,5	9,1	1	1	1	1	1	1	1	1	1	0	1	-7,963354	274,56058	314,244254	0
15.01.2021	16:55:08	0	0,475877	3,502292	1,917	327,15	0,546	83,022	0	1016,16	7,4	9,4	9,2	1	1	1	1	1	1	1	1	1	0	1	-5,003524	274,491925	316,881929	0
15.01.2021	16:55:09	0	0,713816	3,502292	1,91475	319,2804	0,548	83,022	0	1016,16	7,3	9,4	9,2	1	1	1	1	1	1	1	1	1	0	1	-13,107822	274,565165	309,121313	0
15.01.2021	16:55:10	0	0,832785	3,050384	1,89375	322,1892	0,546	83,01	0	1016,12	7,3	9,4	9,2	1	1	1	1	1	1	1	1	1	0	1	-9,020437	274,520883	313,000868	0
15.01.2021	16:55:11	0	0,118968	2,146566	1,84275	315,522	0,541	83,011	0	1016,28	7,2	9,5	9,2	1	1	1	1	1	1	1	1	1	0	1	-13,03735	274,572811	309,227676	0
15.01.2021	16:55:12	0	0,356908	3,16338	1,79775	326,2896	0,544	83,009	0	1016,18	7,3	9,4	9,1	1	1	1	1	1	1	1	1	1	0	1	-6,8358	274,513258	315,149731	0
15.01.2021	16:55:13	0	0,951754	4,40611	1,7685	317,3004	0,545	83,017	0	1016,2	7,3	9,4	9,2	1	1	1	1	1	1	1	1	1	0	1	-7,681466	274,397732	313,762389	0
15.01.2021	16:55:14	0	0,475877	2,711452	1,74825	323,01	0,544	83,001	0	1016,06	7,4	9,4	9,2	1	1	1	1	1	1	1	1	1	0	1	-9,725159	274,494971	312,174583	0
15.01.2021	16:55:15	0	0,356908	2,485498	1,6905	325,2096	0,552	83,019	0	1016,14	7,4	9,4	9,2	1	1	1	1	1	1	1	1	1	0	1	-9,020437	274,581989	313,287682	0
15.01.2021	16:55:16	0	0,237939	2,485513	1,689	321,876	0,551	83,023	0	1016,1	7,3	9,4	9,1	1	1	1	1	1	1	1	1	1	0	1	-8,245243	274,458449	313,483215	0
15.01.2021	16:55:17	0	0,356908	2,824446	1,67625	322,2504	0,552	83,026	0	1016,2	7,3	9,4	9,1	1	1	1	1	1	1	1	1	1	0	1	-6,553911	274,396216	314,882842	0
15.01.2021	16:55:18	0	0,118969	2,937424	1,6875	333,864	0,549	83,028	0	1016,22	7,4	9,4	9,1	1	1	1	1	1	1	1	1	1	0	1	-11,205074	274,455409	310,509128	0
15.01.2021	16:55:19	0	0,832785	5,422904	1,64325	346,5288	0,545	83,02	0	1016,02	7,3	9,4	9,2	1	1	1	1	1	1	1	1	1	0	1	-5,21494	274,526985	316,834997	0
15.01.2021	16:55:20	0	0,713816	4,632092	1,533	340,5888	0,547	83,021	0	1016,28	7,3	9,4	9,1	1	1	1	1	1	1	1	1	1	0	1	-10,147992	274,453888	311,559084	0
15.01.2021	16:55:21	0	0,594846	5,196981	1,449	339,8832	0,549	83,015	0	1016,08	7,3	9,4	9,1	1	1	1	1	1	1	1	1	1	0	1	-10,570825	274,405311	310,908546	0
15.01.2021	16:55:22	0	0,832785	4,970996	1,3815	351,3528	0,546	83,006	0	1016,12	7,4	9,4	9,2	1	1	1	1	1	1	1	1	1	0	1	-5,708245	274,490402	316,170064	0
15.01.2021	16:55:23	0	0,713816	2,485498	1,29825	355,8744	0,546	83,018	0	1016	7,3	9,4	9,2	1	1	1	1	1	1	1	1	1	0	1	-8,245243	274,406827	313,241233	0
15.01.2021	16:55:24	0	0,237939	2,259557	1,2315	354,7512	0,546	83,034	0	1016,16	7,3	9,4	9,1	1	1	1	1	1	1	1	1	1	0	1	-8,386187	274,517833	313,620806	0
15.01.2021	16:55:25	0	0,951754	4,971026	1,15875	346,1076	0,552	83,026	0	1016,12	7,3	9,4	9,1	1	1	1	1	1	1	1	1	1	0	1	-13,6716	274,523933	308,36402	0
15.01.2021	16:55:26	0	0,475874	2,937407	1,11675	335,2788	0,543	83,02	0	1016,18	7,3	9,5	9,2	1	1	1	1	1	1	1	1	1	0	1	-5,778717	274,510209	316,192508	0
15.01.2021	16:55:27	0	0,475877	4,067178	1,1295	333,6156	0,549	83,016	0	1016,12	7,3	9,4	9,2	1	1	1	1	1	1	1	1	1	0	1	-9,231853	274,577399	313,054716	0
15.01.2021	16:55:28	0	0,356905	3,389315	1,13475	333,9324	0,547	83,026	0	1016,02	7,3	9,5	9,2	1	1	1	1	1	1	1	1	1	0	1	-8,174771	274,440214	313,468192	0
15.01.2021	16:55:29	0	0,475874	4,067203	1,173	335,9592	0,539	83,026	0	1016,16	7,4	9,5	9,1	1	1	1	1	1	1	1	1	1	0	1	-9,654686	274,562108	312,560097	0
15.01.2021	16:55:30	0	0,356908	2,711468	1,15725	335,4084	0,536	83,013	0	1016,26	7,3	9,4	9,1	1	1	1	1	1	1	1	1	1	0	1	-8,033827	274,469094	313,744549	0
15.01.2021	16:55:31	0	0,594846	4,745041	1,197	328,5216	0,547	83,009	0	1016,1	7,4	9,4	9,2	1	1	1	1	1	1	1	1	1	0	1	-7,610994	274,569752	314,639674	0
15.01.2021	16:55:32	0	0,832785	2,937407	1,25025	339,1164	0,541	83,038	0	1016,28	7,3	9,4	9,2	1	1	1	1	1	1	1	1	1	0	1	-6,20155	274,443252	315,455655	0
15.01.2021	16:55:33	0	0,356908	3,954225	1,36125	336,204	0,541	83,014	0	1016,18	7,3	9,4	9,1	1	1	1	1	1	1	1	1	1	0	1	-7,540521	274,551412	314,624053	0
15.01.2021	16:55:34	0	0,713816	4,293158	1,515	330,7932	0,534	83,025	0	1016,18	7,3	9,4	9,1	1	1	1	1	1	1	1	1	1	0	1	-7,892882	274,511733	314,085496	0
15.01.2021	16:55:35	0	0,594846	2,824446	1,58025	332,3484	0,547	83,03	0	1016,2	7,3	9,4	9,1	1	1	1	1	1	1	1	1	1	0	1	-10,077519	274,381068	311,288259	0
15.01.2021	16:55:36	0	0,356905	3,050384	1,6515	324,0396	0,54	83,033	0	1016,16	7,3	9,5	9,2	1	1	1	1	1	1	1	1	1	0	1	-9,090909	274,440214	312,552054	0
15.01.2021	16:55:37	0	0,23794	3,389315	1,7115	332,8164	0,546	83,033	0	1016,24	7,3	9,3	9,2	1	1	1	1	1	1	1	1	1	0	1	-6,20155	274,384097	315,178417	0
15.01.2021	16:55:38	0	0,475877	4,406136	1,73175	329,2524	0,539	83,017	0	1016,1	7,3	9,4	9,1	1	1	1	1	1	1	1	1	1	0	1	-9,302326	274,452369	312,397623	0
15.01.2021	16:55:39	0	0,713816	4,858019	1,7625	341,352	0,544	83,045	0	1016,1	7,3	9,4	9,2	1	1	1	1	1	1	1	1	1	0	1	-15,010571	274,551412	307,154004	0
15.01.2021	16:55:40	0	0,594846	4,519087	1,72875	343,422	0,54	83,023	0	1016,02	7,3	9,4	9,2	1	1	1	1	1	1	1	1	1	0	1	-6,553911	274,569752	315,696757	0
15.01.2021	16:55:41	0	0,356908	2,598475	1,74975	324,7848	0,542	83,021	0	1016	7,3	9,4	9,2	1	1	1	1	1	1	1	1	1	0	1	-13,601128	274,545302	308,534771	0
15.01.2021	16:55:42	0	0,475874	4,40611	1,64025	331,4664	0,546	83,037	0	1016,12	7,4	9,5	9,2	1	1	1	1	1	1	1	1	1	0	1	-8,104299	274,571281	314,153548	0
15.01.2021	16:55:43	0	0,713811	3,61527	1,5765	328,9608	0,544	83,087	0	1016,14	7,3	9,5	9,2	1	1	1	1	1	1	1	1	1	0	1	-10,993658	274,440214	310,649306	0
15.01.2021	16:55:44	0	0,594842	4,067178	1,53	334,188	0,541	83,036	0	1016,28	7,3	9,5	9,2	1	1	1	1	1	1	1	1	1	0	1	-6,553911	274,562108	315,660872	0
15.01.2021	16:55:45	0	0,832779	2,711452	1,4925	329,7672	0,543	83,033	0	1016,14	7,3	9,5	9,2	1	1	1	1	1	1	1	1	1	0	1	-8,80902	274,428066	312,777	0
15.01.2021	16:55:46	0	0,475874	2,259544	1,46025	322,686	0,544	83,017	0	1016,24	7,3	9,5	9,2	1	1	1	1	1	1	1	1	1	0	1	-9,090909	274,520883	312,930396	0
15.01.2021	16:55:47	0	0,594851	3,502292	1,458	338,8104	0,545	83,035	0	1016,18	7,3	9,3	9,2	1	1	1	1	1	1	1	1	1	0	1	-10,993658	274,513258	310,991873	0
15.01.2021	16:55:48	0	0,237939	3,050384	1,46475	334,3176	0,545	83,035	0	1016,18	7,3	9,4	9,2	1	1	1	1	1	1	1	1	1	0	1	-7,892882	274,397732	313,550972	0
15.01.2021	16:55:49	0	0,713811	4,632092	1,43625	336,8304	0,545	83,04	0	1016,02	7,4	9,5	9,1	1	1	1	1	1	1	1	1	1	0	1	-9,725159	274,52851	312,331938	0
15.01.2021	16:55:50	0	0	3,502313	1,47525	323,2836	0,543	83,051	0	1016,26	7,3	9,4	9,1	1	1	1	1	1	1	1	1	1	0	1	-7,540521	274,393186	313,882031	0
15.01.2021	16:55:51	0	0,594846	3,841224	1,455	336,4308	0,54	83,037	0	1016,14	7,3	9,4	9,2	1	1	1	1	1	1	1	1	1	0	1	-6,342495	274,425031	315,229297	0
15.01.2021	16:55:52	0	0,35691	3,276338	1,4415	340,2072	0,56	83,034	0	1016,08	7,3	9,3	9,2	1	1	1	1	1	1	1	1	1	0	1	-14,164905	274,444771	307,499423	0
15.01.2021	16:55:53	0	0,713816	3,728247	1,42575	330,3288	0,541	83,032	0	1016,2	7,3	9,4	9,2	1	1	1	1	1	1	1	1	1	0	1	-6,342495	274,537668	315,757575	0
15.01.2021	16:55:54	0	0,475877	2,824429	1,33275	337,23	0,541	83,044	0	1016,06	7,4	9,4	9,2	1	1	1	1	1	1	1	1	1	0	1	-12,403101	274,510209	309,568125	0
15.01.2021	16:55:55	0	0,594851	4,40611	1,26525	324,3852	0,545	83,043	0	1016,22	7,4	9,3	9,2	1	1	1	1	1	1	1	1	1	0	1	-7,258633	274,56058	314,948976	0
15.01.2021	16:55:56	0	0,356905	3,502292	1,19325	306,468	0,542	83,049	0	1015,96	7,3	9,5	9,2	1	1	1	1	1	1	1	1	1	0	1	-6,131078	274,534615	315,954664	0
15.01.2021	16:55:57	0	0,594842	3,050384	1,158	325,5516	0,538	83,029	0	1016,06	7,3	9,5	9,2	1	1	1	1	1	1	1	1	1	0	1	-5,496829	274,396216	315,939924	0
15.01.2021	16:55:58	0	0,237937	2,372521	1,09125	326,3868	0,543	83,041	0	1016,2	7,4	9,5	9,2	1	1	1	1	1	1	1	1	1	0	1	-12,403101	274,526985	309,646836	0
15.01.2021	16:55:59	0	0,594846	3,841224	1,0335	314,4888	0,549	83,044	0	1016,12	7,3	9,4	9,2	1	1	1	1	1	1	1	1	1	0	1	-6,272023	274,394701	315,15763	0
15.01.2021	16:56:00	0	0,832779	4,293133	1,08	345,762	0,542	83,053	0	1016,14	7,3	9,5	9,2	1	1	1	1	1	1	1	1	1	0	1	-7,892882	274,545302	314,243016	0
15.01.2021	16:56:01	0	0,832779	4,293133	1,08	345,762	0,542	83,053	0	1016,14	7,3	9,5	9,2	1	1	1	1	1	1	1	1	1	0	1	-5,919662	274,370471	315,396474	0
15.01.2021	16:56:02	0	0,832791	4,40611	1,104	339,426	0,542	83,047	0	1016,08	7,3	9,3	9,2	1	1	1	1	1	1	1	1	1	0	1	-7,892882	274,437176	313,735841	0
15.01.2021	16:56:03	0	0,356905	3,841224	1,0785	327,042	0,546	83,042	0	1016,14	7,3	9,5	9,2	1	1	1	1	1	1	1	1	1	0	1	-8,174771	274,434139	313,439715	0
15.01.2021	16:56:04	0	0,356905	2,711468	1,0875	338,1192	0,545	83,044	0	1016,1	7,2	9,5	9,1	1	1	1	1	1	1	1	1	1	0	1	-11,909796	274,384097	309,470172	0
15.01.2021	16:56:05	0	0,594842	2,937407	1,06725	341,7516	0,548	83,031	0	1016,2	7,3	9,5	9,2	1	1	1	1	1	1	1	1	1	0	1	-9,584214	274,40986	311,916474	0
15.01.2021	16:56:06	0	0,594842	4,180155	1,0815	336,1356	0,55	83,051	0	1016,28	7,3	9,5	9,2	1	1	1	1	1	1	1	1	1	0	1	-8,527132	274,388641	312,874125	0
15.01.2021	16:56:07	0	0,475877	3,841224	1,13475	342,1008	0,559	83,05	0	1016,14	7,3	9,4	9,2	1	1	1	1	1	1	1	1	1	0	1	-8,245243	274,502589	313,690232	0
15.01.2021	16:56:08	0	0,356905	4,067178	1,131	351,1152	0,546	83,034	0	1016,14	7,3	9,5	9,2	1	1	1	1	1	1	1	1	1	0	1	-8,245243	274,387126	313,148917	0
15.01.2021	16:56:09	0	0,594842	3,276338	1,12875	334,9872	0,548	83,05	0	1016,24	7,3	9,5	9,2	1	1	1	1	1	1	1	1	1	0	1	-10,500352	274,421996	311,057213	0
15.01.2021	16:56:10	0	0,475874	3,050402	1,092	323,0352	0,542	83,053	0	1016,04	7,3	9,5	9,1	1	1	1	1	1	1	1	1	1	0	1	-10,923185	274,552939	311,24856	0
15.01.2021	16:56:11	0	0,594842	3,728247	1,00275	345,7908	0,546	83,045	0	1016,16	7,3	9,5	9,2	1	1	1	1	1	1	1	1	1	0	1	-16,067653	274,50716	305,88927	0
15.01.2021	16:56:12	0	0,47588	4,40611	0,96	342,306	0,542	83,03	0	1016,18	7,3	9,3	9,2	1	1	1	1	1	1	1	1	1	0	1	-7,258633	274,557523	314,934629	0
15.01.2021	16:56:13	0	0,594851	4,632064	0,9255	333,45	0,545	83,047	0	1016,18	7,3	9,3	9,2	1	1	1	1	1	1	1	1	1	0	1	-9,090909	274,513258	312,894622	0
15.01.2021	16:56:14	0	0,47588	3,276338	0,92025	339,7752	0,544	83,039	0	1016,12	7,3	9,3	9,2	1	1	1	1	1	1	1	1	1	0	1	-5,21494	274,371985	316,108285	0
15.01.2021	16:56:15	0	0,594851	2,598475	0,86625	345,0636	0,545	83,047	0	1016,02	7,3	9,3	9,2	1	1	1	1	1	1	1	1	1	0	1	-9,090909	274,456929	312,630421	0
15.01.2021	16:56:16	0	0,356905	2,372521	0,87975	330,3972	0,54	83,051	0	1016,18	7,3	9,5	9,2	1	1	1	1	1	1	1	1	1	0	1	-3,382664	274,375012	317,954743	0
15.01.2021	16:56:17	0	0,356905	4,519087	0,8775	321,2172	0,545	83,047	0	1016,22	7,3	9,5	9,2	1	1	1	1	1	1	1	1	1	0	1	-7,117689	274,50716	314,839235	0
15.01.2021	16:56:18	0	0,832791	4,858019	0,91875	329,652	0,543	83,052	0	1016,1	7,3	9,3	9,2	1	1	1	1	1	1	1	1	1	0	1	-8,104299	274,552939	314,067446	0
15.01.2021	16:56:19	0	0,594842	3,502292	0,972	335,6748	0,542	83,039	0	1016,22	7,3	9,5	9,2	1	1	1	1	1	1	1	1	1	0	1	-7,258633	274,522408	314,769829	0
15.01.2021	16:56:20	0	0,237937	2,937407	1,0665	334,5732	0,541	83,036	0	1016,2	7,3	9,5	9,2	1	1	1	1	1	1	1	1	1	0	1	-5,567301	274,411376	315,940495	0
15.01.2021	16:56:21	0	0,832779	4,745041	1,05825	333,144	0,542	83,056	0	1016,3	7,3	9,5	9,2	1	1	1	1	1	1	1	1	1	0	1	-9,020437	274,565165	313,208698	0
15.01.2021	16:56:22	0	0,594842	3,389315	1,08975	336,1284	0,538	83,04	0	1016,26	7,3	9,5	9,2	1	1	1	1	1	1	1	1	1	0	1	-10,570825	274,418961	310,972518	0
15.01.2021	16:56:23	0	0,47588	3,389315	1,07025	343,8864	0,539	83,037	0	1015,9	7,3	9,3	9,2	1	1	1	1	1	1	1	1	1	0	1	-6,272023	274,552939	315,899723	0
15.01.2021	16:56:24	0	0,356908	2,824429	1,029	327,8088	0,538	83,041	0	1016,1	7,3	9,4	9,2	1	1	1	1	1	1	1	1	1	0	1	-3,946441	274,523933	318,089179	0
15.01.2021	16:56:25	0	0,23794	2,937407	1,01625	334,692	0,538	83,045	0	1016,12	7,3	9,3	9,2	1	1	1	1	1	1	1	1	1	0	1	-6,906272	274,423513	314,658406	0
15.01.2021	16:56:26	0	0,713811	4,745041	1,0785	345,4056	0,538	83,04	0	1016,22	7,3	9,5	9,2	1	1	1	1	1	1	1	1	1	0	1	-6,906272	274,444771	314,758056	0
15.01.2021	16:56:27	0	0,47588	4,632064	1,13475	337,1544	0,544	83,045	0	1016,04	7,3	9,3	9,2	1	1	1	1	1	1	1	1	1	0	1	-7,892882	274,370471	313,423253	0
15.01.2021	16:56:28	0	0,356905	3,61527	1,19325	333,9216	0,545	83,061	0	1016,18	7,3	9,5	9,2	1	1	1	1	1	1	1	1	1	0	1	-12,614517	274,520883	309,406788	0
15.01.2021	16:56:29	0	0,951748	3,050384	1,23075	336,402	0,541	83,042	0	1016,3	7,3	9,5	9,2	1	1	1	1	1	1	1	1	1	0	1	-11,134602	274,563637	311,087357	0
15.01.2021	16:56:30	0	0,475874	3,050384	1,1805	334,242	0,539	83,029	0	1016,08	7,3	9,5	9,2	1	1	1	1	1	1	1	1	1	0	1	-9,302326	274,499541	312,618854	0
15.01.2021	16:56:31	0	0,356908	4,180155	1,18275	330,0408	0,54	83,054	0	1016,2	7,3	9,4	9,2	1	1	1	1	1	1	1	1	1	0	1	-13,03735	274,555995	309,148738	0
15.01.2021	16:56:32	0	0,832791	4,745041	1,20675	338,6916	0,546	83,054	0	1016,18	7,3	9,3	9,2	1	1	1	1	1	1	1	1	1	0	1	-6,906272	274,435658	314,715333	0
15.01.2021	16:56:33	0	0,356905	3,728247	1,19325	334,2492	0,536	83,05	0	1016,16	7,3	9,5	9,2	1	1	1	1	1	1	1	1	1	0	1	-3,946441	274,381068	317,419337	0
15.01.2021	16:56:34	0	0,35691	4,180155	1,20975	337,9176	0,537	83,043	0	1016,26	7,3	9,3	9,2	1	1	1	1	1	1	1	1	1	0	1	-10,500352	274,549884	311,657052	0
15.01.2021	16:56:35	0	0,475874	5,309927	1,23975	343,1412	0,542	83,067	0	1016,22	7,3	9,5	9,2	1	1	1	1	1	1	1	1	1	0	1	-10,852713	274,520883	311,168592	0
15.01.2021	16:56:36	0	0,11897	2,937407	1,1865	338,6376	0,543	83,053	0	1016,2	7,3	9,3	9,2	1	1	1	1	1	1	1	1	1	0	1	-5,355884	274,431103	316,244368	0
15.01.2021	16:56:37	0	0,713811	2,937407	1,1115	330,3612	0,545	83,056	0	1016,02	7,3	9,5	9,2	1	1	1	1	1	1	1	1	1	0	1	-7,329105	274,536141	314,763801	0
15.01.2021	16:56:38	0	0,35691	2,372521	1,05825	340,5204	0,543	83,059	0	1016,32	7,3	9,3	9,2	1	1	1	1	1	1	1	1	1	0	1	-9,090909	274,384097	312,289059	0
15.01.2021	16:56:39	0	0,35691	3,050384	0,9915	339,0948	0,545	83,058	0	1016,14	7,3	9,3	9,2	1	1	1	1	1	1	1	1	1	0	1	-8,527132	274,384097	312,852836	0
15.01.2021	16:56:40	0	0,594851	3,954201	0,9585	334,6632	0,54	83,065	0	1016,2	7,3	9,3	9,2	1	1	1	1	1	1	1	1	1	0	1	-8,45666	274,428066	313,129361	0
15.01.2021	16:56:41	0	0,475874	4,745041	0,906	336,852	0,54	83,06	0	1016,14	7,3	9,5	9,2	1	1	1	1	1	1	1	1	1	0	1	-5,84919	274,370471	315,466946	0
15.01.2021	16:56:42	0	0,118968	3,050384	0,88425	339,7932	0,547	83,055	0	1016,28	7,3	9,5	9,2	1	1	1	1	1	1	1	1	1	0	1	-5,919662	274,420478	315,630792	0
15.01.2021	16:56:43	0	0,23794	2,711452	0,822	337,554	0,545	83,073	0	1016,16	7,3	9,3	9,2	1	1	1	1	1	1	1	1	1	0	1	-10,641297	274,569752	311,609371	0
15.01.2021	16:56:44	0	0,594842	4,067178	0,816	333,1512	0,539	83,075	0	1016,1	7,3	9,5	9,2	1	1	1	1	1	1	1	1	1	0	1	-8,879493	274,434139	312,734994	0
15.01.2021	16:56:45	0	0,47588	3,841224	0,783	332,0316	0,542	83,068	0	1016,1	7,3	9,3	9,2	1	1	1	1	1	1	1	1	1	0	1	-15,151515	274,557523	307,041746	0
15.01.2021	16:56:46	0	0,47588	3,276338	0,786	334,26	0,544	83,065	0	1016,14	7,3	9,3	9,2	1	1	1	1	1	1	1	1	1	0	1	-10,147992	274,490402	311,730318	0
15.01.2021	16:56:47	0	0,23794	2,598475	0,79725	334,1556	0,54	83,066	0	1016,16	7,3	9,3	9,2	1	1	1	1	1	1	1	1	1	0	1	-7,540521	274,563637	314,681438	0
15.01.2021	16:56:48	0	0,356905	3,728247	0,753	329,9472	0,539	83,057	0	1016,2	7,3	9,5	9,2	1	1	1	1	1	1	1	1	1	0	1	-10,711769	274,44781	310,966805	0
15.01.2021	16:56:49	0	0,35691	3,502292	0,7815	324,4248	0,546	83,067	0	1016,08	7,3	9,3	9,2	1	1	1	1	1	1	1	1	1	0	1	-7,047216	274,545302	315,088682	0
15.01.2021	16:56:50	0	0,832779	3,841224	0,7995	328,2408	0,543	83,07	0	1016,14	7,3	9,5	9,2	1	1	1	1	1	1	1	1	1	0	1	-3,171247	274,452369	318,528701	0
15.01.2021	16:56:51	0	0,237937	3,050384	0,82425	329,2776	0,542	83,057	0	1015,98	7,3	9,5	9,2	1	1	1	1	1	1	1	1	1	0	1	-9,513742	274,411376	311,994054	0
15.01.2021	16:56:52	0	0,356905	4,293133	0,834	324,8496	0,544	83,078	0	1016,14	7,3	9,5	9,2	1	1	1	1	1	1	1	1	1	0	1	-12,332629	274,519358	309,68152	0
15.01.2021	16:56:53	0	0,356905	4,293133	0,837	325,242	0,539	83,079	0	1016,2	7,3	9,5	9,2	1	1	1	1	1	1	1	1	1	0	1	-6,060606	274,371985	315,262619	0
15.01.2021	16:56:54	0	0,35691	2,937407	0,837	327,5064	0,542	83,058	0	1016,16	7,3	9,3	9,2	1	1	1	1	1	1	1	1	1	0	1	-5,073996	274,420478	316,476458	0
15.01.2021	16:56:55	0	0,475874	3,502292	0,831	326,394	0,542	83,073	0	1016,1	7,3	9,5	9,2	1	1	1	1	1	1	1	1	1	0	1	-8,45666	274,520883	313,564646	0
15.01.2021	16:56:56	0	0,594842	2,937407	0,8445	330,0768	0,541	83,08	0	1016,12	7,3	9,5	9,2	1	1	1	1	1	1	1	1	1	0	1	-10,359408	274,425031	311,212384	0
15.01.2021	16:56:57	0	0,356905	4,067178	0,85575	336,222	0,539	83,074	0	1016,14	7,3	9,5	9,2	1	1	1	1	1	1	1	1	1	0	1	-7,540521	274,505636	314,409252	0
15.01.2021	16:56:58	0	0,35691	3,841224	0,85275	334,9224	0,542	83,068	0	1016,1	7,3	9,3	9,2	1	1	1	1	1	1	1	1	1	0	1	-5,144468	274,493448	316,748129	0
15.01.2021	16:56:59	0	0,356905	2,598475	0,83775	332,136	0,543	83,075	0	1016,12	7,3	9,5	9,2	1	1	1	1	1	1	1	1	1	0	1	-12,05074	274,375012	309,286667	0
15.01.2021	16:57:00	0	0,23794	2,598475	0,864	327,1788	0,539	83,073	0	1016,22	7,3	9,3	9,2	1	1	1	1	1	1	1	1	1	0	1	-10,288936	274,473658	311,510843	0
15.01.2021	16:57:01	0	0,23794	2,598475	0,864	327,1788	0,539	83,073	0	1016,22	7,3	9,3	9,2	1	1	1	1	1	1	1	1	1	0	1	-12,896406	274,559051	309,304029	0
15.01.2021	16:57:02	0	0,237937	4,970996	0,8385	322,2396	0,538	83,084	0	1016,18	7,3	9,5	9,2	1	1	1	1	1	1	1	1	1	0	1	-13,03735	274,459969	308,698237	0
15.01.2021	16:57:03	0	0,47588	4,632064	0,8625	325,1376	0,539	83,072	0	1016,06	7,3	9,3	9,2	1	1	1	1	1	1	1	1	1	0	1	-13,107822	274,568223	309,135667	0
15.01.2021	16:57:04	0	0,35691	4,180155	0,87975	325,17	0,542	83,079	0	1016,18	7,3	9,3	9,2	1	1	1	1	1	1	1	1	1	0	1	-8,879493	274,522408	313,14897	0
15.01.2021	16:57:05	0	0,47588	2,937407	0,91275	325,476	0,542	83,087	0	1016,18	7,3	9,3	9,2	1	1	1	1	1	1	1	1	1	0	1	-9,936575	274,417444	311,599657	0
15.01.2021	16:57:06	0	0,35691	3,61527	0,936	319,6008	0,543	83,081	0	1016,1	7,3	9,3	9,2	1	1	1	1	1	1	1	1	1	0	1	-8,879493	274,365932	312,415378	0
15.01.2021	16:57:07	0	0,713821	4,067178	0,95325	315,9252	0,544	83,077	0	1016,08	7,3	9,3	9,2	1	1	1	1	1	1	1	1	1	0	1	-11,768851	274,47518	310,038063	0
15.01.2021	16:57:08	0	0	3,050384	0,96825	320,3784	0,539	83,073	0	1016,06	7,3	9,3	9,2	1	1	1	1	1	1	1	1	1	0	1	-8,80902	274,358368	312,450421	0
15.01.2021	16:57:09	0	0,713821	3,389315	0,92625	320,0004	0,54	83,082	0	1016,2	7,3	9,3	9,2	1	1	1	1	1	1	1	1	1	0	1	-8,80902	274,458449	312,919438	0
15.01.2021	16:57:10	0	0,23794	3,61527	0,927	319,4928	0,545	83,091	0	1016,2	7,3	9,3	9,2	1	1	1	1	1	1	1	1	1	0	1	-10,923185	274,387126	310,470975	0
15.01.2021	16:57:11	0	0,47588	4,293133	0,9	323,7264	0,542	83,085	0	1016,2	7,3	9,3	9,2	1	1	1	1	1	1	1	1	1	0	1	-10,218464	274,557523	311,974798	0
15.01.2021	16:57:12	0	0,356905	3,389315	0,92025	319,1256	0,537	83,072	0	1016,22	7,3	9,5	9,2	1	1	1	1	1	1	1	1	1	0	1	-14,094433	274,440214	307,54853	0
15.01.2021	16:57:13	0	0,475874	3,389315	0,954	316,5876	0,539	83,094	0	1016,2	7,3	9,5	9,2	1	1	1	1	1	1	1	1	1	0	1	-7,963354	274,539194	314,143879	0
15.01.2021	16:57:14	0	0,47588	3,276338	1,01475	325,3572	0,54	83,094	0	1016,16	7,3	9,3	9,2	1	1	1	1	1	1	1	1	1	0	1	-10,077519	274,396216	311,359234	0
15.01.2021	16:57:15	0	0	3,389315	1,0575	323,6832	0,534	83,079	0	1016,18	7,3	9,3	9,2	1	1	1	1	1	1	1	1	1	0	1	-12,05074	274,539194	310,056494	0
15.01.2021	16:57:16	0	0,594851	4,40611	1,101	322,9344	0,544	83,1	0	1016,16	7,3	9,3	9,2	1	1	1	1	1	1	1	1	1	0	1	-7,963354	274,530036	314,100903	0
15.01.2021	16:57:17	0	0,594851	4,067178	1,1235	331,146	0,538	83,094	0	1016,24	7,3	9,3	9,2	1	1	1	1	1	1	1	1	1	0	1	-4,369274	274,484312	317,480469	0
15.01.2021	16:57:18	0	0	2,372521	1,224	323,6904	0,539	83,098	0	1016,28	7,3	9,3	9,2	1	1	1	1	1	1	1	1	1	0	1	-8,315715	274,548357	313,83452	0
15.01.2021	16:57:19	0	0,475874	3,841224	1,3245	321,1848	0,539	83,077	0	1016,14	7,3	9,5	9,2	1	1	1	1	1	1	1	1	1	0	1	-7,610994	274,523933	314,424626	0
15.01.2021	16:57:20	0	0,35691	4,745041	1,398	336,8088	0,541	83,099	0	1016,2	7,3	9,3	9,2	1	1	1	1	1	1	1	1	1	0	1	-8,597604	274,487357	313,266421	0
15.01.2021	16:57:21	0	0	4,067178	1,4235	331,5132	0,534	83,088	0	1016,24	7,3	9,3	9,2	1	1	1	1	1	1	1	1	1	0	1	-8,174771	274,546829	313,968296	0
15.01.2021	16:57:22	0	0,713821	4,293133	1,38825	327,6036	0,541	83,099	0	1016,28	7,3	9,3	9,2	1	1	1	1	1	1	1	1	1	0	1	-11,768851	274,478223	310,052337	0
15.01.2021	16:57:23	0	0,713821	4,858019	1,3725	336,3552	0,541	83,095	0	1016,14	7,3	9,3	9,2	1	1	1	1	1	1	1	1	1	0	1	-10,500352	274,388641	310,900905	0
15.01.2021	16:57:24	0	0,237937	2,711452	1,38	325,512	0,541	83,105	0	1016,32	7,3	9,5	9,2	1	1	1	1	1	1	1	1	1	0	1	-10,993658	274,412893	310,521246	0
15.01.2021	16:57:25	0	0,35691	4,40611	1,39725	331,128	0,536	83,088	0	1016,14	7,3	9,3	9,2	1	1	1	1	1	1	1	1	1	0	1	-7,117689	274,421996	314,439877	0
15.01.2021	16:57:26	0	0,35691	3,163361	1,431	333,1224	0,536	83,09	0	1016	7,3	9,3	9,2	1	1	1	1	1	1	1	1	1	0	1	-6,20155	274,548357	315,948685	0
15.01.2021	16:57:27	0	0,35691	4,293133	1,464	332,46	0,534	83,094	0	1016,2	7,3	9,3	9,2	1	1	1	1	1	1	1	1	1	0	1	-11,980268	274,545302	310,155631	0
15.01.2021	16:57:28	0	0,594851	4,745041	1,44825	332,4132	0,53	83,096	0	1016,16	7,3	9,3	9,2	1	1	1	1	1	1	1	1	1	0	1	-11,41649	274,501065	310,511837	0
15.01.2021	16:57:29	0	0,594851	4,745041	1,413	327,8988	0,535	83,096	0	1016,24	7,3	9,3	9,2	1	1	1	1	1	1	1	1	1	0	1	-10,993658	274,405311	310,485713	0
15.01.2021	16:57:30	0	0,713821	2,937407	1,48125	315,5436	0,537	83,094	0	1016,24	7,3	9,3	9,2	1	1	1	1	1	1	1	1	1	0	1	-8,245243	274,554467	313,933673	0
15.01.2021	16:57:31	0	0,35691	3,276338	1,48575	311,7924	0,54	83,103	0	1016,18	7,3	9,3	9,2	1	1	1	1	1	1	1	1	1	0	1	-11,275546	274,484312	310,574197	0
15.01.2021	16:57:32	0	0,47588	4,40611	1,38975	332,4564	0,543	83,097	0	1016,12	7,3	9,3	9,2	1	1	1	1	1	1	1	1	1	0	1	-11,557435	274,557523	310,635827	0
15.01.2021	16:57:33	0	0,832791	4,632064	1,2705	314,2224	0,538	83,103	0	1016,16	7,3	9,3	9,2	1	1	1	1	1	1	1	1	1	0	1	-8,386187	274,44781	313,292387	0
15.01.2021	16:57:34	0	0	4,40611	1,18125	309,3336	0,534	83,091	0	1016,12	7,3	9,3	9,2	1	1	1	1	1	1	1	1	1	0	1	-7,258633	274,552939	314,913112	0
15.01.2021	16:57:35	0	0,594851	4,632064	1,1235	318,5352	0,536	83,089	0	1015,96	7,3	9,3	9,2	1	1	1	1	1	1	1	1	1	0	1	-11,346018	274,429584	310,247118	0
15.01.2021	16:57:36	0	0	2,937407	1,098	318,7908	0,542	83,102	0	1016,26	7,3	9,5	9,2	1	1	1	1	1	1	1	1	1	0	1	-10,923185	274,362906	310,357512	0
15.01.2021	16:57:37	0	0,35691	3,163361	1,09125	314,7624	0,532	83,085	0	1015,9	7,3	9,3	9,2	1	1	1	1	1	1	1	1	1	0	1	-5,355884	274,470615	316,429624	0
15.01.2021	16:57:38	0	0,47588	3,389315	1,05675	321,858	0,531	83,085	0	1016,02	7,3	9,3	9,2	1	1	1	1	1	1	1	1	1	0	1	-6,765328	274,539194	315,341906	0
15.01.2021	16:57:39	0	0,35691	4,40611	1,05675	324,0936	0,543	83,085	0	1016,2	7,3	9,3	9,2	1	1	1	1	1	1	1	1	1	0	1	-10,288936	274,443252	311,36827	0
15.01.2021	16:57:40	0	0,35691	4,067178	1,0155	317,3544	0,539	83,095	0	1016,2	7,3	9,3	9,2	1	1	1	1	1	1	1	1	1	0	1	-8,315715	274,530036	313,748542	0
15.01.2021	16:57:41	0	0,47588	4,180155	1,038	314,4528	0,535	83,088	0	1016,16	7,3	9,3	9,2	1	1	1	1	1	1	1	1	1	0	1	-5,567301	274,491925	316,318152	0
15.01.2021	16:57:42	0	0,35691	4,519087	0,99225	327,4416	0,54	83,102	0	1016,18	7,3	9,3	9,2	1	1	1	1	1	1	1	1	1	0	1	-7,82241	274,534615	314,263332	0
15.01.2021	16:57:43	0	0	2,033589	0,97875	339,804	0,539	83,103	0	1016,24	7,3	9,3	9,2	1	1	1	1	1	1	1	1	1	0	1	-5,990134	274,353831	315,248059	0
15.01.2021	16:57:44	0	0,594851	4,293133	0,9345	325,9548	0,536	83,107	0	1016,2	7,3	9,3	9,2	1	1	1	1	1	1	1	1	1	0	1	-12,896406	274,418961	308,646936	0
15.01.2021	16:57:45	0	0	2,937407	0,88875	320,7708	0,54	83,104	0	1016,26	7,3	9,3	9,2	1	1	1	1	1	1	1	1	1	0	1	-6,976744	274,361393	314,296867	0
15.01.2021	16:57:46	0	0,23794	2,598475	0,91125	332,4204	0,536	83,091	0	1016,28	7,3	9,3	9,2	1	1	1	1	1	1	1	1	1	0	1	-8,245243	274,511733	313,733135	0
15.01.2021	16:57:47	0	0,47588	3,163361	0,9495	331,1136	0,538	83,105	0	1016,02	7,3	9,3	9,2	1	1	1	1	1	1	1	1	1	0	1	-10,288936	274,420478	311,261518	0
15.01.2021	16:57:48	0	0	4,293133	0,95475	322,9056	0,538	83,108	0	1016,14	7,3	9,3	9,2	1	1	1	1	1	1	1	1	1	0	1	-10,641297	274,533089	311,437283	0
15.01.2021	16:57:49	0	0,594851	4,180155	0,92925	319,5432	0,533	83,096	0	1016	7,3	9,3	9,2	1	1	1	1	1	1	1	1	1	0	1	-6,976744	274,361393	314,296867	0
15.01.2021	16:57:50	0	0,11897	3,050384	0,9615	319,5144	0,539	83,103	0	1016,12	7,3	9,3	9,2	1	1	1	1	1	1	1	1	1	0	1	-7,329105	274,391671	314,086349	0
15.01.2021	16:57:51	0	0	3,61527	0,9945	323,4276	0,54	83,108	0	1016,2	7,3	9,3	9,2	1	1	1	1	1	1	1	1	1	0	1	-10,288936	274,41441	311,233077	0
15.01.2021	16:57:52	0	0,23794	2,711452	1,0065	319,6188	0,537	83,109	0	1016,1	7,3	9,3	9,2	1	1	1	1	1	1	1	1	1	0	1	-12,121212	274,551412	310,043362	0
15.01.2021	16:57:53	0	0,594851	4,745041	1,00275	313,65	0,542	83,116	0	1016,18	7,3	9,3	9,2	1	1	1	1	1	1	1	1	1	0	1	-8,245243	274,466052	313,518867	0
15.01.2021	16:57:54	0	0,23794	4,067178	0,95325	316,0044	0,54	83,114	0	1016,2	7,3	9,3	9,2	1	1	1	1	1	1	1	1	1	0	1	-7,329105	274,519358	314,685044	0
15.01.2021	16:57:55	0	0,23794	3,502292	0,92325	318,8772	0,535	83,109	0	1016,08	7,3	9,3	9,2	1	1	1	1	1	1	1	1	1	0	1	-8,104299	274,482789	313,738305	0
15.01.2021	16:57:56	0	0,35691	3,61527	0,88125	321,1056	0,541	83,114	0	1016,2	7,3	9,3	9,2	1	1	1	1	1	1	1	1	1	0	1	-12,755462	274,526985	309,294476	0
15.01.2021	16:57:57	0	0,23794	2,824429	0,9345	318,1464	0,544	83,106	0	1016,08	7,3	9,3	9,2	1	1	1	1	1	1	1	1	1	0	1	-7,399577	274,453888	314,307498	0
15.01.2021	16:57:58	0	0,11897	4,180155	0,96675	316,6524	0,536	83,117	0	1016,14	7,3	9,3	9,2	1	1	1	1	1	1	1	1	1	0	1	-10,288936	274,536141	311,80397	0
15.01.2021	16:57:59	0	0,11897	2,824429	0,98625	321,7644	0,532	83,095	0	1016	7,3	9,3	9,2	1	1	1	1	1	1	1	1	1	0	1	-11,627907	274,466052	310,136203	0
15.01.2021	16:58:00	0	0	2,372521	0,97575	325,5408	0,539	83,11	0	1016,18	7,3	9,3	9,2	1	1	1	1	1	1	1	1	1	0	1	-4,651163	274,406827	316,835313	0
15.01.2021	16:58:01	0	0	2,372521	0,97575	325,5408	0,539	83,11	0	1016,18	7,3	9,3	9,2	1	1	1	1	1	1	1	1	1	0	1	-10,077519	274,487357	311,786506	0
15.01.2021	16:58:02	0	0,47588	3,050384	0,94725	333,2016	0,534	83,104	0	1016,04	7,3	9,3	9,2	1	1	1	1	1	1	1	1	1	0	1	-6,060606	274,358368	315,198836	0
15.01.2021	16:58:03	0	0,594851	3,728247	0,90975	330,8256	0,537	83,112	0	1016,06	7,3	9,3	9,2	1	1	1	1	1	1	1	1	1	0	1	-11,346018	274,537668	310,754051	0
15.01.2021	16:58:04	0	0,23794	2,824429	0,891	332,7984	0,54	83,114	0	1016,02	7,3	9,3	9,2	1	1	1	1	1	1	1	1	1	0	1	-3,382664	274,437176	318,24606	0
15.01.2021	16:58:05	0	0,11897	2,937407	0,8625	332,8056	0,53	83,109	0	1016,04	7,3	9,3	9,2	1	1	1	1	1	1	1	1	1	0	1	-7,258633	274,370471	314,057503	0
15.01.2021	16:58:06	0	0,23794	4,40611	0,879	329,7384	0,533	83,099	0	1016,18	7,3	9,3	9,2	1	1	1	1	1	1	1	1	1	0	1	-11,41649	274,428066	310,16953	0
15.01.2021	16:58:07	0	0,594851	3,61527	0,954	324,7668	0,534	83,104	0	1016,04	7,3	9,3	9,2	1	1	1	1	1	1	1	1	1	0	1	-11,06413	274,537668	311,03594	0
15.01.2021	16:58:08	0	0,713821	4,632064	1,01625	321,1128	0,534	83,125	0	1016,14	7,3	9,3	9,2	1	1	1	1	1	1	1	1	1	0	1	-10,42988	274,459969	311,305707	0
15.01.2021	16:58:09	0	0,23794	4,180155	1,059	320,7492	0,538	83,118	0	1016,04	7,3	9,3	9,2	1	1	1	1	1	1	1	1	1	0	1	-6,060606	274,362906	315,220091	0
15.01.2021	16:58:10	0	0,47588	4,858019	1,089	334,8792	0,54	83,121	0	1016,14	7,3	9,3	9,2	1	1	1	1	1	1	1	1	1	0	1	-13,107822	274,494971	308,791919	0
15.01.2021	16:58:11	0	0,23794	3,389315	1,09125	342,0288	0,537	83,124	0	1016,26	7,3	9,3	9,2	1	1	1	1	1	1	1	1	1	0	1	-9,513742	274,522408	312,51472	0
15.01.2021	16:58:12	0	0,35691	4,180155	1,0725	335,3508	0,532	83,123	0	1016,1	7,3	9,3	9,2	1	1	1	1	1	1	1	1	1	0	1	-10,218464	274,482789	311,62414	0
15.01.2021	16:58:13	0	0,35691	4,293133	1,0215	345,3624	0,534	83,104	0	1016,04	7,3	9,3	9,2	1	1	1	1	1	1	1	1	1	0	1	-9,231853	274,353831	312,006339	0
15.01.2021	16:58:14	0	0,23794	4,519141	0,97125	338,3928	0,529	83,11	0	1016,16	7,3	9,3	9	1	1	1	1	1	1	1	1	1	0	1	-9,231853	274,44629	312,439597	0
15.01.2021	16:58:15	0	0,47588	4,632064	0,9195	321,8976	0,535	83,122	0	1016,12	7,3	9,3	9,2	1	1	1	1	1	1	1	1	1	0	1	-4,157858	274,355343	317,087418	0
15.01.2021	16:58:16	0	0,23794	2,824463	0,873	314,0748	0,537	83,111	0	1016,18	7,3	9,3	9	1	1	1	1	1	1	1	1	1	0	1	-6,906272	274,473658	314,893506	0
15.01.2021	16:58:17	0	0,47588	4,180155	0,825	308,8944	0,535	83,128	0	1016,08	7,3	9,3	9,2	1	1	1	1	1	1	1	1	1	0	1	-7,963354	274,496494	313,943532	0
15.01.2021	16:58:18	0	0,11897	2,711452	0,82725	307,206	0,533	83,122	0	1016,1	7,3	9,3	9,2	1	1	1	1	1	1	1	1	1	0	1	-6,342495	274,353831	314,895698	0
15.01.2021	16:58:19	0	0,47588	3,05042	0,7665	309,546	0,53	83,123	0	1016,22	7,3	9,3	9	1	1	1	1	1	1	1	1	1	0	1	-14,023961	274,40986	307,476728	0
15.01.2021	16:58:20	0	0,35691	4,632064	0,7515	310,9932	0,536	83,122	0	1016,06	7,3	9,3	9,2	1	1	1	1	1	1	1	1	1	0	1	-7,399577	274,539194	314,707657	0
15.01.2021	16:58:21	0	0,594851	4,632064	0,7545	314,1684	0,535	83,128	0	1016,3	7,3	9,3	9,2	1	1	1	1	1	1	1	1	1	0	1	-8,104299	274,470615	313,68121	0
15.01.2021	16:58:22	0	0,35691	5,083973	0,80925	326,808	0,529	83,112	0	1016,06	7,3	9,3	9,2	1	1	1	1	1	1	1	1	1	0	1	-8,738548	274,373498	312,591768	0
15.01.2021	16:58:23	0	0,47588	2,824429	0,78975	330,7932	0,531	83,124	0	1016,12	7,3	9,3	9,2	1	1	1	1	1	1	1	1	1	0	1	-11,557435	274,450849	310,135388	0
15.01.2021	16:58:24	0	0,11897	4,293184	0,81075	312,8868	0,529	83,132	0	1016,12	7,3	9,3	9	1	1	1	1	1	1	1	1	1	0	1	-7,681466	274,539194	314,425768	0
15.01.2021	16:58:25	0	0,594851	4,40611	0,855	317,4336	0,529	83,119	0	1016,18	7,3	9,3	9,2	1	1	1	1	1	1	1	1	1	0	1	-5,778717	274,470615	316,006792	0
15.01.2021	16:58:26	0	0,11897	5,19695	0,8895	322,524	0,529	83,124	0	1016,04	7,3	9,3	9,2	1	1	1	1	1	1	1	1	1	0	1	-12,121212	274,534615	309,96453	0
15.01.2021	16:58:27	0	0,35691	3,728247	0,87225	319,6512	0,534	83,148	0	1016,1	7,3	9,3	9,2	1	1	1	1	1	1	1	1	1	0	1	-10,077519	274,530036	311,986738	0
15.01.2021	16:58:28	0	0,47588	4,632064	0,858	320,7924	0,533	83,129	0	1016,24	7,3	9,3	9,2	1	1	1	1	1	1	1	1	1	0	1	-11,205074	274,400763	310,252985	0
15.01.2021	16:58:29	0	0,47588	4,180155	0,92925	329,346	0,532	83,136	0	1016,08	7,3	9,3	9,2	1	1	1	1	1	1	1	1	1	0	1	-9,866103	274,478223	311,955085	0
15.01.2021	16:58:30	0	0,47588	3,61527	0,92925	333,486	0,533	83,132	0	1016,12	7,3	9,3	9,2	1	1	1	1	1	1	1	1	1	0	1	-8,668076	274,358368	312,591366	0
15.01.2021	16:58:31	0	0,47588	4,745098	0,9615	330,39	0,537	83,191	0	1016,22	7,3	9,3	9	1	1	1	1	1	1	1	1	1	0	1	-12,896406	274,393186	308,526147	0
15.01.2021	16:58:32	0	0	4,632064	1,00725	329,7708	0,535	83,137	0	1016,12	7,3	9,3	9,2	1	1	1	1	1	1	1	1	1	0	1	-7,540521	274,35988	313,726005	0
15.01.2021	16:58:33	0	0,594851	4,293133	1,017	333,8028	0,534	83,148	0	1016,22	7,3	9,3	9,2	1	1	1	1	1	1	1	1	1	0	1	-9,161381	274,539194	312,945853	0
15.01.2021	16:58:34	0	0	3,954201	1,01625	331,5384	0,538	83,145	0	1016,18	7,3	9,3	9,2	1	1	1	1	1	1	1	1	1	0	1	-7,117689	274,526985	314,932249	0
15.01.2021	16:58:35	0	0,47588	2,598475	0,95175	330,4944	0,538	83,129	0	1016,02	7,3	9,3	9,2	1	1	1	1	1	1	1	1	1	0	1	-10,147992	274,432621	311,459377	0
15.01.2021	16:58:36	0	0,35691	3,163361	0,9585	333,2196	0,536	83,145	0	1016,02	7,3	9,3	9,2	1	1	1	1	1	1	1	1	1	0	1	-5,637773	274,365932	315,657097	0
15.01.2021	16:58:37	0	0,475877	4,067178	0,918	333,8928	0,531	83,136	0	1016,16	7,3	9,4	9,2	1	1	1	1	1	1	1	1	1	0	1	-6,906272	274,479745	314,922054	0
15.01.2021	16:58:38	0	0	2,937407	0,9105	330,8004	0,534	83,142	0	1016,16	7,3	9,3	9,2	1	1	1	1	1	1	1	1	1	0	1	-8,033827	274,346272	313,168964	0
15.01.2021	16:58:39	0	0,47588	4,970996	0,8805	327,4884	0,535	83,145	0	1016,1	7,3	9,3	9,2	1	1	1	1	1	1	1	1	1	0	1	-10,147992	274,426549	311,430914	0
15.01.2021	16:58:40	0	0,35691	2,598506	0,88275	334,6704	0,533	83,148	0	1016,16	7,3	9,3	9	1	1	1	1	1	1	1	1	1	0	1	-5,919662	274,402279	315,5455	0
15.01.2021	16:58:41	0	0	3,502334	0,873	334,9152	0,537	83,139	0	1016,12	7,2	9,3	9	1	1	1	1	1	1	1	1	1	0	1	-10,852713	274,343249	310,335922	0
15.01.2021	16:58:42	0	0,35691	3,050384	0,8205	323,2944	0,533	83,135	0	1016,14	7,3	9,3	9,2	1	1	1	1	1	1	1	1	1	0	1	-7,470049	274,453888	314,237026	0
15.01.2021	16:58:43	0	0,11897	4,970996	0,843	327,0888	0,533	83,149	0	1016,26	7,3	9,3	9,2	1	1	1	1	1	1	1	1	1	0	1	-6,412967	274,520883	315,608338	0
15.01.2021	16:58:44	0	0,47588	4,40611	0,816	340,6572	0,531	83,133	0	1016,02	7,3	9,3	9,2	1	1	1	1	1	1	1	1	1	0	1	-8,315715	274,403795	313,156551	0
15.01.2021	16:58:45	0	0	2,824429	0,80775	337,158	0,532	83,123	0	1016,08	7,3	9,3	9,2	1	1	1	1	1	1	1	1	1	0	1	-10,42988	274,346272	310,772911	0
15.01.2021	16:58:46	0	0,35691	3,163399	0,79125	332,8092	0,533	83,129	0	1016,06	7,2	9,3	9	1	1	1	1	1	1	1	1	1	0	1	-8,033827	274,472137	313,758817	0
15.01.2021	16:58:47	0	0	3,050384	0,789	336,4236	0,532	83,133	0	1016,1	7,3	9,3	9,2	1	1	1	1	1	1	1	1	1	0	1	-9,090909	274,381068	312,274869	0
15.01.2021	16:58:48	0	0	3,615313	0,79275	340,542	0,536	83,146	0	1016,22	7,3	9,3	9	1	1	1	1	1	1	1	1	1	0	1	-8,033827	274,513258	313,951704	0
15.01.2021	16:58:49	0	0,23794	3,050384	0,72375	330,084	0,534	83,133	0	1016,1	7,2	9,3	9,2	1	1	1	1	1	1	1	1	1	0	1	-6,342495	274,397732	315,10136	0
15.01.2021	16:58:50	0	0,23794	4,519141	0,7695	314,424	0,537	83,139	0	1016,18	7,3	9,3	9	1	1	1	1	1	1	1	1	1	0	1	-12,403101	274,505636	309,546673	0
15.01.2021	16:58:51	0	0,47588	4,63212	0,81075	316,6668	0,538	83,146	0	1016,08	7,3	9,3	9	1	1	1	1	1	1	1	1	1	0	1	-9,090909	274,498018	312,823124	0
15.01.2021	16:58:52	0	0	3,389315	0,8295	330,2784	0,534	83,151	0	1016,16	7,3	9,4	9,2	1	1	1	1	1	1	1	1	1	0	1	-10,711769	274,343249	310,476866	0
15.01.2021	16:58:53	0	0,35691	3,502334	0,825	328,5396	0,533	83,149	0	1016,06	7,3	9,3	9	1	1	1	1	1	1	1	1	1	0	1	-6,20155	274,470615	315,583959	0
15.01.2021	16:58:54	0	0	2,259571	0,8745	319,1976	0,535	83,152	0	1016,2	7,3	9,3	9	1	1	1	1	1	1	1	1	1	0	1	-9,231853	274,34476	311,963859	0
15.01.2021	16:58:55	0	0	3,954201	0,8535	309,2688	0,537	83,127	0	1016,12	7,3	9,3	9,2	1	1	1	1	1	1	1	1	1	0	1	-8,949965	274,393186	312,472588	0
15.01.2021	16:58:56	0	0,35691	4,40611	0,86625	309,9384	0,536	83,148	0	1016,1	7,3	9,3	9,2	1	1	1	1	1	1	1	1	1	0	1	-8,45666	274,498018	313,457373	0
15.01.2021	16:58:57	0	0,594851	4,519087	0,84075	321,1164	0,525	83,144	0	1016,08	7,3	9,3	9,2	1	1	1	1	1	1	1	1	1	0	1	-8,738548	274,347783	312,471322	0
15.01.2021	16:58:58	0	0,47588	4,858077	0,84675	320,7672	0,531	83,157	0	1016,18	7,2	9,3	9	1	1	1	1	1	1	1	1	1	0	1	-6,8358	274,397732	314,608055	0
15.01.2021	16:58:59	0	0,23794	4,745098	0,903	312,4476	0,535	83,149	0	1016,32	7,3	9,3	9	1	1	1	1	1	1	1	1	1	0	1	-10,782241	274,526985	311,267696	0
15.01.2021	16:59:00	0	0,47588	4,745098	0,9765	329,2452	0,533	83,155	0	1016,26	7,3	9,3	9	1	1	1	1	1	1	1	1	1	0	1	-7,117689	274,44629	314,553762	0
15.01.2021	16:59:01	0	0,47588	4,745098	0,9765	329,2452	0,533	83,155	0	1016,26	7,3	9,3	9	1	1	1	1	1	1	1	1	1	0	1	-8,80902	274,338716	312,358386	0
15.01.2021	16:59:02	0	0,35691	4,067178	0,966	323,2296	0,536	83,16	0	1016,22	7,2	9,3	9,2	1	1	1	1	1	1	1	1	1	0	1	-8,245243	274,40986	313,255445	0
15.01.2021	16:59:03	0	0,23794	2,824463	0,99975	319,554	0,535	83,157	0	1015,96	7,3	9,3	9	1	1	1	1	1	1	1	1	1	0	1	-5,073996	274,326632	316,036829	0
15.01.2021	16:59:04	0	0,35691	3,276338	1,0395	328,1976	0,533	83,151	0	1016,1	7,2	9,3	9,2	1	1	1	1	1	1	1	1	1	0	1	-7,610994	274,481267	314,224471	0
15.01.2021	16:59:05	0	0,47588	4,067178	1,02375	333,4212	0,527	83,152	0	1016,16	7,2	9,3	9,2	1	1	1	1	1	1	1	1	1	0	1	-6,906272	274,494971	314,99347	0
15.01.2021	16:59:06	0	0,594851	4,519087	1,0095	334,5516	0,53	83,15	0	1016,12	7,3	9,3	9,2	1	1	1	1	1	1	1	1	1	0	1	-10,852713	274,390156	310,555642	0
15.01.2021	16:59:07	0	0,23794	3,61527	1,0245	334,6956	0,536	83,161	0	1016,12	7,2	9,3	9,2	1	1	1	1	1	1	1	1	1	0	1	-7,540521	274,355343	313,704754	0
15.01.2021	16:59:08	0	0	4,406163	1,0395	333,4968	0,529	83,169	0	1016,08	7,3	9,3	9	1	1	1	1	1	1	1	1	1	0	1	-7,329105	274,513258	314,656426	0
15.01.2021	16:59:09	0	0,475877	3,050384	1,02225	330,8076	0,53	83,158	0	1016,2	7,2	9,4	9,2	1	1	1	1	1	1	1	1	1	0	1	-10,641297	274,423513	310,923382	0
15.01.2021	16:59:10	0	0,35691	3,05042	0,9705	333,7956	0,53	83,169	0	1016,22	7,2	9,3	9	1	1	1	1	1	1	1	1	1	0	1	-10,288936	274,484312	311,560807	0
15.01.2021	16:59:11	0	0	2,598506	0,9495	335,322	0,535	83,165	0	1016,18	7,3	9,3	9	1	1	1	1	1	1	1	1	1	0	1	-11,205074	274,525459	310,837704	0
15.01.2021	16:59:12	0	0,35691	3,502292	0,9015	334,3104	0,524	83,159	0	1016	7,3	9,3	9,2	1	1	1	1	1	1	1	1	1	0	1	-10,641297	274,458449	311,087161	0
15.01.2021	16:59:13	0	0,594851	3,954249	0,87825	332,3736	0,532	83,171	0	1016,28	7,3	9,3	9	1	1	1	1	1	1	1	1	1	0	1	-9,44327	274,514783	312,549414	0
15.01.2021	16:59:14	0	0,23794	2,824463	0,85875	326,6748	0,534	83,154	0	1016,16	7,2	9,3	9	1	1	1	1	1	1	1	1	1	0	1	-7,892882	274,403795	313,579384	0
15.01.2021	16:59:15	0	0,594851	5,083973	0,90225	322,9704	0,526	83,152	0	1015,9	7,2	9,3	9,2	1	1	1	1	1	1	1	1	1	0	1	-10,147992	274,385611	311,239072	0
15.01.2021	16:59:16	0	0,23794	2,937407	0,9045	322,9236	0,533	83,164	0	1016,2	7,2	9,3	9,2	1	1	1	1	1	1	1	1	1	0	1	-9,584214	274,491925	312,301239	0
15.01.2021	16:59:17	0	0,35691	5,19695	0,984	323,7516	0,533	83,156	0	1016,1	7,2	9,3	9,2	1	1	1	1	1	1	1	1	1	0	1	-10,359408	274,510209	311,611818	0
15.01.2021	16:59:18	0	0,47588	3,84127	0,98325	324,0504	0,528	83,156	0	1016,04	7,2	9,3	9	1	1	1	1	1	1	1	1	1	0	1	-7,399577	274,458449	314,328881	0
15.01.2021	16:59:19	0	0,23794	2,937442	1,0185	322,2684	0,535	83,158	0	1016,2	7,3	9,3	9	1	1	1	1	1	1	1	1	1	0	1	-7,399577	274,387126	313,994583	0
15.01.2021	16:59:20	0	0	2,485528	1,0455	320,832	0,537	83,169	0	1016,24	7,3	9,3	9	1	1	1	1	1	1	1	1	1	0	1	-11,486963	274,361393	309,786649	0
15.01.2021	16:59:21	0	0,23794	2,033614	1,0875	321,9048	0,528	83,167	0	1016,12	7,2	9,3	9	1	1	1	1	1	1	1	1	1	0	1	-6,060606	274,441733	315,589478	0
15.01.2021	16:59:22	0	0	4,858077	1,086	323,7192	0,535	83,167	0	1016,06	7,2	9,4	9	1	1	1	1	1	1	1	1	1	0	1	-10,570825	274,520883	311,450481	0
15.01.2021	16:59:23	0	0,475877	4,519141	1,1025	324,072	0,529	83,144	0	1016,16	7,2	9,4	9	1	1	1	1	1	1	1	1	1	0	1	-9,795631	274,428066	311,79039	0
15.01.2021	16:59:24	0	0,11897	3,954249	1,128	323,7192	0,535	83,17	0	1016,16	7,3	9,3	9	1	1	1	1	1	1	1	1	1	0	1	-10,923185	274,514783	311,069499	0
15.01.2021	16:59:25	0	0,23794	4,858077	1,137	318,1176	0,535	83,177	0	1016,2	7,2	9,3	9	1	1	1	1	1	1	1	1	1	0	1	-10,711769	274,417444	310,824463	0
15.01.2021	16:59:26	0	0,23794	4,406163	1,1595	319,5	0,536	83,174	0	1016,08	7,2	9,3	9	1	1	1	1	1	1	1	1	1	0	1	-10,288936	274,520883	311,732369	0
15.01.2021	16:59:27	0	0,35691	2,711485	1,188	322,1424	0,531	83,15	0	1016,06	7,2	9,3	9	1	1	1	1	1	1	1	1	1	0	1	-7,540521	274,432621	314,066847	0
15.01.2021	16:59:28	0	0,23794	4,293184	1,1595	321,1164	0,534	83,172	0	1016,18	7,3	9,3	9	1	1	1	1	1	1	1	1	1	0	1	-8,597604	274,349295	312,619346	0
15.01.2021	16:59:29	0	0,23794	3,954249	1,14975	323,352	0,537	83,173	0	1016,12	7,2	9,3	9	1	1	1	1	1	1	1	1	1	0	1	-5,21494	274,490402	316,66337	0
15.01.2021	16:59:30	0	0	3,502334	1,1355	319,1904	0,533	83,164	0	1016,26	7,2	9,4	9	1	1	1	1	1	1	1	1	1	0	1	-9,231853	274,473658	312,567925	0
15.01.2021	16:59:31	0	0,35691	3,61527	1,095	318,8232	0,528	83,147	0	1016,18	7,3	9,3	9,2	1	1	1	1	1	1	1	1	1	0	1	-10,923185	274,376526	310,421313	0
15.01.2021	16:59:32	0	0,356908	4,067227	1,04625	320,3856	0,535	83,173	0	1016,2	7,3	9,4	9	1	1	1	1	1	1	1	1	1	0	1	-6,060606	274,375012	315,276801	0
15.01.2021	16:59:33	0	0	2,598506	1,01325	317,7432	0,532	83,173	0	1016,24	7,2	9,4	9	1	1	1	1	1	1	1	1	1	0	1	-6,906272	274,375012	314,431135	0
15.01.2021	16:59:34	0	0,237939	3,728292	1,01475	320,76	0,529	83,165	0	1016,06	7,3	9,4	9	1	1	1	1	1	1	1	1	1	0	1	-8,597604	274,393186	312,824949	0
15.01.2021	16:59:35	0	0,23794	4,745098	1,01925	323,352	0,53	83,164	0	1016,22	7,3	9,3	9	1	1	1	1	1	1	1	1	1	0	1	-10,077519	274,482789	311,765084	0
15.01.2021	16:59:36	0	0	4,519087	1,01925	324,378	0,54	83,169	0	1016,2	7,3	9,4	9,2	1	1	1	1	1	1	1	1	1	0	1	-5,567301	274,523933	316,468319	0
15.01.2021	16:59:37	0	0,23794	3,615313	1,05	322,9632	0,528	83,158	0	1016,14	7,2	9,3	9	1	1	1	1	1	1	1	1	1	0	1	-7,047216	274,423513	314,517462	0
15.01.2021	16:59:38	0	0,11897	3,615313	1,1085	324,1296	0,531	83,155	0	1016,04	7,2	9,3	9	1	1	1	1	1	1	1	1	1	0	1	-7,470049	274,338716	313,697357	0
15.01.2021	16:59:39	0	0,23794	2,824463	1,149	320,7924	0,529	83,166	0	1016,18	7,2	9,3	9	1	1	1	1	1	1	1	1	1	0	1	-6,060606	274,408343	315,432976	0
15.01.2021	16:59:40	0	0	4,067227	1,16925	319,1256	0,532	83,181	0	1016,16	7,2	9,4	9	1	1	1	1	1	1	1	1	1	0	1	-7,610994	274,329652	313,513973	0
15.01.2021	16:59:41	0	0,47588	2,824463	1,1415	326,0196	0,529	83,171	0	1015,96	7,3	9,3	9	1	1	1	1	1	1	1	1	1	0	1	-11,486963	274,449329	310,198736	0
15.01.2021	16:59:42	0	0,23794	4,971055	1,14675	322,6212	0,533	83,168	0	1016,22	7,2	9,3	9	1	1	1	1	1	1	1	1	1	0	1	-7,470049	274,517833	314,536944	0
15.01.2021	16:59:43	0	0	3,954249	1,15425	324,6552	0,53	83,167	0	1016,14	7,2	9,4	9	1	1	1	1	1	1	1	1	1	0	1	-9,654686	274,411376	311,853109	0
15.01.2021	16:59:44	0	0,594846	4,745098	1,1265	323,3772	0,526	83,17	0	1016,12	7,2	9,4	9	1	1	1	1	1	1	1	1	1	0	1	-3,946441	274,338716	317,220965	0
15.01.2021	16:59:45	0	0,23794	4,293184	1,10025	326,7648	0,53	83,174	0	1016,16	7,2	9,3	9	1	1	1	1	1	1	1	1	1	0	1	-10,359408	274,415927	311,169714	0
15.01.2021	16:59:46	0	0,47588	4,858077	1,065	324,1404	0,533	83,169	0	1016,16	7,2	9,3	9	1	1	1	1	1	1	1	1	1	0	1	-8,597604	274,329652	312,527362	0
15.01.2021	16:59:47	0	0	3,05042	1,0215	327,0924	0,528	83,17	0	1016,32	7,2	9,4	9	1	1	1	1	1	1	1	1	1	0	1	-5,496829	274,376526	315,84767	0
15.01.2021	16:59:48	0	0,23794	4,293184	1,0005	336,3696	0,529	83,17	0	1016,1	7,2	9,3	9	1	1	1	1	1	1	1	1	1	0	1	-10,711769	274,400763	310,74629	0
15.01.2021	16:59:49	0	0	2,259571	0,984	338,7852	0,528	83,163	0	1016,12	7,3	9,3	9	1	1	1	1	1	1	1	1	1	0	1	-10,923185	274,361393	310,350426	0
15.01.2021	16:59:50	0	0,237939	4,067227	0,96	337,1508	0,53	83,167	0	1016,26	7,2	9,4	9	1	1	1	1	1	1	1	1	1	0	1	-14,023961	274,502589	307,911515	0
15.01.2021	16:59:51	0	0,356908	3,615313	0,9645	338,3424	0,533	83,174	0	1016,08	7,2	9,4	9	1	1	1	1	1	1	1	1	1	0	1	-11,205074	274,44781	310,4735	0
15.01.2021	16:59:52	0	0	5,084034	0,94725	336,3336	0,53	83,183	0	1016,1	7,2	9,3	9	1	1	1	1	1	1	1	1	1	0	1	-8,668076	274,525459	313,374702	0
15.01.2021	16:59:53	0	0,594851	5,084034	0,9675	333,8136	0,524	83,172	0	1016,04	7,3	9,3	9	1	1	1	1	1	1	1	1	1	0	1	-8,668076	274,437176	312,960647	0
15.01.2021	16:59:54	0	0,47588	5,084034	0,98025	334,1952	0,531	83,178	0	1016,14	7,2	9,3	9	1	1	1	1	1	1	1	1	1	0	1	-7,470049	274,335694	313,683208	0
15.01.2021	16:59:55	0	0	2,824463	0,98925	335,3544	0,529	83,178	0	1016,22	7,2	9,4	9	1	1	1	1	1	1	1	1	1	0	1	-6,624383	274,385611	314,76268	0
15.01.2021	16:59:56	0	0,118969	3,05042	1,00875	333,3204	0,532	83,175	0	1016,12	7,2	9,4	9	1	1	1	1	1	1	1	1	1	0	1	-10,500352	274,328142	310,617543	0
15.01.2021	16:59:57	0	0,23794	4,293184	1,0575	331,1928	0,526	83,181	0	1016,2	7,2	9,3	9	1	1	1	1	1	1	1	1	1	0	1	-6,8358	274,396216	314,600953	0
15.01.2021	16:59:58	0	0,475877	5,084034	1,06875	333,1512	0,528	83,176	0	1016,14	7,2	9,4	9	1	1	1	1	1	1	1	1	1	0	1	-10,711769	274,50716	311,245155	0
15.01.2021	16:59:59	0	0	3,389356	1,0275	336,78	0,536	83,179	0	1016,16	7,2	9,3	9	1	1	1	1	1	1	1	1	1	0	1	-11,134602	274,47518	310,672312	0
15.01.2021	17:00:00	0	0,237939	3,728292	0,999	332,8272	0,531	83,182	0	1016,24	7,2	9,4	9	1	1	1	1	1	1	1	1	1	0	1	-6,20155	274,362906	315,079147	0
15.01.2021	17:00:01	0	0,237939	3,728292	0,999	332,8272	0,531	83,182	0	1016,24	7,2	9,4	9	1	1	1	1	1	1	1	1	1	0	1	-6,20155	274,362906	315,079147	0
15.01.2021	17:00:02	0	0	2,372549	0,9855	330,7896	0,53	83,177	0	1016,04	7,2	9,4	9	1	1	1	1	1	1	1	1	1	0	1	-9,090909	274,381068	312,274869	0
15.01.2021	17:00:03	0	0	2,824429	0,96825	335,6676	0,534	83,169	0	1016,1	7,2	9,3	9,2	1	1	1	1	1	1	1	1	1	0	1	-8,668076	274,517833	313,338917	0
15.01.2021	17:00:04	0	0,237939	4,63212	0,98475	334,998	0,533	83,196	0	1016,2	7,2	9,4	9	1	1	1	1	1	1	1	1	1	0	1	-8,315715	274,421996	313,241851	0
15.01.2021	17:00:05	0	0	3,276338	0,945	333,486	0,532	83,183	0	1016,24	7,2	9,4	9,2	1	1	1	1	1	1	1	1	1	0	1	-13,389711	274,332673	307,749399	0
15.01.2021	17:00:06	0	0	3,84127	0,99	334,2384	0,526	83,179	0	1016,06	7,3	9,4	9	1	1	1	1	1	1	1	1	1	0	1	-10,923185	274,40986	310,577503	0
15.01.2021	17:00:07	0	0,356908	4,180206	1,0875	330,1092	0,529	83,193	0	1016	7,2	9,4	9	1	1	1	1	1	1	1	1	1	0	1	-12,191684	274,493448	309,700913	0
15.01.2021	17:00:08	0	0,356908	3,954249	1,14225	334,6524	0,529	83,193	0	1016,14	7,2	9,4	9	1	1	1	1	1	1	1	1	1	0	1	-7,610994	274,40986	313,889695	0
15.01.2021	17:00:09	0	0,237939	3,276377	1,098	335,3724	0,533	83,195	0	1016,2	7,2	9,4	9	1	1	1	1	1	1	1	1	1	0	1	-10,147992	274,328142	310,969904	0
15.01.2021	17:00:10	0	0,23794	4,406163	1,1235	334,2312	0,533	83,189	0	1016,14	7,2	9,3	9	1	1	1	1	1	1	1	1	1	0	1	-7,82241	274,411376	313,685386	0
15.01.2021	17:00:11	0	0	2,937442	1,11975	334,5336	0,531	83,196	0	1016,12	7,2	9,4	9	1	1	1	1	1	1	1	1	1	0	1	-9,020437	274,494971	312,879305	0
15.01.2021	17:00:12	0	0	4,519141	1,0815	336,1032	0,529	83,187	0	1016,18	7,2	9,3	9	1	1	1	1	1	1	1	1	1	0	1	-5,919662	274,425031	315,65213	0
15.01.2021	17:00:13	0	0,23794	3,728292	1,095	331,0956	0,527	83,176	0	1016,36	7,2	9,3	9	1	1	1	1	1	1	1	1	1	0	1	-11,275546	274,343249	309,913089	0
15.01.2021	17:00:14	0	0	3,954201	1,07025	337,248	0,534	83,192	0	1016,1	7,2	9,4	9,2	1	1	1	1	1	1	1	1	1	0	1	-11,134602	274,331163	309,997436	0
15.01.2021	17:00:15	0	0,118969	3,05042	1,0785	333,8496	0,526	83,185	0	1016	7,2	9,4	9	1	1	1	1	1	1	1	1	1	0	1	-13,6716	274,472137	308,121044	0
15.01.2021	17:00:16	0	0	2,824463	1,0905	330,0732	0,532	83,188	0	1016,12	7,2	9,4	9	1	1	1	1	1	1	1	1	1	0	1	-10,711769	274,504112	311,230855	0
15.01.2021	17:00:17	0	0,118969	4,067227	1,0875	330,7896	0,533	83,198	0	1016,04	7,2	9,4	9	1	1	1	1	1	1	1	1	1	0	1	-5,990134	274,443252	315,667071	0
15.01.2021	17:00:18	0	0	3,502334	1,03275	332,3556	0,53	83,195	0	1016,04	7,2	9,4	9	1	1	1	1	1	1	1	1	1	0	1	-9,231853	274,316065	311,829499	0
15.01.2021	17:00:19	0	0,237939	4,180206	1,029	329,2812	0,536	83,202	0	1016,16	7,2	9,4	9	1	1	1	1	1	1	1	1	1	0	1	-9,866103	274,46149	311,876614	0
15.01.2021	17:00:20	0	0,11897	3,163399	1,05825	327,1212	0,532	83,204	0	1016,08	7,2	9,3	9	1	1	1	1	1	1	1	1	1	0	1	-11,06413	274,349295	310,15282	0
15.01.2021	17:00:21	0	0,237939	3,502334	1,08675	331,488	0,529	83,198	0	1016,08	7,2	9,4	9	1	1	1	1	1	1	1	1	1	0	1	-8,386187	274,340227	312,788294	0
15.01.2021	17:00:22	0	0,237939	4,858077	1,11525	329,2524	0,535	83,199	0	1016,2	7,2	9,4	9	1	1	1	1	1	1	1	1	1	0	1	-10,288936	274,455409	311,425266	0
15.01.2021	17:00:23	0	0,35691	4,971055	1,16325	328,59	0,522	83,193	0	1016,08	7,2	9,3	9	1	1	1	1	1	1	1	1	1	0	1	-8,315715	274,508685	313,648359	0
15.01.2021	17:00:24	0	0	4,745098	1,20075	325,1916	0,527	83,199	0	1016,04	7,2	9,4	9	1	1	1	1	1	1	1	1	1	0	1	-7,188161	274,423513	314,376518	0
15.01.2021	17:00:25	0	0,118969	3,84127	1,25175	320,4288	0,534	83,195	0	1016,2	7,2	9,4	9	1	1	1	1	1	1	1	1	1	0	1	-7,470049	274,504112	314,472575	0
15.01.2021	17:00:26	0	0	2,824463	1,275	325,116	0,531	83,188	0	1016,08	7,3	9,4	9	1	1	1	1	1	1	1	1	1	0	1	-6,483439	274,487357	315,380586	0
15.01.2021	17:00:27	0	0	5,197012	1,29825	328,572	0,526	83,19	0	1016,08	7,2	9,4	9	1	1	1	1	1	1	1	1	1	0	1	-5,426357	274,498018	316,487676	0
15.01.2021	17:00:28	0	0,118969	2,711485	1,3035	322,236	0,528	83,203	0	1016,18	7,2	9,4	9	1	1	1	1	1	1	1	1	1	0	1	-9,584214	274,390156	311,824141	0
15.01.2021	17:00:29	0	0	3,276377	1,34925	316,9872	0,532	83,201	0	1016,22	7,2	9,3	9	1	1	1	1	1	1	1	1	1	0	1	-8,879493	274,313047	312,16773	0
15.01.2021	17:00:30	0	0,118969	2,598506	1,33875	319,212	0,529	83,195	0	1016,14	7,2	9,4	9	1	1	1	1	1	1	1	1	1	0	1	-5,919662	274,350807	315,304368	0
15.01.2021	17:00:31	0	0	4,406163	1,3605	314,136	0,529	83,206	0	1016,12	7,2	9,4	9	1	1	1	1	1	1	1	1	1	0	1	-11,346018	274,498018	310,568015	0
15.01.2021	17:00:32	0	0	2,824463	1,3725	316,674	0,532	83,21	0	1016,2	7,2	9,4	9	1	1	1	1	1	1	1	1	1	0	1	-8,104299	274,358368	313,155143	0
15.01.2021	17:00:33	0	0,356908	4,63212	1,39275	314,4636	0,525	83,205	0	1016,22	7,2	9,4	9	1	1	1	1	1	1	1	1	1	0	1	-9,654686	274,323613	311,442	0
15.01.2021	17:00:34	0	0,356908	4,067227	1,36275	313,1568	0,532	83,198	0	1016,14	7,2	9,4	9	1	1	1	1	1	1	1	1	1	0	1	-11,627907	274,464531	310,129071	0
15.01.2021	17:00:35	0	0,237939	4,180206	1,32	311,8248	0,532	83,216	0	1016,18	7,3	9,4	9	1	1	1	1	1	1	1	1	1	0	1	-10,218464	274,443252	311,438742	0
15.01.2021	17:00:36	0	0,237939	4,745098	1,3005	315,2268	0,53	83,187	0	1016,2	7,2	9,4	9	1	1	1	1	1	1	1	1	1	0	1	-5,919662	274,362906	315,361035	0
15.01.2021	17:00:37	0	0	2,033614	1,26075	314,1684	0,525	83,21	0	1016,1	7,2	9,4	9	1	1	1	1	1	1	1	1	1	0	1	-7,681466	274,47518	314,125448	0
15.01.2021	17:00:38	0	0,118969	3,163399	1,2735	313,6464	0,528	83,19	0	1016,12	7,2	9,4	9	1	1	1	1	1	1	1	1	1	0	1	-5,919662	274,325122	315,184094	0
15.01.2021	17:00:39	0	0,237939	4,858077	1,30425	315,4644	0,527	83,202	0	1016,18	7,2	9,4	9	1	1	1	1	1	1	1	1	1	0	1	-9,302326	274,387126	312,091835	0
15.01.2021	17:00:40	0	0,475877	4,63212	1,28175	315,954	0,529	83,201	0	1016,24	7,2	9,4	9	1	1	1	1	1	1	1	1	1	0	1	-10,500352	274,499541	311,420827	0
15.01.2021	17:00:41	0	0	2,598506	1,32	314,8704	0,527	83,196	0	1016,2	7,2	9,4	9	1	1	1	1	1	1	1	1	1	0	1	-9,654686	274,364419	311,633097	0
15.01.2021	17:00:42	0	0,118969	4,406163	1,278	320,8932	0,528	83,196	0	1016,06	7,2	9,4	9	1	1	1	1	1	1	1	1	1	0	1	-10,147992	274,326632	310,962834	0
15.01.2021	17:00:43	0	0,356908	4,180206	1,28775	312,426	0,519	83,207	0	1016,08	7,2	9,4	9	1	1	1	1	1	1	1	1	1	0	1	-10,147992	274,46149	311,594725	0
15.01.2021	17:00:44	0	0	2,937442	1,30425	312,498	0,525	83,196	0	1016,02	7,2	9,4	9	1	1	1	1	1	1	1	1	1	0	1	-10,288936	274,452369	311,411013	0
15.01.2021	17:00:45	0	0	3,84127	1,33425	313,2648	0,526	83,211	0	1016,12	7,2	9,3	9	1	1	1	1	1	1	1	1	1	0	1	-12,896406	274,329652	308,228561	0
15.01.2021	17:00:46	0	0,118969	2,824463	1,34925	315,2268	0,529	83,207	0	1016,14	7,2	9,4	9	1	1	1	1	1	1	1	1	1	0	1	-7,258633	274,35988	314,007893	0
15.01.2021	17:00:47	0	0	3,163399	1,3395	313,5564	0,525	83,208	0	1016,18	7,2	9,4	9	1	1	1	1	1	1	1	1	1	0	1	-10,077519	274,499541	311,84366	0
15.01.2021	17:00:48	0	0,237939	3,615313	1,293	317,0088	0,523	83,206	0	1016,02	7,2	9,4	9	1	1	1	1	1	1	1	1	1	0	1	-7,681466	274,34476	313,514247	0
15.01.2021	17:00:49	0	0	4,180206	1,24875	318,4848	0,527	83,191	0	1015,96	7,2	9,4	9	1	1	1	1	1	1	1	1	1	0	1	-7,470049	274,364419	313,817734	0
15.01.2021	17:00:50	0	0	2,372549	1,2495	317,6568	0,531	83,206	0	1016,12	7,2	9,4	9	1	1	1	1	1	1	1	1	1	0	1	-10,641297	274,508685	311,322778	0
15.01.2021	17:00:51	0	0,118971	3,05042	1,26075	322,6176	0,523	83,2	0	1016,14	7,2	9,2	9	1	1	1	1	1	1	1	1	1	0	1	-8,738548	274,444771	312,925779	0
15.01.2021	17:00:52	0	0	4,293184	1,24575	325,5804	0,527	83,216	0	1016,3	7,2	9,2	9	1	1	1	1	1	1	1	1	1	0	1	-10,218464	274,323613	310,878223	0
15.01.2021	17:00:53	0	0	2,824463	1,17525	333,9036	0,527	83,209	0	1016,04	7,2	9,2	9	1	1	1	1	1	1	1	1	1	0	1	-9,020437	274,368958	312,28861	0
15.01.2021	17:00:54	0	0	2,598506	1,12575	339,1668	0,522	83,204	0	1016,2	7,2	9,4	9	1	1	1	1	1	1	1	1	1	0	1	-7,399577	274,325122	313,704178	0
15.01.2021	17:00:55	0	0	4,63212	1,10775	332,8524	0,53	83,208	0	1016,04	7,2	9,4	9	1	1	1	1	1	1	1	1	1	0	1	-10,711769	274,467573	311,059473	0
15.01.2021	17:00:56	0	0,356908	3,389356	1,05075	330,3108	0,53	83,221	0	1016,14	7,2	9,4	9	1	1	1	1	1	1	1	1	1	0	1	-9,302326	274,444771	312,362002	0
15.01.2021	17:00:57	0	0	2,598506	1,03875	331,9344	0,526	83,219	0	1016,1	7,2	9,4	9	1	1	1	1	1	1	1	1	1	0	1	-7,399577	274,491925	314,485876	0
15.01.2021	17:00:58	0	0	2,598506	1,0335	331,1388	0,529	83,223	0	1016,14	7,2	9,4	9	1	1	1	1	1	1	1	1	1	0	1	-13,460183	274,329652	307,664783	0
15.01.2021	17:00:59	0	0,118969	3,163399	1,00125	327,1248	0,523	83,212	0	1016,24	7,2	9,4	9	1	1	1	1	1	1	1	1	1	0	1	-8,245243	274,423513	313,319435	0
15.01.2021	17:01:00	0	0,237939	4,406163	0,9945	335,34	0,53	83,219	0	1016,14	7,2	9,4	9	1	1	1	1	1	1	1	1	1	0	1	-6,272023	274,478223	315,549165	0
15.01.2021	17:01:01	0	0,237939	4,406163	0,9945	335,34	0,53	83,219	0	1016,14	7,2	9,4	9	1	1	1	1	1	1	1	1	1	0	1	-9,725159	274,466052	312,038951	0
15.01.2021	17:01:02	0	0	2,711485	1,02375	333,2628	0,523	83,218	0	1016,16	7,3	9,4	9	1	1	1	1	1	1	1	1	1	0	1	-9,513742	274,34476	311,681971	0
15.01.2021	17:01:03	0	0,237939	4,406163	1,03125	332,4924	0,526	83,23	0	1016,2	7,2	9,4	9	1	1	1	1	1	1	1	1	1	0	1	-12,121212	274,469094	309,657163	0
15.01.2021	17:01:04	0	0	4,406163	1,01175	334,2348	0,527	83,223	0	1016,14	7,2	9,2	9	1	1	1	1	1	1	1	1	1	0	1	-8,738548	274,458449	312,98991	0
15.01.2021	17:01:05	0	0	2,598506	0,9885	327,834	0,529	83,225	0	1016,2	7,2	9,4	9	1	1	1	1	1	1	1	1	1	0	1	-6,131078	274,337205	315,029253	0
15.01.2021	17:01:06	0	0	2,259571	1,0005	317,8044	0,524	83,232	0	1016,24	7,2	9,4	9	1	1	1	1	1	1	1	1	1	0	1	-8,80902	274,314556	312,245267	0
15.01.2021	17:01:07	0	0,356908	4,180206	0,97575	324,36	0,524	83,225	0	1016,1	7,2	9,4	9	1	1	1	1	1	1	1	1	1	0	1	-9,866103	274,481267	311,969361	0
15.01.2021	17:01:08	0	0,118969	3,389356	1,002	328,212	0,524	83,218	0	1016,12	7,2	9,4	9	1	1	1	1	1	1	1	1	1	0	1	-5,637773	274,384097	315,742195	0
15.01.2021	17:01:09	0	0	4,180206	1,008	310,6836	0,522	83,217	0	1016,1	7,2	9,4	9	1	1	1	1	1	1	1	1	1	0	1	-8,879493	274,484312	312,970251	0
15.01.2021	17:01:10	0	0	3,728292	1,0635	316,6992	0,527	83,228	0	1016,16	7,2	9,4	9	1	1	1	1	1	1	1	1	1	0	1	-9,936575	274,455409	311,777627	0
15.01.2021	17:01:11	0	0	4,745098	1,122	323,2764	0,522	83,207	0	1016,1	7,2	9,2	9	1	1	1	1	1	1	1	1	1	0	1	-8,45666	274,40986	313,044029	0
15.01.2021	17:01:12	0	0,118969	4,406163	1,098	319,9464	0,526	83,222	0	1016,08	7,2	9,4	9	1	1	1	1	1	1	1	1	1	0	1	-10,288936	274,313047	310,758287	0
15.01.2021	17:01:13	0	0	2,485528	1,08225	309,6036	0,518	83,221	0	1016,18	7,2	9,4	9	1	1	1	1	1	1	1	1	1	0	1	-10,288936	274,394701	311,140717	0
15.01.2021	17:01:14	0	0	2,485528	1,113	311,7708	0,522	83,235	0	1016,18	7,2	9,4	9	1	1	1	1	1	1	1	1	1	0	1	-7,681466	274,473658	314,118313	0
15.01.2021	17:01:15	0	0,118969	2,711485	1,1835	315,2196	0,519	83,223	0	1015,96	7,3	9,4	9	1	1	1	1	1	1	1	1	1	0	1	-7,329105	274,353831	313,909088	0
15.01.2021	17:01:16	0	0	2,824463	1,17525	309,5784	0,527	83,23	0	1016,24	7,2	9,4	9	1	1	1	1	1	1	1	1	1	0	1	-8,597604	274,316065	312,463748	0
15.01.2021	17:01:17	0	0	2,937442	1,12725	307,1988	0,521	83,214	0	1016,1	7,2	9,4	9	1	1	1	1	1	1	1	1	1	0	1	-10,570825	274,373498	310,759491	0
15.01.2021	17:01:18	0	0	4,858077	1,0815	310,356	0,527	83,227	0	1016,1	7,2	9,2	9	1	1	1	1	1	1	1	1	1	0	1	-10,218464	274,494971	311,681278	0
15.01.2021	17:01:19	0	0,356913	4,63212	1,03575	316,1988	0,525	83,237	0	1016,1	7,2	9,2	9	1	1	1	1	1	1	1	1	1	0	1	-6,060606	274,370471	315,25553	0
15.01.2021	17:01:20	0	0	4,63212	1,005	316,2996	0,526	83,247	0	1016,06	7,2	9,2	9	1	1	1	1	1	1	1	1	1	0	1	-5,990134	274,491925	315,895319	0
15.01.2021	17:01:21	0	0,237939	4,519141	1,0365	314,046	0,519	83,215	0	1016,06	7,2	9,4	9	1	1	1	1	1	1	1	1	1	0	1	-9,161381	274,426549	312,417525	0
15.01.2021	17:01:22	0	0,118969	4,180206	0,9825	320,0076	0,521	83,242	0	1016,3	7,2	9,4	9	1	1	1	1	1	1	1	1	1	0	1	-4,862579	274,308521	316,163455	0
15.01.2021	17:01:23	0	0,356908	4,858077	0,9705	312,1704	0,518	83,219	0	1016,12	7,2	9,4	9	1	1	1	1	1	1	1	1	1	0	1	-7,751938	274,362906	313,528759	0
15.01.2021	17:01:24	0	0,118969	3,05042	1,026	311,4468	0,523	83,235	0	1016,16	7,2	9,4	9	1	1	1	1	1	1	1	1	1	0	1	-8,104299	274,487357	313,759726	0
15.01.2021	17:01:25	0	0,237939	2,937442	1,0785	320,4792	0,519	83,22	0	1016,12	7,2	9,4	9	1	1	1	1	1	1	1	1	1	0	1	-13,03735	274,473658	308,762428	0
15.01.2021	17:01:26	0	0,118969	2,937442	1,09275	323,7372	0,525	83,242	0	1016,14	7,3	9,4	9	1	1	1	1	1	1	1	1	1	0	1	-8,386187	274,406827	313,100288	0
15.01.2021	17:01:27	0	0	3,05042	1,07775	324,432	0,523	83,245	0	1016,14	7,2	9,2	9	1	1	1	1	1	1	1	1	1	0	1	-7,399577	274,478223	314,421611	0
15.01.2021	17:01:28	0	0	4,745098	1,113	317,1204	0,523	83,246	0	1016,14	7,2	9,4	9	1	1	1	1	1	1	1	1	1	0	1	-10,570825	274,450849	311,121999	0
15.01.2021	17:01:29	0	0,118969	4,858077	1,12125	306,1116	0,517	83,235	0	1016,02	7,2	9,4	9	1	1	1	1	1	1	1	1	1	0	1	-9,161381	274,467573	312,609861	0
15.01.2021	17:01:30	0	0	4,519141	1,131	310,3092	0,525	83,232	0	1016,06	7,2	9,4	9	1	1	1	1	1	1	1	1	1	0	1	-6,765328	274,319084	314,310156	0
15.01.2021	17:01:31	0	0	3,389356	1,137	316,6632	0,519	83,25	0	1016,08	7,3	9,2	9	1	1	1	1	1	1	1	1	1	0	1	-10,218464	274,367445	311,083495	0
15.01.2021	17:01:32	0	0	4,406163	1,08675	309,942	0,524	83,249	0	1016,08	7,2	9,4	9	1	1	1	1	1	1	1	1	1	0	1	-6,624383	274,485834	315,232501	0
15.01.2021	17:01:33	0	0,237942	4,406163	1,0815	305,442	0,525	83,244	0	1016,08	7,2	9,2	9	1	1	1	1	1	1	1	1	1	0	1	-6,272023	274,434139	315,342464	0
15.01.2021	17:01:34	0	0	2,937442	1,0575	306,1224	0,517	83,228	0	1016,08	7,2	9,4	9	1	1	1	1	1	1	1	1	1	0	1	-9,725159	274,319084	311,350325	0
15.01.2021	17:01:35	0	0,118971	3,05042	1,04775	305,3376	0,521	83,244	0	1016,2	7,3	9,2	9	1	1	1	1	1	1	1	1	1	0	1	-5,21494	274,325122	315,888815	0
15.01.2021	17:01:36	0	0	2,259571	1,06125	298,6884	0,525	83,243	0	1016,04	7,3	9,2	9	1	1	1	1	1	1	1	1	1	0	1	-9,020437	274,485834	312,836447	0
15.01.2021	17:01:37	0	0	3,502334	1,08525	297,954	0,522	83,231	0	1016,02	7,3	9,4	9	1	1	1	1	1	1	1	1	1	0	1	-11,346018	274,458449	310,38244	0
15.01.2021	17:01:38	0	0	4,519141	1,1475	306,8784	0,52	83,254	0	1016,18	7,2	9,4	9	1	1	1	1	1	1	1	1	1	0	1	-6,765328	274,46301	314,984519	0
15.01.2021	17:01:39	0	0,356908	4,406163	1,25475	294,8436	0,522	83,256	0	1016,14	7,2	9,4	9	1	1	1	1	1	1	1	1	1	0	1	-5,637773	274,349295	315,579177	0
15.01.2021	17:01:40	0	0,237942	3,615313	1,332	308,5416	0,518	83,239	0	1016,12	7,3	9,2	9	1	1	1	1	1	1	1	1	1	0	1	-11,486963	274,467573	310,284279	0
15.01.2021	17:01:41	0	0	2,711485	1,2825	321,4944	0,519	83,238	0	1016,16	7,3	9,2	9	1	1	1	1	1	1	1	1	1	0	1	-6,342495	274,347783	314,867375	0
15.01.2021	17:01:42	0	0	2,598506	1,191	316,6776	0,525	83,25	0	1015,98	7,2	9,4	9	1	1	1	1	1	1	1	1	1	0	1	-7,892882	274,499541	314,028297	0
15.01.2021	17:01:43	0	0	4,971055	1,2015	303,8868	0,519	83,231	0	1016	7,2	9,4	9	1	1	1	1	1	1	1	1	1	0	1	-12,121212	274,379554	309,237472	0
15.01.2021	17:01:44	0	0	4,858077	1,26975	296,8452	0,521	83,252	0	1016,04	7,2	9,2	9	1	1	1	1	1	1	1	1	1	0	1	-9,513742	274,396216	311,923011	0
15.01.2021	17:01:45	0	0	2,485528	1,41225	307,6524	0,525	83,256	0	1016,14	7,2	9,2	9	1	1	1	1	1	1	1	1	1	0	1	-4,087385	274,488879	317,783782	0
15.01.2021	17:01:46	0	0,118971	3,276377	1,452	309,2688	0,518	83,235	0	1016,06	7,2	9,2	9	1	1	1	1	1	1	1	1	1	0	1	-9,231853	274,406827	312,254622	0
15.01.2021	17:01:47	0	0	4,971055	1,36875	307,1952	0,521	83,245	0	1016,1	7,3	9,2	9	1	1	1	1	1	1	1	1	1	0	1	-4,933051	274,491925	316,952402	0
15.01.2021	17:01:48	0	0,356908	4,406163	1,33275	314,8632	0,521	83,254	0	1016,1	7,3	9,4	9	1	1	1	1	1	1	1	1	1	0	1	-13,107822	274,415927	308,421299	0
15.01.2021	17:01:49	0	0,118971	4,971055	1,33125	323,2836	0,523	83,241	0	1016,04	7,3	9,2	9	1	1	1	1	1	1	1	1	1	0	1	-9,44327	274,488879	312,427897	0
15.01.2021	17:01:50	0	0	3,276377	1,35675	304,2756	0,525	83,239	0	1016,12	7,2	9,4	9	1	1	1	1	1	1	1	1	1	0	1	-7,82241	274,335694	313,330847	0
15.01.2021	17:01:51	0	0	2,598506	1,515	309,5172	0,519	83,235	0	1016,18	7,3	9,2	9	1	1	1	1	1	1	1	1	1	0	1	-6,412967	274,332673	314,726143	0
15.01.2021	17:01:52	0	0	2,824463	1,593	303,2604	0,519	83,257	0	1016,22	7,3	9,4	9	1	1	1	1	1	1	1	1	1	0	1	-6,412967	274,46301	315,33688	0
15.01.2021	17:01:53	0	0,118971	4,519141	1,6785	313,2252	0,521	83,259	0	1016,08	7,3	9,2	9	1	1	1	1	1	1	1	1	1	0	1	-8,033827	274,421996	313,523739	0
15.01.2021	17:01:54	0	0,237942	4,971055	1,8135	318,1572	0,52	83,242	0	1016,2	7,3	9,2	9	1	1	1	1	1	1	1	1	1	0	1	-10,993658	274,31003	310,039439	0
15.01.2021	17:01:55	0	0	4,63212	1,83075	329,3496	0,517	83,252	0	1016,12	7,2	9,4	9	1	1	1	1	1	1	1	1	1	0	1	-11,627907	274,444771	310,036421	0
15.01.2021	17:01:56	0	0	4,519141	1,69875	359,4528	0,516	83,236	0	1016,14	7,2	9,2	9	1	1	1	1	1	1	1	1	1	0	1	-12,191684	274,449329	309,494014	0
15.01.2021	17:01:57	0	0	2,598506	1,5765	314,8668	0,516	83,251	0	1016,18	7,3	9,4	9	1	1	1	1	1	1	1	1	1	0	1	-7,399577	274,294949	313,562927	0
15.01.2021	17:01:58	0	0	2,485528	1,5945	294,8184	0,533	83,255	0	1016,14	7,2	9,4	9	1	1	1	1	1	1	1	1	1	0	1	-7,188161	274,381068	314,177617	0
15.01.2021	17:01:59	0	0,356913	4,63212	1,668	327,8664	0,52	83,254	0	1016,18	7,3	9,2	9	1	1	1	1	1	1	1	1	1	0	1	-6,272023	274,469094	315,506353	0
15.01.2021	17:02:00	0	0	2,598506	1,7955	307,2384	0,517	83,258	0	1016,12	7,3	9,2	9	1	1	1	1	1	1	1	1	1	0	1	-12,332629	274,35988	308,933898	0
15.01.2021	17:02:01	0	0	2,598506	1,7955	307,2384	0,517	83,258	0	1016,12	7,3	9,2	9	1	1	1	1	1	1	1	1	1	0	1	-7,470049	274,314556	313,584238	0
15.01.2021	17:02:02	0	0	4,293184	1,9035	316,2636	0,515	83,242	0	1016,14	7,3	9,2	9	1	1	1	1	1	1	1	1	1	0	1	-7,82241	274,411376	313,685386	0
15.01.2021	17:02:03	0	0	4,63212	1,98525	309,5064	0,52	83,252	0	1016,16	7,3	9,2	9	1	1	1	1	1	1	1	1	1	0	1	-6,20155	274,482789	315,641053	0
15.01.2021	17:02:04	0	0,118971	4,63212	2,0265	315,5508	0,509	83,238	0	1016,08	7,2	9,2	9	1	1	1	1	1	1	1	1	1	0	1	-9,795631	274,362906	311,485066	0
15.01.2021	17:02:05	0	0,237942	4,406163	2,0205	336,0528	0,52	83,244	0	1016,24	7,2	9,2	9	1	1	1	1	1	1	1	1	1	0	1	-10,570825	274,469094	311,207551	0
15.01.2021	17:02:06	0	0	3,163399	1,9455	333,1332	0,508	83,256	0	1016,16	7,3	9,2	9	1	1	1	1	1	1	1	1	1	0	1	-8,879493	274,349295	312,337457	0
15.01.2021	17:02:07	0	0	3,276377	1,96425	305,7588	0,516	83,243	0	1016,16	7,3	9,2	9	1	1	1	1	1	1	1	1	1	0	1	-10,500352	274,415927	311,028769	0
15.01.2021	17:02:08	0	0	4,858077	1,89225	324,1296	0,52	83,249	0	1016,08	7,3	9,2	9	1	1	1	1	1	1	1	1	1	0	1	-6,765328	274,487357	315,098697	0
15.01.2021	17:02:09	0	0	3,615313	1,7025	328,6152	0,516	83,233	0	1016,06	7,3	9,2	9	1	1	1	1	1	1	1	1	1	0	1	-8,45666	274,425031	313,115132	0
15.01.2021	17:02:10	0	0	3,84127	1,6035	327,4848	0,519	83,255	0	1016,16	7,3	9,2	9	1	1	1	1	1	1	1	1	1	0	1	-9,372798	274,388641	312,02846	0
15.01.2021	17:02:11	0	0	3,728292	1,55925	349,434	0,521	83,251	0	1016,06	7,2	9,4	9	1	1	1	1	1	1	1	1	1	0	1	-10,570825	274,294949	310,391679	0
15.01.2021	17:02:12	0	0	4,067227	1,62	332,7192	0,513	83,259	0	1016,28	7,3	9,2	9	1	1	1	1	1	1	1	1	1	0	1	-5,496829	274,343249	315,691806	0
15.01.2021	17:02:13	0	0,237942	3,502334	1,905	331,1424	0,511	83,257	0	1016,12	7,2	9,2	9	1	1	1	1	1	1	1	1	1	0	1	-9,231853	274,371985	312,091372	0
15.01.2021	17:02:14	0	0	4,180206	2,10825	329,2344	0,519	83,258	0	1016,2	7,3	9,2	9	1	1	1	1	1	1	1	1	1	0	1	-9,020437	274,478223	312,800751	0
15.01.2021	17:02:15	0	0,475884	4,745098	2,289	328,9248	0,52	83,256	0	1016,1	7,3	9,2	9	1	1	1	1	1	1	1	1	1	0	1	-7,117689	274,367445	314,18427	0
15.01.2021	17:02:16	0	0	4,180206	2,397	322,1892	0,518	83,236	0	1016,1	7,3	9,2	9	1	1	1	1	1	1	1	1	1	0	1	-10,288936	274,337205	310,871395	0
15.01.2021	17:02:17	0	0	4,63212	2,49825	323,3952	0,518	83,265	0	1016,14	7,3	9,2	9	1	1	1	1	1	1	1	1	1	0	1	-10,641297	274,305504	310,370615	0
15.01.2021	17:02:18	0	0	2,259571	2,5035	321,4332	0,522	83,264	0	1016,12	7,3	9,4	9	1	1	1	1	1	1	1	1	1	0	1	-9,090909	274,390156	312,317446	0
15.01.2021	17:02:19	0	0	2,937442	2,50425	318,15	0,517	83,262	0	1016,1	7,3	9,2	9	1	1	1	1	1	1	1	1	1	0	1	-10,147992	274,347783	311,061879	0
15.01.2021	17:02:20	0	0	4,180206	2,4795	319,5828	0,519	83,269	0	1016,2	7,3	9,2	9	1	1	1	1	1	1	1	1	1	0	1	-4,298802	274,484312	317,550941	0
15.01.2021	17:02:21	0	0	4,406163	2,40075	322,5996	0,524	83,262	0	1016,12	7,2	9,2	9	1	1	1	1	1	1	1	1	1	0	1	-9,584214	274,362906	311,696483	0
15.01.2021	17:02:22	0	0	4,745098	2,31375	324,4716	0,517	83,274	0	1016,02	7,3	9,2	9	1	1	1	1	1	1	1	1	1	0	1	-7,610994	274,476701	314,203057	0
15.01.2021	17:02:23	0	0,237942	4,971055	2,25	323,3952	0,511	83,25	0	1016,04	7,3	9,2	9	1	1	1	1	1	1	1	1	1	0	1	-10,288936	274,387126	311,105224	0
15.01.2021	17:02:24	0	0	3,84127	2,259	328,194	0,517	83,267	0	1016,16	7,3	9,4	9	1	1	1	1	1	1	1	1	1	0	1	-7,470049	274,47518	314,336865	0
15.01.2021	17:02:25	0	0	3,502334	2,2275	323,2944	0,519	83,263	0	1016,26	7,3	9,2	9	1	1	1	1	1	1	1	1	1	0	1	-7,610994	274,397732	313,832861	0
15.01.2021	17:02:26	0	0	3,84127	2,23125	321,1848	0,516	83,263	0	1016,26	7,2	9,2	9	1	1	1	1	1	1	1	1	1	0	1	-7,470049	274,467573	314,301193	0
15.01.2021	17:02:27	0	0	3,84127	2,22675	322,254	0,516	83,272	0	1016,16	7,3	9,2	9	1	1	1	1	1	1	1	1	1	0	1	-7,399577	274,319084	313,675907	0
15.01.2021	17:02:28	0	0	5,422969	2,18625	312,156	0,511	83,262	0	1016,1	7,3	9,2	9	1	1	1	1	1	1	1	1	1	0	1	-7,470049	274,441733	314,180035	0
15.01.2021	17:02:29	0	0,356913	4,858077	2,196	321,1092	0,521	83,27	0	1016,1	7,2	9,2	9	1	1	1	1	1	1	1	1	1	0	1	-9,090909	274,350807	312,133121	0
15.01.2021	17:02:30	0	0	3,728292	2,23125	323,7012	0,512	83,267	0	1015,96	7,3	9,2	9	1	1	1	1	1	1	1	1	1	0	1	-5,567301	274,469094	316,211074	0
15.01.2021	17:02:31	0	0	2,937442	2,25075	321,4764	0,51	83,27	0	1015,92	7,3	9,2	9	1	1	1	1	1	1	1	1	1	0	1	-8,738548	274,307013	312,280424	0
15.01.2021	17:02:32	0	0	2,033614	2,21025	321,1884	0,516	83,252	0	1016,2	7,3	9,2	9	1	1	1	1	1	1	1	1	1	0	1	-8,104299	274,316065	312,957053	0
15.01.2021	17:02:33	0	0	2,711485	2,118	333,8424	0,513	83,258	0	1016,1	7,3	9,2	9	1	1	1	1	1	1	1	1	1	0	1	-11,275546	274,338716	309,89186	0
15.01.2021	17:02:34	0	0	3,84127	2,01975	333,1764	0,509	83,264	0	1016,14	7,3	9,4	9	1	1	1	1	1	1	1	1	1	0	1	-10,852713	274,346272	310,350078	0
15.01.2021	17:02:35	0	0	2,372549	1,911	331,56	0,521	83,276	0	1016,16	7,3	9,2	9	1	1	1	1	1	1	1	1	1	0	1	-9,161381	274,332673	311,977729	0
15.01.2021	17:02:36	0	0	2,372549	1,89225	324,3744	0,516	83,274	0	1016,04	7,3	9,2	9	1	1	1	1	1	1	1	1	1	0	1	-8,245243	274,403795	313,227023	0
15.01.2021	17:02:37	0	0	2,598506	1,89675	327,1644	0,513	83,267	0	1016,14	7,3	9,2	9	1	1	1	1	1	1	1	1	1	0	1	-9,020437	274,296456	311,949123	0
15.01.2021	17:02:38	0	0	2,598506	1,887	321,5196	0,51	83,281	0	1016,14	7,3	9,2	9	1	1	1	1	1	1	1	1	1	0	1	-8,386187	274,393186	313,036365	0
15.01.2021	17:02:39	0	0	3,954249	1,79775	333,8856	0,512	83,264	0	1016,02	7,3	9,2	9	1	1	1	1	1	1	1	1	1	0	1	-11,627907	274,491925	310,257546	0
15.01.2021	17:02:40	0	0	4,858077	1,7985	318,5064	0,517	83,291	0	1016,22	7,3	9,2	9	1	1	1	1	1	1	1	1	1	0	1	-10,782241	274,335694	310,371016	0
15.01.2021	17:02:41	0	0	2,711485	1,89	328,608	0,513	83,274	0	1016,12	7,3	9,2	9	1	1	1	1	1	1	1	1	1	0	1	-13,530655	274,405311	307,948715	0
15.01.2021	17:02:42	0	0	3,276377	1,94325	329,7168	0,509	83,29	0	1016,16	7,3	9,2	9	1	1	1	1	1	1	1	1	1	0	1	-8,668076	274,31003	312,36502	0
15.01.2021	17:02:43	0	0,118971	4,293184	1,81575	332,4744	0,506	83,278	0	1016,06	7,3	9,2	9	1	1	1	1	1	1	1	1	1	0	1	-10,42988	274,421996	311,127686	0
15.01.2021	17:02:44	0	0	2,824463	1,7385	318,3516	0,507	83,288	0	1016,04	7,3	9,2	9	1	1	1	1	1	1	1	1	1	0	1	-11,627907	274,329652	309,497059	0
15.01.2021	17:02:45	0	0	4,293184	1,66725	317,7432	0,515	83,282	0	1016,02	7,2	9,2	9	1	1	1	1	1	1	1	1	1	0	1	-10,570825	274,482789	311,271779	0
15.01.2021	17:02:46	0	0	4,63212	1,68375	316,7244	0,513	83,306	0	1016,08	7,3	9,2	9	1	1	1	1	1	1	1	1	1	0	1	-10,641297	274,396216	310,795457	0
15.01.2021	17:02:47	0	0	4,293184	1,719	326,0808	0,516	83,296	0	1016,1	7,3	9,4	9	1	1	1	1	1	1	1	1	1	0	1	-7,047216	274,338716	314,12019	0
15.01.2021	17:02:48	0	0	2,937442	1,72575	320,85	0,511	83,281	0	1016,02	7,3	9,2	9	1	1	1	1	1	1	1	1	1	0	1	-9,584214	274,472137	312,208429	0
15.01.2021	17:02:49	0	0,356913	4,745098	1,79325	314,0604	0,515	83,301	0	1016,08	7,3	9,2	9	1	1	1	1	1	1	1	1	1	0	1	-10,007047	274,478223	311,814141	0
15.01.2021	17:02:50	0	0	2,711485	1,82325	320,4288	0,511	83,305	0	1016,14	7,3	9,2	9	1	1	1	1	1	1	1	1	1	0	1	-9,936575	274,313047	311,110648	0
15.01.2021	17:02:51	0	0	2,824463	1,8015	310,3452	0,507	83,294	0	1016,18	7,2	9,4	9	1	1	1	1	1	1	1	1	1	0	1	-10,42988	274,317575	310,638537	0
15.01.2021	17:02:52	0	0	4,971055	1,797	320,4864	0,513	83,295	0	1016,26	7,3	9,2	9	1	1	1	1	1	1	1	1	1	0	1	-8,386187	274,423513	313,178491	0
15.01.2021	17:02:53	0	0	3,728292	1,7115	323,3772	0,515	83,294	0	1016,12	7,3	9,2	9	1	1	1	1	1	1	1	1	1	0	1	-6,694856	274,432621	314,912513	0
15.01.2021	17:02:54	0	0	3,728292	1,6845	319,6116	0,51	83,309	0	1016,04	7,3	9,2	9	1	1	1	1	1	1	1	1	1	0	1	-12,262156	274,308521	308,763878	0
15.01.2021	17:02:55	0	0,118971	3,728292	1,605	330,1236	0,516	83,318	0	1016,22	7,3	9,2	9	1	1	1	1	1	1	1	1	1	0	1	-8,45666	274,388641	312,944598	0
15.01.2021	17:02:56	0	0	3,615313	1,51875	340,236	0,518	83,304	0	1016,14	7,3	9,2	9	1	1	1	1	1	1	1	1	1	0	1	-8,949965	274,467573	312,821277	0
15.01.2021	17:02:57	0	0	3,502334	1,49175	335,3724	0,51	83,306	0	1016,08	7,3	9,2	9	1	1	1	1	1	1	1	1	1	0	1	-10,007047	274,473658	311,792731	0
15.01.2021	17:02:58	0	0,356913	4,971055	1,5165	330,7644	0,516	83,305	0	1016,2	7,3	9,2	9	1	1	1	1	1	1	1	1	1	0	1	-5,567301	274,332673	315,571809	0
15.01.2021	17:02:59	0	0	4,180206	1,53225	330,066	0,515	83,295	0	1016	7,3	9,2	9	1	1	1	1	1	1	1	1	1	0	1	-7,329105	274,491925	314,556348	0
15.01.2021	17:03:00	0	0	2,937442	1,72275	333,7596	0,517	83,326	0	1016,12	7,3	9,2	9	1	1	1	1	1	1	1	1	1	0	1	-9,231853	274,458449	312,496605	0
15.01.2021	17:03:01	0	0	2,937442	1,72275	333,7596	0,517	83,326	0	1016,12	7,3	9,2	9	1	1	1	1	1	1	1	1	1	0	1	-8,668076	274,341738	312,513482	0
15.01.2021	17:03:02	0	0	4,067227	1,77375	340,9308	0,517	83,326	0	1016,08	7,3	9,2	9	1	1	1	1	1	1	1	1	1	0	1	-8,668076	274,441733	312,982008	0
15.01.2021	17:03:03	0	0	2,259571	1,719	336,3768	0,521	83,325	0	1016,12	7,3	9,2	9	1	1	1	1	1	1	1	1	1	0	1	-7,751938	274,307013	313,267035	0
15.01.2021	17:03:04	0	0	2,937442	1,68675	340,2324	0,519	83,326	0	1016,02	7,3	9,2	9	1	1	1	1	1	1	1	1	1	0	1	-8,174771	274,305504	312,837141	0
15.01.2021	17:03:05	0	0	2,937442	1,638	343,1232	0,518	83,306	0	1016,1	7,3	9,2	9	1	1	1	1	1	1	1	1	1	0	1	-11,205074	274,440214	310,437889	0
15.01.2021	17:03:06	0	0	2,824463	1,58625	328,8636	0,513	83,324	0	1016,18	7,3	9,2	9	1	1	1	1	1	1	1	1	1	0	1	-9,584214	274,332673	311,554896	0
15.01.2021	17:03:07	0	0	3,954249	1,5855	327,9636	0,519	83,332	0	1016,22	7,3	9,2	9	1	1	1	1	1	1	1	1	1	0	1	-7,047216	274,31003	313,98588	0
15.01.2021	17:03:08	0	0,118971	2,598506	1,57425	341,262	0,525	83,334	0	1016,12	7,3	9,2	9	1	1	1	1	1	1	1	1	1	0	1	-12,05074	274,326632	309,060085	0
15.01.2021	17:03:09	0	0	4,63212	1,50225	359,946	0,509	83,334	0	1016,1	7,2	9,2	9	1	1	1	1	1	1	1	1	1	0	1	-10,500352	274,491925	311,385101	0
15.01.2021	17:03:10	0	0	4,858077	1,3335	341,748	0,51	83,331	0	1016,12	7,2	9,2	9	1	1	1	1	1	1	1	1	1	0	1	-10,852713	274,412893	310,662191	0
15.01.2021	17:03:11	0	0	2,824463	1,23825	343,9692	0,515	83,322	0	1016,12	7,3	9,2	9	1	1	1	1	1	1	1	1	1	0	1	-10,993658	274,493448	310,898939	0
15.01.2021	17:03:12	0	0	3,84127	1,182	326,376	0,519	83,342	0	1016,12	7,3	9,2	9	1	1	1	1	1	1	1	1	1	0	1	-9,795631	274,350807	311,428399	0
15.01.2021	17:03:13	0	0	3,389356	1,1295	335,4264	0,515	83,35	0	1016,14	7,3	9,2	9	1	1	1	1	1	1	1	1	1	0	1	-12,614517	274,455409	309,099685	0
15.01.2021	17:03:14	0	0	2,711485	1,05375	335,9952	0,516	83,35	0	1016,14	7,3	9,2	9	1	1	1	1	1	1	1	1	1	0	1	-7,892882	274,303996	313,111969	0
15.01.2021	17:03:15	0	0,118971	4,406163	1,03725	333,4788	0,514	83,33	0	1016,14	7,3	9,2	9	1	1	1	1	1	1	1	1	1	0	1	-8,45666	274,418961	313,086683	0
15.01.2021	17:03:16	0	0	4,406163	1,0425	332,4564	0,51	83,32	0	1016,02	7,2	9,2	9	1	1	1	1	1	1	1	1	1	0	1	-8,597604	274,34476	312,598109	0
15.01.2021	17:03:17	0	0	3,05042	1,0455	327,1752	0,511	83,341	0	1016,12	7,3	9,2	9	1	1	1	1	1	1	1	1	1	0	1	-9,161381	274,467573	312,609861	0
15.01.2021	17:03:18	0	0	3,502334	1,04025	322,65	0,518	83,351	0	1016,06	7,3	9,2	9	1	1	1	1	1	1	1	1	1	0	1	-11,486963	274,428066	310,099058	0
15.01.2021	17:03:19	0	0,118971	4,63212	1,01625	316,3032	0,512	83,348	0	1016,02	7,3	9,2	9	1	1	1	1	1	1	1	1	1	0	1	-8,174771	274,317575	312,893647	0
15.01.2021	17:03:20	0	0	3,389356	1,0785	310,7052	0,509	83,351	0	1016,14	7,2	9,2	9	1	1	1	1	1	1	1	1	1	0	1	-8,315715	274,458449	313,412743	0
15.01.2021	17:03:21	0	0	2,711485	1,1355	319,644	0,516	83,355	0	1016,2	7,3	9,2	9	1	1	1	1	1	1	1	1	1	0	1	-10,218464	274,46301	311,531383	0
15.01.2021	17:03:22	0	0,118971	4,519141	1,16925	312,2136	0,515	83,349	0	1016,12	7,3	9,2	9	1	1	1	1	1	1	1	1	1	0	1	-9,020437	274,379554	312,338247	0
15.01.2021	17:03:23	0	0	4,745098	1,1985	315,1188	0,512	83,355	0	1016,06	7,2	9,2	9	1	1	1	1	1	1	1	1	1	0	1	-10,359408	274,487357	311,504617	0
15.01.2021	17:03:24	0	0	4,406163	1,22175	322,9848	0,515	83,347	0	1016,14	7,3	9,2	9	1	1	1	1	1	1	1	1	1	0	1	-11,627907	274,35988	309,638619	0
15.01.2021	17:03:25	0	0	2,485528	1,2375	318,438	0,511	83,34	0	1016,16	7,3	9,2	9	1	1	1	1	1	1	1	1	1	0	1	-8,245243	274,332673	312,893867	0
15.01.2021	17:03:26	0	0	3,954249	1,233	321,1272	0,518	83,354	0	1016,24	7,3	9,2	9	1	1	1	1	1	1	1	1	1	0	1	-8,315715	274,476701	313,498335	0
15.01.2021	17:03:27	0	0	3,389356	1,1895	323,4852	0,515	83,366	0	1016,04	7,3	9,2	9	1	1	1	1	1	1	1	1	1	0	1	-8,668076	274,391671	312,747378	0
15.01.2021	17:03:28	0	0	3,954249	1,1625	316,6416	0,514	83,358	0	1016,14	7,3	9,2	9	1	1	1	1	1	1	1	1	1	0	1	-5,355884	274,485834	316,500999	0
15.01.2021	17:03:29	0	0	2,598506	1,128	309,1932	0,516	83,366	0	1016,12	7,2	9,2	9	1	1	1	1	1	1	1	1	1	0	1	-6,553911	274,441733	315,096173	0
15.01.2021	17:03:30	0	0	4,63212	1,19325	320,8068	0,511	83,365	0	1016,22	7,3	9,2	9	1	1	1	1	1	1	1	1	1	0	1	-9,654686	274,458449	312,073772	0
15.01.2021	17:03:31	0	0,118971	4,745098	1,20075	319,5612	0,508	83,37	0	1016,14	7,3	9,2	9	1	1	1	1	1	1	1	1	1	0	1	-9,725159	274,485834	312,131725	0
15.01.2021	17:03:32	0	0,118971	4,519141	1,24125	323,784	0,516	83,377	0	1016,18	7,2	9,2	9	1	1	1	1	1	1	1	1	1	0	1	-8,668076	274,434139	312,94641	0
15.01.2021	17:03:33	0	0	3,954249	1,27425	324,9036	0,512	83,364	0	1016,16	7,3	9,2	9	1	1	1	1	1	1	1	1	1	0	1	-10,359408	274,31003	310,673688	0
15.01.2021	17:03:34	0	0	2,372549	1,3035	324,8064	0,505	83,362	0	1015,96	7,2	9,2	9	1	1	1	1	1	1	1	1	1	0	1	-9,44327	274,353831	311,794923	0
15.01.2021	17:03:35	0	0	4,406163	1,27125	321,1416	0,516	83,37	0	1016,1	7,3	9,2	9	1	1	1	1	1	1	1	1	1	0	1	-10,923185	274,456929	310,798144	0
15.01.2021	17:03:36	0	0	3,389356	1,257	311,1048	0,513	83,368	0	1016,14	7,2	9,2	9	1	1	1	1	1	1	1	1	1	0	1	-8,80902	274,449329	312,876678	0
15.01.2021	17:03:37	0	0	2,937442	1,2	314,82	0,514	83,37	0	1016,06	7,3	9,2	9	1	1	1	1	1	1	1	1	1	0	1	-5,990134	274,349295	315,226816	0
15.01.2021	17:03:38	0	0	4,745098	1,15575	302,8212	0,517	83,383	0	1016,12	7,2	9,2	9	1	1	1	1	1	1	1	1	1	0	1	-10,42988	274,458449	311,298578	0
15.01.2021	17:03:39	0	0	4,067227	1,08825	321,8508	0,513	83,375	0	1016,28	7,2	9,2	9	1	1	1	1	1	1	1	1	1	0	1	-8,315715	274,444771	313,348612	0
15.01.2021	17:03:40	0	0	4,406163	1,017	322,9992	0,513	83,376	0	1016,22	7,2	9,2	9	1	1	1	1	1	1	1	1	1	0	1	-6,624383	274,488879	315,246784	0
15.01.2021	17:03:41	0	0	3,389356	0,963	315,1656	0,515	83,377	0	1016,02	7,3	9,2	9	1	1	1	1	1	1	1	1	1	0	1	-9,020437	274,423513	312,544242	0
15.01.2021	17:03:42	0	0	3,615313	0,9675	312,5052	0,512	83,38	0	1016,1	7,2	9,2	9	1	1	1	1	1	1	1	1	1	0	1	-9,020437	274,425031	312,551355	0
15.01.2021	17:03:43	0	0	3,276377	1,0335	319,2696	0,512	83,372	0	1016,1	7,2	9,2	9	1	1	1	1	1	1	1	1	1	0	1	-8,104299	274,476701	313,709752	0
15.01.2021	17:03:44	0	0	5,309991	1,06725	308,9412	0,508	83,382	0	1016	7,2	9,2	9	1	1	1	1	1	1	1	1	1	0	1	-10,077519	274,423513	311,487159	0
15.01.2021	17:03:45	0	0	4,293184	1,09125	302,4612	0,514	83,384	0	1016,3	7,2	9,2	9	1	1	1	1	1	1	1	1	1	0	1	-9,090909	274,473658	312,708869	0
15.01.2021	17:03:46	0	0	2,259571	1,07475	314,8056	0,503	83,364	0	1016,2	7,2	9,2	9	1	1	1	1	1	1	1	1	1	0	1	-9,231853	274,373498	312,098462	0
15.01.2021	17:03:47	0	0	2,937442	1,035	325,548	0,511	83,367	0	1016,06	7,2	9,2	9	1	1	1	1	1	1	1	1	1	0	1	-11,698379	274,435658	309,923225	0
15.01.2021	17:03:48	0	0	2,259571	1,077	322,6788	0,509	83,39	0	1016,14	7,2	9,2	9	1	1	1	1	1	1	1	1	1	0	1	-6,412967	274,302488	314,584825	0
15.01.2021	17:03:49	0	0	2,824463	1,0875	320,8176	0,513	83,376	0	1016,08	7,2	9,2	9	1	1	1	1	1	1	1	1	1	0	1	-7,399577	274,387126	313,994583	0
15.01.2021	17:03:50	0	0,237942	5,084034	1,12575	323,3448	0,514	83,388	0	1016,08	7,3	9,2	9	1	1	1	1	1	1	1	1	1	0	1	-11,768851	274,317575	309,299566	0
15.01.2021	17:03:51	0	0	3,502334	1,134	325,8864	0,513	83,381	0	1016,18	7,2	9,2	9	1	1	1	1	1	1	1	1	1	0	1	-9,302326	274,420478	312,248128	0
15.01.2021	17:03:52	0	0	2,937442	1,1325	320,8032	0,515	83,374	0	1016,22	7,2	9,2	9	1	1	1	1	1	1	1	1	1	0	1	-9,654686	274,290427	311,286653	0
15.01.2021	17:03:53	0	0	3,615313	1,07025	317,3976	0,511	83,384	0	1016,1	7,3	9,2	9	1	1	1	1	1	1	1	1	1	0	1	-7,047216	274,432621	314,560153	0
15.01.2021	17:03:54	0	0	4,067227	1,0425	308,1096	0,512	83,387	0	1016,18	7,2	9,2	9	1	1	1	1	1	1	1	1	1	0	1	-7,610994	274,444771	314,053334	0
15.01.2021	17:03:55	0	0	3,502334	0,96825	316,7028	0,513	83,385	0	1016,18	7,2	9,2	9	1	1	1	1	1	1	1	1	1	0	1	-12,966878	274,472137	308,825765	0
15.01.2021	17:03:56	0	0	4,519141	0,99	321,7932	0,514	83,387	0	1016,1	7,3	9,2	9	1	1	1	1	1	1	1	1	1	0	1	-8,386187	274,437176	313,242536	0
15.01.2021	17:03:57	0	0	2,711485	0,9705	329,6808	0,511	83,367	0	1016,14	7,2	9,2	9	1	1	1	1	1	1	1	1	1	0	1	-10,147992	274,308521	310,878043	0
15.01.2021	17:03:58	0	0	3,728292	0,87525	345,4596	0,513	83,384	0	1016,14	7,2	9,2	9	1	1	1	1	1	1	1	1	1	0	1	-10,500352	274,399247	310,950604	0
15.01.2021	17:03:59	0	0	4,632092	0,82275	338,4252	0,506	83,38	0	1016,02	7,2	9,2	9,1	1	1	1	1	1	1	1	1	1	0	1	-10,641297	274,467573	311,129945	0
15.01.2021	17:04:00	0	0	2,711485	0,73725	314,7948	0,508	83,402	0	1016,08	7,2	9,2	9	1	1	1	1	1	1	1	1	1	0	1	-10,570825	274,325122	310,532931	0
15.01.2021	17:04:01	0	0	2,711485	0,73725	314,7948	0,508	83,402	0	1016,08	7,2	9,2	9	1	1	1	1	1	1	1	1	1	0	1	-10,570825	274,325122	310,532931	0
15.01.2021	17:04:02	0	0	3,502334	0,77925	312,4908	0,507	83,376	0	1016,08	7,3	9,2	9	1	1	1	1	1	1	1	1	1	0	1	-6,906272	274,440214	314,736691	0
15.01.2021	17:04:03	0	0	4,180206	0,7755	319,6224	0,514	83,393	0	1016,26	7,2	9,2	9	1	1	1	1	1	1	1	1	1	0	1	-12,473573	274,499541	309,447607	0
15.01.2021	17:04:04	0	0	4,519141	0,7605	322,56	0,51	83,399	0	1016,12	7,2	9,2	9	1	1	1	1	1	1	1	1	1	0	1	-11,627907	274,479745	310,200419	0
15.01.2021	17:04:05	0	0	4,63212	0,771	323,6724	0,512	83,393	0	1016,06	7,2	9,2	9	1	1	1	1	1	1	1	1	1	0	1	-10,570825	274,403795	310,901442	0
15.01.2021	17:04:06	0	0	4,29321	0,7725	317,4768	0,501	83,397	0	1016,02	7,2	9,2	8,9	1	1	1	1	1	1	1	1	1	0	1	-11,486963	274,322103	309,602656	0
15.01.2021	17:04:07	0	0	4,406163	0,789	314,5284	0,515	83,396	0	1016,16	7,2	9,2	9	1	1	1	1	1	1	1	1	1	0	1	-8,949965	274,479745	312,878361	0
15.01.2021	17:04:08	0	0,237942	4,519141	0,77325	312,2964	0,509	83,396	0	1016,16	7,2	9,2	9	1	1	1	1	1	1	1	1	1	0	1	-8,80902	274,441733	312,841063	0
15.01.2021	17:04:09	0	0	4,406136	0,7875	309,924	0,51	83,398	0	1016,26	7,2	9,2	9,1	1	1	1	1	1	1	1	1	1	0	1	-13,03735	274,456929	308,683979	0
15.01.2021	17:04:10	0	0,118971	3,05042	0,846	319,2048	0,507	83,383	0	1016,1	7,2	9,2	9	1	1	1	1	1	1	1	1	1	0	1	-12,121212	274,381068	309,244566	0
15.01.2021	17:04:11	0	0	3,389356	0,855	328,878	0,514	83,404	0	1016,06	7,2	9,2	9	1	1	1	1	1	1	1	1	1	0	1	-11,41649	274,493448	310,476106	0
15.01.2021	17:04:12	0	0	2,711485	0,85725	325,1016	0,511	83,395	0	1016,02	7,2	9,2	9	1	1	1	1	1	1	1	1	1	0	1	-9,795631	274,320593	311,28692	0
15.01.2021	17:04:13	0	0	4,971055	0,8985	320,7816	0,514	83,406	0	1016,12	7,2	9,2	9	1	1	1	1	1	1	1	1	1	0	1	-13,248767	274,411376	308,259029	0
15.01.2021	17:04:14	0	0	3,615313	0,867	321,8256	0,509	83,414	0	1016,26	7,2	9,2	9	1	1	1	1	1	1	1	1	1	0	1	-10,852713	274,307013	310,166259	0
15.01.2021	17:04:15	0	0	2,485528	0,84225	324,4392	0,505	83,397	0	1015,98	7,3	9,2	9	1	1	1	1	1	1	1	1	1	0	1	-8,527132	274,396216	312,909621	0
15.01.2021	17:04:16	0	0	2,598506	0,894	324,8424	0,509	83,402	0	1016,12	7,2	9,2	9	1	1	1	1	1	1	1	1	1	0	1	-10,42988	274,453888	311,277195	0
15.01.2021	17:04:17	0	0	4,067227	0,963	325,1952	0,506	83,407	0	1016,08	7,3	9,2	9	1	1	1	1	1	1	1	1	1	0	1	-7,82241	274,481267	314,013054	0
15.01.2021	17:04:18	0	0,118971	4,519141	1,026	326,8116	0,509	83,394	0	1015,98	7,2	9,2	9	1	1	1	1	1	1	1	1	1	0	1	-10,359408	274,387126	311,034752	0
15.01.2021	17:04:19	0	0	3,050402	1,05375	321,8652	0,506	83,391	0	1015,9	7,2	9,2	9,1	1	1	1	1	1	1	1	1	1	0	1	-9,654686	274,435658	311,966918	0
15.01.2021	17:04:20	0	0	2,711468	1,07775	321,228	0,509	83,409	0	1016,12	7,2	9,2	9,1	1	1	1	1	1	1	1	1	1	0	1	-16,138125	274,290427	304,803214	0
15.01.2021	17:04:21	0	0	3,276377	1,0995	322,2108	0,508	83,403	0	1016,2	7,2	9,2	9	1	1	1	1	1	1	1	1	1	0	1	-7,681466	274,370471	313,63467	0
15.01.2021	17:04:22	0	0	3,05042	1,059	320,4756	0,51	83,407	0	1016,18	7,2	9,2	9	1	1	1	1	1	1	1	1	1	0	1	-11,557435	274,421996	310,000131	0
15.01.2021	17:04:23	0	0	2,598506	1,0665	324,4464	0,534	83,42	0	1016,26	7,3	9,2	9	1	1	1	1	1	1	1	1	1	0	1	-13,6716	274,478223	308,149588	0
15.01.2021	17:04:24	0	0	2,937442	1,05225	321,894	0,506	83,398	0	1015,98	7,2	9,2	9	1	1	1	1	1	1	1	1	1	0	1	-7,82241	274,334184	313,323773	0
15.01.2021	17:04:25	0	0	5,422969	1,06425	317,808	0,507	83,406	0	1016,08	7,2	9,2	9	1	1	1	1	1	1	1	1	1	0	1	-10,993658	274,297964	309,98296	0
15.01.2021	17:04:26	0	0	2,598506	1,01475	317,7288	0,509	83,398	0	1016,14	7,2	9,2	9	1	1	1	1	1	1	1	1	1	0	1	-7,188161	274,396216	314,248593	0
15.01.2021	17:04:27	0	0	2,937442	1,05375	315,5544	0,502	83,418	0	1016,22	7,2	9,2	9	1	1	1	1	1	1	1	1	1	0	1	-15,715292	274,482789	306,127311	0
15.01.2021	17:04:28	0	0	4,180206	1,04325	315,6048	0,51	83,428	0	1016,08	7,2	9,2	9	1	1	1	1	1	1	1	1	1	0	1	-6,131078	274,476701	315,682973	0
15.01.2021	17:04:29	0	0	4,406136	1,10625	317,0628	0,51	83,424	0	1016,14	7,2	9,2	9,1	1	1	1	1	1	1	1	1	1	0	1	-10,288936	274,384097	311,091032	0
15.01.2021	17:04:30	0	0	3,276377	1,11075	321,8256	0,509	83,411	0	1015,98	7,2	9,2	9	1	1	1	1	1	1	1	1	1	0	1	-6,20155	274,297964	314,775067	0
15.01.2021	17:04:31	0	0	4,971026	1,125	318,834	0,508	83,423	0	1015,98	7,2	9,2	9,1	1	1	1	1	1	1	1	1	1	0	1	-7,470049	274,425031	314,101743	0
15.01.2021	17:04:32	0	0	2,711485	1,13775	310,7268	0,508	83,428	0	1016,18	7,2	9,2	9	1	1	1	1	1	1	1	1	1	0	1	-8,245243	274,34476	312,95047	0
15.01.2021	17:04:33	0	0	4,293184	1,11675	311,8572	0,507	83,423	0	1016,08	7,2	9,2	9	1	1	1	1	1	1	1	1	1	0	1	-8,174771	274,287413	312,752462	0
15.01.2021	17:04:34	0	0	4,63212	1,08375	318,87	0,507	83,429	0	1016,24	7,2	9,2	9	1	1	1	1	1	1	1	1	1	0	1	-13,178295	274,356855	308,074064	0
15.01.2021	17:04:35	0	0	2,598506	1,1295	325,1088	0,508	83,425	0	1016,24	7,2	9,2	9	1	1	1	1	1	1	1	1	1	0	1	-10,711769	274,482789	311,130835	0
15.01.2021	17:04:36	0	0	4,745098	1,1385	322,5564	0,502	83,405	0	1015,96	7,2	9,2	9	1	1	1	1	1	1	1	1	1	0	1	-7,540521	274,423513	314,024157	0
15.01.2021	17:04:37	0	0	4,63212	1,19475	327,1824	0,5	83,415	0	1016,04	7,2	9,2	9	1	1	1	1	1	1	1	1	1	0	1	-10,852713	274,287413	310,07452	0
15.01.2021	17:04:38	0	0	4,406189	1,122	316,2528	0,506	83,42	0	1016,16	7,2	9,2	8,9	1	1	1	1	1	1	1	1	1	0	1	-11,768851	274,373498	309,561465	0
15.01.2021	17:04:39	0	0	4,63212	1,10775	309,9564	0,508	83,42	0	1016,16	7,2	9,2	9	1	1	1	1	1	1	1	1	1	0	1	-14,235377	274,437176	307,393346	0
15.01.2021	17:04:40	0	0	2,598506	1,077	320,0724	0,503	83,417	0	1016,14	7,2	9,2	9	1	1	1	1	1	1	1	1	1	0	1	-7,963354	274,294949	312,999149	0
15.01.2021	17:04:41	0	0,118971	4,519141	1,152	306,5076	0,507	83,421	0	1016,26	7,2	9,2	9	1	1	1	1	1	1	1	1	1	0	1	-8,879493	274,438695	312,75635	0
15.01.2021	17:04:42	0	0	2,824463	1,18125	329,7096	0,507	83,421	0	1016,12	7,2	9,2	9	1	1	1	1	1	1	1	1	1	0	1	-7,188161	274,293441	313,767288	0
15.01.2021	17:04:43	0	0	4,745098	1,22325	325,1916	0,506	83,416	0	1016,2	7,2	9,2	9	1	1	1	1	1	1	1	1	1	0	1	-9,44327	274,364419	311,844514	0
15.01.2021	17:04:44	0	0	2,937442	1,26225	319,2228	0,502	83,429	0	1016,2	7,2	9,2	9	1	1	1	1	1	1	1	1	1	0	1	-8,949965	274,299472	312,03371	0
15.01.2021	17:04:45	0	0	3,163399	1,3095	310,446	0,509	83,42	0	1016,04	7,2	9,2	9	1	1	1	1	1	1	1	1	1	0	1	-6,20155	274,285906	314,71863	0
15.01.2021	17:04:46	0	0	3,163399	1,5405	311,8176	0,509	83,436	0	1016,18	7,2	9,2	9	1	1	1	1	1	1	1	1	1	0	1	-5,778717	274,412893	315,736186	0
15.01.2021	17:04:47	0	0,118971	4,745098	1,78275	318,1392	0,508	83,418	0	1016,06	7,2	9,2	9	1	1	1	1	1	1	1	1	1	0	1	-9,725159	274,28892	311,209127	0
15.01.2021	17:04:48	0	0	4,067227	1,887	307,5336	0,508	83,428	0	1016,14	7,2	9,2	9	1	1	1	1	1	1	1	1	1	0	1	-8,245243	274,405311	313,234128	0
15.01.2021	17:04:49	0	0	4,858106	1,971	317,754	0,507	83,434	0	1016,1	7,2	9,2	8,9	1	1	1	1	1	1	1	1	1	0	1	-13,883016	274,459969	307,852571	0
15.01.2021	17:04:50	0	0	2,598506	2,049	315,954	0,51	83,431	0	1016,14	7,2	9,2	9	1	1	1	1	1	1	1	1	1	0	1	-10,147992	274,431103	311,452261	0
15.01.2021	17:04:51	0	0	3,954249	2,00775	316,9872	0,511	83,433	0	1016,12	7,2	9,2	9	1	1	1	1	1	1	1	1	1	0	1	-11,134602	274,429584	310,458534	0
15.01.2021	17:04:52	0	0	3,389356	1,88925	315,8964	0,511	83,438	0	1016,12	7,2	9,2	9	1	1	1	1	1	1	1	1	1	0	1	-4,651163	274,482789	317,191441	0
15.01.2021	17:04:53	0	0	2,372549	1,78575	316,764	0,509	83,436	0	1016,12	7,2	9,2	9	1	1	1	1	1	1	1	1	1	0	1	-7,82241	274,334184	313,323773	0
15.01.2021	17:04:54	0	0	4,858077	1,686	311,8284	0,508	83,435	0	1016,16	7,2	9,2	9	1	1	1	1	1	1	1	1	1	0	1	-10,147992	274,440214	311,494971	0
15.01.2021	17:04:55	0	0	2,824463	1,6755	307,6632	0,514	83,445	0	1016,18	7,2	9,2	9	1	1	1	1	1	1	1	1	1	0	1	-6,20155	274,421996	315,356015	0
15.01.2021	17:04:56	0	0	2,259571	1,78725	317,5272	0,508	83,444	0	1016,12	7,2	9,2	9	1	1	1	1	1	1	1	1	1	0	1	-11,486963	274,478223	310,334225	0
15.01.2021	17:04:57	0	0	2,937442	1,9575	313,6824	0,506	83,435	0	1016,16	7,2	9,2	9	1	1	1	1	1	1	1	1	1	0	1	-9,44327	274,346272	311,759521	0
15.01.2021	17:04:58	0	0	2,711485	1,932	327,5856	0,504	83,43	0	1016,14	7,2	9,2	9	1	1	1	1	1	1	1	1	1	0	1	-9,44327	274,361393	311,830341	0
15.01.2021	17:04:59	0	0	3,615291	1,8975	314,46	0,506	83,441	0	1016,16	7,2	9,2	9,1	1	1	1	1	1	1	1	1	1	0	1	-8,668076	274,296456	312,301484	0
15.01.2021	17:05:00	0	0	3,615313	1,91775	320,0832	0,51	83,451	0	1016,16	7,2	9,2	9	1	1	1	1	1	1	1	1	1	0	1	-9,866103	274,381068	311,499675	0
15.01.2021	17:05:01	0	0	3,615313	1,91775	320,0832	0,51	83,451	0	1016,16	7,2	9,2	9	1	1	1	1	1	1	1	1	1	0	1	-7,892882	274,478223	313,928306	0
15.01.2021	17:05:02	0	0	2,598491	1,944	324,846	0,503	83,422	0	1016,16	7,2	9,2	9,1	1	1	1	1	1	1	1	1	1	0	1	-6,060606	274,37804	315,290985	0
15.01.2021	17:05:03	0	0	3,276377	1,851	322,3116	0,51	83,447	0	1016,16	7,2	9,2	9	1	1	1	1	1	1	1	1	1	0	1	-8,174771	274,476701	313,63928	0
15.01.2021	17:05:04	0	0	4,971026	1,70625	324,1656	0,506	83,438	0	1016,2	7,2	9,2	9,1	1	1	1	1	1	1	1	1	1	0	1	-12,191684	274,437176	309,437039	0
15.01.2021	17:05:05	0	0	4,519141	1,55475	320,058	0,504	83,457	0	1016,06	7,2	9,2	9	1	1	1	1	1	1	1	1	1	0	1	-6,765328	274,30098	314,225405	0
15.01.2021	17:05:06	0	0	2,485528	1,59675	322,9704	0,499	83,43	0	1015,98	7,2	9,2	9	1	1	1	1	1	1	1	1	1	0	1	-4,016913	274,418961	317,526429	0
15.01.2021	17:05:07	0	0	4,971055	1,64325	310,266	0,506	83,457	0	1016,12	7,2	9,2	9	1	1	1	1	1	1	1	1	1	0	1	-11,768851	274,46301	309,980996	0
15.01.2021	17:05:08	0	0	2,372549	1,70025	315,882	0,504	83,453	0	1016,08	7,2	9,2	9	1	1	1	1	1	1	1	1	1	0	1	-9,161381	274,297964	311,815236	0
15.01.2021	17:05:09	0	0	3,050402	1,7025	313,6392	0,507	83,452	0	1016,26	7,2	9,2	9,1	1	1	1	1	1	1	1	1	1	0	1	-9,936575	274,437176	311,692148	0
15.01.2021	17:05:10	0	0	2,259557	1,68675	313,2648	0,508	83,45	0	1016,08	7,2	9,2	9,1	1	1	1	1	1	1	1	1	1	0	1	-8,174771	274,317575	312,893647	0
15.01.2021	17:05:11	0	0	4,632092	1,68975	322,7112	0,505	83,453	0	1016,12	7,2	9,2	9,1	1	1	1	1	1	1	1	1	1	0	1	-7,047216	274,30098	313,943517	0
15.01.2021	17:05:12	0	0	3,728269	1,659	316,9872	0,507	83,448	0	1016,14	7,2	9,2	9,1	1	1	1	1	1	1	1	1	1	0	1	-8,033827	274,399247	313,41713	0
15.01.2021	17:05:13	0	0	4,293184	1,65675	306,1008	0,505	83,448	0	1016,08	7,2	9,2	9	1	1	1	1	1	1	1	1	1	0	1	-13,03735	274,30098	307,953383	0
15.01.2021	17:05:14	0	0	3,276358	1,64025	304,5888	0,506	83,445	0	1016,16	7,2	9,2	9,1	1	1	1	1	1	1	1	1	1	0	1	-7,82241	274,350807	313,40162	0
15.01.2021	17:05:15	0	0	2,711485	1,65075	297,5904	0,5	83,46	0	1016,1	7,2	9,2	9	1	1	1	1	1	1	1	1	1	0	1	-10,711769	274,308521	310,314265	0
15.01.2021	17:05:16	0	0	4,519141	1,58625	317,7684	0,504	83,448	0	1016,18	7,2	9,2	9	1	1	1	1	1	1	1	1	1	0	1	-11,486963	274,365932	309,807908	0
15.01.2021	17:05:17	0	0	3,163418	1,62825	304,686	0,51	83,457	0	1016,12	7,2	9,2	8,9	1	1	1	1	1	1	1	1	1	0	1	-9,654686	274,302488	311,343105	0
15.01.2021	17:05:18	0	0	4,745098	1,62825	310,6656	0,506	83,46	0	1016,04	7,2	9,2	9	1	1	1	1	1	1	1	1	1	0	1	-5,990134	274,373498	315,340182	0
15.01.2021	17:05:19	0	0	3,841247	1,6125	307,2132	0,499	83,453	0	1016,06	7,2	9,2	9,1	1	1	1	1	1	1	1	1	1	0	1	-10,852713	274,319084	310,222771	0
15.01.2021	17:05:20	0	0	4,858048	1,58775	307,188	0,499	83,458	0	1016,08	7,2	9,2	9,1	1	1	1	1	1	1	1	1	1	0	1	-12,191684	274,434139	309,422802	0
15.01.2021	17:05:21	0	0	3,615313	1,56	315,5472	0,503	83,463	0	1016,24	7,2	9,2	9	1	1	1	1	1	1	1	1	1	0	1	-14,094433	274,391671	307,321021	0
15.01.2021	17:05:22	0	0	4,971055	1,48125	312,4872	0,505	83,466	0	1016,16	7,2	9,2	9	1	1	1	1	1	1	1	1	1	0	1	-11,346018	274,47518	310,460896	0
15.01.2021	17:05:23	0	0	3,954225	1,41075	306,5004	0,499	83,464	0	1016,06	7,2	9,2	9,1	1	1	1	1	1	1	1	1	1	0	1	-13,742072	274,437176	307,886651	0
15.01.2021	17:05:24	0	0	3,05042	1,42125	312,912	0,504	83,482	0	1016,08	7,2	9,1	9	1	1	1	1	1	1	1	1	1	0	1	-7,681466	274,368958	313,627581	0
15.01.2021	17:05:25	0	0	3,276358	1,37025	312,8832	0,502	83,469	0	1016,14	7,2	9,2	9,1	1	1	1	1	1	1	1	1	1	0	1	-9,090909	274,469094	312,687466	0
15.01.2021	17:05:26	0	0	3,05042	1,3425	312,2028	0,503	83,482	0	1016,12	7,2	9,1	9	1	1	1	1	1	1	1	1	1	0	1	-8,174771	274,299472	312,808904	0
15.01.2021	17:05:27	0	0	3,841293	1,317	304,6464	0,504	83,48	0	1016,04	7,2	9,2	8,9	1	1	1	1	1	1	1	1	1	0	1	-3,946441	274,420478	317,604013	0
15.01.2021	17:05:28	0	0	3,728292	1,35525	311,4324	0,503	83,482	0	1016,14	7,2	9,2	9	1	1	1	1	1	1	1	1	1	0	1	-8,738548	274,487357	313,125477	0
15.01.2021	17:05:29	0	0	4,63212	1,45875	319,2732	0,495	83,476	0	1016	7,2	9,2	9	1	1	1	1	1	1	1	1	1	0	1	-14,728682	274,368958	306,580364	0
15.01.2021	17:05:30	0	0	4,406136	1,4925	319,266	0,502	83,483	0	1016,16	7,2	9,2	9,1	1	1	1	1	1	1	1	1	1	0	1	-6,483439	274,293441	314,472009	0
15.01.2021	17:05:31	0	0	4,180181	1,47825	315,5004	0,501	83,463	0	1016,04	7,2	9,2	9,1	1	1	1	1	1	1	1	1	1	0	1	-10,641297	274,370471	310,674839	0
15.01.2021	17:05:32	0	0	4,519141	1,49925	312,5124	0,503	83,484	0	1016,14	7,2	9,2	9	1	1	1	1	1	1	1	1	1	0	1	-12,121212	274,496494	309,785675	0
15.01.2021	17:05:33	0	0	3,502355	1,473	308,8584	0,496	83,472	0	1016,06	7,2	9,2	8,9	1	1	1	1	1	1	1	1	1	0	1	-9,090909	274,40986	312,409779	0
15.01.2021	17:05:34	0	0	4,293184	1,44525	315,3888	0,505	83,487	0	1016,2	7,2	9,2	9	1	1	1	1	1	1	1	1	1	0	1	-5,84919	274,481267	315,986275	0
15.01.2021	17:05:35	0	0	4,745127	1,42125	324,1368	0,501	83,476	0	1016,1	7,2	9,2	8,9	1	1	1	1	1	1	1	1	1	0	1	-7,963354	274,353831	313,274838	0
15.01.2021	17:05:36	0	0	2,598491	1,395	300,888	0,503	83,481	0	1016,08	7,2	9,2	9,1	1	1	1	1	1	1	1	1	1	0	1	-15,010571	274,481267	306,824893	0
15.01.2021	17:05:37	0	0	3,84127	1,4385	311,8248	0,508	83,486	0	1016,3	7,2	9,2	9	1	1	1	1	1	1	1	1	1	0	1	-9,584214	274,302488	311,413578	0
15.01.2021	17:05:38	0	0	4,74507	1,52625	317,0268	0,503	83,486	0	1016,1	7,2	9,2	9,1	1	1	1	1	1	1	1	1	1	0	1	-10,007047	274,385611	311,380016	0
15.01.2021	17:05:39	0	0	2,937442	1,542	317,448	0,499	83,483	0	1016,06	7,2	9,2	9	1	1	1	1	1	1	1	1	1	0	1	-10,288936	274,459969	311,446651	0
15.01.2021	17:05:40	0	0	3,954249	1,5315	315,9792	0,502	83,49	0	1016,14	7,2	9,2	9	1	1	1	1	1	1	1	1	1	0	1	-12,05074	274,432621	309,556629	0
15.01.2021	17:05:41	0	0	2,598506	1,5075	326,052	0,498	83,488	0	1016,16	7,2	9,2	9	1	1	1	1	1	1	1	1	1	0	1	-12,896406	274,472137	308,896237	0
15.01.2021	17:05:42	0	0	2,937442	1,5015	323,424	0,503	83,471	0	1016,2	7,2	9,2	9	1	1	1	1	1	1	1	1	1	0	1	-9,936575	274,403795	311,535691	0
15.01.2021	17:05:43	0	0	4,067227	1,479	321,9048	0,498	83,486	0	1016,12	7,2	9,2	9	1	1	1	1	1	1	1	1	1	0	1	-9,584214	274,297964	311,392403	0
15.01.2021	17:05:44	0	0	2,824446	1,42275	322,398	0,505	83,499	0	1016,2	7,2	9,2	9,1	1	1	1	1	1	1	1	1	1	0	1	-6,060606	274,443252	315,596599	0
15.01.2021	17:05:45	0	0	4,971026	1,386	323,334	0,502	83,485	0	1016,12	7,2	9,1	9,1	1	1	1	1	1	1	1	1	1	0	1	-6,412967	274,431103	315,187285	0
15.01.2021	17:05:46	0	0	4,519114	1,31625	319,5936	0,504	83,481	0	1016,02	7,2	9,2	9,1	1	1	1	1	1	1	1	1	1	0	1	-6,060606	274,285906	314,859574	0
15.01.2021	17:05:47	0	0	3,615335	1,2525	327,1392	0,5	83,485	0	1016,08	7,2	9,2	8,9	1	1	1	1	1	1	1	1	1	0	1	-9,584214	274,405311	311,895156	0
15.01.2021	17:05:48	0	0	4,971055	1,24125	308,1924	0,5	83,49	0	1016,22	7,2	9,2	9	1	1	1	1	1	1	1	1	1	0	1	-8,386187	274,470615	313,399321	0
15.01.2021	17:05:49	0	0	4,63212	1,25475	315,954	0,507	83,561	0	1016,32	7,2	9,2	9	1	1	1	1	1	1	1	1	1	0	1	-10,359408	274,317575	310,70901	0
15.01.2021	17:05:50	0	0	3,615313	1,25175	304,3116	0,523	83,516	0	1016,28	7,2	9,2	9	1	1	1	1	1	1	1	1	1	0	1	-9,44327	274,435658	312,178335	0
15.01.2021	17:05:51	0	0	4,745127	1,25925	289,242	0,503	83,501	0	1015,94	7,2	9,2	8,9	1	1	1	1	1	1	1	1	1	0	1	-6,624383	274,46301	315,125464	0
15.01.2021	17:05:52	0	0	4,406136	1,21875	303,6708	0,506	83,5	0	1016,14	7,2	9,2	9,1	1	1	1	1	1	1	1	1	1	0	1	-10,852713	274,382582	310,520159	0
15.01.2021	17:05:53	0	0	2,937442	1,233	304,56	0,501	83,497	0	1016,22	7,2	9,2	9	1	1	1	1	1	1	1	1	1	0	1	-9,302326	274,302488	311,695466	0
15.01.2021	17:05:54	0	0	4,858106	1,26225	293,742	0,506	83,506	0	1016,02	7,2	9,2	8,9	1	1	1	1	1	1	1	1	1	0	1	-10,007047	274,396216	311,429706	0
15.01.2021	17:05:55	0	0	2,485528	1,2675	300,1932	0,508	83,501	0	1016,24	7,2	9,2	9	1	1	1	1	1	1	1	1	1	0	1	-6,342495	274,293441	314,612954	0
15.01.2021	17:05:56	0	0	3,389336	1,2615	299,1024	0,504	83,492	0	1016,26	7,2	9,1	9,1	1	1	1	1	1	1	1	1	1	0	1	-16,490486	274,355343	304,754789	0
15.01.2021	17:05:57	0	0	2,937459	1,23225	299,106	0,505	83,497	0	1016,16	7,2	9,2	8,9	1	1	1	1	1	1	1	1	1	0	1	-9,372798	274,291934	311,575596	0
15.01.2021	17:05:58	0	0	3,16338	1,19475	297,3132	0,506	83,501	0	1016,02	7,2	9,2	9,1	1	1	1	1	1	1	1	1	1	0	1	-11,839323	274,428066	309,746697	0
15.01.2021	17:05:59	0	0	2,711468	1,17	310,698	0,51	83,506	0	1016,28	7,2	9,2	9,1	1	1	1	1	1	1	1	1	1	0	1	-7,329105	274,47518	314,477809	0
15.01.2021	17:06:00	0	0	2,372549	1,20825	300,4956	0,502	83,514	0	1016,08	7,2	9,2	9	1	1	1	1	1	1	1	1	1	0	1	-11,909796	274,484312	309,939948	0
15.01.2021	17:06:01	0	0	2,372549	1,20825	300,4956	0,502	83,514	0	1016,08	7,2	9,2	9	1	1	1	1	1	1	1	1	1	0	1	-12,262156	274,437176	309,366567	0
15.01.2021	17:06:02	0	0	4,406136	1,197	323,3952	0,498	83,508	0	1016,12	7,2	9,2	9,1	1	1	1	1	1	1	1	1	1	0	1	-7,399577	274,449329	314,286121	0
15.01.2021	17:06:03	0	0	3,841247	1,20675	329,31	0,499	83,495	0	1016,1	7,2	9,2	9,1	1	1	1	1	1	1	1	1	1	0	1	-11,909796	274,308521	309,116238	0
15.01.2021	17:06:04	0	0	2,259557	1,20375	321,8832	0,507	83,516	0	1016,2	7,2	9,2	9,1	1	1	1	1	1	1	1	1	1	0	1	-11,557435	274,453888	310,14964	0
15.01.2021	17:06:05	0	0	4,067227	1,19175	324,8136	0,499	83,505	0	1016,28	7,2	9,2	9	1	1	1	1	1	1	1	1	1	0	1	-9,020437	274,337205	312,139894	0
15.01.2021	17:06:06	0	0	4,519114	1,17375	327,492	0,504	83,503	0	1016,06	7,2	9,2	9,1	1	1	1	1	1	1	1	1	1	0	1	-11,346018	274,305504	309,665893	0
15.01.2021	17:06:07	0	0	2,598491	1,16475	321,4404	0,502	83,498	0	1015,96	7,2	9,1	9,1	1	1	1	1	1	1	1	1	1	0	1	-7,258633	274,335694	313,894624	0
15.01.2021	17:06:08	0	0	4,293184	1,17675	319,2552	0,499	83,51	0	1016,14	7,2	9,2	9	1	1	1	1	1	1	1	1	1	0	1	-10,359408	274,473658	311,44037	0
15.01.2021	17:06:09	0	0	4,971055	1,188	314,1468	0,497	83,512	0	1016,22	7,2	9,2	9	1	1	1	1	1	1	1	1	1	0	1	-10,007047	274,361393	311,266564	0
15.01.2021	17:06:10	0	0	4,745127	1,2165	313,2	0,504	83,513	0	1016,16	7,2	9,2	8,9	1	1	1	1	1	1	1	1	1	0	1	-8,597604	274,479745	313,230722	0
15.01.2021	17:06:11	0	0	3,05042	1,2345	308,16	0,496	83,509	0	1016,08	7,2	9,2	9	1	1	1	1	1	1	1	1	1	0	1	-6,8358	274,411376	314,671996	0
15.01.2021	17:06:12	0	0	4,971026	1,14825	323,4276	0,5	83,521	0	1016,1	7,2	9,1	9,1	1	1	1	1	1	1	1	1	1	0	1	-14,023961	274,328142	307,093935	0
15.01.2021	17:06:13	0	0	3,615291	1,113	309,8196	0,5	83,523	0	1016,14	7,2	9,2	9,1	1	1	1	1	1	1	1	1	1	0	1	-5,285412	274,437176	316,343311	0
15.01.2021	17:06:14	0	0	3,050439	1,1715	322,2972	0,502	83,525	0	1016,14	7,2	9,2	8,9	1	1	1	1	1	1	1	1	1	0	1	-7,610994	274,335694	313,542263	0
15.01.2021	17:06:15	0	0	2,711468	1,19625	339,8868	0,504	83,523	0	1016,12	7,2	9,2	9,1	1	1	1	1	1	1	1	1	1	0	1	-8,668076	274,46149	313,07464	0
15.01.2021	17:06:16	0	0	4,971026	1,2345	316,6524	0,502	83,518	0	1016,2	7,2	9,1	9,1	1	1	1	1	1	1	1	1	1	0	1	-9,231853	274,316065	311,829499	0
15.01.2021	17:06:17	0	0	3,276397	1,34175	306,8712	0,498	83,524	0	1016,1	7,2	9,2	8,9	1	1	1	1	1	1	1	1	1	0	1	-6,412967	274,326632	314,697858	0
15.01.2021	17:06:18	0	0	4,29321	1,3725	317,8512	0,497	83,507	0	1016,12	7,2	9,1	8,9	1	1	1	1	1	1	1	1	1	0	1	-6,976744	274,332673	314,162366	0
15.01.2021	17:06:19	0	0	3,84127	1,269	327,9492	0,501	83,523	0	1016	7,2	9,1	9	1	1	1	1	1	1	1	1	1	0	1	-5,144468	274,317575	315,92395	0
15.01.2021	17:06:20	0	0	4,180181	1,272	308,1888	0,502	83,523	0	1016,08	7,2	9,1	9,1	1	1	1	1	1	1	1	1	1	0	1	-11,839323	274,467573	309,931919	0
15.01.2021	17:06:21	0	0	3,615313	1,2855	300,888	0,497	83,528	0	1016,28	7,2	9,2	9	1	1	1	1	1	1	1	1	1	0	1	-12,262156	274,371985	309,061069	0
15.01.2021	17:06:22	0	0	4,745098	1,30725	304,2972	0,497	83,509	0	1016,04	7,2	9,1	9	1	1	1	1	1	1	1	1	1	0	1	-11,909796	274,487357	309,95423	0
15.01.2021	17:06:23	0	0	4,632092	1,35825	328,9968	0,497	83,525	0	1015,88	7,2	9,1	9,1	1	1	1	1	1	1	1	1	1	0	1	-9,302326	274,432621	312,305043	0
15.01.2021	17:06:24	0	0	4,293158	1,368	332,424	0,503	83,543	0	1016,2	7,2	9,2	9,1	1	1	1	1	1	1	1	1	1	0	1	-10,711769	274,449329	310,973929	0
15.01.2021	17:06:25	0	0	4,180206	1,36725	323,4492	0,496	83,541	0	1016,1	7,2	9,2	9	1	1	1	1	1	1	1	1	1	0	1	-12,825934	274,44781	308,85264	0
15.01.2021	17:06:26	0	0	2,259557	1,3695	322,9668	0,496	83,532	0	1016,22	7,2	9,2	9,1	1	1	1	1	1	1	1	1	1	0	1	-11,41649	274,429584	310,176646	0
15.01.2021	17:06:27	0	0	3,615291	1,374	325,1916	0,505	83,547	0	1016,22	7,2	9,1	9,1	1	1	1	1	1	1	1	1	1	0	1	-11,627907	274,30098	309,362826	0
15.01.2021	17:06:28	0	0	3,728292	1,3635	323,5248	0,499	83,521	0	1016,14	7,2	9,2	9	1	1	1	1	1	1	1	1	1	0	1	-10,923185	274,453888	310,78389	0
15.01.2021	17:06:29	0	0	4,067203	1,31625	321,9048	0,497	83,554	0	1016,2	7,2	9,2	9,1	1	1	1	1	1	1	1	1	1	0	1	-9,020437	274,415927	312,508685	0
15.01.2021	17:06:30	0	0	2,485528	1,215	316,6776	0,494	83,535	0	1016,2	7,2	9,1	9	1	1	1	1	1	1	1	1	1	0	1	-10,359408	274,478223	311,46178	0
15.01.2021	17:06:31	0	0	4,632148	1,2165	305,0676	0,5	83,542	0	1016,12	7,2	9,2	8,9	1	1	1	1	1	1	1	1	1	0	1	-8,033827	274,441733	313,616257	0
15.01.2021	17:06:32	0	0	3,389336	1,25925	304,0092	0,496	83,553	0	1016,24	7,2	9,1	9,1	1	1	1	1	1	1	1	1	1	0	1	-10,570825	274,308521	310,45521	0
15.01.2021	17:06:33	0	0	3,050402	1,24875	308,8404	0,495	83,538	0	1016,12	7,2	9,2	9,1	1	1	1	1	1	1	1	1	1	0	1	-9,090909	274,364419	312,196874	0
15.01.2021	17:06:34	0	0	3,16338	1,2015	308,5488	0,494	83,556	0	1016,18	7,2	9,2	9,1	1	1	1	1	1	1	1	1	1	0	1	-10,993658	274,290427	309,947682	0
15.01.2021	17:06:35	0	0	4,406136	1,1085	314,2404	0,498	83,55	0	1016,16	7,2	9,2	9,1	1	1	1	1	1	1	1	1	1	0	1	-11,557435	274,452369	310,142514	0
15.01.2021	17:06:36	0	0	4,858077	1,0815	322,848	0,5	83,537	0	1016,12	7,2	9,1	9	1	1	1	1	1	1	1	1	1	0	1	-6,8358	274,432621	314,771569	0
15.01.2021	17:06:37	0	0	4,519141	1,16325	322,2648	0,501	83,549	0	1016,12	7,2	9,1	9	1	1	1	1	1	1	1	1	1	0	1	-9,372798	274,299472	311,610877	0
15.01.2021	17:06:38	0	0	4,293184	1,21575	308,916	0,495	83,559	0	1016,16	7,2	9,2	9	1	1	1	1	1	1	1	1	1	0	1	-9,44327	274,406827	312,043206	0
15.01.2021	17:06:39	0	0	3,276377	1,24125	323,0928	0,496	83,556	0	1016,12	7,2	9,2	9	1	1	1	1	1	1	1	1	1	0	1	-9,725159	274,466052	312,038951	0
15.01.2021	17:06:40	0	0	4,632092	1,29525	306,5112	0,492	83,545	0	1016,2	7,2	9,1	9,1	1	1	1	1	1	1	1	1	1	0	1	-12,05074	274,347783	309,15913	0
15.01.2021	17:06:41	0	0	3,728292	1,28475	319,212	0,495	83,556	0	1016,14	7,2	9,1	9	1	1	1	1	1	1	1	1	1	0	1	-11,41649	274,469094	310,361885	0
15.01.2021	17:06:42	0	0	4,971026	1,30425	334,3176	0,499	83,557	0	1016,14	7,2	9,1	9,1	1	1	1	1	1	1	1	1	1	0	1	-13,742072	274,426549	307,836834	0
15.01.2021	17:06:43	0	0	3,050402	1,326	327,1284	0,497	83,557	0	1016,14	7,2	9,2	9,1	1	1	1	1	1	1	1	1	1	0	1	-11,980268	274,314556	309,074019	0
15.01.2021	17:06:44	0	0	2,824446	1,266	314,1036	0,503	83,566	0	1016,12	7,2	9,2	9,1	1	1	1	1	1	1	1	1	1	0	1	-7,963354	274,320593	313,119196	0
15.01.2021	17:06:45	0	0	2,711485	1,2135	328,9752	0,498	83,571	0	1016,16	7,2	9,2	9	1	1	1	1	1	1	1	1	1	0	1	-14,023961	274,373498	307,306355	0
15.01.2021	17:06:46	0	0	3,502334	1,12875	333,8928	0,496	83,561	0	1016,12	7,2	9,1	9	1	1	1	1	1	1	1	1	1	0	1	-9,936575	274,281386	310,962453	0
15.01.2021	17:06:47	0	0	2,824463	1,14675	317,8908	0,502	83,55	0	1016,22	7,2	9,1	9	1	1	1	1	1	1	1	1	1	0	1	-9,231853	274,28892	311,702432	0
15.01.2021	17:06:48	0	0	3,615313	1,2165	320,0868	0,5	83,566	0	1016,1	7,2	9,2	9	1	1	1	1	1	1	1	1	1	0	1	-7,470049	274,382582	313,902823	0
15.01.2021	17:06:49	0	0	4,519141	1,287	314,64	0,499	83,563	0	1016	7,2	9,2	9	1	1	1	1	1	1	1	1	1	0	1	-8,80902	274,449329	312,876678	0
15.01.2021	17:06:50	0	0	3,050402	1,3395	322,704	0,498	83,568	0	1016,1	7,2	9,1	9,1	1	1	1	1	1	1	1	1	1	0	1	-12,121212	274,361393	309,152399	0
15.01.2021	17:06:51	0	0	3,728292	1,4535	319,2516	0,498	83,566	0	1016,14	7,2	9,2	9	1	1	1	1	1	1	1	1	1	0	1	-16,772375	274,296456	304,197185	0
15.01.2021	17:06:52	0	0	4,180181	1,45425	322,3008	0,494	83,564	0	1016,16	7,2	9,2	9,1	1	1	1	1	1	1	1	1	1	0	1	-13,460183	274,346272	307,742608	0
15.01.2021	17:06:53	0	0	3,389356	1,4475	328,6872	0,495	83,57	0	1016,18	7,2	9,1	9	1	1	1	1	1	1	1	1	1	0	1	-14,094433	274,464531	307,662545	0
15.01.2021	17:06:54	0	0	3,163399	1,41825	312,5052	0,488	83,555	0	1016,1	7,2	9,1	9	1	1	1	1	1	1	1	1	1	0	1	-10,711769	274,437176	310,916955	0
15.01.2021	17:06:55	0	0	3,728269	1,31025	316,3356	0,504	83,576	0	1016,12	7,2	9,1	9,1	1	1	1	1	1	1	1	1	1	0	1	-15,926709	274,443252	305,730496	0
15.01.2021	17:06:56	0	0	4,180206	1,224	317,8224	0,496	83,575	0	1016,18	7,2	9,1	9	1	1	1	1	1	1	1	1	1	0	1	-10,923185	274,371985	310,40004	0
15.01.2021	17:06:57	0	0	3,276377	1,2345	310,2336	0,494	83,572	0	1016,16	7,2	9,2	9	1	1	1	1	1	1	1	1	1	0	1	-9,513742	274,290427	311,427597	0
15.01.2021	17:06:58	0	0	4,293158	1,41525	305,8884	0,496	83,572	0	1016,26	7,2	9,2	9,1	1	1	1	1	1	1	1	1	1	0	1	-8,668076	274,455409	313,046126	0
15.01.2021	17:06:59	0	0	4,858077	1,60125	303,57	0,5	83,574	0	1016,2	7,2	9,2	9	1	1	1	1	1	1	1	1	1	0	1	-13,953488	274,381068	307,41229	0
15.01.2021	17:07:00	0	0	3,954272	2,076	304,0128	0,498	83,559	0	1016,22	7,2	9,1	8,9	1	1	1	1	1	1	1	1	1	0	1	-9,795631	274,405311	311,68374	0
15.01.2021	17:07:01	0	0	3,954272	2,076	304,0128	0,498	83,559	0	1016,22	7,2	9,1	8,9	1	1	1	1	1	1	1	1	1	0	1	-9,795631	274,405311	311,68374	0
15.01.2021	17:07:02	0	0	3,050402	2,244	296,136	0,493	83,577	0	1016,06	7,2	9,2	9,1	1	1	1	1	1	1	1	1	1	0	1	-6,765328	274,478223	315,05586	0
15.01.2021	17:07:03	0	0	4,632092	2,24025	301,6008	0,498	83,577	0	1016,1	7,2	9,1	9,1	1	1	1	1	1	1	1	1	1	0	1	-6,976744	274,408343	314,516838	0
15.01.2021	17:07:04	0	0	4,745098	2,15325	313,2	0,496	83,592	0	1016,2	7,2	9,2	9	1	1	1	1	1	1	1	1	1	0	1	-11,41649	274,444771	310,247837	0
15.01.2021	17:07:05	0	0	4,74507	2,05875	302,6016	0,496	83,586	0	1016,14	7,2	9,2	9,1	1	1	1	1	1	1	1	1	1	0	1	-6,20155	274,426549	315,377356	0
15.01.2021	17:07:06	0	0	4,406136	1,9515	302,8572	0,501	83,59	0	1016,2	7,2	9,1	9,1	1	1	1	1	1	1	1	1	1	0	1	-10,359408	274,450849	311,333415	0
15.01.2021	17:07:07	0	0	2,372535	1,91025	300,5388	0,496	83,576	0	1016,18	7,2	9,1	9,1	1	1	1	1	1	1	1	1	1	0	1	-10,923185	274,408343	310,570397	0
15.01.2021	17:07:08	0	0	3,84127	1,90275	301,6656	0,495	83,57	0	1016,22	7,2	9,2	9	1	1	1	1	1	1	1	1	1	0	1	-8,033827	274,291934	312,914567	0
15.01.2021	17:07:09	0	0	4,858048	1,87125	305,7588	0,494	83,58	0	1016,24	7,2	9,1	9,1	1	1	1	1	1	1	1	1	1	0	1	-8,738548	274,365932	312,556322	0
15.01.2021	17:07:10	0	0	2,82448	1,88175	297,6264	0,49	83,581	0	1016,18	7,2	9,1	8,9	1	1	1	1	1	1	1	1	1	0	1	-11,909796	274,291934	309,038598	0
15.01.2021	17:07:11	0	0	3,050402	1,8315	297,6444	0,497	83,578	0	1016,08	7,2	9,1	9,1	1	1	1	1	1	1	1	1	1	0	1	-11,205074	274,435658	310,416531	0
15.01.2021	17:07:12	0	0	3,16338	1,77075	300,9024	0,498	83,583	0	1016,24	7,2	9,1	9,1	1	1	1	1	1	1	1	1	1	0	1	-7,470049	274,319084	313,605435	0
15.01.2021	17:07:13	0	0	3,841247	1,71375	305,064	0,499	83,59	0	1016,28	7,2	9,1	9,1	1	1	1	1	1	1	1	1	1	0	1	-14,376321	274,34476	306,819391	0
15.01.2021	17:07:14	0	0	4,180181	1,683	296,442	0,492	83,565	0	1016,08	7,2	9,1	9,1	1	1	1	1	1	1	1	1	1	0	1	-7,470049	274,325122	313,633706	0
15.01.2021	17:07:15	0	0	3,389356	1,73175	297,9396	0,5	83,583	0	1016,28	7,2	9,1	9	1	1	1	1	1	1	1	1	1	0	1	-10,852713	274,464531	310,904265	0
15.01.2021	17:07:16	0	0	4,632092	1,64025	304,2432	0,49	83,571	0	1016,2	7,2	9,2	9,1	1	1	1	1	1	1	1	1	1	0	1	-17,547569	274,343249	303,641066	0
15.01.2021	17:07:17	0	0	4,067227	1,57425	308,0772	0,495	83,579	0	1016,18	7,2	9,1	9	1	1	1	1	1	1	1	1	1	0	1	-7,681466	274,305504	313,330446	0
15.01.2021	17:07:18	0	0	4,858077	1,49175	314,0784	0,493	83,575	0	1016,08	7,2	9,1	9	1	1	1	1	1	1	1	1	1	0	1	-8,033827	274,403795	313,438439	0
15.01.2021	17:07:19	0	0	2,937442	1,4445	297,5436	0,501	83,587	0	1016,18	7,2	9,2	9	1	1	1	1	1	1	1	1	1	0	1	-4,862579	274,285906	316,057601	0
15.01.2021	17:07:20	0	0	3,389336	1,4085	298,782	0,498	83,577	0	1016,2	7,2	9,1	9,1	1	1	1	1	1	1	1	1	1	0	1	-12,332629	274,373498	308,997687	0
15.01.2021	17:07:21	0	0	3,389336	1,38975	301,5828	0,489	83,578	0	1016,1	7,2	9,1	9,1	1	1	1	1	1	1	1	1	1	0	1	-7,399577	274,41441	314,122435	0
15.01.2021	17:07:22	0	0	2,711501	1,4115	301,6224	0,491	83,565	0	1016,22	7,2	9,1	8,9	1	1	1	1	1	1	1	1	1	0	1	-10,42988	274,291934	310,518513	0
15.01.2021	17:07:23	0	0	3,05042	1,3995	299,826	0,493	83,563	0	1016,08	7,2	9,1	9	1	1	1	1	1	1	1	1	1	0	1	-10,288936	274,338716	310,87847	0
15.01.2021	17:07:24	0	0	4,519114	1,4955	299,1204	0,496	83,586	0	1016,2	7,1	9,1	9,1	1	1	1	1	1	1	1	1	1	0	1	-9,725159	274,453888	311,981916	0
15.01.2021	17:07:25	0	0	2,937424	1,578	295,1748	0,497	83,581	0	1016,18	7,2	9,1	9,1	1	1	1	1	1	1	1	1	1	0	1	-6,20155	274,388641	315,199707	0
15.01.2021	17:07:26	0	0	3,05042	1,62975	300,1896	0,488	83,577	0	1016,12	7,1	9,1	9	1	1	1	1	1	1	1	1	1	0	1	-8,386187	274,453888	313,320888	0
15.01.2021	17:07:27	0	0	4,745098	1,66125	307,3752	0,495	83,571	0	1016,14	7,2	9,1	9	1	1	1	1	1	1	1	1	1	0	1	-9,725159	274,313047	311,322064	0
15.01.2021	17:07:28	0	0	4,63212	1,659	311,868	0,492	83,571	0	1016,22	7,2	9,1	9	1	1	1	1	1	1	1	1	1	0	1	-11,205074	274,308521	309,82096	0
15.01.2021	17:07:29	0	0	3,16338	1,689	309,9312	0,489	83,568	0	1016,04	7,2	9,1	9,1	1	1	1	1	1	1	1	1	1	0	1	-11,275546	274,28892	309,65874	0
15.01.2021	17:07:30	0	0	2,937442	1,683	309,2616	0,489	83,576	0	1015,86	7,2	9,2	9	1	1	1	1	1	1	1	1	1	0	1	-9,866103	274,316065	311,195249	0
15.01.2021	17:07:31	0	0	2,824463	1,689	305,7516	0,492	83,581	0	1016,18	7,2	9,1	9	1	1	1	1	1	1	1	1	1	0	1	-8,174771	274,282893	312,731307	0
15.01.2021	17:07:32	0	0	4,63212	1,617	296,8776	0,492	83,571	0	1016,18	7,2	9,1	9	1	1	1	1	1	1	1	1	1	0	1	-8,738548	274,453888	312,968527	0
15.01.2021	17:07:33	0	0	3,84127	1,55325	310,014	0,494	83,566	0	1016,22	7,2	9,1	9	1	1	1	1	1	1	1	1	1	0	1	-11,980268	274,281386	308,91876	0
15.01.2021	17:07:34	0	0	4,971055	1,48425	305,0244	0,492	83,578	0	1016,26	7,2	9,1	9	1	1	1	1	1	1	1	1	1	0	1	-9,513742	274,412893	312,001162	0
15.01.2021	17:07:35	0	0	3,615313	1,40925	308,9016	0,496	83,599	0	1016,26	7,1	9,1	9	1	1	1	1	1	1	1	1	1	0	1	-10,923185	274,281386	309,975843	0
15.01.2021	17:07:36	0	0	4,293184	1,3725	312,5628	0,492	83,583	0	1016,02	7,2	9,1	9	1	1	1	1	1	1	1	1	1	0	1	-4,510218	274,396216	316,926535	0
15.01.2021	17:07:37	0	0	3,728292	1,3875	300,4812	0,498	83,588	0	1016,2	7,2	9,2	9	1	1	1	1	1	1	1	1	1	0	1	-10,42988	274,481267	311,405584	0
15.01.2021	17:07:38	0	0	4,067203	1,36125	304,3296	0,494	83,578	0	1016,14	7,2	9,2	9,1	1	1	1	1	1	1	1	1	1	0	1	-12,614517	274,382582	308,758355	0
15.01.2021	17:07:39	0	0	4,293184	1,34325	312,8328	0,494	83,574	0	1016,2	7,2	9,1	9	1	1	1	1	1	1	1	1	1	0	1	-12,755462	274,476701	309,058589	0
15.01.2021	17:07:40	0	0	2,598506	1,41	312,8724	0,493	83,612	0	1016,54	7,2	9,1	9	1	1	1	1	1	1	1	1	1	0	1	-12,332629	274,432621	309,27474	0
15.01.2021	17:07:41	0	0	3,502334	1,44225	326,4336	0,492	83,589	0	1016,06	7,2	9,1	9	1	1	1	1	1	1	1	1	1	0	1	-3,946441	274,343249	317,242194	0
15.01.2021	17:07:42	0	0	4,180206	1,47075	330,3792	0,497	83,601	0	1016,2	7,2	9,3	9	1	1	1	1	1	1	1	1	1	0	1	-9,372798	274,440214	312,270165	0
15.01.2021	17:07:43	0	0	4,067227	1,44825	323,2728	0,495	83,587	0	1016,16	7,2	9,1	9	1	1	1	1	1	1	1	1	1	0	1	-8,527132	274,329652	312,597835	0
15.01.2021	17:07:44	0	0	3,84127	1,494	328,2264	0,488	83,581	0	1016,1	7,2	9,2	9	1	1	1	1	1	1	1	1	1	0	1	-9,44327	274,449329	312,242428	0
15.01.2021	17:07:45	0	0	4,858048	1,72125	328,212	0,495	83,601	0	1016,14	7,1	9,1	9,1	1	1	1	1	1	1	1	1	1	0	1	-9,161381	274,346272	312,04141	0
15.01.2021	17:07:46	0	0	5,197012	1,7895	324,8676	0,491	83,572	0	1016,24	7,2	9,2	9	1	1	1	1	1	1	1	1	1	0	1	-11,627907	274,27235	309,228834	0
15.01.2021	17:07:47	0	0	3,389356	1,791	327,2256	0,499	83,584	0	1016,28	7,2	9,1	9	1	1	1	1	1	1	1	1	1	0	1	-4,439746	274,371985	316,883479	0
15.01.2021	17:07:48	0	0	4,858077	1,74	313,2684	0,492	83,578	0	1016,14	7,1	9,2	9	1	1	1	1	1	1	1	1	1	0	1	-11,41649	274,281386	309,482537	0
15.01.2021	17:07:49	0	0	2,824463	1,65075	306,4608	0,496	83,587	0	1016,14	7,1	9,1	9	1	1	1	1	1	1	1	1	1	0	1	-6,624383	274,358368	314,635059	0
15.01.2021	17:07:50	0	0	4,067227	1,548	291,2148	0,492	83,571	0	1016,14	7,2	9,1	9	1	1	1	1	1	1	1	1	1	0	1	-13,460183	274,40986	308,040505	0
15.01.2021	17:07:51	0	0	2,711485	1,5435	292,6476	0,498	83,583	0	1016,28	7,1	9,3	9	1	1	1	1	1	1	1	1	1	0	1	-10,923185	274,469094	310,85519	0
15.01.2021	17:07:52	0	0	2,711485	1,539	297,9	0,492	83,585	0	1016,14	7,2	9,1	9	1	1	1	1	1	1	1	1	1	0	1	-7,82241	274,331163	313,309628	0
15.01.2021	17:07:53	0	0	4,067227	1,5765	297,018	0,491	83,58	0	1016,14	7,1	9,1	9	1	1	1	1	1	1	1	1	1	0	1	-12,121212	274,456929	309,600118	0
15.01.2021	17:07:54	0	0	3,954249	1,4955	300,9204	0,495	83,585	0	1016,28	7,1	9,1	9	1	1	1	1	1	1	1	1	1	0	1	-6,624383	274,432621	314,982986	0
15.01.2021	17:07:55	0	0	4,745098	1,428	298,7028	0,491	83,588	0	1016,2	7,2	9,1	9	1	1	1	1	1	1	1	1	1	0	1	-10,711769	274,458449	311,016689	0
15.01.2021	17:07:56	0	0	3,05042	1,38375	320,0652	0,488	83,578	0	1016,2	7,2	9,1	9	1	1	1	1	1	1	1	1	1	0	1	-8,879493	274,325122	312,224263	0
15.01.2021	17:07:57	0	0	4,63212	1,407	331,6572	0,491	83,575	0	1016,3	7,2	9,1	9	1	1	1	1	1	1	1	1	1	0	1	-10,852713	274,294949	310,109791	0
15.01.2021	17:07:58	0	0	3,163399	1,40625	331,5024	0,491	83,588	0	1016,28	7,1	9,2	9	1	1	1	1	1	1	1	1	1	0	1	-11,134602	274,375012	310,202805	0
15.01.2021	17:07:59	0	0	3,84127	1,398	329,3136	0,493	83,581	0	1016,12	7,2	9,2	9	1	1	1	1	1	1	1	1	1	0	1	-8,949965	274,478223	312,871223	0
15.01.2021	17:08:00	0	0	4,067203	1,23675	308,9484	0,493	83,588	0	1016,22	7,1	9,1	9,1	1	1	1	1	1	1	1	1	1	0	1	-6,906272	274,441733	314,743812	0
15.01.2021	17:08:01	0	0	4,067203	1,23675	308,9484	0,493	83,588	0	1016,22	7,1	9,1	9,1	1	1	1	1	1	1	1	1	1	0	1	-12,896406	274,396216	308,540347	0
15.01.2021	17:08:02	0	0	4,406163	1,167	315,9324	0,487	83,583	0	1016,04	7,2	9,1	9	1	1	1	1	1	1	1	1	1	0	1	-13,953488	274,472137	307,839155	0
15.01.2021	17:08:03	0	0	3,05042	1,11525	317,4516	0,495	83,588	0	1016,2	7,2	9,2	9	1	1	1	1	1	1	1	1	1	0	1	-7,82241	274,418961	313,720932	0
15.01.2021	17:08:04	0	0	2,937442	1,10625	311,9076	0,492	83,587	0	1016,14	7,2	9,1	9	1	1	1	1	1	1	1	1	1	0	1	-5,144468	274,293441	315,81098	0
15.01.2021	17:08:05	0	0	2,598506	1,0545	317,4156	0,489	83,595	0	1016,14	7,2	9,1	9	1	1	1	1	1	1	1	1	1	0	1	-6,20155	274,397732	315,242304	0
15.01.2021	17:08:06	0	0	4,180206	1,05675	313,6356	0,485	83,589	0	1016,18	7,1	9,1	9	1	1	1	1	1	1	1	1	1	0	1	-7,610994	274,296456	313,358567	0
15.01.2021	17:08:07	0	0	4,858077	1,06875	307,2384	0,487	83,593	0	1016,16	7,2	9,2	9	1	1	1	1	1	1	1	1	1	0	1	-8,597604	274,381068	312,768174	0
15.01.2021	17:08:08	0	0	2,372549	1,131	303,6564	0,487	83,599	0	1016,16	7,2	9,2	9	1	1	1	1	1	1	1	1	1	0	1	-10,359408	274,485834	311,497476	0
15.01.2021	17:08:09	0	0	3,502334	1,22475	301,6152	0,488	83,609	0	1016,16	7,2	9,1	9	1	1	1	1	1	1	1	1	1	0	1	-8,104299	274,384097	313,275669	0
15.01.2021	17:08:10	0	0	3,84127	1,26975	302,94	0,486	83,592	0	1016,18	7,1	9,1	9	1	1	1	1	1	1	1	1	1	0	1	-10,218464	274,466052	311,545646	0
15.01.2021	17:08:11	0	0	2,824463	1,28625	295,2216	0,491	83,587	0	1016,2	7,1	9,1	9	1	1	1	1	1	1	1	1	1	0	1	-10,077519	274,406827	311,408957	0
15.01.2021	17:08:12	0	0	3,276377	1,251	289,6416	0,496	83,596	0	1016,16	7,1	9,1	9	1	1	1	1	1	1	1	1	1	0	1	-7,188161	274,297964	313,788456	0
15.01.2021	17:08:13	0	0	2,937442	1,28925	297,6228	0,489	83,603	0	1016,16	7,2	9,2	9	1	1	1	1	1	1	1	1	1	0	1	-6,8358	274,313047	314,211423	0
15.01.2021	17:08:14	0	0	2,598506	1,2825	302,1768	0,485	83,588	0	1016,12	7,2	9,2	9	1	1	1	1	1	1	1	1	1	0	1	-12,966878	274,319084	308,108606	0
15.01.2021	17:08:15	0	0	3,05042	1,37925	299,8332	0,489	83,609	0	1016,26	7,2	9,1	9	1	1	1	1	1	1	1	1	1	0	1	-5,637773	274,399247	315,813183	0
15.01.2021	17:08:16	0	0	3,389356	1,47075	306,9144	0,486	83,586	0	1016,18	7,2	9,1	9	1	1	1	1	1	1	1	1	1	0	1	-7,963354	274,290427	312,977985	0
15.01.2021	17:08:17	0	0	2,259571	1,4565	318,222	0,489	83,593	0	1016,16	7,1	9,1	9	1	1	1	1	1	1	1	1	1	0	1	-11,698379	274,334184	309,447804	0
15.01.2021	17:08:18	0	0	4,858077	1,35225	314,1864	0,488	83,59	0	1016,22	7,2	9,1	9	1	1	1	1	1	1	1	1	1	0	1	-8,80902	274,46149	312,933696	0
15.01.2021	17:08:19	0	0	3,05042	1,34475	311,7888	0,49	83,6	0	1016,18	7,2	9,2	9	1	1	1	1	1	1	1	1	1	0	1	-10,077519	274,443252	311,579686	0
15.01.2021	17:08:20	0	0	3,502334	1,40625	298,7172	0,49	83,601	0	1016,12	7,1	9,1	9	1	1	1	1	1	1	1	1	1	0	1	-12,825934	274,432621	308,781435	0
15.01.2021	17:08:21	0	0	2,711485	1,4535	315,504	0,485	83,608	0	1016,02	7,1	9,1	9	1	1	1	1	1	1	1	1	1	0	1	-8,668076	274,437176	312,960647	0
15.01.2021	17:08:22	0	0	3,615313	1,4295	318,8484	0,489	83,593	0	1016,12	7,1	9,1	9	1	1	1	1	1	1	1	1	1	0	1	-10,007047	274,303996	310,997804	0
15.01.2021	17:08:23	0	0	4,858077	1,46625	307,6524	0,488	83,6	0	1016,24	7,2	9,2	9	1	1	1	1	1	1	1	1	1	0	1	-9,161381	274,340227	312,013101	0
15.01.2021	17:08:24	0	0	3,276377	1,50375	311,8752	0,489	83,6	0	1016,2	7,2	9,1	9	1	1	1	1	1	1	1	1	1	0	1	-10,641297	274,296456	310,328263	0
15.01.2021	17:08:25	0	0	2,485528	1,4835	309,6216	0,488	83,601	0	1016,28	7,2	9,1	9	1	1	1	1	1	1	1	1	1	0	1	-7,188161	274,425031	314,383631	0
15.01.2021	17:08:26	0	0	4,63212	1,53375	304,6716	0,479	83,597	0	1016,24	7,1	9,2	9	1	1	1	1	1	1	1	1	1	0	1	-10,570825	274,46149	311,171892	0
15.01.2021	17:08:27	0	0	3,954249	1,572	306,9828	0,488	83,6	0	1016,18	7,1	9,2	9	1	1	1	1	1	1	1	1	1	0	1	-10,711769	274,432621	310,8956	0
15.01.2021	17:08:28	0	0	2,937442	1,59375	306,7884	0,484	83,6	0	1016,16	7,1	9,2	9	1	1	1	1	1	1	1	1	1	0	1	-8,245243	274,30098	312,74549	0
15.01.2021	17:08:29	0	0	3,05042	1,62075	308,5668	0,489	83,608	0	1016,06	7,2	9,1	9	1	1	1	1	1	1	1	1	1	0	1	-8,949965	274,331163	312,182073	0
15.01.2021	17:08:30	0	0	4,858077	1,5945	317,4696	0,485	83,616	0	1016,3	7,2	9,2	9	1	1	1	1	1	1	1	1	1	0	1	-8,879493	274,47518	312,927422	0
15.01.2021	17:08:31	0	0	2,937442	1,5045	320,7384	0,486	83,588	0	1016,14	7,1	9,1	9	1	1	1	1	1	1	1	1	1	0	1	-12,684989	274,37804	308,666602	0
15.01.2021	17:08:32	0	0	4,067227	1,44075	314,9028	0,489	83,613	0	1016,28	7,1	9,2	9	1	1	1	1	1	1	1	1	1	0	1	-6,272023	274,46149	315,470694	0
15.01.2021	17:08:33	0	0	3,163399	1,43175	309,8484	0,491	83,608	0	1016,2	7,2	9,1	9	1	1	1	1	1	1	1	1	1	0	1	-13,319239	274,313047	307,727984	0
15.01.2021	17:08:34	0	0	2,937442	1,49475	312,4872	0,484	83,621	0	1016,32	7,2	9,1	9	1	1	1	1	1	1	1	1	1	0	1	-12,825934	274,40986	308,674755	0
15.01.2021	17:08:35	0	0	4,406163	1,47825	302,868	0,486	83,61	0	1016,22	7,2	9,2	9	1	1	1	1	1	1	1	1	1	0	1	-11,134602	274,466052	310,629508	0
15.01.2021	17:08:36	0	0	4,63212	1,4235	311,0436	0,49	83,619	0	1016,24	7,2	9,2	9	1	1	1	1	1	1	1	1	1	0	1	-11,557435	274,346272	309,645356	0
15.01.2021	17:08:37	0	0	4,406136	1,3455	295,2576	0,484	83,609	0	1016,22	7,1	9,2	9,1	1	1	1	1	1	1	1	1	1	0	1	-12,966878	274,44629	308,704572	0
15.01.2021	17:08:38	0	0	4,745098	1,2765	294,894	0,488	83,614	0	1016,08	7,1	9,2	9	1	1	1	1	1	1	1	1	1	0	1	-8,033827	274,337205	313,126505	0
15.01.2021	17:08:39	0	0	2,485528	1,2975	297,2484	0,49	83,615	0	1016,32	7,1	9,2	9	1	1	1	1	1	1	1	1	1	0	1	-8,033827	274,276867	312,844055	0
15.01.2021	17:08:40	0	0	3,502334	1,42125	304,4232	0,49	83,617	0	1016,04	7,1	9,1	9	1	1	1	1	1	1	1	1	1	0	1	-7,470049	274,337205	313,690282	0
15.01.2021	17:08:41	0	0	3,615313	1,53675	308,9376	0,487	83,602	0	1016,24	7,1	9,2	9	1	1	1	1	1	1	1	1	1	0	1	-9,302326	274,450849	312,390498	0
15.01.2021	17:08:42	0	0	4,293184	1,62225	303,4836	0,481	83,628	0	1016,26	7,1	9,2	9	1	1	1	1	1	1	1	1	1	0	1	-9,372798	274,393186	312,049755	0
15.01.2021	17:08:43	0	0	4,63212	1,64775	300,5352	0,485	83,617	0	1016,02	7,1	9,2	9	1	1	1	1	1	1	1	1	1	0	1	-12,896406	274,411376	308,61139	0
15.01.2021	17:08:44	0	0	2,485528	1,6785	307,5876	0,485	83,63	0	1016,24	7,2	9,2	9	1	1	1	1	1	1	1	1	1	0	1	-9,302326	274,287413	311,624907	0
15.01.2021	17:08:45	0	0	3,502334	1,698	308,2176	0,486	83,626	0	1016,14	7,1	9,2	9	1	1	1	1	1	1	1	1	1	0	1	-9,44327	274,311538	311,596889	0
15.01.2021	17:08:46	0	0	4,067227	1,64325	313,6896	0,486	83,618	0	1016,2	7,1	9,2	9	1	1	1	1	1	1	1	1	1	0	1	-8,104299	274,329652	313,020668	0
15.01.2021	17:08:47	0	0	2,824463	1,64325	306,8496	0,482	83,624	0	1016,1	7,1	9,2	9	1	1	1	1	1	1	1	1	1	0	1	-12,191684	274,291934	308,756709	0
15.01.2021	17:08:48	0	0	4,745098	1,5585	305,7912	0,482	83,611	0	1016,12	7,1	9,1	9	1	1	1	1	1	1	1	1	1	0	1	-11,346018	274,352319	309,885093	0
15.01.2021	17:08:49	0	0	4,067227	1,50375	307,764	0,483	83,619	0	1016,18	7,1	9,1	9	1	1	1	1	1	1	1	1	1	0	1	-8,245243	274,455409	313,468959	0
15.01.2021	17:08:50	0	0	4,067227	1,4205	295,5564	0,481	83,624	0	1016,14	7,1	9,2	9	1	1	1	1	1	1	1	1	1	0	1	-8,738548	274,459969	312,997039	0
15.01.2021	17:08:51	0	0	3,276377	1,425	303,5484	0,488	83,622	0	1016,28	7,1	9,1	9	1	1	1	1	1	1	1	1	1	0	1	-9,936575	274,314556	311,117712	0
15.01.2021	17:08:52	0	0	2,711485	1,4535	309,312	0,486	83,62	0	1016,16	7,2	9,1	9	1	1	1	1	1	1	1	1	1	0	1	-3,875969	274,323613	317,220718	0
15.01.2021	17:08:53	0	0	2,824463	1,48125	302,1336	0,481	83,619	0	1016,14	7,1	9,2	9	1	1	1	1	1	1	1	1	1	0	1	-7,681466	274,287413	313,245767	0
15.01.2021	17:08:54	0	0	3,163399	1,485	304,6752	0,489	83,619	0	1016,2	7,1	9,2	9	1	1	1	1	1	1	1	1	1	0	1	-10,147992	274,390156	311,260364	0
15.01.2021	17:08:55	0	0	2,598506	1,5225	310,3344	0,485	83,603	0	1016,02	7,1	9,2	9	1	1	1	1	1	1	1	1	1	0	1	-9,725159	274,470615	312,06035	0
15.01.2021	17:08:56	0	0	4,519141	1,476	309,978	0,486	83,628	0	1016,18	7,1	9,2	9	1	1	1	1	1	1	1	1	1	0	1	-9,44327	274,387126	311,95089	0
15.01.2021	17:08:57	0	0	3,389356	1,395	308,5884	0,477	83,617	0	1016,22	7,2	9,2	9	1	1	1	1	1	1	1	1	1	0	1	-11,909796	274,444771	309,754532	0
15.01.2021	17:08:58	0	0	3,84127	1,34475	310,3236	0,481	83,611	0	1016,24	7,1	9,2	9	1	1	1	1	1	1	1	1	1	0	1	-7,963354	274,332673	313,175756	0
15.01.2021	17:08:59	0	0	2,711485	1,3065	314,1144	0,485	83,626	0	1016,24	7,1	9,2	9	1	1	1	1	1	1	1	1	1	0	1	-14,869626	274,282893	306,036452	0
15.01.2021	17:09:00	0	0	4,067227	1,25475	309,5568	0,484	83,622	0	1016,22	7,1	9,2	9	1	1	1	1	1	1	1	1	1	0	1	-7,117689	274,362906	314,163009	0
15.01.2021	17:09:01	0	0	3,84127	1,20375	310,9968	0,482	83,616	0	1016,14	7,1	9,2	9	1	1	1	1	1	1	1	1	1	0	1	-8,668076	274,278374	312,216853	0
15.01.2021	17:09:02	0	0	2,372549	1,21425	298,3644	0,486	83,639	0	1016,16	7,1	9,2	9	1	1	1	1	1	1	1	1	1	0	1	-12,262156	274,297964	308,714461	0
15.01.2021	17:09:03	0	0	3,615313	1,221	296,8884	0,482	83,621	0	1016,2	7,2	9,2	9	1	1	1	1	1	1	1	1	1	0	1	-11,486963	274,394701	309,94269	0
15.01.2021	17:09:04	0	0	4,406163	1,2015	300,51	0,484	83,622	0	1016,22	7,1	9,1	9	1	1	1	1	1	1	1	1	1	0	1	-12,262156	274,418961	309,281186	0
15.01.2021	17:09:05	0	0	4,406163	1,20075	297,9	0,48	83,617	0	1016,08	7,1	9,2	9	1	1	1	1	1	1	1	1	1	0	1	-10,993658	274,438695	310,642185	0
15.01.2021	17:09:06	0	0	2,824463	1,2045	299,4336	0,481	83,639	0	1016,24	7,1	9,1	9	1	1	1	1	1	1	1	1	1	0	1	-7,399577	274,425031	314,172215	0
15.01.2021	17:09:07	0	0	3,276377	1,20675	301,5972	0,483	83,622	0	1016,26	7,1	9,2	9	1	1	1	1	1	1	1	1	1	0	1	-11,768851	274,281386	309,130177	0
15.01.2021	17:09:08	0	0	2,711485	1,18425	314,5572	0,482	83,63	0	1016,12	7,1	9,2	9	1	1	1	1	1	1	1	1	1	0	1	-16,842847	274,390156	304,565508	0
15.01.2021	17:09:09	0	0	2,824463	1,18725	316,7064	0,482	83,631	0	1016	7,2	9,2	9	1	1	1	1	1	1	1	1	1	0	1	-8,527132	274,281386	312,371896	0
15.01.2021	17:09:10	0	0	4,745098	1,2225	297,234	0,477	83,628	0	1016,18	7,2	9,2	9	1	1	1	1	1	1	1	1	1	0	1	-5,708245	274,384097	315,671723	0
15.01.2021	17:09:11	0	0	3,728292	1,28625	305,4132	0,482	83,607	0	1016,18	7,1	9,1	9	1	1	1	1	1	1	1	1	1	0	1	-10,570825	274,46149	311,171892	0
15.01.2021	17:09:12	0	0	2,033614	1,368	305,442	0,482	83,643	0	1016,22	7,1	9,2	9	1	1	1	1	1	1	1	1	1	0	1	-11,346018	274,449329	310,33968	0
15.01.2021	17:09:13	0	0	3,84127	1,41825	301,644	0,48	83,617	0	1016,08	7,1	9,1	9	1	1	1	1	1	1	1	1	1	0	1	-10,007047	274,437176	311,621676	0
15.01.2021	17:09:14	0	0	2,824463	1,401	309,3192	0,479	83,632	0	1016,14	7,2	9,2	9	1	1	1	1	1	1	1	1	1	0	1	-8,738548	274,35988	312,527978	0
15.01.2021	17:09:15	0	0	3,615313	1,37175	319,6548	0,481	83,636	0	1016,1	7,1	9,2	9	1	1	1	1	1	1	1	1	1	0	1	-14,376321	274,44781	307,302253	0
15.01.2021	17:09:16	0	0	2,485528	1,38225	309,9924	0,486	83,626	0	1016,08	7,2	9,2	9	1	1	1	1	1	1	1	1	1	0	1	-9,090909	274,364419	312,196874	0
15.01.2021	17:09:17	0	0	4,406163	1,38075	311,814	0,481	83,627	0	1016,16	7,1	9,2	9	1	1	1	1	1	1	1	1	1	0	1	-11,486963	274,452369	310,212986	0
15.01.2021	17:09:18	0	0	4,293184	1,374	307,2996	0,48	83,634	0	1016,22	7,1	9,2	9	1	1	1	1	1	1	1	1	1	0	1	-8,033827	274,326632	313,076999	0
15.01.2021	17:09:19	0	0	4,067227	1,38075	298,2996	0,479	83,632	0	1016,18	7,2	9,2	9	1	1	1	1	1	1	1	1	1	0	1	-11,980268	274,302488	309,017524	0
15.01.2021	17:09:20	0	0	3,728292	1,428	309,5424	0,479	83,632	0	1016,08	7,1	9,2	9	1	1	1	1	1	1	1	1	1	0	1	-6,272023	274,319084	314,803461	0
15.01.2021	17:09:21	0	0	2,598506	1,45725	306,2484	0,482	83,638	0	1016,16	7,2	9,2	9	1	1	1	1	1	1	1	1	1	0	1	-12,544045	274,405311	308,935326	0
15.01.2021	17:09:22	0	0	4,971055	1,36575	304,7184	0,479	83,636	0	1016,18	7,3	9,2	9	1	1	1	1	1	1	1	1	1	0	1	-9,231853	274,28892	311,702432	0
15.01.2021	17:09:23	0	0	2,824463	1,25625	310,0176	0,482	83,63	0	1016,22	7,1	9,2	9	1	1	1	1	1	1	1	1	1	0	1	-8,033827	274,429584	313,559309	0
15.01.2021	17:09:24	0	0	2,598506	1,3095	317,8116	0,479	83,643	0	1016,16	7,1	9,2	9	1	1	1	1	1	1	1	1	1	0	1	-10,500352	274,278374	310,384577	0
15.01.2021	17:09:25	0	0	3,954249	1,29	311,8608	0,479	83,647	0	1016,22	7,1	9,2	9	1	1	1	1	1	1	1	1	1	0	1	-5,919662	274,326632	315,191163	0
15.01.2021	17:09:26	0	0	3,502334	1,29525	315,3816	0,473	83,632	0	1016,2	7,2	9,2	9	1	1	1	1	1	1	1	1	1	0	1	-11,909796	274,46149	309,832921	0
15.01.2021	17:09:27	0	0	2,824463	1,25475	308,1672	0,474	83,646	0	1016,18	7,1	9,2	9	1	1	1	1	1	1	1	1	1	0	1	-3,382664	274,356855	317,869694	0
15.01.2021	17:09:28	0	0	4,971055	1,2615	307,6632	0,477	83,648	0	1016,12	7,2	9,2	9	1	1	1	1	1	1	1	1	1	0	1	-13,742072	274,426549	307,836834	0
15.01.2021	17:09:29	0	0	3,84127	1,29375	309,2832	0,475	83,641	0	1016,28	7,2	9,2	9	1	1	1	1	1	1	1	1	1	0	1	-7,751938	274,346272	313,450853	0
15.01.2021	17:09:30	0	0	4,067227	1,2795	305,8056	0,481	83,648	0	1016,16	7,1	9,2	9	1	1	1	1	1	1	1	1	1	0	1	-9,654686	274,28892	311,279599	0
15.01.2021	17:09:31	0	0	2,711485	1,33125	308,4948	0,467	83,642	0	1016,18	7,2	9,2	9	1	1	1	1	1	1	1	1	1	0	1	-8,527132	274,326632	312,583693	0
15.01.2021	17:09:32	0	0	2,372549	1,41825	313,65	0,477	83,664	0	1016,18	7,1	9,2	9	1	1	1	1	1	1	1	1	1	0	1	-14,517266	274,303996	306,487586	0
15.01.2021	17:09:33	0	0	2,146592	1,43175	313,3512	0,476	83,655	0	1016,12	7,1	9,2	9	1	1	1	1	1	1	1	1	1	0	1	-8,174771	274,328142	312,943125	0
15.01.2021	17:09:34	0	0	5,084034	1,467	308,7972	0,475	83,64	0	1015,96	7,2	9,2	9	1	1	1	1	1	1	1	1	1	0	1	-9,44327	274,464531	312,313708	0
15.01.2021	17:09:35	0	0	4,406163	1,4655	310,7232	0,476	83,662	0	1016,22	7,1	9,2	9	1	1	1	1	1	1	1	1	1	0	1	-12,121212	274,432621	309,486157	0
15.01.2021	17:09:36	0	0	3,728292	1,41075	309,2904	0,479	83,659	0	1016,42	7,1	9,2	9	1	1	1	1	1	1	1	1	1	0	1	-10,007047	274,30098	310,983686	0
15.01.2021	17:09:37	0	0	3,728292	1,3785	312,228	0,477	83,655	0	1016,22	7,2	9,2	9	1	1	1	1	1	1	1	1	1	0	1	-13,601128	274,412893	307,913776	0
15.01.2021	17:09:38	0	0	4,63212	1,347	310,8456	0,472	83,663	0	1016,22	7,2	9,2	9	1	1	1	1	1	1	1	1	1	0	1	-11,839323	274,432621	309,768046	0
15.01.2021	17:09:39	0	0	3,389356	1,30575	309,2436	0,474	83,652	0	1016,12	7,2	9,2	9	1	1	1	1	1	1	1	1	1	0	1	-8,174771	274,450849	313,518052	0
15.01.2021	17:09:40	0	0	3,05042	1,30275	311,8176	0,472	83,66	0	1016,22	7,1	9,2	9	1	1	1	1	1	1	1	1	1	0	1	-8,315715	274,331163	312,816323	0
15.01.2021	17:09:41	0	0	3,502334	1,30725	305,0172	0,477	83,657	0	1016,26	7,2	9,2	9	1	1	1	1	1	1	1	1	1	0	1	-11,41649	274,27235	309,44025	0
15.01.2021	17:09:42	0	0	4,067227	1,30575	311,8716	0,475	83,645	0	1016,14	7,2	9,2	9	1	1	1	1	1	1	1	1	1	0	1	-12,403101	274,456929	309,318229	0
15.01.2021	17:09:43	0	0	4,971055	1,2975	313,7148	0,473	83,673	0	1016,26	7,1	9,2	9	1	1	1	1	1	1	1	1	1	0	1	-11,768851	274,350807	309,455179	0
15.01.2021	17:09:44	0	0	2,711485	1,23	306,1476	0,476	83,681	0	1016,24	7,1	9,2	9	1	1	1	1	1	1	1	1	1	0	1	-9,161381	274,44629	312,510069	0
15.01.2021	17:09:45	0	0	3,05042	1,2045	301,6872	0,47	83,672	0	1016,16	7,1	9,2	9	1	1	1	1	1	1	1	1	1	0	1	-9,936575	274,346272	311,266216	0
15.01.2021	17:09:46	0	0	4,293184	1,209	297,9972	0,469	83,682	0	1016	7,2	9,2	9	1	1	1	1	1	1	1	1	1	0	1	-10,077519	274,466052	311,68659	0
15.01.2021	17:09:47	0	0	3,163399	1,182	302,4504	0,474	83,673	0	1016,2	7,1	9,2	9	1	1	1	1	1	1	1	1	1	0	1	-13,953488	274,329652	307,171478	0
15.01.2021	17:09:48	0	0	2,824463	1,1595	308,538	0,468	83,679	0	1016,2	7,1	9,2	9	1	1	1	1	1	1	1	1	1	0	1	-10,993658	274,291934	309,954736	0
15.01.2021	17:09:49	0	0	2,824463	1,1175	307,2168	0,47	83,668	0	1016,12	7,1	9,2	9	1	1	1	1	1	1	1	1	1	0	1	-6,8358	274,331163	314,296238	0
15.01.2021	17:09:50	0	0	4,406163	1,11825	310,7664	0,472	83,664	0	1016,1	7,2	9,2	9	1	1	1	1	1	1	1	1	1	0	1	-8,879493	274,287413	312,04774	0
15.01.2021	17:09:51	0	0	2,485528	1,09725	305,82	0,476	83,677	0	1016,18	7,2	9,2	9	1	1	1	1	1	1	1	1	1	0	1	-5,990134	274,287413	314,937099	0
15.01.2021	17:09:52	0	0	3,502334	1,1265	302,4864	0,466	83,677	0	1016,14	7,2	9,2	9	1	1	1	1	1	1	1	1	1	0	1	-8,738548	274,432621	312,868821	0
15.01.2021	17:09:53	0	0	3,05042	1,1505	306,1152	0,465	83,678	0	1016,08	7,2	9,2	9	1	1	1	1	1	1	1	1	1	0	1	-4,721635	274,290427	316,219704	0
15.01.2021	17:09:54	0	0	4,293184	1,1475	305,8092	0,468	83,669	0	1016,18	7,2	9,2	9	1	1	1	1	1	1	1	1	1	0	1	-11,768851	274,415927	309,76027	0
15.01.2021	17:09:55	0	0	2,824463	1,146	303,1668	0,47	83,666	0	1016,24	7,1	9,2	9	1	1	1	1	1	1	1	1	1	0	1	-10,288936	274,464531	311,468042	0
15.01.2021	17:09:56	0	0	3,276377	1,17525	297,5796	0,471	83,686	0	1016,24	7,2	9,2	9	1	1	1	1	1	1	1	1	1	0	1	-14,446794	274,394701	306,982859	0
15.01.2021	17:09:57	0	0	2,937442	1,1715	297,2592	0,47	83,673	0	1016,22	7,1	9,2	9	1	1	1	1	1	1	1	1	1	0	1	-5,21494	274,299472	315,768735	0
15.01.2021	17:09:58	0	0	4,293184	1,14675	302,8896	0,474	83,686	0	1016,24	7,2	9,2	9	1	1	1	1	1	1	1	1	1	0	1	-15,503876	274,349295	305,713074	0
15.01.2021	17:09:59	0	0	3,276377	1,1295	305,0676	0,47	83,695	0	1016,1	7,2	9,2	9	1	1	1	1	1	1	1	1	1	0	1	-12,614517	274,453888	309,092558	0
15.01.2021	17:10:00	0	0	4,180206	1,13625	299,8404	0,473	83,683	0	1016,26	7,3	9,2	9	1	1	1	1	1	1	1	1	1	0	1	-8,949965	274,337205	312,210366	0
15.01.2021	17:10:01	0	0	4,180206	1,13625	299,8404	0,473	83,683	0	1016,26	7,3	9,2	9	1	1	1	1	1	1	1	1	1	0	1	-12,614517	274,426549	308,964389	0
15.01.2021	17:10:02	0	0	4,067227	1,1805	300,906	0,472	83,693	0	1016,06	7,2	9,2	9	1	1	1	1	1	1	1	1	1	0	1	-10,42988	274,296456	310,53968	0
15.01.2021	17:10:03	0	0	4,519141	1,14	302,2452	0,473	83,695	0	1016,26	7,1	9,2	9	1	1	1	1	1	1	1	1	1	0	1	-6,765328	274,456929	314,956002	0
15.01.2021	17:10:04	0	0	3,954249	1,1145	303,3036	0,471	83,685	0	1016,26	7,2	9,2	9	1	1	1	1	1	1	1	1	1	0	1	-8,949965	274,334184	312,196219	0
15.01.2021	17:10:05	0	0	4,858077	1,09125	301,6152	0,47	83,697	0	1016,22	7,2	9,2	9	1	1	1	1	1	1	1	1	1	0	1	-13,6716	274,282893	307,234478	0
15.01.2021	17:10:06	0	0	4,067227	1,0665	303,5556	0,474	83,709	0	1016,28	7,2	9,2	9	1	1	1	1	1	1	1	1	1	0	1	-14,235377	274,402279	307,229785	0
15.01.2021	17:10:07	0	0	3,615313	1,032	304,2864	0,474	83,704	0	1016,24	7,2	9,2	9	1	1	1	1	1	1	1	1	1	0	1	-12,403101	274,456929	309,318229	0
15.01.2021	17:10:08	0	0	2,824463	1,029	306,81	0,464	83,684	0	1016,1	7,2	9,2	9	1	1	1	1	1	1	1	1	1	0	1	-13,248767	274,349295	307,968183	0
15.01.2021	17:10:09	0	0	3,728292	1,01775	304,992	0,47	83,759	0	1016,2	7,1	9,2	9	1	1	1	1	1	1	1	1	1	0	1	-11,980268	274,270844	308,869427	0
15.01.2021	17:10:10	0	0	3,276377	1,032	306,4716	0,469	83,702	0	1016,22	7,2	9,2	9	1	1	1	1	1	1	1	1	1	0	1	-12,896406	274,331163	308,235632	0
15.01.2021	17:10:11	0	0	4,180206	1,0305	308,1024	0,469	83,698	0	1016,2	7,2	9,2	9	1	1	1	1	1	1	1	1	1	0	1	-9,513742	274,423513	312,050936	0
15.01.2021	17:10:12	0	0	2,937442	1,0365	311,4036	0,462	83,708	0	1016,08	7,2	9,2	9	1	1	1	1	1	1	1	1	1	0	1	-9,090909	274,456929	312,630421	0
15.01.2021	17:10:13	0	0	3,276377	1,0035	306,4068	0,47	83,702	0	1016,26	7,2	9,2	9	1	1	1	1	1	1	1	1	1	0	1	-9,161381	274,322103	311,928237	0
15.01.2021	17:10:14	0	0	3,05042	0,95775	304,6464	0,465	83,696	0	1016,16	7,2	9,2	9	1	1	1	1	1	1	1	1	1	0	1	-12,755462	274,467573	309,015781	0
15.01.2021	17:10:15	0	0	4,63212	1,026	320,7348	0,47	83,701	0	1016,24	7,2	9,2	9	1	1	1	1	1	1	1	1	1	0	1	-11,627907	274,284399	309,285222	0
15.01.2021	17:10:16	0	0	2,711485	1,14975	313,2612	0,471	83,705	0	1016,24	7,2	9,2	9	1	1	1	1	1	1	1	1	1	0	1	-9,584214	274,313047	311,463009	0
15.01.2021	17:10:17	0	0	4,519141	1,26675	329,6952	0,471	83,718	0	1016,28	7,2	9,2	9	1	1	1	1	1	1	1	1	1	0	1	-12,05074	274,338716	309,116666	0
15.01.2021	17:10:18	0	0	4,067227	1,33275	332,496	0,466	83,702	0	1016,04	7,2	9,2	9	1	1	1	1	1	1	1	1	1	0	1	-8,738548	274,440214	312,904415	0
15.01.2021	17:10:19	0	0	2,824463	1,31925	323,01	0,47	83,714	0	1016,18	7,1	9,2	9	1	1	1	1	1	1	1	1	1	0	1	-8,174771	274,30098	312,815962	0
15.01.2021	17:10:20	0	0	4,293184	1,31625	319,1832	0,468	83,704	0	1016,18	7,2	9,2	9	1	1	1	1	1	1	1	1	1	0	1	-15,503876	274,46149	306,238841	0
15.01.2021	17:10:21	0	0	4,519141	1,28175	317,8332	0,471	83,725	0	1016,2	7,2	9,2	9	1	1	1	1	1	1	1	1	1	0	1	-12,684989	274,44629	308,986461	0
15.01.2021	17:10:22	0	0	4,519141	1,27875	295,1748	0,465	83,701	0	1016,12	7,2	9,2	9	1	1	1	1	1	1	1	1	1	0	1	-11,768851	274,352319	309,46226	0
15.01.2021	17:10:23	0	0	2,598506	1,2435	303,9156	0,477	83,72	0	1016,22	7,2	9,2	9	1	1	1	1	1	1	1	1	1	0	1	-10,147992	274,313047	310,899231	0
15.01.2021	17:10:24	0	0	2,033614	1,2105	316,6848	0,47	83,713	0	1016,2	7,2	9,2	9	1	1	1	1	1	1	1	1	1	0	1	-9,161381	274,415927	312,36774	0
15.01.2021	17:10:25	0	0	4,519141	1,24425	299,4228	0,471	83,719	0	1016,2	7,2	9,2	9	1	1	1	1	1	1	1	1	1	0	1	-5,567301	274,470615	316,218208	0
15.01.2021	17:10:26	0	0	3,615313	1,1985	302,5944	0,469	83,712	0	1016,2	7,2	9,2	9	1	1	1	1	1	1	1	1	1	0	1	-8,597604	274,421996	312,959962	0
15.01.2021	17:10:27	0	0	5,084034	1,119	298,2708	0,47	83,721	0	1016,14	7,2	9,2	9	1	1	1	1	1	1	1	1	1	0	1	-9,866103	274,282893	311,039975	0
15.01.2021	17:10:28	0	0	3,954249	1,107	279,5472	0,468	83,715	0	1016,18	7,1	9,2	9	1	1	1	1	1	1	1	1	1	0	1	-11,768851	274,405311	309,710519	0
15.01.2021	17:10:29	0	0	2,937442	1,0965	290,4048	0,472	83,724	0	1016,28	7,2	9,2	9	1	1	1	1	1	1	1	1	1	0	1	-10,359408	274,458449	311,36905	0
15.01.2021	17:10:30	0	0	4,406163	1,101	304,65	0,471	83,727	0	1016,14	7,2	9,2	9	1	1	1	1	1	1	1	1	1	0	1	-15,292459	274,415927	306,236662	0
15.01.2021	17:10:31	0	0	3,615313	1,16925	295,6392	0,465	83,736	0	1016,06	7,2	9,2	9	1	1	1	1	1	1	1	1	1	0	1	-15,010571	274,423513	306,554108	0
15.01.2021	17:10:32	0	0	3,389356	1,221	295,2	0,467	83,731	0	1016,24	7,2	9,2	9	1	1	1	1	1	1	1	1	1	0	1	-7,82241	274,34476	313,373303	0
15.01.2021	17:10:33	0	0	3,728292	1,28175	297,8928	0,472	83,739	0	1016,2	7,2	9,2	9	1	1	1	1	1	1	1	1	1	0	1	-12,473573	274,455409	309,240629	0
15.01.2021	17:10:34	0	0	3,954249	1,27125	298,7244	0,474	83,73	0	1016,14	7,2	9,2	9	1	1	1	1	1	1	1	1	1	0	1	-11,134602	274,426549	310,444304	0
15.01.2021	17:10:35	0	0	2,711485	1,32	311,0112	0,473	83,729	0	1016,26	7,2	9,2	9	1	1	1	1	1	1	1	1	1	0	1	-10,641297	274,450849	311,051526	0
15.01.2021	17:10:36	0	0	4,406163	1,3365	305,028	0,47	83,747	0	1016,22	7,2	9,2	9	1	1	1	1	1	1	1	1	1	0	1	-8,245243	274,332673	312,893867	0
15.01.2021	17:10:37	0	0	3,84127	1,3695	305,0136	0,468	83,722	0	1016,18	7,2	9,2	9	1	1	1	1	1	1	1	1	1	0	1	-9,020437	274,459969	312,71515	0
15.01.2021	17:10:38	0	0	3,389356	1,36725	305,406	0,468	83,734	0	1016,14	7,2	9,2	9	1	1	1	1	1	1	1	1	1	0	1	-10,359408	274,332673	310,779702	0
15.01.2021	17:10:39	0	0	3,163399	1,37475	299,7864	0,47	83,736	0	1016,2	7,2	9,2	9	1	1	1	1	1	1	1	1	1	0	1	-10,007047	274,400763	311,451012	0
15.01.2021	17:10:40	0	0	4,745098	1,37325	299,016	0,467	83,725	0	1016,18	7,2	9,2	9	1	1	1	1	1	1	1	1	1	0	1	-9,725159	274,444771	311,939169	0
15.01.2021	17:10:41	0	0	4,745098	1,3905	303,9192	0,465	83,718	0	1016,14	7,2	9,2	9	1	1	1	1	1	1	1	1	1	0	1	-12,544045	274,429584	309,049091	0
15.01.2021	17:10:42	0	0	3,276377	1,31475	306,1332	0,466	83,746	0	1016,2	7,2	9,2	9	1	1	1	1	1	1	1	1	1	0	1	-11,346018	274,323613	309,750668	0
15.01.2021	17:10:43	0	0	3,954249	1,25175	294,138	0,463	83,731	0	1016,18	7,2	9,2	9	1	1	1	1	1	1	1	1	1	0	1	-12,473573	274,44629	309,197878	0
15.01.2021	17:10:44	0	0	3,84127	1,19325	304,2576	0,463	83,74	0	1016,1	7,2	9,2	9	1	1	1	1	1	1	1	1	1	0	1	-9,584214	274,391671	311,831239	0
15.01.2021	17:10:45	0	0	2,937442	1,1925	293,3424	0,463	83,729	0	1016,2	7,2	9,2	9	1	1	1	1	1	1	1	1	1	0	1	-9,020437	274,27235	311,836304	0
15.01.2021	17:10:46	0	0	3,05042	1,2285	291,2184	0,462	83,74	0	1016,08	7,2	9,2	9	1	1	1	1	1	1	1	1	1	0	1	-6,906272	274,382582	314,466601	0
15.01.2021	17:10:47	0	0	4,293184	1,32225	300,3156	0,47	83,745	0	1016,06	7,2	9,2	9	1	1	1	1	1	1	1	1	1	0	1	-10,500352	274,444771	311,163975	0
15.01.2021	17:10:48	0	0	2,937442	1,386	300,4956	0,462	83,751	0	1016,2	7,1	9,2	9	1	1	1	1	1	1	1	1	1	0	1	-7,540521	274,34476	313,655191	0
15.01.2021	17:10:49	0	0	3,163399	1,55475	299,4408	0,459	83,744	0	1016,1	7,2	9,2	9	1	1	1	1	1	1	1	1	1	0	1	-13,883016	274,275361	306,987817	0
15.01.2021	17:10:50	0	0	2,937442	1,75575	308,9484	0,466	83,737	0	1016,1	7,2	9,2	9	1	1	1	1	1	1	1	1	1	0	1	-12,684989	274,417444	308,851242	0
15.01.2021	17:10:51	0	0	4,180206	1,81425	310,3524	0,469	83,742	0	1016,22	7,2	9,2	9	1	1	1	1	1	1	1	1	1	0	1	-9,725159	274,27235	311,131582	0
15.01.2021	17:10:52	0	0	3,163399	1,896	312,5952	0,466	83,749	0	1016,06	7,2	9,2	9	1	1	1	1	1	1	1	1	1	0	1	-11,346018	274,41441	310,175994	0
15.01.2021	17:10:53	0	0	3,954249	2,03625	319,6116	0,47	83,758	0	1016,2	7,2	9,2	9	1	1	1	1	1	1	1	1	1	0	1	-7,329105	274,437176	314,299618	0
15.01.2021	17:10:54	0	0	4,406163	2,0835	319,158	0,469	83,758	0	1016,2	7,2	9,2	9	1	1	1	1	1	1	1	1	1	0	1	-10,500352	274,278374	310,384577	0
15.01.2021	17:10:55	0	0	3,389356	2,055	317,7828	0,467	83,752	0	1016,18	7,2	9,2	9	1	1	1	1	1	1	1	1	1	0	1	-11,486963	274,443252	310,170243	0
15.01.2021	17:10:56	0	0	4,293184	2,04975	314,5392	0,469	83,739	0	1016,14	7,2	9,2	9	1	1	1	1	1	1	1	1	1	0	1	-8,879493	274,466052	312,884617	0
15.01.2021	17:10:57	0	0	2,146592	2,04825	311,832	0,468	83,755	0	1016,28	7,2	9,2	9	1	1	1	1	1	1	1	1	1	0	1	-7,117689	274,316065	313,943663	0
15.01.2021	17:10:58	0	0	4,519141	1,9575	313,614	0,475	83,761	0	1016,12	7,2	9,2	9	1	1	1	1	1	1	1	1	1	0	1	-13,6716	274,46149	308,071117	0
15.01.2021	17:10:59	0	0	2,711485	1,929	319,5792	0,462	83,754	0	1016,06	7,2	9,2	9	1	1	1	1	1	1	1	1	1	0	1	-7,540521	274,334184	313,605662	0
15.01.2021	17:11:00	0	0	3,389356	1,73025	323,7732	0,468	83,762	0	1016,28	7,2	9,2	9	1	1	1	1	1	1	1	1	1	0	1	-9,090909	274,284399	311,82222	0
15.01.2021	17:11:01	0	0	3,389356	1,73025	323,7732	0,468	83,762	0	1016,28	7,2	9,2	9	1	1	1	1	1	1	1	1	1	0	1	-9,090909	274,284399	311,82222	0
15.01.2021	17:11:02	0	0	3,84127	1,65525	322,2576	0,467	83,765	0	1016,2	7,2	9,2	9	1	1	1	1	1	1	1	1	1	0	1	-15,856237	274,303996	305,148615	0
15.01.2021	17:11:03	0	0	3,05042	1,72875	328,518	0,465	83,746	0	1016,1	7,2	9,2	9	1	1	1	1	1	1	1	1	1	0	1	-5,073996	274,441733	316,576088	0
15.01.2021	17:11:04	0	0	2,937442	1,896	322,8912	0,467	83,756	0	1016,18	7,2	9,2	9	1	1	1	1	1	1	1	1	1	0	1	-9,584214	274,27988	311,307764	0
15.01.2021	17:11:05	0	0	3,502334	2,04	330,0012	0,467	83,774	0	1016,22	7,2	9,2	9	1	1	1	1	1	1	1	1	1	0	1	-8,879493	274,282893	312,026585	0
15.01.2021	17:11:06	0	0	3,163399	2,16225	325,4724	0,468	83,763	0	1016,02	7,2	9,2	9	1	1	1	1	1	1	1	1	1	0	1	-11,134602	274,434139	310,479885	0
15.01.2021	17:11:07	0	0	2,598506	2,1405	327,4236	0,468	83,761	0	1016,26	7,2	9,2	9	1	1	1	1	1	1	1	1	1	0	1	-8,033827	274,435658	313,587778	0
15.01.2021	17:11:08	0	0	2,824463	2,0925	318,4164	0,466	83,765	0	1016,24	7,2	9,2	9	1	1	1	1	1	1	1	1	1	0	1	-8,104299	274,44781	313,574275	0
15.01.2021	17:11:09	0	0	4,745098	2,046	315,2556	0,463	83,773	0	1016,12	7,2	9,2	9	1	1	1	1	1	1	1	1	1	0	1	-10,147992	274,341738	311,033567	0
15.01.2021	17:11:10	0	0	3,954249	1,9725	311,7744	0,461	83,768	0	1016,08	7,2	9,2	9	1	1	1	1	1	1	1	1	1	0	1	-10,570825	274,276867	310,307057	0
15.01.2021	17:11:11	0	0	3,05042	1,8315	310,356	0,46	83,761	0	1016,02	7,2	9,2	9	1	1	1	1	1	1	1	1	1	0	1	-11,486963	274,384097	309,893005	0
15.01.2021	17:11:12	0	0	2,937442	1,731	316,962	0,468	83,778	0	1016,2	7,2	9,2	9	1	1	1	1	1	1	1	1	1	0	1	-12,684989	274,437176	308,943734	0
15.01.2021	17:11:13	0	0	2,824463	1,68825	310,0068	0,462	83,772	0	1016,3	7,2	9,2	9	1	1	1	1	1	1	1	1	1	0	1	-10,570825	274,314556	310,483463	0
15.01.2021	17:11:14	0	0	3,05042	1,82475	297,9288	0,461	83,774	0	1016,28	7,2	9,2	9	1	1	1	1	1	1	1	1	1	0	1	-6,8358	274,313047	314,211423	0
15.01.2021	17:11:15	0	0	4,519141	1,97025	306,7848	0,467	83,777	0	1016,1	7,2	9,2	9	1	1	1	1	1	1	1	1	1	0	1	-13,742072	274,437176	307,886651	0
15.01.2021	17:11:16	0	0	2,824463	1,91775	324,0612	0,461	83,77	0	1016,24	7,2	9,2	9	1	1	1	1	1	1	1	1	1	0	1	-10,500352	274,385611	310,886711	0
15.01.2021	17:11:17	0	0	2,598506	1,671	271,0116	0,467	83,779	0	1016,26	7,2	9,2	9	1	1	1	1	1	1	1	1	1	0	1	-9,231853	274,443252	312,425352	0
15.01.2021	17:11:18	0	0	3,502334	1,44225	293,5044	0,461	83,752	0	1016,06	7,2	9,2	9	1	1	1	1	1	1	1	1	1	0	1	-14,517266	274,334184	306,628918	0
15.01.2021	17:11:19	0	0	3,954249	1,30875	288,8172	0,468	83,786	0	1016,2	7,2	9,2	9	1	1	1	1	1	1	1	1	1	0	1	-9,936575	274,282893	310,969503	0
15.01.2021	17:11:20	0	0	3,163399	1,2465	271,0656	0,466	83,783	0	1016,32	7,2	9,2	9	1	1	1	1	1	1	1	1	1	0	1	-7,82241	274,435658	313,799194	0
15.01.2021	17:11:21	0	0	4,745098	1,2165	278,0892	0,462	83,775	0	1016,22	7,2	9,2	9	1	1	1	1	1	1	1	1	1	0	1	-9,44327	274,347783	311,7666	0
15.01.2021	17:11:22	0	0	2,824463	1,20525	283,626	0,465	83,789	0	1016,24	7,2	9,2	9	1	1	1	1	1	1	1	1	1	0	1	-8,104299	274,287413	312,822934	0
15.01.2021	17:11:23	0	0	4,180206	1,22475	282,4236	0,464	83,788	0	1016,26	7,2	9,2	9	1	1	1	1	1	1	1	1	1	0	1	-13,178295	274,402279	308,286868	0
15.01.2021	17:11:24	0	0	4,63212	1,1805	279,918	0,459	83,797	0	1016,34	7,2	9,2	9	1	1	1	1	1	1	1	1	1	0	1	-15,362932	274,449329	306,322767	0
15.01.2021	17:11:25	0	0	3,615313	1,08675	268,8732	0,465	83,79	0	1016,26	7,2	9,2	9	1	1	1	1	1	1	1	1	1	0	1	-13,601128	274,428066	307,984893	0
15.01.2021	17:11:26	0	0	4,519141	1,0515	262,836	0,467	83,784	0	1016,16	7,2	9,2	9	1	1	1	1	1	1	1	1	1	0	1	-12,05074	274,362906	309,229957	0
15.01.2021	17:11:27	0	0	2,711485	0,9795	282,4812	0,469	83,809	0	1016,26	7,2	9,2	9	1	1	1	1	1	1	1	1	1	0	1	-9,44327	274,441733	312,206814	0
15.01.2021	17:11:28	0	0	3,84127	0,97725	289,2348	0,465	83,8	0	1016,24	7,2	9,2	9	1	1	1	1	1	1	1	1	1	0	1	-10,077519	274,40986	311,423169	0
15.01.2021	17:11:29	0	0	4,519141	1,0275	305,7264	0,471	83,803	0	1016,18	7,2	9,2	9	1	1	1	1	1	1	1	1	1	0	1	-10,077519	274,375012	311,259888	0
15.01.2021	17:11:30	0	0	4,971055	1,0395	300,8376	0,467	83,802	0	1016,32	7,2	9,2	9	1	1	1	1	1	1	1	1	1	0	1	-7,188161	274,443252	314,469045	0
15.01.2021	17:11:31	0	0	4,745098	1,06575	312,1776	0,468	83,802	0	1016,2	7,2	9,2	9	1	1	1	1	1	1	1	1	1	0	1	-9,231853	274,34476	311,963859	0
15.01.2021	17:11:32	0	0	4,293184	1,05075	309,5532	0,463	83,808	0	1016,22	7,2	9,2	9	1	1	1	1	1	1	1	1	1	0	1	-11,557435	274,27988	309,334543	0
15.01.2021	17:11:33	0	0	3,615313	1,01325	297,9216	0,462	83,804	0	1016,16	7,2	9,2	9	1	1	1	1	1	1	1	1	1	0	1	-9,231853	274,44629	312,439597	0
15.01.2021	17:11:34	0	0	4,858077	0,97275	307,1592	0,47	83,811	0	1016,24	7,2	9,2	9	1	1	1	1	1	1	1	1	1	0	1	-9,725159	274,347783	311,484712	0
15.01.2021	17:11:35	0	0	3,954249	0,9255	302,8788	0,46	83,804	0	1016,2	7,2	9,2	9	1	1	1	1	1	1	1	1	1	0	1	-10,42988	274,453888	311,277195	0
15.01.2021	17:11:36	0	0	4,745098	0,89475	282,1824	0,462	83,803	0	1016,34	7,2	9,2	9	1	1	1	1	1	1	1	1	1	0	1	-8,668076	274,400763	312,789983	0
15.01.2021	17:11:37	0	0	3,615313	0,882	279,5544	0,464	83,812	0	1016,2	7,2	9,2	9	1	1	1	1	1	1	1	1	1	0	1	-12,262156	274,328142	308,855739	0
15.01.2021	17:11:38	0	0	4,745098	0,9195	300,1752	0,47	83,82	0	1016,44	7,2	9,2	9	1	1	1	1	1	1	1	1	1	0	1	-11,980268	274,438695	309,655575	0
15.01.2021	17:11:39	0	0	2,598506	0,95925	306,5616	0,467	83,814	0	1016,1	7,2	9,2	9	1	1	1	1	1	1	1	1	1	0	1	-8,033827	274,325122	313,069929	0
15.01.2021	17:11:40	0	0	2,711485	1,0245	309,276	0,466	83,813	0	1016,12	7,2	9,2	9	1	1	1	1	1	1	1	1	1	0	1	-13,6716	274,437176	307,957124	0
15.01.2021	17:11:41	0	0	4,180206	1,1415	308,8368	0,461	83,814	0	1016,24	7,2	9,2	9	1	1	1	1	1	1	1	1	1	0	1	-11,980268	274,30098	309,010465	0
15.01.2021	17:11:42	0	0	2,485528	1,13475	315,5472	0,461	83,822	0	1016,22	7,2	9,2	9	1	1	1	1	1	1	1	1	1	0	1	-11,768851	274,435658	309,852753	0
15.01.2021	17:11:43	0	0	4,067227	1,14075	324,1296	0,464	83,817	0	1016,06	7,2	9,2	9	1	1	1	1	1	1	1	1	1	0	1	-11,768851	274,397732	309,675003	0
15.01.2021	17:11:44	0	0	2,598506	1,07775	316,3176	0,464	83,827	0	1016,24	7,2	9,2	9	1	1	1	1	1	1	1	1	1	0	1	-15,503876	274,322103	305,585742	0
15.01.2021	17:11:45	0	0	2,937442	1,07175	308,9016	0,468	83,829	0	1016,3	7,2	9,2	9	1	1	1	1	1	1	1	1	1	0	1	-17,26568	274,441733	304,384404	0
15.01.2021	17:11:46	0	0	2,824463	1,13175	313,1568	0,463	83,815	0	1016,24	7,2	9,2	9	1	1	1	1	1	1	1	1	1	0	1	-6,131078	274,322103	314,95854	0
15.01.2021	17:11:47	0	0	3,163399	1,20675	314,0892	0,469	83,815	0	1016,32	7,2	9,2	9	1	1	1	1	1	1	1	1	1	0	1	-13,319239	274,44629	308,352212	0
15.01.2021	17:11:48	0	0	2,598506	1,30275	320,3964	0,459	83,813	0	1016,16	7,2	9,2	9	1	1	1	1	1	1	1	1	1	0	1	-10,077519	274,338716	311,089887	0
15.01.2021	17:11:49	0	0	2,598506	1,42425	310,2768	0,466	83,829	0	1016,26	7,2	9,1	9	1	1	1	1	1	1	1	1	1	0	1	-11,134602	274,267833	309,701004	0
15.01.2021	17:11:50	0	0	4,180206	1,413	314,3952	0,464	83,818	0	1016,28	7,2	9,1	9	1	1	1	1	1	1	1	1	1	0	1	-13,107822	274,388641	308,293435	0
15.01.2021	17:11:51	0	0	2,937442	1,37775	316,26	0,46	83,812	0	1016,28	7,2	9,2	9	1	1	1	1	1	1	1	1	1	0	1	-14,65821	274,273855	306,205577	0
15.01.2021	17:11:52	0	0	3,05042	1,344	316,6668	0,465	83,833	0	1016,14	7,2	9,2	9	1	1	1	1	1	1	1	1	1	0	1	-13,107822	274,346272	308,094969	0
15.01.2021	17:11:53	0	0	2,937442	1,3065	312,876	0,469	83,831	0	1016,32	7,2	9,2	9	1	1	1	1	1	1	1	1	1	0	1	-12,121212	274,444771	309,543115	0
15.01.2021	17:11:54	0	0	4,63212	1,31025	315,9432	0,458	83,826	0	1016,12	7,2	9,2	9	1	1	1	1	1	1	1	1	1	0	1	-10,852713	274,261812	309,954722	0
15.01.2021	17:11:55	0	0	3,84127	1,29675	319,5972	0,467	83,842	0	1016,06	7,2	9,2	9	1	1	1	1	1	1	1	1	1	0	1	-11,134602	274,303996	309,87025	0
15.01.2021	17:11:56	0	0	2,711485	1,32975	316,9548	0,468	83,825	0	1016,22	7,2	9,2	9	1	1	1	1	1	1	1	1	1	0	1	-5,144468	274,34476	316,051245	0
15.01.2021	17:11:57	0	0	3,05042	1,34925	315,9936	0,466	83,842	0	1016,36	7,2	9,2	9	1	1	1	1	1	1	1	1	1	0	1	-9,725159	274,44629	311,946292	0
15.01.2021	17:11:58	0	0	3,954249	1,386	314,4816	0,463	83,837	0	1016,16	7,2	9,2	9	1	1	1	1	1	1	1	1	1	0	1	-12,684989	274,323613	308,411697	0
15.01.2021	17:11:59	0	0	3,728292	1,338	316,6956	0,467	83,838	0	1016,2	7,2	9,2	9	1	1	1	1	1	1	1	1	1	0	1	-13,03735	274,44781	308,641224	0
15.01.2021	17:12:00	0	0	2,711485	1,227	296,0964	0,47	83,836	0	1016,22	7,2	9,2	9	1	1	1	1	1	1	1	1	1	0	1	-10,359408	274,425031	311,212384	0
15.01.2021	17:12:01	0	0	2,711485	1,227	296,0964	0,47	83,836	0	1016,22	7,2	9,2	9	1	1	1	1	1	1	1	1	1	0	1	-13,107822	274,314556	307,946465	0
15.01.2021	17:12:02	0	0	4,519141	1,16025	307,5228	0,465	83,836	0	1016,32	7,2	9,2	9	1	1	1	1	1	1	1	1	1	0	1	-12,403101	274,444771	309,261227	0
15.01.2021	17:12:03	0	0	4,180206	1,083	308,5416	0,464	83,842	0	1016,2	7,2	9,2	9	1	1	1	1	1	1	1	1	1	0	1	-12,262156	274,426549	309,31675	0
15.01.2021	17:12:04	0	0	4,745098	0,99525	291,492	0,463	83,836	0	1016,18	7,2	9,2	9	1	1	1	1	1	1	1	1	1	0	1	-8,45666	274,319084	312,618824	0
15.01.2021	17:12:05	0	0	4,406163	0,9675	287,3916	0,467	83,843	0	1016,24	7,2	9,2	9	1	1	1	1	1	1	1	1	1	0	1	-16,490486	274,291934	304,457907	0
15.01.2021	17:12:06	0	0	3,84127	0,95475	296,9136	0,46	83,847	0	1016,26	7,2	9,2	9	1	1	1	1	1	1	1	1	1	0	1	-9,231853	274,355343	312,013422	0
15.01.2021	17:12:07	0	0	3,615313	0,972	294,4044	0,469	83,844	0	1016,3	7,2	9,2	9	1	1	1	1	1	1	1	1	1	0	1	-10,077519	274,441733	311,572564	0
15.01.2021	17:12:08	0	0	2,711485	1,0035	288,8424	0,461	83,83	0	1016,12	7,2	9,1	9	1	1	1	1	1	1	1	1	1	0	1	-10,711769	274,358368	310,547673	0
15.01.2021	17:12:09	0	0	4,406163	0,94425	283,2228	0,468	83,845	0	1016,32	7,2	9,2	9	1	1	1	1	1	1	1	1	1	0	1	-11,134602	274,440214	310,508361	0
15.01.2021	17:12:10	0	0	2,259571	0,8925	285,246	0,467	83,838	0	1016,28	7,2	9,2	9	1	1	1	1	1	1	1	1	1	0	1	-9,44327	274,297964	311,533347	0
15.01.2021	17:12:11	0	0	3,84127	0,87975	279,1728	0,467	83,842	0	1016,18	7,2	9,1	9	1	1	1	1	1	1	1	1	1	0	1	-13,601128	274,319084	307,474356	0
15.01.2021	17:12:12	0	0	3,05042	0,873	284,0724	0,464	83,846	0	1016,3	7,2	9,2	9	1	1	1	1	1	1	1	1	1	0	1	-7,681466	274,417444	313,854766	0
15.01.2021	17:12:13	0	0	5,309991	0,84675	299,358	0,465	83,838	0	1016,12	7,2	9,1	9	1	1	1	1	1	1	1	1	1	0	1	-12,614517	274,432621	308,992852	0
15.01.2021	17:12:14	0	0	3,954249	0,876	291,2256	0,463	83,834	0	1016,12	7,2	9,2	9	1	1	1	1	1	1	1	1	1	0	1	-6,694856	274,379554	314,663829	0
15.01.2021	17:12:15	0	0	4,293184	0,87	287,8308	0,464	83,841	0	1016,18	7,2	9,2	9	1	1	1	1	1	1	1	1	1	0	1	-11,346018	274,31003	309,687078	0
15.01.2021	17:12:16	0	0	3,615313	0,8805	297,252	0,459	83,815	0	1016,24	7,2	9,2	9	1	1	1	1	1	1	1	1	1	0	1	-14,446794	274,285906	306,473387	0
15.01.2021	17:12:17	0	0	4,406163	0,86175	303,8832	0,466	83,85	0	1016,2	7,2	9,2	9	1	1	1	1	1	1	1	1	1	0	1	-8,315715	274,452369	313,384233	0
15.01.2021	17:12:18	0	0	4,858077	0,83475	303,1848	0,455	83,84	0	1016,06	7,2	9,2	9	1	1	1	1	1	1	1	1	1	0	1	-10,147992	274,375012	311,189415	0
15.01.2021	17:12:19	0	0	4,067227	0,9015	306,9108	0,458	83,841	0	1016,18	7,2	9,2	9	1	1	1	1	1	1	1	1	1	0	1	-15,433404	274,291934	305,51499	0
15.01.2021	17:12:20	0	0	2,711485	0,93525	317,6604	0,456	83,841	0	1016,22	7,2	9,2	9	1	1	1	1	1	1	1	1	1	0	1	-12,121212	274,275361	308,749622	0
15.01.2021	17:12:21	0	0	4,63212	0,98625	316,6776	0,465	83,852	0	1016,14	7,2	9,2	9	1	1	1	1	1	1	1	1	1	0	1	-10,570825	274,438695	311,065018	0
15.01.2021	17:12:22	0	0	4,180206	1,02975	319,2084	0,465	83,837	0	1016,24	7,2	9,2	9	1	1	1	1	1	1	1	1	1	0	1	-12,544045	274,313047	308,503178	0
15.01.2021	17:12:23	0	0	3,276377	1,0275	319,1652	0,467	83,834	0	1016,32	7,2	9,2	9	1	1	1	1	1	1	1	1	1	0	1	-10,077519	274,305504	310,934392	0
15.01.2021	17:12:24	0	0	2,824463	1,029	309,8916	0,456	83,836	0	1016,16	7,1	9,2	9	1	1	1	1	1	1	1	1	1	0	1	-10,641297	274,263317	310,17318	0
15.01.2021	17:12:25	0	0	3,728292	0,96825	309,9312	0,462	83,818	0	1016,5	7,2	9,2	9	1	1	1	1	1	1	1	1	1	0	1	-11,205074	274,382582	310,167799	0
15.01.2021	17:12:26	0	0	3,84127	0,95175	302,5296	0,466	83,841	0	1016,18	7,2	9,2	9	1	1	1	1	1	1	1	1	1	0	1	-10,007047	274,258803	310,786307	0
15.01.2021	17:12:27	0	0	4,63212	0,97875	307,0188	0,461	83,841	0	1016,22	7,2	9,2	9	1	1	1	1	1	1	1	1	1	0	1	-11,698379	274,311538	309,34178	0
15.01.2021	17:12:28	0	0	4,067227	0,99825	312,8796	0,466	83,848	0	1016,22	7,2	9,1	9	1	1	1	1	1	1	1	1	1	0	1	-14,728682	274,434139	306,885804	0
15.01.2021	17:12:29	0	0	4,180206	1,02375	300,8196	0,467	83,849	0	1016,22	7,2	9,2	9	1	1	1	1	1	1	1	1	1	0	1	-14,940099	274,382582	306,432774	0
15.01.2021	17:12:30	0	0	4,519141	1,00725	299,7828	0,464	83,829	0	1016,16	7,2	9,2	9	1	1	1	1	1	1	1	1	1	0	1	-13,319239	274,278374	307,565691	0
15.01.2021	17:12:31	0	0	4,406163	1,005	318,222	0,463	83,83	0	1016,08	7,2	9,2	9	1	1	1	1	1	1	1	1	1	0	1	-10,570825	274,444771	311,093503	0
15.01.2021	17:12:32	0	0	4,745098	1,002	321,84	0,461	83,841	0	1016,02	7,1	9,2	9	1	1	1	1	1	1	1	1	1	0	1	-10,288936	274,320593	310,793615	0
15.01.2021	17:12:33	0	0	2,485528	0,9585	309,96	0,464	83,842	0	1016,36	7,2	9,2	9	1	1	1	1	1	1	1	1	1	0	1	-7,329105	274,267833	313,506501	0
15.01.2021	17:12:34	0	0	3,05042	0,972	307,242	0,464	83,836	0	1016,22	7,1	9,2	9	1	1	1	1	1	1	1	1	1	0	1	-7,963354	274,316065	313,097998	0
15.01.2021	17:12:35	0	0	4,293184	1,0005	313,1928	0,464	83,841	0	1016,38	7,1	9,2	9	1	1	1	1	1	1	1	1	1	0	1	-7,047216	274,313047	314,000006	0
15.01.2021	17:12:36	0	0	3,84127	0,9675	314,8056	0,461	83,852	0	1016,2	7,2	9,2	9	1	1	1	1	1	1	1	1	1	0	1	-10,711769	274,438695	310,924074	0
15.01.2021	17:12:37	0	0	4,519141	0,96825	299,7684	0,464	83,854	0	1016,38	7,2	9,2	9	1	1	1	1	1	1	1	1	1	0	1	-11,205074	274,358368	310,054368	0
15.01.2021	17:12:38	0	0	4,858077	0,94875	294,7824	0,467	83,858	0	1016,34	7,2	9,2	9	1	1	1	1	1	1	1	1	1	0	1	-10,359408	274,270844	310,490287	0
15.01.2021	17:12:39	0	0	4,971055	0,93375	308,0952	0,462	83,844	0	1016,22	7,2	9,2	9	1	1	1	1	1	1	1	1	1	0	1	-6,8358	274,405311	314,643571	0
15.01.2021	17:12:40	0	0	4,745098	0,927	303,2064	0,462	83,849	0	1016,2	7,2	9,2	9	1	1	1	1	1	1	1	1	1	0	1	-8,668076	274,382582	312,704797	0
15.01.2021	17:12:41	0	0	3,615313	0,96375	299,3868	0,466	83,857	0	1016,24	7,2	9,2	9	1	1	1	1	1	1	1	1	1	0	1	-9,936575	274,388641	311,464682	0
15.01.2021	17:12:42	0	0	3,84127	0,969	296,1324	0,462	83,839	0	1016,28	7,2	9,2	9	1	1	1	1	1	1	1	1	1	0	1	-12,684989	274,276867	308,192892	0
15.01.2021	17:12:43	0	0	2,598506	0,9855	298,71	0,463	83,845	0	1015,98	7,2	9,2	9	1	1	1	1	1	1	1	1	1	0	1	-5,144468	274,278374	315,740461	0
15.01.2021	17:12:44	0	0	4,067227	0,93825	306,828	0,461	83,86	0	1016,24	7,2	9,2	9	1	1	1	1	1	1	1	1	1	0	1	-15,151515	274,420478	306,398939	0
15.01.2021	17:12:45	0	0	4,293184	0,89775	305,0136	0,464	83,84	0	1016,26	7,2	9,2	9	1	1	1	1	1	1	1	1	1	0	1	-11,839323	274,266328	308,989239	0
15.01.2021	17:12:46	0	0	4,858077	0,9375	294,3936	0,461	83,848	0	1016,2	7,2	9,2	9	1	1	1	1	1	1	1	1	1	0	1	-12,121212	274,420478	309,429242	0
15.01.2021	17:12:47	0	0	3,05042	1,01775	305,4312	0,465	83,846	0	1016,24	7,2	9,2	9	1	1	1	1	1	1	1	1	1	0	1	-9,654686	274,323613	311,442	0
15.01.2021	17:12:48	0	0	3,05042	1,09275	311,0688	0,462	83,847	0	1016,34	7,1	9,2	9	1	1	1	1	1	1	1	1	1	0	1	-9,725159	274,284399	311,18797	0
15.01.2021	17:12:49	0	0	3,502334	1,164	299,7684	0,465	83,859	0	1016,24	7,2	9,2	9	1	1	1	1	1	1	1	1	1	0	1	-7,540521	274,371985	313,782704	0
15.01.2021	17:12:50	0	0	3,84127	1,2765	302,7744	0,465	83,858	0	1016,24	7,2	9,1	9	1	1	1	1	1	1	1	1	1	0	1	-8,104299	274,444771	313,560029	0
15.01.2021	17:12:51	0	0	3,05042	1,31325	312,9336	0,462	83,853	0	1016,24	7,1	9,2	9	1	1	1	1	1	1	1	1	1	0	1	-10,147992	274,440214	311,494971	0
15.01.2021	17:12:52	0	0	2,824463	1,3125	313,7328	0,461	83,866	0	1016,22	7,2	9,2	9	1	1	1	1	1	1	1	1	1	0	1	-6,553911	274,331163	314,578127	0
15.01.2021	17:12:53	0	0	3,389356	1,314	309,2364	0,46	83,838	0	1016,38	7,2	9,2	9	1	1	1	1	1	1	1	1	1	0	1	-9,020437	274,432621	312,586932	0
15.01.2021	17:12:54	0	0	4,067227	1,302	298,3248	0,457	83,853	0	1016,14	7,2	9,2	9	1	1	1	1	1	1	1	1	1	0	1	-13,601128	274,307013	307,417845	0
15.01.2021	17:12:55	0	0	2,598506	1,323	296,8632	0,462	83,863	0	1016,3	7,2	9,2	9	1	1	1	1	1	1	1	1	1	0	1	-8,527132	274,438695	313,108711	0
15.01.2021	17:12:56	0	0	4,858077	1,30275	296,9064	0,463	83,864	0	1016,34	7,2	9,1	9	1	1	1	1	1	1	1	1	1	0	1	-9,020437	274,391671	312,395017	0
15.01.2021	17:12:57	0	0	3,502334	1,314	305,0856	0,461	83,842	0	1016,1	7,2	9,2	9	1	1	1	1	1	1	1	1	1	0	1	-8,738548	274,305504	312,273363	0
15.01.2021	17:12:58	0	0	2,711485	1,266	299,7936	0,461	83,843	0	1016,16	7,2	9,2	9	1	1	1	1	1	1	1	1	1	0	1	-11,698379	274,284399	309,21475	0
15.01.2021	17:12:59	0	0	2,824463	1,23375	298,3068	0,46	83,868	0	1016,22	7,2	9,2	9	1	1	1	1	1	1	1	1	1	0	1	-14,235377	274,257298	306,550938	0
15.01.2021	17:13:00	0	0	4,406163	1,281	296,0964	0,468	83,867	0	1016,3	7,2	9,2	9	1	1	1	1	1	1	1	1	1	0	1	-8,104299	274,375012	313,233108	0
15.01.2021	17:13:01	0	0	4,406163	1,281	296,0964	0,468	83,867	0	1016,3	7,2	9,2	9	1	1	1	1	1	1	1	1	1	0	1	-14,799154	274,246769	305,937902	0
15.01.2021	17:13:02	0	0	4,858077	1,2705	311,0472	0,461	83,852	0	1016,14	7,2	9,2	9	1	1	1	1	1	1	1	1	1	0	1	-9,513742	274,393186	311,908811	0
15.01.2021	17:13:03	0	0	3,615313	1,275	310,752	0,474	83,855	0	1016,28	7,2	9,2	9	1	1	1	1	1	1	1	1	1	0	1	-10,288936	274,367445	311,013022	0
15.01.2021	17:13:04	0	0	3,389356	1,37325	316,6596	0,465	83,864	0	1016,28	7,2	9,2	9	1	1	1	1	1	1	1	1	1	0	1	-9,302326	274,423513	312,262353	0
15.01.2021	17:13:05	0	0	4,519141	1,371	322,6824	0,462	83,85	0	1016,12	7,1	9,2	9	1	1	1	1	1	1	1	1	1	0	1	-14,517266	274,388641	306,883992	0
15.01.2021	17:13:06	0	0	2,937442	1,39725	321,84	0,459	83,853	0	1016,36	7,2	9,2	9	1	1	1	1	1	1	1	1	1	0	1	-9,654686	274,438695	311,981156	0
15.01.2021	17:13:07	0	0	4,406163	1,4475	315,918	0,462	83,858	0	1016,26	7,1	9,2	9	1	1	1	1	1	1	1	1	1	0	1	-10,852713	274,290427	310,088626	0
15.01.2021	17:13:08	0	0	3,276377	1,476	318,1428	0,464	83,863	0	1016,26	7,2	9,2	9	1	1	1	1	1	1	1	1	1	0	1	-7,117689	274,376526	314,22681	0
15.01.2021	17:13:09	0	0	4,63212	1,494	305,028	0,462	83,856	0	1016,24	7,1	9,2	9	1	1	1	1	1	1	1	1	1	0	1	-8,80902	274,234743	311,87178	0
15.01.2021	17:13:10	0	0	4,180206	1,43475	310,68	0,467	83,854	0	1016,14	7,1	9,2	9	1	1	1	1	1	1	1	1	1	0	1	-10,641297	274,346272	310,561494	0
15.01.2021	17:13:11	0	0	4,406163	1,3965	308,1168	0,466	83,859	0	1016,1	7,2	9,2	9	1	1	1	1	1	1	1	1	1	0	1	-9,584214	274,435658	312,03739	0
15.01.2021	17:13:12	0	0	3,389356	1,37325	322,2108	0,458	83,844	0	1016,14	7,1	9,2	9	1	1	1	1	1	1	1	1	1	0	1	-13,953488	274,375012	307,383919	0
15.01.2021	17:13:13	0	0	4,180206	1,344	310,662	0,462	83,863	0	1016,22	7,1	9,1	9	1	1	1	1	1	1	1	1	1	0	1	-11,698379	274,420478	309,852075	0
15.01.2021	17:13:14	0	0	4,63212	1,32975	308,4732	0,464	83,859	0	1016,18	7,2	9,2	9	1	1	1	1	1	1	1	1	1	0	1	-8,104299	274,434139	313,510188	0
15.01.2021	17:13:15	0	0	4,745098	1,449	314,4816	0,463	83,851	0	1016,42	7,1	9,1	9	1	1	1	1	1	1	1	1	1	0	1	-12,191684	274,347783	309,018186	0
15.01.2021	17:13:16	0	0	4,745098	1,386	324,1116	0,462	83,862	0	1016,12	7,1	9,2	9	1	1	1	1	1	1	1	1	1	0	1	-11,134602	274,255794	309,644674	0
15.01.2021	17:13:17	0	0	4,406163	1,23225	312,048	0,462	83,869	0	1016,34	7,2	9,1	9	1	1	1	1	1	1	1	1	1	0	1	-6,624383	274,314556	314,429904	0
15.01.2021	17:13:18	0	0	2,598506	1,12425	302,454	0,456	83,86	0	1016,26	7,2	9,1	9	1	1	1	1	1	1	1	1	1	0	1	-9,231853	274,437176	312,39687	0
15.01.2021	17:13:19	0	0	4,293184	1,12575	309,4956	0,463	83,856	0	1016,12	7,1	9,2	9	1	1	1	1	1	1	1	1	1	0	1	-12,614517	274,353831	308,623676	0
15.01.2021	17:13:20	0	0	4,406163	1,09125	299,0124	0,463	83,86	0	1016,46	7,2	9,1	9	1	1	1	1	1	1	1	1	1	0	1	-9,302326	274,263317	311,512152	0
15.01.2021	17:13:21	0	0	4,971055	1,1295	287,4636	0,46	83,858	0	1016,28	7,1	9,2	9	1	1	1	1	1	1	1	1	1	0	1	-8,104299	274,412893	313,410605	0
15.01.2021	17:13:22	0	0	3,728292	1,13175	306,738	0,458	83,854	0	1016,22	7,1	9,1	9	1	1	1	1	1	1	1	1	1	0	1	-8,527132	274,278374	312,357798	0
15.01.2021	17:13:23	0	0	4,971055	1,08675	312,0588	0,46	83,855	0	1016,16	7,2	9,2	9	1	1	1	1	1	1	1	1	1	0	1	-11,06413	274,396216	310,372624	0
15.01.2021	17:13:24	0	0	4,519141	1,059	300,438	0,457	83,855	0	1016,26	7,1	9,1	9	1	1	1	1	1	1	1	1	1	0	1	-6,906272	274,417444	314,62996	0
15.01.2021	17:13:25	0	0	4,067227	1,0665	308,0772	0,459	83,853	0	1016,16	7,1	9,1	9	1	1	1	1	1	1	1	1	1	0	1	-12,191684	274,431103	309,408568	0
15.01.2021	17:13:26	0	0	3,163399	1,0395	300,1824	0,459	83,865	0	1016,1	7,1	9,2	9	1	1	1	1	1	1	1	1	1	0	1	-6,8358	274,303996	314,169051	0
15.01.2021	17:13:27	0	0	2,711485	1,04475	292,2876	0,463	83,851	0	1016,32	7,1	9,2	9	1	1	1	1	1	1	1	1	1	0	1	-8,80902	274,264822	312,012499	0
15.01.2021	17:13:28	0	0	4,29321	1,119	287,73	0,458	83,853	0	1016,34	7,1	9,1	8,9	1	1	1	1	1	1	1	1	1	0	1	-12,262156	274,31003	308,77094	0
15.01.2021	17:13:29	0	0	3,954249	1,1445	289,5696	0,46	83,854	0	1016,2	7,1	9,2	9	1	1	1	1	1	1	1	1	1	0	1	-8,386187	274,429584	313,206949	0
15.01.2021	17:13:30	0	0	2,824463	1,158	309,4776	0,46	83,865	0	1016,16	7,2	9,2	9	1	1	1	1	1	1	1	1	1	0	1	-3,24172	274,303996	317,763132	0
15.01.2021	17:13:31	0	0	3,502334	1,12725	300,4884	0,457	83,845	0	1016,16	7,1	9,2	9	1	1	1	1	1	1	1	1	1	0	1	-9,866103	274,420478	311,684351	0
15.01.2021	17:13:32	0	0	4,745098	1,131	303,2712	0,452	83,861	0	1016,16	7,1	9,1	9	1	1	1	1	1	1	1	1	1	0	1	-8,879493	274,266328	311,94907	0
15.01.2021	17:13:33	0	0	2,711485	1,13775	296,118	0,458	83,84	0	1016,24	7,1	9,1	9	1	1	1	1	1	1	1	1	1	0	1	-10,782241	274,303996	310,22261	0
15.01.2021	17:13:34	0	0	2,372549	1,19925	309,87	0,459	83,85	0	1016,14	7,1	9,1	9	1	1	1	1	1	1	1	1	1	0	1	-10,711769	274,269338	310,130881	0
15.01.2021	17:13:35	0	0	4,858077	1,12875	334,5732	0,46	83,855	0	1016,22	7,1	9,1	9	1	1	1	1	1	1	1	1	1	0	1	-16,138125	274,440214	305,504838	0
15.01.2021	17:13:36	0	0	4,293184	1,0425	319,1364	0,453	83,842	0	1016,3	7,1	9,1	9	1	1	1	1	1	1	1	1	1	0	1	-13,178295	274,319084	307,897189	0
15.01.2021	17:13:37	0	0	5,197012	1,0395	304,2468	0,454	83,845	0	1016,22	7,1	9,2	9	1	1	1	1	1	1	1	1	1	0	1	-9,936575	274,270844	310,91312	0
15.01.2021	17:13:38	0	0	3,276377	1,098	315,5472	0,458	83,84	0	1016,24	7,1	9,1	9	1	1	1	1	1	1	1	1	1	0	1	-8,80902	274,349295	312,407929	0
15.01.2021	17:13:39	0	0	2,485528	1,17225	310,9932	0,458	83,847	0	1016,3	7,1	9,2	9	1	1	1	1	1	1	1	1	1	0	1	-14,728682	274,261812	306,078753	0
15.01.2021	17:13:40	0	0	3,84127	1,197	307,1376	0,457	83,858	0	1016,14	7,1	9,1	9	1	1	1	1	1	1	1	1	1	0	1	-10,641297	274,287413	310,285936	0
15.01.2021	17:13:41	0	0	4,067227	1,20975	310,2444	0,458	83,864	0	1016,38	7,1	9,1	9	1	1	1	1	1	1	1	1	1	0	1	-10,500352	274,314556	310,553935	0
15.01.2021	17:13:42	0	0	2,824463	1,2015	304,6896	0,463	83,859	0	1016,22	7,1	9,2	9	1	1	1	1	1	1	1	1	1	0	1	-6,694856	274,261812	314,11258	0
15.01.2021	17:13:43	0	0	3,276377	1,2435	306,4176	0,455	83,857	0	1016,22	7,1	9,1	9	1	1	1	1	1	1	1	1	1	0	1	-7,258633	274,34476	313,93708	0
15.01.2021	17:13:44	0	0	3,276377	1,24125	310,6224	0,454	83,867	0	1016,16	7,1	9,2	9	1	1	1	1	1	1	1	1	1	0	1	-9,090909	274,440214	312,552054	0
15.01.2021	17:13:45	0	0	3,276377	1,16175	306,0648	0,449	83,861	0	1016,18	7,2	9,1	9	1	1	1	1	1	1	1	1	1	0	1	-12,262156	274,248273	308,481935	0
15.01.2021	17:13:46	0	0	4,406163	1,152	302,8104	0,457	83,841	0	1016,2	7,1	9,2	9	1	1	1	1	1	1	1	1	1	0	1	-8,174771	274,437176	313,453952	0
15.01.2021	17:13:47	0	0	3,05042	1,15425	306,108	0,449	83,84	0	1016,2	7,2	9,1	9	1	1	1	1	1	1	1	1	1	0	1	-8,80902	274,278374	312,075909	0
15.01.2021	17:13:48	0	0	4,180206	1,16325	301,2084	0,45	83,856	0	1016,2	7,1	9,1	9	1	1	1	1	1	1	1	1	1	0	1	-10,993658	274,388641	310,4076	0
15.01.2021	17:13:49	0	0	4,971055	1,101	300,8988	0,458	83,848	0	1016,24	7,2	9,2	9	1	1	1	1	1	1	1	1	1	0	1	-9,302326	274,264822	311,519194	0
15.01.2021	17:13:50	0	0	3,163418	1,06875	306,144	0,448	83,86	0	1016,14	7,1	9,1	8,9	1	1	1	1	1	1	1	1	1	0	1	-7,610994	274,343249	313,577641	0
15.01.2021	17:13:51	0	0	3,05042	1,00725	299,736	0,458	83,866	0	1016,3	7,2	9,2	9	1	1	1	1	1	1	1	1	1	0	1	-7,892882	274,397732	313,550972	0
15.01.2021	17:13:52	0	0	3,84127	1,023	294,1056	0,456	83,858	0	1016,38	7,1	9,2	9	1	1	1	1	1	1	1	1	1	0	1	-6,272023	274,441733	315,378061	0
15.01.2021	17:13:53	0	0	4,519141	1,0515	310,2012	0,458	83,864	0	1016,22	7,2	9,1	9	1	1	1	1	1	1	1	1	1	0	1	-9,795631	274,376526	311,548868	0
15.01.2021	17:13:54	0	0	4,293184	1,0485	309,2256	0,453	83,845	0	1016,32	7,1	9,1	9	1	1	1	1	1	1	1	1	1	0	1	-8,738548	274,269338	312,104102	0
15.01.2021	17:13:55	0	0	4,519141	1,15275	290,034	0,448	83,857	0	1016,26	7,1	9,1	9	1	1	1	1	1	1	1	1	1	0	1	-10,147992	274,294949	310,814512	0
15.01.2021	17:13:56	0	0	5,084034	1,2375	300,8124	0,454	83,865	0	1016,18	7,2	9,1	9	1	1	1	1	1	1	1	1	1	0	1	-7,610994	274,396216	313,82576	0
15.01.2021	17:13:57	0	0	3,05042	1,3275	303,4872	0,453	83,855	0	1016,26	7,1	9,1	9	1	1	1	1	1	1	1	1	1	0	1	-6,20155	274,285906	314,71863	0
15.01.2021	17:13:58	0	0	2,598506	1,329	304,6248	0,453	83,84	0	1016,16	7,1	9,1	9	1	1	1	1	1	1	1	1	1	0	1	-9,302326	274,450849	312,390498	0
15.01.2021	17:13:59	0	0	3,05042	1,359	298,6848	0,457	83,856	0	1016,14	7,1	9,1	9	1	1	1	1	1	1	1	1	1	0	1	-11,205074	274,428066	310,380947	0
15.01.2021	17:14:00	0	0	2,598506	1,32525	292,914	0,456	83,851	0	1016,3	7,1	9,1	9	1	1	1	1	1	1	1	1	1	0	1	-14,517266	274,335694	306,635991	0
15.01.2021	17:14:01	0	0	2,598506	1,32525	292,914	0,456	83,851	0	1016,3	7,1	9,1	9	1	1	1	1	1	1	1	1	1	0	1	-13,107822	274,435658	308,513782	0
15.01.2021	17:14:02	0	0	3,84127	1,281	281,7972	0,451	83,849	0	1016,26	7,1	9,1	9	1	1	1	1	1	1	1	1	1	0	1	-11,06413	274,356855	310,188229	0
15.01.2021	17:14:03	0	0	3,84127	1,194	298,2888	0,456	83,844	0	1016,22	7,1	9,1	9	1	1	1	1	1	1	1	1	1	0	1	-13,248767	274,434139	308,36572	0
15.01.2021	17:14:04	0	0	2,824463	1,1775	308,8908	0,46	83,862	0	1016,22	7,1	9,2	9	1	1	1	1	1	1	1	1	1	0	1	-13,248767	274,387126	308,145393	0
15.01.2021	17:14:05	0	0	3,954249	1,17	314,4168	0,458	83,855	0	1016,28	7,1	9,1	9	1	1	1	1	1	1	1	1	1	0	1	-10,288936	274,291934	310,659458	0
15.01.2021	17:14:06	0	0	3,84127	1,19175	328,2948	0,454	83,854	0	1016,3	7,2	9,1	9	1	1	1	1	1	1	1	1	1	0	1	-10,570825	274,432621	311,036544	0
15.01.2021	17:14:07	0	0	2,598506	1,1835	328,2048	0,453	83,867	0	1016,3	7,1	9,2	9	1	1	1	1	1	1	1	1	1	0	1	-13,812544	274,294949	307,14996	0
15.01.2021	17:14:08	0	0	2,598506	1,26375	301,5504	0,444	83,857	0	1016,14	7,1	9,1	9	1	1	1	1	1	1	1	1	1	0	1	-8,597604	274,388641	312,803653	0
15.01.2021	17:14:09	0	0	4,63212	1,34175	299,0556	0,459	83,877	0	1016,22	7,1	9,1	9	1	1	1	1	1	1	1	1	1	0	1	-7,681466	274,431103	313,918786	0
15.01.2021	17:14:10	0	0	4,63212	1,392	299,7828	0,452	83,864	0	1016,14	7,1	9,1	9	1	1	1	1	1	1	1	1	1	0	1	-7,258633	274,375012	314,078774	0
15.01.2021	17:14:11	0	0	3,615313	1,35	307,6236	0,458	83,877	0	1016,28	7,1	9,1	9	1	1	1	1	1	1	1	1	1	0	1	-9,936575	274,441733	311,713509	0
15.01.2021	17:14:12	0	0	3,276397	1,27875	309,528	0,45	83,872	0	1016,2	7,2	9,1	8,9	1	1	1	1	1	1	1	1	1	0	1	-8,527132	274,297964	312,449485	0
15.01.2021	17:14:13	0	0	3,276377	1,22775	305,3448	0,452	83,865	0	1016,16	7,1	9,1	9	1	1	1	1	1	1	1	1	1	0	1	-15,856237	274,31003	305,17686	0
15.01.2021	17:14:14	0	0	4,745098	1,176	283,608	0,455	83,873	0	1016,18	7,1	9,1	9	1	1	1	1	1	1	1	1	1	0	1	-13,883016	274,423513	307,681662	0
15.01.2021	17:14:15	0	0	4,519141	1,19475	284,9292	0,457	83,868	0	1016,36	7,1	9,2	9	1	1	1	1	1	1	1	1	1	0	1	-10,359408	274,402279	311,105754	0
15.01.2021	17:14:16	0	0	2,711485	1,16475	307,548	0,459	83,888	0	1016,32	7,1	9,1	9	1	1	1	1	1	1	1	1	1	0	1	-7,470049	274,417444	314,066182	0
15.01.2021	17:14:17	0	0	4,745098	1,1295	309,312	0,456	83,865	0	1016,2	7,1	9,1	9	1	1	1	1	1	1	1	1	1	0	1	-10,641297	274,438695	310,994546	0
15.01.2021	17:14:18	0	0	2,485528	1,149	312,4476	0,452	83,87	0	1016,32	7,2	9,1	9	1	1	1	1	1	1	1	1	1	0	1	-13,03735	274,322103	308,052268	0
15.01.2021	17:14:19	0	0	4,406163	1,0935	306,5184	0,454	83,876	0	1016,3	7,1	9,1	9	1	1	1	1	1	1	1	1	1	0	1	-11,275546	274,426549	310,30336	0
15.01.2021	17:14:20	0	0	5,084064	1,0545	319,1976	0,458	83,875	0	1016,18	7,1	9,1	8,9	1	1	1	1	1	1	1	1	1	0	1	-14,023961	274,269338	306,818689	0
15.01.2021	17:14:21	0	0	4,858106	0,993	330,7032	0,45	83,859	0	1016,26	7,1	9,2	8,9	1	1	1	1	1	1	1	1	1	0	1	-11,839323	274,429584	309,753813	0
15.01.2021	17:14:22	0	0	2,824463	0,9465	317,0016	0,45	83,868	0	1016,28	7,1	9,1	9	1	1	1	1	1	1	1	1	1	0	1	-14,517266	274,391671	306,898188	0
15.01.2021	17:14:23	0	0	3,728292	0,90225	308,484	0,451	83,881	0	1016,24	7,1	9,1	9	1	1	1	1	1	1	1	1	1	0	1	-6,272023	274,437176	315,356701	0
15.01.2021	17:14:24	0	0	4,63212	0,88125	315,2268	0,451	83,884	0	1016,3	7,1	9,1	9	1	1	1	1	1	1	1	1	1	0	1	-8,174771	274,252785	312,590429	0
15.01.2021	17:14:25	0	0	3,615335	0,84525	314,4816	0,452	83,877	0	1016,02	7,1	9,2	8,9	1	1	1	1	1	1	1	1	1	0	1	-9,513742	274,302488	311,48405	0
15.01.2021	17:14:26	0	0	4,519141	0,8415	311,454	0,456	83,888	0	1016,36	7,1	9,1	9	1	1	1	1	1	1	1	1	1	0	1	-8,45666	274,425031	313,115132	0
15.01.2021	17:14:27	0	0	2,598506	0,882	315,8928	0,45	83,872	0	1016,24	7,1	9,1	9	1	1	1	1	1	1	1	1	1	0	1	-10,359408	274,367445	310,94255	0
15.01.2021	17:14:28	0	0	2,824463	0,89025	311,7636	0,454	83,893	0	1016,3	7,1	9,1	9	1	1	1	1	1	1	1	1	1	0	1	-4,721635	274,257298	316,06468	0
15.01.2021	17:14:29	0	0	4,971055	0,91575	311,4216	0,447	83,889	0	1016,3	7,1	9,1	9	1	1	1	1	1	1	1	1	1	0	1	-8,315715	274,328142	312,80218	0
15.01.2021	17:14:30	0	0	4,067227	0,9285	315,5004	0,455	83,887	0	1016,3	7,1	9,1	9	1	1	1	1	1	1	1	1	1	0	1	-11,768851	274,415927	309,76027	0
15.01.2021	17:14:31	0	0	4,745098	0,93825	319,1976	0,451	83,894	0	1016,14	7,1	9,1	9	1	1	1	1	1	1	1	1	1	0	1	-9,725159	274,402279	311,740004	0
15.01.2021	17:14:32	0	0	3,954249	0,87675	317,8188	0,452	83,89	0	1016,32	7,1	9,1	9	1	1	1	1	1	1	1	1	1	0	1	-12,544045	274,290427	308,397294	0
15.01.2021	17:14:33	0	0	2,711501	0,8805	316,2384	0,452	83,877	0	1016,3	7,1	9,1	8,9	1	1	1	1	1	1	1	1	1	0	1	-11,557435	274,37804	309,794156	0
15.01.2021	17:14:34	0	0	3,163399	0,89025	312,4764	0,451	83,892	0	1016,32	7,1	9,1	9	1	1	1	1	1	1	1	1	1	0	1	-10,500352	274,255794	310,278924	0
15.01.2021	17:14:35	0	0	2,824463	0,86625	311,7312	0,454	83,89	0	1016,26	7,1	9,2	9	1	1	1	1	1	1	1	1	1	0	1	-11,839323	274,242259	308,876632	0
15.01.2021	17:14:36	0	0	3,163399	0,8445	313,74	0,45	83,892	0	1016,36	7,1	9,1	9	1	1	1	1	1	1	1	1	1	0	1	-9,090909	274,319084	311,984575	0
15.01.2021	17:14:37	0	0	4,519141	0,82875	315,1764	0,452	83,885	0	1016,2	7,1	9,1	9	1	1	1	1	1	1	1	1	1	0	1	-11,205074	274,426549	310,373832	0
15.01.2021	17:14:38	0	0	3,276377	0,83775	321,4836	0,449	83,898	0	1016,2	7,1	9,2	9	1	1	1	1	1	1	1	1	1	0	1	-11,346018	274,317575	309,722399	0
15.01.2021	17:14:39	0	0	2,711485	0,8175	315,846	0,454	83,896	0	1016,1	7,1	9,1	9	1	1	1	1	1	1	1	1	1	0	1	-9,231853	274,258803	311,561501	0
15.01.2021	17:14:40	0	0	3,728292	0,80925	313,2504	0,451	83,876	0	1016,22	7,1	9,1	9	1	1	1	1	1	1	1	1	1	0	1	-9,654686	274,325122	311,449069	0
15.01.2021	17:14:41	0	0	4,067252	0,80625	320,4216	0,452	83,889	0	1016,32	7,1	9,1	8,9	1	1	1	1	1	1	1	1	1	0	1	-10,923185	274,428066	310,662835	0
15.01.2021	17:14:42	0	0	4,745098	0,80175	312,5052	0,445	83,882	0	1016,18	7,1	9,1	9	1	1	1	1	1	1	1	1	1	0	1	-9,654686	274,432621	311,952683	0
15.01.2021	17:14:43	0	0	3,502334	0,78975	308,3472	0,454	83,887	0	1016,38	7,1	9,1	9	1	1	1	1	1	1	1	1	1	0	1	-12,896406	274,382582	308,476467	0
15.01.2021	17:14:44	0	0	3,502334	0,849	307,2564	0,445	83,898	0	1016,18	7,1	9,1	9	1	1	1	1	1	1	1	1	1	0	1	-12,05074	274,252785	308,71446	0
15.01.2021	17:14:45	0	0	3,502334	0,89175	309,2364	0,453	83,908	0	1016,3	7,1	9,1	9	1	1	1	1	1	1	1	1	1	0	1	-8,45666	274,40986	313,044029	0
15.01.2021	17:14:46	0	0	3,05042	0,96225	305,7408	0,453	83,898	0	1016,12	7,1	9,1	9	1	1	1	1	1	1	1	1	1	0	1	-12,684989	274,251281	308,073174	0
15.01.2021	17:14:47	0	0	2,598506	1,011	302,094	0,453	83,907	0	1016,3	7,1	9,2	9	1	1	1	1	1	1	1	1	1	0	1	-7,047216	274,367445	314,254742	0
15.01.2021	17:14:48	0	0	2,824463	1,06425	304,308	0,457	83,911	0	1016,34	7,1	9,1	9	1	1	1	1	1	1	1	1	1	0	1	-11,627907	274,443252	310,029298	0
15.01.2021	17:14:49	0	0	3,502334	1,16025	299,3832	0,454	83,905	0	1016,16	7,1	9,1	9	1	1	1	1	1	1	1	1	1	0	1	-9,161381	274,349295	312,055569	0
15.01.2021	17:14:50	0	0	2,711485	1,23075	293,6988	0,454	83,905	0	1016,18	7,1	9,2	9	1	1	1	1	1	1	1	1	1	0	1	-10,077519	274,260308	310,722875	0
15.01.2021	17:14:51	0	0	3,502334	1,2345	285,5376	0,455	83,903	0	1016,14	7,1	9,1	9	1	1	1	1	1	1	1	1	1	0	1	-8,879493	274,347783	312,330378	0
15.01.2021	17:14:52	0	0	4,971055	1,248	290,088	0,454	83,901	0	1016,26	7,1	9,1	9	1	1	1	1	1	1	1	1	1	0	1	-12,614517	274,254289	308,15772	0
15.01.2021	17:14:53	0	0	5,197012	1,2705	296,0172	0,453	83,901	0	1016,3	7,1	9,1	9	1	1	1	1	1	1	1	1	1	0	1	-12,473573	274,406827	309,012903	0
15.01.2021	17:14:54	0	0	2,937442	1,21425	303,948	0,455	83,911	0	1016,2	7,1	9,1	9	1	1	1	1	1	1	1	1	1	0	1	-5,990134	274,323613	315,106553	0
15.01.2021	17:14:55	0	0	2,372549	1,12125	306,1512	0,458	83,914	0	1016,2	7,1	9,1	9	1	1	1	1	1	1	1	1	1	0	1	-8,104299	274,258803	312,689056	0
15.01.2021	17:14:56	0	0	3,615335	1,1115	302,8788	0,452	83,902	0	1016,32	7,1	9,2	8,9	1	1	1	1	1	1	1	1	1	0	1	-8,174771	274,368958	313,134276	0
15.01.2021	17:14:57	0	0	3,954249	1,07325	302,0652	0,452	83,9	0	1016,24	7,1	9,1	9	1	1	1	1	1	1	1	1	1	0	1	-11,627907	274,27235	309,228834	0
15.01.2021	17:14:58	0	0	3,050439	1,02225	303,5484	0,455	83,911	0	1016,28	7,1	9,1	8,9	1	1	1	1	1	1	1	1	1	0	1	-7,540521	274,362906	313,740176	0
15.01.2021	17:14:59	0	0	4,971055	0,9735	304,6212	0,455	83,91	0	1016,24	7,1	9,1	9	1	1	1	1	1	1	1	1	1	0	1	-11,486963	274,425031	310,084829	0
15.01.2021	17:15:00	0	0	5,197012	0,90525	304,2432	0,45	83,913	0	1016,4	7,1	9,1	9	1	1	1	1	1	1	1	1	1	0	1	-8,245243	274,291934	312,70315	0
15.01.2021	17:15:01	0	0	5,197012	0,90525	304,2432	0,45	83,913	0	1016,4	7,1	9,1	9	1	1	1	1	1	1	1	1	1	0	1	-12,121212	274,444771	309,543115	0
15.01.2021	17:15:02	0	0	2,937442	0,8925	304,6824	0,454	83,909	0	1016,26	7,1	9,1	9	1	1	1	1	1	1	1	1	1	0	1	-10,007047	274,294949	310,955457	0
15.01.2021	17:15:03	0	0	4,971055	0,90525	315,2268	0,446	83,915	0	1016,22	7,1	9,1	9	1	1	1	1	1	1	1	1	1	0	1	-7,258633	274,276867	313,619248	0
15.01.2021	17:15:04	0	0	3,389356	0,93225	309,528	0,455	83,915	0	1016,3	7,1	9,1	9	1	1	1	1	1	1	1	1	1	0	1	-12,825934	274,421996	308,731632	0
15.01.2021	17:15:05	0	0	4,858077	1,00125	306,1944	0,451	83,905	0	1016,24	7,1	9,1	9	1	1	1	1	1	1	1	1	1	0	1	-9,020437	274,319084	312,055047	0
15.01.2021	17:15:06	0	0	5,197012	1,005	312,5268	0,453	83,913	0	1016,2	7,1	9,1	9	1	1	1	1	1	1	1	1	1	0	1	-14,376321	274,255794	306,402955	0
15.01.2021	17:15:07	0	0	4,293184	0,98325	310,3344	0,45	83,908	0	1016,4	7,1	9,1	9	1	1	1	1	1	1	1	1	1	0	1	-12,544045	274,307013	308,474927	0
15.01.2021	17:15:08	0	0	4,745098	0,94575	313,596	0,449	83,907	0	1016,36	7,1	9,1	9	1	1	1	1	1	1	1	1	1	0	1	-10,359408	274,252785	310,405792	0
15.01.2021	17:15:09	0	0	4,180206	0,91725	312,8436	0,451	83,913	0	1016,12	7,1	9,1	9	1	1	1	1	1	1	1	1	1	0	1	-13,530655	274,40986	307,970033	0
15.01.2021	17:15:10	0	0	3,502334	0,891	303,534	0,452	83,912	0	1016,26	7,1	9,1	9	1	1	1	1	1	1	1	1	1	0	1	-8,668076	274,375012	312,669331	0
15.01.2021	17:15:11	0	0	2,937459	0,888	305,0172	0,451	83,905	0	1016,26	7,1	9,1	8,9	1	1	1	1	1	1	1	1	1	0	1	-11,557435	274,435658	310,06417	0
15.01.2021	17:15:12	0	0	3,502334	0,82875	307,6272	0,452	83,911	0	1016,06	7,1	9,1	9	1	1	1	1	1	1	1	1	1	0	1	-11,275546	274,270844	309,574149	0
15.01.2021	17:15:13	0	0	3,728292	0,85575	311,7384	0,456	83,913	0	1016,2	7,1	9,1	9	1	1	1	1	1	1	1	1	1	0	1	-9,866103	274,381068	311,499675	0
15.01.2021	17:15:14	0	0	3,389376	0,83625	309,5568	0,452	83,92	0	1016,26	7,1	9,1	8,9	1	1	1	1	1	1	1	1	1	0	1	-9,231853	274,243762	311,491135	0
15.01.2021	17:15:15	0	0	3,502334	0,79875	303,2352	0,449	83,904	0	1016,18	7,1	9,1	9	1	1	1	1	1	1	1	1	1	0	1	-7,470049	274,35988	313,796477	0
15.01.2021	17:15:16	0	0	4,067227	0,795	301,6548	0,454	83,924	0	1016,3	7,1	9,1	9	1	1	1	1	1	1	1	1	1	0	1	-7,892882	274,264822	312,928637	0
15.01.2021	17:15:17	0	0	2,598506	0,7305	310,3092	0,452	83,913	0	1016,16	7,1	9,1	9	1	1	1	1	1	1	1	1	1	0	1	-9,795631	274,332673	311,34348	0
15.01.2021	17:15:18	0	0	4,519168	0,71175	324,8964	0,449	83,917	0	1016,3	7,1	9,1	8,9	1	1	1	1	1	1	1	1	1	0	1	-10,147992	274,437176	311,480732	0
15.01.2021	17:15:19	0	0	3,050439	0,6285	328,4172	0,454	83,917	0	1016,28	7,1	9,1	8,9	1	1	1	1	1	1	1	1	1	0	1	-11,346018	274,337205	309,814313	0
15.01.2021	17:15:20	0	0	3,728314	0,60675	321,4584	0,447	83,908	0	1016,24	7,1	9,1	8,9	1	1	1	1	1	1	1	1	1	0	1	-11,839323	274,254289	308,932914	0
15.01.2021	17:15:21	0	0	4,745098	0,576	315,9648	0,45	83,909	0	1016,28	7,1	9,1	9	1	1	1	1	1	1	1	1	1	0	1	-10,147992	274,421996	311,409574	0
15.01.2021	17:15:22	0	0	3,615313	0,54975	320,7312	0,448	83,918	0	1016,36	7,1	9,1	9	1	1	1	1	1	1	1	1	1	0	1	-7,892882	274,421996	313,664683	0
15.01.2021	17:15:23	0	0	2,937442	0,51225	326,8044	0,455	83,906	0	1016,44	7,1	9,2	9	1	1	1	1	1	1	1	1	1	0	1	-11,839323	274,400763	309,618735	0
15.01.2021	17:15:24	0	0	4,745098	0,4875	327,4488	0,449	83,926	0	1016,36	7,1	9,1	9	1	1	1	1	1	1	1	1	1	0	1	-10,570825	274,428066	311,015196	0
15.01.2021	17:15:25	0	0	3,389356	0,4995	325,5228	0,444	83,918	0	1016,22	7,1	9,1	9	1	1	1	1	1	1	1	1	1	0	1	-10,359408	274,291934	310,588985	0
15.01.2021	17:15:26	0	0	4,971085	0,5235	326,6856	0,448	83,9	0	1016,24	7,1	9,1	8,9	1	1	1	1	1	1	1	1	1	0	1	-13,389711	274,421996	308,167855	0
15.01.2021	17:15:27	0	0	4,293184	0,582	333,4572	0,449	83,917	0	1016,18	7,1	9,1	9	1	1	1	1	1	1	1	1	1	0	1	-8,879493	274,27988	312,012486	0
15.01.2021	17:15:28	0	0	4,745098	0,621	335,7576	0,448	83,917	0	1016,26	7,1	9,1	9	1	1	1	1	1	1	1	1	1	0	1	-7,188161	274,429584	314,404975	0
15.01.2021	17:15:29	0	0	3,276377	0,6915	328,6188	0,448	83,914	0	1016,32	7,1	9,1	9	1	1	1	1	1	1	1	1	1	0	1	-11,205074	274,311538	309,835085	0
15.01.2021	17:15:30	0	0	3,954249	0,7215	326,4552	0,45	83,9	0	1016,3	7,1	9,1	9	1	1	1	1	1	1	1	1	1	0	1	-7,470049	274,425031	314,101743	0
15.01.2021	17:15:31	0	0	3,050439	0,822	320,8716	0,45	83,913	0	1016,26	7,1	9,1	8,9	1	1	1	1	1	1	1	1	1	0	1	-10,500352	274,282893	310,405726	0
15.01.2021	17:15:32	0	0	4,971085	0,8985	321,8796	0,446	83,933	0	1016,2	7,1	9,1	8,9	1	1	1	1	1	1	1	1	1	0	1	-7,82241	274,252785	312,94279	0
15.01.2021	17:15:33	0	0	3,615335	1,01025	320,4072	0,444	83,912	0	1016,12	7,1	9,1	8,9	1	1	1	1	1	1	1	1	1	0	1	-13,03735	274,291934	307,911043	0
15.01.2021	17:15:34	0	0	4,632148	1,10925	326,754	0,449	83,937	0	1016,22	7,1	9,1	8,9	1	1	1	1	1	1	1	1	1	0	1	-14,728682	274,429584	306,864454	0
15.01.2021	17:15:35	0	0	5,084064	1,20975	328,2588	0,446	83,921	0	1016,06	7,1	9,1	8,9	1	1	1	1	1	1	1	1	1	0	1	-10,570825	274,368958	310,738222	0
15.01.2021	17:15:36	0	0	2,937459	1,284	318,8592	0,45	83,923	0	1016,32	7,1	9,1	8,9	1	1	1	1	1	1	1	1	1	0	1	-7,399577	274,421996	314,157989	0
15.01.2021	17:15:37	0	0	3,728292	1,3065	324,8028	0,448	83,928	0	1016,32	7,1	9,1	9	1	1	1	1	1	1	1	1	1	0	1	-11,557435	274,307013	309,461538	0
15.01.2021	17:15:38	0	0	2,259584	1,3695	329,6916	0,446	83,922	0	1016,24	7,1	9,1	8,9	1	1	1	1	1	1	1	1	1	0	1	-14,094433	274,397732	307,349422	0
15.01.2021	17:15:39	0	0	4,63212	1,35525	330,7788	0,443	83,933	0	1016,08	7,1	9,1	9	1	1	1	1	1	1	1	1	1	0	1	-9,795631	274,437176	311,833093	0
15.01.2021	17:15:40	0	0	4,406189	1,32825	322,632	0,451	83,928	0	1016,26	7,1	9,1	8,9	1	1	1	1	1	1	1	1	1	0	1	-9,090909	274,350807	312,133121	0
15.01.2021	17:15:41	0	0	2,372563	1,269	318,8664	0,457	83,926	0	1016,22	7,1	9,1	8,9	1	1	1	1	1	1	1	1	1	0	1	-13,460183	274,248273	307,283908	0
15.01.2021	17:15:42	0	0	3,728292	1,31025	318,1716	0,451	83,925	0	1016,18	7,1	9,1	9	1	1	1	1	1	1	1	1	1	0	1	-11,275546	274,263317	309,538931	0
15.01.2021	17:15:43	0	0	3,050439	1,32375	312,8544	0,447	83,923	0	1016,24	7,1	9,1	8,9	1	1	1	1	1	1	1	1	1	0	1	-10,500352	274,294949	310,462152	0
15.01.2021	17:15:44	0	0	3,954249	1,30275	314,8056	0,45	83,916	0	1016,1	7,1	9,1	9	1	1	1	1	1	1	1	1	1	0	1	-10,359408	274,37804	310,992183	0
15.01.2021	17:15:45	0	0	4,519141	1,2255	318,1536	0,448	83,922	0	1016,3	7,1	9,1	9	1	1	1	1	1	1	1	1	1	0	1	-11,909796	274,443252	309,74741	0
15.01.2021	17:15:46	0	0	2,711501	1,18875	315,2196	0,447	83,932	0	1016,24	7,1	9,1	8,9	1	1	1	1	1	1	1	1	1	0	1	-7,82241	274,323613	313,274277	0
15.01.2021	17:15:47	0	0	2,937459	1,25325	309,5856	0,453	83,93	0	1016,22	7,1	9,2	8,9	1	1	1	1	1	1	1	1	1	0	1	-6,412967	274,249777	314,33816	0
15.01.2021	17:15:48	0	0	3,502334	1,3215	312,5088	0,45	83,928	0	1016,22	7,1	9,1	9	1	1	1	1	1	1	1	1	1	0	1	-8,597604	274,284399	312,315525	0
15.01.2021	17:15:49	0	0	5,084064	1,338	311,3928	0,451	83,937	0	1016,2	7,1	9,1	8,9	1	1	1	1	1	1	1	1	1	0	1	-10,711769	274,417444	310,824463	0
15.01.2021	17:15:50	0	0	3,389356	1,34925	311,0004	0,446	83,92	0	1016,26	7,1	9,1	9	1	1	1	1	1	1	1	1	1	0	1	-7,188161	274,264822	313,633359	0
15.01.2021	17:15:51	0	0	2,937459	1,38	314,4852	0,45	83,929	0	1016,28	7,1	9,1	8,9	1	1	1	1	1	1	1	1	1	0	1	-12,403101	274,373498	308,927215	0
15.01.2021	17:15:52	0	0	2,485543	1,39575	310,4028	0,447	83,921	0	1016,32	7,1	9,1	8,9	1	1	1	1	1	1	1	1	1	0	1	-12,755462	274,257298	308,030853	0
15.01.2021	17:15:53	0	0	4,519168	1,347	309,2076	0,442	83,929	0	1016,26	7,1	9,1	8,9	1	1	1	1	1	1	1	1	1	0	1	-12,755462	274,362906	308,525235	0
15.01.2021	17:15:54	0	0	2,485543	1,3725	313,6212	0,456	83,929	0	1016,34	7,1	9,1	8,9	1	1	1	1	1	1	1	1	1	0	1	-8,597604	274,421996	312,959962	0
15.01.2021	17:15:55	0	0	3,05042	1,3665	304,2612	0,451	83,932	0	1016,2	7,1	9,1	9	1	1	1	1	1	1	1	1	1	0	1	-6,8358	274,347783	314,37407	0
15.01.2021	17:15:56	0	0	3,841293	1,32825	311,3604	0,452	83,93	0	1016,1	7,1	9,1	8,9	1	1	1	1	1	1	1	1	1	0	1	-10,007047	274,418961	311,536295	0
15.01.2021	17:15:57	0	0	4,067227	1,31475	309,9348	0,451	83,92	0	1016	7,1	9,1	9	1	1	1	1	1	1	1	1	1	0	1	-8,738548	274,384097	312,641419	0
15.01.2021	17:15:58	0	0	3,276377	1,278	314,5068	0,451	83,926	0	1016,12	7,1	9,1	9	1	1	1	1	1	1	1	1	1	0	1	-6,342495	274,305504	314,669417	0
15.01.2021	17:15:59	0	0	4,067252	1,22475	319,23	0,45	83,931	0	1016,3	7,1	9,1	8,9	1	1	1	1	1	1	1	1	1	0	1	-10,641297	274,400763	310,816762	0
15.01.2021	17:16:00	0	0	3,615335	1,149	316,6416	0,453	83,921	0	1016,26	7,1	9,1	8,9	1	1	1	1	1	1	1	1	1	0	1	-8,245243	274,37804	313,106348	0
15.01.2021	17:16:01	0	0	3,615335	1,149	316,6416	0,453	83,921	0	1016,26	7,1	9,1	8,9	1	1	1	1	1	1	1	1	1	0	1	-12,191684	274,444771	309,472643	0
15.01.2021	17:16:02	0	0	3,615313	1,1505	322,5816	0,442	83,919	0	1016,1	7,1	9,1	9	1	1	1	1	1	1	1	1	1	0	1	-9,725159	274,332673	311,413952	0
15.01.2021	17:16:03	0	0	5,197012	1,092	314,1504	0,452	83,935	0	1016,18	7,1	9,1	9	1	1	1	1	1	1	1	1	1	0	1	-8,45666	274,387126	312,9375	0
15.01.2021	17:16:04	0	0	3,050439	1,068	313,272	0,447	83,926	0	1016,36	7,1	9,1	8,9	1	1	1	1	1	1	1	1	1	0	1	-10,147992	274,408343	311,34559	0
15.01.2021	17:16:05	0	0	3,050439	1,04175	320,7276	0,455	83,935	0	1016,22	7,1	9,1	8,9	1	1	1	1	1	1	1	1	1	0	1	-7,188161	274,255794	313,591115	0
15.01.2021	17:16:06	0	0	3,728314	1,0485	325,5408	0,453	83,924	0	1016,26	7,1	9,1	8,9	1	1	1	1	1	1	1	1	1	0	1	-8,80902	274,405311	312,67035	0
15.01.2021	17:16:07	0	0	3,502334	0,95925	319,3164	0,455	83,934	0	1016,22	7,1	9,1	9	1	1	1	1	1	1	1	1	1	0	1	-7,681466	274,411376	313,82633	0
15.01.2021	17:16:08	0	0	3,615335	0,90675	303,9408	0,449	83,929	0	1016,14	7,1	9,1	8,9	1	1	1	1	1	1	1	1	1	0	1	-5,778717	274,293441	315,176731	0
15.01.2021	17:16:09	0	0	2,146605	0,825	287,4024	0,452	83,957	0	1016,22	7,1	9,1	8,9	1	1	1	1	1	1	1	1	1	0	1	-10,711769	274,388641	310,689488	0
15.01.2021	17:16:10	0	0	4,406163	0,77175	285,9264	0,453	83,959	0	1016,34	7,1	9,1	9	1	1	1	1	1	1	1	1	1	0	1	-7,188161	274,230235	313,471555	0
15.01.2021	17:16:11	0	0	2,937459	0,71175	295,2612	0,445	83,935	0	1016,22	7,1	9,1	8,9	1	1	1	1	1	1	1	1	1	0	1	-8,738548	274,260308	312,061846	0
15.01.2021	17:16:12	0	0	2,937459	0,696	299,376	0,453	83,944	0	1016,24	7,1	9,1	8,9	1	1	1	1	1	1	1	1	1	0	1	-8,949965	274,266328	311,878597	0
15.01.2021	17:16:13	0	0	2,598506	0,702	300,3912	0,453	83,945	0	1016,22	7,1	9,1	9	1	1	1	1	1	1	1	1	1	0	1	-12,755462	274,405311	308,723909	0
15.01.2021	17:16:14	0	0	4,745127	0,747	295,1424	0,452	83,937	0	1016,26	7,1	9,1	8,9	1	1	1	1	1	1	1	1	1	0	1	-7,963354	274,41441	313,558658	0
15.01.2021	17:16:15	0	0	4,519168	0,80775	289,6092	0,451	83,946	0	1016,12	7,1	9,1	8,9	1	1	1	1	1	1	1	1	1	0	1	-8,738548	274,303996	312,266303	0
15.01.2021	17:16:16	0	0	3,615335	0,84	286,3044	0,455	83,937	0	1016,26	7,1	9,1	8,9	1	1	1	1	1	1	1	1	1	0	1	-6,20155	274,420478	315,348903	0
15.01.2021	17:16:17	0	0	2,82448	0,93375	300,8484	0,445	83,953	0	1016,3	7,1	9,1	8,9	1	1	1	1	1	1	1	1	1	0	1	-7,540521	274,305504	313,47139	0
15.01.2021	17:16:18	0	0	4,632148	1,0245	296,0856	0,454	83,946	0	1016,34	7,1	9,1	8,9	1	1	1	1	1	1	1	1	1	0	1	-8,315715	274,418961	313,227627	0
15.01.2021	17:16:19	0	0	3,728314	1,06425	298,3104	0,459	83,938	0	1016,2	7,1	9,1	8,9	1	1	1	1	1	1	1	1	1	0	1	-8,597604	274,34476	312,598109	0
15.01.2021	17:16:20	0	0	5,084064	1,13025	321,8292	0,447	83,937	0	1016,28	7,1	9,1	8,9	1	1	1	1	1	1	1	1	1	0	1	-9,090909	274,260308	311,709486	0
15.01.2021	17:16:21	0	0	4,406163	1,22475	310,7412	0,446	83,937	0	1016,14	7,1	9,1	9	1	1	1	1	1	1	1	1	1	0	1	-9,866103	274,384097	311,513865	0
15.01.2021	17:16:22	0	0	2,82448	1,239	304,3188	0,454	83,94	0	1016,28	7,1	9,1	8,9	1	1	1	1	1	1	1	1	1	0	1	-8,597604	274,242259	312,118352	0
15.01.2021	17:16:23	0	0	2,372563	1,2405	301,2372	0,456	83,94	0	1016,14	7,1	9,1	8,9	1	1	1	1	1	1	1	1	1	0	1	-8,879493	274,384097	312,500475	0
15.01.2021	17:16:24	0	0	2,937442	1,19925	300,4056	0,452	83,937	0	1016,22	7,1	9,1	9	1	1	1	1	1	1	1	1	1	0	1	-4,792107	274,388641	316,60915	0
15.01.2021	17:16:25	0	0	3,954272	1,1745	300,5424	0,449	83,931	0	1016,28	7,1	9,1	8,9	1	1	1	1	1	1	1	1	1	0	1	-8,315715	274,308521	312,710319	0
15.01.2021	17:16:26	0	0	4,29321	1,24875	303,5196	0,442	83,934	0	1016,18	7,1	9,1	8,9	1	1	1	1	1	1	1	1	1	0	1	-9,866103	274,264822	310,955416	0
15.01.2021	17:16:27	0	0	4,067227	1,29	311,7996	0,451	83,938	0	1016,34	7,1	9,1	9	1	1	1	1	1	1	1	1	1	0	1	-5,496829	274,397732	315,947026	0
15.01.2021	17:16:28	0	0	4,067252	1,2435	308,502	0,453	83,93	0	1016,12	7,1	9,1	8,9	1	1	1	1	1	1	1	1	1	0	1	-11,275546	274,258803	309,517808	0
15.01.2021	17:16:29	0	0	2,824463	1,1415	311,0112	0,453	83,933	0	1016,3	7,1	9,1	9	1	1	1	1	1	1	1	1	1	0	1	-13,812544	274,317575	307,255874	0
15.01.2021	17:16:30	0	0	2,485543	1,125	297,9972	0,458	83,936	0	1016,22	7,1	9,1	8,9	1	1	1	1	1	1	1	1	1	0	1	-10,500352	274,441733	311,149732	0
15.01.2021	17:16:31	0	0	4,971055	1,16925	286,7112	0,453	83,937	0	1016,28	7,1	9,1	9	1	1	1	1	1	1	1	1	1	0	1	-9,866103	274,418961	311,67724	0
15.01.2021	17:16:32	0	0	2,82448	1,22325	289,1664	0,447	83,936	0	1016,3	7,1	9,1	8,9	1	1	1	1	1	1	1	1	1	0	1	-13,530655	274,379554	307,828029	0
15.01.2021	17:16:33	0	0	4,519168	1,2705	293,0868	0,447	83,919	0	1016,3	7,1	9,1	8,9	1	1	1	1	1	1	1	1	1	0	1	-10,993658	274,421996	310,563908	0
15.01.2021	17:16:34	0	0	3,615313	1,38375	297,9036	0,447	83,921	0	1016,22	7,1	9,1	9	1	1	1	1	1	1	1	1	1	0	1	-9,513742	274,364419	311,774041	0
15.01.2021	17:16:35	0	0	3,276377	1,494	301,6044	0,452	83,932	0	1016,38	7,1	9,1	9	1	1	1	1	1	1	1	1	1	0	1	-10,147992	274,281386	310,751036	0
15.01.2021	17:16:36	0	0	4,519141	1,5435	302,8608	0,447	83,937	0	1016,44	7,1	9,1	9	1	1	1	1	1	1	1	1	1	0	1	-11,557435	274,40986	309,943254	0
15.01.2021	17:16:37	0	0	4,858106	1,5855	302,1408	0,446	83,926	0	1016,08	7,1	9,1	8,9	1	1	1	1	1	1	1	1	1	0	1	-8,738548	274,323613	312,358138	0
15.01.2021	17:16:38	0	0	4,858106	1,674	306,8532	0,45	83,926	0	1016,24	7,1	9,1	8,9	1	1	1	1	1	1	1	1	1	0	1	-9,231853	274,425031	312,339938	0
15.01.2021	17:16:39	0	0	4,745127	1,78275	310,3236	0,449	83,934	0	1016,18	7,1	9,1	8,9	1	1	1	1	1	1	1	1	1	0	1	-9,795631	274,418961	311,747712	0
15.01.2021	17:16:40	0	0	4,067227	1,755	308,8476	0,443	83,927	0	1016,28	7,1	9,1	9	1	1	1	1	1	1	1	1	1	0	1	-8,949965	274,417444	312,586267	0
15.01.2021	17:16:41	0	0	3,728314	1,67025	309,294	0,45	83,93	0	1016,28	7,1	9,1	8,9	1	1	1	1	1	1	1	1	1	0	1	-14,094433	274,314556	306,959854	0
15.01.2021	17:16:42	0	0	4,745127	1,707	312,5772	0,449	83,943	0	1016,34	7,1	9,1	8,9	1	1	1	1	1	1	1	1	1	0	1	-9,654686	274,435658	311,966918	0
15.01.2021	17:16:43	0	0	4,067227	1,76775	311,5044	0,452	83,924	0	1016,02	7,1	9,1	9	1	1	1	1	1	1	1	1	1	0	1	-11,627907	274,384097	309,752061	0
15.01.2021	17:16:44	0	0	2,711501	1,72575	305,3988	0,452	83,933	0	1016,34	7,1	9,1	8,9	1	1	1	1	1	1	1	1	1	0	1	-15,503876	274,406827	305,9826	0
15.01.2021	17:16:45	0	0	4,971055	1,72875	302,4648	0,447	83,923	0	1016,3	7,1	9,1	9	1	1	1	1	1	1	1	1	1	0	1	-8,033827	274,260308	312,766568	0
15.01.2021	17:16:46	0	0	3,502334	1,686	299,8224	0,444	83,928	0	1016,1	7,1	9,1	9	1	1	1	1	1	1	1	1	1	0	1	-13,319239	274,297964	307,657378	0
15.01.2021	17:16:47	0	0	4,293184	1,6785	302,9364	0,454	83,925	0	1016,34	7,1	9,1	9	1	1	1	1	1	1	1	1	1	0	1	-9,936575	274,420478	311,613879	0
15.01.2021	17:16:48	0	0	2,372549	1,68375	323,2944	0,455	83,936	0	1016,2	7,1	9,1	9	1	1	1	1	1	1	1	1	1	0	1	-12,262156	274,402279	309,203006	0
15.01.2021	17:16:49	0	0	4,745098	1,7175	303,8544	0,452	83,936	0	1016,24	7,1	9,1	9	1	1	1	1	1	1	1	1	1	0	1	-11,06413	274,41441	310,457883	0
15.01.2021	17:16:50	0	0	2,485543	1,74675	314,0892	0,451	83,927	0	1016,18	7,1	9,1	8,9	1	1	1	1	1	1	1	1	1	0	1	-10,147992	274,434139	311,466495	0
15.01.2021	17:16:51	0	0	2,937459	1,731	324,1152	0,451	83,926	0	1016,06	7,1	9,1	8,9	1	1	1	1	1	1	1	1	1	0	1	-11,486963	274,376526	309,857536	0
15.01.2021	17:16:52	0	0	2,146605	1,59225	312,5196	0,448	83,927	0	1016,28	7,1	9,1	8,9	1	1	1	1	1	1	1	1	1	0	1	-11,41649	274,429584	310,176646	0
15.01.2021	17:16:53	0	0	3,389376	1,50225	302,49	0,448	83,925	0	1016,28	7,1	9,1	8,9	1	1	1	1	1	1	1	1	1	0	1	-7,82241	274,275361	313,048423	0
15.01.2021	17:16:54	0	0	2,372563	1,40025	288,3132	0,451	83,93	0	1016,26	7,1	9,1	8,9	1	1	1	1	1	1	1	1	1	0	1	-9,584214	274,307013	311,434758	0
15.01.2021	17:16:55	0	0	2,937459	1,278	292,986	0,454	83,932	0	1016,34	7,1	9,1	8,9	1	1	1	1	1	1	1	1	1	0	1	-8,597604	274,251281	312,160559	0
15.01.2021	17:16:56	0	0	2,937442	1,23225	306,1296	0,448	83,912	0	1016,16	7,1	9,1	9	1	1	1	1	1	1	1	1	1	0	1	-9,161381	274,30098	311,829352	0
15.01.2021	17:16:57	0	0	4,971085	1,233	306,1116	0,451	83,925	0	1016,26	7,1	9,1	8,9	1	1	1	1	1	1	1	1	1	0	1	-11,557435	274,406827	309,929041	0
15.01.2021	17:16:58	0	0	3,728292	1,221	309,4776	0,45	83,927	0	1016,3	7,1	9,1	9	1	1	1	1	1	1	1	1	1	0	1	-6,976744	274,411376	314,531052	0
15.01.2021	17:16:59	0	0	4,519141	1,26075	309,6144	0,448	83,907	0	1016,2	7,1	9,1	9	1	1	1	1	1	1	1	1	1	0	1	-9,302326	274,305504	311,709586	0
15.01.2021	17:17:00	0	0	2,711501	1,39875	289,2528	0,452	83,925	0	1016,24	7,1	9,1	8,9	1	1	1	1	1	1	1	1	1	0	1	-6,060606	274,418961	315,482736	0
15.01.2021	17:17:01	0	0	2,711501	1,39875	289,2528	0,452	83,925	0	1016,24	7,1	9,1	8,9	1	1	1	1	1	1	1	1	1	0	1	-9,936575	274,31003	311,096521	0
15.01.2021	17:17:02	0	0	2,146605	1,45725	296,8344	0,452	83,912	0	1016,08	7,1	9,1	8,9	1	1	1	1	1	1	1	1	1	0	1	-9,725159	274,417444	311,811073	0
15.01.2021	17:17:03	0	0	3,050439	1,479	290,4876	0,451	83,933	0	1016,22	7,1	9,1	8,9	1	1	1	1	1	1	1	1	1	0	1	-8,738548	274,313047	312,308675	0
15.01.2021	17:17:04	0	0	3,050439	1,5735	292,6368	0,452	83,906	0	1016,08	7,1	9,1	8,9	1	1	1	1	1	1	1	1	1	0	1	-12,262156	274,258803	308,531198	0
15.01.2021	17:17:05	0	0	4,971085	1,58925	301,1796	0,449	83,913	0	1016,14	7,1	9,1	8,9	1	1	1	1	1	1	1	1	1	0	1	-11,205074	274,394701	310,224579	0
15.01.2021	17:17:06	0	0	4,519168	1,53	301,7016	0,447	83,923	0	1016,2	7,1	9,1	8,9	1	1	1	1	1	1	1	1	1	0	1	-11,346018	274,371985	309,977207	0
15.01.2021	17:17:07	0	0	4,406189	1,44075	315,9108	0,447	83,912	0	1016,26	7,1	9,1	8,9	1	1	1	1	1	1	1	1	1	0	1	-10,641297	274,249777	310,10983	0
15.01.2021	17:17:08	0	0	2,82448	1,3125	319,1832	0,453	83,914	0	1016,26	7,1	9,1	8,9	1	1	1	1	1	1	1	1	1	0	1	-5,144468	274,317575	315,92395	0
15.01.2021	17:17:09	0	0	4,180231	1,17975	322,6068	0,447	83,904	0	1016,14	7,1	9,1	8,9	1	1	1	1	1	1	1	1	1	0	1	-8,668076	274,399247	312,78288	0
15.01.2021	17:17:10	0	0	2,937459	1,11525	320,85	0,457	83,925	0	1016,28	7,1	9,1	8,9	1	1	1	1	1	1	1	1	1	0	1	-6,906272	274,242259	313,809684	0
15.01.2021	17:17:11	0	0	4,406189	1,15125	334,2168	0,449	83,925	0	1016,32	7,1	9,1	8,9	1	1	1	1	1	1	1	1	1	0	1	-9,936575	274,285906	310,983606	0
15.01.2021	17:17:12	0	0	4,406189	1,16025	328,1904	0,45	83,925	0	1016,14	7,1	9,1	8,9	1	1	1	1	1	1	1	1	1	0	1	-11,698379	274,269338	309,144271	0
15.01.2021	17:17:13	0	0	4,971085	1,18575	314,7912	0,448	83,922	0	1016,02	7,1	9,1	8,9	1	1	1	1	1	1	1	1	1	0	1	-5,567301	274,420478	315,983153	0
15.01.2021	17:17:14	0	0	3,163418	1,28925	323,3916	0,449	83,911	0	1016,16	7,1	9,1	8,9	1	1	1	1	1	1	1	1	1	0	1	-9,372798	274,426549	312,206108	0
15.01.2021	17:17:15	0	0	2,711501	1,34025	297,1872	0,449	83,908	0	1016,08	7,1	9,1	8,9	1	1	1	1	1	1	1	1	1	0	1	-11,698379	274,297964	309,278238	0
15.01.2021	17:17:16	0	0	4,29321	1,4475	313,182	0,452	83,921	0	1016,22	7,1	9,1	8,9	1	1	1	1	1	1	1	1	1	0	1	-6,412967	274,385611	314,974097	0
15.01.2021	17:17:17	0	0	3,615335	1,50825	311,0724	0,447	83,911	0	1015,86	7,1	9,1	8,9	1	1	1	1	1	1	1	1	1	0	1	-5,637773	274,258803	315,155581	0
15.01.2021	17:17:18	0	0	2,82448	1,545	311,0832	0,448	83,915	0	1016,22	7,1	9,1	8,9	1	1	1	1	1	1	1	1	1	0	1	-8,80902	274,316065	312,252332	0
15.01.2021	17:17:19	0	0	5,197044	1,60575	305,4312	0,448	83,932	0	1016,3	7,1	9,1	8,9	1	1	1	1	1	1	1	1	1	0	1	-11,627907	274,368958	309,68114	0
15.01.2021	17:17:20	0	0	4,519141	1,5615	310,3452	0,449	83,934	0	1016,2	7,1	9,1	9	1	1	1	1	1	1	1	1	1	0	1	-9,161381	274,245266	311,568641	0
15.01.2021	17:17:21	0	0	3,276397	1,61925	297,5832	0,446	83,917	0	1016,16	7,1	9,1	8,9	1	1	1	1	1	1	1	1	1	0	1	-12,896406	274,313047	308,150817	0
15.01.2021	17:17:22	0	0	4,406189	1,662	307,2132	0,452	83,931	0	1016,3	7,1	9,1	8,9	1	1	1	1	1	1	1	1	1	0	1	-4,721635	274,248273	316,022456	0
15.01.2021	17:17:23	0	0	3,954249	1,73175	296,4708	0,443	83,91	0	1016,04	7,1	9,1	9	1	1	1	1	1	1	1	1	1	0	1	-9,090909	274,296456	311,878651	0
15.01.2021	17:17:24	0	0	3,389356	1,68525	292,2336	0,446	83,913	0	1016,08	7,1	9,1	9	1	1	1	1	1	1	1	1	1	0	1	-9,866103	274,266328	310,962459	0
15.01.2021	17:17:25	0	0	4,745127	1,61325	296,2332	0,45	83,914	0	1016,16	7,2	9,1	8,9	1	1	1	1	1	1	1	1	1	0	1	-9,725159	274,335694	311,428098	0
15.01.2021	17:17:26	0	0	4,632148	1,58775	296,4852	0,446	83,912	0	1016,14	7,1	9,1	8,9	1	1	1	1	1	1	1	1	1	0	1	-6,906272	274,246769	313,830784	0
15.01.2021	17:17:27	0	0	2,937459	1,6005	299,7108	0,449	83,927	0	1016,28	7,1	9,1	8,9	1	1	1	1	1	1	1	1	1	0	1	-9,936575	274,275361	310,934259	0
15.01.2021	17:17:28	0	0	5,084064	1,61175	296,4168	0,447	83,923	0	1016,28	7,1	9,1	8,9	1	1	1	1	1	1	1	1	1	0	1	-11,06413	274,296456	309,90543	0
15.01.2021	17:17:29	0	0	4,293158	1,5105	303,498	0,441	83,919	0	1016,18	7,1	9,1	9,1	1	1	1	1	1	1	1	1	1	0	1	-9,725159	274,421996	311,832407	0
15.01.2021	17:17:30	0	0	4,406189	1,45425	314,4708	0,437	83,93	0	1016,22	7,1	9,1	8,9	1	1	1	1	1	1	1	1	1	0	1	-9,513742	274,356855	311,738616	0
15.01.2021	17:17:31	0	0	2,82448	1,36275	309,942	0,448	83,929	0	1016,22	7,1	9,1	8,9	1	1	1	1	1	1	1	1	1	0	1	-12,191684	274,242259	308,524271	0
15.01.2021	17:17:32	0	0	2,711501	1,34325	309,8808	0,454	83,935	0	1016,32	7,1	9,1	8,9	1	1	1	1	1	1	1	1	1	0	1	-5,778717	274,370471	315,537418	0
15.01.2021	17:17:33	0	0	5,197044	1,21425	319,1796	0,446	83,921	0	1016,38	7,1	9,1	8,9	1	1	1	1	1	1	1	1	1	0	1	-10,007047	274,249777	310,74408	0
15.01.2021	17:17:34	0	0	3,163418	1,15875	295,1496	0,441	83,927	0	1016,32	7,2	9,1	8,9	1	1	1	1	1	1	1	1	1	0	1	-11,627907	274,376526	309,716592	0
15.01.2021	17:17:35	0	0	2,259584	1,19475	289,5408	0,451	83,916	0	1016,34	7,1	9,1	8,9	1	1	1	1	1	1	1	1	1	0	1	-6,553911	274,243762	314,169077	0
15.01.2021	17:17:36	0	0	2,82448	1,29825	285,5016	0,445	83,916	0	1016,14	7,1	9,1	8,9	1	1	1	1	1	1	1	1	1	0	1	-10,359408	274,353831	310,878785	0
15.01.2021	17:17:37	0	0	4,858106	1,32	279,1908	0,448	83,915	0	1016,16	7,1	9,1	8,9	1	1	1	1	1	1	1	1	1	0	1	-9,090909	274,412893	312,423995	0
15.01.2021	17:17:38	0	0	4,519168	1,31925	294,7752	0,439	83,93	0	1016,2	7,1	9,1	8,9	1	1	1	1	1	1	1	1	1	0	1	-6,060606	274,397732	315,383248	0
15.01.2021	17:17:39	0	0	3,276397	1,3155	292,9716	0,444	83,917	0	1016,26	7,1	9,1	8,9	1	1	1	1	1	1	1	1	1	0	1	-8,315715	274,276867	312,562166	0
15.01.2021	17:17:40	0	0	4,632148	1,25325	286,6896	0,45	83,937	0	1016,22	7,1	9,1	8,9	1	1	1	1	1	1	1	1	1	0	1	-14,094433	274,228733	306,558256	0
15.01.2021	17:17:41	0	0	4,519168	1,26675	291,9348	0,45	83,932	0	1016,24	7,2	9,1	8,9	1	1	1	1	1	1	1	1	1	0	1	-8,104299	274,347783	313,105571	0
15.01.2021	17:17:42	0	0	4,067227	1,254	288,7848	0,449	83,93	0	1016,28	7,1	9,1	9	1	1	1	1	1	1	1	1	1	0	1	-9,372798	274,415927	312,156324	0
15.01.2021	17:17:43	0	0	4,293184	1,3605	298,6524	0,447	83,928	0	1016,28	7,2	9,1	9	1	1	1	1	1	1	1	1	1	0	1	-13,178295	274,394701	308,251358	0
15.01.2021	17:17:44	0	0	3,954249	1,3875	306,8064	0,446	83,921	0	1016,06	7,1	9,1	9	1	1	1	1	1	1	1	1	1	0	1	-10,923185	274,350807	310,300845	0
15.01.2021	17:17:45	0	0	3,502355	1,398	292,986	0,452	83,925	0	1016,22	7	9,1	8,9	1	1	1	1	1	1	1	1	1	0	1	-9,936575	274,415927	311,592547	0
15.01.2021	17:17:46	0	0	2,372563	1,47825	300,474	0,446	83,917	0	1016,28	7,1	9,1	8,9	1	1	1	1	1	1	1	1	1	0	1	-5,567301	274,248273	315,17679	0
15.01.2021	17:17:47	0	0	4,632148	1,6095	289,1916	0,443	83,941	0	1016,22	7,1	9,1	8,9	1	1	1	1	1	1	1	1	1	0	1	-14,305849	274,287413	306,621384	0
15.01.2021	17:17:48	0	0	4,858106	1,6215	292,6584	0,447	83,917	0	1016,18	7,1	9,1	8,9	1	1	1	1	1	1	1	1	1	0	1	-11,346018	274,421996	310,211547	0
15.01.2021	17:17:49	0	0	4,067252	1,587	298,2564	0,445	83,923	0	1016,3	7,1	9,1	8,9	1	1	1	1	1	1	1	1	1	0	1	-6,131078	274,258803	314,662276	0
15.01.2021	17:17:50	0	0	4,858106	1,563	309,5424	0,448	83,927	0	1016,18	7,2	9,1	8,9	1	1	1	1	1	1	1	1	1	0	1	-11,627907	274,370471	309,688229	0
15.01.2021	17:17:51	0	0	3,502355	1,56975	310,6188	0,447	83,919	0	1016,24	7,1	9,1	8,9	1	1	1	1	1	1	1	1	1	0	1	-6,483439	274,249777	314,267688	0
15.01.2021	17:17:52	0	0	2,598506	1,60575	312,12	0,446	83,917	0	1016,22	7,2	9,1	9	1	1	1	1	1	1	1	1	1	0	1	-7,963354	274,352319	313,267757	0
15.01.2021	17:17:53	0	0	4,180231	1,60275	316,2348	0,448	83,923	0	1016,42	7,1	9,1	8,9	1	1	1	1	1	1	1	1	1	0	1	-3,523608	274,426549	318,055298	0
15.01.2021	17:17:54	0	0	3,163399	1,5975	310,6116	0,444	83,919	0	1016,26	7,1	9,1	9	1	1	1	1	1	1	1	1	1	0	1	-12,614517	274,393186	308,808036	0
15.01.2021	17:17:55	0	0	4,519168	1,551	318,4272	0,44	83,921	0	1016,16	7,1	9,2	8,9	1	1	1	1	1	1	1	1	1	0	1	-7,399577	274,294949	313,562927	0
15.01.2021	17:17:56	0	0	2,824463	1,527	320,7096	0,446	83,912	0	1016,26	7,1	9,1	9	1	1	1	1	1	1	1	1	1	0	1	-12,896406	274,258803	307,896948	0
15.01.2021	17:17:57	0	0	3,615335	1,521	312,8292	0,45	83,919	0	1016,22	7,1	9,1	8,9	1	1	1	1	1	1	1	1	1	0	1	-8,879493	274,396216	312,557261	0
15.01.2021	17:17:58	0	0	4,632148	1,53075	312,2496	0,452	83,936	0	1016,08	7,1	9,1	8,9	1	1	1	1	1	1	1	1	1	0	1	-8,668076	274,417444	312,868156	0
15.01.2021	17:17:59	0	0	4,180206	1,49775	310,6584	0,448	83,913	0	1016,3	7,2	9,1	9	1	1	1	1	1	1	1	1	1	0	1	-9,936575	274,305504	311,075337	0
15.01.2021	17:18:00	0	0	4,067252	1,44525	314,4816	0,449	83,921	0	1016,36	7,1	9,1	8,9	1	1	1	1	1	1	1	1	1	0	1	-12,191684	274,421996	309,365882	0
15.01.2021	17:18:01	0	0	4,067252	1,44525	314,4816	0,449	83,921	0	1016,36	7,1	9,1	8,9	1	1	1	1	1	1	1	1	1	0	1	-11,980268	274,376526	309,364231	0
15.01.2021	17:18:02	0	0	3,276397	1,4685	328,95	0,445	83,916	0	1016,34	7,1	9,1	8,9	1	1	1	1	1	1	1	1	1	0	1	-11,346018	274,423513	310,21866	0
15.01.2021	17:18:03	0	0	2,937459	1,43025	329,6412	0,443	83,91	0	1016,22	7,1	9,1	8,9	1	1	1	1	1	1	1	1	1	0	1	-13,248767	274,236246	307,439064	0
15.01.2021	17:18:04	0	0	4,519168	1,38225	327,8016	0,45	83,902	0	1016,12	7,1	9,1	8,9	1	1	1	1	1	1	1	1	1	0	1	-9,513742	274,290427	311,427597	0
15.01.2021	17:18:05	0	0	3,050439	1,41825	329,3352	0,444	83,917	0	1016,32	7,1	9,2	8,9	1	1	1	1	1	1	1	1	1	0	1	-7,892882	274,429584	313,700254	0
15.01.2021	17:18:06	0	0	3,615335	1,4205	330,1128	0,446	83,895	0	1016,16	7,2	9,1	8,9	1	1	1	1	1	1	1	1	1	0	1	-6,483439	274,388641	314,917818	0
15.01.2021	17:18:07	0	0	4,180231	1,46025	321,1884	0,442	83,895	0	1016,3	7,1	9,1	8,9	1	1	1	1	1	1	1	1	1	0	1	-5,708245	274,352319	315,522866	0
15.01.2021	17:18:08	0	0	4,63212	1,50825	326,3868	0,447	83,906	0	1016,34	7,1	9,1	9	1	1	1	1	1	1	1	1	1	0	1	-9,302326	274,249777	311,448801	0
15.01.2021	17:18:09	0	0	4,180231	1,59075	318,852	0,447	83,913	0	1016,32	7,1	9,1	8,9	1	1	1	1	1	1	1	1	1	0	1	-5,84919	274,426549	315,729716	0
15.01.2021	17:18:10	0	0	2,372563	1,58625	324,1044	0,449	83,903	0	1016,3	7,2	9,1	8,9	1	1	1	1	1	1	1	1	1	0	1	-10,218464	274,305504	310,793448	0
15.01.2021	17:18:11	0	0	4,29321	1,53225	313,6608	0,448	83,897	0	1015,94	7	9,1	8,9	1	1	1	1	1	1	1	1	1	0	1	-10,782241	274,252785	309,982959	0
15.01.2021	17:18:12	0	0	5,310023	1,4025	308,4696	0,44	83,89	0	1016,28	7,1	9,1	8,9	1	1	1	1	1	1	1	1	1	0	1	-7,892882	274,316065	313,16847	0
15.01.2021	17:18:13	0	0	3,728314	1,33125	298,98	0,446	83,911	0	1016,28	7,1	9,1	8,9	1	1	1	1	1	1	1	1	1	0	1	-9,090909	274,242259	311,625047	0
15.01.2021	17:18:14	0	0	5,084064	1,287	301,626	0,444	83,889	0	1016,14	7,2	9,1	8,9	1	1	1	1	1	1	1	1	1	0	1	-6,553911	274,356855	314,698447	0
15.01.2021	17:18:15	0	0	4,63212	1,23975	310,9752	0,445	83,895	0	1016,34	7,1	9,1	9	1	1	1	1	1	1	1	1	1	0	1	-11,768851	274,415927	309,76027	0
15.01.2021	17:18:16	0	0	3,276397	1,227	309,5856	0,445	83,901	0	1016,2	7,1	9,1	8,9	1	1	1	1	1	1	1	1	1	0	1	-14,164905	274,362906	307,115792	0
15.01.2021	17:18:17	0	0	4,632148	1,26675	293,7096	0,448	83,901	0	1016,34	7,1	9,1	8,9	1	1	1	1	1	1	1	1	1	0	1	-9,231853	274,258803	311,561501	0
15.01.2021	17:18:18	0	0	3,728314	1,257	297,936	0,44	83,904	0	1016,28	7,2	9,1	8,9	1	1	1	1	1	1	1	1	1	0	1	-10,711769	274,31003	310,321327	0
15.01.2021	17:18:19	0	0	4,519168	1,25925	305,3736	0,444	83,899	0	1016,08	7,2	9,1	8,9	1	1	1	1	1	1	1	1	1	0	1	-10,077519	274,431103	311,522733	0
15.01.2021	17:18:20	0	0	4,632148	1,27275	304,7112	0,448	83,91	0	1016,28	7,1	9,1	8,9	1	1	1	1	1	1	1	1	1	0	1	-11,346018	274,358368	309,913424	0
15.01.2021	17:18:21	0	0	3,954249	1,23	305,7912	0,446	83,896	0	1016,2	7,2	9,1	9	1	1	1	1	1	1	1	1	1	0	1	-5,990134	274,285906	314,930047	0
15.01.2021	17:18:22	0	0	2,824463	1,19025	308,4336	0,446	83,908	0	1016,08	7,2	9,1	9	1	1	1	1	1	1	1	1	1	0	1	-9,372798	274,252785	311,392402	0
15.01.2021	17:18:23	0	0	2,937459	1,1895	302,724	0,448	83,913	0	1016,3	7,1	9,1	8,9	1	1	1	1	1	1	1	1	1	0	1	-11,134602	274,260308	309,665793	0
15.01.2021	17:18:24	0	0	2,033626	1,28025	295,5492	0,444	83,908	0	1016,24	7,1	9,2	8,9	1	1	1	1	1	1	1	1	1	0	1	-9,654686	274,417444	311,881545	0
15.01.2021	17:18:25	0	0	4,406189	1,479	296,8128	0,446	83,904	0	1016,24	7,2	9,1	8,9	1	1	1	1	1	1	1	1	1	0	1	-8,45666	274,384097	312,923308	0
15.01.2021	17:18:26	0	0	3,389356	1,58475	280,3032	0,446	83,882	0	1016,26	7,2	9,1	9	1	1	1	1	1	1	1	1	1	0	1	-11,839323	274,411376	309,668472	0
15.01.2021	17:18:27	0	0	3,163418	1,494	291,5028	0,446	83,892	0	1016,2	7,2	9,1	8,9	1	1	1	1	1	1	1	1	1	0	1	-10,711769	274,28892	310,222517	0
15.01.2021	17:18:28	0	0	2,937459	1,47525	295,6572	0,448	83,897	0	1016,24	7,2	9,1	8,9	1	1	1	1	1	1	1	1	1	0	1	-6,131078	274,269338	314,711572	0
15.01.2021	17:18:29	0	0	4,63212	1,52325	296,0856	0,443	83,9	0	1016,24	7,2	9,1	9	1	1	1	1	1	1	1	1	1	0	1	-10,500352	274,362906	310,780345	0
15.01.2021	17:18:30	0	0	4,63212	1,59	298,6956	0,44	83,886	0	1016,12	7,2	9,1	9	1	1	1	1	1	1	1	1	1	0	1	-12,191684	274,41441	309,330328	0
15.01.2021	17:18:31	0	0	4,29321	1,6425	300,384	0,443	83,89	0	1016,18	7,1	9,1	8,9	1	1	1	1	1	1	1	1	1	0	1	-9,725159	274,405311	311,754212	0
15.01.2021	17:18:32	0	0	4,858077	1,63275	312,4368	0,443	83,89	0	1016,18	7,1	9,1	9	1	1	1	1	1	1	1	1	1	0	1	-7,470049	274,297964	313,506568	0
15.01.2021	17:18:33	0	0	4,858077	1,60725	325,4904	0,436	83,876	0	1016,08	7,2	9,1	9	1	1	1	1	1	1	1	1	1	0	1	-10,42988	274,239252	310,272012	0
15.01.2021	17:18:34	0	0	4,971085	1,61775	306,8316	0,438	83,892	0	1016,12	7,1	9,2	8,9	1	1	1	1	1	1	1	1	1	0	1	-9,372798	274,382582	312,000075	0
15.01.2021	17:18:35	0	0	3,841293	1,6035	308,4372	0,446	83,892	0	1016,16	7,1	9,1	8,9	1	1	1	1	1	1	1	1	1	0	1	-11,627907	274,303996	309,376944	0
15.01.2021	17:18:36	0	0	3,163418	1,5705	313,2324	0,447	83,898	0	1016,36	7,1	9,1	8,9	1	1	1	1	1	1	1	1	1	0	1	-8,315715	274,420478	313,234738	0
15.01.2021	17:18:37	0	0	4,745127	1,6725	304,3044	0,442	83,893	0	1016,1	7,1	9,1	8,9	1	1	1	1	1	1	1	1	1	0	1	-12,262156	274,331163	308,869882	0
15.01.2021	17:18:38	0	0	3,615335	1,761	301,518	0,438	83,894	0	1016,24	7,2	9,1	8,9	1	1	1	1	1	1	1	1	1	0	1	-6,412967	274,370471	314,903169	0
15.01.2021	17:18:39	0	0	4,519141	1,74975	305,3916	0,44	83,871	0	1016,4	7,1	9,1	9	1	1	1	1	1	1	1	1	1	0	1	-10,007047	274,41441	311,514965	0
15.01.2021	17:18:40	0	0	4,067252	1,7595	309,87	0,448	83,895	0	1016,26	7,2	9,2	8,9	1	1	1	1	1	1	1	1	1	0	1	-10,288936	274,323613	310,807751	0
15.01.2021	17:18:41	0	0	2,711501	1,76775	315,1692	0,443	83,898	0	1016,22	7,2	9,1	8,9	1	1	1	1	1	1	1	1	1	0	1	-10,641297	274,420478	310,909157	0
15.01.2021	17:18:42	0	0	2,937442	1,8105	312,498	0,44	83,885	0	1016,2	7,1	9,1	9	1	1	1	1	1	1	1	1	1	0	1	-9,513742	274,240755	311,195181	0
15.01.2021	17:18:43	0	0	2,711501	1,77975	312,426	0,446	83,885	0	1016,06	7,1	9,1	8,9	1	1	1	1	1	1	1	1	1	0	1	-8,315715	274,316065	312,745637	0
15.01.2021	17:18:44	0	0	3,389356	1,77675	311,058	0,442	83,874	0	1016,16	7,1	9,1	9	1	1	1	1	1	1	1	1	1	0	1	-9,090909	274,425031	312,480883	0
15.01.2021	17:18:45	0	0	4,180206	1,74075	309,258	0,438	83,876	0	1016,22	7,1	9,1	9	1	1	1	1	1	1	1	1	1	0	1	-6,412967	274,30098	314,577766	0
15.01.2021	17:18:46	0	0	3,276397	1,743	311,3964	0,441	83,901	0	1016,06	7,1	9,1	8,9	1	1	1	1	1	1	1	1	1	0	1	-9,936575	274,254289	310,835663	0
15.01.2021	17:18:47	0	0	4,067252	1,749	314,7552	0,436	83,896	0	1016,2	7,2	9,1	8,9	1	1	1	1	1	1	1	1	1	0	1	-11,627907	274,381068	309,737871	0
15.01.2021	17:18:48	0	0	4,519168	1,71225	308,8728	0,443	83,892	0	1016,3	7,2	9,1	8,9	1	1	1	1	1	1	1	1	1	0	1	-6,906272	274,41441	314,61574	0
15.01.2021	17:18:49	0	0	3,276377	1,698	308,8476	0,445	83,894	0	1016,26	7,1	9,1	9	1	1	1	1	1	1	1	1	1	0	1	-9,090909	274,415927	312,438213	0
15.01.2021	17:18:50	0	0	3,615335	1,6545	308,8008	0,437	83,889	0	1016,26	7,1	9,1	8,9	1	1	1	1	1	1	1	1	1	0	1	-9,161381	274,353831	312,076812	0
15.01.2021	17:18:51	0	0	4,745098	1,63725	307,5624	0,438	83,889	0	1016,24	7,2	9,2	9	1	1	1	1	1	1	1	1	1	0	1	-12,614517	274,246769	308,122539	0
15.01.2021	17:18:52	0	0	4,180206	1,563	306,1548	0,446	83,891	0	1016,2	7,2	9,1	9	1	1	1	1	1	1	1	1	1	0	1	-13,6716	274,384097	307,708368	0
15.01.2021	17:18:53	0	0	2,711501	1,4715	319,5468	0,436	83,884	0	1016,16	7,1	9,2	8,9	1	1	1	1	1	1	1	1	1	0	1	-9,513742	274,396216	311,923011	0
15.01.2021	17:18:54	0	0	3,502355	1,479	318,4416	0,44	83,886	0	1016,34	7,2	9,1	8,9	1	1	1	1	1	1	1	1	1	0	1	-9,584214	274,403795	311,888052	0
15.01.2021	17:18:55	0	0	4,971055	1,5585	318,4236	0,445	83,894	0	1016,24	7,2	9,1	9	1	1	1	1	1	1	1	1	1	0	1	-12,966878	274,391671	308,448576	0
15.01.2021	17:18:56	0	0	3,728314	1,6095	314,0784	0,444	83,885	0	1016,12	7,2	9,2	8,9	1	1	1	1	1	1	1	1	1	0	1	-11,698379	274,431103	309,901873	0
15.01.2021	17:18:57	0	0	3,502355	1,62225	314,802	0,444	83,887	0	1016,26	7,1	9,1	8,9	1	1	1	1	1	1	1	1	1	0	1	-6,624383	274,367445	314,677575	0
15.01.2021	17:18:58	0	0	4,406189	1,70775	312,9588	0,44	83,903	0	1016,28	7,2	9,2	8,9	1	1	1	1	1	1	1	1	1	0	1	-8,949965	274,431103	312,650287	0
15.01.2021	17:18:59	0	0	5,423002	1,69875	312,5232	0,443	83,902	0	1016,3	7,2	9,1	8,9	1	1	1	1	1	1	1	1	1	0	1	-11,06413	274,356855	310,188229	0
15.01.2021	17:19:00	0	0	3,84127	1,797	319,5792	0,446	83,887	0	1016,3	7,2	9,2	9	1	1	1	1	1	1	1	1	1	0	1	-9,020437	274,37804	312,331154	0
15.01.2021	17:19:01	0	0	3,84127	1,797	319,5792	0,446	83,887	0	1016,3	7,2	9,2	9	1	1	1	1	1	1	1	1	1	0	1	-9,020437	274,37804	312,331154	0
15.01.2021	17:19:02	0	0	3,389356	1,85475	317,6388	0,441	83,882	0	1016,3	7,2	9,1	9	1	1	1	1	1	1	1	1	1	0	1	-12,473573	274,273855	308,390214	0
15.01.2021	17:19:03	0	0	2,711485	1,96125	309,204	0,438	83,896	0	1016,2	7,2	9,1	9	1	1	1	1	1	1	1	1	1	0	1	-10,007047	274,437176	311,621676	0
15.01.2021	17:19:04	0	0	4,63212	1,98675	325,0728	0,434	83,874	0	1016,1	7,2	9,1	9	1	1	1	1	1	1	1	1	1	0	1	-9,231853	274,347783	311,978017	0
15.01.2021	17:19:05	0	0	4,858106	1,932	317,7576	0,445	83,894	0	1016,24	7,2	9,2	8,9	1	1	1	1	1	1	1	1	1	0	1	-11,980268	274,258803	308,813087	0
15.01.2021	17:19:06	0	0	2,937424	1,827	285,5052	0,439	83,873	0	1016,2	7,2	9,1	9,1	1	1	1	1	1	1	1	1	1	0	1	-10,359408	274,261812	310,448027	0
15.01.2021	17:19:07	0	0	3,276377	1,7595	300,7728	0,441	83,877	0	1016,32	7,2	9,1	9	1	1	1	1	1	1	1	1	1	0	1	-8,033827	274,297964	312,94279	0
15.01.2021	17:19:08	0	0	3,954249	1,677	296,1216	0,435	83,876	0	1016,16	7,1	9,2	9	1	1	1	1	1	1	1	1	1	0	1	-8,668076	274,282893	312,238002	0
15.01.2021	17:19:09	0	0	4,858077	1,71975	297,918	0,432	83,883	0	1016,1	7,2	9,1	9	1	1	1	1	1	1	1	1	1	0	1	-4,721635	274,343249	316,467	0
15.01.2021	17:19:10	0	0	2,485528	1,6845	304,9524	0,442	83,863	0	1016,36	7,1	9,2	9	1	1	1	1	1	1	1	1	1	0	1	-9,44327	274,281386	311,455758	0
15.01.2021	17:19:11	0	0	3,276377	1,635	312,4692	0,438	83,884	0	1016,32	7,2	9,2	9	1	1	1	1	1	1	1	1	1	0	1	-11,41649	274,391671	309,998963	0
15.01.2021	17:19:12	0	0	2,485528	1,58625	308,52	0,443	83,883	0	1016,3	7,2	9,1	9	1	1	1	1	1	1	1	1	1	0	1	-9,44327	274,237749	311,251591	0
15.01.2021	17:19:13	0	0	4,519141	1,518	301,2588	0,442	83,889	0	1016,06	7,2	9,1	9	1	1	1	1	1	1	1	1	1	0	1	-8,174771	274,384097	313,205197	0
15.01.2021	17:19:14	0	0	3,050439	1,47975	310,6872	0,433	83,878	0	1016,06	7,2	9,1	8,9	1	1	1	1	1	1	1	1	1	0	1	-11,698379	274,396216	309,738374	0
15.01.2021	17:19:15	0	0	4,406189	1,44975	308,0268	0,433	83,867	0	1016,28	7,2	9,2	8,9	1	1	1	1	1	1	1	1	1	0	1	-8,174771	274,388641	313,226486	0
15.01.2021	17:19:16	0	0	2,937442	1,40775	300,1716	0,447	83,872	0	1016,26	7,1	9,1	9	1	1	1	1	1	1	1	1	1	0	1	-9,936575	274,261812	310,87086	0
15.01.2021	17:19:17	0	0	3,276377	1,3935	309,1752	0,441	83,876	0	1016,44	7,2	9,1	9	1	1	1	1	1	1	1	1	1	0	1	-10,288936	274,432621	311,318433	0
15.01.2021	17:19:18	0	0	4,519141	1,3995	309,2508	0,44	83,887	0	1016,26	7,1	9,2	9	1	1	1	1	1	1	1	1	1	0	1	-8,738548	274,382582	312,634324	0
15.01.2021	17:19:19	0	0	4,519141	1,37175	309,4704	0,436	83,866	0	1016,22	7,2	9,2	9	1	1	1	1	1	1	1	1	1	0	1	-14,235377	274,411376	307,272419	0
15.01.2021	17:19:20	0	0	3,954249	1,46775	309,258	0,438	83,887	0	1016,36	7,2	9,1	9	1	1	1	1	1	1	1	1	1	0	1	-9,795631	274,415927	311,733491	0
15.01.2021	17:19:21	0	0	3,728314	1,50675	299,3724	0,442	83,875	0	1016,26	7,2	9,2	8,9	1	1	1	1	1	1	1	1	1	0	1	-9,302326	274,370471	312,01381	0
15.01.2021	17:19:22	0	0	2,711485	1,49025	303,1776	0,442	83,881	0	1016,26	7,1	9,1	9	1	1	1	1	1	1	1	1	1	0	1	-13,248767	274,444771	308,415561	0
15.01.2021	17:19:23	0	0	2,485528	1,4565	304,686	0,444	83,881	0	1016,26	7,1	9,1	9	1	1	1	1	1	1	1	1	1	0	1	-15,221987	274,376526	306,122511	0
15.01.2021	17:19:24	0	0	4,519168	1,3665	304,9812	0,431	83,875	0	1016,3	7,2	9,1	8,9	1	1	1	1	1	1	1	1	1	0	1	-11,980268	274,426549	309,598638	0
15.01.2021	17:19:25	0	0	2,824463	1,344	293,6844	0,436	83,859	0	1016,06	7,1	9,2	9	1	1	1	1	1	1	1	1	1	0	1	-10,147992	274,391671	311,267462	0
15.01.2021	17:19:26	0	0	2,824463	1,34625	303,2352	0,437	83,875	0	1016,24	7,2	9,2	9	1	1	1	1	1	1	1	1	1	0	1	-9,725159	274,40986	311,77553	0
15.01.2021	17:19:27	0	0	2,711468	1,34475	311,58	0,434	83,864	0	1016,18	7,1	9,1	9,1	1	1	1	1	1	1	1	1	1	0	1	-15,503876	274,275361	305,366958	0
15.01.2021	17:19:28	0	0	3,728314	1,3605	303,426	0,432	83,878	0	1016,12	7,1	9,2	8,9	1	1	1	1	1	1	1	1	1	0	1	-8,45666	274,381068	312,909119	0
15.01.2021	17:19:29	0	0	2,82448	1,398	311,4252	0,441	83,869	0	1016,24	7,2	9,2	8,9	1	1	1	1	1	1	1	1	1	0	1	-14,799154	274,431103	306,801098	0
15.01.2021	17:19:30	0	0	2,711485	1,455	309,2112	0,433	83,872	0	1016,1	7,2	9,1	9	1	1	1	1	1	1	1	1	1	0	1	-9,372798	274,314556	311,681489	0
15.01.2021	17:19:31	0	0	4,180206	1,44675	312,1812	0,437	83,877	0	1016,22	7,2	9,2	9	1	1	1	1	1	1	1	1	1	0	1	-11,768851	274,412893	309,746052	0
15.01.2021	17:19:32	0	0	2,824463	1,45575	312,4512	0,44	83,885	0	1016,2	7,1	9,2	9	1	1	1	1	1	1	1	1	1	0	1	-9,725159	274,31003	311,307938	0
15.01.2021	17:19:33	0	0	4,406189	1,4475	316,7028	0,433	83,871	0	1016,32	7,2	9,1	8,9	1	1	1	1	1	1	1	1	1	0	1	-11,768851	274,425031	309,802941	0
15.01.2021	17:19:34	0	0	2,937442	1,43025	306,9108	0,436	83,863	0	1016,12	7,2	9,1	9	1	1	1	1	1	1	1	1	1	0	1	-6,412967	274,317575	314,655451	0
15.01.2021	17:19:35	0	0	3,163399	1,44825	303,4692	0,432	83,874	0	1016,16	7,2	9,1	9	1	1	1	1	1	1	1	1	1	0	1	-10,570825	274,245266	310,159198	0
15.01.2021	17:19:36	0	0	5,197012	1,45575	296,1144	0,432	83,875	0	1016,24	7,2	9,1	9	1	1	1	1	1	1	1	1	1	0	1	-9,654686	274,276867	311,223195	0
15.01.2021	17:19:37	0	0	2,711485	1,35825	302,9004	0,44	83,877	0	1016,26	7,1	9,1	9	1	1	1	1	1	1	1	1	1	0	1	-8,668076	274,302488	312,329716	0
15.01.2021	17:19:38	0	0	3,841293	1,275	303,9552	0,433	83,864	0	1016,2	7,2	9,2	8,9	1	1	1	1	1	1	1	1	1	0	1	-9,44327	274,379554	311,915414	0
15.01.2021	17:19:39	0	0	3,728292	1,21875	306,4896	0,436	83,875	0	1016,36	7,2	9,1	9	1	1	1	1	1	1	1	1	1	0	1	-8,174771	274,27988	312,717207	0
15.01.2021	17:19:40	0	0	4,519141	1,20225	303,2784	0,441	83,884	0	1016,22	7,2	9,1	9	1	1	1	1	1	1	1	1	1	0	1	-7,963354	274,420478	313,587099	0
15.01.2021	17:19:41	0	0	3,05042	1,21425	299,7972	0,44	83,875	0	1016,24	7,2	9,1	9	1	1	1	1	1	1	1	1	1	0	1	-9,231853	274,35988	312,034673	0
15.01.2021	17:19:42	0	0	4,293184	1,2045	306,1044	0,432	83,885	0	1016,06	7,2	9,1	9	1	1	1	1	1	1	1	1	1	0	1	-8,245243	274,252785	312,519957	0
15.01.2021	17:19:43	0	0	2,82448	1,22925	303,5412	0,436	83,876	0	1016,36	7,2	9,1	8,9	1	1	1	1	1	1	1	1	1	0	1	-9,513742	274,361393	311,759869	0
15.01.2021	17:19:44	0	0	3,502334	1,2675	308,448	0,443	83,889	0	1016,3	7,2	9,1	9	1	1	1	1	1	1	1	1	1	0	1	-8,45666	274,426549	313,122246	0
15.01.2021	17:19:45	0	0	2,711485	1,32675	311,4108	0,436	83,883	0	1016,4	7,2	9,2	9	1	1	1	1	1	1	1	1	1	0	1	-5,919662	274,394701	315,509991	0
15.01.2021	17:19:46	0	0	3,276377	1,28625	309,5424	0,439	83,873	0	1016,26	7,2	9,2	9	1	1	1	1	1	1	1	1	1	0	1	-10,077519	274,381068	311,288259	0
15.01.2021	17:19:47	0	0	2,711501	1,22475	318,4488	0,433	83,888	0	1016,26	7,2	9,1	8,9	1	1	1	1	1	1	1	1	1	0	1	-6,694856	274,251281	314,063308	0
15.01.2021	17:19:48	0	0	3,276377	1,15725	322,1748	0,439	83,881	0	1016,14	7,1	9,2	9	1	1	1	1	1	1	1	1	1	0	1	-10,359408	274,35988	310,907118	0
15.01.2021	17:19:49	0	0	3,502334	1,12575	321,8184	0,438	83,873	0	1016,34	7,1	9,1	9	1	1	1	1	1	1	1	1	1	0	1	-11,980268	274,275361	308,890566	0
15.01.2021	17:19:50	0	0	2,711485	1,101	308,502	0,439	83,878	0	1016,2	7,1	9,1	9	1	1	1	1	1	1	1	1	1	0	1	-9,795631	274,337205	311,3647	0
15.01.2021	17:19:51	0	0	2,937442	1,11975	306,396	0,438	83,874	0	1016,12	7,2	9,2	9	1	1	1	1	1	1	1	1	1	0	1	-8,879493	274,270844	311,970202	0
15.01.2021	17:19:52	0	0	3,615313	1,083	308,8584	0,436	83,875	0	1016,24	7,1	9,2	9	1	1	1	1	1	1	1	1	1	0	1	-11,346018	274,308521	309,680016	0
15.01.2021	17:19:53	0	0	3,163399	1,08225	309,9204	0,436	83,877	0	1016,26	7,2	9,1	9	1	1	1	1	1	1	1	1	1	0	1	-9,231853	274,431103	312,368399	0
15.01.2021	17:19:54	0	0	4,745098	1,05225	303,4692	0,435	83,875	0	1016,2	7,2	9,1	9	1	1	1	1	1	1	1	1	1	0	1	-9,795631	274,316065	311,265721	0
15.01.2021	17:19:55	0	0	4,406163	1,0665	294,4692	0,435	83,884	0	1016,14	7,1	9,2	9	1	1	1	1	1	1	1	1	1	0	1	-13,178295	274,251281	307,579869	0
15.01.2021	17:19:56	0	0	4,406163	1,0485	299,0664	0,436	83,867	0	1016,2	7,2	9,2	9	1	1	1	1	1	1	1	1	1	0	1	-9,44327	274,317575	311,625148	0
15.01.2021	17:19:57	0	0	4,067227	1,068	303,2748	0,44	83,89	0	1016,26	7,2	9,2	9	1	1	1	1	1	1	1	1	1	0	1	-9,725159	274,269338	311,117491	0
15.01.2021	17:19:58	0	0	4,971055	1,053	314,5284	0,431	83,888	0	1016,2	7,2	9,2	9	1	1	1	1	1	1	1	1	1	0	1	-8,879493	274,391671	312,535961	0
15.01.2021	17:19:59	0	0	2,937459	1,029	305,3952	0,431	83,886	0	1016,3	7,2	9,1	8,9	1	1	1	1	1	1	1	1	1	0	1	-11,627907	274,396216	309,808846	0
15.01.2021	17:20:00	0	0	4,63212	1,059	294,0804	0,434	83,889	0	1016,32	7,1	9,2	9	1	1	1	1	1	1	1	1	1	0	1	-11,06413	274,44629	310,607321	0
15.01.2021	17:20:01	0	0	4,63212	1,0425	294,876	0,436	83,872	0	1016,22	7,2	9,2	9	1	1	1	1	1	1	1	1	1	0	1	-9,584214	274,382582	311,788658	0
15.01.2021	17:20:02	0	0	3,728292	1,05075	304,308	0,442	83,879	0	1016,28	7,2	9,1	9	1	1	1	1	1	1	1	1	1	0	1	-9,513742	274,260308	311,286653	0
15.01.2021	17:20:03	0	0	3,954249	1,0515	308,376	0,435	83,872	0	1016,26	7,2	9,2	9	1	1	1	1	1	1	1	1	1	0	1	-9,44327	274,319084	311,632214	0
15.01.2021	17:20:04	0	0	2,937442	1,07175	307,656	0,441	83,887	0	1016,22	7,1	9,1	9	1	1	1	1	1	1	1	1	1	0	1	-10,993658	274,437176	310,635066	0
15.01.2021	17:20:05	0	0	3,84127	1,07325	300,9456	0,439	83,886	0	1016,36	7,2	9,1	9	1	1	1	1	1	1	1	1	1	0	1	-11,275546	274,428066	310,310475	0
15.01.2021	17:20:06	0	0	4,406163	1,0575	293,0436	0,441	83,899	0	1016,2	7,1	9,2	9	1	1	1	1	1	1	1	1	1	0	1	-8,668076	274,435658	312,953528	0
15.01.2021	17:20:07	0	0	4,180206	1,0395	307,6092	0,437	83,882	0	1016,22	7,2	9,2	9	1	1	1	1	1	1	1	1	1	0	1	-10,923185	274,276867	309,954696	0
15.01.2021	17:20:08	0	0	4,406163	0,996	308,8728	0,435	83,885	0	1016,2	7,2	9,2	9	1	1	1	1	1	1	1	1	1	0	1	-6,412967	274,337205	314,747364	0
15.01.2021	17:20:09	0	0	2,937442	0,9585	301,1796	0,439	83,891	0	1016,24	7,1	9,1	9	1	1	1	1	1	1	1	1	1	0	1	-9,44327	274,255794	311,336006	0
15.01.2021	17:20:10	0	0	2,485528	0,95625	298,2384	0,441	83,875	0	1016,36	7,2	9,2	9	1	1	1	1	1	1	1	1	1	0	1	-8,104299	274,313047	312,942924	0
15.01.2021	17:20:11	0	0	3,954249	0,97575	288,8424	0,439	83,881	0	1016,28	7,1	9,2	9	1	1	1	1	1	1	1	1	1	0	1	-11,839323	274,291934	309,10907	0
15.01.2021	17:20:12	0	0	3,615313	0,957	285,2244	0,435	83,871	0	1016,12	7,1	9,2	9	1	1	1	1	1	1	1	1	1	0	1	-14,164905	274,393186	307,257648	0
15.01.2021	17:20:13	0	0	4,858077	0,95175	282,1896	0,436	83,893	0	1016,24	7,2	9,2	9	1	1	1	1	1	1	1	1	1	0	1	-11,839323	274,246769	308,897733	0
15.01.2021	17:20:14	0	0	3,163399	0,90675	299,016	0,438	83,879	0	1016,22	7,1	9,2	9	1	1	1	1	1	1	1	1	1	0	1	-9,654686	274,408343	311,838895	0
15.01.2021	17:20:15	0	0	5,084034	0,92325	310,716	0,437	83,887	0	1016,22	7,2	9,2	9	1	1	1	1	1	1	1	1	1	0	1	-13,883016	274,332673	307,256094	0
15.01.2021	17:20:16	0	0	3,276377	0,909	302,1588	0,443	83,896	0	1016,34	7,2	9,2	9	1	1	1	1	1	1	1	1	1	0	1	-10,993658	274,443252	310,663548	0
15.01.2021	17:20:17	0	0	3,163399	0,996	293,7492	0,431	83,881	0	1016,2	7,2	9,1	9	1	1	1	1	1	1	1	1	1	0	1	-9,090909	274,27988	311,801069	0
15.01.2021	17:20:18	0	0	2,824463	1,02525	301,6404	0,437	83,882	0	1016,26	7,1	9,2	9	1	1	1	1	1	1	1	1	1	0	1	-11,627907	274,299472	309,355768	0
15.01.2021	17:20:19	0	0	4,858077	1,00575	325,152	0,429	83,862	0	1016,12	7,1	9,1	9	1	1	1	1	1	1	1	1	1	0	1	-10,570825	274,402279	310,894338	0
15.01.2021	17:20:20	0	0	3,84127	0,98025	326,394	0,432	83,88	0	1016,3	7,1	9,2	9	1	1	1	1	1	1	1	1	1	0	1	-9,936575	274,31003	311,096521	0
15.01.2021	17:20:21	0	0	4,067227	1,00575	314,8488	0,44	83,878	0	1016,24	7,1	9,2	9	1	1	1	1	1	1	1	1	1	0	1	-10,570825	274,441733	311,079259	0
15.01.2021	17:20:22	0	0	3,84127	1,02525	312,8508	0,438	83,875	0	1016,3	7,2	9,1	9	1	1	1	1	1	1	1	1	1	0	1	-9,372798	274,397732	312,071057	0
15.01.2021	17:20:23	0	0	3,954249	1,01325	321,1956	0,435	83,863	0	1016,16	7,2	9,2	9	1	1	1	1	1	1	1	1	1	0	1	-12,684989	274,305504	308,326922	0
15.01.2021	17:20:24	0	0	2,824463	1,0425	318,1176	0,435	83,875	0	1016,18	7,2	9,2	9	1	1	1	1	1	1	1	1	1	0	1	-12,966878	274,240755	307,742045	0
15.01.2021	17:20:25	0	0	3,615313	1,044	304,974	0,438	83,876	0	1016,18	7,2	9,2	9	1	1	1	1	1	1	1	1	1	0	1	-12,191684	274,313047	308,855539	0
15.01.2021	17:20:26	0	0	3,163399	1,04325	309,5928	0,439	83,881	0	1016,32	7,1	9,2	9	1	1	1	1	1	1	1	1	1	0	1	-11,768851	274,273855	309,094935	0
15.01.2021	17:20:27	0	0	3,84127	1,04625	309,2436	0,434	83,876	0	1016,26	7,2	9,1	9	1	1	1	1	1	1	1	1	1	0	1	-10,923185	274,364419	310,364598	0
15.01.2021	17:20:28	0	0	4,067227	1,07625	303,5376	0,437	83,883	0	1016,18	7,1	9,2	9	1	1	1	1	1	1	1	1	1	0	1	-14,587738	274,27988	306,30424	0
15.01.2021	17:20:29	0	0	3,05042	1,10925	281,0376	0,443	83,877	0	1016,2	7,2	9,2	9	1	1	1	1	1	1	1	1	1	0	1	-8,45666	274,287413	312,470573	0
15.01.2021	17:20:30	0	0	4,293184	1,20975	293,4468	0,443	83,88	0	1016,3	7,1	9,2	9	1	1	1	1	1	1	1	1	1	0	1	-12,614517	274,435658	309,007087	0
15.01.2021	17:20:31	0	0	2,485528	1,2765	293,0112	0,439	83,872	0	1016,28	7,1	9,1	9	1	1	1	1	1	1	1	1	1	0	1	-6,765328	274,296456	314,204232	0
15.01.2021	17:20:32	0	0	2,598506	1,38675	288,792	0,431	83,87	0	1016,14	7,2	9,2	9	1	1	1	1	1	1	1	1	1	0	1	-13,319239	274,437176	308,309484	0
15.01.2021	17:20:33	0	0	2,598506	1,45575	295,1064	0,435	83,886	0	1016,24	7,1	9,1	9	1	1	1	1	1	1	1	1	1	0	1	-8,386187	274,299472	312,597487	0
15.01.2021	17:20:34	0	0	3,502334	1,5405	296,856	0,436	83,861	0	1016,34	7,2	9,1	9	1	1	1	1	1	1	1	1	1	0	1	-10,359408	274,428066	311,226613	0
15.01.2021	17:20:35	0	0	3,163399	1,56825	304,974	0,441	83,881	0	1016,14	7,1	9,2	9	1	1	1	1	1	1	1	1	1	0	1	-11,134602	274,281386	309,764426	0
15.01.2021	17:20:36	0	0	2,937459	1,584	286,6428	0,438	83,878	0	1016,26	7,2	9,2	8,9	1	1	1	1	1	1	1	1	1	0	1	-10,007047	274,400763	311,451012	0
15.01.2021	17:20:37	0	0	4,858077	1,61625	296,1072	0,43	83,869	0	1016,26	7,2	9,2	9	1	1	1	1	1	1	1	1	1	0	1	-13,03735	274,412893	308,477554	0
15.01.2021	17:20:38	0	0	4,406163	1,6275	287,748	0,432	83,888	0	1016,1	7,2	9,2	9	1	1	1	1	1	1	1	1	1	0	1	-10,993658	274,275361	309,877176	0
15.01.2021	17:20:39	0	0	2,937459	1,6215	287,4168	0,441	83,881	0	1016,44	7,1	9,2	8,9	1	1	1	1	1	1	1	1	1	0	1	-14,940099	274,27988	305,95188	0
15.01.2021	17:20:40	0	0	4,971085	1,59975	276,4296	0,436	83,874	0	1016,2	7,2	9,2	8,9	1	1	1	1	1	1	1	1	1	0	1	-9,372798	274,346272	311,829993	0
15.01.2021	17:20:41	0	0	4,293184	1,467	282,762	0,439	83,883	0	1016,18	7,2	9,2	9	1	1	1	1	1	1	1	1	1	0	1	-5,778717	274,437176	315,850006	0
15.01.2021	17:20:42	0	0	4,858077	1,32675	309,5352	0,439	83,882	0	1016,24	7,1	9,2	9	1	1	1	1	1	1	1	1	1	0	1	-4,721635	274,352319	316,509476	0
15.01.2021	17:20:43	0	0	2,372549	1,22325	307,2456	0,441	83,888	0	1016,36	7,1	9,2	9	1	1	1	1	1	1	1	1	1	0	1	-8,527132	274,291934	312,421262	0
15.01.2021	17:20:44	0	0	3,389356	1,14525	299,3796	0,439	83,876	0	1016,3	7,1	9,1	9	1	1	1	1	1	1	1	1	1	0	1	-6,765328	274,278374	314,119602	0
15.01.2021	17:20:45	0	0	2,711485	1,104	295,5276	0,439	83,888	0	1016,1	7,1	9,2	9	1	1	1	1	1	1	1	1	1	0	1	-5,778717	274,34476	315,416995	0
15.01.2021	17:20:46	0	0	4,519141	1,07175	290,4012	0,439	83,889	0	1016,28	7,1	9,2	9	1	1	1	1	1	1	1	1	1	0	1	-8,597604	274,275361	312,27323	0
15.01.2021	17:20:47	0	0	3,389356	1,08225	295,5492	0,434	83,887	0	1016,2	7,2	9,2	9	1	1	1	1	1	1	1	1	1	0	1	-7,610994	274,302488	313,386798	0
15.01.2021	17:20:48	0	0	2,824463	1,14975	296,4888	0,439	83,882	0	1016,2	7,2	9,2	9	1	1	1	1	1	1	1	1	1	0	1	-8,45666	274,450849	313,236164	0
15.01.2021	17:20:49	0	0	4,745098	1,149	315,8532	0,436	83,89	0	1016,24	7,1	9,2	9	1	1	1	1	1	1	1	1	1	0	1	-12,121212	274,382582	309,251661	0
15.01.2021	17:20:50	0	0	4,293184	1,13925	310,6764	0,432	83,882	0	1016,3	7,1	9,2	9	1	1	1	1	1	1	1	1	1	0	1	-11,839323	274,425031	309,732468	0
15.01.2021	17:20:51	0	0	3,163399	1,08	309,888	0,438	83,893	0	1016,42	7,2	9,1	9	1	1	1	1	1	1	1	1	1	0	1	-12,473573	274,275361	308,397261	0
15.01.2021	17:20:52	0	0	2,824463	1,06125	314,9928	0,436	83,88	0	1016,34	7,1	9,1	9	1	1	1	1	1	1	1	1	1	0	1	-7,117689	274,334184	314,028495	0
15.01.2021	17:20:53	0	0	3,84127	1,05675	316,6956	0,435	83,897	0	1016,2	7,2	9,2	9	1	1	1	1	1	1	1	1	1	0	1	-12,544045	274,264822	308,277474	0
15.01.2021	17:20:54	0	0	2,033614	1,089	328,6368	0,438	83,889	0	1016,22	7,1	9,2	9	1	1	1	1	1	1	1	1	1	0	1	-10,852713	274,41441	310,669299	0
15.01.2021	17:20:55	0	0	2,824463	1,0665	322,6608	0,436	83,883	0	1016,46	7,2	9,2	9	1	1	1	1	1	1	1	1	1	0	1	-16,983791	274,428066	304,602229	0
15.01.2021	17:20:56	0	0	2,598506	1,0815	318,7908	0,436	83,883	0	1016,38	7,1	9,1	9	1	1	1	1	1	1	1	1	1	0	1	-10,782241	274,331163	310,349797	0
15.01.2021	17:20:57	0	0	2,937442	1,11975	309,9924	0,439	83,904	0	1016,12	7,1	9,2	9	1	1	1	1	1	1	1	1	1	0	1	-8,386187	274,264822	312,435332	0
15.01.2021	17:20:58	0	0	2,824463	1,22625	310,9968	0,418	83,891	0	1016,26	7,2	9,2	9	1	1	1	1	1	1	1	1	1	0	1	-13,6716	274,255794	307,107676	0
15.01.2021	17:20:59	0	0	2,485528	1,3905	304,632	0,439	83,902	0	1016,14	7,2	9,2	9	1	1	1	1	1	1	1	1	1	0	1	-8,104299	274,402279	313,360863	0
15.01.2021	17:21:00	0	0	4,63212	1,5315	301,5648	0,436	83,911	0	1016,18	7,1	9,1	9	1	1	1	1	1	1	1	1	1	0	1	-9,161381	274,437176	312,467342	0
15.01.2021	17:21:01	0	0	4,63212	1,5315	301,5648	0,436	83,911	0	1016,18	7,1	9,1	9	1	1	1	1	1	1	1	1	1	0	1	-9,654686	274,337205	311,505645	0
15.01.2021	17:21:02	0	0	4,067227	1,51575	302,4684	0,433	83,897	0	1016,22	7,1	9,2	9	1	1	1	1	1	1	1	1	1	0	1	-8,245243	274,429584	313,347893	0
15.01.2021	17:21:03	0	0	3,84127	1,4985	302,3748	0,441	83,897	0	1016,26	7,1	9,2	9	1	1	1	1	1	1	1	1	1	0	1	-10,147992	274,305504	310,86392	0
15.01.2021	17:21:04	0	0	2,824463	1,4895	307,1808	0,438	83,885	0	1016,16	7,1	9,2	9	1	1	1	1	1	1	1	1	1	0	1	-7,540521	274,429584	314,052615	0
15.01.2021	17:21:05	0	0	3,84127	1,59675	312,5016	0,428	83,89	0	1016,28	7,1	9,2	9	1	1	1	1	1	1	1	1	1	0	1	-14,728682	274,394701	306,70097	0
15.01.2021	17:21:06	0	0	4,519141	1,69875	314,388	0,437	83,907	0	1016,3	7,2	9,2	9	1	1	1	1	1	1	1	1	1	0	1	-7,047216	274,390156	314,361139	0
15.01.2021	17:21:07	0	0	4,293184	1,728	315,5544	0,436	83,888	0	1016,24	7,2	9,2	9	1	1	1	1	1	1	1	1	1	0	1	-13,107822	274,278374	307,777107	0
15.01.2021	17:21:08	0	0	4,971055	1,794	304,6392	0,436	83,932	0	1016,44	7,2	9,2	9	1	1	1	1	1	1	1	1	1	0	1	-14,587738	274,332673	306,551372	0
15.01.2021	17:21:09	0	0	3,276377	1,932	297,8784	0,437	83,9	0	1016,18	7,1	9,2	9	1	1	1	1	1	1	1	1	1	0	1	-12,191684	274,428066	309,394336	0
15.01.2021	17:21:10	0	0	3,276377	1,9065	298,6344	0,443	83,901	0	1016,18	7,2	9,2	9	1	1	1	1	1	1	1	1	1	0	1	-7,892882	274,408343	313,6007	0
15.01.2021	17:21:11	0	0	4,519141	1,83225	299,7	0,439	83,896	0	1016,38	7,1	9,2	9	1	1	1	1	1	1	1	1	1	0	1	-8,879493	274,311538	312,160667	0
15.01.2021	17:21:12	0	0	3,276377	1,791	301,1868	0,433	83,882	0	1016,26	7,2	9,2	9	1	1	1	1	1	1	1	1	1	0	1	-6,553911	274,266328	314,274651	0
15.01.2021	17:21:13	0	0	3,954249	1,758	297,8784	0,44	83,899	0	1016,1	7,1	9,2	9	1	1	1	1	1	1	1	1	1	0	1	-9,020437	274,385611	312,366627	0
15.01.2021	17:21:14	0	0	4,406163	1,76775	295,2972	0,436	83,895	0	1016,18	7,1	9,2	9	1	1	1	1	1	1	1	1	1	0	1	-9,44327	274,260308	311,357125	0
15.01.2021	17:21:15	0	0	3,728292	1,73775	303,8616	0,434	83,886	0	1016,32	7,1	9,2	9	1	1	1	1	1	1	1	1	1	0	1	-11,768851	274,40986	309,731837	0
15.01.2021	17:21:16	0	0	4,519141	1,6905	309,5892	0,44	83,901	0	1016,28	7,2	9,2	9	1	1	1	1	1	1	1	1	1	0	1	-11,486963	274,266328	309,3416	0
15.01.2021	17:21:17	0	0	4,63212	1,6515	315,2304	0,429	83,895	0	1016,2	7,1	9,2	9	1	1	1	1	1	1	1	1	1	0	1	-16,349542	274,402279	305,11562	0
15.01.2021	17:21:18	0	0	3,615313	1,677	312,1452	0,438	83,896	0	1016,28	7,1	9,2	9	1	1	1	1	1	1	1	1	1	0	1	-11,909796	274,428066	309,676225	0
15.01.2021	17:21:19	0	0	2,598506	1,6065	315,1512	0,434	83,893	0	1016,22	7,1	9,2	9	1	1	1	1	1	1	1	1	1	0	1	-6,20155	274,276867	314,676331	0
15.01.2021	17:21:20	0	0	2,824463	1,62075	324,7452	0,433	83,885	0	1016,24	7,2	9,2	9	1	1	1	1	1	1	1	1	1	0	1	-8,245243	274,376526	313,099256	0
15.01.2021	17:21:21	0	0	4,745098	1,7175	318,4812	0,437	83,889	0	1016,2	7,2	9,2	9	1	1	1	1	1	1	1	1	1	0	1	-5,778717	274,44629	315,892733	0
15.01.2021	17:21:22	0	0	2,598506	1,75125	314,4636	0,434	83,883	0	1016,18	7,1	9,1	9	1	1	1	1	1	1	1	1	1	0	1	-11,134602	274,373498	310,195714	0
15.01.2021	17:21:23	0	0	2,372549	1,7535	311,7708	0,438	83,885	0	1016,38	7,1	9,2	9	1	1	1	1	1	1	1	1	1	0	1	-6,8358	274,263317	313,978677	0
15.01.2021	17:21:24	0	0	2,711485	1,7385	316,5876	0,437	83,9	0	1016,3	7,1	9,2	9	1	1	1	1	1	1	1	1	1	0	1	-11,980268	274,264822	308,841252	0
15.01.2021	17:21:25	0	0	4,293184	1,8435	320,3928	0,438	83,887	0	1016,22	7,1	9,2	9	1	1	1	1	1	1	1	1	1	0	1	-13,178295	274,317575	307,890123	0
15.01.2021	17:21:26	0	0	4,293184	1,917	320,0652	0,432	83,883	0	1016,22	7,2	9,2	9	1	1	1	1	1	1	1	1	1	0	1	-8,80902	274,261812	311,998415	0
15.01.2021	17:21:27	0	0	4,406163	1,88625	318,42	0,435	83,88	0	1016,3	7,1	9,1	9	1	1	1	1	1	1	1	1	1	0	1	-9,866103	274,326632	311,244722	0
15.01.2021	17:21:28	0	0	3,84127	1,728	317,0484	0,436	83,877	0	1016,32	7,1	9,2	9	1	1	1	1	1	1	1	1	1	0	1	-10,007047	274,242259	310,708908	0
15.01.2021	17:21:29	0	0	4,63212	1,641	326,7468	0,433	83,881	0	1016,12	7,2	9,2	9	1	1	1	1	1	1	1	1	1	0	1	-5,919662	274,35988	315,346865	0
15.01.2021	17:21:30	0	0	3,615313	1,563	322,2648	0,436	83,869	0	1016,2	7,1	9,2	9	1	1	1	1	1	1	1	1	1	0	1	-16,560958	274,428066	305,025062	0
15.01.2021	17:21:31	0	0	2,598506	1,5555	317,4336	0,433	83,871	0	1016,24	7,1	9,2	9	1	1	1	1	1	1	1	1	1	0	1	-10,711769	274,428066	310,874252	0
15.01.2021	17:21:32	0	0	2,711485	1,5675	309,402	0,437	83,878	0	1016,36	7,2	9,2	9	1	1	1	1	1	1	1	1	1	0	1	-11,768851	274,400763	309,689208	0
15.01.2021	17:21:33	0	0	4,067227	1,44	334,2168	0,433	83,889	0	1016,3	7,2	9,2	9	1	1	1	1	1	1	1	1	1	0	1	-8,80902	274,382582	312,563852	0
15.01.2021	17:21:34	0	0	3,615313	1,368	314,802	0,437	83,888	0	1016,34	7,1	9,2	9	1	1	1	1	1	1	1	1	1	0	1	-9,090909	274,443252	312,566296	0
15.01.2021	17:21:35	0	0	5,197012	1,2795	300,8736	0,428	83,868	0	1016,26	7,1	9,2	9	1	1	1	1	1	1	1	1	1	0	1	-10,42988	274,444771	311,234447	0
15.01.2021	17:21:36	0	0	3,954249	1,2615	306,864	0,434	83,853	0	1016,04	7,1	9,2	9	1	1	1	1	1	1	1	1	1	0	1	-10,711769	274,331163	310,420269	0
15.01.2021	17:21:37	0	0	2,824463	1,29	309,2616	0,433	83,869	0	1016,32	7,1	9,2	9	1	1	1	1	1	1	1	1	1	0	1	-7,82241	274,278374	313,062519	0
15.01.2021	17:21:38	0	0	3,615313	1,32375	306,8496	0,434	83,875	0	1016,28	7,1	9,2	9	1	1	1	1	1	1	1	1	1	0	1	-10,852713	274,428066	310,733308	0
15.01.2021	17:21:39	0	0	2,598506	1,317	299,7216	0,433	83,869	0	1016,22	7,1	9,2	9	1	1	1	1	1	1	1	1	1	0	1	-8,104299	274,270844	312,745396	0
15.01.2021	17:21:40	0	0	3,954249	1,341	306,8316	0,43	83,877	0	1016,34	7,1	9,2	9	1	1	1	1	1	1	1	1	1	0	1	-14,094433	274,311538	306,945727	0
15.01.2021	17:21:41	0	0	2,937442	1,3395	306,8424	0,434	83,872	0	1016,36	7,1	9,2	9	1	1	1	1	1	1	1	1	1	0	1	-10,570825	274,425031	311,000967	0
15.01.2021	17:21:42	0	0	4,745098	1,3065	311,0148	0,435	83,885	0	1016,34	7,1	9,2	9	1	1	1	1	1	1	1	1	1	0	1	-13,812544	274,429584	307,780592	0
15.01.2021	17:21:43	0	0	4,180206	1,2645	303,282	0,431	83,875	0	1016,28	7,2	9,2	9	1	1	1	1	1	1	1	1	1	0	1	-8,245243	274,371985	313,077982	0
15.01.2021	17:21:44	0	0	2,937442	1,302	300,51	0,435	83,885	0	1016,22	7,1	9,2	9	1	1	1	1	1	1	1	1	1	0	1	-9,584214	274,254289	311,188023	0
15.01.2021	17:21:45	0	0	3,389356	1,31925	307,206	0,436	83,884	0	1016,3	7,1	9,2	9	1	1	1	1	1	1	1	1	1	0	1	-10,218464	274,322103	310,871155	0
15.01.2021	17:21:46	0	0	3,728292	1,293	308,8512	0,435	83,875	0	1016,28	7,1	9,1	9	1	1	1	1	1	1	1	1	1	0	1	-8,949965	274,261812	311,857471	0
15.01.2021	17:21:47	0	0	4,971055	1,26075	306,5436	0,43	83,874	0	1016,28	7,1	9,2	9	1	1	1	1	1	1	1	1	1	0	1	-7,82241	274,390156	313,585945	0
15.01.2021	17:21:48	0	0	4,63212	1,22925	300,8556	0,432	83,877	0	1016,04	7,1	9,2	9	1	1	1	1	1	1	1	1	1	0	1	-8,80902	274,441733	312,841063	0
15.01.2021	17:21:49	0	0	2,598506	1,20675	303,9696	0,431	83,846	0	1016,2	7,1	9,1	9	1	1	1	1	1	1	1	1	1	0	1	-8,315715	274,326632	312,79511	0
15.01.2021	17:21:50	0	0	4,293184	1,2045	301,68	0,436	83,88	0	1016,28	7,1	9,2	9	1	1	1	1	1	1	1	1	1	0	1	-9,725159	274,269338	311,117491	0
15.01.2021	17:21:51	0	0	4,519141	1,2315	289,2312	0,435	83,876	0	1016,28	7,1	9,2	9	1	1	1	1	1	1	1	1	1	0	1	-9,161381	274,302488	311,836411	0
15.01.2021	17:21:52	0	0	3,615313	1,3275	294,8508	0,432	83,875	0	1016,08	7,1	9,2	9	1	1	1	1	1	1	1	1	1	0	1	-9,584214	274,328142	311,533681	0
15.01.2021	17:21:53	0	0	4,293184	1,368	305,3304	0,431	83,877	0	1016,3	7,1	9,2	9	1	1	1	1	1	1	1	1	1	0	1	-13,460183	274,441733	308,189901	0
15.01.2021	17:21:54	0	0	2,598506	1,3605	310,0428	0,436	83,888	0	1016,04	7,1	9,2	9	1	1	1	1	1	1	1	1	1	0	1	-8,033827	274,397732	313,410028	0
15.01.2021	17:21:55	0	0	3,954249	1,29375	307,224	0,437	83,89	0	1016,34	7,1	9,2	9	1	1	1	1	1	1	1	1	1	0	1	-10,288936	274,273855	310,574851	0
15.01.2021	17:21:56	0	0	2,937442	1,17975	307,26	0,428	83,883	0	1016,22	7,1	9,1	9	1	1	1	1	1	1	1	1	1	0	1	-11,627907	274,365932	309,666964	0
15.01.2021	17:21:57	0	0	4,067227	1,1445	298,6992	0,435	83,88	0	1016,28	7,1	9,2	9	1	1	1	1	1	1	1	1	1	0	1	-11,698379	274,437176	309,930344	0
15.01.2021	17:21:58	0	0	2,598506	1,0665	284,7636	0,429	83,872	0	1016,38	7,1	9,2	9	1	1	1	1	1	1	1	1	1	0	1	-8,315715	274,459969	313,419872	0
15.01.2021	17:21:59	0	0	2,824463	1,0635	285,5988	0,432	83,87	0	1016,16	7,1	9,2	9	1	1	1	1	1	1	1	1	1	0	1	-11,557435	274,387126	309,836725	0
15.01.2021	17:22:00	0	0	4,745098	1,0545	305,0208	0,427	83,888	0	1016,44	7,1	9,2	9	1	1	1	1	1	1	1	1	1	0	1	-8,104299	274,437176	313,524425	0
15.01.2021	17:22:01	0	0	3,163399	1,0935	299,8404	0,43	83,882	0	1016,16	7,1	9,1	9	1	1	1	1	1	1	1	1	1	0	1	-9,513742	274,405311	311,965629	0
15.01.2021	17:22:02	0	0	4,63212	1,19625	300,0888	0,431	83,869	0	1016,46	7,1	9,2	9	1	1	1	1	1	1	1	1	1	0	1	-10,993658	274,27235	309,863083	0
15.01.2021	17:22:03	0	0	2,824463	1,24425	311,7744	0,435	83,893	0	1016,24	7,1	9,2	9	1	1	1	1	1	1	1	1	1	0	1	-8,879493	274,31003	312,153604	0
15.01.2021	17:22:04	0	0	4,745098	1,251	305,4528	0,434	83,885	0	1016,2	7,1	9,2	9	1	1	1	1	1	1	1	1	1	0	1	-8,597604	274,293441	312,357844	0
15.01.2021	17:22:05	0	0	3,728292	1,29225	303,5736	0,436	83,887	0	1016,18	7,1	9,2	9	1	1	1	1	1	1	1	1	1	0	1	-10,782241	274,437176	310,846482	0
15.01.2021	17:22:06	0	0	3,389356	1,28925	303,5196	0,43	83,874	0	1016,3	7,1	9,2	9	1	1	1	1	1	1	1	1	1	0	1	-12,896406	274,367445	308,405552	0
15.01.2021	17:22:07	0	0	4,745098	1,305	306,504	0,438	83,889	0	1016,24	7,1	9,2	9	1	1	1	1	1	1	1	1	1	0	1	-8,527132	274,432621	313,080237	0
15.01.2021	17:22:08	0	0	4,63212	1,305	303,2064	0,432	83,898	0	1016,24	7,1	9,2	9	1	1	1	1	1	1	1	1	1	0	1	-12,191684	274,373498	309,138632	0
15.01.2021	17:22:09	0	0	4,180206	1,3245	309,3048	0,434	83,886	0	1016,28	7,2	9,2	9	1	1	1	1	1	1	1	1	1	0	1	-3,453136	274,449329	318,232562	0
15.01.2021	17:22:10	0	0	4,293184	1,34925	312,5232	0,433	83,888	0	1016,2	7,1	9,2	9	1	1	1	1	1	1	1	1	1	0	1	-13,460183	274,30098	307,53055	0
15.01.2021	17:22:11	0	0	4,180206	1,29675	302,1084	0,43	83,877	0	1016,18	7,1	9,2	9	1	1	1	1	1	1	1	1	1	0	1	-8,315715	274,440214	313,327248	0
15.01.2021	17:22:12	0	0	4,971055	1,31775	306,198	0,431	83,88	0	1016,2	7,1	9,2	9	1	1	1	1	1	1	1	1	1	0	1	-10,852713	274,441733	310,797371	0
15.01.2021	17:22:13	0	0	4,519141	1,3215	304,2432	0,432	83,868	0	1016,26	7,1	9,2	9	1	1	1	1	1	1	1	1	1	0	1	-10,42988	274,428066	311,156141	0
15.01.2021	17:22:14	0	0	4,745098	1,37025	306,8604	0,432	83,882	0	1016,08	7,1	9,2	9	1	1	1	1	1	1	1	1	1	0	1	-8,386187	274,41441	313,135825	0
15.01.2021	17:22:15	0	0	3,163399	1,407	311,8104	0,434	83,898	0	1016,34	7,1	9,2	9	1	1	1	1	1	1	1	1	1	0	1	-9,090909	274,317575	311,977508	0
15.01.2021	17:22:16	0	0	3,954249	1,395	310,0248	0,433	83,898	0	1016,24	7,1	9,2	9	1	1	1	1	1	1	1	1	1	0	1	-10,218464	274,441733	311,43162	0
15.01.2021	17:22:17	0	0	2,824463	1,446	304,2792	0,435	83,891	0	1016,3	7,2	9,2	9	1	1	1	1	1	1	1	1	1	0	1	-9,090909	274,267833	311,744697	0
15.01.2021	17:22:18	0	0	3,163399	1,536	297,954	0,444	83,89	0	1016,22	7,2	9,2	9	1	1	1	1	1	1	1	1	1	0	1	-10,570825	274,423513	310,993854	0
15.01.2021	17:22:19	0	0	4,067227	1,788	285,8724	0,432	83,877	0	1016,24	7,1	9,2	9	1	1	1	1	1	1	1	1	1	0	1	-10,711769	274,411376	310,796027	0
15.01.2021	17:22:20	0	0	3,163399	1,93725	299,4264	0,431	83,898	0	1016,18	7,1	9,2	9	1	1	1	1	1	1	1	1	1	0	1	-11,134602	274,30098	309,856131	0
15.01.2021	17:22:21	0	0	3,954249	1,938	293,742	0,433	83,868	0	1016,22	7,2	9,2	9	1	1	1	1	1	1	1	1	1	0	1	-10,711769	274,263317	310,102708	0
15.01.2021	17:22:22	0	0	4,406163	1,83225	303,9156	0,435	83,89	0	1016,34	7,2	9,2	9	1	1	1	1	1	1	1	1	1	0	1	-11,557435	274,388641	309,843822	0
15.01.2021	17:22:23	0	0	2,259571	1,6815	313,614	0,435	83,892	0	1016,28	7,1	9,1	9	1	1	1	1	1	1	1	1	1	0	1	-9,795631	274,441733	311,854453	0
15.01.2021	17:22:24	0	0	4,63212	1,56375	324,072	0,427	83,87	0	1016,2	7,2	9,2	9	1	1	1	1	1	1	1	1	1	0	1	-9,936575	274,382582	311,436298	0
15.01.2021	17:22:25	0	0	3,389356	1,50375	326,3652	0,428	83,878	0	1016,06	7,1	9,1	9	1	1	1	1	1	1	1	1	1	0	1	-10,359408	274,466052	311,404702	0
15.01.2021	17:22:26	0	0	4,519141	1,4445	326,3796	0,435	83,882	0	1016,26	7,1	9,2	9	1	1	1	1	1	1	1	1	1	0	1	-9,936575	274,396216	311,500178	0
15.01.2021	17:22:27	0	0	2,711485	1,449	314,4492	0,43	83,881	0	1016,08	7,2	9,2	9	1	1	1	1	1	1	1	1	1	0	1	-6,483439	274,276867	314,394442	0
15.01.2021	17:22:28	0	0	4,406163	1,4295	303,8724	0,429	83,882	0	1016,3	7,1	9,2	9	1	1	1	1	1	1	1	1	1	0	1	-13,178295	274,319084	307,897189	0
15.01.2021	17:22:29	0	0	3,389356	1,50225	306,4068	0,435	83,886	0	1016,44	7,2	9,1	9	1	1	1	1	1	1	1	1	1	0	1	-12,262156	274,429584	309,33098	0
15.01.2021	17:22:30	0	0	3,276377	1,6635	302,0976	0,433	83,875	0	1016,26	7,1	9,2	9	1	1	1	1	1	1	1	1	1	0	1	-10,782241	274,432621	310,825128	0
15.01.2021	17:22:31	0	0	3,276377	1,85325	311,5008	0,432	83,859	0	1016,24	7,1	9,2	9	1	1	1	1	1	1	1	1	1	0	1	-8,668076	274,40986	312,832612	0
15.01.2021	17:22:32	0	0	3,728292	2,22375	309,744	0,431	83,866	0	1016,28	7,2	9,1	9	1	1	1	1	1	1	1	1	1	0	1	-9,654686	274,429584	311,93845	0
15.01.2021	17:22:33	0	0	2,598506	2,40975	312,4584	0,431	83,859	0	1016,16	7,1	9,2	9	1	1	1	1	1	1	1	1	1	0	1	-6,342495	274,371985	314,980731	0
15.01.2021	17:22:34	0	0	4,971055	2,397	310,6404	0,425	83,857	0	1016,18	7,1	9,2	9	1	1	1	1	1	1	1	1	1	0	1	-13,03735	274,267833	307,798256	0
15.01.2021	17:22:35	0	0	5,422969	2,2695	296,4636	0,438	83,87	0	1016,3	7,1	9,2	9	1	1	1	1	1	1	1	1	1	0	1	-6,976744	274,443252	314,680461	0
15.01.2021	17:22:36	0	0	3,84127	2,26575	297,2016	0,432	83,86	0	1016,18	7,1	9,2	9	1	1	1	1	1	1	1	1	1	0	1	-9,372798	274,393186	312,049755	0
15.01.2021	17:22:37	0	0	4,858077	2,4945	288,8388	0,436	83,872	0	1016,3	7,1	9,2	9	1	1	1	1	1	1	1	1	1	0	1	-9,936575	274,456929	311,784755	0
15.01.2021	17:22:38	0	0	4,519141	2,5275	297,45	0,431	83,867	0	1016,24	7,1	9,1	9	1	1	1	1	1	1	1	1	1	0	1	-7,540521	274,328142	313,577374	0
15.01.2021	17:22:39	0	0	4,406163	2,55525	294,1236	0,424	83,86	0	1016,1	7,1	9,1	9	1	1	1	1	1	1	1	1	1	0	1	-9,090909	274,440214	312,552054	0
15.01.2021	17:22:40	0	0	3,276377	2,46225	295,488	0,43	83,842	0	1016,34	7,1	9,2	9	1	1	1	1	1	1	1	1	1	0	1	-10,641297	274,352319	310,589814	0
15.01.2021	17:22:41	0	0	4,519141	2,3655	310,3308	0,432	83,873	0	1016,3	7,1	9,2	9	1	1	1	1	1	1	1	1	1	0	1	-9,584214	274,275361	311,286619	0
15.01.2021	17:22:42	0	0	3,276377	2,19975	293,3496	0,431	83,866	0	1016,24	7,1	9,1	9	1	1	1	1	1	1	1	1	1	0	1	-8,315715	274,373498	313,014601	0
15.01.2021	17:22:43	0	0	3,615313	2,04975	309,1752	0,43	83,867	0	1016,36	7,1	9,2	9	1	1	1	1	1	1	1	1	1	0	1	-7,329105	274,27235	313,527635	0
15.01.2021	17:22:44	0	0	2,598506	2,0175	314,442	0,43	83,846	0	1016,28	7,1	9,2	9	1	1	1	1	1	1	1	1	1	0	1	-9,936575	274,346272	311,266216	0
15.01.2021	17:22:45	0	0	4,519141	2,0625	316,6776	0,432	83,885	0	1016,42	7,2	9,2	9	1	1	1	1	1	1	1	1	1	0	1	-11,768851	274,440214	309,874112	0
15.01.2021	17:22:46	0	0	4,293184	1,959	319,1796	0,432	83,842	0	1016,16	7,1	9,1	9	1	1	1	1	1	1	1	1	1	0	1	-9,584214	274,317575	311,484203	0
15.01.2021	17:22:47	0	0	3,276377	2,031	312,1848	0,431	83,836	0	1016,3	7,1	9,1	9	1	1	1	1	1	1	1	1	1	0	1	-12,473573	274,426549	309,105333	0
15.01.2021	17:22:48	0	0	3,615313	2,3475	336,4092	0,425	83,835	0	1016,16	7,1	9,2	9	1	1	1	1	1	1	1	1	1	0	1	-9,654686	274,267833	311,180919	0
15.01.2021	17:22:49	0	0	3,389356	2,4705	327,8556	0,43	83,846	0	1016,32	7,1	9,2	9	1	1	1	1	1	1	1	1	1	0	1	-9,372798	274,387126	312,021362	0
15.01.2021	17:22:50	0	0	2,937442	2,4885	339,1596	0,432	83,836	0	1016,18	7,1	9,2	9	1	1	1	1	1	1	1	1	1	0	1	-11,346018	274,44781	310,332556	0
15.01.2021	17:22:51	0	0	4,519141	2,448	342,072	0,436	83,85	0	1016,2	7,1	9,1	9	1	1	1	1	1	1	1	1	1	0	1	-8,245243	274,346272	312,957548	0
15.01.2021	17:22:52	0	0	2,711485	2,301	344,4336	0,432	83,839	0	1016,38	7,1	9,2	9	1	1	1	1	1	1	1	1	1	0	1	-8,738548	274,264822	312,082971	0
15.01.2021	17:22:53	0	0	3,615313	1,9845	330,138	0,43	83,846	0	1016,2	7,1	9,2	9	1	1	1	1	1	1	1	1	1	0	1	-6,272023	274,390156	315,136333	0
15.01.2021	17:22:54	0	0	4,63212	1,7955	327,1932	0,432	83,838	0	1016,24	7,2	9,2	9	1	1	1	1	1	1	1	1	1	0	1	-10,218464	274,449329	311,467235	0
15.01.2021	17:22:55	0	0	2,598506	1,68	323,6508	0,427	83,838	0	1016,28	7,1	9,2	9	1	1	1	1	1	1	1	1	1	0	1	-10,570825	274,331163	310,561214	0
15.01.2021	17:22:56	0	0	4,406163	1,635	327,4092	0,428	83,82	0	1016,24	7,1	9,2	9	1	1	1	1	1	1	1	1	1	0	1	-11,275546	274,432621	310,331823	0
15.01.2021	17:22:57	0	0	4,63212	1,491	315,5148	0,426	83,826	0	1016,3	7,1	9,2	9	1	1	1	1	1	1	1	1	1	0	1	-10,711769	274,368958	310,597278	0
15.01.2021	17:22:58	0	0	2,598506	1,4955	297,9072	0,431	83,843	0	1016,28	7,1	9,1	9	1	1	1	1	1	1	1	1	1	0	1	-8,738548	274,261812	312,068887	0
15.01.2021	17:22:59	0	0	2,598506	1,38975	334,854	0,432	83,816	0	1016,2	7,2	9,2	9	1	1	1	1	1	1	1	1	1	0	1	-6,131078	274,328142	314,986817	0
15.01.2021	17:23:00	0	0	3,615313	1,176	332,0208	0,429	83,826	0	1016,22	7,1	9,1	9	1	1	1	1	1	1	1	1	1	0	1	-10,923185	274,440214	310,719778	0
15.01.2021	17:23:01	0	0	3,615313	1,176	332,0208	0,429	83,826	0	1016,22	7,1	9,1	9	1	1	1	1	1	1	1	1	1	0	1	-7,470049	274,368958	313,838997	0
15.01.2021	17:23:02	0	0	4,858077	1,1085	343,4832	0,427	83,823	0	1016,12	7,1	9,2	9	1	1	1	1	1	1	1	1	1	0	1	-12,262156	274,434139	309,35233	0
15.01.2021	17:23:03	0	0	3,163399	1,08075	335,016	0,43	83,832	0	1016,3	7,1	9,2	9	1	1	1	1	1	1	1	1	1	0	1	-13,248767	274,329652	307,8762	0
15.01.2021	17:23:04	0	0	3,163399	1,032	324,4068	0,426	83,836	0	1016,32	7,1	9,2	9	1	1	1	1	1	1	1	1	1	0	1	-8,668076	274,302488	312,329716	0
15.01.2021	17:23:05	0	0	4,067227	1,03575	325,584	0,423	83,816	0	1016,14	7,2	9,2	9	1	1	1	1	1	1	1	1	1	0	1	-9,090909	274,435658	312,530695	0
15.01.2021	17:23:06	0	0	3,502334	1,05975	334,2168	0,431	83,824	0	1016,26	7,1	9,2	9	1	1	1	1	1	1	1	1	1	0	1	-8,668076	274,322103	312,421542	0
15.01.2021	17:23:07	0	0	3,276377	1,11225	336,0348	0,429	83,825	0	1016,22	7,1	9,2	9	1	1	1	1	1	1	1	1	1	0	1	-14,023961	274,444771	307,640367	0
15.01.2021	17:23:08	0	0	3,728292	1,0995	336,87	0,429	83,823	0	1016,32	7,1	9,2	9	1	1	1	1	1	1	1	1	1	0	1	-12,05074	274,411376	309,457056	0
15.01.2021	17:23:09	0	0	2,937442	1,16775	331,6104	0,428	83,82	0	1016,24	7,1	9,2	9	1	1	1	1	1	1	1	1	1	0	1	-7,540521	274,387126	313,853639	0
15.01.2021	17:23:10	0	0	3,163399	1,2	332,7408	0,427	83,816	0	1016,12	7,1	9,2	9	1	1	1	1	1	1	1	1	1	0	1	-12,05074	274,257298	308,735575	0
15.01.2021	17:23:11	0	0	2,598506	1,188	315,2844	0,432	83,829	0	1016,18	7,1	9,2	9	1	1	1	1	1	1	1	1	1	0	1	-9,936575	274,31003	311,096521	0
15.01.2021	17:23:12	0	0	3,728292	1,182	308,1096	0,432	83,831	0	1016,3	7,1	9,2	9	1	1	1	1	1	1	1	1	1	0	1	-10,359408	274,275361	310,511426	0
15.01.2021	17:23:13	0	0	3,163399	1,1985	325,1088	0,428	83,813	0	1016,14	7,1	9,2	9	1	1	1	1	1	1	1	1	1	0	1	-9,513742	274,319084	311,561742	0
15.01.2021	17:23:14	0	0	3,276377	1,16475	317,7576	0,424	83,79	0	1016,1	7,1	9,2	9	1	1	1	1	1	1	1	1	1	0	1	-12,825934	274,44629	308,845517	0
15.01.2021	17:23:15	0	0	2,824463	1,15125	309,5568	0,435	83,828	0	1016,26	7,1	9,2	9	1	1	1	1	1	1	1	1	1	0	1	-15,926709	274,254289	304,845529	0
15.01.2021	17:23:16	0	0	3,615313	1,20375	332,8128	0,427	83,816	0	1016,28	7,1	9,2	9	1	1	1	1	1	1	1	1	1	0	1	-6,553911	274,314556	314,500376	0
15.01.2021	17:23:17	0	0	3,05042	1,29	342,7488	0,424	83,823	0	1016,22	7,1	9,2	9	1	1	1	1	1	1	1	1	1	0	1	-7,963354	274,281386	312,935673	0
15.01.2021	17:23:18	0	0	4,406163	1,35225	315,9036	0,437	83,818	0	1016,2	7,1	9,2	9	1	1	1	1	1	1	1	1	1	0	1	-9,302326	274,297964	311,674291	0
15.01.2021	17:23:19	0	0	2,937442	1,30425	324,4104	0,432	83,812	0	1016,24	7,1	9,2	9	1	1	1	1	1	1	1	1	1	0	1	-8,597604	274,443252	313,059601	0
15.01.2021	17:23:20	0	0	3,84127	1,3335	316,5804	0,431	83,82	0	1016,36	7,1	9,2	9	1	1	1	1	1	1	1	1	1	0	1	-10,359408	274,305504	310,652504	0
15.01.2021	17:23:21	0	0	3,163399	1,3425	331,4916	0,434	83,816	0	1016,28	7,1	9,1	9	1	1	1	1	1	1	1	1	1	0	1	-12,191684	274,391671	309,223769	0
15.01.2021	17:23:22	0	0	2,146592	1,38225	317,3904	0,431	83,82	0	1016,36	7,1	9,1	9	1	1	1	1	1	1	1	1	1	0	1	-5,919662	274,267833	314,915944	0
15.01.2021	17:23:23	0	0	4,180206	1,48275	312,7824	0,43	83,84	0	1016,12	7,1	9,1	9	1	1	1	1	1	1	1	1	1	0	1	-11,134602	274,316065	309,92675	0
15.01.2021	17:23:24	0	0	3,163399	1,47525	325,944	0,429	83,825	0	1016,26	7,1	9,2	9	1	1	1	1	1	1	1	1	1	0	1	-11,909796	274,384097	309,470172	0
15.01.2021	17:23:25	0	0	3,05042	1,43025	308,106	0,432	83,833	0	1016,32	7,1	9,2	9	1	1	1	1	1	1	1	1	1	0	1	-7,047216	274,260308	313,753178	0
15.01.2021	17:23:26	0	0	2,598506	1,452	318,1212	0,43	83,839	0	1016,32	7,1	9,2	9	1	1	1	1	1	1	1	1	1	0	1	-13,742072	274,376526	307,602427	0
15.01.2021	17:23:27	0	0	3,163399	1,49775	314,856	0,433	83,825	0	1016,22	7,1	9,2	9	1	1	1	1	1	1	1	1	1	0	1	-10,077519	274,444771	311,586808	0
15.01.2021	17:23:28	0	0	4,745098	1,464	311,3532	0,431	83,838	0	1016,28	7,1	9,1	9	1	1	1	1	1	1	1	1	1	0	1	-11,909796	274,417444	309,626436	0
15.01.2021	17:23:29	0	0	3,728292	1,40475	311,7852	0,436	83,834	0	1016,26	7,1	9,2	9	1	1	1	1	1	1	1	1	1	0	1	-12,403101	274,331163	308,728937	0
15.01.2021	17:23:30	0	0	5,422969	1,3545	309,2976	0,431	83,839	0	1016,36	7,1	9,2	9	1	1	1	1	1	1	1	1	1	0	1	-10,570825	274,412893	310,944079	0
15.01.2021	17:23:31	0	0	4,293184	1,35825	309,2184	0,431	83,841	0	1016,3	7,1	9,1	9	1	1	1	1	1	1	1	1	1	0	1	-15,081043	274,27235	305,775698	0
15.01.2021	17:23:32	0	0	3,84127	1,33425	296,082	0,434	83,834	0	1016,3	7,1	9,2	9	1	1	1	1	1	1	1	1	1	0	1	-11,41649	274,347783	309,79338	0
15.01.2021	17:23:33	0	0	4,067227	1,31325	303,192	0,424	83,815	0	1016,18	7,1	9,2	9	1	1	1	1	1	1	1	1	1	0	1	-9,513742	274,443252	312,143463	0
15.01.2021	17:23:34	0	0	4,293184	1,31325	306,432	0,429	83,83	0	1016,16	7,1	9,2	9	1	1	1	1	1	1	1	1	1	0	1	-11,909796	274,388641	309,491462	0
15.01.2021	17:23:35	0	0	2,937442	1,30425	307,2348	0,434	83,841	0	1016,24	7,1	9,2	9	1	1	1	1	1	1	1	1	1	0	1	-7,963354	274,449329	313,722344	0
15.01.2021	17:23:36	0	0	2,711485	1,26	316,9692	0,43	83,827	0	1016,28	7,1	9,2	9	1	1	1	1	1	1	1	1	1	0	1	-12,403101	274,379554	308,955584	0
15.01.2021	17:23:37	0	0	3,954249	1,17825	303,8436	0,432	83,842	0	1016,2	7,1	9,1	9	1	1	1	1	1	1	1	1	1	0	1	-6,342495	274,27235	314,514246	0
15.01.2021	17:23:38	0	0	3,389356	1,1805	300,7908	0,433	83,833	0	1016,28	7,1	9,2	9	1	1	1	1	1	1	1	1	1	0	1	-11,839323	274,31003	309,193773	0
15.01.2021	17:23:39	0	0	2,937442	1,31175	311,3568	0,434	83,838	0	1016,24	7,1	9,2	9	1	1	1	1	1	1	1	1	1	0	1	-10,782241	274,331163	310,349797	0
15.01.2021	17:23:40	0	0	3,84127	1,39425	319,1652	0,426	83,838	0	1016,22	7,1	9,2	9	1	1	1	1	1	1	1	1	1	0	1	-8,45666	274,437176	313,172064	0
15.01.2021	17:23:41	0	0	4,406163	1,38525	315,8316	0,423	83,826	0	1016,18	7,1	9,1	9	1	1	1	1	1	1	1	1	1	0	1	-13,03735	274,352319	308,193761	0
15.01.2021	17:23:42	0	0	4,406163	1,40325	302,778	0,429	83,827	0	1016,28	7,1	9,2	9	1	1	1	1	1	1	1	1	1	0	1	-8,80902	274,441733	312,841063	0
15.01.2021	17:23:43	0	0	4,63212	1,46175	310,3056	0,43	83,846	0	1016,36	7,1	9,2	9	1	1	1	1	1	1	1	1	1	0	1	-8,668076	274,326632	312,442749	0
15.01.2021	17:23:44	0	0	2,598506	1,45425	305,7408	0,433	83,837	0	1016,26	7,1	9,2	9	1	1	1	1	1	1	1	1	1	0	1	-9,161381	274,434139	312,453105	0
15.01.2021	17:23:45	0	0	4,63212	1,3605	306,4464	0,429	83,84	0	1016,34	7,1	9,2	9	1	1	1	1	1	1	1	1	1	0	1	-10,923185	274,400763	310,534874	0
15.01.2021	17:23:46	0	0	3,276377	1,233	299,4156	0,429	83,845	0	1016,28	7,1	9,2	9	1	1	1	1	1	1	1	1	1	0	1	-8,245243	274,408343	313,248339	0
15.01.2021	17:23:47	0	0	4,519141	1,194	303,2604	0,427	83,848	0	1016,28	7,1	9,2	9	1	1	1	1	1	1	1	1	1	0	1	-12,614517	274,27988	308,277461	0
15.01.2021	17:23:48	0	0	3,05042	1,19475	305,3052	0,433	83,841	0	1016,2	7,1	9,1	9	1	1	1	1	1	1	1	1	1	0	1	-13,107822	274,328142	308,010073	0
15.01.2021	17:23:49	0	0	4,293184	1,1385	306,7812	0,427	83,85	0	1016,28	7,1	9,2	9	1	1	1	1	1	1	1	1	1	0	1	-15,151515	274,450849	306,541308	0
15.01.2021	17:23:50	0	0	3,728292	1,143	310,6548	0,429	83,842	0	1016,34	7,1	9,1	9	1	1	1	1	1	1	1	1	1	0	1	-13,6716	274,41441	307,850413	0
15.01.2021	17:23:51	0	0	3,728292	1,143	313,974	0,433	83,849	0	1016,22	7,1	9,1	9	1	1	1	1	1	1	1	1	1	0	1	-7,751938	274,291934	313,196455	0
15.01.2021	17:23:52	0	0	3,05042	1,0575	316,242	0,432	83,842	0	1016,26	7,1	9,1	9	1	1	1	1	1	1	1	1	1	0	1	-9,725159	274,291934	311,223235	0
15.01.2021	17:23:53	0	0	3,84127	1,01475	302,5296	0,43	83,836	0	1016,32	7,1	9,2	9	1	1	1	1	1	1	1	1	1	0	1	-13,812544	274,396216	307,624209	0
15.01.2021	17:23:54	0	0	4,180206	0,92925	300,8844	0,432	83,846	0	1016,4	7,1	9,2	9	1	1	1	1	1	1	1	1	1	0	1	-5,778717	274,266328	315,049845	0
15.01.2021	17:23:55	0	0	3,163399	0,90975	319,2084	0,431	83,838	0	1016,22	7,1	9,2	9	1	1	1	1	1	1	1	1	1	0	1	-12,966878	274,371985	308,356347	0
15.01.2021	17:23:56	0	0	2,711485	0,951	320,0868	0,425	83,833	0	1016,24	7,1	9,2	9	1	1	1	1	1	1	1	1	1	0	1	-9,936575	274,270844	310,91312	0
15.01.2021	17:23:57	0	0	2,711485	0,984	316,602	0,433	83,844	0	1016,24	7,1	9,1	9	1	1	1	1	1	1	1	1	1	0	1	-5,426357	274,296456	315,543204	0
15.01.2021	17:23:58	0	0	4,745098	0,96075	314,478	0,423	83,834	0	1016,32	7,1	9,1	9	1	1	1	1	1	1	1	1	1	0	1	-11,41649	274,328142	309,701405	0
15.01.2021	17:23:59	0	0	5,084034	0,9675	294,4116	0,422	83,832	0	1016,24	7,1	9,2	9	1	1	1	1	1	1	1	1	1	0	1	-5,073996	274,444771	316,590332	0
15.01.2021	17:24:00	0	0	4,406163	0,95475	322,8948	0,425	83,827	0	1016,12	7,1	9,2	9	1	1	1	1	1	1	1	1	1	0	1	-8,104299	274,443252	313,552907	0
15.01.2021	17:24:01	0	0	4,406163	0,95475	322,8948	0,425	83,827	0	1016,12	7,1	9,2	9	1	1	1	1	1	1	1	1	1	0	1	-8,104299	274,443252	313,552907	0
15.01.2021	17:24:02	0	0	3,163399	0,94125	328,914	0,431	83,846	0	1016,3	7,1	9,2	9	1	1	1	1	1	1	1	1	1	0	1	-9,936575	274,384097	311,443393	0
15.01.2021	17:24:03	0	0	4,971055	0,92775	318,1212	0,43	83,823	0	1016,32	7,1	9,2	9	1	1	1	1	1	1	1	1	1	0	1	-9,866103	274,44629	311,805348	0
15.01.2021	17:24:04	0	0	3,389356	0,88125	309,6036	0,432	83,848	0	1016,18	7,1	9,2	9	1	1	1	1	1	1	1	1	1	0	1	-11,134602	274,373498	310,195714	0
15.01.2021	17:24:05	0	0	2,146592	0,93075	312,534	0,424	83,851	0	1016,38	7,1	9,2	9	1	1	1	1	1	1	1	1	1	0	1	-9,866103	274,296456	311,103457	0
15.01.2021	17:24:06	0	0	5,084034	0,98175	323,3988	0,424	83,837	0	1016,28	7,1	9,2	9	1	1	1	1	1	1	1	1	1	0	1	-14,305849	274,402279	307,159313	0
15.01.2021	17:24:07	0	0	3,84127	0,99675	322,1604	0,428	83,84	0	1016,26	7,1	9,2	9	1	1	1	1	1	1	1	1	1	0	1	-8,949965	274,41441	312,572048	0
15.01.2021	17:24:08	0	0	4,63212	0,984	313,2612	0,428	83,822	0	1016,34	7,1	9,2	9	1	1	1	1	1	1	1	1	1	0	1	-6,624383	274,263317	314,190094	0
15.01.2021	17:24:09	0	0	4,858077	0,91275	316,9512	0,427	83,842	0	1016,28	7,1	9,2	9	1	1	1	1	1	1	1	1	1	0	1	-6,976744	274,387126	314,417416	0
15.01.2021	17:24:10	0	0	3,05042	0,86325	325,1808	0,43	83,822	0	1016,26	7,1	9,2	9	1	1	1	1	1	1	1	1	1	0	1	-10,782241	274,264822	310,039278	0
15.01.2021	17:24:11	0	0	5,535948	0,93375	326,4084	0,429	83,829	0	1016,06	7,1	9,2	9	1	1	1	1	1	1	1	1	1	0	1	-7,540521	274,381068	313,825257	0
15.01.2021	17:24:12	0	0	4,519141	0,96525	338,3316	0,425	83,826	0	1016,22	7,1	9,1	9	1	1	1	1	1	1	1	1	1	0	1	-10,500352	274,444771	311,163975	0
15.01.2021	17:24:13	0	0	4,858077	0,92025	338,4252	0,427	83,837	0	1016,28	7,1	9,2	9	1	1	1	1	1	1	1	1	1	0	1	-10,923185	274,397732	310,520669	0
15.01.2021	17:24:14	0	0	2,598506	0,92325	332,802	0,425	83,834	0	1016,4	7,1	9,2	9	1	1	1	1	1	1	1	1	1	0	1	-11,698379	274,267833	309,137227	0
15.01.2021	17:24:15	0	0	2,146592	0,8805	331,1028	0,427	83,834	0	1016,4	7,1	9,1	9	1	1	1	1	1	1	1	1	1	0	1	-8,949965	274,382582	312,422908	0
15.01.2021	17:24:16	0	0	2,485528	0,82425	331,1496	0,429	83,844	0	1016,14	7,1	9,1	9	1	1	1	1	1	1	1	1	1	0	1	-11,980268	274,443252	309,676938	0
15.01.2021	17:24:17	0	0	4,858077	0,88125	320,364	0,428	83,841	0	1016,18	7,1	9,1	9	1	1	1	1	1	1	1	1	1	0	1	-13,107822	274,405311	308,371548	0
15.01.2021	17:24:18	0	0	3,502334	0,849	307,5624	0,423	83,816	0	1016,3	7,1	9,1	9	1	1	1	1	1	1	1	1	1	0	1	-10,288936	274,438695	311,346907	0
15.01.2021	17:24:19	0	0	4,293184	0,8805	310,9896	0,43	83,84	0	1016,24	7,1	9,2	9	1	1	1	1	1	1	1	1	1	0	1	-9,44327	274,35988	311,823256	0
15.01.2021	17:24:20	0	0	2,711485	0,85725	315,5148	0,432	83,848	0	1016,36	7,1	9,2	9	1	1	1	1	1	1	1	1	1	0	1	-13,03735	274,266328	307,791212	0
15.01.2021	17:24:21	0	0	3,954249	0,89475	306,846	0,425	83,838	0	1016,44	7,1	9,2	9	1	1	1	1	1	1	1	1	1	0	1	-7,399577	274,334184	313,746606	0
15.01.2021	17:24:22	0	0	4,858077	0,885	298,7136	0,429	83,84	0	1016,46	7,1	9,1	9	1	1	1	1	1	1	1	1	1	0	1	-9,44327	274,263317	311,371207	0
15.01.2021	17:24:23	0	0	3,276377	0,84375	309,1788	0,426	83,828	0	1016,24	7,1	9,1	9	1	1	1	1	1	1	1	1	1	0	1	-14,094433	274,337205	307,065899	0
15.01.2021	17:24:24	0	0	2,259571	0,86175	311,7204	0,429	83,838	0	1016,22	7,1	9,2	9	1	1	1	1	1	1	1	1	1	0	1	-7,470049	274,31003	313,563047	0
15.01.2021	17:24:25	0	0	2,824463	0,84	309,96	0,43	83,83	0	1016,3	7,1	9,2	9	1	1	1	1	1	1	1	1	1	0	1	-9,372798	274,365932	311,922073	0
15.01.2021	17:24:26	0	0	2,485528	0,798	315,9756	0,424	83,824	0	1016,2	7,1	9,1	9	1	1	1	1	1	1	1	1	1	0	1	-8,033827	274,44781	313,644747	0
15.01.2021	17:24:27	0	0	2,824463	0,82725	320,4108	0,428	83,836	0	1016,26	7,1	9,2	9	1	1	1	1	1	1	1	1	1	0	1	-11,839323	274,264822	308,982196	0
15.01.2021	17:24:28	0	0	3,389356	0,876	303,5124	0,431	83,849	0	1016,22	7,1	9,2	9	1	1	1	1	1	1	1	1	1	0	1	-5,919662	274,325122	315,184094	0
15.01.2021	17:24:29	0	0	3,615313	0,95025	304,2792	0,429	83,839	0	1016,26	7,1	9,1	9	1	1	1	1	1	1	1	1	1	0	1	-10,077519	274,261812	310,729916	0
15.01.2021	17:24:30	0	0	2,937442	1,0065	312,1344	0,428	83,841	0	1016,26	7,1	9,2	9	1	1	1	1	1	1	1	1	1	0	1	-12,262156	274,314556	308,792131	0
15.01.2021	17:24:31	0	0	3,728292	1,0305	307,6524	0,434	83,835	0	1016,24	7,1	9,1	9	1	1	1	1	1	1	1	1	1	0	1	-10,570825	274,296456	310,398736	0
15.01.2021	17:24:32	0	0	2,937442	1,0455	304,3044	0,425	83,836	0	1016,3	7,1	9,2	9	1	1	1	1	1	1	1	1	1	0	1	-9,866103	274,415927	311,663019	0
15.01.2021	17:24:33	0	0	4,180206	1,023	311,724	0,431	83,83	0	1016,32	7,1	9,1	9	1	1	1	1	1	1	1	1	1	0	1	-12,403101	274,325122	308,700655	0
15.01.2021	17:24:34	0	0	3,728292	0,98025	311,4036	0,433	83,832	0	1016,42	7,1	9,1	9	1	1	1	1	1	1	1	1	1	0	1	-11,346018	274,266328	309,482544	0
15.01.2021	17:24:35	0	0	4,293184	0,9615	307,6344	0,426	83,838	0	1016,28	7,1	9,1	9	1	1	1	1	1	1	1	1	1	0	1	-9,513742	274,323613	311,582945	0
15.01.2021	17:24:36	0	0	4,745098	0,96825	309,2328	0,427	83,834	0	1016,36	7,1	9,1	9	1	1	1	1	1	1	1	1	1	0	1	-7,610994	274,44629	314,060457	0
15.01.2021	17:24:37	0	0	3,615313	1,00725	311,7168	0,427	83,822	0	1016,22	7,1	9,1	9	1	1	1	1	1	1	1	1	1	0	1	-9,654686	274,347783	311,555184	0
15.01.2021	17:24:38	0	0	4,293184	1,0575	310,6944	0,432	83,81	0	1016,32	7,1	9,2	9	1	1	1	1	1	1	1	1	1	0	1	-3,875969	274,263317	316,938508	0
15.01.2021	17:24:39	0	0	2,711485	1,17075	309,9132	0,429	83,833	0	1016,26	7,1	9,2	9	1	1	1	1	1	1	1	1	1	0	1	-11,06413	274,302488	309,933662	0
15.01.2021	17:24:40	0	0	4,067227	1,15575	312,786	0,433	83,829	0	1016,44	7,1	9,1	9	1	1	1	1	1	1	1	1	1	0	1	-13,530655	274,329652	307,594311	0
15.01.2021	17:24:41	0	0	5,084034	1,0815	299,7648	0,427	83,822	0	1016,34	7,1	9,2	9	1	1	1	1	1	1	1	1	1	0	1	-13,601128	274,437176	308,027596	0
15.01.2021	17:24:42	0	0	4,180206	1,07475	299,7468	0,432	83,823	0	1016,3	7,1	9,2	9	1	1	1	1	1	1	1	1	1	0	1	-6,8358	274,337205	314,324531	0
15.01.2021	17:24:43	0	0	3,389356	1,05675	305,334	0,433	83,823	0	1016,28	7,1	9,1	9	1	1	1	1	1	1	1	1	1	0	1	-11,205074	274,258803	309,58828	0
15.01.2021	17:24:44	0	0	2,937442	1,0335	305,3412	0,43	83,826	0	1016,28	7,1	9,1	9	1	1	1	1	1	1	1	1	1	0	1	-4,22833	274,405311	317,251041	0
15.01.2021	17:24:45	0	0	2,485528	0,99075	308,43	0,428	83,822	0	1016,36	7,1	9,2	9	1	1	1	1	1	1	1	1	1	0	1	-16,208598	274,429584	305,384539	0
15.01.2021	17:24:46	0	0	5,309991	0,99675	322,9308	0,43	83,826	0	1016,32	7,1	9,1	9	1	1	1	1	1	1	1	1	1	0	1	-8,527132	274,415927	313,00199	0
15.01.2021	17:24:47	0	0	2,711485	0,9915	324,3312	0,426	83,816	0	1016,18	7,1	9,1	9	1	1	1	1	1	1	1	1	1	0	1	-11,275546	274,299472	309,708128	0
15.01.2021	17:24:48	0	0	2,711485	0,9255	317,7828	0,42	83,815	0	1016,2	7,1	9,1	9	1	1	1	1	1	1	1	1	1	0	1	-10,077519	274,426549	311,501387	0
15.01.2021	17:24:49	0	0	2,937442	0,885	311,0112	0,424	83,802	0	1016,14	7,1	9,1	9	1	1	1	1	1	1	1	1	1	0	1	-8,668076	274,260308	312,132319	0
15.01.2021	17:24:50	0	0	3,163399	0,8385	309,5316	0,43	83,825	0	1016,22	7,1	9,2	9	1	1	1	1	1	1	1	1	1	0	1	-9,161381	274,393186	312,261172	0
15.01.2021	17:24:51	0	0	2,937442	0,81375	313,5816	0,432	83,818	0	1016,34	7,1	9,1	9	1	1	1	1	1	1	1	1	1	0	1	-12,05074	274,276867	308,827141	0
15.01.2021	17:24:52	0	0	4,971055	0,7755	319,194	0,431	83,812	0	1016,1	7,1	9,2	9	1	1	1	1	1	1	1	1	1	0	1	-9,725159	274,30098	311,265574	0
15.01.2021	17:24:53	0	0	2,711485	0,7845	320,4	0,425	83,807	0	1016,1	7,1	9,2	9	1	1	1	1	1	1	1	1	1	0	1	-9,020437	274,266328	311,808125	0
15.01.2021	17:24:54	0	0	2,598506	0,76875	316,962	0,428	83,822	0	1016,14	7,1	9,2	9	1	1	1	1	1	1	1	1	1	0	1	-11,346018	274,376526	309,99848	0
15.01.2021	17:24:55	0	0	3,954249	0,72525	318,0852	0,428	83,8	0	1016,3	7,1	9,1	9	1	1	1	1	1	1	1	1	1	0	1	-11,346018	274,266328	309,482544	0
15.01.2021	17:24:56	0	0	4,293184	0,76275	317,7324	0,429	83,822	0	1016,26	7,1	9,2	9	1	1	1	1	1	1	1	1	1	0	1	-11,980268	274,443252	309,676938	0
15.01.2021	17:24:57	0	0	3,502334	0,7815	315,8208	0,422	83,8	0	1016,12	7,1	9,2	9	1	1	1	1	1	1	1	1	1	0	1	-6,906272	274,390156	314,502083	0
15.01.2021	17:24:58	0	0	4,519141	0,7635	313,2792	0,426	83,816	0	1016,26	7,1	9,1	9	1	1	1	1	1	1	1	1	1	0	1	-12,473573	274,429584	309,119563	0
15.01.2021	17:24:59	0	0	4,406163	0,8115	315,8496	0,423	83,796	0	1016,32	7,1	9,1	9	1	1	1	1	1	1	1	1	1	0	1	-10,288936	274,41441	311,233077	0
15.01.2021	17:25:00	0	0	3,276377	0,8505	310,6656	0,426	83,817	0	1016,24	7,1	9,2	9	1	1	1	1	1	1	1	1	1	0	1	-11,134602	274,420478	310,415852	0
15.01.2021	17:25:01	0	0	3,276377	0,8505	310,6656	0,426	83,817	0	1016,24	7,1	9,2	9	1	1	1	1	1	1	1	1	1	0	1	-11,134602	274,420478	310,415852	0
15.01.2021	17:25:02	0	0	3,05042	0,84375	311,7492	0,43	83,82	0	1016,34	7,1	9,1	9	1	1	1	1	1	1	1	1	1	0	1	-10,288936	274,284399	310,624193	0
15.01.2021	17:25:03	0	0	4,519141	0,80025	329,2128	0,423	83,802	0	1016,16	7,1	9,1	9	1	1	1	1	1	1	1	1	1	0	1	-13,742072	274,376526	307,602427	0
15.01.2021	17:25:04	0	0	4,406163	0,76425	334,314	0,429	83,806	0	1016,4	7,1	9,1	9	1	1	1	1	1	1	1	1	1	0	1	-7,258633	274,429584	314,334503	0
15.01.2021	17:25:05	0	0	4,971055	0,73875	336,0636	0,427	83,812	0	1016,2	7,1	9,2	9	1	1	1	1	1	1	1	1	1	0	1	-10,570825	274,364419	310,716959	0
15.01.2021	17:25:06	0	0	3,954249	0,7155	331,0992	0,42	83,815	0	1016,2	7,1	9,1	9	1	1	1	1	1	1	1	1	1	0	1	-11,41649	274,258803	309,376864	0
15.01.2021	17:25:07	0	0	4,067227	0,69225	322,5708	0,422	83,813	0	1016,34	7,1	9,2	9	1	1	1	1	1	1	1	1	1	0	1	-9,725159	274,332673	311,413952	0
15.01.2021	17:25:08	0	0	3,05042	0,63825	321,5304	0,42	83,798	0	1016,1	7,1	9,1	9	1	1	1	1	1	1	1	1	1	0	1	-9,372798	274,431103	312,227454	0
15.01.2021	17:25:09	0	0	2,711485	0,64275	321,0624	0,423	83,804	0	1016,26	7,1	9,2	9	1	1	1	1	1	1	1	1	1	0	1	-11,346018	274,393186	310,076534	0
15.01.2021	17:25:10	0	0	3,84127	0,69375	319,9212	0,427	83,794	0	1016,36	7,1	9,1	9	1	1	1	1	1	1	1	1	1	0	1	-6,694856	274,443252	314,96235	0
15.01.2021	17:25:11	0	0	2,598506	0,78525	311,3784	0,422	83,811	0	1016,22	7,1	9,2	9	1	1	1	1	1	1	1	1	1	0	1	-9,020437	274,258803	311,772917	0
15.01.2021	17:25:12	0	0	2,711485	0,91575	306,792	0,422	83,81	0	1016,18	7,1	9,1	9	1	1	1	1	1	1	1	1	1	0	1	-14,023961	274,355343	307,221315	0
15.01.2021	17:25:13	0	0	3,276377	1,044	310,6656	0,431	83,824	0	1016,4	7,1	9,1	9	1	1	1	1	1	1	1	1	1	0	1	-6,20155	274,431103	315,398702	0
15.01.2021	17:25:14	0	0	4,971055	1,09875	315,4428	0,422	83,818	0	1016,3	7,1	9,2	9	1	1	1	1	1	1	1	1	1	0	1	-10,288936	274,426549	311,28997	0
15.01.2021	17:25:15	0	0	2,937442	1,0935	320,3532	0,431	83,821	0	1016,26	7,1	9,2	9	1	1	1	1	1	1	1	1	1	0	1	-9,654686	274,249777	311,096441	0
15.01.2021	17:25:16	0	0	3,728292	1,0725	317,8044	0,425	83,794	0	1016,28	7,1	9,1	9	1	1	1	1	1	1	1	1	1	0	1	-7,751938	274,248273	312,992153	0
15.01.2021	17:25:17	0	0	3,728292	1,06725	312,1632	0,427	83,818	0	1016,24	7,1	9,1	9	1	1	1	1	1	1	1	1	1	0	1	-13,107822	274,316065	307,95353	0
15.01.2021	17:25:18	0	0	2,485528	1,06575	314,442	0,426	83,814	0	1016,34	7,1	9,1	9	1	1	1	1	1	1	1	1	1	0	1	-9,020437	274,248273	311,723654	0
15.01.2021	17:25:19	0	0	4,293184	1,06425	312,462	0,425	83,817	0	1016,32	7,1	9,1	9	1	1	1	1	1	1	1	1	1	0	1	-11,768851	274,408343	309,724731	0
15.01.2021	17:25:20	0	0	3,84127	1,0605	305,0244	0,422	83,824	0	1016,28	7,1	9,1	9	1	1	1	1	1	1	1	1	1	0	1	-9,44327	274,258803	311,350084	0
15.01.2021	17:25:21	0	0	2,937442	1,08525	297,5544	0,429	83,797	0	1016,18	7,1	9,1	9	1	1	1	1	1	1	1	1	1	0	1	-10,711769	274,350807	310,512261	0
15.01.2021	17:25:22	0	0	3,84127	1,1145	300,4452	0,426	83,815	0	1016,3	7,1	9,1	9	1	1	1	1	1	1	1	1	1	0	1	-11,557435	274,261812	309,250001	0
15.01.2021	17:25:23	0	0	4,519195	1,13025	309,8772	0,426	83,817	0	1016,4	7,1	9,1	8,8	1	1	1	1	1	1	1	1	1	0	1	-10,147992	274,412893	311,366912	0
15.01.2021	17:25:24	0	0	4,745098	1,14525	317,8008	0,425	83,807	0	1016,3	7,1	9,1	9	1	1	1	1	1	1	1	1	1	0	1	-16,349542	274,343249	304,839093	0
15.01.2021	17:25:25	0	0	4,858077	1,10625	319,626	0,423	83,811	0	1016,28	7,1	9,2	9	1	1	1	1	1	1	1	1	1	0	1	-10,923185	274,261812	309,88425	0
15.01.2021	17:25:26	0	0	2,711485	1,11675	318,4416	0,426	83,829	0	1016,4	7,1	9,1	9	1	1	1	1	1	1	1	1	1	0	1	-9,161381	274,273855	311,702405	0
15.01.2021	17:25:27	0	0	4,858077	1,08	325,5912	0,425	83,812	0	1016,34	7,1	9,1	9	1	1	1	1	1	1	1	1	1	0	1	-9,372798	274,267833	311,462808	0
15.01.2021	17:25:28	0	0	2,937442	1,07925	328,9392	0,424	83,806	0	1016,38	7,1	9,1	9	1	1	1	1	1	1	1	1	1	0	1	-8,668076	274,275361	312,202758	0
15.01.2021	17:25:29	0	0	4,293184	1,0125	326,4624	0,425	83,81	0	1016,28	7,1	9,1	9	1	1	1	1	1	1	1	1	1	0	1	-10,923185	274,367445	310,378773	0
15.01.2021	17:25:30	0	0	2,485528	0,99225	331,1604	0,427	83,81	0	1016,26	7,1	9,2	9	1	1	1	1	1	1	1	1	1	0	1	-7,610994	274,261812	313,196442	0
15.01.2021	17:25:31	0	0	2,711485	1,01325	325,2564	0,431	83,815	0	1016,32	7,1	9,1	9	1	1	1	1	1	1	1	1	1	0	1	-12,05074	274,296456	308,91882	0
15.01.2021	17:25:32	0	0	4,745098	1,0365	322,2612	0,429	83,798	0	1016,14	7,1	9,1	9	1	1	1	1	1	1	1	1	1	0	1	-9,654686	274,435658	311,966918	0
15.01.2021	17:25:33	0	0	4,858077	1,0065	325,0008	0,425	83,811	0	1016,32	7,1	9,1	9	1	1	1	1	1	1	1	1	1	0	1	-11,768851	274,37804	309,58274	0
15.01.2021	17:25:34	0	0	3,728292	0,99825	319,986	0,425	83,817	0	1016,2	7,1	9,1	9	1	1	1	1	1	1	1	1	1	0	1	-10,852713	274,254289	309,919524	0
15.01.2021	17:25:35	0	0	2,937442	1,011	313,1388	0,427	83,824	0	1016,38	7,1	9,2	9	1	1	1	1	1	1	1	1	1	0	1	-13,107822	274,361393	308,165789	0
15.01.2021	17:25:36	0	0	3,276377	1,05825	315,5364	0,426	83,815	0	1016,22	7,1	9,1	9	1	1	1	1	1	1	1	1	1	0	1	-6,060606	274,421996	315,49696	0
15.01.2021	17:25:37	0	0	3,276377	1,08825	321,3684	0,426	83,823	0	1016,26	7,1	9,2	9	1	1	1	1	1	1	1	1	1	0	1	-13,953488	274,299472	307,030186	0
15.01.2021	17:25:38	0	0	2,485528	1,18575	305,0892	0,424	83,812	0	1016,34	7,1	9,1	9	1	1	1	1	1	1	1	1	1	0	1	-10,923185	274,303996	310,081666	0
15.01.2021	17:25:39	0	0	4,63212	1,242	316,9332	0,425	83,805	0	1016,24	7,1	9,1	9	1	1	1	1	1	1	1	1	1	0	1	-13,03735	274,400763	308,420709	0
15.01.2021	17:25:40	0	0	4,63212	1,2915	319,2516	0,426	83,821	0	1016,26	7,1	9,1	9	1	1	1	1	1	1	1	1	1	0	1	-11,275546	274,273855	309,588241	0
15.01.2021	17:25:41	0	0	4,63212	1,4145	307,2168	0,427	83,822	0	1016,22	7,1	9,1	9	1	1	1	1	1	1	1	1	1	0	1	-6,694856	274,246769	314,042201	0
15.01.2021	17:25:42	0	0	2,937442	1,4205	317,3688	0,424	83,802	0	1016,36	7,1	9,1	9	1	1	1	1	1	1	1	1	1	0	1	-10,711769	274,317575	310,356649	0
15.01.2021	17:25:43	0	0	2,711485	1,45575	320,0508	0,425	83,812	0	1016,32	7,1	9,1	9	1	1	1	1	1	1	1	1	1	0	1	-11,41649	274,411376	310,091305	0
15.01.2021	17:25:44	0	0	2,711485	1,521	318,168	0,428	83,813	0	1016,3	7,1	9,1	9	1	1	1	1	1	1	1	1	1	0	1	-9,936575	274,41441	311,585437	0
15.01.2021	17:25:45	0	0	3,276377	1,5795	322,9632	0,424	83,791	0	1016,18	7,1	9,1	9	1	1	1	1	1	1	1	1	1	0	1	-12,332629	274,284399	308,5805	0
15.01.2021	17:25:46	0	0	4,519141	1,55025	320,8068	0,424	83,795	0	1016,36	7,1	9,1	9	1	1	1	1	1	1	1	1	1	0	1	-12,684989	274,240755	308,023934	0
15.01.2021	17:25:47	0	0	4,63212	1,4955	320,7816	0,423	83,816	0	1016,32	7,1	9,1	9	1	1	1	1	1	1	1	1	1	0	1	-12,825934	274,328142	308,291962	0
15.01.2021	17:25:48	0	0	2,937442	1,4865	311,04	0,419	83,792	0	1016,08	7,1	9,2	9	1	1	1	1	1	1	1	1	1	0	1	-12,121212	274,248273	308,622879	0
15.01.2021	17:25:49	0	0	4,519141	1,47975	306,9144	0,424	83,813	0	1016,28	7,1	9,1	9	1	1	1	1	1	1	1	1	1	0	1	-11,980268	274,313047	309,066955	0
15.01.2021	17:25:50	0	0	3,276377	1,44225	317,3652	0,415	83,799	0	1016,22	7,1	9,1	9	1	1	1	1	1	1	1	1	1	0	1	-11,346018	274,245266	309,384004	0
15.01.2021	17:25:51	0	0	4,971055	1,36575	309,9276	0,423	83,807	0	1016,26	7,1	9,1	9	1	1	1	1	1	1	1	1	1	0	1	-13,460183	274,425031	308,111609	0
15.01.2021	17:25:52	0	0	3,728292	1,3905	308,0088	0,427	83,793	0	1016,48	7,1	9,1	9	1	1	1	1	1	1	1	1	1	0	1	-7,892882	274,302488	313,104909	0
15.01.2021	17:25:53	0	0	3,502334	1,33275	320,4036	0,425	83,797	0	1016,32	7,1	9,1	9	1	1	1	1	1	1	1	1	1	0	1	-10,147992	274,421996	311,409574	0
15.01.2021	17:25:54	0	0	3,05042	1,32375	312,8796	0,421	83,803	0	1016,26	7,1	9,2	9	1	1	1	1	1	1	1	1	1	0	1	-10,641297	274,334184	310,504887	0
15.01.2021	17:25:55	0	0	3,954249	1,2615	300,5028	0,422	83,8	0	1016,1	7,1	9,1	9	1	1	1	1	1	1	1	1	1	0	1	-11,275546	274,420478	310,274908	0
15.01.2021	17:25:56	0	0	3,84127	1,2225	308,8512	0,426	83,808	0	1016,32	7,1	9,1	9	1	1	1	1	1	1	1	1	1	0	1	-7,82241	274,294949	313,140094	0
15.01.2021	17:25:57	0	0	4,745098	1,2255	311,7384	0,423	83,798	0	1016,24	7,1	9,1	9	1	1	1	1	1	1	1	1	1	0	1	-5,003524	274,252785	315,761676	0
15.01.2021	17:25:58	0	0	3,05042	1,2585	310,2912	0,425	83,799	0	1016,26	7,1	9,1	9	1	1	1	1	1	1	1	1	1	0	1	-10,007047	274,284399	310,906082	0
15.01.2021	17:25:59	0	0	3,163399	1,31775	307,5804	0,419	83,798	0	1016,22	7,1	9,1	9	1	1	1	1	1	1	1	1	1	0	1	-6,272023	274,420478	315,278431	0
15.01.2021	17:26:00	0	0	2,937442	1,30725	315,8388	0,427	83,802	0	1016,26	7,1	9,1	9	1	1	1	1	1	1	1	1	1	0	1	-9,44327	274,415927	312,085852	0
15.01.2021	17:26:01	0	0	2,937442	1,30725	315,8388	0,427	83,802	0	1016,26	7,1	9,1	9	1	1	1	1	1	1	1	1	1	0	1	-8,597604	274,393186	312,824949	0
15.01.2021	17:26:02	0	0	4,971115	1,383	321,4404	0,424	83,785	0	1016,22	7,1	9,1	8,8	1	1	1	1	1	1	1	1	1	0	1	-9,654686	274,248273	311,089405	0
15.01.2021	17:26:03	0	0	4,519141	1,44	329,364	0,419	83,797	0	1016,28	7,1	9,1	9	1	1	1	1	1	1	1	1	1	0	1	-10,570825	274,391671	310,844629	0
15.01.2021	17:26:04	0	0	3,05042	1,36125	317,736	0,421	83,8	0	1016,2	7,1	9,1	9	1	1	1	1	1	1	1	1	1	0	1	-11,909796	274,254289	308,862442	0
15.01.2021	17:26:05	0	0	3,163399	1,23075	317,0412	0,416	83,796	0	1016,28	7,1	9,1	9	1	1	1	1	1	1	1	1	1	0	1	-6,694856	274,415927	314,834266	0
15.01.2021	17:26:06	0	0	3,389356	1,19625	319,5864	0,421	83,81	0	1016,34	7,1	9,1	9	1	1	1	1	1	1	1	1	1	0	1	-10,570825	274,391671	310,844629	0
15.01.2021	17:26:07	0	0	3,728292	1,23225	316,9008	0,423	83,81	0	1016,24	7,1	9,1	9	1	1	1	1	1	1	1	1	1	0	1	-9,231853	274,239252	311,470038	0
15.01.2021	17:26:08	0	0	4,067227	1,2225	319,6224	0,42	83,804	0	1016,34	7,1	9,1	9	1	1	1	1	1	1	1	1	1	0	1	-9,513742	274,294949	311,448762	0
15.01.2021	17:26:09	0	0	2,711485	1,27125	324,8388	0,425	83,78	0	1016,1	7,1	9,1	9	1	1	1	1	1	1	1	1	1	0	1	-9,090909	274,258803	311,702445	0
15.01.2021	17:26:10	0	0	4,180206	1,30125	325,152	0,418	83,784	0	1016,1	7,1	9,1	9	1	1	1	1	1	1	1	1	1	0	1	-13,319239	274,34476	307,876474	0
15.01.2021	17:26:11	0	0	4,180206	1,29675	321,1416	0,415	83,8	0	1016,36	7,1	9,1	9	1	1	1	1	1	1	1	1	1	0	1	-13,812544	274,417444	307,723688	0
15.01.2021	17:26:12	0	0	2,824463	1,404	320,7636	0,423	83,786	0	1016,28	7,1	9,1	9	1	1	1	1	1	1	1	1	1	0	1	-9,866103	274,293441	311,089345	0
15.01.2021	17:26:13	0	0	4,293184	1,3905	321,1776	0,421	83,787	0	1016,18	7,1	9,1	9	1	1	1	1	1	1	1	1	1	0	1	-9,654686	274,258803	311,138668	0
15.01.2021	17:26:14	0	0	3,276377	1,36575	325,9656	0,421	83,806	0	1016,3	7,1	9,1	9	1	1	1	1	1	1	1	1	1	0	1	-13,107822	274,332673	308,031288	0
15.01.2021	17:26:15	0	0	2,372549	1,368	319,1184	0,424	83,798	0	1016,36	7,1	9,1	9	1	1	1	1	1	1	1	1	1	0	1	-9,654686	274,254289	311,117551	0
15.01.2021	17:26:16	0	0	1,920635	1,40925	304,9884	0,425	83,779	0	1016,12	7,1	9,1	9	1	1	1	1	1	1	1	1	1	0	1	-11,41649	274,355343	309,828785	0
15.01.2021	17:26:17	0	0	3,05042	1,4205	322,866	0,424	83,79	0	1016,38	7,1	9,1	9	1	1	1	1	1	1	1	1	1	0	1	-7,470049	274,267833	313,365556	0
15.01.2021	17:26:18	0	0	2,485528	1,44225	325,9836	0,423	83,803	0	1016,24	7,1	9,1	9	1	1	1	1	1	1	1	1	1	0	1	-7,610994	274,27235	313,245747	0
15.01.2021	17:26:19	0	0	3,163399	1,53975	310,2264	0,424	83,793	0	1016,18	7,1	9,1	9	1	1	1	1	1	1	1	1	1	0	1	-12,825934	274,296456	308,143626	0
15.01.2021	17:26:20	0	0	2,711485	1,59375	321,5628	0,419	83,806	0	1016,38	7,1	9,1	9	1	1	1	1	1	1	1	1	1	0	1	-8,738548	274,248273	312,005543	0
15.01.2021	17:26:21	0	0	2,711485	1,6575	321,8184	0,417	83,783	0	1016,14	7,1	9,1	9	1	1	1	1	1	1	1	1	1	0	1	-11,557435	274,313047	309,489788	0
15.01.2021	17:26:22	0	0	3,05042	1,61025	321,5052	0,421	83,792	0	1016,1	7,1	9,1	9	1	1	1	1	1	1	1	1	1	0	1	-5,073996	274,257298	315,712319	0
15.01.2021	17:26:23	0	0	4,858077	1,63725	314,8308	0,421	83,784	0	1016,28	7,1	9,1	9	1	1	1	1	1	1	1	1	1	0	1	-11,768851	274,349295	309,448098	0
15.01.2021	17:26:24	0	0	2,598506	1,65975	317,052	0,422	83,8	0	1016,16	7,1	9,1	9	1	1	1	1	1	1	1	1	1	0	1	-13,742072	274,254289	307,030166	0
15.01.2021	17:26:25	0	0	3,276377	1,701	312,8508	0,424	83,793	0	1016,16	7,1	9,1	9	1	1	1	1	1	1	1	1	1	0	1	-9,302326	274,255794	311,47695	0
15.01.2021	17:26:26	0	0	2,598506	1,65225	318,1464	0,419	83,78	0	1016,3	7,1	9,1	9	1	1	1	1	1	1	1	1	1	0	1	-7,188161	274,290427	313,753179	0
15.01.2021	17:26:27	0	0	2,937442	1,6545	326,0844	0,414	83,794	0	1016,32	7,1	9,1	9	1	1	1	1	1	1	1	1	1	0	1	-13,742072	274,382582	307,630801	0
15.01.2021	17:26:28	0	0	2,824463	1,6365	324,0576	0,421	83,785	0	1016,38	7,1	9,1	9	1	1	1	1	1	1	1	1	1	0	1	-13,248767	274,267833	307,586839	0
15.01.2021	17:26:29	0	0	3,615313	1,53825	315,2664	0,419	83,769	0	1016,22	7,1	9,1	9	1	1	1	1	1	1	1	1	1	0	1	-11,275546	274,258803	309,517808	0
15.01.2021	17:26:30	0	0	3,728292	1,5135	320,7672	0,423	83,799	0	1016,12	7,1	9,1	9	1	1	1	1	1	1	1	1	1	0	1	-9,795631	274,370471	311,520505	0
15.01.2021	17:26:31	0	0	3,615313	1,52625	318,4056	0,422	83,787	0	1016,48	7,1	9,1	9	1	1	1	1	1	1	1	1	1	0	1	-8,879493	274,411376	312,628303	0
15.01.2021	17:26:32	0	0	2,485528	1,54725	323,7156	0,42	83,78	0	1016,1	7,1	9,1	9	1	1	1	1	1	1	1	1	1	0	1	-9,866103	274,352319	311,365008	0
15.01.2021	17:26:33	0	0	2,824463	1,52625	322,9524	0,422	83,782	0	1016,28	7,1	9,1	9	1	1	1	1	1	1	1	1	1	0	1	-9,584214	274,242259	311,131741	0
15.01.2021	17:26:34	0	0	4,971055	1,5105	318,8592	0,416	83,774	0	1016,26	7,1	9,1	9	1	1	1	1	1	1	1	1	1	0	1	-11,205074	274,294949	309,75743	0
15.01.2021	17:26:35	0	0	4,632175	1,45275	313,1748	0,417	83,795	0	1016,32	7	9,1	8,8	1	1	1	1	1	1	1	1	1	0	1	-9,372798	274,236246	311,315033	0
15.01.2021	17:26:36	0	0	2,711485	1,3935	318,8196	0,423	83,784	0	1016,34	7,1	9,1	9	1	1	1	1	1	1	1	1	1	0	1	-5,84919	274,311538	315,19097	0
15.01.2021	17:26:37	0	0	3,954249	1,37025	314,0928	0,418	83,781	0	1016,28	7,1	9,1	9	1	1	1	1	1	1	1	1	1	0	1	-12,05074	274,28892	308,883546	0
15.01.2021	17:26:38	0	0	4,180231	1,34775	330,75	0,417	83,784	0	1016,2	7,1	9,1	8,9	1	1	1	1	1	1	1	1	1	0	1	-6,060606	274,270844	314,789089	0
15.01.2021	17:26:39	0	0	2,711485	1,24425	327,9636	0,422	83,783	0	1016,38	7,1	9,1	9	1	1	1	1	1	1	1	1	1	0	1	-11,980268	274,367445	309,32169	0
15.01.2021	17:26:40	0	0	3,05042	1,1835	326,0484	0,417	83,783	0	1016,12	7,1	9,1	9	1	1	1	1	1	1	1	1	1	0	1	-11,06413	274,246769	309,672927	0
15.01.2021	17:26:41	0	0	3,276377	1,134	330,0192	0,421	83,785	0	1016,3	7,1	9,1	9	1	1	1	1	1	1	1	1	1	0	1	-10,500352	274,30098	310,490381	0
15.01.2021	17:26:42	0	0	4,519141	1,23825	322,8552	0,417	83,765	0	1016,12	7,1	9,1	9	1	1	1	1	1	1	1	1	1	0	1	-6,765328	274,412893	314,749576	0
15.01.2021	17:26:43	0	0	2,937442	1,26075	335,3364	0,419	83,779	0	1016,4	7,1	9,1	9	1	1	1	1	1	1	1	1	1	0	1	-12,896406	274,334184	308,249777	0
15.01.2021	17:26:44	0	0	4,971055	1,281	334,9332	0,415	83,78	0	1016,12	7,1	9,1	9	1	1	1	1	1	1	1	1	1	0	1	-8,174771	274,411376	313,333025	0
15.01.2021	17:26:45	0	0	2,485528	1,28775	320,0148	0,417	83,774	0	1016,14	7,1	9,1	9	1	1	1	1	1	1	1	1	1	0	1	-8,033827	274,278374	312,851103	0
15.01.2021	17:26:46	0	0	4,971055	1,25325	333,8316	0,418	83,768	0	1016,06	7,1	9,1	9	1	1	1	1	1	1	1	1	1	0	1	-10,711769	274,242259	310,004187	0
15.01.2021	17:26:47	0	0	4,745098	1,2045	329,3568	0,417	83,768	0	1016,42	7,1	9,1	9	1	1	1	1	1	1	1	1	1	0	1	-14,446794	274,270844	306,402901	0
15.01.2021	17:26:48	0	0	3,389356	1,20675	326,79	0,42	83,785	0	1016,28	7,1	9,2	9	1	1	1	1	1	1	1	1	1	0	1	-11,909796	274,252785	308,855404	0
15.01.2021	17:26:49	0	0	4,067227	1,19025	331,3872	0,417	83,768	0	1016,14	7,1	9,1	9	1	1	1	1	1	1	1	1	1	0	1	-6,342495	274,285906	314,577686	0
15.01.2021	17:26:50	0	0	3,276377	1,16925	333,864	0,419	83,773	0	1016,32	7,1	9,1	9	1	1	1	1	1	1	1	1	1	0	1	-11,768851	274,236246	308,918979	0
15.01.2021	17:26:51	0	0	4,971055	1,1265	334,5408	0,419	83,787	0	1016,28	7,1	9,1	9	1	1	1	1	1	1	1	1	1	0	1	-13,460183	274,303996	307,544668	0
15.01.2021	17:26:52	0	0	3,954272	1,095	331,992	0,419	83,788	0	1016,46	7,1	9,1	8,9	1	1	1	1	1	1	1	1	1	0	1	-11,698379	274,418961	309,844963	0
15.01.2021	17:26:53	0	0	5,197075	1,13925	339,048	0,42	83,784	0	1016,34	7,1	9,1	8,8	1	1	1	1	1	1	1	1	1	0	1	-13,742072	274,381068	307,623706	0
15.01.2021	17:26:54	0	0	2,824463	1,1625	333,8496	0,418	83,783	0	1016,18	7,1	9,1	9	1	1	1	1	1	1	1	1	1	0	1	-9,372798	274,267833	311,462808	0
15.01.2021	17:26:55	0	0	3,05042	1,21125	322,2072	0,415	83,786	0	1016,22	7,1	9,1	9	1	1	1	1	1	1	1	1	1	0	1	-6,483439	274,260308	314,316956	0
15.01.2021	17:26:56	0	0	2,711485	1,25775	328,9932	0,421	83,784	0	1016,5	7,1	9,1	9	1	1	1	1	1	1	1	1	1	0	1	-14,376321	274,246769	306,360735	0
15.01.2021	17:26:57	0	0	3,954249	1,2795	330,768	0,418	83,796	0	1016,3	7,1	9,1	9	1	1	1	1	1	1	1	1	1	0	1	-9,654686	274,237749	311,040174	0
15.01.2021	17:26:58	0	0	3,728292	1,36575	325,0692	0,418	83,786	0	1016,22	7,1	9,1	9	1	1	1	1	1	1	1	1	1	0	1	-8,315715	274,349295	312,901234	0
15.01.2021	17:26:59	0	0	4,067227	1,5255	332,8128	0,414	83,772	0	1016,18	7,1	9,1	9	1	1	1	1	1	1	1	1	1	0	1	-8,245243	274,423513	313,319435	0
15.01.2021	17:27:00	0	0	2,937442	1,758	330,0372	0,421	83,781	0	1016,44	7,1	9,1	9	1	1	1	1	1	1	1	1	1	0	1	-10,288936	274,320593	310,793615	0
15.01.2021	17:27:01	0	0	2,937442	1,758	330,0372	0,421	83,781	0	1016,44	7,1	9,1	9	1	1	1	1	1	1	1	1	1	0	1	-14,023961	274,230235	306,635756	0
15.01.2021	17:27:02	0	0	4,293184	1,9275	326,4084	0,427	83,776	0	1016,32	7,1	9,1	9	1	1	1	1	1	1	1	1	1	0	1	-9,372798	274,384097	312,00717	0
15.01.2021	17:27:03	0	0	2,711485	2,1285	323,3016	0,424	83,785	0	1016,26	7,1	9,1	9	1	1	1	1	1	1	1	1	1	0	1	-11,698379	274,236246	308,989451	0
15.01.2021	17:27:04	0	0	4,406163	2,2065	328,1904	0,422	83,782	0	1016,34	7,1	9,1	9	1	1	1	1	1	1	1	1	1	0	1	-13,03735	274,287413	307,889883	0
15.01.2021	17:27:05	0	0	3,728292	2,178	326,394	0,415	83,771	0	1016,14	7,1	9,1	9	1	1	1	1	1	1	1	1	1	0	1	-6,8358	274,231738	313,830944	0
15.01.2021	17:27:06	0	0	3,389397	2,13075	329,994	0,422	83,776	0	1016,14	7,1	9,1	8,8	1	1	1	1	1	1	1	1	1	0	1	-12,614517	274,425031	308,957275	0
15.01.2021	17:27:07	0	0	4,745098	2,025	338,04	0,42	83,773	0	1016,24	7	9,1	9	1	1	1	1	1	1	1	1	1	0	1	-8,033827	274,276867	312,844055	0
15.01.2021	17:27:08	0	0	2,937459	1,97625	323,3628	0,421	83,773	0	1016,42	7,1	9,1	8,9	1	1	1	1	1	1	1	1	1	0	1	-8,80902	274,400763	312,649038	0
15.01.2021	17:27:09	0	0	4,293184	1,9095	324,792	0,421	83,775	0	1016,3	7,1	9,1	9	1	1	1	1	1	1	1	1	1	0	1	-12,473573	274,291934	308,474821	0
15.01.2021	17:27:10	0	0	3,05042	1,89825	328,9356	0,42	83,782	0	1016,28	7,1	9,1	9	1	1	1	1	1	1	1	1	1	0	1	-10,711769	274,402279	310,753393	0
15.01.2021	17:27:11	0	0	3,728292	1,83375	329,2596	0,417	83,767	0	1016,26	7,1	9,1	9	1	1	1	1	1	1	1	1	1	0	1	-6,342495	274,373498	314,987821	0
15.01.2021	17:27:12	0	0	3,163399	1,806	335,2824	0,418	83,776	0	1016,24	7	9,1	9	1	1	1	1	1	1	1	1	1	0	1	-8,80902	274,390156	312,599335	0
15.01.2021	17:27:13	0	0	2,711501	1,73625	337,9572	0,418	83,765	0	1016,14	7,1	9,1	8,9	1	1	1	1	1	1	1	1	1	0	1	-6,342495	274,258803	314,45086	0
15.01.2021	17:27:14	0	0	4,971085	1,71	328,9248	0,417	83,764	0	1016,2	7,1	9,1	8,9	1	1	1	1	1	1	1	1	1	0	1	-9,513742	274,376526	311,830757	0
15.01.2021	17:27:15	0	0	2,711485	1,6785	335,3004	0,418	83,747	0	1016,3	7,1	9,1	9	1	1	1	1	1	1	1	1	1	0	1	-10,077519	274,319084	310,997964	0
15.01.2021	17:27:16	0	0	3,276377	1,74675	340,776	0,417	83,755	0	1016,24	7,1	9,1	9	1	1	1	1	1	1	1	1	1	0	1	-11,06413	274,240755	309,644794	0
15.01.2021	17:27:17	0	0	3,502334	1,80975	338,346	0,417	83,766	0	1016,28	7,1	9,1	9	1	1	1	1	1	1	1	1	1	0	1	-9,090909	274,28892	311,843377	0
15.01.2021	17:27:18	0	0	2,146605	1,911	337,1832	0,416	83,768	0	1016,38	7,1	9,1	8,9	1	1	1	1	1	1	1	1	1	0	1	-9,020437	274,365932	312,274434	0
15.01.2021	17:27:19	0	0	4,293184	1,92825	330,6996	0,42	83,759	0	1016,48	7,1	9,1	9	1	1	1	1	1	1	1	1	1	0	1	-10,007047	274,23324	310,666725	0
15.01.2021	17:27:20	0	0	3,389376	1,8975	332,6652	0,414	83,769	0	1016,22	7,1	9,1	8,9	1	1	1	1	1	1	1	1	1	0	1	-3,664553	274,375012	317,672855	0
15.01.2021	17:27:21	0	0	4,180231	1,9125	332,4276	0,418	83,777	0	1016,36	7	9,1	8,9	1	1	1	1	1	1	1	1	1	0	1	-7,399577	274,405311	314,079793	0
15.01.2021	17:27:22	0	0	5,084034	1,87725	333,5292	0,412	83,763	0	1016,12	7,1	9,1	9	1	1	1	1	1	1	1	1	1	0	1	-9,654686	274,308521	311,371348	0
15.01.2021	17:27:23	0	0	4,406163	1,90575	327,4236	0,421	83,77	0	1016,36	7,1	9,1	9	1	1	1	1	1	1	1	1	1	0	1	-9,584214	274,40986	311,916474	0
15.01.2021	17:27:24	0	0	4,971055	1,8915	326,4948	0,416	83,762	0	1016,26	7,1	9,1	9	1	1	1	1	1	1	1	1	1	0	1	-5,919662	274,325122	315,184094	0
15.01.2021	17:27:25	0	0	2,937442	1,9155	334,6524	0,417	83,764	0	1016,26	7,1	9,1	9	1	1	1	1	1	1	1	1	1	0	1	-12,544045	274,257298	308,24227	0
15.01.2021	17:27:26	0	0	4,858077	1,96125	327,8304	0,418	83,765	0	1016,12	7,1	9,1	9	1	1	1	1	1	1	1	1	1	0	1	-11,980268	274,391671	309,435186	0
15.01.2021	17:27:27	0	0	2,372549	1,9005	340,6392	0,422	83,767	0	1016,28	7	9,1	9	1	1	1	1	1	1	1	1	1	0	1	-6,624383	274,264822	314,197136	0
15.01.2021	17:27:28	0	0	3,954249	1,8075	332,2944	0,413	83,773	0	1016,22	7,1	9,1	9	1	1	1	1	1	1	1	1	1	0	1	-6,976744	274,255794	313,802532	0
15.01.2021	17:27:29	0	0	3,050439	1,749	326,3436	0,42	83,766	0	1016,3	7,1	9,1	8,9	1	1	1	1	1	1	1	1	1	0	1	-9,372798	274,387126	312,021362	0
15.01.2021	17:27:30	0	0	3,163399	1,7115	325,0944	0,418	83,767	0	1016,34	7,1	9,1	9	1	1	1	1	1	1	1	1	1	0	1	-9,302326	274,322103	311,787293	0
15.01.2021	17:27:31	0	0	3,728292	1,67775	320,3748	0,417	83,757	0	1016,18	7,1	9,1	9	1	1	1	1	1	1	1	1	1	0	1	-10,641297	274,420478	310,909157	0
15.01.2021	17:27:32	0	0	4,63212	1,62525	333,1692	0,415	83,77	0	1016,32	7,1	9,1	9	1	1	1	1	1	1	1	1	1	0	1	-12,614517	274,284399	308,298612	0
15.01.2021	17:27:33	0	0	3,728292	1,59525	326,0232	0,414	83,764	0	1016,4	7,1	9,1	9	1	1	1	1	1	1	1	1	1	0	1	-11,557435	274,260308	309,24296	0
15.01.2021	17:27:34	0	0	2,711485	1,6755	323,694	0,423	83,767	0	1016,38	7	9,1	9	1	1	1	1	1	1	1	1	1	0	1	-6,553911	274,254289	314,218326	0
15.01.2021	17:27:35	0	0	2,711485	1,704	329,3388	0,417	83,769	0	1016,38	7,1	9,1	9	1	1	1	1	1	1	1	1	1	0	1	-12,544045	274,290427	308,397294	0
15.01.2021	17:27:36	0	0	2,937459	1,6575	330,8364	0,418	83,782	0	1016,16	7	9,1	8,9	1	1	1	1	1	1	1	1	1	0	1	-11,698379	274,234743	308,982422	0
15.01.2021	17:27:37	0	0	3,163399	1,5465	343,5552	0,415	83,769	0	1016,28	7,1	9,1	9	1	1	1	1	1	1	1	1	1	0	1	-7,329105	274,332673	313,810005	0
15.01.2021	17:27:38	0	0	2,937442	1,50375	345,0924	0,414	83,771	0	1016,18	7,1	9,1	9	1	1	1	1	1	1	1	1	1	0	1	-8,949965	274,219721	311,660576	0
15.01.2021	17:27:39	0	0	4,180231	1,49325	331,4484	0,418	83,778	0	1016,28	7,1	9,1	8,9	1	1	1	1	1	1	1	1	1	0	1	-10,218464	274,287413	310,708769	0
15.01.2021	17:27:40	0	0	2,937442	1,506	337,1364	0,421	83,773	0	1016,04	7,1	9,1	9	1	1	1	1	1	1	1	1	1	0	1	-10,218464	274,245266	310,511558	0
15.01.2021	17:27:41	0	0	3,389356	1,515	341,3376	0,417	83,78	0	1016,24	7	9,1	9	1	1	1	1	1	1	1	1	1	0	1	-9,020437	274,28892	311,913849	0
15.01.2021	17:27:42	0	0	3,389376	1,48425	321,408	0,422	83,783	0	1016,16	7,1	9,1	8,9	1	1	1	1	1	1	1	1	1	0	1	-6,483439	274,373498	314,846877	0
15.01.2021	17:27:43	0	0	3,276377	1,41075	322,6464	0,418	83,786	0	1016,26	7,1	9,1	9	1	1	1	1	1	1	1	1	1	0	1	-5,073996	274,418961	316,469347	0
15.01.2021	17:27:44	0	0	2,711485	1,29825	318,474	0,415	83,782	0	1016,22	7,1	9,1	9	1	1	1	1	1	1	1	1	1	0	1	-8,879493	274,368958	312,429554	0
15.01.2021	17:27:45	0	0	2,598522	1,299	312,9588	0,415	83,791	0	1016,26	7	9,1	8,9	1	1	1	1	1	1	1	1	1	0	1	-7,751938	274,408343	313,741644	0
15.01.2021	17:27:46	0	0	4,63212	1,26825	314,784	0,412	83,78	0	1016,3	7	9,1	9	1	1	1	1	1	1	1	1	1	0	1	-10,077519	274,388641	311,323738	0
15.01.2021	17:27:47	0	0	3,389356	1,2735	311,346	0,416	83,782	0	1016,22	7,1	9,1	9	1	1	1	1	1	1	1	1	1	0	1	-5,003524	274,249777	315,747603	0
15.01.2021	17:27:48	0	0	3,276397	1,24425	321,894	0,417	83,778	0	1016,22	7	9,1	8,9	1	1	1	1	1	1	1	1	1	0	1	-8,597604	274,282893	312,308474	0
15.01.2021	17:27:49	0	0	3,276377	1,269	330,048	0,417	83,779	0	1016,12	7,1	9,1	9	1	1	1	1	1	1	1	1	1	0	1	-17,688513	274,243762	303,034476	0
15.01.2021	17:27:50	0	0	2,937442	1,2945	328,608	0,419	83,786	0	1016,1	7	9,1	9	1	1	1	1	1	1	1	1	1	0	1	-13,389711	274,252785	307,375489	0
15.01.2021	17:27:51	0	0	4,293184	1,293	332,3196	0,422	83,785	0	1016,22	7,1	9,1	9	1	1	1	1	1	1	1	1	1	0	1	-9,725159	274,270844	311,124536	0
15.01.2021	17:27:52	0	0	3,615335	1,26075	326,8728	0,42	83,783	0	1016,22	7,1	9,1	8,9	1	1	1	1	1	1	1	1	1	0	1	-12,755462	274,418961	308,787881	0
15.01.2021	17:27:53	0	0	3,502334	1,21125	318,186	0,423	83,795	0	1016,22	7,1	9,1	9	1	1	1	1	1	1	1	1	1	0	1	-10,218464	274,406827	311,268012	0
15.01.2021	17:27:54	0	0	2,937442	1,19625	323,7372	0,423	83,783	0	1016,08	7,1	9,1	9	1	1	1	1	1	1	1	1	1	0	1	-9,654686	274,270844	311,195009	0
15.01.2021	17:27:55	0	0	4,293184	1,17525	319,5504	0,42	83,787	0	1016,06	7,1	9,1	9	1	1	1	1	1	1	1	1	1	0	1	-16,631431	274,358368	304,628011	0
15.01.2021	17:27:56	0	0	3,954272	1,242	315,2088	0,419	83,79	0	1016,26	7	9,1	8,9	1	1	1	1	1	1	1	1	1	0	1	-9,372798	274,231738	311,293946	0
15.01.2021	17:27:57	0	0	4,745098	1,30875	318,4344	0,417	83,794	0	1016,28	7,1	9,1	9	1	1	1	1	1	1	1	1	1	0	1	-14,023961	274,346272	307,178831	0
15.01.2021	17:27:58	0	0	2,711501	1,38375	314,118	0,421	83,789	0	1016,28	7,1	9,1	8,9	1	1	1	1	1	1	1	1	1	0	1	-10,711769	274,236246	309,976062	0
15.01.2021	17:27:59	0	0	3,954272	1,43625	317,7144	0,416	83,797	0	1016,18	7,1	9,1	8,9	1	1	1	1	1	1	1	1	1	0	1	-11,980268	274,331163	309,15177	0
15.01.2021	17:28:00	0	0	3,389376	1,479	322,9164	0,413	83,773	0	1016,22	7,1	9,1	8,9	1	1	1	1	1	1	1	1	1	0	1	-10,852713	274,248273	309,891378	0
15.01.2021	17:28:01	0	0	3,389376	1,479	322,9164	0,413	83,773	0	1016,22	7,1	9,1	8,9	1	1	1	1	1	1	1	1	1	0	1	-7,963354	274,317575	313,105063	0
15.01.2021	17:28:02	0	0	2,711501	1,4415	326,2788	0,415	83,79	0	1016,2	7	9,1	8,9	1	1	1	1	1	1	1	1	1	0	1	-9,090909	274,41441	312,431103	0
15.01.2021	17:28:03	0	0	3,954272	1,43925	319,1904	0,416	83,795	0	1016,4	7	9,1	8,9	1	1	1	1	1	1	1	1	1	0	1	-9,090909	274,285906	311,829271	0
15.01.2021	17:28:04	0	0	2,82448	1,47675	320,8032	0,417	83,776	0	1016,18	7	9,1	8,9	1	1	1	1	1	1	1	1	1	0	1	-13,742072	274,237749	306,952789	0
15.01.2021	17:28:05	0	0	3,615313	1,55025	334,2492	0,417	83,789	0	1016,12	7	9,1	9	1	1	1	1	1	1	1	1	1	0	1	-14,235377	274,387126	307,158783	0
15.01.2021	17:28:06	0	0	3,502334	1,5105	336,0744	0,417	83,794	0	1016,24	7	9,1	9	1	1	1	1	1	1	1	1	1	0	1	-12,121212	274,302488	308,87658	0
15.01.2021	17:28:07	0	0	2,033614	1,4115	331,11	0,422	83,782	0	1016,18	7,1	9,1	9	1	1	1	1	1	1	1	1	1	0	1	-11,486963	274,411376	310,020833	0
15.01.2021	17:28:08	0	0	4,180231	1,347	323,6652	0,421	83,805	0	1016,1	7,1	9,1	8,9	1	1	1	1	1	1	1	1	1	0	1	-10,993658	274,231738	309,673086	0
15.01.2021	17:28:09	0	0	4,180206	1,27875	330,7968	0,418	83,797	0	1016,44	7	9,1	9	1	1	1	1	1	1	1	1	1	0	1	-7,751938	274,353831	313,486255	0
15.01.2021	17:28:10	0	0	2,824463	1,2525	325,0908	0,417	83,795	0	1016,28	7	9,1	9	1	1	1	1	1	1	1	1	1	0	1	-14,094433	274,234743	306,586368	0
15.01.2021	17:28:11	0	0	2,259571	1,221	325,4904	0,418	83,799	0	1016,42	7,1	9,1	9	1	1	1	1	1	1	1	1	1	0	1	-9,936575	274,347783	311,273295	0
15.01.2021	17:28:12	0	0	2,824463	1,19175	332,01	0,417	83,796	0	1016,24	7,1	9,1	9	1	1	1	1	1	1	1	1	1	0	1	-12,191684	274,227231	308,453979	0
15.01.2021	17:28:13	0	0	3,84127	1,19625	331,4016	0,415	83,788	0	1016,24	7	9,1	9	1	1	1	1	1	1	1	1	1	0	1	-10,782241	274,347783	310,427629	0
15.01.2021	17:28:14	0	0	4,406189	1,1415	316,9548	0,413	83,777	0	1016,34	7	9,1	8,9	1	1	1	1	1	1	1	1	1	0	1	-11,275546	274,394701	310,154107	0
15.01.2021	17:28:15	0	0	3,276377	1,16625	317,7396	0,417	83,798	0	1016,38	7,1	9,1	9	1	1	1	1	1	1	1	1	1	0	1	-11,909796	274,224226	308,721817	0
15.01.2021	17:28:16	0	0	3,728292	1,18875	331,1064	0,42	83,792	0	1016,34	7	9,1	9	1	1	1	1	1	1	1	1	1	0	1	-7,681466	274,375012	313,655941	0
15.01.2021	17:28:17	0	0	4,63212	1,31775	320,7744	0,414	83,786	0	1016	7	9,1	9	1	1	1	1	1	1	1	1	1	0	1	-11,909796	274,261812	308,89764	0
15.01.2021	17:28:18	0	0	2,598506	1,4655	330,75	0,419	83,775	0	1016,28	7,1	9,1	9	1	1	1	1	1	1	1	1	1	0	1	-10,007047	274,391671	311,408406	0
15.01.2021	17:28:19	0	0	4,632148	1,61925	322,1964	0,414	83,791	0	1016,16	7	9,1	8,9	1	1	1	1	1	1	1	1	1	0	1	-11,346018	274,420478	310,204435	0
15.01.2021	17:28:20	0	0	4,406163	1,6695	332,3664	0,419	83,794	0	1016,28	7,1	9,1	9	1	1	1	1	1	1	1	1	1	0	1	-9,795631	274,350807	311,428399	0
15.01.2021	17:28:21	0	0	2,598522	1,662	319,1076	0,418	83,784	0	1016,16	7,1	9,1	8,9	1	1	1	1	1	1	1	1	1	0	1	-10,288936	274,368958	311,020111	0
15.01.2021	17:28:22	0	0	4,406163	1,6035	321,8112	0,422	83,796	0	1016,24	7	9,1	9	1	1	1	1	1	1	1	1	1	0	1	-11,486963	274,412893	310,027941	0
15.01.2021	17:28:23	0	0	2,824463	1,57125	326,0484	0,415	83,789	0	1016,24	7	9,1	9	1	1	1	1	1	1	1	1	1	0	1	-11,205074	274,316065	309,856278	0
15.01.2021	17:28:24	0	0	2,937442	1,63575	321,408	0,419	83,795	0	1016,18	7,1	9,1	9	1	1	1	1	1	1	1	1	1	0	1	-7,610994	274,296456	313,358567	0
15.01.2021	17:28:25	0	0	4,745098	1,6635	324,3276	0,421	83,789	0	1016,24	7	9,1	9	1	1	1	1	1	1	1	1	1	0	1	-15,292459	274,41441	306,229553	0
15.01.2021	17:28:26	0	0	3,163418	1,722	327,78	0,419	83,801	0	1016,2	7	9,1	8,9	1	1	1	1	1	1	1	1	1	0	1	-8,597604	274,322103	312,492014	0
15.01.2021	17:28:27	0	0	3,389356	1,731	324,3276	0,419	83,783	0	1016,26	7	9,1	9	1	1	1	1	1	1	1	1	1	0	1	-9,372798	274,40986	312,127891	0
15.01.2021	17:28:28	0	0	4,63212	1,7025	322,578	0,418	83,8	0	1016,22	7,1	9,1	9	1	1	1	1	1	1	1	1	1	0	1	-9,936575	274,294949	311,025929	0
15.01.2021	17:28:29	0	0	3,389356	1,58625	333,8136	0,424	83,799	0	1016,38	7	9,1	9	1	1	1	1	1	1	1	1	1	0	1	-5,355884	274,400763	316,102174	0
15.01.2021	17:28:30	0	0	4,632148	1,62075	333,504	0,416	83,795	0	1016,16	7	9,1	8,9	1	1	1	1	1	1	1	1	1	0	1	-10,993658	274,368958	310,315389	0
15.01.2021	17:28:31	0	0	4,632148	1,66875	332,3952	0,422	83,804	0	1016,26	7,1	9,1	8,9	1	1	1	1	1	1	1	1	1	0	1	-7,82241	274,254289	312,949828	0
15.01.2021	17:28:32	0	0	3,728292	1,734	327,8916	0,42	83,786	0	1016,34	7	9,1	9	1	1	1	1	1	1	1	1	1	0	1	-11,41649	274,415927	310,112631	0
15.01.2021	17:28:33	0	0	4,519168	1,689	327,4056	0,418	83,794	0	1016,2	7,1	9,1	8,9	1	1	1	1	1	1	1	1	1	0	1	-10,42988	274,297964	310,546737	0
15.01.2021	17:28:34	0	0	2,598506	1,6875	326,6964	0,422	83,8	0	1016,42	7,1	9,1	9	1	1	1	1	1	1	1	1	1	0	1	-8,597604	274,263317	312,216873	0
15.01.2021	17:28:35	0	0	3,615313	1,7115	334,6632	0,415	83,796	0	1016,04	7,1	9,1	9	1	1	1	1	1	1	1	1	1	0	1	-9,725159	274,281386	311,173869	0
15.01.2021	17:28:36	0	0	2,485543	1,64625	326,8368	0,414	83,784	0	1016,12	7,1	9,1	8,9	1	1	1	1	1	1	1	1	1	0	1	-1,902748	274,245266	318,827274	0
15.01.2021	17:28:37	0	0	3,841293	1,57875	334,8792	0,42	83,806	0	1016,28	7	9,1	8,9	1	1	1	1	1	1	1	1	1	0	1	-10,147992	274,340227	311,02649	0
15.01.2021	17:28:38	0	0	4,971085	1,56	325,1736	0,414	83,776	0	1016,24	7	9,1	8,9	1	1	1	1	1	1	1	1	1	0	1	-9,795631	274,240755	310,913293	0
15.01.2021	17:28:39	0	0	2,824463	1,632	332,7408	0,419	83,791	0	1016,2	7,1	9,1	9	1	1	1	1	1	1	1	1	1	0	1	-12,332629	274,35988	308,933898	0
15.01.2021	17:28:40	0	0	3,615313	1,61625	331,1028	0,418	83,789	0	1016,18	7	9,1	9	1	1	1	1	1	1	1	1	1	0	1	-13,460183	274,396216	307,97657	0
15.01.2021	17:28:41	0	0	2,711485	1,578	330,7896	0,417	83,786	0	1016,14	7,1	9,1	9	1	1	1	1	1	1	1	1	1	0	1	-12,332629	274,362906	308,948068	0
15.01.2021	17:28:42	0	0	2,598522	1,5675	312,4188	0,426	83,8	0	1016,28	7	9,1	8,9	1	1	1	1	1	1	1	1	1	0	1	-10,147992	274,237749	310,546869	0
15.01.2021	17:28:43	0	0	2,711501	1,46475	323,6904	0,419	83,791	0	1016,22	7	9,1	8,9	1	1	1	1	1	1	1	1	1	0	1	-12,403101	274,307013	308,615872	0
15.01.2021	17:28:44	0	0	4,745127	1,362	329,256	0,417	83,795	0	1016,26	7,1	9,1	8,9	1	1	1	1	1	1	1	1	1	0	1	-11,275546	274,405311	310,203824	0
15.01.2021	17:28:45	0	0	4,632148	1,2795	322,8696	0,42	83,8	0	1016,24	7	9,1	8,9	1	1	1	1	1	1	1	1	1	0	1	-11,41649	274,343249	309,772145	0
15.01.2021	17:28:46	0	0	3,389356	1,26225	318,4488	0,42	83,792	0	1016,16	7	9,1	9	1	1	1	1	1	1	1	1	1	0	1	-6,765328	274,384097	314,61464	0
15.01.2021	17:28:47	0	0	3,389376	1,287	323,352	0,423	83,804	0	1016,26	7,1	9,1	8,9	1	1	1	1	1	1	1	1	1	0	1	-10,570825	274,399247	310,880132	0
15.01.2021	17:28:48	0	0	4,180206	1,305	326,862	0,424	83,798	0	1016,44	7	9,1	9	1	1	1	1	1	1	1	1	1	0	1	-7,751938	274,278374	313,132991	0
15.01.2021	17:28:49	0	0	3,276397	1,34175	323,7444	0,423	83,795	0	1016,28	7,1	9,1	8,9	1	1	1	1	1	1	1	1	1	0	1	-7,117689	274,227231	313,527974	0
15.01.2021	17:28:50	0	0	5,197012	1,365	332,4024	0,422	83,804	0	1016,22	7	9,1	9	1	1	1	1	1	1	1	1	1	0	1	-8,315715	274,356855	312,936643	0
15.01.2021	17:28:51	0	0	2,598522	1,3215	345,0996	0,42	83,808	0	1016,18	7	9,1	8,9	1	1	1	1	1	1	1	1	1	0	1	-11,768851	274,225728	308,869786	0
15.01.2021	17:28:52	0	0	4,858106	1,332	337,9644	0,423	83,8	0	1016,26	7,1	9,1	8,9	1	1	1	1	1	1	1	1	1	0	1	-10,007047	274,352319	311,224064	0
15.01.2021	17:28:53	0	0	3,05042	1,31325	336,3732	0,42	83,803	0	1016,24	7	9,1	9	1	1	1	1	1	1	1	1	1	0	1	-9,936575	274,23324	310,737197	0
15.01.2021	17:28:54	0	0	3,389356	1,30875	330,7068	0,416	83,808	0	1016,16	7	9,1	9	1	1	1	1	1	1	1	1	1	0	1	-9,866103	274,329652	311,258864	0
15.01.2021	17:28:55	0	0	2,82448	1,34025	327,3804	0,417	83,794	0	1016,08	7	9,1	8,9	1	1	1	1	1	1	1	1	1	0	1	-10,852713	274,236246	309,835117	0
15.01.2021	17:28:56	0	0	2,598522	1,34325	328,8708	0,419	83,805	0	1016,4	7,1	9,1	8,9	1	1	1	1	1	1	1	1	1	0	1	-7,540521	274,316065	313,520831	0
15.01.2021	17:28:57	0	0	4,29321	1,3425	328,8636	0,421	83,803	0	1016,36	7	9,1	8,9	1	1	1	1	1	1	1	1	1	0	1	-8,80902	274,227231	311,836642	0
15.01.2021	17:28:58	0	0	4,519168	1,35675	325,548	0,42	83,798	0	1016,34	7	9,1	8,9	1	1	1	1	1	1	1	1	1	0	1	-9,44327	274,365932	311,851601	0
15.01.2021	17:28:59	0	0	3,163399	1,36275	324,3528	0,421	83,792	0	1016,28	7,1	9,1	9	1	1	1	1	1	1	1	1	1	0	1	-6,624383	274,393186	314,798169	0
15.01.2021	17:29:00	0	0	4,745127	1,3455	322,5924	0,42	83,81	0	1016,24	7,2	9,1	8,9	1	1	1	1	1	1	1	1	1	0	1	-10,641297	274,340227	310,533185	0
15.01.2021	17:29:01	0	0	4,745127	1,3455	322,5924	0,42	83,81	0	1016,24	7,2	9,1	8,9	1	1	1	1	1	1	1	1	1	0	1	-10,641297	274,340227	310,533185	0
15.01.2021	17:29:02	0	0	3,050439	1,3485	332,4096	0,422	83,79	0	1016,36	7	9,1	8,9	1	1	1	1	1	1	1	1	1	0	1	-12,825934	274,224226	307,805678	0
15.01.2021	17:29:03	0	0	2,711485	1,34775	335,3076	0,42	83,798	0	1016,32	7,1	9,1	9	1	1	1	1	1	1	1	1	1	0	1	-7,610994	274,242259	313,104962	0
15.01.2021	17:29:04	0	0	2,82448	1,3665	326,808	0,422	83,813	0	1016,22	7	9,1	8,9	1	1	1	1	1	1	1	1	1	0	1	-8,033827	274,297964	312,94279	0
15.01.2021	17:29:05	0	0	3,954249	1,35975	321,8148	0,418	83,812	0	1016,22	7,1	9,1	9	1	1	1	1	1	1	1	1	1	0	1	-8,597604	274,245266	312,132418	0
15.01.2021	17:29:06	0	0	2,82448	1,36125	324,3132	0,424	83,807	0	1016,24	7,1	9,1	8,9	1	1	1	1	1	1	1	1	1	0	1	-5,21494	274,249777	315,536187	0
15.01.2021	17:29:07	0	0	3,502355	1,3365	328,9464	0,423	83,817	0	1016,28	7,1	9,1	8,9	1	1	1	1	1	1	1	1	1	0	1	-13,248767	274,275361	307,622067	0
15.01.2021	17:29:08	0	0	4,632148	1,3995	325,5696	0,42	83,791	0	1016,3	7	9,1	8,9	1	1	1	1	1	1	1	1	1	0	1	-8,245243	274,408343	313,248339	0
15.01.2021	17:29:09	0	0	4,067227	1,40475	315,2484	0,417	83,799	0	1016,14	7	9,1	9	1	1	1	1	1	1	1	1	1	0	1	-8,879493	274,367445	312,422466	0
15.01.2021	17:29:10	0	0	4,632148	1,371	304,7004	0,418	83,803	0	1016,38	7,1	9,1	8,9	1	1	1	1	1	1	1	1	1	0	1	-10,852713	274,376526	310,491786	0
15.01.2021	17:29:11	0	0	3,728292	1,33725	309,2364	0,423	83,805	0	1016,22	7	9,1	9	1	1	1	1	1	1	1	1	1	0	1	-13,953488	274,35988	307,313038	0
15.01.2021	17:29:12	0	0	4,180231	1,26	314,064	0,423	83,795	0	1016,36	7,1	9,1	8,9	1	1	1	1	1	1	1	1	1	0	1	-10,42988	274,228733	310,222809	0
15.01.2021	17:29:13	0	0	2,711485	1,206	319,1616	0,422	83,818	0	1016,36	7,1	9,1	9	1	1	1	1	1	1	1	1	1	0	1	-13,812544	274,299472	307,171131	0
15.01.2021	17:29:14	0	0	3,841293	1,131	319,5036	0,419	83,806	0	1016,2	7	9,1	8,9	1	1	1	1	1	1	1	1	1	0	1	-10,782241	274,417444	310,753991	0
15.01.2021	17:29:15	0	0	3,163418	1,1175	313,2828	0,418	83,806	0	1016,22	7,1	9,1	8,9	1	1	1	1	1	1	1	1	1	0	1	-6,976744	274,319084	314,09874	0
15.01.2021	17:29:16	0	0	3,615335	1,12575	310,6764	0,419	83,8	0	1016,16	7	9,1	8,9	1	1	1	1	1	1	1	1	1	0	1	-8,738548	274,403795	312,733718	0
15.01.2021	17:29:17	0	0	5,422969	1,1265	300,3804	0,422	83,817	0	1016,28	7,1	9,1	9	1	1	1	1	1	1	1	1	1	0	1	-12,473573	274,293441	308,481875	0
15.01.2021	17:29:18	0	0	2,937459	1,1355	315,198	0,422	83,805	0	1016,22	7	9,1	8,9	1	1	1	1	1	1	1	1	1	0	1	-8,315715	274,221223	312,301849	0
15.01.2021	17:29:19	0	0	2,598522	1,13775	323,7372	0,423	83,806	0	1016,28	7,2	9,1	8,9	1	1	1	1	1	1	1	1	1	0	1	-9,584214	274,376526	311,760285	0
15.01.2021	17:29:20	0	0	2,711501	1,152	334,6596	0,428	83,806	0	1016,24	7,1	9,1	8,9	1	1	1	1	1	1	1	1	1	0	1	-7,399577	274,390156	314,008778	0
15.01.2021	17:29:21	0	0	4,519168	1,119	323,0568	0,42	83,79	0	1016,14	7,1	9,1	8,9	1	1	1	1	1	1	1	1	1	0	1	-11,557435	274,332673	309,581676	0
15.01.2021	17:29:22	0	0	4,858106	1,08525	322,56	0,424	83,803	0	1016,3	7,1	9,1	8,9	1	1	1	1	1	1	1	1	1	0	1	-8,879493	274,243762	311,843496	0
15.01.2021	17:29:23	0	0	2,485528	1,0605	310,7916	0,423	83,801	0	1016,34	7	9,1	9	1	1	1	1	1	1	1	1	1	0	1	-12,825934	274,267833	308,009672	0
15.01.2021	17:29:24	0	0	3,954249	1,0485	322,2144	0,421	83,809	0	1016,4	7,1	9,1	9	1	1	1	1	1	1	1	1	1	0	1	-9,936575	274,415927	311,592547	0
15.01.2021	17:29:25	0	0	3,728292	1,0425	333,8568	0,426	83,802	0	1016,18	7,1	9,1	9	1	1	1	1	1	1	1	1	1	0	1	-11,980268	274,246769	308,756789	0
15.01.2021	17:29:26	0	0	4,63212	1,13025	340,5924	0,417	83,803	0	1016,26	7	9,1	9	1	1	1	1	1	1	1	1	1	0	1	-7,470049	274,319084	313,605435	0
15.01.2021	17:29:27	0	0	4,406189	1,2525	325,98	0,415	83,8	0	1016,24	7,1	9,1	8,9	1	1	1	1	1	1	1	1	1	0	1	-8,597604	274,27235	312,259137	0
15.01.2021	17:29:28	0	0	2,937442	1,335	331,1784	0,415	83,807	0	1016,22	7	9,1	9	1	1	1	1	1	1	1	1	1	0	1	-8,386187	274,255794	312,393088	0
15.01.2021	17:29:29	0	0	2,82448	1,3935	330,8184	0,42	83,801	0	1016,24	7	9,1	8,9	1	1	1	1	1	1	1	1	1	0	1	-4,298802	274,236246	316,389029	0
15.01.2021	17:29:30	0	0	4,745127	1,40025	323,01	0,419	83,816	0	1016,4	7,1	9,1	8,9	1	1	1	1	1	1	1	1	1	0	1	-5,708245	274,266328	315,120317	0
15.01.2021	17:29:31	0	0	2,598522	1,437	334,5696	0,422	83,806	0	1016,26	7	9,1	8,9	1	1	1	1	1	1	1	1	1	0	1	-7,188161	274,246769	313,548896	0
15.01.2021	17:29:32	0	0	4,067252	1,44675	336,7188	0,424	83,804	0	1016,18	7,1	9,1	8,9	1	1	1	1	1	1	1	1	1	0	1	-6,624383	274,405311	314,854987	0
15.01.2021	17:29:33	0	0	2,937442	1,47825	335,6784	0,419	83,79	0	1016,28	7,1	9,1	9	1	1	1	1	1	1	1	1	1	0	1	-13,248767	274,332673	307,890344	0
15.01.2021	17:29:34	0	0	2,937442	1,49025	341,298	0,416	83,805	0	1016,28	7	9,1	9	1	1	1	1	1	1	1	1	1	0	1	-8,80902	274,23324	311,864752	0
15.01.2021	17:29:35	0	0	3,389356	1,446	336,7656	0,422	83,803	0	1016,1	7,1	9,1	9	1	1	1	1	1	1	1	1	1	0	1	-10,359408	274,267833	310,476198	0
15.01.2021	17:29:36	0	0	3,050439	1,38225	334,9476	0,417	83,8	0	1016,16	7	9,1	8,9	1	1	1	1	1	1	1	1	1	0	1	-12,544045	274,361393	308,729566	0
15.01.2021	17:29:37	0	0	3,163399	1,29375	338,0112	0,425	83,801	0	1016,26	7,1	9,1	9	1	1	1	1	1	1	1	1	1	0	1	-7,047216	274,282893	313,858862	0
15.01.2021	17:29:38	0	0	3,276397	1,21425	343,17	0,417	83,792	0	1016,24	7	9,1	8,9	1	1	1	1	1	1	1	1	1	0	1	-7,399577	274,240755	313,309346	0
15.01.2021	17:29:39	0	0	2,711501	1,1295	334,6164	0,419	83,8	0	1016,2	7,1	9,1	8,9	1	1	1	1	1	1	1	1	1	0	1	-12,191684	274,258803	308,60167	0
15.01.2021	17:29:40	0	0	2,711501	1,10475	321,4656	0,423	83,803	0	1016,1	7	9,1	8,9	1	1	1	1	1	1	1	1	1	0	1	-11,275546	274,371985	310,047679	0
15.01.2021	17:29:41	0	0	3,163418	1,116	338,0292	0,422	83,808	0	1016,24	7,1	9,1	8,9	1	1	1	1	1	1	1	1	1	0	1	-14,446794	274,243762	306,276195	0
15.01.2021	17:29:42	0	0	3,05042	1,107	337,1004	0,415	83,79	0	1016,2	7	9,1	9	1	1	1	1	1	1	1	1	1	0	1	-5,637773	274,347783	315,572097	0
15.01.2021	17:29:43	0	0	3,615335	1,1415	339,1308	0,419	83,793	0	1016,18	7	9,1	8,9	1	1	1	1	1	1	1	1	1	0	1	-3,735025	274,225728	316,903612	0
15.01.2021	17:29:44	0	0	3,050439	1,158	334,6668	0,422	83,817	0	1016,28	7,1	9,1	8,9	1	1	1	1	1	1	1	1	1	0	1	-13,812544	274,353831	307,425649	0
15.01.2021	17:29:45	0	0	2,711501	1,1955	328,9608	0,42	83,821	0	1016,22	7,1	9,1	8,9	1	1	1	1	1	1	1	1	1	0	1	-9,584214	274,399247	311,866742	0
15.01.2021	17:29:46	0	0	3,163418	1,2375	333,2628	0,422	83,823	0	1016,3	7,1	9,1	8,9	1	1	1	1	1	1	1	1	1	0	1	-11,980268	274,343249	309,208367	0
15.01.2021	17:29:47	0	0	3,502355	1,23375	331,146	0,423	83,796	0	1016,22	7,1	9,1	8,9	1	1	1	1	1	1	1	1	1	0	1	-8,80902	274,390156	312,599335	0
15.01.2021	17:29:48	0	0	3,389376	1,266	342,0756	0,417	83,797	0	1016,3	7,1	9,1	8,9	1	1	1	1	1	1	1	1	1	0	1	-8,245243	274,37804	313,106348	0
15.01.2021	17:29:49	0	0	5,084064	1,278	341,6724	0,428	83,809	0	1016,26	7,1	9,1	8,9	1	1	1	1	1	1	1	1	1	0	1	-8,386187	274,218219	312,217331	0
15.01.2021	17:29:50	0	0	3,389376	1,2675	332,4168	0,421	83,796	0	1016,38	7,1	9,1	8,9	1	1	1	1	1	1	1	1	1	0	1	-9,372798	274,355343	311,872477	0
15.01.2021	17:29:51	0	0	3,841293	1,27875	332,8092	0,42	83,808	0	1016,3	7,1	9,1	8,9	1	1	1	1	1	1	1	1	1	0	1	-12,332629	274,230235	308,327087	0
15.01.2021	17:29:52	0	0	3,728314	1,284	333,4068	0,416	83,793	0	1016,12	7,1	9,1	8,9	1	1	1	1	1	1	1	1	1	0	1	-9,090909	274,285906	311,829271	0
15.01.2021	17:29:53	0	0	2,485543	1,3005	338,8356	0,417	83,814	0	1016,18	7,1	9,1	8,9	1	1	1	1	1	1	1	1	1	0	1	-10,288936	274,237749	310,405925	0
15.01.2021	17:29:54	0	0	3,502355	1,242	337,572	0,416	83,792	0	1016,12	7,1	9,1	8,9	1	1	1	1	1	1	1	1	1	0	1	-11,768851	274,284399	309,144278	0
15.01.2021	17:29:55	0	0	3,841293	1,19325	327,7728	0,419	83,802	0	1016,22	7,1	9,1	8,9	1	1	1	1	1	1	1	1	1	0	1	-9,795631	274,399247	311,655326	0
15.01.2021	17:29:56	0	0	5,197044	1,1925	325,6776	0,424	83,802	0	1016,24	7,1	9,1	8,9	1	1	1	1	1	1	1	1	1	0	1	-8,104299	274,34476	313,091414	0
15.01.2021	17:29:57	0	0	3,050439	1,14975	330,048	0,423	83,807	0	1016,38	7,1	9,1	8,9	1	1	1	1	1	1	1	1	1	0	1	-10,007047	274,402279	311,458115	0
15.01.2021	17:29:58	0	0	4,406189	1,14	315,81	0,422	83,819	0	1016,32	7,1	9,1	8,9	1	1	1	1	1	1	1	1	1	0	1	-9,513742	274,397732	311,930112	0
15.01.2021	17:29:59	0	0	3,954272	1,09425	313,9488	0,421	83,808	0	1016,26	7	9,1	8,9	1	1	1	1	1	1	1	1	1	0	1	-9,513742	274,267833	311,321864	0
15.01.2021	17:30:00	0	0	2,82448	1,12125	329,3244	0,42	83,816	0	1016,2	7,1	9,1	8,9	1	1	1	1	1	1	1	1	1	0	1	-11,486963	274,285906	309,433218	0
15.01.2021	17:30:01	0	0	2,82448	1,12125	329,3244	0,42	83,816	0	1016,2	7,1	9,1	8,9	1	1	1	1	1	1	1	1	1	0	1	-10,993658	274,225728	309,64498	0
15.01.2021	17:30:02	0	0	2,711501	1,18725	320,4504	0,417	83,82	0	1016,16	7,1	9,1	8,9	1	1	1	1	1	1	1	1	1	0	1	-12,262156	274,239252	308,439735	0
15.01.2021	17:30:03	0	0	4,067252	1,2675	334,6992	0,42	83,822	0	1016,18	7,1	9,1	8,9	1	1	1	1	1	1	1	1	1	0	1	-10,288936	274,367445	311,013022	0
15.01.2021	17:30:04	0	0	5,084064	1,34325	339,8148	0,426	83,815	0	1016,2	7,1	9,1	8,9	1	1	1	1	1	1	1	1	1	0	1	-6,906272	274,400763	314,551787	0
15.01.2021	17:30:05	0	0	3,728314	1,404	342,3924	0,421	83,811	0	1016,24	7,1	9,1	8,9	1	1	1	1	1	1	1	1	1	0	1	-8,879493	274,340227	312,294989	0
15.01.2021	17:30:06	0	0	3,954272	1,4085	356,1804	0,423	83,795	0	1016,28	7,1	9,1	8,9	1	1	1	1	1	1	1	1	1	0	1	-11,839323	274,391671	309,57613	0
15.01.2021	17:30:07	0	0	2,259584	1,3845	345,348	0,421	83,815	0	1016,24	7,1	9,1	8,9	1	1	1	1	1	1	1	1	1	0	1	-12,332629	274,270844	308,517066	0
15.01.2021	17:30:08	0	0	3,954272	1,32375	343,08	0,42	83,798	0	1016,38	7,1	9,1	8,9	1	1	1	1	1	1	1	1	1	0	1	-11,698379	274,370471	309,617757	0
15.01.2021	17:30:09	0	0	4,519141	1,281	351,3276	0,415	83,802	0	1016,32	7,1	9,1	9	1	1	1	1	1	1	1	1	1	0	1	-10,641297	274,245266	310,088725	0
15.01.2021	17:30:10	0	0	3,84127	1,194	341,6472	0,421	83,807	0	1016,16	7,1	9,1	9	1	1	1	1	1	1	1	1	1	0	1	-9,584214	274,367445	311,717744	0
15.01.2021	17:30:11	0	0	2,711501	1,20675	335,0376	0,42	83,824	0	1016,08	7,1	9,1	8,9	1	1	1	1	1	1	1	1	1	0	1	-9,44327	274,267833	311,392336	0
15.01.2021	17:30:12	0	0	3,954272	1,329	344,2356	0,423	83,803	0	1016,16	7,1	9,1	8,9	1	1	1	1	1	1	1	1	1	0	1	-8,315715	274,263317	312,498762	0
15.01.2021	17:30:13	0	0	3,050439	1,44825	348,2676	0,419	83,805	0	1016,18	7,1	9,1	8,9	1	1	1	1	1	1	1	1	1	0	1	-12,403101	274,216718	308,193396	0
15.01.2021	17:30:14	0	0	3,728292	1,5315	338,67	0,423	83,812	0	1016,3	7,1	9,1	9	1	1	1	1	1	1	1	1	1	0	1	-4,439746	274,302488	316,558045	0
15.01.2021	17:30:15	0	0	3,502355	1,5555	337,5576	0,42	83,811	0	1016,18	7,1	9,1	8,9	1	1	1	1	1	1	1	1	1	0	1	-9,372798	274,403795	312,099468	0
15.01.2021	17:30:16	0	0	4,406189	1,629	333,198	0,418	83,802	0	1016,3	7,1	9,1	8,9	1	1	1	1	1	1	1	1	1	0	1	-11,768851	274,30098	309,221882	0
15.01.2021	17:30:17	0	0	3,050439	1,72125	342,774	0,424	83,817	0	1016,28	7,1	9,1	8,9	1	1	1	1	1	1	1	1	1	0	1	-5,637773	274,391671	315,777681	0
15.01.2021	17:30:18	0	0	2,82448	1,68375	327,8016	0,42	83,817	0	1016,34	7,1	9,1	8,9	1	1	1	1	1	1	1	1	1	0	1	-10,359408	274,299472	310,624267	0
15.01.2021	17:30:19	0	0	3,502334	1,662	336,4308	0,42	83,814	0	1016,28	7,1	9,1	9	1	1	1	1	1	1	1	1	1	0	1	-11,06413	274,400763	310,393929	0
15.01.2021	17:30:20	0	0	4,519168	1,66425	334,926	0,417	83,798	0	1016,12	7,1	9,1	8,9	1	1	1	1	1	1	1	1	1	0	1	-10,218464	274,367445	311,083495	0
15.01.2021	17:30:21	0	0	3,050439	1,65675	339,7572	0,416	83,806	0	1016,24	7,1	9,1	8,9	1	1	1	1	1	1	1	1	1	0	1	-7,610994	274,347783	313,598876	0
15.01.2021	17:30:22	0	0	3,276397	1,65225	338,418	0,42	83,802	0	1016,3	7,1	9,1	8,9	1	1	1	1	1	1	1	1	1	0	1	-9,654686	274,228733	310,998003	0
15.01.2021	17:30:23	0	0	2,711501	1,662	338,2164	0,423	83,822	0	1016,26	7,1	9,1	8,9	1	1	1	1	1	1	1	1	1	0	1	-9,725159	274,30098	311,265574	0
15.01.2021	17:30:24	0	0	3,163418	1,647	340,5672	0,417	83,826	0	1016,3	7,1	9,1	8,9	1	1	1	1	1	1	1	1	1	0	1	-11,205074	274,228733	309,447615	0
15.01.2021	17:30:25	0	0	2,711501	1,61925	339,7752	0,421	83,814	0	1016,22	7,1	9,1	8,9	1	1	1	1	1	1	1	1	1	0	1	-6,694856	274,269338	314,147795	0
15.01.2021	17:30:26	0	0	4,519168	1,536	331,4664	0,415	83,801	0	1016,12	7,1	9,1	8,9	1	1	1	1	1	1	1	1	1	0	1	-8,597604	274,393186	312,824949	0
15.01.2021	17:30:27	0	0	2,82448	1,47075	339,858	0,422	83,822	0	1016,26	7,1	9,1	8,9	1	1	1	1	1	1	1	1	1	0	1	-8,527132	274,236246	312,160699	0
15.01.2021	17:30:28	0	0	3,615313	1,404	327,438	0,416	83,824	0	1016,2	7,1	9,1	9	1	1	1	1	1	1	1	1	1	0	1	-10,007047	274,396216	311,429706	0
15.01.2021	17:30:29	0	0	4,406189	1,323	340,9812	0,422	83,822	0	1016,3	7,1	9,1	8,9	1	1	1	1	1	1	1	1	1	0	1	-13,530655	274,34476	307,665057	0
15.01.2021	17:30:30	0	0	4,067252	1,275	338,2776	0,423	83,814	0	1016,08	7,1	9,1	8,9	1	1	1	1	1	1	1	1	1	0	1	-11,980268	274,216718	308,616229	0
15.01.2021	17:30:31	0	0	3,954272	1,275	336,0312	0,423	83,825	0	1016,14	7,1	9,1	8,9	1	1	1	1	1	1	1	1	1	0	1	-11,06413	274,334184	310,082054	0
15.01.2021	17:30:32	0	0	3,389376	1,221	346,7844	0,423	83,829	0	1016,34	7,1	9,1	8,9	1	1	1	1	1	1	1	1	1	0	1	-10,288936	274,222724	310,335652	0
15.01.2021	17:30:33	0	0	4,632148	1,212	333,4608	0,424	83,835	0	1016,24	7,1	9,1	8,9	1	1	1	1	1	1	1	1	1	0	1	-10,288936	274,23324	310,384836	0
15.01.2021	17:30:34	0	0	2,711501	1,1805	319,0752	0,422	83,831	0	1016,28	7,1	9,1	8,9	1	1	1	1	1	1	1	1	1	0	1	-10,782241	274,263317	310,032236	0
15.01.2021	17:30:35	0	0	4,745127	1,149	319,1688	0,416	83,824	0	1016,42	7,1	9,1	8,9	1	1	1	1	1	1	1	1	1	0	1	-9,725159	274,388641	311,676099	0
15.01.2021	17:30:36	0	0	3,163418	1,06575	328,8924	0,42	83,808	0	1016,18	7,1	9,1	8,9	1	1	1	1	1	1	1	1	1	0	1	-10,359408	274,234743	310,321393	0
15.01.2021	17:30:37	0	0	3,276397	1,07325	329,2488	0,424	83,83	0	1016,58	7,1	9,1	8,9	1	1	1	1	1	1	1	1	1	0	1	-8,80902	274,373498	312,521295	0
15.01.2021	17:30:38	0	0	4,406189	1,14525	332,424	0,418	83,821	0	1016,22	7,1	9,1	8,9	1	1	1	1	1	1	1	1	1	0	1	-10,288936	274,264822	310,532583	0
15.01.2021	17:30:39	0	0	4,745127	1,18275	336,3588	0,421	83,832	0	1016,24	7,1	9,1	8,9	1	1	1	1	1	1	1	1	1	0	1	-9,584214	274,225728	311,054423	0
15.01.2021	17:30:40	0	0	3,163418	1,2135	333,792	0,425	83,826	0	1016,28	7,1	9,1	8,9	1	1	1	1	1	1	1	1	1	0	1	-11,909796	274,254289	308,862442	0
15.01.2021	17:30:41	0	0	5,197044	1,20975	336,06	0,422	83,829	0	1016,16	7,1	9,1	8,9	1	1	1	1	1	1	1	1	1	0	1	-8,80902	274,213715	311,773435	0
15.01.2021	17:30:42	0	0	3,502355	1,1595	334,548	0,422	83,821	0	1016,28	7,1	9,1	8,9	1	1	1	1	1	1	1	1	1	0	1	-10,711769	274,275361	310,159065	0
15.01.2021	17:30:43	0	0	2,598522	1,098	328,1292	0,422	83,824	0	1016,24	7,1	9,1	8,9	1	1	1	1	1	1	1	1	1	0	1	-6,342495	274,206211	314,204869	0
15.01.2021	17:30:44	0	0	3,502355	1,07325	330,0372	0,424	83,823	0	1016,4	7,1	9,1	8,9	1	1	1	1	1	1	1	1	1	0	1	-13,6716	274,337205	307,488732	0
15.01.2021	17:30:45	0	0	4,971085	1,0095	341,9856	0,413	83,83	0	1016,2	7,1	9	8,9	1	1	1	1	1	1	1	1	1	0	1	-7,610994	274,379554	313,747691	0
15.01.2021	17:30:46	0	0	5,084064	1,0365	333,1044	0,422	83,829	0	1016,04	7,1	9,1	8,9	1	1	1	1	1	1	1	1	1	0	1	-11,698379	274,361393	309,575232	0
15.01.2021	17:30:47	0	0	2,82448	0,98775	333,7596	0,423	83,837	0	1016,32	7,1	9,1	8,9	1	1	1	1	1	1	1	1	1	0	1	-6,976744	274,384097	314,403224	0
15.01.2021	17:30:48	0	0	3,389376	0,969	333,1044	0,419	83,82	0	1016,18	7,1	9,1	8,9	1	1	1	1	1	1	1	1	1	0	1	-8,033827	274,261812	312,773609	0
15.01.2021	17:30:49	0	0	4,406189	0,89025	331,5096	0,421	83,831	0	1016,2	7,1	9,1	8,9	1	1	1	1	1	1	1	1	1	0	1	-8,949965	274,349295	312,266985	0
15.01.2021	17:30:50	0	0	2,82448	0,855	334,2096	0,421	83,832	0	1016,36	7,1	9,1	8,9	1	1	1	1	1	1	1	1	1	0	1	-9,936575	274,316065	311,124777	0
15.01.2021	17:30:51	0	0	4,067252	0,7965	336,4488	0,42	83,807	0	1016,34	7,1	9,1	8,9	1	1	1	1	1	1	1	1	1	0	1	-11,06413	274,384097	310,315838	0
15.01.2021	17:30:52	0	0	2,711501	0,7815	335,0412	0,413	83,825	0	1016,3	7,1	9,1	8,9	1	1	1	1	1	1	1	1	1	0	1	-10,570825	274,352319	310,660287	0
15.01.2021	17:30:53	0	0	2,82448	0,7575	339,1344	0,414	83,827	0	1016,24	7,1	9,1	8,9	1	1	1	1	1	1	1	1	1	0	1	-7,470049	274,204711	313,070298	0
15.01.2021	17:30:54	0	0	4,406189	0,75675	345,4236	0,42	83,822	0	1016,34	7,1	9,1	8,9	1	1	1	1	1	1	1	1	1	0	1	-7,470049	274,251281	313,288114	0
15.01.2021	17:30:55	0	0	4,406189	0,7275	341,6832	0,422	83,83	0	1016,14	7,1	9,1	8,9	1	1	1	1	1	1	1	1	1	0	1	-16,772375	274,311538	304,267784	0
15.01.2021	17:30:56	0	0	3,841293	0,70125	332,0172	0,423	83,827	0	1016,28	7,1	9,1	8,9	1	1	1	1	1	1	1	1	1	0	1	-11,134602	274,393186	310,287951	0
15.01.2021	17:30:57	0	0	3,615335	0,71625	336,9996	0,421	83,816	0	1016,18	7,1	9,1	8,9	1	1	1	1	1	1	1	1	1	0	1	-12,966878	274,296456	308,002682	0
15.01.2021	17:30:58	0	0	3,728314	0,71475	341,7012	0,426	83,836	0	1016,28	7,1	9,1	8,9	1	1	1	1	1	1	1	1	1	0	1	-10,852713	274,188213	309,610498	0
15.01.2021	17:30:59	0	0	2,372563	0,7485	341,6148	0,423	83,838	0	1016,36	7,1	9,1	8,9	1	1	1	1	1	1	1	1	1	0	1	-11,06413	274,294949	309,898374	0
15.01.2021	17:31:00	0	0	3,276397	0,97125	345,6504	0,421	83,82	0	1016,28	7,1	9,1	8,9	1	1	1	1	1	1	1	1	1	0	1	-10,218464	274,216718	310,378034	0
15.01.2021	17:31:01	0	0	3,276397	0,97125	345,6504	0,421	83,82	0	1016,28	7,1	9,1	8,9	1	1	1	1	1	1	1	1	1	0	1	-9,795631	274,269338	311,047019	0
15.01.2021	17:31:02	0	0	2,937459	1,011	328,1148	0,422	83,82	0	1016,28	7,1	9,1	8,9	1	1	1	1	1	1	1	1	1	0	1	-9,936575	274,218219	310,666944	0
15.01.2021	17:31:03	0	0	3,615335	1,09425	313,6032	0,425	83,83	0	1016,3	7,1	9,1	8,9	1	1	1	1	1	1	1	1	1	0	1	-13,107822	274,27988	307,784156	0
15.01.2021	17:31:04	0	0	3,728314	1,12425	327,4128	0,422	83,83	0	1016,28	7,1	9,1	8,9	1	1	1	1	1	1	1	1	1	0	1	-12,755462	274,387126	308,638698	0
15.01.2021	17:31:05	0	0	2,372563	1,2495	327,1068	0,425	83,822	0	1016,4	7,1	9,1	8,9	1	1	1	1	1	1	1	1	1	0	1	-5,990134	274,326632	315,120691	0
15.01.2021	17:31:06	0	0	4,858106	1,26825	328,7232	0,426	83,83	0	1016,06	7,1	9,1	8,9	1	1	1	1	1	1	1	1	1	0	1	-11,839323	274,385611	309,54774	0
15.01.2021	17:31:07	0	0	3,163418	1,269	333,4248	0,42	83,835	0	1016,28	7,1	9,1	8,9	1	1	1	1	1	1	1	1	1	0	1	-8,245243	274,362906	313,035454	0
15.01.2021	17:31:08	0	0	3,050439	1,40325	319,5612	0,421	83,816	0	1016,32	7,1	9,1	8,9	1	1	1	1	1	1	1	1	1	0	1	-8,386187	274,361393	312,887424	0
15.01.2021	17:31:09	0	0	4,632148	1,5315	343,1232	0,42	83,841	0	1016,22	7,1	9,1	8,9	1	1	1	1	1	1	1	1	1	0	1	-9,090909	274,227231	311,554754	0
15.01.2021	17:31:10	0	0	3,502355	1,6515	334,9152	0,415	83,834	0	1016,24	7,1	9,1	8,9	1	1	1	1	1	1	1	1	1	0	1	-7,681466	274,260308	313,118929	0
15.01.2021	17:31:11	0	0	4,745127	1,7835	327,15	0,422	83,828	0	1016,12	7,1	9,1	8,9	1	1	1	1	1	1	1	1	1	0	1	-10,711769	274,225728	309,926868	0
15.01.2021	17:31:12	0	0	3,389356	1,809	338,3136	0,414	83,832	0	1016,22	7,1	9,1	9	1	1	1	1	1	1	1	1	1	0	1	-11,275546	274,242259	309,440409	0
15.01.2021	17:31:13	0	0	3,728314	1,81875	323,3592	0,418	83,826	0	1016,24	7,1	9,1	8,9	1	1	1	1	1	1	1	1	1	0	1	-9,584214	274,376526	311,760285	0
15.01.2021	17:31:14	0	0	5,197044	1,794	332,4384	0,424	83,822	0	1016,18	7,1	9,1	8,9	1	1	1	1	1	1	1	1	1	0	1	-11,627907	274,221223	308,989657	0
15.01.2021	17:31:15	0	0	2,937459	1,8345	334,2672	0,421	83,834	0	1016,3	7,1	9,1	8,9	1	1	1	1	1	1	1	1	1	0	1	-12,684989	274,402279	308,780173	0
15.01.2021	17:31:16	0	0	3,728314	1,79325	338,3784	0,421	83,834	0	1016,4	7,1	9,1	8,9	1	1	1	1	1	1	1	1	1	0	1	-9,44327	274,209212	311,118129	0
15.01.2021	17:31:17	0	0	2,711501	1,7625	328,644	0,425	83,831	0	1016,22	7,1	9,1	8,9	1	1	1	1	1	1	1	1	1	0	1	-9,513742	274,20321	311,01959	0
15.01.2021	17:31:18	0	0	3,050439	1,716	329,724	0,428	83,827	0	1016,24	7,1	9,1	8,9	1	1	1	1	1	1	1	1	1	0	1	-10,500352	274,343249	310,688283	0
15.01.2021	17:31:19	0	0	3,728314	1,63575	328,9176	0,422	83,832	0	1016,26	7,1	9,1	8,9	1	1	1	1	1	1	1	1	1	0	1	-9,654686	274,385611	311,732377	0
15.01.2021	17:31:20	0	0	2,372563	1,494	324,126	0,423	83,837	0	1016,24	7,1	9,1	8,9	1	1	1	1	1	1	1	1	1	0	1	-14,305849	274,276867	306,572032	0
15.01.2021	17:31:21	0	0	2,485543	1,46625	331,5204	0,425	83,833	0	1016,14	7,1	9,1	8,9	1	1	1	1	1	1	1	1	1	0	1	-8,879493	274,388641	312,521765	0
15.01.2021	17:31:22	0	0	4,406189	1,4325	339,1776	0,423	83,808	0	1016,28	7,1	9,1	8,9	1	1	1	1	1	1	1	1	1	0	1	-13,107822	274,340227	308,066659	0
15.01.2021	17:31:23	0	0	4,180231	1,46775	334,1736	0,423	83,821	0	1016,3	7,1	9,1	8,9	1	1	1	1	1	1	1	1	1	0	1	-9,936575	274,396216	311,500178	0
15.01.2021	17:31:24	0	0	5,084064	1,506	336,8052	0,418	83,829	0	1016,3	7,1	9,1	8,9	1	1	1	1	1	1	1	1	1	0	1	-9,725159	274,299472	311,258516	0
15.01.2021	17:31:25	0	0	2,711501	1,638	340,5636	0,415	83,826	0	1016,3	7,1	9,1	8,9	1	1	1	1	1	1	1	1	1	0	1	-11,205074	274,385611	310,18199	0
15.01.2021	17:31:26	0	0	3,389376	1,83375	326,3472	0,421	83,826	0	1016,32	7,1	9,1	8,9	1	1	1	1	1	1	1	1	1	0	1	-11,134602	274,270844	309,715093	0
15.01.2021	17:31:27	0	0	3,728314	2,0025	331,0812	0,423	83,822	0	1016,28	7,1	9,1	8,9	1	1	1	1	1	1	1	1	1	0	1	-10,993658	274,390156	310,414698	0
15.01.2021	17:31:28	0	0	4,180231	2,085	328,8636	0,421	83,821	0	1016,18	7,1	9,2	8,9	1	1	1	1	1	1	1	1	1	0	1	-9,795631	274,350807	311,428399	0
15.01.2021	17:31:29	0	0	4,519168	2,03775	331,4988	0,421	83,813	0	1016,24	7,1	9,1	8,9	1	1	1	1	1	1	1	1	1	0	1	-6,765328	274,254289	314,00691	0
15.01.2021	17:31:30	0	0	2,82448	1,96575	330,8436	0,424	83,826	0	1016,36	7,1	9,1	8,9	1	1	1	1	1	1	1	1	1	0	1	-11,698379	274,236246	308,989451	0
15.01.2021	17:31:31	0	0	3,502355	1,82625	336,1356	0,424	83,83	0	1016,3	7,1	9,1	8,9	1	1	1	1	1	1	1	1	1	0	1	-13,319239	274,358368	307,940203	0
15.01.2021	17:31:32	0	0	2,937459	1,68825	341,7804	0,421	83,819	0	1016,22	7,1	9,1	8,9	1	1	1	1	1	1	1	1	1	0	1	-9,090909	274,35988	312,175617	0
15.01.2021	17:31:33	0	0	4,745127	1,59525	324,0576	0,418	83,823	0	1016,1	7,1	9,1	8,9	1	1	1	1	1	1	1	1	1	0	1	-8,245243	274,239252	312,456649	0
15.01.2021	17:31:34	0	0	4,632148	1,50675	336,3948	0,42	83,843	0	1016,38	7,1	9,2	8,9	1	1	1	1	1	1	1	1	1	0	1	-12,191684	274,353831	309,046509	0
15.01.2021	17:31:35	0	0	4,632148	1,464	333,9252	0,42	83,814	0	1016,28	7,1	9,1	8,9	1	1	1	1	1	1	1	1	1	0	1	-8,104299	274,245266	312,625723	0
15.01.2021	17:31:36	0	0	3,954249	1,467	342,1044	0,42	83,828	0	1016,26	7,1	9,2	9	1	1	1	1	1	1	1	1	1	0	1	-11,06413	274,381068	310,301648	0
15.01.2021	17:31:37	0	0	4,632148	1,48125	343,4616	0,421	83,821	0	1016,3	7,1	9,1	8,9	1	1	1	1	1	1	1	1	1	0	1	-8,668076	274,302488	312,329716	0
15.01.2021	17:31:38	0	0	2,598522	1,55025	335,7108	0,428	83,809	0	1016,14	7,1	9,1	8,9	1	1	1	1	1	1	1	1	1	0	1	-6,8358	274,384097	314,544168	0
15.01.2021	17:31:39	0	0	2,711501	1,581	337,428	0,422	83,819	0	1016,32	7,1	9,1	8,9	1	1	1	1	1	1	1	1	1	0	1	-10,077519	274,27988	310,814459	0
15.01.2021	17:31:40	0	0	2,711501	1,56	345,402	0,427	83,826	0	1016,28	7,1	9,2	8,9	1	1	1	1	1	1	1	1	1	0	1	-9,020437	274,356855	312,231921	0
15.01.2021	17:31:41	0	0	4,745127	1,53525	324,3924	0,413	83,824	0	1016,32	7,1	9,1	8,9	1	1	1	1	1	1	1	1	1	0	1	-9,795631	274,370471	311,520505	0
15.01.2021	17:31:42	0	0	4,519168	1,575	335,6856	0,418	83,821	0	1016,26	7,1	9,1	8,9	1	1	1	1	1	1	1	1	1	0	1	-13,530655	274,365932	307,764215	0
15.01.2021	17:31:43	0	0	3,163418	1,605	339,858	0,418	83,813	0	1016,3	7,1	9,1	8,9	1	1	1	1	1	1	1	1	1	0	1	-8,245243	274,248273	312,498848	0
15.01.2021	17:31:44	0	0	2,937459	1,66125	334,6236	0,421	83,824	0	1016,28	7,1	9,1	8,9	1	1	1	1	1	1	1	1	1	0	1	-9,936575	274,213715	310,645881	0
15.01.2021	17:31:45	0	0	3,502355	1,6995	327,4308	0,422	83,815	0	1016,28	7,1	9,1	8,9	1	1	1	1	1	1	1	1	1	0	1	-9,725159	274,228733	310,927531	0
15.01.2021	17:31:46	0	0	4,180231	1,74675	331,9308	0,422	83,826	0	1016,22	7,1	9,1	8,9	1	1	1	1	1	1	1	1	1	0	1	-11,06413	274,212214	309,511307	0
15.01.2021	17:31:47	0	0	2,259584	1,70175	326,4084	0,418	83,812	0	1016,22	7,1	9,1	8,9	1	1	1	1	1	1	1	1	1	0	1	-13,107822	274,249777	307,643304	0
15.01.2021	17:31:48	0	0	4,745127	1,6605	327,7764	0,425	83,805	0	1016,28	7,1	9,1	8,9	1	1	1	1	1	1	1	1	1	0	1	-11,839323	274,216718	308,757174	0
15.01.2021	17:31:49	0	0	4,29321	1,63725	327,3912	0,425	83,819	0	1016,42	7,1	9,1	8,9	1	1	1	1	1	1	1	1	1	0	1	-9,372798	274,326632	311,738027	0
15.01.2021	17:31:50	0	0	3,050439	1,70325	336,7692	0,426	83,821	0	1016,3	7,1	9,1	8,9	1	1	1	1	1	1	1	1	1	0	1	-12,262156	274,37804	309,089435	0
15.01.2021	17:31:51	0	0	4,519168	1,683	336,7764	0,421	83,817	0	1016,18	7,1	9,1	8,9	1	1	1	1	1	1	1	1	1	0	1	-7,329105	274,373498	314,001211	0
15.01.2021	17:31:52	0	0	2,937459	1,69725	332,3844	0,423	83,803	0	1016,28	7,1	9,1	8,9	1	1	1	1	1	1	1	1	1	0	1	-9,654686	274,381068	311,711092	0
15.01.2021	17:31:53	0	0	3,163418	1,69275	331,9524	0,421	83,795	0	1016,16	7,1	9,2	8,9	1	1	1	1	1	1	1	1	1	0	1	-11,134602	274,296456	309,834958	0
15.01.2021	17:31:54	0	0	4,632148	1,72425	338,3496	0,423	83,795	0	1016,38	7,1	9,1	8,9	1	1	1	1	1	1	1	1	1	0	1	-8,668076	274,394701	312,761577	0
15.01.2021	17:31:55	0	0	3,728314	1,689	344,9232	0,424	83,813	0	1016,28	7,1	9,1	8,9	1	1	1	1	1	1	1	1	1	0	1	-11,698379	274,340227	309,476103	0
15.01.2021	17:31:56	0	0	3,389376	1,57875	344,6856	0,418	83,797	0	1016,16	7,1	9,1	8,9	1	1	1	1	1	1	1	1	1	0	1	-9,866103	274,382582	311,50677	0
15.01.2021	17:31:57	0	0	3,954272	1,479	326,3688	0,418	83,79	0	1016,14	7,1	9,1	8,9	1	1	1	1	1	1	1	1	1	0	1	-10,923185	274,249777	309,827942	0
15.01.2021	17:31:58	0	0	2,598522	1,35975	330,7032	0,422	83,809	0	1016,28	7,1	9,1	8,9	1	1	1	1	1	1	1	1	1	0	1	-12,684989	274,19871	307,827299	0
15.01.2021	17:31:59	0	0	2,372563	1,32975	325,926	0,424	83,8	0	1016,32	7,1	9	8,9	1	1	1	1	1	1	1	1	1	0	1	-13,812544	274,258803	306,98081	0
15.01.2021	17:32:00	0	0	4,745098	1,3995	324,0936	0,422	83,808	0	1016,4	7,1	9,1	9	1	1	1	1	1	1	1	1	1	0	1	-12,473573	274,390156	308,934782	0
15.01.2021	17:32:01	0	0	4,745098	1,3995	324,0936	0,422	83,808	0	1016,4	7,1	9,1	9	1	1	1	1	1	1	1	1	1	0	1	-10,42988	274,284399	310,483249	0
15.01.2021	17:32:02	0	0	2,485543	1,32825	328,176	0,414	83,793	0	1016,34	7,1	9,2	8,9	1	1	1	1	1	1	1	1	1	0	1	-11,839323	274,385611	309,54774	0
15.01.2021	17:32:03	0	0	3,163418	1,25325	337,1364	0,419	83,789	0	1016,3	7,1	9,2	8,9	1	1	1	1	1	1	1	1	1	0	1	-10,711769	274,349295	310,505181	0
15.01.2021	17:32:04	0	0	3,276397	1,30425	339,8328	0,42	83,802	0	1016,34	7,1	9,1	8,9	1	1	1	1	1	1	1	1	1	0	1	-11,205074	274,19421	309,286178	0
15.01.2021	17:32:05	0	0	3,615335	1,3335	346,9464	0,421	83,798	0	1016,28	7,1	9	8,9	1	1	1	1	1	1	1	1	1	0	1	-10,42988	274,323613	310,666806	0
15.01.2021	17:32:06	0	0	4,406189	1,39275	350,2656	0,421	83,799	0	1016,28	7,1	9,1	8,9	1	1	1	1	1	1	1	1	1	0	1	-7,82241	274,355343	313,422865	0
15.01.2021	17:32:07	0	0	3,050439	1,4775	326,7504	0,415	83,777	0	1016,2	7,1	9,1	8,9	1	1	1	1	1	1	1	1	1	0	1	-10,923185	274,329652	310,201781	0
15.01.2021	17:32:08	0	0	2,259584	1,48425	330,372	0,422	83,798	0	1016,32	7,1	9,1	8,9	1	1	1	1	1	1	1	1	1	0	1	-11,557435	274,19871	308,954854	0
15.01.2021	17:32:09	0	0	3,84127	1,4985	333,4104	0,42	83,783	0	1016,2	7,1	9	9	1	1	1	1	1	1	1	1	1	0	1	-10,570825	274,320593	310,511726	0
15.01.2021	17:32:10	0	0	3,841293	1,4805	320,436	0,425	83,779	0	1016,14	7,1	9,1	8,9	1	1	1	1	1	1	1	1	1	0	1	-7,470049	274,381068	313,895729	0
15.01.2021	17:32:11	0	0	4,293184	1,4775	353,1816	0,422	83,775	0	1016,24	7,1	9	9	1	1	1	1	1	1	1	1	1	0	1	-10,993658	274,334184	310,152526	0
15.01.2021	17:32:12	0	0	2,937459	1,42575	331,1604	0,422	83,767	0	1016,34	7,1	9,1	8,9	1	1	1	1	1	1	1	1	1	0	1	-11,980268	274,367445	309,32169	0
15.01.2021	17:32:13	0	0	3,502355	1,4145	329,3712	0,42	83,782	0	1016,28	7,1	9	8,9	1	1	1	1	1	1	1	1	1	0	1	-11,698379	274,347783	309,511491	0
15.01.2021	17:32:14	0	0	3,502355	1,413	328,176	0,423	83,786	0	1016,12	7,1	9,2	8,9	1	1	1	1	1	1	1	1	1	0	1	-10,641297	274,358368	310,618145	0
15.01.2021	17:32:15	0	0	3,050439	1,43325	325,962	0,412	83,779	0	1016,22	7,1	9	8,9	1	1	1	1	1	1	1	1	1	0	1	-9,513742	274,261812	311,293693	0
15.01.2021	17:32:16	0	0	3,954249	1,35	332,6976	0,42	83,78	0	1016,2	7,1	9,1	9	1	1	1	1	1	1	1	1	1	0	1	-13,248767	274,192711	307,235474	0
15.01.2021	17:32:17	0	0	3,615335	1,33425	336,0996	0,425	83,778	0	1016,24	7,1	9,2	8,9	1	1	1	1	1	1	1	1	1	0	1	-10,500352	274,240755	310,208571	0
15.01.2021	17:32:18	0	0	2,82448	1,3095	337,1328	0,414	83,777	0	1016	7,1	9,2	8,9	1	1	1	1	1	1	1	1	1	0	1	-11,909796	274,37804	309,441796	0
15.01.2021	17:32:19	0	0	4,632148	1,2225	339,4476	0,414	83,774	0	1016,18	7,1	9,1	8,9	1	1	1	1	1	1	1	1	1	0	1	-9,302326	274,341738	311,879233	0
15.01.2021	17:32:20	0	0	4,29321	1,15875	331,4376	0,423	83,784	0	1016,36	7,1	9,1	8,9	1	1	1	1	1	1	1	1	1	0	1	-9,161381	274,209212	311,400018	0
15.01.2021	17:32:21	0	0	3,050439	1,101	350,2044	0,417	83,778	0	1016,4	7,1	9,1	8,9	1	1	1	1	1	1	1	1	1	0	1	-13,107822	274,266328	307,72074	0
15.01.2021	17:32:22	0	0	4,29321	1,03575	337,9788	0,419	83,772	0	1016,18	7,1	9	8,9	1	1	1	1	1	1	1	1	1	0	1	-7,329105	274,212214	313,246331	0
15.01.2021	17:32:23	0	0	3,276377	1,053	342,7128	0,416	83,761	0	1016,18	7,1	9,1	9	1	1	1	1	1	1	1	1	1	0	1	-11,275546	274,230235	309,38417	0
15.01.2021	17:32:24	0	0	4,63212	1,059	350,9676	0,418	83,782	0	1016,26	7,1	9,1	9	1	1	1	1	1	1	1	1	1	0	1	-8,949965	274,248273	311,794127	0
15.01.2021	17:32:25	0	0	3,163399	1,04025	341,2332	0,417	83,769	0	1016,34	7,1	9,1	9	1	1	1	1	1	1	1	1	1	0	1	-10,359408	274,387126	311,034752	0
15.01.2021	17:32:26	0	0	4,180206	0,98475	334,8504	0,422	83,772	0	1016,18	7,1	9,1	9	1	1	1	1	1	1	1	1	1	0	1	-13,248767	274,261812	307,558669	0
15.01.2021	17:32:27	0	0	2,598522	0,99375	339,8004	0,419	83,775	0	1016,48	7,1	9,1	8,9	1	1	1	1	1	1	1	1	1	0	1	-10,500352	274,19721	310,004923	0
15.01.2021	17:32:28	0	0	2,937459	0,9525	346,14	0,418	83,771	0	1016,24	7,1	9,1	8,9	1	1	1	1	1	1	1	1	1	0	1	-13,883016	274,332673	307,256094	0
15.01.2021	17:32:29	0	0	2,372563	0,885	355,3164	0,422	83,768	0	1016,2	7,1	9,2	8,9	1	1	1	1	1	1	1	1	1	0	1	-13,601128	274,213715	306,981328	0
15.01.2021	17:32:30	0	0	4,971085	0,8715	1,548	0,425	83,773	0	1016,3	7,1	9	8,9	1	1	1	1	1	1	1	1	1	0	1	-14,235377	274,255794	306,543899	0
15.01.2021	17:32:31	0	0	3,389376	0,88275	1,638	0,422	83,772	0	1016,16	7,1	9,2	8,9	1	1	1	1	1	1	1	1	1	0	1	-11,41649	274,375012	309,920917	0
15.01.2021	17:32:32	0	0	3,389376	0,8535	357,1848	0,418	83,762	0	1016,1	7,1	9,2	8,9	1	1	1	1	1	1	1	1	1	0	1	-12,825934	274,255794	307,953342	0
15.01.2021	17:32:33	0	0	3,389356	0,87675	354,3372	0,424	83,758	0	1016,38	7,1	9,1	9	1	1	1	1	1	1	1	1	1	0	1	-13,460183	274,381068	307,905595	0
15.01.2021	17:32:34	0	0	3,389356	0,8655	349,74	0,424	83,782	0	1016,26	7,1	9	9	1	1	1	1	1	1	1	1	1	0	1	-14,094433	274,252785	306,670767	0
15.01.2021	17:32:35	0	0	3,163399	0,8835	334,152	0,417	83,766	0	1016,32	7,1	9,2	9	1	1	1	1	1	1	1	1	1	0	1	-8,45666	274,216718	312,139838	0
15.01.2021	17:32:36	0	0	3,050439	1,014	346,8708	0,42	83,77	0	1016,14	7,1	9,1	8,9	1	1	1	1	1	1	1	1	1	0	1	-11,346018	274,346272	309,856773	0
15.01.2021	17:32:37	0	0	4,519141	1,1265	343,4868	0,419	83,761	0	1016,06	7,1	9	9	1	1	1	1	1	1	1	1	1	0	1	-11,41649	274,355343	309,828785	0
15.01.2021	17:32:38	0	0	2,485543	1,176	342,7956	0,42	83,764	0	1016,38	7,1	9,1	8,9	1	1	1	1	1	1	1	1	1	0	1	-11,275546	274,251281	309,482617	0
15.01.2021	17:32:39	0	0	3,954272	1,15875	342,3312	0,421	83,775	0	1016,24	7	9,1	8,9	1	1	1	1	1	1	1	1	1	0	1	-8,174771	274,191211	312,302459	0
15.01.2021	17:32:40	0	0	4,519141	1,15725	337,4676	0,422	83,784	0	1016,4	7,1	9	9	1	1	1	1	1	1	1	1	1	0	1	-11,627907	274,335694	309,52535	0
15.01.2021	17:32:41	0	0	3,954272	1,10775	344,6712	0,425	83,769	0	1016,18	7,1	9,1	8,9	1	1	1	1	1	1	1	1	1	0	1	-12,262156	274,382582	309,110716	0
15.01.2021	17:32:42	0	0	3,841293	1,06575	335,4228	0,421	83,77	0	1016,44	7,1	9,1	8,9	1	1	1	1	1	1	1	1	1	0	1	-10,711769	274,311538	310,32839	0
15.01.2021	17:32:43	0	0	2,711501	1,104	331,5384	0,419	83,791	0	1016,18	7,1	9,2	8,9	1	1	1	1	1	1	1	1	1	0	1	-10,077519	274,204711	310,462828	0
15.01.2021	17:32:44	0	0	3,615335	1,149	331,0164	0,419	83,78	0	1016,1	7,1	9,2	8,9	1	1	1	1	1	1	1	1	1	0	1	-9,090909	274,311538	311,94925	0
15.01.2021	17:32:45	0	0	4,067252	1,20975	330,7212	0,423	83,786	0	1016,22	7,1	9,1	8,9	1	1	1	1	1	1	1	1	1	0	1	-11,134602	274,20321	309,39873	0
15.01.2021	17:32:46	0	0	2,711501	1,296	339,3684	0,417	83,766	0	1016,18	7,1	9,1	8,9	1	1	1	1	1	1	1	1	1	0	1	-7,82241	274,251281	312,935753	0
15.01.2021	17:32:47	0	0	3,615313	1,35675	337,1112	0,418	83,761	0	1016,22	7,1	9,1	9	1	1	1	1	1	1	1	1	1	0	1	-8,879493	274,371985	312,443733	0
15.01.2021	17:32:48	0	0	4,406189	1,37925	327,4452	0,421	83,787	0	1016,24	7,1	9,2	8,9	1	1	1	1	1	1	1	1	1	0	1	-9,020437	274,294949	311,942067	0
15.01.2021	17:32:49	0	0	2,485543	1,398	337,0752	0,418	83,774	0	1016,2	7,1	9,1	8,9	1	1	1	1	1	1	1	1	1	0	1	-7,82241	274,230235	312,837306	0
15.01.2021	17:32:50	0	0	3,954249	1,40475	336,0888	0,428	83,793	0	1016,36	7,1	9,1	9	1	1	1	1	1	1	1	1	1	0	1	-14,023961	274,332673	307,11515	0
15.01.2021	17:32:51	0	0	3,841293	1,36275	339,1344	0,426	83,796	0	1016,28	7,1	9,1	8,9	1	1	1	1	1	1	1	1	1	0	1	-14,728682	274,20321	305,80465	0
15.01.2021	17:32:52	0	0	3,163399	1,3215	337,0572	0,415	83,787	0	1016,28	7,1	9,2	9	1	1	1	1	1	1	1	1	1	0	1	-6,976744	274,388641	314,424513	0
15.01.2021	17:32:53	0	0	3,276397	1,30275	325,5948	0,421	83,79	0	1016,22	7,1	9,2	8,9	1	1	1	1	1	1	1	1	1	0	1	-11,557435	274,252785	309,207765	0
15.01.2021	17:32:54	0	0	4,745098	1,383	338,3316	0,418	83,788	0	1016,36	7,1	9,1	9	1	1	1	1	1	1	1	1	1	0	1	-13,107822	274,362906	308,172875	0
15.01.2021	17:32:55	0	0	4,519168	1,37925	336,402	0,417	83,797	0	1016,2	7,1	9,2	8,9	1	1	1	1	1	1	1	1	1	0	1	-11,06413	274,251281	309,694033	0
15.01.2021	17:32:56	0	0	4,858077	1,3335	332,406	0,42	83,801	0	1016,26	7,1	9,1	9	1	1	1	1	1	1	1	1	1	0	1	-5,778717	274,367445	315,523241	0
15.01.2021	17:32:57	0	0	3,502355	1,29	324,7596	0,424	83,796	0	1016,34	7,1	9,1	8,9	1	1	1	1	1	1	1	1	1	0	1	-8,315715	274,311538	312,724444	0
15.01.2021	17:32:58	0	0	3,954272	1,221	323,7084	0,418	83,799	0	1016,24	7,1	9,1	8,9	1	1	1	1	1	1	1	1	1	0	1	-7,047216	274,20171	313,479101	0
15.01.2021	17:32:59	0	0	4,29321	1,22775	328,572	0,414	83,791	0	1016,14	7,1	9,2	8,9	1	1	1	1	1	1	1	1	1	0	1	-8,80902	274,364419	312,478763	0
15.01.2021	17:33:00	0	0	4,519141	1,3095	334,9872	0,415	83,805	0	1016,28	7,1	9,1	9	1	1	1	1	1	1	1	1	1	0	1	-10,007047	274,337205	311,153284	0
15.01.2021	17:33:01	0	0	4,519141	1,3095	334,9872	0,415	83,805	0	1016,28	7,1	9,1	9	1	1	1	1	1	1	1	1	1	0	1	-10,359408	274,364419	310,928375	0
15.01.2021	17:33:02	0	0	4,632148	1,2945	335,43	0,424	83,793	0	1016,22	7,1	9,1	8,9	1	1	1	1	1	1	1	1	1	0	1	-7,399577	274,307013	313,619395	0
15.01.2021	17:33:03	0	0	2,937442	1,23825	339,8544	0,423	83,793	0	1016,08	7,1	9,2	9	1	1	1	1	1	1	1	1	1	0	1	-10,359408	274,385611	311,027656	0
15.01.2021	17:33:04	0	0	2,598522	1,242	327,4164	0,412	83,796	0	1016,14	7,1	9,2	8,9	1	1	1	1	1	1	1	1	1	0	1	-9,654686	274,267833	311,180919	0
15.01.2021	17:33:05	0	0	4,29321	1,2405	328,95	0,42	83,789	0	1016,26	7,1	9,1	8,9	1	1	1	1	1	1	1	1	1	0	1	-8,668076	274,19571	311,830187	0
15.01.2021	17:33:06	0	0	3,728292	1,2765	335,2896	0,419	83,808	0	1016,22	7,1	9,2	9	1	1	1	1	1	1	1	1	1	0	1	-10,570825	274,328142	310,547071	0
15.01.2021	17:33:07	0	0	2,937442	1,37775	334,6524	0,416	83,799	0	1016,24	7,1	9,1	9	1	1	1	1	1	1	1	1	1	0	1	-9,372798	274,191211	311,104432	0
15.01.2021	17:33:08	0	0	5,197044	1,37775	334,9116	0,42	83,808	0	1016,18	7,1	9,1	8,9	1	1	1	1	1	1	1	1	1	0	1	-9,513742	274,335694	311,639515	0
15.01.2021	17:33:09	0	0	2,372563	1,371	336,0312	0,423	83,817	0	1016,24	7,1	9,2	8,9	1	1	1	1	1	1	1	1	1	0	1	-10,288936	274,215217	310,30054	0
15.01.2021	17:33:10	0	0	4,180231	1,37625	340,1496	0,419	83,81	0	1016,24	7,1	9,2	8,9	1	1	1	1	1	1	1	1	1	0	1	-14,305849	274,191211	306,171381	0
15.01.2021	17:33:11	0	0	3,050439	1,3515	339,0336	0,422	83,809	0	1016,22	7	9,1	8,9	1	1	1	1	1	1	1	1	1	0	1	-7,892882	274,322103	313,196736	0
15.01.2021	17:33:12	0	0	3,389356	1,30275	328,9428	0,422	83,806	0	1016,24	7,1	9,1	9	1	1	1	1	1	1	1	1	1	0	1	-15,292459	274,375012	306,044948	0
15.01.2021	17:33:13	0	0	2,937442	1,3065	333,4932	0,419	83,811	0	1016,2	7,1	9,2	9	1	1	1	1	1	1	1	1	1	0	1	-10,852713	274,212214	309,722723	0
15.01.2021	17:33:14	0	0	4,971085	1,362	340,5924	0,422	83,804	0	1016,08	7	9	8,9	1	1	1	1	1	1	1	1	1	0	1	-12,262156	274,346272	308,940635	0
15.01.2021	17:33:15	0	0	4,858077	1,40325	346,77	0,42	83,821	0	1016,12	7,1	9,2	9	1	1	1	1	1	1	1	1	1	0	1	-11,557435	274,19721	308,947841	0
15.01.2021	17:33:16	0	0	4,63212	1,37175	354,2508	0,421	83,798	0	1016,14	7,1	9,1	9	1	1	1	1	1	1	1	1	1	0	1	-5,426357	274,316065	315,634995	0
15.01.2021	17:33:17	0	0	2,485528	1,35	337,4208	0,421	83,803	0	1016,02	7,1	9,1	9	1	1	1	1	1	1	1	1	1	0	1	-13,460183	274,216718	307,136314	0
15.01.2021	17:33:18	0	0	4,519141	1,35225	342,738	0,418	83,814	0	1016,08	7	9,1	9	1	1	1	1	1	1	1	1	1	0	1	-11,205074	274,328142	309,912821	0
15.01.2021	17:33:19	0	0	2,711485	1,40325	344,7072	0,417	83,804	0	1016,2	7,1	9	9	1	1	1	1	1	1	1	1	1	0	1	-10,993658	274,261812	309,813778	0
15.01.2021	17:33:20	0	0	2,598506	1,3995	343,5444	0,416	83,808	0	1016,16	7	9,1	9	1	1	1	1	1	1	1	1	1	0	1	-12,544045	274,204711	307,996303	0
15.01.2021	17:33:21	0	0	3,954249	1,37175	342,0864	0,417	83,814	0	1016,22	7,1	9,1	9	1	1	1	1	1	1	1	1	1	0	1	-8,527132	274,35988	312,739394	0
15.01.2021	17:33:22	0	0	4,067227	1,3665	353,9448	0,417	83,807	0	1016,38	7,1	9	9	1	1	1	1	1	1	1	1	1	0	1	-11,980268	274,221223	308,637296	0
15.01.2021	17:33:23	0	0	2,824463	1,30425	351,6228	0,41	83,808	0	1016,18	7,1	9,1	9	1	1	1	1	1	1	1	1	1	0	1	-10,42988	274,227231	310,215783	0
15.01.2021	17:33:24	0	0	2,485543	1,3575	343,0728	0,415	83,789	0	1016,08	7,1	9,1	8,9	1	1	1	1	1	1	1	1	1	0	1	-14,446794	274,358368	306,812648	0
15.01.2021	17:33:25	0	0	4,180206	1,29825	358,3584	0,419	83,809	0	1016,34	7,1	9,1	9	1	1	1	1	1	1	1	1	1	0	1	-10,288936	274,340227	310,885546	0
15.01.2021	17:33:26	0	0	3,841293	1,23075	0,4896	0,42	83,792	0	1016,36	7	9,1	8,9	1	1	1	1	1	1	1	1	1	0	1	-8,597604	274,308521	312,42843	0
15.01.2021	17:33:27	0	0	4,293184	1,17525	360	0,422	83,805	0	1016,14	7,1	9,1	9	1	1	1	1	1	1	1	1	1	0	1	-14,235377	274,186713	306,220826	0
15.01.2021	17:33:28	0	0	4,858106	1,13325	3,7692	0,419	83,786	0	1016,3	7	9,1	8,9	1	1	1	1	1	1	1	1	1	0	1	-13,03735	274,322103	308,052268	0
15.01.2021	17:33:29	0	0	4,63212	1,155	358,614	0,423	83,804	0	1016,26	7	9,1	9	1	1	1	1	1	1	1	1	1	0	1	-11,486963	274,356855	309,765396	0
15.01.2021	17:33:30	0	0	3,163399	1,15275	2,6532	0,42	83,803	0	1016,12	7,1	9,1	9	1	1	1	1	1	1	1	1	1	0	1	-10,570825	274,227231	310,074838	0
15.01.2021	17:33:31	0	0	3,163418	1,1805	358,3512	0,422	83,812	0	1016,34	7,1	9,1	8,9	1	1	1	1	1	1	1	1	1	0	1	-13,812544	274,334184	307,333639	0
15.01.2021	17:33:32	0	0	2,711485	1,1745	354,996	0,421	83,802	0	1016,3	7,1	9,2	9	1	1	1	1	1	1	1	1	1	0	1	-13,742072	274,368958	307,566975	0
15.01.2021	17:33:33	0	0	4,858106	1,071	352,89	0,426	83,807	0	1016,16	7,1	9,1	8,9	1	1	1	1	1	1	1	1	1	0	1	-9,513742	274,281386	311,385286	0
15.01.2021	17:33:34	0	0	4,971055	0,97275	328,9608	0,418	83,795	0	1016,14	7,1	9,1	9	1	1	1	1	1	1	1	1	1	0	1	-13,6716	274,191211	306,80563	0
15.01.2021	17:33:35	0	0	3,954249	0,97725	326,0196	0,418	83,816	0	1016,16	7	9,1	9	1	1	1	1	1	1	1	1	1	0	1	-11,205074	274,332673	309,934036	0
15.01.2021	17:33:36	0	0	4,406163	0,9315	332,9676	0,422	83,787	0	1016,18	7	9	9	1	1	1	1	1	1	1	1	1	0	1	-11,41649	274,191211	309,06074	0
15.01.2021	17:33:37	0	0	4,519141	0,9195	337,1796	0,424	83,811	0	1016,22	7,1	9,1	9	1	1	1	1	1	1	1	1	1	0	1	-14,094433	274,319084	306,981051	0
15.01.2021	17:33:38	0	0	2,598506	0,8895	343,4544	0,422	83,812	0	1016,18	7	9,1	9	1	1	1	1	1	1	1	1	1	0	1	-11,275546	274,207712	309,278835	0
15.01.2021	17:33:39	0	0	3,841293	0,87525	341,622	0,42	83,811	0	1016,18	7	9,1	8,9	1	1	1	1	1	1	1	1	1	0	1	-12,755462	274,319084	308,320022	0
15.01.2021	17:33:40	0	0	4,406163	0,83925	343,9368	0,418	83,827	0	1016,24	7,1	9,1	9	1	1	1	1	1	1	1	1	1	0	1	-10,077519	274,365932	311,217351	0
15.01.2021	17:33:41	0	0	3,954249	0,819	347,6376	0,419	83,818	0	1016,16	7,1	9,1	9	1	1	1	1	1	1	1	1	1	0	1	-9,725159	274,219721	310,885383	0
15.01.2021	17:33:42	0	0	4,519141	0,84075	345,2796	0,418	83,817	0	1016,2	7,1	9,1	9	1	1	1	1	1	1	1	1	1	0	1	-10,077519	274,189712	310,392701	0
15.01.2021	17:33:43	0	0	3,841293	0,798	343,116	0,418	83,799	0	1016,22	7,1	9,1	8,9	1	1	1	1	1	1	1	1	1	0	1	-9,654686	274,227231	310,990976	0
15.01.2021	17:33:44	0	0	3,276377	0,792	339,8796	0,412	83,802	0	1016,16	7,1	9,1	9	1	1	1	1	1	1	1	1	1	0	1	-14,376321	274,236246	306,311509	0
15.01.2021	17:33:45	0	0	4,293184	0,77775	334,926	0,416	83,806	0	1016,2	7,1	9,2	9	1	1	1	1	1	1	1	1	1	0	1	-10,852713	274,332673	310,286397	0
15.01.2021	17:33:46	0	0	3,954249	0,83925	337,1508	0,421	83,822	0	1016,2	7	9,1	9	1	1	1	1	1	1	1	1	1	0	1	-7,258633	274,307013	313,76034	0
15.01.2021	17:33:47	0	0	4,745098	0,891	343,4904	0,419	83,82	0	1016,26	7	9,1	9	1	1	1	1	1	1	1	1	1	0	1	-9,513742	274,367445	311,788216	0
15.01.2021	17:33:48	0	0	3,05042	0,945	333,7704	0,417	83,817	0	1016,28	7,1	9	9	1	1	1	1	1	1	1	1	1	0	1	-7,540521	274,240755	313,168402	0
15.01.2021	17:33:49	0	0	4,63212	1,00725	332,658	0,417	83,818	0	1016,36	7	9,2	9	1	1	1	1	1	1	1	1	1	0	1	-9,654686	274,355343	311,590589	0
15.01.2021	17:33:50	0	0	2,598506	1,09425	330,4944	0,419	83,819	0	1016,32	7	9,1	9	1	1	1	1	1	1	1	1	1	0	1	-9,020437	274,227231	311,625226	0
15.01.2021	17:33:51	0	0	3,615313	1,12425	336,0744	0,417	83,806	0	1016,2	7	9,1	9	1	1	1	1	1	1	1	1	1	0	1	-12,966878	274,19871	307,545411	0
15.01.2021	17:33:52	0	0	4,180206	1,14675	355,8312	0,411	83,821	0	1016,28	7	9,1	9	1	1	1	1	1	1	1	1	1	0	1	-8,949965	274,367445	312,351993	0
15.01.2021	17:33:53	0	0	2,937442	1,122	341,3232	0,418	83,824	0	1016,02	7	9,1	9	1	1	1	1	1	1	1	1	1	0	1	-10,782241	274,257298	310,004074	0
15.01.2021	17:33:54	0	0	4,293184	1,15425	341,3484	0,419	83,834	0	1016,3	7	9,1	9	1	1	1	1	1	1	1	1	1	0	1	-14,799154	274,355343	306,446121	0
15.01.2021	17:33:55	0	0	2,711485	1,16325	339,4692	0,419	83,827	0	1016,26	7	9,1	9	1	1	1	1	1	1	1	1	1	0	1	-6,976744	274,240755	313,732179	0
15.01.2021	17:33:56	0	0	4,293184	1,26375	332,4132	0,417	83,823	0	1016,26	7,1	9,1	9	1	1	1	1	1	1	1	1	1	0	1	-11,275546	274,177721	309,13862	0
15.01.2021	17:33:57	0	0	3,728292	1,24575	333,1116	0,419	83,826	0	1016,28	7,1	9,1	9	1	1	1	1	1	1	1	1	1	0	1	-11,346018	274,314556	309,708269	0
15.01.2021	17:33:58	0	0	2,259571	1,18875	341,2692	0,417	83,826	0	1016,18	7,1	9,1	9	1	1	1	1	1	1	1	1	1	0	1	-10,570825	274,188213	309,892387	0
15.01.2021	17:33:59	0	0	5,084034	1,16325	333,8856	0,415	83,813	0	1016,04	7,1	9,1	9	1	1	1	1	1	1	1	1	1	0	1	-9,866103	274,263317	310,948374	0
15.01.2021	17:34:00	0	0	4,180206	1,26	344,5956	0,409	83,81	0	1016,18	7	9,1	9	1	1	1	1	1	1	1	1	1	0	1	-11,486963	274,347783	309,722907	0
15.01.2021	17:34:01	0	0	4,180206	1,26	344,5956	0,409	83,81	0	1016,18	7	9,1	9	1	1	1	1	1	1	1	1	1	0	1	-10,641297	274,352319	310,589814	0
15.01.2021	17:34:02	0	0	3,276377	1,2885	331,0704	0,419	83,83	0	1016,38	7	9,2	9	1	1	1	1	1	1	1	1	1	0	1	-11,06413	274,213715	309,518326	0
15.01.2021	17:34:03	0	0	4,519141	1,22475	315,8172	0,419	83,832	0	1016,1	7,1	9,2	9	1	1	1	1	1	1	1	1	1	0	1	-10,711769	274,37804	310,639822	0
15.01.2021	17:34:04	0	0	1,807656	1,191	316,2168	0,412	83,82	0	1016,24	7	9,2	9	1	1	1	1	1	1	1	1	1	0	1	-13,460183	274,361393	307,813428	0
15.01.2021	17:34:05	0	0	2,824463	1,152	335,7792	0,411	83,82	0	1016	7	9,1	9	1	1	1	1	1	1	1	1	1	0	1	-9,866103	274,212214	310,709333	0
15.01.2021	17:34:06	0	0	4,745098	1,12425	323,316	0,419	83,827	0	1016,3	7	9,1	9	1	1	1	1	1	1	1	1	1	0	1	-12,966878	274,332673	308,172232	0
15.01.2021	17:34:07	0	0	2,824463	1,209	318,0456	0,406	83,827	0	1016,22	7	9,1	9	1	1	1	1	1	1	1	1	1	0	1	-10,147992	274,228733	310,504698	0
15.01.2021	17:34:08	0	0	3,163399	1,2855	320,76	0,418	83,826	0	1016,32	7	9,1	9	1	1	1	1	1	1	1	1	1	0	1	-13,812544	274,371985	307,510681	0
15.01.2021	17:34:09	0	0	4,971055	1,389	327,8268	0,418	83,822	0	1016,24	7,1	9,1	9	1	1	1	1	1	1	1	1	1	0	1	-10,288936	274,328142	310,82896	0
15.01.2021	17:34:10	0	0	3,389356	1,37175	326,016	0,413	83,837	0	1016,18	7,1	9,1	9	1	1	1	1	1	1	1	1	1	0	1	-11,205074	274,191211	309,272156	0
15.01.2021	17:34:11	0	0	4,519141	1,317	323,3304	0,419	83,836	0	1016,26	7	9,1	9	1	1	1	1	1	1	1	1	1	0	1	-9,302326	274,213715	311,28013	0
15.01.2021	17:34:12	0	0	2,824463	1,2315	327,4164	0,421	83,831	0	1016,18	7	9,1	9	1	1	1	1	1	1	1	1	1	0	1	-11,346018	274,19721	309,159258	0
15.01.2021	17:34:13	0	0	3,728292	1,15575	321,9624	0,41	83,828	0	1016,14	7	9,1	9	1	1	1	1	1	1	1	1	1	0	1	-9,302326	274,341738	311,879233	0
15.01.2021	17:34:14	0	0	4,293184	1,10625	321,0876	0,419	83,841	0	1016,24	7,1	9,1	9	1	1	1	1	1	1	1	1	1	0	1	-12,262156	274,352319	308,968955	0
15.01.2021	17:34:15	0	0	2,824463	0,9885	326,3436	0,411	83,842	0	1016,28	7	9,1	9	1	1	1	1	1	1	1	1	1	0	1	-6,624383	274,263317	314,190094	0
15.01.2021	17:34:16	0	0	3,615313	0,91575	330,372	0,415	83,839	0	1016,2	7	9,1	9	1	1	1	1	1	1	1	1	1	0	1	-10,923185	274,361393	310,350426	0
15.01.2021	17:34:17	0	0	3,05042	0,891	323,0244	0,418	83,82	0	1016,2	7	9,1	9	1	1	1	1	1	1	1	1	1	0	1	-5,84919	274,317575	315,219228	0
15.01.2021	17:34:18	0	0	2,824463	0,90525	322,6104	0,418	83,844	0	1016,3	7,1	9,1	9	1	1	1	1	1	1	1	1	1	0	1	-12,191684	274,314556	308,862603	0
15.01.2021	17:34:19	0	0	2,711485	0,957	338,6988	0,422	83,842	0	1016,22	7	9,1	9	1	1	1	1	1	1	1	1	1	0	1	-10,993658	274,186713	309,462545	0
15.01.2021	17:34:20	0	0	3,276377	1,04025	331,578	0,416	83,831	0	1016,16	7	9,1	9	1	1	1	1	1	1	1	1	1	0	1	-10,923185	274,325122	310,18057	0
15.01.2021	17:34:21	0	0	4,180206	1,17975	321,8544	0,415	83,829	0	1016,26	7	9,1	9	1	1	1	1	1	1	1	1	1	0	1	-6,553911	274,183716	313,888277	0
15.01.2021	17:34:22	0	0	3,84127	1,3005	324,342	0,411	83,832	0	1016,16	7	9,1	9	1	1	1	1	1	1	1	1	1	0	1	-15,151515	274,313047	305,895708	0
15.01.2021	17:34:23	0	0	3,728292	1,33875	314,0748	0,416	83,839	0	1016,08	7	9,1	9	1	1	1	1	1	1	1	1	1	0	1	-10,993658	274,19871	309,518631	0
15.01.2021	17:34:24	0	0	3,615313	1,371	317,7	0,416	83,847	0	1016,26	7	9,1	9	1	1	1	1	1	1	1	1	1	0	1	-13,389711	274,20321	307,143621	0
15.01.2021	17:34:25	0	0	3,502334	1,33275	327,0924	0,422	83,844	0	1016,1	7	9,1	9	1	1	1	1	1	1	1	1	1	0	1	-10,288936	274,209212	310,272463	0
15.01.2021	17:34:26	0	0	4,858106	1,278	321,84	0,414	83,839	0	1016,12	7,1	9,1	8,9	1	1	1	1	1	1	1	1	1	0	1	-6,765328	274,161246	313,571833	0
15.01.2021	17:34:27	0	0	4,180206	1,26675	324,3348	0,414	83,831	0	1016,22	7	9,1	9	1	1	1	1	1	1	1	1	1	0	1	-10,007047	274,243762	310,715941	0
15.01.2021	17:34:28	0	0	2,711485	1,302	324,8028	0,418	83,842	0	1016,24	7	9,1	9	1	1	1	1	1	1	1	1	1	0	1	-10,782241	274,355343	310,463034	0
15.01.2021	17:34:29	0	0	2,485528	1,314	320,0148	0,415	83,833	0	1016,14	7	9,1	9	1	1	1	1	1	1	1	1	1	0	1	-9,020437	274,225728	311,6182	0
15.01.2021	17:34:30	0	0	2,598506	1,2675	329,2956	0,42	83,849	0	1016,24	7	9,1	9	1	1	1	1	1	1	1	1	1	0	1	-11,06413	274,365932	310,230741	0
15.01.2021	17:34:31	0	0	4,519141	1,17	321,4584	0,418	83,82	0	1016,22	7	9,1	9	1	1	1	1	1	1	1	1	1	0	1	-14,446794	274,337205	306,713538	0
15.01.2021	17:34:32	0	0	3,84127	1,13475	315,5796	0,423	83,835	0	1016,16	7,1	9,1	9	1	1	1	1	1	1	1	1	1	0	1	-18,393235	274,364419	302,894549	0
15.01.2021	17:34:33	0	0	2,372549	1,02675	320,0076	0,421	83,843	0	1016,28	7	9,1	9	1	1	1	1	1	1	1	1	1	0	1	-12,614517	274,242259	308,101438	0
15.01.2021	17:34:34	0	0	2,824463	0,9675	322,596	0,42	83,846	0	1016,2	7	9,1	9	1	1	1	1	1	1	1	1	1	0	1	-9,725159	274,180718	310,703017	0
15.01.2021	17:34:35	0	0	3,615313	0,86625	326,412	0,423	83,849	0	1016,24	7	9,1	9	1	1	1	1	1	1	1	1	1	0	1	-15,64482	274,28892	305,289465	0
15.01.2021	17:34:36	0	0	3,163399	0,7695	339,894	0,418	83,841	0	1016,28	7	9,1	9	1	1	1	1	1	1	1	1	1	0	1	-9,584214	274,191211	310,893016	0
15.01.2021	17:34:37	0	0	2,711485	0,72075	347,166	0,416	83,845	0	1016,44	7	9,1	9	1	1	1	1	1	1	1	1	1	0	1	-13,178295	274,287413	307,748938	0
15.01.2021	17:34:38	0	0	2,485528	0,64125	345,1356	0,418	83,833	0	1016	7	9,1	9	1	1	1	1	1	1	1	1	1	0	1	-10,218464	274,168733	310,153689	0
15.01.2021	17:34:39	0	0	3,728292	0,62625	339,8904	0,417	83,839	0	1016,42	7	9,1	9	1	1	1	1	1	1	1	1	1	0	1	-10,42988	274,284399	310,483249	0
15.01.2021	17:34:40	0	0	3,163399	0,65625	343,8108	0,422	83,841	0	1016,22	7	9,1	9	1	1	1	1	1	1	1	1	1	0	1	-8,668076	274,171729	311,718079	0
15.01.2021	17:34:41	0	0	4,63212	0,678	358,272	0,42	83,841	0	1016,04	7	9,1	9	1	1	1	1	1	1	1	1	1	0	1	-8,738548	274,320593	312,344003	0
15.01.2021	17:34:42	0	0	2,824463	0,7335	348,9732	0,416	83,839	0	1016,48	7	9,1	9	1	1	1	1	1	1	1	1	1	0	1	-7,751938	274,17922	312,669233	0
15.01.2021	17:34:43	0	0	2,711485	0,76575	341,6868	0,418	83,85	0	1016,04	7	9,1	9	1	1	1	1	1	1	1	1	1	0	1	-16,208598	274,243762	304,514391	0
15.01.2021	17:34:44	0	0	3,502334	0,777	347,2776	0,424	83,847	0	1016,26	7	9,1	9	1	1	1	1	1	1	1	1	1	0	1	-7,82241	274,338716	313,344996	0
15.01.2021	17:34:45	0	0	2,824463	0,78525	349,1496	0,421	83,846	0	1016,14	7	9,1	9	1	1	1	1	1	1	1	1	1	0	1	-8,879493	274,222724	311,745095	0
15.01.2021	17:34:46	0	0	3,389356	0,7815	351,288	0,419	83,85	0	1016,14	7	9,1	9	1	1	1	1	1	1	1	1	1	0	1	-7,892882	274,349295	313,324067	0
15.01.2021	17:34:47	0	0	3,389356	0,78225	351,0612	0,422	83,84	0	1016,24	7	9,1	9	1	1	1	1	1	1	1	1	1	0	1	-9,725159	274,260308	311,075236	0
15.01.2021	17:34:48	0	0	2,937442	0,7485	346,8888	0,423	83,845	0	1016,18	7	9,1	9	1	1	1	1	1	1	1	1	1	0	1	-11,41649	274,352319	309,814621	0
15.01.2021	17:34:49	0	0	3,84127	0,78075	340,9236	0,419	83,843	0	1016,14	7	9,1	9	1	1	1	1	1	1	1	1	1	0	1	-9,866103	274,222724	310,758485	0
15.01.2021	17:34:50	0	0	3,05042	0,72225	334,8036	0,419	83,852	0	1016,26	7	9,1	9	1	1	1	1	1	1	1	1	1	0	1	-12,473573	274,176223	307,933589	0
15.01.2021	17:34:51	0	0	4,519141	0,66675	330,7968	0,417	83,847	0	1016,18	7	9,1	9	1	1	1	1	1	1	1	1	1	0	1	-15,221987	274,23324	305,451785	0
15.01.2021	17:34:52	0	0	3,05042	0,576	335,6244	0,421	83,835	0	1016,18	7	9,1	9	1	1	1	1	1	1	1	1	1	0	1	-13,953488	274,353831	307,284704	0
15.01.2021	17:34:53	0	0	3,502334	0,51	343,0764	0,424	83,837	0	1016,18	7	9,1	9	1	1	1	1	1	1	1	1	1	0	1	-10,077519	274,297964	310,899098	0
15.01.2021	17:34:54	0	0	3,389356	0,4695	347,2164	0,423	83,86	0	1016,24	7	9,1	9	1	1	1	1	1	1	1	1	1	0	1	-6,694856	274,311538	314,345304	0
15.01.2021	17:34:55	0	0	3,05042	0,477	343,0224	0,417	83,851	0	1016,12	7	9,1	9	1	1	1	1	1	1	1	1	1	0	1	-11,909796	274,329652	309,215171	0
15.01.2021	17:34:56	0	0	2,824463	0,46725	344,3508	0,42	83,846	0	1016,2	7	9,1	9	1	1	1	1	1	1	1	1	1	0	1	-12,403101	274,316065	308,658251	0
15.01.2021	17:34:57	0	0	4,858077	0,41775	350,6796	0,415	83,853	0	1016,32	7	9,1	9	1	1	1	1	1	1	1	1	1	0	1	-5,990134	274,337205	315,170197	0
15.01.2021	17:34:58	0	0	4,519141	0,435	348,2892	0,418	83,841	0	1016,14	7	9,1	9	1	1	1	1	1	1	1	1	1	0	1	-9,936575	274,316065	311,124777	0
15.01.2021	17:34:59	0	0	4,067227	0,44325	335,7144	0,414	83,847	0	1016,14	7	9,1	9	1	1	1	1	1	1	1	1	1	0	1	-11,698379	274,341738	309,483179	0
15.01.2021	17:35:00	0	0	3,276377	0,474	336,3948	0,422	83,857	0	1016,3	7	9,1	9	1	1	1	1	1	1	1	1	1	0	1	-11,205074	274,207712	309,349307	0
15.01.2021	17:35:01	0	0	3,276377	0,474	336,3948	0,422	83,857	0	1016,3	7	9,1	9	1	1	1	1	1	1	1	1	1	0	1	-5,708245	274,171729	314,677909	0
15.01.2021	17:35:02	0	0	2,598537	0,46875	338,0184	0,419	83,862	0	1016,24	7	9,1	8,8	1	1	1	1	1	1	1	1	1	0	1	-12,473573	274,219721	308,136968	0
15.01.2021	17:35:03	0	0	2,598506	0,51975	335,3112	0,419	83,841	0	1016,18	7	9,1	9	1	1	1	1	1	1	1	1	1	0	1	-10,993658	274,188213	309,469554	0
15.01.2021	17:35:04	0	0	3,163399	0,531	332,7012	0,419	83,847	0	1016,24	7	9,1	9	1	1	1	1	1	1	1	1	1	0	1	-9,302326	274,188213	311,160886	0
15.01.2021	17:35:05	0	0	3,954249	0,58125	327,7656	0,421	83,851	0	1016,18	7	9,1	9	1	1	1	1	1	1	1	1	1	0	1	-7,681466	274,230235	312,97825	0
15.01.2021	17:35:06	0	0	2,824463	0,627	328,1796	0,421	83,856	0	1016,2	7	9,1	9	1	1	1	1	1	1	1	1	1	0	1	-6,131078	274,216718	314,465419	0
15.01.2021	17:35:07	0	0	4,293184	0,6405	325,944	0,419	83,849	0	1016,16	7	9,1	9	1	1	1	1	1	1	1	1	1	0	1	-15,362932	274,173227	305,030225	0
15.01.2021	17:35:08	0	0	3,276377	0,62925	324,8748	0,414	83,862	0	1016,26	7	9,1	9	1	1	1	1	1	1	1	1	1	0	1	-6,694856	274,331163	314,437183	0
15.01.2021	17:35:09	0	0	4,406163	0,606	329,2164	0,416	83,841	0	1016,1	7	9,1	9	1	1	1	1	1	1	1	1	1	0	1	-10,852713	274,313047	310,19451	0
15.01.2021	17:35:10	0	0	4,632175	0,60675	333,4464	0,422	83,845	0	1016,14	7	9,1	8,8	1	1	1	1	1	1	1	1	1	0	1	-13,6716	274,349295	307,54535	0
15.01.2021	17:35:11	0	0	4,745155	0,66	331,4916	0,418	83,841	0	1016,18	7	9,1	8,8	1	1	1	1	1	1	1	1	1	0	1	-10,923185	274,28892	310,0111	0
15.01.2021	17:35:12	0	0	3,84127	0,732	335,394	0,415	83,867	0	1016,32	7	9,1	9	1	1	1	1	1	1	1	1	1	0	1	-12,332629	274,173227	308,060528	0
15.01.2021	17:35:13	0	0	4,971115	0,8235	336,15	0,425	83,864	0	1016,2	7	9,1	8,8	1	1	1	1	1	1	1	1	1	0	1	-9,090909	274,260308	311,709486	0
15.01.2021	17:35:14	0	0	5,197012	0,90825	322,2036	0,42	83,871	0	1016,28	7	9,1	9	1	1	1	1	1	1	1	1	1	0	1	-7,963354	274,188213	312,499857	0
15.01.2021	17:35:15	0	0	5,084034	1,0065	332,3196	0,412	83,857	0	1016,14	7	9,1	9	1	1	1	1	1	1	1	1	1	0	1	-15,785765	274,276867	305,092117	0
15.01.2021	17:35:16	0	0	4,858077	1,056	329,9976	0,416	83,86	0	1015,92	7	9,1	9	1	1	1	1	1	1	1	1	1	0	1	-7,610994	274,189712	312,859227	0
15.01.2021	17:35:17	0	0	2,937442	1,11075	334,9512	0,417	83,867	0	1016,32	7	9,1	9	1	1	1	1	1	1	1	1	1	0	1	-9,866103	274,207712	310,688278	0
15.01.2021	17:35:18	0	0	4,971055	1,1295	344,5668	0,417	83,852	0	1016,24	7	9,1	9	1	1	1	1	1	1	1	1	1	0	1	-8,45666	274,168733	311,915493	0
15.01.2021	17:35:19	0	0	4,745098	1,15575	334,1556	0,419	83,852	0	1016,16	7	9,1	9	1	1	1	1	1	1	1	1	1	0	1	-6,906272	274,242259	313,809684	0
15.01.2021	17:35:20	0	0	5,309991	1,20675	334,9476	0,413	83,851	0	1016,22	7	9,1	9	1	1	1	1	1	1	1	1	1	0	1	-11,557435	274,341738	309,624123	0
15.01.2021	17:35:21	0	0	4,858077	1,2075	350,6472	0,418	83,847	0	1016,16	7	9,1	9	1	1	1	1	1	1	1	1	1	0	1	-12,473573	274,293441	308,481875	0
15.01.2021	17:35:22	0	0	3,615313	1,209	349,5024	0,43	83,874	0	1016,28	7	9,1	9	1	1	1	1	1	1	1	1	1	0	1	-13,6716	274,307013	307,347373	0
15.01.2021	17:35:23	0	0	3,502376	1,2195	334,5624	0,415	83,864	0	1016,3	7	9,1	8,8	1	1	1	1	1	1	1	1	1	0	1	-11,346018	274,215217	309,243458	0
15.01.2021	17:35:24	0	0	3,615356	1,2495	337,4928	0,417	83,868	0	1016,18	7	9,1	8,8	1	1	1	1	1	1	1	1	1	0	1	-13,953488	274,173227	306,439668	0
15.01.2021	17:35:25	0	0	2,937442	1,26675	336,3804	0,422	83,866	0	1016,24	7	9,1	9	1	1	1	1	1	1	1	1	1	0	1	-14,376321	274,19721	306,128954	0
15.01.2021	17:35:26	0	0	3,05042	1,2525	335,3724	0,419	83,861	0	1016,16	7	9,1	9	1	1	1	1	1	1	1	1	1	0	1	-10,218464	274,27235	310,638277	0
15.01.2021	17:35:27	0	0	3,276377	1,251	339,5016	0,42	83,865	0	1016,26	7	9,1	9	1	1	1	1	1	1	1	1	1	0	1	-9,513742	274,176223	310,89342	0
15.01.2021	17:35:28	0	0	2,598506	1,25475	334,602	0,422	83,863	0	1016,22	7	9,1	9	1	1	1	1	1	1	1	1	1	0	1	-9,725159	274,204711	310,815189	0
15.01.2021	17:35:29	0	0	4,745155	1,23375	337,9752	0,42	83,861	0	1016,34	7	9,1	8,8	1	1	1	1	1	1	1	1	1	0	1	-10,923185	274,335694	310,230072	0
15.01.2021	17:35:30	0	0	3,05042	1,17375	348,2856	0,418	83,876	0	1016,26	7	9,1	9	1	1	1	1	1	1	1	1	1	0	1	-10,42988	274,186713	310,026323	0
15.01.2021	17:35:31	0	0	2,711517	1,14225	346,1652	0,417	83,851	0	1016,28	7	9,1	8,8	1	1	1	1	1	1	1	1	1	0	1	-7,751938	274,340227	313,422544	0
15.01.2021	17:35:32	0	0	2,598506	1,05225	344,3688	0,416	83,87	0	1016,14	7	9,1	9	1	1	1	1	1	1	1	1	1	0	1	-10,42988	274,176223	309,977282	0
15.01.2021	17:35:33	0	0	4,63212	1,0335	344,322	0,419	83,857	0	1016,14	7	9,1	9	1	1	1	1	1	1	1	1	1	0	1	-10,007047	274,27235	310,849693	0
15.01.2021	17:35:34	0	0	4,519141	1,017	341,298	0,421	83,869	0	1016,16	7	9,1	9	1	1	1	1	1	1	1	1	1	0	1	-11,486963	274,338716	309,680444	0
15.01.2021	17:35:35	0	0	2,824463	1,017	343,9044	0,415	83,854	0	1016,36	7	9,1	9	1	1	1	1	1	1	1	1	1	0	1	-13,107822	274,216718	307,488675	0
15.01.2021	17:35:36	0	0	2,598506	1,02225	340,8876	0,417	83,864	0	1016,28	7	9,1	9	1	1	1	1	1	1	1	1	1	0	1	-14,235377	274,162743	306,10878	0
15.01.2021	17:35:37	0	0	2,937477	0,97425	342,3096	0,418	83,884	0	1016,22	7	9,1	8,8	1	1	1	1	1	1	1	1	1	0	1	-8,386187	274,213715	312,196268	0
15.01.2021	17:35:38	0	0	2,937477	0,9465	334,602	0,418	83,862	0	1016,24	7	9,1	8,8	1	1	1	1	1	1	1	1	1	0	1	-10,852713	274,19721	309,652563	0
15.01.2021	17:35:39	0	0	4,519195	0,9015	330,0012	0,418	83,865	0	1016,2	7	9,1	8,8	1	1	1	1	1	1	1	1	1	0	1	-9,513742	274,264822	311,307777	0
15.01.2021	17:35:40	0	0	2,598506	0,88275	331,1316	0,418	83,87	0	1016,14	7	9,1	9	1	1	1	1	1	1	1	1	1	0	1	-4,580691	274,173227	315,812466	0
15.01.2021	17:35:41	0	0	2,937442	0,86625	327,4416	0,421	83,867	0	1016,18	7	9,1	9	1	1	1	1	1	1	1	1	1	0	1	-9,090909	274,293441	311,864539	0
15.01.2021	17:35:42	0	0	2,711485	0,828	333,486	0,422	83,868	0	1016,14	7	9,1	9	1	1	1	1	1	1	1	1	1	0	1	-8,386187	274,191211	312,091043	0
15.01.2021	17:35:43	0	0	4,858077	0,87525	337,932	0,414	83,853	0	1016,22	7	9,1	9	1	1	1	1	1	1	1	1	1	0	1	-8,033827	274,269338	312,808823	0
15.01.2021	17:35:44	0	0	4,406163	0,8625	337,2156	0,422	83,871	0	1016,26	7	9,1	9	1	1	1	1	1	1	1	1	1	0	1	-10,077519	274,34476	311,118193	0
15.01.2021	17:35:45	0	0	2,259571	0,86475	335,034	0,42	83,87	0	1016,24	7	9,1	9	1	1	1	1	1	1	1	1	1	0	1	-11,768851	274,257298	309,017464	0
15.01.2021	17:35:46	0	0	3,502334	0,86025	329,7204	0,413	83,864	0	1016,22	7	9,1	9	1	1	1	1	1	1	1	1	1	0	1	-7,963354	274,350807	313,260676	0
15.01.2021	17:35:47	0	0	4,293236	0,885	333,162	0,412	83,852	0	1016,14	7	9,1	8,8	1	1	1	1	1	1	1	1	1	0	1	-6,765328	274,270844	314,084367	0
15.01.2021	17:35:48	0	0	3,728336	0,867	339,0984	0,423	83,864	0	1015,98	7	9,1	8,8	1	1	1	1	1	1	1	1	1	0	1	-8,738548	274,155259	311,57063	0
15.01.2021	17:35:49	0	0	2,146618	0,89625	342,6732	0,418	83,879	0	1016,3	7	9,1	8,8	1	1	1	1	1	1	1	1	1	0	1	-11,980268	274,258803	308,813087	0
15.01.2021	17:35:50	0	0	4,293184	0,88575	342,8064	0,416	83,864	0	1016,18	7	9,1	9	1	1	1	1	1	1	1	1	1	0	1	-5,144468	274,15077	315,14373	0
15.01.2021	17:35:51	0	0	2,485528	0,86925	344,286	0,418	83,866	0	1016,14	7	9,1	9	1	1	1	1	1	1	1	1	1	0	1	-9,090909	274,27235	311,765831	0
15.01.2021	17:35:52	0	0	3,163437	0,852	350,3592	0,419	83,867	0	1016,24	7	9,1	8,8	1	1	1	1	1	1	1	1	1	0	1	-8,738548	274,162743	311,605609	0
15.01.2021	17:35:53	0	0	2,146592	0,81	343,9836	0,419	83,856	0	1016,16	7	9,1	9	1	1	1	1	1	1	1	1	1	0	1	-10,570825	274,204711	309,969523	0
15.01.2021	17:35:54	0	0	2,824497	0,79125	338,3352	0,418	83,873	0	1016,16	7	9,1	8,8	1	1	1	1	1	1	1	1	1	0	1	-7,892882	274,162743	312,451275	0
15.01.2021	17:35:55	0	0	4,745155	0,726	336,3876	0,421	83,857	0	1016,26	7	9,1	8,8	1	1	1	1	1	1	1	1	1	0	1	-10,570825	274,263317	310,243653	0
15.01.2021	17:35:56	0	0	2,598537	0,681	338,3352	0,42	83,866	0	1016,16	7	9,1	8,8	1	1	1	1	1	1	1	1	1	0	1	-10,359408	274,338716	310,807998	0
15.01.2021	17:35:57	0	0	5,084095	0,654	330,0156	0,426	83,854	0	1016,22	7	9,1	8,8	1	1	1	1	1	1	1	1	1	0	1	-9,866103	274,236246	310,821728	0
15.01.2021	17:35:58	0	0	2,824497	0,64125	320,0652	0,424	83,861	0	1016,24	7	9,1	8,8	1	1	1	1	1	1	1	1	1	0	1	-11,275546	274,170231	309,103607	0
15.01.2021	17:35:59	0	0	3,389397	0,642	334,638	0,425	83,861	0	1016,2	7	9,1	8,8	1	1	1	1	1	1	1	1	1	0	1	-11,134602	274,254289	309,637636	0
15.01.2021	17:36:00	0	0	3,163399	0,64875	353,5812	0,422	83,861	0	1016,34	7	9,1	9	1	1	1	1	1	1	1	1	1	0	1	-11,839323	274,159749	308,49084	0
15.01.2021	17:36:01	0	0	3,163399	0,64875	353,5812	0,422	83,861	0	1016,34	7	9,1	9	1	1	1	1	1	1	1	1	1	0	1	-10,359408	274,267833	310,476198	0
15.01.2021	17:36:02	0	0	2,598537	0,6405	345,726	0,423	83,864	0	1016,24	7	9,1	8,8	1	1	1	1	1	1	1	1	1	0	1	-10,570825	274,158252	309,752343	0
15.01.2021	17:36:03	0	0	2,824497	0,5925	332,4276	0,416	83,857	0	1016,18	7	9,1	8,8	1	1	1	1	1	1	1	1	1	0	1	-7,188161	274,218219	313,415358	0
15.01.2021	17:36:04	0	0	4,519195	0,588	329,7348	0,423	83,855	0	1016,22	7	9,1	8,8	1	1	1	1	1	1	1	1	1	0	1	-8,597604	274,156756	311,718568	0
15.01.2021	17:36:05	0	0	2,259598	0,56325	322,1532	0,422	83,874	0	1016,28	7	9,1	8,8	1	1	1	1	1	1	1	1	1	0	1	-6,624383	274,204711	313,915964	0
15.01.2021	17:36:06	0	0	4,293236	0,56175	316,2744	0,422	83,86	0	1016,08	7	9,1	8,8	1	1	1	1	1	1	1	1	1	0	1	-11,909796	274,331163	309,222242	0
15.01.2021	17:36:07	0	0	4,293236	0,52425	320,0364	0,424	83,852	0	1016,32	7	9,1	8,8	1	1	1	1	1	1	1	1	1	0	1	-10,782241	274,282893	310,123837	0
15.01.2021	17:36:08	0	0	3,954296	0,498	322,902	0,421	83,857	0	1016,22	7	9,1	8,8	1	1	1	1	1	1	1	1	1	0	1	-9,584214	274,155259	310,724964	0
15.01.2021	17:36:09	0	0	2,711517	0,5205	319,9608	0,423	83,855	0	1016,28	7	9,1	8,8	1	1	1	1	1	1	1	1	1	0	1	-9,372798	274,192711	311,111443	0
15.01.2021	17:36:10	0	0	3,050457	0,5055	318,762	0,426	83,859	0	1016,22	7	9,1	8,8	1	1	1	1	1	1	1	1	1	0	1	-11,205074	274,156756	309,111098	0
15.01.2021	17:36:11	0	0	4,519195	0,52125	327,7404	0,422	83,855	0	1016,3	7	9,1	8,8	1	1	1	1	1	1	1	1	1	0	1	-9,372798	274,207712	311,181583	0
15.01.2021	17:36:12	0	0	3,502376	0,53475	339,8112	0,424	83,853	0	1016,2	7	9,1	8,8	1	1	1	1	1	1	1	1	1	0	1	-10,42988	274,322103	310,659738	0
15.01.2021	17:36:13	0	0	4,519195	0,519	341,622	0,422	83,854	0	1016,2	7	9,1	8,8	1	1	1	1	1	1	1	1	1	0	1	-9,654686	274,19571	310,843577	0
15.01.2021	17:36:14	0	0	4,858135	0,50775	330,3252	0,418	83,847	0	1016,28	7	9,1	8,8	1	1	1	1	1	1	1	1	1	0	1	-11,980268	274,326632	309,130557	0
15.01.2021	17:36:15	0	0	2,711517	0,49725	316,2276	0,424	83,854	0	1016,18	7	9,1	8,8	1	1	1	1	1	1	1	1	1	0	1	-10,288936	274,19421	310,202316	0
15.01.2021	17:36:16	0	0	2,824497	0,465	301,5756	0,424	83,857	0	1016,26	7	9,1	8,8	1	1	1	1	1	1	1	1	1	0	1	-8,80902	274,158252	311,514147	0
15.01.2021	17:36:17	0	0	3,502376	0,45225	293,3172	0,424	83,842	0	1016,16	7	9,1	8,8	1	1	1	1	1	1	1	1	1	0	1	-6,553911	274,281386	314,345117	0
15.01.2021	17:36:18	0	0	4,519141	0,45525	297,5472	0,421	83,859	0	1016,02	7	9,1	9	1	1	1	1	1	1	1	1	1	0	1	-6,272023	274,170231	314,107131	0
15.01.2021	17:36:19	0	0	4,180256	0,414	306,7596	0,42	83,857	0	1016,12	7	9,1	8,8	1	1	1	1	1	1	1	1	1	0	1	-9,584214	274,19571	310,914049	0
15.01.2021	17:36:20	0	0	4,745155	0,387	312,4332	0,422	83,844	0	1016,24	7	9,1	8,8	1	1	1	1	1	1	1	1	1	0	1	-11,768851	274,126844	308,407554	0
15.01.2021	17:36:21	0	0	3,841316	0,39675	309,978	0,421	83,846	0	1016,14	7	9,1	8,8	1	1	1	1	1	1	1	1	1	0	1	-8,597604	274,164241	311,753551	0
15.01.2021	17:36:22	0	0	4,858135	0,3945	306,9324	0,416	83,839	0	1016,22	7	9,1	8,8	1	1	1	1	1	1	1	1	1	0	1	-10,147992	274,305504	310,86392	0
15.01.2021	17:36:23	0	0	2,937477	0,36675	310,6152	0,423	83,857	0	1016,18	7	9,1	8,8	1	1	1	1	1	1	1	1	1	0	1	-10,218464	274,20021	310,300839	0
15.01.2021	17:36:24	0	0	4,406163	0,41475	317,3976	0,424	83,854	0	1016,2	7,1	9,1	9	1	1	1	1	1	1	1	1	1	0	1	-7,047216	274,159749	313,282947	0
15.01.2021	17:36:25	0	0	4,180256	0,4155	322,956	0,424	83,853	0	1016,3	7	9,1	8,8	1	1	1	1	1	1	1	1	1	0	1	-10,641297	274,19871	309,870992	0
15.01.2021	17:36:26	0	0	4,067276	0,40875	327,0924	0,42	83,85	0	1016,22	7	9,1	8,8	1	1	1	1	1	1	1	1	1	0	1	-12,684989	274,323613	308,411697	0
15.01.2021	17:36:27	0	0	2,598537	0,4035	328,8744	0,421	83,852	0	1016,36	7	9,1	8,8	1	1	1	1	1	1	1	1	1	0	1	-9,020437	274,149273	311,260769	0
15.01.2021	17:36:28	0	0	4,858077	0,40125	323,6292	0,422	83,864	0	1016,18	7	9,1	9	1	1	1	1	1	1	1	1	1	0	1	-6,20155	274,276867	314,676331	0
15.01.2021	17:36:29	0	0	3,841316	0,36975	317,7396	0,419	83,837	0	1016,1	7	9,1	8,8	1	1	1	1	1	1	1	1	1	0	1	-13,530655	274,347783	307,679215	0
15.01.2021	17:36:30	0	0	4,293236	0,3855	314,7444	0,422	83,854	0	1016,2	7	9,1	8,8	1	1	1	1	1	1	1	1	1	0	1	-7,82241	274,278374	313,062519	0
15.01.2021	17:36:31	0	0	4,406189	0,38325	318,438	0,42	83,856	0	1016,3	7	9,1	8,9	1	1	1	1	1	1	1	1	1	0	1	-7,399577	274,296456	313,569983	0
15.01.2021	17:36:32	0	0	4,858135	0,40725	321,012	0,423	83,859	0	1016,36	7,1	9,1	8,8	1	1	1	1	1	1	1	1	1	0	1	-12,191684	274,27988	308,700294	0
15.01.2021	17:36:33	0	0	3,389356	0,411	314,7552	0,422	83,846	0	1016,16	7	9,1	9	1	1	1	1	1	1	1	1	1	0	1	-9,725159	274,308521	311,300876	0
15.01.2021	17:36:34	0	0	5,197075	0,42975	298,6956	0,424	83,858	0	1016,28	7	9,1	8,8	1	1	1	1	1	1	1	1	1	0	1	-7,681466	274,258803	313,111889	0
15.01.2021	17:36:35	0	0	3,163437	0,52125	288,504	0,421	83,845	0	1016,26	7	9,1	8,8	1	1	1	1	1	1	1	1	1	0	1	-8,386187	274,146281	311,881036	0
15.01.2021	17:36:36	0	0	4,406189	0,6675	294,1272	0,426	83,861	0	1016,34	7	9,1	8,9	1	1	1	1	1	1	1	1	1	0	1	-9,654686	274,282893	311,251392	0
15.01.2021	17:36:37	0	0	4,632175	0,77325	321,462	0,418	83,85	0	1016,28	7	9,1	8,8	1	1	1	1	1	1	1	1	1	0	1	-6,624383	274,322103	314,465235	0
15.01.2021	17:36:38	0	0	4,067276	0,84675	329,6772	0,419	83,847	0	1016,3	7	9,1	8,8	1	1	1	1	1	1	1	1	1	0	1	-14,376321	274,209212	306,185078	0
15.01.2021	17:36:39	0	0	3,276417	0,8265	310,698	0,42	83,846	0	1016,28	7	9,1	8,8	1	1	1	1	1	1	1	1	1	0	1	-11,557435	274,149273	308,723771	0
15.01.2021	17:36:40	0	0	4,745155	0,84225	288,1296	0,419	83,852	0	1016,28	7	9,1	8,8	1	1	1	1	1	1	1	1	1	0	1	-10,288936	274,28892	310,64535	0
15.01.2021	17:36:41	0	0	4,519168	0,882	293,7528	0,423	83,854	0	1016,22	7	9,1	8,9	1	1	1	1	1	1	1	1	1	0	1	-6,342495	274,138803	313,889786	0
15.01.2021	17:36:42	0	0	4,406216	0,9	312,8724	0,422	83,843	0	1016,38	7	9,1	8,8	1	1	1	1	1	1	1	1	1	0	1	-11,909796	274,257298	308,876519	0
15.01.2021	17:36:43	0	0	4,293236	0,90525	310,2876	0,427	83,846	0	1016,06	7	9,1	8,8	1	1	1	1	1	1	1	1	1	0	1	-12,403101	274,323613	308,693586	0
15.01.2021	17:36:44	0	0	3,954272	0,93525	297,5364	0,427	83,851	0	1016,26	7	9,1	8,9	1	1	1	1	1	1	1	1	1	0	1	-8,597604	274,275361	312,27323	0
15.01.2021	17:36:45	0	0	3,615356	0,9555	301,6224	0,427	83,85	0	1016	7	9,1	8,8	1	1	1	1	1	1	1	1	1	0	1	-4,721635	274,135813	315,496673	0
15.01.2021	17:36:46	0	0	4,519195	1,008	310,9824	0,421	83,855	0	1016,18	7	9,1	8,8	1	1	1	1	1	1	1	1	1	0	1	-8,386187	274,269338	312,456463	0
15.01.2021	17:36:47	0	0	2,824497	1,11375	308,8296	0,418	83,836	0	1016,26	7	9,1	8,8	1	1	1	1	1	1	1	1	1	0	1	-6,624383	274,149273	313,656823	0
15.01.2021	17:36:48	0	0	2,711517	1,095	313,6248	0,418	83,836	0	1016,16	7	9,1	8,8	1	1	1	1	1	1	1	1	1	0	1	-8,879493	274,218219	311,724026	0
15.01.2021	17:36:49	0	0	2,485558	1,11375	321,8292	0,423	83,853	0	1016,3	7	9,1	8,8	1	1	1	1	1	1	1	1	1	0	1	-8,527132	274,126844	311,649273	0
15.01.2021	17:36:50	0	0	4,180256	1,0755	314,4492	0,422	83,85	0	1016,2	7	9,1	8,8	1	1	1	1	1	1	1	1	1	0	1	-8,104299	274,19871	312,40799	0
15.01.2021	17:36:51	0	0	4,067252	1,02525	308,0556	0,42	83,855	0	1016,26	7	9,1	8,9	1	1	1	1	1	1	1	1	1	0	1	-9,866103	274,144785	310,394131	0
15.01.2021	17:36:52	0	0	2,598537	0,99975	305,7156	0,424	83,85	0	1016,18	7,1	9,1	8,8	1	1	1	1	1	1	1	1	1	0	1	-7,540521	274,236246	313,147309	0
15.01.2021	17:36:53	0	0	4,180256	0,94125	311,004	0,425	83,849	0	1016,44	7	9,1	8,8	1	1	1	1	1	1	1	1	1	0	1	-10,852713	274,317575	310,215704	0
15.01.2021	17:36:54	0	0	4,632175	0,906	313,524	0,422	83,842	0	1016,16	7,1	9	8,8	1	1	1	1	1	1	1	1	1	0	1	-9,936575	274,276867	310,941306	0
15.01.2021	17:36:55	0	0	3,728336	0,91125	300,9024	0,426	83,854	0	1016,14	7,1	9,1	8,8	1	1	1	1	1	1	1	1	1	0	1	-12,825934	274,185214	307,623261	0
15.01.2021	17:36:56	0	0	3,841316	0,91125	286,6248	0,422	83,855	0	1016,22	7,1	9,1	8,8	1	1	1	1	1	1	1	1	1	0	1	-7,329105	274,140298	312,910163	0
15.01.2021	17:36:57	0	0	3,841316	0,85725	297,1476	0,42	83,858	0	1016,16	7	9,1	8,8	1	1	1	1	1	1	1	1	1	0	1	-14,023961	274,27988	306,868018	0
15.01.2021	17:36:58	0	0	4,858135	0,79425	329,274	0,424	83,849	0	1016,18	7,1	9,1	8,8	1	1	1	1	1	1	1	1	1	0	1	-12,896406	274,319084	308,179078	0
15.01.2021	17:36:59	0	0	4,632175	0,726	350,7156	0,415	83,84	0	1016,08	7	9,1	8,8	1	1	1	1	1	1	1	1	1	0	1	-6,976744	274,287413	313,950489	0
15.01.2021	17:37:00	0	0	4,293236	0,63075	336,0564	0,422	83,867	0	1016,18	7,1	9,1	8,8	1	1	1	1	1	1	1	1	1	0	1	-9,020437	274,186713	311,435766	0
15.01.2021	17:37:01	0	0	4,293236	0,63075	336,0564	0,422	83,867	0	1016,18	7,1	9,1	8,8	1	1	1	1	1	1	1	1	1	0	1	-14,799154	274,302488	306,198637	0
15.01.2021	17:37:02	0	0	4,971115	0,59025	326,0016	0,423	83,846	0	1016,2	7	9,1	8,8	1	1	1	1	1	1	1	1	1	0	1	-8,668076	274,325122	312,435679	0
15.01.2021	17:37:03	0	0	3,728314	0,576	329,328	0,422	83,847	0	1016,24	7	9,1	8,9	1	1	1	1	1	1	1	1	1	0	1	-11,698379	274,258803	309,094975	0
15.01.2021	17:37:04	0	0	3,728336	0,6015	342,7236	0,42	83,839	0	1016,18	7	9,1	8,8	1	1	1	1	1	1	1	1	1	0	1	-10,993658	274,322103	310,095961	0
15.01.2021	17:37:05	0	0	5,084064	0,6375	351,3708	0,419	83,849	0	1016,24	7,1	9,1	8,9	1	1	1	1	1	1	1	1	1	0	1	-10,147992	274,19721	310,357284	0
15.01.2021	17:37:06	0	0	2,485543	0,78975	333,1224	0,422	83,858	0	1016,32	7	9,1	8,9	1	1	1	1	1	1	1	1	1	0	1	-8,527132	274,316065	312,53422	0
15.01.2021	17:37:07	0	0	3,389397	0,9585	320,0148	0,427	83,855	0	1016,4	7	9	8,8	1	1	1	1	1	1	1	1	1	0	1	-7,82241	274,132823	312,381927	0
15.01.2021	17:37:08	0	0	4,745155	0,993	340,6104	0,42	83,845	0	1016,12	7,1	9,1	8,8	1	1	1	1	1	1	1	1	1	0	1	-12,121212	274,249777	308,629915	0
15.01.2021	17:37:09	0	0	5,197044	0,978	5,2308	0,417	83,851	0	1016,18	7	9,1	8,9	1	1	1	1	1	1	1	1	1	0	1	-8,245243	274,319084	312,830241	0
15.01.2021	17:37:10	0	0	4,180256	0,939	11,1852	0,421	83,854	0	1016,32	7	9,1	8,8	1	1	1	1	1	1	1	1	1	0	1	-14,305849	274,285906	306,614331	0
15.01.2021	17:37:11	0	0	2,711501	0,882	359,1	0,422	83,859	0	1016,2	7,1	9,1	8,9	1	1	1	1	1	1	1	1	1	0	1	-9,161381	274,20171	311,364936	0
15.01.2021	17:37:12	0	0	2,711517	0,86925	342,0792	0,418	83,843	0	1016,22	7	9,1	8,8	1	1	1	1	1	1	1	1	1	0	1	-9,866103	274,276867	311,011778	0
15.01.2021	17:37:13	0	0	3,502376	0,8355	338,3172	0,424	83,864	0	1016,28	7	9,1	8,8	1	1	1	1	1	1	1	1	1	0	1	-11,346018	274,320593	309,736532	0
15.01.2021	17:37:14	0	0	4,519168	0,8055	343,4724	0,416	83,848	0	1016,2	7,1	9,1	8,9	1	1	1	1	1	1	1	1	1	0	1	-8,527132	274,23324	312,14664	0
15.01.2021	17:37:15	0	0	2,711501	0,831	348,0336	0,423	83,86	0	1016,24	7	9,1	8,9	1	1	1	1	1	1	1	1	1	0	1	-6,483439	274,128339	313,699948	0
15.01.2021	17:37:16	0	0	3,163437	0,8985	330,7608	0,426	83,85	0	1016,26	7,1	9,1	8,8	1	1	1	1	1	1	1	1	1	0	1	-8,245243	274,20021	312,27406	0
15.01.2021	17:37:17	0	0	4,632175	0,97275	323,9748	0,423	83,866	0	1016,26	7,1	9,1	8,8	1	1	1	1	1	1	1	1	1	0	1	-9,302326	274,147777	310,971889	0
15.01.2021	17:37:18	0	0	4,858135	1,03875	346,6008	0,419	83,868	0	1016,14	7	9,1	8,8	1	1	1	1	1	1	1	1	1	0	1	-7,82241	274,167235	312,542743	0
15.01.2021	17:37:19	0	0	3,615356	1,059	343,5192	0,424	83,853	0	1016,22	7	9	8,8	1	1	1	1	1	1	1	1	1	0	1	-12,614517	274,313047	308,432706	0
15.01.2021	17:37:20	0	0	2,82448	1,0815	321,8292	0,423	83,866	0	1016,12	6,9	9,1	8,9	1	1	1	1	1	1	1	1	1	0	1	-6,272023	274,210713	314,296395	0
15.01.2021	17:37:21	0	0	3,276417	1,07025	324,522	0,426	83,854	0	1016,12	7,1	9,1	8,8	1	1	1	1	1	1	1	1	1	0	1	-11,346018	274,308521	309,680016	0
15.01.2021	17:37:22	0	0	2,82448	1,014	339,7932	0,424	83,868	0	1016,24	7	9,1	8,9	1	1	1	1	1	1	1	1	1	0	1	-7,892882	274,180718	312,535293	0
15.01.2021	17:37:23	0	0	3,954272	1,0065	339,8364	0,419	83,856	0	1016,22	7,1	9,1	8,9	1	1	1	1	1	1	1	1	1	0	1	-6,060606	274,137308	314,164688	0
15.01.2021	17:37:24	0	0	4,858106	1,00875	331,0812	0,426	83,852	0	1016,3	7,1	9,1	8,9	1	1	1	1	1	1	1	1	1	0	1	-11,557435	274,251281	309,200728	0
15.01.2021	17:37:25	0	0	4,971115	1,0035	333,306	0,414	83,859	0	1016,16	7	9,1	8,8	1	1	1	1	1	1	1	1	1	0	1	-9,866103	274,305504	311,145809	0
15.01.2021	17:37:26	0	0	4,858106	0,93525	354,2184	0,425	83,863	0	1016,04	7	9,1	8,9	1	1	1	1	1	1	1	1	1	0	1	-11,768851	274,19421	308,7224	0
15.01.2021	17:37:27	0	0	3,502376	0,849	4,4748	0,421	83,848	0	1016,26	7	9,1	8,8	1	1	1	1	1	1	1	1	1	0	1	-8,597604	274,126844	311,578801	0
15.01.2021	17:37:28	0	0	4,180256	0,82125	353,9664	0,422	83,861	0	1016,24	7	9,1	8,8	1	1	1	1	1	1	1	1	1	0	1	-9,795631	274,174725	310,604528	0
15.01.2021	17:37:29	0	0	3,050439	0,81225	321,9012	0,418	83,863	0	1016,1	7,1	9,1	8,9	1	1	1	1	1	1	1	1	1	0	1	-11,06413	274,30098	309,926603	0
15.01.2021	17:37:30	0	0	4,180256	0,85275	294,4404	0,426	83,858	0	1016,22	6,9	9,1	8,8	1	1	1	1	1	1	1	1	1	0	1	-12,544045	274,237749	308,150816	0
15.01.2021	17:37:31	0	0	4,519168	0,9105	299,3652	0,426	83,854	0	1016,12	7,1	9	8,9	1	1	1	1	1	1	1	1	1	0	1	-11,698379	274,14329	308,554865	0
15.01.2021	17:37:32	0	0	3,502355	0,927	324,414	0,424	83,872	0	1016,28	7,1	9	8,9	1	1	1	1	1	1	1	1	1	0	1	-9,231853	274,237749	311,463007	0
15.01.2021	17:37:33	0	0	4,067276	0,9375	328,2228	0,423	83,849	0	1016,16	7,1	9,1	8,8	1	1	1	1	1	1	1	1	1	0	1	-8,104299	274,30098	312,886434	0
15.01.2021	17:37:34	0	0	4,293236	0,9405	325,1232	0,416	83,873	0	1016,12	7,1	9,1	8,8	1	1	1	1	1	1	1	1	1	0	1	-12,332629	274,269338	308,510021	0
15.01.2021	17:37:35	0	0	4,29321	0,963	331,4052	0,425	83,87	0	1016,28	7,1	9,1	8,9	1	1	1	1	1	1	1	1	1	0	1	-12,262156	274,263317	308,552321	0
15.01.2021	17:37:36	0	0	2,598537	0,9675	330,2928	0,426	83,877	0	1016,24	7,1	9,1	8,8	1	1	1	1	1	1	1	1	1	0	1	-5,919662	274,153762	314,382522	0
15.01.2021	17:37:37	0	0	4,858135	0,96825	325,1592	0,421	83,871	0	1016,12	7	9,1	8,8	1	1	1	1	1	1	1	1	1	0	1	-10,711769	274,240755	309,997154	0
15.01.2021	17:37:38	0	0	4,406216	0,91425	327,4488	0,428	83,905	0	1016,54	6,9	9,1	8,8	1	1	1	1	1	1	1	1	1	0	1	-8,315715	274,297964	312,660902	0
15.01.2021	17:37:39	0	0	3,502355	0,894	319,3092	0,419	83,853	0	1016,14	7,1	9,1	8,9	1	1	1	1	1	1	1	1	1	0	1	-9,795631	274,245266	310,934391	0
15.01.2021	17:37:40	0	0	3,954272	0,909	311,0256	0,428	83,878	0	1016,34	7	9,1	8,9	1	1	1	1	1	1	1	1	1	0	1	-14,65821	274,14329	305,595035	0
15.01.2021	17:37:41	0	0	3,615335	0,924	311,3244	0,418	83,854	0	1016,14	7,1	9,1	8,9	1	1	1	1	1	1	1	1	1	0	1	-10,42988	274,177721	309,984286	0
15.01.2021	17:37:42	0	0	4,406216	0,93675	308,0592	0,423	83,879	0	1016,32	7,1	9,1	8,8	1	1	1	1	1	1	1	1	1	0	1	-5,355884	274,14329	314,89736	0
15.01.2021	17:37:43	0	0	4,406216	0,903	316,224	0,426	83,877	0	1016,12	7,1	9,1	8,8	1	1	1	1	1	1	1	1	1	0	1	-10,711769	274,269338	310,130881	0
15.01.2021	17:37:44	0	0	2,711501	0,86325	325,1088	0,425	83,881	0	1016,18	7,1	9	8,9	1	1	1	1	1	1	1	1	1	0	1	-10,077519	274,257298	310,708795	0
15.01.2021	17:37:45	0	0	4,519168	0,8325	317,4048	0,424	83,867	0	1016,12	7,1	9,1	8,9	1	1	1	1	1	1	1	1	1	0	1	-11,768851	274,31003	309,264245	0
15.01.2021	17:37:46	0	0	2,82448	0,80625	303,57	0,426	83,875	0	1016,12	7,1	9,1	8,9	1	1	1	1	1	1	1	1	1	0	1	-9,020437	274,242259	311,695519	0
15.01.2021	17:37:47	0	0	2,598522	0,765	303,5664	0,426	83,853	0	1016,1	7	9,1	8,9	1	1	1	1	1	1	1	1	1	0	1	-15,010571	274,134318	305,200751	0
15.01.2021	17:37:48	0	0	2,485543	0,801	316,2276	0,422	83,87	0	1016,24	7	9,1	8,9	1	1	1	1	1	1	1	1	1	0	1	-11,41649	274,153762	308,885693	0
15.01.2021	17:37:49	0	0	4,067252	0,84525	328,2408	0,422	83,865	0	1016,14	7,1	9,1	8,9	1	1	1	1	1	1	1	1	1	0	1	-7,470049	274,147777	312,804165	0
15.01.2021	17:37:50	0	0	4,632148	0,85275	321,8256	0,419	83,873	0	1016,28	7,1	9	8,9	1	1	1	1	1	1	1	1	1	0	1	-9,584214	274,19721	310,921062	0
15.01.2021	17:37:51	0	0	3,954296	0,87225	308,4804	0,425	83,861	0	1016,3	7,1	9,1	8,8	1	1	1	1	1	1	1	1	1	0	1	-7,329105	274,284399	313,584024	0
15.01.2021	17:37:52	0	0	3,728314	0,8535	315,5004	0,43	83,87	0	1016,24	7,1	9,1	8,9	1	1	1	1	1	1	1	1	1	0	1	-11,41649	274,12535	308,752933	0
15.01.2021	17:37:53	0	0	4,745127	0,86775	329,6376	0,426	83,873	0	1016,22	7,1	9,1	8,9	1	1	1	1	1	1	1	1	1	0	1	-9,090909	274,246769	311,646147	0
15.01.2021	17:37:54	0	0	2,259584	0,87975	335,304	0,423	83,871	0	1016,2	7,1	9,1	8,9	1	1	1	1	1	1	1	1	1	0	1	-12,403101	274,297964	308,573516	0
15.01.2021	17:37:55	0	0	3,728314	0,87975	336,7728	0,426	83,87	0	1016,08	7	9,1	8,9	1	1	1	1	1	1	1	1	1	0	1	-9,020437	274,167235	311,344716	0
15.01.2021	17:37:56	0	0	4,519168	0,843	334,602	0,423	83,86	0	1016,18	7	9,1	8,9	1	1	1	1	1	1	1	1	1	0	1	-9,866103	274,291934	311,082291	0
15.01.2021	17:37:57	0	0	3,841293	0,77625	328,9716	0,424	83,865	0	1016,12	7,1	9,1	8,9	1	1	1	1	1	1	1	1	1	0	1	-10,007047	274,128339	310,17634	0
15.01.2021	17:37:58	0	0	3,502355	0,72825	324,7992	0,432	83,88	0	1016,26	7	9	8,9	1	1	1	1	1	1	1	1	1	0	1	-10,42988	274,159749	309,900283	0
15.01.2021	17:37:59	0	0	4,519168	0,669	321,8364	0,42	83,859	0	1016,28	7,1	9,1	8,9	1	1	1	1	1	1	1	1	1	0	1	-7,751938	274,20021	312,767365	0
15.01.2021	17:38:00	0	0	2,372563	0,68625	325,4832	0,429	83,871	0	1016,2	7	9	8,9	1	1	1	1	1	1	1	1	1	0	1	-11,980268	274,132823	308,22407	0
15.01.2021	17:38:01	0	0	3,389376	0,675	335,4516	0,427	83,872	0	1016,14	7	9,1	8,9	1	1	1	1	1	1	1	1	1	0	1	-9,44327	274,212214	311,132166	0
15.01.2021	17:38:02	0	0	2,937459	0,72225	341,3304	0,426	83,853	0	1016,22	7,1	9,1	8,9	1	1	1	1	1	1	1	1	1	0	1	-8,668076	274,128339	311,515311	0
15.01.2021	17:38:03	0	0	4,632148	0,732	334,6272	0,423	83,861	0	1016,28	7,1	9,1	8,9	1	1	1	1	1	1	1	1	1	0	1	-5,355884	274,275361	315,514949	0
15.01.2021	17:38:04	0	0	4,971115	0,73875	323,3196	0,427	83,864	0	1016,24	7	9,1	8,8	1	1	1	1	1	1	1	1	1	0	1	-10,782241	274,261812	310,025195	0
15.01.2021	17:38:05	0	0	2,937459	0,753	313,6644	0,426	83,849	0	1016,16	7,1	9,1	8,9	1	1	1	1	1	1	1	1	1	0	1	-11,205074	274,316065	309,856278	0
15.01.2021	17:38:06	0	0	3,728314	0,7425	308,8872	0,423	83,843	0	1016,26	7	9,1	8,9	1	1	1	1	1	1	1	1	1	0	1	-7,047216	274,270844	313,802479	0
15.01.2021	17:38:07	0	0	5,084064	0,738	315,0648	0,427	83,85	0	1016,22	7,1	9,1	8,9	1	1	1	1	1	1	1	1	1	0	1	-12,755462	274,285906	308,164719	0
15.01.2021	17:38:08	0	0	4,406189	0,77325	324,3528	0,424	83,861	0	1016,08	7,1	9,1	8,9	1	1	1	1	1	1	1	1	1	0	1	-7,047216	274,297964	313,929401	0
15.01.2021	17:38:09	0	0	3,050439	0,7545	337,122	0,426	83,862	0	1016,26	7,1	9,1	8,9	1	1	1	1	1	1	1	1	1	0	1	-8,245243	274,156756	312,070929	0
15.01.2021	17:38:10	0	0	4,745127	0,735	341,2872	0,43	83,839	0	1016,28	7,1	9,1	8,9	1	1	1	1	1	1	1	1	1	0	1	-8,879493	274,123856	311,28295	0
15.01.2021	17:38:11	0	0	4,406189	0,762	317,7072	0,429	83,84	0	1016,36	7	9,1	8,9	1	1	1	1	1	1	1	1	1	0	1	-8,879493	274,132823	311,324845	0
15.01.2021	17:38:12	0	0	3,728314	0,76875	317,7648	0,427	83,833	0	1016,04	7	9,1	8,9	1	1	1	1	1	1	1	1	1	0	1	-10,288936	274,126844	309,887469	0
15.01.2021	17:38:13	0	0	4,180231	0,7785	339,0192	0,425	83,846	0	1016,22	7,1	9,1	8,9	1	1	1	1	1	1	1	1	1	0	1	-4,933051	274,242259	315,782904	0
15.01.2021	17:38:14	0	0	4,180231	0,73125	349,0596	0,424	83,832	0	1016,2	7	9,1	8,9	1	1	1	1	1	1	1	1	1	0	1	-10,288936	274,30098	310,701797	0
15.01.2021	17:38:15	0	0	3,954272	0,669	343,4184	0,421	83,851	0	1016,26	7	9,1	8,9	1	1	1	1	1	1	1	1	1	0	1	-12,262156	274,246769	308,4749	0
15.01.2021	17:38:16	0	0	2,711501	0,60675	321,1308	0,426	83,849	0	1016,22	7,1	9	8,9	1	1	1	1	1	1	1	1	1	0	1	-7,047216	274,122361	313,108246	0
15.01.2021	17:38:17	0	0	4,406189	0,57225	316,368	0,424	83,851	0	1016,2	7,1	9	8,9	1	1	1	1	1	1	1	1	1	0	1	-7,258633	274,210713	313,309784	0
15.01.2021	17:38:18	0	0	3,954272	0,56925	322,1604	0,424	83,843	0	1016,04	7	9,1	8,9	1	1	1	1	1	1	1	1	1	0	1	-9,654686	274,30098	311,336046	0
15.01.2021	17:38:19	0	0	3,050439	0,5445	336,0384	0,427	83,852	0	1016,08	7	9,1	8,9	1	1	1	1	1	1	1	1	1	0	1	-6,976744	274,218219	313,626775	0
15.01.2021	17:38:20	0	0	2,82448	0,54075	343,4508	0,423	83,841	0	1016,26	7	9,1	8,9	1	1	1	1	1	1	1	1	1	0	1	-11,627907	274,305504	309,384005	0
15.01.2021	17:38:21	0	0	4,632148	0,53325	340,182	0,424	83,849	0	1016,18	7	9,1	8,9	1	1	1	1	1	1	1	1	1	0	1	-11,698379	274,19421	308,792873	0
15.01.2021	17:38:22	0	0	4,745127	0,56775	333,4824	0,428	83,842	0	1016,14	7	9	8,9	1	1	1	1	1	1	1	1	1	0	1	-5,003524	274,126844	315,172881	0
15.01.2021	17:38:23	0	0	4,858106	0,6015	325,1304	0,431	83,85	0	1016,28	7	9,1	8,9	1	1	1	1	1	1	1	1	1	0	1	-11,205074	274,251281	309,553089	0
15.01.2021	17:38:24	0	0	4,858106	0,591	325,9152	0,423	83,83	0	1016,2	7	9	8,9	1	1	1	1	1	1	1	1	1	0	1	-14,940099	274,260308	305,860296	0
15.01.2021	17:38:25	0	0	4,632175	0,63	333,1368	0,422	83,831	0	1016,2	7,1	9,1	8,8	1	1	1	1	1	1	1	1	1	0	1	-10,641297	274,249777	310,10983	0
15.01.2021	17:38:26	0	0	2,937459	0,6405	333,8208	0,426	83,844	0	1016,12	7	9,1	8,9	1	1	1	1	1	1	1	1	1	0	1	-9,654686	274,108919	310,437984	0
15.01.2021	17:38:27	0	0	5,084095	0,66525	333,5004	0,422	83,835	0	1016,06	7,1	9,1	8,8	1	1	1	1	1	1	1	1	1	0	1	-10,993658	274,263317	309,82082	0
15.01.2021	17:38:28	0	0	2,598522	0,66975	333,9684	0,428	83,825	0	1016,18	7	9	8,9	1	1	1	1	1	1	1	1	1	0	1	-9,302326	274,216718	311,294172	0
15.01.2021	17:38:29	0	0	3,954272	0,69225	328,6116	0,426	83,854	0	1016,28	7	9,1	8,9	1	1	1	1	1	1	1	1	1	0	1	-8,386187	274,116386	311,741361	0
15.01.2021	17:38:30	0	0	4,29321	0,71625	331,1532	0,421	83,835	0	1016,18	7,1	9,1	8,9	1	1	1	1	1	1	1	1	1	0	1	-10,500352	274,183716	309,941836	0
15.01.2021	17:38:31	0	0	2,711501	0,71775	336,7548	0,424	83,843	0	1016,22	7	9	8,9	1	1	1	1	1	1	1	1	1	0	1	-11,768851	274,120867	308,379632	0
15.01.2021	17:38:32	0	0	2,937459	0,69675	340,578	0,422	83,845	0	1016,3	7,1	9	8,9	1	1	1	1	1	1	1	1	1	0	1	-8,174771	274,171729	312,211384	0
15.01.2021	17:38:33	0	0	4,519168	0,7185	333,0936	0,424	83,838	0	1016,2	7,1	9	8,9	1	1	1	1	1	1	1	1	1	0	1	-9,513742	274,146281	310,753482	0
15.01.2021	17:38:34	0	0	4,406189	0,7785	327,8664	0,422	83,827	0	1016,12	7,1	9	8,9	1	1	1	1	1	1	1	1	1	0	1	-11,627907	274,176223	308,779255	0
15.01.2021	17:38:35	0	0	5,423002	0,7695	327,726	0,427	83,854	0	1016,36	7	9,1	8,9	1	1	1	1	1	1	1	1	1	0	1	-7,963354	274,246769	312,773702	0
15.01.2021	17:38:36	0	0	3,276397	0,7545	325,494	0,427	83,835	0	1016,36	7	9	8,9	1	1	1	1	1	1	1	1	1	0	1	-6,906272	274,126844	313,270133	0
15.01.2021	17:38:37	0	0	4,519168	0,7335	328,5324	0,428	83,835	0	1016,22	7	9	8,9	1	1	1	1	1	1	1	1	1	0	1	-11,346018	274,228733	309,306671	0
15.01.2021	17:38:38	0	0	3,615335	0,6795	333,1332	0,423	83,823	0	1016,3	7	9	8,9	1	1	1	1	1	1	1	1	1	0	1	-8,879493	274,294949	312,083011	0
15.01.2021	17:38:39	0	0	3,163418	0,6495	327,0564	0,429	83,839	0	1016,3	7	9	8,9	1	1	1	1	1	1	1	1	1	0	1	-9,161381	274,144785	311,098853	0
15.01.2021	17:38:40	0	0	3,050439	0,62775	315,8676	0,42	83,83	0	1016,14	7	9,1	8,9	1	1	1	1	1	1	1	1	1	0	1	-8,45666	274,264822	312,36486	0
15.01.2021	17:38:41	0	0	5,084064	0,639	316,9296	0,424	83,843	0	1016,24	7	9	8,9	1	1	1	1	1	1	1	1	1	0	1	-7,610994	274,146281	312,65623	0
15.01.2021	17:38:42	0	0	4,632148	0,63	317,7612	0,425	83,839	0	1016,14	7	9,1	8,9	1	1	1	1	1	1	1	1	1	0	1	-9,302326	274,267833	311,53328	0
15.01.2021	17:38:43	0	0	3,502355	0,60525	316,6272	0,425	83,829	0	1016,16	7	9,1	8,9	1	1	1	1	1	1	1	1	1	0	1	-12,191684	274,162743	308,152473	0
15.01.2021	17:38:44	0	0	3,050439	0,56025	319,1364	0,416	83,827	0	1016,2	7	9	8,9	1	1	1	1	1	1	1	1	1	0	1	-7,329105	274,243762	313,393884	0
15.01.2021	17:38:45	0	0	4,067252	0,55425	328,8852	0,429	83,833	0	1016,16	7,1	9	8,9	1	1	1	1	1	1	1	1	1	0	1	-10,852713	274,269338	309,989937	0
15.01.2021	17:38:46	0	0	2,598522	0,552	332,0928	0,423	83,828	0	1016,22	7	9,1	8,9	1	1	1	1	1	1	1	1	1	0	1	-5,637773	274,180718	314,790403	0
15.01.2021	17:38:47	0	0	3,728314	0,51375	339,7968	0,42	83,825	0	1016,18	7	9,1	8,9	1	1	1	1	1	1	1	1	1	0	1	-9,866103	274,28892	311,068183	0
15.01.2021	17:38:48	0	0	2,937459	0,4755	340,1676	0,421	83,833	0	1016,38	7	9	8,9	1	1	1	1	1	1	1	1	1	0	1	-6,906272	274,165738	313,451882	0
15.01.2021	17:38:49	0	0	3,728314	0,426	327,1212	0,43	83,827	0	1016,32	7	9,1	8,9	1	1	1	1	1	1	1	1	1	0	1	-9,44327	274,28892	311,491016	0
15.01.2021	17:38:50	0	0	4,406189	0,40125	312,4944	0,418	83,823	0	1016,3	7,1	9	8,9	1	1	1	1	1	1	1	1	1	0	1	-5,073996	274,134318	315,137326	0
15.01.2021	17:38:51	0	0	3,954272	0,4005	309,24	0,427	83,836	0	1016,2	7	9,1	8,9	1	1	1	1	1	1	1	1	1	0	1	-7,047216	274,122361	313,108246	0
15.01.2021	17:38:52	0	0	3,954272	0,42825	322,9416	0,42	83,818	0	1016,3	7	9,1	8,9	1	1	1	1	1	1	1	1	1	0	1	-5,990134	274,230235	314,669582	0
15.01.2021	17:38:53	0	0	3,276397	0,41925	339,0372	0,421	83,836	0	1016,26	7	9,1	8,9	1	1	1	1	1	1	1	1	1	0	1	-8,668076	274,27988	312,223902	0
15.01.2021	17:38:54	0	0	4,406189	0,396	344,3076	0,427	83,826	0	1016,24	7	9,1	8,9	1	1	1	1	1	1	1	1	1	0	1	-11,768851	274,30098	309,221882	0
15.01.2021	17:38:55	0	0	4,29321	0,423	343,5264	0,421	83,814	0	1016,12	7	9,1	8,9	1	1	1	1	1	1	1	1	1	0	1	-9,725159	274,186713	310,731044	0
15.01.2021	17:38:56	0	0	2,711501	0,4125	346,0572	0,422	83,825	0	1016,18	7,1	9,1	8,9	1	1	1	1	1	1	1	1	1	0	1	-13,6716	274,303996	307,333252	0
15.01.2021	17:38:57	0	0	3,954272	0,41925	350,3304	0,425	83,822	0	1016,12	7	9,1	8,9	1	1	1	1	1	1	1	1	1	0	1	-9,513742	274,234743	311,167059	0
15.01.2021	17:38:58	0	0	3,615335	0,465	351,6732	0,428	83,836	0	1016,12	7	9	8,9	1	1	1	1	1	1	1	1	1	0	1	-8,315715	274,299472	312,667959	0
15.01.2021	17:38:59	0	0	3,276397	0,46125	347,9688	0,427	83,825	0	1016,26	7	9,1	8,9	1	1	1	1	1	1	1	1	1	0	1	-6,8358	274,245266	313,894222	0
15.01.2021	17:39:00	0	0	3,050439	0,50925	340,2468	0,424	83,83	0	1016,28	7	9	8,9	1	1	1	1	1	1	1	1	1	0	1	-7,188161	274,222724	313,436427	0
15.01.2021	17:39:01	0	0	3,050439	0,50925	340,2468	0,424	83,83	0	1016,28	7	9	8,9	1	1	1	1	1	1	1	1	1	0	1	-7,188161	274,222724	313,436427	0
15.01.2021	17:39:02	0	0	3,389376	0,5475	334,8612	0,421	83,825	0	1016,2	7	9,1	8,9	1	1	1	1	1	1	1	1	1	0	1	-6,412967	274,155259	313,896211	0
15.01.2021	17:39:03	0	0	4,858106	0,56025	333,2376	0,427	83,828	0	1016,32	7	9	8,9	1	1	1	1	1	1	1	1	1	0	1	-10,641297	274,186713	309,814906	0
15.01.2021	17:39:04	0	0	4,067252	0,58875	337,0752	0,421	83,822	0	1015,98	7	9	8,9	1	1	1	1	1	1	1	1	1	0	1	-10,782241	274,281386	310,116787	0
15.01.2021	17:39:05	0	0	4,406189	0,579	340,8948	0,423	83,834	0	1016,18	7	9	8,9	1	1	1	1	1	1	1	1	1	0	1	-6,906272	274,248273	313,837819	0
15.01.2021	17:39:06	0	0	3,163418	0,57225	339,4116	0,428	83,823	0	1016,22	7	9,1	8,9	1	1	1	1	1	1	1	1	1	0	1	-10,42988	274,316065	310,631472	0
15.01.2021	17:39:07	0	0	4,632148	0,57975	335,7432	0,424	83,826	0	1016,18	7	9	8,9	1	1	1	1	1	1	1	1	1	0	1	-10,711769	274,243762	310,01122	0
15.01.2021	17:39:08	0	0	3,050439	0,54375	333,864	0,419	83,807	0	1016,2	7	9,1	8,9	1	1	1	1	1	1	1	1	1	0	1	-8,174771	274,177721	312,239395	0
15.01.2021	17:39:09	0	0	4,519168	0,543	334,8648	0,425	83,833	0	1016,12	7	9,1	8,9	1	1	1	1	1	1	1	1	1	0	1	-10,007047	274,293441	310,948401	0
15.01.2021	17:39:10	0	0	3,502355	0,53775	336,7116	0,421	83,823	0	1016,06	7,1	9	8,9	1	1	1	1	1	1	1	1	1	0	1	-7,329105	274,189712	313,141115	0
15.01.2021	17:39:11	0	0	2,937459	0,52275	339,8184	0,429	83,825	0	1016,24	7	9,1	8,9	1	1	1	1	1	1	1	1	1	0	1	-10,993658	274,287413	309,933575	0
15.01.2021	17:39:12	0	0	5,310023	0,5235	343,1592	0,422	83,882	0	1016,24	7	9,1	8,9	1	1	1	1	1	1	1	1	1	0	1	-11,839323	274,261812	308,968112	0
15.01.2021	17:39:13	0	0	4,858106	0,51	339,7464	0,421	83,82	0	1016,26	7	9	8,9	1	1	1	1	1	1	1	1	1	0	1	-13,248767	274,299472	307,734908	0
15.01.2021	17:39:14	0	0	2,711501	0,52125	335,376	0,424	83,826	0	1016,3	7	9	8,9	1	1	1	1	1	1	1	1	1	0	1	-11,768851	274,173227	308,624305	0
15.01.2021	17:39:15	0	0	3,728314	0,5715	335,6496	0,424	83,825	0	1016,18	7	9,1	8,9	1	1	1	1	1	1	1	1	1	0	1	-5,073996	274,302488	315,923796	0
15.01.2021	17:39:16	0	0	3,163418	0,585	340,9164	0,425	83,824	0	1016,22	7	9	8,9	1	1	1	1	1	1	1	1	1	0	1	-7,399577	274,20321	313,133755	0
15.01.2021	17:39:17	0	0	2,711501	0,5895	343,9116	0,424	83,82	0	1016,04	7	9	8,9	1	1	1	1	1	1	1	1	1	0	1	-5,84919	274,290427	315,09215	0
15.01.2021	17:39:18	0	0	4,858106	0,61575	339,8076	0,421	83,818	0	1016,06	7	9	8,9	1	1	1	1	1	1	1	1	1	0	1	-4,933051	274,228733	315,719638	0
15.01.2021	17:39:19	0	0	4,745127	0,68925	335,7108	0,428	83,817	0	1015,98	7	9,1	8,9	1	1	1	1	1	1	1	1	1	0	1	-13,530655	274,114893	306,589916	0
15.01.2021	17:39:20	0	0	2,259584	0,73575	334,1304	0,424	83,819	0	1016,2	7	9	8,9	1	1	1	1	1	1	1	1	1	0	1	-10,147992	274,188213	310,31522	0
15.01.2021	17:39:21	0	0	3,389376	0,7245	337,9608	0,425	83,817	0	1016,24	7	9,1	8,9	1	1	1	1	1	1	1	1	1	0	1	-10,218464	274,123856	309,943979	0
15.01.2021	17:39:22	0	0	3,502355	0,75	338,7636	0,421	83,818	0	1016,26	7	9	8,9	1	1	1	1	1	1	1	1	1	0	1	-10,923185	274,165738	309,434969	0
15.01.2021	17:39:23	0	0	2,711501	0,732	333,8316	0,426	83,818	0	1016,38	7,1	9	8,9	1	1	1	1	1	1	1	1	1	0	1	-14,164905	274,243762	306,558084	0
15.01.2021	17:39:24	0	0	3,050439	0,76575	334,5336	0,424	83,843	0	1016,56	7	9,1	8,9	1	1	1	1	1	1	1	1	1	0	1	-10,993658	274,290427	309,947682	0
15.01.2021	17:39:25	0	0	4,632148	0,73575	338,4108	0,421	83,815	0	1016,16	7	9	8,9	1	1	1	1	1	1	1	1	1	0	1	-14,587738	274,188213	305,875473	0
15.01.2021	17:39:26	0	0	2,82448	0,75825	337,5468	0,427	83,831	0	1016,28	7	9	8,9	1	1	1	1	1	1	1	1	1	0	1	-9,725159	274,119373	310,416346	0
15.01.2021	17:39:27	0	0	4,406189	0,74325	332,766	0,419	83,804	0	1016,26	7	9	8,9	1	1	1	1	1	1	1	1	1	0	1	-3,875969	274,224226	316,755643	0
15.01.2021	17:39:28	0	0	3,050439	0,6855	320,4072	0,426	83,813	0	1016,36	7	9,1	8,9	1	1	1	1	1	1	1	1	1	0	1	-7,82241	274,122361	312,333052	0
15.01.2021	17:39:29	0	0	3,389376	0,681	309,9816	0,42	83,808	0	1016,12	7	9	8,9	1	1	1	1	1	1	1	1	1	0	1	-10,782241	274,248273	309,96185	0
15.01.2021	17:39:30	0	0	2,485543	0,7245	312,3972	0,422	83,822	0	1016,28	7	9,1	8,9	1	1	1	1	1	1	1	1	1	0	1	-11,346018	274,128339	308,837369	0
15.01.2021	17:39:31	0	0	4,632148	0,744	323,9928	0,425	83,816	0	1016,22	7	9	8,9	1	1	1	1	1	1	1	1	1	0	1	-8,45666	274,158252	311,866508	0
15.01.2021	17:39:32	0	0	3,728314	0,738	328,554	0,424	83,815	0	1016,3	7	9	8,9	1	1	1	1	1	1	1	1	1	0	1	-11,980268	274,177721	308,433898	0
15.01.2021	17:39:33	0	0	3,841293	0,74775	334,494	0,423	83,808	0	1016,32	7	9	8,9	1	1	1	1	1	1	1	1	1	0	1	-8,668076	274,108919	311,424594	0
15.01.2021	17:39:34	0	0	2,711501	0,76275	338,418	0,422	83,816	0	1016,24	7	9	8,9	1	1	1	1	1	1	1	1	1	0	1	-10,570825	274,192711	309,913416	0
15.01.2021	17:39:35	0	0	3,615335	0,73575	330,3324	0,42	83,797	0	1016,44	7	9	8,9	1	1	1	1	1	1	1	1	1	0	1	-9,936575	274,12535	310,232848	0
15.01.2021	17:39:36	0	0	4,745127	0,74775	317,7252	0,421	83,804	0	1016,14	7	9	8,9	1	1	1	1	1	1	1	1	1	0	1	-12,332629	274,230235	308,327087	0
15.01.2021	17:39:37	0	0	3,163418	0,79575	324,3852	0,426	83,816	0	1016,26	7	9	8,9	1	1	1	1	1	1	1	1	1	0	1	-10,359408	274,107427	309,726289	0
15.01.2021	17:39:38	0	0	4,180231	0,78375	333,7668	0,419	83,816	0	1016,24	7	9	8,9	1	1	1	1	1	1	1	1	1	0	1	-9,936575	274,19421	310,554677	0
15.01.2021	17:39:39	0	0	3,841293	0,80175	334,2384	0,418	83,806	0	1016,14	7	9	8,9	1	1	1	1	1	1	1	1	1	0	1	-6,20155	274,28892	314,732735	0
15.01.2021	17:39:40	0	0	2,598522	0,7785	328,1328	0,42	83,786	0	1016,16	7	9	8,9	1	1	1	1	1	1	1	1	1	0	1	-12,332629	274,156756	307,983544	0
15.01.2021	17:39:41	0	0	2,485543	0,81375	328,6044	0,415	83,811	0	1016,18	7	9	8,9	1	1	1	1	1	1	1	1	1	0	1	-12,332629	274,291934	308,615765	0
15.01.2021	17:39:42	0	0	4,29321	0,78825	332,3952	0,42	83,81	0	1016,3	7	9	8,9	1	1	1	1	1	1	1	1	1	0	1	-4,862579	274,177721	315,551587	0
15.01.2021	17:39:43	0	0	3,954272	0,78225	330,444	0,423	83,811	0	1016,34	7	9	8,9	1	1	1	1	1	1	1	1	1	0	1	-7,963354	274,228733	312,689335	0
15.01.2021	17:39:44	0	0	2,485543	0,768	328,8888	0,445	83,834	0	1016,36	7	9,1	8,9	1	1	1	1	1	1	1	1	1	0	1	-8,45666	274,285906	312,463521	0
15.01.2021	17:39:45	0	0	5,084064	0,7425	332,0064	0,42	83,821	0	1016,18	7	9	8,9	1	1	1	1	1	1	1	1	1	0	1	-8,386187	274,180718	312,041988	0
15.01.2021	17:39:46	0	0	4,519168	0,726	328,2552	0,423	83,814	0	1016,22	7	9	8,9	1	1	1	1	1	1	1	1	1	0	1	-8,879493	274,113399	311,234103	0
15.01.2021	17:39:47	0	0	3,954272	0,7065	319,6116	0,425	83,83	0	1016,3	7	9	8,9	1	1	1	1	1	1	1	1	1	0	1	-7,117689	274,20321	313,415644	0
15.01.2021	17:39:48	0	0	4,745127	0,72225	316,674	0,421	83,82	0	1016,26	7	9	8,9	1	1	1	1	1	1	1	1	1	0	1	-9,302326	274,264822	311,519194	0
15.01.2021	17:39:49	0	0	4,29321	0,8205	316,134	0,418	83,811	0	1016,26	7	9	8,9	1	1	1	1	1	1	1	1	1	0	1	-11,698379	274,186713	308,757824	0
15.01.2021	17:39:50	0	0	5,084064	0,8325	318,114	0,422	83,811	0	1016,3	7	9	8,9	1	1	1	1	1	1	1	1	1	0	1	-9,161381	274,284399	311,751748	0
15.01.2021	17:39:51	0	0	4,29321	0,84675	328,2192	0,422	83,814	0	1016,22	7	9	8,9	1	1	1	1	1	1	1	1	1	0	1	-8,527132	274,224226	312,10448	0
15.01.2021	17:39:52	0	0	3,276397	0,80775	333,522	0,419	83,818	0	1016,2	7	9	8,9	1	1	1	1	1	1	1	1	1	0	1	-7,610994	274,11788	312,523532	0
15.01.2021	17:39:53	0	0	4,858106	0,846	322,9308	0,424	83,814	0	1016,24	7	9	8,9	1	1	1	1	1	1	1	1	1	0	1	-12,966878	274,174725	307,433281	0
15.01.2021	17:39:54	0	0	2,485543	0,87075	317,646	0,419	83,822	0	1016,1	7	9	8,9	1	1	1	1	1	1	1	1	1	0	1	-10,923185	274,273855	309,940601	0
15.01.2021	17:39:55	0	0	5,423002	0,81225	339,0948	0,428	83,819	0	1016,2	7	9	8,9	1	1	1	1	1	1	1	1	1	0	1	-6,8358	274,180718	313,592376	0
15.01.2021	17:39:56	0	0	3,389376	0,81525	354,2328	0,418	83,828	0	1016,28	7	9,1	8,9	1	1	1	1	1	1	1	1	1	0	1	-5,567301	274,11788	314,567225	0
15.01.2021	17:39:57	0	0	2,937459	0,75675	352,4652	0,421	83,837	0	1016,36	7	9	8,9	1	1	1	1	1	1	1	1	1	0	1	-4,510218	274,20021	316,009084	0
15.01.2021	17:39:58	0	0	4,29321	0,73275	339,4008	0,418	83,813	0	1016,26	7	9	8,9	1	1	1	1	1	1	1	1	1	0	1	-7,117689	274,278374	313,767241	0
15.01.2021	17:39:59	0	0	4,971085	0,7035	337,9644	0,42	83,811	0	1016,26	7	9	8,9	1	1	1	1	1	1	1	1	1	0	1	-8,386187	274,156756	311,929985	0
15.01.2021	17:40:00	0	0	4,519168	0,73125	343,8108	0,418	83,814	0	1016,32	7	9	8,9	1	1	1	1	1	1	1	1	1	0	1	-6,483439	274,260308	314,316956	0
15.01.2021	17:40:01	0	0	4,519168	0,73125	343,8108	0,418	83,814	0	1016,32	7	9	8,9	1	1	1	1	1	1	1	1	1	0	1	-7,751938	274,23324	312,921834	0
15.01.2021	17:40:02	0	0	4,632148	0,74175	334,188	0,415	83,811	0	1016,16	7	9	8,9	1	1	1	1	1	1	1	1	1	0	1	-7,117689	274,111906	312,988931	0
15.01.2021	17:40:03	0	0	3,615335	0,72675	336,7044	0,422	83,821	0	1016,22	7	9	8,9	1	1	1	1	1	1	1	1	1	0	1	-4,792107	274,20021	315,727196	0
15.01.2021	17:40:04	0	0	2,82448	0,70875	347,2128	0,411	83,817	0	1016,28	7	9,1	8,9	1	1	1	1	1	1	1	1	1	0	1	-7,258633	274,113399	312,854962	0
15.01.2021	17:40:05	0	0	3,728314	0,7155	346,1976	0,436	83,836	0	1016,38	7	9	8,9	1	1	1	1	1	1	1	1	1	0	1	-11,486963	274,246769	309,250094	0
15.01.2021	17:40:06	0	0	2,937459	0,68325	335,6676	0,415	83,833	0	1016,2	7	9	8,9	1	1	1	1	1	1	1	1	1	0	1	-8,949965	274,28892	311,984321	0
15.01.2021	17:40:07	0	0	4,745127	0,65925	332,4204	0,419	83,826	0	1016,36	7	9	8,9	1	1	1	1	1	1	1	1	1	0	1	-10,500352	274,237749	310,194508	0
15.01.2021	17:40:08	0	0	4,745127	0,621	334,2312	0,422	83,807	0	1016,14	7	9	8,9	1	1	1	1	1	1	1	1	1	0	1	-6,976744	274,278374	313,908185	0
15.01.2021	17:40:09	0	0	2,711501	0,621	332,7624	0,418	83,829	0	1016,16	7	9	8,9	1	1	1	1	1	1	1	1	1	0	1	-10,077519	274,171729	310,308635	0
15.01.2021	17:40:10	0	0	4,406189	0,62025	324,0936	0,419	83,835	0	1016,28	7	9	8,9	1	1	1	1	1	1	1	1	1	0	1	-6,412967	274,114893	313,707605	0
15.01.2021	17:40:11	0	0	3,276397	0,663	317,8656	0,424	83,815	0	1016,1	7	9	8,9	1	1	1	1	1	1	1	1	1	0	1	-8,80902	274,236246	311,87881	0
15.01.2021	17:40:12	0	0	4,406189	0,68175	321,7752	0,42	83,833	0	1016,24	7	9	8,9	1	1	1	1	1	1	1	1	1	0	1	-9,090909	274,246769	311,646147	0
15.01.2021	17:40:13	0	0	2,711501	0,6555	330,7644	0,423	83,836	0	1016,22	7	9,1	8,9	1	1	1	1	1	1	1	1	1	0	1	-9,936575	274,14329	310,31667	0
15.01.2021	17:40:14	0	0	2,937459	0,64875	336,0636	0,419	83,835	0	1016,32	7	9	8,9	1	1	1	1	1	1	1	1	1	0	1	-12,825934	274,119373	307,31557	0
15.01.2021	17:40:15	0	0	3,050439	0,62475	332,5212	0,42	83,829	0	1016,3	7	9	8,9	1	1	1	1	1	1	1	1	1	0	1	-7,610994	274,182217	312,824188	0
15.01.2021	17:40:16	0	0	3,728314	0,612	322,6104	0,419	83,831	0	1016,34	7	9	8,9	1	1	1	1	1	1	1	1	1	0	1	-7,963354	274,101456	312,094454	0
15.01.2021	17:40:17	0	0	3,841293	0,612	321,174	0,427	83,835	0	1016,2	7	9	8,9	1	1	1	1	1	1	1	1	1	0	1	-7,963354	274,170231	312,415799	0
15.01.2021	17:40:18	0	0	2,711501	0,6105	328,5756	0,424	83,823	0	1016,2	7	9	8,9	1	1	1	1	1	1	1	1	1	0	1	-9,090909	274,291934	311,857484	0
15.01.2021	17:40:19	0	0	3,954272	0,6075	333,4536	0,42	83,825	0	1016,14	7	9	8,9	1	1	1	1	1	1	1	1	1	0	1	-11,698379	274,204711	308,841969	0
15.01.2021	17:40:20	0	0	2,937459	0,5745	327,1428	0,421	83,845	0	1016,42	7	9	8,9	1	1	1	1	1	1	1	1	1	0	1	-5,355884	274,092503	314,660112	0
15.01.2021	17:40:21	0	0	4,971085	0,5505	321,84	0,416	83,821	0	1016,06	7	9	8,9	1	1	1	1	1	1	1	1	1	0	1	-9,161381	274,242259	311,554574	0
15.01.2021	17:40:22	0	0	4,29321	0,57675	323,3484	0,416	83,819	0	1016,16	7	9	8,9	1	1	1	1	1	1	1	1	1	0	1	-10,147992	274,240755	310,560932	0
15.01.2021	17:40:23	0	0	4,29321	0,615	329,6412	0,416	83,811	0	1016,16	7	9	8,9	1	1	1	1	1	1	1	1	1	0	1	-5,919662	274,182217	314,51552	0
15.01.2021	17:40:24	0	0	2,711501	0,714	322,6068	0,417	83,821	0	1016,32	7	9	8,9	1	1	1	1	1	1	1	1	1	0	1	-5,426357	274,275361	315,444477	0
15.01.2021	17:40:25	0	0	4,067252	0,798	314,4132	0,42	83,834	0	1016,22	7	9	8,9	1	1	1	1	1	1	1	1	1	0	1	-11,205074	274,227231	309,440589	0
15.01.2021	17:40:26	0	0	4,858106	0,85425	320,724	0,412	83,819	0	1016,3	7	9	8,9	1	1	1	1	1	1	1	1	1	0	1	-12,121212	274,246769	308,615844	0
15.01.2021	17:40:27	0	0	3,502355	0,94125	326,7432	0,421	83,82	0	1016,4	7	9	8,9	1	1	1	1	1	1	1	1	1	0	1	-5,003524	274,12535	315,1659	0
15.01.2021	17:40:28	0	0	2,937459	1,0455	321,0876	0,419	83,831	0	1016,32	7	9	8,9	1	1	1	1	1	1	1	1	1	0	1	-11,134602	274,210713	309,433815	0
15.01.2021	17:40:29	0	0	3,050439	1,1325	342,0936	0,424	83,827	0	1016,42	7	9	8,9	1	1	1	1	1	1	1	1	1	0	1	-15,362932	274,290427	305,578408	0
15.01.2021	17:40:30	0	0	1,920647	1,18425	359,9712	0,421	83,829	0	1016,2	7	9	8,9	1	1	1	1	1	1	1	1	1	0	1	-9,654686	274,206211	310,892678	0
15.01.2021	17:40:31	0	0	4,632148	1,16025	1,1592	0,423	83,829	0	1016,38	7	9	8,9	1	1	1	1	1	1	1	1	1	0	1	-9,936575	274,285906	310,983606	0
15.01.2021	17:40:32	0	0	4,519168	1,0875	354,0852	0,414	83,815	0	1016,24	7	9	8,9	1	1	1	1	1	1	1	1	1	0	1	-8,174771	274,234743	312,50603	0
15.01.2021	17:40:33	0	0	3,050439	1,05	353,2356	0,414	83,815	0	1016,28	7	9	8,9	1	1	1	1	1	1	1	1	1	0	1	-10,711769	274,113399	309,401826	0
15.01.2021	17:40:34	0	0	4,971085	1,014	7,5204	0,421	83,815	0	1016,44	7	9	8,9	1	1	1	1	1	1	1	1	1	0	1	-7,963354	274,261812	312,844081	0
15.01.2021	17:40:35	0	0	3,728314	1,029	4,086	0,42	83,825	0	1016,2	7	9	8,9	1	1	1	1	1	1	1	1	1	0	1	-9,161381	274,258803	311,631973	0
15.01.2021	17:40:36	0	0	3,615335	1,01475	348,8292	0,421	83,842	0	1016,24	7	9	8,9	1	1	1	1	1	1	1	1	1	0	1	-10,641297	274,167235	309,723856	0
15.01.2021	17:40:37	0	0	3,954272	1,002	345,0852	0,417	83,827	0	1016,44	7	9	8,9	1	1	1	1	1	1	1	1	1	0	1	-12,825934	274,276867	308,051947	0
15.01.2021	17:40:38	0	0	4,29321	0,9945	344,0124	0,423	83,829	0	1016,18	7	9	8,9	1	1	1	1	1	1	1	1	1	0	1	-9,795631	274,164241	310,555525	0
15.01.2021	17:40:39	0	0	3,050439	0,9855	331,1064	0,416	83,823	0	1016,18	7	9	8,9	1	1	1	1	1	1	1	1	1	0	1	-8,949965	274,092503	311,066032	0
15.01.2021	17:40:40	0	0	4,067252	0,97875	327,816	0,422	83,824	0	1016,4	7	9	8,9	1	1	1	1	1	1	1	1	1	0	1	-7,329105	274,249777	313,422022	0
15.01.2021	17:40:41	0	0	3,050439	0,9225	325,9368	0,423	83,834	0	1016,16	7	9	8,9	1	1	1	1	1	1	1	1	1	0	1	-10,42988	274,222724	310,194708	0
15.01.2021	17:40:42	0	0	3,502355	0,9285	321,1812	0,418	83,826	0	1016,32	7	9	8,9	1	1	1	1	1	1	1	1	1	0	1	-10,077519	274,273855	310,786267	0
15.01.2021	17:40:43	0	0	2,485543	0,8745	334,8756	0,419	83,83	0	1016,3	7	9	8,9	1	1	1	1	1	1	1	1	1	0	1	-13,601128	274,270844	307,248567	0
15.01.2021	17:40:44	0	0	4,29321	0,819	351,7632	0,412	83,812	0	1016,16	7	9	8,9	1	1	1	1	1	1	1	1	1	0	1	-9,936575	274,177721	310,477591	0
15.01.2021	17:40:45	0	0	2,598522	0,789	360	0,417	83,828	0	1016,28	7	9	8,9	1	1	1	1	1	1	1	1	1	0	1	-7,610994	274,107427	312,474703	0
15.01.2021	17:40:46	0	0	2,82448	0,78525	4,1004	0,422	83,839	0	1016,36	7	9	8,9	1	1	1	1	1	1	1	1	1	0	1	-9,725159	274,219721	310,885383	0
15.01.2021	17:40:47	0	0	4,519168	0,75825	358,0776	0,416	83,819	0	1016,3	7	9	8,9	1	1	1	1	1	1	1	1	1	0	1	-10,288936	274,28892	310,64535	0
15.01.2021	17:40:48	0	0	2,937459	0,696	352,4508	0,42	83,824	0	1016,14	7	9	8,9	1	1	1	1	1	1	1	1	1	0	1	-12,825934	274,192711	307,658307	0
15.01.2021	17:40:49	0	0	2,937459	0,65925	356,9508	0,419	83,82	0	1016,3	7	9	8,9	1	1	1	1	1	1	1	1	1	0	1	-9,44327	274,110413	310,656375	0
15.01.2021	17:40:50	0	0	2,82448	0,642	346,1076	0,42	83,813	0	1016,28	7	9	8,9	1	1	1	1	1	1	1	1	1	0	1	-10,923185	274,186713	309,533018	0
15.01.2021	17:40:51	0	0	2,937459	0,66825	348,048	0,423	83,832	0	1016,32	7	9	8,9	1	1	1	1	1	1	1	1	1	0	1	-11,205074	274,284399	309,708055	0
15.01.2021	17:40:52	0	0	4,519168	0,669	0,5004	0,416	83,829	0	1016,2	7	9	8,9	1	1	1	1	1	1	1	1	1	0	1	-10,218464	274,173227	310,174693	0
15.01.2021	17:40:53	0	0	4,29321	0,72225	0,1188	0,413	83,831	0	1016,2	7	9	8,9	1	1	1	1	1	1	1	1	1	0	1	-9,302326	274,269338	311,540324	0
15.01.2021	17:40:54	0	0	3,050457	0,78225	356,2164	0,417	83,835	0	1016,34	7	9	8,8	1	1	1	1	1	1	1	1	1	0	1	-9,654686	274,264822	311,166833	0
15.01.2021	17:40:55	0	0	3,728336	0,753	359,0784	0,421	83,82	0	1016,28	7	9	8,8	1	1	1	1	1	1	1	1	1	0	1	-12,684989	274,113399	307,428606	0
15.01.2021	17:40:56	0	0	4,067252	0,79125	360	0,421	83,839	0	1016,3	7	9	8,9	1	1	1	1	1	1	1	1	1	0	1	-11,346018	274,267833	309,489587	0
15.01.2021	17:40:57	0	0	4,632148	0,786	358,668	0,415	83,833	0	1016,34	7	9	8,9	1	1	1	1	1	1	1	1	1	0	1	-8,597604	274,098471	311,446265	0
15.01.2021	17:40:58	0	0	3,276397	0,75225	352,8684	0,419	83,834	0	1016,28	7	9	8,9	1	1	1	1	1	1	1	1	1	0	1	-9,654686	274,171729	310,731468	0
15.01.2021	17:40:59	0	0	4,29321	0,7425	354,2544	0,421	83,831	0	1016,14	7	9	8,9	1	1	1	1	1	1	1	1	1	0	1	-8,80902	274,287413	312,118212	0
15.01.2021	17:41:00	0	0	5,084064	0,732	350,5788	0,421	83,832	0	1016,28	7	9	8,9	1	1	1	1	1	1	1	1	1	0	1	-7,399577	274,290427	313,541762	0
15.01.2021	17:41:01	0	0	5,084064	0,732	350,5788	0,421	83,832	0	1016,28	7	9	8,9	1	1	1	1	1	1	1	1	1	0	1	-7,399577	274,290427	313,541762	0
15.01.2021	17:41:02	0	0	3,615335	0,70875	343,9296	0,416	83,829	0	1016,28	7	9	8,9	1	1	1	1	1	1	1	1	1	0	1	-6,906272	274,213715	313,676184	0
15.01.2021	17:41:03	0	0	3,276397	0,7035	348,3936	0,417	83,825	0	1016,28	7	9	8,9	1	1	1	1	1	1	1	1	1	0	1	-6,131078	274,120867	314,017405	0
15.01.2021	17:41:04	0	0	3,954272	0,68475	351,2844	0,418	83,822	0	1016,22	7	9	8,9	1	1	1	1	1	1	1	1	1	0	1	-6,906272	274,161246	313,430888	0
15.01.2021	17:41:05	0	0	2,372563	0,68925	349,0776	0,421	83,831	0	1016,18	7	9	8,9	1	1	1	1	1	1	1	1	1	0	1	-11,134602	274,101456	308,923207	0
15.01.2021	17:41:06	0	0	2,82448	0,68025	339,3936	0,422	83,829	0	1016,1	7	9	8,9	1	1	1	1	1	1	1	1	1	0	1	-10,077519	274,210713	310,490898	0
15.01.2021	17:41:07	0	0	2,372563	0,6735	326,3976	0,414	83,835	0	1016,18	7	9	8,9	1	1	1	1	1	1	1	1	1	0	1	-10,077519	274,091012	309,931511	0
15.01.2021	17:41:08	0	0	4,180231	0,6495	325,9836	0,423	83,829	0	1016,36	7	9	8,9	1	1	1	1	1	1	1	1	1	0	1	-8,879493	274,227231	311,76617	0
15.01.2021	17:41:09	0	0	2,937459	0,65175	340,182	0,423	83,819	0	1016,22	7	9	8,9	1	1	1	1	1	1	1	1	1	0	1	-9,725159	274,266328	311,103404	0
15.01.2021	17:41:10	0	0	4,632148	0,5685	338,3172	0,423	83,815	0	1016,3	7	9	8,9	1	1	1	1	1	1	1	1	1	0	1	-7,751938	274,20171	312,774379	0
15.01.2021	17:41:11	0	0	2,82448	0,5505	331,5024	0,423	83,832	0	1016,44	7	9	8,9	1	1	1	1	1	1	1	1	1	0	1	-5,84919	274,275361	315,021644	0
15.01.2021	17:41:12	0	0	4,29321	0,5415	330,7356	0,424	83,819	0	1016,34	7	9	8,9	1	1	1	1	1	1	1	1	1	0	1	-12,966878	274,152266	307,328312	0
15.01.2021	17:41:13	0	0	4,519168	0,54825	330,0768	0,425	83,82	0	1016,3	7	9	8,9	1	1	1	1	1	1	1	1	1	0	1	-9,654686	274,14329	310,598558	0
15.01.2021	17:41:14	0	0	2,485543	0,58125	331,488	0,419	83,825	0	1016,32	7	9	8,9	1	1	1	1	1	1	1	1	1	0	1	-9,584214	274,095487	310,445717	0
15.01.2021	17:41:15	0	0	2,82448	0,57	330,7284	0,422	83,812	0	1016,34	7	9	8,9	1	1	1	1	1	1	1	1	1	0	1	-12,191684	274,189712	308,278536	0
15.01.2021	17:41:16	0	0	4,632148	0,63	335,3112	0,414	83,816	0	1016,3	7	9	8,9	1	1	1	1	1	1	1	1	1	0	1	-10,359408	274,245266	310,370614	0
15.01.2021	17:41:17	0	0	2,937459	0,6975	330,6672	0,42	83,823	0	1016,38	7	9	8,9	1	1	1	1	1	1	1	1	1	0	1	-13,03735	274,246769	307,699706	0
15.01.2021	17:41:18	0	0	4,971115	0,76575	329,6592	0,417	83,825	0	1016,32	7	9	8,8	1	1	1	1	1	1	1	1	1	0	1	-4,580691	274,267833	316,254915	0
15.01.2021	17:41:19	0	0	3,050439	0,87525	339,1668	0,416	83,811	0	1016,28	7	9	8,9	1	1	1	1	1	1	1	1	1	0	1	-12,825934	274,153762	307,47625	0
15.01.2021	17:41:20	0	0	4,406189	0,95175	331,4736	0,415	83,809	0	1016,3	7	9	8,9	1	1	1	1	1	1	1	1	1	0	1	-9,725159	274,162743	310,618999	0
15.01.2021	17:41:21	0	0	3,728314	1,062	338,3964	0,42	83,828	0	1016,3	7	9	8,9	1	1	1	1	1	1	1	1	1	0	1	-8,597604	274,230235	312,062112	0
15.01.2021	17:41:22	0	0	3,615335	1,12875	343,8468	0,413	83,804	0	1016,26	7	9	8,9	1	1	1	1	1	1	1	1	1	0	1	-6,20155	274,107427	313,884146	0
15.01.2021	17:41:23	0	0	4,180231	1,22925	338,742	0,42	83,816	0	1016,44	7	9	8,9	1	1	1	1	1	1	1	1	1	0	1	-8,245243	274,185214	312,203952	0
15.01.2021	17:41:24	0	0	3,389376	1,26975	339,1704	0,419	83,811	0	1016,14	7	9	8,9	1	1	1	1	1	1	1	1	1	0	1	-8,386187	274,27235	312,470553	0
15.01.2021	17:41:25	0	0	3,728314	1,23825	345,7368	0,419	83,827	0	1016,26	7	9	8,9	1	1	1	1	1	1	1	1	1	0	1	-8,879493	274,155259	311,429685	0
15.01.2021	17:41:26	0	0	3,954272	1,2075	342,7776	0,422	83,814	0	1016,28	7	9	8,9	1	1	1	1	1	1	1	1	1	0	1	-7,681466	274,27235	313,175275	0
15.01.2021	17:41:27	0	0	3,841293	1,14975	344,6784	0,414	83,802	0	1016,3	7	9	8,9	1	1	1	1	1	1	1	1	1	0	1	-12,121212	274,185214	308,327983	0
15.01.2021	17:41:28	0	0	4,406189	1,10925	340,1352	0,421	83,797	0	1016,3	7	9	8,9	1	1	1	1	1	1	1	1	1	0	1	-7,82241	274,102948	312,24237	0
15.01.2021	17:41:29	0	0	3,615335	1,08975	339,1092	0,418	83,803	0	1016,32	7	9	8,9	1	1	1	1	1	1	1	1	1	0	1	-5,778717	274,153762	314,523466	0
15.01.2021	17:41:30	0	0	3,389376	1,10025	342,072	0,418	83,816	0	1016,26	7	9	8,9	1	1	1	1	1	1	1	1	1	0	1	-9,44327	274,261812	311,364166	0
15.01.2021	17:41:31	0	0	4,632148	1,08525	342,774	0,414	83,797	0	1016,04	7	9	8,9	1	1	1	1	1	1	1	1	1	0	1	-12,332629	274,14329	307,920616	0
15.01.2021	17:41:32	0	0	2,937459	1,095	344,6856	0,42	83,813	0	1016,38	7	9	8,9	1	1	1	1	1	1	1	1	1	0	1	-6,060606	274,11788	314,07392	0
15.01.2021	17:41:33	0	0	4,632175	1,0755	342,0792	0,422	83,815	0	1016,16	7	9	8,8	1	1	1	1	1	1	1	1	1	0	1	-14,235377	274,215217	306,354099	0
15.01.2021	17:41:34	0	0	3,389376	1,077	341,3304	0,419	83,806	0	1016,26	7	9	8,9	1	1	1	1	1	1	1	1	1	0	1	-6,765328	274,258803	314,028027	0
15.01.2021	17:41:35	0	0	4,632175	1,04775	335,4264	0,416	83,813	0	1016,2	7	9	8,8	1	1	1	1	1	1	1	1	1	0	1	-9,372798	274,275361	311,498036	0
15.01.2021	17:41:36	0	0	4,519168	1,0755	336,384	0,418	83,818	0	1016,32	7	9	8,9	1	1	1	1	1	1	1	1	1	0	1	-12,614517	274,144785	307,645717	0
15.01.2021	17:41:37	0	0	3,163437	1,07175	339,8364	0,419	83,821	0	1016,32	7	9	8,8	1	1	1	1	1	1	1	1	1	0	1	-10,359408	274,224226	310,272204	0
15.01.2021	17:41:38	0	0	2,937459	1,05225	353,9592	0,421	83,816	0	1016,26	7	9	8,9	1	1	1	1	1	1	1	1	1	0	1	-11,275546	274,213715	309,30691	0
15.01.2021	17:41:39	0	0	4,632175	1,05225	352,8252	0,417	83,811	0	1016,22	7	9	8,8	1	1	1	1	1	1	1	1	1	0	1	-8,668076	274,101456	311,389733	0
15.01.2021	17:41:40	0	0	4,067252	1,032	345,4272	0,418	83,819	0	1016,3	7	9	8,9	1	1	1	1	1	1	1	1	1	0	1	-6,483439	274,237749	314,211422	0
15.01.2021	17:41:41	0	0	3,728314	1,041	343,4652	0,42	83,801	0	1016,34	7	9	8,9	1	1	1	1	1	1	1	1	1	0	1	-9,372798	274,168733	310,999355	0
15.01.2021	17:41:42	0	0	2,033626	1,12875	344,7	0,425	83,815	0	1016,42	7	9	8,9	1	1	1	1	1	1	1	1	1	0	1	-11,768851	274,088029	308,226248	0
15.01.2021	17:41:43	0	0	2,937459	1,1655	342,7344	0,422	83,823	0	1016,34	7	9	8,9	1	1	1	1	1	1	1	1	1	0	1	-14,023961	274,20321	306,509372	0
15.01.2021	17:41:44	0	0	5,310023	1,11375	344,394	0,42	83,812	0	1016,34	7	9	8,9	1	1	1	1	1	1	1	1	1	0	1	-10,852713	274,276867	310,025168	0
15.01.2021	17:41:45	0	0	4,29321	1,07475	337,8528	0,42	83,817	0	1016,3	7	9	8,9	1	1	1	1	1	1	1	1	1	0	1	-11,627907	274,213715	308,954549	0
15.01.2021	17:41:46	0	0	4,632148	1,03575	334,5408	0,42	83,818	0	1016,36	7	9	8,9	1	1	1	1	1	1	1	1	1	0	1	-8,315715	274,263317	312,498762	0
15.01.2021	17:41:47	0	0	3,728314	1,011	333,6156	0,419	83,796	0	1016,34	7	9	8,9	1	1	1	1	1	1	1	1	1	0	1	-4,439746	274,149273	315,84146	0
15.01.2021	17:41:48	0	0	5,197044	0,9915	333,1872	0,417	83,813	0	1016,3	7	9	8,9	1	1	1	1	1	1	1	1	1	0	1	-8,527132	274,27988	312,364847	0
15.01.2021	17:41:49	0	0	2,485543	1,02225	334,2204	0,409	83,802	0	1016,1	7	9	8,9	1	1	1	1	1	1	1	1	1	0	1	-7,117689	274,20171	313,408629	0
15.01.2021	17:41:50	0	0	4,632148	1,00875	338,7744	0,417	83,811	0	1016,34	7	9	8,9	1	1	1	1	1	1	1	1	1	0	1	-12,825934	274,281386	308,073094	0
15.01.2021	17:41:51	0	0	2,485543	0,936	326,8836	0,42	83,808	0	1016,16	7	9,1	8,9	1	1	1	1	1	1	1	1	1	0	1	-12,825934	274,116386	307,301615	0
15.01.2021	17:41:52	0	0	2,372563	0,94425	328,5936	0,414	83,81	0	1016,12	7	9	8,9	1	1	1	1	1	1	1	1	1	0	1	-12,05074	274,102948	308,01404	0
15.01.2021	17:41:53	0	0	4,632148	0,93	338,3928	0,419	83,817	0	1016,36	7	9	8,9	1	1	1	1	1	1	1	1	1	0	1	-8,738548	274,14329	311,514696	0
15.01.2021	17:41:54	0	0	2,372563	0,92775	339,1128	0,42	83,814	0	1016,36	7	9	8,9	1	1	1	1	1	1	1	1	1	0	1	-7,047216	274,255794	313,73206	0
15.01.2021	17:41:55	0	0	3,615335	0,96675	331,5312	0,414	83,806	0	1016,28	7	9	8,9	1	1	1	1	1	1	1	1	1	0	1	-8,033827	274,248273	312,710265	0
15.01.2021	17:41:56	0	0	2,824497	1,0035	333,5328	0,421	83,81	0	1016,38	7	9	8,8	1	1	1	1	1	1	1	1	1	0	1	-7,963354	274,159749	312,366809	0
15.01.2021	17:41:57	0	0	3,389376	1,0395	339,8328	0,427	83,814	0	1016,3	7	9	8,9	1	1	1	1	1	1	1	1	1	0	1	-9,020437	274,270844	311,829258	0
15.01.2021	17:41:58	0	0	3,615356	1,06575	328,5576	0,419	83,808	0	1016,18	7	9	8,8	1	1	1	1	1	1	1	1	1	0	1	-6,8358	274,123856	313,326643	0
15.01.2021	17:41:59	0	0	4,519195	1,14975	323,3376	0,419	83,805	0	1016,38	7	9	8,8	1	1	1	1	1	1	1	1	1	0	1	-12,191684	274,267833	308,643922	0
15.01.2021	17:42:00	0	0	3,502355	1,31625	322,7688	0,417	83,793	0	1016,32	7	9,1	8,9	1	1	1	1	1	1	1	1	1	0	1	-8,668076	274,080573	311,292207	0
15.01.2021	17:42:01	0	0	3,502355	1,31625	322,7688	0,417	83,793	0	1016,32	7	9,1	8,9	1	1	1	1	1	1	1	1	1	0	1	-8,668076	274,080573	311,292207	0
15.01.2021	17:42:02	0	0	3,050439	1,31175	321,5556	0,417	83,797	0	1016,3	7	9,1	8,9	1	1	1	1	1	1	1	1	1	0	1	-7,399577	274,162743	312,94458	0
15.01.2021	17:42:03	0	0	3,841316	1,296	337,2984	0,42	83,808	0	1016,28	7	9	8,8	1	1	1	1	1	1	1	1	1	0	1	-10,359408	274,276867	310,518473	0
15.01.2021	17:42:04	0	0	4,406189	1,30425	331,4268	0,422	83,803	0	1016,22	7	9	8,9	1	1	1	1	1	1	1	1	1	0	1	-11,41649	274,219721	309,194051	0
15.01.2021	17:42:05	0	0	2,711517	1,296	333,8028	0,419	83,784	0	1016,22	7	9	8,8	1	1	1	1	1	1	1	1	1	0	1	-10,923185	274,102948	309,141595	0
15.01.2021	17:42:06	0	0	3,276397	1,2735	340,5312	0,42	83,799	0	1016,34	7	9	8,9	1	1	1	1	1	1	1	1	1	0	1	-9,654686	274,246769	311,08237	0
15.01.2021	17:42:07	0	0	3,050457	1,21725	336,7656	0,416	83,804	0	1016,34	7	9	8,8	1	1	1	1	1	1	1	1	1	0	1	-8,174771	274,119373	311,966733	0
15.01.2021	17:42:08	0	0	2,82448	1,14375	336,456	0,418	83,805	0	1016,32	7	9	8,9	1	1	1	1	1	1	1	1	1	0	1	-4,580691	274,095487	315,449241	0
15.01.2021	17:42:09	0	0	3,050457	1,08075	328,5396	0,414	83,799	0	1016,3	7	9	8,8	1	1	1	1	1	1	1	1	1	0	1	-11,346018	274,128339	308,837369	0
15.01.2021	17:42:10	0	0	3,728314	1,05675	320,688	0,417	83,807	0	1016,14	7	9	8,9	1	1	1	1	1	1	1	1	1	0	1	-9,161381	274,218219	311,442138	0
15.01.2021	17:42:11	0	0	2,711501	0,981	333,1476	0,417	83,795	0	1016,4	7	9,1	8,9	1	1	1	1	1	1	1	1	1	0	1	-8,174771	274,12535	311,994653	0
15.01.2021	17:42:12	0	0	3,276417	0,95775	333,4356	0,413	83,79	0	1016,24	7	9,1	8,8	1	1	1	1	1	1	1	1	1	0	1	-9,302326	274,267833	311,53328	0
15.01.2021	17:42:13	0	0	4,971085	0,87825	333,1152	0,419	83,783	0	1016,32	7	9	8,9	1	1	1	1	1	1	1	1	1	0	1	-4,862579	274,152266	315,432611	0
15.01.2021	17:42:14	0	0	4,632148	0,84675	323,3124	0,417	83,783	0	1016,3	7	9,1	8,9	1	1	1	1	1	1	1	1	1	0	1	-9,020437	274,252785	311,744763	0
15.01.2021	17:42:15	0	0	3,163418	0,8655	322,8984	0,416	83,787	0	1016,3	7	9	8,9	1	1	1	1	1	1	1	1	1	0	1	-9,44327	274,188213	311,019941	0
15.01.2021	17:42:16	0	0	3,163418	0,8565	335,3004	0,424	83,803	0	1016,34	7	9	8,9	1	1	1	1	1	1	1	1	1	0	1	-6,553911	274,092503	313,462085	0
15.01.2021	17:42:17	0	0	2,485558	0,852	344,61	0,412	83,792	0	1016,24	7	9,1	8,8	1	1	1	1	1	1	1	1	1	0	1	-9,513742	274,126844	310,662663	0
15.01.2021	17:42:18	0	0	3,050457	0,8565	338,0976	0,412	83,783	0	1016,36	7	9,1	8,8	1	1	1	1	1	1	1	1	1	0	1	-7,540521	274,239252	313,16137	0
15.01.2021	17:42:19	0	0	4,180256	0,88875	330,8148	0,414	83,789	0	1016,36	7	9	8,8	1	1	1	1	1	1	1	1	1	0	1	-9,302326	274,252785	311,462874	0
15.01.2021	17:42:20	0	0	3,954272	0,8685	332,0244	0,42	83,795	0	1016,34	7	9	8,9	1	1	1	1	1	1	1	1	1	0	1	-9,866103	274,170231	310,513051	0
15.01.2021	17:42:21	0	0	5,084095	0,87375	341,2836	0,419	83,798	0	1016,42	7	9	8,8	1	1	1	1	1	1	1	1	1	0	1	-7,399577	274,085046	312,581594	0
15.01.2021	17:42:22	0	0	3,615356	0,86925	344,088	0,411	83,781	0	1016,2	7	9,1	8,8	1	1	1	1	1	1	1	1	1	0	1	-6,483439	274,12535	313,685984	0
15.01.2021	17:42:23	0	0	3,502355	0,87375	336,0276	0,412	83,792	0	1016,28	7	9	8,9	1	1	1	1	1	1	1	1	1	0	1	-8,386187	274,091012	311,622843	0
15.01.2021	17:42:24	0	0	3,728314	0,91125	344,6568	0,414	83,799	0	1016,4	6,9	9	8,9	1	1	1	1	1	1	1	1	1	0	1	-11,41649	274,228733	309,236199	0
15.01.2021	17:42:25	0	0	2,824497	0,90375	349,8552	0,416	83,782	0	1016,44	7	9	8,8	1	1	1	1	1	1	1	1	1	0	1	-7,892882	274,215217	312,696594	0
15.01.2021	17:42:26	0	0	4,29321	0,888	347,9004	0,416	83,791	0	1016,32	7	9	8,9	1	1	1	1	1	1	1	1	1	0	1	-6,765328	274,23324	313,908444	0
15.01.2021	17:42:27	0	0	2,82448	0,85725	340,938	0,415	83,797	0	1016,28	7	9	8,9	1	1	1	1	1	1	1	1	1	0	1	-8,949965	274,134318	311,261357	0
15.01.2021	17:42:28	0	0	3,05042	0,9285	327,834	0,413	83,778	0	1016,4	7	9,1	9	1	1	1	1	1	1	1	1	1	0	1	-10,923185	274,239252	309,778706	0
15.01.2021	17:42:29	0	0	4,632175	1,0215	337,9068	0,413	83,779	0	1016,34	7	9,1	8,8	1	1	1	1	1	1	1	1	1	0	1	-11,06413	274,264822	309,75739	0
15.01.2021	17:42:30	0	0	4,067276	1,10775	337,5	0,414	83,793	0	1016,4	7	9,1	8,8	1	1	1	1	1	1	1	1	1	0	1	-7,329105	274,149273	312,952101	0
15.01.2021	17:42:31	0	0	3,728314	1,1205	335,6748	0,415	83,796	0	1016,26	7	9,1	8,9	1	1	1	1	1	1	1	1	1	0	1	-6,8358	274,083555	313,138408	0
15.01.2021	17:42:32	0	0	4,858135	1,15725	332,766	0,416	83,79	0	1016,34	7	9	8,8	1	1	1	1	1	1	1	1	1	0	1	-9,161381	274,126844	311,015024	0
15.01.2021	17:42:33	0	0	3,389397	1,19175	342,7056	0,412	83,783	0	1016,3	7	9	8,8	1	1	1	1	1	1	1	1	1	0	1	-10,570825	274,19421	309,920427	0
15.01.2021	17:42:34	0	0	4,632175	1,1865	332,0352	0,411	83,774	0	1016,26	7	9	8,8	1	1	1	1	1	1	1	1	1	0	1	-7,963354	274,206211	312,58401	0
15.01.2021	17:42:35	0	0	3,502376	1,203	341,298	0,415	83,771	0	1016,26	7	9	8,8	1	1	1	1	1	1	1	1	1	0	1	-11,205074	274,263317	309,609403	0
15.01.2021	17:42:36	0	0	4,293236	1,18125	341,2692	0,416	83,774	0	1016,38	7	9,1	8,8	1	1	1	1	1	1	1	1	1	0	1	-8,879493	274,255794	311,899783	0
15.01.2021	17:42:37	0	0	3,163437	1,23225	329,2776	0,412	83,783	0	1016,52	7	9	8,8	1	1	1	1	1	1	1	1	1	0	1	-12,614517	274,191211	307,862713	0
15.01.2021	17:42:38	0	0	2,598522	1,3485	339,1164	0,415	83,776	0	1016,4	7	9,1	8,9	1	1	1	1	1	1	1	1	1	0	1	-11,698379	274,079082	308,254943	0
15.01.2021	17:42:39	0	0	2,824497	1,476	331,0812	0,411	83,783	0	1016,3	7	9	8,8	1	1	1	1	1	1	1	1	1	0	1	-7,892882	274,141794	312,353374	0
15.01.2021	17:42:40	0	0	4,293236	1,5855	334,1448	0,406	83,788	0	1016,1	7	9	8,8	1	1	1	1	1	1	1	1	1	0	1	-8,597604	274,257298	312,188711	0
15.01.2021	17:42:41	0	0	3,389356	1,59525	351,2844	0,41	83,772	0	1016,24	7	9	9	1	1	1	1	1	1	1	1	1	0	1	-7,258633	274,120867	312,88985	0
15.01.2021	17:42:42	0	0	3,841316	1,55775	338,634	0,414	83,778	0	1016,34	7	9,1	8,8	1	1	1	1	1	1	1	1	1	0	1	-10,077519	274,079082	309,875803	0
15.01.2021	17:42:43	0	0	3,615356	1,53675	336,366	0,407	83,781	0	1016,26	7	9,1	8,8	1	1	1	1	1	1	1	1	1	0	1	-8,45666	274,092503	311,559337	0
15.01.2021	17:42:44	0	0	3,050457	1,52625	340,7976	0,407	83,772	0	1016,32	7	9,1	8,8	1	1	1	1	1	1	1	1	1	0	1	-7,470049	274,19421	313,021202	0
15.01.2021	17:42:45	0	0	3,728336	1,51275	336,0924	0,415	83,786	0	1016,34	7	9,1	8,8	1	1	1	1	1	1	1	1	1	0	1	-9,090909	274,255794	311,688367	0
15.01.2021	17:42:46	0	0	4,632148	1,539	334,512	0,415	83,762	0	1016,28	6,9	9	8,9	1	1	1	1	1	1	1	1	1	0	1	-9,44327	274,207712	311,111111	0
15.01.2021	17:42:47	0	0	4,858135	1,6065	341,6544	0,415	83,776	0	1016,22	6,9	9,1	8,8	1	1	1	1	1	1	1	1	1	0	1	-6,20155	274,111906	313,905069	0
15.01.2021	17:42:48	0	0	4,067276	1,5825	337,1004	0,411	83,784	0	1016,32	7	9	8,8	1	1	1	1	1	1	1	1	1	0	1	-12,05074	274,249777	308,700387	0
15.01.2021	17:42:49	0	0	3,615356	1,581	334,9332	0,413	83,792	0	1016,16	7	9,1	8,8	1	1	1	1	1	1	1	1	1	0	1	-7,470049	274,207712	313,084332	0
15.01.2021	17:42:50	0	0	3,954296	1,584	345,1032	0,42	83,792	0	1016,36	6,9	9	8,8	1	1	1	1	1	1	1	1	1	0	1	-6,624383	274,07014	313,287185	0
15.01.2021	17:42:51	0	0	4,067276	1,5645	343,9368	0,408	83,787	0	1016,3	7	9,1	8,8	1	1	1	1	1	1	1	1	1	0	1	-10,218464	274,114893	309,902108	0
15.01.2021	17:42:52	0	0	2,711517	1,545	337,14	0,41	83,796	0	1016,32	7	9	8,8	1	1	1	1	1	1	1	1	1	0	1	-11,06413	274,240755	309,644794	0
15.01.2021	17:42:53	0	0	4,406216	1,50075	339,1308	0,411	83,776	0	1016,26	7	9,1	8,8	1	1	1	1	1	1	1	1	1	0	1	-9,513742	274,192711	310,970499	0
15.01.2021	17:42:54	0	0	3,050457	1,5075	338,3388	0,406	83,773	0	1016,2	6,9	9,1	8,8	1	1	1	1	1	1	1	1	1	0	1	-6,765328	274,077591	313,181034	0
15.01.2021	17:42:55	0	0	4,180256	1,47	326,9844	0,41	83,786	0	1016,32	7	9,1	8,8	1	1	1	1	1	1	1	1	1	0	1	-8,527132	274,189712	311,943089	0
15.01.2021	17:42:56	0	0	4,858135	1,47	337,1652	0,412	83,79	0	1016,4	7	9,1	8,8	1	1	1	1	1	1	1	1	1	0	1	-11,909796	274,249777	308,841331	0
15.01.2021	17:42:57	0	0	3,163437	1,4445	337,5216	0,416	83,797	0	1016,38	6,9	9,1	8,8	1	1	1	1	1	1	1	1	1	0	1	-8,104299	274,062691	311,772493	0
15.01.2021	17:42:58	0	0	3,276417	1,41525	332,3988	0,414	83,787	0	1016,34	7	9,1	8,8	1	1	1	1	1	1	1	1	1	0	1	-6,412967	274,138803	313,819314	0
15.01.2021	17:42:59	0	0	2,824497	1,347	330,9552	0,413	83,771	0	1016,38	7	9,1	8,8	1	1	1	1	1	1	1	1	1	0	1	-12,05074	274,269338	308,79191	0
15.01.2021	17:43:00	0	0	4,858077	1,33125	325,152	0,408	83,796	0	1016,3	7	9	9	1	1	1	1	1	1	1	1	1	0	1	-9,654686	274,120867	310,493797	0
15.01.2021	17:43:01	0	0	4,858077	1,33125	325,152	0,408	83,796	0	1016,3	7	9	9	1	1	1	1	1	1	1	1	1	0	1	-9,231853	274,237749	311,463007	0
15.01.2021	17:43:02	0	0	2,033638	1,37775	331,146	0,414	83,793	0	1016,4	6,9	9,1	8,8	1	1	1	1	1	1	1	1	1	0	1	-7,751938	274,086537	312,236197	0
15.01.2021	17:43:03	0	0	3,276417	1,3725	328,6044	0,416	83,794	0	1016,4	7	9,1	8,8	1	1	1	1	1	1	1	1	1	0	1	-10,993658	274,085046	308,987513	0
15.01.2021	17:43:04	0	0	4,971115	1,323	321,1344	0,41	83,8	0	1016,3	6,9	9,1	8,8	1	1	1	1	1	1	1	1	1	0	1	-9,725159	274,224226	310,906454	0
15.01.2021	17:43:05	0	0	3,163437	1,3185	320,3352	0,414	83,79	0	1016,36	7	9,1	8,8	1	1	1	1	1	1	1	1	1	0	1	-8,668076	274,11788	311,46645	0
15.01.2021	17:43:06	0	0	2,598537	1,25925	319,2048	0,413	83,792	0	1016,3	6,9	9,1	8,8	1	1	1	1	1	1	1	1	1	0	1	-8,033827	274,237749	312,661034	0
15.01.2021	17:43:07	0	0	4,067276	1,257	317,7648	0,404	83,774	0	1016,3	6,9	9,1	8,8	1	1	1	1	1	1	1	1	1	0	1	-7,188161	274,188213	313,275051	0
15.01.2021	17:43:08	0	0	3,615356	1,26225	312,8508	0,406	83,789	0	1016,34	6,9	9	8,8	1	1	1	1	1	1	1	1	1	0	1	-10,359408	274,058223	309,496525	0
15.01.2021	17:43:09	0	0	2,485528	1,29375	321,768	0,412	83,793	0	1016,34	7	9,1	9	1	1	1	1	1	1	1	1	1	0	1	-8,45666	274,156756	311,859513	0
15.01.2021	17:43:10	0	0	2,485558	1,3725	319,2156	0,412	83,792	0	1016,3	7	9,1	8,8	1	1	1	1	1	1	1	1	1	0	1	-4,087385	274,077591	315,858976	0
15.01.2021	17:43:11	0	0	4,632175	1,428	324,0972	0,412	83,776	0	1016,18	6,9	9	8,8	1	1	1	1	1	1	1	1	1	0	1	-7,82241	274,149273	312,458796	0
15.01.2021	17:43:12	0	0	4,858077	1,42275	328,9464	0,41	83,788	0	1016,22	6,9	9,1	9	1	1	1	1	1	1	1	1	1	0	1	-9,090909	274,249777	311,660218	0
15.01.2021	17:43:13	0	0	3,050457	1,40775	324,36	0,407	83,783	0	1016,22	7	9,1	8,8	1	1	1	1	1	1	1	1	1	0	1	-7,399577	274,156756	312,916595	0
15.01.2021	17:43:14	0	0	2,937477	1,38975	326,3508	0,412	83,792	0	1016,36	7	9,1	8,8	1	1	1	1	1	1	1	1	1	0	1	-7,470049	274,080573	312,490234	0
15.01.2021	17:43:15	0	0	3,389397	1,32975	327,3804	0,411	83,798	0	1016,38	7	9,1	8,8	1	1	1	1	1	1	1	1	1	0	1	-9,725159	274,176223	310,682004	0
15.01.2021	17:43:16	0	0	3,615313	1,362	335,286	0,41	83,787	0	1016,3	7	9,1	9	1	1	1	1	1	1	1	1	1	0	1	-9,372798	274,231738	311,293946	0
15.01.2021	17:43:17	0	0	3,502376	1,41675	340,5492	0,414	83,79	0	1016,28	6,9	9,1	8,8	1	1	1	1	1	1	1	1	1	0	1	-10,359408	274,246769	310,377648	0
15.01.2021	17:43:18	0	0	4,180256	1,392	341,2836	0,41	83,806	0	1016,22	6,9	9,1	8,8	1	1	1	1	1	1	1	1	1	0	1	-5,21494	274,135813	315,003368	0
15.01.2021	17:43:19	0	0	4,067276	1,38075	338,3892	0,41	83,806	0	1016,28	7	9,1	8,8	1	1	1	1	1	1	1	1	1	0	1	-9,302326	274,074611	310,630117	0
15.01.2021	17:43:20	0	0	2,372578	1,34025	339,0984	0,412	83,792	0	1016,38	7	9	8,8	1	1	1	1	1	1	1	1	1	0	1	-7,188161	274,188213	313,275051	0
15.01.2021	17:43:21	0	0	3,502376	1,31925	339,1272	0,409	83,8	0	1016,36	7	9,1	8,8	1	1	1	1	1	1	1	1	1	0	1	-14,587738	274,252785	306,177462	0
15.01.2021	17:43:22	0	0	2,598537	1,2405	338,7168	0,406	83,802	0	1016,32	6,9	9,1	8,8	1	1	1	1	1	1	1	1	1	0	1	-5,003524	274,111906	315,103096	0
15.01.2021	17:43:23	0	0	3,728336	1,18575	336,0924	0,407	83,808	0	1016,44	7	9,1	8,8	1	1	1	1	1	1	1	1	1	0	1	-12,544045	274,074611	307,388397	0
15.01.2021	17:43:24	0	0	3,502376	1,101	333,5112	0,41	83,785	0	1016,3	7	9,1	8,8	1	1	1	1	1	1	1	1	1	0	1	-8,033827	274,231738	312,632917	0
15.01.2021	17:43:25	0	0	4,180256	1,08975	332,4096	0,406	83,788	0	1016,36	7	9,1	8,8	1	1	1	1	1	1	1	1	1	0	1	-9,090909	274,147777	311,183306	0
15.01.2021	17:43:26	0	0	2,824497	1,02825	333,8712	0,401	83,775	0	1016,42	6,9	9,1	8,8	1	1	1	1	1	1	1	1	1	0	1	-8,174771	274,07312	311,750713	0
15.01.2021	17:43:27	0	0	4,519141	1,011	339,7716	0,406	83,789	0	1016,22	7	9,1	9	1	1	1	1	1	1	1	1	1	0	1	-8,315715	274,185214	312,13348	0
15.01.2021	17:43:28	0	0	3,615356	0,993	333,9108	0,413	83,794	0	1016,34	7	9,1	8,8	1	1	1	1	1	1	1	1	1	0	1	-8,597604	274,076101	311,341798	0
15.01.2021	17:43:29	0	0	4,406216	0,95325	322,5204	0,408	83,803	0	1016,38	6,9	9,1	8,8	1	1	1	1	1	1	1	1	1	0	1	-9,936575	274,122361	310,218887	0
15.01.2021	17:43:30	0	0	3,615356	0,95025	322,9056	0,411	83,8	0	1016,34	6,9	9,1	8,8	1	1	1	1	1	1	1	1	1	0	1	-8,174771	274,064181	311,708975	0
15.01.2021	17:43:31	0	0	3,050457	0,97875	324,3132	0,405	83,782	0	1016,34	7	9,1	8,8	1	1	1	1	1	1	1	1	1	0	1	-5,355884	274,15077	314,932313	0
15.01.2021	17:43:32	0	0	3,389397	1,092	321,8508	0,405	83,794	0	1016,38	6,9	9,1	8,8	1	1	1	1	1	1	1	1	1	0	1	-7,188161	274,231738	313,478583	0
15.01.2021	17:43:33	0	0	2,937477	1,155	337,4352	0,402	83,795	0	1016,34	6,9	9,1	8,8	1	1	1	1	1	1	1	1	1	0	1	-6,412967	274,146281	313,854257	0
15.01.2021	17:43:34	0	0	2,937477	1,13625	342,0036	0,409	83,806	0	1016,36	6,9	9,1	8,8	1	1	1	1	1	1	1	1	1	0	1	-10,500352	274,053757	309,334729	0
15.01.2021	17:43:35	0	0	4,632175	1,13325	331,4736	0,406	83,799	0	1016,46	6,9	9	8,8	1	1	1	1	1	1	1	1	1	0	1	-6,976744	274,122361	313,178718	0
15.01.2021	17:43:36	0	0	2,937477	1,1535	322,6068	0,409	83,799	0	1016,36	6,9	9,1	8,8	1	1	1	1	1	1	1	1	1	0	1	-9,936575	274,23324	310,737197	0
15.01.2021	17:43:37	0	0	3,954296	1,176	328,8924	0,403	83,781	0	1016,24	6,9	9,1	8,8	1	1	1	1	1	1	1	1	1	0	1	-9,513742	274,225728	311,124895	0
15.01.2021	17:43:38	0	0	4,180256	1,1685	331,524	0,405	83,801	0	1016,34	6,9	9,1	8,8	1	1	1	1	1	1	1	1	1	0	1	-5,003524	274,183716	315,438664	0
15.01.2021	17:43:39	0	0	4,406216	1,1775	327,1248	0,404	83,788	0	1016,16	6,9	9,1	8,8	1	1	1	1	1	1	1	1	1	0	1	-8,386187	274,052268	311,441944	0
15.01.2021	17:43:40	0	0	4,293236	1,2315	336,1284	0,404	83,801	0	1016,34	7	9,1	8,8	1	1	1	1	1	1	1	1	1	0	1	-12,121212	274,188213	308,341999	0
15.01.2021	17:43:41	0	0	5,423035	1,2975	334,3608	0,402	83,787	0	1016,32	6,9	9	8,8	1	1	1	1	1	1	1	1	1	0	1	-8,245243	274,246769	312,491813	0
15.01.2021	17:43:42	0	0	3,841316	1,323	325,494	0,404	83,798	0	1016,4	6,9	9,1	8,8	1	1	1	1	1	1	1	1	1	0	1	-7,470049	274,128339	312,713338	0
15.01.2021	17:43:43	0	0	2,146618	1,35675	330,354	0,4	83,79	0	1016,28	7	9	8,8	1	1	1	1	1	1	1	1	1	0	1	-7,681466	274,173227	312,711691	0
15.01.2021	17:43:44	0	0	4,180256	1,33725	330,7608	0,406	83,79	0	1016,34	6,9	9,1	8,8	1	1	1	1	1	1	1	1	1	0	1	-6,694856	274,255794	314,08442	0
15.01.2021	17:43:45	0	0	5,197075	1,296	328,2336	0,404	83,794	0	1016,3	6,9	9,1	8,8	1	1	1	1	1	1	1	1	1	0	1	-6,20155	274,120867	313,946933	0
15.01.2021	17:43:46	0	0	3,276417	1,2495	333,4284	0,401	83,788	0	1016,26	6,9	9	8,8	1	1	1	1	1	1	1	1	1	0	1	-4,933051	274,074611	314,999391	0
15.01.2021	17:43:47	0	0	2,259598	1,21875	325,53	0,401	83,798	0	1016,16	6,9	9,1	8,8	1	1	1	1	1	1	1	1	1	0	1	-7,892882	274,101456	312,164927	0
15.01.2021	17:43:48	0	0	4,858135	1,18575	318,5028	0,401	83,799	0	1016,26	6,9	9,1	8,8	1	1	1	1	1	1	1	1	1	0	1	-7,399577	274,059713	312,463308	0
15.01.2021	17:43:49	0	0	3,163437	1,16925	324,7524	0,404	83,801	0	1016,36	6,9	9	8,8	1	1	1	1	1	1	1	1	1	0	1	-10,852713	274,188213	309,610498	0
15.01.2021	17:43:50	0	0	4,180256	1,12725	334,98	0,398	83,792	0	1016,32	6,9	9,1	8,8	1	1	1	1	1	1	1	1	1	0	1	-8,45666	274,20321	312,076672	0
15.01.2021	17:43:51	0	0	3,728336	1,0875	334,1808	0,394	83,79	0	1016,28	6,9	9,1	8,8	1	1	1	1	1	1	1	1	1	0	1	-4,016913	274,161246	316,320247	0
15.01.2021	17:43:52	0	0	2,711517	1,05975	330,3288	0,397	83,807	0	1016,42	6,9	9	8,8	1	1	1	1	1	1	1	1	1	0	1	-9,302326	274,059713	310,56056	0
15.01.2021	17:43:53	0	0	4,406216	1,02375	330,0156	0,405	83,792	0	1016,32	6,9	9,1	8,8	1	1	1	1	1	1	1	1	1	0	1	-8,879493	274,168733	311,49266	0
15.01.2021	17:43:54	0	0	4,745155	1,02975	332,37	0,406	83,783	0	1016,26	6,9	9,1	8,8	1	1	1	1	1	1	1	1	1	0	1	-8,80902	274,076101	311,130381	0
15.01.2021	17:43:55	0	0	4,519195	1,06125	333,4356	0,401	83,784	0	1016,24	6,9	9	8,8	1	1	1	1	1	1	1	1	1	0	1	-7,258633	274,119373	312,882871	0
15.01.2021	17:43:56	0	0	3,954296	1,0815	333,1008	0,399	83,789	0	1016,28	6,9	9	8,8	1	1	1	1	1	1	1	1	1	0	1	-10,923185	274,059713	308,9397	0
15.01.2021	17:43:57	0	0	2,485558	1,11975	335,7108	0,402	83,784	0	1016,38	6,9	9	8,8	1	1	1	1	1	1	1	1	1	0	1	-8,527132	274,171729	311,859023	0
15.01.2021	17:43:58	0	0	4,180256	1,1205	331,9956	0,4	83,799	0	1016,28	6,9	9,1	8,8	1	1	1	1	1	1	1	1	1	0	1	-11,346018	274,231738	309,320725	0
15.01.2021	17:43:59	0	0	3,841316	1,0845	336,5136	0,404	83,789	0	1016,4	6,9	9	8,8	1	1	1	1	1	1	1	1	1	0	1	-7,963354	274,236246	312,724476	0
15.01.2021	17:44:00	0	0	3,276417	1,10925	340,2396	0,397	83,806	0	1016,5	6,9	9	8,8	1	1	1	1	1	1	1	1	1	0	1	-7,82241	274,11788	312,312116	0
15.01.2021	17:44:01	0	0	3,276417	1,10925	340,2396	0,397	83,806	0	1016,5	6,9	9	8,8	1	1	1	1	1	1	1	1	1	0	1	-10,147992	274,227231	310,497671	0
15.01.2021	17:44:02	0	0	4,632175	1,07925	347,2812	0,393	83,8	0	1016,2	6,9	9	8,8	1	1	1	1	1	1	1	1	1	0	1	-7,540521	274,167235	312,824632	0
15.01.2021	17:44:03	0	0	2,598537	1,08075	337,4604	0,396	83,785	0	1016,28	6,9	9,1	8,8	1	1	1	1	1	1	1	1	1	0	1	-7,188161	274,095487	312,841771	0
15.01.2021	17:44:04	0	0	4,632175	1,035	337,9716	0,401	83,799	0	1016,36	6,9	9,1	8,8	1	1	1	1	1	1	1	1	1	0	1	-11,909796	274,19571	308,588468	0
15.01.2021	17:44:05	0	0	2,485558	1,026	336,7836	0,397	83,793	0	1016,3	6,9	9,1	8,8	1	1	1	1	1	1	1	1	1	0	1	-10,641297	274,059713	309,221589	0
15.01.2021	17:44:06	0	0	3,276417	1,0065	329,616	0,402	83,8	0	1016,44	6,9	9	8,8	1	1	1	1	1	1	1	1	1	0	1	-8,033827	274,19721	312,471449	0
15.01.2021	17:44:07	0	0	4,180256	0,98025	325,962	0,4	83,809	0	1016,18	6,9	9,1	8,8	1	1	1	1	1	1	1	1	1	0	1	-6,976744	274,242259	313,739211	0
15.01.2021	17:44:08	0	0	4,971115	0,951	321,1488	0,396	83,799	0	1016,32	6,9	9	8,8	1	1	1	1	1	1	1	1	1	0	1	-10,782241	274,147777	309,491974	0
15.01.2021	17:44:09	0	0	2,711517	0,9075	319,1148	0,404	83,806	0	1016,46	6,9	9,1	8,8	1	1	1	1	1	1	1	1	1	0	1	-5,144468	274,230235	315,515248	0
15.01.2021	17:44:10	0	0	5,084095	0,915	323,8596	0,394	83,789	0	1016,26	7	9,1	8,8	1	1	1	1	1	1	1	1	1	0	1	-9,44327	274,126844	310,733135	0
15.01.2021	17:44:11	0	0	2,711517	0,94275	323,5896	0,399	83,805	0	1016,28	6,9	9	8,8	1	1	1	1	1	1	1	1	1	0	1	-10,288936	274,227231	310,356727	0
15.01.2021	17:44:12	0	0	3,163437	0,99225	316,926	0,39	83,79	0	1016,26	6,9	9	8,8	1	1	1	1	1	1	1	1	1	0	1	-6,694856	274,162743	313,649302	0
15.01.2021	17:44:13	0	0	2,372578	1,035	324,3456	0,393	83,809	0	1016,38	6,9	9,1	8,8	1	1	1	1	1	1	1	1	1	0	1	-9,654686	274,056734	310,194296	0
15.01.2021	17:44:14	0	0	4,858135	1,10475	326,7612	0,398	83,791	0	1016,3	6,9	9,1	8,8	1	1	1	1	1	1	1	1	1	0	1	-11,346018	274,096979	308,690881	0
15.01.2021	17:44:15	0	0	4,293236	1,16025	325,9404	0,395	83,795	0	1016,24	6,9	9,1	8,8	1	1	1	1	1	1	1	1	1	0	1	-5,567301	274,061202	314,302537	0
15.01.2021	17:44:16	0	0	2,937477	1,359	325,9152	0,401	83,809	0	1016,3	6,9	9	8,8	1	1	1	1	1	1	1	1	1	0	1	-8,668076	274,111906	311,438544	0
15.01.2021	17:44:17	0	0	4,406216	1,701	327,8628	0,392	83,785	0	1016,44	6,9	9	8,8	1	1	1	1	1	1	1	1	1	0	1	-7,82241	274,231738	312,844334	0
15.01.2021	17:44:18	0	0	4,180256	1,99125	315,9216	0,395	83,808	0	1016,3	6,9	9,1	8,8	1	1	1	1	1	1	1	1	1	0	1	-11,275546	274,137308	308,949748	0
15.01.2021	17:44:19	0	0	4,180256	2,31525	308,8116	0,395	83,814	0	1016,24	6,9	9,1	8,8	1	1	1	1	1	1	1	1	1	0	1	-8,45666	274,182217	311,978522	0
15.01.2021	17:44:20	0	0	2,824497	2,5935	304,6896	0,403	83,809	0	1016,16	6,9	9,1	8,8	1	1	1	1	1	1	1	1	1	0	1	-12,544045	274,206211	308,003319	0
15.01.2021	17:44:21	0	0	4,971115	2,88675	291,4992	0,398	83,809	0	1016,18	6,9	9,1	8,8	1	1	1	1	1	1	1	1	1	0	1	-10,147992	274,19571	310,350272	0
15.01.2021	17:44:22	0	0	2,372578	3,03975	327,546	0,398	83,807	0	1016,22	6,9	9	8,8	1	1	1	1	1	1	1	1	1	0	1	-11,557435	274,225728	309,081202	0
15.01.2021	17:44:23	0	0	3,389397	2,84475	332,4672	0,391	83,807	0	1016,32	6,9	9,1	8,8	1	1	1	1	1	1	1	1	1	0	1	-6,483439	274,19721	314,021837	0
15.01.2021	17:44:24	0	0	2,824497	2,643	354,7116	0,394	83,809	0	1016,28	6,9	9	8,8	1	1	1	1	1	1	1	1	1	0	1	-8,879493	274,105934	311,199231	0
15.01.2021	17:44:25	0	0	3,163437	2,54175	339,8328	0,392	83,802	0	1016,34	6,9	9	8,8	1	1	1	1	1	1	1	1	1	0	1	-10,500352	274,185214	309,948843	0
15.01.2021	17:44:26	0	0	4,971115	2,57025	348,2748	0,396	83,808	0	1016,36	6,9	9	8,8	1	1	1	1	1	1	1	1	1	0	1	-12,896406	274,20021	307,622897	0
15.01.2021	17:44:27	0	0	4,406216	2,60175	341,6688	0,388	83,802	0	1016,38	7	9,1	8,8	1	1	1	1	1	1	1	1	1	0	1	-7,82241	274,099963	312,228428	0
15.01.2021	17:44:28	0	0	2,937477	2,5905	342,8424	0,392	83,795	0	1016,36	6,9	9	8,8	1	1	1	1	1	1	1	1	1	0	1	-10,007047	274,186713	310,449156	0
15.01.2021	17:44:29	0	0	3,954296	2,5305	333,4572	0,393	83,802	0	1016,38	6,9	9	8,8	1	1	1	1	1	1	1	1	1	0	1	-8,80902	274,225728	311,829617	0
15.01.2021	17:44:30	0	0	3,050457	2,58	329,652	0,393	83,796	0	1016,32	6,9	9	8,8	1	1	1	1	1	1	1	1	1	0	1	-8,80902	274,104441	311,262731	0
15.01.2021	17:44:31	0	0	2,711517	2,59875	331,506	0,393	83,793	0	1016,38	6,9	9	8,8	1	1	1	1	1	1	1	1	1	0	1	-12,191684	274,224226	308,439928	0
15.01.2021	17:44:32	0	0	4,519195	2,5125	336,6612	0,392	83,782	0	1016,2	6,9	9	8,8	1	1	1	1	1	1	1	1	1	0	1	-7,540521	274,191211	312,936709	0
15.01.2021	17:44:33	0	0	4,632175	2,4105	340,9236	0,393	83,811	0	1016,36	6,9	9,1	8,8	1	1	1	1	1	1	1	1	1	0	1	-9,513742	274,222724	311,110846	0
15.01.2021	17:44:34	0	0	4,519195	2,31675	340,5888	0,394	83,807	0	1016,26	6,9	9	8,8	1	1	1	1	1	1	1	1	1	0	1	-8,738548	274,180718	311,689627	0
15.01.2021	17:44:35	0	0	4,293236	2,298	334,9152	0,394	83,803	0	1016,16	6,9	9	8,8	1	1	1	1	1	1	1	1	1	0	1	-9,161381	274,209212	311,400018	0
15.01.2021	17:44:36	0	0	2,937477	2,256	332,046	0,389	83,792	0	1016,42	6,9	9	8,8	1	1	1	1	1	1	1	1	1	0	1	-8,527132	274,096979	311,509768	0
15.01.2021	17:44:37	0	0	2,711517	2,09325	330,3612	0,392	83,801	0	1016,38	6,9	9	8,8	1	1	1	1	1	1	1	1	1	0	1	-7,892882	274,056734	311,9561	0
15.01.2021	17:44:38	0	0	2,598537	2,08725	313,218	0,39	83,809	0	1016,32	6,9	9	8,8	1	1	1	1	1	1	1	1	1	0	1	-6,342495	274,062691	313,534297	0
15.01.2021	17:44:39	0	0	4,519195	2,06025	338,7888	0,394	83,821	0	1016,38	6,9	9,1	8,8	1	1	1	1	1	1	1	1	1	0	1	-9,161381	274,158252	311,161786	0
15.01.2021	17:44:40	0	0	4,067276	2,103	326,304	0,393	83,818	0	1016,3	6,9	9	8,8	1	1	1	1	1	1	1	1	1	0	1	-10,42988	274,032925	309,307967	0
15.01.2021	17:44:41	0	0	3,954296	2,1045	333,4428	0,39	83,805	0	1016,26	6,9	9	8,8	1	1	1	1	1	1	1	1	1	0	1	-8,386187	274,105934	311,692536	0
15.01.2021	17:44:42	0	0	4,406216	1,96275	330,1056	0,39	83,795	0	1016,2	6,9	9	8,8	1	1	1	1	1	1	1	1	1	0	1	-12,332629	274,207712	308,221753	0
15.01.2021	17:44:43	0	0	3,615356	1,93125	337,1148	0,388	83,811	0	1016,38	6,9	9	8,8	1	1	1	1	1	1	1	1	1	0	1	-7,610994	274,043338	312,175455	0
15.01.2021	17:44:44	0	0	4,406216	1,9005	337,4928	0,385	83,811	0	1016,34	6,9	9	8,8	1	1	1	1	1	1	1	1	1	0	1	-9,161381	274,135813	311,056926	0
15.01.2021	17:44:45	0	0	4,180256	1,89075	334,6092	0,386	83,819	0	1016,24	6,9	9	8,8	1	1	1	1	1	1	1	1	1	0	1	-7,681466	274,038875	312,08415	0
15.01.2021	17:44:46	0	0	3,954296	2,01075	330,2892	0,389	83,819	0	1016,3	6,9	9	8,8	1	1	1	1	1	1	1	1	1	0	1	-7,470049	274,183716	312,972139	0
15.01.2021	17:44:47	0	0	4,180256	2,05725	336,7872	0,391	83,825	0	1016,32	7	9	8,8	1	1	1	1	1	1	1	1	1	0	1	-10,288936	274,243762	310,434053	0
15.01.2021	17:44:48	0	0	3,954296	2,02125	333,4572	0,394	83,811	0	1016,28	6,9	9	8,8	1	1	1	1	1	1	1	1	1	0	1	-15,292459	274,144785	304,967774	0
15.01.2021	17:44:49	0	0	3,163437	2,001	333,8424	0,393	83,816	0	1016,3	6,9	9	8,8	1	1	1	1	1	1	1	1	1	0	1	-8,738548	274,07163	311,179978	0
15.01.2021	17:44:50	0	0	3,050457	1,887	332,7876	0,383	83,804	0	1016,14	6,9	9	8,8	1	1	1	1	1	1	1	1	1	0	1	-10,711769	274,191211	309,765461	0
15.01.2021	17:44:51	0	0	4,745155	1,78575	340,218	0,388	83,811	0	1016,38	6,9	9	8,8	1	1	1	1	1	1	1	1	1	0	1	-6,483439	274,110413	313,616206	0
15.01.2021	17:44:52	0	0	4,067276	1,686	330,7212	0,388	83,822	0	1016,22	6,9	9	8,8	1	1	1	1	1	1	1	1	1	0	1	-7,329105	274,23324	313,344667	0
15.01.2021	17:44:53	0	0	4,632175	1,72575	330,012	0,392	83,82	0	1016,38	6,9	9	8,8	1	1	1	1	1	1	1	1	1	0	1	-10,288936	274,140298	309,950332	0
15.01.2021	17:44:54	0	0	2,598537	1,692	342,2916	0,388	83,825	0	1016,32	6,9	9	8,8	1	1	1	1	1	1	1	1	1	0	1	-9,302326	274,228733	311,350364	0
15.01.2021	17:44:55	0	0	4,067276	1,63575	351,0792	0,386	83,796	0	1016,3	6,9	9	8,8	1	1	1	1	1	1	1	1	1	0	1	-10,500352	274,135813	309,717955	0
15.01.2021	17:44:56	0	0	2,824497	1,5855	344,628	0,386	83,807	0	1016,32	6,9	9	8,8	1	1	1	1	1	1	1	1	1	0	1	-13,248767	274,224226	307,382845	0
15.01.2021	17:44:57	0	0	2,033638	1,59525	326,2968	0,386	83,82	0	1016,34	6,9	9	8,8	1	1	1	1	1	1	1	1	1	0	1	-8,668076	274,146281	311,599148	0
15.01.2021	17:44:58	0	0	2,824497	1,6155	326,6892	0,387	83,806	0	1016,42	6,9	9	8,8	1	1	1	1	1	1	1	1	1	0	1	-9,513742	274,0359	310,237988	0
15.01.2021	17:44:59	0	0	3,163437	1,65075	331,5636	0,38	83,812	0	1016,28	6,9	9	8,8	1	1	1	1	1	1	1	1	1	0	1	-6,20155	274,046314	313,59879	0
15.01.2021	17:45:00	0	0	3,954296	1,584	321,0516	0,386	83,819	0	1016,32	6,9	9	8,8	1	1	1	1	1	1	1	1	1	0	1	-13,107822	274,083555	306,866385	0
15.01.2021	17:45:01	0	0	2,259598	1,46775	318,1644	0,391	83,807	0	1016,42	6,9	9	8,8	1	1	1	1	1	1	1	1	1	0	1	-11,486963	274,052268	308,341169	0
15.01.2021	17:45:02	0	0	4,519195	1,404	324,09	0,391	83,818	0	1016,26	6,9	9	8,8	1	1	1	1	1	1	1	1	1	0	1	-6,694856	274,20021	313,824447	0
15.01.2021	17:45:03	0	0	5,310055	1,35675	325,512	0,382	83,802	0	1016,28	6,9	9	8,8	1	1	1	1	1	1	1	1	1	0	1	-13,460183	274,158252	306,862984	0
15.01.2021	17:45:04	0	0	2,937477	1,3305	328,5072	0,382	83,812	0	1016,3	7	9	8,8	1	1	1	1	1	1	1	1	1	0	1	-8,668076	274,183716	311,774112	0
15.01.2021	17:45:05	0	0	3,276417	1,329	331,4664	0,391	83,822	0	1016,24	6,9	9	8,8	1	1	1	1	1	1	1	1	1	0	1	-9,231853	274,158252	311,091314	0
15.01.2021	17:45:06	0	0	2,711517	1,32825	325,116	0,385	83,824	0	1016,12	6,9	9	8,8	1	1	1	1	1	1	1	1	1	0	1	-7,892882	274,046314	311,907458	0
15.01.2021	17:45:07	0	0	4,745155	1,32975	323,37	0,382	83,811	0	1016,26	6,9	9	8,8	1	1	1	1	1	1	1	1	1	0	1	-9,302326	274,152266	310,992865	0
15.01.2021	17:45:08	0	0	4,971115	1,33725	327,4056	0,383	83,826	0	1016,16	6,9	9	8,8	1	1	1	1	1	1	1	1	1	0	1	-8,104299	274,050779	311,716884	0
15.01.2021	17:45:09	0	0	4,067276	1,35675	331,0308	0,386	83,824	0	1016,36	6,9	9	8,8	1	1	1	1	1	1	1	1	1	0	1	-9,302326	274,092503	310,713671	0
15.01.2021	17:45:10	0	0	4,180256	1,374	334,1232	0,383	83,811	0	1016,18	7	9	8,8	1	1	1	1	1	1	1	1	1	0	1	-5,778717	274,080573	314,181566	0
15.01.2021	17:45:11	0	0	2,146618	1,39575	323,694	0,387	83,833	0	1016,2	6,9	9	8,8	1	1	1	1	1	1	1	1	1	0	1	-8,738548	274,06567	311,152152	0
15.01.2021	17:45:12	0	0	2,937477	1,42125	321,3792	0,383	83,846	0	1016,34	6,9	9	8,8	1	1	1	1	1	1	1	1	1	0	1	-9,584214	274,20321	310,949118	0
15.01.2021	17:45:13	0	0	3,615356	1,4775	329,3316	0,385	83,831	0	1016,4	7	9	8,8	1	1	1	1	1	1	1	1	1	0	1	-13,107822	274,219721	307,502719	0
15.01.2021	17:45:14	0	0	3,954296	1,479	321,804	0,386	83,816	0	1016,26	7	9	8,8	1	1	1	1	1	1	1	1	1	0	1	-13,742072	274,186713	306,714131	0
15.01.2021	17:45:15	0	0	4,406216	1,4685	326,7216	0,382	83,828	0	1016,32	6,9	9	8,8	1	1	1	1	1	1	1	1	1	0	1	-7,681466	274,086537	312,306669	0
15.01.2021	17:45:16	0	0	3,954296	1,473	330,786	0,38	83,827	0	1016,26	6,9	9	8,8	1	1	1	1	1	1	1	1	1	0	1	-10,147992	274,080573	309,812292	0
15.01.2021	17:45:17	0	0	2,711517	1,449	339,84	0,385	83,838	0	1016,34	6,9	9	8,8	1	1	1	1	1	1	1	1	1	0	1	-12,05074	274,215217	308,538736	0
15.01.2021	17:45:18	0	0	4,067276	1,431	339,4764	0,381	83,838	0	1016,38	6,9	9	8,8	1	1	1	1	1	1	1	1	1	0	1	-10,641297	274,092503	309,3747	0
15.01.2021	17:45:19	0	0	4,632175	1,356	348,0624	0,383	83,832	0	1016,28	7	9	8,8	1	1	1	1	1	1	1	1	1	0	1	-10,570825	274,046314	309,229516	0
15.01.2021	17:45:20	0	0	4,632175	1,24425	349,5384	0,384	83,829	0	1016,22	7	9	8,8	1	1	1	1	1	1	1	1	1	0	1	-8,45666	274,177721	311,957506	0
15.01.2021	17:45:21	0	0	3,615356	1,188	343,9548	0,374	83,842	0	1016,18	6,9	9	8,8	1	1	1	1	1	1	1	1	1	0	1	-8,527132	274,082064	311,440113	0
15.01.2021	17:45:22	0	0	4,406216	1,19175	328,554	0,383	83,844	0	1016,3	6,9	9	8,8	1	1	1	1	1	1	1	1	1	0	1	-6,624383	274,126844	313,552022	0
15.01.2021	17:45:23	0	0	3,841316	1,2435	327,7872	0,378	83,844	0	1016,18	7	9	8,8	1	1	1	1	1	1	1	1	1	0	1	-9,020437	274,053757	310,814644	0
15.01.2021	17:45:24	0	0	2,824497	1,296	329,5404	0,381	83,838	0	1016,26	6,9	9	8,8	1	1	1	1	1	1	1	1	1	0	1	-11,41649	274,034413	308,328298	0
15.01.2021	17:45:25	0	0	3,841316	1,2885	341,9676	0,378	83,857	0	1016,3	7	9	8,8	1	1	1	1	1	1	1	1	1	0	1	-10,147992	274,153762	310,154192	0
15.01.2021	17:45:26	0	0	2,711517	1,25025	339,7968	0,38	83,846	0	1016,38	6,9	9	8,8	1	1	1	1	1	1	1	1	1	0	1	-13,953488	274,216718	306,643009	0
15.01.2021	17:45:27	0	0	2,824497	1,185	323,4168	0,382	83,851	0	1016,24	6,9	9	8,8	1	1	1	1	1	1	1	1	1	0	1	-10,711769	274,06716	309,185887	0
15.01.2021	17:45:28	0	0	2,937477	1,14975	333,1404	0,382	83,857	0	1016,34	6,9	9	8,8	1	1	1	1	1	1	1	1	1	0	1	-8,315715	274,076101	311,623686	0
15.01.2021	17:45:29	0	0	2,598537	1,12575	339,8148	0,38	83,857	0	1016,36	7	9	8,8	1	1	1	1	1	1	1	1	1	0	1	-9,513742	274,177721	310,900424	0
15.01.2021	17:45:30	0	0	2,937477	1,107	328,122	0,378	83,848	0	1016,38	6,9	9,1	8,8	1	1	1	1	1	1	1	1	1	0	1	-12,614517	274,049291	307,199717	0
15.01.2021	17:45:31	0	0	4,406216	1,0455	336,3372	0,373	83,854	0	1016,24	6,9	9	8,8	1	1	1	1	1	1	1	1	1	0	1	-14,235377	274,114893	305,885194	0
15.01.2021	17:45:32	0	0	5,310055	1,0155	336,798	0,379	83,859	0	1016,3	6,9	9	8,8	1	1	1	1	1	1	1	1	1	0	1	-7,681466	274,06567	312,209235	0
15.01.2021	17:45:33	0	0	4,858135	0,96675	317,4552	0,379	83,854	0	1016,2	6,9	9	8,8	1	1	1	1	1	1	1	1	1	0	1	-11,768851	274,120867	308,379632	0
15.01.2021	17:45:34	0	0	3,050457	0,918	318,456	0,38	83,864	0	1016,26	6,9	9	8,8	1	1	1	1	1	1	1	1	1	0	1	-14,094433	274,215217	306,495044	0
15.01.2021	17:45:35	0	0	4,293236	0,90975	323,7552	0,381	83,845	0	1016,24	7	9	8,8	1	1	1	1	1	1	1	1	1	0	1	-10,923185	274,152266	309,372005	0
15.01.2021	17:45:36	0	0	5,310055	0,912	303,516	0,381	83,842	0	1016,3	7	9	8,8	1	1	1	1	1	1	1	1	1	0	1	-11,486963	274,228733	309,165726	0
15.01.2021	17:45:37	0	0	4,745155	0,90675	298,9944	0,379	83,871	0	1016,26	6,9	9	8,8	1	1	1	1	1	1	1	1	1	0	1	-7,751938	274,189712	312,718282	0
15.01.2021	17:45:38	0	0	2,372578	0,8925	310,6224	0,378	83,868	0	1016,28	6,9	9	8,8	1	1	1	1	1	1	1	1	1	0	1	-7,258633	274,052268	312,569499	0
15.01.2021	17:45:39	0	0	3,954296	0,94575	307,1628	0,38	83,867	0	1016,28	6,9	9	8,8	1	1	1	1	1	1	1	1	1	0	1	-13,812544	274,20021	306,706759	0
15.01.2021	17:45:40	0	0	2,485558	0,948	305,4348	0,375	83,847	0	1016,18	7	9	8,8	1	1	1	1	1	1	1	1	1	0	1	-7,681466	274,19871	312,830823	0
15.01.2021	17:45:41	0	0	3,502376	0,921	307,2492	0,374	83,873	0	1016,42	7	9	8,8	1	1	1	1	1	1	1	1	1	0	1	-9,302326	274,037387	310,456347	0
15.01.2021	17:45:42	0	0	4,406216	0,92175	305,4672	0,377	83,889	0	1016,3	6,9	9	8,8	1	1	1	1	1	1	1	1	1	0	1	-13,953488	274,107427	306,132208	0
15.01.2021	17:45:43	0	0	3,615356	0,91275	305,7516	0,402	83,872	0	1016,42	7	9	8,8	1	1	1	1	1	1	1	1	1	0	1	-7,470049	274,227231	313,175613	0
15.01.2021	17:45:44	0	0	4,519195	0,879	318,42	0,38	83,88	0	1016,34	7	9	8,8	1	1	1	1	1	1	1	1	1	0	1	-9,161381	274,23324	311,512391	0
15.01.2021	17:45:45	0	0	4,858135	0,84675	314,8416	0,375	83,865	0	1016,22	7	9	8,8	1	1	1	1	1	1	1	1	1	0	1	-9,090909	274,053757	310,744172	0
15.01.2021	17:45:46	0	0	2,485543	0,8625	312,606	0,374	83,882	0	1016,12	6,9	9	8,9	1	1	1	1	1	1	1	1	1	0	1	-6,060606	274,140298	314,178662	0
15.01.2021	17:45:47	0	0	3,163456	0,8265	319,1688	0,382	83,889	0	1016,42	6,9	9	8,7	1	1	1	1	1	1	1	1	1	0	1	-9,090909	274,046314	310,709431	0
15.01.2021	17:45:48	0	0	3,502376	0,84375	325,1736	0,376	83,89	0	1016,44	6,9	9	8,8	1	1	1	1	1	1	1	1	1	0	1	-10,500352	274,135813	309,717955	0
15.01.2021	17:45:49	0	0	3,389397	0,78675	331,9992	0,38	83,884	0	1016,32	6,9	9	8,8	1	1	1	1	1	1	1	1	1	0	1	-11,41649	274,231738	309,250253	0
15.01.2021	17:45:50	0	0	3,050457	0,7545	336,8088	0,376	83,896	0	1016,36	7	9	8,8	1	1	1	1	1	1	1	1	1	0	1	-10,359408	274,111906	309,747212	0
15.01.2021	17:45:51	0	0	3,389397	0,7275	332,3448	0,377	83,898	0	1016,3	7	9	8,8	1	1	1	1	1	1	1	1	1	0	1	-10,288936	274,050779	309,532247	0
15.01.2021	17:45:52	0	0	3,728336	0,7485	324,396	0,375	83,892	0	1016,38	7	9	8,8	1	1	1	1	1	1	1	1	1	0	1	-9,161381	274,182217	311,2738	0
15.01.2021	17:45:53	0	0	4,180256	0,71925	329,67	0,376	83,889	0	1016,26	7	9	8,8	1	1	1	1	1	1	1	1	1	0	1	-13,389711	274,180718	307,038465	0
15.01.2021	17:45:54	0	0	4,067276	0,70575	345,7512	0,376	83,902	0	1016,36	6,9	9	8,8	1	1	1	1	1	1	1	1	1	0	1	-10,641297	274,219721	309,969245	0
15.01.2021	17:45:55	0	0	4,406216	0,723	351,0072	0,374	83,894	0	1016,14	7	9	8,8	1	1	1	1	1	1	1	1	1	0	1	-11,134602	274,17922	309,286569	0
15.01.2021	17:45:56	0	0	4,519195	0,717	332,73	0,392	83,908	0	1016,38	7	9	8,8	1	1	1	1	1	1	1	1	1	0	1	-7,470049	274,221223	313,147515	0
15.01.2021	17:45:57	0	0	3,615356	0,69975	326,6784	0,368	83,896	0	1016,36	6,9	9	8,8	1	1	1	1	1	1	1	1	1	0	1	-10,007047	274,088029	309,988052	0
15.01.2021	17:45:58	0	0	4,519195	0,71325	331,1172	0,369	83,898	0	1016,5	6,9	9	8,8	1	1	1	1	1	1	1	1	1	0	1	-14,517266	274,131328	305,680088	0
15.01.2021	17:45:59	0	0	2,824514	0,717	336,0816	0,378	83,913	0	1016,34	6,9	9	8,7	1	1	1	1	1	1	1	1	1	0	1	-5,708245	274,047803	314,099042	0
15.01.2021	17:46:00	0	0	2,937477	0,684	328,95	0,379	83,888	0	1016,32	7	9	8,8	1	1	1	1	1	1	1	1	1	0	1	-6,553911	274,170231	313,825242	0
15.01.2021	17:46:01	0	0	2,937477	0,684	328,95	0,379	83,888	0	1016,32	7	9	8,8	1	1	1	1	1	1	1	1	1	0	1	-8,668076	274,20021	311,851227	0
15.01.2021	17:46:02	0	0	3,050457	0,64125	322,8696	0,371	83,904	0	1016,34	6,9	9	8,8	1	1	1	1	1	1	1	1	1	0	1	-14,799154	274,237749	305,895706	0
15.01.2021	17:46:03	0	0	3,615378	0,6375	321,4188	0,373	83,908	0	1016,14	7	9	8,7	1	1	1	1	1	1	1	1	1	0	1	-7,047216	274,180718	313,380959	0
15.01.2021	17:46:04	0	0	3,276417	0,582	325,0764	0,374	83,909	0	1016,3	7	9	8,8	1	1	1	1	1	1	1	1	1	0	1	-6,272023	274,050779	313,54916	0
15.01.2021	17:46:05	0	0	2,598522	0,54825	327,1212	0,375	83,899	0	1016,44	7	9	8,9	1	1	1	1	1	1	1	1	1	0	1	-14,164905	274,107427	305,920792	0
15.01.2021	17:46:06	0	0	3,728336	0,57975	327,0672	0,375	83,894	0	1016,24	6,9	9	8,8	1	1	1	1	1	1	1	1	1	0	1	-16,27907	274,053757	303,556011	0
15.01.2021	17:46:07	0	0	3,502376	0,594	324,738	0,376	83,912	0	1016,4	6,9	9	8,8	1	1	1	1	1	1	1	1	1	0	1	-5,778717	274,221223	314,838847	0
15.01.2021	17:46:08	0	0	2,711517	0,6075	324,2988	0,372	83,911	0	1016,08	7	9	8,8	1	1	1	1	1	1	1	1	1	0	1	-13,953488	274,126844	306,222917	0
15.01.2021	17:46:09	0	0	4,406216	0,603	328,5432	0,374	83,907	0	1016,38	7	9	8,8	1	1	1	1	1	1	1	1	1	0	1	-11,205074	274,216718	309,391423	0
15.01.2021	17:46:10	0	0	4,519195	0,621	333,7812	0,369	83,905	0	1016,12	7	9	8,8	1	1	1	1	1	1	1	1	1	0	1	-11,839323	274,105934	308,2394	0
15.01.2021	17:46:11	0	0	4,858106	0,6465	333,1404	0,37	83,906	0	1016,2	6,9	9	8,9	1	1	1	1	1	1	1	1	1	0	1	-9,231853	274,050779	310,589329	0
15.01.2021	17:46:12	0	0	3,276417	0,63825	330,8364	0,378	83,907	0	1016,24	7	9	8,8	1	1	1	1	1	1	1	1	1	0	1	-12,262156	274,06865	307,642455	0
15.01.2021	17:46:13	0	0	4,632175	0,63825	323,7264	0,375	83,924	0	1016,36	6,9	9	8,8	1	1	1	1	1	1	1	1	1	0	1	-9,302326	274,113399	310,81127	0
15.01.2021	17:46:14	0	0	2,598553	0,67875	315,234	0,371	83,918	0	1016,22	7	9	8,7	1	1	1	1	1	1	1	1	1	0	1	-11,627907	274,059713	308,234979	0
15.01.2021	17:46:15	0	0	2,485558	0,687	320,3316	0,372	83,917	0	1016,32	7	9	8,8	1	1	1	1	1	1	1	1	1	0	1	-13,460183	274,119373	306,681321	0
15.01.2021	17:46:16	0	0	2,598537	0,6915	326,8044	0,366	83,919	0	1016,22	6,9	9	8,8	1	1	1	1	1	1	1	1	1	0	1	-10,007047	274,049291	309,807187	0
15.01.2021	17:46:17	0	0	3,615378	0,663	322,6356	0,369	83,9	0	1016,08	7	9	8,7	1	1	1	1	1	1	1	1	1	0	1	-12,825934	274,105934	307,25279	0
15.01.2021	17:46:18	0	0	4,632175	0,61425	311,7708	0,374	83,918	0	1016,22	7	9	8,8	1	1	1	1	1	1	1	1	1	0	1	-7,047216	274,053757	312,787865	0
15.01.2021	17:46:19	0	0	3,050475	0,5805	302,4036	0,358	83,915	0	1016,28	7	9	8,7	1	1	1	1	1	1	1	1	1	0	1	-11,486963	274,076101	308,452439	0
15.01.2021	17:46:20	0	0	4,406242	0,5685	303,156	0,367	83,926	0	1016,36	6,9	9	8,7	1	1	1	1	1	1	1	1	1	0	1	-9,725159	274,227231	310,920504	0
15.01.2021	17:46:21	0	0	4,519223	0,55125	314,0316	0,369	83,926	0	1016,22	7	9	8,7	1	1	1	1	1	1	1	1	1	0	1	-11,909796	274,224226	308,721817	0
15.01.2021	17:46:22	0	0	3,163418	0,57825	323,7048	0,365	83,903	0	1016,28	7	9	8,9	1	1	1	1	1	1	1	1	1	0	1	-11,134602	274,104441	308,93715	0
15.01.2021	17:46:23	0	0	2,485572	0,561	323,622	0,371	83,924	0	1016,24	7	9	8,7	1	1	1	1	1	1	1	1	1	0	1	-10,288936	274,215217	310,30054	0
15.01.2021	17:46:24	0	0	3,95432	0,57	320,7816	0,364	83,924	0	1016,34	7	9	8,7	1	1	1	1	1	1	1	1	1	0	1	-9,936575	274,099963	310,114263	0
15.01.2021	17:46:25	0	0	2,146631	0,5565	322,1316	0,37	83,927	0	1016,34	6,9	9	8,7	1	1	1	1	1	1	1	1	1	0	1	-10,923185	274,227231	309,722477	0
15.01.2021	17:46:26	0	0	4,745184	0,55275	323,0604	0,366	83,923	0	1016,2	7	9	8,7	1	1	1	1	1	1	1	1	1	0	1	-8,597604	274,140298	311,641664	0
15.01.2021	17:46:27	0	0	3,163418	0,5505	322,848	0,368	83,925	0	1016,28	7	9	8,9	1	1	1	1	1	1	1	1	1	0	1	-8,245243	274,216718	312,351254	0
15.01.2021	17:46:28	0	0	3,954296	0,522	324,0216	0,37	83,937	0	1016,24	6,9	9	8,8	1	1	1	1	1	1	1	1	1	0	1	-6,060606	274,218219	314,542913	0
15.01.2021	17:46:29	0	0	3,163456	0,50625	325,1592	0,37	83,941	0	1016,36	7	9	8,7	1	1	1	1	1	1	1	1	1	0	1	-5,355884	274,134318	314,855438	0
15.01.2021	17:46:30	0	0	2,598537	0,53625	325,6992	0,366	83,918	0	1016,32	6,9	9	8,8	1	1	1	1	1	1	1	1	1	0	1	-11,768851	274,221223	308,848713	0
15.01.2021	17:46:31	0	0	4,406242	0,60225	325,2096	0,362	83,94	0	1016,22	7	9	8,7	1	1	1	1	1	1	1	1	1	0	1	-8,668076	274,085046	311,313095	0
15.01.2021	17:46:32	0	0	4,180281	0,62775	323,6904	0,368	83,941	0	1016,36	7	9	8,7	1	1	1	1	1	1	1	1	1	0	1	-7,470049	274,08952	312,532015	0
15.01.2021	17:46:33	0	0	3,615356	0,66825	322,6284	0,367	83,935	0	1016,28	6,9	9	8,8	1	1	1	1	1	1	1	1	1	0	1	-13,530655	274,038875	306,23496	0
15.01.2021	17:46:34	0	0	3,841293	0,66375	325,4148	0,369	83,952	0	1016,3	7	9	8,9	1	1	1	1	1	1	1	1	1	0	1	-7,188161	274,104441	312,883591	0
15.01.2021	17:46:35	0	0	3,615356	0,66075	329,6556	0,361	83,934	0	1016	7	9	8,8	1	1	1	1	1	1	1	1	1	0	1	-12,614517	274,224226	308,017095	0
15.01.2021	17:46:36	0	0	3,502398	0,66525	330,3612	0,359	83,948	0	1016,28	7	9	8,7	1	1	1	1	1	1	1	1	1	0	1	-13,03735	274,074611	306,895092	0
15.01.2021	17:46:37	0	0	3,163456	0,7215	322,2576	0,366	83,942	0	1016,36	7	9	8,7	1	1	1	1	1	1	1	1	1	0	1	-10,923185	274,221223	309,694379	0
15.01.2021	17:46:38	0	0	4,745155	0,73275	322,1532	0,367	83,955	0	1016,24	7	9	8,8	1	1	1	1	1	1	1	1	1	0	1	-8,315715	274,189712	312,154505	0
15.01.2021	17:46:39	0	0	3,615378	0,71775	328,5684	0,366	83,948	0	1016,26	7	9	8,7	1	1	1	1	1	1	1	1	1	0	1	-6,342495	274,129833	313,847875	0
15.01.2021	17:46:40	0	0	3,163437	0,72525	326,4156	0,367	83,943	0	1016,24	6,9	9	8,8	1	1	1	1	1	1	1	1	1	0	1	-9,090909	274,053757	310,744172	0
15.01.2021	17:46:41	0	0	4,180256	0,70575	324,2196	0,365	83,94	0	1016,34	7	9	8,8	1	1	1	1	1	1	1	1	1	0	1	-13,03735	274,191211	307,43988	0
15.01.2021	17:46:42	0	0	2,598537	0,68475	333,18	0,363	83,944	0	1016,24	7	9	8,8	1	1	1	1	1	1	1	1	1	0	1	-11,627907	274,159749	308,702257	0
15.01.2021	17:46:43	0	0	4,745155	0,6	343,0764	0,363	83,968	0	1016,32	7	9	8,8	1	1	1	1	1	1	1	1	1	0	1	-14,587738	274,167235	305,777415	0
15.01.2021	17:46:44	0	0	4,406242	0,59325	345,8124	0,368	83,975	0	1016,46	7	9	8,7	1	1	1	1	1	1	1	1	1	0	1	-8,527132	274,222724	312,097456	0
15.01.2021	17:46:45	0	0	3,389417	0,609	334,5876	0,369	83,969	0	1016,46	7	9	8,7	1	1	1	1	1	1	1	1	1	0	1	-8,527132	274,079082	311,42619	0
15.01.2021	17:46:46	0	0	3,276417	0,573	326,3868	0,364	83,973	0	1016,36	7	9	8,8	1	1	1	1	1	1	1	1	1	0	1	-8,949965	274,189712	311,520256	0
15.01.2021	17:46:47	0	0	4,180281	0,5895	323,298	0,364	83,973	0	1016,3	7	9	8,7	1	1	1	1	1	1	1	1	1	0	1	-11,486963	274,192711	308,997278	0
15.01.2021	17:46:48	0	0	3,050439	0,61125	323,6832	0,365	83,97	0	1016,22	7	9	8,9	1	1	1	1	1	1	1	1	1	0	1	-10,147992	274,19421	310,34326	0
15.01.2021	17:46:49	0	0	3,276417	0,618	320,7888	0,366	83,961	0	1016,26	7	9	8,8	1	1	1	1	1	1	1	1	1	0	1	-14,023961	274,218219	306,579558	0
15.01.2021	17:46:50	0	0	4,293261	0,62925	322,992	0,367	83,959	0	1016,22	7	9	8,7	1	1	1	1	1	1	1	1	1	0	1	-14,376321	274,162743	305,967836	0
15.01.2021	17:46:51	0	0	4,745155	0,66825	317,3256	0,36	83,96	0	1016,22	7	9	8,8	1	1	1	1	1	1	1	1	1	0	1	-10,007047	274,17922	310,414123	0
15.01.2021	17:46:52	0	0	4,406189	0,6705	312,2316	0,362	83,955	0	1016,26	7	9	8,9	1	1	1	1	1	1	1	1	1	0	1	-13,6716	274,210713	306,896818	0
15.01.2021	17:46:53	0	0	4,632175	0,68475	320,0148	0,361	83,956	0	1016,28	7	9	8,8	1	1	1	1	1	1	1	1	1	0	1	-10,288936	274,192711	310,195305	0
15.01.2021	17:46:54	0	0	2,937477	0,71475	336,0996	0,362	83,976	0	1016,24	7	9	8,8	1	1	1	1	1	1	1	1	1	0	1	-7,188161	274,164241	313,162995	0
15.01.2021	17:46:55	0	0	2,824497	0,70875	335,3652	0,363	83,982	0	1016,36	7	9	8,8	1	1	1	1	1	1	1	1	1	0	1	-5,637773	274,209212	314,923626	0
15.01.2021	17:46:56	0	0	2,259611	0,7245	325,6056	0,361	83,988	0	1016,32	6,9	9	8,7	1	1	1	1	1	1	1	1	1	0	1	-11,980268	274,183716	308,46192	0
15.01.2021	17:46:57	0	0	3,95432	0,7305	316,6308	0,358	83,982	0	1016,24	7	9	8,7	1	1	1	1	1	1	1	1	1	0	1	-12,121212	274,07312	307,804272	0
15.01.2021	17:46:58	0	0	2,372578	0,735	322,9416	0,361	83,979	0	1016,2	7	9	8,8	1	1	1	1	1	1	1	1	1	0	1	-8,386187	274,06567	311,504513	0
15.01.2021	17:46:59	0	0	2,824497	0,7155	328,9392	0,365	83,975	0	1016,36	7	9	8,8	1	1	1	1	1	1	1	1	1	0	1	-10,500352	274,088029	309,494747	0
15.01.2021	17:47:00	0	0	3,050457	0,7185	331,4772	0,364	83,987	0	1016,3	7	9	8,8	1	1	1	1	1	1	1	1	1	0	1	-8,174771	274,06865	311,729841	0
15.01.2021	17:47:01	0	0	3,050457	0,7185	331,4772	0,364	83,987	0	1016,3	7	9	8,8	1	1	1	1	1	1	1	1	1	0	1	-10,570825	274,171729	309,81533	0
15.01.2021	17:47:02	0	0	3,389376	0,6945	328,9356	0,362	83,99	0	1016,24	6,9	9	8,9	1	1	1	1	1	1	1	1	1	0	1	-10,641297	274,19571	309,856967	0
15.01.2021	17:47:03	0	0	2,711501	0,60975	328,2264	0,364	83,977	0	1016,24	7	9	8,9	1	1	1	1	1	1	1	1	1	0	1	-8,668076	274,168733	311,704077	0
15.01.2021	17:47:04	0	0	4,632148	0,58575	322,5528	0,356	83,992	0	1016,26	7	9	8,9	1	1	1	1	1	1	1	1	1	0	1	-8,879493	274,20021	311,63981	0
15.01.2021	17:47:05	0	0	2,485543	0,594	320,3784	0,355	83,982	0	1016,32	7	9	8,9	1	1	1	1	1	1	1	1	1	0	1	-9,302326	274,140298	310,936942	0
15.01.2021	17:47:06	0	0	2,372563	0,53325	321,4368	0,359	83,992	0	1016,28	7	9	8,9	1	1	1	1	1	1	1	1	1	0	1	-11,980268	274,044826	307,813126	0
15.01.2021	17:47:07	0	0	3,276417	0,5235	323,226	0,361	83,99	0	1016,24	7	9	8,8	1	1	1	1	1	1	1	1	1	0	1	-11,768851	274,153762	308,533333	0
15.01.2021	17:47:08	0	0	4,858135	0,50325	321,39	0,356	83,986	0	1016,12	7	9	8,8	1	1	1	1	1	1	1	1	1	0	1	-11,06413	274,047803	308,743157	0
15.01.2021	17:47:09	0	0	3,276397	0,4515	318,1248	0,364	84	0	1016,34	7	9	8,9	1	1	1	1	1	1	1	1	1	0	1	-7,117689	274,122361	313,037774	0
15.01.2021	17:47:10	0	0	3,615356	0,44175	316,9692	0,363	84,008	0	1016,32	6,9	9	8,8	1	1	1	1	1	1	1	1	1	0	1	-7,258633	274,215217	313,330843	0
15.01.2021	17:47:11	0	0	3,728359	0,474	314,8488	0,36	84,005	0	1016,14	7	9	8,7	1	1	1	1	1	1	1	1	1	0	1	-6,553911	274,07312	313,371573	0
15.01.2021	17:47:12	0	0	2,937459	0,46275	316,3356	0,366	83,994	0	1016,24	7	9	8,9	1	1	1	1	1	1	1	1	1	0	1	-12,825934	274,219721	307,784607	0
15.01.2021	17:47:13	0	0	4,180281	0,5475	319,5252	0,364	83,995	0	1016,28	7	9	8,7	1	1	1	1	1	1	1	1	1	0	1	-9,936575	274,128339	310,246812	0
15.01.2021	17:47:14	0	0	3,841316	0,612	316,2384	0,356	83,988	0	1016,14	7	9	8,8	1	1	1	1	1	1	1	1	1	0	1	-12,684989	274,215217	307,904487	0
15.01.2021	17:47:15	0	0	4,067276	0,5895	316,5768	0,359	83,994	0	1016,3	7	9	8,8	1	1	1	1	1	1	1	1	1	0	1	-10,147992	274,153762	310,154192	0
15.01.2021	17:47:16	0	0	2,937495	0,6	321,4728	0,361	83,993	0	1016,14	7	9	8,7	1	1	1	1	1	1	1	1	1	0	1	-5,778717	274,20021	314,740585	0
15.01.2021	17:47:17	0	0	4,745155	0,61875	320,7888	0,365	84,005	0	1016,34	7	9	8,8	1	1	1	1	1	1	1	1	1	0	1	-10,852713	274,167235	309,51244	0
15.01.2021	17:47:18	0	0	2,937477	0,59475	313,5564	0,363	84,016	0	1016,28	7	9	8,8	1	1	1	1	1	1	1	1	1	0	1	-8,033827	274,028464	311,683201	0
15.01.2021	17:47:19	0	0	4,858135	0,62475	312,2172	0,362	84,011	0	1016,32	7	9	8,8	1	1	1	1	1	1	1	1	1	0	1	-10,852713	274,092503	309,163283	0
15.01.2021	17:47:20	0	0	4,632175	0,59775	320,7636	0,357	84,014	0	1016,3	7	9	8,8	1	1	1	1	1	1	1	1	1	0	1	-15,151515	274,040363	304,621044	0
15.01.2021	17:47:21	0	0	4,293236	0,59325	331,506	0,358	84,01	0	1016,34	7	9	8,8	1	1	1	1	1	1	1	1	1	0	1	-12,614517	274,088029	307,380582	0
15.01.2021	17:47:22	0	0	3,389376	0,5625	333,4032	0,363	84,019	0	1016,4	7	9	8,9	1	1	1	1	1	1	1	1	1	0	1	-13,389711	274,037387	306,368961	0
15.01.2021	17:47:23	0	0	4,406242	0,53925	324,1404	0,363	84,015	0	1016,26	7	9	8,7	1	1	1	1	1	1	1	1	1	0	1	-7,047216	274,158252	313,275951	0
15.01.2021	17:47:24	0	0	2,598537	0,5415	315,4644	0,357	84,031	0	1016,28	7	9	8,8	1	1	1	1	1	1	1	1	1	0	1	-9,513742	274,024005	310,182472	0
15.01.2021	17:47:25	0	0	4,519195	0,567	314,7336	0,361	84,008	0	1016,24	7	9	8,8	1	1	1	1	1	1	1	1	1	0	1	-6,342495	274,137308	313,882799	0
15.01.2021	17:47:26	0	0	3,389417	0,579	321,5196	0,364	84,016	0	1016,22	7	9	8,7	1	1	1	1	1	1	1	1	1	0	1	-6,20155	274,219721	314,408991	0
15.01.2021	17:47:27	0	0	4,519223	0,6135	328,8564	0,357	84	0	1016,2	7	9	8,7	1	1	1	1	1	1	1	1	1	0	1	-7,117689	274,07312	312,807795	0
15.01.2021	17:47:28	0	0	2,937495	0,6675	325,1556	0,364	84,022	0	1016,32	7	9	8,7	1	1	1	1	1	1	1	1	1	0	1	-8,104299	274,08952	311,897765	0
15.01.2021	17:47:29	0	0	4,180281	0,6705	322,1532	0,361	84,026	0	1016,3	7	9	8,7	1	1	1	1	1	1	1	1	1	0	1	-11,627907	274,170231	308,751247	0
15.01.2021	17:47:30	0	0	4,293236	0,6555	323,298	0,364	84,026	0	1016,26	7	9	8,8	1	1	1	1	1	1	1	1	1	0	1	-6,624383	274,08952	313,377681	0
15.01.2021	17:47:31	0	0	2,711517	0,66375	322,8876	0,356	84,009	0	1016,18	7	9	8,8	1	1	1	1	1	1	1	1	1	0	1	-14,023961	274,222724	306,600627	0
15.01.2021	17:47:32	0	0	3,615378	0,65625	325,1196	0,356	84,012	0	1016,24	7	9	8,7	1	1	1	1	1	1	1	1	1	0	1	-10,782241	274,138803	309,450039	0
15.01.2021	17:47:33	0	0	4,067276	0,64575	324,7524	0,36	84,034	0	1016,34	7	9	8,8	1	1	1	1	1	1	1	1	1	0	1	-5,84919	274,212214	314,726247	0
15.01.2021	17:47:34	0	0	4,519195	0,6495	327,0924	0,36	84,031	0	1016,24	6,9	9	8,8	1	1	1	1	1	1	1	1	1	0	1	-9,090909	274,176223	311,316253	0
15.01.2021	17:47:35	0	0	2,598537	0,59625	332,7696	0,36	84,033	0	1016,3	7	9	8,8	1	1	1	1	1	1	1	1	1	0	1	-10,500352	274,046314	309,299988	0
15.01.2021	17:47:36	0	0	4,971115	0,621	336,6756	0,357	84,021	0	1016,32	7	9	8,8	1	1	1	1	1	1	1	1	1	0	1	-9,090909	274,153762	311,211275	0
15.01.2021	17:47:37	0	0	3,841316	0,57675	341,6112	0,36	84,032	0	1016,28	7	9	8,8	1	1	1	1	1	1	1	1	1	0	1	-6,20155	274,221223	314,416014	0
15.01.2021	17:47:38	0	0	4,632175	0,57375	347,6124	0,367	84,041	0	1016,34	7	9	8,8	1	1	1	1	1	1	1	1	1	0	1	-12,614517	274,212214	307,960919	0
15.01.2021	17:47:39	0	0	2,598537	0,52275	348,2568	0,355	84,023	0	1016,2	7	9	8,8	1	1	1	1	1	1	1	1	1	0	1	-8,45666	274,122361	311,698803	0
15.01.2021	17:47:40	0	0	3,841316	0,5265	346,5432	0,368	84,035	0	1016,3	7	9	8,8	1	1	1	1	1	1	1	1	1	0	1	-8,033827	274,20171	312,49249	0
15.01.2021	17:47:41	0	0	4,293261	0,51	348,2676	0,357	84,026	0	1016,22	7	9	8,7	1	1	1	1	1	1	1	1	1	0	1	-8,315715	274,052268	311,512416	0
15.01.2021	17:47:42	0	0	3,728314	0,4965	342,6444	0,363	84,039	0	1016,28	7	9	8,9	1	1	1	1	1	1	1	1	1	0	1	-7,470049	274,155259	312,839128	0
15.01.2021	17:47:43	0	0	4,858135	0,531	334,7244	0,352	84,038	0	1016,16	7	9	8,8	1	1	1	1	1	1	1	1	1	0	1	-10,782241	274,204711	309,758107	0
15.01.2021	17:47:44	0	0	4,067252	0,5685	337,4856	0,362	84,044	0	1016,32	7	9	8,9	1	1	1	1	1	1	1	1	1	0	1	-9,725159	274,206211	310,822206	0
15.01.2021	17:47:45	0	0	2,598537	0,5505	344,6676	0,358	84,045	0	1016,52	7	9	8,8	1	1	1	1	1	1	1	1	1	0	1	-13,460183	274,119373	306,681321	0
15.01.2021	17:47:46	0	0	3,502376	0,57375	351,3816	0,363	84,04	0	1016,28	6,9	9	8,8	1	1	1	1	1	1	1	1	1	0	1	-5,567301	274,055245	314,27473	0
15.01.2021	17:47:47	0	0	2,598537	0,52275	354,8736	0,362	84,035	0	1016,3	7	9	8,8	1	1	1	1	1	1	1	1	1	0	1	-9,020437	274,099963	311,030402	0
15.01.2021	17:47:48	0	0	3,389397	0,50475	359,8452	0,356	84,036	0	1016,28	6,9	9	8,8	1	1	1	1	1	1	1	1	1	0	1	-10,923185	274,019546	308,752222	0
15.01.2021	17:47:49	0	0	4,406216	0,5175	356,6376	0,358	84,044	0	1016,38	7	9	8,8	1	1	1	1	1	1	1	1	1	0	1	-11,134602	274,092503	308,881395	0
15.01.2021	17:47:50	0	0	2,259598	0,53025	345,0888	0,356	84,041	0	1016,18	7	9	8,8	1	1	1	1	1	1	1	1	1	0	1	-9,513742	274,040363	310,258817	0
15.01.2021	17:47:51	0	0	4,745155	0,5145	339,3612	0,359	84,042	0	1016,3	7	9	8,8	1	1	1	1	1	1	1	1	1	0	1	-8,104299	274,077591	311,842063	0
15.01.2021	17:47:52	0	0	4,858135	0,50025	349,1064	0,364	84,047	0	1016,36	7	9	8,8	1	1	1	1	1	1	1	1	1	0	1	-9,936575	274,221223	310,680989	0
15.01.2021	17:47:53	0	0	4,632175	0,46575	360	0,353	84,027	0	1016,1	7	9	8,8	1	1	1	1	1	1	1	1	1	0	1	-9,090909	274,122361	311,064553	0
15.01.2021	17:47:54	0	0	3,050457	0,4155	360	0,357	84,053	0	1016,22	7	9	8,8	1	1	1	1	1	1	1	1	1	0	1	-4,157858	274,053757	315,677223	0
15.01.2021	17:47:55	0	0	2,937477	0,38625	352,4832	0,359	84,039	0	1016,28	7	9	8,8	1	1	1	1	1	1	1	1	1	0	1	-12,684989	274,038875	307,080626	0
15.01.2021	17:47:56	0	0	4,406242	0,39675	345,0996	0,355	84,049	0	1016,38	7	9	8,7	1	1	1	1	1	1	1	1	1	0	1	-8,245243	274,168733	312,12691	0
15.01.2021	17:47:57	0	0	2,146618	0,402	342,4248	0,355	84,047	0	1016,16	7	9	8,8	1	1	1	1	1	1	1	1	1	0	1	-9,231853	274,04185	310,54765	0
15.01.2021	17:47:58	0	0	3,389397	0,42825	339,822	0,353	84,046	0	1016,16	7	9	8,8	1	1	1	1	1	1	1	1	1	0	1	-11,768851	274,19721	308,736425	0
15.01.2021	17:47:59	0	0	4,293236	0,44175	339,7644	0,351	84,048	0	1016,4	7	9	8,8	1	1	1	1	1	1	1	1	1	0	1	-9,584214	274,086537	310,40392	0
15.01.2021	17:48:00	0	0	2,711517	0,49725	343,458	0,359	84,048	0	1016,28	7	9	8,8	1	1	1	1	1	1	1	1	1	0	1	-10,359408	274,032925	309,378439	0
15.01.2021	17:48:01	0	0	2,711517	0,49725	343,458	0,359	84,048	0	1016,28	7	9	8,8	1	1	1	1	1	1	1	1	1	0	1	-11,205074	274,076101	308,734328	0
15.01.2021	17:48:02	0	0	4,067276	0,45975	339,8544	0,353	84,054	0	1016,36	7	9	8,8	1	1	1	1	1	1	1	1	1	0	1	-7,540521	274,165738	312,817632	0
15.01.2021	17:48:03	0	0	3,050457	0,47025	331,488	0,359	84,057	0	1016,38	7	9	8,8	1	1	1	1	1	1	1	1	1	0	1	-6,412967	274,059713	313,449919	0
15.01.2021	17:48:04	0	0	3,163437	0,42375	326,3364	0,355	84,055	0	1016,26	7	9	8,8	1	1	1	1	1	1	1	1	1	0	1	-5,778717	274,086537	314,209417	0
15.01.2021	17:48:05	0	0	2,372578	0,423	332,3916	0,357	84,044	0	1016,22	6,9	9	8,8	1	1	1	1	1	1	1	1	1	0	1	-6,765328	274,046314	313,035012	0
15.01.2021	17:48:06	0	0	4,519195	0,45525	340,8768	0,354	84,059	0	1016,32	7	9	8,8	1	1	1	1	1	1	1	1	1	0	1	-8,597604	274,085046	311,383567	0
15.01.2021	17:48:07	0	0	4,406216	0,48825	343,9296	0,361	84,054	0	1016,38	7	9	8,8	1	1	1	1	1	1	1	1	1	0	1	-9,161381	274,206211	311,385983	0
15.01.2021	17:48:08	0	0	3,276417	0,50325	339,0624	0,361	84,043	0	1016,34	7	9	8,8	1	1	1	1	1	1	1	1	1	0	1	-7,963354	274,159749	312,366809	0
15.01.2021	17:48:09	0	0	2,598537	0,501	334,9728	0,346	84,049	0	1016,22	7	9	8,8	1	1	1	1	1	1	1	1	1	0	1	-11,909796	274,029951	307,814171	0
15.01.2021	17:48:10	0	0	5,084095	0,5145	337,1508	0,356	84,044	0	1016,28	7	9	8,8	1	1	1	1	1	1	1	1	1	0	1	-14,65821	274,123856	305,504233	0
15.01.2021	17:48:11	0	0	4,745155	0,54375	346,5216	0,356	84,063	0	1016,38	7	9	8,8	1	1	1	1	1	1	1	1	1	0	1	-10,711769	274,20321	309,821563	0
15.01.2021	17:48:12	0	0	4,067276	0,552	355,7916	0,356	84,102	0	1016,7	7	9	8,8	1	1	1	1	1	1	1	1	1	0	1	-10,147992	274,170231	310,231162	0
15.01.2021	17:48:13	0	0	2,485558	0,534	355,0608	0,352	84,058	0	1016,34	6,9	9	8,8	1	1	1	1	1	1	1	1	1	0	1	-8,879493	274,20321	311,653839	0
15.01.2021	17:48:14	0	0	2,711517	0,50625	344,2284	0,354	84,059	0	1016,32	7	9	8,8	1	1	1	1	1	1	1	1	1	0	1	-8,245243	274,149273	312,035963	0
15.01.2021	17:48:15	0	0	3,954296	0,4755	331,1064	0,361	84,064	0	1016,26	7	9	8,8	1	1	1	1	1	1	1	1	1	0	1	-6,8358	274,227231	313,809863	0
15.01.2021	17:48:16	0	0	5,310055	0,477	320,346	0,357	84,054	0	1016,08	7	9	8,8	1	1	1	1	1	1	1	1	1	0	1	-12,262156	274,167235	308,102997	0
15.01.2021	17:48:17	0	0	2,82448	0,5445	316,6704	0,356	84,058	0	1016,32	6,9	9	8,9	1	1	1	1	1	1	1	1	1	0	1	-12,403101	274,034413	307,341688	0
15.01.2021	17:48:18	0	0	4,519195	0,5895	324,0576	0,359	84,054	0	1016,24	7	9	8,8	1	1	1	1	1	1	1	1	1	0	1	-8,315715	274,06716	311,581941	0
15.01.2021	17:48:19	0	0	3,728336	0,62925	338,3784	0,36	84,069	0	1016,26	7	9	8,8	1	1	1	1	1	1	1	1	1	0	1	-10,42988	274,06567	309,46082	0
15.01.2021	17:48:20	0	0	4,406242	0,66675	339,102	0,358	84,056	0	1016,44	7	9	8,7	1	1	1	1	1	1	1	1	1	0	1	-12,473573	274,210713	308,094844	0
15.01.2021	17:48:21	0	0	3,841316	0,6525	333,828	0,359	84,068	0	1016,36	7	9	8,8	1	1	1	1	1	1	1	1	1	0	1	-9,302326	274,114893	310,818246	0
15.01.2021	17:48:22	0	0	3,502376	0,64275	321,4512	0,358	84,076	0	1016,22	7	9	8,8	1	1	1	1	1	1	1	1	1	0	1	-8,738548	274,19721	311,766728	0
15.01.2021	17:48:23	0	0	3,389397	0,60075	308,4552	0,359	84,064	0	1016,32	6,9	9	8,8	1	1	1	1	1	1	1	1	1	0	1	-10,923185	274,119373	309,218319	0
15.01.2021	17:48:24	0	0	4,745155	0,62775	300,1536	0,358	84,064	0	1016,28	6,9	9	8,8	1	1	1	1	1	1	1	1	1	0	1	-11,205074	274,00766	308,414875	0
15.01.2021	17:48:25	0	0	3,954272	0,6375	303,9048	0,354	84,053	0	1016,4	7	9	8,9	1	1	1	1	1	1	1	1	1	0	1	-12,403101	274,114893	307,717471	0
15.01.2021	17:48:26	0	0	4,067276	0,5895	319,9176	0,361	84,08	0	1016,34	7	9	8,8	1	1	1	1	1	1	1	1	1	0	1	-7,963354	274,19871	312,548934	0
15.01.2021	17:48:27	0	0	3,502376	0,55275	342,8064	0,36	84,078	0	1016,34	7	9	8,8	1	1	1	1	1	1	1	1	1	0	1	-7,329105	274,105934	312,749619	0
15.01.2021	17:48:28	0	0	4,180256	0,55725	351,3816	0,361	84,079	0	1016,42	7	9	8,8	1	1	1	1	1	1	1	1	1	0	1	-11,557435	274,185214	308,89176	0
15.01.2021	17:48:29	0	0	3,050457	0,55275	346,1868	0,354	84,08	0	1016,26	6,9	9	8,8	1	1	1	1	1	1	1	1	1	0	1	-4,087385	274,082064	315,87986	0
15.01.2021	17:48:30	0	0	2,485558	0,49125	338,3892	0,356	84,074	0	1016,26	6,9	9	8,8	1	1	1	1	1	1	1	1	1	0	1	-11,134602	274,20171	309,391715	0
15.01.2021	17:48:31	0	0	4,519195	0,4515	331,5168	0,35	84,065	0	1016,14	6,9	9	8,8	1	1	1	1	1	1	1	1	1	0	1	-12,191684	274,165738	308,16647	0
15.01.2021	17:48:32	0	0	4,519195	0,44025	329,688	0,365	84,076	0	1016,44	6,9	9	8,8	1	1	1	1	1	1	1	1	1	0	1	-8,245243	274,162743	312,098914	0
15.01.2021	17:48:33	0	0	3,841316	0,43875	332,8092	0,354	84,081	0	1016,3	7	9	8,8	1	1	1	1	1	1	1	1	1	0	1	-6,906272	274,049291	312,907963	0
15.01.2021	17:48:34	0	0	3,276417	0,42225	337,0896	0,36	84,067	0	1016,26	7	9	8,8	1	1	1	1	1	1	1	1	1	0	1	-6,553911	274,026978	313,156178	0
15.01.2021	17:48:35	0	0	4,180256	0,408	338,3316	0,358	84,065	0	1016,24	7	9	8,8	1	1	1	1	1	1	1	1	1	0	1	-6,624383	274,185214	313,824812	0
15.01.2021	17:48:36	0	0	3,050457	0,40425	341,28	0,355	84,071	0	1016,36	7	9	8,8	1	1	1	1	1	1	1	1	1	0	1	-5,355884	274,080573	314,604399	0
15.01.2021	17:48:37	0	0	4,519195	0,402	344,3112	0,356	84,074	0	1016,24	7	9	8,8	1	1	1	1	1	1	1	1	1	0	1	-7,681466	274,0359	312,070264	0
15.01.2021	17:48:38	0	0	4,067276	0,39975	342,0504	0,362	84,09	0	1016,3	7	9	8,8	1	1	1	1	1	1	1	1	1	0	1	-7,892882	274,07312	312,032601	0
15.01.2021	17:48:39	0	0	3,276397	0,38025	332,0388	0,36	84,086	0	1016,3	7	9	8,9	1	1	1	1	1	1	1	1	1	0	1	-9,161381	274,06567	310,729319	0
15.01.2021	17:48:40	0	0	2,598537	0,3915	320,0256	0,358	84,077	0	1016,28	6,9	9	8,8	1	1	1	1	1	1	1	1	1	0	1	-9,936575	274,152266	310,358616	0
15.01.2021	17:48:41	0	0	3,954296	0,396	310,338	0,361	84,085	0	1016,36	7	9	8,8	1	1	1	1	1	1	1	1	1	0	1	-9,866103	274,192711	310,618138	0
15.01.2021	17:48:42	0	0	4,067276	0,42075	302,0256	0,358	84,074	0	1016,44	6,9	9	8,8	1	1	1	1	1	1	1	1	1	0	1	-12,262156	274,191211	308,215074	0
15.01.2021	17:48:43	0	0	4,519195	0,40875	303,876	0,362	84,081	0	1016,26	7	9	8,8	1	1	1	1	1	1	1	1	1	0	1	-8,45666	274,165738	311,901494	0
15.01.2021	17:48:44	0	0	4,519195	0,441	312,4728	0,361	84,083	0	1016,5	6,9	9	8,8	1	1	1	1	1	1	1	1	1	0	1	-10,359408	274,026978	309,350681	0
15.01.2021	17:48:45	0	0	2,711517	0,41775	321,2136	0,357	84,09	0	1016,42	6,9	9	8,8	1	1	1	1	1	1	1	1	1	0	1	-7,681466	274,105934	312,397258	0
15.01.2021	17:48:46	0	0	2,824497	0,40575	322,56	0,359	84,098	0	1016,34	7	9	8,8	1	1	1	1	1	1	1	1	1	0	1	-5,990134	274,025491	313,713018	0
15.01.2021	17:48:47	0	0	3,163437	0,399	316,656	0,359	84,085	0	1016,24	7	8,9	8,8	1	1	1	1	1	1	1	1	1	0	1	-10,993658	274,07163	308,924868	0
15.01.2021	17:48:48	0	0	2,598537	0,402	309,2472	0,359	84,096	0	1016,52	6,9	9	8,8	1	1	1	1	1	1	1	1	1	0	1	-11,346018	274,012117	308,294722	0
15.01.2021	17:48:49	0	0	4,519195	0,39225	305,4312	0,359	84,093	0	1016,24	7	9	8,8	1	1	1	1	1	1	1	1	1	0	1	-8,174771	274,093995	311,848193	0
15.01.2021	17:48:50	0	0	2,824497	0,40425	310,6152	0,354	84,101	0	1016,36	6,9	9	8,8	1	1	1	1	1	1	1	1	1	0	1	-5,003524	274,038875	314,762092	0
15.01.2021	17:48:51	0	0	4,745155	0,38925	325,9692	0,357	84,101	0	1016,46	6,9	9	8,8	1	1	1	1	1	1	1	1	1	0	1	-7,047216	274,167235	313,317937	0
15.01.2021	17:48:52	0	0	2,937495	0,41775	338,4504	0,358	84,086	0	1016,24	6,9	9	8,7	1	1	1	1	1	1	1	1	1	0	1	-8,597604	274,164241	311,753551	0
15.01.2021	17:48:53	0	0	3,276417	0,39825	346,9104	0,356	84,104	0	1016,28	6,9	9	8,8	1	1	1	1	1	1	1	1	1	0	1	-5,21494	274,028464	314,502088	0
15.01.2021	17:48:54	0	0	2,824497	0,41775	351,0396	0,355	84,085	0	1016,32	6,9	9	8,8	1	1	1	1	1	1	1	1	1	0	1	-7,188161	274,056734	312,660821	0
15.01.2021	17:48:55	0	0	3,502376	0,411	352,782	0,356	84,078	0	1016,3	6,9	9	8,8	1	1	1	1	1	1	1	1	1	0	1	-4,22833	274,185214	316,220865	0
15.01.2021	17:48:56	0	0	2,937477	0,4035	351,2772	0,348	84,086	0	1016,2	6,9	9	8,8	1	1	1	1	1	1	1	1	1	0	1	-6,131078	274,186713	314,325125	0
15.01.2021	17:48:57	0	0	4,180256	0,405	348,6852	0,36	84,088	0	1016,32	6,9	9	8,8	1	1	1	1	1	1	1	1	1	0	1	-8,738548	274,171729	311,647606	0
15.01.2021	17:48:58	0	0	4,519195	0,43275	347,6232	0,364	84,092	0	1016,24	7	9	8,8	1	1	1	1	1	1	1	1	1	0	1	-9,654686	274,19721	310,850589	0
15.01.2021	17:48:59	0	0	5,310055	0,46125	345,4164	0,358	84,09	0	1016,42	6,9	9	8,8	1	1	1	1	1	1	1	1	1	0	1	-11,486963	274,116386	308,640586	0
15.01.2021	17:49:00	0	0	4,067276	0,51525	334,188	0,355	84,098	0	1016,46	6,9	9	8,8	1	1	1	1	1	1	1	1	1	0	1	-10,641297	274,19871	309,870992	0
15.01.2021	17:49:01	0	0	2,033638	0,63075	330,714	0,357	84,103	0	1016,26	6,9	9	8,8	1	1	1	1	1	1	1	1	1	0	1	-8,386187	274,056734	311,462795	0
15.01.2021	17:49:02	0	0	3,163437	0,73425	343,8612	0,352	84,074	0	1016,42	7	9	8,8	1	1	1	1	1	1	1	1	1	0	1	-5,919662	274,155259	314,389516	0
15.01.2021	17:49:03	0	0	5,310055	0,84	346,8924	0,36	84,089	0	1016,44	6,9	9	8,8	1	1	1	1	1	1	1	1	1	0	1	-5,496829	274,034413	314,24796	0
15.01.2021	17:49:04	0	0	3,276417	0,96975	348,2604	0,358	84,095	0	1016,36	7	9	8,8	1	1	1	1	1	1	1	1	1	0	1	-8,033827	274,192711	312,450414	0
15.01.2021	17:49:05	0	0	3,954296	0,99525	343,5012	0,357	84,1	0	1016,4	7	8,9	8,8	1	1	1	1	1	1	1	1	1	0	1	-7,258633	274,159749	313,071531	0
15.01.2021	17:49:06	0	0	2,485558	1,0215	337,1364	0,36	84,092	0	1016,42	6,9	9	8,8	1	1	1	1	1	1	1	1	1	0	1	-7,329105	274,153762	312,973079	0
15.01.2021	17:49:07	0	0	4,971115	1,10925	327,852	0,357	84,091	0	1016,38	6,9	8,9	8,8	1	1	1	1	1	1	1	1	1	0	1	-5,990134	274,206211	314,55723	0
15.01.2021	17:49:08	0	0	4,067276	1,14225	319,2552	0,361	84,108	0	1016,42	6,9	9	8,8	1	1	1	1	1	1	1	1	1	0	1	-11,205074	274,122361	308,950389	0
15.01.2021	17:49:09	0	0	4,180256	1,17375	318,4668	0,351	84,099	0	1016,36	6,9	9	8,8	1	1	1	1	1	1	1	1	1	0	1	-12,755462	274,19571	307,742802	0
15.01.2021	17:49:10	0	0	3,050457	1,10175	321,4764	0,357	84,084	0	1016,32	6,9	8,9	8,8	1	1	1	1	1	1	1	1	1	0	1	-10,852713	274,132823	309,351624	0
15.01.2021	17:49:11	0	0	3,276417	1,09425	323,3196	0,355	84,08	0	1016,32	6,9	9	8,8	1	1	1	1	1	1	1	1	1	0	1	-9,654686	274,19421	310,836565	0
15.01.2021	17:49:12	0	0	4,180256	1,0695	321,8004	0,363	84,101	0	1016,4	6,9	9	8,8	1	1	1	1	1	1	1	1	1	0	1	-10,711769	274,165738	309,646385	0
15.01.2021	17:49:13	0	0	3,050457	1,05	334,5912	0,363	84,101	0	1016,32	7	9	8,8	1	1	1	1	1	1	1	1	1	0	1	-7,963354	274,164241	312,387801	0
15.01.2021	17:49:14	0	0	3,954296	1,02075	334,9296	0,365	84,097	0	1016,5	6,9	9	8,8	1	1	1	1	1	1	1	1	1	0	1	-7,610994	274,185214	312,838201	0
15.01.2021	17:49:15	0	0	4,858135	0,98625	333,1296	0,36	84,104	0	1016,48	6,9	8,9	8,8	1	1	1	1	1	1	1	1	1	0	1	-13,953488	274,083555	306,020719	0
15.01.2021	17:49:16	0	0	3,615356	0,948	333,1332	0,36	84,099	0	1016,32	6,9	9	8,8	1	1	1	1	1	1	1	1	1	0	1	-9,020437	274,186713	311,435766	0
15.01.2021	17:49:17	0	0	4,519195	0,9015	335,2896	0,36	84,112	0	1016,32	6,9	9	8,8	1	1	1	1	1	1	1	1	1	0	1	-6,131078	274,07312	313,794406	0
15.01.2021	17:49:18	0	0	4,067276	0,8655	339,1812	0,362	84,102	0	1016,3	6,9	9	8,8	1	1	1	1	1	1	1	1	1	0	1	-8,527132	274,025491	311,17602	0
15.01.2021	17:49:19	0	0	4,632175	0,87675	343,4652	0,36	84,106	0	1016,34	6,9	9	8,8	1	1	1	1	1	1	1	1	1	0	1	-11,768851	274,183716	308,673337	0
15.01.2021	17:49:20	0	0	2,937477	0,82875	339,4548	0,361	84,084	0	1016,28	7	9	8,8	1	1	1	1	1	1	1	1	1	0	1	-11,41649	274,141794	308,829765	0
15.01.2021	17:49:21	0	0	4,745155	0,79575	317,7684	0,362	84,087	0	1016,3	6,9	9	8,8	1	1	1	1	1	1	1	1	1	0	1	-9,866103	274,19421	310,625149	0
15.01.2021	17:49:22	0	0	3,389397	0,7665	310,2552	0,359	84,095	0	1016,24	6,9	9	8,8	1	1	1	1	1	1	1	1	1	0	1	-12,332629	274,104441	307,739123	0
15.01.2021	17:49:23	0	0	4,519195	0,723	325,1988	0,36	84,101	0	1016,36	6,9	9	8,8	1	1	1	1	1	1	1	1	1	0	1	-10,077519	274,026978	309,63257	0
15.01.2021	17:49:24	0	0	3,954296	0,6855	334,5804	0,356	84,097	0	1016,2	7	9	8,8	1	1	1	1	1	1	1	1	1	0	1	-11,134602	274,153762	309,167582	0
15.01.2021	17:49:25	0	0	4,293236	0,62925	334,6704	0,365	84,106	0	1016,22	6,9	9	8,8	1	1	1	1	1	1	1	1	1	0	1	-8,245243	274,079082	311,708079	0
15.01.2021	17:49:26	0	0	3,163437	0,60825	326,4516	0,36	84,088	0	1016,34	6,9	8,9	8,8	1	1	1	1	1	1	1	1	1	0	1	-11,698379	274,012117	307,942361	0
15.01.2021	17:49:27	0	0	4,406216	0,64575	320,0436	0,36	84,106	0	1016,36	6,9	8,9	8,8	1	1	1	1	1	1	1	1	1	0	1	-10,007047	274,162743	310,33711	0
15.01.2021	17:49:28	0	0	4,632175	0,654	338,4252	0,363	84,104	0	1016,3	6,9	9	8,8	1	1	1	1	1	1	1	1	1	0	1	-8,315715	274,010631	311,318094	0
15.01.2021	17:49:29	0	0	4,519195	0,64575	346,068	0,359	84,11	0	1016,44	6,9	9	8,8	1	1	1	1	1	1	1	1	1	0	1	-11,346018	274,083555	308,628189	0
15.01.2021	17:49:30	0	0	4,632175	0,654	350,1972	0,359	84,106	0	1016,28	6,9	9	8,8	1	1	1	1	1	1	1	1	1	0	1	-13,03735	274,164241	307,313805	0
15.01.2021	17:49:31	0	0	3,728336	0,61425	346,464	0,36	84,114	0	1016,4	6,9	9	8,8	1	1	1	1	1	1	1	1	1	0	1	-8,668076	274,104441	311,403675	0
15.01.2021	17:49:32	0	0	2,598537	0,61575	329,7168	0,357	84,101	0	1016,26	6,9	9	8,8	1	1	1	1	1	1	1	1	1	0	1	-5,990134	274,021032	313,692208	0
15.01.2021	17:49:33	0	0	2,711517	0,5625	314,4816	0,361	84,108	0	1016,32	6,9	8,9	8,8	1	1	1	1	1	1	1	1	1	0	1	-9,584214	274,171729	310,80194	0
15.01.2021	17:49:34	0	0	4,293236	0,52725	315,8352	0,36	84,114	0	1016,38	6,9	9	8,8	1	1	1	1	1	1	1	1	1	0	1	-9,090909	274,210713	311,477508	0
15.01.2021	17:49:35	0	0	5,197075	0,50775	324,7884	0,358	84,106	0	1016,26	6,9	9	8,8	1	1	1	1	1	1	1	1	1	0	1	-10,007047	274,093995	310,015916	0
15.01.2021	17:49:36	0	0	4,067276	0,4875	332,064	0,36	84,111	0	1016,32	6,9	9	8,8	1	1	1	1	1	1	1	1	1	0	1	-8,033827	274,044826	311,759567	0
15.01.2021	17:49:37	0	0	4,858135	0,48	330,066	0,363	84,114	0	1016,46	6,9	9	8,8	1	1	1	1	1	1	1	1	1	0	1	-9,161381	274,15077	311,126817	0
15.01.2021	17:49:38	0	0	4,067276	0,468	322,938	0,362	84,115	0	1016,38	7	9	8,8	1	1	1	1	1	1	1	1	1	0	1	-6,694856	274,074611	313,237587	0
15.01.2021	17:49:39	0	0	3,841316	0,471	322,6176	0,361	84,112	0	1016,4	6,9	9	8,8	1	1	1	1	1	1	1	1	1	0	1	-12,966878	274,182217	307,468303	0
15.01.2021	17:49:40	0	0	2,485558	0,501	333,5112	0,364	84,111	0	1016,18	6,9	9	8,8	1	1	1	1	1	1	1	1	1	0	1	-10,782241	274,108919	309,310429	0
15.01.2021	17:49:41	0	0	3,276417	0,5625	335,412	0,363	84,116	0	1016,48	7	9	8,8	1	1	1	1	1	1	1	1	1	0	1	-11,346018	274,188213	309,117193	0
15.01.2021	17:49:42	0	0	2,711517	0,684	336,4416	0,361	84,112	0	1016,28	6,9	9	8,8	1	1	1	1	1	1	1	1	1	0	1	-10,007047	274,107427	310,07865	0
15.01.2021	17:49:43	0	0	2,485558	0,744	328,1508	0,363	84,114	0	1016,4	6,9	9	8,8	1	1	1	1	1	1	1	1	1	0	1	-17,547569	274,19421	302,943683	0
15.01.2021	17:49:44	0	0	2,259598	0,77325	321,9264	0,362	84,112	0	1016,24	6,9	9	8,8	1	1	1	1	1	1	1	1	1	0	1	-11,205074	274,08952	308,79699	0
15.01.2021	17:49:45	0	0	3,050457	0,75075	330,3828	0,365	84,112	0	1016,18	6,9	8,9	8,8	1	1	1	1	1	1	1	1	1	0	1	-4,792107	274,021032	314,890235	0
15.01.2021	17:49:46	0	0	4,406216	0,72975	335,3976	0,361	84,092	0	1016,4	6,9	8,9	8,8	1	1	1	1	1	1	1	1	1	0	1	-12,473573	274,15077	307,814625	0
15.01.2021	17:49:47	0	0	2,598537	0,7035	332,8956	0,36	84,098	0	1016,28	6,9	9	8,8	1	1	1	1	1	1	1	1	1	0	1	-7,117689	274,040363	312,65487	0
15.01.2021	17:49:48	0	0	3,276417	0,72075	333,8388	0,36	84,104	0	1016,46	6,9	8,9	8,8	1	1	1	1	1	1	1	1	1	0	1	-12,121212	274,19421	308,37004	0
15.01.2021	17:49:49	0	0	4,293236	0,71175	339,7536	0,362	84,107	0	1016,42	7	9	8,8	1	1	1	1	1	1	1	1	1	0	1	-11,839323	274,126844	308,337082	0
15.01.2021	17:49:50	0	0	2,824497	0,74475	343,5588	0,358	84,094	0	1016,14	6,9	9	8,8	1	1	1	1	1	1	1	1	1	0	1	-6,906272	274,016574	312,755266	0
15.01.2021	17:49:51	0	0	4,858135	0,76425	339,4368	0,36	84,112	0	1016,3	7	9	8,8	1	1	1	1	1	1	1	1	1	0	1	-9,795631	274,116386	310,331918	0
15.01.2021	17:49:52	0	0	3,276417	0,79125	338,418	0,357	84,105	0	1016,28	6,9	8,9	8,8	1	1	1	1	1	1	1	1	1	0	1	-8,245243	274,186713	312,21096	0
15.01.2021	17:49:53	0	0	4,858135	0,819	324,756	0,366	84,113	0	1016,82	6,9	9	8,8	1	1	1	1	1	1	1	1	1	0	1	-9,372798	274,116386	310,754751	0
15.01.2021	17:49:54	0	0	4,406216	0,89175	324,8028	0,366	84,122	0	1016,44	6,9	9	8,8	1	1	1	1	1	1	1	1	1	0	1	-10,641297	274,183716	309,800891	0
15.01.2021	17:49:55	0	0	3,841316	0,92775	332,352	0,359	84,111	0	1016,38	6,9	9	8,8	1	1	1	1	1	1	1	1	1	0	1	-5,708245	274,086537	314,279889	0
15.01.2021	17:49:56	0	0	3,502376	0,933	332,7516	0,366	84,116	0	1016,34	7	9	8,8	1	1	1	1	1	1	1	1	1	0	1	-8,45666	274,185214	311,992535	0
15.01.2021	17:49:57	0	0	3,502376	0,92775	332,7408	0,365	84,144	0	1016,54	6,9	9	8,8	1	1	1	1	1	1	1	1	1	0	1	-10,218464	274,170231	310,16069	0
15.01.2021	17:49:58	0	0	4,180256	0,975	319,2444	0,359	84,113	0	1016,36	7	9	8,8	1	1	1	1	1	1	1	1	1	0	1	-7,258633	274,165738	313,099521	0
15.01.2021	17:49:59	0	0	4,067276	1,04325	312,5412	0,361	84,112	0	1016,34	6,9	9	8,8	1	1	1	1	1	1	1	1	1	0	1	-9,513742	274,126844	310,662663	0
15.01.2021	17:50:00	0	0	4,406216	1,01775	329,9688	0,364	84,12	0	1016,34	6,9	9	8,8	1	1	1	1	1	1	1	1	1	0	1	-11,486963	274,186713	308,96924	0
15.01.2021	17:50:01	0	0	4,745155	0,96975	341,2836	0,364	84,123	0	1016,4	6,9	8,9	8,8	1	1	1	1	1	1	1	1	1	0	1	-9,795631	274,07014	310,115938	0
15.01.2021	17:50:02	0	0	2,259598	0,9885	334,6308	0,359	84,12	0	1016,28	6,9	9	8,8	1	1	1	1	1	1	1	1	1	0	1	-9,44327	274,015088	310,211335	0
15.01.2021	17:50:03	0	0	2,711517	0,9945	324,0324	0,358	84,109	0	1016,22	6,9	9	8,8	1	1	1	1	1	1	1	1	1	0	1	-10,923185	274,086537	309,064949	0
15.01.2021	17:50:04	0	0	2,824497	0,98925	338,04	0,363	84,118	0	1016,28	6,9	9	8,8	1	1	1	1	1	1	1	1	1	0	1	-8,45666	274,17922	311,964511	0
15.01.2021	17:50:05	0	0	3,163437	1,017	332,8488	0,363	84,118	0	1016,3	6,9	8,9	8,8	1	1	1	1	1	1	1	1	1	0	1	-6,976744	274,07312	312,94874	0
15.01.2021	17:50:06	0	0	4,632175	0,97575	328,8348	0,363	84,127	0	1016,42	7	9	8,8	1	1	1	1	1	1	1	1	1	0	1	-5,708245	274,168733	314,663908	0
15.01.2021	17:50:07	0	0	3,276417	0,951	328,1292	0,36	84,12	0	1016,2	6,9	8,9	8,8	1	1	1	1	1	1	1	1	1	0	1	-15,926709	274,076101	304,012693	0
15.01.2021	17:50:08	0	0	4,293236	1,0035	325,944	0,351	84,105	0	1016,26	7	9	8,8	1	1	1	1	1	1	1	1	1	0	1	-10,570825	274,015088	309,083781	0
15.01.2021	17:50:09	0	0	3,276417	1,0665	331,5168	0,356	84,113	0	1016,44	7	9	8,8	1	1	1	1	1	1	1	1	1	0	1	-8,386187	274,052268	311,441944	0
15.01.2021	17:50:10	0	0	4,632175	1,09725	336,2976	0,361	84,115	0	1016,28	6,9	9	8,8	1	1	1	1	1	1	1	1	1	0	1	-11,346018	274,180718	309,082157	0
15.01.2021	17:50:11	0	0	2,598537	1,137	340,1784	0,365	84,11	0	1016,46	6,9	9	8,8	1	1	1	1	1	1	1	1	1	0	1	-9,44327	274,058223	310,412664	0
15.01.2021	17:50:12	0	0	3,050457	1,2885	330,7896	0,363	84,12	0	1016,46	7	9	8,8	1	1	1	1	1	1	1	1	1	0	1	-9,020437	274,026978	310,689653	0
15.01.2021	17:50:13	0	0	4,858135	1,34475	342,3852	0,364	84,115	0	1016,44	6,9	9	8,8	1	1	1	1	1	1	1	1	1	0	1	-9,654686	274,099963	310,396152	0
15.01.2021	17:50:14	0	0	3,276417	1,329	339,3	0,361	84,122	0	1016,24	6,9	9	8,8	1	1	1	1	1	1	1	1	1	0	1	-7,963354	274,012117	311,677386	0
15.01.2021	17:50:15	0	0	3,615356	1,33125	343,8684	0,359	84,108	0	1016,24	6,9	9	8,8	1	1	1	1	1	1	1	1	1	0	1	-12,614517	274,058223	307,241416	0
15.01.2021	17:50:16	0	0	3,954296	1,332	330,3864	0,365	84,115	0	1016,38	6,9	8,9	8,8	1	1	1	1	1	1	1	1	1	0	1	-7,892882	274,024005	311,803332	0
15.01.2021	17:50:17	0	0	5,084095	1,326	327,7728	0,364	84,106	0	1016,32	6,9	9	8,8	1	1	1	1	1	1	1	1	1	0	1	-11,06413	274,140298	309,175138	0
15.01.2021	17:50:18	0	0	4,745155	1,362	329,3964	0,364	84,116	0	1016,36	6,9	9	8,8	1	1	1	1	1	1	1	1	1	0	1	-8,45666	274,015088	311,197946	0
15.01.2021	17:50:19	0	0	2,937477	1,4295	320,3424	0,361	84,104	0	1016,36	6,9	9	8,8	1	1	1	1	1	1	1	1	1	0	1	-9,725159	274,040363	310,0474	0
15.01.2021	17:50:20	0	0	2,711517	1,512	313,7076	0,366	84,104	0	1016,2	6,9	9	8,8	1	1	1	1	1	1	1	1	1	0	1	-8,80902	274,024005	310,887194	0
15.01.2021	17:50:21	0	0	3,615356	1,4385	319,5612	0,361	84,113	0	1016,34	6,9	9	8,8	1	1	1	1	1	1	1	1	1	0	1	-9,231853	274,101456	310,825955	0
15.01.2021	17:50:22	0	0	2,372578	1,42725	316,998	0,36	84,12	0	1016,26	7	9	8,8	1	1	1	1	1	1	1	1	1	0	1	-6,765328	274,00766	312,854621	0
15.01.2021	17:50:23	0	0	2,372578	1,449	323,3304	0,367	84,111	0	1016,36	7	9	8,8	1	1	1	1	1	1	1	1	1	0	1	-10,570825	274,099963	309,480014	0
15.01.2021	17:50:24	0	0	2,598537	1,57125	322,5528	0,36	84,112	0	1016,26	7	9	8,8	1	1	1	1	1	1	1	1	1	0	1	-10,923185	274,010631	308,710624	0
15.01.2021	17:50:25	0	0	2,824497	1,65	329,256	0,367	84,121	0	1016,36	7	8,9	8,8	1	1	1	1	1	1	1	1	1	0	1	-8,386187	274,038875	311,379428	0
15.01.2021	17:50:26	0	0	4,293236	1,638	327,2112	0,36	84,106	0	1016,28	6,9	8,9	8,8	1	1	1	1	1	1	1	1	1	0	1	-8,668076	274,010631	310,965733	0
15.01.2021	17:50:27	0	0	3,163437	1,66425	321,372	0,36	84,109	0	1016,48	6,9	9	8,8	1	1	1	1	1	1	1	1	1	0	1	-7,963354	274,038875	311,802261	0
15.01.2021	17:50:28	0	0	2,711517	1,575	321,4944	0,37	84,114	0	1016,42	6,9	9	8,8	1	1	1	1	1	1	1	1	1	0	1	-11,486963	274,122361	308,6685	0
15.01.2021	17:50:29	0	0	3,276417	1,557	328,3092	0,363	84,126	0	1016,38	7	8,9	8,8	1	1	1	1	1	1	1	1	1	0	1	-9,936575	274,183716	310,505613	0
15.01.2021	17:50:30	0	0	4,858135	1,50825	329,3136	0,366	84,105	0	1016,2	6,9	9	8,8	1	1	1	1	1	1	1	1	1	0	1	-11,06413	274,085046	308,917041	0
15.01.2021	17:50:31	0	0	2,598537	1,4265	334,5624	0,358	84,122	0	1016,18	6,9	8,9	8,8	1	1	1	1	1	1	1	1	1	0	1	-13,03735	274,176223	307,369812	0
15.01.2021	17:50:32	0	0	4,745155	1,28325	330,0444	0,364	84,119	0	1016,38	7	9	8,8	1	1	1	1	1	1	1	1	1	0	1	-8,738548	274,111906	311,368071	0
15.01.2021	17:50:33	0	0	2,711517	1,20975	339,4404	0,36	84,12	0	1016,36	7	9	8,8	1	1	1	1	1	1	1	1	1	0	1	-9,654686	274,024005	310,041528	0
15.01.2021	17:50:34	0	0	4,293236	1,116	342,846	0,365	84,119	0	1016,38	6,9	9	8,8	1	1	1	1	1	1	1	1	1	0	1	-7,610994	274,07014	312,300575	0
15.01.2021	17:50:35	0	0	4,632175	1,0575	336,9168	0,364	84,117	0	1016,34	7	9	8,8	1	1	1	1	1	1	1	1	1	0	1	-8,738548	274,171729	311,647606	0
15.01.2021	17:50:36	0	0	4,632175	1,0455	343,5516	0,364	84,116	0	1016,28	6,9	8,9	8,8	1	1	1	1	1	1	1	1	1	0	1	-11,41649	274,140298	308,822777	0
15.01.2021	17:50:37	0	0	2,937477	1,04625	359,9928	0,36	84,116	0	1016,32	6,9	9	8,8	1	1	1	1	1	1	1	1	1	0	1	-10,923185	274,146281	309,344039	0
15.01.2021	17:50:38	0	0	3,163437	0,98325	351,0684	0,36	84,106	0	1016,24	6,9	9	8,8	1	1	1	1	1	1	1	1	1	0	1	-7,399577	274,167235	312,965576	0
15.01.2021	17:50:39	0	0	3,954296	1,01325	338,3712	0,361	84,118	0	1016,4	7	8,9	8,8	1	1	1	1	1	1	1	1	1	0	1	-8,386187	274,040363	311,386372	0
15.01.2021	17:50:40	0	0	3,502376	1,03725	330,4512	0,361	84,107	0	1016,3	7	9	8,8	1	1	1	1	1	1	1	1	1	0	1	-11,275546	274,010631	308,358263	0
15.01.2021	17:50:41	0	0	3,389397	1,1295	320,8968	0,361	84,111	0	1016,32	6,9	9	8,8	1	1	1	1	1	1	1	1	1	0	1	-11,486963	274,095487	308,542969	0
15.01.2021	17:50:42	0	0	4,519195	1,1835	328,6224	0,36	84,099	0	1016,44	6,9	8,9	8,8	1	1	1	1	1	1	1	1	1	0	1	-8,879493	274,185214	311,569702	0
15.01.2021	17:50:43	0	0	3,728336	1,1775	352,1016	0,362	84,093	0	1016,28	7	9	8,8	1	1	1	1	1	1	1	1	1	0	1	-11,768851	274,06716	308,128805	0
15.01.2021	17:50:44	0	0	2,824497	1,107	334,9332	0,361	84,116	0	1016,48	7	9	8,8	1	1	1	1	1	1	1	1	1	0	1	-8,80902	274,161246	311,52814	0
15.01.2021	17:50:45	0	0	2,598537	1,1325	320,85	0,359	84,105	0	1016,32	7	8,9	8,8	1	1	1	1	1	1	1	1	1	0	1	-6,906272	274,037387	312,8524	0
15.01.2021	17:50:46	0	0	4,971115	1,15575	321,8436	0,362	84,124	0	1016,36	7	8,9	8,8	1	1	1	1	1	1	1	1	1	0	1	-11,486963	274,06567	308,403738	0
15.01.2021	17:50:47	0	0	2,485558	1,16775	323,7732	0,364	84,121	0	1016,54	6,9	9	8,8	1	1	1	1	1	1	1	1	1	0	1	-8,597604	274,012117	311,043137	0
15.01.2021	17:50:48	0	0	4,519195	1,215	313,5852	0,356	84,115	0	1016,22	7	9	8,8	1	1	1	1	1	1	1	1	1	0	1	-10,923185	274,047803	308,884102	0
15.01.2021	17:50:49	0	0	4,293236	1,224	308,124	0,362	84,122	0	1016,42	7	9	8,8	1	1	1	1	1	1	1	1	1	0	1	-12,755462	274,155259	307,553716	0
15.01.2021	17:50:50	0	0	4,745155	1,26675	307,2276	0,357	84,11	0	1016,36	6,9	8,9	8,8	1	1	1	1	1	1	1	1	1	0	1	-9,513742	274,064181	310,370004	0
15.01.2021	17:50:51	0	0	2,598537	1,27125	304,6536	0,358	84,097	0	1016,1	6,9	8,9	8,8	1	1	1	1	1	1	1	1	1	0	1	-15,997181	274,192711	304,48706	0
15.01.2021	17:50:52	0	0	5,197075	1,30725	309,51	0,363	84,1	0	1016,3	6,9	8,9	8,8	1	1	1	1	1	1	1	1	1	0	1	-12,262156	274,138803	307,970124	0
15.01.2021	17:50:53	0	0	2,711517	1,3875	313,2	0,364	84,105	0	1016,34	7	9	8,8	1	1	1	1	1	1	1	1	1	0	1	-9,372798	274,165738	310,985356	0
15.01.2021	17:50:54	0	0	4,406216	1,281	320,436	0,366	84,113	0	1016,34	7	8,9	8,8	1	1	1	1	1	1	1	1	1	0	1	-5,426357	274,119373	314,715148	0
15.01.2021	17:50:55	0	0	4,745155	1,14	321,8904	0,361	84,099	0	1016,32	7	9	8,8	1	1	1	1	1	1	1	1	1	0	1	-10,852713	274,155259	309,456465	0
15.01.2021	17:50:56	0	0	4,971115	1,0275	331,5132	0,36	84,103	0	1016,32	7	8,9	8,8	1	1	1	1	1	1	1	1	1	0	1	-9,231853	274,053757	310,603228	0
15.01.2021	17:50:57	0	0	2,937477	0,95925	339,8328	0,358	84,122	0	1016,32	6,9	9	8,8	1	1	1	1	1	1	1	1	1	0	1	-11,909796	274,173227	308,483361	0
15.01.2021	17:50:58	0	0	2,937477	0,95175	333,4356	0,357	84,133	0	1016,32	7	8,9	8,8	1	1	1	1	1	1	1	1	1	0	1	-7,258633	274,037387	312,50004	0
15.01.2021	17:50:59	0	0	2,711517	0,9915	323,7444	0,362	84,104	0	1016,34	6,9	8,9	8,8	1	1	1	1	1	1	1	1	1	0	1	-7,681466	274,165738	312,676688	0
15.01.2021	17:51:00	0	0	3,954296	0,9225	328,2156	0,361	84,123	0	1016,34	6,9	9	8,8	1	1	1	1	1	1	1	1	1	0	1	-12,262156	274,062691	307,614635	0
15.01.2021	17:51:01	0	0	3,954296	0,9225	328,2156	0,361	84,123	0	1016,34	6,9	9	8,8	1	1	1	1	1	1	1	1	1	0	1	-10,007047	274,168733	310,365106	0
15.01.2021	17:51:02	0	0	4,745155	0,876	331,1712	0,352	84,106	0	1016,2	7	8,9	8,8	1	1	1	1	1	1	1	1	1	0	1	-10,007047	274,105934	310,071677	0
15.01.2021	17:51:03	0	0	2,711517	0,822	333,8748	0,362	84,116	0	1016,36	6,9	9	8,8	1	1	1	1	1	1	1	1	1	0	1	-12,473573	273,977979	307,007911	0
15.01.2021	17:51:04	0	0	3,728336	0,78	339,1704	0,365	84,11	0	1016,48	7	8,9	8,8	1	1	1	1	1	1	1	1	1	0	1	-9,725159	274,104441	310,346593	0
15.01.2021	17:51:05	0	0	4,632175	0,7665	342,1224	0,361	84,113	0	1016,48	7	9	8,8	1	1	1	1	1	1	1	1	1	0	1	-10,218464	273,994298	309,339144	0
15.01.2021	17:51:06	0	0	3,502376	0,75825	338,4792	0,364	84,113	0	1016,3	7	9	8,8	1	1	1	1	1	1	1	1	1	0	1	-9,44327	274,013602	310,204403	0
15.01.2021	17:51:07	0	0	4,180256	0,7965	336,0744	0,362	84,095	0	1016,32	7	9	8,8	1	1	1	1	1	1	1	1	1	0	1	-7,047216	274,129833	313,143154	0
15.01.2021	17:51:08	0	0	2,372578	0,80625	332,4564	0,363	84,122	0	1016,36	7	9	8,8	1	1	1	1	1	1	1	1	1	0	1	-13,248767	274,010631	306,385043	0
15.01.2021	17:51:09	0	0	4,745155	0,86475	326,4336	0,362	84,101	0	1016,42	7	8,9	8,8	1	1	1	1	1	1	1	1	1	0	1	-8,174771	274,147777	312,099444	0
15.01.2021	17:51:10	0	0	3,163437	0,9315	323,7516	0,358	84,095	0	1016,32	7	8,9	8,8	1	1	1	1	1	1	1	1	1	0	1	-12,05074	273,998751	307,527642	0
15.01.2021	17:51:11	0	0	4,745155	1,0035	327,114	0,355	84,1	0	1016,18	7	9	8,8	1	1	1	1	1	1	1	1	1	0	1	-8,45666	274,07312	311,468824	0
15.01.2021	17:51:12	0	0	2,485558	1,032	334,2528	0,358	84,111	0	1016,16	6,9	8,9	8,8	1	1	1	1	1	1	1	1	1	0	1	-9,866103	273,995783	309,698429	0
15.01.2021	17:51:13	0	0	3,615356	0,97725	348,804	0,357	84,108	0	1016,32	6,9	9	8,8	1	1	1	1	1	1	1	1	1	0	1	-8,949965	274,137308	311,275329	0
15.01.2021	17:51:14	0	0	2,824497	0,9405	349,0452	0,363	84,11	0	1016,36	7	9	8,8	1	1	1	1	1	1	1	1	1	0	1	-12,544045	273,994298	307,013562	0
15.01.2021	17:51:15	0	0	4,745155	0,84975	347,274	0,359	84,116	0	1016,38	6,9	8,9	8,8	1	1	1	1	1	1	1	1	1	0	1	-7,258633	274,107427	312,827064	0
15.01.2021	17:51:16	0	0	2,372578	0,82875	334,2564	0,364	84,119	0	1016,32	7	8,9	8,8	1	1	1	1	1	1	1	1	1	0	1	-6,060606	273,992814	313,490078	0
15.01.2021	17:51:17	0	0	3,615356	0,8595	335,4084	0,356	84,101	0	1016,3	7	8,9	8,8	1	1	1	1	1	1	1	1	1	0	1	-13,812544	274,074611	306,119898	0
15.01.2021	17:51:18	0	0	3,276417	0,8265	348,0732	0,359	84,112	0	1016,34	7	9	8,8	1	1	1	1	1	1	1	1	1	0	1	-11,627907	274,171729	308,758248	0
15.01.2021	17:51:19	0	0	4,406216	0,822	351,7956	0,363	84,106	0	1016,28	7	9	8,8	1	1	1	1	1	1	1	1	1	0	1	-8,879493	274,114893	311,241079	0
15.01.2021	17:51:20	0	0	3,841316	0,81375	340,2	0,36	84,111	0	1016,32	7	9	8,8	1	1	1	1	1	1	1	1	1	0	1	-10,641297	274,022518	309,047981	0
15.01.2021	17:51:21	0	0	4,067276	0,78825	332,7192	0,362	84,119	0	1016,3	6,9	9	8,8	1	1	1	1	1	1	1	1	1	0	1	-8,45666	274,144785	311,803574	0
15.01.2021	17:51:22	0	0	3,163437	0,7275	333,4644	0,365	84,106	0	1016,32	7	8,9	8,8	1	1	1	1	1	1	1	1	1	0	1	-9,866103	274,056734	309,982879	0
15.01.2021	17:51:23	0	0	2,711517	0,7035	336,1716	0,365	84,116	0	1016,32	7	9	8,8	1	1	1	1	1	1	1	1	1	0	1	-8,738548	274,052268	311,089583	0
15.01.2021	17:51:24	0	0	3,050457	0,6915	339,516	0,36	84,105	0	1016,3	7	9	8,8	1	1	1	1	1	1	1	1	1	0	1	-8,174771	274,146281	312,092453	0
15.01.2021	17:51:25	0	0	3,728336	0,68925	333,9828	0,359	84,106	0	1016,36	6,9	8,9	8,8	1	1	1	1	1	1	1	1	1	0	1	-7,610994	274,024005	312,085221	0
15.01.2021	17:51:26	0	0	4,745155	0,675	324,8532	0,36	84,119	0	1016,36	7	8,9	8,8	1	1	1	1	1	1	1	1	1	0	1	-9,654686	274,006175	309,958333	0
15.01.2021	17:51:27	0	0	2,259598	0,67425	324,7308	0,36	84,109	0	1016,26	7	8,9	8,8	1	1	1	1	1	1	1	1	1	0	1	-12,896406	274,04185	306,883097	0
15.01.2021	17:51:28	0	0	3,728336	0,6945	332,46	0,365	84,12	0	1016,42	7	9	8,8	1	1	1	1	1	1	1	1	1	0	1	-13,530655	273,997267	306,040801	0
15.01.2021	17:51:29	0	0	4,293236	0,68925	343,152	0,362	84,12	0	1016,5	7	9	8,8	1	1	1	1	1	1	1	1	1	0	1	-13,883016	274,128339	306,300371	0
15.01.2021	17:51:30	0	0	2,598537	0,76125	342,0972	0,359	84,118	0	1016,4	7	9	8,8	1	1	1	1	1	1	1	1	1	0	1	-11,205074	273,99133	308,338687	0
15.01.2021	17:51:31	0	0	3,615356	0,83925	342,3204	0,358	84,107	0	1016,36	7	9	8,8	1	1	1	1	1	1	1	1	1	0	1	-7,188161	274,135813	313,030147	0
15.01.2021	17:51:32	0	0	3,389397	0,9405	342,4032	0,361	84,117	0	1016,32	7	9	8,8	1	1	1	1	1	1	1	1	1	0	1	-7,540521	274,06716	312,357134	0
15.01.2021	17:51:33	0	0	4,858135	1,01025	349,9416	0,361	84,134	0	1016,5	7	9	8,8	1	1	1	1	1	1	1	1	1	0	1	-6,272023	274,161246	314,065138	0
15.01.2021	17:51:34	0	0	3,728336	1,08675	345,8088	0,36	84,118	0	1016,34	7	9	8,8	1	1	1	1	1	1	1	1	1	0	1	-4,22833	274,058223	315,627604	0
15.01.2021	17:51:35	0	0	4,858135	1,1235	339,4692	0,363	84,126	0	1016,44	7	8,9	8,8	1	1	1	1	1	1	1	1	1	0	1	-9,866103	274,170231	310,513051	0
15.01.2021	17:51:36	0	0	3,615356	1,17825	339,8652	0,358	84,118	0	1016,36	7	9	8,8	1	1	1	1	1	1	1	1	1	0	1	-15,362932	274,010631	304,270878	0
15.01.2021	17:51:37	0	0	2,711517	1,13175	355,104	0,362	84,118	0	1016,3	7	8,9	8,8	1	1	1	1	1	1	1	1	1	0	1	-7,188161	274,156756	313,128012	0
15.01.2021	17:51:38	0	0	3,389397	1,1415	345,096	0,357	84,115	0	1016,42	7	8,9	8,8	1	1	1	1	1	1	1	1	1	0	1	-10,359408	274,032925	309,378439	0
15.01.2021	17:51:39	0	0	4,519195	1,1685	341,2728	0,361	84,133	0	1016,32	7	8,9	8,8	1	1	1	1	1	1	1	1	1	0	1	-8,738548	274,009146	310,88833	0
15.01.2021	17:51:40	0	0	3,163437	1,12425	357,606	0,363	84,124	0	1016,34	7	9	8,8	1	1	1	1	1	1	1	1	1	0	1	-10,711769	274,091012	309,297261	0
15.01.2021	17:51:41	0	0	3,954296	1,098	353,952	0,365	84,114	0	1016,3	7	8,9	8,8	1	1	1	1	1	1	1	1	1	0	1	-10,007047	274,171729	310,379107	0
15.01.2021	17:51:42	0	0	2,711517	1,07925	352,8432	0,362	84,117	0	1016,32	7	9	8,8	1	1	1	1	1	1	1	1	1	0	1	-13,319239	274,047803	306,488048	0
15.01.2021	17:51:43	0	0	2,937477	1,0245	354,9708	0,364	84,128	0	1016,14	7	8,9	8,8	1	1	1	1	1	1	1	1	1	0	1	-8,45666	273,995783	311,107872	0
15.01.2021	17:51:44	0	0	3,276417	1,0155	358,4016	0,361	84,116	0	1016,34	7	8,9	8,8	1	1	1	1	1	1	1	1	1	0	1	-10,711769	274,105934	309,366955	0
15.01.2021	17:51:45	0	0	3,615356	0,97725	352,1088	0,364	84,119	0	1016,2	7	8,9	8,8	1	1	1	1	1	1	1	1	1	0	1	-10,42988	273,983912	309,079276	0
15.01.2021	17:51:46	0	0	2,598537	0,97125	341,6364	0,367	84,139	0	1016,34	7	9	8,8	1	1	1	1	1	1	1	1	1	0	1	-10,007047	274,167235	310,358106	0
15.01.2021	17:51:47	0	0	2,598537	0,951	345,33	0,364	84,133	0	1016,36	7	8,9	8,8	1	1	1	1	1	1	1	1	1	0	1	-9,725159	273,995783	309,839373	0
15.01.2021	17:51:48	0	0	2,824497	0,9435	333,81	0,359	84,122	0	1016,32	7	8,9	8,8	1	1	1	1	1	1	1	1	1	0	1	-11,06413	274,026978	308,64596	0
15.01.2021	17:51:49	0	0	2,937477	0,978	321,8364	0,356	84,111	0	1016,28	7	8,9	8,8	1	1	1	1	1	1	1	1	1	0	1	-10,570825	273,994298	308,986783	0
15.01.2021	17:51:50	0	0	2,824497	1,07325	327,0816	0,363	84,127	0	1016,34	7	8,9	8,8	1	1	1	1	1	1	1	1	1	0	1	-5,708245	274,102948	314,356535	0
15.01.2021	17:51:51	0	0	3,954296	1,16175	330,7356	0,363	84,127	0	1016,34	7	8,9	8,8	1	1	1	1	1	1	1	1	1	0	1	-9,654686	274,019546	310,020721	0
15.01.2021	17:51:52	0	0	2,937477	1,167	328,6116	0,362	84,115	0	1016,3	6,9	8,9	8,8	1	1	1	1	1	1	1	1	1	0	1	-12,684989	274,146281	307,582235	0
15.01.2021	17:51:53	0	0	3,163437	1,17225	336,8304	0,363	84,132	0	1016,36	7	8,9	8,8	1	1	1	1	1	1	1	1	1	0	1	-7,610994	274,11788	312,523532	0
15.01.2021	17:51:54	0	0	3,615356	1,16775	335,3724	0,365	84,128	0	1016,42	7	9	8,8	1	1	1	1	1	1	1	1	1	0	1	-7,540521	274,161246	312,796639	0
15.01.2021	17:51:55	0	0	3,163437	1,14525	328,6152	0,365	84,124	0	1016,34	7	9	8,8	1	1	1	1	1	1	1	1	1	0	1	-11,205074	274,156756	309,111098	0
15.01.2021	17:51:56	0	0	4,406216	1,08375	330,4404	0,358	84,136	0	1016,3	7	8,9	8,8	1	1	1	1	1	1	1	1	1	0	1	-11,486963	274,140298	308,752305	0
15.01.2021	17:51:57	0	0	2,824497	1,044	335,376	0,358	84,13	0	1016,36	7	8,9	8,8	1	1	1	1	1	1	1	1	1	0	1	-12,332629	274,137308	307,892665	0
15.01.2021	17:51:58	0	0	3,728336	0,9765	328,608	0,362	84,137	0	1016,34	7	8,9	8,8	1	1	1	1	1	1	1	1	1	0	1	-11,698379	274,159749	308,631784	0
15.01.2021	17:51:59	0	0	4,180256	0,94725	324,8064	0,358	84,116	0	1016,3	7	9	8,8	1	1	1	1	1	1	1	1	1	0	1	-12,896406	274,126844	307,279999	0
15.01.2021	17:52:00	0	0	4,519195	0,9795	317,9376	0,358	84,123	0	1016,22	7	8,9	8,8	1	1	1	1	1	1	1	1	1	0	1	-9,866103	273,980945	309,629215	0
15.01.2021	17:52:01	0	0	4,519195	0,9795	317,9376	0,358	84,123	0	1016,22	7	8,9	8,8	1	1	1	1	1	1	1	1	1	0	1	-10,570825	274,06716	309,326831	0
15.01.2021	17:52:02	0	0	3,389397	1,0335	316,6452	0,359	84,121	0	1016,4	7	8,9	8,8	1	1	1	1	1	1	1	1	1	0	1	-8,949965	274,000236	310,635343	0
15.01.2021	17:52:03	0	0	2,937477	1,0665	318,1644	0,359	84,127	0	1016,38	7	9	8,8	1	1	1	1	1	1	1	1	1	0	1	-5,990134	274,038875	313,775481	0
15.01.2021	17:52:04	0	0	3,615356	1,1205	320,3964	0,362	84,132	0	1016,3	7	8,9	8,8	1	1	1	1	1	1	1	1	1	0	1	-6,624383	273,994298	312,933224	0
15.01.2021	17:52:05	0	0	3,389397	1,134	319,0752	0,356	84,135	0	1016,34	7	8,9	8,8	1	1	1	1	1	1	1	1	1	0	1	-9,302326	274,079082	310,650996	0
15.01.2021	17:52:06	0	0	2,033638	1,0905	318,4704	0,361	84,138	0	1016,46	7	9	8,8	1	1	1	1	1	1	1	1	1	0	1	-7,258633	273,989846	312,278206	0
15.01.2021	17:52:07	0	0	2,372578	1,09725	329,6844	0,356	84,12	0	1016,22	7	8,9	8,8	1	1	1	1	1	1	1	1	1	0	1	-12,684989	274,044826	307,108404	0
15.01.2021	17:52:08	0	0	4,745155	1,0635	342,8352	0,361	84,137	0	1016,36	7	8,9	8,8	1	1	1	1	1	1	1	1	1	0	1	-11,41649	274,147777	308,857724	0
15.01.2021	17:52:09	0	0	3,615356	1,02975	336,528	0,364	84,138	0	1016,24	7	8,9	8,8	1	1	1	1	1	1	1	1	1	0	1	-7,751938	274,120867	312,396545	0
15.01.2021	17:52:10	0	0	3,502376	0,9585	336,8304	0,361	84,132	0	1016,46	7	8,9	8,8	1	1	1	1	1	1	1	1	1	0	1	-10,007047	274,141794	310,239209	0
15.01.2021	17:52:11	0	0	3,276417	0,918	342,0828	0,357	84,113	0	1016,24	7	8,9	8,8	1	1	1	1	1	1	1	1	1	0	1	-11,627907	274,129833	308,562463	0
15.01.2021	17:52:12	0	0	5,084095	0,8865	338,4396	0,357	84,12	0	1016,36	7	9	8,8	1	1	1	1	1	1	1	1	1	0	1	-10,641297	274,056734	309,207685	0
15.01.2021	17:52:13	0	0	2,824497	0,79725	348,3144	0,362	84,12	0	1016,34	7	8,9	8,8	1	1	1	1	1	1	1	1	1	0	1	-9,090909	273,995783	310,473622	0
15.01.2021	17:52:14	0	0	2,824497	0,75825	347,6016	0,367	84,122	0	1016,46	7	8,9	8,8	1	1	1	1	1	1	1	1	1	0	1	-14,023961	274,06716	305,873695	0
15.01.2021	17:52:15	0	0	3,163437	0,76275	334,2564	0,366	84,125	0	1016,34	7	8,9	8,8	1	1	1	1	1	1	1	1	1	0	1	-8,738548	274,149273	311,542658	0
15.01.2021	17:52:16	0	0	2,937477	0,762	333,1656	0,363	84,13	0	1016,38	7	8,9	8,8	1	1	1	1	1	1	1	1	1	0	1	-9,654686	274,138803	310,577594	0
15.01.2021	17:52:17	0	0	2,711517	0,771	346,5	0,36	84,112	0	1016,36	7	8,9	8,8	1	1	1	1	1	1	1	1	1	0	1	-12,755462	274,031438	306,975445	0
15.01.2021	17:52:18	0	0	3,502376	0,7815	351,3492	0,365	84,123	0	1016,2	7	8,9	8,8	1	1	1	1	1	1	1	1	1	0	1	-8,949965	274,155259	311,359213	0
15.01.2021	17:52:19	0	0	3,389397	0,79575	335,3688	0,364	84,119	0	1016,42	6,9	8,9	8,8	1	1	1	1	1	1	1	1	1	0	1	-14,305849	273,986879	305,217147	0
15.01.2021	17:52:20	0	0	2,824497	0,83025	324,7992	0,365	84,115	0	1016,32	7	8,9	8,8	1	1	1	1	1	1	1	1	1	0	1	-9,584214	274,08952	310,41785	0
15.01.2021	17:52:21	0	0	3,615356	0,80325	336,06	0,362	84,127	0	1016,42	7	8,9	8,8	1	1	1	1	1	1	1	1	1	0	1	-9,936575	274,147777	310,33764	0
15.01.2021	17:52:22	0	0	5,310055	0,79875	352,1772	0,359	84,115	0	1016,38	7	8,9	8,8	1	1	1	1	1	1	1	1	1	0	1	-10,007047	274,113399	310,106548	0
15.01.2021	17:52:23	0	0	4,632175	0,786	346,1796	0,366	84,123	0	1016,28	7	9	8,8	1	1	1	1	1	1	1	1	1	0	1	-12,544045	274,162743	307,800112	0
15.01.2021	17:52:24	0	0	4,406216	0,72825	331,4448	0,357	84,123	0	1016,24	7	8,9	8,8	1	1	1	1	1	1	1	1	1	0	1	-9,866103	274,047803	309,941184	0
15.01.2021	17:52:25	0	0	4,519195	0,72525	328,1796	0,362	84,13	0	1016,36	7	8,9	8,8	1	1	1	1	1	1	1	1	1	0	1	-8,174771	274,156756	312,141401	0
15.01.2021	17:52:26	0	0	3,050457	0,72225	335,3256	0,366	84,124	0	1016,38	7	8,9	8,8	1	1	1	1	1	1	1	1	1	0	1	-7,963354	274,024005	311,73286	0
15.01.2021	17:52:27	0	0	4,519195	0,73125	342,792	0,357	84,133	0	1016,24	7	8,9	8,8	1	1	1	1	1	1	1	1	1	0	1	-11,346018	274,134318	308,865304	0
15.01.2021	17:52:28	0	0	4,519195	0,75075	349,128	0,36	84,115	0	1016,14	7	9	8,8	1	1	1	1	1	1	1	1	1	0	1	-7,610994	274,107427	312,474703	0
15.01.2021	17:52:29	0	0	4,180256	0,74775	341,694	0,366	84,124	0	1016,22	7	8,9	8,8	1	1	1	1	1	1	1	1	1	0	1	-12,05074	273,986879	307,472256	0
15.01.2021	17:52:30	0	0	3,728336	0,76425	329,2848	0,36	84,118	0	1016,28	7	8,9	8,8	1	1	1	1	1	1	1	1	1	0	1	-12,191684	274,032925	307,546163	0
15.01.2021	17:52:31	0	0	3,389397	0,85725	316,6488	0,362	84,135	0	1016,34	7	8,9	8,8	1	1	1	1	1	1	1	1	1	0	1	-10,852713	274,144785	309,407521	0
15.01.2021	17:52:32	0	0	5,084095	0,88125	324,8136	0,361	84,111	0	1016,32	7	8,9	8,8	1	1	1	1	1	1	1	1	1	0	1	-16,349542	274,016574	303,311997	0
15.01.2021	17:52:33	0	0	4,632175	0,92925	315,2088	0,364	84,146	0	1016,4	7	8,9	8,8	1	1	1	1	1	1	1	1	1	0	1	-10,147992	274,138803	310,084289	0
15.01.2021	17:52:34	0	0	3,389397	0,9255	305,0136	0,362	84,12	0	1016,26	7	8,9	8,8	1	1	1	1	1	1	1	1	1	0	1	-8,45666	274,126844	311,719745	0
15.01.2021	17:52:35	0	0	3,276417	0,95925	309,2436	0,356	84,118	0	1016,34	7	8,9	8,8	1	1	1	1	1	1	1	1	1	0	1	-10,641297	274,0359	309,110433	0
15.01.2021	17:52:36	0	0	5,197075	0,93375	311,4612	0,367	84,12	0	1016,38	7	9	8,8	1	1	1	1	1	1	1	1	1	0	1	-9,936575	274,156756	310,379597	0
15.01.2021	17:52:37	0	0	4,519195	0,93675	310,3956	0,364	84,11	0	1016,3	7	9	8,8	1	1	1	1	1	1	1	1	1	0	1	-3,24172	274,088029	316,75338	0
15.01.2021	17:52:38	0	0	4,293236	0,94725	312,5304	0,365	84,133	0	1016,22	7	8,9	8,8	1	1	1	1	1	1	1	1	1	0	1	-8,45666	274,165738	311,901494	0
15.01.2021	17:52:39	0	0	2,937477	0,9165	318,4704	0,363	84,115	0	1016,34	7	9	8,8	1	1	1	1	1	1	1	1	1	0	1	-11,134602	273,985395	308,381474	0
15.01.2021	17:52:40	0	0	2,711517	0,94575	324,7956	0,367	84,135	0	1016,3	7	8,9	8,8	1	1	1	1	1	1	1	1	1	0	1	-10,711769	274,01806	308,956704	0
15.01.2021	17:52:41	0	0	2,711517	0,921	324,8136	0,367	84,139	0	1016,42	7	9	8,8	1	1	1	1	1	1	1	1	1	0	1	-9,725159	274,146281	310,542065	0
15.01.2021	17:52:42	0	0	4,180256	0,894	329,2956	0,357	84,133	0	1016,24	7	9	8,8	1	1	1	1	1	1	1	1	1	0	1	-7,047216	274,128339	313,136171	0
15.01.2021	17:52:43	0	0	5,310055	0,831	339,8364	0,363	84,125	0	1016,28	7	8,9	8,8	1	1	1	1	1	1	1	1	1	0	1	-11,134602	274,156756	309,181571	0
15.01.2021	17:52:44	0	0	2,598537	0,82575	346,5396	0,365	84,129	0	1016,2	7	8,9	8,8	1	1	1	1	1	1	1	1	1	0	1	-9,584214	274,044826	310,20918	0
15.01.2021	17:52:45	0	0	3,276417	0,7845	343,62	0,365	84,139	0	1016,36	7	8,9	8,8	1	1	1	1	1	1	1	1	1	0	1	-12,05074	274,15077	308,237458	0
15.01.2021	17:52:46	0	0	4,519195	0,726	332,46	0,368	84,129	0	1016,22	7	8,9	8,8	1	1	1	1	1	1	1	1	1	0	1	-11,486963	274,11788	308,647563	0
15.01.2021	17:52:47	0	0	4,067276	0,70425	324,846	0,361	84,135	0	1016,22	7	8,9	8,8	1	1	1	1	1	1	1	1	1	0	1	-5,073996	274,025491	314,629156	0
15.01.2021	17:52:48	0	0	2,937477	0,69	328,6512	0,366	84,135	0	1016,2	7	8,9	8,8	1	1	1	1	1	1	1	1	1	0	1	-9,725159	274,012117	309,915582	0
15.01.2021	17:52:49	0	0	4,0673	0,63825	345,33	0,361	84,13	0	1016,36	7	8,9	8,7	1	1	1	1	1	1	1	1	1	0	1	-7,047216	274,032925	312,690631	0
15.01.2021	17:52:50	0	0	3,276436	0,5625	355,0788	0,359	84,138	0	1016,22	7	9	8,7	1	1	1	1	1	1	1	1	1	0	1	-10,500352	274,138803	309,731928	0
15.01.2021	17:52:51	0	0	5,423035	0,51975	349,0344	0,365	84,145	0	1016,4	7	8,9	8,8	1	1	1	1	1	1	1	1	1	0	1	-10,711769	274,141794	309,534487	0
15.01.2021	17:52:52	0	0	2,824497	0,55275	330,4188	0,362	84,136	0	1016,26	7	9	8,8	1	1	1	1	1	1	1	1	1	0	1	-8,386187	274,0359	311,365543	0
15.01.2021	17:52:53	0	0	4,632175	0,6495	314,4852	0,365	84,141	0	1016,42	7	9	8,8	1	1	1	1	1	1	1	1	1	0	1	-11,346018	274,144785	308,914216	0
15.01.2021	17:52:54	0	0	2,937477	0,69375	318,1176	0,367	84,133	0	1016,32	7	8,9	8,8	1	1	1	1	1	1	1	1	1	0	1	-9,161381	274,07163	310,757145	0
15.01.2021	17:52:55	0	0	4,858135	0,753	338,7528	0,365	84,145	0	1016,36	7	8,9	8,8	1	1	1	1	1	1	1	1	1	0	1	-9,44327	274,153762	310,858914	0
15.01.2021	17:52:56	0	0	4,745155	0,756	347,5872	0,361	84,116	0	1016,34	7	8,9	8,8	1	1	1	1	1	1	1	1	1	0	1	-6,483439	274,049291	313,330795	0
15.01.2021	17:52:57	0	0	3,389397	0,77625	334,944	0,368	84,137	0	1016,34	7	8,9	8,8	1	1	1	1	1	1	1	1	1	0	1	-8,527132	274,15077	311,761066	0
15.01.2021	17:52:58	0	0	3,163437	0,80625	324,3888	0,364	84,138	0	1016,4	7	9	8,8	1	1	1	1	1	1	1	1	1	0	1	-5,003524	274,064181	314,880222	0
15.01.2021	17:52:59	0	0	2,598537	0,85425	335,0088	0,359	84,126	0	1016,26	7	8,9	8,8	1	1	1	1	1	1	1	1	1	0	1	-9,936575	274,149273	310,344631	0
15.01.2021	17:53:00	0	0	4,406216	0,9015	336,1104	0,367	84,135	0	1016,4	7	8,9	8,8	1	1	1	1	1	1	1	1	1	0	1	-12,05074	274,108919	308,04193	0
15.01.2021	17:53:01	0	0	4,745155	0,95175	326,6424	0,364	84,12	0	1016,3	6,8	8,9	8,8	1	1	1	1	1	1	1	1	1	0	1	-11,627907	274,144785	308,632327	0
15.01.2021	17:53:02	0	0	3,841316	0,939	326,484	0,365	84,131	0	1016,4	7	8,9	8,8	1	1	1	1	1	1	1	1	1	0	1	-7,470049	274,049291	312,344185	0
15.01.2021	17:53:03	0	0	4,858135	0,95175	331,146	0,364	84,142	0	1016,18	7	8,9	8,8	1	1	1	1	1	1	1	1	1	0	1	-14,235377	274,15077	306,052821	0
15.01.2021	17:53:04	0	0	4,406216	0,966	332,1324	0,361	84,124	0	1016,24	7	8,9	8,8	1	1	1	1	1	1	1	1	1	0	1	-9,513742	274,095487	310,516189	0
15.01.2021	17:53:05	0	0	4,632175	0,9675	332,3844	0,364	84,136	0	1016,32	7	8,9	8,8	1	1	1	1	1	1	1	1	1	0	1	-8,597604	274,149273	311,683602	0
15.01.2021	17:53:06	0	0	4,971115	0,909	332,8056	0,364	84,139	0	1016,38	7	8,9	8,8	1	1	1	1	1	1	1	1	1	0	1	-7,82241	274,028464	311,894618	0
15.01.2021	17:53:07	0	0	3,841316	0,91275	333,162	0,364	84,13	0	1016,34	7	8,9	8,8	1	1	1	1	1	1	1	1	1	0	1	-9,372798	273,980945	310,122521	0
15.01.2021	17:53:08	0	0	2,711517	0,8955	330,0408	0,362	84,143	0	1016,42	7	8,9	8,8	1	1	1	1	1	1	1	1	1	0	1	-11,346018	274,086537	308,642116	0
15.01.2021	17:53:09	0	0	3,276417	0,8325	328,9248	0,365	84,142	0	1016,42	6,8	8,9	8,8	1	1	1	1	1	1	1	1	1	0	1	-12,191684	274,147777	308,08253	0
15.01.2021	17:53:10	0	0	3,389397	0,816	325,5264	0,359	84,125	0	1016,3	6,8	8,9	8,8	1	1	1	1	1	1	1	1	1	0	1	-8,949965	274,032925	310,787882	0
15.01.2021	17:53:11	0	0	3,728336	0,8085	329,7132	0,356	84,115	0	1016,48	6,8	8,9	8,8	1	1	1	1	1	1	1	1	1	0	1	-9,795631	274,138803	310,43665	0
15.01.2021	17:53:12	0	0	3,502376	0,8145	334,6524	0,367	84,119	0	1016,2	7	8,9	8,8	1	1	1	1	1	1	1	1	1	0	1	-10,570825	274,022518	309,118454	0
15.01.2021	17:53:13	0	0	3,050457	0,852	327,8412	0,367	84,124	0	1016,14	7	8,9	8,8	1	1	1	1	1	1	1	1	1	0	1	-7,329105	273,982429	312,173132	0
15.01.2021	17:53:14	0	0	3,163437	0,8565	322,9128	0,361	84,119	0	1016,4	7	8,9	8,8	1	1	1	1	1	1	1	1	1	0	1	-10,218464	274,025491	309,484688	0
15.01.2021	17:53:15	0	0	4,519195	0,8115	326,3004	0,359	84,11	0	1016,32	7	8,9	8,8	1	1	1	1	1	1	1	1	1	0	1	-11,486963	273,986879	308,036033	0
15.01.2021	17:53:16	0	0	4,632175	0,81975	331,5528	0,365	84,112	0	1016,3	7	9	8,8	1	1	1	1	1	1	1	1	1	0	1	-10,570825	274,14329	309,68242	0
15.01.2021	17:53:17	0	0	3,841316	0,80175	329,3352	0,362	84,122	0	1016,44	7	8,9	8,8	1	1	1	1	1	1	1	1	1	0	1	-13,6716	274,085046	306,309571	0
15.01.2021	17:53:18	0	0	3,389397	0,77925	324,7992	0,364	84,123	0	1016,34	6,8	8,9	8,8	1	1	1	1	1	1	1	1	1	0	1	-10,993658	274,134318	309,217665	0
15.01.2021	17:53:19	0	0	4,180256	0,7905	324,7992	0,363	84,112	0	1016,3	7	8,9	8,8	1	1	1	1	1	1	1	1	1	0	1	-12,05074	274,043338	307,735708	0
15.01.2021	17:53:20	0	0	4,406242	0,7905	332,4096	0,363	84,096	0	1016,36	7	8,9	8,7	1	1	1	1	1	1	1	1	1	0	1	-12,05074	274,147777	308,223475	0
15.01.2021	17:53:21	0	0	3,389417	0,79575	332,046	0,369	84,106	0	1016,3	6,8	8,9	8,7	1	1	1	1	1	1	1	1	1	0	1	-10,147992	274,00469	309,458099	0
15.01.2021	17:53:22	0	0	4,406216	0,786	324,4536	0,362	84,12	0	1016,28	7	8,9	8,8	1	1	1	1	1	1	1	1	1	0	1	-12,473573	273,983912	307,035583	0
15.01.2021	17:53:23	0	0	4,067276	0,87	324,144	0,363	84,114	0	1016,44	7	8,9	8,8	1	1	1	1	1	1	1	1	1	0	1	-9,866103	274,108919	310,226568	0
15.01.2021	17:53:24	0	0	3,050457	0,885	329,328	0,37	84,121	0	1016,48	6,8	8,9	8,8	1	1	1	1	1	1	1	1	1	0	1	-8,033827	273,979462	311,454574	0
15.01.2021	17:53:25	0	0	3,841339	0,91425	333,9144	0,36	84,117	0	1016,26	7	8,9	8,7	1	1	1	1	1	1	1	1	1	0	1	-8,668076	274,079082	311,285246	0
15.01.2021	17:53:26	0	0	4,745155	0,9075	333,5652	0,368	84,109	0	1016,36	6,8	8,9	8,8	1	1	1	1	1	1	1	1	1	0	1	-6,906272	273,95723	312,478439	0
15.01.2021	17:53:27	0	0	3,389397	0,87675	332,73	0,361	84,109	0	1016,22	7	8,9	8,8	1	1	1	1	1	1	1	1	1	0	1	-10,993658	274,009146	308,633221	0
15.01.2021	17:53:28	0	0	2,372592	0,89325	337,5432	0,362	84,119	0	1016,42	7	8,9	8,7	1	1	1	1	1	1	1	1	1	0	1	-10,42988	273,985395	309,086195	0
15.01.2021	17:53:29	0	0	2,598537	0,864	339,8868	0,362	84,117	0	1016,26	7	9,1	8,8	1	1	1	1	1	1	1	1	1	0	1	-9,654686	274,149273	310,62652	0
15.01.2021	17:53:30	0	0	4,406216	0,8415	336,4056	0,365	84,119	0	1016,32	7	8,9	8,8	1	1	1	1	1	1	1	1	1	0	1	-9,936575	274,032925	309,801272	0
15.01.2021	17:53:31	0	0	4,632175	0,84375	337,1868	0,366	84,107	0	1016,3	7	8,9	8,8	1	1	1	1	1	1	1	1	1	0	1	-12,332629	273,964638	307,08663	0
15.01.2021	17:53:32	0	0	4,858135	0,8085	339,1272	0,365	84,117	0	1016,34	6,8	8,9	8,8	1	1	1	1	1	1	1	1	1	0	1	-8,033827	274,055245	311,808205	0
15.01.2021	17:53:33	0	0	3,163437	0,79875	337,5468	0,366	84,112	0	1016,44	6,8	8,9	8,8	1	1	1	1	1	1	1	1	1	0	1	-6,272023	273,969084	313,167972	0
15.01.2021	17:53:34	0	0	4,180256	0,7965	334,9692	0,362	84,11	0	1016,36	7	9	8,8	1	1	1	1	1	1	1	1	1	0	1	-12,614517	274,104441	307,457234	0
15.01.2021	17:53:35	0	0	5,197075	0,81525	333,1692	0,362	84,105	0	1016,26	7	8,9	8,8	1	1	1	1	1	1	1	1	1	0	1	-9,936575	274,137308	310,288719	0
15.01.2021	17:53:36	0	0	3,954296	0,822	329,2848	0,365	84,124	0	1016,32	7	8,9	8,8	1	1	1	1	1	1	1	1	1	0	1	-10,218464	274,010631	309,415346	0
15.01.2021	17:53:37	0	0	4,858135	0,828	326,3832	0,361	84,117	0	1016,3	7	9	8,8	1	1	1	1	1	1	1	1	1	0	1	-11,486963	274,12535	308,682461	0
15.01.2021	17:53:38	0	0	4,519195	0,79275	324,3888	0,362	84,122	0	1016,12	6,8	8,9	8,8	1	1	1	1	1	1	1	1	1	0	1	-10,147992	274,093995	309,874972	0
15.01.2021	17:53:39	0	0	2,598537	0,7755	320,4	0,363	84,123	0	1016,34	7	9	8,8	1	1	1	1	1	1	1	1	1	0	1	-9,513742	274,013602	310,13393	0
15.01.2021	17:53:40	0	0	3,389397	0,792	321,822	0,362	84,109	0	1016,38	7	8,9	8,8	1	1	1	1	1	1	1	1	1	0	1	-9,584214	274,099963	310,466624	0
15.01.2021	17:53:41	0	0	2,598537	0,80475	332,0748	0,363	84,123	0	1016,18	6,8	8,9	8,8	1	1	1	1	1	1	1	1	1	0	1	-13,03735	274,009146	306,589528	0
15.01.2021	17:53:42	0	0	3,615356	0,816	336,8052	0,359	84,117	0	1016,32	6,8	9	8,8	1	1	1	1	1	1	1	1	1	0	1	-9,090909	274,08952	310,911155	0
15.01.2021	17:53:43	0	0	3,276417	0,83475	331,2072	0,37	84,132	0	1016,4	7	8,9	8,8	1	1	1	1	1	1	1	1	1	0	1	-11,134602	274,156756	309,181571	0
15.01.2021	17:53:44	0	0	2,711517	0,8595	327,7728	0,364	84,138	0	1016,34	6,8	9	8,8	1	1	1	1	1	1	1	1	1	0	1	-10,359408	274,053757	309,475673	0
15.01.2021	17:53:45	0	0	4,632175	0,8655	336,438	0,369	84,116	0	1016,46	6,8	8,9	8,8	1	1	1	1	1	1	1	1	1	0	1	-12,896406	274,131328	307,300947	0
15.01.2021	17:53:46	0	0	3,841316	0,843	339,4116	0,365	84,107	0	1016,38	7	8,9	8,8	1	1	1	1	1	1	1	1	1	0	1	-9,231853	274,140298	311,007414	0
15.01.2021	17:53:47	0	0	3,050457	0,8625	334,2564	0,364	84,119	0	1016,26	6,8	8,9	8,8	1	1	1	1	1	1	1	1	1	0	1	-8,033827	274,044826	311,759567	0
15.01.2021	17:53:48	0	0	2,937477	0,82275	330,84	0,363	84,105	0	1016,38	7	8,9	8,8	1	1	1	1	1	1	1	1	1	0	1	-7,681466	274,140298	312,557802	0
15.01.2021	17:53:49	0	0	5,084095	0,8085	333,4968	0,361	84,112	0	1016,4	7	8,9	8,8	1	1	1	1	1	1	1	1	1	0	1	-8,315715	274,06567	311,574985	0
15.01.2021	17:53:50	0	0	3,389397	0,81375	336,4776	0,361	84,116	0	1016,12	6,8	8,9	8,8	1	1	1	1	1	1	1	1	1	0	1	-6,906272	273,972049	312,547549	0
15.01.2021	17:53:51	0	0	3,050457	0,828	332,4348	0,364	84,104	0	1016,26	7	9	8,8	1	1	1	1	1	1	1	1	1	0	1	-8,738548	274,105934	311,340176	0
15.01.2021	17:53:52	0	0	3,050475	0,8475	331,4268	0,358	84,116	0	1016,34	7	9	8,7	1	1	1	1	1	1	1	1	1	0	1	-11,768851	273,964638	307,650407	0
15.01.2021	17:53:53	0	0	2,824514	0,8445	329,6808	0,356	84,106	0	1016,32	7	8,9	8,7	1	1	1	1	1	1	1	1	1	0	1	-10,570825	274,06567	309,319876	0
15.01.2021	17:53:54	0	0	3,841316	0,84375	331,992	0,365	84,124	0	1016,22	7	8,9	8,8	1	1	1	1	1	1	1	1	1	0	1	-6,412967	274,107427	313,67273	0
15.01.2021	17:53:55	0	0	3,389397	0,849	328,5072	0,363	84,126	0	1016,38	7	9	8,8	1	1	1	1	1	1	1	1	1	0	1	-11,41649	273,997267	308,154966	0
15.01.2021	17:53:56	0	0	3,050457	0,83625	331,452	0,364	84,124	0	1016,36	6,8	9	8,8	1	1	1	1	1	1	1	1	1	0	1	-7,258633	273,994298	312,298974	0
15.01.2021	17:53:57	0	0	3,502376	0,82125	328,5648	0,364	84,106	0	1016,34	7	8,9	8,8	1	1	1	1	1	1	1	1	1	0	1	-5,144468	274,095487	314,885463	0
15.01.2021	17:53:58	0	0	3,502376	0,84375	326,4228	0,365	84,119	0	1016,34	6,8	9	8,8	1	1	1	1	1	1	1	1	1	0	1	-11,205074	274,147777	309,069141	0
15.01.2021	17:53:59	0	0	4,632175	0,843	324,4752	0,366	84,115	0	1016,3	7	9	8,8	1	1	1	1	1	1	1	1	1	0	1	-7,892882	274,055245	311,949149	0
15.01.2021	17:54:00	0	0	5,423035	0,87675	333,126	0,363	84,119	0	1016,22	7	9	8,8	1	1	1	1	1	1	1	1	1	0	1	-5,778717	274,06865	314,125894	0
15.01.2021	17:54:01	0	0	5,423035	0,87675	333,126	0,363	84,119	0	1016,22	7	9	8,8	1	1	1	1	1	1	1	1	1	0	1	-5,778717	274,06865	314,125894	0
15.01.2021	17:54:02	0	0	4,293236	0,92325	337,6512	0,363	84,11	0	1016,24	6,8	9	8,8	1	1	1	1	1	1	1	1	1	0	1	-7,82241	274,132823	312,381927	0
15.01.2021	17:54:03	0	0	3,502376	0,9015	342,7488	0,371	84,124	0	1016,16	6,8	9	8,8	1	1	1	1	1	1	1	1	1	0	1	-8,527132	274,010631	311,106677	0
15.01.2021	17:54:04	0	0	3,502376	0,909	342,3528	0,365	84,127	0	1016,48	6,8	8,9	8,8	1	1	1	1	1	1	1	1	1	0	1	-4,933051	274,122361	315,222411	0
15.01.2021	17:54:05	0	0	3,389397	0,88575	342,3816	0,364	84,111	0	1016,4	7	8,9	8,8	1	1	1	1	1	1	1	1	1	0	1	-5,567301	274,079082	314,386021	0
15.01.2021	17:54:06	0	0	3,615356	0,89175	339,8724	0,368	84,11	0	1016,32	7	9	8,8	1	1	1	1	1	1	1	1	1	0	1	-10,007047	273,975014	309,460604	0
15.01.2021	17:54:07	0	0	4,858135	0,9	336,4272	0,358	84,12	0	1016,28	6,8	8,9	8,8	1	1	1	1	1	1	1	1	1	0	1	-12,755462	274,06716	307,142194	0
15.01.2021	17:54:08	0	0	2,711517	0,86925	337,5324	0,36	84,108	0	1016,24	6,8	8,9	8,8	1	1	1	1	1	1	1	1	1	0	1	-8,174771	274,132823	312,029567	0
15.01.2021	17:54:09	0	0	3,276417	0,86925	341,2584	0,361	84,109	0	1016,26	6,8	9	8,8	1	1	1	1	1	1	1	1	1	0	1	-7,258633	274,091012	312,750397	0
15.01.2021	17:54:10	0	0	4,858135	0,89025	337,1976	0,361	84,111	0	1016,36	6,8	8,9	8,8	1	1	1	1	1	1	1	1	1	0	1	-6,553911	274,138803	313,678369	0
15.01.2021	17:54:11	0	0	2,259611	0,906	332,3916	0,357	84,12	0	1016,28	7	8,9	8,7	1	1	1	1	1	1	1	1	1	0	1	-9,725159	274,022518	309,964119	0
15.01.2021	17:54:12	0	0	3,95432	0,942	329,9544	0,366	84,112	0	1016,32	6,8	9	8,7	1	1	1	1	1	1	1	1	1	0	1	-5,708245	273,963156	313,704102	0
15.01.2021	17:54:13	0	0	2,598537	0,93825	329,7492	0,357	84,112	0	1016,32	6,8	9	8,8	1	1	1	1	1	1	1	1	1	0	1	-10,641297	274,015088	309,013308	0
15.01.2021	17:54:14	0	0	4,293261	0,92625	331,5348	0,362	84,11	0	1016,3	6,8	9	8,7	1	1	1	1	1	1	1	1	1	0	1	-10,218464	274,134318	309,992859	0
15.01.2021	17:54:15	0	0	2,259598	0,921	330,3468	0,362	84,093	0	1016,34	7	8,9	8,8	1	1	1	1	1	1	1	1	1	0	1	-7,892882	274,012117	311,747858	0
15.01.2021	17:54:16	0	0	4,406216	0,93375	336,15	0,363	84,103	0	1016,4	7	8,9	8,8	1	1	1	1	1	1	1	1	1	0	1	-12,05074	273,972049	307,403081	0
15.01.2021	17:54:17	0	0	3,615356	0,92625	338,706	0,358	84,12	0	1016,36	7	8,9	8,8	1	1	1	1	1	1	1	1	1	0	1	-12,473573	274,144785	307,786661	0
15.01.2021	17:54:18	0	0	4,519195	0,894	340,542	0,365	84,12	0	1016,32	7	9	8,8	1	1	1	1	1	1	1	1	1	0	1	-10,923185	274,083555	309,051022	0
15.01.2021	17:54:19	0	0	2,372578	0,8385	343,0836	0,36	84,115	0	1016,36	6,8	8,9	8,8	1	1	1	1	1	1	1	1	1	0	1	-11,134602	273,960193	308,263926	0
15.01.2021	17:54:20	0	0	3,502376	0,79875	345,7008	0,362	84,122	0	1016,3	6,8	8,9	8,8	1	1	1	1	1	1	1	1	1	0	1	-8,174771	274,012117	311,46597	0
15.01.2021	17:54:21	0	0	4,745155	0,80325	345,0744	0,365	84,119	0	1016,3	7	9	8,8	1	1	1	1	1	1	1	1	1	0	1	-11,909796	274,135813	308,308512	0
15.01.2021	17:54:22	0	0	4,971115	0,7605	343,5156	0,36	84,121	0	1016,32	6,8	8,9	8,8	1	1	1	1	1	1	1	1	1	0	1	-9,302326	274,031438	310,428581	0
15.01.2021	17:54:23	0	0	3,050457	0,7245	337,5252	0,356	84,118	0	1016,32	6,8	9	8,8	1	1	1	1	1	1	1	1	1	0	1	-12,332629	273,945383	306,996841	0
15.01.2021	17:54:24	0	0	2,824497	0,70575	330,6528	0,364	84,12	0	1016,38	6,8	9	8,8	1	1	1	1	1	1	1	1	1	0	1	-11,627907	274,06865	308,276705	0
15.01.2021	17:54:25	0	0	4,406216	0,7035	325,1916	0,361	84,124	0	1016,38	6,8	8,9	8,8	1	1	1	1	1	1	1	1	1	0	1	-11,275546	273,963156	308,136802	0
15.01.2021	17:54:26	0	0	4,519195	0,6975	329,3496	0,363	84,113	0	1016,38	7	8,9	8,8	1	1	1	1	1	1	1	1	1	0	1	-8,315715	274,062691	311,561076	0
15.01.2021	17:54:27	0	0	3,163456	0,6765	327,8196	0,363	84,111	0	1016,22	6,8	8,9	8,7	1	1	1	1	1	1	1	1	1	0	1	-10,147992	274,128339	310,035396	0
15.01.2021	17:54:28	0	0	2,372592	0,705	325,692	0,358	84,108	0	1016,18	6,8	8,9	8,7	1	1	1	1	1	1	1	1	1	0	1	-6,906272	273,96612	312,519898	0
15.01.2021	17:54:29	0	0	3,163456	0,6915	334,8792	0,361	84,103	0	1016,34	6,8	8,9	8,7	1	1	1	1	1	1	1	1	1	0	1	-9,161381	274,093995	310,861582	0
15.01.2021	17:54:30	0	0	3,389397	0,66975	347,6196	0,357	84,109	0	1016,26	6,8	9	8,8	1	1	1	1	1	1	1	1	1	0	1	-8,949965	273,95723	310,434747	0
15.01.2021	17:54:31	0	0	3,502376	0,642	343,1376	0,359	84,12	0	1016,3	6,8	9	8,8	1	1	1	1	1	1	1	1	1	0	1	-8,386187	274,088029	311,608912	0
15.01.2021	17:54:32	0	0	4,519223	0,65925	329,2236	0,359	84,11	0	1016,48	6,8	8,9	8,7	1	1	1	1	1	1	1	1	1	0	1	-9,090909	273,985395	310,425166	0
15.01.2021	17:54:33	0	0	2,598537	0,684	329,6592	0,361	84,109	0	1016,48	6,8	9	8,8	1	1	1	1	1	1	1	1	1	0	1	-10,570825	273,961674	308,834613	0
15.01.2021	17:54:34	0	0	4,293261	0,72075	338,4252	0,356	84,101	0	1016,36	6,9	9	8,7	1	1	1	1	1	1	1	1	1	0	1	-10,359408	274,06865	309,545204	0
15.01.2021	17:54:35	0	0	4,293236	0,765	346,8888	0,357	84,104	0	1016,26	6,8	9	8,8	1	1	1	1	1	1	1	1	1	0	1	-11,134602	273,951305	308,222484	0
15.01.2021	17:54:36	0	0	2,824497	0,783	351,0036	0,363	84,113	0	1016,36	6,8	9	8,8	1	1	1	1	1	1	1	1	1	0	1	-6,412967	274,034413	313,331821	0
15.01.2021	17:54:37	0	0	4,067276	0,7995	346,9356	0,359	84,111	0	1016,28	6,8	9	8,8	1	1	1	1	1	1	1	1	1	0	1	-9,44327	273,96612	309,9829	0
15.01.2021	17:54:38	0	0	3,615356	0,8535	354,2652	0,358	84,102	0	1016,32	6,8	9	8,8	1	1	1	1	1	1	1	1	1	0	1	-11,909796	274,00469	307,696295	0
15.01.2021	17:54:39	0	0	2,824497	0,87975	354,9564	0,362	84,112	0	1016,26	6,8	9	8,8	1	1	1	1	1	1	1	1	1	0	1	-9,020437	273,975014	310,447214	0
15.01.2021	17:54:40	0	0	3,276417	0,8805	347,3028	0,359	84,132	0	1016,34	7	9	8,8	1	1	1	1	1	1	1	1	1	0	1	-6,412967	274,102948	313,651813	0
15.01.2021	17:54:41	0	0	2,711534	0,8895	350,7192	0,359	84,114	0	1016,32	6,8	8,9	8,7	1	1	1	1	1	1	1	1	1	0	1	-9,725159	274,013602	309,922514	0
15.01.2021	17:54:42	0	0	5,197106	0,85125	353,1852	0,358	84,11	0	1016,34	6,8	9	8,7	1	1	1	1	1	1	1	1	1	0	1	-10,711769	274,110413	309,387876	0
15.01.2021	17:54:43	0	0	4,519195	0,86175	345,8988	0,361	84,11	0	1016,4	6,8	8,9	8,8	1	1	1	1	1	1	1	1	1	0	1	-6,20155	274,082064	313,765695	0
15.01.2021	17:54:44	0	0	3,841316	0,85275	347,6268	0,354	84,112	0	1016,28	6,8	9	8,8	1	1	1	1	1	1	1	1	1	0	1	-12,614517	273,961674	306,79092	0
15.01.2021	17:54:45	0	0	5,084095	0,894	352,8288	0,358	84,117	0	1016,26	6,8	9	8,8	1	1	1	1	1	1	1	1	1	0	1	-10,711769	274,102948	309,353011	0
15.01.2021	17:54:46	0	0	4,971145	0,903	342,072	0,359	84,114	0	1016,16	6,8	8,9	8,7	1	1	1	1	1	1	1	1	1	0	1	-7,470049	274,01806	312,198423	0
15.01.2021	17:54:47	0	0	2,824497	0,92025	339,8724	0,361	84,12	0	1016,46	6,8	9	8,8	1	1	1	1	1	1	1	1	1	0	1	-9,090909	273,946863	310,245464	0
15.01.2021	17:54:48	0	0	4,858164	0,93	348,7644	0,366	84,118	0	1016,38	6,9	9	8,7	1	1	1	1	1	1	1	1	1	0	1	-8,949965	274,046314	310,850375	0
15.01.2021	17:54:49	0	0	3,050475	0,918	342,1152	0,361	84,116	0	1016,16	6,8	9	8,7	1	1	1	1	1	1	1	1	1	0	1	-10,077519	273,958711	309,3141	0
15.01.2021	17:54:50	0	0	4,745155	0,9345	333,1044	0,358	84,106	0	1016,4	7	9	8,8	1	1	1	1	1	1	1	1	1	0	1	-7,892882	274,119373	312,248622	0
15.01.2021	17:54:51	0	0	4,858164	0,89925	343,9152	0,358	84,121	0	1016,4	6,8	9	8,7	1	1	1	1	1	1	1	1	1	0	1	-10,007047	274,074611	309,925395	0
15.01.2021	17:54:52	0	0	4,067276	0,867	353,2464	0,361	84,112	0	1016,28	7	9	8,8	1	1	1	1	1	1	1	1	1	0	1	-11,627907	274,102948	308,436873	0
15.01.2021	17:54:53	0	0	4,745184	0,8295	344,3688	0,357	84,124	0	1016,28	6,8	9	8,7	1	1	1	1	1	1	1	1	1	0	1	-8,738548	273,954267	310,632349	0
15.01.2021	17:54:54	0	0	2,485572	0,7845	331,1532	0,36	84,129	0	1016,32	6,8	9	8,7	1	1	1	1	1	1	1	1	1	0	1	-12,121212	274,110413	307,978433	0
15.01.2021	17:54:55	0	0	2,824497	0,75375	328,8708	0,358	84,121	0	1016,28	6,9	9	8,8	1	1	1	1	1	1	1	1	1	0	1	-9,654686	273,989846	309,882152	0
15.01.2021	17:54:56	0	0	4,858135	0,68025	333,5472	0,356	84,129	0	1016,16	6,8	9	8,8	1	1	1	1	1	1	1	1	1	0	1	-10,42988	273,975014	309,037771	0
15.01.2021	17:54:57	0	0	2,937495	0,65625	333,5004	0,361	84,123	0	1016,4	6,8	9	8,7	1	1	1	1	1	1	1	1	1	0	1	-12,403101	274,11788	307,731425	0
15.01.2021	17:54:58	0	0	4,632175	0,609	327,9672	0,362	84,127	0	1016,54	6,8	9	8,8	1	1	1	1	1	1	1	1	1	0	1	-10,641297	274,101456	309,416512	0
15.01.2021	17:54:59	0	0	3,050457	0,58425	324,792	0,357	84,121	0	1016,36	6,8	9	8,8	1	1	1	1	1	1	1	1	1	0	1	-10,359408	274,001721	309,232827	0
15.01.2021	17:55:00	0	0	3,502398	0,56925	328,1148	0,356	84,121	0	1016,24	6,8	9	8,7	1	1	1	1	1	1	1	1	1	0	1	-15,503876	274,129833	304,686494	0
15.01.2021	17:55:01	0	0	3,050475	0,56925	334,1772	0,357	84,129	0	1016,32	6,8	9	8,7	1	1	1	1	1	1	1	1	1	0	1	-7,540521	274,016574	312,121017	0
15.01.2021	17:55:02	0	0	3,728336	0,5295	336,4344	0,361	84,124	0	1016,34	7	9	8,8	1	1	1	1	1	1	1	1	1	0	1	-4,651163	273,963156	314,761185	0
15.01.2021	17:55:03	0	0	4,180256	0,53325	336,4668	0,354	84,118	0	1016,34	6,8	9	8,8	1	1	1	1	1	1	1	1	1	0	1	-13,03735	274,085046	306,943821	0
15.01.2021	17:55:04	0	0	4,632203	0,567	335,4228	0,357	84,12	0	1016,34	6,8	9	8,7	1	1	1	1	1	1	1	1	1	0	1	-10,711769	273,960193	308,686759	0
15.01.2021	17:55:05	0	0	4,745184	0,60225	338,7924	0,355	84,121	0	1016,18	6,8	8,9	8,7	1	1	1	1	1	1	1	1	1	0	1	-9,866103	273,992814	309,684581	0
15.01.2021	17:55:06	0	0	3,502398	0,6735	334,6416	0,36	84,13	0	1016,56	6,9	8,9	8,7	1	1	1	1	1	1	1	1	1	0	1	-12,191684	274,044826	307,60171	0
15.01.2021	17:55:07	0	0	4,632175	0,74025	322,2288	0,353	84,134	0	1016,3	6,9	9	8,8	1	1	1	1	1	1	1	1	1	0	1	-7,258633	274,144785	313,001601	0
15.01.2021	17:55:08	0	0	3,728359	0,7155	322,2252	0,354	84,123	0	1016,32	6,8	9	8,7	1	1	1	1	1	1	1	1	1	0	1	-7,117689	274,012117	312,523052	0
15.01.2021	17:55:09	0	0	3,95432	0,726	332,3952	0,361	84,141	0	1016,36	6,8	9	8,7	1	1	1	1	1	1	1	1	1	0	1	-8,174771	273,955749	311,203033	0
15.01.2021	17:55:10	0	0	3,728336	0,7275	341,6832	0,36	84,131	0	1016,3	6,9	9	8,8	1	1	1	1	1	1	1	1	1	0	1	-5,778717	274,079082	314,174605	0
15.01.2021	17:55:11	0	0	3,615356	0,69825	340,5456	0,358	84,135	0	1016,42	6,8	9	8,8	1	1	1	1	1	1	1	1	1	0	1	-11,768851	274,131328	308,428502	0
15.01.2021	17:55:12	0	0	3,615356	0,6615	338,3388	0,358	84,145	0	1016,4	6,9	9	8,8	1	1	1	1	1	1	1	1	1	0	1	-7,329105	274,06716	312,568551	0
15.01.2021	17:55:13	0	0	2,824497	0,67425	344,1672	0,359	84,127	0	1016,32	7	9	8,8	1	1	1	1	1	1	1	1	1	0	1	-8,386187	274,15077	311,90201	0
15.01.2021	17:55:14	0	0	3,389417	0,66225	349,8732	0,356	84,135	0	1016,3	6,9	9	8,7	1	1	1	1	1	1	1	1	1	0	1	-11,980268	274,010631	307,653541	0
15.01.2021	17:55:15	0	0	4,180281	0,6705	339,9444	0,358	84,125	0	1016,4	6,8	9	8,7	1	1	1	1	1	1	1	1	1	0	1	-12,121212	274,122361	308,03425	0
15.01.2021	17:55:16	0	0	2,937477	0,65325	320,364	0,36	84,136	0	1016,32	6,8	9	8,8	1	1	1	1	1	1	1	1	1	0	1	-9,513742	274,026978	310,196347	0
15.01.2021	17:55:17	0	0	2,824514	0,72375	317,376	0,356	84,139	0	1016,4	6,8	9	8,7	1	1	1	1	1	1	1	1	1	0	1	-8,668076	273,961674	310,737362	0
15.01.2021	17:55:18	0	0	4,632175	0,816	330,3972	0,354	84,117	0	1016,34	6,8	8,9	8,8	1	1	1	1	1	1	1	1	1	0	1	-9,725159	274,104441	310,346593	0
15.01.2021	17:55:19	0	0	4,293261	0,8955	333,882	0,362	84,138	0	1016,32	6,8	8,9	8,7	1	1	1	1	1	1	1	1	1	0	1	-6,20155	274,119373	313,939954	0
15.01.2021	17:55:20	0	0	3,841316	0,93525	332,9568	0,355	84,131	0	1016,38	6,9	9	8,8	1	1	1	1	1	1	1	1	1	0	1	-7,610994	274,105934	312,46773	0
15.01.2021	17:55:21	0	0	4,0673	0,91425	330,0516	0,357	84,118	0	1016,26	6,8	9	8,7	1	1	1	1	1	1	1	1	1	0	1	-9,936575	274,132823	310,267762	0
15.01.2021	17:55:22	0	0	4,180256	0,89475	334,2924	0,353	84,121	0	1016,28	6,9	8,9	8,8	1	1	1	1	1	1	1	1	1	0	1	-9,44327	274,108919	310,649401	0
15.01.2021	17:55:23	0	0	2,711534	0,9165	330,2388	0,355	84,153	0	1016,34	6,8	9	8,7	1	1	1	1	1	1	1	1	1	0	1	-9,372798	273,989846	310,164041	0
15.01.2021	17:55:24	0	0	4,406242	0,90375	334,188	0,356	84,146	0	1016,4	6,8	9	8,7	1	1	1	1	1	1	1	1	1	0	1	-6,272023	274,120867	313,87646	0
15.01.2021	17:55:25	0	0	2,711534	0,915	338,328	0,345	84,129	0	1016,46	6,8	9	8,7	1	1	1	1	1	1	1	1	1	0	1	-5,919662	273,995783	313,64487	0
15.01.2021	17:55:26	0	0	4,745184	0,9225	339,2064	0,355	84,138	0	1016,34	6,9	9	8,7	1	1	1	1	1	1	1	1	1	0	1	-5,285412	274,098471	314,758457	0
15.01.2021	17:55:27	0	0	4,293261	0,8595	325,926	0,353	84,141	0	1016,24	6,9	9	8,7	1	1	1	1	1	1	1	1	1	0	1	-10,711769	274,093995	309,311195	0
15.01.2021	17:55:28	0	0	2,711517	0,86625	317,7972	0,348	84,142	0	1016,4	6,8	9	8,8	1	1	1	1	1	1	1	1	1	0	1	-8,949965	274,120867	311,198518	0
15.01.2021	17:55:29	0	0	5,197106	0,89775	328,2336	0,351	84,15	0	1016,38	6,8	9	8,7	1	1	1	1	1	1	1	1	1	0	1	-8,879493	274,102948	311,185287	0
15.01.2021	17:55:30	0	0	2,824497	0,9585	340,2	0,355	84,15	0	1016,38	6,9	9	8,8	1	1	1	1	1	1	1	1	1	0	1	-9,302326	274,131328	310,895028	0
15.01.2021	17:55:31	0	0	5,197106	0,957	334,6956	0,351	84,136	0	1016,2	6,9	9	8,7	1	1	1	1	1	1	1	1	1	0	1	-6,131078	274,021032	313,551264	0
15.01.2021	17:55:32	0	0	4,519195	0,94425	336,096	0,352	84,133	0	1016,28	6,8	9	8,8	1	1	1	1	1	1	1	1	1	0	1	-6,765328	274,11788	313,369198	0
15.01.2021	17:55:33	0	0	4,745155	0,9075	340,2504	0,358	84,151	0	1016,46	6,8	8,9	8,8	1	1	1	1	1	1	1	1	1	0	1	-7,540521	274,074611	312,391921	0
15.01.2021	17:55:34	0	0	4,632203	0,8955	342,306	0,352	84,144	0	1016,36	6,8	9	8,7	1	1	1	1	1	1	1	1	1	0	1	-10,288936	273,952786	309,075055	0
15.01.2021	17:55:35	0	0	3,502398	0,88425	343,1952	0,355	84,128	0	1016,18	6,9	9	8,7	1	1	1	1	1	1	1	1	1	0	1	-7,329105	274,000236	312,256203	0
15.01.2021	17:55:36	0	0	3,502376	0,85875	346,5432	0,353	84,158	0	1016,32	6,8	9	8,8	1	1	1	1	1	1	1	1	1	0	1	-11,486963	274,126844	308,689442	0
15.01.2021	17:55:37	0	0	4,0673	0,867	345,798	0,353	84,161	0	1016,32	6,8	9	8,7	1	1	1	1	1	1	1	1	1	0	1	-6,906272	274,049291	312,907963	0
15.01.2021	17:55:38	0	0	2,824514	0,85725	344,0052	0,355	84,14	0	1016,26	6,9	8,9	8,7	1	1	1	1	1	1	1	1	1	0	1	-9,795631	274,123856	310,366812	0
15.01.2021	17:55:39	0	0	3,389397	0,89625	342,1512	0,35	84,146	0	1016,38	6,9	9	8,8	1	1	1	1	1	1	1	1	1	0	1	-7,399577	274,022518	312,289701	0
15.01.2021	17:55:40	0	0	2,598553	0,89175	339,1488	0,354	84,157	0	1016,38	6,8	9	8,7	1	1	1	1	1	1	1	1	1	0	1	-8,033827	273,955749	311,343977	0
15.01.2021	17:55:41	0	0	2,598553	0,91575	339,8868	0,355	84,159	0	1016,28	6,9	9	8,7	1	1	1	1	1	1	1	1	1	0	1	-11,980268	274,07014	307,931301	0
15.01.2021	17:55:42	0	0	4,406242	0,954	327,7548	0,354	84,156	0	1016,26	6,9	9	8,7	1	1	1	1	1	1	1	1	1	0	1	-6,624383	274,120867	313,5241	0
15.01.2021	17:55:43	0	0	4,519195	1,0185	328,7268	0,35	84,147	0	1016,36	6,8	8,9	8,8	1	1	1	1	1	1	1	1	1	0	1	-10,923185	274,025491	308,779966	0
15.01.2021	17:55:44	0	0	3,728336	1,02075	330,8148	0,356	84,137	0	1016,34	6,9	9	8,8	1	1	1	1	1	1	1	1	1	0	1	-6,20155	274,120867	313,946933	0
15.01.2021	17:55:45	0	0	4,406242	1,044	327,3984	0,354	84,172	0	1016,26	6,9	9	8,7	1	1	1	1	1	1	1	1	1	0	1	-11,205074	273,994298	308,352533	0
15.01.2021	17:55:46	0	0	3,276436	1,092	320,3676	0,353	84,167	0	1016,36	6,9	9	8,7	1	1	1	1	1	1	1	1	1	0	1	-7,047216	274,06567	312,843484	0
15.01.2021	17:55:47	0	0	3,615378	1,12275	333,5004	0,353	84,16	0	1016,3	6,9	9	8,7	1	1	1	1	1	1	1	1	1	0	1	-5,778717	274,123856	314,383725	0
15.01.2021	17:55:48	0	0	4,406216	1,13175	341,6256	0,351	84,153	0	1016,36	6,8	9	8,8	1	1	1	1	1	1	1	1	1	0	1	-9,513742	273,948344	309,829534	0
15.01.2021	17:55:49	0	0	2,485572	1,191	327,9168	0,354	84,169	0	1016,26	6,9	9	8,7	1	1	1	1	1	1	1	1	1	0	1	-10,007047	273,972049	309,446774	0
15.01.2021	17:55:50	0	0	4,745184	1,2	327,3804	0,351	84,161	0	1016,28	6,8	9	8,7	1	1	1	1	1	1	1	1	1	0	1	-13,03735	273,955749	306,340454	0
15.01.2021	17:55:51	0	0	3,95432	1,16475	328,2048	0,355	84,168	0	1016,44	6,9	9	8,7	1	1	1	1	1	1	1	1	1	0	1	-10,007047	274,113399	310,106548	0
15.01.2021	17:55:52	0	0	3,163456	1,113	327,8232	0,355	84,158	0	1016,36	6,9	9	8,7	1	1	1	1	1	1	1	1	1	0	1	-12,191684	273,985395	307,324391	0
15.01.2021	17:55:53	0	0	3,615378	1,041	327,0852	0,353	84,161	0	1016,28	6,8	9	8,7	1	1	1	1	1	1	1	1	1	0	1	-10,711769	274,083555	309,262439	0
15.01.2021	17:55:54	0	0	3,728359	1,0155	319,5972	0,351	84,154	0	1016,32	6,9	9	8,7	1	1	1	1	1	1	1	1	1	0	1	-10,218464	273,955749	309,15934	0
15.01.2021	17:55:55	0	0	2,937495	0,9465	317,0016	0,352	84,179	0	1016,34	6,9	9	8,7	1	1	1	1	1	1	1	1	1	0	1	-10,007047	273,988363	309,52287	0
15.01.2021	17:55:56	0	0	3,389417	0,948	321,516	0,355	84,178	0	1016,36	6,9	9	8,7	1	1	1	1	1	1	1	1	1	0	1	-9,161381	273,945383	310,168088	0
15.01.2021	17:55:57	0	0	4,519223	0,8865	325,5876	0,348	84,178	0	1016,34	6,9	9	8,7	1	1	1	1	1	1	1	1	1	0	1	-9,513742	274,128339	310,669645	0
15.01.2021	17:55:58	0	0	3,163456	0,837	326,826	0,356	84,177	0	1016,32	6,9	9	8,7	1	1	1	1	1	1	1	1	1	0	1	-7,117689	274,07014	312,79388	0
15.01.2021	17:55:59	0	0	4,632175	0,77625	322,2756	0,353	84,164	0	1016,28	6,9	9	8,8	1	1	1	1	1	1	1	1	1	0	1	-9,654686	273,939462	309,647178	0
15.01.2021	17:56:00	0	0	4,406216	0,8025	316,6776	0,353	84,171	0	1016,28	6,9	9	8,8	1	1	1	1	1	1	1	1	1	0	1	-9,654686	274,059713	310,208199	0
15.01.2021	17:56:01	0	0	4,519223	0,83025	318,6252	0,352	84,176	0	1016,28	6,8	9	8,7	1	1	1	1	1	1	1	1	1	0	1	-12,684989	274,114893	307,435582	0
15.01.2021	17:56:02	0	0	5,084125	0,819	320,8284	0,351	84,164	0	1016,38	6,8	9	8,7	1	1	1	1	1	1	1	1	1	0	1	-10,147992	273,994298	309,409616	0
15.01.2021	17:56:03	0	0	4,971145	0,804	321,1308	0,357	84,178	0	1016,26	6,9	9	8,7	1	1	1	1	1	1	1	1	1	0	1	-14,305849	274,07163	305,612677	0
15.01.2021	17:56:04	0	0	3,95432	0,80025	321,4224	0,351	84,177	0	1016,28	6,8	9	8,7	1	1	1	1	1	1	1	1	1	0	1	-10,852713	274,129833	309,337657	0
15.01.2021	17:56:05	0	0	4,858164	0,76875	323,3916	0,354	84,193	0	1016,42	6,8	9	8,7	1	1	1	1	1	1	1	1	1	0	1	-9,090909	274,08952	310,911155	0
15.01.2021	17:56:06	0	0	2,146618	0,72825	326,3328	0,354	84,169	0	1016,22	6,9	8,9	8,8	1	1	1	1	1	1	1	1	1	0	1	-5,285412	273,939462	314,016452	0
15.01.2021	17:56:07	0	0	4,745184	0,702	325,9404	0,348	84,178	0	1016,22	6,9	9	8,7	1	1	1	1	1	1	1	1	1	0	1	-9,090909	274,07163	310,827617	0
15.01.2021	17:56:08	0	0	4,858164	0,66375	318,7656	0,344	84,186	0	1016,36	6,9	9	8,7	1	1	1	1	1	1	1	1	1	0	1	-9,866103	274,138803	310,366178	0
15.01.2021	17:56:09	0	0	2,937495	0,65025	305,424	0,352	84,187	0	1016,16	6,9	9	8,7	1	1	1	1	1	1	1	1	1	0	1	-9,372798	274,024005	310,323417	0
15.01.2021	17:56:10	0	0	4,180256	0,71625	309,2292	0,348	84,181	0	1016,38	6,9	9	8,8	1	1	1	1	1	1	1	1	1	0	1	-6,342495	273,95723	313,042217	0
15.01.2021	17:56:11	0	0	4,632203	0,75075	322,1856	0,351	84,18	0	1016,32	6,9	9	8,7	1	1	1	1	1	1	1	1	1	0	1	-12,05074	274,076101	307,888662	0
15.01.2021	17:56:12	0	0	5,310087	0,795	324,3924	0,354	84,192	0	1016,36	6,9	9	8,7	1	1	1	1	1	1	1	1	1	0	1	-9,302326	274,113399	310,81127	0
15.01.2021	17:56:13	0	0	3,163456	0,804	322,596	0,352	84,242	0	1016,42	6,9	9	8,7	1	1	1	1	1	1	1	1	1	0	1	-9,090909	273,989846	310,445929	0
15.01.2021	17:56:14	0	0	2,711534	0,82875	321,4872	0,351	84,185	0	1016,32	6,9	9	8,7	1	1	1	1	1	1	1	1	1	0	1	-9,866103	273,948344	309,477173	0
15.01.2021	17:56:15	0	0	4,971115	0,76725	316,2348	0,352	84,195	0	1016,32	6,8	9	8,8	1	1	1	1	1	1	1	1	1	0	1	-9,44327	274,07312	310,482214	0
15.01.2021	17:56:16	0	0	2,937477	0,75825	303,9588	0,348	84,197	0	1016,24	7	9	8,8	1	1	1	1	1	1	1	1	1	0	1	-9,725159	274,120867	310,423324	0
15.01.2021	17:56:17	0	0	4,293261	0,732	303,2136	0,35	84,192	0	1016,32	6,9	9	8,7	1	1	1	1	1	1	1	1	1	0	1	-9,44327	274,077591	310,503092	0
15.01.2021	17:56:18	0	0	3,841339	0,70275	309,5532	0,352	84,194	0	1016,34	6,9	9	8,7	1	1	1	1	1	1	1	1	1	0	1	-12,614517	273,961674	306,79092	0
15.01.2021	17:56:19	0	0	2,937495	0,75225	316,2348	0,352	84,2	0	1016,32	6,8	9	8,7	1	1	1	1	1	1	1	1	1	0	1	-10,007047	274,108919	310,085623	0
15.01.2021	17:56:20	0	0	4,180281	0,7605	317,7756	0,348	84,179	0	1016,44	6,9	9	8,7	1	1	1	1	1	1	1	1	1	0	1	-8,527132	274,102948	311,537648	0
15.01.2021	17:56:21	0	0	4,745184	0,76275	312,1416	0,346	84,193	0	1016,3	6,9	9	8,7	1	1	1	1	1	1	1	1	1	0	1	-9,161381	274,058223	310,694552	0
15.01.2021	17:56:22	0	0	2,711534	0,78375	314,5536	0,371	84,195	0	1016,26	6,8	8,9	8,7	1	1	1	1	1	1	1	1	1	0	1	-8,879493	273,937982	310,415472	0
15.01.2021	17:56:23	0	0	4,745184	0,78975	323,784	0,349	84,198	0	1016,36	6,9	9	8,7	1	1	1	1	1	1	1	1	1	0	1	-7,610994	274,049291	312,203241	0
15.01.2021	17:56:24	0	0	4,745184	0,7875	328,9248	0,349	84,186	0	1016,26	6,9	9	8,7	1	1	1	1	1	1	1	1	1	0	1	-9,372798	274,122361	310,782665	0
15.01.2021	17:56:25	0	0	3,502398	0,75225	336,744	0,348	84,211	0	1016,4	6,9	9	8,7	1	1	1	1	1	1	1	1	1	0	1	-9,513742	274,064181	310,370004	0
15.01.2021	17:56:26	0	0	4,632203	0,741	341,0244	0,351	84,211	0	1016,26	6,9	9	8,7	1	1	1	1	1	1	1	1	1	0	1	-8,80902	273,958711	310,582599	0
15.01.2021	17:56:27	0	0	2,824514	0,73575	329,9904	0,347	84,199	0	1016,26	6,9	9	8,7	1	1	1	1	1	1	1	1	1	0	1	-8,386187	274,038875	311,379428	0
15.01.2021	17:56:28	0	0	3,728359	0,74325	322,2324	0,35	84,202	0	1016,38	6,9	9	8,7	1	1	1	1	1	1	1	1	1	0	1	-10,007047	274,077591	309,939314	0
15.01.2021	17:56:29	0	0	3,050475	0,76575	334,6668	0,353	84,193	0	1016,32	6,8	9	8,7	1	1	1	1	1	1	1	1	1	0	1	-11,557435	274,113399	308,55616	0
15.01.2021	17:56:30	0	0	3,276436	0,768	341,3484	0,349	84,19	0	1016,3	6,9	9	8,7	1	1	1	1	1	1	1	1	1	0	1	-10,147992	273,99133	309,395769	0
15.01.2021	17:56:31	0	0	2,937495	0,78975	331,5636	0,346	84,201	0	1016,26	6,9	9	8,7	1	1	1	1	1	1	1	1	1	0	1	-10,359408	274,105934	309,719316	0
15.01.2021	17:56:32	0	0	4,858164	0,792	325,9692	0,349	84,204	0	1016,26	6,9	9	8,7	1	1	1	1	1	1	1	1	1	0	1	-8,245243	274,07312	311,680241	0
15.01.2021	17:56:33	0	0	3,615356	0,7755	329,6592	0,356	84,203	0	1016,16	6,9	9	8,8	1	1	1	1	1	1	1	1	1	0	1	-9,584214	273,945383	309,745256	0
15.01.2021	17:56:34	0	0	2,824497	0,81075	328,5828	0,349	84,216	0	1016,4	6,9	9	8,8	1	1	1	1	1	1	1	1	1	0	1	-13,319239	274,040363	306,45332	0
15.01.2021	17:56:35	0	0	4,632203	0,804	322,2576	0,35	84,196	0	1016,22	6,9	8,8	8,7	1	1	1	1	1	1	1	1	1	0	1	-7,399577	274,120867	312,748906	0
15.01.2021	17:56:36	0	0	2,824514	0,84525	321,1164	0,349	84,199	0	1016,46	6,9	9	8,7	1	1	1	1	1	1	1	1	1	0	1	-8,879493	274,047803	310,927794	0
15.01.2021	17:56:37	0	0	4,858164	0,88425	322,2612	0,343	84,216	0	1016,24	6,9	9	8,7	1	1	1	1	1	1	1	1	1	0	1	-9,584214	273,943903	309,738353	0
15.01.2021	17:56:38	0	0	4,632203	0,885	324,2664	0,345	84,21	0	1016,38	6,9	9	8,7	1	1	1	1	1	1	1	1	1	0	1	-10,147992	274,021032	309,534351	0
15.01.2021	17:56:39	0	0	3,502398	0,945	322,5564	0,349	84,202	0	1016,3	6,9	9	8,7	1	1	1	1	1	1	1	1	1	0	1	-11,346018	274,06567	308,544682	0
15.01.2021	17:56:40	0	0	4,180281	0,945	314,4096	0,35	84,192	0	1016,14	6,9	9	8,7	1	1	1	1	1	1	1	1	1	0	1	-8,80902	273,937982	310,485944	0
15.01.2021	17:56:41	0	0	4,745184	0,99075	311,76	0,345	84,2	0	1016,18	6,9	9	8,7	1	1	1	1	1	1	1	1	1	0	1	-12,614517	274,050779	307,206665	0
15.01.2021	17:56:42	0	0	4,519223	0,981	312,1236	0,351	84,22	0	1016,38	6,9	9	8,7	1	1	1	1	1	1	1	1	1	0	1	-6,694856	273,946863	312,641517	0
15.01.2021	17:56:43	0	0	5,423067	1,00425	314,9352	0,346	84,194	0	1016,24	6,8	9	8,7	1	1	1	1	1	1	1	1	1	0	1	-11,06413	274,082064	308,903115	0
15.01.2021	17:56:44	0	0	2,824514	0,98775	313,1856	0,35	84,216	0	1016,34	6,9	9	8,7	1	1	1	1	1	1	1	1	1	0	1	-8,597604	274,116386	311,529944	0
15.01.2021	17:56:45	0	0	4,293261	0,94575	309,33	0,352	84,214	0	1016,18	6,9	9	8,7	1	1	1	1	1	1	1	1	1	0	1	-10,218464	274,00766	309,401485	0
15.01.2021	17:56:46	0	0	2,598553	0,93075	304,2864	0,352	84,222	0	1016,2	6,9	9	8,7	1	1	1	1	1	1	1	1	1	0	1	-10,993658	273,940942	308,315107	0
15.01.2021	17:56:47	0	0	5,084125	0,94125	304,2	0,345	84,212	0	1016,24	6,9	9	8,7	1	1	1	1	1	1	1	1	1	0	1	-8,245243	274,06716	311,652413	0
15.01.2021	17:56:48	0	0	3,95432	0,9075	305,7516	0,346	84,225	0	1016,34	6,9	9	8,7	1	1	1	1	1	1	1	1	1	0	1	-10,218464	273,958711	309,173156	0
15.01.2021	17:56:49	0	0	4,745184	0,9105	307,1952	0,339	84,215	0	1016,26	6,9	9	8,7	1	1	1	1	1	1	1	1	1	0	1	-11,980268	273,983912	307,528888	0
15.01.2021	17:56:50	0	0	2,598553	0,8955	308,8368	0,348	84,221	0	1016,3	6,8	9	8,7	1	1	1	1	1	1	1	1	1	0	1	-10,570825	273,929105	308,682755	0
15.01.2021	17:56:51	0	0	3,163456	0,84825	317,8332	0,351	84,211	0	1016,5	6,8	9	8,7	1	1	1	1	1	1	1	1	1	0	1	-11,06413	274,119373	309,077374	0
15.01.2021	17:56:52	0	0	2,937495	0,8475	320,8176	0,35	84,229	0	1016,28	6,9	9	8,7	1	1	1	1	1	1	1	1	1	0	1	-9,936575	273,949825	309,413605	0
15.01.2021	17:56:53	0	0	2,598553	0,7905	310,7232	0,345	84,206	0	1016,24	6,9	9	8,7	1	1	1	1	1	1	1	1	1	0	1	-7,188161	274,049291	312,626074	0
15.01.2021	17:56:54	0	0	2,824497	0,7845	309,5784	0,348	84,219	0	1016,26	6,9	9	8,8	1	1	1	1	1	1	1	1	1	0	1	-13,460183	274,120867	306,6883	0
15.01.2021	17:56:55	0	0	3,276436	0,756	308,8296	0,346	84,217	0	1016,34	6,9	9	8,7	1	1	1	1	1	1	1	1	1	0	1	-11,134602	274,047803	308,672685	0
15.01.2021	17:56:56	0	0	3,050475	0,74175	303,9336	0,349	84,218	0	1016,38	6,9	9	8,7	1	1	1	1	1	1	1	1	1	0	1	-15,433404	273,946863	303,902969	0
15.01.2021	17:56:57	0	0	3,389417	0,78375	304,2216	0,346	84,212	0	1016,34	6,8	9	8,7	1	1	1	1	1	1	1	1	1	0	1	-10,42988	273,979462	309,05852	0
15.01.2021	17:56:58	0	0	4,745155	0,8445	300,852	0,344	84,226	0	1016,32	6,9	9	8,8	1	1	1	1	1	1	1	1	1	0	1	-8,174771	273,930585	311,085705	0
15.01.2021	17:56:59	0	0	3,050475	0,8445	301,626	0,347	84,216	0	1016,2	6,8	9	8,7	1	1	1	1	1	1	1	1	1	0	1	-6,976744	274,044826	312,81665	0
15.01.2021	17:57:00	0	0	3,728359	0,771	323,6832	0,351	84,227	0	1016,3	6,9	9	8,7	1	1	1	1	1	1	1	1	1	0	1	-7,117689	273,933543	312,156581	0
15.01.2021	17:57:01	0	0	3,728359	0,771	323,6832	0,351	84,227	0	1016,3	6,9	9	8,7	1	1	1	1	1	1	1	1	1	0	1	-5,637773	274,055245	314,204258	0
15.01.2021	17:57:02	0	0	3,728359	0,72825	312,1668	0,348	84,219	0	1016,38	6,9	9	8,7	1	1	1	1	1	1	1	1	1	0	1	-12,755462	274,076101	307,18394	0
15.01.2021	17:57:03	0	0	3,728359	0,71625	299,7648	0,351	84,227	0	1016,32	6,8	9	8,7	1	1	1	1	1	1	1	1	1	0	1	-9,725159	274,06567	310,165542	0
15.01.2021	17:57:04	0	0	3,389417	0,72075	296,064	0,347	84,225	0	1016,3	6,9	9	8,7	1	1	1	1	1	1	1	1	1	0	1	-10,852713	273,963156	308,559635	0
15.01.2021	17:57:05	0	0	2,372592	0,71025	303,516	0,349	84,228	0	1016,28	6,8	9	8,7	1	1	1	1	1	1	1	1	1	0	1	-6,765328	273,964638	312,653931	0
15.01.2021	17:57:06	0	0	5,084125	0,702	309,1824	0,347	84,229	0	1016,16	6,9	9	8,7	1	1	1	1	1	1	1	1	1	0	1	-12,332629	274,074611	307,599814	0
15.01.2021	17:57:07	0	0	3,95432	0,6945	301,6512	0,35	84,214	0	1016,34	6,9	9	8,7	1	1	1	1	1	1	1	1	1	0	1	-12,473573	273,95723	306,911138	0
15.01.2021	17:57:08	0	0	4,632203	0,72675	293,328	0,348	84,236	0	1016,16	6,8	9	8,7	1	1	1	1	1	1	1	1	1	0	1	-12,262156	274,01806	307,406316	0
15.01.2021	17:57:09	0	0	3,841339	0,75825	300,51	0,346	84,235	0	1016,26	6,9	9	8,7	1	1	1	1	1	1	1	1	1	0	1	-12,262156	273,949825	307,088024	0
15.01.2021	17:57:10	0	0	3,502398	0,73425	305,7264	0,346	84,211	0	1016,28	6,9	9	8,7	1	1	1	1	1	1	1	1	1	0	1	-11,768851	274,07014	308,142717	0
15.01.2021	17:57:11	0	0	3,502398	0,735	308,0808	0,348	84,231	0	1016,38	6,9	9	8,7	1	1	1	1	1	1	1	1	1	0	1	-10,077519	274,102948	309,98726	0
15.01.2021	17:57:12	0	0	3,615378	0,69825	313,2432	0,344	84,228	0	1016,32	6,9	9	8,7	1	1	1	1	1	1	1	1	1	0	1	-9,44327	273,960193	309,955258	0
15.01.2021	17:57:13	0	0	3,841339	0,6765	316,9872	0,351	84,217	0	1016,4	6,9	9	8,7	1	1	1	1	1	1	1	1	1	0	1	-9,231853	273,945383	310,097616	0
15.01.2021	17:57:14	0	0	3,050475	0,70725	321,4404	0,348	84,23	0	1016,3	6,9	9	8,7	1	1	1	1	1	1	1	1	1	0	1	-11,41649	273,982429	308,085746	0
15.01.2021	17:57:15	0	0	4,406242	0,74475	321,2496	0,347	84,241	0	1016,3	6,9	9	8,7	1	1	1	1	1	1	1	1	1	0	1	-10,147992	274,092503	309,868005	0
15.01.2021	17:57:16	0	0	3,615378	0,7725	316,2348	0,338	84,222	0	1016,34	6,9	9	8,7	1	1	1	1	1	1	1	1	1	0	1	-10,218464	274,064181	309,665282	0
15.01.2021	17:57:17	0	0	4,519223	0,81225	314,7948	0,343	84,229	0	1016,3	6,9	9	8,7	1	1	1	1	1	1	1	1	1	0	1	-12,825934	273,945383	306,503536	0
15.01.2021	17:57:18	0	0	2,372592	0,864	316,2384	0,34	84,223	0	1016,3	6,9	9	8,7	1	1	1	1	1	1	1	1	1	0	1	-12,403101	274,019546	307,272306	0
15.01.2021	17:57:19	0	0	4,180281	0,8745	311,5152	0,336	84,236	0	1016,28	6,9	9	8,7	1	1	1	1	1	1	1	1	1	0	1	-9,231853	273,940942	310,076911	0
15.01.2021	17:57:20	0	0	5,197106	0,89625	310,698	0,341	84,243	0	1016,22	6,9	9	8,7	1	1	1	1	1	1	1	1	1	0	1	-11,980268	273,945383	307,349202	0
15.01.2021	17:57:21	0	0	3,615378	0,8685	317,7684	0,337	84,222	0	1016,34	6,9	9	8,7	1	1	1	1	1	1	1	1	1	0	1	-10,218464	274,076101	309,720938	0
15.01.2021	17:57:22	0	0	2,485572	0,846	319,5576	0,347	84,25	0	1016,44	6,9	9	8,7	1	1	1	1	1	1	1	1	1	0	1	-15,785765	273,949825	303,564416	0
15.01.2021	17:57:23	0	0	4,406242	0,82575	312,7896	0,338	84,222	0	1016,32	6,9	9	8,7	1	1	1	1	1	1	1	1	1	0	1	-9,513742	274,062691	310,36305	0
15.01.2021	17:57:24	0	0	4,971145	0,81075	311,8032	0,343	84,227	0	1016,24	6,8	9	8,7	1	1	1	1	1	1	1	1	1	0	1	-10,923185	273,946863	308,413187	0
15.01.2021	17:57:25	0	0	3,502398	0,78225	317,3616	0,345	84,23	0	1016,38	6,9	9	8,7	1	1	1	1	1	1	1	1	1	0	1	-10,923185	274,046314	308,877155	0
15.01.2021	17:57:26	0	0	4,858164	0,74625	323,2908	0,348	84,241	0	1016,22	6,9	9	8,7	1	1	1	1	1	1	1	1	1	0	1	-9,44327	274,080573	310,517013	0
15.01.2021	17:57:27	0	0	4,180256	0,71325	320,8356	0,338	84,239	0	1016,28	6,9	9	8,8	1	1	1	1	1	1	1	1	1	0	1	-13,530655	273,937982	305,764309	0
15.01.2021	17:57:28	0	0	3,389417	0,684	311,4144	0,341	84,223	0	1016,26	6,9	9	8,7	1	1	1	1	1	1	1	1	1	0	1	-10,077519	273,982429	309,424717	0
15.01.2021	17:57:29	0	0	3,163456	0,66975	308,898	0,342	84,242	0	1016,36	6,9	9	8,7	1	1	1	1	1	1	1	1	1	0	1	-8,879493	274,098471	311,164376	0
15.01.2021	17:57:30	0	0	4,293261	0,65925	309,9096	0,34	84,222	0	1016,26	6,9	9	8,7	1	1	1	1	1	1	1	1	1	0	1	-11,698379	274,06567	308,192321	0
15.01.2021	17:57:31	0	0	4,971145	0,64725	315,2016	0,338	84,237	0	1016,32	6,9	9	8,7	1	1	1	1	1	1	1	1	1	0	1	-9,725159	273,949825	309,625022	0
15.01.2021	17:57:32	0	0	5,197106	0,6915	321,5052	0,342	84,245	0	1016,36	6,9	9	8,7	1	1	1	1	1	1	1	1	1	0	1	-8,879493	274,07312	311,045991	0
15.01.2021	17:57:33	0	0	3,276436	0,7725	323,712	0,346	84,23	0	1016,42	6,9	9	8,7	1	1	1	1	1	1	1	1	1	0	1	-6,483439	274,049291	313,330795	0
15.01.2021	17:57:34	0	0	4,293261	0,79425	320,7384	0,34	84,241	0	1016,4	6,9	9	8,7	1	1	1	1	1	1	1	1	1	0	1	-14,728682	274,119373	305,412822	0
15.01.2021	17:57:35	0	0	4,0673	0,8235	322,5744	0,339	84,244	0	1016,24	6,9	9	8,7	1	1	1	1	1	1	1	1	1	0	1	-8,315715	274,015088	311,33889	0
15.01.2021	17:57:36	0	0	3,389417	0,843	320,8032	0,342	84,247	0	1016,38	6,9	9	8,7	1	1	1	1	1	1	1	1	1	0	1	-11,768851	274,061202	308,100987	0
15.01.2021	17:57:37	0	0	3,163456	0,8325	317,7612	0,343	84,251	0	1016,44	6,9	9	8,7	1	1	1	1	1	1	1	1	1	0	1	-11,134602	273,949825	308,215579	0
15.01.2021	17:57:38	0	0	4,745184	0,75525	317,4552	0,337	84,236	0	1016,18	6,9	9	8,7	1	1	1	1	1	1	1	1	1	0	1	-11,698379	274,028464	308,018649	0
15.01.2021	17:57:39	0	0	4,406242	0,7515	314,5032	0,333	84,242	0	1016,48	6,9	9	8,7	1	1	1	1	1	1	1	1	1	0	1	-11,205074	273,937982	308,089891	0
15.01.2021	17:57:40	0	0	3,502398	0,71625	311,1408	0,336	84,241	0	1016,22	6,9	9	8,7	1	1	1	1	1	1	1	1	1	0	1	-8,104299	274,038875	311,661317	0
15.01.2021	17:57:41	0	0	3,502398	0,68025	309,9276	0,338	84,251	0	1016,28	6,9	9	8,7	1	1	1	1	1	1	1	1	1	0	1	-12,191684	273,942422	307,123981	0
15.01.2021	17:57:42	0	0	2,372592	0,68775	308,8584	0,341	84,231	0	1016,38	6,9	9	8,7	1	1	1	1	1	1	1	1	1	0	1	-8,45666	273,969084	310,983335	0
15.01.2021	17:57:43	0	0	3,276436	0,68475	309,636	0,342	84,256	0	1016,26	6,9	9	8,7	1	1	1	1	1	1	1	1	1	0	1	-5,21494	273,948344	314,128336	0
15.01.2021	17:57:44	0	0	3,050475	0,66675	314,8488	0,341	84,24	0	1016,2	6,9	9	8,7	1	1	1	1	1	1	1	1	1	0	1	-8,738548	273,986879	310,784448	0
15.01.2021	17:57:45	0	0	4,519223	0,6435	319,2588	0,339	84,26	0	1016,28	6,9	9	8,7	1	1	1	1	1	1	1	1	1	0	1	-14,446794	274,101456	305,611015	0
15.01.2021	17:57:46	0	0	2,711534	0,678	321,4872	0,341	84,242	0	1016,36	6,9	9	8,7	1	1	1	1	1	1	1	1	1	0	1	-11,768851	274,044826	308,024543	0
15.01.2021	17:57:47	0	0	3,276436	0,69225	323,3844	0,34	84,253	0	1016,18	6,9	9	8,7	1	1	1	1	1	1	1	1	1	0	1	-11,980268	273,954267	307,390629	0
15.01.2021	17:57:48	0	0	3,163456	0,669	326,3544	0,343	84,268	0	1016,36	6,9	9	8,7	1	1	1	1	1	1	1	1	1	0	1	-8,033827	274,077591	311,912535	0
15.01.2021	17:57:49	0	0	2,937495	0,68625	326,2536	0,344	84,251	0	1016,34	6,9	9	8,7	1	1	1	1	1	1	1	1	1	0	1	-12,403101	273,963156	307,009247	0
15.01.2021	17:57:50	0	0	4,293261	0,65625	324,072	0,336	84,246	0	1016,26	6,9	9	8,7	1	1	1	1	1	1	1	1	1	0	1	-12,191684	274,111906	307,914935	0
15.01.2021	17:57:51	0	0	4,745184	0,65025	318,2652	0,335	84,25	0	1016,3	6,9	9	8,7	1	1	1	1	1	1	1	1	1	0	1	-10,923185	273,946863	308,413187	0
15.01.2021	17:57:52	0	0	3,502398	0,6165	317,3292	0,34	84,259	0	1016,3	6,9	9	8,7	1	1	1	1	1	1	1	1	1	0	1	-8,80902	273,992814	310,741663	0
15.01.2021	17:57:53	0	0	2,598553	0,6015	315,2592	0,338	84,258	0	1016,18	6,9	9	8,7	1	1	1	1	1	1	1	1	1	0	1	-9,936575	273,946863	309,399798	0
15.01.2021	17:57:54	0	0	4,406242	0,618	314,8488	0,338	84,267	0	1016,64	6,9	9	8,7	1	1	1	1	1	1	1	1	1	0	1	-14,235377	274,105934	305,843347	0
15.01.2021	17:57:55	0	0	4,745184	0,65625	315,5328	0,335	84,262	0	1016,28	6,9	9	8,7	1	1	1	1	1	1	1	1	1	0	1	-10,993658	274,04185	308,785846	0
15.01.2021	17:57:56	0	0	4,632203	0,6405	318,9132	0,335	84,249	0	1016,32	6,9	9	8,7	1	1	1	1	1	1	1	1	1	0	1	-7,892882	274,107427	312,192814	0
15.01.2021	17:57:57	0	0	4,971145	0,63825	312,372	0,335	84,264	0	1016,42	6,9	8,8	8,7	1	1	1	1	1	1	1	1	1	0	1	-10,147992	274,016574	309,513547	0
15.01.2021	17:57:58	0	0	4,293261	0,65175	310,7196	0,34	84,251	0	1016,28	6,9	9	8,7	1	1	1	1	1	1	1	1	1	0	1	-12,121212	274,11788	308,013314	0
15.01.2021	17:57:59	0	0	5,197106	0,639	320,1156	0,335	84,257	0	1016,3	6,9	9	8,7	1	1	1	1	1	1	1	1	1	0	1	-10,007047	274,022518	309,682231	0
15.01.2021	17:58:00	0	0	2,937495	0,63225	325,1412	0,346	84,277	0	1016,38	6,9	9	8,7	1	1	1	1	1	1	1	1	1	0	1	-8,949965	273,932064	310,317407	0
15.01.2021	17:58:01	0	0	2,937495	0,63225	325,1412	0,346	84,277	0	1016,38	6,9	9	8,7	1	1	1	1	1	1	1	1	1	0	1	-11,06413	274,102948	309,00065	0
15.01.2021	17:58:02	0	0	2,372592	0,672	322,5384	0,34	84,271	0	1016,28	6,9	9	8,7	1	1	1	1	1	1	1	1	1	0	1	-9,725159	274,024005	309,971056	0
15.01.2021	17:58:03	0	0	4,745184	0,68625	321,8652	0,338	84,273	0	1016,16	6,9	9	8,7	1	1	1	1	1	1	1	1	1	0	1	-10,288936	273,948344	309,05434	0
15.01.2021	17:58:04	0	0	2,711534	0,75375	325,9512	0,338	84,267	0	1016,4	6,9	9	8,7	1	1	1	1	1	1	1	1	1	0	1	-8,033827	273,976497	311,44074	0
15.01.2021	17:58:05	0	0	4,858164	0,75075	327,1716	0,331	84,266	0	1016,36	6,9	9	8,7	1	1	1	1	1	1	1	1	1	0	1	-9,584214	273,930585	309,676261	0
15.01.2021	17:58:06	0	0	3,615378	0,78225	321,8328	0,338	84,266	0	1016,3	6,9	9	8,7	1	1	1	1	1	1	1	1	1	0	1	-6,8358	274,029951	312,888167	0
15.01.2021	17:58:07	0	0	3,841339	0,77175	317,0592	0,34	84,285	0	1016,36	6,9	9	8,7	1	1	1	1	1	1	1	1	1	0	1	-12,403101	274,105934	307,675623	0
15.01.2021	17:58:08	0	0	3,841339	0,75525	317,7144	0,332	84,264	0	1016,3	6,9	9	8,7	1	1	1	1	1	1	1	1	1	0	1	-12,191684	274,038875	307,573931	0
15.01.2021	17:58:09	0	0	3,389417	0,753	324,4248	0,343	84,275	0	1016,3	6,9	9	8,7	1	1	1	1	1	1	1	1	1	0	1	-9,161381	273,933543	310,112888	0
15.01.2021	17:58:10	0	0	2,937495	0,79275	320,7168	0,339	84,268	0	1016,36	6,9	9	8,7	1	1	1	1	1	1	1	1	1	0	1	-10,359408	273,979462	309,128993	0
15.01.2021	17:58:11	0	0	2,711534	0,79875	309,9492	0,333	84,257	0	1016,34	6,9	9	8,7	1	1	1	1	1	1	1	1	1	0	1	-10,711769	274,105934	309,366955	0
15.01.2021	17:58:12	0	0	4,632203	0,792	320,0256	0,332	84,281	0	1016,3	6,9	9	8,7	1	1	1	1	1	1	1	1	1	0	1	-6,20155	273,964638	313,217708	0
15.01.2021	17:58:13	0	0	3,615378	0,82275	329,3028	0,337	84,277	0	1016,36	6,9	9	8,7	1	1	1	1	1	1	1	1	1	0	1	-9,090909	274,105934	310,987815	0
15.01.2021	17:58:14	0	0	4,858164	0,822	324,3636	0,334	84,276	0	1016,32	6,9	9	8,7	1	1	1	1	1	1	1	1	1	0	1	-7,258633	274,024005	312,437582	0
15.01.2021	17:58:15	0	0	3,615378	0,819	322,6356	0,338	84,284	0	1016,42	6,9	9	8,7	1	1	1	1	1	1	1	1	1	0	1	-8,879493	274,099963	311,171346	0
15.01.2021	17:58:16	0	0	2,711534	0,82425	322,5924	0,337	84,283	0	1016,28	6,9	9	8,7	1	1	1	1	1	1	1	1	1	0	1	-9,584214	274,047803	310,223073	0
15.01.2021	17:58:17	0	0	2,711534	0,80175	321,8544	0,331	84,279	0	1016,32	6,9	9	8,7	1	1	1	1	1	1	1	1	1	0	1	-11,839323	274,102948	308,225456	0
15.01.2021	17:58:18	0	0	2,824514	0,879	316,638	0,332	84,276	0	1016,3	6,9	9	8,7	1	1	1	1	1	1	1	1	1	0	1	-10,641297	274,04185	309,138207	0
15.01.2021	17:58:19	0	0	3,502398	0,8985	311,7636	0,336	84,288	0	1016,2	6,9	9	8,7	1	1	1	1	1	1	1	1	1	0	1	-7,681466	274,061202	312,188372	0
15.01.2021	17:58:20	0	0	2,937495	0,92475	315,126	0,333	84,282	0	1016,44	6,9	9	8,7	1	1	1	1	1	1	1	1	1	0	1	-9,231853	274,099963	310,818985	0
15.01.2021	17:58:21	0	0	3,163456	0,91275	316,314	0,335	84,282	0	1016,32	6,9	9	8,7	1	1	1	1	1	1	1	1	1	0	1	-10,500352	273,976497	308,974215	0
15.01.2021	17:58:22	0	0	2,485572	0,918	296,172	0,334	84,287	0	1016,22	6,9	9	8,7	1	1	1	1	1	1	1	1	1	0	1	-7,82241	274,074611	312,110032	0
15.01.2021	17:58:23	0	0	3,502398	0,88125	291,4488	0,334	84,287	0	1016,34	6,9	9	8,7	1	1	1	1	1	1	1	1	1	0	1	-9,513742	274,110413	310,585903	0
15.01.2021	17:58:24	0	0	3,276436	0,873	306,234	0,33	84,281	0	1016,32	6,9	9	8,7	1	1	1	1	1	1	1	1	1	0	1	-13,6716	274,07312	306,253884	0
15.01.2021	17:58:25	0	0	3,502398	0,834	310,6368	0,332	84,284	0	1016,28	6,9	9	8,7	1	1	1	1	1	1	1	1	1	0	1	-7,117689	273,964638	312,30157	0
15.01.2021	17:58:26	0	0	2,711534	0,80625	306,432	0,328	84,286	0	1016,4	6,9	9	8,7	1	1	1	1	1	1	1	1	1	0	1	-11,839323	274,077591	308,107038	0
15.01.2021	17:58:27	0	0	3,615378	0,801	301,23	0,325	84,283	0	1016,24	6,9	9	8,7	1	1	1	1	1	1	1	1	1	0	1	-11,41649	274,026978	308,293599	0
15.01.2021	17:58:28	0	0	4,519223	0,7605	298,278	0,336	84,289	0	1016,38	6,9	9	8,7	1	1	1	1	1	1	1	1	1	0	1	-10,852713	274,091012	309,156317	0
15.01.2021	17:58:29	0	0	4,0673	0,78975	299,1348	0,334	84,287	0	1016,16	6,9	9	8,7	1	1	1	1	1	1	1	1	1	0	1	-7,610994	274,047803	312,196293	0
15.01.2021	17:58:30	0	0	4,406242	0,78675	302,0364	0,336	84,307	0	1016,3	6,9	9	8,7	1	1	1	1	1	1	1	1	1	0	1	-10,852713	274,101456	309,205096	0
15.01.2021	17:58:31	0	0	4,745184	0,7845	300,4668	0,333	84,304	0	1016,28	6,9	9	8,7	1	1	1	1	1	1	1	1	1	0	1	-11,980268	274,08952	308,021796	0
15.01.2021	17:58:32	0	0	3,728359	0,73725	298,6596	0,335	84,299	0	1016,26	6,9	9	8,7	1	1	1	1	1	1	1	1	1	0	1	-10,500352	273,930585	308,760123	0
15.01.2021	17:58:33	0	0	4,293261	0,7275	299,106	0,33	84,276	0	1016,18	6,9	9	8,7	1	1	1	1	1	1	1	1	1	0	1	-7,470049	273,976497	312,004518	0
15.01.2021	17:58:34	0	0	5,084125	0,68775	299,79	0,332	84,281	0	1016,24	6,9	9	8,7	1	1	1	1	1	1	1	1	1	0	1	-6,342495	273,927626	312,90419	0
15.01.2021	17:58:35	0	0	3,615378	0,6165	301,6116	0,328	84,278	0	1016,1	6,9	9	8,7	1	1	1	1	1	1	1	1	1	0	1	-13,6716	274,044826	306,121794	0
15.01.2021	17:58:36	0	0	3,95432	0,62625	308,124	0,335	84,287	0	1016,24	6,9	9	8,7	1	1	1	1	1	1	1	1	1	0	1	-10,500352	273,930585	308,760123	0
15.01.2021	17:58:37	0	0	3,276436	0,597	310,9968	0,335	84,277	0	1016,16	6,9	9	8,7	1	1	1	1	1	1	1	1	1	0	1	-7,681466	274,032925	312,056381	0
15.01.2021	17:58:38	0	0	5,197106	0,56325	299,8692	0,328	84,283	0	1016,24	6,9	9	8,7	1	1	1	1	1	1	1	1	1	0	1	-11,41649	273,935023	307,864677	0
15.01.2021	17:58:39	0	0	2,372592	0,5775	292,3056	0,333	84,291	0	1016,34	6,9	9	8,7	1	1	1	1	1	1	1	1	1	0	1	-11,346018	274,031438	308,384889	0
15.01.2021	17:58:40	0	0	2,259611	0,561	297,9756	0,333	84,3	0	1016,34	6,9	9	8,7	1	1	1	1	1	1	1	1	1	0	1	-10,288936	273,943903	309,033632	0
15.01.2021	17:58:41	0	0	3,276436	0,60825	304,9488	0,33	84,294	0	1016,24	6,9	9	8,7	1	1	1	1	1	1	1	1	1	0	1	-10,218464	274,050779	309,602719	0
15.01.2021	17:58:42	0	0	4,293261	0,603	303,5376	0,333	84,279	0	1016,3	6,9	9	8,7	1	1	1	1	1	1	1	1	1	0	1	-11,275546	274,082064	308,691699	0
15.01.2021	17:58:43	0	0	2,937495	0,6315	300,078	0,337	84,296	0	1016,38	6,9	9	8,7	1	1	1	1	1	1	1	1	1	0	1	-7,329105	274,01806	312,339367	0
15.01.2021	17:58:44	0	0	4,632203	0,681	298,6884	0,329	84,301	0	1016,3	6,9	9	8,7	1	1	1	1	1	1	1	1	1	0	1	-9,513742	273,939462	309,788122	0
15.01.2021	17:58:45	0	0	2,485572	0,73125	300,8376	0,331	84,308	0	1016,32	6,9	9	8,7	1	1	1	1	1	1	1	1	1	0	1	-13,6716	273,99133	305,872161	0
15.01.2021	17:58:46	0	0	4,0673	0,77625	320,0508	0,334	84,306	0	1016,34	6,9	9	8,7	1	1	1	1	1	1	1	1	1	0	1	-7,258633	274,095487	312,771299	0
15.01.2021	17:58:47	0	0	2,937495	0,76875	325,0404	0,33	84,308	0	1016,42	6,9	9	8,7	1	1	1	1	1	1	1	1	1	0	1	-7,399577	273,973531	312,061159	0
15.01.2021	17:58:48	0	0	4,745184	0,8145	315,9	0,33	84,302	0	1016,22	6,9	9	8,7	1	1	1	1	1	1	1	1	1	0	1	-7,258633	274,110413	312,841012	0
15.01.2021	17:58:49	0	0	2,937495	0,83325	303,5628	0,331	84,308	0	1016,42	6,9	9	8,7	1	1	1	1	1	1	1	1	1	0	1	-11,134602	273,958711	308,257018	0
15.01.2021	17:58:50	0	0	2,485572	0,88425	296,4096	0,333	84,312	0	1016,3	6,9	8,8	8,7	1	1	1	1	1	1	1	1	1	0	1	-10,782241	274,062691	309,094551	0
15.01.2021	17:58:51	0	0	4,519223	0,9135	302,8788	0,329	84,307	0	1016,22	7	9	8,7	1	1	1	1	1	1	1	1	1	0	1	-8,245243	273,926147	310,994547	0
15.01.2021	17:58:52	0	0	3,050475	0,993	304,5636	0,326	84,297	0	1016,36	6,9	9	8,7	1	1	1	1	1	1	1	1	1	0	1	-14,094433	274,034413	305,650356	0
15.01.2021	17:58:53	0	0	3,728359	1,06875	303,2568	0,331	84,315	0	1016,4	6,9	8,8	8,7	1	1	1	1	1	1	1	1	1	0	1	-8,174771	274,093995	311,848193	0
15.01.2021	17:58:54	0	0	3,276436	1,0755	305,7228	0,328	84,302	0	1016,38	6,9	9	8,7	1	1	1	1	1	1	1	1	1	0	1	-5,285412	274,056734	314,56357	0
15.01.2021	17:58:55	0	0	3,163456	1,08	309,5388	0,329	84,317	0	1016,14	6,9	9	8,7	1	1	1	1	1	1	1	1	1	0	1	-13,107822	274,082064	306,859423	0
15.01.2021	17:58:56	0	0	2,824514	1,125	312,4944	0,327	84,315	0	1016,26	6,9	9	8,7	1	1	1	1	1	1	1	1	1	0	1	-6,060606	274,07312	313,864878	0
15.01.2021	17:58:57	0	0	4,406242	1,17675	311,7348	0,33	84,295	0	1016,14	6,9	9	8,7	1	1	1	1	1	1	1	1	1	0	1	-10,641297	274,07163	309,277229	0
15.01.2021	17:58:58	0	0	4,293261	1,1805	306,8208	0,333	84,304	0	1016,4	6,9	9	8,7	1	1	1	1	1	1	1	1	1	0	1	-6,553911	273,975014	312,91374	0
15.01.2021	17:58:59	0	0	3,050475	1,2405	311,7492	0,332	84,303	0	1016,3	6,9	9	8,7	1	1	1	1	1	1	1	1	1	0	1	-10,782241	274,107427	309,303456	0
15.01.2021	17:59:00	0	0	4,180281	1,269	305,442	0,331	84,302	0	1016,26	6,9	9	8,7	1	1	1	1	1	1	1	1	1	0	1	-8,80902	274,080573	311,151263	0
15.01.2021	17:59:01	0	0	2,372592	1,32825	305,3376	0,348	84,305	0	1016,52	6,9	9	8,7	1	1	1	1	1	1	1	1	1	0	1	-10,218464	274,102948	309,846316	0
15.01.2021	17:59:02	0	0	3,841339	1,4055	306,8496	0,328	84,297	0	1016,22	6,9	9	8,7	1	1	1	1	1	1	1	1	1	0	1	-10,288936	274,056734	309,560046	0
15.01.2021	17:59:03	0	0	3,728359	1,40475	308,9772	0,328	84,311	0	1016,22	6,9	9	8,7	1	1	1	1	1	1	1	1	1	0	1	-8,527132	273,942422	310,788534	0
15.01.2021	17:59:04	0	0	4,293261	1,3425	305,7984	0,329	84,303	0	1016,26	6,9	9	8,7	1	1	1	1	1	1	1	1	1	0	1	-8,174771	273,977979	311,306712	0
15.01.2021	17:59:05	0	0	4,519223	1,28925	303,8904	0,325	84,306	0	1016,34	6,9	9	8,7	1	1	1	1	1	1	1	1	1	0	1	-8,315715	274,050779	311,505467	0
15.01.2021	17:59:06	0	0	4,858164	1,26	299,718	0,328	84,323	0	1016,46	6,9	9	8,7	1	1	1	1	1	1	1	1	1	0	1	-11,839323	274,076101	308,100078	0
15.01.2021	17:59:07	0	0	2,937495	1,239	285,8616	0,327	84,325	0	1016,34	6,9	9	8,7	1	1	1	1	1	1	1	1	1	0	1	-10,852713	273,969084	308,587281	0
15.01.2021	17:59:08	0	0	3,95432	1,18875	299,754	0,331	84,323	0	1016,38	6,9	9	8,7	1	1	1	1	1	1	1	1	1	0	1	-8,80902	274,110413	311,290624	0
15.01.2021	17:59:09	0	0	3,276436	1,09575	306,18	0,329	84,328	0	1016,28	6,9	8,8	8,7	1	1	1	1	1	1	1	1	1	0	1	-9,584214	274,00766	310,035734	0
15.01.2021	17:59:10	0	0	3,95432	1,029	292,9824	0,332	84,336	0	1016,34	6,9	9	8,7	1	1	1	1	1	1	1	1	1	0	1	-10,993658	274,111906	309,112962	0
15.01.2021	17:59:11	0	0	4,406242	0,95175	279,2772	0,328	84,323	0	1016,34	6,9	9	8,7	1	1	1	1	1	1	1	1	1	0	1	-10,852713	274,091012	309,156317	0
15.01.2021	17:59:12	0	0	2,711534	1,035	297,9108	0,323	84,328	0	1016,4	6,9	9	8,7	1	1	1	1	1	1	1	1	1	0	1	-11,134602	273,937982	308,160363	0
15.01.2021	17:59:13	0	0	3,163456	1,0365	300,9924	0,327	84,326	0	1016,18	6,9	8,8	8,7	1	1	1	1	1	1	1	1	1	0	1	-8,949965	273,983912	310,559191	0
15.01.2021	17:59:14	0	0	2,937495	1,041	279,99	0,328	84,333	0	1016,26	6,9	9	8,7	1	1	1	1	1	1	1	1	1	0	1	-6,624383	274,079082	313,328939	0
15.01.2021	17:59:15	0	0	4,858164	1,0725	277,2468	0,326	84,334	0	1016,36	6,9	9	8,7	1	1	1	1	1	1	1	1	1	0	1	-10,500352	273,935023	308,780815	0
15.01.2021	17:59:16	0	0	4,971145	1,0755	287,3916	0,322	84,329	0	1016,22	6,9	9	8,7	1	1	1	1	1	1	1	1	1	0	1	-12,191684	274,061202	307,678154	0
15.01.2021	17:59:17	0	0	2,824514	1,06875	285,5484	0,326	84,342	0	1016,48	6,9	8,8	8,7	1	1	1	1	1	1	1	1	1	0	1	-8,104299	273,939462	311,197566	0
15.01.2021	17:59:18	0	0	4,632203	1,07025	294,4296	0,331	84,336	0	1016,32	6,9	8,8	8,7	1	1	1	1	1	1	1	1	1	0	1	-11,06413	274,024005	308,632085	0
15.01.2021	17:59:19	0	0	2,711534	1,11375	295,2072	0,325	84,337	0	1016,3	6,9	9	8,7	1	1	1	1	1	1	1	1	1	0	1	-9,725159	273,954267	309,645739	0
15.01.2021	17:59:20	0	0	4,180281	1,146	284,8464	0,326	84,329	0	1016,36	6,9	9	8,7	1	1	1	1	1	1	1	1	1	0	1	-10,359408	274,082064	309,607837	0
15.01.2021	17:59:21	0	0	4,293261	1,13475	285,9372	0,33	84,337	0	1016,48	6,9	9	8,7	1	1	1	1	1	1	1	1	1	0	1	-6,624383	273,969084	312,815611	0
15.01.2021	17:59:22	0	0	4,632203	1,10025	296,4672	0,327	84,34	0	1016,32	6,9	9	8,7	1	1	1	1	1	1	1	1	1	0	1	-12,332629	273,935023	306,948538	0
15.01.2021	17:59:23	0	0	4,858164	1,13025	300,1284	0,327	84,335	0	1016,32	6,9	9	8,7	1	1	1	1	1	1	1	1	1	0	1	-10,42988	273,951305	308,927205	0
15.01.2021	17:59:24	0	0	3,615356	1,09275	299,034	0,323	84,336	0	1016,34	6,9	9	8,8	1	1	1	1	1	1	1	1	1	0	1	-6,20155	273,933543	313,072719	0
15.01.2021	17:59:25	0	0	2,372592	1,1265	295,6896	0,319	84,334	0	1016,44	6,9	9	8,7	1	1	1	1	1	1	1	1	1	0	1	-5,144468	273,995783	314,420064	0
15.01.2021	17:59:26	0	0	3,050475	1,11	312,2352	0,317	84,338	0	1016,24	6,9	8,8	8,7	1	1	1	1	1	1	1	1	1	0	1	-9,513742	273,929105	309,739838	0
15.01.2021	17:59:27	0	0	3,728359	1,113	319,1832	0,318	84,328	0	1016,24	6,9	9	8,7	1	1	1	1	1	1	1	1	1	0	1	-10,359408	274,021032	309,322934	0
15.01.2021	17:59:28	0	0	5,084125	1,0935	307,1844	0,326	84,35	0	1016,3	6,9	9	8,7	1	1	1	1	1	1	1	1	1	0	1	-9,161381	274,104441	310,91037	0
15.01.2021	17:59:29	0	0	4,971145	1,092	296,4888	0,326	84,343	0	1016,34	6,9	9	8,7	1	1	1	1	1	1	1	1	1	0	1	-11,768851	274,009146	307,858027	0
15.01.2021	17:59:30	0	0	2,824514	1,1175	292,6692	0,32	84,346	0	1016,32	6,9	9	8,7	1	1	1	1	1	1	1	1	1	0	1	-8,527132	273,958711	310,864488	0
15.01.2021	17:59:31	0	0	3,95432	1,086	297,594	0,324	84,36	0	1016,34	6,9	9	8,7	1	1	1	1	1	1	1	1	1	0	1	-8,949965	274,110413	311,14968	0
15.01.2021	17:59:32	0	0	3,728359	1,0395	300,8376	0,326	84,344	0	1016,22	6,9	9	8,7	1	1	1	1	1	1	1	1	1	0	1	-11,839323	274,050779	307,981859	0
15.01.2021	17:59:33	0	0	2,598553	0,97875	300,0528	0,324	84,33	0	1016,3	6,9	8,8	8,7	1	1	1	1	1	1	1	1	1	0	1	-14,023961	273,95723	305,360751	0
15.01.2021	17:59:34	0	0	4,406242	0,9435	302,112	0,319	84,319	0	1016,18	6,9	8,8	8,7	1	1	1	1	1	1	1	1	1	0	1	-10,923185	274,098471	309,120683	0
15.01.2021	17:59:35	0	0	3,728359	0,87675	297,9108	0,32	84,337	0	1016,24	6,9	9	8,7	1	1	1	1	1	1	1	1	1	0	1	-9,020437	273,975014	310,447214	0
15.01.2021	17:59:36	0	0	2,824514	0,8835	298,6416	0,325	84,345	0	1016,24	6,9	9	8,7	1	1	1	1	1	1	1	1	1	0	1	-14,235377	274,101456	305,822432	0
15.01.2021	17:59:37	0	0	3,050475	0,8235	311,9292	0,321	84,345	0	1016,28	6,9	9	8,7	1	1	1	1	1	1	1	1	1	0	1	-8,104299	273,994298	311,453308	0
15.01.2021	17:59:38	0	0	2,937495	0,813	334,9836	0,326	84,338	0	1016,32	6,9	9	8,7	1	1	1	1	1	1	1	1	1	0	1	-11,346018	274,110413	308,753626	0
15.01.2021	17:59:39	0	0	4,745184	0,81075	339,3972	0,321	84,324	0	1016,28	6,9	9	8,7	1	1	1	1	1	1	1	1	1	0	1	-14,164905	273,979462	305,323496	0
15.01.2021	17:59:40	0	0	3,276436	0,7935	332,73	0,319	84,327	0	1016,22	6,9	8,8	8,7	1	1	1	1	1	1	1	1	1	0	1	-5,567301	273,939462	313,734563	0
15.01.2021	17:59:41	0	0	4,632203	0,78825	316,3644	0,322	84,334	0	1016,32	6,9	9	8,7	1	1	1	1	1	1	1	1	1	0	1	-14,164905	274,096979	305,871995	0
15.01.2021	17:59:42	0	0	3,841339	0,7935	311,0544	0,321	84,337	0	1016,34	6,9	9	8,7	1	1	1	1	1	1	1	1	1	0	1	-12,121212	274,038875	307,644403	0
15.01.2021	17:59:43	0	0	4,745155	0,747	311,0832	0,321	84,35	0	1016,34	6,9	9	8,8	1	1	1	1	1	1	1	1	1	0	1	-8,033827	273,918754	311,1715	0
15.01.2021	17:59:44	0	0	4,0673	0,73725	321,1236	0,322	84,334	0	1016,22	6,9	9	8,7	1	1	1	1	1	1	1	1	1	0	1	-11,839323	273,986879	307,683672	0
15.01.2021	17:59:45	0	0	4,406242	0,714	345,3696	0,319	84,349	0	1016,36	6,9	9	8,7	1	1	1	1	1	1	1	1	1	0	1	-11,06413	274,098471	308,979739	0
15.01.2021	17:59:46	0	0	2,824514	0,6765	6,0516	0,32	84,344	0	1016,24	6,9	9	8,7	1	1	1	1	1	1	1	1	1	0	1	-12,05074	273,988363	307,479177	0
15.01.2021	17:59:47	0	0	2,259611	0,64725	3,8592	0,319	84,337	0	1016,36	6,9	9	8,7	1	1	1	1	1	1	1	1	1	0	1	-11,06413	273,949825	308,286051	0
15.01.2021	17:59:48	0	0	5,084125	0,6495	360	0,322	84,339	0	1016,3	6,9	9	8,7	1	1	1	1	1	1	1	1	1	0	1	-14,376321	274,064181	305,507424	0
15.01.2021	17:59:49	0	0	4,745184	0,62325	350,3412	0,32	84,355	0	1016,42	6,9	9	8,7	1	1	1	1	1	1	1	1	1	0	1	-11,980268	273,946863	307,356105	0
15.01.2021	17:59:50	0	0	4,519223	0,61125	340,9848	0,322	84,354	0	1016,32	6,9	9	8,7	1	1	1	1	1	1	1	1	1	0	1	-9,513742	273,977979	309,967741	0
15.01.2021	17:59:51	0	0	3,95432	0,58875	335,25	0,318	84,338	0	1016,18	6,9	9	8,7	1	1	1	1	1	1	1	1	1	0	1	-5,990134	274,08952	314,01193	0
15.01.2021	17:59:52	0	0	3,841339	0,62025	338,4036	0,321	84,357	0	1016,22	6,9	9	8,7	1	1	1	1	1	1	1	1	1	0	1	-11,275546	274,080573	308,684737	0
15.01.2021	17:59:53	0	0	3,050475	0,65775	352,4976	0,32	84,357	0	1016,34	6,9	8,8	8,7	1	1	1	1	1	1	1	1	1	0	1	-13,812544	274,096979	306,224356	0
15.01.2021	17:59:54	0	0	3,163456	0,6465	354,9744	0,322	84,362	0	1016,28	6,9	8,8	8,7	1	1	1	1	1	1	1	1	1	0	1	-12,403101	273,989846	307,133738	0
15.01.2021	17:59:55	0	0	3,502398	0,67725	342,7308	0,32	84,357	0	1016,34	6,9	8,8	8,7	1	1	1	1	1	1	1	1	1	0	1	-13,812544	273,942422	305,503122	0
15.01.2021	17:59:56	0	0	3,841339	0,738	328,158	0,322	84,356	0	1016,34	6,9	9	8,7	1	1	1	1	1	1	1	1	1	0	1	-10,077519	274,037387	309,681153	0
15.01.2021	17:59:57	0	0	4,858164	0,84675	314,4888	0,319	84,355	0	1016,28	6,9	8,8	8,7	1	1	1	1	1	1	1	1	1	0	1	-12,05074	273,917276	307,147696	0
15.01.2021	17:59:58	0	0	3,841339	0,90225	319,2732	0,316	84,353	0	1016,34	6,9	9	8,7	1	1	1	1	1	1	1	1	1	0	1	-10,782241	274,07014	309,129327	0
15.01.2021	17:59:59	0	0	4,406242	0,933	328,0968	0,325	84,36	0	1016,32	6,9	9	8,7	1	1	1	1	1	1	1	1	1	0	1	-8,386187	274,062691	311,490604	0
15.01.2021	18:00:00	0	0	4,293261	1,0215	317,0448	0,32	84,359	0	1016,36	6,9	9	8,7	1	1	1	1	1	1	1	1	1	0	1	-7,681466	274,055245	312,160565	0
15.01.2021	18:00:01	0	0	4,293261	1,0215	317,0448	0,32	84,359	0	1016,36	6,9	9	8,7	1	1	1	1	1	1	1	1	1	0	1	-6,20155	274,086537	313,786584	0
15.01.2021	18:00:02	0	0	5,197075	1,05525	302,8068	0,32	84,361	0	1016,2	6,9	9	8,8	1	1	1	1	1	1	1	1	1	0	1	-9,866103	274,001721	309,726132	0
15.01.2021	18:00:03	0	0	3,276436	1,02825	308,9052	0,326	84,368	0	1016,36	6,9	9	8,7	1	1	1	1	1	1	1	1	1	0	1	-15,292459	273,918754	303,912867	0
15.01.2021	18:00:04	0	0	2,711534	0,96	322,2288	0,319	84,372	0	1016,42	6,9	8,8	8,7	1	1	1	1	1	1	1	1	1	0	1	-11,768851	274,059713	308,094034	0
15.01.2021	18:00:05	0	0	4,0673	0,8955	319,1832	0,318	84,363	0	1016,28	6,9	9	8,7	1	1	1	1	1	1	1	1	1	0	1	-8,033827	274,091012	311,975203	0
15.01.2021	18:00:06	0	0	2,598553	0,79425	318,8664	0,316	84,364	0	1016,18	6,9	9	8,7	1	1	1	1	1	1	1	1	1	0	1	-11,134602	273,961674	308,270836	0
15.01.2021	18:00:07	0	0	4,858135	0,738	317,304	0,319	84,366	0	1016,32	6,9	9	8,8	1	1	1	1	1	1	1	1	1	0	1	-11,06413	274,07014	308,847439	0
15.01.2021	18:00:08	0	0	3,163456	0,70575	321,138	0,32	84,386	0	1016,36	6,7	9	8,7	1	1	1	1	1	1	1	1	1	0	1	-10,147992	273,937982	309,146973	0
15.01.2021	18:00:09	0	0	3,841316	0,681	315,846	0,313	84,369	0	1016,12	6,9	9	8,8	1	1	1	1	1	1	1	1	1	0	1	-10,288936	273,980945	309,206382	0
15.01.2021	18:00:10	0	0	5,084095	0,663	305,7372	0,319	84,387	0	1016,22	6,9	8,8	8,8	1	1	1	1	1	1	1	1	1	0	1	-12,05074	273,924668	307,182156	0
15.01.2021	18:00:11	0	0	4,293261	0,618	301,2048	0,315	84,364	0	1016,28	6,7	8,8	8,7	1	1	1	1	1	1	1	1	1	0	1	-11,698379	273,969084	307,741615	0
15.01.2021	18:00:12	0	0	4,971145	0,58125	312,5016	0,321	84,391	0	1016,36	6,9	9	8,7	1	1	1	1	1	1	1	1	1	0	1	-10,641297	274,083555	309,332911	0
15.01.2021	18:00:13	0	0	4,745184	0,5925	331,4844	0,321	84,388	0	1016,28	6,7	8,8	8,7	1	1	1	1	1	1	1	1	1	0	1	-11,980268	273,933543	307,294001	0
15.01.2021	18:00:14	0	0	2,598553	0,6375	321,8652	0,312	84,372	0	1016,26	6,9	8,8	8,7	1	1	1	1	1	1	1	1	1	0	1	-10,852713	273,964638	308,566545	0
15.01.2021	18:00:15	0	0	4,293261	0,792	317,718	0,32	84,385	0	1016,5	6,9	8,8	8,7	1	1	1	1	1	1	1	1	1	0	1	-15,433404	274,088029	304,561695	0
15.01.2021	18:00:16	0	0	4,406242	0,94275	330,0012	0,316	84,381	0	1016,3	6,9	8,9	8,7	1	1	1	1	1	1	1	1	1	0	1	-8,949965	274,028464	310,767063	0
15.01.2021	18:00:17	0	0	3,615378	0,9945	317,7504	0,321	84,394	0	1016,3	6,9	8,8	8,7	1	1	1	1	1	1	1	1	1	0	1	-13,460183	274,110413	306,639461	0
15.01.2021	18:00:18	0	0	4,180281	1,056	319,59	0,317	84,374	0	1016,24	6,9	9	8,7	1	1	1	1	1	1	1	1	1	0	1	-11,205074	273,989846	308,331764	0
15.01.2021	18:00:19	0	0	2,598553	1,0035	338,2632	0,32	84,393	0	1016,32	6,9	9	8,7	1	1	1	1	1	1	1	1	1	0	1	-9,725159	273,940942	309,583606	0
15.01.2021	18:00:20	0	0	3,95432	1,002	341,3304	0,32	84,404	0	1016,36	6,9	9	8,7	1	1	1	1	1	1	1	1	1	0	1	-7,399577	274,046314	312,400763	0
15.01.2021	18:00:21	0	0	4,632203	0,96975	322,3332	0,316	84,412	0	1016,44	6,9	8,8	8,7	1	1	1	1	1	1	1	1	1	0	1	-10,359408	274,07312	309,566076	0
15.01.2021	18:00:22	0	0	4,0673	0,88125	290,808	0,319	84,406	0	1016,3	6,9	9	8,7	1	1	1	1	1	1	1	1	1	0	1	-11,486963	274,108919	308,605708	0
15.01.2021	18:00:23	0	0	4,0673	0,79125	291,4848	0,318	84,406	0	1016,22	6,9	8,8	8,7	1	1	1	1	1	1	1	1	1	0	1	-11,41649	274,07163	308,502035	0
15.01.2021	18:00:24	0	0	2,598553	0,71775	307,2204	0,313	84,42	0	1016,28	6,9	9	8,7	1	1	1	1	1	1	1	1	1	0	1	-10,993658	273,937982	308,301307	0
15.01.2021	18:00:25	0	0	2,485572	0,61725	316,5696	0,321	84,407	0	1016,44	6,9	9	8,7	1	1	1	1	1	1	1	1	1	0	1	-7,751938	273,948344	311,591338	0
15.01.2021	18:00:26	0	0	3,276417	0,57	317,7144	0,318	84,413	0	1016,34	6,9	9	8,8	1	1	1	1	1	1	1	1	1	0	1	-11,134602	274,053757	308,700479	0
15.01.2021	18:00:27	0	0	4,632203	0,50775	306,846	0,321	84,415	0	1016,4	6,9	8,8	8,7	1	1	1	1	1	1	1	1	1	0	1	-8,245243	274,119373	311,896261	0
15.01.2021	18:00:28	0	0	4,745184	0,4365	291,8628	0,314	84,421	0	1016,24	6,9	8,8	8,7	1	1	1	1	1	1	1	1	1	0	1	-10,852713	274,076101	309,086688	0
15.01.2021	18:00:29	0	0	3,276436	0,39975	282,474	0,31	84,422	0	1016,26	6,9	9	8,7	1	1	1	1	1	1	1	1	1	0	1	-11,275546	274,104441	308,796205	0
15.01.2021	18:00:30	0	0	3,728359	0,35925	287,7984	0,316	84,43	0	1016,32	6,9	9	8,7	1	1	1	1	1	1	1	1	1	0	1	-6,412967	274,06567	313,477734	0
15.01.2021	18:00:31	0	0	2,598537	0,3495	300,9384	0,313	84,416	0	1016,32	6,9	9	8,8	1	1	1	1	1	1	1	1	1	0	1	-7,751938	273,929105	311,501642	0
15.01.2021	18:00:32	0	0	4,632203	0,3105	309,3408	0,314	84,415	0	1016,4	6,9	9	8,7	1	1	1	1	1	1	1	1	1	0	1	-13,742072	274,006175	305,870947	0
15.01.2021	18:00:33	0	0	2,824514	0,30675	310,734	0,326	84,428	0	1016,46	6,9	9	8,7	1	1	1	1	1	1	1	1	1	0	1	-11,557435	273,936503	307,730631	0
15.01.2021	18:00:34	0	0	4,0673	0,294	309,222	0,319	84,432	0	1016,34	6,9	9	8,7	1	1	1	1	1	1	1	1	1	0	1	-9,161381	274,049291	310,652853	0
15.01.2021	18:00:35	0	0	3,95432	0,33075	311,8212	0,313	84,429	0	1016,32	6,9	9	8,7	1	1	1	1	1	1	1	1	1	0	1	-13,248767	274,099963	306,802072	0
15.01.2021	18:00:36	0	0	2,711534	0,42975	312,534	0,319	84,432	0	1016,26	6,7	9	8,7	1	1	1	1	1	1	1	1	1	0	1	-8,879493	273,977979	310,601991	0
15.01.2021	18:00:37	0	0	3,95432	0,48825	310,7232	0,31	84,429	0	1016,34	6,9	9	8,7	1	1	1	1	1	1	1	1	1	0	1	-10,641297	274,07163	309,277229	0
15.01.2021	18:00:38	0	0	5,197106	0,53775	306,7704	0,317	84,438	0	1016,22	6,9	9	8,7	1	1	1	1	1	1	1	1	1	0	1	-10,218464	273,937982	309,076501	0
15.01.2021	18:00:39	0	0	4,293261	0,5415	294,804	0,309	84,43	0	1016,28	6,9	8,8	8,7	1	1	1	1	1	1	1	1	1	0	1	-12,825934	274,013602	306,821739	0
15.01.2021	18:00:40	0	0	2,937495	0,55125	287,7588	0,32	84,444	0	1016,28	6,9	9	8,7	1	1	1	1	1	1	1	1	1	0	1	-12,191684	273,942422	307,123981	0
15.01.2021	18:00:41	0	0	4,180281	0,5745	282,8484	0,319	84,451	0	1016,28	6,9	8,8	8,7	1	1	1	1	1	1	1	1	1	0	1	-9,513742	274,000236	310,071566	0
15.01.2021	18:00:42	0	0	2,824514	0,558	284,8248	0,315	84,442	0	1016,38	6,9	9	8,7	1	1	1	1	1	1	1	1	1	0	1	-8,949965	273,949825	310,400216	0
15.01.2021	18:00:43	0	0	2,259611	0,564	290,0952	0,313	84,436	0	1016,36	6,9	9	8,7	1	1	1	1	1	1	1	1	1	0	1	-10,218464	273,989846	309,318375	0
15.01.2021	18:00:44	0	0	3,502398	0,549	305,3196	0,311	84,434	0	1016,3	6,9	9	8,7	1	1	1	1	1	1	1	1	1	0	1	-11,768851	273,930585	307,491624	0
15.01.2021	18:00:45	0	0	4,0673	0,50925	315,9108	0,315	84,444	0	1016,34	6,9	9	8,7	1	1	1	1	1	1	1	1	1	0	1	-11,627907	273,982429	307,87433	0
15.01.2021	18:00:46	0	0	4,406242	0,50025	316,368	0,316	84,446	0	1016,26	6,9	8,8	8,7	1	1	1	1	1	1	1	1	1	0	1	-8,879493	274,08952	311,122572	0
15.01.2021	18:00:47	0	0	4,971145	0,501	311,1228	0,312	84,442	0	1016,3	6,9	9	8,7	1	1	1	1	1	1	1	1	1	0	1	-8,45666	274,04185	311,322844	0
15.01.2021	18:00:48	0	0	4,293261	0,51225	303,5772	0,316	84,445	0	1016,3	6,9	8,8	8,7	1	1	1	1	1	1	1	1	1	0	1	-14,940099	273,927626	304,306586	0
15.01.2021	18:00:49	0	0	4,519223	0,4695	295,5204	0,317	84,459	0	1016,42	6,9	8,8	8,7	1	1	1	1	1	1	1	1	1	0	1	-13,460183	273,970566	305,986724	0
15.01.2021	18:00:50	0	0	3,728359	0,4575	291,8844	0,314	84,433	0	1016,14	6,9	9	8,7	1	1	1	1	1	1	1	1	1	0	1	-10,359408	274,119373	309,782096	0
15.01.2021	18:00:51	0	0	4,745155	0,44925	295,7328	0,311	84,45	0	1016,32	6,9	9	8,8	1	1	1	1	1	1	1	1	1	0	1	-12,684989	274,052268	307,143142	0
15.01.2021	18:00:52	0	0	2,711534	0,486	302,8464	0,312	84,45	0	1016,34	6,9	8,8	8,7	1	1	1	1	1	1	1	1	1	0	1	-6,131078	274,105934	313,947646	0
15.01.2021	18:00:53	0	0	4,519195	0,56475	311,0472	0,322	84,457	0	1016,22	6,7	9	8,8	1	1	1	1	1	1	1	1	1	0	1	-11,557435	274,038875	308,208181	0
15.01.2021	18:00:54	0	0	2,711534	0,65175	315,4644	0,313	84,456	0	1016,36	6,9	8,8	8,7	1	1	1	1	1	1	1	1	1	0	1	-5,84919	274,108919	314,243481	0
15.01.2021	18:00:55	0	0	4,858135	0,70275	315,4644	0,317	84,448	0	1016,16	6,9	9	8,8	1	1	1	1	1	1	1	1	1	0	1	-10,288936	274,028464	309,428092	0
15.01.2021	18:00:56	0	0	2,711534	0,80175	312,5304	0,312	84,449	0	1016,48	6,9	9	8,7	1	1	1	1	1	1	1	1	1	0	1	-9,866103	273,954267	309,504794	0
15.01.2021	18:00:57	0	0	2,824497	0,89175	319,176	0,315	84,457	0	1016,28	6,9	9	8,8	1	1	1	1	1	1	1	1	1	0	1	-9,161381	273,986879	310,361615	0
15.01.2021	18:00:58	0	0	4,632203	0,909	321,4692	0,319	84,462	0	1016,44	6,9	9	8,7	1	1	1	1	1	1	1	1	1	0	1	-11,909796	274,11788	308,22473	0
15.01.2021	18:00:59	0	0	2,711534	0,88425	323,73	0,314	84,453	0	1016,34	6,7	8,8	8,7	1	1	1	1	1	1	1	1	1	0	1	-10,288936	273,997267	309,28252	0
15.01.2021	18:01:00	0	0	2,937495	0,861	323,6652	0,313	84,463	0	1016,36	6,9	9	8,7	1	1	1	1	1	1	1	1	1	0	1	-7,258633	274,101456	312,799176	0
15.01.2021	18:01:01	0	0	3,163437	0,84675	314,622	0,312	84,463	0	1016,3	6,9	9	8,8	1	1	1	1	1	1	1	1	1	0	1	-7,470049	274,099963	312,580789	0
15.01.2021	18:01:02	0	0	3,728359	0,8145	306,0936	0,312	84,472	0	1016,26	6,9	8,8	8,7	1	1	1	1	1	1	1	1	1	0	1	-8,245243	273,921711	310,973867	0
15.01.2021	18:01:03	0	0	3,615356	0,86325	298,6452	0,309	84,457	0	1016,26	6,9	9	8,8	1	1	1	1	1	1	1	1	1	0	1	-7,82241	273,969084	311,617584	0
15.01.2021	18:01:04	0	0	4,745184	1,01925	293,31	0,313	84,466	0	1016,32	6,7	8,8	8,7	1	1	1	1	1	1	1	1	1	0	1	-9,020437	274,111906	311,086183	0
15.01.2021	18:01:05	0	0	4,406242	1,0995	294,8148	0,313	84,446	0	1016,22	6,9	8,8	8,7	1	1	1	1	1	1	1	1	1	0	1	-10,711769	273,982429	308,790468	0
15.01.2021	18:01:06	0	0	3,389417	1,2105	299,0412	0,309	84,459	0	1016,32	6,9	9	8,7	1	1	1	1	1	1	1	1	1	0	1	-11,980268	273,940942	307,328497	0
15.01.2021	18:01:07	0	0	3,502398	1,2225	286,7112	0,31	84,454	0	1016,36	6,9	8,8	8,7	1	1	1	1	1	1	1	1	1	0	1	-10,711769	273,940942	308,596996	0
15.01.2021	18:01:08	0	0	2,824497	1,2405	296,7768	0,305	84,447	0	1016,28	6,9	9	8,8	1	1	1	1	1	1	1	1	1	0	1	-7,610994	273,958711	311,780626	0
15.01.2021	18:01:09	0	0	4,180281	1,29075	287,3592	0,309	84,465	0	1016,3	6,7	8,8	8,7	1	1	1	1	1	1	1	1	1	0	1	-9,725159	273,935023	309,556008	0
15.01.2021	18:01:10	0	0	2,824514	1,311	285,8904	0,317	84,464	0	1016,32	6,9	9	8,7	1	1	1	1	1	1	1	1	1	0	1	-11,627907	273,967602	307,805175	0
15.01.2021	18:01:11	0	0	2,711534	1,2915	290,7576	0,312	84,461	0	1016,32	6,7	9	8,7	1	1	1	1	1	1	1	1	1	0	1	-7,117689	273,972049	312,336133	0
15.01.2021	18:01:12	0	0	4,632203	1,275	296,856	0,313	84,445	0	1016,14	6,7	9	8,7	1	1	1	1	1	1	1	1	1	0	1	-12,191684	274,098471	307,852185	0
15.01.2021	18:01:13	0	0	3,276436	1,26225	290,0448	0,31	84,446	0	1016,3	6,9	9	8,7	1	1	1	1	1	1	1	1	1	0	1	-10,570825	274,108919	309,521846	0
15.01.2021	18:01:14	0	0	3,389397	1,25325	295,5312	0,306	84,449	0	1016,32	6,9	8,8	8,8	1	1	1	1	1	1	1	1	1	0	1	-12,896406	274,038875	306,869209	0
15.01.2021	18:01:15	0	0	4,293261	1,2495	297,3708	0,315	84,465	0	1016,38	6,7	9	8,7	1	1	1	1	1	1	1	1	1	0	1	-8,174771	274,11788	311,959755	0
15.01.2021	18:01:16	0	0	5,310055	1,176	292,9392	0,304	84,457	0	1016,24	6,9	9	8,8	1	1	1	1	1	1	1	1	1	0	1	-17,758985	274,047803	302,048302	0
15.01.2021	18:01:17	0	0	4,406242	1,167	292,2588	0,314	84,476	0	1016,2	6,9	9	8,7	1	1	1	1	1	1	1	1	1	0	1	-9,161381	274,105934	310,917343	0
15.01.2021	18:01:18	0	0	3,728359	1,17075	294,804	0,311	84,461	0	1016,3	6,9	9	8,7	1	1	1	1	1	1	1	1	1	0	1	-9,584214	274,029951	310,139753	0
15.01.2021	18:01:19	0	0	4,519195	1,22625	303,93	0,306	84,472	0	1016,26	6,9	8,8	8,8	1	1	1	1	1	1	1	1	1	0	1	-5,144468	273,940942	314,164297	0
15.01.2021	18:01:20	0	0	4,971145	1,29075	299,0484	0,307	84,454	0	1016,22	6,9	9	8,7	1	1	1	1	1	1	1	1	1	0	1	-10,993658	274,022518	308,695621	0
15.01.2021	18:01:21	0	0	4,180281	1,3755	300,402	0,311	84,474	0	1016,4	6,9	9	8,7	1	1	1	1	1	1	1	1	1	0	1	-14,305849	274,11788	305,828677	0
15.01.2021	18:01:22	0	0	4,632203	1,4175	307,1844	0,314	84,462	0	1016,26	6,9	9	8,7	1	1	1	1	1	1	1	1	1	0	1	-11,06413	274,052268	308,764002	0
15.01.2021	18:01:23	0	0	2,824497	1,4325	313,2972	0,309	84,454	0	1016,3	6,9	9	8,8	1	1	1	1	1	1	1	1	1	0	1	-14,164905	273,921711	305,054205	0
15.01.2021	18:01:24	0	0	2,146631	1,4055	298,2312	0,311	84,474	0	1016,3	6,9	8,8	8,7	1	1	1	1	1	1	1	1	1	0	1	-9,936575	273,954267	309,434322	0
15.01.2021	18:01:25	0	0	4,519223	1,42275	292,2624	0,312	84,464	0	1016,34	6,9	9	8,7	1	1	1	1	1	1	1	1	1	0	1	-11,980268	274,077591	307,966094	0
15.01.2021	18:01:26	0	0	4,293261	1,56975	301,2876	0,311	84,461	0	1016,3	6,9	9	8,7	1	1	1	1	1	1	1	1	1	0	1	-12,684989	274,128339	307,498398	0
15.01.2021	18:01:27	0	0	4,971145	1,6515	313,0272	0,306	84,472	0	1016,36	6,9	9	8,7	1	1	1	1	1	1	1	1	1	0	1	-10,782241	274,079082	309,171081	0
15.01.2021	18:01:28	0	0	2,937495	1,6035	312,1848	0,308	84,46	0	1016,32	6,7	9	8,7	1	1	1	1	1	1	1	1	1	0	1	-7,681466	274,107427	312,404231	0
15.01.2021	18:01:29	0	0	2,711517	1,55625	315,1836	0,313	84,475	0	1016,34	6,9	9	8,8	1	1	1	1	1	1	1	1	1	0	1	-10,218464	273,980945	309,276855	0
15.01.2021	18:01:30	0	0	4,745184	1,53375	328,9716	0,313	84,481	0	1016,36	6,9	9	8,7	1	1	1	1	1	1	1	1	1	0	1	-12,473573	274,111906	307,633047	0
15.01.2021	18:01:31	0	0	4,406242	1,55325	320,8896	0,304	84,455	0	1016,14	6,9	9	8,7	1	1	1	1	1	1	1	1	1	0	1	-12,755462	274,04185	307,024042	0
15.01.2021	18:01:32	0	0	3,163456	1,58325	318,0996	0,306	84,469	0	1016,24	6,9	9	8,7	1	1	1	1	1	1	1	1	1	0	1	-10,923185	273,948344	308,420091	0
15.01.2021	18:01:33	0	0	4,406216	1,49025	319,9572	0,299	84,46	0	1016,18	6,9	9	8,8	1	1	1	1	1	1	1	1	1	0	1	-9,090909	274,06865	310,813703	0
15.01.2021	18:01:34	0	0	3,050457	1,347	320,3964	0,306	84,479	0	1016,38	6,9	9	8,8	1	1	1	1	1	1	1	1	1	0	1	-11,205074	273,96612	308,221096	0
15.01.2021	18:01:35	0	0	2,824514	1,22325	306,4572	0,309	84,477	0	1016,36	6,9	8,8	8,7	1	1	1	1	1	1	1	1	1	0	1	-8,879493	273,96612	310,546677	0
15.01.2021	18:01:36	0	0	4,858164	1,134	309,618	0,305	84,476	0	1016,36	6,9	8,8	8,7	1	1	1	1	1	1	1	1	1	0	1	-10,711769	274,105934	309,366955	0
15.01.2021	18:01:37	0	0	4,632175	1,14975	320,0832	0,307	84,471	0	1016,3	6,9	9	8,8	1	1	1	1	1	1	1	1	1	0	1	-9,090909	274,095487	310,939022	0
15.01.2021	18:01:38	0	0	2,711517	1,2015	321,1416	0,306	84,484	0	1016,3	6,9	8,8	8,8	1	1	1	1	1	1	1	1	1	0	1	-9,090909	274,116386	311,036639	0
15.01.2021	18:01:39	0	0	3,502398	1,22925	313,2252	0,307	84,485	0	1016,2	6,7	9	8,7	1	1	1	1	1	1	1	1	1	0	1	-13,742072	274,119373	306,399432	0
15.01.2021	18:01:40	0	0	4,406216	1,26375	308,52	0,307	84,478	0	1016,44	7	8,8	8,8	1	1	1	1	1	1	1	1	1	0	1	-11,768851	273,961674	307,636586	0
15.01.2021	18:01:41	0	0	2,598553	1,17375	306,2052	0,305	84,479	0	1016,22	6,9	8,8	8,7	1	1	1	1	1	1	1	1	1	0	1	-9,302326	274,093995	310,720638	0
15.01.2021	18:01:42	0	0	3,954296	1,155	315,2736	0,31	84,482	0	1016,22	6,9	8,8	8,8	1	1	1	1	1	1	1	1	1	0	1	-8,174771	273,926147	311,065019	0
15.01.2021	18:01:43	0	0	3,615378	1,2135	318,4452	0,303	84,474	0	1016,4	6,9	8,8	8,7	1	1	1	1	1	1	1	1	1	0	1	-6,412967	274,029951	313,311	0
15.01.2021	18:01:44	0	0	2,598553	1,2195	320,0148	0,306	84,473	0	1016,12	6,9	9	8,7	1	1	1	1	1	1	1	1	1	0	1	-11,768851	274,102948	308,295929	0
15.01.2021	18:01:45	0	0	4,406216	1,12125	318,4632	0,306	84,47	0	1016,22	6,7	8,8	8,8	1	1	1	1	1	1	1	1	1	0	1	-6,483439	274,046314	313,316901	0
15.01.2021	18:01:46	0	0	3,841339	1,11675	316,3608	0,302	84,481	0	1016,34	6,9	9	8,7	1	1	1	1	1	1	1	1	1	0	1	-15,503876	274,116386	304,623672	0
15.01.2021	18:01:47	0	0	2,598553	1,07325	317,052	0,308	84,481	0	1016,52	6,9	8,8	8,7	1	1	1	1	1	1	1	1	1	0	1	-13,248767	274,085046	306,732404	0
15.01.2021	18:01:48	0	0	4,406216	1,08825	315,2952	0,324	84,5	0	1016,46	6,9	9	8,8	1	1	1	1	1	1	1	1	1	0	1	-7,117689	273,937982	312,177276	0
15.01.2021	18:01:49	0	0	2,937477	1,05675	312,9444	0,306	84,472	0	1016,32	6,9	9	8,8	1	1	1	1	1	1	1	1	1	0	1	-11,134602	274,050779	308,686581	0
15.01.2021	18:01:50	0	0	3,954296	1,122	308,4804	0,309	84,465	0	1016,32	6,7	8,8	8,8	1	1	1	1	1	1	1	1	1	0	1	-8,174771	273,927626	311,071913	0
15.01.2021	18:01:51	0	0	4,858135	1,25025	315,2484	0,307	84,476	0	1016,38	6,9	8,9	8,8	1	1	1	1	1	1	1	1	1	0	1	-9,231853	274,095487	310,798078	0
15.01.2021	18:01:52	0	0	4,632203	1,38075	316,2816	0,304	84,479	0	1016,28	6,9	8,8	8,7	1	1	1	1	1	1	1	1	1	0	1	-6,272023	273,998751	313,306359	0
15.01.2021	18:01:53	0	0	2,598553	1,46025	324,378	0,305	84,474	0	1016,3	6,9	8,8	8,7	1	1	1	1	1	1	1	1	1	0	1	-10,923185	273,952786	308,440806	0
15.01.2021	18:01:54	0	0	3,276417	1,557	324,7272	0,304	84,491	0	1016,4	6,9	8,9	8,8	1	1	1	1	1	1	1	1	1	0	1	-10,852713	273,986879	308,670283	0
15.01.2021	18:01:55	0	0	4,745155	1,60425	328,2192	0,304	84,476	0	1016,2	6,9	9	8,8	1	1	1	1	1	1	1	1	1	0	1	-10,641297	274,132823	309,563041	0
15.01.2021	18:01:56	0	0	3,389417	1,632	334,674	0,304	84,472	0	1016,22	7	9	8,7	1	1	1	1	1	1	1	1	1	0	1	-12,332629	274,086537	307,655506	0
15.01.2021	18:01:57	0	0	4,971145	1,674	334,5552	0,299	84,475	0	1016,2	6,9	9	8,7	1	1	1	1	1	1	1	1	1	0	1	-10,852713	273,994298	308,704894	0
15.01.2021	18:01:58	0	0	3,615378	1,75425	335,6748	0,31	84,474	0	1016,36	6,9	9	8,7	1	1	1	1	1	1	1	1	1	0	1	-10,007047	274,110413	310,092597	0
15.01.2021	18:01:59	0	0	4,519195	1,83675	339,8148	0,295	84,472	0	1016,32	6,9	9	8,8	1	1	1	1	1	1	1	1	1	0	1	-10,993658	274,04185	308,785846	0
15.01.2021	18:02:00	0	0	3,050475	1,88625	341,658	0,302	84,479	0	1016,34	6,9	9	8,7	1	1	1	1	1	1	1	1	1	0	1	-8,033827	273,975014	311,433824	0
15.01.2021	18:02:01	0	0	2,259598	1,89075	341,3016	0,3	84,488	0	1016,62	6,9	9	8,8	1	1	1	1	1	1	1	1	1	0	1	-12,755462	274,111906	307,351158	0
15.01.2021	18:02:02	0	0	3,615378	1,8585	334,9404	0,303	84,456	0	1016,28	6,9	8,8	8,7	1	1	1	1	1	1	1	1	1	0	1	-9,231853	274,108919	310,860817	0
15.01.2021	18:02:03	0	0	3,728359	1,86675	336,4236	0,298	84,482	0	1016,2	6,9	8,8	8,7	1	1	1	1	1	1	1	1	1	0	1	-14,376321	273,937982	304,918643	0
15.01.2021	18:02:04	0	0	4,632203	1,737	334,2168	0,307	84,477	0	1016,3	6,7	8,9	8,7	1	1	1	1	1	1	1	1	1	0	1	-9,936575	274,082064	310,03067	0
15.01.2021	18:02:05	0	0	4,971115	1,539	330,426	0,303	84,479	0	1016,36	6,7	8,8	8,8	1	1	1	1	1	1	1	1	1	0	1	-10,007047	274,123856	310,155395	0
15.01.2021	18:02:06	0	0	3,954296	1,38675	323,694	0,303	84,484	0	1016,26	7	9	8,8	1	1	1	1	1	1	1	1	1	0	1	-10,993658	273,994298	308,56395	0
15.01.2021	18:02:07	0	0	4,180256	1,398	309,5136	0,306	84,483	0	1016,48	6,9	8,9	8,8	1	1	1	1	1	1	1	1	1	0	1	-9,936575	273,930585	309,3239	0
15.01.2021	18:02:08	0	0	3,389397	1,39725	326,6424	0,306	84,479	0	1016,16	6,9	8,8	8,8	1	1	1	1	1	1	1	1	1	0	1	-7,470049	274,010631	312,16376	0
15.01.2021	18:02:09	0	0	4,293236	1,34325	337,9968	0,304	84,493	0	1016,24	6,7	8,9	8,8	1	1	1	1	1	1	1	1	1	0	1	-8,879493	274,110413	311,220152	0
15.01.2021	18:02:10	0	0	3,050475	1,2255	315,1188	0,303	84,481	0	1016,22	6,9	8,8	8,7	1	1	1	1	1	1	1	1	1	0	1	-11,698379	274,056734	308,150603	0
15.01.2021	18:02:11	0	0	4,406216	1,13175	296,9064	0,301	84,49	0	1016,4	6,9	8,8	8,8	1	1	1	1	1	1	1	1	1	0	1	-8,033827	273,951305	311,323259	0
15.01.2021	18:02:12	0	0	3,050457	1,0755	291,8556	0,301	84,474	0	1016,28	6,9	9	8,8	1	1	1	1	1	1	1	1	1	0	1	-8,668076	274,052268	311,160055	0
15.01.2021	18:02:13	0	0	2,598553	1,05375	291,9204	0,306	84,47	0	1016,42	6,9	8,8	8,7	1	1	1	1	1	1	1	1	1	0	1	-8,949965	273,933543	310,324304	0
15.01.2021	18:02:14	0	0	3,502376	1,1205	319,9896	0,301	84,467	0	1016,26	6,9	8,8	8,8	1	1	1	1	1	1	1	1	1	0	1	-6,20155	274,028464	313,515478	0
15.01.2021	18:02:15	0	0	2,485572	1,128	334,2564	0,306	84,472	0	1016,4	6,7	9	8,7	1	1	1	1	1	1	1	1	1	0	1	-10,147992	273,946863	309,188381	0
15.01.2021	18:02:16	0	0	4,632203	1,1235	300,2004	0,299	84,493	0	1016,38	6,9	9	8,7	1	1	1	1	1	1	1	1	1	0	1	-11,134602	273,988363	308,395315	0
15.01.2021	18:02:17	0	0	4,406216	1,12125	319,554	0,301	84,47	0	1016,1	6,9	8,9	8,8	1	1	1	1	1	1	1	1	1	0	1	-12,473573	274,110413	307,626072	0
15.01.2021	18:02:18	0	0	4,745184	1,071	327,4812	0,302	84,477	0	1016,36	6,9	9	8,7	1	1	1	1	1	1	1	1	1	0	1	-8,245243	274,06567	311,645457	0
15.01.2021	18:02:19	0	0	3,841316	1,0635	310,0212	0,303	84,482	0	1016,32	6,9	9	8,8	1	1	1	1	1	1	1	1	1	0	1	-13,107822	273,960193	306,290706	0
15.01.2021	18:02:20	0	0	4,632203	1,04175	305,766	0,297	84,483	0	1016,32	6,9	8,8	8,7	1	1	1	1	1	1	1	1	1	0	1	-7,540521	274,120867	312,607961	0
15.01.2021	18:02:21	0	0	3,050457	1,07775	301,5936	0,297	84,487	0	1016,24	6,9	9	8,8	1	1	1	1	1	1	1	1	1	0	1	-9,161381	273,983912	310,347775	0
15.01.2021	18:02:22	0	0	2,259611	1,17	288,1008	0,292	84,468	0	1016,32	6,9	8,8	8,7	1	1	1	1	1	1	1	1	1	0	1	-12,684989	274,104441	307,386762	0
15.01.2021	18:02:23	0	0	3,050457	1,212	294,1812	0,3	84,485	0	1016,22	6,7	8,8	8,8	1	1	1	1	1	1	1	1	1	0	1	-11,134602	273,942422	308,181064	0
15.01.2021	18:02:24	0	0	3,389397	1,2705	290,7864	0,298	84,491	0	1016,28	6,7	8,8	8,8	1	1	1	1	1	1	1	1	1	0	1	-10,711769	274,088029	309,28333	0
15.01.2021	18:02:25	0	0	4,632175	1,29825	295,1568	0,299	84,482	0	1016,3	6,9	9	8,8	1	1	1	1	1	1	1	1	1	0	1	-9,302326	273,942422	310,01334	0
15.01.2021	18:02:26	0	0	3,954296	1,3215	301,3632	0,296	84,47	0	1016,14	6,9	9	8,8	1	1	1	1	1	1	1	1	1	0	1	-8,033827	274,034413	311,710962	0
15.01.2021	18:02:27	0	0	2,824497	1,2765	298,6992	0,298	84,491	0	1016,28	6,9	8,9	8,8	1	1	1	1	1	1	1	1	1	0	1	-11,909796	273,936503	307,37827	0
15.01.2021	18:02:28	0	0	3,163437	1,24575	297,8568	0,298	84,478	0	1016,36	6,9	9	8,8	1	1	1	1	1	1	1	1	1	0	1	-10,923185	274,105934	309,155538	0
15.01.2021	18:02:29	0	0	2,937477	1,263	286,3296	0,301	84,484	0	1016,4	6,9	8,8	8,8	1	1	1	1	1	1	1	1	1	0	1	-9,795631	273,980945	309,699688	0
15.01.2021	18:02:30	0	0	2,598553	1,374	279,9252	0,3	84,496	0	1016,38	6,9	8,8	8,7	1	1	1	1	1	1	1	1	1	0	1	-7,540521	273,976497	311,934045	0
15.01.2021	18:02:31	0	0	4,745155	1,43175	298,6668	0,296	84,487	0	1016,2	6,9	8,9	8,8	1	1	1	1	1	1	1	1	1	0	1	-9,513742	274,08952	310,488322	0
15.01.2021	18:02:32	0	0	5,423067	1,46925	304,974	0,296	84,479	0	1016,24	6,9	9	8,7	1	1	1	1	1	1	1	1	1	0	1	-7,82241	274,06716	312,075246	0
15.01.2021	18:02:33	0	0	4,406216	1,53375	294,1524	0,297	84,473	0	1016,22	6,9	8,9	8,8	1	1	1	1	1	1	1	1	1	0	1	-9,161381	274,110413	310,938263	0
15.01.2021	18:02:34	0	0	4,519195	1,503	303,9588	0,3	84,492	0	1016,28	6,9	8,9	8,8	1	1	1	1	1	1	1	1	1	0	1	-9,161381	274,047803	310,645906	0
15.01.2021	18:02:35	0	0	3,502376	1,53525	307,242	0,296	84,495	0	1016,3	6,9	8,8	8,8	1	1	1	1	1	1	1	1	1	0	1	-10,147992	274,128339	310,035396	0
15.01.2021	18:02:36	0	0	5,310055	1,56825	311,5008	0,298	84,493	0	1016,28	6,9	8,8	8,8	1	1	1	1	1	1	1	1	1	0	1	-17,124736	274,074611	302,807707	0
15.01.2021	18:02:37	0	0	2,824514	1,5795	294,4476	0,296	84,485	0	1016,32	6,9	9	8,7	1	1	1	1	1	1	1	1	1	0	1	-8,80902	273,95723	310,575691	0
15.01.2021	18:02:38	0	0	3,502398	1,64175	284,904	0,295	84,482	0	1016,34	6,9	9	8,7	1	1	1	1	1	1	1	1	1	0	1	-9,372798	274,062691	310,503994	0
15.01.2021	18:02:39	0	0	4,293236	1,70175	305,4024	0,299	84,483	0	1016,3	6,9	8,8	8,8	1	1	1	1	1	1	1	1	1	0	1	-11,275546	274,113399	308,838049	0
15.01.2021	18:02:40	0	0	2,711517	1,7115	296,01	0,298	84,489	0	1016,14	6,9	9	8,8	1	1	1	1	1	1	1	1	1	0	1	-12,191684	273,986879	307,331312	0
15.01.2021	18:02:41	0	0	4,519195	1,64925	306,1116	0,295	84,488	0	1016,24	6,7	9	8,8	1	1	1	1	1	1	1	1	1	0	1	-12,191684	273,985395	307,324391	0
15.01.2021	18:02:42	0	0	4,745184	1,5645	297,9396	0,294	84,491	0	1016,3	6,9	8,9	8,7	1	1	1	1	1	1	1	1	1	0	1	-11,275546	274,122361	308,879916	0
15.01.2021	18:02:43	0	0	2,937477	1,50225	311,0184	0,291	84,488	0	1016,28	6,7	9	8,8	1	1	1	1	1	1	1	1	1	0	1	-11,557435	274,062691	308,319357	0
15.01.2021	18:02:44	0	0	3,954296	1,46475	305,8416	0,296	84,491	0	1016,48	6,9	8,8	8,8	1	1	1	1	1	1	1	1	1	0	1	-11,698379	273,949825	307,651801	0
15.01.2021	18:02:45	0	0	3,050475	1,4055	307,2348	0,292	84,498	0	1016,24	6,9	8,9	8,7	1	1	1	1	1	1	1	1	1	0	1	-13,319239	274,003205	306,279923	0
15.01.2021	18:02:46	0	0	4,632203	1,3815	306,1296	0,297	84,484	0	1016,26	6,9	9	8,7	1	1	1	1	1	1	1	1	1	0	1	-14,305849	274,114893	305,814722	0
15.01.2021	18:02:47	0	0	3,841316	1,38225	309,8988	0,301	84,493	0	1016,26	6,9	9	8,8	1	1	1	1	1	1	1	1	1	0	1	-5,919662	273,985395	313,596414	0
15.01.2021	18:02:48	0	0	4,406242	1,31775	313,6356	0,297	84,489	0	1016,26	6,9	8,8	8,7	1	1	1	1	1	1	1	1	1	0	1	-8,45666	274,120867	311,691823	0
15.01.2021	18:02:49	0	0	3,276417	1,27425	307,6488	0,297	84,504	0	1016,26	6,9	9	8,8	1	1	1	1	1	1	1	1	1	0	1	-9,584214	274,062691	310,292577	0
15.01.2021	18:02:50	0	0	2,598537	1,25775	308,1384	0,291	84,505	0	1016,3	6,9	8,8	8,8	1	1	1	1	1	1	1	1	1	0	1	-12,121212	274,119373	308,020292	0
15.01.2021	18:02:51	0	0	3,728336	1,32525	302,5404	0,296	84,505	0	1016,28	6,9	8,8	8,8	1	1	1	1	1	1	1	1	1	0	1	-11,909796	274,010631	307,724014	0
15.01.2021	18:02:52	0	0	2,937477	1,338	311,418	0,295	84,512	0	1016,38	6,9	8,8	8,8	1	1	1	1	1	1	1	1	1	0	1	-10,570825	274,098471	309,473044	0
15.01.2021	18:02:53	0	0	2,937477	1,32525	308,5056	0,293	84,517	0	1016,28	6,9	8,9	8,8	1	1	1	1	1	1	1	1	1	0	1	-11,41649	273,958711	307,975129	0
15.01.2021	18:02:54	0	0	3,615356	1,32	311,7672	0,291	84,509	0	1016,44	6,9	8,8	8,8	1	1	1	1	1	1	1	1	1	0	1	-5,778717	274,083555	314,19549	0
15.01.2021	18:02:55	0	0	2,485558	1,2975	315,5904	0,293	84,519	0	1016,24	6,9	8,9	8,8	1	1	1	1	1	1	1	1	1	0	1	-10,007047	273,945383	309,322423	0
15.01.2021	18:02:56	0	0	2,711517	1,23825	313,2936	0,293	84,5	0	1016,2	6,7	8,9	8,8	1	1	1	1	1	1	1	1	1	0	1	-8,315715	273,975014	311,151936	0
15.01.2021	18:02:57	0	0	4,180256	1,1805	313,6536	0,297	84,524	0	1016,3	6,9	9	8,8	1	1	1	1	1	1	1	1	1	0	1	-11,557435	274,11788	308,577091	0
15.01.2021	18:02:58	0	0	4,632203	1,16325	318,4848	0,288	84,506	0	1016,18	6,9	9	8,7	1	1	1	1	1	1	1	1	1	0	1	-7,610994	274,032925	312,126854	0
15.01.2021	18:02:59	0	0	4,406216	1,16925	322,2792	0,296	84,513	0	1016,24	6,9	9	8,8	1	1	1	1	1	1	1	1	1	0	1	-10,218464	273,943903	309,104104	0
15.01.2021	18:03:00	0	0	3,050457	1,10775	311,85	0,29	84,532	0	1016,34	6,7	8,8	8,8	1	1	1	1	1	1	1	1	1	0	1	-9,372798	274,028464	310,34423	0
15.01.2021	18:03:01	0	0	3,050457	1,10775	311,85	0,29	84,532	0	1016,34	6,7	8,8	8,8	1	1	1	1	1	1	1	1	1	0	1	-11,275546	274,116386	308,852002	0
15.01.2021	18:03:02	0	0	3,050457	1,08	311,472	0,289	84,521	0	1016,22	6,9	8,9	8,8	1	1	1	1	1	1	1	1	1	0	1	-7,399577	274,102948	312,665203	0
15.01.2021	18:03:03	0	0	4,745155	1,07925	308,9016	0,294	84,533	0	1016,38	6,7	8,8	8,8	1	1	1	1	1	1	1	1	1	0	1	-7,82241	274,08952	312,179654	0
15.01.2021	18:03:04	0	0	3,163437	1,0575	309,7044	0,296	84,543	0	1016,34	6,9	9	8,8	1	1	1	1	1	1	1	1	1	0	1	-10,570825	274,019546	309,104582	0
15.01.2021	18:03:05	0	0	3,728336	1,07175	304,6788	0,293	84,542	0	1016,14	6,9	8,9	8,8	1	1	1	1	1	1	1	1	1	0	1	-6,412967	273,954267	312,95793	0
15.01.2021	18:03:06	0	0	2,937477	1,06725	299,0412	0,291	84,515	0	1016,24	6,9	8,8	8,8	1	1	1	1	1	1	1	1	1	0	1	-9,584214	274,006175	310,028805	0
15.01.2021	18:03:07	0	0	4,632175	1,07925	303,5772	0,294	84,526	0	1016,08	6,9	9	8,8	1	1	1	1	1	1	1	1	1	0	1	-12,403101	274,128339	307,780286	0
15.01.2021	18:03:08	0	0	2,937477	1,10325	300,8844	0,297	84,546	0	1016,4	6,7	8,8	8,8	1	1	1	1	1	1	1	1	1	0	1	-10,711769	273,995783	308,852763	0
15.01.2021	18:03:09	0	0	3,163437	1,0845	306,4932	0,294	84,539	0	1016,22	6,9	8,9	8,8	1	1	1	1	1	1	1	1	1	0	1	-7,892882	273,949825	311,457298	0
15.01.2021	18:03:10	0	0	3,728336	1,1325	318,87	0,288	84,535	0	1016,34	6,9	8,8	8,8	1	1	1	1	1	1	1	1	1	0	1	-9,513742	274,06716	310,383914	0
15.01.2021	18:03:11	0	0	3,502398	1,20225	320,3856	0,29	84,552	0	1016,18	6,9	8,9	8,7	1	1	1	1	1	1	1	1	1	0	1	-10,288936	274,128339	309,894451	0
15.01.2021	18:03:12	0	0	2,711517	1,2555	322,9992	0,294	84,53	0	1016,3	6,9	9	8,8	1	1	1	1	1	1	1	1	1	0	1	-10,359408	273,951305	308,997677	0
15.01.2021	18:03:13	0	0	4,632175	1,3035	316,5696	0,295	84,545	0	1016,28	6,9	8,8	8,8	1	1	1	1	1	1	1	1	1	0	1	-7,117689	274,083555	312,856519	0
15.01.2021	18:03:14	0	0	4,858135	1,34775	320,7816	0,296	84,555	0	1016,3	6,9	8,8	8,8	1	1	1	1	1	1	1	1	1	0	1	-6,906272	273,964638	312,512986	0
15.01.2021	18:03:15	0	0	4,406216	1,425	321,8148	0,293	84,552	0	1016,34	6,9	8,8	8,8	1	1	1	1	1	1	1	1	1	0	1	-9,654686	274,015088	309,999919	0
15.01.2021	18:03:16	0	0	3,841339	1,4925	333,2304	0,292	84,539	0	1016,16	6,9	9	8,7	1	1	1	1	1	1	1	1	1	0	1	-11,557435	274,096979	308,479465	0
15.01.2021	18:03:17	0	0	4,745155	1,497	335,7324	0,292	84,541	0	1016,3	6,7	8,9	8,8	1	1	1	1	1	1	1	1	1	0	1	-7,82241	274,012117	311,81833	0
15.01.2021	18:03:18	0	0	3,615356	1,44675	322,2612	0,29	84,554	0	1016,34	6,7	9	8,8	1	1	1	1	1	1	1	1	1	0	1	-10,570825	274,128339	309,612563	0
15.01.2021	18:03:19	0	0	4,632175	1,4025	318,1284	0,287	84,561	0	1016,16	6,9	8,9	8,8	1	1	1	1	1	1	1	1	1	0	1	-13,248767	274,050779	306,572416	0
15.01.2021	18:03:20	0	0	4,519195	1,42725	315,2052	0,29	84,562	0	1016,22	6,9	8,9	8,8	1	1	1	1	1	1	1	1	1	0	1	-7,610994	273,951305	311,746092	0
15.01.2021	18:03:21	0	0	3,615378	1,443	324,0108	0,293	84,554	0	1016,3	6,9	8,9	8,7	1	1	1	1	1	1	1	1	1	0	1	-15,433404	274,083555	304,540804	0
15.01.2021	18:03:22	0	0	2,485558	1,46175	317,4012	0,292	84,548	0	1016,18	6,9	9	8,8	1	1	1	1	1	1	1	1	1	0	1	-10,218464	273,975014	309,249187	0
15.01.2021	18:03:23	0	0	3,841316	1,46925	315,5724	0,292	84,561	0	1016,32	6,9	9	8,8	1	1	1	1	1	1	1	1	1	0	1	-8,386187	274,07014	311,525381	0
15.01.2021	18:03:24	0	0	2,485558	1,47975	320,346	0,289	84,547	0	1016,32	6,9	8,9	8,8	1	1	1	1	1	1	1	1	1	0	1	-9,513742	274,131328	310,683611	0
15.01.2021	18:03:25	0	0	4,745155	1,43475	325,4436	0,291	84,556	0	1016,4	6,9	9	8,8	1	1	1	1	1	1	1	1	1	0	1	-11,41649	274,047803	308,390797	0
15.01.2021	18:03:26	0	0	3,728359	1,37025	320,526	0,295	84,561	0	1016,3	6,9	9	8,7	1	1	1	1	1	1	1	1	1	0	1	-8,45666	273,948344	310,886617	0
15.01.2021	18:03:27	0	0	3,954296	1,287	313,6392	0,292	84,563	0	1016,28	6,9	8,8	8,8	1	1	1	1	1	1	1	1	1	0	1	-5,567301	274,083555	314,406907	0
15.01.2021	18:03:28	0	0	2,937477	1,28625	324,6984	0,291	84,568	0	1016,26	6,9	8,9	8,8	1	1	1	1	1	1	1	1	1	0	1	-9,513742	273,975014	309,953909	0
15.01.2021	18:03:29	0	0	4,293236	1,31325	320,0112	0,292	84,564	0	1016,26	6,9	8,9	8,8	1	1	1	1	1	1	1	1	1	0	1	-9,654686	274,006175	309,958333	0
15.01.2021	18:03:30	0	0	3,728336	1,37025	326,8548	0,294	84,571	0	1016,3	6,9	8,9	8,8	1	1	1	1	1	1	1	1	1	0	1	-12,896406	273,952786	306,467585	0
15.01.2021	18:03:31	0	0	4,745184	1,30275	329,6448	0,286	84,561	0	1016,26	6,9	8,8	8,7	1	1	1	1	1	1	1	1	1	0	1	-13,319239	274,07163	306,599287	0
15.01.2021	18:03:32	0	0	3,050475	1,2645	325,9692	0,287	84,556	0	1016,4	6,7	9	8,7	1	1	1	1	1	1	1	1	1	0	1	-8,879493	274,132823	311,324845	0
15.01.2021	18:03:33	0	0	4,632175	1,18875	316,7244	0,284	84,561	0	1016,38	6,9	8,8	8,8	1	1	1	1	1	1	1	1	1	0	1	-7,047216	274,116386	313,080332	0
15.01.2021	18:03:34	0	0	3,502376	1,1325	323,2512	0,288	84,562	0	1016,22	6,9	9	8,8	1	1	1	1	1	1	1	1	1	0	1	-12,896406	273,989846	306,640433	0
15.01.2021	18:03:35	0	0	4,293261	1,03875	314,0244	0,293	84,573	0	1016,3	7	8,8	8,7	1	1	1	1	1	1	1	1	1	0	1	-8,738548	273,963156	310,673799	0
15.01.2021	18:03:36	0	0	2,937477	1,026	288,8172	0,293	84,573	0	1016,26	6,7	8,8	8,8	1	1	1	1	1	1	1	1	1	0	1	-10,641297	273,979462	308,847104	0
15.01.2021	18:03:37	0	0	2,372578	1,0215	292,6404	0,286	84,575	0	1016,44	6,9	8,9	8,8	1	1	1	1	1	1	1	1	1	0	1	-7,892882	274,009146	311,733996	0
15.01.2021	18:03:38	0	0	2,824497	1,0515	297,2052	0,286	84,58	0	1016,36	6,9	9	8,8	1	1	1	1	1	1	1	1	1	0	1	-5,567301	273,983912	313,941855	0
15.01.2021	18:03:39	0	0	4,406216	1,0545	309,2184	0,292	84,58	0	1016,34	6,9	8,8	8,8	1	1	1	1	1	1	1	1	1	0	1	-10,359408	273,955749	309,018396	0
15.01.2021	18:03:40	0	0	3,841316	1,04925	316,9872	0,287	84,581	0	1016,3	6,9	9	8,8	1	1	1	1	1	1	1	1	1	0	1	-9,866103	274,074611	310,066339	0
15.01.2021	18:03:41	0	0	2,937477	1,11	316,5768	0,285	84,587	0	1016,26	6,9	8,9	8,8	1	1	1	1	1	1	1	1	1	0	1	-9,302326	273,973531	310,15841	0
15.01.2021	18:03:42	0	0	3,841339	1,173	313,1856	0,286	84,586	0	1016,32	6,9	8,9	8,7	1	1	1	1	1	1	1	1	1	0	1	-8,033827	274,013602	311,613846	0
15.01.2021	18:03:43	0	0	2,824497	1,20225	308,8476	0,283	84,579	0	1016,22	6,9	8,9	8,8	1	1	1	1	1	1	1	1	1	0	1	-9,936575	273,955749	309,441229	0
15.01.2021	18:03:44	0	0	3,050457	1,19625	322,2504	0,284	84,583	0	1016,24	6,9	8,9	8,8	1	1	1	1	1	1	1	1	1	0	1	-13,953488	274,019546	305,721919	0
15.01.2021	18:03:45	0	0	4,632175	1,08975	305,7768	0,288	84,579	0	1016,3	6,9	8,8	8,8	1	1	1	1	1	1	1	1	1	0	1	-9,020437	273,967602	310,412645	0
15.01.2021	18:03:46	0	0	4,293236	1,0875	282,0852	0,287	84,578	0	1016,18	6,9	9	8,8	1	1	1	1	1	1	1	1	1	0	1	-8,527132	274,119373	311,614372	0
15.01.2021	18:03:47	0	0	4,632175	1,16625	296,532	0,29	84,59	0	1016,32	6,9	8,9	8,8	1	1	1	1	1	1	1	1	1	0	1	-12,332629	274,135813	307,885679	0
15.01.2021	18:03:48	0	0	2,937477	1,26075	299,394	0,29	84,576	0	1016,2	6,9	8,9	8,8	1	1	1	1	1	1	1	1	1	0	1	-10,711769	274,076101	309,227633	0
15.01.2021	18:03:49	0	0	3,954296	1,3635	301,9896	0,286	84,583	0	1016,26	6,9	8,9	8,8	1	1	1	1	1	1	1	1	1	0	1	-12,896406	274,105934	307,182318	0
15.01.2021	18:03:50	0	0	2,598537	1,356	303,8688	0,287	84,59	0	1016,32	6,9	8,9	8,8	1	1	1	1	1	1	1	1	1	0	1	-10,782241	274,140298	309,457027	0
15.01.2021	18:03:51	0	0	3,954296	1,305	289,6416	0,289	84,584	0	1016,28	6,7	9	8,8	1	1	1	1	1	1	1	1	1	0	1	-11,486963	273,995783	308,077569	0
15.01.2021	18:03:52	0	0	2,598537	1,31325	294,1956	0,294	84,595	0	1016,22	6,9	8,8	8,8	1	1	1	1	1	1	1	1	1	0	1	-10,500352	274,07312	309,425131	0
15.01.2021	18:03:53	0	0	3,841316	1,365	312,498	0,292	84,602	0	1016,16	7	8,8	8,8	1	1	1	1	1	1	1	1	1	0	1	-5,84919	273,964638	313,570069	0
15.01.2021	18:03:54	0	0	5,084095	1,33575	305,0424	0,293	84,606	0	1016,16	6,9	8,9	8,8	1	1	1	1	1	1	1	1	1	0	1	-9,302326	274,003205	310,296837	0
15.01.2021	18:03:55	0	0	3,615378	1,29825	302,0724	0,285	84,608	0	1016,28	7	9	8,7	1	1	1	1	1	1	1	1	1	0	1	-13,319239	274,12535	306,850185	0
15.01.2021	18:03:56	0	0	4,519195	1,22475	308,2068	0,284	84,592	0	1016,24	6,9	8,9	8,8	1	1	1	1	1	1	1	1	1	0	1	-10,007047	274,137308	310,218247	0
15.01.2021	18:03:57	0	0	4,632175	1,1325	301,2624	0,284	84,611	0	1016,32	6,9	8,9	8,8	1	1	1	1	1	1	1	1	1	0	1	-14,65821	274,102948	305,40657	0
15.01.2021	18:03:58	0	0	4,745155	1,10025	285,8652	0,289	84,64	0	1016,34	6,9	8,9	8,8	1	1	1	1	1	1	1	1	1	0	1	-9,44327	274,082064	310,523975	0
15.01.2021	18:03:59	0	0	3,728336	1,041	287,7264	0,287	84,611	0	1016,32	6,9	8,8	8,8	1	1	1	1	1	1	1	1	1	0	1	-12,121212	274,085046	307,859959	0
15.01.2021	18:04:00	0	0	4,293236	1,01625	285,246	0,288	84,618	0	1016,32	6,9	8,9	8,8	1	1	1	1	1	1	1	1	1	0	1	-12,896406	274,074611	307,036036	0
15.01.2021	18:04:01	0	0	3,050457	0,945	277,5456	0,283	84,6	0	1016,3	6,9	8,9	8,8	1	1	1	1	1	1	1	1	1	0	1	-5,355884	273,992814	314,194799	0
15.01.2021	18:04:02	0	0	4,858135	0,966	290,8224	0,29	84,613	0	1016,24	6,7	9	8,8	1	1	1	1	1	1	1	1	1	0	1	-13,460183	274,128339	306,723204	0
15.01.2021	18:04:03	0	0	3,954296	1,0095	294,1704	0,285	84,619	0	1016,32	6,9	8,9	8,8	1	1	1	1	1	1	1	1	1	0	1	-9,866103	274,061202	310,003735	0
15.01.2021	18:04:04	0	0	4,858135	1,041	299,4588	0,288	84,61	0	1016,26	6,9	9	8,8	1	1	1	1	1	1	1	1	1	0	1	-8,315715	274,12535	311,853708	0
15.01.2021	18:04:05	0	0	4,293236	1,077	297,2412	0,284	84,608	0	1016,38	6,9	8,9	8,8	1	1	1	1	1	1	1	1	1	0	1	-9,654686	274,043338	310,131762	0
15.01.2021	18:04:06	0	0	3,050457	1,15575	292,6116	0,284	84,611	0	1016,3	6,9	8,9	8,8	1	1	1	1	1	1	1	1	1	0	1	-7,610994	273,967602	311,822088	0
15.01.2021	18:04:07	0	0	2,711517	1,25775	300,9384	0,283	84,608	0	1016,28	6,9	8,9	8,8	1	1	1	1	1	1	1	1	1	0	1	-9,090909	274,058223	310,765024	0
15.01.2021	18:04:08	0	0	2,711517	1,27425	330,138	0,279	84,611	0	1016,22	6,9	8,9	8,8	1	1	1	1	1	1	1	1	1	0	1	-10,570825	273,970566	308,876083	0
15.01.2021	18:04:09	0	0	4,293236	1,236	329,2884	0,278	84,615	0	1016,18	7	8,9	8,8	1	1	1	1	1	1	1	1	1	0	1	-12,473573	273,979462	307,014828	0
15.01.2021	18:04:10	0	0	4,519195	1,152	303,2424	0,286	84,627	0	1016,38	6,7	8,9	8,8	1	1	1	1	1	1	1	1	1	0	1	-9,161381	274,092503	310,854615	0
15.01.2021	18:04:11	0	0	2,824497	1,176	277,1208	0,282	84,623	0	1016,3	6,9	8,8	8,8	1	1	1	1	1	1	1	1	1	0	1	-10,42988	273,982429	309,072357	0
15.01.2021	18:04:12	0	0	3,389397	1,146	300,132	0,284	84,628	0	1016,28	6,7	8,9	8,8	1	1	1	1	1	1	1	1	1	0	1	-11,980268	273,985395	307,535808	0
15.01.2021	18:04:13	0	0	2,824497	1,15425	312,1524	0,285	84,622	0	1016,36	7	8,9	8,8	1	1	1	1	1	1	1	1	1	0	1	-12,896406	273,988363	306,633511	0
15.01.2021	18:04:14	0	0	4,745155	1,18275	292,194	0,281	84,639	0	1016,26	6,7	8,8	8,8	1	1	1	1	1	1	1	1	1	0	1	-11,275546	274,102948	308,789234	0
15.01.2021	18:04:15	0	0	3,615356	1,2735	296,8092	0,287	84,622	0	1016,06	6,9	8,9	8,8	1	1	1	1	1	1	1	1	1	0	1	-5,919662	274,00766	313,700287	0
15.01.2021	18:04:16	0	0	4,632175	1,27575	330,4116	0,284	84,616	0	1016,24	6,9	8,8	8,8	1	1	1	1	1	1	1	1	1	0	1	-14,799154	274,132823	305,405183	0
15.01.2021	18:04:17	0	0	3,502376	1,215	320,0508	0,29	84,63	0	1016,34	6,9	8,9	8,8	1	1	1	1	1	1	1	1	1	0	1	-9,866103	274,082064	310,101142	0
15.01.2021	18:04:18	0	0	3,502376	1,12275	315,2268	0,285	84,63	0	1016,36	6,9	8,9	8,8	1	1	1	1	1	1	1	1	1	0	1	-6,976744	273,961674	312,428693	0
15.01.2021	18:04:19	0	0	2,937477	1,0395	322,2468	0,282	84,641	0	1016,34	6,7	8,8	8,8	1	1	1	1	1	1	1	1	1	0	1	-12,966878	274,079082	306,986444	0
15.01.2021	18:04:20	0	0	3,163437	0,98775	328,914	0,276	84,641	0	1016,28	6,7	8,9	8,8	1	1	1	1	1	1	1	1	1	0	1	-12,614517	273,955749	306,763287	0
15.01.2021	18:04:21	0	0	3,163437	0,92775	320,7888	0,283	84,631	0	1016,34	6,9	8,9	8,8	1	1	1	1	1	1	1	1	1	0	1	-12,614517	273,973531	306,846219	0
15.01.2021	18:04:22	0	0	2,937477	0,91575	323,0028	0,283	84,641	0	1016,24	6,9	8,9	8,8	1	1	1	1	1	1	1	1	1	0	1	-6,976744	273,992814	312,573939	0
15.01.2021	18:04:23	0	0	3,050475	0,9075	332,7984	0,285	84,628	0	1016,36	6,9	8,9	8,7	1	1	1	1	1	1	1	1	1	0	1	-10,147992	274,010631	309,485818	0
15.01.2021	18:04:24	0	0	3,050457	0,89175	332,7912	0,281	84,64	0	1016,2	7	9	8,8	1	1	1	1	1	1	1	1	1	0	1	-12,966878	273,986879	306,556118	0
15.01.2021	18:04:25	0	0	4,406242	0,8745	322,5996	0,284	84,634	0	1016,2	6,9	8,9	8,7	1	1	1	1	1	1	1	1	1	0	1	-9,654686	273,969084	309,785308	0
15.01.2021	18:04:26	0	0	3,050457	0,9435	312,1596	0,282	84,65	0	1016,36	6,9	8,9	8,8	1	1	1	1	1	1	1	1	1	0	1	-12,262156	273,979462	307,226244	0
15.01.2021	18:04:27	0	0	2,485558	1,059	304,6716	0,287	84,649	0	1016,32	6,9	8,9	8,8	1	1	1	1	1	1	1	1	1	0	1	-12,121212	274,003205	307,47795	0
15.01.2021	18:04:28	0	0	4,180256	1,16475	314,1432	0,285	84,643	0	1016,28	6,7	8,9	8,8	1	1	1	1	1	1	1	1	1	0	1	-8,668076	274,098471	311,375793	0
15.01.2021	18:04:29	0	0	3,389397	1,23	330,3324	0,281	84,638	0	1016,3	7	8,9	8,8	1	1	1	1	1	1	1	1	1	0	1	-10,570825	274,086537	309,41731	0
15.01.2021	18:04:30	0	0	3,615356	1,2285	311,4396	0,29	84,637	0	1016,34	6,9	8,9	8,8	1	1	1	1	1	1	1	1	1	0	1	-11,768851	274,14329	308,484393	0
15.01.2021	18:04:31	0	0	2,372578	1,2315	324,3888	0,288	84,648	0	1016,3	7	8,9	8,8	1	1	1	1	1	1	1	1	1	0	1	-10,711769	274,06716	309,185887	0
15.01.2021	18:04:32	0	0	3,954296	1,269	336,438	0,284	84,653	0	1016,34	6,9	9	8,8	1	1	1	1	1	1	1	1	1	0	1	-10,288936	274,123856	309,873507	0
15.01.2021	18:04:33	0	0	4,519195	1,2585	310,6836	0,285	84,65	0	1016,24	6,7	8,9	8,8	1	1	1	1	1	1	1	1	1	0	1	-9,725159	274,040363	310,0474	0
15.01.2021	18:04:34	0	0	3,954296	1,3605	327,8052	0,284	84,659	0	1016,28	7	8,9	8,8	1	1	1	1	1	1	1	1	1	0	1	-11,698379	273,967602	307,734703	0
15.01.2021	18:04:35	0	0	2,824514	1,416	319,482	0,283	84,65	0	1016,24	6,9	8,9	8,7	1	1	1	1	1	1	1	1	1	0	1	-9,654686	274,052268	310,173445	0
15.01.2021	18:04:36	0	0	2,598553	1,50525	320,7564	0,282	84,667	0	1016,22	6,9	8,9	8,7	1	1	1	1	1	1	1	1	1	0	1	-12,191684	274,131328	308,005669	0
15.01.2021	18:04:37	0	0	5,423035	1,551	322,218	0,285	84,656	0	1016,2	6,7	8,9	8,8	1	1	1	1	1	1	1	1	1	0	1	-8,245243	274,056734	311,603739	0
15.01.2021	18:04:38	0	0	3,954296	1,5705	315,486	0,285	84,653	0	1016,2	7	8,9	8,8	1	1	1	1	1	1	1	1	1	0	1	-10,711769	274,149273	309,569437	0
15.01.2021	18:04:39	0	0	3,502398	1,45125	312,7932	0,284	84,664	0	1016,26	6,9	8,9	8,7	1	1	1	1	1	1	1	1	1	0	1	-11,557435	274,0359	308,194295	0
15.01.2021	18:04:40	0	0	3,389397	1,3905	313,2144	0,285	84,657	0	1016,14	6,9	8,9	8,8	1	1	1	1	1	1	1	1	1	0	1	-11,134602	274,131328	309,062752	0
15.01.2021	18:04:41	0	0	2,372578	1,3695	299,3904	0,282	84,653	0	1016,3	7	8,8	8,8	1	1	1	1	1	1	1	1	1	0	1	-10,42988	273,998751	309,148502	0
15.01.2021	18:04:42	0	0	4,293261	1,3785	305,7768	0,285	84,658	0	1016,28	6,9	8,9	8,7	1	1	1	1	1	1	1	1	1	0	1	-10,923185	273,980945	308,572133	0
15.01.2021	18:04:43	0	0	3,954296	1,40025	305,28	0,279	84,658	0	1016,28	6,9	8,9	8,8	1	1	1	1	1	1	1	1	1	0	1	-14,517266	274,006175	305,095753	0
15.01.2021	18:04:44	0	0	4,406216	1,50825	311,4648	0,28	84,667	0	1016,14	6,9	8,9	8,8	1	1	1	1	1	1	1	1	1	0	1	-6,8358	274,119373	313,305704	0
15.01.2021	18:04:45	0	0	5,197075	1,64175	304,6608	0,283	84,668	0	1016,3	6,9	8,8	8,8	1	1	1	1	1	1	1	1	1	0	1	-14,023961	274,083555	305,950247	0
15.01.2021	18:04:46	0	0	4,180256	1,72425	315,8316	0,284	84,67	0	1016,2	6,7	8,9	8,8	1	1	1	1	1	1	1	1	1	0	1	-14,235377	274,141794	306,010879	0
15.01.2021	18:04:47	0	0	4,632175	1,65525	314,3808	0,281	84,658	0	1016,14	7	8,9	8,8	1	1	1	1	1	1	1	1	1	0	1	-13,389711	274,059713	306,473174	0
15.01.2021	18:04:48	0	0	3,050457	1,6545	311,8068	0,281	84,679	0	1016,3	6,9	8,9	8,8	1	1	1	1	1	1	1	1	1	0	1	-12,332629	273,96612	307,093541	0
15.01.2021	18:04:49	0	0	2,711517	1,6125	314,1036	0,282	84,685	0	1016,3	7	8,9	8,8	1	1	1	1	1	1	1	1	1	0	1	-9,936575	274,059713	309,926311	0
15.01.2021	18:04:50	0	0	4,067276	1,602	325,494	0,279	84,673	0	1016,2	6,9	8,9	8,8	1	1	1	1	1	1	1	1	1	0	1	-11,205074	273,964638	308,214184	0
15.01.2021	18:04:51	0	0	3,841316	1,575	321,0876	0,284	84,67	0	1016,28	6,9	8,9	8,8	1	1	1	1	1	1	1	1	1	0	1	-10,711769	274,0359	309,039961	0
15.01.2021	18:04:52	0	0	2,598537	1,482	318,4164	0,282	84,677	0	1016,26	6,9	8,9	8,8	1	1	1	1	1	1	1	1	1	0	1	-10,500352	274,144785	309,759882	0
15.01.2021	18:04:53	0	0	2,598537	1,35	327,7512	0,285	84,676	0	1016,34	7	8,9	8,8	1	1	1	1	1	1	1	1	1	0	1	-11,768851	274,076101	308,17055	0
15.01.2021	18:04:54	0	0	2,598553	1,29525	335,7432	0,285	84,671	0	1016,3	6,7	8,9	8,7	1	1	1	1	1	1	1	1	1	0	1	-11,980268	273,972049	307,473554	0
15.01.2021	18:04:55	0	0	4,293236	1,2615	311,4288	0,279	84,66	0	1016,18	6,9	8,9	8,8	1	1	1	1	1	1	1	1	1	0	1	-10,923185	274,077591	309,023176	0
15.01.2021	18:04:56	0	0	4,745184	1,2885	307,1376	0,282	84,683	0	1016,26	6,9	8,9	8,7	1	1	1	1	1	1	1	1	1	0	1	-15,785765	273,977979	303,695719	0
15.01.2021	18:04:57	0	0	4,067276	1,31625	317,6892	0,283	84,668	0	1016,44	6,7	8,9	8,8	1	1	1	1	1	1	1	1	1	0	1	-8,033827	274,077591	311,912535	0
15.01.2021	18:04:58	0	0	2,711517	1,233	339,4296	0,286	84,678	0	1016,34	7	8,9	8,8	1	1	1	1	1	1	1	1	1	0	1	-10,641297	274,147777	309,632918	0
15.01.2021	18:04:59	0	0	3,276417	1,14675	326,3184	0,283	84,676	0	1016,2	6,7	8,9	8,8	1	1	1	1	1	1	1	1	1	0	1	-13,812544	274,114893	306,308027	0
15.01.2021	18:05:00	0	0	4,971115	1,1655	323,046	0,283	84,687	0	1016,3	6,9	8,9	8,8	1	1	1	1	1	1	1	1	1	0	1	-8,668076	273,988363	310,861841	0
15.01.2021	18:05:01	0	0	3,276417	1,1685	336,7044	0,286	84,685	0	1016,26	6,9	8,8	8,8	1	1	1	1	1	1	1	1	1	0	1	-9,936575	274,024005	309,759639	0
15.01.2021	18:05:02	0	0	4,293236	1,17075	339,4368	0,283	84,685	0	1016,16	6,7	8,9	8,8	1	1	1	1	1	1	1	1	1	0	1	-9,725159	274,153762	310,577025	0
15.01.2021	18:05:03	0	0	3,841316	1,19025	325,9872	0,281	84,672	0	1016,22	6,9	8,9	8,8	1	1	1	1	1	1	1	1	1	0	1	-9,090909	273,96612	310,335261	0
15.01.2021	18:05:04	0	0	2,937477	1,248	345,114	0,285	84,69	0	1016,28	6,9	8,9	8,8	1	1	1	1	1	1	1	1	1	0	1	-10,782241	273,976497	308,692326	0
15.01.2021	18:05:05	0	0	3,276436	1,29525	339,7572	0,284	84,69	0	1016,4	6,9	8,9	8,7	1	1	1	1	1	1	1	1	1	0	1	-12,473573	274,013602	307,1741	0
15.01.2021	18:05:06	0	0	2,598537	1,29375	328,2408	0,286	84,689	0	1016,2	6,7	8,9	8,8	1	1	1	1	1	1	1	1	1	0	1	-10,782241	274,001721	308,809994	0
15.01.2021	18:05:07	0	0	3,389397	1,3065	327,8196	0,279	84,673	0	1016,34	6,7	8,9	8,8	1	1	1	1	1	1	1	1	1	0	1	-9,090909	274,016574	310,570629	0
15.01.2021	18:05:08	0	0	3,502376	1,22625	326,808	0,284	84,693	0	1016,3	6,7	8,9	8,8	1	1	1	1	1	1	1	1	1	0	1	-10,077519	274,003205	309,521643	0
15.01.2021	18:05:09	0	0	4,519195	1,167	334,7496	0,286	84,685	0	1016,2	6,9	8,9	8,8	1	1	1	1	1	1	1	1	1	0	1	-12,473573	274,092503	307,542424	0
15.01.2021	18:05:10	0	0	3,276417	1,17075	330,7644	0,279	84,683	0	1016,32	6,9	8,9	8,8	1	1	1	1	1	1	1	1	1	0	1	-13,460183	274,029951	306,263784	0
15.01.2021	18:05:11	0	0	4,971145	1,22925	320,4864	0,285	84,69	0	1016,18	6,9	8,9	8,7	1	1	1	1	1	1	1	1	1	0	1	-7,540521	274,149273	312,740684	0
15.01.2021	18:05:12	0	0	3,954296	1,31325	334,2924	0,288	84,695	0	1016,1	7	8,9	8,8	1	1	1	1	1	1	1	1	1	0	1	-9,654686	274,013602	309,992986	0
15.01.2021	18:05:13	0	0	3,050475	1,35225	326,7576	0,287	84,694	0	1016,16	6,9	8,9	8,7	1	1	1	1	1	1	1	1	1	0	1	-11,346018	274,146281	308,921206	0
15.01.2021	18:05:14	0	0	5,310087	1,386	319,986	0,282	84,698	0	1016,3	6,7	9	8,7	1	1	1	1	1	1	1	1	1	0	1	-13,601128	274,076101	306,338274	0
15.01.2021	18:05:15	0	0	4,293236	1,42275	315,216	0,284	84,694	0	1016,26	6,9	8,9	8,8	1	1	1	1	1	1	1	1	1	0	1	-10,570825	274,129833	309,619545	0
15.01.2021	18:05:16	0	0	4,632203	1,37925	317,7216	0,282	84,685	0	1016,36	6,9	8,9	8,7	1	1	1	1	1	1	1	1	1	0	1	-10,993658	274,099963	309,057181	0
15.01.2021	18:05:17	0	0	3,615356	1,3395	322,2576	0,285	84,687	0	1016,16	7	8,9	8,8	1	1	1	1	1	1	1	1	1	0	1	-10,288936	274,156756	310,027237	0
15.01.2021	18:05:18	0	0	4,858135	1,35225	318,4704	0,289	84,705	0	1016,08	6,9	8,9	8,8	1	1	1	1	1	1	1	1	1	0	1	-15,221987	274,044826	304,571407	0
15.01.2021	18:05:19	0	0	4,519195	1,479	325,4832	0,285	84,698	0	1016,18	6,7	8,9	8,8	1	1	1	1	1	1	1	1	1	0	1	-12,825934	274,146281	307,44129	0
15.01.2021	18:05:20	0	0	4,293236	1,49775	322,1856	0,285	84,698	0	1016,26	6,7	8,9	8,8	1	1	1	1	1	1	1	1	1	0	1	-12,121212	274,101456	307,936597	0
15.01.2021	18:05:21	0	0	3,841316	1,434	331,524	0,287	84,706	0	1016,02	6,9	9	8,8	1	1	1	1	1	1	1	1	1	0	1	-11,557435	274,149273	308,723771	0
15.01.2021	18:05:22	0	0	2,485558	1,431	327,906	0,289	84,7	0	1016,34	6,9	8,9	8,8	1	1	1	1	1	1	1	1	1	0	1	-11,980268	274,047803	307,827019	0
15.01.2021	18:05:23	0	0	2,598537	1,545	312,444	0,287	84,704	0	1016,28	6,9	8,9	8,8	1	1	1	1	1	1	1	1	1	0	1	-7,751938	274,159749	312,578226	0
15.01.2021	18:05:24	0	0	3,615356	1,653	322,2576	0,282	84,705	0	1016,2	6,9	8,9	8,8	1	1	1	1	1	1	1	1	1	0	1	-6,906272	274,086537	313,081863	0
15.01.2021	18:05:25	0	0	3,050457	1,6335	311,0904	0,281	84,701	0	1016,24	6,9	9	8,8	1	1	1	1	1	1	1	1	1	0	1	-10,570825	274,147777	309,70339	0
15.01.2021	18:05:26	0	0	2,937477	1,617	319,6332	0,284	84,686	0	1016,22	6,9	8,9	8,8	1	1	1	1	1	1	1	1	1	0	1	-6,272023	274,086537	313,716112	0
15.01.2021	18:05:27	0	0	4,293236	1,61325	337,1724	0,284	84,706	0	1016,3	6,9	8,9	8,8	1	1	1	1	1	1	1	1	1	0	1	-9,936575	274,162743	310,407582	0
15.01.2021	18:05:28	0	0	2,824514	1,57575	331,4664	0,288	84,696	0	1016,32	6,9	8,9	8,7	1	1	1	1	1	1	1	1	1	0	1	-10,007047	274,091012	310,001983	0
15.01.2021	18:05:29	0	0	4,858135	1,521	330,3612	0,278	84,709	0	1016,24	6,9	8,9	8,8	1	1	1	1	1	1	1	1	1	0	1	-10,570825	274,149273	309,710381	0
15.01.2021	18:05:30	0	0	3,954296	1,497	329,2812	0,283	84,696	0	1016,14	6,9	8,9	8,8	1	1	1	1	1	1	1	1	1	0	1	-8,45666	274,096979	311,58024	0
15.01.2021	18:05:31	0	0	3,163437	1,5735	325,5372	0,284	84,72	0	1016,18	7	8,9	8,8	1	1	1	1	1	1	1	1	1	0	1	-9,231853	274,009146	310,395025	0
15.01.2021	18:05:32	0	0	4,406242	1,5825	331,9632	0,286	84,709	0	1016,2	6,9	8,9	8,7	1	1	1	1	1	1	1	1	1	0	1	-8,315715	274,140298	311,923553	0
15.01.2021	18:05:33	0	0	3,841316	1,64925	328,5684	0,286	84,711	0	1016,3	6,9	8,9	8,8	1	1	1	1	1	1	1	1	1	0	1	-9,231853	274,040363	310,540706	0
15.01.2021	18:05:34	0	0	3,276417	1,71375	319,518	0,276	84,701	0	1016,18	7	8,9	8,8	1	1	1	1	1	1	1	1	1	0	1	-14,799154	274,144785	305,46108	0
15.01.2021	18:05:35	0	0	3,615356	1,722	326,3904	0,285	84,722	0	1016,2	6,9	8,9	8,8	1	1	1	1	1	1	1	1	1	0	1	-9,090909	274,061202	310,778929	0
15.01.2021	18:05:36	0	0	3,728336	1,68675	328,6332	0,284	84,714	0	1016,2	7	8,9	8,8	1	1	1	1	1	1	1	1	1	0	1	-12,966878	274,149273	307,314328	0
15.01.2021	18:05:37	0	0	3,728336	1,53	320,0292	0,279	84,709	0	1016,3	6,9	8,9	8,8	1	1	1	1	1	1	1	1	1	0	1	-11,134602	274,099963	308,916237	0
15.01.2021	18:05:38	0	0	2,711534	1,488	324,1224	0,285	84,719	0	1016,16	6,9	8,9	8,7	1	1	1	1	1	1	1	1	1	0	1	-11,839323	273,979462	307,649077	0
15.01.2021	18:05:39	0	0	4,293236	1,46925	334,6488	0,286	84,724	0	1016,2	7	9	8,8	1	1	1	1	1	1	1	1	1	0	1	-11,486963	274,062691	308,389829	0
15.01.2021	18:05:40	0	0	3,728359	1,386	324,072	0,287	84,725	0	1016,34	7	8,9	8,7	1	1	1	1	1	1	1	1	1	0	1	-8,45666	274,153762	311,845524	0
15.01.2021	18:05:41	0	0	2,372578	1,359	330,1164	0,282	84,708	0	1016,14	6,9	8,9	8,8	1	1	1	1	1	1	1	1	1	0	1	-12,614517	274,082064	307,352728	0
15.01.2021	18:05:42	0	0	4,632175	1,38375	327,1068	0,29	84,728	0	1016,46	6,9	8,9	8,8	1	1	1	1	1	1	1	1	1	0	1	-7,610994	274,153762	312,69119	0
15.01.2021	18:05:43	0	0	4,406216	1,3125	322,5708	0,288	84,736	0	1016,24	6,9	8,9	8,8	1	1	1	1	1	1	1	1	1	0	1	-11,41649	274,086537	308,571644	0
15.01.2021	18:05:44	0	0	3,954296	1,25325	316,2744	0,285	84,729	0	1016,34	6,9	8,8	8,8	1	1	1	1	1	1	1	1	1	0	1	-10,711769	274,153762	309,590415	0
15.01.2021	18:05:45	0	0	2,824497	1,12125	309,8952	0,284	84,714	0	1016,22	6,9	8,9	8,8	1	1	1	1	1	1	1	1	1	0	1	-11,627907	274,046314	308,172433	0
15.01.2021	18:05:46	0	0	2,824497	0,96	309,9348	0,287	84,727	0	1016,24	6,9	8,9	8,8	1	1	1	1	1	1	1	1	1	0	1	-15,221987	273,979462	304,266413	0
15.01.2021	18:05:47	0	0	2,598537	0,84825	307,2312	0,287	84,725	0	1016,18	6,9	8,9	8,8	1	1	1	1	1	1	1	1	1	0	1	-9,372798	274,050779	310,448385	0
15.01.2021	18:05:48	0	0	4,406216	0,843	293,346	0,285	84,708	0	1016,26	6,9	8,9	8,8	1	1	1	1	1	1	1	1	1	0	1	-12,684989	273,986879	306,838006	0
15.01.2021	18:05:49	0	0	2,372578	0,88575	281,3652	0,288	84,736	0	1016,36	6,9	8,9	8,8	1	1	1	1	1	1	1	1	1	0	1	-9,654686	274,01806	310,013786	0
15.01.2021	18:05:50	0	0	4,293236	1,0155	296,4528	0,284	84,725	0	1016,32	6,9	8,8	8,8	1	1	1	1	1	1	1	1	1	0	1	-9,513742	274,15077	310,774456	0
15.01.2021	18:05:51	0	0	3,502398	1,0905	315,234	0,284	84,721	0	1016,24	6,9	8,9	8,7	1	1	1	1	1	1	1	1	1	0	1	-9,936575	274,050779	309,884608	0
15.01.2021	18:05:52	0	0	4,293236	1,089	302,454	0,28	84,724	0	1016,18	7	8,8	8,8	1	1	1	1	1	1	1	1	1	0	1	-10,147992	274,155259	310,161186	0
15.01.2021	18:05:53	0	0	3,389397	1,07175	301,5972	0,281	84,724	0	1016,26	6,9	8,9	8,8	1	1	1	1	1	1	1	1	1	0	1	-10,359408	274,021032	309,322934	0
15.01.2021	18:05:54	0	0	4,632175	1,07025	299,0916	0,285	84,734	0	1016,08	6,9	8,9	8,8	1	1	1	1	1	1	1	1	1	0	1	-10,570825	273,988363	308,959092	0
15.01.2021	18:05:55	0	0	3,163437	1,0935	293,7708	0,284	84,729	0	1016,24	6,9	8,9	8,8	1	1	1	1	1	1	1	1	1	0	1	-11,346018	274,026978	308,364071	0
15.01.2021	18:05:56	0	0	4,293236	1,1535	303,5268	0,286	84,725	0	1016,12	7	8,9	8,8	1	1	1	1	1	1	1	1	1	0	1	-7,82241	273,973531	311,638326	0
15.01.2021	18:05:57	0	0	3,841339	1,194	304,3404	0,284	84,741	0	1016,26	6,9	8,9	8,7	1	1	1	1	1	1	1	1	1	0	1	-13,319239	274,116386	306,808309	0
15.01.2021	18:05:58	0	0	3,050457	1,22775	303,9912	0,283	84,728	0	1016,24	6,9	8,9	8,8	1	1	1	1	1	1	1	1	1	0	1	-11,980268	273,995783	307,584264	0
15.01.2021	18:05:59	0	0	3,954296	1,23975	305,406	0,288	84,741	0	1016,24	6,9	8,9	8,8	1	1	1	1	1	1	1	1	1	0	1	-13,248767	274,164241	307,102389	0
15.01.2021	18:06:00	0	0	2,711517	1,31475	308,9628	0,292	84,737	0	1016,32	6,9	8,9	8,8	1	1	1	1	1	1	1	1	1	0	1	-11,909796	274,104441	308,161956	0
15.01.2021	18:06:01	0	0	2,711517	1,31475	308,9628	0,292	84,737	0	1016,32	6,9	8,9	8,8	1	1	1	1	1	1	1	1	1	0	1	-12,05074	273,982429	307,451497	0
15.01.2021	18:06:02	0	0	3,728336	1,2825	315,9	0,285	84,727	0	1016,3	6,9	8,9	8,8	1	1	1	1	1	1	1	1	1	0	1	-10,218464	274,110413	309,881181	0
15.01.2021	18:06:03	0	0	4,632175	1,23225	321,7932	0,283	84,723	0	1016,24	7	9	8,8	1	1	1	1	1	1	1	1	1	0	1	-13,03735	274,144785	307,222884	0
15.01.2021	18:06:04	0	0	4,519195	1,203	322,2072	0,288	84,73	0	1016,28	6,9	8,9	8,8	1	1	1	1	1	1	1	1	1	0	1	-11,205074	274,126844	308,971331	0
15.01.2021	18:06:05	0	0	4,406216	1,23	316,9908	0,286	84,738	0	1016,4	7	8,9	8,8	1	1	1	1	1	1	1	1	1	0	1	-10,852713	274,099963	309,198125	0
15.01.2021	18:06:06	0	0	4,519223	1,206	313,2216	0,282	84,719	0	1016,22	6,9	8,9	8,7	1	1	1	1	1	1	1	1	1	0	1	-10,288936	274,116386	309,838613	0
15.01.2021	18:06:07	0	0	3,163437	1,17675	314,8416	0,286	84,733	0	1016,3	6,9	8,9	8,8	1	1	1	1	1	1	1	1	1	0	1	-11,205074	273,997267	308,366382	0
15.01.2021	18:06:08	0	0	3,728336	1,10925	323,6652	0,289	84,75	0	1016,18	7	8,9	8,8	1	1	1	1	1	1	1	1	1	0	1	-10,570825	274,168733	309,801328	0
15.01.2021	18:06:09	0	0	4,406216	1,03275	306,792	0,292	84,746	0	1016,26	6,9	8,9	8,8	1	1	1	1	1	1	1	1	1	0	1	-11,839323	274,099963	308,211515	0
15.01.2021	18:06:10	0	0	4,406216	0,98175	293,3784	0,28	84,73	0	1016,28	6,9	8,9	8,8	1	1	1	1	1	1	1	1	1	0	1	-9,936575	273,977979	309,544908	0
15.01.2021	18:06:11	0	0	4,519195	1,0185	295,1676	0,285	84,73	0	1016,2	6,9	8,9	8,8	1	1	1	1	1	1	1	1	1	0	1	-10,077519	274,046314	309,722821	0
15.01.2021	18:06:12	0	0	4,971115	1,04625	308,3976	0,289	84,732	0	1016,22	7	9	8,8	1	1	1	1	1	1	1	1	1	0	1	-9,372798	273,983912	310,136358	0
15.01.2021	18:06:13	0	0	3,389397	1,07925	312,4692	0,28	84,73	0	1016,14	6,9	8,9	8,8	1	1	1	1	1	1	1	1	1	0	1	-10,500352	274,15077	309,787846	0
15.01.2021	18:06:14	0	0	4,180256	1,13175	319,5972	0,283	84,738	0	1016,06	7	8,9	8,8	1	1	1	1	1	1	1	1	1	0	1	-11,627907	274,116386	308,499641	0
15.01.2021	18:06:15	0	0	3,615356	1,2135	306,4932	0,287	84,751	0	1016,22	6,7	8,9	8,8	1	1	1	1	1	1	1	1	1	0	1	-12,403101	274,137308	307,822193	0
15.01.2021	18:06:16	0	0	3,276417	1,32075	300,1464	0,293	84,735	0	1016,26	6,7	8,9	8,8	1	1	1	1	1	1	1	1	1	0	1	-9,44327	273,985395	310,072806	0
15.01.2021	18:06:17	0	0	4,406216	1,36575	312,8652	0,286	84,743	0	1016,1	6,9	8,9	8,8	1	1	1	1	1	1	1	1	1	0	1	-8,597604	274,037387	311,161068	0
15.01.2021	18:06:18	0	0	4,067276	1,37175	305,0496	0,284	84,729	0	1016,22	6,9	8,9	8,8	1	1	1	1	1	1	1	1	1	0	1	-11,346018	274,012117	308,294722	0
15.01.2021	18:06:19	0	0	2,598537	1,36725	305,388	0,288	84,733	0	1016,16	6,9	9	8,8	1	1	1	1	1	1	1	1	1	0	1	-10,500352	273,986879	309,022643	0
15.01.2021	18:06:20	0	0	2,937477	1,35375	302,4	0,284	84,727	0	1016,26	6,9	8,9	8,8	1	1	1	1	1	1	1	1	1	0	1	-12,332629	274,07312	307,592855	0
15.01.2021	18:06:21	0	0	3,163456	1,32225	303,9084	0,287	84,743	0	1016,24	6,9	8,9	8,7	1	1	1	1	1	1	1	1	1	0	1	-9,231853	273,983912	310,277302	0
15.01.2021	18:06:22	0	0	3,841316	1,27425	299,9016	0,285	84,725	0	1016,2	7	9	8,8	1	1	1	1	1	1	1	1	1	0	1	-11,205074	274,122361	308,950389	0
15.01.2021	18:06:23	0	0	3,276417	1,206	297,9792	0,285	84,766	0	1016,6	6,9	9	8,8	1	1	1	1	1	1	1	1	1	0	1	-15,362932	274,113399	304,750664	0
15.01.2021	18:06:24	0	0	2,598537	1,089	301,6368	0,286	84,732	0	1016,3	7	8,9	8,8	1	1	1	1	1	1	1	1	1	0	1	-11,557435	273,985395	307,958641	0
15.01.2021	18:06:25	0	0	2,824497	1,056	315,1872	0,288	84,729	0	1016,34	7	8,9	8,8	1	1	1	1	1	1	1	1	1	0	1	-13,460183	274,088029	306,534916	0
15.01.2021	18:06:26	0	0	2,937477	1,01325	343,1628	0,286	84,752	0	1016,14	6,9	9	8,8	1	1	1	1	1	1	1	1	1	0	1	-12,825934	274,171729	307,560221	0
15.01.2021	18:06:27	0	0	2,485558	0,95175	357,2892	0,282	84,743	0	1016,24	6,9	8,9	8,8	1	1	1	1	1	1	1	1	1	0	1	-10,077519	274,099963	309,973319	0
15.01.2021	18:06:28	0	0	4,632175	0,90525	351,7416	0,291	84,736	0	1016,18	6,9	8,9	8,8	1	1	1	1	1	1	1	1	1	0	1	-11,205074	274,161246	309,132086	0
15.01.2021	18:06:29	0	0	3,502376	0,91725	354,0924	0,277	84,735	0	1016,2	6,9	8,9	8,8	1	1	1	1	1	1	1	1	1	0	1	-11,205074	274,07163	308,713452	0
15.01.2021	18:06:30	0	0	5,761974	0,84375	3,4812	0,279	84,732	0	1016,14	6,7	8,8	8,8	1	1	1	1	1	1	1	1	1	0	1	-9,161381	274,12535	311,008042	0
15.01.2021	18:06:31	0	0	3,841316	0,80775	9	0,283	84,743	0	1016,3	6,9	8,9	8,8	1	1	1	1	1	1	1	1	1	0	1	-8,315715	274,14329	311,937529	0
15.01.2021	18:06:32	0	0	5,197106	0,7335	0,1224	0,287	84,735	0	1016,18	6,9	8,8	8,7	1	1	1	1	1	1	1	1	1	0	1	-7,540521	274,161246	312,796639	0
15.01.2021	18:06:33	0	0	4,858135	0,70875	353,2068	0,287	84,739	0	1016,18	7	8,9	8,8	1	1	1	1	1	1	1	1	1	0	1	-10,077519	274,135813	310,140788	0
15.01.2021	18:06:34	0	0	5,084095	0,73725	355,9608	0,282	84,737	0	1016,18	6,9	8,9	8,8	1	1	1	1	1	1	1	1	1	0	1	-19,309373	274,155259	300,999805	0
15.01.2021	18:06:35	0	0	4,632175	0,75375	3,4056	0,287	84,734	0	1016,28	6,9	8,9	8,8	1	1	1	1	1	1	1	1	1	0	1	-9,44327	274,122361	310,712193	0
15.01.2021	18:06:36	0	0	4,632175	0,825	341,3628	0,289	84,729	0	1016,22	6,9	8,9	8,8	1	1	1	1	1	1	1	1	1	0	1	-13,883016	274,158252	306,440151	0
15.01.2021	18:06:37	0	0	4,180256	0,88725	312,8616	0,29	84,749	0	1016,4	6,9	9	8,8	1	1	1	1	1	1	1	1	1	0	1	-7,258633	274,147777	313,015582	0
15.01.2021	18:06:38	0	0	2,711517	0,97425	333,216	0,279	84,719	0	1016,18	6,9	9	8,8	1	1	1	1	1	1	1	1	1	0	1	-13,601128	273,989846	305,935711	0
15.01.2021	18:06:39	0	0	4,293236	1,1115	335,6424	0,278	84,737	0	1016,2	6,7	8,9	8,8	1	1	1	1	1	1	1	1	1	0	1	-14,376321	274,099963	305,674517	0
15.01.2021	18:06:40	0	0	4,519195	1,1685	335,7288	0,283	84,717	0	1016,26	6,9	9	8,8	1	1	1	1	1	1	1	1	1	0	1	-12,403101	273,995783	307,161431	0
15.01.2021	18:06:41	0	0	2,711517	1,26075	337,5288	0,285	84,738	0	1016,24	6,7	9	8,8	1	1	1	1	1	1	1	1	1	0	1	-11,768851	274,016574	307,892687	0
15.01.2021	18:06:42	0	0	2,146618	1,368	337,1364	0,289	84,737	0	1016,24	6,9	8,9	8,8	1	1	1	1	1	1	1	1	1	0	1	-11,557435	273,988363	307,972482	0
15.01.2021	18:06:43	0	0	3,050457	1,443	338,472	0,28	84,715	0	1016,18	6,9	8,9	8,8	1	1	1	1	1	1	1	1	1	0	1	-7,82241	274,026978	311,887679	0
15.01.2021	18:06:44	0	0	4,632175	1,48275	336,9276	0,288	84,731	0	1016,24	6,9	8,9	8,8	1	1	1	1	1	1	1	1	1	0	1	-8,104299	274,025491	311,598853	0
15.01.2021	18:06:45	0	0	2,937477	1,47375	340,92	0,284	84,739	0	1016,24	6,7	8,9	8,8	1	1	1	1	1	1	1	1	1	0	1	-8,245243	273,998751	311,333139	0
15.01.2021	18:06:46	0	0	2,711517	1,47	330,084	0,283	84,71	0	1016,36	6,9	9	8,8	1	1	1	1	1	1	1	1	1	0	1	-8,45666	274,046314	311,34368	0
15.01.2021	18:06:47	0	0	4,067276	1,437	332,4672	0,286	84,746	0	1016,28	6,9	8,9	8,8	1	1	1	1	1	1	1	1	1	0	1	-6,694856	274,00469	312,911235	0
15.01.2021	18:06:48	0	0	3,728336	1,4355	336,4272	0,288	84,733	0	1016,44	7	8,9	8,8	1	1	1	1	1	1	1	1	1	0	1	-9,866103	274,132823	310,338235	0
15.01.2021	18:06:49	0	0	2,485572	1,344	330,678	0,287	84,727	0	1016,24	7	8,9	8,7	1	1	1	1	1	1	1	1	1	0	1	-9,090909	273,986879	310,432087	0
15.01.2021	18:06:50	0	0	3,502398	1,275	328,1832	0,285	84,739	0	1016,4	6,7	9	8,7	1	1	1	1	1	1	1	1	1	0	1	-8,245243	274,098471	311,798626	0
15.01.2021	18:06:51	0	0	2,824497	1,212	317,718	0,288	84,721	0	1016,32	6,9	8,9	8,8	1	1	1	1	1	1	1	1	1	0	1	-12,684989	274,147777	307,589225	0
15.01.2021	18:06:52	0	0	4,745155	1,1535	316,998	0,288	84,748	0	1016,3	6,9	8,9	8,8	1	1	1	1	1	1	1	1	1	0	1	-9,725159	274,016574	309,93638	0
15.01.2021	18:06:53	0	0	4,180256	1,0905	323,3268	0,28	84,717	0	1016,24	6,7	9	8,8	1	1	1	1	1	1	1	1	1	0	1	-8,45666	274,01806	311,211813	0
15.01.2021	18:06:54	0	0	2,485558	0,99975	314,0568	0,28	84,731	0	1016,2	6,9	8,9	8,8	1	1	1	1	1	1	1	1	1	0	1	-11,768851	273,989846	307,767987	0
15.01.2021	18:06:55	0	0	3,050457	0,93075	305,3592	0,285	84,734	0	1016,32	7	8,9	8,8	1	1	1	1	1	1	1	1	1	0	1	-11,06413	273,994298	308,493478	0
15.01.2021	18:06:56	0	0	4,858164	0,85575	306,414	0,285	84,73	0	1016,74	6,9	8,9	8,7	1	1	1	1	1	1	1	1	1	0	1	-9,020437	274,064181	310,863309	0
15.01.2021	18:06:57	0	0	3,95432	0,849	304,686	0,283	84,734	0	1016,16	6,9	8,9	8,7	1	1	1	1	1	1	1	1	1	0	1	-11,768851	274,168733	308,603302	0
15.01.2021	18:06:58	0	0	4,632175	0,93525	299,016	0,29	84,727	0	1016,24	6,9	8,9	8,8	1	1	1	1	1	1	1	1	1	0	1	-11,768851	274,114893	308,35172	0
15.01.2021	18:06:59	0	0	3,615356	0,9375	307,3248	0,288	84,731	0	1016,26	6,9	8,9	8,8	1	1	1	1	1	1	1	1	1	0	1	-11,839323	274,038875	307,926292	0
15.01.2021	18:07:00	0	0	3,050457	0,95625	318,0312	0,288	84,744	0	1016,24	6,9	8,9	8,8	1	1	1	1	1	1	1	1	1	0	1	-9,372798	273,980945	310,122521	0
15.01.2021	18:07:01	0	0	4,632175	0,87375	333,0864	0,285	84,717	0	1016,26	6,9	8,9	8,8	1	1	1	1	1	1	1	1	1	0	1	-12,191684	274,12535	307,977739	0
15.01.2021	18:07:02	0	0	4,406242	0,882	333,8604	0,281	84,741	0	1016,3	6,9	8,9	8,7	1	1	1	1	1	1	1	1	1	0	1	-8,527132	273,985395	310,988944	0
15.01.2021	18:07:03	0	0	4,632175	0,9195	333,1152	0,282	84,731	0	1016,28	6,9	8,9	8,8	1	1	1	1	1	1	1	1	1	0	1	-8,879493	274,096979	311,157407	0
15.01.2021	18:07:04	0	0	3,389397	0,909	331,1316	0,289	84,74	0	1016,36	6,9	8,9	8,8	1	1	1	1	1	1	1	1	1	0	1	-16,842847	273,979462	302,645553	0
15.01.2021	18:07:05	0	0	2,372578	0,86475	316,2888	0,288	84,744	0	1016,32	7	8,9	8,8	1	1	1	1	1	1	1	1	1	0	1	-10,359408	274,07014	309,55216	0
15.01.2021	18:07:06	0	0	4,519223	0,80625	306,432	0,283	84,722	0	1016,1	7	9	8,7	1	1	1	1	1	1	1	1	1	0	1	-12,473573	273,997267	307,097883	0
15.01.2021	18:07:07	0	0	4,519195	0,7815	315,504	0,288	84,728	0	1016,2	6,9	8,9	8,8	1	1	1	1	1	1	1	1	1	0	1	-12,614517	274,031438	307,11639	0
15.01.2021	18:07:08	0	0	3,615356	0,78525	320,3352	0,287	84,738	0	1016,28	6,9	8,9	8,8	1	1	1	1	1	1	1	1	1	0	1	-9,231853	274,156756	311,084319	0
15.01.2021	18:07:09	0	0	3,502376	0,765	316,2708	0,281	84,726	0	1016,24	6,9	8,9	8,8	1	1	1	1	1	1	1	1	1	0	1	-15,292459	274,044826	304,500934	0
15.01.2021	18:07:10	0	0	4,858135	0,7215	322,5564	0,289	84,733	0	1016,32	7	8,9	8,8	1	1	1	1	1	1	1	1	1	0	1	-15,433404	274,138803	304,798877	0
15.01.2021	18:07:11	0	0	4,858135	0,67125	321,8328	0,287	84,742	0	1016,36	6,9	8,9	8,8	1	1	1	1	1	1	1	1	1	0	1	-9,866103	274,15077	310,422095	0
15.01.2021	18:07:12	0	0	3,050457	0,6645	308,8728	0,283	84,734	0	1016,28	7	9	8,8	1	1	1	1	1	1	1	1	1	0	1	-7,188161	274,098471	312,855708	0
15.01.2021	18:07:13	0	0	3,728336	0,636	302,8932	0,288	84,731	0	1016,32	6,9	8,9	8,8	1	1	1	1	1	1	1	1	1	0	1	-12,614517	273,995783	306,950014	0
15.01.2021	18:07:14	0	0	3,050475	0,6165	315,1908	0,285	84,726	0	1016,34	7	8,9	8,7	1	1	1	1	1	1	1	1	1	0	1	-6,131078	274,092503	313,884918	0
15.01.2021	18:07:15	0	0	3,050457	0,57525	321,8328	0,289	84,738	0	1016,3	7	8,9	8,8	1	1	1	1	1	1	1	1	1	0	1	-11,134602	273,985395	308,381474	0
15.01.2021	18:07:16	0	0	3,389397	0,642	318,1032	0,288	84,731	0	1016,24	6,9	8,9	8,8	1	1	1	1	1	1	1	1	1	0	1	-13,319239	274,050779	306,501944	0
15.01.2021	18:07:17	0	0	4,745155	0,705	308,7972	0,286	84,731	0	1016,32	6,9	8,9	8,8	1	1	1	1	1	1	1	1	1	0	1	-8,597604	274,161246	311,739556	0
15.01.2021	18:07:18	0	0	4,0673	0,66825	310,9968	0,283	84,726	0	1016,24	7	8,9	8,7	1	1	1	1	1	1	1	1	1	0	1	-13,03735	274,132823	307,166987	0
15.01.2021	18:07:19	0	0	3,502376	0,67275	315,2448	0,286	84,731	0	1016,26	6,7	8,9	8,8	1	1	1	1	1	1	1	1	1	0	1	-7,963354	274,016574	311,698184	0
15.01.2021	18:07:20	0	0	3,050457	0,744	314,532	0,286	84,736	0	1016,26	7	8,9	8,8	1	1	1	1	1	1	1	1	1	0	1	-11,698379	274,0359	308,053351	0
15.01.2021	18:07:21	0	0	4,406216	0,74475	325,8648	0,289	84,735	0	1016,24	6,7	8,9	8,8	1	1	1	1	1	1	1	1	1	0	1	-13,6716	274,152266	306,623591	0
15.01.2021	18:07:22	0	0	3,615356	0,80325	335,2824	0,284	84,739	0	1016,16	6,9	8,9	8,8	1	1	1	1	1	1	1	1	1	0	1	-8,668076	274,06865	311,236536	0
15.01.2021	18:07:23	0	0	4,293236	0,81075	330,696	0,285	84,736	0	1016,12	6,7	8,9	8,8	1	1	1	1	1	1	1	1	1	0	1	-14,446794	274,15077	305,841404	0
15.01.2021	18:07:24	0	0	2,598553	0,765	321,8256	0,281	84,739	0	1016,24	6,7	8,9	8,7	1	1	1	1	1	1	1	1	1	0	1	-11,134602	274,055245	308,707429	0
15.01.2021	18:07:25	0	0	2,598537	0,7935	318,1752	0,279	84,739	0	1016,24	7	8,9	8,8	1	1	1	1	1	1	1	1	1	0	1	-14,517266	273,983912	304,99189	0
15.01.2021	18:07:26	0	0	4,632175	0,771	327,3732	0,284	84,724	0	1016,14	6,9	9	8,8	1	1	1	1	1	1	1	1	1	0	1	-12,544045	274,113399	307,56955	0
15.01.2021	18:07:27	0	0	4,519195	0,7665	327,4524	0,287	84,727	0	1016,32	6,7	8,9	8,8	1	1	1	1	1	1	1	1	1	0	1	-12,755462	274,043338	307,030987	0
15.01.2021	18:07:28	0	0	4,632175	0,8505	314,8308	0,282	84,727	0	1016,36	6,7	9	8,8	1	1	1	1	1	1	1	1	1	0	1	-9,795631	274,164241	310,555525	0
15.01.2021	18:07:29	0	0	3,615378	0,981	312,5808	0,28	84,742	0	1016,2	7	8,9	8,7	1	1	1	1	1	1	1	1	1	0	1	-9,302326	274,110413	310,797319	0
15.01.2021	18:07:30	0	0	3,163437	1,0515	337,1436	0,283	84,727	0	1016,28	6,7	8,9	8,8	1	1	1	1	1	1	1	1	1	0	1	-11,768851	273,979462	307,719549	0
15.01.2021	18:07:31	0	0	2,937477	1,01025	316,6776	0,283	84,738	0	1016,1	7	8,9	8,8	1	1	1	1	1	1	1	1	1	0	1	-11,205074	274,06567	308,685626	0
15.01.2021	18:07:32	0	0	2,824497	1,0635	290,4264	0,29	84,738	0	1016,28	6,9	8,9	8,8	1	1	1	1	1	1	1	1	1	0	1	-9,513742	274,158252	310,809426	0
15.01.2021	18:07:33	0	0	2,824497	1,1835	300,87	0,285	84,717	0	1016,18	6,9	8,9	8,8	1	1	1	1	1	1	1	1	1	0	1	-8,45666	274,047803	311,350627	0
15.01.2021	18:07:34	0	0	3,728336	1,2855	315,9396	0,286	84,727	0	1016,3	6,9	8,9	8,8	1	1	1	1	1	1	1	1	1	0	1	-12,544045	274,122361	307,611417	0
15.01.2021	18:07:35	0	0	4,180256	1,2345	301,9896	0,288	84,745	0	1016,4	6,9	8,9	8,8	1	1	1	1	1	1	1	1	1	0	1	-11,557435	274,158252	308,765733	0
15.01.2021	18:07:36	0	0	4,406216	1,3185	299,4516	0,286	84,747	0	1016,28	6,9	8,9	8,8	1	1	1	1	1	1	1	1	1	0	1	-12,191684	274,056734	307,657298	0
15.01.2021	18:07:37	0	0	4,519223	1,44225	309,2508	0,282	84,735	0	1016,2	6,9	8,9	8,7	1	1	1	1	1	1	1	1	1	0	1	-9,302326	274,140298	310,936942	0
15.01.2021	18:07:38	0	0	2,711517	1,497	315,8928	0,287	84,738	0	1016,3	6,7	8,9	8,8	1	1	1	1	1	1	1	1	1	0	1	-9,372798	274,096979	310,664102	0
15.01.2021	18:07:39	0	0	4,406216	1,57725	322,2	0,284	84,721	0	1016,18	7	8,9	8,8	1	1	1	1	1	1	1	1	1	0	1	-9,866103	273,989846	309,670736	0
15.01.2021	18:07:40	0	0	3,389397	1,728	325,5804	0,289	84,746	0	1016,28	7	8,9	8,8	1	1	1	1	1	1	1	1	1	0	1	-10,007047	274,152266	310,288143	0
15.01.2021	18:07:41	0	0	3,389397	1,88925	330,3144	0,305	84,722	0	1016,14	6,9	8,9	8,8	1	1	1	1	1	1	1	1	1	0	1	-10,852713	274,022518	308,836565	0
15.01.2021	18:07:42	0	0	2,372578	1,97325	321,1488	0,284	84,735	0	1016,34	6,9	8,9	8,8	1	1	1	1	1	1	1	1	1	0	1	-15,081043	273,985395	304,435033	0
15.01.2021	18:07:43	0	0	4,519195	1,98225	316,998	0,286	84,729	0	1016,2	7	8,9	8,8	1	1	1	1	1	1	1	1	1	0	1	-15,221987	274,0359	304,529743	0
15.01.2021	18:07:44	0	0	3,954296	1,98525	331,0596	0,286	84,712	0	1016,18	6,9	8,9	8,8	1	1	1	1	1	1	1	1	1	0	1	-12,262156	274,021032	307,420186	0
15.01.2021	18:07:45	0	0	2,711517	1,983	319,6008	0,285	84,735	0	1016,24	7	9	8,8	1	1	1	1	1	1	1	1	1	0	1	-11,486963	273,977979	307,994521	0
15.01.2021	18:07:46	0	0	2,485558	1,875	329,7852	0,283	84,725	0	1016,24	6,7	8,9	8,8	1	1	1	1	1	1	1	1	1	0	1	-9,795631	274,016574	309,865908	0
15.01.2021	18:07:47	0	0	3,163456	1,87425	331,4952	0,283	84,79	0	1016,2	7	8,9	8,7	1	1	1	1	1	1	1	1	1	0	1	-7,188161	273,989846	312,348678	0
15.01.2021	18:07:48	0	0	3,163437	1,89675	325,1592	0,285	84,74	0	1016,2	6,9	8,9	8,8	1	1	1	1	1	1	1	1	1	0	1	-10,782241	274,04185	308,997262	0
15.01.2021	18:07:49	0	0	4,180256	1,8615	320,3496	0,277	84,728	0	1016,22	6,9	8,9	8,8	1	1	1	1	1	1	1	1	1	0	1	-6,694856	274,174725	313,705304	0
15.01.2021	18:07:50	0	0	2,146618	1,749	329,2056	0,293	84,732	0	1016,12	6,9	8,9	8,8	1	1	1	1	1	1	1	1	1	0	1	-12,473573	273,977979	307,007911	0
15.01.2021	18:07:51	0	0	2,937477	1,64175	325,9116	0,281	84,716	0	1016,2	6,9	9	8,8	1	1	1	1	1	1	1	1	1	0	1	-8,668076	274,016574	310,993462	0
15.01.2021	18:07:52	0	0	3,615356	1,52775	331,1208	0,281	84,74	0	1016,24	6,9	8,9	8,8	1	1	1	1	1	1	1	1	1	0	1	-14,728682	274,174725	305,671477	0
15.01.2021	18:07:53	0	0	4,067276	1,422	336,1536	0,281	84,725	0	1016,24	7	8,9	8,8	1	1	1	1	1	1	1	1	1	0	1	-16,349542	274,029951	303,374425	0
15.01.2021	18:07:54	0	0	4,632175	1,353	327,1032	0,279	84,728	0	1016,1	6,9	8,9	8,8	1	1	1	1	1	1	1	1	1	0	1	-13,460183	274,147777	306,814031	0
15.01.2021	18:07:55	0	0	4,971115	1,3245	329,3352	0,28	84,723	0	1016,3	7	8,9	8,8	1	1	1	1	1	1	1	1	1	0	1	-6,342495	274,123856	313,819948	0
15.01.2021	18:07:56	0	0	3,163437	1,37775	317,7792	0,279	84,737	0	1016,26	7	8,9	8,8	1	1	1	1	1	1	1	1	1	0	1	-11,346018	274,165738	309,012136	0
15.01.2021	18:07:57	0	0	4,971115	1,4715	316,3356	0,277	84,721	0	1016,12	7	9	8,8	1	1	1	1	1	1	1	1	1	0	1	-9,936575	274,031438	309,794332	0
15.01.2021	18:07:58	0	0	2,259598	1,578	317,8044	0,287	84,726	0	1016,3	7	8,9	8,8	1	1	1	1	1	1	1	1	1	0	1	-6,342495	273,989846	313,194344	0
15.01.2021	18:07:59	0	0	3,841316	1,6725	318,0996	0,285	84,739	0	1016,34	6,7	9	8,8	1	1	1	1	1	1	1	1	1	0	1	-13,742072	274,116386	306,385476	0
15.01.2021	18:08:00	0	0	3,502376	1,75425	328,1256	0,283	84,725	0	1016,34	6,7	8,8	8,8	1	1	1	1	1	1	1	1	1	0	1	-12,614517	274,17922	307,806653	0
15.01.2021	18:08:01	0	0	3,502376	1,75425	328,1256	0,283	84,725	0	1016,34	6,7	8,8	8,8	1	1	1	1	1	1	1	1	1	0	1	-14,305849	274,034413	305,438939	0
15.01.2021	18:08:02	0	0	4,519195	1,78125	320,8068	0,28	84,733	0	1016,26	7	8,9	8,8	1	1	1	1	1	1	1	1	1	0	1	-10,993658	274,147777	309,280557	0
15.01.2021	18:08:03	0	0	3,954296	1,87875	327,9744	0,287	84,738	0	1016,24	7	8,9	8,8	1	1	1	1	1	1	1	1	1	0	1	-9,090909	274,108919	311,001761	0
15.01.2021	18:08:04	0	0	3,615356	1,917	323,6832	0,284	84,73	0	1016,34	6,9	8,9	8,8	1	1	1	1	1	1	1	1	1	0	1	-10,288936	274,153762	310,013248	0
15.01.2021	18:08:05	0	0	2,485558	1,9695	326,7396	0,285	84,734	0	1016,28	6,7	8,9	8,8	1	1	1	1	1	1	1	1	1	0	1	-10,852713	274,122361	309,302749	0
15.01.2021	18:08:06	0	0	4,293236	1,9125	324	0,286	84,732	0	1016,22	7	8,9	8,8	1	1	1	1	1	1	1	1	1	0	1	-9,654686	274,146281	310,612538	0
15.01.2021	18:08:07	0	0	3,050457	1,8795	322,2252	0,291	84,734	0	1016,16	6,9	9	8,8	1	1	1	1	1	1	1	1	1	0	1	-13,812544	274,025491	305,890608	0
15.01.2021	18:08:08	0	0	3,276417	1,881	324,3708	0,284	84,729	0	1016,14	6,9	9	8,8	1	1	1	1	1	1	1	1	1	0	1	-9,372798	274,164241	310,978358	0
15.01.2021	18:08:09	0	0	2,937477	1,821	324,1296	0,285	84,74	0	1016,28	6,7	8,9	8,8	1	1	1	1	1	1	1	1	1	0	1	-5,778717	274,092503	314,237279	0
15.01.2021	18:08:10	0	0	2,711517	1,7295	330,696	0,287	84,74	0	1016,18	7	8,9	8,8	1	1	1	1	1	1	1	1	1	0	1	-9,866103	274,15077	310,422095	0
15.01.2021	18:08:11	0	0	2,937477	1,686	319,1184	0,288	84,734	0	1016,28	6,9	8,9	8,8	1	1	1	1	1	1	1	1	1	0	1	-9,866103	274,082064	310,101142	0
15.01.2021	18:08:12	0	0	4,519195	1,68075	321,3756	0,284	84,727	0	1016,46	7	8,9	8,8	1	1	1	1	1	1	1	1	1	0	1	-6,272023	274,153762	314,030161	0
15.01.2021	18:08:13	0	0	4,067276	1,6515	322,56	0,278	84,734	0	1016,1	7	9	8,8	1	1	1	1	1	1	1	1	1	0	1	-14,587738	274,077591	305,358624	0
15.01.2021	18:08:14	0	0	3,841316	1,638	313,2828	0,287	84,732	0	1016,28	7	8,9	8,8	1	1	1	1	1	1	1	1	1	0	1	-10,923185	274,164241	309,42797	0
15.01.2021	18:08:15	0	0	4,519195	1,644	327,3984	0,286	84,733	0	1016,38	7	9	8,8	1	1	1	1	1	1	1	1	1	0	1	-9,161381	274,092503	310,854615	0
15.01.2021	18:08:16	0	0	3,615378	1,69425	318,384	0,289	84,749	0	1016,12	7	9	8,7	1	1	1	1	1	1	1	1	1	0	1	-7,399577	274,162743	312,94458	0
15.01.2021	18:08:17	0	0	2,598537	1,74975	322,9308	0,287	84,71	0	1016,14	6,7	8,9	8,8	1	1	1	1	1	1	1	1	1	0	1	-11,205074	273,997267	308,366382	0
15.01.2021	18:08:18	0	0	3,728336	1,76775	322,6464	0,283	84,723	0	1016,22	7	8,9	8,8	1	1	1	1	1	1	1	1	1	0	1	-13,812544	274,114893	306,308027	0
15.01.2021	18:08:19	0	0	4,180256	1,7535	325,5192	0,277	84,736	0	1016,18	7	8,9	8,8	1	1	1	1	1	1	1	1	1	0	1	-12,191684	274,153762	308,1105	0
15.01.2021	18:08:20	0	0	3,276436	1,7265	323,7048	0,281	84,725	0	1016,1	6,7	9	8,7	1	1	1	1	1	1	1	1	1	0	1	-9,654686	274,086537	310,333448	0
15.01.2021	18:08:21	0	0	3,163437	1,6215	315,9036	0,287	84,737	0	1016,22	6,7	9	8,8	1	1	1	1	1	1	1	1	1	0	1	-10,359408	273,979462	309,128993	0
15.01.2021	18:08:22	0	0	3,050457	1,5315	299,0664	0,288	84,73	0	1016,18	7	8,9	8,8	1	1	1	1	1	1	1	1	1	0	1	-11,557435	273,979462	307,930966	0
15.01.2021	18:08:23	0	0	3,502376	1,41825	309,834	0,287	84,735	0	1016,16	6,9	9	8,8	1	1	1	1	1	1	1	1	1	0	1	-11,839323	274,07014	308,072245	0
15.01.2021	18:08:24	0	0	3,050457	1,323	310,266	0,28	84,734	0	1016,18	6,7	8,9	8,8	1	1	1	1	1	1	1	1	1	0	1	-10,288936	274,165738	310,069218	0
15.01.2021	18:08:25	0	0	2,937495	1,2705	294,372	0,278	84,719	0	1016,24	6,7	8,9	8,7	1	1	1	1	1	1	1	1	1	0	1	-9,231853	274,095487	310,798078	0
15.01.2021	18:08:26	0	0	4,745155	1,2405	301,6368	0,285	84,731	0	1016,14	6,7	9	8,8	1	1	1	1	1	1	1	1	1	0	1	-9,654686	274,158252	310,668481	0
15.01.2021	18:08:27	0	0	2,485558	1,19475	315,8496	0,287	84,732	0	1016,18	6,9	8,9	8,8	1	1	1	1	1	1	1	1	1	0	1	-11,557435	274,126844	308,61897	0
15.01.2021	18:08:28	0	0	3,728336	1,152	322,5924	0,295	84,738	0	1016,3	6,9	8,9	8,8	1	1	1	1	1	1	1	1	1	0	1	-9,513742	274,132823	310,690595	0
15.01.2021	18:08:29	0	0	4,632175	1,13475	322,2432	0,281	84,724	0	1016,22	6,9	8,9	8,8	1	1	1	1	1	1	1	1	1	0	1	-9,44327	274,046314	310,35707	0
15.01.2021	18:08:30	0	0	2,598537	1,09125	322,9236	0,29	84,722	0	1016,32	7	9	8,8	1	1	1	1	1	1	1	1	1	0	1	-8,949965	273,979462	310,538436	0
15.01.2021	18:08:31	0	0	3,276436	1,1265	319,5936	0,287	84,803	0	1016,24	7	8,9	8,7	1	1	1	1	1	1	1	1	1	0	1	-12,966878	274,105934	307,111846	0
15.01.2021	18:08:32	0	0	3,728336	1,22325	307,602	0,285	84,745	0	1016,38	6,7	9	8,8	1	1	1	1	1	1	1	1	1	0	1	-13,248767	273,994298	306,308841	0
15.01.2021	18:08:33	0	0	3,163437	1,25625	318,4272	0,283	84,728	0	1016,16	7	8,9	8,8	1	1	1	1	1	1	1	1	1	0	1	-10,993658	274,00469	308,612433	0
15.01.2021	18:08:34	0	0	2,485558	1,3245	314,442	0,286	84,731	0	1016,28	6,7	8,9	8,8	1	1	1	1	1	1	1	1	1	0	1	-10,641297	274,165738	309,716857	0
15.01.2021	18:08:35	0	0	3,050457	1,395	315,5544	0,287	84,728	0	1016,18	6,7	8,9	8,8	1	1	1	1	1	1	1	1	1	0	1	-10,641297	274,044826	309,152097	0
15.01.2021	18:08:36	0	0	2,824497	1,362	309,8952	0,287	84,735	0	1016,26	6,9	8,9	8,8	1	1	1	1	1	1	1	1	1	0	1	-12,403101	273,975014	307,06455	0
15.01.2021	18:08:37	0	0	3,276417	1,39725	322,2036	0,281	84,735	0	1016,24	6,9	9	8,8	1	1	1	1	1	1	1	1	1	0	1	-11,839323	274,120867	308,30916	0
15.01.2021	18:08:38	0	0	4,519195	1,4535	327,1644	0,284	84,742	0	1016,26	6,7	8,9	8,8	1	1	1	1	1	1	1	1	1	0	1	-12,614517	274,155259	307,694661	0
15.01.2021	18:08:39	0	0	3,163437	1,545	328,572	0,279	84,717	0	1016,24	7	8,9	8,8	1	1	1	1	1	1	1	1	1	0	1	-13,460183	274,026978	306,249906	0
15.01.2021	18:08:40	0	0	4,519195	1,58775	329,3316	0,283	84,744	0	1016,28	6,7	8,9	8,8	1	1	1	1	1	1	1	1	1	0	1	-7,047216	273,970566	312,399691	0
15.01.2021	18:08:41	0	0	2,937477	1,638	325,2168	0,281	84,723	0	1016,18	6,9	9	8,8	1	1	1	1	1	1	1	1	1	0	1	-12,262156	274,026978	307,447933	0
15.01.2021	18:08:42	0	0	3,841316	1,68525	310,7376	0,285	84,743	0	1016,3	6,7	8,9	8,8	1	1	1	1	1	1	1	1	1	0	1	-9,725159	274,146281	310,542065	0
15.01.2021	18:08:43	0	0	3,276417	1,69425	319,9824	0,285	84,725	0	1016,16	6,7	8,9	8,8	1	1	1	1	1	1	1	1	1	0	1	-8,245243	273,976497	311,229324	0
15.01.2021	18:08:44	0	0	4,971115	1,64775	314,0208	0,286	84,724	0	1016,16	7	8,9	8,8	1	1	1	1	1	1	1	1	1	0	1	-13,460183	274,028464	306,256845	0
15.01.2021	18:08:45	0	0	3,502376	1,6365	315,2016	0,286	84,73	0	1016,3	6,7	8,9	8,8	1	1	1	1	1	1	1	1	1	0	1	-9,725159	274,155259	310,584019	0
15.01.2021	18:08:46	0	0	3,050457	1,5735	315,8892	0,284	84,726	0	1016,32	7	8,9	8,8	1	1	1	1	1	1	1	1	1	0	1	-13,812544	274,025491	305,890608	0
15.01.2021	18:08:47	0	0	3,728336	1,5165	308,898	0,282	84,729	0	1016,2	7	8,9	8,8	1	1	1	1	1	1	1	1	1	0	1	-14,023961	274,156756	306,292212	0
15.01.2021	18:08:48	0	0	4,632175	1,5435	309,2292	0,285	84,725	0	1016,34	7	8,9	8,8	1	1	1	1	1	1	1	1	1	0	1	-12,966878	274,120867	307,181605	0
15.01.2021	18:08:49	0	0	3,050457	1,53525	314,7876	0,287	84,745	0	1016,32	6,7	8,9	8,8	1	1	1	1	1	1	1	1	1	0	1	-10,42988	274,119373	309,711624	0
15.01.2021	18:08:50	0	0	3,728336	1,54275	327,816	0,285	84,721	0	1016,26	7	8,9	8,8	1	1	1	1	1	1	1	1	1	0	1	-10,993658	273,989846	308,543181	0
15.01.2021	18:08:51	0	0	4,406216	1,6155	327,4488	0,283	84,722	0	1016,18	6,9	9	8,8	1	1	1	1	1	1	1	1	1	0	1	-12,191684	274,085046	307,789487	0
15.01.2021	18:08:52	0	0	4,632175	1,608	325,1808	0,287	84,727	0	1016,32	6,7	8,9	8,8	1	1	1	1	1	1	1	1	1	0	1	-6,976744	273,976497	312,497823	0
15.01.2021	18:08:53	0	0	3,050457	1,55475	318,096	0,279	84,729	0	1016,22	7	8,9	8,8	1	1	1	1	1	1	1	1	1	0	1	-10,359408	274,113399	309,754187	0
15.01.2021	18:08:54	0	0	4,180281	1,473	315,9216	0,285	84,706	0	1016,04	6,9	8,9	8,7	1	1	1	1	1	1	1	1	1	0	1	-10,007047	274,095487	310,022884	0
15.01.2021	18:08:55	0	0	4,293236	1,41975	325,1484	0,286	84,712	0	1016,28	6,7	8,9	8,8	1	1	1	1	1	1	1	1	1	0	1	-12,121212	274,176223	308,28595	0
15.01.2021	18:08:56	0	0	5,423035	1,3335	328,9356	0,287	84,718	0	1016,16	6,7	8,9	8,8	1	1	1	1	1	1	1	1	1	0	1	-9,584214	274,108919	310,508456	0
15.01.2021	18:08:57	0	0	3,615356	1,33425	327,0708	0,285	84,739	0	1016,3	6,9	8,9	8,8	1	1	1	1	1	1	1	1	1	0	1	-9,654686	274,111906	310,451933	0
15.01.2021	18:08:58	0	0	3,615356	1,38675	321,8292	0,282	84,729	0	1016,24	7	8,9	8,8	1	1	1	1	1	1	1	1	1	0	1	-10,077519	274,173227	310,315637	0
15.01.2021	18:08:59	0	0	4,632175	1,46775	330,3684	0,282	84,734	0	1016,2	6,7	8,9	8,8	1	1	1	1	1	1	1	1	1	0	1	-10,288936	274,126844	309,887469	0
15.01.2021	18:09:00	0	0	3,728336	1,5075	326,0772	0,285	84,721	0	1016,44	7	8,9	8,8	1	1	1	1	1	1	1	1	1	0	1	-15,081043	273,975014	304,386608	0
15.01.2021	18:09:01	0	0	4,180256	1,4595	333,45	0,281	84,721	0	1016,24	6,7	8,9	8,8	1	1	1	1	1	1	1	1	1	0	1	-14,023961	274,095487	306,005971	0
15.01.2021	18:09:02	0	0	4,632203	1,49625	325,962	0,288	84,739	0	1016,36	7	8,9	8,7	1	1	1	1	1	1	1	1	1	0	1	-12,825934	274,162743	307,518224	0
15.01.2021	18:09:03	0	0	4,406216	1,59075	332,0604	0,28	84,738	0	1016,28	6,7	8,9	8,8	1	1	1	1	1	1	1	1	1	0	1	-7,82241	274,040363	311,950149	0
15.01.2021	18:09:04	0	0	3,954296	1,62	328,5756	0,283	84,719	0	1016,36	6,7	8,9	8,8	1	1	1	1	1	1	1	1	1	0	1	-9,584214	274,158252	310,738953	0
15.01.2021	18:09:05	0	0	3,389397	1,64625	336,0348	0,284	84,717	0	1016,24	6,7	8,9	8,8	1	1	1	1	1	1	1	1	1	0	1	-10,42988	274,016574	309,231658	0
15.01.2021	18:09:06	0	0	2,824497	1,6395	336,3624	0,284	84,728	0	1016,3	7	8,9	8,8	1	1	1	1	1	1	1	1	1	0	1	-10,923185	274,083555	309,051022	0
15.01.2021	18:09:07	0	0	4,971115	1,6485	324,0648	0,284	84,726	0	1016,36	7	8,9	8,8	1	1	1	1	1	1	1	1	1	0	1	-12,262156	273,989846	307,274682	0
15.01.2021	18:09:08	0	0	2,937477	1,73325	328,8636	0,285	84,731	0	1016,24	6,7	8,9	8,8	1	1	1	1	1	1	1	1	1	0	1	-7,82241	274,135813	312,395898	0
15.01.2021	18:09:09	0	0	3,389397	1,76025	327,1392	0,275	84,744	0	1016,38	6,7	8,9	8,8	1	1	1	1	1	1	1	1	1	0	1	-7,540521	274,159749	312,789642	0
15.01.2021	18:09:10	0	0	4,745155	1,73175	327,9024	0,283	84,729	0	1016,34	7	8,9	8,8	1	1	1	1	1	1	1	1	1	0	1	-13,248767	274,07014	306,662802	0
15.01.2021	18:09:11	0	0	3,841316	1,67925	325,962	0,277	84,731	0	1016,32	6,7	8,9	8,8	1	1	1	1	1	1	1	1	1	0	1	-12,544045	274,174725	307,856114	0
15.01.2021	18:09:12	0	0	3,502376	1,6785	318,4416	0,287	84,738	0	1016,28	7	8,9	8,8	1	1	1	1	1	1	1	1	1	0	1	-9,020437	274,107427	311,06526	0
15.01.2021	18:09:13	0	0	2,937477	1,68225	325,1268	0,287	84,74	0	1016,34	7	9	8,8	1	1	1	1	1	1	1	1	1	0	1	-10,923185	274,161246	309,413975	0
15.01.2021	18:09:14	0	0	4,067276	1,6095	321,4188	0,285	84,738	0	1016,12	7	8,9	8,8	1	1	1	1	1	1	1	1	1	0	1	-10,852713	274,0359	308,899017	0
15.01.2021	18:09:15	0	0	5,084095	1,5705	318,15	0,287	84,741	0	1016,36	6,7	8,9	8,8	1	1	1	1	1	1	1	1	1	0	1	-8,879493	274,177721	311,534673	0
15.01.2021	18:09:16	0	0	4,519195	1,4865	331,164	0,285	84,736	0	1016,3	7	9	8,8	1	1	1	1	1	1	1	1	1	0	1	-13,460183	274,101456	306,597626	0
15.01.2021	18:09:17	0	0	4,745155	1,46325	329,652	0,282	84,719	0	1016,16	7	8,9	8,8	1	1	1	1	1	1	1	1	1	0	1	-10,147992	273,998751	309,43039	0
15.01.2021	18:09:18	0	0	3,389397	1,5495	330,3504	0,281	84,725	0	1016,28	7	8,9	8,8	1	1	1	1	1	1	1	1	1	0	1	-10,711769	274,013602	308,935904	0
15.01.2021	18:09:19	0	0	2,937477	1,56	329,2452	0,283	84,722	0	1016,14	7	8,9	8,8	1	1	1	1	1	1	1	1	1	0	1	-9,44327	274,038875	310,322345	0
15.01.2021	18:09:20	0	0	2,711517	1,521	320,0544	0,276	84,734	0	1016,26	6,7	9	8,8	1	1	1	1	1	1	1	1	1	0	1	-12,121212	274,050779	307,699971	0
15.01.2021	18:09:21	0	0	4,180281	1,4985	320,5008	0,286	84,736	0	1016,38	7	9	8,7	1	1	1	1	1	1	1	1	1	0	1	-7,188161	273,982429	312,314076	0
15.01.2021	18:09:22	0	0	2,711517	1,407	349,4664	0,284	84,743	0	1016,38	7	8,9	8,8	1	1	1	1	1	1	1	1	1	0	1	-10,641297	274,029951	309,08267	0
15.01.2021	18:09:23	0	0	3,841316	1,3605	347,2416	0,282	84,735	0	1016,28	6,9	8,9	8,8	1	1	1	1	1	1	1	1	1	0	1	-7,610994	274,120867	312,537489	0
15.01.2021	18:09:24	0	0	5,084095	1,3725	324,3528	0,286	84,736	0	1016,28	7	9	8,8	1	1	1	1	1	1	1	1	1	0	1	-12,544045	274,168733	307,828108	0
15.01.2021	18:09:25	0	0	2,598537	1,431	334,1628	0,28	84,749	0	1016,3	7	8,9	8,8	1	1	1	1	1	1	1	1	1	0	1	-11,909796	274,114893	308,210776	0
15.01.2021	18:09:26	0	0	3,841316	1,491	343,1592	0,283	84,739	0	1016,24	7	8,9	8,8	1	1	1	1	1	1	1	1	1	0	1	-15,151515	273,988363	304,378402	0
15.01.2021	18:09:27	0	0	4,406216	1,4835	335,7036	0,283	84,738	0	1016,14	6,7	8,9	8,8	1	1	1	1	1	1	1	1	1	0	1	-13,460183	274,131328	306,73717	0
15.01.2021	18:09:28	0	0	4,067276	1,46625	321,822	0,287	84,75	0	1016,26	6,7	8,9	8,8	1	1	1	1	1	1	1	1	1	0	1	-12,191684	274,171729	308,19447	0
15.01.2021	18:09:29	0	0	3,502376	1,40775	325,1916	0,277	84,791	0	1016,2	7	8,9	8,8	1	1	1	1	1	1	1	1	1	0	1	-16,138125	274,047803	303,669162	0
15.01.2021	18:09:30	0	0	2,711517	1,3125	331,3872	0,287	84,754	0	1016,42	6,9	8,8	8,8	1	1	1	1	1	1	1	1	1	0	1	-7,188161	274,186713	313,268042	0
15.01.2021	18:09:31	0	0	3,276417	1,314	314,3916	0,276	84,729	0	1016,12	7	9	8,8	1	1	1	1	1	1	1	1	1	0	1	-13,389711	274,140298	306,849557	0
15.01.2021	18:09:32	0	0	2,937477	1,40475	331,5132	0,282	84,734	0	1016,22	7	9	8,8	1	1	1	1	1	1	1	1	1	0	1	-14,587738	274,116386	305,539811	0
15.01.2021	18:09:33	0	0	3,276417	1,41225	324,0648	0,281	84,736	0	1016,18	6,9	8,9	8,8	1	1	1	1	1	1	1	1	1	0	1	-14,517266	274,159749	305,812898	0
15.01.2021	18:09:34	0	0	3,954296	1,3665	308,43	0,283	84,757	0	1016,22	6,7	8,9	8,8	1	1	1	1	1	1	1	1	1	0	1	-7,892882	274,00766	311,727066	0
15.01.2021	18:09:35	0	0	3,050457	1,32	327,3948	0,285	84,744	0	1016,38	6,7	9	8,8	1	1	1	1	1	1	1	1	1	0	1	-12,403101	274,120867	307,745382	0
15.01.2021	18:09:36	0	0	4,858135	1,25625	342,4176	0,287	84,738	0	1016,28	7	8,9	8,8	1	1	1	1	1	1	1	1	1	0	1	-11,275546	274,170231	309,103607	0
15.01.2021	18:09:37	0	0	3,163437	1,227	325,2168	0,288	84,753	0	1016,12	7	9	8,8	1	1	1	1	1	1	1	1	1	0	1	-5,708245	274,028464	314,008783	0
15.01.2021	18:09:38	0	0	4,632175	1,34025	323,6652	0,286	84,737	0	1016,18	6,7	8,9	8,8	1	1	1	1	1	1	1	1	1	0	1	-12,121212	273,988363	307,408705	0
15.01.2021	18:09:39	0	0	4,745155	1,38675	327,1428	0,282	84,755	0	1016,26	7	8,9	8,8	1	1	1	1	1	1	1	1	1	0	1	-11,557435	274,128339	308,625952	0
15.01.2021	18:09:40	0	0	4,519195	1,35825	326,7576	0,285	84,762	0	1016,3	6,7	9	8,8	1	1	1	1	1	1	1	1	1	0	1	-13,601128	274,161246	306,736033	0
15.01.2021	18:09:41	0	0	4,971145	1,323	317,34	0,279	84,746	0	1016,38	6,7	8,9	8,7	1	1	1	1	1	1	1	1	1	0	1	-10,147992	274,040363	309,624567	0
15.01.2021	18:09:42	0	0	3,841316	1,30275	325,116	0,281	84,757	0	1016,2	6,7	8,9	8,8	1	1	1	1	1	1	1	1	1	0	1	-12,121212	274,128339	308,062175	0
15.01.2021	18:09:43	0	0	3,389397	1,32	317,7504	0,279	84,736	0	1016,2	6,9	8,9	8,8	1	1	1	1	1	1	1	1	1	0	1	-13,460183	274,0359	306,291547	0
15.01.2021	18:09:44	0	0	3,841316	1,3725	319,1508	0,283	84,756	0	1016,24	6,7	8,9	8,8	1	1	1	1	1	1	1	1	1	0	1	-12,403101	273,986879	307,119895	0
15.01.2021	18:09:45	0	0	3,841316	1,39875	322,1712	0,285	84,755	0	1016,16	6,7	8,9	8,8	1	1	1	1	1	1	1	1	1	0	1	-9,161381	274,04185	310,618122	0
15.01.2021	18:09:46	0	0	3,276417	1,42575	314,6616	0,285	84,743	0	1016,26	6,7	8,9	8,8	1	1	1	1	1	1	1	1	1	0	1	-12,473573	274,153762	307,828611	0
15.01.2021	18:09:47	0	0	3,954296	1,4685	316,9692	0,287	84,743	0	1016,3	7	8,9	8,8	1	1	1	1	1	1	1	1	1	0	1	-7,610994	274,170231	312,76816	0
15.01.2021	18:09:48	0	0	4,519195	1,50825	313,1424	0,283	84,754	0	1016,26	7	9	8,8	1	1	1	1	1	1	1	1	1	0	1	-13,248767	274,111906	306,857853	0
15.01.2021	18:09:49	0	0	4,293236	1,5555	317,7036	0,285	84,763	0	1016,24	7	8,9	8,8	1	1	1	1	1	1	1	1	1	0	1	-6,765328	274,170231	313,613826	0
15.01.2021	18:09:50	0	0	3,502376	1,533	330,3288	0,277	84,743	0	1016,16	6,7	8,8	8,8	1	1	1	1	1	1	1	1	1	0	1	-9,090909	274,126844	311,085496	0
15.01.2021	18:09:51	0	0	3,95432	1,5075	334,2204	0,279	84,749	0	1016,18	7	8,9	8,7	1	1	1	1	1	1	1	1	1	0	1	-10,359408	274,016574	309,30213	0
15.01.2021	18:09:52	0	0	4,406216	1,4475	331,974	0,272	84,747	0	1016,16	6,7	8,9	8,8	1	1	1	1	1	1	1	1	1	0	1	-7,751938	274,001721	311,840297	0
15.01.2021	18:09:53	0	0	2,372578	1,329	322,8948	0,281	84,745	0	1016,2	6,7	8,9	8,8	1	1	1	1	1	1	1	1	1	0	1	-10,641297	274,114893	309,479275	0
15.01.2021	18:09:54	0	0	4,0673	1,2705	317,7	0,281	84,757	0	1016,2	7	8,9	8,7	1	1	1	1	1	1	1	1	1	0	1	-14,728682	274,01806	304,93979	0
15.01.2021	18:09:55	0	0	2,711517	1,209	302,436	0,276	84,759	0	1016,26	6,7	8,9	8,8	1	1	1	1	1	1	1	1	1	0	1	-14,517266	273,995783	305,047266	0
15.01.2021	18:09:56	0	0	3,728336	1,18875	304,2972	0,279	84,757	0	1016,3	7	9	8,8	1	1	1	1	1	1	1	1	1	0	1	-13,389711	274,06716	306,507945	0
15.01.2021	18:09:57	0	0	3,389397	1,1355	300,8124	0,284	84,752	0	1016,32	6,9	9	8,8	1	1	1	1	1	1	1	1	1	0	1	-11,134602	274,159749	309,195562	0
15.01.2021	18:09:58	0	0	3,050457	1,07025	294,1956	0,279	84,748	0	1016,2	7	8,9	8,8	1	1	1	1	1	1	1	1	1	0	1	-10,147992	274,093995	309,874972	0
15.01.2021	18:09:59	0	0	4,519195	1,01775	298,6236	0,283	84,755	0	1016,22	6,7	9	8,8	1	1	1	1	1	1	1	1	1	0	1	-11,627907	274,167235	308,737246	0
15.01.2021	18:10:00	0	0	3,954296	0,95775	314,4312	0,282	84,758	0	1016,22	7	8,9	8,8	1	1	1	1	1	1	1	1	1	0	1	-10,923185	274,12535	309,246238	0
15.01.2021	18:10:01	0	0	3,954296	0,95775	314,4312	0,282	84,758	0	1016,22	7	8,9	8,8	1	1	1	1	1	1	1	1	1	0	1	-7,399577	274,158252	312,923591	0
15.01.2021	18:10:02	0	0	2,259598	0,97425	306,3816	0,287	84,765	0	1016,4	6,9	8,9	8,8	1	1	1	1	1	1	1	1	1	0	1	-9,44327	274,099963	310,607569	0
15.01.2021	18:10:03	0	0	4,406216	0,9615	306,5364	0,287	84,763	0	1016,32	6,7	8,9	8,8	1	1	1	1	1	1	1	1	1	0	1	-13,601128	274,173227	306,792029	0
15.01.2021	18:10:04	0	0	2,711517	1,04325	314,028	0,279	84,745	0	1016,16	6,7	9	8,8	1	1	1	1	1	1	1	1	1	0	1	-10,641297	274,080573	309,318987	0
15.01.2021	18:10:05	0	0	3,389397	1,11075	321,1164	0,285	84,754	0	1016,28	6,7	8,9	8,8	1	1	1	1	1	1	1	1	1	0	1	-9,161381	273,992814	310,389302	0
15.01.2021	18:10:06	0	0	5,084095	1,1295	326,4048	0,281	84,749	0	1016,32	7	8,9	8,8	1	1	1	1	1	1	1	1	1	0	1	-11,275546	274,116386	308,852002	0
15.01.2021	18:10:07	0	0	2,937477	1,13025	299,7828	0,285	84,747	0	1016,22	7	8,9	8,8	1	1	1	1	1	1	1	1	1	0	1	-11,980268	273,986879	307,542728	0
15.01.2021	18:10:08	0	0	4,632175	1,16625	301,248	0,286	84,754	0	1016,06	6,7	8,9	8,8	1	1	1	1	1	1	1	1	1	0	1	-7,470049	274,11788	312,664477	0
15.01.2021	18:10:09	0	0	3,728336	1,14825	304,6644	0,289	84,749	0	1016,3	7	8,9	8,8	1	1	1	1	1	1	1	1	1	0	1	-12,825934	274,034413	306,918855	0
15.01.2021	18:10:10	0	0	2,711517	1,15575	310,6296	0,283	84,751	0	1016,16	6,7	8,9	8,8	1	1	1	1	1	1	1	1	1	0	1	-10,359408	274,144785	309,900826	0
15.01.2021	18:10:11	0	0	3,050457	1,077	325,1376	0,286	84,752	0	1016,22	7	9	8,8	1	1	1	1	1	1	1	1	1	0	1	-12,966878	274,123856	307,195565	0
15.01.2021	18:10:12	0	0	4,745155	1,0305	312,1704	0,285	84,756	0	1016,28	6,7	8,9	8,8	1	1	1	1	1	1	1	1	1	0	1	-10,288936	274,156756	310,027237	0
15.01.2021	18:10:13	0	0	3,502376	0,9855	293,3208	0,281	84,752	0	1016,24	7	9	8,8	1	1	1	1	1	1	1	1	1	0	1	-11,346018	274,14329	308,907226	0
15.01.2021	18:10:14	0	0	3,050457	0,96975	301,5864	0,285	84,754	0	1016,38	6,7	8,9	8,8	1	1	1	1	1	1	1	1	1	0	1	-11,134602	274,111906	308,972018	0
15.01.2021	18:10:15	0	0	3,728336	0,96675	298,692	0,283	84,751	0	1016,2	6,9	8,9	8,8	1	1	1	1	1	1	1	1	1	0	1	-10,641297	273,989846	308,895542	0
15.01.2021	18:10:16	0	0	4,293236	0,96675	288,936	0,279	84,741	0	1016,2	6,7	9	8,8	1	1	1	1	1	1	1	1	1	0	1	-8,738548	274,040363	311,034011	0
15.01.2021	18:10:17	0	0	4,293236	0,966	308,4912	0,284	84,759	0	1016,1	7	9	8,8	1	1	1	1	1	1	1	1	1	0	1	-8,315715	274,167235	312,049438	0
15.01.2021	18:10:18	0	0	4,745155	1,008	311,3424	0,282	84,743	0	1016,18	7	9	8,8	1	1	1	1	1	1	1	1	1	0	1	-12,473573	274,102948	307,591207	0
15.01.2021	18:10:19	0	0	3,615356	0,9915	306,45	0,285	84,741	0	1016,3	7	8,9	8,8	1	1	1	1	1	1	1	1	1	0	1	-6,412967	274,171729	313,973188	0
15.01.2021	18:10:20	0	0	3,841316	0,94425	306,4572	0,286	84,763	0	1016,24	7	8,9	8,8	1	1	1	1	1	1	1	1	1	0	1	-9,44327	274,024005	310,252945	0
15.01.2021	18:10:21	0	0	3,841339	0,88575	309,5388	0,282	84,737	0	1016,16	6,7	8,9	8,7	1	1	1	1	1	1	1	1	1	0	1	-9,302326	274,173227	311,090831	0
15.01.2021	18:10:22	0	0	2,824497	0,86625	302,1444	0,282	84,755	0	1016,24	6,7	8,9	8,8	1	1	1	1	1	1	1	1	1	0	1	-12,403101	274,12535	307,766323	0
15.01.2021	18:10:23	0	0	3,276417	0,83025	296,4204	0,284	84,763	0	1016,24	6,7	8,9	8,8	1	1	1	1	1	1	1	1	1	0	1	-14,376321	274,026978	305,333768	0
15.01.2021	18:10:24	0	0	2,485558	0,8685	300,1608	0,278	84,751	0	1016,38	6,7	8,9	8,8	1	1	1	1	1	1	1	1	1	0	1	-9,44327	274,156756	310,872903	0
15.01.2021	18:10:25	0	0	3,389397	0,91575	303,8472	0,281	84,757	0	1016,02	6,9	8,9	8,8	1	1	1	1	1	1	1	1	1	0	1	-12,403101	273,994298	307,154506	0
15.01.2021	18:10:26	0	0	4,632203	0,966	299,8188	0,282	84,76	0	1016,3	7	8,9	8,7	1	1	1	1	1	1	1	1	1	0	1	-9,090909	274,08952	310,911155	0
15.01.2021	18:10:27	0	0	2,598537	0,96975	303,48	0,285	84,753	0	1016,14	7	8,9	8,8	1	1	1	1	1	1	1	1	1	0	1	-13,248767	273,997267	306,32269	0
15.01.2021	18:10:28	0	0	3,954296	1,062	311,7708	0,284	84,752	0	1016,14	6,7	8,9	8,8	1	1	1	1	1	1	1	1	1	0	1	-12,191684	274,134318	308,019638	0
15.01.2021	18:10:29	0	0	4,293236	1,09725	310,6728	0,283	84,747	0	1016,26	7	8,9	8,8	1	1	1	1	1	1	1	1	1	0	1	-8,738548	274,173227	311,654608	0
15.01.2021	18:10:30	0	0	3,502376	1,05225	307,5444	0,28	84,747	0	1016,42	6,9	8,9	8,8	1	1	1	1	1	1	1	1	1	0	1	-13,389711	274,146281	306,877513	0
15.01.2021	18:10:31	0	0	3,728359	0,96975	317,3364	0,278	84,74	0	1016,3	6,7	8,9	8,7	1	1	1	1	1	1	1	1	1	0	1	-9,936575	274,101456	310,121234	0
15.01.2021	18:10:32	0	0	4,858135	0,933	316,9872	0,285	84,753	0	1016,26	7	8,9	8,8	1	1	1	1	1	1	1	1	1	0	1	-13,248767	273,99133	306,294994	0
15.01.2021	18:10:33	0	0	3,615356	0,9345	309,2256	0,283	84,749	0	1016,46	6,7	8,9	8,8	1	1	1	1	1	1	1	1	1	0	1	-12,332629	274,07163	307,585897	0
15.01.2021	18:10:34	0	0	3,841316	0,91425	300,2472	0,279	84,764	0	1016,24	6,7	9	8,8	1	1	1	1	1	1	1	1	1	0	1	-13,248767	274,173227	307,14439	0
15.01.2021	18:10:35	0	0	4,519195	0,9435	303,2172	0,283	84,754	0	1016,22	7	8,9	8,8	1	1	1	1	1	1	1	1	1	0	1	-8,738548	274,07312	311,186935	0
15.01.2021	18:10:36	0	0	4,293236	0,9645	304,6536	0,284	84,758	0	1016,32	6,7	8,9	8,8	1	1	1	1	1	1	1	1	1	0	1	-11,627907	274,185214	308,821288	0
15.01.2021	18:10:37	0	0	4,406216	0,975	300,8664	0,287	84,756	0	1016,14	6,7	8,9	8,8	1	1	1	1	1	1	1	1	1	0	1	-11,134602	274,104441	308,93715	0
15.01.2021	18:10:38	0	0	4,293236	1,00575	304,722	0,277	84,762	0	1016,16	7	8,9	8,8	1	1	1	1	1	1	1	1	1	0	1	-8,597604	274,171729	311,788551	0
15.01.2021	18:10:39	0	0	3,276417	0,948	307,5012	0,281	84,745	0	1016,24	6,7	8,9	8,8	1	1	1	1	1	1	1	1	1	0	1	-8,668076	274,11788	311,46645	0
15.01.2021	18:10:40	0	0	3,389397	0,94875	303,5232	0,282	84,754	0	1016,28	6,7	8,9	8,8	1	1	1	1	1	1	1	1	1	0	1	-11,839323	274,146281	308,4279	0
15.01.2021	18:10:41	0	0	3,841316	0,97125	307,6272	0,28	84,756	0	1016,28	6,7	8,9	8,8	1	1	1	1	1	1	1	1	1	0	1	-8,245243	274,119373	311,896261	0
15.01.2021	18:10:42	0	0	4,745155	0,9765	312,1776	0,283	84,751	0	1016,36	6,7	8,9	8,8	1	1	1	1	1	1	1	1	1	0	1	-8,245243	274,158252	312,077925	0
15.01.2021	18:10:43	0	0	3,615356	0,975	307,5768	0,287	84,757	0	1016,24	6,7	8,9	8,8	1	1	1	1	1	1	1	1	1	0	1	-9,020437	274,120867	311,128046	0
15.01.2021	18:10:44	0	0	4,067276	0,999	306,4212	0,277	84,755	0	1016,36	7	8,9	8,8	1	1	1	1	1	1	1	1	1	0	1	-5,84919	274,17922	314,571981	0
15.01.2021	18:10:45	0	0	4,971115	1,0155	317,3796	0,275	84,741	0	1016,18	7	9	8,8	1	1	1	1	1	1	1	1	1	0	1	-13,812544	274,102948	306,252236	0
15.01.2021	18:10:46	0	0	2,937477	0,972	321,8184	0,283	84,763	0	1016,02	7	8,9	8,8	1	1	1	1	1	1	1	1	1	0	1	-12,332629	274,009146	307,29425	0
15.01.2021	18:10:47	0	0	4,180256	0,8985	317,7612	0,28	84,763	0	1016,28	6,9	8,9	8,8	1	1	1	1	1	1	1	1	1	0	1	-7,117689	274,111906	312,988931	0
15.01.2021	18:10:48	0	0	4,519195	0,86325	311,7708	0,28	84,742	0	1016,18	6,7	8,9	8,8	1	1	1	1	1	1	1	1	1	0	1	-10,288936	274,164241	310,062219	0
15.01.2021	18:10:49	0	0	4,745155	0,84375	305,478	0,281	84,751	0	1016,26	6,7	8,9	8,8	1	1	1	1	1	1	1	1	1	0	1	-8,315715	274,06716	311,581941	0
15.01.2021	18:10:50	0	0	3,389397	0,8145	303,1776	0,277	84,751	0	1016,14	7	8,9	8,8	1	1	1	1	1	1	1	1	1	0	1	-8,104299	274,17922	312,316872	0
15.01.2021	18:10:51	0	0	3,050457	0,8145	304,596	0,285	84,756	0	1016,36	7	8,9	8,8	1	1	1	1	1	1	1	1	1	0	1	-8,668076	274,06716	311,22958	0
15.01.2021	18:10:52	0	0	2,711517	0,79725	303,5232	0,276	84,75	0	1016,3	6,7	8,9	8,8	1	1	1	1	1	1	1	1	1	0	1	-12,755462	273,989846	306,781377	0
15.01.2021	18:10:53	0	0	4,745155	0,7845	295,6644	0,279	84,744	0	1016,2	7	9	8,8	1	1	1	1	1	1	1	1	1	0	1	-11,909796	274,024005	307,786419	0
15.01.2021	18:10:54	0	0	2,824497	0,7875	299,7576	0,277	84,749	0	1016,42	6,7	8,9	8,8	1	1	1	1	1	1	1	1	1	0	1	-8,527132	274,149273	311,754074	0
15.01.2021	18:10:55	0	0	3,841316	0,77475	304,2396	0,28	84,76	0	1016,26	7	8,9	8,8	1	1	1	1	1	1	1	1	1	0	1	-13,178295	274,161246	307,158866	0
15.01.2021	18:10:56	0	0	2,824497	0,78	308,4408	0,281	84,756	0	1016,42	6,7	8,9	8,8	1	1	1	1	1	1	1	1	1	0	1	-12,191684	274,120867	307,956799	0
15.01.2021	18:10:57	0	0	4,519195	0,7515	313,6644	0,281	84,744	0	1016,22	6,7	8,9	8,8	1	1	1	1	1	1	1	1	1	0	1	-9,866103	274,128339	310,317284	0
15.01.2021	18:10:58	0	0	4,858135	0,747	311,7528	0,278	84,738	0	1016,34	6,7	8,9	8,8	1	1	1	1	1	1	1	1	1	0	1	-13,03735	274,050779	306,783832	0
15.01.2021	18:10:59	0	0	3,163437	0,729	308,0484	0,282	84,727	0	1016,28	6,7	8,9	8,8	1	1	1	1	1	1	1	1	1	0	1	-10,288936	273,99133	309,254825	0
15.01.2021	18:11:00	0	0	2,598537	0,79875	309,852	0,279	84,745	0	1016,3	7	8,9	8,8	1	1	1	1	1	1	1	1	1	0	1	-9,725159	274,003205	309,874004	0
15.01.2021	18:11:01	0	0	2,598537	0,79875	309,852	0,279	84,745	0	1016,3	7	8,9	8,8	1	1	1	1	1	1	1	1	1	0	1	-11,557435	274,028464	308,159593	0
15.01.2021	18:11:02	0	0	3,728336	0,8625	304,2504	0,283	84,729	0	1016,24	6,7	8,9	8,8	1	1	1	1	1	1	1	1	1	0	1	-11,909796	274,006175	307,703223	0
15.01.2021	18:11:03	0	0	4,971115	0,924	305,8992	0,277	84,724	0	1016,22	6,7	8,9	8,8	1	1	1	1	1	1	1	1	1	0	1	-8,668076	273,983912	310,84108	0
15.01.2021	18:11:04	0	0	2,824514	0,9495	318,1284	0,278	84,734	0	1016,28	6,7	8,9	8,7	1	1	1	1	1	1	1	1	1	0	1	-11,839323	274,062691	308,037468	0
15.01.2021	18:11:05	0	0	4,971115	0,94275	320,7204	0,279	84,737	0	1016,3	6,7	8,9	8,8	1	1	1	1	1	1	1	1	1	0	1	-8,45666	274,177721	311,957506	0
15.01.2021	18:11:06	0	0	4,632175	0,939	318,4632	0,279	84,746	0	1016,26	6,7	8,9	8,8	1	1	1	1	1	1	1	1	1	0	1	-9,372798	274,059713	310,490088	0
15.01.2021	18:11:07	0	0	3,050457	0,9405	321,4188	0,278	84,738	0	1016,2	6,7	8,9	8,8	1	1	1	1	1	1	1	1	1	0	1	-11,698379	274,186713	308,757824	0
15.01.2021	18:11:08	0	0	4,519195	0,86325	320,0544	0,281	84,74	0	1016,28	6,7	9	8,8	1	1	1	1	1	1	1	1	1	0	1	-11,486963	274,123856	308,67548	0
15.01.2021	18:11:09	0	0	1,920658	0,86775	316,638	0,282	84,741	0	1016,3	6,7	8,9	8,8	1	1	1	1	1	1	1	1	1	0	1	-9,161381	274,019546	310,514026	0
15.01.2021	18:11:10	0	0	3,954296	0,819	315,9036	0,272	84,739	0	1016,26	7	9	8,8	1	1	1	1	1	1	1	1	1	0	1	-12,121212	274,134318	308,09011	0
15.01.2021	18:11:11	0	0	2,598537	0,7635	319,3236	0,275	84,728	0	1016,24	6,7	8,9	8,8	1	1	1	1	1	1	1	1	1	0	1	-14,376321	274,176223	306,030841	0
15.01.2021	18:11:12	0	0	3,050457	0,7635	322,6032	0,274	84,732	0	1016,26	6,7	8,9	8,8	1	1	1	1	1	1	1	1	1	0	1	-7,047216	274,038875	312,718399	0
15.01.2021	18:11:13	0	0	4,519195	0,68775	325,2024	0,276	84,737	0	1016,28	7	8,9	8,8	1	1	1	1	1	1	1	1	1	0	1	-10,288936	274,006175	309,324083	0
15.01.2021	18:11:14	0	0	3,163437	0,67275	322,9524	0,282	84,748	0	1016,34	6,7	8,9	8,8	1	1	1	1	1	1	1	1	1	0	1	-12,896406	274,079082	307,056916	0
15.01.2021	18:11:15	0	0	4,406216	0,69075	311,4504	0,28	84,73	0	1016,3	6,7	8,9	8,8	1	1	1	1	1	1	1	1	1	0	1	-10,570825	273,977979	308,910659	0
15.01.2021	18:11:16	0	0	4,406216	0,783	304,9956	0,275	84,728	0	1016,12	6,7	8,9	8,8	1	1	1	1	1	1	1	1	1	0	1	-10,359408	273,985395	309,156667	0
15.01.2021	18:11:17	0	0	3,841316	0,87	313,9848	0,278	84,739	0	1016,26	6,7	8,9	8,8	1	1	1	1	1	1	1	1	1	0	1	-8,80902	274,146281	311,458204	0
15.01.2021	18:11:18	0	0	4,745155	0,92325	325,9692	0,281	84,738	0	1016,36	7	9	8,8	1	1	1	1	1	1	1	1	1	0	1	-12,403101	274,040363	307,369458	0
15.01.2021	18:11:19	0	0	2,824497	0,94875	310,2876	0,279	84,713	0	1016,08	7	8,9	8,8	1	1	1	1	1	1	1	1	1	0	1	-7,610994	274,158252	312,712174	0
15.01.2021	18:11:20	0	0	3,841316	0,99075	306,4464	0,277	84,726	0	1016,26	7	8,9	8,8	1	1	1	1	1	1	1	1	1	0	1	-11,768851	274,031438	307,962056	0
15.01.2021	18:11:21	0	0	2,711517	0,96525	297,5724	0,279	84,745	0	1016,22	6,7	8,9	8,8	1	1	1	1	1	1	1	1	1	0	1	-13,460183	274,013602	306,187489	0
15.01.2021	18:11:22	0	0	3,163437	1,04775	306,5832	0,274	84,734	0	1016,22	6,7	9	8,8	1	1	1	1	1	1	1	1	1	0	1	-9,020437	274,159749	311,309727	0
15.01.2021	18:11:23	0	0	4,745155	1,20375	315,8964	0,283	84,734	0	1016,24	7	8,9	8,8	1	1	1	1	1	1	1	1	1	0	1	-12,684989	274,113399	307,428606	0
15.01.2021	18:11:24	0	0	4,745155	1,2795	337,6296	0,285	84,739	0	1016,3	6,7	8,9	8,8	1	1	1	1	1	1	1	1	1	0	1	-12,544045	274,156756	307,772127	0
15.01.2021	18:11:25	0	0	3,163456	1,29675	330,1344	0,28	84,744	0	1016,38	7	8,9	8,7	1	1	1	1	1	1	1	1	1	0	1	-8,80902	274,122361	311,346442	0
15.01.2021	18:11:26	0	0	3,050457	1,2165	332,5284	0,283	84,731	0	1016,1	7	8,9	8,8	1	1	1	1	1	1	1	1	1	0	1	-10,007047	273,983912	309,502109	0
15.01.2021	18:11:27	0	0	4,632175	1,10175	318,1392	0,275	84,745	0	1016,22	7	8,9	8,8	1	1	1	1	1	1	1	1	1	0	1	-10,42988	274,114893	309,690691	0
15.01.2021	18:11:28	0	0	3,050457	1,1235	308,0664	0,279	84,742	0	1016,36	6,7	8,9	8,8	1	1	1	1	1	1	1	1	1	0	1	-12,825934	273,977979	306,65555	0
15.01.2021	18:11:29	0	0	4,067276	1,128	315,4932	0,279	84,737	0	1016,16	6,7	8,9	8,8	1	1	1	1	1	1	1	1	1	0	1	-10,359408	274,08952	309,642656	0
15.01.2021	18:11:30	0	0	4,406216	1,07775	336,4164	0,276	84,746	0	1016,36	6,7	8,9	8,8	1	1	1	1	1	1	1	1	1	0	1	-10,077519	274,003205	309,521643	0
15.01.2021	18:11:31	0	0	5,197075	0,99375	346,1688	0,278	84,742	0	1016,24	6,7	8,9	8,8	1	1	1	1	1	1	1	1	1	0	1	-9,161381	274,028464	310,555647	0
15.01.2021	18:11:32	0	0	2,937477	0,98775	321,4944	0,276	84,747	0	1016,26	7	8,9	8,8	1	1	1	1	1	1	1	1	1	0	1	-11,41649	274,129833	308,773879	0
15.01.2021	18:11:33	0	0	2,937477	0,999	325,5228	0,276	84,741	0	1016,28	6,7	8,9	8,8	1	1	1	1	1	1	1	1	1	0	1	-6,483439	274,032925	313,254408	0
15.01.2021	18:11:34	0	0	4,180256	0,99675	330,6852	0,277	84,734	0	1016,22	6,7	8,9	8,8	1	1	1	1	1	1	1	1	1	0	1	-16,208598	274,0359	303,543132	0
15.01.2021	18:11:35	0	0	4,745155	0,9345	318,8844	0,274	84,736	0	1016,3	6,7	8,9	8,8	1	1	1	1	1	1	1	1	1	0	1	-11,557435	274,003205	308,041727	0
15.01.2021	18:11:36	0	0	2,824497	0,8745	314,0892	0,274	84,742	0	1016,12	6,7	9	8,8	1	1	1	1	1	1	1	1	1	0	1	-11,768851	274,055245	308,07318	0
15.01.2021	18:11:37	0	0	2,485558	0,80325	316,6272	0,28	84,738	0	1016,34	7	8,9	8,8	1	1	1	1	1	1	1	1	1	0	1	-14,65821	274,161246	305,67895	0
15.01.2021	18:11:38	0	0	5,197075	0,816	315,9648	0,281	84,742	0	1016,3	6,7	8,9	8,8	1	1	1	1	1	1	1	1	1	0	1	-8,668076	274,110413	311,431569	0
15.01.2021	18:11:39	0	0	4,406216	0,8385	315,9432	0,283	84,742	0	1016,14	6,7	8,9	8,8	1	1	1	1	1	1	1	1	1	0	1	-13,460183	273,997267	306,111273	0
15.01.2021	18:11:40	0	0	5,197075	0,888	324,4068	0,282	84,742	0	1016,26	6,7	8,9	8,8	1	1	1	1	1	1	1	1	1	0	1	-14,65821	274,08952	305,343854	0
15.01.2021	18:11:41	0	0	3,389397	0,86775	321,5844	0,277	84,747	0	1016,14	6,7	8,9	8,8	1	1	1	1	1	1	1	1	1	0	1	-12,332629	274,176223	308,074534	0
15.01.2021	18:11:42	0	0	2,372578	0,90675	315,1836	0,279	84,748	0	1016,24	6,7	9	8,8	1	1	1	1	1	1	1	1	1	0	1	-7,047216	274,088029	312,947883	0
15.01.2021	18:11:43	0	0	4,519195	0,8625	312,1776	0,281	84,742	0	1016,16	7	8,9	8,8	1	1	1	1	1	1	1	1	1	0	1	-8,668076	274,010631	310,965733	0
15.01.2021	18:11:44	0	0	5,197075	0,8745	309,1752	0,283	84,742	0	1016,3	6,7	8,9	8,8	1	1	1	1	1	1	1	1	1	0	1	-14,799154	274,105934	305,27957	0
15.01.2021	18:11:45	0	0	4,632175	0,89625	304,3584	0,272	84,74	0	1016,38	6,7	8,9	8,8	1	1	1	1	1	1	1	1	1	0	1	-11,980268	274,152266	308,314923	0
15.01.2021	18:11:46	0	0	2,937477	0,8865	307,5804	0,276	84,723	0	1016,32	6,7	8,9	8,8	1	1	1	1	1	1	1	1	1	0	1	-8,527132	274,099963	311,523707	0
15.01.2021	18:11:47	0	0	4,293261	0,8715	312,4512	0,279	84,743	0	1016,16	6,7	8,9	8,7	1	1	1	1	1	1	1	1	1	0	1	-13,812544	274,182217	306,622637	0
15.01.2021	18:11:48	0	0	4,293236	0,843	312,1236	0,275	84,742	0	1016,28	6,7	8,9	8,8	1	1	1	1	1	1	1	1	1	0	1	-12,825934	274,052268	307,002198	0
15.01.2021	18:11:49	0	0	3,050457	0,81975	310,6872	0,279	84,758	0	1016,38	6,7	9	8,8	1	1	1	1	1	1	1	1	1	0	1	-8,245243	274,000236	311,340065	0
15.01.2021	18:11:50	0	0	2,372578	0,828	310,6728	0,276	84,746	0	1016,32	6,7	9	8,8	1	1	1	1	1	1	1	1	1	0	1	-10,147992	274,049291	309,666243	0
15.01.2021	18:11:51	0	0	4,745155	0,84	310,6764	0,28	84,759	0	1016,42	6,7	8,9	8,8	1	1	1	1	1	1	1	1	1	0	1	-11,41649	274,161246	308,92067	0
15.01.2021	18:11:52	0	0	4,858135	0,7995	318,096	0,273	84,745	0	1016,26	6,7	8,9	8,8	1	1	1	1	1	1	1	1	1	0	1	-13,107822	274,083555	306,866385	0
15.01.2021	18:11:53	0	0	3,050457	0,7695	323,7048	0,279	84,745	0	1016,26	6,7	8,9	8,8	1	1	1	1	1	1	1	1	1	0	1	-11,557435	273,995783	308,007097	0
15.01.2021	18:11:54	0	0	4,180256	0,7215	321,876	0,274	84,726	0	1016,2	6,7	8,9	8,8	1	1	1	1	1	1	1	1	1	0	1	-9,584214	274,098471	310,459655	0
15.01.2021	18:11:55	0	0	2,485558	0,7215	310,9968	0,276	84,747	0	1016,4	6,7	9	8,8	1	1	1	1	1	1	1	1	1	0	1	-12,966878	273,989846	306,56996	0
15.01.2021	18:11:56	0	0	3,841316	0,765	313,2684	0,276	84,74	0	1016,26	6,7	8,9	8,8	1	1	1	1	1	1	1	1	1	0	1	-15,151515	274,037387	304,607157	0
15.01.2021	18:11:57	0	0	2,711517	0,85425	312,444	0,277	84,737	0	1016,26	7	8,9	8,8	1	1	1	1	1	1	1	1	1	0	1	-9,302326	274,019546	310,373081	0
15.01.2021	18:11:58	0	0	3,615356	0,94425	308,0808	0,276	84,748	0	1016,34	6,7	8,9	8,8	1	1	1	1	1	1	1	1	1	0	1	-12,544045	274,016574	307,117493	0
15.01.2021	18:11:59	0	0	3,163437	1,0365	317,4552	0,276	84,738	0	1016,24	6,7	8,9	8,8	1	1	1	1	1	1	1	1	1	0	1	-10,993658	274,176223	309,413505	0
15.01.2021	18:12:00	0	0	5,197075	1,13625	321,8508	0,274	84,736	0	1016,16	7	8,9	8,8	1	1	1	1	1	1	1	1	1	0	1	-10,852713	274,12535	309,31671	0
15.01.2021	18:12:01	0	0	4,858135	1,20525	311,4504	0,277	84,746	0	1016,34	7	9	8,8	1	1	1	1	1	1	1	1	1	0	1	-7,258633	274,164241	313,092522	0
15.01.2021	18:12:02	0	0	4,632175	1,28025	310,662	0,277	84,74	0	1016	6,7	8,9	8,8	1	1	1	1	1	1	1	1	1	0	1	-14,305849	274,07163	305,612677	0
15.01.2021	18:12:03	0	0	3,502376	1,275	308,4516	0,278	84,757	0	1016,22	7	8,9	8,8	1	1	1	1	1	1	1	1	1	0	1	-14,376321	274,162743	305,967836	0
15.01.2021	18:12:04	0	0	3,050457	1,2645	314,1	0,275	84,741	0	1016,14	7	8,9	8,8	1	1	1	1	1	1	1	1	1	0	1	-8,738548	274,040363	311,034011	0
15.01.2021	18:12:05	0	0	4,180256	1,28925	321,804	0,279	84,75	0	1016,1	7	9	8,8	1	1	1	1	1	1	1	1	1	0	1	-12,755462	274,134318	307,455861	0
15.01.2021	18:12:06	0	0	2,598537	1,31175	323,3808	0,277	84,746	0	1016,18	7	9	8,8	1	1	1	1	1	1	1	1	1	0	1	-9,302326	273,975014	310,165326	0
15.01.2021	18:12:07	0	0	4,745155	1,3185	321,4692	0,277	84,726	0	1016,28	6,7	8,9	8,8	1	1	1	1	1	1	1	1	1	0	1	-11,41649	274,107427	308,669206	0
15.01.2021	18:12:08	0	0	3,728336	1,2705	312,1524	0,276	84,753	0	1016,34	6,7	8,9	8,8	1	1	1	1	1	1	1	1	1	0	1	-9,090909	273,992814	310,459775	0
15.01.2021	18:12:09	0	0	2,824497	1,2105	314,82	0,277	84,743	0	1016,3	6,7	8,9	8,8	1	1	1	1	1	1	1	1	1	0	1	-8,879493	274,056734	310,969489	0
15.01.2021	18:12:10	0	0	2,937495	1,17675	318,5172	0,276	84,727	0	1016,24	6,7	8,9	8,7	1	1	1	1	1	1	1	1	1	0	1	-8,738548	274,170231	311,640605	0
15.01.2021	18:12:11	0	0	3,728336	1,185	318,4884	0,279	84,758	0	1016,38	7	9	8,8	1	1	1	1	1	1	1	1	1	0	1	-13,389711	274,099963	306,661127	0
15.01.2021	18:12:12	0	0	3,615356	1,206	324,1152	0,277	84,739	0	1016,24	7	8,9	8,8	1	1	1	1	1	1	1	1	1	0	1	-12,262156	274,000236	307,323152	0
15.01.2021	18:12:13	0	0	3,728336	1,19325	326,7288	0,276	84,741	0	1016,22	6,7	8,9	8,8	1	1	1	1	1	1	1	1	1	0	1	-15,010571	274,06716	304,887085	0
15.01.2021	18:12:14	0	0	3,050457	1,17375	320,346	0,281	84,752	0	1016,34	6,7	8,9	8,8	1	1	1	1	1	1	1	1	1	0	1	-11,346018	274,170231	309,033135	0
15.01.2021	18:12:15	0	0	2,372578	1,1295	318,8556	0,273	84,74	0	1016,12	6,7	8,9	8,8	1	1	1	1	1	1	1	1	1	0	1	-13,6716	274,019546	306,003807	0
15.01.2021	18:12:16	0	0	3,502376	1,05675	309,2544	0,278	84,757	0	1016,26	6,7	8,9	8,8	1	1	1	1	1	1	1	1	1	0	1	-13,389711	274,134318	306,821611	0
15.01.2021	18:12:17	0	0	4,406216	1,023	307,5768	0,269	84,736	0	1016,22	6,7	9	8,8	1	1	1	1	1	1	1	1	1	0	1	-7,258633	274,170231	313,120521	0
15.01.2021	18:12:18	0	0	4,406216	0,92325	317,79	0,271	84,749	0	1016,24	7	8,9	8,8	1	1	1	1	1	1	1	1	1	0	1	-9,584214	274,026978	310,125875	0
15.01.2021	18:12:19	0	0	5,197075	0,84825	320,3964	0,284	84,747	0	1016,38	6,7	8,9	8,8	1	1	1	1	1	1	1	1	1	0	1	-10,852713	273,994298	308,704894	0
15.01.2021	18:12:20	0	0	2,824497	0,78	317,7108	0,28	84,731	0	1016,42	6,7	8,9	8,8	1	1	1	1	1	1	1	1	1	0	1	-10,147992	274,050779	309,673191	0
15.01.2021	18:12:21	0	0	4,180256	0,7515	312,534	0,273	84,739	0	1016,3	6,7	8,9	8,8	1	1	1	1	1	1	1	1	1	0	1	-9,654686	274,174725	310,745473	0
15.01.2021	18:12:22	0	0	4,858135	0,774	308,5128	0,278	84,745	0	1016,3	6,7	8,9	8,8	1	1	1	1	1	1	1	1	1	0	1	-11,275546	274,049291	308,538688	0
15.01.2021	18:12:23	0	0	3,502376	0,79275	303,5448	0,272	84,724	0	1016,48	6,7	8,9	8,8	1	1	1	1	1	1	1	1	1	0	1	-14,65821	274,141794	305,588046	0
15.01.2021	18:12:24	0	0	2,598537	0,80025	304,7148	0,277	84,745	0	1016,38	7	8,9	8,8	1	1	1	1	1	1	1	1	1	0	1	-13,530655	274,038875	306,23496	0
15.01.2021	18:12:25	0	0	2,146618	0,84	299,034	0,279	84,731	0	1016,18	6,7	8,9	8,8	1	1	1	1	1	1	1	1	1	0	1	-10,993658	273,983912	308,515498	0
15.01.2021	18:12:26	0	0	3,841316	0,86925	293,2992	0,277	84,752	0	1016,22	7	8,9	8,8	1	1	1	1	1	1	1	1	1	0	1	-10,077519	274,050779	309,743663	0
15.01.2021	18:12:27	0	0	4,858135	0,86475	295,2288	0,276	84,744	0	1016,26	6,7	8,9	8,8	1	1	1	1	1	1	1	1	1	0	1	-10,288936	274,015088	309,365669	0
15.01.2021	18:12:28	0	0	4,293236	0,8295	290,0772	0,273	84,733	0	1016,18	6,7	8,9	8,8	1	1	1	1	1	1	1	1	1	0	1	-10,641297	274,12535	309,528127	0
15.01.2021	18:12:29	0	0	3,163437	0,81075	282,042	0,277	84,746	0	1016,34	7	9	8,8	1	1	1	1	1	1	1	1	1	0	1	-12,896406	274,043338	306,890042	0
15.01.2021	18:12:30	0	0	4,406216	0,783	275,4072	0,281	84,751	0	1016,36	6,7	8,9	8,8	1	1	1	1	1	1	1	1	1	0	1	-10,42988	274,165738	309,928274	0
15.01.2021	18:12:31	0	0	2,598537	0,7365	279,2592	0,28	84,74	0	1016,3	7	9	8,8	1	1	1	1	1	1	1	1	1	0	1	-7,399577	274,06865	312,505035	0
15.01.2021	18:12:32	0	0	3,728336	0,6825	288,8964	0,279	84,745	0	1016,24	6,7	8,9	8,8	1	1	1	1	1	1	1	1	1	0	1	-7,117689	273,997267	312,453768	0
15.01.2021	18:12:33	0	0	3,389397	0,66825	295,2684	0,279	84,775	0	1016,54	6,7	8,9	8,8	1	1	1	1	1	1	1	1	1	0	1	-11,346018	274,092503	308,669978	0
15.01.2021	18:12:34	0	0	2,711517	0,633	290,8116	0,278	84,748	0	1016,24	6,7	8,9	8,8	1	1	1	1	1	1	1	1	1	0	1	-10,288936	273,99133	309,254825	0
15.01.2021	18:12:35	0	0	5,084095	0,59025	279,198	0,282	84,75	0	1016,4	6,7	8,9	8,8	1	1	1	1	1	1	1	1	1	0	1	-10,218464	274,099963	309,832375	0
15.01.2021	18:12:36	0	0	3,954296	0,5595	265,4172	0,282	84,744	0	1016,2	6,7	8,9	8,8	1	1	1	1	1	1	1	1	1	0	1	-10,641297	273,985395	308,874779	0
15.01.2021	18:12:37	0	0	4,971115	0,543	252,8532	0,271	84,749	0	1016,24	7	8,9	8,8	1	1	1	1	1	1	1	1	1	0	1	-12,403101	274,095487	307,626831	0
15.01.2021	18:12:38	0	0	4,519195	0,5055	248,1948	0,285	84,75	0	1016,26	6,7	8,9	8,8	1	1	1	1	1	1	1	1	1	0	1	-6,765328	274,009146	312,861551	0
15.01.2021	18:12:39	0	0	2,598553	0,47775	248,8284	0,275	84,735	0	1016,24	7	8,9	8,7	1	1	1	1	1	1	1	1	1	0	1	-9,513742	274,003205	310,08542	0
15.01.2021	18:12:40	0	0	4,406216	0,43425	252,2268	0,282	84,741	0	1016,3	6,7	8,9	8,8	1	1	1	1	1	1	1	1	1	0	1	-7,82241	274,131328	312,374943	0
15.01.2021	18:12:41	0	0	4,519195	0,40875	264,024	0,278	84,755	0	1016,3	6,7	8,9	8,8	1	1	1	1	1	1	1	1	1	0	1	-9,795631	274,043338	309,990818	0
15.01.2021	18:12:42	0	0	3,728336	0,37875	280,638	0,276	84,729	0	1016,3	6,7	8,9	8,8	1	1	1	1	1	1	1	1	1	0	1	-6,906272	274,162743	313,437885	0
15.01.2021	18:12:43	0	0	3,389397	0,384	295,578	0,277	84,754	0	1016,3	7	8,9	8,8	1	1	1	1	1	1	1	1	1	0	1	-14,164905	274,059713	305,697981	0
15.01.2021	18:12:44	0	0	3,502376	0,489	296,9064	0,283	84,759	0	1016,34	7	8,9	8,8	1	1	1	1	1	1	1	1	1	0	1	-13,883016	274,161246	306,454144	0
15.01.2021	18:12:45	0	0	4,519195	0,59475	293,0688	0,279	84,761	0	1016,16	6,7	8,9	8,8	1	1	1	1	1	1	1	1	1	0	1	-17,970402	274,141794	302,275854	0
15.01.2021	18:12:46	0	0	3,841316	0,68775	294,8148	0,277	84,739	0	1016,42	6,7	8,9	8,8	1	1	1	1	1	1	1	1	1	0	1	-8,315715	274,044826	311,477679	0
15.01.2021	18:12:47	0	0	2,598537	0,7935	308,4624	0,277	84,761	0	1016,26	6,7	8,9	8,8	1	1	1	1	1	1	1	1	1	0	1	-12,684989	274,022518	307,004289	0
15.01.2021	18:12:48	0	0	2,711517	0,89625	319,2516	0,288	84,758	0	1016,34	6,7	9	8,8	1	1	1	1	1	1	1	1	1	0	1	-14,164905	274,14329	306,08834	0
15.01.2021	18:12:49	0	0	3,954296	1,01925	324,8172	0,279	84,757	0	1016,28	6,7	8,9	8,8	1	1	1	1	1	1	1	1	1	0	1	-11,486963	274,161246	308,850198	0
15.01.2021	18:12:50	0	0	4,632175	1,09275	321,2208	0,277	84,768	0	1016,34	6,7	8,9	8,8	1	1	1	1	1	1	1	1	1	0	1	-12,614517	274,111906	307,492102	0
15.01.2021	18:12:51	0	0	3,276417	1,095	316,6776	0,282	84,741	0	1016,18	6,7	8,9	8,8	1	1	1	1	1	1	1	1	1	0	1	-14,235377	274,182217	306,199804	0
15.01.2021	18:12:52	0	0	4,519195	1,128	326,43	0,275	84,756	0	1016,28	7	8,9	8,8	1	1	1	1	1	1	1	1	1	0	1	-7,258633	273,992814	312,292051	0
15.01.2021	18:12:53	0	0	3,728336	1,15725	333,4464	0,28	84,754	0	1016,44	6,7	8,9	8,8	1	1	1	1	1	1	1	1	1	0	1	-14,376321	274,119373	305,765183	0
15.01.2021	18:12:54	0	0	3,502376	1,083	351,0756	0,276	84,762	0	1016,28	7	8,9	8,8	1	1	1	1	1	1	1	1	1	0	1	-8,245243	274,159749	312,08492	0
15.01.2021	18:12:55	0	0	4,745155	0,978	346,8744	0,276	84,755	0	1016,36	6,7	8,9	8,8	1	1	1	1	1	1	1	1	1	0	1	-8,315715	274,174725	312,084444	0
15.01.2021	18:12:56	0	0	2,598537	0,87075	338,8392	0,277	84,771	0	1016,2	6,7	8,9	8,8	1	1	1	1	1	1	1	1	1	0	1	-8,879493	274,135813	311,338815	0
15.01.2021	18:12:57	0	0	3,163437	0,9105	330,4008	0,275	84,754	0	1016,06	6,7	8,9	8,8	1	1	1	1	1	1	1	1	1	0	1	-8,527132	274,01806	311,141341	0
15.01.2021	18:12:58	0	0	3,502376	0,92325	322,938	0,279	84,76	0	1016,24	7	9	8,8	1	1	1	1	1	1	1	1	1	0	1	-9,654686	274,159749	310,675477	0
15.01.2021	18:12:59	0	0	4,293236	0,93675	320,7348	0,278	84,755	0	1016,28	6,7	8,9	8,8	1	1	1	1	1	1	1	1	1	0	1	-9,866103	274,082064	310,101142	0
15.01.2021	18:13:00	0	0	2,711517	0,927	297,3132	0,278	84,764	0	1016,16	6,7	9	8,8	1	1	1	1	1	1	1	1	1	0	1	-10,782241	274,022518	308,907037	0
15.01.2021	18:13:01	0	0	2,711517	0,927	297,3132	0,278	84,764	0	1016,16	6,7	9	8,8	1	1	1	1	1	1	1	1	1	0	1	-10,782241	274,022518	308,907037	0
15.01.2021	18:13:02	0	0	2,485558	0,936	293,346	0,279	84,763	0	1016,28	6,7	8,9	8,8	1	1	1	1	1	1	1	1	1	0	1	-8,949965	274,044826	310,843429	0
15.01.2021	18:13:03	0	0	3,841316	0,8955	299,3652	0,279	84,758	0	1016,18	6,7	8,9	8,8	1	1	1	1	1	1	1	1	1	0	1	-11,980268	274,146281	308,286956	0
15.01.2021	18:13:04	0	0	4,180256	0,85425	315,1692	0,282	84,743	0	1016,16	7	9	8,8	1	1	1	1	1	1	1	1	1	0	1	-10,782241	273,998751	308,796141	0
15.01.2021	18:13:05	0	0	2,937477	0,8595	328,59	0,275	84,766	0	1016,24	7	8,9	8,8	1	1	1	1	1	1	1	1	1	0	1	-9,44327	274,108919	310,649401	0
15.01.2021	18:13:06	0	0	2,711517	0,9435	335,5632	0,277	84,757	0	1016,16	6,7	8,9	8,8	1	1	1	1	1	1	1	1	1	0	1	-8,45666	273,986879	311,066336	0
15.01.2021	18:13:07	0	0	2,937495	0,98175	330,0876	0,282	84,772	0	1016,26	6,7	8,9	8,7	1	1	1	1	1	1	1	1	1	0	1	-12,332629	274,009146	307,29425	0
15.01.2021	18:13:08	0	0	4,632175	0,99225	312,534	0,278	84,764	0	1016,28	6,7	8,9	8,8	1	1	1	1	1	1	1	1	1	0	1	-7,399577	274,155259	312,909601	0
15.01.2021	18:13:09	0	0	2,711517	0,96075	328,9752	0,278	84,764	0	1016,38	6,7	9	8,8	1	1	1	1	1	1	1	1	1	0	1	-12,966878	273,983912	306,542278	0
15.01.2021	18:13:10	0	0	3,276417	0,9225	344,6388	0,279	84,775	0	1016,3	6,7	8,9	8,8	1	1	1	1	1	1	1	1	1	0	1	-12,191684	274,095487	307,838247	0
15.01.2021	18:13:11	0	0	4,519195	0,864	339,5016	0,279	84,768	0	1016,44	6,7	8,9	8,8	1	1	1	1	1	1	1	1	1	0	1	-9,231853	274,00469	310,374237	0
15.01.2021	18:13:12	0	0	3,502376	0,84675	329,6376	0,282	84,761	0	1016,18	6,7	8,9	8,8	1	1	1	1	1	1	1	1	1	0	1	-13,03735	274,058223	306,818583	0
15.01.2021	18:13:13	0	0	3,954296	0,8145	325,1592	0,283	84,776	0	1016,38	6,7	8,9	8,8	1	1	1	1	1	1	1	1	1	0	1	-8,879493	274,189712	311,590728	0
15.01.2021	18:13:14	0	0	2,711517	0,819	325,2132	0,275	84,771	0	1016,28	6,7	8,9	8,8	1	1	1	1	1	1	1	1	1	0	1	-13,530655	274,134318	306,680667	0
15.01.2021	18:13:15	0	0	2,259598	0,7725	318,4344	0,277	84,766	0	1016,22	6,7	9	8,8	1	1	1	1	1	1	1	1	1	0	1	-7,610994	274,04185	312,16851	0
15.01.2021	18:13:16	0	0	4,067276	0,76575	314,8956	0,279	84,767	0	1016,38	6,7	8,9	8,8	1	1	1	1	1	1	1	1	1	0	1	-12,262156	274,167235	308,102997	0
15.01.2021	18:13:17	0	0	2,711517	0,74625	313,3764	0,273	84,76	0	1016,4	7	8,9	8,8	1	1	1	1	1	1	1	1	1	0	1	-9,584214	274,029951	310,139753	0
15.01.2021	18:13:18	0	0	2,824497	0,7065	316,638	0,278	84,77	0	1016,36	6,7	8,9	8,8	1	1	1	1	1	1	1	1	1	0	1	-8,315715	273,997267	311,255741	0
15.01.2021	18:13:19	0	0	3,163456	0,63	321,408	0,279	84,768	0	1016,26	6,7	8,9	8,7	1	1	1	1	1	1	1	1	1	0	1	-9,161381	274,177721	311,252785	0
15.01.2021	18:13:20	0	0	4,971115	0,60525	313,5528	0,276	84,768	0	1016,32	6,7	8,9	8,8	1	1	1	1	1	1	1	1	1	0	1	-10,852713	274,11788	309,281813	0
15.01.2021	18:13:21	0	0	2,711517	0,59025	295,578	0,281	84,768	0	1016,2	6,7	8,9	8,8	1	1	1	1	1	1	1	1	1	0	1	-7,329105	273,997267	312,242351	0
15.01.2021	18:13:22	0	0	2,824497	0,57375	294,1236	0,28	84,765	0	1016,24	7	8,9	8,8	1	1	1	1	1	1	1	1	1	0	1	-9,866103	274,074611	310,066339	0
15.01.2021	18:13:23	0	0	2,824497	0,585	294,3648	0,272	84,781	0	1016,32	6,7	8,9	8,8	1	1	1	1	1	1	1	1	1	0	1	-13,530655	274,171729	306,855499	0
15.01.2021	18:13:24	0	0	2,372578	0,59325	288,8244	0,28	84,752	0	1016,28	6,7	9	8,8	1	1	1	1	1	1	1	1	1	0	1	-12,473573	274,110413	307,626072	0
15.01.2021	18:13:25	0	0	2,485558	0,6045	272,4768	0,282	84,766	0	1016,24	6,7	8,9	8,8	1	1	1	1	1	1	1	1	1	0	1	-12,966878	274,001721	306,625357	0
15.01.2021	18:13:26	0	0	2,824497	0,5925	267,7968	0,282	84,776	0	1016,38	6,7	8,9	8,8	1	1	1	1	1	1	1	1	1	0	1	-14,728682	274,07312	305,196802	0
15.01.2021	18:13:27	0	0	2,711517	0,6195	271,4184	0,278	84,767	0	1016,28	6,7	9	8,8	1	1	1	1	1	1	1	1	1	0	1	-10,570825	274,17922	309,850346	0
15.01.2021	18:13:28	0	0	2,598537	0,588	273,5928	0,271	84,769	0	1016,3	7	8,9	8,8	1	1	1	1	1	1	1	1	1	0	1	-15,715292	274,095487	304,314639	0
15.01.2021	18:13:29	0	0	2,937477	0,54825	278,8416	0,279	84,779	0	1016,3	6,7	8,9	8,8	1	1	1	1	1	1	1	1	1	0	1	-7,188161	273,983912	312,320995	0
15.01.2021	18:13:30	0	0	4,519195	0,5445	291,8988	0,279	84,778	0	1016,36	6,7	8,9	8,8	1	1	1	1	1	1	1	1	1	0	1	-9,302326	274,105934	310,776398	0
15.01.2021	18:13:31	0	0	2,372578	0,522	303,9084	0,282	84,774	0	1016,24	6,7	8,9	8,8	1	1	1	1	1	1	1	1	1	0	1	-14,094433	274,159749	306,235731	0
15.01.2021	18:13:32	0	0	4,745155	0,57225	310,2768	0,281	84,775	0	1016,4	6,7	8,9	8,8	1	1	1	1	1	1	1	1	1	0	1	-10,288936	274,102948	309,775844	0
15.01.2021	18:13:33	0	0	2,824497	0,64725	327,8736	0,282	84,765	0	1016,4	6,7	8,9	8,8	1	1	1	1	1	1	1	1	1	0	1	-11,627907	274,022518	308,061371	0
15.01.2021	18:13:34	0	0	3,841316	0,68025	334,2816	0,281	84,78	0	1016,3	6,7	9	8,8	1	1	1	1	1	1	1	1	1	0	1	-12,614517	274,000236	306,970791	0
15.01.2021	18:13:35	0	0	4,971115	0,74925	328,5432	0,279	84,768	0	1016,3	6,7	8,9	8,8	1	1	1	1	1	1	1	1	1	0	1	-10,993658	274,137308	309,231636	0
15.01.2021	18:13:36	0	0	4,293236	0,7605	327,4884	0,28	84,783	0	1016,32	6,7	8,9	8,8	1	1	1	1	1	1	1	1	1	0	1	-12,544045	273,997267	307,027411	0
15.01.2021	18:13:37	0	0	3,841339	0,76425	325,1952	0,274	84,772	0	1016,38	6,7	9	8,7	1	1	1	1	1	1	1	1	1	0	1	-9,231853	274,040363	310,540706	0
15.01.2021	18:13:38	0	0	2,824497	0,756	315,1836	0,276	84,778	0	1016,36	6,7	9	8,8	1	1	1	1	1	1	1	1	1	0	1	-11,627907	273,983912	307,881249	0
15.01.2021	18:13:39	0	0	2,711517	0,73425	306,036	0,281	84,782	0	1016,28	6,7	8,9	8,8	1	1	1	1	1	1	1	1	1	0	1	-10,42988	274,129833	309,76049	0
15.01.2021	18:13:40	0	0	4,406216	0,7005	309,9384	0,283	84,776	0	1016,32	6,7	8,9	8,8	1	1	1	1	1	1	1	1	1	0	1	-8,738548	274,158252	311,584619	0
15.01.2021	18:13:41	0	0	2,485558	0,6975	316,6668	0,281	84,782	0	1016,36	6,7	8,9	8,8	1	1	1	1	1	1	1	1	1	0	1	-9,866103	274,102948	310,198677	0
15.01.2021	18:13:42	0	0	2,937477	0,687	311,7636	0,278	84,782	0	1016,22	6,7	8,9	8,8	1	1	1	1	1	1	1	1	1	0	1	-12,403101	274,158252	307,920067	0
15.01.2021	18:13:43	0	0	3,163456	0,6555	304,7292	0,278	84,778	0	1016,24	7	8,9	8,7	1	1	1	1	1	1	1	1	1	0	1	-11,486963	274,038875	308,278653	0
15.01.2021	18:13:44	0	0	3,276417	0,657	300,1176	0,284	84,784	0	1016,2	6,7	8,9	8,8	1	1	1	1	1	1	1	1	1	0	1	-8,315715	274,174725	312,084444	0
15.01.2021	18:13:45	0	0	4,519195	0,6525	297,8928	0,276	84,781	0	1016,28	6,7	8,9	8,8	1	1	1	1	1	1	1	1	1	0	1	-11,768851	274,003205	307,830311	0
15.01.2021	18:13:46	0	0	4,180256	0,681	303,1704	0,275	84,771	0	1016,22	6,7	8,9	8,8	1	1	1	1	1	1	1	1	1	0	1	-8,245243	274,053757	311,589838	0
15.01.2021	18:13:47	0	0	4,406216	0,7155	310,6404	0,278	84,773	0	1016,34	6,7	8,9	8,8	1	1	1	1	1	1	1	1	1	0	1	-10,007047	274,146281	310,260177	0
15.01.2021	18:13:48	0	0	2,598537	0,74325	312,1884	0,282	84,791	0	1016,42	6,7	8,9	8,8	1	1	1	1	1	1	1	1	1	0	1	-9,725159	274,037387	310,033514	0
15.01.2021	18:13:49	0	0	4,858164	0,82125	309,9384	0,279	84,775	0	1016,38	6,7	8,9	8,7	1	1	1	1	1	1	1	1	1	0	1	-8,033827	274,009146	311,593052	0
15.01.2021	18:13:50	0	0	2,937477	0,93975	315,5364	0,277	84,761	0	1016,36	6,7	8,9	8,8	1	1	1	1	1	1	1	1	1	0	1	-9,513742	274,082064	310,453503	0
15.01.2021	18:13:51	0	0	4,858164	1,059	329,3604	0,279	84,789	0	1016,3	6,7	8,9	8,7	1	1	1	1	1	1	1	1	1	0	1	-14,235377	274,152266	306,059814	0
15.01.2021	18:13:52	0	0	3,954296	1,11	323,784	0,281	84,786	0	1016,32	6,7	8,9	8,8	1	1	1	1	1	1	1	1	1	0	1	-7,540521	274,07312	312,384962	0
15.01.2021	18:13:53	0	0	4,067276	1,167	320,0832	0,273	84,777	0	1016,28	6,7	8,9	8,8	1	1	1	1	1	1	1	1	1	0	1	-11,557435	274,153762	308,744749	0
15.01.2021	18:13:54	0	0	3,502376	1,21875	322,902	0,272	84,763	0	1016,28	6,7	9	8,8	1	1	1	1	1	1	1	1	1	0	1	-6,8358	274,022518	312,853478	0
15.01.2021	18:13:55	0	0	2,824497	1,302	320,3676	0,278	84,782	0	1016,36	6,7	8,9	8,8	1	1	1	1	1	1	1	1	1	0	1	-11,839323	273,995783	307,725208	0
15.01.2021	18:13:56	0	0	4,180281	1,37025	320,8068	0,282	84,782	0	1016,24	6,7	9	8,7	1	1	1	1	1	1	1	1	1	0	1	-9,936575	274,107427	310,149122	0
15.01.2021	18:13:57	0	0	3,954296	1,386	319,2084	0,279	84,762	0	1016,18	6,7	8,9	8,8	1	1	1	1	1	1	1	1	1	0	1	-12,684989	274,15077	307,603208	0
15.01.2021	18:13:58	0	0	3,276417	1,35975	329,778	0,281	84,774	0	1016,34	6,7	8,9	8,8	1	1	1	1	1	1	1	1	1	0	1	-8,80902	273,980945	310,686298	0
15.01.2021	18:13:59	0	0	3,615356	1,3365	320,0472	0,279	84,785	0	1016,32	6,7	8,9	8,8	1	1	1	1	1	1	1	1	1	0	1	-8,174771	274,037387	311,583901	0
15.01.2021	18:14:00	0	0	4,745155	1,323	314,7984	0,284	84,791	0	1016,4	6,7	9	8,8	1	1	1	1	1	1	1	1	1	0	1	-10,359408	274,170231	310,019745	0
15.01.2021	18:14:01	0	0	3,389397	1,28325	324,36	0,279	84,781	0	1016,34	6,7	8,9	8,8	1	1	1	1	1	1	1	1	1	0	1	-12,473573	274,058223	307,382361	0
15.01.2021	18:14:02	0	0	4,519195	1,30725	319,23	0,283	84,773	0	1016,28	7	8,9	8,8	1	1	1	1	1	1	1	1	1	0	1	-13,389711	274,144785	306,870523	0
15.01.2021	18:14:03	0	0	2,937477	1,419	325,0692	0,281	84,779	0	1016,3	7	8,9	8,8	1	1	1	1	1	1	1	1	1	0	1	-10,007047	274,111906	310,099572	0
15.01.2021	18:14:04	0	0	4,406216	1,48875	328,9104	0,278	84,793	0	1016,28	6,7	8,9	8,8	1	1	1	1	1	1	1	1	1	0	1	-13,953488	274,171729	306,432666	0
15.01.2021	18:14:05	0	0	4,632175	1,49025	326,754	0,286	84,779	0	1016,32	6,7	8,9	8,8	1	1	1	1	1	1	1	1	1	0	1	-9,866103	274,079082	310,087219	0
15.01.2021	18:14:06	0	0	2,598537	1,45575	334,2744	0,28	84,788	0	1016,26	6,7	8,9	8,8	1	1	1	1	1	1	1	1	1	0	1	-9,090909	274,167235	311,274244	0
15.01.2021	18:14:07	0	0	3,728336	1,45575	329,6628	0,284	84,762	0	1016,06	6,7	8,9	8,8	1	1	1	1	1	1	1	1	1	0	1	-8,668076	274,088029	311,327023	0
15.01.2021	18:14:08	0	0	3,615356	1,4055	330,4008	0,28	84,781	0	1016,3	6,7	8,9	8,8	1	1	1	1	1	1	1	1	1	0	1	-11,627907	273,989846	307,908931	0
15.01.2021	18:14:09	0	0	2,824497	1,3905	317,4552	0,281	84,782	0	1016,36	6,7	8,9	8,8	1	1	1	1	1	1	1	1	1	0	1	-10,218464	274,049291	309,595771	0
15.01.2021	18:14:10	0	0	3,502376	1,3785	310,3452	0,28	84,779	0	1016,3	6,7	8,9	8,8	1	1	1	1	1	1	1	1	1	0	1	-12,191684	274,161246	308,145476	0
15.01.2021	18:14:11	0	0	3,163456	1,41525	316,6452	0,28	84,785	0	1016,36	6,7	9	8,7	1	1	1	1	1	1	1	1	1	0	1	-14,869626	274,119373	305,271878	0
15.01.2021	18:14:12	0	0	2,598553	1,46775	322,5708	0,282	84,786	0	1016,52	6,7	8,9	8,7	1	1	1	1	1	1	1	1	1	0	1	-6,20155	273,983912	313,307605	0
15.01.2021	18:14:13	0	0	3,954296	1,4985	322,902	0,281	84,762	0	1016,24	6,7	9	8,8	1	1	1	1	1	1	1	1	1	0	1	-8,80902	274,038875	310,956595	0
15.01.2021	18:14:14	0	0	2,598537	1,4865	319,0428	0,286	84,775	0	1016,22	6,7	8,9	8,8	1	1	1	1	1	1	1	1	1	0	1	-8,527132	274,01806	311,141341	0
15.01.2021	18:14:15	0	0	3,163437	1,428	318,5388	0,279	84,777	0	1016,3	6,7	8,9	8,8	1	1	1	1	1	1	1	1	1	0	1	-11,275546	274,00469	308,330544	0
15.01.2021	18:14:16	0	0	4,858135	1,389	318,0996	0,273	84,774	0	1016,3	6,7	9	8,8	1	1	1	1	1	1	1	1	1	0	1	-7,188161	274,15077	313,100037	0
15.01.2021	18:14:17	0	0	3,163437	1,362	317,412	0,288	84,763	0	1016,4	6,7	8,9	8,8	1	1	1	1	1	1	1	1	1	0	1	-7,188161	274,01806	312,480312	0
15.01.2021	18:14:18	0	0	2,598537	1,32675	324,3672	0,274	84,767	0	1016,22	6,7	9	8,8	1	1	1	1	1	1	1	1	1	0	1	-8,033827	274,062691	311,842965	0
15.01.2021	18:14:19	0	0	3,728336	1,29375	330,6852	0,281	84,777	0	1016,06	6,7	8,9	8,8	1	1	1	1	1	1	1	1	1	0	1	-13,389711	274,167235	306,975442	0
15.01.2021	18:14:20	0	0	4,180256	1,28625	321,2028	0,281	84,779	0	1016,36	6,7	8,9	8,8	1	1	1	1	1	1	1	1	1	0	1	-14,940099	274,138803	305,292182	0
15.01.2021	18:14:21	0	0	3,615356	1,26225	317,7684	0,279	84,79	0	1016,36	6,7	8,9	8,8	1	1	1	1	1	1	1	1	1	0	1	-11,346018	274,14329	308,907226	0
15.01.2021	18:14:22	0	0	3,050457	1,21125	316,908	0,282	84,776	0	1016,38	6,7	8,9	8,8	1	1	1	1	1	1	1	1	1	0	1	-10,218464	273,989846	309,318375	0
15.01.2021	18:14:23	0	0	3,502376	1,143	316,9512	0,28	84,781	0	1016,36	6,7	8,9	8,8	1	1	1	1	1	1	1	1	1	0	1	-4,298802	274,080573	315,661481	0
15.01.2021	18:14:24	0	0	3,389417	1,104	314,4276	0,278	84,78	0	1016,26	6,7	8,9	8,7	1	1	1	1	1	1	1	1	1	0	1	-15,574348	273,995783	303,990183	0
15.01.2021	18:14:25	0	0	2,485558	1,0965	305,3772	0,283	84,773	0	1016,3	6,7	8,9	8,8	1	1	1	1	1	1	1	1	1	0	1	-10,288936	274,08952	309,713128	0
15.01.2021	18:14:26	0	0	4,293236	1,07475	297,558	0,282	84,781	0	1016,36	6,7	8,9	8,8	1	1	1	1	1	1	1	1	1	0	1	-9,161381	273,99133	310,38238	0
15.01.2021	18:14:27	0	0	4,745155	1,0545	297,4572	0,28	84,767	0	1016,24	6,7	8,9	8,8	1	1	1	1	1	1	1	1	1	0	1	-10,993658	274,038875	308,771958	0
15.01.2021	18:14:28	0	0	2,824497	1,0485	300,1176	0,285	84,773	0	1016,38	6,7	8,9	8,8	1	1	1	1	1	1	1	1	1	0	1	-8,879493	274,164241	311,471663	0
15.01.2021	18:14:29	0	0	4,067276	0,96375	294,1668	0,282	84,778	0	1016,26	6,7	8,9	8,8	1	1	1	1	1	1	1	1	1	0	1	-9,161381	274,105934	310,917343	0
15.01.2021	18:14:30	0	0	4,632175	0,90525	297,5796	0,278	84,773	0	1016,3	6,7	8,9	8,8	1	1	1	1	1	1	1	1	1	0	1	-10,500352	274,161246	309,836808	0
15.01.2021	18:14:31	0	0	2,485558	0,912	302,1336	0,278	84,776	0	1016,34	6,7	8,9	8,8	1	1	1	1	1	1	1	1	1	0	1	-12,684989	274,031438	307,045917	0
15.01.2021	18:14:32	0	0	2,598553	0,9075	295,2	0,283	84,795	0	1016,32	6,7	8,9	8,7	1	1	1	1	1	1	1	1	1	0	1	-10,147992	274,185214	310,301204	0
15.01.2021	18:14:33	0	0	2,824497	0,849	287,7696	0,279	84,761	0	1016,1	6,7	8,9	8,8	1	1	1	1	1	1	1	1	1	0	1	-10,570825	274,079082	309,382498	0
15.01.2021	18:14:34	0	0	4,180256	0,7905	287,7516	0,282	84,773	0	1016,36	6,7	8,9	8,8	1	1	1	1	1	1	1	1	1	0	1	-10,923185	273,986879	308,599811	0
15.01.2021	18:14:35	0	0	3,954296	0,77625	284,8356	0,28	84,77	0	1016,34	6,7	8,9	8,8	1	1	1	1	1	1	1	1	1	0	1	-7,963354	274,126844	312,213051	0
15.01.2021	18:14:36	0	0	4,406216	0,80175	290,0052	0,283	84,788	0	1016,18	6,7	8,9	8,8	1	1	1	1	1	1	1	1	1	0	1	-8,245243	273,992814	311,305441	0
15.01.2021	18:14:37	0	0	4,293261	0,83175	296,496	0,288	84,772	0	1016,32	6,7	8,9	8,7	1	1	1	1	1	1	1	1	1	0	1	-8,80902	274,111906	311,297599	0
15.01.2021	18:14:38	0	0	4,519195	0,837	293,742	0,281	84,784	0	1016,36	6,7	8,9	8,8	1	1	1	1	1	1	1	1	1	0	1	-12,332629	273,99133	307,211132	0
15.01.2021	18:14:39	0	0	2,937477	0,81675	294,8184	0,287	84,78	0	1016,3	6,7	8,9	8,8	1	1	1	1	1	1	1	1	1	0	1	-13,319239	274,003205	306,279923	0
15.01.2021	18:14:40	0	0	4,180256	0,831	302,8212	0,284	84,773	0	1016,44	6,7	8,9	8,8	1	1	1	1	1	1	1	1	1	0	1	-11,909796	274,15077	308,378402	0
15.01.2021	18:14:41	0	0	4,858135	0,897	317,0052	0,284	84,784	0	1016,26	6,7	8,9	8,8	1	1	1	1	1	1	1	1	1	0	1	-11,205074	274,132823	308,999263	0
15.01.2021	18:14:42	0	0	2,711517	0,92025	312,8508	0,286	84,793	0	1016,24	6,7	8,9	8,8	1	1	1	1	1	1	1	1	1	0	1	-10,359408	274,165738	309,998746	0
15.01.2021	18:14:43	0	0	3,502398	0,948	315,2376	0,281	84,776	0	1016,22	6,7	9	8,7	1	1	1	1	1	1	1	1	1	0	1	-6,060606	274,098471	313,983263	0
15.01.2021	18:14:44	0	0	3,389397	0,9435	335,3148	0,284	84,785	0	1016,36	6,7	9	8,8	1	1	1	1	1	1	1	1	1	0	1	-15,64482	274,15077	304,643378	0
15.01.2021	18:14:45	0	0	4,971145	0,945	345,1248	0,285	84,784	0	1016,24	6,7	8,9	8,7	1	1	1	1	1	1	1	1	1	0	1	-9,584214	274,050779	310,236968	0
15.01.2021	18:14:46	0	0	3,163437	0,98025	336,4092	0,279	84,79	0	1016,34	6,7	8,9	8,8	1	1	1	1	1	1	1	1	1	0	1	-13,178295	274,159749	307,151869	0
15.01.2021	18:14:47	0	0	3,389397	0,95925	328,9536	0,281	84,785	0	1016,42	6,7	8,9	8,8	1	1	1	1	1	1	1	1	1	0	1	-11,980268	273,988363	307,549649	0
15.01.2021	18:14:48	0	0	3,615356	0,90075	332,4492	0,281	84,783	0	1016,22	6,7	8,9	8,8	1	1	1	1	1	1	1	1	1	0	1	-10,993658	274,032925	308,74419	0
15.01.2021	18:14:49	0	0	3,389397	0,8445	328,6152	0,279	84,782	0	1016,44	6,7	8,9	8,8	1	1	1	1	1	1	1	1	1	0	1	-11,134602	273,997267	308,436855	0
15.01.2021	18:14:50	0	0	3,841316	0,86175	315,9072	0,281	84,786	0	1016,36	6,7	8,9	8,8	1	1	1	1	1	1	1	1	1	0	1	-8,45666	274,116386	311,670889	0
15.01.2021	18:14:51	0	0	4,067276	0,89325	320,0796	0,283	84,785	0	1016,34	6,7	8,9	8,8	1	1	1	1	1	1	1	1	1	0	1	-9,44327	274,159749	310,886894	0
15.01.2021	18:14:52	0	0	3,728336	0,89175	328,9824	0,282	84,778	0	1016,18	6,7	8,9	8,8	1	1	1	1	1	1	1	1	1	0	1	-9,936575	274,107427	310,149122	0
15.01.2021	18:14:53	0	0	4,632175	0,909	330,4692	0,282	84,766	0	1016,46	6,7	8,9	8,8	1	1	1	1	1	1	1	1	1	0	1	-15,785765	274,153762	304,516419	0
15.01.2021	18:14:54	0	0	3,728336	0,93975	327,1464	0,28	84,79	0	1016,38	6,7	8,9	8,8	1	1	1	1	1	1	1	1	1	0	1	-10,007047	274,021032	309,675295	0
15.01.2021	18:14:55	0	0	3,502376	0,89025	322,3116	0,288	84,816	0	1016,3	6,7	8,9	8,8	1	1	1	1	1	1	1	1	1	0	1	-12,262156	274,009146	307,364722	0
15.01.2021	18:14:56	0	0	2,937495	0,8955	320,0076	0,282	84,777	0	1016,26	6,7	8,9	8,7	1	1	1	1	1	1	1	1	1	0	1	-10,500352	274,019546	309,175055	0
15.01.2021	18:14:57	0	0	2,146618	0,85875	317,7648	0,286	84,782	0	1016,18	6,7	8,9	8,8	1	1	1	1	1	1	1	1	1	0	1	-9,161381	273,988363	310,368536	0
15.01.2021	18:14:58	0	0	3,050457	0,86775	324,1044	0,286	84,778	0	1016,32	6,7	8,9	8,8	1	1	1	1	1	1	1	1	1	0	1	-10,570825	274,155259	309,738353	0
15.01.2021	18:14:59	0	0	3,954296	0,882	328,8708	0,284	84,784	0	1016,36	6,7	8,9	8,8	1	1	1	1	1	1	1	1	1	0	1	-9,795631	273,995783	309,768901	0
15.01.2021	18:15:00	0	0	2,937477	0,894	326,0952	0,282	84,791	0	1016,44	6,7	8,9	8,8	1	1	1	1	1	1	1	1	1	0	1	-11,627907	274,019546	308,0475	0
15.01.2021	18:15:01	0	0	3,502398	0,867	327,4632	0,28	84,786	0	1016,34	6,7	8,9	8,7	1	1	1	1	1	1	1	1	1	0	1	-12,684989	274,021032	306,997353	0
15.01.2021	18:15:02	0	0	4,180256	0,8535	331,9128	0,28	84,784	0	1016,28	6,7	8,9	8,8	1	1	1	1	1	1	1	1	1	0	1	-11,06413	274,159749	309,266034	0
15.01.2021	18:15:03	0	0	3,389397	0,89325	325,9836	0,279	84,78	0	1016,26	6,7	8,9	8,8	1	1	1	1	1	1	1	1	1	0	1	-13,953488	274,06567	305,937212	0
15.01.2021	18:15:04	0	0	2,598553	0,8955	328,9428	0,283	84,775	0	1016,32	6,7	9	8,7	1	1	1	1	1	1	1	1	1	0	1	-10,570825	274,147777	309,70339	0
15.01.2021	18:15:05	0	0	3,276417	0,88875	333,198	0,278	84,761	0	1016,36	6,7	8,9	8,8	1	1	1	1	1	1	1	1	1	0	1	-11,486963	274,122361	308,6685	0
15.01.2021	18:15:06	0	0	4,519195	0,891	325,5696	0,284	84,78	0	1016,46	6,7	8,9	8,8	1	1	1	1	1	1	1	1	1	0	1	-11,980268	274,165738	308,377886	0
15.01.2021	18:15:07	0	0	2,937477	0,852	322,2396	0,279	84,765	0	1016,3	6,7	9	8,8	1	1	1	1	1	1	1	1	1	0	1	-11,346018	274,044826	308,447376	0
15.01.2021	18:15:08	0	0	5,084095	0,8595	326,016	0,281	84,775	0	1016,26	7	8,9	8,8	1	1	1	1	1	1	1	1	1	0	1	-9,372798	274,132823	310,83154	0
15.01.2021	18:15:09	0	0	3,615356	0,876	331,1172	0,275	84,775	0	1016,36	6,7	8,9	8,8	1	1	1	1	1	1	1	1	1	0	1	-10,500352	274,032925	309,237495	0
15.01.2021	18:15:10	0	0	2,937477	0,822	329,3532	0,279	84,779	0	1016,36	6,7	8,9	8,8	1	1	1	1	1	1	1	1	1	0	1	-12,05074	273,982429	307,451497	0
15.01.2021	18:15:11	0	0	4,632175	0,78	328,9428	0,28	84,769	0	1016,32	6,8	8,9	8,8	1	1	1	1	1	1	1	1	1	0	1	-8,245243	274,044826	311,548151	0
15.01.2021	18:15:12	0	0	2,598553	0,78375	324,4608	0,289	84,786	0	1016,32	6,7	8,9	8,7	1	1	1	1	1	1	1	1	1	0	1	-13,248767	274,016574	306,412772	0
15.01.2021	18:15:13	0	0	2,937477	0,76275	319,5504	0,282	84,769	0	1016,34	6,7	8,9	8,8	1	1	1	1	1	1	1	1	1	0	1	-8,386187	274,120867	311,762296	0
15.01.2021	18:15:14	0	0	3,276417	0,7785	327,1356	0,28	84,782	0	1016,28	6,7	8,9	8,8	1	1	1	1	1	1	1	1	1	0	1	-9,44327	273,982429	310,058967	0
15.01.2021	18:15:15	0	0	4,180256	0,759	335,358	0,286	84,777	0	1016,32	6,7	8,9	8,8	1	1	1	1	1	1	1	1	1	0	1	-9,513742	274,076101	310,42566	0
15.01.2021	18:15:16	0	0	2,711517	0,79125	336,1608	0,285	84,788	0	1016,32	6,7	8,9	8,8	1	1	1	1	1	1	1	1	1	0	1	-10,641297	273,985395	308,874779	0
15.01.2021	18:15:17	0	0	4,745184	0,83175	338,0832	0,28	84,774	0	1016,38	6,7	8,9	8,7	1	1	1	1	1	1	1	1	1	0	1	-10,500352	274,098471	309,543516	0
15.01.2021	18:15:18	0	0	4,406242	0,8805	336,3984	0,277	84,766	0	1016,3	6,7	8,9	8,7	1	1	1	1	1	1	1	1	1	0	1	-10,500352	274,155259	309,808825	0
15.01.2021	18:15:19	0	0	3,95432	0,927	326,3904	0,276	84,778	0	1016,38	6,7	8,9	8,7	1	1	1	1	1	1	1	1	1	0	1	-6,483439	274,080573	313,476844	0
15.01.2021	18:15:20	0	0	4,180256	0,96	322,65	0,282	84,786	0	1016,32	6,7	8,9	8,8	1	1	1	1	1	1	1	1	1	0	1	-9,936575	274,153762	310,365609	0
15.01.2021	18:15:21	0	0	4,745184	0,957	326,0664	0,284	84,775	0	1016,32	6,7	8,9	8,7	1	1	1	1	1	1	1	1	1	0	1	-10,42988	274,056734	309,419102	0
15.01.2021	18:15:22	0	0	3,841339	0,9375	336,8232	0,273	84,78	0	1016,38	6,7	8,9	8,7	1	1	1	1	1	1	1	1	1	0	1	-10,077519	274,164241	310,273636	0
15.01.2021	18:15:23	0	0	2,824497	0,8955	341,352	0,285	84,777	0	1016,36	6,7	8,9	8,8	1	1	1	1	1	1	1	1	1	0	1	-10,007047	274,099963	310,043791	0
15.01.2021	18:15:24	0	0	2,937495	0,8595	329,724	0,281	84,771	0	1016,42	6,7	8,9	8,7	1	1	1	1	1	1	1	1	1	0	1	-11,909796	273,989846	307,627043	0
15.01.2021	18:15:25	0	0	3,050475	0,86175	309,2256	0,276	84,782	0	1016,42	6,7	8,9	8,7	1	1	1	1	1	1	1	1	1	0	1	-11,205074	274,028464	308,511954	0
15.01.2021	18:15:26	0	0	3,615356	0,86025	313,614	0,276	84,788	0	1016,36	6,7	8,9	8,8	1	1	1	1	1	1	1	1	1	0	1	-9,584214	273,983912	309,924942	0
15.01.2021	18:15:27	0	0	2,937477	0,87975	333,8676	0,276	84,765	0	1016,4	6,7	8,9	8,8	1	1	1	1	1	1	1	1	1	0	1	-9,44327	274,06567	310,447431	0
15.01.2021	18:15:28	0	0	5,197075	0,86025	339,8148	0,282	84,782	0	1016,38	6,7	8,9	8,8	1	1	1	1	1	1	1	1	1	0	1	-11,557435	274,155259	308,751743	0
15.01.2021	18:15:29	0	0	4,519195	0,81525	317,0736	0,277	84,776	0	1016,42	6,7	8,9	8,8	1	1	1	1	1	1	1	1	1	0	1	-7,329105	274,113399	312,78449	0
15.01.2021	18:15:30	0	0	2,824497	0,8055	306,5076	0,282	84,77	0	1016,32	6,7	8,9	8,8	1	1	1	1	1	1	1	1	1	0	1	-11,980268	274,144785	308,279966	0
15.01.2021	18:15:31	0	0	2,824497	0,79275	311,4072	0,273	84,766	0	1016,28	6,7	8,9	8,8	1	1	1	1	1	1	1	1	1	0	1	-10,923185	274,04185	308,856318	0
15.01.2021	18:15:32	0	0	4,293261	0,77925	308,4228	0,279	84,767	0	1016,24	6,7	8,9	8,7	1	1	1	1	1	1	1	1	1	0	1	-11,627907	274,134318	308,583415	0
15.01.2021	18:15:33	0	0	4,632175	0,79125	306,8856	0,28	84,76	0	1016,46	6,7	8,9	8,8	1	1	1	1	1	1	1	1	1	0	1	-11,486963	273,992814	308,063721	0
15.01.2021	18:15:34	0	0	3,276436	0,8025	316,5732	0,276	84,767	0	1016,44	6,7	8,9	8,7	1	1	1	1	1	1	1	1	1	0	1	-11,768851	274,164241	308,582304	0
15.01.2021	18:15:35	0	0	2,824514	0,8025	326,3796	0,276	84,773	0	1016,32	6,7	8,9	8,7	1	1	1	1	1	1	1	1	1	0	1	-11,698379	274,134318	308,512943	0
15.01.2021	18:15:36	0	0	2,937477	0,7905	328,554	0,278	84,755	0	1016,44	6,7	8,9	8,8	1	1	1	1	1	1	1	1	1	0	1	-9,231853	273,969084	310,208141	0
15.01.2021	18:15:37	0	0	4,858164	0,7605	328,2048	0,281	84,764	0	1016,4	6,7	8,9	8,7	1	1	1	1	1	1	1	1	1	0	1	-10,993658	274,052268	308,834474	0
15.01.2021	18:15:38	0	0	3,615356	0,69675	325,5192	0,281	84,761	0	1016,44	6,7	8,9	8,8	1	1	1	1	1	1	1	1	1	0	1	-9,584214	273,954267	309,786683	0
15.01.2021	18:15:39	0	0	4,632203	0,6405	319,6332	0,279	84,763	0	1016,32	6,7	8,9	8,7	1	1	1	1	1	1	1	1	1	0	1	-11,134602	274,025491	308,56855	0
15.01.2021	18:15:40	0	0	2,372592	0,63075	312,5196	0,279	84,77	0	1016,34	6,7	8,9	8,7	1	1	1	1	1	1	1	1	1	0	1	-10,077519	274,14329	310,175725	0
15.01.2021	18:15:41	0	0	4,180281	0,678	313,236	0,281	84,76	0	1016,28	6,7	8,9	8,7	1	1	1	1	1	1	1	1	1	0	1	-13,389711	274,088029	306,605388	0
15.01.2021	18:15:42	0	0	4,858135	0,6975	314,8416	0,282	84,746	0	1016,36	6,7	8,9	8,8	1	1	1	1	1	1	1	1	1	0	1	-9,090909	274,144785	311,169325	0
15.01.2021	18:15:43	0	0	3,163437	0,7155	313,6284	0,279	84,766	0	1016,44	6,7	8,9	8,8	1	1	1	1	1	1	1	1	1	0	1	-11,557435	274,155259	308,751743	0
15.01.2021	18:15:44	0	0	4,971145	0,7485	313,596	0,272	84,761	0	1016,42	6,7	8,9	8,7	1	1	1	1	1	1	1	1	1	0	1	-9,725159	274,098471	310,31871	0
15.01.2021	18:15:45	0	0	4,632203	0,77325	321,1524	0,281	84,752	0	1016,36	6,7	8,9	8,7	1	1	1	1	1	1	1	1	1	0	1	-10,288936	274,14329	309,964309	0
15.01.2021	18:15:46	0	0	2,711517	0,76725	321,1524	0,276	84,757	0	1016,34	6,7	8,9	8,8	1	1	1	1	1	1	1	1	1	0	1	-11,768851	274,052268	308,05928	0
15.01.2021	18:15:47	0	0	4,632175	0,8235	309,2004	0,274	84,746	0	1016,3	6,7	8,9	8,8	1	1	1	1	1	1	1	1	1	0	1	-7,399577	273,988363	312,13034	0
15.01.2021	18:15:48	0	0	4,858164	0,8715	311,3244	0,276	84,749	0	1016,3	6,7	8,9	8,7	1	1	1	1	1	1	1	1	1	0	1	-10,711769	274,056734	309,137213	0
15.01.2021	18:15:49	0	0	2,711534	0,93825	316,2204	0,28	84,759	0	1016,32	6,8	9	8,7	1	1	1	1	1	1	1	1	1	0	1	-8,949965	273,979462	310,538436	0
15.01.2021	18:15:50	0	0	3,276436	1,017	317,7576	0,278	84,755	0	1016,14	6,7	8,9	8,7	1	1	1	1	1	1	1	1	1	0	1	-7,610994	274,096979	312,425906	0
15.01.2021	18:15:51	0	0	2,824514	1,07175	318,3876	0,272	84,753	0	1016,52	6,7	8,9	8,7	1	1	1	1	1	1	1	1	1	0	1	-14,305849	273,989846	305,230989	0
15.01.2021	18:15:52	0	0	2,824497	1,14825	319,1616	0,275	84,755	0	1016,28	6,7	8,9	8,8	1	1	1	1	1	1	1	1	1	0	1	-13,460183	274,107427	306,625514	0
15.01.2021	18:15:53	0	0	4,067276	1,143	319,2444	0,276	84,757	0	1016,26	6,7	8,9	8,8	1	1	1	1	1	1	1	1	1	0	1	-12,614517	274,153762	307,687667	0
15.01.2021	18:15:54	0	0	4,180256	1,11825	322,5744	0,277	84,763	0	1016,34	6,7	8,9	8,8	1	1	1	1	1	1	1	1	1	0	1	-12,755462	274,034413	306,989327	0
15.01.2021	18:15:55	0	0	4,0673	1,1205	319,158	0,275	84,754	0	1016,28	6,7	8,9	8,7	1	1	1	1	1	1	1	1	1	0	1	-7,681466	274,129833	312,508904	0
15.01.2021	18:15:56	0	0	3,276436	1,128	325,1052	0,277	84,76	0	1016,32	6,7	8,9	8,7	1	1	1	1	1	1	1	1	1	0	1	-14,094433	273,972049	305,359389	0
15.01.2021	18:15:57	0	0	4,519223	1,1565	323,7228	0,275	84,761	0	1016,42	6,7	8,9	8,7	1	1	1	1	1	1	1	1	1	0	1	-11,346018	273,992814	308,204665	0
15.01.2021	18:15:58	0	0	2,598537	1,14075	325,5912	0,276	84,762	0	1016,28	6,7	8,9	8,8	1	1	1	1	1	1	1	1	1	0	1	-7,329105	274,009146	312,297774	0
15.01.2021	18:15:59	0	0	3,954296	1,095	323,2836	0,275	84,76	0	1016,4	6,7	8,9	8,8	1	1	1	1	1	1	1	1	1	0	1	-14,446794	273,988363	305,083123	0
15.01.2021	18:16:00	0	0	4,519195	1,11825	320,7816	0,278	84,736	0	1016,26	6,7	8,9	8,8	1	1	1	1	1	1	1	1	1	0	1	-7,117689	273,967602	312,315393	0
15.01.2021	18:16:01	0	0	3,954296	1,125	324,36	0,273	84,743	0	1016,36	6,7	8,9	8,8	1	1	1	1	1	1	1	1	1	0	1	-9,231853	274,055245	310,610178	0
15.01.2021	18:16:02	0	0	4,632203	1,08	324,3996	0,282	84,747	0	1016,5	6,7	8,9	8,7	1	1	1	1	1	1	1	1	1	0	1	-9,302326	274,155259	311,006852	0
15.01.2021	18:16:03	0	0	3,050475	1,07025	309,5856	0,273	84,757	0	1016,32	6,7	8,9	8,7	1	1	1	1	1	1	1	1	1	0	1	-11,134602	273,99133	308,409159	0
15.01.2021	18:16:04	0	0	4,067276	1,074	291,1716	0,28	84,755	0	1016,36	6,7	8,9	8,8	1	1	1	1	1	1	1	1	1	0	1	-14,587738	274,096979	305,449162	0
15.01.2021	18:16:05	0	0	4,180256	1,0755	310,3164	0,274	84,744	0	1016,18	6,7	8,9	8,8	1	1	1	1	1	1	1	1	1	0	1	-11,980268	273,982429	307,521969	0
15.01.2021	18:16:06	0	0	2,937477	1,0485	332,4384	0,274	84,737	0	1016,44	6,7	8,9	8,8	1	1	1	1	1	1	1	1	1	0	1	-9,44327	274,062691	310,433522	0
15.01.2021	18:16:07	0	0	2,937477	1,023	327,42	0,274	84,752	0	1016,36	6,7	8,9	8,8	1	1	1	1	1	1	1	1	1	0	1	-9,372798	273,972049	310,081024	0
15.01.2021	18:16:08	0	0	4,971115	1,0185	308,0376	0,273	84,754	0	1016,38	6,7	8,9	8,8	1	1	1	1	1	1	1	1	1	0	1	-10,500352	274,099963	309,550486	0
15.01.2021	18:16:09	0	0	3,728336	1,0245	304,2684	0,276	84,745	0	1016,42	6,7	8,9	8,8	1	1	1	1	1	1	1	1	1	0	1	-10,782241	274,107427	309,303456	0
15.01.2021	18:16:10	0	0	2,711534	1,01475	303,1704	0,276	84,759	0	1016,42	6,7	8,9	8,7	1	1	1	1	1	1	1	1	1	0	1	-10,852713	274,159749	309,47745	0
15.01.2021	18:16:11	0	0	5,084125	1,0245	291,168	0,274	84,74	0	1016,32	6,7	8,9	8,7	1	1	1	1	1	1	1	1	1	0	1	-13,883016	274,085046	306,098155	0
15.01.2021	18:16:12	0	0	2,711534	1,0185	285,552	0,279	84,753	0	1016,48	6,7	8,9	8,7	1	1	1	1	1	1	1	1	1	0	1	-11,486963	274,137308	308,738331	0
15.01.2021	18:16:13	0	0	3,728359	1,05825	283,5504	0,276	84,754	0	1016,38	6,8	8,9	8,7	1	1	1	1	1	1	1	1	1	0	1	-10,852713	274,06865	309,051899	0
15.01.2021	18:16:14	0	0	2,937477	1,05	278,874	0,27	84,741	0	1016,28	6,7	8,9	8,8	1	1	1	1	1	1	1	1	1	0	1	-11,768851	274,128339	308,414536	0
15.01.2021	18:16:15	0	0	2,824497	1,06425	286,6824	0,278	84,752	0	1016,38	6,7	8,9	8,8	1	1	1	1	1	1	1	1	1	0	1	-11,06413	274,013602	308,583543	0
15.01.2021	18:16:16	0	0	3,276436	1,0755	288,4068	0,271	84,751	0	1016,14	6,7	8,9	8,7	1	1	1	1	1	1	1	1	1	0	1	-12,684989	274,134318	307,526333	0
15.01.2021	18:16:17	0	0	3,389417	1,10475	286,614	0,279	84,748	0	1016,76	6,7	8,9	8,7	1	1	1	1	1	1	1	1	1	0	1	-10,359408	274,06567	309,531292	0
15.01.2021	18:16:18	0	0	4,406216	1,182	283,5288	0,279	84,753	0	1016,4	6,7	8,9	8,8	1	1	1	1	1	1	1	1	1	0	1	-12,473573	273,975014	306,994078	0
15.01.2021	18:16:19	0	0	2,824497	1,28625	301,5468	0,277	84,73	0	1016,46	6,7	8,9	8,8	1	1	1	1	1	1	1	1	1	0	1	-11,134602	274,149273	309,146604	0
15.01.2021	18:16:20	0	0	2,711517	1,23225	304,5852	0,268	84,725	0	1016,34	6,7	8,9	8,8	1	1	1	1	1	1	1	1	1	0	1	-11,557435	274,061202	308,312403	0
15.01.2021	18:16:21	0	0	2,372578	1,137	325,1232	0,273	84,752	0	1016,22	6,7	8,9	8,8	1	1	1	1	1	1	1	1	1	0	1	-10,359408	274,003205	309,239754	0
15.01.2021	18:16:22	0	0	2,485572	1,00575	343,1916	0,278	84,751	0	1016,4	6,7	8,9	8,7	1	1	1	1	1	1	1	1	1	0	1	-6,412967	273,986879	313,110029	0
15.01.2021	18:16:23	0	0	4,745184	0,909	327,8988	0,273	84,75	0	1016,38	6,7	8,9	8,7	1	1	1	1	1	1	1	1	1	0	1	-10,218464	274,131328	309,97889	0
15.01.2021	18:16:24	0	0	4,745155	0,909	305,7408	0,273	84,75	0	1016,18	6,7	8,9	8,8	1	1	1	1	1	1	1	1	1	0	1	-9,725159	273,986879	309,797837	0
15.01.2021	18:16:25	0	0	4,971115	0,94125	312,1416	0,267	84,755	0	1016,36	6,7	8,9	8,8	1	1	1	1	1	1	1	1	1	0	1	-9,372798	274,135813	310,84551	0
15.01.2021	18:16:26	0	0	2,372578	0,97275	332,46	0,274	84,738	0	1016,16	6,7	8,9	8,8	1	1	1	1	1	1	1	1	1	0	1	-10,007047	274,104441	310,064704	0
15.01.2021	18:16:27	0	0	4,293261	1,05	326,7936	0,279	84,753	0	1016,12	6,7	8,9	8,7	1	1	1	1	1	1	1	1	1	0	1	-7,610994	273,989846	311,925845	0
15.01.2021	18:16:28	0	0	4,180256	1,095	332,4168	0,271	84,745	0	1016,24	6,7	8,9	8,8	1	1	1	1	1	1	1	1	1	0	1	-10,641297	274,016574	309,020242	0
15.01.2021	18:16:29	0	0	3,502398	1,1745	326,4012	0,275	84,759	0	1016,46	6,7	8,9	8,7	1	1	1	1	1	1	1	1	1	0	1	-9,161381	274,149273	311,119825	0
15.01.2021	18:16:30	0	0	4,858135	1,16775	330,0984	0,276	84,734	0	1016,38	6,7	9	8,8	1	1	1	1	1	1	1	1	1	0	1	-11,486963	273,95723	307,897749	0
15.01.2021	18:16:31	0	0	3,389417	1,10025	332,082	0,279	84,749	0	1016,34	6,7	8,9	8,7	1	1	1	1	1	1	1	1	1	0	1	-11,486963	274,022518	308,202315	0
15.01.2021	18:16:32	0	0	3,841339	1,08975	326,3508	0,276	84,761	0	1016,4	6,8	8,9	8,7	1	1	1	1	1	1	1	1	1	0	1	-13,319239	274,149273	306,961967	0
15.01.2021	18:16:33	0	0	3,95432	1,0365	327,7692	0,273	84,757	0	1016,34	6,7	8,9	8,7	1	1	1	1	1	1	1	1	1	0	1	-8,45666	274,026978	311,25343	0
15.01.2021	18:16:34	0	0	2,937495	0,95625	325,4904	0,272	84,752	0	1016,38	6,8	8,9	8,7	1	1	1	1	1	1	1	1	1	0	1	-9,654686	273,970566	309,792221	0
15.01.2021	18:16:35	0	0	4,067276	0,93675	326,376	0,273	84,761	0	1016,26	6,7	8,9	8,8	1	1	1	1	1	1	1	1	1	0	1	-10,359408	274,062691	309,517384	0
15.01.2021	18:16:36	0	0	4,745155	0,8805	329,706	0,273	84,762	0	1016,34	6,7	8,9	8,8	1	1	1	1	1	1	1	1	1	0	1	-13,460183	273,976497	306,014384	0
15.01.2021	18:16:37	0	0	3,615356	0,822	330,0336	0,271	84,756	0	1016,4	6,8	8,9	8,8	1	1	1	1	1	1	1	1	1	0	1	-14,023961	274,049291	305,790274	0
15.01.2021	18:16:38	0	0	4,519195	0,78225	328,5756	0,276	84,767	0	1016,44	6,7	8,9	8,8	1	1	1	1	1	1	1	1	1	0	1	-7,540521	273,975014	311,92713	0
15.01.2021	18:16:39	0	0	4,971145	0,72525	314,5032	0,275	84,747	0	1016,26	6,7	8,9	8,7	1	1	1	1	1	1	1	1	1	0	1	-9,090909	274,0359	310,660821	0
15.01.2021	18:16:40	0	0	4,067276	0,7305	311,8176	0,275	84,753	0	1016,36	6,8	9	8,8	1	1	1	1	1	1	1	1	1	0	1	-13,812544	274,147777	306,461671	0
15.01.2021	18:16:41	0	0	5,084095	0,7365	322,2396	0,271	84,753	0	1016,38	6,8	8,9	8,8	1	1	1	1	1	1	1	1	1	0	1	-13,248767	274,096979	306,788133	0
15.01.2021	18:16:42	0	0	2,711534	0,81	324,1008	0,273	84,752	0	1016,42	6,7	8,9	8,7	1	1	1	1	1	1	1	1	1	0	1	-11,346018	274,138803	308,886262	0
15.01.2021	18:16:43	0	0	2,372578	0,82575	318,8448	0,266	84,744	0	1016,46	6,8	8,9	8,8	1	1	1	1	1	1	1	1	1	0	1	-7,258633	273,975014	312,209018	0
15.01.2021	18:16:44	0	0	4,406242	0,828	308,4948	0,263	84,755	0	1016,14	6,8	8,9	8,7	1	1	1	1	1	1	1	1	1	0	1	-15,081043	274,135813	305,137265	0
15.01.2021	18:16:45	0	0	4,0673	0,82725	306,0468	0,273	84,749	0	1016,22	6,7	8,9	8,7	1	1	1	1	1	1	1	1	1	0	1	-14,587738	274,044826	305,205656	0
15.01.2021	18:16:46	0	0	4,406216	0,8205	306,1548	0,267	84,759	0	1016,36	6,7	8,9	8,8	1	1	1	1	1	1	1	1	1	0	1	-10,007047	273,967602	309,426034	0
15.01.2021	18:16:47	0	0	4,519195	0,831	317,7972	0,271	84,748	0	1016,42	6,7	8,9	8,8	1	1	1	1	1	1	1	1	1	0	1	-11,980268	274,104441	308,091484	0
15.01.2021	18:16:48	0	0	2,598553	0,8145	327,1788	0,272	84,763	0	1016,4	6,8	8,9	8,7	1	1	1	1	1	1	1	1	1	0	1	-10,007047	274,062691	309,869744	0
15.01.2021	18:16:49	0	0	4,745155	0,83925	319,1472	0,276	84,769	0	1016,42	6,8	8,9	8,8	1	1	1	1	1	1	1	1	1	0	1	-9,231853	274,146281	311,035371	0
15.01.2021	18:16:50	0	0	2,598553	0,846	309,5496	0,272	84,766	0	1016,4	6,7	8,9	8,7	1	1	1	1	1	1	1	1	1	0	1	-13,107822	274,122361	307,04764	0
15.01.2021	18:16:51	0	0	3,615378	0,84675	313,5816	0,27	84,767	0	1016,36	6,8	8,9	8,7	1	1	1	1	1	1	1	1	1	0	1	-9,725159	274,092503	310,290838	0
15.01.2021	18:16:52	0	0	4,632175	0,82575	316,6128	0,272	84,772	0	1016,18	6,8	8,9	8,8	1	1	1	1	1	1	1	1	1	0	1	-10,923185	274,144785	309,337049	0
15.01.2021	18:16:53	0	0	4,858164	0,78975	315,4248	0,274	84,763	0	1016,34	6,8	8,9	8,7	1	1	1	1	1	1	1	1	1	0	1	-10,42988	274,052268	309,398251	0
15.01.2021	18:16:54	0	0	5,197106	0,837	308,142	0,272	84,767	0	1016,6	6,7	8,9	8,7	1	1	1	1	1	1	1	1	1	0	1	-11,909796	274,158252	308,413372	0
15.01.2021	18:16:55	0	0	4,0673	0,933	297,8712	0,269	84,759	0	1016,24	6,7	8,9	8,7	1	1	1	1	1	1	1	1	1	0	1	-11,06413	274,083555	308,910078	0
15.01.2021	18:16:56	0	0	3,389417	1,02075	300,8448	0,273	84,774	0	1016,38	6,8	8,9	8,7	1	1	1	1	1	1	1	1	1	0	1	-10,993658	274,137308	309,231636	0
15.01.2021	18:16:57	0	0	2,598553	1,0725	310,2084	0,268	84,752	0	1016,38	6,7	8,9	8,7	1	1	1	1	1	1	1	1	1	0	1	-11,346018	274,029951	308,377949	0
15.01.2021	18:16:58	0	0	4,971115	1,05825	314,1864	0,274	84,753	0	1016,46	6,7	8,9	8,8	1	1	1	1	1	1	1	1	1	0	1	-7,470049	274,116386	312,657499	0
15.01.2021	18:16:59	0	0	3,615356	1,0815	308,0628	0,27	84,755	0	1016,34	6,7	8,9	8,8	1	1	1	1	1	1	1	1	1	0	1	-6,976744	274,110413	313,122901	0
15.01.2021	18:17:00	0	0	4,180256	1,167	312,8328	0,267	84,757	0	1016,38	6,8	8,9	8,8	1	1	1	1	1	1	1	1	1	0	1	-15,362932	274,144785	304,897302	0
15.01.2021	18:17:01	0	0	4,180256	1,167	312,8328	0,267	84,757	0	1016,38	6,8	8,9	8,8	1	1	1	1	1	1	1	1	1	0	1	-11,557435	274,113399	308,55616	0
15.01.2021	18:17:02	0	0	4,858164	1,27125	312,4764	0,265	84,777	0	1016,36	6,8	9	8,7	1	1	1	1	1	1	1	1	1	0	1	-14,094433	273,985395	305,421643	0
15.01.2021	18:17:03	0	0	2,711517	1,389	312,8112	0,277	84,763	0	1016,2	6,7	9	8,8	1	1	1	1	1	1	1	1	1	0	1	-10,077519	273,961674	309,327918	0
15.01.2021	18:17:04	0	0	3,163456	1,56675	322,5996	0,273	84,776	0	1016,44	6,8	8,9	8,7	1	1	1	1	1	1	1	1	1	0	1	-13,319239	274,049291	306,494996	0
15.01.2021	18:17:05	0	0	4,745184	1,68525	317,358	0,271	84,754	0	1016,4	6,7	8,9	8,7	1	1	1	1	1	1	1	1	1	0	1	-11,205074	273,963156	308,207274	0
15.01.2021	18:17:06	0	0	3,050475	1,72275	320,13	0,272	84,762	0	1016,32	6,7	8,9	8,7	1	1	1	1	1	1	1	1	1	0	1	-11,275546	273,964638	308,143712	0
15.01.2021	18:17:07	0	0	4,406216	1,68675	318,5712	0,272	84,769	0	1016,38	6,7	8,9	8,8	1	1	1	1	1	1	1	1	1	0	1	-10,782241	274,074611	309,150201	0
15.01.2021	18:17:08	0	0	2,485558	1,64625	315,9	0,27	84,769	0	1016,26	6,8	8,9	8,8	1	1	1	1	1	1	1	1	1	0	1	-11,909796	274,132823	308,294542	0
15.01.2021	18:17:09	0	0	4,745184	1,6605	307,6272	0,274	84,767	0	1016,38	6,7	8,9	8,7	1	1	1	1	1	1	1	1	1	0	1	-10,852713	274,08952	309,149351	0
15.01.2021	18:17:10	0	0	4,858135	1,677	315,198	0,277	84,768	0	1016,36	6,8	9	8,8	1	1	1	1	1	1	1	1	1	0	1	-12,262156	274,129833	307,928213	0
15.01.2021	18:17:11	0	0	4,519223	1,81875	314,1144	0,273	84,786	0	1016,4	6,7	8,9	8,7	1	1	1	1	1	1	1	1	1	0	1	-7,470049	274,128339	312,713338	0
15.01.2021	18:17:12	0	0	2,937495	1,9815	315,252	0,27	84,762	0	1016,32	6,7	8,9	8,7	1	1	1	1	1	1	1	1	1	0	1	-10,147992	274,006175	309,465028	0
15.01.2021	18:17:13	0	0	4,745184	2,0265	310,6008	0,276	84,779	0	1016,42	6,7	8,9	8,7	1	1	1	1	1	1	1	1	1	0	1	-10,711769	274,037387	309,046904	0
15.01.2021	18:17:14	0	0	4,745184	2,01075	307,6524	0,266	84,769	0	1016,36	6,8	8,9	8,7	1	1	1	1	1	1	1	1	1	0	1	-9,020437	273,963156	310,391911	0
15.01.2021	18:17:15	0	0	3,615378	1,9005	315,9288	0,269	84,781	0	1016,4	6,7	8,9	8,7	1	1	1	1	1	1	1	1	1	0	1	-11,41649	274,101456	308,641318	0
15.01.2021	18:17:16	0	0	3,389417	1,815	318,096	0,27	84,756	0	1016,36	6,8	8,9	8,7	1	1	1	1	1	1	1	1	1	0	1	-13,248767	274,01806	306,419706	0
15.01.2021	18:17:17	0	0	4,180281	1,722	319,2156	0,271	84,769	0	1016,38	6,8	8,9	8,7	1	1	1	1	1	1	1	1	1	0	1	-10,288936	274,153762	310,013248	0
15.01.2021	18:17:18	0	0	3,050457	1,72725	319,5864	0,274	84,76	0	1016,22	6,7	9	8,8	1	1	1	1	1	1	1	1	1	0	1	-12,896406	274,129833	307,293964	0
15.01.2021	18:17:19	0	0	2,598553	1,6995	324,1044	0,273	84,749	0	1016,4	6,7	8,9	8,7	1	1	1	1	1	1	1	1	1	0	1	-10,147992	273,986879	309,375004	0
15.01.2021	18:17:20	0	0	4,858164	1,69125	315,234	0,272	84,775	0	1016,5	6,8	8,9	8,7	1	1	1	1	1	1	1	1	1	0	1	-17,618041	274,135813	302,600267	0
15.01.2021	18:17:21	0	0	3,389397	1,64925	321,4368	0,274	84,774	0	1016,38	6,7	9	8,8	1	1	1	1	1	1	1	1	1	0	1	-10,500352	274,06567	309,390348	0
15.01.2021	18:17:22	0	0	4,971145	1,6305	319,9968	0,29	84,778	0	1016,58	6,7	8,9	8,7	1	1	1	1	1	1	1	1	1	0	1	-10,359408	274,123856	309,803035	0
15.01.2021	18:17:23	0	0	3,050457	1,57425	318,4704	0,273	84,756	0	1016,3	6,8	8,9	8,8	1	1	1	1	1	1	1	1	1	0	1	-12,262156	274,146281	308,005067	0
15.01.2021	18:17:24	0	0	4,745155	1,56675	313,2648	0,269	84,774	0	1016,34	6,7	8,9	8,8	1	1	1	1	1	1	1	1	1	0	1	-12,332629	274,032925	307,405219	0
15.01.2021	18:17:25	0	0	2,937495	1,6155	313,56	0,276	84,754	0	1016,36	6,8	8,9	8,7	1	1	1	1	1	1	1	1	1	0	1	-13,883016	274,131328	306,314337	0
15.01.2021	18:17:26	0	0	2,937495	1,62075	320,4072	0,274	84,77	0	1016,4	6,8	9	8,7	1	1	1	1	1	1	1	1	1	0	1	-13,389711	274,037387	306,368961	0
15.01.2021	18:17:27	0	0	2,485572	1,62675	322,1496	0,273	84,771	0	1016,42	6,7	8,9	8,7	1	1	1	1	1	1	1	1	1	0	1	-14,305849	273,997267	305,265607	0
15.01.2021	18:17:28	0	0	4,745155	1,515	314,874	0,273	84,765	0	1016,44	6,7	9	8,8	1	1	1	1	1	1	1	1	1	0	1	-8,949965	274,099963	311,100874	0
15.01.2021	18:17:29	0	0	2,372592	1,36725	311,7312	0,277	84,771	0	1016,36	6,8	9	8,7	1	1	1	1	1	1	1	1	1	0	1	-9,090909	273,972049	310,362912	0
15.01.2021	18:17:30	0	0	4,180281	1,30275	311,0544	0,268	84,774	0	1016,32	6,8	9	8,7	1	1	1	1	1	1	1	1	1	0	1	-13,812544	274,134318	306,398778	0
15.01.2021	18:17:31	0	0	3,728359	1,2585	314,3232	0,27	84,776	0	1016,34	6,8	8,9	8,7	1	1	1	1	1	1	1	1	1	0	1	-9,866103	274,146281	310,401121	0
15.01.2021	18:17:32	0	0	4,406242	1,21125	333,81	0,27	84,763	0	1016,28	6,7	8,9	8,7	1	1	1	1	1	1	1	1	1	0	1	-10,711769	274,101456	309,34604	0
15.01.2021	18:17:33	0	0	2,711534	1,332	314,4312	0,272	84,77	0	1016,5	6,7	9	8,7	1	1	1	1	1	1	1	1	1	0	1	-10,782241	274,093995	309,240723	0
15.01.2021	18:17:34	0	0	5,084125	1,455	310,2192	0,269	84,77	0	1016,34	6,7	8,9	8,7	1	1	1	1	1	1	1	1	1	0	1	-14,587738	274,138803	305,644543	0
15.01.2021	18:17:35	0	0	2,824497	1,51575	318,798	0,271	84,762	0	1016,44	6,7	8,9	8,8	1	1	1	1	1	1	1	1	1	0	1	-7,329105	274,086537	312,65903	0
15.01.2021	18:17:36	0	0	3,841339	1,53225	314,0388	0,268	84,758	0	1016,28	6,7	8,9	8,7	1	1	1	1	1	1	1	1	1	0	1	-11,486963	274,149273	308,794243	0
15.01.2021	18:17:37	0	0	2,937495	1,551	318,5208	0,274	84,777	0	1016,42	6,8	8,9	8,7	1	1	1	1	1	1	1	1	1	0	1	-9,936575	274,047803	309,870712	0
15.01.2021	18:17:38	0	0	3,502398	1,59675	309,996	0,275	84,777	0	1016,38	6,8	8,9	8,7	1	1	1	1	1	1	1	1	1	0	1	-9,795631	273,977979	309,685853	0
15.01.2021	18:17:39	0	0	5,310087	1,50075	320,7348	0,27	84,763	0	1016,4	6,7	9	8,7	1	1	1	1	1	1	1	1	1	0	1	-10,007047	274,104441	310,064704	0
15.01.2021	18:17:40	0	0	2,372578	1,473	336,0384	0,273	84,77	0	1016,34	6,8	9	8,8	1	1	1	1	1	1	1	1	1	0	1	-12,755462	273,99133	306,788299	0
15.01.2021	18:17:41	0	0	3,502398	1,455	324,414	0,275	84,776	0	1016,38	6,7	8,9	8,7	1	1	1	1	1	1	1	1	1	0	1	-8,597604	274,026978	311,112486	0
15.01.2021	18:17:42	0	0	2,824514	1,4985	320,4	0,277	84,776	0	1016,46	6,7	8,9	8,7	1	1	1	1	1	1	1	1	1	0	1	-13,03735	273,976497	306,437217	0
15.01.2021	18:17:43	0	0	4,745184	1,5525	312,8508	0,269	84,774	0	1016,52	6,8	8,9	8,7	1	1	1	1	1	1	1	1	1	0	1	-18,25229	274,026978	301,457799	0
15.01.2021	18:17:44	0	0	4,858135	1,539	300,1716	0,278	84,771	0	1016,48	6,7	8,9	8,8	1	1	1	1	1	1	1	1	1	0	1	-9,725159	274,131328	310,472195	0
15.01.2021	18:17:45	0	0	4,858164	1,49175	311,7816	0,274	84,785	0	1016,5	6,8	9	8,7	1	1	1	1	1	1	1	1	1	0	1	-13,248767	274,096979	306,788133	0
15.01.2021	18:17:46	0	0	2,824514	1,50225	314,8272	0,273	84,79	0	1016,32	6,8	9	8,7	1	1	1	1	1	1	1	1	1	0	1	-10,570825	273,979462	308,917576	0
15.01.2021	18:17:47	0	0	2,598537	1,512	328,1688	0,269	84,782	0	1016,36	6,8	8,9	8,8	1	1	1	1	1	1	1	1	1	0	1	-10,359408	274,095487	309,670523	0
15.01.2021	18:17:48	0	0	3,050475	1,4895	315,8424	0,27	84,781	0	1016,48	6,7	9	8,7	1	1	1	1	1	1	1	1	1	0	1	-10,923185	274,108919	309,169485	0
15.01.2021	18:17:49	0	0	4,406216	1,50225	309,5784	0,275	84,774	0	1016,3	6,7	8,9	8,8	1	1	1	1	1	1	1	1	1	0	1	-14,094433	274,156756	306,22174	0
15.01.2021	18:17:50	0	0	3,050475	1,46775	312,1812	0,263	84,78	0	1016,42	6,8	8,9	8,7	1	1	1	1	1	1	1	1	1	0	1	-8,386187	274,120867	311,762296	0
15.01.2021	18:17:51	0	0	4,519223	1,428	325,1664	0,275	84,782	0	1016,46	6,7	8,9	8,7	1	1	1	1	1	1	1	1	1	0	1	-9,090909	274,141794	311,155347	0
15.01.2021	18:17:52	0	0	3,276436	1,404	328,5612	0,278	84,769	0	1016,44	6,7	8,9	8,7	1	1	1	1	1	1	1	1	1	0	1	-10,218464	274,146281	310,04876	0
15.01.2021	18:17:53	0	0	3,050475	1,38975	313,2576	0,269	84,779	0	1016,4	6,8	8,9	8,7	1	1	1	1	1	1	1	1	1	0	1	-5,919662	274,028464	313,797366	0
15.01.2021	18:17:54	0	0	3,95432	1,35525	316,278	0,275	84,756	0	1016,22	6,7	8,9	8,7	1	1	1	1	1	1	1	1	1	0	1	-15,151515	273,976497	304,323052	0
15.01.2021	18:17:55	0	0	4,406242	1,33275	328,2948	0,276	84,783	0	1016,44	6,8	9	8,7	1	1	1	1	1	1	1	1	1	0	1	-9,513742	274,038875	310,251873	0
15.01.2021	18:17:56	0	0	4,519223	1,3215	313,3116	0,278	84,798	0	1016,34	6,8	8,9	8,7	1	1	1	1	1	1	1	1	1	0	1	-12,121212	274,156756	308,19496	0
15.01.2021	18:17:57	0	0	4,971145	1,24875	316,2132	0,273	84,787	0	1016,2	6,8	9	8,7	1	1	1	1	1	1	1	1	1	0	1	-17,829457	274,001721	301,762777	0
15.01.2021	18:17:58	0	0	3,276436	1,22175	319,9824	0,276	84,795	0	1016,4	6,7	8,9	8,7	1	1	1	1	1	1	1	1	1	0	1	-12,614517	274,104441	307,457234	0
15.01.2021	18:17:59	0	0	3,841339	1,19775	314,5572	0,277	84,797	0	1016,28	6,8	8,9	8,7	1	1	1	1	1	1	1	1	1	0	1	-11,205074	274,159749	309,12509	0
15.01.2021	18:18:00	0	0	2,711534	1,203	322,9452	0,276	84,799	0	1016,38	6,8	9	8,7	1	1	1	1	1	1	1	1	1	0	1	-6,8358	274,092503	313,180197	0
15.01.2021	18:18:01	0	0	3,276436	1,24425	327,7872	0,273	84,796	0	1016,4	6,8	8,9	8,7	1	1	1	1	1	1	1	1	1	0	1	-12,262156	274,144785	307,998077	0
15.01.2021	18:18:02	0	0	3,050475	1,33275	332,37	0,274	84,786	0	1016,28	6,8	8,9	8,7	1	1	1	1	1	1	1	1	1	0	1	-8,104299	274,086537	311,883836	0
15.01.2021	18:18:03	0	0	4,406242	1,35075	317,6496	0,278	84,789	0	1016,48	6,7	8,9	8,7	1	1	1	1	1	1	1	1	1	0	1	-10,570825	274,159749	309,759339	0
15.01.2021	18:18:04	0	0	2,824514	1,36725	312,0984	0,274	84,79	0	1016,2	6,7	8,9	8,7	1	1	1	1	1	1	1	1	1	0	1	-10,923185	274,050779	308,897997	0
15.01.2021	18:18:05	0	0	2,711534	1,374	310,6944	0,271	84,789	0	1016,5	6,8	8,9	8,7	1	1	1	1	1	1	1	1	1	0	1	-14,587738	273,988363	304,942179	0
15.01.2021	18:18:06	0	0	2,146631	1,32825	302,7168	0,273	84,797	0	1016,48	6,8	8,9	8,7	1	1	1	1	1	1	1	1	1	0	1	-7,540521	274,040363	312,232038	0
15.01.2021	18:18:07	0	0	2,824514	1,4025	289,6884	0,274	84,796	0	1016,36	6,7	8,9	8,7	1	1	1	1	1	1	1	1	1	0	1	-9,302326	273,979462	310,186075	0
15.01.2021	18:18:08	0	0	2,824514	1,33425	290,4264	0,272	84,799	0	1016,44	6,7	9	8,7	1	1	1	1	1	1	1	1	1	0	1	-10,993658	274,113399	309,119938	0
15.01.2021	18:18:09	0	0	4,971145	1,251	296,4384	0,278	84,788	0	1016,42	6,7	8,9	8,7	1	1	1	1	1	1	1	1	1	0	1	-13,953488	274,132823	306,250849	0
15.01.2021	18:18:10	0	0	3,163456	1,161	309,1176	0,27	84,792	0	1016,5	6,8	9	8,7	1	1	1	1	1	1	1	1	1	0	1	-11,06413	274,01806	308,604343	0
15.01.2021	18:18:11	0	0	2,824497	1,08	309,5424	0,273	84,786	0	1016,4	6,8	9	8,8	1	1	1	1	1	1	1	1	1	0	1	-9,936575	274,012117	309,704166	0
15.01.2021	18:18:12	0	0	3,502398	1,0365	305,3628	0,27	84,801	0	1016,38	6,7	8,9	8,7	1	1	1	1	1	1	1	1	1	0	1	-10,359408	274,14329	309,893837	0
15.01.2021	18:18:13	0	0	4,406242	1,05675	303,8688	0,271	84,795	0	1016,38	6,8	9	8,7	1	1	1	1	1	1	1	1	1	0	1	-8,738548	273,983912	310,770608	0
15.01.2021	18:18:14	0	0	3,276417	1,0965	304,848	0,273	84,797	0	1016,28	6,8	8,9	8,8	1	1	1	1	1	1	1	1	1	0	1	-9,372798	274,135813	310,84551	0
15.01.2021	18:18:15	0	0	4,519223	1,1355	304,9956	0,274	84,785	0	1016,46	6,8	9	8,7	1	1	1	1	1	1	1	1	1	0	1	-10,923185	274,00469	308,682905	0
15.01.2021	18:18:16	0	0	2,598553	1,29525	310,3452	0,273	84,798	0	1016,38	6,7	8,9	8,7	1	1	1	1	1	1	1	1	1	0	1	-7,610994	273,998751	311,967388	0
15.01.2021	18:18:17	0	0	3,276436	1,416	312,8868	0,273	84,799	0	1016,34	6,8	8,9	8,7	1	1	1	1	1	1	1	1	1	0	1	-11,980268	273,989846	307,556571	0
15.01.2021	18:18:18	0	0	4,0673	1,48575	303,9624	0,269	84,781	0	1016,26	6,8	8,9	8,7	1	1	1	1	1	1	1	1	1	0	1	-10,288936	274,009146	309,337943	0
15.01.2021	18:18:19	0	0	4,519223	1,50225	309,528	0,273	84,807	0	1016,7	6,7	9	8,7	1	1	1	1	1	1	1	1	1	0	1	-12,05074	274,028464	307,666288	0
15.01.2021	18:18:20	0	0	2,598553	1,5615	300,8664	0,277	84,787	0	1016,34	6,8	8,9	8,7	1	1	1	1	1	1	1	1	1	0	1	-14,305849	273,99133	305,237912	0
15.01.2021	18:18:21	0	0	2,937495	1,67475	319,5648	0,275	84,794	0	1016,4	6,8	8,9	8,7	1	1	1	1	1	1	1	1	1	0	1	-7,329105	274,07014	312,582463	0
15.01.2021	18:18:22	0	0	2,711534	1,76475	328,194	0,276	84,774	0	1016,42	6,8	8,9	8,7	1	1	1	1	1	1	1	1	1	0	1	-11,627907	274,137308	308,597387	0
15.01.2021	18:18:23	0	0	4,406242	1,73025	311,4216	0,27	84,769	0	1016,32	6,7	8,9	8,7	1	1	1	1	1	1	1	1	1	0	1	-7,82241	273,983912	311,686746	0
15.01.2021	18:18:24	0	0	3,615378	1,68525	326,3796	0,278	84,79	0	1016,4	6,8	9	8,7	1	1	1	1	1	1	1	1	1	0	1	-12,544045	274,037387	307,214627	0
15.01.2021	18:18:25	0	0	2,598553	1,6545	324,3888	0,269	84,796	0	1016,48	6,8	9	8,7	1	1	1	1	1	1	1	1	1	0	1	-11,627907	274,159749	308,702257	0
15.01.2021	18:18:26	0	0	4,632203	1,61625	324,2808	0,268	84,756	0	1016,16	6,8	8,9	8,7	1	1	1	1	1	1	1	1	1	0	1	-7,470049	274,08952	312,532015	0
15.01.2021	18:18:27	0	0	3,163456	1,641	322,56	0,272	84,779	0	1016,28	6,7	8,9	8,7	1	1	1	1	1	1	1	1	1	0	1	-8,668076	273,988363	310,861841	0
15.01.2021	18:18:28	0	0	4,971145	1,6845	322,2144	0,271	84,772	0	1016,38	6,7	8,9	8,7	1	1	1	1	1	1	1	1	1	0	1	-8,245243	274,016574	311,416295	0
15.01.2021	18:18:29	0	0	3,050475	1,7085	321,2568	0,27	84,774	0	1016,34	6,7	8,9	8,7	1	1	1	1	1	1	1	1	1	0	1	-6,20155	274,152266	314,09364	0
15.01.2021	18:18:30	0	0	3,841316	1,76925	315,8388	0,274	84,786	0	1016,52	6,8	9	8,8	1	1	1	1	1	1	1	1	1	0	1	-16,983791	274,04185	302,795712	0
15.01.2021	18:18:31	0	0	2,711534	1,7745	328,2516	0,275	84,785	0	1016,42	6,7	9	8,7	1	1	1	1	1	1	1	1	1	0	1	-10,641297	273,977979	308,840187	0
15.01.2021	18:18:32	0	0	4,632203	1,791	327,402	0,272	84,76	0	1016,32	6,8	8,9	8,7	1	1	1	1	1	1	1	1	1	0	1	-12,403101	274,108919	307,68957	0
15.01.2021	18:18:33	0	0	4,180281	1,7805	327,8088	0,272	84,795	0	1016,46	6,8	8,9	8,7	1	1	1	1	1	1	1	1	1	0	1	-7,681466	273,973531	311,77927	0
15.01.2021	18:18:34	0	0	2,711534	1,692	323,658	0,267	84,758	0	1016,28	6,8	9	8,7	1	1	1	1	1	1	1	1	1	0	1	-8,668076	274,06716	311,22958	0
15.01.2021	18:18:35	0	0	4,406216	1,5975	330,3684	0,274	84,788	0	1016,36	6,7	8,9	8,8	1	1	1	1	1	1	1	1	1	0	1	-10,42988	274,168733	309,942273	0
15.01.2021	18:18:36	0	0	2,711534	1,53	320,8932	0,269	84,789	0	1016,4	6,8	8,9	8,7	1	1	1	1	1	1	1	1	1	0	1	-8,738548	274,102948	311,326232	0
15.01.2021	18:18:37	0	0	4,180281	1,49325	321,4728	0,27	84,785	0	1016,44	6,8	9	8,7	1	1	1	1	1	1	1	1	1	0	1	-10,711769	273,988363	308,818148	0
15.01.2021	18:18:38	0	0	2,711534	1,45725	312,8472	0,264	84,767	0	1016,34	6,8	9	8,7	1	1	1	1	1	1	1	1	1	0	1	-12,121212	274,098471	307,922657	0
15.01.2021	18:18:39	0	0	4,519223	1,398	317,0052	0,275	84,778	0	1016,44	6,7	8,9	8,7	1	1	1	1	1	1	1	1	1	0	1	-7,751938	274,149273	312,529268	0
15.01.2021	18:18:40	0	0	3,163456	1,41675	316,3104	0,272	84,756	0	1016,56	6,8	8,9	8,7	1	1	1	1	1	1	1	1	1	0	1	-10,077519	274,032925	309,660328	0
15.01.2021	18:18:41	0	0	3,728359	1,46175	302,7996	0,271	84,787	0	1016,38	6,8	9	8,7	1	1	1	1	1	1	1	1	1	0	1	-12,191684	274,135813	308,026623	0
15.01.2021	18:18:42	0	0	4,858164	1,51725	304,6536	0,271	84,77	0	1016,22	6,8	8,9	8,7	1	1	1	1	1	1	1	1	1	0	1	-8,104299	274,086537	311,883836	0
15.01.2021	18:18:43	0	0	3,728359	1,497	305,4024	0,272	84,786	0	1016,46	6,8	9	8,7	1	1	1	1	1	1	1	1	1	0	1	-11,839323	273,980945	307,655995	0
15.01.2021	18:18:44	0	0	4,632175	1,5	310,6332	0,272	84,787	0	1016,38	6,8	9	8,8	1	1	1	1	1	1	1	1	1	0	1	-8,879493	274,025491	310,823659	0
15.01.2021	18:18:45	0	0	5,536048	1,4535	319,572	0,273	84,772	0	1016,4	6,8	8,9	8,7	1	1	1	1	1	1	1	1	1	0	1	-10,852713	273,983912	308,656443	0
15.01.2021	18:18:46	0	0	4,632175	1,42275	309,9492	0,269	84,781	0	1016,44	6,8	8,9	8,8	1	1	1	1	1	1	1	1	1	0	1	-12,825934	274,06716	307,071722	0
15.01.2021	18:18:47	0	0	4,632203	1,359	314,802	0,272	84,787	0	1016,42	6,7	9	8,7	1	1	1	1	1	1	1	1	1	0	1	-12,191684	273,975014	307,275967	0
15.01.2021	18:18:48	0	0	3,502376	1,278	312,5016	0,27	84,785	0	1016,42	6,8	9	8,8	1	1	1	1	1	1	1	1	1	0	1	-13,03735	273,995783	306,527181	0
15.01.2021	18:18:49	0	0	2,937495	1,25775	303,4692	0,267	84,77	0	1016,36	6,7	9	8,7	1	1	1	1	1	1	1	1	1	0	1	-14,305849	274,153762	305,996335	0
15.01.2021	18:18:50	0	0	4,0673	1,2075	313,5636	0,266	84,789	0	1016,4	6,7	8,9	8,7	1	1	1	1	1	1	1	1	1	0	1	-13,03735	274,076101	306,902051	0
15.01.2021	18:18:51	0	0	4,519223	1,16925	321,732	0,27	84,777	0	1016,48	6,8	9	8,7	1	1	1	1	1	1	1	1	1	0	1	-11,980268	274,165738	308,377886	0
15.01.2021	18:18:52	0	0	4,0673	1,113	327,0168	0,267	84,767	0	1016,34	6,8	8,9	8,7	1	1	1	1	1	1	1	1	1	0	1	-11,768851	274,029951	307,955116	0
15.01.2021	18:18:53	0	0	4,180281	1,071	325,5192	0,269	84,792	0	1016,28	6,7	9	8,7	1	1	1	1	1	1	1	1	1	0	1	-15,856237	274,152266	304,438954	0
15.01.2021	18:18:54	0	0	2,937495	1,02225	311,3676	0,267	84,787	0	1016,46	6,7	9	8,7	1	1	1	1	1	1	1	1	1	0	1	-7,399577	274,082064	312,567668	0
15.01.2021	18:18:55	0	0	4,519223	0,99375	314,0208	0,271	84,793	0	1016,58	6,8	8,9	8,7	1	1	1	1	1	1	1	1	1	0	1	-10,641297	274,158252	309,681871	0
15.01.2021	18:18:56	0	0	4,180281	0,98175	332,0316	0,269	84,782	0	1016,36	6,7	8,9	8,7	1	1	1	1	1	1	1	1	1	0	1	-13,248767	273,997267	306,32269	0
15.01.2021	18:18:57	0	0	4,293261	0,9345	327,7944	0,272	84,791	0	1016,42	6,8	8,9	8,7	1	1	1	1	1	1	1	1	1	0	1	-13,178295	274,034413	306,566494	0
15.01.2021	18:18:58	0	0	2,598553	0,90975	309,5028	0,271	84,795	0	1016,5	6,8	8,9	8,7	1	1	1	1	1	1	1	1	1	0	1	-12,332629	274,146281	307,934595	0
15.01.2021	18:18:59	0	0	2,824514	0,9345	317,0052	0,267	84,795	0	1016,34	6,8	8,9	8,7	1	1	1	1	1	1	1	1	1	0	1	-11,486963	274,147777	308,787252	0
15.01.2021	18:19:00	0	0	3,728359	0,933	324,3024	0,272	84,77	0	1016,42	6,8	9	8,7	1	1	1	1	1	1	1	1	1	0	1	-9,161381	274,171729	311,224773	0
15.01.2021	18:19:01	0	0	2,937495	0,9135	316,6452	0,267	84,795	0	1016,24	6,8	8,9	8,7	1	1	1	1	1	1	1	1	1	0	1	-12,614517	273,988363	306,9154	0
15.01.2021	18:19:02	0	0	2,711534	0,897	315,1764	0,273	84,789	0	1016,52	6,8	9	8,7	1	1	1	1	1	1	1	1	1	0	1	-9,866103	274,003205	309,733059	0
15.01.2021	18:19:03	0	0	3,841339	0,92025	316,9944	0,274	84,786	0	1016,38	6,8	8,9	8,7	1	1	1	1	1	1	1	1	1	0	1	-13,03735	274,06567	306,85335	0
15.01.2021	18:19:04	0	0	2,937495	0,92475	322,5672	0,269	84,792	0	1016,32	6,7	9	8,7	1	1	1	1	1	1	1	1	1	0	1	-11,41649	274,168733	308,955663	0
15.01.2021	18:19:05	0	0	3,276436	0,915	313,2828	0,268	84,775	0	1016,24	6,8	9	8,7	1	1	1	1	1	1	1	1	1	0	1	-12,755462	274,093995	307,267502	0
15.01.2021	18:19:06	0	0	4,519223	0,921	321,8688	0,267	84,794	0	1016,36	6,7	9	8,7	1	1	1	1	1	1	1	1	1	0	1	-12,262156	273,989846	307,274682	0
15.01.2021	18:19:07	0	0	4,745184	0,90675	323,712	0,27	84,796	0	1016,28	6,7	9	8,7	1	1	1	1	1	1	1	1	1	0	1	-13,530655	274,019546	306,144752	0
15.01.2021	18:19:08	0	0	3,615378	0,9705	314,0964	0,27	84,789	0	1016,46	6,7	9	8,7	1	1	1	1	1	1	1	1	1	0	1	-12,473573	273,973531	306,987163	0
15.01.2021	18:19:09	0	0	3,728359	1,0125	315,1584	0,269	84,796	0	1016,48	6,8	9	8,7	1	1	1	1	1	1	1	1	1	0	1	-14,305849	274,064181	305,577897	0
15.01.2021	18:19:10	0	0	3,050475	1,01625	319,9788	0,268	84,802	0	1016,34	6,7	9	8,7	1	1	1	1	1	1	1	1	1	0	1	-11,486963	273,982429	308,015274	0
15.01.2021	18:19:11	0	0	3,276436	0,99	306,864	0,27	84,796	0	1016,4	6,8	8,9	8,7	1	1	1	1	1	1	1	1	1	0	1	-14,517266	274,07163	305,40126	0
15.01.2021	18:19:12	0	0	2,824514	0,9705	288,8496	0,271	84,79	0	1016,32	6,8	9	8,7	1	1	1	1	1	1	1	1	1	0	1	-14,305849	274,152266	305,989341	0
15.01.2021	18:19:13	0	0	4,293261	0,96375	309,9384	0,269	84,776	0	1016,5	6,8	9	8,7	1	1	1	1	1	1	1	1	1	0	1	-9,372798	274,128339	310,810589	0
15.01.2021	18:19:14	0	0	2,937495	0,9825	334,2996	0,27	84,798	0	1016,42	6,7	8,9	8,7	1	1	1	1	1	1	1	1	1	0	1	-8,104299	274,044826	311,689095	0
15.01.2021	18:19:15	0	0	3,615378	0,9435	327,8952	0,27	84,793	0	1016,5	6,8	8,9	8,7	1	1	1	1	1	1	1	1	1	0	1	-12,614517	274,171729	307,771637	0
15.01.2021	18:19:16	0	0	3,389417	0,918	316,9692	0,272	84,805	0	1016,18	6,8	9	8,7	1	1	1	1	1	1	1	1	1	0	1	-12,121212	274,053757	307,713869	0
15.01.2021	18:19:17	0	0	4,745184	0,87525	324,054	0,266	84,791	0	1016,34	6,8	8,9	8,7	1	1	1	1	1	1	1	1	1	0	1	-9,795631	274,140298	310,443637	0
15.01.2021	18:19:18	0	0	4,180281	0,82875	324,3564	0,264	84,797	0	1016,42	6,8	9	8,7	1	1	1	1	1	1	1	1	1	0	1	-14,869626	274,031438	304,86128	0
15.01.2021	18:19:19	0	0	4,293261	0,777	320,3748	0,266	84,806	0	1016,26	6,7	8,9	8,7	1	1	1	1	1	1	1	1	1	0	1	-11,980268	274,168733	308,391885	0
15.01.2021	18:19:20	0	0	4,745184	0,747	321,8328	0,271	84,792	0	1016,42	6,8	9	8,7	1	1	1	1	1	1	1	1	1	0	1	-10,077519	274,059713	309,785366	0
15.01.2021	18:19:21	0	0	4,293261	0,699	332,7264	0,271	84,819	0	1016,24	6,8	8,9	8,7	1	1	1	1	1	1	1	1	1	0	1	-9,936575	274,158252	310,386593	0
15.01.2021	18:19:22	0	0	4,632203	0,68175	343,5156	0,267	84,814	0	1016,56	6,7	9	8,7	1	1	1	1	1	1	1	1	1	0	1	-11,557435	274,096979	308,479465	0
15.01.2021	18:19:23	0	0	2,372592	0,6495	342,3672	0,269	84,812	0	1016,46	6,7	9	8,7	1	1	1	1	1	1	1	1	1	0	1	-11,205074	274,176223	309,202088	0
15.01.2021	18:19:24	0	0	2,711534	0,65175	338,418	0,269	84,817	0	1016,44	6,8	9	8,7	1	1	1	1	1	1	1	1	1	0	1	-14,235377	274,105934	305,843347	0
15.01.2021	18:19:25	0	0	4,406242	0,6225	331,4988	0,274	84,796	0	1016,44	6,8	9	8,7	1	1	1	1	1	1	1	1	1	0	1	-12,966878	274,176223	307,440284	0
15.01.2021	18:19:26	0	0	4,858164	0,63225	328,0932	0,262	84,809	0	1016,44	6,8	9	8,7	1	1	1	1	1	1	1	1	1	0	1	-11,275546	274,108919	308,817124	0
15.01.2021	18:19:27	0	0	2,598553	0,6315	325,4904	0,271	84,809	0	1016,44	6,8	8,9	8,7	1	1	1	1	1	1	1	1	1	0	1	-15,997181	273,997267	303,574275	0
15.01.2021	18:19:28	0	0	3,502398	0,666	325,4508	0,27	84,807	0	1016,54	6,8	9	8,7	1	1	1	1	1	1	1	1	1	0	1	-11,134602	274,0359	308,617128	0
15.01.2021	18:19:29	0	0	3,389417	0,6465	325,4976	0,269	84,817	0	1016,42	6,8	9	8,7	1	1	1	1	1	1	1	1	1	0	1	-12,191684	274,131328	308,005669	0
15.01.2021	18:19:30	0	0	5,084125	0,60825	319,1184	0,273	84,812	0	1016,54	6,8	9	8,7	1	1	1	1	1	1	1	1	1	0	1	-10,147992	274,113399	309,965604	0
15.01.2021	18:19:31	0	0	4,519223	0,585	318,456	0,267	84,824	0	1016,46	6,8	9	8,7	1	1	1	1	1	1	1	1	1	0	1	-11,627907	274,144785	308,632327	0
15.01.2021	18:19:32	0	0	5,084125	0,618	321,1092	0,268	84,818	0	1016,36	6,7	9	8,7	1	1	1	1	1	1	1	1	1	0	1	-10,359408	274,111906	309,747212	0
15.01.2021	18:19:33	0	0	3,728359	0,60975	319,9464	0,272	84,836	0	1016,54	6,7	9	8,7	1	1	1	1	1	1	1	1	1	0	1	-13,389711	274,165738	306,968443	0
15.01.2021	18:19:34	0	0	4,406242	0,62625	323,2728	0,266	84,814	0	1016,46	6,7	9	8,7	1	1	1	1	1	1	1	1	1	0	1	-12,614517	274,095487	307,415414	0
15.01.2021	18:19:35	0	0	2,711534	0,648	328,932	0,265	84,811	0	1016,22	6,8	9	8,7	1	1	1	1	1	1	1	1	1	0	1	-10,288936	274,156756	310,027237	0
15.01.2021	18:19:36	0	0	4,745184	0,66675	335,0016	0,263	84,819	0	1016,42	6,8	8,9	8,7	1	1	1	1	1	1	1	1	1	0	1	-8,527132	274,11788	311,607394	0
15.01.2021	18:19:37	0	0	3,841339	0,69375	326,4372	0,273	84,817	0	1016,3	6,8	8,9	8,7	1	1	1	1	1	1	1	1	1	0	1	-9,090909	274,171729	311,295246	0
15.01.2021	18:19:38	0	0	2,824514	0,74025	311,4648	0,269	84,809	0	1016,32	6,7	9	8,7	1	1	1	1	1	1	1	1	1	0	1	-10,147992	274,080573	309,812292	0
15.01.2021	18:19:39	0	0	4,519223	0,7845	308,5704	0,269	84,815	0	1016,42	6,8	9	8,7	1	1	1	1	1	1	1	1	1	0	1	-14,728682	274,171729	305,657473	0
15.01.2021	18:19:40	0	0	3,389417	0,882	313,2	0,27	84,808	0	1016,4	6,7	9	8,7	1	1	1	1	1	1	1	1	1	0	1	-16,983791	274,098471	303,060077	0
15.01.2021	18:19:41	0	0	2,937495	0,9405	333,4212	0,269	84,829	0	1016,48	6,8	9	8,7	1	1	1	1	1	1	1	1	1	0	1	-12,191684	273,994298	307,365923	0
15.01.2021	18:19:42	0	0	3,615378	0,91125	334,9332	0,263	84,809	0	1016,52	6,8	8,9	8,7	1	1	1	1	1	1	1	1	1	0	1	-11,768851	274,131328	308,428502	0
15.01.2021	18:19:43	0	0	4,858135	0,88425	317,0052	0,269	84,833	0	1016,36	6,7	8,9	8,8	1	1	1	1	1	1	1	1	1	0	1	-8,527132	273,99133	311,016629	0
15.01.2021	18:19:44	0	0	3,050475	0,87975	309,4344	0,271	84,815	0	1016,4	6,8	9	8,7	1	1	1	1	1	1	1	1	1	0	1	-13,248767	274,152266	307,046424	0
15.01.2021	18:19:45	0	0	2,711534	0,92925	298,9908	0,261	84,832	0	1016,44	6,7	9	8,7	1	1	1	1	1	1	1	1	1	0	1	-12,825934	273,989846	306,710905	0
15.01.2021	18:19:46	0	0	2,711534	0,9585	314,802	0,271	84,835	0	1016,38	6,8	9	8,7	1	1	1	1	1	1	1	1	1	0	1	-12,191684	273,979462	307,296716	0
15.01.2021	18:19:47	0	0	4,406242	0,957	317,754	0,271	84,833	0	1016,34	6,7	8,9	8,7	1	1	1	1	1	1	1	1	1	0	1	-12,614517	274,082064	307,352728	0
15.01.2021	18:19:48	0	0	3,276436	1,00425	302,4324	0,269	84,837	0	1016,4	6,8	9	8,7	1	1	1	1	1	1	1	1	1	0	1	-13,248767	273,985395	306,267309	0
15.01.2021	18:19:49	0	0	3,728359	1,026	304,2828	0,269	84,839	0	1016,32	6,8	8,9	8,7	1	1	1	1	1	1	1	1	1	0	1	-13,883016	274,114893	306,237555	0
15.01.2021	18:19:50	0	0	3,163456	1,04175	315,4572	0,267	84,823	0	1016,44	6,8	8,9	8,7	1	1	1	1	1	1	1	1	1	0	1	-13,742072	273,976497	305,732495	0
15.01.2021	18:19:51	0	0	2,711534	1,18575	306,4788	0,261	84,835	0	1016,34	6,7	9	8,7	1	1	1	1	1	1	1	1	1	0	1	-16,138125	274,046314	303,662215	0
15.01.2021	18:19:52	0	0	3,389417	1,332	293,292	0,269	84,838	0	1016,42	6,8	9	8,7	1	1	1	1	1	1	1	1	1	0	1	-13,319239	274,046314	306,481101	0
15.01.2021	18:19:53	0	0	4,180281	1,3515	302,1228	0,264	84,843	0	1016,46	6,8	8,9	8,7	1	1	1	1	1	1	1	1	1	0	1	-10,711769	274,173227	309,681388	0
15.01.2021	18:19:54	0	0	2,711534	1,44975	296,6256	0,262	84,831	0	1016,42	6,8	9	8,7	1	1	1	1	1	1	1	1	1	0	1	-12,05074	274,031438	307,680167	0
15.01.2021	18:19:55	0	0	2,485558	1,4745	309,2796	0,27	84,849	0	1016,48	6,8	9	8,8	1	1	1	1	1	1	1	1	1	0	1	-12,473573	274,174725	307,926586	0
15.01.2021	18:19:56	0	0	2,711534	1,41	311,742	0,262	84,822	0	1016,32	6,8	8,9	8,7	1	1	1	1	1	1	1	1	1	0	1	-14,65821	274,076101	305,281192	0
15.01.2021	18:19:57	0	0	4,632203	1,47225	304,182	0,265	84,844	0	1016,44	6,8	9	8,7	1	1	1	1	1	1	1	1	1	0	1	-9,936575	273,986879	309,586421	0
15.01.2021	18:19:58	0	0	2,824514	1,52925	315,9936	0,26	84,83	0	1016,34	6,8	9	8,7	1	1	1	1	1	1	1	1	1	0	1	-8,597604	274,102948	311,467176	0
15.01.2021	18:19:59	0	0	3,276436	1,5915	313,5708	0,265	84,823	0	1016,36	6,8	9	8,7	1	1	1	1	1	1	1	1	1	0	1	-15,574348	274,162743	304,769809	0
15.01.2021	18:20:00	0	0	4,519223	1,6185	300,492	0,265	84,846	0	1016,38	6,8	9	8,7	1	1	1	1	1	1	1	1	1	0	1	-9,795631	274,006175	309,817388	0
15.01.2021	18:20:01	0	0	4,519223	1,6185	300,492	0,265	84,846	0	1016,38	6,8	9	8,7	1	1	1	1	1	1	1	1	1	0	1	-10,147992	274,105934	309,930732	0
15.01.2021	18:20:02	0	0	3,502398	1,59	309,3444	0,267	84,847	0	1016,46	6,8	9	8,7	1	1	1	1	1	1	1	1	1	0	1	-15,151515	274,024005	304,544699	0
15.01.2021	18:20:03	0	0	3,841339	1,5345	311,004	0,268	84,822	0	1016,3	6,8	9	8,7	1	1	1	1	1	1	1	1	1	0	1	-11,486963	274,168733	308,88519	0
15.01.2021	18:20:04	0	0	2,485572	1,46325	303,516	0,265	84,833	0	1016,4	6,7	9	8,7	1	1	1	1	1	1	1	1	1	0	1	-12,825934	273,992814	306,72475	0
15.01.2021	18:20:05	0	0	4,858164	1,4205	306,8424	0,264	84,829	0	1016,4	6,8	9	8,7	1	1	1	1	1	1	1	1	1	0	1	-13,178295	274,108919	306,914376	0
15.01.2021	18:20:06	0	0	4,632203	1,43325	315,8964	0,268	84,834	0	1016,34	6,7	9	8,7	1	1	1	1	1	1	1	1	1	0	1	-7,399577	274,137308	312,825717	0
15.01.2021	18:20:07	0	0	2,485572	1,389	316,98	0,271	84,819	0	1016,46	6,8	9	8,7	1	1	1	1	1	1	1	1	1	0	1	-11,134602	274,132823	309,069736	0
15.01.2021	18:20:08	0	0	3,502398	1,31625	310,698	0,264	84,826	0	1016,42	6,7	9	8,7	1	1	1	1	1	1	1	1	1	0	1	-15,997181	273,988363	303,532736	0
15.01.2021	18:20:09	0	0	3,841339	1,299	317,4336	0,267	84,837	0	1016,38	6,8	9	8,7	1	1	1	1	1	1	1	1	1	0	1	-14,164905	274,043338	305,621543	0
15.01.2021	18:20:10	0	0	4,293261	1,31475	328,8924	0,266	84,848	0	1016,36	6,7	9	8,7	1	1	1	1	1	1	1	1	1	0	1	-15,715292	273,994298	303,842315	0
15.01.2021	18:20:11	0	0	2,485572	1,3095	315,882	0,268	84,834	0	1016,18	6,8	9	8,7	1	1	1	1	1	1	1	1	1	0	1	-11,41649	274,107427	308,669206	0
15.01.2021	18:20:12	0	0	2,824514	1,31475	313,5564	0,266	84,837	0	1016,44	6,8	8,9	8,7	1	1	1	1	1	1	1	1	1	0	1	-8,80902	274,173227	311,584136	0
15.01.2021	18:20:13	0	0	3,163437	1,28175	328,5216	0,264	84,838	0	1016,46	6,7	9	8,8	1	1	1	1	1	1	1	1	1	0	1	-9,44327	274,120867	310,705213	0
15.01.2021	18:20:14	0	0	4,745184	1,28025	331,9416	0,259	84,849	0	1016,34	6,8	9	8,7	1	1	1	1	1	1	1	1	1	0	1	-10,500352	274,156756	309,81582	0
15.01.2021	18:20:15	0	0	3,050475	1,23525	331,0416	0,261	84,826	0	1016,42	6,8	9	8,7	1	1	1	1	1	1	1	1	1	0	1	-11,627907	274,080573	308,332376	0
15.01.2021	18:20:16	0	0	4,745184	1,21125	327,7296	0,26	84,832	0	1016,42	6,8	9	8,7	1	1	1	1	1	1	1	1	1	0	1	-16,349542	274,167235	304,015611	0
15.01.2021	18:20:17	0	0	4,632203	1,29675	327,1104	0,264	84,847	0	1016,24	6,8	9	8,7	1	1	1	1	1	1	1	1	1	0	1	-17,688513	274,101456	302,369296	0
15.01.2021	18:20:18	0	0	3,728359	1,323	325,1304	0,267	84,848	0	1016,44	6,8	9	8,7	1	1	1	1	1	1	1	1	1	0	1	-14,940099	274,162743	305,404059	0
15.01.2021	18:20:19	0	0	3,276436	1,35825	329,6088	0,262	84,832	0	1016,38	6,7	9	8,7	1	1	1	1	1	1	1	1	1	0	1	-10,993658	274,114893	309,126914	0
15.01.2021	18:20:20	0	0	4,971145	1,35075	320,67	0,264	84,848	0	1016,38	6,7	9	8,7	1	1	1	1	1	1	1	1	1	0	1	-15,292459	274,168733	305,079694	0
15.01.2021	18:20:21	0	0	2,937495	1,29075	321,1452	0,265	84,843	0	1016,56	6,8	9	8,7	1	1	1	1	1	1	1	1	1	0	1	-10,852713	274,061202	309,017125	0
15.01.2021	18:20:22	0	0	3,615378	1,2405	325,0404	0,262	84,848	0	1016,36	6,8	9	8,7	1	1	1	1	1	1	1	1	1	0	1	-13,03735	274,031438	306,693557	0
15.01.2021	18:20:23	0	0	4,0673	1,1805	328,8888	0,261	84,838	0	1016,3	6,8	9	8,7	1	1	1	1	1	1	1	1	1	0	1	-14,094433	274,152266	306,200758	0
15.01.2021	18:20:24	0	0	4,519223	1,11825	329,706	0,266	84,847	0	1016,4	6,8	9	8,7	1	1	1	1	1	1	1	1	1	0	1	-13,389711	274,061202	306,480127	0
15.01.2021	18:20:25	0	0	2,824514	1,14225	328,8636	0,264	84,839	0	1016,4	6,8	8,9	8,7	1	1	1	1	1	1	1	1	1	0	1	-9,936575	274,167235	310,428578	0
15.01.2021	18:20:26	0	0	2,824514	1,155	336,06	0,259	84,843	0	1016,26	6,8	9	8,7	1	1	1	1	1	1	1	1	1	0	1	-7,82241	274,0359	311,92932	0
15.01.2021	18:20:27	0	0	4,519223	1,1895	340,5384	0,262	84,825	0	1016,2	6,8	9	8,7	1	1	1	1	1	1	1	1	1	0	1	-8,879493	274,021032	310,80285	0
15.01.2021	18:20:28	0	0	4,745184	1,16475	336,1464	0,264	84,834	0	1016,36	6,8	9	8,7	1	1	1	1	1	1	1	1	1	0	1	-13,248767	274,161246	307,088393	0
15.01.2021	18:20:29	0	0	3,728359	1,21425	334,5552	0,266	84,856	0	1016,38	6,8	8,8	8,7	1	1	1	1	1	1	1	1	1	0	1	-10,993658	274,101456	309,064151	0
15.01.2021	18:20:30	0	0	4,406216	1,25775	330,768	0,263	84,84	0	1016,44	6,8	9	8,8	1	1	1	1	1	1	1	1	1	0	1	-11,980268	274,158252	308,3429	0
15.01.2021	18:20:31	0	0	4,293261	1,299	326,6784	0,259	84,84	0	1016,64	6,8	9	8,7	1	1	1	1	1	1	1	1	1	0	1	-12,262156	274,107427	307,82354	0
15.01.2021	18:20:32	0	0	4,0673	1,2855	328,1184	0,261	84,818	0	1016,42	6,7	9	8,7	1	1	1	1	1	1	1	1	1	0	1	-13,883016	274,010631	305,750793	0
15.01.2021	18:20:33	0	0	4,180281	1,20975	321,8472	0,265	84,831	0	1016,38	6,8	9	8,7	1	1	1	1	1	1	1	1	1	0	1	-14,023961	274,009146	305,602918	0
15.01.2021	18:20:34	0	0	4,858164	1,086	329,2452	0,268	84,846	0	1016,38	6,8	9	8,7	1	1	1	1	1	1	1	1	1	0	1	-9,936575	274,126844	310,23983	0
15.01.2021	18:20:35	0	0	2,824514	1,0545	332,0244	0,272	84,85	0	1016,36	6,8	9	8,7	1	1	1	1	1	1	1	1	1	0	1	-15,151515	273,997267	304,419941	0
15.01.2021	18:20:36	0	0	4,971145	1,00875	330,3684	0,265	84,847	0	1016,48	6,7	9	8,7	1	1	1	1	1	1	1	1	1	0	1	-11,980268	274,138803	308,252013	0
15.01.2021	18:20:37	0	0	3,615378	1,03275	319,9824	0,262	84,837	0	1016,42	6,8	9	8,7	1	1	1	1	1	1	1	1	1	0	1	-7,329105	274,110413	312,77054	0
15.01.2021	18:20:38	0	0	4,632203	1,02375	314,4204	0,266	84,847	0	1016,4	6,8	9	8,7	1	1	1	1	1	1	1	1	1	0	1	-10,993658	274,144785	309,266576	0
15.01.2021	18:20:39	0	0	2,711534	0,999	326,3652	0,265	84,838	0	1016,34	6,7	9	8,7	1	1	1	1	1	1	1	1	1	0	1	-10,077519	274,059713	309,785366	0
15.01.2021	18:20:40	0	0	2,937495	0,98925	332,0748	0,264	84,824	0	1016,44	6,8	9	8,7	1	1	1	1	1	1	1	1	1	0	1	-10,641297	273,964638	308,777962	0
15.01.2021	18:20:41	0	0	4,406242	0,99825	318,0348	0,265	84,844	0	1016,6	6,8	9	8,7	1	1	1	1	1	1	1	1	1	0	1	-13,742072	274,0359	306,009658	0
15.01.2021	18:20:42	0	0	4,632203	1,053	307,5552	0,264	84,852	0	1016,36	6,8	9	8,7	1	1	1	1	1	1	1	1	1	0	1	-7,681466	274,149273	312,59974	0
15.01.2021	18:20:43	0	0	2,598553	1,0815	308,1096	0,263	84,841	0	1016,46	6,8	9	8,7	1	1	1	1	1	1	1	1	1	0	1	-10,359408	274,102948	309,705372	0
15.01.2021	18:20:44	0	0	3,95432	1,101	320,7816	0,265	84,832	0	1016,3	6,8	9	8,7	1	1	1	1	1	1	1	1	1	0	1	-10,852713	274,140298	309,386555	0
15.01.2021	18:20:45	0	0	4,745184	1,086	329,2812	0,266	84,847	0	1016,22	6,8	9	8,7	1	1	1	1	1	1	1	1	1	0	1	-14,376321	274,085046	305,60485	0
15.01.2021	18:20:46	0	0	2,598553	1,08525	314,0208	0,258	84,843	0	1016,42	6,8	9	8,7	1	1	1	1	1	1	1	1	1	0	1	-11,909796	274,147777	308,364419	0
15.01.2021	18:20:47	0	0	4,519223	1,11525	314,0676	0,269	84,856	0	1016,44	6,8	9	8,7	1	1	1	1	1	1	1	1	1	0	1	-10,42988	274,146281	309,837344	0
15.01.2021	18:20:48	0	0	4,971145	1,13475	314,802	0,266	84,849	0	1016,52	6,8	9	8,7	1	1	1	1	1	1	1	1	1	0	1	-11,627907	274,043338	308,158541	0
15.01.2021	18:20:49	0	0	2,372592	1,25325	322,1784	0,263	84,847	0	1016,38	6,8	9	8,7	1	1	1	1	1	1	1	1	1	0	1	-10,359408	273,985395	309,156667	0
15.01.2021	18:20:50	0	0	4,971145	1,326	326,358	0,266	84,858	0	1016,36	6,8	9	8,7	1	1	1	1	1	1	1	1	1	0	1	-14,940099	274,032925	304,797749	0
15.01.2021	18:20:51	0	0	2,485572	1,35825	327,1248	0,266	84,859	0	1016,48	6,8	9	8,7	1	1	1	1	1	1	1	1	1	0	1	-11,839323	274,000236	307,745985	0
15.01.2021	18:20:52	0	0	4,0673	1,36425	324,8028	0,261	84,846	0	1016,42	6,8	9	8,7	1	1	1	1	1	1	1	1	1	0	1	-14,305849	274,144785	305,954385	0
15.01.2021	18:20:53	0	0	4,180281	1,356	323,0064	0,263	84,856	0	1016,36	6,8	9	8,7	1	1	1	1	1	1	1	1	1	0	1	-6,20155	274,138803	314,03073	0
15.01.2021	18:20:54	0	0	4,406242	1,29975	331,9416	0,267	84,859	0	1016,38	6,8	9	8,7	1	1	1	1	1	1	1	1	1	0	1	-7,047216	274,016574	312,614322	0
15.01.2021	18:20:55	0	0	2,711534	1,27875	328,9356	0,265	84,852	0	1016,44	6,8	9	8,7	1	1	1	1	1	1	1	1	1	0	1	-13,460183	274,043338	306,326265	0
15.01.2021	18:20:56	0	0	3,615356	1,248	321,7752	0,268	84,859	0	1016,36	6,8	9	8,8	1	1	1	1	1	1	1	1	1	0	1	-14,235377	274,144785	306,024857	0
15.01.2021	18:20:57	0	0	4,632203	1,26225	311,4468	0,266	84,856	0	1016,44	6,8	8,8	8,7	1	1	1	1	1	1	1	1	1	0	1	-9,725159	274,038875	310,040457	0
15.01.2021	18:20:58	0	0	2,824514	1,2675	312,3864	0,269	84,856	0	1016,42	6,8	9	8,7	1	1	1	1	1	1	1	1	1	0	1	-9,161381	273,973531	310,299355	0
15.01.2021	18:20:59	0	0	4,406242	1,242	322,506	0,257	84,851	0	1016,38	6,8	9	8,7	1	1	1	1	1	1	1	1	1	0	1	-7,610994	274,0359	312,140736	0
15.01.2021	18:21:00	0	0	5,310087	1,254	325,1412	0,265	84,852	0	1016,46	6,8	9	8,7	1	1	1	1	1	1	1	1	1	0	1	-6,765328	274,140298	313,47394	0
15.01.2021	18:21:01	0	0	3,389417	1,18725	320,3172	0,267	84,858	0	1016,4	6,8	9	8,7	1	1	1	1	1	1	1	1	1	0	1	-11,346018	274,113399	308,767577	0
15.01.2021	18:21:02	0	0	2,937495	1,18875	321,4944	0,267	84,848	0	1016,36	6,8	9	8,7	1	1	1	1	1	1	1	1	1	0	1	-13,107822	273,977979	306,373661	0
15.01.2021	18:21:03	0	0	2,711534	1,18125	328,1976	0,267	84,848	0	1016,38	6,8	9	8,7	1	1	1	1	1	1	1	1	1	0	1	-12,473573	274,044826	307,319821	0
15.01.2021	18:21:04	0	0	4,632203	1,2285	344,7468	0,269	84,874	0	1016,38	6,8	9	8,7	1	1	1	1	1	1	1	1	1	0	1	-5,21494	274,155259	315,094238	0
15.01.2021	18:21:05	0	0	3,615378	1,296	326,0232	0,264	84,863	0	1016,26	6,8	9	8,7	1	1	1	1	1	1	1	1	1	0	1	-12,755462	274,04185	307,024042	0
15.01.2021	18:21:06	0	0	3,615378	1,3875	339,3972	0,261	84,857	0	1016,26	6,8	9	8,7	1	1	1	1	1	1	1	1	1	0	1	-11,768851	273,982429	307,733385	0
15.01.2021	18:21:07	0	0	3,163456	1,4355	328,9536	0,259	84,848	0	1016,4	6,8	9	8,7	1	1	1	1	1	1	1	1	1	0	1	-11,627907	274,043338	308,158541	0
15.01.2021	18:21:08	0	0	3,163456	1,4115	334,7928	0,268	84,851	0	1016,46	6,8	9	8,7	1	1	1	1	1	1	1	1	1	0	1	-7,329105	274,019546	312,346302	0
15.01.2021	18:21:09	0	0	2,711534	1,4145	322,974	0,27	84,854	0	1016,36	6,8	8,9	8,7	1	1	1	1	1	1	1	1	1	0	1	-9,161381	274,126844	311,015024	0
15.01.2021	18:21:10	0	0	3,276436	1,4385	330,7896	0,267	84,847	0	1016,4	6,8	9	8,7	1	1	1	1	1	1	1	1	1	0	1	-9,513742	274,00469	310,092348	0
15.01.2021	18:21:11	0	0	4,406242	1,42125	322,0164	0,267	84,859	0	1016,26	6,8	9	8,7	1	1	1	1	1	1	1	1	1	0	1	-10,852713	273,995783	308,711818	0
15.01.2021	18:21:12	0	0	2,824514	1,371	314,4816	0,269	84,859	0	1016,52	6,8	9	8,7	1	1	1	1	1	1	1	1	1	0	1	-10,007047	274,168733	310,365106	0
15.01.2021	18:21:13	0	0	3,276436	1,35	321,876	0,262	84,853	0	1016,46	6,8	9	8,7	1	1	1	1	1	1	1	1	1	0	1	-9,020437	274,025491	310,682715	0
15.01.2021	18:21:14	0	0	2,711534	1,31325	327,8412	0,269	84,874	0	1016,34	6,8	8,9	8,7	1	1	1	1	1	1	1	1	1	0	1	-12,191684	273,980945	307,303634	0
15.01.2021	18:21:15	0	0	2,711534	1,215	325,98	0,264	84,865	0	1016,5	6,8	8,8	8,7	1	1	1	1	1	1	1	1	1	0	1	-11,346018	273,998751	308,232364	0
15.01.2021	18:21:16	0	0	4,632203	1,14375	312,4332	0,262	84,871	0	1016,4	6,8	9	8,7	1	1	1	1	1	1	1	1	1	0	1	-14,164905	274,114893	305,955667	0
15.01.2021	18:21:17	0	0	4,858164	1,0755	315,1404	0,266	84,842	0	1016,42	6,8	9	8,7	1	1	1	1	1	1	1	1	1	0	1	-10,711769	274,12535	309,457655	0
15.01.2021	18:21:18	0	0	4,971145	1,01175	303,9336	0,259	84,862	0	1016,32	6,8	9	8,7	1	1	1	1	1	1	1	1	1	0	1	-13,6716	274,034413	306,073189	0
15.01.2021	18:21:19	0	0	5,084125	0,95625	304,2072	0,269	84,869	0	1016,42	6,8	9	8,7	1	1	1	1	1	1	1	1	1	0	1	-11,06413	274,161246	309,273031	0
15.01.2021	18:21:20	0	0	4,971145	0,92775	313,164	0,261	84,867	0	1016,4	6,8	9	8,7	1	1	1	1	1	1	1	1	1	0	1	-12,05074	274,098471	307,993129	0
15.01.2021	18:21:21	0	0	2,711534	0,88875	317,4156	0,265	84,859	0	1016,32	6,8	9	8,7	1	1	1	1	1	1	1	1	1	0	1	-10,570825	274,153762	309,731359	0
15.01.2021	18:21:22	0	0	3,276436	0,822	313,5528	0,267	84,863	0	1016,32	6,8	9	8,7	1	1	1	1	1	1	1	1	1	0	1	-7,470049	274,119373	312,671455	0
15.01.2021	18:21:23	0	0	2,937495	0,78675	309,924	0,267	84,867	0	1016,42	6,8	9	8,7	1	1	1	1	1	1	1	1	1	0	1	-10,359408	274,092503	309,656588	0
15.01.2021	18:21:24	0	0	2,824497	0,81	311,0364	0,266	84,867	0	1016,44	6,8	9	8,8	1	1	1	1	1	1	1	1	1	0	1	-15,292459	274,146281	304,974764	0
15.01.2021	18:21:25	0	0	2,485572	0,876	311,4036	0,264	84,888	0	1016,34	6,8	9	8,7	1	1	1	1	1	1	1	1	1	0	1	-13,03735	274,092503	306,978646	0
15.01.2021	18:21:26	0	0	2,598553	0,8625	316,35	0,264	84,875	0	1016,38	6,8	9	8,7	1	1	1	1	1	1	1	1	1	0	1	-15,926709	273,980945	303,568609	0
15.01.2021	18:21:27	0	0	4,745184	0,867	325,1952	0,267	84,87	0	1016,48	6,8	8,8	8,7	1	1	1	1	1	1	1	1	1	0	1	-12,684989	274,079082	307,268333	0
15.01.2021	18:21:28	0	0	4,0673	0,882	328,9032	0,267	84,875	0	1016,36	6,7	9	8,7	1	1	1	1	1	1	1	1	1	0	1	-10,288936	274,155259	310,020242	0
15.01.2021	18:21:29	0	0	5,310087	0,8685	333,5076	0,265	84,881	0	1016,42	6,8	9	8,7	1	1	1	1	1	1	1	1	1	0	1	-13,319239	274,102948	306,745541	0
15.01.2021	18:21:30	0	0	2,598553	0,8505	322,9704	0,27	84,897	0	1016,52	6,8	9	8,7	1	1	1	1	1	1	1	1	1	0	1	-10,641297	273,969084	308,798698	0
15.01.2021	18:21:31	0	0	4,858164	0,882	299,7504	0,265	84,887	0	1016,32	6,7	9	8,7	1	1	1	1	1	1	1	1	1	0	1	-10,923185	274,102948	309,141595	0
15.01.2021	18:21:32	0	0	2,711534	0,873	297,4788	0,265	84,868	0	1016,34	6,8	9	8,7	1	1	1	1	1	1	1	1	1	0	1	-13,03735	274,108919	307,05532	0
15.01.2021	18:21:33	0	0	4,745184	0,9045	308,4012	0,262	84,882	0	1016,5	6,8	9	8,7	1	1	1	1	1	1	1	1	1	0	1	-16,983791	274,138803	303,248489	0
15.01.2021	18:21:34	0	0	4,632203	0,94725	318,7584	0,266	84,882	0	1016,42	6,8	9	8,7	1	1	1	1	1	1	1	1	1	0	1	-12,614517	274,108919	307,478153	0
15.01.2021	18:21:35	0	0	2,937495	0,95775	309,618	0,265	84,884	0	1016,44	6,8	9	8,7	1	1	1	1	1	1	1	1	1	0	1	-12,262156	274,120867	307,886327	0
15.01.2021	18:21:36	0	0	4,293261	0,99	309,1824	0,269	84,897	0	1016,62	6,8	9	8,7	1	1	1	1	1	1	1	1	1	0	1	-11,839323	274,159749	308,49084	0
15.01.2021	18:21:37	0	0	2,937495	1,0185	321,8184	0,261	84,888	0	1016,34	6,7	8,8	8,7	1	1	1	1	1	1	1	1	1	0	1	-12,403101	274,128339	307,780286	0
15.01.2021	18:21:38	0	0	3,502398	1,01925	327,726	0,266	84,886	0	1016,42	6,8	9	8,7	1	1	1	1	1	1	1	1	1	0	1	-12,544045	274,040363	307,228514	0
15.01.2021	18:21:39	0	0	4,632203	0,98775	320,3532	0,268	84,901	0	1016,48	6,8	9	8,7	1	1	1	1	1	1	1	1	1	0	1	-9,584214	274,176223	310,822948	0
15.01.2021	18:21:40	0	0	2,824514	0,98325	323,6724	0,269	84,91	0	1016,44	6,8	8,8	8,7	1	1	1	1	1	1	1	1	1	0	1	-16,842847	274,14329	303,410397	0
15.01.2021	18:21:41	0	0	4,406242	0,92475	321,4656	0,265	84,895	0	1016,42	6,8	9	8,7	1	1	1	1	1	1	1	1	1	0	1	-10,007047	274,134318	310,204275	0
15.01.2021	18:21:42	0	0	4,406242	0,861	319,4712	0,27	84,906	0	1016,54	6,8	8,8	8,7	1	1	1	1	1	1	1	1	1	0	1	-14,728682	274,149273	305,552524	0
15.01.2021	18:21:43	0	0	3,502398	0,807	318,8268	0,269	84,899	0	1016,36	6,8	9	8,7	1	1	1	1	1	1	1	1	1	0	1	-11,346018	274,00766	308,27393	0
15.01.2021	18:21:44	0	0	3,050475	0,73875	321,3756	0,266	84,883	0	1016,4	6,8	9	8,7	1	1	1	1	1	1	1	1	1	0	1	-14,235377	274,029951	305,48859	0
15.01.2021	18:21:45	0	0	4,0673	0,71025	322,9092	0,27	84,898	0	1016,44	6,8	9	8,7	1	1	1	1	1	1	1	1	1	0	1	-9,654686	273,986879	309,868309	0
15.01.2021	18:21:46	0	0	2,937495	0,67425	321,8472	0,268	84,9	0	1016,48	6,7	9	8,7	1	1	1	1	1	1	1	1	1	0	1	-16,560958	274,038875	303,204657	0
15.01.2021	18:21:47	0	0	2,598553	0,6165	321,8544	0,271	84,901	0	1016,48	6,8	9	8,7	1	1	1	1	1	1	1	1	1	0	1	-11,909796	273,979462	307,578605	0
15.01.2021	18:21:48	0	0	3,728359	0,62625	325,0764	0,272	84,905	0	1016,38	6,8	9	8,7	1	1	1	1	1	1	1	1	1	0	1	-11,41649	274,095487	308,613441	0
15.01.2021	18:21:49	0	0	2,824497	0,585	321,4512	0,27	84,883	0	1016,42	6,8	9	8,8	1	1	1	1	1	1	1	1	1	0	1	-8,45666	273,986879	311,066336	0
15.01.2021	18:21:50	0	0	4,406242	0,6165	319,2156	0,267	84,905	0	1016,42	6,8	9	8,7	1	1	1	1	1	1	1	1	1	0	1	-12,896406	274,040363	306,876153	0
15.01.2021	18:21:51	0	0	3,728359	0,6165	321,1344	0,275	84,904	0	1016,5	6,8	9	8,7	1	1	1	1	1	1	1	1	1	0	1	-11,134602	274,165738	309,223552	0
15.01.2021	18:21:52	0	0	4,180281	0,6285	322,1928	0,272	84,894	0	1016,58	6,8	9	8,7	1	1	1	1	1	1	1	1	1	0	1	-12,403101	274,101456	307,654708	0
15.01.2021	18:21:53	0	0	4,293261	0,67575	321,5088	0,265	84,888	0	1016,38	6,8	9	8,7	1	1	1	1	1	1	1	1	1	0	1	-13,107822	274,174725	307,292337	0
15.01.2021	18:21:54	0	0	4,0673	0,68625	314,4096	0,269	84,886	0	1016,38	6,8	9	8,7	1	1	1	1	1	1	1	1	1	0	1	-14,65821	274,07312	305,267274	0
15.01.2021	18:21:55	0	0	3,615356	0,723	319,734	0,266	84,89	0	1016,42	6,8	9	8,8	1	1	1	1	1	1	1	1	1	0	1	-13,389711	273,988363	306,140206	0
15.01.2021	18:21:56	0	0	5,310087	0,759	328,1724	0,268	84,9	0	1016,48	6,8	9	8,7	1	1	1	1	1	1	1	1	1	0	1	-15,292459	274,029951	304,431508	0
15.01.2021	18:21:57	0	0	4,180281	0,75525	329,652	0,274	84,898	0	1016,46	6,8	9	8,7	1	1	1	1	1	1	1	1	1	0	1	-14,023961	274,168733	306,348192	0
15.01.2021	18:21:58	0	0	3,728359	0,8115	323,6292	0,27	84,897	0	1016,44	6,8	8,8	8,7	1	1	1	1	1	1	1	1	1	0	1	-12,332629	274,056734	307,516353	0
15.01.2021	18:21:59	0	0	4,293236	0,86325	325,1304	0,277	84,91	0	1016,52	6,8	9	8,8	1	1	1	1	1	1	1	1	1	0	1	-17,336152	274,167235	303,029001	0
15.01.2021	18:22:00	0	0	4,858164	0,92325	339,1236	0,271	84,902	0	1016,28	6,8	9	8,7	1	1	1	1	1	1	1	1	1	0	1	-10,359408	274,07163	309,559118	0
15.01.2021	18:22:01	0	0	4,632203	0,98175	339,0948	0,272	84,892	0	1016,36	6,8	9	8,7	1	1	1	1	1	1	1	1	1	0	1	-15,010571	273,986879	304,512425	0
15.01.2021	18:22:02	0	0	5,536048	0,95625	336,1068	0,27	84,9	0	1016,38	6,8	9	8,7	1	1	1	1	1	1	1	1	1	0	1	-13,742072	274,116386	306,385476	0
15.01.2021	18:22:03	0	0	4,632203	0,924	328,9608	0,264	84,893	0	1016,44	6,8	8,8	8,7	1	1	1	1	1	1	1	1	1	0	1	-14,728682	273,967602	304,704399	0
15.01.2021	18:22:04	0	0	4,745184	0,82725	324,0972	0,267	84,885	0	1016,4	6,8	9,1	8,7	1	1	1	1	1	1	1	1	1	0	1	-13,248767	274,123856	306,913676	0
15.01.2021	18:22:05	0	0	2,824531	0,921	318,7656	0,268	84,898	0	1016,54	6,8	8,8	8,6	1	1	1	1	1	1	1	1	1	0	1	-9,372798	274,128339	310,810589	0
15.01.2021	18:22:06	0	0	4,858164	1,0815	324,3996	0,263	84,895	0	1016,36	6,8	9	8,7	1	1	1	1	1	1	1	1	1	0	1	-9,654686	274,031438	310,07622	0
15.01.2021	18:22:07	0	0	2,937495	1,18875	324,3564	0,27	84,897	0	1016,52	6,8	9	8,7	1	1	1	1	1	1	1	1	1	0	1	-8,668076	273,986879	310,85492	0
15.01.2021	18:22:08	0	0	4,632203	1,2375	324,7272	0,264	84,885	0	1016,4	6,8	9	8,7	1	1	1	1	1	1	1	1	1	0	1	-12,544045	274,141794	307,702211	0
15.01.2021	18:22:09	0	0	4,519195	1,2345	315,8244	0,269	84,897	0	1016,4	6,8	9	8,8	1	1	1	1	1	1	1	1	1	0	1	-11,205074	274,146281	309,06215	0
15.01.2021	18:22:10	0	0	3,615378	1,28025	320,7636	0,27	84,893	0	1016,42	6,8	9	8,7	1	1	1	1	1	1	1	1	1	0	1	-11,06413	274,07312	308,861354	0
15.01.2021	18:22:11	0	0	4,971145	1,32525	324,7056	0,275	84,896	0	1016,38	6,8	9	8,7	1	1	1	1	1	1	1	1	1	0	1	-8,104299	274,153762	312,197885	0
15.01.2021	18:22:12	0	0	4,406163	1,332	336,3372	0,268	84,869	0	1016,52	6,8	9	9	1	1	1	1	1	1	1	1	1	0	1	-13,03735	274,06567	306,85335	0
15.01.2021	18:22:13	0	0	4,406242	1,29075	321,8976	0,27	84,897	0	1016,32	6,8	9	8,7	1	1	1	1	1	1	1	1	1	0	1	-12,191684	273,992814	307,358999	0
15.01.2021	18:22:14	0	0	4,406242	1,2045	317,7324	0,264	84,888	0	1016,14	6,8	9	8,7	1	1	1	1	1	1	1	1	1	0	1	-13,601128	274,099963	306,449711	0
15.01.2021	18:22:15	0	0	4,0673	1,11975	320,7456	0,281	84,878	0	1016,54	6,7	9	8,7	1	1	1	1	1	1	1	1	1	0	1	-14,446794	274,167235	305,91836	0
15.01.2021	18:22:16	0	0	2,598553	1,18425	298,2528	0,269	84,896	0	1016,24	6,8	8,8	8,7	1	1	1	1	1	1	1	1	1	0	1	-11,557435	274,096979	308,479465	0
15.01.2021	18:22:17	0	0	3,615378	1,3125	303,5088	0,272	84,897	0	1016,3	6,8	9	8,7	1	1	1	1	1	1	1	1	1	0	1	-11,275546	274,165738	309,082608	0
15.01.2021	18:22:18	0	0	4,632203	1,3485	313,2288	0,266	84,899	0	1016,42	6,8	9	8,7	1	1	1	1	1	1	1	1	1	0	1	-12,966878	274,101456	307,090931	0
15.01.2021	18:22:19	0	0	2,598553	1,29375	302,0076	0,267	84,889	0	1016,36	6,8	9	8,7	1	1	1	1	1	1	1	1	1	0	1	-10,288936	273,983912	309,22022	0
15.01.2021	18:22:20	0	0	4,180281	1,221	308,4516	0,266	84,885	0	1016,38	6,7	9	8,7	1	1	1	1	1	1	1	1	1	0	1	-10,711769	274,056734	309,137213	0
15.01.2021	18:22:21	0	0	3,502398	1,17075	300,4632	0,271	84,905	0	1016,32	6,8	9	8,7	1	1	1	1	1	1	1	1	1	0	1	-6,906272	273,977979	312,575211	0
15.01.2021	18:22:22	0	0	2,485572	1,1145	302,8104	0,271	84,891	0	1016,4	6,8	9	8,7	1	1	1	1	1	1	1	1	1	0	1	-10,923185	273,997267	308,648271	0
15.01.2021	18:22:23	0	0	3,163456	1,04925	306,7668	0,275	84,885	0	1016,52	6,8	9	8,7	1	1	1	1	1	1	1	1	1	0	1	-15,362932	274,088029	304,632168	0
15.01.2021	18:22:24	0	0	2,598553	1,00725	309,4596	0,273	84,881	0	1016,44	6,7	8,8	8,7	1	1	1	1	1	1	1	1	1	0	1	-14,446794	274,00766	305,173155	0
15.01.2021	18:22:25	0	0	4,632203	0,9615	308,4696	0,271	84,887	0	1016,46	6,8	9	8,7	1	1	1	1	1	1	1	1	1	0	1	-5,990134	273,980945	313,505184	0
15.01.2021	18:22:26	0	0	3,502398	0,9045	312,192	0,275	84,89	0	1016,38	6,8	9	8,7	1	1	1	1	1	1	1	1	1	0	1	-11,980268	274,076101	307,959134	0
15.01.2021	18:22:27	0	0	4,293236	0,951	314,7948	0,267	84,889	0	1016,38	6,8	8,7	8,8	1	1	1	1	1	1	1	1	1	0	1	-12,191684	274,158252	308,131483	0
15.01.2021	18:22:28	0	0	4,0673	1,03425	312,4692	0,271	84,88	0	1016,52	6,8	9,1	8,7	1	1	1	1	1	1	1	1	1	0	1	-13,178295	274,064181	306,705451	0
15.01.2021	18:22:29	0	0	3,95432	1,1865	327,0888	0,268	84,888	0	1016,36	6,8	9,2	8,7	1	1	1	1	1	1	1	1	1	0	1	-8,033827	273,989846	311,503012	0
15.01.2021	18:22:30	0	0	3,163456	1,308	325,9404	0,269	84,894	0	1016,54	6,8	9	8,7	1	1	1	1	1	1	1	1	1	0	1	-7,82241	274,074611	312,110032	0
15.01.2021	18:22:31	0	0	2,598537	1,404	311,0256	0,268	84,901	0	1016,5	6,8	9	8,8	1	1	1	1	1	1	1	1	1	0	1	-13,178295	273,977979	306,303189	0
15.01.2021	18:22:32	0	0	2,937495	1,4175	313,6248	0,268	84,883	0	1016,48	6,8	9,1	8,7	1	1	1	1	1	1	1	1	1	0	1	-11,06413	274,101456	308,993679	0
15.01.2021	18:22:33	0	0	2,485572	1,37775	318,9204	0,267	84,899	0	1016,5	6,8	9	8,7	1	1	1	1	1	1	1	1	1	0	1	-8,597604	273,982429	310,904633	0
15.01.2021	18:22:34	0	0	4,406242	1,28025	316,3392	0,268	84,88	0	1016,4	6,8	8,8	8,7	1	1	1	1	1	1	1	1	1	0	1	-9,020437	274,096979	311,016463	0
15.01.2021	18:22:35	0	0	3,389417	1,21275	323,3556	0,271	84,879	0	1016,3	6,8	8,8	8,7	1	1	1	1	1	1	1	1	1	0	1	-7,047216	273,983912	312,461939	0
15.01.2021	18:22:36	0	0	3,163456	1,176	310,3272	0,273	84,892	0	1016,44	6,8	9	8,7	1	1	1	1	1	1	1	1	1	0	1	-14,094433	274,092503	305,921564	0
15.01.2021	18:22:37	0	0	3,276417	1,1355	309,5532	0,275	84,885	0	1016,5	6,8	9	8,8	1	1	1	1	1	1	1	1	1	0	1	-12,403101	273,975014	307,06455	0
15.01.2021	18:22:38	0	0	3,050457	1,089	319,1796	0,273	84,893	0	1016,42	6,8	9	8,8	1	1	1	1	1	1	1	1	1	0	1	-12,896406	274,085046	307,084765	0
15.01.2021	18:22:39	0	0	4,51925	1,044	320,7384	0,265	84,89	0	1016,36	6,8	9	8,6	1	1	1	1	1	1	1	1	1	0	1	-13,530655	274,153762	306,771528	0
15.01.2021	18:22:40	0	0	2,824514	1,035	312,0804	0,272	84,874	0	1016,36	6,8	9	8,7	1	1	1	1	1	1	1	1	1	0	1	-13,107822	274,031438	306,623084	0
15.01.2021	18:22:41	0	0	4,858164	1,023	317,3976	0,273	84,897	0	1016,54	6,8	9,1	8,7	1	1	1	1	1	1	1	1	1	0	1	-12,262156	274,155259	308,047021	0
15.01.2021	18:22:42	0	0	4,180281	0,9645	330,7644	0,266	84,895	0	1016,36	6,7	9	8,7	1	1	1	1	1	1	1	1	1	0	1	-15,926709	274,134318	304,284613	0
15.01.2021	18:22:43	0	0	4,971145	1,0065	315,18	0,274	84,891	0	1016,44	6,7	8,7	8,7	1	1	1	1	1	1	1	1	1	0	1	-11,346018	274,003205	308,253144	0
15.01.2021	18:22:44	0	0	3,728359	0,996	312,57	0,271	84,903	0	1016,34	6,8	9,1	8,7	1	1	1	1	1	1	1	1	1	0	1	-12,191684	274,170231	308,187469	0
15.01.2021	18:22:45	0	0	4,971145	0,99675	332,8344	0,273	84,891	0	1016,52	6,8	8,8	8,7	1	1	1	1	1	1	1	1	1	0	1	-10,711769	274,122361	309,443694	0
15.01.2021	18:22:46	0	0	3,389417	1,0515	324,4068	0,277	84,888	0	1016,38	6,7	9	8,7	1	1	1	1	1	1	1	1	1	0	1	-12,473573	274,024005	307,222642	0
15.01.2021	18:22:47	0	0	3,728359	1,10475	324,7056	0,277	84,894	0	1016,48	6,8	9	8,7	1	1	1	1	1	1	1	1	1	0	1	-12,332629	274,156756	307,983544	0
15.01.2021	18:22:48	0	0	3,389397	1,0755	336,1032	0,269	84,887	0	1016,48	6,8	8,6	8,8	1	1	1	1	1	1	1	1	1	0	1	-11,839323	274,08952	308,162741	0
15.01.2021	18:22:49	0	0	4,406242	1,09875	327,4488	0,272	84,891	0	1016,44	6,8	9	8,7	1	1	1	1	1	1	1	1	1	0	1	-9,936575	274,155259	310,372603	0
15.01.2021	18:22:50	0	0	4,51925	1,032	321,1848	0,274	84,897	0	1016,36	6,8	9	8,6	1	1	1	1	1	1	1	1	1	0	1	-11,698379	274,149273	308,582827	0
15.01.2021	18:22:51	0	0	4,519195	0,98175	326,4408	0,267	84,884	0	1016,42	6,8	9	8,8	1	1	1	1	1	1	1	1	1	0	1	-7,681466	274,01806	311,987007	0
15.01.2021	18:22:52	0	0	3,050475	0,88575	315,2124	0,269	84,907	0	1016,38	6,8	9,1	8,7	1	1	1	1	1	1	1	1	1	0	1	-13,812544	274,031438	305,918363	0
15.01.2021	18:22:53	0	0	4,180281	0,813	332,0496	0,273	84,904	0	1016,52	6,8	8,8	8,7	1	1	1	1	1	1	1	1	1	0	1	-12,896406	274,147777	307,377809	0
15.01.2021	18:22:54	0	0	4,180281	0,8145	340,2	0,275	84,903	0	1016,58	6,8	9	8,7	1	1	1	1	1	1	1	1	1	0	1	-11,980268	274,105934	308,098456	0
15.01.2021	18:22:55	0	0	4,971145	0,786	328,9896	0,275	84,903	0	1016,4	6,8	9	8,7	1	1	1	1	1	1	1	1	1	0	1	-9,513742	274,128339	310,669645	0
15.01.2021	18:22:56	0	0	3,163456	0,81075	324,1332	0,274	84,895	0	1016,4	6,8	9	8,7	1	1	1	1	1	1	1	1	1	0	1	-12,684989	274,012117	306,955751	0
15.01.2021	18:22:57	0	0	3,728359	0,846	333,198	0,273	84,887	0	1016,56	6,7	9	8,7	1	1	1	1	1	1	1	1	1	0	1	-8,597604	274,152266	311,697587	0
15.01.2021	18:22:58	0	0	2,372592	0,8805	330,3612	0,269	84,889	0	1016,38	6,8	8,8	8,7	1	1	1	1	1	1	1	1	1	0	1	-13,03735	274,119373	307,104154	0
15.01.2021	18:22:59	0	0	3,954296	0,99675	318,834	0,263	84,888	0	1016,4	6,8	9	8,8	1	1	1	1	1	1	1	1	1	0	1	-12,403101	274,14329	307,850144	0
15.01.2021	18:23:00	0	0	4,632203	1,15275	338,6664	0,269	84,895	0	1016,4	6,7	9	8,7	1	1	1	1	1	1	1	1	1	0	1	-8,174771	274,161246	312,162389	0
15.01.2021	18:23:01	0	0	4,632203	1,15275	338,6664	0,269	84,895	0	1016,4	6,7	9	8,7	1	1	1	1	1	1	1	1	1	0	1	-12,544045	274,038875	307,22157	0
15.01.2021	18:23:02	0	0	2,937477	1,21275	332,7336	0,271	84,896	0	1016,48	6,8	9	8,8	1	1	1	1	1	1	1	1	1	0	1	-6,765328	274,001721	312,826907	0
15.01.2021	18:23:03	0	0	2,598553	1,24425	333,1188	0,274	84,903	0	1016,38	6,8	9	8,7	1	1	1	1	1	1	1	1	1	0	1	-8,386187	274,153762	311,915996	0
15.01.2021	18:23:04	0	0	4,971145	1,29375	340,5492	0,268	84,899	0	1016,52	6,7	9	8,7	1	1	1	1	1	1	1	1	1	0	1	-9,161381	274,099963	310,889457	0
15.01.2021	18:23:05	0	0	3,276436	1,266	328,5432	0,271	84,912	0	1016,44	6,8	8,7	8,7	1	1	1	1	1	1	1	1	1	0	1	-10,500352	273,970566	308,946555	0
15.01.2021	18:23:06	0	0	4,067325	1,23	321,822	0,273	84,907	0	1016,44	6,8	8,7	8,6	1	1	1	1	1	1	1	1	1	0	1	-7,047216	274,055245	312,794815	0
15.01.2021	18:23:07	0	0	3,841362	1,22325	317,0376	0,274	84,907	0	1016,46	6,8	9	8,6	1	1	1	1	1	1	1	1	1	0	1	-15,433404	274,159749	304,89676	0
15.01.2021	18:23:08	0	0	2,598537	1,1955	320,0616	0,273	84,904	0	1016,42	6,8	9	8,8	1	1	1	1	1	1	1	1	1	0	1	-8,315715	274,043338	311,470733	0
15.01.2021	18:23:09	0	0	2,711517	1,23075	344,25	0,27	84,91	0	1016,4	6,8	9	8,8	1	1	1	1	1	1	1	1	1	0	1	-11,557435	274,000236	308,027873	0
15.01.2021	18:23:10	0	0	2,711534	1,3305	337,5288	0,276	84,907	0	1016,46	6,8	8,8	8,7	1	1	1	1	1	1	1	1	1	0	1	-10,147992	274,029951	309,575976	0
15.01.2021	18:23:11	0	0	4,632203	1,335	330,1272	0,273	84,913	0	1016,52	6,7	9	8,7	1	1	1	1	1	1	1	1	1	0	1	-13,601128	274,149273	306,680078	0
15.01.2021	18:23:12	0	0	4,0673	1,30575	351,0396	0,269	84,905	0	1016,5	6,8	9	8,7	1	1	1	1	1	1	1	1	1	0	1	-12,896406	274,034413	306,848382	0
15.01.2021	18:23:13	0	0	4,745184	1,287	345,7152	0,275	84,904	0	1016,52	6,8	9,1	8,7	1	1	1	1	1	1	1	1	1	0	1	-11,346018	273,982429	308,156218	0
15.01.2021	18:23:14	0	0	3,163456	1,29075	344,6532	0,272	84,905	0	1016,34	6,8	9	8,7	1	1	1	1	1	1	1	1	1	0	1	-10,852713	274,129833	309,337657	0
15.01.2021	18:23:15	0	0	3,163437	1,2105	346,0608	0,271	84,902	0	1016,44	6,8	9	8,8	1	1	1	1	1	1	1	1	1	0	1	-13,248767	273,983912	306,260389	0
15.01.2021	18:23:16	0	0	4,180281	1,1625	339,4476	0,268	84,896	0	1016,38	6,8	8,8	8,7	1	1	1	1	1	1	1	1	1	0	1	-17,618041	274,123856	302,544402	0
15.01.2021	18:23:17	0	0	4,180281	1,1295	332,8344	0,267	84,901	0	1016,46	6,7	9	8,7	1	1	1	1	1	1	1	1	1	0	1	-11,134602	274,031438	308,596305	0
15.01.2021	18:23:18	0	0	4,745212	1,1295	336,06	0,268	84,892	0	1016,48	6,8	9	8,6	1	1	1	1	1	1	1	1	1	0	1	-9,725159	274,159749	310,605005	0
15.01.2021	18:23:19	0	0	4,406268	1,06725	342,0072	0,273	84,908	0	1016,3	6,8	8,8	8,6	1	1	1	1	1	1	1	1	1	0	1	-11,41649	274,052268	308,411641	0
15.01.2021	18:23:20	0	0	4,519195	1,06275	343,1304	0,272	84,902	0	1016,38	6,8	9,1	8,8	1	1	1	1	1	1	1	1	1	0	1	-9,936575	274,123856	310,225868	0
15.01.2021	18:23:21	0	0	4,971145	1,07175	335,3076	0,269	84,901	0	1016,4	6,8	8,8	8,7	1	1	1	1	1	1	1	1	1	0	1	-13,601128	274,026978	306,108962	0
15.01.2021	18:23:22	0	0	4,745212	1,092	334,1124	0,269	84,892	0	1016,4	6,8	9,1	8,6	1	1	1	1	1	1	1	1	1	0	1	-10,42988	273,977979	309,051603	0
15.01.2021	18:23:23	0	0	4,632231	1,074	327,0492	0,272	84,893	0	1016,48	6,7	8,8	8,6	1	1	1	1	1	1	1	1	1	0	1	-15,926709	274,056734	303,922273	0
15.01.2021	18:23:24	0	0	4,858135	1,13175	327,7116	0,272	84,907	0	1016,3	6,8	8,7	8,8	1	1	1	1	1	1	1	1	1	0	1	-10,077519	274,140298	310,161748	0
15.01.2021	18:23:25	0	0	3,163475	1,182	335,6208	0,272	84,902	0	1016,5	6,8	9,1	8,6	1	1	1	1	1	1	1	1	1	0	1	-15,081043	274,061202	304,788795	0
15.01.2021	18:23:26	0	0	2,372578	1,22625	329,6988	0,27	84,892	0	1016,36	6,8	8,7	8,8	1	1	1	1	1	1	1	1	1	0	1	-10,570825	273,986879	308,952171	0
15.01.2021	18:23:27	0	0	4,632231	1,22025	325,5732	0,273	84,898	0	1016,36	6,8	8,7	8,6	1	1	1	1	1	1	1	1	1	0	1	-11,41649	274,091012	308,59254	0
15.01.2021	18:23:28	0	0	2,711534	1,1835	314,424	0,273	84,901	0	1016,4	6,8	8,8	8,7	1	1	1	1	1	1	1	1	1	0	1	-11,205074	273,969084	308,23492	0
15.01.2021	18:23:29	0	0	4,406268	1,0755	325,6056	0,268	84,898	0	1016,46	6,8	8,8	8,6	1	1	1	1	1	1	1	1	1	0	1	-10,923185	274,11788	309,211341	0
15.01.2021	18:23:30	0	0	4,745155	1,0905	330,0192	0,275	84,898	0	1016,5	6,8	8,7	8,8	1	1	1	1	1	1	1	1	1	0	1	-14,940099	273,99133	304,603662	0
15.01.2021	18:23:31	0	0	2,937495	1,095	334,566	0,272	84,906	0	1016,44	6,7	9	8,7	1	1	1	1	1	1	1	1	1	0	1	-10,359408	274,107427	309,726289	0
15.01.2021	18:23:32	0	0	2,598569	1,0845	324,7956	0,278	84,911	0	1016,38	6,7	9	8,6	1	1	1	1	1	1	1	1	1	0	1	-12,825934	274,140298	307,413334	0
15.01.2021	18:23:33	0	0	2,824497	1,07025	328,5288	0,272	84,891	0	1016,62	6,8	8,8	8,8	1	1	1	1	1	1	1	1	1	0	1	-7,540521	274,025491	312,16263	0
15.01.2021	18:23:34	0	0	3,728381	1,089	328,6332	0,267	84,897	0	1016,4	6,8	8,8	8,6	1	1	1	1	1	1	1	1	1	0	1	-11,275546	273,96612	308,150624	0
15.01.2021	18:23:35	0	0	4,858193	1,11	321,0408	0,277	84,913	0	1016,42	6,8	9	8,6	1	1	1	1	1	1	1	1	1	0	1	-11,768851	274,104441	308,3029	0
15.01.2021	18:23:36	0	0	4,293158	1,113	323,6796	0,276	84,902	0	1016,46	6,8	9	9,1	1	1	1	1	1	1	1	1	1	0	1	-12,262156	274,131328	307,935197	0
15.01.2021	18:23:37	0	0	2,824514	1,06275	323,3556	0,273	84,911	0	1016,62	6,7	9	8,7	1	1	1	1	1	1	1	1	1	0	1	-8,527132	273,975014	310,940519	0
15.01.2021	18:23:38	0	0	3,954296	1,05075	318,1248	0,277	84,901	0	1016,4	6,7	9	8,8	1	1	1	1	1	1	1	1	1	0	1	-14,094433	274,026978	305,615657	0
15.01.2021	18:23:39	0	0	2,71155	1,07175	325,5228	0,276	84,905	0	1016,44	6,7	9	8,6	1	1	1	1	1	1	1	1	1	0	1	-11,909796	274,149273	308,37141	0
15.01.2021	18:23:40	0	0	4,067325	1,092	329,418	0,278	84,91	0	1016,4	6,8	8,7	8,6	1	1	1	1	1	1	1	1	1	0	1	-16,560958	274,047803	303,246329	0
15.01.2021	18:23:41	0	0	3,050475	1,05225	339,3792	0,276	84,902	0	1016,42	6,8	8,7	8,7	1	1	1	1	1	1	1	1	1	0	1	-12,262156	273,958711	307,129463	0
15.01.2021	18:23:42	0	0	4,293287	1,032	337,986	0,268	84,905	0	1016,42	6,7	9	8,6	1	1	1	1	1	1	1	1	1	0	1	-7,610994	274,055245	312,231038	0
15.01.2021	18:23:43	0	0	3,954344	0,97125	333,1548	0,278	84,912	0	1016,38	6,7	8,8	8,6	1	1	1	1	1	1	1	1	1	0	1	-11,275546	274,146281	308,991678	0
15.01.2021	18:23:44	0	0	3,502398	0,92025	323,6868	0,272	84,905	0	1016,38	6,7	9	8,7	1	1	1	1	1	1	1	1	1	0	1	-6,8358	274,034413	312,908988	0
15.01.2021	18:23:45	0	0	3,615378	0,90525	313,6176	0,275	84,907	0	1016,48	6,7	8,7	8,7	1	1	1	1	1	1	1	1	1	0	1	-10,500352	274,095487	309,529579	0
15.01.2021	18:23:46	0	0	3,502398	0,87675	310,2732	0,275	84,91	0	1016,48	6,8	9	8,7	1	1	1	1	1	1	1	1	1	0	1	-7,329105	273,967602	312,103977	0
15.01.2021	18:23:47	0	0	3,95432	0,88575	313,236	0,275	84,888	0	1016,42	6,8	8,7	8,7	1	1	1	1	1	1	1	1	1	0	1	-11,909796	274,083555	308,064412	0
15.01.2021	18:23:48	0	0	4,858164	0,87225	311,004	0,269	84,899	0	1016,42	6,8	9,2	8,7	1	1	1	1	1	1	1	1	1	0	1	-7,751938	274,15077	312,53626	0
15.01.2021	18:23:49	0	0	4,406268	0,9	316,908	0,272	84,897	0	1016,48	6,8	9,2	8,6	1	1	1	1	1	1	1	1	1	0	1	-7,047216	274,06716	312,850439	0
15.01.2021	18:23:50	0	0	2,485572	0,92475	314,8488	0,277	84,906	0	1016,4	6,7	8,8	8,7	1	1	1	1	1	1	1	1	1	0	1	-11,06413	273,975014	308,403521	0
15.01.2021	18:23:51	0	0	2,71155	0,9825	310,6656	0,276	84,902	0	1016,48	6,7	9,1	8,6	1	1	1	1	1	1	1	1	1	0	1	-11,980268	274,032925	307,757579	0
15.01.2021	18:23:52	0	0	3,389356	1,04775	312,4548	0,278	84,901	0	1016,44	6,7	8,7	9	1	1	1	1	1	1	1	1	1	0	1	-10,007047	274,141794	310,239209	0
15.01.2021	18:23:53	0	0	5,084156	1,03575	315,1944	0,277	84,907	0	1016,5	6,8	9,1	8,6	1	1	1	1	1	1	1	1	1	0	1	-12,684989	274,096979	307,35191	0
15.01.2021	18:23:54	0	0	4,632175	1,05675	311,7024	0,274	84,905	0	1016,46	6,7	8,7	8,8	1	1	1	1	1	1	1	1	1	0	1	-11,839323	274,15077	308,448874	0
15.01.2021	18:23:55	0	0	3,615378	1,09275	312,8472	0,28	84,903	0	1016,46	6,7	8,7	8,7	1	1	1	1	1	1	1	1	1	0	1	-9,725159	274,028464	309,991869	0
15.01.2021	18:23:56	0	0	3,389437	1,0785	316,5876	0,274	84,892	0	1016,28	6,8	9,1	8,6	1	1	1	1	1	1	1	1	1	0	1	-10,711769	274,108919	309,380902	0
15.01.2021	18:23:57	0	0	3,615356	1,08075	315,918	0,274	84,907	0	1016,36	6,7	9,1	8,8	1	1	1	1	1	1	1	1	1	0	1	-11,134602	274,101456	308,923207	0
15.01.2021	18:23:58	0	0	2,71155	1,11	313,3656	0,277	84,902	0	1016,48	6,8	8,7	8,6	1	1	1	1	1	1	1	1	1	0	1	-11,980268	273,961674	307,42517	0
15.01.2021	18:23:59	0	0	3,276417	1,04475	325,1232	0,28	84,908	0	1016,46	6,7	8,8	8,8	1	1	1	1	1	1	1	1	1	0	1	-11,41649	274,046314	308,38385	0
15.01.2021	18:24:00	0	0	2,937495	0,98925	330,0948	0,271	84,902	0	1016,46	6,7	8,8	8,7	1	1	1	1	1	1	1	1	1	0	1	-6,342495	274,129833	313,847875	0
15.01.2021	18:24:01	0	0	2,937495	0,98925	330,0948	0,271	84,902	0	1016,46	6,7	8,8	8,7	1	1	1	1	1	1	1	1	1	0	1	-6,342495	274,129833	313,847875	0
15.01.2021	18:24:02	0	0	4,858193	0,98325	337,5432	0,272	84,887	0	1016,48	6,8	9	8,6	1	1	1	1	1	1	1	1	1	0	1	-9,584214	274,000236	310,001094	0
15.01.2021	18:24:03	0	0	3,276456	1,00425	328,572	0,277	84,897	0	1016,42	6,7	9,1	8,6	1	1	1	1	1	1	1	1	1	0	1	-12,05074	273,983912	307,458416	0
15.01.2021	18:24:04	0	0	4,971175	1,0245	309,9204	0,277	84,904	0	1016,46	6,7	9	8,6	1	1	1	1	1	1	1	1	1	0	1	-7,751938	273,973531	311,708798	0
15.01.2021	18:24:05	0	0	2,711566	1,1205	321,2424	0,278	84,902	0	1016,4	6,7	9,2	8,5	1	1	1	1	1	1	1	1	1	0	1	-8,315715	274,086537	311,672419	0
15.01.2021	18:24:06	0	0	4,519195	1,22475	319,2336	0,278	84,894	0	1016,4	6,7	8,8	8,8	1	1	1	1	1	1	1	1	1	0	1	-8,949965	274,098471	311,093904	0
15.01.2021	18:24:07	0	0	3,163437	1,26525	317,772	0,275	84,897	0	1016,32	6,8	9,1	8,8	1	1	1	1	1	1	1	1	1	0	1	-15,785765	274,147777	304,48845	0
15.01.2021	18:24:08	0	0	3,954344	1,18425	329,7204	0,274	84,893	0	1016,34	6,8	9	8,6	1	1	1	1	1	1	1	1	1	0	1	-10,570825	274,015088	309,083781	0
15.01.2021	18:24:09	0	0	3,163437	1,143	329,6808	0,27	84,888	0	1016,3	6,7	9,1	8,8	1	1	1	1	1	1	1	1	1	0	1	-10,147992	273,960193	309,250537	0
15.01.2021	18:24:10	0	0	3,502334	1,215	303,2532	0,275	84,902	0	1016,34	6,8	8,7	9	1	1	1	1	1	1	1	1	1	0	1	-11,06413	274,01806	308,604343	0
15.01.2021	18:24:11	0	0	2,824514	1,30125	312,858	0,274	84,882	0	1016,28	6,8	8,7	8,7	1	1	1	1	1	1	1	1	1	0	1	-11,205074	274,137308	309,02022	0
15.01.2021	18:24:12	0	0	3,276377	1,41375	316,728	0,277	84,898	0	1016,48	6,7	8,8	9	1	1	1	1	1	1	1	1	1	0	1	-10,711769	274,07163	309,206757	0
15.01.2021	18:24:13	0	0	4,519195	1,44375	318,402	0,274	84,895	0	1016,4	6,8	9	8,8	1	1	1	1	1	1	1	1	1	0	1	-9,161381	274,140298	311,077887	0
15.01.2021	18:24:14	0	0	4,406163	1,47075	330,1092	0,274	84,893	0	1016,54	6,7	9	9	1	1	1	1	1	1	1	1	1	0	1	-14,235377	274,061202	305,634461	0
15.01.2021	18:24:15	0	0	2,824514	1,425	328,878	0,278	84,898	0	1016,32	6,7	8,6	8,7	1	1	1	1	1	1	1	1	1	0	1	-9,584214	273,963156	309,828133	0
15.01.2021	18:24:16	0	0	3,728381	1,33575	322,9344	0,277	84,887	0	1016,22	6,8	9,1	8,6	1	1	1	1	1	1	1	1	1	0	1	-13,389711	274,053757	306,44537	0
15.01.2021	18:24:17	0	0	4,067349	1,3425	327,798	0,277	84,901	0	1016,6	6,7	8,8	8,5	1	1	1	1	1	1	1	1	1	0	1	-11,41649	274,156756	308,899682	0
15.01.2021	18:24:18	0	0	4,971115	1,33425	317,0844	0,27	84,884	0	1016,26	6,7	8,8	8,8	1	1	1	1	1	1	1	1	1	0	1	-9,795631	274,06716	310,102025	0
15.01.2021	18:24:19	0	0	3,502376	1,29225	316,6956	0,279	84,901	0	1016,32	6,7	9,1	8,8	1	1	1	1	1	1	1	1	1	0	1	-12,191684	274,131328	308,005669	0
15.01.2021	18:24:20	0	0	2,598537	1,22775	317,7432	0,275	84,879	0	1016,46	6,8	9	8,8	1	1	1	1	1	1	1	1	1	0	1	-6,624383	273,988363	312,905533	0
15.01.2021	18:24:21	0	0	2,824514	1,2	296,1	0,274	84,899	0	1016,54	6,7	8,8	8,7	1	1	1	1	1	1	1	1	1	0	1	-12,755462	274,137308	307,469832	0
15.01.2021	18:24:22	0	0	4,63212	1,18575	299,4192	0,27	84,889	0	1016,38	6,7	9,2	9	1	1	1	1	1	1	1	1	1	0	1	-7,751938	274,082064	312,215307	0
15.01.2021	18:24:23	0	0	2,485528	1,2165	313,6788	0,273	84,885	0	1016,5	6,8	8,8	9	1	1	1	1	1	1	1	1	1	0	1	-10,923185	273,961674	308,482252	0
15.01.2021	18:24:24	0	0	4,406242	1,2135	331,9812	0,275	84,883	0	1016,44	6,7	8,7	8,7	1	1	1	1	1	1	1	1	1	0	1	-8,879493	274,101456	311,178316	0
15.01.2021	18:24:25	0	0	3,163475	1,16625	338,0436	0,276	84,897	0	1016,6	6,8	8,7	8,6	1	1	1	1	1	1	1	1	1	0	1	-7,82241	274,14329	312,430834	0
15.01.2021	18:24:26	0	0	3,841339	1,11075	336,852	0,27	84,881	0	1016,4	6,7	9	8,7	1	1	1	1	1	1	1	1	1	0	1	-14,305849	274,013602	305,341823	0
15.01.2021	18:24:27	0	0	2,711517	1,10475	326,43	0,279	84,878	0	1016,48	6,8	8,8	8,8	1	1	1	1	1	1	1	1	1	0	1	-8,033827	273,970566	311,413081	0
15.01.2021	18:24:28	0	0	3,502398	1,13325	334,7244	0,276	84,888	0	1016,6	6,7	8,7	8,7	1	1	1	1	1	1	1	1	1	0	1	-11,768851	274,096979	308,268048	0
15.01.2021	18:24:29	0	0	3,615378	1,07625	339,2064	0,274	84,88	0	1016,4	6,7	9,1	8,7	1	1	1	1	1	1	1	1	1	0	1	-9,725159	274,055245	310,116873	0
15.01.2021	18:24:30	0	0	4,406242	1,0425	328,212	0,28	84,887	0	1016,46	6,7	9	8,7	1	1	1	1	1	1	1	1	1	0	1	-7,470049	273,985395	312,046026	0
15.01.2021	18:24:31	0	0	3,728403	1,00125	334,9584	0,275	84,872	0	1016,22	6,7	9,1	8,5	1	1	1	1	1	1	1	1	1	0	1	-10,147992	274,101456	309,909817	0
15.01.2021	18:24:32	0	0	3,84127	0,99525	335,736	0,271	84,873	0	1016,32	6,8	9,1	9	1	1	1	1	1	1	1	1	1	0	1	-14,305849	274,091012	305,703181	0
15.01.2021	18:24:33	0	0	2,711534	0,97725	333,4932	0,271	84,873	0	1016,3	6,7	9,1	8,7	1	1	1	1	1	1	1	1	1	0	1	-16,842847	273,977979	302,638636	0
15.01.2021	18:24:34	0	0	4,180306	0,96825	333,9648	0,274	84,885	0	1016,34	6,7	8,7	8,6	1	1	1	1	1	1	1	1	1	0	1	-8,245243	274,010631	311,388566	0
15.01.2021	18:24:35	0	0	2,824531	0,903	336,42	0,274	84,877	0	1016,54	6,7	9,1	8,6	1	1	1	1	1	1	1	1	1	0	1	-13,319239	273,970566	306,127669	0
15.01.2021	18:24:36	0	0	2,824514	0,8895	336,1608	0,295	84,885	0	1016,6	6,7	8,8	8,7	1	1	1	1	1	1	1	1	1	0	1	-9,44327	274,111906	310,66335	0
15.01.2021	18:24:37	0	0	3,615378	0,909	325,548	0,277	84,876	0	1016,36	6,7	9	8,7	1	1	1	1	1	1	1	1	1	0	1	-7,117689	274,153762	313,184495	0
15.01.2021	18:24:38	0	0	2,824514	0,894	313,2576	0,297	84,887	0	1016,62	6,8	8,8	8,7	1	1	1	1	1	1	1	1	1	0	1	-8,668076	274,056734	311,180906	0
15.01.2021	18:24:39	0	0	4,406242	0,9135	297,918	0,28	84,887	0	1016,5	6,8	8,8	8,7	1	1	1	1	1	1	1	1	1	0	1	-13,601128	274,138803	306,631153	0
15.01.2021	18:24:40	0	0	4,745155	0,9675	312,4044	0,276	84,882	0	1016,52	6,7	9,1	8,8	1	1	1	1	1	1	1	1	1	0	1	-11,980268	274,131328	308,217086	0
15.01.2021	18:24:41	0	0	3,050475	1,07775	316,2816	0,276	84,859	0	1016,38	6,7	9	8,7	1	1	1	1	1	1	1	1	1	0	1	-6,342495	274,015088	313,31211	0
15.01.2021	18:24:42	0	0	2,711534	1,182	320,4468	0,266	84,868	0	1016,36	6,7	8,8	8,7	1	1	1	1	1	1	1	1	1	0	1	-14,65821	273,973531	304,802526	0
15.01.2021	18:24:43	0	0	3,615356	1,23975	326,16	0,271	84,874	0	1016,4	6,7	9,1	8,8	1	1	1	1	1	1	1	1	1	0	1	-12,121212	274,013602	307,52646	0
15.01.2021	18:24:44	0	0	2,259598	1,3215	322,6896	0,278	84,874	0	1016,28	6,7	9	8,8	1	1	1	1	1	1	1	1	1	0	1	-13,389711	273,980945	306,105607	0
15.01.2021	18:24:45	0	0	2,711566	1,37625	324,7668	0,272	84,876	0	1016,34	6,8	9,1	8,5	1	1	1	1	1	1	1	1	1	0	1	-7,610994	274,034413	312,133795	0
15.01.2021	18:24:46	0	0	2,372606	1,416	326,4048	0,275	84,858	0	1016,5	6,8	9,1	8,6	1	1	1	1	1	1	1	1	1	0	1	-11,275546	273,96612	308,150624	0
15.01.2021	18:24:47	0	0	2,598553	1,47375	324,5364	0,274	84,864	0	1016,26	6,7	9	8,7	1	1	1	1	1	1	1	1	1	0	1	-8,949965	274,010631	310,683844	0
15.01.2021	18:24:48	0	0	3,389417	1,48725	332,838	0,278	84,888	0	1016,54	6,8	9	8,7	1	1	1	1	1	1	1	1	1	0	1	-12,262156	274,131328	307,935197	0
15.01.2021	18:24:49	0	0	4,406268	1,47075	326,4012	0,274	84,863	0	1016,38	6,7	8,7	8,6	1	1	1	1	1	1	1	1	1	0	1	-11,557435	274,107427	308,528262	0
15.01.2021	18:24:50	0	0	2,824548	1,44375	325,5336	0,272	84,879	0	1016,34	6,7	8,7	8,5	1	1	1	1	1	1	1	1	1	0	1	-12,121212	274,14329	308,132032	0
15.01.2021	18:24:51	0	0	4,63212	1,45875	331,038	0,273	84,879	0	1016,54	6,7	8,8	9	1	1	1	1	1	1	1	1	1	0	1	-15,010571	274,077591	304,935791	0
15.01.2021	18:24:52	0	0	2,485602	1,5045	326,7324	0,273	84,877	0	1016,34	6,8	8,7	8,5	1	1	1	1	1	1	1	1	1	0	1	-7,117689	273,960193	312,28084	0
15.01.2021	18:24:53	0	0	4,858223	1,518	330,7572	0,276	84,871	0	1016,52	6,7	8,8	8,5	1	1	1	1	1	1	1	1	1	0	1	-12,05074	274,083555	307,923468	0
15.01.2021	18:24:54	0	0	2,937512	1,506	333,1476	0,274	84,87	0	1016,36	6,8	8,7	8,6	1	1	1	1	1	1	1	1	1	0	1	-12,473573	273,967602	306,959509	0
15.01.2021	18:24:55	0	0	3,389437	1,5345	329,706	0,274	84,869	0	1016,38	6,7	9,1	8,6	1	1	1	1	1	1	1	1	1	0	1	-10,359408	274,114893	309,761163	0
15.01.2021	18:24:56	0	0	3,163494	1,51275	332,7516	0,277	84,883	0	1016,6	6,7	9,1	8,5	1	1	1	1	1	1	1	1	1	0	1	-10,077519	274,135813	310,140788	0
15.01.2021	18:24:57	0	0	3,389437	1,422	335,7648	0,271	84,881	0	1016,44	6,7	8,7	8,6	1	1	1	1	1	1	1	1	1	0	1	-10,782241	273,972049	308,67158	0
15.01.2021	18:24:58	0	0	2,93753	1,36725	334,4436	0,271	84,864	0	1016,66	6,7	9	8,5	1	1	1	1	1	1	1	1	1	0	1	-11,627907	274,085046	308,353264	0
15.01.2021	18:24:59	0	0	4,632203	1,389	338,3316	0,274	84,882	0	1016,5	6,7	8,8	8,7	1	1	1	1	1	1	1	1	1	0	1	-10,288936	273,982429	309,213301	0
15.01.2021	18:25:00	0	0	4,858164	1,4265	330,8004	0,276	84,878	0	1016,4	6,7	8,8	8,7	1	1	1	1	1	1	1	1	1	0	1	-10,711769	273,992814	308,838915	0
15.01.2021	18:25:01	0	0	2,824531	1,43775	331,4736	0,272	84,872	0	1016,48	6,7	8,7	8,6	1	1	1	1	1	1	1	1	1	0	1	-7,258633	273,979462	312,229768	0
15.01.2021	18:25:02	0	0	4,293261	1,389	338,6952	0,27	84,871	0	1016,36	6,7	8,7	8,7	1	1	1	1	1	1	1	1	1	0	1	-12,191684	274,105934	307,88704	0
15.01.2021	18:25:03	0	0	2,937495	1,3305	334,962	0,276	84,88	0	1016,42	6,7	9	8,7	1	1	1	1	1	1	1	1	1	0	1	-7,963354	273,963156	311,448993	0
15.01.2021	18:25:04	0	0	3,502398	1,29	325,0656	0,275	84,862	0	1016,44	6,7	8,7	8,7	1	1	1	1	1	1	1	1	1	0	1	-8,949965	274,029951	310,774002	0
15.01.2021	18:25:05	0	0	4,51925	1,24725	322,6176	0,273	84,882	0	1016,44	6,7	8,8	8,6	1	1	1	1	1	1	1	1	1	0	1	-11,134602	274,144785	309,125632	0
15.01.2021	18:25:06	0	0	4,971205	1,179	320,7636	0,272	84,873	0	1016,46	6,7	9,1	8,5	1	1	1	1	1	1	1	1	1	0	1	-11,486963	274,06865	308,417649	0
15.01.2021	18:25:07	0	0	3,389417	1,128	317,7324	0,272	84,865	0	1016,36	6,7	8,7	8,7	1	1	1	1	1	1	1	1	1	0	1	-9,302326	274,132823	310,902012	0
15.01.2021	18:25:08	0	0	4,519195	1,06725	323,64	0,274	84,881	0	1016,46	6,7	8,7	8,8	1	1	1	1	1	1	1	1	1	0	1	-11,06413	274,012117	308,576611	0
15.01.2021	18:25:09	0	0	3,163399	1,047	309,2184	0,273	84,895	0	1016,48	6,7	9,1	9	1	1	1	1	1	1	1	1	1	0	1	-12,966878	274,086537	307,021257	0
15.01.2021	18:25:10	0	0	4,180331	1,0455	315,9432	0,274	84,872	0	1016,42	6,7	8,7	8,5	1	1	1	1	1	1	1	1	1	0	1	-7,82241	273,961674	311,583028	0
15.01.2021	18:25:11	0	0	3,163475	1,05525	323,2584	0,27	84,872	0	1016,48	6,7	9,1	8,6	1	1	1	1	1	1	1	1	1	0	1	-7,82241	274,00766	311,797538	0
15.01.2021	18:25:12	0	0	2,711485	1,09875	327,8736	0,273	84,945	0	1016,54	6,7	9	9	1	1	1	1	1	1	1	1	1	0	1	-10,641297	274,001721	308,950938	0
15.01.2021	18:25:13	0	0	1,807678	1,08525	323,7156	0,275	84,877	0	1016,46	6,7	9	8,8	1	1	1	1	1	1	1	1	1	0	1	-12,191684	274,006175	307,421335	0
15.01.2021	18:25:14	0	0	4,180306	0,9855	312,4404	0,275	84,882	0	1016,46	6,8	8,8	8,6	1	1	1	1	1	1	1	1	1	0	1	-9,866103	274,120867	310,28238	0
15.01.2021	18:25:15	0	0	3,276397	0,93375	308,412	0,269	84,884	0	1016,5	6,7	9,2	8,9	1	1	1	1	1	1	1	1	1	0	1	-8,879493	274,059713	310,983393	0
15.01.2021	18:25:16	0	0	3,728359	0,912	315,2016	0,271	84,887	0	1016,56	6,7	8,8	8,7	1	1	1	1	1	1	1	1	1	0	1	-9,44327	274,134318	310,768052	0
15.01.2021	18:25:17	0	0	4,632231	0,9075	312,8724	0,274	84,875	0	1016,44	6,7	8,7	8,6	1	1	1	1	1	1	1	1	1	0	1	-9,936575	274,028464	309,780453	0
15.01.2021	18:25:18	0	0	2,824514	0,8985	308,0736	0,267	84,882	0	1016,36	6,8	8,7	8,7	1	1	1	1	1	1	1	1	1	0	1	-9,090909	273,967602	310,342173	0
15.01.2021	18:25:19	0	0	2,485528	0,86625	308,0196	0,271	84,889	0	1016,5	6,7	9,1	9	1	1	1	1	1	1	1	1	1	0	1	-11,839323	274,032925	307,898524	0
15.01.2021	18:25:20	0	0	2,598553	0,8565	309,5352	0,272	84,893	0	1016,5	6,7	8,8	8,7	1	1	1	1	1	1	1	1	1	0	1	-11,486963	273,972049	307,966859	0
15.01.2021	18:25:21	0	0	2,937512	0,88425	309,5208	0,276	84,897	0	1016,52	6,7	9	8,6	1	1	1	1	1	1	1	1	1	0	1	-8,738548	274,01806	310,929924	0
15.01.2021	18:25:22	0	0	3,389397	0,87	308,5056	0,271	84,878	0	1016,42	6,7	8,8	8,8	1	1	1	1	1	1	1	1	1	0	1	-10,570825	273,955749	308,806979	0
15.01.2021	18:25:23	0	0	4,745127	0,84375	316,9296	0,274	84,883	0	1016,48	6,7	8,8	8,9	1	1	1	1	1	1	1	1	1	0	1	-9,161381	274,091012	310,847649	0
15.01.2021	18:25:24	0	0	4,406163	0,82725	328,5504	0,269	84,885	0	1016,34	6,8	8,7	9	1	1	1	1	1	1	1	1	1	0	1	-10,852713	273,985395	308,663362	0
15.01.2021	18:25:25	0	0	4,293184	0,8805	322,8948	0,271	84,888	0	1016,46	6,7	9	9	1	1	1	1	1	1	1	1	1	0	1	-12,544045	274,082064	307,4232	0
15.01.2021	18:25:26	0	0	3,276436	0,9825	323,694	0,274	84,898	0	1016,64	6,7	9	8,7	1	1	1	1	1	1	1	1	1	0	1	-13,178295	273,958711	306,213325	0
15.01.2021	18:25:27	0	0	2,711566	1,07625	325,4832	0,274	84,877	0	1016,48	6,7	8,8	8,5	1	1	1	1	1	1	1	1	1	0	1	-14,023961	274,04185	305,755543	0
15.01.2021	18:25:28	0	0	2,937495	1,10775	325,53	0,274	84,894	0	1016,5	6,8	9	8,7	1	1	1	1	1	1	1	1	1	0	1	-10,782241	274,141794	309,464015	0
15.01.2021	18:25:29	0	0	4,293236	1,11375	322,9452	0,274	84,861	0	1016,38	6,7	8,7	8,8	1	1	1	1	1	1	1	1	1	0	1	-8,527132	274,102948	311,537648	0
15.01.2021	18:25:30	0	0	4,51925	1,10025	315,4896	0,272	84,876	0	1016,54	6,7	9	8,6	1	1	1	1	1	1	1	1	1	0	1	-11,41649	273,973531	308,044245	0
15.01.2021	18:25:31	0	0	4,180256	1,10025	317,358	0,272	84,877	0	1016,56	6,7	8,7	8,8	1	1	1	1	1	1	1	1	1	0	1	-9,372798	274,095487	310,657134	0
15.01.2021	18:25:32	0	0	2,711517	1,1295	316,3248	0,27	84,882	0	1016,5	6,7	9	8,8	1	1	1	1	1	1	1	1	1	0	1	-10,218464	273,96612	309,207706	0
15.01.2021	18:25:33	0	0	4,519195	1,098	313,1604	0,276	84,87	0	1016,52	6,7	8,6	8,8	1	1	1	1	1	1	1	1	1	0	1	-10,077519	274,074611	309,854923	0
15.01.2021	18:25:34	0	0	3,163456	1,10925	315,5616	0,276	84,872	0	1016,5	6,7	9	8,7	1	1	1	1	1	1	1	1	1	0	1	-7,82241	274,149273	312,458796	0
15.01.2021	18:25:35	0	0	4,632175	1,10325	311,4144	0,277	84,881	0	1016,56	6,7	8,8	8,8	1	1	1	1	1	1	1	1	1	0	1	-10,641297	274,061202	309,228542	0
15.01.2021	18:25:36	0	0	3,841339	1,15425	307,998	0,28	84,881	0	1016,48	6,7	8,8	8,7	1	1	1	1	1	1	1	1	1	0	1	-10,077519	274,132823	310,126818	0
15.01.2021	18:25:37	0	0	4,632203	1,2	323,6796	0,276	84,883	0	1016,42	6,7	8,8	8,7	1	1	1	1	1	1	1	1	1	0	1	-9,231853	274,028464	310,485175	0
15.01.2021	18:25:38	0	0	3,276417	1,2645	322,6176	0,274	84,872	0	1016,46	6,7	8,8	8,8	1	1	1	1	1	1	1	1	1	0	1	-11,06413	274,15077	309,224068	0
15.01.2021	18:25:39	0	0	4,971145	1,31775	317,016	0,276	84,877	0	1016,38	6,7	9	8,7	1	1	1	1	1	1	1	1	1	0	1	-14,164905	274,092503	305,851092	0
15.01.2021	18:25:40	0	0	4,858164	1,4175	295,5744	0,274	84,871	0	1016,36	6,8	9	8,7	1	1	1	1	1	1	1	1	1	0	1	-12,332629	274,006175	307,280391	0
15.01.2021	18:25:41	0	0	2,937495	1,54275	299,8188	0,278	84,881	0	1016,44	6,7	9	8,7	1	1	1	1	1	1	1	1	1	0	1	-7,82241	274,141794	312,423846	0
15.01.2021	18:25:42	0	0	3,841362	1,57575	314,388	0,274	84,883	0	1016,36	6,7	9	8,6	1	1	1	1	1	1	1	1	1	0	1	-14,164905	274,099963	305,885934	0
15.01.2021	18:25:43	0	0	2,824514	1,5015	322,2	0,269	84,888	0	1016,42	6,7	8,9	8,7	1	1	1	1	1	1	1	1	1	0	1	-9,090909	273,96612	310,335261	0
15.01.2021	18:25:44	0	0	3,050475	1,42125	311,0544	0,272	84,863	0	1016,5	6,7	8,7	8,7	1	1	1	1	1	1	1	1	1	0	1	-11,06413	274,015088	308,590476	0
15.01.2021	18:25:45	0	0	3,050494	1,377	303,9552	0,274	84,875	0	1016,44	6,7	9	8,6	1	1	1	1	1	1	1	1	1	0	1	-13,389711	273,961674	306,015727	0
15.01.2021	18:25:46	0	0	3,615378	1,33575	301,2768	0,282	84,883	0	1016,42	6,7	8,8	8,7	1	1	1	1	1	1	1	1	1	0	1	-9,654686	274,096979	310,382213	0
15.01.2021	18:25:47	0	0	3,615378	1,34325	299,7756	0,276	84,869	0	1016,34	6,7	8,8	8,7	1	1	1	1	1	1	1	1	1	0	1	-8,033827	273,998751	311,544555	0
15.01.2021	18:25:48	0	0	4,519223	1,4655	300,7296	0,271	84,871	0	1016,52	6,7	9	8,7	1	1	1	1	1	1	1	1	1	0	1	-13,107822	273,969084	306,332172	0
15.01.2021	18:25:49	0	0	4,745184	1,6125	322,2432	0,273	84,878	0	1016,54	6,7	9	8,7	1	1	1	1	1	1	1	1	1	0	1	-14,65821	274,037387	305,100462	0
15.01.2021	18:25:50	0	0	3,050475	1,64175	326,3472	0,272	84,869	0	1016,26	6,7	9	8,7	1	1	1	1	1	1	1	1	1	0	1	-6,20155	273,954267	313,169347	0
15.01.2021	18:25:51	0	0	5,084125	1,53675	323,7084	0,279	84,868	0	1016,54	6,7	9	8,7	1	1	1	1	1	1	1	1	1	0	1	-11,41649	274,077591	308,529871	0
15.01.2021	18:25:52	0	0	4,971145	1,43775	311,0256	0,271	84,859	0	1016,36	6,7	8,8	8,7	1	1	1	1	1	1	1	1	1	0	1	-8,527132	273,963156	310,885216	0
15.01.2021	18:25:53	0	0	3,050494	1,47075	313,1604	0,271	84,871	0	1016,54	6,7	9	8,6	1	1	1	1	1	1	1	1	1	0	1	-14,799154	274,022518	304,890124	0
15.01.2021	18:25:54	0	0	2,937495	1,51875	327,7728	0,272	84,869	0	1016,48	6,7	8,8	8,7	1	1	1	1	1	1	1	1	1	0	1	-11,627907	273,986879	307,895089	0
15.01.2021	18:25:55	0	0	4,519223	1,55925	324,3924	0,27	84,856	0	1016,54	6,7	9	8,7	1	1	1	1	1	1	1	1	1	0	1	-14,376321	274,099963	305,674517	0
15.01.2021	18:25:56	0	0	3,163456	1,5075	333,1728	0,277	84,872	0	1016,4	6,7	9	8,7	1	1	1	1	1	1	1	1	1	0	1	-10,993658	274,105934	309,085066	0
15.01.2021	18:25:57	0	0	3,050475	1,45575	324,468	0,278	84,901	0	1016,8	6,7	8,8	8,7	1	1	1	1	1	1	1	1	1	0	1	-11,698379	274,144785	308,561855	0
15.01.2021	18:25:58	0	0	4,406242	1,34475	321,858	0,263	84,866	0	1016,46	6,7	9	8,7	1	1	1	1	1	1	1	1	1	0	1	-6,694856	274,123856	313,467587	0
15.01.2021	18:25:59	0	0	3,502398	1,2225	339,8652	0,272	84,85	0	1016,36	6,8	9	8,7	1	1	1	1	1	1	1	1	1	0	1	-12,05074	273,975014	307,416911	0
15.01.2021	18:26:00	0	0	2,485572	1,14525	325,5624	0,27	84,865	0	1016,6	6,7	8,8	8,7	1	1	1	1	1	1	1	1	1	0	1	-6,765328	274,016574	312,896211	0
15.01.2021	18:26:01	0	0	3,276436	1,131	315,864	0,275	84,881	0	1016,56	6,7	9	8,7	1	1	1	1	1	1	1	1	1	0	1	-8,80902	274,141794	311,437235	0
15.01.2021	18:26:02	0	0	2,485587	1,15725	330,372	0,274	84,853	0	1016,34	6,7	8,8	8,6	1	1	1	1	1	1	1	1	1	0	1	-11,839323	274,098471	308,204545	0
15.01.2021	18:26:03	0	0	4,63212	1,22325	317,43	0,272	84,87	0	1016,46	6,7	8,8	9	1	1	1	1	1	1	1	1	1	0	1	-10,500352	274,111906	309,606267	0
15.01.2021	18:26:04	0	0	2,711534	1,2405	301,194	0,273	84,874	0	1016,5	6,7	9	8,7	1	1	1	1	1	1	1	1	1	0	1	-12,896406	274,00469	306,709684	0
15.01.2021	18:26:05	0	0	2,711517	1,22325	303,9588	0,277	84,877	0	1016,2	6,7	9	8,8	1	1	1	1	1	1	1	1	1	0	1	-10,500352	273,986879	309,022643	0
15.01.2021	18:26:06	0	0	3,841339	1,19025	305,3772	0,277	84,869	0	1016,46	6,7	8,8	8,7	1	1	1	1	1	1	1	1	1	0	1	-9,725159	273,972049	309,728663	0
15.01.2021	18:26:07	0	0	3,95432	1,22025	305,7588	0,278	84,861	0	1016,5	6,7	8,8	8,7	1	1	1	1	1	1	1	1	1	0	1	-11,486963	274,07312	308,438521	0
15.01.2021	18:26:08	0	0	3,163456	1,19175	311,7852	0,27	84,87	0	1016,5	6,7	8,8	8,7	1	1	1	1	1	1	1	1	1	0	1	-10,218464	274,131328	309,97889	0
15.01.2021	18:26:09	0	0	2,937495	1,18725	322,2072	0,27	84,855	0	1016,48	6,7	9	8,7	1	1	1	1	1	1	1	1	1	0	1	-7,258633	274,031438	312,472274	0
15.01.2021	18:26:10	0	0	2,824531	1,26825	325,1268	0,275	84,872	0	1016,58	6,7	8,8	8,6	1	1	1	1	1	1	1	1	1	0	1	-7,329105	273,951305	312,02798	0
15.01.2021	18:26:11	0	0	2,485572	1,34025	320,4072	0,267	84,856	0	1016,46	6,7	8,8	8,7	1	1	1	1	1	1	1	1	1	0	1	-8,315715	274,006175	311,297304	0
15.01.2021	18:26:12	0	0	3,502355	1,41075	322,6212	0,273	84,859	0	1016,54	6,7	8,8	8,9	1	1	1	1	1	1	1	1	1	0	1	-9,725159	273,964638	309,6941	0
15.01.2021	18:26:13	0	0	2,824531	1,43775	326,3436	0,275	84,87	0	1016,48	6,7	8,8	8,6	1	1	1	1	1	1	1	1	1	0	1	-10,782241	274,034413	308,962547	0
15.01.2021	18:26:14	0	0	3,728403	1,395	320,094	0,274	84,879	0	1016,4	6,8	8,7	8,5	1	1	1	1	1	1	1	1	1	0	1	-8,738548	274,14329	311,514696	0
15.01.2021	18:26:15	0	0	3,163456	1,3395	322,2072	0,274	84,872	0	1016,44	6,7	9,1	8,7	1	1	1	1	1	1	1	1	1	0	1	-12,614517	273,994298	306,94309	0
15.01.2021	18:26:16	0	0	2,937495	1,34625	334,2564	0,273	84,88	0	1016,4	6,7	9	8,7	1	1	1	1	1	1	1	1	1	0	1	-8,45666	274,082064	311,510586	0
15.01.2021	18:26:17	0	0	4,406242	1,36425	326,3436	0,274	84,873	0	1016,58	6,7	8,8	8,7	1	1	1	1	1	1	1	1	1	0	1	-5,21494	274,146281	315,052284	0
15.01.2021	18:26:18	0	0	3,615356	1,437	333,8064	0,264	84,855	0	1016,6	6,7	8,7	8,8	1	1	1	1	1	1	1	1	1	0	1	-6,060606	273,972049	313,393215	0
15.01.2021	18:26:19	0	0	4,0673	1,46475	339,8076	0,273	84,879	0	1016,34	6,7	9	8,7	1	1	1	1	1	1	1	1	1	0	1	-9,302326	274,11788	310,8322	0
15.01.2021	18:26:20	0	0	4,29321	1,47375	334,2492	0,272	84,862	0	1016,54	6,7	9,1	8,9	1	1	1	1	1	1	1	1	1	0	1	-11,275546	273,967602	308,157535	0
15.01.2021	18:26:21	0	0	2,824531	1,42725	345,042	0,272	84,852	0	1016,34	6,7	9,1	8,6	1	1	1	1	1	1	1	1	1	0	1	-12,121212	273,972049	307,332609	0
15.01.2021	18:26:22	0	0	2,824497	1,3755	340,6068	0,276	84,864	0	1016,56	6,7	8,8	8,8	1	1	1	1	1	1	1	1	1	0	1	-10,077519	274,06716	309,820136	0
15.01.2021	18:26:23	0	0	3,615313	1,33575	340,9164	0,277	84,865	0	1016,46	6,7	8,7	9	1	1	1	1	1	1	1	1	1	0	1	-11,698379	273,972049	307,755442	0
15.01.2021	18:26:24	0	0	3,50244	1,2105	342,7272	0,275	84,878	0	1016,3	6,7	8,8	8,5	1	1	1	1	1	1	1	1	1	0	1	-7,117689	274,055245	312,724343	0
15.01.2021	18:26:25	0	0	4,180281	1,0755	334,9836	0,272	84,855	0	1016,48	6,7	9,1	8,7	1	1	1	1	1	1	1	1	1	0	1	-8,386187	273,958711	311,005432	0
15.01.2021	18:26:26	0	0	3,163475	1,02225	336,222	0,269	84,86	0	1016,34	6,7	9,1	8,6	1	1	1	1	1	1	1	1	1	0	1	-9,372798	274,085046	310,608373	0
15.01.2021	18:26:27	0	0	2,824531	0,98625	332,7876	0,273	84,882	0	1016,48	6,7	8,8	8,6	1	1	1	1	1	1	1	1	1	0	1	-9,513742	273,960193	309,884786	0
15.01.2021	18:26:28	0	0	4,0673	0,98925	329,6988	0,277	84,926	0	1016,4	6,7	9,1	8,7	1	1	1	1	1	1	1	1	1	0	1	-18,111346	274,053757	301,723735	0
15.01.2021	18:26:29	0	0	3,728381	0,97425	334,5696	0,275	84,875	0	1016,52	6,7	8,8	8,6	1	1	1	1	1	1	1	1	1	0	1	-12,05074	274,129833	308,13963	0
15.01.2021	18:26:30	0	0	4,858077	0,9675	336,78	0,271	84,852	0	1016,48	6,7	8,8	9	1	1	1	1	1	1	1	1	1	0	1	-11,909796	274,032925	307,828052	0
15.01.2021	18:26:31	0	0	4,180256	0,90375	315,2232	0,271	84,865	0	1016,38	6,7	8,8	8,8	1	1	1	1	1	1	1	1	1	0	1	-7,963354	273,958711	311,428265	0
15.01.2021	18:26:32	0	0	3,389397	0,89775	305,7516	0,271	84,881	0	1016,5	6,7	9	8,8	1	1	1	1	1	1	1	1	1	0	1	-12,544045	274,000236	307,041263	0
15.01.2021	18:26:33	0	0	3,276436	0,87675	324,1332	0,277	84,875	0	1016,52	6,7	8,8	8,7	1	1	1	1	1	1	1	1	1	0	1	-7,963354	273,95723	311,421357	0
15.01.2021	18:26:34	0	0	2,711534	0,84225	336,1608	0,277	84,868	0	1016,52	6,7	9	8,7	1	1	1	1	1	1	1	1	1	0	1	-11,41649	274,037387	308,342182	0
15.01.2021	18:26:35	0	0	2,937477	0,8445	317,8116	0,275	84,862	0	1016,54	6,7	8,7	8,8	1	1	1	1	1	1	1	1	1	0	1	-8,45666	273,95723	310,928052	0
15.01.2021	18:26:36	0	0	3,615356	0,89175	315,1296	0,27	84,871	0	1016,48	6,7	8,7	8,8	1	1	1	1	1	1	1	1	1	0	1	-9,302326	274,06716	310,59533	0
15.01.2021	18:26:37	0	0	5,422969	0,92625	315,6192	0,278	84,882	0	1016,56	6,7	9,1	9	1	1	1	1	1	1	1	1	1	0	1	-14,164905	273,977979	305,316579	0
15.01.2021	18:26:38	0	0	2,82448	0,93375	315,2088	0,269	84,853	0	1016,34	6,7	8,8	8,9	1	1	1	1	1	1	1	1	1	0	1	-9,44327	274,086537	310,544865	0
15.01.2021	18:26:39	0	0	3,841339	0,939	311,4252	0,275	84,862	0	1016,46	6,7	9	8,7	1	1	1	1	1	1	1	1	1	0	1	-10,993658	273,958711	308,397962	0
15.01.2021	18:26:40	0	0	2,937512	0,89025	304,3368	0,279	84,874	0	1016,48	6,7	8,8	8,6	1	1	1	1	1	1	1	1	1	0	1	-8,949965	274,059713	310,912921	0
15.01.2021	18:26:41	0	0	2,485558	0,8925	299,0988	0,276	84,867	0	1016,44	6,7	9	8,8	1	1	1	1	1	1	1	1	1	0	1	-11,41649	273,960193	307,982038	0
15.01.2021	18:26:42	0	0	2,937512	0,867	309,2544	0,276	84,878	0	1016,46	6,7	8,9	8,6	1	1	1	1	1	1	1	1	1	0	1	-9,513742	274,058223	310,342191	0
15.01.2021	18:26:43	0	0	4,745155	0,85725	327,1428	0,272	84,86	0	1016,52	6,7	8,8	8,8	1	1	1	1	1	1	1	1	1	0	1	-7,892882	274,135813	312,325425	0
15.01.2021	18:26:44	0	0	4,858164	0,84075	327,0528	0,277	84,87	0	1016,48	6,7	9	8,7	1	1	1	1	1	1	1	1	1	0	1	-8,738548	274,026978	310,971541	0
15.01.2021	18:26:45	0	0	4,519277	0,858	324,0612	0,267	84,866	0	1016,44	6,7	9	8,5	1	1	1	1	1	1	1	1	1	0	1	-10,007047	274,137308	310,218247	0
15.01.2021	18:26:46	0	0	3,050475	0,87075	321,8688	0,269	84,88	0	1016,44	6,7	8,8	8,7	1	1	1	1	1	1	1	1	1	0	1	-9,866103	273,989846	309,670736	0
15.01.2021	18:26:47	0	0	4,406189	0,89325	323,3304	0,273	84,875	0	1016,54	6,7	8,8	8,9	1	1	1	1	1	1	1	1	1	0	1	-10,500352	274,132823	309,703985	0
15.01.2021	18:26:48	0	0	3,050457	0,83625	320,7204	0,271	84,852	0	1016,52	6,7	9	8,8	1	1	1	1	1	1	1	1	1	0	1	-8,879493	274,058223	310,976441	0
15.01.2021	18:26:49	0	0	2,824497	0,81075	307,1844	0,274	84,863	0	1016,48	6,7	8,7	8,8	1	1	1	1	1	1	1	1	1	0	1	-11,557435	273,969084	307,882559	0
15.01.2021	18:26:50	0	0	4,293261	0,798	318,1572	0,274	84,867	0	1016,34	6,7	8,8	8,7	1	1	1	1	1	1	1	1	1	0	1	-12,121212	274,044826	307,672182	0
15.01.2021	18:26:51	0	0	3,954296	0,7605	335,3472	0,276	84,878	0	1016,58	6,7	8,8	8,8	1	1	1	1	1	1	1	1	1	0	1	-10,923185	273,955749	308,454619	0
15.01.2021	18:26:52	0	0	3,728336	0,73425	326,8008	0,273	84,874	0	1016,54	6,7	9	8,8	1	1	1	1	1	1	1	1	1	0	1	-10,218464	274,12535	309,95096	0
15.01.2021	18:26:53	0	0	4,293236	0,74775	317,8116	0,261	84,868	0	1016,46	6,7	9	8,8	1	1	1	1	1	1	1	1	1	0	1	-9,795631	274,085046	310,18554	0
15.01.2021	18:26:54	0	0	2,937495	0,8115	324,1476	0,276	84,871	0	1016,56	6,7	9	8,7	1	1	1	1	1	1	1	1	1	0	1	-13,6716	273,955749	305,706204	0
15.01.2021	18:26:55	0	0	4,0673	0,8325	332,3844	0,268	84,863	0	1016,38	6,7	8,8	8,7	1	1	1	1	1	1	1	1	1	0	1	-6,765328	274,101456	313,292481	0
15.01.2021	18:26:56	0	0	3,954296	0,8115	334,5768	0,267	84,85	0	1016,56	6,7	8,8	8,8	1	1	1	1	1	1	1	1	1	0	1	-10,077519	274,013602	309,570153	0
15.01.2021	18:26:57	0	0	2,598553	0,816	320,7564	0,27	84,875	0	1016,54	6,7	8,8	8,7	1	1	1	1	1	1	1	1	1	0	1	-12,05074	273,977979	307,430743	0
15.01.2021	18:26:58	0	0	3,841362	0,78075	324,0144	0,27	84,874	0	1016,46	6,7	8,8	8,6	1	1	1	1	1	1	1	1	1	0	1	-9,866103	274,012117	309,774638	0
15.01.2021	18:26:59	0	0	4,067276	0,8175	334,3068	0,264	84,854	0	1016,42	6,7	8,8	8,8	1	1	1	1	1	1	1	1	1	0	1	-10,641297	273,963156	308,771051	0
15.01.2021	18:27:00	0	0	3,502376	0,846	332,01	0,272	84,883	0	1016,56	6,7	9	8,8	1	1	1	1	1	1	1	1	1	0	1	-7,681466	274,091012	312,327564	0
15.01.2021	18:27:01	0	0	4,519223	0,933	332,01	0,269	84,874	0	1016,52	6,7	9	8,7	1	1	1	1	1	1	1	1	1	0	1	-11,275546	274,128339	308,907841	0
15.01.2021	18:27:02	0	0	3,389397	1,0035	334,62	0,27	84,866	0	1016,52	6,7	9	8,8	1	1	1	1	1	1	1	1	1	0	1	-12,544045	274,096979	307,492855	0
15.01.2021	18:27:03	0	0	2,937459	1,04475	329,2668	0,271	84,864	0	1016,58	6,7	9	8,9	1	1	1	1	1	1	1	1	1	0	1	-12,755462	274,001721	306,836773	0
15.01.2021	18:27:04	0	0	3,276456	1,0335	343,9476	0,27	84,874	0	1016,52	6,7	8,8	8,6	1	1	1	1	1	1	1	1	1	0	1	-6,060606	273,969084	313,379388	0
15.01.2021	18:27:05	0	0	3,050475	0,945	339,786	0,269	84,869	0	1016,52	6,7	8,8	8,7	1	1	1	1	1	1	1	1	1	0	1	-8,738548	274,058223	311,117385	0
15.01.2021	18:27:06	0	0	2,598537	0,87375	325,6884	0,262	84,868	0	1016,42	6,7	9	8,8	1	1	1	1	1	1	1	1	1	0	1	-4,369274	273,955749	315,00853	0
15.01.2021	18:27:07	0	0	4,406242	0,84825	326,0088	0,27	84,872	0	1016,5	6,7	9	8,7	1	1	1	1	1	1	1	1	1	0	1	-11,275546	274,000236	308,309762	0
15.01.2021	18:27:08	0	0	2,937495	0,85275	326,3616	0,265	84,87	0	1016,54	6,7	9	8,7	1	1	1	1	1	1	1	1	1	0	1	-9,090909	273,980945	310,404409	0
15.01.2021	18:27:09	0	0	2,71155	0,87	320,382	0,271	84,869	0	1016,6	6,7	9	8,6	1	1	1	1	1	1	1	1	1	0	1	-6,906272	273,983912	312,602884	0
15.01.2021	18:27:10	0	0	4,406242	0,96075	315,1836	0,269	84,871	0	1016,68	6,7	8,8	8,7	1	1	1	1	1	1	1	1	1	0	1	-7,82241	273,963156	311,589938	0
15.01.2021	18:27:11	0	0	2,372578	1,011	325,9368	0,269	84,873	0	1016,42	6,7	8,9	8,8	1	1	1	1	1	1	1	1	1	0	1	-8,668076	274,059713	311,194809	0
15.01.2021	18:27:12	0	0	2,372592	1,06875	329,2992	0,274	84,864	0	1016,52	6,7	8,7	8,7	1	1	1	1	1	1	1	1	1	0	1	-11,06413	273,95723	308,320582	0
15.01.2021	18:27:13	0	0	4,858193	1,14525	307,1556	0,268	84,867	0	1016,46	6,7	9	8,6	1	1	1	1	1	1	1	1	1	0	1	-12,403101	274,101456	307,654708	0
15.01.2021	18:27:14	0	0	5,197075	1,2405	311,3208	0,267	84,859	0	1016,58	6,7	8,8	8,8	1	1	1	1	1	1	1	1	1	0	1	-10,923185	274,101456	309,134624	0
15.01.2021	18:27:15	0	0	4,632175	1,287	326,0556	0,267	84,864	0	1016,44	6,7	8,8	8,8	1	1	1	1	1	1	1	1	1	0	1	-11,698379	274,015088	307,956226	0
15.01.2021	18:27:16	0	0	3,728336	1,32525	308,43	0,272	84,875	0	1016,46	6,7	8,8	8,8	1	1	1	1	1	1	1	1	1	0	1	-13,319239	274,137308	306,906055	0
15.01.2021	18:27:17	0	0	2,937495	1,3245	312,1272	0,268	84,855	0	1016,54	6,7	8,9	8,7	1	1	1	1	1	1	1	1	1	0	1	-12,191684	274,062691	307,685107	0
15.01.2021	18:27:18	0	0	4,067276	1,29	319,986	0,275	84,866	0	1016,56	6,7	8,8	8,8	1	1	1	1	1	1	1	1	1	0	1	-9,654686	274,123856	310,507756	0
15.01.2021	18:27:19	0	0	4,632231	1,263	323,3808	0,27	84,872	0	1016,32	6,7	9	8,6	1	1	1	1	1	1	1	1	1	0	1	-10,077519	274,055245	309,764512	0
15.01.2021	18:27:20	0	0	3,841339	1,2555	312,8652	0,269	84,867	0	1016,64	6,7	8,8	8,7	1	1	1	1	1	1	1	1	1	0	1	-8,45666	273,973531	311,004076	0
15.01.2021	18:27:21	0	0	2,937477	1,197	320,3928	0,267	84,863	0	1016,46	6,7	9	8,8	1	1	1	1	1	1	1	1	1	0	1	-7,117689	273,945383	312,211781	0
15.01.2021	18:27:22	0	0	4,293261	1,15425	334,9908	0,273	84,87	0	1016,46	6,7	9	8,7	1	1	1	1	1	1	1	1	1	0	1	-7,047216	274,010631	312,586593	0
15.01.2021	18:27:23	0	0	4,406216	1,1235	323,3196	0,271	84,873	0	1016,4	6,7	9	8,8	1	1	1	1	1	1	1	1	1	0	1	-11,698379	274,120867	308,450104	0
15.01.2021	18:27:24	0	0	3,728359	1,08675	322,2684	0,264	84,871	0	1016,52	6,7	8,8	8,7	1	1	1	1	1	1	1	1	1	0	1	-13,03735	274,046314	306,76299	0
15.01.2021	18:27:25	0	0	5,084095	1,0815	330,0732	0,273	84,866	0	1016,58	6,7	8,8	8,8	1	1	1	1	1	1	1	1	1	0	1	-9,020437	274,140298	311,218831	0
15.01.2021	18:27:26	0	0	4,632203	1,08525	339,4188	0,271	84,859	0	1016,44	6,7	9	8,7	1	1	1	1	1	1	1	1	1	0	1	-8,738548	274,110413	311,361096	0
15.01.2021	18:27:27	0	0	3,050475	1,0575	331,1964	0,269	84,866	0	1016,52	6,7	8,8	8,7	1	1	1	1	1	1	1	1	1	0	1	-8,949965	274,11788	311,184561	0
15.01.2021	18:27:28	0	0	3,615378	1,02	323,2908	0,264	84,857	0	1016,34	6,7	8,9	8,7	1	1	1	1	1	1	1	1	1	0	1	-9,302326	274,104441	310,769426	0
15.01.2021	18:27:29	0	0	2,711534	1,0125	331,0956	0,266	84,848	0	1016,62	6,7	9	8,7	1	1	1	1	1	1	1	1	1	0	1	-10,711769	273,967602	308,721313	0
15.01.2021	18:27:30	0	0	4,745155	1,0845	338,3964	0,267	84,854	0	1016,54	6,7	8,8	8,8	1	1	1	1	1	1	1	1	1	0	1	-12,121212	274,083555	307,852996	0
15.01.2021	18:27:31	0	0	2,937477	1,10475	334,5192	0,269	84,871	0	1016,52	6,7	9	8,8	1	1	1	1	1	1	1	1	1	0	1	-8,668076	273,961674	310,737362	0
15.01.2021	18:27:32	0	0	2,937477	1,12725	334,6704	0,267	84,858	0	1016,48	6,7	8,8	8,8	1	1	1	1	1	1	1	1	1	0	1	-6,906272	274,029951	312,817695	0
15.01.2021	18:27:33	0	0	4,858164	1,0845	339,8292	0,269	84,859	0	1016,5	6,7	8,9	8,7	1	1	1	1	1	1	1	1	1	0	1	-11,275546	273,967602	308,157535	0
15.01.2021	18:27:34	0	0	4,51925	1,06125	331,0848	0,268	84,856	0	1016,46	6,7	8,8	8,6	1	1	1	1	1	1	1	1	1	0	1	-10,852713	273,99133	308,691048	0
15.01.2021	18:27:35	0	0	3,276436	0,94875	325,5336	0,272	84,864	0	1016,46	6,7	8,8	8,7	1	1	1	1	1	1	1	1	1	0	1	-9,584214	274,019546	310,091193	0
15.01.2021	18:27:36	0	0	4,858135	0,9045	316,314	0,272	84,868	0	1016,46	6,7	9	8,8	1	1	1	1	1	1	1	1	1	0	1	-10,923185	274,091012	309,085845	0
15.01.2021	18:27:37	0	0	4,519195	0,84975	312,48	0,277	84,865	0	1016,48	6,7	8,9	8,8	1	1	1	1	1	1	1	1	1	0	1	-7,892882	274,00469	311,713208	0
15.01.2021	18:27:38	0	0	3,050475	0,81825	317,4552	0,273	84,863	0	1016,5	6,7	8,8	8,7	1	1	1	1	1	1	1	1	1	0	1	-8,949965	273,948344	310,393312	0
15.01.2021	18:27:39	0	0	3,841316	0,79125	313,2396	0,269	84,859	0	1016,6	6,7	8,8	8,8	1	1	1	1	1	1	1	1	1	0	1	-12,403101	274,07312	307,522383	0
15.01.2021	18:27:40	0	0	3,163456	0,825	310,662	0,262	84,854	0	1016,44	6,7	8,9	8,7	1	1	1	1	1	1	1	1	1	0	1	-8,879493	273,958711	310,512127	0
15.01.2021	18:27:41	0	0	3,389397	0,804	317,34	0,27	84,857	0	1016,48	6,7	8,8	8,8	1	1	1	1	1	1	1	1	1	0	1	-8,174771	274,034413	311,570017	0
15.01.2021	18:27:42	0	0	4,519223	0,7995	321,4512	0,272	84,857	0	1016,48	6,7	9	8,7	1	1	1	1	1	1	1	1	1	0	1	-8,738548	274,126844	311,437857	0
15.01.2021	18:27:43	0	0	3,502376	0,756	319,9464	0,273	84,86	0	1016,48	6,7	8,8	8,8	1	1	1	1	1	1	1	1	1	0	1	-5,708245	273,99133	313,835516	0
15.01.2021	18:27:44	0	0	4,745184	0,7095	320,3784	0,271	84,858	0	1016,56	6,7	8,8	8,7	1	1	1	1	1	1	1	1	1	0	1	-10,641297	273,948344	308,70198	0
15.01.2021	18:27:45	0	0	3,276417	0,714	327,0708	0,269	84,841	0	1016,5	6,7	8,9	8,8	1	1	1	1	1	1	1	1	1	0	1	-8,668076	274,001721	310,924159	0
15.01.2021	18:27:46	0	0	2,598553	0,6735	332,082	0,27	84,915	0	1016,6	6,7	8,8	8,7	1	1	1	1	1	1	1	1	1	0	1	-9,231853	273,95723	310,152858	0
15.01.2021	18:27:47	0	0	2,824514	0,6465	330,7248	0,27	84,857	0	1016,46	6,7	8,9	8,7	1	1	1	1	1	1	1	1	1	0	1	-8,949965	274,000236	310,635343	0
15.01.2021	18:27:48	0	0	3,276417	0,67725	333,8748	0,265	84,847	0	1016,5	6,7	8,8	8,8	1	1	1	1	1	1	1	1	1	0	1	-13,601128	273,940942	305,707637	0
15.01.2021	18:27:49	0	0	4,632175	0,6675	327,8556	0,286	84,858	0	1016,78	6,7	8,8	8,8	1	1	1	1	1	1	1	1	1	0	1	-12,614517	274,108919	307,478153	0
15.01.2021	18:27:50	0	0	4,971115	0,73575	320,796	0,273	84,861	0	1016,54	6,7	8,9	8,8	1	1	1	1	1	1	1	1	1	0	1	-6,694856	274,128339	313,488532	0
15.01.2021	18:27:51	0	0	2,937495	0,7665	322,6284	0,27	84,858	0	1016,62	6,7	8,9	8,7	1	1	1	1	1	1	1	1	1	0	1	-6,694856	274,0359	313,056874	0
15.01.2021	18:27:52	0	0	4,293261	0,81375	321,4548	0,266	84,855	0	1016,58	6,7	8,8	8,7	1	1	1	1	1	1	1	1	1	0	1	-11,839323	274,12535	308,3301	0
15.01.2021	18:27:53	0	0	4,632175	0,861	312,4692	0,267	84,858	0	1016,4	6,7	8,8	8,8	1	1	1	1	1	1	1	1	1	0	1	-14,940099	274,031438	304,790808	0
15.01.2021	18:27:54	0	0	4,406216	0,933	309,5208	0,27	84,857	0	1016,46	6,7	8,9	8,8	1	1	1	1	1	1	1	1	1	0	1	-11,06413	274,120867	309,084353	0
15.01.2021	18:27:55	0	0	3,954296	1,01025	315,198	0,259	84,855	0	1016,56	6,7	8,8	8,8	1	1	1	1	1	1	1	1	1	0	1	-12,403101	273,982429	307,099136	0
15.01.2021	18:27:56	0	0	3,163456	1,005	318,3984	0,268	84,863	0	1016,58	6,7	8,8	8,7	1	1	1	1	1	1	1	1	1	0	1	-14,65821	274,129833	305,53216	0
15.01.2021	18:27:57	0	0	2,598537	0,9525	318,7908	0,271	84,857	0	1016,52	6,7	8,9	8,8	1	1	1	1	1	1	1	1	1	0	1	-8,386187	273,994298	311,17142	0
15.01.2021	18:27:58	0	0	2,937477	0,9015	318,8088	0,269	84,86	0	1016,64	6,7	8,9	8,8	1	1	1	1	1	1	1	1	1	0	1	-7,82241	273,951305	311,534675	0
15.01.2021	18:27:59	0	0	2,711534	0,84825	320,3676	0,265	84,86	0	1016,68	6,7	8,9	8,7	1	1	1	1	1	1	1	1	1	0	1	-9,161381	274,06865	310,743231	0
15.01.2021	18:28:00	0	0	2,711534	0,849	331,47	0,264	84,85	0	1016,6	6,7	8,8	8,7	1	1	1	1	1	1	1	1	1	0	1	-13,742072	274,123856	306,420371	0
15.01.2021	18:28:01	0	0	4,745155	0,837	331,1496	0,267	84,844	0	1016,58	6,7	8,9	8,8	1	1	1	1	1	1	1	1	1	0	1	-11,275546	274,049291	308,538688	0
15.01.2021	18:28:02	0	0	3,502376	0,84525	324,8316	0,261	84,844	0	1016,52	6,7	9	8,8	1	1	1	1	1	1	1	1	1	0	1	-11,698379	274,119373	308,443125	0
15.01.2021	18:28:03	0	0	3,502376	0,8445	324,0468	0,268	84,852	0	1016,4	6,7	8,9	8,8	1	1	1	1	1	1	1	1	1	0	1	-10,288936	274,077591	309,657426	0
15.01.2021	18:28:04	0	0	2,937459	0,85725	327,4884	0,268	84,845	0	1016,46	6,7	8,9	8,9	1	1	1	1	1	1	1	1	1	0	1	-11,06413	274,114893	309,056442	0
15.01.2021	18:28:05	0	0	3,502376	0,8775	317,0196	0,266	84,858	0	1016,38	6,7	9	8,8	1	1	1	1	1	1	1	1	1	0	1	-13,389711	273,992814	306,160973	0
15.01.2021	18:28:06	0	0	3,389417	0,90675	312,1884	0,268	84,827	0	1016,5	6,7	8,8	8,7	1	1	1	1	1	1	1	1	1	0	1	-9,44327	274,06865	310,461342	0
15.01.2021	18:28:07	0	0	3,728359	0,9045	324,0684	0,265	84,864	0	1016,56	6,7	8,8	8,7	1	1	1	1	1	1	1	1	1	0	1	-14,305849	274,06865	305,598763	0
15.01.2021	18:28:08	0	0	3,276417	0,88725	322,5816	0,267	84,852	0	1016,46	6,7	8,9	8,8	1	1	1	1	1	1	1	1	1	0	1	-8,45666	273,951305	310,900426	0
15.01.2021	18:28:09	0	0	4,180256	0,9465	312,1776	0,263	84,852	0	1016,48	6,7	8,8	8,8	1	1	1	1	1	1	1	1	1	0	1	-7,681466	274,025491	312,021686	0
15.01.2021	18:28:10	0	0	2,824514	0,972	329,7096	0,262	84,853	0	1016,42	6,7	8,8	8,7	1	1	1	1	1	1	1	1	1	0	1	-10,007047	274,113399	310,106548	0
15.01.2021	18:28:11	0	0	4,971145	0,993	330,7356	0,261	84,831	0	1016,4	6,7	8,9	8,7	1	1	1	1	1	1	1	1	1	0	1	-8,879493	274,058223	310,976441	0
15.01.2021	18:28:12	0	0	4,180256	1,02375	317,0664	0,267	84,859	0	1016,46	6,7	8,8	8,8	1	1	1	1	1	1	1	1	1	0	1	-13,812544	273,979462	305,675857	0
15.01.2021	18:28:13	0	0	4,519195	0,96675	319,6188	0,265	84,846	0	1016,54	6,7	8,8	8,8	1	1	1	1	1	1	1	1	1	0	1	-10,641297	274,113399	309,472299	0
15.01.2021	18:28:14	0	0	4,180256	0,8955	320,0904	0,264	84,855	0	1016,48	6,7	8,9	8,8	1	1	1	1	1	1	1	1	1	0	1	-7,399577	274,064181	312,484169	0
15.01.2021	18:28:15	0	0	3,95432	0,852	312,8544	0,264	84,835	0	1016,78	6,7	8,9	8,7	1	1	1	1	1	1	1	1	1	0	1	-6,131078	273,939462	313,170786	0
15.01.2021	18:28:16	0	0	4,0673	0,7935	300,8556	0,262	84,839	0	1016,5	6,7	8,9	8,7	1	1	1	1	1	1	1	1	1	0	1	-12,403101	273,973531	307,057635	0
15.01.2021	18:28:17	0	0	4,406242	0,75225	309,8988	0,264	84,848	0	1016,34	6,7	8,9	8,7	1	1	1	1	1	1	1	1	1	0	1	-10,077519	274,119373	310,063985	0
15.01.2021	18:28:18	0	0	2,711517	0,762	332,6616	0,267	84,843	0	1016,44	6,7	8,9	8,8	1	1	1	1	1	1	1	1	1	0	1	-8,527132	274,053757	311,307949	0
15.01.2021	18:28:19	0	0	4,180256	0,7515	337,2012	0,263	84,847	0	1016,5	6,7	8,9	8,8	1	1	1	1	1	1	1	1	1	0	1	-7,963354	274,119373	312,17815	0
15.01.2021	18:28:20	0	0	2,598537	0,74475	324,378	0,264	84,852	0	1016,44	6,7	8,8	8,8	1	1	1	1	1	1	1	1	1	0	1	-4,510218	274,013602	315,137454	0
15.01.2021	18:28:21	0	0	3,502376	0,795	309,5748	0,278	84,844	0	1016,56	6,7	9	8,8	1	1	1	1	1	1	1	1	1	0	1	-10,782241	274,122361	309,373221	0
15.01.2021	18:28:22	0	0	5,084125	0,83325	316,8036	0,265	84,849	0	1016,44	6,7	9	8,7	1	1	1	1	1	1	1	1	1	0	1	-7,047216	274,019546	312,628191	0
15.01.2021	18:28:23	0	0	4,180256	0,8745	322,6104	0,262	84,86	0	1016,54	6,7	8,8	8,8	1	1	1	1	1	1	1	1	1	0	1	-9,866103	274,108919	310,226568	0
15.01.2021	18:28:24	0	0	4,180256	0,89775	320,868	0,265	84,858	0	1016,56	6,7	9	8,8	1	1	1	1	1	1	1	1	1	0	1	-7,540521	274,046314	312,259819	0
15.01.2021	18:28:25	0	0	3,615356	0,9225	323,6616	0,26	84,845	0	1016,58	6,7	8,9	8,8	1	1	1	1	1	1	1	1	1	0	1	-9,44327	273,939462	309,858594	0
15.01.2021	18:28:26	0	0	2,937477	0,92625	330,282	0,265	84,839	0	1016,6	6,7	8,8	8,8	1	1	1	1	1	1	1	1	1	0	1	-9,372798	274,000236	310,21251	0
15.01.2021	18:28:27	0	0	3,615378	0,9345	324,8244	0,259	84,846	0	1016,4	6,7	8,9	8,7	1	1	1	1	1	1	1	1	1	0	1	-5,567301	273,942422	313,748365	0
15.01.2021	18:28:28	0	0	3,163456	0,90975	318,834	0,262	84,852	0	1016,58	6,7	9	8,7	1	1	1	1	1	1	1	1	1	0	1	-9,795631	274,06716	310,102025	0
15.01.2021	18:28:29	0	0	4,067276	0,906	321,876	0,264	84,861	0	1016,56	6,7	8,9	8,8	1	1	1	1	1	1	1	1	1	0	1	-10,147992	274,028464	309,569036	0
15.01.2021	18:28:30	0	0	3,954296	0,9165	325,6596	0,265	84,856	0	1016,54	6,7	8,9	8,8	1	1	1	1	1	1	1	1	1	0	1	-5,21494	273,939462	314,086924	0
15.01.2021	18:28:31	0	0	4,406242	0,87975	325,1628	0,259	84,845	0	1016,66	6,7	8,9	8,7	1	1	1	1	1	1	1	1	1	0	1	-8,597604	274,047803	311,209683	0
15.01.2021	18:28:32	0	0	4,067276	0,864	323,3484	0,261	84,832	0	1016,46	6,7	8,8	8,8	1	1	1	1	1	1	1	1	1	0	1	-10,711769	274,085046	309,269402	0
15.01.2021	18:28:33	0	0	2,937495	0,8355	319,9608	0,259	84,837	0	1016,52	6,7	8,8	8,7	1	1	1	1	1	1	1	1	1	0	1	-10,288936	273,973531	309,1718	0
15.01.2021	18:28:34	0	0	4,971115	0,87675	308,4696	0,262	84,846	0	1016,52	6,7	8,9	8,8	1	1	1	1	1	1	1	1	1	0	1	-9,654686	274,123856	310,507756	0
15.01.2021	18:28:35	0	0	3,502398	0,97275	285,5484	0,26	84,843	0	1016,5	6,7	8,9	8,7	1	1	1	1	1	1	1	1	1	0	1	-9,302326	274,052268	310,525806	0
15.01.2021	18:28:36	0	0	4,745155	1,01325	296,4888	0,262	84,842	0	1016,5	6,7	8,9	8,8	1	1	1	1	1	1	1	1	1	0	1	-9,513742	273,943903	309,808825	0
15.01.2021	18:28:37	0	0	2,372578	1,04325	320,3892	0,261	84,849	0	1016,5	6,7	8,9	8,8	1	1	1	1	1	1	1	1	1	0	1	-5,285412	274,028464	314,431616	0
15.01.2021	18:28:38	0	0	2,033662	1,05825	313,7328	0,259	84,829	0	1016,56	6,7	8,9	8,6	1	1	1	1	1	1	1	1	1	0	1	-8,80902	273,930585	310,451455	0
15.01.2021	18:28:39	0	0	3,389417	1,08	309,6324	0,265	84,843	0	1016,46	6,7	8,9	8,7	1	1	1	1	1	1	1	1	1	0	1	-11,980268	274,079082	307,973054	0
15.01.2021	18:28:40	0	0	4,858135	1,0875	315,18	0,261	84,855	0	1016,54	6,7	8,9	8,8	1	1	1	1	1	1	1	1	1	0	1	-10,147992	274,114893	309,97258	0
15.01.2021	18:28:41	0	0	3,163437	1,0935	314,8308	0,255	84,844	0	1016,56	6,7	8,9	8,8	1	1	1	1	1	1	1	1	1	0	1	-11,909796	274,024005	307,786419	0
15.01.2021	18:28:42	0	0	2,824497	1,086	320,022	0,261	84,847	0	1016,5	6,7	8,9	8,8	1	1	1	1	1	1	1	1	1	0	1	-4,721635	273,951305	314,63545	0
15.01.2021	18:28:43	0	0	2,824497	1,131	321,5088	0,264	84,838	0	1016,52	6,7	8,8	8,8	1	1	1	1	1	1	1	1	1	0	1	-7,963354	273,973531	311,497381	0
15.01.2021	18:28:44	0	0	3,728359	1,14375	325,1196	0,269	84,85	0	1016,56	6,7	8,9	8,7	1	1	1	1	1	1	1	1	1	0	1	-12,121212	274,105934	307,957512	0
15.01.2021	18:28:45	0	0	4,519223	1,086	327,2148	0,261	84,844	0	1016,62	6,7	8,9	8,7	1	1	1	1	1	1	1	1	1	0	1	-6,8358	274,052268	312,992332	0
15.01.2021	18:28:46	0	0	4,293236	1,0005	321,1128	0,266	84,842	0	1016,56	6,7	8,9	8,8	1	1	1	1	1	1	1	1	1	0	1	-13,248767	273,939462	306,053098	0
15.01.2021	18:28:47	0	0	3,728336	1,017	313,236	0,262	84,841	0	1016,58	6,7	8,9	8,8	1	1	1	1	1	1	1	1	1	0	1	-7,047216	274,040363	312,725343	0
15.01.2021	18:28:48	0	0	2,485558	1,1355	317,7828	0,266	84,853	0	1016,58	6,7	8,8	8,8	1	1	1	1	1	1	1	1	1	0	1	-8,949965	273,935023	310,331202	0
15.01.2021	18:28:49	0	0	4,632175	1,22025	312,84	0,259	84,846	0	1016,54	6,7	8,9	8,8	1	1	1	1	1	1	1	1	1	0	1	-13,03735	274,044826	306,756044	0
15.01.2021	18:28:50	0	0	3,502376	1,25175	311,1048	0,264	84,851	0	1016,6	6,7	8,8	8,8	1	1	1	1	1	1	1	1	1	0	1	-14,094433	274,119373	306,047071	0
15.01.2021	18:28:51	0	0	4,406216	1,27875	313,2072	0,263	84,851	0	1016,46	6,7	8,9	8,8	1	1	1	1	1	1	1	1	1	0	1	-11,909796	274,062691	307,966996	0
15.01.2021	18:28:52	0	0	2,485572	1,30575	308,9016	0,264	84,846	0	1016,54	6,7	8,9	8,7	1	1	1	1	1	1	1	1	1	0	1	-7,963354	273,92319	311,262648	0
15.01.2021	18:28:53	0	0	3,841316	1,32525	306,846	0,266	84,846	0	1016,38	6,7	8,9	8,8	1	1	1	1	1	1	1	1	1	0	1	-6,412967	274,058223	313,442967	0
15.01.2021	18:28:54	0	0	2,937477	1,33875	310,644	0,263	84,835	0	1016,54	6,7	8,8	8,8	1	1	1	1	1	1	1	1	1	0	1	-8,245243	274,101456	311,812566	0
15.01.2021	18:28:55	0	0	2,937477	1,37325	325,9332	0,263	84,841	0	1016,58	6,7	8,9	8,8	1	1	1	1	1	1	1	1	1	0	1	-9,020437	274,126844	311,155968	0
15.01.2021	18:28:56	0	0	3,841316	1,3665	316,2708	0,259	84,841	0	1016,36	6,7	8,9	8,8	1	1	1	1	1	1	1	1	1	0	1	-11,205074	274,024005	308,491141	0
15.01.2021	18:28:57	0	0	3,389437	1,33425	315,9792	0,258	84,846	0	1016,46	6,7	8,9	8,6	1	1	1	1	1	1	1	1	1	0	1	-14,094433	274,111906	306,012187	0
15.01.2021	18:28:58	0	0	4,067276	1,332	321,822	0,251	84,847	0	1016,52	6,7	8,9	8,8	1	1	1	1	1	1	1	1	1	0	1	-6,976744	273,992814	312,573939	0
15.01.2021	18:28:59	0	0	4,745184	1,30125	322,1892	0,262	84,847	0	1016,54	6,7	8,9	8,7	1	1	1	1	1	1	1	1	1	0	1	-6,553911	274,116386	313,573637	0
15.01.2021	18:29:00	0	0	4,293261	1,25925	322,8768	0,258	84,852	0	1016,46	6,7	8,9	8,7	1	1	1	1	1	1	1	1	1	0	1	-14,940099	273,995783	304,624433	0
15.01.2021	18:29:01	0	0	2,598537	1,20375	326,7936	0,267	84,849	0	1016,64	6,7	8,9	8,8	1	1	1	1	1	1	1	1	1	0	1	-13,460183	274,098471	306,583686	0
15.01.2021	18:29:02	0	0	3,276436	1,17	337,4676	0,262	84,849	0	1016,64	6,7	8,9	8,7	1	1	1	1	1	1	1	1	1	0	1	-7,117689	274,06716	312,779967	0
15.01.2021	18:29:03	0	0	2,937495	1,1535	335,736	0,261	84,836	0	1016,52	6,7	8,8	8,7	1	1	1	1	1	1	1	1	1	0	1	-12,121212	273,927626	307,125472	0
15.01.2021	18:29:04	0	0	2,937477	1,16775	320,8284	0,261	84,836	0	1016,44	6,7	8,9	8,8	1	1	1	1	1	1	1	1	1	0	1	-6,20155	274,050779	313,619632	0
15.01.2021	18:29:05	0	0	3,728336	1,17075	310,6656	0,257	84,845	0	1016,66	6,7	8,9	8,8	1	1	1	1	1	1	1	1	1	0	1	-10,147992	273,937982	309,146973	0
15.01.2021	18:29:06	0	0	4,519195	1,119	321,93	0,26	84,844	0	1016,6	6,7	8,8	8,8	1	1	1	1	1	1	1	1	1	0	1	-13,178295	274,062691	306,698497	0
15.01.2021	18:29:07	0	0	3,502376	1,0515	326,4552	0,267	84,85	0	1016,64	6,7	8,9	8,8	1	1	1	1	1	1	1	1	1	0	1	-5,778717	273,937982	313,516247	0
15.01.2021	18:29:08	0	0	3,389417	1,023	320,7528	0,263	84,849	0	1016,44	6,7	8,9	8,7	1	1	1	1	1	1	1	1	1	0	1	-10,147992	274,058223	309,707942	0
15.01.2021	18:29:09	0	0	2,259611	1,00125	322,2252	0,263	84,858	0	1016,56	6,7	9	8,7	1	1	1	1	1	1	1	1	1	0	1	-12,544045	273,963156	306,868303	0
15.01.2021	18:29:10	0	0	4,406216	0,99975	332,0496	0,259	84,839	0	1016,42	6,7	8,9	8,8	1	1	1	1	1	1	1	1	1	0	1	-8,597604	273,955749	310,7802	0
15.01.2021	18:29:11	0	0	4,858164	1,002	322,5564	0,26	84,852	0	1016,54	6,7	8,9	8,7	1	1	1	1	1	1	1	1	1	0	1	-9,231853	274,101456	310,825955	0
15.01.2021	18:29:12	0	0	4,406242	1,02075	320,004	0,262	84,852	0	1016,56	6,7	8,9	8,7	1	1	1	1	1	1	1	1	1	0	1	-6,765328	274,037387	312,993345	0
15.01.2021	18:29:13	0	0	5,084095	0,99375	337,1724	0,265	84,866	0	1016,56	6,7	8,9	8,8	1	1	1	1	1	1	1	1	1	0	1	-12,403101	273,939462	306,898764	0
15.01.2021	18:29:14	0	0	4,293236	0,9495	336,708	0,263	84,841	0	1016,62	6,7	9	8,8	1	1	1	1	1	1	1	1	1	0	1	-10,077519	273,988363	309,452397	0
15.01.2021	18:29:15	0	0	5,197075	0,95925	331,5276	0,258	84,86	0	1016,54	6,7	8,9	8,8	1	1	1	1	1	1	1	1	1	0	1	-4,862579	273,921711	314,35653	0
15.01.2021	18:29:16	0	0	4,632175	0,92175	331,992	0,259	84,861	0	1016,48	6,7	8,9	8,8	1	1	1	1	1	1	1	1	1	0	1	-6,694856	274,038875	313,07076	0
15.01.2021	18:29:17	0	0	3,841316	0,897	331,4196	0,256	84,862	0	1016,5	6,7	8,9	8,8	1	1	1	1	1	1	1	1	1	0	1	-13,460183	274,114893	306,660388	0
15.01.2021	18:29:18	0	0	3,728359	0,91725	329,9832	0,257	84,861	0	1016,48	6,7	8,9	8,7	1	1	1	1	1	1	1	1	1	0	1	-8,45666	273,983912	311,052496	0
15.01.2021	18:29:19	0	0	4,067276	0,945	333,1908	0,259	84,848	0	1016,52	6,7	8,9	8,8	1	1	1	1	1	1	1	1	1	0	1	-8,879493	274,108919	311,213178	0
15.01.2021	18:29:20	0	0	3,841339	0,9795	334,9548	0,26	84,847	0	1016,52	6,7	8,9	8,7	1	1	1	1	1	1	1	1	1	0	1	-7,751938	273,983912	311,757218	0
15.01.2021	18:29:21	0	0	2,937495	1,02375	323,334	0,265	84,863	0	1016,62	6,7	8,9	8,7	1	1	1	1	1	1	1	1	1	0	1	-6,624383	273,926147	312,615406	0
15.01.2021	18:29:22	0	0	2,824497	1,1475	319,1652	0,263	84,859	0	1016,58	6,7	8,9	8,8	1	1	1	1	1	1	1	1	1	0	1	-4,298802	274,043338	315,487646	0
15.01.2021	18:29:23	0	0	2,146618	1,1895	318,3876	0,261	84,862	0	1016,52	6,7	8,9	8,8	1	1	1	1	1	1	1	1	1	0	1	-12,121212	274,096979	307,915688	0
15.01.2021	18:29:24	0	0	4,519223	1,22925	316,7136	0,258	84,854	0	1016,6	6,7	8,9	8,7	1	1	1	1	1	1	1	1	1	0	1	-6,060606	274,076101	313,878796	0
15.01.2021	18:29:25	0	0	3,050475	1,3125	316,6956	0,256	84,855	0	1016,62	6,7	8,9	8,7	1	1	1	1	1	1	1	1	1	0	1	-11,627907	273,943903	307,69466	0
15.01.2021	18:29:26	0	0	4,180256	1,29675	322,902	0,259	84,856	0	1016,56	6,7	8,9	8,8	1	1	1	1	1	1	1	1	1	0	1	-7,82241	273,982429	311,679827	0
15.01.2021	18:29:27	0	0	4,406242	1,2465	321,8544	0,26	84,847	0	1016,52	6,7	8,8	8,7	1	1	1	1	1	1	1	1	1	0	1	-10,42988	274,095487	309,600051	0
15.01.2021	18:29:28	0	0	3,502376	1,2765	317,7144	0,259	84,863	0	1016,56	6,7	8,9	8,8	1	1	1	1	1	1	1	1	1	0	1	-9,725159	274,013602	309,922514	0
15.01.2021	18:29:29	0	0	3,728359	1,25025	315,18	0,256	84,858	0	1016,52	6,7	8,9	8,7	1	1	1	1	1	1	1	1	1	0	1	-12,544045	273,939462	306,757819	0
15.01.2021	18:29:30	0	0	4,519195	1,248	311,7492	0,259	84,869	0	1016,54	6,7	8,9	8,8	1	1	1	1	1	1	1	1	1	0	1	-9,936575	274,00469	309,669515	0
15.01.2021	18:29:31	0	0	3,050457	1,23525	320,3784	0,26	84,874	0	1016,66	6,7	8,9	8,8	1	1	1	1	1	1	1	1	1	0	1	-10,42988	274,095487	309,600051	0
15.01.2021	18:29:32	0	0	4,971115	1,25025	336,06	0,252	84,849	0	1016,56	6,7	8,9	8,8	1	1	1	1	1	1	1	1	1	0	1	-13,03735	273,992814	306,513333	0
15.01.2021	18:29:33	0	0	4,632203	1,188	334,1772	0,261	84,857	0	1016,5	6,7	8,9	8,7	1	1	1	1	1	1	1	1	1	0	1	-7,329105	274,102948	312,735675	0
15.01.2021	18:29:34	0	0	4,0673	1,128	319,194	0,258	84,863	0	1016,48	6,7	8,9	8,7	1	1	1	1	1	1	1	1	1	0	1	-9,513742	274,049291	310,300492	0
15.01.2021	18:29:35	0	0	2,824497	1,1025	327,0996	0,264	84,864	0	1016,42	6,7	8,9	8,8	1	1	1	1	1	1	1	1	1	0	1	-6,131078	273,927626	313,115606	0
15.01.2021	18:29:36	0	0	3,502398	1,0605	342,3276	0,264	84,867	0	1016,56	6,7	8,9	8,7	1	1	1	1	1	1	1	1	1	0	1	-11,698379	273,995783	307,866152	0
15.01.2021	18:29:37	0	0	3,163456	1,00725	331,506	0,26	84,859	0	1016,54	6,7	8,9	8,7	1	1	1	1	1	1	1	1	1	0	1	-10,077519	273,935023	309,203648	0
15.01.2021	18:29:38	0	0	3,163437	0,96375	321,9012	0,261	84,869	0	1016,7	6,7	8,9	8,8	1	1	1	1	1	1	1	1	1	0	1	-10,218464	274,055245	309,623568	0
15.01.2021	18:29:39	0	0	3,615378	0,95775	311,76	0,256	84,864	0	1016,52	6,7	8,9	8,7	1	1	1	1	1	1	1	1	1	0	1	-10,288936	274,016574	309,372603	0
15.01.2021	18:29:40	0	0	4,745155	0,96225	312,4692	0,251	84,859	0	1016,38	6,7	8,9	8,8	1	1	1	1	1	1	1	1	1	0	1	-10,007047	274,086537	309,981087	0
15.01.2021	18:29:41	0	0	4,745184	0,9585	320,3676	0,265	84,879	0	1016,58	6,7	8,9	8,7	1	1	1	1	1	1	1	1	1	0	1	-6,20155	273,954267	313,169347	0
15.01.2021	18:29:42	0	0	4,745155	0,96075	317,6964	0,265	84,867	0	1016,44	6,7	8,9	8,8	1	1	1	1	1	1	1	1	1	0	1	-8,879493	273,915798	310,312053	0
15.01.2021	18:29:43	0	0	2,485572	0,92475	315,9756	0,26	84,85	0	1016,56	6,7	8,9	8,7	1	1	1	1	1	1	1	1	1	0	1	-7,963354	274,076101	311,976047	0
15.01.2021	18:29:44	0	0	4,745184	0,906	317,7216	0,255	84,866	0	1016,52	6,7	8,9	8,7	1	1	1	1	1	1	1	1	1	0	1	-7,399577	273,976497	312,07499	0
15.01.2021	18:29:45	0	0	4,293261	0,8475	313,29	0,261	84,893	0	1016,74	6,7	8,9	8,7	1	1	1	1	1	1	1	1	1	0	1	-9,090909	273,927626	310,155775	0
15.01.2021	18:29:46	0	0	3,502376	0,81825	309,5892	0,263	84,87	0	1016,5	6,7	8,9	8,8	1	1	1	1	1	1	1	1	1	0	1	-7,188161	273,982429	312,314076	0
15.01.2021	18:29:47	0	0	3,276436	0,8385	304,308	0,263	84,872	0	1016,66	6,7	8,9	8,7	1	1	1	1	1	1	1	1	1	0	1	-7,117689	274,107427	312,968008	0
15.01.2021	18:29:48	0	0	5,197075	0,861	298,98	0,263	84,864	0	1016,64	6,7	8,9	8,8	1	1	1	1	1	1	1	1	1	0	1	-11,275546	274,00766	308,344402	0
15.01.2021	18:29:49	0	0	4,971145	0,819	298,3896	0,254	84,853	0	1016,42	6,7	8,9	8,7	1	1	1	1	1	1	1	1	1	0	1	-11,346018	274,116386	308,78153	0
15.01.2021	18:29:50	0	0	4,180256	0,849	305,6724	0,256	84,857	0	1016,48	6,7	8,9	8,8	1	1	1	1	1	1	1	1	1	0	1	-9,654686	274,050779	310,166496	0
15.01.2021	18:29:51	0	0	4,406242	0,9465	306,072	0,255	84,866	0	1016,52	6,7	8,9	8,7	1	1	1	1	1	1	1	1	1	0	1	-11,768851	273,943903	307,553716	0
15.01.2021	18:29:52	0	0	4,971145	0,96375	309,294	0,257	84,855	0	1016,42	6,7	8,9	8,7	1	1	1	1	1	1	1	1	1	0	1	-8,949965	274,06567	310,940736	0
15.01.2021	18:29:53	0	0	2,372592	0,96	314,4348	0,257	84,866	0	1016,56	6,7	8,9	8,7	1	1	1	1	1	1	1	1	1	0	1	-9,866103	273,946863	309,47027	0
15.01.2021	18:29:54	0	0	3,276417	0,975	316,638	0,259	84,843	0	1016,66	6,7	8,9	8,8	1	1	1	1	1	1	1	1	1	0	1	-8,949965	273,960193	310,448563	0
15.01.2021	18:29:55	0	0	3,728359	1,044	315,918	0,257	84,864	0	1016,28	6,7	8,9	8,7	1	1	1	1	1	1	1	1	1	0	1	-9,372798	274,047803	310,434489	0
15.01.2021	18:29:56	0	0	5,084125	1,0605	318,186	0,263	84,874	0	1016,6	6,6	8,9	8,7	1	1	1	1	1	1	1	1	1	0	1	-11,41649	274,105934	308,662233	0
15.01.2021	18:29:57	0	0	4,858164	1,0695	318,384	0,267	84,867	0	1016,58	6,7	8,9	8,7	1	1	1	1	1	1	1	1	1	0	1	-7,751938	274,061202	312,1179	0
15.01.2021	18:29:58	0	0	4,180281	1,1625	313,6032	0,259	84,871	0	1016,6	6,7	8,9	8,7	1	1	1	1	1	1	1	1	1	0	1	-10,641297	274,085046	309,339874	0
15.01.2021	18:29:59	0	0	2,824514	1,2795	315,81	0,26	84,86	0	1016,42	6,7	8,9	8,7	1	1	1	1	1	1	1	1	1	0	1	-7,610994	273,943903	311,711574	0
15.01.2021	18:30:00	0	0	4,519223	1,36425	317,7252	0,255	84,852	0	1016,46	6,7	8,9	8,7	1	1	1	1	1	1	1	1	1	0	1	-7,610994	274,050779	312,210189	0
15.01.2021	18:30:01	0	0	2,937495	1,47975	313,668	0,256	84,854	0	1016,66	6,7	8,9	8,7	1	1	1	1	1	1	1	1	1	0	1	-6,20155	274,102948	313,863229	0
15.01.2021	18:30:02	0	0	4,971145	1,5705	312,8652	0,259	84,888	0	1016,5	6,7	8,9	8,7	1	1	1	1	1	1	1	1	1	0	1	-7,681466	274,026978	312,028624	0
15.01.2021	18:30:03	0	0	2,598537	1,623	311,4864	0,258	84,871	0	1016,6	6,7	8,9	8,8	1	1	1	1	1	1	1	1	1	0	1	-5,778717	273,935023	313,50245	0
15.01.2021	18:30:04	0	0	4,293261	1,6575	316,6344	0,251	84,873	0	1016,56	6,6	8,9	8,7	1	1	1	1	1	1	1	1	1	0	1	-5,496829	274,013602	314,150844	0
15.01.2021	18:30:05	0	0	3,163456	1,641	316,6704	0,259	84,88	0	1016,56	6,7	8,9	8,7	1	1	1	1	1	1	1	1	1	0	1	-10,077519	274,096979	309,95938	0
15.01.2021	18:30:06	0	0	3,615378	1,593	319,9824	0,261	84,865	0	1016,62	6,7	8,9	8,7	1	1	1	1	1	1	1	1	1	0	1	-10,993658	274,034413	308,751131	0
15.01.2021	18:30:07	0	0	4,519223	1,60875	322,182	0,256	84,869	0	1016,48	6,7	8,9	8,7	1	1	1	1	1	1	1	1	1	0	1	-11,134602	274,107427	308,951095	0
15.01.2021	18:30:08	0	0	3,276436	1,60275	312,4764	0,257	84,881	0	1016,48	6,7	8,9	8,7	1	1	1	1	1	1	1	1	1	0	1	-9,161381	273,986879	310,361615	0
15.01.2021	18:30:09	0	0	3,050457	1,61925	318,1752	0,256	84,884	0	1016,54	6,7	8,8	8,8	1	1	1	1	1	1	1	1	1	0	1	-8,879493	274,092503	311,136504	0
15.01.2021	18:30:10	0	0	4,406242	1,68375	315,864	0,257	84,874	0	1016,5	6,8	8,9	8,7	1	1	1	1	1	1	1	1	1	0	1	-10,147992	274,009146	309,478887	0
15.01.2021	18:30:11	0	0	4,293261	1,7715	317,8116	0,252	84,866	0	1016,54	6,7	8,9	8,7	1	1	1	1	1	1	1	1	1	0	1	-9,513742	273,927626	309,732942	0
15.01.2021	18:30:12	0	0	3,841339	1,8075	324,0756	0,261	84,873	0	1016,54	6,7	8,9	8,7	1	1	1	1	1	1	1	1	1	0	1	-9,44327	274,047803	310,364017	0
15.01.2021	18:30:13	0	0	4,632203	1,84875	319,6044	0,251	84,863	0	1016,5	6,6	8,9	8,7	1	1	1	1	1	1	1	1	1	0	1	-9,513742	273,937982	309,781223	0
15.01.2021	18:30:14	0	0	4,293261	1,8555	323,0028	0,26	84,886	0	1016,52	6,6	8,9	8,7	1	1	1	1	1	1	1	1	1	0	1	-10,147992	274,001721	309,444243	0
15.01.2021	18:30:15	0	0	3,615378	1,81725	320,8752	0,257	84,891	0	1016,64	6,6	8,9	8,7	1	1	1	1	1	1	1	1	1	0	1	-5,21494	274,102948	314,84984	0
15.01.2021	18:30:16	0	0	4,858164	1,7745	310,7088	0,255	84,873	0	1016,5	6,7	8,9	8,7	1	1	1	1	1	1	1	1	1	0	1	-9,302326	273,985395	310,21375	0
15.01.2021	18:30:17	0	0	2,824497	1,77825	309,3156	0,258	84,88	0	1016,58	6,7	8,9	8,8	1	1	1	1	1	1	1	1	1	0	1	-10,288936	273,912842	308,888831	0
15.01.2021	18:30:18	0	0	4,406242	1,83975	307,5912	0,257	84,878	0	1016,38	6,7	8,9	8,7	1	1	1	1	1	1	1	1	1	0	1	-13,6716	273,995783	305,892932	0
15.01.2021	18:30:19	0	0	4,293261	1,8645	317,6964	0,257	84,884	0	1016,5	6,7	8,9	8,7	1	1	1	1	1	1	1	1	1	0	1	-10,359408	274,122361	309,796054	0
15.01.2021	18:30:20	0	0	4,519223	1,78725	309,8772	0,256	84,879	0	1016,52	6,7	8,9	8,7	1	1	1	1	1	1	1	1	1	0	1	-11,275546	274,038875	308,490069	0
15.01.2021	18:30:21	0	0	4,632175	1,662	314,4888	0,259	84,884	0	1016,48	6,7	8,9	8,8	1	1	1	1	1	1	1	1	1	0	1	-6,272023	274,074611	313,66042	0
15.01.2021	18:30:22	0	0	4,293236	1,6695	321,102	0,258	84,89	0	1016,54	6,7	8,9	8,8	1	1	1	1	1	1	1	1	1	0	1	-9,020437	274,093995	311,002527	0
15.01.2021	18:30:23	0	0	4,745184	1,62375	321,4512	0,253	84,863	0	1016,44	6,7	8,9	8,7	1	1	1	1	1	1	1	1	1	0	1	-8,879493	274,022518	310,809785	0
15.01.2021	18:30:24	0	0	3,615378	1,61025	324,3456	0,258	84,869	0	1016,38	6,7	8,9	8,7	1	1	1	1	1	1	1	1	1	0	1	-11,980268	273,949825	307,369913	0
15.01.2021	18:30:25	0	0	4,406242	1,6275	322,9884	0,259	84,893	0	1016,58	6,7	8,9	8,7	1	1	1	1	1	1	1	1	1	0	1	-8,245243	274,105934	311,833481	0
15.01.2021	18:30:26	0	0	2,485558	1,581	328,9572	0,255	84,878	0	1016,48	6,7	8,9	8,8	1	1	1	1	1	1	1	1	1	0	1	-11,346018	274,058223	308,509915	0
15.01.2021	18:30:27	0	0	3,163456	1,59225	323,0172	0,256	84,894	0	1016,58	6,7	8,9	8,7	1	1	1	1	1	1	1	1	1	0	1	-7,681466	274,095487	312,348466	0
15.01.2021	18:30:28	0	0	3,389417	1,56375	327,1464	0,255	84,89	0	1016,74	6,7	8,9	8,7	1	1	1	1	1	1	1	1	1	0	1	-9,231853	274,049291	310,582381	0
15.01.2021	18:30:29	0	0	4,519195	1,536	333,8784	0,252	84,89	0	1016,6	6,7	8,9	8,8	1	1	1	1	1	1	1	1	1	0	1	-9,020437	274,086537	310,967698	0
15.01.2021	18:30:30	0	0	3,389417	1,55175	331,1532	0,258	84,882	0	1016,5	6,7	8,9	8,7	1	1	1	1	1	1	1	1	1	0	1	-9,372798	274,012117	310,267943	0
15.01.2021	18:30:31	0	0	4,971145	1,50675	328,8816	0,254	84,906	0	1016,56	6,7	8,9	8,7	1	1	1	1	1	1	1	1	1	0	1	-11,557435	273,927626	307,68925	0
15.01.2021	18:30:32	0	0	3,841339	1,464	322,5672	0,251	84,895	0	1016,62	6,7	8,9	8,7	1	1	1	1	1	1	1	1	1	0	1	-9,584214	273,985395	309,931861	0
15.01.2021	18:30:33	0	0	4,519223	1,4415	318,7908	0,258	84,901	0	1016,32	6,7	8,9	8,7	1	1	1	1	1	1	1	1	1	0	1	-12,544045	274,108919	307,548625	0
15.01.2021	18:30:34	0	0	3,728359	1,497	321,5304	0,26	84,892	0	1016,64	6,7	8,9	8,7	1	1	1	1	1	1	1	1	1	0	1	-12,191684	274,06865	307,712928	0
15.01.2021	18:30:35	0	0	3,615378	1,52775	318,4668	0,255	84,902	0	1016,6	6,7	8,9	8,7	1	1	1	1	1	1	1	1	1	0	1	-10,42988	273,970566	309,017027	0
15.01.2021	18:30:36	0	0	2,485572	1,52475	318,9384	0,255	84,896	0	1016,48	6,7	8,9	8,7	1	1	1	1	1	1	1	1	1	0	1	-9,231853	273,937982	310,063111	0
15.01.2021	18:30:37	0	0	4,519223	1,443	318,2148	0,257	84,905	0	1016,64	6,7	8,9	8,7	1	1	1	1	1	1	1	1	1	0	1	-10,007047	274,031438	309,72386	0
15.01.2021	18:30:38	0	0	4,632203	1,43775	320,814	0,259	84,901	0	1016,6	6,7	8,9	8,7	1	1	1	1	1	1	1	1	1	0	1	-8,45666	273,939462	310,845205	0
15.01.2021	18:30:39	0	0	4,519223	1,4385	321,4476	0,26	84,904	0	1016,48	6,7	8,9	8,7	1	1	1	1	1	1	1	1	1	0	1	-3,805497	274,003205	315,793665	0
15.01.2021	18:30:40	0	0	2,937477	1,4985	326,0448	0,255	84,909	0	1016,54	6,7	8,9	8,8	1	1	1	1	1	1	1	1	1	0	1	-3,805497	274,108919	316,287174	0
15.01.2021	18:30:41	0	0	3,502398	1,506	327,9096	0,256	84,911	0	1016,7	6,7	8,9	8,7	1	1	1	1	1	1	1	1	1	0	1	-15,081043	274,010631	304,552766	0
15.01.2021	18:30:42	0	0	4,858164	1,53225	341,7336	0,256	84,906	0	1016,56	6,7	8,9	8,7	1	1	1	1	1	1	1	1	1	0	1	-9,44327	274,093995	310,579694	0
15.01.2021	18:30:43	0	0	3,276436	1,497	348,7248	0,259	84,894	0	1016,48	6,6	8,9	8,7	1	1	1	1	1	1	1	1	1	0	1	-3,735025	274,010631	315,898785	0
15.01.2021	18:30:44	0	0	2,937495	1,48725	340,6392	0,258	84,912	0	1016,52	6,7	8,9	8,7	1	1	1	1	1	1	1	1	1	0	1	-10,711769	273,926147	308,528021	0
15.01.2021	18:30:45	0	0	4,406216	1,37925	337,2084	0,259	84,906	0	1016,58	6,7	8,9	8,8	1	1	1	1	1	1	1	1	1	0	1	-8,45666	274,037387	311,302013	0
15.01.2021	18:30:46	0	0	4,0673	1,31475	334,9728	0,259	84,919	0	1016,58	6,7	8,9	8,7	1	1	1	1	1	1	1	1	1	0	1	-8,668076	274,107427	311,417621	0
15.01.2021	18:30:47	0	0	2,937495	1,2765	322,2324	0,258	84,897	0	1016,54	6,7	8,9	8,7	1	1	1	1	1	1	1	1	1	0	1	-5,426357	274,013602	314,221316	0
15.01.2021	18:30:48	0	0	4,0673	1,24275	324,936	0,258	84,888	0	1016,32	6,7	8,9	8,7	1	1	1	1	1	1	1	1	1	0	1	-13,812544	274,107427	306,273153	0
15.01.2021	18:30:49	0	0	3,502398	1,26375	333,144	0,265	84,92	0	1016,64	6,7	8,9	8,7	1	1	1	1	1	1	1	1	1	0	1	-11,768851	274,064181	308,114894	0
15.01.2021	18:30:50	0	0	4,858164	1,275	323,7516	0,261	84,91	0	1016,46	6,7	8,9	8,7	1	1	1	1	1	1	1	1	1	0	1	-10,147992	274,074611	309,784451	0
15.01.2021	18:30:51	0	0	3,276436	1,272	330,0876	0,262	84,926	0	1016,58	6,7	8,9	8,7	1	1	1	1	1	1	1	1	1	0	1	-8,879493	274,07163	311,039033	0
15.01.2021	18:30:52	0	0	2,937495	1,218	321,8472	0,254	84,907	0	1016,48	6,7	8,9	8,7	1	1	1	1	1	1	1	1	1	0	1	-11,41649	274,110413	308,683154	0
15.01.2021	18:30:53	0	0	4,180281	1,152	311,8644	0,259	84,918	0	1016,48	6,7	8,9	8,7	1	1	1	1	1	1	1	1	1	0	1	-6,20155	273,988363	313,328366	0
15.01.2021	18:30:54	0	0	4,519223	1,1565	316,3104	0,261	84,91	0	1016,56	6,7	8,9	8,7	1	1	1	1	1	1	1	1	1	0	1	-7,610994	274,102948	312,453786	0
15.01.2021	18:30:55	0	0	3,841339	1,227	304,326	0,256	84,903	0	1016,58	6,7	8,9	8,7	1	1	1	1	1	1	1	1	1	0	1	-9,936575	273,989846	309,600263	0
15.01.2021	18:30:56	0	0	2,711534	1,23375	310,284	0,261	84,926	0	1016,54	6,7	8,9	8,7	1	1	1	1	1	1	1	1	1	0	1	-8,527132	273,933543	310,747137	0
15.01.2021	18:30:57	0	0	4,519223	1,22625	310,5972	0,257	84,924	0	1016,42	6,7	8,9	8,7	1	1	1	1	1	1	1	1	1	0	1	-10,641297	274,021032	309,041045	0
15.01.2021	18:30:58	0	0	2,711534	1,21275	303,4764	0,252	84,919	0	1016,66	6,7	8,9	8,7	1	1	1	1	1	1	1	1	1	0	1	-9,654686	273,945383	309,674783	0
15.01.2021	18:30:59	0	0	4,0673	1,25175	312,1236	0,254	84,917	0	1016,56	6,7	8,9	8,7	1	1	1	1	1	1	1	1	1	0	1	-6,060606	274,080573	313,899677	0
15.01.2021	18:31:00	0	0	5,310087	1,263	310,3056	0,26	84,919	0	1016,58	6,7	8,9	8,7	1	1	1	1	1	1	1	1	1	0	1	-10,923185	273,933543	308,351084	0
15.01.2021	18:31:01	0	0	4,293261	1,266	306,09	0,258	84,923	0	1016,54	6,7	8,9	8,7	1	1	1	1	1	1	1	1	1	0	1	-10,641297	274,064181	309,242449	0
15.01.2021	18:31:02	0	0	4,293261	1,2495	296,9136	0,263	84,924	0	1016,62	6,7	8,9	8,7	1	1	1	1	1	1	1	1	1	0	1	-9,513742	274,096979	310,523158	0
15.01.2021	18:31:03	0	0	2,937495	1,1865	302,4396	0,263	84,907	0	1016,66	6,7	8,9	8,7	1	1	1	1	1	1	1	1	1	0	1	-8,45666	273,995783	311,107872	0
15.01.2021	18:31:04	0	0	3,389417	1,17975	307,26	0,265	84,929	0	1016,62	6,7	8,9	8,7	1	1	1	1	1	1	1	1	1	0	1	-7,540521	273,927626	311,706163	0
15.01.2021	18:31:05	0	0	4,0673	1,11525	297,864	0,264	84,931	0	1016,62	6,7	8,9	8,7	1	1	1	1	1	1	1	1	1	0	1	-9,936575	274,080573	310,023708	0
15.01.2021	18:31:06	0	0	4,632203	1,09275	300,1716	0,26	84,93	0	1016,52	6,6	8,9	8,7	1	1	1	1	1	1	1	1	1	0	1	-13,530655	274,101456	306,527153	0
15.01.2021	18:31:07	0	0	4,971115	1,11825	296,0964	0,259	84,98	0	1016,52	6,8	8,9	8,8	1	1	1	1	1	1	1	1	1	0	1	-9,725159	274,043338	310,06129	0
15.01.2021	18:31:08	0	0	4,0673	1,11	304,6824	0,261	84,935	0	1016,56	6,6	8,9	8,7	1	1	1	1	1	1	1	1	1	0	1	-5,285412	273,936503	314,002653	0
15.01.2021	18:31:09	0	0	2,259611	1,0965	311,7456	0,257	84,912	0	1016,52	6,7	8,9	8,7	1	1	1	1	1	1	1	1	1	0	1	-13,389711	274,037387	306,368961	0
15.01.2021	18:31:10	0	0	4,858164	1,1025	301,1832	0,264	84,936	0	1016,5	6,7	8,9	8,7	1	1	1	1	1	1	1	1	1	0	1	-15,856237	274,123856	304,306206	0
15.01.2021	18:31:11	0	0	3,050475	1,0725	304,578	0,26	84,93	0	1016,56	6,7	8,9	8,7	1	1	1	1	1	1	1	1	1	0	1	-6,483439	274,040363	313,28912	0
15.01.2021	18:31:12	0	0	4,632203	1,083	310,932	0,257	84,924	0	1016,66	6,7	8,9	8,7	1	1	1	1	1	1	1	1	1	0	1	-8,949965	273,943903	310,372603	0
15.01.2021	18:31:13	0	0	3,050475	1,06275	306,1764	0,261	84,93	0	1016,54	6,7	8,9	8,7	1	1	1	1	1	1	1	1	1	0	1	-10,500352	273,954267	308,870545	0
15.01.2021	18:31:14	0	0	2,598553	1,065	299,8296	0,264	84,93	0	1016,68	6,7	8,9	8,7	1	1	1	1	1	1	1	1	1	0	1	-6,553911	273,949825	312,796269	0
15.01.2021	18:31:15	0	0	5,084125	1,06575	301,284	0,26	84,935	0	1016,44	6,7	8,9	8,7	1	1	1	1	1	1	1	1	1	0	1	-11,134602	273,985395	308,381474	0
15.01.2021	18:31:16	0	0	5,084125	1,06725	311,3712	0,257	84,918	0	1016,5	6,7	8,9	8,7	1	1	1	1	1	1	1	1	1	0	1	-7,399577	274,092503	312,616419	0
15.01.2021	18:31:17	0	0	2,937495	1,05825	318,4056	0,252	84,928	0	1016,52	6,6	8,9	8,7	1	1	1	1	1	1	1	1	1	0	1	-11,839323	274,059713	308,023562	0
15.01.2021	18:31:18	0	0	3,050475	1,107	314,0604	0,262	84,935	0	1016,44	6,7	8,9	8,7	1	1	1	1	1	1	1	1	1	0	1	-5,990134	274,116386	314,137414	0
15.01.2021	18:31:19	0	0	2,937495	1,143	308,4804	0,258	84,929	0	1016,62	6,7	8,9	8,7	1	1	1	1	1	1	1	1	1	0	1	-9,795631	274,110413	310,304014	0
15.01.2021	18:31:20	0	0	2,824514	1,13025	314,8524	0,264	84,935	0	1016,7	6,7	8,9	8,7	1	1	1	1	1	1	1	1	1	0	1	-8,315715	273,952786	311,048276	0
15.01.2021	18:31:21	0	0	2,598553	1,10925	313,2792	0,261	84,924	0	1016,52	6,7	8,9	8,7	1	1	1	1	1	1	1	1	1	0	1	-7,047216	273,940942	312,261548	0
15.01.2021	18:31:22	0	0	3,728359	1,07775	310,7088	0,262	84,932	0	1016,5	6,7	8,8	8,7	1	1	1	1	1	1	1	1	1	0	1	-11,980268	273,982429	307,521969	0
15.01.2021	18:31:23	0	0	3,728359	1,0725	318,1392	0,262	84,933	0	1016,58	6,7	8,9	8,7	1	1	1	1	1	1	1	1	1	0	1	-5,567301	274,064181	314,316445	0
15.01.2021	18:31:24	0	0	2,711534	1,0785	319,1184	0,257	84,93	0	1016,58	6,7	8,9	8,7	1	1	1	1	1	1	1	1	1	0	1	-6,342495	273,930585	312,917981	0
15.01.2021	18:31:25	0	0	4,632203	1,0485	305,7876	0,258	84,927	0	1016,58	6,7	8,9	8,7	1	1	1	1	1	1	1	1	1	0	1	-14,65821	274,026978	305,05188	0
15.01.2021	18:31:26	0	0	3,615378	1,017	306,1044	0,264	84,946	0	1016,56	6,7	8,9	8,7	1	1	1	1	1	1	1	1	1	0	1	-7,117689	273,933543	312,156581	0
15.01.2021	18:31:27	0	0	5,084125	1,02075	313,5348	0,264	84,928	0	1016,52	6,7	8,9	8,7	1	1	1	1	1	1	1	1	1	0	1	-8,315715	274,058223	311,540218	0
15.01.2021	18:31:28	0	0	4,406242	1,01775	314,4672	0,263	84,939	0	1016,52	6,7	8,9	8,7	1	1	1	1	1	1	1	1	1	0	1	-10,570825	273,949825	308,779356	0
15.01.2021	18:31:29	0	0	4,406242	1,01325	308,9268	0,263	84,932	0	1016,58	6,7	8,9	8,7	1	1	1	1	1	1	1	1	1	0	1	-6,412967	274,061202	313,456871	0
15.01.2021	18:31:30	0	0	3,502398	1,038	311,7996	0,261	84,924	0	1016,58	6,7	8,9	8,7	1	1	1	1	1	1	1	1	1	0	1	-5,355884	274,113399	314,757711	0
15.01.2021	18:31:31	0	0	4,519223	1,03125	307,5912	0,257	84,937	0	1016,6	6,7	8,9	8,7	1	1	1	1	1	1	1	1	1	0	1	-12,614517	274,076101	307,324884	0
15.01.2021	18:31:32	0	0	2,824514	1,0425	302,0472	0,26	84,944	0	1016,62	6,7	8,9	8,7	1	1	1	1	1	1	1	1	1	0	1	-7,470049	273,942422	311,845616	0
15.01.2021	18:31:33	0	0	3,615378	1,0455	314,9136	0,263	84,938	0	1016,46	6,7	8,9	8,7	1	1	1	1	1	1	1	1	1	0	1	-9,020437	274,083555	310,953771	0
15.01.2021	18:31:34	0	0	2,711534	1,02	320,4792	0,264	84,943	0	1016,64	6,8	8,9	8,7	1	1	1	1	1	1	1	1	1	0	1	-6,553911	273,945383	312,775559	0
15.01.2021	18:31:35	0	0	4,293261	0,95325	317,3976	0,257	84,925	0	1016,6	6,7	8,9	8,7	1	1	1	1	1	1	1	1	1	0	1	-13,389711	273,995783	306,17482	0
15.01.2021	18:31:36	0	0	4,519223	0,90975	326,4732	0,26	84,938	0	1016,54	6,7	8,9	8,7	1	1	1	1	1	1	1	1	1	0	1	-6,483439	274,113399	313,630156	0
15.01.2021	18:31:37	0	0	4,180281	0,92325	327,0996	0,257	84,955	0	1016,58	6,7	8,9	8,7	1	1	1	1	1	1	1	1	1	0	1	-7,258633	274,056734	312,590349	0
15.01.2021	18:31:38	0	0	3,389417	0,9	321,228	0,267	84,937	0	1016,56	6,7	8,9	8,7	1	1	1	1	1	1	1	1	1	0	1	-5,637773	274,079082	314,315549	0
15.01.2021	18:31:39	0	0	3,502398	0,90825	308,088	0,26	84,934	0	1016,4	6,7	8,9	8,7	1	1	1	1	1	1	1	1	1	0	1	-10,359408	274,083555	309,6148	0
15.01.2021	18:31:40	0	0	3,95432	0,9495	302,0868	0,257	84,924	0	1016,34	6,6	8,9	8,7	1	1	1	1	1	1	1	1	1	0	1	-13,03735	274,062691	306,839441	0
15.01.2021	18:31:41	0	0	4,632203	0,954	308,1168	0,261	84,942	0	1016,68	6,7	8,9	8,7	1	1	1	1	1	1	1	1	1	0	1	-6,20155	274,104441	313,870201	0
15.01.2021	18:31:42	0	0	2,824514	1,0095	305,4024	0,264	84,948	0	1016,62	6,7	8,9	8,7	1	1	1	1	1	1	1	1	1	0	1	-8,386187	274,095487	311,643744	0
15.01.2021	18:31:43	0	0	4,293261	1,05825	306,378	0,262	84,943	0	1016,58	6,8	8,9	8,7	1	1	1	1	1	1	1	1	1	0	1	-13,178295	274,059713	306,684591	0
15.01.2021	18:31:44	0	0	2,824514	1,1085	307,5444	0,254	84,926	0	1016,58	6,7	8,9	8,7	1	1	1	1	1	1	1	1	1	0	1	-7,188161	274,11788	312,946365	0
15.01.2021	18:31:45	0	0	2,372592	1,206	305,0424	0,258	84,931	0	1016,38	6,7	8,9	8,7	1	1	1	1	1	1	1	1	1	0	1	-5,778717	274,046314	314,021623	0
15.01.2021	18:31:46	0	0	3,389417	1,22775	303,5808	0,255	84,939	0	1016,64	6,7	8,9	8,7	1	1	1	1	1	1	1	1	1	0	1	-9,090909	274,123856	311,071534	0
15.01.2021	18:31:47	0	0	4,745184	1,227	295,5564	0,26	84,932	0	1016,56	6,7	8,9	8,7	1	1	1	1	1	1	1	1	1	0	1	-7,82241	273,942422	311,493256	0
15.01.2021	18:31:48	0	0	4,0673	1,1895	309,15	0,262	84,928	0	1016,46	6,7	8,9	8,7	1	1	1	1	1	1	1	1	1	0	1	-9,372798	274,058223	310,483136	0
15.01.2021	18:31:49	0	0	5,310087	1,13175	313,1784	0,259	84,924	0	1016,52	6,7	8,9	8,7	1	1	1	1	1	1	1	1	1	0	1	-13,6716	273,936503	305,616466	0
15.01.2021	18:31:50	0	0	4,745184	1,089	316,998	0,265	84,938	0	1016,7	6,7	8,9	8,7	1	1	1	1	1	1	1	1	1	0	1	-9,584214	274,056734	310,264768	0
15.01.2021	18:31:51	0	0	4,632203	1,04325	321,1452	0,259	84,931	0	1016,64	6,7	8,9	8,7	1	1	1	1	1	1	1	1	1	0	1	-12,614517	273,954267	306,75638	0
15.01.2021	18:31:52	0	0	4,180281	1,00275	327,7368	0,262	84,91	0	1016,56	6,7	8,9	8,7	1	1	1	1	1	1	1	1	1	0	1	-8,45666	273,988363	311,073257	0
15.01.2021	18:31:53	0	0	3,389417	0,9735	327,438	0,255	84,931	0	1016,48	6,7	8,9	8,7	1	1	1	1	1	1	1	1	1	0	1	-7,399577	273,937982	311,895387	0
15.01.2021	18:31:54	0	0	2,711534	1,01025	320,1372	0,263	84,951	0	1016,5	6,7	8,9	8,7	1	1	1	1	1	1	1	1	1	0	1	-8,949965	273,988363	310,579952	0
15.01.2021	18:31:55	0	0	4,971145	0,963	311,4072	0,261	84,937	0	1016,48	6,7	8,9	8,7	1	1	1	1	1	1	1	1	1	0	1	-10,852713	273,937982	308,442251	0
15.01.2021	18:31:56	0	0	4,632203	0,945	308,1204	0,261	84,945	0	1016,62	6,7	8,9	8,7	1	1	1	1	1	1	1	1	1	0	1	-9,44327	274,024005	310,252945	0
15.01.2021	18:31:57	0	0	4,406242	0,86175	315,2268	0,262	84,946	0	1016,64	6,7	8,9	8,7	1	1	1	1	1	1	1	1	1	0	1	-10,782241	273,927626	308,464443	0
15.01.2021	18:31:58	0	0	4,0673	0,8565	318,0996	0,258	84,926	0	1016,54	6,7	8,9	8,7	1	1	1	1	1	1	1	1	1	0	1	-7,610994	274,076101	312,328408	0
15.01.2021	18:31:59	0	0	5,310087	0,882	316,2636	0,255	84,934	0	1016,42	6,7	8,9	8,7	1	1	1	1	1	1	1	1	1	0	1	-9,725159	274,108919	310,367512	0
15.01.2021	18:32:00	0	0	3,728359	0,849	308,016	0,259	84,933	0	1016,52	6,7	8,9	8,7	1	1	1	1	1	1	1	1	1	0	1	-8,174771	273,995783	311,389761	0
15.01.2021	18:32:01	0	0	3,615378	0,8835	306,4752	0,259	84,938	0	1016,6	6,7	8,9	8,7	1	1	1	1	1	1	1	1	1	0	1	-6,8358	273,943903	312,486768	0
15.01.2021	18:32:02	0	0	3,615378	0,87975	311,6952	0,254	84,929	0	1016,62	6,6	8,9	8,7	1	1	1	1	1	1	1	1	1	0	1	-5,285412	274,040363	314,487147	0
15.01.2021	18:32:03	0	0	3,276436	0,957	306,8388	0,261	84,94	0	1016,56	6,7	8,9	8,7	1	1	1	1	1	1	1	1	1	0	1	-10,923185	274,11788	309,211341	0
15.01.2021	18:32:04	0	0	4,180281	1,077	312,1596	0,258	84,932	0	1016,44	6,7	8,9	8,7	1	1	1	1	1	1	1	1	1	0	1	-4,580691	274,047803	315,226596	0
15.01.2021	18:32:05	0	0	2,711534	1,17375	308,448	0,256	84,942	0	1016,52	6,7	8,9	8,7	1	1	1	1	1	1	1	1	1	0	1	-8,245243	274,11788	311,889283	0
15.01.2021	18:32:06	0	0	4,745184	1,2	306,2088	0,262	84,935	0	1016,72	6,7	8,9	8,7	1	1	1	1	1	1	1	1	1	0	1	-9,936575	274,064181	309,947171	0
15.01.2021	18:32:07	0	0	4,745184	1,20675	314,1216	0,264	84,946	0	1016,48	6,6	8,9	8,7	1	1	1	1	1	1	1	1	1	0	1	-9,302326	273,952786	310,061665	0
15.01.2021	18:32:08	0	0	3,615378	1,22925	316,6488	0,26	84,932	0	1016,66	6,7	8,9	8,7	1	1	1	1	1	1	1	1	1	0	1	-8,949965	273,935023	310,331202	0
15.01.2021	18:32:09	0	0	4,406242	1,2405	315,8172	0,256	84,935	0	1016,4	6,7	8,9	8,7	1	1	1	1	1	1	1	1	1	0	1	-7,892882	274,056734	311,9561	0
15.01.2021	18:32:10	0	0	3,050475	1,25625	317,0808	0,259	84,923	0	1016,58	6,7	8,9	8,7	1	1	1	1	1	1	1	1	1	0	1	-5,496829	273,970566	313,950079	0
15.01.2021	18:32:11	0	0	3,276436	1,19325	316,9872	0,251	84,934	0	1016,24	6,7	8,9	8,7	1	1	1	1	1	1	1	1	1	0	1	-6,20155	274,074611	313,730892	0
15.01.2021	18:32:12	0	0	3,389417	1,179	322,9776	0,262	84,94	0	1016,7	6,7	8,9	8,7	1	1	1	1	1	1	1	1	1	0	1	-5,496829	273,945383	313,832641	0
15.01.2021	18:32:13	0	0	3,389417	1,1265	327,888	0,259	84,939	0	1016,62	6,7	8,9	8,7	1	1	1	1	1	1	1	1	1	0	1	-9,302326	273,983912	310,20683	0
15.01.2021	18:32:14	0	0	4,180281	1,05525	322,5348	0,263	84,945	0	1016,56	6,7	8,9	8,7	1	1	1	1	1	1	1	1	1	0	1	-11,06413	274,080573	308,896154	0
15.01.2021	18:32:15	0	0	2,824514	1,02225	311,7528	0,261	84,942	0	1016,6	6,7	8,9	8,7	1	1	1	1	1	1	1	1	1	0	1	-8,45666	274,102948	311,60812	0
15.01.2021	18:32:16	0	0	3,502398	0,97725	286,2468	0,259	84,947	0	1016,58	6,7	8,9	8,7	1	1	1	1	1	1	1	1	1	0	1	-7,470049	274,052268	312,358082	0
15.01.2021	18:32:17	0	0	4,293261	0,945	303,2928	0,259	84,959	0	1016,46	6,7	8,9	8,7	1	1	1	1	1	1	1	1	1	0	1	-7,399577	274,108919	312,693093	0
15.01.2021	18:32:18	0	0	3,163456	0,924	314,8488	0,255	84,946	0	1016,56	6,7	8,9	8,7	1	1	1	1	1	1	1	1	1	0	1	-6,483439	274,012117	313,157302	0
15.01.2021	18:32:19	0	0	3,728359	0,93825	302,4576	0,261	84,945	0	1016,68	6,7	8,9	8,7	1	1	1	1	1	1	1	1	1	0	1	-5,073996	274,113399	315,039599	0
15.01.2021	18:32:20	0	0	4,519223	0,98175	288,4716	0,258	84,952	0	1016,48	6,7	8,9	8,7	1	1	1	1	1	1	1	1	1	0	1	-9,372798	273,988363	310,157119	0
15.01.2021	18:32:21	0	0	2,711534	1,005	295,542	0,257	84,949	0	1016,64	6,7	8,9	8,7	1	1	1	1	1	1	1	1	1	0	1	-10,147992	274,088029	309,847108	0
15.01.2021	18:32:22	0	0	3,728359	1,0035	305,0028	0,258	84,926	0	1016,58	6,7	8,9	8,7	1	1	1	1	1	1	1	1	1	0	1	-7,329105	274,08952	312,672959	0
15.01.2021	18:32:23	0	0	3,050475	1,00725	301,59	0,254	84,951	0	1016,62	6,7	8,9	8,7	1	1	1	1	1	1	1	1	1	0	1	-6,272023	274,11788	313,862503	0
15.01.2021	18:32:24	0	0	2,259611	0,98925	298,7208	0,258	84,952	0	1016,54	6,7	8,9	8,7	1	1	1	1	1	1	1	1	1	0	1	-12,191684	273,983912	307,317472	0
15.01.2021	18:32:25	0	0	3,050475	0,98925	304,3332	0,261	84,957	0	1016,52	6,7	8,9	8,7	1	1	1	1	1	1	1	1	1	0	1	-8,45666	274,077591	311,489702	0
15.01.2021	18:32:26	0	0	4,858164	1,02225	300,8664	0,256	84,944	0	1016,42	6,7	8,9	8,7	1	1	1	1	1	1	1	1	1	0	1	-8,174771	273,940942	311,133994	0
15.01.2021	18:32:27	0	0	4,180281	1,00275	297,612	0,263	84,963	0	1016,52	6,7	8,9	8,7	1	1	1	1	1	1	1	1	1	0	1	-9,020437	274,056734	310,828545	0
15.01.2021	18:32:28	0	0	3,95432	0,98775	297,9756	0,266	84,96	0	1016,62	6,7	8,9	8,7	1	1	1	1	1	1	1	1	1	0	1	-10,641297	274,114893	309,479275	0
15.01.2021	18:32:29	0	0	4,180281	0,95025	304,3152	0,257	84,945	0	1016,42	6,7	8,9	8,7	1	1	1	1	1	1	1	1	1	0	1	-5,637773	273,985395	313,878302	0
15.01.2021	18:32:30	0	0	5,197106	0,95025	315,9288	0,262	84,974	0	1016,72	6,7	8,9	8,7	1	1	1	1	1	1	1	1	1	0	1	-2,60747	274,111906	317,49915	0
15.01.2021	18:32:31	0	0	3,163456	0,948	314,4348	0,257	84,954	0	1016,54	6,6	8,9	8,7	1	1	1	1	1	1	1	1	1	0	1	-8,527132	273,977979	310,954352	0
15.01.2021	18:32:32	0	0	4,293261	0,909	303,9264	0,257	84,948	0	1016,54	6,7	8,9	8,7	1	1	1	1	1	1	1	1	1	0	1	-8,949965	273,998751	310,628417	0
15.01.2021	18:32:33	0	0	2,824514	0,9135	303,5376	0,254	84,958	0	1016,48	6,6	8,9	8,7	1	1	1	1	1	1	1	1	1	0	1	-7,751938	273,939462	311,549926	0
15.01.2021	18:32:34	0	0	5,084125	0,8985	304,992	0,255	84,95	0	1016,5	6,7	8,9	8,7	1	1	1	1	1	1	1	1	1	0	1	-10,007047	274,082064	309,960198	0
15.01.2021	18:32:35	0	0	2,824514	0,89025	300,942	0,264	84,96	0	1016,62	6,7	8,9	8,7	1	1	1	1	1	1	1	1	1	0	1	-6,765328	273,933543	312,508942	0
15.01.2021	18:32:36	0	0	3,95432	0,93675	296,4168	0,257	84,969	0	1016,5	6,7	8,9	8,7	1	1	1	1	1	1	1	1	1	0	1	-11,909796	273,998751	307,668586	0
15.01.2021	18:32:37	0	0	4,293261	0,94425	299,4264	0,256	84,963	0	1016,62	6,7	8,9	8,7	1	1	1	1	1	1	1	1	1	0	1	-11,980268	273,935023	307,300899	0
15.01.2021	18:32:38	0	0	3,728359	0,942	304,6392	0,261	84,98	0	1016,46	6,7	8,9	8,7	1	1	1	1	1	1	1	1	1	0	1	-9,372798	274,044826	310,420596	0
15.01.2021	18:32:39	0	0	2,711534	1,00275	297,5976	0,258	84,97	0	1016,64	6,7	8,9	8,7	1	1	1	1	1	1	1	1	1	0	1	-10,711769	274,113399	309,401826	0
15.01.2021	18:32:40	0	0	2,937495	1,077	299,7252	0,258	84,963	0	1016,52	6,7	8,9	8,7	1	1	1	1	1	1	1	1	1	0	1	-8,879493	274,101456	311,178316	0
15.01.2021	18:32:41	0	0	3,276436	1,20975	312,1128	0,26	84,965	0	1016,74	6,7	8,9	8,7	1	1	1	1	1	1	1	1	1	0	1	-8,174771	273,927626	311,071913	0
15.01.2021	18:32:42	0	0	3,276436	1,353	297,5508	0,261	84,951	0	1016,68	6,7	8,9	8,7	1	1	1	1	1	1	1	1	1	0	1	-15,362932	274,04185	304,416572	0
15.01.2021	18:32:43	0	0	2,485572	1,473	310,2588	0,261	84,963	0	1016,62	6,7	8,9	8,7	1	1	1	1	1	1	1	1	1	0	1	-10,218464	274,107427	309,867233	0
15.01.2021	18:32:44	0	0	2,598553	1,503	303,2208	0,253	84,971	0	1016,56	6,7	8,9	8,7	1	1	1	1	1	1	1	1	1	0	1	-5,21494	274,032925	314,522907	0
15.01.2021	18:32:45	0	0	4,0673	1,5045	308,1564	0,257	84,964	0	1016,6	6,7	8,9	8,7	1	1	1	1	1	1	1	1	1	0	1	-8,315715	274,101456	311,742094	0
15.01.2021	18:32:46	0	0	4,0673	1,584	297,594	0,254	84,966	0	1016,72	6,7	8,9	8,7	1	1	1	1	1	1	1	1	1	0	1	-7,751938	273,933543	311,522331	0
15.01.2021	18:32:47	0	0	3,841339	1,64325	308,0844	0,257	84,975	0	1016,66	6,7	8,9	8,7	1	1	1	1	1	1	1	1	1	0	1	-8,738548	274,001721	310,853687	0
15.01.2021	18:32:48	0	0	4,745184	1,70925	316,728	0,26	84,982	0	1016,5	6,7	8,9	8,7	1	1	1	1	1	1	1	1	1	0	1	-8,738548	274,107427	311,347149	0
15.01.2021	18:32:49	0	0	4,632203	1,80525	319,1652	0,256	84,973	0	1016,48	6,7	8,9	8,7	1	1	1	1	1	1	1	1	1	0	1	-9,936575	273,982429	309,565662	0
15.01.2021	18:32:50	0	0	3,050475	1,86825	309,672	0,261	84,971	0	1016,58	6,7	8,9	8,7	1	1	1	1	1	1	1	1	1	0	1	-8,597604	274,123856	311,564839	0
15.01.2021	18:32:51	0	0	2,937495	1,91475	311,7924	0,257	84,971	0	1016,56	6,6	8,9	8,7	1	1	1	1	1	1	1	1	1	0	1	-4,792107	274,06567	315,098593	0
15.01.2021	18:32:52	0	0	3,728359	1,878	318,0888	0,257	84,975	0	1016,66	6,7	8,9	8,7	1	1	1	1	1	1	1	1	1	0	1	-4,933051	274,129833	315,257318	0
15.01.2021	18:32:53	0	0	3,276436	1,9875	317,0484	0,258	84,977	0	1016,64	6,7	8,9	8,7	1	1	1	1	1	1	1	1	1	0	1	-8,80902	273,969084	310,630974	0
15.01.2021	18:32:54	0	0	4,745184	2,175	320,0184	0,257	84,969	0	1016,58	6,7	8,9	8,7	1	1	1	1	1	1	1	1	1	0	1	-9,513742	274,061202	310,356096	0
15.01.2021	18:32:55	0	0	2,485572	2,21025	312,4656	0,258	84,963	0	1016,5	6,7	8,9	8,7	1	1	1	1	1	1	1	1	1	0	1	-8,245243	274,055245	311,596788	0
15.01.2021	18:32:56	0	0	3,728359	2,09775	311,8212	0,26	84,971	0	1016,46	6,6	8,9	8,7	1	1	1	1	1	1	1	1	1	0	1	-7,610994	274,016574	312,050545	0
15.01.2021	18:32:57	0	0	3,163456	1,9335	314,0244	0,258	84,969	0	1016,54	6,7	8,9	8,7	1	1	1	1	1	1	1	1	1	0	1	-9,725159	273,945383	309,604311	0
15.01.2021	18:32:58	0	0	4,519195	1,7745	322,7112	0,259	84,972	0	1016,54	6,6	8,9	8,8	1	1	1	1	1	1	1	1	1	0	1	-13,460183	274,077591	306,486178	0
15.01.2021	18:32:59	0	0	2,824514	1,7595	333,4896	0,258	84,975	0	1016,68	6,7	8,9	8,7	1	1	1	1	1	1	1	1	1	0	1	-6,8358	274,093995	313,187164	0
15.01.2021	18:33:00	0	0	4,406242	1,69425	340,5816	0,258	84,97	0	1016,62	6,7	8,9	8,7	1	1	1	1	1	1	1	1	1	0	1	-10,852713	274,055245	308,989318	0
15.01.2021	18:33:01	0	0	5,084125	1,67025	332,37	0,259	84,964	0	1016,36	6,7	8,9	8,7	1	1	1	1	1	1	1	1	1	0	1	-7,892882	274,00469	311,713208	0
15.01.2021	18:33:02	0	0	3,841339	1,60575	328,1004	0,255	84,969	0	1016,52	6,7	8,9	8,7	1	1	1	1	1	1	1	1	1	0	1	-12,05074	273,998751	307,527642	0
15.01.2021	18:33:03	0	0	4,971145	1,476	324,81	0,258	84,962	0	1016,7	6,7	8,9	8,7	1	1	1	1	1	1	1	1	1	0	1	-9,513742	274,108919	310,578928	0
15.01.2021	18:33:04	0	0	4,519223	1,38825	319,5	0,256	84,97	0	1016,44	6,7	8,9	8,7	1	1	1	1	1	1	1	1	1	0	1	-10,218464	274,06716	309,679192	0
15.01.2021	18:33:05	0	0	2,485572	1,36425	313,2468	0,258	84,966	0	1016,5	6,7	8,9	8,7	1	1	1	1	1	1	1	1	1	0	1	-10,147992	273,946863	309,188381	0
15.01.2021	18:33:06	0	0	4,519223	1,37475	317,7252	0,26	84,967	0	1016,4	6,7	8,9	8,7	1	1	1	1	1	1	1	1	1	0	1	-10,711769	274,06716	309,185887	0
15.01.2021	18:33:07	0	0	5,310087	1,42275	323,2944	0,26	84,972	0	1016,7	6,8	8,9	8,7	1	1	1	1	1	1	1	1	1	0	1	-10,147992	273,961674	309,257446	0
15.01.2021	18:33:08	0	0	4,745184	1,503	316,6128	0,258	84,967	0	1016,58	6,7	8,9	8,7	1	1	1	1	1	1	1	1	1	0	1	-9,725159	274,07163	310,193367	0
15.01.2021	18:33:09	0	0	3,615378	1,8105	312,9588	0,26	84,976	0	1016,56	6,7	8,9	8,7	1	1	1	1	1	1	1	1	1	0	1	-8,597604	274,107427	311,488093	0
15.01.2021	18:33:10	0	0	3,502398	1,8075	306,8352	0,26	84,975	0	1016,6	6,7	8,9	8,7	1	1	1	1	1	1	1	1	1	0	1	-10,077519	273,929105	309,17606	0
15.01.2021	18:33:11	0	0	2,259611	1,64625	304,6068	0,256	84,976	0	1016,64	6,6	8,9	8,7	1	1	1	1	1	1	1	1	1	0	1	-8,45666	274,044826	311,336734	0
15.01.2021	18:33:12	0	0	2,485572	1,581	308,4552	0,254	84,973	0	1016,62	6,8	8,9	8,7	1	1	1	1	1	1	1	1	1	0	1	-6,694856	273,955749	312,682948	0
15.01.2021	18:33:13	0	0	3,841339	1,64025	321,8076	0,257	84,964	0	1016,78	6,6	8,9	8,7	1	1	1	1	1	1	1	1	1	0	1	-5,708245	273,989846	313,828593	0
15.01.2021	18:33:14	0	0	4,745184	1,80675	324,1116	0,264	85,04	0	1016,6	6,7	8,9	8,7	1	1	1	1	1	1	1	1	1	0	1	-7,892882	273,948344	311,450394	0
15.01.2021	18:33:15	0	0	2,711534	1,974	306,8676	0,258	84,98	0	1016,7	6,7	8,9	8,7	1	1	1	1	1	1	1	1	1	0	1	-9,372798	274,085046	310,608373	0
15.01.2021	18:33:16	0	0	2,711534	1,88325	316,5984	0,253	84,977	0	1016,5	6,7	8,9	8,7	1	1	1	1	1	1	1	1	1	0	1	-6,412967	274,099963	313,637872	0
15.01.2021	18:33:17	0	0	4,632203	1,76625	321,5304	0,263	84,982	0	1016,62	6,7	8,9	8,7	1	1	1	1	1	1	1	1	1	0	1	-13,248767	274,046314	306,551573	0
15.01.2021	18:33:18	0	0	4,632203	1,71975	318,438	0,253	84,987	0	1016,54	6,7	8,9	8,7	1	1	1	1	1	1	1	1	1	0	1	-4,22833	273,948344	315,114946	0
15.01.2021	18:33:19	0	0	2,03365	1,665	303,516	0,258	84,976	0	1016,6	6,7	8,9	8,7	1	1	1	1	1	1	1	1	1	0	1	-12,403101	274,06567	307,4876	0
15.01.2021	18:33:20	0	0	4,632203	1,72125	299,394	0,259	84,987	0	1016,62	6,7	8,9	8,7	1	1	1	1	1	1	1	1	1	0	1	-8,80902	274,088029	311,186079	0
15.01.2021	18:33:21	0	0	2,485572	1,599	303,9012	0,258	84,983	0	1016,7	6,7	8,9	8,7	1	1	1	1	1	1	1	1	1	0	1	-9,654686	274,098471	310,389182	0
15.01.2021	18:33:22	0	0	2,937495	1,416	319,4928	0,254	84,974	0	1016,7	6,7	8,9	8,7	1	1	1	1	1	1	1	1	1	0	1	-6,694856	273,952786	312,669135	0
15.01.2021	18:33:23	0	0	3,389417	1,29	287,8056	0,258	84,96	0	1016,56	6,7	8,9	8,7	1	1	1	1	1	1	1	1	1	0	1	-8,033827	274,110413	312,065818	0
15.01.2021	18:33:24	0	0	3,389417	1,137	305,5032	0,254	84,963	0	1016,66	6,7	8,9	8,7	1	1	1	1	1	1	1	1	1	0	1	-8,033827	274,058223	311,822107	0
15.01.2021	18:33:25	0	0	5,084125	1,104	307,1484	0,252	84,978	0	1016,64	6,7	8,9	8,7	1	1	1	1	1	1	1	1	1	0	1	-7,540521	274,099963	312,510317	0
15.01.2021	18:33:26	0	0	4,632203	1,08225	312,8724	0,252	84,981	0	1016,4	6,7	8,9	8,7	1	1	1	1	1	1	1	1	1	0	1	-7,681466	274,038875	312,08415	0
15.01.2021	18:33:27	0	0	4,632203	1,13175	322,2072	0,257	84,98	0	1016,66	6,6	8,9	8,7	1	1	1	1	1	1	1	1	1	0	1	-8,45666	273,940942	310,852105	0
15.01.2021	18:33:28	0	0	3,841339	1,257	314,4564	0,259	84,987	0	1016,6	6,6	8,9	8,7	1	1	1	1	1	1	1	1	1	0	1	-7,610994	273,946863	311,725379	0
15.01.2021	18:33:29	0	0	3,615378	1,3965	300,4848	0,256	84,997	0	1016,8	6,7	8,9	8,7	1	1	1	1	1	1	1	1	1	0	1	-8,597604	274,052268	311,230528	0
15.01.2021	18:33:30	0	0	4,0673	1,42575	299,7396	0,255	84,987	0	1016,6	6,7	8,9	8,7	1	1	1	1	1	1	1	1	1	0	1	-6,624383	274,105934	313,45434	0
15.01.2021	18:33:31	0	0	3,841339	1,4325	303,1344	0,256	84,98	0	1016,58	6,7	8,9	8,7	1	1	1	1	1	1	1	1	1	0	1	-6,342495	273,995783	313,222037	0
15.01.2021	18:33:32	0	0	3,95432	1,39575	297,252	0,256	84,977	0	1016,56	6,7	8,9	8,7	1	1	1	1	1	1	1	1	1	0	1	-6,483439	274,11788	313,651087	0
15.01.2021	18:33:33	0	0	2,485572	1,34925	300,168	0,258	84,985	0	1016,56	6,7	8,9	8,7	1	1	1	1	1	1	1	1	1	0	1	-10,923185	274,044826	308,870209	0
15.01.2021	18:33:34	0	0	3,615378	1,4265	284,7816	0,263	84,985	0	1016,6	6,7	8,9	8,7	1	1	1	1	1	1	1	1	1	0	1	-11,205074	274,122361	308,950389	0
15.01.2021	18:33:35	0	0	3,050475	1,6245	300,4884	0,255	84,996	0	1016,64	6,7	8,9	8,7	1	1	1	1	1	1	1	1	1	0	1	-4,721635	274,000236	314,863673	0
15.01.2021	18:33:36	0	0	3,615378	1,809	296,496	0,264	84,992	0	1016,64	6,7	8,9	8,7	1	1	1	1	1	1	1	1	1	0	1	-12,544045	274,107427	307,541652	0
15.01.2021	18:33:37	0	0	4,293261	1,76475	294,0804	0,253	84,986	0	1016,46	6,7	8,9	8,7	1	1	1	1	1	1	1	1	1	0	1	-4,298802	273,985395	315,217274	0
15.01.2021	18:33:38	0	0	4,293261	1,65525	306,1044	0,256	84,989	0	1016,58	6,7	8,9	8,7	1	1	1	1	1	1	1	1	1	0	1	-8,949965	273,955749	310,427839	0
15.01.2021	18:33:39	0	0	4,180281	1,5795	306,8352	0,263	84,988	0	1016,66	6,6	8,9	8,7	1	1	1	1	1	1	1	1	1	0	1	-13,742072	274,06716	306,155584	0
15.01.2021	18:33:40	0	0	4,406242	1,52925	290,0952	0,255	84,965	0	1016,72	6,7	8,9	8,7	1	1	1	1	1	1	1	1	1	0	1	-10,782241	274,099963	309,268597	0
15.01.2021	18:33:41	0	0	2,824514	1,5615	303,2748	0,257	84,993	0	1016,64	6,7	8,9	8,7	1	1	1	1	1	1	1	1	1	0	1	-6,20155	273,983912	313,307605	0
15.01.2021	18:33:42	0	0	5,310087	1,5915	293,0292	0,255	84,975	0	1016,58	6,7	8,9	8,7	1	1	1	1	1	1	1	1	1	0	1	-9,513742	274,101456	310,544067	0
15.01.2021	18:33:43	0	0	2,824514	1,71825	298,2888	0,252	84,975	0	1016,62	6,7	8,9	8,7	1	1	1	1	1	1	1	1	1	0	1	-7,751938	274,013602	311,895735	0
15.01.2021	18:33:44	0	0	4,745184	1,755	290,8476	0,25	84,977	0	1016,64	6,8	8,9	8,7	1	1	1	1	1	1	1	1	1	0	1	-8,879493	274,110413	311,220152	0
15.01.2021	18:33:45	0	0	2,824514	1,653	286,038	0,259	84,984	0	1016,64	6,7	8,9	8,7	1	1	1	1	1	1	1	1	1	0	1	-5,637773	273,970566	313,809134	0
15.01.2021	18:33:46	0	0	4,858164	1,59675	287,7048	0,258	84,997	0	1016,64	6,7	8,9	8,7	1	1	1	1	1	1	1	1	1	0	1	-9,513742	274,102948	310,551038	0
15.01.2021	18:33:47	0	0	3,050475	1,479	295,4952	0,256	84,981	0	1016,7	6,7	8,9	8,7	1	1	1	1	1	1	1	1	1	0	1	-11,346018	273,958711	308,045601	0
15.01.2021	18:33:48	0	0	2,259611	1,362	289,5984	0,254	84,974	0	1016,52	6,7	8,9	8,7	1	1	1	1	1	1	1	1	1	0	1	-7,963354	273,937982	311,33161	0
15.01.2021	18:33:49	0	0	2,711534	1,32075	288,144	0,258	84,984	0	1016,6	6,7	8,9	8,7	1	1	1	1	1	1	1	1	1	0	1	-14,376321	273,949825	304,973859	0
15.01.2021	18:33:50	0	0	2,598553	1,404	288,18	0,262	84,983	0	1016,7	6,7	8,9	8,7	1	1	1	1	1	1	1	1	1	0	1	-7,399577	273,943903	311,92299	0
15.01.2021	18:33:51	0	0	2,711534	1,58175	291,8808	0,256	84,971	0	1016,62	6,7	8,9	8,7	1	1	1	1	1	1	1	1	1	0	1	-6,20155	273,946863	313,134822	0
15.01.2021	18:33:52	0	0	3,050475	1,79025	291,7944	0,255	84,981	0	1016,62	6,7	8,9	8,7	1	1	1	1	1	1	1	1	1	0	1	-7,470049	273,943903	311,852518	0
15.01.2021	18:33:53	0	0	3,841339	1,81875	279,2088	0,253	84,985	0	1016,8	6,8	8,9	8,7	1	1	1	1	1	1	1	1	1	0	1	-13,812544	274,043338	305,973904	0
15.01.2021	18:33:54	0	0	2,485572	1,86	303,7968	0,249	84,978	0	1016,58	6,7	8,9	8,7	1	1	1	1	1	1	1	1	1	0	1	-9,372798	274,108919	310,719873	0
15.01.2021	18:33:55	0	0	3,615378	1,821	309,9528	0,248	84,973	0	1016,54	6,7	8,9	8,7	1	1	1	1	1	1	1	1	1	0	1	-10,077519	274,080573	309,882764	0
15.01.2021	18:33:56	0	0	3,276436	1,9065	289,6704	0,256	84,988	0	1016,56	6,6	8,9	8,7	1	1	1	1	1	1	1	1	1	0	1	-12,684989	273,949825	306,665191	0
15.01.2021	18:33:57	0	0	3,050475	1,9725	293,742	0,261	84,994	0	1016,66	6,7	8,9	8,7	1	1	1	1	1	1	1	1	1	0	1	-9,725159	273,927626	309,521526	0
15.01.2021	18:33:58	0	0	4,293261	1,8555	303,8796	0,255	84,986	0	1016,4	6,7	8,9	8,7	1	1	1	1	1	1	1	1	1	0	1	-7,329105	274,037387	312,429567	0
15.01.2021	18:33:59	0	0	2,937495	1,905	304,3116	0,254	84,995	0	1016,64	6,7	8,9	8,7	1	1	1	1	1	1	1	1	1	0	1	-5,990134	274,116386	314,137414	0
15.01.2021	18:34:00	0	0	2,372592	2,13	313,2504	0,253	84,987	0	1016,6	6,7	8,9	8,7	1	1	1	1	1	1	1	1	1	0	1	-7,399577	274,06567	312,491123	0
15.01.2021	18:34:01	0	0	2,372592	2,13	313,2504	0,253	84,987	0	1016,6	6,7	8,9	8,7	1	1	1	1	1	1	1	1	1	0	1	-11,980268	274,104441	308,091484	0
15.01.2021	18:34:02	0	0	3,95432	2,12325	323,424	0,258	84,979	0	1016,52	6,7	8,9	8,7	1	1	1	1	1	1	1	1	1	0	1	-7,470049	273,99133	312,073711	0
15.01.2021	18:34:03	0	0	3,389417	2,1345	318,888	0,258	84,974	0	1016,58	6,7	8,9	8,7	1	1	1	1	1	1	1	1	1	0	1	-14,235377	273,929105	305,018203	0
15.01.2021	18:34:04	0	0	4,519223	2,05125	311,7276	0,253	84,991	0	1016,7	6,7	8,9	8,7	1	1	1	1	1	1	1	1	1	0	1	-10,218464	274,006175	309,394555	0
15.01.2021	18:34:05	0	0	2,711534	2,052	316,9944	0,256	84,99	0	1016,52	6,7	8,9	8,7	1	1	1	1	1	1	1	1	1	0	1	-9,161381	273,970566	310,285526	0
15.01.2021	18:34:06	0	0	3,615378	2,025	308,1528	0,261	84,993	0	1016,46	6,7	8,9	8,7	1	1	1	1	1	1	1	1	1	0	1	-9,44327	273,948344	309,900006	0
15.01.2021	18:34:07	0	0	4,519223	1,9785	315,2628	0,254	84,977	0	1016,46	6,7	8,9	8,7	1	1	1	1	1	1	1	1	1	0	1	-12,05074	274,083555	307,923468	0
15.01.2021	18:34:08	0	0	3,728359	2,08275	306,4536	0,253	84,973	0	1016,56	6,7	8,9	8,7	1	1	1	1	1	1	1	1	1	0	1	-10,147992	273,940942	309,160773	0
15.01.2021	18:34:09	0	0	5,084125	2,1315	313,3008	0,256	84,993	0	1016,56	6,6	8,9	8,7	1	1	1	1	1	1	1	1	1	0	1	-8,386187	274,06716	311,511468	0
15.01.2021	18:34:10	0	0	2,824514	2,16525	308,1096	0,253	84,992	0	1016,66	6,7	8,9	8,7	1	1	1	1	1	1	1	1	1	0	1	-7,188161	273,940942	312,120604	0
15.01.2021	18:34:11	0	0	3,615378	2,11425	307,242	0,255	84,992	0	1016,8	6,7	8,9	8,7	1	1	1	1	1	1	1	1	1	0	1	-3,875969	274,046314	315,924371	0
15.01.2021	18:34:12	0	0	4,180281	2,0715	300,1428	0,254	84,971	0	1016,58	6,6	8,9	8,7	1	1	1	1	1	1	1	1	1	0	1	-8,879493	273,937982	310,415472	0
15.01.2021	18:34:13	0	0	4,180281	1,99125	313,9524	0,257	84,989	0	1016,64	6,6	8,9	8,7	1	1	1	1	1	1	1	1	1	0	1	-10,42988	274,0359	309,32185	0
15.01.2021	18:34:14	0	0	4,858164	1,94475	315,5112	0,255	84,979	0	1016,64	6,7	8,9	8,7	1	1	1	1	1	1	1	1	1	0	1	-10,147992	274,111906	309,958628	0
15.01.2021	18:34:15	0	0	5,310087	1,96875	307,206	0,255	84,972	0	1016,68	6,7	8,9	8,7	1	1	1	1	1	1	1	1	1	0	1	-4,651163	274,113399	315,462432	0
15.01.2021	18:34:16	0	0	4,519223	2,04675	310,716	0,254	84,983	0	1016,62	6,6	8,9	8,7	1	1	1	1	1	1	1	1	1	0	1	-10,077519	274,095487	309,952412	0
15.01.2021	18:34:17	0	0	4,180281	2,15775	312,8652	0,257	84,977	0	1016,58	6,6	8,9	8,7	1	1	1	1	1	1	1	1	1	0	1	-10,782241	273,95723	308,60247	0
15.01.2021	18:34:18	0	0	4,632203	2,12475	308,4804	0,256	84,98	0	1016,58	6,7	8,9	8,7	1	1	1	1	1	1	1	1	1	0	1	-5,567301	274,07312	314,358183	0
15.01.2021	18:34:19	0	0	5,310087	2,112	307,2636	0,252	84,986	0	1016,56	6,7	8,9	8,7	1	1	1	1	1	1	1	1	1	0	1	-10,641297	274,113399	309,472299	0
15.01.2021	18:34:20	0	0	2,824514	2,04075	305,0532	0,248	84,98	0	1016,52	6,7	8,9	8,7	1	1	1	1	1	1	1	1	1	0	1	-7,610994	273,99133	311,932767	0
15.01.2021	18:34:21	0	0	3,95432	2,0685	305,7516	0,254	84,988	0	1016,84	6,8	8,9	8,7	1	1	1	1	1	1	1	1	1	0	1	-4,933051	273,948344	314,410225	0
15.01.2021	18:34:22	0	0	2,598553	2,121	310,0068	0,255	84,982	0	1016,68	6,7	8,9	8,7	1	1	1	1	1	1	1	1	1	0	1	-11,346018	273,955749	308,031786	0
15.01.2021	18:34:23	0	0	5,084125	2,16	308,8548	0,257	84,985	0	1016,58	6,7	8,9	8,7	1	1	1	1	1	1	1	1	1	0	1	-9,372798	274,06716	310,524858	0
15.01.2021	18:34:24	0	0	4,858164	2,136	301,9644	0,252	84,99	0	1016,58	6,6	8,9	8,7	1	1	1	1	1	1	1	1	1	0	1	-9,161381	274,093995	310,861582	0
15.01.2021	18:34:25	0	0	4,858164	2,265	295,11	0,256	84,98	0	1016,64	6,7	8,9	8,7	1	1	1	1	1	1	1	1	1	0	1	-7,892882	273,95723	311,491829	0
15.01.2021	18:34:26	0	0	3,276436	2,175	295,1712	0,247	84,984	0	1016,48	6,7	8,9	8,7	1	1	1	1	1	1	1	1	1	0	1	-10,711769	274,08952	309,290295	0
15.01.2021	18:34:27	0	0	4,519223	2,1105	282,5064	0,257	84,993	0	1016,7	6,7	8,9	8,7	1	1	1	1	1	1	1	1	1	0	1	-9,090909	274,128339	311,092478	0
15.01.2021	18:34:28	0	0	2,937495	2,05875	294,1416	0,254	84,997	0	1016,72	6,7	8,9	8,7	1	1	1	1	1	1	1	1	1	0	1	-5,84919	274,044826	313,944204	0
15.01.2021	18:34:29	0	0	2,598553	2,08425	292,2516	0,257	84,995	0	1016,6	6,6	8,9	8,7	1	1	1	1	1	1	1	1	1	0	1	-7,329105	273,963156	312,083243	0
15.01.2021	18:34:30	0	0	2,711534	2,10375	299,1492	0,255	84,976	0	1016,66	6,7	8,9	8,7	1	1	1	1	1	1	1	1	1	0	1	-8,668076	274,00469	310,938014	0
15.01.2021	18:34:31	0	0	2,598553	2,03775	297,288	0,25	85,003	0	1016,8	6,7	8,9	8,7	1	1	1	1	1	1	1	1	1	0	1	-7,82241	273,948344	311,520866	0
15.01.2021	18:34:32	0	0	4,971145	1,88175	309,5748	0,253	85,003	0	1016,56	6,7	8,9	8,7	1	1	1	1	1	1	1	1	1	0	1	-10,147992	274,079082	309,805331	0
15.01.2021	18:34:33	0	0	2,372592	1,809	285,9408	0,255	84,99	0	1016,62	6,7	8,9	8,7	1	1	1	1	1	1	1	1	1	0	1	-8,174771	273,955749	311,203033	0
15.01.2021	18:34:34	0	0	2,824514	1,70925	294,102	0,249	84,991	0	1016,6	6,6	8,9	8,7	1	1	1	1	1	1	1	1	1	0	1	-6,483439	274,044826	313,309955	0
15.01.2021	18:34:35	0	0	3,389417	1,671	300,4704	0,257	84,999	0	1016,56	6,7	8,9	8,7	1	1	1	1	1	1	1	1	1	0	1	-10,852713	274,138803	309,379567	0
15.01.2021	18:34:36	0	0	3,728359	1,6845	297,9576	0,253	84,981	0	1016,6	6,7	9	8,7	1	1	1	1	1	1	1	1	1	0	1	-8,45666	274,055245	311,385372	0
15.01.2021	18:34:37	0	0	4,858164	1,65075	301,6008	0,259	84,997	0	1016,64	6,7	8,9	8,7	1	1	1	1	1	1	1	1	1	0	1	-9,584214	274,135813	310,634093	0
15.01.2021	18:34:38	0	0	3,728359	1,629	312,426	0,251	84,992	0	1016,56	6,7	8,9	8,7	1	1	1	1	1	1	1	1	1	0	1	-12,403101	274,061202	307,466738	0
15.01.2021	18:34:39	0	0	3,615378	1,527	298,008	0,247	84,997	0	1016,58	6,7	8,9	8,7	1	1	1	1	1	1	1	1	1	0	1	-7,470049	274,128339	312,713338	0
15.01.2021	18:34:40	0	0	4,971145	1,46625	293,7024	0,254	85,001	0	1016,68	6,7	8,9	8,7	1	1	1	1	1	1	1	1	1	0	1	-11,698379	274,088029	308,29672	0
15.01.2021	18:34:41	0	0	4,293261	1,43925	304,9596	0,255	84,977	0	1016,68	6,7	8,9	8,7	1	1	1	1	1	1	1	1	1	0	1	-8,45666	273,977979	311,024824	0
15.01.2021	18:34:42	0	0	4,632203	1,44	309,5856	0,256	84,997	0	1016,64	6,7	8,9	8,7	1	1	1	1	1	1	1	1	1	0	1	-9,231853	274,11788	310,902673	0
15.01.2021	18:34:43	0	0	4,632203	1,386	317,7504	0,254	84,988	0	1016,58	6,7	8,9	8,7	1	1	1	1	1	1	1	1	1	0	1	-13,883016	274,079082	306,070306	0
15.01.2021	18:34:44	0	0	3,615378	1,43925	306,1548	0,255	85,012	0	1016,7	6,7	8,9	8,7	1	1	1	1	1	1	1	1	1	0	1	-11,134602	274,138803	309,097679	0
15.01.2021	18:34:45	0	0	3,163456	1,4685	315,2196	0,246	84,995	0	1016,58	6,7	8,9	8,7	1	1	1	1	1	1	1	1	1	0	1	-9,090909	274,06716	310,806747	0
15.01.2021	18:34:46	0	0	2,937495	1,4895	323,6508	0,256	85,007	0	1016,48	6,7	8,9	8,7	1	1	1	1	1	1	1	1	1	0	1	-8,245243	273,96612	311,180927	0
15.01.2021	18:34:47	0	0	3,389417	1,536	325,1736	0,254	85,003	0	1016,72	6,7	8,9	8,7	1	1	1	1	1	1	1	1	1	0	1	-11,06413	274,029951	308,659837	0
15.01.2021	18:34:48	0	0	4,519223	1,41	313,6356	0,254	85,006	0	1016,58	6,7	8,9	8,7	1	1	1	1	1	1	1	1	1	0	1	-6,20155	274,132823	314,002787	0
15.01.2021	18:34:49	0	0	4,632203	1,30425	310,698	0,248	84,992	0	1016,56	6,7	8,9	8,7	1	1	1	1	1	1	1	1	1	0	1	-17,195208	274,055245	302,646823	0
15.01.2021	18:34:50	0	0	4,406242	1,30125	309,6072	0,256	85,017	0	1016,72	6,6	8,9	8,7	1	1	1	1	1	1	1	1	1	0	1	-8,104299	274,108919	311,988372	0
15.01.2021	18:34:51	0	0	4,632203	1,302	308,5056	0,253	85,006	0	1016,96	6,8	8,9	8,7	1	1	1	1	1	1	1	1	1	0	1	-8,45666	274,113399	311,656936	0
15.01.2021	18:34:52	0	0	4,406242	1,3185	315,6372	0,249	85,009	0	1016,64	6,7	8,9	8,7	1	1	1	1	1	1	1	1	1	0	1	-8,386187	274,140298	311,85308	0
15.01.2021	18:34:53	0	0	4,745184	1,34025	321,8904	0,257	85,021	0	1016,8	6,7	8,9	8,7	1	1	1	1	1	1	1	1	1	0	1	-9,372798	274,06716	310,524858	0
15.01.2021	18:34:54	0	0	4,519223	1,33275	316,3212	0,253	85,019	0	1016,72	6,7	8,9	8,7	1	1	1	1	1	1	1	1	1	0	1	-7,329105	274,137308	312,896189	0
15.01.2021	18:34:55	0	0	4,293261	1,3215	312,1164	0,248	84,999	0	1016,46	6,7	8,9	8,7	1	1	1	1	1	1	1	1	1	0	1	-13,03735	273,994298	306,520257	0
15.01.2021	18:34:56	0	0	3,276436	1,302	313,6644	0,253	85,012	0	1016,66	6,7	8,9	8,7	1	1	1	1	1	1	1	1	1	0	1	-8,949965	274,016574	310,711574	0
15.01.2021	18:34:57	0	0	4,406242	1,3545	309,9024	0,256	85,009	0	1016,74	6,7	8,9	8,7	1	1	1	1	1	1	1	1	1	0	1	-5,144468	274,126844	315,031937	0
15.01.2021	18:34:58	0	0	5,197106	1,50225	309,2148	0,251	84,999	0	1016,56	6,7	8,9	8,7	1	1	1	1	1	1	1	1	1	0	1	-13,883016	274,034413	305,861772	0
15.01.2021	18:34:59	0	0	2,824514	1,527	309,5532	0,255	85,024	0	1016,66	6,7	8,9	8,7	1	1	1	1	1	1	1	1	1	0	1	-9,795631	273,983912	309,713525	0
15.01.2021	18:35:00	0	0	2,711534	1,5165	306,2232	0,245	85,01	0	1016,54	6,7	8,9	8,7	1	1	1	1	1	1	1	1	1	0	1	-9,866103	274,044826	309,927291	0
15.01.2021	18:35:01	0	0	2,824514	1,4595	312,138	0,253	85,017	0	1016,76	6,7	8,9	8,7	1	1	1	1	1	1	1	1	1	0	1	-5,708245	273,969084	313,731749	0
15.01.2021	18:35:02	0	0	4,745184	1,4385	315,1656	0,256	85,007	0	1016,58	6,7	8,9	8,7	1	1	1	1	1	1	1	1	1	0	1	-5,355884	273,979462	314,132516	0
15.01.2021	18:35:03	0	0	4,519223	1,42875	312,8148	0,253	85,019	0	1016,56	6,7	8,9	8,7	1	1	1	1	1	1	1	1	1	0	1	-8,45666	274,116386	311,670889	0
15.01.2021	18:35:04	0	0	5,084125	1,40325	315,2088	0,255	85,017	0	1016,68	6,7	8,9	8,7	1	1	1	1	1	1	1	1	1	0	1	-7,963354	273,994298	311,594253	0
15.01.2021	18:35:05	0	0	2,598553	1,3755	306,2088	0,256	85,01	0	1016,56	6,7	8,9	8,7	1	1	1	1	1	1	1	1	1	0	1	-10,570825	274,095487	309,459107	0
15.01.2021	18:35:06	0	0	5,084125	1,3665	315,5076	0,252	85,011	0	1016,68	6,7	8,9	8,7	1	1	1	1	1	1	1	1	1	0	1	-10,288936	274,096979	309,747964	0
15.01.2021	18:35:07	0	0	2,485572	1,38	323,352	0,257	85,039	0	1016,58	6,7	8,9	8,7	1	1	1	1	1	1	1	1	1	0	1	-8,879493	273,969084	310,560502	0
15.01.2021	18:35:08	0	0	2,259611	1,42125	317,754	0,251	85,027	0	1016,68	6,7	8,9	8,7	1	1	1	1	1	1	1	1	1	0	1	-14,940099	274,000236	304,645209	0
15.01.2021	18:35:09	0	0	3,050475	1,431	321,1056	0,253	85,035	0	1016,64	6,7	8,9	8,7	1	1	1	1	1	1	1	1	1	0	1	-7,047216	274,08952	312,954848	0
15.01.2021	18:35:10	0	0	4,180281	1,5	316,2204	0,254	85,026	0	1016,64	6,7	8,9	8,7	1	1	1	1	1	1	1	1	1	0	1	-10,500352	274,08952	309,501712	0
15.01.2021	18:35:11	0	0	2,937495	1,548	319,3272	0,258	85,032	0	1016,78	6,7	8,9	8,7	1	1	1	1	1	1	1	1	1	0	1	-11,698379	274,015088	307,956226	0
15.01.2021	18:35:12	0	0	3,728359	1,5195	318,456	0,253	85,053	0	1017,02	6,7	8,9	8,7	1	1	1	1	1	1	1	1	1	0	1	-9,090909	273,960193	310,307619	0
15.01.2021	18:35:13	0	0	3,276436	1,47825	311,3856	0,25	85,033	0	1016,54	6,7	9	8,7	1	1	1	1	1	1	1	1	1	0	1	-11,275546	274,038875	308,490069	0
15.01.2021	18:35:14	0	0	2,824514	1,40925	307,6524	0,256	85,032	0	1016,64	6,7	8,9	8,7	1	1	1	1	1	1	1	1	1	0	1	-8,45666	274,00766	311,163289	0
15.01.2021	18:35:15	0	0	2,485572	1,4025	311,5728	0,255	85,03	0	1016,6	6,7	8,9	8,7	1	1	1	1	1	1	1	1	1	0	1	-4,721635	273,998751	314,856747	0
15.01.2021	18:35:16	0	0	4,406242	1,4355	315,4824	0,252	85,031	0	1016,62	6,7	8,9	8,7	1	1	1	1	1	1	1	1	1	0	1	-10,42988	274,091012	309,57915	0
15.01.2021	18:35:17	0	0	2,937495	1,449	312,5376	0,247	85,012	0	1016,56	6,7	8,9	8,7	1	1	1	1	1	1	1	1	1	0	1	-6,483439	273,997267	313,088017	0
15.01.2021	18:35:18	0	0	3,389417	1,46775	304,7112	0,254	85,022	0	1016,68	6,7	8,9	8,7	1	1	1	1	1	1	1	1	1	0	1	-9,090909	274,144785	311,169325	0
15.01.2021	18:35:19	0	0	4,519223	1,485	301,7016	0,243	85,018	0	1016,64	6,7	8,9	8,7	1	1	1	1	1	1	1	1	1	0	1	-9,231853	273,988363	310,298063	0
15.01.2021	18:35:20	0	0	2,824514	1,51125	299,8332	0,257	85,039	0	1016,74	6,7	8,9	8,7	1	1	1	1	1	1	1	1	1	0	1	-10,288936	274,101456	309,768873	0
15.01.2021	18:35:21	0	0	4,0673	1,53225	295,6176	0,256	85,029	0	1016,72	6,7	8,9	8,7	1	1	1	1	1	1	1	1	1	0	1	-7,82241	273,977979	311,659073	0
15.01.2021	18:35:22	0	0	3,163456	1,5615	306,1728	0,252	85,028	0	1016,66	6,7	8,8	8,7	1	1	1	1	1	1	1	1	1	0	1	-5,355884	274,074611	314,576558	0
15.01.2021	18:35:23	0	0	4,406242	1,749	288,8604	0,246	85,029	0	1016,64	6,7	8,9	8,7	1	1	1	1	1	1	1	1	1	0	1	-6,624383	274,144785	313,635851	0
15.01.2021	18:35:24	0	0	3,615378	2,06475	302,85	0,258	85,029	0	1016,62	6,7	8,9	8,7	1	1	1	1	1	1	1	1	1	0	1	-3,946441	274,080573	316,013842	0
15.01.2021	18:35:25	0	0	3,050475	2,331	303,5808	0,257	85,032	0	1016,64	6,7	8,9	8,7	1	1	1	1	1	1	1	1	1	0	1	-8,949965	274,152266	311,345226	0
15.01.2021	18:35:26	0	0	4,858164	2,364	294,8652	0,251	85,016	0	1016,54	6,7	8,9	8,7	1	1	1	1	1	1	1	1	1	0	1	-8,949965	274,07312	310,975519	0
15.01.2021	18:35:27	0	0	4,406242	2,298	306,5004	0,258	85,035	0	1016,66	6,7	8,9	8,7	1	1	1	1	1	1	1	1	1	0	1	-6,976744	274,126844	313,199661	0
15.01.2021	18:35:28	0	0	2,937495	2,1105	290,8332	0,254	85,042	0	1016,8	6,7	8,9	8,7	1	1	1	1	1	1	1	1	1	0	1	-12,332629	273,995783	307,231903	0
15.01.2021	18:35:29	0	0	4,858164	1,97625	295,4736	0,252	85,021	0	1016,62	6,7	8,9	8,7	1	1	1	1	1	1	1	1	1	0	1	-10,42988	274,113399	309,683715	0
15.01.2021	18:35:30	0	0	3,728359	1,8945	290,8224	0,251	85,017	0	1016,76	6,7	8,9	8,7	1	1	1	1	1	1	1	1	1	0	1	-10,359408	274,144785	309,900826	0
15.01.2021	18:35:31	0	0	5,084125	1,84575	291,9168	0,259	85,043	0	1016,56	6,7	8,9	8,7	1	1	1	1	1	1	1	1	1	0	1	-8,315715	274,149273	311,965491	0
15.01.2021	18:35:32	0	0	2,824514	1,809	303,5736	0,253	85,032	0	1016,74	6,7	8,9	8,7	1	1	1	1	1	1	1	1	1	0	1	-9,090909	273,969084	310,349085	0
15.01.2021	18:35:33	0	0	3,276436	1,701	292,9896	0,247	85,032	0	1016,7	6,7	8,9	8,7	1	1	1	1	1	1	1	1	1	0	1	-2,677942	273,989846	316,858896	0
15.01.2021	18:35:34	0	0	4,0673	1,7025	296,5248	0,252	85,026	0	1016,66	6,7	8,9	8,7	1	1	1	1	1	1	1	1	1	0	1	-3,59408	274,083555	316,380127	0
15.01.2021	18:35:35	0	0	3,95432	1,866	292,6656	0,264	85,027	0	1016,52	6,7	8,9	8,7	1	1	1	1	1	1	1	1	1	0	1	-5,919662	273,986879	313,603334	0
15.01.2021	18:35:36	0	0	3,615378	1,9545	299,8116	0,255	85,028	0	1016,62	6,7	8,9	8,7	1	1	1	1	1	1	1	1	1	0	1	-9,513742	274,104441	310,558009	0
15.01.2021	18:35:37	0	0	2,598553	2,11725	294,8076	0,255	85,028	0	1016,84	6,7	8,9	8,7	1	1	1	1	1	1	1	1	1	0	1	-9,654686	274,138803	310,577594	0
15.01.2021	18:35:38	0	0	4,519223	2,199	309,3084	0,254	85,029	0	1016,7	6,7	8,8	8,7	1	1	1	1	1	1	1	1	1	0	1	-6,412967	274,111906	313,693653	0
15.01.2021	18:35:39	0	0	4,0673	2,30325	294,1488	0,245	85,024	0	1016,56	6,7	8,9	8,7	1	1	1	1	1	1	1	1	1	0	1	-9,725159	274,102948	310,339621	0
15.01.2021	18:35:40	0	0	3,728359	2,349	304,3008	0,247	85,015	0	1016,46	6,7	8,9	8,7	1	1	1	1	1	1	1	1	1	0	1	-15,785765	273,979462	303,702636	0
15.01.2021	18:35:41	0	0	3,050475	2,304	312,1812	0,249	85,009	0	1016,64	6,7	8,9	8,7	1	1	1	1	1	1	1	1	1	0	1	-8,597604	274,062691	311,279188	0
15.01.2021	18:35:42	0	0	3,615378	2,19675	309,5892	0,25	85,029	0	1016,68	6,7	8,9	8,7	1	1	1	1	1	1	1	1	1	0	1	-8,033827	273,967602	311,399255	0
15.01.2021	18:35:43	0	0	4,293261	2,106	304,6032	0,245	85,018	0	1016,64	6,7	8,9	8,7	1	1	1	1	1	1	1	1	1	0	1	-10,923185	274,06716	308,97447	0
15.01.2021	18:35:44	0	0	3,502398	2,1285	307,6776	0,251	85,03	0	1016,64	6,7	9	8,7	1	1	1	1	1	1	1	1	1	0	1	-11,134602	273,979462	308,353799	0
15.01.2021	18:35:45	0	0	3,841339	2,13075	309,996	0,252	85,017	0	1016,66	6,7	8,8	8,7	1	1	1	1	1	1	1	1	1	0	1	-10,288936	274,135813	309,929372	0
15.01.2021	18:35:46	0	0	4,745184	2,1555	314,658	0,254	85,025	0	1016,64	6,7	9	8,7	1	1	1	1	1	1	1	1	1	0	1	-6,272023	274,107427	313,813674	0
15.01.2021	18:35:47	0	0	3,389417	2,22375	322,5924	0,253	85,028	0	1016,62	6,7	8,9	8,7	1	1	1	1	1	1	1	1	1	0	1	-8,104299	274,000236	311,481009	0
15.01.2021	18:35:48	0	0	4,858164	2,15625	326,7864	0,254	85,016	0	1016,74	6,7	9	8,7	1	1	1	1	1	1	1	1	1	0	1	-10,218464	274,024005	309,477751	0
15.01.2021	18:35:49	0	0	5,423067	2,0415	323,748	0,252	85,021	0	1016,72	6,7	8,9	8,7	1	1	1	1	1	1	1	1	1	0	1	-9,372798	273,992814	310,177886	0
15.01.2021	18:35:50	0	0	4,519223	2,07075	316,0476	0,253	85,005	0	1016,62	6,7	8,9	8,7	1	1	1	1	1	1	1	1	1	0	1	-8,668076	274,080573	311,292207	0
15.01.2021	18:35:51	0	0	2,711534	2,0685	332,1108	0,257	85,015	0	1016,74	6,7	8,9	8,7	1	1	1	1	1	1	1	1	1	0	1	-7,610994	274,155259	312,698184	0
15.01.2021	18:35:52	0	0	3,163456	2,14125	329,2596	0,253	85,001	0	1016,62	6,7	8,9	8,7	1	1	1	1	1	1	1	1	1	0	1	-7,82241	274,038875	311,943205	0
15.01.2021	18:35:53	0	0	3,615378	2,02125	335,6892	0,252	85,013	0	1016,42	6,7	8,9	8,7	1	1	1	1	1	1	1	1	1	0	1	-10,077519	274,137308	310,147774	0
15.01.2021	18:35:54	0	0	3,050475	1,81275	312,6528	0,247	85,029	0	1016,56	6,7	8,9	8,7	1	1	1	1	1	1	1	1	1	0	1	-11,346018	274,029951	308,377949	0
15.01.2021	18:35:55	0	0	3,389417	1,6485	293,4216	0,254	85,027	0	1016,74	6,7	8,9	8,7	1	1	1	1	1	1	1	1	1	0	1	-13,530655	274,141794	306,7156	0
15.01.2021	18:35:56	0	0	3,163456	1,48125	316,5732	0,248	85,018	0	1016,66	6,7	9	8,7	1	1	1	1	1	1	1	1	1	0	1	-7,399577	274,06567	312,491123	0
15.01.2021	18:35:57	0	0	3,163456	1,389	318,474	0,252	85,017	0	1016,58	6,7	8,9	8,7	1	1	1	1	1	1	1	1	1	0	1	-6,765328	274,140298	313,47394	0
15.01.2021	18:35:58	0	0	4,745184	1,3755	288,864	0,248	85,014	0	1016,78	6,7	8,9	8,7	1	1	1	1	1	1	1	1	1	0	1	-8,597604	274,101456	311,460205	0
15.01.2021	18:35:59	0	0	4,406242	1,314	281,0412	0,244	85,023	0	1016,74	6,7	8,9	8,7	1	1	1	1	1	1	1	1	1	0	1	-8,245243	274,123856	311,9172	0
15.01.2021	18:36:00	0	0	4,632203	1,32525	303,5988	0,248	85,028	0	1016,74	6,7	8,9	8,7	1	1	1	1	1	1	1	1	1	0	1	-7,751938	274,043338	312,03451	0
15.01.2021	18:36:01	0	0	4,519223	1,3035	313,2648	0,252	85,033	0	1016,72	6,7	9	8,7	1	1	1	1	1	1	1	1	1	0	1	-8,597604	273,969084	310,84239	0
15.01.2021	18:36:02	0	0	3,615378	1,344	297,576	0,243	85,018	0	1016,62	6,7	8,9	8,7	1	1	1	1	1	1	1	1	1	0	1	-3,735025	274,022518	315,954253	0
15.01.2021	18:36:03	0	0	3,615378	1,30875	284,3496	0,253	85,024	0	1016,64	6,7	8,9	8,7	1	1	1	1	1	1	1	1	1	0	1	-5,285412	274,158252	315,037755	0
15.01.2021	18:36:04	0	0	4,293261	1,23075	293,7384	0,245	85,034	0	1016,6	6,7	8,9	8,7	1	1	1	1	1	1	1	1	1	0	1	-5,073996	274,034413	314,670793	0
15.01.2021	18:36:05	0	0	3,276436	1,1355	311,3748	0,254	85,032	0	1016,76	6,7	8,9	8,7	1	1	1	1	1	1	1	1	1	0	1	-10,852713	273,976497	308,621854	0
15.01.2021	18:36:06	0	0	2,824514	1,1445	309,5316	0,25	85,035	0	1016,7	6,7	8,9	8,7	1	1	1	1	1	1	1	1	1	0	1	-9,513742	274,153762	310,788442	0
15.01.2021	18:36:07	0	0	4,632203	1,3575	314,8452	0,251	85,034	0	1016,68	6,7	8,9	8,7	1	1	1	1	1	1	1	1	1	0	1	-9,654686	273,973531	309,80605	0
15.01.2021	18:36:08	0	0	4,406242	1,6485	302,4432	0,24	85,024	0	1016,68	6,7	8,9	8,7	1	1	1	1	1	1	1	1	1	0	1	-9,44327	274,119373	310,698234	0
15.01.2021	18:36:09	0	0	3,95432	1,8315	311,1336	0,252	85,025	0	1016,62	6,7	8,9	8,7	1	1	1	1	1	1	1	1	1	0	1	-11,205074	274,161246	309,132086	0
15.01.2021	18:36:10	0	0	5,197106	1,77075	305,7912	0,247	85,037	0	1016,68	6,7	8,9	8,7	1	1	1	1	1	1	1	1	1	0	1	-11,275546	274,107427	308,810151	0
15.01.2021	18:36:11	0	0	4,632203	1,6485	302,8572	0,249	85,013	0	1016,62	6,7	8,9	8,7	1	1	1	1	1	1	1	1	1	0	1	-7,751938	274,032925	311,985909	0
15.01.2021	18:36:12	0	0	4,632203	1,64175	315,1332	0,254	85,03	0	1016,72	6,7	8,9	8,7	1	1	1	1	1	1	1	1	1	0	1	-10,711769	274,009146	308,91511	0
15.01.2021	18:36:13	0	0	4,971145	1,63725	319,1868	0,255	85,033	0	1016,74	6,7	9	8,7	1	1	1	1	1	1	1	1	1	0	1	-8,879493	274,107427	311,206204	0
15.01.2021	18:36:14	0	0	3,389417	1,677	312,2532	0,246	85,025	0	1016,54	6,7	8,9	8,7	1	1	1	1	1	1	1	1	1	0	1	-10,218464	274,131328	309,97889	0
15.01.2021	18:36:15	0	0	3,728359	1,8075	302,0472	0,243	85,031	0	1016,56	6,7	8,9	8,7	1	1	1	1	1	1	1	1	1	0	1	-6,624383	274,149273	313,656823	0
15.01.2021	18:36:16	0	0	5,197106	1,8915	303,5088	0,253	85,038	0	1016,74	6,7	8,9	8,7	1	1	1	1	1	1	1	1	1	0	1	-5,778717	274,055245	314,063314	0
15.01.2021	18:36:17	0	0	4,519223	1,90425	296,4744	0,251	85,039	0	1016,78	6,7	8,9	8,7	1	1	1	1	1	1	1	1	1	0	1	-11,346018	274,126844	308,830387	0
15.01.2021	18:36:18	0	0	2,03365	1,8825	305,4384	0,252	85,037	0	1016,8	6,8	8,9	8,7	1	1	1	1	1	1	1	1	1	0	1	-7,892882	274,099963	312,157956	0
15.01.2021	18:36:19	0	0	4,519223	1,89675	301,2444	0,25	85,028	0	1016,68	6,7	8,9	8,7	1	1	1	1	1	1	1	1	1	0	1	-7,399577	273,982429	312,10266	0
15.01.2021	18:36:20	0	0	5,310087	1,9005	295,1532	0,248	85,035	0	1016,72	6,7	9	8,7	1	1	1	1	1	1	1	1	1	0	1	-8,668076	274,079082	311,285246	0
15.01.2021	18:36:21	0	0	3,163456	1,92975	300,5496	0,255	85,03	0	1016,68	6,7	9	8,7	1	1	1	1	1	1	1	1	1	0	1	-8,386187	273,986879	311,136808	0
15.01.2021	18:36:22	0	0	4,0673	1,992	297,1224	0,248	85,038	0	1016,7	6,7	8,9	8,7	1	1	1	1	1	1	1	1	1	0	1	-6,20155	274,098471	313,842318	0
15.01.2021	18:36:23	0	0	2,824514	1,92075	303,1776	0,245	85,034	0	1016,64	6,7	8,9	8,7	1	1	1	1	1	1	1	1	1	0	1	-10,007047	274,141794	310,239209	0
15.01.2021	18:36:24	0	0	2,824514	1,7835	287,4312	0,243	85,027	0	1016,7	6,6	8,9	8,7	1	1	1	1	1	1	1	1	1	0	1	-11,980268	274,006175	307,632751	0
15.01.2021	18:36:25	0	0	2,824514	1,63425	299,0448	0,248	85,029	0	1016,56	6,7	9	8,7	1	1	1	1	1	1	1	1	1	0	1	-6,483439	274,003205	313,115723	0
15.01.2021	18:36:26	0	0	2,937495	1,51275	288,1764	0,249	85,026	0	1016,76	6,7	8,9	8,7	1	1	1	1	1	1	1	1	1	0	1	-6,694856	274,119373	313,446649	0
15.01.2021	18:36:27	0	0	4,406242	1,49025	305,6796	0,251	85,034	0	1016,76	6,7	8,9	8,7	1	1	1	1	1	1	1	1	1	0	1	-10,993658	274,177721	309,420509	0
15.01.2021	18:36:28	0	0	2,937495	1,44	312,5124	0,253	85,03	0	1016,64	6,7	8,9	8,7	1	1	1	1	1	1	1	1	1	0	1	-5,073996	274,099963	314,976843	0
15.01.2021	18:36:29	0	0	4,0673	1,6005	306,1008	0,249	85,027	0	1016,76	6,7	8,9	8,7	1	1	1	1	1	1	1	1	1	0	1	-4,792107	273,99133	314,751654	0
15.01.2021	18:36:30	0	0	4,632203	1,74075	308,0952	0,252	85,036	0	1016,66	6,7	8,9	8,7	1	1	1	1	1	1	1	1	1	0	1	-9,654686	273,995783	309,909845	0
15.01.2021	18:36:31	0	0	4,519223	1,773	300,5568	0,25	85,035	0	1016,66	6,7	9	8,7	1	1	1	1	1	1	1	1	1	0	1	-10,923185	274,129833	309,267185	0
15.01.2021	18:36:32	0	0	2,711534	1,71225	304,2324	0,246	85,023	0	1016,72	6,7	8,9	8,7	1	1	1	1	1	1	1	1	1	0	1	-11,346018	274,15077	308,94218	0
15.01.2021	18:36:33	0	0	3,728359	1,5915	311,4144	0,243	85,064	0	1016,94	7,1	8,9	8,7	1	1	1	1	1	1	1	1	1	0	1	-10,147992	274,119373	309,993513	0
15.01.2021	18:36:34	0	0	2,937477	1,677	282,8196	0,254	85,034	0	1016,64	6,8	8,9	8,8	1	1	1	1	1	1	1	1	1	0	1	-11,839323	274,152266	308,455867	0
15.01.2021	18:36:35	0	0	3,276436	1,812	297,666	0,249	85,036	0	1016,56	6,7	8,9	8,7	1	1	1	1	1	1	1	1	1	0	1	-5,990134	274,079082	313,963188	0
15.01.2021	18:36:36	0	0	3,050475	1,854	293,3712	0,261	85,032	0	1016,7	6,7	8,9	8,7	1	1	1	1	1	1	1	1	1	0	1	-9,936575	274,016574	309,724963	0
15.01.2021	18:36:37	0	0	3,050475	1,827	306,8964	0,247	85,023	0	1016,64	6,6	8,9	8,7	1	1	1	1	1	1	1	1	1	0	1	-5,919662	273,997267	313,651795	0
15.01.2021	18:36:38	0	0	3,95432	1,794	304,3188	0,252	85,045	0	1016,52	6,7	8,8	8,7	1	1	1	1	1	1	1	1	1	0	1	-10,077519	274,00766	309,542429	0
15.01.2021	18:36:39	0	0	2,485587	1,74075	309,582	0,242	85,016	0	1016,96	6,7	8,9	8,6	1	1	1	1	1	1	1	1	1	0	1	-10,782241	274,111906	309,324379	0
15.01.2021	18:36:40	0	0	2,598569	1,62675	311,418	0,247	85,021	0	1016,68	6,7	8,9	8,6	1	1	1	1	1	1	1	1	1	0	1	-9,161381	274,155259	311,147797	0
15.01.2021	18:36:41	0	0	4,858164	1,55625	318,8592	0,245	85,025	0	1016,56	6,7	8,9	8,7	1	1	1	1	1	1	1	1	1	0	1	-12,966878	274,06716	306,930778	0
15.01.2021	18:36:42	0	0	3,841316	1,49325	316,7244	0,252	85,044	0	1016,68	6,7	9	8,8	1	1	1	1	1	1	1	1	1	0	1	-6,624383	273,972049	312,829438	0
15.01.2021	18:36:43	0	0	4,293261	1,47075	316,6848	0,25	85,037	0	1016,74	6,7	8,8	8,7	1	1	1	1	1	1	1	1	1	0	1	-12,614517	274,046314	307,185823	0
15.01.2021	18:36:44	0	0	4,067325	1,41975	310,3524	0,261	85,049	0	1016,8	6,8	9	8,6	1	1	1	1	1	1	1	1	1	0	1	-7,681466	274,15077	312,606732	0
15.01.2021	18:36:45	0	0	4,519223	1,3635	302,8428	0,251	85,04	0	1016,62	6,7	8,9	8,7	1	1	1	1	1	1	1	1	1	0	1	-9,725159	274,116386	310,40239	0
15.01.2021	18:36:46	0	0	3,615378	1,452	287,4024	0,248	85,031	0	1016,68	6,8	8,8	8,7	1	1	1	1	1	1	1	1	1	0	1	-8,315715	273,983912	311,193441	0
15.01.2021	18:36:47	0	0	3,615378	1,50825	297,486	0,254	85,041	0	1016,68	6,8	8,9	8,7	1	1	1	1	1	1	1	1	1	0	1	-9,44327	274,096979	310,59363	0
15.01.2021	18:36:48	0	0	3,050457	1,5495	296,8956	0,252	85,047	0	1016,72	6,5	9,1	8,8	1	1	1	1	1	1	1	1	1	0	1	-10,500352	273,99133	309,043408	0
15.01.2021	18:36:49	0	0	2,937495	1,6635	303,228	0,254	85,041	0	1016,78	6,6	9,1	8,7	1	1	1	1	1	1	1	1	1	0	1	-10,288936	274,059713	309,57395	0
15.01.2021	18:36:50	0	0	4,293261	1,75575	303,57	0,252	85,041	0	1016,78	6,8	9	8,7	1	1	1	1	1	1	1	1	1	0	1	-5,496829	273,995783	314,067703	0
15.01.2021	18:36:51	0	0	3,502376	1,8555	290,0016	0,25	85,051	0	1016,7	6,7	8,8	8,8	1	1	1	1	1	1	1	1	1	0	1	-4,22833	274,07312	315,697154	0
15.01.2021	18:36:52	0	0	4,745155	1,86675	298,6668	0,244	85,044	0	1016,68	6,5	9	8,8	1	1	1	1	1	1	1	1	1	0	1	-8,45666	274,173227	311,936497	0
15.01.2021	18:36:53	0	0	4,406242	1,83075	300,8592	0,252	85,035	0	1016,7	6,7	8,7	8,7	1	1	1	1	1	1	1	1	1	0	1	-7,399577	274,104441	312,672174	0
15.01.2021	18:36:54	0	0	3,841316	1,73175	302,8644	0,253	85,037	0	1016,76	6,7	8,8	8,8	1	1	1	1	1	1	1	1	1	0	1	-7,751938	274,006175	311,861081	0
15.01.2021	18:36:55	0	0	5,084156	1,6635	291,132	0,248	85,048	0	1016,66	6,7	9	8,6	1	1	1	1	1	1	1	1	1	0	1	-7,892882	274,126844	312,283523	0
15.01.2021	18:36:56	0	0	4,406268	1,6455	282,4812	0,245	85,047	0	1016,66	6,6	8,8	8,6	1	1	1	1	1	1	1	1	1	0	1	-11,557435	274,159749	308,772729	0
15.01.2021	18:36:57	0	0	5,084095	1,75575	302,0004	0,249	85,037	0	1016,78	6,8	8,8	8,8	1	1	1	1	1	1	1	1	1	0	1	-11,06413	274,062691	308,812662	0
15.01.2021	18:36:58	0	0	2,598553	1,82475	309,9276	0,251	85,032	0	1016,5	6,7	9	8,7	1	1	1	1	1	1	1	1	1	0	1	-7,751938	274,152266	312,543253	0
15.01.2021	18:36:59	0	0	4,971145	1,8465	306,1008	0,246	85,036	0	1016,66	6,6	8,8	8,7	1	1	1	1	1	1	1	1	1	0	1	-8,104299	274,055245	311,737732	0
15.01.2021	18:37:00	0	0	5,084125	2,07975	311,4828	0,249	85,037	0	1016,68	6,6	8,9	8,7	1	1	1	1	1	1	1	1	1	0	1	-8,033827	273,989846	311,503012	0
15.01.2021	18:37:01	0	0	5,084125	2,07975	311,4828	0,249	85,037	0	1016,68	6,6	8,9	8,7	1	1	1	1	1	1	1	1	1	0	1	-6,20155	274,080573	313,758733	0
15.01.2021	18:37:02	0	0	5,310087	2,139	308,124	0,246	85,051	0	1016,62	6,7	9	8,7	1	1	1	1	1	1	1	1	1	0	1	-7,399577	274,000236	312,185731	0
15.01.2021	18:37:03	0	0	5,084125	2,124	311,454	0,25	85,05	0	1016,6	6,7	9	8,7	1	1	1	1	1	1	1	1	1	0	1	-16,701903	274,07014	303,209666	0
15.01.2021	18:37:04	0	0	3,502398	2,19375	305,406	0,242	85,045	0	1016,64	6,7	9	8,7	1	1	1	1	1	1	1	1	1	0	1	-9,866103	273,983912	309,643053	0
15.01.2021	18:37:05	0	0	5,310118	2,3745	309,5568	0,253	85,051	0	1016,82	6,8	8,9	8,6	1	1	1	1	1	1	1	1	1	0	1	-9,866103	274,114893	310,254469	0
15.01.2021	18:37:06	0	0	4,519223	2,46675	299,7864	0,246	85,049	0	1016,72	6,7	9	8,7	1	1	1	1	1	1	1	1	1	0	1	-10,570825	274,183716	309,871363	0
15.01.2021	18:37:07	0	0	4,858164	2,508	305,7228	0,247	85,049	0	1016,66	6,7	9	8,7	1	1	1	1	1	1	1	1	1	0	1	-7,751938	274,132823	312,452399	0
15.01.2021	18:37:08	0	0	4,0673	2,48475	308,4372	0,25	85,041	0	1016,68	6,7	9	8,7	1	1	1	1	1	1	1	1	1	0	1	-7,540521	274,14329	312,712723	0
15.01.2021	18:37:09	0	0	2,71155	2,385	304,632	0,247	85,062	0	1016,58	6,8	8,9	8,6	1	1	1	1	1	1	1	1	1	0	1	-4,580691	274,006175	315,032328	0
15.01.2021	18:37:10	0	0	3,954296	2,31975	306,1764	0,241	85,038	0	1016,66	6,8	9	8,8	1	1	1	1	1	1	1	1	1	0	1	-3,030303	274,158252	317,292865	0
15.01.2021	18:37:11	0	0	2,824514	2,18175	303,2064	0,246	85,043	0	1016,72	6,5	9	8,7	1	1	1	1	1	1	1	1	1	0	1	-9,866103	274,021032	309,816239	0
15.01.2021	18:37:12	0	0	4,745184	2,1225	302,0004	0,244	85,046	0	1016,7	6,7	9	8,7	1	1	1	1	1	1	1	1	1	0	1	-7,82241	274,099963	312,228428	0
15.01.2021	18:37:13	0	0	4,632203	2,17725	304,9776	0,247	85,05	0	1016,76	6,6	9	8,7	1	1	1	1	1	1	1	1	1	0	1	-3,030303	273,997267	316,541153	0
15.01.2021	18:37:14	0	0	5,084125	2,073	286,9596	0,246	85,035	0	1016,56	6,7	9	8,7	1	1	1	1	1	1	1	1	1	0	1	-10,641297	274,050779	309,179886	0
15.01.2021	18:37:15	0	0	3,841339	2,1435	305,4636	0,249	85,049	0	1016,48	6,7	8,9	8,7	1	1	1	1	1	1	1	1	1	0	1	-11,06413	274,167235	309,301023	0
15.01.2021	18:37:16	0	0	3,163456	2,22675	291,8916	0,247	85,043	0	1016,7	6,7	9	8,7	1	1	1	1	1	1	1	1	1	0	1	-7,117689	274,061202	312,75215	0
15.01.2021	18:37:17	0	0	4,406242	2,23425	303,2316	0,252	85,053	0	1016,74	6,5	8,9	8,7	1	1	1	1	1	1	1	1	1	0	1	-7,258633	274,173227	313,134524	0
15.01.2021	18:37:18	0	0	3,050475	2,19825	299,4588	0,244	85,048	0	1016,54	6,7	8,9	8,7	1	1	1	1	1	1	1	1	1	0	1	-12,262156	274,029951	307,461811	0
15.01.2021	18:37:19	0	0	3,502398	2,304	302,8752	0,241	85,054	0	1016,54	6,7	8,9	8,7	1	1	1	1	1	1	1	1	1	0	1	-7,117689	274,168733	313,254464	0
15.01.2021	18:37:20	0	0	3,95432	2,33325	308,4984	0,246	85,044	0	1016,62	7,1	9	8,7	1	1	1	1	1	1	1	1	1	0	1	-9,090909	274,019546	310,584498	0
15.01.2021	18:37:21	0	0	3,389397	2,4525	308,0736	0,247	85,074	0	1016,7	6,7	9	8,8	1	1	1	1	1	1	1	1	1	0	1	-7,258633	274,101456	312,799176	0
15.01.2021	18:37:22	0	0	3,389397	2,6205	303,6312	0,244	85,068	0	1016,66	6,7	8,9	8,8	1	1	1	1	1	1	1	1	1	0	1	-13,460183	274,185214	306,989012	0
15.01.2021	18:37:23	0	0	4,180281	2,57325	314,8524	0,257	85,07	0	1016,54	6,7	9	8,7	1	1	1	1	1	1	1	1	1	0	1	-9,090909	274,140298	311,148359	0
15.01.2021	18:37:24	0	0	4,519223	2,43975	294,0768	0,243	85,074	0	1016,62	6,7	8,8	8,7	1	1	1	1	1	1	1	1	1	0	1	-10,711769	274,155259	309,597409	0
15.01.2021	18:37:25	0	0	4,858135	2,364	296,8776	0,25	85,075	0	1016,7	6,7	8,8	8,8	1	1	1	1	1	1	1	1	1	0	1	-10,218464	274,101456	309,839345	0
15.01.2021	18:37:26	0	0	4,519223	2,424	315,864	0,242	85,078	0	1016,58	6,7	9	8,7	1	1	1	1	1	1	1	1	1	0	1	-10,782241	274,00469	308,823849	0
15.01.2021	18:37:27	0	0	3,050457	2,30025	321,1596	0,245	85,084	0	1016,82	6,7	8,8	8,8	1	1	1	1	1	1	1	1	1	0	1	-11,486963	274,049291	308,327272	0
15.01.2021	18:37:28	0	0	2,598537	2,18925	297,288	0,25	85,088	0	1016,7	6,6	9	8,8	1	1	1	1	1	1	1	1	1	0	1	-5,919662	274,171729	314,466493	0
15.01.2021	18:37:29	0	0	3,728359	2,18025	312,516	0,244	85,079	0	1016,7	6,8	9	8,7	1	1	1	1	1	1	1	1	1	0	1	-7,610994	274,034413	312,133795	0
15.01.2021	18:37:30	0	0	4,180306	2,16975	307,3104	0,248	85,093	0	1016,64	6,8	8,8	8,6	1	1	1	1	1	1	1	1	1	0	1	-7,963354	274,126844	312,213051	0
15.01.2021	18:37:31	0	0	2,485572	2,19675	305,0352	0,246	85,091	0	1016,72	6,8	9	8,7	1	1	1	1	1	1	1	1	1	0	1	-9,020437	273,992814	310,530247	0
15.01.2021	18:37:32	0	0	2,937495	2,05575	312,5736	0,245	85,086	0	1016,7	6,8	9	8,7	1	1	1	1	1	1	1	1	1	0	1	-8,315715	274,06567	311,574985	0
15.01.2021	18:37:33	0	0	3,276436	1,866	325,1124	0,251	85,104	0	1016,6	6,5	9	8,7	1	1	1	1	1	1	1	1	1	0	1	-9,936575	274,155259	310,372603	0
15.01.2021	18:37:34	0	0	4,632203	1,72575	326,0916	0,247	85,086	0	1016,56	6,6	8,9	8,7	1	1	1	1	1	1	1	1	1	0	1	-9,302326	274,053757	310,532755	0
15.01.2021	18:37:35	0	0	4,971175	1,6935	320,4576	0,252	85,097	0	1016,62	6,6	8,8	8,6	1	1	1	1	1	1	1	1	1	0	1	-12,191684	274,158252	308,131483	0
15.01.2021	18:37:36	0	0	4,293261	1,6455	321,9012	0,249	85,097	0	1016,56	6,6	8,9	8,7	1	1	1	1	1	1	1	1	1	0	1	-9,090909	273,998751	310,487473	0
15.01.2021	18:37:37	0	0	3,389397	1,5855	315,8604	0,248	85,094	0	1016,72	7,1	8,8	8,8	1	1	1	1	1	1	1	1	1	0	1	-9,302326	274,047803	310,504961	0
15.01.2021	18:37:38	0	0	2,372592	1,55475	321,2676	0,245	85,11	0	1016,66	6,6	8,8	8,7	1	1	1	1	1	1	1	1	1	0	1	-10,359408	274,024005	309,336807	0
15.01.2021	18:37:39	0	0	2,711534	1,5195	319,2228	0,244	85,115	0	1016,64	6,7	8,8	8,7	1	1	1	1	1	1	1	1	1	0	1	-10,147992	274,144785	310,112242	0
15.01.2021	18:37:40	0	0	2,711534	1,512	312,8976	0,246	85,096	0	1016,66	6,8	9	8,7	1	1	1	1	1	1	1	1	1	0	1	-8,597604	274,153762	311,70458	0
15.01.2021	18:37:41	0	0	2,485587	1,41525	322,9524	0,25	85,111	0	1016,82	6,8	8,8	8,6	1	1	1	1	1	1	1	1	1	0	1	-11,839323	274,009146	307,787555	0
15.01.2021	18:37:42	0	0	5,197106	1,32	310,6764	0,249	85,122	0	1016,68	6,8	9	8,7	1	1	1	1	1	1	1	1	1	0	1	-8,80902	274,161246	311,52814	0
15.01.2021	18:37:43	0	0	4,293287	1,25475	316,3788	0,251	85,107	0	1016,4	6,6	8,9	8,6	1	1	1	1	1	1	1	1	1	0	1	-8,527132	274,156756	311,789041	0
15.01.2021	18:37:44	0	0	4,180281	1,2495	321,8652	0,24	85,116	0	1016,62	6,8	8,8	8,7	1	1	1	1	1	1	1	1	1	0	1	-7,258633	274,183716	313,183555	0
15.01.2021	18:37:45	0	0	3,954296	1,21875	310,7016	0,252	85,12	0	1016,78	6,8	8,9	8,8	1	1	1	1	1	1	1	1	1	0	1	-12,614517	274,026978	307,095572	0
15.01.2021	18:37:46	0	0	4,971115	1,2435	305,7372	0,252	85,123	0	1016,68	6,6	8,8	8,8	1	1	1	1	1	1	1	1	1	0	1	-7,751938	274,013602	311,895735	0
15.01.2021	18:37:47	0	0	3,163456	1,227	306,81	0,258	85,122	0	1016,62	6,7	8,9	8,7	1	1	1	1	1	1	1	1	1	0	1	-9,302326	274,064181	310,58142	0
15.01.2021	18:37:48	0	0	3,502398	1,2105	305,3772	0,25	85,121	0	1016,76	6,6	8,9	8,7	1	1	1	1	1	1	1	1	1	0	1	-8,879493	274,188213	311,583719	0
15.01.2021	18:37:49	0	0	4,180281	1,2705	320,0328	0,255	85,126	0	1016,86	6,5	9	8,7	1	1	1	1	1	1	1	1	1	0	1	-12,755462	274,053757	307,079619	0
15.01.2021	18:37:50	0	0	2,372592	1,32975	312,1848	0,246	85,11	0	1016,86	6,7	8,9	8,7	1	1	1	1	1	1	1	1	1	0	1	-4,721635	274,009146	314,905244	0
15.01.2021	18:37:51	0	0	2,937495	1,4145	313,236	0,252	85,137	0	1016,64	7,1	9	8,7	1	1	1	1	1	1	1	1	1	0	1	-11,486963	274,053757	308,348118	0
15.01.2021	18:37:52	0	0	4,745212	1,428	310,6908	0,25	85,119	0	1016,66	6,5	8,8	8,6	1	1	1	1	1	1	1	1	1	0	1	-7,963354	274,135813	312,254953	0
15.01.2021	18:37:53	0	0	4,858164	1,39425	310,0788	0,252	85,129	0	1016,68	6,8	8,9	8,7	1	1	1	1	1	1	1	1	1	0	1	-10,218464	274,185214	310,230731	0
15.01.2021	18:37:54	0	0	3,841316	1,4805	312,5196	0,254	85,115	0	1016,68	6,5	8,9	8,8	1	1	1	1	1	1	1	1	1	0	1	-9,513742	274,101456	310,544067	0
15.01.2021	18:37:55	0	0	4,406242	1,56375	310,6224	0,255	85,13	0	1016,76	6,8	9	8,7	1	1	1	1	1	1	1	1	1	0	1	-12,614517	274,17922	307,806653	0
15.01.2021	18:37:56	0	0	3,163475	1,644	310,7268	0,251	85,136	0	1016,74	6,5	8,8	8,6	1	1	1	1	1	1	1	1	1	0	1	-12,684989	274,099963	307,365849	0
15.01.2021	18:37:57	0	0	3,502376	1,79175	294,8076	0,252	85,135	0	1016,72	6,5	8,8	8,8	1	1	1	1	1	1	1	1	1	0	1	-10,711769	274,015088	308,942836	0
15.01.2021	18:37:58	0	0	4,858193	1,9995	287,0172	0,251	85,138	0	1016,56	7,1	8,8	8,6	1	1	1	1	1	1	1	1	1	0	1	-10,923185	274,123856	309,239257	0
15.01.2021	18:37:59	0	0	4,632203	2,31075	297,9576	0,252	85,121	0	1016,74	6,6	8,8	8,7	1	1	1	1	1	1	1	1	1	0	1	-9,936575	274,19871	310,575714	0
15.01.2021	18:38:00	0	0	4,293261	2,5515	296,604	0,245	85,133	0	1016,78	6,6	8,8	8,7	1	1	1	1	1	1	1	1	1	0	1	-7,258633	274,095487	312,771299	0
15.01.2021	18:38:01	0	0	2,372578	2,637	290,0736	0,255	85,138	0	1016,76	6,5	9	8,8	1	1	1	1	1	1	1	1	1	0	1	-8,738548	274,022518	310,95073	0
15.01.2021	18:38:02	0	0	3,615378	2,49975	287,4456	0,254	85,134	0	1016,7	6,8	9	8,7	1	1	1	1	1	1	1	1	1	0	1	-15,081043	274,147777	305,193172	0
15.01.2021	18:38:03	0	0	3,050457	2,2845	297,2412	0,252	85,139	0	1016,72	6,8	8,8	8,8	1	1	1	1	1	1	1	1	1	0	1	-8,668076	274,021032	311,014266	0
15.01.2021	18:38:04	0	0	4,632203	2,12625	296,1252	0,25	85,14	0	1016,98	7,1	8,8	8,7	1	1	1	1	1	1	1	1	1	0	1	-15,081043	274,138803	305,151237	0
15.01.2021	18:38:05	0	0	3,841339	1,983	285,9804	0,254	85,12	0	1016,76	6,6	9	8,7	1	1	1	1	1	1	1	1	1	0	1	-5,567301	274,19421	314,923951	0
15.01.2021	18:38:06	0	0	2,372606	1,884	293,7456	0,253	85,13	0	1016,84	6,8	9	8,6	1	1	1	1	1	1	1	1	1	0	1	-11,346018	274,137308	308,879275	0
15.01.2021	18:38:07	0	0	2,711534	1,74375	299,0412	0,253	85,144	0	1016,66	6,8	9,1	8,7	1	1	1	1	1	1	1	1	1	0	1	-16,349542	274,192711	304,134699	0
15.01.2021	18:38:08	0	0	3,728359	1,71825	304,74	0,253	85,141	0	1016,8	6,7	9	8,7	1	1	1	1	1	1	1	1	1	0	1	-10,077519	274,085046	309,903651	0
15.01.2021	18:38:09	0	0	3,389417	1,7325	305,0568	0,252	85,14	0	1016,82	6,8	8,9	8,7	1	1	1	1	1	1	1	1	1	0	1	-8,45666	274,021032	311,225683	0
15.01.2021	18:38:10	0	0	3,389417	1,67175	296,0964	0,248	85,139	0	1016,7	6,6	8,9	8,7	1	1	1	1	1	1	1	1	1	0	1	-12,05074	274,152266	308,244451	0
15.01.2021	18:38:11	0	0	3,95432	1,722	295,6104	0,249	85,146	0	1016,64	6,8	9	8,7	1	1	1	1	1	1	1	1	1	0	1	-4,510218	274,015088	315,144387	0
15.01.2021	18:38:12	0	0	3,389417	1,9815	286,6248	0,249	85,128	0	1016,7	6,8	8,9	8,7	1	1	1	1	1	1	1	1	1	0	1	-7,681466	274,167235	312,683687	0
15.01.2021	18:38:13	0	0	4,632231	2,226	291,888	0,255	85,135	0	1016,74	6,8	8,9	8,6	1	1	1	1	1	1	1	1	1	0	1	-14,376321	274,174725	306,023838	0
15.01.2021	18:38:14	0	0	3,389437	2,2875	291,546	0,251	85,117	0	1016,62	6,7	8,9	8,6	1	1	1	1	1	1	1	1	1	0	1	-11,06413	274,165738	309,294024	0
15.01.2021	18:38:15	0	0	2,146631	2,16375	286,9848	0,253	85,135	0	1016,62	6,7	8,9	8,7	1	1	1	1	1	1	1	1	1	0	1	-9,161381	274,034413	310,583407	0
15.01.2021	18:38:16	0	0	4,858164	2,05875	296,5104	0,256	85,145	0	1016,82	6,7	9	8,7	1	1	1	1	1	1	1	1	1	0	1	-8,738548	274,204711	311,8018	0
15.01.2021	18:38:17	0	0	4,519223	1,91025	288,8532	0,251	85,122	0	1016,64	6,7	9	8,7	1	1	1	1	1	1	1	1	1	0	1	-8,597604	274,176223	311,809558	0
15.01.2021	18:38:18	0	0	3,502398	1,8195	297,6048	0,25	85,134	0	1016,68	6,7	8,9	8,7	1	1	1	1	1	1	1	1	1	0	1	-8,879493	274,031438	310,851414	0
15.01.2021	18:38:19	0	0	3,050475	1,70325	287,3376	0,257	85,14	0	1016,84	6,8	8,9	8,7	1	1	1	1	1	1	1	1	1	0	1	-8,45666	274,085046	311,524511	0
15.01.2021	18:38:20	0	0	3,615378	1,5555	310,9608	0,248	85,138	0	1016,82	6,7	9	8,7	1	1	1	1	1	1	1	1	1	0	1	-11,41649	274,20171	309,109827	0
15.01.2021	18:38:21	0	0	2,937495	1,482	308,844	0,254	85,136	0	1016,74	6,8	9	8,7	1	1	1	1	1	1	1	1	1	0	1	-7,188161	274,096979	312,848739	0
15.01.2021	18:38:22	0	0	3,276436	1,395	279,54	0,256	85,139	0	1016,8	6,7	8,9	8,7	1	1	1	1	1	1	1	1	1	0	1	-11,346018	274,026978	308,364071	0
15.01.2021	18:38:23	0	0	4,858164	1,4535	291,8088	0,254	85,152	0	1016,76	6,7	8,9	8,7	1	1	1	1	1	1	1	1	1	0	1	-14,305849	274,209212	306,25555	0
15.01.2021	18:38:24	0	0	4,745184	1,524	291,1932	0,254	85,133	0	1016,48	6,7	8,9	8,7	1	1	1	1	1	1	1	1	1	0	1	-6,483439	274,059713	313,379447	0
15.01.2021	18:38:25	0	0	2,824514	1,56075	294,084	0,247	85,13	0	1016,62	6,7	8,9	8,7	1	1	1	1	1	1	1	1	1	0	1	-3,453136	274,053757	316,381945	0
15.01.2021	18:38:26	0	0	3,502398	1,5855	308,8512	0,255	85,138	0	1016,6	6,7	9	8,7	1	1	1	1	1	1	1	1	1	0	1	-10,641297	274,056734	309,207685	0
15.01.2021	18:38:27	0	0	4,745184	1,656	305,0784	0,252	85,137	0	1016,68	6,7	8,9	8,7	1	1	1	1	1	1	1	1	1	0	1	-9,513742	274,162743	310,830415	0
15.01.2021	18:38:28	0	0	2,937495	1,7085	306,8604	0,255	85,144	0	1016,68	6,7	9	8,7	1	1	1	1	1	1	1	1	1	0	1	-10,923185	274,025491	308,779966	0
15.01.2021	18:38:29	0	0	3,276436	1,66275	287,7876	0,256	85,144	0	1016,6	6,8	8,9	8,7	1	1	1	1	1	1	1	1	1	0	1	-7,610994	274,055245	312,231038	0
15.01.2021	18:38:30	0	0	3,389417	1,653	293,346	0,249	85,146	0	1016,58	6,7	8,9	8,7	1	1	1	1	1	1	1	1	1	0	1	-6,272023	274,108919	313,820648	0
15.01.2021	18:38:31	0	0	3,163456	1,76925	303,8508	0,253	85,149	0	1016,78	6,7	9	8,7	1	1	1	1	1	1	1	1	1	0	1	-10,852713	274,213715	309,729743	0
15.01.2021	18:38:32	0	0	4,406242	2,00925	294,8328	0,254	85,145	0	1016,58	6,8	8,9	8,7	1	1	1	1	1	1	1	1	1	0	1	-7,610994	274,099963	312,439845	0
15.01.2021	18:38:33	0	0	3,163456	2,26275	292,662	0,257	85,145	0	1016,82	6,7	8,9	8,7	1	1	1	1	1	1	1	1	1	0	1	-7,470049	274,031438	312,260858	0
15.01.2021	18:38:34	0	0	3,050475	2,42475	294,0768	0,252	85,137	0	1016,8	6,7	8,9	8,7	1	1	1	1	1	1	1	1	1	0	1	-11,06413	274,167235	309,301023	0
15.01.2021	18:38:35	0	0	4,406242	2,511	294,1236	0,254	85,13	0	1016,8	6,7	8,9	8,7	1	1	1	1	1	1	1	1	1	0	1	-13,601128	274,207712	306,953254	0
15.01.2021	18:38:36	0	0	3,389417	2,487	293,3892	0,252	85,127	0	1016,66	6,7	9	8,7	1	1	1	1	1	1	1	1	1	0	1	-14,65821	274,182217	305,776972	0
15.01.2021	18:38:37	0	0	3,615378	2,457	289,1808	0,25	85,15	0	1016,8	6,7	9	8,7	1	1	1	1	1	1	1	1	1	0	1	-13,460183	274,050779	306,361	0
15.01.2021	18:38:38	0	0	4,632203	2,403	287,748	0,255	85,135	0	1016,64	6,7	9	8,7	1	1	1	1	1	1	1	1	1	0	1	-10,570825	274,19871	309,941464	0
15.01.2021	18:38:39	0	0	4,519195	2,27625	286,2396	0,254	85,142	0	1016,82	6,5	9	8,8	1	1	1	1	1	1	1	1	1	0	1	-10,288936	274,164241	310,062219	0
15.01.2021	18:38:40	0	0	3,615378	2,0895	276,462	0,256	85,145	0	1016,58	6,7	8,9	8,7	1	1	1	1	1	1	1	1	1	0	1	-7,681466	274,080573	312,278817	0
15.01.2021	18:38:41	0	0	3,276436	1,926	285,8868	0,256	85,142	0	1016,66	6,7	9	8,7	1	1	1	1	1	1	1	1	1	0	1	-9,654686	274,19721	310,850589	0
15.01.2021	18:38:42	0	0	3,276436	1,84875	281,934	0,254	85,128	0	1016,74	6,7	8,9	8,7	1	1	1	1	1	1	1	1	1	0	1	-9,44327	274,024005	310,252945	0
15.01.2021	18:38:43	0	0	2,598553	1,821	285,2748	0,256	85,141	0	1016,72	6,7	8,9	8,7	1	1	1	1	1	1	1	1	1	0	1	-14,164905	274,08952	305,837159	0
15.01.2021	18:38:44	0	0	4,0673	1,8285	284,814	0,25	85,142	0	1016,5	6,7	8,9	8,7	1	1	1	1	1	1	1	1	1	0	1	-7,681466	274,204711	312,858882	0
15.01.2021	18:38:45	0	0	2,824514	1,8315	293,3424	0,256	85,146	0	1016,5	6,7	8,9	8,7	1	1	1	1	1	1	1	1	1	0	1	-6,765328	274,105934	313,313396	0
15.01.2021	18:38:46	0	0	4,632203	1,7865	297,3204	0,257	85,146	0	1016,72	6,7	8,9	8,7	1	1	1	1	1	1	1	1	1	0	1	-6,906272	274,04185	312,873231	0
15.01.2021	18:38:47	0	0	3,276436	1,68	292,0068	0,253	85,146	0	1016,76	6,7	8,9	8,7	1	1	1	1	1	1	1	1	1	0	1	-8,033827	274,159749	312,296337	0
15.01.2021	18:38:48	0	0	2,937495	1,5375	303,9372	0,247	85,14	0	1016,62	6,7	8,9	8,7	1	1	1	1	1	1	1	1	1	0	1	-7,610994	274,218219	312,992525	0
15.01.2021	18:38:49	0	0	4,745184	1,46775	304,5672	0,253	85,141	0	1016,74	6,8	8,9	8,7	1	1	1	1	1	1	1	1	1	0	1	-4,298802	274,164241	316,052353	0
15.01.2021	18:38:50	0	0	4,745184	1,54725	296,8524	0,258	85,146	0	1016,84	6,7	8,9	8,7	1	1	1	1	1	1	1	1	1	0	1	-8,949965	274,032925	310,787882	0
15.01.2021	18:38:51	0	0	2,937495	1,68075	308,1492	0,252	85,142	0	1016,72	6,7	8,9	8,7	1	1	1	1	1	1	1	1	1	0	1	-10,711769	274,076101	309,227633	0
15.01.2021	18:38:52	0	0	4,406242	1,8315	306,09	0,255	85,133	0	1016,74	6,8	9	8,7	1	1	1	1	1	1	1	1	1	0	1	-3,523608	274,216718	317,072889	0
15.01.2021	18:38:53	0	0	4,745184	1,9005	309,2796	0,265	85,143	0	1016,76	6,7	9	8,7	1	1	1	1	1	1	1	1	1	0	1	-5,003524	274,049291	314,810711	0
15.01.2021	18:38:54	0	0	4,180281	2,025	299,4228	0,253	85,147	0	1016,62	6,7	8,9	8,7	1	1	1	1	1	1	1	1	1	0	1	-6,342495	274,204711	314,197853	0
15.01.2021	18:38:55	0	0	3,163456	2,1	307,1844	0,254	85,147	0	1016,84	6,7	8,9	8,7	1	1	1	1	1	1	1	1	1	0	1	-8,245243	274,062691	311,631549	0
15.01.2021	18:38:56	0	0	2,598553	2,14425	303,552	0,258	85,14	0	1016,64	6,7	8,9	8,7	1	1	1	1	1	1	1	1	1	0	1	-9,090909	274,064181	310,792837	0
15.01.2021	18:38:57	0	0	3,276436	2,133	299,016	0,253	85,147	0	1016,82	6,7	9	8,7	1	1	1	1	1	1	1	1	1	0	1	-10,500352	274,07163	309,418173	0
15.01.2021	18:38:58	0	0	5,084125	2,217	297,2412	0,254	85,151	0	1016,64	6,7	9	8,7	1	1	1	1	1	1	1	1	1	0	1	-10,852713	274,074611	309,079729	0
15.01.2021	18:38:59	0	0	2,711534	2,2365	296,478	0,255	85,162	0	1016,84	6,7	9	8,7	1	1	1	1	1	1	1	1	1	0	1	-11,134602	274,037387	308,624071	0
15.01.2021	18:39:00	0	0	4,180281	2,2065	309,5676	0,251	85,155	0	1016,72	6,7	8,9	8,7	1	1	1	1	1	1	1	1	1	0	1	-11,134602	274,110413	308,965043	0
15.01.2021	18:39:01	0	0	4,180281	2,2065	309,5676	0,251	85,155	0	1016,72	6,7	8,9	8,7	1	1	1	1	1	1	1	1	1	0	1	-6,412967	274,225728	314,22567	0
15.01.2021	18:39:02	0	0	4,971145	2,127	295,2	0,256	85,166	0	1016,74	6,7	8,9	8,7	1	1	1	1	1	1	1	1	1	0	1	-12,614517	274,107427	307,47118	0
15.01.2021	18:39:03	0	0	3,728359	2,133	299,0448	0,251	85,161	0	1016,62	6,7	8,9	8,7	1	1	1	1	1	1	1	1	1	0	1	-4,22833	274,046314	315,57201	0
15.01.2021	18:39:04	0	0	2,711534	2,1	297,2664	0,261	85,173	0	1016,76	6,7	8,9	8,7	1	1	1	1	1	1	1	1	1	0	1	-8,104299	274,044826	311,689095	0
15.01.2021	18:39:05	0	0	4,632175	2,04825	297,252	0,252	85,157	0	1016,62	6,7	9	8,8	1	1	1	1	1	1	1	1	1	0	1	-11,557435	274,176223	308,849727	0
15.01.2021	18:39:06	0	0	3,615378	1,97925	302,8428	0,253	85,168	0	1016,54	6,7	8,9	8,7	1	1	1	1	1	1	1	1	1	0	1	-13,319239	274,224226	307,312373	0
15.01.2021	18:39:07	0	0	5,197106	1,92825	284,4756	0,255	85,163	0	1016,66	6,7	8,9	8,7	1	1	1	1	1	1	1	1	1	0	1	-9,231853	274,170231	311,1473	0
15.01.2021	18:39:08	0	0	4,180281	2,058	293,004	0,256	85,169	0	1016,64	6,7	8,9	8,7	1	1	1	1	1	1	1	1	1	0	1	-11,134602	274,07312	308,790882	0
15.01.2021	18:39:09	0	0	3,050475	2,14725	302,148	0,255	85,151	0	1016,7	6,7	8,9	8,7	1	1	1	1	1	1	1	1	1	0	1	-5,496829	274,076101	314,442573	0
15.01.2021	18:39:10	0	0	3,050475	2,25525	306,8244	0,261	85,174	0	1016,88	6,7	8,9	8,7	1	1	1	1	1	1	1	1	1	0	1	-7,399577	274,224226	313,232035	0
15.01.2021	18:39:11	0	0	3,841339	2,451	302,814	0,259	85,157	0	1016,56	6,7	8,9	8,7	1	1	1	1	1	1	1	1	1	0	1	-7,188161	274,170231	313,190993	0
15.01.2021	18:39:12	0	0	2,711534	2,36025	305,442	0,265	85,177	0	1016,8	6,7	8,9	8,7	1	1	1	1	1	1	1	1	1	0	1	-7,047216	274,215217	313,54226	0
15.01.2021	18:39:13	0	0	3,728359	2,12925	305,3844	0,26	85,165	0	1016,64	6,8	8,9	8,7	1	1	1	1	1	1	1	1	1	0	1	-8,033827	274,227231	312,611836	0
15.01.2021	18:39:14	0	0	2,485572	1,93875	302,8824	0,259	85,165	0	1016,7	6,7	8,8	8,7	1	1	1	1	1	1	1	1	1	0	1	-10,852713	274,19421	309,638539	0
15.01.2021	18:39:15	0	0	2,711534	1,79925	308,7612	0,258	85,161	0	1016,76	6,7	8,9	8,7	1	1	1	1	1	1	1	1	1	0	1	-9,020437	274,085046	310,960734	0
15.01.2021	18:39:16	0	0	3,728359	1,833	305,046	0,254	85,165	0	1016,7	6,7	8,9	8,7	1	1	1	1	1	1	1	1	1	0	1	-8,386187	274,137308	311,839106	0
15.01.2021	18:39:17	0	0	3,95432	1,8915	301,6692	0,262	85,171	0	1016,72	6,7	8,9	8,7	1	1	1	1	1	1	1	1	1	0	1	-5,637773	274,056734	314,211209	0
15.01.2021	18:39:18	0	0	3,841339	1,8825	303,9552	0,261	85,156	0	1016,54	6,7	8,9	8,7	1	1	1	1	1	1	1	1	1	0	1	-9,231853	274,107427	310,853843	0
15.01.2021	18:39:19	0	0	2,937495	1,91775	303,8148	0,259	85,176	0	1016,62	6,7	9	8,7	1	1	1	1	1	1	1	1	1	0	1	-9,44327	274,215217	311,146206	0
15.01.2021	18:39:20	0	0	4,632203	1,87875	315,4248	0,26	85,17	0	1016,6	6,7	8,9	8,7	1	1	1	1	1	1	1	1	1	0	1	-9,513742	274,180718	310,914434	0
15.01.2021	18:39:21	0	0	4,180281	1,88775	312,174	0,257	85,165	0	1016,52	6,8	8,9	8,7	1	1	1	1	1	1	1	1	1	0	1	-8,597604	274,215217	311,991872	0
15.01.2021	18:39:22	0	0	3,050475	1,85325	321,2532	0,26	85,175	0	1016,72	6,7	9	8,7	1	1	1	1	1	1	1	1	1	0	1	-10,711769	274,174725	309,68839	0
15.01.2021	18:39:23	0	0	3,050475	1,74	321,8508	0,262	85,185	0	1016,76	6,7	8,9	8,7	1	1	1	1	1	1	1	1	1	0	1	-10,711769	274,053757	309,123312	0
15.01.2021	18:39:24	0	0	2,485572	1,677	318,8448	0,255	85,173	0	1016,52	6,8	9	8,7	1	1	1	1	1	1	1	1	1	0	1	-7,681466	274,182217	312,753716	0
15.01.2021	18:39:25	0	0	3,728359	1,70625	303,264	0,255	85,184	0	1016,78	6,8	9	8,7	1	1	1	1	1	1	1	1	1	0	1	-7,963354	274,044826	311,830039	0
15.01.2021	18:39:26	0	0	3,615378	1,8105	307,2348	0,254	85,168	0	1016,74	6,7	9	8,7	1	1	1	1	1	1	1	1	1	0	1	-8,949965	274,177721	311,464201	0
15.01.2021	18:39:27	0	0	4,180281	1,875	303,2208	0,26	85,175	0	1016,74	6,7	8,9	8,7	1	1	1	1	1	1	1	1	1	0	1	-7,610994	274,228733	313,041695	0
15.01.2021	18:39:28	0	0	3,502398	1,845	313,6716	0,263	85,178	0	1016,78	6,7	8,9	8,7	1	1	1	1	1	1	1	1	1	0	1	-11,768851	274,177721	308,645315	0
15.01.2021	18:39:29	0	0	4,519223	1,82775	305,352	0,262	85,183	0	1016,96	6,8	9	8,7	1	1	1	1	1	1	1	1	1	0	1	-9,44327	274,237749	311,251591	0
15.01.2021	18:39:30	0	0	4,0673	1,89525	304,6896	0,262	85,175	0	1016,8	6,8	9	8,7	1	1	1	1	1	1	1	1	1	0	1	-8,527132	274,171729	311,859023	0
15.01.2021	18:39:31	0	0	5,197106	2,007	303,8976	0,261	85,19	0	1016,62	6,7	9	8,7	1	1	1	1	1	1	1	1	1	0	1	-6,765328	274,062691	313,111464	0
15.01.2021	18:39:32	0	0	3,276436	2,10075	291,8556	0,258	85,168	0	1016,66	6,7	9	8,7	1	1	1	1	1	1	1	1	1	0	1	-6,765328	274,093995	313,257636	0
15.01.2021	18:39:33	0	0	4,858164	2,25	296,1072	0,259	85,172	0	1016,76	6,7	8,9	8,7	1	1	1	1	1	1	1	1	1	0	1	-7,892882	274,132823	312,311455	0
15.01.2021	18:39:34	0	0	4,519223	2,319	305,3592	0,263	85,19	0	1016,8	6,7	9	8,7	1	1	1	1	1	1	1	1	1	0	1	-9,725159	274,058223	310,130775	0
15.01.2021	18:39:35	0	0	2,937495	2,46525	305,4276	0,262	85,181	0	1016,68	6,8	9	8,7	1	1	1	1	1	1	1	1	1	0	1	-10,923185	274,110413	309,176459	0
15.01.2021	18:39:36	0	0	4,632203	2,57175	306,522	0,26	85,178	0	1016,82	6,7	8,9	8,7	1	1	1	1	1	1	1	1	1	0	1	-8,527132	274,105934	311,551592	0
15.01.2021	18:39:37	0	0	2,485572	2,61075	305,4708	0,262	85,169	0	1016,74	6,8	9	8,7	1	1	1	1	1	1	1	1	1	0	1	-8,033827	274,165738	312,324327	0
15.01.2021	18:39:38	0	0	4,745184	2,52675	299,844	0,259	85,17	0	1016,66	6,7	8,9	8,7	1	1	1	1	1	1	1	1	1	0	1	-10,359408	274,231738	310,307336	0
15.01.2021	18:39:39	0	0	4,519223	2,45175	302,13	0,258	85,165	0	1016,72	6,7	8,9	8,7	1	1	1	1	1	1	1	1	1	0	1	-9,795631	274,192711	310,68861	0
15.01.2021	18:39:40	0	0	4,293261	2,4915	306,4356	0,262	85,179	0	1016,56	6,7	9	8,7	1	1	1	1	1	1	1	1	1	0	1	-11,909796	274,088029	308,085304	0
15.01.2021	18:39:41	0	0	2,372592	2,535	303,2748	0,261	85,161	0	1016,72	6,9	9	8,7	1	1	1	1	1	1	1	1	1	0	1	-11,839323	274,06865	308,065288	0
15.01.2021	18:39:42	0	0	4,745184	2,49525	304,6788	0,262	85,177	0	1016,7	6,8	8,9	8,7	1	1	1	1	1	1	1	1	1	0	1	-10,359408	274,116386	309,76814	0
15.01.2021	18:39:43	0	0	3,95432	2,46375	304,9992	0,261	85,162	0	1016,64	6,7	9	8,7	1	1	1	1	1	1	1	1	1	0	1	-9,513742	274,245266	311,21628	0
15.01.2021	18:39:44	0	0	3,050475	2,538	300,4848	0,26	85,174	0	1016,68	6,8	8,9	8,7	1	1	1	1	1	1	1	1	1	0	1	-7,892882	274,093995	312,130081	0
15.01.2021	18:39:45	0	0	3,276436	2,487	306,81	0,259	85,18	0	1016,74	6,8	9	8,7	1	1	1	1	1	1	1	1	1	0	1	-9,302326	274,058223	310,553608	0
15.01.2021	18:39:46	0	0	3,276436	2,3865	301,6764	0,254	85,164	0	1016,66	6,7	9	8,7	1	1	1	1	1	1	1	1	1	0	1	-9,936575	274,185214	310,51262	0
15.01.2021	18:39:47	0	0	4,858164	2,25075	306,7452	0,261	85,185	0	1016,54	6,7	8,9	8,7	1	1	1	1	1	1	1	1	1	0	1	-12,121212	274,243762	308,601776	0
15.01.2021	18:39:48	0	0	2,259611	2,139	296,4492	0,257	85,175	0	1016,58	6,7	9	8,7	1	1	1	1	1	1	1	1	1	0	1	-8,597604	274,105934	311,48112	0
15.01.2021	18:39:49	0	0	2,598553	2,00025	301,2264	0,259	85,16	0	1016,8	6,8	9	8,7	1	1	1	1	1	1	1	1	1	0	1	-8,949965	274,249777	311,801162	0
15.01.2021	18:39:50	0	0	4,632203	1,84575	303,2244	0,263	85,18	0	1016,74	6,8	9	8,7	1	1	1	1	1	1	1	1	1	0	1	-7,82241	274,06865	312,082202	0
15.01.2021	18:39:51	0	0	4,632203	1,701	308,052	0,258	85,19	0	1016,78	6,8	8,9	8,7	1	1	1	1	1	1	1	1	1	0	1	-15,433404	274,08952	304,56866	0
15.01.2021	18:39:52	0	0	4,858164	1,6335	314,5644	0,26	85,165	0	1016,64	6,7	9	8,7	1	1	1	1	1	1	1	1	1	0	1	-14,305849	274,189712	306,164371	0
15.01.2021	18:39:53	0	0	4,632203	1,683	297,8964	0,263	85,184	0	1016,64	6,8	9	8,7	1	1	1	1	1	1	1	1	1	0	1	-8,245243	274,243762	312,477745	0
15.01.2021	18:39:54	0	0	4,858164	1,74825	303,462	0,261	85,178	0	1016,7	6,7	8,9	8,7	1	1	1	1	1	1	1	1	1	0	1	-10,923185	274,088029	309,071914	0
15.01.2021	18:39:55	0	0	2,937495	1,7535	308,2176	0,265	85,176	0	1016,72	6,7	8,9	8,7	1	1	1	1	1	1	1	1	1	0	1	-5,144468	274,228733	315,508221	0
15.01.2021	18:39:56	0	0	4,180281	1,731	303,4944	0,265	85,179	0	1016,76	6,7	8,9	8,7	1	1	1	1	1	1	1	1	1	0	1	-8,104299	274,216718	312,492198	0
15.01.2021	18:39:57	0	0	3,276436	1,6995	298,6884	0,268	85,176	0	1016,76	6,8	9	8,7	1	1	1	1	1	1	1	1	1	0	1	-10,570825	274,116386	309,556724	0
15.01.2021	18:39:58	0	0	4,180281	1,67625	298,3176	0,263	85,175	0	1016,74	6,8	9	8,7	1	1	1	1	1	1	1	1	1	0	1	-7,82241	274,207712	312,731971	0
15.01.2021	18:39:59	0	0	4,293261	1,707	301,248	0,262	85,195	0	1016,76	6,8	9	8,7	1	1	1	1	1	1	1	1	1	0	1	-9,654686	274,192711	310,829554	0
15.01.2021	18:40:00	0	0	4,0673	1,671	300,4776	0,265	85,186	0	1016,6	6,7	9	8,7	1	1	1	1	1	1	1	1	1	0	1	-8,45666	274,091012	311,55237	0
15.01.2021	18:40:01	0	0	4,0673	1,671	300,4776	0,265	85,186	0	1016,6	6,7	9	8,7	1	1	1	1	1	1	1	1	1	0	1	-7,610994	274,138803	312,621287	0
15.01.2021	18:40:02	0	0	3,163456	1,65075	284,7852	0,262	85,174	0	1016,72	6,8	9	8,7	1	1	1	1	1	1	1	1	1	0	1	-7,610994	274,252785	313,154206	0
15.01.2021	18:40:03	0	0	4,632203	1,6575	302,4324	0,263	85,182	0	1016,7	6,8	9	8,7	1	1	1	1	1	1	1	1	1	0	1	-11,205074	274,192711	309,279167	0
15.01.2021	18:40:04	0	0	4,745184	1,62525	306,8964	0,266	85,181	0	1016,76	6,8	8,9	8,7	1	1	1	1	1	1	1	1	1	0	1	-9,231853	274,246769	311,505203	0
15.01.2021	18:40:05	0	0	2,711534	1,64175	309,204	0,26	85,164	0	1016,6	6,8	9	8,7	1	1	1	1	1	1	1	1	1	0	1	-10,711769	274,167235	309,653384	0
15.01.2021	18:40:06	0	0	3,728359	1,71	312,1488	0,262	85,153	0	1016,76	6,8	8,9	8,7	1	1	1	1	1	1	1	1	1	0	1	-17,124736	274,156756	303,191437	0
15.01.2021	18:40:07	0	0	3,050475	1,7625	306,2232	0,268	85,177	0	1016,78	6,8	8,9	8,7	1	1	1	1	1	1	1	1	1	0	1	-6,131078	274,258803	314,662276	0
15.01.2021	18:40:08	0	0	4,971145	1,8315	298,2924	0,258	85,177	0	1016,68	6,7	9	8,7	1	1	1	1	1	1	1	1	1	0	1	-11,839323	274,173227	308,553833	0
15.01.2021	18:40:09	0	0	2,711534	1,85175	302,382	0,259	85,188	0	1016,76	6,7	8,9	8,7	1	1	1	1	1	1	1	1	1	0	1	-6,412967	274,07163	313,505559	0
15.01.2021	18:40:10	0	0	5,084125	1,8105	300,2004	0,26	85,17	0	1016,76	6,8	8,9	8,7	1	1	1	1	1	1	1	1	1	0	1	-10,993658	274,177721	309,420509	0
15.01.2021	18:40:11	0	0	3,95432	1,81725	294,9732	0,254	85,17	0	1016,8	6,8	9	8,7	1	1	1	1	1	1	1	1	1	0	1	-11,205074	274,225728	309,433563	0
15.01.2021	18:40:12	0	0	3,163456	1,809	301,59	0,265	85,166	0	1016,66	6,7	9	8,7	1	1	1	1	1	1	1	1	1	0	1	-8,315715	274,152266	311,979475	0
15.01.2021	18:40:13	0	0	4,971145	1,77225	304,5924	0,265	85,176	0	1016,72	6,7	8,9	8,7	1	1	1	1	1	1	1	1	1	0	1	-7,329105	274,249777	313,422022	0
15.01.2021	18:40:14	0	0	2,485572	1,791	298,6776	0,261	85,175	0	1016,66	6,8	8,9	8,7	1	1	1	1	1	1	1	1	1	0	1	-8,174771	274,095487	311,85516	0
15.01.2021	18:40:15	0	0	3,95432	1,80825	302,4432	0,263	85,175	0	1016,66	6,8	8,9	8,7	1	1	1	1	1	1	1	1	1	0	1	-12,684989	274,134318	307,526333	0
15.01.2021	18:40:16	0	0	3,841339	1,824	305,3196	0,263	85,155	0	1016,68	6,8	9	8,7	1	1	1	1	1	1	1	1	1	0	1	-8,245243	274,215217	312,344233	0
15.01.2021	18:40:17	0	0	4,406242	1,84125	321,9012	0,265	85,164	0	1016,52	6,8	9	8,7	1	1	1	1	1	1	1	1	1	0	1	-8,738548	274,092503	311,277448	0
15.01.2021	18:40:18	0	0	2,824514	1,911	322,5492	0,266	85,15	0	1016,74	7	8,9	8,7	1	1	1	1	1	1	1	1	1	0	1	-9,020437	274,152266	311,274754	0
15.01.2021	18:40:19	0	0	2,824514	1,95975	321,8184	0,266	85,174	0	1016,64	6,9	8,9	8,7	1	1	1	1	1	1	1	1	1	0	1	-10,077519	274,085046	309,903651	0
15.01.2021	18:40:20	0	0	5,197106	1,998	312,8328	0,266	85,163	0	1016,72	6,8	8,9	8,7	1	1	1	1	1	1	1	1	1	0	1	-11,627907	274,11788	308,506619	0
15.01.2021	18:40:21	0	0	2,824514	2,0565	316,6956	0,267	85,18	0	1016,76	6,8	9	8,7	1	1	1	1	1	1	1	1	1	0	1	-12,403101	274,230235	308,256615	0
15.01.2021	18:40:22	0	0	5,084125	2,1285	314,01	0,267	85,165	0	1016,68	6,7	9	8,7	1	1	1	1	1	1	1	1	1	0	1	-10,500352	274,126844	309,676053	0
15.01.2021	18:40:23	0	0	2,485572	2,043	312,8688	0,264	85,178	0	1016,74	6,9	8,9	8,7	1	1	1	1	1	1	1	1	1	0	1	-13,389711	274,260308	307,410684	0
15.01.2021	18:40:24	0	0	2,372592	2,0295	309,1608	0,267	85,178	0	1016,72	6,8	8,9	8,7	1	1	1	1	1	1	1	1	1	0	1	-5,708245	274,128339	314,475142	0
15.01.2021	18:40:25	0	0	2,824514	2,03475	309,5496	0,268	85,169	0	1016,74	6,8	8,8	8,7	1	1	1	1	1	1	1	1	1	0	1	-12,332629	274,119373	307,808876	0
15.01.2021	18:40:26	0	0	4,0673	1,9785	290,0664	0,268	85,165	0	1016,74	6,9	9	8,7	1	1	1	1	1	1	1	1	1	0	1	-8,245243	274,258803	312,548111	0
15.01.2021	18:40:27	0	0	3,389417	1,93725	304,9848	0,263	85,164	0	1016,7	6,8	9	8,7	1	1	1	1	1	1	1	1	1	0	1	-12,332629	274,17922	308,088542	0
15.01.2021	18:40:28	0	0	3,841339	1,75425	296,0892	0,266	85,182	0	1016,82	6,8	9	8,7	1	1	1	1	1	1	1	1	1	0	1	-12,896406	274,239252	307,805486	0
15.01.2021	18:40:29	0	0	2,824514	1,6875	296,4564	0,266	85,16	0	1016,7	6,7	8,9	8,7	1	1	1	1	1	1	1	1	1	0	1	-7,540521	274,156756	312,775651	0
15.01.2021	18:40:30	0	0	4,632203	1,617	297,1764	0,269	85,167	0	1016,62	6,8	9	8,7	1	1	1	1	1	1	1	1	1	0	1	-6,694856	274,080573	313,265428	0
15.01.2021	18:40:31	0	0	3,389417	1,6335	304,9272	0,268	85,178	0	1016,7	6,8	9	8,7	1	1	1	1	1	1	1	1	1	0	1	-8,879493	274,123856	311,28295	0
15.01.2021	18:40:32	0	0	4,632203	1,65075	302,8104	0,267	85,188	0	1016,7	6,8	9	8,7	1	1	1	1	1	1	1	1	1	0	1	-7,610994	274,249777	313,140133	0
15.01.2021	18:40:33	0	0	3,841339	1,62	299,4012	0,268	85,182	0	1016,86	6,7	9	8,7	1	1	1	1	1	1	1	1	1	0	1	-6,412967	274,156756	313,903206	0
15.01.2021	18:40:34	0	0	4,745184	1,58625	293,0868	0,26	85,169	0	1016,72	6,6	9	8,7	1	1	1	1	1	1	1	1	1	0	1	-8,80902	274,251281	311,949143	0
15.01.2021	18:40:35	0	0	5,197106	1,62825	316,2456	0,26	85,185	0	1016,72	6,7	9	8,7	1	1	1	1	1	1	1	1	1	0	1	-7,82241	274,162743	312,521747	0
15.01.2021	18:40:36	0	0	4,0673	1,67175	304,2108	0,264	85,181	0	1016,74	6,8	8,9	8,7	1	1	1	1	1	1	1	1	1	0	1	-9,513742	274,085046	310,467429	0
15.01.2021	18:40:37	0	0	4,745184	1,71075	319,4928	0,265	85,171	0	1016,6	6,9	8,9	8,7	1	1	1	1	1	1	1	1	1	0	1	-7,892882	274,231738	312,773861	0
15.01.2021	18:40:38	0	0	3,389417	1,713	311,7672	0,262	85,166	0	1016,8	6,8	9	8,7	1	1	1	1	1	1	1	1	1	0	1	-8,738548	274,104441	311,333203	0
15.01.2021	18:40:39	0	0	3,728359	1,6815	308,8764	0,267	85,188	0	1017,04	6,8	8,9	8,7	1	1	1	1	1	1	1	1	1	0	1	-11,909796	274,086537	308,078339	0
15.01.2021	18:40:40	0	0	4,293261	1,6485	309,9672	0,263	85,178	0	1016,7	6,7	9	8,7	1	1	1	1	1	1	1	1	1	0	1	-7,82241	274,227231	312,823253	0
15.01.2021	18:40:41	0	0	3,276436	1,605	302,8392	0,266	85,162	0	1016,74	6,8	8,9	8,7	1	1	1	1	1	1	1	1	1	0	1	-9,161381	274,234743	311,51942	0
15.01.2021	18:40:42	0	0	4,293261	1,57425	315,8712	0,263	85,167	0	1016,74	6,8	8,9	8,7	1	1	1	1	1	1	1	1	1	0	1	-9,936575	274,144785	310,323659	0
15.01.2021	18:40:43	0	0	2,824514	1,596	301,5324	0,266	85,175	0	1016,66	6,7	8,9	8,7	1	1	1	1	1	1	1	1	1	0	1	-9,513742	274,074611	310,4187	0
15.01.2021	18:40:44	0	0	3,728359	1,824	319,5468	0,266	85,171	0	1016,74	6,7	8,9	8,7	1	1	1	1	1	1	1	1	1	0	1	-10,007047	274,212214	310,568389	0
15.01.2021	18:40:45	0	0	3,050475	1,9845	316,5912	0,267	85,184	0	1016,74	6,8	9	8,7	1	1	1	1	1	1	1	1	1	0	1	-10,993658	274,086537	308,994477	0
15.01.2021	18:40:46	0	0	5,084125	2,09625	307,2204	0,265	85,191	0	1016,8	6,8	8,9	8,7	1	1	1	1	1	1	1	1	1	0	1	-9,161381	274,155259	311,147797	0
15.01.2021	18:40:47	0	0	4,293261	2,08725	312,408	0,27	85,178	0	1016,7	6,8	8,9	8,7	1	1	1	1	1	1	1	1	1	0	1	-11,698379	274,088029	308,29672	0
15.01.2021	18:40:48	0	0	3,95432	1,94925	313,4916	0,269	85,172	0	1016,74	6,8	8,9	8,7	1	1	1	1	1	1	1	1	1	0	1	-6,272023	274,116386	313,855526	0
15.01.2021	18:40:49	0	0	3,163456	1,893	320,76	0,266	85,184	0	1016,7	6,7	8,9	8,7	1	1	1	1	1	1	1	1	1	0	1	-12,614517	274,116386	307,513031	0
15.01.2021	18:40:50	0	0	4,0673	1,9095	312,2388	0,268	85,183	0	1016,72	6,6	9	8,7	1	1	1	1	1	1	1	1	1	0	1	-11,134602	274,231738	309,532142	0
15.01.2021	18:40:51	0	0	3,050475	1,78275	322,9632	0,267	85,169	0	1016,68	6,8	8,9	8,7	1	1	1	1	1	1	1	1	1	0	1	-11,909796	274,278374	308,975134	0
15.01.2021	18:40:52	0	0	3,389417	1,6575	306,9252	0,272	85,185	0	1016,84	6,8	8,9	8,7	1	1	1	1	1	1	1	1	1	0	1	-10,218464	274,147777	310,055751	0
15.01.2021	18:40:53	0	0	4,519223	1,58025	302,0508	0,269	85,17	0	1016,76	6,9	9	8,7	1	1	1	1	1	1	1	1	1	0	1	-11,275546	274,27235	309,581194	0
15.01.2021	18:40:54	0	0	4,519223	1,602	301,572	0,264	85,173	0	1016,76	6,8	9	8,7	1	1	1	1	1	1	1	1	1	0	1	-10,852713	274,270844	309,996982	0
15.01.2021	18:40:55	0	0	2,259611	1,66875	302,094	0,269	85,166	0	1016,78	6,7	8,9	8,7	1	1	1	1	1	1	1	1	1	0	1	-7,681466	274,135813	312,536842	0
15.01.2021	18:40:56	0	0	4,180281	1,66875	300,8484	0,269	85,177	0	1016,76	6,8	8,9	8,7	1	1	1	1	1	1	1	1	1	0	1	-7,047216	274,249777	313,703911	0
15.01.2021	18:40:57	0	0	4,971145	1,671	303,2352	0,269	85,177	0	1016,76	6,8	8,9	8,7	1	1	1	1	1	1	1	1	1	0	1	-10,570825	274,155259	309,738353	0
15.01.2021	18:40:58	0	0	4,632203	1,5525	321,12	0,266	85,163	0	1016,64	6,7	9	8,7	1	1	1	1	1	1	1	1	1	0	1	-8,879493	274,237749	311,815368	0
15.01.2021	18:40:59	0	0	2,711534	1,44075	330,0948	0,267	85,158	0	1016,72	6,8	8,9	8,7	1	1	1	1	1	1	1	1	1	0	1	-7,399577	274,27235	313,457163	0
15.01.2021	18:41:00	0	0	3,615378	1,32225	308,8656	0,272	85,176	0	1016,76	6,8	8,9	8,7	1	1	1	1	1	1	1	1	1	0	1	-7,681466	274,116386	312,446083	0
15.01.2021	18:41:01	0	0	2,824514	1,209	298,332	0,27	85,175	0	1016,7	6,8	9	8,7	1	1	1	1	1	1	1	1	1	0	1	-9,936575	274,231738	310,730169	0
15.01.2021	18:41:02	0	0	3,276436	1,16925	306,0864	0,268	85,167	0	1016,78	6,7	9	8,7	1	1	1	1	1	1	1	1	1	0	1	-8,80902	274,079082	311,144302	0
15.01.2021	18:41:03	0	0	3,728359	1,16025	316,2528	0,268	85,175	0	1016,74	6,7	9	8,7	1	1	1	1	1	1	1	1	1	0	1	-9,936575	274,210713	310,631842	0
15.01.2021	18:41:04	0	0	2,598553	1,281	298,7496	0,267	85,176	0	1016,72	7	9	8,7	1	1	1	1	1	1	1	1	1	0	1	-10,500352	274,079082	309,45297	0
15.01.2021	18:41:05	0	0	3,615378	1,33425	312,4548	0,266	85,176	0	1016,68	6,7	8,9	8,7	1	1	1	1	1	1	1	1	1	0	1	-9,231853	274,183716	311,210335	0
15.01.2021	18:41:06	0	0	3,615378	1,3875	316,9656	0,269	85,175	0	1016,88	6,7	8,9	8,7	1	1	1	1	1	1	1	1	1	0	1	-11,06413	274,248273	309,679962	0
15.01.2021	18:41:07	0	0	4,519223	1,38225	317,7288	0,27	85,168	0	1016,76	6,7	9	8,7	1	1	1	1	1	1	1	1	1	0	1	-8,879493	274,122361	311,27597	0
15.01.2021	18:41:08	0	0	2,937495	1,31925	316,224	0,268	85,177	0	1016,76	6,8	9	8,7	1	1	1	1	1	1	1	1	1	0	1	-12,191684	274,27235	308,665056	0
15.01.2021	18:41:09	0	0	3,389417	1,3125	313,5852	0,267	85,154	0	1016,62	6,9	9	8,7	1	1	1	1	1	1	1	1	1	0	1	-10,218464	274,19421	310,272788	0
15.01.2021	18:41:10	0	0	4,180281	1,281	312,9156	0,265	85,165	0	1016,78	7	9	8,7	1	1	1	1	1	1	1	1	1	0	1	-4,792107	274,082064	315,175138	0
15.01.2021	18:41:11	0	0	4,519223	1,281	316,5624	0,268	85,171	0	1016,76	6,7	8,9	8,7	1	1	1	1	1	1	1	1	1	0	1	-10,288936	274,219721	310,321605	0
15.01.2021	18:41:12	0	0	2,824514	1,341	321,4548	0,263	85,168	0	1016,8	6,8	9	8,7	1	1	1	1	1	1	1	1	1	0	1	-9,936575	274,224226	310,695037	0
15.01.2021	18:41:13	0	0	4,0673	1,34475	320,436	0,268	85,168	0	1016,72	6,8	8,9	8,7	1	1	1	1	1	1	1	1	1	0	1	-9,584214	274,275361	311,286619	0
15.01.2021	18:41:14	0	0	3,95432	1,29975	316,2168	0,267	85,169	0	1016,6	6,8	8,9	8,7	1	1	1	1	1	1	1	1	1	0	1	-9,795631	274,23324	310,878141	0
15.01.2021	18:41:15	0	0	4,858164	1,28775	318,4344	0,266	85,17	0	1016,78	6,8	8,9	8,7	1	1	1	1	1	1	1	1	1	0	1	-7,399577	274,27235	313,457163	0
15.01.2021	18:41:16	0	0	4,180281	1,233	306,1152	0,266	85,155	0	1016,68	6,8	8,9	8,7	1	1	1	1	1	1	1	1	1	0	1	-9,513742	274,12535	310,655681	0
15.01.2021	18:41:17	0	0	3,95432	1,23375	306,2052	0,27	85,164	0	1016,52	6,8	8,9	8,7	1	1	1	1	1	1	1	1	1	0	1	-9,372798	274,248273	311,371294	0
15.01.2021	18:41:18	0	0	3,615378	1,2225	314,4996	0,27	85,161	0	1016,82	6,8	9	8,7	1	1	1	1	1	1	1	1	1	0	1	-12,473573	274,269338	308,369077	0
15.01.2021	18:41:19	0	0	3,615378	1,206	304,2756	0,267	85,15	0	1016,62	6,8	8,9	8,7	1	1	1	1	1	1	1	1	1	0	1	-8,949965	274,260308	311,85043	0
15.01.2021	18:41:20	0	0	2,598537	1,16775	305,298	0,266	85,159	0	1016,64	6,8	8,9	8,8	1	1	1	1	1	1	1	1	1	0	1	-11,909796	274,126844	308,266609	0
15.01.2021	18:41:21	0	0	2,485572	1,191	314,0712	0,271	85,174	0	1016,68	6,8	9	8,7	1	1	1	1	1	1	1	1	1	0	1	-8,315715	274,085046	311,665456	0
15.01.2021	18:41:22	0	0	4,745184	1,2615	307,1736	0,267	85,15	0	1016,86	6,8	9	8,7	1	1	1	1	1	1	1	1	1	0	1	-7,117689	274,225728	313,520949	0
15.01.2021	18:41:23	0	0	3,841339	1,344	306,1008	0,268	85,171	0	1016,78	6,8	8,9	8,7	1	1	1	1	1	1	1	1	1	0	1	-9,866103	274,147777	310,408112	0
15.01.2021	18:41:24	0	0	3,728359	1,46175	306,864	0,263	85,159	0	1016,7	6,8	9	8,7	1	1	1	1	1	1	1	1	1	0	1	-5,708245	274,269338	315,134405	0
15.01.2021	18:41:25	0	0	4,632203	1,56675	304,2324	0,269	85,143	0	1016,62	6,8	8,9	8,7	1	1	1	1	1	1	1	1	1	0	1	-7,82241	274,134318	312,388912	0
15.01.2021	18:41:26	0	0	3,615378	1,69275	303,9048	0,269	85,157	0	1016,64	6,8	9	8,7	1	1	1	1	1	1	1	1	1	0	1	-5,990134	274,252785	314,775066	0
15.01.2021	18:41:27	0	0	2,824514	1,69425	306,8388	0,273	85,149	0	1016,8	6,8	9	8,7	1	1	1	1	1	1	1	1	1	0	1	-4,933051	274,152266	315,362139	0
15.01.2021	18:41:28	0	0	3,502398	1,69875	305,0784	0,269	85,163	0	1016,78	6,8	8,9	8,7	1	1	1	1	1	1	1	1	1	0	1	-14,235377	274,082064	305,731868	0
15.01.2021	18:41:29	0	0	3,841339	1,74975	316,6596	0,266	85,147	0	1016,66	6,8	8,9	8,7	1	1	1	1	1	1	1	1	1	0	1	-12,403101	274,173227	307,990056	0
15.01.2021	18:41:30	0	0	2,372592	1,77075	320,4072	0,269	85,15	0	1016,74	6,8	9	8,7	1	1	1	1	1	1	1	1	1	0	1	-6,8358	274,08952	313,166264	0
15.01.2021	18:41:31	0	0	3,163456	1,725	315,5436	0,271	85,146	0	1016,68	6,8	8,9	8,7	1	1	1	1	1	1	1	1	1	0	1	-11,41649	274,207712	309,137891	0
15.01.2021	18:41:32	0	0	2,146631	1,563	300,5172	0,268	85,135	0	1016,74	6,8	8,9	8,7	1	1	1	1	1	1	1	1	1	0	1	-12,121212	274,08952	307,880852	0
15.01.2021	18:41:33	0	0	4,745184	1,5645	302,0472	0,264	85,137	0	1016,66	6,8	8,9	8,7	1	1	1	1	1	1	1	1	1	0	1	-8,80902	274,19571	311,689243	0
15.01.2021	18:41:34	0	0	2,598553	1,58025	305,4132	0,266	85,149	0	1016,68	6,8	8,9	8,7	1	1	1	1	1	1	1	1	1	0	1	-10,218464	274,079082	309,734858	0
15.01.2021	18:41:35	0	0	2,598553	1,62675	310,644	0,269	85,153	0	1016,58	6,8	8,9	8,7	1	1	1	1	1	1	1	1	1	0	1	-8,879493	274,236246	311,808338	0
15.01.2021	18:41:36	0	0	3,615378	1,66125	300,3732	0,268	85,15	0	1016,62	6,8	9	8,7	1	1	1	1	1	1	1	1	1	0	1	-8,668076	274,11788	311,46645	0
15.01.2021	18:41:37	0	0	5,084125	1,779	298,3032	0,267	85,137	0	1016,76	6,8	9	8,7	1	1	1	1	1	1	1	1	1	0	1	-11,627907	274,135813	308,590401	0
15.01.2021	18:41:38	0	0	4,293261	1,83075	296,0784	0,271	85,152	0	1016,68	6,8	8,9	8,7	1	1	1	1	1	1	1	1	1	0	1	-10,007047	274,105934	310,071677	0
15.01.2021	18:41:39	0	0	2,824514	1,8495	302,4108	0,269	85,122	0	1016,82	6,7	9	8,7	1	1	1	1	1	1	1	1	1	0	1	-8,879493	274,213715	311,702963	0
15.01.2021	18:41:40	0	0	2,259611	1,794	302,8536	0,266	85,142	0	1016,78	6,8	8,9	8,7	1	1	1	1	1	1	1	1	1	0	1	-8,033827	274,099963	312,017012	0
15.01.2021	18:41:41	0	0	3,502398	1,779	299,8116	0,261	85,149	0	1016,78	6,8	9	8,7	1	1	1	1	1	1	1	1	1	0	1	-7,540521	274,159749	312,789642	0
15.01.2021	18:41:42	0	0	4,519223	1,7985	299,79	0,269	85,15	0	1016,84	6,8	9	8,7	1	1	1	1	1	1	1	1	1	0	1	-7,681466	274,088029	312,313633	0
15.01.2021	18:41:43	0	0	3,050475	1,7895	308,106	0,273	85,138	0	1016,7	6,8	8,9	8,7	1	1	1	1	1	1	1	1	1	0	1	-6,765328	274,149273	313,515878	0
15.01.2021	18:41:44	0	0	4,519223	1,78725	302,0724	0,268	85,123	0	1016,72	6,8	8,9	8,7	1	1	1	1	1	1	1	1	1	0	1	-5,919662	274,267833	314,915944	0
15.01.2021	18:41:45	0	0	2,485572	1,72275	293,8356	0,266	85,139	0	1016,66	6,8	8,9	8,7	1	1	1	1	1	1	1	1	1	0	1	-9,513742	274,182217	310,921439	0
15.01.2021	18:41:46	0	0	3,389417	1,7325	305,442	0,27	85,135	0	1016,8	6,8	8,9	8,7	1	1	1	1	1	1	1	1	1	0	1	-4,087385	274,264822	316,734134	0
15.01.2021	18:41:47	0	0	2,824514	1,68075	305,4384	0,27	85,123	0	1016,64	6,8	8,9	8,7	1	1	1	1	1	1	1	1	1	0	1	-5,708245	274,144785	314,551989	0
15.01.2021	18:41:48	0	0	3,841339	1,698	301,608	0,264	85,14	0	1016,8	6,8	9	8,7	1	1	1	1	1	1	1	1	1	0	1	-8,033827	274,255794	312,745449	0
15.01.2021	18:41:49	0	0	2,824514	1,69275	299,4444	0,266	85,13	0	1016,56	6,8	9	8,7	1	1	1	1	1	1	1	1	1	0	1	-8,45666	274,269338	312,38599	0
15.01.2021	18:41:50	0	0	2,824514	1,7235	290,8116	0,261	85,116	0	1016,84	6,8	9	8,7	1	1	1	1	1	1	1	1	1	0	1	-5,990134	274,111906	314,116486	0
15.01.2021	18:41:51	0	0	2,372592	1,761	289,5876	0,26	85,129	0	1016,76	6,8	9	8,7	1	1	1	1	1	1	1	1	1	0	1	-9,372798	274,128339	310,810589	0
15.01.2021	18:41:52	0	0	3,389417	1,68075	302,0184	0,265	85,139	0	1016,74	6,8	8,9	8,7	1	1	1	1	1	1	1	1	1	0	1	-8,315715	274,252785	312,449485	0
15.01.2021	18:41:53	0	0	3,276417	1,69125	288,4824	0,264	85,127	0	1016,7	6,8	9	8,8	1	1	1	1	1	1	1	1	1	0	1	-8,245243	274,258803	312,548111	0
15.01.2021	18:41:54	0	0	3,276436	1,78275	282,7908	0,265	85,107	0	1016,64	6,8	8,9	8,7	1	1	1	1	1	1	1	1	1	0	1	-10,42988	274,261812	310,377555	0
15.01.2021	18:41:55	0	0	5,084125	1,845	288,8856	0,262	85,133	0	1016,74	6,8	8,9	8,7	1	1	1	1	1	1	1	1	1	0	1	-11,698379	274,239252	309,003513	0
15.01.2021	18:41:56	0	0	4,519223	1,78575	295,2504	0,266	85,133	0	1016,76	6,8	9	8,7	1	1	1	1	1	1	1	1	1	0	1	-8,104299	274,086537	311,883836	0
15.01.2021	18:41:57	0	0	3,615378	1,65525	292,6152	0,267	85,119	0	1016,8	6,8	9	8,7	1	1	1	1	1	1	1	1	1	0	1	-7,610994	274,183716	312,831194	0
15.01.2021	18:41:58	0	0	4,293261	1,58475	301,5432	0,268	85,122	0	1016,8	6,8	8,9	8,7	1	1	1	1	1	1	1	1	1	0	1	-10,147992	274,080573	309,812292	0
15.01.2021	18:41:59	0	0	4,745184	1,5495	303,2784	0,263	85,111	0	1016,62	6,8	9	8,7	1	1	1	1	1	1	1	1	1	0	1	-9,161381	274,218219	311,442138	0
15.01.2021	18:42:00	0	0	3,502398	1,45125	293,7276	0,263	85,127	0	1016,76	6,8	9	8,7	1	1	1	1	1	1	1	1	1	0	1	-9,654686	274,252785	311,110514	0
15.01.2021	18:42:01	0	0	3,502398	1,45125	293,7276	0,263	85,127	0	1016,76	6,8	9	8,7	1	1	1	1	1	1	1	1	1	0	1	-6,624383	274,240755	314,08454	0
15.01.2021	18:42:02	0	0	3,728359	1,467	306,3564	0,265	85,114	0	1016,68	6,8	8,9	8,7	1	1	1	1	1	1	1	1	1	0	1	-7,751938	274,215217	312,837538	0
15.01.2021	18:42:03	0	0	2,711534	1,47	309,2328	0,265	85,128	0	1016,78	6,8	9	8,7	1	1	1	1	1	1	1	1	1	0	1	-11,346018	274,281386	309,55301	0
15.01.2021	18:42:04	0	0	3,163456	1,43025	306,1116	0,262	85,133	0	1016,88	6,8	9	8,7	1	1	1	1	1	1	1	1	1	0	1	-7,610994	274,204711	312,929354	0
15.01.2021	18:42:05	0	0	5,197106	1,33425	315,2484	0,268	85,109	0	1016,82	6,8	8,9	8,7	1	1	1	1	1	1	1	1	1	0	1	-9,654686	274,091012	310,354344	0
15.01.2021	18:42:06	0	0	4,632203	1,3695	300,582	0,269	85,132	0	1016,48	6,8	8,9	8,7	1	1	1	1	1	1	1	1	1	0	1	-7,963354	274,245266	312,766668	0
15.01.2021	18:42:07	0	0	4,858164	1,37775	297,2736	0,268	85,131	0	1016,76	6,8	9	8,7	1	1	1	1	1	1	1	1	1	0	1	-8,668076	274,128339	311,515311	0
15.01.2021	18:42:08	0	0	3,841339	1,3335	306,09	0,267	85,13	0	1016,74	6,8	9	8,7	1	1	1	1	1	1	1	1	1	0	1	-8,033827	274,132823	312,170511	0
15.01.2021	18:42:09	0	0	3,841339	1,2255	291,87	0,267	85,131	0	1016,8	6,8	9	8,7	1	1	1	1	1	1	1	1	1	0	1	-9,866103	274,138803	310,366178	0
15.01.2021	18:42:10	0	0	3,276436	1,1415	281,7504	0,268	85,123	0	1016,66	6,8	9	8,7	1	1	1	1	1	1	1	1	1	0	1	-8,174771	274,085046	311,8064	0
15.01.2021	18:42:11	0	0	2,598553	1,09875	285,1776	0,268	85,135	0	1016,7	6,8	9	8,7	1	1	1	1	1	1	1	1	1	0	1	-8,315715	274,246769	312,421341	0
15.01.2021	18:42:12	0	0	3,502398	1,09725	301,6836	0,263	85,123	0	1016,7	6,8	9	8,7	1	1	1	1	1	1	1	1	1	0	1	-7,258633	274,111906	312,847987	0
15.01.2021	18:42:13	0	0	2,372592	1,16775	297,936	0,267	85,113	0	1016,76	6,8	8,9	8,7	1	1	1	1	1	1	1	1	1	0	1	-5,778717	274,119373	314,362787	0
15.01.2021	18:42:14	0	0	4,406242	1,23	288,8244	0,263	85,126	0	1016,74	6,8	8,9	8,7	1	1	1	1	1	1	1	1	1	0	1	-9,513742	274,282893	311,392336	0
15.01.2021	18:42:15	0	0	5,197106	1,23	303,2748	0,269	85,124	0	1016,72	6,8	8,9	8,7	1	1	1	1	1	1	1	1	1	0	1	-8,174771	274,164241	312,176384	0
15.01.2021	18:42:16	0	0	4,519223	1,1715	302,7996	0,261	85,123	0	1016,66	6,8	8,9	8,7	1	1	1	1	1	1	1	1	1	0	1	-12,614517	274,273855	308,249269	0
15.01.2021	18:42:17	0	0	2,259611	1,18425	302,9292	0,267	85,136	0	1016,64	6,8	9	8,7	1	1	1	1	1	1	1	1	1	0	1	-9,090909	274,155259	311,218269	0
15.01.2021	18:42:18	0	0	4,519223	1,18275	299,4084	0,269	85,123	0	1016,7	6,8	9	8,7	1	1	1	1	1	1	1	1	1	0	1	-9,513742	274,275361	311,357092	0
15.01.2021	18:42:19	0	0	4,0673	1,242	299,106	0,269	85,122	0	1016,76	6,8	9	8,7	1	1	1	1	1	1	1	1	1	0	1	-7,399577	274,242259	313,316378	0
15.01.2021	18:42:20	0	0	4,406242	1,2885	292,9608	0,264	85,105	0	1016,62	6,8	8,9	8,7	1	1	1	1	1	1	1	1	1	0	1	-5,496829	274,27235	315,359912	0
15.01.2021	18:42:21	0	0	4,293261	1,314	281,0556	0,27	85,133	0	1016,7	6,8	9	8,7	1	1	1	1	1	1	1	1	1	0	1	-7,751938	274,212214	312,823498	0
15.01.2021	18:42:22	0	0	4,406242	1,30125	291,8844	0,273	85,131	0	1016,7	6,8	9	8,7	1	1	1	1	1	1	1	1	1	0	1	-8,033827	274,276867	312,844055	0
15.01.2021	18:42:23	0	0	3,95432	1,338	303,1596	0,27	85,135	0	1016,82	6,8	9	8,7	1	1	1	1	1	1	1	1	1	0	1	-10,218464	274,17922	310,202707	0
15.01.2021	18:42:24	0	0	2,598553	1,33275	301,2336	0,264	85,134	0	1016,54	6,8	9	8,7	1	1	1	1	1	1	1	1	1	0	1	-4,721635	274,102948	315,343145	0
15.01.2021	18:42:25	0	0	3,050475	1,2375	293,472	0,268	85,136	0	1016,7	6,8	9	8,7	1	1	1	1	1	1	1	1	1	0	1	-11,134602	274,161246	309,202558	0
15.01.2021	18:42:26	0	0	5,084125	1,22175	285,4728	0,262	85,131	0	1016,72	6,8	8,9	8,7	1	1	1	1	1	1	1	1	1	0	1	-11,205074	274,258803	309,58828	0
15.01.2021	18:42:27	0	0	2,937495	1,2225	282,78	0,268	85,141	0	1016,96	6,8	9	8,7	1	1	1	1	1	1	1	1	1	0	1	-7,610994	274,216718	312,985504	0
15.01.2021	18:42:28	0	0	2,485572	1,14	291,2364	0,27	85,14	0	1016,64	6,8	9	8,7	1	1	1	1	1	1	1	1	1	0	1	-9,090909	274,291934	311,857484	0
15.01.2021	18:42:29	0	0	4,745184	1,0515	300,222	0,26	85,128	0	1016,7	6,8	9	8,7	1	1	1	1	1	1	1	1	1	0	1	-10,218464	274,164241	310,132692	0
15.01.2021	18:42:30	0	0	4,406242	1,08525	289,5912	0,269	85,139	0	1016,54	6,8	9	8,7	1	1	1	1	1	1	1	1	1	0	1	-7,540521	274,092503	312,475475	0
15.01.2021	18:42:31	0	0	4,971145	1,04175	283,626	0,27	85,145	0	1016,74	6,8	9	8,7	1	1	1	1	1	1	1	1	1	0	1	-9,513742	274,216718	311,082755	0
15.01.2021	18:42:32	0	0	3,502398	1,05225	293,3604	0,267	85,131	0	1016,8	6,8	9	8,7	1	1	1	1	1	1	1	1	1	0	1	-6,412967	274,276867	314,464914	0
15.01.2021	18:42:33	0	0	4,293261	1,06425	297,9252	0,27	85,142	0	1016,96	6,7	8,9	8,7	1	1	1	1	1	1	1	1	1	0	1	-9,725159	274,174725	310,675001	0
15.01.2021	18:42:34	0	0	4,519223	1,044	289,206	0,262	85,137	0	1016,72	6,8	9	8,7	1	1	1	1	1	1	1	1	1	0	1	-10,147992	274,102948	309,916788	0
15.01.2021	18:42:35	0	0	2,824514	0,99825	279,8748	0,269	85,137	0	1016,82	6,8	8,9	8,7	1	1	1	1	1	1	1	1	1	0	1	-7,117689	274,183716	313,324499	0
15.01.2021	18:42:36	0	0	2,485572	0,987	276,21	0,262	85,147	0	1016,72	6,8	9	8,7	1	1	1	1	1	1	1	1	1	0	1	-8,45666	274,270844	312,393035	0
15.01.2021	18:42:37	0	0	3,615378	0,93225	281,7216	0,266	85,141	0	1016,64	6,8	9	8,7	1	1	1	1	1	1	1	1	1	0	1	-8,668076	274,149273	311,61313	0
15.01.2021	18:42:38	0	0	4,745184	0,9345	283,644	0,271	85,139	0	1016,82	6,8	9	8,7	1	1	1	1	1	1	1	1	1	0	1	-7,188161	274,281386	313,710867	0
15.01.2021	18:42:39	0	0	4,293261	0,98175	280,9512	0,274	85,14	0	1016,64	6,8	9	8,7	1	1	1	1	1	1	1	1	1	0	1	-7,540521	274,135813	312,677786	0
15.01.2021	18:42:40	0	0	4,406242	1,014	285,516	0,266	85,138	0	1016,68	6,8	8,9	8,7	1	1	1	1	1	1	1	1	1	0	1	-5,426357	274,270844	315,423338	0
15.01.2021	18:42:41	0	0	2,485572	1,01925	282,5136	0,27	85,134	0	1016,76	6,8	8,9	8,7	1	1	1	1	1	1	1	1	1	0	1	-9,936575	274,114893	310,183996	0
15.01.2021	18:42:42	0	0	4,406242	1,017	274,824	0,266	85,145	0	1016,64	6,7	8,9	8,7	1	1	1	1	1	1	1	1	1	0	1	-8,738548	274,20171	311,787769	0
15.01.2021	18:42:43	0	0	3,728359	1,0245	276,8112	0,27	85,151	0	1016,72	6,8	9	8,7	1	1	1	1	1	1	1	1	1	0	1	-6,976744	274,099963	313,074094	0
15.01.2021	18:42:44	0	0	4,858164	1,0095	290,448	0,271	85,149	0	1016,72	6,8	8,9	8,7	1	1	1	1	1	1	1	1	1	0	1	-9,44327	274,19571	311,054994	0
15.01.2021	18:42:45	0	0	2,485572	1,02375	309,96	0,272	85,156	0	1016,94	6,8	9	8,7	1	1	1	1	1	1	1	1	1	0	1	-12,473573	274,285906	308,446608	0
15.01.2021	18:42:46	0	0	3,95432	1,0545	305,3628	0,267	85,144	0	1016,72	6,8	8,9	8,7	1	1	1	1	1	1	1	1	1	0	1	-7,892882	274,188213	312,570329	0
15.01.2021	18:42:47	0	0	4,745184	1,0215	302,778	0,263	85,146	0	1016,68	6,8	9	8,7	1	1	1	1	1	1	1	1	1	0	1	-9,372798	274,095487	310,657134	0
15.01.2021	18:42:48	0	0	5,197106	0,92925	303,48	0,274	85,152	0	1016,72	6,8	8,9	8,7	1	1	1	1	1	1	1	1	1	0	1	-14,940099	274,252785	305,825101	0
15.01.2021	18:42:49	0	0	2,937495	0,873	302,8464	0,274	85,145	0	1016,76	6,8	9	8,7	1	1	1	1	1	1	1	1	1	0	1	-4,087385	274,086537	315,900749	0
15.01.2021	18:42:50	0	0	3,95432	0,843	300,078	0,269	85,157	0	1016,74	6,8	8,9	8,7	1	1	1	1	1	1	1	1	1	0	1	-13,953488	274,146281	306,313736	0
15.01.2021	18:42:51	0	0	4,406242	0,80175	299,0772	0,275	85,151	0	1016,7	6,8	8,9	8,7	1	1	1	1	1	1	1	1	1	0	1	-13,03735	274,267833	307,798256	0
15.01.2021	18:42:52	0	0	2,259611	0,79125	300,5028	0,268	85,151	0	1016,8	6,8	9	8,7	1	1	1	1	1	1	1	1	1	0	1	-11,346018	274,159749	308,984145	0
15.01.2021	18:42:53	0	0	3,389417	0,82725	303,1416	0,268	85,137	0	1016,72	6,8	9	8,7	1	1	1	1	1	1	1	1	1	0	1	-8,45666	274,105934	311,622064	0
15.01.2021	18:42:54	0	0	2,824514	0,90375	310,6368	0,271	85,15	0	1016,74	6,8	8,9	8,7	1	1	1	1	1	1	1	1	1	0	1	-11,134602	274,209212	309,426797	0
15.01.2021	18:42:55	0	0	2,485572	0,97425	304,3044	0,268	85,143	0	1016,6	6,8	8,9	8,7	1	1	1	1	1	1	1	1	1	0	1	-5,637773	274,095487	314,392158	0
15.01.2021	18:42:56	0	0	3,276436	1,0935	300,6072	0,271	85,159	0	1016,62	6,8	8,9	8,7	1	1	1	1	1	1	1	1	1	0	1	-4,651163	274,128339	315,532224	0
15.01.2021	18:42:57	0	0	3,728359	1,23225	302,4504	0,27	85,157	0	1016,7	6,8	9	8,7	1	1	1	1	1	1	1	1	1	0	1	-7,751938	274,088029	312,243161	0
15.01.2021	18:42:58	0	0	4,519195	1,323	293,3784	0,275	85,16	0	1016,66	6,7	8,9	8,8	1	1	1	1	1	1	1	1	1	0	1	-7,892882	274,209212	312,668517	0
15.01.2021	18:42:59	0	0	3,163456	1,38225	292,6116	0,272	85,145	0	1016,72	6,8	9	8,7	1	1	1	1	1	1	1	1	1	0	1	-13,6716	274,140298	306,567668	0
15.01.2021	18:43:00	0	0	2,937495	1,40925	289,7172	0,266	85,151	0	1016,66	6,8	9	8,7	1	1	1	1	1	1	1	1	1	0	1	-11,41649	274,264822	309,405029	0
15.01.2021	18:43:01	0	0	3,95432	1,4745	279,1584	0,273	85,165	0	1016,72	6,8	9	8,7	1	1	1	1	1	1	1	1	1	0	1	-9,090909	274,206211	311,456455	0
15.01.2021	18:43:02	0	0	2,824514	1,52775	281,3616	0,27	85,154	0	1016,74	6,8	9	8,7	1	1	1	1	1	1	1	1	1	0	1	-9,584214	274,15077	310,703984	0
15.01.2021	18:43:03	0	0	2,937477	1,4895	282,132	0,265	85,154	0	1016,5	6,8	8,9	8,8	1	1	1	1	1	1	1	1	1	0	1	-8,668076	274,221223	311,949488	0
15.01.2021	18:43:04	0	0	4,180281	1,5045	286,6464	0,273	85,162	0	1016,72	6,8	8,9	8,7	1	1	1	1	1	1	1	1	1	0	1	-7,540521	274,126844	312,635883	0
15.01.2021	18:43:05	0	0	4,519223	1,54725	281,0196	0,275	85,178	0	1016,88	6,8	8,9	8,7	1	1	1	1	1	1	1	1	1	0	1	-9,302326	274,266328	311,526237	0
15.01.2021	18:43:06	0	0	2,937495	1,58175	284,796	0,271	85,159	0	1016,62	6,8	8,9	8,7	1	1	1	1	1	1	1	1	1	0	1	-10,852713	274,122361	309,302749	0
15.01.2021	18:43:07	0	0	3,276436	1,63425	285,5376	0,27	85,144	0	1016,8	6,8	9	8,7	1	1	1	1	1	1	1	1	1	0	1	-14,587738	274,284399	306,325391	0
15.01.2021	18:43:08	0	0	4,519223	1,6845	290,4156	0,269	85,147	0	1016,58	6,8	9	8,7	1	1	1	1	1	1	1	1	1	0	1	-9,44327	274,219721	311,167271	0
15.01.2021	18:43:09	0	0	4,180256	1,6395	288,162	0,268	85,155	0	1016,68	6,8	9	8,8	1	1	1	1	1	1	1	1	1	0	1	-5,637773	274,291934	315,31062	0
15.01.2021	18:43:10	0	0	4,0673	1,58325	290,61	0,261	85,156	0	1016,62	6,8	9	8,7	1	1	1	1	1	1	1	1	1	0	1	-7,82241	274,216718	312,774087	0
15.01.2021	18:43:11	0	0	4,632203	1,557	292,9392	0,267	85,154	0	1016,62	6,8	9	8,7	1	1	1	1	1	1	1	1	1	0	1	-10,288936	274,266328	310,539626	0
15.01.2021	18:43:12	0	0	2,824514	1,5165	287,6796	0,272	85,161	0	1016,7	6,8	9	8,7	1	1	1	1	1	1	1	1	1	0	1	-5,496829	274,192711	314,987412	0
15.01.2021	18:43:13	0	0	3,728359	1,48575	288,4788	0,275	85,159	0	1016,78	6,8	9	8,7	1	1	1	1	1	1	1	1	1	0	1	-7,892882	274,270844	312,956813	0
15.01.2021	18:43:14	0	0	3,050475	1,40475	281,6712	0,27	85,164	0	1016,56	6,8	9	8,7	1	1	1	1	1	1	1	1	1	0	1	-11,346018	274,215217	309,243458	0
15.01.2021	18:43:15	0	0	4,519223	1,365	295,1496	0,269	85,141	0	1016,6	6,8	9	8,7	1	1	1	1	1	1	1	1	1	0	1	-10,641297	274,260308	310,159098	0
15.01.2021	18:43:16	0	0	2,711534	1,33725	295,2144	0,271	85,153	0	1016,74	6,8	9	8,7	1	1	1	1	1	1	1	1	1	0	1	-5,84919	274,12535	314,320234	0
15.01.2021	18:43:17	0	0	4,180281	1,33575	278,802	0,274	85,149	0	1016,84	6,8	8,9	8,7	1	1	1	1	1	1	1	1	1	0	1	-9,302326	274,251281	311,455838	0
15.01.2021	18:43:18	0	0	2,711534	1,31025	275,4252	0,272	85,151	0	1016,78	6,8	9	8,7	1	1	1	1	1	1	1	1	1	0	1	-10,570825	274,110413	309,52882	0
15.01.2021	18:43:19	0	0	3,841339	1,35375	286,9992	0,268	85,139	0	1016,56	6,8	9	8,7	1	1	1	1	1	1	1	1	1	0	1	-10,500352	274,162743	309,843805	0
15.01.2021	18:43:20	0	0	2,937495	1,386	286,5996	0,272	85,16	0	1016,78	6,8	9	8,7	1	1	1	1	1	1	1	1	1	0	1	-8,104299	274,263317	312,710178	0
15.01.2021	18:43:21	0	0	2,711534	1,386	285,9408	0,266	85,131	0	1016,62	6,8	9	8,7	1	1	1	1	1	1	1	1	1	0	1	-12,755462	274,129833	307,434908	0
15.01.2021	18:43:22	0	0	4,745184	1,39575	287,7768	0,274	85,148	0	1016,76	6,8	9	8,7	1	1	1	1	1	1	1	1	1	0	1	-9,513742	274,099963	310,537096	0
15.01.2021	18:43:23	0	0	3,050457	1,3875	278,8164	0,266	85,147	0	1016,62	6,8	8,9	8,8	1	1	1	1	1	1	1	1	1	0	1	-8,879493	274,149273	311,401713	0
15.01.2021	18:43:24	0	0	4,406242	1,3785	281,0376	0,27	85,145	0	1016,78	6,8	9	8,7	1	1	1	1	1	1	1	1	1	0	1	-13,953488	274,152266	306,341702	0
15.01.2021	18:43:25	0	0	3,95432	1,33725	280,242	0,274	85,15	0	1016,64	6,8	9	8,7	1	1	1	1	1	1	1	1	1	0	1	-9,866103	274,225728	310,772534	0
15.01.2021	18:43:26	0	0	2,937495	1,37625	285,4584	0,268	85,15	0	1016,64	6,8	9	8,7	1	1	1	1	1	1	1	1	1	0	1	-8,033827	274,263317	312,78065	0
15.01.2021	18:43:27	0	0	5,310087	1,35825	285,8256	0,268	85,157	0	1016,7	6,8	9	8,7	1	1	1	1	1	1	1	1	1	0	1	-5,567301	274,152266	314,72789	0
15.01.2021	18:43:28	0	0	3,615378	1,2975	275,7744	0,27	85,159	0	1016,68	6,8	9	8,7	1	1	1	1	1	1	1	1	1	0	1	-12,191684	274,082064	307,775561	0
15.01.2021	18:43:29	0	0	5,084125	1,25325	272,862	0,27	85,143	0	1016,76	6,8	9	8,7	1	1	1	1	1	1	1	1	1	0	1	-9,302326	274,174725	311,097833	0
15.01.2021	18:43:30	0	0	4,293261	1,19775	277,65	0,269	85,152	0	1016,6	6,8	9	8,7	1	1	1	1	1	1	1	1	1	0	1	-8,174771	274,095487	311,85516	0
15.01.2021	18:43:31	0	0	5,084125	1,125	278,4312	0,276	85,152	0	1016,68	6,8	9	8,7	1	1	1	1	1	1	1	1	1	0	1	-9,44327	274,186713	311,012933	0
15.01.2021	18:43:32	0	0	3,728336	1,13625	276,4332	0,267	85,147	0	1016,8	6,8	8,9	8,8	1	1	1	1	1	1	1	1	1	0	1	-5,778717	274,091012	314,230313	0
15.01.2021	18:43:33	0	0	2,259611	1,17075	278,3808	0,274	85,144	0	1016,66	6,8	9	8,7	1	1	1	1	1	1	1	1	1	0	1	-9,302326	274,20321	311,231006	0
15.01.2021	18:43:34	0	0	2,598553	1,173	287,01	0,272	85,151	0	1016,66	6,8	9	8,7	1	1	1	1	1	1	1	1	1	0	1	-10,782241	274,281386	310,116787	0
15.01.2021	18:43:35	0	0	3,95432	1,21575	275,0328	0,269	85,138	0	1016,74	6,8	8,9	8,7	1	1	1	1	1	1	1	1	1	0	1	-8,174771	274,123856	311,987672	0
15.01.2021	18:43:36	0	0	4,180281	1,22625	280,2564	0,268	85,157	0	1016,74	6,8	9	8,7	1	1	1	1	1	1	1	1	1	0	1	-10,711769	274,261812	310,095667	0
15.01.2021	18:43:37	0	0	2,937477	1,25625	291,204	0,266	85,145	0	1016,7	6,8	8,9	8,8	1	1	1	1	1	1	1	1	1	0	1	-7,82241	274,183716	312,619778	0
15.01.2021	18:43:38	0	0	3,502398	1,24725	289,5912	0,269	85,145	0	1016,68	6,8	9	8,7	1	1	1	1	1	1	1	1	1	0	1	-6,624383	274,273855	314,239403	0
15.01.2021	18:43:39	0	0	4,519195	1,2495	269,1756	0,266	85,146	0	1016,56	6,8	9	8,8	1	1	1	1	1	1	1	1	1	0	1	-7,188161	274,213715	313,394295	0
15.01.2021	18:43:40	0	0	4,745184	1,2075	285,192	0,266	85,145	0	1016,6	6,8	8,9	8,7	1	1	1	1	1	1	1	1	1	0	1	-7,117689	274,27235	313,739052	0
15.01.2021	18:43:41	0	0	2,824514	1,224	287,784	0,271	85,15	0	1016,52	6,8	9	8,7	1	1	1	1	1	1	1	1	1	0	1	-11,134602	274,191211	309,342628	0
15.01.2021	18:43:42	0	0	4,293261	1,24575	274,662	0,269	85,174	0	1017,04	6,8	9	8,7	1	1	1	1	1	1	1	1	1	0	1	-11,698379	274,252785	309,066821	0
15.01.2021	18:43:43	0	0	3,163456	1,28175	280,6668	0,271	85,157	0	1016,74	6,8	9	8,7	1	1	1	1	1	1	1	1	1	0	1	-7,681466	274,102948	312,383314	0
15.01.2021	18:43:44	0	0	3,502398	1,32975	279,8352	0,271	85,141	0	1016,7	6,8	9	8,7	1	1	1	1	1	1	1	1	1	0	1	-9,654686	274,215217	310,93479	0
15.01.2021	18:43:45	0	0	4,632203	1,3185	280,2672	0,275	85,145	0	1016,8	6,8	9	8,7	1	1	1	1	1	1	1	1	1	0	1	-10,359408	274,104441	309,712343	0
15.01.2021	18:43:46	0	0	3,050475	1,28175	283,6008	0,271	85,136	0	1016,64	6,8	9	8,7	1	1	1	1	1	1	1	1	1	0	1	-7,188161	274,11788	312,946365	0
15.01.2021	18:43:47	0	0	3,050475	1,293	283,5324	0,269	85,152	0	1016,7	6,8	9	8,7	1	1	1	1	1	1	1	1	1	0	1	-4,862579	274,12535	315,306844	0
15.01.2021	18:43:48	0	0	3,389417	1,27725	286,254	0,267	85,139	0	1016,78	6,8	9	8,7	1	1	1	1	1	1	1	1	1	0	1	-9,795631	274,134318	310,415692	0
15.01.2021	18:43:49	0	0	2,711534	1,25625	291,816	0,271	85,148	0	1016,64	6,8	8,9	8,7	1	1	1	1	1	1	1	1	1	0	1	-9,44327	274,093995	310,579694	0
15.01.2021	18:43:50	0	0	4,293261	1,1955	286,6464	0,271	85,136	0	1016,7	6,8	8,9	8,7	1	1	1	1	1	1	1	1	1	0	1	-8,879493	274,188213	311,583719	0
15.01.2021	18:43:51	0	0	2,824514	1,19325	287,4636	0,273	85,136	0	1016,72	6,8	8,9	8,7	1	1	1	1	1	1	1	1	1	0	1	-7,258633	274,278374	313,626297	0
15.01.2021	18:43:52	0	0	2,824514	1,27425	292,2732	0,272	85,143	0	1016,54	6,8	9	8,7	1	1	1	1	1	1	1	1	1	0	1	-8,245243	274,180718	312,182933	0
15.01.2021	18:43:53	0	0	4,406242	1,33725	291,8736	0,271	85,127	0	1016,7	6,8	8,9	8,7	1	1	1	1	1	1	1	1	1	0	1	-4,016913	274,088029	315,978186	0
15.01.2021	18:43:54	0	0	3,276417	1,34175	291,8556	0,272	85,14	0	1016,72	6,8	8,9	8,8	1	1	1	1	1	1	1	1	1	0	1	-13,03735	274,225728	307,601287	0
15.01.2021	18:43:55	0	0	3,728359	1,43175	291,9924	0,27	85,131	0	1016,8	6,8	9	8,7	1	1	1	1	1	1	1	1	1	0	1	-12,614517	274,083555	307,35969	0
15.01.2021	18:43:56	0	0	4,519223	1,41975	291,8772	0,275	85,134	0	1016,64	6,8	8,9	8,7	1	1	1	1	1	1	1	1	1	0	1	-5,426357	274,192711	315,057884	0
15.01.2021	18:43:57	0	0	4,519223	1,38825	292,2264	0,273	85,14	0	1016,76	6,8	9	8,7	1	1	1	1	1	1	1	1	1	0	1	-9,936575	274,098471	310,107294	0
15.01.2021	18:43:58	0	0	3,95432	1,365	287,8164	0,271	85,13	0	1016,74	6,8	9	8,7	1	1	1	1	1	1	1	1	1	0	1	-11,134602	274,173227	309,258555	0
15.01.2021	18:43:59	0	0	3,95432	1,386	292,9824	0,274	85,134	0	1016,82	6,8	9	8,7	1	1	1	1	1	1	1	1	1	0	1	-10,42988	274,266328	310,398682	0
15.01.2021	18:44:00	0	0	5,197106	1,38225	300,312	0,269	85,131	0	1016,68	6,8	9	8,7	1	1	1	1	1	1	1	1	1	0	1	-6,553911	274,140298	313,685357	0
15.01.2021	18:44:01	0	0	4,406242	1,34025	289,5768	0,265	85,105	0	1016,7	6,8	9	8,7	1	1	1	1	1	1	1	1	1	0	1	-6,765328	274,092503	313,250669	0
15.01.2021	18:44:02	0	0	3,841316	1,31775	280,2636	0,269	85,123	0	1016,78	6,8	9	8,8	1	1	1	1	1	1	1	1	1	0	1	-4,651163	274,210713	315,917254	0
15.01.2021	18:44:03	0	0	4,745184	1,308	289,2204	0,268	85,116	0	1016,78	6,8	9	8,7	1	1	1	1	1	1	1	1	1	0	1	-9,725159	274,096979	310,311741	0
15.01.2021	18:44:04	0	0	3,95432	1,33725	292,6368	0,275	85,12	0	1016,76	6,8	9	8,7	1	1	1	1	1	1	1	1	1	0	1	-12,121212	274,132823	308,083125	0
15.01.2021	18:44:05	0	0	4,406242	1,33425	284,4288	0,265	85,117	0	1016,38	6,8	9	8,7	1	1	1	1	1	1	1	1	1	0	1	-7,82241	274,264822	312,999109	0
15.01.2021	18:44:06	0	0	3,95432	1,39125	282,4416	0,272	85,116	0	1016,64	6,8	8,9	8,7	1	1	1	1	1	1	1	1	1	0	1	-8,104299	274,092503	311,911698	0
15.01.2021	18:44:07	0	0	2,711517	1,422	282,3984	0,269	85,116	0	1016,7	6,8	9	8,8	1	1	1	1	1	1	1	1	1	0	1	-10,923185	274,138803	309,309095	0
15.01.2021	18:44:08	0	0	3,502398	1,50375	283,176	0,27	85,116	0	1016,76	6,8	8,9	8,7	1	1	1	1	1	1	1	1	1	0	1	-12,262156	274,276867	308,615725	0
15.01.2021	18:44:09	0	0	4,858164	1,53525	290,4228	0,266	85,119	0	1016,58	6,8	9	8,7	1	1	1	1	1	1	1	1	1	0	1	-9,513742	274,204711	311,026606	0
15.01.2021	18:44:10	0	0	2,485572	1,4865	287,748	0,266	85,095	0	1016,9	6,8	9	8,7	1	1	1	1	1	1	1	1	1	0	1	-8,033827	274,27988	312,858152	0
15.01.2021	18:44:11	0	0	3,050475	1,44225	294,4404	0,268	85,108	0	1016,68	6,8	9	8,7	1	1	1	1	1	1	1	1	1	0	1	-1,832276	274,20021	318,687026	0
15.01.2021	18:44:12	0	0	3,728359	1,32825	284,7528	0,273	85,116	0	1016,66	6,8	8,9	8,7	1	1	1	1	1	1	1	1	1	0	1	-5,21494	274,252785	315,55026	0
15.01.2021	18:44:13	0	0	2,937495	1,32525	275,3496	0,27	85,114	0	1016,86	6,8	9	8,7	1	1	1	1	1	1	1	1	1	0	1	-9,44327	274,119373	310,698234	0
15.01.2021	18:44:14	0	0	4,858164	1,3545	279,5328	0,269	85,111	0	1016,72	6,8	9	8,7	1	1	1	1	1	1	1	1	1	0	1	-12,614517	274,257298	308,171798	0
15.01.2021	18:44:15	0	0	4,745184	1,3785	286,8624	0,261	85,105	0	1016,72	6,8	9	8,7	1	1	1	1	1	1	1	1	1	0	1	-11,768851	274,221223	308,848713	0
15.01.2021	18:44:16	0	0	3,050475	1,3455	280,2276	0,269	85,107	0	1016,6	6,8	8,9	8,7	1	1	1	1	1	1	1	1	1	0	1	-12,825934	274,128339	307,357453	0
15.01.2021	18:44:17	0	0	2,824514	1,323	277,6356	0,27	85,114	0	1016,6	6,8	9	8,7	1	1	1	1	1	1	1	1	1	0	1	-9,866103	274,149273	310,415103	0
15.01.2021	18:44:18	0	0	4,406242	1,27725	299,79	0,273	85,1	0	1016,72	6,8	9	8,7	1	1	1	1	1	1	1	1	1	0	1	-10,852713	274,15077	309,435485	0
15.01.2021	18:44:19	0	0	2,711534	1,24575	299,4372	0,266	85,104	0	1016,74	6,8	9	8,7	1	1	1	1	1	1	1	1	1	0	1	-10,782241	274,116386	309,345307	0
15.01.2021	18:44:20	0	0	3,163456	1,19475	306,8028	0,265	85,096	0	1016,76	6,8	9	8,7	1	1	1	1	1	1	1	1	1	0	1	-11,909796	274,123856	308,252647	0
15.01.2021	18:44:21	0	0	3,276436	1,17525	311,4684	0,268	85,105	0	1016,68	6,8	9	8,7	1	1	1	1	1	1	1	1	1	0	1	-6,272023	274,225728	314,366615	0
15.01.2021	18:44:22	0	0	4,406242	1,11975	306,1512	0,271	85,106	0	1016,8	6,8	9	8,7	1	1	1	1	1	1	1	1	1	0	1	-9,302326	274,275361	311,568508	0
15.01.2021	18:44:23	0	0	3,502398	1,07025	305,37	0,265	85,091	0	1016,72	6,8	9	8,7	1	1	1	1	1	1	1	1	1	0	1	-10,077519	274,093995	309,945444	0
15.01.2021	18:44:24	0	0	4,632203	1,07175	315,612	0,27	85,099	0	1016,76	6,8	9	8,7	1	1	1	1	1	1	1	1	1	0	1	-10,782241	274,164241	309,568914	0
15.01.2021	18:44:25	0	0	4,519223	1,02825	311,4288	0,265	85,094	0	1016,64	6,8	9	8,7	1	1	1	1	1	1	1	1	1	0	1	-10,007047	274,152266	310,288143	0
15.01.2021	18:44:26	0	0	4,971145	1,04925	299,8044	0,262	85,095	0	1016,74	6,8	8,9	8,7	1	1	1	1	1	1	1	1	1	0	1	-7,399577	274,270844	313,450118	0
15.01.2021	18:44:27	0	0	2,711534	1,02	301,6368	0,271	85,106	0	1016,66	6,8	9	8,7	1	1	1	1	1	1	1	1	1	0	1	-8,668076	274,207712	311,886305	0
15.01.2021	18:44:28	0	0	4,180281	0,987	307,566	0,264	85,085	0	1016,78	6,8	8,9	8,7	1	1	1	1	1	1	1	1	1	0	1	-10,711769	274,281386	310,187259	0
15.01.2021	18:44:29	0	0	3,163456	0,88575	313,1856	0,266	85,103	0	1016,64	6,8	9	8,7	1	1	1	1	1	1	1	1	1	0	1	-12,614517	274,218219	307,989002	0
15.01.2021	18:44:30	0	0	4,519223	0,8475	313,632	0,263	85,11	0	1016,62	6,8	8,9	8,7	1	1	1	1	1	1	1	1	1	0	1	-7,82241	274,255794	312,956866	0
15.01.2021	18:44:31	0	0	3,502398	0,8595	308,4552	0,268	85,106	0	1016,66	6,8	8,9	8,7	1	1	1	1	1	1	1	1	1	0	1	-14,305849	274,222724	306,318739	0
15.01.2021	18:44:32	0	0	2,824514	0,915	306,9468	0,268	85,11	0	1016,6	6,8	8,9	8,7	1	1	1	1	1	1	1	1	1	0	1	-7,047216	274,137308	313,178077	0
15.01.2021	18:44:33	0	0	2,711534	0,93825	300,8844	0,271	85,103	0	1016,64	6,8	9	8,7	1	1	1	1	1	1	1	1	1	0	1	-11,486963	274,228733	309,165726	0
15.01.2021	18:44:34	0	0	2,824514	0,95775	295,5636	0,266	85,106	0	1016,78	6,8	9	8,7	1	1	1	1	1	1	1	1	1	0	1	-10,852713	274,096979	309,184187	0
15.01.2021	18:44:35	0	0	3,163456	0,93525	302,0832	0,268	85,104	0	1016,8	6,8	9	8,7	1	1	1	1	1	1	1	1	1	0	1	-10,711769	274,255794	310,067507	0
15.01.2021	18:44:36	0	0	3,276436	0,88875	292,7232	0,265	85,105	0	1016,72	6,8	8,9	8,7	1	1	1	1	1	1	1	1	1	0	1	-9,584214	274,224226	311,047398	0
15.01.2021	18:44:37	0	0	3,615378	0,84825	279,1872	0,268	85,096	0	1016,66	6,8	9	8,7	1	1	1	1	1	1	1	1	1	0	1	-10,077519	274,243762	310,645469	0
15.01.2021	18:44:38	0	0	4,406242	0,88275	278,7732	0,262	85,097	0	1016,64	6,8	9	8,7	1	1	1	1	1	1	1	1	1	0	1	-4,792107	274,260308	316,008288	0
15.01.2021	18:44:39	0	0	4,632203	0,82725	281,7648	0,269	85,11	0	1016,82	6,8	9	8,7	1	1	1	1	1	1	1	1	1	0	1	-9,795631	274,15077	310,492567	0
15.01.2021	18:44:40	0	0	3,276436	0,768	269,9424	0,261	85,11	0	1016,58	6,8	9	8,7	1	1	1	1	1	1	1	1	1	0	1	-8,668076	274,088029	311,327023	0
15.01.2021	18:44:41	0	0	4,519223	0,7035	253,188	0,262	85,091	0	1016,66	6,8	9	8,7	1	1	1	1	1	1	1	1	1	0	1	-9,161381	274,176223	311,245781	0
15.01.2021	18:44:42	0	0	4,067276	0,702	255,1212	0,268	85,121	0	1016,8	6,8	9	8,8	1	1	1	1	1	1	1	1	1	0	1	-10,852713	274,266328	309,975849	0
15.01.2021	18:44:43	0	0	3,163456	0,6705	276,4332	0,265	85,103	0	1016,62	6,8	9	8,7	1	1	1	1	1	1	1	1	1	0	1	-11,768851	274,204711	308,771496	0
15.01.2021	18:44:44	0	0	2,824514	0,72975	296,1324	0,27	85,115	0	1016,82	6,8	8,9	8,7	1	1	1	1	1	1	1	1	1	0	1	-7,540521	274,284399	313,372607	0
15.01.2021	18:44:45	0	0	3,615378	0,7425	297,5544	0,265	85,116	0	1016,86	6,8	9	8,7	1	1	1	1	1	1	1	1	1	0	1	-11,41649	274,216718	309,180007	0
15.01.2021	18:44:46	0	0	4,293261	0,7485	287,7336	0,266	85,108	0	1016,78	6,8	9	8,7	1	1	1	1	1	1	1	1	1	0	1	-10,359408	274,255794	310,419868	0
15.01.2021	18:44:47	0	0	2,824514	0,79425	274,6692	0,265	85,109	0	1016,48	6,8	9	8,7	1	1	1	1	1	1	1	1	1	0	1	-6,624383	274,222724	314,000205	0
15.01.2021	18:44:48	0	0	2,824514	0,8085	282,4596	0,271	85,108	0	1016,78	6,8	9	8,7	1	1	1	1	1	1	1	1	1	0	1	-11,698379	274,257298	309,087936	0
15.01.2021	18:44:49	0	0	4,971145	0,831	286,308	0,265	85,097	0	1016,8	6,8	9	8,7	1	1	1	1	1	1	1	1	1	0	1	-6,272023	274,239252	314,429869	0
15.01.2021	18:44:50	0	0	3,163456	0,89175	286,4268	0,269	85,109	0	1016,58	6,8	9	8,7	1	1	1	1	1	1	1	1	1	0	1	-12,121212	274,230235	308,538504	0
15.01.2021	18:44:51	0	0	4,745184	0,94125	282,4308	0,261	85,102	0	1016,66	6,7	9	8,7	1	1	1	1	1	1	1	1	1	0	1	-7,82241	274,088029	312,172689	0
15.01.2021	18:44:52	0	0	4,858164	0,99975	292,986	0,266	85,093	0	1016,8	6,8	9	8,7	1	1	1	1	1	1	1	1	1	0	1	-8,45666	274,234743	312,224141	0
15.01.2021	18:44:53	0	0	3,841339	1,0155	290,0376	0,266	85,115	0	1016,64	6,8	9	8,7	1	1	1	1	1	1	1	1	1	0	1	-10,288936	274,266328	310,539626	0
15.01.2021	18:44:54	0	0	2,598537	1,01775	278,892	0,268	85,114	0	1016,74	6,8	9	8,8	1	1	1	1	1	1	1	1	1	0	1	-10,570825	274,19421	309,920427	0
15.01.2021	18:44:55	0	0	4,519223	1,0275	282,0672	0,265	85,106	0	1016,56	6,8	9	8,7	1	1	1	1	1	1	1	1	1	0	1	-7,892882	274,264822	312,928637	0
15.01.2021	18:44:56	0	0	4,293261	1,0335	285,1884	0,261	85,092	0	1016,6	6,8	9	8,7	1	1	1	1	1	1	1	1	1	0	1	-11,275546	274,23324	309,398226	0
15.01.2021	18:44:57	0	0	4,293261	1,04925	272,0556	0,257	85,093	0	1016,62	6,8	9	8,7	1	1	1	1	1	1	1	1	1	0	1	-7,82241	274,27235	313,03433	0
15.01.2021	18:44:58	0	0	3,389417	1,0965	257,3496	0,268	85,111	0	1016,86	6,8	9	8,7	1	1	1	1	1	1	1	1	1	0	1	-9,090909	274,096979	310,945991	0
15.01.2021	18:44:59	0	0	3,276436	1,13625	264,6612	0,268	85,109	0	1016,7	6,8	9	8,7	1	1	1	1	1	1	1	1	1	0	1	-5,567301	274,116386	314,560247	0
15.01.2021	18:45:00	0	0	3,276436	1,27725	267,7572	0,262	85,103	0	1016,7	6,8	9	8,7	1	1	1	1	1	1	1	1	1	0	1	-5,496829	274,102948	314,567951	0
15.01.2021	18:45:01	0	0	2,711534	1,39125	266,9652	0,265	85,097	0	1016,72	6,8	9	8,7	1	1	1	1	1	1	1	1	1	0	1	-5,003524	274,135813	315,214784	0
15.01.2021	18:45:02	0	0	3,163456	1,54275	282,438	0,258	85,1	0	1016,68	6,8	9	8,7	1	1	1	1	1	1	1	1	1	0	1	-7,540521	274,255794	313,238754	0
15.01.2021	18:45:03	0	0	2,485572	1,61925	276,4836	0,267	85,1	0	1016,72	6,8	9	8,7	1	1	1	1	1	1	1	1	1	0	1	-6,765328	274,20171	313,760989	0
15.01.2021	18:45:04	0	0	4,406242	1,551	285,2676	0,267	85,094	0	1016,68	6,8	8,9	8,7	1	1	1	1	1	1	1	1	1	0	1	-6,553911	274,098471	313,489958	0
15.01.2021	18:45:05	0	0	2,824514	1,4865	303,9372	0,258	85,078	0	1016,62	6,8	9	8,7	1	1	1	1	1	1	1	1	1	0	1	-8,668076	274,138803	311,564204	0
15.01.2021	18:45:06	0	0	4,406242	1,41375	284,8716	0,265	85,11	0	1016,8	6,8	9	8,7	1	1	1	1	1	1	1	1	1	0	1	-13,107822	274,260308	307,692572	0
15.01.2021	18:45:07	0	0	3,841339	1,46025	285,2136	0,265	85,079	0	1016,58	6,7	9	8,7	1	1	1	1	1	1	1	1	1	0	1	-10,218464	274,128339	309,964923	0
15.01.2021	18:45:08	0	0	2,711534	1,4475	277,5672	0,262	85,097	0	1016,8	6,8	9	8,7	1	1	1	1	1	1	1	1	1	0	1	-9,020437	274,231738	311,646307	0
15.01.2021	18:45:09	0	0	3,502398	1,449	283,6296	0,268	85,083	0	1016,64	6,8	9	8,7	1	1	1	1	1	1	1	1	1	0	1	-8,879493	274,114893	311,241079	0
15.01.2021	18:45:10	0	0	4,519223	1,4685	285,912	0,268	85,095	0	1016,9	6,8	9	8,7	1	1	1	1	1	1	1	1	1	0	1	-6,553911	274,098471	313,489958	0
15.01.2021	18:45:11	0	0	2,937495	1,4265	275,4684	0,261	85,087	0	1016,68	6,8	9	8,7	1	1	1	1	1	1	1	1	1	0	1	-9,513742	274,113399	310,599853	0
15.01.2021	18:45:12	0	0	4,519223	1,3635	293,328	0,269	85,095	0	1016,74	6,8	9	8,7	1	1	1	1	1	1	1	1	1	0	1	-12,966878	274,206211	307,580486	0
15.01.2021	18:45:13	0	0	4,406242	1,266	299,826	0,266	85,105	0	1016,6	6,8	8,9	8,7	1	1	1	1	1	1	1	1	1	0	1	-8,738548	274,270844	312,111147	0
15.01.2021	18:45:14	0	0	2,372592	1,15575	276,192	0,266	85,09	0	1016,76	6,8	9	8,7	1	1	1	1	1	1	1	1	1	0	1	-8,033827	274,128339	312,14956	0
15.01.2021	18:45:15	0	0	4,519223	1,16475	286,3728	0,269	85,08	0	1016,66	6,8	9	8,7	1	1	1	1	1	1	1	1	1	0	1	-6,976744	274,096979	313,060156	0
15.01.2021	18:45:16	0	0	2,711534	1,239	293,4108	0,272	85,094	0	1016,7	6,8	9	8,7	1	1	1	1	1	1	1	1	1	0	1	-10,42988	274,152266	309,86531	0
15.01.2021	18:45:17	0	0	2,937495	1,272	284,4756	0,27	85,086	0	1016,64	6,8	9	8,7	1	1	1	1	1	1	1	1	1	0	1	-11,134602	274,080573	308,825681	0
15.01.2021	18:45:18	0	0	2,824514	1,3425	279,8928	0,268	85,093	0	1016,8	6,8	9	8,7	1	1	1	1	1	1	1	1	1	0	1	-10,218464	274,218219	310,385055	0
15.01.2021	18:45:19	0	0	4,858164	1,4265	298,6884	0,27	85,086	0	1016,68	6,8	9	8,7	1	1	1	1	1	1	1	1	1	0	1	-9,725159	274,08952	310,276906	0
15.01.2021	18:45:20	0	0	4,406216	1,56675	281,106	0,262	85,097	0	1016,68	6,8	9	8,8	1	1	1	1	1	1	1	1	1	0	1	-13,248767	274,20321	307,284565	0
15.01.2021	18:45:21	0	0	2,711534	1,725	298,998	0,27	85,104	0	1016,62	6,8	9	8,7	1	1	1	1	1	1	1	1	1	0	1	-9,513742	274,273855	311,350045	0
15.01.2021	18:45:22	0	0	4,632203	1,82625	291,8628	0,27	85,101	0	1016,8	6,8	9	8,7	1	1	1	1	1	1	1	1	1	0	1	-7,892882	274,161246	312,444278	0
15.01.2021	18:45:23	0	0	4,632203	1,8105	282,888	0,263	85,105	0	1016,76	6,8	9	8,7	1	1	1	1	1	1	1	1	1	0	1	-8,738548	274,092503	311,277448	0
15.01.2021	18:45:24	0	0	2,937495	1,7085	276,498	0,266	85,096	0	1016,76	6,8	9	8,7	1	1	1	1	1	1	1	1	1	0	1	-11,486963	274,191211	308,990268	0
15.01.2021	18:45:25	0	0	4,745184	1,56825	286,6464	0,268	85,113	0	1016,68	6,8	8,9	8,7	1	1	1	1	1	1	1	1	1	0	1	-10,007047	274,267833	310,828559	0
15.01.2021	18:45:26	0	0	3,389417	1,48425	287,7984	0,265	85,096	0	1016,66	6,8	9	8,7	1	1	1	1	1	1	1	1	1	0	1	-10,42988	274,132823	309,774457	0
15.01.2021	18:45:27	0	0	3,95432	1,53675	287,3304	0,272	85,114	0	1016,68	6,8	9	8,7	1	1	1	1	1	1	1	1	1	0	1	-9,231853	274,104441	310,839898	0
15.01.2021	18:45:28	0	0	3,954296	1,5885	271,3752	0,27	85,115	0	1016,68	6,8	9	8,8	1	1	1	1	1	1	1	1	1	0	1	-8,315715	274,230235	312,344001	0
15.01.2021	18:45:29	0	0	4,180281	1,6755	283,5936	0,265	85,102	0	1016,54	6,8	9	8,7	1	1	1	1	1	1	1	1	1	0	1	-10,077519	274,108919	310,015151	0
15.01.2021	18:45:30	0	0	4,745184	1,686	278,838	0,275	85,115	0	1016,68	6,8	8,9	8,7	1	1	1	1	1	1	1	1	1	0	1	-7,751938	274,162743	312,592219	0
15.01.2021	18:45:31	0	0	4,632203	1,689	277,6572	0,272	85,097	0	1016,64	6,8	9	8,7	1	1	1	1	1	1	1	1	1	0	1	-10,852713	274,293441	310,102735	0
15.01.2021	18:45:32	0	0	5,084125	1,6935	276,5196	0,273	85,114	0	1016,62	6,8	9	8,7	1	1	1	1	1	1	1	1	1	0	1	-9,866103	274,132823	310,338235	0
15.01.2021	18:45:33	0	0	4,745184	1,707	280,6992	0,277	85,114	0	1016,74	6,8	9	8,7	1	1	1	1	1	1	1	1	1	0	1	-3,030303	274,270844	317,819392	0
15.01.2021	18:45:34	0	0	3,728359	1,67325	288,1692	0,273	85,122	0	1016,72	6,8	9	8,7	1	1	1	1	1	1	1	1	1	0	1	-7,329105	274,213715	313,253351	0
15.01.2021	18:45:35	0	0	4,745184	1,70775	280,998	0,273	85,12	0	1016,72	6,8	9	8,7	1	1	1	1	1	1	1	1	1	0	1	-7,892882	274,27235	312,963858	0
15.01.2021	18:45:36	0	0	4,519223	1,857	277,2036	0,271	85,123	0	1016,7	6,8	9	8,7	1	1	1	1	1	1	1	1	1	0	1	-8,245243	274,180718	312,182933	0
15.01.2021	18:45:37	0	0	2,485572	1,824	286,6968	0,267	85,112	0	1016,68	6,8	9	8,7	1	1	1	1	1	1	1	1	1	0	1	-8,527132	274,242259	312,188824	0
15.01.2021	18:45:38	0	0	2,485572	1,73025	285,2604	0,273	85,113	0	1016,72	6,8	9	8,7	1	1	1	1	1	1	1	1	1	0	1	-10,711769	274,221223	309,905795	0
15.01.2021	18:45:39	0	0	3,502398	1,64325	278,0676	0,275	85,125	0	1016,78	6,8	9	8,7	1	1	1	1	1	1	1	1	1	0	1	-9,372798	274,101456	310,685011	0
15.01.2021	18:45:40	0	0	4,293261	1,5555	279,8964	0,275	85,124	0	1016,66	6,8	9	8,7	1	1	1	1	1	1	1	1	1	0	1	-6,765328	274,162743	313,57883	0
15.01.2021	18:45:41	0	0	4,519223	1,52025	272,8872	0,28	85,188	0	1016,7	6,8	9	8,7	1	1	1	1	1	1	1	1	1	0	1	-9,090909	274,263317	311,723568	0
15.01.2021	18:45:42	0	0	3,050475	1,48425	262,8684	0,275	85,129	0	1016,72	6,8	9	8,7	1	1	1	1	1	1	1	1	1	0	1	-4,439746	274,104441	315,632005	0
15.01.2021	18:45:43	0	0	3,050475	1,5495	275,3856	0,276	85,126	0	1016,68	6,8	8,9	8,7	1	1	1	1	1	1	1	1	1	0	1	-9,513742	274,156756	310,80243	0
15.01.2021	18:45:44	0	0	3,050475	1,5945	280,6452	0,273	85,131	0	1016,8	6,8	8,9	8,7	1	1	1	1	1	1	1	1	1	0	1	-8,949965	274,088029	311,045134	0
15.01.2021	18:45:45	0	0	4,632203	1,69725	270,3168	0,272	85,131	0	1016,62	6,8	9	8,7	1	1	1	1	1	1	1	1	1	0	1	-6,8358	274,17922	313,585371	0
15.01.2021	18:45:46	0	0	3,615378	1,728	269,9208	0,274	85,128	0	1016,72	6,8	9	8,7	1	1	1	1	1	1	1	1	1	0	1	-9,372798	274,147777	310,901417	0
15.01.2021	18:45:47	0	0	4,519223	1,74975	268,1928	0,276	85,134	0	1016,64	6,8	9	8,7	1	1	1	1	1	1	1	1	1	0	1	-10,288936	274,129833	309,901434	0
15.01.2021	18:45:48	0	0	3,502398	1,737	269,6292	0,272	85,137	0	1016,72	6,8	8,9	8,7	1	1	1	1	1	1	1	1	1	0	1	-8,879493	274,095487	311,150439	0
15.01.2021	18:45:49	0	0	4,519223	1,82475	265,3488	0,273	85,136	0	1016,86	6,8	9	8,7	1	1	1	1	1	1	1	1	1	0	1	-8,949965	274,224226	311,681647	0
15.01.2021	18:45:50	0	0	4,0673	1,9275	273,51	0,273	85,134	0	1016,8	6,8	9	8,7	1	1	1	1	1	1	1	1	1	0	1	-9,231853	274,287413	311,695379	0
15.01.2021	18:45:51	0	0	3,389417	2,09175	275,3964	0,265	85,134	0	1016,66	6,8	9	8,7	1	1	1	1	1	1	1	1	1	0	1	-11,627907	274,246769	309,109149	0
15.01.2021	18:45:52	0	0	2,824514	2,06475	284,5008	0,277	85,133	0	1016,76	6,8	9	8,7	1	1	1	1	1	1	1	1	1	0	1	-10,711769	274,248273	310,032322	0
15.01.2021	18:45:53	0	0	4,519223	2,05425	272,5272	0,278	85,127	0	1016,64	6,8	9	8,7	1	1	1	1	1	1	1	1	1	0	1	-7,681466	274,234743	312,999335	0
15.01.2021	18:45:54	0	0	4,0673	2,1405	279,5112	0,273	85,137	0	1016,6	6,8	9	8,7	1	1	1	1	1	1	1	1	1	0	1	-5,285412	274,162743	315,058745	0
15.01.2021	18:45:55	0	0	4,745184	2,1705	274,6548	0,278	85,132	0	1016,66	6,8	9	8,7	1	1	1	1	1	1	1	1	1	0	1	-11,06413	274,270844	309,785565	0
15.01.2021	18:45:56	0	0	3,841339	2,271	284,4288	0,279	85,129	0	1016,84	6,8	9	8,7	1	1	1	1	1	1	1	1	1	0	1	-7,188161	274,15077	313,100037	0
15.01.2021	18:45:57	0	0	2,937495	2,442	285,5484	0,274	85,122	0	1016,52	6,8	8,9	8,7	1	1	1	1	1	1	1	1	1	0	1	-7,329105	274,101456	312,728704	0
15.01.2021	18:45:58	0	0	3,841316	2,5935	297,5292	0,273	85,138	0	1016,72	6,8	8,9	8,8	1	1	1	1	1	1	1	1	1	0	1	-13,460183	274,242259	307,255772	0
15.01.2021	18:45:59	0	0	3,389417	2,61825	278,1072	0,274	85,133	0	1016,8	6,8	9	8,7	1	1	1	1	1	1	1	1	1	0	1	-11,134602	274,168733	309,237551	0
15.01.2021	18:46:00	0	0	4,180281	2,57025	296,8524	0,271	85,129	0	1016,58	6,8	8,9	8,7	1	1	1	1	1	1	1	1	1	0	1	-8,597604	274,111906	311,509016	0
15.01.2021	18:46:01	0	0	4,180281	2,57025	296,8524	0,271	85,129	0	1016,58	6,8	8,9	8,7	1	1	1	1	1	1	1	1	1	0	1	-8,597604	274,111906	311,509016	0
15.01.2021	18:46:02	0	0	3,728359	2,478	294,1056	0,273	85,138	0	1016,68	6,8	9	8,7	1	1	1	1	1	1	1	1	1	0	1	-7,751938	274,126844	312,424467	0
15.01.2021	18:46:03	0	0	3,502398	2,349	288,2196	0,278	85,132	0	1016,68	6,8	9	8,7	1	1	1	1	1	1	1	1	1	0	1	-13,742072	274,159749	306,588092	0
15.01.2021	18:46:04	0	0	3,050457	2,2035	284,796	0,272	85,123	0	1016,68	6,8	9	8,8	1	1	1	1	1	1	1	1	1	0	1	-7,82241	274,113399	312,291185	0
15.01.2021	18:46:05	0	0	4,293261	2,142	288,7992	0,276	85,118	0	1016,6	6,8	9	8,7	1	1	1	1	1	1	1	1	1	0	1	-7,470049	274,219721	313,140492	0
15.01.2021	18:46:06	0	0	4,858135	2,1045	296,4852	0,273	85,139	0	1016,68	6,8	9	8,8	1	1	1	1	1	1	1	1	1	0	1	-10,077519	274,285906	310,842661	0
15.01.2021	18:46:07	0	0	2,03365	1,99275	292,536	0,273	85,136	0	1016,78	6,8	9	8,7	1	1	1	1	1	1	1	1	1	0	1	-7,329105	274,270844	313,52059	0
15.01.2021	18:46:08	0	0	2,824514	1,96875	288,1908	0,28	85,133	0	1016,74	6,8	9	8,7	1	1	1	1	1	1	1	1	1	0	1	-13,530655	274,107427	306,555041	0
15.01.2021	18:46:09	0	0	4,745184	1,9005	290,736	0,277	85,132	0	1016,72	6,8	9	8,7	1	1	1	1	1	1	1	1	1	0	1	-12,684989	274,285906	308,235191	0
15.01.2021	18:46:10	0	0	5,084095	1,8945	285,876	0,279	85,128	0	1016,66	6,8	9	8,8	1	1	1	1	1	1	1	1	1	0	1	-11,486963	274,173227	308,906194	0
15.01.2021	18:46:11	0	0	3,050475	1,9455	293,2884	0,277	85,124	0	1016,62	6,8	9	8,7	1	1	1	1	1	1	1	1	1	0	1	-6,553911	274,114893	313,56666	0
15.01.2021	18:46:12	0	0	3,841339	1,94475	291,942	0,277	85,109	0	1016,74	6,8	9	8,7	1	1	1	1	1	1	1	1	1	0	1	-6,765328	274,116386	313,362221	0
15.01.2021	18:46:13	0	0	4,632203	1,9995	291,15	0,277	85,136	0	1016,72	6,8	9	8,7	1	1	1	1	1	1	1	1	1	0	1	-4,721635	274,255794	316,057641	0
15.01.2021	18:46:14	0	0	4,293261	1,98375	292,2192	0,278	85,123	0	1016,68	6,8	9	8,7	1	1	1	1	1	1	1	1	1	0	1	-10,077519	274,155259	310,231658	0
15.01.2021	18:46:15	0	0	2,372592	1,956	280,6812	0,273	85,116	0	1016,68	6,8	9	8,7	1	1	1	1	1	1	1	1	1	0	1	-9,795631	274,134318	310,415692	0
15.01.2021	18:46:16	0	0	2,598553	2,03925	300,4884	0,276	85,111	0	1016,6	6,8	9	8,7	1	1	1	1	1	1	1	1	1	0	1	-7,188161	274,297964	313,788456	0
15.01.2021	18:46:17	0	0	2,824514	2,0865	305,73	0,277	85,108	0	1016,62	6,8	9	8,7	1	1	1	1	1	1	1	1	1	0	1	-6,272023	274,219721	314,338519	0
15.01.2021	18:46:18	0	0	3,050475	1,9935	303,8004	0,277	85,117	0	1016,7	6,8	9	8,7	1	1	1	1	1	1	1	1	1	0	1	-8,879493	274,290427	312,061847	0
15.01.2021	18:46:19	0	0	4,745184	2,052	297,7992	0,278	85,128	0	1016,7	6,8	9	8,7	1	1	1	1	1	1	1	1	1	0	1	-9,090909	274,224226	311,540703	0
15.01.2021	18:46:20	0	0	2,937495	2,151	296,7588	0,279	85,129	0	1016,58	6,8	9	8,7	1	1	1	1	1	1	1	1	1	0	1	-6,412967	274,137308	313,812327	0
15.01.2021	18:46:21	0	0	3,389397	2,21925	290,79	0,278	85,129	0	1016,62	6,8	9	8,8	1	1	1	1	1	1	1	1	1	0	1	-5,567301	274,165738	314,790853	0
15.01.2021	18:46:22	0	0	3,163456	2,21025	281,3724	0,273	85,131	0	1016,72	6,8	9	8,7	1	1	1	1	1	1	1	1	1	0	1	-7,329105	274,110413	312,77054	0
15.01.2021	18:46:23	0	0	2,711534	2,1195	283,6152	0,275	85,129	0	1016,76	6,8	9	8,7	1	1	1	1	1	1	1	1	1	0	1	-10,077519	274,219721	310,533022	0
15.01.2021	18:46:24	0	0	3,050475	1,986	280,2672	0,28	85,125	0	1016,66	6,8	9	8,7	1	1	1	1	1	1	1	1	1	0	1	-14,164905	274,270844	306,68479	0
15.01.2021	18:46:25	0	0	3,502376	1,95375	285,1704	0,276	85,124	0	1016,7	6,8	9	8,8	1	1	1	1	1	1	1	1	1	0	1	-6,8358	274,186713	313,620403	0
15.01.2021	18:46:26	0	0	2,711534	2,05725	298,6452	0,274	85,128	0	1016,68	6,8	9	8,7	1	1	1	1	1	1	1	1	1	0	1	-11,134602	274,104441	308,93715	0
15.01.2021	18:46:27	0	0	4,632175	2,06325	300,8016	0,277	85,134	0	1016,72	6,8	9	8,8	1	1	1	1	1	1	1	1	1	0	1	-11,839323	274,182217	308,595858	0
15.01.2021	18:46:28	0	0	3,163456	2,09475	291,852	0,276	85,121	0	1016,76	6,8	9	8,7	1	1	1	1	1	1	1	1	1	0	1	-9,866103	274,28892	311,068183	0
15.01.2021	18:46:29	0	0	4,293261	2,0865	295,1316	0,276	85,116	0	1016,72	6,8	9	8,7	1	1	1	1	1	1	1	1	1	0	1	-8,104299	274,263317	312,710178	0
15.01.2021	18:46:30	0	0	3,615378	2,08425	295,1856	0,278	85,128	0	1016,72	6,8	9	8,7	1	1	1	1	1	1	1	1	1	0	1	-7,047216	274,287413	313,880016	0
15.01.2021	18:46:31	0	0	4,406242	2,05425	295,0992	0,283	85,134	0	1016,74	6,8	9	8,7	1	1	1	1	1	1	1	1	1	0	1	-8,315715	274,242259	312,40024	0
15.01.2021	18:46:32	0	0	3,728359	2,1345	289,1808	0,28	85,141	0	1016,8	6,8	9	8,7	1	1	1	1	1	1	1	1	1	0	1	-8,738548	274,183716	311,70364	0
15.01.2021	18:46:33	0	0	2,372592	2,18325	286,308	0,279	85,126	0	1016,52	6,8	9	8,7	1	1	1	1	1	1	1	1	1	0	1	-5,637773	274,28892	315,296513	0
15.01.2021	18:46:34	0	0	3,276436	2,19975	280,9548	0,276	85,124	0	1016,52	6,8	9	8,7	1	1	1	1	1	1	1	1	1	0	1	-10,711769	274,246769	310,025288	0
15.01.2021	18:46:35	0	0	3,95432	2,1915	277,2288	0,28	85,135	0	1016,68	6,8	9	8,7	1	1	1	1	1	1	1	1	1	0	1	-7,188161	274,27988	313,703818	0
15.01.2021	18:46:36	0	0	3,615378	2,19225	278,4096	0,284	85,155	0	1016,56	6,8	9	8,7	1	1	1	1	1	1	1	1	1	0	1	-8,597604	274,237749	312,097257	0
15.01.2021	18:46:37	0	0	4,180281	2,19975	287,7912	0,281	85,122	0	1016,54	6,8	9	8,7	1	1	1	1	1	1	1	1	1	0	1	-4,580691	274,282893	316,325387	0
15.01.2021	18:46:38	0	0	3,050475	2,1975	284,8716	0,282	85,149	0	1016,78	6,8	9	8,7	1	1	1	1	1	1	1	1	1	0	1	-12,473573	274,116386	307,653975	0
15.01.2021	18:46:39	0	0	4,180281	2,193	286,2144	0,278	85,12	0	1016,66	6,8	9	8,7	1	1	1	1	1	1	1	1	1	0	1	-12,332629	274,236246	308,355202	0
15.01.2021	18:46:40	0	0	3,050475	2,2605	288,1404	0,278	85,148	0	1016,5	6,8	9	8,7	1	1	1	1	1	1	1	1	1	0	1	-13,812544	274,105934	306,26618	0
15.01.2021	18:46:41	0	0	4,858164	2,38875	289,5012	0,282	85,159	0	1016,8	6,8	9	8,7	1	1	1	1	1	1	1	1	1	0	1	-14,094433	274,168733	306,27772	0
15.01.2021	18:46:42	0	0	4,0673	2,46675	293,0148	0,284	85,149	0	1016,64	6,8	9	8,7	1	1	1	1	1	1	1	1	1	0	1	-8,949965	274,308521	312,076069	0
15.01.2021	18:46:43	0	0	4,745184	2,48775	297,8892	0,281	85,16	0	1016,8	6,8	8,9	8,7	1	1	1	1	1	1	1	1	1	0	1	-10,359408	274,246769	310,377648	0
15.01.2021	18:46:44	0	0	4,180281	2,4105	291,8628	0,279	85,164	0	1016,7	6,8	9	8,7	1	1	1	1	1	1	1	1	1	0	1	-7,470049	274,266328	313,358513	0
15.01.2021	18:46:45	0	0	4,406242	2,35275	295,6248	0,283	85,144	0	1016,8	6,8	9	8,7	1	1	1	1	1	1	1	1	1	0	1	-9,654686	274,302488	311,343105	0
15.01.2021	18:46:46	0	0	4,858164	2,325	291,456	0,283	85,143	0	1016,74	6,8	9	8,7	1	1	1	1	1	1	1	1	1	0	1	-8,80902	274,227231	311,836642	0
15.01.2021	18:46:47	0	0	4,293261	2,2875	302,8716	0,284	85,156	0	1016,66	6,8	9	8,7	1	1	1	1	1	1	1	1	1	0	1	-7,258633	274,12535	312,910791	0
15.01.2021	18:46:48	0	0	4,858164	2,30625	299,0052	0,283	85,162	0	1016,66	6,8	9	8,7	1	1	1	1	1	1	1	1	1	0	1	-8,315715	274,222724	312,308873	0
15.01.2021	18:46:49	0	0	4,519195	2,35725	305,424	0,281	85,158	0	1016,64	6,8	9	8,8	1	1	1	1	1	1	1	1	1	0	1	-13,601128	274,30098	307,389605	0
15.01.2021	18:46:50	0	0	1,92067	2,3925	303,5484	0,285	85,146	0	1016,78	6,8	9	8,7	1	1	1	1	1	1	1	1	1	0	1	-14,305849	274,218219	306,29767	0
15.01.2021	18:46:51	0	0	3,502398	2,35875	299,808	0,285	85,157	0	1016,48	6,8	9	8,7	1	1	1	1	1	1	1	1	1	0	1	-10,993658	274,293441	309,961791	0
15.01.2021	18:46:52	0	0	3,615378	2,4405	294,0624	0,277	85,144	0	1016,66	6,8	9	8,7	1	1	1	1	1	1	1	1	1	0	1	-7,681466	274,20171	312,844851	0
15.01.2021	18:46:53	0	0	4,632203	2,4285	297,5076	0,281	85,16	0	1016,6	6,8	9	8,7	1	1	1	1	1	1	1	1	1	0	1	-6,483439	274,302488	314,514353	0
15.01.2021	18:46:54	0	0	4,0673	2,24025	283,59	0,285	85,165	0	1016,66	6,8	9	8,7	1	1	1	1	1	1	1	1	1	0	1	-10,993658	274,240755	309,715266	0
15.01.2021	18:46:55	0	0	3,050475	2,1855	297,612	0,279	85,158	0	1016,8	6,8	9	8,7	1	1	1	1	1	1	1	1	1	0	1	-13,319239	274,258803	307,474115	0
15.01.2021	18:46:56	0	0	4,632203	2,193	293,3676	0,285	85,15	0	1016,68	6,8	9	8,7	1	1	1	1	1	1	1	1	1	0	1	-9,654686	274,176223	310,752476	0
15.01.2021	18:46:57	0	0	4,632175	2,1855	292,2588	0,284	85,167	0	1016,7	6,8	9	8,8	1	1	1	1	1	1	1	1	1	0	1	-13,883016	274,252785	306,882184	0
15.01.2021	18:46:58	0	0	2,598553	2,19225	297,972	0,284	85,159	0	1016,62	6,8	9	8,7	1	1	1	1	1	1	1	1	1	0	1	-8,949965	274,249777	311,801162	0
15.01.2021	18:46:59	0	0	2,711534	2,121	286,9416	0,283	85,162	0	1016,62	6,8	9	8,7	1	1	1	1	1	1	1	1	1	0	1	-12,755462	274,153762	307,546722	0
15.01.2021	18:47:00	0	0	4,0673	1,941	295,5528	0,287	85,16	0	1016,66	6,8	9	8,7	1	1	1	1	1	1	1	1	1	0	1	-10,007047	274,31003	311,026049	0
15.01.2021	18:47:01	0	0	4,0673	1,941	295,5528	0,287	85,16	0	1016,66	6,8	9	8,7	1	1	1	1	1	1	1	1	1	0	1	-6,624383	274,261812	314,183052	0
15.01.2021	18:47:02	0	0	3,615378	1,8465	286,6284	0,283	85,164	0	1016,74	6,8	9	8,7	1	1	1	1	1	1	1	1	1	0	1	-10,500352	274,269338	310,342298	0
15.01.2021	18:47:03	0	0	2,937495	1,7685	287,0568	0,287	85,165	0	1016,68	6,8	9	8,7	1	1	1	1	1	1	1	1	1	0	1	-11,486963	274,126844	308,689442	0
15.01.2021	18:47:04	0	0	3,95432	1,7685	282,9312	0,288	85,162	0	1016,74	6,8	9	8,7	1	1	1	1	1	1	1	1	1	0	1	-7,399577	274,248273	313,344514	0
15.01.2021	18:47:05	0	0	4,632203	1,78575	298,7028	0,288	85,173	0	1016,72	6,8	9	8,7	1	1	1	1	1	1	1	1	1	0	1	-10,641297	274,296456	310,328263	0
15.01.2021	18:47:06	0	0	4,0673	1,81575	293,436	0,276	85,162	0	1016,68	6,8	9	8,7	1	1	1	1	1	1	1	1	1	0	1	-9,584214	274,19571	310,914049	0
15.01.2021	18:47:07	0	0	4,406242	1,76475	296,1324	0,286	85,163	0	1016,74	6,8	9	8,7	1	1	1	1	1	1	1	1	1	0	1	-5,003524	274,296456	315,966037	0
15.01.2021	18:47:08	0	0	4,293261	1,74525	301,644	0,288	85,16	0	1016,5	6,8	8,9	8,7	1	1	1	1	1	1	1	1	1	0	1	-11,980268	274,188213	308,482944	0
15.01.2021	18:47:09	0	0	2,711534	1,76925	312,5484	0,283	85,158	0	1016,7	6,8	9	8,7	1	1	1	1	1	1	1	1	1	0	1	-10,288936	274,311538	310,751223	0
15.01.2021	18:47:10	0	0	4,858164	1,73325	307,2384	0,279	85,158	0	1016,68	6,8	9	8,7	1	1	1	1	1	1	1	1	1	0	1	-14,376321	274,236246	306,311509	0
15.01.2021	18:47:11	0	0	4,632203	1,74	302,472	0,286	85,152	0	1016,68	6,8	9	8,7	1	1	1	1	1	1	1	1	1	0	1	-12,191684	274,308521	308,83435	0
15.01.2021	18:47:12	0	0	4,745184	1,656	289,206	0,286	85,154	0	1016,6	6,8	9	8,7	1	1	1	1	1	1	1	1	1	0	1	-8,315715	274,17922	312,105455	0
15.01.2021	18:47:13	0	0	3,95432	1,7085	290,1132	0,291	85,159	0	1016,6	6,8	9	8,7	1	1	1	1	1	1	1	1	1	0	1	-4,651163	274,299472	316,332512	0
15.01.2021	18:47:14	0	0	4,293261	1,82775	290,0844	0,286	85,147	0	1016,52	6,8	9	8,7	1	1	1	1	1	1	1	1	1	0	1	-6,906272	274,216718	313,690225	0
15.01.2021	18:47:15	0	0	2,598553	1,79325	275,4108	0,287	85,168	0	1016,58	6,8	9	8,7	1	1	1	1	1	1	1	1	1	0	1	-5,003524	274,296456	315,966037	0
15.01.2021	18:47:16	0	0	2,711534	1,70325	282,4884	0,287	85,153	0	1016,76	6,8	9	8,7	1	1	1	1	1	1	1	1	1	0	1	-10,359408	274,174725	310,040751	0
15.01.2021	18:47:17	0	0	3,841339	1,557	270,9936	0,292	85,162	0	1016,76	6,8	9	8,7	1	1	1	1	1	1	1	1	1	0	1	-7,610994	274,317575	313,457424	0
15.01.2021	18:47:18	0	0	4,519223	1,46325	273,492	0,286	85,151	0	1016,64	6,8	9	8,7	1	1	1	1	1	1	1	1	1	0	1	-15,292459	274,165738	305,065694	0
15.01.2021	18:47:19	0	0	5,084125	1,36875	281,7936	0,283	85,151	0	1016,56	6,8	9	8,7	1	1	1	1	1	1	1	1	1	0	1	-8,315715	274,284399	312,597414	0
15.01.2021	18:47:20	0	0	3,728359	1,35	273,2148	0,284	85,162	0	1016,76	6,8	9	8,7	1	1	1	1	1	1	1	1	1	0	1	-8,245243	274,323613	312,851444	0
15.01.2021	18:47:21	0	0	5,197106	1,38675	281,394	0,279	85,154	0	1016,64	6,8	9	8,7	1	1	1	1	1	1	1	1	1	0	1	-6,8358	274,230235	313,823916	0
15.01.2021	18:47:22	0	0	2,824514	1,491	281,4156	0,287	85,139	0	1016,7	6,8	9	8,7	1	1	1	1	1	1	1	1	1	0	1	-9,795631	274,302488	311,202161	0
15.01.2021	18:47:23	0	0	2,598553	1,72275	270,0792	0,29	85,149	0	1016,68	6,8	9	8,7	1	1	1	1	1	1	1	1	1	0	1	-13,248767	274,303996	307,756085	0
15.01.2021	18:47:24	0	0	4,406242	1,77	286,9596	0,29	85,162	0	1016,84	6,8	9	8,7	1	1	1	1	1	1	1	1	1	0	1	-10,711769	274,278374	310,173161	0
15.01.2021	18:47:25	0	0	4,180281	1,7805	270,594	0,286	85,169	0	1016,62	6,8	9	8,7	1	1	1	1	1	1	1	1	1	0	1	-10,359408	274,329652	310,765558	0
15.01.2021	18:47:26	0	0	4,971145	1,70775	281,0916	0,288	85,145	0	1016,72	6,8	9	8,7	1	1	1	1	1	1	1	1	1	0	1	-9,936575	274,252785	310,828625	0
15.01.2021	18:47:27	0	0	2,598553	1,62225	294,84	0,292	85,163	0	1016,78	6,8	9	8,7	1	1	1	1	1	1	1	1	1	0	1	-6,765328	274,156756	313,550845	0
15.01.2021	18:47:28	0	0	4,971115	1,62525	284,508	0,281	85,146	0	1016,74	6,8	9	8,8	1	1	1	1	1	1	1	1	1	0	1	-10,218464	274,276867	310,659417	0
15.01.2021	18:47:29	0	0	2,711534	1,74	299,7504	0,289	85,144	0	1016,76	6,8	9	8,7	1	1	1	1	1	1	1	1	1	0	1	-9,020437	274,320593	312,062114	0
15.01.2021	18:47:30	0	0	3,841339	1,80975	309,8664	0,284	85,13	0	1016,66	6,8	9	8,7	1	1	1	1	1	1	1	1	1	0	1	-8,104299	274,19571	312,393965	0
15.01.2021	18:47:31	0	0	2,598553	1,8555	309,5856	0,285	85,14	0	1016,7	6,8	9	8,7	1	1	1	1	1	1	1	1	1	0	1	-13,178295	274,141794	307,067961	0
15.01.2021	18:47:32	0	0	4,406242	1,8105	302,7564	0,284	85,145	0	1016,66	6,8	9	8,7	1	1	1	1	1	1	1	1	1	0	1	-9,866103	274,275361	311,004731	0
15.01.2021	18:47:33	0	0	3,502398	1,7925	302,796	0,291	85,125	0	1016,82	6,8	9	8,7	1	1	1	1	1	1	1	1	1	0	1	-10,923185	274,149273	309,358021	0
15.01.2021	18:47:34	0	0	3,389417	1,79775	289,1988	0,286	85,115	0	1016,6	6,8	9	8,7	1	1	1	1	1	1	1	1	1	0	1	-8,879493	274,15077	311,408705	0
15.01.2021	18:47:35	0	0	3,615356	1,76025	291,8844	0,288	85,125	0	1016,68	6,8	9	8,8	1	1	1	1	1	1	1	1	1	0	1	-10,570825	274,161246	309,766336	0
15.01.2021	18:47:36	0	0	3,841339	1,69575	295,1928	0,283	85,129	0	1016,54	6,8	9	8,7	1	1	1	1	1	1	1	1	1	0	1	-11,698379	274,320593	309,384172	0
15.01.2021	18:47:37	0	0	3,163456	1,64325	303,9084	0,289	85,159	0	1016,78	6,8	9	8,7	1	1	1	1	1	1	1	1	1	0	1	-9,231853	274,231738	311,43489	0
15.01.2021	18:47:38	0	0	2,824514	1,66875	300,2292	0,282	85,128	0	1016,72	6,8	9	8,7	1	1	1	1	1	1	1	1	1	0	1	-8,738548	274,147777	311,535666	0
15.01.2021	18:47:39	0	0	4,406216	1,716	278,7372	0,29	85,133	0	1016,8	6,8	9	8,8	1	1	1	1	1	1	1	1	1	0	1	-14,305849	274,270844	306,543846	0
15.01.2021	18:47:40	0	0	4,406242	1,82325	292,5792	0,287	85,122	0	1016,52	6,8	9	8,7	1	1	1	1	1	1	1	1	1	0	1	-8,245243	274,308521	312,780791	0
15.01.2021	18:47:41	0	0	3,276436	1,8915	280,2492	0,284	85,115	0	1016,62	6,8	9	8,7	1	1	1	1	1	1	1	1	1	0	1	-10,218464	274,180718	310,209712	0
15.01.2021	18:47:42	0	0	2,937495	1,8105	288,4176	0,292	85,138	0	1016,72	6,8	9	8,7	1	1	1	1	1	1	1	1	1	0	1	-6,20155	274,28892	314,732735	0
15.01.2021	18:47:43	0	0	4,180281	1,7145	294,8256	0,291	85,112	0	1016,78	6,8	9	8,7	1	1	1	1	1	1	1	1	1	0	1	-9,090909	274,113399	311,022686	0
15.01.2021	18:47:44	0	0	2,937477	1,71675	282,4092	0,284	85,126	0	1016,84	6,8	9	8,8	1	1	1	1	1	1	1	1	1	0	1	-7,399577	274,20021	313,119725	0
15.01.2021	18:47:45	0	0	4,745184	1,7055	298,3572	0,295	85,127	0	1016,76	6,8	9	8,7	1	1	1	1	1	1	1	1	1	0	1	-9,584214	274,290427	311,357125	0
15.01.2021	18:47:46	0	0	4,858135	1,644	291,1716	0,291	85,133	0	1016,68	6,8	9	8,8	1	1	1	1	1	1	1	1	1	0	1	-4,862579	274,293441	316,092869	0
15.01.2021	18:47:47	0	0	4,745184	1,6005	278,8812	0,292	85,115	0	1016,72	6,8	9	8,7	1	1	1	1	1	1	1	1	1	0	1	-9,513742	274,14329	310,739503	0
15.01.2021	18:47:48	0	0	4,293261	1,65075	304,938	0,287	85,11	0	1016,56	6,8	9	8,7	1	1	1	1	1	1	1	1	1	0	1	-8,033827	274,264822	312,787693	0
15.01.2021	18:47:49	0	0	2,824514	1,7355	290,0088	0,292	85,124	0	1016,84	6,8	9	8,7	1	1	1	1	1	1	1	1	1	0	1	-10,570825	274,313047	310,476398	0
15.01.2021	18:47:50	0	0	3,728359	1,938	284,0868	0,287	85,12	0	1016,72	6,8	9	8,7	1	1	1	1	1	1	1	1	1	0	1	-5,637773	274,236246	315,050057	0
15.01.2021	18:47:51	0	0	3,615378	2,02125	304,6572	0,291	85,124	0	1016,76	6,8	9	8,7	1	1	1	1	1	1	1	1	1	0	1	-10,641297	274,317575	310,427121	0
15.01.2021	18:47:52	0	0	3,615356	2,13	297,2376	0,284	85,104	0	1016,64	6,8	9	8,8	1	1	1	1	1	1	1	1	1	0	1	-8,174771	274,251281	312,583392	0
15.01.2021	18:47:53	0	0	2,711534	2,136	293,4	0,292	85,113	0	1016,64	6,8	8,9	8,7	1	1	1	1	1	1	1	1	1	0	1	-8,80902	274,307013	312,209952	0
15.01.2021	18:47:54	0	0	4,519223	2,1045	293,0472	0,288	85,118	0	1016,76	6,8	9	8,7	1	1	1	1	1	1	1	1	1	0	1	-6,906272	274,28892	314,028014	0
15.01.2021	18:47:55	0	0	2,937495	2,0895	291,2292	0,285	85,112	0	1016,74	6,8	9	8,7	1	1	1	1	1	1	1	1	1	0	1	-7,681466	274,278374	313,203464	0
15.01.2021	18:47:56	0	0	4,858164	2,25525	297,9324	0,286	85,083	0	1016,62	6,8	9	8,7	1	1	1	1	1	1	1	1	1	0	1	-6,624383	274,260308	314,176011	0
15.01.2021	18:47:57	0	0	2,937477	2,30025	290,0772	0,291	85,11	0	1016,56	6,8	9	8,8	1	1	1	1	1	1	1	1	1	0	1	-10,993658	274,296456	309,975903	0
15.01.2021	18:47:58	0	0	4,293261	2,23575	294,8004	0,29	85,096	0	1016,66	6,8	9	8,7	1	1	1	1	1	1	1	1	1	0	1	-9,584214	274,278374	311,300715	0
15.01.2021	18:47:59	0	0	3,276436	2,23275	290,826	0,292	85,104	0	1016,74	6,8	9	8,7	1	1	1	1	1	1	1	1	1	0	1	-9,090909	274,302488	311,906883	0
15.01.2021	18:48:00	0	0	4,067276	2,2095	291,51	0,292	85,099	0	1016,72	6,8	9	8,8	1	1	1	1	1	1	1	1	1	0	1	-9,302326	274,237749	311,392535	0
15.01.2021	18:48:01	0	0	4,067276	2,2095	291,51	0,292	85,099	0	1016,72	6,8	9	8,8	1	1	1	1	1	1	1	1	1	0	1	-10,007047	274,322103	311,082571	0
15.01.2021	18:48:02	0	0	3,163456	2,19225	294,4188	0,289	85,095	0	1016,72	6,8	9	8,7	1	1	1	1	1	1	1	1	1	0	1	-5,426357	274,290427	315,514983	0
15.01.2021	18:48:03	0	0	2,824497	2,17725	290,484	0,285	85,1	0	1016,56	6,8	9	8,8	1	1	1	1	1	1	1	1	1	0	1	-10,852713	274,156756	309,463459	0
15.01.2021	18:48:04	0	0	2,259611	2,24325	284,8644	0,292	85,102	0	1016,8	6,8	9	8,7	1	1	1	1	1	1	1	1	1	0	1	-9,161381	274,185214	311,287814	0
15.01.2021	18:48:05	0	0	2,598553	2,256	280,998	0,288	85,09	0	1016,76	6,8	9	8,7	1	1	1	1	1	1	1	1	1	0	1	-10,218464	274,132823	309,985874	0
15.01.2021	18:48:06	0	0	4,180281	2,1735	283,158	0,293	85,096	0	1016,7	6,8	9	8,7	1	1	1	1	1	1	1	1	1	0	1	-8,386187	274,17922	312,034983	0
15.01.2021	18:48:07	0	0	3,95432	2,0325	284,0616	0,288	85,097	0	1016,74	6,8	9	8,7	1	1	1	1	1	1	1	1	1	0	1	-9,725159	274,159749	310,605005	0
15.01.2021	18:48:08	0	0	2,824497	1,896	279,8604	0,293	85,088	0	1016,64	6,8	9	8,8	1	1	1	1	1	1	1	1	1	0	1	-8,668076	274,15077	311,620122	0
15.01.2021	18:48:09	0	0	4,745184	1,74675	273,4308	0,295	85,09	0	1016,76	6,8	9	8,7	1	1	1	1	1	1	1	1	1	0	1	-7,610994	274,325122	313,492762	0
15.01.2021	18:48:10	0	0	5,197106	1,731	269,5356	0,29	85,085	0	1016,78	6,8	9	8,7	1	1	1	1	1	1	1	1	1	0	1	-10,218464	274,281386	310,680564	0
15.01.2021	18:48:11	0	0	4,632203	1,728	286,3044	0,286	85,071	0	1016,56	6,8	9	8,7	1	1	1	1	1	1	1	1	1	0	1	-11,205074	274,19721	309,300202	0
15.01.2021	18:48:12	0	0	3,502376	1,839	269,604	0,293	85,097	0	1016,68	6,8	9	8,8	1	1	1	1	1	1	1	1	1	0	1	-7,117689	274,311538	313,922471	0
15.01.2021	18:48:13	0	0	4,858164	1,92075	257,7276	0,292	85,088	0	1016,64	6,8	9	8,7	1	1	1	1	1	1	1	1	1	0	1	-16,208598	274,246769	304,528459	0
15.01.2021	18:48:14	0	0	4,745184	1,93575	262,1232	0,288	85,071	0	1016,66	6,8	9	8,7	1	1	1	1	1	1	1	1	1	0	1	-9,795631	274,14329	310,457614	0
15.01.2021	18:48:15	0	0	2,711534	1,92	258,048	0,29	85,082	0	1016,62	6,8	9	8,7	1	1	1	1	1	1	1	1	1	0	1	-8,80902	274,225728	311,829617	0
15.01.2021	18:48:16	0	0	4,858164	1,8795	270,972	0,29	85,08	0	1016,58	6,8	9	8,7	1	1	1	1	1	1	1	1	1	0	1	-7,82241	274,332673	313,3167	0
15.01.2021	18:48:17	0	0	4,632203	1,9425	264,6648	0,287	85,088	0	1016,74	6,8	9	8,7	1	1	1	1	1	1	1	1	1	0	1	-5,21494	274,188213	315,248271	0
15.01.2021	18:48:18	0	0	2,937495	2,01375	272,4336	0,291	85,081	0	1016,46	6,8	9	8,7	1	1	1	1	1	1	1	1	1	0	1	-5,990134	274,305504	315,021778	0
15.01.2021	18:48:19	0	0	2,937495	2,1165	275,382	0,291	85,09	0	1016,76	6,8	9	8,7	1	1	1	1	1	1	1	1	1	0	1	-4,22833	274,155259	316,080848	0
15.01.2021	18:48:20	0	0	2,372592	2,112	274,7124	0,285	85,08	0	1016,72	6,8	9	8,7	1	1	1	1	1	1	1	1	1	0	1	-6,8358	274,270844	314,013895	0
15.01.2021	18:48:21	0	0	2,937495	2,04525	274,2768	0,288	85,07	0	1016,62	6,8	9	8,7	1	1	1	1	1	1	1	1	1	0	1	-10,218464	274,165738	310,13969	0
15.01.2021	18:48:22	0	0	2,485558	2,03175	278,532	0,29	85,078	0	1016,7	6,8	9	8,8	1	1	1	1	1	1	1	1	1	0	1	-8,315715	274,237749	312,379146	0
15.01.2021	18:48:23	0	0	4,858135	2,06475	284,8212	0,29	85,088	0	1016,58	6,8	9	8,8	1	1	1	1	1	1	1	1	1	0	1	-6,906272	274,322103	314,183346	0
15.01.2021	18:48:24	0	0	3,276436	2,02125	270,3024	0,291	85,075	0	1016,66	6,8	9	8,7	1	1	1	1	1	1	1	1	1	0	1	-12,262156	274,174725	308,138003	0
15.01.2021	18:48:25	0	0	3,954296	1,872	282,8196	0,292	85,082	0	1016,8	6,8	9	8,8	1	1	1	1	1	1	1	1	1	0	1	-6,483439	274,158252	313,839729	0
15.01.2021	18:48:26	0	0	3,728359	1,7205	281,4444	0,288	85,072	0	1016,72	6,8	9	8,7	1	1	1	1	1	1	1	1	1	0	1	-9,513742	274,258803	311,279612	0
15.01.2021	18:48:27	0	0	4,858164	1,53975	278,4132	0,288	85,079	0	1016,7	6,8	9	8,7	1	1	1	1	1	1	1	1	1	0	1	-10,923185	274,278374	309,961744	0
15.01.2021	18:48:28	0	0	4,632175	1,4655	285,21	0,293	85,073	0	1016,76	6,8	9	8,8	1	1	1	1	1	1	1	1	1	0	1	-9,44327	274,14329	310,809975	0
15.01.2021	18:48:29	0	0	4,406216	1,383	283,2588	0,285	85,068	0	1016,54	6,8	9	8,8	1	1	1	1	1	1	1	1	1	0	1	-8,668076	274,230235	311,99164	0
15.01.2021	18:48:30	0	0	2,937495	1,374	266,2452	0,29	85,067	0	1016,56	6,8	9	8,7	1	1	1	1	1	1	1	1	1	0	1	-8,104299	274,313047	312,942924	0
15.01.2021	18:48:31	0	0	4,971115	1,359	277,2144	0,289	85,077	0	1016,6	6,8	9	8,8	1	1	1	1	1	1	1	1	1	0	1	-6,272023	274,192711	314,212218	0
15.01.2021	18:48:32	0	0	3,615356	1,43625	273,5496	0,29	85,071	0	1016,7	6,8	9	8,8	1	1	1	1	1	1	1	1	1	0	1	-7,047216	274,329652	314,07775	0
15.01.2021	18:48:33	0	0	3,728336	1,5675	287,4096	0,292	85,085	0	1016,7	6,8	9	8,8	1	1	1	1	1	1	1	1	1	0	1	-11,768851	274,319084	309,306633	0
15.01.2021	18:48:34	0	0	3,163437	1,692	286,6212	0,283	85,07	0	1016,6	6,8	9	8,8	1	1	1	1	1	1	1	1	1	0	1	-4,157858	274,162743	316,1863	0
15.01.2021	18:48:35	0	0	3,276436	1,7415	269,9136	0,29	85,076	0	1016,66	6,8	9	8,7	1	1	1	1	1	1	1	1	1	0	1	-6,412967	274,140298	313,826301	0
15.01.2021	18:48:36	0	0	2,711517	1,8315	274,302	0,288	85,078	0	1016,76	6,8	9	8,8	1	1	1	1	1	1	1	1	1	0	1	-11,134602	274,257298	309,651713	0
15.01.2021	18:48:37	0	0	2,372592	1,8225	279,1728	0,287	85,087	0	1016,62	6,8	9	8,7	1	1	1	1	1	1	1	1	1	0	1	-7,470049	274,138803	312,762231	0
15.01.2021	18:48:38	0	0	3,389417	1,8255	291,9168	0,287	85,085	0	1016,62	6,8	9	8,7	1	1	1	1	1	1	1	1	1	0	1	-6,8358	274,294949	314,126704	0
15.01.2021	18:48:39	0	0	3,615378	1,93575	291,2112	0,287	85,08	0	1016,68	6,8	9	8,7	1	1	1	1	1	1	1	1	1	0	1	-12,755462	274,282893	308,150617	0
15.01.2021	18:48:40	0	0	3,389397	2,01825	291,2508	0,288	85,067	0	1016,58	6,8	9	8,8	1	1	1	1	1	1	1	1	1	0	1	-10,500352	274,27988	310,391626	0
15.01.2021	18:48:41	0	0	4,180281	2,076	285,2244	0,287	85,063	0	1016,64	6,8	9	8,7	1	1	1	1	1	1	1	1	1	0	1	-4,792107	274,307013	316,226865	0
15.01.2021	18:48:42	0	0	2,598553	2,06925	278,8236	0,285	85,072	0	1016,36	6,8	9	8,7	1	1	1	1	1	1	1	1	1	0	1	-7,82241	274,19871	312,689879	0
15.01.2021	18:48:43	0	0	2,824514	2,08725	283,644	0,289	85,089	0	1016,62	6,8	9	8,7	1	1	1	1	1	1	1	1	1	0	1	-6,131078	274,323613	314,965608	0
15.01.2021	18:48:44	0	0	4,180256	2,07375	286,6824	0,29	85,076	0	1016,68	6,8	9	8,8	1	1	1	1	1	1	1	1	1	0	1	-10,288936	274,192711	310,195305	0
15.01.2021	18:48:45	0	0	3,389417	2,11125	275,382	0,29	85,084	0	1016,86	6,8	9	8,7	1	1	1	1	1	1	1	1	1	0	1	-7,188161	274,311538	313,851999	0
15.01.2021	18:48:46	0	0	4,293261	2,166	283,626	0,289	85,083	0	1016,68	6,8	9	8,7	1	1	1	1	1	1	1	1	1	0	1	-8,527132	274,248273	312,21696	0
15.01.2021	18:48:47	0	0	2,485558	2,196	286,6968	0,289	85,079	0	1016,76	6,8	9	8,8	1	1	1	1	1	1	1	1	1	0	1	-8,245243	274,138803	311,987037	0
15.01.2021	18:48:48	0	0	3,841339	2,19075	299,0808	0,286	85,075	0	1016,56	6,8	9	8,7	1	1	1	1	1	1	1	1	1	0	1	-5,567301	274,206211	314,980063	0
15.01.2021	18:48:49	0	0	3,389417	2,1045	278,0928	0,29	85,063	0	1016,82	7,1	9	8,7	1	1	1	1	1	1	1	1	1	0	1	-14,376321	274,323613	306,720365	0
15.01.2021	18:48:50	0	0	4,519223	1,9875	290,4516	0,289	85,078	0	1016,74	6,8	9	8,7	1	1	1	1	1	1	1	1	1	0	1	-8,45666	274,267833	312,378946	0
15.01.2021	18:48:51	0	0	3,163456	1,893	281,5272	0,289	85,078	0	1016,62	6,8	9	8,7	1	1	1	1	1	1	1	1	1	0	1	-7,329105	274,158252	312,994063	0
15.01.2021	18:48:52	0	0	2,711517	1,689	294,0876	0,292	85,067	0	1016,68	6,8	9	8,8	1	1	1	1	1	1	1	1	1	0	1	-10,359408	274,147777	309,914807	0
15.01.2021	18:48:53	0	0	3,050475	1,64625	286,668	0,292	85,077	0	1016,78	6,8	9	8,7	1	1	1	1	1	1	1	1	1	0	1	-6,906272	274,20021	313,613031	0
15.01.2021	18:48:54	0	0	4,519223	1,5975	279,5148	0,292	85,075	0	1016,74	6,8	9	8,7	1	1	1	1	1	1	1	1	1	0	1	-9,654686	274,281386	311,244341	0
15.01.2021	18:48:55	0	0	4,293261	1,584	267,4512	0,29	85,067	0	1016,6	6,8	9	8,7	1	1	1	1	1	1	1	1	1	0	1	-5,778717	274,20171	314,7476	0
15.01.2021	18:48:56	0	0	3,502376	1,6155	299,034	0,287	85,064	0	1016,7	6,8	9	8,8	1	1	1	1	1	1	1	1	1	0	1	-3,875969	274,15077	316,412229	0
15.01.2021	18:48:57	0	0	4,632203	1,6545	282,4524	0,291	85,063	0	1016,64	6,8	9	8,7	1	1	1	1	1	1	1	1	1	0	1	-7,329105	274,183716	313,113083	0
15.01.2021	18:48:58	0	0	3,728336	1,76475	285,9876	0,283	85,065	0	1016,64	6,8	9	8,8	1	1	1	1	1	1	1	1	1	0	1	-6,765328	274,261812	314,042108	0
15.01.2021	18:48:59	0	0	4,519223	1,88775	287,7804	0,291	85,065	0	1016,68	6,8	9	8,7	1	1	1	1	1	1	1	1	1	0	1	-8,104299	274,141794	312,141957	0
15.01.2021	18:49:00	0	0	3,95432	1,9995	292,5756	0,292	85,05	0	1016,74	6,8	9	8,7	1	1	1	1	1	1	1	1	1	0	1	-6,553911	274,27988	314,338067	0
15.01.2021	18:49:01	0	0	3,050475	2,17275	297,1944	0,287	85,054	0	1016,68	7,1	9	8,7	1	1	1	1	1	1	1	1	1	0	1	-10,570825	274,188213	309,892387	0
15.01.2021	18:49:02	0	0	2,485572	2,26875	300,9024	0,286	85,042	0	1016,56	6,8	9	8,7	1	1	1	1	1	1	1	1	1	0	1	-11,205074	274,158252	309,118094	0
15.01.2021	18:49:03	0	0	4,858135	2,23575	301,1976	0,289	85,046	0	1016,68	6,8	9	8,8	1	1	1	1	1	1	1	1	1	0	1	-10,923185	274,264822	309,898334	0
15.01.2021	18:49:04	0	0	2,598553	2,16225	294,084	0,285	85,055	0	1016,66	6,8	9	8,7	1	1	1	1	1	1	1	1	1	0	1	-8,245243	274,156756	312,070929	0
15.01.2021	18:49:05	0	0	4,632203	2,10675	297,2304	0,287	85,049	0	1016,66	6,8	9	8,7	1	1	1	1	1	1	1	1	1	0	1	-9,090909	274,14329	311,162335	0
15.01.2021	18:49:06	0	0	4,406216	2,07375	297,6012	0,292	85,07	0	1016,68	6,8	9	8,8	1	1	1	1	1	1	1	1	1	0	1	-9,725159	274,273855	311,138628	0
15.01.2021	18:49:07	0	0	3,389417	1,98075	297,216	0,291	85,048	0	1016,52	6,8	9	8,7	1	1	1	1	1	1	1	1	1	0	1	-12,966878	274,275361	307,903956	0
15.01.2021	18:49:08	0	0	4,406242	1,95225	300,8232	0,29	85,06	0	1016,76	6,8	9	8,7	1	1	1	1	1	1	1	1	1	0	1	-4,651163	274,326632	316,459662	0
15.01.2021	18:49:09	0	0	4,745184	1,872	281,0916	0,29	85,052	0	1016,64	6,8	9	8,7	1	1	1	1	1	1	1	1	1	0	1	-6,976744	274,27988	313,915234	0
15.01.2021	18:49:10	0	0	3,389417	1,851	289,5768	0,285	85,044	0	1016,52	6,8	9	8,7	1	1	1	1	1	1	1	1	1	0	1	-10,993658	274,19721	309,511618	0
15.01.2021	18:49:11	0	0	2,824514	1,806	278,8524	0,283	85,047	0	1016,54	6,8	9	8,7	1	1	1	1	1	1	1	1	1	0	1	-12,121212	274,303996	308,883639	0
15.01.2021	18:49:12	0	0	4,180281	1,86825	282,4776	0,29	85,054	0	1016,56	6,8	9	8,7	1	1	1	1	1	1	1	1	1	0	1	-9,725159	274,182217	310,710023	0
15.01.2021	18:49:13	0	0	4,293236	2,02875	282,8376	0,285	85,048	0	1016,6	6,8	9	8,8	1	1	1	1	1	1	1	1	1	0	1	-12,262156	274,308521	308,763878	0
15.01.2021	18:49:14	0	0	4,180281	2,145	282,456	0,285	85,053	0	1016,7	6,8	9	8,7	1	1	1	1	1	1	1	1	1	0	1	-4,792107	274,305504	316,219804	0
15.01.2021	18:49:15	0	0	2,711517	2,18175	281,394	0,285	85,044	0	1016,6	6,8	9	8,8	1	1	1	1	1	1	1	1	1	0	1	-7,540521	274,231738	313,126222	0
15.01.2021	18:49:16	0	0	3,841339	2,1135	293,4432	0,291	85,057	0	1016,62	6,8	9	8,7	1	1	1	1	1	1	1	1	1	0	1	-8,949965	274,144785	311,310269	0
15.01.2021	18:49:17	0	0	3,050457	2,10375	280,6776	0,28	85,049	0	1016,52	6,8	9	8,8	1	1	1	1	1	1	1	1	1	0	1	-6,694856	274,23324	313,978916	0
15.01.2021	18:49:18	0	0	3,728336	2,06925	278,4996	0,283	85,043	0	1016,5	6,8	9	8,8	1	1	1	1	1	1	1	1	1	0	1	-6,906272	274,322103	314,183346	0
15.01.2021	18:49:19	0	0	2,937477	2,0265	272,142	0,289	85,04	0	1016,66	6,8	9	8,8	1	1	1	1	1	1	1	1	1	0	1	-9,302326	274,296456	311,667235	0
15.01.2021	18:49:20	0	0	4,745155	1,98075	283,5756	0,283	85,043	0	1016,64	6,8	9	8,8	1	1	1	1	1	1	1	1	1	0	1	-8,597604	274,317575	312,470814	0
15.01.2021	18:49:21	0	0	3,276417	1,992	269,2116	0,29	85,061	0	1016,6	6,8	9	8,8	1	1	1	1	1	1	1	1	1	0	1	-9,513742	274,218219	311,089777	0
15.01.2021	18:49:22	0	0	2,146631	2,00625	269,9532	0,294	85,053	0	1016,72	6,8	9	8,7	1	1	1	1	1	1	1	1	1	0	1	-5,426357	274,155259	314,882821	0
15.01.2021	18:49:23	0	0	2,937477	1,9245	269,8812	0,29	85,045	0	1016,64	6,8	9	8,8	1	1	1	1	1	1	1	1	1	0	1	-12,825934	274,322103	308,263685	0
15.01.2021	18:49:24	0	0	5,084125	1,94925	281,0592	0,287	85,027	0	1016,5	6,8	9	8,7	1	1	1	1	1	1	1	1	1	0	1	-3,946441	274,252785	316,818759	0
15.01.2021	18:49:25	0	0	2,824514	1,95225	276,4764	0,288	85,043	0	1016,66	6,8	9	8,7	1	1	1	1	1	1	1	1	1	0	1	-14,728682	274,305504	306,283229	0
15.01.2021	18:49:26	0	0	3,728359	1,854	275,0436	0,283	85,042	0	1016,72	6,8	9	8,7	1	1	1	1	1	1	1	1	1	0	1	-12,544045	274,230235	308,115671	0
15.01.2021	18:49:27	0	0	2,937495	1,77675	284,0832	0,284	85,042	0	1016,7	6,8	9	8,7	1	1	1	1	1	1	1	1	1	0	1	-6,483439	274,134318	313,727883	0
15.01.2021	18:49:28	0	0	4,406242	1,743	276,1776	0,292	85,054	0	1016,68	6,8	9	8,7	1	1	1	1	1	1	1	1	1	0	1	-7,610994	274,216718	312,985504	0
15.01.2021	18:49:29	0	0	3,841316	1,7475	276,4476	0,29	85,037	0	1016,66	6,8	9	8,8	1	1	1	1	1	1	1	1	1	0	1	-10,641297	274,308521	310,384737	0
15.01.2021	18:49:30	0	0	2,598537	1,94625	273,276	0,293	85,052	0	1016,66	6,8	9	8,8	1	1	1	1	1	1	1	1	1	0	1	-11,909796	274,240755	308,799128	0
15.01.2021	18:49:31	0	0	4,519195	2,109	269,946	0,285	85,048	0	1016,7	6,8	9	8,8	1	1	1	1	1	1	1	1	1	0	1	-8,033827	274,149273	312,247379	0
15.01.2021	18:49:32	0	0	2,711534	2,27325	274,2624	0,282	85,053	0	1016,72	6,8	9	8,7	1	1	1	1	1	1	1	1	1	0	1	-6,765328	274,159749	313,564836	0
15.01.2021	18:49:33	0	0	3,163456	2,373	269,6112	0,285	85,059	0	1016,68	6,8	9	8,7	1	1	1	1	1	1	1	1	1	0	1	-11,839323	274,258803	308,954031	0
15.01.2021	18:49:34	0	0	2,937477	2,31975	270,5256	0,287	85,052	0	1016,64	6,8	9	8,8	1	1	1	1	1	1	1	1	1	0	1	-8,315715	274,15077	311,972483	0
15.01.2021	18:49:35	0	0	3,050475	2,15775	271,854	0,287	85,057	0	1016,78	6,8	9	8,7	1	1	1	1	1	1	1	1	1	0	1	-4,510218	274,251281	316,247945	0
15.01.2021	18:49:36	0	0	4,971145	1,95675	272,8692	0,29	85,053	0	1016,74	6,8	9	8,7	1	1	1	1	1	1	1	1	1	0	1	-7,399577	274,15077	312,888621	0
15.01.2021	18:49:37	0	0	4,632175	1,85475	276,0948	0,288	85,048	0	1016,72	6,8	9	8,8	1	1	1	1	1	1	1	1	1	0	1	-6,8358	274,164241	313,515355	0
15.01.2021	18:49:38	0	0	4,293261	1,8195	279,4788	0,288	85,047	0	1016,72	6,8	9	8,7	1	1	1	1	1	1	1	1	1	0	1	-9,654686	274,257298	311,131628	0
15.01.2021	18:49:39	0	0	3,615378	1,91325	279,1656	0,287	85,058	0	1016,8	6,8	9	8,7	1	1	1	1	1	1	1	1	1	0	1	-9,302326	274,313047	311,744897	0
15.01.2021	18:49:40	0	0	2,598553	1,896	269,9928	0,284	85,033	0	1016,58	6,8	9	8,7	1	1	1	1	1	1	1	1	1	0	1	-11,275546	274,19871	309,236743	0
15.01.2021	18:49:41	0	0	2,824514	1,94025	276,4584	0,287	85,047	0	1016,84	6,8	9	8,7	1	1	1	1	1	1	1	1	1	0	1	-9,090909	274,317575	311,977508	0
15.01.2021	18:49:42	0	0	4,632203	1,93275	275,7348	0,289	85,053	0	1016,7	6,8	9	8,7	1	1	1	1	1	1	1	1	1	0	1	-7,610994	274,246769	313,126063	0
15.01.2021	18:49:43	0	0	4,067276	1,93875	265,7988	0,29	85,038	0	1016,72	6,8	9	8,8	1	1	1	1	1	1	1	1	1	0	1	-9,725159	274,307013	311,293814	0
15.01.2021	18:49:44	0	0	3,615378	1,9395	290,0376	0,281	85,041	0	1016,72	6,8	9	8,7	1	1	1	1	1	1	1	1	1	0	1	-8,879493	274,252785	311,885707	0
15.01.2021	18:49:45	0	0	3,95432	1,90425	276,8112	0,292	85,041	0	1016,62	6,8	9	8,7	1	1	1	1	1	1	1	1	1	0	1	-9,161381	274,317575	311,907036	0
15.01.2021	18:49:46	0	0	2,711534	1,896	282,3912	0,29	85,043	0	1016,72	6,8	9	8,7	1	1	1	1	1	1	1	1	1	0	1	-7,82241	274,230235	312,837306	0
15.01.2021	18:49:47	0	0	3,502376	1,818	286,272	0,288	85,048	0	1016,6	6,8	9	8,8	1	1	1	1	1	1	1	1	1	0	1	-10,923185	274,156756	309,392987	0
15.01.2021	18:49:48	0	0	2,824497	1,72725	267,732	0,309	85,038	0	1016,78	6,8	9	8,8	1	1	1	1	1	1	1	1	1	0	1	-4,298802	274,313047	316,748421	0
15.01.2021	18:49:49	0	0	4,858164	1,68675	273,4992	0,29	85,047	0	1016,64	6,8	9	8,7	1	1	1	1	1	1	1	1	1	0	1	-11,486963	274,149273	308,794243	0
15.01.2021	18:49:50	0	0	3,841339	1,773	274,7196	0,289	85,031	0	1016,7	6,8	9	8,7	1	1	1	1	1	1	1	1	1	0	1	-9,513742	274,216718	311,082755	0
15.01.2021	18:49:51	0	0	2,937495	1,85025	278,7768	0,29	85,04	0	1016,62	6,8	9	8,7	1	1	1	1	1	1	1	1	1	0	1	-9,936575	274,335694	311,216682	0
15.01.2021	18:49:52	0	0	2,711534	1,80825	268,0848	0,288	85,044	0	1016,66	6,8	9	8,7	1	1	1	1	1	1	1	1	1	0	1	-6,765328	274,176223	313,641835	0
15.01.2021	18:49:53	0	0	2,598553	1,74	273,6	0,286	85,034	0	1016,62	7,1	9	8,7	1	1	1	1	1	1	1	1	1	0	1	-7,751938	274,19871	312,760351	0
15.01.2021	18:49:54	0	0	2,598553	1,72575	275,3532	0,287	85,033	0	1016,7	6,8	9	8,7	1	1	1	1	1	1	1	1	1	0	1	-9,584214	274,147777	310,69	0
15.01.2021	18:49:55	0	0	2,711534	1,752	270,9288	0,293	85,046	0	1016,64	6,8	9	8,7	1	1	1	1	1	1	1	1	1	0	1	-5,919662	274,19871	314,592627	0
15.01.2021	18:49:56	0	0	2,711534	1,79775	274,7196	0,285	85,037	0	1016,7	6,8	9	8,7	1	1	1	1	1	1	1	1	1	0	1	-8,738548	274,338716	312,428858	0
15.01.2021	18:49:57	0	0	3,954296	1,84875	276,4872	0,288	85,045	0	1016,56	6,8	9	8,8	1	1	1	1	1	1	1	1	1	0	1	-6,20155	274,242259	314,514405	0
15.01.2021	18:49:58	0	0	2,937495	1,869	279,5076	0,286	85,048	0	1016,52	6,8	9	8,7	1	1	1	1	1	1	1	1	1	0	1	-8,80902	274,326632	312,301805	0
15.01.2021	18:49:59	0	0	3,163456	1,81125	282,0744	0,285	85,039	0	1016,78	6,8	9	8,7	1	1	1	1	1	1	1	1	1	0	1	-11,980268	274,278374	308,904662	0
15.01.2021	18:50:00	0	0	4,745184	1,82925	283,5144	0,284	85,059	0	1016,7	7	9	8,7	1	1	1	1	1	1	1	1	1	0	1	-11,486963	274,319084	309,588521	0
15.01.2021	18:50:01	0	0	3,050475	1,917	279,8604	0,292	85,054	0	1016,56	7	9	8,7	1	1	1	1	1	1	1	1	1	0	1	-8,80902	274,20321	311,724312	0
15.01.2021	18:50:02	0	0	4,406242	1,91325	272,4588	0,292	85,025	0	1016,66	6,8	9	8,7	1	1	1	1	1	1	1	1	1	0	1	-9,161381	274,147777	311,112833	0
15.01.2021	18:50:03	0	0	3,728359	1,95675	280,2996	0,289	85,052	0	1016,68	6,8	9	8,7	1	1	1	1	1	1	1	1	1	0	1	-6,906272	274,28892	314,028014	0
15.01.2021	18:50:04	0	0	3,728359	2,0355	283,6332	0,287	85,042	0	1016,68	6,8	9	8,7	1	1	1	1	1	1	1	1	1	0	1	-6,412967	274,325122	314,690789	0
15.01.2021	18:50:05	0	0	2,937495	2,097	286,8408	0,289	85,039	0	1016,62	6,8	9	8,7	1	1	1	1	1	1	1	1	1	0	1	-11,839323	274,222724	308,785264	0
15.01.2021	18:50:06	0	0	4,858164	2,19825	278,4456	0,287	85,053	0	1016,66	6,8	9	8,7	1	1	1	1	1	1	1	1	1	0	1	-9,44327	274,313047	311,603953	0
15.01.2021	18:50:07	0	0	4,858164	2,25525	285,2352	0,287	85,046	0	1016,6	7,1	9	8,7	1	1	1	1	1	1	1	1	1	0	1	-11,41649	274,215217	309,172986	0
15.01.2021	18:50:08	0	0	3,163456	2,2425	278,0928	0,29	85,027	0	1016,44	6,8	9	8,7	1	1	1	1	1	1	1	1	1	0	1	-8,879493	274,159749	311,450671	0
15.01.2021	18:50:09	0	0	5,084095	2,20725	282,4668	0,284	85,05	0	1016,64	6,8	9	8,8	1	1	1	1	1	1	1	1	1	0	1	-12,544045	274,281386	308,354983	0
15.01.2021	18:50:10	0	0	2,824514	2,16525	279,9252	0,292	85,03	0	1016,62	6,8	9	8,7	1	1	1	1	1	1	1	1	1	0	1	-12,403101	274,153762	307,899083	0
15.01.2021	18:50:11	0	0	4,067276	2,11875	286,308	0,294	85,049	0	1016,64	6,8	9	8,8	1	1	1	1	1	1	1	1	1	0	1	-12,191684	274,240755	308,517239	0
15.01.2021	18:50:12	0	0	3,502376	2,16225	281,034	0,289	85,031	0	1016,62	6,8	9	8,8	1	1	1	1	1	1	1	1	1	0	1	-9,161381	274,14329	311,091863	0
15.01.2021	18:50:13	0	0	4,180256	2,25525	279,954	0,28	85,039	0	1016,62	6,8	9	8,8	1	1	1	1	1	1	1	1	1	0	1	-6,342495	274,269338	314,500155	0
15.01.2021	18:50:14	0	0	4,406242	2,30475	282,8916	0,283	85,039	0	1016,56	6,8	9	8,7	1	1	1	1	1	1	1	1	1	0	1	-6,412967	274,314556	314,64132	0
15.01.2021	18:50:15	0	0	2,824514	2,26275	286,7004	0,291	85,044	0	1016,68	6,8	9	8,7	1	1	1	1	1	1	1	1	1	0	1	-10,147992	274,251281	310,610172	0
15.01.2021	18:50:16	0	0	3,050457	2,184	285,2424	0,287	85,046	0	1016,58	6,8	9	8,8	1	1	1	1	1	1	1	1	1	0	1	-6,342495	274,158252	313,980673	0
15.01.2021	18:50:17	0	0	2,711517	2,1195	284,454	0,293	85,038	0	1016,58	7,1	9	8,8	1	1	1	1	1	1	1	1	1	0	1	-6,483439	274,188213	313,979772	0
15.01.2021	18:50:18	0	0	4,632203	2,06925	278,8056	0,293	85,039	0	1016,68	6,8	9	8,7	1	1	1	1	1	1	1	1	1	0	1	-8,527132	274,335694	312,626125	0
15.01.2021	18:50:19	0	0	3,95432	2,03325	273,2472	0,291	85,039	0	1016,76	6,8	9	8,7	1	1	1	1	1	1	1	1	1	0	1	-7,610994	274,240755	313,09793	0
15.01.2021	18:50:20	0	0	4,293236	1,98825	279,7848	0,296	85,036	0	1016,62	7,1	9	8,8	1	1	1	1	1	1	1	1	1	0	1	-7,188161	274,14329	313,065084	0
15.01.2021	18:50:21	0	0	2,711534	1,94625	276,8004	0,287	85,039	0	1016,6	6,8	9	8,7	1	1	1	1	1	1	1	1	1	0	1	-10,077519	274,156756	310,238653	0
15.01.2021	18:50:22	0	0	3,95432	1,97775	280,2528	0,288	85,045	0	1016,76	6,8	9	8,7	1	1	1	1	1	1	1	1	1	0	1	-7,892882	274,326632	313,217943	0
15.01.2021	18:50:23	0	0	4,067276	2,05875	271,0152	0,294	85,041	0	1016,64	6,8	9	8,8	1	1	1	1	1	1	1	1	1	0	1	-8,386187	274,242259	312,329768	0
15.01.2021	18:50:24	0	0	2,711534	2,12175	283,626	0,294	85,053	0	1016,62	6,8	9	8,7	1	1	1	1	1	1	1	1	1	0	1	-4,369274	274,152266	315,925916	0
15.01.2021	18:50:25	0	0	4,632203	2,13225	285,912	0,285	85,03	0	1016,56	7	9	8,7	1	1	1	1	1	1	1	1	1	0	1	-8,527132	274,281386	312,371896	0
15.01.2021	18:50:26	0	0	4,180281	2,06625	277,1712	0,29	85,05	0	1016,64	6,8	9	8,7	1	1	1	1	1	1	1	1	1	0	1	-7,540521	274,349295	313,676428	0
15.01.2021	18:50:27	0	0	4,971115	1,9305	270,9756	0,291	85,043	0	1016,74	7,1	9	8,8	1	1	1	1	1	1	1	1	1	0	1	-7,681466	274,216718	312,915031	0
15.01.2021	18:50:28	0	0	4,293236	1,83	281,412	0,291	85,057	0	1016,68	6,8	9	8,8	1	1	1	1	1	1	1	1	1	0	1	-11,698379	274,317575	309,370038	0
15.01.2021	18:50:29	0	0	3,95432	1,797	269,244	0,297	85,055	0	1016,56	6,8	9	8,7	1	1	1	1	1	1	1	1	1	0	1	-7,751938	274,17922	312,669233	0
15.01.2021	18:50:30	0	0	2,598537	1,8795	276,8652	0,295	85,059	0	1016,66	7,1	9	8,8	1	1	1	1	1	1	1	1	1	0	1	-7,258633	274,191211	313,218597	0
15.01.2021	18:50:31	0	0	2,598537	1,938	271,3824	0,286	85,055	0	1016,6	6,8	9	8,8	1	1	1	1	1	1	1	1	1	0	1	-9,302326	274,290427	311,639014	0
15.01.2021	18:50:32	0	0	4,0673	1,998	276,426	0,285	85,043	0	1016,58	6,8	9	8,7	1	1	1	1	1	1	1	1	1	0	1	-8,668076	274,156756	311,648096	0
15.01.2021	18:50:33	0	0	4,406242	2,02275	275,4	0,291	85,058	0	1016,66	6,8	9	8,7	1	1	1	1	1	1	1	1	1	0	1	-15,081043	274,227231	305,56462	0
15.01.2021	18:50:34	0	0	4,971145	2,06475	269,928	0,284	85,06	0	1016,66	7,1	9	8,7	1	1	1	1	1	1	1	1	1	0	1	-8,668076	274,326632	312,442749	0
15.01.2021	18:50:35	0	0	4,745184	2,04	268,8084	0,293	85,059	0	1016,74	7,1	9	8,7	1	1	1	1	1	1	1	1	1	0	1	-9,020437	274,231738	311,646307	0
15.01.2021	18:50:36	0	0	2,485572	2,04	275,6448	0,293	85,067	0	1016,86	6,8	9	8,7	1	1	1	1	1	1	1	1	1	0	1	-7,047216	274,340227	314,127265	0
15.01.2021	18:50:37	0	0	3,389397	1,986	286,2288	0,289	85,06	0	1016,62	6,8	9	8,8	1	1	1	1	1	1	1	1	1	0	1	-8,245243	274,30098	312,74549	0
15.01.2021	18:50:38	0	0	3,615378	1,884	297,2088	0,287	85,066	0	1016,68	7,1	9	8,7	1	1	1	1	1	1	1	1	1	0	1	-10,782241	274,317575	310,286177	0
15.01.2021	18:50:39	0	0	3,728336	1,85925	290,4552	0,29	85,065	0	1016,58	7	9	8,8	1	1	1	1	1	1	1	1	1	0	1	-11,06413	274,165738	309,294024	0
15.01.2021	18:50:40	0	0	2,372578	1,869	307,2492	0,29	85,057	0	1016,68	7	9	8,8	1	1	1	1	1	1	1	1	1	0	1	-11,768851	274,255794	309,010425	0
15.01.2021	18:50:41	0	0	3,050457	1,87125	292,2624	0,291	85,064	0	1016,72	6,8	9	8,8	1	1	1	1	1	1	1	1	1	0	1	-6,906272	274,170231	313,472882	0
15.01.2021	18:50:42	0	0	2,485558	1,9065	304,9776	0,292	85,065	0	1016,76	7	9	8,8	1	1	1	1	1	1	1	1	1	0	1	-6,483439	274,326632	314,627386	0
15.01.2021	18:50:43	0	0	3,050475	2,04975	311,4324	0,287	85,053	0	1016,64	6,8	9	8,7	1	1	1	1	1	1	1	1	1	0	1	-11,557435	274,258803	309,23592	0
15.01.2021	18:50:44	0	0	3,728336	2,09925	315,936	0,292	85,046	0	1016,66	7,1	9	8,8	1	1	1	1	1	1	1	1	1	0	1	-7,82241	274,340227	313,352072	0
15.01.2021	18:50:45	0	0	3,050457	2,12025	304,704	0,293	85,059	0	1016,66	6,8	9	8,8	1	1	1	1	1	1	1	1	1	0	1	-6,131078	274,19421	314,360173	0
15.01.2021	18:50:46	0	0	2,259611	2,04375	289,1592	0,291	85,064	0	1016,72	6,8	9	8,7	1	1	1	1	1	1	1	1	1	0	1	-11,627907	274,168733	308,744246	0
15.01.2021	18:50:47	0	0	4,293236	1,965	284,4396	0,294	85,067	0	1016,62	7	9	8,8	1	1	1	1	1	1	1	1	1	0	1	-7,82241	274,263317	312,992067	0
15.01.2021	18:50:48	0	0	3,389417	1,83075	292,32	0,29	85,066	0	1016,58	6,8	9	8,7	1	1	1	1	1	1	1	1	1	0	1	-9,020437	274,329652	312,104529	0
15.01.2021	18:50:49	0	0	4,406242	1,80975	277,6464	0,291	85,064	0	1016,48	6,8	9	8,7	1	1	1	1	1	1	1	1	1	0	1	-9,654686	274,230235	311,00503	0
15.01.2021	18:50:50	0	0	3,728336	1,857	275,0256	0,286	85,076	0	1016,54	7,1	9	8,8	1	1	1	1	1	1	1	1	1	0	1	-7,82241	274,341738	313,359148	0
15.01.2021	18:50:51	0	0	2,598553	1,91775	275,76	0,293	85,078	0	1016,64	6,8	9	8,7	1	1	1	1	1	1	1	1	1	0	1	-9,513742	274,273855	311,350045	0
15.01.2021	18:50:52	0	0	3,050457	1,95375	276,4944	0,293	85,07	0	1016,74	6,8	9	8,8	1	1	1	1	1	1	1	1	1	0	1	-4,862579	274,162743	315,481578	0
15.01.2021	18:50:53	0	0	3,615356	1,88325	277,56	0,292	85,079	0	1016,62	6,8	9	8,8	1	1	1	1	1	1	1	1	1	0	1	-10,218464	274,255794	310,560812	0
15.01.2021	18:50:54	0	0	3,163456	1,956	268,0992	0,294	85,075	0	1016,6	7	9	8,7	1	1	1	1	1	1	1	1	1	0	1	-10,500352	274,323613	310,596334	0
15.01.2021	18:50:55	0	0	2,598553	1,9425	262,1196	0,286	85,06	0	1016,58	6,8	9	8,7	1	1	1	1	1	1	1	1	1	0	1	-6,694856	274,266328	314,133707	0
15.01.2021	18:50:56	0	0	3,728359	1,9245	268,8696	0,287	85,077	0	1016,8	7,1	9	8,7	1	1	1	1	1	1	1	1	1	0	1	-6,20155	274,165738	314,156604	0
15.01.2021	18:50:57	0	0	4,0673	1,9335	273,1608	0,293	85,071	0	1016,52	7	9	8,7	1	1	1	1	1	1	1	1	1	0	1	-10,570825	274,273855	310,292962	0
15.01.2021	18:50:58	0	0	3,163437	1,92675	269,9676	0,297	85,066	0	1016,72	6,8	9	8,8	1	1	1	1	1	1	1	1	1	0	1	-10,923185	274,314556	310,131102	0
15.01.2021	18:50:59	0	0	4,067276	1,9275	266,9832	0,293	85,071	0	1016,64	6,8	9	8,8	1	1	1	1	1	1	1	1	1	0	1	-9,44327	274,284399	311,469859	0
15.01.2021	18:51:00	0	0	3,95432	1,91025	276,1776	0,296	85,076	0	1016,68	7	9	8,7	1	1	1	1	1	1	1	1	1	0	1	-12,262156	274,177721	308,15201	0
15.01.2021	18:51:01	0	0	3,95432	2,043	266,6052	0,289	85,054	0	1016,42	6,8	9	8,7	1	1	1	1	1	1	1	1	1	0	1	-6,8358	274,228733	313,816889	0
15.01.2021	18:51:02	0	0	4,180256	2,109	279,9648	0,299	85,069	0	1016,58	6,8	9	8,8	1	1	1	1	1	1	1	1	1	0	1	-10,993658	274,162743	309,3505	0
15.01.2021	18:51:03	0	0	3,95432	2,03025	278,8848	0,294	85,067	0	1016,7	7	9	8,7	1	1	1	1	1	1	1	1	1	0	1	-11,980268	274,296456	308,989292	0
15.01.2021	18:51:04	0	0	4,632203	1,93875	277,5852	0,289	85,08	0	1016,7	6,8	9	8,7	1	1	1	1	1	1	1	1	1	0	1	-12,403101	274,146281	307,864123	0
15.01.2021	18:51:05	0	0	2,598553	1,9185	278,0964	0,292	85,077	0	1016,74	6,8	9	8,7	1	1	1	1	1	1	1	1	1	0	1	-10,077519	274,248273	310,666572	0
15.01.2021	18:51:06	0	0	4,632203	1,84425	280,2996	0,294	85,08	0	1016,74	7,1	9	8,7	1	1	1	1	1	1	1	1	1	0	1	-7,399577	274,317575	313,66884	0
15.01.2021	18:51:07	0	0	2,598537	1,842	275,7852	0,299	85,087	0	1016,66	7	9	8,8	1	1	1	1	1	1	1	1	1	0	1	-7,399577	274,258803	313,393777	0
15.01.2021	18:51:08	0	0	4,519223	1,815	275,8068	0,292	85,069	0	1016,64	7	9	8,7	1	1	1	1	1	1	1	1	1	0	1	-8,45666	274,153762	311,845524	0
15.01.2021	18:51:09	0	0	3,728359	1,7895	281,034	0,296	85,076	0	1016,78	7,1	9	8,7	1	1	1	1	1	1	1	1	1	0	1	-4,439746	274,185214	316,009449	0
15.01.2021	18:51:10	0	0	4,406242	1,73775	286,0164	0,302	85,066	0	1016,58	6,8	9	8,7	1	1	1	1	1	1	1	1	1	0	1	-9,513742	274,204711	311,026606	0
15.01.2021	18:51:11	0	0	4,858164	1,752	293,9976	0,299	85,067	0	1016,7	6,8	9	8,7	1	1	1	1	1	1	1	1	1	0	1	-4,651163	274,314556	316,403124	0
15.01.2021	18:51:12	0	0	4,745184	1,869	284,8284	0,293	85,069	0	1016,7	7	9	8,7	1	1	1	1	1	1	1	1	1	0	1	-14,305849	274,258803	306,487505	0
15.01.2021	18:51:13	0	0	4,406216	1,89825	301,5684	0,292	85,054	0	1016,64	7	9	8,8	1	1	1	1	1	1	1	1	1	0	1	-8,80902	274,176223	311,598142	0
15.01.2021	18:51:14	0	0	2,711517	1,8915	300,5748	0,297	85,07	0	1016,62	7	9	8,8	1	1	1	1	1	1	1	1	1	0	1	-10,782241	274,216718	309,814256	0
15.01.2021	18:51:15	0	0	4,632175	1,92675	298,3248	0,298	85,073	0	1016,68	6,8	9	8,8	1	1	1	1	1	1	1	1	1	0	1	-7,82241	274,191211	312,65482	0
15.01.2021	18:51:16	0	0	4,745184	1,95	297,27	0,292	85,065	0	1016,68	6,8	9	8,7	1	1	1	1	1	1	1	1	1	0	1	-11,41649	274,165738	308,941663	0
15.01.2021	18:51:17	0	0	4,971115	2,01975	284,8104	0,294	85,071	0	1016,68	7	9	8,8	1	1	1	1	1	1	1	1	1	0	1	-9,020437	274,28892	311,913849	0
15.01.2021	18:51:18	0	0	4,0673	1,95375	292,5828	0,297	85,063	0	1016,74	7,1	9	8,7	1	1	1	1	1	1	1	1	1	0	1	-8,597604	274,307013	312,421369	0
15.01.2021	18:51:19	0	0	4,971145	1,90425	294,1596	0,298	85,068	0	1016,54	6,8	9	8,7	1	1	1	1	1	1	1	1	1	0	1	-9,090909	274,168733	311,281244	0
15.01.2021	18:51:20	0	0	3,841316	1,887	294,8292	0,298	85,071	0	1016,7	6,8	9	8,8	1	1	1	1	1	1	1	1	1	0	1	-10,007047	274,293441	310,948401	0
15.01.2021	18:51:21	0	0	4,971145	1,848	296,604	0,298	85,083	0	1016,68	7	9	8,7	1	1	1	1	1	1	1	1	1	0	1	-6,553911	274,174725	313,846248	0
15.01.2021	18:51:22	0	0	4,0673	1,92375	277,5708	0,294	85,064	0	1016,7	7	9	8,7	1	1	1	1	1	1	1	1	1	0	1	-7,470049	274,302488	313,527742	0
15.01.2021	18:51:23	0	0	2,372578	1,95975	272,826	0,297	85,058	0	1016,7	7	9	8,8	1	1	1	1	1	1	1	1	1	0	1	-4,862579	274,352319	316,368532	0
15.01.2021	18:51:24	0	0	2,824497	1,99875	276,894	0,298	85,071	0	1016,68	7	9	8,8	1	1	1	1	1	1	1	1	1	0	1	-7,188161	274,204711	313,352187	0
15.01.2021	18:51:25	0	0	3,954296	1,96725	285,5844	0,299	85,069	0	1016,76	7,1	9	8,8	1	1	1	1	1	1	1	1	1	0	1	-13,178295	274,180718	307,249881	0
15.01.2021	18:51:26	0	0	4,745155	1,9845	278,0568	0,296	85,073	0	1016,66	6,8	9	8,8	1	1	1	1	1	1	1	1	1	0	1	-7,329105	274,174725	313,071054	0
15.01.2021	18:51:27	0	0	2,824497	1,995	267,4116	0,299	85,074	0	1016,64	6,8	9	8,8	1	1	1	1	1	1	1	1	1	0	1	-5,144468	274,228733	315,508221	0
15.01.2021	18:51:28	0	0	3,841316	1,97325	276,822	0,294	85,077	0	1016,66	6,8	9	8,8	1	1	1	1	1	1	1	1	1	0	1	-15,64482	274,341738	305,536738	0
15.01.2021	18:51:29	0	0	3,841339	1,869	302,1192	0,302	85,082	0	1016,82	7	9	8,7	1	1	1	1	1	1	1	1	1	0	1	-8,879493	274,320593	312,203058	0
15.01.2021	18:51:30	0	0	4,406242	1,821	285,858	0,3	85,063	0	1016,76	7	9	8,7	1	1	1	1	1	1	1	1	1	0	1	-8,949965	274,340227	312,224517	0
15.01.2021	18:51:31	0	0	3,163437	1,86975	288,4572	0,297	85,072	0	1016,68	7	9	8,8	1	1	1	1	1	1	1	1	1	0	1	-8,104299	274,285906	312,815882	0
15.01.2021	18:51:32	0	0	4,745184	1,86	296,1216	0,293	85,072	0	1016,58	7,1	9	8,7	1	1	1	1	1	1	1	1	1	0	1	-9,584214	274,355343	311,661061	0
15.01.2021	18:51:33	0	0	3,841339	1,833	295,2432	0,297	85,057	0	1016,56	7	9	8,7	1	1	1	1	1	1	1	1	1	0	1	-9,866103	274,215217	310,723373	0
15.01.2021	18:51:34	0	0	2,598553	1,77975	286,2396	0,302	85,081	0	1016,74	7	9	8,7	1	1	1	1	1	1	1	1	1	0	1	-11,205074	274,171729	309,181081	0
15.01.2021	18:51:35	0	0	3,502398	1,713	286,2108	0,302	85,068	0	1016,66	6,8	9	8,7	1	1	1	1	1	1	1	1	1	0	1	-11,41649	274,213715	309,165965	0
15.01.2021	18:51:36	0	0	4,067276	1,62225	298,2744	0,303	85,075	0	1016,72	7,1	9	8,8	1	1	1	1	1	1	1	1	1	0	1	-12,825934	274,183716	307,616254	0
15.01.2021	18:51:37	0	0	4,406242	1,51425	285,2028	0,297	85,073	0	1016,8	7	9	8,7	1	1	1	1	1	1	1	1	1	0	1	-9,584214	274,349295	311,632736	0
15.01.2021	18:51:38	0	0	3,276417	1,515	275,7132	0,301	85,07	0	1016,66	6,8	9	8,8	1	1	1	1	1	1	1	1	1	0	1	-12,825934	274,30098	308,164799	0
15.01.2021	18:51:39	0	0	3,276436	1,5705	287,748	0,293	85,078	0	1016,64	7	9	8,7	1	1	1	1	1	1	1	1	1	0	1	-6,412967	274,176223	313,994195	0
15.01.2021	18:51:40	0	0	4,519195	1,6125	274,9968	0,296	85,062	0	1016,52	7	9	8,8	1	1	1	1	1	1	1	1	1	0	1	-7,892882	274,281386	313,006146	0
15.01.2021	18:51:41	0	0	4,745155	1,584	280,2312	0,301	85,076	0	1016,6	7	9	8,8	1	1	1	1	1	1	1	1	1	0	1	-6,8358	274,364419	314,451984	0
15.01.2021	18:51:42	0	0	5,084095	1,557	269,8884	0,292	85,072	0	1016,7	7	9	8,8	1	1	1	1	1	1	1	1	1	0	1	-7,751938	274,278374	313,132991	0
15.01.2021	18:51:43	0	0	2,824497	1,53525	288,1728	0,299	85,08	0	1016,68	7	9	8,8	1	1	1	1	1	1	1	1	1	0	1	-6,694856	274,343249	314,49378	0
15.01.2021	18:51:44	0	0	4,406216	1,45275	284,796	0,298	85,069	0	1016,54	7	9	8,8	1	1	1	1	1	1	1	1	1	0	1	-9,020437	274,356855	312,231921	0
15.01.2021	18:51:45	0	0	4,858164	1,4415	282,3696	0,301	85,072	0	1016,62	7	9	8,7	1	1	1	1	1	1	1	1	1	0	1	-6,342495	274,225728	314,296142	0
15.01.2021	18:51:46	0	0	2,485572	1,383	272,8548	0,299	85,074	0	1016,6	7	9	8,7	1	1	1	1	1	1	1	1	1	0	1	-10,570825	274,20021	309,948478	0
15.01.2021	18:51:47	0	0	4,180281	1,38825	288,7848	0,299	85,068	0	1016,66	7	9	8,7	1	1	1	1	1	1	1	1	1	0	1	-15,785765	274,299472	305,19791	0
15.01.2021	18:51:48	0	0	4,293261	1,39575	285,5376	0,302	85,067	0	1016,78	7	9	8,7	1	1	1	1	1	1	1	1	1	0	1	-12,544045	274,17922	307,877125	0
15.01.2021	18:51:49	0	0	3,050475	1,38	274,266	0,302	85,07	0	1016,64	7	9	8,7	1	1	1	1	1	1	1	1	1	0	1	-11,909796	274,239252	308,792096	0
15.01.2021	18:51:50	0	0	4,745184	1,494	280,6488	0,302	85,044	0	1016,72	7	9	8,7	1	1	1	1	1	1	1	1	1	0	1	-5,990134	274,17922	314,431037	0
15.01.2021	18:51:51	0	0	3,163456	1,524	283,1832	0,303	85,051	0	1016,7	7	9	8,7	1	1	1	1	1	1	1	1	1	0	1	-7,329105	274,266328	313,499457	0
15.01.2021	18:51:52	0	0	3,728336	1,55775	286,92	0,3	85,063	0	1016,72	7	9	8,8	1	1	1	1	1	1	1	1	1	0	1	-9,44327	274,350807	311,78076	0
15.01.2021	18:51:53	0	0	4,293261	1,599	279,4968	0,301	85,055	0	1016,54	7	9	8,7	1	1	1	1	1	1	1	1	1	0	1	-8,245243	274,320593	312,837308	0
15.01.2021	18:51:54	0	0	2,485558	1,64775	290,8008	0,307	85,058	0	1016,68	7	9	8,8	1	1	1	1	1	1	1	1	1	0	1	-12,614517	274,186713	307,841686	0
15.01.2021	18:51:55	0	0	2,824514	1,70625	294,408	0,304	85,056	0	1016,6	7	9	8,7	1	1	1	1	1	1	1	1	1	0	1	-6,060606	274,170231	314,318547	0
15.01.2021	18:51:56	0	0	2,937495	1,731	278,4024	0,304	85,054	0	1016,62	6,8	9	8,7	1	1	1	1	1	1	1	1	1	0	1	-8,80902	274,299472	312,174654	0
15.01.2021	18:51:57	0	0	3,502376	1,73775	287,388	0,301	85,06	0	1016,72	7	9	8,8	1	1	1	1	1	1	1	1	1	0	1	-10,147992	274,180718	310,280184	0
15.01.2021	18:51:58	0	0	4,519223	1,6995	293,3784	0,302	85,05	0	1016,68	7	9	8,7	1	1	1	1	1	1	1	1	1	0	1	-8,033827	274,246769	312,70323	0
15.01.2021	18:51:59	0	0	2,598537	1,6545	279,2268	0,306	85,052	0	1016,66	7,1	9	8,8	1	1	1	1	1	1	1	1	1	0	1	-10,641297	274,168733	309,730856	0
15.01.2021	18:52:00	0	0	2,372578	1,6725	281,3616	0,303	85,028	0	1016,48	7	9	8,8	1	1	1	1	1	1	1	1	1	0	1	-8,738548	274,285906	312,181632	0
15.01.2021	18:52:01	0	0	2,824514	1,73775	293,3676	0,296	85,039	0	1016,6	7	9	8,7	1	1	1	1	1	1	1	1	1	0	1	-5,285412	274,35988	315,981114	0
15.01.2021	18:52:02	0	0	4,632175	1,71225	290,3544	0,301	85,034	0	1016,68	7	9	8,8	1	1	1	1	1	1	1	1	1	0	1	-10,147992	274,319084	310,927492	0
15.01.2021	18:52:03	0	0	3,389417	1,72725	281,3868	0,304	85,036	0	1016,6	7,1	9	8,7	1	1	1	1	1	1	1	1	1	0	1	-10,359408	274,183716	310,08278	0
15.01.2021	18:52:04	0	0	4,858164	1,8255	281,0016	0,309	85,04	0	1016,64	7	9	8,7	1	1	1	1	1	1	1	1	1	0	1	-8,949965	274,316065	312,111387	0
15.01.2021	18:52:05	0	0	4,406242	1,82175	283,5828	0,306	85,031	0	1016,68	7	9	8,7	1	1	1	1	1	1	1	1	1	0	1	-7,681466	274,346272	313,521325	0
15.01.2021	18:52:06	0	0	2,824497	1,902	273,9528	0,297	85,031	0	1016,76	7	9	8,8	1	1	1	1	1	1	1	1	1	0	1	-10,42988	274,20021	310,089422	0
15.01.2021	18:52:07	0	0	3,502376	1,99875	280,2852	0,3	85,036	0	1016,64	7	9	8,8	1	1	1	1	1	1	1	1	1	0	1	-9,654686	274,302488	311,343105	0
15.01.2021	18:52:08	0	0	4,293236	2,1705	286,9992	0,305	85,052	0	1016,74	7	9	8,8	1	1	1	1	1	1	1	1	1	0	1	-6,765328	274,343249	314,423307	0
15.01.2021	18:52:09	0	0	4,519195	2,271	296,4384	0,298	85,038	0	1016,66	7	9	8,8	1	1	1	1	1	1	1	1	1	0	1	-11,557435	274,186713	308,898768	0
15.01.2021	18:52:10	0	0	2,711534	2,289	284,4468	0,302	85,025	0	1016,68	7	9	8,7	1	1	1	1	1	1	1	1	1	0	1	-7,258633	274,210713	313,309784	0
15.01.2021	18:52:11	0	0	5,084095	2,2275	281,0124	0,301	85,026	0	1016,62	7	9	8,8	1	1	1	1	1	1	1	1	1	0	1	-11,134602	274,30098	309,856131	0
15.01.2021	18:52:12	0	0	3,615356	2,08425	284,5764	0,308	85,036	0	1016,76	7,1	9	8,8	1	1	1	1	1	1	1	1	1	0	1	-7,047216	274,176223	313,359946	0
15.01.2021	18:52:13	0	0	4,632203	1,9875	274,6908	0,306	85,032	0	1016,76	7	9	8,7	1	1	1	1	1	1	1	1	1	0	1	-11,06413	274,293441	309,891319	0
15.01.2021	18:52:14	0	0	3,389397	1,9245	284,4288	0,305	85,036	0	1016,74	7	9	8,8	1	1	1	1	1	1	1	1	1	0	1	-12,403101	274,20171	308,123216	0
15.01.2021	18:52:15	0	0	4,971115	1,81575	279,4824	0,307	85,024	0	1016,9	7	9	8,8	1	1	1	1	1	1	1	1	1	0	1	-11,205074	274,281386	309,693954	0
15.01.2021	18:52:16	0	0	3,276417	1,9035	289,1844	0,3	85,021	0	1016,82	7	9	8,8	1	1	1	1	1	1	1	1	1	0	1	-11,486963	274,340227	309,687519	0
15.01.2021	18:52:17	0	0	2,598537	2,0595	283,5432	0,303	85,019	0	1016,72	7	9	8,8	1	1	1	1	1	1	1	1	1	0	1	-11,698379	274,297964	309,278238	0
15.01.2021	18:52:18	0	0	3,841316	2,223	294,426	0,303	85,017	0	1016,84	7	9	8,8	1	1	1	1	1	1	1	1	1	0	1	-5,990134	274,19871	314,522155	0
15.01.2021	18:52:19	0	0	3,389417	2,35125	294,0444	0,298	85,014	0	1016,46	7	9	8,7	1	1	1	1	1	1	1	1	1	0	1	-9,44327	274,204711	311,097078	0
15.01.2021	18:52:20	0	0	3,163456	2,3385	306,45	0,301	85,022	0	1016,64	7	9	8,7	1	1	1	1	1	1	1	1	1	0	1	-9,513742	274,242259	311,202214	0
15.01.2021	18:52:21	0	0	4,632175	2,277	303,9372	0,305	85,007	0	1016,5	7	9	8,8	1	1	1	1	1	1	1	1	1	0	1	-10,218464	274,353831	311,019729	0
15.01.2021	18:52:22	0	0	3,163437	2,124	298,638	0,296	85,007	0	1016,8	7	9	8,8	1	1	1	1	1	1	1	1	1	0	1	-6,906272	274,209212	313,655127	0
15.01.2021	18:52:23	0	0	3,050475	2,001	288,774	0,296	85,006	0	1016,6	7	9	8,7	1	1	1	1	1	1	1	1	1	0	1	-13,812544	274,322103	307,277074	0
15.01.2021	18:52:24	0	0	4,406242	1,92825	303,48	0,304	85,011	0	1016,72	7	9	8,7	1	1	1	1	1	1	1	1	1	0	1	-4,510218	274,352319	316,720893	0
15.01.2021	18:52:25	0	0	2,485558	1,89975	300,8736	0,3	85,015	0	1016,82	7	9	8,8	1	1	1	1	1	1	1	1	1	0	1	-12,896406	274,219721	307,714135	0
15.01.2021	18:52:26	0	0	3,502398	1,80075	279,1944	0,304	85,019	0	1016,74	7	9	8,7	1	1	1	1	1	1	1	1	1	0	1	-12,332629	274,364419	308,955155	0
15.01.2021	18:52:27	0	0	3,728359	1,6125	288,1404	0,302	85,016	0	1016,64	7	9	8,7	1	1	1	1	1	1	1	1	1	0	1	-6,694856	274,290427	314,246484	0
15.01.2021	18:52:28	0	0	4,406216	1,53825	289,1952	0,305	85,008	0	1016,62	7	9	8,8	1	1	1	1	1	1	1	1	1	0	1	-7,82241	274,355343	313,422865	0
15.01.2021	18:52:29	0	0	3,728336	1,47975	292,5612	0,305	85,021	0	1016,62	7	9	8,8	1	1	1	1	1	1	1	1	1	0	1	-6,412967	274,266328	314,415595	0
15.01.2021	18:52:30	0	0	2,598537	1,44	281,3328	0,306	85,022	0	1016,78	7	9	8,8	1	1	1	1	1	1	1	1	1	0	1	-5,426357	274,188213	315,036855	0
15.01.2021	18:52:31	0	0	4,180256	1,4505	294,0012	0,302	84,997	0	1016,46	7	9	8,8	1	1	1	1	1	1	1	1	1	0	1	-8,80902	274,322103	312,280598	0
15.01.2021	18:52:32	0	0	3,050475	1,4235	287,0172	0,305	85,015	0	1016,68	7	9	8,7	1	1	1	1	1	1	1	1	1	0	1	-9,090909	274,189712	311,379311	0
15.01.2021	18:52:33	0	0	3,050475	1,3875	292,2048	0,306	85,015	0	1016,64	7	9	8,7	1	1	1	1	1	1	1	1	1	0	1	-12,121212	274,267833	308,714394	0
15.01.2021	18:52:34	0	0	2,598537	1,36875	293,6628	0,307	85,016	0	1016,58	7	9	8,8	1	1	1	1	1	1	1	1	1	0	1	-9,795631	274,367445	311,506328	0
15.01.2021	18:52:35	0	0	2,824514	1,40475	290,0268	0,299	85,006	0	1016,62	7	9	8,7	1	1	1	1	1	1	1	1	1	0	1	-10,288936	274,252785	310,476264	0
15.01.2021	18:52:36	0	0	3,389397	1,3755	295,1352	0,305	85,016	0	1016,58	7	9	8,8	1	1	1	1	1	1	1	1	1	0	1	-6,906272	274,218219	313,697247	0
15.01.2021	18:52:37	0	0	2,259611	1,344	295,5312	0,307	85,015	0	1016,72	7	9	8,7	1	1	1	1	1	1	1	1	1	0	1	-12,191684	274,239252	308,510207	0
15.01.2021	18:52:38	0	0	4,745184	1,29225	296,064	0,305	85,014	0	1016,76	6,8	9	8,7	1	1	1	1	1	1	1	1	1	0	1	-9,231853	274,188213	311,231358	0
15.01.2021	18:52:39	0	0	2,485558	1,287	292,7088	0,31	85,02	0	1016,74	7	9	8,8	1	1	1	1	1	1	1	1	1	0	1	-6,060606	274,314556	314,993681	0
15.01.2021	18:52:40	0	0	3,276436	1,35	288,3564	0,3	85,006	0	1016,6	7	9	8,7	1	1	1	1	1	1	1	1	1	0	1	-9,231853	274,218219	311,371665	0
15.01.2021	18:52:41	0	0	4,745184	1,37625	291,1176	0,304	85,016	0	1016,74	7	9	8,7	1	1	1	1	1	1	1	1	1	0	1	-7,892882	274,302488	313,104909	0
15.01.2021	18:52:42	0	0	2,824514	1,37175	274,6476	0,305	85,017	0	1016,74	7	9	8,7	1	1	1	1	1	1	1	1	1	0	1	-9,231853	274,20171	311,294464	0
15.01.2021	18:52:43	0	0	4,971115	1,395	281,3904	0,306	84,99	0	1016,68	7	9	8,8	1	1	1	1	1	1	1	1	1	0	1	-10,500352	274,293441	310,455096	0
15.01.2021	18:52:44	0	0	3,276417	1,4025	296,0604	0,306	85,021	0	1016,68	7	9	8,8	1	1	1	1	1	1	1	1	1	0	1	-12,403101	274,180718	308,025075	0
15.01.2021	18:52:45	0	0	2,824514	1,40475	279,8676	0,296	84,992	0	1016,76	7	9	8,7	1	1	1	1	1	1	1	1	1	0	1	-8,738548	274,240755	311,970375	0
15.01.2021	18:52:46	0	0	4,745184	1,41	278,4024	0,303	85,001	0	1016,68	7,1	9	8,7	1	1	1	1	1	1	1	1	1	0	1	-12,403101	274,174725	307,997058	0
15.01.2021	18:52:47	0	0	3,841316	1,42425	287,8776	0,306	85,021	0	1016,52	7	9	8,8	1	1	1	1	1	1	1	1	1	0	1	-9,020437	274,328142	312,097459	0
15.01.2021	18:52:48	0	0	4,0673	1,4925	271,3248	0,303	85,004	0	1016,58	7,1	9	8,7	1	1	1	1	1	1	1	1	1	0	1	-6,131078	274,361393	315,142533	0
15.01.2021	18:52:49	0	0	2,824497	1,5315	285,1344	0,305	84,993	0	1016,66	7	9	8,8	1	1	1	1	1	1	1	1	1	0	1	-7,047216	274,358368	314,212226	0
15.01.2021	18:52:50	0	0	2,937477	1,488	278,1252	0,305	85,016	0	1016,62	7	9	8,8	1	1	1	1	1	1	1	1	1	0	1	-7,681466	274,362906	313,599231	0
15.01.2021	18:52:51	0	0	3,841339	1,45725	276,4764	0,3	84,996	0	1016,68	7	9	8,7	1	1	1	1	1	1	1	1	1	0	1	-8,879493	274,207712	311,674889	0
15.01.2021	18:52:52	0	0	3,276417	1,44075	286,2504	0,306	84,995	0	1016,52	7,1	9	8,8	1	1	1	1	1	1	1	1	1	0	1	-11,06413	274,261812	309,743306	0
15.01.2021	18:52:53	0	0	3,163456	1,42725	273,5388	0,305	85,004	0	1016,76	7	9	8,7	1	1	1	1	1	1	1	1	1	0	1	-9,020437	274,367445	312,281521	0
15.01.2021	18:52:54	0	0	3,728359	1,4385	281,4084	0,302	84,982	0	1016,58	7	9	8,7	1	1	1	1	1	1	1	1	1	0	1	-11,205074	274,326632	309,905751	0
15.01.2021	18:52:55	0	0	3,389417	1,4595	278,8056	0,304	84,997	0	1016,6	7	9	8,7	1	1	1	1	1	1	1	1	1	0	1	-9,866103	274,337205	311,294228	0
15.01.2021	18:52:56	0	0	4,293261	1,50825	289,2528	0,304	85,005	0	1016,74	7	9	8,7	1	1	1	1	1	1	1	1	1	0	1	-9,020437	274,35988	312,246089	0
15.01.2021	18:52:57	0	0	4,180256	1,5675	272,8368	0,307	85	0	1016,66	7	9	8,8	1	1	1	1	1	1	1	1	1	0	1	-10,570825	274,329652	310,554142	0
15.01.2021	18:52:58	0	0	2,824497	1,62225	276,5196	0,307	85,015	0	1016,8	7	9	8,8	1	1	1	1	1	1	1	1	1	0	1	-7,117689	274,361393	314,155923	0
15.01.2021	18:52:59	0	0	2,937495	1,59375	276,1524	0,305	85,001	0	1016,72	7	9	8,7	1	1	1	1	1	1	1	1	1	0	1	-11,205074	274,242259	309,510882	0
15.01.2021	18:53:00	0	0	4,519223	1,569	278,7768	0,305	84,988	0	1016,68	7	9	8,7	1	1	1	1	1	1	1	1	1	0	1	-8,245243	274,365932	313,049627	0
15.01.2021	18:53:01	0	0	4,293236	1,54275	274,302	0,305	85	0	1016,78	7	9	8,8	1	1	1	1	1	1	1	1	1	0	1	-8,033827	274,255794	312,745449	0
15.01.2021	18:53:02	0	0	4,406216	1,4625	286,5888	0,305	85,003	0	1016,8	7	9	8,8	1	1	1	1	1	1	1	1	1	0	1	-4,087385	274,347783	317,122485	0
15.01.2021	18:53:03	0	0	4,971115	1,36875	272,0592	0,307	84,986	0	1016,78	7	9	8,8	1	1	1	1	1	1	1	1	1	0	1	-6,060606	274,222724	314,563982	0
15.01.2021	18:53:04	0	0	4,632175	1,3515	261,7236	0,304	84,988	0	1016,72	7	9	8,8	1	1	1	1	1	1	1	1	1	0	1	-5,144468	274,183716	315,29772	0
15.01.2021	18:53:05	0	0	4,745155	1,36575	261,0432	0,299	84,999	0	1016,6	7	9	8,8	1	1	1	1	1	1	1	1	1	0	1	-12,825934	274,31003	308,207163	0
15.01.2021	18:53:06	0	0	3,95432	1,371	260,982	0,306	84,996	0	1016,54	7	9	8,7	1	1	1	1	1	1	1	1	1	0	1	-11,346018	274,37804	310,005573	0
15.01.2021	18:53:07	0	0	2,824497	1,4805	268,416	0,303	84,982	0	1016,78	7	9	8,8	1	1	1	1	1	1	1	1	1	0	1	-6,131078	274,261812	314,676357	0
15.01.2021	18:53:08	0	0	3,954296	1,482	271,8972	0,304	84,981	0	1016,7	7	9	8,8	1	1	1	1	1	1	1	1	1	0	1	-8,879493	274,19421	311,611759	0
15.01.2021	18:53:09	0	0	2,824514	1,542	267,6888	0,305	84,985	0	1016,62	7,1	9	8,7	1	1	1	1	1	1	1	1	1	0	1	-8,386187	274,278374	312,498742	0
15.01.2021	18:53:10	0	0	2,372578	1,54125	273,942	0,306	84,97	0	1016,78	7,1	9	8,8	1	1	1	1	1	1	1	1	1	0	1	-9,161381	274,353831	312,076812	0
15.01.2021	18:53:11	0	0	4,067276	1,515	265,7484	0,296	84,97	0	1016,5	7,1	9	8,8	1	1	1	1	1	1	1	1	1	0	1	-11,698379	274,317575	309,370038	0
15.01.2021	18:53:12	0	0	3,163437	1,4505	265,7772	0,306	84,984	0	1016,56	6,8	9	8,8	1	1	1	1	1	1	1	1	1	0	1	-5,708245	274,35988	315,558281	0
15.01.2021	18:53:13	0	0	4,293261	1,3875	267,6852	0,304	84,972	0	1016,8	7	9	8,7	1	1	1	1	1	1	1	1	1	0	1	-13,530655	274,285906	307,389525	0
15.01.2021	18:53:14	0	0	3,502376	1,437	268,4592	0,301	84,977	0	1016,7	7	9	8,8	1	1	1	1	1	1	1	1	1	0	1	-11,909796	274,191211	308,567435	0
15.01.2021	18:53:15	0	0	4,971145	1,4835	271,764	0,307	84,978	0	1016,54	7	9	8,7	1	1	1	1	1	1	1	1	1	0	1	-12,403101	274,350807	308,820929	0
15.01.2021	18:53:16	0	0	2,372592	1,5255	274,9644	0,306	84,988	0	1016,8	7	9	8,7	1	1	1	1	1	1	1	1	1	0	1	-5,426357	274,219721	315,184185	0
15.01.2021	18:53:17	0	0	4,519223	1,47525	275,7348	0,306	84,987	0	1016,78	7	9	8,7	1	1	1	1	1	1	1	1	1	0	1	-10,782241	274,183716	309,659947	0
15.01.2021	18:53:18	0	0	2,937495	1,449	272,4372	0,307	84,964	0	1016,66	7	9	8,7	1	1	1	1	1	1	1	1	1	0	1	-6,412967	274,299472	314,570708	0
15.01.2021	18:53:19	0	0	3,050457	1,40775	279,1872	0,299	84,961	0	1016,68	7	9	8,8	1	1	1	1	1	1	1	1	1	0	1	-9,302326	274,297964	311,674291	0
15.01.2021	18:53:20	0	0	3,163437	1,37625	288,1044	0,305	84,967	0	1016,66	7	9	8,8	1	1	1	1	1	1	1	1	1	0	1	-8,245243	274,189712	312,224977	0
15.01.2021	18:53:21	0	0	3,050457	1,32825	279,7848	0,3	84,97	0	1016,64	7	9	8,8	1	1	1	1	1	1	1	1	1	0	1	-7,82241	274,252785	312,94279	0
15.01.2021	18:53:22	0	0	5,197075	1,302	280,638	0,303	84,981	0	1016,74	7,1	9	8,8	1	1	1	1	1	1	1	1	1	0	1	-10,711769	274,35988	310,554757	0
15.01.2021	18:53:23	0	0	3,615356	1,269	288,1224	0,295	84,959	0	1016,62	7	9	8,8	1	1	1	1	1	1	1	1	1	0	1	-7,610994	274,20321	312,922338	0
15.01.2021	18:53:24	0	0	4,067276	1,1505	304,6572	0,301	84,962	0	1016,58	7	9	8,8	1	1	1	1	1	1	1	1	1	0	1	-7,117689	274,364419	314,170095	0
15.01.2021	18:53:25	0	0	2,598537	1,07025	303,9444	0,301	84,97	0	1016,6	7	9	8,8	1	1	1	1	1	1	1	1	1	0	1	-8,245243	274,305504	312,766668	0
15.01.2021	18:53:26	0	0	4,067276	1,00425	293,328	0,302	84,965	0	1016,76	7	9	8,8	1	1	1	1	1	1	1	1	1	0	1	-8,033827	274,352319	313,197284	0
15.01.2021	18:53:27	0	0	2,372578	0,9675	284,1876	0,299	84,959	0	1016,74	7	9	8,8	1	1	1	1	1	1	1	1	1	0	1	-10,218464	274,311538	310,821696	0
15.01.2021	18:53:28	0	0	4,858135	0,9555	289,9548	0,301	84,956	0	1016,8	7	9	8,8	1	1	1	1	1	1	1	1	1	0	1	-9,231853	274,371985	312,091372	0
15.01.2021	18:53:29	0	0	3,728336	0,9735	302,0832	0,304	84,947	0	1016,68	7	9	8,8	1	1	1	1	1	1	1	1	1	0	1	-2,60747	274,255794	318,171806	0
15.01.2021	18:53:30	0	0	2,824497	1,07325	276,1344	0,301	84,956	0	1016,78	7,1	9	8,8	1	1	1	1	1	1	1	1	1	0	1	-8,174771	274,19721	312,330505	0
15.01.2021	18:53:31	0	0	3,728359	1,15725	279,126	0,304	84,947	0	1016,78	7,1	9	8,7	1	1	1	1	1	1	1	1	1	0	1	-9,44327	274,275361	311,427564	0
15.01.2021	18:53:32	0	0	3,389397	1,29975	294,7932	0,302	84,948	0	1016,58	7	9	8,8	1	1	1	1	1	1	1	1	1	0	1	-8,527132	274,191211	311,950098	0
15.01.2021	18:53:33	0	0	3,95432	1,491	273,4884	0,3	84,93	0	1016,82	7	9	8,7	1	1	1	1	1	1	1	1	1	0	1	-10,359408	274,261812	310,448027	0
15.01.2021	18:53:34	0	0	3,050457	1,59825	282,4416	0,304	84,939	0	1016,7	7,1	9	8,8	1	1	1	1	1	1	1	1	1	0	1	-6,976744	274,19421	313,514508	0
15.01.2021	18:53:35	0	0	4,067276	1,66725	281,3796	0,3	84,947	0	1016,64	7	9	8,8	1	1	1	1	1	1	1	1	1	0	1	-10,218464	274,249777	310,532663	0
15.01.2021	18:53:36	0	0	4,293236	1,6695	288,4716	0,306	84,945	0	1016,58	7	9	8,8	1	1	1	1	1	1	1	1	1	0	1	-7,681466	274,361393	313,592146	0
15.01.2021	18:53:37	0	0	3,841316	1,56	296,5212	0,304	84,949	0	1016,74	7	9	8,8	1	1	1	1	1	1	1	1	1	0	1	-11,346018	274,331163	309,78602	0
15.01.2021	18:53:38	0	0	3,276436	1,43925	301,3488	0,302	84,949	0	1016,7	6,8	9	8,7	1	1	1	1	1	1	1	1	1	0	1	-4,933051	274,204711	315,607296	0
15.01.2021	18:53:39	0	0	2,937495	1,32225	294,0732	0,301	84,952	0	1016,72	7	9	8,7	1	1	1	1	1	1	1	1	1	0	1	-10,711769	274,293441	310,24368	0
15.01.2021	18:53:40	0	0	2,937477	1,317	278,0136	0,305	84,946	0	1016,74	7	9	8,8	1	1	1	1	1	1	1	1	1	0	1	-11,839323	274,189712	308,630897	0
15.01.2021	18:53:41	0	0	4,180256	1,3635	275,364	0,301	84,951	0	1016,58	7,1	9	8,8	1	1	1	1	1	1	1	1	1	0	1	-8,174771	274,307013	312,844202	0
15.01.2021	18:53:42	0	0	4,067276	1,317	297,1836	0,3	84,932	0	1016,74	7	9	8,8	1	1	1	1	1	1	1	1	1	0	1	-7,82241	274,358368	313,437032	0
15.01.2021	18:53:43	0	0	3,276417	1,29075	293,6988	0,301	84,948	0	1016,74	7	9	8,8	1	1	1	1	1	1	1	1	1	0	1	-8,738548	274,291934	312,209845	0
15.01.2021	18:53:44	0	0	3,502398	1,263	290,0376	0,303	84,956	0	1016,8	7	9	8,7	1	1	1	1	1	1	1	1	1	0	1	-5,073996	274,356855	316,178362	0
15.01.2021	18:53:45	0	0	3,502398	1,23975	275,832	0,306	84,945	0	1016,7	7,1	9	8,7	1	1	1	1	1	1	1	1	1	0	1	-7,399577	274,320593	313,682974	0
15.01.2021	18:53:46	0	0	3,954296	1,19475	268,0704	0,307	84,928	0	1016,76	6,8	9	8,8	1	1	1	1	1	1	1	1	1	0	1	-11,41649	274,183716	309,025697	0
15.01.2021	18:53:47	0	0	4,519195	1,09125	276,7896	0,302	84,933	0	1016,7	7	9	8,8	1	1	1	1	1	1	1	1	1	0	1	-11,134602	274,291934	309,813792	0
15.01.2021	18:53:48	0	0	4,406216	1,03125	299,3076	0,303	84,93	0	1016,66	7	9	8,8	1	1	1	1	1	1	1	1	1	0	1	-9,302326	274,34476	311,893387	0
15.01.2021	18:53:49	0	0	2,937477	1,02975	305,352	0,301	84,943	0	1016,6	6,8	9	8,8	1	1	1	1	1	1	1	1	1	0	1	-9,513742	274,340227	311,66074	0
15.01.2021	18:53:50	0	0	2,937495	1,10175	305,0496	0,297	84,928	0	1016,52	7	9	8,7	1	1	1	1	1	1	1	1	1	0	1	-9,090909	274,307013	311,928063	0
15.01.2021	18:53:51	0	0	2,259598	1,16625	286,9992	0,302	84,943	0	1016,64	7,1	9	8,8	1	1	1	1	1	1	1	1	1	0	1	-6,20155	274,361393	315,072061	0
15.01.2021	18:53:52	0	0	2,598553	1,2465	306,8892	0,297	84,936	0	1016,66	7	9	8,7	1	1	1	1	1	1	1	1	1	0	1	-7,681466	274,227231	312,964197	0
15.01.2021	18:53:53	0	0	2,598537	1,26375	307,5552	0,303	84,942	0	1016,64	7	9	8,8	1	1	1	1	1	1	1	1	1	0	1	-5,567301	274,264822	315,254218	0
15.01.2021	18:53:54	0	0	4,745155	1,23	296,4636	0,302	84,937	0	1016,7	7	9	8,8	1	1	1	1	1	1	1	1	1	0	1	-5,003524	274,362906	316,277173	0
15.01.2021	18:53:55	0	0	5,423035	1,21125	303,2028	0,304	84,929	0	1016,58	7	9	8,8	1	1	1	1	1	1	1	1	1	0	1	-10,570825	274,326632	310,540001	0
15.01.2021	18:53:56	0	0	2,598537	1,2465	310,3884	0,298	84,925	0	1016,7	7	9	8,8	1	1	1	1	1	1	1	1	1	0	1	-10,147992	274,204711	310,392356	0
15.01.2021	18:53:57	0	0	4,180256	1,3425	312,1272	0,297	84,926	0	1016,68	7	9	8,8	1	1	1	1	1	1	1	1	1	0	1	-11,134602	274,185214	309,314593	0
15.01.2021	18:53:58	0	0	4,745184	1,398	313,578	0,301	84,95	0	1016,76	7,1	9	8,7	1	1	1	1	1	1	1	1	1	0	1	-6,765328	274,189712	313,704893	0
15.01.2021	18:53:59	0	0	5,084095	1,34775	302,3748	0,304	84,935	0	1016,78	7	9	8,8	1	1	1	1	1	1	1	1	1	0	1	-8,033827	274,35988	313,2327	0
15.01.2021	18:54:00	0	0	3,389397	1,266	297,1548	0,307	84,934	0	1016,64	7,1	9	8,8	1	1	1	1	1	1	1	1	1	0	1	-9,302326	274,191211	311,174905	0
15.01.2021	18:54:01	0	0	4,745155	1,2465	303,5412	0,296	84,93	0	1016,74	7	9	8,8	1	1	1	1	1	1	1	1	1	0	1	-10,923185	274,320593	310,159365	0
15.01.2021	18:54:02	0	0	4,745155	1,29	288,8172	0,3	84,941	0	1016,58	7,1	9	8,8	1	1	1	1	1	1	1	1	1	0	1	-7,610994	274,249777	313,140133	0
15.01.2021	18:54:03	0	0	3,163437	1,311	298,278	0,297	84,926	0	1016,64	7	9	8,8	1	1	1	1	1	1	1	1	1	0	1	-6,906272	274,183716	313,535916	0
15.01.2021	18:54:04	0	0	4,745184	1,38075	285,2172	0,299	84,913	0	1016,64	7,1	9	8,7	1	1	1	1	1	1	1	1	1	0	1	-11,346018	274,34476	309,849694	0
15.01.2021	18:54:05	0	0	5,084095	1,389	288,36	0,302	84,944	0	1016,7	7	9	8,8	1	1	1	1	1	1	1	1	1	0	1	-10,359408	274,222724	310,26518	0
15.01.2021	18:54:06	0	0	2,598537	1,40925	290,0484	0,305	84,921	0	1016,6	7,1	9	8,8	1	1	1	1	1	1	1	1	1	0	1	-10,288936	274,349295	310,928014	0
15.01.2021	18:54:07	0	0	4,180281	1,4925	284,76	0,3	84,919	0	1016,76	7,1	9	8,7	1	1	1	1	1	1	1	1	1	0	1	-11,698379	274,302488	309,299413	0
15.01.2021	18:54:08	0	0	3,050457	1,70025	291,1464	0,3	84,91	0	1016,64	7	9	8,8	1	1	1	1	1	1	1	1	1	0	1	-11,698379	274,350807	309,525651	0
15.01.2021	18:54:09	0	0	3,276417	2,08125	292,5864	0,3	84,914	0	1016,62	7	9	8,8	1	1	1	1	1	1	1	1	1	0	1	-8,597604	274,227231	312,048059	0
15.01.2021	18:54:10	0	0	3,841316	2,397	294,282	0,305	84,914	0	1016,64	6,8	9	8,8	1	1	1	1	1	1	1	1	1	0	1	-5,496829	274,355343	315,748446	0
15.01.2021	18:54:11	0	0	4,180256	2,51775	297,8856	0,304	84,91	0	1016,66	7,1	9	8,8	1	1	1	1	1	1	1	1	1	0	1	-9,725159	274,31003	311,307938	0
15.01.2021	18:54:12	0	0	4,0673	2,44125	286,9596	0,299	84,909	0	1016,56	7	9	8,7	1	1	1	1	1	1	1	1	1	0	1	-11,275546	274,182217	309,159635	0
15.01.2021	18:54:13	0	0	4,745155	2,41425	290,3724	0,298	84,92	0	1016,8	7	9	8,8	1	1	1	1	1	1	1	1	1	0	1	-8,033827	274,308521	312,992207	0
15.01.2021	18:54:14	0	0	4,180281	2,379	291,8376	0,299	84,91	0	1016,68	7,1	9	8,7	1	1	1	1	1	1	1	1	1	0	1	-11,698379	274,302488	309,299413	0
15.01.2021	18:54:15	0	0	4,519195	2,40375	289,9872	0,297	84,918	0	1016,72	7	9	8,8	1	1	1	1	1	1	1	1	1	0	1	-8,386187	274,365932	312,908683	0
15.01.2021	18:54:16	0	0	4,858135	2,466	288,4176	0,296	84,895	0	1016,64	7	9	8,8	1	1	1	1	1	1	1	1	1	0	1	-8,245243	274,275361	312,62559	0
15.01.2021	18:54:17	0	0	3,502376	2,49975	287,6904	0,299	84,921	0	1016,86	7	9	8,8	1	1	1	1	1	1	1	1	1	0	1	-6,553911	274,362906	314,726786	0
15.01.2021	18:54:18	0	0	3,050457	2,60775	289,6704	0,299	84,893	0	1016,54	7,1	9	8,8	1	1	1	1	1	1	1	1	1	0	1	-11,698379	274,236246	308,989451	0
15.01.2021	18:54:19	0	0	4,632175	2,66475	287,7336	0,297	84,902	0	1016,74	7	9	8,8	1	1	1	1	1	1	1	1	1	0	1	-6,906272	274,335694	314,246985	0
15.01.2021	18:54:20	0	0	4,406216	2,583	293,724	0,303	84,895	0	1016,68	7,1	9	8,8	1	1	1	1	1	1	1	1	1	0	1	-5,285412	274,186713	315,170791	0
15.01.2021	18:54:21	0	0	4,971115	2,52975	287,712	0,302	84,889	0	1016,66	7	9	8,8	1	1	1	1	1	1	1	1	1	0	1	-11,909796	274,296456	309,059765	0
15.01.2021	18:54:22	0	0	2,824497	2,43825	293,3748	0,304	84,903	0	1016,76	7,1	9	8,8	1	1	1	1	1	1	1	1	1	0	1	-6,272023	274,219721	314,338519	0
15.01.2021	18:54:23	0	0	2,937477	2,40375	282,6972	0,299	84,89	0	1016,6	7	9	8,8	1	1	1	1	1	1	1	1	1	0	1	-4,651163	274,294949	316,311341	0
15.01.2021	18:54:24	0	0	3,389376	2,418	281,7252	0,3	84,877	0	1016,66	7,1	9	8,9	1	1	1	1	1	1	1	1	1	0	1	-7,82241	274,218219	312,781109	0
15.01.2021	18:54:25	0	0	4,858135	2,436	275,7276	0,301	84,888	0	1016,54	7	9	8,8	1	1	1	1	1	1	1	1	1	0	1	-13,460183	274,332673	307,678927	0
15.01.2021	18:54:26	0	0	3,050457	2,32725	278,7516	0,306	84,901	0	1016,7	7	9	8,8	1	1	1	1	1	1	1	1	1	0	1	-5,919662	274,206211	314,627702	0
15.01.2021	18:54:27	0	0	2,937495	2,2095	279,8568	0,302	84,885	0	1016,5	7,1	9	8,7	1	1	1	1	1	1	1	1	1	0	1	-8,45666	274,34476	312,739053	0
15.01.2021	18:54:28	0	0	2,711517	2,18925	270,2736	0,297	84,905	0	1016,66	7,1	9	8,8	1	1	1	1	1	1	1	1	1	0	1	-13,389711	274,20171	307,136606	0
15.01.2021	18:54:29	0	0	4,632203	2,20125	290,3436	0,294	84,904	0	1016,72	7	9	8,7	1	1	1	1	1	1	1	1	1	0	1	-6,765328	274,299472	314,218347	0
15.01.2021	18:54:30	0	0	3,841316	2,20875	276,804	0,294	84,89	0	1016,68	7,1	9	8,8	1	1	1	1	1	1	1	1	1	0	1	-11,557435	274,350807	309,666595	0
15.01.2021	18:54:31	0	0	2,824514	2,14275	276,9444	0,306	84,901	0	1016,68	7,1	9	8,7	1	1	1	1	1	1	1	1	1	0	1	-2,396054	274,293441	318,559395	0
15.01.2021	18:54:32	0	0	2,033638	2,0685	272,484	0,303	84,903	0	1016,84	7,1	9	8,8	1	1	1	1	1	1	1	1	1	0	1	-7,892882	274,188213	312,570329	0
15.01.2021	18:54:33	0	0	4,180256	2,08275	277,2504	0,302	84,901	0	1016,76	7,1	9	8,8	1	1	1	1	1	1	1	1	1	0	1	-7,892882	274,216718	312,703615	0
15.01.2021	18:54:34	0	0	3,728359	2,08725	274,6548	0,304	84,9	0	1016,66	7,1	9	8,7	1	1	1	1	1	1	1	1	1	0	1	-7,470049	274,337205	313,690282	0
15.01.2021	18:54:35	0	0	3,615356	2,07225	288,3924	0,302	84,901	0	1016,64	7,1	9	8,8	1	1	1	1	1	1	1	1	1	0	1	-9,725159	274,329652	311,399808	0
15.01.2021	18:54:36	0	0	4,632175	2,02875	299,0952	0,296	84,896	0	1016,66	7,1	9	8,8	1	1	1	1	1	1	1	1	1	0	1	-4,933051	274,19871	315,579237	0
15.01.2021	18:54:37	0	0	4,519223	1,9515	293,3424	0,305	84,914	0	1016,72	6,8	9	8,7	1	1	1	1	1	1	1	1	1	0	1	-9,936575	274,170231	310,442578	0
15.01.2021	18:54:38	0	0	4,745155	1,95	294,084	0,299	84,882	0	1016,7	6,8	9	8,8	1	1	1	1	1	1	1	1	1	0	1	-8,033827	274,297964	312,94279	0
15.01.2021	18:54:39	0	0	3,163437	1,8975	300,51	0,297	84,885	0	1016,6	6,8	9	8,8	1	1	1	1	1	1	1	1	1	0	1	-4,157858	274,188213	316,305354	0
15.01.2021	18:54:40	0	0	3,276417	1,83975	292,6044	0,296	84,892	0	1016,68	7,1	9	8,8	1	1	1	1	1	1	1	1	1	0	1	-9,231853	274,267833	311,603752	0
15.01.2021	18:54:41	0	0	4,406216	1,779	292,9716	0,302	84,893	0	1016,78	6,8	9	8,8	1	1	1	1	1	1	1	1	1	0	1	-8,104299	274,362906	313,176398	0
15.01.2021	18:54:42	0	0	3,050457	1,7355	291,8736	0,298	84,894	0	1016,62	6,8	9	8,8	1	1	1	1	1	1	1	1	1	0	1	-8,315715	274,246769	312,421341	0
15.01.2021	18:54:43	0	0	4,632175	1,71225	285,5556	0,303	84,886	0	1016,74	7,1	9	8,8	1	1	1	1	1	1	1	1	1	0	1	-6,060606	274,349295	315,156344	0
15.01.2021	18:54:44	0	0	4,632175	1,5615	277,5852	0,295	84,881	0	1016,66	7,1	9	8,8	1	1	1	1	1	1	1	1	1	0	1	-7,681466	274,273855	313,182321	0
15.01.2021	18:54:45	0	0	2,598553	1,58475	267,4548	0,289	84,886	0	1016,64	7,1	9	8,7	1	1	1	1	1	1	1	1	1	0	1	-7,188161	274,352319	314,04295	0
15.01.2021	18:54:46	0	0	4,0673	1,63275	275,7816	0,294	84,894	0	1016,64	7,1	9	8,7	1	1	1	1	1	1	1	1	1	0	1	-7,963354	274,30098	313,027378	0
15.01.2021	18:54:47	0	0	4,0673	1,602	291,1644	0,303	84,883	0	1016,68	7,1	9	8,7	1	1	1	1	1	1	1	1	1	0	1	-8,738548	274,353831	312,499645	0
15.01.2021	18:54:48	0	0	2,937477	1,54575	286,2216	0,302	84,881	0	1016,66	7,1	9	8,8	1	1	1	1	1	1	1	1	1	0	1	-9,866103	274,23324	310,807669	0
15.01.2021	18:54:49	0	0	2,598553	1,57875	279,9036	0,298	84,892	0	1016,74	7	9	8,7	1	1	1	1	1	1	1	1	1	0	1	-8,104299	274,340227	313,070183	0
15.01.2021	18:54:50	0	0	4,180281	1,61175	285,516	0,302	84,896	0	1016,8	7,1	9	8,7	1	1	1	1	1	1	1	1	1	0	1	-5,84919	274,285906	315,070991	0
15.01.2021	18:54:51	0	0	2,711534	1,61325	277,6248	0,304	84,894	0	1016,76	7,1	9	8,7	1	1	1	1	1	1	1	1	1	0	1	-5,778717	274,361393	315,494894	0
15.01.2021	18:54:52	0	0	3,95432	1,76025	277,5708	0,301	84,891	0	1016,78	6,8	9	8,7	1	1	1	1	1	1	1	1	1	0	1	-6,20155	274,299472	314,782124	0
15.01.2021	18:54:53	0	0	2,824514	1,74525	278,1108	0,306	84,884	0	1016,68	7	9	8,7	1	1	1	1	1	1	1	1	1	0	1	-8,386187	274,350807	312,837843	0
15.01.2021	18:54:54	0	0	2,598537	1,77075	285,1596	0,301	84,89	0	1016,76	6,8	9	8,8	1	1	1	1	1	1	1	1	1	0	1	-7,399577	274,364419	313,888206	0
15.01.2021	18:54:55	0	0	4,519223	1,8	286,668	0,295	84,885	0	1016,78	7,1	9	8,7	1	1	1	1	1	1	1	1	1	0	1	-4,087385	274,302488	316,910406	0
15.01.2021	18:54:56	0	0	3,050457	1,7385	298,9764	0,292	84,877	0	1016,64	6,8	9	8,8	1	1	1	1	1	1	1	1	1	0	1	-10,923185	274,358368	310,336257	0
15.01.2021	18:54:57	0	0	4,745155	1,63275	293,6304	0,296	84,884	0	1016,62	7,1	9	8,8	1	1	1	1	1	1	1	1	1	0	1	-4,721635	274,332673	316,417475	0
15.01.2021	18:54:58	0	0	3,050457	1,64325	280,2132	0,298	84,882	0	1016,76	7	9	8,8	1	1	1	1	1	1	1	1	1	0	1	-7,82241	274,358368	313,437032	0
15.01.2021	18:54:59	0	0	3,163437	1,73175	286,236	0,3	84,894	0	1016,66	7,1	9	8,8	1	1	1	1	1	1	1	1	1	0	1	-12,544045	274,267833	308,291561	0
15.01.2021	18:55:00	0	0	4,067276	1,86825	291,2112	0,295	84,883	0	1016,6	7,1	9	8,8	1	1	1	1	1	1	1	1	1	0	1	-9,231853	274,174725	311,168306	0
15.01.2021	18:55:01	0	0	4,180281	1,98	293,3316	0,303	84,884	0	1016,66	7,1	9	8,7	1	1	1	1	1	1	1	1	1	0	1	-8,738548	274,237749	311,956313	0
15.01.2021	18:55:02	0	0	4,067276	2,07825	294,4368	0,299	84,877	0	1016,58	7,1	9	8,8	1	1	1	1	1	1	1	1	1	0	1	-13,530655	274,337205	307,629676	0
15.01.2021	18:55:03	0	0	4,180256	2,12625	294,7356	0,297	84,893	0	1016,82	7,1	9	8,8	1	1	1	1	1	1	1	1	1	0	1	-6,131078	274,331163	315,00096	0
15.01.2021	18:55:04	0	0	3,728359	2,06925	287,7048	0,296	84,878	0	1016,7	7,1	9	8,7	1	1	1	1	1	1	1	1	1	0	1	-6,8358	274,162743	313,508358	0
15.01.2021	18:55:05	0	0	4,293261	2,00925	291,186	0,298	84,902	0	1016,82	7,1	9	8,7	1	1	1	1	1	1	1	1	1	0	1	-7,540521	274,222724	313,084066	0
15.01.2021	18:55:06	0	0	2,598537	1,94325	298,602	0,298	84,891	0	1016,76	6,8	9	8,8	1	1	1	1	1	1	1	1	1	0	1	-9,654686	274,210713	310,913731	0
15.01.2021	18:55:07	0	0	4,293236	1,85625	292,8924	0,301	84,885	0	1016,74	7	9	8,8	1	1	1	1	1	1	1	1	1	0	1	-10,782241	274,350807	310,441789	0
15.01.2021	18:55:08	0	0	2,937477	1,8615	294,7392	0,299	84,896	0	1016,7	7,1	9	8,8	1	1	1	1	1	1	1	1	1	0	1	-6,553911	274,269338	314,288739	0
15.01.2021	18:55:09	0	0	2,824497	1,8735	296,5176	0,307	84,902	0	1016,68	7,1	9	8,8	1	1	1	1	1	1	1	1	1	0	1	-11,346018	274,171729	309,040136	0
15.01.2021	18:55:10	0	0	4,293236	1,90875	294,0984	0,297	84,888	0	1016,62	7,1	9	8,8	1	1	1	1	1	1	1	1	1	0	1	-13,03735	274,290427	307,903989	0
15.01.2021	18:55:11	0	0	4,293236	1,9065	296,0676	0,299	84,881	0	1016,66	7,1	9	8,8	1	1	1	1	1	1	1	1	1	0	1	-4,298802	274,188213	316,164409	0
15.01.2021	18:55:12	0	0	2,937477	1,878	288,486	0,301	84,887	0	1016,66	7,1	9	8,8	1	1	1	1	1	1	1	1	1	0	1	-8,033827	274,267833	312,801779	0
15.01.2021	18:55:13	0	0	4,858135	1,911	276,1416	0,302	84,891	0	1016,42	6,8	9	8,8	1	1	1	1	1	1	1	1	1	0	1	-8,245243	274,185214	312,203952	0
15.01.2021	18:55:14	0	0	4,858164	2,0565	276,5592	0,296	84,885	0	1016,68	7,1	9	8,7	1	1	1	1	1	1	1	1	1	0	1	-9,725159	274,308521	311,300876	0
15.01.2021	18:55:15	0	0	2,711534	2,18325	277,1712	0,301	84,901	0	1016,8	7	9	8,7	1	1	1	1	1	1	1	1	1	0	1	-10,500352	274,186713	309,955851	0
15.01.2021	18:55:16	0	0	3,276417	2,1915	274,662	0,299	84,886	0	1016,7	7,1	9	8,8	1	1	1	1	1	1	1	1	1	0	1	-7,188161	274,322103	313,901458	0
15.01.2021	18:55:17	0	0	4,519195	2,1555	275,7312	0,304	84,899	0	1016,72	7,1	9	8,8	1	1	1	1	1	1	1	1	1	0	1	-9,936575	274,362906	311,344122	0
15.01.2021	18:55:18	0	0	3,163437	2,20725	279,108	0,298	84,897	0	1016,62	7,1	9	8,8	1	1	1	1	1	1	1	1	1	0	1	-10,359408	274,367445	310,94255	0
15.01.2021	18:55:19	0	0	4,632203	2,265	286,5204	0,291	84,893	0	1016,66	6,8	9	8,7	1	1	1	1	1	1	1	1	1	0	1	-11,41649	274,254289	309,355747	0
15.01.2021	18:55:20	0	0	3,163437	2,28975	290,3724	0,301	84,879	0	1016,76	7	9	8,8	1	1	1	1	1	1	1	1	1	0	1	-11,486963	274,23324	309,186809	0
15.01.2021	18:55:21	0	0	3,728336	2,157	279,9252	0,298	84,885	0	1016,82	7,1	9	8,8	1	1	1	1	1	1	1	1	1	0	1	-8,245243	274,368958	313,063804	0
15.01.2021	18:55:22	0	0	3,841316	1,9635	292,194	0,299	84,9	0	1016,66	7,1	9	8,8	1	1	1	1	1	1	1	1	1	0	1	-7,047216	274,313047	314,000006	0
15.01.2021	18:55:23	0	0	3,050475	1,79325	285,9228	0,3	84,888	0	1016,64	7,1	9	8,7	1	1	1	1	1	1	1	1	1	0	1	-13,460183	274,192711	307,024057	0
15.01.2021	18:55:24	0	0	3,163456	1,69575	284,472	0,301	84,9	0	1016,7	7,1	9	8,7	1	1	1	1	1	1	1	1	1	0	1	-11,205074	274,287413	309,722159	0
15.01.2021	18:55:25	0	0	2,03365	1,635	280,422	0,295	84,887	0	1016,7	7,1	9	8,7	1	1	1	1	1	1	1	1	1	0	1	-9,372798	274,227231	311,272865	0
15.01.2021	18:55:26	0	0	3,276417	1,72125	297,5724	0,302	84,897	0	1016,6	7	9	8,8	1	1	1	1	1	1	1	1	1	0	1	-10,570825	274,258803	310,22253	0
15.01.2021	18:55:27	0	0	2,372578	1,80675	289,17	0,302	84,882	0	1016,58	7,1	9	8,8	1	1	1	1	1	1	1	1	1	0	1	-12,614517	274,189712	307,855703	0
15.01.2021	18:55:28	0	0	4,971115	1,845	288,7596	0,298	84,89	0	1016,7	7	9	8,8	1	1	1	1	1	1	1	1	1	0	1	-11,698379	274,284399	309,21475	0
15.01.2021	18:55:29	0	0	3,389417	1,8915	292,1724	0,299	84,894	0	1016,84	7,1	9	8,7	1	1	1	1	1	1	1	1	1	0	1	-7,540521	274,368958	313,768525	0
15.01.2021	18:55:30	0	0	4,180281	1,923	282,7548	0,304	84,894	0	1016,7	7,1	9	8,7	1	1	1	1	1	1	1	1	1	0	1	-9,513742	274,303996	311,491109	0
15.01.2021	18:55:31	0	0	4,406242	1,8945	306,126	0,301	84,895	0	1016,66	7,1	9	8,7	1	1	1	1	1	1	1	1	1	0	1	-9,44327	274,257298	311,343045	0
15.01.2021	18:55:32	0	0	2,711517	1,767	296,4384	0,299	84,882	0	1016,64	7,1	9	8,8	1	1	1	1	1	1	1	1	1	0	1	-8,033827	274,35988	313,2327	0
15.01.2021	18:55:33	0	0	3,954296	1,644	287,7264	0,299	84,871	0	1016,78	7	9	8,8	1	1	1	1	1	1	1	1	1	0	1	-5,84919	274,23324	314,824582	0
15.01.2021	18:55:34	0	0	4,0673	1,6185	297,9144	0,302	84,879	0	1016,62	7,1	9	8,7	1	1	1	1	1	1	1	1	1	0	1	-6,8358	274,367445	314,466158	0
15.01.2021	18:55:35	0	0	3,163437	1,7805	279,1152	0,302	84,889	0	1016,76	7,1	9	8,8	1	1	1	1	1	1	1	1	1	0	1	-8,879493	274,290427	312,061847	0
15.01.2021	18:55:36	0	0	2,824514	2,1915	297,3024	0,303	84,877	0	1016,74	7	9	8,7	1	1	1	1	1	1	1	1	1	0	1	-9,936575	274,185214	310,51262	0
15.01.2021	18:55:37	0	0	2,485558	2,48325	296,0136	0,3	84,883	0	1016,74	7,1	9	8,8	1	1	1	1	1	1	1	1	1	0	1	-5,84919	274,294949	315,113314	0
15.01.2021	18:55:38	0	0	4,632203	2,5245	292,6368	0,301	84,861	0	1016,64	7,1	9	8,7	1	1	1	1	1	1	1	1	1	0	1	-6,906272	274,358368	314,35317	0
15.01.2021	18:55:39	0	0	2,711534	2,46975	308,1564	0,302	84,89	0	1016,74	7,1	9	8,7	1	1	1	1	1	1	1	1	1	0	1	-14,65821	274,249777	306,092917	0
15.01.2021	18:55:40	0	0	4,180256	2,40375	300,1068	0,302	84,872	0	1016,66	7,1	9	8,8	1	1	1	1	1	1	1	1	1	0	1	-11,839323	274,365932	309,455547	0
15.01.2021	18:55:41	0	0	3,615356	2,41575	299,304	0,302	84,865	0	1016,7	7,1	9	8,8	1	1	1	1	1	1	1	1	1	0	1	-9,513742	274,282893	311,392336	0
15.01.2021	18:55:42	0	0	4,293261	2,56875	298,6272	0,301	84,883	0	1016,8	7,1	9	8,7	1	1	1	1	1	1	1	1	1	0	1	-4,087385	274,185214	316,36181	0
15.01.2021	18:55:43	0	0	4,0673	2,69625	311,6952	0,299	84,877	0	1016,72	7,1	9	8,7	1	1	1	1	1	1	1	1	1	0	1	-7,329105	274,221223	313,288459	0
15.01.2021	18:55:44	0	0	4,180281	2,81625	304,9812	0,303	84,875	0	1016,68	7,1	9	8,7	1	1	1	1	1	1	1	1	1	0	1	-4,651163	274,350807	316,572867	0
15.01.2021	18:55:45	0	0	2,372592	2,8185	300,4596	0,304	84,878	0	1016,56	6,8	9	8,7	1	1	1	1	1	1	1	1	1	0	1	-7,610994	274,293441	313,344455	0
15.01.2021	18:55:46	0	0	2,598553	2,75325	292,2876	0,302	84,882	0	1016,66	7	9	8,7	1	1	1	1	1	1	1	1	1	0	1	-10,42988	274,352319	310,801231	0
15.01.2021	18:55:47	0	0	3,050457	2,805	289,5516	0,305	84,873	0	1016,68	7,1	9	8,8	1	1	1	1	1	1	1	1	1	0	1	-4,087385	274,19721	316,41789	0
15.01.2021	18:55:48	0	0	3,615356	2,808	289,5804	0,297	84,87	0	1016,52	7,1	9	8,8	1	1	1	1	1	1	1	1	1	0	1	-10,077519	274,371985	311,245706	0
15.01.2021	18:55:49	0	0	2,937477	2,8065	294,0552	0,298	84,868	0	1016,6	7,1	9	8,8	1	1	1	1	1	1	1	1	1	0	1	-5,21494	274,284399	315,698189	0
15.01.2021	18:55:50	0	0	2,259611	2,72625	281,0412	0,304	84,848	0	1016,66	7	9	8,7	1	1	1	1	1	1	1	1	1	0	1	-9,936575	274,19421	310,554677	0
15.01.2021	18:55:51	0	0	3,841339	2,69625	290,0664	0,301	84,852	0	1016,5	7,1	9	8,7	1	1	1	1	1	1	1	1	1	0	1	-6,483439	274,249777	314,267688	0
15.01.2021	18:55:52	0	0	4,971115	2,6085	284,4108	0,3	84,879	0	1016,8	7	9	8,8	1	1	1	1	1	1	1	1	1	0	1	-5,919662	274,365932	315,375209	0
15.01.2021	18:55:53	0	0	4,745155	2,51025	285,4728	0,303	84,876	0	1016,62	7,1	9	8,8	1	1	1	1	1	1	1	1	1	0	1	-7,399577	274,239252	313,302315	0
15.01.2021	18:55:54	0	0	4,632175	2,37975	290,0376	0,304	84,877	0	1016,56	7,1	9	8,8	1	1	1	1	1	1	1	1	1	0	1	-10,077519	274,356855	311,174839	0
15.01.2021	18:55:55	0	0	3,502398	2,26275	291,1788	0,301	84,881	0	1016,64	7,1	9	8,7	1	1	1	1	1	1	1	1	1	0	1	-11,980268	274,317575	309,08815	0
15.01.2021	18:55:56	0	0	2,259611	2,23275	294,3936	0,299	84,888	0	1016,66	7,1	9	8,7	1	1	1	1	1	1	1	1	1	0	1	-11,698379	274,189712	308,771841	0
15.01.2021	18:55:57	0	0	3,841316	2,17125	299,0268	0,305	84,868	0	1016,62	7	9	8,8	1	1	1	1	1	1	1	1	1	0	1	-7,610994	274,290427	313,330346	0
15.01.2021	18:55:58	0	0	2,711517	2,18175	304,6464	0,306	84,876	0	1016,56	7,1	9	8,8	1	1	1	1	1	1	1	1	1	0	1	-8,45666	274,191211	312,020571	0
15.01.2021	18:55:59	0	0	3,389397	2,2275	292,6332	0,302	84,866	0	1016,6	7,1	9	8,8	1	1	1	1	1	1	1	1	1	0	1	-7,188161	274,293441	313,767288	0
15.01.2021	18:56:00	0	0	4,519223	2,24025	295,5528	0,3	84,862	0	1016,76	7,1	9	8,7	1	1	1	1	1	1	1	1	1	0	1	-7,047216	274,368958	314,26183	0
15.01.2021	18:56:01	0	0	4,519223	2,24025	295,5528	0,3	84,862	0	1016,76	7,1	9	8,7	1	1	1	1	1	1	1	1	1	0	1	-13,248767	274,257298	307,537548	0
15.01.2021	18:56:02	0	0	1,92067	2,283	288,1512	0,301	84,87	0	1016,62	7,1	9	8,7	1	1	1	1	1	1	1	1	1	0	1	-9,302326	274,183716	311,139862	0
15.01.2021	18:56:03	0	0	3,502398	2,2785	296,874	0,305	84,873	0	1016,72	6,8	9	8,7	1	1	1	1	1	1	1	1	1	0	1	-8,315715	274,19721	312,189561	0
15.01.2021	18:56:04	0	0	4,632175	2,316	294,12	0,3	84,869	0	1016,74	7	9	8,8	1	1	1	1	1	1	1	1	1	0	1	-9,513742	274,243762	311,209246	0
15.01.2021	18:56:05	0	0	4,406242	2,38725	290,4912	0,297	84,879	0	1016,64	7,1	9	8,7	1	1	1	1	1	1	1	1	1	0	1	-10,852713	274,371985	310,470512	0
15.01.2021	18:56:06	0	0	4,406216	2,43	291,4704	0,306	84,884	0	1016,7	7,1	9	8,8	1	1	1	1	1	1	1	1	1	0	1	-6,131078	274,370471	315,185058	0
15.01.2021	18:56:07	0	0	2,485572	2,4225	298,2996	0,309	84,872	0	1016,52	7,1	9	8,7	1	1	1	1	1	1	1	1	1	0	1	-6,976744	274,243762	313,746244	0
15.01.2021	18:56:08	0	0	4,632203	2,38425	292,608	0,302	84,878	0	1016,8	7,1	9	8,7	1	1	1	1	1	1	1	1	1	0	1	-6,483439	274,365932	314,811431	0
15.01.2021	18:56:09	0	0	3,615378	2,30625	300,4416	0,3	84,871	0	1016,72	6,8	9	8,7	1	1	1	1	1	1	1	1	1	0	1	-3,664553	274,316065	317,396799	0
15.01.2021	18:56:10	0	0	3,841316	2,29875	294,3972	0,302	84,875	0	1016,66	7,1	9	8,8	1	1	1	1	1	1	1	1	1	0	1	-7,470049	274,23324	313,203723	0
15.01.2021	18:56:11	0	0	2,937495	2,3325	299,7288	0,305	84,882	0	1016,66	7	9	8,7	1	1	1	1	1	1	1	1	1	0	1	-8,597604	274,20021	311,921699	0
15.01.2021	18:56:12	0	0	3,954296	2,47125	295,0848	0,304	84,896	0	1016,82	7,1	9	8,8	1	1	1	1	1	1	1	1	1	0	1	-10,288936	274,371985	311,03429	0
15.01.2021	18:56:13	0	0	3,050475	2,6565	290,8296	0,304	84,879	0	1016,76	7,1	9	8,7	1	1	1	1	1	1	1	1	1	0	1	-10,42988	274,325122	310,673875	0
15.01.2021	18:56:14	0	0	3,389397	2,4975	288,1008	0,3	84,878	0	1016,74	7	9	8,8	1	1	1	1	1	1	1	1	1	0	1	-3,735025	274,20321	316,798307	0
15.01.2021	18:56:15	0	0	3,050457	2,24325	279,4788	0,294	84,873	0	1016,54	7	9	8,8	1	1	1	1	1	1	1	1	1	0	1	-7,047216	274,319084	314,028268	0
15.01.2021	18:56:16	0	0	4,632203	2,1495	276,8832	0,308	84,89	0	1016,72	7	9	8,7	1	1	1	1	1	1	1	1	1	0	1	-7,117689	274,191211	313,359542	0
15.01.2021	18:56:17	0	0	3,163437	2,145	294,1308	0,307	84,883	0	1016,82	7,1	9	8,8	1	1	1	1	1	1	1	1	1	0	1	-8,879493	274,251281	311,878671	0
15.01.2021	18:56:18	0	0	3,502398	2,1435	281,394	0,304	84,863	0	1016,66	7,1	9	8,7	1	1	1	1	1	1	1	1	1	0	1	-9,161381	274,365932	312,133489	0
15.01.2021	18:56:19	0	0	4,180256	2,13	281,0016	0,302	84,886	0	1016,66	7	9	8,8	1	1	1	1	1	1	1	1	1	0	1	-5,426357	274,281386	315,472671	0
15.01.2021	18:56:20	0	0	3,615356	2,07675	283,6008	0,311	84,888	0	1016,68	7	9	8,8	1	1	1	1	1	1	1	1	1	0	1	-8,597604	274,370471	312,718532	0
15.01.2021	18:56:21	0	0	3,728359	1,92975	291,8556	0,301	84,881	0	1016,62	7,1	9	8,7	1	1	1	1	1	1	1	1	1	0	1	-9,936575	274,323613	311,160112	0
15.01.2021	18:56:22	0	0	3,502376	1,791	294,4296	0,304	84,884	0	1016,54	7,1	9	8,8	1	1	1	1	1	1	1	1	1	0	1	-6,8358	274,225728	313,802837	0
15.01.2021	18:56:23	0	0	4,180256	1,656	278,028	0,306	84,882	0	1016,66	7,1	9	8,8	1	1	1	1	1	1	1	1	1	0	1	-8,45666	274,19721	312,048616	0
15.01.2021	18:56:24	0	0	4,745184	1,5765	273,5136	0,302	84,889	0	1016,58	7,1	9	8,7	1	1	1	1	1	1	1	1	1	0	1	-8,104299	274,237749	312,590562	0
15.01.2021	18:56:25	0	0	4,745155	1,55025	286,2144	0,309	84,897	0	1016,68	7,1	9	8,8	1	1	1	1	1	1	1	1	1	0	1	-9,231853	274,207712	311,322528	0
15.01.2021	18:56:26	0	0	4,519195	1,53825	293,2884	0,305	84,89	0	1016,76	7	9	8,8	1	1	1	1	1	1	1	1	1	0	1	-9,936575	274,30098	311,054158	0
15.01.2021	18:56:27	0	0	3,615378	1,47	278,1756	0,305	84,885	0	1016,64	7,1	9	8,7	1	1	1	1	1	1	1	1	1	0	1	-11,768851	274,206211	308,778513	0
15.01.2021	18:56:28	0	0	4,858135	1,4895	279,8316	0,308	84,889	0	1016,68	7,1	9	8,8	1	1	1	1	1	1	1	1	1	0	1	-8,386187	274,34476	312,809525	0
15.01.2021	18:56:29	0	0	3,163418	1,575	283,2084	0,307	84,896	0	1016,68	7	9	8,9	1	1	1	1	1	1	1	1	1	0	1	-6,553911	274,189712	313,916309	0
15.01.2021	18:56:30	0	0	4,632175	1,65825	290,448	0,303	84,894	0	1016,72	7,1	9	8,8	1	1	1	1	1	1	1	1	1	0	1	-8,738548	274,284399	312,174581	0
15.01.2021	18:56:31	0	0	4,971145	1,69425	292,6872	0,305	84,88	0	1016,54	7	9	8,7	1	1	1	1	1	1	1	1	1	0	1	-12,473573	274,216718	308,122924	0
15.01.2021	18:56:32	0	0	4,293236	1,7265	299,4264	0,302	84,885	0	1016,66	7,1	9	8,8	1	1	1	1	1	1	1	1	1	0	1	-10,852713	274,326632	310,258112	0
15.01.2021	18:56:33	0	0	3,502376	1,7715	299,0448	0,307	84,89	0	1016,74	7	9	8,8	1	1	1	1	1	1	1	1	1	0	1	-7,681466	274,341738	313,500092	0
15.01.2021	18:56:34	0	0	3,841316	1,824	303,516	0,302	84,878	0	1016,62	7,1	9	8,8	1	1	1	1	1	1	1	1	1	0	1	-9,866103	274,365932	311,428768	0
15.01.2021	18:56:35	0	0	4,632175	1,80375	298,0152	0,306	84,897	0	1016,66	7	9	8,8	1	1	1	1	1	1	1	1	1	0	1	-9,584214	274,334184	311,561969	0
15.01.2021	18:56:36	0	0	4,293261	1,79325	285,2064	0,302	84,882	0	1016,68	7	9	8,7	1	1	1	1	1	1	1	1	1	0	1	-6,765328	274,186713	313,690875	0
15.01.2021	18:56:37	0	0	2,372578	1,7535	299,376	0,305	84,896	0	1016,7	7,1	9	8,8	1	1	1	1	1	1	1	1	1	0	1	-10,641297	274,31003	310,3918	0
15.01.2021	18:56:38	0	0	4,632175	1,72725	301,2192	0,306	84,886	0	1016,6	7,1	9	8,8	1	1	1	1	1	1	1	1	1	0	1	-4,721635	274,376526	316,622864	0
15.01.2021	18:56:39	0	0	3,389397	1,6995	293,2992	0,301	84,885	0	1016,68	7	9	8,8	1	1	1	1	1	1	1	1	1	0	1	-7,470049	274,263317	313,344428	0
15.01.2021	18:56:40	0	0	4,180256	1,749	304,6248	0,303	84,867	0	1016,68	7	9	8,8	1	1	1	1	1	1	1	1	1	0	1	-10,007047	274,188213	310,456164	0
15.01.2021	18:56:41	0	0	2,824514	1,773	296,8416	0,306	84,894	0	1016,6	7,1	9	8,7	1	1	1	1	1	1	1	1	1	0	1	-13,883016	274,284399	307,030113	0
15.01.2021	18:56:42	0	0	4,180281	1,85325	301,9968	0,297	84,876	0	1016,56	7,1	9	8,7	1	1	1	1	1	1	1	1	1	0	1	-10,288936	274,364419	310,998848	0
15.01.2021	18:56:43	0	0	4,519195	1,917	289,6272	0,306	84,885	0	1016,6	7	9	8,8	1	1	1	1	1	1	1	1	1	0	1	-8,527132	274,287413	312,400101	0
15.01.2021	18:56:44	0	0	2,824497	1,95	297,4788	0,31	84,884	0	1016,8	7,1	9	8,8	1	1	1	1	1	1	1	1	1	0	1	-6,131078	274,20021	314,388224	0
15.01.2021	18:56:45	0	0	4,519195	1,9365	291,4344	0,306	84,88	0	1016,6	7,1	9	8,8	1	1	1	1	1	1	1	1	1	0	1	-11,698379	274,260308	309,102015	0
15.01.2021	18:56:46	0	0	3,95432	1,88925	299,8008	0,305	84,88	0	1016,58	7,1	9	8,7	1	1	1	1	1	1	1	1	1	0	1	-7,610994	274,19571	312,88727	0
15.01.2021	18:56:47	0	0	3,163456	1,84875	298,3896	0,302	84,869	0	1016,58	7,1	9	8,7	1	1	1	1	1	1	1	1	1	0	1	-13,460183	274,237749	307,234678	0
15.01.2021	18:56:48	0	0	2,259598	1,8105	296,1324	0,306	84,872	0	1016,8	7,1	9	8,8	1	1	1	1	1	1	1	1	1	0	1	-11,275546	274,381068	310,090232	0
15.01.2021	18:56:49	0	0	2,598537	1,752	296,4852	0,302	84,872	0	1016,68	7,1	9	8,8	1	1	1	1	1	1	1	1	1	0	1	-11,486963	274,352319	309,744148	0
15.01.2021	18:56:50	0	0	3,389417	1,71075	298,6128	0,309	84,884	0	1016,8	7,1	9	8,7	1	1	1	1	1	1	1	1	1	0	1	-12,614517	274,375012	308,72289	0
15.01.2021	18:56:51	0	0	3,95432	1,677	299,34	0,306	84,869	0	1016,7	7	9	8,7	1	1	1	1	1	1	1	1	1	0	1	-8,527132	274,358368	312,73231	0
15.01.2021	18:56:52	0	0	2,937477	1,62975	301,212	0,305	84,869	0	1016,56	7	9	8,8	1	1	1	1	1	1	1	1	1	0	1	-12,896406	274,192711	307,587835	0
15.01.2021	18:56:53	0	0	3,615356	1,614	292,5252	0,305	84,874	0	1016,74	7,1	9	8,8	1	1	1	1	1	1	1	1	1	0	1	-7,82241	274,311538	313,217749	0
15.01.2021	18:56:54	0	0	2,824497	1,599	298,2816	0,31	84,872	0	1016,76	7,1	9	8,8	1	1	1	1	1	1	1	1	1	0	1	-10,42988	274,237749	310,264981	0
15.01.2021	18:56:55	0	0	4,858135	1,59975	298,6488	0,31	84,869	0	1016,74	7,1	9	8,8	1	1	1	1	1	1	1	1	1	0	1	-9,584214	274,375012	311,753193	0
15.01.2021	18:56:56	0	0	4,406242	1,5975	291,1356	0,307	84,862	0	1016,8	7	9	8,7	1	1	1	1	1	1	1	1	1	0	1	-8,386187	274,278374	312,498742	0
15.01.2021	18:56:57	0	0	3,050457	1,515	286,6392	0,309	84,857	0	1016,82	7,1	9	8,8	1	1	1	1	1	1	1	1	1	0	1	-13,248767	274,388641	308,152491	0
15.01.2021	18:56:58	0	0	2,824514	1,494	285,9264	0,304	84,855	0	1016,84	7	9	8,7	1	1	1	1	1	1	1	1	1	0	1	-6,342495	274,267833	314,493111	0
15.01.2021	18:56:59	0	0	4,519168	1,41525	294,8544	0,305	84,863	0	1016,58	7,1	9	8,9	1	1	1	1	1	1	1	1	1	0	1	-10,007047	274,375012	311,33036	0
15.01.2021	18:57:00	0	0	4,406242	1,38225	285,4836	0,303	84,858	0	1016,64	7,1	9	8,7	1	1	1	1	1	1	1	1	1	0	1	-8,597604	274,322103	312,492014	0
15.01.2021	18:57:01	0	0	2,485572	1,302	271,7172	0,313	84,872	0	1016,58	7,1	9	8,7	1	1	1	1	1	1	1	1	1	0	1	-8,315715	274,216718	312,280782	0
15.01.2021	18:57:02	0	0	3,163456	1,30575	272,9016	0,307	84,87	0	1016,66	7,1	9	8,7	1	1	1	1	1	1	1	1	1	0	1	-9,090909	274,346272	312,111882	0
15.01.2021	18:57:03	0	0	2,598537	1,392	277,2	0,305	84,854	0	1016,66	7,1	9	8,8	1	1	1	1	1	1	1	1	1	0	1	-9,725159	274,371985	311,598067	0
15.01.2021	18:57:04	0	0	2,598553	1,5525	275,3712	0,302	84,865	0	1016,6	7	9	8,7	1	1	1	1	1	1	1	1	1	0	1	-7,610994	274,337205	313,549338	0
15.01.2021	18:57:05	0	0	3,502398	1,671	283,536	0,308	84,87	0	1016,62	7,1	9	8,7	1	1	1	1	1	1	1	1	1	0	1	-10,711769	274,249777	310,039358	0
15.01.2021	18:57:06	0	0	4,406216	1,79475	276,4044	0,304	84,845	0	1016,44	7,1	9	8,8	1	1	1	1	1	1	1	1	1	0	1	-11,134602	274,31003	309,898494	0
15.01.2021	18:57:07	0	0	3,050475	1,88925	285,9516	0,305	84,853	0	1016,58	7,1	9	8,7	1	1	1	1	1	1	1	1	1	0	1	-10,852713	274,19421	309,638539	0
15.01.2021	18:57:08	0	0	4,632175	1,91325	279,324	0,306	84,86	0	1016,78	7,1	9	8,8	1	1	1	1	1	1	1	1	1	0	1	-11,627907	274,302488	309,369885	0
15.01.2021	18:57:09	0	0	4,632175	2,03625	284,022	0,302	84,864	0	1016,74	7,1	9	8,8	1	1	1	1	1	1	1	1	1	0	1	-16,349542	274,382582	305,023331	0
15.01.2021	18:57:10	0	0	2,485558	2,1495	283,5756	0,304	84,867	0	1016,56	7,1	9	8,8	1	1	1	1	1	1	1	1	1	0	1	-9,513742	274,299472	311,469933	0
15.01.2021	18:57:11	0	0	2,598553	2,202	280,1808	0,31	84,84	0	1016,76	7,1	9	8,7	1	1	1	1	1	1	1	1	1	0	1	-14,517266	274,376526	306,827233	0
15.01.2021	18:57:12	0	0	5,197044	2,2635	286,2504	0,298	84,859	0	1016,7	7,1	9	8,9	1	1	1	1	1	1	1	1	1	0	1	-8,738548	274,281386	312,16048	0
15.01.2021	18:57:13	0	0	3,615335	2,21025	291,4308	0,305	84,857	0	1016,68	7,1	9	8,9	1	1	1	1	1	1	1	1	1	0	1	-10,359408	274,37804	310,992183	0
15.01.2021	18:57:14	0	0	4,745155	2,0685	297,9036	0,302	84,849	0	1016,66	7,1	9	8,8	1	1	1	1	1	1	1	1	1	0	1	-8,668076	274,239252	312,033816	0
15.01.2021	18:57:15	0	0	2,711534	2,03025	282,4308	0,306	84,852	0	1016,58	7,1	9	8,7	1	1	1	1	1	1	1	1	1	0	1	-13,883016	274,323613	307,21367	0
15.01.2021	18:57:16	0	0	3,389397	1,9875	300,1032	0,305	84,853	0	1016,58	7,1	9	8,8	1	1	1	1	1	1	1	1	1	0	1	-17,547569	274,231738	303,119175	0
15.01.2021	18:57:17	0	0	3,841316	1,88775	280,7172	0,307	84,854	0	1016,72	7,1	9	8,8	1	1	1	1	1	1	1	1	1	0	1	-8,668076	274,19871	311,844213	0
15.01.2021	18:57:18	0	0	5,084125	1,734	276,786	0,307	84,852	0	1016,66	7	9	8,7	1	1	1	1	1	1	1	1	1	0	1	-8,174771	274,305504	312,837141	0
15.01.2021	18:57:19	0	0	3,389397	1,65525	272,4876	0,311	84,861	0	1016,66	6,8	9	8,8	1	1	1	1	1	1	1	1	1	0	1	-9,302326	274,37804	312,049266	0
15.01.2021	18:57:20	0	0	4,632175	1,6785	301,5144	0,307	84,847	0	1016,84	7,1	9	8,8	1	1	1	1	1	1	1	1	1	0	1	-10,993658	274,264822	309,827862	0
15.01.2021	18:57:21	0	0	4,293261	1,63725	287,4888	0,305	84,849	0	1016,66	7,1	9	8,7	1	1	1	1	1	1	1	1	1	0	1	-16,067653	274,17922	304,353517	0
15.01.2021	18:57:22	0	0	4,293261	1,59825	291,4884	0,308	84,852	0	1016,62	7	9	8,7	1	1	1	1	1	1	1	1	1	0	1	-10,923185	274,218219	309,680334	0
15.01.2021	18:57:23	0	0	2,824497	1,551	288,7092	0,305	84,859	0	1016,68	7,1	9	8,8	1	1	1	1	1	1	1	1	1	0	1	-13,460183	274,222724	307,164405	0
15.01.2021	18:57:24	0	0	3,502376	1,533	289,98	0,306	84,853	0	1016,78	7,1	9	8,8	1	1	1	1	1	1	1	1	1	0	1	-13,248767	274,228733	307,403922	0
15.01.2021	18:57:25	0	0	4,293261	1,5315	275,706	0,309	84,853	0	1016,72	7,1	9	8,7	1	1	1	1	1	1	1	1	1	0	1	-10,42988	274,331163	310,702158	0
15.01.2021	18:57:26	0	0	4,406216	1,503	260,2476	0,305	84,849	0	1016,64	7,1	9	8,8	1	1	1	1	1	1	1	1	1	0	1	-11,768851	274,224226	308,862761	0
15.01.2021	18:57:27	0	0	2,711534	1,5435	272,0844	0,309	84,848	0	1016,64	7,1	9	8,7	1	1	1	1	1	1	1	1	1	0	1	-10,782241	274,236246	309,90559	0
15.01.2021	18:57:28	0	0	3,615378	1,69725	275,364	0,306	84,854	0	1016,84	7,1	9	8,7	1	1	1	1	1	1	1	1	1	0	1	-11,627907	274,204711	308,912441	0
15.01.2021	18:57:29	0	0	2,937477	1,82775	271,0296	0,299	84,851	0	1016,7	7,1	9	8,8	1	1	1	1	1	1	1	1	1	0	1	-10,500352	274,273855	310,363434	0
15.01.2021	18:57:30	0	0	4,632175	1,7955	267,6708	0,307	84,846	0	1016,7	7	9	8,8	1	1	1	1	1	1	1	1	1	0	1	-10,288936	274,376526	311,055563	0
15.01.2021	18:57:31	0	0	4,406216	1,78725	279,9108	0,306	84,844	0	1016,66	7	9	8,8	1	1	1	1	1	1	1	1	1	0	1	-6,131078	274,323613	314,965608	0
15.01.2021	18:57:32	0	0	4,406242	1,77225	274,23	0,306	84,838	0	1016,66	7	9	8,7	1	1	1	1	1	1	1	1	1	0	1	-6,553911	274,20021	313,965391	0
15.01.2021	18:57:33	0	0	4,632175	1,74075	279,5112	0,31	84,849	0	1016,72	7	9	8,8	1	1	1	1	1	1	1	1	1	0	1	-9,584214	274,284399	311,328915	0
15.01.2021	18:57:34	0	0	3,163437	1,695	275,7852	0,301	84,849	0	1016,56	7,1	9	8,8	1	1	1	1	1	1	1	1	1	0	1	-12,684989	274,367445	308,616969	0
15.01.2021	18:57:35	0	0	3,276417	1,6815	272,844	0,305	84,846	0	1016,68	7,1	9	8,8	1	1	1	1	1	1	1	1	1	0	1	-7,470049	274,297964	313,506568	0
15.01.2021	18:57:36	0	0	3,389397	1,6365	282,0888	0,301	84,828	0	1016,6	7,1	9	8,8	1	1	1	1	1	1	1	1	1	0	1	-4,651163	274,19571	315,847101	0
15.01.2021	18:57:37	0	0	3,276436	1,602	281,3688	0,302	84,846	0	1016,72	7,1	9	8,7	1	1	1	1	1	1	1	1	1	0	1	-8,668076	274,337205	312,492255	0
15.01.2021	18:57:38	0	0	4,519195	1,62075	276,894	0,302	84,825	0	1016,78	7,1	9	8,8	1	1	1	1	1	1	1	1	1	0	1	-9,44327	274,221223	311,174294	0
15.01.2021	18:57:39	0	0	3,050457	1,6185	287,8164	0,302	84,84	0	1016,7	7,1	9	8,8	1	1	1	1	1	1	1	1	1	0	1	-10,359408	274,273855	310,504379	0
15.01.2021	18:57:40	0	0	2,824497	1,61925	288,4752	0,299	84,833	0	1016,74	7,1	9	8,8	1	1	1	1	1	1	1	1	1	0	1	-6,624383	274,185214	313,824812	0
15.01.2021	18:57:41	0	0	4,745155	1,60575	284,0652	0,298	84,825	0	1016,66	7,1	9	8,8	1	1	1	1	1	1	1	1	1	0	1	-9,513742	274,337205	311,646589	0
15.01.2021	18:57:42	0	0	4,971115	1,6905	278,046	0,303	84,818	0	1016,6	7,1	9	8,8	1	1	1	1	1	1	1	1	1	0	1	-12,544045	274,323613	308,552642	0
15.01.2021	18:57:43	0	0	3,276417	1,794	287,7948	0,302	84,829	0	1016,74	6,8	9	8,8	1	1	1	1	1	1	1	1	1	0	1	-9,372798	274,192711	311,111443	0
15.01.2021	18:57:44	0	0	2,824497	1,815	285,5196	0,307	84,834	0	1016,5	7,1	9	8,8	1	1	1	1	1	1	1	1	1	0	1	-10,077519	274,322103	311,012099	0
15.01.2021	18:57:45	0	0	5,197075	1,87125	298,3284	0,299	84,827	0	1016,6	7	9	8,8	1	1	1	1	1	1	1	1	1	0	1	-7,82241	274,23324	312,851362	0
15.01.2021	18:57:46	0	0	4,406242	1,98975	302,4324	0,301	84,813	0	1016,62	7,1	9	8,7	1	1	1	1	1	1	1	1	1	0	1	-11,839323	274,328142	309,278572	0
15.01.2021	18:57:47	0	0	4,406216	2,00925	298,9908	0,306	84,828	0	1016,64	7,1	9	8,8	1	1	1	1	1	1	1	1	1	0	1	-5,778717	274,361393	315,494894	0
15.01.2021	18:57:48	0	0	3,163456	1,944	289,62	0,302	84,833	0	1016,76	7,1	9	8,7	1	1	1	1	1	1	1	1	1	0	1	-10,42988	274,308521	310,596154	0
15.01.2021	18:57:49	0	0	3,276417	1,74675	276,4224	0,301	84,825	0	1016,62	7,1	9	8,8	1	1	1	1	1	1	1	1	1	0	1	-7,470049	274,185214	312,979146	0
15.01.2021	18:57:50	0	0	4,406242	1,56525	294,8004	0,319	84,844	0	1016,8	7,1	9	8,7	1	1	1	1	1	1	1	1	1	0	1	-9,795631	274,323613	311,301056	0
15.01.2021	18:57:51	0	0	3,389376	1,52175	282,1248	0,303	84,823	0	1016,58	7,1	9	8,9	1	1	1	1	1	1	1	1	1	0	1	-12,191684	274,361393	309,081927	0
15.01.2021	18:57:52	0	0	2,711517	1,71075	266,22	0,302	84,829	0	1016,74	7,1	9	8,8	1	1	1	1	1	1	1	1	1	0	1	-5,21494	274,248273	315,529151	0
15.01.2021	18:57:53	0	0	4,519223	1,9815	286,2684	0,301	84,837	0	1016,66	7,1	9	8,7	1	1	1	1	1	1	1	1	1	0	1	-9,513742	274,189712	310,956478	0
15.01.2021	18:57:54	0	0	2,937477	2,15625	276,5304	0,305	84,83	0	1016,7	7,1	9	8,8	1	1	1	1	1	1	1	1	1	0	1	-3,59408	274,308521	317,431954	0
15.01.2021	18:57:55	0	0	5,197075	2,202	281,376	0,304	84,819	0	1016,78	7,1	9	8,8	1	1	1	1	1	1	1	1	1	0	1	-10,782241	274,341738	310,399317	0
15.01.2021	18:57:56	0	0	4,745127	2,20725	276,498	0,3	84,811	0	1016,7	7,1	9	8,9	1	1	1	1	1	1	1	1	1	0	1	-13,883016	274,367445	307,418942	0
15.01.2021	18:57:57	0	0	3,389417	2,184	278,082	0,304	84,806	0	1016,78	7,1	9	8,7	1	1	1	1	1	1	1	1	1	0	1	-6,8358	274,243762	313,887189	0
15.01.2021	18:57:58	0	0	2,598537	2,21625	283,248	0,298	84,826	0	1016,42	6,8	9	8,8	1	1	1	1	1	1	1	1	1	0	1	-6,412967	274,177721	314,001199	0
15.01.2021	18:57:59	0	0	3,841339	2,223	271,3104	0,3	84,83	0	1016,72	7,1	9	8,7	1	1	1	1	1	1	1	1	1	0	1	-2,677942	274,303996	318,326909	0
15.01.2021	18:58:00	0	0	4,971085	2,2725	277,2648	0,307	84,836	0	1016,68	6,8	9	8,9	1	1	1	1	1	1	1	1	1	0	1	-7,188161	274,364419	314,099623	0
15.01.2021	18:58:01	0	0	4,632175	2,25825	277,272	0,296	84,82	0	1016,68	7,1	9	8,8	1	1	1	1	1	1	1	1	1	0	1	-7,963354	274,303996	313,041497	0
15.01.2021	18:58:02	0	0	3,502398	2,283	271,0296	0,307	84,833	0	1016,62	6,8	9	8,7	1	1	1	1	1	1	1	1	1	0	1	-11,06413	274,19571	309,434134	0
15.01.2021	18:58:03	0	0	2,711517	2,244	266,184	0,311	84,838	0	1016,48	7,1	9	8,8	1	1	1	1	1	1	1	1	1	0	1	-10,711769	274,325122	310,391987	0
15.01.2021	18:58:04	0	0	4,180256	2,229	259,4844	0,307	84,829	0	1016,66	7,1	9	8,8	1	1	1	1	1	1	1	1	1	0	1	-8,386187	274,337205	312,774144	0
15.01.2021	18:58:05	0	0	2,82448	2,0985	268,074	0,308	84,836	0	1016,72	7,1	9	8,9	1	1	1	1	1	1	1	1	1	0	1	-6,553911	274,358368	314,705531	0
15.01.2021	18:58:06	0	0	3,728359	1,96875	263,2104	0,297	84,83	0	1016,5	7,1	9	8,7	1	1	1	1	1	1	1	1	1	0	1	-9,584214	274,31003	311,448882	0
15.01.2021	18:58:07	0	0	4,632203	1,8525	260,2404	0,307	84,834	0	1016,76	7,1	9	8,7	1	1	1	1	1	1	1	1	1	0	1	-5,073996	274,362906	316,206701	0
15.01.2021	18:58:08	0	0	4,0673	1,82925	264,5928	0,304	84,83	0	1016,78	7,1	9	8,7	1	1	1	1	1	1	1	1	1	0	1	-9,090909	274,322103	311,998709	0
15.01.2021	18:58:09	0	0	4,180281	1,791	258,534	0,304	84,809	0	1016,8	7,1	9	8,7	1	1	1	1	1	1	1	1	1	0	1	-8,738548	274,186713	311,717655	0
15.01.2021	18:58:10	0	0	3,050457	1,77525	258,8184	0,299	84,813	0	1016,68	7,1	9	8,8	1	1	1	1	1	1	1	1	1	0	1	-9,513742	274,243762	311,209246	0
15.01.2021	18:58:11	0	0	4,632175	1,725	256,608	0,302	84,823	0	1016,44	7,1	9	8,8	1	1	1	1	1	1	1	1	1	0	1	-9,725159	274,183716	310,717029	0
15.01.2021	18:58:12	0	0	3,050475	1,7265	271,8288	0,302	84,826	0	1016,84	7,1	9	8,7	1	1	1	1	1	1	1	1	1	0	1	-11,768851	274,246769	308,968205	0
15.01.2021	18:58:13	0	0	3,841316	1,88025	278,8092	0,301	84,832	0	1016,68	7,1	9	8,8	1	1	1	1	1	1	1	1	1	0	1	-11,205074	274,346272	309,997717	0
15.01.2021	18:58:14	0	0	2,937495	1,95375	270,6696	0,306	84,81	0	1016,6	7,1	9	8,7	1	1	1	1	1	1	1	1	1	0	1	-8,879493	274,234743	311,801308	0
15.01.2021	18:58:15	0	0	2,711501	2,03025	269,5536	0,297	84,819	0	1016,6	6,8	9	8,9	1	1	1	1	1	1	1	1	1	0	1	-10,288936	274,237749	310,405925	0
15.01.2021	18:58:16	0	0	3,728336	2,052	273,5712	0,302	84,833	0	1016,82	7,1	9	8,8	1	1	1	1	1	1	1	1	1	0	1	-6,272023	274,215217	314,317454	0
15.01.2021	18:58:17	0	0	4,406216	2,11575	272,9268	0,302	84,827	0	1016,7	7,1	9	8,8	1	1	1	1	1	1	1	1	1	0	1	-11,134602	274,350807	310,089428	0
15.01.2021	18:58:18	0	0	3,050475	2,14425	276,9012	0,303	84,805	0	1016,62	7,1	9	8,7	1	1	1	1	1	1	1	1	1	0	1	-10,218464	274,260308	310,581931	0
15.01.2021	18:58:19	0	0	4,180231	2,21925	279,414	0,297	84,807	0	1016,72	6,8	9	8,9	1	1	1	1	1	1	1	1	1	0	1	-12,262156	274,349295	308,954793	0
15.01.2021	18:58:20	0	0	4,858106	2,29125	282,4452	0,296	84,824	0	1016,72	6,8	9	8,9	1	1	1	1	1	1	1	1	1	0	1	-10,42988	274,334184	310,716303	0
15.01.2021	18:58:21	0	0	3,502376	2,289	285,264	0,3	84,816	0	1016,7	6,8	9	8,8	1	1	1	1	1	1	1	1	1	0	1	-6,060606	274,361393	315,213005	0
15.01.2021	18:58:22	0	0	2,824514	2,409	282,4164	0,304	84,816	0	1016,48	6,8	9	8,7	1	1	1	1	1	1	1	1	1	0	1	-7,82241	274,204711	312,717938	0
15.01.2021	18:58:23	0	0	2,824497	2,481	282,1608	0,293	84,801	0	1016,6	7,1	9	8,8	1	1	1	1	1	1	1	1	1	0	1	-11,06413	274,365932	310,230741	0
15.01.2021	18:58:24	0	0	2,937495	2,565	287,8128	0,294	84,799	0	1016,58	7,1	9	8,7	1	1	1	1	1	1	1	1	1	0	1	-3,805497	274,224226	316,826115	0
15.01.2021	18:58:25	0	0	3,615356	2,54625	286,272	0,295	84,805	0	1016,62	7,1	9	8,8	1	1	1	1	1	1	1	1	1	0	1	-11,06413	274,290427	309,87721	0
15.01.2021	18:58:26	0	0	4,180231	2,45475	280,296	0,302	84,818	0	1016,74	7,1	9	8,9	1	1	1	1	1	1	1	1	1	0	1	-6,976744	274,370471	314,339392	0
15.01.2021	18:58:27	0	0	4,180256	2,42475	287,766	0,299	84,794	0	1016,64	7,1	9	8,8	1	1	1	1	1	1	1	1	1	0	1	-10,007047	274,275361	310,863786	0
15.01.2021	18:58:28	0	0	3,615356	2,42625	277,6104	0,302	84,822	0	1016,72	7,1	9	8,8	1	1	1	1	1	1	1	1	1	0	1	-10,359408	274,189712	310,110812	0
15.01.2021	18:58:29	0	0	3,841316	2,346	286,2576	0,298	84,808	0	1016,76	6,8	9	8,8	1	1	1	1	1	1	1	1	1	0	1	-9,372798	274,260308	311,427597	0
15.01.2021	18:58:30	0	0	4,745155	2,241	288,6012	0,293	84,81	0	1016,66	7,1	9	8,8	1	1	1	1	1	1	1	1	1	0	1	-13,953488	274,361393	307,320123	0
15.01.2021	18:58:31	0	0	3,841316	2,253	294,4332	0,302	84,809	0	1016,6	7,1	9	8,8	1	1	1	1	1	1	1	1	1	0	1	-9,44327	274,252785	311,32193	0
15.01.2021	18:58:32	0	0	3,502355	2,28525	281,7504	0,3	84,81	0	1016,68	7,1	9	8,9	1	1	1	1	1	1	1	1	1	0	1	-7,540521	274,352319	313,69059	0
15.01.2021	18:58:33	0	0	3,276417	2,2395	278,8056	0,3	84,813	0	1016,76	7,1	9	8,8	1	1	1	1	1	1	1	1	1	0	1	-11,41649	274,239252	309,285401	0
15.01.2021	18:58:34	0	0	2,146631	2,1915	283,6116	0,297	84,808	0	1016,58	7,1	9	8,7	1	1	1	1	1	1	1	1	1	0	1	-7,399577	274,189712	313,070643	0
15.01.2021	18:58:35	0	0	2,598522	2,16825	279,9108	0,301	84,799	0	1016,68	7,1	9	8,9	1	1	1	1	1	1	1	1	1	0	1	-4,721635	274,246769	316,015421	0
15.01.2021	18:58:36	0	0	4,067276	2,05125	277,1568	0,304	84,803	0	1016,62	6,8	9	8,8	1	1	1	1	1	1	1	1	1	0	1	-8,597604	274,355343	312,647671	0
15.01.2021	18:58:37	0	0	4,293261	2,0055	272,1276	0,303	84,819	0	1016,74	6,8	9	8,7	1	1	1	1	1	1	1	1	1	0	1	-12,684989	274,349295	308,53196	0
15.01.2021	18:58:38	0	0	4,180231	2,04	270,6552	0,296	84,81	0	1016,72	7,1	9	8,9	1	1	1	1	1	1	1	1	1	0	1	-7,892882	274,207712	312,661499	0
15.01.2021	18:58:39	0	0	4,519195	2,028	276,1056	0,297	84,819	0	1016,64	7,1	9	8,8	1	1	1	1	1	1	1	1	1	0	1	-8,527132	274,237749	312,167729	0
15.01.2021	18:58:40	0	0	3,615356	1,96575	273,5064	0,294	84,809	0	1016,74	7,1	9	8,8	1	1	1	1	1	1	1	1	1	0	1	-8,80902	274,188213	311,654191	0
15.01.2021	18:58:41	0	0	3,728336	1,785	275,76	0,3	84,805	0	1016,74	7,1	9	8,8	1	1	1	1	1	1	1	1	1	0	1	-11,06413	274,293441	309,891319	0
15.01.2021	18:58:42	0	0	3,841316	1,74525	276,0768	0,299	84,803	0	1016,66	7,1	9	8,8	1	1	1	1	1	1	1	1	1	0	1	-9,866103	274,189712	310,604118	0
15.01.2021	18:58:43	0	0	4,632175	1,64625	271,7532	0,3	84,815	0	1016,76	6,8	9	8,8	1	1	1	1	1	1	1	1	1	0	1	-11,839323	274,296456	309,130237	0
15.01.2021	18:58:44	0	0	3,163418	1,62675	275,742	0,297	84,8	0	1016,76	6,8	9	8,9	1	1	1	1	1	1	1	1	1	0	1	-12,544045	274,20021	307,975258	0
15.01.2021	18:58:45	0	0	2,711534	1,6425	269,478	0,295	84,799	0	1016,6	7,1	9	8,7	1	1	1	1	1	1	1	1	1	0	1	-5,426357	274,323613	315,67033	0
15.01.2021	18:58:46	0	0	3,841316	1,6275	273,2508	0,296	84,82	0	1016,72	7,1	9	8,8	1	1	1	1	1	1	1	1	1	0	1	-8,245243	274,355343	313,000032	0
15.01.2021	18:58:47	0	0	3,502355	1,73475	276,3504	0,297	84,82	0	1016,72	6,8	9	8,9	1	1	1	1	1	1	1	1	1	0	1	-8,033827	274,209212	312,527572	0
15.01.2021	18:58:48	0	0	4,067276	1,81275	287,7336	0,298	84,807	0	1016,6	7,1	9	8,8	1	1	1	1	1	1	1	1	1	0	1	-10,711769	274,207712	309,842612	0
15.01.2021	18:58:49	0	0	2,711517	1,89	276,786	0,296	84,809	0	1016,72	7,1	9	8,8	1	1	1	1	1	1	1	1	1	0	1	-10,711769	274,216718	309,884728	0
15.01.2021	18:58:50	0	0	4,293236	2,0355	270,3744	0,298	84,804	0	1016,7	7,1	9	8,8	1	1	1	1	1	1	1	1	1	0	1	-13,742072	274,219721	306,868469	0
15.01.2021	18:58:51	0	0	3,050457	2,05575	279,4392	0,298	84,808	0	1016,78	7,1	9	8,8	1	1	1	1	1	1	1	1	1	0	1	-8,949965	274,212214	311,625471	0
15.01.2021	18:58:52	0	0	3,050457	2,001	284,814	0,302	84,801	0	1016,6	6,8	9	8,8	1	1	1	1	1	1	1	1	1	0	1	-6,131078	274,349295	315,085872	0
15.01.2021	18:58:53	0	0	3,276417	2,09025	275,8824	0,298	84,807	0	1016,82	7,1	9	8,8	1	1	1	1	1	1	1	1	1	0	1	-8,245243	274,228733	312,407446	0
15.01.2021	18:58:54	0	0	2,82448	2,0325	291,4848	0,301	84,811	0	1016,7	7,1	9	8,9	1	1	1	1	1	1	1	1	1	0	1	-8,80902	274,299472	312,174654	0
15.01.2021	18:58:55	0	0	4,519195	1,851	276,4008	0,297	84,815	0	1016,7	7,1	9	8,8	1	1	1	1	1	1	1	1	1	0	1	-8,315715	274,242259	312,40024	0
15.01.2021	18:58:56	0	0	4,067276	1,7715	284,0796	0,294	84,81	0	1016,64	7,1	9	8,8	1	1	1	1	1	1	1	1	1	0	1	-8,315715	274,189712	312,154505	0
15.01.2021	18:58:57	0	0	3,389417	1,76325	285,894	0,293	84,811	0	1016,84	6,8	9	8,7	1	1	1	1	1	1	1	1	1	0	1	-12,614517	274,316065	308,446835	0
15.01.2021	18:58:58	0	0	3,502376	1,80825	276,5304	0,302	84,805	0	1016,62	7,1	9	8,8	1	1	1	1	1	1	1	1	1	0	1	-12,191684	274,346272	309,011107	0
15.01.2021	18:58:59	0	0	4,519195	1,81125	293,7492	0,301	84,813	0	1016,72	7,1	9	8,8	1	1	1	1	1	1	1	1	1	0	1	-7,963354	274,20171	312,562963	0
15.01.2021	18:59:00	0	0	4,519195	1,92975	259,9776	0,301	84,815	0	1016,58	6,8	9	8,8	1	1	1	1	1	1	1	1	1	0	1	-11,205074	274,371985	310,118151	0
15.01.2021	18:59:01	0	0	3,389397	2,03325	267,3684	0,291	84,799	0	1016,6	6,8	9	8,8	1	1	1	1	1	1	1	1	1	0	1	-9,44327	274,231738	311,223474	0
15.01.2021	18:59:02	0	0	4,406242	2,05725	271,3716	0,299	84,813	0	1016,62	7,1	9	8,7	1	1	1	1	1	1	1	1	1	0	1	-8,597604	274,341738	312,583954	0
15.01.2021	18:59:03	0	0	2,824497	2,01825	263,4948	0,293	84,789	0	1016,66	7,1	9	8,8	1	1	1	1	1	1	1	1	1	0	1	-9,161381	274,204711	311,378967	0
15.01.2021	18:59:04	0	0	4,519195	2,067	257,0508	0,3	84,807	0	1016,6	7,1	9	8,8	1	1	1	1	1	1	1	1	1	0	1	-7,258633	274,367445	314,043325	0
15.01.2021	18:59:05	0	0	5,310055	2,00325	263,214	0,291	84,811	0	1016,76	6,8	9	8,8	1	1	1	1	1	1	1	1	1	0	1	-9,090909	274,353831	312,147284	0
15.01.2021	18:59:06	0	0	4,293236	1,87575	262,8324	0,301	84,817	0	1016,6	7,1	9	8,8	1	1	1	1	1	1	1	1	1	0	1	-8,45666	274,323613	312,640027	0
15.01.2021	18:59:07	0	0	2,711517	1,7325	272,4696	0,304	84,819	0	1016,64	7,1	9	8,8	1	1	1	1	1	1	1	1	1	0	1	-10,359408	274,183716	310,08278	0
15.01.2021	18:59:08	0	0	3,050457	1,60875	290,8404	0,291	84,797	0	1016,62	7,1	9	8,8	1	1	1	1	1	1	1	1	1	0	1	-11,909796	274,287413	309,017437	0
15.01.2021	18:59:09	0	0	4,180256	1,5405	286,6608	0,304	84,813	0	1016,74	6,8	9	8,8	1	1	1	1	1	1	1	1	1	0	1	-13,742072	274,361393	307,531539	0
15.01.2021	18:59:10	0	0	3,502376	1,4655	284,8068	0,3	84,802	0	1016,68	7,1	9	8,8	1	1	1	1	1	1	1	1	1	0	1	-12,262156	274,314556	308,792131	0
15.01.2021	18:59:11	0	0	4,293236	1,41225	289,6452	0,303	84,813	0	1016,68	6,8	9	8,8	1	1	1	1	1	1	1	1	1	0	1	-12,191684	274,365932	309,103186	0
15.01.2021	18:59:12	0	0	2,598537	1,37625	295,5852	0,3	84,814	0	1016,96	7,1	9	8,8	1	1	1	1	1	1	1	1	1	0	1	-7,681466	274,303996	313,323386	0
15.01.2021	18:59:13	0	0	4,406216	1,2885	296,7984	0,296	84,802	0	1016,52	7,1	9	8,8	1	1	1	1	1	1	1	1	1	0	1	-11,839323	274,362906	309,441374	0
15.01.2021	18:59:14	0	0	4,745184	1,359	281,3328	0,301	84,808	0	1016,64	7,1	9	8,7	1	1	1	1	1	1	1	1	1	0	1	-12,473573	274,307013	308,5454	0
15.01.2021	18:59:15	0	0	2,711517	1,5045	282,0924	0,3	84,819	0	1016,7	7,1	9	8,8	1	1	1	1	1	1	1	1	1	0	1	-9,936575	274,361393	311,337036	0
15.01.2021	18:59:16	0	0	3,050457	1,5045	288,8424	0,302	84,81	0	1016,7	7,1	9	8,8	1	1	1	1	1	1	1	1	1	0	1	-12,966878	274,206211	307,580486	0
15.01.2021	18:59:17	0	0	4,293236	1,50225	272,8512	0,294	84,811	0	1016,72	7,1	9	8,8	1	1	1	1	1	1	1	1	1	0	1	-10,007047	274,237749	310,687814	0
15.01.2021	18:59:18	0	0	3,276417	1,68675	291,8772	0,295	84,795	0	1016,6	6,8	9	8,8	1	1	1	1	1	1	1	1	1	0	1	-6,272023	274,319084	314,803461	0
15.01.2021	18:59:19	0	0	4,632175	1,9095	284,1192	0,301	84,81	0	1016,82	7,1	9	8,8	1	1	1	1	1	1	1	1	1	0	1	-10,570825	274,206211	309,97654	0
15.01.2021	18:59:20	0	0	3,728359	2,04675	282,1176	0,297	84,815	0	1016,7	7,1	9	8,7	1	1	1	1	1	1	1	1	1	0	1	-7,82241	274,365932	313,47246	0
15.01.2021	18:59:21	0	0	4,632175	2,169	290,7468	0,306	84,808	0	1016,72	6,8	9	8,8	1	1	1	1	1	1	1	1	1	0	1	-5,073996	274,278374	315,810934	0
15.01.2021	18:59:22	0	0	4,406216	2,2005	283,8204	0,302	84,814	0	1016,7	7,1	9	8,8	1	1	1	1	1	1	1	1	1	0	1	-5,990134	274,361393	315,283477	0
15.01.2021	18:59:23	0	0	4,067276	2,292	286,7004	0,302	84,817	0	1016,82	6,8	9	8,8	1	1	1	1	1	1	1	1	1	0	1	-8,949965	274,23324	311,723807	0
15.01.2021	18:59:24	0	0	3,163437	2,32725	278,442	0,301	84,809	0	1016,82	7,1	9	8,8	1	1	1	1	1	1	1	1	1	0	1	-9,936575	274,349295	311,280375	0
15.01.2021	18:59:25	0	0	4,519195	2,3805	271,0656	0,292	84,786	0	1016,76	7,1	9	8,8	1	1	1	1	1	1	1	1	1	0	1	-5,496829	274,240755	315,212095	0
15.01.2021	18:59:26	0	0	2,711517	2,421	284,4468	0,297	84,805	0	1016,66	7,1	9	8,8	1	1	1	1	1	1	1	1	1	0	1	-7,681466	274,355343	313,563809	0
15.01.2021	18:59:27	0	0	2,937477	2,42325	275,4216	0,298	84,793	0	1016,66	6,8	9	8,8	1	1	1	1	1	1	1	1	1	0	1	-6,553911	274,31003	314,479185	0
15.01.2021	18:59:28	0	0	4,406216	2,412	280,2852	0,294	84,795	0	1016,74	7,1	9	8,8	1	1	1	1	1	1	1	1	1	0	1	-7,399577	274,171729	312,986578	0
15.01.2021	18:59:29	0	0	2,598522	2,3355	272,4084	0,3	84,801	0	1016,7	7,1	9	8,9	1	1	1	1	1	1	1	1	1	0	1	-12,191684	274,236246	308,496146	0
15.01.2021	18:59:30	0	0	3,163456	2,262	290,394	0,299	84,799	0	1016,64	7,1	9	8,7	1	1	1	1	1	1	1	1	1	0	1	-6,342495	274,276867	314,535386	0
15.01.2021	18:59:31	0	0	2,824497	2,34225	283,6224	0,3	84,818	0	1016,8	7,1	9	8,8	1	1	1	1	1	1	1	1	1	0	1	-13,107822	274,19871	307,404467	0
15.01.2021	18:59:32	0	0	4,632175	2,43675	294,0048	0,298	84,799	0	1016,66	6,8	9	8,8	1	1	1	1	1	1	1	1	1	0	1	-11,346018	274,254289	309,426219	0
15.01.2021	18:59:33	0	0	4,632175	2,406	298,3392	0,296	84,801	0	1016,86	7,1	9	8,8	1	1	1	1	1	1	1	1	1	0	1	-9,372798	274,367445	311,92916	0
15.01.2021	18:59:34	0	0	3,389397	2,382	285,9516	0,298	84,802	0	1016,82	7,1	9	8,8	1	1	1	1	1	1	1	1	1	0	1	-10,42988	274,316065	310,631472	0
15.01.2021	18:59:35	0	0	4,745155	2,271	312,4944	0,301	84,803	0	1016,7	7,1	9	8,8	1	1	1	1	1	1	1	1	1	0	1	-11,346018	274,325122	309,757737	0
15.01.2021	18:59:36	0	0	4,406216	2,1735	302,13	0,297	84,813	0	1016,7	7,1	9	8,8	1	1	1	1	1	1	1	1	1	0	1	-5,003524	274,240755	315,7054	0
15.01.2021	18:59:37	0	0	2,824514	2,1375	305,3196	0,296	84,782	0	1016,64	7,1	9	8,7	1	1	1	1	1	1	1	1	1	0	1	-12,614517	274,353831	308,623676	0
15.01.2021	18:59:38	0	0	3,163437	2,09325	302,8608	0,288	84,797	0	1016,68	7,1	9	8,8	1	1	1	1	1	1	1	1	1	0	1	-9,090909	274,343249	312,097726	0
15.01.2021	18:59:39	0	0	4,293261	2,13825	300,2184	0,295	84,788	0	1016,9	7,1	9	8,7	1	1	1	1	1	1	1	1	1	0	1	-8,879493	274,382582	312,49338	0
15.01.2021	18:59:40	0	0	4,519223	2,214	308,8728	0,296	84,809	0	1016,64	7,1	9	8,7	1	1	1	1	1	1	1	1	1	0	1	-14,446794	274,209212	306,114605	0
15.01.2021	18:59:41	0	0	2,711517	2,17425	292,2228	0,293	84,795	0	1016,7	7,1	9	8,8	1	1	1	1	1	1	1	1	1	0	1	-9,513742	274,180718	310,914434	0
15.01.2021	18:59:42	0	0	3,389397	2,18475	294,426	0,293	84,789	0	1016,64	7,1	9	8,8	1	1	1	1	1	1	1	1	1	0	1	-6,906272	274,266328	313,92229	0
15.01.2021	18:59:43	0	0	4,858135	2,31225	302,1264	0,298	84,81	0	1016,72	7,1	9	8,8	1	1	1	1	1	1	1	1	1	0	1	-5,567301	274,365932	315,72757	0
15.01.2021	18:59:44	0	0	4,745155	2,37975	305,7732	0,295	84,811	0	1016,74	7,1	9	8,8	1	1	1	1	1	1	1	1	1	0	1	-8,80902	274,215217	311,780456	0
15.01.2021	18:59:45	0	0	3,728336	2,454	304,6752	0,289	84,803	0	1016,7	7,1	9	8,8	1	1	1	1	1	1	1	1	1	0	1	-9,513742	274,19721	310,991534	0
15.01.2021	18:59:46	0	0	3,389397	2,4555	303,2568	0,302	84,801	0	1016,78	6,8	9	8,8	1	1	1	1	1	1	1	1	1	0	1	-8,80902	274,346272	312,393771	0
15.01.2021	18:59:47	0	0	3,276417	2,42625	301,2048	0,295	84,803	0	1016,44	7,1	9	8,8	1	1	1	1	1	1	1	1	1	0	1	-9,44327	274,219721	311,167271	0
15.01.2021	18:59:48	0	0	5,084095	2,59425	307,5696	0,296	84,812	0	1016,64	7,1	9	8,8	1	1	1	1	1	1	1	1	1	0	1	-9,302326	274,319084	311,773158	0
15.01.2021	18:59:49	0	0	4,180256	2,67525	302,0904	0,301	84,81	0	1016,8	7,1	9	8,8	1	1	1	1	1	1	1	1	1	0	1	-9,090909	274,368958	312,218138	0
15.01.2021	18:59:50	0	0	4,745155	2,71575	304,6716	0,298	84,811	0	1016,78	7,1	9	8,8	1	1	1	1	1	1	1	1	1	0	1	-10,852713	274,303996	310,152138	0
15.01.2021	18:59:51	0	0	3,728336	2,60025	311,0112	0,298	84,801	0	1016,7	7,1	9	8,8	1	1	1	1	1	1	1	1	1	0	1	-7,82241	274,37804	313,529181	0
15.01.2021	18:59:52	0	0	2,824497	2,47725	305,5392	0,298	84,79	0	1016,7	7,1	9	8,8	1	1	1	1	1	1	1	1	1	0	1	-7,540521	274,267833	313,295084	0
15.01.2021	18:59:53	0	0	2,598537	2,41275	311,778	0,305	84,808	0	1016,84	7,1	9	8,8	1	1	1	1	1	1	1	1	1	0	1	-10,007047	274,358368	311,252395	0
15.01.2021	18:59:54	0	0	3,050457	2,4405	305,3952	0,295	84,813	0	1016,74	7,1	9	8,8	1	1	1	1	1	1	1	1	1	0	1	-10,782241	274,281386	310,116787	0
15.01.2021	18:59:55	0	0	2,937477	2,51625	295,6176	0,304	84,808	0	1016,62	7,1	9	8,8	1	1	1	1	1	1	1	1	1	0	1	-10,007047	274,362906	311,27365	0
15.01.2021	18:59:56	0	0	4,519195	2,565	302,4576	0,299	84,81	0	1016,76	7,1	9	8,8	1	1	1	1	1	1	1	1	1	0	1	-6,8358	274,305504	314,176112	0
15.01.2021	18:59:57	0	0	4,180256	2,517	291,8844	0,299	84,814	0	1016,78	7,1	9	8,8	1	1	1	1	1	1	1	1	1	0	1	-10,500352	274,350807	310,723678	0
15.01.2021	18:59:58	0	0	4,745127	2,565	298,278	0,299	84,8	0	1016,74	6,8	9	8,9	1	1	1	1	1	1	1	1	1	0	1	-6,272023	274,325122	314,831733	0
15.01.2021	18:59:59	0	0	3,163437	2,646	301,6116	0,3	84,816	0	1016,82	7,1	9	8,8	1	1	1	1	1	1	1	1	1	0	1	-10,782241	274,240755	309,926682	0
15.01.2021	19:00:00	0	0	3,615356	2,65275	295,6824	0,299	84,818	0	1016,68	7,1	9	8,8	1	1	1	1	1	1	1	1	1	0	1	-11,275546	274,346272	309,927245	0
15.01.2021	19:00:01	0	0	2,485558	2,631	298,314	0,291	84,793	0	1016,72	6,8	9	8,8	1	1	1	1	1	1	1	1	1	0	1	-14,587738	274,266328	306,240824	0
15.01.2021	19:00:02	0	0	3,050457	2,62575	297,1908	0,296	84,796	0	1016,72	6,8	9	8,8	1	1	1	1	1	1	1	1	1	0	1	-8,174771	274,20171	312,351546	0
15.01.2021	19:00:03	0	0	4,293236	2,5545	297,54	0,296	84,807	0	1016,7	7,1	9	8,8	1	1	1	1	1	1	1	1	1	0	1	-6,412967	274,31003	314,620129	0
15.01.2021	19:00:04	0	0	4,858135	2,51625	300,8376	0,29	84,804	0	1016,64	7,1	9	8,8	1	1	1	1	1	1	1	1	1	0	1	-9,302326	274,365932	311,992545	0
15.01.2021	19:00:05	0	0	2,937477	2,4795	302,4432	0,298	84,805	0	1016,74	7,1	9	8,8	1	1	1	1	1	1	1	1	1	0	1	-11,134602	274,316065	309,92675	0
15.01.2021	19:00:06	0	0	2,824497	2,49	299,4408	0,298	84,801	0	1016,74	7,1	9	8,8	1	1	1	1	1	1	1	1	1	0	1	-11,41649	274,185214	309,032705	0
15.01.2021	19:00:07	0	0	2,937477	2,5095	305,4024	0,293	84,782	0	1016,6	7,1	9	8,8	1	1	1	1	1	1	1	1	1	0	1	-9,584214	274,319084	311,49127	0
15.01.2021	19:00:08	0	0	4,293236	2,4435	312,174	0,296	84,813	0	1016,72	7,1	9	8,8	1	1	1	1	1	1	1	1	1	0	1	-13,812544	274,362906	307,468153	0
15.01.2021	19:00:09	0	0	3,954296	2,41575	294,1488	0,299	84,805	0	1016,74	6,8	9	8,8	1	1	1	1	1	1	1	1	1	0	1	-7,329105	274,252785	313,436095	0
15.01.2021	19:00:10	0	0	2,824497	2,26125	304,3512	0,293	84,772	0	1016,62	7,1	9	8,8	1	1	1	1	1	1	1	1	1	0	1	-10,218464	274,35988	311,048063	0
15.01.2021	19:00:11	0	0	2,711517	2,27925	295,5672	0,297	84,798	0	1016,76	7,1	9	8,8	1	1	1	1	1	1	1	1	1	0	1	-12,403101	274,305504	308,608811	0
15.01.2021	19:00:12	0	0	2,824497	2,33025	303,2712	0,294	84,804	0	1016,64	7,1	9	8,8	1	1	1	1	1	1	1	1	1	0	1	-12,614517	274,176223	307,792645	0
15.01.2021	19:00:13	0	0	4,293236	2,42025	291,5028	0,293	84,781	0	1016,74	7,1	9	8,8	1	1	1	1	1	1	1	1	1	0	1	-10,711769	274,225728	309,926868	0
15.01.2021	19:00:14	0	0	2,259598	2,4435	289,008	0,301	84,804	0	1016,78	7,1	9	8,8	1	1	1	1	1	1	1	1	1	0	1	-9,654686	274,243762	311,068302	0
15.01.2021	19:00:15	0	0	3,954296	2,3565	304,2108	0,3	84,811	0	1016,86	6,8	9	8,8	1	1	1	1	1	1	1	1	1	0	1	-11,41649	274,183716	309,025697	0
15.01.2021	19:00:16	0	0	3,841316	2,24325	295,6176	0,3	84,798	0	1016,7	7,1	9	8,8	1	1	1	1	1	1	1	1	1	0	1	-4,580691	274,219721	316,029851	0
15.01.2021	19:00:17	0	0	2,824497	2,12925	289,2096	0,292	84,794	0	1016,72	7,1	9	8,8	1	1	1	1	1	1	1	1	1	0	1	-6,272023	274,209212	314,289376	0
15.01.2021	19:00:18	0	0	3,276417	2,04075	301,2264	0,302	84,801	0	1016,84	7,1	9	8,8	1	1	1	1	1	1	1	1	1	0	1	-7,470049	274,204711	313,070298	0
15.01.2021	19:00:19	0	0	4,406216	1,9785	299,484	0,298	84,797	0	1016,76	7,1	9	8,8	1	1	1	1	1	1	1	1	1	0	1	-8,033827	274,249777	312,7173	0
15.01.2021	19:00:20	0	0	3,389397	2,001	280,6776	0,297	84,795	0	1016,74	7,1	9	8,8	1	1	1	1	1	1	1	1	1	0	1	-9,795631	274,188213	310,667581	0
15.01.2021	19:00:21	0	0	4,858135	2,05275	280,26	0,296	84,795	0	1016,8	7,1	9	8,8	1	1	1	1	1	1	1	1	1	0	1	-3,382664	274,297964	317,593953	0
15.01.2021	19:00:22	0	0	2,824497	2,28975	281,4084	0,294	84,784	0	1016,7	6,8	9	8,8	1	1	1	1	1	1	1	1	1	0	1	-12,332629	274,329652	308,792338	0
15.01.2021	19:00:23	0	0	3,389397	2,4375	282,1428	0,288	84,789	0	1016,78	7,1	9	8,8	1	1	1	1	1	1	1	1	1	0	1	-10,782241	274,210713	309,786176	0
15.01.2021	19:00:24	0	0	4,971115	2,43	279,2232	0,29	84,793	0	1016,52	7,1	9	8,8	1	1	1	1	1	1	1	1	1	0	1	-15,785765	274,284399	305,127364	0
15.01.2021	19:00:25	0	0	2,485558	2,40675	283,6476	0,298	84,793	0	1016,66	7,1	9	8,8	1	1	1	1	1	1	1	1	1	0	1	-7,751938	274,20171	312,774379	0
15.01.2021	19:00:26	0	0	3,615356	2,4435	283,6044	0,292	84,785	0	1016,8	6,8	9	8,8	1	1	1	1	1	1	1	1	1	0	1	-9,302326	274,20321	311,231006	0
15.01.2021	19:00:27	0	0	2,598537	2,418	292,6296	0,296	84,788	0	1016,76	7,1	9	8,8	1	1	1	1	1	1	1	1	1	0	1	-9,725159	274,189712	310,745062	0
15.01.2021	19:00:28	0	0	4,406216	2,31975	281,3544	0,297	84,786	0	1016,92	7,1	9	8,8	1	1	1	1	1	1	1	1	1	0	1	-12,262156	274,251281	308,496007	0
15.01.2021	19:00:29	0	0	5,197075	2,17875	294,0876	0,293	84,786	0	1016,74	6,8	9	8,8	1	1	1	1	1	1	1	1	1	0	1	-4,157858	274,19571	316,340406	0
15.01.2021	19:00:30	0	0	2,485558	2,05125	294,1056	0,293	84,765	0	1016,8	6,8	9	8,8	1	1	1	1	1	1	1	1	1	0	1	-6,272023	274,297964	314,704595	0
15.01.2021	19:00:31	0	0	3,389397	2,043	290,808	0,293	84,785	0	1016,74	6,8	9	8,8	1	1	1	1	1	1	1	1	1	0	1	-7,329105	274,367445	313,972853	0
15.01.2021	19:00:32	0	0	4,067276	2,139	287,37	0,292	84,79	0	1016,7	7,1	9	8,8	1	1	1	1	1	1	1	1	1	0	1	-7,82241	274,367445	313,479548	0
15.01.2021	19:00:33	0	0	3,615356	2,142	287,8488	0,293	84,764	0	1016,8	7,1	9	8,8	1	1	1	1	1	1	1	1	1	0	1	-8,174771	274,281386	312,724257	0
15.01.2021	19:00:34	0	0	3,728336	2,115	296,5608	0,3	84,787	0	1016,84	6,8	9	8,8	1	1	1	1	1	1	1	1	1	0	1	-6,553911	274,367445	314,748047	0
15.01.2021	19:00:35	0	0	3,050457	2,0445	304,3116	0,288	84,787	0	1016,64	7,1	9	8,8	1	1	1	1	1	1	1	1	1	0	1	-9,936575	274,245266	310,793447	0
15.01.2021	19:00:36	0	0	4,745155	2,025	289,6236	0,299	84,782	0	1016,8	7,1	9	8,8	1	1	1	1	1	1	1	1	1	0	1	-6,553911	274,356855	314,698447	0
15.01.2021	19:00:37	0	0	2,598537	2,0925	287,7912	0,297	84,781	0	1016,64	7,1	9	8,8	1	1	1	1	1	1	1	1	1	0	1	-12,825934	274,180718	307,602242	0
15.01.2021	19:00:38	0	0	4,406216	2,12175	287,7156	0,298	84,782	0	1016,7	7,1	9	8,8	1	1	1	1	1	1	1	1	1	0	1	-13,812544	274,331163	307,319494	0
15.01.2021	19:00:39	0	0	3,050457	2,13375	291,87	0,296	84,785	0	1016,8	6,8	9	8,8	1	1	1	1	1	1	1	1	1	0	1	-11,205074	274,27988	309,686904	0
15.01.2021	19:00:40	0	0	4,745155	2,10225	300,4704	0,295	84,799	0	1016,84	7,1	9	8,8	1	1	1	1	1	1	1	1	1	0	1	-8,45666	274,364419	312,831124	0
15.01.2021	19:00:41	0	0	4,519195	2,08725	288,1872	0,299	84,787	0	1016,68	7,1	9	8,8	1	1	1	1	1	1	1	1	1	0	1	-11,134602	274,303996	309,87025	0
15.01.2021	19:00:42	0	0	3,050457	2,07375	288,126	0,292	84,773	0	1016,46	7,1	9	8,8	1	1	1	1	1	1	1	1	1	0	1	-10,923185	274,240755	309,785738	0
15.01.2021	19:00:43	0	0	2,598537	2,04225	301,662	0,293	84,781	0	1016,66	7,1	9	8,8	1	1	1	1	1	1	1	1	1	0	1	-11,909796	274,19721	308,59548	0
15.01.2021	19:00:44	0	0	2,824497	1,9395	298,386	0,294	84,795	0	1016,74	6,8	9	8,8	1	1	1	1	1	1	1	1	1	0	1	-8,668076	274,294949	312,294428	0
15.01.2021	19:00:45	0	0	3,276417	1,839	285,2712	0,297	84,8	0	1016,8	7,1	9	8,8	1	1	1	1	1	1	1	1	1	0	1	-8,597604	274,371985	312,725622	0
15.01.2021	19:00:46	0	0	4,632175	1,82775	291,2076	0,292	84,788	0	1016,78	7,1	9	8,8	1	1	1	1	1	1	1	1	1	0	1	-7,329105	274,316065	313,732247	0
15.01.2021	19:00:47	0	0	4,519195	1,8045	283,2408	0,291	84,793	0	1016,72	7,1	9	8,8	1	1	1	1	1	1	1	1	1	0	1	-8,738548	274,34476	312,457165	0
15.01.2021	19:00:48	0	0	2,937477	1,87575	297,4068	0,3	84,79	0	1016,68	7,1	9	8,8	1	1	1	1	1	1	1	1	1	0	1	-5,426357	274,19871	315,085932	0
15.01.2021	19:00:49	0	0	4,971115	2,0595	297,9036	0,294	84,791	0	1016,68	7,1	9	8,8	1	1	1	1	1	1	1	1	1	0	1	-5,285412	274,299472	315,698262	0
15.01.2021	19:00:50	0	0	4,180256	2,18625	305,7948	0,293	84,798	0	1016,78	7,1	9	8,8	1	1	1	1	1	1	1	1	1	0	1	-8,033827	274,367445	313,268132	0
15.01.2021	19:00:51	0	0	3,728336	2,2185	305,5356	0,3	84,796	0	1016,72	7,1	9	8,8	1	1	1	1	1	1	1	1	1	0	1	-4,721635	274,218219	315,881884	0
15.01.2021	19:00:52	0	0	4,632175	2,08125	304,3512	0,294	84,772	0	1016,68	7,1	9	8,8	1	1	1	1	1	1	1	1	1	0	1	-8,45666	274,261812	312,350776	0
15.01.2021	19:00:53	0	0	2,485558	2,022	294,4224	0,297	84,794	0	1016,78	7,1	9	8,8	1	1	1	1	1	1	1	1	1	0	1	-3,664553	274,171729	316,721602	0
15.01.2021	19:00:54	0	0	4,745155	1,9725	302,8608	0,295	84,79	0	1016,7	7,1	9	8,8	1	1	1	1	1	1	1	1	1	0	1	-5,426357	274,335694	315,7269	0
15.01.2021	19:00:55	0	0	2,711517	1,97625	288,45	0,294	84,797	0	1016,88	7,1	9	8,8	1	1	1	1	1	1	1	1	1	0	1	-10,147992	274,317575	310,920426	0
15.01.2021	19:00:56	0	0	4,632175	2,1945	292,2984	0,287	84,793	0	1016,56	6,8	9	8,8	1	1	1	1	1	1	1	1	1	0	1	-9,654686	274,375012	311,682721	0
15.01.2021	19:00:57	0	0	2,485558	2,376	284,4144	0,299	84,799	0	1016,76	6,8	9	8,8	1	1	1	1	1	1	1	1	1	0	1	-8,315715	274,328142	312,80218	0
15.01.2021	19:00:58	0	0	2,824497	2,36175	291,4812	0,297	84,793	0	1016,66	7,1	9	8,8	1	1	1	1	1	1	1	1	1	0	1	-5,990134	274,334184	315,156049	0
15.01.2021	19:00:59	0	0	4,971115	2,34375	286,668	0,296	84,802	0	1016,8	6,8	9	8,8	1	1	1	1	1	1	1	1	1	0	1	-8,80902	274,356855	312,443338	0
15.01.2021	19:01:00	0	0	3,502376	2,2695	291,5208	0,295	84,805	0	1016,7	6,8	9	8,8	1	1	1	1	1	1	1	1	1	0	1	-7,329105	274,19871	313,183184	0
15.01.2021	19:01:01	0	0	3,050457	2,187	293,3892	0,295	84,795	0	1016,76	6,8	9	8,8	1	1	1	1	1	1	1	1	1	0	1	-8,174771	274,267833	312,660835	0
15.01.2021	19:01:02	0	0	3,615356	2,1045	290,484	0,295	84,78	0	1016,74	6,8	9	8,8	1	1	1	1	1	1	1	1	1	0	1	-9,372798	274,317575	311,69562	0
15.01.2021	19:01:03	0	0	2,824497	2,14275	295,2216	0,293	84,787	0	1016,64	6,8	9	8,8	1	1	1	1	1	1	1	1	1	0	1	-10,288936	274,20021	310,230367	0
15.01.2021	19:01:04	0	0	2,824497	2,181	295,3764	0,289	84,787	0	1016,66	6,8	9	8,8	1	1	1	1	1	1	1	1	1	0	1	-5,073996	274,328142	316,0439	0
15.01.2021	19:01:05	0	0	2,824497	2,31825	302,8428	0,307	84,789	0	1016,78	6,8	9	8,8	1	1	1	1	1	1	1	1	1	0	1	-11,839323	274,381068	309,526455	0
15.01.2021	19:01:06	0	0	4,632175	2,391	306,4428	0,293	84,795	0	1016,68	7,1	9	8,8	1	1	1	1	1	1	1	1	1	0	1	-8,597604	274,252785	312,167596	0
15.01.2021	19:01:07	0	0	2,711517	2,35725	297,9324	0,29	84,797	0	1016,76	6,8	8,9	8,8	1	1	1	1	1	1	1	1	1	0	1	-6,412967	274,319084	314,662517	0
15.01.2021	19:01:08	0	0	3,728336	2,367	297,2628	0,295	84,803	0	1016,54	7,1	9	8,8	1	1	1	1	1	1	1	1	1	0	1	-11,06413	274,185214	309,385065	0
15.01.2021	19:01:09	0	0	4,745155	2,48325	298,6848	0,291	84,802	0	1016,7	7,1	9	8,8	1	1	1	1	1	1	1	1	1	0	1	-9,302326	274,191211	311,174905	0
15.01.2021	19:01:10	0	0	2,372578	2,54025	297,1836	0,293	84,801	0	1016,7	7,1	9	8,8	1	1	1	1	1	1	1	1	1	0	1	-7,470049	274,273855	313,393737	0
15.01.2021	19:01:11	0	0	4,180256	2,46975	308,7936	0,297	84,794	0	1016,62	7,1	9	8,8	1	1	1	1	1	1	1	1	1	0	1	-6,412967	274,19571	314,085297	0
15.01.2021	19:01:12	0	0	4,293236	2,37675	307,6416	0,295	84,804	0	1016,74	6,8	9	8,8	1	1	1	1	1	1	1	1	1	0	1	-7,399577	274,370471	313,916559	0
15.01.2021	19:01:13	0	0	4,293236	2,30775	306,7236	0,29	84,783	0	1016,46	7,1	9	8,8	1	1	1	1	1	1	1	1	1	0	1	-14,094433	274,358368	307,165009	0
15.01.2021	19:01:14	0	0	2,937477	2,2665	305,028	0,295	84,794	0	1016,68	6,8	9	8,8	1	1	1	1	1	1	1	1	1	0	1	-5,567301	274,263317	315,247176	0
15.01.2021	19:01:15	0	0	4,406216	2,3295	303,2208	0,293	84,799	0	1016,68	7,1	9	8,8	1	1	1	1	1	1	1	1	1	0	1	-5,708245	274,20321	314,825087	0
15.01.2021	19:01:16	0	0	2,372578	2,433	302,8752	0,292	84,797	0	1016,76	7,1	9	8,8	1	1	1	1	1	1	1	1	1	0	1	-7,047216	274,192711	313,437024	0
15.01.2021	19:01:17	0	0	2,937477	2,49675	296,1324	0,292	84,804	0	1016,66	7,1	9	8,8	1	1	1	1	1	1	1	1	1	0	1	-7,751938	274,322103	313,33768	0
15.01.2021	19:01:18	0	0	3,502376	2,583	293,3712	0,294	84,8	0	1016,74	7,1	9	8,8	1	1	1	1	1	1	1	1	1	0	1	-8,527132	274,20171	311,999185	0
15.01.2021	19:01:19	0	0	2,711517	2,6025	298,1736	0,293	84,802	0	1016,66	7,1	9	8,8	1	1	1	1	1	1	1	1	1	0	1	-12,755462	274,188213	307,70775	0
15.01.2021	19:01:20	0	0	5,084095	2,4	299,7792	0,29	84,792	0	1016,7	7,1	9	8,8	1	1	1	1	1	1	1	1	1	0	1	-11,205074	274,273855	309,658713	0
15.01.2021	19:01:21	0	0	4,180256	2,268	284,5116	0,293	84,809	0	1016,72	7,1	9	8,8	1	1	1	1	1	1	1	1	1	0	1	-13,460183	274,192711	307,024057	0
15.01.2021	19:01:22	0	0	4,858135	2,25525	288,81	0,288	84,795	0	1016,68	7,1	9	8,8	1	1	1	1	1	1	1	1	1	0	1	-9,795631	274,362906	311,485066	0
15.01.2021	19:01:23	0	0	3,728336	2,25675	281,4696	0,293	84,802	0	1016,74	7,1	9	8,8	1	1	1	1	1	1	1	1	1	0	1	-10,570825	274,305504	310,441087	0
15.01.2021	19:01:24	0	0	4,632175	2,178	297,2664	0,295	84,804	0	1016,68	7,1	9	8,8	1	1	1	1	1	1	1	1	1	0	1	-7,047216	274,20171	313,479101	0
15.01.2021	19:01:25	0	0	3,954296	2,06325	287,802	0,292	84,795	0	1016,66	7,1	9	8,8	1	1	1	1	1	1	1	1	1	0	1	-12,684989	274,346272	308,517802	0
15.01.2021	19:01:26	0	0	2,711517	1,97325	281,8008	0,286	84,804	0	1016,8	6,8	9	8,8	1	1	1	1	1	1	1	1	1	0	1	-9,090909	274,236246	311,596921	0
15.01.2021	19:01:27	0	0	4,745155	1,96725	284,4864	0,294	84,816	0	1016,62	7,1	9	8,8	1	1	1	1	1	1	1	1	1	0	1	-8,80902	274,192711	311,67522	0
15.01.2021	19:01:28	0	0	4,858135	1,9155	285,9732	0,294	84,806	0	1016,76	6,8	9	8,8	1	1	1	1	1	1	1	1	1	0	1	-9,795631	274,326632	311,315194	0
15.01.2021	19:01:29	0	0	4,180256	1,96875	282,8268	0,293	84,811	0	1016,76	7,1	9	8,8	1	1	1	1	1	1	1	1	1	0	1	-13,248767	274,20171	307,27755	0
15.01.2021	19:01:30	0	0	4,745155	2,03175	287,6832	0,293	84,81	0	1016,58	6,8	8,9	8,8	1	1	1	1	1	1	1	1	1	0	1	-9,302326	274,367445	311,999633	0
15.01.2021	19:01:31	0	0	2,485558	2,04	287,7156	0,295	84,811	0	1016,66	7,1	9	8,8	1	1	1	1	1	1	1	1	1	0	1	-6,906272	274,273855	313,957515	0
15.01.2021	19:01:32	0	0	3,163437	2,06475	286,9776	0,287	84,809	0	1016,58	7,1	9	8,8	1	1	1	1	1	1	1	1	1	0	1	-5,84919	274,35988	315,417337	0
15.01.2021	19:01:33	0	0	4,971115	2,022	280,2672	0,287	84,791	0	1016,68	6,8	9	8,8	1	1	1	1	1	1	1	1	1	0	1	-8,949965	274,331163	312,182073	0
15.01.2021	19:01:34	0	0	3,502376	1,94925	277,2288	0,289	84,81	0	1016,58	7,1	9	8,8	1	1	1	1	1	1	1	1	1	0	1	-11,486963	274,258803	309,306392	0
15.01.2021	19:01:35	0	0	3,615356	1,989	285,8796	0,291	84,804	0	1016,8	6,8	9	8,8	1	1	1	1	1	1	1	1	1	0	1	-10,077519	274,20021	310,441783	0
15.01.2021	19:01:36	0	0	4,858135	1,96725	281,7144	0,294	84,81	0	1016,6	6,8	9	8,8	1	1	1	1	1	1	1	1	1	0	1	-8,668076	274,341738	312,513482	0
15.01.2021	19:01:37	0	0	3,163437	2,0445	288,1296	0,292	84,793	0	1016,74	6,8	9	8,8	1	1	1	1	1	1	1	1	1	0	1	-9,302326	274,365932	311,992545	0
15.01.2021	19:01:38	0	0	3,728336	2,082	284,454	0,291	84,807	0	1016,54	7,1	9	8,8	1	1	1	1	1	1	1	1	1	0	1	-10,007047	274,375012	311,33036	0
15.01.2021	19:01:39	0	0	2,824497	2,0955	291,5964	0,291	84,805	0	1016,8	7,1	9	8,8	1	1	1	1	1	1	1	1	1	0	1	-12,121212	274,234743	308,559589	0
15.01.2021	19:01:40	0	0	3,615356	2,0595	285,2532	0,29	84,798	0	1016,64	7,1	9	8,8	1	1	1	1	1	1	1	1	1	0	1	-10,993658	274,204711	309,54669	0
15.01.2021	19:01:41	0	0	2,372578	2,112	282,8556	0,295	84,81	0	1016,7	7,1	8,9	8,8	1	1	1	1	1	1	1	1	1	0	1	-8,668076	274,337205	312,492255	0
15.01.2021	19:01:42	0	0	4,293236	2,19375	283,14	0,293	84,814	0	1016,66	6,8	9	8,8	1	1	1	1	1	1	1	1	1	0	1	-8,879493	274,276867	311,998389	0
15.01.2021	19:01:43	0	0	4,067276	2,11275	283,2228	0,289	84,801	0	1016,72	6,8	9	8,8	1	1	1	1	1	1	1	1	1	0	1	-11,486963	274,371985	309,836263	0
15.01.2021	19:01:44	0	0	3,276417	2,10225	292,2444	0,292	84,807	0	1016,7	7,1	8,9	8,8	1	1	1	1	1	1	1	1	1	0	1	-12,544045	274,19871	307,968244	0
15.01.2021	19:01:45	0	0	3,050457	2,15925	290,4048	0,282	84,796	0	1016,64	7,1	9	8,8	1	1	1	1	1	1	1	1	1	0	1	-10,852713	274,243762	309,870275	0
15.01.2021	19:01:46	0	0	4,519195	2,18625	292,9896	0,291	84,828	0	1016,64	6,8	9	8,8	1	1	1	1	1	1	1	1	1	0	1	-7,82241	274,219721	312,788131	0
15.01.2021	19:01:47	0	0	2,598537	2,19225	303,282	0,292	84,821	0	1016,7	7,1	9	8,8	1	1	1	1	1	1	1	1	1	0	1	-8,315715	274,23324	312,358057	0
15.01.2021	19:01:48	0	0	3,615356	2,2305	307,6056	0,292	84,816	0	1016,8	6,8	9	8,8	1	1	1	1	1	1	1	1	1	0	1	-9,584214	274,189712	310,886006	0
15.01.2021	19:01:49	0	0	4,632175	2,346	310,9608	0,292	84,822	0	1016,84	6,8	9	8,8	1	1	1	1	1	1	1	1	1	0	1	-7,470049	274,350807	313,753981	0
15.01.2021	19:01:50	0	0	4,632175	2,439	311,796	0,29	84,818	0	1016,7	7,1	9	8,8	1	1	1	1	1	1	1	1	1	0	1	-11,486963	274,212214	309,088474	0
15.01.2021	19:01:51	0	0	3,841316	2,59875	309,9024	0,289	84,815	0	1016,7	7,1	9	8,8	1	1	1	1	1	1	1	1	1	0	1	-5,708245	274,35988	315,558281	0
15.01.2021	19:01:52	0	0	5,084095	2,69325	309,1968	0,29	84,816	0	1016,68	6,8	8,9	8,8	1	1	1	1	1	1	1	1	1	0	1	-4,580691	274,270844	316,269004	0
15.01.2021	19:01:53	0	0	2,937477	2,80725	312,444	0,296	84,819	0	1016,86	6,8	9	8,8	1	1	1	1	1	1	1	1	1	0	1	-9,090909	274,192711	311,393332	0
15.01.2021	19:01:54	0	0	3,954296	2,8185	305,514	0,286	84,796	0	1016,6	7,1	9	8,8	1	1	1	1	1	1	1	1	1	0	1	-14,094433	274,343249	307,094202	0
15.01.2021	19:01:55	0	0	2,146618	2,8095	309,9852	0,29	84,798	0	1016,82	7,1	9	8,8	1	1	1	1	1	1	1	1	1	0	1	-8,949965	274,329652	312,175002	0
15.01.2021	19:01:56	0	0	2,711517	2,84175	307,2816	0,293	84,819	0	1016,7	7,1	8,9	8,8	1	1	1	1	1	1	1	1	1	0	1	-5,990134	274,186713	314,466069	0
15.01.2021	19:01:57	0	0	4,406216	2,87775	309,2508	0,289	84,806	0	1016,76	6,8	9	8,8	1	1	1	1	1	1	1	1	1	0	1	-13,460183	274,28892	307,474102	0
15.01.2021	19:01:58	0	0	3,954296	2,889	310,7268	0,292	84,815	0	1016,72	7,1	9	8,8	1	1	1	1	1	1	1	1	1	0	1	-11,275546	274,362906	310,005151	0
15.01.2021	19:01:59	0	0	3,050457	2,94825	315,4932	0,288	84,864	0	1016,76	6,8	9	8,8	1	1	1	1	1	1	1	1	1	0	1	-9,231853	274,261812	311,575582	0
15.01.2021	19:02:00	0	0	2,711517	2,9415	303,8688	0,295	84,798	0	1016,7	7,1	9	8,8	1	1	1	1	1	1	1	1	1	0	1	-10,359408	274,207712	310,194973	0
15.01.2021	19:02:01	0	0	4,745155	2,81775	302,4216	0,291	84,809	0	1016,58	6,8	9	8,8	1	1	1	1	1	1	1	1	1	0	1	-8,033827	274,340227	313,140655	0
15.01.2021	19:02:02	0	0	3,163437	2,718	301,6008	0,283	84,799	0	1016,7	7,1	9	8,8	1	1	1	1	1	1	1	1	1	0	1	-6,20155	274,311538	314,838609	0
15.01.2021	19:02:03	0	0	2,937477	2,7675	300,1644	0,29	84,795	0	1016,72	7,1	8,9	8,8	1	1	1	1	1	1	1	1	1	0	1	-10,570825	274,19571	309,927439	0
15.01.2021	19:02:04	0	0	3,050457	2,63325	291,0996	0,289	84,808	0	1016,88	7,1	9	8,8	1	1	1	1	1	1	1	1	1	0	1	-9,44327	274,296456	311,52629	0
15.01.2021	19:02:05	0	0	2,372578	2,47275	288,4788	0,285	84,81	0	1016,76	7,1	9	8,8	1	1	1	1	1	1	1	1	1	0	1	-9,231853	274,20171	311,294464	0
15.01.2021	19:02:06	0	0	3,841316	2,36475	308,1132	0,292	84,804	0	1016,74	7,1	9	8,8	1	1	1	1	1	1	1	1	1	0	1	-10,852713	274,297964	310,123904	0
15.01.2021	19:02:07	0	0	4,067276	2,355	290,8152	0,29	84,81	0	1016,76	6,8	9	8,8	1	1	1	1	1	1	1	1	1	0	1	-12,614517	274,35988	308,652009	0
15.01.2021	19:02:08	0	0	2,598537	2,23425	287,3988	0,288	84,799	0	1016,74	7,1	9	8,8	1	1	1	1	1	1	1	1	1	0	1	-10,923185	274,284399	309,989944	0
15.01.2021	19:02:09	0	0	3,502376	2,319	285,2316	0,291	84,807	0	1016,82	6,8	8,9	8,8	1	1	1	1	1	1	1	1	1	0	1	-7,82241	274,19571	312,675853	0
15.01.2021	19:02:10	0	0	4,519195	2,40225	280,2924	0,286	84,797	0	1016,68	7,1	9	8,8	1	1	1	1	1	1	1	1	1	0	1	-6,906272	274,305504	314,10564	0
15.01.2021	19:02:11	0	0	2,485558	2,54325	289,5984	0,292	84,789	0	1016,76	7,1	9	8,8	1	1	1	1	1	1	1	1	1	0	1	-13,460183	274,365932	307,834687	0
15.01.2021	19:02:12	0	0	3,502376	2,571	285,5736	0,292	84,807	0	1016,7	7,1	9	8,8	1	1	1	1	1	1	1	1	1	0	1	-6,906272	274,224226	313,72534	0
15.01.2021	19:02:13	0	0	3,954296	2,5665	310,5288	0,295	84,821	0	1016,78	7,1	9	8,8	1	1	1	1	1	1	1	1	1	0	1	-8,527132	274,234743	312,153669	0
15.01.2021	19:02:14	0	0	4,293236	2,64675	274,284	0,292	84,799	0	1016,64	6,8	9	8,8	1	1	1	1	1	1	1	1	1	0	1	-9,161381	274,375012	312,176026	0
15.01.2021	19:02:15	0	0	3,841316	2,55525	287,7372	0,292	84,825	0	1016,8	6,8	9	8,8	1	1	1	1	1	1	1	1	1	0	1	-2,818887	274,231738	317,847857	0
15.01.2021	19:02:16	0	0	2,937477	2,51475	274,95	0,286	84,808	0	1016,74	6,8	8,9	8,8	1	1	1	1	1	1	1	1	1	0	1	-8,949965	274,35988	312,316562	0
15.01.2021	19:02:17	0	0	4,519195	2,6115	278,8236	0,29	84,806	0	1016,64	6,9	8,9	8,8	1	1	1	1	1	1	1	1	1	0	1	-1,973221	274,243762	318,749768	0
15.01.2021	19:02:18	0	0	4,067276	2,60625	283,1976	0,295	84,817	0	1016,76	6,8	8,9	8,8	1	1	1	1	1	1	1	1	1	0	1	-5,778717	274,338716	315,388689	0
15.01.2021	19:02:19	0	0	2,598537	2,49075	281,7792	0,289	84,816	0	1016,74	7,1	9	8,8	1	1	1	1	1	1	1	1	1	0	1	-8,245243	274,234743	312,435558	0
15.01.2021	19:02:20	0	0	4,745155	2,43825	284,0688	0,29	84,81	0	1016,82	6,8	8,9	8,8	1	1	1	1	1	1	1	1	1	0	1	-6,8358	274,349295	314,38115	0
15.01.2021	19:02:21	0	0	3,841316	2,36475	280,998	0,284	84,807	0	1016,76	6,8	9	8,8	1	1	1	1	1	1	1	1	1	0	1	-7,540521	274,183716	312,901666	0
15.01.2021	19:02:22	0	0	2,598537	2,3175	283,1868	0,29	84,81	0	1016,78	6,8	9	8,8	1	1	1	1	1	1	1	1	1	0	1	-5,637773	274,23324	315,035999	0
15.01.2021	19:02:23	0	0	2,372578	2,346	289,1844	0,295	84,802	0	1016,8	6,8	9	8,8	1	1	1	1	1	1	1	1	1	0	1	-4,016913	274,189712	316,453307	0
15.01.2021	19:02:24	0	0	4,519195	2,391	290,0016	0,288	84,8	0	1016,8	6,8	9	8,8	1	1	1	1	1	1	1	1	1	0	1	-11,980268	274,270844	308,869427	0
15.01.2021	19:02:25	0	0	4,519195	2,47275	288,8028	0,287	84,805	0	1016,68	7,1	8,9	8,8	1	1	1	1	1	1	1	1	1	0	1	-11,41649	274,19721	309,088785	0
15.01.2021	19:02:26	0	0	2,485558	2,50575	281,4012	0,288	84,806	0	1016,68	7,1	9	8,8	1	1	1	1	1	1	1	1	1	0	1	-5,355884	274,206211	315,19148	0
15.01.2021	19:02:27	0	0	4,406216	2,39175	284,814	0,292	84,803	0	1016,78	6,8	9	8,8	1	1	1	1	1	1	1	1	1	0	1	-6,483439	274,248273	314,260652	0
15.01.2021	19:02:28	0	0	2,372578	2,3235	299,4372	0,284	84,795	0	1016,68	7,1	9	8,8	1	1	1	1	1	1	1	1	1	0	1	-9,866103	274,182217	310,569079	0
15.01.2021	19:02:29	0	0	4,519195	2,34675	292,1976	0,29	84,806	0	1016,78	6,8	9	8,8	1	1	1	1	1	1	1	1	1	0	1	-10,218464	274,243762	310,504525	0
15.01.2021	19:02:30	0	0	3,163437	2,30025	278,4348	0,293	84,815	0	1016,68	7,1	9	8,8	1	1	1	1	1	1	1	1	1	0	1	-6,060606	274,352319	315,170505	0
15.01.2021	19:02:31	0	0	2,598537	2,30625	275,0328	0,286	84,804	0	1016,68	6,9	9	8,8	1	1	1	1	1	1	1	1	1	0	1	-6,342495	274,362906	314,938202	0
15.01.2021	19:02:32	0	0	5,084095	2,32125	268,848	0,287	84,795	0	1016,76	6,8	8,9	8,8	1	1	1	1	1	1	1	1	1	0	1	-7,117689	274,285906	313,802492	0
15.01.2021	19:02:33	0	0	3,954296	2,2575	278,0892	0,289	84,812	0	1016,7	6,8	8,9	8,8	1	1	1	1	1	1	1	1	1	0	1	-8,315715	274,243762	312,407273	0
15.01.2021	19:02:34	0	0	3,728336	2,313	282,4668	0,29	84,813	0	1016,7	6,8	8,9	8,8	1	1	1	1	1	1	1	1	1	0	1	-9,161381	274,19571	311,336882	0
15.01.2021	19:02:35	0	0	4,971115	2,28975	312,8148	0,286	84,797	0	1016,64	7,1	8,9	8,8	1	1	1	1	1	1	1	1	1	0	1	-4,933051	274,19571	315,565212	0
15.01.2021	19:02:36	0	0	4,971115	2,19525	290,4228	0,292	84,808	0	1016,7	6,8	9	8,8	1	1	1	1	1	1	1	1	1	0	1	-10,147992	274,251281	310,610172	0
15.01.2021	19:02:37	0	0	3,615356	2,03625	309,87	0,292	84,811	0	1016,86	7,1	9	8,8	1	1	1	1	1	1	1	1	1	0	1	-5,073996	274,185214	315,375199	0
15.01.2021	19:02:38	0	0	3,389397	2,00925	294,3972	0,288	84,819	0	1016,56	6,8	8,9	8,8	1	1	1	1	1	1	1	1	1	0	1	-8,527132	274,275361	312,343702	0
15.01.2021	19:02:39	0	0	3,954296	2,106	291,6	0,291	84,812	0	1016,68	6,9	9	8,8	1	1	1	1	1	1	1	1	1	0	1	-6,765328	274,355343	314,479947	0
15.01.2021	19:02:40	0	0	2,598537	2,2785	303,552	0,284	84,815	0	1016,58	7,1	8,9	8,8	1	1	1	1	1	1	1	1	1	0	1	-18,322763	274,37804	303,028829	0
15.01.2021	19:02:41	0	0	4,519195	2,3535	304,9992	0,29	84,819	0	1016,74	7,1	9	8,8	1	1	1	1	1	1	1	1	1	0	1	-4,510218	274,228733	316,142471	0
15.01.2021	19:02:42	0	0	4,632175	2,30325	304,9956	0,289	84,833	0	1016,74	6,8	9	8,8	1	1	1	1	1	1	1	1	1	0	1	-6,8358	274,367445	314,466158	0
15.01.2021	19:02:43	0	0	4,067276	2,19675	296,9388	0,291	84,818	0	1016,78	6,8	9	8,8	1	1	1	1	1	1	1	1	1	0	1	-10,782241	274,227231	309,863422	0
15.01.2021	19:02:44	0	0	3,502376	2,17875	289,6056	0,289	84,825	0	1016,54	6,8	8,9	8,8	1	1	1	1	1	1	1	1	1	0	1	-8,174771	274,373498	313,155545	0
15.01.2021	19:02:45	0	0	4,519195	2,01525	294,7392	0,293	84,831	0	1016,82	7,1	9	8,8	1	1	1	1	1	1	1	1	1	0	1	-8,315715	274,30098	312,675018	0
15.01.2021	19:02:46	0	0	3,389397	1,84575	300,1752	0,286	84,817	0	1016,66	6,8	9	8,8	1	1	1	1	1	1	1	1	1	0	1	-11,205074	274,248273	309,539017	0
15.01.2021	19:02:47	0	0	4,293236	1,97325	281,3436	0,281	84,825	0	1016,64	6,8	9	8,8	1	1	1	1	1	1	1	1	1	0	1	-11,134602	274,365932	310,160269	0
15.01.2021	19:02:48	0	0	4,067276	2,208	296,7876	0,284	84,817	0	1016,66	6,8	9	8,8	1	1	1	1	1	1	1	1	1	0	1	-12,825934	274,252785	307,939266	0
15.01.2021	19:02:49	0	0	2,598537	2,4255	280,2312	0,293	84,833	0	1016,8	7,1	9	8,8	1	1	1	1	1	1	1	1	1	0	1	-11,275546	274,192711	309,208694	0
15.01.2021	19:02:50	0	0	4,745155	2,52375	295,5816	0,286	84,84	0	1016,72	7,1	9	8,8	1	1	1	1	1	1	1	1	1	0	1	-9,231853	274,325122	311,871902	0
15.01.2021	19:02:51	0	0	4,293236	2,50725	284,8464	0,287	84,818	0	1016,66	6,8	8,9	8,8	1	1	1	1	1	1	1	1	1	0	1	-6,412967	274,260308	314,387428	0
15.01.2021	19:02:52	0	0	3,389397	2,484	285,2064	0,289	84,842	0	1016,78	6,8	9	8,8	1	1	1	1	1	1	1	1	1	0	1	-4,087385	274,35988	317,179141	0
15.01.2021	19:02:53	0	0	3,276417	2,4585	286,9992	0,29	84,838	0	1016,7	7,1	9	8,8	1	1	1	1	1	1	1	1	1	0	1	-10,852713	274,183716	309,589475	0
15.01.2021	19:02:54	0	0	3,050457	2,5425	284,5152	0,293	84,835	0	1016,72	6,8	9	8,8	1	1	1	1	1	1	1	1	1	0	1	-8,315715	274,314556	312,738572	0
15.01.2021	19:02:55	0	0	4,971115	2,80575	285,2172	0,289	84,838	0	1016,76	6,8	9	8,8	1	1	1	1	1	1	1	1	1	0	1	-9,513742	274,341738	311,667816	0
15.01.2021	19:02:56	0	0	4,406216	2,835	292,9536	0,286	84,842	0	1016,64	6,8	8,9	8,8	1	1	1	1	1	1	1	1	1	0	1	-6,272023	274,281386	314,627005	0
15.01.2021	19:02:57	0	0	4,971115	2,82075	284,4324	0,29	84,828	0	1016,7	6,8	8,9	8,8	1	1	1	1	1	1	1	1	1	0	1	-7,399577	274,341738	313,781981	0
15.01.2021	19:02:58	0	0	3,954296	2,91975	288,9108	0,288	84,85	0	1016,76	6,8	9	8,8	1	1	1	1	1	1	1	1	1	0	1	-8,738548	274,35988	312,527978	0
15.01.2021	19:02:59	0	0	2,824497	3,096	296,424	0,287	84,837	0	1016,56	6,8	8,9	8,8	1	1	1	1	1	1	1	1	1	0	1	-7,751938	274,313047	313,295285	0
15.01.2021	19:03:00	0	0	2,711517	3,2865	306,432	0,291	84,847	0	1016,82	7,1	9	8,8	1	1	1	1	1	1	1	1	1	0	1	-9,654686	274,356855	311,597672	0
15.01.2021	19:03:01	0	0	4,406216	3,38625	303,9372	0,289	84,832	0	1016,76	6,8	9	8,8	1	1	1	1	1	1	1	1	1	0	1	-6,8358	274,367445	314,466158	0
15.01.2021	19:03:02	0	0	4,971115	3,3525	310,2552	0,288	84,847	0	1016,76	6,8	9	8,8	1	1	1	1	1	1	1	1	1	0	1	-13,812544	274,303996	307,192307	0
15.01.2021	19:03:03	0	0	2,146618	3,24975	310,6692	0,286	84,865	0	1016,78	6,8	8,9	8,8	1	1	1	1	1	1	1	1	1	0	1	-7,610994	274,20171	312,915323	0
15.01.2021	19:03:04	0	0	3,615356	3,02475	290,124	0,293	84,853	0	1016,8	6,8	9	8,8	1	1	1	1	1	1	1	1	1	0	1	-8,033827	274,174725	312,366332	0
15.01.2021	19:03:05	0	0	4,971115	2,7915	288,8172	0,29	84,839	0	1016,66	6,8	9	8,8	1	1	1	1	1	1	1	1	1	0	1	-8,597604	274,296456	312,371956	0
15.01.2021	19:03:06	0	0	3,728336	2,75475	291,474	0,286	84,857	0	1016,6	6,8	8,9	8,8	1	1	1	1	1	1	1	1	1	0	1	-5,778717	274,20021	314,740585	0
15.01.2021	19:03:07	0	0	4,067276	2,86875	294,138	0,287	84,858	0	1016,64	7,1	9	8,8	1	1	1	1	1	1	1	1	1	0	1	-9,372798	274,317575	311,69562	0
15.01.2021	19:03:08	0	0	4,745155	3,045	306,4068	0,282	84,851	0	1016,66	7,1	9	8,8	1	1	1	1	1	1	1	1	1	0	1	-10,218464	274,278374	310,666466	0
15.01.2021	19:03:09	0	0	1,920658	2,955	291,4488	0,283	84,864	0	1016,72	6,8	8,9	8,8	1	1	1	1	1	1	1	1	1	0	1	-9,584214	274,219721	311,026327	0
15.01.2021	19:03:10	0	0	3,954296	2,88675	295,5276	0,288	84,86	0	1016,76	6,8	8,9	8,8	1	1	1	1	1	1	1	1	1	0	1	-7,329105	274,370471	313,987031	0
15.01.2021	19:03:11	0	0	5,197075	2,934	297,9	0,288	84,864	0	1016,84	6,8	9	8,8	1	1	1	1	1	1	1	1	1	0	1	-12,966878	274,316065	308,094474	0
15.01.2021	19:03:12	0	0	2,485558	3,0135	293,0364	0,286	84,849	0	1016,8	7,1	8,9	8,8	1	1	1	1	1	1	1	1	1	0	1	-9,795631	274,379554	311,563054	0
15.01.2021	19:03:13	0	0	3,276417	3,0735	289,1232	0,3	84,856	0	1016,76	6,8	9	8,8	1	1	1	1	1	1	1	1	1	0	1	-6,765328	274,222724	313,85926	0
15.01.2021	19:03:14	0	0	4,406216	2,9835	289,566	0,287	84,865	0	1016,64	6,8	8,9	8,8	1	1	1	1	1	1	1	1	1	0	1	-9,161381	274,19421	311,32987	0
15.01.2021	19:03:15	0	0	3,389397	2,9565	291,492	0,284	84,859	0	1016,62	6,8	9	8,8	1	1	1	1	1	1	1	1	1	0	1	-15,151515	274,323613	305,945171	0
15.01.2021	19:03:16	0	0	3,389397	3,01275	294,8436	0,288	84,869	0	1016,7	7,1	8,9	8,8	1	1	1	1	1	1	1	1	1	0	1	-9,020437	274,249777	311,73069	0
15.01.2021	19:03:17	0	0	4,180256	2,92725	300,492	0,281	84,867	0	1016,54	6,8	9	8,8	1	1	1	1	1	1	1	1	1	0	1	-14,728682	274,382582	306,64419	0
15.01.2021	19:03:18	0	0	4,293236	2,88225	303,2244	0,287	84,867	0	1016,54	6,8	8,9	8,8	1	1	1	1	1	1	1	1	1	0	1	-4,510218	274,267833	316,325387	0
15.01.2021	19:03:19	0	0	4,293236	2,9295	302,5044	0,286	84,871	0	1016,7	6,8	9	8,8	1	1	1	1	1	1	1	1	1	0	1	-8,597604	274,358368	312,661838	0
15.01.2021	19:03:20	0	0	3,050457	3,01725	299,4372	0,285	84,87	0	1016,72	6,8	9	8,8	1	1	1	1	1	1	1	1	1	0	1	-10,359408	274,240755	310,349515	0
15.01.2021	19:03:21	0	0	4,293236	3,04275	296,0676	0,29	84,864	0	1016,52	6,8	8,9	8,8	1	1	1	1	1	1	1	1	1	0	1	-13,6716	274,365932	307,623271	0
15.01.2021	19:03:22	0	0	3,163437	2,976	306,0936	0,29	84,877	0	1016,64	7,1	9	8,8	1	1	1	1	1	1	1	1	1	0	1	-8,879493	274,323613	312,217194	0
15.01.2021	19:03:23	0	0	4,067276	2,9985	304,6644	0,289	84,877	0	1016,74	6,8	8,9	8,8	1	1	1	1	1	1	1	1	1	0	1	-8,949965	274,23324	311,723807	0
15.01.2021	19:03:24	0	0	3,276417	2,988	305,4132	0,291	84,887	0	1016,74	6,8	9	8,8	1	1	1	1	1	1	1	1	1	0	1	-12,896406	274,388641	308,504851	0
15.01.2021	19:03:25	0	0	4,971115	2,85825	311,4216	0,292	84,898	0	1016,64	6,8	8,9	8,8	1	1	1	1	1	1	1	1	1	0	1	-9,161381	274,257298	311,624934	0
15.01.2021	19:03:26	0	0	2,711517	2,784	303,9156	0,289	84,867	0	1016,74	7,1	9	8,8	1	1	1	1	1	1	1	1	1	0	1	-7,258633	274,213715	313,323823	0
15.01.2021	19:03:27	0	0	2,824497	2,82225	311,4252	0,296	84,885	0	1016,68	6,8	8,9	8,8	1	1	1	1	1	1	1	1	1	0	1	-12,825934	274,245266	307,904088	0
15.01.2021	19:03:28	0	0	4,180256	2,859	316,224	0,29	84,878	0	1016,72	7,1	9	8,8	1	1	1	1	1	1	1	1	1	0	1	-10,288936	274,19571	310,209328	0
15.01.2021	19:03:29	0	0	3,954296	2,83725	311,7888	0,291	84,891	0	1016,72	7,1	9	8,8	1	1	1	1	1	1	1	1	1	0	1	-11,909796	274,317575	309,158622	0
15.01.2021	19:03:30	0	0	4,067276	2,91525	319,9284	0,291	84,881	0	1016,72	6,8	8,9	8,8	1	1	1	1	1	1	1	1	1	0	1	-9,795631	274,213715	310,786825	0
15.01.2021	19:03:31	0	0	2,824497	2,86725	308,1024	0,292	84,888	0	1016,64	6,8	9	8,8	1	1	1	1	1	1	1	1	1	0	1	-9,866103	274,212214	310,709333	0
15.01.2021	19:03:32	0	0	2,598537	2,79225	317,6676	0,294	84,894	0	1016,76	7,1	9	8,8	1	1	1	1	1	1	1	1	1	0	1	-5,426357	274,219721	315,184185	0
15.01.2021	19:03:33	0	0	4,858135	2,67375	308,0844	0,292	84,887	0	1016,74	6,8	8,9	8,8	1	1	1	1	1	1	1	1	1	0	1	-8,174771	274,20021	312,344532	0
15.01.2021	19:03:34	0	0	3,389397	2,5305	302,4396	0,293	84,917	0	1016,76	6,9	9	8,8	1	1	1	1	1	1	1	1	1	0	1	-12,332629	274,326632	308,778197	0
15.01.2021	19:03:35	0	0	2,824497	2,60925	300,456	0,283	84,894	0	1016,6	6,8	8,9	8,8	1	1	1	1	1	1	1	1	1	0	1	-15,292459	274,371985	306,030766	0
15.01.2021	19:03:36	0	0	4,519195	2,51925	292,194	0,292	84,875	0	1016,6	7,1	9	8,8	1	1	1	1	1	1	1	1	1	0	1	-8,668076	274,361393	312,605535	0
15.01.2021	19:03:37	0	0	3,615356	2,47575	298,2816	0,294	84,896	0	1016,76	7,1	8,9	8,8	1	1	1	1	1	1	1	1	1	0	1	-13,03735	274,384097	308,342618	0
15.01.2021	19:03:38	0	0	4,858135	2,5395	294,0804	0,29	84,899	0	1016,7	6,8	9	8,8	1	1	1	1	1	1	1	1	1	0	1	-7,329105	274,373498	314,001211	0
15.01.2021	19:03:39	0	0	3,954296	2,5095	298,6884	0,286	84,878	0	1016,64	6,8	9	8,8	1	1	1	1	1	1	1	1	1	0	1	-6,553911	274,278374	314,331018	0
15.01.2021	19:03:40	0	0	2,146618	2,433	293,7132	0,294	84,914	0	1016,74	6,8	9	8,8	1	1	1	1	1	1	1	1	1	0	1	-7,82241	274,210713	312,746007	0
15.01.2021	19:03:41	0	0	2,937477	2,29275	294,1524	0,292	84,905	0	1016,6	6,8	9	8,8	1	1	1	1	1	1	1	1	1	0	1	-6,20155	274,294949	314,760954	0
15.01.2021	19:03:42	0	0	4,632175	2,19675	295,5744	0,289	84,908	0	1016,68	7,1	9	8,8	1	1	1	1	1	1	1	1	1	0	1	-13,248767	274,391671	308,166687	0
15.01.2021	19:03:43	0	0	2,259598	2,18775	292,968	0,296	84,907	0	1016,78	6,8	9	8,8	1	1	1	1	1	1	1	1	1	0	1	-11,275546	274,224226	309,356066	0
15.01.2021	19:03:44	0	0	5,197075	2,178	293,6988	0,293	84,919	0	1016,72	7,1	9	8,8	1	1	1	1	1	1	1	1	1	0	1	-8,80902	274,367445	312,492938	0
15.01.2021	19:03:45	0	0	5,084095	2,172	295,2072	0,292	84,91	0	1016,64	6,9	9	8,8	1	1	1	1	1	1	1	1	1	0	1	-6,553911	274,350807	314,670119	0
15.01.2021	19:03:46	0	0	2,824497	2,142	302,8788	0,295	84,904	0	1016,56	7,1	9	8,8	1	1	1	1	1	1	1	1	1	0	1	-9,936575	274,328142	311,18132	0
15.01.2021	19:03:47	0	0	4,406216	2,181	311,742	0,296	84,913	0	1016,62	6,8	8,9	8,8	1	1	1	1	1	1	1	1	1	0	1	-4,439746	274,209212	316,121653	0
15.01.2021	19:03:48	0	0	2,937477	2,2785	299,8008	0,293	84,905	0	1016,76	7,1	9	8,8	1	1	1	1	1	1	1	1	1	0	1	-10,288936	274,269338	310,553714	0
15.01.2021	19:03:49	0	0	3,050457	2,319	300,798	0,296	84,916	0	1016,64	7,1	9	8,8	1	1	1	1	1	1	1	1	1	0	1	-7,188161	274,207712	313,366221	0
15.01.2021	19:03:50	0	0	4,632175	2,2755	301,23	0,294	84,906	0	1016,62	7,1	8,9	8,8	1	1	1	1	1	1	1	1	1	0	1	-5,144468	274,299472	315,839207	0
15.01.2021	19:03:51	0	0	4,519195	2,25675	301,6332	0,293	84,904	0	1016,62	7,1	8,9	8,8	1	1	1	1	1	1	1	1	1	0	1	-11,909796	274,365932	309,385075	0
15.01.2021	19:03:52	0	0	5,310055	2,15925	306,1908	0,296	84,914	0	1016,52	6,8	8,9	8,8	1	1	1	1	1	1	1	1	1	0	1	-8,174771	274,37804	313,17682	0
15.01.2021	19:03:53	0	0	2,598537	2,076	306,504	0,295	84,895	0	1016,76	6,8	9	8,8	1	1	1	1	1	1	1	1	1	0	1	-7,329105	274,376526	314,015394	0
15.01.2021	19:03:54	0	0	4,971115	2,05125	306,1584	0,291	84,916	0	1016,74	7,1	8,9	8,8	1	1	1	1	1	1	1	1	1	0	1	-7,470049	274,338716	313,697357	0
15.01.2021	19:03:55	0	0	3,615356	2,1165	308,142	0,297	84,915	0	1016,76	7,1	9	8,8	1	1	1	1	1	1	1	1	1	0	1	-15,926709	274,20021	304,592594	0
15.01.2021	19:03:56	0	0	4,971115	2,12775	314,0928	0,296	84,91	0	1016,74	6,8	8,9	8,8	1	1	1	1	1	1	1	1	1	0	1	-8,949965	274,323613	312,146722	0
15.01.2021	19:03:57	0	0	4,519195	2,028	307,206	0,299	84,914	0	1016,88	7,1	8,9	8,8	1	1	1	1	1	1	1	1	1	0	1	-10,147992	274,391671	311,267462	0
15.01.2021	19:03:58	0	0	4,067276	1,9755	307,1844	0,302	84,914	0	1016,72	7,1	9	8,8	1	1	1	1	1	1	1	1	1	0	1	-10,007047	274,246769	310,730009	0
15.01.2021	19:03:59	0	0	3,163437	1,9365	305,838	0,294	84,89	0	1016,64	7,1	8,9	8,8	1	1	1	1	1	1	1	1	1	0	1	-10,359408	274,269338	310,483242	0
15.01.2021	19:04:00	0	0	4,293236	1,94625	304,65	0,3	84,911	0	1016,66	7,1	9	8,8	1	1	1	1	1	1	1	1	1	0	1	-9,725159	274,376526	311,61934	0
15.01.2021	19:04:01	0	0	4,745155	2,09925	296,4348	0,3	84,9	0	1016,56	6,8	8,9	8,8	1	1	1	1	1	1	1	1	1	0	1	-6,976744	274,263317	313,837733	0
15.01.2021	19:04:02	0	0	3,728336	2,20575	294,1272	0,299	84,969	0	1016,7	7,1	8,9	8,8	1	1	1	1	1	1	1	1	1	0	1	-10,852713	274,213715	309,729743	0
15.01.2021	19:04:03	0	0	2,711517	2,28075	295,1676	0,298	84,917	0	1016,72	7,1	8,9	8,8	1	1	1	1	1	1	1	1	1	0	1	-6,906272	274,303996	314,098579	0
15.01.2021	19:04:04	0	0	3,050457	2,2995	292,6188	0,3	84,893	0	1016,78	7,1	8,9	8,8	1	1	1	1	1	1	1	1	1	0	1	-11,698379	274,384097	309,681589	0
15.01.2021	19:04:05	0	0	4,858135	2,22525	295,5924	0,299	84,902	0	1016,64	6,8	8,9	8,8	1	1	1	1	1	1	1	1	1	0	1	-11,486963	274,370471	309,829173	0
15.01.2021	19:04:06	0	0	3,389397	2,20725	293,3424	0,302	84,911	0	1016,58	7,1	9	8,8	1	1	1	1	1	1	1	1	1	0	1	-7,610994	274,393186	313,811559	0
15.01.2021	19:04:07	0	0	4,180256	2,14125	306,8604	0,294	84,898	0	1016,56	7,1	8,9	8,8	1	1	1	1	1	1	1	1	1	0	1	-9,866103	274,236246	310,821728	0
15.01.2021	19:04:08	0	0	4,406216	2,04675	312,534	0,297	84,918	0	1016,64	7,1	8,9	8,8	1	1	1	1	1	1	1	1	1	0	1	-10,993658	274,284399	309,919471	0
15.01.2021	19:04:09	0	0	4,067276	1,94175	311,2992	0,299	84,896	0	1016,7	7,1	9	8,8	1	1	1	1	1	1	1	1	1	0	1	-8,597604	274,37804	312,753987	0
15.01.2021	19:04:10	0	0	2,937477	1,93575	312,138	0,3	84,921	0	1016,76	7,1	8,9	8,8	1	1	1	1	1	1	1	1	1	0	1	-4,016913	274,252785	316,748287	0
15.01.2021	19:04:11	0	0	3,615356	2,0055	311,3568	0,301	84,897	0	1016,72	7,1	9	8,8	1	1	1	1	1	1	1	1	1	0	1	-18,745595	274,257298	302,040719	0
15.01.2021	19:04:12	0	0	4,180256	2,22375	307,1952	0,293	84,905	0	1016,7	6,8	9	8,8	1	1	1	1	1	1	1	1	1	0	1	-8,386187	274,397732	313,057667	0
15.01.2021	19:04:13	0	0	4,745155	2,33775	300,4092	0,294	84,897	0	1016,68	7,1	9	8,8	1	1	1	1	1	1	1	1	1	0	1	-10,42988	274,290427	310,511459	0
15.01.2021	19:04:14	0	0	3,276417	2,409	308,4624	0,294	84,91	0	1016,72	6,8	9	8,8	1	1	1	1	1	1	1	1	1	0	1	-10,500352	274,391671	310,915101	0
15.01.2021	19:04:15	0	0	3,050457	2,3685	317,0124	0,299	84,898	0	1016,62	7,1	8,9	8,8	1	1	1	1	1	1	1	1	1	0	1	-5,84919	274,257298	314,937125	0
15.01.2021	19:04:16	0	0	4,858135	2,31375	290,3976	0,3	84,907	0	1016,8	7,1	9,1	8,8	1	1	1	1	1	1	1	1	1	0	1	-6,131078	274,264822	314,690441	0
15.01.2021	19:04:17	0	0	3,615356	2,26125	313,3188	0,294	84,907	0	1016,62	7,1	8,9	8,8	1	1	1	1	1	1	1	1	1	0	1	-5,285412	274,215217	315,304064	0
15.01.2021	19:04:18	0	0	2,711517	2,166	306,3564	0,297	84,916	0	1016,74	7,1	9	8,8	1	1	1	1	1	1	1	1	1	0	1	-10,711769	274,341738	310,469789	0
15.01.2021	19:04:19	0	0	3,954296	2,034	309,96	0,299	84,903	0	1016,52	7,1	9	8,8	1	1	1	1	1	1	1	1	1	0	1	-11,486963	274,219721	309,123579	0
15.01.2021	19:04:20	0	0	4,293236	1,93875	314,4672	0,294	84,898	0	1016,6	6,8	9	8,8	1	1	1	1	1	1	1	1	1	0	1	-11,346018	274,394701	310,083634	0
15.01.2021	19:04:21	0	0	5,084095	1,878	305,9028	0,296	84,912	0	1016,76	7,1	9,1	8,8	1	1	1	1	1	1	1	1	1	0	1	-10,218464	274,308521	310,80757	0
15.01.2021	19:04:22	0	0	3,728336	1,83675	309,888	0,3	84,891	0	1016,78	6,8	9,1	8,8	1	1	1	1	1	1	1	1	1	0	1	-7,892882	274,228733	312,759807	0
15.01.2021	19:04:23	0	0	2,485558	1,914	304,2792	0,298	84,916	0	1016,6	7,1	8,9	8,8	1	1	1	1	1	1	1	1	1	0	1	-8,174771	274,387126	313,219389	0
15.01.2021	19:04:24	0	0	4,406216	2,01675	306,0936	0,294	84,898	0	1016,7	7,1	9	8,8	1	1	1	1	1	1	1	1	1	0	1	-9,020437	274,332673	312,118673	0
15.01.2021	19:04:25	0	0	4,745155	2,034	304,2936	0,301	84,905	0	1016,78	7,1	9,1	8,8	1	1	1	1	1	1	1	1	1	0	1	-6,342495	274,206211	314,204869	0
15.01.2021	19:04:26	0	0	2,937477	2,01525	297,4824	0,292	84,908	0	1016,64	6,8	8,9	8,8	1	1	1	1	1	1	1	1	1	0	1	-7,329105	274,248273	313,414986	0
15.01.2021	19:04:27	0	0	3,389397	1,95675	287,4348	0,294	84,907	0	1016,72	7,1	8,9	8,8	1	1	1	1	1	1	1	1	1	0	1	-7,540521	274,353831	313,697671	0
15.01.2021	19:04:28	0	0	4,293236	1,8	300,4308	0,294	84,906	0	1016,8	7,1	8,9	8,8	1	1	1	1	1	1	1	1	1	0	1	-7,82241	274,405311	313,65696	0
15.01.2021	19:04:29	0	0	4,406216	1,73175	283,3236	0,297	84,894	0	1016,68	7,1	9	8,8	1	1	1	1	1	1	1	1	1	0	1	-5,708245	274,346272	315,494546	0
15.01.2021	19:04:30	0	0	4,971115	1,85475	296,4636	0,297	84,901	0	1016,74	6,8	8,9	8,8	1	1	1	1	1	1	1	1	1	0	1	-6,906272	274,218219	313,697247	0
15.01.2021	19:04:31	0	0	2,372578	1,86225	297,1872	0,298	84,901	0	1016,82	7,1	9	8,8	1	1	1	1	1	1	1	1	1	0	1	-12,262156	274,23324	308,411616	0
15.01.2021	19:04:32	0	0	4,632175	1,8795	292,914	0,3	84,902	0	1016,94	7,1	9	8,8	1	1	1	1	1	1	1	1	1	0	1	-8,45666	274,282893	312,449418	0
15.01.2021	19:04:33	0	0	3,050457	1,9125	310,9536	0,295	84,899	0	1016,76	7,1	8,9	8,8	1	1	1	1	1	1	1	1	1	0	1	-9,302326	274,239252	311,399566	0
15.01.2021	19:04:34	0	0	3,728336	1,90875	289,9872	0,301	84,908	0	1016,76	6,8	8,9	8,8	1	1	1	1	1	1	1	1	1	0	1	-9,161381	274,291934	311,787012	0
15.01.2021	19:04:35	0	0	2,372578	1,92	292,212	0,296	84,901	0	1016,78	7,1	8,9	8,8	1	1	1	1	1	1	1	1	1	0	1	-7,399577	274,204711	313,140771	0
15.01.2021	19:04:36	0	0	3,050457	1,99875	286,9956	0,302	84,913	0	1016,7	7,1	9	8,8	1	1	1	1	1	1	1	1	1	0	1	-9,090909	274,305504	311,921002	0
15.01.2021	19:04:37	0	0	3,841316	2,00625	302,3856	0,307	84,903	0	1016,66	6,8	8,9	8,8	1	1	1	1	1	1	1	1	1	0	1	-6,20155	274,400763	315,256508	0
15.01.2021	19:04:38	0	0	2,824497	1,97625	299,0376	0,303	84,893	0	1016,64	7,1	9	8,8	1	1	1	1	1	1	1	1	1	0	1	-4,369274	274,212214	316,206162	0
15.01.2021	19:04:39	0	0	4,745155	1,92975	279,486	0,304	84,907	0	1016,56	7,1	9	8,8	1	1	1	1	1	1	1	1	1	0	1	-7,329105	274,313047	313,718118	0
15.01.2021	19:04:40	0	0	3,728336	1,93275	283,5612	0,302	84,913	0	1016,76	7,1	8,9	8,8	1	1	1	1	1	1	1	1	1	0	1	-6,976744	274,373498	314,353572	0
15.01.2021	19:04:41	0	0	2,937477	2,0355	282,4344	0,298	84,893	0	1016,68	7,1	9	8,8	1	1	1	1	1	1	1	1	1	0	1	-12,262156	274,230235	308,39756	0
15.01.2021	19:04:42	0	0	3,841316	1,95825	280,6452	0,297	84,891	0	1016,56	6,8	9	8,8	1	1	1	1	1	1	1	1	1	0	1	-7,470049	274,332673	313,669061	0
15.01.2021	19:04:43	0	0	4,293236	1,887	280,944	0,3	84,899	0	1016,62	6,8	8,9	8,8	1	1	1	1	1	1	1	1	1	0	1	-14,023961	274,393186	307,398592	0
15.01.2021	19:04:44	0	0	3,502376	1,76325	287,7336	0,304	84,904	0	1016,64	7,1	9,1	8,8	1	1	1	1	1	1	1	1	1	0	1	-11,768851	274,236246	308,918979	0
15.01.2021	19:04:45	0	0	3,954296	1,713	290,0412	0,299	84,906	0	1016,68	7,1	9,1	8,8	1	1	1	1	1	1	1	1	1	0	1	-7,188161	274,294949	313,774343	0
15.01.2021	19:04:46	0	0	4,180256	1,7355	301,6332	0,297	84,91	0	1016,72	7,1	9	8,8	1	1	1	1	1	1	1	1	1	0	1	-5,21494	274,403795	316,257326	0
15.01.2021	19:04:47	0	0	4,067276	1,77075	291,1824	0,302	84,897	0	1016,72	7,1	9,1	8,8	1	1	1	1	1	1	1	1	1	0	1	-11,06413	274,332673	310,074981	0
15.01.2021	19:04:48	0	0	2,824497	1,9605	294,1812	0,299	84,903	0	1016,76	7,1	9,1	8,8	1	1	1	1	1	1	1	1	1	0	1	-11,768851	274,228733	308,883838	0
15.01.2021	19:04:49	0	0	4,745155	2,18775	307,5552	0,304	84,901	0	1016,72	7,1	8,9	8,8	1	1	1	1	1	1	1	1	1	0	1	-12,544045	274,269338	308,298605	0
15.01.2021	19:04:50	0	0	3,502376	2,45625	307,6416	0,299	84,893	0	1016,58	7,1	9,1	8,8	1	1	1	1	1	1	1	1	1	0	1	-9,44327	274,349295	311,77368	0
15.01.2021	19:04:51	0	0	2,598537	2,58225	297,936	0,298	84,897	0	1016,74	7,1	8,9	8,8	1	1	1	1	1	1	1	1	1	0	1	-9,725159	274,397732	311,718696	0
15.01.2021	19:04:52	0	0	3,502376	2,58	307,134	0,299	84,896	0	1016,7	7,1	8,9	8,8	1	1	1	1	1	1	1	1	1	0	1	-10,641297	274,322103	310,448322	0
15.01.2021	19:04:53	0	0	4,519195	2,63325	305,3628	0,3	84,894	0	1016,62	7,1	9	8,8	1	1	1	1	1	1	1	1	1	0	1	-8,245243	274,393186	313,17731	0
15.01.2021	19:04:54	0	0	2,711517	2,676	304,9344	0,294	84,896	0	1016,74	7,1	8,9	8,8	1	1	1	1	1	1	1	1	1	0	1	-7,681466	274,249777	313,069661	0
15.01.2021	19:04:55	0	0	2,937477	2,4885	296,028	0,299	84,891	0	1016,8	7,1	8,9	8,8	1	1	1	1	1	1	1	1	1	0	1	-10,42988	274,281386	310,469148	0
15.01.2021	19:04:56	0	0	2,146618	2,52	296,8164	0,299	84,898	0	1016,7	7,1	9	8,8	1	1	1	1	1	1	1	1	1	0	1	-9,090909	274,394701	312,338744	0
15.01.2021	19:04:57	0	0	2,711517	2,53425	300,51	0,295	84,893	0	1016,48	6,9	9,1	8,8	1	1	1	1	1	1	1	1	1	0	1	-8,104299	274,258803	312,689056	0
15.01.2021	19:04:58	0	0	3,954296	2,4615	305,7372	0,303	84,906	0	1016,78	7,1	8,9	8,8	1	1	1	1	1	1	1	1	1	0	1	-9,161381	274,394701	312,268271	0
15.01.2021	19:04:59	0	0	3,163437	2,328	294,372	0,299	84,891	0	1016,56	7,1	8,9	8,8	1	1	1	1	1	1	1	1	1	0	1	-9,866103	274,270844	310,983592	0
15.01.2021	19:05:00	0	0	4,519195	2,13	293,3424	0,298	84,888	0	1016,7	6,8	9	8,8	1	1	1	1	1	1	1	1	1	0	1	-10,359408	274,355343	310,885867	0
15.01.2021	19:05:01	0	0	4,519195	2,13	293,3424	0,298	84,888	0	1016,7	6,8	9	8,8	1	1	1	1	1	1	1	1	1	0	1	-10,42988	274,384097	310,950088	0
15.01.2021	19:05:02	0	0	3,841316	2,0625	290,808	0,301	84,899	0	1016,82	6,8	9	8,8	1	1	1	1	1	1	1	1	1	0	1	-12,403101	274,305504	308,608811	0
15.01.2021	19:05:03	0	0	3,615356	1,9875	291,1716	0,3	84,88	0	1016,6	7,1	9	8,8	1	1	1	1	1	1	1	1	1	0	1	-9,936575	274,384097	311,443393	0
15.01.2021	19:05:04	0	0	4,180256	1,95375	291,4848	0,297	84,886	0	1016,86	6,8	9	8,8	1	1	1	1	1	1	1	1	1	0	1	-10,711769	274,368958	310,597278	0
15.01.2021	19:05:05	0	0	4,632175	1,81575	299,3976	0,301	84,897	0	1016,6	7,1	8,9	8,8	1	1	1	1	1	1	1	1	1	0	1	-7,470049	274,403795	314,002217	0
15.01.2021	19:05:06	0	0	2,824497	1,83075	308,8692	0,295	84,882	0	1016,66	6,8	9,1	8,8	1	1	1	1	1	1	1	1	1	0	1	-8,315715	274,364419	312,972068	0
15.01.2021	19:05:07	0	0	4,180256	1,85475	284,49	0,295	84,887	0	1016,62	7,1	9,1	8,8	1	1	1	1	1	1	1	1	1	0	1	-13,883016	274,365932	307,411854	0
15.01.2021	19:05:08	0	0	3,615356	1,851	294,0624	0,303	84,897	0	1016,7	7,1	9	8,8	1	1	1	1	1	1	1	1	1	0	1	-8,245243	274,350807	312,978787	0
15.01.2021	19:05:09	0	0	2,485558	1,95825	300,906	0,302	84,894	0	1016,7	7,1	8,9	8,8	1	1	1	1	1	1	1	1	1	0	1	-8,315715	274,367445	312,986243	0
15.01.2021	19:05:10	0	0	4,632175	2,1135	290,8152	0,306	84,898	0	1016,74	7,1	9,1	8,8	1	1	1	1	1	1	1	1	1	0	1	-8,104299	274,399247	313,346658	0
15.01.2021	19:05:11	0	0	4,293236	2,196	308,0232	0,302	84,887	0	1016,6	7,1	9	8,8	1	1	1	1	1	1	1	1	1	0	1	-8,45666	274,355343	312,788616	0
15.01.2021	19:05:12	0	0	2,937477	2,37225	280,2924	0,301	84,886	0	1016,74	7,1	8,9	8,8	1	1	1	1	1	1	1	1	1	0	1	-10,359408	274,242259	310,356548	0
15.01.2021	19:05:13	0	0	4,971115	2,54325	296,0604	0,303	84,896	0	1016,74	6,8	9,1	8,8	1	1	1	1	1	1	1	1	1	0	1	-11,134602	274,294949	309,827902	0
15.01.2021	19:05:14	0	0	4,180256	2,673	292,2084	0,302	84,898	0	1016,74	6,8	8,9	8,8	1	1	1	1	1	1	1	1	1	0	1	-7,470049	274,396216	313,966704	0
15.01.2021	19:05:15	0	0	3,841316	2,8395	304,2972	0,299	84,894	0	1016,62	6,8	9,1	8,8	1	1	1	1	1	1	1	1	1	0	1	-9,090909	274,352319	312,140202	0
15.01.2021	19:05:16	0	0	3,615356	3,09075	297,9108	0,302	84,887	0	1016,76	7,1	9,1	8,8	1	1	1	1	1	1	1	1	1	0	1	-10,288936	274,228733	310,363753	0
15.01.2021	19:05:17	0	0	4,519195	3,30825	296,1288	0,305	84,9	0	1016,62	7,1	8,9	8,8	1	1	1	1	1	1	1	1	1	0	1	-11,06413	274,224226	309,567483	0
15.01.2021	19:05:18	0	0	4,519195	3,468	295,4988	0,303	84,903	0	1016,74	6,9	9	8,8	1	1	1	1	1	1	1	1	1	0	1	-10,993658	274,382582	310,379215	0
15.01.2021	19:05:19	0	0	2,937477	3,41925	300,8232	0,303	84,89	0	1016,72	7,1	9	8,8	1	1	1	1	1	1	1	1	1	0	1	-10,782241	274,266328	310,046321	0
15.01.2021	19:05:20	0	0	3,728336	3,16425	302,436	0,298	84,888	0	1016,64	7,1	8,9	8,8	1	1	1	1	1	1	1	1	1	0	1	-9,44327	274,396216	311,993483	0
15.01.2021	19:05:21	0	0	4,293236	2,84475	308,8656	0,299	84,894	0	1016,74	7,1	9,1	8,8	1	1	1	1	1	1	1	1	1	0	1	-10,42988	274,355343	310,815395	0
15.01.2021	19:05:22	0	0	2,824497	2,832	305,0064	0,299	84,881	0	1016,74	6,9	9	8,8	1	1	1	1	1	1	1	1	1	0	1	-11,627907	274,388641	309,77335	0
15.01.2021	19:05:23	0	0	4,858135	2,91825	306,0432	0,293	84,891	0	1016,64	7,1	8,9	8,8	1	1	1	1	1	1	1	1	1	0	1	-9,584214	274,322103	311,505404	0
15.01.2021	19:05:24	0	0	4,293236	2,90925	313,2216	0,3	84,889	0	1016,72	7,1	8,9	8,8	1	1	1	1	1	1	1	1	1	0	1	-9,090909	274,394701	312,338744	0
15.01.2021	19:05:25	0	0	2,485558	2,712	311,2992	0,306	84,909	0	1016,84	7,1	9	8,8	1	1	1	1	1	1	1	1	1	0	1	-7,610994	274,290427	313,330346	0
15.01.2021	19:05:26	0	0	4,632175	2,56575	311,3532	0,304	84,895	0	1016,68	7,1	9	8,8	1	1	1	1	1	1	1	1	1	0	1	-9,725159	274,257298	311,061156	0
15.01.2021	19:05:27	0	0	4,406216	2,6535	309,942	0,3	84,898	0	1016,46	7,1	9	8,8	1	1	1	1	1	1	1	1	1	0	1	-9,020437	274,230235	311,639279	0
15.01.2021	19:05:28	0	0	3,954296	2,823	310,3128	0,301	84,88	0	1016,74	7,1	9	8,8	1	1	1	1	1	1	1	1	1	0	1	-5,708245	274,347783	315,501625	0
15.01.2021	19:05:29	0	0	3,615356	2,943	312,8292	0,296	84,891	0	1016,8	7,1	9	8,8	1	1	1	1	1	1	1	1	1	0	1	-9,513742	274,408343	311,97984	0
15.01.2021	19:05:30	0	0	2,937477	2,87325	308,8692	0,304	84,9	0	1016,8	7,1	9,1	8,8	1	1	1	1	1	1	1	1	1	0	1	-4,016913	274,275361	316,85392	0
15.01.2021	19:05:31	0	0	3,050457	2,907	302,832	0,302	84,898	0	1016,72	7,1	9	8,8	1	1	1	1	1	1	1	1	1	0	1	-5,778717	274,340227	315,395764	0
15.01.2021	19:05:32	0	0	2,824497	2,95425	319,6116	0,301	84,884	0	1016,72	7,1	8,9	8,8	1	1	1	1	1	1	1	1	1	0	1	-12,262156	274,221223	308,355408	0
15.01.2021	19:05:33	0	0	3,728336	2,766	286,272	0,306	84,911	0	1016,84	7,1	9	8,8	1	1	1	1	1	1	1	1	1	0	1	-6,906272	274,325122	314,197484	0
15.01.2021	19:05:34	0	0	4,971115	2,553	286,9884	0,307	84,907	0	1016,78	7,1	9	8,8	1	1	1	1	1	1	1	1	1	0	1	-9,372798	274,387126	312,021362	0
15.01.2021	19:05:35	0	0	3,728336	2,385	300,8232	0,307	84,898	0	1016,68	6,8	9	8,8	1	1	1	1	1	1	1	1	1	0	1	-10,711769	274,390156	310,696586	0
15.01.2021	19:05:36	0	0	2,711517	2,238	307,1988	0,296	84,89	0	1016,74	7,1	8,9	8,8	1	1	1	1	1	1	1	1	1	0	1	-8,879493	274,373498	312,450823	0
15.01.2021	19:05:37	0	0	5,084095	2,10825	319,5576	0,303	84,883	0	1016,74	7,1	8,9	8,8	1	1	1	1	1	1	1	1	1	0	1	-11,909796	274,379554	309,448889	0
15.01.2021	19:05:38	0	0	4,858135	2,03475	298,6668	0,301	84,896	0	1016,6	7,1	8,9	8,8	1	1	1	1	1	1	1	1	1	0	1	-6,906272	274,349295	314,310678	0
15.01.2021	19:05:39	0	0	4,406216	1,896	307,5444	0,307	84,889	0	1016,72	6,8	8,9	8,8	1	1	1	1	1	1	1	1	1	0	1	-12,332629	274,406827	309,153847	0
15.01.2021	19:05:40	0	0	2,259598	1,854	303,5124	0,299	84,891	0	1016,68	6,9	9,1	8,8	1	1	1	1	1	1	1	1	1	0	1	-9,44327	274,353831	311,794923	0
15.01.2021	19:05:41	0	0	4,632175	2,00775	299,016	0,3	84,889	0	1016,72	7,1	9	8,8	1	1	1	1	1	1	1	1	1	0	1	-8,738548	274,391671	312,676905	0
15.01.2021	19:05:42	0	0	4,858135	2,14875	312,822	0,297	84,875	0	1016,58	7,1	9	8,8	1	1	1	1	1	1	1	1	1	0	1	-4,510218	274,400763	316,94784	0
15.01.2021	19:05:43	0	0	2,711517	2,14425	303,6384	0,304	84,898	0	1016,76	7,1	8,9	8,8	1	1	1	1	1	1	1	1	1	0	1	-7,399577	274,313047	313,647646	0
15.01.2021	19:05:44	0	0	3,502376	2,166	297,5004	0,299	84,892	0	1016,74	7,1	9	8,8	1	1	1	1	1	1	1	1	1	0	1	-5,567301	274,387126	315,826859	0
15.01.2021	19:05:45	0	0	3,502376	2,18475	305,3592	0,3	84,895	0	1016,62	7,1	9	8,8	1	1	1	1	1	1	1	1	1	0	1	-9,795631	274,317575	311,272787	0
15.01.2021	19:05:46	0	0	4,180256	2,34975	294,7716	0,303	84,881	0	1016,64	7,1	9	8,8	1	1	1	1	1	1	1	1	1	0	1	-14,517266	274,388641	306,883992	0
15.01.2021	19:05:47	0	0	4,519195	2,53575	296,9028	0,301	84,892	0	1016,7	7,1	9	8,8	1	1	1	1	1	1	1	1	1	0	1	-13,742072	274,367445	307,559886	0
15.01.2021	19:05:48	0	0	4,745155	2,56575	299,4516	0,299	84,88	0	1016,7	7,1	9	8,8	1	1	1	1	1	1	1	1	1	0	1	-7,258633	274,346272	313,944158	0
15.01.2021	19:05:49	0	0	2,711517	2,97	289,5588	0,303	84,867	0	1016,7	7,1	9	8,8	1	1	1	1	1	1	1	1	1	0	1	-14,235377	274,237749	306,459484	0
15.01.2021	19:05:50	0	0	2,937477	3,189	302,5872	0,302	84,895	0	1016,7	7,1	8,9	8,8	1	1	1	1	1	1	1	1	1	0	1	-8,315715	274,261812	312,49172	0
15.01.2021	19:05:51	0	0	2,485558	3,114	307,2456	0,307	84,892	0	1016,6	7,1	9	8,8	1	1	1	1	1	1	1	1	1	0	1	-10,288936	274,236246	310,398895	0
15.01.2021	19:05:52	0	0	4,180256	3,087	291,4884	0,304	84,885	0	1016,78	6,8	9	8,8	1	1	1	1	1	1	1	1	1	0	1	-6,342495	274,255794	314,436781	0
15.01.2021	19:05:53	0	0	4,632175	3,03	295,0884	0,309	84,88	0	1016,56	7,1	9	8,8	1	1	1	1	1	1	1	1	1	0	1	-5,708245	274,278374	315,176684	0
15.01.2021	19:05:54	0	0	3,389397	2,9445	291,852	0,305	84,879	0	1016,76	7,1	8,9	8,8	1	1	1	1	1	1	1	1	1	0	1	-12,191684	274,406827	309,294792	0
15.01.2021	19:05:55	0	0	4,180256	2,7855	285,8544	0,301	84,865	0	1016,66	6,8	9	8,8	1	1	1	1	1	1	1	1	1	0	1	-10,147992	274,400763	311,310067	0
15.01.2021	19:05:56	0	0	2,372578	2,74275	284,094	0,309	84,887	0	1016,7	7,1	9	8,8	1	1	1	1	1	1	1	1	1	0	1	-8,879493	274,384097	312,500475	0
15.01.2021	19:05:57	0	0	4,406216	2,82375	285,1776	0,303	84,885	0	1016,68	6,8	9,1	8,8	1	1	1	1	1	1	1	1	1	0	1	-10,359408	274,415927	311,169714	0
15.01.2021	19:05:58	0	0	3,050457	2,80275	278,7948	0,305	84,874	0	1016,62	7,1	9	8,8	1	1	1	1	1	1	1	1	1	0	1	-11,980268	274,293441	308,975181	0
15.01.2021	19:05:59	0	0	2,824497	2,70525	276,9048	0,307	84,88	0	1016,7	7,1	8,9	8,8	1	1	1	1	1	1	1	1	1	0	1	-11,06413	274,231738	309,602614	0
15.01.2021	19:06:00	0	0	2,598537	2,59875	279,9504	0,298	84,869	0	1016,54	7,1	8,9	8,8	1	1	1	1	1	1	1	1	1	0	1	-11,205074	274,332673	309,934036	0
15.01.2021	19:06:01	0	0	4,406216	2,63175	285,498	0,31	84,889	0	1016,72	7,1	9	8,8	1	1	1	1	1	1	1	1	1	0	1	-10,570825	274,402279	310,894338	0
15.01.2021	19:06:02	0	0	2,711517	2,68725	278,4204	0,304	84,884	0	1016,68	7,1	9	8,8	1	1	1	1	1	1	1	1	1	0	1	-12,684989	274,347783	308,524881	0
15.01.2021	19:06:03	0	0	2,598537	2,745	293,3244	0,306	84,888	0	1016,82	7,1	9	8,8	1	1	1	1	1	1	1	1	1	0	1	-10,359408	274,224226	310,272204	0
15.01.2021	19:06:04	0	0	4,519195	2,6955	302,4108	0,308	84,884	0	1016,64	7,1	9	8,8	1	1	1	1	1	1	1	1	1	0	1	-8,315715	274,346272	312,887076	0
15.01.2021	19:06:05	0	0	4,858135	2,559	297,2556	0,305	84,87	0	1016,86	7,1	8,9	8,8	1	1	1	1	1	1	1	1	1	0	1	-7,258633	274,408343	314,234949	0
15.01.2021	19:06:06	0	0	4,745155	2,38575	293,31	0,302	84,873	0	1016,66	7,1	8,9	8,8	1	1	1	1	1	1	1	1	1	0	1	-9,654686	274,370471	311,661449	0
15.01.2021	19:06:07	0	0	3,615356	2,36025	289,2132	0,305	84,888	0	1016,72	7,1	9	8,8	1	1	1	1	1	1	1	1	1	0	1	-9,795631	274,353831	311,442562	0
15.01.2021	19:06:08	0	0	2,937477	2,28675	306,4896	0,309	84,888	0	1016,7	7,1	9	8,8	1	1	1	1	1	1	1	1	1	0	1	-9,725159	274,222724	310,899429	0
15.01.2021	19:06:09	0	0	4,858135	2,20125	289,2096	0,305	84,888	0	1016,72	7,1	8,9	8,8	1	1	1	1	1	1	1	1	1	0	1	-10,077519	274,302488	310,920272	0
15.01.2021	19:06:10	0	0	4,519195	2,22975	297,8568	0,302	84,897	0	1016,74	6,8	9	8,8	1	1	1	1	1	1	1	1	1	0	1	-10,782241	274,230235	309,877475	0
15.01.2021	19:06:11	0	0	3,050457	2,25975	286,6752	0,302	84,868	0	1016,72	7,1	9,1	8,8	1	1	1	1	1	1	1	1	1	0	1	-8,033827	274,294949	312,928677	0
15.01.2021	19:06:12	0	0	4,745155	2,42925	299,7756	0,303	84,889	0	1016,8	7,1	9	8,8	1	1	1	1	1	1	1	1	1	0	1	-9,513742	274,390156	311,894613	0
15.01.2021	19:06:13	0	0	3,389397	2,51025	293,3712	0,301	84,884	0	1016,78	7,1	9	8,8	1	1	1	1	1	1	1	1	1	0	1	-6,906272	274,228733	313,746417	0
15.01.2021	19:06:14	0	0	3,163437	2,54025	284,778	0,307	84,893	0	1016,7	7,1	9	8,8	1	1	1	1	1	1	1	1	1	0	1	-7,258633	274,284399	313,654496	0
15.01.2021	19:06:15	0	0	4,067276	2,451	286,2504	0,304	84,894	0	1016,64	7,1	9	8,8	1	1	1	1	1	1	1	1	1	0	1	-7,399577	274,406827	314,086899	0
15.01.2021	19:06:16	0	0	2,824497	2,439	289,2636	0,305	84,892	0	1016,7	6,8	9	8,8	1	1	1	1	1	1	1	1	1	0	1	-9,44327	274,293441	311,512178	0
15.01.2021	19:06:17	0	0	2,485558	2,463	286,8876	0,306	84,889	0	1016,7	6,8	9,1	8,8	1	1	1	1	1	1	1	1	1	0	1	-12,05074	274,405311	309,428631	0
15.01.2021	19:06:18	0	0	4,971115	2,424	296,8488	0,308	84,889	0	1016,68	7,1	9	8,8	1	1	1	1	1	1	1	1	1	0	1	-9,090909	274,384097	312,289059	0
15.01.2021	19:06:19	0	0	4,406216	2,4195	302,778	0,306	84,891	0	1016,64	7,1	9	8,8	1	1	1	1	1	1	1	1	1	0	1	-12,825934	274,361393	308,447678	0
15.01.2021	19:06:20	0	0	4,858135	2,33775	299,6676	0,306	84,874	0	1016,6	7,1	9	8,8	1	1	1	1	1	1	1	1	1	0	1	-11,346018	274,375012	309,991389	0
15.01.2021	19:06:21	0	0	2,937477	2,33925	307,5912	0,308	84,882	0	1016,7	7,1	9	8,8	1	1	1	1	1	1	1	1	1	0	1	-8,104299	274,230235	312,555417	0
15.01.2021	19:06:22	0	0	2,372578	2,3385	298,9908	0,309	84,894	0	1016,78	7,1	9	8,8	1	1	1	1	1	1	1	1	1	0	1	-13,742072	274,228733	306,910617	0
15.01.2021	19:06:23	0	0	4,180256	2,13675	312,8436	0,301	84,901	0	1016,66	7,1	9	8,8	1	1	1	1	1	1	1	1	1	0	1	-14,376321	274,367445	306,925637	0
15.01.2021	19:06:24	0	0	3,728336	2,028	304,974	0,301	84,868	0	1016,64	7,1	9	8,8	1	1	1	1	1	1	1	1	1	0	1	-10,288936	274,387126	311,105224	0
15.01.2021	19:06:25	0	0	4,632175	1,9545	298,3032	0,306	84,898	0	1016,82	7,1	9	8,8	1	1	1	1	1	1	1	1	1	0	1	-9,231853	274,397732	312,212001	0
15.01.2021	19:06:26	0	0	3,954296	1,923	309,1716	0,307	84,886	0	1016,82	7,1	9	8,8	1	1	1	1	1	1	1	1	1	0	1	-11,768851	274,296456	309,200709	0
15.01.2021	19:06:27	0	0	4,745155	1,87275	315,2664	0,306	84,904	0	1016,8	7,1	9	8,8	1	1	1	1	1	1	1	1	1	0	1	-9,302326	274,408343	312,191256	0
15.01.2021	19:06:28	0	0	4,180256	1,797	320,382	0,31	84,901	0	1016,76	7,1	9	8,8	1	1	1	1	1	1	1	1	1	0	1	-7,188161	274,267833	313,647445	0
15.01.2021	19:06:29	0	0	4,293236	1,8165	327,8376	0,303	84,891	0	1016,7	7,1	9	8,8	1	1	1	1	1	1	1	1	1	0	1	-7,329105	274,412893	314,185799	0
15.01.2021	19:06:30	0	0	3,615356	1,77525	312,174	0,306	84,89	0	1016,8	7,1	8,9	8,8	1	1	1	1	1	1	1	1	1	0	1	-7,188161	274,276867	313,689721	0
15.01.2021	19:06:31	0	0	4,406216	1,73925	312,8328	0,309	84,893	0	1016,9	7,1	9	8,8	1	1	1	1	1	1	1	1	1	0	1	-6,412967	274,417444	315,123265	0
15.01.2021	19:06:32	0	0	3,954296	1,60125	325,0908	0,304	84,884	0	1016,66	7,1	8,9	8,8	1	1	1	1	1	1	1	1	1	0	1	-7,470049	274,317575	313,598368	0
15.01.2021	19:06:33	0	0	3,389397	1,5105	320,0112	0,303	84,895	0	1016,68	7,1	9	8,8	1	1	1	1	1	1	1	1	1	0	1	-8,597604	274,234743	312,083197	0
15.01.2021	19:06:34	0	0	4,180256	1,5165	323,262	0,303	84,89	0	1016,88	7,1	9	8,8	1	1	1	1	1	1	1	1	1	0	1	-10,42988	274,278374	310,455049	0
15.01.2021	19:06:35	0	0	3,954296	1,494	319,2228	0,307	84,895	0	1016,78	7,1	9	8,8	1	1	1	1	1	1	1	1	1	0	1	-12,684989	274,40986	308,815699	0
15.01.2021	19:06:36	0	0	2,598537	1,4385	321,1488	0,307	84,895	0	1016,6	6,8	8,9	8,8	1	1	1	1	1	1	1	1	1	0	1	-7,610994	274,376526	313,733505	0
15.01.2021	19:06:37	0	0	4,519195	1,45725	318,3408	0,311	84,907	0	1016,84	7,1	9	8,8	1	1	1	1	1	1	1	1	1	0	1	-11,205074	274,257298	309,581241	0
15.01.2021	19:06:38	0	0	2,598537	1,41375	309,2832	0,311	84,906	0	1016,72	6,8	8,9	8,8	1	1	1	1	1	1	1	1	1	0	1	-10,288936	274,248273	310,455155	0
15.01.2021	19:06:39	0	0	2,824497	1,353	312,7896	0,304	84,892	0	1016,6	6,8	8,9	8,8	1	1	1	1	1	1	1	1	1	0	1	-7,963354	274,323613	313,133332	0
15.01.2021	19:06:40	0	0	3,276417	1,35225	312,1056	0,302	84,895	0	1016,5	7,1	8,9	8,8	1	1	1	1	1	1	1	1	1	0	1	-13,460183	274,408343	308,033399	0
15.01.2021	19:06:41	0	0	4,632175	1,3305	296,8164	0,306	84,88	0	1016,76	7,1	9	8,8	1	1	1	1	1	1	1	1	1	0	1	-8,174771	274,228733	312,477918	0
15.01.2021	19:06:42	0	0	3,502376	1,31775	278,4096	0,309	84,893	0	1016,7	7,1	9	8,8	1	1	1	1	1	1	1	1	1	0	1	-8,104299	274,403795	313,367967	0
15.01.2021	19:06:43	0	0	3,276417	1,407	287,7552	0,305	84,9	0	1016,74	7,1	9	8,8	1	1	1	1	1	1	1	1	1	0	1	-6,20155	274,248273	314,542541	0
15.01.2021	19:06:44	0	0	3,050457	1,62075	294,3324	0,304	84,883	0	1016,64	6,8	9	8,8	1	1	1	1	1	1	1	1	1	0	1	-14,587738	274,328142	306,530158	0
15.01.2021	19:06:45	0	0	3,728336	1,94925	289,5552	0,306	84,886	0	1016,74	7,1	9	8,8	1	1	1	1	1	1	1	1	1	0	1	-7,681466	274,254289	313,090772	0
15.01.2021	19:06:46	0	0	2,598537	2,1945	298,0044	0,306	84,904	0	1016,72	7,1	9	8,8	1	1	1	1	1	1	1	1	1	0	1	-9,020437	274,394701	312,409216	0
15.01.2021	19:06:47	0	0	3,502376	2,36025	297,2052	0,304	84,887	0	1016,84	7,1	9	8,8	1	1	1	1	1	1	1	1	1	0	1	-9,936575	274,367445	311,365383	0
15.01.2021	19:06:48	0	0	4,293236	2,472	305,3988	0,306	84,881	0	1016,64	7,1	9	8,8	1	1	1	1	1	1	1	1	1	0	1	-9,513742	274,221223	311,103822	0
15.01.2021	19:06:49	0	0	3,615356	2,541	290,0304	0,308	84,87	0	1016,74	6,8	9,1	8,8	1	1	1	1	1	1	1	1	1	0	1	-9,795631	274,367445	311,506328	0
15.01.2021	19:06:50	0	0	2,824497	2,3715	299,0988	0,302	84,894	0	1016,6	6,9	9,1	8,8	1	1	1	1	1	1	1	1	1	0	1	-9,936575	274,227231	310,709088	0
15.01.2021	19:06:51	0	0	4,745155	2,37375	311,4288	0,312	84,884	0	1016,72	7,1	9	8,8	1	1	1	1	1	1	1	1	1	0	1	-6,976744	274,352319	314,254367	0
15.01.2021	19:06:52	0	0	4,519195	2,388	291,2076	0,304	84,876	0	1016,48	7,1	9	8,8	1	1	1	1	1	1	1	1	1	0	1	-4,721635	274,391671	316,693819	0
15.01.2021	19:06:53	0	0	2,372578	2,36475	299,7504	0,31	84,877	0	1016,4	7,1	9	8,8	1	1	1	1	1	1	1	1	1	0	1	-4,087385	274,331163	317,044653	0
15.01.2021	19:06:54	0	0	4,971115	2,292	298,2924	0,307	84,888	0	1016,5	7,1	9	8,8	1	1	1	1	1	1	1	1	1	0	1	-11,41649	274,227231	309,229172	0
15.01.2021	19:06:55	0	0	2,937477	2,208	304,3116	0,302	84,89	0	1016,7	7,1	9	8,8	1	1	1	1	1	1	1	1	1	0	1	-6,483439	274,255794	314,295837	0
15.01.2021	19:06:56	0	0	4,519195	2,1315	308,0304	0,309	84,882	0	1016,68	7,1	9	8,8	1	1	1	1	1	1	1	1	1	0	1	-8,738548	274,285906	312,181632	0
15.01.2021	19:06:57	0	0	2,372578	2,13375	291,1572	0,304	84,881	0	1016,78	7,1	9	8,8	1	1	1	1	1	1	1	1	1	0	1	-5,073996	274,403795	316,39827	0
15.01.2021	19:06:58	0	0	2,937477	2,07225	291,4344	0,308	84,885	0	1016,7	7,1	9,1	8,8	1	1	1	1	1	1	1	1	1	0	1	-9,090909	274,371985	312,232316	0
15.01.2021	19:06:59	0	0	4,745155	1,956	294,1272	0,301	84,876	0	1016,72	7,1	9	8,8	1	1	1	1	1	1	1	1	1	0	1	-7,047216	274,257298	313,739098	0
15.01.2021	19:07:00	0	0	4,180256	1,8705	300,1212	0,311	84,877	0	1016,6	7,1	9	8,8	1	1	1	1	1	1	1	1	1	0	1	-4,087385	274,403795	317,384881	0
15.01.2021	19:07:01	0	0	5,197075	1,89825	297,3492	0,305	84,888	0	1016,7	7,1	9	8,8	1	1	1	1	1	1	1	1	1	0	1	-10,359408	274,346272	310,843383	0
15.01.2021	19:07:02	0	0	2,711517	2,049	292,2516	0,307	84,872	0	1016,76	7,1	9	8,8	1	1	1	1	1	1	1	1	1	0	1	-15,715292	274,219721	304,895249	0
15.01.2021	19:07:03	0	0	4,745155	2,22075	297,2736	0,304	84,858	0	1016,76	7,1	9	8,8	1	1	1	1	1	1	1	1	1	0	1	-10,500352	274,334184	310,645831	0
15.01.2021	19:07:04	0	0	4,632175	2,4255	301,2228	0,31	84,87	0	1016,58	7,1	9	8,8	1	1	1	1	1	1	1	1	1	0	1	-6,624383	274,228733	314,028306	0
15.01.2021	19:07:05	0	0	3,050457	2,6175	306,8028	0,308	84,868	0	1016,7	6,9	9,1	8,8	1	1	1	1	1	1	1	1	1	0	1	-8,80902	274,234743	311,87178	0
15.01.2021	19:07:06	0	0	4,632175	2,82525	303,5016	0,303	84,864	0	1016,66	7,1	9,1	8,8	1	1	1	1	1	1	1	1	1	0	1	-10,007047	274,326632	311,103778	0
15.01.2021	19:07:07	0	0	4,519195	3,1125	299,8116	0,31	84,856	0	1016,76	7,1	9,1	8,8	1	1	1	1	1	1	1	1	1	0	1	-3,171247	274,248273	317,572844	0
15.01.2021	19:07:08	0	0	4,180256	3,37125	300,1392	0,304	84,857	0	1016,76	6,8	9	8,8	1	1	1	1	1	1	1	1	1	0	1	-4,016913	274,27988	316,875065	0
15.01.2021	19:07:09	0	0	5,084095	3,4785	291,888	0,306	84,843	0	1016,7	7,1	9	8,8	1	1	1	1	1	1	1	1	1	0	1	-7,399577	274,394701	314,030076	0
15.01.2021	19:07:10	0	0	3,163437	3,50475	290,0412	0,304	84,856	0	1016,88	7,1	9	8,8	1	1	1	1	1	1	1	1	1	0	1	-7,470049	274,31003	313,563047	0
15.01.2021	19:07:11	0	0	2,372578	3,53625	285,1884	0,31	84,851	0	1016,74	7,1	9	8,8	1	1	1	1	1	1	1	1	1	0	1	-11,768851	274,412893	309,746052	0
15.01.2021	19:07:12	0	0	4,971115	3,37725	293,3892	0,306	84,855	0	1016,84	7,1	9	8,8	1	1	1	1	1	1	1	1	1	0	1	-13,107822	274,323613	307,988864	0
15.01.2021	19:07:13	0	0	4,406216	3,32925	294,4008	0,306	84,834	0	1016,82	7,1	9	8,8	1	1	1	1	1	1	1	1	1	0	1	-12,191684	274,245266	308,538338	0
15.01.2021	19:07:14	0	0	4,293236	3,37875	305,4132	0,309	84,84	0	1016,66	7,1	9	8,8	1	1	1	1	1	1	1	1	1	0	1	-12,332629	274,403795	309,139637	0
15.01.2021	19:07:15	0	0	3,615356	3,423	291,8952	0,304	84,846	0	1016,72	6,8	9	8,8	1	1	1	1	1	1	1	1	1	0	1	-6,8358	274,303996	314,169051	0
15.01.2021	19:07:16	0	0	2,937477	3,567	286,65	0,308	84,848	0	1016,76	7,1	9,1	8,8	1	1	1	1	1	1	1	1	1	0	1	-9,654686	274,231738	311,012057	0
15.01.2021	19:07:17	0	0	3,954296	3,54525	290,826	0,303	84,847	0	1016,72	7,1	9,1	8,8	1	1	1	1	1	1	1	1	1	0	1	-9,866103	274,367445	311,435855	0
15.01.2021	19:07:18	0	0	4,971115	3,42675	295,1496	0,303	84,861	0	1016,7	7,1	9	8,8	1	1	1	1	1	1	1	1	1	0	1	-7,892882	274,403795	313,579384	0
15.01.2021	19:07:19	0	0	4,180256	3,279	286,2396	0,305	84,851	0	1016,62	7,1	9	8,8	1	1	1	1	1	1	1	1	1	0	1	-9,090909	274,303996	311,913942	0
15.01.2021	19:07:20	0	0	4,519195	3,078	282,1392	0,304	84,845	0	1016,82	6,8	9	8,8	1	1	1	1	1	1	1	1	1	0	1	-11,768851	274,224226	308,862761	0
15.01.2021	19:07:21	0	0	4,745155	2,88825	298,2852	0,298	84,829	0	1016,62	7,1	9	8,8	1	1	1	1	1	1	1	1	1	0	1	-9,795631	274,358368	311,463811	0
15.01.2021	19:07:22	0	0	2,598537	2,8155	291,4668	0,31	84,846	0	1016,72	6,9	8,9	8,8	1	1	1	1	1	1	1	1	1	0	1	-11,768851	274,236246	308,918979	0
15.01.2021	19:07:23	0	0	2,937477	2,8245	312,1164	0,301	84,83	0	1016,74	7,1	9	8,8	1	1	1	1	1	1	1	1	1	0	1	-14,799154	274,275361	306,071679	0
15.01.2021	19:07:24	0	0	2,711517	2,8605	320,0292	0,307	84,849	0	1016,8	7,1	9	8,8	1	1	1	1	1	1	1	1	1	0	1	-9,372798	274,367445	311,92916	0
15.01.2021	19:07:25	0	0	2,598537	2,898	312,48	0,302	84,846	0	1016,86	7,1	9	8,8	1	1	1	1	1	1	1	1	1	0	1	-9,161381	274,225728	311,477256	0
15.01.2021	19:07:26	0	0	4,632175	2,7495	312,4296	0,299	84,849	0	1016,78	7,1	9,1	8,8	1	1	1	1	1	1	1	1	1	0	1	-6,976744	274,353831	314,261449	0
15.01.2021	19:07:27	0	0	2,485558	2,613	299,7612	0,307	84,86	0	1016,76	7,1	9	8,8	1	1	1	1	1	1	1	1	1	0	1	-9,302326	274,403795	312,16994	0
15.01.2021	19:07:28	0	0	2,485558	2,72325	285,912	0,305	84,85	0	1016,76	7,1	9,1	8,8	1	1	1	1	1	1	1	1	1	0	1	-13,601128	274,239252	307,100764	0
15.01.2021	19:07:29	0	0	4,971115	2,634	294,444	0,304	84,845	0	1016,7	7,1	9	8,8	1	1	1	1	1	1	1	1	1	0	1	-10,923185	274,291934	310,025208	0
15.01.2021	19:07:30	0	0	3,389397	2,6055	306,072	0,304	84,854	0	1016,78	6,9	8,9	8,8	1	1	1	1	1	1	1	1	1	0	1	-9,584214	274,234743	311,096587	0
15.01.2021	19:07:31	0	0	3,502376	2,5905	290,7864	0,305	84,831	0	1016,7	6,8	9	8,8	1	1	1	1	1	1	1	1	1	0	1	-10,007047	274,257298	310,779268	0
15.01.2021	19:07:32	0	0	2,146618	2,58975	302,0076	0,304	84,847	0	1016,84	7,1	9	8,8	1	1	1	1	1	1	1	1	1	0	1	-12,825934	274,261812	307,981502	0
15.01.2021	19:07:33	0	0	4,293236	2,6505	294,3648	0,305	84,847	0	1016,74	7,1	9	8,8	1	1	1	1	1	1	1	1	1	0	1	-9,090909	274,399247	312,360047	0
15.01.2021	19:07:34	0	0	2,598537	2,57475	296,9064	0,307	84,842	0	1016,72	7,1	9	8,8	1	1	1	1	1	1	1	1	1	0	1	-12,262156	274,305504	308,749755	0
15.01.2021	19:07:35	0	0	2,824497	2,4255	291,1536	0,304	84,853	0	1016,76	7,1	9	8,8	1	1	1	1	1	1	1	1	1	0	1	-9,020437	274,227231	311,625226	0
15.01.2021	19:07:36	0	0	3,163437	2,373	309,9348	0,307	84,847	0	1016,56	6,8	8,9	8,8	1	1	1	1	1	1	1	1	1	0	1	-13,530655	274,284399	307,382474	0
15.01.2021	19:07:37	0	0	3,389397	2,3175	298,7208	0,304	84,847	0	1016,74	7,1	9	8,8	1	1	1	1	1	1	1	1	1	0	1	-9,795631	274,402279	311,669531	0
15.01.2021	19:07:38	0	0	2,372578	2,2845	299,448	0,308	84,851	0	1016,58	7,1	9	8,8	1	1	1	1	1	1	1	1	1	0	1	-7,892882	274,291934	313,055511	0
15.01.2021	19:07:39	0	0	3,841316	2,253	298,6848	0,303	84,84	0	1016,66	7,1	9	8,8	1	1	1	1	1	1	1	1	1	0	1	-11,627907	274,222724	308,996681	0
15.01.2021	19:07:40	0	0	4,519195	2,21925	307,224	0,308	84,858	0	1016,8	7,1	9	8,8	1	1	1	1	1	1	1	1	1	0	1	-8,879493	274,290427	312,061847	0
15.01.2021	19:07:41	0	0	2,711517	2,15925	306,414	0,308	84,829	0	1016,74	7,1	9	8,8	1	1	1	1	1	1	1	1	1	0	1	-8,879493	274,402279	312,58567	0
15.01.2021	19:07:42	0	0	4,519195	2,07225	298,9512	0,304	84,842	0	1016,56	6,8	9	8,8	1	1	1	1	1	1	1	1	1	0	1	-8,245243	274,282893	312,660835	0
15.01.2021	19:07:43	0	0	4,632175	2,016	298,6488	0,304	84,839	0	1016,6	7,1	9	8,8	1	1	1	1	1	1	1	1	1	0	1	-7,047216	274,230235	313,6125	0
15.01.2021	19:07:44	0	0	2,824497	1,998	315,5076	0,306	84,844	0	1016,62	7,1	9	8,8	1	1	1	1	1	1	1	1	1	0	1	-10,923185	274,347783	310,286685	0
15.01.2021	19:07:45	0	0	3,954296	1,977	304,668	0,304	84,852	0	1016,72	7,1	9	8,8	1	1	1	1	1	1	1	1	1	0	1	-6,483439	274,236246	314,204391	0
15.01.2021	19:07:46	0	0	4,406216	2,02275	289,5948	0,309	84,846	0	1016,58	7,1	9	8,8	1	1	1	1	1	1	1	1	1	0	1	-8,245243	274,299472	312,738432	0
15.01.2021	19:07:47	0	0	4,406216	2,0805	290,8152	0,306	84,855	0	1016,74	6,8	9	8,8	1	1	1	1	1	1	1	1	1	0	1	-9,936575	274,40986	311,564113	0
15.01.2021	19:07:48	0	0	5,536014	2,13825	293,724	0,297	84,838	0	1016,5	6,9	9	8,8	1	1	1	1	1	1	1	1	1	0	1	-8,245243	274,291934	312,70315	0
15.01.2021	19:07:49	0	0	4,745155	2,151	296,0136	0,311	84,844	0	1016,72	7,1	9	8,8	1	1	1	1	1	1	1	1	1	0	1	-2,255109	274,236246	318,432721	0
15.01.2021	19:07:50	0	0	2,937477	2,103	286,2072	0,306	84,847	0	1016,7	7,1	9,1	8,8	1	1	1	1	1	1	1	1	1	0	1	-9,44327	274,379554	311,915414	0
15.01.2021	19:07:51	0	0	4,971115	2,0625	290,4336	0,305	84,854	0	1016,76	6,9	9	8,8	1	1	1	1	1	1	1	1	1	0	1	-9,795631	274,400763	311,662428	0
15.01.2021	19:07:52	0	0	2,485558	2,21475	288,0972	0,299	84,831	0	1016,62	7,1	9	8,8	1	1	1	1	1	1	1	1	1	0	1	-10,147992	274,358368	311,11145	0
15.01.2021	19:07:53	0	0	3,502376	2,38275	295,5204	0,303	84,832	0	1016,68	7,1	9	8,8	1	1	1	1	1	1	1	1	1	0	1	-10,641297	274,405311	310,838074	0
15.01.2021	19:07:54	0	0	4,971115	2,376	291,1392	0,309	84,846	0	1016,56	7,1	9	8,8	1	1	1	1	1	1	1	1	1	0	1	-7,963354	274,350807	313,260676	0
15.01.2021	19:07:55	0	0	4,519195	2,33775	290,0304	0,306	84,831	0	1016,66	7,1	9	8,8	1	1	1	1	1	1	1	1	1	0	1	-9,513742	274,415927	312,01538	0
15.01.2021	19:07:56	0	0	4,519195	2,1915	304,6212	0,302	84,84	0	1016,7	7,1	9	8,8	1	1	1	1	1	1	1	1	1	0	1	-7,470049	274,361393	313,803562	0
15.01.2021	19:07:57	0	0	2,937477	2,1345	293,7096	0,305	84,853	0	1016,62	7,1	9	8,8	1	1	1	1	1	1	1	1	1	0	1	-9,161381	274,358368	312,098061	0
15.01.2021	19:07:58	0	0	4,067276	2,25075	301,1904	0,299	84,847	0	1016,82	7,1	9	8,8	1	1	1	1	1	1	1	1	1	0	1	-6,060606	274,400763	315,397453	0
15.01.2021	19:07:59	0	0	2,824497	2,35125	304,9308	0,308	84,852	0	1016,6	7,1	9	8,8	1	1	1	1	1	1	1	1	1	0	1	-12,191684	274,313047	308,855539	0
15.01.2021	19:08:00	0	0	4,519195	2,55225	310,9572	0,304	84,86	0	1016,58	7,1	9	8,8	1	1	1	1	1	1	1	1	1	0	1	-6,765328	274,231738	313,901416	0
15.01.2021	19:08:01	0	0	4,519195	2,55225	310,9572	0,304	84,86	0	1016,58	7,1	9	8,8	1	1	1	1	1	1	1	1	1	0	1	-5,496829	274,308521	315,529205	0
15.01.2021	19:08:02	0	0	4,632175	2,55225	315,2052	0,305	84,853	0	1016,76	6,8	9,1	8,8	1	1	1	1	1	1	1	1	1	0	1	-5,990134	274,406827	315,496342	0
15.01.2021	19:08:03	0	0	3,163437	2,45175	308,07	0,297	84,857	0	1016,76	7,1	9	8,8	1	1	1	1	1	1	1	1	1	0	1	-7,047216	274,294949	313,915288	0
15.01.2021	19:08:04	0	0	2,824497	2,42775	313,6104	0,301	84,83	0	1016,6	7,1	9	8,8	1	1	1	1	1	1	1	1	1	0	1	-12,332629	274,248273	308,411463	0
15.01.2021	19:08:05	0	0	4,293236	2,394	314,0172	0,303	84,847	0	1016,64	7,1	9	8,8	1	1	1	1	1	1	1	1	1	0	1	-11,557435	274,399247	309,893522	0
15.01.2021	19:08:06	0	0	4,519195	2,41425	311,3892	0,304	84,858	0	1016,7	7,1	9	8,8	1	1	1	1	1	1	1	1	1	0	1	-8,668076	274,243762	312,054912	0
15.01.2021	19:08:07	0	0	2,937477	2,34975	309,5028	0,3	84,859	0	1016,8	7,1	9	8,8	1	1	1	1	1	1	1	1	1	0	1	-7,188161	274,225728	313,450476	0
15.01.2021	19:08:08	0	0	4,519195	2,2965	293,3388	0,304	84,864	0	1016,74	7,1	9	8,8	1	1	1	1	1	1	1	1	1	0	1	-11,346018	274,314556	309,708269	0
15.01.2021	19:08:09	0	0	3,389397	2,36475	315,5868	0,309	84,861	0	1016,72	7,1	9	8,8	1	1	1	1	1	1	1	1	1	0	1	-8,033827	274,23324	312,639945	0
15.01.2021	19:08:10	0	0	4,858135	2,361	304,1352	0,305	84,873	0	1016,7	6,9	9	8,8	1	1	1	1	1	1	1	1	1	0	1	-7,258633	274,385611	314,128431	0
15.01.2021	19:08:11	0	0	3,615356	2,307	311,4072	0,304	84,862	0	1016,68	7,1	9	8,8	1	1	1	1	1	1	1	1	1	0	1	-8,245243	274,365932	313,049627	0
15.01.2021	19:08:12	0	0	4,632175	2,2515	303,8364	0,301	84,851	0	1016,76	7,1	9	8,8	1	1	1	1	1	1	1	1	1	0	1	-4,721635	274,423513	316,843044	0
15.01.2021	19:08:13	0	0	4,180256	2,175	308,0484	0,304	84,844	0	1016,7	6,9	9	8,8	1	1	1	1	1	1	1	1	1	0	1	-7,610994	274,266328	313,217569	0
15.01.2021	19:08:14	0	0	3,615356	2,15025	294,4404	0,304	84,861	0	1016,76	7,1	9	8,8	1	1	1	1	1	1	1	1	1	0	1	-8,668076	274,35988	312,59845	0
15.01.2021	19:08:15	0	0	3,615356	2,26575	302,0904	0,313	84,854	0	1016,7	7,1	9	8,8	1	1	1	1	1	1	1	1	1	0	1	-9,936575	274,291934	311,011818	0
15.01.2021	19:08:16	0	0	3,276417	2,3355	303,2496	0,308	84,865	0	1016,76	7,1	9	8,8	1	1	1	1	1	1	1	1	1	0	1	-4,510218	274,411376	316,997577	0
15.01.2021	19:08:17	0	0	5,310055	2,409	311,3856	0,306	84,854	0	1016,68	7,1	9	8,8	1	1	1	1	1	1	1	1	1	0	1	-6,483439	274,236246	314,204391	0
15.01.2021	19:08:18	0	0	4,293236	2,30625	304,236	0,302	84,855	0	1016,82	7,1	9	8,8	1	1	1	1	1	1	1	1	1	0	1	-13,530655	274,296456	307,438905	0
15.01.2021	19:08:19	0	0	2,711517	2,21175	291,8412	0,306	84,848	0	1016,82	6,8	9	8,8	1	1	1	1	1	1	1	1	1	0	1	-9,090909	274,403795	312,381357	0
15.01.2021	19:08:20	0	0	4,293236	2,1855	303,912	0,303	84,859	0	1016,52	7,1	9	8,8	1	1	1	1	1	1	1	1	1	0	1	-7,751938	274,375012	313,585469	0
15.01.2021	19:08:21	0	0	4,293236	2,028	315,8208	0,301	84,841	0	1016,66	6,9	9	8,8	1	1	1	1	1	1	1	1	1	0	1	-8,315715	274,356855	312,936643	0
15.01.2021	19:08:22	0	0	4,406216	1,974	304,2432	0,306	84,828	0	1016,8	7,1	9	8,8	1	1	1	1	1	1	1	1	1	0	1	-5,144468	274,270844	315,705227	0
15.01.2021	19:08:23	0	0	2,937477	2,17425	297,2448	0,307	84,849	0	1016,74	6,9	9	8,8	1	1	1	1	1	1	1	1	1	0	1	-7,751938	274,222724	312,87265	0
15.01.2021	19:08:24	0	0	4,067276	2,30325	293,7492	0,306	84,842	0	1016,76	7,1	9,1	8,8	1	1	1	1	1	1	1	1	1	0	1	-7,047216	274,284399	313,865913	0
15.01.2021	19:08:25	0	0	2,824497	2,3565	298,2168	0,306	84,834	0	1016,64	7,1	9	8,8	1	1	1	1	1	1	1	1	1	0	1	-4,22833	274,403795	317,243936	0
15.01.2021	19:08:26	0	0	3,050457	2,36475	301,6224	0,306	84,847	0	1016,68	6,9	9	8,8	1	1	1	1	1	1	1	1	1	0	1	-4,651163	274,293441	316,304286	0
15.01.2021	19:08:27	0	0	2,824497	2,28375	299,3436	0,303	84,856	0	1016,74	6,9	9	8,8	1	1	1	1	1	1	1	1	1	0	1	-9,090909	274,260308	311,709486	0
15.01.2021	19:08:28	0	0	4,293236	2,17875	313,5132	0,304	84,844	0	1016,74	7,1	9	8,8	1	1	1	1	1	1	1	1	1	0	1	-8,949965	274,365932	312,344906	0
15.01.2021	19:08:29	0	0	4,180256	2,181	305,3736	0,305	84,854	0	1016,6	6,9	9	8,8	1	1	1	1	1	1	1	1	1	0	1	-13,319239	274,293441	307,636209	0
15.01.2021	19:08:30	0	0	3,050457	2,17125	313,2648	0,301	84,846	0	1016,66	7,1	9,1	8,8	1	1	1	1	1	1	1	1	1	0	1	-6,060606	274,228733	314,592083	0
15.01.2021	19:08:31	0	0	3,163437	2,09775	312,8544	0,308	84,846	0	1016,84	7,1	9	8,8	1	1	1	1	1	1	1	1	1	0	1	-6,060606	274,316065	315,000746	0
15.01.2021	19:08:32	0	0	2,937477	2,02875	308,466	0,31	84,848	0	1016,84	7,1	9	8,8	1	1	1	1	1	1	1	1	1	0	1	-8,879493	274,224226	311,75212	0
15.01.2021	19:08:33	0	0	3,841316	1,96575	321,1956	0,303	84,822	0	1016,76	7,1	9	8,8	1	1	1	1	1	1	1	1	1	0	1	-11,134602	274,388641	310,266655	0
15.01.2021	19:08:34	0	0	4,858135	2,00625	318,3732	0,304	84,853	0	1016,76	7,1	9	8,8	1	1	1	1	1	1	1	1	1	0	1	-7,963354	274,257298	312,82296	0
15.01.2021	19:08:35	0	0	4,406216	2,09325	307,1268	0,297	84,843	0	1016,54	7,1	9	8,8	1	1	1	1	1	1	1	1	1	0	1	-8,527132	274,394701	312,902521	0
15.01.2021	19:08:36	0	0	3,615356	2,1795	319,5684	0,305	84,85	0	1016,62	7,1	9	8,8	1	1	1	1	1	1	1	1	1	0	1	-8,386187	274,234743	312,294613	0
15.01.2021	19:08:37	0	0	4,858135	2,18175	313,6428	0,301	84,853	0	1016,76	7,1	9	8,8	1	1	1	1	1	1	1	1	1	0	1	-13,601128	274,329652	307,523839	0
15.01.2021	19:08:38	0	0	2,824497	2,11275	304,6644	0,306	84,857	0	1016,74	7,1	9	8,8	1	1	1	1	1	1	1	1	1	0	1	-6,976744	274,231738	313,689999	0
15.01.2021	19:08:39	0	0	3,954296	1,98675	311,3352	0,301	84,847	0	1016,6	7,1	9	8,8	1	1	1	1	1	1	1	1	1	0	1	-10,218464	274,322103	310,871155	0
15.01.2021	19:08:40	0	0	4,632175	1,8645	310,3164	0,3	84,848	0	1016,74	7,1	9	8,8	1	1	1	1	1	1	1	1	1	0	1	-5,84919	274,236246	314,838641	0
15.01.2021	19:08:41	0	0	4,858135	1,7775	308,1024	0,303	84,851	0	1016,6	7,1	9	8,8	1	1	1	1	1	1	1	1	1	0	1	-6,624383	274,388641	314,776874	0
15.01.2021	19:08:42	0	0	3,502376	1,71675	305,0064	0,307	84,851	0	1016,64	7,1	9	8,8	1	1	1	1	1	1	1	1	1	0	1	-8,668076	274,285906	312,252104	0
15.01.2021	19:08:43	0	0	2,711517	1,72575	309,6396	0,302	84,843	0	1016,66	7,1	9	8,8	1	1	1	1	1	1	1	1	1	0	1	-12,825934	274,246769	307,911123	0
15.01.2021	19:08:44	0	0	4,406216	1,73625	308,9916	0,294	84,854	0	1016,64	7,1	9	8,8	1	1	1	1	1	1	1	1	1	0	1	-9,231853	274,371985	312,091372	0
15.01.2021	19:08:45	0	0	3,502376	1,86375	312,1452	0,301	84,868	0	1016,66	7,1	9	8,8	1	1	1	1	1	1	1	1	1	0	1	-9,795631	274,396216	311,641122	0
15.01.2021	19:08:46	0	0	3,389397	1,9335	297,3312	0,303	84,836	0	1016,72	6,8	9	8,8	1	1	1	1	1	1	1	1	1	0	1	-8,668076	274,346272	312,534715	0
15.01.2021	19:08:47	0	0	3,276417	1,896	306,8244	0,306	84,854	0	1016,82	6,9	9	8,8	1	1	1	1	1	1	1	1	1	0	1	-5,778717	274,234743	314,902084	0
15.01.2021	19:08:48	0	0	2,824497	1,90125	308,5632	0,302	84,857	0	1016,76	6,9	9	8,8	1	1	1	1	1	1	1	1	1	0	1	-7,681466	274,264822	313,140054	0
15.01.2021	19:08:49	0	0	4,293236	1,926	317,4012	0,305	84,854	0	1016,74	7,1	9	8,8	1	1	1	1	1	1	1	1	1	0	1	-6,8358	274,405311	314,643571	0
15.01.2021	19:08:50	0	0	3,163437	1,8945	312,1776	0,302	84,852	0	1016,7	6,9	9	8,8	1	1	1	1	1	1	1	1	1	0	1	-8,386187	274,314556	312,6681	0
15.01.2021	19:08:51	0	0	4,180256	1,87275	302,1588	0,303	84,859	0	1016,68	6,9	9	8,8	1	1	1	1	1	1	1	1	1	0	1	-7,117689	274,412893	314,397215	0
15.01.2021	19:08:52	0	0	4,406216	1,731	318,834	0,304	84,848	0	1016,62	6,9	9	8,8	1	1	1	1	1	1	1	1	1	0	1	-14,164905	274,329652	306,960062	0
15.01.2021	19:08:53	0	0	4,293236	1,659	312,1524	0,301	84,854	0	1016,76	7,1	9	8,8	1	1	1	1	1	1	1	1	1	0	1	-7,610994	274,391671	313,80446	0
15.01.2021	19:08:54	0	0	4,067276	1,5225	336,7548	0,3	84,846	0	1016,82	6,9	9	8,8	1	1	1	1	1	1	1	1	1	0	1	-7,470049	274,257298	313,316265	0
15.01.2021	19:08:55	0	0	4,067276	1,41825	305,3988	0,306	84,86	0	1016,72	6,9	9	8,8	1	1	1	1	1	1	1	1	1	0	1	-9,584214	274,340227	311,590268	0
15.01.2021	19:08:56	0	0	4,745155	1,332	328,9356	0,304	84,845	0	1016,62	7,1	9	8,8	1	1	1	1	1	1	1	1	1	0	1	-12,825934	274,230235	307,833782	0
15.01.2021	19:08:57	0	0	3,050457	1,29525	337,9752	0,3	84,858	0	1016,7	7,1	9	8,8	1	1	1	1	1	1	1	1	1	0	1	-2,60747	274,285906	318,312711	0
15.01.2021	19:08:58	0	0	2,372578	1,2855	317,3904	0,304	84,849	0	1016,8	7,1	9	8,8	1	1	1	1	1	1	1	1	1	0	1	-8,45666	274,234743	312,224141	0
15.01.2021	19:08:59	0	0	4,406216	1,37625	336,5892	0,303	84,856	0	1016,7	6,9	9	8,8	1	1	1	1	1	1	1	1	1	0	1	-5,990134	274,350807	315,233896	0
15.01.2021	19:09:00	0	0	3,841316	1,5225	321,84	0,305	84,85	0	1016,78	6,9	9	8,8	1	1	1	1	1	1	1	1	1	0	1	-7,681466	274,237749	313,013395	0
15.01.2021	19:09:01	0	0	3,841316	1,5225	321,84	0,305	84,85	0	1016,78	6,9	9	8,8	1	1	1	1	1	1	1	1	1	0	1	-8,738548	274,337205	312,421783	0
15.01.2021	19:09:02	0	0	4,519195	1,6635	313,2324	0,307	84,852	0	1016,78	7,1	9	8,8	1	1	1	1	1	1	1	1	1	0	1	-6,483439	274,219721	314,127102	0
15.01.2021	19:09:03	0	0	3,050457	1,91775	330,048	0,298	84,856	0	1016,78	7,1	9	8,8	1	1	1	1	1	1	1	1	1	0	1	-13,953488	274,296456	307,016072	0
15.01.2021	19:09:04	0	0	5,423035	2,20125	311,7708	0,307	84,86	0	1016,68	6,9	9	8,8	1	1	1	1	1	1	1	1	1	0	1	-9,513742	274,227231	311,131921	0
15.01.2021	19:09:05	0	0	2,937477	2,4915	317,79	0,304	84,851	0	1016,64	7,1	9	8,8	1	1	1	1	1	1	1	1	1	0	1	-9,513742	274,266328	311,31482	0
15.01.2021	19:09:06	0	0	4,745155	2,67525	308,1636	0,306	84,858	0	1016,68	7,1	9	8,8	1	1	1	1	1	1	1	1	1	0	1	-7,047216	274,40986	314,453472	0
15.01.2021	19:09:07	0	0	2,598537	2,8725	326,0772	0,303	84,863	0	1016,6	6,9	9	8,8	1	1	1	1	1	1	1	1	1	0	1	-8,668076	274,35988	312,59845	0
15.01.2021	19:09:08	0	0	2,372578	2,87925	311,4864	0,309	84,861	0	1016,7	6,9	9	8,8	1	1	1	1	1	1	1	1	1	0	1	-10,359408	274,225728	310,279229	0
15.01.2021	19:09:09	0	0	2,485558	2,7585	313,5276	0,305	84,861	0	1016,54	6,9	9	8,8	1	1	1	1	1	1	1	1	1	0	1	-7,470049	274,331163	313,661989	0
15.01.2021	19:09:10	0	0	2,711517	2,71125	314,4168	0,304	84,862	0	1016,74	7,1	9	8,8	1	1	1	1	1	1	1	1	1	0	1	-7,540521	274,236246	313,147309	0
15.01.2021	19:09:11	0	0	4,180256	2,54175	314,4312	0,303	84,865	0	1016,66	7,1	9	8,8	1	1	1	1	1	1	1	1	1	0	1	-8,104299	274,303996	312,900553	0
15.01.2021	19:09:12	0	0	3,615378	2,49075	308,4876	0,306	84,863	0	1016,84	6,9	9	8,7	1	1	1	1	1	1	1	1	1	0	1	-12,755462	274,224226	307,876151	0
15.01.2021	19:09:13	0	0	3,163437	2,58075	309,6108	0,305	84,872	0	1016,66	6,8	9	8,8	1	1	1	1	1	1	1	1	1	0	1	-11,839323	274,302488	309,158468	0
15.01.2021	19:09:14	0	0	3,502376	2,59425	312,1812	0,307	84,863	0	1016,64	6,9	9	8,8	1	1	1	1	1	1	1	1	1	0	1	-8,245243	274,224226	312,386369	0
15.01.2021	19:09:15	0	0	2,711517	2,478	309,1716	0,304	84,867	0	1016,66	7,1	9	8,8	1	1	1	1	1	1	1	1	1	0	1	-3,523608	274,254289	317,248629	0
15.01.2021	19:09:16	0	0	4,406216	2,38425	306,1224	0,302	84,868	0	1016,78	7,1	9	8,8	1	1	1	1	1	1	1	1	1	0	1	-10,007047	274,352319	311,224064	0
15.01.2021	19:09:17	0	0	3,615356	2,25525	303,4656	0,296	84,866	0	1016,68	6,9	9	8,8	1	1	1	1	1	1	1	1	1	0	1	-8,245243	274,406827	313,241233	0
15.01.2021	19:09:18	0	0	4,293236	2,1465	303,4332	0,301	84,874	0	1016,72	7,1	9	8,8	1	1	1	1	1	1	1	1	1	0	1	-10,007047	274,30098	310,983686	0
15.01.2021	19:09:19	0	0	3,841316	2,1105	295,182	0,302	84,847	0	1016,64	6,9	9	8,8	1	1	1	1	1	1	1	1	1	0	1	-7,82241	274,218219	312,781109	0
15.01.2021	19:09:20	0	0	2,937477	2,10075	299,4372	0,3	84,856	0	1016,6	6,9	9	8,8	1	1	1	1	1	1	1	1	1	0	1	-8,315715	274,281386	312,583313	0
15.01.2021	19:09:21	0	0	3,389397	2,0805	294,1164	0,306	84,877	0	1016,82	6,9	9	8,8	1	1	1	1	1	1	1	1	1	0	1	-7,470049	274,263317	313,344428	0
15.01.2021	19:09:22	0	0	4,180256	2,2485	323,748	0,298	84,87	0	1016,72	6,9	9	8,8	1	1	1	1	1	1	1	1	1	0	1	-11,698379	274,246769	309,038677	0
15.01.2021	19:09:23	0	0	2,598537	2,37375	301,248	0,302	84,878	0	1016,66	6,9	9	8,8	1	1	1	1	1	1	1	1	1	0	1	-9,584214	274,371985	311,739011	0
15.01.2021	19:09:24	0	0	4,0673	2,49975	313,632	0,301	84,862	0	1016,56	6,9	9,1	8,7	1	1	1	1	1	1	1	1	1	0	1	-10,993658	274,297964	309,98296	0
15.01.2021	19:09:25	0	0	3,276417	2,52675	305,6688	0,301	84,859	0	1016,74	7,1	9	8,8	1	1	1	1	1	1	1	1	1	0	1	-11,698379	274,408343	309,795203	0
15.01.2021	19:09:26	0	0	4,519195	2,4705	313,1424	0,303	84,868	0	1016,7	7,1	9	8,8	1	1	1	1	1	1	1	1	1	0	1	-8,386187	274,251281	312,371976	0
15.01.2021	19:09:27	0	0	3,389397	2,35575	300,1932	0,306	84,86	0	1016,76	7,1	9	8,8	1	1	1	1	1	1	1	1	1	0	1	-10,993658	274,270844	309,856037	0
15.01.2021	19:09:28	0	0	4,180256	2,17425	296,784	0,308	84,855	0	1016,62	6,9	9	8,8	1	1	1	1	1	1	1	1	1	0	1	-6,765328	274,225728	313,873309	0
15.01.2021	19:09:29	0	0	4,067276	2,07675	294,8436	0,3	84,878	0	1016,6	7,1	9	8,8	1	1	1	1	1	1	1	1	1	0	1	-7,188161	274,338716	313,979246	0
15.01.2021	19:09:30	0	0	2,937477	2,06775	310,6332	0,3	84,877	0	1016,6	7,1	9	8,8	1	1	1	1	1	1	1	1	1	0	1	-9,513742	274,338716	311,653664	0
15.01.2021	19:09:31	0	0	4,406216	2,0295	291,15	0,303	84,864	0	1016,66	7,1	9	8,8	1	1	1	1	1	1	1	1	1	0	1	-5,355884	274,41441	316,166128	0
15.01.2021	19:09:32	0	0	2,711517	1,98225	298,2816	0,306	84,871	0	1016,76	7,1	9	8,8	1	1	1	1	1	1	1	1	1	0	1	-6,20155	274,350807	315,02248	0
15.01.2021	19:09:33	0	0	4,858135	2,12325	297,8676	0,303	84,878	0	1016,56	6,9	9	8,8	1	1	1	1	1	1	1	1	1	0	1	-9,795631	274,402279	311,669531	0
15.01.2021	19:09:34	0	0	4,519223	2,19675	298,1988	0,306	84,875	0	1016,68	7,1	9	8,7	1	1	1	1	1	1	1	1	1	0	1	-16,138125	274,311538	304,902034	0
15.01.2021	19:09:35	0	0	4,406216	2,30775	305,3736	0,304	84,869	0	1016,64	6,9	9	8,8	1	1	1	1	1	1	1	1	1	0	1	-9,44327	274,213715	311,139186	0
15.01.2021	19:09:36	0	0	3,050457	2,274	297,8748	0,3	84,866	0	1016,68	6,9	9	8,8	1	1	1	1	1	1	1	1	1	0	1	-10,782241	274,340227	310,392241	0
15.01.2021	19:09:37	0	0	2,485558	2,15625	311,8032	0,302	84,881	0	1016,66	7,1	9	8,8	1	1	1	1	1	1	1	1	1	0	1	-11,275546	274,403795	310,19672	0
15.01.2021	19:09:38	0	0	2,711517	2,088	308,376	0,303	84,868	0	1016,98	6,9	9	8,8	1	1	1	1	1	1	1	1	1	0	1	-7,681466	274,335694	313,471791	0
15.01.2021	19:09:39	0	0	2,485558	2,0325	311,13	0,306	84,872	0	1016,7	6,9	9	8,8	1	1	1	1	1	1	1	1	1	0	1	-7,751938	274,406827	313,734538	0
15.01.2021	19:09:40	0	0	3,615356	2,09175	313,506	0,302	84,86	0	1016,68	7,1	9	8,8	1	1	1	1	1	1	1	1	1	0	1	-6,483439	274,293441	314,472009	0
15.01.2021	19:09:41	0	0	2,937477	2,103	306,8028	0,3	84,861	0	1016,62	6,9	9	8,8	1	1	1	1	1	1	1	1	1	0	1	-7,751938	274,403795	313,720328	0
15.01.2021	19:09:42	0	0	4,858135	2,0745	305,388	0,308	84,876	0	1016,66	6,9	9	8,8	1	1	1	1	1	1	1	1	1	0	1	-12,684989	274,258803	308,108365	0
15.01.2021	19:09:43	0	0	2,485558	2,097	299,772	0,307	84,863	0	1016,74	6,9	9	8,8	1	1	1	1	1	1	1	1	1	0	1	-8,668076	274,219721	311,942465	0
15.01.2021	19:09:44	0	0	3,276417	2,19	302,4576	0,301	84,871	0	1016,82	7,1	9	8,8	1	1	1	1	1	1	1	1	1	0	1	-8,315715	274,361393	312,957896	0
15.01.2021	19:09:45	0	0	3,050457	2,1405	308,07	0,301	84,856	0	1016,92	6,9	9	8,8	1	1	1	1	1	1	1	1	1	0	1	-8,879493	274,254289	311,892745	0
15.01.2021	19:09:46	0	0	2,824497	2,12325	300,8484	0,306	84,874	0	1016,84	7,1	9	8,8	1	1	1	1	1	1	1	1	1	0	1	-8,45666	274,255794	312,322616	0
15.01.2021	19:09:47	0	0	4,971115	2,0295	302,0544	0,308	84,867	0	1016,74	6,9	9	8,8	1	1	1	1	1	1	1	1	1	0	1	-12,544045	274,350807	308,679985	0
15.01.2021	19:09:48	0	0	3,728336	1,9395	306,4392	0,304	84,863	0	1016,54	6,8	9	8,8	1	1	1	1	1	1	1	1	1	0	1	-8,45666	274,400763	313,001399	0
15.01.2021	19:09:49	0	0	2,824497	1,8315	301,5828	0,303	84,873	0	1016,66	7,1	9	8,8	1	1	1	1	1	1	1	1	1	0	1	-7,047216	274,317575	314,021201	0
15.01.2021	19:09:50	0	0	2,259598	1,854	302,8176	0,3	84,876	0	1016,7	7,1	9	8,8	1	1	1	1	1	1	1	1	1	0	1	-9,372798	274,231738	311,293946	0
15.01.2021	19:09:51	0	0	3,728336	1,8735	303,4692	0,3	84,867	0	1016,78	6,9	9,1	8,8	1	1	1	1	1	1	1	1	1	0	1	-10,852713	274,406827	310,633763	0
15.01.2021	19:09:52	0	0	4,745155	1,95825	305,6976	0,302	84,866	0	1016,84	6,9	9	8,8	1	1	1	1	1	1	1	1	1	0	1	-10,359408	274,294949	310,603096	0
15.01.2021	19:09:53	0	0	2,937477	2,21025	321,2028	0,302	84,86	0	1016,66	6,9	9	8,8	1	1	1	1	1	1	1	1	1	0	1	-7,329105	274,415927	314,200017	0
15.01.2021	19:09:54	0	0	3,276417	2,23125	315,2628	0,305	84,878	0	1016,52	7,1	9	8,8	1	1	1	1	1	1	1	1	1	0	1	-8,597604	274,337205	312,562727	0
15.01.2021	19:09:55	0	0	4,745155	2,265	314,4456	0,303	84,859	0	1016,58	6,9	9	8,8	1	1	1	1	1	1	1	1	1	0	1	-9,513742	274,405311	311,965629	0
15.01.2021	19:09:56	0	0	2,711517	2,26275	312,4116	0,303	84,867	0	1016,64	7,1	9	8,8	1	1	1	1	1	1	1	1	1	0	1	-9,513742	274,334184	311,632441	0
15.01.2021	19:09:57	0	0	2,824497	2,331	312,8508	0,304	84,858	0	1016,62	6,9	9	8,8	1	1	1	1	1	1	1	1	1	0	1	-7,258633	274,364419	314,029151	0
15.01.2021	19:09:58	0	0	3,502376	2,4885	311,8572	0,304	84,867	0	1016,76	7,1	9	8,8	1	1	1	1	1	1	1	1	1	0	1	-10,147992	274,403795	311,324275	0
15.01.2021	19:09:59	0	0	3,615356	2,4525	319,9896	0,299	84,868	0	1016,66	7,1	9	8,8	1	1	1	1	1	1	1	1	1	0	1	-5,426357	274,326632	315,684469	0
15.01.2021	19:10:00	0	0	3,163437	2,5005	324,8352	0,296	84,867	0	1016,7	6,9	9	8,8	1	1	1	1	1	1	1	1	1	0	1	-11,909796	274,228733	308,742893	0
15.01.2021	19:10:01	0	0	3,163437	2,5005	324,8352	0,296	84,867	0	1016,7	6,9	9	8,8	1	1	1	1	1	1	1	1	1	0	1	-11,06413	274,27988	309,827849	0
15.01.2021	19:10:02	0	0	2,824497	2,4585	320,0328	0,299	84,856	0	1016,58	7,1	9	8,8	1	1	1	1	1	1	1	1	1	0	1	-11,205074	274,222724	309,419514	0
15.01.2021	19:10:03	0	0	2,598537	2,46675	314,4204	0,298	84,889	0	1016,98	7,1	9	8,8	1	1	1	1	1	1	1	1	1	0	1	-6,624383	274,317575	314,444034	0
15.01.2021	19:10:04	0	0	3,502376	2,56575	336,0816	0,299	84,854	0	1016,68	6,9	9	8,8	1	1	1	1	1	1	1	1	1	0	1	-12,05074	274,212214	308,524696	0
15.01.2021	19:10:05	0	0	2,824497	2,6205	330,0264	0,3	84,862	0	1016,64	6,9	9	8,8	1	1	1	1	1	1	1	1	1	0	1	-8,386187	274,325122	312,717568	0
15.01.2021	19:10:06	0	0	4,180256	2,64225	320,3748	0,302	84,867	0	1016,72	6,9	9	8,8	1	1	1	1	1	1	1	1	1	0	1	-11,134602	274,412893	310,380302	0
15.01.2021	19:10:07	0	0	2,824497	2,6385	328,554	0,299	84,878	0	1016,7	6,9	9	8,8	1	1	1	1	1	1	1	1	1	0	1	-3,875969	274,276867	317,001912	0
15.01.2021	19:10:08	0	0	4,745155	2,65275	329,1948	0,302	84,854	0	1016,7	7,1	9	8,8	1	1	1	1	1	1	1	1	1	0	1	-9,020437	274,405311	312,458934	0
15.01.2021	19:10:09	0	0	3,163437	2,619	330,3288	0,303	84,859	0	1016,58	6,9	9	8,8	1	1	1	1	1	1	1	1	1	0	1	-7,610994	274,237749	313,083867	0
15.01.2021	19:10:10	0	0	3,841316	2,57325	330,0264	0,294	84,86	0	1016,76	6,9	9	8,8	1	1	1	1	1	1	1	1	1	0	1	-13,319239	274,234743	307,361562	0
15.01.2021	19:10:11	0	0	3,728336	2,4735	323,6616	0,293	84,843	0	1016,62	6,9	9	8,8	1	1	1	1	1	1	1	1	1	0	1	-6,765328	274,243762	313,957661	0
15.01.2021	19:10:12	0	0	3,841316	2,43825	329,7132	0,294	84,849	0	1016,72	7,1	9	8,8	1	1	1	1	1	1	1	1	1	0	1	-11,698379	274,323613	309,398308	0
15.01.2021	19:10:13	0	0	4,632175	2,49375	333,4644	0,3	84,863	0	1016,7	6,9	9	8,8	1	1	1	1	1	1	1	1	1	0	1	-6,20155	274,399247	315,249406	0
15.01.2021	19:10:14	0	0	5,423035	2,421	314,8776	0,305	84,858	0	1016,68	7,1	9	8,8	1	1	1	1	1	1	1	1	1	0	1	-7,329105	274,361393	313,944506	0
15.01.2021	19:10:15	0	0	2,937477	2,2335	332,3808	0,302	84,866	0	1016,74	7,1	9	8,8	1	1	1	1	1	1	1	1	1	0	1	-8,527132	274,361393	312,74648	0
15.01.2021	19:10:16	0	0	3,502376	2,16525	325,098	0,304	84,865	0	1016,7	7,1	9	8,8	1	1	1	1	1	1	1	1	1	0	1	-4,439746	274,224226	316,191866	0
15.01.2021	19:10:17	0	0	2,937477	2,214	323,3124	0,292	84,855	0	1016,62	7,1	9	8,8	1	1	1	1	1	1	1	1	1	0	1	-6,8358	274,316065	314,225552	0
15.01.2021	19:10:18	0	0	3,502376	2,15625	322,5312	0,304	84,862	0	1016,68	6,9	9	8,8	1	1	1	1	1	1	1	1	1	0	1	-13,107822	274,399247	308,343134	0
15.01.2021	19:10:19	0	0	4,971115	2,0325	317,826	0,299	84,874	0	1016,78	6,9	9	8,8	1	1	1	1	1	1	1	1	1	0	1	-7,82241	274,334184	313,323773	0
15.01.2021	19:10:20	0	0	4,971115	2,01	312,102	0,305	84,868	0	1016,78	6,9	9	8,8	1	1	1	1	1	1	1	1	1	0	1	-11,205074	274,394701	310,224579	0
15.01.2021	19:10:21	0	0	4,067276	1,8585	307,6128	0,301	84,872	0	1016,6	6,9	9	8,8	1	1	1	1	1	1	1	1	1	0	1	-9,584214	274,355343	311,661061	0
15.01.2021	19:10:22	0	0	2,259598	1,78425	310,2912	0,293	84,865	0	1016,52	6,9	9	8,8	1	1	1	1	1	1	1	1	1	0	1	-6,976744	274,394701	314,452908	0
15.01.2021	19:10:23	0	0	2,598537	1,758	314,8164	0,298	84,873	0	1016,62	6,9	9	8,8	1	1	1	1	1	1	1	1	1	0	1	-7,82241	274,228733	312,830279	0
15.01.2021	19:10:24	0	0	4,745155	1,7835	290,79	0,301	84,869	0	1016,7	6,9	9	8,8	1	1	1	1	1	1	1	1	1	0	1	-8,80902	274,365932	312,48585	0
15.01.2021	19:10:25	0	0	4,293236	1,7715	314,442	0,298	84,863	0	1016,78	6,9	9	8,8	1	1	1	1	1	1	1	1	1	0	1	-11,275546	274,27235	309,581194	0
15.01.2021	19:10:26	0	0	4,293236	1,869	312,7212	0,294	84,855	0	1016,4	7,1	9	8,8	1	1	1	1	1	1	1	1	1	0	1	-5,355884	274,225728	315,282753	0
15.01.2021	19:10:27	0	0	2,598537	1,94625	310,6944	0,296	84,868	0	1016,66	6,9	9	8,8	1	1	1	1	1	1	1	1	1	0	1	-6,694856	274,284399	314,218273	0
15.01.2021	19:10:28	0	0	4,858135	2,09025	307,5408	0,301	84,87	0	1016,94	6,9	9	8,8	1	1	1	1	1	1	1	1	1	0	1	-7,188161	274,210713	313,380257	0
15.01.2021	19:10:29	0	0	3,615356	2,091	303,9372	0,303	84,859	0	1016,78	6,9	9	8,8	1	1	1	1	1	1	1	1	1	0	1	-11,557435	274,341738	309,624123	0
15.01.2021	19:10:30	0	0	3,954296	2,00625	306,1368	0,303	84,851	0	1016,76	6,9	9	8,8	1	1	1	1	1	1	1	1	1	0	1	-14,164905	274,242259	306,551051	0
15.01.2021	19:10:31	0	0	4,406216	1,959	308,1132	0,303	84,861	0	1016,64	6,9	9	8,8	1	1	1	1	1	1	1	1	1	0	1	-10,007047	274,257298	310,779268	0
15.01.2021	19:10:32	0	0	3,389397	1,92975	297,8604	0,297	84,881	0	1016,8	6,9	9	8,8	1	1	1	1	1	1	1	1	1	0	1	-7,329105	274,281386	313,569923	0
15.01.2021	19:10:33	0	0	4,067276	1,9485	299,7468	0,302	84,868	0	1016,8	6,9	9	8,8	1	1	1	1	1	1	1	1	1	0	1	-9,725159	274,237749	310,969702	0
15.01.2021	19:10:34	0	0	4,180256	1,92225	299,412	0,3	84,864	0	1016,78	6,9	9	8,8	1	1	1	1	1	1	1	1	1	0	1	-9,725159	274,358368	311,534283	0
15.01.2021	19:10:35	0	0	3,389397	1,96425	297,5832	0,305	84,867	0	1016,7	6,9	9	8,8	1	1	1	1	1	1	1	1	1	0	1	-12,825934	274,373498	308,504382	0
15.01.2021	19:10:36	0	0	4,632175	1,85325	292,5936	0,308	84,865	0	1016,78	6,9	9	8,8	1	1	1	1	1	1	1	1	1	0	1	-12,403101	274,23324	308,270671	0
15.01.2021	19:10:37	0	0	3,615356	1,7715	287,7408	0,296	84,864	0	1016,7	6,9	9	8,8	1	1	1	1	1	1	1	1	1	0	1	-5,567301	274,350807	315,656729	0
15.01.2021	19:10:38	0	0	4,519195	1,66725	288,8424	0,301	84,875	0	1016,68	6,9	9	8,8	1	1	1	1	1	1	1	1	1	0	1	-11,557435	274,400763	309,900624	0
15.01.2021	19:10:39	0	0	2,711517	1,635	277,2072	0,301	84,882	0	1016,74	6,9	9	8,8	1	1	1	1	1	1	1	1	1	0	1	-8,597604	274,305504	312,414308	0
15.01.2021	19:10:40	0	0	4,406216	1,65075	294,1128	0,298	84,866	0	1016,74	6,9	9	8,8	1	1	1	1	1	1	1	1	1	0	1	-12,473573	274,408343	309,020009	0
15.01.2021	19:10:41	0	0	3,615356	1,72575	291,1824	0,305	84,873	0	1016,74	6,9	9	8,8	1	1	1	1	1	1	1	1	1	0	1	-13,601128	274,350807	307,622903	0
15.01.2021	19:10:42	0	0	4,406216	1,69875	297,5148	0,295	84,873	0	1016,72	6,9	9	8,8	1	1	1	1	1	1	1	1	1	0	1	-10,42988	274,402279	311,035282	0
15.01.2021	19:10:43	0	0	3,841316	1,71675	299,0196	0,299	84,855	0	1016,58	7,1	9	8,8	1	1	1	1	1	1	1	1	1	0	1	-10,993658	274,406827	310,492818	0
15.01.2021	19:10:44	0	0	4,293236	1,82475	303,516	0,305	84,872	0	1016,62	6,9	9	8,8	1	1	1	1	1	1	1	1	1	0	1	-9,231853	274,356855	312,020505	0
15.01.2021	19:10:45	0	0	4,180256	1,85475	314,8452	0,302	84,866	0	1016,56	6,9	9	8,8	1	1	1	1	1	1	1	1	1	0	1	-6,976744	274,41441	314,545268	0
15.01.2021	19:10:46	0	0	2,598537	1,73175	305,7876	0,3	84,857	0	1016,68	7,1	9	8,8	1	1	1	1	1	1	1	1	1	0	1	-7,470049	274,320593	313,612501	0
15.01.2021	19:10:47	0	0	4,745155	1,641	318,8016	0,3	84,863	0	1016,74	6,9	9	8,8	1	1	1	1	1	1	1	1	1	0	1	-9,090909	274,228733	311,56178	0
15.01.2021	19:10:48	0	0	2,598537	1,54575	318,8412	0,301	84,87	0	1016,7	7,1	9	8,8	1	1	1	1	1	1	1	1	1	0	1	-10,923185	274,270844	309,92651	0
15.01.2021	19:10:49	0	0	2,598537	1,4835	326,4876	0,299	84,876	0	1016,74	6,9	9	8,8	1	1	1	1	1	1	1	1	1	0	1	-6,483439	274,23324	314,190333	0
15.01.2021	19:10:50	0	0	3,954296	1,46775	308,088	0,298	84,874	0	1016,68	6,9	9	8,8	1	1	1	1	1	1	1	1	1	0	1	-10,993658	274,248273	309,750434	0
15.01.2021	19:10:51	0	0	4,067276	1,518	310,3056	0,299	84,873	0	1016,68	6,9	9	8,8	1	1	1	1	1	1	1	1	1	0	1	-10,42988	274,397732	311,013974	0
15.01.2021	19:10:52	0	0	3,276417	1,506	304,992	0,296	84,874	0	1016,82	7,1	9	8,8	1	1	1	1	1	1	1	1	1	0	1	-11,41649	274,245266	309,313532	0
15.01.2021	19:10:53	0	0	4,745155	1,44075	304,7508	0,298	84,869	0	1016,76	6,9	9	8,8	1	1	1	1	1	1	1	1	1	0	1	-7,399577	274,358368	313,859865	0
15.01.2021	19:10:54	0	0	4,519195	1,38525	315,8388	0,303	84,852	0	1016,74	6,9	9	8,8	1	1	1	1	1	1	1	1	1	0	1	-6,624383	274,370471	314,691752	0
15.01.2021	19:10:55	0	0	4,180256	1,398	318,2184	0,301	84,864	0	1016,72	6,9	9	8,8	1	1	1	1	1	1	1	1	1	0	1	-10,923185	274,27235	309,933555	0
15.01.2021	19:10:56	0	0	2,598537	1,563	302,8464	0,299	84,867	0	1016,7	6,9	9	8,8	1	1	1	1	1	1	1	1	1	0	1	-7,963354	274,411376	313,544441	0
15.01.2021	19:10:57	0	0	2,259598	1,66275	316,2672	0,306	84,867	0	1016,6	6,9	9	8,8	1	1	1	1	1	1	1	1	1	0	1	-9,44327	274,294949	311,519234	0
15.01.2021	19:10:58	0	0	2,598537	1,65675	314,3952	0,299	84,873	0	1016,7	6,9	9	8,8	1	1	1	1	1	1	1	1	1	0	1	-9,231853	274,234743	311,448947	0
15.01.2021	19:10:59	0	0	5,197075	1,65975	312,4512	0,3	84,871	0	1016,82	6,9	9	8,8	1	1	1	1	1	1	1	1	1	0	1	-6,412967	274,269338	314,429683	0
15.01.2021	19:11:00	0	0	2,824497	1,62525	312,0804	0,301	84,859	0	1016,58	6,9	9	8,8	1	1	1	1	1	1	1	1	1	0	1	-10,782241	274,222724	309,842347	0
15.01.2021	19:11:01	0	0	4,293236	1,617	309,294	0,298	84,864	0	1016,66	6,9	9	8,8	1	1	1	1	1	1	1	1	1	0	1	-9,020437	274,343249	312,168198	0
15.01.2021	19:11:02	0	0	4,858135	1,6185	325,1304	0,294	84,857	0	1016,48	6,9	9	8,8	1	1	1	1	1	1	1	1	1	0	1	-11,627907	274,390156	309,780448	0
15.01.2021	19:11:03	0	0	2,937477	1,64475	317,7432	0,295	84,87	0	1016,84	6,9	9	8,8	1	1	1	1	1	1	1	1	1	0	1	-15,64482	274,397732	305,799034	0
15.01.2021	19:11:04	0	0	3,389417	1,704	301,0428	0,291	84,863	0	1016,62	6,9	9	8,7	1	1	1	1	1	1	1	1	1	0	1	-9,513742	274,35988	311,752784	0
15.01.2021	19:11:05	0	0	4,519195	1,80525	308,8008	0,3	84,862	0	1016,72	6,9	9	8,8	1	1	1	1	1	1	1	1	1	0	1	-6,342495	274,396216	315,094258	0
15.01.2021	19:11:06	0	0	3,728336	1,84725	336,8556	0,297	84,862	0	1016,56	7,1	9	8,8	1	1	1	1	1	1	1	1	1	0	1	-13,742072	274,260308	307,058323	0
15.01.2021	19:11:07	0	0	2,711517	1,836	317,7648	0,301	84,873	0	1016,76	6,9	9	8,8	1	1	1	1	1	1	1	1	1	0	1	-10,500352	274,254289	310,271885	0
15.01.2021	19:11:08	0	0	4,406216	1,767	323,406	0,294	84,859	0	1016,68	6,9	9	8,8	1	1	1	1	1	1	1	1	1	0	1	-10,923185	274,370471	310,39295	0
15.01.2021	19:11:09	0	0	2,824497	1,67325	325,4616	0,295	84,855	0	1016,58	6,9	9	8,8	1	1	1	1	1	1	1	1	1	0	1	-13,107822	274,347783	308,102048	0
15.01.2021	19:11:10	0	0	2,824497	1,66275	316,6704	0,294	84,859	0	1016,64	6,9	9	8,8	1	1	1	1	1	1	1	1	1	0	1	-8,386187	274,228733	312,266502	0
15.01.2021	19:11:11	0	0	4,519195	1,92375	297,2052	0,295	84,874	0	1016,74	6,9	9	8,8	1	1	1	1	1	1	1	1	1	0	1	-10,359408	274,334184	310,786775	0
15.01.2021	19:11:12	0	0	2,824497	2,00925	318,4524	0,296	84,865	0	1016,66	6,9	9	8,8	1	1	1	1	1	1	1	1	1	0	1	-7,610994	274,402279	313,854168	0
15.01.2021	19:11:13	0	0	4,180256	1,9725	312,498	0,291	84,873	0	1016,72	6,9	9	8,8	1	1	1	1	1	1	1	1	1	0	1	-8,174771	274,384097	313,205197	0
15.01.2021	19:11:14	0	0	3,502376	2,19225	309,8844	0,298	84,864	0	1016,74	6,9	9	8,8	1	1	1	1	1	1	1	1	1	0	1	-8,45666	274,294949	312,505844	0
15.01.2021	19:11:15	0	0	3,389397	2,23875	307,62	0,29	84,86	0	1016,54	6,9	9	8,8	1	1	1	1	1	1	1	1	1	0	1	-10,923185	274,228733	309,729504	0
15.01.2021	19:11:16	0	0	4,293236	2,32275	316,5408	0,301	84,931	0	1016,88	6,9	9	8,8	1	1	1	1	1	1	1	1	1	0	1	-7,82241	274,311538	313,217749	0
15.01.2021	19:11:17	0	0	3,050457	2,2785	307,1916	0,296	84,88	0	1016,76	6,9	9	8,8	1	1	1	1	1	1	1	1	1	0	1	-4,933051	274,23324	315,740721	0
15.01.2021	19:11:18	0	0	4,406216	2,13	311,0328	0,295	84,869	0	1016,7	6,9	9	8,8	1	1	1	1	1	1	1	1	1	0	1	-12,05074	274,367445	309,251218	0
15.01.2021	19:11:19	0	0	4,632203	1,9965	315,5004	0,292	84,875	0	1016,74	6,9	9	8,7	1	1	1	1	1	1	1	1	1	0	1	-4,369274	274,245266	316,360748	0
15.01.2021	19:11:20	0	0	4,180256	1,88925	316,6128	0,296	84,866	0	1016,82	6,9	9	8,8	1	1	1	1	1	1	1	1	1	0	1	-10,077519	274,364419	311,210264	0
15.01.2021	19:11:21	0	0	2,711517	1,77975	308,448	0,299	84,879	0	1016,78	6,9	9	8,8	1	1	1	1	1	1	1	1	1	0	1	-10,218464	274,243762	310,504525	0
15.01.2021	19:11:22	0	0	4,067276	1,6665	297,846	0,295	84,867	0	1016,78	6,9	9	8,8	1	1	1	1	1	1	1	1	1	0	1	-13,6716	274,353831	307,566593	0
15.01.2021	19:11:23	0	0	4,745155	1,61025	303,444	0,293	84,864	0	1016,72	6,9	9	8,8	1	1	1	1	1	1	1	1	1	0	1	-8,668076	274,258803	312,125278	0
15.01.2021	19:11:24	0	0	4,632175	1,623	293,328	0,298	84,867	0	1016,84	6,9	9	8,8	1	1	1	1	1	1	1	1	1	0	1	-10,500352	274,355343	310,744923	0
15.01.2021	19:11:25	0	0	4,519195	1,6905	296,46	0,293	84,859	0	1016,68	6,9	9	8,8	1	1	1	1	1	1	1	1	1	0	1	-9,161381	274,27988	311,730597	0
15.01.2021	19:11:26	0	0	3,389397	1,788	304,2468	0,293	84,858	0	1016,76	6,9	9	8,8	1	1	1	1	1	1	1	1	1	0	1	-1,62086	274,218219	318,982659	0
15.01.2021	19:11:27	0	0	4,971115	1,83225	304,29	0,295	84,858	0	1016,74	6,9	9	8,8	1	1	1	1	1	1	1	1	1	0	1	-12,684989	274,341738	308,496569	0
15.01.2021	19:11:28	0	0	3,389397	1,815	311,4144	0,295	84,859	0	1016,64	6,9	9,1	8,8	1	1	1	1	1	1	1	1	1	0	1	-6,553911	274,390156	314,854444	0
15.01.2021	19:11:29	0	0	3,276417	1,7415	302,85	0,298	84,873	0	1016,74	6,9	9	8,8	1	1	1	1	1	1	1	1	1	0	1	-2,60747	274,311538	318,432689	0
15.01.2021	19:11:30	0	0	4,745155	1,68675	305,0604	0,297	84,882	0	1016,66	6,9	9	8,8	1	1	1	1	1	1	1	1	1	0	1	-12,896406	274,237749	307,798455	0
15.01.2021	19:11:31	0	0	3,163437	1,641	294,5268	0,295	84,867	0	1016,6	6,9	9	8,8	1	1	1	1	1	1	1	1	1	0	1	-7,963354	274,307013	313,055618	0
15.01.2021	19:11:32	0	0	2,824497	1,632	304,2036	0,294	84,864	0	1016,62	6,9	9	8,8	1	1	1	1	1	1	1	1	1	0	1	-9,231853	274,381068	312,133925	0
15.01.2021	19:11:33	0	0	2,372578	1,62675	293,6916	0,295	84,879	0	1016,74	6,9	9	8,8	1	1	1	1	1	1	1	1	1	0	1	-8,386187	274,290427	312,555152	0
15.01.2021	19:11:34	0	0	3,728336	1,7745	304,6428	0,291	84,874	0	1016,54	6,9	9	8,8	1	1	1	1	1	1	1	1	1	0	1	-11,768851	274,221223	308,848713	0
15.01.2021	19:11:35	0	0	4,632175	1,8765	317,7756	0,292	84,871	0	1016,84	6,9	9	8,8	1	1	1	1	1	1	1	1	1	0	1	-14,517266	274,28892	306,41702	0
15.01.2021	19:11:36	0	0	4,745155	1,8885	312,1488	0,296	84,869	0	1016,38	6,9	9	8,8	1	1	1	1	1	1	1	1	1	0	1	-11,698379	274,231738	308,968365	0
15.01.2021	19:11:37	0	0	4,067276	1,91175	316,6632	0,294	84,864	0	1016,58	6,9	9	8,8	1	1	1	1	1	1	1	1	1	0	1	-9,44327	274,338716	311,724136	0
15.01.2021	19:11:38	0	0	5,197075	1,94025	309,1824	0,294	84,881	0	1016,7	7,1	9	8,8	1	1	1	1	1	1	1	1	1	0	1	-8,033827	274,215217	312,55565	0
15.01.2021	19:11:39	0	0	4,632175	1,94925	296,4744	0,294	84,875	0	1016,6	6,9	9	8,8	1	1	1	1	1	1	1	1	1	0	1	-5,778717	274,276867	315,099164	0
15.01.2021	19:11:40	0	0	4,745155	2,02275	310,6728	0,298	84,878	0	1016,64	6,9	9	8,8	1	1	1	1	1	1	1	1	1	0	1	-15,785765	274,207712	304,768617	0
15.01.2021	19:11:41	0	0	3,841316	1,95525	308,5056	0,299	84,871	0	1016,72	6,9	9	8,8	1	1	1	1	1	1	1	1	1	0	1	-12,403101	274,293441	308,552348	0
15.01.2021	19:11:42	0	0	4,632175	1,96275	283,5504	0,295	84,884	0	1016,72	6,9	9,1	8,8	1	1	1	1	1	1	1	1	1	0	1	-7,963354	274,391671	313,452099	0
15.01.2021	19:11:43	0	0	3,615356	1,953	279,81	0,29	84,868	0	1016,76	7,1	9,1	8,8	1	1	1	1	1	1	1	1	1	0	1	-8,527132	274,334184	312,619052	0
15.01.2021	19:11:44	0	0	2,937477	2,02275	304,974	0,293	84,876	0	1016,9	6,9	9	8,8	1	1	1	1	1	1	1	1	1	0	1	-6,412967	274,403795	315,059299	0
15.01.2021	19:11:45	0	0	2,711517	1,911	315,8676	0,291	84,858	0	1016,7	6,9	9	8,8	1	1	1	1	1	1	1	1	1	0	1	-8,386187	274,361393	312,887424	0
15.01.2021	19:11:46	0	0	3,954296	1,78725	290,7648	0,297	84,885	0	1016,76	6,9	9	8,8	1	1	1	1	1	1	1	1	1	0	1	-10,923185	274,216718	309,673312	0
15.01.2021	19:11:47	0	0	4,293236	1,67025	309,5748	0,289	84,882	0	1016,62	6,9	9	8,8	1	1	1	1	1	1	1	1	1	0	1	-9,090909	274,270844	311,758786	0
15.01.2021	19:11:48	0	0	3,163437	1,61925	307,1988	0,298	84,887	0	1016,76	6,9	9	8,8	1	1	1	1	1	1	1	1	1	0	1	-6,412967	274,379554	314,945717	0
15.01.2021	19:11:49	0	0	4,293236	1,692	293,3424	0,299	84,878	0	1016,62	6,9	9	8,8	1	1	1	1	1	1	1	1	1	0	1	-10,923185	274,219721	309,687356	0
15.01.2021	19:11:50	0	0	3,615356	1,782	301,2336	0,293	84,863	0	1016,6	6,9	9	8,8	1	1	1	1	1	1	1	1	1	0	1	-10,570825	274,258803	310,22253	0
15.01.2021	19:11:51	0	0	4,180256	1,929	296,4024	0,296	84,861	0	1016,64	6,9	9	8,8	1	1	1	1	1	1	1	1	1	0	1	-9,866103	274,40986	311,634586	0
15.01.2021	19:11:52	0	0	3,276417	2,049	301,6008	0,291	84,913	0	1016,72	6,9	9	8,8	1	1	1	1	1	1	1	1	1	0	1	-10,077519	274,314556	310,976768	0
15.01.2021	19:11:53	0	0	3,163437	2,11875	305,6976	0,294	84,882	0	1016,68	6,9	9	8,8	1	1	1	1	1	1	1	1	1	0	1	-13,812544	274,209212	306,748855	0
15.01.2021	19:11:54	0	0	4,519195	2,16525	302,0292	0,294	84,886	0	1016,66	6,9	9	8,8	1	1	1	1	1	1	1	1	1	0	1	-10,42988	274,276867	310,448001	0
15.01.2021	19:11:55	0	0	3,954296	2,2335	297,9828	0,294	84,883	0	1016,62	6,9	9	8,8	1	1	1	1	1	1	1	1	1	0	1	-9,44327	274,236246	311,244561	0
15.01.2021	19:11:56	0	0	4,293236	2,25675	300,8484	0,298	84,875	0	1016,7	6,9	9,1	8,8	1	1	1	1	1	1	1	1	1	0	1	-9,372798	274,382582	312,000075	0
15.01.2021	19:11:57	0	0	2,937477	2,295	306,4212	0,296	84,885	0	1016,9	6,9	9	8,8	1	1	1	1	1	1	1	1	1	0	1	-5,426357	274,260308	315,374038	0
15.01.2021	19:11:58	0	0	3,163437	2,38125	303,7608	0,298	84,89	0	1016,7	6,9	9	8,8	1	1	1	1	1	1	1	1	1	0	1	-6,976744	274,381068	314,389034	0
15.01.2021	19:11:59	0	0	3,728336	2,388	291,1356	0,29	84,859	0	1016,56	6,9	9	8,8	1	1	1	1	1	1	1	1	1	0	1	-8,597604	274,346272	312,605187	0
15.01.2021	19:12:00	0	0	3,954296	2,18925	308,7828	0,299	84,878	0	1016,84	6,9	9	8,8	1	1	1	1	1	1	1	1	1	0	1	-12,966878	274,335694	308,186379	0
15.01.2021	19:12:01	0	0	3,954296	2,18925	308,7828	0,299	84,878	0	1016,84	6,9	9	8,8	1	1	1	1	1	1	1	1	1	0	1	-8,174771	274,209212	312,386628	0
15.01.2021	19:12:02	0	0	3,163437	2,178	315,162	0,292	84,873	0	1016,58	6,9	9	8,8	1	1	1	1	1	1	1	1	1	0	1	-10,852713	274,337205	310,307618	0
15.01.2021	19:12:03	0	0	3,502376	2,08425	305,7876	0,295	84,888	0	1016,6	6,9	9	8,8	1	1	1	1	1	1	1	1	1	0	1	-7,610994	274,207712	312,943388	0
15.01.2021	19:12:04	0	0	2,937495	2,0175	317,3148	0,289	84,868	0	1016,7	6,9	9	8,7	1	1	1	1	1	1	1	1	1	0	1	-8,668076	274,251281	312,090087	0
15.01.2021	19:12:05	0	0	4,406216	1,965	312,8364	0,3	84,887	0	1016,66	6,9	9,1	8,8	1	1	1	1	1	1	1	1	1	0	1	-10,218464	274,391671	311,19699	0
15.01.2021	19:12:06	0	0	3,502376	1,94775	315,1872	0,292	84,891	0	1016,7	6,9	9	8,8	1	1	1	1	1	1	1	1	1	0	1	-9,372798	274,27235	311,483943	0
15.01.2021	19:12:07	0	0	5,084095	1,8585	301,5936	0,319	84,902	0	1016,92	6,9	9	8,8	1	1	1	1	1	1	1	1	1	0	1	-6,624383	274,213715	313,958073	0
15.01.2021	19:12:08	0	0	4,632175	1,7175	296,8812	0,299	84,869	0	1016,5	6,9	9	8,8	1	1	1	1	1	1	1	1	1	0	1	-11,557435	274,364419	309,730349	0
15.01.2021	19:12:09	0	0	2,711517	1,66125	284,7744	0,296	84,89	0	1016,74	6,9	9,1	8,8	1	1	1	1	1	1	1	1	1	0	1	-9,090909	274,234743	311,589892	0
15.01.2021	19:12:10	0	0	2,937477	1,72125	282,1032	0,294	84,877	0	1016,68	6,9	9	8,8	1	1	1	1	1	1	1	1	1	0	1	-7,188161	274,352319	314,04295	0
15.01.2021	19:12:11	0	0	2,598537	1,73925	295,0884	0,297	84,883	0	1016,74	6,9	9	8,8	1	1	1	1	1	1	1	1	1	0	1	-5,919662	274,213715	314,662794	0
15.01.2021	19:12:12	0	0	2,824497	1,65975	294,3684	0,291	84,877	0	1016,66	6,9	9,1	8,8	1	1	1	1	1	1	1	1	1	0	1	-5,567301	274,285906	315,35288	0
15.01.2021	19:12:13	0	0	3,163437	1,7235	299,0664	0,301	84,888	0	1016,68	6,9	9	8,8	1	1	1	1	1	1	1	1	1	0	1	-7,258633	274,231738	313,408111	0
15.01.2021	19:12:14	0	0	2,372578	1,77375	299,4264	0,295	84,886	0	1016,64	6,9	9	8,8	1	1	1	1	1	1	1	1	1	0	1	-9,725159	274,388641	311,676099	0
15.01.2021	19:12:15	0	0	3,841316	1,73925	302,436	0,295	84,881	0	1016,74	6,9	9	8,8	1	1	1	1	1	1	1	1	1	0	1	-13,319239	274,340227	307,855243	0
15.01.2021	19:12:16	0	0	2,937459	1,728	296,4708	0,291	84,889	0	1016,56	6,9	9	8,9	1	1	1	1	1	1	1	1	1	0	1	-10,500352	274,230235	310,159364	0
15.01.2021	19:12:17	0	0	2,485558	1,70325	301,2012	0,287	84,869	0	1016,64	6,9	9	8,8	1	1	1	1	1	1	1	1	1	0	1	-7,399577	274,294949	313,562927	0
15.01.2021	19:12:18	0	0	4,971115	1,67925	303,8904	0,298	84,891	0	1016,66	6,9	9	8,8	1	1	1	1	1	1	1	1	1	0	1	-12,966878	274,390156	308,441477	0
15.01.2021	19:12:19	0	0	2,485558	1,71075	302,8032	0,296	84,879	0	1016,68	6,9	9	8,8	1	1	1	1	1	1	1	1	1	0	1	-9,513742	274,282893	311,392336	0
15.01.2021	19:12:20	0	0	3,502376	1,88625	302,0076	0,297	84,884	0	1016,72	6,9	9,1	8,8	1	1	1	1	1	1	1	1	1	0	1	-7,82241	274,213715	312,760046	0
15.01.2021	19:12:21	0	0	2,711517	1,99425	309,8808	0,296	84,886	0	1016,76	6,9	9,1	8,8	1	1	1	1	1	1	1	1	1	0	1	-10,993658	274,269338	309,848993	0
15.01.2021	19:12:22	0	0	4,858135	2,067	314,3808	0,295	84,876	0	1016,74	6,9	9	8,8	1	1	1	1	1	1	1	1	1	0	1	-6,483439	274,37804	314,868152	0
15.01.2021	19:12:23	0	0	4,745155	2,08425	296,1252	0,295	84,897	0	1016,72	6,9	9	8,8	1	1	1	1	1	1	1	1	1	0	1	-6,483439	274,349295	314,733511	0
15.01.2021	19:12:24	0	0	2,485558	2,16225	303,1488	0,298	84,892	0	1016,8	6,9	9	8,8	1	1	1	1	1	1	1	1	1	0	1	-11,41649	274,219721	309,194051	0
15.01.2021	19:12:25	0	0	2,824497	2,2455	305,7084	0,297	84,893	0	1016,54	6,9	9	8,8	1	1	1	1	1	1	1	1	1	0	1	-11,557435	274,293441	309,398014	0
15.01.2021	19:12:26	0	0	4,519195	2,274	304,578	0,298	84,886	0	1016,66	6,9	9	8,8	1	1	1	1	1	1	1	1	1	0	1	-7,399577	274,209212	313,161822	0
15.01.2021	19:12:27	0	0	5,197075	2,16825	323,316	0,293	84,878	0	1016,58	6,9	9	8,8	1	1	1	1	1	1	1	1	1	0	1	-4,439746	274,266328	316,388816	0
15.01.2021	19:12:28	0	0	3,050457	1,96125	321,768	0,292	84,891	0	1016,7	6,9	9	8,8	1	1	1	1	1	1	1	1	1	0	1	-7,82241	274,385611	313,564653	0
15.01.2021	19:12:29	0	0	3,95432	1,79775	306,108	0,292	84,878	0	1016,78	7	9,1	8,7	1	1	1	1	1	1	1	1	1	0	1	-3,805497	274,270844	317,044198	0
15.01.2021	19:12:30	0	0	2,372592	1,755	308,8296	0,294	84,889	0	1016,74	6,9	9	8,7	1	1	1	1	1	1	1	1	1	0	1	-10,570825	274,221223	310,04674	0
15.01.2021	19:12:31	0	0	3,841316	1,79475	312,1056	0,294	84,887	0	1016,68	6,9	9	8,8	1	1	1	1	1	1	1	1	1	0	1	-9,513742	274,334184	311,632441	0
15.01.2021	19:12:32	0	0	2,485558	1,88175	315,9144	0,297	84,878	0	1016,66	6,9	9	8,8	1	1	1	1	1	1	1	1	1	0	1	-9,725159	274,394701	311,704494	0
15.01.2021	19:12:33	0	0	2,937477	1,821	310,6656	0,296	84,884	0	1016,88	6,9	9	8,8	1	1	1	1	1	1	1	1	1	0	1	-10,218464	274,328142	310,899432	0
15.01.2021	19:12:34	0	0	2,598537	1,779	309,8844	0,291	84,879	0	1016,6	6,9	9	8,8	1	1	1	1	1	1	1	1	1	0	1	-12,684989	274,222724	307,939598	0
15.01.2021	19:12:35	0	0	3,276417	1,7445	311,4864	0,294	84,884	0	1016,7	6,9	9	8,8	1	1	1	1	1	1	1	1	1	0	1	-10,218464	274,242259	310,497492	0
15.01.2021	19:12:36	0	0	4,745155	1,68525	312,084	0,296	84,889	0	1016,7	6,9	9	8,8	1	1	1	1	1	1	1	1	1	0	1	-12,191684	274,393186	309,230869	0
15.01.2021	19:12:37	0	0	4,632203	1,70775	286,9308	0,296	84,893	0	1016,54	6,9	9	8,7	1	1	1	1	1	1	1	1	1	0	1	-13,389711	274,27988	307,502267	0
15.01.2021	19:12:38	0	0	4,745155	1,87275	300,5064	0,292	84,88	0	1016,64	6,9	9	8,8	1	1	1	1	1	1	1	1	1	0	1	-8,597604	274,397732	312,84625	0
15.01.2021	19:12:39	0	0	3,728336	2,2695	312,804	0,296	84,897	0	1016,74	6,9	9	8,8	1	1	1	1	1	1	1	1	1	0	1	-8,45666	274,260308	312,343735	0
15.01.2021	19:12:40	0	0	4,406216	2,5845	303,156	0,292	84,901	0	1016,58	6,9	9	8,8	1	1	1	1	1	1	1	1	1	0	1	-8,668076	274,234743	312,012725	0
15.01.2021	19:12:41	0	0	4,632175	2,50125	320,7528	0,291	84,891	0	1016,76	6,9	9	8,8	1	1	1	1	1	1	1	1	1	0	1	-8,245243	274,251281	312,51292	0
15.01.2021	19:12:42	0	0	3,954296	2,3745	311,706	0,294	84,896	0	1016,68	6,9	9	8,8	1	1	1	1	1	1	1	1	1	0	1	-10,993658	274,237749	309,701203	0
15.01.2021	19:12:43	0	0	4,180281	2,442	314,8668	0,291	84,871	0	1016,6	6,9	9	8,7	1	1	1	1	1	1	1	1	1	0	1	-10,993658	274,219721	309,616884	0
15.01.2021	19:12:44	0	0	3,728336	2,481	309,9024	0,294	84,894	0	1016,56	6,9	9	8,8	1	1	1	1	1	1	1	1	1	0	1	-7,470049	274,264822	313,35147	0
15.01.2021	19:12:45	0	0	4,293236	2,3685	311,7888	0,293	84,9	0	1016,76	6,9	9	8,8	1	1	1	1	1	1	1	1	1	0	1	-10,218464	274,218219	310,385055	0
15.01.2021	19:12:46	0	0	4,293236	2,277	296,4888	0,294	84,897	0	1016,58	6,9	9,1	8,8	1	1	1	1	1	1	1	1	1	0	1	-8,879493	274,258803	311,913862	0
15.01.2021	19:12:47	0	0	4,632175	2,18025	310,2696	0,295	84,89	0	1016,76	6,9	9	8,8	1	1	1	1	1	1	1	1	1	0	1	-7,470049	274,355343	313,775226	0
15.01.2021	19:12:48	0	0	4,745155	2,07375	302,7384	0,292	84,896	0	1016,68	6,9	9	8,8	1	1	1	1	1	1	1	1	1	0	1	-8,45666	274,237749	312,238201	0
15.01.2021	19:12:49	0	0	4,180256	2,067	314,5284	0,295	84,897	0	1016,88	6,9	9	8,8	1	1	1	1	1	1	1	1	1	0	1	-2,748414	274,239252	317,953477	0
15.01.2021	19:12:50	0	0	3,389397	2,03925	345,3696	0,293	84,894	0	1016,7	6,9	9	8,8	1	1	1	1	1	1	1	1	1	0	1	-9,231853	274,266328	311,596709	0
15.01.2021	19:12:51	0	0	4,858135	2,05125	330,3072	0,289	84,888	0	1016,7	6,9	9	8,8	1	1	1	1	1	1	1	1	1	0	1	-6,342495	274,30098	314,648238	0
15.01.2021	19:12:52	0	0	5,084125	2,08425	330,246	0,294	84,899	0	1016,7	6,9	9	8,7	1	1	1	1	1	1	1	1	1	0	1	-6,694856	274,387126	314,699305	0
15.01.2021	19:12:53	0	0	3,276417	1,9545	325,9764	0,288	84,902	0	1016,52	7,1	9	8,8	1	1	1	1	1	1	1	1	1	0	1	-10,570825	274,293441	310,384624	0
15.01.2021	19:12:54	0	0	2,372578	1,7775	319,464	0,297	84,907	0	1016,78	6,9	9	8,8	1	1	1	1	1	1	1	1	1	0	1	-10,500352	274,388641	310,900905	0
15.01.2021	19:12:55	0	0	2,598537	1,65525	291,4596	0,292	84,896	0	1016,62	6,9	9	8,8	1	1	1	1	1	1	1	1	1	0	1	-11,557435	274,269338	309,285215	0
15.01.2021	19:12:56	0	0	5,084064	1,707	303,192	0,293	84,905	0	1016,72	6,9	9	8,9	1	1	1	1	1	1	1	1	1	0	1	-10,923185	274,221223	309,694379	0
15.01.2021	19:12:57	0	0	3,050457	1,80075	304,2072	0,286	84,892	0	1016,54	6,9	9	8,8	1	1	1	1	1	1	1	1	1	0	1	-9,302326	274,273855	311,561461	0
15.01.2021	19:12:58	0	0	2,259598	1,8405	311,724	0,3	84,898	0	1016,78	6,9	9	8,8	1	1	1	1	1	1	1	1	1	0	1	-11,698379	274,391671	309,717074	0
15.01.2021	19:12:59	0	0	4,858164	1,94175	315,8604	0,292	84,903	0	1016,84	6,9	9,1	8,7	1	1	1	1	1	1	1	1	1	0	1	-8,949965	274,319084	312,125519	0
15.01.2021	19:13:00	0	0	4,519195	2,0055	307,5516	0,29	84,874	0	1016,58	6,9	9,1	8,8	1	1	1	1	1	1	1	1	1	0	1	-11,486963	274,387126	309,907197	0
15.01.2021	19:13:01	0	0	2,598537	2,145	314,5032	0,292	84,897	0	1016,68	6,9	9	8,8	1	1	1	1	1	1	1	1	1	0	1	-8,45666	274,311538	312,5835	0
15.01.2021	19:13:02	0	0	3,615378	2,1765	311,0868	0,297	84,901	0	1016,64	6,9	9	8,7	1	1	1	1	1	1	1	1	1	0	1	-12,191684	274,381068	309,174094	0
15.01.2021	19:13:03	0	0	2,485572	2,32125	324,0864	0,293	84,885	0	1016,76	6,9	9,1	8,7	1	1	1	1	1	1	1	1	1	0	1	-8,668076	274,338716	312,49933	0
15.01.2021	19:13:04	0	0	2,598537	2,448	314,8056	0,294	84,88	0	1016,58	6,9	9	8,8	1	1	1	1	1	1	1	1	1	0	1	-9,161381	274,225728	311,477256	0
15.01.2021	19:13:05	0	0	4,971115	2,4	313,2396	0,294	84,897	0	1016,66	6,9	9	8,8	1	1	1	1	1	1	1	1	1	0	1	-12,473573	274,252785	308,291627	0
15.01.2021	19:13:06	0	0	4,406216	2,364	314,1216	0,294	84,895	0	1016,8	6,9	9,1	8,8	1	1	1	1	1	1	1	1	1	0	1	-9,513742	274,352319	311,717369	0
15.01.2021	19:13:07	0	0	2,259598	2,32725	315,4752	0,293	84,898	0	1016,66	6,9	9	8,8	1	1	1	1	1	1	1	1	1	0	1	-10,711769	274,243762	310,01122	0
15.01.2021	19:13:08	0	0	3,163437	2,214	315,144	0,292	84,897	0	1016,68	6,9	9	8,8	1	1	1	1	1	1	1	1	1	0	1	-8,80902	274,219721	311,801521	0
15.01.2021	19:13:09	0	0	3,389417	2,1555	310,3416	0,297	84,895	0	1016,64	6,9	9	8,7	1	1	1	1	1	1	1	1	1	0	1	-10,288936	274,31003	310,74416	0
15.01.2021	19:13:10	0	0	4,293236	2,20875	310,2084	0,291	84,901	0	1016,56	6,9	9,1	8,8	1	1	1	1	1	1	1	1	1	0	1	-8,879493	274,35988	312,387034	0
15.01.2021	19:13:11	0	0	3,163437	2,2455	308,1888	0,291	84,891	0	1016,66	6,9	9	8,8	1	1	1	1	1	1	1	1	1	0	1	-5,285412	274,20171	315,240905	0
15.01.2021	19:13:12	0	0	4,745155	2,2245	307,2492	0,284	84,892	0	1016,64	6,9	9	8,8	1	1	1	1	1	1	1	1	1	0	1	-9,725159	274,313047	311,322064	0
15.01.2021	19:13:13	0	0	3,389397	2,20575	309,1968	0,291	84,901	0	1016,7	6,9	9	8,8	1	1	1	1	1	1	1	1	1	0	1	-10,993658	274,20021	309,525645	0
15.01.2021	19:13:14	0	0	2,485558	2,3235	300,4992	0,291	84,904	0	1016,82	6,9	9	8,8	1	1	1	1	1	1	1	1	1	0	1	-2,818887	274,331163	318,313152	0
15.01.2021	19:13:15	0	0	3,050457	2,469	296,7264	0,292	84,885	0	1016,58	6,9	9	8,8	1	1	1	1	1	1	1	1	1	0	1	-6,8358	274,27988	314,056178	0
15.01.2021	19:13:16	0	0	2,711517	2,49825	295,1496	0,295	84,904	0	1016,86	6,9	9	8,8	1	1	1	1	1	1	1	1	1	0	1	-7,82241	274,209212	312,738989	0
15.01.2021	19:13:17	0	0	3,728336	2,49525	301,6044	0,285	84,896	0	1016,76	6,9	9	8,8	1	1	1	1	1	1	1	1	1	0	1	-12,05074	274,264822	308,770779	0
15.01.2021	19:13:18	0	0	4,519223	2,4915	315,432	0,286	84,901	0	1016,52	6,9	9	8,7	1	1	1	1	1	1	1	1	1	0	1	-5,84919	274,373498	315,481126	0
15.01.2021	19:13:19	0	0	2,824497	2,3535	304,704	0,29	84,88	0	1016,72	6,9	9	8,8	1	1	1	1	1	1	1	1	1	0	1	-9,513742	274,222724	311,110846	0
15.01.2021	19:13:20	0	0	4,745127	2,2065	312,174	0,286	84,891	0	1016,64	6,9	9	8,9	1	1	1	1	1	1	1	1	1	0	1	-11,627907	274,341738	309,553651	0
15.01.2021	19:13:21	0	0	3,163437	2,03775	301,6296	0,294	84,894	0	1016,74	6,9	9	8,8	1	1	1	1	1	1	1	1	1	0	1	-9,161381	274,209212	311,400018	0
15.01.2021	19:13:22	0	0	2,372578	1,944	303,1776	0,295	84,893	0	1016,54	6,9	9,1	8,8	1	1	1	1	1	1	1	1	1	0	1	-8,879493	274,326632	312,231333	0
15.01.2021	19:13:23	0	0	4,519195	1,92225	293,346	0,297	84,892	0	1016,68	6,9	9	8,8	1	1	1	1	1	1	1	1	1	0	1	-13,248767	274,390156	308,159588	0
15.01.2021	19:13:24	0	0	4,632175	1,9245	307,1664	0,291	84,892	0	1016,68	6,9	9,1	8,8	1	1	1	1	1	1	1	1	1	0	1	-10,570825	274,326632	310,540001	0
15.01.2021	19:13:25	0	0	4,293236	1,86	298,98	0,296	84,9	0	1016,72	6,9	9	8,8	1	1	1	1	1	1	1	1	1	0	1	-9,090909	274,221223	311,526655	0
15.01.2021	19:13:26	0	0	4,180256	1,80525	315,2448	0,289	84,894	0	1016,78	6,9	9	8,8	1	1	1	1	1	1	1	1	1	0	1	-11,134602	274,252785	309,630598	0
15.01.2021	19:13:27	0	0	3,728336	1,8705	298,5804	0,292	84,89	0	1016,74	6,9	9	8,8	1	1	1	1	1	1	1	1	1	0	1	-10,570825	274,346272	310,631967	0
15.01.2021	19:13:28	0	0	2,485558	1,956	294,156	0,297	84,898	0	1016,88	7	9	8,8	1	1	1	1	1	1	1	1	1	0	1	-12,403101	274,379554	308,955584	0
15.01.2021	19:13:29	0	0	2,937477	1,974	300,1464	0,288	84,883	0	1016,66	6,9	9	8,8	1	1	1	1	1	1	1	1	1	0	1	-12,966878	274,227231	307,678785	0
15.01.2021	19:13:30	0	0	3,728359	2,049	309,1824	0,286	84,89	0	1016,7	6,9	9,1	8,7	1	1	1	1	1	1	1	1	1	0	1	-11,41649	274,245266	309,313532	0
15.01.2021	19:13:31	0	0	2,259598	2,13825	309,5784	0,29	84,885	0	1016,72	6,9	9	8,8	1	1	1	1	1	1	1	1	1	0	1	-10,500352	274,221223	310,117212	0
15.01.2021	19:13:32	0	0	4,519223	2,184	315,27	0,286	84,887	0	1016,6	6,9	9,1	8,7	1	1	1	1	1	1	1	1	1	0	1	-9,725159	274,387126	311,669002	0
15.01.2021	19:13:33	0	0	5,084095	2,2635	314,7156	0,291	84,893	0	1016,74	6,9	9	8,8	1	1	1	1	1	1	1	1	1	0	1	-11,980268	274,356855	309,27209	0
15.01.2021	19:13:34	0	0	4,406242	2,334	314,0388	0,29	84,901	0	1016,8	6,9	9	8,7	1	1	1	1	1	1	1	1	1	0	1	-14,940099	274,349295	306,276851	0
15.01.2021	19:13:35	0	0	2,146618	2,2485	310,6296	0,293	84,887	0	1016,68	6,9	9	8,8	1	1	1	1	1	1	1	1	1	0	1	-5,003524	274,213715	315,578932	0
15.01.2021	19:13:36	0	0	3,502376	2,24025	308,0412	0,288	84,892	0	1016,74	6,9	9	8,8	1	1	1	1	1	1	1	1	1	0	1	-5,003524	274,237749	315,691337	0
15.01.2021	19:13:37	0	0	4,745155	2,27775	315,8064	0,288	84,888	0	1016,7	6,9	9,1	8,8	1	1	1	1	1	1	1	1	1	0	1	-9,372798	274,219721	311,237743	0
15.01.2021	19:13:38	0	0	3,050457	2,24925	309,5064	0,288	84,907	0	1016,74	6,9	9,1	8,8	1	1	1	1	1	1	1	1	1	0	1	-10,711769	274,320593	310,370782	0
15.01.2021	19:13:39	0	0	4,971115	2,2035	308,0664	0,289	84,896	0	1016,78	6,9	9	8,8	1	1	1	1	1	1	1	1	1	0	1	-18,040874	274,353831	303,197319	0
15.01.2021	19:13:40	0	0	5,197075	2,20125	300,3516	0,29	84,877	0	1016,82	6,9	9,1	8,8	1	1	1	1	1	1	1	1	1	0	1	-12,896406	274,287413	308,030827	0
15.01.2021	19:13:41	0	0	3,050475	2,118	299,4192	0,296	84,891	0	1016,74	6,9	9	8,7	1	1	1	1	1	1	1	1	1	0	1	-11,768851	274,376526	309,575647	0
15.01.2021	19:13:42	0	0	3,050457	2,02425	302,4468	0,29	84,891	0	1016,74	6,9	9,1	8,8	1	1	1	1	1	1	1	1	1	0	1	-7,188161	274,212214	313,387276	0
15.01.2021	19:13:43	0	0	3,728336	1,9305	283,662	0,296	84,895	0	1016,8	6,9	9	8,8	1	1	1	1	1	1	1	1	1	0	1	-6,412967	274,210713	314,15545	0
15.01.2021	19:13:44	0	0	2,711517	2,02125	288,8136	0,296	84,891	0	1016,68	6,9	9,1	8,8	1	1	1	1	1	1	1	1	1	0	1	-9,866103	274,237749	310,828758	0
15.01.2021	19:13:45	0	0	2,824497	2,148	284,4216	0,289	84,893	0	1016,58	6,9	9	8,8	1	1	1	1	1	1	1	1	1	0	1	-8,174771	274,210713	312,393646	0
15.01.2021	19:13:46	0	0	2,937495	2,112	280,6272	0,288	84,876	0	1016,7	6,9	9	8,7	1	1	1	1	1	1	1	1	1	0	1	-10,570825	274,234743	310,109976	0
15.01.2021	19:13:47	0	0	4,067276	2,14425	296,4888	0,29	84,881	0	1016,84	6,9	9,1	8,8	1	1	1	1	1	1	1	1	1	0	1	-8,527132	274,251281	312,231031	0
15.01.2021	19:13:48	0	0	2,711501	2,349	286,3008	0,293	84,875	0	1016,68	6,9	9	8,9	1	1	1	1	1	1	1	1	1	0	1	-4,721635	274,212214	315,853801	0
15.01.2021	19:13:49	0	0	3,95432	2,6715	291,4668	0,288	84,877	0	1016,6	6,9	9	8,7	1	1	1	1	1	1	1	1	1	0	1	-8,738548	274,255794	312,040728	0
15.01.2021	19:13:50	0	0	2,485558	2,5845	300,3912	0,293	84,878	0	1016,88	6,9	9	8,8	1	1	1	1	1	1	1	1	1	0	1	-11,980268	274,20321	308,553064	0
15.01.2021	19:13:51	0	0	4,632175	2,43	290,8368	0,289	84,872	0	1016,52	6,9	9	8,8	1	1	1	1	1	1	1	1	1	0	1	-10,288936	274,287413	310,638297	0
15.01.2021	19:13:52	0	0	4,632175	2,28825	299,736	0,293	84,883	0	1016,7	6,9	9	8,8	1	1	1	1	1	1	1	1	1	0	1	-11,134602	274,371985	310,188624	0
15.01.2021	19:13:53	0	0	4,180256	2,23875	281,2932	0,29	84,887	0	1016,82	6,9	9,1	8,8	1	1	1	1	1	1	1	1	1	0	1	-8,174771	274,334184	312,971412	0
15.01.2021	19:13:54	0	0	4,519223	2,2485	304,5744	0,289	84,887	0	1016,66	6,9	9,1	8,7	1	1	1	1	1	1	1	1	1	0	1	-10,359408	274,371985	310,963817	0
15.01.2021	19:13:55	0	0	2,824514	2,34825	297,8964	0,288	84,885	0	1016,62	6,9	9,1	8,7	1	1	1	1	1	1	1	1	1	0	1	-12,191684	274,257298	308,594631	0
15.01.2021	19:13:56	0	0	2,937477	2,397	305,3844	0,283	84,873	0	1016,68	6,9	9,1	8,8	1	1	1	1	1	1	1	1	1	0	1	-8,879493	274,19871	311,632796	0
15.01.2021	19:13:57	0	0	2,711517	2,43975	297,2232	0,292	84,886	0	1016,82	6,9	9	8,8	1	1	1	1	1	1	1	1	1	0	1	-12,825934	274,27988	308,066045	0
15.01.2021	19:13:58	0	0	3,050457	2,50875	296,496	0,287	84,891	0	1016,7	7	9,1	8,8	1	1	1	1	1	1	1	1	1	0	1	-10,711769	274,365932	310,583102	0
15.01.2021	19:13:59	0	0	3,050457	2,5275	301,2624	0,287	84,883	0	1016,6	7	9,1	8,8	1	1	1	1	1	1	1	1	1	0	1	-11,557435	274,254289	309,214803	0
15.01.2021	19:14:00	0	0	3,728336	2,463	305,7696	0,284	84,89	0	1016,7	7	9,1	8,8	1	1	1	1	1	1	1	1	1	0	1	-11,06413	274,375012	310,273277	0
15.01.2021	19:14:01	0	0	2,824497	2,3175	312,102	0,289	84,881	0	1016,68	6,9	9	8,8	1	1	1	1	1	1	1	1	1	0	1	-13,6716	274,248273	307,072492	0
15.01.2021	19:14:02	0	0	4,519195	2,26275	308,9484	0,288	84,891	0	1016,66	7	9	8,8	1	1	1	1	1	1	1	1	1	0	1	-16,349542	274,370471	304,966594	0
15.01.2021	19:14:03	0	0	4,745184	2,41575	322,2	0,286	84,869	0	1016,74	6,9	9,1	8,7	1	1	1	1	1	1	1	1	1	0	1	-8,949965	274,261812	311,857471	0
15.01.2021	19:14:04	0	0	3,954296	2,38125	326,2788	0,287	84,887	0	1016,62	7	9	8,8	1	1	1	1	1	1	1	1	1	0	1	-8,668076	274,387126	312,726084	0
15.01.2021	19:14:05	0	0	2,82448	2,328	313,3368	0,283	84,877	0	1016,68	6,9	9	8,9	1	1	1	1	1	1	1	1	1	0	1	-6,8358	274,328142	314,282096	0
15.01.2021	19:14:06	0	0	5,084095	2,23575	327,0348	0,29	84,896	0	1016,76	7	9,1	8,8	1	1	1	1	1	1	1	1	1	0	1	-12,403101	274,19721	308,102175	0
15.01.2021	19:14:07	0	0	2,598537	2,064	316,9224	0,283	84,891	0	1016,62	7	9	8,8	1	1	1	1	1	1	1	1	1	0	1	-9,654686	274,320593	311,427864	0
15.01.2021	19:14:08	0	0	4,293261	1,97325	315,9108	0,287	84,888	0	1016,44	6,9	9,1	8,7	1	1	1	1	1	1	1	1	1	0	1	-7,329105	274,19871	313,183184	0
15.01.2021	19:14:09	0	0	4,632203	1,8645	327,1356	0,289	84,886	0	1016,6	7	9,1	8,7	1	1	1	1	1	1	1	1	1	0	1	-8,597604	274,287413	312,329629	0
15.01.2021	19:14:10	0	0	1,920658	1,74	306,1368	0,284	84,892	0	1016,78	6,9	9,1	8,8	1	1	1	1	1	1	1	1	1	0	1	-8,879493	274,19871	311,632796	0
15.01.2021	19:14:11	0	0	4,067276	1,71525	298,6632	0,282	84,883	0	1016,82	7	9,1	8,8	1	1	1	1	1	1	1	1	1	0	1	-11,557435	274,302488	309,440357	0
15.01.2021	19:14:12	0	0	2,146618	1,79775	296,1216	0,292	84,9	0	1016,54	6,9	9,1	8,8	1	1	1	1	1	1	1	1	1	0	1	-9,936575	274,19421	310,554677	0
15.01.2021	19:14:13	0	0	2,937459	1,95075	297,5508	0,281	84,872	0	1016,8	7	9	8,9	1	1	1	1	1	1	1	1	1	0	1	-13,6716	274,296456	307,29796	0
15.01.2021	19:14:14	0	0	4,632175	2,178	302,0544	0,288	84,891	0	1016,7	7	9,1	8,8	1	1	1	1	1	1	1	1	1	0	1	-12,191684	274,371985	309,131541	0
15.01.2021	19:14:15	0	0	3,841316	2,28675	305,7336	0,287	84,904	0	1016,74	7	9,1	8,8	1	1	1	1	1	1	1	1	1	0	1	-11,275546	274,328142	309,842349	0
15.01.2021	19:14:16	0	0	4,632203	2,46	291,906	0,286	84,91	0	1016,7	7	9,1	8,7	1	1	1	1	1	1	1	1	1	0	1	-6,553911	274,206211	313,993453	0
15.01.2021	19:14:17	0	0	4,293261	2,57475	311,7816	0,285	84,893	0	1016,52	6,9	9,1	8,7	1	1	1	1	1	1	1	1	1	0	1	-9,584214	274,221223	311,03335	0
15.01.2021	19:14:18	0	0	4,632175	2,57025	292,68	0,284	84,908	0	1016,62	6,9	9	8,8	1	1	1	1	1	1	1	1	1	0	1	-4,298802	274,257298	316,487513	0
15.01.2021	19:14:19	0	0	3,615378	2,5485	305,424	0,29	84,891	0	1016,76	6,9	9,1	8,7	1	1	1	1	1	1	1	1	1	0	1	-8,45666	274,177721	311,957506	0
15.01.2021	19:14:20	0	0	2,372578	2,3835	290,0556	0,286	84,898	0	1016,6	6,9	9,1	8,8	1	1	1	1	1	1	1	1	1	0	1	-9,231853	274,204711	311,308494	0
15.01.2021	19:14:21	0	0	3,615335	2,3565	297,0792	0,287	84,907	0	1016,74	6,9	9,1	8,9	1	1	1	1	1	1	1	1	1	0	1	-12,121212	274,30098	308,869521	0
15.01.2021	19:14:22	0	0	2,711517	2,3475	288,9108	0,286	84,904	0	1016,62	6,9	9,1	8,8	1	1	1	1	1	1	1	1	1	0	1	-12,121212	274,375012	309,216195	0
15.01.2021	19:14:23	0	0	3,954272	2,346	299,3508	0,281	84,897	0	1016,6	6,9	9	8,9	1	1	1	1	1	1	1	1	1	0	1	-12,262156	274,240755	308,446767	0
15.01.2021	19:14:24	0	0	2,711517	2,18475	289,998	0,28	84,889	0	1016,52	7	9,1	8,8	1	1	1	1	1	1	1	1	1	0	1	-9,161381	274,373498	312,168935	0
15.01.2021	19:14:25	0	0	4,519195	2,00625	287,0928	0,283	84,898	0	1016,74	7	9	8,8	1	1	1	1	1	1	1	1	1	0	1	-10,077519	274,373498	311,252797	0
15.01.2021	19:14:26	0	0	2,937477	1,995	297,648	0,294	84,905	0	1016,7	6,9	9,1	8,8	1	1	1	1	1	1	1	1	1	0	1	-8,949965	274,246769	311,787092	0
15.01.2021	19:14:27	0	0	4,971115	2,05725	295,542	0,288	84,9	0	1016,76	6,9	9,1	8,8	1	1	1	1	1	1	1	1	1	0	1	-10,852713	274,384097	310,527255	0
15.01.2021	19:14:28	0	0	4,180231	2,03025	309,5856	0,283	84,891	0	1016,5	6,9	9,1	8,9	1	1	1	1	1	1	1	1	1	0	1	-13,883016	274,240755	306,825907	0
15.01.2021	19:14:29	0	0	2,824497	1,95225	288,828	0,28	84,906	0	1016,64	6,9	9,1	8,8	1	1	1	1	1	1	1	1	1	0	1	-11,205074	274,212214	309,370362	0
15.01.2021	19:14:30	0	0	4,293261	1,9665	306,1728	0,282	84,903	0	1016,62	7	9,1	8,7	1	1	1	1	1	1	1	1	1	0	1	-11,205074	274,254289	309,567164	0
15.01.2021	19:14:31	0	0	3,389417	2,106	305,4204	0,282	84,902	0	1016,7	6,9	9,1	8,7	1	1	1	1	1	1	1	1	1	0	1	-4,933051	274,335694	316,220205	0
15.01.2021	19:14:32	0	0	4,519195	2,03475	304,6644	0,286	84,899	0	1016,66	7	9,1	8,8	1	1	1	1	1	1	1	1	1	0	1	-10,42988	274,346272	310,772911	0
15.01.2021	19:14:33	0	0	4,406216	1,986	294,4368	0,283	84,92	0	1016,74	6,9	9,1	8,8	1	1	1	1	1	1	1	1	1	0	1	-6,8358	274,224226	313,795812	0
15.01.2021	19:14:34	0	0	3,728359	1,9215	304,2468	0,287	84,907	0	1016,7	6,9	9	8,7	1	1	1	1	1	1	1	1	1	0	1	-10,218464	274,355343	311,026811	0
15.01.2021	19:14:35	0	0	4,745184	1,866	303,498	0,286	84,909	0	1016,6	7	9,1	8,7	1	1	1	1	1	1	1	1	1	0	1	-7,470049	274,275361	313,400784	0
15.01.2021	19:14:36	0	0	3,163437	1,914	307,5912	0,281	84,901	0	1016,68	6,9	9,1	8,8	1	1	1	1	1	1	1	1	1	0	1	-10,077519	274,210713	310,490898	0
15.01.2021	19:14:37	0	0	2,485558	1,95075	306,0468	0,282	84,911	0	1016,74	7	9,1	8,8	1	1	1	1	1	1	1	1	1	0	1	-8,738548	274,291934	312,209845	0
15.01.2021	19:14:38	0	0	4,406242	1,92225	298,9908	0,281	84,904	0	1016,56	7	9,1	8,7	1	1	1	1	1	1	1	1	1	0	1	-10,007047	274,365932	311,287823	0
15.01.2021	19:14:39	0	0	4,745127	1,923	294,426	0,288	84,916	0	1016,74	6,9	9,1	8,9	1	1	1	1	1	1	1	1	1	0	1	-10,923185	274,349295	310,293764	0
15.01.2021	19:14:40	0	0	3,728314	1,94025	292,2012	0,286	84,895	0	1016,64	7	9,1	8,9	1	1	1	1	1	1	1	1	1	0	1	-10,641297	274,320593	310,441254	0
15.01.2021	19:14:41	0	0	3,841316	2,0895	297,4896	0,286	84,915	0	1016,7	6,9	9,1	8,8	1	1	1	1	1	1	1	1	1	0	1	-8,527132	274,335694	312,626125	0
15.01.2021	19:14:42	0	0	4,406216	2,1465	283,6368	0,286	84,907	0	1016,6	7	9,1	8,8	1	1	1	1	1	1	1	1	1	0	1	-8,668076	274,373498	312,66224	0
15.01.2021	19:14:43	0	0	3,276417	2,16225	285,93	0,284	84,902	0	1016,68	6,9	9,1	8,8	1	1	1	1	1	1	1	1	1	0	1	-12,544045	274,311538	308,496114	0
15.01.2021	19:14:44	0	0	3,050439	2,18925	287,1792	0,278	84,913	0	1016,66	6,9	9,1	8,9	1	1	1	1	1	1	1	1	1	0	1	-10,288936	274,20171	310,237381	0
15.01.2021	19:14:45	0	0	2,598537	2,1465	284,436	0,285	84,909	0	1016,58	7	9	8,8	1	1	1	1	1	1	1	1	1	0	1	-9,725159	274,313047	311,322064	0
15.01.2021	19:14:46	0	0	3,841316	2,07225	286,6284	0,295	84,922	0	1016,74	7	9,1	8,8	1	1	1	1	1	1	1	1	1	0	1	-7,329105	274,188213	313,134106	0
15.01.2021	19:14:47	0	0	4,858135	2,01	287,3772	0,284	84,901	0	1016,6	6,9	9	8,8	1	1	1	1	1	1	1	1	1	0	1	-13,601128	274,27235	307,255613	0
15.01.2021	19:14:48	0	0	3,841339	1,90575	313,614	0,289	84,92	0	1016,74	7	9,1	8,7	1	1	1	1	1	1	1	1	1	0	1	-7,329105	274,186713	313,127098	0
15.01.2021	19:14:49	0	0	4,632175	1,96425	286,74	0,288	84,917	0	1016,9	7	9,1	8,8	1	1	1	1	1	1	1	1	1	0	1	-7,681466	274,255794	313,09781	0
15.01.2021	19:14:50	0	0	3,841316	2,088	292,9824	0,286	84,912	0	1016,78	7	9,1	8,8	1	1	1	1	1	1	1	1	1	0	1	-9,795631	274,189712	310,67459	0
15.01.2021	19:14:51	0	0	2,82448	2,19375	297,9216	0,282	84,931	0	1016,72	7	9,1	8,9	1	1	1	1	1	1	1	1	1	0	1	-10,500352	274,225728	310,138285	0
15.01.2021	19:14:52	0	0	4,406242	2,355	294,066	0,283	84,919	0	1016,72	7	9,1	8,7	1	1	1	1	1	1	1	1	1	0	1	-10,570825	274,317575	310,497593	0
15.01.2021	19:14:53	0	0	4,971145	2,39775	290,43	0,283	84,926	0	1016,74	7	9,1	8,7	1	1	1	1	1	1	1	1	1	0	1	-10,641297	274,19721	309,863979	0
15.01.2021	19:14:54	0	0	4,0673	2,406	290,7648	0,284	84,918	0	1016,68	6,9	9,1	8,7	1	1	1	1	1	1	1	1	1	0	1	-9,513742	274,340227	311,66074	0
15.01.2021	19:14:55	0	0	4,406216	2,44125	290,0412	0,283	84,909	0	1016,64	7	9,1	8,8	1	1	1	1	1	1	1	1	1	0	1	-10,993658	274,20021	309,525645	0
15.01.2021	19:14:56	0	0	3,954272	2,45775	290,7432	0,284	84,926	0	1016,64	6,9	9,1	8,9	1	1	1	1	1	1	1	1	1	0	1	-9,654686	274,249777	311,096441	0
15.01.2021	19:14:57	0	0	3,954296	2,53425	290,0232	0,287	84,946	0	1016,68	7	9,1	8,8	1	1	1	1	1	1	1	1	1	0	1	-10,359408	274,20021	310,159895	0
15.01.2021	19:14:58	0	0	4,745155	2,57775	291,8196	0,283	84,927	0	1016,74	7	9,1	8,8	1	1	1	1	1	1	1	1	1	0	1	-15,151515	274,231738	305,515229	0
15.01.2021	19:14:59	0	0	4,406216	2,4315	296,064	0,287	84,936	0	1016,58	7	9,1	8,8	1	1	1	1	1	1	1	1	1	0	1	-10,218464	274,350807	311,005566	0
15.01.2021	19:15:00	0	0	3,502376	2,352	296,8416	0,278	84,912	0	1016,56	7	9,1	8,8	1	1	1	1	1	1	1	1	1	0	1	-11,627907	274,188213	308,835304	0
15.01.2021	19:15:01	0	0	4,745127	2,3355	291,5172	0,283	84,945	0	1016,74	7	9,1	8,9	1	1	1	1	1	1	1	1	1	0	1	-9,866103	274,270844	310,983592	0
15.01.2021	19:15:02	0	0	4,632203	2,43075	309,2508	0,281	84,941	0	1016,68	6,9	9,1	8,7	1	1	1	1	1	1	1	1	1	0	1	-11,557435	274,37804	309,794156	0
15.01.2021	19:15:03	0	0	2,824497	2,49825	299,394	0,284	84,929	0	1016,62	7	9,1	8,8	1	1	1	1	1	1	1	1	1	0	1	-5,990134	274,375012	315,347273	0
15.01.2021	19:15:04	0	0	2,824514	2,56725	307,1592	0,287	84,943	0	1016,6	7	9,1	8,7	1	1	1	1	1	1	1	1	1	0	1	-11,627907	274,263317	309,18657	0
15.01.2021	19:15:05	0	0	3,728336	2,529	304,686	0,283	84,948	0	1016,46	7	9,1	8,8	1	1	1	1	1	1	1	1	1	0	1	-13,107822	274,352319	308,123289	0
15.01.2021	19:15:06	0	0	4,519223	2,37375	291,7872	0,289	84,954	0	1016,56	7	9,1	8,7	1	1	1	1	1	1	1	1	1	0	1	-10,359408	274,249777	310,391719	0
15.01.2021	19:15:07	0	0	4,632175	2,28375	302,0868	0,289	84,942	0	1016,62	7	9,1	8,8	1	1	1	1	1	1	1	1	1	0	1	-9,936575	274,399247	311,514381	0
15.01.2021	19:15:08	0	0	3,276417	2,0685	307,5732	0,288	84,954	0	1016,76	6,9	9,1	8,8	1	1	1	1	1	1	1	1	1	0	1	-9,372798	274,362906	311,907899	0
15.01.2021	19:15:09	0	0	4,293236	1,9395	291,4632	0,284	84,94	0	1016,6	6,9	9	8,8	1	1	1	1	1	1	1	1	1	0	1	-8,174771	274,320593	312,90778	0
15.01.2021	19:15:10	0	0	2,485572	1,93125	300,0528	0,288	84,95	0	1016,86	7	9,1	8,7	1	1	1	1	1	1	1	1	1	0	1	-8,45666	274,19871	312,055629	0
15.01.2021	19:15:11	0	0	3,502398	1,84875	295,1748	0,285	84,946	0	1016,68	7	9,1	8,7	1	1	1	1	1	1	1	1	1	0	1	-6,060606	274,320593	315,021945	0
15.01.2021	19:15:12	0	0	2,937477	1,78425	302,4432	0,289	84,968	0	1016,64	7	9	8,8	1	1	1	1	1	1	1	1	1	0	1	-8,738548	274,19571	311,759715	0
15.01.2021	19:15:13	0	0	3,163437	1,74075	295,1424	0,285	84,975	0	1016,64	6,9	9,1	8,8	1	1	1	1	1	1	1	1	1	0	1	-8,879493	274,257298	311,906822	0
15.01.2021	19:15:14	0	0	2,824497	1,90125	303,2064	0,289	84,968	0	1016,72	6,9	9	8,8	1	1	1	1	1	1	1	1	1	0	1	-12,614517	274,20321	307,918815	0
15.01.2021	19:15:15	0	0	4,180256	2,0235	317,0844	0,29	84,97	0	1016,6	7	9,1	8,8	1	1	1	1	1	1	1	1	1	0	1	-7,047216	274,257298	313,739098	0
15.01.2021	19:15:16	0	0	3,615356	2,0895	302,0508	0,289	84,97	0	1016,76	6,9	9	8,8	1	1	1	1	1	1	1	1	1	0	1	-8,668076	274,19571	311,830187	0
15.01.2021	19:15:17	0	0	4,632203	2,1165	299,358	0,286	84,968	0	1016,72	6,9	9,1	8,7	1	1	1	1	1	1	1	1	1	0	1	-9,020437	274,325122	312,083319	0
15.01.2021	19:15:18	0	0	3,050475	2,06475	318,4236	0,287	84,953	0	1016,66	7	9,1	8,7	1	1	1	1	1	1	1	1	1	0	1	-5,073996	274,20021	315,445307	0
15.01.2021	19:15:19	0	0	3,276417	1,99575	299,7108	0,286	84,973	0	1016,72	7	9,1	8,8	1	1	1	1	1	1	1	1	1	0	1	-8,174771	274,255794	312,604505	0
15.01.2021	19:15:20	0	0	4,29321	1,99875	328,9212	0,289	84,963	0	1016,68	7	9,1	8,9	1	1	1	1	1	1	1	1	1	0	1	-10,288936	274,185214	310,160259	0
15.01.2021	19:15:21	0	0	4,858135	1,91175	315,8676	0,287	84,971	0	1016,74	6,9	9,1	8,8	1	1	1	1	1	1	1	1	1	0	1	-11,346018	274,328142	309,771877	0
15.01.2021	19:15:22	0	0	3,728336	1,803	322,4952	0,28	84,962	0	1016,74	7	9,1	8,8	1	1	1	1	1	1	1	1	1	0	1	-8,668076	274,19421	311,823176	0
15.01.2021	19:15:23	0	0	4,519168	1,8405	314,7876	0,286	84,956	0	1016,64	7	9,1	8,9	1	1	1	1	1	1	1	1	1	0	1	-12,614517	274,35988	308,652009	0
15.01.2021	19:15:24	0	0	3,389397	1,93725	301,14	0,287	84,974	0	1016,62	7	9,1	8,8	1	1	1	1	1	1	1	1	1	0	1	-6,765328	274,237749	313,929533	0
15.01.2021	19:15:25	0	0	4,745155	2,08275	305,3952	0,288	84,97	0	1016,64	7	9,1	8,8	1	1	1	1	1	1	1	1	1	0	1	-7,82241	274,311538	313,217749	0
15.01.2021	19:15:26	0	0	3,050439	2,14275	297,486	0,286	84,977	0	1016,52	7	9,1	8,9	1	1	1	1	1	1	1	1	1	0	1	-10,288936	274,368958	311,020111	0
15.01.2021	19:15:27	0	0	2,485572	2,121	294,7608	0,288	84,975	0	1016,88	7	9,1	8,7	1	1	1	1	1	1	1	1	1	0	1	-12,966878	274,213715	307,615578	0
15.01.2021	19:15:28	0	0	4,632175	2,16825	298,6344	0,287	84,955	0	1016,54	6,9	9,1	8,8	1	1	1	1	1	1	1	1	1	0	1	-5,355884	274,364419	315,931899	0
15.01.2021	19:15:29	0	0	2,711517	2,24175	291,474	0,288	84,982	0	1016,84	6,9	9,1	8,8	1	1	1	1	1	1	1	1	1	0	1	-5,426357	274,335694	315,7269	0
15.01.2021	19:15:30	0	0	3,728359	2,30025	307,5912	0,286	84,962	0	1016,68	7	9,1	8,7	1	1	1	1	1	1	1	1	1	0	1	-8,668076	274,224226	311,963536	0
15.01.2021	19:15:31	0	0	4,519168	2,33325	292,9824	0,286	84,977	0	1016,62	7	9,1	8,9	1	1	1	1	1	1	1	1	1	0	1	-8,738548	274,31003	312,294548	0
15.01.2021	19:15:32	0	0	2,598537	2,3385	308,1456	0,286	84,976	0	1016,76	7	9,1	8,8	1	1	1	1	1	1	1	1	1	0	1	-6,131078	274,216718	314,465419	0
15.01.2021	19:15:33	0	0	3,841339	2,2905	314,3268	0,289	84,985	0	1016,7	7	9,1	8,7	1	1	1	1	1	1	1	1	1	0	1	-8,668076	274,370471	312,64806	0
15.01.2021	19:15:34	0	0	2,259598	2,36925	299,0196	0,285	84,98	0	1016,66	6,9	9,1	8,8	1	1	1	1	1	1	1	1	1	0	1	-12,755462	274,236246	307,932369	0
15.01.2021	19:15:35	0	0	4,180231	2,41725	309,1896	0,284	84,965	0	1016,72	7	9	8,9	1	1	1	1	1	1	1	1	1	0	1	-8,738548	274,382582	312,634324	0
15.01.2021	19:15:36	0	0	4,406216	2,634	299,4192	0,285	84,98	0	1016,86	7	9,1	8,8	1	1	1	1	1	1	1	1	1	0	1	-11,06413	274,322103	310,025489	0
15.01.2021	19:15:37	0	0	3,276397	2,83275	304,7796	0,286	84,977	0	1016,7	7	9,1	8,9	1	1	1	1	1	1	1	1	1	0	1	-11,346018	274,387126	310,048142	0
15.01.2021	19:15:38	0	0	3,615356	2,90025	305,4096	0,285	84,973	0	1016,64	7	9,1	8,8	1	1	1	1	1	1	1	1	1	0	1	-13,319239	274,31003	307,713857	0
15.01.2021	19:15:39	0	0	2,824497	3,003	305,3412	0,29	84,993	0	1016,7	7	9,1	8,8	1	1	1	1	1	1	1	1	1	0	1	-6,553911	274,252785	314,211289	0
15.01.2021	19:15:40	0	0	3,163437	2,91675	305,8272	0,288	84,978	0	1016,48	7	9,1	8,8	1	1	1	1	1	1	1	1	1	0	1	-12,614517	274,20021	307,904785	0
15.01.2021	19:15:41	0	0	4,632203	2,8725	309,9456	0,287	84,98	0	1016,78	7	9,1	8,7	1	1	1	1	1	1	1	1	1	0	1	-9,231853	274,334184	311,91433	0
15.01.2021	19:15:42	0	0	3,050457	3,1515	315,5472	0,284	84,984	0	1016,66	7	9,1	8,8	1	1	1	1	1	1	1	1	1	0	1	-9,161381	274,376526	312,183118	0
15.01.2021	19:15:43	0	0	3,728336	3,13425	338,7132	0,289	84,97	0	1016,72	7	9,1	8,8	1	1	1	1	1	1	1	1	1	0	1	-9,020437	274,34476	312,175276	0
15.01.2021	19:15:44	0	0	3,728336	2,8275	322,2036	0,284	84,975	0	1016,72	6,9	9,1	8,8	1	1	1	1	1	1	1	1	1	0	1	-9,513742	274,379554	311,844942	0
15.01.2021	19:15:45	0	0	4,745184	2,5095	332,0604	0,284	84,977	0	1016,56	7	9,1	8,7	1	1	1	1	1	1	1	1	1	0	1	-11,698379	274,297964	309,278238	0
15.01.2021	19:15:46	0	0	3,163437	2,2095	323,3772	0,283	84,982	0	1016,7	7	9,1	8,8	1	1	1	1	1	1	1	1	1	0	1	-7,329105	274,19571	313,169158	0
15.01.2021	19:15:47	0	0	3,954296	2,03325	325,0908	0,287	84,991	0	1016,72	7	9,1	8,8	1	1	1	1	1	1	1	1	1	0	1	-7,82241	274,27988	313,069568	0
15.01.2021	19:15:48	0	0	3,050439	1,80375	307,5372	0,286	84,989	0	1016,64	7	9,1	8,9	1	1	1	1	1	1	1	1	1	0	1	-9,725159	274,188213	310,738053	0
15.01.2021	19:15:49	0	0	3,502376	1,83075	304,6536	0,286	84,98	0	1016,76	7	9,1	8,8	1	1	1	1	1	1	1	1	1	0	1	-8,245243	274,249777	312,505884	0
15.01.2021	19:15:50	0	0	4,632175	1,8495	312,5232	0,288	84,995	0	1016,6	7	9,1	8,8	1	1	1	1	1	1	1	1	1	0	1	-8,80902	274,362906	312,471677	0
15.01.2021	19:15:51	0	0	2,824497	2,043	296,7948	0,283	84,989	0	1016,8	7	9,1	8,8	1	1	1	1	1	1	1	1	1	0	1	-12,755462	274,355343	308,489814	0
15.01.2021	19:15:52	0	0	4,519195	2,16825	326,0268	0,286	84,999	0	1016,76	7	9,1	8,8	1	1	1	1	1	1	1	1	1	0	1	-12,332629	274,340227	308,841853	0
15.01.2021	19:15:53	0	0	2,937477	2,211	289,9656	0,29	84,984	0	1016,52	7	9,1	8,8	1	1	1	1	1	1	1	1	1	0	1	-14,023961	274,206211	306,523404	0
15.01.2021	19:15:54	0	0	4,406216	2,1195	311,0184	0,287	85,026	0	1017	7	9,1	8,8	1	1	1	1	1	1	1	1	1	0	1	-12,121212	274,331163	309,010826	0
15.01.2021	19:15:55	0	0	4,180256	2,1945	311,3316	0,285	84,996	0	1016,58	7	9,1	8,8	1	1	1	1	1	1	1	1	1	0	1	-9,654686	274,260308	311,145708	0
15.01.2021	19:15:56	0	0	4,180256	2,21775	306,8028	0,286	84,991	0	1016,78	7	9,1	8,8	1	1	1	1	1	1	1	1	1	0	1	-10,077519	274,373498	311,252797	0
15.01.2021	19:15:57	0	0	4,519195	2,16825	309,1536	0,286	84,998	0	1016,78	7	9,1	8,8	1	1	1	1	1	1	1	1	1	0	1	-12,191684	274,303996	308,813167	0
15.01.2021	19:15:58	0	0	4,406216	2,37075	293,7204	0,286	84,994	0	1016,6	7	9,1	8,8	1	1	1	1	1	1	1	1	1	0	1	-16,560958	274,368958	304,748088	0
15.01.2021	19:15:59	0	0	2,937477	2,691	333,54	0,286	84,998	0	1016,62	7	9,1	8,8	1	1	1	1	1	1	1	1	1	0	1	-4,862579	274,248273	315,881512	0
15.01.2021	19:16:00	0	0	2,824497	2,706	305,7768	0,281	85,001	0	1016,72	7	9,1	8,8	1	1	1	1	1	1	1	1	1	0	1	-10,500352	274,387126	310,893808	0
15.01.2021	19:16:01	0	0	3,389417	2,757	313,218	0,283	84,994	0	1016,62	7	9	8,7	1	1	1	1	1	1	1	1	1	0	1	-13,530655	274,246769	307,206401	0
15.01.2021	19:16:02	0	0	4,406216	2,709	311,7888	0,281	84,974	0	1016,56	7	9,1	8,8	1	1	1	1	1	1	1	1	1	0	1	-10,007047	274,352319	311,224064	0
15.01.2021	19:16:03	0	0	2,598537	2,49375	309,2436	0,287	85,004	0	1016,68	7	9,1	8,8	1	1	1	1	1	1	1	1	1	0	1	-6,624383	274,270844	314,225312	0
15.01.2021	19:16:04	0	0	2,711517	2,72025	314,4024	0,282	84,999	0	1016,66	7	9,1	8,8	1	1	1	1	1	1	1	1	1	0	1	-12,614517	274,212214	307,960919	0
15.01.2021	19:16:05	0	0	2,711517	2,7975	324,414	0,289	84,995	0	1016,76	7	9,1	8,8	1	1	1	1	1	1	1	1	1	0	1	-13,107822	274,275361	307,763011	0
15.01.2021	19:16:06	0	0	2,824497	2,72775	311,4972	0,286	84,981	0	1016,66	7	9,1	8,8	1	1	1	1	1	1	1	1	1	0	1	-11,41649	274,375012	309,920917	0
15.01.2021	19:16:07	0	0	4,858135	2,67375	312,1272	0,282	84,99	0	1016,68	7	9,1	8,8	1	1	1	1	1	1	1	1	1	0	1	-10,711769	274,31003	310,321327	0
15.01.2021	19:16:08	0	0	4,632175	2,571	317,8188	0,283	84,997	0	1016,78	6,9	9,1	8,8	1	1	1	1	1	1	1	1	1	0	1	-12,332629	274,37804	309,018963	0
15.01.2021	19:16:09	0	0	4,745155	2,5185	305,0064	0,288	84,981	0	1016,66	7	9,1	8,8	1	1	1	1	1	1	1	1	1	0	1	-10,359408	274,34476	310,836305	0
15.01.2021	19:16:10	0	0	3,276417	2,34375	298,674	0,285	84,978	0	1016,56	7	9,1	8,8	1	1	1	1	1	1	1	1	1	0	1	-11,627907	274,340227	309,546575	0
15.01.2021	19:16:11	0	0	3,841339	2,43675	276,4332	0,282	84,996	0	1016,54	6,9	9,1	8,7	1	1	1	1	1	1	1	1	1	0	1	-8,597604	274,209212	311,963795	0
15.01.2021	19:16:12	0	0	3,050457	2,523	305,3412	0,284	85	0	1016,66	6,9	9,1	8,8	1	1	1	1	1	1	1	1	1	0	1	-9,513742	274,258803	311,279612	0
15.01.2021	19:16:13	0	0	5,084095	2,61675	283,1076	0,284	84,998	0	1016,78	6,9	9,1	8,8	1	1	1	1	1	1	1	1	1	0	1	-3,171247	274,381068	318,194531	0
15.01.2021	19:16:14	0	0	3,728359	2,56125	300,096	0,284	84,998	0	1016,72	7	9,1	8,7	1	1	1	1	1	1	1	1	1	0	1	-8,174771	274,346272	313,02802	0
15.01.2021	19:16:15	0	0	2,82448	2,58375	293,3244	0,284	84,986	0	1016,68	7	9,1	8,9	1	1	1	1	1	1	1	1	1	0	1	-9,231853	274,206211	311,315511	0
15.01.2021	19:16:16	0	0	4,971115	2,55075	303,4296	0,286	84,992	0	1016,74	6,9	9,1	8,8	1	1	1	1	1	1	1	1	1	0	1	-6,765328	274,287413	314,161905	0
15.01.2021	19:16:17	0	0	2,937477	2,3565	288,144	0,288	84,993	0	1016,76	7	9,1	8,8	1	1	1	1	1	1	1	1	1	0	1	-5,778717	274,379554	315,579967	0
15.01.2021	19:16:18	0	0	4,0673	2,27475	286,2324	0,289	84,994	0	1016,72	7	9,1	8,7	1	1	1	1	1	1	1	1	1	0	1	-7,399577	274,34476	313,796136	0
15.01.2021	19:16:19	0	0	3,954296	2,3775	287,7552	0,291	84,997	0	1016,78	7	9,1	8,8	1	1	1	1	1	1	1	1	1	0	1	-8,386187	274,19721	312,119088	0
15.01.2021	19:16:20	0	0	2,711517	2,481	292,6152	0,288	84,992	0	1016,66	7	9,1	8,8	1	1	1	1	1	1	1	1	1	0	1	-10,147992	274,248273	310,5961	0
15.01.2021	19:16:21	0	0	2,711517	2,44875	292,2192	0,288	84,992	0	1016,72	7	9,1	8,8	1	1	1	1	1	1	1	1	1	0	1	-13,883016	274,19871	306,629273	0
15.01.2021	19:16:22	0	0	4,067276	2,38725	301,1832	0,288	84,997	0	1016,48	7	9,1	8,8	1	1	1	1	1	1	1	1	1	0	1	-8,527132	274,19571	311,971132	0
15.01.2021	19:16:23	0	0	4,632175	2,3025	294,1488	0,286	84,998	0	1016,72	7	9,1	8,8	1	1	1	1	1	1	1	1	1	0	1	-5,003524	274,248273	315,740568	0
15.01.2021	19:16:24	0	0	3,954296	2,3265	285,9156	0,287	84,995	0	1016,68	7	9,1	8,8	1	1	1	1	1	1	1	1	1	0	1	-9,584214	274,218219	311,019305	0
15.01.2021	19:16:25	0	0	3,954296	2,37825	312,4404	0,285	84,987	0	1016,76	7	9,1	8,8	1	1	1	1	1	1	1	1	1	0	1	-7,399577	274,358368	313,859865	0
15.01.2021	19:16:26	0	0	2,824497	2,34075	294,732	0,287	84,994	0	1016,66	7	9,1	8,8	1	1	1	1	1	1	1	1	1	0	1	-7,82241	274,365932	313,47246	0
15.01.2021	19:16:27	0	0	2,598537	2,44125	291,24	0,283	84,978	0	1016,66	7	9,1	8,8	1	1	1	1	1	1	1	1	1	0	1	-11,698379	274,365932	309,596491	0
15.01.2021	19:16:28	0	0	2,485558	2,5695	300,4704	0,288	84,996	0	1016,7	7	9,1	8,8	1	1	1	1	1	1	1	1	1	0	1	-12,05074	274,263317	308,763737	0
15.01.2021	19:16:29	0	0	4,632175	2,48175	304,65	0,285	84,987	0	1016,66	7	9,1	8,8	1	1	1	1	1	1	1	1	1	0	1	-5,778717	274,204711	314,76163	0
15.01.2021	19:16:30	0	0	3,954296	2,3625	294,75	0,285	84,988	0	1016,56	7	9,1	8,8	1	1	1	1	1	1	1	1	1	0	1	-12,614517	274,281386	308,284511	0
15.01.2021	19:16:31	0	0	3,954296	2,2005	301,5864	0,288	84,991	0	1016,72	7	9,1	8,8	1	1	1	1	1	1	1	1	1	0	1	-11,980268	274,382582	309,392605	0
15.01.2021	19:16:32	0	0	3,728314	2,11575	277,5636	0,284	85,002	0	1016,8	7	9,1	8,9	1	1	1	1	1	1	1	1	1	0	1	-14,023961	274,240755	306,684963	0
15.01.2021	19:16:33	0	0	4,406216	2,14125	294,4404	0,287	84,99	0	1016,72	7	9,1	8,8	1	1	1	1	1	1	1	1	1	0	1	-12,262156	274,213715	308,320299	0
15.01.2021	19:16:34	0	0	3,728336	2,21175	296,0892	0,284	85,001	0	1016,56	7	9,1	8,8	1	1	1	1	1	1	1	1	1	0	1	-7,470049	274,278374	313,41488	0
15.01.2021	19:16:35	0	0	3,615356	2,25225	296,046	0,28	84,991	0	1016,66	7	9,1	8,8	1	1	1	1	1	1	1	1	1	0	1	-5,496829	274,338716	315,670577	0
15.01.2021	19:16:36	0	0	3,389397	2,2125	291,8736	0,287	85,005	0	1016,7	6,9	9,1	8,8	1	1	1	1	1	1	1	1	1	0	1	-10,359408	274,189712	310,110812	0
15.01.2021	19:16:37	0	0	4,180231	2,37825	304,6392	0,285	84,999	0	1016,6	7	9,1	8,9	1	1	1	1	1	1	1	1	1	0	1	-9,725159	274,319084	311,350325	0
15.01.2021	19:16:38	0	0	2,711534	2,58	287,8236	0,283	84,988	0	1016,72	7	9,1	8,7	1	1	1	1	1	1	1	1	1	0	1	-9,302326	274,19421	311,188926	0
15.01.2021	19:16:39	0	0	4,0673	2,7135	291,9132	0,282	84,999	0	1016,64	7	9,1	8,7	1	1	1	1	1	1	1	1	1	0	1	-12,614517	274,355343	308,630758	0
15.01.2021	19:16:40	0	0	4,632175	2,6865	305,7624	0,286	85,02	0	1016,76	7	9,1	8,8	1	1	1	1	1	1	1	1	1	0	1	-8,104299	274,353831	313,133894	0
15.01.2021	19:16:41	0	0	2,937477	2,6175	299,376	0,288	84,994	0	1016,62	7	9,1	8,8	1	1	1	1	1	1	1	1	1	0	1	-9,44327	274,258803	311,350084	0
15.01.2021	19:16:42	0	0	3,389397	2,631	305,874	0,285	85,005	0	1016,62	7	9,1	8,8	1	1	1	1	1	1	1	1	1	0	1	-6,342495	274,234743	314,338306	0
15.01.2021	19:16:43	0	0	4,745155	2,67225	312,786	0,284	85,006	0	1016,72	7	9	8,8	1	1	1	1	1	1	1	1	1	0	1	-6,694856	274,204711	313,845492	0
15.01.2021	19:16:44	0	0	5,084125	2,6835	315,2052	0,282	84,998	0	1016,66	7	9,1	8,7	1	1	1	1	1	1	1	1	1	0	1	-10,570825	274,287413	310,356408	0
15.01.2021	19:16:45	0	0	2,598537	2,598	305,3664	0,285	85,002	0	1016,5	7	9,1	8,8	1	1	1	1	1	1	1	1	1	0	1	-10,500352	274,381068	310,865426	0
15.01.2021	19:16:46	0	0	3,502376	2,643	301,194	0,286	85,019	0	1017	7	9,1	8,8	1	1	1	1	1	1	1	1	1	0	1	-6,765328	274,325122	314,338428	0
15.01.2021	19:16:47	0	0	4,745184	2,57625	296,4672	0,285	85,005	0	1016,96	7	9,1	8,7	1	1	1	1	1	1	1	1	1	0	1	-9,020437	274,349295	312,196513	0
15.01.2021	19:16:48	0	0	4,858135	2,4795	312,1128	0,285	84,995	0	1016,68	7	9	8,8	1	1	1	1	1	1	1	1	1	0	1	-6,553911	274,362906	314,726786	0
15.01.2021	19:16:49	0	0	2,711517	2,50275	315,6048	0,276	84,991	0	1016,62	7	9,1	8,8	1	1	1	1	1	1	1	1	1	0	1	-9,231853	274,323613	311,864833	0
15.01.2021	19:16:50	0	0	4,067276	2,3865	308,4696	0,287	85,006	0	1016,58	7	9,1	8,8	1	1	1	1	1	1	1	1	1	0	1	-11,486963	274,331163	309,645075	0
15.01.2021	19:16:51	0	0	4,632175	2,0385	297,9144	0,288	85,011	0	1016,8	7	9,1	8,8	1	1	1	1	1	1	1	1	1	0	1	-7,751938	274,375012	313,585469	0
15.01.2021	19:16:52	0	0	2,711517	1,8585	306,4896	0,284	85,014	0	1016,66	6,9	9,1	8,8	1	1	1	1	1	1	1	1	1	0	1	-7,892882	274,260308	312,907512	0
15.01.2021	19:16:53	0	0	4,180231	1,728	321,4908	0,281	84,998	0	1016,56	7	9,1	8,9	1	1	1	1	1	1	1	1	1	0	1	-6,976744	274,185214	313,472451	0
15.01.2021	19:16:54	0	0	5,084095	1,49025	315,5148	0,28	85,001	0	1016,72	6,9	9,1	8,8	1	1	1	1	1	1	1	1	1	0	1	-6,8358	274,303996	314,169051	0
15.01.2021	19:16:55	0	0	2,937477	1,5735	300,1248	0,281	85,009	0	1016,66	7	9,1	8,8	1	1	1	1	1	1	1	1	1	0	1	-7,399577	274,240755	313,309346	0
15.01.2021	19:16:56	0	0	3,954296	2,01225	302,04	0,278	85,008	0	1016,54	7	9,1	8,8	1	1	1	1	1	1	1	1	1	0	1	-9,020437	274,361393	312,253174	0
15.01.2021	19:16:57	0	0	3,728336	2,32275	308,466	0,287	85,013	0	1016,64	7	9,1	8,8	1	1	1	1	1	1	1	1	1	0	1	-8,033827	274,388641	313,367431	0
15.01.2021	19:16:58	0	0	2,485558	2,445	314,352	0,285	84,994	0	1016,54	7	9,1	8,8	1	1	1	1	1	1	1	1	1	0	1	-12,262156	274,230235	308,39756	0
15.01.2021	19:16:59	0	0	2,824497	2,45625	311,7744	0,286	85,021	0	1016,58	7	9,1	8,8	1	1	1	1	1	1	1	1	1	0	1	-6,412967	274,331163	314,719071	0
15.01.2021	19:17:00	0	0	3,615356	2,47425	317,3436	0,282	85,014	0	1016,66	7	9,1	8,8	1	1	1	1	1	1	1	1	1	0	1	-5,84919	274,382582	315,523683	0
15.01.2021	19:17:01	0	0	4,632175	2,55525	321,804	0,284	85,013	0	1016,58	7	9,1	8,8	1	1	1	1	1	1	1	1	1	0	1	-6,765328	274,290427	314,176012	0
15.01.2021	19:17:02	0	0	4,293236	2,56275	320,0148	0,286	85,018	0	1016,8	7	9,1	8,8	1	1	1	1	1	1	1	1	1	0	1	-11,768851	274,376526	309,575647	0
15.01.2021	19:17:03	0	0	5,084095	2,4615	315,1872	0,285	85,027	0	1016,7	7	9,1	8,8	1	1	1	1	1	1	1	1	1	0	1	-6,553911	274,248273	314,19018	0
15.01.2021	19:17:04	0	0	3,615356	2,328	315,8676	0,286	85,013	0	1016,66	7	9,1	8,8	1	1	1	1	1	1	1	1	1	0	1	-5,778717	274,19571	314,719546	0
15.01.2021	19:17:05	0	0	2,598537	2,25375	309,9024	0,29	85,022	0	1016,7	6,9	9,1	8,8	1	1	1	1	1	1	1	1	1	0	1	-9,090909	274,325122	312,012846	0
15.01.2021	19:17:06	0	0	2,824497	2,2365	311,3388	0,279	85,013	0	1016,62	7	9,1	8,8	1	1	1	1	1	1	1	1	1	0	1	-10,42988	274,385611	310,957183	0
15.01.2021	19:17:07	0	0	3,954296	2,26725	301,2084	0,285	85,017	0	1016,54	7	9,1	8,8	1	1	1	1	1	1	1	1	1	0	1	-9,020437	274,353831	312,217756	0
15.01.2021	19:17:08	0	0	2,598537	2,0835	306,4896	0,287	85,024	0	1016,74	7	9	8,8	1	1	1	1	1	1	1	1	1	0	1	-7,681466	274,326632	313,429359	0
15.01.2021	19:17:09	0	0	4,745155	1,89375	304,326	0,288	85,019	0	1016,74	7	9,1	8,8	1	1	1	1	1	1	1	1	1	0	1	-4,792107	274,204711	315,748241	0
15.01.2021	19:17:10	0	0	4,406216	1,81125	298,6812	0,286	85,031	0	1016,64	6,9	9,1	8,8	1	1	1	1	1	1	1	1	1	0	1	-3,382664	274,352319	317,848447	0
15.01.2021	19:17:11	0	0	3,841316	1,7835	293,6196	0,284	85,011	0	1016,72	7	9,1	8,8	1	1	1	1	1	1	1	1	1	0	1	-13,03735	274,358368	308,222092	0
15.01.2021	19:17:12	0	0	2,711517	1,77525	303,4548	0,285	85,018	0	1016,72	7	9,1	8,8	1	1	1	1	1	1	1	1	1	0	1	-10,359408	274,317575	310,70901	0
15.01.2021	19:17:13	0	0	4,858135	1,77	307,5552	0,279	85,022	0	1016,7	7	9,1	8,8	1	1	1	1	1	1	1	1	1	0	1	-6,8358	274,393186	314,586753	0
15.01.2021	19:17:14	0	0	4,293261	1,81425	299,8008	0,281	85,019	0	1016,42	7	9,1	8,7	1	1	1	1	1	1	1	1	1	0	1	-8,949965	274,34476	312,245748	0
15.01.2021	19:17:15	0	0	2,937477	1,7805	306,6768	0,287	85,012	0	1016,64	7	9,1	8,8	1	1	1	1	1	1	1	1	1	0	1	-13,248767	274,376526	308,095732	0
15.01.2021	19:17:16	0	0	3,389397	1,79775	319,8852	0,283	85,022	0	1016,68	7	9	8,8	1	1	1	1	1	1	1	1	1	0	1	-9,020437	274,30098	311,970296	0
15.01.2021	19:17:17	0	0	4,406216	1,9005	315,2412	0,287	85,024	0	1016,6	7	9,1	8,8	1	1	1	1	1	1	1	1	1	0	1	-11,205074	274,37804	310,146517	0
15.01.2021	19:17:18	0	0	4,632175	1,968	308,8152	0,282	85,02	0	1016,76	7	9,1	8,8	1	1	1	1	1	1	1	1	1	0	1	-11,627907	274,287413	309,299326	0
15.01.2021	19:17:19	0	0	2,824497	2,17575	315,2376	0,286	85,018	0	1016,64	7	9,1	8,8	1	1	1	1	1	1	1	1	1	0	1	-6,765328	274,204711	313,77502	0
15.01.2021	19:17:20	0	0	4,293236	2,355	304,9776	0,279	85,016	0	1016,58	7	9,1	8,8	1	1	1	1	1	1	1	1	1	0	1	-10,007047	274,287413	310,920186	0
15.01.2021	19:17:21	0	0	4,519195	2,47575	315,1044	0,287	85,024	0	1016,66	7	9,1	8,8	1	1	1	1	1	1	1	1	1	0	1	-5,990134	274,212214	314,585302	0
15.01.2021	19:17:22	0	0	4,067276	2,5425	305,3808	0,282	85,013	0	1016,88	7	9,1	8,8	1	1	1	1	1	1	1	1	1	0	1	-12,262156	274,323613	308,83453	0
15.01.2021	19:17:23	0	0	2,598537	2,625	297,954	0,282	85,022	0	1016,74	7	9,1	8,8	1	1	1	1	1	1	1	1	1	0	1	-8,033827	274,19571	312,464437	0
15.01.2021	19:17:24	0	0	4,293236	2,7345	290,8368	0,284	85,027	0	1016,66	7	9	8,8	1	1	1	1	1	1	1	1	1	0	1	-6,8358	274,307013	314,183173	0
15.01.2021	19:17:25	0	0	2,485558	2,8305	318,456	0,281	85,012	0	1016,7	7	9,1	8,8	1	1	1	1	1	1	1	1	1	0	1	-4,651163	274,215217	315,938313	0
15.01.2021	19:17:26	0	0	4,406216	2,79975	296,514	0,287	85,022	0	1016,58	7	9,1	8,8	1	1	1	1	1	1	1	1	1	0	1	-10,359408	274,325122	310,744348	0
15.01.2021	19:17:27	0	0	1,920658	2,7555	291,8772	0,284	85,004	0	1016,72	6,9	9,1	8,8	1	1	1	1	1	1	1	1	1	0	1	-9,302326	274,213715	311,28013	0
15.01.2021	19:17:28	0	0	4,858135	2,7405	306,108	0,279	85,01	0	1016,64	7	9	8,8	1	1	1	1	1	1	1	1	1	0	1	-12,966878	274,331163	308,16516	0
15.01.2021	19:17:29	0	0	3,050457	2,68125	297,2988	0,285	85,028	0	1016,56	7	9,1	8,8	1	1	1	1	1	1	1	1	1	0	1	-10,42988	274,337205	310,730451	0
15.01.2021	19:17:30	0	0	2,711517	2,6025	304,6176	0,285	85,026	0	1016,64	7	9,1	8,8	1	1	1	1	1	1	1	1	1	0	1	-10,711769	274,227231	309,933894	0
15.01.2021	19:17:31	0	0	2,259598	2,57775	302,8284	0,287	85,013	0	1016,52	7	9,1	8,8	1	1	1	1	1	1	1	1	1	0	1	-8,315715	274,361393	312,957896	0
15.01.2021	19:17:32	0	0	3,502376	2,51775	307,2276	0,284	85,027	0	1016,66	7	9,1	8,8	1	1	1	1	1	1	1	1	1	0	1	-9,866103	274,355343	311,379172	0
15.01.2021	19:17:33	0	0	4,971115	2,45625	303,894	0,287	85,022	0	1016,66	7	9,1	8,8	1	1	1	1	1	1	1	1	1	0	1	-9,725159	274,322103	311,36446	0
15.01.2021	19:17:34	0	0	4,067276	2,4045	290,8008	0,288	85,011	0	1016,6	7	9,1	8,8	1	1	1	1	1	1	1	1	1	0	1	-10,993658	274,192711	309,490583	0
15.01.2021	19:17:35	0	0	3,502376	2,42025	293,3352	0,286	85,026	0	1016,62	7	9,1	8,8	1	1	1	1	1	1	1	1	1	0	1	-4,721635	274,251281	316,036528	0
15.01.2021	19:17:36	0	0	2,711517	2,43	283,6152	0,288	85,055	0	1016,9	7	9	8,8	1	1	1	1	1	1	1	1	1	0	1	-5,426357	274,19871	315,085932	0
15.01.2021	19:17:37	0	0	2,824497	2,42475	286,974	0,284	85	0	1016,64	7	9	8,8	1	1	1	1	1	1	1	1	1	0	1	-6,483439	274,320593	314,599112	0
15.01.2021	19:17:38	0	0	4,519195	2,4525	284,0148	0,278	85,014	0	1016,76	7	9	8,8	1	1	1	1	1	1	1	1	1	0	1	-8,174771	274,385611	313,212293	0
15.01.2021	19:17:39	0	0	3,389397	2,3685	287,3628	0,28	85,02	0	1016,6	7	9,1	8,8	1	1	1	1	1	1	1	1	1	0	1	-9,231853	274,361393	312,041758	0
15.01.2021	19:17:40	0	0	3,163437	2,2995	283,5972	0,287	85,036	0	1016,74	7	9,1	8,8	1	1	1	1	1	1	1	1	1	0	1	-14,164905	274,192711	306,319336	0
15.01.2021	19:17:41	0	0	4,519195	2,20425	279,8496	0,276	85,018	0	1016,54	7	9,1	8,8	1	1	1	1	1	1	1	1	1	0	1	-7,963354	274,311538	313,076805	0
15.01.2021	19:17:42	0	0	2,937477	2,21325	294,7572	0,283	85,028	0	1016,72	7	9,1	8,8	1	1	1	1	1	1	1	1	1	0	1	-9,866103	274,19871	310,646186	0
15.01.2021	19:17:43	0	0	2,937477	2,436	292,9788	0,281	85,019	0	1016,78	7	9	8,8	1	1	1	1	1	1	1	1	1	0	1	-7,399577	274,297964	313,57704	0
15.01.2021	19:17:44	0	0	3,615356	2,6055	285,2352	0,284	85,035	0	1016,66	7	9,1	8,8	1	1	1	1	1	1	1	1	1	0	1	-9,090909	274,379554	312,267775	0
15.01.2021	19:17:45	0	0	4,406216	2,7435	288,4608	0,281	85,034	0	1016,72	7	9,1	8,8	1	1	1	1	1	1	1	1	1	0	1	-10,993658	274,269338	309,848993	0
15.01.2021	19:17:46	0	0	3,502376	2,8695	280,5876	0,279	85,033	0	1016,48	7	9,1	8,8	1	1	1	1	1	1	1	1	1	0	1	-7,82241	274,356855	313,429948	0
15.01.2021	19:17:47	0	0	3,954296	2,90325	286,9596	0,287	85,03	0	1016,8	7	9,1	8,8	1	1	1	1	1	1	1	1	1	0	1	-10,288936	274,19871	310,223353	0
15.01.2021	19:17:48	0	0	2,824497	2,75025	291,1428	0,283	85,024	0	1016,68	7	9,1	8,8	1	1	1	1	1	1	1	1	1	0	1	-8,174771	274,267833	312,660835	0
15.01.2021	19:17:49	0	0	4,745155	2,64375	287,7552	0,288	85,027	0	1016,6	7	9,1	8,8	1	1	1	1	1	1	1	1	1	0	1	-7,82241	274,373498	313,507906	0
15.01.2021	19:17:50	0	0	4,858135	2,59425	296,1	0,288	85,039	0	1016,64	7	9,1	8,8	1	1	1	1	1	1	1	1	1	0	1	-9,795631	274,230235	310,864085	0
15.01.2021	19:17:51	0	0	4,180256	2,64225	290,052	0,287	85,039	0	1016,6	7	9,1	8,8	1	1	1	1	1	1	1	1	1	0	1	-7,329105	274,254289	313,443133	0
15.01.2021	19:17:52	0	0	2,711517	2,6235	283,05	0,28	85,04	0	1016,78	7	9,1	8,8	1	1	1	1	1	1	1	1	1	0	1	-7,540521	274,384097	313,839446	0
15.01.2021	19:17:53	0	0	2,937477	2,48475	279,5004	0,288	85,026	0	1016,52	7	9,1	8,8	1	1	1	1	1	1	1	1	1	0	1	-8,527132	274,291934	312,421262	0
15.01.2021	19:17:54	0	0	3,389397	2,30625	282,816	0,287	85,038	0	1016,72	7	9,1	8,8	1	1	1	1	1	1	1	1	1	0	1	-11,627907	274,371985	309,695319	0
15.01.2021	19:17:55	0	0	4,293236	2,19825	284,814	0,277	85,039	0	1016,62	7	9,1	8,8	1	1	1	1	1	1	1	1	1	0	1	-7,399577	274,267833	313,436029	0
15.01.2021	19:17:56	0	0	3,050457	2,27325	274,6368	0,28	85,031	0	1016,72	7	9,1	8,8	1	1	1	1	1	1	1	1	1	0	1	-9,936575	274,20321	310,596757	0
15.01.2021	19:17:57	0	0	3,502376	2,25375	290,0808	0,283	85,03	0	1016,66	7	9,1	8,8	1	1	1	1	1	1	1	1	1	0	1	-7,681466	274,248273	313,062625	0
15.01.2021	19:17:58	0	0	3,050457	2,1795	300,9096	0,286	85,029	0	1016,74	7	9,1	8,8	1	1	1	1	1	1	1	1	1	0	1	-7,751938	274,381068	313,61384	0
15.01.2021	19:17:59	0	0	4,632175	2,109	318,5316	0,284	85,04	0	1016,72	7	9,1	8,8	1	1	1	1	1	1	1	1	1	0	1	-6,765328	274,341738	314,41623	0
15.01.2021	19:18:00	0	0	4,293236	2,007	300,87	0,286	85,036	0	1016,62	7	9,1	8,8	1	1	1	1	1	1	1	1	1	0	1	-11,627907	274,20021	308,891396	0
15.01.2021	19:18:01	0	0	4,745155	2,019	300,4524	0,282	85,042	0	1016,68	7	9,1	8,8	1	1	1	1	1	1	1	1	1	0	1	-12,121212	274,249777	308,629915	0
15.01.2021	19:18:02	0	0	2,259598	2,02125	298,26	0,285	85,033	0	1016,58	7	9,1	8,8	1	1	1	1	1	1	1	1	1	0	1	-5,003524	274,19421	315,487728	0
15.01.2021	19:18:03	0	0	4,406216	2,0235	297,9432	0,283	85,05	0	1016,64	7	9,1	8,8	1	1	1	1	1	1	1	1	1	0	1	-8,315715	274,329652	312,809251	0
15.01.2021	19:18:04	0	0	3,728336	1,98975	311,454	0,282	85,045	0	1016,7	7	9,1	8,8	1	1	1	1	1	1	1	1	1	0	1	-5,003524	274,206211	315,543841	0
15.01.2021	19:18:05	0	0	3,841316	1,89825	296,82	0,284	85,039	0	1016,76	7	9	8,8	1	1	1	1	1	1	1	1	1	0	1	-8,879493	274,242259	311,836463	0
15.01.2021	19:18:06	0	0	4,293236	1,806	308,0448	0,29	85,047	0	1016,68	7	9,1	8,8	1	1	1	1	1	1	1	1	1	0	1	-7,470049	274,382582	313,902823	0
15.01.2021	19:18:07	0	0	4,745155	1,78125	303,9768	0,281	85,049	0	1016,58	7	9,1	8,8	1	1	1	1	1	1	1	1	1	0	1	-8,80902	274,340227	312,365461	0
15.01.2021	19:18:08	0	0	3,728336	1,8255	305,3484	0,279	85,049	0	1016,7	7	9,1	8,8	1	1	1	1	1	1	1	1	1	0	1	-11,627907	274,355343	309,617368	0
15.01.2021	19:18:09	0	0	2,372578	1,824	300,7116	0,283	85,033	0	1016,52	7	9,1	8,8	1	1	1	1	1	1	1	1	1	0	1	-7,610994	274,243762	313,111995	0
15.01.2021	19:18:10	0	0	5,197075	1,7745	285,5808	0,285	85,055	0	1016,66	7	9,1	8,8	1	1	1	1	1	1	1	1	1	0	1	-11,627907	274,371985	309,695319	0
15.01.2021	19:18:11	0	0	4,519195	1,71525	286,9452	0,282	85,051	0	1016,72	7	9,1	8,8	1	1	1	1	1	1	1	1	1	0	1	-10,007047	274,246769	310,730009	0
15.01.2021	19:18:12	0	0	5,084095	1,70775	278,0496	0,286	85,036	0	1016,52	7	9,1	8,8	1	1	1	1	1	1	1	1	1	0	1	-6,20155	274,375012	315,135857	0
15.01.2021	19:18:13	0	0	3,728336	1,64775	289,5948	0,282	85,045	0	1016,72	7	9	8,8	1	1	1	1	1	1	1	1	1	0	1	-9,584214	274,251281	311,173949	0
15.01.2021	19:18:14	0	0	1,920658	1,6695	297,4824	0,284	85,048	0	1016,78	7	9,1	8,8	1	1	1	1	1	1	1	1	1	0	1	-10,007047	274,210713	310,56137	0
15.01.2021	19:18:15	0	0	4,632175	1,8165	292,158	0,28	85,05	0	1016,7	7	9	8,8	1	1	1	1	1	1	1	1	1	0	1	-12,05074	274,376526	309,293759	0
15.01.2021	19:18:16	0	0	3,954296	2,04675	302,0184	0,284	85,041	0	1016,7	7	9,1	8,8	1	1	1	1	1	1	1	1	1	0	1	-11,557435	274,273855	309,306352	0
15.01.2021	19:18:17	0	0	3,954296	2,136	293,328	0,279	85,049	0	1016,6	7	9	8,8	1	1	1	1	1	1	1	1	1	0	1	-7,047216	274,37804	314,304375	0
15.01.2021	19:18:18	0	0	2,485558	2,3085	294,3936	0,277	85,065	0	1016,68	7	9,1	8,8	1	1	1	1	1	1	1	1	1	0	1	-11,980268	274,387126	309,413892	0
15.01.2021	19:18:19	0	0	4,180256	2,406	294,8184	0,283	85,053	0	1016,7	7	9,1	8,8	1	1	1	1	1	1	1	1	1	0	1	-9,44327	274,323613	311,653417	0
15.01.2021	19:18:20	0	0	4,519195	2,3475	279,54	0,28	85,042	0	1016,7	7	9,1	8,8	1	1	1	1	1	1	1	1	1	0	1	-6,060606	274,367445	315,241352	0
15.01.2021	19:18:21	0	0	3,163437	2,2815	285,4872	0,283	85,055	0	1016,58	7	9	8,8	1	1	1	1	1	1	1	1	1	0	1	-8,386187	274,240755	312,322736	0
15.01.2021	19:18:22	0	0	3,050457	2,20875	298,0044	0,282	85,053	0	1016,72	7	9,1	8,8	1	1	1	1	1	1	1	1	1	0	1	-10,500352	274,20321	310,03298	0
15.01.2021	19:18:23	0	0	4,971115	2,1195	292,2192	0,279	85,046	0	1016,66	7	9,1	8,8	1	1	1	1	1	1	1	1	1	0	1	-11,768851	274,322103	309,320767	0
15.01.2021	19:18:24	0	0	4,519195	1,97475	287,7696	0,282	85,07	0	1016,76	7	9,1	8,8	1	1	1	1	1	1	1	1	1	0	1	-14,587738	274,20321	305,945594	0
15.01.2021	19:18:25	0	0	2,824497	1,8735	294,0984	0,287	85,07	0	1016,7	7	9,1	8,8	1	1	1	1	1	1	1	1	1	0	1	-14,094433	274,350807	307,129597	0
15.01.2021	19:18:26	0	0	3,615356	1,84725	288,0864	0,285	85,061	0	1016,72	7	9,1	8,8	1	1	1	1	1	1	1	1	1	0	1	-7,540521	274,207712	313,01386	0
15.01.2021	19:18:27	0	0	4,632175	1,79625	289,5372	0,28	85,051	0	1016,58	7	9	8,8	1	1	1	1	1	1	1	1	1	0	1	-9,725159	274,260308	311,075236	0
15.01.2021	19:18:28	0	0	2,485558	1,8	285,8364	0,282	85,063	0	1016,62	7	9,1	8,8	1	1	1	1	1	1	1	1	1	0	1	-11,557435	274,385611	309,829629	0
15.01.2021	19:18:29	0	0	2,711517	1,91925	295,1352	0,285	85,063	0	1016,66	7	9,1	8,8	1	1	1	1	1	1	1	1	1	0	1	-7,470049	274,290427	313,47129	0
15.01.2021	19:18:30	0	0	2,937477	1,9185	291,4776	0,288	85,069	0	1016,68	7	9,1	8,8	1	1	1	1	1	1	1	1	1	0	1	-5,637773	274,206211	314,909591	0
15.01.2021	19:18:31	0	0	4,858135	1,8165	287,7012	0,285	85,061	0	1016,76	7	9,1	8,8	1	1	1	1	1	1	1	1	1	0	1	-9,936575	274,252785	310,828625	0
15.01.2021	19:18:32	0	0	2,937477	1,6845	299,1312	0,285	85,058	0	1016,74	7	9,1	8,8	1	1	1	1	1	1	1	1	1	0	1	-8,315715	274,19721	312,189561	0
15.01.2021	19:18:33	0	0	3,841316	1,698	291,636	0,279	85,063	0	1016,62	7	9,1	8,8	1	1	1	1	1	1	1	1	1	0	1	-7,82241	274,212214	312,753026	0
15.01.2021	19:18:34	0	0	4,406216	1,59	314,0208	0,28	85,054	0	1016,7	7	9,1	8,8	1	1	1	1	1	1	1	1	1	0	1	-11,486963	274,362906	309,793734	0
15.01.2021	19:18:35	0	0	4,858135	1,49775	288,4248	0,285	85,057	0	1016,66	7	9,1	8,8	1	1	1	1	1	1	1	1	1	0	1	-8,245243	274,219721	312,365298	0
15.01.2021	19:18:36	0	0	4,519195	1,422	299,052	0,282	85,056	0	1016,68	7	9	8,8	1	1	1	1	1	1	1	1	1	0	1	-8,80902	274,368958	312,500026	0
15.01.2021	19:18:37	0	0	2,372578	1,37925	302,8284	0,277	85,043	0	1016,68	6,8	9,1	8,8	1	1	1	1	1	1	1	1	1	0	1	-9,654686	274,368958	311,65436	0
15.01.2021	19:18:38	0	0	2,824497	1,40775	296,7624	0,282	85,064	0	1016,62	7	9	8,8	1	1	1	1	1	1	1	1	1	0	1	-11,980268	274,239252	308,721624	0
15.01.2021	19:18:39	0	0	2,711517	1,40775	300,4848	0,282	85,059	0	1016,64	7	9,1	8,8	1	1	1	1	1	1	1	1	1	0	1	-7,470049	274,213715	313,112407	0
15.01.2021	19:18:40	0	0	3,276417	1,46325	291,1968	0,281	85,063	0	1016,78	7	9	8,8	1	1	1	1	1	1	1	1	1	0	1	-7,892882	274,329652	313,232084	0
15.01.2021	19:18:41	0	0	4,745155	1,635	316,6452	0,284	85,074	0	1016,72	7	9,1	8,8	1	1	1	1	1	1	1	1	1	0	1	-10,570825	274,35988	310,695702	0
15.01.2021	19:18:42	0	0	4,067276	1,7565	288,0324	0,28	85,061	0	1016,72	7	9	8,8	1	1	1	1	1	1	1	1	1	0	1	-10,923185	274,278374	309,961744	0
15.01.2021	19:18:43	0	0	3,389397	1,824	301,5396	0,284	85,067	0	1016,64	7	9	8,8	1	1	1	1	1	1	1	1	1	0	1	-6,765328	274,186713	313,690875	0
15.01.2021	19:18:44	0	0	4,745155	1,8645	306,036	0,286	85,052	0	1016,68	7	9	8,8	1	1	1	1	1	1	1	1	1	0	1	-6,624383	274,352319	314,606728	0
15.01.2021	19:18:45	0	0	4,745155	1,92375	292,5864	0,282	85,062	0	1016,8	7	9,1	8,8	1	1	1	1	1	1	1	1	1	0	1	-9,725159	274,373498	311,605157	0
15.01.2021	19:18:46	0	0	4,067276	2,18025	314,3592	0,285	85,057	0	1016,74	7	9,1	8,8	1	1	1	1	1	1	1	1	1	0	1	-8,245243	274,266328	312,583319	0
15.01.2021	19:18:47	0	0	4,971115	2,3295	296,0568	0,279	85,046	0	1016,62	6,8	9,1	8,8	1	1	1	1	1	1	1	1	1	0	1	-7,399577	274,192711	313,084663	0
15.01.2021	19:18:48	0	0	3,841316	2,31375	306,0864	0,284	85,049	0	1016,62	7	9,1	8,8	1	1	1	1	1	1	1	1	1	0	1	-11,486963	274,317575	309,581455	0
15.01.2021	19:18:49	0	0	3,389397	2,2965	295,1676	0,278	85,054	0	1016,76	7	9,1	8,8	1	1	1	1	1	1	1	1	1	0	1	-7,681466	274,337205	313,478865	0
15.01.2021	19:18:50	0	0	3,163437	2,292	287,6904	0,283	85,056	0	1016,52	7	9	8,8	1	1	1	1	1	1	1	1	1	0	1	-6,624383	274,261812	314,183052	0
15.01.2021	19:18:51	0	0	4,067276	2,28075	309,4452	0,287	85,063	0	1016,78	7	9	8,8	1	1	1	1	1	1	1	1	1	0	1	-8,879493	274,382582	312,49338	0
15.01.2021	19:18:52	0	0	3,841316	2,1825	296,0568	0,279	85,051	0	1016,62	7	9,1	8,8	1	1	1	1	1	1	1	1	1	0	1	-9,372798	274,361393	311,900814	0
15.01.2021	19:18:53	0	0	4,971115	2,11725	296,0928	0,277	85,055	0	1016,62	6,8	9,1	8,8	1	1	1	1	1	1	1	1	1	0	1	-8,174771	274,303996	312,83008	0
15.01.2021	19:18:54	0	0	4,406216	1,992	303,1452	0,283	85,064	0	1016,68	7	9	8,8	1	1	1	1	1	1	1	1	1	0	1	-5,567301	274,379554	315,791383	0
15.01.2021	19:18:55	0	0	3,050457	1,91775	302,0544	0,284	85,064	0	1016,72	7	9	8,8	1	1	1	1	1	1	1	1	1	0	1	-6,694856	274,381068	314,670923	0
15.01.2021	19:18:56	0	0	2,937477	1,84275	299,7648	0,278	85,057	0	1016,6	7	9,1	8,8	1	1	1	1	1	1	1	1	1	0	1	-6,20155	274,230235	314,458166	0
15.01.2021	19:18:57	0	0	3,728336	1,8285	290,8872	0,285	85,073	0	1016,76	7	9	8,8	1	1	1	1	1	1	1	1	1	0	1	-5,778717	274,239252	314,923174	0
15.01.2021	19:18:58	0	0	4,293236	1,9185	306,1512	0,284	85,052	0	1016,56	7	9	8,8	1	1	1	1	1	1	1	1	1	0	1	-5,919662	274,373498	315,410654	0
15.01.2021	19:18:59	0	0	3,728336	2,07	300,4668	0,282	85,063	0	1016,82	7	9	8,8	1	1	1	1	1	1	1	1	1	0	1	-10,782241	274,255794	309,997035	0
15.01.2021	19:19:00	0	0	4,293236	2,2155	299,8872	0,276	85,058	0	1016,62	7	9	8,8	1	1	1	1	1	1	1	1	1	0	1	-13,460183	274,371985	307,863042	0
15.01.2021	19:19:01	0	0	4,293236	2,2155	299,8872	0,276	85,058	0	1016,62	7	9	8,8	1	1	1	1	1	1	1	1	1	0	1	-11,698379	274,246769	309,038677	0
15.01.2021	19:19:02	0	0	4,745155	2,19675	292,554	0,282	85,054	0	1016,72	7	9,1	8,8	1	1	1	1	1	1	1	1	1	0	1	-8,033827	274,375012	313,30358	0
15.01.2021	19:19:03	0	0	3,050457	2,12325	295,4808	0,274	85,058	0	1016,6	6,8	9,1	8,8	1	1	1	1	1	1	1	1	1	0	1	-12,191684	274,305504	308,820227	0
15.01.2021	19:19:04	0	0	2,824497	2,055	286,9992	0,283	85,06	0	1016,74	7	9,1	8,8	1	1	1	1	1	1	1	1	1	0	1	-12,755462	274,204711	307,784886	0
15.01.2021	19:19:05	0	0	2,937477	1,9155	305,712	0,281	85,053	0	1016,8	7	9,1	8,8	1	1	1	1	1	1	1	1	1	0	1	-11,205074	274,245266	309,524948	0
15.01.2021	19:19:06	0	0	2,937477	1,79175	306,2232	0,283	85,059	0	1016,72	7	9	8,8	1	1	1	1	1	1	1	1	1	0	1	-6,553911	274,325122	314,549844	0
15.01.2021	19:19:07	0	0	4,632175	1,7625	291,1788	0,284	85,067	0	1016,66	7	9	8,8	1	1	1	1	1	1	1	1	1	0	1	-9,231853	274,213715	311,350602	0
15.01.2021	19:19:08	0	0	4,632175	1,8495	308,4912	0,283	85,06	0	1016,68	7	9	8,8	1	1	1	1	1	1	1	1	1	0	1	-8,315715	274,257298	312,4706	0
15.01.2021	19:19:09	0	0	2,598537	1,89825	307,1664	0,28	85,044	0	1016,98	7	9	8,8	1	1	1	1	1	1	1	1	1	0	1	-5,778717	274,19571	314,719546	0
15.01.2021	19:19:10	0	0	4,067276	1,9305	308,52	0,282	85,048	0	1016,54	7	9,1	8,8	1	1	1	1	1	1	1	1	1	0	1	-8,104299	274,258803	312,689056	0
15.01.2021	19:19:11	0	0	4,406216	1,95225	313,2828	0,276	85,049	0	1016,62	6,8	9	8,8	1	1	1	1	1	1	1	1	1	0	1	-11,839323	274,393186	309,583229	0
15.01.2021	19:19:12	0	0	2,711517	2,0175	331,092	0,278	85,056	0	1016,7	7	9,1	8,8	1	1	1	1	1	1	1	1	1	0	1	-6,976744	274,34476	314,218969	0
15.01.2021	19:19:13	0	0	3,163437	2,0295	323,2728	0,279	85,038	0	1016,72	7	9	8,8	1	1	1	1	1	1	1	1	1	0	1	-4,439746	274,20171	316,086571	0
15.01.2021	19:19:14	0	0	3,050457	2,037	311,7636	0,279	85,057	0	1016,74	7	9,1	8,8	1	1	1	1	1	1	1	1	1	0	1	-12,05074	274,322103	309,038878	0
15.01.2021	19:19:15	0	0	4,067276	2,08725	307,1916	0,28	85,059	0	1016,64	7	9,1	8,8	1	1	1	1	1	1	1	1	1	0	1	-2,184637	274,212214	318,390799	0
15.01.2021	19:19:16	0	0	3,954296	2,055	308,1564	0,282	85,062	0	1016,72	7	9	8,8	1	1	1	1	1	1	1	1	1	0	1	-8,245243	274,307013	312,773729	0
15.01.2021	19:19:17	0	0	3,728336	2,04525	302,7672	0,278	85,036	0	1016,58	7	9	8,8	1	1	1	1	1	1	1	1	1	0	1	-9,372798	274,365932	311,922073	0
15.01.2021	19:19:18	0	0	5,084095	1,9935	308,4264	0,282	85,052	0	1016,56	7	9	8,8	1	1	1	1	1	1	1	1	1	0	1	-11,627907	274,361393	309,645704	0
15.01.2021	19:19:19	0	0	3,954296	1,92525	299,4516	0,277	85,064	0	1016,64	7	9	8,8	1	1	1	1	1	1	1	1	1	0	1	-9,584214	274,20171	310,942103	0
15.01.2021	19:19:20	0	0	5,197075	1,79325	308,8404	0,275	85,049	0	1016,66	7	9,1	8,8	1	1	1	1	1	1	1	1	1	0	1	-6,553911	274,346272	314,64888	0
15.01.2021	19:19:21	0	0	2,485558	1,75575	305,3412	0,277	85,048	0	1016,68	7	9,1	8,8	1	1	1	1	1	1	1	1	1	0	1	-9,513742	274,328142	311,604153	0
15.01.2021	19:19:22	0	0	4,519195	1,89975	294,0984	0,282	85,062	0	1016,7	7	9	8,8	1	1	1	1	1	1	1	1	1	0	1	-8,386187	274,382582	312,986685	0
15.01.2021	19:19:23	0	0	4,293236	1,8765	305,2728	0,28	85,051	0	1016,54	7	9	8,8	1	1	1	1	1	1	1	1	1	0	1	-10,923185	274,231738	309,743558	0
15.01.2021	19:19:24	0	0	2,937477	1,761	302,4396	0,28	85,057	0	1016,74	7	9,1	8,8	1	1	1	1	1	1	1	1	1	0	1	-10,570825	274,189712	309,899396	0
15.01.2021	19:19:25	0	0	4,406216	1,59675	300,438	0,282	85,066	0	1016,66	7	9,1	8,8	1	1	1	1	1	1	1	1	1	0	1	-9,302326	274,371985	312,0209	0
15.01.2021	19:19:26	0	0	4,293236	1,5465	305,7264	0,274	85,059	0	1016,7	6,8	9	8,8	1	1	1	1	1	1	1	1	1	0	1	-8,597604	274,373498	312,732712	0
15.01.2021	19:19:27	0	0	4,971115	1,53675	304,1928	0,28	85,047	0	1016,76	7	9,1	8,8	1	1	1	1	1	1	1	1	1	0	1	-5,708245	274,319084	315,367239	0
15.01.2021	19:19:28	0	0	1,920658	1,593	297,8964	0,278	85,05	0	1016,68	7	9,1	8,8	1	1	1	1	1	1	1	1	1	0	1	-12,05074	274,381068	309,315038	0
15.01.2021	19:19:29	0	0	3,954296	1,698	298,2564	0,283	85,058	0	1016,56	7	9	8,8	1	1	1	1	1	1	1	1	1	0	1	-9,302326	274,317575	311,766092	0
15.01.2021	19:19:30	0	0	2,598537	1,857	297,8892	0,283	85,044	0	1016,72	7	9	8,8	1	1	1	1	1	1	1	1	1	0	1	-9,936575	274,381068	311,429203	0
15.01.2021	19:19:31	0	0	4,745155	1,98975	301,266	0,28	85,05	0	1016,7	7	9,1	8,8	1	1	1	1	1	1	1	1	1	0	1	-9,44327	274,290427	311,498069	0
15.01.2021	19:19:32	0	0	5,197075	2,07375	298,6812	0,283	85,062	0	1016,82	7	9,1	8,8	1	1	1	1	1	1	1	1	1	0	1	-10,42988	274,376526	310,914619	0
15.01.2021	19:19:33	0	0	3,502376	2,1555	290,3796	0,279	85,044	0	1016,68	7	9,1	8,8	1	1	1	1	1	1	1	1	1	0	1	-9,936575	274,299472	311,0471	0
15.01.2021	19:19:34	0	0	4,632175	2,205	307,9692	0,28	85,058	0	1016,62	7	9,1	8,8	1	1	1	1	1	1	1	1	1	0	1	-11,06413	274,375012	310,273277	0
15.01.2021	19:19:35	0	0	3,163437	2,29425	307,5408	0,275	85,052	0	1016,78	7	9,1	8,8	1	1	1	1	1	1	1	1	1	0	1	-7,188161	274,337205	313,972171	0
15.01.2021	19:19:36	0	0	4,632175	2,37375	304,9308	0,281	85,062	0	1016,84	7	9	8,8	1	1	1	1	1	1	1	1	1	0	1	-6,342495	274,358368	314,916947	0
15.01.2021	19:19:37	0	0	3,502376	2,679	289,5156	0,281	85,044	0	1016,54	7	9	8,8	1	1	1	1	1	1	1	1	1	0	1	-9,090909	274,188213	311,372302	0
15.01.2021	19:19:38	0	0	3,276417	2,862	289,1952	0,276	85,055	0	1016,72	7	9	8,8	1	1	1	1	1	1	1	1	1	0	1	-9,795631	274,269338	311,047019	0
15.01.2021	19:19:39	0	0	5,197075	3,1065	305,3196	0,281	85,039	0	1016,56	7	9	8,8	1	1	1	1	1	1	1	1	1	0	1	-6,483439	274,367445	314,818519	0
15.01.2021	19:19:40	0	0	2,824497	3,27675	300,8376	0,28	85,065	0	1016,82	7	9	8,8	1	1	1	1	1	1	1	1	1	0	1	-7,82241	274,240755	312,886513	0
15.01.2021	19:19:41	0	0	3,050457	3,26325	313,2468	0,282	85,058	0	1016,86	7	9	8,8	1	1	1	1	1	1	1	1	1	0	1	-12,121212	274,188213	308,341999	0
15.01.2021	19:19:42	0	0	4,632175	3,0825	312,2244	0,28	85,073	0	1016,84	7	9,1	8,8	1	1	1	1	1	1	1	1	1	0	1	-12,332629	274,393186	309,089924	0
15.01.2021	19:19:43	0	0	2,485558	3,144	313,2504	0,278	85,05	0	1016,6	7	9,1	8,8	1	1	1	1	1	1	1	1	1	0	1	-7,892882	274,252785	312,872318	0
15.01.2021	19:19:44	0	0	4,293236	3,147	299,8296	0,276	85,034	0	1016,66	7	9	8,8	1	1	1	1	1	1	1	1	1	0	1	-6,412967	274,37804	314,938624	0
15.01.2021	19:19:45	0	0	2,598537	2,931	303,534	0,279	85,048	0	1016,66	7	9	8,8	1	1	1	1	1	1	1	1	1	0	1	-12,262156	274,246769	308,4749	0
15.01.2021	19:19:46	0	0	4,406216	2,6655	324,4212	0,279	85,052	0	1016,72	7	9,1	8,8	1	1	1	1	1	1	1	1	1	0	1	-9,654686	274,337205	311,505645	0
15.01.2021	19:19:47	0	0	3,841316	2,60025	313,6572	0,277	85,06	0	1016,64	7	9,1	8,8	1	1	1	1	1	1	1	1	1	0	1	-12,825934	274,384097	308,554034	0
15.01.2021	19:19:48	0	0	2,937477	2,46375	316,5948	0,288	85,064	0	1016,96	7	9,1	8,8	1	1	1	1	1	1	1	1	1	0	1	-8,527132	274,251281	312,231031	0
15.01.2021	19:19:49	0	0	4,632175	2,28225	318,4092	0,277	85,071	0	1016,88	7	9	8,8	1	1	1	1	1	1	1	1	1	0	1	-12,332629	274,365932	308,962242	0
15.01.2021	19:19:50	0	0	2,937477	2,142	293,3208	0,277	85,055	0	1016,7	7	9	8,8	1	1	1	1	1	1	1	1	1	0	1	-10,147992	274,331163	310,984046	0
15.01.2021	19:19:51	0	0	4,406216	2,199	300,4308	0,278	85,045	0	1016,72	7	9,1	8,8	1	1	1	1	1	1	1	1	1	0	1	-10,641297	274,376526	310,703202	0
15.01.2021	19:19:52	0	0	3,954296	2,319	305,7948	0,278	85,059	0	1016,72	7	9	8,8	1	1	1	1	1	1	1	1	1	0	1	-7,610994	274,209212	312,950405	0
15.01.2021	19:19:53	0	0	4,406216	2,44875	296,7552	0,275	85,064	0	1016,74	7	9,1	8,8	1	1	1	1	1	1	1	1	1	0	1	-11,134602	274,258803	309,658753	0
15.01.2021	19:19:54	0	0	4,632175	2,58525	303,1704	0,278	85,065	0	1016,72	7	9,1	8,8	1	1	1	1	1	1	1	1	1	0	1	-9,654686	274,189712	310,815534	0
15.01.2021	19:19:55	0	0	4,180256	2,69175	305,3808	0,28	85,06	0	1016,68	7	9	8,8	1	1	1	1	1	1	1	1	1	0	1	-11,275546	274,325122	309,828209	0
15.01.2021	19:19:56	0	0	3,615356	2,72325	303,894	0,284	85,045	0	1016,74	7	9	8,8	1	1	1	1	1	1	1	1	1	0	1	-8,245243	274,209212	312,316156	0
15.01.2021	19:19:57	0	0	2,485558	2,568	304,7112	0,281	85,054	0	1016,66	7	9	8,8	1	1	1	1	1	1	1	1	1	0	1	-11,275546	274,212214	309,29989	0
15.01.2021	19:19:58	0	0	3,163437	2,4975	308,0412	0,278	85,069	0	1016,78	7	9	8,8	1	1	1	1	1	1	1	1	1	0	1	-8,738548	274,340227	312,435934	0
15.01.2021	19:19:59	0	0	4,971115	2,541	315,9108	0,274	85,053	0	1016,58	7	9,1	8,8	1	1	1	1	1	1	1	1	1	0	1	-6,906272	274,331163	314,225766	0
15.01.2021	19:20:00	0	0	4,067276	2,55	309,924	0,277	85,053	0	1016,64	7	9,1	8,8	1	1	1	1	1	1	1	1	1	0	1	-6,694856	274,209212	313,866543	0
15.01.2021	19:20:01	0	0	4,067276	2,55	309,924	0,277	85,053	0	1016,64	7	9,1	8,8	1	1	1	1	1	1	1	1	1	0	1	-10,570825	274,240755	310,138099	0
15.01.2021	19:20:02	0	0	4,067276	2,57625	306,126	0,28	85,086	0	1016,74	7	9	8,8	1	1	1	1	1	1	1	1	1	0	1	-7,610994	274,192711	312,873247	0
15.01.2021	19:20:03	0	0	5,197075	2,58075	301,2624	0,281	85,061	0	1016,76	7	9,1	8,8	1	1	1	1	1	1	1	1	1	0	1	-9,513742	274,34476	311,681971	0
15.01.2021	19:20:04	0	0	4,632175	2,50425	303,2064	0,284	85,071	0	1016,84	7	9,1	8,8	1	1	1	1	1	1	1	1	1	0	1	-10,359408	274,343249	310,829227	0
15.01.2021	19:20:05	0	0	4,406216	2,57175	297,2448	0,275	85,066	0	1016,78	7	9	8,8	1	1	1	1	1	1	1	1	1	0	1	-9,866103	274,368958	311,442944	0
15.01.2021	19:20:06	0	0	3,050457	2,62275	290,7036	0,282	85,07	0	1016,7	7	9,1	8,8	1	1	1	1	1	1	1	1	1	0	1	-8,879493	274,261812	311,927943	0
15.01.2021	19:20:07	0	0	5,197075	2,56125	289,1952	0,278	85,06	0	1016,74	7	9	8,8	1	1	1	1	1	1	1	1	1	0	1	-8,668076	274,373498	312,66224	0
15.01.2021	19:20:08	0	0	2,711517	2,62725	307,1304	0,277	85,068	0	1016,74	7	9,1	8,8	1	1	1	1	1	1	1	1	1	0	1	-14,023961	274,260308	306,776434	0
15.01.2021	19:20:09	0	0	2,937477	2,7375	299,6928	0,277	85,085	0	1016,72	7	9	8,8	1	1	1	1	1	1	1	1	1	0	1	-7,82241	274,20321	312,710922	0
15.01.2021	19:20:10	0	0	2,937477	3,05025	304,56	0,274	85,059	0	1016,68	7	9,1	8,8	1	1	1	1	1	1	1	1	1	0	1	-7,117689	274,319084	313,957795	0
15.01.2021	19:20:11	0	0	3,502376	3,2355	301,6476	0,282	85,075	0	1016,64	6,8	9,1	8,8	1	1	1	1	1	1	1	1	1	0	1	-8,80902	274,381068	312,556758	0
15.01.2021	19:20:12	0	0	3,728336	3,35025	307,188	0,278	85,071	0	1016,72	7	9	8,8	1	1	1	1	1	1	1	1	1	0	1	-8,104299	274,276867	312,773582	0
15.01.2021	19:20:13	0	0	1,920658	3,45675	307,2168	0,27	85,075	0	1016,72	7	9	8,8	1	1	1	1	1	1	1	1	1	0	1	-11,06413	274,37804	310,287462	0
15.01.2021	19:20:14	0	0	2,598537	3,582	306,756	0,274	85,07	0	1016,56	7	9	8,8	1	1	1	1	1	1	1	1	1	0	1	-10,570825	274,260308	310,22957	0
15.01.2021	19:20:15	0	0	2,937477	3,67875	312,4404	0,284	85,079	0	1016,78	7	9	8,8	1	1	1	1	1	1	1	1	1	0	1	-10,500352	274,35988	310,766174	0
15.01.2021	19:20:16	0	0	3,615356	3,53025	303,894	0,276	85,075	0	1016,76	6,8	9	8,8	1	1	1	1	1	1	1	1	1	0	1	-10,782241	274,290427	310,159098	0
15.01.2021	19:20:17	0	0	3,615356	3,4455	308,1096	0,277	85,085	0	1016,78	7	9	8,8	1	1	1	1	1	1	1	1	1	0	1	-6,412967	274,20021	314,106336	0
15.01.2021	19:20:18	0	0	2,598537	3,44325	300,2688	0,278	85,071	0	1016,62	7	9	8,8	1	1	1	1	1	1	1	1	1	0	1	-7,470049	274,248273	313,274042	0
15.01.2021	19:20:19	0	0	2,937477	3,4395	308,0052	0,283	85,082	0	1016,84	7	9	8,8	1	1	1	1	1	1	1	1	1	0	1	-7,681466	274,379554	313,677219	0
15.01.2021	19:20:20	0	0	3,954296	3,3585	308,0736	0,278	85,079	0	1016,66	7	9,1	8,8	1	1	1	1	1	1	1	1	1	0	1	-6,694856	274,230235	313,964861	0
15.01.2021	19:20:21	0	0	3,050457	3,2745	319,5	0,279	85,089	0	1016,76	7	9	8,8	1	1	1	1	1	1	1	1	1	0	1	-11,627907	274,367445	309,674051	0
15.01.2021	19:20:22	0	0	2,372578	3,1845	309,9852	0,278	85,086	0	1016,68	7	9	8,8	1	1	1	1	1	1	1	1	1	0	1	-9,584214	274,278374	311,300715	0
15.01.2021	19:20:23	0	0	2,937477	3,11775	305,3808	0,28	85,097	0	1016,84	6,8	9,1	8,8	1	1	1	1	1	1	1	1	1	0	1	-7,329105	274,204711	313,211243	0
15.01.2021	19:20:24	0	0	3,163437	2,9325	310,23	0,277	85,069	0	1016,72	7	9	8,8	1	1	1	1	1	1	1	1	1	0	1	-5,567301	274,216718	315,029196	0
15.01.2021	19:20:25	0	0	4,632175	2,8545	313,6428	0,276	85,064	0	1016,76	7	9,1	8,8	1	1	1	1	1	1	1	1	1	0	1	-6,8358	274,325122	314,267956	0
15.01.2021	19:20:26	0	0	3,615356	2,7225	298,0548	0,275	85,081	0	1016,62	7	9	8,8	1	1	1	1	1	1	1	1	1	0	1	-9,231853	274,35988	312,034673	0
15.01.2021	19:20:27	0	0	3,389397	2,79525	296,0532	0,277	85,086	0	1016,82	7	9,1	8,8	1	1	1	1	1	1	1	1	1	0	1	-11,346018	274,20171	309,180299	0
15.01.2021	19:20:28	0	0	4,067276	2,8935	302,76	0,284	85,084	0	1016,72	7	9	8,8	1	1	1	1	1	1	1	1	1	0	1	-7,047216	274,276867	313,830665	0
15.01.2021	19:20:29	0	0	4,067276	2,961	301,5216	0,278	85,098	0	1016,84	7	9	8,8	1	1	1	1	1	1	1	1	1	0	1	-4,933051	274,373498	316,397264	0
15.01.2021	19:20:30	0	0	4,406216	2,856	294,894	0,278	85,087	0	1016,7	7	9,1	8,8	1	1	1	1	1	1	1	1	1	0	1	-8,033827	274,316065	313,027525	0
15.01.2021	19:20:31	0	0	2,485558	2,7735	302,3172	0,278	85,095	0	1016,76	7	9,1	8,8	1	1	1	1	1	1	1	1	1	0	1	-4,22833	274,19871	316,283959	0
15.01.2021	19:20:32	0	0	3,841316	2,682	306,8064	0,28	85,093	0	1016,78	7	9	8,8	1	1	1	1	1	1	1	1	1	0	1	-11,980268	274,261812	308,827168	0
15.01.2021	19:20:33	0	0	3,502376	2,655	308,1564	0,276	85,099	0	1016,66	7	9	8,8	1	1	1	1	1	1	1	1	1	0	1	-6,060606	274,376526	315,283893	0
15.01.2021	19:20:34	0	0	3,615356	2,4825	312,4368	0,284	85,113	0	1016,76	7	9	8,8	1	1	1	1	1	1	1	1	1	0	1	-6,906272	274,328142	314,211623	0
15.01.2021	19:20:35	0	0	4,067276	2,388	290,0052	0,277	85,094	0	1016,72	7	9	8,8	1	1	1	1	1	1	1	1	1	0	1	-14,023961	274,371985	307,299265	0
15.01.2021	19:20:36	0	0	4,293236	2,4525	311,4144	0,279	85,118	0	1016,82	7	9	8,8	1	1	1	1	1	1	1	1	1	0	1	-4,157858	274,269338	316,684792	0
15.01.2021	19:20:37	0	0	4,406216	2,4375	321,1416	0,276	85,102	0	1016,6	7	9,1	8,8	1	1	1	1	1	1	1	1	1	0	1	-9,584214	274,385611	311,802849	0
15.01.2021	19:20:38	0	0	3,502376	2,37975	297,4716	0,299	85,091	0	1016,5	7	9	8,8	1	1	1	1	1	1	1	1	1	0	1	-10,42988	274,303996	310,574971	0
15.01.2021	19:20:39	0	0	4,745155	2,379	302,382	0,28	85,093	0	1016,74	6,8	9	8,8	1	1	1	1	1	1	1	1	1	0	1	-9,090909	274,387126	312,303251	0
15.01.2021	19:20:40	0	0	3,389397	2,48925	303,516	0,279	85,097	0	1016,62	7	9	8,8	1	1	1	1	1	1	1	1	1	0	1	-9,020437	274,326632	312,090388	0
15.01.2021	19:20:41	0	0	3,615356	2,586	296,838	0,282	85,094	0	1016,62	7	9	8,8	1	1	1	1	1	1	1	1	1	0	1	-9,584214	274,375012	311,753193	0
15.01.2021	19:20:42	0	0	2,259598	2,65575	313,2072	0,279	85,093	0	1016,74	7	9	8,8	1	1	1	1	1	1	1	1	1	0	1	-6,20155	274,275361	314,669283	0
15.01.2021	19:20:43	0	0	4,406216	2,7195	318,7692	0,283	85,123	0	1016,82	7	9	8,8	1	1	1	1	1	1	1	1	1	0	1	-6,20155	274,402279	315,263612	0
15.01.2021	19:20:44	0	0	2,372578	2,589	314,8524	0,283	85,111	0	1016,7	7	9	8,8	1	1	1	1	1	1	1	1	1	0	1	-6,060606	274,316065	315,000746	0
15.01.2021	19:20:45	0	0	2,598537	2,5245	306,4356	0,282	85,113	0	1016,74	7	9	8,8	1	1	1	1	1	1	1	1	1	0	1	-9,44327	274,19721	311,062006	0
15.01.2021	19:20:46	0	0	2,711517	2,42925	315,5076	0,274	85,113	0	1016,76	7	9	8,8	1	1	1	1	1	1	1	1	1	0	1	-6,624383	274,335694	314,528874	0
15.01.2021	19:20:47	0	0	3,954296	2,35875	313,9848	0,279	85,101	0	1016,66	7	9	8,8	1	1	1	1	1	1	1	1	1	0	1	-8,174771	274,213715	312,407685	0
15.01.2021	19:20:48	0	0	4,180256	2,34675	312,7644	0,279	85,114	0	1016,78	7	9,1	8,8	1	1	1	1	1	1	1	1	1	0	1	-7,963354	274,335694	313,189902	0
15.01.2021	19:20:49	0	0	4,406216	2,38725	317,7324	0,279	85,109	0	1016,66	7	9	8,8	1	1	1	1	1	1	1	1	1	0	1	-6,624383	274,19421	313,866868	0
15.01.2021	19:20:50	0	0	3,615356	2,36325	317,7288	0,28	85,119	0	1016,64	7	9	8,8	1	1	1	1	1	1	1	1	1	0	1	-10,641297	274,313047	310,405926	0
15.01.2021	19:20:51	0	0	5,084095	2,47425	315,594	0,284	85,112	0	1016,72	7	9	8,8	1	1	1	1	1	1	1	1	1	0	1	-7,963354	274,367445	313,338604	0
15.01.2021	19:20:52	0	0	2,372578	2,454	309,1176	0,284	85,115	0	1016,78	7	9	8,8	1	1	1	1	1	1	1	1	1	0	1	-14,376321	274,337205	306,78401	0
15.01.2021	19:20:53	0	0	3,389397	2,5365	310,6656	0,282	85,122	0	1016,76	7	9	8,8	1	1	1	1	1	1	1	1	1	0	1	-8,104299	274,245266	312,625723	0
15.01.2021	19:20:54	0	0	3,163437	2,685	313,1856	0,279	85,107	0	1016,94	7	9,1	8,8	1	1	1	1	1	1	1	1	1	0	1	-9,020437	274,234743	311,660364	0
15.01.2021	19:20:55	0	0	4,632175	2,73675	318,0672	0,281	85,097	0	1016,7	7	9,1	8,8	1	1	1	1	1	1	1	1	1	0	1	-6,483439	274,381068	314,882339	0
15.01.2021	19:20:56	0	0	2,824497	2,87475	315,1944	0,282	85,101	0	1016,68	7	9	8,8	1	1	1	1	1	1	1	1	1	0	1	-13,460183	274,326632	307,650642	0
15.01.2021	19:20:57	0	0	3,728336	2,94	313,6104	0,284	85,111	0	1016,76	7	9	8,8	1	1	1	1	1	1	1	1	1	0	1	-8,174771	274,368958	313,134276	0
15.01.2021	19:20:58	0	0	3,954296	3,054	316,3104	0,28	85,106	0	1016,82	7	9	8,8	1	1	1	1	1	1	1	1	1	0	1	-10,852713	274,296456	310,116847	0
15.01.2021	19:20:59	0	0	2,711517	3,11625	313,1784	0,285	85,129	0	1016,7	6,8	9	8,8	1	1	1	1	1	1	1	1	1	0	1	-10,711769	274,19871	309,80052	0
15.01.2021	19:21:00	0	0	3,841316	3,1185	313,9848	0,281	85,086	0	1016,72	7	9	8,8	1	1	1	1	1	1	1	1	1	0	1	-5,637773	274,255794	315,141503	0
15.01.2021	19:21:01	0	0	3,841316	3,1185	313,9848	0,281	85,086	0	1016,72	7	9	8,8	1	1	1	1	1	1	1	1	1	0	1	-5,919662	274,189712	314,550559	0
15.01.2021	19:21:02	0	0	4,180256	3,2655	310,9932	0,279	85,121	0	1016,74	7	9	8,8	1	1	1	1	1	1	1	1	1	0	1	-7,963354	274,254289	312,808883	0
15.01.2021	19:21:03	0	0	4,293236	3,1695	312,1596	0,285	85,139	0	1016,78	7	9	8,8	1	1	1	1	1	1	1	1	1	0	1	-7,470049	274,385611	313,917014	0
15.01.2021	19:21:04	0	0	2,937477	2,96925	314,0856	0,274	85,101	0	1016,7	7	9,1	8,8	1	1	1	1	1	1	1	1	1	0	1	-7,892882	274,331163	313,239156	0
15.01.2021	19:21:05	0	0	3,615356	2,8575	324,8244	0,276	85,11	0	1016,6	7	9	8,8	1	1	1	1	1	1	1	1	1	0	1	-4,862579	274,230235	315,797137	0
15.01.2021	19:21:06	0	0	2,711517	2,772	331,0596	0,282	85,097	0	1016,7	7	9	8,8	1	1	1	1	1	1	1	1	1	0	1	-10,711769	274,278374	310,173161	0
15.01.2021	19:21:07	0	0	4,632175	2,66325	308,0304	0,28	85,118	0	1016,82	7	9	8,8	1	1	1	1	1	1	1	1	1	0	1	-10,359408	274,206211	310,187956	0
15.01.2021	19:21:08	0	0	3,389397	2,74725	319,1616	0,285	85,132	0	1016,74	7	9	8,8	1	1	1	1	1	1	1	1	1	0	1	-10,782241	274,381068	310,583537	0
15.01.2021	19:21:09	0	0	4,858135	2,80575	319,8672	0,284	85,128	0	1016,72	7	9,1	8,8	1	1	1	1	1	1	1	1	1	0	1	-8,245243	274,320593	312,837308	0
15.01.2021	19:21:10	0	0	2,824497	2,80875	301,6188	0,281	85,122	0	1016,7	7	9	8,8	1	1	1	1	1	1	1	1	1	0	1	-5,84919	274,381068	315,516589	0
15.01.2021	19:21:11	0	0	4,632175	2,8155	312,1236	0,277	85,125	0	1016,7	7	9	8,8	1	1	1	1	1	1	1	1	1	0	1	-4,298802	274,331163	316,833236	0
15.01.2021	19:21:12	0	0	3,502376	2,79675	304,9848	0,285	85,111	0	1016,78	7	9	8,8	1	1	1	1	1	1	1	1	1	0	1	-9,654686	274,387126	311,739474	0
15.01.2021	19:21:13	0	0	2,598537	2,685	296,5284	0,279	85,104	0	1016,76	7	9	8,8	1	1	1	1	1	1	1	1	1	0	1	-11,627907	274,371985	309,695319	0
15.01.2021	19:21:14	0	0	3,502376	2,505	299,034	0,282	85,122	0	1016,82	7	9	8,8	1	1	1	1	1	1	1	1	1	0	1	-8,80902	274,373498	312,521295	0
15.01.2021	19:21:15	0	0	4,406216	2,40375	294,0588	0,279	85,119	0	1016,6	6,8	9,1	8,8	1	1	1	1	1	1	1	1	1	0	1	-7,047216	274,297964	313,929401	0
15.01.2021	19:21:16	0	0	3,050457	2,2035	296,1	0,283	85,129	0	1016,72	6,8	9	8,8	1	1	1	1	1	1	1	1	1	0	1	-4,298802	274,384097	317,081166	0
15.01.2021	19:21:17	0	0	3,389397	2,13375	289,638	0,281	85,108	0	1016,76	7	9	8,8	1	1	1	1	1	1	1	1	1	0	1	-14,517266	274,322103	306,572353	0
15.01.2021	19:21:18	0	0	2,711517	2,0505	310,3452	0,281	85,121	0	1016,86	7	9,1	8,8	1	1	1	1	1	1	1	1	1	0	1	-6,765328	274,207712	313,789053	0
15.01.2021	19:21:19	0	0	3,841316	1,98375	295,1856	0,286	85,121	0	1016,72	7	9	8,8	1	1	1	1	1	1	1	1	1	0	1	-11,134602	274,332673	310,004508	0
15.01.2021	19:21:20	0	0	3,050457	2,09475	291,0672	0,281	85,129	0	1016,72	7	9	8,8	1	1	1	1	1	1	1	1	1	0	1	-10,288936	274,242259	310,42702	0
15.01.2021	19:21:21	0	0	4,858135	2,3175	308,0304	0,284	85,137	0	1016,8	7	9	8,8	1	1	1	1	1	1	1	1	1	0	1	-14,094433	274,370471	307,221703	0
15.01.2021	19:21:22	0	0	4,067252	2,451	298,1736	0,282	85,13	0	1016,72	7	9	8,9	1	1	1	1	1	1	1	1	1	0	1	-12,473573	274,350807	308,750457	0
15.01.2021	19:21:23	0	0	2,146618	2,38275	303,9192	0,284	85,138	0	1016,76	6,8	9	8,8	1	1	1	1	1	1	1	1	1	0	1	-14,517266	274,266328	306,311297	0
15.01.2021	19:21:24	0	0	2,824497	2,31225	297,2448	0,287	85,13	0	1016,78	7	9	8,8	1	1	1	1	1	1	1	1	1	0	1	-9,795631	274,248273	310,948461	0
15.01.2021	19:21:25	0	0	3,728314	2,277	299,4192	0,28	85,114	0	1016,72	7	9	8,9	1	1	1	1	1	1	1	1	1	0	1	-10,077519	274,20171	310,448798	0
15.01.2021	19:21:26	0	0	3,954296	2,2275	299,7576	0,278	85,115	0	1016,78	7	9	8,8	1	1	1	1	1	1	1	1	1	0	1	-6,8358	274,361393	314,437811	0
15.01.2021	19:21:27	0	0	5,084095	2,1465	303,9012	0,285	85,132	0	1016,76	6,8	9	8,8	1	1	1	1	1	1	1	1	1	0	1	-9,725159	274,349295	311,491791	0
15.01.2021	19:21:28	0	0	3,276417	2,01375	298,7172	0,28	85,121	0	1016,76	7	9	8,8	1	1	1	1	1	1	1	1	1	0	1	-6,20155	274,367445	315,100408	0
15.01.2021	19:21:29	0	0	2,485558	1,9065	311,0652	0,284	85,136	0	1016,78	6,8	9	8,8	1	1	1	1	1	1	1	1	1	0	1	-10,077519	274,302488	310,920272	0
15.01.2021	19:21:30	0	0	3,615356	1,75875	307,1664	0,285	85,126	0	1016,8	7	9,1	8,8	1	1	1	1	1	1	1	1	1	0	1	-10,218464	274,204711	310,321884	0
15.01.2021	19:21:31	0	0	2,711517	1,65375	316,9116	0,284	85,134	0	1016,74	6,8	9	8,8	1	1	1	1	1	1	1	1	1	0	1	-7,117689	274,267833	313,717917	0
15.01.2021	19:21:32	0	0	3,050457	1,605	309,222	0,279	85,133	0	1016,7	6,8	9,1	8,8	1	1	1	1	1	1	1	1	1	0	1	-10,218464	274,382582	311,154409	0
15.01.2021	19:21:33	0	0	2,372578	1,6065	311,8248	0,277	85,129	0	1016,74	7	9	8,8	1	1	1	1	1	1	1	1	1	0	1	-10,147992	274,337205	311,01234	0
15.01.2021	19:21:34	0	0	4,745155	1,5075	311,8032	0,28	85,114	0	1016,74	7	9	8,8	1	1	1	1	1	1	1	1	1	0	1	-10,641297	274,206211	309,906067	0
15.01.2021	19:21:35	0	0	2,598537	1,407	307,6704	0,281	85,111	0	1016,62	7	9	8,8	1	1	1	1	1	1	1	1	1	0	1	-10,359408	274,209212	310,201991	0
15.01.2021	19:21:36	0	0	2,711517	1,37025	309,9096	0,284	85,119	0	1016,72	7	9	8,8	1	1	1	1	1	1	1	1	1	0	1	-9,372798	274,338716	311,794608	0
15.01.2021	19:21:37	0	0	3,954296	1,33275	311,796	0,282	85,126	0	1016,8	6,8	9	8,8	1	1	1	1	1	1	1	1	1	0	1	-10,077519	274,338716	311,089887	0
15.01.2021	19:21:38	0	0	2,824497	1,401	309,2796	0,28	85,122	0	1016,9	7	9	8,8	1	1	1	1	1	1	1	1	1	0	1	-2,889359	274,209212	317,67204	0
15.01.2021	19:21:39	0	0	3,615335	1,3635	302,8788	0,283	85,13	0	1016,74	7	9	8,9	1	1	1	1	1	1	1	1	1	0	1	-10,218464	274,258803	310,574891	0
15.01.2021	19:21:40	0	0	4,067276	1,52775	289,2564	0,284	85,109	0	1016,86	7	9	8,8	1	1	1	1	1	1	1	1	1	0	1	-8,668076	274,381068	312,697702	0
15.01.2021	19:21:41	0	0	2,598537	1,6215	309,1716	0,28	85,115	0	1016,72	7	9	8,8	1	1	1	1	1	1	1	1	1	0	1	-11,134602	274,319084	309,940882	0
15.01.2021	19:21:42	0	0	4,406216	1,63125	298,692	0,28	85,129	0	1016,68	7	9	8,8	1	1	1	1	1	1	1	1	1	0	1	-6,8358	274,382582	314,537073	0
15.01.2021	19:21:43	0	0	3,954296	1,6245	292,7052	0,286	85,118	0	1016,78	7	9,1	8,8	1	1	1	1	1	1	1	1	1	0	1	-8,386187	274,23324	312,287585	0
15.01.2021	19:21:44	0	0	4,519195	1,707	302,4288	0,283	85,114	0	1016,88	7	9	8,8	1	1	1	1	1	1	1	1	1	0	1	-11,839323	274,248273	308,904768	0
15.01.2021	19:21:45	0	0	3,276417	1,76625	286,704	0,289	85,119	0	1016,86	7	9	8,8	1	1	1	1	1	1	1	1	1	0	1	-8,315715	274,210713	312,252702	0
15.01.2021	19:21:46	0	0	4,067276	1,7355	281,304	0,286	85,111	0	1016,72	6,8	9	8,8	1	1	1	1	1	1	1	1	1	0	1	-11,557435	274,207712	308,996946	0
15.01.2021	19:21:47	0	0	4,406216	1,63275	311,0508	0,282	85,12	0	1016,76	7	9	8,8	1	1	1	1	1	1	1	1	1	0	1	-10,923185	274,362906	310,357512	0
15.01.2021	19:21:48	0	0	3,163437	1,62075	304,2756	0,277	85,113	0	1016,82	7	9	8,8	1	1	1	1	1	1	1	1	1	0	1	-6,060606	274,320593	315,021945	0
15.01.2021	19:21:49	0	0	3,276417	1,632	309,3048	0,276	85,114	0	1016,84	6,8	9	8,8	1	1	1	1	1	1	1	1	1	0	1	-10,007047	274,367445	311,294911	0
15.01.2021	19:21:50	0	0	3,502376	1,67025	298,8648	0,283	85,12	0	1016,72	7	9	8,8	1	1	1	1	1	1	1	1	1	0	1	-12,614517	274,325122	308,489238	0
15.01.2021	19:21:51	0	0	2,937477	1,71675	300,8376	0,281	85,11	0	1016,74	6,8	9	8,8	1	1	1	1	1	1	1	1	1	0	1	-5,919662	274,19421	314,57159	0
15.01.2021	19:21:52	0	0	4,745155	1,7295	304,3332	0,277	85,115	0	1016,8	7	9,1	8,8	1	1	1	1	1	1	1	1	1	0	1	-8,527132	274,320593	312,555419	0
15.01.2021	19:21:53	0	0	4,745155	1,71375	298,6668	0,284	85,113	0	1016,78	6,8	9	8,8	1	1	1	1	1	1	1	1	1	0	1	-7,751938	274,341738	313,42962	0
15.01.2021	19:21:54	0	0	4,406216	1,73025	290,106	0,285	85,118	0	1016,82	6,8	9	8,8	1	1	1	1	1	1	1	1	1	0	1	-9,090909	274,269338	311,751741	0
15.01.2021	19:21:55	0	0	2,82448	1,81875	288,8172	0,281	85,118	0	1016,9	6,8	9	8,9	1	1	1	1	1	1	1	1	1	0	1	-8,597604	274,209212	311,963795	0
15.01.2021	19:21:56	0	0	3,050457	1,7955	306,4608	0,278	85,102	0	1016,6	7	9	8,8	1	1	1	1	1	1	1	1	1	0	1	-7,610994	274,222724	313,013594	0
15.01.2021	19:21:57	0	0	4,971085	1,70625	310,2948	0,279	85,121	0	1016,84	7	9	8,9	1	1	1	1	1	1	1	1	1	0	1	-11,557435	274,311538	309,482724	0
15.01.2021	19:21:58	0	0	2,372578	1,617	302,454	0,28	85,102	0	1016,7	7	9	8,8	1	1	1	1	1	1	1	1	1	0	1	-4,933051	274,349295	316,283898	0
15.01.2021	19:21:59	0	0	2,937477	1,605	314,8236	0,275	85,109	0	1016,7	7	9,1	8,8	1	1	1	1	1	1	1	1	1	0	1	-11,06413	274,236246	309,623701	0
15.01.2021	19:22:00	0	0	3,615335	1,5975	308,5272	0,283	85,111	0	1016,66	6,8	9	8,9	1	1	1	1	1	1	1	1	1	0	1	-7,681466	274,379554	313,677219	0
15.01.2021	19:22:01	0	0	2,485558	1,62225	315,4968	0,286	85,114	0	1016,82	7	9,1	8,8	1	1	1	1	1	1	1	1	1	0	1	-6,694856	274,340227	314,479626	0
15.01.2021	19:22:02	0	0	2,485558	1,69725	304,9056	0,276	85,097	0	1016,78	7	9	8,8	1	1	1	1	1	1	1	1	1	0	1	-8,033827	274,254289	312,738411	0
15.01.2021	19:22:03	0	0	3,954296	1,70775	312,84	0,284	85,105	0	1016,64	7	9	8,8	1	1	1	1	1	1	1	1	1	0	1	-7,470049	274,260308	313,330345	0
15.01.2021	19:22:04	0	0	2,598522	1,779	307,602	0,285	85,111	0	1016,76	7	9,1	8,9	1	1	1	1	1	1	1	1	1	0	1	-7,258633	274,20321	313,274699	0
15.01.2021	19:22:05	0	0	4,745155	1,78425	316,2096	0,284	85,107	0	1016,76	7	9,1	8,8	1	1	1	1	1	1	1	1	1	0	1	-9,302326	274,248273	311,441766	0
15.01.2021	19:22:06	0	0	3,050457	1,7775	308,0412	0,281	85,116	0	1016,64	7	9	8,8	1	1	1	1	1	1	1	1	1	0	1	-9,584214	274,19871	310,928075	0
15.01.2021	19:22:07	0	0	3,276417	1,7625	308,4516	0,281	85,109	0	1016,82	7	9	8,8	1	1	1	1	1	1	1	1	1	0	1	-10,077519	274,335694	311,075738	0
15.01.2021	19:22:08	0	0	4,858135	1,77975	302,8356	0,281	85,108	0	1016,88	6,8	9	8,8	1	1	1	1	1	1	1	1	1	0	1	-7,751938	274,375012	313,585469	0
15.01.2021	19:22:09	0	0	2,824497	1,82475	295,2216	0,278	85,097	0	1016,68	6,8	9	8,8	1	1	1	1	1	1	1	1	1	0	1	-3,171247	274,316065	317,890105	0
15.01.2021	19:22:10	0	0	4,180256	1,88175	293,7384	0,28	85,117	0	1016,78	7	9	8,8	1	1	1	1	1	1	1	1	1	0	1	-6,20155	274,19721	314,303725	0
15.01.2021	19:22:11	0	0	4,858135	1,88025	306,45	0,281	85,116	0	1016,78	7	9	8,8	1	1	1	1	1	1	1	1	1	0	1	-6,272023	274,368958	315,037024	0
15.01.2021	19:22:12	0	0	2,259598	1,84275	309,9636	0,283	85,083	0	1016,78	6,8	9	8,8	1	1	1	1	1	1	1	1	1	0	1	-9,020437	274,308521	312,005597	0
15.01.2021	19:22:13	0	0	2,937477	1,836	317,376	0,274	85,084	0	1016,82	7	9	8,8	1	1	1	1	1	1	1	1	1	0	1	-11,557435	274,375012	309,779972	0
15.01.2021	19:22:14	0	0	3,389397	1,7895	309,8448	0,281	85,105	0	1016,84	7	9	8,8	1	1	1	1	1	1	1	1	1	0	1	-8,668076	274,358368	312,591366	0
15.01.2021	19:22:15	0	0	4,067252	1,7145	298,2564	0,276	85,084	0	1016,7	6,8	9	8,9	1	1	1	1	1	1	1	1	1	0	1	-6,8358	274,308521	314,190234	0
15.01.2021	19:22:16	0	0	5,084095	1,57875	298,3536	0,279	85,094	0	1016,94	6,8	9	8,8	1	1	1	1	1	1	1	1	1	0	1	-7,963354	274,206211	312,58401	0
15.01.2021	19:22:17	0	0	4,180256	1,65075	293,7276	0,278	85,077	0	1016,82	7	9	8,8	1	1	1	1	1	1	1	1	1	0	1	-11,557435	274,307013	309,461538	0
15.01.2021	19:22:18	0	0	4,519168	1,75875	306,8676	0,28	85,112	0	1016,82	7	9	8,9	1	1	1	1	1	1	1	1	1	0	1	-8,949965	274,338716	312,217441	0
15.01.2021	19:22:19	0	0	4,293236	1,85025	307,2168	0,278	85,08	0	1016,72	7	9	8,8	1	1	1	1	1	1	1	1	1	0	1	-9,936575	274,346272	311,266216	0
15.01.2021	19:22:20	0	0	4,293236	1,9455	306,4176	0,274	85,095	0	1016,82	7	9	8,8	1	1	1	1	1	1	1	1	1	0	1	-7,681466	274,204711	312,858882	0
15.01.2021	19:22:21	0	0	4,406216	2,0715	298,6524	0,281	85,093	0	1016,9	6,8	9	8,8	1	1	1	1	1	1	1	1	1	0	1	-9,654686	274,358368	311,604756	0
15.01.2021	19:22:22	0	0	4,406216	2,184	300,5172	0,271	85,096	0	1016,72	6,8	9	8,8	1	1	1	1	1	1	1	1	1	0	1	-8,668076	274,375012	312,669331	0
15.01.2021	19:22:23	0	0	4,519195	2,37975	305,2728	0,274	85,088	0	1016,7	7	9	8,8	1	1	1	1	1	1	1	1	1	0	1	-4,439746	274,368958	316,8693	0
15.01.2021	19:22:24	0	0	2,824497	2,418	301,6044	0,279	85,094	0	1016,74	6,8	9	8,8	1	1	1	1	1	1	1	1	1	0	1	-7,751938	274,346272	313,450853	0
15.01.2021	19:22:25	0	0	3,841316	2,36175	311,0256	0,282	85,101	0	1016,88	6,9	9	8,8	1	1	1	1	1	1	1	1	1	0	1	-9,231853	274,371985	312,091372	0
15.01.2021	19:22:26	0	0	4,971085	2,313	301,2624	0,276	85,087	0	1016,78	7	9	8,9	1	1	1	1	1	1	1	1	1	0	1	-6,624383	274,284399	314,288746	0
15.01.2021	19:22:27	0	0	4,067276	2,3775	305,6832	0,274	85,095	0	1016,8	7	9	8,8	1	1	1	1	1	1	1	1	1	0	1	-5,778717	274,204711	314,76163	0
15.01.2021	19:22:28	0	0	4,293236	2,445	307,5228	0,275	85,085	0	1016,86	7	9	8,8	1	1	1	1	1	1	1	1	1	0	1	-9,302326	274,308521	311,723708	0
15.01.2021	19:22:29	0	0	3,615356	2,48325	297,9432	0,277	85,113	0	1016,92	6,8	9	8,8	1	1	1	1	1	1	1	1	1	0	1	-6,131078	274,368958	315,177968	0
15.01.2021	19:22:30	0	0	3,502376	2,38725	300,8448	0,276	85,104	0	1016,88	7	9	8,8	1	1	1	1	1	1	1	1	1	0	1	-6,906272	274,308521	314,119762	0
15.01.2021	19:22:31	0	0	4,406216	2,3385	300,1032	0,284	85,098	0	1016,8	7	9	8,8	1	1	1	1	1	1	1	1	1	0	1	-6,272023	274,37804	315,079569	0
15.01.2021	19:22:32	0	0	4,180256	2,4195	301,5792	0,271	85,087	0	1016,78	7	9	8,8	1	1	1	1	1	1	1	1	1	0	1	-8,738548	274,349295	312,478402	0
15.01.2021	19:22:33	0	0	5,084095	2,42025	306,0144	0,276	85,091	0	1016,92	7	9	8,8	1	1	1	1	1	1	1	1	1	0	1	-6,272023	274,334184	314,874161	0
15.01.2021	19:22:34	0	0	3,728314	2,43075	305,7084	0,278	85,085	0	1016,96	7	9	8,9	1	1	1	1	1	1	1	1	1	0	1	-11,06413	274,338716	310,103277	0
15.01.2021	19:22:35	0	0	3,615356	2,4045	305,3988	0,278	85,074	0	1016,84	6,9	9	8,8	1	1	1	1	1	1	1	1	1	0	1	-4,792107	274,19871	315,720182	0
15.01.2021	19:22:36	0	0	4,293236	2,346	295,5492	0,277	85,073	0	1016,78	6,8	9	8,8	1	1	1	1	1	1	1	1	1	0	1	-11,205074	274,340227	309,969408	0
15.01.2021	19:22:37	0	0	2,598537	2,40825	315,1368	0,277	85,151	0	1016,86	6,8	9	8,8	1	1	1	1	1	1	1	1	1	0	1	-12,121212	274,379554	309,237472	0
15.01.2021	19:22:38	0	0	3,163437	2,34675	306,4428	0,275	85,069	0	1016,66	7	9,1	8,8	1	1	1	1	1	1	1	1	1	0	1	-7,681466	274,258803	313,111889	0
15.01.2021	19:22:39	0	0	4,632175	2,3625	308,79	0,273	85,071	0	1016,72	6,9	9	8,8	1	1	1	1	1	1	1	1	1	0	1	-8,245243	274,35988	313,021283	0
15.01.2021	19:22:40	0	0	2,711501	2,56275	304,254	0,276	85,092	0	1016,8	6,8	9	8,9	1	1	1	1	1	1	1	1	1	0	1	-10,500352	274,258803	310,293002	0
15.01.2021	19:22:41	0	0	2,259598	2,66625	304,632	0,277	85,095	0	1016,88	7	9	8,8	1	1	1	1	1	1	1	1	1	0	1	-5,073996	274,213715	315,50846	0
15.01.2021	19:22:42	0	0	2,824497	2,7795	289,548	0,276	85,096	0	1016,82	7	9	8,8	1	1	1	1	1	1	1	1	1	0	1	-6,131078	274,37804	315,220513	0
15.01.2021	19:22:43	0	0	4,858135	2,74875	307,188	0,271	85,098	0	1016,76	7	9	8,8	1	1	1	1	1	1	1	1	1	0	1	-9,936575	274,254289	310,835663	0
15.01.2021	19:22:44	0	0	4,406216	2,691	291,8268	0,277	85,098	0	1016,86	6,8	9	8,8	1	1	1	1	1	1	1	1	1	0	1	-7,540521	274,365932	313,754349	0
15.01.2021	19:22:45	0	0	2,485558	2,865	296,0352	0,276	85,094	0	1016,88	6,8	9	8,8	1	1	1	1	1	1	1	1	1	0	1	-10,359408	274,299472	310,624267	0
15.01.2021	19:22:46	0	0	4,632175	3,12075	299,0232	0,278	85,116	0	1016,78	6,8	9	8,8	1	1	1	1	1	1	1	1	1	0	1	-10,993658	274,384097	310,38631	0
15.01.2021	19:22:47	0	0	4,067252	3,3105	306,8964	0,275	85,112	0	1016,8	6,9	9	8,9	1	1	1	1	1	1	1	1	1	0	1	-11,346018	274,338716	309,821388	0
15.01.2021	19:22:48	0	0	4,406189	3,1155	297,9468	0,269	85,099	0	1016,88	6,9	9	8,9	1	1	1	1	1	1	1	1	1	0	1	-6,694856	274,364419	314,592928	0
15.01.2021	19:22:49	0	0	2,372578	2,93775	305,496	0,272	85,112	0	1016,74	6,8	9	8,8	1	1	1	1	1	1	1	1	1	0	1	-8,80902	274,218219	311,794498	0
15.01.2021	19:22:50	0	0	2,824497	2,781	294,4044	0,278	85,112	0	1016,78	7	9	8,8	1	1	1	1	1	1	1	1	1	0	1	-10,147992	274,367445	311,153967	0
15.01.2021	19:22:51	0	0	3,163437	2,589	315,7776	0,275	85,08	0	1016,76	7	9	8,8	1	1	1	1	1	1	1	1	1	0	1	-11,768851	274,275361	309,101982	0
15.01.2021	19:22:52	0	0	4,406189	2,3355	311,7384	0,275	85,111	0	1016,76	6,9	9	8,9	1	1	1	1	1	1	1	1	1	0	1	-6,906272	274,19571	313,591991	0
15.01.2021	19:22:53	0	0	4,971115	2,11425	339,8472	0,276	85,102	0	1016,8	6,8	9	8,8	1	1	1	1	1	1	1	1	1	0	1	-13,953488	274,275361	306,917345	0
15.01.2021	19:22:54	0	0	4,745155	2,007	309,9708	0,28	85,094	0	1016,82	6,8	9	8,8	1	1	1	1	1	1	1	1	1	0	1	-5,355884	274,186713	315,100318	0
15.01.2021	19:22:55	0	0	3,841293	1,97625	315,5652	0,273	85,098	0	1016,72	6,8	9	8,9	1	1	1	1	1	1	1	1	1	0	1	-13,107822	274,258803	307,685532	0
15.01.2021	19:22:56	0	0	4,971115	1,8975	306,432	0,276	85,09	0	1016,76	7	9	8,8	1	1	1	1	1	1	1	1	1	0	1	-16,208598	274,370471	305,107538	0
15.01.2021	19:22:57	0	0	3,728314	1,8375	298,656	0,278	85,109	0	1016,82	6,8	9	8,9	1	1	1	1	1	1	1	1	1	0	1	-6,906272	274,228733	313,746417	0
15.01.2021	19:22:58	0	0	4,632148	1,7775	290,3652	0,276	85,094	0	1016,94	7	9	8,9	1	1	1	1	1	1	1	1	1	0	1	-10,359408	274,335694	310,793849	0
15.01.2021	19:22:59	0	0	4,406189	1,85625	299,0484	0,273	85,107	0	1016,6	6,9	9	8,9	1	1	1	1	1	1	1	1	1	0	1	-8,245243	274,337205	312,915088	0
15.01.2021	19:23:00	0	0	4,858135	2,25075	307,5444	0,274	85,112	0	1016,76	7	9	8,8	1	1	1	1	1	1	1	1	1	0	1	-7,610994	274,375012	313,726413	0
15.01.2021	19:23:01	0	0	3,728336	2,61675	305,442	0,273	85,087	0	1016,82	7	9	8,8	1	1	1	1	1	1	1	1	1	0	1	-11,980268	274,355343	309,265007	0
15.01.2021	19:23:02	0	0	4,632148	2,77275	301,5972	0,277	85,102	0	1016,64	6,8	9	8,9	1	1	1	1	1	1	1	1	1	0	1	-14,587738	274,381068	306,77804	0
15.01.2021	19:23:03	0	0	4,067276	2,74725	318,456	0,277	85,106	0	1016,84	6,8	9	8,8	1	1	1	1	1	1	1	1	1	0	1	-8,033827	274,204711	312,506521	0
15.01.2021	19:23:04	0	0	3,276397	2,7675	318,1032	0,277	85,106	0	1016,72	6,8	9	8,9	1	1	1	1	1	1	1	1	1	0	1	-12,05074	274,375012	309,286667	0
15.01.2021	19:23:05	0	0	2,711501	3,05475	308,1132	0,277	85,105	0	1016,58	6,8	9	8,9	1	1	1	1	1	1	1	1	1	0	1	-10,570825	274,245266	310,159198	0
15.01.2021	19:23:06	0	0	3,502376	2,991	306,1152	0,276	85,107	0	1016,72	6,8	9	8,8	1	1	1	1	1	1	1	1	1	0	1	-8,527132	274,207712	312,027249	0
15.01.2021	19:23:07	0	0	2,82448	3,0495	301,6296	0,276	85,125	0	1016,66	6,8	9	8,9	1	1	1	1	1	1	1	1	1	0	1	-7,117689	274,335694	314,035568	0
15.01.2021	19:23:08	0	0	4,406216	3,2115	302,9976	0,275	85,11	0	1016,8	7	9	8,8	1	1	1	1	1	1	1	1	1	0	1	-6,060606	274,240755	314,648317	0
15.01.2021	19:23:09	0	0	3,050457	3,26475	297,9072	0,274	85,109	0	1016,84	7	9,1	8,8	1	1	1	1	1	1	1	1	1	0	1	-8,245243	274,334184	312,90094	0
15.01.2021	19:23:10	0	0	4,29321	3,3105	290,4516	0,274	85,116	0	1016,56	7	9	8,9	1	1	1	1	1	1	1	1	1	0	1	-9,654686	274,192711	310,829554	0
15.01.2021	19:23:11	0	0	4,406216	3,342	288,8532	0,277	85,123	0	1016,76	6,8	9	8,8	1	1	1	1	1	1	1	1	1	0	1	-10,570825	274,273855	310,292962	0
15.01.2021	19:23:12	0	0	4,519195	3,23475	284,9076	0,277	85,123	0	1017	6,8	9	8,8	1	1	1	1	1	1	1	1	1	0	1	-12,825934	274,375012	308,511473	0
15.01.2021	19:23:13	0	0	4,858135	2,99775	281,7648	0,273	85,124	0	1016,76	7	9	8,8	1	1	1	1	1	1	1	1	1	0	1	-12,966878	274,303996	308,037973	0
15.01.2021	19:23:14	0	0	2,259598	2,65425	290,0232	0,284	85,129	0	1016,9	6,9	9	8,8	1	1	1	1	1	1	1	1	1	0	1	-5,778717	274,23324	314,895055	0
15.01.2021	19:23:15	0	0	3,276417	2,4795	284,7744	0,276	85,114	0	1016,78	7	9	8,8	1	1	1	1	1	1	1	1	1	0	1	-6,412967	274,294949	314,549537	0
15.01.2021	19:23:16	0	0	3,841316	2,39025	285,21	0,27	85,118	0	1016,72	6,8	9	8,8	1	1	1	1	1	1	1	1	1	0	1	-6,131078	274,207712	314,423303	0
15.01.2021	19:23:17	0	0	2,937459	2,23575	295,56	0,273	85,119	0	1016,82	6,8	9	8,9	1	1	1	1	1	1	1	1	1	0	1	-10,641297	274,221223	309,976268	0
15.01.2021	19:23:18	0	0	2,598537	2,14575	307,1664	0,273	85,106	0	1016,9	6,8	9	8,8	1	1	1	1	1	1	1	1	1	0	1	-9,44327	274,325122	311,660486	0
15.01.2021	19:23:19	0	0	4,519195	2,30925	270,3204	0,273	85,12	0	1016,88	7	9	8,8	1	1	1	1	1	1	1	1	1	0	1	-6,694856	274,189712	313,775365	0
15.01.2021	19:23:20	0	0	3,841293	2,43675	294,03	0,276	85,131	0	1016,82	7	9	8,9	1	1	1	1	1	1	1	1	1	0	1	-9,090909	274,331163	312,041129	0
15.01.2021	19:23:21	0	0	2,937477	2,6145	299,7288	0,273	85,125	0	1016,8	6,8	9	8,8	1	1	1	1	1	1	1	1	1	0	1	-10,923185	274,371985	310,40004	0
15.01.2021	19:23:22	0	0	2,598537	2,75625	304,29	0,272	85,128	0	1016,68	6,8	9	8,8	1	1	1	1	1	1	1	1	1	0	1	-10,993658	274,245266	309,736365	0
15.01.2021	19:23:23	0	0	4,180231	2,99325	299,6388	0,279	85,119	0	1016,8	7	9	8,9	1	1	1	1	1	1	1	1	1	0	1	-9,513742	274,353831	311,724451	0
15.01.2021	19:23:24	0	0	4,858135	3,2115	299,7108	0,27	85,119	0	1016,68	6,9	9	8,8	1	1	1	1	1	1	1	1	1	0	1	-9,020437	274,275361	311,850397	0
15.01.2021	19:23:25	0	0	3,276417	3,3255	312,9444	0,276	85,133	0	1016,8	6,8	9	8,8	1	1	1	1	1	1	1	1	1	0	1	-11,768851	274,365932	309,526019	0
15.01.2021	19:23:26	0	0	2,711501	3,3435	310,3452	0,275	85,116	0	1016,84	7	9	8,9	1	1	1	1	1	1	1	1	1	0	1	-6,483439	274,231738	314,183305	0
15.01.2021	19:23:27	0	0	5,310055	3,3405	302,8608	0,274	85,128	0	1016,74	7	9	8,8	1	1	1	1	1	1	1	1	1	0	1	-5,990134	274,371985	315,333092	0
15.01.2021	19:23:28	0	0	4,406216	3,42225	318,2004	0,274	85,132	0	1016,66	6,8	9	8,8	1	1	1	1	1	1	1	1	1	0	1	-9,654686	274,340227	311,519795	0
15.01.2021	19:23:29	0	0	2,711517	3,453	319,5504	0,276	85,114	0	1016,8	6,9	9	8,8	1	1	1	1	1	1	1	1	1	0	1	-8,104299	274,209212	312,4571	0
15.01.2021	19:23:30	0	0	3,728314	3,3	320,796	0,272	85,139	0	1016,8	6,9	9	8,9	1	1	1	1	1	1	1	1	1	0	1	-8,80902	274,19571	311,689243	0
15.01.2021	19:23:31	0	0	4,29321	3,09675	311,0328	0,268	85,118	0	1016,7	6,8	9	8,9	1	1	1	1	1	1	1	1	1	0	1	-6,483439	274,266328	314,345123	0
15.01.2021	19:23:32	0	0	3,050439	3,12	322,2216	0,266	85,129	0	1016,76	6,9	9	8,9	1	1	1	1	1	1	1	1	1	0	1	-12,332629	274,373498	308,997687	0
15.01.2021	19:23:33	0	0	4,745127	3,21525	322,92	0,274	85,121	0	1016,82	6,8	9	8,9	1	1	1	1	1	1	1	1	1	0	1	-10,782241	274,316065	310,279111	0
15.01.2021	19:23:34	0	0	4,29321	3,2265	316,6776	0,273	85,134	0	1016,74	6,9	9	8,9	1	1	1	1	1	1	1	1	1	0	1	-12,191684	274,365932	309,103186	0
15.01.2021	19:23:35	0	0	4,971085	3,16575	313,1964	0,274	85,146	0	1016,8	6,9	9	8,9	1	1	1	1	1	1	1	1	1	0	1	-7,963354	274,331163	313,168684	0
15.01.2021	19:23:36	0	0	3,163437	3,21975	306,1116	0,276	85,142	0	1016,76	7	9	8,8	1	1	1	1	1	1	1	1	1	0	1	-11,698379	274,373498	309,631937	0
15.01.2021	19:23:37	0	0	2,711517	3,37275	299,4336	0,268	85,138	0	1016,74	6,9	9	8,8	1	1	1	1	1	1	1	1	1	0	1	-9,161381	274,20321	311,371951	0
15.01.2021	19:23:38	0	0	2,937459	3,3225	306,2196	0,272	85,139	0	1016,72	7	9	8,9	1	1	1	1	1	1	1	1	1	0	1	-8,104299	274,314556	312,949988	0
15.01.2021	19:23:39	0	0	3,163437	3,32325	303,804	0,277	85,129	0	1016,68	6,8	9	8,8	1	1	1	1	1	1	1	1	1	0	1	-6,976744	274,19571	313,521519	0
15.01.2021	19:23:40	0	0	4,745127	3,459	303,8688	0,274	85,132	0	1016,74	6,8	9	8,9	1	1	1	1	1	1	1	1	1	0	1	-8,597604	274,352319	312,633507	0
15.01.2021	19:23:41	0	0	4,519168	3,4935	302,7564	0,273	85,15	0	1016,96	6,8	9	8,9	1	1	1	1	1	1	1	1	1	0	1	-8,315715	274,373498	313,014601	0
15.01.2021	19:23:42	0	0	2,711517	3,63525	297,5868	0,277	85,147	0	1016,88	6,9	9	8,8	1	1	1	1	1	1	1	1	1	0	1	-7,610994	274,275361	313,25984	0
15.01.2021	19:23:43	0	0	4,29321	3,65175	293,7384	0,271	85,144	0	1016,88	6,8	9	8,9	1	1	1	1	1	1	1	1	1	0	1	-11,698379	274,19721	308,806897	0
15.01.2021	19:23:44	0	0	3,728314	3,5715	296,0676	0,27	85,139	0	1016,74	7	9	8,9	1	1	1	1	1	1	1	1	1	0	1	-10,711769	274,28892	310,222517	0
15.01.2021	19:23:45	0	0	3,050457	3,4245	303,192	0,271	85,125	0	1016,46	6,9	9	8,8	1	1	1	1	1	1	1	1	1	0	1	-9,161381	274,19421	311,32987	0
15.01.2021	19:23:46	0	0	3,728314	3,22575	297,1296	0,27	85,154	0	1016,8	6,9	9	8,9	1	1	1	1	1	1	1	1	1	0	1	-5,708245	274,303996	315,296606	0
15.01.2021	19:23:47	0	0	4,180231	2,97825	301,5252	0,272	85,161	0	1016,78	6,9	9	8,9	1	1	1	1	1	1	1	1	1	0	1	-9,372798	274,19421	311,118454	0
15.01.2021	19:23:48	0	0	3,728336	2,889	304,9992	0,276	85,136	0	1016,64	6,8	9	8,8	1	1	1	1	1	1	1	1	1	0	1	-7,258633	274,225728	313,380004	0
15.01.2021	19:23:49	0	0	2,372563	3,0615	305,4024	0,271	85,151	0	1016,78	6,9	9	8,9	1	1	1	1	1	1	1	1	1	0	1	-6,8358	274,192711	313,648441	0
15.01.2021	19:23:50	0	0	4,971115	2,9325	315,1044	0,266	85,15	0	1016,78	6,9	9	8,8	1	1	1	1	1	1	1	1	1	0	1	-10,007047	274,287413	310,920186	0
15.01.2021	19:23:51	0	0	4,293236	2,8155	308,844	0,274	85,168	0	1016,8	6,9	9	8,8	1	1	1	1	1	1	1	1	1	0	1	-6,694856	274,37804	314,656736	0
15.01.2021	19:23:52	0	0	3,163437	2,907	315,5112	0,271	85,161	0	1016,82	6,9	9	8,8	1	1	1	1	1	1	1	1	1	0	1	-11,557435	274,362906	309,723262	0
15.01.2021	19:23:53	0	0	4,406216	2,8335	292,6008	0,278	85,154	0	1016,78	6,8	9	8,8	1	1	1	1	1	1	1	1	1	0	1	-9,302326	274,237749	311,392535	0
15.01.2021	19:23:54	0	0	2,598537	2,7675	314,4564	0,275	85,155	0	1016,66	6,8	9	8,8	1	1	1	1	1	1	1	1	1	0	1	-12,896406	274,364419	308,391378	0
15.01.2021	19:23:55	0	0	3,502355	2,6985	308,5236	0,272	85,153	0	1016,7	6,8	9	8,9	1	1	1	1	1	1	1	1	1	0	1	-16,138125	274,215217	304,451351	0
15.01.2021	19:23:56	0	0	4,180231	2,7075	304,6428	0,271	85,156	0	1016,86	6,8	9	8,9	1	1	1	1	1	1	1	1	1	0	1	-12,403101	274,320593	308,67945	0
15.01.2021	19:23:57	0	0	2,485558	2,7945	316,6308	0,276	85,163	0	1016,7	6,9	9	8,8	1	1	1	1	1	1	1	1	1	0	1	-10,077519	274,236246	310,610311	0
15.01.2021	19:23:58	0	0	2,711501	2,80125	316,2456	0,273	85,17	0	1016,72	6,9	9	8,9	1	1	1	1	1	1	1	1	1	0	1	-8,597604	274,209212	311,963795	0
15.01.2021	19:23:59	0	0	5,084095	2,91225	317,7792	0,27	85,172	0	1016,96	6,8	9	8,8	1	1	1	1	1	1	1	1	1	0	1	-10,570825	274,261812	310,236611	0
15.01.2021	19:24:00	0	0	2,937477	2,7435	316,6344	0,274	85,176	0	1016,62	7	9	8,8	1	1	1	1	1	1	1	1	1	0	1	-6,765328	274,19571	313,732936	0
15.01.2021	19:24:01	0	0	2,598522	2,52975	318,384	0,267	85,169	0	1016,92	6,8	9	8,9	1	1	1	1	1	1	1	1	1	0	1	-11,41649	274,257298	309,369824	0
15.01.2021	19:24:02	0	0	4,067252	2,3385	306,846	0,27	85,171	0	1016,8	6,8	9	8,9	1	1	1	1	1	1	1	1	1	0	1	-5,778717	274,213715	314,803739	0
15.01.2021	19:24:03	0	0	4,632175	2,27925	310,9932	0,269	85,178	0	1016,86	6,8	9	8,8	1	1	1	1	1	1	1	1	1	0	1	-10,711769	274,254289	310,060469	0
15.01.2021	19:24:04	0	0	2,82448	2,289	308,5056	0,275	85,163	0	1016,84	6,8	9	8,9	1	1	1	1	1	1	1	1	1	0	1	-4,651163	274,204711	315,889185	0
15.01.2021	19:24:05	0	0	3,389376	2,3415	302,0832	0,274	85,166	0	1016,7	6,9	9	8,9	1	1	1	1	1	1	1	1	1	0	1	-7,117689	274,337205	314,042643	0
15.01.2021	19:24:06	0	0	2,937459	2,40825	302,0616	0,269	85,162	0	1016,88	6,8	9	8,9	1	1	1	1	1	1	1	1	1	0	1	-14,65821	274,337205	306,502121	0
15.01.2021	19:24:07	0	0	2,485558	2,48625	291,8736	0,272	85,165	0	1016,84	7	9	8,8	1	1	1	1	1	1	1	1	1	0	1	-10,359408	274,373498	310,970908	0
15.01.2021	19:24:08	0	0	3,502355	2,52825	292,9356	0,273	85,169	0	1016,9	7	9	8,9	1	1	1	1	1	1	1	1	1	0	1	-8,174771	274,281386	312,724257	0
15.01.2021	19:24:09	0	0	5,084064	2,44575	306,1368	0,271	85,164	0	1016,82	7	9	8,9	1	1	1	1	1	1	1	1	1	0	1	-14,446794	274,376526	306,897705	0
15.01.2021	19:24:10	0	0	4,29321	2,448	300,1464	0,272	85,153	0	1016,7	7	9	8,9	1	1	1	1	1	1	1	1	1	0	1	-12,262156	274,350807	308,961874	0
15.01.2021	19:24:11	0	0	2,485543	2,40075	298,692	0,268	85,156	0	1016,82	6,9	9	8,9	1	1	1	1	1	1	1	1	1	0	1	-10,359408	274,362906	310,921289	0
15.01.2021	19:24:12	0	0	3,728314	2,31975	305,3628	0,269	85,161	0	1016,68	6,9	9	8,9	1	1	1	1	1	1	1	1	1	0	1	-8,174771	274,365932	313,1201	0
15.01.2021	19:24:13	0	0	3,163418	2,25	299,8476	0,268	85,156	0	1016,74	6,9	9	8,9	1	1	1	1	1	1	1	1	1	0	1	-10,077519	274,255794	310,701757	0
15.01.2021	19:24:14	0	0	2,711517	2,1405	314,0352	0,271	85,161	0	1016,62	6,9	9	8,8	1	1	1	1	1	1	1	1	1	0	1	-10,288936	274,20021	310,230367	0
15.01.2021	19:24:15	0	0	3,841293	2,142	302,4432	0,269	85,155	0	1016,66	7	9	8,9	1	1	1	1	1	1	1	1	1	0	1	-7,963354	274,282893	312,942724	0
15.01.2021	19:24:16	0	0	2,711501	2,151	305,01	0,275	85,169	0	1016,98	6,8	9	8,9	1	1	1	1	1	1	1	1	1	0	1	-4,22833	274,204711	316,312018	0
15.01.2021	19:24:17	0	0	4,519168	2,13075	306,1008	0,267	85,162	0	1016,8	6,9	9	8,9	1	1	1	1	1	1	1	1	1	0	1	-10,782241	274,294949	310,180263	0
15.01.2021	19:24:18	0	0	4,29321	2,19225	306,144	0,268	85,158	0	1016,76	6,8	9	8,9	1	1	1	1	1	1	1	1	1	0	1	-10,711769	274,365932	310,583102	0
15.01.2021	19:24:19	0	0	3,163418	2,30025	305,3196	0,271	85,159	0	1016,86	6,9	9	8,9	1	1	1	1	1	1	1	1	1	0	1	-5,919662	274,255794	314,859614	0
15.01.2021	19:24:20	0	0	3,728314	2,3865	308,8656	0,269	85,165	0	1016,76	6,9	9	8,9	1	1	1	1	1	1	1	1	1	0	1	-9,654686	274,375012	311,682721	0
15.01.2021	19:24:21	0	0	4,632148	2,307	309,8232	0,265	85,17	0	1016,74	6,8	9	8,9	1	1	1	1	1	1	1	1	1	0	1	-10,42988	274,28892	310,504405	0
15.01.2021	19:24:22	0	0	3,050457	2,166	310,3668	0,276	85,178	0	1016,86	7	9	8,8	1	1	1	1	1	1	1	1	1	0	1	-10,782241	274,390156	310,626114	0
15.01.2021	19:24:23	0	0	4,745127	2,14125	304,3008	0,271	85,175	0	1016,84	7	9	8,9	1	1	1	1	1	1	1	1	1	0	1	-8,245243	274,261812	312,562192	0
15.01.2021	19:24:24	0	0	2,485558	2,2755	309,1968	0,271	85,17	0	1016,78	6,9	9	8,8	1	1	1	1	1	1	1	1	1	0	1	-11,134602	274,376526	310,209897	0
15.01.2021	19:24:25	0	0	4,067252	2,40675	302,8392	0,271	85,175	0	1016,8	6,9	9	8,9	1	1	1	1	1	1	1	1	1	0	1	-5,84919	274,275361	315,021644	0
15.01.2021	19:24:26	0	0	2,82448	2,5095	304,2108	0,267	85,165	0	1016,84	7	9	8,9	1	1	1	1	1	1	1	1	1	0	1	-5,919662	274,207712	314,634719	0
15.01.2021	19:24:27	0	0	3,163418	2,421	297,5292	0,267	85,169	0	1016,72	6,9	9	8,9	1	1	1	1	1	1	1	1	1	0	1	-8,45666	274,258803	312,336695	0
15.01.2021	19:24:28	0	0	2,711517	2,355	308,4948	0,269	85,181	0	1016,82	6,9	9	8,8	1	1	1	1	1	1	1	1	1	0	1	-9,231853	274,215217	311,357623	0
15.01.2021	19:24:29	0	0	4,519168	2,2515	305,352	0,274	85,159	0	1016,8	7	9	8,9	1	1	1	1	1	1	1	1	1	0	1	-11,768851	274,278374	309,116078	0
15.01.2021	19:24:30	0	0	2,937459	2,1945	310,248	0,269	85,171	0	1016,78	7	9	8,9	1	1	1	1	1	1	1	1	1	0	1	-7,681466	274,384097	313,698502	0
15.01.2021	19:24:31	0	0	3,502355	2,17575	303,8796	0,271	85,174	0	1016,72	6,9	9	8,9	1	1	1	1	1	1	1	1	1	0	1	-7,892882	274,224226	312,73873	0
15.01.2021	19:24:32	0	0	5,084095	2,199	302,8068	0,276	85,179	0	1016,82	6,9	9	8,8	1	1	1	1	1	1	1	1	1	0	1	-8,80902	274,204711	311,731327	0
15.01.2021	19:24:33	0	0	3,163418	2,1285	300,7764	0,274	85,18	0	1016,86	6,9	9	8,9	1	1	1	1	1	1	1	1	1	0	1	-11,134602	274,338716	310,032804	0
15.01.2021	19:24:34	0	0	2,937459	2,076	294,408	0,27	85,173	0	1016,78	6,8	9	8,9	1	1	1	1	1	1	1	1	1	0	1	-5,778717	274,189712	314,691503	0
15.01.2021	19:24:35	0	0	3,728314	2,0475	295,1712	0,273	85,179	0	1016,76	7	9	8,9	1	1	1	1	1	1	1	1	1	0	1	-10,359408	274,246769	310,377648	0
15.01.2021	19:24:36	0	0	2,598522	2,0055	303,462	0,27	85,179	0	1016,84	6,9	9	8,9	1	1	1	1	1	1	1	1	1	0	1	-8,668076	274,19721	311,8372	0
15.01.2021	19:24:37	0	0	3,841293	1,95525	301,2588	0,276	85,18	0	1016,8	6,9	9	8,9	1	1	1	1	1	1	1	1	1	0	1	-11,134602	274,291934	309,813792	0
15.01.2021	19:24:38	0	0	3,050439	2,05275	292,6584	0,273	85,165	0	1016,8	6,8	9	8,9	1	1	1	1	1	1	1	1	1	0	1	-10,42988	274,37804	310,921711	0
15.01.2021	19:24:39	0	0	4,406189	2,36775	296,9136	0,271	85,176	0	1016,92	6,9	9	8,9	1	1	1	1	1	1	1	1	1	0	1	-9,020437	274,27988	311,871541	0
15.01.2021	19:24:40	0	0	3,502355	2,622	297,9576	0,269	85,177	0	1016,76	7	9	8,9	1	1	1	1	1	1	1	1	1	0	1	-8,386187	274,204711	312,15416	0
15.01.2021	19:24:41	0	0	3,389376	2,718	288,072	0,27	85,177	0	1016,82	7	9	8,9	1	1	1	1	1	1	1	1	1	0	1	-11,486963	274,285906	309,433218	0
15.01.2021	19:24:42	0	0	2,485543	2,66475	279,9468	0,272	85,187	0	1016,96	7	9	8,9	1	1	1	1	1	1	1	1	1	0	1	-4,016913	274,19721	316,488363	0
15.01.2021	19:24:43	0	0	3,954272	2,7135	287,3628	0,268	85,167	0	1016,86	6,8	9	8,9	1	1	1	1	1	1	1	1	1	0	1	-11,557435	274,254289	309,214803	0
15.01.2021	19:24:44	0	0	5,084064	2,86125	288,1728	0,267	85,174	0	1016,76	6,9	9	8,9	1	1	1	1	1	1	1	1	1	0	1	-6,765328	274,209212	313,796071	0
15.01.2021	19:24:45	0	0	2,372563	2,81025	288,4788	0,272	85,18	0	1016,82	6,8	9	8,9	1	1	1	1	1	1	1	1	1	0	1	-7,751938	274,322103	313,33768	0
15.01.2021	19:24:46	0	0	3,389376	2,58675	283,572	0,273	85,178	0	1016,7	7	9	8,9	1	1	1	1	1	1	1	1	1	0	1	-8,738548	274,19871	311,773741	0
15.01.2021	19:24:47	0	0	4,858106	2,46525	288,792	0,269	85,177	0	1016,8	7	9	8,9	1	1	1	1	1	1	1	1	1	0	1	-8,45666	274,282893	312,449418	0
15.01.2021	19:24:48	0	0	3,163418	2,50275	296,136	0,259	85,173	0	1016,9	6,8	9	8,9	1	1	1	1	1	1	1	1	1	0	1	-9,231853	274,19571	311,26641	0
15.01.2021	19:24:49	0	0	3,389376	2,58	305,3556	0,267	85,177	0	1016,8	6,9	9	8,9	1	1	1	1	1	1	1	1	1	0	1	-12,262156	274,299472	308,721518	0
15.01.2021	19:24:50	0	0	2,259584	2,7165	314,82	0,264	85,162	0	1016,66	6,9	9	8,9	1	1	1	1	1	1	1	1	1	0	1	-6,906272	274,373498	314,424044	0
15.01.2021	19:24:51	0	0	2,598522	2,68275	320,7096	0,27	85,168	0	1016,8	6,9	9	8,9	1	1	1	1	1	1	1	1	1	0	1	-13,742072	274,314556	307,312215	0
15.01.2021	19:24:52	0	0	3,615335	2,62425	314,406	0,272	85,178	0	1016,8	6,9	9	8,9	1	1	1	1	1	1	1	1	1	0	1	-9,231853	274,35988	312,034673	0
15.01.2021	19:24:53	0	0	4,858106	2,4885	299,736	0,268	85,154	0	1016,86	6,9	9	8,9	1	1	1	1	1	1	1	1	1	0	1	-8,668076	274,338716	312,49933	0
15.01.2021	19:24:54	0	0	3,615335	2,41575	310,6584	0,276	85,182	0	1016,94	6,9	9	8,9	1	1	1	1	1	1	1	1	1	0	1	-11,134602	274,382582	310,238271	0
15.01.2021	19:24:55	0	0	3,276397	2,40225	294,1812	0,268	85,171	0	1016,8	6,9	9	8,9	1	1	1	1	1	1	1	1	1	0	1	-8,45666	274,257298	312,329655	0
15.01.2021	19:24:56	0	0	2,82448	2,19225	324,756	0,266	85,174	0	1016,88	7	9	8,9	1	1	1	1	1	1	1	1	1	0	1	-5,84919	274,20021	314,670113	0
15.01.2021	19:24:57	0	0	3,050457	2,0745	323,2836	0,269	85,187	0	1016,94	6,9	9	8,8	1	1	1	1	1	1	1	1	1	0	1	-12,262156	274,337205	308,898175	0
15.01.2021	19:24:58	0	0	3,728314	1,86525	319,9824	0,269	85,177	0	1016,78	7	9	8,9	1	1	1	1	1	1	1	1	1	0	1	-10,711769	274,379554	310,646916	0
15.01.2021	19:24:59	0	0	3,163418	1,68075	315,5256	0,266	85,177	0	1016,86	6,9	9	8,9	1	1	1	1	1	1	1	1	1	0	1	-11,768851	274,30098	309,221882	0
15.01.2021	19:25:00	0	0	4,745127	1,50375	309,9456	0,264	85,17	0	1016,84	6,9	9	8,9	1	1	1	1	1	1	1	1	1	0	1	-6,624383	274,185214	313,824812	0
15.01.2021	19:25:01	0	0	4,745127	1,50375	309,9456	0,264	85,17	0	1016,84	6,9	9	8,9	1	1	1	1	1	1	1	1	1	0	1	-10,570825	274,338716	310,596582	0
15.01.2021	19:25:02	0	0	4,632175	1,46475	315,4608	0,271	85,191	0	1016,9	6,8	9	8,8	1	1	1	1	1	1	1	1	1	0	1	-10,570825	274,367445	310,731134	0
15.01.2021	19:25:03	0	0	2,598522	1,5015	312,8616	0,268	85,184	0	1016,76	6,9	9	8,9	1	1	1	1	1	1	1	1	1	0	1	-6,8358	274,281386	314,063228	0
15.01.2021	19:25:04	0	0	4,632148	1,69875	320,886	0,27	85,178	0	1016,82	6,9	9	8,9	1	1	1	1	1	1	1	1	1	0	1	-9,231853	274,20171	311,294464	0
15.01.2021	19:25:05	0	0	4,180231	1,719	317,4192	0,27	85,17	0	1016,78	6,9	9	8,9	1	1	1	1	1	1	1	1	1	0	1	-11,205074	274,316065	309,856278	0
15.01.2021	19:25:06	0	0	2,937459	1,734	318,4128	0,262	85,183	0	1016,74	6,9	9	8,9	1	1	1	1	1	1	1	1	1	0	1	-7,892882	274,387126	313,501278	0
15.01.2021	19:25:07	0	0	3,728314	1,6575	317,3904	0,269	85,183	0	1016,86	6,9	9	8,9	1	1	1	1	1	1	1	1	1	0	1	-10,923185	274,19721	309,582091	0
15.01.2021	19:25:08	0	0	4,519168	1,51875	312,8472	0,27	85,195	0	1016,82	6,9	9	8,9	1	1	1	1	1	1	1	1	1	0	1	-8,668076	274,269338	312,174574	0
15.01.2021	19:25:09	0	0	5,084064	1,51125	313,3044	0,271	85,186	0	1016,8	7	9	8,9	1	1	1	1	1	1	1	1	1	0	1	-5,708245	274,19721	314,797031	0
15.01.2021	19:25:10	0	0	2,146605	1,4865	318,3588	0,264	85,179	0	1016,54	7	9	8,9	1	1	1	1	1	1	1	1	1	0	1	-8,104299	274,252785	312,660901	0
15.01.2021	19:25:11	0	0	3,050439	1,488	318,4164	0,273	85,192	0	1017	6,9	9	8,9	1	1	1	1	1	1	1	1	1	0	1	-9,161381	274,353831	312,076812	0
15.01.2021	19:25:12	0	0	4,971085	1,47	312,12	0,272	85,195	0	1016,8	7	9	8,9	1	1	1	1	1	1	1	1	1	0	1	-10,923185	274,35988	310,343341	0
15.01.2021	19:25:13	0	0	4,406189	1,4745	306,7452	0,268	85,191	0	1016,82	6,9	9	8,9	1	1	1	1	1	1	1	1	1	0	1	-6,483439	274,189712	313,986781	0
15.01.2021	19:25:14	0	0	4,632148	1,4655	306,486	0,266	85,198	0	1016,72	6,9	9	8,9	1	1	1	1	1	1	1	1	1	0	1	-10,711769	274,332673	310,427341	0
15.01.2021	19:25:15	0	0	3,050457	1,46775	314,0748	0,266	85,189	0	1016,9	7	9	8,8	1	1	1	1	1	1	1	1	1	0	1	-6,906272	274,362906	314,374425	0
15.01.2021	19:25:16	0	0	3,728314	1,54125	308,4516	0,264	85,191	0	1016,82	6,9	9	8,9	1	1	1	1	1	1	1	1	1	0	1	-9,936575	274,236246	310,751255	0
15.01.2021	19:25:17	0	0	5,423002	1,539	310,626	0,27	85,19	0	1016,86	6,9	9	8,9	1	1	1	1	1	1	1	1	1	0	1	-6,694856	274,206211	313,852509	0
15.01.2021	19:25:18	0	0	3,841293	1,479	319,536	0,267	85,196	0	1016,84	6,9	9	8,9	1	1	1	1	1	1	1	1	1	0	1	-7,188161	274,269338	313,654489	0
15.01.2021	19:25:19	0	0	3,502355	1,497	315,2808	0,27	85,194	0	1016,82	6,9	9	8,9	1	1	1	1	1	1	1	1	1	0	1	-10,288936	274,37804	311,062655	0
15.01.2021	19:25:20	0	0	4,745127	1,49775	308,0808	0,269	85,211	0	1016,96	6,8	9	8,9	1	1	1	1	1	1	1	1	1	0	1	-9,231853	274,320593	311,850697	0
15.01.2021	19:25:21	0	0	2,485543	1,44675	296,1216	0,269	85,186	0	1016,74	6,9	9	8,9	1	1	1	1	1	1	1	1	1	0	1	-9,090909	274,19571	311,407354	0
15.01.2021	19:25:22	0	0	4,971085	1,40025	310,6512	0,268	85,186	0	1016,82	7	9	8,9	1	1	1	1	1	1	1	1	1	0	1	-11,134602	274,243762	309,588387	0
15.01.2021	19:25:23	0	0	3,841293	1,299	314,3808	0,268	85,201	0	1016,74	6,9	9	8,9	1	1	1	1	1	1	1	1	1	0	1	-9,725159	274,368958	311,583888	0
15.01.2021	19:25:24	0	0	4,519195	1,35975	308,8764	0,261	85,205	0	1016,8	6,9	9	8,8	1	1	1	1	1	1	1	1	1	0	1	-11,980268	274,264822	308,841252	0
15.01.2021	19:25:25	0	0	4,745127	1,551	312,768	0,265	85,209	0	1017,04	6,9	9	8,9	1	1	1	1	1	1	1	1	1	0	1	-4,580691	274,189712	315,88953	0
15.01.2021	19:25:26	0	0	5,084064	1,62525	320,7096	0,269	85,207	0	1016,82	6,8	9	8,9	1	1	1	1	1	1	1	1	1	0	1	-6,483439	274,290427	314,4579	0
15.01.2021	19:25:27	0	0	4,406189	1,66875	313,2	0,268	85,209	0	1016,78	7	9	8,9	1	1	1	1	1	1	1	1	1	0	1	-7,610994	274,19421	312,880258	0
15.01.2021	19:25:28	0	0	3,615335	1,8015	310,6692	0,262	85,209	0	1016,86	6,9	9	8,9	1	1	1	1	1	1	1	1	1	0	1	-8,879493	274,334184	312,266691	0
15.01.2021	19:25:29	0	0	3,050439	1,86225	308,4444	0,26	85,21	0	1016,8	6,9	9	8,9	1	1	1	1	1	1	1	1	1	0	1	-9,372798	274,19571	311,125466	0
15.01.2021	19:25:30	0	0	3,615335	1,9005	322,6068	0,267	85,207	0	1016,88	6,9	9	8,9	1	1	1	1	1	1	1	1	1	0	1	-7,188161	274,209212	313,373238	0
15.01.2021	19:25:31	0	0	2,372563	1,77975	302,1048	0,265	85,235	0	1017,16	6,9	9	8,9	1	1	1	1	1	1	1	1	1	0	1	-10,711769	274,234743	309,969032	0
15.01.2021	19:25:32	0	0	2,937459	1,68225	307,1448	0,266	85,214	0	1016,84	6,9	9	8,9	1	1	1	1	1	1	1	1	1	0	1	-14,517266	274,381068	306,848512	0
15.01.2021	19:25:33	0	0	2,937459	1,536	309,8664	0,269	85,209	0	1016,82	6,9	9	8,9	1	1	1	1	1	1	1	1	1	0	1	-7,610994	274,31003	313,422103	0
15.01.2021	19:25:34	0	0	2,485543	1,38	303,9228	0,268	85,201	0	1016,8	6,9	9	8,9	1	1	1	1	1	1	1	1	1	0	1	-8,245243	274,234743	312,435558	0
15.01.2021	19:25:35	0	0	4,519168	1,29675	306,0612	0,269	85,211	0	1016,8	6,9	9	8,9	1	1	1	1	1	1	1	1	1	0	1	-9,090909	274,266328	311,737653	0
15.01.2021	19:25:36	0	0	4,745127	1,35	310,5936	0,269	85,209	0	1016,9	6,9	9	8,9	1	1	1	1	1	1	1	1	1	0	1	-10,147992	274,182217	310,28719	0
15.01.2021	19:25:37	0	0	2,598522	1,41975	301,5972	0,265	85,191	0	1016,78	6,8	9	8,9	1	1	1	1	1	1	1	1	1	0	1	-9,302326	274,254289	311,469912	0
15.01.2021	19:25:38	0	0	4,745127	1,47825	291,3804	0,271	85,213	0	1016,84	6,9	9	8,9	1	1	1	1	1	1	1	1	1	0	1	-4,016913	274,370471	317,299222	0
15.01.2021	19:25:39	0	0	2,485558	1,4805	308,0304	0,264	85,196	0	1016,72	6,9	9	8,8	1	1	1	1	1	1	1	1	1	0	1	-12,191684	274,314556	308,862603	0
15.01.2021	19:25:40	0	0	2,711501	1,443	326,9988	0,265	85,205	0	1016,94	6,9	9	8,9	1	1	1	1	1	1	1	1	1	0	1	-8,45666	274,219721	312,153882	0
15.01.2021	19:25:41	0	0	3,050439	1,3485	305,658	0,268	85,203	0	1016,86	6,9	9	8,9	1	1	1	1	1	1	1	1	1	0	1	-12,755462	274,334184	308,390722	0
15.01.2021	19:25:42	0	0	2,485558	1,36875	300,0384	0,254	85,201	0	1016,74	6,9	9	8,8	1	1	1	1	1	1	1	1	1	0	1	-8,315715	274,284399	312,597414	0
15.01.2021	19:25:43	0	0	2,711517	1,4535	299,7972	0,262	85,208	0	1016,78	6,9	9	8,8	1	1	1	1	1	1	1	1	1	0	1	-10,359408	274,189712	310,110812	0
15.01.2021	19:25:44	0	0	3,276397	1,54425	304,2756	0,267	85,204	0	1016,72	6,9	9	8,9	1	1	1	1	1	1	1	1	1	0	1	-5,637773	274,267833	315,197833	0
15.01.2021	19:25:45	0	0	3,954272	1,58475	289,6884	0,269	85,195	0	1016,94	6,9	9	8,9	1	1	1	1	1	1	1	1	1	0	1	-7,188161	274,19871	313,324128	0
15.01.2021	19:25:46	0	0	3,050439	1,73625	299,3796	0,262	85,207	0	1016,96	6,9	9	8,9	1	1	1	1	1	1	1	1	1	0	1	-9,513742	274,260308	311,286653	0
15.01.2021	19:25:47	0	0	2,598522	1,7805	297,1584	0,264	85,206	0	1016,78	6,9	9	8,9	1	1	1	1	1	1	1	1	1	0	1	-8,386187	274,188213	312,077024	0
15.01.2021	19:25:48	0	0	3,276397	1,809	295,1244	0,267	85,193	0	1016,76	6,9	9	8,9	1	1	1	1	1	1	1	1	1	0	1	-7,963354	274,207712	312,591027	0
15.01.2021	19:25:49	0	0	3,050439	1,7175	302,4504	0,26	85,212	0	1016,94	6,9	9	8,9	1	1	1	1	1	1	1	1	1	0	1	-14,235377	274,188213	306,227834	0
15.01.2021	19:25:50	0	0	4,29321	1,70475	305,7444	0,262	85,201	0	1016,8	6,9	9	8,9	1	1	1	1	1	1	1	1	1	0	1	-9,725159	274,270844	311,124536	0
15.01.2021	19:25:51	0	0	3,050439	1,75575	302,004	0,268	85,2	0	1016,86	6,9	9	8,9	1	1	1	1	1	1	1	1	1	0	1	-6,624383	274,376526	314,720115	0
15.01.2021	19:25:52	0	0	3,050439	1,75275	314,028	0,261	85,18	0	1016,62	6,9	9	8,9	1	1	1	1	1	1	1	1	1	0	1	-12,121212	274,31003	308,911884	0
15.01.2021	19:25:53	0	0	4,29321	1,78275	303,8256	0,258	85,184	0	1016,74	6,9	9	8,9	1	1	1	1	1	1	1	1	1	0	1	-5,355884	274,192711	315,128356	0
15.01.2021	19:25:54	0	0	4,632148	1,797	312,4764	0,261	85,181	0	1016,82	6,9	9	8,9	1	1	1	1	1	1	1	1	1	0	1	-10,993658	274,305504	310,018254	0
15.01.2021	19:25:55	0	0	3,050457	1,74075	312,0912	0,264	85,197	0	1016,76	6,9	9	8,8	1	1	1	1	1	1	1	1	1	0	1	-8,597604	274,191211	311,879626	0
15.01.2021	19:25:56	0	0	3,502355	1,75125	317,7648	0,264	85,2	0	1016,78	6,9	9	8,9	1	1	1	1	1	1	1	1	1	0	1	-12,121212	274,237749	308,573649	0
15.01.2021	19:25:57	0	0	3,389397	1,84725	315,162	0,263	85,183	0	1016,82	6,9	9	8,8	1	1	1	1	1	1	1	1	1	0	1	-8,597604	274,173227	311,795553	0
15.01.2021	19:25:58	0	0	2,824497	1,96125	323,6652	0,262	85,184	0	1016,72	6,9	9	8,8	1	1	1	1	1	1	1	1	1	0	1	-8,668076	274,237749	312,026785	0
15.01.2021	19:25:59	0	0	3,050439	1,92	339,9156	0,263	85,186	0	1016,74	6,9	9	8,9	1	1	1	1	1	1	1	1	1	0	1	-12,473573	274,362906	308,807124	0
15.01.2021	19:26:00	0	0	5,197044	1,8525	314,4384	0,26	85,197	0	1016,84	6,9	9	8,9	1	1	1	1	1	1	1	1	1	0	1	-8,386187	274,248273	312,357904	0
15.01.2021	19:26:01	0	0	4,29321	1,797	321,102	0,258	85,189	0	1016,7	6,9	9	8,9	1	1	1	1	1	1	1	1	1	0	1	-7,751938	274,361393	313,521673	0
15.01.2021	19:26:02	0	0	2,711501	1,78575	305,7516	0,264	85,189	0	1016,74	6,9	9	8,9	1	1	1	1	1	1	1	1	1	0	1	-7,610994	274,257298	313,175321	0
15.01.2021	19:26:03	0	0	3,276397	1,81725	313,1784	0,26	85,188	0	1016,78	6,9	9	8,9	1	1	1	1	1	1	1	1	1	0	1	-9,302326	274,185214	311,14687	0
15.01.2021	19:26:04	0	0	4,971085	1,983	284,7636	0,258	85,166	0	1016,74	6,9	9	8,9	1	1	1	1	1	1	1	1	1	0	1	-7,258633	274,329652	313,866334	0
15.01.2021	19:26:05	0	0	4,632148	2,00025	293,6484	0,262	85,197	0	1016,84	6,9	9	8,9	1	1	1	1	1	1	1	1	1	0	1	-10,711769	274,245266	310,018253	0
15.01.2021	19:26:06	0	0	4,745127	2,0385	298,7424	0,265	85,189	0	1016,9	6,9	9	8,9	1	1	1	1	1	1	1	1	1	0	1	-6,765328	274,373498	314,564988	0
15.01.2021	19:26:07	0	0	4,858106	2,12775	290,448	0,26	85,186	0	1016,84	6,9	9	8,9	1	1	1	1	1	1	1	1	1	0	1	-9,795631	274,239252	310,906261	0
15.01.2021	19:26:08	0	0	4,29321	2,11425	297,2196	0,261	85,179	0	1016,9	6,9	9	8,9	1	1	1	1	1	1	1	1	1	0	1	-5,778717	274,355343	315,466558	0
15.01.2021	19:26:09	0	0	3,276397	2,352	309,168	0,264	85,173	0	1016,9	6,9	9	8,9	1	1	1	1	1	1	1	1	1	0	1	-8,668076	274,27988	312,223902	0
15.01.2021	19:26:10	0	0	4,858135	2,56725	303,84	0,261	85,199	0	1016,84	6,9	9	8,8	1	1	1	1	1	1	1	1	1	0	1	-5,567301	274,230235	315,092415	0
15.01.2021	19:26:11	0	0	3,050439	2,59125	300,4596	0,263	85,182	0	1016,96	6,9	9	8,9	1	1	1	1	1	1	1	1	1	0	1	-7,892882	274,340227	313,2816	0
15.01.2021	19:26:12	0	0	4,180231	2,60025	281,394	0,266	85,191	0	1016,82	6,9	9	8,9	1	1	1	1	1	1	1	1	1	0	1	-9,020437	274,294949	311,942067	0
15.01.2021	19:26:13	0	0	2,372563	2,4765	303,1668	0,263	85,192	0	1016,74	6,9	9	8,9	1	1	1	1	1	1	1	1	1	0	1	-5,355884	274,188213	315,107327	0
15.01.2021	19:26:14	0	0	4,29321	2,2935	287,1792	0,26	85,181	0	1016,7	6,9	9	8,9	1	1	1	1	1	1	1	1	1	0	1	-9,584214	274,329652	311,540752	0
15.01.2021	19:26:15	0	0	4,519168	2,214	275,2092	0,257	85,201	0	1016,86	6,9	9	8,9	1	1	1	1	1	1	1	1	1	0	1	-9,795631	274,362906	311,485066	0
15.01.2021	19:26:16	0	0	3,050439	2,28975	318,834	0,258	85,19	0	1016,8	6,9	9	8,9	1	1	1	1	1	1	1	1	1	0	1	-12,825934	274,31003	308,207163	0
15.01.2021	19:26:17	0	0	3,389376	2,21025	294,894	0,26	85,175	0	1016,62	6,9	9	8,9	1	1	1	1	1	1	1	1	1	0	1	-11,839323	274,341738	309,342235	0
15.01.2021	19:26:18	0	0	4,519168	2,28375	303,786	0,263	85,191	0	1016,76	6,9	9	8,9	1	1	1	1	1	1	1	1	1	0	1	-10,147992	274,192711	310,336249	0
15.01.2021	19:26:19	0	0	2,937477	2,20725	301,176	0,262	85,196	0	1016,72	6,9	9	8,8	1	1	1	1	1	1	1	1	1	0	1	-9,44327	274,260308	311,357125	0
15.01.2021	19:26:20	0	0	2,937459	2,049	311,382	0,263	85,192	0	1016,86	6,9	9	8,9	1	1	1	1	1	1	1	1	1	0	1	-11,06413	274,188213	309,399082	0
15.01.2021	19:26:21	0	0	2,82448	1,9215	317,0232	0,261	85,177	0	1016,82	6,9	9	8,9	1	1	1	1	1	1	1	1	1	0	1	-5,778717	274,307013	315,240255	0
15.01.2021	19:26:22	0	0	3,615356	1,9815	311,8932	0,245	85,206	0	1016,82	6,9	9	8,8	1	1	1	1	1	1	1	1	1	0	1	-9,513742	274,191211	310,963488	0
15.01.2021	19:26:23	0	0	2,824497	1,99725	316,98	0,264	85,203	0	1016,78	6,9	9	8,8	1	1	1	1	1	1	1	1	1	0	1	-9,866103	274,299472	311,117572	0
15.01.2021	19:26:24	0	0	5,084064	1,944	306,8316	0,263	85,199	0	1016,7	6,9	9	8,9	1	1	1	1	1	1	1	1	1	0	1	-4,792107	274,182217	315,643074	0
15.01.2021	19:26:25	0	0	4,858135	2,052	294,7968	0,263	85,209	0	1016,84	6,9	9	8,8	1	1	1	1	1	1	1	1	1	0	1	-9,090909	274,251281	311,667254	0
15.01.2021	19:26:26	0	0	4,293236	2,18325	302,4504	0,266	85,188	0	1016,72	6,9	9	8,8	1	1	1	1	1	1	1	1	1	0	1	-10,359408	274,373498	310,970908	0
15.01.2021	19:26:27	0	0	4,745127	2,319	298,2744	0,255	85,209	0	1016,84	6,9	9	8,9	1	1	1	1	1	1	1	1	1	0	1	-8,174771	274,299472	312,808904	0
15.01.2021	19:26:28	0	0	3,728314	2,43975	303,48	0,263	85,204	0	1016,72	6,9	9	8,9	1	1	1	1	1	1	1	1	1	0	1	-7,892882	274,347783	313,316988	0
15.01.2021	19:26:29	0	0	3,163418	2,5275	300,4488	0,258	85,211	0	1016,92	6,9	9	8,9	1	1	1	1	1	1	1	1	1	0	1	-15,292459	274,313047	305,754763	0
15.01.2021	19:26:30	0	0	3,615356	2,49825	302,8176	0,258	85,215	0	1016,84	6,9	9	8,8	1	1	1	1	1	1	1	1	1	0	1	-9,513742	274,367445	311,788216	0
15.01.2021	19:26:31	0	0	3,615356	2,3805	305,37	0,259	85,204	0	1016,82	6,9	9	8,8	1	1	1	1	1	1	1	1	1	0	1	-3,523608	274,228733	317,129081	0
15.01.2021	19:26:32	0	0	2,711517	2,36475	297,3564	0,264	85,2	0	1016,88	6,9	9	8,8	1	1	1	1	1	1	1	1	1	0	1	-10,007047	274,35988	311,259479	0
15.01.2021	19:26:33	0	0	4,067252	2,532	299,4012	0,26	85,215	0	1016,92	6,9	9	8,9	1	1	1	1	1	1	1	1	1	0	1	-9,725159	274,20171	310,801158	0
15.01.2021	19:26:34	0	0	4,745127	2,6835	302,0292	0,26	85,214	0	1016,72	6,9	9	8,9	1	1	1	1	1	1	1	1	1	0	1	-7,82241	274,343249	313,366225	0
15.01.2021	19:26:35	0	0	4,180231	2,7855	298,188	0,259	85,213	0	1016,88	6,9	9	8,9	1	1	1	1	1	1	1	1	1	0	1	-6,8358	274,215217	313,753676	0
15.01.2021	19:26:36	0	0	2,937459	2,84025	303,2352	0,259	85,221	0	1016,92	6,9	9	8,9	1	1	1	1	1	1	1	1	1	0	1	-4,862579	274,19871	315,64971	0
15.01.2021	19:26:37	0	0	5,197075	2,8305	296,1072	0,259	85,218	0	1016,78	6,9	9	8,8	1	1	1	1	1	1	1	1	1	0	1	-9,866103	274,261812	310,941333	0
15.01.2021	19:26:38	0	0	4,632148	2,862	297,9576	0,252	85,203	0	1016,84	6,9	9	8,9	1	1	1	1	1	1	1	1	1	0	1	-11,486963	274,20171	309,039354	0
15.01.2021	19:26:39	0	0	3,728314	2,787	308,8296	0,259	85,211	0	1017,04	6,9	9	8,9	1	1	1	1	1	1	1	1	1	0	1	-8,879493	274,19721	311,625783	0
15.01.2021	19:26:40	0	0	4,745127	2,64375	297,5796	0,262	85,206	0	1016,7	6,9	9	8,9	1	1	1	1	1	1	1	1	1	0	1	-7,681466	274,331163	313,450572	0
15.01.2021	19:26:41	0	0	4,971115	2,56575	297,9396	0,26	85,23	0	1016,9	6,9	9	8,8	1	1	1	1	1	1	1	1	1	0	1	-5,567301	274,358368	315,692141	0
15.01.2021	19:26:42	0	0	3,276397	2,37675	295,1424	0,255	85,207	0	1016,86	6,9	9	8,9	1	1	1	1	1	1	1	1	1	0	1	-10,359408	274,329652	310,765558	0
15.01.2021	19:26:43	0	0	3,502376	2,23425	294,5484	0,258	85,211	0	1016,78	6,9	9	8,8	1	1	1	1	1	1	1	1	1	0	1	-9,936575	274,322103	311,153043	0
15.01.2021	19:26:44	0	0	3,615356	2,1345	308,0232	0,262	85,22	0	1016,7	6,9	9	8,8	1	1	1	1	1	1	1	1	1	0	1	-7,399577	274,180718	313,028599	0
15.01.2021	19:26:45	0	0	4,406216	2,0145	305,7876	0,259	85,225	0	1016,92	6,9	9	8,8	1	1	1	1	1	1	1	1	1	0	1	-9,161381	274,340227	312,013101	0
15.01.2021	19:26:46	0	0	4,519168	1,929	309,2652	0,256	85,213	0	1016,88	6,9	9	8,9	1	1	1	1	1	1	1	1	1	0	1	-12,544045	274,328142	308,57385	0
15.01.2021	19:26:47	0	0	2,937459	1,866	320,7708	0,259	85,221	0	1016,92	6,9	9	8,9	1	1	1	1	1	1	1	1	1	0	1	-10,923185	274,192711	309,561055	0
15.01.2021	19:26:48	0	0	3,841316	1,78875	330,6996	0,254	85,208	0	1016,74	6,9	9	8,8	1	1	1	1	1	1	1	1	1	0	1	-16,27907	274,303996	304,725782	0
15.01.2021	19:26:49	0	0	2,485543	1,641	316,5912	0,259	85,205	0	1016,84	6,9	9	8,9	1	1	1	1	1	1	1	1	1	0	1	-9,795631	274,19571	310,702633	0
15.01.2021	19:26:50	0	0	2,711501	1,57425	318,4236	0,259	85,231	0	1016,78	6,9	9	8,9	1	1	1	1	1	1	1	1	1	0	1	-8,738548	274,31003	312,294548	0
15.01.2021	19:26:51	0	0	3,163437	1,422	315,9648	0,265	85,231	0	1016,76	6,9	9	8,8	1	1	1	1	1	1	1	1	1	0	1	-8,386187	274,185214	312,063008	0
15.01.2021	19:26:52	0	0	4,406189	1,31475	303,1848	0,259	85,228	0	1016,9	6,9	9	8,9	1	1	1	1	1	1	1	1	1	0	1	-9,231853	274,343249	311,956782	0
15.01.2021	19:26:53	0	0	3,615335	1,33275	293,688	0,25	85,219	0	1016,72	6,9	9	8,9	1	1	1	1	1	1	1	1	1	0	1	-9,161381	274,264822	311,660138	0
15.01.2021	19:26:54	0	0	4,180231	1,446	291,5136	0,259	85,223	0	1016,8	6,9	9	8,9	1	1	1	1	1	1	1	1	1	0	1	-8,80902	274,353831	312,429172	0
15.01.2021	19:26:55	0	0	3,050457	1,566	290,4444	0,253	85,232	0	1016,8	6,9	9	8,8	1	1	1	1	1	1	1	1	1	0	1	-8,527132	274,297964	312,449485	0
15.01.2021	19:26:56	0	0	2,485543	1,6365	288,0684	0,258	85,225	0	1016,9	6,9	9	8,9	1	1	1	1	1	1	1	1	1	0	1	-6,131078	274,19871	314,381211	0
15.01.2021	19:26:57	0	0	2,598522	1,569	297,9288	0,255	85,226	0	1016,82	6,9	9	8,9	1	1	1	1	1	1	1	1	1	0	1	-7,399577	274,307013	313,619395	0
15.01.2021	19:26:58	0	0	4,406189	1,467	311,0328	0,257	85,228	0	1016,84	6,9	9	8,9	1	1	1	1	1	1	1	1	1	0	1	-9,936575	274,362906	311,344122	0
15.01.2021	19:26:59	0	0	3,841293	1,47375	307,3392	0,246	85,209	0	1016,86	6,9	9	8,9	1	1	1	1	1	1	1	1	1	0	1	-7,399577	274,31003	313,633519	0
15.01.2021	19:27:00	0	0	2,598537	1,47975	315,2124	0,263	85,229	0	1016,96	6,9	9	8,8	1	1	1	1	1	1	1	1	1	0	1	-8,597604	274,189712	311,872616	0
15.01.2021	19:27:01	0	0	3,163418	1,51575	313,2648	0,255	85,231	0	1016,92	6,9	9	8,9	1	1	1	1	1	1	1	1	1	0	1	-8,527132	274,326632	312,583693	0
15.01.2021	19:27:02	0	0	3,163437	1,7475	303,1956	0,258	85,232	0	1016,84	6,9	9	8,8	1	1	1	1	1	1	1	1	1	0	1	-9,725159	274,352319	311,505953	0
15.01.2021	19:27:03	0	0	3,728336	1,97175	311,7708	0,262	85,232	0	1016,94	6,9	9	8,8	1	1	1	1	1	1	1	1	1	0	1	-13,03735	274,278374	307,847579	0
15.01.2021	19:27:04	0	0	4,406216	2,0895	304,2504	0,259	85,228	0	1016,86	6,9	9	8,8	1	1	1	1	1	1	1	1	1	0	1	-8,245243	274,347783	312,964627	0
15.01.2021	19:27:05	0	0	2,485543	2,21325	308,898	0,263	85,223	0	1016,66	6,9	9	8,9	1	1	1	1	1	1	1	1	1	0	1	-11,06413	274,216718	309,532368	0
15.01.2021	19:27:06	0	0	4,519195	2,42925	307,2096	0,258	85,218	0	1016,82	6,9	9	8,8	1	1	1	1	1	1	1	1	1	0	1	-8,45666	274,322103	312,632959	0
15.01.2021	19:27:07	0	0	4,858135	2,93175	317,7612	0,248	85,214	0	1016,58	6,9	9	8,8	1	1	1	1	1	1	1	1	1	0	1	-5,426357	274,362906	315,85434	0
15.01.2021	19:27:08	0	0	2,485558	3,22875	321,5088	0,256	85,225	0	1016,84	6,9	9	8,8	1	1	1	1	1	1	1	1	1	0	1	-8,879493	274,212214	311,695944	0
15.01.2021	19:27:09	0	0	3,728336	3,264	311,4	0,256	85,231	0	1016,82	6,9	9,1	8,8	1	1	1	1	1	1	1	1	1	0	1	-12,825934	274,216718	307,770563	0
15.01.2021	19:27:10	0	0	3,615356	3,177	316,6668	0,259	85,223	0	1016,92	6,9	9	8,8	1	1	1	1	1	1	1	1	1	0	1	-8,527132	274,183716	311,915056	0
15.01.2021	19:27:11	0	0	3,615356	3,219	307,6776	0,252	85,223	0	1016,82	6,9	9	8,8	1	1	1	1	1	1	1	1	1	0	1	-9,44327	274,322103	311,646348	0
15.01.2021	19:27:12	0	0	2,711517	3,25575	324,4248	0,247	85,218	0	1016,84	6,9	9	8,8	1	1	1	1	1	1	1	1	1	0	1	-9,936575	274,356855	311,315783	0
15.01.2021	19:27:13	0	0	2,937477	2,955	311,742	0,253	85,208	0	1016,86	6,9	9	8,8	1	1	1	1	1	1	1	1	1	0	1	-10,923185	274,257298	309,863129	0
15.01.2021	19:27:14	0	0	2,824497	2,6925	315,9072	0,256	85,229	0	1016,74	6,9	9	8,8	1	1	1	1	1	1	1	1	1	0	1	-9,866103	274,368958	311,442944	0
15.01.2021	19:27:15	0	0	4,745155	2,57175	311,0724	0,255	85,209	0	1016,9	6,9	9	8,8	1	1	1	1	1	1	1	1	1	0	1	-9,231853	274,258803	311,561501	0
15.01.2021	19:27:16	0	0	2,485558	2,5515	305,4024	0,26	85,218	0	1016,86	6,9	9,1	8,8	1	1	1	1	1	1	1	1	1	0	1	-9,231853	274,349295	311,985096	0
15.01.2021	19:27:17	0	0	3,050457	2,50275	316,6992	0,276	85,231	0	1017	6,9	9	8,8	1	1	1	1	1	1	1	1	1	0	1	-7,681466	274,209212	312,879933	0
15.01.2021	19:27:18	0	0	4,632175	2,7765	305,0532	0,254	85,228	0	1016,96	6,9	9	8,8	1	1	1	1	1	1	1	1	1	0	1	-9,302326	274,183716	311,139862	0
15.01.2021	19:27:19	0	0	3,389397	3,03	302,8032	0,258	85,205	0	1016,86	6,9	9	8,8	1	1	1	1	1	1	1	1	1	0	1	-9,372798	274,245266	311,357224	0
15.01.2021	19:27:20	0	0	2,259584	3,17325	311,832	0,255	85,216	0	1016,88	6,9	9	8,9	1	1	1	1	1	1	1	1	1	0	1	-8,45666	274,176223	311,950503	0
15.01.2021	19:27:21	0	0	3,050439	3,225	314,4528	0,256	85,217	0	1016,92	6,9	9	8,9	1	1	1	1	1	1	1	1	1	0	1	-9,020437	274,19721	311,484839	0
15.01.2021	19:27:22	0	0	4,632148	3,1035	308,7936	0,254	85,205	0	1016,72	6,9	9	8,9	1	1	1	1	1	1	1	1	1	0	1	-4,016913	274,326632	317,093912	0
15.01.2021	19:27:23	0	0	2,937477	3,0915	311,3676	0,256	85,226	0	1016,86	6,9	9	8,8	1	1	1	1	1	1	1	1	1	0	1	-6,272023	274,189712	314,198198	0
15.01.2021	19:27:24	0	0	4,745155	2,87625	324,7812	0,249	85,21	0	1016,84	6,9	9	8,8	1	1	1	1	1	1	1	1	1	0	1	-8,386187	274,249777	312,364939	0
15.01.2021	19:27:25	0	0	4,180256	2,835	319,5756	0,25	85,224	0	1016,76	6,9	9	8,8	1	1	1	1	1	1	1	1	1	0	1	-8,597604	274,177721	311,816562	0
15.01.2021	19:27:26	0	0	3,389397	3,0705	319,9716	0,252	85,209	0	1016,78	6,9	9	8,8	1	1	1	1	1	1	1	1	1	0	1	-9,231853	274,305504	311,780058	0
15.01.2021	19:27:27	0	0	4,519168	3,19125	330,3504	0,252	85,227	0	1016,98	6,9	9	8,9	1	1	1	1	1	1	1	1	1	0	1	-8,879493	274,341738	312,302066	0
15.01.2021	19:27:28	0	0	2,824497	3,1125	333,3888	0,248	85,22	0	1016,7	6,9	9	8,8	1	1	1	1	1	1	1	1	1	0	1	-10,500352	274,165738	309,857802	0
15.01.2021	19:27:29	0	0	4,745155	2,94225	332,4168	0,248	85,233	0	1016,8	6,9	9	8,8	1	1	1	1	1	1	1	1	1	0	1	-8,245243	274,252785	312,519957	0
15.01.2021	19:27:30	0	0	4,519168	3,051	342,7308	0,253	85,228	0	1016,76	6,9	9	8,9	1	1	1	1	1	1	1	1	1	0	1	-8,597604	274,173227	311,795553	0
15.01.2021	19:27:31	0	0	2,598537	2,93925	337,5108	0,252	85,23	0	1016,72	6,9	9	8,8	1	1	1	1	1	1	1	1	1	0	1	-8,315715	274,237749	312,379146	0
15.01.2021	19:27:32	0	0	4,632148	2,691	315,54	0,256	85,228	0	1016,82	6,9	9	8,9	1	1	1	1	1	1	1	1	1	0	1	-7,681466	274,341738	313,500092	0
15.01.2021	19:27:33	0	0	2,711517	2,61975	331,4952	0,252	85,21	0	1016,9	6,9	9	8,8	1	1	1	1	1	1	1	1	1	0	1	-9,231853	274,171729	311,154301	0
15.01.2021	19:27:34	0	0	2,485558	2,71575	316,6776	0,248	85,214	0	1016,62	6,9	9	8,8	1	1	1	1	1	1	1	1	1	0	1	-12,896406	274,246769	307,84065	0
15.01.2021	19:27:35	0	0	3,728314	2,6985	310,698	0,244	85,231	0	1016,88	6,9	9	8,9	1	1	1	1	1	1	1	1	1	0	1	-11,486963	274,356855	309,765396	0
15.01.2021	19:27:36	0	0	2,937477	2,48625	309,1572	0,251	85,239	0	1016,9	6,9	9	8,8	1	1	1	1	1	1	1	1	1	0	1	-11,486963	274,282893	309,419115	0
15.01.2021	19:27:37	0	0	2,937459	2,25	294,3684	0,253	85,233	0	1017	6,9	9	8,9	1	1	1	1	1	1	1	1	1	0	1	-5,496829	274,188213	314,966383	0
15.01.2021	19:27:38	0	0	3,163437	2,27475	303,4548	0,252	85,237	0	1016,94	6,9	9	8,8	1	1	1	1	1	1	1	1	1	0	1	-6,342495	274,308521	314,683539	0
15.01.2021	19:27:39	0	0	4,519195	2,3115	297,9792	0,259	85,244	0	1016,82	6,9	9	8,8	1	1	1	1	1	1	1	1	1	0	1	-6,765328	274,350807	314,458702	0
15.01.2021	19:27:40	0	0	4,745155	2,304	295,128	0,249	85,236	0	1016,94	6,9	9,1	8,8	1	1	1	1	1	1	1	1	1	0	1	-10,077519	274,230235	310,582197	0
15.01.2021	19:27:41	0	0	3,841293	2,2125	295,11	0,251	85,234	0	1016,88	6,9	9	8,9	1	1	1	1	1	1	1	1	1	0	1	-7,399577	274,362906	313,88112	0
15.01.2021	19:27:42	0	0	4,180231	2,03775	295,5456	0,256	85,238	0	1016,8	6,9	9,1	8,9	1	1	1	1	1	1	1	1	1	0	1	-4,933051	274,358368	316,32639	0
15.01.2021	19:27:43	0	0	4,406216	1,9335	330,336	0,251	85,239	0	1016,7	6,9	9	8,8	1	1	1	1	1	1	1	1	1	0	1	-8,45666	274,221223	312,160905	0
15.01.2021	19:27:44	0	0	4,29321	1,82475	314,7768	0,254	85,254	0	1016,9	6,9	9	8,9	1	1	1	1	1	1	1	1	1	0	1	-6,412967	274,182217	314,022215	0
15.01.2021	19:27:45	0	0	3,954296	1,8165	321,1056	0,253	85,235	0	1016,86	6,9	9	8,8	1	1	1	1	1	1	1	1	1	0	1	-8,104299	274,293441	312,85115	0
15.01.2021	19:27:46	0	0	4,632148	1,8015	311,7492	0,251	85,243	0	1016,82	6,9	9	8,9	1	1	1	1	1	1	1	1	1	0	1	-6,060606	274,343249	315,128029	0
15.01.2021	19:27:47	0	0	2,598537	2,0325	318,3192	0,248	85,234	0	1016,9	6,9	9	8,8	1	1	1	1	1	1	1	1	1	0	1	-8,527132	274,290427	312,414207	0
15.01.2021	19:27:48	0	0	4,406216	2,418	311,3676	0,253	85,245	0	1016,74	6,9	9	8,8	1	1	1	1	1	1	1	1	1	0	1	-11,134602	274,343249	310,054033	0
15.01.2021	19:27:49	0	0	3,389397	2,64375	318,3228	0,252	85,244	0	1016,82	6,9	9,1	8,8	1	1	1	1	1	1	1	1	1	0	1	-7,892882	274,234743	312,787919	0
15.01.2021	19:27:50	0	0	4,406216	2,829	329,274	0,25	85,251	0	1016,84	6,9	9	8,8	1	1	1	1	1	1	1	1	1	0	1	-6,412967	274,173227	313,98019	0
15.01.2021	19:27:51	0	0	4,971115	2,8455	317,7144	0,246	85,247	0	1016,72	6,9	8,9	8,8	1	1	1	1	1	1	1	1	1	0	1	-4,933051	274,308521	316,092983	0
15.01.2021	19:27:52	0	0	4,406216	2,72925	318,4488	0,249	85,253	0	1016,86	6,9	9	8,8	1	1	1	1	1	1	1	1	1	0	1	-8,315715	274,192711	312,168525	0
15.01.2021	19:27:53	0	0	4,180256	2,69625	318,1824	0,249	85,237	0	1016,7	6,9	9	8,8	1	1	1	1	1	1	1	1	1	0	1	-8,80902	274,296456	312,16054	0
15.01.2021	19:27:54	0	0	2,485543	2,79975	321,1848	0,252	85,244	0	1016,94	6,9	9	8,9	1	1	1	1	1	1	1	1	1	0	1	-7,892882	274,364419	313,394901	0
15.01.2021	19:27:55	0	0	4,858135	2,81475	313,2792	0,253	85,254	0	1016,92	6,9	9,1	8,8	1	1	1	1	1	1	1	1	1	0	1	-9,513742	274,255794	311,265534	0
15.01.2021	19:27:56	0	0	2,824497	2,71725	313,3116	0,251	85,248	0	1016,9	6,9	9,1	8,8	1	1	1	1	1	1	1	1	1	0	1	-9,654686	274,362906	311,626011	0
15.01.2021	19:27:57	0	0	2,372578	2,7915	320,0616	0,255	85,265	0	1016,84	6,9	9	8,8	1	1	1	1	1	1	1	1	1	0	1	-6,765328	274,221223	313,852237	0
15.01.2021	19:27:58	0	0	3,389397	2,8935	317,0304	0,252	85,252	0	1016,92	6,9	9,1	8,8	1	1	1	1	1	1	1	1	1	0	1	-8,668076	274,347783	312,541794	0
15.01.2021	19:27:59	0	0	4,406216	2,87025	312,4188	0,251	85,259	0	1016,86	6,9	9	8,8	1	1	1	1	1	1	1	1	1	0	1	-8,45666	274,281386	312,442368	0
15.01.2021	19:28:00	0	0	4,519195	2,85975	324,6876	0,248	85,249	0	1016,78	6,9	9	8,8	1	1	1	1	1	1	1	1	1	0	1	-10,359408	274,367445	310,94255	0
15.01.2021	19:28:01	0	0	4,519195	2,85975	324,6876	0,248	85,249	0	1016,78	6,9	9	8,8	1	1	1	1	1	1	1	1	1	0	1	-10,288936	274,243762	310,434053	0
15.01.2021	19:28:02	0	0	2,824497	2,907	312,1812	0,252	85,25	0	1016,7	6,9	9	8,8	1	1	1	1	1	1	1	1	1	0	1	-8,245243	274,188213	312,217968	0
15.01.2021	19:28:03	0	0	4,180256	2,9745	318,852	0,252	85,252	0	1016,94	6,9	8,9	8,8	1	1	1	1	1	1	1	1	1	0	1	-7,681466	274,234743	312,999335	0
15.01.2021	19:28:04	0	0	2,824497	3,102	319,9968	0,248	85,261	0	1016,86	6,9	9	8,8	1	1	1	1	1	1	1	1	1	0	1	-9,725159	274,353831	311,513034	0
15.01.2021	19:28:05	0	0	2,937477	2,97675	319,2588	0,247	85,251	0	1016,96	6,9	9	8,8	1	1	1	1	1	1	1	1	1	0	1	-9,936575	274,296456	311,032985	0
15.01.2021	19:28:06	0	0	2,259598	2,94225	319,2048	0,252	85,262	0	1016,98	6,9	9	8,8	1	1	1	1	1	1	1	1	1	0	1	-4,651163	274,183716	315,791025	0
15.01.2021	19:28:07	0	0	2,146618	2,95125	324,3492	0,249	85,256	0	1016,8	6,9	9	8,8	1	1	1	1	1	1	1	1	1	0	1	-9,513742	274,307013	311,50523	0
15.01.2021	19:28:08	0	0	3,050457	3,00075	315,9396	0,254	85,262	0	1017	6,9	9	8,8	1	1	1	1	1	1	1	1	1	0	1	-8,668076	274,314556	312,386211	0
15.01.2021	19:28:09	0	0	2,937477	3,08475	319,2012	0,254	85,257	0	1016,86	6,9	9,1	8,8	1	1	1	1	1	1	1	1	1	0	1	-13,460183	274,347783	307,749687	0
15.01.2021	19:28:10	0	0	4,519195	3,1065	317,0124	0,25	85,259	0	1016,84	6,9	9	8,8	1	1	1	1	1	1	1	1	1	0	1	-6,694856	274,282893	314,211223	0
15.01.2021	19:28:11	0	0	3,841316	3,051	314,136	0,251	85,259	0	1016,96	6,9	9	8,8	1	1	1	1	1	1	1	1	1	0	1	-10,993658	274,164241	309,357498	0
15.01.2021	19:28:12	0	0	4,180256	2,931	310,6008	0,253	85,25	0	1016,78	6,9	9	8,8	1	1	1	1	1	1	1	1	1	0	1	-7,117689	274,325122	313,986067	0
15.01.2021	19:28:13	0	0	2,598537	2,73375	312,4692	0,254	85,258	0	1016,72	6,9	9,1	8,8	1	1	1	1	1	1	1	1	1	0	1	-6,624383	274,308521	314,401651	0
15.01.2021	19:28:14	0	0	2,485558	2,5215	306,828	0,249	85,275	0	1016,82	6,9	9	8,8	1	1	1	1	1	1	1	1	1	0	1	-12,896406	274,347783	308,313464	0
15.01.2021	19:28:15	0	0	3,615356	2,35875	303,2064	0,252	85,245	0	1016,78	6,9	9,1	8,8	1	1	1	1	1	1	1	1	1	0	1	-5,355884	274,213715	315,226571	0
15.01.2021	19:28:16	0	0	5,084095	2,24025	302,3784	0,247	85,267	0	1016,86	6,9	9,1	8,8	1	1	1	1	1	1	1	1	1	0	1	-6,906272	274,27988	313,985706	0
15.01.2021	19:28:17	0	0	4,067276	2,184	304,7148	0,247	85,248	0	1016,92	6,9	9	8,8	1	1	1	1	1	1	1	1	1	0	1	-6,624383	274,185214	313,824812	0
15.01.2021	19:28:18	0	0	3,841316	2,2185	304,7076	0,243	85,252	0	1016,76	6,9	9,1	8,8	1	1	1	1	1	1	1	1	1	0	1	-8,033827	274,282893	312,872251	0
15.01.2021	19:28:19	0	0	3,502376	2,23125	311,0256	0,248	85,274	0	1016,94	6,9	9	8,8	1	1	1	1	1	1	1	1	1	0	1	-6,906272	274,183716	313,535916	0
15.01.2021	19:28:20	0	0	4,406216	2,24925	304,9452	0,246	85,256	0	1016,78	6,9	9	8,8	1	1	1	1	1	1	1	1	1	0	1	-12,05074	274,323613	309,045947	0
15.01.2021	19:28:21	0	0	3,276417	2,256	314,1144	0,251	85,281	0	1016,84	6,9	9	8,8	1	1	1	1	1	1	1	1	1	0	1	-9,090909	274,234743	311,589892	0
15.01.2021	19:28:22	0	0	4,632175	2,3175	308,088	0,249	85,28	0	1016,88	6,9	9,1	8,8	1	1	1	1	1	1	1	1	1	0	1	-8,174771	274,176223	312,232391	0
15.01.2021	19:28:23	0	0	3,502376	2,40375	307,1952	0,249	85,268	0	1016,74	6,9	9	8,8	1	1	1	1	1	1	1	1	1	0	1	-6,20155	274,340227	314,972931	0
15.01.2021	19:28:24	0	0	4,406216	2,385	310,6692	0,247	85,275	0	1016,84	6,9	9,1	8,8	1	1	1	1	1	1	1	1	1	0	1	-6,483439	274,257298	314,302876	0
15.01.2021	19:28:25	0	0	4,745155	2,34975	310,6872	0,248	85,266	0	1016,78	6,9	9	8,8	1	1	1	1	1	1	1	1	1	0	1	-5,778717	274,170231	314,600436	0
15.01.2021	19:28:26	0	0	3,954296	2,364	320,7564	0,244	85,266	0	1016,82	6,9	9,1	8,8	1	1	1	1	1	1	1	1	1	0	1	-8,033827	274,230235	312,625889	0
15.01.2021	19:28:27	0	0	4,632175	2,3415	315,9288	0,25	85,279	0	1016,92	6,9	9	8,8	1	1	1	1	1	1	1	1	1	0	1	-12,262156	274,170231	308,116997	0
15.01.2021	19:28:28	0	0	2,259598	2,3175	316,2708	0,245	85,275	0	1016,84	6,9	9,1	8,8	1	1	1	1	1	1	1	1	1	0	1	-10,923185	274,281386	309,975843	0
15.01.2021	19:28:29	0	0	4,180256	2,358	314,5104	0,251	85,272	0	1016,94	6,9	9	8,8	1	1	1	1	1	1	1	1	1	0	1	-6,20155	274,325122	314,902205	0
15.01.2021	19:28:30	0	0	5,423035	2,4225	319,5936	0,255	85,273	0	1016,92	6,9	9,1	8,8	1	1	1	1	1	1	1	1	1	0	1	-10,993658	274,291934	309,954736	0
15.01.2021	19:28:31	0	0	2,711517	2,3565	312,4692	0,244	85,274	0	1016,78	6,9	9	8,8	1	1	1	1	1	1	1	1	1	0	1	-5,073996	274,273855	315,789791	0
15.01.2021	19:28:32	0	0	4,293236	2,27175	317,8836	0,251	85,278	0	1016,8	6,9	9,1	8,8	1	1	1	1	1	1	1	1	1	0	1	-8,245243	274,358368	313,014199	0
15.01.2021	19:28:33	0	0	3,050457	2,0445	309,2472	0,248	85,276	0	1016,84	6,9	9,1	8,8	1	1	1	1	1	1	1	1	1	0	1	-11,346018	274,293441	309,60943	0
15.01.2021	19:28:34	0	0	2,598537	1,79475	306,774	0,254	85,289	0	1016,84	6,9	9	8,8	1	1	1	1	1	1	1	1	1	0	1	-6,131078	274,191211	314,346152	0
15.01.2021	19:28:35	0	0	4,067276	1,64325	306,1656	0,25	85,275	0	1016,9	6,9	9,1	8,8	1	1	1	1	1	1	1	1	1	0	1	-8,104299	274,27988	312,78768	0
15.01.2021	19:28:36	0	0	5,084095	1,602	311,4684	0,251	85,285	0	1016,86	6,9	9	8,8	1	1	1	1	1	1	1	1	1	0	1	-11,486963	274,341738	309,694595	0
15.01.2021	19:28:37	0	0	3,163437	1,647	309,906	0,252	85,274	0	1016,8	6,9	9,1	8,8	1	1	1	1	1	1	1	1	1	0	1	-10,359408	274,23324	310,314364	0
15.01.2021	19:28:38	0	0	5,084064	1,63425	300,4596	0,251	85,287	0	1016,94	6,9	9,1	8,9	1	1	1	1	1	1	1	1	1	0	1	-8,033827	274,349295	313,183123	0
15.01.2021	19:28:39	0	0	4,632175	1,59675	314,7408	0,254	85,294	0	1016,7	6,9	8,9	8,8	1	1	1	1	1	1	1	1	1	0	1	-8,949965	274,353831	312,288228	0
15.01.2021	19:28:40	0	0	2,372578	1,578	308,4876	0,245	85,274	0	1016,8	6,9	9,1	8,8	1	1	1	1	1	1	1	1	1	0	1	-10,641297	274,210713	309,927121	0
15.01.2021	19:28:41	0	0	2,937477	1,608	299,8224	0,249	85,302	0	1016,98	6,9	9	8,8	1	1	1	1	1	1	1	1	1	0	1	-10,923185	274,34476	310,272527	0
15.01.2021	19:28:42	0	0	4,180256	1,67325	292,2912	0,253	85,284	0	1016,82	6,9	8,9	8,8	1	1	1	1	1	1	1	1	1	0	1	-6,131078	274,260308	314,669316	0
15.01.2021	19:28:43	0	0	3,389397	1,65975	297,9	0,251	85,289	0	1017,02	6,9	9	8,8	1	1	1	1	1	1	1	1	1	0	1	-12,191684	274,174725	308,208475	0
15.01.2021	19:28:44	0	0	4,745155	1,701	298,3644	0,246	85,284	0	1016,78	6,9	9	8,8	1	1	1	1	1	1	1	1	1	0	1	-6,483439	274,249777	314,267688	0
15.01.2021	19:28:45	0	0	2,711517	1,70025	303,2028	0,248	85,291	0	1016,86	6,9	9,1	8,8	1	1	1	1	1	1	1	1	1	0	1	-9,090909	274,174725	311,30925	0
15.01.2021	19:28:46	0	0	3,728336	1,64325	286,7832	0,251	85,297	0	1016,86	6,9	9	8,8	1	1	1	1	1	1	1	1	1	0	1	-6,624383	274,281386	314,274645	0
15.01.2021	19:28:47	0	0	3,615356	1,728	297,2736	0,252	85,291	0	1016,88	6,9	9	8,8	1	1	1	1	1	1	1	1	1	0	1	-7,117689	274,189712	313,352532	0
15.01.2021	19:28:48	0	0	3,389397	1,93425	307,188	0,248	85,289	0	1016,82	6,9	9,1	8,8	1	1	1	1	1	1	1	1	1	0	1	-8,527132	274,20321	312,0062	0
15.01.2021	19:28:49	0	0	4,971115	1,96575	292,2552	0,251	85,284	0	1016,74	6,9	9,1	8,8	1	1	1	1	1	1	1	1	1	0	1	-8,80902	274,311538	312,231139	0
15.01.2021	19:28:50	0	0	3,163437	1,92525	304,362	0,255	85,3	0	1016,92	6,9	9,1	8,8	1	1	1	1	1	1	1	1	1	0	1	-10,782241	274,176223	309,624921	0
15.01.2021	19:28:51	0	0	3,050457	1,81875	305,3844	0,249	85,28	0	1016,82	6,9	9,1	8,8	1	1	1	1	1	1	1	1	1	0	1	-14,023961	274,209212	306,537438	0
15.01.2021	19:28:52	0	0	2,824497	1,87725	299,718	0,252	85,276	0	1016,78	6,9	9,1	8,8	1	1	1	1	1	1	1	1	1	0	1	-6,131078	274,19571	314,367185	0
15.01.2021	19:28:53	0	0	2,824497	2,24925	296,1	0,254	85,29	0	1016,92	6,9	9,1	8,8	1	1	1	1	1	1	1	1	1	0	1	-9,725159	274,174725	310,675001	0
15.01.2021	19:28:54	0	0	2,485558	2,628	299,5524	0,245	85,276	0	1016,88	6,9	9	8,8	1	1	1	1	1	1	1	1	1	0	1	-11,839323	274,257298	308,946991	0
15.01.2021	19:28:55	0	0	3,050457	2,6685	286,0164	0,25	85,284	0	1016,72	6,9	9	8,8	1	1	1	1	1	1	1	1	1	0	1	-6,060606	274,341738	315,120952	0
15.01.2021	19:28:56	0	0	4,632175	2,5185	292,608	0,249	85,283	0	1016,8	6,9	8,9	8,8	1	1	1	1	1	1	1	1	1	0	1	-10,500352	274,311538	310,539807	0
15.01.2021	19:28:57	0	0	4,293236	2,487	286,2432	0,246	85,3	0	1016,84	6,9	9,1	8,8	1	1	1	1	1	1	1	1	1	0	1	-9,584214	274,227231	311,061449	0
15.01.2021	19:28:58	0	0	3,050457	2,38425	304,74	0,249	85,296	0	1016,74	6,9	9	8,8	1	1	1	1	1	1	1	1	1	0	1	-11,205074	274,308521	309,82096	0
15.01.2021	19:28:59	0	0	4,406216	2,319	304,8552	0,251	85,287	0	1016,76	6,9	8,9	8,8	1	1	1	1	1	1	1	1	1	0	1	-9,302326	274,161246	311,034835	0
15.01.2021	19:29:00	0	0	2,937477	2,3715	300,4776	0,243	85,282	0	1016,92	6,9	8,9	8,8	1	1	1	1	1	1	1	1	1	0	1	-10,711769	274,347783	310,498101	0
15.01.2021	19:29:01	0	0	2,598537	2,352	308,8044	0,248	85,301	0	1016,84	6,9	9	8,8	1	1	1	1	1	1	1	1	1	0	1	-6,624383	274,219721	313,986158	0
15.01.2021	19:29:02	0	0	2,711517	2,3085	309,258	0,247	85,291	0	1016,96	6,9	9	8,8	1	1	1	1	1	1	1	1	1	0	1	-5,84919	274,177721	314,564977	0
15.01.2021	19:29:03	0	0	4,632175	2,24775	314,7372	0,249	85,289	0	1016,84	6,9	9,1	8,8	1	1	1	1	1	1	1	1	1	0	1	-8,386187	274,273855	312,477599	0
15.01.2021	19:29:04	0	0	3,502376	2,3505	297,9	0,252	85,305	0	1016,7	6,9	9,1	8,8	1	1	1	1	1	1	1	1	1	0	1	-10,993658	274,356855	310,258701	0
15.01.2021	19:29:05	0	0	3,954296	2,4375	310,7196	0,249	85,294	0	1016,96	6,9	9,1	8,8	1	1	1	1	1	1	1	1	1	0	1	-7,82241	274,251281	312,935753	0
15.01.2021	19:29:06	0	0	4,632175	2,39625	321,1704	0,247	85,278	0	1016,84	6,9	8,9	8,8	1	1	1	1	1	1	1	1	1	0	1	-13,248767	274,356855	308,003591	0
15.01.2021	19:29:07	0	0	2,598537	2,31975	318,8124	0,248	85,293	0	1016,78	6,9	9	8,8	1	1	1	1	1	1	1	1	1	0	1	-11,346018	274,219721	309,264523	0
15.01.2021	19:29:08	0	0	3,502376	2,33625	333,4896	0,249	85,298	0	1016,96	6,9	9	8,8	1	1	1	1	1	1	1	1	1	0	1	-8,597604	274,177721	311,816562	0
15.01.2021	19:29:09	0	0	2,824497	2,2485	322,5204	0,246	85,284	0	1016,86	7	9	8,8	1	1	1	1	1	1	1	1	1	0	1	-8,668076	274,302488	312,329716	0
15.01.2021	19:29:10	0	0	2,937477	2,18175	317,4228	0,239	85,303	0	1016,82	6,9	9	8,8	1	1	1	1	1	1	1	1	1	0	1	-7,892882	274,216718	312,703615	0
15.01.2021	19:29:11	0	0	4,293236	2,1135	303,9336	0,244	85,31	0	1016,86	6,9	9	8,8	1	1	1	1	1	1	1	1	1	0	1	-9,513742	274,337205	311,646589	0
15.01.2021	19:29:12	0	0	4,406216	1,97775	313,1964	0,248	85,3	0	1016,94	6,9	9,1	8,8	1	1	1	1	1	1	1	1	1	0	1	-7,329105	274,314556	313,725182	0
15.01.2021	19:29:13	0	0	5,084095	1,76325	330,7968	0,247	85,314	0	1016,98	6,9	9	8,8	1	1	1	1	1	1	1	1	1	0	1	-8,174771	274,234743	312,50603	0
15.01.2021	19:29:14	0	0	2,711517	1,69425	304,9812	0,249	85,29	0	1016,82	6,9	9,1	8,8	1	1	1	1	1	1	1	1	1	0	1	-12,896406	274,349295	308,320544	0
15.01.2021	19:29:15	0	0	4,971115	1,71	310,9608	0,247	85,303	0	1016,82	6,9	9	8,8	1	1	1	1	1	1	1	1	1	0	1	-9,090909	274,264822	311,73061	0
15.01.2021	19:29:16	0	0	2,711517	1,65375	302,112	0,246	85,303	0	1016,82	6,9	9	8,8	1	1	1	1	1	1	1	1	1	0	1	-8,033827	274,353831	313,204366	0
15.01.2021	19:29:17	0	0	4,632175	1,67925	306,3996	0,247	85,31	0	1016,76	6,9	9	8,8	1	1	1	1	1	1	1	1	1	0	1	-5,919662	274,216718	314,676836	0
15.01.2021	19:29:18	0	0	4,519195	1,683	311,8032	0,244	85,314	0	1016,92	6,9	9,1	8,8	1	1	1	1	1	1	1	1	1	0	1	-9,161381	274,164241	311,189774	0
15.01.2021	19:29:19	0	0	2,372578	1,698	300,204	0,247	85,31	0	1016,72	6,9	9,1	8,8	1	1	1	1	1	1	1	1	1	0	1	-8,245243	274,249777	312,505884	0
15.01.2021	19:29:20	0	0	3,276417	1,7865	319,086	0,245	85,299	0	1016,94	6,9	9	8,8	1	1	1	1	1	1	1	1	1	0	1	-11,486963	274,180718	308,941213	0
15.01.2021	19:29:21	0	0	3,728336	1,78875	324,054	0,248	85,32	0	1016,96	6,9	9	8,8	1	1	1	1	1	1	1	1	1	0	1	-11,557435	274,308521	309,468599	0
15.01.2021	19:29:22	0	0	4,519195	1,82325	304,6716	0,248	85,305	0	1016,92	6,9	9,1	8,8	1	1	1	1	1	1	1	1	1	0	1	-10,359408	274,319084	310,716076	0
15.01.2021	19:29:23	0	0	2,598537	1,93875	310,9896	0,251	85,303	0	1016,84	6,9	9,1	8,8	1	1	1	1	1	1	1	1	1	0	1	-6,765328	274,210713	313,80309	0
15.01.2021	19:29:24	0	0	4,971085	2,199	285,9084	0,246	85,304	0	1016,86	6,9	9	8,9	1	1	1	1	1	1	1	1	1	0	1	-8,949965	274,308521	312,076069	0
15.01.2021	19:29:25	0	0	3,050457	2,31075	295,6212	0,252	85,315	0	1016,88	6,9	9	8,8	1	1	1	1	1	1	1	1	1	0	1	-11,346018	274,322103	309,7436	0
15.01.2021	19:29:26	0	0	4,745155	2,2935	301,2444	0,248	85,327	0	1016,86	6,9	9,1	8,8	1	1	1	1	1	1	1	1	1	0	1	-7,188161	274,334184	313,958023	0
15.01.2021	19:29:27	0	0	4,180256	2,241	292,2948	0,249	85,323	0	1016,88	6,9	9,1	8,8	1	1	1	1	1	1	1	1	1	0	1	-12,473573	274,294949	308,488931	0
15.01.2021	19:29:28	0	0	4,406216	2,13675	288,0864	0,248	85,315	0	1016,78	6,9	9,1	8,8	1	1	1	1	1	1	1	1	1	0	1	-10,147992	274,183716	310,294196	0
15.01.2021	19:29:29	0	0	2,937477	2,211	268,8516	0,249	85,335	0	1016,92	6,9	9	8,8	1	1	1	1	1	1	1	1	1	0	1	-11,06413	274,27235	309,792611	0
15.01.2021	19:29:30	0	0	2,937477	2,32875	270,954	0,253	85,312	0	1016,92	6,9	9,1	8,8	1	1	1	1	1	1	1	1	1	0	1	-6,272023	274,174725	314,128137	0
15.01.2021	19:29:31	0	0	4,519195	2,346	275,3424	0,247	85,311	0	1016,94	6,9	9,1	8,8	1	1	1	1	1	1	1	1	1	0	1	-12,403101	274,246769	308,333956	0
15.01.2021	19:29:32	0	0	3,502376	2,26725	287,3844	0,241	85,32	0	1016,94	6,9	9,1	8,8	1	1	1	1	1	1	1	1	1	0	1	-7,681466	274,334184	313,464717	0
15.01.2021	19:29:33	0	0	2,937477	2,157	293,7276	0,252	85,327	0	1016,92	6,9	9,1	8,8	1	1	1	1	1	1	1	1	1	0	1	-7,540521	274,236246	313,147309	0
15.01.2021	19:29:34	0	0	2,824497	2,2155	300,4056	0,247	85,338	0	1016,74	6,9	9,1	8,8	1	1	1	1	1	1	1	1	1	0	1	-10,288936	274,311538	310,751223	0
15.01.2021	19:29:35	0	0	4,745155	2,289	293,0364	0,245	85,333	0	1016,72	6,9	9	8,8	1	1	1	1	1	1	1	1	1	0	1	-12,262156	274,23324	308,411616	0
15.01.2021	19:29:36	0	0	4,180256	2,313	303,8976	0,249	85,322	0	1016,84	6,9	9	8,8	1	1	1	1	1	1	1	1	1	0	1	-8,949965	274,350807	312,274065	0
15.01.2021	19:29:37	0	0	4,632175	2,27475	312,498	0,245	85,325	0	1016,82	6,9	9,1	8,8	1	1	1	1	1	1	1	1	1	0	1	-12,05074	274,284399	308,862389	0
15.01.2021	19:29:38	0	0	4,632175	2,32425	288,81	0,25	85,318	0	1016,9	7	9	8,8	1	1	1	1	1	1	1	1	1	0	1	-8,597604	274,164241	311,753551	0
15.01.2021	19:29:39	0	0	2,711517	2,36475	301,2768	0,246	85,328	0	1016,9	7	9,1	8,8	1	1	1	1	1	1	1	1	1	0	1	-11,557435	274,213715	309,025021	0
15.01.2021	19:29:40	0	0	3,050457	2,29875	304,6068	0,248	85,316	0	1016,86	6,9	9,1	8,8	1	1	1	1	1	1	1	1	1	0	1	-11,486963	274,320593	309,595588	0
15.01.2021	19:29:41	0	0	3,502376	2,1915	298,728	0,248	85,33	0	1016,78	7	9,1	8,8	1	1	1	1	1	1	1	1	1	0	1	-9,654686	274,224226	310,976926	0
15.01.2021	19:29:42	0	0	4,293236	2,14875	323,3628	0,246	85,331	0	1016,84	6,9	8,9	8,8	1	1	1	1	1	1	1	1	1	0	1	-9,936575	274,343249	311,25206	0
15.01.2021	19:29:43	0	0	3,502376	1,98225	315,5112	0,249	85,325	0	1016,84	6,9	9,1	8,8	1	1	1	1	1	1	1	1	1	0	1	-9,725159	274,225728	310,913479	0
15.01.2021	19:29:44	0	0	3,050457	1,8795	317,5812	0,241	85,316	0	1016,74	6,9	9	8,8	1	1	1	1	1	1	1	1	1	0	1	-4,510218	274,273855	316,353568	0
15.01.2021	19:29:45	0	0	4,293236	1,90275	296,064	0,25	85,325	0	1016,94	6,9	9,1	8,8	1	1	1	1	1	1	1	1	1	0	1	-7,751938	274,34476	313,443775	0
15.01.2021	19:29:46	0	0	2,937477	1,9485	308,7288	0,247	85,329	0	1016,72	6,9	9,1	8,8	1	1	1	1	1	1	1	1	1	0	1	-3,735025	274,346272	317,467766	0
15.01.2021	19:29:47	0	0	4,632175	1,95225	295,5816	0,244	85,327	0	1016,82	7	9,1	8,8	1	1	1	1	1	1	1	1	1	0	1	-12,966878	274,296456	308,002682	0
15.01.2021	19:29:48	0	0	3,163437	1,88925	303,1848	0,25	85,347	0	1016,9	6,9	9,1	8,8	1	1	1	1	1	1	1	1	1	0	1	-8,45666	274,20321	312,076672	0
15.01.2021	19:29:49	0	0	3,954296	1,8015	293,3856	0,248	85,329	0	1016,9	7	9	8,8	1	1	1	1	1	1	1	1	1	0	1	-11,698379	274,349295	309,518571	0
15.01.2021	19:29:50	0	0	5,084095	1,68225	292,194	0,246	85,321	0	1016,82	6,9	9,1	8,8	1	1	1	1	1	1	1	1	1	0	1	-11,839323	274,239252	308,862568	0
15.01.2021	19:29:51	0	0	4,180256	1,88925	310,932	0,247	85,311	0	1016,62	6,9	9,1	8,8	1	1	1	1	1	1	1	1	1	0	1	-10,147992	274,19571	310,350272	0
15.01.2021	19:29:52	0	0	4,971115	2,154	312,3828	0,247	85,322	0	1016,66	7	9,1	8,8	1	1	1	1	1	1	1	1	1	0	1	-6,906272	274,225728	313,732365	0
15.01.2021	19:29:53	0	0	4,858135	2,38125	310,914	0,251	85,327	0	1016,68	6,9	9	8,8	1	1	1	1	1	1	1	1	1	0	1	-7,963354	274,156756	312,352818	0
15.01.2021	19:29:54	0	0	4,858135	2,5695	313,0812	0,251	85,35	0	1016,78	6,9	9,1	8,8	1	1	1	1	1	1	1	1	1	0	1	-14,587738	274,329652	306,537229	0
15.01.2021	19:29:55	0	0	4,858135	2,754	302,8392	0,249	85,332	0	1016,78	7	9	8,8	1	1	1	1	1	1	1	1	1	0	1	-4,580691	274,343249	316,607945	0
15.01.2021	19:29:56	0	0	2,937477	3,018	307,1052	0,242	85,338	0	1016,92	7	9	8,8	1	1	1	1	1	1	1	1	1	0	1	-11,557435	274,239252	309,144457	0
15.01.2021	19:29:57	0	0	2,598537	3,432	307,638	0,251	85,342	0	1016,9	7	9,1	8,8	1	1	1	1	1	1	1	1	1	0	1	-7,82241	274,219721	312,788131	0
15.01.2021	19:29:58	0	0	2,711517	3,5385	310,2228	0,246	85,324	0	1016,82	6,9	9	8,8	1	1	1	1	1	1	1	1	1	0	1	-8,949965	274,332673	312,189146	0
15.01.2021	19:29:59	0	0	3,502376	3,61125	310,1868	0,251	85,33	0	1016,96	6,9	9,1	8,8	1	1	1	1	1	1	1	1	1	0	1	-10,570825	274,31003	310,462272	0
15.01.2021	19:30:00	0	0	3,728336	3,66375	303,1452	0,254	85,341	0	1016,88	6,9	9,1	8,8	1	1	1	1	1	1	1	1	1	0	1	-9,936575	274,350807	311,287455	0
15.01.2021	19:30:01	0	0	3,728336	3,66375	303,1452	0,254	85,341	0	1016,88	6,9	9,1	8,8	1	1	1	1	1	1	1	1	1	0	1	-9,161381	274,343249	312,027254	0
15.01.2021	19:30:02	0	0	2,824497	3,64275	305,3808	0,25	85,336	0	1016,88	6,9	9	8,8	1	1	1	1	1	1	1	1	1	0	1	-9,020437	274,188213	311,442774	0
15.01.2021	19:30:03	0	0	4,406216	3,5295	307,5048	0,252	85,351	0	1016,82	6,9	9,1	8,8	1	1	1	1	1	1	1	1	1	0	1	-10,007047	274,204711	310,533301	0
15.01.2021	19:30:04	0	0	2,372578	3,42225	298,2384	0,246	85,346	0	1016,88	7	9	8,8	1	1	1	1	1	1	1	1	1	0	1	-5,919662	274,35988	315,346865	0
15.01.2021	19:30:05	0	0	4,519195	3,3045	303,5628	0,247	85,342	0	1016,86	6,9	9,1	8,8	1	1	1	1	1	1	1	1	1	0	1	-7,540521	274,221223	313,077043	0
15.01.2021	19:30:06	0	0	3,276417	3,24825	300,0492	0,25	85,337	0	1017	6,9	9,1	8,8	1	1	1	1	1	1	1	1	1	0	1	-5,84919	274,353831	315,389003	0
15.01.2021	19:30:07	0	0	3,615356	3,21825	308,4012	0,243	85,32	0	1016,76	7	9,1	8,8	1	1	1	1	1	1	1	1	1	0	1	-8,245243	274,251281	312,51292	0
15.01.2021	19:30:08	0	0	4,519195	3,04425	297,2232	0,25	85,36	0	1016,94	6,9	9,1	8,8	1	1	1	1	1	1	1	1	1	0	1	-9,654686	274,352319	311,576425	0
15.01.2021	19:30:09	0	0	4,406216	2,871	299,718	0,247	85,342	0	1016,84	6,9	9	8,8	1	1	1	1	1	1	1	1	1	0	1	-7,470049	274,228733	313,18264	0
15.01.2021	19:30:10	0	0	4,406216	2,71425	296,8524	0,251	85,34	0	1016,76	7	9	8,8	1	1	1	1	1	1	1	1	1	0	1	-7,188161	274,308521	313,837873	0
15.01.2021	19:30:11	0	0	4,180256	2,76225	301,608	0,252	85,33	0	1016,98	6,9	9,1	8,8	1	1	1	1	1	1	1	1	1	0	1	-5,21494	274,174725	315,185219	0
15.01.2021	19:30:12	0	0	4,406216	2,8545	310,3164	0,249	85,344	0	1016,84	6,9	9,1	8,8	1	1	1	1	1	1	1	1	1	0	1	-9,090909	274,323613	312,005778	0
15.01.2021	19:30:13	0	0	2,824497	2,79225	310,3812	0,247	85,338	0	1016,86	6,9	8,9	8,8	1	1	1	1	1	1	1	1	1	0	1	-11,909796	274,215217	308,679681	0
15.01.2021	19:30:14	0	0	3,615356	2,7315	315,9036	0,249	85,34	0	1016,76	6,9	9	8,8	1	1	1	1	1	1	1	1	1	0	1	-14,023961	274,204711	306,516387	0
15.01.2021	19:30:15	0	0	3,050457	2,84925	303,5268	0,252	85,341	0	1016,82	6,9	9	8,8	1	1	1	1	1	1	1	1	1	0	1	-9,231853	274,228733	311,420836	0
15.01.2021	19:30:16	0	0	3,728336	2,9685	310,32	0,249	85,348	0	1016,96	7	8,9	8,8	1	1	1	1	1	1	1	1	1	0	1	-6,412967	274,17922	314,008204	0
15.01.2021	19:30:17	0	0	4,632175	3,10725	309,2148	0,252	85,347	0	1016,94	6,9	9,1	8,8	1	1	1	1	1	1	1	1	1	0	1	-7,470049	274,293441	313,485399	0
15.01.2021	19:30:18	0	0	4,519195	3,05925	296,4888	0,248	85,351	0	1016,88	6,9	9,1	8,8	1	1	1	1	1	1	1	1	1	0	1	-9,44327	274,347783	311,7666	0
15.01.2021	19:30:19	0	0	4,632175	2,85825	303,1812	0,252	85,357	0	1016,72	6,9	9	8,8	1	1	1	1	1	1	1	1	1	0	1	-7,117689	274,276867	313,760193	0
15.01.2021	19:30:20	0	0	4,406216	2,61525	303,8868	0,25	85,339	0	1016,9	6,9	9,1	8,8	1	1	1	1	1	1	1	1	1	0	1	-14,587738	274,218219	306,015781	0
15.01.2021	19:30:21	0	0	2,598537	2,6175	311,7024	0,247	85,351	0	1016,82	7	9,1	8,8	1	1	1	1	1	1	1	1	1	0	1	-8,738548	274,19871	311,773741	0
15.01.2021	19:30:22	0	0	2,485558	2,652	308,0556	0,249	85,338	0	1016,92	7	9,1	8,8	1	1	1	1	1	1	1	1	1	0	1	-7,751938	274,290427	313,189401	0
15.01.2021	19:30:23	0	0	3,502376	2,7255	303,1992	0,249	85,334	0	1016,74	6,9	8,9	8,8	1	1	1	1	1	1	1	1	1	0	1	-10,923185	274,183716	309,519003	0
15.01.2021	19:30:24	0	0	4,971115	2,52375	310,7088	0,248	85,351	0	1016,86	6,8	9	8,8	1	1	1	1	1	1	1	1	1	0	1	-10,923185	274,269338	309,919465	0
15.01.2021	19:30:25	0	0	3,050457	2,43375	290,4984	0,251	85,347	0	1016,84	6,9	9,1	8,8	1	1	1	1	1	1	1	1	1	0	1	-10,147992	274,186713	310,308211	0
15.01.2021	19:30:26	0	0	4,745155	2,41725	308,4696	0,243	85,346	0	1016,96	6,9	9	8,8	1	1	1	1	1	1	1	1	1	0	1	-10,218464	274,313047	310,828759	0
15.01.2021	19:30:27	0	0	3,841316	2,4645	295,5348	0,249	85,341	0	1016,92	6,9	9	8,8	1	1	1	1	1	1	1	1	1	0	1	-6,483439	274,361393	314,790172	0
15.01.2021	19:30:28	0	0	4,632175	2,55675	286,308	0,249	85,329	0	1016,7	6,9	9	8,8	1	1	1	1	1	1	1	1	1	0	1	-10,923185	274,307013	310,095787	0
15.01.2021	19:30:29	0	0	2,372578	2,4705	281,034	0,249	85,35	0	1016,86	6,9	9	8,8	1	1	1	1	1	1	1	1	1	0	1	-11,627907	274,180718	308,800269	0
15.01.2021	19:30:30	0	0	3,841316	2,3025	302,418	0,247	85,346	0	1016,84	6,9	9	8,8	1	1	1	1	1	1	1	1	1	0	1	-7,963354	274,329652	313,161612	0
15.01.2021	19:30:31	0	0	4,519195	2,36175	281,8008	0,249	85,328	0	1016,84	6,9	9	8,8	1	1	1	1	1	1	1	1	1	0	1	-12,473573	274,290427	308,467766	0
15.01.2021	19:30:32	0	0	4,406216	2,39175	283,5504	0,246	85,349	0	1016,74	6,9	9,1	8,8	1	1	1	1	1	1	1	1	1	0	1	-8,738548	274,210713	311,829869	0
15.01.2021	19:30:33	0	0	2,259598	2,394	312,858	0,245	85,353	0	1016,8	6,9	9,1	8,8	1	1	1	1	1	1	1	1	1	0	1	-7,82241	274,191211	312,65482	0
15.01.2021	19:30:34	0	0	3,276417	2,6055	296,9388	0,246	85,347	0	1016,74	6,9	9	8,8	1	1	1	1	1	1	1	1	1	0	1	-9,725159	274,224226	310,906454	0
15.01.2021	19:30:35	0	0	4,745155	2,69775	316,2456	0,247	85,348	0	1016,9	6,9	9	8,8	1	1	1	1	1	1	1	1	1	0	1	-9,231853	274,222724	311,392734	0
15.01.2021	19:30:36	0	0	4,406216	2,71575	308,4876	0,245	85,35	0	1016,8	6,9	8,9	8,8	1	1	1	1	1	1	1	1	1	0	1	-10,42988	274,340227	310,744602	0
15.01.2021	19:30:37	0	0	4,406216	2,6655	313,2504	0,245	85,354	0	1016,86	6,9	9	8,8	1	1	1	1	1	1	1	1	1	0	1	-7,188161	274,317575	313,880257	0
15.01.2021	19:30:38	0	0	2,598537	2,57475	296,1216	0,244	85,32	0	1016,88	6,9	9	8,8	1	1	1	1	1	1	1	1	1	0	1	-11,205074	274,317575	309,863344	0
15.01.2021	19:30:39	0	0	5,084095	2,40075	306,108	0,248	85,339	0	1016,9	7	9,1	8,8	1	1	1	1	1	1	1	1	1	0	1	-7,82241	274,237749	312,872451	0
15.01.2021	19:30:40	0	0	3,276417	2,2665	324,4428	0,254	85,341	0	1016,92	6,9	9	8,8	1	1	1	1	1	1	1	1	1	0	1	-13,530655	274,183716	306,911533	0
15.01.2021	19:30:41	0	0	2,485558	2,19975	303,5448	0,248	85,352	0	1016,88	6,9	9,1	8,8	1	1	1	1	1	1	1	1	1	0	1	-10,007047	274,297964	310,96957	0
15.01.2021	19:30:42	0	0	2,372578	2,121	298,3104	0,251	85,349	0	1016,86	6,9	9,1	8,8	1	1	1	1	1	1	1	1	1	0	1	-12,544045	274,185214	307,90515	0
15.01.2021	19:30:43	0	0	4,632175	2,07975	289,17	0,247	85,341	0	1016,86	6,9	9,1	8,8	1	1	1	1	1	1	1	1	1	0	1	-7,610994	274,20021	312,908309	0
15.01.2021	19:30:44	0	0	3,615356	2,22975	282,1212	0,252	85,345	0	1016,9	6,8	9,1	8,8	1	1	1	1	1	1	1	1	1	0	1	-8,104299	274,189712	312,365922	0
15.01.2021	19:30:45	0	0	4,180256	2,43825	289,1808	0,252	85,35	0	1016,92	6,9	9	8,8	1	1	1	1	1	1	1	1	1	0	1	-10,288936	274,340227	310,885546	0
15.01.2021	19:30:46	0	0	3,502376	2,68425	298,7208	0,251	85,324	0	1016,74	7	9	8,8	1	1	1	1	1	1	1	1	1	0	1	-8,597604	274,239252	312,104288	0
15.01.2021	19:30:47	0	0	3,954296	2,78475	292,2804	0,25	85,346	0	1016,82	6,9	9	8,8	1	1	1	1	1	1	1	1	1	0	1	-9,795631	274,347783	311,414239	0
15.01.2021	19:30:48	0	0	3,615356	2,892	292,2084	0,256	85,339	0	1016,9	6,9	9	8,8	1	1	1	1	1	1	1	1	1	0	1	-9,513742	274,373498	311,816574	0
15.01.2021	19:30:49	0	0	3,502376	2,92725	289,008	0,249	85,344	0	1016,68	6,9	9,1	8,8	1	1	1	1	1	1	1	1	1	0	1	-10,42988	274,273855	310,433907	0
15.01.2021	19:30:50	0	0	4,632175	2,81175	304,1712	0,254	85,347	0	1016,88	7	9	8,8	1	1	1	1	1	1	1	1	1	0	1	-7,329105	274,17922	313,092066	0
15.01.2021	19:30:51	0	0	3,050457	2,5545	296,4564	0,249	85,352	0	1016,78	6,9	9	8,8	1	1	1	1	1	1	1	1	1	0	1	-7,047216	274,245266	313,682806	0
15.01.2021	19:30:52	0	0	4,519195	2,43975	305,8308	0,252	85,347	0	1016,92	6,9	9	8,8	1	1	1	1	1	1	1	1	1	0	1	-10,993658	274,35988	310,272869	0
15.01.2021	19:30:53	0	0	4,067276	2,325	303,4656	0,252	85,339	0	1016,86	7	9	8,8	1	1	1	1	1	1	1	1	1	0	1	-8,80902	274,206211	311,738344	0
15.01.2021	19:30:54	0	0	3,163437	2,271	307,2384	0,252	85,335	0	1016,84	6,9	9,1	8,8	1	1	1	1	1	1	1	1	1	0	1	-7,610994	274,311538	313,429166	0
15.01.2021	19:30:55	0	0	4,745155	2,34825	295,4952	0,252	85,335	0	1016,76	6,9	9,1	8,8	1	1	1	1	1	1	1	1	1	0	1	-12,121212	274,222724	308,503376	0
15.01.2021	19:30:56	0	0	3,163437	2,5695	297,9864	0,247	85,34	0	1016,9	6,9	9	8,8	1	1	1	1	1	1	1	1	1	0	1	-11,134602	274,34476	310,061111	0
15.01.2021	19:30:57	0	0	4,406216	2,646	302,8284	0,25	85,343	0	1016,96	6,9	9	8,8	1	1	1	1	1	1	1	1	1	0	1	-11,346018	274,313047	309,701205	0
15.01.2021	19:30:58	0	0	2,824497	2,7135	304,9848	0,254	85,329	0	1016,68	7	9	8,8	1	1	1	1	1	1	1	1	1	0	1	-7,329105	274,334184	313,817078	0
15.01.2021	19:30:59	0	0	4,293236	2,63925	306,0972	0,247	85,342	0	1016,86	6,9	9,1	8,8	1	1	1	1	1	1	1	1	1	0	1	-13,742072	274,358368	307,51737	0
15.01.2021	19:31:00	0	0	2,824497	2,27325	313,1712	0,248	85,345	0	1016,88	6,9	9	8,8	1	1	1	1	1	1	1	1	1	0	1	-12,544045	274,237749	308,150816	0
15.01.2021	19:31:01	0	0	2,824497	2,27325	313,1712	0,248	85,345	0	1016,88	6,9	9	8,8	1	1	1	1	1	1	1	1	1	0	1	-9,44327	274,361393	311,830341	0
15.01.2021	19:31:02	0	0	3,615356	2,151	293,742	0,251	85,346	0	1017,02	6,9	9	8,8	1	1	1	1	1	1	1	1	1	0	1	-10,993658	274,20021	309,525645	0
15.01.2021	19:31:03	0	0	4,519195	2,10675	314,4708	0,252	85,329	0	1016,82	6,9	9	8,8	1	1	1	1	1	1	1	1	1	0	1	-8,668076	274,182217	311,767105	0
15.01.2021	19:31:04	0	0	5,423035	2,04375	307,152	0,244	85,336	0	1016,9	6,9	9	8,8	1	1	1	1	1	1	1	1	1	0	1	-9,654686	274,355343	311,590589	0
15.01.2021	19:31:05	0	0	2,824497	1,923	292,9176	0,253	85,344	0	1016,88	6,9	9,1	8,8	1	1	1	1	1	1	1	1	1	0	1	-7,540521	274,173227	312,852635	0
15.01.2021	19:31:06	0	0	2,824497	1,8405	313,254	0,251	85,333	0	1017,1	6,9	9,1	8,8	1	1	1	1	1	1	1	1	1	0	1	-9,513742	274,291934	311,434651	0
15.01.2021	19:31:07	0	0	4,632175	1,84875	306,4824	0,247	85,339	0	1016,82	7	9	8,8	1	1	1	1	1	1	1	1	1	0	1	-8,45666	274,350807	312,767371	0
15.01.2021	19:31:08	0	0	4,293236	1,896	286,9164	0,252	85,339	0	1016,84	7	9	8,8	1	1	1	1	1	1	1	1	1	0	1	-6,20155	274,299472	314,782124	0
15.01.2021	19:31:09	0	0	2,485558	1,9935	309,9996	0,248	85,328	0	1016,8	7	9	8,8	1	1	1	1	1	1	1	1	1	0	1	-7,892882	274,176223	312,51428	0
15.01.2021	19:31:10	0	0	5,197075	2,208	295,1424	0,248	85,345	0	1016,98	6,9	9	8,8	1	1	1	1	1	1	1	1	1	0	1	-7,117689	274,316065	313,943663	0
15.01.2021	19:31:11	0	0	2,824497	2,3955	290,754	0,246	85,322	0	1016,76	6,9	9,1	8,8	1	1	1	1	1	1	1	1	1	0	1	-7,751938	274,171729	312,634217	0
15.01.2021	19:31:12	0	0	2,485558	2,427	303,1524	0,248	85,346	0	1016,96	6,9	9,1	8,8	1	1	1	1	1	1	1	1	1	0	1	-5,003524	274,219721	315,607018	0
15.01.2021	19:31:13	0	0	3,502376	2,3925	301,5576	0,243	85,336	0	1016,62	6,9	9,1	8,8	1	1	1	1	1	1	1	1	1	0	1	-10,641297	274,364419	310,646487	0
15.01.2021	19:31:14	0	0	4,745155	2,36475	304,6716	0,243	85,336	0	1016,92	6,9	9	8,8	1	1	1	1	1	1	1	1	1	0	1	-10,147992	274,224226	310,483621	0
15.01.2021	19:31:15	0	0	2,937477	2,34	309,2616	0,252	85,348	0	1017,08	7	9,1	8,8	1	1	1	1	1	1	1	1	1	0	1	-10,711769	274,329652	310,413198	0
15.01.2021	19:31:16	0	0	5,084095	2,37075	311,7384	0,247	85,335	0	1016,9	6,9	9,1	8,8	1	1	1	1	1	1	1	1	1	0	1	-11,205074	274,350807	310,018956	0
15.01.2021	19:31:17	0	0	3,728336	2,47575	318,8052	0,249	85,33	0	1016,96	6,9	9	8,8	1	1	1	1	1	1	1	1	1	0	1	-10,007047	274,249777	310,74408	0
15.01.2021	19:31:18	0	0	4,293236	2,4885	316,8936	0,251	85,335	0	1016,82	6,9	9,1	8,8	1	1	1	1	1	1	1	1	1	0	1	-5,21494	274,287413	315,712293	0
15.01.2021	19:31:19	0	0	3,615356	2,538	321,8616	0,248	85,322	0	1016,94	6,9	9,1	8,8	1	1	1	1	1	1	1	1	1	0	1	-5,355884	274,20321	315,177448	0
15.01.2021	19:31:20	0	0	2,372578	2,54475	306,0828	0,245	85,338	0	1016,84	6,9	9	8,8	1	1	1	1	1	1	1	1	1	0	1	-13,6716	274,23324	307,002172	0
15.01.2021	19:31:21	0	0	3,276417	2,56125	310,6656	0,247	85,346	0	1016,7	6,9	9,1	8,8	1	1	1	1	1	1	1	1	1	0	1	-7,892882	274,183716	312,549306	0
15.01.2021	19:31:22	0	0	4,632175	2,52525	311,742	0,245	85,339	0	1016,96	6,9	9	8,8	1	1	1	1	1	1	1	1	1	0	1	-6,694856	274,177721	313,719311	0
15.01.2021	19:31:23	0	0	3,389397	2,59575	310,7088	0,243	85,326	0	1016,84	6,9	9,1	8,8	1	1	1	1	1	1	1	1	1	0	1	-7,540521	274,316065	313,520831	0
15.01.2021	19:31:24	0	0	3,502376	2,67975	315,1692	0,249	85,328	0	1016,98	6,9	9,1	8,8	1	1	1	1	1	1	1	1	1	0	1	-12,614517	274,358368	308,644925	0
15.01.2021	19:31:25	0	0	3,050457	2,71875	320,418	0,244	85,327	0	1016,82	7	9	8,8	1	1	1	1	1	1	1	1	1	0	1	-7,399577	274,180718	313,028599	0
15.01.2021	19:31:26	0	0	2,711517	2,886	318,4056	0,243	85,321	0	1017,06	6,9	9	8,8	1	1	1	1	1	1	1	1	1	0	1	-12,544045	274,322103	308,545573	0
15.01.2021	19:31:27	0	0	4,293236	2,9505	314,442	0,241	85,321	0	1016,82	7	9	8,8	1	1	1	1	1	1	1	1	1	0	1	-11,627907	274,329652	309,497059	0
15.01.2021	19:31:28	0	0	3,841316	2,95725	311,4252	0,245	85,325	0	1016,88	6,9	9,1	8,8	1	1	1	1	1	1	1	1	1	0	1	-5,990134	274,340227	315,184348	0
15.01.2021	19:31:29	0	0	4,971115	3,054	314,082	0,247	85,338	0	1016,78	7	9	8,8	1	1	1	1	1	1	1	1	1	0	1	-9,866103	274,215217	310,723373	0
15.01.2021	19:31:30	0	0	2,372578	3,066	320,3712	0,25	85,332	0	1016,82	7	9	8,8	1	1	1	1	1	1	1	1	1	0	1	-9,44327	274,20321	311,090062	0
15.01.2021	19:31:31	0	0	3,502376	3,15825	310,2192	0,249	85,327	0	1016,82	6,9	9	8,8	1	1	1	1	1	1	1	1	1	0	1	-10,288936	274,347783	310,920934	0
15.01.2021	19:31:32	0	0	4,519195	3,2085	322,2576	0,248	85,34	0	1016,88	6,9	9	8,8	1	1	1	1	1	1	1	1	1	0	1	-10,359408	274,183716	310,08278	0
15.01.2021	19:31:33	0	0	4,293236	3,2355	318,8376	0,244	85,329	0	1016,86	6,9	9	8,8	1	1	1	1	1	1	1	1	1	0	1	-8,597604	274,212214	311,977832	0
15.01.2021	19:31:34	0	0	4,180256	3,24525	313,632	0,246	85,338	0	1016,62	7	9	8,8	1	1	1	1	1	1	1	1	1	0	1	-9,725159	274,332673	311,413952	0
15.01.2021	19:31:35	0	0	4,406216	3,17025	311,778	0,248	85,316	0	1016,96	7	9,1	8,8	1	1	1	1	1	1	1	1	1	0	1	-10,570825	274,353831	310,667368	0
15.01.2021	19:31:36	0	0	2,937477	3,0135	311,0364	0,244	85,338	0	1016,94	7	9	8,8	1	1	1	1	1	1	1	1	1	0	1	-12,191684	274,222724	308,432904	0
15.01.2021	19:31:37	0	0	4,519195	2,8275	309,9024	0,25	85,327	0	1016,84	6,9	9	8,8	1	1	1	1	1	1	1	1	1	0	1	-7,258633	274,367445	314,043325	0
15.01.2021	19:31:38	0	0	2,485558	2,72925	306,5436	0,244	85,334	0	1016,92	6,9	9	8,8	1	1	1	1	1	1	1	1	1	0	1	-9,654686	274,251281	311,103477	0
15.01.2021	19:31:39	0	0	2,937477	2,769	309,2328	0,244	85,33	0	1017,04	6,9	9	8,8	1	1	1	1	1	1	1	1	1	0	1	-5,426357	274,186713	315,029846	0
15.01.2021	19:31:40	0	0	2,824497	2,7945	304,6464	0,246	85,33	0	1016,9	6,9	9	8,8	1	1	1	1	1	1	1	1	1	0	1	-6,8358	274,264822	313,985719	0
15.01.2021	19:31:41	0	0	2,372578	2,78475	308,7792	0,247	85,341	0	1016,86	6,9	9	8,8	1	1	1	1	1	1	1	1	1	0	1	-8,597604	274,191211	311,879626	0
15.01.2021	19:31:42	0	0	3,615356	2,754	311,3784	0,25	85,341	0	1016,9	7	9	8,8	1	1	1	1	1	1	1	1	1	0	1	-10,711769	274,239252	309,990123	0
15.01.2021	19:31:43	0	0	5,084095	2,7555	308,358	0,246	85,34	0	1016,88	7	9	8,8	1	1	1	1	1	1	1	1	1	0	1	-10,782241	274,19871	309,730048	0
15.01.2021	19:31:44	0	0	2,937477	2,80125	302,4972	0,243	85,337	0	1016,96	6,9	9	8,8	1	1	1	1	1	1	1	1	1	0	1	-13,812544	274,185214	306,636651	0
15.01.2021	19:31:45	0	0	3,050457	2,736	296,5068	0,236	85,325	0	1016,92	6,9	9	8,8	1	1	1	1	1	1	1	1	1	0	1	-7,470049	274,227231	313,175613	0
15.01.2021	19:31:46	0	0	2,937477	2,553	299,0304	0,243	85,339	0	1016,78	6,9	9	8,8	1	1	1	1	1	1	1	1	1	0	1	-7,540521	274,337205	313,61981	0
15.01.2021	19:31:47	0	0	5,084095	2,45925	306,3744	0,238	85,332	0	1016,86	7	9	8,8	1	1	1	1	1	1	1	1	1	0	1	-10,852713	274,293441	310,102735	0
15.01.2021	19:31:48	0	0	2,937477	2,337	300,42	0,245	85,341	0	1016,86	7	9	8,8	1	1	1	1	1	1	1	1	1	0	1	-11,134602	274,35988	310,131924	0
15.01.2021	19:31:49	0	0	1,920658	2,226	290,3976	0,248	85,341	0	1016,84	6,9	9	8,8	1	1	1	1	1	1	1	1	1	0	1	-9,302326	274,234743	311,378475	0
15.01.2021	19:31:50	0	0	5,084095	2,13675	293,2524	0,241	85,329	0	1016,76	6,9	9	8,8	1	1	1	1	1	1	1	1	1	0	1	-10,570825	274,296456	310,398736	0
15.01.2021	19:31:51	0	0	4,632175	2,12625	295,5276	0,246	85,339	0	1016,9	6,9	9	8,8	1	1	1	1	1	1	1	1	1	0	1	-7,399577	274,183716	313,042611	0
15.01.2021	19:31:52	0	0	2,711517	2,1885	294,8292	0,249	85,345	0	1016,86	6,9	9	8,8	1	1	1	1	1	1	1	1	1	0	1	-14,799154	274,245266	305,930868	0
15.01.2021	19:31:53	0	0	4,971115	2,289	290,0556	0,248	85,346	0	1016,94	7	9	8,8	1	1	1	1	1	1	1	1	1	0	1	-10,077519	274,371985	311,245706	0
15.01.2021	19:31:54	0	0	2,372578	2,2815	308,8872	0,246	85,323	0	1016,84	6,9	9	8,8	1	1	1	1	1	1	1	1	1	0	1	-7,399577	274,308521	313,626457	0
15.01.2021	19:31:55	0	0	3,389397	2,31675	302,8032	0,241	85,34	0	1016,86	6,9	9	8,8	1	1	1	1	1	1	1	1	1	0	1	-10,711769	274,346272	310,491022	0
15.01.2021	19:31:56	0	0	2,485558	2,47875	282,1248	0,244	85,332	0	1016,9	6,9	9	8,8	1	1	1	1	1	1	1	1	1	0	1	-7,610994	274,204711	312,929354	0
15.01.2021	19:31:57	0	0	4,971115	2,5905	298,5948	0,249	85,339	0	1016,84	6,9	9	8,8	1	1	1	1	1	1	1	1	1	0	1	-11,698379	274,19421	308,792873	0
15.01.2021	19:31:58	0	0	3,389397	2,46225	305,7588	0,244	85,332	0	1016,92	7	9	8,8	1	1	1	1	1	1	1	1	1	0	1	-7,470049	274,297964	313,506568	0
15.01.2021	19:31:59	0	0	3,502376	2,31	291,1464	0,238	85,334	0	1016,86	7	9	8,8	1	1	1	1	1	1	1	1	1	0	1	-11,909796	274,20321	308,623536	0
15.01.2021	19:32:00	0	0	3,841316	2,3025	285,5232	0,245	85,334	0	1016,84	7	9	8,8	1	1	1	1	1	1	1	1	1	0	1	-10,077519	274,228733	310,57517	0
15.01.2021	19:32:01	0	0	3,841316	2,3025	285,5232	0,245	85,334	0	1016,84	7	9	8,8	1	1	1	1	1	1	1	1	1	0	1	-10,923185	274,367445	310,378773	0
15.01.2021	19:32:02	0	0	2,711517	2,2185	267,03	0,248	85,34	0	1016,86	6,9	9	8,8	1	1	1	1	1	1	1	1	1	0	1	-7,399577	274,266328	313,428985	0
15.01.2021	19:32:03	0	0	4,067276	2,2035	326,8152	0,248	85,337	0	1016,78	6,9	9	8,8	1	1	1	1	1	1	1	1	1	0	1	-7,82241	274,368958	313,486636	0
15.01.2021	19:32:04	0	0	3,841316	2,17875	320,3208	0,246	85,351	0	1016,88	6,9	9	8,8	1	1	1	1	1	1	1	1	1	0	1	-6,342495	274,23324	314,331277	0
15.01.2021	19:32:05	0	0	3,728336	1,96275	316,6344	0,252	85,357	0	1016,92	6,9	9	8,8	1	1	1	1	1	1	1	1	1	0	1	-10,782241	274,362906	310,498456	0
15.01.2021	19:32:06	0	0	4,067276	1,75125	306,432	0,249	85,351	0	1016,84	6,9	9	8,8	1	1	1	1	1	1	1	1	1	0	1	-7,82241	274,284399	313,090719	0
15.01.2021	19:32:07	0	0	3,276417	1,6185	316,602	0,246	85,342	0	1017,04	6,9	9	8,8	1	1	1	1	1	1	1	1	1	0	1	-12,05074	274,296456	308,91882	0
15.01.2021	19:32:08	0	0	4,406216	1,54575	304,6428	0,248	85,331	0	1016,9	6,9	9,1	8,8	1	1	1	1	1	1	1	1	1	0	1	-11,41649	274,191211	309,06074	0
15.01.2021	19:32:09	0	0	4,971115	1,43025	299,7468	0,243	85,345	0	1016,92	6,9	9	8,8	1	1	1	1	1	1	1	1	1	0	1	-7,329105	274,222724	313,295483	0
15.01.2021	19:32:10	0	0	2,937477	1,32	303,5124	0,246	85,357	0	1016,88	6,9	9	8,8	1	1	1	1	1	1	1	1	1	0	1	-7,82241	274,225728	312,816227	0
15.01.2021	19:32:11	0	0	3,163437	1,2345	309,6	0,244	85,374	0	1017,12	7	9	8,8	1	1	1	1	1	1	1	1	1	0	1	-9,654686	274,367445	311,647272	0
15.01.2021	19:32:12	0	0	4,519195	1,3815	303,4944	0,25	85,357	0	1016,9	7	9	8,8	1	1	1	1	1	1	1	1	1	0	1	-6,624383	274,340227	314,550098	0
15.01.2021	19:32:13	0	0	2,937477	1,48275	302,4828	0,245	85,349	0	1016,98	6,9	9	8,8	1	1	1	1	1	1	1	1	1	0	1	-4,298802	274,240755	316,410121	0
15.01.2021	19:32:14	0	0	4,632175	1,69275	293,3208	0,242	85,349	0	1016,92	6,9	9	8,8	1	1	1	1	1	1	1	1	1	0	1	-9,44327	274,371985	311,879956	0
15.01.2021	19:32:15	0	0	3,050457	1,8315	306,09	0,245	85,349	0	1016,94	7	9	8,8	1	1	1	1	1	1	1	1	1	0	1	-9,866103	274,302488	311,131689	0
15.01.2021	19:32:16	0	0	4,519195	1,98525	297,504	0,244	85,343	0	1016,88	6,9	9	8,8	1	1	1	1	1	1	1	1	1	0	1	-10,147992	274,188213	310,31522	0
15.01.2021	19:32:17	0	0	4,293236	2,0955	293,3208	0,247	85,352	0	1016,9	6,9	9	8,8	1	1	1	1	1	1	1	1	1	0	1	-9,936575	274,323613	311,160112	0
15.01.2021	19:32:18	0	0	4,858135	2,436	303,102	0,247	85,356	0	1016,96	6,9	9	8,8	1	1	1	1	1	1	1	1	1	0	1	-12,473573	274,350807	308,750457	0
15.01.2021	19:32:19	0	0	2,937477	2,48175	302,0616	0,246	85,336	0	1016,84	6,9	9	8,8	1	1	1	1	1	1	1	1	1	0	1	-8,174771	274,251281	312,583392	0
15.01.2021	19:32:20	0	0	4,406216	2,4105	299,4048	0,237	85,339	0	1016,92	7	9	8,8	1	1	1	1	1	1	1	1	1	0	1	-8,668076	274,367445	312,633882	0
15.01.2021	19:32:21	0	0	4,406216	2,37375	298,6236	0,245	85,331	0	1016,88	6,9	9	8,8	1	1	1	1	1	1	1	1	1	0	1	-6,694856	274,27988	314,197123	0
15.01.2021	19:32:22	0	0	3,615356	2,451	303,1704	0,245	85,347	0	1016,76	7	9	8,8	1	1	1	1	1	1	1	1	1	0	1	-10,993658	274,323613	310,103029	0
15.01.2021	19:32:23	0	0	2,711517	2,454	306,8208	0,235	85,354	0	1016,86	6,9	9	8,8	1	1	1	1	1	1	1	1	1	0	1	-6,483439	274,334184	314,662744	0
15.01.2021	19:32:24	0	0	4,067276	2,454	303,2136	0,241	85,339	0	1016,76	6,9	9	8,8	1	1	1	1	1	1	1	1	1	0	1	-7,540521	274,222724	313,084066	0
15.01.2021	19:32:25	0	0	2,937477	2,502	303,3864	0,248	85,349	0	1016,78	6,9	9	8,8	1	1	1	1	1	1	1	1	1	0	1	-9,161381	274,230235	311,498335	0
15.01.2021	19:32:26	0	0	4,406216	2,625	300,8052	0,245	85,358	0	1016,96	6,9	9	8,8	1	1	1	1	1	1	1	1	1	0	1	-13,248767	274,338716	307,918639	0
15.01.2021	19:32:27	0	0	3,728336	2,6445	305,3988	0,248	85,357	0	1016,9	7	9	8,8	1	1	1	1	1	1	1	1	1	0	1	-10,923185	274,20021	309,596117	0
15.01.2021	19:32:28	0	0	2,372578	2,61375	310,2804	0,248	85,353	0	1017,02	6,9	9	8,8	1	1	1	1	1	1	1	1	1	0	1	-11,557435	274,20171	308,968882	0
15.01.2021	19:32:29	0	0	3,728336	2,703	306,8496	0,243	85,337	0	1017,02	6,9	9	8,8	1	1	1	1	1	1	1	1	1	0	1	-6,624383	274,328142	314,493512	0
15.01.2021	19:32:30	0	0	4,632175	2,65575	307,6632	0,245	85,344	0	1016,82	7	9	8,8	1	1	1	1	1	1	1	1	1	0	1	-10,570825	274,326632	310,540001	0
15.01.2021	19:32:31	0	0	4,180256	2,69325	316,8936	0,237	85,353	0	1016,8	7	9	8,8	1	1	1	1	1	1	1	1	1	0	1	-9,725159	274,225728	310,913479	0
15.01.2021	19:32:32	0	0	5,197075	2,655	304,2576	0,24	85,34	0	1016,78	7	9	8,8	1	1	1	1	1	1	1	1	1	0	1	-9,584214	274,19421	310,907037	0
15.01.2021	19:32:33	0	0	2,598537	2,52075	302,3928	0,242	85,352	0	1016,94	7	9	8,8	1	1	1	1	1	1	1	1	1	0	1	-10,923185	274,299472	310,060489	0
15.01.2021	19:32:34	0	0	4,632175	2,625	301,2372	0,248	85,36	0	1016,86	7	9	8,8	1	1	1	1	1	1	1	1	1	0	1	-10,711769	274,35988	310,554757	0
15.01.2021	19:32:35	0	0	2,711517	2,5785	297,486	0,239	85,346	0	1016,82	6,9	9	8,8	1	1	1	1	1	1	1	1	1	0	1	-8,315715	274,314556	312,738572	0
15.01.2021	19:32:36	0	0	2,824497	2,40825	299,7684	0,246	85,352	0	1016,84	7	9	8,8	1	1	1	1	1	1	1	1	1	0	1	-9,231853	274,236246	311,455977	0
15.01.2021	19:32:37	0	0	4,519195	2,2515	298,8396	0,241	85,353	0	1016,82	7	9	8,8	1	1	1	1	1	1	1	1	1	0	1	-10,641297	274,17922	309,779874	0
15.01.2021	19:32:38	0	0	4,406216	2,19675	288,1296	0,247	85,364	0	1017	6,9	9	8,8	1	1	1	1	1	1	1	1	1	0	1	-8,668076	274,240755	312,040847	0
15.01.2021	19:32:39	0	0	4,632175	2,13975	303,1776	0,248	85,355	0	1016,92	7	9	8,8	1	1	1	1	1	1	1	1	1	0	1	-10,711769	274,349295	310,505181	0
15.01.2021	19:32:40	0	0	3,728336	2,08575	298,2456	0,249	85,36	0	1016,9	7	9	8,8	1	1	1	1	1	1	1	1	1	0	1	-8,104299	274,27988	312,78768	0
15.01.2021	19:32:41	0	0	3,276417	2,271	282,0888	0,252	85,361	0	1016,84	6,9	9	8,8	1	1	1	1	1	1	1	1	1	0	1	-6,412967	274,186713	314,043236	0
15.01.2021	19:32:42	0	0	4,745155	2,52075	304,6464	0,247	85,367	0	1016,82	7	9	8,8	1	1	1	1	1	1	1	1	1	0	1	-10,923185	274,251281	309,834978	0
15.01.2021	19:32:43	0	0	3,163437	2,66475	294,4152	0,246	85,348	0	1016,9	7	9	8,8	1	1	1	1	1	1	1	1	1	0	1	-8,879493	274,371985	312,443733	0
15.01.2021	19:32:44	0	0	3,163437	2,66175	290,7144	0,242	85,349	0	1016,8	6,9	9,1	8,8	1	1	1	1	1	1	1	1	1	0	1	-3,946441	274,296456	317,023119	0
15.01.2021	19:32:45	0	0	4,406216	2,59125	290,106	0,246	85,364	0	1016,82	6,9	9	8,8	1	1	1	1	1	1	1	1	1	0	1	-7,681466	274,185214	312,767729	0
15.01.2021	19:32:46	0	0	2,711517	2,634	280,9152	0,242	85,357	0	1016,92	6,9	9	8,8	1	1	1	1	1	1	1	1	1	0	1	-9,302326	274,254289	311,469912	0
15.01.2021	19:32:47	0	0	4,632175	2,9415	281,3688	0,246	85,367	0	1016,98	7	9	8,8	1	1	1	1	1	1	1	1	1	0	1	-9,090909	274,188213	311,372302	0
15.01.2021	19:32:48	0	0	4,406216	2,8365	274,5612	0,241	85,354	0	1016,88	6,9	9	8,8	1	1	1	1	1	1	1	1	1	0	1	-12,544045	274,20171	307,982272	0
15.01.2021	19:32:49	0	0	2,372578	2,469	262,4868	0,251	85,36	0	1016,84	7	9	8,8	1	1	1	1	1	1	1	1	1	0	1	-7,399577	274,221223	313,217987	0
15.01.2021	19:32:50	0	0	4,406216	2,16675	280,6344	0,248	85,359	0	1016,92	7	9,1	8,8	1	1	1	1	1	1	1	1	1	0	1	-6,694856	274,19721	313,81042	0
15.01.2021	19:32:51	0	0	3,502376	2,28675	280,278	0,246	85,373	0	1016,8	7	9	8,8	1	1	1	1	1	1	1	1	1	0	1	-9,372798	274,313047	311,674425	0
15.01.2021	19:32:52	0	0	3,728336	2,41275	295,1604	0,247	85,353	0	1016,72	6,9	9	8,8	1	1	1	1	1	1	1	1	1	0	1	-11,909796	274,19571	308,588468	0
15.01.2021	19:32:53	0	0	3,389397	2,4255	295,5564	0,243	85,352	0	1016,74	7	9	8,8	1	1	1	1	1	1	1	1	1	0	1	-9,725159	274,252785	311,040042	0
15.01.2021	19:32:54	0	0	4,406216	2,3775	315,882	0,243	85,36	0	1016,84	7	9	8,8	1	1	1	1	1	1	1	1	1	0	1	-7,751938	274,19571	312,746325	0
15.01.2021	19:32:55	0	0	3,615356	2,34075	297,8424	0,245	85,359	0	1016,9	6,9	9	8,8	1	1	1	1	1	1	1	1	1	0	1	-12,825934	274,224226	307,805678	0
15.01.2021	19:32:56	0	0	4,519195	2,4705	314,4564	0,246	85,345	0	1016,86	7	9	8,8	1	1	1	1	1	1	1	1	1	0	1	-12,614517	274,350807	308,609513	0
15.01.2021	19:32:57	0	0	4,067276	2,6025	300,402	0,248	85,367	0	1017,1	6,9	9	8,8	1	1	1	1	1	1	1	1	1	0	1	-7,258633	274,361393	314,014978	0
15.01.2021	19:32:58	0	0	2,485558	2,83725	311,0292	0,249	85,377	0	1016,86	6,9	9	8,8	1	1	1	1	1	1	1	1	1	0	1	-8,879493	274,252785	311,885707	0
15.01.2021	19:32:59	0	0	1,920658	2,82	301,0284	0,246	85,345	0	1016,9	7	9	8,8	1	1	1	1	1	1	1	1	1	0	1	-10,993658	274,188213	309,469554	0
15.01.2021	19:33:00	0	0	2,711517	2,55825	300,5496	0,25	85,361	0	1016,68	6,9	9	8,8	1	1	1	1	1	1	1	1	1	0	1	-6,272023	274,285906	314,648158	0
15.01.2021	19:33:01	0	0	4,406216	2,58525	307,17	0,244	85,369	0	1016,92	7	9	8,8	1	1	1	1	1	1	1	1	1	0	1	-10,923185	274,361393	310,350426	0
15.01.2021	19:33:02	0	0	4,067276	2,66925	308,4408	0,248	85,368	0	1016,88	7	9	8,8	1	1	1	1	1	1	1	1	1	0	1	-8,315715	274,282893	312,590363	0
15.01.2021	19:33:03	0	0	4,745155	2,75925	305,0352	0,248	85,372	0	1016,9	7	9	8,8	1	1	1	1	1	1	1	1	1	0	1	-7,540521	274,355343	313,704754	0
15.01.2021	19:33:04	0	0	3,615356	2,6235	309,9672	0,251	85,379	0	1016,94	7	9	8,8	1	1	1	1	1	1	1	1	1	0	1	-12,332629	274,308521	308,693405	0
15.01.2021	19:33:05	0	0	2,485558	2,5425	305,0532	0,249	85,357	0	1016,9	6,9	9	8,8	1	1	1	1	1	1	1	1	1	0	1	-8,245243	274,19571	312,25302	0
15.01.2021	19:33:06	0	0	3,050457	2,71125	301,626	0,246	85,376	0	1016,82	6,9	9	8,8	1	1	1	1	1	1	1	1	1	0	1	-9,513742	274,258803	311,279612	0
15.01.2021	19:33:07	0	0	3,728336	2,9505	297,234	0,244	85,377	0	1016,88	7	9	8,8	1	1	1	1	1	1	1	1	1	0	1	-14,587738	274,19721	305,917538	0
15.01.2021	19:33:08	0	0	3,502376	3,19125	299,3904	0,247	85,347	0	1017,04	7	9	8,8	1	1	1	1	1	1	1	1	1	0	1	-11,980268	274,346272	309,222523	0
15.01.2021	19:33:09	0	0	2,598537	3,32475	305,3952	0,247	85,36	0	1016,9	7	9	8,8	1	1	1	1	1	1	1	1	1	0	1	-9,936575	274,192711	310,547666	0
15.01.2021	19:33:10	0	0	3,163437	3,3345	304,182	0,249	85,364	0	1016,84	7	9	8,8	1	1	1	1	1	1	1	1	1	0	1	-9,090909	274,343249	312,097726	0
15.01.2021	19:33:11	0	0	4,858135	3,25725	305,4096	0,252	85,369	0	1016,88	6,9	9	8,8	1	1	1	1	1	1	1	1	1	0	1	-13,6716	274,371985	307,651626	0
15.01.2021	19:33:12	0	0	3,728336	3,1455	297,216	0,244	85,36	0	1016,94	6,9	9	8,8	1	1	1	1	1	1	1	1	1	0	1	-4,933051	274,245266	315,796971	0
15.01.2021	19:33:13	0	0	3,728336	3,06	305,4132	0,247	85,368	0	1016,84	7	9	8,8	1	1	1	1	1	1	1	1	1	0	1	-4,298802	274,167235	316,066351	0
15.01.2021	19:33:14	0	0	2,598537	2,99025	293,3568	0,236	85,362	0	1016,88	7	9	8,8	1	1	1	1	1	1	1	1	1	0	1	-4,298802	274,27235	316,557939	0
15.01.2021	19:33:15	0	0	4,632175	2,961	300,456	0,244	85,361	0	1016,92	7	9	8,8	1	1	1	1	1	1	1	1	1	0	1	-13,883016	274,371985	307,440209	0
15.01.2021	19:33:16	0	0	2,937477	2,88225	286,6356	0,255	85,364	0	1016,92	6,9	9	8,8	1	1	1	1	1	1	1	1	1	0	1	-12,684989	274,346272	308,517802	0
15.01.2021	19:33:17	0	0	4,858135	2,85825	292,2156	0,247	85,357	0	1016,78	7	9	8,8	1	1	1	1	1	1	1	1	1	0	1	-12,121212	274,368958	309,187835	0
15.01.2021	19:33:18	0	0	3,050457	2,77725	286,6716	0,245	85,353	0	1016,82	7	9	8,8	1	1	1	1	1	1	1	1	1	0	1	-11,839323	274,258803	308,954031	0
15.01.2021	19:33:19	0	0	3,615356	2,79375	297,9612	0,251	85,371	0	1016,84	7	9	8,8	1	1	1	1	1	1	1	1	1	0	1	-10,359408	274,365932	310,935462	0
15.01.2021	19:33:20	0	0	3,163437	2,76675	304,308	0,254	85,369	0	1016,74	7	9	8,8	1	1	1	1	1	1	1	1	1	0	1	-8,174771	274,297964	312,801846	0
15.01.2021	19:33:21	0	0	3,954296	2,652	316,6128	0,249	85,36	0	1016,86	7	9	8,8	1	1	1	1	1	1	1	1	1	0	1	-7,188161	274,364419	314,099623	0
15.01.2021	19:33:22	0	0	3,276417	2,4735	316,2132	0,247	85,359	0	1016,78	7	9	8,8	1	1	1	1	1	1	1	1	1	0	1	-4,439746	274,275361	316,431087	0
15.01.2021	19:33:23	0	0	3,841316	2,238	311,0148	0,246	85,363	0	1016,88	7	9	8,8	1	1	1	1	1	1	1	1	1	0	1	-11,134602	274,371985	310,188624	0
15.01.2021	19:33:24	0	0	5,084095	2,1045	314,1864	0,241	85,369	0	1016,92	7	9	8,8	1	1	1	1	1	1	1	1	1	0	1	-13,460183	274,316065	307,601169	0
15.01.2021	19:33:25	0	0	3,389397	2,178	313,2576	0,246	85,36	0	1016,98	7	9	8,8	1	1	1	1	1	1	1	1	1	0	1	-6,624383	274,192711	313,859857	0
15.01.2021	19:33:26	0	0	4,745155	2,36025	317,3292	0,245	85,369	0	1016,96	7	9	8,8	1	1	1	1	1	1	1	1	1	0	1	-8,80902	274,337205	312,351311	0
15.01.2021	19:33:27	0	0	2,598537	2,34075	322,6032	0,245	85,377	0	1016,94	7	9	8,8	1	1	1	1	1	1	1	1	1	0	1	-11,839323	274,365932	309,455547	0
15.01.2021	19:33:28	0	0	3,050457	2,25075	319,23	0,249	85,378	0	1016,88	7	9	8,8	1	1	1	1	1	1	1	1	1	0	1	-11,275546	274,323613	309,82114	0
15.01.2021	19:33:29	0	0	2,598537	2,11275	321,4296	0,249	85,387	0	1016,96	6,9	9	8,8	1	1	1	1	1	1	1	1	1	0	1	-9,584214	274,234743	311,096587	0
15.01.2021	19:33:30	0	0	3,389397	2,172	309,6	0,245	85,372	0	1016,96	7	9	8,8	1	1	1	1	1	1	1	1	1	0	1	-7,188161	274,204711	313,352187	0
15.01.2021	19:33:31	0	0	4,745155	2,14875	320,0148	0,242	85,358	0	1016,9	6,9	9	8,8	1	1	1	1	1	1	1	1	1	0	1	-6,553911	274,319084	314,521573	0
15.01.2021	19:33:32	0	0	4,632175	2,14575	320,4252	0,248	85,366	0	1016,9	6,8	9	8,8	1	1	1	1	1	1	1	1	1	0	1	-6,553911	274,19871	313,958378	0
15.01.2021	19:33:33	0	0	3,615356	2,04675	300,2472	0,241	85,351	0	1016,88	7	9	8,8	1	1	1	1	1	1	1	1	1	0	1	-8,104299	274,319084	312,971185	0
15.01.2021	19:33:34	0	0	3,841316	2,157	317,7216	0,246	85,376	0	1016,86	6,9	9	8,8	1	1	1	1	1	1	1	1	1	0	1	-8,879493	274,186713	311,57671	0
15.01.2021	19:33:35	0	0	2,824497	2,24475	305,3844	0,248	85,358	0	1016,86	7	9	8,8	1	1	1	1	1	1	1	1	1	0	1	-8,80902	274,266328	312,019542	0
15.01.2021	19:33:36	0	0	4,067276	2,31	305,7912	0,248	85,375	0	1016,84	7	9	8,8	1	1	1	1	1	1	1	1	1	0	1	-5,778717	274,180718	314,649458	0
15.01.2021	19:33:37	0	0	4,745155	2,33325	306,1548	0,246	85,367	0	1016,86	7	9	8,8	1	1	1	1	1	1	1	1	1	0	1	-6,060606	274,263317	314,753871	0
15.01.2021	19:33:38	0	0	3,502376	2,24625	296,8416	0,248	85,361	0	1016,8	7	9	8,8	1	1	1	1	1	1	1	1	1	0	1	-5,285412	274,379554	316,073272	0
15.01.2021	19:33:39	0	0	4,293236	2,26125	309,2112	0,246	85,372	0	1016,92	7	9	8,8	1	1	1	1	1	1	1	1	1	0	1	-9,44327	274,278374	311,44166	0
15.01.2021	19:33:40	0	0	4,519195	2,397	301,6764	0,253	85,379	0	1016,96	7	9	8,8	1	1	1	1	1	1	1	1	1	0	1	-10,993658	274,375012	310,34375	0
15.01.2021	19:33:41	0	0	3,502376	2,385	304,2288	0,252	85,381	0	1016,94	7	9	8,8	1	1	1	1	1	1	1	1	1	0	1	-12,473573	274,296456	308,495987	0
15.01.2021	19:33:42	0	0	2,824497	2,3085	292,95	0,249	85,361	0	1016,88	7	9,1	8,8	1	1	1	1	1	1	1	1	1	0	1	-7,188161	274,185214	313,261034	0
15.01.2021	19:33:43	0	0	2,937477	2,2515	305,3772	0,253	85,366	0	1016,82	7	9	8,8	1	1	1	1	1	1	1	1	1	0	1	-12,191684	274,257298	308,594631	0
15.01.2021	19:33:44	0	0	4,632175	2,25825	303,5232	0,251	85,367	0	1016,9	6,9	9	8,8	1	1	1	1	1	1	1	1	1	0	1	-10,077519	274,370471	311,238616	0
15.01.2021	19:33:45	0	0	3,954296	2,29425	300,1536	0,245	85,383	0	1016,84	7	9	8,8	1	1	1	1	1	1	1	1	1	0	1	-8,668076	274,316065	312,393276	0
15.01.2021	19:33:46	0	0	3,389397	2,271	309,8844	0,244	85,368	0	1016,68	6,9	9	8,8	1	1	1	1	1	1	1	1	1	0	1	-11,134602	274,375012	310,202805	0
15.01.2021	19:33:47	0	0	3,276417	2,22975	302,094	0,252	85,368	0	1016,72	7	9	8,8	1	1	1	1	1	1	1	1	1	0	1	-6,553911	274,260308	314,246483	0
15.01.2021	19:33:48	0	0	2,259598	2,11725	306,4824	0,252	85,372	0	1016,82	7	9	8,8	1	1	1	1	1	1	1	1	1	0	1	-6,342495	274,19721	314,162781	0
15.01.2021	19:33:49	0	0	3,728336	2,01075	301,1724	0,249	85,374	0	1016,86	7	9	8,8	1	1	1	1	1	1	1	1	1	0	1	-10,641297	274,308521	310,384737	0
15.01.2021	19:33:50	0	0	2,259598	2,09625	293,7276	0,255	85,391	0	1016,86	6,9	9	8,8	1	1	1	1	1	1	1	1	1	0	1	-9,513742	274,376526	311,830757	0
15.01.2021	19:33:51	0	0	3,502376	2,217	297,8856	0,249	85,373	0	1016,76	7	9	8,8	1	1	1	1	1	1	1	1	1	0	1	-9,090909	274,296456	311,878651	0
15.01.2021	19:33:52	0	0	2,711517	2,25375	302,4612	0,246	85,361	0	1016,8	7	9	8,8	1	1	1	1	1	1	1	1	1	0	1	-11,41649	274,20171	309,109827	0
15.01.2021	19:33:53	0	0	4,745155	2,37825	298,5984	0,252	85,377	0	1016,86	7	9	8,8	1	1	1	1	1	1	1	1	1	0	1	-7,963354	274,323613	313,133332	0
15.01.2021	19:33:54	0	0	4,858135	2,34375	298,2672	0,252	85,387	0	1016,9	6,9	9	8,8	1	1	1	1	1	1	1	1	1	0	1	-10,42988	274,373498	310,900436	0
15.01.2021	19:33:55	0	0	3,615356	2,199	306,8028	0,25	85,375	0	1016,82	6,9	9	8,8	1	1	1	1	1	1	1	1	1	0	1	-7,258633	274,320593	313,823918	0
15.01.2021	19:33:56	0	0	2,598537	2,18025	298,692	0,255	85,399	0	1016,92	7	9	8,8	1	1	1	1	1	1	1	1	1	0	1	-10,782241	274,367445	310,519717	0
15.01.2021	19:33:57	0	0	3,615356	2,25375	294,066	0,249	85,394	0	1016,92	7	9	8,8	1	1	1	1	1	1	1	1	1	0	1	-6,272023	274,307013	314,74695	0
15.01.2021	19:33:58	0	0	5,197075	2,45325	294,4152	0,258	85,384	0	1017,12	7	9	8,8	1	1	1	1	1	1	1	1	1	0	1	-12,473573	274,19421	308,017679	0
15.01.2021	19:33:59	0	0	2,937477	2,58825	289,9764	0,249	85,398	0	1016,8	7	9	8,8	1	1	1	1	1	1	1	1	1	0	1	-8,527132	274,317575	312,541286	0
15.01.2021	19:34:00	0	0	3,389397	2,4975	294,4296	0,25	85,397	0	1016,9	7	9	8,8	1	1	1	1	1	1	1	1	1	0	1	-10,218464	274,376526	311,126035	0
15.01.2021	19:34:01	0	0	3,502376	2,409	297,9072	0,247	85,387	0	1016,86	7	9	8,8	1	1	1	1	1	1	1	1	1	0	1	-9,584214	274,290427	311,357125	0
15.01.2021	19:34:02	0	0	4,519195	2,2965	300,4128	0,245	85,389	0	1016,96	6,9	9	8,8	1	1	1	1	1	1	1	1	1	0	1	-7,258633	274,20021	313,26067	0
15.01.2021	19:34:03	0	0	4,406216	2,2095	297,5436	0,25	85,394	0	1017	7	9	8,8	1	1	1	1	1	1	1	1	1	0	1	-7,399577	274,243762	313,323411	0
15.01.2021	19:34:04	0	0	4,519195	2,15325	298,2276	0,251	85,389	0	1017,06	7	9	8,8	1	1	1	1	1	1	1	1	1	0	1	-8,738548	274,367445	312,56341	0
15.01.2021	19:34:05	0	0	4,632175	2,0295	295,0848	0,248	85,383	0	1016,9	7	9	8,8	1	1	1	1	1	1	1	1	1	0	1	-12,896406	274,291934	308,051988	0
15.01.2021	19:34:06	0	0	3,163437	1,93575	304,9344	0,246	85,401	0	1016,68	7	9	8,8	1	1	1	1	1	1	1	1	1	0	1	-8,033827	274,373498	313,296489	0
15.01.2021	19:34:07	0	0	3,841316	1,848	300,8628	0,252	85,394	0	1016,9	7	9	8,8	1	1	1	1	1	1	1	1	1	0	1	-14,305849	274,379554	307,052835	0
15.01.2021	19:34:08	0	0	4,406216	1,812	295,9452	0,253	85,395	0	1016,92	7	9	8,8	1	1	1	1	1	1	1	1	1	0	1	-8,597604	274,319084	312,47788	0
15.01.2021	19:34:09	0	0	3,728336	1,79625	294,0804	0,254	85,408	0	1017	6,9	9	8,8	1	1	1	1	1	1	1	1	1	0	1	-6,624383	274,31003	314,408713	0
15.01.2021	19:34:10	0	0	2,824497	1,788	297,7992	0,254	85,406	0	1016,86	7	9	8,8	1	1	1	1	1	1	1	1	1	0	1	-6,8358	274,19721	313,669476	0
15.01.2021	19:34:11	0	0	3,502376	1,84425	300,1212	0,255	85,395	0	1016,92	7	9	8,8	1	1	1	1	1	1	1	1	1	0	1	-10,147992	274,319084	310,927492	0
15.01.2021	19:34:12	0	0	4,519195	1,86	299,3796	0,246	85,391	0	1016,84	7	9	8,8	1	1	1	1	1	1	1	1	1	0	1	-5,496829	274,365932	315,798042	0
15.01.2021	19:34:13	0	0	2,598537	2,01075	305,712	0,252	85,397	0	1016,94	6,9	9	8,8	1	1	1	1	1	1	1	1	1	0	1	-7,047216	274,285906	313,872964	0
15.01.2021	19:34:14	0	0	3,502376	2,17725	300,4668	0,255	85,398	0	1016,84	7	9	8,8	1	1	1	1	1	1	1	1	1	0	1	-11,698379	274,373498	309,631937	0
15.01.2021	19:34:15	0	0	4,632175	2,061	292,2624	0,253	85,403	0	1016,88	7	9	8,8	1	1	1	1	1	1	1	1	1	0	1	-5,285412	274,258803	315,507942	0
15.01.2021	19:34:16	0	0	2,937477	1,98675	290,4048	0,252	85,391	0	1016,92	7	9	8,8	1	1	1	1	1	1	1	1	1	0	1	-9,936575	274,381068	311,429203	0
15.01.2021	19:34:17	0	0	3,502376	1,83825	287,7264	0,253	85,379	0	1016,86	7	9	8,8	1	1	1	1	1	1	1	1	1	0	1	-10,288936	274,316065	310,772416	0
15.01.2021	19:34:18	0	0	4,180256	1,7625	294,8004	0,249	85,389	0	1016,76	7	9	8,8	1	1	1	1	1	1	1	1	1	0	1	-10,359408	274,375012	310,977999	0
15.01.2021	19:34:19	0	0	4,971115	1,67625	294,3828	0,256	85,394	0	1016,92	7	9	8,8	1	1	1	1	1	1	1	1	1	0	1	-7,892882	274,281386	313,006146	0
15.01.2021	19:34:20	0	0	3,050457	1,6245	300,4776	0,258	85,373	0	1016,8	7	9	8,8	1	1	1	1	1	1	1	1	1	0	1	-9,936575	274,191211	310,540655	0
15.01.2021	19:34:21	0	0	4,293236	1,62375	294,8292	0,254	85,384	0	1016,72	7	9	8,8	1	1	1	1	1	1	1	1	1	0	1	-10,923185	274,325122	310,18057	0
15.01.2021	19:34:22	0	0	4,293236	1,5885	301,2228	0,259	85,398	0	1016,96	7	9	8,8	1	1	1	1	1	1	1	1	1	0	1	-5,637773	274,219721	314,972768	0
15.01.2021	19:34:23	0	0	4,858135	1,52475	317,7324	0,254	85,374	0	1016,88	7	9	8,8	1	1	1	1	1	1	1	1	1	0	1	-7,399577	274,358368	313,859865	0
15.01.2021	19:34:24	0	0	4,406216	1,5855	314,4096	0,254	85,394	0	1016,82	7	9	8,8	1	1	1	1	1	1	1	1	1	0	1	-10,077519	274,20021	310,441783	0
15.01.2021	19:34:25	0	0	3,050457	1,749	304,9776	0,258	85,381	0	1016,88	7	9	8,8	1	1	1	1	1	1	1	1	1	0	1	-7,258633	274,27235	313,598108	0
15.01.2021	19:34:26	0	0	2,824497	2,05125	314,4132	0,258	85,453	0	1016,84	7	9	8,8	1	1	1	1	1	1	1	1	1	0	1	-9,302326	274,234743	311,378475	0
15.01.2021	19:34:27	0	0	4,519195	2,361	294,12	0,258	85,402	0	1016,88	6,9	9	8,8	1	1	1	1	1	1	1	1	1	0	1	-7,892882	274,192711	312,591358	0
15.01.2021	19:34:28	0	0	4,858135	2,589	311,7096	0,256	85,396	0	1016,9	7	9	8,8	1	1	1	1	1	1	1	1	1	0	1	-11,627907	274,337205	309,532424	0
15.01.2021	19:34:29	0	0	4,180256	2,595	301,5252	0,257	85,395	0	1016,84	7	9	8,8	1	1	1	1	1	1	1	1	1	0	1	-9,44327	274,375012	311,894137	0
15.01.2021	19:34:30	0	0	4,632175	2,56875	313,6032	0,256	85,389	0	1016,94	7	9	8,8	1	1	1	1	1	1	1	1	1	0	1	-9,795631	274,228733	310,857058	0
15.01.2021	19:34:31	0	0	2,485558	2,4855	309,1608	0,253	85,393	0	1016,66	7	9	8,8	1	1	1	1	1	1	1	1	1	0	1	-8,174771	274,19421	312,316481	0
15.01.2021	19:34:32	0	0	3,163437	2,42925	308,4408	0,256	85,389	0	1016,86	7	9	8,8	1	1	1	1	1	1	1	1	1	0	1	-5,426357	274,335694	315,7269	0
15.01.2021	19:34:33	0	0	4,519195	2,59125	301,23	0,255	85,4	0	1016,86	7	9	8,8	1	1	1	1	1	1	1	1	1	0	1	-8,315715	274,382582	313,057157	0
15.01.2021	19:34:34	0	0	2,598537	2,652	299,7216	0,255	85,392	0	1016,8	6,8	9	8,8	1	1	1	1	1	1	1	1	1	0	1	-5,84919	274,317575	315,219228	0
15.01.2021	19:34:35	0	0	4,180256	2,66925	303,5124	0,252	85,387	0	1016,84	7	9	8,8	1	1	1	1	1	1	1	1	1	0	1	-6,20155	274,210713	314,366867	0
15.01.2021	19:34:36	0	0	3,276417	2,67225	296,0604	0,251	85,387	0	1016,96	7	9	8,8	1	1	1	1	1	1	1	1	1	0	1	-10,288936	274,31003	310,74416	0
15.01.2021	19:34:37	0	0	3,502376	2,73975	305,6724	0,246	85,394	0	1016,8	6,9	9	8,8	1	1	1	1	1	1	1	1	1	0	1	-4,439746	274,216718	316,156751	0
15.01.2021	19:34:38	0	0	2,598537	2,775	308,4984	0,25	85,389	0	1016,94	7	9	8,8	1	1	1	1	1	1	1	1	1	0	1	-9,936575	274,237749	310,758286	0
15.01.2021	19:34:39	0	0	2,598537	2,778	308,0664	0,252	85,408	0	1016,88	7	9,1	8,8	1	1	1	1	1	1	1	1	1	0	1	-7,540521	274,207712	313,01386	0
15.01.2021	19:34:40	0	0	4,519195	2,71875	305,73	0,258	85,404	0	1016,78	7	9	8,8	1	1	1	1	1	1	1	1	1	0	1	-8,386187	274,303996	312,618664	0
15.01.2021	19:34:41	0	0	3,276417	2,601	311,8104	0,255	85,408	0	1016,84	7	9	8,8	1	1	1	1	1	1	1	1	1	0	1	-7,470049	274,371985	313,853176	0
15.01.2021	19:34:42	0	0	3,389397	2,289	315,9072	0,253	85,407	0	1017,02	7	9	8,8	1	1	1	1	1	1	1	1	1	0	1	-8,668076	274,322103	312,421542	0
15.01.2021	19:34:43	0	0	2,598537	2,12325	300,1536	0,255	85,386	0	1017,06	6,9	9	8,8	1	1	1	1	1	1	1	1	1	0	1	-7,963354	274,176223	312,443808	0
15.01.2021	19:34:44	0	0	2,598537	2,20125	290,8692	0,257	85,406	0	1017,08	7	9	8,8	1	1	1	1	1	1	1	1	1	0	1	-9,090909	274,258803	311,702445	0
15.01.2021	19:34:45	0	0	3,163437	2,37975	294,7572	0,256	85,412	0	1017,08	7	9	8,8	1	1	1	1	1	1	1	1	1	0	1	-10,288936	274,215217	310,30054	0
15.01.2021	19:34:46	0	0	3,954296	2,45925	304,9956	0,252	85,382	0	1016,9	7	9	8,8	1	1	1	1	1	1	1	1	1	0	1	-7,047216	274,287413	313,880016	0
15.01.2021	19:34:47	0	0	3,502376	2,445	302,0652	0,26	85,399	0	1016,94	7	9	8,8	1	1	1	1	1	1	1	1	1	0	1	-9,936575	274,19721	310,568701	0
15.01.2021	19:34:48	0	0	2,598537	2,43225	306,0792	0,261	85,395	0	1016,76	7	9	8,8	1	1	1	1	1	1	1	1	1	0	1	-11,980268	274,264822	308,841252	0
15.01.2021	19:34:49	0	0	2,824497	2,418	302,8212	0,259	85,402	0	1017	6,8	9	8,8	1	1	1	1	1	1	1	1	1	0	1	-5,567301	274,367445	315,734657	0
15.01.2021	19:34:50	0	0	4,858135	2,36475	294,0948	0,256	85,398	0	1016,94	7	9	8,8	1	1	1	1	1	1	1	1	1	0	1	-10,570825	274,264822	310,250695	0
15.01.2021	19:34:51	0	0	2,937477	2,3745	298,6776	0,261	85,404	0	1016,9	7	9	8,8	1	1	1	1	1	1	1	1	1	0	1	-7,399577	274,183716	313,042611	0
15.01.2021	19:34:52	0	0	5,084095	2,44275	299,4048	0,255	85,394	0	1016,7	7	9	8,8	1	1	1	1	1	1	1	1	1	0	1	-11,275546	274,240755	309,433377	0
15.01.2021	19:34:53	0	0	2,485558	2,715	293,2416	0,259	85,393	0	1016,92	7	9	8,8	1	1	1	1	1	1	1	1	1	0	1	-7,188161	274,353831	314,050032	0
15.01.2021	19:34:54	0	0	4,406216	2,86725	291,1932	0,249	85,383	0	1016,9	7	9	8,8	1	1	1	1	1	1	1	1	1	0	1	-9,231853	274,346272	311,970938	0
15.01.2021	19:34:55	0	0	2,372578	3,0885	296,8884	0,257	85,392	0	1016,88	6,9	9	8,8	1	1	1	1	1	1	1	1	1	0	1	-10,077519	274,209212	310,483879	0
15.01.2021	19:34:56	0	0	4,180256	3,2055	297,1692	0,253	85,372	0	1016,96	7	9	8,8	1	1	1	1	1	1	1	1	1	0	1	-3,946441	274,219721	316,6641	0
15.01.2021	19:34:57	0	0	3,276417	3,345	294,8256	0,251	85,384	0	1016,94	7	9	8,8	1	1	1	1	1	1	1	1	1	0	1	-7,188161	274,364419	314,099623	0
15.01.2021	19:34:58	0	0	3,841316	3,4395	301,212	0,256	85,384	0	1016,84	7	9	8,8	1	1	1	1	1	1	1	1	1	0	1	-7,258633	274,34476	313,93708	0
15.01.2021	19:34:59	0	0	2,711517	3,51	298,2708	0,26	85,384	0	1016,88	7	9	8,8	1	1	1	1	1	1	1	1	1	0	1	-7,610994	274,225728	313,027643	0
15.01.2021	19:35:00	0	0	2,146618	3,5355	298,7172	0,249	85,371	0	1016,84	7	9	8,8	1	1	1	1	1	1	1	1	1	0	1	-11,909796	274,20321	308,623536	0
15.01.2021	19:35:01	0	0	3,502376	3,45075	292,2192	0,258	85,386	0	1016,84	7	9	8,8	1	1	1	1	1	1	1	1	1	0	1	-5,919662	274,183716	314,522526	0
15.01.2021	19:35:02	0	0	4,293236	3,3705	290,0592	0,251	85,362	0	1016,82	7	9	8,8	1	1	1	1	1	1	1	1	1	0	1	-11,346018	274,328142	309,771877	0
15.01.2021	19:35:03	0	0	3,502376	3,2925	297,2232	0,256	85,397	0	1017	7	9	8,8	1	1	1	1	1	1	1	1	1	0	1	-8,174771	274,349295	313,042179	0
15.01.2021	19:35:04	0	0	2,372578	3,18075	292,1508	0,256	85,375	0	1016,84	7	9	8,8	1	1	1	1	1	1	1	1	1	0	1	-7,399577	274,209212	313,161822	0
15.01.2021	19:35:05	0	0	4,067276	3,09075	296,4744	0,255	85,379	0	1016,88	7	9	8,8	1	1	1	1	1	1	1	1	1	0	1	-5,990134	274,326632	315,120691	0
15.01.2021	19:35:06	0	0	4,293236	2,9805	291,2436	0,249	85,371	0	1016,9	7	9	8,8	1	1	1	1	1	1	1	1	1	0	1	-4,933051	274,219721	315,67749	0
15.01.2021	19:35:07	0	0	3,728336	3,0225	292,1688	0,253	85,376	0	1016,96	7	9	8,8	1	1	1	1	1	1	1	1	1	0	1	-7,399577	274,370471	313,916559	0
15.01.2021	19:35:08	0	0	3,276417	3,15975	302,8176	0,259	85,366	0	1017,02	7	9	8,8	1	1	1	1	1	1	1	1	1	0	1	-10,218464	274,332673	310,920647	0
15.01.2021	19:35:09	0	0	2,937477	3,159	301,2156	0,261	85,375	0	1017,02	7	9	8,8	1	1	1	1	1	1	1	1	1	0	1	-9,302326	274,361393	311,971286	0
15.01.2021	19:35:10	0	0	4,293236	2,97	299,7576	0,263	85,371	0	1016,88	7	9	8,8	1	1	1	1	1	1	1	1	1	0	1	-8,45666	274,266328	312,371903	0
15.01.2021	19:35:11	0	0	2,824497	2,74125	298,3392	0,255	85,36	0	1016,8	7	9	8,8	1	1	1	1	1	1	1	1	1	0	1	-7,047216	274,20021	313,472086	0
15.01.2021	19:35:12	0	0	4,745155	2,5575	300,87	0,259	85,374	0	1016,94	7	9	8,8	1	1	1	1	1	1	1	1	1	0	1	-10,147992	274,379554	311,210693	0
15.01.2021	19:35:13	0	0	3,276417	2,394	318,3624	0,259	85,372	0	1016,88	7	9	8,8	1	1	1	1	1	1	1	1	1	0	1	-12,755462	274,322103	308,334157	0
15.01.2021	19:35:14	0	0	2,824497	2,35425	282,1068	0,25	85,364	0	1016,74	7	9	8,8	1	1	1	1	1	1	1	1	1	0	1	-10,500352	274,207712	310,054029	0
15.01.2021	19:35:15	0	0	3,502376	2,39325	286,29	0,256	85,361	0	1016,86	7	9	8,8	1	1	1	1	1	1	1	1	1	0	1	-6,553911	274,299472	314,429763	0
15.01.2021	19:35:16	0	0	2,711517	2,29875	290,0448	0,257	85,366	0	1016,98	7	9	8,8	1	1	1	1	1	1	1	1	1	0	1	-11,768851	274,20021	308,750451	0
15.01.2021	19:35:17	0	0	4,067276	2,19225	295,2072	0,255	85,347	0	1016,9	7	9	8,8	1	1	1	1	1	1	1	1	1	0	1	-12,614517	274,31003	308,418579	0
15.01.2021	19:35:18	0	0	4,406216	2,14275	294,7896	0,254	85,369	0	1016,84	7	9	8,8	1	1	1	1	1	1	1	1	1	0	1	-8,80902	274,375012	312,528387	0
15.01.2021	19:35:19	0	0	4,519195	1,99125	298,6632	0,258	85,361	0	1016,92	7	9	8,8	1	1	1	1	1	1	1	1	1	0	1	-9,090909	274,337205	312,069422	0
15.01.2021	19:35:20	0	0	4,406216	2,02875	291,8592	0,252	85,337	0	1016,96	7	9	8,8	1	1	1	1	1	1	1	1	1	0	1	-11,205074	274,302488	309,792718	0
15.01.2021	19:35:21	0	0	4,632175	2,115	306,0972	0,251	85,358	0	1016,82	7	9	8,8	1	1	1	1	1	1	1	1	1	0	1	-6,624383	274,384097	314,755584	0
15.01.2021	19:35:22	0	0	3,502376	2,127	290,0016	0,256	85,346	0	1016,82	7	9	8,8	1	1	1	1	1	1	1	1	1	0	1	-8,949965	274,35988	312,316562	0
15.01.2021	19:35:23	0	0	3,728336	2,31975	294,8148	0,256	85,349	0	1016,9	7	9	8,8	1	1	1	1	1	1	1	1	1	0	1	-6,624383	274,352319	314,606728	0
15.01.2021	19:35:24	0	0	4,858135	2,523	299,016	0,258	85,337	0	1017	6,8	9	8,8	1	1	1	1	1	1	1	1	1	0	1	-11,980268	274,370471	309,335868	0
15.01.2021	19:35:25	0	0	3,389397	2,57625	295,182	0,257	85,343	0	1016,8	7	9	8,8	1	1	1	1	1	1	1	1	1	0	1	-7,399577	274,228733	313,253112	0
15.01.2021	19:35:26	0	0	3,050457	2,80275	298,278	0,253	85,357	0	1016,82	7	9	8,8	1	1	1	1	1	1	1	1	1	0	1	-8,879493	274,35988	312,387034	0
15.01.2021	19:35:27	0	0	4,858135	2,8275	300,4488	0,258	85,346	0	1016,84	7	9	8,8	1	1	1	1	1	1	1	1	1	0	1	-9,372798	274,323613	311,723889	0
15.01.2021	19:35:28	0	0	2,937477	2,6355	300,4308	0,25	85,346	0	1016,72	7	9	8,8	1	1	1	1	1	1	1	1	1	0	1	-10,007047	274,209212	310,554352	0
15.01.2021	19:35:29	0	0	4,180256	2,5575	304,6896	0,254	85,354	0	1017	7	9	8,8	1	1	1	1	1	1	1	1	1	0	1	-7,188161	274,285906	313,73202	0
15.01.2021	19:35:30	0	0	4,519195	2,71725	306,7848	0,256	85,351	0	1016,9	7	9	8,8	1	1	1	1	1	1	1	1	1	0	1	-12,825934	274,37804	308,525657	0
15.01.2021	19:35:31	0	0	2,824497	2,86125	309,3156	0,249	85,342	0	1016,9	7	9	8,8	1	1	1	1	1	1	1	1	1	0	1	-8,45666	274,273855	312,407127	0
15.01.2021	19:35:32	0	0	4,519195	2,96175	299,7504	0,259	85,353	0	1016,98	7	9	8,8	1	1	1	1	1	1	1	1	1	0	1	-6,553911	274,20021	313,965391	0
15.01.2021	19:35:33	0	0	4,858135	2,95275	300,8628	0,255	85,348	0	1016,94	6,9	9	8,8	1	1	1	1	1	1	1	1	1	0	1	-11,839323	274,264822	308,982196	0
15.01.2021	19:35:34	0	0	2,259598	2,92275	297,2196	0,255	85,344	0	1016,8	7	9	8,8	1	1	1	1	1	1	1	1	1	0	1	-10,641297	274,368958	310,66775	0
15.01.2021	19:35:35	0	0	3,502376	2,91375	305,334	0,255	85,326	0	1016,84	7	9	8,8	1	1	1	1	1	1	1	1	1	0	1	-5,778717	274,320593	315,303833	0
15.01.2021	19:35:36	0	0	4,519195	2,87025	306,0576	0,257	85,342	0	1016,94	7	9	8,8	1	1	1	1	1	1	1	1	1	0	1	-6,976744	274,349295	314,240206	0
15.01.2021	19:35:37	0	0	3,050457	2,817	306,3744	0,248	85,34	0	1016,88	7	9	8,8	1	1	1	1	1	1	1	1	1	0	1	-8,597604	274,340227	312,576878	0
15.01.2021	19:35:38	0	0	4,745155	2,8485	309,1536	0,253	85,331	0	1016,72	7	9	8,8	1	1	1	1	1	1	1	1	1	0	1	-10,500352	274,365932	310,794518	0
15.01.2021	19:35:39	0	0	4,632175	2,73975	311,1372	0,256	85,321	0	1016,84	7	9	8,8	1	1	1	1	1	1	1	1	1	0	1	-10,500352	274,270844	310,349343	0
15.01.2021	19:35:40	0	0	4,971115	2,5605	308,4624	0,254	85,316	0	1016,8	7	9	8,8	1	1	1	1	1	1	1	1	1	0	1	-9,513742	274,368958	311,795305	0
15.01.2021	19:35:41	0	0	4,067276	2,3865	315,9252	0,248	85,324	0	1016,88	7	9	8,8	1	1	1	1	1	1	1	1	1	0	1	-8,104299	274,236246	312,583532	0
15.01.2021	19:35:42	0	0	3,954296	2,253	311,7132	0,254	85,322	0	1016,88	7	9	8,8	1	1	1	1	1	1	1	1	1	0	1	-5,919662	274,350807	315,304368	0
15.01.2021	19:35:43	0	0	3,615356	2,097	310,6872	0,256	85,35	0	1016,82	7	9	8,8	1	1	1	1	1	1	1	1	1	0	1	-9,866103	274,341738	311,315455	0
15.01.2021	19:35:44	0	0	3,050457	2,01525	289,998	0,259	85,345	0	1016,86	7	9	8,8	1	1	1	1	1	1	1	1	1	0	1	-12,05074	274,364419	309,237043	0
15.01.2021	19:35:45	0	0	1,920658	1,911	307,548	0,255	85,341	0	1016,92	7	9	8,8	1	1	1	1	1	1	1	1	1	0	1	-13,319239	274,322103	307,770379	0
15.01.2021	19:35:46	0	0	3,954296	1,8075	294,408	0,249	85,335	0	1016,94	7	9	8,8	1	1	1	1	1	1	1	1	1	0	1	-7,470049	274,376526	313,874449	0
15.01.2021	19:35:47	0	0	5,197075	1,87725	304,7004	0,252	85,332	0	1016,92	7	9	8,8	1	1	1	1	1	1	1	1	1	0	1	-8,245243	274,343249	312,943392	0
15.01.2021	19:35:48	0	0	2,598537	1,917	310,986	0,257	85,319	0	1016,98	7	9	8,8	1	1	1	1	1	1	1	1	1	0	1	-12,896406	274,17922	307,524765	0
15.01.2021	19:35:49	0	0	4,858135	1,95525	324,0396	0,259	85,339	0	1017	7	9	8,8	1	1	1	1	1	1	1	1	1	0	1	-15,433404	274,254289	305,338834	0
15.01.2021	19:35:50	0	0	4,971115	1,92975	311,4576	0,256	85,307	0	1016,76	7	9	8,8	1	1	1	1	1	1	1	1	1	0	1	-11,557435	274,352319	309,673676	0
15.01.2021	19:35:51	0	0	2,372578	1,90425	311,7384	0,253	85,335	0	1016,82	7	9	8,8	1	1	1	1	1	1	1	1	1	0	1	-5,355884	274,20321	315,177448	0
15.01.2021	19:35:52	0	0	4,406216	1,98	306,1224	0,258	85,329	0	1016,9	7	9	8,8	1	1	1	1	1	1	1	1	1	0	1	-12,966878	274,264822	307,854641	0
15.01.2021	19:35:53	0	0	5,310055	1,9545	323,3484	0,254	85,32	0	1016,88	7	9	8,8	1	1	1	1	1	1	1	1	1	0	1	-11,205074	274,365932	310,089797	0
15.01.2021	19:35:54	0	0	4,519195	1,92225	319,1616	0,255	85,323	0	1016,86	7	9	8,8	1	1	1	1	1	1	1	1	1	0	1	-14,587738	274,246769	306,149319	0
15.01.2021	19:35:55	0	0	2,824497	1,88475	309,564	0,252	85,323	0	1016,9	7	9	8,8	1	1	1	1	1	1	1	1	1	0	1	-8,174771	274,224226	312,456841	0
15.01.2021	19:35:56	0	0	3,389397	1,83075	306,45	0,257	85,305	0	1016,9	7	9	8,8	1	1	1	1	1	1	1	1	1	0	1	-9,44327	274,210713	311,125147	0
15.01.2021	19:35:57	0	0	4,067276	1,761	314,4096	0,253	85,332	0	1016,78	7	9	8,8	1	1	1	1	1	1	1	1	1	0	1	-10,500352	274,251281	310,257811	0
15.01.2021	19:35:58	0	0	2,598537	1,6845	320,0436	0,257	85,323	0	1016,84	7	9	8,8	1	1	1	1	1	1	1	1	1	0	1	-7,399577	274,207712	313,154804	0
15.01.2021	19:35:59	0	0	5,197075	1,692	320,0148	0,252	85,305	0	1016,54	7	9	8,8	1	1	1	1	1	1	1	1	1	0	1	-9,020437	274,305504	311,991475	0
15.01.2021	19:36:00	0	0	4,293236	1,74075	319,194	0,255	85,321	0	1016,96	7	9	8,8	1	1	1	1	1	1	1	1	1	0	1	-10,711769	274,213715	309,870687	0
15.01.2021	19:36:01	0	0	3,163437	1,87725	310,7088	0,253	85,319	0	1016,88	7	9	8,8	1	1	1	1	1	1	1	1	1	0	1	-9,090909	274,282893	311,815169	0
15.01.2021	19:36:02	0	0	4,406216	1,92375	316,2564	0,257	85,314	0	1017	7	9	8,8	1	1	1	1	1	1	1	1	1	0	1	-6,412967	274,385611	314,974097	0
15.01.2021	19:36:03	0	0	2,711517	1,8675	314,7696	0,252	85,31	0	1016,96	7	9	8,8	1	1	1	1	1	1	1	1	1	0	1	-10,007047	274,31003	311,026049	0
15.01.2021	19:36:04	0	0	4,406216	1,75275	309,9132	0,255	85,303	0	1016,78	7	9	8,8	1	1	1	1	1	1	1	1	1	0	1	-11,627907	274,390156	309,780448	0
15.01.2021	19:36:05	0	0	3,615356	1,57725	313,236	0,253	85,328	0	1016,92	7	9	8,8	1	1	1	1	1	1	1	1	1	0	1	-6,553911	274,248273	314,19018	0
15.01.2021	19:36:06	0	0	4,858135	1,47075	315,2196	0,253	85,308	0	1016,76	7	9	8,8	1	1	1	1	1	1	1	1	1	0	1	-9,725159	274,326632	311,385667	0
15.01.2021	19:36:07	0	0	3,389397	1,428	324,4176	0,252	85,311	0	1017,04	7	9	8,8	1	1	1	1	1	1	1	1	1	0	1	-7,399577	274,19571	313,098686	0
15.01.2021	19:36:08	0	0	3,841316	1,4775	317,0124	0,247	85,308	0	1016,72	7	9	8,8	1	1	1	1	1	1	1	1	1	0	1	-9,936575	274,257298	310,84974	0
15.01.2021	19:36:09	0	0	2,711517	1,5675	304,3152	0,253	85,321	0	1016,92	7	9	8,8	1	1	1	1	1	1	1	1	1	0	1	-5,567301	274,189712	314,90292	0
15.01.2021	19:36:10	0	0	4,519195	1,59225	308,79	0,252	85,331	0	1016,82	7	9	8,8	1	1	1	1	1	1	1	1	1	0	1	-7,470049	274,319084	313,605435	0
15.01.2021	19:36:11	0	0	2,711534	1,587	312,4152	0,242	85,314	0	1016,76	7	9	8,7	1	1	1	1	1	1	1	1	1	0	1	-8,315715	274,257298	312,4706	0
15.01.2021	19:36:12	0	0	2,485558	1,5525	317,7	0,254	85,324	0	1017	7	9	8,8	1	1	1	1	1	1	1	1	1	0	1	-10,641297	274,391671	310,774157	0
15.01.2021	19:36:13	0	0	2,485558	1,4925	318,42	0,252	85,327	0	1016,82	7	9	8,8	1	1	1	1	1	1	1	1	1	0	1	-9,44327	274,361393	311,830341	0
15.01.2021	19:36:14	0	0	3,163437	1,527	319,1796	0,257	85,323	0	1016,92	7	9	8,8	1	1	1	1	1	1	1	1	1	0	1	-10,993658	274,335694	310,159599	0
15.01.2021	19:36:15	0	0	4,632175	1,70925	335,2788	0,25	85,328	0	1016,78	7	9	8,8	1	1	1	1	1	1	1	1	1	0	1	-8,738548	274,260308	312,061846	0
15.01.2021	19:36:16	0	0	4,067276	1,91325	330,066	0,251	85,308	0	1016,96	7	9	8,8	1	1	1	1	1	1	1	1	1	0	1	-4,933051	274,185214	315,516144	0
15.01.2021	19:36:17	0	0	4,293236	2,05875	326,0376	0,253	85,332	0	1016,9	7	9	8,8	1	1	1	1	1	1	1	1	1	0	1	-8,80902	274,260308	311,991374	0
15.01.2021	19:36:18	0	0	3,163437	2,12325	318,1284	0,249	85,313	0	1016,86	7	9	8,8	1	1	1	1	1	1	1	1	1	0	1	-9,090909	274,371985	312,232316	0
15.01.2021	19:36:19	0	0	3,728336	2,367	327,7872	0,252	85,317	0	1016,84	7	9	8,8	1	1	1	1	1	1	1	1	1	0	1	-9,231853	274,334184	311,91433	0
15.01.2021	19:36:20	0	0	3,050439	2,4645	331,902	0,245	85,322	0	1016,88	7	9	8,9	1	1	1	1	1	1	1	1	1	0	1	-10,007047	274,210713	310,56137	0
15.01.2021	19:36:21	0	0	3,841316	2,67225	327,744	0,247	85,329	0	1016,92	7	9	8,8	1	1	1	1	1	1	1	1	1	0	1	-5,285412	274,207712	315,268969	0
15.01.2021	19:36:22	0	0	2,485558	2,697	330,3396	0,253	85,303	0	1017	7	9	8,8	1	1	1	1	1	1	1	1	1	0	1	-16,208598	274,285906	304,711583	0
15.01.2021	19:36:23	0	0	4,858164	2,7075	312,462	0,249	85,316	0	1016,86	7	9	8,7	1	1	1	1	1	1	1	1	1	0	1	-4,792107	274,191211	315,685123	0
15.01.2021	19:36:24	0	0	4,858135	2,60475	340,6248	0,253	85,316	0	1016,82	7	9	8,8	1	1	1	1	1	1	1	1	1	0	1	-11,627907	274,30098	309,362826	0
15.01.2021	19:36:25	0	0	2,824497	2,391	321,2388	0,248	85,31	0	1016,84	7	9	8,8	1	1	1	1	1	1	1	1	1	0	1	-10,923185	274,23324	309,750587	0
15.01.2021	19:36:26	0	0	3,954296	2,23275	320,7492	0,255	85,317	0	1016,88	7	9	8,8	1	1	1	1	1	1	1	1	1	0	1	-7,399577	274,192711	313,084663	0
15.01.2021	19:36:27	0	0	2,711517	2,03025	314,0496	0,253	85,314	0	1016,84	6,8	9	8,8	1	1	1	1	1	1	1	1	1	0	1	-9,795631	274,305504	311,216281	0
15.01.2021	19:36:28	0	0	3,050457	2,27475	313,6428	0,253	85,326	0	1016,98	7	9	8,8	1	1	1	1	1	1	1	1	1	0	1	-10,711769	274,368958	310,597278	0
15.01.2021	19:36:29	0	0	3,954296	2,49225	311,3748	0,249	85,308	0	1016,74	7	9	8,8	1	1	1	1	1	1	1	1	1	0	1	-9,372798	274,27235	311,483943	0
15.01.2021	19:36:30	0	0	4,971115	2,73675	312,192	0,246	85,312	0	1016,8	6,8	9	8,8	1	1	1	1	1	1	1	1	1	0	1	-8,879493	274,326632	312,231333	0
15.01.2021	19:36:31	0	0	4,180256	2,62875	317,4372	0,247	85,31	0	1016,72	7	9	8,8	1	1	1	1	1	1	1	1	1	0	1	-8,668076	274,20321	311,865256	0
15.01.2021	19:36:32	0	0	4,971115	2,57775	318,4884	0,254	85,325	0	1016,86	7	9	8,8	1	1	1	1	1	1	1	1	1	0	1	-11,134602	274,323613	309,962085	0
15.01.2021	19:36:33	0	0	4,067276	2,54775	314,7948	0,259	85,323	0	1016,72	7	9	8,8	1	1	1	1	1	1	1	1	1	0	1	-10,641297	274,365932	310,653574	0
15.01.2021	19:36:34	0	0	4,519195	2,59275	315,9072	0,257	85,324	0	1016,76	7	9	8,8	1	1	1	1	1	1	1	1	1	0	1	-13,530655	274,34476	307,665057	0
15.01.2021	19:36:35	0	0	4,858135	2,68275	322,2864	0,254	85,314	0	1016,88	7	9	8,8	1	1	1	1	1	1	1	1	1	0	1	-8,45666	274,370471	312,859476	0
15.01.2021	19:36:36	0	0	4,067276	2,7045	303,2568	0,251	85,332	0	1016,96	6,8	9	8,8	1	1	1	1	1	1	1	1	1	0	1	-7,681466	274,293441	313,273983	0
15.01.2021	19:36:37	0	0	3,615356	2,6925	318,168	0,256	85,323	0	1016,94	7	9	8,8	1	1	1	1	1	1	1	1	1	0	1	-11,346018	274,355343	309,899257	0
15.01.2021	19:36:38	0	0	2,485558	2,6415	313,6464	0,243	85,311	0	1016,88	7	9	8,8	1	1	1	1	1	1	1	1	1	0	1	-6,20155	274,260308	314,598844	0
15.01.2021	19:36:39	0	0	4,858135	2,6115	318,4308	0,252	85,306	0	1016,8	7	9	8,8	1	1	1	1	1	1	1	1	1	0	1	-11,768851	274,388641	309,632406	0
15.01.2021	19:36:40	0	0	4,745155	2,5995	317,0628	0,248	85,318	0	1016,96	7	9	8,8	1	1	1	1	1	1	1	1	1	0	1	-8,668076	274,249777	312,083051	0
15.01.2021	19:36:41	0	0	3,050457	2,619	320,796	0,253	85,324	0	1016,88	7	9	8,8	1	1	1	1	1	1	1	1	1	0	1	-8,245243	274,185214	312,203952	0
15.01.2021	19:36:42	0	0	4,745155	2,90775	302,0616	0,254	85,31	0	1016,82	7	9	8,8	1	1	1	1	1	1	1	1	1	0	1	-9,44327	274,365932	311,851601	0
15.01.2021	19:36:43	0	0	3,841293	2,928	309,564	0,255	85,377	0	1016,94	7	9	8,9	1	1	1	1	1	1	1	1	1	0	1	-10,500352	274,30098	310,490381	0
15.01.2021	19:36:44	0	0	4,632175	2,8455	317,4012	0,245	85,307	0	1016,84	7	9	8,8	1	1	1	1	1	1	1	1	1	0	1	-12,473573	274,376526	308,870926	0
15.01.2021	19:36:45	0	0	4,406216	2,865	310,698	0,254	85,325	0	1016,94	7	9	8,8	1	1	1	1	1	1	1	1	1	0	1	-8,80902	274,308521	312,217014	0
15.01.2021	19:36:46	0	0	3,276417	3,11175	315,8568	0,257	85,312	0	1016,74	7	9	8,8	1	1	1	1	1	1	1	1	1	0	1	-7,117689	274,19421	313,373563	0
15.01.2021	19:36:47	0	0	3,050457	3,1905	319,2336	0,248	85,307	0	1016,98	6,8	9	8,8	1	1	1	1	1	1	1	1	1	0	1	-5,21494	274,225728	315,423697	0
15.01.2021	19:36:48	0	0	2,937477	3,1305	325,3068	0,244	85,308	0	1016,7	7	9	8,8	1	1	1	1	1	1	1	1	1	0	1	-7,82241	274,375012	313,514997	0
15.01.2021	19:36:49	0	0	5,084095	3,0045	323,694	0,244	85,314	0	1016,8	6,8	9	8,8	1	1	1	1	1	1	1	1	1	0	1	-10,570825	274,245266	310,159198	0
15.01.2021	19:36:50	0	0	2,824497	2,8905	330,7032	0,255	85,315	0	1016,8	7	9	8,8	1	1	1	1	1	1	1	1	1	0	1	-6,20155	274,189712	314,26867	0
15.01.2021	19:36:51	0	0	3,841316	2,81625	325,9224	0,25	85,322	0	1016,94	7	9	8,8	1	1	1	1	1	1	1	1	1	0	1	-7,470049	274,275361	313,400784	0
15.01.2021	19:36:52	0	0	2,937477	2,727	325,0692	0,252	85,31	0	1016,92	6,8	9	8,8	1	1	1	1	1	1	1	1	1	0	1	-9,654686	274,37804	311,696905	0
15.01.2021	19:36:53	0	0	3,050457	2,71875	328,824	0,252	85,305	0	1016,88	7	9	8,8	1	1	1	1	1	1	1	1	1	0	1	-8,245243	274,34476	312,95047	0
15.01.2021	19:36:54	0	0	4,632175	2,7105	319,5648	0,254	85,3	0	1016,76	7	9	8,8	1	1	1	1	1	1	1	1	1	0	1	-8,527132	274,209212	312,034267	0
15.01.2021	19:36:55	0	0	2,937477	2,61075	317,0484	0,252	85,311	0	1016,84	7	9	8,8	1	1	1	1	1	1	1	1	1	0	1	-12,966878	274,255794	307,812398	0
15.01.2021	19:36:56	0	0	2,485558	2,5875	306,396	0,253	85,31	0	1016,84	7	9	8,8	1	1	1	1	1	1	1	1	1	0	1	-9,020437	274,19871	311,491852	0
15.01.2021	19:36:57	0	0	3,389397	2,56125	318,4344	0,254	85,309	0	1016,78	7	9	8,8	1	1	1	1	1	1	1	1	1	0	1	-9,44327	274,257298	311,343045	0
15.01.2021	19:36:58	0	0	4,180256	2,61225	312,4008	0,248	85,3	0	1016,8	7	9	8,8	1	1	1	1	1	1	1	1	1	0	1	-11,41649	274,361393	309,857121	0
15.01.2021	19:36:59	0	0	4,293236	2,66775	315,1476	0,254	85,308	0	1016,94	6,8	9	8,8	1	1	1	1	1	1	1	1	1	0	1	-11,486963	274,237749	309,207898	0
15.01.2021	19:37:00	0	0	4,406216	2,6865	323,6976	0,246	85,309	0	1016,94	7	9	8,8	1	1	1	1	1	1	1	1	1	0	1	-7,82241	274,364419	313,465373	0
15.01.2021	19:37:01	0	0	2,937477	2,67675	317,6748	0,251	85,315	0	1016,92	7	9	8,8	1	1	1	1	1	1	1	1	1	0	1	-6,20155	274,282893	314,704528	0
15.01.2021	19:37:02	0	0	2,485558	2,6535	320,7492	0,251	85,305	0	1016,84	7	9	8,8	1	1	1	1	1	1	1	1	1	0	1	-12,262156	274,361393	309,011455	0
15.01.2021	19:37:03	0	0	3,954296	2,673	319,5144	0,251	85,308	0	1016,88	7	9	8,8	1	1	1	1	1	1	1	1	1	0	1	-6,765328	274,328142	314,352568	0
15.01.2021	19:37:04	0	0	4,519195	2,7585	324,8352	0,25	85,311	0	1016,96	6,8	9	8,8	1	1	1	1	1	1	1	1	1	0	1	-9,090909	274,19871	311,42138	0
15.01.2021	19:37:05	0	0	4,293236	2,649	313,2504	0,247	85,297	0	1016,76	6,8	9	8,8	1	1	1	1	1	1	1	1	1	0	1	-9,936575	274,320593	311,145976	0
15.01.2021	19:37:06	0	0	4,180231	2,6355	314,0424	0,25	85,305	0	1016,96	7	9	8,9	1	1	1	1	1	1	1	1	1	0	1	-5,990134	274,20021	314,529169	0
15.01.2021	19:37:07	0	0	3,276397	2,6805	323,2764	0,242	85,299	0	1016,8	7	9	8,9	1	1	1	1	1	1	1	1	1	0	1	-11,627907	274,284399	309,285222	0
15.01.2021	19:37:08	0	0	4,745127	2,7375	312,1596	0,245	85,282	0	1016,86	7	9	8,9	1	1	1	1	1	1	1	1	1	0	1	-8,738548	274,331163	312,39349	0
15.01.2021	19:37:09	0	0	2,372578	2,65275	325,5408	0,242	85,292	0	1016,8	6,8	9	8,8	1	1	1	1	1	1	1	1	1	0	1	-9,866103	274,291934	311,082291	0
15.01.2021	19:37:10	0	0	4,519195	2,57625	321,12	0,251	85,298	0	1016,9	7	9	8,8	1	1	1	1	1	1	1	1	1	0	1	-8,174771	274,19571	312,323492	0
15.01.2021	19:37:11	0	0	2,598537	2,76225	308,466	0,252	85,289	0	1016,92	7	9	8,8	1	1	1	1	1	1	1	1	1	0	1	-7,681466	274,249777	313,069661	0
15.01.2021	19:37:12	0	0	2,824497	2,81475	318,4092	0,25	85,303	0	1016,76	7	9	8,8	1	1	1	1	1	1	1	1	1	0	1	-10,782241	274,376526	310,562258	0
15.01.2021	19:37:13	0	0	2,82448	2,76975	310,7448	0,244	85,301	0	1017	6,8	9	8,9	1	1	1	1	1	1	1	1	1	0	1	-8,45666	274,278374	312,42827	0
15.01.2021	19:37:14	0	0	3,502376	2,71275	321,156	0,252	85,307	0	1016,94	7	9	8,8	1	1	1	1	1	1	1	1	1	0	1	-9,654686	274,367445	311,647272	0
15.01.2021	19:37:15	0	0	4,858135	2,64675	308,7972	0,25	85,303	0	1016,74	7	9	8,8	1	1	1	1	1	1	1	1	1	0	1	-13,530655	274,255794	307,248621	0
15.01.2021	19:37:16	0	0	3,276417	2,511	317,3652	0,253	85,303	0	1016,92	7	9	8,8	1	1	1	1	1	1	1	1	1	0	1	-9,302326	274,335694	311,850931	0
15.01.2021	19:37:17	0	0	4,971115	2,37975	319,9392	0,245	85,306	0	1016,86	7	9	8,8	1	1	1	1	1	1	1	1	1	0	1	-12,05074	274,362906	309,229957	0
15.01.2021	19:37:18	0	0	4,293236	2,3295	316,9116	0,243	85,299	0	1017	6,8	9	8,8	1	1	1	1	1	1	1	1	1	0	1	-9,44327	274,281386	311,455758	0
15.01.2021	19:37:19	0	0	2,937477	2,31	315,45	0,25	85,311	0	1016,88	6,8	9	8,8	1	1	1	1	1	1	1	1	1	0	1	-9,44327	274,19421	311,047982	0
15.01.2021	19:37:20	0	0	2,824497	2,259	315,8316	0,249	85,295	0	1016,72	7	9	8,8	1	1	1	1	1	1	1	1	1	0	1	-6,8358	274,313047	314,211423	0
15.01.2021	19:37:21	0	0	4,406216	2,205	322,1316	0,249	85,304	0	1016,86	7	9	8,8	1	1	1	1	1	1	1	1	1	0	1	-10,077519	274,19571	310,420744	0
15.01.2021	19:37:22	0	0	4,632175	2,13825	308,034	0,246	85,298	0	1016,74	6,8	9	8,8	1	1	1	1	1	1	1	1	1	0	1	-10,359408	274,20021	310,159895	0
15.01.2021	19:37:23	0	0	3,954272	1,989	309,3192	0,249	85,301	0	1016,78	6,8	9	8,9	1	1	1	1	1	1	1	1	1	0	1	-10,500352	274,239252	310,201539	0
15.01.2021	19:37:24	0	0	4,632175	2,04675	299,4804	0,245	85,316	0	1016,96	6,8	9	8,8	1	1	1	1	1	1	1	1	1	0	1	-11,627907	274,365932	309,666964	0
15.01.2021	19:37:25	0	0	4,406216	2,208	302,0544	0,249	85,319	0	1016,94	7	9	8,8	1	1	1	1	1	1	1	1	1	0	1	-5,285412	274,322103	315,804206	0
15.01.2021	19:37:26	0	0	4,180256	2,2485	312,4116	0,247	85,314	0	1016,88	6,8	9	8,8	1	1	1	1	1	1	1	1	1	0	1	-11,346018	274,356855	309,90634	0
15.01.2021	19:37:27	0	0	2,598537	2,24025	302,7672	0,252	85,288	0	1016,88	7	9	8,8	1	1	1	1	1	1	1	1	1	0	1	-7,751938	274,31003	313,281158	0
15.01.2021	19:37:28	0	0	2,824497	2,2845	303,5052	0,251	85,309	0	1016,88	6,8	9	8,8	1	1	1	1	1	1	1	1	1	0	1	-10,570825	274,215217	310,018652	0
15.01.2021	19:37:29	0	0	4,29321	2,3385	306,072	0,245	85,3	0	1016,92	7	9	8,9	1	1	1	1	1	1	1	1	1	0	1	-8,949965	274,252785	311,815235	0
15.01.2021	19:37:30	0	0	3,050457	2,44275	309,5568	0,251	85,319	0	1016,92	7	9	8,8	1	1	1	1	1	1	1	1	1	0	1	-8,386187	274,362906	312,89451	0
15.01.2021	19:37:31	0	0	2,82448	2,37525	321,8364	0,254	85,307	0	1016,92	7	9	8,9	1	1	1	1	1	1	1	1	1	0	1	-4,087385	274,221223	316,530179	0
15.01.2021	19:37:32	0	0	4,293236	2,24175	310,2264	0,249	85,309	0	1016,88	6,8	9	8,8	1	1	1	1	1	1	1	1	1	0	1	-8,45666	274,376526	312,887839	0
15.01.2021	19:37:33	0	0	2,598537	2,2065	320,076	0,253	85,314	0	1016,86	7	9	8,8	1	1	1	1	1	1	1	1	1	0	1	-8,104299	274,251281	312,653864	0
15.01.2021	19:37:34	0	0	4,519195	2,1585	324,1404	0,252	85,307	0	1017,04	6,8	9	8,8	1	1	1	1	1	1	1	1	1	0	1	-9,090909	274,358368	312,168533	0
15.01.2021	19:37:35	0	0	2,937459	2,163	333,0432	0,248	85,313	0	1016,84	7	9	8,9	1	1	1	1	1	1	1	1	1	0	1	-11,275546	274,281386	309,623482	0
15.01.2021	19:37:36	0	0	3,502376	2,13375	332,3232	0,252	85,312	0	1016,92	7	9	8,8	1	1	1	1	1	1	1	1	1	0	1	-13,03735	274,379554	308,321334	0
15.01.2021	19:37:37	0	0	3,841316	2,06625	331,4952	0,246	85,305	0	1016,88	7	9	8,8	1	1	1	1	1	1	1	1	1	0	1	-11,41649	274,258803	309,376864	0
15.01.2021	19:37:38	0	0	4,406216	1,938	316,5876	0,244	85,312	0	1016,84	7	9	8,8	1	1	1	1	1	1	1	1	1	0	1	-6,8358	274,365932	314,459071	0
15.01.2021	19:37:39	0	0	3,615335	1,96275	312,1992	0,247	85,296	0	1016,58	6,8	9	8,9	1	1	1	1	1	1	1	1	1	0	1	-8,597604	274,269338	312,245046	0
15.01.2021	19:37:40	0	0	3,954272	1,911	303,8868	0,243	85,292	0	1016,92	6,8	9	8,9	1	1	1	1	1	1	1	1	1	0	1	-7,610994	274,316065	313,450358	0
15.01.2021	19:37:41	0	0	5,084095	1,7775	300,168	0,244	85,291	0	1016,96	6,8	9	8,8	1	1	1	1	1	1	1	1	1	0	1	-10,852713	274,231738	309,81403	0
15.01.2021	19:37:42	0	0	5,084095	1,8945	288,8388	0,249	85,303	0	1016,78	6,8	9	8,8	1	1	1	1	1	1	1	1	1	0	1	-8,668076	274,352319	312,563035	0
15.01.2021	19:37:43	0	0	3,954272	1,9365	299,4444	0,255	85,321	0	1016,96	7	9	8,9	1	1	1	1	1	1	1	1	1	0	1	-11,557435	274,353831	309,680758	0
15.01.2021	19:37:44	0	0	3,841316	1,9785	309,2076	0,248	85,311	0	1016,88	7	9	8,8	1	1	1	1	1	1	1	1	1	0	1	-10,500352	274,30098	310,490381	0
15.01.2021	19:37:45	0	0	3,163418	2,05275	311,7564	0,252	85,315	0	1016,82	6,8	9	8,9	1	1	1	1	1	1	1	1	1	0	1	-9,44327	274,19871	311,069019	0
15.01.2021	19:37:46	0	0	4,067276	2,09475	318,0744	0,245	85,297	0	1016,78	6,8	9	8,8	1	1	1	1	1	1	1	1	1	0	1	-6,906272	274,239252	313,79562	0
15.01.2021	19:37:47	0	0	3,163437	2,025	297,4644	0,246	85,316	0	1016,78	7	9	8,8	1	1	1	1	1	1	1	1	1	0	1	-7,399577	274,210713	313,16884	0
15.01.2021	19:37:48	0	0	2,824497	1,94175	296,4312	0,249	85,319	0	1016,84	7	9	8,8	1	1	1	1	1	1	1	1	1	0	1	-7,540521	274,364419	313,747262	0
15.01.2021	19:37:49	0	0	3,276417	1,818	308,5164	0,252	85,316	0	1016,9	6,8	9	8,8	1	1	1	1	1	1	1	1	1	0	1	-9,161381	274,242259	311,554574	0
15.01.2021	19:37:50	0	0	4,858135	1,78875	293,6628	0,246	85,316	0	1016,98	7	9	8,8	1	1	1	1	1	1	1	1	1	0	1	-9,584214	274,376526	311,760285	0
15.01.2021	19:37:51	0	0	2,937477	1,84275	310,5756	0,252	85,313	0	1016,96	6,8	9	8,8	1	1	1	1	1	1	1	1	1	0	1	-8,033827	274,307013	312,985146	0
15.01.2021	19:37:52	0	0	2,711501	1,9245	307,242	0,241	85,299	0	1016,94	7	9	8,9	1	1	1	1	1	1	1	1	1	0	1	-8,738548	274,216718	311,857949	0
15.01.2021	19:37:53	0	0	3,276417	2,133	306,0792	0,244	85,309	0	1016,86	7	9	8,8	1	1	1	1	1	1	1	1	1	0	1	-8,45666	274,20021	312,062643	0
15.01.2021	19:37:54	0	0	4,858135	2,2215	309,9276	0,25	85,324	0	1016,8	6,8	9	8,8	1	1	1	1	1	1	1	1	1	0	1	-8,949965	274,269338	311,892685	0
15.01.2021	19:37:55	0	0	4,180256	2,3085	308,7324	0,25	85,315	0	1016,92	6,8	9	8,8	1	1	1	1	1	1	1	1	1	0	1	-6,694856	274,353831	314,543337	0
15.01.2021	19:37:56	0	0	2,937477	2,3115	315,8244	0,252	85,309	0	1016,86	6,8	9	8,8	1	1	1	1	1	1	1	1	1	0	1	-8,033827	274,227231	312,611836	0
15.01.2021	19:37:57	0	0	4,180256	2,21775	306,8532	0,248	85,3	0	1016,86	7	9	8,8	1	1	1	1	1	1	1	1	1	0	1	-7,610994	274,20171	312,915323	0
15.01.2021	19:37:58	0	0	3,276397	2,154	315,1656	0,251	85,313	0	1016,8	6,8	9	8,9	1	1	1	1	1	1	1	1	1	0	1	-8,668076	274,228733	311,984613	0
15.01.2021	19:37:59	0	0	4,519195	2,09625	317,6928	0,251	85,315	0	1016,92	7	9	8,8	1	1	1	1	1	1	1	1	1	0	1	-14,305849	274,218219	306,29767	0
15.01.2021	19:38:00	0	0	2,937459	2,13	315,1764	0,25	85,316	0	1016,88	6,8	9	8,9	1	1	1	1	1	1	1	1	1	0	1	-6,624383	274,323613	314,472303	0
15.01.2021	19:38:01	0	0	4,858135	2,15775	296,8776	0,246	85,309	0	1016,6	6,8	9	8,8	1	1	1	1	1	1	1	1	1	0	1	-7,681466	274,186713	312,774737	0
15.01.2021	19:38:02	0	0	3,841316	2,36775	308,8152	0,249	85,325	0	1017,04	7	9	8,8	1	1	1	1	1	1	1	1	1	0	1	-6,906272	274,346272	314,296519	0
15.01.2021	19:38:03	0	0	3,276417	2,286	302,7384	0,248	85,301	0	1016,98	6,8	9	8,8	1	1	1	1	1	1	1	1	1	0	1	-7,329105	274,20321	313,204227	0
15.01.2021	19:38:04	0	0	3,050475	2,094	315,486	0,248	85,32	0	1016,76	7	9	8,7	1	1	1	1	1	1	1	1	1	0	1	-11,134602	274,221223	309,482962	0
15.01.2021	19:38:05	0	0	4,406242	2,09925	311,7132	0,25	85,313	0	1016,84	7	9	8,7	1	1	1	1	1	1	1	1	1	0	1	-13,953488	274,350807	307,270542	0
15.01.2021	19:38:06	0	0	4,632175	2,32575	326,7972	0,247	85,323	0	1016,86	6,8	9	8,8	1	1	1	1	1	1	1	1	1	0	1	-7,399577	274,225728	313,23906	0
15.01.2021	19:38:07	0	0	4,858106	2,4435	315,4896	0,248	85,308	0	1016,84	7	9	8,9	1	1	1	1	1	1	1	1	1	0	1	-9,020437	274,347783	312,189433	0
15.01.2021	19:38:08	0	0	2,598522	2,30475	325,566	0,251	85,309	0	1017	6,8	9	8,9	1	1	1	1	1	1	1	1	1	0	1	-9,725159	274,188213	310,738053	0
15.01.2021	19:38:09	0	0	4,293236	2,1675	304,6932	0,245	85,313	0	1016,86	7	9	8,8	1	1	1	1	1	1	1	1	1	0	1	-10,42988	274,224226	310,201732	0
15.01.2021	19:38:10	0	0	2,711517	2,163	308,8008	0,25	85,325	0	1016,8	7	9	8,8	1	1	1	1	1	1	1	1	1	0	1	-7,329105	274,186713	313,127098	0
15.01.2021	19:38:11	0	0	5,197044	2,247	314,0568	0,239	85,318	0	1016,82	7	9	8,9	1	1	1	1	1	1	1	1	1	0	1	-4,510218	274,287413	316,417014	0
15.01.2021	19:38:12	0	0	2,711517	2,28975	310,662	0,245	85,319	0	1016,9	6,9	9	8,8	1	1	1	1	1	1	1	1	1	0	1	-12,614517	274,188213	307,848694	0
15.01.2021	19:38:13	0	0	4,180231	2,304	325,2168	0,247	85,324	0	1016,98	6,8	9	8,9	1	1	1	1	1	1	1	1	1	0	1	-6,060606	274,266328	314,767956	0
15.01.2021	19:38:14	0	0	4,971115	2,26875	314,478	0,249	85,33	0	1016,94	6,8	9	8,8	1	1	1	1	1	1	1	1	1	0	1	-7,610994	274,362906	313,669703	0
15.01.2021	19:38:15	0	0	4,29321	2,14425	327,0816	0,245	85,32	0	1016,96	6,8	9	8,9	1	1	1	1	1	1	1	1	1	0	1	-8,80902	274,349295	312,407929	0
15.01.2021	19:38:16	0	0	3,954272	2,0445	323,6076	0,246	85,314	0	1016,8	6,8	9	8,9	1	1	1	1	1	1	1	1	1	0	1	-10,007047	274,317575	311,06137	0
15.01.2021	19:38:17	0	0	2,711501	1,9515	336,1212	0,245	85,325	0	1016,88	7	9	8,9	1	1	1	1	1	1	1	1	1	0	1	-12,05074	274,353831	309,187453	0
15.01.2021	19:38:18	0	0	3,502398	1,8285	331,974	0,251	85,325	0	1016,9	6,8	9	8,7	1	1	1	1	1	1	1	1	1	0	1	-8,033827	274,270844	312,815868	0
15.01.2021	19:38:19	0	0	2,824497	1,68	327,7692	0,255	85,306	0	1016,86	6,8	9	8,8	1	1	1	1	1	1	1	1	1	0	1	-6,906272	274,186713	313,549931	0
15.01.2021	19:38:20	0	0	2,485558	1,629	312,4584	0,256	85,326	0	1016,82	6,8	9	8,8	1	1	1	1	1	1	1	1	1	0	1	-6,483439	274,251281	314,274724	0
15.01.2021	19:38:21	0	0	4,632175	1,722	334,9332	0,243	85,33	0	1016,86	7	9	8,8	1	1	1	1	1	1	1	1	1	0	1	-6,694856	274,358368	314,564586	0
15.01.2021	19:38:22	0	0	2,598522	1,59	325,1052	0,25	85,337	0	1016,76	7	9	8,9	1	1	1	1	1	1	1	1	1	0	1	-7,117689	274,251281	313,640475	0
15.01.2021	19:38:23	0	0	4,180256	1,4745	321,084	0,242	85,312	0	1016,68	6,8	9	8,8	1	1	1	1	1	1	1	1	1	0	1	-6,412967	274,355343	314,832308	0
15.01.2021	19:38:24	0	0	4,745127	1,362	315,1656	0,245	85,33	0	1016,88	6,8	9	8,9	1	1	1	1	1	1	1	1	1	0	1	-7,681466	274,258803	313,111889	0
15.01.2021	19:38:25	0	0	4,406216	1,233	333,1836	0,248	85,32	0	1017,04	6,8	9	8,8	1	1	1	1	1	1	1	1	1	0	1	-9,161381	274,37804	312,19021	0
15.01.2021	19:38:26	0	0	4,745155	1,19925	323,3808	0,246	85,321	0	1016,9	7	9	8,8	1	1	1	1	1	1	1	1	1	0	1	-12,403101	274,303996	308,601751	0
15.01.2021	19:38:27	0	0	4,745155	1,2225	304,9488	0,251	85,34	0	1016,8	6,8	9	8,8	1	1	1	1	1	1	1	1	1	0	1	-6,412967	274,346272	314,789824	0
15.01.2021	19:38:28	0	0	4,745127	1,1295	313,4844	0,252	85,323	0	1016,94	6,8	9	8,9	1	1	1	1	1	1	1	1	1	0	1	-8,245243	274,239252	312,456649	0
15.01.2021	19:38:29	0	0	3,389397	1,1325	297,2844	0,249	85,336	0	1016,96	6,8	9	8,8	1	1	1	1	1	1	1	1	1	0	1	-8,033827	274,165738	312,324327	0
15.01.2021	19:38:30	0	0	3,502355	1,32075	297,594	0,253	85,342	0	1016,82	7	9	8,9	1	1	1	1	1	1	1	1	1	0	1	-6,412967	274,278374	314,471963	0
15.01.2021	19:38:31	0	0	4,745127	1,545	317,0016	0,252	85,333	0	1017	6,8	9	8,9	1	1	1	1	1	1	1	1	1	0	1	-7,892882	274,177721	312,521284	0
15.01.2021	19:38:32	0	0	4,632175	1,683	319,1616	0,251	85,334	0	1016,72	6,8	9	8,8	1	1	1	1	1	1	1	1	1	0	1	-7,681466	274,251281	313,076697	0
15.01.2021	19:38:33	0	0	2,598537	1,75425	308,8656	0,252	85,326	0	1016,82	7	9	8,8	1	1	1	1	1	1	1	1	1	0	1	-9,161381	274,34476	312,034332	0
15.01.2021	19:38:34	0	0	2,598537	1,8105	307,2024	0,251	85,346	0	1016,9	6,8	9	8,8	1	1	1	1	1	1	1	1	1	0	1	-10,641297	274,19421	309,849955	0
15.01.2021	19:38:35	0	0	4,067252	1,875	306,1152	0,25	85,32	0	1016,72	6,8	9	8,9	1	1	1	1	1	1	1	1	1	0	1	-4,792107	274,204711	315,748241	0
15.01.2021	19:38:36	0	0	4,745155	1,953	302,7564	0,247	85,325	0	1016,94	6,8	9	8,8	1	1	1	1	1	1	1	1	1	0	1	-10,218464	274,343249	310,970171	0
15.01.2021	19:38:37	0	0	3,276417	1,944	312,8436	0,25	85,331	0	1016,84	7	9	8,8	1	1	1	1	1	1	1	1	1	0	1	-8,949965	274,20171	311,576352	0
15.01.2021	19:38:38	0	0	3,954272	1,82475	320,0148	0,24	85,322	0	1016,84	6,8	9	8,9	1	1	1	1	1	1	1	1	1	0	1	-10,993658	274,224226	309,637955	0
15.01.2021	19:38:39	0	0	4,180256	1,73025	318,582	0,245	85,325	0	1016,96	7	9	8,8	1	1	1	1	1	1	1	1	1	0	1	-8,245243	274,20321	312,288089	0
15.01.2021	19:38:40	0	0	2,937477	1,63425	320,4036	0,248	85,33	0	1016,82	6,8	9	8,8	1	1	1	1	1	1	1	1	1	0	1	-6,20155	274,337205	314,958781	0
15.01.2021	19:38:41	0	0	3,841293	1,734	315,1908	0,248	85,33	0	1016,9	6,8	9	8,9	1	1	1	1	1	1	1	1	1	0	1	-10,923185	274,331163	310,208853	0
15.01.2021	19:38:42	0	0	3,050457	1,88775	318,4236	0,244	85,338	0	1016,72	7	9	8,8	1	1	1	1	1	1	1	1	1	0	1	-9,44327	274,341738	311,738288	0
15.01.2021	19:38:43	0	0	3,728336	2,037	311,706	0,249	85,335	0	1016,78	6,8	9	8,8	1	1	1	1	1	1	1	1	1	0	1	-6,060606	274,326632	315,050219	0
15.01.2021	19:38:44	0	0	2,598537	2,20875	301,176	0,249	85,341	0	1016,88	7	9	8,8	1	1	1	1	1	1	1	1	1	0	1	-8,738548	274,332673	312,400562	0
15.01.2021	19:38:45	0	0	4,180231	2,085	309,888	0,251	85,331	0	1016,92	7	9	8,9	1	1	1	1	1	1	1	1	1	0	1	-8,949965	274,332673	312,189146	0
15.01.2021	19:38:46	0	0	3,389397	1,9485	305,7372	0,247	85,324	0	1016,82	7	9	8,8	1	1	1	1	1	1	1	1	1	0	1	-6,20155	274,325122	314,902205	0
15.01.2021	19:38:47	0	0	4,067276	2,0385	306,0792	0,251	85,33	0	1016,82	7	9	8,8	1	1	1	1	1	1	1	1	1	0	1	-9,020437	274,341738	312,161121	0
15.01.2021	19:38:48	0	0	3,728314	2,046	317,7288	0,251	85,326	0	1016,8	6,8	9	8,9	1	1	1	1	1	1	1	1	1	0	1	-10,218464	274,341738	310,963094	0
15.01.2021	19:38:49	0	0	3,954296	1,971	304,9164	0,248	85,334	0	1016,84	6,8	9	8,8	1	1	1	1	1	1	1	1	1	0	1	-6,976744	274,213715	313,605712	0
15.01.2021	19:38:50	0	0	2,824497	1,92	300,4776	0,248	85,317	0	1016,96	6,8	9	8,8	1	1	1	1	1	1	1	1	1	0	1	-14,305849	274,240755	306,403074	0
15.01.2021	19:38:51	0	0	4,180231	1,98825	315,5328	0,248	85,339	0	1017,04	6,8	9	8,9	1	1	1	1	1	1	1	1	1	0	1	-11,909796	274,338716	309,257611	0
15.01.2021	19:38:52	0	0	3,050457	1,95675	300,4812	0,248	85,339	0	1016,92	7	9	8,8	1	1	1	1	1	1	1	1	1	0	1	-9,44327	274,297964	311,533347	0
15.01.2021	19:38:53	0	0	2,937459	1,9725	316,2636	0,25	85,314	0	1016,78	6,8	9	8,9	1	1	1	1	1	1	1	1	1	0	1	-6,765328	274,162743	313,57883	0
15.01.2021	19:38:54	0	0	3,615356	2,01375	296,0676	0,25	85,328	0	1016,9	6,8	9	8,8	1	1	1	1	1	1	1	1	1	0	1	-8,949965	274,284399	311,963164	0
15.01.2021	19:38:55	0	0	4,519168	1,959	308,0808	0,243	85,335	0	1017,02	7	9	8,9	1	1	1	1	1	1	1	1	1	0	1	-8,245243	274,375012	313,092164	0
15.01.2021	19:38:56	0	0	4,858135	2,00475	311,4108	0,245	85,322	0	1016,92	7	9	8,8	1	1	1	1	1	1	1	1	1	0	1	-10,42988	274,278374	310,455049	0
15.01.2021	19:38:57	0	0	4,745127	2,05125	310,5756	0,241	85,315	0	1017,04	6,8	9	8,9	1	1	1	1	1	1	1	1	1	0	1	-9,936575	274,350807	311,287455	0
15.01.2021	19:38:58	0	0	3,050439	2,1495	306,1116	0,249	85,328	0	1016,8	7	9	8,9	1	1	1	1	1	1	1	1	1	0	1	-7,610994	274,328142	313,506902	0
15.01.2021	19:38:59	0	0	3,841293	2,04	313,6068	0,248	85,326	0	1016,74	6,8	9	8,9	1	1	1	1	1	1	1	1	1	0	1	-11,205074	274,311538	309,835085	0
15.01.2021	19:39:00	0	0	3,050457	2,19075	318,1176	0,249	85,325	0	1016,84	6,8	9	8,8	1	1	1	1	1	1	1	1	1	0	1	-8,668076	274,291934	312,280317	0
15.01.2021	19:39:01	0	0	3,050457	2,19075	318,1176	0,249	85,325	0	1016,84	6,8	9	8,8	1	1	1	1	1	1	1	1	1	0	1	-6,8358	274,189712	313,634421	0
15.01.2021	19:39:02	0	0	3,954272	2,64225	310,68	0,245	85,326	0	1017,02	6,9	9	8,9	1	1	1	1	1	1	1	1	1	0	1	-7,047216	274,257298	313,739098	0
15.01.2021	19:39:03	0	0	2,82448	2,96775	321,1092	0,248	85,326	0	1016,94	6,8	9	8,9	1	1	1	1	1	1	1	1	1	0	1	-10,147992	274,20321	310,385341	0
15.01.2021	19:39:04	0	0	3,389376	3,2025	324,0828	0,248	85,329	0	1016,82	6,8	9	8,9	1	1	1	1	1	1	1	1	1	0	1	-12,403101	274,325122	308,700655	0
15.01.2021	19:39:05	0	0	2,372578	3,26625	329,6808	0,247	85,314	0	1016,84	6,8	9	8,8	1	1	1	1	1	1	1	1	1	0	1	-6,412967	274,204711	314,127381	0
15.01.2021	19:39:06	0	0	3,841316	3,2175	327,1248	0,251	85,322	0	1016,92	7	9	8,8	1	1	1	1	1	1	1	1	1	0	1	-11,486963	274,328142	309,630933	0
15.01.2021	19:39:07	0	0	2,711517	3,05775	322,6032	0,239	85,328	0	1016,94	6,8	9	8,8	1	1	1	1	1	1	1	1	1	0	1	-9,020437	274,212214	311,554999	0
15.01.2021	19:39:08	0	0	4,858106	2,99775	325,1088	0,248	85,334	0	1016,86	6,8	9	8,9	1	1	1	1	1	1	1	1	1	0	1	-12,403101	274,313047	308,644122	0
15.01.2021	19:39:09	0	0	4,519168	2,78025	331,5852	0,25	85,328	0	1017	6,8	9	8,9	1	1	1	1	1	1	1	1	1	0	1	-6,342495	274,325122	314,761261	0
15.01.2021	19:39:10	0	0	3,389397	2,79975	313,2072	0,249	85,327	0	1017,04	7	9	8,8	1	1	1	1	1	1	1	1	1	0	1	-7,258633	274,328142	313,859263	0
15.01.2021	19:39:11	0	0	4,293236	2,77575	322,9956	0,248	85,381	0	1017,02	6,8	9	8,8	1	1	1	1	1	1	1	1	1	0	1	-6,906272	274,34476	314,289441	0
15.01.2021	19:39:12	0	0	3,954272	2,73975	315,2196	0,24	85,326	0	1016,88	6,8	9	8,9	1	1	1	1	1	1	1	1	1	0	1	-8,245243	274,218219	312,358276	0
15.01.2021	19:39:13	0	0	4,519168	2,667	312,9408	0,252	85,332	0	1016,9	6,8	9	8,9	1	1	1	1	1	1	1	1	1	0	1	-8,033827	274,216718	312,562671	0
15.01.2021	19:39:14	0	0	3,050439	2,616	310,41	0,251	85,319	0	1016,82	6,8	9	8,9	1	1	1	1	1	1	1	1	1	0	1	-7,329105	274,322103	313,760513	0
15.01.2021	19:39:15	0	0	4,180281	2,54625	304,2792	0,247	85,304	0	1016,94	6,8	9	8,7	1	1	1	1	1	1	1	1	1	0	1	-7,892882	274,165738	312,465272	0
15.01.2021	19:39:16	0	0	4,519195	2,373	307,1952	0,25	85,333	0	1016,78	6,8	9	8,8	1	1	1	1	1	1	1	1	1	0	1	-7,610994	274,270844	313,238701	0
15.01.2021	19:39:17	0	0	2,598537	2,157	306,1404	0,242	85,324	0	1016,86	6,8	9	8,8	1	1	1	1	1	1	1	1	1	0	1	-7,470049	274,185214	312,979146	0
15.01.2021	19:39:18	0	0	3,841293	2,0775	310,7052	0,248	85,314	0	1016,88	6,8	9	8,9	1	1	1	1	1	1	1	1	1	0	1	-10,711769	274,189712	309,758452	0
15.01.2021	19:39:19	0	0	2,485558	2,04	306,0648	0,249	85,321	0	1016,7	6,8	9	8,8	1	1	1	1	1	1	1	1	1	0	1	-4,369274	274,347783	316,840596	0
15.01.2021	19:39:20	0	0	5,423002	2,01	302,8428	0,249	85,338	0	1016,84	6,8	9	8,9	1	1	1	1	1	1	1	1	1	0	1	-9,302326	274,273855	311,561461	0
15.01.2021	19:39:21	0	0	3,728314	2,02125	299,7792	0,246	85,323	0	1016,82	6,8	9	8,9	1	1	1	1	1	1	1	1	1	0	1	-8,386187	274,182217	312,048994	0
15.01.2021	19:39:22	0	0	2,82448	1,998	312,4476	0,252	85,326	0	1016,88	7	9	8,9	1	1	1	1	1	1	1	1	1	0	1	-6,8358	274,246769	313,901257	0
15.01.2021	19:39:23	0	0	4,180256	1,98975	292,6296	0,245	85,324	0	1016,9	6,8	9	8,8	1	1	1	1	1	1	1	1	1	0	1	-7,188161	274,347783	314,021709	0
15.01.2021	19:39:24	0	0	4,858135	1,9605	307,4976	0,25	85,318	0	1016,78	6,9	9	8,8	1	1	1	1	1	1	1	1	1	0	1	-11,768851	274,305504	309,24306	0
15.01.2021	19:39:25	0	0	4,745127	1,90725	303,2604	0,246	85,323	0	1016,96	6,9	9	8,9	1	1	1	1	1	1	1	1	1	0	1	-9,513742	274,346272	311,689049	0
15.01.2021	19:39:26	0	0	5,310023	1,8645	315,216	0,248	85,327	0	1016,86	6,9	9	8,9	1	1	1	1	1	1	1	1	1	0	1	-9,44327	274,260308	311,357125	0
15.01.2021	19:39:27	0	0	2,711501	1,8255	308,5056	0,238	85,316	0	1016,9	6,8	9	8,9	1	1	1	1	1	1	1	1	1	0	1	-10,218464	274,167235	310,146689	0
15.01.2021	19:39:28	0	0	3,95432	1,82625	313,5672	0,247	85,333	0	1016,8	6,8	9	8,7	1	1	1	1	1	1	1	1	1	0	1	-4,298802	274,30098	316,691931	0
15.01.2021	19:39:29	0	0	3,728336	1,758	303,9156	0,249	85,327	0	1016,9	6,9	9	8,8	1	1	1	1	1	1	1	1	1	0	1	-7,681466	274,168733	312,690687	0
15.01.2021	19:39:30	0	0	3,841293	1,67175	308,1024	0,241	85,317	0	1016,82	6,8	9	8,9	1	1	1	1	1	1	1	1	1	0	1	-7,610994	274,316065	313,450358	0
15.01.2021	19:39:31	0	0	3,841293	1,52325	308,7972	0,243	85,315	0	1016,76	6,8	9	8,9	1	1	1	1	1	1	1	1	1	0	1	-11,06413	274,30098	309,926603	0
15.01.2021	19:39:32	0	0	4,745155	1,4775	292,932	0,244	85,301	0	1016,92	6,8	9	8,8	1	1	1	1	1	1	1	1	1	0	1	-10,500352	274,343249	310,688283	0
15.01.2021	19:39:33	0	0	4,858164	1,5075	307,5768	0,247	85,31	0	1016,88	6,9	9	8,7	1	1	1	1	1	1	1	1	1	0	1	-8,668076	274,225728	311,970561	0
15.01.2021	19:39:34	0	0	4,632203	1,62225	304,6068	0,256	85,319	0	1016,76	7	9	8,7	1	1	1	1	1	1	1	1	1	0	1	-5,21494	274,341738	315,966618	0
15.01.2021	19:39:35	0	0	5,084064	1,66725	303,8868	0,249	85,32	0	1016,94	6,8	9	8,9	1	1	1	1	1	1	1	1	1	0	1	-11,768851	274,281386	309,130177	0
15.01.2021	19:39:36	0	0	3,954296	1,69275	308,0592	0,249	85,311	0	1016,84	6,8	9	8,8	1	1	1	1	1	1	1	1	1	0	1	-7,610994	274,19421	312,880258	0
15.01.2021	19:39:37	0	0	4,067276	1,6635	303,8904	0,25	85,311	0	1016,86	6,8	9	8,8	1	1	1	1	1	1	1	1	1	0	1	-9,372798	274,35988	311,893729	0
15.01.2021	19:39:38	0	0	4,293236	1,6545	314,0136	0,246	85,316	0	1017,04	6,8	9	8,8	1	1	1	1	1	1	1	1	1	0	1	-9,372798	274,281386	311,52623	0
15.01.2021	19:39:39	0	0	2,485543	1,67025	315,8784	0,25	85,315	0	1017	6,8	9	8,9	1	1	1	1	1	1	1	1	1	0	1	-5,144468	274,19721	315,360808	0
15.01.2021	19:39:40	0	0	3,389376	1,6995	317,6892	0,25	85,328	0	1016,86	6,8	9	8,9	1	1	1	1	1	1	1	1	1	0	1	-10,288936	274,284399	310,624193	0
15.01.2021	19:39:41	0	0	2,372578	1,7445	326,376	0,251	85,312	0	1016,74	6,8	9	8,8	1	1	1	1	1	1	1	1	1	0	1	-9,090909	274,350807	312,133121	0
15.01.2021	19:39:42	0	0	4,632148	1,7925	322,0812	0,244	85,326	0	1016,86	6,8	9	8,9	1	1	1	1	1	1	1	1	1	0	1	-8,668076	274,313047	312,379147	0
15.01.2021	19:39:43	0	0	2,372592	1,854	311,382	0,246	85,305	0	1016,74	6,8	9	8,7	1	1	1	1	1	1	1	1	1	0	1	-7,892882	274,180718	312,535293	0
15.01.2021	19:39:44	0	0	3,841316	1,9095	309,2112	0,245	85,313	0	1016,74	6,8	9	8,8	1	1	1	1	1	1	1	1	1	0	1	-8,386187	274,307013	312,632785	0
15.01.2021	19:39:45	0	0	3,728336	1,8375	314,3556	0,247	85,307	0	1016,74	6,8	9	8,8	1	1	1	1	1	1	1	1	1	0	1	-8,527132	274,192711	311,957109	0
15.01.2021	19:39:46	0	0	3,841316	1,767	309,5064	0,249	85,331	0	1016,86	6,8	9	8,8	1	1	1	1	1	1	1	1	1	0	1	-5,567301	274,168733	314,804852	0
15.01.2021	19:39:47	0	0	4,519195	1,665	316,6776	0,245	85,318	0	1016,9	6,8	9	8,8	1	1	1	1	1	1	1	1	1	0	1	-9,513742	274,294949	311,448762	0
15.01.2021	19:39:48	0	0	4,067252	1,614	311,022	0,246	85,331	0	1016,92	6,8	9	8,9	1	1	1	1	1	1	1	1	1	0	1	-7,399577	274,174725	313,000582	0
15.01.2021	19:39:49	0	0	4,745155	1,66875	320,0976	0,245	85,316	0	1016,82	7	9	8,8	1	1	1	1	1	1	1	1	1	0	1	-4,439746	274,302488	316,558045	0
15.01.2021	19:39:50	0	0	3,728314	1,713	322,5816	0,244	85,331	0	1016,96	6,8	9	8,9	1	1	1	1	1	1	1	1	1	0	1	-6,412967	274,347783	314,796903	0
15.01.2021	19:39:51	0	0	2,824497	1,80225	317,8008	0,244	85,301	0	1016,72	6,8	9	8,8	1	1	1	1	1	1	1	1	1	0	1	-5,003524	274,225728	315,635114	0
15.01.2021	19:39:52	0	0	3,728314	2,067	320,8284	0,247	85,315	0	1016,74	6,8	9	8,9	1	1	1	1	1	1	1	1	1	0	1	-9,302326	274,338716	311,865081	0
15.01.2021	19:39:53	0	0	3,615356	2,15025	319,1256	0,242	85,312	0	1016,72	6,9	9	8,8	1	1	1	1	1	1	1	1	1	0	1	-8,668076	274,270844	312,181619	0
15.01.2021	19:39:54	0	0	4,632175	2,046	313,5528	0,239	85,317	0	1016,94	6,8	9	8,8	1	1	1	1	1	1	1	1	1	0	1	-12,896406	274,206211	307,650958	0
15.01.2021	19:39:55	0	0	2,82448	2,004	313,2072	0,249	85,317	0	1016,88	6,8	9	8,9	1	1	1	1	1	1	1	1	1	0	1	-5,355884	274,346272	315,846907	0
15.01.2021	19:39:56	0	0	2,824514	2,00775	310,2048	0,243	85,324	0	1016,86	6,8	9	8,7	1	1	1	1	1	1	1	1	1	0	1	-15,926709	274,227231	304,718954	0
15.01.2021	19:39:57	0	0	3,728336	2,01	304,9236	0,252	85,323	0	1016,88	6,8	9	8,8	1	1	1	1	1	1	1	1	1	0	1	-14,023961	274,346272	307,178831	0
15.01.2021	19:39:58	0	0	4,180256	2,07975	305,0064	0,242	85,305	0	1016,9	7	9	8,8	1	1	1	1	1	1	1	1	1	0	1	-9,231853	274,27988	311,660125	0
15.01.2021	19:39:59	0	0	4,745184	2,0805	307,1016	0,242	85,317	0	1016,88	6,8	9	8,7	1	1	1	1	1	1	1	1	1	0	1	-9,090909	274,341738	312,090649	0
15.01.2021	19:40:00	0	0	4,180256	2,061	310,734	0,244	85,32	0	1016,86	6,8	9	8,8	1	1	1	1	1	1	1	1	1	0	1	-10,570825	274,164241	309,780331	0
15.01.2021	19:40:01	0	0	4,29321	2,02275	302,7996	0,245	85,314	0	1016,78	6,8	9	8,9	1	1	1	1	1	1	1	1	1	0	1	-13,883016	274,251281	306,875147	0
15.01.2021	19:40:02	0	0	4,519168	1,938	296,4276	0,248	85,315	0	1016,6	6,8	9	8,9	1	1	1	1	1	1	1	1	1	0	1	-5,708245	274,161246	314,628915	0
15.01.2021	19:40:03	0	0	4,519168	1,91775	296,4996	0,245	85,327	0	1016,74	6,8	9	8,9	1	1	1	1	1	1	1	1	1	0	1	-11,41649	274,293441	309,538958	0
15.01.2021	19:40:04	0	0	3,954272	1,785	299,016	0,247	85,306	0	1016,96	6,9	9	8,9	1	1	1	1	1	1	1	1	1	0	1	-8,879493	274,346272	312,323299	0
15.01.2021	19:40:05	0	0	2,82448	1,6845	277,1892	0,246	85,326	0	1016,86	6,8	9	8,9	1	1	1	1	1	1	1	1	1	0	1	-7,329105	274,227231	313,316558	0
15.01.2021	19:40:06	0	0	4,745155	1,70175	283,2264	0,244	85,313	0	1016,86	6,8	9	8,8	1	1	1	1	1	1	1	1	1	0	1	-8,174771	274,173227	312,218386	0
15.01.2021	19:40:07	0	0	3,163437	1,74375	287,7372	0,246	85,3	0	1016,78	6,9	9	8,8	1	1	1	1	1	1	1	1	1	0	1	-7,047216	274,290427	313,894123	0
15.01.2021	19:40:08	0	0	3,050475	1,761	285,5088	0,242	85,336	0	1016,78	6,8	9	8,7	1	1	1	1	1	1	1	1	1	0	1	-5,144468	274,177721	315,269698	0
15.01.2021	19:40:09	0	0	3,954272	1,7235	287,7192	0,242	85,319	0	1016,86	6,8	9	8,9	1	1	1	1	1	1	1	1	1	0	1	-7,470049	274,230235	313,189667	0
15.01.2021	19:40:10	0	0	4,406216	1,6575	301,1832	0,237	85,321	0	1016,78	6,9	9	8,8	1	1	1	1	1	1	1	1	1	0	1	-14,376321	274,337205	306,78401	0
15.01.2021	19:40:11	0	0	2,824497	1,638	303,1704	0,246	85,302	0	1016,84	6,8	9	8,8	1	1	1	1	1	1	1	1	1	0	1	-6,906272	274,340227	314,26821	0
15.01.2021	19:40:12	0	0	3,841293	1,6725	300,1032	0,251	85,323	0	1016,86	6,8	9	8,9	1	1	1	1	1	1	1	1	1	0	1	-7,258633	274,19571	313,239631	0
15.01.2021	19:40:13	0	0	2,937459	1,77375	303,2532	0,239	85,306	0	1016,76	6,8	9	8,9	1	1	1	1	1	1	1	1	1	0	1	-8,879493	274,174725	311,520666	0
15.01.2021	19:40:14	0	0	2,824497	1,809	297,5688	0,243	85,32	0	1016,98	6,8	9	8,8	1	1	1	1	1	1	1	1	1	0	1	-7,681466	274,230235	312,97825	0
15.01.2021	19:40:15	0	0	2,598537	1,86075	285,876	0,25	85,325	0	1016,82	6,8	9	8,8	1	1	1	1	1	1	1	1	1	0	1	-11,557435	274,159749	308,772729	0
15.01.2021	19:40:16	0	0	3,841316	1,92675	296,9928	0,237	85,32	0	1016,84	6,8	9	8,8	1	1	1	1	1	1	1	1	1	0	1	-8,386187	274,291934	312,562206	0
15.01.2021	19:40:17	0	0	3,163418	1,84275	282,4488	0,244	85,316	0	1016,88	6,9	9	8,9	1	1	1	1	1	1	1	1	1	0	1	-7,610994	274,206211	312,93637	0
15.01.2021	19:40:18	0	0	2,598522	1,8315	299,0556	0,243	85,316	0	1017,02	6,8	9	8,9	1	1	1	1	1	1	1	1	1	0	1	-7,82241	274,329652	313,302556	0
15.01.2021	19:40:19	0	0	3,276397	1,7175	301,2516	0,237	85,312	0	1016,84	6,9	9	8,9	1	1	1	1	1	1	1	1	1	0	1	-7,399577	274,230235	313,260139	0
15.01.2021	19:40:20	0	0	4,067276	1,614	291,2976	0,235	85,3	0	1016,6	6,8	9	8,8	1	1	1	1	1	1	1	1	1	0	1	-9,44327	274,17922	310,977901	0
15.01.2021	19:40:21	0	0	4,180256	1,5105	282,8124	0,241	85,323	0	1016,94	6,8	9	8,8	1	1	1	1	1	1	1	1	1	0	1	-7,610994	274,212214	312,964443	0
15.01.2021	19:40:22	0	0	4,745155	1,4535	302,0436	0,245	85,327	0	1016,8	6,9	9	8,8	1	1	1	1	1	1	1	1	1	0	1	-11,698379	274,337205	309,461952	0
15.01.2021	19:40:23	0	0	4,067276	1,401	286,2756	0,236	85,321	0	1016,86	6,8	9	8,8	1	1	1	1	1	1	1	1	1	0	1	-10,923185	274,264822	309,898334	0
15.01.2021	19:40:24	0	0	3,954296	1,39425	290,0232	0,242	85,317	0	1017,06	6,9	9	8,8	1	1	1	1	1	1	1	1	1	0	1	-9,584214	274,171729	310,80194	0
15.01.2021	19:40:25	0	0	4,632175	1,323	307,6272	0,246	85,317	0	1016,86	6,8	9	8,8	1	1	1	1	1	1	1	1	1	0	1	-4,933051	274,204711	315,607296	0
15.01.2021	19:40:26	0	0	2,259584	1,23975	312,858	0,242	85,317	0	1016,88	6,9	9	8,9	1	1	1	1	1	1	1	1	1	0	1	-7,470049	274,173227	312,923107	0
15.01.2021	19:40:27	0	0	3,163418	1,23225	317,3184	0,238	85,314	0	1016,84	6,9	9	8,9	1	1	1	1	1	1	1	1	1	0	1	-7,188161	274,291934	313,760233	0
15.01.2021	19:40:28	0	0	3,276417	1,3305	312,4656	0,239	85,329	0	1016,76	6,8	9	8,8	1	1	1	1	1	1	1	1	1	0	1	-6,20155	274,168733	314,170603	0
15.01.2021	19:40:29	0	0	4,067276	1,398	311,0076	0,244	85,31	0	1016,76	6,9	9	8,8	1	1	1	1	1	1	1	1	1	0	1	-8,45666	274,231738	312,210084	0
15.01.2021	19:40:30	0	0	4,971115	1,485	310,5216	0,244	85,302	0	1016,9	6,9	9	8,8	1	1	1	1	1	1	1	1	1	0	1	-10,923185	274,291934	310,025208	0
15.01.2021	19:40:31	0	0	3,502355	1,55625	306,9252	0,243	85,307	0	1016,94	6,9	9	8,9	1	1	1	1	1	1	1	1	1	0	1	-7,892882	274,341738	313,288676	0
15.01.2021	19:40:32	0	0	4,067276	1,60425	306,144	0,24	85,323	0	1016,78	6,9	9	8,8	1	1	1	1	1	1	1	1	1	0	1	-9,44327	274,240755	311,265653	0
15.01.2021	19:40:33	0	0	2,937459	1,632	309,8952	0,246	85,317	0	1016,92	6,8	9	8,9	1	1	1	1	1	1	1	1	1	0	1	-9,513742	274,349295	311,703208	0
15.01.2021	19:40:34	0	0	4,519195	1,6155	305,0208	0,241	85,303	0	1016,9	6,8	9	8,8	1	1	1	1	1	1	1	1	1	0	1	-4,22833	274,224226	316,403282	0
15.01.2021	19:40:35	0	0	2,937477	1,57725	307,5876	0,24	85,316	0	1016,98	6,9	9	8,8	1	1	1	1	1	1	1	1	1	0	1	-9,372798	274,165738	310,985356	0
15.01.2021	19:40:36	0	0	2,937459	1,60875	309,9204	0,241	85,313	0	1016,78	6,8	9	8,9	1	1	1	1	1	1	1	1	1	0	1	-6,694856	274,212214	313,880581	0
15.01.2021	19:40:37	0	0	2,937477	1,7895	306,1224	0,244	85,329	0	1016,9	6,9	9	8,8	1	1	1	1	1	1	1	1	1	0	1	-7,188161	274,20021	313,331142	0
15.01.2021	19:40:38	0	0	4,632175	1,80375	306,4608	0,234	85,314	0	1016,92	6,9	9	8,8	1	1	1	1	1	1	1	1	1	0	1	-7,470049	274,346272	313,732742	0
15.01.2021	19:40:39	0	0	3,050439	1,833	304,6824	0,237	85,32	0	1016,96	6,9	9	8,9	1	1	1	1	1	1	1	1	1	0	1	-7,681466	274,19421	312,809786	0
15.01.2021	19:40:40	0	0	3,615356	1,98225	302,0832	0,244	85,325	0	1016,86	6,9	9	8,8	1	1	1	1	1	1	1	1	1	0	1	-7,751938	274,162743	312,592219	0
15.01.2021	19:40:41	0	0	3,163437	2,28675	303,5592	0,242	85,32	0	1016,8	6,9	8,9	8,8	1	1	1	1	1	1	1	1	1	0	1	-5,84919	274,225728	314,789448	0
15.01.2021	19:40:42	0	0	3,615356	2,40075	289,2204	0,242	85,326	0	1016,88	6,8	9	8,8	1	1	1	1	1	1	1	1	1	0	1	-10,218464	274,164241	310,132692	0
15.01.2021	19:40:43	0	0	2,598553	2,34225	300,438	0,237	85,326	0	1016,82	6,9	9	8,7	1	1	1	1	1	1	1	1	1	0	1	-8,597604	274,266328	312,230958	0
15.01.2021	19:40:44	0	0	3,841316	2,2995	299,7648	0,24	85,333	0	1016,7	6,8	9	8,8	1	1	1	1	1	1	1	1	1	0	1	-13,03735	274,340227	308,137132	0
15.01.2021	19:40:45	0	0	4,180256	2,274	301,158	0,242	85,324	0	1016,98	6,8	9	8,8	1	1	1	1	1	1	1	1	1	0	1	-8,879493	274,245266	311,85053	0
15.01.2021	19:40:46	0	0	4,406216	2,223	296,4708	0,237	85,328	0	1016,82	6,9	9	8,8	1	1	1	1	1	1	1	1	1	0	1	-6,765328	274,337205	314,395004	0
15.01.2021	19:40:47	0	0	4,632148	2,10075	288,1224	0,241	85,312	0	1016,66	6,8	9	8,9	1	1	1	1	1	1	1	1	1	0	1	-7,681466	274,290427	313,259873	0
15.01.2021	19:40:48	0	0	4,180231	2,0235	299,7216	0,24	85,334	0	1016,92	6,9	9	8,9	1	1	1	1	1	1	1	1	1	0	1	-10,782241	274,335694	310,371016	0
15.01.2021	19:40:49	0	0	4,180231	2,01825	298,6092	0,243	85,321	0	1016,66	6,8	9	8,9	1	1	1	1	1	1	1	1	1	0	1	-11,134602	274,248273	309,609489	0
15.01.2021	19:40:50	0	0	2,711517	1,995	299,3688	0,235	85,304	0	1016,82	6,8	9	8,8	1	1	1	1	1	1	1	1	1	0	1	-9,372798	274,170231	311,006356	0
15.01.2021	19:40:51	0	0	4,180256	1,9245	301,1724	0,238	85,328	0	1016,72	6,9	9	8,8	1	1	1	1	1	1	1	1	1	0	1	-7,610994	274,242259	313,104962	0
15.01.2021	19:40:52	0	0	3,954296	1,97175	288,846	0,238	85,319	0	1016,88	6,8	9	8,8	1	1	1	1	1	1	1	1	1	0	1	-10,147992	274,331163	310,984046	0
15.01.2021	19:40:53	0	0	4,745155	1,98075	294,3828	0,241	85,32	0	1016,86	6,9	9	8,8	1	1	1	1	1	1	1	1	1	0	1	-10,500352	274,296456	310,469208	0
15.01.2021	19:40:54	0	0	3,050457	1,98825	286,9992	0,239	85,323	0	1016,74	6,9	9	8,8	1	1	1	1	1	1	1	1	1	0	1	-13,107822	274,149273	307,173384	0
15.01.2021	19:40:55	0	0	2,937477	2,00475	299,4336	0,244	85,333	0	1016,82	6,9	9	8,8	1	1	1	1	1	1	1	1	1	0	1	-9,654686	274,340227	311,519795	0
15.01.2021	19:40:56	0	0	2,485558	1,953	277,0956	0,241	85,326	0	1016,94	6,9	9	8,8	1	1	1	1	1	1	1	1	1	0	1	-8,527132	274,34476	312,668581	0
15.01.2021	19:40:57	0	0	4,745127	1,92525	290,7288	0,24	85,325	0	1016,86	6,9	9	8,9	1	1	1	1	1	1	1	1	1	0	1	-12,05074	274,276867	308,827141	0
15.01.2021	19:40:58	0	0	4,858106	1,938	291,5064	0,237	85,331	0	1016,88	6,9	9	8,9	1	1	1	1	1	1	1	1	1	0	1	-7,963354	274,291934	312,985039	0
15.01.2021	19:40:59	0	0	4,858135	1,93875	293,3496	0,245	85,322	0	1016,8	6,8	9	8,8	1	1	1	1	1	1	1	1	1	0	1	-8,45666	274,161246	311,880501	0
15.01.2021	19:41:00	0	0	2,711517	1,944	297,9216	0,238	85,308	0	1016,86	6,9	9	8,8	1	1	1	1	1	1	1	1	1	0	1	-13,248767	274,210713	307,31965	0
15.01.2021	19:41:01	0	0	2,711517	1,944	297,9216	0,238	85,308	0	1016,86	6,9	9	8,8	1	1	1	1	1	1	1	1	1	0	1	-9,020437	274,156756	311,295735	0
15.01.2021	19:41:02	0	0	3,050439	1,8585	302,4252	0,237	85,319	0	1016,82	6,9	9	8,9	1	1	1	1	1	1	1	1	1	0	1	-12,896406	274,260308	307,903989	0
15.01.2021	19:41:03	0	0	4,180256	1,83975	297,4932	0,242	85,324	0	1016,86	6,9	9	8,8	1	1	1	1	1	1	1	1	1	0	1	-12,825934	274,152266	307,469257	0
15.01.2021	19:41:04	0	0	3,728336	1,8855	302,4504	0,237	85,333	0	1016,84	6,8	9	8,8	1	1	1	1	1	1	1	1	1	0	1	-7,047216	274,28892	313,887069	0
15.01.2021	19:41:05	0	0	4,180256	1,91025	298,6848	0,239	85,323	0	1016,88	6,8	9	8,8	1	1	1	1	1	1	1	1	1	0	1	-12,473573	274,341738	308,707985	0
15.01.2021	19:41:06	0	0	4,745127	1,89225	280,962	0,235	85,33	0	1016,84	6,8	9	8,9	1	1	1	1	1	1	1	1	1	0	1	-8,033827	274,278374	312,851103	0
15.01.2021	19:41:07	0	0	4,293236	1,91325	291,8664	0,238	85,318	0	1016,72	6,9	9	8,8	1	1	1	1	1	1	1	1	1	0	1	-15,081043	274,303996	305,923808	0
15.01.2021	19:41:08	0	0	4,519168	2,0685	304,704	0,244	85,335	0	1016,92	6,8	9	8,9	1	1	1	1	1	1	1	1	1	0	1	-9,161381	274,325122	311,942374	0
15.01.2021	19:41:09	0	0	2,937459	2,253	305,064	0,242	85,336	0	1016,88	6,9	9	8,9	1	1	1	1	1	1	1	1	1	0	1	-8,033827	274,147777	312,240388	0
15.01.2021	19:41:10	0	0	3,728336	2,4195	302,382	0,239	85,327	0	1016,92	6,9	9	8,8	1	1	1	1	1	1	1	1	1	0	1	-6,553911	274,216718	314,042586	0
15.01.2021	19:41:11	0	0	3,728336	2,5155	297,9396	0,239	85,328	0	1016,82	6,8	9	8,8	1	1	1	1	1	1	1	1	1	0	1	-8,174771	274,263317	312,639706	0
15.01.2021	19:41:12	0	0	2,711517	2,56875	308,1132	0,231	85,325	0	1016,76	6,9	9	8,8	1	1	1	1	1	1	1	1	1	0	1	-6,412967	274,167235	313,952186	0
15.01.2021	19:41:13	0	0	4,406216	2,59125	307,224	0,238	85,326	0	1016,82	6,9	9	8,8	1	1	1	1	1	1	1	1	1	0	1	-11,06413	274,209212	309,497269	0
15.01.2021	19:41:14	0	0	4,632175	2,6085	305,388	0,233	85,331	0	1016,76	6,9	9	8,8	1	1	1	1	1	1	1	1	1	0	1	-11,06413	274,347783	310,14574	0
15.01.2021	19:41:15	0	0	2,824497	2,6325	298,2348	0,235	85,316	0	1016,82	6,8	9	8,8	1	1	1	1	1	1	1	1	1	0	1	-9,513742	274,207712	311,040639	0
15.01.2021	19:41:16	0	0	4,745155	2,664	292,9716	0,236	85,335	0	1016,84	6,9	9	8,8	1	1	1	1	1	1	1	1	1	0	1	-6,553911	274,158252	313,769256	0
15.01.2021	19:41:17	0	0	2,82448	2,6925	299,448	0,237	85,334	0	1016,94	6,8	9	8,9	1	1	1	1	1	1	1	1	1	0	1	-9,302326	274,27988	311,589653	0
15.01.2021	19:41:18	0	0	2,937477	2,61975	308,1672	0,237	85,338	0	1016,86	6,9	9	8,8	1	1	1	1	1	1	1	1	1	0	1	-6,20155	274,170231	314,177603	0
15.01.2021	19:41:19	0	0	4,293236	2,61675	302,0508	0,241	85,335	0	1016,78	6,9	9	8,8	1	1	1	1	1	1	1	1	1	0	1	-9,161381	274,180718	311,266794	0
15.01.2021	19:41:20	0	0	4,406216	2,62275	297,1836	0,242	85,328	0	1016,7	6,9	9	8,8	1	1	1	1	1	1	1	1	1	0	1	-9,725159	274,305504	311,286753	0
15.01.2021	19:41:21	0	0	3,276417	2,62275	296,4888	0,221	85,333	0	1016,98	6,9	9	8,8	1	1	1	1	1	1	1	1	1	0	1	-9,020437	274,149273	311,260769	0
15.01.2021	19:41:22	0	0	2,937477	2,5905	303,2496	0,242	85,335	0	1016,98	6,9	9	8,8	1	1	1	1	1	1	1	1	1	0	1	-10,359408	274,246769	310,377648	0
15.01.2021	19:41:23	0	0	3,050439	2,5515	299,8044	0,238	85,337	0	1016,84	6,8	9	8,9	1	1	1	1	1	1	1	1	1	0	1	-8,45666	274,331163	312,675378	0
15.01.2021	19:41:24	0	0	3,502376	2,48925	307,1772	0,24	85,334	0	1016,76	6,9	9	8,8	1	1	1	1	1	1	1	1	1	0	1	-7,470049	274,218219	313,13347	0
15.01.2021	19:41:25	0	0	3,050457	2,4015	311,796	0,239	85,337	0	1016,8	6,9	9	8,8	1	1	1	1	1	1	1	1	1	0	1	-7,399577	274,147777	312,874637	0
15.01.2021	19:41:26	0	0	2,372563	2,29575	314,5356	0,236	85,339	0	1016,86	6,9	9	8,9	1	1	1	1	1	1	1	1	1	0	1	-7,117689	274,258803	313,675666	0
15.01.2021	19:41:27	0	0	4,858135	2,18775	315,4536	0,243	85,341	0	1016,86	6,9	9	8,8	1	1	1	1	1	1	1	1	1	0	1	-5,003524	274,152266	315,291667	0
15.01.2021	19:41:28	0	0	2,937477	2,274	310,6584	0,243	85,34	0	1016,82	6,9	9	8,8	1	1	1	1	1	1	1	1	1	0	1	-9,866103	274,153762	310,436081	0
15.01.2021	19:41:29	0	0	4,632175	2,2875	313,6068	0,23	85,325	0	1016,68	6,9	9	8,8	1	1	1	1	1	1	1	1	1	0	1	-7,399577	274,276867	313,478304	0
15.01.2021	19:41:30	0	0	4,29321	2,241	307,2456	0,238	85,342	0	1016,94	6,8	9	8,9	1	1	1	1	1	1	1	1	1	0	1	-7,117689	274,340227	314,056793	0
15.01.2021	19:41:31	0	0	4,406216	2,21325	313,2324	0,235	85,332	0	1016,88	6,9	9	8,8	1	1	1	1	1	1	1	1	1	0	1	-11,346018	274,221223	309,271546	0
15.01.2021	19:41:32	0	0	4,067276	2,229	312,1452	0,238	85,337	0	1016,9	6,9	9	8,8	1	1	1	1	1	1	1	1	1	0	1	-11,134602	274,170231	309,244552	0
15.01.2021	19:41:33	0	0	4,519195	2,109	303,966	0,24	85,342	0	1016,78	6,9	9	8,8	1	1	1	1	1	1	1	1	1	0	1	-8,104299	274,161246	312,232861	0
15.01.2021	19:41:34	0	0	4,745155	2,052	308,7936	0,242	85,329	0	1016,8	6,9	9	8,8	1	1	1	1	1	1	1	1	1	0	1	-6,976744	274,176223	313,430418	0
15.01.2021	19:41:35	0	0	3,276397	1,992	296,4636	0,239	85,338	0	1016,84	6,9	9	8,9	1	1	1	1	1	1	1	1	1	0	1	-6,8358	274,188213	313,627411	0
15.01.2021	19:41:36	0	0	4,745155	1,998	304,254	0,237	85,331	0	1016,86	6,9	9	8,8	1	1	1	1	1	1	1	1	1	0	1	-12,896406	274,168733	307,475747	0
15.01.2021	19:41:37	0	0	2,824497	1,989	297,5436	0,245	85,355	0	1016,84	6,9	9	8,8	1	1	1	1	1	1	1	1	1	0	1	-10,641297	274,14329	309,611948	0
15.01.2021	19:41:38	0	0	3,728314	2,013	301,2984	0,244	85,347	0	1016,9	6,9	9	8,9	1	1	1	1	1	1	1	1	1	0	1	-7,610994	274,255794	313,168282	0
15.01.2021	19:41:39	0	0	2,711501	1,94775	300,1176	0,242	85,349	0	1016,92	6,9	9	8,9	1	1	1	1	1	1	1	1	1	0	1	-8,738548	274,155259	311,57063	0
15.01.2021	19:41:40	0	0	3,615335	1,88625	288,4032	0,242	85,341	0	1016,86	6,9	9	8,9	1	1	1	1	1	1	1	1	1	0	1	-9,725159	274,297964	311,251459	0
15.01.2021	19:41:41	0	0	3,954296	1,86075	285,2244	0,239	85,351	0	1017	6,8	9	8,8	1	1	1	1	1	1	1	1	1	0	1	-9,866103	274,28892	311,068183	0
15.01.2021	19:41:42	0	0	2,372578	1,7595	296,8956	0,247	85,337	0	1016,96	6,9	9	8,8	1	1	1	1	1	1	1	1	1	0	1	-9,090909	274,325122	312,012846	0
15.01.2021	19:41:43	0	0	4,519195	1,707	273,2508	0,238	85,328	0	1016,9	6,9	9	8,8	1	1	1	1	1	1	1	1	1	0	1	-6,8358	274,212214	313,739636	0
15.01.2021	19:41:44	0	0	4,858135	1,623	281,376	0,237	85,34	0	1016,94	6,9	9	8,8	1	1	1	1	1	1	1	1	1	0	1	-9,020437	274,331163	312,111601	0
15.01.2021	19:41:45	0	0	2,485572	1,5915	281,34	0,235	85,341	0	1016,82	6,8	9	8,7	1	1	1	1	1	1	1	1	1	0	1	-11,41649	274,164241	308,934665	0
15.01.2021	19:41:46	0	0	2,82448	1,536	276,354	0,235	85,329	0	1016,68	6,9	9	8,9	1	1	1	1	1	1	1	1	1	0	1	-10,007047	274,294949	310,955457	0
15.01.2021	19:41:47	0	0	4,519195	1,54125	296,6112	0,237	85,328	0	1016,7	6,9	9	8,8	1	1	1	1	1	1	1	1	1	0	1	-8,527132	274,218219	312,076387	0
15.01.2021	19:41:48	0	0	2,824497	1,5825	282,5136	0,261	85,34	0	1016,98	6,9	9	8,8	1	1	1	1	1	1	1	1	1	0	1	-10,923185	274,162743	309,420972	0
15.01.2021	19:41:49	0	0	2,824497	1,6455	295,0596	0,238	85,334	0	1016,88	6,9	9	8,8	1	1	1	1	1	1	1	1	1	0	1	-9,936575	274,209212	310,624824	0
15.01.2021	19:41:50	0	0	4,632175	1,62675	308,7972	0,238	85,344	0	1016,94	6,9	9	8,8	1	1	1	1	1	1	1	1	1	0	1	-8,738548	274,332673	312,400562	0
15.01.2021	19:41:51	0	0	2,937459	1,65375	300,1788	0,24	85,351	0	1016,66	6,9	9	8,9	1	1	1	1	1	1	1	1	1	0	1	-10,852713	274,242259	309,863242	0
15.01.2021	19:41:52	0	0	2,598537	1,7085	288,8208	0,239	85,339	0	1016,74	6,9	9	8,8	1	1	1	1	1	1	1	1	1	0	1	-10,359408	274,149273	309,921798	0
15.01.2021	19:41:53	0	0	2,824497	1,758	286,6392	0,24	85,349	0	1016,78	6,9	9	8,8	1	1	1	1	1	1	1	1	1	0	1	-7,963354	274,221223	312,65421	0
15.01.2021	19:41:54	0	0	2,824497	1,851	285,1668	0,241	85,345	0	1016,96	6,9	9	8,8	1	1	1	1	1	1	1	1	1	0	1	-9,936575	274,161246	310,400585	0
15.01.2021	19:41:55	0	0	4,406216	1,863	290,4084	0,241	85,36	0	1016,8	6,9	9	8,8	1	1	1	1	1	1	1	1	1	0	1	-7,82241	274,319084	313,253074	0
15.01.2021	19:41:56	0	0	4,519195	1,872	292,5792	0,244	85,361	0	1016,84	6,8	9	8,8	1	1	1	1	1	1	1	1	1	0	1	-7,399577	274,319084	313,675907	0
15.01.2021	19:41:57	0	0	4,519195	1,86225	295,5564	0,244	85,365	0	1016,86	6,9	9	8,8	1	1	1	1	1	1	1	1	1	0	1	-14,65821	274,319084	306,417274	0
15.01.2021	19:41:58	0	0	4,745155	1,8585	297,1656	0,242	85,355	0	1016,84	6,9	9	8,8	1	1	1	1	1	1	1	1	1	0	1	-5,496829	274,284399	315,4163	0
15.01.2021	19:41:59	0	0	3,163437	1,81125	301,6152	0,236	85,337	0	1016,84	6,9	9	8,8	1	1	1	1	1	1	1	1	1	0	1	-10,570825	274,183716	309,871363	0
15.01.2021	19:42:00	0	0	5,084064	1,8135	291,8556	0,242	85,347	0	1017,1	6,9	9	8,9	1	1	1	1	1	1	1	1	1	0	1	-11,486963	274,167235	308,87819	0
15.01.2021	19:42:01	0	0	5,084064	1,8135	291,8556	0,242	85,347	0	1017,1	6,9	9	8,9	1	1	1	1	1	1	1	1	1	0	1	-6,483439	274,188213	313,979772	0
15.01.2021	19:42:02	0	0	4,519195	1,86825	290,106	0,243	85,369	0	1016,96	6,9	9	8,8	1	1	1	1	1	1	1	1	1	0	1	-10,500352	274,302488	310,497439	0
15.01.2021	19:42:03	0	0	4,180256	1,85175	285,5124	0,237	85,349	0	1016,7	6,8	9	8,8	1	1	1	1	1	1	1	1	1	0	1	-11,557435	274,158252	308,765733	0
15.01.2021	19:42:04	0	0	4,632175	1,82625	285,5376	0,243	85,361	0	1016,82	6,9	9	8,8	1	1	1	1	1	1	1	1	1	0	1	-11,627907	274,325122	309,475849	0
15.01.2021	19:42:05	0	0	3,276417	1,794	287,8524	0,239	85,362	0	1016,72	6,9	9	8,8	1	1	1	1	1	1	1	1	1	0	1	-11,134602	274,215217	309,454874	0
15.01.2021	19:42:06	0	0	2,711517	1,737	284,8032	0,237	85,377	0	1016,96	6,9	9	8,8	1	1	1	1	1	1	1	1	1	0	1	-14,587738	274,341738	306,59382	0
15.01.2021	19:42:07	0	0	4,632175	1,617	284,7384	0,238	85,362	0	1016,74	6,9	9	8,8	1	1	1	1	1	1	1	1	1	0	1	-6,694856	274,261812	314,11258	0
15.01.2021	19:42:08	0	0	4,745155	1,53825	285,9372	0,237	85,364	0	1016,7	6,9	9	8,8	1	1	1	1	1	1	1	1	1	0	1	-7,399577	274,328142	313,718318	0
15.01.2021	19:42:09	0	0	4,067252	1,539	288,486	0,24	85,375	0	1016,86	6,9	9	8,9	1	1	1	1	1	1	1	1	1	0	1	-11,205074	274,224226	309,426538	0
15.01.2021	19:42:10	0	0	3,615335	1,50525	296,8272	0,239	85,36	0	1016,68	6,9	9	8,9	1	1	1	1	1	1	1	1	1	0	1	-11,698379	274,149273	308,582827	0
15.01.2021	19:42:11	0	0	3,163437	1,5225	276,4332	0,238	85,37	0	1016,9	6,8	9	8,8	1	1	1	1	1	1	1	1	1	0	1	-13,03735	274,260308	307,763044	0
15.01.2021	19:42:12	0	0	4,519195	1,6005	280,6164	0,235	85,364	0	1016,98	6,9	9	8,8	1	1	1	1	1	1	1	1	1	0	1	-9,302326	274,316065	311,759026	0
15.01.2021	19:42:13	0	0	4,293236	1,67625	284,8248	0,234	85,382	0	1016,88	6,9	9	8,8	1	1	1	1	1	1	1	1	1	0	1	-7,470049	274,282893	313,436029	0
15.01.2021	19:42:14	0	0	3,050439	1,72575	281,3544	0,24	85,374	0	1016,94	6,9	9	8,9	1	1	1	1	1	1	1	1	1	0	1	-9,372798	274,27235	311,483943	0
15.01.2021	19:42:15	0	0	3,163437	1,73475	286,6608	0,243	85,37	0	1016,86	6,9	9	8,8	1	1	1	1	1	1	1	1	1	0	1	-13,319239	274,153762	306,982945	0
15.01.2021	19:42:16	0	0	3,389397	1,70175	288,1116	0,239	85,382	0	1016,8	6,9	9	8,8	1	1	1	1	1	1	1	1	1	0	1	-7,681466	274,240755	313,027458	0
15.01.2021	19:42:17	0	0	2,937477	1,6425	291,222	0,244	85,38	0	1017,02	6,9	9	8,8	1	1	1	1	1	1	1	1	1	0	1	-4,087385	274,164241	316,26377	0
15.01.2021	19:42:18	0	0	4,067276	1,58175	295,6032	0,234	85,367	0	1016,74	6,9	9	8,8	1	1	1	1	1	1	1	1	1	0	1	-7,610994	274,313047	313,436229	0
15.01.2021	19:42:19	0	0	4,858135	1,6095	292,8852	0,237	85,371	0	1016,9	6,9	9	8,8	1	1	1	1	1	1	1	1	1	0	1	-8,738548	274,313047	312,308675	0
15.01.2021	19:42:20	0	0	2,485558	1,59525	290,7684	0,243	85,381	0	1016,66	6,9	9	8,8	1	1	1	1	1	1	1	1	1	0	1	-8,033827	274,326632	313,076999	0
15.01.2021	19:42:21	0	0	3,841316	1,539	292,9788	0,24	85,375	0	1016,84	6,9	9	8,8	1	1	1	1	1	1	1	1	1	0	1	-9,866103	274,183716	310,576085	0
15.01.2021	19:42:22	0	0	3,050457	1,53675	292,986	0,24	85,374	0	1016,74	6,9	9	8,8	1	1	1	1	1	1	1	1	1	0	1	-11,205074	274,332673	309,934036	0
15.01.2021	19:42:23	0	0	3,728336	1,6005	295,1424	0,238	85,387	0	1016,86	6,9	9	8,8	1	1	1	1	1	1	1	1	1	0	1	-5,990134	274,261812	314,817302	0
15.01.2021	19:42:24	0	0	2,711517	1,63725	292,9464	0,234	85,398	0	1016,84	6,9	9	8,8	1	1	1	1	1	1	1	1	1	0	1	-6,342495	274,28892	314,591791	0
15.01.2021	19:42:25	0	0	2,824497	1,6395	290,0232	0,237	85,385	0	1016,9	6,9	9	8,8	1	1	1	1	1	1	1	1	1	0	1	-6,412967	274,164241	313,938188	0
15.01.2021	19:42:26	0	0	4,067276	1,65675	287,2764	0,242	85,4	0	1016,9	6,9	9	8,8	1	1	1	1	1	1	1	1	1	0	1	-10,288936	274,328142	310,82896	0
15.01.2021	19:42:27	0	0	3,728336	1,6245	285,8868	0,241	85,381	0	1016,86	6,9	9	8,8	1	1	1	1	1	1	1	1	1	0	1	-8,033827	274,222724	312,590761	0
15.01.2021	19:42:28	0	0	4,745127	1,623	291,1608	0,237	85,39	0	1016,82	6,9	9	8,9	1	1	1	1	1	1	1	1	1	0	1	-8,668076	274,287413	312,259157	0
15.01.2021	19:42:29	0	0	2,372578	1,62	291,4704	0,237	85,395	0	1016,98	6,9	9	8,8	1	1	1	1	1	1	1	1	1	0	1	-11,768851	274,144785	308,491383	0
15.01.2021	19:42:30	0	0	3,276436	1,64325	285,9012	0,233	85,377	0	1016,76	6,9	9	8,7	1	1	1	1	1	1	1	1	1	0	1	-10,007047	274,146281	310,260177	0
15.01.2021	19:42:31	0	0	3,050457	1,65675	296,0604	0,235	85,391	0	1016,62	6,9	9	8,8	1	1	1	1	1	1	1	1	1	0	1	-4,580691	274,225728	316,057947	0
15.01.2021	19:42:32	0	0	2,598537	1,63425	289,6092	0,242	85,399	0	1016,94	6,9	9	8,8	1	1	1	1	1	1	1	1	1	0	1	-10,500352	274,331163	310,631686	0
15.01.2021	19:42:33	0	0	2,937477	1,65075	284,4144	0,238	85,39	0	1016,8	6,9	9	8,8	1	1	1	1	1	1	1	1	1	0	1	-5,073996	274,252785	315,691204	0
15.01.2021	19:42:34	0	0	2,485558	1,6485	288,4104	0,242	85,404	0	1016,76	6,9	9	8,8	1	1	1	1	1	1	1	1	1	0	1	-4,933051	274,189712	315,537169	0
15.01.2021	19:42:35	0	0	3,615356	1,65075	288,8388	0,236	85,404	0	1016,86	6,9	9	8,8	1	1	1	1	1	1	1	1	1	0	1	-10,570825	274,322103	310,518794	0
15.01.2021	19:42:36	0	0	3,050439	1,6395	285,7104	0,235	85,382	0	1016,66	6,9	9	8,9	1	1	1	1	1	1	1	1	1	0	1	-4,298802	274,267833	316,536804	0
15.01.2021	19:42:37	0	0	2,711517	1,65825	293,3532	0,239	85,395	0	1016,76	6,9	9	8,8	1	1	1	1	1	1	1	1	1	0	1	-8,386187	274,331163	312,745851	0
15.01.2021	19:42:38	0	0	3,050457	1,64025	290,5848	0,237	85,388	0	1016,96	6,9	9	8,8	1	1	1	1	1	1	1	1	1	0	1	-7,610994	274,216718	312,985504	0
15.01.2021	19:42:39	0	0	3,615356	1,65	291,1896	0,237	85,401	0	1016,94	6,9	9	8,8	1	1	1	1	1	1	1	1	1	0	1	-6,553911	274,322103	314,535707	0
15.01.2021	19:42:40	0	0	5,084095	1,659	292,3524	0,24	85,398	0	1016,9	6,9	9	8,8	1	1	1	1	1	1	1	1	1	0	1	-12,191684	274,20021	308,327618	0
15.01.2021	19:42:41	0	0	4,406216	1,7775	293,7168	0,238	85,389	0	1016,82	6,9	9	8,8	1	1	1	1	1	1	1	1	1	0	1	-10,288936	274,313047	310,758287	0
15.01.2021	19:42:42	0	0	4,293236	1,80675	291,5172	0,237	85,405	0	1016,88	6,9	9	8,8	1	1	1	1	1	1	1	1	1	0	1	-10,007047	274,285906	310,913133	0
15.01.2021	19:42:43	0	0	4,519195	1,78725	293,6448	0,239	85,404	0	1016,94	6,9	9	8,8	1	1	1	1	1	1	1	1	1	0	1	-10,993658	274,331163	310,138381	0
15.01.2021	19:42:44	0	0	3,728336	1,79175	292,2588	0,234	85,396	0	1016,82	6,9	9	8,8	1	1	1	1	1	1	1	1	1	0	1	-10,782241	274,305504	310,229671	0
15.01.2021	19:42:45	0	0	3,615356	1,81725	291,9096	0,237	85,404	0	1016,82	6,9	8,9	8,8	1	1	1	1	1	1	1	1	1	0	1	-10,218464	274,191211	310,258766	0
15.01.2021	19:42:46	0	0	3,841316	1,8435	300,1464	0,239	85,384	0	1016,68	6,9	9	8,8	1	1	1	1	1	1	1	1	1	0	1	-6,694856	274,331163	314,437183	0
15.01.2021	19:42:47	0	0	3,276417	1,8435	291,4812	0,242	85,403	0	1016,7	6,9	9	8,8	1	1	1	1	1	1	1	1	1	0	1	-5,426357	274,282893	315,479722	0
15.01.2021	19:42:48	0	0	3,728336	1,839	296,0352	0,236	85,406	0	1016,78	6,9	9	8,8	1	1	1	1	1	1	1	1	1	0	1	-9,44327	274,158252	310,879898	0
15.01.2021	19:42:49	0	0	3,502376	1,7445	296,1216	0,232	85,385	0	1016,84	6,9	9	8,8	1	1	1	1	1	1	1	1	1	0	1	-8,527132	274,270844	312,322563	0
15.01.2021	19:42:50	0	0	4,971115	1,623	285,2748	0,232	85,395	0	1016,9	6,9	9	8,8	1	1	1	1	1	1	1	1	1	0	1	-10,218464	274,323613	310,878223	0
15.01.2021	19:42:51	0	0	3,050457	1,51875	295,1028	0,244	85,404	0	1016,8	6,9	9	8,8	1	1	1	1	1	1	1	1	1	0	1	-10,782241	274,246769	309,954815	0
15.01.2021	19:42:52	0	0	4,406216	1,488	292,2696	0,237	85,401	0	1016,84	6,9	8,9	8,8	1	1	1	1	1	1	1	1	1	0	1	-10,147992	274,326632	310,962834	0
15.01.2021	19:42:53	0	0	3,841316	1,42725	288,378	0,236	85,388	0	1016,74	6,9	9	8,8	1	1	1	1	1	1	1	1	1	0	1	-8,597604	274,230235	312,062112	0
15.01.2021	19:42:54	0	0	4,858106	1,43025	296,766	0,235	85,409	0	1016,8	6,9	9	8,9	1	1	1	1	1	1	1	1	1	0	1	-7,047216	274,325122	314,056539	0
15.01.2021	19:42:55	0	0	3,502376	1,47975	288,468	0,238	85,392	0	1016,96	6,9	9	8,8	1	1	1	1	1	1	1	1	1	0	1	-5,919662	274,299472	315,064013	0
15.01.2021	19:42:56	0	0	2,485558	1,49925	286,7292	0,242	85,411	0	1016,84	6,9	9	8,8	1	1	1	1	1	1	1	1	1	0	1	-5,355884	274,17922	315,065286	0
15.01.2021	19:42:57	0	0	3,163418	1,5435	290,1204	0,246	85,423	0	1016,9	6,9	9	8,9	1	1	1	1	1	1	1	1	1	0	1	-11,980268	274,152266	308,314923	0
15.01.2021	19:42:58	0	0	2,711517	1,55625	298,2564	0,239	85,407	0	1016,82	6,9	9	8,8	1	1	1	1	1	1	1	1	1	0	1	-9,654686	274,260308	311,145708	0
15.01.2021	19:42:59	0	0	2,711517	1,58925	295,506	0,238	85,424	0	1016,74	6,9	9	8,8	1	1	1	1	1	1	1	1	1	0	1	-11,698379	274,15077	308,589819	0
15.01.2021	19:43:00	0	0	5,084095	1,61175	294,4224	0,24	85,406	0	1016,82	6,9	9	8,8	1	1	1	1	1	1	1	1	1	0	1	-12,332629	274,215217	308,256848	0
15.01.2021	19:43:01	0	0	3,615356	1,6875	289,566	0,243	85,421	0	1016,66	6,9	9	8,8	1	1	1	1	1	1	1	1	1	0	1	-5,990134	274,140298	314,249134	0
15.01.2021	19:43:02	0	0	2,485558	1,7115	291,0996	0,243	85,407	0	1016,82	6,9	9	8,8	1	1	1	1	1	1	1	1	1	0	1	-9,44327	274,260308	311,357125	0
15.01.2021	19:43:03	0	0	4,293236	1,737	296,4888	0,237	85,408	0	1016,78	6,9	9	8,8	1	1	1	1	1	1	1	1	1	0	1	-6,906272	274,185214	313,542923	0
15.01.2021	19:43:04	0	0	4,180231	1,70325	290,4336	0,239	85,399	0	1016,74	6,9	9	8,9	1	1	1	1	1	1	1	1	1	0	1	-10,147992	274,323613	310,948695	0
15.01.2021	19:43:05	0	0	4,745155	1,70775	289,9404	0,239	85,401	0	1016,78	6,9	9	8,8	1	1	1	1	1	1	1	1	1	0	1	-11,346018	274,261812	309,461417	0
15.01.2021	19:43:06	0	0	3,163437	1,7235	288,1008	0,241	85,402	0	1016,82	6,9	9	8,8	1	1	1	1	1	1	1	1	1	0	1	-9,231853	274,152266	311,063337	0
15.01.2021	19:43:07	0	0	3,276417	1,71	290,3976	0,239	85,412	0	1016,9	6,9	9	8,8	1	1	1	1	1	1	1	1	1	0	1	-9,161381	274,254289	311,610856	0
15.01.2021	19:43:08	0	0	2,372578	1,70475	290,7864	0,243	85,42	0	1016,94	6,9	9	8,8	1	1	1	1	1	1	1	1	1	0	1	-8,104299	274,319084	312,971185	0
15.01.2021	19:43:09	0	0	3,502376	1,7535	291,2112	0,236	85,399	0	1016,86	6,9	9	8,8	1	1	1	1	1	1	1	1	1	0	1	-5,426357	274,221223	315,191208	0
15.01.2021	19:43:10	0	0	4,067252	1,8465	294,786	0,237	85,401	0	1016,8	6,9	9	8,9	1	1	1	1	1	1	1	1	1	0	1	-8,315715	274,331163	312,816323	0
15.01.2021	19:43:11	0	0	2,598537	1,9185	307,1628	0,239	85,416	0	1016,84	6,9	9	8,8	1	1	1	1	1	1	1	1	1	0	1	-8,104299	274,192711	312,379942	0
15.01.2021	19:43:12	0	0	3,389397	1,917	291,1788	0,241	85,397	0	1016,92	6,9	9	8,8	1	1	1	1	1	1	1	1	1	0	1	-8,738548	274,305504	312,273363	0
15.01.2021	19:43:13	0	0	3,276417	1,863	296,5464	0,239	85,403	0	1016,84	6,9	9	8,8	1	1	1	1	1	1	1	1	1	0	1	-9,866103	274,173227	310,527054	0
15.01.2021	19:43:14	0	0	4,519195	1,78725	305,0244	0,235	85,41	0	1016,84	6,9	9	8,8	1	1	1	1	1	1	1	1	1	0	1	-7,963354	274,171729	312,4228	0
15.01.2021	19:43:15	0	0	3,841316	1,6875	299,0412	0,236	85,416	0	1016,78	6,9	9	8,8	1	1	1	1	1	1	1	1	1	0	1	-11,06413	274,332673	310,074981	0
15.01.2021	19:43:16	0	0	3,389397	1,66125	292,6188	0,238	85,408	0	1016,8	6,9	9	8,8	1	1	1	1	1	1	1	1	1	0	1	-7,751938	274,188213	312,711273	0
15.01.2021	19:43:17	0	0	4,519195	1,69125	280,9404	0,243	85,422	0	1016,92	6,9	8,9	8,8	1	1	1	1	1	1	1	1	1	0	1	-8,45666	274,316065	312,604692	0
15.01.2021	19:43:18	0	0	3,050457	1,69725	282,816	0,24	85,412	0	1016,86	6,9	9	8,8	1	1	1	1	1	1	1	1	1	0	1	-11,698379	274,260308	309,102015	0
15.01.2021	19:43:19	0	0	2,485558	1,76625	281,6568	0,241	85,41	0	1016,8	6,9	9	8,8	1	1	1	1	1	1	1	1	1	0	1	-7,540521	274,147777	312,733693	0
15.01.2021	19:43:20	0	0	3,954296	1,767	281,358	0,242	85,412	0	1016,84	6,9	9	8,8	1	1	1	1	1	1	1	1	1	0	1	-6,976744	274,258803	313,81661	0
15.01.2021	19:43:21	0	0	3,502376	1,7745	284,0544	0,243	85,412	0	1016,76	6,9	9	8,8	1	1	1	1	1	1	1	1	1	0	1	-9,654686	274,141794	310,591569	0
15.01.2021	19:43:22	0	0	3,954296	1,758	281,3364	0,242	85,421	0	1016,86	6,9	9	8,8	1	1	1	1	1	1	1	1	1	0	1	-12,684989	274,212214	307,890447	0
15.01.2021	19:43:23	0	0	3,050457	1,78425	287,7696	0,242	85,429	0	1016,96	6,9	9	8,8	1	1	1	1	1	1	1	1	1	0	1	-10,500352	274,14329	309,752892	0
15.01.2021	19:43:24	0	0	3,276417	1,86	293,0148	0,241	85,421	0	1016,8	6,9	9	8,8	1	1	1	1	1	1	1	1	1	0	1	-10,711769	274,188213	309,751442	0
15.01.2021	19:43:25	0	0	2,711517	1,90575	286,5456	0,238	85,398	0	1016,82	6,9	9	8,8	1	1	1	1	1	1	1	1	1	0	1	-5,919662	274,144785	314,340572	0
15.01.2021	19:43:26	0	0	4,858135	1,935	297,216	0,235	85,423	0	1016,78	6,9	8,9	8,8	1	1	1	1	1	1	1	1	1	0	1	-5,919662	274,225728	314,718975	0
15.01.2021	19:43:27	0	0	3,163437	1,941	299,8656	0,237	85,422	0	1016,86	6,9	9	8,8	1	1	1	1	1	1	1	1	1	0	1	-12,262156	274,311538	308,778003	0
15.01.2021	19:43:28	0	0	3,728336	1,88025	294,4116	0,238	85,419	0	1016,68	6,9	9	8,8	1	1	1	1	1	1	1	1	1	0	1	-7,047216	274,215217	313,54226	0
15.01.2021	19:43:29	0	0	4,519195	1,755	290,79	0,242	85,414	0	1016,84	6,9	9	8,8	1	1	1	1	1	1	1	1	1	0	1	-9,44327	274,313047	311,603953	0
15.01.2021	19:43:30	0	0	4,519195	1,64025	291,7836	0,242	85,433	0	1017,06	6,9	9	8,8	1	1	1	1	1	1	1	1	1	0	1	-11,205074	274,266328	309,623488	0
15.01.2021	19:43:31	0	0	4,632148	1,482	304,6644	0,237	85,421	0	1016,78	6,9	9	8,9	1	1	1	1	1	1	1	1	1	0	1	-7,047216	274,156756	313,268956	0
15.01.2021	19:43:32	0	0	4,293236	1,455	297,8784	0,238	85,425	0	1016,78	6,9	9	8,8	1	1	1	1	1	1	1	1	1	0	1	-7,329105	274,19571	313,169158	0
15.01.2021	19:43:33	0	0	4,632175	1,452	290,0628	0,238	85,427	0	1016,8	6,9	8,9	8,8	1	1	1	1	1	1	1	1	1	0	1	-8,949965	274,317575	312,118453	0
15.01.2021	19:43:34	0	0	4,067276	1,52925	302,85	0,235	85,422	0	1016,78	6,9	9	8,8	1	1	1	1	1	1	1	1	1	0	1	-7,047216	274,19721	313,458059	0
15.01.2021	19:43:35	0	0	4,858135	1,5885	304,6032	0,242	85,425	0	1016,9	6,9	9	8,8	1	1	1	1	1	1	1	1	1	0	1	-8,527132	274,316065	312,53422	0
15.01.2021	19:43:36	0	0	4,519195	1,56525	302,778	0,239	85,412	0	1016,76	6,9	8,9	8,8	1	1	1	1	1	1	1	1	1	0	1	-8,104299	274,228733	312,54839	0
15.01.2021	19:43:37	0	0	4,632175	1,5255	300,7944	0,24	85,429	0	1016,78	6,9	9	8,8	1	1	1	1	1	1	1	1	1	0	1	-8,104299	274,323613	312,992388	0
15.01.2021	19:43:38	0	0	2,598537	1,43475	313,2216	0,238	85,422	0	1016,96	6,9	9	8,8	1	1	1	1	1	1	1	1	1	0	1	-11,346018	274,269338	309,496632	0
15.01.2021	19:43:39	0	0	2,372578	1,43025	303,8436	0,234	85,423	0	1016,84	6,9	9	8,8	1	1	1	1	1	1	1	1	1	0	1	-9,44327	274,325122	311,660486	0
15.01.2021	19:43:40	0	0	4,406189	1,46625	308,124	0,238	85,413	0	1016,9	6,9	9	8,9	1	1	1	1	1	1	1	1	1	0	1	-12,614517	274,257298	308,171798	0
15.01.2021	19:43:41	0	0	2,485558	1,58475	312,1524	0,238	85,427	0	1016,68	6,9	9	8,8	1	1	1	1	1	1	1	1	1	0	1	-8,668076	274,311538	312,372083	0
15.01.2021	19:43:42	0	0	4,745155	1,6605	329,2848	0,238	85,429	0	1016,88	6,9	9	8,8	1	1	1	1	1	1	1	1	1	0	1	-5,637773	274,31003	315,395323	0
15.01.2021	19:43:43	0	0	5,310055	1,6425	319,104	0,24	85,424	0	1016,76	6,9	9	8,8	1	1	1	1	1	1	1	1	1	0	1	-9,44327	274,276867	311,434611	0
15.01.2021	19:43:44	0	0	2,598537	1,656	315,324	0,24	85,43	0	1016,8	6,9	9	8,8	1	1	1	1	1	1	1	1	1	0	1	-10,007047	274,138803	310,225233	0
15.01.2021	19:43:45	0	0	3,276417	1,659	309,5424	0,236	85,41	0	1016,7	6,9	9	8,8	1	1	1	1	1	1	1	1	1	0	1	-6,624383	274,225728	314,014254	0
15.01.2021	19:43:46	0	0	4,632175	1,7685	290,0232	0,234	85,405	0	1016,62	6,9	9	8,8	1	1	1	1	1	1	1	1	1	0	1	-8,879493	274,332673	312,259618	0
15.01.2021	19:43:47	0	0	4,406216	1,90125	300,582	0,236	85,413	0	1016,84	6,9	9	8,8	1	1	1	1	1	1	1	1	1	0	1	-9,302326	274,146281	310,964898	0
15.01.2021	19:43:48	0	0	4,632175	1,98375	290,7756	0,236	85,415	0	1016,76	6,9	8,9	8,8	1	1	1	1	1	1	1	1	1	0	1	-10,288936	274,206211	310,258428	0
15.01.2021	19:43:49	0	0	4,971115	2,0505	298,6596	0,236	85,429	0	1016,74	6,9	9	8,8	1	1	1	1	1	1	1	1	1	0	1	-11,41649	274,171729	308,969664	0
15.01.2021	19:43:50	0	0	3,163437	2,112	290,8404	0,234	85,431	0	1016,84	6,9	8,9	8,8	1	1	1	1	1	1	1	1	1	0	1	-11,839323	274,137308	308,38597	0
15.01.2021	19:43:51	0	0	4,858135	2,1525	302,8572	0,239	85,422	0	1016,74	6,9	8,9	8,8	1	1	1	1	1	1	1	1	1	0	1	-7,82241	274,30098	313,168323	0
15.01.2021	19:43:52	0	0	2,711517	2,091	298,0224	0,24	85,441	0	1016,76	6,9	8,9	8,8	1	1	1	1	1	1	1	1	1	0	1	-10,782241	274,313047	310,264982	0
15.01.2021	19:43:53	0	0	3,615356	2,0775	298,3104	0,23	85,426	0	1016,74	6,9	8,9	8,8	1	1	1	1	1	1	1	1	1	0	1	-8,45666	274,164241	311,894496	0
15.01.2021	19:43:54	0	0	4,632175	1,986	290,7828	0,237	85,429	0	1016,7	6,9	9	8,8	1	1	1	1	1	1	1	1	1	0	1	-5,919662	274,305504	315,09225	0
15.01.2021	19:43:55	0	0	4,180256	2,01075	300,8268	0,236	85,427	0	1016,76	6,9	9	8,8	1	1	1	1	1	1	1	1	1	0	1	-10,218464	274,20021	310,300839	0
15.01.2021	19:43:56	0	0	2,711517	2,082	300,1716	0,236	85,429	0	1016,76	6,9	9	8,8	1	1	1	1	1	1	1	1	1	0	1	-6,976744	274,153762	313,32544	0
15.01.2021	19:43:57	0	0	2,824497	2,151	297,2412	0,241	85,435	0	1016,84	6,9	9	8,8	1	1	1	1	1	1	1	1	1	0	1	-8,668076	274,152266	311,627114	0
15.01.2021	19:43:58	0	0	3,050457	2,17725	305,3412	0,237	85,406	0	1016,72	6,9	9	8,8	1	1	1	1	1	1	1	1	1	0	1	-11,698379	274,138803	308,533901	0
15.01.2021	19:43:59	0	0	3,728336	2,16525	297,5256	0,237	85,438	0	1016,88	6,9	9	8,8	1	1	1	1	1	1	1	1	1	0	1	-9,513742	274,296456	311,455818	0
15.01.2021	19:44:00	0	0	3,841316	2,20875	299,0052	0,239	85,432	0	1016,86	6,9	9	8,8	1	1	1	1	1	1	1	1	1	0	1	-8,738548	274,215217	311,850928	0
15.01.2021	19:44:01	0	0	3,841316	2,1885	300,5496	0,237	85,424	0	1016,92	6,9	8,9	8,8	1	1	1	1	1	1	1	1	1	0	1	-11,980268	274,146281	308,286956	0
15.01.2021	19:44:02	0	0	2,598537	2,178	296,46	0,232	85,424	0	1016,86	6,9	9	8,8	1	1	1	1	1	1	1	1	1	0	1	-6,060606	274,213715	314,52185	0
15.01.2021	19:44:03	0	0	3,615356	2,17575	296,4276	0,235	85,445	0	1016,72	6,9	8,9	8,8	1	1	1	1	1	1	1	1	1	0	1	-7,892882	274,319084	313,182602	0
15.01.2021	19:44:04	0	0	2,598537	2,13825	311,7456	0,235	85,433	0	1016,82	6,9	9	8,8	1	1	1	1	1	1	1	1	1	0	1	-9,090909	274,19871	311,42138	0
15.01.2021	19:44:05	0	0	4,745155	2,00175	297,2016	0,241	85,426	0	1016,8	6,9	8,9	8,8	1	1	1	1	1	1	1	1	1	0	1	-8,104299	274,322103	312,98532	0
15.01.2021	19:44:06	0	0	4,180256	1,8405	301,2912	0,236	85,444	0	1016,86	6,9	9	8,8	1	1	1	1	1	1	1	1	1	0	1	-8,104299	274,174725	312,29586	0
15.01.2021	19:44:07	0	0	2,711517	1,79025	298,2312	0,236	85,423	0	1016,78	6,9	9	8,8	1	1	1	1	1	1	1	1	1	0	1	-10,007047	274,182217	310,428134	0
15.01.2021	19:44:08	0	0	4,632175	1,79325	305,4168	0,234	85,419	0	1016,66	6,9	9	8,8	1	1	1	1	1	1	1	1	1	0	1	-6,694856	274,161246	313,642305	0
15.01.2021	19:44:09	0	0	3,728336	1,69125	305,3844	0,234	85,413	0	1016,8	6,9	9	8,8	1	1	1	1	1	1	1	1	1	0	1	-11,768851	274,287413	309,158381	0
15.01.2021	19:44:10	0	0	2,485558	1,62075	293,274	0,227	85,419	0	1016,82	6,9	9	8,8	1	1	1	1	1	1	1	1	1	0	1	-9,090909	274,20171	311,435408	0
15.01.2021	19:44:11	0	0	4,180256	1,5435	313,2504	0,233	85,433	0	1016,76	6,9	9	8,8	1	1	1	1	1	1	1	1	1	0	1	-6,20155	274,278374	314,683379	0
15.01.2021	19:44:12	0	0	3,502376	1,524	299,8188	0,236	85,44	0	1016,88	6,9	8,9	8,8	1	1	1	1	1	1	1	1	1	0	1	-14,587738	274,31003	306,445358	0
15.01.2021	19:44:13	0	0	4,293236	1,4835	318,7836	0,236	85,437	0	1016,86	6,8	8,9	8,8	1	1	1	1	1	1	1	1	1	0	1	-10,359408	274,191211	310,117822	0
15.01.2021	19:44:14	0	0	2,146618	1,497	302,4	0,237	85,439	0	1016,78	6,9	9	8,8	1	1	1	1	1	1	1	1	1	0	1	-9,302326	274,132823	310,902012	0
15.01.2021	19:44:15	0	0	4,745155	1,57125	302,04	0,233	85,421	0	1016,86	6,9	9	8,8	1	1	1	1	1	1	1	1	1	0	1	-7,470049	274,263317	313,344428	0
15.01.2021	19:44:16	0	0	3,954296	1,60725	306,8424	0,234	85,43	0	1016,7	6,9	9	8,8	1	1	1	1	1	1	1	1	1	0	1	-9,231853	274,14329	311,021391	0
15.01.2021	19:44:17	0	0	4,406216	1,602	299,376	0,232	85,419	0	1016,68	6,9	9	8,8	1	1	1	1	1	1	1	1	1	0	1	-9,513742	274,209212	311,047657	0
15.01.2021	19:44:18	0	0	3,954296	1,54875	301,6872	0,229	85,433	0	1016,82	6,9	9	8,8	1	1	1	1	1	1	1	1	1	0	1	-3,59408	274,131328	316,603273	0
15.01.2021	19:44:19	0	0	2,711517	1,5495	298,6848	0,236	85,431	0	1016,7	6,9	9	8,8	1	1	1	1	1	1	1	1	1	0	1	-5,285412	274,19421	315,205839	0
15.01.2021	19:44:20	0	0	4,971115	1,521	300,4488	0,232	85,433	0	1016,96	6,9	9	8,8	1	1	1	1	1	1	1	1	1	0	1	-6,906272	274,162743	313,437885	0
15.01.2021	19:44:21	0	0	4,293236	1,51425	311,0436	0,227	85,427	0	1016,86	6,9	8,9	8,8	1	1	1	1	1	1	1	1	1	0	1	-6,412967	274,284399	314,500162	0
15.01.2021	19:44:22	0	0	4,971115	1,50075	300,8268	0,233	85,422	0	1016,6	6,9	9	8,8	1	1	1	1	1	1	1	1	1	0	1	-7,047216	274,230235	313,6125	0
15.01.2021	19:44:23	0	0	4,519195	1,51575	304,9884	0,241	85,432	0	1016,74	6,9	8,9	8,8	1	1	1	1	1	1	1	1	1	0	1	-8,738548	274,141794	311,507708	0
15.01.2021	19:44:24	0	0	2,598537	1,5465	310,6296	0,238	85,427	0	1016,72	6,9	9	8,8	1	1	1	1	1	1	1	1	1	0	1	-10,993658	274,20171	309,53266	0
15.01.2021	19:44:25	0	0	4,406216	1,52925	302,8968	0,238	85,435	0	1016,88	6,9	9	8,8	1	1	1	1	1	1	1	1	1	0	1	-8,668076	274,293441	312,287372	0
15.01.2021	19:44:26	0	0	4,406216	1,54125	294,8796	0,233	85,429	0	1016,88	6,9	9	8,8	1	1	1	1	1	1	1	1	1	0	1	-8,45666	274,215217	312,132817	0
15.01.2021	19:44:27	0	0	2,824497	1,56525	307,5552	0,229	85,424	0	1016,6	6,9	9	8,8	1	1	1	1	1	1	1	1	1	0	1	-12,544045	274,31003	308,489051	0
15.01.2021	19:44:28	0	0	2,824497	1,64625	293,4252	0,231	85,424	0	1016,84	6,9	9	8,8	1	1	1	1	1	1	1	1	1	0	1	-7,963354	274,252785	312,801846	0
15.01.2021	19:44:29	0	0	4,293236	1,70475	295,506	0,236	85,43	0	1016,92	6,9	9	8,8	1	1	1	1	1	1	1	1	1	0	1	-11,205074	274,31003	309,828022	0
15.01.2021	19:44:30	0	0	3,389397	1,82925	305,3052	0,235	85,413	0	1016,98	6,9	9	8,8	1	1	1	1	1	1	1	1	1	0	1	-11,627907	274,216718	308,96859	0
15.01.2021	19:44:31	0	0	3,276417	1,8855	303,2064	0,233	85,437	0	1016,86	6,9	9	8,8	1	1	1	1	1	1	1	1	1	0	1	-5,285412	274,131328	314,911941	0
15.01.2021	19:44:32	0	0	3,276417	1,81875	299,7288	0,237	85,432	0	1016,74	6,9	8,9	8,8	1	1	1	1	1	1	1	1	1	0	1	-8,033827	274,19721	312,471449	0
15.01.2021	19:44:33	0	0	2,711517	1,8195	295,1532	0,238	85,421	0	1016,9	6,8	9	8,8	1	1	1	1	1	1	1	1	1	0	1	-4,933051	274,156756	315,383121	0
15.01.2021	19:44:34	0	0	4,180256	1,848	299,0628	0,232	85,427	0	1016,66	6,9	9	8,8	1	1	1	1	1	1	1	1	1	0	1	-8,45666	274,263317	312,357817	0
15.01.2021	19:44:35	0	0	4,745155	1,90425	292,2192	0,239	85,421	0	1016,72	6,9	9	8,8	1	1	1	1	1	1	1	1	1	0	1	-10,641297	274,14329	309,611948	0
15.01.2021	19:44:36	0	0	3,050457	1,95975	301,1508	0,231	85,419	0	1016,88	6,9	9	8,8	1	1	1	1	1	1	1	1	1	0	1	-7,610994	274,242259	313,104962	0
15.01.2021	19:44:37	0	0	4,971115	1,97925	285,1308	0,225	85,421	0	1016,7	6,9	9	8,8	1	1	1	1	1	1	1	1	1	0	1	-16,067653	274,296456	304,901907	0
15.01.2021	19:44:38	0	0	3,502376	2,03925	294,8472	0,235	85,411	0	1016,88	6,9	9	8,8	1	1	1	1	1	1	1	1	1	0	1	-9,936575	274,307013	311,082397	0
15.01.2021	19:44:39	0	0	4,632175	2,0085	293,3064	0,235	85,411	0	1016,62	6,9	8,9	8,8	1	1	1	1	1	1	1	1	1	0	1	-6,624383	274,245266	314,105639	0
15.01.2021	19:44:40	0	0	2,598537	1,9965	291,1608	0,237	85,428	0	1016,86	6,9	9	8,8	1	1	1	1	1	1	1	1	1	0	1	-9,654686	274,122361	310,500776	0
15.01.2021	19:44:41	0	0	4,406216	1,92825	288,5508	0,233	85,424	0	1016,82	6,9	9	8,8	1	1	1	1	1	1	1	1	1	0	1	-6,976744	274,219721	313,633797	0
15.01.2021	19:44:42	0	0	3,728336	1,878	287,3628	0,23	85,426	0	1016,92	6,9	9	8,8	1	1	1	1	1	1	1	1	1	0	1	-3,100775	274,122361	317,054687	0
15.01.2021	19:44:43	0	0	3,276417	1,90125	295,5384	0,231	85,422	0	1016,7	6,9	9	8,8	1	1	1	1	1	1	1	1	1	0	1	-8,174771	274,243762	312,548218	0
15.01.2021	19:44:44	0	0	4,067276	1,91775	300,438	0,232	85,416	0	1016,88	6,9	8,9	8,8	1	1	1	1	1	1	1	1	1	0	1	-10,852713	274,316065	310,208639	0
15.01.2021	19:44:45	0	0	3,728336	1,92825	297,5904	0,232	85,411	0	1016,74	6,9	9	8,8	1	1	1	1	1	1	1	1	1	0	1	-6,272023	274,174725	314,128137	0
15.01.2021	19:44:46	0	0	4,406216	1,93125	300,4884	0,256	85,41	0	1016,94	6,9	9	8,8	1	1	1	1	1	1	1	1	1	0	1	-7,047216	274,128339	313,136171	0
15.01.2021	19:44:47	0	0	4,971115	1,842	297,4356	0,231	85,406	0	1016,8	6,9	9	8,8	1	1	1	1	1	1	1	1	1	0	1	-14,446794	274,189712	306,023427	0
15.01.2021	19:44:48	0	0	3,615356	1,8105	296,3988	0,225	85,421	0	1016,62	6,9	9	8,8	1	1	1	1	1	1	1	1	1	0	1	-8,45666	274,165738	311,901494	0
15.01.2021	19:44:49	0	0	3,163437	1,755	289,4904	0,229	85,409	0	1016,72	6,9	8,9	8,8	1	1	1	1	1	1	1	1	1	0	1	-10,288936	274,173227	310,104221	0
15.01.2021	19:44:50	0	0	3,728336	1,845	296,856	0,238	85,421	0	1016,84	6,9	8,9	8,8	1	1	1	1	1	1	1	1	1	0	1	-13,6716	274,303996	307,333252	0
15.01.2021	19:44:51	0	0	2,485558	1,896	308,4732	0,232	85,428	0	1016,82	6,9	9	8,8	1	1	1	1	1	1	1	1	1	0	1	-10,641297	274,313047	310,405926	0
15.01.2021	19:44:52	0	0	2,711517	1,95525	298,6848	0,228	85,417	0	1016,82	6,9	9	8,8	1	1	1	1	1	1	1	1	1	0	1	-8,174771	274,177721	312,239395	0
15.01.2021	19:44:53	0	0	3,954296	2,02875	304,9668	0,237	85,428	0	1016,96	6,8	9	8,8	1	1	1	1	1	1	1	1	1	0	1	-6,412967	274,129833	313,777403	0
15.01.2021	19:44:54	0	0	4,745155	1,968	293,2812	0,231	85,424	0	1016,8	6,9	9	8,8	1	1	1	1	1	1	1	1	1	0	1	-6,20155	274,156756	314,114622	0
15.01.2021	19:44:55	0	0	4,180256	1,9665	294,8616	0,234	85,431	0	1016,86	6,9	8,9	8,8	1	1	1	1	1	1	1	1	1	0	1	-14,376321	274,285906	306,543859	0
15.01.2021	19:44:56	0	0	3,389397	1,938	292,1724	0,231	85,434	0	1016,74	6,9	9	8,8	1	1	1	1	1	1	1	1	1	0	1	-8,879493	274,19721	311,625783	0
15.01.2021	19:44:57	0	0	2,259598	1,872	299,4696	0,239	85,411	0	1016,92	6,9	9	8,8	1	1	1	1	1	1	1	1	1	0	1	-9,020437	274,114893	311,100135	0
15.01.2021	19:44:58	0	0	2,711517	1,767	282,5388	0,23	85,424	0	1016,8	6,9	9	8,8	1	1	1	1	1	1	1	1	1	0	1	-9,302326	274,168733	311,069827	0
15.01.2021	19:44:59	0	0	3,728336	1,78425	293,2596	0,232	85,433	0	1016,8	6,8	8,9	8,8	1	1	1	1	1	1	1	1	1	0	1	-10,007047	274,192711	310,477193	0
15.01.2021	19:45:00	0	0	3,389397	1,791	294,0984	0,232	85,425	0	1016,92	6,9	9	8,8	1	1	1	1	1	1	1	1	1	0	1	-7,82241	274,307013	313,196562	0
15.01.2021	19:45:01	0	0	3,389397	1,76025	301,968	0,234	85,438	0	1016,88	6,9	9	8,8	1	1	1	1	1	1	1	1	1	0	1	-6,765328	274,248273	313,978764	0
15.01.2021	19:45:02	0	0	4,293236	1,764	309,5244	0,233	85,443	0	1016,84	6,9	9	8,8	1	1	1	1	1	1	1	1	1	0	1	-6,906272	274,30098	314,084461	0
15.01.2021	19:45:03	0	0	4,745155	1,824	306,864	0,236	85,441	0	1016,82	6,8	9	8,8	1	1	1	1	1	1	1	1	1	0	1	-5,21494	274,240755	315,493983	0
15.01.2021	19:45:04	0	0	3,389397	1,9905	309,5028	0,234	85,418	0	1016,62	6,9	9	8,8	1	1	1	1	1	1	1	1	1	0	1	-7,540521	274,287413	313,386711	0
15.01.2021	19:45:05	0	0	3,163437	2,061	303,2208	0,227	85,438	0	1016,76	6,9	9	8,8	1	1	1	1	1	1	1	1	1	0	1	-14,799154	274,170231	305,579999	0
15.01.2021	19:45:06	0	0	3,954296	1,90725	307,5516	0,233	85,435	0	1016,84	6,9	9	8,8	1	1	1	1	1	1	1	1	1	0	1	-6,060606	274,284399	314,852523	0
15.01.2021	19:45:07	0	0	3,389397	1,82925	308,502	0,229	85,44	0	1016,66	6,9	9	8,8	1	1	1	1	1	1	1	1	1	0	1	-7,82241	274,186713	312,633793	0
15.01.2021	19:45:08	0	0	3,841316	1,746	298,7028	0,232	85,462	0	1016,82	6,9	9	8,8	1	1	1	1	1	1	1	1	1	0	1	-6,553911	274,116386	313,573637	0
15.01.2021	19:45:09	0	0	2,485558	1,74675	292,6044	0,234	85,441	0	1016,86	6,9	9,1	8,8	1	1	1	1	1	1	1	1	1	0	1	-8,386187	274,162743	311,95797	0
15.01.2021	19:45:10	0	0	2,598537	1,74675	297,1692	0,23	85,464	0	1016,82	6,9	9	8,8	1	1	1	1	1	1	1	1	1	0	1	-7,470049	274,132823	312,734288	0
15.01.2021	19:45:11	0	0	2,598537	1,73325	286,9884	0,229	85,437	0	1016,84	6,9	9	8,8	1	1	1	1	1	1	1	1	1	0	1	-6,20155	274,122361	313,953912	0
15.01.2021	19:45:12	0	0	3,954296	1,725	311,1012	0,229	85,437	0	1016,68	6,9	8,9	8,8	1	1	1	1	1	1	1	1	1	0	1	-8,80902	274,242259	311,906935	0
15.01.2021	19:45:13	0	0	3,841316	1,7295	304,2792	0,235	85,467	0	1016,92	6,9	8,9	8,8	1	1	1	1	1	1	1	1	1	0	1	-9,231853	274,293441	311,723595	0
15.01.2021	19:45:14	0	0	3,050457	1,74675	313,1676	0,226	85,453	0	1016,88	6,9	9	8,8	1	1	1	1	1	1	1	1	1	0	1	-6,8358	274,189712	313,634421	0
15.01.2021	19:45:15	0	0	4,067276	1,75275	301,5972	0,231	85,472	0	1016,88	6,9	8,9	8,8	1	1	1	1	1	1	1	1	1	0	1	-5,21494	274,291934	315,733453	0
15.01.2021	19:45:16	0	0	3,728336	1,72425	303,8868	0,234	85,455	0	1016,86	6,8	8,9	8,8	1	1	1	1	1	1	1	1	1	0	1	-5,355884	274,20021	315,163418	0
15.01.2021	19:45:17	0	0	2,485558	1,7295	309,9024	0,235	85,458	0	1016,86	6,9	9	8,8	1	1	1	1	1	1	1	1	1	0	1	-7,117689	274,303996	313,887163	0
15.01.2021	19:45:18	0	0	3,502376	1,6695	312,4332	0,23	85,469	0	1016,52	6,9	9	8,8	1	1	1	1	1	1	1	1	1	0	1	-11,275546	274,161246	309,061614	0
15.01.2021	19:45:19	0	0	3,841316	1,632	312,8112	0,235	85,475	0	1017	6,9	9	8,8	1	1	1	1	1	1	1	1	1	0	1	-7,892882	274,299472	313,090792	0
15.01.2021	19:45:20	0	0	3,276417	1,524	306,4464	0,233	85,471	0	1016,7	6,9	9	8,8	1	1	1	1	1	1	1	1	1	0	1	-5,073996	274,19571	315,424268	0
15.01.2021	19:45:21	0	0	4,293236	1,34325	295,5564	0,226	85,459	0	1016,76	6,9	9	8,8	1	1	1	1	1	1	1	1	1	0	1	-8,80902	274,307013	312,209952	0
15.01.2021	19:45:22	0	0	3,615356	1,21125	301,5684	0,229	85,474	0	1016,82	6,9	8,9	8,8	1	1	1	1	1	1	1	1	1	0	1	-6,20155	274,266328	314,627012	0
15.01.2021	19:45:23	0	0	3,841316	1,1295	294,7608	0,231	85,463	0	1016,76	6,8	8,9	8,8	1	1	1	1	1	1	1	1	1	0	1	-12,614517	274,257298	308,171798	0
15.01.2021	19:45:24	0	0	3,502376	1,21875	277,5132	0,226	85,471	0	1016,84	6,9	8,9	8,8	1	1	1	1	1	1	1	1	1	0	1	-5,637773	274,11788	314,496753	0
15.01.2021	19:45:25	0	0	4,067276	1,42125	292,662	0,231	85,468	0	1016,66	6,8	9	8,8	1	1	1	1	1	1	1	1	1	0	1	-5,496829	274,243762	315,22616	0
15.01.2021	19:45:26	0	0	3,954296	1,59075	282,0888	0,231	85,466	0	1016,82	6,9	9	8,8	1	1	1	1	1	1	1	1	1	0	1	-11,06413	274,116386	309,063419	0
15.01.2021	19:45:27	0	0	3,728336	1,72425	293,3388	0,234	85,477	0	1016,92	6,9	9	8,8	1	1	1	1	1	1	1	1	1	0	1	-4,721635	274,273855	316,142152	0
15.01.2021	19:45:28	0	0	2,372578	1,92375	298,2672	0,233	85,476	0	1016,8	6,9	9	8,8	1	1	1	1	1	1	1	1	1	0	1	-10,711769	274,152266	309,583422	0
15.01.2021	19:45:29	0	0	3,615356	2,24175	306,45	0,235	85,479	0	1016,74	6,9	9	8,8	1	1	1	1	1	1	1	1	1	0	1	-8,668076	274,165738	311,690078	0
15.01.2021	19:45:30	0	0	3,502376	2,51325	290,4048	0,233	85,485	0	1016,78	6,9	8,9	8,8	1	1	1	1	1	1	1	1	1	0	1	-11,134602	274,243762	309,588387	0
15.01.2021	19:45:31	0	0	3,502376	2,709	295,1712	0,232	85,482	0	1016,6	6,9	8,9	8,8	1	1	1	1	1	1	1	1	1	0	1	-7,610994	274,128339	312,572393	0
15.01.2021	19:45:32	0	0	2,711517	2,76525	308,466	0,232	85,48	0	1016,88	6,9	8,9	8,8	1	1	1	1	1	1	1	1	1	0	1	-8,668076	274,27988	312,223902	0
15.01.2021	19:45:33	0	0	2,937477	2,7615	306,5112	0,229	85,472	0	1016,88	6,9	8,9	8,8	1	1	1	1	1	1	1	1	1	0	1	-10,923185	274,165738	309,434969	0
15.01.2021	19:45:34	0	0	2,711517	2,77125	309,9096	0,234	85,46	0	1016,76	6,9	8,9	8,8	1	1	1	1	1	1	1	1	1	0	1	-7,963354	274,147777	312,31086	0
15.01.2021	19:45:35	0	0	2,937477	2,70825	303,8292	0,234	85,486	0	1016,88	6,9	9	8,8	1	1	1	1	1	1	1	1	1	0	1	-9,161381	274,122361	310,994081	0
15.01.2021	19:45:36	0	0	4,406216	2,8005	324,702	0,229	85,482	0	1016,56	6,8	9	8,8	1	1	1	1	1	1	1	1	1	0	1	-6,553911	274,234743	314,12689	0
15.01.2021	19:45:37	0	0	4,632175	2,8365	320,004	0,234	85,494	0	1016,76	6,8	9	8,8	1	1	1	1	1	1	1	1	1	0	1	-9,795631	274,316065	311,265721	0
15.01.2021	19:45:38	0	0	2,824497	2,7795	322,4988	0,232	85,492	0	1016,8	6,9	8,9	8,8	1	1	1	1	1	1	1	1	1	0	1	-9,584214	274,246769	311,152842	0
15.01.2021	19:45:39	0	0	2,598537	2,661	330,1632	0,238	85,483	0	1016,72	6,9	8,9	8,8	1	1	1	1	1	1	1	1	1	0	1	-8,45666	274,165738	311,901494	0
15.01.2021	19:45:40	0	0	4,067276	2,40525	315,5508	0,226	85,494	0	1016,8	6,9	8,9	8,8	1	1	1	1	1	1	1	1	1	0	1	-7,751938	274,294949	313,210566	0
15.01.2021	19:45:41	0	0	2,711517	2,34225	298,9548	0,23	85,495	0	1016,82	6,8	9	8,8	1	1	1	1	1	1	1	1	1	0	1	-6,553911	274,20171	313,972406	0
15.01.2021	19:45:42	0	0	5,084095	2,655	319,9824	0,226	85,481	0	1016,7	6,8	9	8,8	1	1	1	1	1	1	1	1	1	0	1	-10,641297	274,129833	309,549073	0
15.01.2021	19:45:43	0	0	3,502376	2,8065	310,9968	0,228	85,475	0	1016,84	6,9	8,9	8,8	1	1	1	1	1	1	1	1	1	0	1	-10,42988	274,173227	309,963276	0
15.01.2021	19:45:44	0	0	4,180256	2,60475	308,4624	0,231	85,482	0	1016,98	6,9	8,9	8,8	1	1	1	1	1	1	1	1	1	0	1	-8,668076	274,290427	312,273263	0
15.01.2021	19:45:45	0	0	3,050457	2,4555	300,1248	0,233	85,487	0	1016,64	7	9	8,8	1	1	1	1	1	1	1	1	1	0	1	-9,725159	274,23324	310,948613	0
15.01.2021	19:45:46	0	0	5,197075	2,3805	305,6832	0,228	85,475	0	1016,88	6,8	8,9	8,8	1	1	1	1	1	1	1	1	1	0	1	-7,82241	274,27988	313,069568	0
15.01.2021	19:45:47	0	0	4,293236	2,283	300,4488	0,231	85,476	0	1016,76	6,9	8,9	8,8	1	1	1	1	1	1	1	1	1	0	1	-8,597604	274,240755	312,111319	0
15.01.2021	19:45:48	0	0	4,293236	2,289	303,4692	0,225	85,474	0	1016,78	6,9	8,9	8,8	1	1	1	1	1	1	1	1	1	0	1	-6,765328	274,305504	314,246584	0
15.01.2021	19:45:49	0	0	4,519195	2,4015	313,5672	0,233	85,491	0	1016,72	6,9	8,9	8,8	1	1	1	1	1	1	1	1	1	0	1	-6,272023	274,207712	314,282359	0
15.01.2021	19:45:50	0	0	2,824497	2,35575	300,852	0,231	85,49	0	1016,86	6,9	9	8,8	1	1	1	1	1	1	1	1	1	0	1	-10,077519	274,128339	310,105868	0
15.01.2021	19:45:51	0	0	2,824497	2,18475	314,4852	0,232	85,483	0	1016,86	6,9	9	8,8	1	1	1	1	1	1	1	1	1	0	1	-6,553911	274,20321	313,979421	0
15.01.2021	19:45:52	0	0	2,711517	1,9665	298,6992	0,235	85,498	0	1016,84	6,9	9	8,8	1	1	1	1	1	1	1	1	1	0	1	-7,540521	274,311538	313,499638	0
15.01.2021	19:45:53	0	0	4,745155	1,896	293,3748	0,231	85,495	0	1016,76	6,9	9	8,8	1	1	1	1	1	1	1	1	1	0	1	-9,231853	274,149273	311,049353	0
15.01.2021	19:45:54	0	0	3,502376	1,8795	321,1632	0,235	85,488	0	1016,74	6,9	8,9	8,8	1	1	1	1	1	1	1	1	1	0	1	-7,681466	274,254289	313,090772	0
15.01.2021	19:45:55	0	0	2,711517	1,908	317,0484	0,233	85,485	0	1016,78	6,9	9	8,8	1	1	1	1	1	1	1	1	1	0	1	-7,258633	274,302488	313,739159	0
15.01.2021	19:45:56	0	0	2,598537	1,97175	308,7468	0,229	85,498	0	1016,86	6,8	9	8,8	1	1	1	1	1	1	1	1	1	0	1	-6,20155	274,146281	314,065674	0
15.01.2021	19:45:57	0	0	3,841316	1,99125	307,566	0,225	85,482	0	1016,82	6,8	9	8,8	1	1	1	1	1	1	1	1	1	0	1	-8,738548	274,246769	311,998508	0
15.01.2021	19:45:58	0	0	2,711517	1,99575	319,5864	0,234	85,492	0	1016,74	7	9	8,8	1	1	1	1	1	1	1	1	1	0	1	-7,399577	274,221223	313,217987	0
15.01.2021	19:45:59	0	0	3,954296	1,92075	303,1884	0,23	85,491	0	1016,8	6,9	9,1	8,8	1	1	1	1	1	1	1	1	1	0	1	-9,795631	274,30098	311,195102	0
15.01.2021	19:46:00	0	0	4,519195	1,89375	308,7864	0,226	85,48	0	1016,78	7	8,9	8,8	1	1	1	1	1	1	1	1	1	0	1	-9,44327	274,20321	311,090062	0
15.01.2021	19:46:01	0	0	3,276417	1,88325	295,1892	0,232	85,495	0	1016,76	6,9	8,9	8,8	1	1	1	1	1	1	1	1	1	0	1	-7,610994	274,291934	313,3374	0
15.01.2021	19:46:02	0	0	2,711517	1,911	303,1776	0,231	85,483	0	1016,76	6,8	9	8,8	1	1	1	1	1	1	1	1	1	0	1	-4,933051	274,207712	315,62133	0
15.01.2021	19:46:03	0	0	4,406216	1,90875	313,146	0,227	85,496	0	1016,88	6,9	9	8,8	1	1	1	1	1	1	1	1	1	0	1	-8,80902	274,308521	312,217014	0
15.01.2021	19:46:04	0	0	3,615356	1,79925	300,7836	0,23	85,469	0	1016,76	6,8	9,1	8,8	1	1	1	1	1	1	1	1	1	0	1	-10,147992	274,254289	310,624246	0
15.01.2021	19:46:05	0	0	4,406216	1,66425	295,5276	0,228	85,494	0	1017	6,9	9	8,8	1	1	1	1	1	1	1	1	1	0	1	-9,372798	274,134318	310,838524	0
15.01.2021	19:46:06	0	0	3,954296	1,6935	300,7872	0,232	85,487	0	1016,82	6,9	8,9	8,8	1	1	1	1	1	1	1	1	1	0	1	-7,047216	274,153762	313,254968	0
15.01.2021	19:46:07	0	0	4,971115	1,7475	284,4432	0,227	85,493	0	1016,76	6,8	8,9	8,8	1	1	1	1	1	1	1	1	1	0	1	-5,073996	274,287413	315,853237	0
15.01.2021	19:46:08	0	0	4,971115	1,70475	280,26	0,231	85,486	0	1016,76	6,9	8,9	8,8	1	1	1	1	1	1	1	1	1	0	1	-10,782241	274,252785	309,982959	0
15.01.2021	19:46:09	0	0	3,841316	1,57275	282,3876	0,225	85,471	0	1016,68	6,9	8,9	8,8	1	1	1	1	1	1	1	1	1	0	1	-11,346018	274,183716	309,09617	0
15.01.2021	19:46:10	0	0	4,858135	1,4745	281,4408	0,227	85,467	0	1016,84	6,9	9	8,8	1	1	1	1	1	1	1	1	1	0	1	-12,05074	274,114893	308,069832	0
15.01.2021	19:46:11	0	0	5,197075	1,449	284,4288	0,236	85,486	0	1016,8	6,9	8,9	8,8	1	1	1	1	1	1	1	1	1	0	1	-8,527132	274,270844	312,322563	0
15.01.2021	19:46:12	0	0	2,824497	1,425	286,9884	0,23	85,486	0	1016,84	6,8	9	8,8	1	1	1	1	1	1	1	1	1	0	1	-7,399577	274,258803	313,393777	0
15.01.2021	19:46:13	0	0	2,598537	1,41	287,7048	0,23	85,494	0	1016,72	6,8	8,9	8,8	1	1	1	1	1	1	1	1	1	0	1	-5,990134	274,123856	314,172309	0
15.01.2021	19:46:14	0	0	3,389397	1,395	270,2736	0,234	85,494	0	1016,86	6,8	8,9	8,8	1	1	1	1	1	1	1	1	1	0	1	-7,188161	274,210713	313,380257	0
15.01.2021	19:46:15	0	0	4,180256	1,317	280,2276	0,23	85,489	0	1016,84	6,9	8,9	8,8	1	1	1	1	1	1	1	1	1	0	1	-7,117689	274,278374	313,767241	0
15.01.2021	19:46:16	0	0	4,067276	1,29975	289,1124	0,22	85,487	0	1016,7	6,8	9	8,8	1	1	1	1	1	1	1	1	1	0	1	-11,627907	274,186713	308,828296	0
15.01.2021	19:46:17	0	0	4,406216	1,3185	282,0132	0,232	85,481	0	1016,84	7	9	8,8	1	1	1	1	1	1	1	1	1	0	1	-7,963354	274,171729	312,4228	0
15.01.2021	19:46:18	0	0	3,276417	1,26975	290,034	0,232	85,5	0	1016,76	6,8	9	8,8	1	1	1	1	1	1	1	1	1	0	1	-8,104299	274,296456	312,865261	0
15.01.2021	19:46:19	0	0	4,858135	1,335	300,8628	0,232	85,485	0	1016,74	6,9	9	8,8	1	1	1	1	1	1	1	1	1	0	1	-7,329105	274,146281	312,938119	0
15.01.2021	19:46:20	0	0	2,598537	1,416	300,8988	0,227	85,471	0	1016,84	6,9	8,9	8,8	1	1	1	1	1	1	1	1	1	0	1	-11,06413	274,153762	309,238054	0
15.01.2021	19:46:21	0	0	4,519195	1,44075	292,5972	0,227	85,483	0	1016,8	6,8	9	8,8	1	1	1	1	1	1	1	1	1	0	1	-7,117689	274,28892	313,816597	0
15.01.2021	19:46:22	0	0	2,598537	1,5	289,9764	0,226	85,477	0	1016,88	7	8,9	8,8	1	1	1	1	1	1	1	1	1	0	1	-10,641297	274,27235	310,215444	0
15.01.2021	19:46:23	0	0	2,485558	1,53225	285,8976	0,229	85,495	0	1016,8	6,9	8,9	8,8	1	1	1	1	1	1	1	1	1	0	1	-11,627907	274,141794	308,618349	0
15.01.2021	19:46:24	0	0	2,711517	1,6005	288,3816	0,227	85,493	0	1016,86	6,9	8,9	8,8	1	1	1	1	1	1	1	1	1	0	1	-10,288936	274,141794	309,95732	0
15.01.2021	19:46:25	0	0	4,519195	1,6365	307,5264	0,228	85,497	0	1016,7	6,9	8,9	8,8	1	1	1	1	1	1	1	1	1	0	1	-16,27907	274,246769	304,457987	0
15.01.2021	19:46:26	0	0	4,745155	1,566	286,2108	0,232	85,5	0	1016,88	6,9	8,9	8,8	1	1	1	1	1	1	1	1	1	0	1	-7,117689	274,311538	313,922471	0
15.01.2021	19:46:27	0	0	4,971115	1,5495	289,1664	0,229	85,495	0	1016,74	6,9	8,9	8,8	1	1	1	1	1	1	1	1	1	0	1	-7,258633	274,27235	313,598108	0
15.01.2021	19:46:28	0	0	3,163437	1,5195	298,3572	0,228	85,495	0	1016,78	6,8	9	8,8	1	1	1	1	1	1	1	1	1	0	1	-12,825934	274,302488	308,171858	0
15.01.2021	19:46:29	0	0	4,180256	1,52625	293,6736	0,225	85,488	0	1016,82	6,8	8,9	8,8	1	1	1	1	1	1	1	1	1	0	1	-8,315715	274,221223	312,301849	0
15.01.2021	19:46:30	0	0	3,163437	1,485	288,1944	0,221	85,49	0	1016,86	6,9	8,9	8,8	1	1	1	1	1	1	1	1	1	0	1	-8,174771	274,297964	312,801846	0
15.01.2021	19:46:31	0	0	3,050457	1,54125	296,5104	0,229	85,492	0	1016,74	6,8	9	8,8	1	1	1	1	1	1	1	1	1	0	1	-6,8358	274,251281	313,922363	0
15.01.2021	19:46:32	0	0	3,050457	1,62975	296,3808	0,223	85,477	0	1016,78	6,8	8,9	8,8	1	1	1	1	1	1	1	1	1	0	1	-11,346018	274,156756	308,970154	0
15.01.2021	19:46:33	0	0	3,728336	1,79475	296,568	0,23	85,498	0	1016,7	6,9	8,9	8,8	1	1	1	1	1	1	1	1	1	0	1	-7,963354	274,152266	312,331836	0
15.01.2021	19:46:34	0	0	4,858135	1,97925	299,8008	0,227	85,506	0	1016,76	6,8	9	8,8	1	1	1	1	1	1	1	1	1	0	1	-10,711769	274,270844	310,137926	0
15.01.2021	19:46:35	0	0	2,937477	2,106	297,2484	0,228	85,495	0	1016,96	6,9	9	8,8	1	1	1	1	1	1	1	1	1	0	1	-9,302326	274,129833	310,888044	0
15.01.2021	19:46:36	0	0	4,293236	2,1555	284,7708	0,231	85,499	0	1016,9	6,9	9,1	8,8	1	1	1	1	1	1	1	1	1	0	1	-7,047216	274,14329	313,206028	0
15.01.2021	19:46:37	0	0	3,502376	2,16975	291,978	0,223	85,477	0	1016,74	6,9	9,1	8,8	1	1	1	1	1	1	1	1	1	0	1	-7,751938	274,140298	312,48733	0
15.01.2021	19:46:38	0	0	4,745155	2,28525	297,2844	0,227	85,497	0	1016,82	6,8	9	8,8	1	1	1	1	1	1	1	1	1	0	1	-13,601128	274,108919	306,491543	0
15.01.2021	19:46:39	0	0	4,632175	2,2395	293,6556	0,224	85,487	0	1016,68	6,9	8,9	8,8	1	1	1	1	1	1	1	1	1	0	1	-10,500352	274,173227	309,892804	0
15.01.2021	19:46:40	0	0	4,180256	2,0895	293,6268	0,224	85,487	0	1016,84	6,9	9	8,8	1	1	1	1	1	1	1	1	1	0	1	-13,530655	274,311538	307,509504	0
15.01.2021	19:46:41	0	0	3,502376	2,07	303,534	0,226	85,479	0	1016,76	6,8	8,9	8,8	1	1	1	1	1	1	1	1	1	0	1	-9,302326	274,173227	311,090831	0
15.01.2021	19:46:42	0	0	2,937477	2,02125	309,2652	0,224	85,476	0	1016,94	6,8	8,9	8,8	1	1	1	1	1	1	1	1	1	0	1	-8,174771	274,147777	312,099444	0
15.01.2021	19:46:43	0	0	2,485558	1,94775	308,0808	0,228	85,488	0	1016,8	7	8,9	8,8	1	1	1	1	1	1	1	1	1	0	1	-6,8358	274,291934	314,112594	0
15.01.2021	19:46:44	0	0	4,745155	1,98375	308,4948	0,226	85,482	0	1016,92	7	9	8,8	1	1	1	1	1	1	1	1	1	0	1	-5,919662	274,174725	314,480497	0
15.01.2021	19:46:45	0	0	2,937477	1,99275	296,8416	0,226	85,503	0	1016,94	7	8,9	8,8	1	1	1	1	1	1	1	1	1	0	1	-10,782241	274,293441	310,173207	0
15.01.2021	19:46:46	0	0	3,050457	1,9875	286,2216	0,222	85,492	0	1016,82	6,8	8,9	8,8	1	1	1	1	1	1	1	1	1	0	1	-7,329105	274,183716	313,113083	0
15.01.2021	19:46:47	0	0	2,598537	1,86225	306,4716	0,234	85,531	0	1017,14	6,8	9	8,8	1	1	1	1	1	1	1	1	1	0	1	-11,980268	274,119373	308,161236	0
15.01.2021	19:46:48	0	0	3,615356	1,92	303,5124	0,225	85,5	0	1016,94	6,8	9,1	8,8	1	1	1	1	1	1	1	1	1	0	1	-6,906272	274,192711	313,577969	0
15.01.2021	19:46:49	0	0	2,937477	2,055	307,17	0,231	85,493	0	1016,74	6,8	8,9	8,8	1	1	1	1	1	1	1	1	1	0	1	-7,399577	274,299472	313,584097	0
15.01.2021	19:46:50	0	0	5,310055	2,12325	302,8104	0,225	85,501	0	1016,78	6,9	8,9	8,8	1	1	1	1	1	1	1	1	1	0	1	-8,879493	274,104441	311,192259	0
15.01.2021	19:46:51	0	0	3,389397	2,1915	298,998	0,225	85,494	0	1016,84	6,8	8,9	8,8	1	1	1	1	1	1	1	1	1	0	1	-11,06413	274,167235	309,301023	0
15.01.2021	19:46:52	0	0	3,954296	2,22225	288,45	0,223	85,499	0	1016,84	6,9	8,9	8,8	1	1	1	1	1	1	1	1	1	0	1	-6,906272	274,284399	314,006857	0
15.01.2021	19:46:53	0	0	2,485558	2,2065	287,3592	0,224	85,479	0	1016,8	6,8	8,9	8,8	1	1	1	1	1	1	1	1	1	0	1	-7,258633	274,134318	312,952689	0
15.01.2021	19:46:54	0	0	5,197075	2,2785	290,79	0,226	85,495	0	1016,86	6,9	9	8,8	1	1	1	1	1	1	1	1	1	0	1	-6,694856	274,240755	314,014068	0
15.01.2021	19:46:55	0	0	4,745155	2,3745	285,1236	0,226	85,478	0	1016,72	6,9	8,9	8,8	1	1	1	1	1	1	1	1	1	0	1	-11,205074	274,291934	309,743319	0
15.01.2021	19:46:56	0	0	2,259598	2,50275	297,216	0,223	85,503	0	1016,86	6,8	8,9	8,8	1	1	1	1	1	1	1	1	1	0	1	-8,45666	274,165738	311,901494	0
15.01.2021	19:46:57	0	0	3,954296	2,5065	296,1108	0,225	85,496	0	1016,9	6,8	9	8,8	1	1	1	1	1	1	1	1	1	0	1	-7,188161	274,302488	313,809631	0
15.01.2021	19:46:58	0	0	3,050457	2,5065	299,7324	0,223	85,489	0	1016,7	6,8	8,9	8,8	1	1	1	1	1	1	1	1	1	0	1	-8,80902	274,239252	311,892871	0
15.01.2021	19:46:59	0	0	2,937477	2,39475	301,1652	0,219	85,478	0	1016,86	6,9	8,9	8,8	1	1	1	1	1	1	1	1	1	0	1	-11,698379	274,134318	308,512943	0
15.01.2021	19:47:00	0	0	2,711517	2,34525	303,1596	0,222	85,487	0	1016,82	6,8	8,9	8,8	1	1	1	1	1	1	1	1	1	0	1	-4,933051	274,176223	315,474111	0
15.01.2021	19:47:01	0	0	3,615356	2,4735	301,1904	0,221	85,489	0	1016,82	6,8	9	8,8	1	1	1	1	1	1	1	1	1	0	1	-14,023961	274,299472	306,959714	0
15.01.2021	19:47:02	0	0	4,067276	2,484	305,7372	0,223	85,495	0	1016,7	6,8	8,9	8,8	1	1	1	1	1	1	1	1	1	0	1	-6,906272	274,146281	313,360952	0
15.01.2021	19:47:03	0	0	2,259598	2,367	307,1844	0,221	85,487	0	1016,78	6,8	8,9	8,8	1	1	1	1	1	1	1	1	1	0	1	-10,641297	274,155259	309,667881	0
15.01.2021	19:47:04	0	0	4,180256	2,26875	300,4632	0,217	85,492	0	1016,7	6,9	8,9	8,8	1	1	1	1	1	1	1	1	1	0	1	-11,839323	274,27235	309,017417	0
15.01.2021	19:47:05	0	0	2,485558	2,1495	307,5444	0,222	85,503	0	1016,84	6,8	9	8,8	1	1	1	1	1	1	1	1	1	0	1	-8,949965	274,296456	312,019595	0
15.01.2021	19:47:06	0	0	2,937477	2,05875	303,8004	0,227	85,489	0	1016,74	6,8	8,9	8,8	1	1	1	1	1	1	1	1	1	0	1	-8,315715	274,189712	312,154505	0
15.01.2021	19:47:07	0	0	4,406216	1,95	304,2432	0,221	85,499	0	1016,84	6,8	8,9	8,8	1	1	1	1	1	1	1	1	1	0	1	-6,624383	274,122361	313,531079	0
15.01.2021	19:47:08	0	0	4,293236	1,98225	315,4356	0,224	85,501	0	1016,88	7	8,9	8,8	1	1	1	1	1	1	1	1	1	0	1	-12,544045	274,209212	308,017354	0
15.01.2021	19:47:09	0	0	2,711517	2,145	308,8512	0,224	85,508	0	1016,74	6,8	8,9	8,8	1	1	1	1	1	1	1	1	1	0	1	-12,825934	274,314556	308,228353	0
15.01.2021	19:47:10	0	0	4,519195	2,403	308,4876	0,221	85,501	0	1016,72	6,8	8,9	8,8	1	1	1	1	1	1	1	1	1	0	1	-10,711769	274,182217	309,723413	0
15.01.2021	19:47:11	0	0	4,406216	2,619	307,5588	0,221	85,504	0	1016,76	6,8	8,9	8,8	1	1	1	1	1	1	1	1	1	0	1	-5,84919	274,296456	315,120371	0
15.01.2021	19:47:12	0	0	4,858135	2,5545	303,3216	0,219	85,497	0	1016,88	6,8	8,9	8,8	1	1	1	1	1	1	1	1	1	0	1	-9,302326	274,254289	311,469912	0
15.01.2021	19:47:13	0	0	2,711517	2,54175	294,3504	0,224	85,493	0	1016,76	6,8	8,9	8,8	1	1	1	1	1	1	1	1	1	0	1	-12,403101	274,27988	308,488878	0
15.01.2021	19:47:14	0	0	3,050457	2,634	296,4492	0,225	85,502	0	1016,7	6,8	8,9	8,8	1	1	1	1	1	1	1	1	1	0	1	-7,540521	274,258803	313,252833	0
15.01.2021	19:47:15	0	0	3,841316	2,646	301,2228	0,226	85,505	0	1016,92	6,8	8,9	8,8	1	1	1	1	1	1	1	1	1	0	1	-8,668076	274,120867	311,480407	0
15.01.2021	19:47:16	0	0	3,276417	2,619	300,5352	0,218	85,488	0	1016,74	6,8	8,9	8,8	1	1	1	1	1	1	1	1	1	0	1	-9,372798	274,246769	311,364259	0
15.01.2021	19:47:17	0	0	2,598537	2,67375	301,1904	0,224	85,505	0	1016,74	6,8	9	8,8	1	1	1	1	1	1	1	1	1	0	1	-13,389711	274,297964	307,586906	0
15.01.2021	19:47:18	0	0	2,711517	2,50575	315,882	0,22	85,488	0	1016,82	6,9	9	8,8	1	1	1	1	1	1	1	1	1	0	1	-10,711769	274,227231	309,933894	0
15.01.2021	19:47:19	0	0	2,711517	2,421	314,532	0,221	85,482	0	1016,82	6,8	8,9	8,8	1	1	1	1	1	1	1	1	1	0	1	-6,694856	274,305504	314,317056	0
15.01.2021	19:47:20	0	0	3,841316	2,64975	303,4872	0,216	85,487	0	1016,56	6,8	9	8,8	1	1	1	1	1	1	1	1	1	0	1	-4,721635	274,219721	315,888906	0
15.01.2021	19:47:21	0	0	2,711517	2,9955	309,1968	0,216	85,512	0	1016,7	6,8	9	8,8	1	1	1	1	1	1	1	1	1	0	1	-9,090909	274,293441	311,864539	0
15.01.2021	19:47:22	0	0	2,711517	3,327	314,334	0,213	85,501	0	1016,76	6,8	8,9	8,8	1	1	1	1	1	1	1	1	1	0	1	-6,8358	274,192711	313,648441	0
15.01.2021	19:47:23	0	0	4,745155	3,4455	319,9608	0,215	85,515	0	1016,78	7	8,9	8,8	1	1	1	1	1	1	1	1	1	0	1	-9,161381	274,113399	310,952214	0
15.01.2021	19:47:24	0	0	3,389397	3,48075	309,2004	0,217	85,514	0	1016,66	6,8	9	8,8	1	1	1	1	1	1	1	1	1	0	1	-6,272023	274,246769	314,465034	0
15.01.2021	19:47:25	0	0	4,745155	3,438	308,4552	0,211	85,485	0	1016,9	6,9	9	8,8	1	1	1	1	1	1	1	1	1	0	1	-11,698379	274,31003	309,334717	0
15.01.2021	19:47:26	0	0	2,711517	3,3195	311,3676	0,217	85,509	0	1016,88	6,8	9	8,8	1	1	1	1	1	1	1	1	1	0	1	-9,513742	274,183716	310,928446	0
15.01.2021	19:47:27	0	0	2,485558	3,186	305,4312	0,216	85,503	0	1016,88	6,9	9	8,8	1	1	1	1	1	1	1	1	1	0	1	-6,8358	274,273855	314,027987	0
15.01.2021	19:47:28	0	0	3,163437	3,204	306,3744	0,217	85,511	0	1016,82	6,8	9	8,8	1	1	1	1	1	1	1	1	1	0	1	-6,131078	274,107427	313,954619	0
15.01.2021	19:47:29	0	0	4,632175	3,21825	293,6808	0,22	85,515	0	1016,88	6,8	9	8,8	1	1	1	1	1	1	1	1	1	0	1	-12,755462	274,209212	307,805937	0
15.01.2021	19:47:30	0	0	4,406216	3,04725	295,146	0,218	85,515	0	1016,82	6,8	8,9	8,8	1	1	1	1	1	1	1	1	1	0	1	-8,879493	274,107427	311,206204	0
15.01.2021	19:47:31	0	0	3,276417	2,97375	298,3788	0,221	85,501	0	1016,88	6,8	9	8,8	1	1	1	1	1	1	1	1	1	0	1	-8,668076	274,218219	311,935443	0
15.01.2021	19:47:32	0	0	3,163437	2,835	294,0516	0,216	85,511	0	1016,82	6,8	9	8,8	1	1	1	1	1	1	1	1	1	0	1	-10,147992	274,120867	310,000491	0
15.01.2021	19:47:33	0	0	2,711517	2,71275	303,0984	0,212	85,502	0	1016,84	6,8	9,1	8,8	1	1	1	1	1	1	1	1	1	0	1	-7,540521	274,155259	312,768656	0
15.01.2021	19:47:34	0	0	3,954296	2,6025	299,0052	0,217	85,512	0	1016,78	6,8	8,9	8,8	1	1	1	1	1	1	1	1	1	0	1	-9,020437	274,12535	311,148987	0
15.01.2021	19:47:35	0	0	2,937477	2,71875	302,4252	0,216	85,51	0	1016,76	6,8	8,9	8,8	1	1	1	1	1	1	1	1	1	0	1	-7,540521	274,260308	313,259873	0
15.01.2021	19:47:36	0	0	4,067276	2,7375	299,0376	0,217	85,507	0	1016,72	6,8	9,1	8,8	1	1	1	1	1	1	1	1	1	0	1	-10,147992	274,30098	310,842741	0
15.01.2021	19:47:37	0	0	3,954296	2,6745	303,4188	0,215	85,504	0	1016,7	6,8	9	8,8	1	1	1	1	1	1	1	1	1	0	1	-14,164905	274,147777	306,10931	0
15.01.2021	19:47:38	0	0	3,728336	2,577	307,5876	0,216	85,504	0	1016,76	6,8	8,9	8,8	1	1	1	1	1	1	1	1	1	0	1	-8,245243	274,258803	312,548111	0
15.01.2021	19:47:39	0	0	3,841316	2,46975	314,442	0,216	85,509	0	1016,92	6,8	8,9	8,8	1	1	1	1	1	1	1	1	1	0	1	-8,738548	274,291934	312,209845	0
15.01.2021	19:47:40	0	0	4,632175	2,454	319,0428	0,218	85,509	0	1016,74	6,8	9	8,8	1	1	1	1	1	1	1	1	1	0	1	-10,570825	274,182217	309,864357	0
15.01.2021	19:47:41	0	0	2,824497	2,52675	313,1928	0,218	85,531	0	1016,78	6,8	8,9	8,8	1	1	1	1	1	1	1	1	1	0	1	-9,302326	274,294949	311,660178	0
15.01.2021	19:47:42	0	0	3,954296	2,568	318,8016	0,216	85,526	0	1016,8	7	9	8,8	1	1	1	1	1	1	1	1	1	0	1	-9,513742	274,237749	311,181119	0
15.01.2021	19:47:43	0	0	4,858135	2,535	307,6524	0,211	85,501	0	1016,9	6,9	9,1	8,8	1	1	1	1	1	1	1	1	1	0	1	-9,936575	274,296456	311,032985	0
15.01.2021	19:47:44	0	0	3,615356	2,45925	304,6284	0,218	85,52	0	1016,7	6,8	8,9	8,8	1	1	1	1	1	1	1	1	1	0	1	-9,090909	274,158252	311,232259	0
15.01.2021	19:47:45	0	0	3,615356	2,35125	310,986	0,213	85,511	0	1016,6	6,8	9	8,8	1	1	1	1	1	1	1	1	1	0	1	-10,500352	274,251281	310,257811	0
15.01.2021	19:47:46	0	0	3,050457	2,397	309,5064	0,209	85,517	0	1016,74	6,8	9	8,8	1	1	1	1	1	1	1	1	1	0	1	-7,892882	274,114893	312,227689	0
15.01.2021	19:47:47	0	0	2,937477	2,28375	303,1452	0,208	85,523	0	1016,86	6,8	9	8,8	1	1	1	1	1	1	1	1	1	0	1	-11,557435	274,159749	308,772729	0
15.01.2021	19:47:48	0	0	3,841316	2,30925	310,9716	0,218	85,527	0	1016,74	6,8	9	8,8	1	1	1	1	1	1	1	1	1	0	1	-5,84919	274,267833	314,986416	0
15.01.2021	19:47:49	0	0	4,632175	2,1375	314,1936	0,218	85,516	0	1016,72	6,8	9	8,8	1	1	1	1	1	1	1	1	1	0	1	-10,359408	274,269338	310,483242	0
15.01.2021	19:47:50	0	0	4,519195	1,9065	317,7144	0,219	85,521	0	1016,82	6,8	9,1	8,8	1	1	1	1	1	1	1	1	1	0	1	-10,711769	274,254289	310,060469	0
15.01.2021	19:47:51	0	0	4,858135	1,7595	328,158	0,217	85,528	0	1016,88	6,8	8,9	8,8	1	1	1	1	1	1	1	1	1	0	1	-6,412967	274,285906	314,507214	0
15.01.2021	19:47:52	0	0	4,745155	1,725	326,7288	0,219	85,516	0	1016,76	6,8	9	8,8	1	1	1	1	1	1	1	1	1	0	1	-10,641297	274,251281	310,116866	0
15.01.2021	19:47:53	0	0	3,615356	1,75125	327,114	0,216	85,516	0	1016,86	7	9	8,8	1	1	1	1	1	1	1	1	1	0	1	-11,627907	274,281386	309,271121	0
15.01.2021	19:47:54	0	0	4,971115	1,72725	313,56	0,213	85,519	0	1016,82	6,9	9	8,8	1	1	1	1	1	1	1	1	1	0	1	-9,020437	274,164241	311,330718	0
15.01.2021	19:47:55	0	0	4,180256	1,734	324,2772	0,211	85,517	0	1016,84	6,8	8,9	8,8	1	1	1	1	1	1	1	1	1	0	1	-11,06413	274,290427	309,87721	0
15.01.2021	19:47:56	0	0	2,598537	1,68825	315,522	0,22	85,533	0	1016,8	6,8	9	8,8	1	1	1	1	1	1	1	1	1	0	1	-12,121212	274,168733	308,250941	0
15.01.2021	19:47:57	0	0	3,841316	1,6575	310,3056	0,215	85,52	0	1016,8	6,8	8,9	8,8	1	1	1	1	1	1	1	1	1	0	1	-8,668076	274,107427	311,417621	0
15.01.2021	19:47:58	0	0	4,858135	1,58775	306,1404	0,219	85,529	0	1016,82	6,8	9,1	8,8	1	1	1	1	1	1	1	1	1	0	1	-9,936575	274,257298	310,84974	0
15.01.2021	19:47:59	0	0	2,485558	1,7595	302,4684	0,214	85,513	0	1016,98	6,8	9	8,8	1	1	1	1	1	1	1	1	1	0	1	-6,976744	274,297964	313,999873	0
15.01.2021	19:48:00	0	0	3,163437	1,9065	306,4896	0,219	85,526	0	1016,9	6,8	9	8,8	1	1	1	1	1	1	1	1	1	0	1	-5,496829	274,249777	315,254298	0
15.01.2021	19:48:01	0	0	3,728336	1,887	323,3592	0,21	85,524	0	1016,92	6,8	8,9	8,8	1	1	1	1	1	1	1	1	1	0	1	-10,288936	274,297964	310,687681	0
15.01.2021	19:48:02	0	0	4,971115	1,8405	309,8736	0,213	85,534	0	1016,88	7	9	8,8	1	1	1	1	1	1	1	1	1	0	1	-10,42988	274,17922	309,99129	0
15.01.2021	19:48:03	0	0	4,519195	1,848	312,0696	0,213	85,533	0	1016,86	6,8	8,9	8,8	1	1	1	1	1	1	1	1	1	0	1	-7,681466	274,116386	312,446083	0
15.01.2021	19:48:04	0	0	5,310055	1,76025	301,122	0,217	85,549	0	1016,98	6,8	8,9	8,8	1	1	1	1	1	1	1	1	1	0	1	-7,117689	274,168733	313,254464	0
15.01.2021	19:48:05	0	0	2,824497	1,60125	298,3608	0,222	85,533	0	1016,84	6,8	9	8,8	1	1	1	1	1	1	1	1	1	0	1	-7,258633	274,155259	313,050545	0
15.01.2021	19:48:06	0	0	2,937477	1,5105	308,8044	0,214	85,552	0	1016,92	6,8	9	8,8	1	1	1	1	1	1	1	1	1	0	1	-14,094433	274,31003	306,938664	0
15.01.2021	19:48:07	0	0	5,197075	1,428	308,4768	0,213	85,536	0	1016,78	6,8	8,9	8,8	1	1	1	1	1	1	1	1	1	0	1	-9,936575	274,290427	311,004764	0
15.01.2021	19:48:08	0	0	3,276417	1,39725	312,21	0,212	85,528	0	1016,72	6,8	9	8,8	1	1	1	1	1	1	1	1	1	0	1	-7,610994	274,158252	312,712174	0
15.01.2021	19:48:09	0	0	2,598537	1,45125	313,236	0,211	85,539	0	1016,78	6,8	9	8,8	1	1	1	1	1	1	1	1	1	0	1	-11,06413	274,126844	309,112275	0
15.01.2021	19:48:10	0	0	2,824497	1,458	300,8304	0,219	85,55	0	1016,88	6,8	8,9	8,8	1	1	1	1	1	1	1	1	1	0	1	-9,936575	274,285906	310,983606	0
15.01.2021	19:48:11	0	0	3,050457	1,4655	309,9168	0,214	85,553	0	1016,82	6,8	8,9	8,8	1	1	1	1	1	1	1	1	1	0	1	-9,725159	274,27235	311,131582	0
15.01.2021	19:48:12	0	0	4,067276	1,497	319,9824	0,217	85,568	0	1016,72	6,8	9	8,8	1	1	1	1	1	1	1	1	1	0	1	-7,258633	274,189712	313,211588	0
15.01.2021	19:48:13	0	0	2,824497	1,641	320,7348	0,214	85,552	0	1016,72	6,9	8,9	8,8	1	1	1	1	1	1	1	1	1	0	1	-14,305849	274,281386	306,593179	0
15.01.2021	19:48:14	0	0	4,745155	1,758	294,408	0,216	85,56	0	1016,86	7	9	8,8	1	1	1	1	1	1	1	1	1	0	1	-5,003524	274,173227	315,389633	0
15.01.2021	19:48:15	0	0	2,711517	1,71	314,5428	0,211	85,553	0	1016,8	6,8	9	8,8	1	1	1	1	1	1	1	1	1	0	1	-7,751938	274,296456	313,217622	0
15.01.2021	19:48:16	0	0	3,050457	1,6215	290,7828	0,211	85,552	0	1016,78	6,8	9	8,8	1	1	1	1	1	1	1	1	1	0	1	-15,715292	274,168733	304,656861	0
15.01.2021	19:48:17	0	0	3,615356	1,53975	290,8008	0,212	85,558	0	1016,9	6,8	9	8,8	1	1	1	1	1	1	1	1	1	0	1	-12,403101	274,173227	307,990056	0
15.01.2021	19:48:18	0	0	3,276417	1,491	286,7076	0,215	85,561	0	1016,98	6,8	9	8,8	1	1	1	1	1	1	1	1	1	0	1	-12,896406	274,278374	307,988523	0
15.01.2021	19:48:19	0	0	3,954296	1,43475	286,0092	0,217	85,561	0	1016,86	6,8	9	8,8	1	1	1	1	1	1	1	1	1	0	1	-5,496829	274,114893	314,623743	0
15.01.2021	19:48:20	0	0	4,632175	1,40625	288,1044	0,208	85,558	0	1016,88	6,8	9	8,8	1	1	1	1	1	1	1	1	1	0	1	-9,725159	274,242259	310,990797	0
15.01.2021	19:48:21	0	0	3,615356	1,3575	284,0076	0,215	85,569	0	1016,8	6,8	9	8,8	1	1	1	1	1	1	1	1	1	0	1	-5,919662	274,12535	314,249762	0
15.01.2021	19:48:22	0	0	5,310055	1,3005	287,7444	0,216	85,563	0	1016,82	6,8	9	8,8	1	1	1	1	1	1	1	1	1	0	1	-6,553911	274,236246	314,133919	0
15.01.2021	19:48:23	0	0	2,711517	1,28925	295,5888	0,216	85,578	0	1016,78	6,8	9	8,8	1	1	1	1	1	1	1	1	1	0	1	-10,570825	274,120867	309,577658	0
15.01.2021	19:48:24	0	0	4,632175	1,353	291,5352	0,218	85,56	0	1016,86	7	9	8,8	1	1	1	1	1	1	1	1	1	0	1	-8,879493	274,23324	311,794279	0
15.01.2021	19:48:25	0	0	2,598537	1,58175	295,992	0,213	85,576	0	1016,88	6,8	9	8,8	1	1	1	1	1	1	1	1	1	0	1	-8,45666	274,282893	312,449418	0
15.01.2021	19:48:26	0	0	4,519195	1,74675	297,288	0,207	85,57	0	1016,78	7	9	8,8	1	1	1	1	1	1	1	1	1	0	1	-13,883016	274,240755	306,825907	0
15.01.2021	19:48:27	0	0	2,824497	1,7385	293,3748	0,214	85,569	0	1016,7	6,8	9	8,8	1	1	1	1	1	1	1	1	1	0	1	-9,302326	274,114893	310,818246	0
15.01.2021	19:48:28	0	0	4,293236	1,77675	296,4672	0,212	85,574	0	1016,84	6,8	9,1	8,8	1	1	1	1	1	1	1	1	1	0	1	-11,627907	274,252785	309,137293	0
15.01.2021	19:48:29	0	0	2,824497	1,82475	310,6296	0,213	85,583	0	1016,74	6,8	9	8,8	1	1	1	1	1	1	1	1	1	0	1	-7,470049	274,119373	312,671455	0
15.01.2021	19:48:30	0	0	2,711517	1,92825	288,8928	0,214	85,563	0	1016,78	6,8	9	8,8	1	1	1	1	1	1	1	1	1	0	1	-4,298802	274,255794	316,480474	0
15.01.2021	19:48:31	0	0	3,954296	2,03925	297,2268	0,217	85,578	0	1016,76	6,8	9	8,8	1	1	1	1	1	1	1	1	1	0	1	-12,684989	274,185214	307,764206	0
15.01.2021	19:48:32	0	0	2,711517	2,151	293,4396	0,217	85,566	0	1016,64	6,9	8,9	8,8	1	1	1	1	1	1	1	1	1	0	1	-8,527132	274,132823	311,677206	0
15.01.2021	19:48:33	0	0	4,519195	2,12325	298,4256	0,216	85,592	0	1017	6,8	9	8,8	1	1	1	1	1	1	1	1	1	0	1	-9,513742	274,120867	310,634741	0
15.01.2021	19:48:34	0	0	3,276417	2,025	282,1212	0,211	85,567	0	1016,72	6,8	9	8,8	1	1	1	1	1	1	1	1	1	0	1	-12,191684	274,216718	308,404813	0
15.01.2021	19:48:35	0	0	4,519195	2,01	285,4836	0,216	85,563	0	1016,64	7	8,9	8,8	1	1	1	1	1	1	1	1	1	0	1	-8,245243	274,27235	312,611497	0
15.01.2021	19:48:36	0	0	4,406216	2,1105	280,6308	0,216	85,571	0	1016,76	6,8	8,9	8,8	1	1	1	1	1	1	1	1	1	0	1	-9,795631	274,20321	310,737701	0
15.01.2021	19:48:37	0	0	4,067276	2,09325	290,0088	0,222	85,582	0	1016,78	6,8	8,9	8,8	1	1	1	1	1	1	1	1	1	0	1	-8,949965	274,297964	312,026652	0
15.01.2021	19:48:38	0	0	3,728336	1,99275	289,098	0,211	85,588	0	1016,82	6,8	9	8,8	1	1	1	1	1	1	1	1	1	0	1	-8,80902	274,192711	311,67522	0
15.01.2021	19:48:39	0	0	3,954296	2,00325	293,6772	0,217	85,581	0	1016,8	7	9	8,8	1	1	1	1	1	1	1	1	1	0	1	-3,24172	274,128339	316,941668	0
15.01.2021	19:48:40	0	0	2,598537	1,87425	280,962	0,217	85,591	0	1017	6,8	9,1	8,8	1	1	1	1	1	1	1	1	1	0	1	-9,654686	274,147777	310,619528	0
15.01.2021	19:48:41	0	0	3,050457	1,69275	279,8712	0,213	85,569	0	1016,74	7	9	8,8	1	1	1	1	1	1	1	1	1	0	1	-9,654686	274,186713	310,801516	0
15.01.2021	19:48:42	0	0	4,067276	1,62825	278,7948	0,212	85,567	0	1016,8	6,8	9	8,8	1	1	1	1	1	1	1	1	1	0	1	-10,782241	274,12535	309,387182	0
15.01.2021	19:48:43	0	0	4,293236	1,5945	277,0812	0,212	85,59	0	1016,8	6,8	9	8,8	1	1	1	1	1	1	1	1	1	0	1	-6,624383	274,19571	313,87388	0
15.01.2021	19:48:44	0	0	3,728336	1,53975	283,9752	0,211	85,598	0	1016,88	6,8	9	8,8	1	1	1	1	1	1	1	1	1	0	1	-5,496829	274,12535	314,672595	0
15.01.2021	19:48:45	0	0	2,372578	1,512	275,7312	0,211	85,579	0	1016,7	6,8	9	8,8	1	1	1	1	1	1	1	1	1	0	1	-7,751938	274,180718	312,676238	0
15.01.2021	19:48:46	0	0	2,711534	1,48575	267,696	0,206	85,586	0	1016,78	6,8	9	8,7	1	1	1	1	1	1	1	1	1	0	1	-12,614517	274,30098	308,376216	0
15.01.2021	19:48:47	0	0	4,858135	1,4325	285,192	0,206	85,586	0	1016,66	6,9	8,9	8,8	1	1	1	1	1	1	1	1	1	0	1	-8,597604	274,126844	311,578801	0
15.01.2021	19:48:48	0	0	3,389397	1,3905	280,638	0,215	85,595	0	1016,58	7	9	8,8	1	1	1	1	1	1	1	1	1	0	1	-7,188161	274,240755	313,520763	0
15.01.2021	19:48:49	0	0	4,406216	1,32225	278,4492	0,215	85,599	0	1016,86	6,8	9	8,8	1	1	1	1	1	1	1	1	1	0	1	-12,121212	274,284399	308,791917	0
15.01.2021	19:48:50	0	0	5,197075	1,275	288,126	0,208	85,594	0	1016,76	6,8	9,1	8,8	1	1	1	1	1	1	1	1	1	0	1	-8,315715	274,174725	312,084444	0
15.01.2021	19:48:51	0	0	4,858135	1,26075	291,1464	0,213	85,587	0	1016,76	6,8	9	8,8	1	1	1	1	1	1	1	1	1	0	1	-6,906272	274,291934	314,042121	0
15.01.2021	19:48:52	0	0	3,841316	1,29525	277,1784	0,216	85,604	0	1016,72	6,8	9	8,8	1	1	1	1	1	1	1	1	1	0	1	-11,275546	274,20321	309,257786	0
15.01.2021	19:48:53	0	0	4,858135	1,347	278,7768	0,207	85,603	0	1016,7	6,8	9	8,8	1	1	1	1	1	1	1	1	1	0	1	-7,047216	274,116386	313,080332	0
15.01.2021	19:48:54	0	0	4,858135	1,3065	284,382	0,213	85,608	0	1016,76	7	9	8,8	1	1	1	1	1	1	1	1	1	0	1	-9,231853	274,245266	311,498169	0
15.01.2021	19:48:55	0	0	3,502376	1,356	264,6036	0,216	85,6	0	1016,88	6,8	9	8,8	1	1	1	1	1	1	1	1	1	0	1	-9,584214	274,251281	311,173949	0
15.01.2021	19:48:56	0	0	4,858135	1,377	269,1324	0,218	85,61	0	1016,8	6,8	9	8,8	1	1	1	1	1	1	1	1	1	0	1	-9,936575	274,278374	310,948354	0
15.01.2021	19:48:57	0	0	3,954296	1,395	278,0892	0,218	85,602	0	1016,74	6,8	9	8,8	1	1	1	1	1	1	1	1	1	0	1	-5,637773	274,146281	314,629451	0
15.01.2021	19:48:58	0	0	4,519195	1,38675	293,4072	0,215	85,609	0	1016,98	6,8	9	8,8	1	1	1	1	1	1	1	1	1	0	1	-9,725159	274,114893	310,395413	0
15.01.2021	19:48:59	0	0	2,372578	1,38975	296,4636	0,209	85,596	0	1016,82	6,8	9	8,8	1	1	1	1	1	1	1	1	1	0	1	-10,500352	274,168733	309,871801	0
15.01.2021	19:49:00	0	0	2,824497	1,45725	278,0856	0,211	85,616	0	1016,68	6,8	9	8,8	1	1	1	1	1	1	1	1	1	0	1	-9,090909	274,108919	311,001761	0
15.01.2021	19:49:01	0	0	4,180256	1,485	303,8076	0,21	85,6	0	1016,82	6,8	9	8,8	1	1	1	1	1	1	1	1	1	0	1	-11,134602	274,257298	309,651713	0
15.01.2021	19:49:02	0	0	3,954296	1,54425	297,8964	0,215	85,615	0	1016,74	6,8	8,9	8,8	1	1	1	1	1	1	1	1	1	0	1	-5,567301	274,105934	314,511423	0
15.01.2021	19:49:03	0	0	3,954296	1,61175	294,3936	0,214	85,615	0	1016,86	6,8	9	8,8	1	1	1	1	1	1	1	1	1	0	1	-5,285412	274,167235	315,079741	0
15.01.2021	19:49:04	0	0	2,485558	1,61625	273,6468	0,211	85,612	0	1016,74	6,8	9	8,8	1	1	1	1	1	1	1	1	1	0	1	-9,654686	274,287413	311,272546	0
15.01.2021	19:49:05	0	0	3,841316	1,6515	284,4288	0,21	85,607	0	1016,74	6,8	9	8,8	1	1	1	1	1	1	1	1	1	0	1	-7,751938	274,213715	312,830518	0
15.01.2021	19:49:06	0	0	2,598537	1,6905	289,1592	0,217	85,632	0	1016,9	6,8	9	8,8	1	1	1	1	1	1	1	1	1	0	1	-10,007047	274,293441	310,948401	0
15.01.2021	19:49:07	0	0	4,971115	1,72725	297,486	0,212	85,606	0	1016,74	6,8	9	8,8	1	1	1	1	1	1	1	1	1	0	1	-9,654686	274,168733	310,717467	0
15.01.2021	19:49:08	0	0	3,276417	1,7145	288,7596	0,217	85,623	0	1016,78	6,8	9	8,8	1	1	1	1	1	1	1	1	1	0	1	-10,359408	274,293441	310,59604	0
15.01.2021	19:49:09	0	0	4,745155	1,70925	297,4824	0,215	85,615	0	1016,76	6,8	9	8,8	1	1	1	1	1	1	1	1	1	0	1	-8,668076	274,161246	311,669084	0
15.01.2021	19:49:10	0	0	3,276417	1,7655	302,8104	0,214	85,617	0	1016,72	6,8	8,9	8,8	1	1	1	1	1	1	1	1	1	0	1	-10,570825	274,129833	309,619545	0
15.01.2021	19:49:11	0	0	3,276417	1,8315	297,1872	0,215	85,623	0	1016,82	6,8	9	8,8	1	1	1	1	1	1	1	1	1	0	1	-8,104299	274,159749	312,225865	0
15.01.2021	19:49:12	0	0	3,728336	1,827	299,6784	0,213	85,625	0	1016,68	6,8	8,9	8,8	1	1	1	1	1	1	1	1	1	0	1	-14,799154	274,290427	306,142185	0
15.01.2021	19:49:13	0	0	2,824497	1,776	302,8104	0,212	85,619	0	1016,86	6,8	9	8,8	1	1	1	1	1	1	1	1	1	0	1	-8,386187	274,260308	312,414207	0
15.01.2021	19:49:14	0	0	3,954296	1,71	300,4452	0,212	85,607	0	1016,9	6,8	9	8,8	1	1	1	1	1	1	1	1	1	0	1	-10,711769	274,144785	309,548465	0
15.01.2021	19:49:15	0	0	3,276417	1,6275	299,4228	0,214	85,634	0	1016,84	6,8	9	8,8	1	1	1	1	1	1	1	1	1	0	1	-8,104299	274,114893	312,016273	0
15.01.2021	19:49:16	0	0	4,293236	1,57575	291,4488	0,214	85,617	0	1016,68	6,8	9	8,8	1	1	1	1	1	1	1	1	1	0	1	-8,315715	274,236246	312,372115	0
15.01.2021	19:49:17	0	0	4,519195	1,6395	295,5708	0,212	85,616	0	1016,76	6,8	9	8,8	1	1	1	1	1	1	1	1	1	0	1	-11,06413	274,287413	309,863103	0
15.01.2021	19:49:18	0	0	4,745155	1,8375	292,6692	0,213	85,612	0	1016,7	6,8	9	8,8	1	1	1	1	1	1	1	1	1	0	1	-11,839323	274,180718	308,588852	0
15.01.2021	19:49:19	0	0	3,502376	1,92675	315,9288	0,211	85,632	0	1016,76	6,8	9	8,8	1	1	1	1	1	1	1	1	1	0	1	-10,288936	274,120867	309,859547	0
15.01.2021	19:49:20	0	0	3,050457	1,9155	294,7428	0,212	85,63	0	1016,7	6,8	8,9	8,8	1	1	1	1	1	1	1	1	1	0	1	-8,668076	274,210713	311,900341	0
15.01.2021	19:49:21	0	0	3,502376	1,87425	297,2268	0,208	85,627	0	1016,88	6,8	9	8,8	1	1	1	1	1	1	1	1	1	0	1	-9,161381	274,12535	311,008042	0
15.01.2021	19:49:22	0	0	2,711517	2,0265	280,6704	0,213	85,628	0	1016,78	6,8	9	8,8	1	1	1	1	1	1	1	1	1	0	1	-6,906272	274,252785	313,858928	0
15.01.2021	19:49:23	0	0	3,163437	2,20875	288,1836	0,213	85,667	0	1016,56	6,8	9	8,8	1	1	1	1	1	1	1	1	1	0	1	-5,21494	274,095487	314,814991	0
15.01.2021	19:49:24	0	0	3,615356	2,23125	283,1904	0,216	85,604	0	1017,02	6,8	9	8,8	1	1	1	1	1	1	1	1	1	0	1	-10,641297	274,141794	309,604959	0
15.01.2021	19:49:25	0	0	4,406216	2,33775	284,3964	0,208	85,617	0	1016,74	6,8	9	8,8	1	1	1	1	1	1	1	1	1	0	1	-9,090909	274,099963	310,959929	0
15.01.2021	19:49:26	0	0	4,293236	2,36025	279,8208	0,218	85,619	0	1016,64	6,8	9	8,8	1	1	1	1	1	1	1	1	1	0	1	-7,117689	274,227231	313,527974	0
15.01.2021	19:49:27	0	0	2,485558	2,3595	279,6048	0,211	85,627	0	1016,84	6,8	9	8,8	1	1	1	1	1	1	1	1	1	0	1	-10,359408	274,105934	309,719316	0
15.01.2021	19:49:28	0	0	4,293236	2,39175	277,5816	0,215	85,629	0	1016,7	6,8	9	8,8	1	1	1	1	1	1	1	1	1	0	1	-11,698379	274,183716	308,743809	0
15.01.2021	19:49:29	0	0	4,971115	2,29725	279,5436	0,206	85,624	0	1016,82	6,8	9	8,8	1	1	1	1	1	1	1	1	1	0	1	-10,218464	274,311538	310,821696	0
15.01.2021	19:49:30	0	0	3,615356	2,20575	278,0352	0,209	85,627	0	1016,88	6,8	9	8,8	1	1	1	1	1	1	1	1	1	0	1	-13,107822	274,177721	307,306344	0
15.01.2021	19:49:31	0	0	3,050457	2,112	279,5364	0,213	85,612	0	1016,94	6,8	9	8,8	1	1	1	1	1	1	1	1	1	0	1	-6,624383	274,107427	313,461313	0
15.01.2021	19:49:32	0	0	3,841316	2,05125	283,5684	0,216	85,631	0	1016,88	6,8	9	8,8	1	1	1	1	1	1	1	1	1	0	1	-8,245243	274,212214	312,330193	0
15.01.2021	19:49:33	0	0	2,937477	2,07	288,1368	0,214	85,63	0	1016,9	6,8	9	8,8	1	1	1	1	1	1	1	1	1	0	1	-9,513742	274,114893	310,606829	0
15.01.2021	19:49:34	0	0	3,050457	2,085	299,0808	0,214	85,609	0	1016,68	6,8	9	8,8	1	1	1	1	1	1	1	1	1	0	1	-8,033827	274,149273	312,247379	0
15.01.2021	19:49:35	0	0	4,406216	2,26275	281,7036	0,213	85,625	0	1016,82	6,8	9	8,8	1	1	1	1	1	1	1	1	1	0	1	-8,949965	274,273855	311,913822	0
15.01.2021	19:49:36	0	0	5,310055	2,36775	308,844	0,215	85,615	0	1016,94	6,8	9	8,8	1	1	1	1	1	1	1	1	1	0	1	-11,06413	274,167235	309,301023	0
15.01.2021	19:49:37	0	0	4,180256	2,364	297,5508	0,208	85,626	0	1016,8	6,8	9	8,8	1	1	1	1	1	1	1	1	1	0	1	-8,668076	274,28892	312,26621	0
15.01.2021	19:49:38	0	0	3,954296	2,2755	283,158	0,214	85,63	0	1016,76	6,8	9	8,8	1	1	1	1	1	1	1	1	1	0	1	-10,993658	274,207712	309,560724	0
15.01.2021	19:49:39	0	0	4,406216	2,22225	281,3616	0,212	85,639	0	1016,82	6,8	9	8,8	1	1	1	1	1	1	1	1	1	0	1	-9,44327	274,110413	310,656375	0
15.01.2021	19:49:40	0	0	2,711517	2,07225	300,1356	0,21	85,63	0	1016,98	6,8	9	8,8	1	1	1	1	1	1	1	1	1	0	1	-12,332629	274,215217	308,256848	0
15.01.2021	19:49:41	0	0	5,084095	2,07975	299,7792	0,211	85,646	0	1017	6,8	9	8,8	1	1	1	1	1	1	1	1	1	0	1	-12,332629	274,290427	308,608711	0
15.01.2021	19:49:42	0	0	4,519195	2,08275	300,24	0,212	85,637	0	1016,8	6,8	9	8,8	1	1	1	1	1	1	1	1	1	0	1	-10,359408	274,23324	310,314364	0
15.01.2021	19:49:43	0	0	3,050457	2,0565	300,1572	0,213	85,64	0	1016,68	6,8	9	8,8	1	1	1	1	1	1	1	1	1	0	1	-10,007047	274,260308	310,793347	0
15.01.2021	19:49:44	0	0	4,293236	2,06175	299,7216	0,206	85,624	0	1016,66	6,8	9	8,8	1	1	1	1	1	1	1	1	1	0	1	-9,725159	274,107427	310,360538	0
15.01.2021	19:49:45	0	0	4,519195	2,06325	303,5232	0,21	85,647	0	1016,8	6,8	9	8,8	1	1	1	1	1	1	1	1	1	0	1	-3,171247	274,147777	317,102967	0
15.01.2021	19:49:46	0	0	2,937477	2,07	312,9264	0,207	85,631	0	1016,68	6,8	9	8,8	1	1	1	1	1	1	1	1	1	0	1	-8,668076	274,132823	311,536261	0
15.01.2021	19:49:47	0	0	2,598553	2,0355	306,198	0,214	85,636	0	1016,88	6,8	9	8,7	1	1	1	1	1	1	1	1	1	0	1	-7,610994	274,240755	313,09793	0
15.01.2021	19:49:48	0	0	3,389417	2,0055	311,4864	0,208	85,645	0	1016,82	6,8	9	8,7	1	1	1	1	1	1	1	1	1	0	1	-7,892882	274,278374	312,992047	0
15.01.2021	19:49:49	0	0	2,598537	1,98525	302,8968	0,208	85,628	0	1016,78	6,8	9	8,8	1	1	1	1	1	1	1	1	1	0	1	-9,302326	274,176223	311,104837	0
15.01.2021	19:49:50	0	0	2,372578	1,917	303,2136	0,212	85,632	0	1016,84	6,8	9	8,8	1	1	1	1	1	1	1	1	1	0	1	-13,742072	274,120867	306,406411	0
15.01.2021	19:49:51	0	0	3,163437	1,7895	303,4836	0,212	85,649	0	1016,9	6,8	9	8,8	1	1	1	1	1	1	1	1	1	0	1	-9,795631	274,156756	310,520542	0
15.01.2021	19:49:52	0	0	4,067276	1,809	303,8868	0,201	85,642	0	1016,76	6,8	9	8,8	1	1	1	1	1	1	1	1	1	0	1	-8,668076	274,275361	312,202758	0
15.01.2021	19:49:53	0	0	3,502376	1,8765	291,5064	0,208	85,622	0	1016,74	6,8	9	8,8	1	1	1	1	1	1	1	1	1	0	1	-10,641297	274,165738	309,716857	0
15.01.2021	19:49:54	0	0	3,502376	1,86075	302,0652	0,212	85,638	0	1016,92	6,8	9	8,8	1	1	1	1	1	1	1	1	1	0	1	-9,161381	274,281386	311,737647	0
15.01.2021	19:49:55	0	0	4,632175	1,86	286,9776	0,211	85,645	0	1016,9	6,8	9	8,8	1	1	1	1	1	1	1	1	1	0	1	-7,117689	274,212214	313,457748	0
15.01.2021	19:49:56	0	0	2,937477	1,8705	288,45	0,211	85,636	0	1016,98	6,8	8,9	8,8	1	1	1	1	1	1	1	1	1	0	1	-8,245243	274,281386	312,653785	0
15.01.2021	19:49:57	0	0	3,615356	1,863	284,814	0,207	85,628	0	1016,76	6,8	9	8,8	1	1	1	1	1	1	1	1	1	0	1	-9,725159	274,192711	310,759082	0
15.01.2021	19:49:58	0	0	4,632203	1,81425	273,2544	0,21	85,641	0	1016,84	6,8	9	8,7	1	1	1	1	1	1	1	1	1	0	1	-14,869626	274,284399	306,043502	0
15.01.2021	19:49:59	0	0	3,502376	1,70325	281,412	0,209	85,627	0	1016,88	6,8	9	8,8	1	1	1	1	1	1	1	1	1	0	1	-8,245243	274,131328	311,95211	0
15.01.2021	19:50:00	0	0	3,615356	1,698	298,728	0,209	85,641	0	1016,82	6,8	9	8,8	1	1	1	1	1	1	1	1	1	0	1	-5,21494	274,285906	315,70524	0
15.01.2021	19:50:01	0	0	4,180256	1,7415	304,7076	0,213	85,639	0	1016,94	6,8	8,9	8,8	1	1	1	1	1	1	1	1	1	0	1	-10,007047	274,240755	310,701876	0
15.01.2021	19:50:02	0	0	3,841316	1,73625	306,1116	0,208	85,647	0	1016,88	6,8	9	8,8	1	1	1	1	1	1	1	1	1	0	1	-9,795631	274,101456	310,262178	0
15.01.2021	19:50:03	0	0	3,502376	1,7415	296,1	0,209	85,639	0	1016,86	6,8	9	8,8	1	1	1	1	1	1	1	1	1	0	1	-9,090909	274,176223	311,316253	0
15.01.2021	19:50:04	0	0	4,067276	1,78125	312,462	0,208	85,652	0	1016,8	6,8	9	8,8	1	1	1	1	1	1	1	1	1	0	1	-6,8358	274,227231	313,809863	0
15.01.2021	19:50:05	0	0	4,632175	1,79175	306,7776	0,212	85,633	0	1016,92	6,8	9	8,8	1	1	1	1	1	1	1	1	1	0	1	-11,275546	274,282893	309,630532	0
15.01.2021	19:50:06	0	0	4,745155	2,022	300,8772	0,213	85,647	0	1016,78	6,8	9	8,8	1	1	1	1	1	1	1	1	1	0	1	-7,258633	274,224226	313,372979	0
15.01.2021	19:50:07	0	0	4,632175	2,217	305,4096	0,204	85,637	0	1016,84	6,8	9	8,8	1	1	1	1	1	1	1	1	1	0	1	-4,369274	274,261812	316,438161	0
15.01.2021	19:50:08	0	0	4,293236	2,4225	299,8476	0,211	85,642	0	1016,84	6,8	9	8,8	1	1	1	1	1	1	1	1	1	0	1	-11,557435	274,258803	309,23592	0
15.01.2021	19:50:09	0	0	3,163437	2,6025	302,8104	0,209	85,648	0	1016,8	6,8	9	8,8	1	1	1	1	1	1	1	1	1	0	1	-5,285412	274,168733	315,086741	0
15.01.2021	19:50:10	0	0	2,485558	2,7165	303,5736	0,203	85,641	0	1016,76	6,8	9	8,8	1	1	1	1	1	1	1	1	1	0	1	-7,82241	274,240755	312,886513	0
15.01.2021	19:50:11	0	0	4,745155	2,66925	304,578	0,205	85,646	0	1016,88	6,8	9	8,8	1	1	1	1	1	1	1	1	1	0	1	-12,473573	274,269338	308,369077	0
15.01.2021	19:50:12	0	0	4,745155	2,53875	300,4308	0,209	85,65	0	1016,76	6,8	9	8,8	1	1	1	1	1	1	1	1	1	0	1	-6,060606	274,237749	314,634255	0
15.01.2021	19:50:13	0	0	2,711517	2,47275	306,7596	0,21	85,651	0	1016,78	6,8	9	8,8	1	1	1	1	1	1	1	1	1	0	1	-5,919662	274,099963	314,131177	0
15.01.2021	19:50:14	0	0	2,711517	2,39625	325,1556	0,202	85,639	0	1016,84	6,8	9	8,8	1	1	1	1	1	1	1	1	1	0	1	-6,20155	274,273855	314,662236	0
15.01.2021	19:50:15	0	0	3,728336	2,27925	316,9368	0,206	85,651	0	1016,86	6,8	9	8,8	1	1	1	1	1	1	1	1	1	0	1	-11,346018	274,162743	308,998139	0
15.01.2021	19:50:16	0	0	4,745155	2,1855	308,5272	0,204	85,632	0	1016,8	6,8	9	8,8	1	1	1	1	1	1	1	1	1	0	1	-6,131078	274,099963	313,91976	0
15.01.2021	19:50:17	0	0	3,841316	2,25975	301,6368	0,205	85,666	0	1016,78	6,8	9	8,8	1	1	1	1	1	1	1	1	1	0	1	-5,778717	274,162743	314,56544	0
15.01.2021	19:50:18	0	0	2,711517	2,54475	304,6284	0,212	85,656	0	1016,76	6,8	9	8,8	1	1	1	1	1	1	1	1	1	0	1	-9,513742	274,290427	311,427597	0
15.01.2021	19:50:19	0	0	4,971115	2,625	315,882	0,21	85,643	0	1016,64	6,8	9	8,8	1	1	1	1	1	1	1	1	1	0	1	-14,728682	274,296456	306,240878	0
15.01.2021	19:50:20	0	0	2,937477	2,63775	310,626	0,208	85,633	0	1016,78	6,8	9	8,8	1	1	1	1	1	1	1	1	1	0	1	-12,191684	274,137308	308,033609	0
15.01.2021	19:50:21	0	0	3,728336	2,6895	303,138	0,206	85,65	0	1016,96	6,8	9	8,8	1	1	1	1	1	1	1	1	1	0	1	-8,315715	274,119373	311,825789	0
15.01.2021	19:50:22	0	0	2,372578	2,67975	300,7008	0,202	85,653	0	1016,96	6,8	9	8,8	1	1	1	1	1	1	1	1	1	0	1	-9,302326	274,234743	311,378475	0
15.01.2021	19:50:23	0	0	3,276417	2,67075	311,6988	0,208	85,652	0	1016,74	6,8	9	8,8	1	1	1	1	1	1	1	1	1	0	1	-6,624383	274,098471	313,419485	0
15.01.2021	19:50:24	0	0	4,519195	2,658	312,7896	0,204	85,648	0	1016,78	6,8	9	8,8	1	1	1	1	1	1	1	1	1	0	1	-16,27907	274,221223	304,338494	0
15.01.2021	19:50:25	0	0	3,502376	2,6865	307,2204	0,207	85,658	0	1016,82	6,8	9	8,8	1	1	1	1	1	1	1	1	1	0	1	-8,80902	274,110413	311,290624	0
15.01.2021	19:50:26	0	0	4,858135	2,8065	315,4248	0,206	85,657	0	1016,82	6,8	9	8,8	1	1	1	1	1	1	1	1	1	0	1	-12,896406	274,183716	307,545782	0
15.01.2021	19:50:27	0	0	4,293236	2,80575	314,7336	0,211	85,658	0	1016,78	6,8	9	8,8	1	1	1	1	1	1	1	1	1	0	1	-11,41649	274,290427	309,524849	0
15.01.2021	19:50:28	0	0	2,598537	2,71275	306,0864	0,202	85,644	0	1016,62	6,8	9	8,8	1	1	1	1	1	1	1	1	1	0	1	-8,879493	274,189712	311,590728	0
15.01.2021	19:50:29	0	0	4,858135	2,54925	303,5088	0,199	85,655	0	1016,78	6,8	9	8,8	1	1	1	1	1	1	1	1	1	0	1	-7,892882	274,287413	313,03435	0
15.01.2021	19:50:30	0	0	2,937477	2,352	293,346	0,207	85,656	0	1016,72	6,8	9	8,8	1	1	1	1	1	1	1	1	1	0	1	-8,104299	274,237749	312,590562	0
15.01.2021	19:50:31	0	0	3,728336	2,1615	304,992	0,203	85,657	0	1016,68	6,8	9	8,8	1	1	1	1	1	1	1	1	1	0	1	-11,557435	274,293441	309,398014	0
15.01.2021	19:50:32	0	0	4,519195	2,13525	287,7696	0,205	85,651	0	1016,88	6,8	9	8,8	1	1	1	1	1	1	1	1	1	0	1	-6,906272	274,11788	313,228254	0
15.01.2021	19:50:33	0	0	3,389397	2,13525	291,8016	0,207	85,649	0	1016,8	6,8	9	8,8	1	1	1	1	1	1	1	1	1	0	1	-9,44327	274,123856	310,719173	0
15.01.2021	19:50:34	0	0	4,745155	2,11725	281,304	0,205	85,647	0	1016,8	6,8	9	8,8	1	1	1	1	1	1	1	1	1	0	1	-7,82241	274,188213	312,640801	0
15.01.2021	19:50:35	0	0	3,389397	2,0505	291,1392	0,21	85,661	0	1016,78	6,8	9	8,8	1	1	1	1	1	1	1	1	1	0	1	-12,332629	274,110413	307,767016	0
15.01.2021	19:50:36	0	0	4,519223	2,028	283,482	0,201	85,657	0	1016,78	6,8	9	8,7	1	1	1	1	1	1	1	1	1	0	1	-7,117689	274,17922	313,303482	0
15.01.2021	19:50:37	0	0	4,067276	2,046	294,7248	0,212	85,653	0	1016,64	6,8	9	8,8	1	1	1	1	1	1	1	1	1	0	1	-8,315715	274,273855	312,548071	0
15.01.2021	19:50:38	0	0	2,824497	1,9545	284,3712	0,211	85,645	0	1016,74	6,8	9	8,8	1	1	1	1	1	1	1	1	1	0	1	-8,597604	274,177721	311,816562	0
15.01.2021	19:50:39	0	0	2,937495	1,8105	294,048	0,21	85,665	0	1016,88	6,8	9	8,7	1	1	1	1	1	1	1	1	1	0	1	-9,584214	274,107427	310,501483	0
15.01.2021	19:50:40	0	0	2,485558	1,662	282,078	0,21	85,662	0	1016,82	6,8	9	8,8	1	1	1	1	1	1	1	1	1	0	1	-10,570825	274,135813	309,647483	0
15.01.2021	19:50:41	0	0	2,937477	1,63875	291,3012	0,204	85,659	0	1016,9	6,8	9	8,8	1	1	1	1	1	1	1	1	1	0	1	-5,778717	274,147777	314,495497	0
15.01.2021	19:50:42	0	0	5,084095	1,65375	287,7192	0,208	85,654	0	1016,68	6,8	9	8,8	1	1	1	1	1	1	1	1	1	0	1	-11,980268	274,254289	308,79197	0
15.01.2021	19:50:43	0	0	3,389397	1,674	295,5564	0,207	85,673	0	1016,78	6,8	9	8,8	1	1	1	1	1	1	1	1	1	0	1	-8,668076	274,230235	311,99164	0
15.01.2021	19:50:44	0	0	4,519195	1,6635	290,7972	0,213	85,646	0	1016,82	6,8	9	8,8	1	1	1	1	1	1	1	1	1	0	1	-9,090909	274,297964	311,885708	0
15.01.2021	19:50:45	0	0	4,632175	1,72875	288,8028	0,203	85,666	0	1016,8	6,8	9	8,8	1	1	1	1	1	1	1	1	1	0	1	-7,681466	274,230235	312,97825	0
15.01.2021	19:50:46	0	0	2,711517	1,6965	299,3508	0,201	85,651	0	1016,82	6,8	9	8,8	1	1	1	1	1	1	1	1	1	0	1	-10,852713	274,120867	309,29577	0
15.01.2021	19:50:47	0	0	2,824497	1,7955	278,7732	0,203	85,651	0	1016,8	6,8	9	8,8	1	1	1	1	1	1	1	1	1	0	1	-8,80902	274,213715	311,773435	0
15.01.2021	19:50:48	0	0	2,598537	1,812	298,2636	0,211	85,648	0	1017	6,8	9	8,8	1	1	1	1	1	1	1	1	1	0	1	-11,346018	274,110413	308,753626	0
15.01.2021	19:50:49	0	0	3,389397	1,78575	300,816	0,205	85,648	0	1016,66	6,8	9	8,8	1	1	1	1	1	1	1	1	1	0	1	-9,020437	274,228733	311,632252	0
15.01.2021	19:50:50	0	0	4,180256	1,71075	294,102	0,21	85,657	0	1016,92	6,8	9	8,8	1	1	1	1	1	1	1	1	1	0	1	-12,05074	274,28892	308,883546	0
15.01.2021	19:50:51	0	0	3,050457	1,61025	298,6092	0,211	85,66	0	1016,76	6,8	9	8,8	1	1	1	1	1	1	1	1	1	0	1	-8,879493	274,20021	311,63981	0
15.01.2021	19:50:52	0	0	3,276417	1,5825	303,2496	0,206	85,656	0	1016,9	6,8	9	8,8	1	1	1	1	1	1	1	1	1	0	1	-10,147992	274,123856	310,014451	0
15.01.2021	19:50:53	0	0	2,711517	1,5285	309,4848	0,209	85,658	0	1016,86	6,8	9	8,8	1	1	1	1	1	1	1	1	1	0	1	-10,42988	274,19571	310,068383	0
15.01.2021	19:50:54	0	0	2,372578	1,5105	299,4228	0,206	85,655	0	1016,94	6,8	9	8,8	1	1	1	1	1	1	1	1	1	0	1	-10,007047	274,281386	310,891981	0
15.01.2021	19:50:55	0	0	4,745155	1,42275	307,5444	0,209	85,639	0	1016,76	6,8	9	8,8	1	1	1	1	1	1	1	1	1	0	1	-9,372798	274,108919	310,719873	0
15.01.2021	19:50:56	0	0	5,310055	1,35075	298,2564	0,209	85,66	0	1016,82	6,8	9	8,8	1	1	1	1	1	1	1	1	1	0	1	-5,144468	274,171729	315,241687	0
15.01.2021	19:50:57	0	0	3,050457	1,35075	288,7956	0,208	85,658	0	1016,68	6,8	9	8,8	1	1	1	1	1	1	1	1	1	0	1	-10,711769	274,11788	309,422757	0
15.01.2021	19:50:58	0	0	4,293236	1,41	285,4548	0,205	85,646	0	1016,74	6,8	9	8,8	1	1	1	1	1	1	1	1	1	0	1	-7,751938	274,135813	312,46637	0
15.01.2021	19:50:59	0	0	4,632175	1,42725	309,5712	0,209	85,668	0	1016,92	6,8	9	8,8	1	1	1	1	1	1	1	1	1	0	1	-8,174771	274,239252	312,527121	0
15.01.2021	19:51:00	0	0	3,389397	1,4835	283,104	0,204	85,655	0	1016,84	6,8	9	8,8	1	1	1	1	1	1	1	1	1	0	1	-12,614517	274,156756	307,701655	0
15.01.2021	19:51:01	0	0	3,841316	1,4985	307,1952	0,209	85,666	0	1016,82	6,8	9	8,8	1	1	1	1	1	1	1	1	1	0	1	-10,852713	274,263317	309,961764	0
15.01.2021	19:51:02	0	0	4,406216	1,48575	302,7384	0,203	85,65	0	1016,64	6,8	9	8,8	1	1	1	1	1	1	1	1	1	0	1	-11,698379	274,248273	309,045712	0
15.01.2021	19:51:03	0	0	3,841316	1,50375	283,6692	0,208	85,655	0	1016,84	6,8	9	8,8	1	1	1	1	1	1	1	1	1	0	1	-10,923185	274,105934	309,155538	0
15.01.2021	19:51:04	0	0	3,954296	1,5015	282,4488	0,21	85,651	0	1016,84	6,8	9	8,8	1	1	1	1	1	1	1	1	1	0	1	-8,386187	274,140298	311,85308	0
15.01.2021	19:51:05	0	0	3,95432	1,48425	286,9596	0,199	85,653	0	1016,7	6,8	9	8,7	1	1	1	1	1	1	1	1	1	0	1	-10,852713	274,102948	309,212067	0
15.01.2021	19:51:06	0	0	3,389397	1,452	276,3828	0,202	85,648	0	1016,76	6,8	9	8,8	1	1	1	1	1	1	1	1	1	0	1	-6,976744	274,171729	313,409411	0
15.01.2021	19:51:07	0	0	2,372578	1,4925	305,784	0,204	85,659	0	1016,86	6,8	9	8,8	1	1	1	1	1	1	1	1	1	0	1	-9,231853	274,093995	310,79111	0
15.01.2021	19:51:08	0	0	2,372592	1,55175	314,7912	0,206	85,669	0	1016,82	6,8	9	8,7	1	1	1	1	1	1	1	1	1	0	1	-11,557435	274,177721	308,856731	0
15.01.2021	19:51:09	0	0	4,293261	1,554	310,6224	0,208	85,66	0	1016,8	6,8	9	8,7	1	1	1	1	1	1	1	1	1	0	1	-9,866103	274,104441	310,205649	0
15.01.2021	19:51:10	0	0	4,971145	1,482	313,1784	0,21	85,656	0	1016,72	6,8	9	8,7	1	1	1	1	1	1	1	1	1	0	1	-12,755462	274,227231	307,890201	0
15.01.2021	19:51:11	0	0	2,372578	1,47225	303,4332	0,208	85,672	0	1016,92	6,8	9	8,8	1	1	1	1	1	1	1	1	1	0	1	-11,346018	274,123856	308,816424	0
15.01.2021	19:51:12	0	0	4,519223	1,57275	309,9024	0,206	85,653	0	1016,7	6,8	9	8,7	1	1	1	1	1	1	1	1	1	0	1	-7,892882	274,174725	312,507277	0
15.01.2021	19:51:13	0	0	3,954296	1,65525	317,376	0,205	85,666	0	1016,78	6,8	9	8,8	1	1	1	1	1	1	1	1	1	0	1	-11,41649	274,114893	308,704081	0
15.01.2021	19:51:14	0	0	2,598553	1,722	304,6176	0,2	85,657	0	1016,76	6,8	9	8,7	1	1	1	1	1	1	1	1	1	0	1	-11,06413	274,246769	309,672927	0
15.01.2021	19:51:15	0	0	3,841316	1,73025	298,6812	0,203	85,647	0	1016,7	6,8	9	8,8	1	1	1	1	1	1	1	1	1	0	1	-9,584214	274,294949	311,37829	0
15.01.2021	19:51:16	0	0	4,293261	1,72425	307,1952	0,206	85,647	0	1016,76	6,8	9	8,7	1	1	1	1	1	1	1	1	1	0	1	-8,386187	274,168733	311,985966	0
15.01.2021	19:51:17	0	0	4,858135	1,75125	306,0792	0,21	85,652	0	1016,82	6,8	9	8,8	1	1	1	1	1	1	1	1	1	0	1	-9,866103	274,281386	311,032925	0
15.01.2021	19:51:18	0	0	4,293236	1,845	305,7912	0,199	85,653	0	1016,74	6,8	9	8,8	1	1	1	1	1	1	1	1	1	0	1	-4,862579	274,216718	315,733918	0
15.01.2021	19:51:19	0	0	3,728336	1,98975	315,1764	0,209	85,654	0	1016,72	6,8	9	8,8	1	1	1	1	1	1	1	1	1	0	1	-9,936575	274,122361	310,218887	0
15.01.2021	19:51:20	0	0	2,824497	2,08875	298,9692	0,204	85,656	0	1016,7	6,8	9	8,8	1	1	1	1	1	1	1	1	1	0	1	-9,936575	274,153762	310,365609	0
15.01.2021	19:51:21	0	0	2,824497	2,0475	319,5216	0,206	85,65	0	1016,64	6,8	9	8,8	1	1	1	1	1	1	1	1	1	0	1	-9,866103	274,273855	310,997684	0
15.01.2021	19:51:22	0	0	4,067276	1,893	304,3008	0,206	85,661	0	1016,88	6,8	9	8,8	1	1	1	1	1	1	1	1	1	0	1	-11,980268	274,174725	308,419891	0
15.01.2021	19:51:23	0	0	2,824497	1,8315	308,0232	0,202	85,653	0	1016,92	6,8	9	8,8	1	1	1	1	1	1	1	1	1	0	1	-10,711769	274,267833	310,123837	0
15.01.2021	19:51:24	0	0	4,519195	1,87275	300,4524	0,207	85,647	0	1016,88	6,8	9	8,8	1	1	1	1	1	1	1	1	1	0	1	-6,20155	274,231738	314,465193	0
15.01.2021	19:51:25	0	0	4,745184	1,839	305,7336	0,206	85,656	0	1016,64	6,8	9	8,7	1	1	1	1	1	1	1	1	1	0	1	-5,073996	274,266328	315,754566	0
15.01.2021	19:51:26	0	0	4,067276	1,869	296,4816	0,209	85,649	0	1016,84	6,8	9	8,8	1	1	1	1	1	1	1	1	1	0	1	-10,147992	274,207712	310,40639	0
15.01.2021	19:51:27	0	0	3,502398	1,83675	297,864	0,208	85,661	0	1016,92	6,8	9	8,7	1	1	1	1	1	1	1	1	1	0	1	-11,839323	274,267833	308,996282	0
15.01.2021	19:51:28	0	0	2,711517	1,90875	295,524	0,207	85,654	0	1016,8	6,8	9	8,8	1	1	1	1	1	1	1	1	1	0	1	-7,470049	274,170231	312,909104	0
15.01.2021	19:51:29	0	0	4,519195	1,983	296,4888	0,201	85,665	0	1016,84	6,8	9	8,8	1	1	1	1	1	1	1	1	1	0	1	-4,439746	274,281386	316,459282	0
15.01.2021	19:51:30	0	0	4,293236	2,01225	294,4872	0,203	85,654	0	1016,7	6,8	9	8,8	1	1	1	1	1	1	1	1	1	0	1	-12,825934	274,191211	307,651296	0
15.01.2021	19:51:31	0	0	5,197075	1,97925	301,2156	0,208	85,662	0	1016,8	6,8	9	8,8	1	1	1	1	1	1	1	1	1	0	1	-5,003524	274,102948	315,061256	0
15.01.2021	19:51:32	0	0	3,728336	1,9035	299,304	0,2	85,638	0	1016,72	6,8	9	8,8	1	1	1	1	1	1	1	1	1	0	1	-8,738548	274,168733	311,633605	0
15.01.2021	19:51:33	0	0	3,389397	1,7805	294,4296	0,202	85,652	0	1016,76	6,8	9	8,8	1	1	1	1	1	1	1	1	1	0	1	-12,896406	274,290427	308,044933	0
15.01.2021	19:51:34	0	0	3,276417	1,74675	300,384	0,205	85,652	0	1016,72	6,8	9	8,8	1	1	1	1	1	1	1	1	1	0	1	-11,839323	274,173227	308,553833	0
15.01.2021	19:51:35	0	0	4,519195	1,82775	286,632	0,2	85,657	0	1016,72	6,8	9	8,8	1	1	1	1	1	1	1	1	1	0	1	-13,03735	274,275361	307,833483	0
15.01.2021	19:51:36	0	0	4,745184	1,878	288,3636	0,204	85,652	0	1016,68	6,8	9	8,7	1	1	1	1	1	1	1	1	1	0	1	-10,007047	274,240755	310,701876	0
15.01.2021	19:51:37	0	0	4,632175	1,95075	286,9164	0,198	85,658	0	1016,76	6,8	9	8,8	1	1	1	1	1	1	1	1	1	0	1	-8,80902	274,240755	311,899903	0
15.01.2021	19:51:38	0	0	3,050457	1,992	290,0412	0,207	85,666	0	1016,82	6,8	9	8,8	1	1	1	1	1	1	1	1	1	0	1	-10,218464	274,122361	309,936999	0
15.01.2021	19:51:39	0	0	4,632203	1,94775	296,0676	0,204	85,664	0	1016,8	6,8	9	8,7	1	1	1	1	1	1	1	1	1	0	1	-12,684989	274,165738	307,673164	0
15.01.2021	19:51:40	0	0	3,050457	1,9665	283,1292	0,2	85,652	0	1016,92	6,8	9	8,8	1	1	1	1	1	1	1	1	1	0	1	-6,976744	274,114893	313,143827	0
15.01.2021	19:51:41	0	0	4,519223	2,18025	310,9932	0,207	85,664	0	1016,76	6,8	9	8,7	1	1	1	1	1	1	1	1	1	0	1	-8,245243	274,189712	312,224977	0
15.01.2021	19:51:42	0	0	5,084095	2,187	284,3676	0,203	85,659	0	1016,76	6,8	9	8,8	1	1	1	1	1	1	1	1	1	0	1	-9,090909	274,287413	311,836324	0
15.01.2021	19:51:43	0	0	3,389417	2,1525	300,1968	0,201	85,661	0	1016,82	6,8	9	8,7	1	1	1	1	1	1	1	1	1	0	1	-8,738548	274,227231	311,907115	0
15.01.2021	19:51:44	0	0	4,632175	2,157	315,3204	0,205	85,657	0	1016,74	6,8	9	8,8	1	1	1	1	1	1	1	1	1	0	1	-5,708245	274,299472	315,275429	0
15.01.2021	19:51:45	0	0	4,293236	2,124	315,4824	0,204	85,655	0	1016,8	6,8	9	8,8	1	1	1	1	1	1	1	1	1	0	1	-6,342495	274,257298	314,44382	0
15.01.2021	19:51:46	0	0	2,485572	2,27025	304,6068	0,204	85,668	0	1016,84	6,8	9	8,7	1	1	1	1	1	1	1	1	1	0	1	-6,483439	274,261812	314,323996	0
15.01.2021	19:51:47	0	0	4,519223	2,41725	309,1356	0,21	85,662	0	1016,7	6,8	9	8,7	1	1	1	1	1	1	1	1	1	0	1	-10,570825	274,257298	310,21549	0
15.01.2021	19:51:48	0	0	2,711517	2,42925	318,3624	0,204	85,653	0	1016,74	6,8	9	8,8	1	1	1	1	1	1	1	1	1	0	1	-14,517266	274,128339	305,666121	0
15.01.2021	19:51:49	0	0	2,824514	2,3505	316,8684	0,205	85,657	0	1016,7	6,8	9	8,7	1	1	1	1	1	1	1	1	1	0	1	-9,020437	274,17922	311,400734	0
15.01.2021	19:51:50	0	0	4,632203	2,247	314,0856	0,203	85,666	0	1016,8	6,8	9	8,7	1	1	1	1	1	1	1	1	1	0	1	-11,134602	274,281386	309,764426	0
15.01.2021	19:51:51	0	0	4,632203	2,229	330,3108	0,208	85,675	0	1016,94	6,8	9	8,7	1	1	1	1	1	1	1	1	1	0	1	-3,030303	274,113399	317,083292	0
15.01.2021	19:51:52	0	0	4,858135	2,15025	314,8272	0,205	85,662	0	1016,8	6,8	9	8,8	1	1	1	1	1	1	1	1	1	0	1	-9,231853	274,225728	311,406784	0
15.01.2021	19:51:53	0	0	3,841316	2,1015	307,2168	0,207	85,668	0	1017,02	6,8	9	8,8	1	1	1	1	1	1	1	1	1	0	1	-9,302326	274,276867	311,575556	0
15.01.2021	19:51:54	0	0	3,728336	2,02275	306,4392	0,204	85,663	0	1016,76	6,8	9	8,8	1	1	1	1	1	1	1	1	1	0	1	-7,047216	274,119373	313,094288	0
15.01.2021	19:51:55	0	0	2,937495	1,9995	289,6092	0,203	85,656	0	1016,76	6,8	9	8,7	1	1	1	1	1	1	1	1	1	0	1	-9,936575	274,122361	310,218887	0
15.01.2021	19:51:56	0	0	2,598553	1,9215	302,0328	0,206	85,662	0	1016,84	6,8	9	8,7	1	1	1	1	1	1	1	1	1	0	1	-8,245243	274,170231	312,13391	0
15.01.2021	19:51:57	0	0	3,728336	1,81275	304,9488	0,202	85,648	0	1016,72	6,8	9	8,8	1	1	1	1	1	1	1	1	1	0	1	-9,725159	274,102948	310,339621	0
15.01.2021	19:51:58	0	0	4,745155	1,78725	304,0704	0,209	85,65	0	1016,9	6,8	9	8,8	1	1	1	1	1	1	1	1	1	0	1	-7,540521	274,230235	313,119195	0
15.01.2021	19:51:59	0	0	3,276417	1,77525	310,644	0,207	85,659	0	1016,86	6,8	9	8,8	1	1	1	1	1	1	1	1	1	0	1	-9,866103	274,107427	310,219594	0
15.01.2021	19:52:00	0	0	2,937495	1,746	303,0912	0,202	85,649	0	1016,84	6,8	9	8,7	1	1	1	1	1	1	1	1	1	0	1	-10,359408	274,245266	310,370614	0
15.01.2021	19:52:01	0	0	4,519223	1,67175	302,562	0,199	85,661	0	1016,86	6,8	9	8,7	1	1	1	1	1	1	1	1	1	0	1	-5,285412	274,113399	314,828183	0
15.01.2021	19:52:02	0	0	3,954296	1,647	285,9552	0,203	85,654	0	1016,96	6,8	9	8,8	1	1	1	1	1	1	1	1	1	0	1	-10,711769	274,23324	309,962003	0
15.01.2021	19:52:03	0	0	4,858135	1,71	303,498	0,206	85,676	0	1016,88	6,8	9	8,8	1	1	1	1	1	1	1	1	1	0	1	-11,205074	274,291934	309,743319	0
15.01.2021	19:52:04	0	0	5,197106	1,773	295,2252	0,202	85,672	0	1016,72	6,8	9	8,7	1	1	1	1	1	1	1	1	1	0	1	-9,44327	274,231738	311,223474	0
15.01.2021	19:52:05	0	0	3,502398	1,809	297,2196	0,202	85,666	0	1016,78	6,8	9	8,7	1	1	1	1	1	1	1	1	1	0	1	-8,527132	274,291934	312,421262	0
15.01.2021	19:52:06	0	0	3,841316	1,79625	309,1536	0,199	85,649	0	1016,68	6,8	9	8,8	1	1	1	1	1	1	1	1	1	0	1	-10,007047	274,243762	310,715941	0
15.01.2021	19:52:07	0	0	4,971115	1,7235	309,168	0,206	85,665	0	1016,86	6,8	9	8,8	1	1	1	1	1	1	1	1	1	0	1	-7,610994	274,278374	313,273936	0
15.01.2021	19:52:08	0	0	5,084125	1,76775	300,1356	0,201	85,664	0	1016,92	6,8	9	8,7	1	1	1	1	1	1	1	1	1	0	1	-5,567301	274,180718	314,860875	0
15.01.2021	19:52:09	0	0	2,824514	1,773	301,0968	0,202	85,665	0	1016,72	6,8	9	8,7	1	1	1	1	1	1	1	1	1	0	1	-5,567301	274,149273	314,713905	0
15.01.2021	19:52:10	0	0	2,03365	1,749	317,682	0,201	85,668	0	1016,86	6,8	9	8,7	1	1	1	1	1	1	1	1	1	0	1	-10,500352	274,152266	309,794838	0
15.01.2021	19:52:11	0	0	4,971145	1,68975	315,8172	0,203	85,649	0	1016,86	6,8	9	8,7	1	1	1	1	1	1	1	1	1	0	1	-12,262156	274,278374	308,622773	0
15.01.2021	19:52:12	0	0	3,502376	1,61325	301,6044	0,204	85,668	0	1016,78	6,8	9	8,8	1	1	1	1	1	1	1	1	1	0	1	-11,768851	274,101456	308,288958	0
15.01.2021	19:52:13	0	0	4,180256	1,6155	313,11	0,205	85,668	0	1016,8	6,8	9	8,8	1	1	1	1	1	1	1	1	1	0	1	-9,584214	274,234743	311,096587	0
15.01.2021	19:52:14	0	0	3,615378	1,644	304,1676	0,202	85,679	0	1016,82	6,8	9	8,7	1	1	1	1	1	1	1	1	1	0	1	-13,601128	274,273855	307,262659	0
15.01.2021	19:52:15	0	0	3,050475	1,632	315,1476	0,202	85,667	0	1016,74	6,8	9	8,7	1	1	1	1	1	1	1	1	1	0	1	-10,42988	274,129833	309,76049	0
15.01.2021	19:52:16	0	0	5,084095	1,65	320,7924	0,202	85,664	0	1016,86	6,8	9	8,8	1	1	1	1	1	1	1	1	1	0	1	-10,641297	274,27988	310,250682	0
15.01.2021	19:52:17	0	0	4,406242	1,683	306,3456	0,202	85,672	0	1016,86	6,8	9	8,7	1	1	1	1	1	1	1	1	1	0	1	-7,610994	274,147777	312,663221	0
15.01.2021	19:52:18	0	0	4,067276	1,77375	326,6892	0,205	85,664	0	1016,82	6,8	9	8,8	1	1	1	1	1	1	1	1	1	0	1	-9,302326	274,113399	310,81127	0
15.01.2021	19:52:19	0	0	2,711517	1,82925	318,0672	0,195	85,671	0	1016,86	6,8	9	8,8	1	1	1	1	1	1	1	1	1	0	1	-11,980268	274,120867	308,168215	0
15.01.2021	19:52:20	0	0	3,050475	1,77525	314,8308	0,203	85,674	0	1016,76	6,8	9	8,7	1	1	1	1	1	1	1	1	1	0	1	-12,05074	274,14329	308,202505	0
15.01.2021	19:52:21	0	0	4,519195	1,8135	327,4308	0,201	85,656	0	1016,6	6,8	9	8,8	1	1	1	1	1	1	1	1	1	0	1	-10,993658	274,167235	309,371496	0
15.01.2021	19:52:22	0	0	3,841316	1,87425	322,2432	0,202	85,654	0	1016,82	6,8	9	8,8	1	1	1	1	1	1	1	1	1	0	1	-9,302326	274,273855	311,561461	0
15.01.2021	19:52:23	0	0	2,824514	1,8345	323,7048	0,2	85,678	0	1016,78	6,8	9	8,7	1	1	1	1	1	1	1	1	1	0	1	-7,540521	274,147777	312,733693	0
15.01.2021	19:52:24	0	0	4,406216	1,7445	315,8964	0,2	85,679	0	1016,66	6,8	9	8,8	1	1	1	1	1	1	1	1	1	0	1	-6,342495	274,128339	313,840892	0
15.01.2021	19:52:25	0	0	2,485572	1,67325	324,6984	0,203	85,665	0	1016,64	6,8	9	8,7	1	1	1	1	1	1	1	1	1	0	1	-9,090909	274,210713	311,477508	0
15.01.2021	19:52:26	0	0	3,502376	1,62375	315,9072	0,198	85,668	0	1016,8	6,8	9	8,8	1	1	1	1	1	1	1	1	1	0	1	-12,755462	274,096979	307,281438	0
15.01.2021	19:52:27	0	0	4,632203	1,5465	319,608	0,207	85,681	0	1016,8	6,8	9	8,7	1	1	1	1	1	1	1	1	1	0	1	-9,795631	274,230235	310,864085	0
15.01.2021	19:52:28	0	0	4,632175	1,4745	317,0052	0,2	85,681	0	1016,78	6,8	9	8,8	1	1	1	1	1	1	1	1	1	0	1	-7,82241	274,249777	312,928717	0
15.01.2021	19:52:29	0	0	4,406216	1,359	307,98	0,201	85,687	0	1016,7	6,8	9	8,8	1	1	1	1	1	1	1	1	1	0	1	-8,033827	274,257298	312,752488	0
15.01.2021	19:52:30	0	0	3,841339	1,31925	303,8148	0,195	85,679	0	1016,7	6,8	9	8,7	1	1	1	1	1	1	1	1	1	0	1	-9,020437	274,249777	311,73069	0
15.01.2021	19:52:31	0	0	4,180256	1,27575	302,0472	0,2	85,663	0	1016,72	6,8	9	8,8	1	1	1	1	1	1	1	1	1	0	1	-10,147992	274,248273	310,5961	0
15.01.2021	19:52:32	0	0	3,276417	1,2315	293,2704	0,198	85,673	0	1016,68	6,8	9	8,8	1	1	1	1	1	1	1	1	1	0	1	-4,933051	274,264822	315,888468	0
15.01.2021	19:52:33	0	0	4,632175	1,20375	279,7884	0,203	85,698	0	1016,8	6,8	9	8,8	1	1	1	1	1	1	1	1	1	0	1	-11,346018	274,249777	309,405109	0
15.01.2021	19:52:34	0	0	3,728336	1,2255	293,274	0,203	85,686	0	1016,82	6,8	9	8,8	1	1	1	1	1	1	1	1	1	0	1	-11,275546	274,278374	309,609383	0
15.01.2021	19:52:35	0	0	3,163456	1,18425	332,0172	0,204	85,688	0	1016,8	6,8	9	8,7	1	1	1	1	1	1	1	1	1	0	1	-9,584214	274,159749	310,745949	0
15.01.2021	19:52:36	0	0	2,598553	1,0965	324,3924	0,196	85,694	0	1016,78	6,8	9	8,7	1	1	1	1	1	1	1	1	1	0	1	-9,020437	274,275361	311,850397	0
15.01.2021	19:52:37	0	0	4,406242	1,02675	296,424	0,203	85,668	0	1016,7	6,8	9	8,7	1	1	1	1	1	1	1	1	1	0	1	-6,765328	274,177721	313,648838	0
15.01.2021	19:52:38	0	0	4,632175	0,9825	284,8032	0,201	85,69	0	1016,84	6,8	9	8,8	1	1	1	1	1	1	1	1	1	0	1	-8,80902	274,102948	311,255759	0
15.01.2021	19:52:39	0	0	4,067276	0,9795	297,9864	0,201	85,683	0	1016,76	6,8	9	8,8	1	1	1	1	1	1	1	1	1	0	1	-8,738548	274,210713	311,829869	0
15.01.2021	19:52:40	0	0	3,276417	1,00425	314,8488	0,201	85,686	0	1016,68	6,8	9	8,8	1	1	1	1	1	1	1	1	1	0	1	-7,892882	274,27235	312,963858	0
15.01.2021	19:52:41	0	0	2,937477	1,0065	307,2096	0,202	85,697	0	1016,72	6,8	9	8,8	1	1	1	1	1	1	1	1	1	0	1	-10,993658	274,19421	309,497594	0
15.01.2021	19:52:42	0	0	3,389397	0,9615	301,2156	0,201	85,696	0	1016,78	6,8	9	8,8	1	1	1	1	1	1	1	1	1	0	1	-6,906272	274,111906	313,200348	0
15.01.2021	19:52:43	0	0	4,293236	0,88575	302,3928	0,198	85,688	0	1016,64	6,8	9	8,8	1	1	1	1	1	1	1	1	1	0	1	-12,403101	274,218219	308,200418	0
15.01.2021	19:52:44	0	0	3,615356	0,915	290,0556	0,197	85,702	0	1016,8	6,8	9	8,8	1	1	1	1	1	1	1	1	1	0	1	-10,852713	274,096979	309,184187	0
15.01.2021	19:52:45	0	0	4,293261	0,981	298,3356	0,203	85,693	0	1016,88	6,8	9	8,7	1	1	1	1	1	1	1	1	1	0	1	-7,117689	274,161246	313,219472	0
15.01.2021	19:52:46	0	0	2,937477	1,13025	294,39	0,195	85,701	0	1016,72	6,8	9	8,8	1	1	1	1	1	1	1	1	1	0	1	-6,624383	274,137308	313,60091	0
15.01.2021	19:52:47	0	0	3,728336	1,27725	292,9896	0,203	85,694	0	1016,76	6,8	9	8,8	1	1	1	1	1	1	1	1	1	0	1	-11,768851	274,23324	308,904921	0
15.01.2021	19:52:48	0	0	3,502376	1,29225	289,4976	0,203	85,68	0	1016,88	6,8	9	8,8	1	1	1	1	1	1	1	1	1	0	1	-8,949965	274,128339	311,233422	0
15.01.2021	19:52:49	0	0	3,502398	1,2825	303,8832	0,195	85,693	0	1016,68	6,8	9	8,7	1	1	1	1	1	1	1	1	1	0	1	-13,953488	274,23324	306,720284	0
15.01.2021	19:52:50	0	0	4,519195	1,2345	308,7936	0,202	85,688	0	1016,78	6,8	9	8,8	1	1	1	1	1	1	1	1	1	0	1	-10,147992	274,27235	310,708749	0
15.01.2021	19:52:51	0	0	4,971145	1,17525	303,1272	0,2	85,689	0	1016,72	6,8	9	8,7	1	1	1	1	1	1	1	1	1	0	1	-6,694856	274,19721	313,81042	0
15.01.2021	19:52:52	0	0	3,954296	1,0935	298,3284	0,204	85,712	0	1016,88	6,8	9	8,8	1	1	1	1	1	1	1	1	1	0	1	-10,923185	274,291934	310,025208	0
15.01.2021	19:52:53	0	0	4,745184	1,0635	321,8112	0,206	85,693	0	1016,64	6,8	9	8,7	1	1	1	1	1	1	1	1	1	0	1	-7,610994	274,242259	313,104962	0
15.01.2021	19:52:54	0	0	4,745155	1,13175	310,6476	0,201	85,698	0	1016,76	6,8	9	8,8	1	1	1	1	1	1	1	1	1	0	1	-8,104299	274,27235	312,752442	0
15.01.2021	19:52:55	0	0	2,259611	1,35	299,7324	0,198	85,697	0	1016,8	6,8	9	8,7	1	1	1	1	1	1	1	1	1	0	1	-13,953488	274,093995	306,069475	0
15.01.2021	19:52:56	0	0	4,858135	1,5555	303,0876	0,203	85,7	0	1016,76	6,8	9	8,8	1	1	1	1	1	1	1	1	1	0	1	-4,792107	274,191211	315,685123	0
15.01.2021	19:52:57	0	0	4,406242	1,62	294,4296	0,204	85,679	0	1016,84	6,8	9	8,7	1	1	1	1	1	1	1	1	1	0	1	-8,315715	274,264822	312,505804	0
15.01.2021	19:52:58	0	0	2,937477	1,54425	310,3092	0,215	85,683	0	1016,84	6,8	9	8,8	1	1	1	1	1	1	1	1	1	0	1	-7,329105	274,251281	313,429058	0
15.01.2021	19:52:59	0	0	4,858164	1,49625	303,5124	0,199	85,687	0	1016,96	6,8	9	8,7	1	1	1	1	1	1	1	1	1	0	1	-6,976744	274,212214	313,598692	0
15.01.2021	19:53:00	0	0	4,519223	1,63275	307,6164	0,202	85,703	0	1016,94	6,8	9	8,7	1	1	1	1	1	1	1	1	1	0	1	-10,641297	274,267833	310,194309	0
15.01.2021	19:53:01	0	0	4,519223	1,63275	307,6164	0,202	85,703	0	1016,94	6,8	9	8,7	1	1	1	1	1	1	1	1	1	0	1	-6,412967	274,234743	314,267834	0
15.01.2021	19:53:02	0	0	3,389417	1,71075	308,0916	0,203	85,691	0	1016,8	6,8	9	8,7	1	1	1	1	1	1	1	1	1	0	1	-6,483439	274,158252	313,839729	0
15.01.2021	19:53:03	0	0	4,519223	1,7925	310,7052	0,202	85,684	0	1016,84	6,8	9	8,7	1	1	1	1	1	1	1	1	1	0	1	-9,584214	274,270844	311,265481	0
15.01.2021	19:53:04	0	0	4,858164	1,842	303,8148	0,203	85,701	0	1016,84	6,8	9	8,7	1	1	1	1	1	1	1	1	1	0	1	-6,976744	274,218219	313,626775	0
15.01.2021	19:53:05	0	0	3,728336	1,9425	297,5184	0,197	85,699	0	1016,72	6,8	9	8,8	1	1	1	1	1	1	1	1	1	0	1	-6,765328	274,120867	313,383155	0
15.01.2021	19:53:06	0	0	4,0673	1,929	302,0364	0,201	85,698	0	1016,86	6,8	9	8,7	1	1	1	1	1	1	1	1	1	0	1	-8,386187	274,261812	312,421248	0
15.01.2021	19:53:07	0	0	2,485572	1,869	298,2492	0,2	85,701	0	1016,82	6,8	9	8,7	1	1	1	1	1	1	1	1	1	0	1	-9,161381	274,110413	310,938263	0
15.01.2021	19:53:08	0	0	4,406216	1,7625	292,5684	0,2	85,696	0	1016,76	6,8	9	8,8	1	1	1	1	1	1	1	1	1	0	1	-7,610994	274,275361	313,25984	0
15.01.2021	19:53:09	0	0	2,711534	1,73475	291,8736	0,196	85,693	0	1016,96	6,8	9	8,7	1	1	1	1	1	1	1	1	1	0	1	-9,302326	274,152266	310,992865	0
15.01.2021	19:53:10	0	0	2,824497	1,66425	282,1068	0,197	85,698	0	1016,82	6,8	9	8,8	1	1	1	1	1	1	1	1	1	0	1	-9,372798	274,152266	310,922393	0
15.01.2021	19:53:11	0	0	3,841316	1,6425	303,5124	0,2	85,69	0	1016,82	6,8	9	8,8	1	1	1	1	1	1	1	1	1	0	1	-9,090909	274,236246	311,596921	0
15.01.2021	19:53:12	0	0	4,0673	1,686	297,1728	0,197	85,703	0	1016,88	6,8	9	8,7	1	1	1	1	1	1	1	1	1	0	1	-9,020437	274,108919	311,072234	0
15.01.2021	19:53:13	0	0	4,519223	1,74975	309,834	0,203	85,702	0	1016,7	6,8	9	8,7	1	1	1	1	1	1	1	1	1	0	1	-6,272023	274,107427	313,813674	0
15.01.2021	19:53:14	0	0	4,293261	1,71375	311,5044	0,193	85,688	0	1016,8	6,8	9	8,7	1	1	1	1	1	1	1	1	1	0	1	-8,386187	274,228733	312,266502	0
15.01.2021	19:53:15	0	0	4,067276	1,731	305,7228	0,196	85,684	0	1016,58	6,8	9	8,8	1	1	1	1	1	1	1	1	1	0	1	-6,694856	274,257298	314,091459	0
15.01.2021	19:53:16	0	0	4,406216	1,62075	305,3484	0,201	85,703	0	1016,6	6,8	9	8,8	1	1	1	1	1	1	1	1	1	0	1	-8,527132	274,273855	312,336655	0
15.01.2021	19:53:17	0	0	4,406242	1,497	291,1752	0,201	85,7	0	1016,78	6,8	9	8,7	1	1	1	1	1	1	1	1	1	0	1	-6,906272	274,23324	313,7675	0
15.01.2021	19:53:18	0	0	3,389417	1,46325	292,3056	0,198	85,696	0	1016,64	6,8	9	8,7	1	1	1	1	1	1	1	1	1	0	1	-11,06413	274,134318	309,147193	0
15.01.2021	19:53:19	0	0	3,050457	1,374	287,0424	0,199	85,699	0	1016,82	6,8	9	8,8	1	1	1	1	1	1	1	1	1	0	1	-8,386187	274,258803	312,407167	0
15.01.2021	19:53:20	0	0	2,711534	1,28775	299,0124	0,198	85,712	0	1016,82	6,8	9	8,7	1	1	1	1	1	1	1	1	1	0	1	-3,030303	274,210713	317,538114	0
15.01.2021	19:53:21	0	0	4,180281	1,236	297,2016	0,2	85,713	0	1016,84	6,8	9	8,7	1	1	1	1	1	1	1	1	1	0	1	-14,094433	274,275361	306,776401	0
15.01.2021	19:53:22	0	0	2,485572	1,19325	277,5744	0,202	85,692	0	1016,8	6,8	9	8,7	1	1	1	1	1	1	1	1	1	0	1	-8,879493	274,091012	311,129537	0
15.01.2021	19:53:23	0	0	2,711534	1,212	272,1024	0,196	85,701	0	1016,84	6,8	9	8,7	1	1	1	1	1	1	1	1	1	0	1	-9,725159	274,155259	310,584019	0
15.01.2021	19:53:24	0	0	4,519223	1,25775	291,5208	0,204	85,713	0	1016,84	6,8	9	8,7	1	1	1	1	1	1	1	1	1	0	1	-8,597604	274,269338	312,245046	0
15.01.2021	19:53:25	0	0	3,163456	1,20975	288,8784	0,199	85,696	0	1016,7	6,8	9	8,7	1	1	1	1	1	1	1	1	1	0	1	-7,540521	274,144785	312,719712	0
15.01.2021	19:53:26	0	0	2,485558	1,21575	273,2004	0,197	85,699	0	1016,78	6,8	9	8,8	1	1	1	1	1	1	1	1	1	0	1	-5,567301	274,093995	314,455663	0
15.01.2021	19:53:27	0	0	2,598537	1,21275	282,1032	0,199	85,703	0	1016,74	6,8	9	8,8	1	1	1	1	1	1	1	1	1	0	1	-6,272023	274,182217	314,163159	0
15.01.2021	19:53:28	0	0	4,745155	1,19325	314,7696	0,204	85,699	0	1016,92	6,8	9	8,8	1	1	1	1	1	1	1	1	1	0	1	-10,641297	274,255794	310,137979	0
15.01.2021	19:53:29	0	0	3,502398	1,14675	317,3904	0,202	85,691	0	1016,68	6,8	9	8,7	1	1	1	1	1	1	1	1	1	0	1	-10,359408	274,120867	309,789075	0
15.01.2021	19:53:30	0	0	4,971145	1,20075	288,8352	0,202	85,693	0	1016,68	6,8	9	8,7	1	1	1	1	1	1	1	1	1	0	1	-11,839323	274,134318	308,371999	0
15.01.2021	19:53:31	0	0	3,954296	1,2255	288,054	0,197	85,702	0	1016,84	6,8	9	8,8	1	1	1	1	1	1	1	1	1	0	1	-11,134602	274,255794	309,644674	0
15.01.2021	19:53:32	0	0	4,632175	1,25925	299,4192	0,197	85,704	0	1016,8	6,8	9	8,8	1	1	1	1	1	1	1	1	1	0	1	-6,694856	274,264822	314,126664	0
15.01.2021	19:53:33	0	0	3,502398	1,2705	305,82	0,2	85,706	0	1016,8	6,8	9	8,7	1	1	1	1	1	1	1	1	1	0	1	-4,22833	274,222724	316,396258	0
15.01.2021	19:53:34	0	0	2,824514	1,34775	271,3752	0,209	85,709	0	1016,78	6,8	9	8,7	1	1	1	1	1	1	1	1	1	0	1	-10,359408	274,105934	309,719316	0
15.01.2021	19:53:35	0	0	4,293261	1,35825	281,3184	0,2	85,696	0	1016,86	6,8	9	8,7	1	1	1	1	1	1	1	1	1	0	1	-7,258633	274,237749	313,436228	0
15.01.2021	19:53:36	0	0	3,615378	1,431	285,84	0,194	85,69	0	1016,86	6,8	9	8,7	1	1	1	1	1	1	1	1	1	0	1	-7,047216	274,267833	313,788389	0
15.01.2021	19:53:37	0	0	4,632203	1,47225	286,2288	0,19	85,697	0	1016,54	6,8	9	8,7	1	1	1	1	1	1	1	1	1	0	1	-10,147992	274,230235	310,511725	0
15.01.2021	19:53:38	0	0	2,937495	1,50375	286,6032	0,196	85,699	0	1016,72	6,8	9	8,7	1	1	1	1	1	1	1	1	1	0	1	-11,980268	274,282893	308,92581	0
15.01.2021	19:53:39	0	0	3,050475	1,46625	285,4224	0,201	85,698	0	1016,9	6,8	9	8,7	1	1	1	1	1	1	1	1	1	0	1	-9,725159	274,158252	310,598009	0
15.01.2021	19:53:40	0	0	4,406242	1,419	289,6632	0,201	85,699	0	1016,84	6,8	9	8,7	1	1	1	1	1	1	1	1	1	0	1	-10,570825	274,270844	310,27887	0
15.01.2021	19:53:41	0	0	4,632203	1,404	299,3436	0,195	85,683	0	1016,72	6,8	9	8,7	1	1	1	1	1	1	1	1	1	0	1	-9,231853	274,20321	311,301479	0
15.01.2021	19:53:42	0	0	2,937477	1,35225	307,1016	0,197	85,694	0	1016,84	6,8	9	8,8	1	1	1	1	1	1	1	1	1	0	1	-9,44327	274,275361	311,427564	0
15.01.2021	19:53:43	0	0	3,050475	1,329	303,8868	0,191	85,692	0	1016,74	6,8	9	8,7	1	1	1	1	1	1	1	1	1	0	1	-7,751938	274,153762	312,550246	0
15.01.2021	19:53:44	0	0	3,163456	1,296	298,368	0,195	85,686	0	1016,66	6,8	9	8,7	1	1	1	1	1	1	1	1	1	0	1	-10,782241	274,113399	309,331354	0
15.01.2021	19:53:45	0	0	3,389397	1,1625	296,7912	0,195	85,688	0	1016,92	6,8	9	8,8	1	1	1	1	1	1	1	1	1	0	1	-9,936575	274,08952	310,065489	0
15.01.2021	19:53:46	0	0	4,971145	1,04625	298,9728	0,2	85,705	0	1016,74	6,8	9	8,7	1	1	1	1	1	1	1	1	1	0	1	-8,315715	274,23324	312,358057	0
15.01.2021	19:53:47	0	0	2,937477	1,0515	300,204	0,202	85,697	0	1016,7	6,8	9	8,8	1	1	1	1	1	1	1	1	1	0	1	-3,875969	274,129833	316,314401	0
15.01.2021	19:53:48	0	0	4,180256	1,1205	305,0424	0,199	85,693	0	1016,78	6,8	9	8,8	1	1	1	1	1	1	1	1	1	0	1	-12,544045	274,23324	308,129727	0
15.01.2021	19:53:49	0	0	4,067276	1,2315	297,8064	0,2	85,702	0	1016,8	6,8	9	8,8	1	1	1	1	1	1	1	1	1	0	1	-9,020437	274,122361	311,135026	0
15.01.2021	19:53:50	0	0	3,615378	1,314	300,4488	0,189	85,698	0	1016,72	6,8	9	8,7	1	1	1	1	1	1	1	1	1	0	1	-10,147992	274,155259	310,161186	0
15.01.2021	19:53:51	0	0	4,067276	1,2645	296,8848	0,194	85,693	0	1016,72	6,8	9	8,8	1	1	1	1	1	1	1	1	1	0	1	-11,346018	274,273855	309,517768	0
15.01.2021	19:53:52	0	0	3,389397	1,176	295,5564	0,199	85,71	0	1016,9	6,8	9	8,8	1	1	1	1	1	1	1	1	1	0	1	-9,725159	274,245266	311,004864	0
15.01.2021	19:53:53	0	0	4,293236	1,14375	289,9872	0,2	85,686	0	1016,92	6,8	9	8,8	1	1	1	1	1	1	1	1	1	0	1	-14,023961	274,276867	306,853921	0
15.01.2021	19:53:54	0	0	4,519195	1,218	283,5324	0,197	85,689	0	1016,78	6,8	9	8,8	1	1	1	1	1	1	1	1	1	0	1	-11,768851	274,206211	308,778513	0
15.01.2021	19:53:55	0	0	2,598553	1,3275	295,1316	0,199	85,7	0	1016,84	6,8	9	8,7	1	1	1	1	1	1	1	1	1	0	1	-9,161381	274,095487	310,86855	0
15.01.2021	19:53:56	0	0	3,502376	1,57425	286,9092	0,197	85,708	0	1016,92	6,8	9	8,8	1	1	1	1	1	1	1	1	1	0	1	-7,399577	274,152266	312,895613	0
15.01.2021	19:53:57	0	0	4,519223	1,7745	277,614	0,199	85,7	0	1016,88	6,8	9	8,7	1	1	1	1	1	1	1	1	1	0	1	-9,020437	274,116386	311,107111	0
15.01.2021	19:53:58	0	0	3,841316	1,88625	280,9512	0,195	85,696	0	1016,7	6,8	9	8,8	1	1	1	1	1	1	1	1	1	0	1	-9,161381	274,167235	311,203772	0
15.01.2021	19:53:59	0	0	3,050475	1,9755	273,2148	0,199	85,703	0	1016,9	6,8	9	8,7	1	1	1	1	1	1	1	1	1	0	1	-8,597604	274,27235	312,259137	0
15.01.2021	19:54:00	0	0	4,745184	1,929	294,7032	0,196	85,698	0	1016,74	6,8	9	8,7	1	1	1	1	1	1	1	1	1	0	1	-5,919662	274,105934	314,159062	0
15.01.2021	19:54:01	0	0	2,937495	2,00625	279,8244	0,199	85,713	0	1016,82	6,8	9	8,7	1	1	1	1	1	1	1	1	1	0	1	-6,272023	274,099963	313,778816	0
15.01.2021	19:54:02	0	0	4,858135	2,06325	284,5224	0,198	85,704	0	1016,82	6,8	9	8,8	1	1	1	1	1	1	1	1	1	0	1	-6,906272	274,254289	313,865966	0
15.01.2021	19:54:03	0	0	3,502398	2,08125	277,5996	0,197	85,706	0	1016,86	6,8	9	8,7	1	1	1	1	1	1	1	1	1	0	1	-12,544045	274,282893	308,362033	0
15.01.2021	19:54:04	0	0	3,050475	1,9665	285,1344	0,198	85,717	0	1016,98	6,8	9	8,7	1	1	1	1	1	1	1	1	1	0	1	-7,892882	274,129833	312,297488	0
15.01.2021	19:54:05	0	0	3,163456	1,8645	278,4672	0,197	85,713	0	1016,84	6,8	9	8,7	1	1	1	1	1	1	1	1	1	0	1	-9,866103	274,269338	310,976547	0
15.01.2021	19:54:06	0	0	3,502398	1,86225	288,1908	0,198	85,711	0	1016,84	6,8	9	8,7	1	1	1	1	1	1	1	1	1	0	1	-5,708245	274,230235	314,951471	0
15.01.2021	19:54:07	0	0	2,824514	1,896	305,4744	0,199	85,715	0	1016,84	6,8	9	8,7	1	1	1	1	1	1	1	1	1	0	1	-8,80902	274,102948	311,255759	0
15.01.2021	19:54:08	0	0	4,858164	1,7625	308,8548	0,197	85,717	0	1016,9	6,8	9	8,7	1	1	1	1	1	1	1	1	1	0	1	-10,993658	274,182217	309,441524	0
15.01.2021	19:54:09	0	0	3,389417	1,7025	302,004	0,196	85,717	0	1016,76	6,8	9	8,7	1	1	1	1	1	1	1	1	1	0	1	-9,302326	274,269338	311,540324	0
15.01.2021	19:54:10	0	0	2,824514	1,72725	312,1596	0,191	85,717	0	1016,86	6,8	9	8,7	1	1	1	1	1	1	1	1	1	0	1	-9,795631	274,146281	310,471593	0
15.01.2021	19:54:11	0	0	4,971145	1,88775	306,1044	0,193	85,716	0	1016,8	6,8	9	8,7	1	1	1	1	1	1	1	1	1	0	1	-6,906272	274,246769	313,830784	0
15.01.2021	19:54:12	0	0	3,276436	1,93275	298,3248	0,198	85,726	0	1016,94	6,8	9	8,7	1	1	1	1	1	1	1	1	1	0	1	-9,936575	274,20321	310,596757	0
15.01.2021	19:54:13	0	0	4,180256	1,90875	297,5472	0,197	85,734	0	1016,84	6,8	9	8,8	1	1	1	1	1	1	1	1	1	0	1	-7,82241	274,258803	312,970944	0
15.01.2021	19:54:14	0	0	4,0673	1,79775	296,0604	0,191	85,721	0	1016,74	6,8	9	8,7	1	1	1	1	1	1	1	1	1	0	1	-13,178295	274,159749	307,151869	0
15.01.2021	19:54:15	0	0	2,937477	1,75575	308,8584	0,2	85,732	0	1016,84	6,8	9	8,8	1	1	1	1	1	1	1	1	1	0	1	-5,637773	274,269338	315,204877	0
15.01.2021	19:54:16	0	0	4,632175	1,59975	300,4128	0,196	85,716	0	1016,82	6,8	9	8,8	1	1	1	1	1	1	1	1	1	0	1	-9,302326	274,098471	310,741543	0
15.01.2021	19:54:17	0	0	2,824514	1,608	302,4072	0,198	85,715	0	1016,84	6,8	9	8,7	1	1	1	1	1	1	1	1	1	0	1	-8,033827	274,15077	312,254371	0
15.01.2021	19:54:18	0	0	3,841316	1,539	309,5856	0,195	85,734	0	1016,76	6,8	9	8,8	1	1	1	1	1	1	1	1	1	0	1	-14,728682	274,088029	305,266417	0
15.01.2021	19:54:19	0	0	3,841339	1,53975	288,378	0,198	85,725	0	1016,64	6,8	9	8,7	1	1	1	1	1	1	1	1	1	0	1	-10,007047	274,15077	310,281151	0
15.01.2021	19:54:20	0	0	3,163456	1,49625	291,186	0,192	85,708	0	1016,7	6,8	9	8,7	1	1	1	1	1	1	1	1	1	0	1	-11,768851	274,088029	308,226248	0
15.01.2021	19:54:21	0	0	3,163437	1,47375	303,1596	0,193	85,717	0	1016,74	6,8	9	8,8	1	1	1	1	1	1	1	1	1	0	1	-16,631431	274,20321	303,901901	0
15.01.2021	19:54:22	0	0	3,276436	1,44675	280,6344	0,195	85,727	0	1016,9	6,8	9	8,7	1	1	1	1	1	1	1	1	1	0	1	-10,007047	274,102948	310,057733	0
15.01.2021	19:54:23	0	0	3,954296	1,5285	276,0948	0,197	85,727	0	1017,04	6,8	9	8,8	1	1	1	1	1	1	1	1	1	0	1	-11,698379	274,135813	308,519929	0
15.01.2021	19:54:24	0	0	2,937495	1,64025	294,0948	0,197	85,725	0	1016,9	6,8	9	8,7	1	1	1	1	1	1	1	1	1	0	1	-9,513742	274,278374	311,371187	0
15.01.2021	19:54:25	0	0	3,502398	1,69725	294,0012	0,199	85,735	0	1016,86	6,8	9	8,7	1	1	1	1	1	1	1	1	1	0	1	-7,117689	274,180718	313,310487	0
15.01.2021	19:54:26	0	0	2,711534	1,653	290,7936	0,197	85,723	0	1016,92	6,8	9	8,7	1	1	1	1	1	1	1	1	1	0	1	-12,896406	274,27235	307,960335	0
15.01.2021	19:54:27	0	0	3,841339	1,62375	292,5432	0,19	85,726	0	1016,78	6,8	9	8,7	1	1	1	1	1	1	1	1	1	0	1	-9,513742	274,224226	311,11787	0
15.01.2021	19:54:28	0	0	4,406242	1,632	292,986	0,198	85,722	0	1016,84	6,8	9	8,7	1	1	1	1	1	1	1	1	1	0	1	-9,654686	274,27988	311,237292	0
15.01.2021	19:54:29	0	0	4,745184	1,7175	294,822	0,195	85,727	0	1016,94	6,8	9	8,7	1	1	1	1	1	1	1	1	1	0	1	-8,104299	274,147777	312,169916	0
15.01.2021	19:54:30	0	0	3,502398	1,929	294,7824	0,196	85,72	0	1016,82	6,8	9	8,7	1	1	1	1	1	1	1	1	1	0	1	-9,302326	274,269338	311,540324	0
15.01.2021	19:54:31	0	0	3,728359	2,15325	288,0432	0,192	85,721	0	1016,58	6,8	9	8,7	1	1	1	1	1	1	1	1	1	0	1	-9,654686	274,171729	310,731468	0
15.01.2021	19:54:32	0	0	4,632203	2,28	292,6512	0,197	85,701	0	1016,88	6,8	9	8,7	1	1	1	1	1	1	1	1	1	0	1	-9,302326	274,269338	311,540324	0
15.01.2021	19:54:33	0	0	3,728359	2,334	300,8088	0,206	85,716	0	1016,8	6,8	9	8,7	1	1	1	1	1	1	1	1	1	0	1	-10,993658	274,19871	309,518631	0
15.01.2021	19:54:34	0	0	3,728359	2,25	287,334	0,194	85,703	0	1016,7	6,8	9	8,7	1	1	1	1	1	1	1	1	1	0	1	-10,42988	274,129833	309,76049	0
15.01.2021	19:54:35	0	0	4,519223	2,223	303,498	0,193	85,718	0	1016,84	6,8	9	8,7	1	1	1	1	1	1	1	1	1	0	1	-7,258633	274,27988	313,633345	0
15.01.2021	19:54:36	0	0	3,163456	2,3025	294,0264	0,191	85,704	0	1016,68	6,8	9	8,7	1	1	1	1	1	1	1	1	1	0	1	-9,866103	274,137308	310,359191	0
15.01.2021	19:54:37	0	0	3,728359	2,41125	302,418	0,193	85,713	0	1016,82	6,8	9	8,7	1	1	1	1	1	1	1	1	1	0	1	-7,82241	274,227231	312,823253	0
15.01.2021	19:54:38	0	0	2,824514	2,38575	297,4788	0,195	85,701	0	1016,7	6,8	9	8,7	1	1	1	1	1	1	1	1	1	0	1	-11,134602	274,114893	308,98597	0
15.01.2021	19:54:39	0	0	4,519223	2,32575	310,284	0,194	85,722	0	1017,06	6,8	9	8,7	1	1	1	1	1	1	1	1	1	0	1	-10,923185	274,257298	309,863129	0
15.01.2021	19:54:40	0	0	4,406242	2,33475	308,826	0,191	85,706	0	1016,86	6,8	9	8,7	1	1	1	1	1	1	1	1	1	0	1	-8,738548	274,147777	311,535666	0
15.01.2021	19:54:41	0	0	4,0673	2,355	311,0688	0,193	85,708	0	1016,82	6,8	9	8,7	1	1	1	1	1	1	1	1	1	0	1	-10,993658	274,237749	309,701203	0
15.01.2021	19:54:42	0	0	2,598553	2,3235	305,7444	0,197	85,7	0	1016,84	6,8	9	8,7	1	1	1	1	1	1	1	1	1	0	1	-8,45666	274,091012	311,55237	0
15.01.2021	19:54:43	0	0	3,615378	2,25975	299,3976	0,197	85,718	0	1016,6	6,8	9	8,7	1	1	1	1	1	1	1	1	1	0	1	-10,147992	274,171729	310,238163	0
15.01.2021	19:54:44	0	0	2,03365	2,19075	299,7252	0,195	85,714	0	1016,78	6,8	9	8,7	1	1	1	1	1	1	1	1	1	0	1	-8,033827	274,269338	312,808823	0
15.01.2021	19:54:45	0	0	3,502398	2,172	319,2732	0,19	85,699	0	1016,92	6,8	9	8,7	1	1	1	1	1	1	1	1	1	0	1	-8,668076	274,191211	311,809154	0
15.01.2021	19:54:46	0	0	3,95432	2,19525	318,474	0,194	85,711	0	1016,9	6,8	9	8,7	1	1	1	1	1	1	1	1	1	0	1	-13,460183	274,091012	306,548847	0
15.01.2021	19:54:47	0	0	4,745184	2,25825	310,6404	0,194	85,71	0	1016,88	6,8	9	8,7	1	1	1	1	1	1	1	1	1	0	1	-11,768851	274,207712	308,78553	0
15.01.2021	19:54:48	0	0	4,971145	2,11575	305,8164	0,186	85,714	0	1016,7	6,8	9	8,7	1	1	1	1	1	1	1	1	1	0	1	-9,44327	274,092503	310,572727	0
15.01.2021	19:54:49	0	0	3,95432	1,94025	307,6128	0,191	85,701	0	1016,86	6,8	9	8,7	1	1	1	1	1	1	1	1	1	0	1	-9,513742	274,19871	310,998547	0
15.01.2021	19:54:50	0	0	4,632203	1,782	307,584	0,189	85,711	0	1016,7	6,8	9	8,7	1	1	1	1	1	1	1	1	1	0	1	-10,570825	274,099963	309,480014	0
15.01.2021	19:54:51	0	0	4,971145	1,64475	301,1652	0,193	85,703	0	1016,82	6,8	9	8,7	1	1	1	1	1	1	1	1	1	0	1	-9,302326	274,176223	311,104837	0
15.01.2021	19:54:52	0	0	2,259611	1,587	304,2144	0,184	85,701	0	1016,8	6,8	9	8,7	1	1	1	1	1	1	1	1	1	0	1	-6,342495	274,096979	313,694405	0
15.01.2021	19:54:53	0	0	3,276417	1,4595	315,4968	0,191	85,704	0	1016,66	6,8	9	8,8	1	1	1	1	1	1	1	1	1	0	1	-10,852713	274,174725	309,547446	0
15.01.2021	19:54:54	0	0	4,632203	1,41075	314,1036	0,193	85,706	0	1016,96	6,8	9	8,7	1	1	1	1	1	1	1	1	1	0	1	-11,205074	274,255794	309,574202	0
15.01.2021	19:54:55	0	0	3,615378	1,46625	310,7232	0,189	85,704	0	1016,62	6,8	9	8,7	1	1	1	1	1	1	1	1	1	0	1	-3,24172	274,246769	317,495337	0
15.01.2021	19:54:56	0	0	4,971145	1,5195	317,0268	0,195	85,72	0	1016,94	6,8	9	8,7	1	1	1	1	1	1	1	1	1	0	1	-10,641297	274,248273	310,102795	0
15.01.2021	19:54:57	0	0	3,050475	1,569	307,5588	0,192	85,718	0	1016,62	6,8	9	8,7	1	1	1	1	1	1	1	1	1	0	1	-9,372798	274,167235	310,992355	0
15.01.2021	19:54:58	0	0	2,711534	1,698	332,3772	0,192	85,709	0	1016,96	6,8	9	8,7	1	1	1	1	1	1	1	1	1	0	1	-10,147992	274,257298	310,638323	0
15.01.2021	19:54:59	0	0	3,615378	1,7715	320,3928	0,192	85,694	0	1016,76	6,8	9	8,7	1	1	1	1	1	1	1	1	1	0	1	-9,513742	274,129833	310,676628	0
15.01.2021	19:55:00	0	0	4,519223	1,9755	303,4008	0,191	85,721	0	1016,8	6,8	9	8,7	1	1	1	1	1	1	1	1	1	0	1	-7,047216	274,091012	312,961814	0
15.01.2021	19:55:01	0	0	4,519223	1,9755	303,4008	0,191	85,721	0	1016,8	6,8	9	8,7	1	1	1	1	1	1	1	1	1	0	1	-13,601128	274,218219	307,002391	0
15.01.2021	19:55:02	0	0	3,728359	2,136	307,1988	0,195	85,72	0	1016,62	6,8	9	8,7	1	1	1	1	1	1	1	1	1	0	1	-7,963354	274,119373	312,17815	0
15.01.2021	19:55:03	0	0	4,519223	2,28	310,3596	0,191	85,708	0	1016,78	6,8	9	8,7	1	1	1	1	1	1	1	1	1	0	1	-9,866103	274,077591	310,080259	0
15.01.2021	19:55:04	0	0	4,632203	2,217	301,6296	0,189	85,703	0	1016,82	6,8	8,8	8,7	1	1	1	1	1	1	1	1	1	0	1	-8,174771	274,119373	311,966733	0
15.01.2021	19:55:05	0	0	3,163456	2,18925	308,0556	0,191	85,721	0	1016,92	6,7	9	8,7	1	1	1	1	1	1	1	1	1	0	1	-8,949965	274,101456	311,107844	0
15.01.2021	19:55:06	0	0	2,598553	2,13975	316,71	0,188	85,701	0	1016,74	6,8	9	8,7	1	1	1	1	1	1	1	1	1	0	1	-11,486963	274,128339	308,696424	0
15.01.2021	19:55:07	0	0	3,728336	2,1105	300,222	0,195	85,723	0	1016,86	6,8	9	8,8	1	1	1	1	1	1	1	1	1	0	1	-12,825934	274,269338	308,016716	0
15.01.2021	19:55:08	0	0	3,163456	2,0715	303,5592	0,194	85,711	0	1017	6,8	9	8,7	1	1	1	1	1	1	1	1	1	0	1	-7,963354	274,185214	312,485841	0
15.01.2021	19:55:09	0	0	2,598537	2,022	306,8244	0,191	85,718	0	1016,72	6,8	9	8,8	1	1	1	1	1	1	1	1	1	0	1	-11,06413	274,080573	308,896154	0
15.01.2021	19:55:10	0	0	4,406242	2,0415	294,444	0,187	85,705	0	1016,8	6,8	9	8,7	1	1	1	1	1	1	1	1	1	0	1	-7,470049	274,14329	312,783195	0
15.01.2021	19:55:11	0	0	4,406242	2,04075	292,9644	0,189	85,713	0	1016,8	6,8	9	8,7	1	1	1	1	1	1	1	1	1	0	1	-8,174771	274,260308	312,625624	0
15.01.2021	19:55:12	0	0	3,050475	2,031	296,064	0,189	85,701	0	1016,68	6,8	9	8,7	1	1	1	1	1	1	1	1	1	0	1	-9,090909	274,176223	311,316253	0
15.01.2021	19:55:13	0	0	4,632203	2,07825	302,472	0,194	85,715	0	1016,9	6,8	9	8,7	1	1	1	1	1	1	1	1	1	0	1	-7,751938	274,254289	313,0203	0
15.01.2021	19:55:14	0	0	3,615378	2,133	302,832	0,191	85,712	0	1016,8	6,8	9	8,7	1	1	1	1	1	1	1	1	1	0	1	-10,147992	274,242259	310,567964	0
15.01.2021	19:55:15	0	0	4,406242	2,2035	296,0532	0,188	85,708	0	1016,7	6,8	9	8,7	1	1	1	1	1	1	1	1	1	0	1	-12,191684	274,215217	308,397792	0
15.01.2021	19:55:16	0	0	3,502376	2,1705	301,806	0,186	85,699	0	1016,78	6,8	9	8,8	1	1	1	1	1	1	1	1	1	0	1	-13,107822	274,258803	307,685532	0
15.01.2021	19:55:17	0	0	3,841339	2,11875	306,8064	0,19	85,706	0	1016,84	6,8	9	8,7	1	1	1	1	1	1	1	1	1	0	1	-9,725159	274,249777	311,025968	0
15.01.2021	19:55:18	0	0	4,632203	2,067	300,7368	0,195	85,699	0	1016,72	6,8	9	8,7	1	1	1	1	1	1	1	1	1	0	1	-9,584214	274,222724	311,040374	0
15.01.2021	19:55:19	0	0	4,745184	2,05125	307,2024	0,191	85,712	0	1016,84	6,8	9	8,7	1	1	1	1	1	1	1	1	1	0	1	-6,20155	274,091012	313,80748	0
15.01.2021	19:55:20	0	0	4,406242	2,12625	303,1884	0,185	85,692	0	1016,88	6,8	9	8,7	1	1	1	1	1	1	1	1	1	0	1	-8,104299	274,231738	312,562445	0
15.01.2021	19:55:21	0	0	4,180281	2,17425	301,5684	0,194	85,702	0	1016,92	6,8	9	8,7	1	1	1	1	1	1	1	1	1	0	1	-8,104299	274,079082	311,849023	0
15.01.2021	19:55:22	0	0	4,745184	2,17875	301,5324	0,193	85,699	0	1016,82	6,8	9	8,7	1	1	1	1	1	1	1	1	1	0	1	-8,949965	274,152266	311,345226	0
15.01.2021	19:55:23	0	0	3,389397	2,1105	298,3212	0,185	85,692	0	1016,7	6,8	9	8,8	1	1	1	1	1	1	1	1	1	0	1	-11,627907	274,088029	308,367192	0
15.01.2021	19:55:24	0	0	3,95432	2,09625	300,42	0,191	85,692	0	1016,82	6,8	9	8,7	1	1	1	1	1	1	1	1	1	0	1	-6,342495	274,158252	313,980673	0
15.01.2021	19:55:25	0	0	2,259611	2,04825	297,6264	0,19	85,697	0	1016,88	6,8	9	8,7	1	1	1	1	1	1	1	1	1	0	1	-6,8358	274,258803	313,957555	0
15.01.2021	19:55:26	0	0	4,519223	2,06925	296,8092	0,189	85,682	0	1016,86	6,8	9	8,7	1	1	1	1	1	1	1	1	1	0	1	-11,627907	274,177721	308,786259	0
15.01.2021	19:55:27	0	0	3,276436	2,0565	291,546	0,19	85,682	0	1016,82	6,8	9	8,7	1	1	1	1	1	1	1	1	1	0	1	-8,174771	274,086537	311,813364	0
15.01.2021	19:55:28	0	0	3,389417	1,9905	299,7756	0,184	85,688	0	1016,86	6,8	9	8,7	1	1	1	1	1	1	1	1	1	0	1	-7,188161	274,20021	313,331142	0
15.01.2021	19:55:29	0	0	5,197106	2,001	296,5176	0,19	85,698	0	1016,94	6,8	9	8,7	1	1	1	1	1	1	1	1	1	0	1	-6,765328	274,273855	314,098459	0
15.01.2021	19:55:30	0	0	3,728359	2,0115	297,5184	0,192	85,685	0	1016,84	6,8	9	8,7	1	1	1	1	1	1	1	1	1	0	1	-7,047216	274,159749	313,282947	0
15.01.2021	19:55:31	0	0	2,937477	2,02125	300,2256	0,194	85,695	0	1016,88	6,8	9	8,8	1	1	1	1	1	1	1	1	1	0	1	-10,570825	274,079082	309,382498	0
15.01.2021	19:55:32	0	0	3,163456	2,0205	291,8412	0,183	85,677	0	1016,84	6,8	9	8,7	1	1	1	1	1	1	1	1	1	0	1	-14,164905	274,146281	306,102319	0
15.01.2021	19:55:33	0	0	3,163456	2,0355	303,4512	0,19	85,696	0	1016,82	6,8	9	8,7	1	1	1	1	1	1	1	1	1	0	1	-11,06413	274,085046	308,917041	0
15.01.2021	19:55:34	0	0	3,615378	2,02275	301,2444	0,185	85,679	0	1016,84	6,8	9	8,7	1	1	1	1	1	1	1	1	1	0	1	-10,570825	274,132823	309,633513	0
15.01.2021	19:55:35	0	0	3,276436	1,9905	288,4716	0,188	85,686	0	1016,8	6,8	9	8,7	1	1	1	1	1	1	1	1	1	0	1	-13,248767	274,257298	307,537548	0
15.01.2021	19:55:36	0	0	4,971145	1,9035	283,5396	0,186	85,687	0	1016,74	6,8	9	8,7	1	1	1	1	1	1	1	1	1	0	1	-7,117689	274,116386	313,00986	0
15.01.2021	19:55:37	0	0	3,615378	1,88625	285,1452	0,184	85,696	0	1016,82	6,8	9	8,7	1	1	1	1	1	1	1	1	1	0	1	-11,134602	274,258803	309,658753	0
15.01.2021	19:55:38	0	0	3,050475	1,9515	298,98	0,188	85,689	0	1016,96	6,8	9	8,7	1	1	1	1	1	1	1	1	1	0	1	-8,033827	274,096979	312,003073	0
15.01.2021	19:55:39	0	0	4,858164	2,0355	295,1388	0,187	85,688	0	1016,9	6,9	9	8,7	1	1	1	1	1	1	1	1	1	0	1	-8,174771	274,132823	312,029567	0
15.01.2021	19:55:40	0	0	3,050475	1,97625	299,7072	0,188	85,69	0	1016,84	6,8	9	8,7	1	1	1	1	1	1	1	1	1	0	1	-7,470049	274,11788	312,664477	0
15.01.2021	19:55:41	0	0	3,163456	1,95675	300,816	0,192	85,687	0	1016,86	6,8	9	8,7	1	1	1	1	1	1	1	1	1	0	1	-4,721635	274,224226	315,909977	0
15.01.2021	19:55:42	0	0	4,406242	1,8885	298,584	0,187	85,676	0	1016,68	6,8	9	8,7	1	1	1	1	1	1	1	1	1	0	1	-5,073996	274,231738	315,592748	0
15.01.2021	19:55:43	0	0	2,598537	1,875	293,6448	0,184	85,684	0	1016,96	6,8	8,8	8,8	1	1	1	1	1	1	1	1	1	0	1	-10,147992	274,20321	310,385341	0
15.01.2021	19:55:44	0	0	2,485572	1,73325	320,0004	0,19	85,693	0	1016,86	6,9	9	8,7	1	1	1	1	1	1	1	1	1	0	1	-10,359408	274,249777	310,391719	0
15.01.2021	19:55:45	0	0	4,519223	1,58775	319,2336	0,187	85,692	0	1016,82	6,8	9	8,7	1	1	1	1	1	1	1	1	1	0	1	-11,275546	274,111906	308,831073	0
15.01.2021	19:55:46	0	0	5,084095	1,482	318,51	0,187	85,695	0	1016,9	6,8	9	8,8	1	1	1	1	1	1	1	1	1	0	1	-8,949965	274,245266	311,780057	0
15.01.2021	19:55:47	0	0	3,728359	1,446	316,2852	0,186	85,684	0	1016,88	6,8	9	8,7	1	1	1	1	1	1	1	1	1	0	1	-11,768851	274,099963	308,281987	0
15.01.2021	19:55:48	0	0	3,276436	1,4655	304,2504	0,181	85,676	0	1016,88	6,8	9	8,7	1	1	1	1	1	1	1	1	1	0	1	-10,570825	274,114893	309,549747	0
15.01.2021	19:55:49	0	0	2,824514	1,58175	307,2672	0,184	85,681	0	1016,78	6,8	9	8,7	1	1	1	1	1	1	1	1	1	0	1	-11,346018	274,110413	308,753626	0
15.01.2021	19:55:50	0	0	3,050475	1,6275	315,1944	0,188	85,691	0	1016,7	6,8	9	8,7	1	1	1	1	1	1	1	1	1	0	1	-11,839323	274,107427	308,246373	0
15.01.2021	19:55:51	0	0	3,050475	1,6005	319,2336	0,19	85,682	0	1016,88	6,8	9	8,7	1	1	1	1	1	1	1	1	1	0	1	-7,188161	274,209212	313,373238	0
15.01.2021	19:55:52	0	0	4,858164	1,47225	317,7756	0,187	85,681	0	1016,92	6,8	9	8,7	1	1	1	1	1	1	1	1	1	0	1	-6,906272	274,126844	313,270133	0
15.01.2021	19:55:53	0	0	3,615378	1,39725	321,12	0,19	85,705	0	1016,92	6,8	9	8,7	1	1	1	1	1	1	1	1	1	0	1	-9,795631	274,107427	310,290066	0
15.01.2021	19:55:54	0	0	3,050457	1,37025	307,1844	0,188	85,694	0	1016,96	6,8	9	8,8	1	1	1	1	1	1	1	1	1	0	1	-12,473573	274,110413	307,626072	0
15.01.2021	19:55:55	0	0	4,293261	1,26675	302,7384	0,187	85,679	0	1016,94	6,8	9	8,7	1	1	1	1	1	1	1	1	1	0	1	-8,45666	274,079082	311,496662	0
15.01.2021	19:55:56	0	0	2,259611	1,20975	302,49	0,189	85,681	0	1016,88	6,8	9	8,7	1	1	1	1	1	1	1	1	1	0	1	-11,134602	274,177721	309,279564	0
15.01.2021	19:55:57	0	0	2,824514	1,18875	298,7136	0,185	85,681	0	1016,82	6,8	9	8,7	1	1	1	1	1	1	1	1	1	0	1	-9,936575	274,095487	310,093356	0
15.01.2021	19:55:58	0	0	4,632203	1,1805	292,2372	0,182	85,681	0	1016,84	6,8	9	8,7	1	1	1	1	1	1	1	1	1	0	1	-9,090909	274,239252	311,610983	0
15.01.2021	19:55:59	0	0	3,841339	1,2645	288,4572	0,193	85,699	0	1016,9	6,8	9	8,7	1	1	1	1	1	1	1	1	1	0	1	-7,751938	274,092503	312,264059	0
15.01.2021	19:56:00	0	0	2,711534	1,28925	298,2492	0,188	85,693	0	1016,94	6,8	9	8,7	1	1	1	1	1	1	1	1	1	0	1	-9,513742	274,080573	310,446541	0
15.01.2021	19:56:01	0	0	3,615378	1,34475	296,064	0,183	85,696	0	1016,72	6,9	9	8,7	1	1	1	1	1	1	1	1	1	0	1	-11,205074	274,207712	309,349307	0
15.01.2021	19:56:02	0	0	3,389417	1,3875	289,9728	0,189	85,701	0	1016,78	6,9	9	8,7	1	1	1	1	1	1	1	1	1	0	1	-7,610994	274,215217	312,978483	0
15.01.2021	19:56:03	0	0	2,485572	1,43925	309,5748	0,187	85,698	0	1016,68	6,8	9	8,7	1	1	1	1	1	1	1	1	1	0	1	-8,245243	274,258803	312,548111	0
15.01.2021	19:56:04	0	0	5,084125	1,47675	313,1964	0,192	85,698	0	1016,86	6,8	9	8,7	1	1	1	1	1	1	1	1	1	0	1	-7,399577	274,224226	313,232035	0
15.01.2021	19:56:05	0	0	2,824514	1,47225	300,8124	0,184	85,691	0	1016,8	6,8	9	8,7	1	1	1	1	1	1	1	1	1	0	1	-4,22833	274,098471	315,815539	0
15.01.2021	19:56:06	0	0	4,745184	1,39875	312,4656	0,182	85,691	0	1016,8	6,8	9	8,7	1	1	1	1	1	1	1	1	1	0	1	-10,923185	274,254289	309,849052	0
15.01.2021	19:56:07	0	0	4,745184	1,3395	308,862	0,187	85,692	0	1016,8	6,8	9	8,7	1	1	1	1	1	1	1	1	1	0	1	-12,896406	274,209212	307,664993	0
15.01.2021	19:56:08	0	0	4,745184	1,28775	297,1692	0,185	85,702	0	1016,86	6,7	9	8,7	1	1	1	1	1	1	1	1	1	0	1	-8,174771	274,254289	312,597467	0
15.01.2021	19:56:09	0	0	3,502398	1,25775	307,2528	0,187	85,702	0	1016,86	6,7	9	8,7	1	1	1	1	1	1	1	1	1	0	1	-6,694856	274,212214	313,880581	0
15.01.2021	19:56:10	0	0	4,745184	1,37775	304,6356	0,177	85,692	0	1017,04	6,9	9	8,7	1	1	1	1	1	1	1	1	1	0	1	-9,654686	274,086537	310,333448	0
15.01.2021	19:56:11	0	0	4,858164	1,61625	303,48	0,187	85,7	0	1016,96	6,7	9	8,7	1	1	1	1	1	1	1	1	1	0	1	-12,896406	274,221223	307,721158	0
15.01.2021	19:56:12	0	0	2,937495	1,77975	300,6	0,19	85,708	0	1016,8	6,7	9	8,7	1	1	1	1	1	1	1	1	1	0	1	-11,275546	274,113399	308,838049	0
15.01.2021	19:56:13	0	0	4,632203	1,87125	303,5556	0,186	85,711	0	1016,86	6,8	9	8,7	1	1	1	1	1	1	1	1	1	0	1	-11,205074	274,074611	308,727368	0
15.01.2021	19:56:14	0	0	4,519223	1,97925	303,1956	0,179	85,704	0	1016,96	6,7	9	8,7	1	1	1	1	1	1	1	1	1	0	1	-7,470049	274,137308	312,755244	0
15.01.2021	19:56:15	0	0	3,615378	2,106	309,2616	0,187	85,706	0	1016,82	6,8	9	8,7	1	1	1	1	1	1	1	1	1	0	1	-9,020437	274,07163	310,898089	0
15.01.2021	19:56:16	0	0	4,0673	2,154	299,772	0,188	85,7	0	1016,82	6,8	9	8,7	1	1	1	1	1	1	1	1	1	0	1	-10,359408	274,138803	309,872872	0
15.01.2021	19:56:17	0	0	4,180281	2,0955	296,838	0,183	85,698	0	1016,78	6,8	9	8,7	1	1	1	1	1	1	1	1	1	0	1	-11,06413	274,080573	308,896154	0
15.01.2021	19:56:18	0	0	4,519223	2,09625	292,716	0,179	85,703	0	1016,8	6,8	9	8,7	1	1	1	1	1	1	1	1	1	0	1	-11,346018	274,123856	308,816424	0
15.01.2021	19:56:19	0	0	3,502398	2,0805	293,706	0,182	85,702	0	1016,86	6,8	9	8,7	1	1	1	1	1	1	1	1	1	0	1	-6,8358	274,08952	313,166264	0
15.01.2021	19:56:20	0	0	3,502398	2,1225	293,2992	0,183	85,706	0	1016,9	6,8	9	8,7	1	1	1	1	1	1	1	1	1	0	1	-9,302326	274,176223	311,104837	0
15.01.2021	19:56:21	0	0	4,745184	2,055	299,376	0,183	85,711	0	1016,92	6,8	9	8,7	1	1	1	1	1	1	1	1	1	0	1	-8,315715	274,222724	312,308873	0
15.01.2021	19:56:22	0	0	2,824514	1,9875	290,4084	0,185	85,708	0	1016,74	6,8	9	8,7	1	1	1	1	1	1	1	1	1	0	1	-9,654686	274,12535	310,514737	0
15.01.2021	19:56:23	0	0	4,632203	1,86375	295,1928	0,186	85,699	0	1016,86	6,8	9	8,7	1	1	1	1	1	1	1	1	1	0	1	-7,117689	274,080573	312,842595	0
15.01.2021	19:56:24	0	0	4,0673	1,74825	290,0412	0,185	85,704	0	1016,9	6,9	9	8,7	1	1	1	1	1	1	1	1	1	0	1	-8,315715	274,113399	311,79788	0
15.01.2021	19:56:25	0	0	3,841339	1,71525	297,9036	0,183	85,717	0	1016,8	6,8	8,8	8,7	1	1	1	1	1	1	1	1	1	0	1	-9,866103	274,19871	310,646186	0
15.01.2021	19:56:26	0	0	3,389417	1,75575	299,0772	0,182	85,719	0	1016,82	6,8	9	8,7	1	1	1	1	1	1	1	1	1	0	1	-7,82241	274,249777	312,928717	0
15.01.2021	19:56:27	0	0	3,95432	1,84125	294,12	0,186	85,717	0	1016,82	6,7	9	8,7	1	1	1	1	1	1	1	1	1	0	1	-7,047216	274,132823	313,157121	0
15.01.2021	19:56:28	0	0	4,180281	1,82925	299,8188	0,184	85,711	0	1016,84	6,7	9	8,7	1	1	1	1	1	1	1	1	1	0	1	-9,866103	274,093995	310,156861	0
15.01.2021	19:56:29	0	0	3,276436	1,73325	304,6392	0,179	85,705	0	1016,82	6,9	8,8	8,7	1	1	1	1	1	1	1	1	1	0	1	-10,007047	274,11788	310,127479	0
15.01.2021	19:56:30	0	0	2,937495	1,677	296,838	0,185	85,699	0	1016,68	6,7	9	8,7	1	1	1	1	1	1	1	1	1	0	1	-10,782241	274,243762	309,940748	0
15.01.2021	19:56:31	0	0	2,711534	1,69575	309,2184	0,184	85,725	0	1017	6,8	9	8,7	1	1	1	1	1	1	1	1	1	0	1	-11,346018	274,213715	309,236438	0
15.01.2021	19:56:32	0	0	2,372592	1,78875	306,0792	0,183	85,718	0	1016,72	6,7	9	8,7	1	1	1	1	1	1	1	1	1	0	1	-10,288936	274,093995	309,734028	0
15.01.2021	19:56:33	0	0	2,485572	1,87575	306,1152	0,187	85,726	0	1016,98	6,8	9	8,7	1	1	1	1	1	1	1	1	1	0	1	-10,007047	274,251281	310,751116	0
15.01.2021	19:56:34	0	0	2,824514	1,82175	303,2244	0,181	85,731	0	1016,78	6,8	9	8,7	1	1	1	1	1	1	1	1	1	0	1	-13,530655	274,098471	306,513213	0
15.01.2021	19:56:35	0	0	4,971145	1,7265	296,4384	0,178	85,727	0	1016,76	6,8	9	8,7	1	1	1	1	1	1	1	1	1	0	1	-9,866103	274,086537	310,122032	0
15.01.2021	19:56:36	0	0	2,711534	1,60725	308,0268	0,181	85,728	0	1016,84	6,8	9	8,7	1	1	1	1	1	1	1	1	1	0	1	-6,20155	274,088029	313,793549	0
15.01.2021	19:56:37	0	0	2,485572	1,46025	311,3784	0,179	85,714	0	1016,88	6,8	9	8,7	1	1	1	1	1	1	1	1	1	0	1	-10,359408	274,098471	309,684461	0
15.01.2021	19:56:38	0	0	3,502398	1,42425	312,8688	0,179	85,716	0	1016,9	6,9	9	8,7	1	1	1	1	1	1	1	1	1	0	1	-7,681466	274,129833	312,508904	0
15.01.2021	19:56:39	0	0	4,519223	1,602	301,14	0,184	85,706	0	1016,74	6,7	9	8,7	1	1	1	1	1	1	1	1	1	0	1	-10,288936	274,07312	309,636548	0
15.01.2021	19:56:40	0	0	4,632203	1,785	312,7932	0,179	85,705	0	1016,72	6,7	9	8,7	1	1	1	1	1	1	1	1	1	0	1	-8,80902	274,132823	311,395317	0
15.01.2021	19:56:41	0	0	4,632203	1,845	308,448	0,178	85,71	0	1017,08	6,8	9	8,7	1	1	1	1	1	1	1	1	1	0	1	-8,597604	274,248273	312,146487	0
15.01.2021	19:56:42	0	0	3,728336	1,8705	298,9944	0,183	85,725	0	1017	6,8	9	8,8	1	1	1	1	1	1	1	1	1	0	1	-5,84919	274,128339	314,334198	0
15.01.2021	19:56:43	0	0	2,711534	1,86	300,4272	0,181	85,715	0	1016,84	6,8	9	8,7	1	1	1	1	1	1	1	1	1	0	1	-6,624383	274,249777	314,126744	0
15.01.2021	19:56:44	0	0	3,163456	1,9035	301,6188	0,174	85,731	0	1016,92	6,8	9	8,7	1	1	1	1	1	1	1	1	1	0	1	-10,993658	274,19721	309,511618	0
15.01.2021	19:56:45	0	0	3,841339	1,971	302,8536	0,181	85,723	0	1016,92	6,8	9	8,7	1	1	1	1	1	1	1	1	1	0	1	-8,245243	274,099963	311,805595	0
15.01.2021	19:56:46	0	0	4,180281	2,05275	314,4636	0,181	85,71	0	1016,86	6,8	9	8,7	1	1	1	1	1	1	1	1	1	0	1	-10,007047	274,252785	310,758153	0
15.01.2021	19:56:47	0	0	2,824514	2,05275	303,8796	0,176	85,711	0	1016,66	6,7	8,8	8,7	1	1	1	1	1	1	1	1	1	0	1	-8,033827	274,185214	312,415368	0
15.01.2021	19:56:48	0	0	4,745184	2,07675	294,75	0,182	85,73	0	1016,84	6,7	9	8,7	1	1	1	1	1	1	1	1	1	0	1	-8,245243	274,255794	312,534033	0
15.01.2021	19:56:49	0	0	3,841339	2,0955	293,3352	0,173	85,722	0	1016,86	6,9	9	8,7	1	1	1	1	1	1	1	1	1	0	1	-9,936575	274,236246	310,751255	0
15.01.2021	19:56:50	0	0	3,502398	2,094	315,8784	0,18	85,725	0	1016,86	6,8	9	8,7	1	1	1	1	1	1	1	1	1	0	1	-7,188161	274,231738	313,478583	0
15.01.2021	19:56:51	0	0	3,502398	1,97475	320,7132	0,183	85,736	0	1016,7	6,8	9	8,7	1	1	1	1	1	1	1	1	1	0	1	-6,624383	274,131328	313,57297	0
15.01.2021	19:56:52	0	0	4,406242	1,75875	314,8344	0,184	85,73	0	1016,86	6,7	9	8,7	1	1	1	1	1	1	1	1	1	0	1	-14,164905	274,12535	306,004519	0
15.01.2021	19:56:53	0	0	4,632203	1,5435	297,936	0,183	85,726	0	1016,92	6,8	9	8,7	1	1	1	1	1	1	1	1	1	0	1	-7,258633	274,06716	312,639023	0
15.01.2021	19:56:54	0	0	4,519195	1,43775	298,6776	0,185	85,727	0	1016,94	6,8	9	8,8	1	1	1	1	1	1	1	1	1	0	1	-7,963354	274,180718	312,464821	0
15.01.2021	19:56:55	0	0	4,519223	1,365	321,1524	0,176	85,718	0	1016,52	6,8	9	8,7	1	1	1	1	1	1	1	1	1	0	1	-6,483439	274,06567	313,407261	0
15.01.2021	19:56:56	0	0	2,146631	1,32675	305,7156	0,177	85,723	0	1017,02	6,8	8,8	8,7	1	1	1	1	1	1	1	1	1	0	1	-13,389711	274,189712	307,080509	0
15.01.2021	19:56:57	0	0	4,632203	1,2165	306,126	0,183	85,72	0	1016,7	6,9	9	8,7	1	1	1	1	1	1	1	1	1	0	1	-4,298802	274,149273	315,982404	0
15.01.2021	19:56:58	0	0	4,632203	1,152	311,0436	0,18	85,728	0	1017	6,8	9	8,7	1	1	1	1	1	1	1	1	1	0	1	-11,41649	274,076101	308,522911	0
15.01.2021	19:56:59	0	0	3,615378	1,17375	316,296	0,176	85,706	0	1016,76	6,8	9	8,7	1	1	1	1	1	1	1	1	1	0	1	-9,936575	274,141794	310,309681	0
15.01.2021	19:57:00	0	0	2,711517	1,392	289,2312	0,174	85,725	0	1016,9	6,7	9	8,8	1	1	1	1	1	1	1	1	1	0	1	-12,614517	274,254289	308,15772	0
15.01.2021	19:57:01	0	0	2,711517	1,392	289,2312	0,174	85,725	0	1016,9	6,7	9	8,8	1	1	1	1	1	1	1	1	1	0	1	-11,06413	274,204711	309,476218	0
15.01.2021	19:57:02	0	0	3,389417	1,54275	305,7552	0,176	85,722	0	1016,84	6,7	9	8,7	1	1	1	1	1	1	1	1	1	0	1	-9,725159	274,119373	310,416346	0
15.01.2021	19:57:03	0	0	4,406242	1,6575	302,7636	0,178	85,712	0	1016,7	6,9	9	8,7	1	1	1	1	1	1	1	1	1	0	1	-12,403101	274,079082	307,550221	0
15.01.2021	19:57:04	0	0	2,711517	1,89225	317,7504	0,179	85,727	0	1016,9	6,9	9	8,8	1	1	1	1	1	1	1	1	1	0	1	-8,879493	274,158252	311,443675	0
15.01.2021	19:57:05	0	0	4,632203	1,97175	307,2132	0,172	85,709	0	1016,8	6,7	9	8,7	1	1	1	1	1	1	1	1	1	0	1	-14,799154	274,06716	305,098501	0
15.01.2021	19:57:06	0	0	4,0673	1,9575	309,2004	0,177	85,73	0	1016,9	6,7	9	8,7	1	1	1	1	1	1	1	1	1	0	1	-8,879493	274,155259	311,429685	0
15.01.2021	19:57:07	0	0	2,485572	1,85175	310,2948	0,179	85,727	0	1016,92	6,7	9	8,7	1	1	1	1	1	1	1	1	1	0	1	-6,20155	274,06865	313,703061	0
15.01.2021	19:57:08	0	0	2,711534	1,7685	296,8524	0,175	85,732	0	1016,92	6,7	9	8,7	1	1	1	1	1	1	1	1	1	0	1	-8,949965	274,093995	311,072999	0
15.01.2021	19:57:09	0	0	3,841339	1,73475	295,2252	0,174	85,731	0	1016,8	6,7	9	8,7	1	1	1	1	1	1	1	1	1	0	1	-8,315715	274,147777	311,958499	0
15.01.2021	19:57:10	0	0	4,519223	1,788	307,1664	0,175	85,724	0	1016,88	6,8	9	8,7	1	1	1	1	1	1	1	1	1	0	1	-11,980268	274,228733	308,672421	0
15.01.2021	19:57:11	0	0	2,598553	1,8105	306,2196	0,182	85,728	0	1016,84	6,8	9	8,7	1	1	1	1	1	1	1	1	1	0	1	-9,866103	274,254289	310,906135	0
15.01.2021	19:57:12	0	0	4,519223	1,8675	307,5804	0,174	85,715	0	1016,94	6,7	9	8,7	1	1	1	1	1	1	1	1	1	0	1	-8,45666	274,129833	311,73371	0
15.01.2021	19:57:13	0	0	4,0673	1,83075	315,792	0,173	85,72	0	1016,84	6,9	8,8	8,7	1	1	1	1	1	1	1	1	1	0	1	-10,288936	274,056734	309,560046	0
15.01.2021	19:57:14	0	0	4,971145	1,851	324,3564	0,174	85,708	0	1016,8	6,8	9	8,7	1	1	1	1	1	1	1	1	1	0	1	-10,641297	274,07014	309,270272	0
15.01.2021	19:57:15	0	0	4,519223	1,80075	321,84	0,178	85,73	0	1017	6,8	9	8,7	1	1	1	1	1	1	1	1	1	0	1	-11,205074	274,149273	309,076132	0
15.01.2021	19:57:16	0	0	2,937495	1,67175	315,1116	0,166	85,715	0	1016,84	6,8	9	8,7	1	1	1	1	1	1	1	1	1	0	1	-7,188161	274,088029	312,806938	0
15.01.2021	19:57:17	0	0	3,615378	1,5765	314,4168	0,176	85,727	0	1016,84	6,7	9	8,7	1	1	1	1	1	1	1	1	1	0	1	-6,765328	274,153762	313,536856	0
15.01.2021	19:57:18	0	0	2,711534	1,56675	323,0064	0,177	85,734	0	1016,86	6,9	9	8,7	1	1	1	1	1	1	1	1	1	0	1	-6,412967	274,07014	313,498602	0
15.01.2021	19:57:19	0	0	4,971145	1,57275	328,4892	0,172	85,718	0	1016,68	6,8	9	8,7	1	1	1	1	1	1	1	1	1	0	1	-8,033827	274,204711	312,506521	0
15.01.2021	19:57:20	0	0	3,502376	1,54425	317,1924	0,172	85,733	0	1016,98	6,8	9	8,8	1	1	1	1	1	1	1	1	1	0	1	-13,389711	274,216718	307,206786	0
15.01.2021	19:57:21	0	0	3,050475	1,53525	304,254	0,171	85,713	0	1016,88	6,8	9	8,7	1	1	1	1	1	1	1	1	1	0	1	-6,694856	274,077591	313,251506	0
15.01.2021	19:57:22	0	0	3,95432	1,61025	312,1416	0,174	85,718	0	1016,76	6,7	9	8,7	1	1	1	1	1	1	1	1	1	0	1	-9,866103	274,128339	310,317284	0
15.01.2021	19:57:23	0	0	4,519195	1,662	311,4108	0,174	85,722	0	1016,94	6,8	9	8,8	1	1	1	1	1	1	1	1	1	0	1	-10,147992	274,215217	310,441485	0
15.01.2021	19:57:24	0	0	2,372592	1,6425	317,7288	0,168	85,734	0	1016,9	6,7	8,8	8,7	1	1	1	1	1	1	1	1	1	0	1	-11,768851	274,07312	308,156632	0
15.01.2021	19:57:25	0	0	4,293236	1,68375	326,376	0,173	85,745	0	1016,96	6,8	9	8,8	1	1	1	1	1	1	1	1	1	0	1	-6,8358	274,091012	313,17323	0
15.01.2021	19:57:26	0	0	3,95432	1,728	318,0744	0,176	85,774	0	1017,18	6,8	8,8	8,7	1	1	1	1	1	1	1	1	1	0	1	-7,047216	274,19571	313,451047	0
15.01.2021	19:57:27	0	0	4,0673	1,74075	317,7432	0,179	85,732	0	1016,86	6,8	8,8	8,7	1	1	1	1	1	1	1	1	1	0	1	-12,614517	274,231738	308,052226	0
15.01.2021	19:57:28	0	0	2,937495	1,815	312,408	0,172	85,722	0	1016,8	6,8	9	8,7	1	1	1	1	1	1	1	1	1	0	1	-8,174771	274,183716	312,267417	0
15.01.2021	19:57:29	0	0	2,711534	1,88925	319,9896	0,175	85,739	0	1016,92	6,8	9	8,7	1	1	1	1	1	1	1	1	1	0	1	-12,473573	274,096979	307,563327	0
15.01.2021	19:57:30	0	0	5,197106	2,0235	312,5232	0,168	85,735	0	1016,88	6,7	9	8,7	1	1	1	1	1	1	1	1	1	0	1	-11,134602	274,186713	309,321601	0
15.01.2021	19:57:31	0	0	5,197106	2,0385	322,5888	0,178	85,738	0	1016,88	6,8	9	8,7	1	1	1	1	1	1	1	1	1	0	1	-9,725159	274,260308	311,075236	0
15.01.2021	19:57:32	0	0	4,745184	1,992	312,1632	0,173	85,712	0	1016,72	6,9	9	8,7	1	1	1	1	1	1	1	1	1	0	1	-7,399577	274,183716	313,042611	0
15.01.2021	19:57:33	0	0	2,937495	1,8645	315,1332	0,175	85,735	0	1016,88	6,8	8,9	8,7	1	1	1	1	1	1	1	1	1	0	1	-10,42988	274,206211	310,117484	0
15.01.2021	19:57:34	0	0	2,711534	1,78725	325,9476	0,173	85,737	0	1016,86	6,8	8,8	8,7	1	1	1	1	1	1	1	1	1	0	1	-9,161381	274,228733	311,491308	0
15.01.2021	19:57:35	0	0	3,615378	1,7925	317,4012	0,174	85,737	0	1016,9	6,8	9	8,7	1	1	1	1	1	1	1	1	1	0	1	-9,866103	274,149273	310,415103	0
15.01.2021	19:57:36	0	0	2,711534	1,76475	326,6244	0,171	85,751	0	1016,88	6,8	9	8,7	1	1	1	1	1	1	1	1	1	0	1	-11,557435	274,225728	309,081202	0
15.01.2021	19:57:37	0	0	4,519195	1,623	300,1824	0,171	85,735	0	1016,88	6,8	8,9	8,8	1	1	1	1	1	1	1	1	1	0	1	-10,782241	274,243762	309,940748	0
15.01.2021	19:57:38	0	0	4,406242	1,55775	298,7316	0,169	85,725	0	1016,88	6,8	9	8,7	1	1	1	1	1	1	1	1	1	0	1	-12,473573	274,144785	307,786661	0
15.01.2021	19:57:39	0	0	3,615378	1,5435	304,6716	0,175	85,738	0	1016,98	6,8	9	8,7	1	1	1	1	1	1	1	1	1	0	1	-11,346018	274,236246	309,341812	0
15.01.2021	19:57:40	0	0	3,615378	1,53225	288,81	0,178	85,739	0	1016,78	6,7	8,8	8,7	1	1	1	1	1	1	1	1	1	0	1	-7,610994	274,146281	312,65623	0
15.01.2021	19:57:41	0	0	4,180256	1,51425	303,9444	0,174	85,745	0	1016,74	6,8	8,9	8,8	1	1	1	1	1	1	1	1	1	0	1	-6,412967	274,228733	314,239722	0
15.01.2021	19:57:42	0	0	3,050475	1,5675	299,7936	0,167	85,737	0	1016,8	6,8	9	8,7	1	1	1	1	1	1	1	1	1	0	1	-5,144468	274,114893	314,976104	0
15.01.2021	19:57:43	0	0	5,084125	1,6365	302,832	0,176	85,741	0	1016,92	6,8	8,8	8,7	1	1	1	1	1	1	1	1	1	0	1	-9,302326	274,189712	311,167895	0
15.01.2021	19:57:44	0	0	4,519223	1,7205	327,4596	0,172	85,796	0	1017,04	6,7	8,8	8,7	1	1	1	1	1	1	1	1	1	0	1	-10,570825	274,237749	310,124036	0
15.01.2021	19:57:45	0	0	3,502398	1,7235	318,4452	0,175	85,746	0	1016,82	6,7	8,8	8,7	1	1	1	1	1	1	1	1	1	0	1	-11,06413	274,162743	309,280028	0
15.01.2021	19:57:46	0	0	2,937495	1,7265	318,4236	0,174	85,749	0	1016,94	6,8	8,8	8,7	1	1	1	1	1	1	1	1	1	0	1	-7,470049	274,242259	313,245906	0
15.01.2021	19:57:47	0	0	4,632175	1,75875	322,2072	0,173	85,752	0	1017,02	6,7	9	8,8	1	1	1	1	1	1	1	1	1	0	1	-9,513742	274,19421	310,97751	0
15.01.2021	19:57:48	0	0	3,615356	1,84125	327,1212	0,173	85,742	0	1016,94	6,8	9	8,8	1	1	1	1	1	1	1	1	1	0	1	-12,966878	274,248273	307,777213	0
15.01.2021	19:57:49	0	0	5,084095	1,84875	311,7924	0,175	85,737	0	1016,94	6,8	8,9	8,8	1	1	1	1	1	1	1	1	1	0	1	-5,708245	274,227231	314,937418	0
15.01.2021	19:57:50	0	0	4,180281	1,76475	308,4336	0,194	85,743	0	1017,12	6,8	9	8,7	1	1	1	1	1	1	1	1	1	0	1	-8,386187	274,231738	312,280556	0
15.01.2021	19:57:51	0	0	2,824497	1,68825	310,3236	0,176	85,745	0	1016,9	6,8	8,8	8,8	1	1	1	1	1	1	1	1	1	0	1	-10,147992	274,176223	310,259171	0
15.01.2021	19:57:52	0	0	3,389417	1,6815	315,9108	0,171	85,725	0	1016,98	6,7	9	8,7	1	1	1	1	1	1	1	1	1	0	1	-13,03735	274,061202	306,832488	0
15.01.2021	19:57:53	0	0	4,067276	1,65	322,218	0,169	85,739	0	1016,92	6,7	8,8	8,8	1	1	1	1	1	1	1	1	1	0	1	-9,302326	274,191211	311,174905	0
15.01.2021	19:57:54	0	0	3,502398	1,55925	320,0724	0,176	85,754	0	1016,96	6,8	8,8	8,7	1	1	1	1	1	1	1	1	1	0	1	-9,302326	274,06567	310,588375	0
15.01.2021	19:57:55	0	0	4,180281	1,4505	318,834	0,172	85,758	0	1016,9	6,9	9	8,7	1	1	1	1	1	1	1	1	1	0	1	-11,557435	274,123856	308,605008	0
15.01.2021	19:57:56	0	0	3,163456	1,458	315,5472	0,171	85,744	0	1016,8	6,8	8,8	8,7	1	1	1	1	1	1	1	1	1	0	1	-5,84919	274,076101	314,090212	0
15.01.2021	19:57:57	0	0	4,406216	1,503	302,4936	0,168	85,76	0	1016,98	6,8	9	8,8	1	1	1	1	1	1	1	1	1	0	1	-7,117689	274,224226	313,513924	0
15.01.2021	19:57:58	0	0	4,406242	1,65975	311,4756	0,167	85,751	0	1016,82	6,8	9	8,7	1	1	1	1	1	1	1	1	1	0	1	-8,949965	274,098471	311,093904	0
15.01.2021	19:57:59	0	0	3,050475	1,77975	307,5696	0,171	85,752	0	1016,74	6,8	9	8,7	1	1	1	1	1	1	1	1	1	0	1	-6,553911	274,236246	314,133919	0
15.01.2021	19:58:00	0	0	3,389417	1,818	296,8236	0,171	85,767	0	1016,92	6,8	8,8	8,7	1	1	1	1	1	1	1	1	1	0	1	-8,245243	274,126844	311,931162	0
15.01.2021	19:58:01	0	0	4,180281	1,7865	282,4092	0,175	85,764	0	1016,92	6,7	9	8,7	1	1	1	1	1	1	1	1	1	0	1	-11,627907	274,06567	308,262793	0
15.01.2021	19:58:02	0	0	3,502398	1,78125	283,212	0,175	85,751	0	1016,86	6,9	9	8,7	1	1	1	1	1	1	1	1	1	0	1	-7,681466	274,083555	312,292742	0
15.01.2021	19:58:03	0	0	4,180281	1,7775	298,6524	0,175	85,762	0	1016,94	6,8	8,9	8,7	1	1	1	1	1	1	1	1	1	0	1	-6,906272	274,19871	313,606017	0
15.01.2021	19:58:04	0	0	3,954296	1,67175	288,7704	0,173	85,775	0	1016,92	6,8	9	8,8	1	1	1	1	1	1	1	1	1	0	1	-10,923185	274,239252	309,778706	0
15.01.2021	19:58:05	0	0	4,293261	1,64025	292,9392	0,176	85,775	0	1016,94	6,8	9	8,7	1	1	1	1	1	1	1	1	1	0	1	-8,668076	274,231738	311,998668	0
15.01.2021	19:58:06	0	0	4,293261	1,68075	287,3772	0,174	85,751	0	1016,98	6,8	8,8	8,7	1	1	1	1	1	1	1	1	1	0	1	-7,892882	274,180718	312,535293	0
15.01.2021	19:58:07	0	0	2,372592	1,635	300,8448	0,175	85,764	0	1016,86	6,8	9	8,7	1	1	1	1	1	1	1	1	1	0	1	-5,426357	274,064181	314,457389	0
15.01.2021	19:58:08	0	0	5,197106	1,6635	284,9112	0,174	85,762	0	1017	6,8	9	8,7	1	1	1	1	1	1	1	1	1	0	1	-11,41649	274,120867	308,731993	0
15.01.2021	19:58:09	0	0	2,824514	1,63125	294,4548	0,175	85,743	0	1016,92	6,8	8,9	8,7	1	1	1	1	1	1	1	1	1	0	1	-8,45666	274,231738	312,210084	0
15.01.2021	19:58:10	0	0	4,632203	1,524	291,2112	0,174	85,776	0	1017	6,9	8,8	8,7	1	1	1	1	1	1	1	1	1	0	1	-9,231853	274,237749	311,463007	0
15.01.2021	19:58:11	0	0	3,389417	1,4565	309,5172	0,176	85,765	0	1016,86	6,8	8,8	8,7	1	1	1	1	1	1	1	1	1	0	1	-8,386187	274,186713	312,070015	0
15.01.2021	19:58:12	0	0	3,728336	1,36875	299,7108	0,17	85,783	0	1016,92	6,8	9	8,8	1	1	1	1	1	1	1	1	1	0	1	-11,980268	274,06716	307,917388	0
15.01.2021	19:58:13	0	0	3,389417	1,3515	298,3464	0,174	85,769	0	1016,92	6,8	8,8	8,7	1	1	1	1	1	1	1	1	1	0	1	-8,315715	274,186713	312,140488	0
15.01.2021	19:58:14	0	0	4,858164	1,41	306,4356	0,165	85,761	0	1016,94	6,8	9	8,7	1	1	1	1	1	1	1	1	1	0	1	-9,654686	274,228733	310,998003	0
15.01.2021	19:58:15	0	0	3,050457	1,47825	304,2036	0,169	85,759	0	1016,84	6,9	9	8,8	1	1	1	1	1	1	1	1	1	0	1	-11,839323	274,091012	308,169707	0
15.01.2021	19:58:16	0	0	2,598553	1,401	300,5244	0,171	85,77	0	1016,94	6,8	8,9	8,7	1	1	1	1	1	1	1	1	1	0	1	-6,131078	274,110413	313,968566	0
15.01.2021	19:58:17	0	0	4,858164	1,5345	278,82	0,17	85,766	0	1016,72	6,8	9	8,7	1	1	1	1	1	1	1	1	1	0	1	-12,825934	274,236246	307,861897	0
15.01.2021	19:58:18	0	0	3,050457	1,61775	290,7936	0,172	85,775	0	1016,9	6,8	8,8	8,8	1	1	1	1	1	1	1	1	1	0	1	-8,174771	274,114893	311,945801	0
15.01.2021	19:58:19	0	0	4,293261	1,572	293,3856	0,172	85,776	0	1016,88	6,7	9	8,7	1	1	1	1	1	1	1	1	1	0	1	-10,782241	274,052268	309,045891	0
15.01.2021	19:58:20	0	0	3,389417	1,64175	283,5684	0,174	85,771	0	1016,86	6,8	9	8,7	1	1	1	1	1	1	1	1	1	0	1	-9,725159	274,099963	310,32568	0
15.01.2021	19:58:21	0	0	2,937477	1,68375	285,2244	0,179	85,781	0	1017	6,8	9	8,8	1	1	1	1	1	1	1	1	1	0	1	-10,641297	274,224226	309,990315	0
15.01.2021	19:58:22	0	0	3,050475	1,67925	288,8532	0,173	85,787	0	1017,06	6,8	8,9	8,7	1	1	1	1	1	1	1	1	1	0	1	-11,06413	274,159749	309,266034	0
15.01.2021	19:58:23	0	0	4,180256	1,59075	318,1824	0,173	85,775	0	1017	6,8	8,9	8,8	1	1	1	1	1	1	1	1	1	0	1	-7,82241	274,243762	312,900578	0
15.01.2021	19:58:24	0	0	3,163456	1,419	317,8476	0,17	85,771	0	1016,8	6,8	8,8	8,7	1	1	1	1	1	1	1	1	1	0	1	-11,06413	274,185214	309,385065	0
15.01.2021	19:58:25	0	0	3,050475	1,2645	315,5436	0,171	85,779	0	1016,9	6,9	9	8,7	1	1	1	1	1	1	1	1	1	0	1	-6,20155	274,228733	314,451139	0
15.01.2021	19:58:26	0	0	3,389417	1,06725	324,7236	0,172	85,773	0	1017,14	6,8	8,9	8,7	1	1	1	1	1	1	1	1	1	0	1	-8,879493	274,168733	311,49266	0
15.01.2021	19:58:27	0	0	3,050475	0,948	337,9644	0,173	85,783	0	1016,86	6,8	9	8,7	1	1	1	1	1	1	1	1	1	0	1	-8,879493	274,206211	311,667872	0
15.01.2021	19:58:28	0	0	3,050475	0,90375	334,1628	0,173	85,788	0	1016,96	6,8	8,9	8,7	1	1	1	1	1	1	1	1	1	0	1	-5,496829	274,11788	314,637697	0
15.01.2021	19:58:29	0	0	2,824514	0,90075	324,3384	0,173	85,789	0	1016,8	6,8	8,9	8,7	1	1	1	1	1	1	1	1	1	0	1	-5,073996	274,058223	314,781938	0
15.01.2021	19:58:30	0	0	4,0673	0,8775	314,334	0,172	85,778	0	1016,86	6,8	8,9	8,7	1	1	1	1	1	1	1	1	1	0	1	-11,06413	274,239252	309,637762	0
15.01.2021	19:58:31	0	0	2,485572	0,81675	314,8524	0,175	85,788	0	1016,84	6,8	8,8	8,7	1	1	1	1	1	1	1	1	1	0	1	-8,738548	274,061202	311,13129	0
15.01.2021	19:58:32	0	0	3,050457	0,807	314,0856	0,169	85,786	0	1016,94	6,8	9	8,8	1	1	1	1	1	1	1	1	1	0	1	-6,553911	274,213715	314,028545	0
15.01.2021	19:58:33	0	0	2,711534	0,795	304,2972	0,167	85,786	0	1016,9	6,8	8,9	8,7	1	1	1	1	1	1	1	1	1	0	1	-11,909796	274,137308	308,315498	0
15.01.2021	19:58:34	0	0	4,406216	0,7905	306,1584	0,174	85,786	0	1017,02	6,8	8,9	8,8	1	1	1	1	1	1	1	1	1	0	1	-9,302326	274,231738	311,364418	0
15.01.2021	19:58:35	0	0	3,276417	0,83925	302,4144	0,169	85,773	0	1017,04	6,8	8,8	8,8	1	1	1	1	1	1	1	1	1	0	1	-7,82241	274,147777	312,451804	0
15.01.2021	19:58:36	0	0	4,971145	0,86925	307,5912	0,175	85,787	0	1017,02	6,8	8,9	8,7	1	1	1	1	1	1	1	1	1	0	1	-8,386187	274,234743	312,294613	0
15.01.2021	19:58:37	0	0	2,711534	0,8985	303,9552	0,174	85,777	0	1016,94	6,8	8,8	8,7	1	1	1	1	1	1	1	1	1	0	1	-6,272023	274,19571	314,226241	0
15.01.2021	19:58:38	0	0	5,084125	0,98475	306,8208	0,171	85,782	0	1016,66	6,8	9	8,7	1	1	1	1	1	1	1	1	1	0	1	-8,527132	274,245266	312,20289	0
15.01.2021	19:58:39	0	0	4,519223	1,06575	309,5748	0,17	85,789	0	1016,9	6,8	8,8	8,7	1	1	1	1	1	1	1	1	1	0	1	-8,879493	274,107427	311,206204	0
15.01.2021	19:58:40	0	0	3,615356	1,1835	289,5624	0,177	85,791	0	1017,02	6,8	8,9	8,8	1	1	1	1	1	1	1	1	1	0	1	-5,84919	274,240755	314,859734	0
15.01.2021	19:58:41	0	0	2,937477	1,338	294,1164	0,174	85,781	0	1017	6,8	8,9	8,8	1	1	1	1	1	1	1	1	1	0	1	-7,892882	274,098471	312,150986	0
15.01.2021	19:58:42	0	0	2,485572	1,44375	301,248	0,176	85,78	0	1017,1	6,8	9	8,7	1	1	1	1	1	1	1	1	1	0	1	-6,483439	274,207712	314,070942	0
15.01.2021	19:58:43	0	0	4,858164	1,5405	298,2888	0,175	85,78	0	1016,94	6,8	9	8,7	1	1	1	1	1	1	1	1	1	0	1	-9,795631	274,062691	310,081161	0
15.01.2021	19:58:44	0	0	2,824497	1,52925	302,1336	0,177	85,797	0	1017	6,8	9	8,8	1	1	1	1	1	1	1	1	1	0	1	-6,412967	274,191211	314,064263	0
15.01.2021	19:58:45	0	0	2,937495	1,5615	302,0112	0,172	85,785	0	1016,96	6,8	8,9	8,7	1	1	1	1	1	1	1	1	1	0	1	-6,342495	274,06567	313,548206	0
15.01.2021	19:58:46	0	0	4,632203	1,5225	306,4392	0,17	85,797	0	1016,8	6,8	9	8,7	1	1	1	1	1	1	1	1	1	0	1	-8,879493	274,06567	311,011208	0
15.01.2021	19:58:47	0	0	4,180256	1,57575	311,0508	0,176	85,802	0	1016,94	6,8	8,9	8,8	1	1	1	1	1	1	1	1	1	0	1	-7,751938	274,207712	312,802443	0
15.01.2021	19:58:48	0	0	4,519223	1,56675	304,6608	0,166	85,793	0	1016,9	6,8	9	8,7	1	1	1	1	1	1	1	1	1	0	1	-10,077519	274,101456	309,980289	0
15.01.2021	19:58:49	0	0	4,745155	1,521	293,0004	0,174	85,794	0	1016,86	6,8	9	8,8	1	1	1	1	1	1	1	1	1	0	1	-9,231853	274,058223	310,62408	0
15.01.2021	19:58:50	0	0	2,824514	1,41825	287,4096	0,178	85,79	0	1016,98	6,7	9	8,7	1	1	1	1	1	1	1	1	1	0	1	-7,540521	274,095487	312,48941	0
15.01.2021	19:58:51	0	0	3,728359	1,371	300,1572	0,179	85,779	0	1016,88	6,8	8,8	8,7	1	1	1	1	1	1	1	1	1	0	1	-11,980268	274,056734	307,868714	0
15.01.2021	19:58:52	0	0	4,519195	1,3725	317,4408	0,174	85,793	0	1016,82	6,8	9	8,8	1	1	1	1	1	1	1	1	1	0	1	-11,557435	274,159749	308,772729	0
15.01.2021	19:58:53	0	0	3,954296	1,37925	321,534	0,174	85,797	0	1017	6,8	9	8,8	1	1	1	1	1	1	1	1	1	0	1	-9,302326	274,236246	311,385505	0
15.01.2021	19:58:54	0	0	4,971115	1,40025	321,084	0,175	85,789	0	1016,92	6,8	8,9	8,8	1	1	1	1	1	1	1	1	1	0	1	-9,936575	274,185214	310,51262	0
15.01.2021	19:58:55	0	0	2,824514	1,374	324,792	0,17	85,782	0	1016,86	6,8	8,9	8,7	1	1	1	1	1	1	1	1	1	0	1	-9,725159	274,086537	310,262976	0
15.01.2021	19:58:56	0	0	4,519223	1,3605	334,5876	0,17	85,785	0	1016,96	6,8	9	8,7	1	1	1	1	1	1	1	1	1	0	1	-8,949965	274,228733	311,702724	0
15.01.2021	19:58:57	0	0	2,711517	1,2615	301,5936	0,172	85,797	0	1016,86	6,8	9	8,8	1	1	1	1	1	1	1	1	1	0	1	-7,047216	274,135813	313,171091	0
15.01.2021	19:58:58	0	0	2,937477	1,18725	297,8892	0,17	85,786	0	1016,82	6,8	8,8	8,8	1	1	1	1	1	1	1	1	1	0	1	-11,06413	274,20021	309,455173	0
15.01.2021	19:58:59	0	0	3,163437	1,11225	323,3448	0,176	85,795	0	1016,78	6,8	8,9	8,8	1	1	1	1	1	1	1	1	1	0	1	-8,245243	274,19721	312,260033	0
15.01.2021	19:59:00	0	0	4,632203	1,08825	319,59	0,174	85,799	0	1016,82	6,8	8,9	8,7	1	1	1	1	1	1	1	1	1	0	1	-7,258633	274,239252	313,443259	0
15.01.2021	19:59:01	0	0	4,519195	1,062	316,7244	0,171	85,798	0	1016,98	6,8	8,9	8,8	1	1	1	1	1	1	1	1	1	0	1	-7,117689	274,11788	313,016837	0
15.01.2021	19:59:02	0	0	4,067276	1,0365	322,5996	0,177	85,796	0	1016,9	6,8	9	8,8	1	1	1	1	1	1	1	1	1	0	1	-6,412967	274,227231	314,232696	0
15.01.2021	19:59:03	0	0	4,745155	1,00875	330,0588	0,169	85,802	0	1016,8	6,8	8,8	8,8	1	1	1	1	1	1	1	1	1	0	1	-7,610994	274,215217	312,978483	0
15.01.2021	19:59:04	0	0	4,293236	1,01925	324,3168	0,177	85,808	0	1016,86	6,8	8,9	8,8	1	1	1	1	1	1	1	1	1	0	1	-9,725159	274,085046	310,256012	0
15.01.2021	19:59:05	0	0	4,632175	1,0095	321,4548	0,166	85,802	0	1016,7	6,8	8,8	8,8	1	1	1	1	1	1	1	1	1	0	1	-6,694856	274,227231	313,950807	0
15.01.2021	19:59:06	0	0	3,163437	0,9465	324,3708	0,17	85,8	0	1016,9	6,8	9	8,8	1	1	1	1	1	1	1	1	1	0	1	-6,694856	274,182217	313,740326	0
15.01.2021	19:59:07	0	0	4,858135	0,9315	320,0148	0,173	85,792	0	1016,96	6,8	8,9	8,8	1	1	1	1	1	1	1	1	1	0	1	-11,698379	274,20021	308,820923	0
15.01.2021	19:59:08	0	0	2,937477	0,9435	315,8712	0,176	85,801	0	1017,06	6,8	9	8,8	1	1	1	1	1	1	1	1	1	0	1	-9,231853	274,212214	311,343583	0
15.01.2021	19:59:09	0	0	4,519223	0,98175	316,224	0,173	85,808	0	1016,94	6,8	8,8	8,7	1	1	1	1	1	1	1	1	1	0	1	-10,782241	274,088029	309,212858	0
15.01.2021	19:59:10	0	0	3,841339	1,03725	310,2408	0,176	85,803	0	1016,92	6,8	9	8,7	1	1	1	1	1	1	1	1	1	0	1	-8,386187	274,207712	312,168194	0
15.01.2021	19:59:11	0	0	3,276436	1,176	304,5924	0,172	85,798	0	1016,86	6,8	8,9	8,7	1	1	1	1	1	1	1	1	1	0	1	-12,403101	274,162743	307,941057	0
15.01.2021	19:59:12	0	0	3,163437	1,2495	308,0952	0,177	85,805	0	1016,68	6,8	8,9	8,8	1	1	1	1	1	1	1	1	1	0	1	-9,936575	274,228733	310,716114	0
15.01.2021	19:59:13	0	0	2,937477	1,362	308,5524	0,181	85,799	0	1016,96	6,8	8,9	8,8	1	1	1	1	1	1	1	1	1	0	1	-15,362932	274,079082	304,59039	0
15.01.2021	19:59:14	0	0	4,519195	1,40325	346,9428	0,171	85,803	0	1016,96	6,8	8,9	8,8	1	1	1	1	1	1	1	1	1	0	1	-9,936575	274,082064	310,03067	0
15.01.2021	19:59:15	0	0	2,485572	1,37325	341,6364	0,179	85,803	0	1017,02	6,7	9	8,7	1	1	1	1	1	1	1	1	1	0	1	-7,610994	274,052268	312,217138	0
15.01.2021	19:59:16	0	0	3,954296	1,3095	338,2956	0,173	85,795	0	1016,78	6,8	9	8,8	1	1	1	1	1	1	1	1	1	0	1	-10,993658	274,113399	309,119938	0
15.01.2021	19:59:17	0	0	4,858135	1,3035	334,8936	0,179	85,806	0	1016,88	6,8	8,9	8,8	1	1	1	1	1	1	1	1	1	0	1	-13,107822	274,213715	307,474634	0
15.01.2021	19:59:18	0	0	2,824497	1,338	327,7944	0,175	85,817	0	1016,92	6,8	8,8	8,8	1	1	1	1	1	1	1	1	1	0	1	-6,060606	274,225728	314,578031	0
15.01.2021	19:59:19	0	0	4,745184	1,377	332,7948	0,177	85,811	0	1016,96	6,8	9	8,7	1	1	1	1	1	1	1	1	1	0	1	-9,161381	274,06716	310,736275	0
15.01.2021	19:59:20	0	0	4,180281	1,329	323,2728	0,176	85,8	0	1017,08	6,8	9	8,7	1	1	1	1	1	1	1	1	1	0	1	-8,879493	274,218219	311,724026	0
15.01.2021	19:59:21	0	0	4,406242	1,4145	294,0768	0,179	85,806	0	1016,96	6,8	8,8	8,7	1	1	1	1	1	1	1	1	1	0	1	-8,45666	274,206211	312,090705	0
15.01.2021	19:59:22	0	0	4,0673	1,521	314,8308	0,176	85,794	0	1016,96	6,8	9	8,7	1	1	1	1	1	1	1	1	1	0	1	-3,735025	274,122361	316,420438	0
15.01.2021	19:59:23	0	0	4,406242	1,6275	315,2736	0,175	85,802	0	1016,76	6,8	8,9	8,7	1	1	1	1	1	1	1	1	1	0	1	-8,527132	274,056734	311,32185	0
15.01.2021	19:59:24	0	0	3,050457	1,71	300,7764	0,17	85,804	0	1017,12	6,8	8,9	8,8	1	1	1	1	1	1	1	1	1	0	1	-6,131078	274,171729	314,255076	0
15.01.2021	19:59:25	0	0	2,485572	1,74825	315,216	0,176	85,794	0	1016,92	6,8	8,8	8,7	1	1	1	1	1	1	1	1	1	0	1	-5,84919	274,053757	313,985892	0
15.01.2021	19:59:26	0	0	3,389397	1,66425	310,6656	0,182	85,817	0	1016,96	6,8	8,9	8,8	1	1	1	1	1	1	1	1	1	0	1	-9,936575	274,219721	310,673966	0
15.01.2021	19:59:27	0	0	4,293261	1,64475	292,266	0,174	85,802	0	1016,88	6,8	9	8,7	1	1	1	1	1	1	1	1	1	0	1	-6,553911	274,104441	313,51784	0
15.01.2021	19:59:28	0	0	2,598537	1,60425	289,1952	0,178	85,807	0	1017,02	6,8	8,9	8,8	1	1	1	1	1	1	1	1	1	0	1	-12,684989	274,049291	307,129245	0
15.01.2021	19:59:29	0	0	4,406216	1,512	298,6092	0,176	85,82	0	1017,08	6,8	9	8,8	1	1	1	1	1	1	1	1	1	0	1	-7,892882	274,123856	312,26956	0
15.01.2021	19:59:30	0	0	3,615378	1,44	291,1932	0,175	85,809	0	1017	6,8	9	8,7	1	1	1	1	1	1	1	1	1	0	1	-10,500352	274,093995	309,522611	0
15.01.2021	19:59:31	0	0	3,050457	1,35225	289,206	0,177	85,812	0	1017	6,8	8,8	8,8	1	1	1	1	1	1	1	1	1	0	1	-5,355884	274,210713	315,212533	0
15.01.2021	19:59:32	0	0	2,598553	1,308	311,7852	0,173	85,814	0	1016,8	6,8	8,8	8,7	1	1	1	1	1	1	1	1	1	0	1	-7,82241	274,091012	312,18662	0
15.01.2021	19:59:33	0	0	4,293261	1,27275	327,8088	0,174	85,797	0	1016,9	6,8	9	8,7	1	1	1	1	1	1	1	1	1	0	1	-12,966878	274,053757	306,868203	0
15.01.2021	19:59:34	0	0	4,858135	1,26825	313,614	0,174	85,801	0	1016,94	6,8	8,9	8,8	1	1	1	1	1	1	1	1	1	0	1	-9,372798	274,168733	310,999355	0
15.01.2021	19:59:35	0	0	2,937477	1,27275	309,2904	0,176	85,809	0	1017,06	6,8	9	8,8	1	1	1	1	1	1	1	1	1	0	1	-6,765328	274,053757	313,069753	0
15.01.2021	19:59:36	0	0	3,615356	1,22325	323,9712	0,176	85,795	0	1016,84	6,8	8,8	8,8	1	1	1	1	1	1	1	1	1	0	1	-7,470049	274,158252	312,853118	0
15.01.2021	19:59:37	0	0	2,485558	1,1655	316,7244	0,178	85,808	0	1016,86	6,8	9	8,8	1	1	1	1	1	1	1	1	1	0	1	-7,329105	274,055245	312,512926	0
15.01.2021	19:59:38	0	0	3,163456	1,12725	306,7668	0,179	85,816	0	1016,94	6,8	9	8,7	1	1	1	1	1	1	1	1	1	0	1	-11,698379	274,098471	308,34549	0
15.01.2021	19:59:39	0	0	2,937495	1,1025	304,6536	0,174	85,799	0	1016,92	6,8	8,9	8,7	1	1	1	1	1	1	1	1	1	0	1	-8,668076	274,085046	311,313095	0
15.01.2021	19:59:40	0	0	2,711534	1,152	313,2864	0,176	85,808	0	1016,96	6,8	8,9	8,7	1	1	1	1	1	1	1	1	1	0	1	-9,020437	274,046314	310,779903	0
15.01.2021	19:59:41	0	0	3,841339	1,19775	318,4056	0,179	85,81	0	1016,96	6,8	9	8,7	1	1	1	1	1	1	1	1	1	0	1	-9,866103	274,07014	310,045466	0
15.01.2021	19:59:42	0	0	3,615378	1,21725	323,298	0,17	85,799	0	1016,88	6,8	8,9	8,7	1	1	1	1	1	1	1	1	1	0	1	-6,272023	274,221223	314,345542	0
15.01.2021	19:59:43	0	0	3,728336	1,203	315,1692	0,169	85,8	0	1016,86	6,8	9	8,8	1	1	1	1	1	1	1	1	1	0	1	-9,936575	274,186713	310,519628	0
15.01.2021	19:59:44	0	0	2,598537	1,3935	296,406	0,174	85,818	0	1016,9	6,8	8,9	8,8	1	1	1	1	1	1	1	1	1	0	1	-8,668076	274,221223	311,949488	0
15.01.2021	19:59:45	0	0	2,598553	1,62	314,784	0,174	85,815	0	1017,02	6,8	8,9	8,7	1	1	1	1	1	1	1	1	1	0	1	-10,711769	274,086537	309,276366	0
15.01.2021	19:59:46	0	0	4,858135	1,686	322,9236	0,177	85,803	0	1017,04	6,8	8,9	8,8	1	1	1	1	1	1	1	1	1	0	1	-6,553911	274,050779	313,267272	0
15.01.2021	19:59:47	0	0	4,745155	1,6545	321,12	0,176	85,814	0	1016,98	6,8	8,8	8,8	1	1	1	1	1	1	1	1	1	0	1	-7,681466	274,147777	312,592749	0
15.01.2021	19:59:48	0	0	4,632175	1,77525	316,7316	0,176	85,811	0	1017,12	6,8	8,9	8,8	1	1	1	1	1	1	1	1	1	0	1	-5,003524	274,228733	315,649165	0
15.01.2021	19:59:49	0	0	4,406216	1,75725	333,1188	0,17	85,792	0	1016,88	6,8	8,8	8,8	1	1	1	1	1	1	1	1	1	0	1	-6,765328	274,128339	313,418059	0
15.01.2021	19:59:50	0	0	4,067276	1,64925	306,324	0,174	85,807	0	1016,94	6,8	8,8	8,8	1	1	1	1	1	1	1	1	1	0	1	-11,41649	274,050779	308,404692	0
15.01.2021	19:59:51	0	0	4,519223	1,599	313,146	0,195	85,816	0	1017,12	6,8	8,9	8,7	1	1	1	1	1	1	1	1	1	0	1	-10,007047	274,155259	310,302131	0
15.01.2021	19:59:52	0	0	2,598537	1,53675	314,1108	0,172	85,806	0	1016,92	6,8	8,9	8,8	1	1	1	1	1	1	1	1	1	0	1	-9,725159	274,210713	310,843259	0
15.01.2021	19:59:53	0	0	4,632203	1,55475	293,7096	0,175	85,807	0	1016,94	6,8	9	8,7	1	1	1	1	1	1	1	1	1	0	1	-6,553911	274,144785	313,706323	0
15.01.2021	19:59:54	0	0	4,067276	1,64175	308,1636	0,174	85,807	0	1017,1	6,8	8,9	8,8	1	1	1	1	1	1	1	1	1	0	1	-7,540521	274,216718	313,055976	0
15.01.2021	19:59:55	0	0	3,615378	1,70025	308,736	0,174	85,811	0	1016,84	6,8	8,9	8,7	1	1	1	1	1	1	1	1	1	0	1	-7,540521	274,105934	312,538202	0
15.01.2021	19:59:56	0	0	2,598553	1,75575	301,2408	0,179	85,802	0	1016,88	6,8	9	8,7	1	1	1	1	1	1	1	1	1	0	1	-10,42988	274,224226	310,201732	0
15.01.2021	19:59:57	0	0	4,519223	1,71975	301,644	0,176	85,803	0	1017	6,8	9	8,7	1	1	1	1	1	1	1	1	1	0	1	-5,84919	274,158252	314,473978	0
15.01.2021	19:59:58	0	0	4,858164	1,65375	290,4192	0,174	85,786	0	1017,08	6,8	8,8	8,7	1	1	1	1	1	1	1	1	1	0	1	-12,121212	274,221223	308,496352	0
15.01.2021	19:59:59	0	0	2,485558	1,71525	301,1868	0,178	85,8	0	1016,78	6,8	9	8,8	1	1	1	1	1	1	1	1	1	0	1	-8,879493	274,07163	311,039033	0
15.01.2021	20:00:00	0	0	2,485572	2,04075	297,2412	0,175	85,777	0	1016,96	6,8	9	8,7	1	1	1	1	1	1	1	1	1	0	1	-7,82241	274,153762	312,479774	0
15.01.2021	20:00:01	0	0	2,485572	2,04075	297,2412	0,175	85,777	0	1016,96	6,8	9	8,7	1	1	1	1	1	1	1	1	1	0	1	-10,782241	274,055245	309,05979	0
15.01.2021	20:00:02	0	0	4,745184	2,04825	295,5168	0,178	85,812	0	1016,88	6,8	8,8	8,7	1	1	1	1	1	1	1	1	1	0	1	-12,403101	274,173227	307,990056	0
15.01.2021	20:00:03	0	0	4,0673	2,0595	306,4392	0,178	85,811	0	1016,92	6,8	8,8	8,7	1	1	1	1	1	1	1	1	1	0	1	-4,580691	274,216718	316,015807	0
15.01.2021	20:00:04	0	0	4,632175	2,06775	304,7616	0,167	85,786	0	1016,96	6,8	9	8,8	1	1	1	1	1	1	1	1	1	0	1	-8,879493	274,126844	311,296912	0
15.01.2021	20:00:05	0	0	2,937477	2,04225	306,4572	0,173	85,797	0	1016,86	6,8	8,8	8,8	1	1	1	1	1	1	1	1	1	0	1	-11,346018	274,213715	309,236438	0
15.01.2021	20:00:06	0	0	5,084095	2,04375	302,8608	0,172	85,793	0	1016,92	6,8	8,9	8,8	1	1	1	1	1	1	1	1	1	0	1	-7,188161	274,146281	313,079063	0
15.01.2021	20:00:07	0	0	2,824497	1,998	315,5472	0,177	85,802	0	1017	6,8	8,8	8,8	1	1	1	1	1	1	1	1	1	0	1	-9,866103	274,231738	310,800641	0
15.01.2021	20:00:08	0	0	4,180256	1,884	312,8256	0,174	85,799	0	1017	6,8	8,9	8,8	1	1	1	1	1	1	1	1	1	0	1	-10,288936	274,046314	309,511404	0
15.01.2021	20:00:09	0	0	4,293236	1,78125	317,3256	0,17	85,789	0	1016,9	6,8	8,9	8,8	1	1	1	1	1	1	1	1	1	0	1	-7,82241	274,204711	312,717938	0
15.01.2021	20:00:10	0	0	3,728336	1,776	304,2396	0,176	85,785	0	1016,86	6,8	8,8	8,8	1	1	1	1	1	1	1	1	1	0	1	-6,272023	274,191211	314,205208	0
15.01.2021	20:00:11	0	0	3,163456	1,85325	305,3268	0,176	85,782	0	1017,12	6,8	8,8	8,7	1	1	1	1	1	1	1	1	1	0	1	-11,486963	274,20171	309,039354	0
15.01.2021	20:00:12	0	0	3,728359	1,8585	326,7	0,179	85,782	0	1016,96	6,8	8,8	8,7	1	1	1	1	1	1	1	1	1	0	1	-12,191684	274,227231	308,453979	0
15.01.2021	20:00:13	0	0	4,745155	1,7235	317,7684	0,172	85,772	0	1016,9	6,8	8,9	8,8	1	1	1	1	1	1	1	1	1	0	1	-9,090909	274,096979	310,945991	0
15.01.2021	20:00:14	0	0	2,598537	1,65	316,5912	0,173	85,786	0	1017,06	6,8	8,9	8,8	1	1	1	1	1	1	1	1	1	0	1	-6,976744	274,225728	313,661893	0
15.01.2021	20:00:15	0	0	3,163437	1,64175	318,078	0,175	85,77	0	1017,06	6,8	9	8,8	1	1	1	1	1	1	1	1	1	0	1	-8,527132	274,17922	311,894039	0
15.01.2021	20:00:16	0	0	3,954296	1,653	294,4224	0,172	85,778	0	1016,7	6,8	9	8,8	1	1	1	1	1	1	1	1	1	0	1	-7,540521	274,056734	312,308461	0
15.01.2021	20:00:17	0	0	4,406242	1,7445	308,808	0,174	85,756	0	1016,98	6,8	8,9	8,7	1	1	1	1	1	1	1	1	1	0	1	-8,879493	274,098471	311,164376	0
15.01.2021	20:00:18	0	0	2,598537	1,8105	293,8032	0,178	85,775	0	1016,82	6,8	8,9	8,8	1	1	1	1	1	1	1	1	1	0	1	-9,936575	274,212214	310,638861	0
15.01.2021	20:00:19	0	0	4,745155	1,794	303,1236	0,173	85,781	0	1016,98	6,8	8,9	8,8	1	1	1	1	1	1	1	1	1	0	1	-10,359408	274,099963	309,69143	0
15.01.2021	20:00:20	0	0	4,180281	1,722	298,7028	0,175	85,781	0	1016,98	6,8	8,9	8,7	1	1	1	1	1	1	1	1	1	0	1	-6,20155	274,216718	314,394947	0
15.01.2021	20:00:21	0	0	2,824497	1,58475	298,7028	0,174	85,775	0	1017,12	6,8	9	8,8	1	1	1	1	1	1	1	1	1	0	1	-13,6716	274,176223	306,735563	0
15.01.2021	20:00:22	0	0	4,067276	1,5345	317,7	0,173	85,766	0	1016,92	6,8	8,9	8,8	1	1	1	1	1	1	1	1	1	0	1	-9,302326	274,052268	310,525806	0
15.01.2021	20:00:23	0	0	3,163437	1,455	323,6508	0,174	85,761	0	1017,02	6,8	9	8,8	1	1	1	1	1	1	1	1	1	0	1	-11,627907	274,110413	308,471738	0
15.01.2021	20:00:24	0	0	4,0673	1,43175	303,8796	0,177	85,783	0	1017,04	6,8	8,9	8,7	1	1	1	1	1	1	1	1	1	0	1	-10,147992	274,050779	309,673191	0
15.01.2021	20:00:25	0	0	2,937477	1,4325	319,158	0,173	85,761	0	1016,98	6,8	8,9	8,8	1	1	1	1	1	1	1	1	1	0	1	-8,45666	274,050779	311,364523	0
15.01.2021	20:00:26	0	0	3,389397	1,4655	330,6852	0,169	85,764	0	1017	6,8	8,8	8,8	1	1	1	1	1	1	1	1	1	0	1	-8,315715	274,119373	311,825789	0
15.01.2021	20:00:27	0	0	3,954296	1,4955	296,46	0,175	85,756	0	1017,08	6,8	9	8,8	1	1	1	1	1	1	1	1	1	0	1	-8,738548	274,224226	311,893064	0
15.01.2021	20:00:28	0	0	2,711534	1,5195	328,986	0,171	85,769	0	1017	6,8	8,8	8,7	1	1	1	1	1	1	1	1	1	0	1	-7,610994	274,120867	312,537489	0
15.01.2021	20:00:29	0	0	4,519195	1,4835	324,0756	0,17	85,78	0	1016,98	6,8	8,8	8,8	1	1	1	1	1	1	1	1	1	0	1	-5,285412	274,218219	315,318107	0
15.01.2021	20:00:30	0	0	2,824497	1,41975	315,6264	0,173	85,771	0	1016,8	6,8	8,9	8,8	1	1	1	1	1	1	1	1	1	0	1	-6,694856	274,08952	313,307209	0
15.01.2021	20:00:31	0	0	5,197106	1,38525	303,2064	0,168	85,76	0	1016,84	6,8	8,9	8,7	1	1	1	1	1	1	1	1	1	0	1	-8,245243	274,173227	312,147913	0
15.01.2021	20:00:32	0	0	2,937477	1,41075	313,1532	0,171	85,776	0	1016,94	6,8	8,9	8,8	1	1	1	1	1	1	1	1	1	0	1	-9,795631	274,038875	309,969985	0
15.01.2021	20:00:33	0	0	3,615378	1,4445	301,5324	0,173	85,774	0	1016,94	6,8	9	8,7	1	1	1	1	1	1	1	1	1	0	1	-8,315715	274,173227	312,077441	0
15.01.2021	20:00:34	0	0	3,502376	1,602	302,0724	0,173	85,784	0	1016,92	6,8	8,8	8,8	1	1	1	1	1	1	1	1	1	0	1	-9,866103	274,026978	309,843987	0
15.01.2021	20:00:35	0	0	4,971115	1,62975	306,8496	0,175	85,757	0	1016,94	6,8	8,9	8,8	1	1	1	1	1	1	1	1	1	0	1	-6,483439	274,116386	313,644109	0
15.01.2021	20:00:36	0	0	2,937495	1,55325	311,1588	0,172	85,768	0	1016,78	6,8	8,9	8,7	1	1	1	1	1	1	1	1	1	0	1	-7,681466	274,218219	312,922053	0
15.01.2021	20:00:37	0	0	4,632203	1,5615	303,4692	0,172	85,774	0	1016,88	6,8	9	8,7	1	1	1	1	1	1	1	1	1	0	1	-9,44327	274,20321	311,090062	0
15.01.2021	20:00:38	0	0	5,084095	1,554	308,124	0,171	85,767	0	1016,86	6,8	8,9	8,8	1	1	1	1	1	1	1	1	1	0	1	-8,597604	274,222724	312,026984	0
15.01.2021	20:00:39	0	0	5,197106	1,58925	304,9884	0,171	85,751	0	1016,96	6,8	9	8,7	1	1	1	1	1	1	1	1	1	0	1	-9,020437	274,204711	311,519911	0
15.01.2021	20:00:40	0	0	4,293236	1,72575	297,1872	0,173	85,772	0	1016,84	6,8	8,9	8,8	1	1	1	1	1	1	1	1	1	0	1	-9,44327	274,08952	310,558794	0
15.01.2021	20:00:41	0	0	4,632175	1,79775	305,3664	0,175	85,758	0	1016,82	6,8	8,9	8,8	1	1	1	1	1	1	1	1	1	0	1	-8,738548	274,034413	311,00624	0
15.01.2021	20:00:42	0	0	2,937477	1,8975	294,0696	0,167	85,773	0	1016,84	6,8	8,9	8,8	1	1	1	1	1	1	1	1	1	0	1	-5,778717	274,144785	314,481517	0
15.01.2021	20:00:43	0	0	4,745155	1,974	300,456	0,173	85,748	0	1016,82	6,8	9	8,8	1	1	1	1	1	1	1	1	1	0	1	-9,302326	274,043338	310,484123	0
15.01.2021	20:00:44	0	0	3,163437	2,02575	303,1956	0,18	85,768	0	1016,86	6,8	9	8,8	1	1	1	1	1	1	1	1	1	0	1	-9,302326	274,140298	310,936942	0
15.01.2021	20:00:45	0	0	4,971115	2,0325	308,466	0,168	85,769	0	1016,94	6,8	8,9	8,8	1	1	1	1	1	1	1	1	1	0	1	-4,298802	274,04185	315,480701	0
15.01.2021	20:00:46	0	0	2,485558	1,9335	314,8236	0,174	85,753	0	1016,86	6,8	8,8	8,8	1	1	1	1	1	1	1	1	1	0	1	-9,584214	274,11788	310,550312	0
15.01.2021	20:00:47	0	0	3,276436	1,8045	304,47	0,174	85,77	0	1017,1	6,8	8,9	8,7	1	1	1	1	1	1	1	1	1	0	1	-7,963354	274,079082	311,989968	0
15.01.2021	20:00:48	0	0	4,745155	1,7655	298,1988	0,169	85,761	0	1017,06	6,8	9	8,8	1	1	1	1	1	1	1	1	1	0	1	-11,346018	274,050779	308,475164	0
15.01.2021	20:00:49	0	0	2,259598	1,7655	313,1784	0,165	85,759	0	1016,94	6,8	8,9	8,8	1	1	1	1	1	1	1	1	1	0	1	-6,765328	274,152266	313,529863	0
15.01.2021	20:00:50	0	0	3,389417	1,74225	301,212	0,165	85,745	0	1016,84	6,8	8,9	8,7	1	1	1	1	1	1	1	1	1	0	1	-8,949965	274,204711	311,590383	0
15.01.2021	20:00:51	0	0	2,937477	1,7385	316,5732	0,167	85,748	0	1016,86	6,8	8,9	8,8	1	1	1	1	1	1	1	1	1	0	1	-8,386187	274,102948	311,678592	0
15.01.2021	20:00:52	0	0	2,711517	1,7145	324,0828	0,173	85,767	0	1016,96	6,8	8,9	8,8	1	1	1	1	1	1	1	1	1	0	1	-12,121212	274,056734	307,72777	0
15.01.2021	20:00:53	0	0	4,406216	1,67925	315,8208	0,172	85,753	0	1016,92	6,8	8,9	8,8	1	1	1	1	1	1	1	1	1	0	1	-9,584214	274,218219	311,019305	0
15.01.2021	20:00:54	0	0	3,841316	1,56	319,212	0,171	85,758	0	1016,88	6,8	8,9	8,8	1	1	1	1	1	1	1	1	1	0	1	-6,412967	274,098471	313,630902	0
15.01.2021	20:00:55	0	0	3,389397	1,452	302,7276	0,172	85,761	0	1016,96	6,8	8,8	8,8	1	1	1	1	1	1	1	1	1	0	1	-8,879493	274,032925	310,858355	0
15.01.2021	20:00:56	0	0	5,084095	1,407	305,3628	0,175	85,755	0	1016,92	6,8	8,9	8,8	1	1	1	1	1	1	1	1	1	0	1	-9,936575	274,19871	310,575714	0
15.01.2021	20:00:57	0	0	4,858135	1,45725	319,608	0,178	85,76	0	1016,92	6,8	8,9	8,8	1	1	1	1	1	1	1	1	1	0	1	-13,107822	274,162743	307,236335	0
15.01.2021	20:00:58	0	0	2,937477	1,44225	312,8292	0,172	85,759	0	1016,92	6,8	9	8,8	1	1	1	1	1	1	1	1	1	0	1	-8,738548	274,210713	311,829869	0
15.01.2021	20:00:59	0	0	4,858135	1,49475	305,73	0,168	85,75	0	1016,82	6,8	8,8	8,8	1	1	1	1	1	1	1	1	1	0	1	-7,399577	274,191211	313,077653	0
15.01.2021	20:01:00	0	0	4,0673	1,49325	307,4904	0,177	85,756	0	1017,04	6,8	9	8,7	1	1	1	1	1	1	1	1	1	0	1	-10,993658	274,044826	308,799736	0
15.01.2021	20:01:01	0	0	4,0673	1,49325	307,4904	0,177	85,756	0	1017,04	6,8	9	8,7	1	1	1	1	1	1	1	1	1	0	1	-9,302326	274,185214	311,14687	0
15.01.2021	20:01:02	0	0	4,971115	1,52475	304,2684	0,174	85,757	0	1016,72	6,8	8,9	8,8	1	1	1	1	1	1	1	1	1	0	1	-10,923185	274,20321	309,610147	0
15.01.2021	20:01:03	0	0	4,406216	1,55775	311,4216	0,176	85,747	0	1016,96	6,8	8,9	8,8	1	1	1	1	1	1	1	1	1	0	1	-11,205074	274,206211	309,34229	0
15.01.2021	20:01:04	0	0	4,406216	1,686	314,0388	0,167	85,749	0	1017,02	6,8	9	8,8	1	1	1	1	1	1	1	1	1	0	1	-8,80902	274,155259	311,500157	0
15.01.2021	20:01:05	0	0	2,711534	1,8225	310,6476	0,175	85,762	0	1017	6,8	9	8,7	1	1	1	1	1	1	1	1	1	0	1	-11,627907	274,053757	308,207174	0
15.01.2021	20:01:06	0	0	3,050457	1,8975	328,446	0,173	85,753	0	1017,06	6,8	8,8	8,8	1	1	1	1	1	1	1	1	1	0	1	-10,570825	274,07312	309,354659	0
15.01.2021	20:01:07	0	0	3,389397	1,887	305,7336	0,17	85,759	0	1016,88	6,8	9	8,8	1	1	1	1	1	1	1	1	1	0	1	-10,359408	274,055245	309,482623	0
15.01.2021	20:01:08	0	0	4,293236	1,863	308,43	0,173	85,759	0	1016,98	6,8	8,9	8,8	1	1	1	1	1	1	1	1	1	0	1	-8,597604	274,222724	312,026984	0
15.01.2021	20:01:09	0	0	5,084095	1,8105	317,3076	0,167	85,732	0	1016,96	6,8	8,9	8,8	1	1	1	1	1	1	1	1	1	0	1	-10,359408	274,082064	309,607837	0
15.01.2021	20:01:10	0	0	4,519195	1,80225	298,6632	0,17	85,76	0	1017,04	6,8	8,9	8,8	1	1	1	1	1	1	1	1	1	0	1	-9,372798	274,064181	310,510948	0
15.01.2021	20:01:11	0	0	3,163437	1,83	308,1024	0,173	85,756	0	1016,98	6,8	8,9	8,8	1	1	1	1	1	1	1	1	1	0	1	-11,486963	274,076101	308,452439	0
15.01.2021	20:01:12	0	0	2,598537	1,824	307,638	0,169	85,753	0	1016,86	6,8	9	8,8	1	1	1	1	1	1	1	1	1	0	1	-6,412967	274,079082	313,540355	0
15.01.2021	20:01:13	0	0	4,180281	1,797	303,5376	0,166	85,747	0	1016,86	6,8	8,9	8,7	1	1	1	1	1	1	1	1	1	0	1	-5,84919	274,221223	314,768375	0
15.01.2021	20:01:14	0	0	4,406242	1,70325	327,3984	0,171	85,768	0	1016,96	6,8	8,9	8,7	1	1	1	1	1	1	1	1	1	0	1	-7,399577	274,171729	312,986578	0
15.01.2021	20:01:15	0	0	4,632175	1,62075	316,6524	0,173	85,758	0	1017,08	6,8	8,9	8,8	1	1	1	1	1	1	1	1	1	0	1	-10,218464	274,222724	310,406124	0
15.01.2021	20:01:16	0	0	4,858135	1,67175	300,8412	0,171	85,752	0	1017	6,8	8,9	8,8	1	1	1	1	1	1	1	1	1	0	1	-10,077519	274,191211	310,399711	0
15.01.2021	20:01:17	0	0	2,485558	1,65075	301,6548	0,17	85,746	0	1016,98	6,8	8,9	8,8	1	1	1	1	1	1	1	1	1	0	1	-9,231853	274,216718	311,364644	0
15.01.2021	20:01:18	0	0	2,824497	1,59675	313,956	0,173	85,75	0	1017,04	6,8	8,9	8,8	1	1	1	1	1	1	1	1	1	0	1	-7,610994	274,043338	312,175455	0
15.01.2021	20:01:19	0	0	3,276417	1,5435	312,858	0,164	85,744	0	1016,88	6,8	8,9	8,8	1	1	1	1	1	1	1	1	1	0	1	-9,866103	274,101456	310,191706	0
15.01.2021	20:01:20	0	0	4,858135	1,59525	302,4144	0,176	85,757	0	1016,88	6,8	8,9	8,8	1	1	1	1	1	1	1	1	1	0	1	-8,245243	274,052268	311,582888	0
15.01.2021	20:01:21	0	0	3,389397	1,8585	305,658	0,171	85,758	0	1016,84	6,8	9	8,8	1	1	1	1	1	1	1	1	1	0	1	-9,866103	274,111906	310,240517	0
15.01.2021	20:01:22	0	0	3,954296	1,923	298,98	0,175	85,755	0	1016,92	6,8	8,9	8,8	1	1	1	1	1	1	1	1	1	0	1	-10,923185	274,221223	309,694379	0
15.01.2021	20:01:23	0	0	3,954296	1,848	325,9332	0,169	85,747	0	1016,94	6,8	8,8	8,8	1	1	1	1	1	1	1	1	1	0	1	-4,298802	274,07163	315,619724	0
15.01.2021	20:01:24	0	0	3,276417	1,68225	333,4248	0,171	85,762	0	1017,08	6,8	9	8,8	1	1	1	1	1	1	1	1	1	0	1	-11,134602	274,122361	309,020861	0
15.01.2021	20:01:25	0	0	2,937495	1,55925	318,0816	0,166	85,752	0	1016,92	6,8	8,8	8,7	1	1	1	1	1	1	1	1	1	0	1	-9,654686	274,230235	311,00503	0
15.01.2021	20:01:26	0	0	4,293236	1,40175	325,5228	0,174	85,758	0	1016,92	6,8	8,8	8,8	1	1	1	1	1	1	1	1	1	0	1	-12,332629	274,088029	307,662471	0
15.01.2021	20:01:27	0	0	4,406242	1,41375	327,0888	0,172	85,755	0	1016,88	6,8	8,9	8,7	1	1	1	1	1	1	1	1	1	0	1	-6,765328	274,058223	313,090606	0
15.01.2021	20:01:28	0	0	2,372578	1,37775	329,2596	0,167	85,757	0	1016,84	6,8	8,9	8,8	1	1	1	1	1	1	1	1	1	0	1	-9,513742	274,215217	311,075734	0
15.01.2021	20:01:29	0	0	4,406216	1,302	310,6692	0,173	85,756	0	1016,94	6,8	8,9	8,8	1	1	1	1	1	1	1	1	1	0	1	-10,923185	274,096979	309,113714	0
15.01.2021	20:01:30	0	0	2,937495	1,26225	288,4644	0,172	85,757	0	1016,92	6,8	8,8	8,7	1	1	1	1	1	1	1	1	1	0	1	-13,319239	274,050779	306,501944	0
15.01.2021	20:01:31	0	0	3,954296	1,30425	304,9272	0,166	85,75	0	1016,88	6,8	8,9	8,8	1	1	1	1	1	1	1	1	1	0	1	-8,597604	274,126844	311,578801	0
15.01.2021	20:01:32	0	0	3,389417	1,33725	330,6816	0,173	85,756	0	1016,88	6,8	8,9	8,7	1	1	1	1	1	1	1	1	1	0	1	-9,513742	274,228733	311,138947	0
15.01.2021	20:01:33	0	0	3,276417	1,35375	324,738	0,166	85,743	0	1016,88	6,8	8,9	8,8	1	1	1	1	1	1	1	1	1	0	1	-8,80902	274,168733	311,563133	0
15.01.2021	20:01:34	0	0	3,276417	1,332	330,0768	0,17	85,761	0	1016,98	6,8	8,9	8,8	1	1	1	1	1	1	1	1	1	0	1	-10,077519	274,19571	310,420744	0
15.01.2021	20:01:35	0	0	4,519195	1,233	325,4364	0,171	85,752	0	1016,8	6,8	9	8,8	1	1	1	1	1	1	1	1	1	0	1	-17,124736	274,191211	303,352494	0
15.01.2021	20:01:36	0	0	4,519195	1,17675	324,378	0,167	85,747	0	1016,98	6,8	8,9	8,8	1	1	1	1	1	1	1	1	1	0	1	-5,144468	274,189712	315,325752	0
15.01.2021	20:01:37	0	0	3,276417	1,125	328,9284	0,167	85,757	0	1016,96	6,8	8,8	8,8	1	1	1	1	1	1	1	1	1	0	1	-7,117689	274,038875	312,647927	0
15.01.2021	20:01:38	0	0	4,406216	1,08525	341,2836	0,171	85,738	0	1016,92	6,8	9	8,8	1	1	1	1	1	1	1	1	1	0	1	-8,668076	274,152266	311,627114	0
15.01.2021	20:01:39	0	0	4,067276	1,12725	335,6316	0,169	85,763	0	1016,94	6,8	8,9	8,8	1	1	1	1	1	1	1	1	1	0	1	-9,725159	274,055245	310,116873	0
15.01.2021	20:01:40	0	0	3,163437	1,1475	322,92	0,173	85,767	0	1016,9	6,8	8,9	8,8	1	1	1	1	1	1	1	1	1	0	1	-9,513742	274,20021	311,005561	0
15.01.2021	20:01:41	0	0	2,937477	1,0605	333,1044	0,175	85,765	0	1016,98	6,8	8,9	8,8	1	1	1	1	1	1	1	1	1	0	1	-9,584214	274,126844	310,592191	0
15.01.2021	20:01:42	0	0	5,310055	0,9615	338,7816	0,172	85,752	0	1016,86	6,8	9	8,8	1	1	1	1	1	1	1	1	1	0	1	-8,104299	274,031438	311,626608	0
15.01.2021	20:01:43	0	0	4,406216	0,9735	335,3256	0,175	85,763	0	1017,1	6,8	9	8,8	1	1	1	1	1	1	1	1	1	0	1	-4,721635	274,183716	315,720553	0
15.01.2021	20:01:44	0	0	2,711534	0,9435	330,6888	0,172	85,758	0	1016,94	6,8	8,9	8,7	1	1	1	1	1	1	1	1	1	0	1	-8,80902	274,162743	311,535137	0
15.01.2021	20:01:45	0	0	5,310055	0,984	326,448	0,169	85,77	0	1017,08	6,8	8,9	8,8	1	1	1	1	1	1	1	1	1	0	1	-7,258633	274,0359	312,493097	0
15.01.2021	20:01:46	0	0	3,502376	1,0335	333,4356	0,166	85,773	0	1016,86	6,8	9	8,8	1	1	1	1	1	1	1	1	1	0	1	-6,553911	274,156756	313,762261	0
15.01.2021	20:01:47	0	0	4,406242	1,05525	327,1032	0,168	85,783	0	1017,02	6,8	8,9	8,7	1	1	1	1	1	1	1	1	1	0	1	-9,161381	274,037387	310,597291	0
15.01.2021	20:01:48	0	0	3,728336	1,0965	325,9224	0,164	85,773	0	1016,9	6,8	8,9	8,8	1	1	1	1	1	1	1	1	1	0	1	-8,315715	274,182217	312,119466	0
15.01.2021	20:01:49	0	0	2,598537	1,08	326,4552	0,161	85,77	0	1017	6,8	8,9	8,8	1	1	1	1	1	1	1	1	1	0	1	-12,262156	274,164241	308,088999	0
15.01.2021	20:01:50	0	0	4,632175	1,152	323,7696	0,169	85,759	0	1017,02	6,8	8,9	8,8	1	1	1	1	1	1	1	1	1	0	1	-11,909796	274,206211	308,637569	0
15.01.2021	20:01:51	0	0	3,728336	1,2255	314,478	0,171	85,776	0	1017	6,8	8,9	8,8	1	1	1	1	1	1	1	1	1	0	1	-7,82241	274,176223	312,584752	0
15.01.2021	20:01:52	0	0	4,293236	1,281	313,614	0,168	85,76	0	1016,78	6,8	8,9	8,8	1	1	1	1	1	1	1	1	1	0	1	-8,597604	274,083555	311,376604	0
15.01.2021	20:01:53	0	0	5,084095	1,32525	316,2744	0,163	85,749	0	1016,78	6,8	8,9	8,8	1	1	1	1	1	1	1	1	1	0	1	-8,879493	274,038875	310,886123	0
15.01.2021	20:01:54	0	0	2,711517	1,38375	315,1008	0,17	85,78	0	1016,94	6,8	8,9	8,8	1	1	1	1	1	1	1	1	1	0	1	-10,077519	274,186713	310,378684	0
15.01.2021	20:01:55	0	0	4,745155	1,4265	319,2156	0,169	85,772	0	1017,14	6,8	8,9	8,8	1	1	1	1	1	1	1	1	1	0	1	-9,513742	274,155259	310,795436	0
15.01.2021	20:01:56	0	0	4,406216	1,51125	318,096	0,174	85,783	0	1016,92	6,8	8,9	8,8	1	1	1	1	1	1	1	1	1	0	1	-6,412967	274,053757	313,422114	0
15.01.2021	20:01:57	0	0	5,197075	1,69575	324,072	0,164	85,773	0	1016,88	6,8	8,9	8,8	1	1	1	1	1	1	1	1	1	0	1	-7,892882	274,132823	312,311455	0
15.01.2021	20:01:58	0	0	2,937477	1,782	328,95	0,166	85,772	0	1016,9	6,8	8,9	8,8	1	1	1	1	1	1	1	1	1	0	1	-12,332629	274,029951	307,391338	0
15.01.2021	20:01:59	0	0	4,067276	1,72575	328,9176	0,17	85,775	0	1017,06	6,8	8,8	8,8	1	1	1	1	1	1	1	1	1	0	1	-11,768851	274,11788	308,365675	0
15.01.2021	20:02:00	0	0	2,372578	1,63875	303,9156	0,17	85,783	0	1017	6,8	8,9	8,8	1	1	1	1	1	1	1	1	1	0	1	-9,372798	274,209212	311,188601	0
15.01.2021	20:02:01	0	0	3,841316	1,689	308,8548	0,167	85,779	0	1017,02	6,8	8,9	8,8	1	1	1	1	1	1	1	1	1	0	1	-7,329105	274,219721	313,281436	0
15.01.2021	20:02:02	0	0	2,937477	1,69275	314,154	0,175	85,781	0	1016,96	6,8	9	8,8	1	1	1	1	1	1	1	1	1	0	1	-7,892882	274,141794	312,353374	0
15.01.2021	20:02:03	0	0	2,146618	1,65825	317,628	0,173	85,761	0	1016,84	6,8	8,9	8,8	1	1	1	1	1	1	1	1	1	0	1	-12,403101	274,218219	308,200418	0
15.01.2021	20:02:04	0	0	2,711517	1,731	318,492	0,166	85,776	0	1016,94	6,8	9	8,8	1	1	1	1	1	1	1	1	1	0	1	-9,231853	274,077591	310,714508	0
15.01.2021	20:02:05	0	0	4,971115	1,70475	314,4024	0,17	85,78	0	1017,02	6,8	8,9	8,8	1	1	1	1	1	1	1	1	1	0	1	-11,698379	274,123856	308,464064	0
15.01.2021	20:02:06	0	0	3,954296	1,6215	313,6716	0,167	85,779	0	1016,98	6,8	8,9	8,8	1	1	1	1	1	1	1	1	1	0	1	-9,936575	274,218219	310,666944	0
15.01.2021	20:02:07	0	0	3,050457	1,5585	306,162	0,168	85,787	0	1017,06	6,8	8,9	8,8	1	1	1	1	1	1	1	1	1	0	1	-10,007047	274,07014	309,904521	0
15.01.2021	20:02:08	0	0	4,180256	1,54275	315,9432	0,168	85,779	0	1017,28	6,8	8,8	8,8	1	1	1	1	1	1	1	1	1	0	1	-10,147992	274,092503	309,868005	0
15.01.2021	20:02:09	0	0	3,728336	1,4625	310,3344	0,172	85,776	0	1016,96	6,8	8,9	8,8	1	1	1	1	1	1	1	1	1	0	1	-9,866103	274,046314	309,934237	0
15.01.2021	20:02:10	0	0	3,728336	1,39125	311,4504	0,17	85,779	0	1017,04	6,8	8,9	8,8	1	1	1	1	1	1	1	1	1	0	1	-9,584214	274,138803	310,648066	0
15.01.2021	20:02:11	0	0	4,745155	1,281	312,552	0,169	85,783	0	1017	6,8	8,9	8,8	1	1	1	1	1	1	1	1	1	0	1	-7,82241	274,177721	312,591756	0
15.01.2021	20:02:12	0	0	3,615356	1,31925	303,1992	0,173	85,773	0	1016,88	6,8	8,9	8,8	1	1	1	1	1	1	1	1	1	0	1	-10,147992	274,053757	309,68709	0
15.01.2021	20:02:13	0	0	3,276417	1,42575	323,622	0,173	85,774	0	1016,82	6,8	9	8,8	1	1	1	1	1	1	1	1	1	0	1	-10,711769	274,105934	309,366955	0
15.01.2021	20:02:14	0	0	3,050457	1,57725	327,1356	0,169	85,781	0	1017	6,8	8,9	8,8	1	1	1	1	1	1	1	1	1	0	1	-8,527132	274,213715	312,055324	0
15.01.2021	20:02:15	0	0	2,824497	1,656	326,3076	0,164	85,771	0	1016,94	6,8	8,9	8,8	1	1	1	1	1	1	1	1	1	0	1	-5,21494	274,173227	315,178216	0
15.01.2021	20:02:16	0	0	3,502376	1,98525	307,2132	0,17	85,781	0	1017,02	6,8	8,9	8,8	1	1	1	1	1	1	1	1	1	0	1	-6,20155	274,204711	314,338797	0
15.01.2021	20:02:17	0	0	3,276417	2,28225	318,834	0,171	85,769	0	1016,94	6,8	8,9	8,8	1	1	1	1	1	1	1	1	1	0	1	-9,161381	274,186713	311,294822	0
15.01.2021	20:02:18	0	0	4,519195	2,3385	303,5088	0,168	85,773	0	1016,94	6,8	8,9	8,8	1	1	1	1	1	1	1	1	1	0	1	-10,500352	274,088029	309,494747	0
15.01.2021	20:02:19	0	0	2,711517	2,337	305,7372	0,172	85,761	0	1017	6,8	8,9	8,8	1	1	1	1	1	1	1	1	1	0	1	-10,42988	274,043338	309,356568	0
15.01.2021	20:02:20	0	0	3,389397	2,31675	304,6428	0,167	85,759	0	1016,8	6,8	8,8	8,8	1	1	1	1	1	1	1	1	1	0	1	-10,42988	274,170231	309,949273	0
15.01.2021	20:02:21	0	0	2,824497	2,1585	328,5468	0,169	85,785	0	1016,94	6,8	8,9	8,8	1	1	1	1	1	1	1	1	1	0	1	-6,765328	274,043338	313,021121	0
15.01.2021	20:02:22	0	0	4,406216	2,11875	312,858	0,167	85,78	0	1016,84	6,8	8,9	8,8	1	1	1	1	1	1	1	1	1	0	1	-8,386187	274,162743	311,95797	0
15.01.2021	20:02:23	0	0	4,293261	1,986	331,1064	0,164	85,751	0	1016,98	6,8	8,9	8,7	1	1	1	1	1	1	1	1	1	0	1	-6,8358	274,185214	313,613395	0
15.01.2021	20:02:24	0	0	2,937477	1,76175	314,0388	0,169	85,78	0	1016,96	6,8	8,8	8,8	1	1	1	1	1	1	1	1	1	0	1	-9,161381	274,215217	311,428095	0
15.01.2021	20:02:25	0	0	3,502376	1,6125	307,1268	0,171	85,779	0	1016,96	6,8	8,9	8,8	1	1	1	1	1	1	1	1	1	0	1	-8,315715	274,101456	311,742094	0
15.01.2021	20:02:26	0	0	4,406216	1,602	315,5724	0,172	85,78	0	1017,08	6,8	8,9	8,8	1	1	1	1	1	1	1	1	1	0	1	-6,8358	274,20021	313,683503	0
15.01.2021	20:02:27	0	0	3,389397	1,74525	319,6116	0,174	85,778	0	1016,94	6,8	8,8	8,8	1	1	1	1	1	1	1	1	1	0	1	-7,681466	274,076101	312,257936	0
15.01.2021	20:02:28	0	0	4,067276	1,797	324,3924	0,166	85,772	0	1016,94	6,8	8,9	8,8	1	1	1	1	1	1	1	1	1	0	1	-10,218464	274,040363	309,554095	0
15.01.2021	20:02:29	0	0	3,615356	1,719	330,768	0,166	85,77	0	1017,12	6,8	8,9	8,8	1	1	1	1	1	1	1	1	1	0	1	-9,936575	274,032925	309,801272	0
15.01.2021	20:02:30	0	0	5,084095	1,668	313,9956	0,169	85,766	0	1016,86	6,8	8,9	8,8	1	1	1	1	1	1	1	1	1	0	1	-12,896406	274,083555	307,077802	0
15.01.2021	20:02:31	0	0	4,293236	1,62375	316,6128	0,168	85,77	0	1016,98	6,8	8,9	8,8	1	1	1	1	1	1	1	1	1	0	1	-8,668076	274,022518	311,021202	0
15.01.2021	20:02:32	0	0	4,406242	1,56375	321,4368	0,169	85,759	0	1016,88	6,8	8,9	8,7	1	1	1	1	1	1	1	1	1	0	1	-11,275546	274,119373	308,865958	0
15.01.2021	20:02:33	0	0	4,519195	1,57425	301,608	0,171	85,778	0	1017,12	6,8	8,8	8,8	1	1	1	1	1	1	1	1	1	0	1	-10,42988	274,047803	309,377407	0
15.01.2021	20:02:34	0	0	5,084095	1,54575	316,6416	0,181	85,759	0	1016,98	6,8	8,9	8,8	1	1	1	1	1	1	1	1	1	0	1	-8,245243	274,206211	312,302121	0
15.01.2021	20:02:35	0	0	3,163437	1,52325	329,6844	0,17	85,763	0	1016,86	6,8	8,9	8,8	1	1	1	1	1	1	1	1	1	0	1	-5,919662	274,099963	314,131177	0
15.01.2021	20:02:36	0	0	5,423035	1,491	308,826	0,165	85,775	0	1016,94	6,8	8,9	8,8	1	1	1	1	1	1	1	1	1	0	1	-12,755462	274,20171	307,770855	0
15.01.2021	20:02:37	0	0	4,858135	1,45725	318,1752	0,173	85,771	0	1016,78	6,8	9	8,8	1	1	1	1	1	1	1	1	1	0	1	-13,389711	274,156756	306,926461	0
15.01.2021	20:02:38	0	0	4,067276	1,49175	304,9632	0,163	85,762	0	1016,94	6,8	8,9	8,8	1	1	1	1	1	1	1	1	1	0	1	-9,090909	274,212214	311,484527	0
15.01.2021	20:02:39	0	0	2,598537	1,55775	308,8188	0,17	85,779	0	1016,74	6,8	8,9	8,8	1	1	1	1	1	1	1	1	1	0	1	-11,205074	274,102948	308,859706	0
15.01.2021	20:02:40	0	0	2,824514	1,5375	320,6916	0,168	85,762	0	1016,98	6,8	8,9	8,7	1	1	1	1	1	1	1	1	1	0	1	-5,21494	274,15077	315,073258	0
15.01.2021	20:02:41	0	0	2,711517	1,51425	321,9156	0,164	85,757	0	1017,02	6,8	8,9	8,8	1	1	1	1	1	1	1	1	1	0	1	-10,077519	274,209212	310,483879	0
15.01.2021	20:02:42	0	0	4,519195	1,51875	311,4144	0,167	85,767	0	1016,98	6,8	8,9	8,8	1	1	1	1	1	1	1	1	1	0	1	-10,641297	274,07163	309,277229	0
15.01.2021	20:02:43	0	0	3,276417	1,668	318,456	0,165	85,779	0	1017,18	6,8	8,8	8,8	1	1	1	1	1	1	1	1	1	0	1	-5,567301	274,19421	314,923951	0
15.01.2021	20:02:44	0	0	3,050457	1,8285	316,3068	0,167	85,776	0	1017	6,8	8,9	8,8	1	1	1	1	1	1	1	1	1	0	1	-8,949965	274,04185	310,829539	0
15.01.2021	20:02:45	0	0	3,841316	1,80975	298,3104	0,168	85,751	0	1017	6,8	8,8	8,8	1	1	1	1	1	1	1	1	1	0	1	-7,751938	274,079082	312,201384	0
15.01.2021	20:02:46	0	0	2,711517	1,86975	287,7768	0,169	85,772	0	1017,16	6,8	8,9	8,8	1	1	1	1	1	1	1	1	1	0	1	-10,923185	274,20321	309,610147	0
15.01.2021	20:02:47	0	0	2,824497	1,80675	300,1824	0,168	85,753	0	1016,92	6,8	8,9	8,8	1	1	1	1	1	1	1	1	1	0	1	-6,20155	274,14329	314,051694	0
15.01.2021	20:02:48	0	0	4,858135	1,8225	313,3764	0,167	85,777	0	1017,06	6,8	9	8,8	1	1	1	1	1	1	1	1	1	0	1	-7,540521	274,186713	312,915681	0
15.01.2021	20:02:49	0	0	4,971115	1,86825	308,1168	0,163	85,767	0	1016,96	6,8	8,9	8,8	1	1	1	1	1	1	1	1	1	0	1	-8,45666	274,204711	312,083688	0
15.01.2021	20:02:50	0	0	2,937477	1,86825	308,1132	0,164	85,753	0	1016,9	6,8	8,9	8,8	1	1	1	1	1	1	1	1	1	0	1	-6,483439	274,204711	314,056909	0
15.01.2021	20:02:51	0	0	3,728336	1,788	300,8052	0,169	85,773	0	1016,9	6,8	8,9	8,8	1	1	1	1	1	1	1	1	1	0	1	-6,624383	274,074611	313,308059	0
15.01.2021	20:02:52	0	0	2,711517	1,64325	315,1476	0,163	85,769	0	1017,06	6,8	8,9	8,8	1	1	1	1	1	1	1	1	1	0	1	-5,567301	274,021032	314,115041	0
15.01.2021	20:02:53	0	0	4,745155	1,53075	322,9596	0,165	85,76	0	1017	6,8	8,9	8,8	1	1	1	1	1	1	1	1	1	0	1	-9,654686	274,161246	310,682474	0
15.01.2021	20:02:54	0	0	3,502376	1,4865	294,4152	0,167	85,785	0	1016,94	6,8	8,9	8,8	1	1	1	1	1	1	1	1	1	0	1	-7,470049	274,037387	312,288623	0
15.01.2021	20:02:55	0	0	2,711534	1,43325	312,4224	0,167	85,767	0	1017,06	6,8	8,9	8,7	1	1	1	1	1	1	1	1	1	0	1	-5,990134	274,053757	313,844947	0
15.01.2021	20:02:56	0	0	3,615356	1,39125	315,828	0,171	85,77	0	1017	6,8	8,9	8,8	1	1	1	1	1	1	1	1	1	0	1	-10,711769	274,132823	309,492569	0
15.01.2021	20:02:57	0	0	4,293236	1,42125	286,2144	0,167	85,767	0	1016,92	6,8	8,9	8,8	1	1	1	1	1	1	1	1	1	0	1	-3,382664	274,031438	316,348243	0
15.01.2021	20:02:58	0	0	3,841316	1,49475	307,656	0,166	85,776	0	1017	6,8	9	8,8	1	1	1	1	1	1	1	1	1	0	1	-8,45666	274,138803	311,775621	0
15.01.2021	20:02:59	0	0	3,615356	1,59975	310,2732	0,17	85,761	0	1016,96	6,8	8,9	8,8	1	1	1	1	1	1	1	1	1	0	1	-8,527132	274,052268	311,301	0
15.01.2021	20:03:00	0	0	2,711517	1,464	315,8136	0,168	85,778	0	1016,98	6,8	8,9	8,8	1	1	1	1	1	1	1	1	1	0	1	-8,949965	274,016574	310,711574	0
15.01.2021	20:03:01	0	0	2,711517	1,464	315,8136	0,168	85,778	0	1016,98	6,8	8,9	8,8	1	1	1	1	1	1	1	1	1	0	1	-9,513742	274,085046	310,467429	0
15.01.2021	20:03:02	0	0	4,632175	1,40925	337,554	0,172	85,776	0	1017	6,8	8,9	8,8	1	1	1	1	1	1	1	1	1	0	1	-8,879493	274,032925	310,858355	0
15.01.2021	20:03:03	0	0	3,389397	1,4745	339,12	0,166	85,784	0	1017	6,8	8,9	8,8	1	1	1	1	1	1	1	1	1	0	1	-11,698379	274,164241	308,652776	0
15.01.2021	20:03:04	0	0	4,406216	1,581	329,6736	0,166	85,782	0	1017,06	6,8	8,9	8,8	1	1	1	1	1	1	1	1	1	0	1	-7,188161	274,149273	313,093045	0
15.01.2021	20:03:05	0	0	4,406216	1,57275	321,21	0,17	85,768	0	1017,14	6,8	8,9	8,8	1	1	1	1	1	1	1	1	1	0	1	-7,258633	274,20171	313,267684	0
15.01.2021	20:03:06	0	0	3,954296	1,51725	317,0196	0,159	85,769	0	1016,94	6,8	8,9	8,8	1	1	1	1	1	1	1	1	1	0	1	-8,245243	274,155259	312,063935	0
15.01.2021	20:03:07	0	0	3,276417	1,41375	317,718	0,172	85,782	0	1016,94	6,8	8,9	8,8	1	1	1	1	1	1	1	1	1	0	1	-8,245243	274,019546	311,430164	0
15.01.2021	20:03:08	0	0	3,615356	1,35	309,4344	0,164	85,761	0	1017,02	6,8	8,9	8,8	1	1	1	1	1	1	1	1	1	0	1	-5,355884	274,167235	315,009269	0
15.01.2021	20:03:09	0	0	4,293236	1,3455	309,186	0,164	85,765	0	1016,94	6,8	8,9	8,8	1	1	1	1	1	1	1	1	1	0	1	-6,906272	274,074611	313,02617	0
15.01.2021	20:03:10	0	0	5,084095	1,42875	303,1992	0,171	85,769	0	1016,92	6,8	8,9	8,8	1	1	1	1	1	1	1	1	1	0	1	-10,570825	274,024005	309,12539	0
15.01.2021	20:03:11	0	0	2,372578	1,536	304,9056	0,171	85,773	0	1017,12	6,8	8,9	8,8	1	1	1	1	1	1	1	1	1	0	1	-8,245243	274,135813	311,973065	0
15.01.2021	20:03:12	0	0	3,728336	1,5855	312,8616	0,166	85,778	0	1017,04	6,8	8,9	8,8	1	1	1	1	1	1	1	1	1	0	1	-4,510218	274,040363	315,262341	0
15.01.2021	20:03:13	0	0	3,841316	1,53075	325,5192	0,17	85,769	0	1016,9	6,8	8,9	8,8	1	1	1	1	1	1	1	1	1	0	1	-8,527132	274,044826	311,266262	0
15.01.2021	20:03:14	0	0	3,728336	1,557	315,4968	0,168	85,776	0	1017,02	6,8	8,9	8,8	1	1	1	1	1	1	1	1	1	0	1	-9,654686	274,088029	310,340413	0
15.01.2021	20:03:15	0	0	2,372578	1,575	332,3808	0,165	85,778	0	1017	6,8	8,9	8,8	1	1	1	1	1	1	1	1	1	0	1	-10,288936	274,012117	309,351805	0
15.01.2021	20:03:16	0	0	2,824497	1,608	322,4088	0,162	85,769	0	1017	6,8	8,9	8,8	1	1	1	1	1	1	1	1	1	0	1	-8,315715	274,149273	311,965491	0
15.01.2021	20:03:17	0	0	5,310055	1,656	307,1124	0,17	85,787	0	1017,08	6,8	8,9	8,8	1	1	1	1	1	1	1	1	1	0	1	-9,584214	274,028464	310,132814	0
15.01.2021	20:03:18	0	0	4,519195	1,69425	319,6692	0,161	85,755	0	1016,74	6,8	8,9	8,8	1	1	1	1	1	1	1	1	1	0	1	-11,486963	274,168733	308,88519	0
15.01.2021	20:03:19	0	0	4,745155	1,6155	310,3056	0,164	85,756	0	1016,94	6,8	8,9	8,8	1	1	1	1	1	1	1	1	1	0	1	-3,805497	274,182217	316,629685	0
15.01.2021	20:03:20	0	0	4,858164	1,5975	303,1596	0,17	85,769	0	1016,92	6,8	8,9	8,7	1	1	1	1	1	1	1	1	1	0	1	-6,976744	274,189712	313,493476	0
15.01.2021	20:03:21	0	0	2,711517	1,6215	308,8296	0,167	85,755	0	1017,04	6,8	8,9	8,8	1	1	1	1	1	1	1	1	1	0	1	-9,936575	274,061202	309,933263	0
15.01.2021	20:03:22	0	0	2,937477	1,64775	308,3508	0,161	85,758	0	1016,86	6,8	8,9	8,8	1	1	1	1	1	1	1	1	1	0	1	-5,778717	274,216718	314,81778	0
15.01.2021	20:03:23	0	0	2,824497	1,60125	303,9084	0,164	85,763	0	1016,86	6,8	8,9	8,8	1	1	1	1	1	1	1	1	1	0	1	-7,681466	274,138803	312,550815	0
15.01.2021	20:03:24	0	0	3,502376	1,70775	304,6608	0,165	85,754	0	1016,96	6,8	8,9	8,8	1	1	1	1	1	1	1	1	1	0	1	-11,205074	274,182217	309,230108	0
15.01.2021	20:03:25	0	0	2,259598	1,78725	302,0184	0,163	85,754	0	1016,92	6,7	8,9	8,8	1	1	1	1	1	1	1	1	1	0	1	-6,483439	274,022518	313,205839	0
15.01.2021	20:03:26	0	0	2,711517	1,80975	310,1796	0,167	85,743	0	1016,88	6,8	8,9	8,8	1	1	1	1	1	1	1	1	1	0	1	-3,875969	274,076101	316,063433	0
15.01.2021	20:03:27	0	0	4,519195	1,767	308,0772	0,169	85,743	0	1017	6,8	8,9	8,8	1	1	1	1	1	1	1	1	1	0	1	-13,319239	274,037387	306,439433	0
15.01.2021	20:03:28	0	0	4,632175	1,79925	311,022	0,164	85,741	0	1016,9	6,8	8,9	8,8	1	1	1	1	1	1	1	1	1	0	1	-11,346018	274,173227	309,047138	0
15.01.2021	20:03:29	0	0	2,711517	1,78275	311,4396	0,162	85,743	0	1017,06	6,8	8,9	8,8	1	1	1	1	1	1	1	1	1	0	1	-7,610994	274,134318	312,600329	0
15.01.2021	20:03:30	0	0	3,728359	1,8915	309,5208	0,167	85,734	0	1017,04	6,8	9	8,7	1	1	1	1	1	1	1	1	1	0	1	-11,627907	274,182217	308,807275	0
15.01.2021	20:03:31	0	0	5,084095	2,0265	300,186	0,16	85,743	0	1016,82	6,8	8,9	8,8	1	1	1	1	1	1	1	1	1	0	1	-11,627907	274,085046	308,353264	0
15.01.2021	20:03:32	0	0	4,971115	2,14275	306,4356	0,166	85,743	0	1016,94	6,8	8,9	8,8	1	1	1	1	1	1	1	1	1	0	1	-7,751938	274,209212	312,809461	0
15.01.2021	20:03:33	0	0	4,406216	2,184	321,2928	0,164	85,718	0	1016,94	6,8	8,9	8,8	1	1	1	1	1	1	1	1	1	0	1	-11,41649	274,092503	308,599506	0
15.01.2021	20:03:34	0	0	3,163437	2,14875	315,4788	0,16	85,729	0	1017,06	6,8	8,9	8,8	1	1	1	1	1	1	1	1	1	0	1	-6,272023	274,20321	314,26131	0
15.01.2021	20:03:35	0	0	4,632175	2,03325	316,6236	0,167	85,738	0	1016,92	6,8	8,9	8,8	1	1	1	1	1	1	1	1	1	0	1	-5,990134	274,176223	314,417028	0
15.01.2021	20:03:36	0	0	4,406216	1,98075	311,7456	0,161	85,743	0	1017,06	6,8	8,9	8,8	1	1	1	1	1	1	1	1	1	0	1	-6,483439	274,20171	314,042878	0
15.01.2021	20:03:37	0	0	2,937477	1,92375	313,5348	0,165	85,742	0	1017,14	6,8	8,9	8,8	1	1	1	1	1	1	1	1	1	0	1	-7,82241	274,059713	312,040475	0
15.01.2021	20:03:38	0	0	3,276436	1,9575	302,8212	0,172	85,737	0	1017,04	6,8	8,9	8,7	1	1	1	1	1	1	1	1	1	0	1	-9,866103	274,049291	309,948132	0
15.01.2021	20:03:39	0	0	3,050475	2,03925	319,9968	0,164	85,737	0	1016,9	6,8	8,9	8,7	1	1	1	1	1	1	1	1	1	0	1	-11,698379	274,034413	308,046409	0
15.01.2021	20:03:40	0	0	4,745155	2,295	314,0532	0,163	85,743	0	1017,02	6,8	8,9	8,8	1	1	1	1	1	1	1	1	1	0	1	-7,399577	274,091012	312,609453	0
15.01.2021	20:03:41	0	0	2,485558	2,53125	302,814	0,17	85,734	0	1016,82	6,8	8,9	8,8	1	1	1	1	1	1	1	1	1	0	1	-9,161381	274,19421	311,32987	0
15.01.2021	20:03:42	0	0	4,180256	2,5635	294,4296	0,163	85,736	0	1017	6,7	8,9	8,8	1	1	1	1	1	1	1	1	1	0	1	-7,258633	274,096979	312,778267	0
15.01.2021	20:03:43	0	0	4,293236	2,57925	303,9156	0,161	85,739	0	1016,86	6,8	8,9	8,8	1	1	1	1	1	1	1	1	1	0	1	-9,090909	274,177721	311,323257	0
15.01.2021	20:03:44	0	0	4,632175	2,62425	305,388	0,162	85,738	0	1017,04	6,8	8,9	8,8	1	1	1	1	1	1	1	1	1	0	1	-10,570825	274,064181	309,312921	0
15.01.2021	20:03:45	0	0	4,067276	2,6595	301,59	0,164	85,733	0	1017,02	6,8	8,9	8,8	1	1	1	1	1	1	1	1	1	0	1	-4,862579	274,07312	315,062904	0
15.01.2021	20:03:46	0	0	3,163456	2,6805	310,2696	0,16	85,731	0	1017,1	6,7	8,9	8,7	1	1	1	1	1	1	1	1	1	0	1	-8,949965	274,025491	310,753187	0
15.01.2021	20:03:47	0	0	4,180256	2,68425	305,6652	0,162	85,736	0	1016,76	6,8	8,9	8,8	1	1	1	1	1	1	1	1	1	0	1	-11,839323	274,134318	308,371999	0
15.01.2021	20:03:48	0	0	4,632175	2,68125	308,4228	0,156	85,73	0	1016,92	6,8	8,9	8,8	1	1	1	1	1	1	1	1	1	0	1	-9,44327	274,20321	311,090062	0
15.01.2021	20:03:49	0	0	3,389417	2,6595	303,8292	0,161	85,727	0	1017	6,8	8,9	8,7	1	1	1	1	1	1	1	1	1	0	1	-7,82241	274,111906	312,284209	0
15.01.2021	20:03:50	0	0	2,711517	2,66475	300,3948	0,162	85,735	0	1016,84	6,8	8,9	8,8	1	1	1	1	1	1	1	1	1	0	1	-7,963354	274,19721	312,541921	0
15.01.2021	20:03:51	0	0	4,858164	2,553	300,0924	0,169	85,736	0	1016,96	6,8	8,9	8,7	1	1	1	1	1	1	1	1	1	0	1	-8,949965	274,146281	311,317259	0
15.01.2021	20:03:52	0	0	2,372578	2,5095	306,8604	0,162	85,74	0	1016,98	6,8	8,9	8,8	1	1	1	1	1	1	1	1	1	0	1	-9,090909	274,044826	310,702485	0
15.01.2021	20:03:53	0	0	5,084095	2,4135	300,0996	0,159	85,713	0	1016,9	6,8	8,9	8,8	1	1	1	1	1	1	1	1	1	0	1	-8,033827	274,140298	312,205441	0
15.01.2021	20:03:54	0	0	3,276417	2,262	294,1668	0,161	85,726	0	1016,98	6,8	8,9	8,8	1	1	1	1	1	1	1	1	1	0	1	-9,372798	274,19871	311,139491	0
15.01.2021	20:03:55	0	0	2,937477	2,16225	282,9564	0,157	85,729	0	1016,86	6,8	8,9	8,8	1	1	1	1	1	1	1	1	1	0	1	-8,879493	274,062691	310,997299	0
15.01.2021	20:03:56	0	0	3,050457	2,14125	299,3868	0,156	85,722	0	1017,02	6,8	8,9	8,8	1	1	1	1	1	1	1	1	1	0	1	-11,839323	274,185214	308,609872	0
15.01.2021	20:03:57	0	0	4,406216	2,253	303,4476	0,159	85,731	0	1016,9	6,8	8,9	8,8	1	1	1	1	1	1	1	1	1	0	1	-10,147992	274,146281	310,119232	0
15.01.2021	20:03:58	0	0	3,615356	2,27625	299,4444	0,163	85,737	0	1016,94	6,8	8,9	8,8	1	1	1	1	1	1	1	1	1	0	1	-13,107822	274,188213	307,355389	0
15.01.2021	20:03:59	0	0	4,519195	2,3205	302,3532	0,158	85,749	0	1016,98	6,8	8,9	8,8	1	1	1	1	1	1	1	1	1	0	1	-11,627907	274,12535	308,541517	0
15.01.2021	20:04:00	0	0	1,92067	2,397	308,448	0,164	85,745	0	1017	6,8	8,9	8,7	1	1	1	1	1	1	1	1	1	0	1	-6,906272	274,006175	312,706747	0
15.01.2021	20:04:01	0	0	4,632175	2,6025	305,3448	0,161	85,742	0	1016,98	6,8	8,9	8,8	1	1	1	1	1	1	1	1	1	0	1	-9,866103	274,146281	310,401121	0
15.01.2021	20:04:02	0	0	4,180256	2,7135	323,712	0,164	85,749	0	1016,8	6,8	8,9	8,8	1	1	1	1	1	1	1	1	1	0	1	-8,45666	274,168733	311,915493	0
15.01.2021	20:04:03	0	0	3,050457	2,7495	322,2252	0,158	85,739	0	1016,98	6,8	8,9	8,8	1	1	1	1	1	1	1	1	1	0	1	-8,527132	274,0359	311,224598	0
15.01.2021	20:04:04	0	0	3,728336	2,685	318,744	0,167	85,742	0	1016,98	6,8	8,9	8,8	1	1	1	1	1	1	1	1	1	0	1	-9,866103	274,052268	309,962029	0
15.01.2021	20:04:05	0	0	4,180256	2,58225	316,98	0,162	85,745	0	1016,92	6,8	8,9	8,8	1	1	1	1	1	1	1	1	1	0	1	-7,188161	274,044826	312,605233	0
15.01.2021	20:04:06	0	0	3,502376	2,61075	315,5292	0,157	85,73	0	1016,84	6,8	8,9	8,8	1	1	1	1	1	1	1	1	1	0	1	-12,896406	274,038875	306,869209	0
15.01.2021	20:04:07	0	0	4,971145	2,50575	318,1212	0,159	85,746	0	1016,88	6,8	8,9	8,7	1	1	1	1	1	1	1	1	1	0	1	-10,007047	274,170231	310,372106	0
15.01.2021	20:04:08	0	0	3,389397	2,36625	331,128	0,153	85,753	0	1016,98	6,8	8,9	8,8	1	1	1	1	1	1	1	1	1	0	1	-6,412967	274,114893	313,707605	0
15.01.2021	20:04:09	0	0	2,937495	2,193	308,1456	0,161	85,735	0	1017,12	6,8	8,9	8,7	1	1	1	1	1	1	1	1	1	0	1	-6,342495	274,019546	313,332912	0
15.01.2021	20:04:10	0	0	4,971115	2,1375	301,59	0,159	85,727	0	1016,96	6,8	8,9	8,8	1	1	1	1	1	1	1	1	1	0	1	-11,768851	274,146281	308,498373	0
15.01.2021	20:04:11	0	0	4,293236	2,1015	306,1404	0,16	85,73	0	1017	6,8	8,9	8,8	1	1	1	1	1	1	1	1	1	0	1	-11,346018	274,022518	308,34326	0
15.01.2021	20:04:12	0	0	3,276436	1,98075	311,8428	0,163	85,733	0	1016,74	6,8	8,9	8,7	1	1	1	1	1	1	1	1	1	0	1	-8,174771	274,053757	311,66031	0
15.01.2021	20:04:13	0	0	4,632203	1,99125	306,4644	0,16	85,731	0	1016,92	6,8	8,9	8,7	1	1	1	1	1	1	1	1	1	0	1	-13,953488	274,174725	306,446671	0
15.01.2021	20:04:14	0	0	2,824497	1,97175	301,1796	0,162	85,731	0	1016,94	6,8	8,9	8,8	1	1	1	1	1	1	1	1	1	0	1	-5,003524	274,110413	315,096121	0
15.01.2021	20:04:15	0	0	4,519195	1,83075	283,5684	0,16	85,723	0	1016,96	6,8	8,9	8,8	1	1	1	1	1	1	1	1	1	0	1	-8,315715	274,188213	312,147496	0
15.01.2021	20:04:16	0	0	4,406216	1,788	304,6932	0,155	85,718	0	1016,9	6,8	8,9	8,8	1	1	1	1	1	1	1	1	1	0	1	-14,164905	274,053757	305,670176	0
15.01.2021	20:04:17	0	0	4,632175	1,74375	286,6464	0,157	85,733	0	1017,02	6,8	8,9	8,8	1	1	1	1	1	1	1	1	1	0	1	-7,047216	274,183716	313,394972	0
15.01.2021	20:04:18	0	0	4,519195	1,704	306,7884	0,159	85,749	0	1017,06	6,8	8,9	8,8	1	1	1	1	1	1	1	1	1	0	1	-8,949965	274,17922	311,471206	0
15.01.2021	20:04:19	0	0	4,858135	1,67175	297,4788	0,157	85,722	0	1016,94	6,8	8,9	8,8	1	1	1	1	1	1	1	1	1	0	1	-9,513742	274,07163	310,404784	0
15.01.2021	20:04:20	0	0	4,971115	1,73175	304,6968	0,158	85,729	0	1016,92	6,8	8,9	8,8	1	1	1	1	1	1	1	1	1	0	1	-5,496829	274,189712	314,973392	0
15.01.2021	20:04:21	0	0	2,598537	1,75125	302,1624	0,156	85,717	0	1016,88	6,8	8,9	8,8	1	1	1	1	1	1	1	1	1	0	1	-6,412967	274,141794	313,833289	0
15.01.2021	20:04:22	0	0	3,163456	1,6785	294,4152	0,151	85,734	0	1017,02	6,8	8,9	8,7	1	1	1	1	1	1	1	1	1	0	1	-12,755462	274,209212	307,805937	0
15.01.2021	20:04:23	0	0	2,937495	1,5885	286,668	0,156	85,729	0	1016,94	6,8	8,9	8,7	1	1	1	1	1	1	1	1	1	0	1	-11,41649	274,052268	308,411641	0
15.01.2021	20:04:24	0	0	4,406216	1,49475	290,772	0,154	85,725	0	1016,94	6,8	8,9	8,8	1	1	1	1	1	1	1	1	1	0	1	-7,188161	274,176223	313,219002	0
15.01.2021	20:04:25	0	0	3,502398	1,41825	311,8608	0,16	85,73	0	1017,06	6,8	8,9	8,7	1	1	1	1	1	1	1	1	1	0	1	-7,82241	274,134318	312,388912	0
15.01.2021	20:04:26	0	0	3,841316	1,37325	317,7324	0,163	85,733	0	1016,96	6,7	8,9	8,8	1	1	1	1	1	1	1	1	1	0	1	-8,386187	274,20021	312,133115	0
15.01.2021	20:04:27	0	0	3,502376	1,368	297,2916	0,161	85,742	0	1016,9	6,8	8,9	8,8	1	1	1	1	1	1	1	1	1	0	1	-6,906272	274,114893	313,214299	0
15.01.2021	20:04:28	0	0	4,180281	1,46475	323,6904	0,162	85,741	0	1017,02	6,8	8,9	8,7	1	1	1	1	1	1	1	1	1	0	1	-12,191684	274,186713	308,264519	0
15.01.2021	20:04:29	0	0	3,615356	1,5315	311,85	0,16	85,726	0	1017,04	6,8	8,9	8,8	1	1	1	1	1	1	1	1	1	0	1	-7,188161	274,123856	312,974282	0
15.01.2021	20:04:30	0	0	2,485558	1,62075	321,156	0,161	85,73	0	1016,9	6,8	8,9	8,8	1	1	1	1	1	1	1	1	1	0	1	-8,174771	274,006175	311,438248	0
15.01.2021	20:04:31	0	0	4,858135	1,6605	312,1884	0,162	85,745	0	1017	6,8	8,9	8,8	1	1	1	1	1	1	1	1	1	0	1	-9,725159	274,159749	310,605005	0
15.01.2021	20:04:32	0	0	4,745155	1,731	310,3164	0,162	85,745	0	1016,92	6,8	8,9	8,8	1	1	1	1	1	1	1	1	1	0	1	-10,570825	274,155259	309,738353	0
15.01.2021	20:04:33	0	0	2,598537	1,86	315,9396	0,162	85,739	0	1016,9	6,8	8,9	8,8	1	1	1	1	1	1	1	1	1	0	1	-10,852713	274,024005	308,843501	0
15.01.2021	20:04:34	0	0	2,937477	1,9395	320,4432	0,158	85,728	0	1016,98	6,8	8,9	8,8	1	1	1	1	1	1	1	1	1	0	1	-5,567301	274,152266	314,72789	0
15.01.2021	20:04:35	0	0	5,084125	1,9485	324,1008	0,156	85,725	0	1017	6,8	8,9	8,7	1	1	1	1	1	1	1	1	1	0	1	-13,883016	274,156756	306,433156	0
15.01.2021	20:04:36	0	0	4,293261	1,9845	318,4272	0,154	85,745	0	1016,92	6,8	8,9	8,7	1	1	1	1	1	1	1	1	1	0	1	-11,557435	274,191211	308,919795	0
15.01.2021	20:04:37	0	0	3,050457	1,93575	324,684	0,161	85,747	0	1016,98	6,7	8,9	8,8	1	1	1	1	1	1	1	1	1	0	1	-8,527132	274,0359	311,224598	0
15.01.2021	20:04:38	0	0	4,406216	1,908	315,2016	0,158	85,751	0	1016,98	6,8	8,9	8,8	1	1	1	1	1	1	1	1	1	0	1	-12,755462	274,146281	307,511762	0
15.01.2021	20:04:39	0	0	2,711517	1,95525	315,306	0,16	85,749	0	1016,88	6,8	8,9	8,8	1	1	1	1	1	1	1	1	1	0	1	-9,725159	274,003205	309,874004	0
15.01.2021	20:04:40	0	0	3,841339	1,932	317,6856	0,161	85,758	0	1016,96	6,8	8,9	8,7	1	1	1	1	1	1	1	1	1	0	1	-8,45666	274,122361	311,698803	0
15.01.2021	20:04:41	0	0	4,745184	1,85775	318,4056	0,161	85,754	0	1017,08	6,8	8,9	8,7	1	1	1	1	1	1	1	1	1	0	1	-10,42988	274,209212	310,131519	0
15.01.2021	20:04:42	0	0	3,163437	1,72425	311,3172	0,157	85,751	0	1016,96	6,7	8,9	8,8	1	1	1	1	1	1	1	1	1	0	1	-13,883016	274,083555	306,091191	0
15.01.2021	20:04:43	0	0	3,841316	1,587	310,59	0,158	85,757	0	1016,92	6,8	8,9	8,8	1	1	1	1	1	1	1	1	1	0	1	-15,64482	274,149273	304,636386	0
15.01.2021	20:04:44	0	0	4,971145	1,50675	317,3004	0,158	85,763	0	1016,94	6,8	8,9	8,7	1	1	1	1	1	1	1	1	1	0	1	-7,681466	274,19421	312,809786	0
15.01.2021	20:04:45	0	0	2,485558	1,41225	315,4752	0,154	85,749	0	1016,98	6,8	8,9	8,8	1	1	1	1	1	1	1	1	1	0	1	-7,470049	274,140298	312,769219	0
15.01.2021	20:04:46	0	0	2,711517	1,39425	333,1188	0,171	85,765	0	1017,1	6,7	8,9	8,8	1	1	1	1	1	1	1	1	1	0	1	-9,372798	274,013602	310,274875	0
15.01.2021	20:04:47	0	0	4,632175	1,4055	312,1632	0,158	85,741	0	1016,92	6,8	8,9	8,8	1	1	1	1	1	1	1	1	1	0	1	-15,574348	274,092503	304,441648	0
15.01.2021	20:04:48	0	0	4,632175	1,4325	303,8508	0,161	85,757	0	1016,92	6,8	8,9	8,8	1	1	1	1	1	1	1	1	1	0	1	-10,711769	274,064181	309,171977	0
15.01.2021	20:04:49	0	0	4,180256	1,55625	308,8476	0,16	85,754	0	1017,12	6,8	8,9	8,8	1	1	1	1	1	1	1	1	1	0	1	-5,990134	274,20021	314,529169	0
15.01.2021	20:04:50	0	0	2,937477	1,5555	300,402	0,157	85,744	0	1016,82	6,8	8,9	8,8	1	1	1	1	1	1	1	1	1	0	1	-4,439746	274,114893	315,680825	0
15.01.2021	20:04:51	0	0	3,615378	1,6155	301,1832	0,156	85,758	0	1016,98	6,8	8,9	8,7	1	1	1	1	1	1	1	1	1	0	1	-6,906272	274,17922	313,514899	0
15.01.2021	20:04:52	0	0	4,293236	1,8135	302,7816	0,158	85,751	0	1016,98	6,8	8,9	8,8	1	1	1	1	1	1	1	1	1	0	1	-8,033827	274,158252	312,289341	0
15.01.2021	20:04:53	0	0	3,728359	1,89975	310,9716	0,162	85,756	0	1016,98	6,7	8,9	8,7	1	1	1	1	1	1	1	1	1	0	1	-5,708245	274,192711	314,775995	0
15.01.2021	20:04:54	0	0	3,502398	1,79325	315,2592	0,159	85,766	0	1016,92	6,8	8,9	8,7	1	1	1	1	1	1	1	1	1	0	1	-9,654686	274,186713	310,801516	0
15.01.2021	20:04:55	0	0	3,163437	1,68675	319,3056	0,159	85,765	0	1016,94	6,8	8,9	8,8	1	1	1	1	1	1	1	1	1	0	1	-8,315715	274,152266	311,979475	0
15.01.2021	20:04:56	0	0	3,841339	1,61175	312,1092	0,162	85,757	0	1017,06	6,8	8,9	8,7	1	1	1	1	1	1	1	1	1	0	1	-10,993658	274,19421	309,497594	0
15.01.2021	20:04:57	0	0	4,0673	1,5045	315,2448	0,152	85,749	0	1016,76	6,8	8,9	8,7	1	1	1	1	1	1	1	1	1	0	1	-9,231853	274,182217	311,203328	0
15.01.2021	20:04:58	0	0	4,293261	1,6395	322,9812	0,161	85,765	0	1016,9	6,8	8,9	8,7	1	1	1	1	1	1	1	1	1	0	1	-8,597604	274,206211	311,94976	0
15.01.2021	20:04:59	0	0	2,824497	1,7745	316,9692	0,163	85,755	0	1016,98	6,8	8,9	8,8	1	1	1	1	1	1	1	1	1	0	1	-7,963354	274,040363	311,809205	0
15.01.2021	20:05:00	0	0	3,389417	1,86	302,04	0,159	85,759	0	1017	6,8	8,9	8,7	1	1	1	1	1	1	1	1	1	0	1	-5,84919	274,138803	314,383091	0
15.01.2021	20:05:01	0	0	3,95432	1,9755	331,11	0,162	85,744	0	1016,88	6,8	8,9	8,7	1	1	1	1	1	1	1	1	1	0	1	-6,8358	274,019546	312,839607	0
15.01.2021	20:05:02	0	0	3,276417	2,00775	301,6296	0,161	85,756	0	1016,94	6,8	8,9	8,8	1	1	1	1	1	1	1	1	1	0	1	-7,82241	274,155259	312,486768	0
15.01.2021	20:05:03	0	0	3,389397	1,9575	314,118	0,165	85,752	0	1016,96	6,8	8,9	8,8	1	1	1	1	1	1	1	1	1	0	1	-7,610994	274,135813	312,607314	0
15.01.2021	20:05:04	0	0	4,293261	1,8705	298,6344	0,161	85,751	0	1017	6,8	8,9	8,7	1	1	1	1	1	1	1	1	1	0	1	-7,540521	274,056734	312,308461	0
15.01.2021	20:05:05	0	0	2,824497	1,779	312,4908	0,16	85,758	0	1017	6,8	8,9	8,8	1	1	1	1	1	1	1	1	1	0	1	-8,104299	274,138803	312,127982	0
15.01.2021	20:05:06	0	0	3,163456	1,76325	309,2076	0,165	85,748	0	1016,84	6,8	8,9	8,7	1	1	1	1	1	1	1	1	1	0	1	-11,768851	274,20321	308,764481	0
15.01.2021	20:05:07	0	0	4,519223	1,66575	309,2832	0,162	85,758	0	1016,92	6,8	8,9	8,7	1	1	1	1	1	1	1	1	1	0	1	-10,077519	274,132823	310,126818	0
15.01.2021	20:05:08	0	0	2,372578	1,6095	309,1896	0,164	85,754	0	1017,02	6,8	8,9	8,8	1	1	1	1	1	1	1	1	1	0	1	-9,090909	274,204711	311,449439	0
15.01.2021	20:05:09	0	0	3,502376	1,63725	314,7444	0,159	85,751	0	1016,86	6,8	8,9	8,8	1	1	1	1	1	1	1	1	1	0	1	-5,285412	274,156756	315,03076	0
15.01.2021	20:05:10	0	0	5,084095	1,7055	310,248	0,155	85,744	0	1017	6,8	8,9	8,8	1	1	1	1	1	1	1	1	1	0	1	-6,20155	274,182217	314,233631	0
15.01.2021	20:05:11	0	0	4,632175	1,76475	309,528	0,161	85,753	0	1016,8	6,7	8,9	8,8	1	1	1	1	1	1	1	1	1	0	1	-12,403101	274,06567	307,4876	0
15.01.2021	20:05:12	0	0	4,858164	1,719	303,5088	0,163	85,752	0	1017,02	6,8	8,9	8,7	1	1	1	1	1	1	1	1	1	0	1	-8,386187	274,015088	311,268418	0
15.01.2021	20:05:13	0	0	3,050457	1,62825	321,5556	0,16	85,763	0	1016,98	6,8	8,9	8,8	1	1	1	1	1	1	1	1	1	0	1	-6,906272	274,111906	313,200348	0
15.01.2021	20:05:14	0	0	3,276436	1,72575	313,5924	0,161	85,754	0	1016,88	6,8	8,9	8,7	1	1	1	1	1	1	1	1	1	0	1	-9,654686	274,189712	310,815534	0
15.01.2021	20:05:15	0	0	4,067276	1,8075	312,2136	0,161	85,755	0	1016,82	6,8	8,9	8,8	1	1	1	1	1	1	1	1	1	0	1	-5,144468	274,137308	315,080826	0
15.01.2021	20:05:16	0	0	2,598537	1,857	297,6264	0,166	85,747	0	1017	6,8	8,9	8,8	1	1	1	1	1	1	1	1	1	0	1	-9,302326	274,164241	311,04883	0
15.01.2021	20:05:17	0	0	2,711534	1,82025	314,1432	0,157	85,755	0	1017,02	6,8	8,9	8,7	1	1	1	1	1	1	1	1	1	0	1	-9,302326	274,015088	310,35228	0
15.01.2021	20:05:18	0	0	2,824497	1,7955	315,9036	0,162	85,745	0	1016,84	6,8	8,9	8,8	1	1	1	1	1	1	1	1	1	0	1	-5,84919	274,140298	314,390078	0
15.01.2021	20:05:19	0	0	3,502398	1,728	318,8268	0,159	85,749	0	1016,9	6,8	8,9	8,7	1	1	1	1	1	1	1	1	1	0	1	-6,20155	274,01806	313,466922	0
15.01.2021	20:05:20	0	0	2,937477	1,62525	309,582	0,162	85,756	0	1016,98	6,8	8,9	8,8	1	1	1	1	1	1	1	1	1	0	1	-8,597604	274,06716	311,300052	0
15.01.2021	20:05:21	0	0	3,050457	1,61925	315,2808	0,163	85,754	0	1017,16	6,8	8,9	8,8	1	1	1	1	1	1	1	1	1	0	1	-6,624383	274,022518	313,064895	0
15.01.2021	20:05:22	0	0	2,711517	1,60425	311,76	0,159	85,758	0	1017	6,8	8,9	8,8	1	1	1	1	1	1	1	1	1	0	1	-5,355884	274,165738	315,002269	0
15.01.2021	20:05:23	0	0	4,293236	1,58625	305,7264	0,162	85,764	0	1016,94	6,8	8,9	8,8	1	1	1	1	1	1	1	1	1	0	1	-7,047216	274,034413	312,697572	0
15.01.2021	20:05:24	0	0	4,745184	1,58925	302,4612	0,161	85,754	0	1017	6,8	8,9	8,7	1	1	1	1	1	1	1	1	1	0	1	-9,513742	274,025491	310,18941	0
15.01.2021	20:05:25	0	0	3,728336	1,69725	309,2508	0,161	85,763	0	1017	6,8	8,9	8,8	1	1	1	1	1	1	1	1	1	0	1	-9,372798	274,085046	310,608373	0
15.01.2021	20:05:26	0	0	4,293261	1,72875	301,4892	0,157	85,741	0	1016,86	6,8	8,9	8,7	1	1	1	1	1	1	1	1	1	0	1	-7,258633	274,19421	313,232619	0
15.01.2021	20:05:27	0	0	4,519223	1,854	314,1504	0,159	85,767	0	1017,22	6,8	8,9	8,7	1	1	1	1	1	1	1	1	1	0	1	-9,090909	274,131328	311,106444	0
15.01.2021	20:05:28	0	0	4,406216	1,88925	315,6588	0,158	85,765	0	1017,02	6,8	8,9	8,8	1	1	1	1	1	1	1	1	1	0	1	-9,513742	274,01806	310,15473	0
15.01.2021	20:05:29	0	0	4,632203	1,83225	313,2252	0,158	85,757	0	1016,94	6,8	8,9	8,7	1	1	1	1	1	1	1	1	1	0	1	-6,272023	274,171729	314,114132	0
15.01.2021	20:05:30	0	0	4,180281	1,71375	317,0412	0,162	85,761	0	1016,78	6,8	8,9	8,7	1	1	1	1	1	1	1	1	1	0	1	-8,597604	274,14329	311,655641	0
15.01.2021	20:05:31	0	0	4,519223	1,713	319,698	0,165	85,769	0	1016,9	6,8	8,9	8,7	1	1	1	1	1	1	1	1	1	0	1	-5,567301	274,19421	314,923951	0
15.01.2021	20:05:32	0	0	4,293236	1,7175	311,9076	0,162	85,765	0	1016,98	6,8	8,9	8,8	1	1	1	1	1	1	1	1	1	0	1	-9,866103	274,164241	310,485052	0
15.01.2021	20:05:33	0	0	3,050475	1,6485	311,3784	0,16	85,756	0	1016,86	6,8	8,9	8,7	1	1	1	1	1	1	1	1	1	0	1	-10,993658	274,19871	309,518631	0
15.01.2021	20:05:34	0	0	3,95432	1,614	308,5308	0,162	85,758	0	1017	6,8	8,9	8,7	1	1	1	1	1	1	1	1	1	0	1	-13,530655	274,147777	306,743559	0
15.01.2021	20:05:35	0	0	3,728359	1,54125	303,228	0,151	85,754	0	1016,9	6,8	8,9	8,7	1	1	1	1	1	1	1	1	1	0	1	-7,188161	274,165738	313,169993	0
15.01.2021	20:05:36	0	0	3,841339	1,4805	302,1336	0,162	85,767	0	1016,84	6,8	8,9	8,7	1	1	1	1	1	1	1	1	1	0	1	-9,090909	274,165738	311,267245	0
15.01.2021	20:05:37	0	0	3,502398	1,49175	300,0528	0,162	85,761	0	1016,84	6,8	8,9	8,7	1	1	1	1	1	1	1	1	1	0	1	-8,45666	274,07312	311,468824	0
15.01.2021	20:05:38	0	0	4,745155	1,62825	304,2504	0,159	85,769	0	1016,96	6,8	8,9	8,8	1	1	1	1	1	1	1	1	1	0	1	-8,386187	274,158252	311,93698	0
15.01.2021	20:05:39	0	0	3,050457	1,683	302,832	0,16	85,761	0	1016,94	6,7	8,9	8,8	1	1	1	1	1	1	1	1	1	0	1	-7,751938	274,174725	312,648221	0
15.01.2021	20:05:40	0	0	3,841316	1,67025	310,6296	0,163	85,764	0	1017,12	6,8	8,9	8,8	1	1	1	1	1	1	1	1	1	0	1	-12,684989	274,01806	306,983483	0
15.01.2021	20:05:41	0	0	3,502398	1,65075	310,2156	0,161	85,767	0	1016,9	6,8	8,9	8,7	1	1	1	1	1	1	1	1	1	0	1	-9,231853	274,146281	311,035371	0
15.01.2021	20:05:42	0	0	2,259611	1,63425	309,2292	0,162	85,768	0	1017,1	6,7	8,9	8,7	1	1	1	1	1	1	1	1	1	0	1	-7,117689	274,129833	313,072681	0
15.01.2021	20:05:43	0	0	4,293261	1,57725	307,0584	0,154	85,763	0	1016,94	6,8	8,9	8,7	1	1	1	1	1	1	1	1	1	0	1	-10,218464	274,034413	309,526325	0
15.01.2021	20:05:44	0	0	3,728359	1,596	317,3652	0,162	85,761	0	1016,92	6,8	8,9	8,7	1	1	1	1	1	1	1	1	1	0	1	-11,557435	274,083555	308,416773	0
15.01.2021	20:05:45	0	0	4,745184	1,60875	324,3528	0,154	85,774	0	1016,92	6,8	8,9	8,7	1	1	1	1	1	1	1	1	1	0	1	-7,117689	274,049291	312,696546	0
15.01.2021	20:05:46	0	0	4,632175	1,67475	306,756	0,165	85,775	0	1016,92	6,8	8,9	8,8	1	1	1	1	1	1	1	1	1	0	1	-9,795631	274,022518	309,893647	0
15.01.2021	20:05:47	0	0	2,485572	1,69575	318,3804	0,159	85,76	0	1016,98	6,8	8,9	8,7	1	1	1	1	1	1	1	1	1	0	1	-9,795631	274,129833	310,394739	0
15.01.2021	20:05:48	0	0	3,502398	1,8555	321,1272	0,161	85,775	0	1016,8	6,8	8,9	8,7	1	1	1	1	1	1	1	1	1	0	1	-6,906272	274,013602	312,741401	0
15.01.2021	20:05:49	0	0	4,858135	2,08725	323,694	0,158	85,771	0	1017,06	6,8	8,9	8,8	1	1	1	1	1	1	1	1	1	0	1	-8,949965	274,059713	310,912921	0
15.01.2021	20:05:50	0	0	2,598553	2,0775	316,6488	0,16	85,77	0	1017,04	6,8	8,9	8,7	1	1	1	1	1	1	1	1	1	0	1	-9,725159	274,19871	310,78713	0
15.01.2021	20:05:51	0	0	4,745184	1,95075	313,2036	0,159	85,769	0	1016,98	6,8	8,9	8,7	1	1	1	1	1	1	1	1	1	0	1	-7,117689	274,20171	313,408629	0
15.01.2021	20:05:52	0	0	4,971115	1,809	295,5168	0,162	85,771	0	1016,76	6,8	8,9	8,8	1	1	1	1	1	1	1	1	1	0	1	-10,711769	274,120867	309,436714	0
15.01.2021	20:05:53	0	0	4,632175	1,71225	300,1356	0,158	85,769	0	1017	6,8	8,9	8,8	1	1	1	1	1	1	1	1	1	0	1	-9,866103	274,058223	309,989831	0
15.01.2021	20:05:54	0	0	3,502398	1,6035	290,3436	0,159	85,774	0	1016,96	6,8	8,9	8,7	1	1	1	1	1	1	1	1	1	0	1	-8,80902	274,046314	310,99132	0
15.01.2021	20:05:55	0	0	4,180256	1,5105	285,876	0,156	85,751	0	1016,98	6,8	8,9	8,8	1	1	1	1	1	1	1	1	1	0	1	-9,513742	274,077591	310,432619	0
15.01.2021	20:05:56	0	0	4,632203	1,443	285,9192	0,159	85,754	0	1016,88	6,8	8,9	8,7	1	1	1	1	1	1	1	1	1	0	1	-9,513742	274,025491	310,18941	0
15.01.2021	20:05:57	0	0	4,858164	1,386	291,8196	0,161	85,78	0	1016,9	6,8	8,9	8,7	1	1	1	1	1	1	1	1	1	0	1	-12,755462	274,162743	307,588696	0
15.01.2021	20:05:58	0	0	2,598537	1,362	306,792	0,161	85,772	0	1017,18	6,8	8,9	8,8	1	1	1	1	1	1	1	1	1	0	1	-11,980268	274,086537	308,007867	0
15.01.2021	20:05:59	0	0	2,711517	1,33125	292,2408	0,161	85,772	0	1016,86	6,8	8,9	8,8	1	1	1	1	1	1	1	1	1	0	1	-8,597604	274,19871	311,914685	0
15.01.2021	20:06:00	0	0	4,519195	1,2165	295,5564	0,158	85,766	0	1016,92	6,8	8,9	8,8	1	1	1	1	1	1	1	1	1	0	1	-10,782241	274,01806	308,886231	0
15.01.2021	20:06:01	0	0	3,276417	1,14375	310,9716	0,161	85,759	0	1016,88	6,8	8,9	8,8	1	1	1	1	1	1	1	1	1	0	1	-10,500352	274,056734	309,34863	0
15.01.2021	20:06:02	0	0	2,711517	1,077	305,4096	0,165	85,786	0	1016,88	6,8	8,9	8,8	1	1	1	1	1	1	1	1	1	0	1	-11,134602	274,038875	308,631014	0
15.01.2021	20:06:03	0	0	2,598537	1,077	308,772	0,163	85,784	0	1016,88	6,8	8,9	8,8	1	1	1	1	1	1	1	1	1	0	1	-9,090909	274,021032	310,591433	0
15.01.2021	20:06:04	0	0	3,163456	1,104	312,1488	0,16	85,768	0	1017	6,8	8,9	8,7	1	1	1	1	1	1	1	1	1	0	1	-5,919662	274,113399	314,193934	0
15.01.2021	20:06:05	0	0	4,519223	1,16025	321,1272	0,158	85,795	0	1017,02	6,8	8,9	8,7	1	1	1	1	1	1	1	1	1	0	1	-7,470049	274,177721	312,944117	0
15.01.2021	20:06:06	0	0	4,632175	1,16925	304,6644	0,161	85,787	0	1017,04	6,8	8,9	8,8	1	1	1	1	1	1	1	1	1	0	1	-9,654686	274,044826	310,138707	0
15.01.2021	20:06:07	0	0	4,745184	1,17225	304,6572	0,164	85,786	0	1016,98	6,8	8,9	8,7	1	1	1	1	1	1	1	1	1	0	1	-7,188161	274,079082	312,765161	0
15.01.2021	20:06:08	0	0	2,824497	1,1595	315,4896	0,156	85,789	0	1016,92	6,8	8,9	8,8	1	1	1	1	1	1	1	1	1	0	1	-12,121212	274,221223	308,496352	0
15.01.2021	20:06:09	0	0	3,841316	1,22625	309,9132	0,16	85,762	0	1016,9	6,8	8,9	8,8	1	1	1	1	1	1	1	1	1	0	1	-9,231853	274,155259	311,077324	0
15.01.2021	20:06:10	0	0	2,937477	1,28025	308,484	0,159	85,792	0	1017,02	6,8	8,9	8,8	1	1	1	1	1	1	1	1	1	0	1	-6,8358	274,167235	313,529353	0
15.01.2021	20:06:11	0	0	4,632175	1,2765	311,0076	0,16	85,793	0	1016,96	6,8	8,9	8,8	1	1	1	1	1	1	1	1	1	0	1	-6,412967	274,026978	313,297123	0
15.01.2021	20:06:12	0	0	4,858135	1,24125	312,84	0,16	85,787	0	1016,98	6,8	8,9	8,8	1	1	1	1	1	1	1	1	1	0	1	-10,923185	274,149273	309,358021	0
15.01.2021	20:06:13	0	0	3,050457	1,16925	304,4448	0,162	85,785	0	1016,86	6,8	8,9	8,8	1	1	1	1	1	1	1	1	1	0	1	-6,553911	274,049291	313,260323	0
15.01.2021	20:06:14	0	0	2,372592	1,13775	312,444	0,167	85,79	0	1016,9	6,8	8,9	8,7	1	1	1	1	1	1	1	1	1	0	1	-11,134602	274,050779	308,686581	0
15.01.2021	20:06:15	0	0	4,519195	1,158	303,552	0,161	85,793	0	1016,84	6,8	8,9	8,8	1	1	1	1	1	1	1	1	1	0	1	-6,272023	274,037387	313,48665	0
15.01.2021	20:06:16	0	0	3,615356	1,29375	291,1824	0,163	85,784	0	1016,82	6,8	8,9	8,8	1	1	1	1	1	1	1	1	1	0	1	-9,584214	274,155259	310,724964	0
15.01.2021	20:06:17	0	0	4,406242	1,3905	321,8292	0,156	85,799	0	1016,94	6,8	8,9	8,7	1	1	1	1	1	1	1	1	1	0	1	-11,275546	274,204711	309,264802	0
15.01.2021	20:06:18	0	0	4,745184	1,42725	313,6536	0,159	85,783	0	1016,86	6,8	8,9	8,7	1	1	1	1	1	1	1	1	1	0	1	-11,134602	274,174725	309,265557	0
15.01.2021	20:06:19	0	0	2,824514	1,5375	302,5116	0,165	85,799	0	1016,92	6,7	8,9	8,7	1	1	1	1	1	1	1	1	1	0	1	-6,906272	274,186713	313,549931	0
15.01.2021	20:06:20	0	0	3,728359	1,63575	316,638	0,156	85,793	0	1016,8	6,8	8,9	8,7	1	1	1	1	1	1	1	1	1	0	1	-11,134602	274,052268	308,69353	0
15.01.2021	20:06:21	0	0	2,711534	1,7655	312,1236	0,16	85,78	0	1016,98	6,8	8,9	8,7	1	1	1	1	1	1	1	1	1	0	1	-7,258633	274,08952	312,743431	0
15.01.2021	20:06:22	0	0	2,598553	1,7565	311,7816	0,158	85,78	0	1017,08	6,8	8,9	8,7	1	1	1	1	1	1	1	1	1	0	1	-7,751938	274,037387	312,006734	0
15.01.2021	20:06:23	0	0	4,0673	1,7895	313,398	0,164	85,775	0	1016,98	6,8	8,9	8,7	1	1	1	1	1	1	1	1	1	0	1	-11,909796	274,114893	308,210776	0
15.01.2021	20:06:24	0	0	3,050457	1,85025	316,602	0,16	85,781	0	1016,98	6,7	8,9	8,8	1	1	1	1	1	1	1	1	1	0	1	-8,597604	274,043338	311,188844	0
15.01.2021	20:06:25	0	0	4,745184	1,899	314,4816	0,161	85,788	0	1016,86	6,8	8,9	8,7	1	1	1	1	1	1	1	1	1	0	1	-9,654686	274,188213	310,808525	0
15.01.2021	20:06:26	0	0	3,728359	2,0565	312,8508	0,161	85,768	0	1016,98	6,8	8,9	8,7	1	1	1	1	1	1	1	1	1	0	1	-10,711769	274,170231	309,667385	0
15.01.2021	20:06:27	0	0	4,745184	2,199	306,3888	0,173	85,78	0	1016,96	6,8	8,9	8,7	1	1	1	1	1	1	1	1	1	0	1	-8,386187	274,096979	311,650712	0
15.01.2021	20:06:28	0	0	2,146631	2,3535	299,7108	0,159	85,773	0	1016,74	6,8	8,9	8,7	1	1	1	1	1	1	1	1	1	0	1	-12,262156	274,204711	308,278191	0
15.01.2021	20:06:29	0	0	3,050457	2,4945	302,0184	0,164	85,777	0	1016,84	6,8	8,9	8,8	1	1	1	1	1	1	1	1	1	0	1	-9,372798	274,119373	310,768706	0
15.01.2021	20:06:30	0	0	4,406242	2,59725	302,4144	0,16	85,772	0	1016,94	6,8	8,9	8,7	1	1	1	1	1	1	1	1	1	0	1	-6,8358	274,040363	312,936759	0
15.01.2021	20:06:31	0	0	2,711517	2,46225	316,9224	0,157	85,772	0	1016,88	6,8	8,9	8,8	1	1	1	1	1	1	1	1	1	0	1	-6,483439	274,06716	313,414217	0
15.01.2021	20:06:32	0	0	2,937477	2,46675	311,7744	0,164	85,788	0	1017,1	6,8	8,9	8,8	1	1	1	1	1	1	1	1	1	0	1	-6,976744	274,165738	313,38141	0
15.01.2021	20:06:33	0	0	2,485572	2,772	309,8844	0,151	85,773	0	1016,88	6,8	8,9	8,7	1	1	1	1	1	1	1	1	1	0	1	-9,936575	274,17922	310,484596	0
15.01.2021	20:06:34	0	0	3,163456	2,9745	314,4168	0,154	85,75	0	1017	6,8	8,9	8,7	1	1	1	1	1	1	1	1	1	0	1	-7,047216	274,11788	313,08731	0
15.01.2021	20:06:35	0	0	3,389397	2,97	313,6212	0,158	85,77	0	1017,02	6,8	8,9	8,8	1	1	1	1	1	1	1	1	1	0	1	-9,725159	274,019546	309,950248	0
15.01.2021	20:06:36	0	0	3,615378	2,98725	311,742	0,157	85,776	0	1016,88	6,8	8,9	8,7	1	1	1	1	1	1	1	1	1	0	1	-8,386187	274,088029	311,608912	0
15.01.2021	20:06:37	0	0	4,0673	2,85375	319,2192	0,164	85,785	0	1016,88	6,8	8,9	8,7	1	1	1	1	1	1	1	1	1	0	1	-10,147992	274,212214	310,427445	0
15.01.2021	20:06:38	0	0	4,971115	2,79225	315,8568	0,163	85,767	0	1016,94	6,8	8,9	8,8	1	1	1	1	1	1	1	1	1	0	1	-10,500352	274,138803	309,731928	0
15.01.2021	20:06:39	0	0	4,0673	2,6445	322,5888	0,153	85,763	0	1016,96	6,8	8,9	8,7	1	1	1	1	1	1	1	1	1	0	1	-10,570825	274,19871	309,941464	0
15.01.2021	20:06:40	0	0	4,632175	2,577	321,444	0,16	85,754	0	1016,86	6,8	8,9	8,8	1	1	1	1	1	1	1	1	1	0	1	-10,500352	274,155259	309,808825	0
15.01.2021	20:06:41	0	0	4,745155	2,5455	305,73	0,148	85,761	0	1016,86	6,8	8,9	8,8	1	1	1	1	1	1	1	1	1	0	1	-12,05074	274,034413	307,694048	0
15.01.2021	20:06:42	0	0	3,95432	2,60475	310,7592	0,162	85,764	0	1017,02	6,8	8,9	8,7	1	1	1	1	1	1	1	1	1	0	1	-9,020437	274,101456	311,037372	0
15.01.2021	20:06:43	0	0	3,502376	2,637	313,254	0,158	85,759	0	1016,9	6,8	8,9	8,8	1	1	1	1	1	1	1	1	1	0	1	-8,879493	274,173227	311,513664	0
15.01.2021	20:06:44	0	0	4,067276	2,64225	292,2084	0,152	85,757	0	1016,98	6,8	8,9	8,8	1	1	1	1	1	1	1	1	1	0	1	-4,087385	274,204711	316,452962	0
15.01.2021	20:06:45	0	0	3,95432	2,5065	298,6416	0,156	85,752	0	1016,78	6,8	8,9	8,7	1	1	1	1	1	1	1	1	1	0	1	-10,570825	274,170231	309,808329	0
15.01.2021	20:06:46	0	0	4,971145	2,38125	302,0544	0,16	85,759	0	1016,98	6,8	8,9	8,7	1	1	1	1	1	1	1	1	1	0	1	-11,768851	274,218219	308,834668	0
15.01.2021	20:06:47	0	0	2,824514	2,17275	315,4788	0,159	85,759	0	1016,94	6,8	8,9	8,7	1	1	1	1	1	1	1	1	1	0	1	-7,82241	274,093995	312,200553	0
15.01.2021	20:06:48	0	0	4,293236	1,98675	299,0196	0,158	85,765	0	1016,9	6,8	8,9	8,8	1	1	1	1	1	1	1	1	1	0	1	-12,121212	274,20021	308,398091	0
15.01.2021	20:06:49	0	0	5,084125	1,98	287,0424	0,161	85,752	0	1016,92	6,8	8,9	8,7	1	1	1	1	1	1	1	1	1	0	1	-6,8358	274,165738	313,522354	0
15.01.2021	20:06:50	0	0	4,067276	1,887	290,7972	0,155	85,752	0	1016,9	6,8	8,9	8,8	1	1	1	1	1	1	1	1	1	0	1	-8,45666	274,019546	311,218747	0
15.01.2021	20:06:51	0	0	3,389417	1,8135	293,346	0,157	85,754	0	1016,88	6,7	8,9	8,7	1	1	1	1	1	1	1	1	1	0	1	-10,007047	274,183716	310,435141	0
15.01.2021	20:06:52	0	0	3,502376	1,8015	295,632	0,153	85,752	0	1016,92	6,7	8,9	8,8	1	1	1	1	1	1	1	1	1	0	1	-9,090909	274,114893	311,029662	0
15.01.2021	20:06:53	0	0	3,050475	1,79325	293,8032	0,16	85,76	0	1017,02	6,8	8,9	8,7	1	1	1	1	1	1	1	1	1	0	1	-11,698379	274,024005	307,997835	0
15.01.2021	20:06:54	0	0	3,389397	1,68225	287,352	0,158	85,767	0	1016,96	6,8	8,9	8,8	1	1	1	1	1	1	1	1	1	0	1	-9,302326	274,147777	310,971889	0
15.01.2021	20:06:55	0	0	4,180256	1,617	294,102	0,16	85,763	0	1016,92	6,7	8,9	8,8	1	1	1	1	1	1	1	1	1	0	1	-12,403101	274,0359	307,348629	0
15.01.2021	20:06:56	0	0	4,519195	1,4535	294,7608	0,156	85,742	0	1016,88	6,8	8,9	8,8	1	1	1	1	1	1	1	1	1	0	1	-7,258633	274,176223	313,148529	0
15.01.2021	20:06:57	0	0	4,632203	1,33425	301,5972	0,159	85,765	0	1016,92	6,8	8,9	8,7	1	1	1	1	1	1	1	1	1	0	1	-10,077519	274,083555	309,896688	0
15.01.2021	20:06:58	0	0	4,293236	1,2945	322,9308	0,159	85,769	0	1016,98	6,8	8,9	8,8	1	1	1	1	1	1	1	1	1	0	1	-10,359408	274,204711	310,18094	0
15.01.2021	20:06:59	0	0	4,0673	1,377	318,0852	0,152	85,757	0	1016,76	6,8	8,9	8,7	1	1	1	1	1	1	1	1	1	0	1	-11,980268	274,14329	308,272977	0
15.01.2021	20:07:00	0	0	2,824497	1,33575	315,936	0,158	85,768	0	1016,84	6,8	8,9	8,8	1	1	1	1	1	1	1	1	1	0	1	-9,372798	274,037387	310,385875	0
15.01.2021	20:07:01	0	0	3,276436	1,611	312,4332	0,15	85,753	0	1016,88	6,8	8,9	8,7	1	1	1	1	1	1	1	1	1	0	1	-9,654686	274,183716	310,787502	0
15.01.2021	20:07:02	0	0	4,632175	1,9245	317,3652	0,151	85,753	0	1016,86	6,8	8,9	8,8	1	1	1	1	1	1	1	1	1	0	1	-9,090909	274,091012	310,918121	0
15.01.2021	20:07:03	0	0	1,92067	2,043	321,1092	0,15	85,761	0	1016,86	6,8	8,9	8,7	1	1	1	1	1	1	1	1	1	0	1	-7,117689	274,20171	313,408629	0
15.01.2021	20:07:04	0	0	2,372592	2,07225	315,8568	0,158	85,762	0	1016,9	6,8	8,9	8,7	1	1	1	1	1	1	1	1	1	0	1	-10,923185	274,15077	309,365013	0
15.01.2021	20:07:05	0	0	3,502398	2,2965	312,4692	0,157	85,755	0	1017	6,8	8,9	8,7	1	1	1	1	1	1	1	1	1	0	1	-9,725159	274,207712	310,829223	0
15.01.2021	20:07:06	0	0	4,180256	2,355	315,522	0,157	85,756	0	1016,9	6,8	8,9	8,8	1	1	1	1	1	1	1	1	1	0	1	-10,782241	274,140298	309,457027	0
15.01.2021	20:07:07	0	0	4,632203	2,28225	314,4348	0,158	85,774	0	1016,96	6,8	8,9	8,7	1	1	1	1	1	1	1	1	1	0	1	-7,258633	274,025491	312,444519	0
15.01.2021	20:07:08	0	0	3,95432	2,25375	308,7216	0,156	85,77	0	1016,88	6,8	8,9	8,7	1	1	1	1	1	1	1	1	1	0	1	-5,990134	274,086537	313,998001	0
15.01.2021	20:07:09	0	0	2,259611	2,22225	309,9312	0,153	85,762	0	1016,86	6,8	8,9	8,7	1	1	1	1	1	1	1	1	1	0	1	-11,486963	274,19871	309,025326	0
15.01.2021	20:07:10	0	0	2,937495	2,2845	312,804	0,156	85,767	0	1016,96	6,8	8,9	8,7	1	1	1	1	1	1	1	1	1	0	1	-6,553911	274,059713	313,308974	0
15.01.2021	20:07:11	0	0	4,971145	2,32425	305,352	0,154	85,769	0	1017,02	6,8	8,9	8,7	1	1	1	1	1	1	1	1	1	0	1	-11,134602	274,189712	309,335619	0
15.01.2021	20:07:12	0	0	4,293261	2,30775	299,0124	0,152	85,754	0	1016,96	6,8	8,9	8,7	1	1	1	1	1	1	1	1	1	0	1	-7,047216	274,096979	312,989683	0
15.01.2021	20:07:13	0	0	3,276417	2,30325	300,4632	0,155	85,764	0	1017,14	6,8	8,9	8,8	1	1	1	1	1	1	1	1	1	0	1	-8,315715	274,01806	311,352757	0
15.01.2021	20:07:14	0	0	3,163456	2,277	311,2884	0,151	85,769	0	1016,94	6,8	8,9	8,7	1	1	1	1	1	1	1	1	1	0	1	-9,725159	274,138803	310,507122	0
15.01.2021	20:07:15	0	0	4,745184	2,2245	309,2508	0,147	85,755	0	1016,86	6,8	8,9	8,7	1	1	1	1	1	1	1	1	1	0	1	-9,020437	274,038875	310,745178	0
15.01.2021	20:07:16	0	0	3,163456	2,205	308,7936	0,152	85,745	0	1017,02	6,8	8,9	8,7	1	1	1	1	1	1	1	1	1	0	1	-9,44327	274,105934	310,635454	0
15.01.2021	20:07:17	0	0	4,858164	2,29875	309,96	0,154	85,758	0	1016,94	6,8	8,9	8,7	1	1	1	1	1	1	1	1	1	0	1	-9,44327	274,206211	311,104094	0
15.01.2021	20:07:18	0	0	2,259611	2,3895	312,786	0,155	85,743	0	1017,08	6,8	8,9	8,7	1	1	1	1	1	1	1	1	1	0	1	-8,104299	274,058223	311,751635	0
15.01.2021	20:07:19	0	0	3,389417	2,33325	299,0016	0,156	85,74	0	1016,92	6,8	8,9	8,7	1	1	1	1	1	1	1	1	1	0	1	-11,06413	274,053757	308,770951	0
15.01.2021	20:07:20	0	0	4,971115	2,244	306,396	0,155	85,751	0	1016,92	6,8	8,9	8,8	1	1	1	1	1	1	1	1	1	0	1	-10,570825	274,20321	309,962508	0
15.01.2021	20:07:21	0	0	4,406242	2,27325	299,0016	0,153	85,747	0	1016,88	6,8	8,9	8,7	1	1	1	1	1	1	1	1	1	0	1	-8,104299	274,086537	311,883836	0
15.01.2021	20:07:22	0	0	4,519223	2,1855	299,844	0,15	85,746	0	1017	6,8	8,9	8,7	1	1	1	1	1	1	1	1	1	0	1	-8,386187	274,17922	312,034983	0
15.01.2021	20:07:23	0	0	2,824514	2,11575	298,7208	0,151	85,736	0	1017	6,8	8,9	8,7	1	1	1	1	1	1	1	1	1	0	1	-9,866103	274,19571	310,632161	0
15.01.2021	20:07:24	0	0	2,824514	2,07825	302,3892	0,147	85,734	0	1016,82	6,8	8,9	8,7	1	1	1	1	1	1	1	1	1	0	1	-9,302326	274,050779	310,518857	0
15.01.2021	20:07:25	0	0	4,519223	2,12775	296,8308	0,152	85,737	0	1017,02	6,8	8,9	8,7	1	1	1	1	1	1	1	1	1	0	1	-9,654686	274,021032	310,027656	0
15.01.2021	20:07:26	0	0	4,745155	2,1015	294,4404	0,15	85,728	0	1016,94	6,8	8,9	8,8	1	1	1	1	1	1	1	1	1	0	1	-10,500352	274,192711	309,983888	0
15.01.2021	20:07:27	0	0	4,745184	2,001	297,8856	0,154	85,743	0	1017	6,8	8,9	8,7	1	1	1	1	1	1	1	1	1	0	1	-5,919662	274,079082	314,03366	0
15.01.2021	20:07:28	0	0	3,502376	1,9005	303,8688	0,158	85,734	0	1016,92	6,8	8,9	8,8	1	1	1	1	1	1	1	1	1	0	1	-10,147992	274,026978	309,562098	0
15.01.2021	20:07:29	0	0	4,293261	2,07975	305,3484	0,152	85,726	0	1016,82	6,8	8,9	8,7	1	1	1	1	1	1	1	1	1	0	1	-10,500352	274,171729	309,885802	0
15.01.2021	20:07:30	0	0	3,502398	2,451	303,8184	0,154	85,731	0	1016,84	6,8	8,9	8,7	1	1	1	1	1	1	1	1	1	0	1	-8,45666	274,083555	311,517548	0
15.01.2021	20:07:31	0	0	4,632203	2,7255	302,8212	0,153	85,737	0	1016,84	6,8	8,9	8,7	1	1	1	1	1	1	1	1	1	0	1	-7,963354	274,206211	312,58401	0
15.01.2021	20:07:32	0	0	4,180281	2,66925	306,1116	0,155	85,741	0	1016,74	6,8	8,9	8,7	1	1	1	1	1	1	1	1	1	0	1	-6,8358	274,116386	313,291749	0
15.01.2021	20:07:33	0	0	4,406242	2,66025	306,774	0,156	85,72	0	1017	6,8	8,9	8,7	1	1	1	1	1	1	1	1	1	0	1	-12,544045	274,207712	308,010336	0
15.01.2021	20:07:34	0	0	2,937495	2,59875	301,0608	0,154	85,736	0	1016,96	6,8	8,9	8,7	1	1	1	1	1	1	1	1	1	0	1	-8,527132	274,091012	311,481898	0
15.01.2021	20:07:35	0	0	4,406216	2,50725	339,8688	0,152	85,73	0	1016,98	6,8	8,9	8,8	1	1	1	1	1	1	1	1	1	0	1	-11,627907	274,219721	308,982634	0
15.01.2021	20:07:36	0	0	4,293261	2,3355	314,3916	0,156	85,737	0	1016,82	6,8	8,9	8,7	1	1	1	1	1	1	1	1	1	0	1	-9,866103	274,098471	310,177766	0
15.01.2021	20:07:37	0	0	4,632203	2,262	330,4296	0,152	85,74	0	1016,86	6,8	8,9	8,7	1	1	1	1	1	1	1	1	1	0	1	-7,188161	274,029951	312,535806	0
15.01.2021	20:07:38	0	0	3,615378	2,28825	314,766	0,154	85,737	0	1017,04	6,8	8,9	8,7	1	1	1	1	1	1	1	1	1	0	1	-8,80902	274,088029	311,186079	0
15.01.2021	20:07:39	0	0	2,824497	2,32875	327,3948	0,152	85,727	0	1016,98	6,7	8,9	8,8	1	1	1	1	1	1	1	1	1	0	1	-11,06413	274,016574	308,597409	0
15.01.2021	20:07:40	0	0	2,485572	2,43675	312,5088	0,152	85,727	0	1017	6,8	8,9	8,7	1	1	1	1	1	1	1	1	1	0	1	-13,6716	274,12535	306,497824	0
15.01.2021	20:07:41	0	0	4,293236	2,604	321,8616	0,158	85,735	0	1017,06	6,8	8,9	8,8	1	1	1	1	1	1	1	1	1	0	1	-9,725159	274,01806	309,943314	0
15.01.2021	20:07:42	0	0	5,423035	2,595	321,7968	0,149	85,722	0	1016,98	6,8	8,9	8,8	1	1	1	1	1	1	1	1	1	0	1	-8,386187	274,164241	311,964968	0
15.01.2021	20:07:43	0	0	4,406242	2,42475	322,9488	0,15	85,716	0	1016,94	6,8	8,9	8,7	1	1	1	1	1	1	1	1	1	0	1	-7,329105	274,055245	312,512926	0
15.01.2021	20:07:44	0	0	4,745184	2,33325	323,4132	0,154	85,726	0	1016,98	6,8	8,9	8,7	1	1	1	1	1	1	1	1	1	0	1	-2,466526	274,183716	317,975662	0
15.01.2021	20:07:45	0	0	2,937495	2,25525	325,3932	0,151	85,715	0	1016,86	6,8	8,9	8,7	1	1	1	1	1	1	1	1	1	0	1	-10,147992	274,055245	309,69404	0
15.01.2021	20:07:46	0	0	2,146631	2,20575	293,4036	0,154	85,734	0	1017,02	6,7	8,9	8,7	1	1	1	1	1	1	1	1	1	0	1	-6,8358	274,00766	312,784149	0
15.01.2021	20:07:47	0	0	3,276436	2,25675	309,4632	0,147	85,726	0	1016,9	6,8	8,9	8,7	1	1	1	1	1	1	1	1	1	0	1	-7,047216	274,091012	312,961814	0
15.01.2021	20:07:48	0	0	4,858164	2,16525	317,0772	0,151	85,733	0	1016,84	6,8	8,9	8,7	1	1	1	1	1	1	1	1	1	0	1	-7,82241	274,19871	312,689879	0
15.01.2021	20:07:49	0	0	3,389397	2,13675	322,902	0,152	85,735	0	1017,06	6,8	8,9	8,8	1	1	1	1	1	1	1	1	1	0	1	-8,668076	274,156756	311,648096	0
15.01.2021	20:07:50	0	0	2,372592	1,986	312,4908	0,156	85,734	0	1016,86	6,8	8,9	8,7	1	1	1	1	1	1	1	1	1	0	1	-8,174771	274,20171	312,351546	0
15.01.2021	20:07:51	0	0	2,711534	1,93425	315,2376	0,155	85,712	0	1016,86	6,8	8,9	8,7	1	1	1	1	1	1	1	1	1	0	1	-6,624383	274,085046	313,356787	0
15.01.2021	20:07:52	0	0	3,95432	1,89075	305,3664	0,157	85,734	0	1016,96	6,8	8,9	8,7	1	1	1	1	1	1	1	1	1	0	1	-5,778717	274,025491	313,924434	0
15.01.2021	20:07:53	0	0	3,95432	1,86975	308,0772	0,157	85,73	0	1016,94	6,8	8,9	8,7	1	1	1	1	1	1	1	1	1	0	1	-9,936575	274,06865	309,968037	0
15.01.2021	20:07:54	0	0	4,858164	1,8195	309,5136	0,152	85,733	0	1017	6,8	8,9	8,7	1	1	1	1	1	1	1	1	1	0	1	-7,188161	274,07014	312,723408	0
15.01.2021	20:07:55	0	0	3,502398	1,737	305,388	0,154	85,742	0	1016,98	6,8	8,9	8,7	1	1	1	1	1	1	1	1	1	0	1	-13,03735	274,013602	306,610322	0
15.01.2021	20:07:56	0	0	4,406242	1,6005	303,5376	0,149	85,738	0	1017,06	6,8	8,9	8,7	1	1	1	1	1	1	1	1	1	0	1	-8,315715	274,146281	311,951509	0
15.01.2021	20:07:57	0	0	4,745184	1,5	306,0756	0,147	85,73	0	1016,88	6,7	8,9	8,7	1	1	1	1	1	1	1	1	1	0	1	-10,218464	274,20321	310,314868	0
15.01.2021	20:07:58	0	0	2,598553	1,5075	316,2168	0,155	85,741	0	1016,92	6,8	8,9	8,7	1	1	1	1	1	1	1	1	1	0	1	-9,161381	274,092503	310,854615	0
15.01.2021	20:07:59	0	0	4,067276	1,566	306,4176	0,156	85,722	0	1016,86	6,8	8,9	8,8	1	1	1	1	1	1	1	1	1	0	1	-11,275546	274,209212	309,285853	0
15.01.2021	20:08:00	0	0	2,824514	1,61025	315,1728	0,15	85,733	0	1016,84	6,8	8,9	8,7	1	1	1	1	1	1	1	1	1	0	1	-9,725159	274,06567	310,165542	0
15.01.2021	20:08:01	0	0	4,0673	1,63875	306,1296	0,153	85,747	0	1016,82	6,8	8,9	8,7	1	1	1	1	1	1	1	1	1	0	1	-8,315715	274,183716	312,126473	0
15.01.2021	20:08:02	0	0	4,745184	1,60425	310,6944	0,153	85,739	0	1016,9	6,8	8,9	8,7	1	1	1	1	1	1	1	1	1	0	1	-7,610994	274,156756	312,705179	0
15.01.2021	20:08:03	0	0	4,519195	1,563	311,0616	0,157	85,734	0	1016,98	6,7	8,9	8,8	1	1	1	1	1	1	1	1	1	0	1	-10,007047	274,031438	309,72386	0
15.01.2021	20:08:04	0	0	3,728359	1,56375	301,2084	0,15	85,727	0	1016,88	6,8	8,9	8,7	1	1	1	1	1	1	1	1	1	0	1	-10,359408	274,076101	309,579994	0
15.01.2021	20:08:05	0	0	4,858135	1,7475	300,1284	0,152	85,736	0	1016,94	6,8	8,9	8,8	1	1	1	1	1	1	1	1	1	0	1	-11,275546	274,026978	308,434543	0
15.01.2021	20:08:06	0	0	4,971115	1,9935	290,0664	0,155	85,734	0	1016,98	6,8	8,9	8,8	1	1	1	1	1	1	1	1	1	0	1	-15,503876	274,128339	304,679511	0
15.01.2021	20:08:07	0	0	2,824514	2,205	288,468	0,151	85,746	0	1016,98	6,8	8,9	8,7	1	1	1	1	1	1	1	1	1	0	1	-7,399577	274,192711	313,084663	0
15.01.2021	20:08:08	0	0	2,824514	2,25225	296,0928	0,15	85,744	0	1016,98	6,8	8,9	8,7	1	1	1	1	1	1	1	1	1	0	1	-9,372798	274,046314	310,427542	0
15.01.2021	20:08:09	0	0	3,841339	2,304	298,2348	0,158	85,799	0	1016,84	6,7	8,9	8,7	1	1	1	1	1	1	1	1	1	0	1	-8,879493	274,174725	311,520666	0
15.01.2021	20:08:10	0	0	2,711534	2,40825	295,128	0,15	85,728	0	1016,92	6,8	8,9	8,7	1	1	1	1	1	1	1	1	1	0	1	-8,527132	274,0359	311,224598	0
15.01.2021	20:08:11	0	0	4,971145	2,49825	299,7936	0,149	85,724	0	1017,02	6,8	8,9	8,7	1	1	1	1	1	1	1	1	1	0	1	-7,681466	274,165738	312,676688	0
15.01.2021	20:08:12	0	0	2,372592	2,475	300,2328	0,15	85,729	0	1016,8	6,8	8,9	8,7	1	1	1	1	1	1	1	1	1	0	1	-12,825934	274,213715	307,756522	0
15.01.2021	20:08:13	0	0	4,180256	2,50125	306,882	0,143	85,733	0	1016,88	6,8	8,9	8,8	1	1	1	1	1	1	1	1	1	0	1	-8,245243	274,086537	311,742892	0
15.01.2021	20:08:14	0	0	2,711534	2,54475	303,2208	0,15	85,75	0	1016,94	6,8	8,9	8,7	1	1	1	1	1	1	1	1	1	0	1	-9,372798	274,052268	310,455334	0
15.01.2021	20:08:15	0	0	2,598553	2,46075	306,1584	0,146	85,719	0	1016,96	6,7	8,9	8,7	1	1	1	1	1	1	1	1	1	0	1	-8,245243	274,06865	311,659369	0
15.01.2021	20:08:16	0	0	4,180281	2,41875	316,9656	0,152	85,737	0	1017,12	6,8	8,9	8,7	1	1	1	1	1	1	1	1	1	0	1	-10,711769	274,212214	309,863667	0
15.01.2021	20:08:17	0	0	4,858164	2,32875	307,188	0,149	85,72	0	1016,9	6,8	8,9	8,7	1	1	1	1	1	1	1	1	1	0	1	-8,315715	274,164241	312,03544	0
15.01.2021	20:08:18	0	0	4,406242	2,25375	310,7556	0,15	85,73	0	1017,04	6,8	8,9	8,7	1	1	1	1	1	1	1	1	1	0	1	-9,725159	274,028464	309,991869	0
15.01.2021	20:08:19	0	0	2,824514	2,226	308,07	0,154	85,727	0	1017	6,8	8,9	8,7	1	1	1	1	1	1	1	1	1	0	1	-13,460183	274,010631	306,173626	0
15.01.2021	20:08:20	0	0	2,711534	2,22075	299,3904	0,146	85,722	0	1016,92	6,7	8,9	8,7	1	1	1	1	1	1	1	1	1	0	1	-9,372798	274,086537	310,615337	0
15.01.2021	20:08:21	0	0	3,276436	2,19975	304,2864	0,149	85,734	0	1016,92	6,7	8,9	8,7	1	1	1	1	1	1	1	1	1	0	1	-13,107822	274,053757	306,727259	0
15.01.2021	20:08:22	0	0	5,310087	2,1015	309,2004	0,146	85,724	0	1016,9	6,8	8,9	8,7	1	1	1	1	1	1	1	1	1	0	1	-13,389711	274,153762	306,912473	0
15.01.2021	20:08:23	0	0	4,745184	2,0625	313,6212	0,149	85,718	0	1016,82	6,8	8,9	8,7	1	1	1	1	1	1	1	1	1	0	1	-9,302326	274,207712	311,252056	0
15.01.2021	20:08:24	0	0	2,824497	1,97625	321,4692	0,146	85,717	0	1016,78	6,8	8,9	8,8	1	1	1	1	1	1	1	1	1	0	1	-7,399577	274,15077	312,888621	0
15.01.2021	20:08:25	0	0	3,389417	1,881	311,0148	0,152	85,732	0	1016,94	6,8	8,9	8,7	1	1	1	1	1	1	1	1	1	0	1	-11,768851	274,204711	308,771496	0
15.01.2021	20:08:26	0	0	4,632203	1,869	297,5544	0,153	85,737	0	1016,9	6,8	8,9	8,7	1	1	1	1	1	1	1	1	1	0	1	-14,235377	274,095487	305,794554	0
15.01.2021	20:08:27	0	0	4,293236	1,92375	290,8368	0,147	85,723	0	1016,98	6,8	8,9	8,8	1	1	1	1	1	1	1	1	1	0	1	-14,094433	274,026978	305,615657	0
15.01.2021	20:08:28	0	0	4,180281	2,034	304,9704	0,151	85,718	0	1016,84	6,7	8,9	8,7	1	1	1	1	1	1	1	1	1	0	1	-8,245243	274,159749	312,08492	0
15.01.2021	20:08:29	0	0	5,084125	2,1585	305,8164	0,152	85,726	0	1016,9	6,8	8,9	8,7	1	1	1	1	1	1	1	1	1	0	1	-8,45666	274,219721	312,153882	0
15.01.2021	20:08:30	0	0	4,745184	2,11875	306	0,148	85,732	0	1016,96	6,8	8,9	8,7	1	1	1	1	1	1	1	1	1	0	1	-9,44327	274,186713	311,012933	0
15.01.2021	20:08:31	0	0	4,858164	2,00625	315,9504	0,149	85,726	0	1016,8	6,8	8,9	8,7	1	1	1	1	1	1	1	1	1	0	1	-10,500352	274,19571	309,997911	0
15.01.2021	20:08:32	0	0	3,954296	1,998	312,4728	0,148	85,719	0	1017,18	6,8	8,9	8,8	1	1	1	1	1	1	1	1	1	0	1	-10,288936	274,06567	309,601765	0
15.01.2021	20:08:33	0	0	4,519223	2,06325	310,2732	0,145	85,711	0	1016,82	6,8	8,9	8,7	1	1	1	1	1	1	1	1	1	0	1	-8,80902	274,185214	311,640175	0
15.01.2021	20:08:34	0	0	3,95432	2,067	315,2196	0,147	85,712	0	1017	6,8	8,9	8,7	1	1	1	1	1	1	1	1	1	0	1	-7,82241	274,052268	312,005721	0
15.01.2021	20:08:35	0	0	3,050475	2,1495	323,8236	0,147	85,724	0	1016,78	6,8	8,9	8,7	1	1	1	1	1	1	1	1	1	0	1	-11,698379	274,122361	308,457083	0
15.01.2021	20:08:36	0	0	4,0673	2,1285	313,5564	0,152	85,727	0	1017,04	6,8	8,9	8,7	1	1	1	1	1	1	1	1	1	0	1	-10,500352	274,222724	310,124236	0
15.01.2021	20:08:37	0	0	2,711534	2,0775	317,3544	0,151	85,741	0	1017,08	6,8	8,9	8,7	1	1	1	1	1	1	1	1	1	0	1	-6,765328	274,092503	313,250669	0
15.01.2021	20:08:38	0	0	3,050475	2,01075	301,2192	0,147	85,709	0	1016,78	6,8	8,9	8,7	1	1	1	1	1	1	1	1	1	0	1	-8,879493	274,025491	310,823659	0
15.01.2021	20:08:39	0	0	3,841316	1,88925	314,8056	0,154	85,718	0	1016,74	6,8	8,9	8,8	1	1	1	1	1	1	1	1	1	0	1	-6,976744	274,144785	313,28349	0
15.01.2021	20:08:40	0	0	4,406216	1,746	315,8712	0,157	85,742	0	1016,9	6,8	8,9	8,8	1	1	1	1	1	1	1	1	1	0	1	-8,315715	274,219721	312,294826	0
15.01.2021	20:08:41	0	0	4,971115	1,635	320,8032	0,15	85,724	0	1017,04	6,8	8,9	8,8	1	1	1	1	1	1	1	1	1	0	1	-9,231853	274,122361	310,923609	0
15.01.2021	20:08:42	0	0	3,276436	1,52025	291,8808	0,155	85,745	0	1016,96	6,8	8,9	8,7	1	1	1	1	1	1	1	1	1	0	1	-8,104299	274,215217	312,485177	0
15.01.2021	20:08:43	0	0	2,711534	1,52925	300,1932	0,152	85,741	0	1016,84	6,8	8,9	8,7	1	1	1	1	1	1	1	1	1	0	1	-4,933051	274,107427	315,152645	0
15.01.2021	20:08:44	0	0	3,615378	1,5225	308,4444	0,156	85,738	0	1016,94	6,8	8,9	8,7	1	1	1	1	1	1	1	1	1	0	1	-10,077519	274,213715	310,504937	0
15.01.2021	20:08:45	0	0	3,615378	1,5945	291,528	0,15	85,725	0	1016,84	6,8	8,9	8,7	1	1	1	1	1	1	1	1	1	0	1	-10,147992	274,114893	309,97258	0
15.01.2021	20:08:46	0	0	2,937495	1,6995	298,6956	0,151	85,731	0	1016,78	6,8	8,9	8,7	1	1	1	1	1	1	1	1	1	0	1	-11,768851	274,218219	308,834668	0
15.01.2021	20:08:47	0	0	2,598553	1,7415	296,0424	0,149	85,723	0	1016,9	6,8	8,9	8,7	1	1	1	1	1	1	1	1	1	0	1	-8,45666	274,12535	311,712764	0
15.01.2021	20:08:48	0	0	3,389397	1,76475	315,8784	0,144	85,73	0	1016,9	6,7	8,9	8,8	1	1	1	1	1	1	1	1	1	0	1	-11,41649	274,052268	308,411641	0
15.01.2021	20:08:49	0	0	4,632203	1,7145	311,7204	0,15	85,747	0	1016,9	6,8	8,9	8,7	1	1	1	1	1	1	1	1	1	0	1	-8,738548	274,156756	311,577624	0
15.01.2021	20:08:50	0	0	4,0673	1,6695	297,882	0,147	85,74	0	1016,82	6,7	8,9	8,7	1	1	1	1	1	1	1	1	1	0	1	-5,84919	274,215217	314,740287	0
15.01.2021	20:08:51	0	0	2,711534	1,69275	307,4868	0,154	85,726	0	1016,82	6,8	8,9	8,7	1	1	1	1	1	1	1	1	1	0	1	-8,738548	274,098471	311,305321	0
15.01.2021	20:08:52	0	0	2,711534	1,7265	311,418	0,153	85,77	0	1017,3	6,7	8,9	8,7	1	1	1	1	1	1	1	1	1	0	1	-10,782241	274,040363	308,990318	0
15.01.2021	20:08:53	0	0	4,632203	1,77075	309,8628	0,147	85,731	0	1016,86	6,8	8,9	8,7	1	1	1	1	1	1	1	1	1	0	1	-9,936575	274,099963	310,114263	0
15.01.2021	20:08:54	0	0	4,293261	1,75425	311,1984	0,15	85,718	0	1016,8	6,7	8,9	8,7	1	1	1	1	1	1	1	1	1	0	1	-5,426357	274,040363	314,346202	0
15.01.2021	20:08:55	0	0	3,163437	1,68675	325,476	0,154	85,732	0	1016,72	6,8	8,9	8,8	1	1	1	1	1	1	1	1	1	0	1	-7,540521	274,164241	312,810634	0
15.01.2021	20:08:56	0	0	4,406242	1,6185	316,2348	0,152	85,721	0	1016,92	6,8	8,9	8,7	1	1	1	1	1	1	1	1	1	0	1	-9,44327	274,221223	311,174294	0
15.01.2021	20:08:57	0	0	3,163437	1,6815	327,7764	0,155	85,742	0	1017,06	6,8	8,9	8,8	1	1	1	1	1	1	1	1	1	0	1	-8,245243	274,114893	311,875328	0
15.01.2021	20:08:58	0	0	4,745184	1,76025	327,0276	0,153	85,739	0	1016,8	6,8	8,9	8,7	1	1	1	1	1	1	1	1	1	0	1	-10,923185	274,230235	309,736531	0
15.01.2021	20:08:59	0	0	2,598553	1,82325	315,5472	0,146	85,726	0	1016,78	6,8	8,9	8,7	1	1	1	1	1	1	1	1	1	0	1	-10,42988	274,102948	309,6349	0
15.01.2021	20:09:00	0	0	4,406242	1,94175	312,3972	0,152	85,724	0	1016,8	6,8	8,9	8,7	1	1	1	1	1	1	1	1	1	0	1	-10,007047	274,222724	310,617541	0
15.01.2021	20:09:01	0	0	4,971115	2,13225	336,7836	0,152	85,752	0	1016,88	6,8	8,9	8,8	1	1	1	1	1	1	1	1	1	0	1	-11,627907	274,096979	308,408993	0
15.01.2021	20:09:02	0	0	4,632203	2,14575	324,0432	0,154	85,742	0	1016,88	6,8	8,9	8,7	1	1	1	1	1	1	1	1	1	0	1	-3,875969	274,215217	316,713507	0
15.01.2021	20:09:03	0	0	3,728359	2,08275	330,3072	0,155	85,737	0	1017	6,8	8,9	8,7	1	1	1	1	1	1	1	1	1	0	1	-9,231853	274,088029	310,763246	0
15.01.2021	20:09:04	0	0	4,180256	2,03175	322,1892	0,144	85,738	0	1016,94	6,8	8,9	8,8	1	1	1	1	1	1	1	1	1	0	1	-13,248767	274,186713	307,207436	0
15.01.2021	20:09:05	0	0	4,745184	1,962	325,8936	0,156	85,742	0	1016,88	6,8	8,9	8,7	1	1	1	1	1	1	1	1	1	0	1	-11,768851	274,230235	308,890865	0
15.01.2021	20:09:06	0	0	4,971145	1,97025	327,798	0,149	85,742	0	1016,94	6,8	8,9	8,7	1	1	1	1	1	1	1	1	1	0	1	-8,738548	274,113399	311,375047	0
15.01.2021	20:09:07	0	0	4,858164	1,9125	316,5552	0,158	85,746	0	1016,94	6,8	8,9	8,7	1	1	1	1	1	1	1	1	1	0	1	-6,906272	274,212214	313,669164	0
15.01.2021	20:09:08	0	0	4,858164	1,84875	329,976	0,154	85,745	0	1016,9	6,8	8,9	8,7	1	1	1	1	1	1	1	1	1	0	1	-5,496829	274,08952	314,505236	0
15.01.2021	20:09:09	0	0	3,276436	1,84425	318,3768	0,149	85,75	0	1016,8	6,8	8,9	8,7	1	1	1	1	1	1	1	1	1	0	1	-8,315715	274,210713	312,252702	0
15.01.2021	20:09:10	0	0	5,084095	1,75725	321,4044	0,153	85,759	0	1016,7	6,7	8,9	8,8	1	1	1	1	1	1	1	1	1	0	1	-10,500352	274,210713	310,068065	0
15.01.2021	20:09:11	0	0	3,050475	1,73925	325,9656	0,152	85,745	0	1016,86	6,8	8,9	8,7	1	1	1	1	1	1	1	1	1	0	1	-9,090909	274,06567	310,799791	0
15.01.2021	20:09:12	0	0	2,485572	1,701	318,4128	0,154	85,727	0	1016,96	6,8	8,9	8,7	1	1	1	1	1	1	1	1	1	0	1	-8,245243	274,19571	312,25302	0
15.01.2021	20:09:13	0	0	4,971145	1,734	331,5132	0,153	85,755	0	1016,86	6,8	8,9	8,7	1	1	1	1	1	1	1	1	1	0	1	-9,725159	274,180718	310,703017	0
15.01.2021	20:09:14	0	0	3,615378	1,77075	324,6804	0,155	85,745	0	1016,9	6,8	8,9	8,7	1	1	1	1	1	1	1	1	1	0	1	-8,527132	274,221223	312,090432	0
15.01.2021	20:09:15	0	0	4,293261	1,71675	343,4472	0,151	85,739	0	1017,06	6,8	8,9	8,7	1	1	1	1	1	1	1	1	1	0	1	-11,41649	274,177721	308,997676	0
15.01.2021	20:09:16	0	0	4,971145	1,62675	334,1196	0,152	85,742	0	1016,82	6,8	8,9	8,7	1	1	1	1	1	1	1	1	1	0	1	-10,288936	274,189712	310,181285	0
15.01.2021	20:09:17	0	0	4,632203	1,623	315,5472	0,155	85,771	0	1017,08	6,8	8,9	8,7	1	1	1	1	1	1	1	1	1	0	1	-6,906272	274,206211	313,641092	0
15.01.2021	20:09:18	0	0	3,615378	1,662	321,786	0,156	85,768	0	1017,08	6,8	8,9	8,7	1	1	1	1	1	1	1	1	1	0	1	-8,174771	274,085046	311,8064	0
15.01.2021	20:09:19	0	0	2,824497	1,63275	340,6392	0,154	85,755	0	1016,98	6,8	8,9	8,8	1	1	1	1	1	1	1	1	1	0	1	-10,359408	274,234743	310,321393	0
15.01.2021	20:09:20	0	0	3,050475	1,64475	330,7392	0,155	85,756	0	1016,92	6,8	8,9	8,7	1	1	1	1	1	1	1	1	1	0	1	-10,852713	274,120867	309,29577	0
15.01.2021	20:09:21	0	0	4,406242	1,72875	311,3748	0,152	85,754	0	1016,74	6,8	8,9	8,7	1	1	1	1	1	1	1	1	1	0	1	-12,755462	274,209212	307,805937	0
15.01.2021	20:09:22	0	0	2,598553	1,74075	316,9404	0,15	85,74	0	1016,74	6,8	8,9	8,7	1	1	1	1	1	1	1	1	1	0	1	-9,302326	274,091012	310,706704	0
15.01.2021	20:09:23	0	0	2,598553	1,64325	329,6664	0,145	85,742	0	1016,82	6,8	8,9	8,7	1	1	1	1	1	1	1	1	1	0	1	-7,188161	274,037387	312,570512	0
15.01.2021	20:09:24	0	0	4,858164	1,63575	300,3552	0,149	85,754	0	1017	6,8	8,9	8,7	1	1	1	1	1	1	1	1	1	0	1	-9,866103	274,116386	310,261445	0
15.01.2021	20:09:25	0	0	2,824514	1,572	310,572	0,16	85,751	0	1017,06	6,8	8,9	8,7	1	1	1	1	1	1	1	1	1	0	1	-11,980268	274,052268	307,847864	0
15.01.2021	20:09:26	0	0	4,0673	1,458	295,146	0,153	85,752	0	1016,88	6,8	8,9	8,7	1	1	1	1	1	1	1	1	1	0	1	-10,007047	274,126844	310,169358	0
15.01.2021	20:09:27	0	0	4,632203	1,46925	284,4828	0,152	85,736	0	1016,9	6,8	8,9	8,7	1	1	1	1	1	1	1	1	1	0	1	-8,315715	274,049291	311,498519	0
15.01.2021	20:09:28	0	0	2,485572	1,653	296,4708	0,151	85,766	0	1016,74	6,8	8,9	8,7	1	1	1	1	1	1	1	1	1	0	1	-6,553911	274,120867	313,594572	0
15.01.2021	20:09:29	0	0	2,824514	1,7055	291,7836	0,152	85,733	0	1016,76	6,8	8,9	8,7	1	1	1	1	1	1	1	1	1	0	1	-9,302326	274,20021	311,216977	0
15.01.2021	20:09:30	0	0	2,485572	1,75425	297,5256	0,153	85,747	0	1016,84	6,8	8,9	8,7	1	1	1	1	1	1	1	1	1	0	1	-7,258633	274,095487	312,771299	0
15.01.2021	20:09:31	0	0	2,824497	1,773	294,3828	0,154	85,749	0	1016,82	6,7	8,9	8,8	1	1	1	1	1	1	1	1	1	0	1	-9,725159	274,225728	310,913479	0
15.01.2021	20:09:32	0	0	4,632203	1,82475	287,7552	0,154	85,755	0	1016,94	6,8	8,9	8,7	1	1	1	1	1	1	1	1	1	0	1	-9,020437	274,099963	311,030402	0
15.01.2021	20:09:33	0	0	4,519223	1,821	303,2568	0,149	85,73	0	1016,88	6,8	8,9	8,7	1	1	1	1	1	1	1	1	1	0	1	-8,245243	274,189712	312,224977	0
15.01.2021	20:09:34	0	0	3,615356	1,90275	290,7648	0,146	85,726	0	1016,82	6,8	8,9	8,8	1	1	1	1	1	1	1	1	1	0	1	-11,205074	274,026978	308,505016	0
15.01.2021	20:09:35	0	0	4,971145	1,9545	300,1392	0,148	85,742	0	1016,94	6,8	8,9	8,7	1	1	1	1	1	1	1	1	1	0	1	-9,513742	274,107427	310,571955	0
15.01.2021	20:09:36	0	0	4,293261	1,9605	302,418	0,153	85,739	0	1016,86	6,8	8,9	8,7	1	1	1	1	1	1	1	1	1	0	1	-10,147992	274,231738	310,518752	0
15.01.2021	20:09:37	0	0	3,841339	2,0235	299,43	0,15	85,738	0	1016,88	6,8	8,9	8,7	1	1	1	1	1	1	1	1	1	0	1	-5,567301	274,156756	314,748872	0
15.01.2021	20:09:38	0	0	3,163437	2,0715	304,2468	0,154	85,735	0	1016,82	6,8	8,9	8,8	1	1	1	1	1	1	1	1	1	0	1	-11,41649	274,04185	308,363013	0
15.01.2021	20:09:39	0	0	2,372592	2,10525	306,486	0,15	85,719	0	1016,86	6,8	8,9	8,7	1	1	1	1	1	1	1	1	1	0	1	-10,147992	274,171729	310,238163	0
15.01.2021	20:09:40	0	0	5,084125	2,1465	310,662	0,148	85,737	0	1016,76	6,8	8,9	8,7	1	1	1	1	1	1	1	1	1	0	1	-12,403101	274,177721	308,011065	0
15.01.2021	20:09:41	0	0	3,615378	2,16375	308,0988	0,15	85,728	0	1016,78	6,8	8,9	8,7	1	1	1	1	1	1	1	1	1	0	1	-8,45666	274,06865	311,447952	0
15.01.2021	20:09:42	0	0	4,293236	2,178	311,0976	0,148	85,725	0	1016,76	6,8	8,9	8,8	1	1	1	1	1	1	1	1	1	0	1	-12,121212	274,176223	308,28595	0
15.01.2021	20:09:43	0	0	4,745184	2,1105	311,3424	0,146	85,734	0	1016,8	6,8	8,9	8,7	1	1	1	1	1	1	1	1	1	0	1	-10,852713	274,221223	309,764851	0
15.01.2021	20:09:44	0	0	2,598553	1,9515	315,234	0,154	85,737	0	1016,84	6,8	8,9	8,7	1	1	1	1	1	1	1	1	1	0	1	-14,094433	274,155259	306,214745	0
15.01.2021	20:09:45	0	0	3,954296	1,8435	310,2876	0,144	85,735	0	1016,88	6,8	8,9	8,8	1	1	1	1	1	1	1	1	1	0	1	-9,725159	274,216718	310,871339	0
15.01.2021	20:09:46	0	0	4,858164	1,80375	309,8628	0,146	85,741	0	1016,88	6,7	8,9	8,7	1	1	1	1	1	1	1	1	1	0	1	-5,003524	274,165738	315,35463	0
15.01.2021	20:09:47	0	0	3,276436	1,77825	284,49	0,149	85,721	0	1016,8	6,8	8,9	8,7	1	1	1	1	1	1	1	1	1	0	1	-7,892882	274,034413	311,851906	0
15.01.2021	20:09:48	0	0	2,937495	1,66725	307,5048	0,153	85,741	0	1016,74	6,8	8,9	8,7	1	1	1	1	1	1	1	1	1	0	1	-4,439746	274,095487	315,590185	0
15.01.2021	20:09:49	0	0	3,841339	1,62	288,0792	0,15	85,721	0	1016,88	6,8	8,9	8,7	1	1	1	1	1	1	1	1	1	0	1	-9,44327	274,228733	311,209419	0
15.01.2021	20:09:50	0	0	4,632203	1,60725	285,2064	0,151	85,73	0	1016,94	6,8	8,9	8,7	1	1	1	1	1	1	1	1	1	0	1	-10,711769	274,209212	309,84963	0
15.01.2021	20:09:51	0	0	4,180281	1,55925	297,8928	0,151	85,736	0	1016,7	6,8	8,9	8,7	1	1	1	1	1	1	1	1	1	0	1	-11,768851	274,102948	308,295929	0
15.01.2021	20:09:52	0	0	4,293261	1,4775	288,1728	0,15	85,744	0	1016,9	6,8	8,9	8,7	1	1	1	1	1	1	1	1	1	0	1	-14,023961	274,044826	305,769433	0
15.01.2021	20:09:53	0	0	3,276436	1,5405	272,7612	0,15	85,741	0	1016,8	6,8	8,9	8,7	1	1	1	1	1	1	1	1	1	0	1	-10,288936	274,096979	309,747964	0
15.01.2021	20:09:54	0	0	4,858164	1,51575	305,7876	0,146	85,726	0	1016,98	6,8	8,9	8,7	1	1	1	1	1	1	1	1	1	0	1	-8,245243	274,037387	311,513429	0
15.01.2021	20:09:55	0	0	3,050475	1,43775	304,6212	0,151	85,743	0	1016,94	6,8	8,9	8,7	1	1	1	1	1	1	1	1	1	0	1	-13,812544	274,155259	306,496634	0
15.01.2021	20:09:56	0	0	4,180281	1,449	297,6048	0,151	85,715	0	1016,84	6,8	8,9	8,7	1	1	1	1	1	1	1	1	1	0	1	-10,923185	274,183716	309,519003	0
15.01.2021	20:09:57	0	0	3,502398	1,5135	298,062	0,147	85,784	0	1016,76	6,8	8,9	8,7	1	1	1	1	1	1	1	1	1	0	1	-13,6716	274,04185	306,107904	0
15.01.2021	20:09:58	0	0	3,276436	1,521	306,1224	0,146	85,734	0	1016,92	6,8	8,9	8,7	1	1	1	1	1	1	1	1	1	0	1	-9,161381	274,096979	310,875518	0
15.01.2021	20:09:59	0	0	3,615378	1,54725	294,1452	0,145	85,733	0	1016,84	6,8	8,9	8,7	1	1	1	1	1	1	1	1	1	0	1	-6,8358	274,19871	313,676489	0
15.01.2021	20:10:00	0	0	2,937477	1,64175	284,8716	0,148	85,733	0	1016,96	6,8	8,9	8,8	1	1	1	1	1	1	1	1	1	0	1	-9,513742	274,113399	310,599853	0
15.01.2021	20:10:01	0	0	4,632203	1,611	279,198	0,15	85,728	0	1016,9	6,8	8,9	8,7	1	1	1	1	1	1	1	1	1	0	1	-8,174771	274,044826	311,618623	0
15.01.2021	20:10:02	0	0	4,745184	1,509	280,5624	0,149	85,725	0	1016,8	6,8	8,9	8,7	1	1	1	1	1	1	1	1	1	0	1	-10,007047	274,170231	310,372106	0
15.01.2021	20:10:03	0	0	2,598553	1,43775	288,8496	0,149	85,727	0	1016,8	6,8	8,9	8,7	1	1	1	1	1	1	1	1	1	0	1	-7,610994	274,044826	312,1824	0
15.01.2021	20:10:04	0	0	3,841339	1,35525	295,1856	0,147	85,726	0	1016,94	6,8	8,9	8,7	1	1	1	1	1	1	1	1	1	0	1	-9,020437	274,095487	311,009494	0
15.01.2021	20:10:05	0	0	3,841339	1,377	292,9428	0,149	85,712	0	1016,94	6,8	8,9	8,7	1	1	1	1	1	1	1	1	1	0	1	-8,45666	274,062691	311,420132	0
15.01.2021	20:10:06	0	0	2,937495	1,419	282,4344	0,15	85,737	0	1016,94	6,8	8,9	8,7	1	1	1	1	1	1	1	1	1	0	1	-9,302326	274,104441	310,769426	0
15.01.2021	20:10:07	0	0	2,711534	1,46325	287,3664	0,153	85,728	0	1016,84	6,8	8,9	8,7	1	1	1	1	1	1	1	1	1	0	1	-13,178295	274,20171	307,348022	0
15.01.2021	20:10:08	0	0	4,519223	1,48875	288,1044	0,152	85,74	0	1016,9	6,8	8,9	8,7	1	1	1	1	1	1	1	1	1	0	1	-8,597604	274,210713	311,970813	0
15.01.2021	20:10:09	0	0	4,858164	1,49475	289,5912	0,145	85,718	0	1016,92	6,8	8,9	8,7	1	1	1	1	1	1	1	1	1	0	1	-10,077519	274,17922	310,343651	0
15.01.2021	20:10:10	0	0	4,180281	1,515	297,144	0,152	85,712	0	1016,86	6,8	8,9	8,7	1	1	1	1	1	1	1	1	1	0	1	-10,570825	274,225728	310,067813	0
15.01.2021	20:10:11	0	0	3,615378	1,51425	306,7992	0,151	85,722	0	1016,92	6,8	8,9	8,7	1	1	1	1	1	1	1	1	1	0	1	-11,486963	274,110413	308,612682	0
15.01.2021	20:10:12	0	0	3,389417	1,5825	312,4656	0,147	85,72	0	1016,88	6,8	8,9	8,7	1	1	1	1	1	1	1	1	1	0	1	-9,161381	274,218219	311,442138	0
15.01.2021	20:10:13	0	0	4,293261	1,659	307,2096	0,153	85,723	0	1016,94	6,7	8,9	8,7	1	1	1	1	1	1	1	1	1	0	1	-7,258633	274,164241	313,092522	0
15.01.2021	20:10:14	0	0	3,050475	1,7325	315,864	0,15	85,714	0	1016,84	6,8	8,9	8,7	1	1	1	1	1	1	1	1	1	0	1	-14,305849	274,04185	305,473654	0
15.01.2021	20:10:15	0	0	5,197106	1,74375	317,4444	0,143	85,721	0	1016,8	6,7	8,9	8,7	1	1	1	1	1	1	1	1	1	0	1	-7,892882	274,171729	312,493272	0
15.01.2021	20:10:16	0	0	2,937495	1,79925	315,144	0,144	85,727	0	1016,94	6,8	8,9	8,7	1	1	1	1	1	1	1	1	1	0	1	-6,976744	274,098471	313,067125	0
15.01.2021	20:10:17	0	0	3,163456	1,842	323,7984	0,147	85,702	0	1016,92	6,8	8,9	8,7	1	1	1	1	1	1	1	1	1	0	1	-11,486963	274,236246	309,200868	0
15.01.2021	20:10:18	0	0	4,180281	1,86825	321,4404	0,147	85,703	0	1016,94	6,8	8,9	8,7	1	1	1	1	1	1	1	1	1	0	1	-11,557435	274,120867	308,591048	0
15.01.2021	20:10:19	0	0	4,293261	1,8345	321,4224	0,148	85,689	0	1017	6,8	8,9	8,7	1	1	1	1	1	1	1	1	1	0	1	-12,473573	274,216718	308,122924	0
15.01.2021	20:10:20	0	0	4,858164	1,818	322,1928	0,149	85,709	0	1016,92	6,8	8,9	8,7	1	1	1	1	1	1	1	1	1	0	1	-12,473573	274,102948	307,591207	0
15.01.2021	20:10:21	0	0	4,293261	1,77825	319,9536	0,146	85,705	0	1017,06	6,8	8,9	8,7	1	1	1	1	1	1	1	1	1	0	1	-8,949965	274,038875	310,815651	0
15.01.2021	20:10:22	0	0	2,824514	1,76775	308,088	0,147	85,708	0	1016,8	6,8	8,9	8,7	1	1	1	1	1	1	1	1	1	0	1	-9,372798	274,062691	310,503994	0
15.01.2021	20:10:23	0	0	3,502398	1,82925	310,6692	0,149	85,714	0	1016,84	6,8	8,9	8,7	1	1	1	1	1	1	1	1	1	0	1	-5,073996	274,083555	314,900212	0
15.01.2021	20:10:24	0	0	4,858164	2,05725	302,8212	0,152	85,721	0	1016,9	6,8	8,9	8,7	1	1	1	1	1	1	1	1	1	0	1	-8,80902	274,183716	311,633168	0
15.01.2021	20:10:25	0	0	4,519223	2,1525	311,7456	0,153	85,706	0	1016,88	6,8	8,9	8,7	1	1	1	1	1	1	1	1	1	0	1	-11,980268	274,192711	308,503973	0
15.01.2021	20:10:26	0	0	3,841339	2,15475	293,4252	0,151	85,713	0	1016,98	6,8	8,9	8,7	1	1	1	1	1	1	1	1	1	0	1	-9,584214	274,19871	310,928075	0
15.01.2021	20:10:27	0	0	4,293261	2,14575	312,9336	0,148	85,715	0	1016,94	6,8	8,9	8,7	1	1	1	1	1	1	1	1	1	0	1	-9,654686	274,19421	310,836565	0
15.01.2021	20:10:28	0	0	4,858164	2,151	312,4728	0,147	85,702	0	1016,86	6,8	8,9	8,7	1	1	1	1	1	1	1	1	1	0	1	-6,8358	274,20321	313,697532	0
15.01.2021	20:10:29	0	0	2,711534	2,04	308,8152	0,146	85,712	0	1016,9	6,8	8,9	8,7	1	1	1	1	1	1	1	1	1	0	1	-9,231853	274,079082	310,721469	0
15.01.2021	20:10:30	0	0	4,632175	2,0415	296,4528	0,148	85,692	0	1016,9	6,8	8,9	8,8	1	1	1	1	1	1	1	1	1	0	1	-10,42988	274,204711	310,110468	0
15.01.2021	20:10:31	0	0	2,937495	1,9185	286,6644	0,147	85,703	0	1016,86	6,8	8,9	8,7	1	1	1	1	1	1	1	1	1	0	1	-5,778717	274,055245	314,063314	0
15.01.2021	20:10:32	0	0	4,293261	1,82775	292,9356	0,151	85,704	0	1016,78	6,8	8,9	8,7	1	1	1	1	1	1	1	1	1	0	1	-15,64482	274,168733	304,727333	0
15.01.2021	20:10:33	0	0	3,050457	1,77075	293,3352	0,149	85,704	0	1017,04	6,8	8,9	8,8	1	1	1	1	1	1	1	1	1	0	1	-8,597604	274,137308	311,62769	0
15.01.2021	20:10:34	0	0	2,711534	1,83375	291,2976	0,145	85,713	0	1016,88	6,8	8,9	8,7	1	1	1	1	1	1	1	1	1	0	1	-6,342495	274,0359	313,409235	0
15.01.2021	20:10:35	0	0	2,824514	1,83075	308,862	0,144	85,7	0	1017	6,8	8,9	8,7	1	1	1	1	1	1	1	1	1	0	1	-12,332629	274,113399	307,780967	0
15.01.2021	20:10:36	0	0	4,858164	1,746	286,6608	0,149	85,701	0	1016,84	6,8	8,9	8,7	1	1	1	1	1	1	1	1	1	0	1	-13,319239	274,049291	306,494996	0
15.01.2021	20:10:37	0	0	3,728359	1,6875	296,8272	0,149	85,71	0	1016,92	6,8	8,9	8,7	1	1	1	1	1	1	1	1	1	0	1	-9,725159	274,19421	310,766093	0
15.01.2021	20:10:38	0	0	4,632203	1,77375	284,4936	0,145	85,696	0	1016,88	6,8	8,9	8,7	1	1	1	1	1	1	1	1	1	0	1	-9,302326	274,19571	311,195938	0
15.01.2021	20:10:39	0	0	5,084125	1,821	299,4192	0,142	85,692	0	1016,92	6,8	8,9	8,7	1	1	1	1	1	1	1	1	1	0	1	-14,235377	274,20321	306,297955	0
15.01.2021	20:10:40	0	0	4,0673	1,854	304,6752	0,153	85,692	0	1016,82	6,8	8,9	8,7	1	1	1	1	1	1	1	1	1	0	1	-10,218464	274,186713	310,237739	0
15.01.2021	20:10:41	0	0	2,824497	1,82025	298,7352	0,146	85,694	0	1016,86	6,8	8,9	8,8	1	1	1	1	1	1	1	1	1	0	1	-9,302326	274,210713	311,266092	0
15.01.2021	20:10:42	0	0	3,050475	1,89675	293,382	0,151	85,694	0	1016,9	6,8	8,9	8,7	1	1	1	1	1	1	1	1	1	0	1	-9,725159	274,156756	310,591014	0
15.01.2021	20:10:43	0	0	2,824514	1,86675	300,4524	0,148	85,705	0	1016,98	6,8	8,9	8,7	1	1	1	1	1	1	1	1	1	0	1	-9,090909	274,216718	311,505588	0
15.01.2021	20:10:44	0	0	4,293261	1,87875	293,7528	0,15	85,701	0	1017,02	6,7	8,9	8,7	1	1	1	1	1	1	1	1	1	0	1	-9,302326	274,074611	310,630117	0
15.01.2021	20:10:45	0	0	4,293261	1,9755	309,1716	0,146	85,698	0	1016,68	6,8	8,9	8,7	1	1	1	1	1	1	1	1	1	0	1	-11,06413	274,191211	309,413101	0
15.01.2021	20:10:46	0	0	3,728359	2,07825	315,4752	0,146	85,689	0	1017,02	6,7	8,9	8,7	1	1	1	1	1	1	1	1	1	0	1	-10,42988	274,083555	309,544327	0
15.01.2021	20:10:47	0	0	4,519195	2,07975	316,6776	0,149	85,678	0	1016,88	6,8	8,9	8,8	1	1	1	1	1	1	1	1	1	0	1	-7,610994	274,221223	313,006571	0
15.01.2021	20:10:48	0	0	4,858164	1,8795	294,7932	0,148	85,701	0	1016,92	6,8	8,9	8,7	1	1	1	1	1	1	1	1	1	0	1	-9,725159	274,180718	310,703017	0
15.01.2021	20:10:49	0	0	4,0673	1,7805	302,8356	0,143	85,671	0	1016,78	6,8	8,9	8,7	1	1	1	1	1	1	1	1	1	0	1	-10,147992	274,06865	309,75662	0
15.01.2021	20:10:50	0	0	4,745184	1,779	288,5148	0,146	85,684	0	1016,84	6,8	8,9	8,7	1	1	1	1	1	1	1	1	1	0	1	-6,694856	274,186713	313,761347	0
15.01.2021	20:10:51	0	0	3,728359	1,881	299,0484	0,144	85,688	0	1016,8	6,8	8,9	8,7	1	1	1	1	1	1	1	1	1	0	1	-11,275546	274,164241	309,075609	0
15.01.2021	20:10:52	0	0	4,632175	2,05275	300,5028	0,145	85,679	0	1016,84	6,8	8,9	8,8	1	1	1	1	1	1	1	1	1	0	1	-10,147992	274,222724	310,476596	0
15.01.2021	20:10:53	0	0	3,502398	2,1465	308,0844	0,143	85,695	0	1016,96	6,7	8,9	8,7	1	1	1	1	1	1	1	1	1	0	1	-11,627907	274,047803	308,17938	0
15.01.2021	20:10:54	0	0	2,937495	2,2275	303,1524	0,142	85,685	0	1016,92	6,8	8,9	8,7	1	1	1	1	1	1	1	1	1	0	1	-10,711769	274,050779	309,109414	0
15.01.2021	20:10:55	0	0	5,084125	2,349	309,8988	0,147	85,693	0	1016,98	6,8	8,9	8,7	1	1	1	1	1	1	1	1	1	0	1	-7,963354	274,119373	312,17815	0
15.01.2021	20:10:56	0	0	2,485572	2,53275	313,1388	0,147	85,698	0	1017,04	6,8	8,9	8,7	1	1	1	1	1	1	1	1	1	0	1	-9,020437	274,047803	310,78685	0
15.01.2021	20:10:57	0	0	5,084125	2,50875	319,4676	0,144	85,699	0	1016,9	6,8	8,9	8,7	1	1	1	1	1	1	1	1	1	0	1	-10,147992	274,095487	309,88194	0
15.01.2021	20:10:58	0	0	2,937495	2,484	315,1908	0,148	85,69	0	1016,9	6,8	8,9	8,7	1	1	1	1	1	1	1	1	1	0	1	-10,711769	274,227231	309,933894	0
15.01.2021	20:10:59	0	0	3,728359	2,3895	316,6344	0,143	85,701	0	1016,96	6,8	8,9	8,7	1	1	1	1	1	1	1	1	1	0	1	-7,963354	274,12535	312,206069	0
15.01.2021	20:11:00	0	0	2,824514	2,3025	315,936	0,147	85,691	0	1016,86	6,8	8,9	8,7	1	1	1	1	1	1	1	1	1	0	1	-11,909796	274,034413	307,834993	0
15.01.2021	20:11:01	0	0	2,824514	2,3025	315,936	0,147	85,691	0	1016,86	6,8	8,9	8,7	1	1	1	1	1	1	1	1	1	0	1	-12,544045	274,064181	307,339701	0
15.01.2021	20:11:02	0	0	3,615378	2,28825	313,1928	0,146	85,688	0	1016,86	6,8	8,9	8,7	1	1	1	1	1	1	1	1	1	0	1	-8,386187	274,218219	312,217331	0
15.01.2021	20:11:03	0	0	4,406242	2,256	308,0988	0,141	85,68	0	1016,98	6,8	8,9	8,7	1	1	1	1	1	1	1	1	1	0	1	-8,879493	274,099963	311,171346	0
15.01.2021	20:11:04	0	0	2,485572	2,271	303,1596	0,142	85,677	0	1016,8	6,8	8,9	8,7	1	1	1	1	1	1	1	1	1	0	1	-8,45666	274,224226	312,174953	0
15.01.2021	20:11:05	0	0	4,180281	2,2695	315,18	0,14	85,669	0	1016,84	6,8	8,9	8,7	1	1	1	1	1	1	1	1	1	0	1	-13,6716	274,180718	306,756576	0
15.01.2021	20:11:06	0	0	3,841339	2,2395	311,7564	0,148	85,69	0	1016,76	6,7	8,9	8,7	1	1	1	1	1	1	1	1	1	0	1	-9,161381	274,216718	311,435116	0
15.01.2021	20:11:07	0	0	3,502398	2,202	315,4644	0,145	85,689	0	1016,96	6,8	8,9	8,7	1	1	1	1	1	1	1	1	1	0	1	-10,782241	274,028464	308,934787	0
15.01.2021	20:11:08	0	0	2,824514	2,214	318,5244	0,143	85,682	0	1016,98	6,7	8,9	8,7	1	1	1	1	1	1	1	1	1	0	1	-7,188161	274,204711	313,352187	0
15.01.2021	20:11:09	0	0	3,841339	2,196	320,3748	0,144	85,681	0	1016,82	6,8	8,9	8,7	1	1	1	1	1	1	1	1	1	0	1	-10,852713	274,212214	309,722723	0
15.01.2021	20:11:10	0	0	2,824514	2,1705	318,4128	0,143	85,671	0	1016,84	6,8	8,9	8,7	1	1	1	1	1	1	1	1	1	0	1	-14,094433	274,113399	306,019163	0
15.01.2021	20:11:11	0	0	3,389417	2,1	319,6152	0,14	85,664	0	1016,92	6,8	8,9	8,7	1	1	1	1	1	1	1	1	1	0	1	-8,45666	274,206211	312,090705	0
15.01.2021	20:11:12	0	0	3,163456	1,99725	324,8604	0,144	85,67	0	1017	6,8	8,9	8,7	1	1	1	1	1	1	1	1	1	0	1	-9,161381	274,08952	310,840683	0
15.01.2021	20:11:13	0	0	4,406242	1,82625	310,9716	0,145	85,672	0	1016,84	6,8	8,9	8,7	1	1	1	1	1	1	1	1	1	0	1	-8,949965	274,212214	311,625471	0
15.01.2021	20:11:14	0	0	4,0673	1,83225	314,4384	0,143	85,677	0	1016,88	6,8	8,9	8,7	1	1	1	1	1	1	1	1	1	0	1	-8,245243	274,132823	311,959094	0
15.01.2021	20:11:15	0	0	2,824514	1,74825	308,0484	0,142	85,681	0	1016,84	6,8	8,9	8,7	1	1	1	1	1	1	1	1	1	0	1	-14,235377	274,216718	306,36112	0
15.01.2021	20:11:16	0	0	4,632203	1,71675	314,5176	0,144	85,68	0	1016,9	6,8	8,9	8,7	1	1	1	1	1	1	1	1	1	0	1	-9,302326	274,141794	310,94393	0
15.01.2021	20:11:17	0	0	4,406242	1,716	310,266	0,145	85,686	0	1017,02	6,8	8,9	8,7	1	1	1	1	1	1	1	1	1	0	1	-8,80902	274,218219	311,794498	0
15.01.2021	20:11:18	0	0	3,728359	1,88925	315,8532	0,149	85,685	0	1017,04	6,8	8,9	8,7	1	1	1	1	1	1	1	1	1	0	1	-10,641297	274,076101	309,298105	0
15.01.2021	20:11:19	0	0	4,519223	1,9245	308,1276	0,148	85,682	0	1016,98	6,8	8,9	8,7	1	1	1	1	1	1	1	1	1	0	1	-8,033827	274,110413	312,065818	0
15.01.2021	20:11:20	0	0	4,293261	1,9725	303,8976	0,147	85,686	0	1016,92	6,7	8,9	8,7	1	1	1	1	1	1	1	1	1	0	1	-10,852713	274,047803	308,954574	0
15.01.2021	20:11:21	0	0	2,824514	1,89525	304,578	0,148	85,679	0	1017	6,7	8,9	8,7	1	1	1	1	1	1	1	1	1	0	1	-10,077519	274,080573	309,882764	0
15.01.2021	20:11:22	0	0	3,615378	1,779	302,4252	0,146	85,684	0	1016,9	6,8	8,9	8,7	1	1	1	1	1	1	1	1	1	0	1	-11,980268	274,182217	308,454914	0
15.01.2021	20:11:23	0	0	4,632203	1,722	296,0676	0,147	85,685	0	1016,8	6,8	8,9	8,7	1	1	1	1	1	1	1	1	1	0	1	-10,359408	274,213715	310,223048	0
15.01.2021	20:11:24	0	0	2,937495	1,74	295,146	0,142	85,67	0	1016,96	6,8	8,9	8,7	1	1	1	1	1	1	1	1	1	0	1	-4,439746	274,188213	316,023465	0
15.01.2021	20:11:25	0	0	4,406242	1,791	292,572	0,141	85,684	0	1016,96	6,8	8,9	8,7	1	1	1	1	1	1	1	1	1	0	1	-5,84919	274,095487	314,180742	0
15.01.2021	20:11:26	0	0	3,728359	1,8375	287,3736	0,147	85,664	0	1016,58	6,8	8,9	8,7	1	1	1	1	1	1	1	1	1	0	1	-11,627907	274,032925	308,10994	0
15.01.2021	20:11:27	0	0	4,745184	1,91175	293,3136	0,14	85,66	0	1017,02	6,8	8,9	8,7	1	1	1	1	1	1	1	1	1	0	1	-12,191684	274,164241	308,159471	0
15.01.2021	20:11:28	0	0	4,406242	1,977	290,3904	0,145	85,681	0	1016,92	6,8	8,9	8,7	1	1	1	1	1	1	1	1	1	0	1	-9,302326	274,152266	310,992865	0
15.01.2021	20:11:29	0	0	3,615356	1,9935	297,576	0,148	85,679	0	1016,82	6,8	8,9	8,8	1	1	1	1	1	1	1	1	1	0	1	-6,976744	274,021032	312,705598	0
15.01.2021	20:11:30	0	0	2,937495	1,93575	291,132	0,146	85,675	0	1016,78	6,8	8,9	8,7	1	1	1	1	1	1	1	1	1	0	1	-7,540521	274,174725	312,859638	0
15.01.2021	20:11:31	0	0	2,937495	1,926	293,724	0,144	85,681	0	1017	6,8	8,9	8,7	1	1	1	1	1	1	1	1	1	0	1	-11,06413	274,20171	309,462187	0
15.01.2021	20:11:32	0	0	3,502398	1,9065	279,2268	0,145	85,677	0	1016,98	6,8	8,9	8,7	1	1	1	1	1	1	1	1	1	0	1	-9,654686	274,158252	310,668481	0
15.01.2021	20:11:33	0	0	4,745155	1,87275	279,846	0,145	85,652	0	1016,96	6,7	8,9	8,8	1	1	1	1	1	1	1	1	1	0	1	-11,06413	274,215217	309,525347	0
15.01.2021	20:11:34	0	0	4,293261	1,8585	278,3988	0,145	85,68	0	1016,78	6,8	8,9	8,7	1	1	1	1	1	1	1	1	1	0	1	-12,473573	274,153762	307,828611	0
15.01.2021	20:11:35	0	0	4,632203	1,6905	272,4228	0,143	85,671	0	1016,7	6,8	8,9	8,7	1	1	1	1	1	1	1	1	1	0	1	-7,892882	274,215217	312,696594	0
15.01.2021	20:11:36	0	0	4,293261	1,4955	268,8048	0,152	85,677	0	1016,86	6,7	8,9	8,7	1	1	1	1	1	1	1	1	1	0	1	-10,218464	274,058223	309,63747	0
15.01.2021	20:11:37	0	0	2,259611	1,3785	273,2112	0,149	85,679	0	1016,88	6,8	8,9	8,7	1	1	1	1	1	1	1	1	1	0	1	-10,147992	274,056734	309,70099	0
15.01.2021	20:11:38	0	0	3,502398	1,45575	280,1556	0,143	85,664	0	1016,76	6,7	8,9	8,7	1	1	1	1	1	1	1	1	1	0	1	-10,359408	274,180718	310,068768	0
15.01.2021	20:11:39	0	0	3,615378	1,57275	282,1104	0,146	85,662	0	1016,94	6,8	8,9	8,7	1	1	1	1	1	1	1	1	1	0	1	-8,738548	274,06865	311,166064	0
15.01.2021	20:11:40	0	0	2,711534	1,73175	284,1264	0,144	85,647	0	1016,88	6,8	8,9	8,7	1	1	1	1	1	1	1	1	1	0	1	-10,993658	274,146281	309,273566	0
15.01.2021	20:11:41	0	0	4,632203	1,9005	288,7668	0,141	85,655	0	1016,82	6,7	8,9	8,7	1	1	1	1	1	1	1	1	1	0	1	-11,557435	274,040363	308,215124	0
15.01.2021	20:11:42	0	0	2,259611	1,896	289,5696	0,143	85,662	0	1016,9	6,8	8,8	8,7	1	1	1	1	1	1	1	1	1	0	1	-14,799154	274,188213	305,664057	0
15.01.2021	20:11:43	0	0	4,858164	1,911	297,8604	0,146	85,658	0	1016,92	6,8	8,9	8,7	1	1	1	1	1	1	1	1	1	0	1	-9,866103	274,159749	310,464061	0
15.01.2021	20:11:44	0	0	5,197106	1,91175	271,8612	0,14	85,639	0	1016,88	6,7	8,9	8,7	1	1	1	1	1	1	1	1	1	0	1	-8,597604	274,155259	311,711574	0
15.01.2021	20:11:45	0	0	4,632203	1,93725	286,6608	0,143	85,657	0	1016,94	6,8	8,9	8,7	1	1	1	1	1	1	1	1	1	0	1	-10,782241	274,165738	309,575913	0
15.01.2021	20:11:46	0	0	4,406242	1,97025	275,3244	0,144	85,638	0	1016,88	6,8	8,9	8,7	1	1	1	1	1	1	1	1	1	0	1	-10,500352	274,209212	310,061047	0
15.01.2021	20:11:47	0	0	4,858164	1,9005	282,7404	0,143	85,662	0	1016,86	6,8	9	8,7	1	1	1	1	1	1	1	1	1	0	1	-10,077519	274,093995	309,945444	0
15.01.2021	20:11:48	0	0	3,728359	1,8105	286,7328	0,144	85,653	0	1016,94	6,7	8,9	8,7	1	1	1	1	1	1	1	1	1	0	1	-11,698379	274,037387	308,060293	0
15.01.2021	20:11:49	0	0	4,0673	1,76775	282,4416	0,144	85,652	0	1016,94	6,7	8,9	8,7	1	1	1	1	1	1	1	1	1	0	1	-10,641297	274,137308	309,583997	0
15.01.2021	20:11:50	0	0	4,180281	1,79625	298,6596	0,148	85,653	0	1017	6,8	8,9	8,7	1	1	1	1	1	1	1	1	1	0	1	-8,386187	274,044826	311,407206	0
15.01.2021	20:11:51	0	0	3,728359	1,81125	299,772	0,142	85,644	0	1016,84	6,8	8,9	8,7	1	1	1	1	1	1	1	1	1	0	1	-6,765328	274,06865	313,139284	0
15.01.2021	20:11:52	0	0	3,728359	1,8165	309,924	0,149	85,657	0	1016,86	6,8	8,9	8,7	1	1	1	1	1	1	1	1	1	0	1	-12,614517	274,047803	307,19277	0
15.01.2021	20:11:53	0	0	3,502398	1,82325	295,5636	0,136	85,645	0	1016,84	6,8	8,9	8,7	1	1	1	1	1	1	1	1	1	0	1	-9,090909	274,180718	311,337267	0
15.01.2021	20:11:54	0	0	4,745184	1,8105	298,7352	0,144	85,647	0	1016,86	6,8	8,9	8,7	1	1	1	1	1	1	1	1	1	0	1	-9,866103	274,165738	310,492051	0
15.01.2021	20:11:55	0	0	3,050475	1,71975	299,0232	0,147	85,649	0	1016,98	6,8	8,9	8,7	1	1	1	1	1	1	1	1	1	0	1	-9,725159	274,053757	310,109923	0
15.01.2021	20:11:56	0	0	3,95432	1,68675	299,394	0,144	85,655	0	1016,9	6,7	8,9	8,7	1	1	1	1	1	1	1	1	1	0	1	-10,711769	274,079082	309,241553	0
15.01.2021	20:11:57	0	0	3,389417	1,71	314,5248	0,142	85,646	0	1016,82	6,7	8,9	8,7	1	1	1	1	1	1	1	1	1	0	1	-10,711769	274,192711	309,772472	0
15.01.2021	20:11:58	0	0	2,937495	1,70325	309,6216	0,138	85,632	0	1016,86	6,8	8,9	8,7	1	1	1	1	1	1	1	1	1	0	1	-11,839323	274,080573	308,12096	0
15.01.2021	20:11:59	0	0	3,050475	1,68525	318,1176	0,149	85,648	0	1016,88	6,8	9	8,7	1	1	1	1	1	1	1	1	1	0	1	-11,698379	274,210713	308,870038	0
15.01.2021	20:12:00	0	0	3,841339	1,61625	314,766	0,147	85,637	0	1016,8	6,8	9	8,7	1	1	1	1	1	1	1	1	1	0	1	-10,711769	274,158252	309,611399	0
15.01.2021	20:12:01	0	0	2,937495	1,611	320,7492	0,142	85,646	0	1016,86	6,8	8,9	8,7	1	1	1	1	1	1	1	1	1	0	1	-8,668076	274,206211	311,879288	0
15.01.2021	20:12:02	0	0	3,163456	1,545	320,3568	0,14	85,64	0	1016,9	6,8	8,9	8,7	1	1	1	1	1	1	1	1	1	0	1	-9,866103	274,07312	310,059381	0
15.01.2021	20:12:03	0	0	2,824514	1,53075	302,4648	0,146	85,643	0	1016,88	6,8	8,9	8,7	1	1	1	1	1	1	1	1	1	0	1	-10,007047	274,218219	310,596472	0
15.01.2021	20:12:04	0	0	4,858164	1,49325	315,4572	0,138	85,636	0	1016,82	6,7	8,9	8,7	1	1	1	1	1	1	1	1	1	0	1	-8,738548	274,098471	311,305321	0
15.01.2021	20:12:05	0	0	3,615378	1,50975	314,7768	0,141	85,648	0	1016,86	6,7	8,9	8,7	1	1	1	1	1	1	1	1	1	0	1	-10,641297	274,043338	309,145152	0
15.01.2021	20:12:06	0	0	2,598553	1,50825	315,2232	0,147	85,64	0	1016,8	6,8	8,9	8,7	1	1	1	1	1	1	1	1	1	0	1	-9,090909	274,15077	311,197289	0
15.01.2021	20:12:07	0	0	4,406242	1,47075	324,4248	0,14	85,646	0	1016,88	6,8	8,9	8,7	1	1	1	1	1	1	1	1	1	0	1	-7,117689	274,212214	313,457748	0
15.01.2021	20:12:08	0	0	3,276417	1,41525	330,0588	0,15	85,644	0	1016,92	6,8	9	8,8	1	1	1	1	1	1	1	1	1	0	1	-11,346018	274,119373	308,795486	0
15.01.2021	20:12:09	0	0	3,502398	1,4805	316,692	0,144	85,646	0	1016,86	6,7	9	8,7	1	1	1	1	1	1	1	1	1	0	1	-9,090909	274,19571	311,407354	0
15.01.2021	20:12:10	0	0	4,745184	1,53975	332,0064	0,141	85,621	0	1016,94	6,7	8,9	8,7	1	1	1	1	1	1	1	1	1	0	1	-8,879493	274,098471	311,164376	0
15.01.2021	20:12:11	0	0	3,615378	1,56825	327,7872	0,139	85,636	0	1016,9	6,8	8,9	8,7	1	1	1	1	1	1	1	1	1	0	1	-9,090909	274,031438	310,639998	0
15.01.2021	20:12:12	0	0	3,502398	1,611	325,908	0,146	85,644	0	1016,94	6,8	8,9	8,7	1	1	1	1	1	1	1	1	1	0	1	-11,41649	274,146281	308,850733	0
15.01.2021	20:12:13	0	0	4,519223	1,704	327,798	0,14	85,644	0	1016,9	6,8	8,9	8,7	1	1	1	1	1	1	1	1	1	0	1	-10,147992	274,221223	310,469573	0
15.01.2021	20:12:14	0	0	4,745155	1,80675	326,0484	0,141	85,648	0	1016,92	6,8	8,9	8,8	1	1	1	1	1	1	1	1	1	0	1	-9,090909	274,105934	310,987815	0
15.01.2021	20:12:15	0	0	5,084125	1,68	298,6704	0,139	85,647	0	1016,82	6,7	8,9	8,7	1	1	1	1	1	1	1	1	1	0	1	-12,614517	274,215217	307,974959	0
15.01.2021	20:12:16	0	0	4,406242	1,4655	281,3364	0,143	85,644	0	1016,94	6,8	8,9	8,7	1	1	1	1	1	1	1	1	1	0	1	-11,205074	274,19871	309,307215	0
15.01.2021	20:12:17	0	0	4,406242	1,30275	285,4584	0,143	85,641	0	1016,98	6,8	8,9	8,7	1	1	1	1	1	1	1	1	1	0	1	-10,923185	274,04185	308,856318	0
15.01.2021	20:12:18	0	0	3,615378	1,11825	299,7252	0,135	85,627	0	1016,86	6,7	8,9	8,7	1	1	1	1	1	1	1	1	1	0	1	-10,993658	274,168733	309,378495	0
15.01.2021	20:12:19	0	0	2,485572	1,10175	321,1668	0,143	85,652	0	1016,82	6,8	8,9	8,7	1	1	1	1	1	1	1	1	1	0	1	-10,570825	274,043338	309,215624	0
15.01.2021	20:12:20	0	0	4,632203	1,1175	309,4632	0,144	85,654	0	1016,94	6,7	8,9	8,7	1	1	1	1	1	1	1	1	1	0	1	-13,601128	274,077591	306,345234	0
15.01.2021	20:12:21	0	0	5,197106	1,203	287,6976	0,145	85,643	0	1016,78	6,8	8,9	8,7	1	1	1	1	1	1	1	1	1	0	1	-9,161381	274,032925	310,576466	0
15.01.2021	20:12:22	0	0	4,406242	1,2765	293,724	0,143	85,649	0	1016,8	6,8	9	8,7	1	1	1	1	1	1	1	1	1	0	1	-12,191684	274,141794	308,054572	0
15.01.2021	20:12:23	0	0	4,519223	1,221	302,4216	0,141	85,656	0	1016,8	6,8	8,9	8,7	1	1	1	1	1	1	1	1	1	0	1	-14,164905	274,20171	306,361412	0
15.01.2021	20:12:24	0	0	2,485572	1,2015	296,388	0,141	85,637	0	1016,64	6,8	8,8	8,7	1	1	1	1	1	1	1	1	1	0	1	-6,272023	274,153762	314,030161	0
15.01.2021	20:12:25	0	0	4,293261	1,20975	294,4404	0,141	85,648	0	1016,98	6,8	8,9	8,7	1	1	1	1	1	1	1	1	1	0	1	-7,399577	274,218219	313,203942	0
15.01.2021	20:12:26	0	0	4,293261	1,28325	286,3404	0,14	85,64	0	1016,66	6,7	9	8,7	1	1	1	1	1	1	1	1	1	0	1	-6,8358	274,059713	313,027086	0
15.01.2021	20:12:27	0	0	4,745184	1,296	289,584	0,143	85,647	0	1016,86	6,8	9	8,7	1	1	1	1	1	1	1	1	1	0	1	-7,610994	274,212214	312,964443	0
15.01.2021	20:12:28	0	0	4,293261	1,344	284,4432	0,139	85,627	0	1016,98	6,8	8,9	8,7	1	1	1	1	1	1	1	1	1	0	1	-9,302326	274,165738	311,055828	0
15.01.2021	20:12:29	0	0	4,519223	1,3905	287,3232	0,142	85,645	0	1017,04	6,7	8,9	8,7	1	1	1	1	1	1	1	1	1	0	1	-11,205074	274,07014	308,706494	0
15.01.2021	20:12:30	0	0	3,276436	1,48275	292,9572	0,144	85,621	0	1016,92	6,8	8,9	8,7	1	1	1	1	1	1	1	1	1	0	1	-10,077519	274,225728	310,561118	0
15.01.2021	20:12:31	0	0	2,598553	1,539	286,9776	0,143	85,643	0	1016,98	6,7	8,9	8,7	1	1	1	1	1	1	1	1	1	0	1	-10,570825	274,079082	309,382498	0
15.01.2021	20:12:32	0	0	4,745184	1,527	290,7504	0,141	85,64	0	1017,02	6,7	8,9	8,7	1	1	1	1	1	1	1	1	1	0	1	-13,319239	274,19871	307,19305	0
15.01.2021	20:12:33	0	0	4,971145	1,61475	286,6716	0,14	85,641	0	1016,9	6,8	9	8,7	1	1	1	1	1	1	1	1	1	0	1	-7,751938	274,174725	312,648221	0
15.01.2021	20:12:34	0	0	4,632203	1,593	296,7696	0,144	85,639	0	1016,92	6,8	8,9	8,7	1	1	1	1	1	1	1	1	1	0	1	-13,03735	274,173227	307,355806	0
15.01.2021	20:12:35	0	0	2,824514	1,52025	298,62	0,139	85,633	0	1017,02	6,7	8,9	8,7	1	1	1	1	1	1	1	1	1	0	1	-6,976744	274,061202	312,893094	0
15.01.2021	20:12:36	0	0	3,389417	1,5615	303,5196	0,144	85,648	0	1016,96	6,8	9	8,7	1	1	1	1	1	1	1	1	1	0	1	-9,302326	274,047803	310,504961	0
15.01.2021	20:12:37	0	0	2,598553	1,48875	310,9392	0,142	85,631	0	1016,82	6,7	9	8,7	1	1	1	1	1	1	1	1	1	0	1	-9,513742	274,167235	310,851411	0
15.01.2021	20:12:38	0	0	2,824514	1,4445	310,6404	0,143	85,625	0	1016,94	6,8	8,9	8,7	1	1	1	1	1	1	1	1	1	0	1	-11,768851	274,032925	307,968996	0
15.01.2021	20:12:39	0	0	3,276436	1,3815	318,7836	0,14	85,623	0	1016,96	6,8	8,9	8,7	1	1	1	1	1	1	1	1	1	0	1	-10,288936	274,135813	309,929372	0
15.01.2021	20:12:40	0	0	4,745184	1,39125	300,2148	0,143	85,619	0	1016,86	6,8	8,8	8,7	1	1	1	1	1	1	1	1	1	0	1	-7,188161	274,20321	313,345171	0
15.01.2021	20:12:41	0	0	4,745184	1,515	311,3352	0,141	85,618	0	1016,82	6,8	8,9	8,7	1	1	1	1	1	1	1	1	1	0	1	-15,574348	274,110413	304,525297	0
15.01.2021	20:12:42	0	0	3,389417	1,632	321,7968	0,14	85,618	0	1016,8	6,8	8,9	8,7	1	1	1	1	1	1	1	1	1	0	1	-9,654686	274,044826	310,138707	0
15.01.2021	20:12:43	0	0	3,389417	1,65975	314,118	0,139	85,628	0	1016,84	6,7	8,9	8,7	1	1	1	1	1	1	1	1	1	0	1	-9,584214	274,129833	310,606156	0
15.01.2021	20:12:44	0	0	2,598553	1,7295	318,4344	0,142	85,628	0	1017,12	6,7	8,9	8,7	1	1	1	1	1	1	1	1	1	0	1	-11,134602	274,20321	309,39873	0
15.01.2021	20:12:45	0	0	2,485572	1,78425	308,1528	0,144	85,627	0	1016,9	6,8	9	8,7	1	1	1	1	1	1	1	1	1	0	1	-10,923185	274,15077	309,365013	0
15.01.2021	20:12:46	0	0	3,841339	1,83225	309,204	0,138	85,622	0	1016,9	6,8	8,9	8,7	1	1	1	1	1	1	1	1	1	0	1	-8,668076	274,215217	311,9214	0
15.01.2021	20:12:47	0	0	4,745184	1,9575	305,3052	0,137	85,612	0	1016,94	6,8	8,9	8,7	1	1	1	1	1	1	1	1	1	0	1	-9,725159	274,080573	310,235125	0
15.01.2021	20:12:48	0	0	2,937495	2,0865	306,1044	0,136	85,626	0	1016,88	6,7	8,9	8,7	1	1	1	1	1	1	1	1	1	0	1	-7,258633	274,053757	312,576448	0
15.01.2021	20:12:49	0	0	4,858164	2,17725	309,5748	0,142	85,62	0	1017	6,8	8,8	8,7	1	1	1	1	1	1	1	1	1	0	1	-10,147992	274,17922	310,273179	0
15.01.2021	20:12:50	0	0	4,0673	2,21775	311,3568	0,138	85,608	0	1016,94	6,8	9	8,7	1	1	1	1	1	1	1	1	1	0	1	-11,839323	274,207712	308,715058	0
15.01.2021	20:12:51	0	0	3,276436	2,07225	305,6796	0,136	85,622	0	1016,74	6,7	8,9	8,7	1	1	1	1	1	1	1	1	1	0	1	-7,82241	274,122361	312,333052	0
15.01.2021	20:12:52	0	0	3,615378	1,92	308,7648	0,139	85,63	0	1016,88	6,8	8,9	8,7	1	1	1	1	1	1	1	1	1	0	1	-9,795631	274,01806	309,872842	0
15.01.2021	20:12:53	0	0	2,598553	1,86	304,6284	0,139	85,621	0	1016,84	6,8	9	8,7	1	1	1	1	1	1	1	1	1	0	1	-7,540521	274,132823	312,663816	0
15.01.2021	20:12:54	0	0	5,649028	1,92225	307,3032	0,136	85,601	0	1016,78	6,7	8,9	8,7	1	1	1	1	1	1	1	1	1	0	1	-9,372798	274,032925	310,36505	0
15.01.2021	20:12:55	0	0	2,824514	1,98675	307,5732	0,137	85,621	0	1016,82	6,8	8,9	8,7	1	1	1	1	1	1	1	1	1	0	1	-8,80902	274,156756	311,507152	0
15.01.2021	20:12:56	0	0	2,598553	2,00475	304,6248	0,137	85,616	0	1016,84	6,7	9	8,7	1	1	1	1	1	1	1	1	1	0	1	-6,694856	274,043338	313,091593	0
15.01.2021	20:12:57	0	0	2,485572	2,0055	309,4776	0,146	85,622	0	1016,92	6,8	8,9	8,7	1	1	1	1	1	1	1	1	1	0	1	-6,8358	274,162743	313,508358	0
15.01.2021	20:12:58	0	0	5,310087	1,938	320,2884	0,145	85,612	0	1016,86	6,8	8,9	8,7	1	1	1	1	1	1	1	1	1	0	1	-10,641297	274,20321	309,892035	0
15.01.2021	20:12:59	0	0	4,745184	1,8375	322,5888	0,134	85,613	0	1016,82	6,7	8,9	8,7	1	1	1	1	1	1	1	1	1	0	1	-6,131078	274,162743	314,213079	0
15.01.2021	20:13:00	0	0	4,745184	1,79025	311,382	0,138	85,617	0	1016,92	6,7	8,8	8,7	1	1	1	1	1	1	1	1	1	0	1	-11,275546	274,031438	308,455361	0
15.01.2021	20:13:01	0	0	2,598553	1,71	317,7216	0,14	85,61	0	1016,9	6,7	9	8,7	1	1	1	1	1	1	1	1	1	0	1	-5,003524	274,155259	315,305654	0
15.01.2021	20:13:02	0	0	2,372592	1,66875	315,5436	0,132	85,603	0	1016,66	6,7	8,9	8,7	1	1	1	1	1	1	1	1	1	0	1	-11,557435	274,044826	308,235959	0
15.01.2021	20:13:03	0	0	2,937495	1,6815	313,5528	0,142	85,605	0	1017	6,7	9	8,7	1	1	1	1	1	1	1	1	1	0	1	-6,060606	274,171729	314,325549	0
15.01.2021	20:13:04	0	0	4,971145	1,65225	311,7384	0,137	85,616	0	1016,98	6,7	8,9	8,7	1	1	1	1	1	1	1	1	1	0	1	-6,906272	274,031438	312,824635	0
15.01.2021	20:13:05	0	0	4,519223	1,62975	321,1236	0,138	85,608	0	1016,86	6,7	9	8,7	1	1	1	1	1	1	1	1	1	0	1	-11,698379	274,122361	308,457083	0
15.01.2021	20:13:06	0	0	3,841339	1,65675	320,3928	0,137	85,614	0	1016,98	6,7	8,9	8,7	1	1	1	1	1	1	1	1	1	0	1	-12,332629	274,024005	307,363586	0
15.01.2021	20:13:07	0	0	3,163456	1,662	320,3676	0,13	85,586	0	1016,96	6,7	8,9	8,7	1	1	1	1	1	1	1	1	1	0	1	-8,245243	274,07163	311,673283	0
15.01.2021	20:13:08	0	0	2,485572	1,63275	320,3568	0,14	85,609	0	1016,86	6,7	8,9	8,7	1	1	1	1	1	1	1	1	1	0	1	-7,470049	274,015088	312,184556	0
15.01.2021	20:13:09	0	0	4,632203	1,617	315,9252	0,135	85,606	0	1016,9	6,8	8,9	8,7	1	1	1	1	1	1	1	1	1	0	1	-5,003524	274,183716	315,438664	0
15.01.2021	20:13:10	0	0	2,824514	1,66275	314,8164	0,139	85,6	0	1016,74	6,8	8,9	8,7	1	1	1	1	1	1	1	1	1	0	1	-8,527132	274,025491	311,17602	0
15.01.2021	20:13:11	0	0	3,728359	1,686	315,144	0,14	85,604	0	1016,88	6,8	9	8,7	1	1	1	1	1	1	1	1	1	0	1	-12,896406	274,079082	307,056916	0
15.01.2021	20:13:12	0	0	3,95432	1,78125	315,1692	0,137	85,598	0	1016,82	6,7	8,9	8,7	1	1	1	1	1	1	1	1	1	0	1	-10,147992	274,19421	310,34326	0
15.01.2021	20:13:13	0	0	3,841339	1,90875	309,9348	0,138	85,605	0	1016,92	6,8	8,9	8,7	1	1	1	1	1	1	1	1	1	0	1	-8,315715	274,161246	312,021445	0
15.01.2021	20:13:14	0	0	4,858164	1,986	312,1668	0,132	85,58	0	1016,86	6,7	8,9	8,7	1	1	1	1	1	1	1	1	1	0	1	-9,795631	274,182217	310,639551	0
15.01.2021	20:13:15	0	0	4,858135	2,0415	306,1008	0,138	85,603	0	1016,74	6,8	9	8,8	1	1	1	1	1	1	1	1	1	0	1	-10,359408	274,158252	309,96376	0
15.01.2021	20:13:16	0	0	4,519223	1,99875	303,9012	0,136	85,605	0	1017	6,8	8,9	8,7	1	1	1	1	1	1	1	1	1	0	1	-5,073996	274,01806	314,594477	0
15.01.2021	20:13:17	0	0	4,180281	1,90725	306,774	0,138	85,591	0	1016,8	6,8	8,9	8,7	1	1	1	1	1	1	1	1	1	0	1	-9,302326	274,147777	310,971889	0
15.01.2021	20:13:18	0	0	2,485572	1,8165	302,4324	0,138	85,613	0	1016,88	6,7	9	8,7	1	1	1	1	1	1	1	1	1	0	1	-9,231853	274,001721	310,360381	0
15.01.2021	20:13:19	0	0	4,745184	1,8375	311,8176	0,135	85,586	0	1016,78	6,7	8,9	8,7	1	1	1	1	1	1	1	1	1	0	1	-9,513742	274,076101	310,42566	0
15.01.2021	20:13:20	0	0	2,711534	1,85625	313,128	0,138	85,591	0	1016,86	6,7	8,9	8,7	1	1	1	1	1	1	1	1	1	0	1	-11,557435	274,037387	308,201238	0
15.01.2021	20:13:21	0	0	2,824514	1,89825	299,8152	0,139	85,589	0	1016,88	6,8	8,9	8,7	1	1	1	1	1	1	1	1	1	0	1	-10,077519	274,138803	310,154761	0
15.01.2021	20:13:22	0	0	3,841339	1,95975	299,412	0,134	85,602	0	1016,94	6,7	8,9	8,7	1	1	1	1	1	1	1	1	1	0	1	-9,866103	274,019546	309,809304	0
15.01.2021	20:13:23	0	0	2,598553	1,92525	311,7924	0,139	85,599	0	1016,82	6,7	8,8	8,7	1	1	1	1	1	1	1	1	1	0	1	-11,486963	274,07014	308,424606	0
15.01.2021	20:13:24	0	0	4,293261	2,0025	308,1384	0,134	85,598	0	1016,84	6,7	8,9	8,7	1	1	1	1	1	1	1	1	1	0	1	-7,329105	274,024005	312,36711	0
15.01.2021	20:13:25	0	0	4,519223	1,99125	295,5672	0,136	85,581	0	1016,8	6,8	8,9	8,7	1	1	1	1	1	1	1	1	1	0	1	-10,711769	274,110413	309,387876	0
15.01.2021	20:13:26	0	0	4,406242	2,04825	298,3248	0,134	85,579	0	1016,8	6,8	8,9	8,7	1	1	1	1	1	1	1	1	1	0	1	-8,597604	274,19571	311,900659	0
15.01.2021	20:13:27	0	0	3,502398	2,07	302,3964	0,131	85,586	0	1016,86	6,8	8,9	8,7	1	1	1	1	1	1	1	1	1	0	1	-8,315715	274,176223	312,091447	0
15.01.2021	20:13:28	0	0	4,519223	2,004	291,5064	0,136	85,574	0	1016,9	6,8	8,9	8,7	1	1	1	1	1	1	1	1	1	0	1	-5,84919	274,021032	313,833153	0
15.01.2021	20:13:29	0	0	4,293261	1,989	297,9684	0,136	85,595	0	1016,96	6,7	8,8	8,7	1	1	1	1	1	1	1	1	1	0	1	-9,231853	274,114893	310,888718	0
15.01.2021	20:13:30	0	0	2,711534	2,04675	306,8136	0,133	85,605	0	1016,98	6,7	8,8	8,7	1	1	1	1	1	1	1	1	1	0	1	-9,231853	274,20021	311,287449	0
15.01.2021	20:13:31	0	0	2,485572	1,9875	282,4488	0,133	85,594	0	1016,88	6,7	8,9	8,7	1	1	1	1	1	1	1	1	1	0	1	-5,426357	274,128339	314,757031	0
15.01.2021	20:13:32	0	0	2,937495	1,87725	290,466	0,13	85,596	0	1016,96	6,8	9	8,7	1	1	1	1	1	1	1	1	1	0	1	-7,470049	274,06865	312,434562	0
15.01.2021	20:13:33	0	0	3,163456	1,77975	290,4192	0,133	85,6	0	1016,82	6,8	8,8	8,7	1	1	1	1	1	1	1	1	1	0	1	-10,147992	274,17922	310,273179	0
15.01.2021	20:13:34	0	0	2,485572	1,70325	299,7504	0,134	85,597	0	1016,88	6,7	8,9	8,7	1	1	1	1	1	1	1	1	1	0	1	-9,161381	274,07163	310,757145	0
15.01.2021	20:13:35	0	0	3,389417	1,69275	289,6344	0,137	85,587	0	1016,9	6,7	8,9	8,7	1	1	1	1	1	1	1	1	1	0	1	-4,580691	274,113399	315,532905	0
15.01.2021	20:13:36	0	0	2,485572	1,79025	296,8164	0,138	85,597	0	1016,96	6,8	9	8,7	1	1	1	1	1	1	1	1	1	0	1	-10,570825	274,031438	309,160082	0
15.01.2021	20:13:37	0	0	3,163456	1,8315	296,1108	0,133	85,587	0	1016,88	6,7	9	8,7	1	1	1	1	1	1	1	1	1	0	1	-10,077519	274,161246	310,259641	0
15.01.2021	20:13:38	0	0	2,711534	1,89675	297,234	0,137	85,598	0	1016,98	6,7	9	8,7	1	1	1	1	1	1	1	1	1	0	1	-6,694856	274,061202	313,174983	0
15.01.2021	20:13:39	0	0	2,485572	1,85625	292,9428	0,133	85,593	0	1016,96	6,7	8,9	8,7	1	1	1	1	1	1	1	1	1	0	1	-10,147992	274,213715	310,434464	0
15.01.2021	20:13:40	0	0	3,841339	1,87725	308,0664	0,139	85,589	0	1016,88	6,8	9	8,7	1	1	1	1	1	1	1	1	1	0	1	-9,725159	274,161246	310,612002	0
15.01.2021	20:13:41	0	0	3,050475	1,83825	306,504	0,132	85,593	0	1016,9	6,7	8,9	8,7	1	1	1	1	1	1	1	1	1	0	1	-8,527132	274,024005	311,169083	0
15.01.2021	20:13:42	0	0	4,406242	1,7745	309,1968	0,14	85,596	0	1016,9	6,7	8,9	8,7	1	1	1	1	1	1	1	1	1	0	1	-10,147992	274,174725	310,252168	0
15.01.2021	20:13:43	0	0	2,146631	1,905	306,1548	0,138	85,602	0	1016,94	6,8	8,9	8,7	1	1	1	1	1	1	1	1	1	0	1	-5,285412	274,013602	314,36226	0
15.01.2021	20:13:44	0	0	3,502398	1,94925	315,2736	0,133	85,585	0	1016,84	6,8	8,9	8,7	1	1	1	1	1	1	1	1	1	0	1	-11,346018	274,113399	308,767577	0
15.01.2021	20:13:45	0	0	4,180281	1,98	313,6356	0,138	85,6	0	1016,96	6,7	8,9	8,7	1	1	1	1	1	1	1	1	1	0	1	-10,359408	274,0359	309,392322	0
15.01.2021	20:13:46	0	0	4,406242	1,93575	309,2688	0,137	85,575	0	1016,84	6,7	8,9	8,7	1	1	1	1	1	1	1	1	1	0	1	-10,993658	274,07163	308,924868	0
15.01.2021	20:13:47	0	0	2,824514	1,81725	299,9196	0,137	85,596	0	1016,98	6,7	8,9	8,7	1	1	1	1	1	1	1	1	1	0	1	-13,812544	274,047803	305,994743	0
15.01.2021	20:13:48	0	0	3,615378	1,758	309,906	0,131	85,586	0	1016,84	6,8	8,9	8,7	1	1	1	1	1	1	1	1	1	0	1	-9,513742	274,137308	310,711552	0
15.01.2021	20:13:49	0	0	5,310087	1,79175	301,5864	0,137	85,593	0	1016,92	6,8	8,8	8,7	1	1	1	1	1	1	1	1	1	0	1	-8,386187	274,170231	311,992966	0
15.01.2021	20:13:50	0	0	4,406242	1,8585	307,5984	0,135	85,602	0	1016,82	6,8	9	8,7	1	1	1	1	1	1	1	1	1	0	1	-11,980268	274,049291	307,833967	0
15.01.2021	20:13:51	0	0	4,406242	1,84275	307,6164	0,128	85,593	0	1016,94	6,7	8,9	8,7	1	1	1	1	1	1	1	1	1	0	1	-6,553911	274,155259	313,755267	0
15.01.2021	20:13:52	0	0	2,598553	1,82325	305,7228	0,133	85,58	0	1016,82	6,7	9	8,7	1	1	1	1	1	1	1	1	1	0	1	-13,6716	274,050779	306,149583	0
15.01.2021	20:13:53	0	0	2,711534	1,78425	307,2024	0,133	85,606	0	1016,9	6,7	8,9	8,7	1	1	1	1	1	1	1	1	1	0	1	-8,45666	274,096979	311,58024	0
15.01.2021	20:13:54	0	0	4,519223	1,75875	303,1884	0,132	85,59	0	1016,92	6,7	8,9	8,7	1	1	1	1	1	1	1	1	1	0	1	-8,597604	274,186713	311,858599	0
15.01.2021	20:13:55	0	0	3,615378	1,68975	298,3032	0,134	85,603	0	1016,82	6,7	8,9	8,7	1	1	1	1	1	1	1	1	1	0	1	-6,976744	274,0359	312,774986	0
15.01.2021	20:13:56	0	0	2,824514	1,69575	300,4344	0,133	85,603	0	1017,06	6,7	9	8,7	1	1	1	1	1	1	1	1	1	0	1	-8,527132	274,07312	311,398352	0
15.01.2021	20:13:57	0	0	4,406242	1,632	289,5876	0,131	85,607	0	1016,9	6,7	8,9	8,7	1	1	1	1	1	1	1	1	1	0	1	-7,399577	274,050779	312,421606	0
15.01.2021	20:13:58	0	0	5,084125	1,58475	289,5912	0,133	85,6	0	1017,06	6,7	9	8,7	1	1	1	1	1	1	1	1	1	0	1	-8,033827	274,210713	312,534591	0
15.01.2021	20:13:59	0	0	3,728359	1,53675	303,1848	0,127	85,588	0	1016,84	6,7	8,9	8,7	1	1	1	1	1	1	1	1	1	0	1	-6,483439	274,147777	313,790776	0
15.01.2021	20:14:00	0	0	3,615378	1,51275	291,5964	0,138	85,602	0	1017	6,8	9	8,7	1	1	1	1	1	1	1	1	1	0	1	-6,976744	274,138803	313,255536	0
15.01.2021	20:14:01	0	0	3,615378	1,51275	291,5964	0,138	85,602	0	1017	6,8	9	8,7	1	1	1	1	1	1	1	1	1	0	1	-7,329105	274,19571	313,169158	0
15.01.2021	20:14:02	0	0	4,858164	1,52025	300,4704	0,129	85,588	0	1016,86	6,7	8,9	8,7	1	1	1	1	1	1	1	1	1	0	1	-9,936575	274,077591	310,009786	0
15.01.2021	20:14:03	0	0	4,519223	1,5465	303,8832	0,135	85,597	0	1016,9	6,8	8,9	8,7	1	1	1	1	1	1	1	1	1	0	1	-6,976744	274,185214	313,472451	0
15.01.2021	20:14:04	0	0	3,163456	1,575	300,168	0,13	85,59	0	1016,88	6,7	8,8	8,7	1	1	1	1	1	1	1	1	1	0	1	-14,164905	274,047803	305,642382	0
15.01.2021	20:14:05	0	0	2,598553	1,64475	306,9504	0,139	85,595	0	1016,88	6,7	9	8,7	1	1	1	1	1	1	1	1	1	0	1	-13,03735	274,016574	306,624188	0
15.01.2021	20:14:06	0	0	3,050475	1,716	296,0496	0,134	85,592	0	1016,9	6,7	9	8,7	1	1	1	1	1	1	1	1	1	0	1	-12,966878	274,116386	307,16067	0
15.01.2021	20:14:07	0	0	3,389417	1,74675	301,14	0,135	85,597	0	1016,8	6,7	8,9	8,7	1	1	1	1	1	1	1	1	1	0	1	-9,372798	274,019546	310,302609	0
15.01.2021	20:14:08	0	0	4,406242	1,82625	294,8868	0,132	85,593	0	1016,84	6,8	8,9	8,7	1	1	1	1	1	1	1	1	1	0	1	-11,557435	274,07163	308,361091	0
15.01.2021	20:14:09	0	0	2,598553	1,97025	300,1788	0,138	85,605	0	1016,98	6,7	9	8,7	1	1	1	1	1	1	1	1	1	0	1	-7,329105	274,20021	313,190198	0
15.01.2021	20:14:10	0	0	4,971145	1,96425	306,1224	0,132	85,587	0	1016,82	6,7	9	8,7	1	1	1	1	1	1	1	1	1	0	1	-14,094433	274,152266	306,200758	0
15.01.2021	20:14:11	0	0	2,711534	1,9005	320,2488	0,127	85,585	0	1016,94	6,7	9	8,7	1	1	1	1	1	1	1	1	1	0	1	-8,597604	274,19571	311,900659	0
15.01.2021	20:14:12	0	0	3,841339	1,83375	319,5432	0,136	85,593	0	1016,9	6,7	9	8,7	1	1	1	1	1	1	1	1	1	0	1	-9,936575	274,050779	309,884608	0
15.01.2021	20:14:13	0	0	4,971145	1,74075	315,45	0,136	85,58	0	1016,96	6,7	8,9	8,7	1	1	1	1	1	1	1	1	1	0	1	-8,80902	274,20021	311,710282	0
15.01.2021	20:14:14	0	0	3,502398	1,80075	323,3304	0,13	85,583	0	1016,8	6,8	9	8,7	1	1	1	1	1	1	1	1	1	0	1	-10,500352	274,032925	309,237495	0
15.01.2021	20:14:15	0	0	4,632203	1,95	310,59	0,134	85,582	0	1016,94	6,7	9	8,7	1	1	1	1	1	1	1	1	1	0	1	-11,698379	274,0359	308,053351	0
15.01.2021	20:14:16	0	0	2,03365	1,97475	309,2472	0,129	85,585	0	1017,06	6,7	9	8,7	1	1	1	1	1	1	1	1	1	0	1	-9,231853	274,140298	311,007414	0
15.01.2021	20:14:17	0	0	4,180281	1,9395	308,106	0,133	85,585	0	1016,96	6,7	9	8,7	1	1	1	1	1	1	1	1	1	0	1	-7,329105	274,168733	313,043048	0
15.01.2021	20:14:18	0	0	3,502398	1,9815	307,1556	0,129	85,575	0	1016,92	6,7	9	8,7	1	1	1	1	1	1	1	1	1	0	1	-9,161381	274,20171	311,364936	0
15.01.2021	20:14:19	0	0	2,937495	2,02875	317,7612	0,129	85,585	0	1016,78	6,7	9	8,7	1	1	1	1	1	1	1	1	1	0	1	-5,567301	274,052268	314,260831	0
15.01.2021	20:14:20	0	0	5,423067	2,13225	299,016	0,134	85,583	0	1017	6,7	8,9	8,7	1	1	1	1	1	1	1	1	1	0	1	-12,473573	274,083555	307,500635	0
15.01.2021	20:14:21	0	0	4,519223	2,31825	310,9572	0,134	85,585	0	1016,92	6,7	9	8,7	1	1	1	1	1	1	1	1	1	0	1	-8,597604	274,032925	311,140243	0
15.01.2021	20:14:22	0	0	3,841339	2,36775	309,5208	0,13	85,573	0	1016,96	6,8	9	8,7	1	1	1	1	1	1	1	1	1	0	1	-10,923185	274,06865	308,981426	0
15.01.2021	20:14:23	0	0	2,598553	2,2755	305,8092	0,133	85,582	0	1017,02	6,7	9	8,7	1	1	1	1	1	1	1	1	1	0	1	-10,782241	274,026978	308,927849	0
15.01.2021	20:14:24	0	0	3,95432	2,1375	304,2396	0,125	85,58	0	1016,78	6,7	9	8,7	1	1	1	1	1	1	1	1	1	0	1	-9,090909	274,105934	310,987815	0
15.01.2021	20:14:25	0	0	4,519223	2,09625	307,1664	0,132	85,569	0	1016,96	6,7	9	8,7	1	1	1	1	1	1	1	1	1	0	1	-13,530655	274,189712	306,939565	0
15.01.2021	20:14:26	0	0	5,084125	2,15475	295,524	0,131	85,57	0	1016,84	6,7	9	8,7	1	1	1	1	1	1	1	1	1	0	1	-9,725159	274,098471	310,31871	0
15.01.2021	20:14:27	0	0	2,711534	2,29275	290,1384	0,13	85,597	0	1016,9	6,7	9	8,7	1	1	1	1	1	1	1	1	1	0	1	-8,949965	274,206211	311,597399	0
15.01.2021	20:14:28	0	0	4,180281	2,36325	306,3708	0,137	85,579	0	1016,78	6,8	8,9	8,7	1	1	1	1	1	1	1	1	1	0	1	-11,909796	274,111906	308,196824	0
15.01.2021	20:14:29	0	0	4,745184	2,4495	310,9716	0,132	85,554	0	1016,94	6,7	9	8,7	1	1	1	1	1	1	1	1	1	0	1	-3,453136	274,021032	316,229206	0
15.01.2021	20:14:30	0	0	4,858164	2,3895	309,2436	0,131	85,569	0	1017	6,8	8,9	8,7	1	1	1	1	1	1	1	1	1	0	1	-13,248767	274,141794	306,997489	0
15.01.2021	20:14:31	0	0	3,389417	2,4315	307,7352	0,136	85,587	0	1016,94	6,7	8,8	8,7	1	1	1	1	1	1	1	1	1	0	1	-11,275546	274,19871	309,236743	0
15.01.2021	20:14:32	0	0	2,937495	2,52975	303,9516	0,13	85,582	0	1016,76	6,7	9	8,7	1	1	1	1	1	1	1	1	1	0	1	-8,386187	274,14329	311,867057	0
15.01.2021	20:14:33	0	0	4,519223	2,5455	305,7444	0,13	85,564	0	1017,06	6,7	9	8,7	1	1	1	1	1	1	1	1	1	0	1	-5,144468	274,028464	314,57256	0
15.01.2021	20:14:34	0	0	2,937495	2,6865	297,954	0,132	85,578	0	1016,92	6,7	8,8	8,7	1	1	1	1	1	1	1	1	1	0	1	-13,601128	274,186713	306,855075	0
15.01.2021	20:14:35	0	0	3,389417	2,81625	293,6952	0,13	85,559	0	1016,86	6,7	8,8	8,7	1	1	1	1	1	1	1	1	1	0	1	-12,403101	274,074611	307,529342	0
15.01.2021	20:14:36	0	0	4,745184	2,85675	296,4852	0,126	85,555	0	1016,84	6,7	8,9	8,7	1	1	1	1	1	1	1	1	1	0	1	-13,530655	274,040363	306,241904	0
15.01.2021	20:14:37	0	0	3,050475	2,739	298,9728	0,133	85,576	0	1016,88	6,7	9	8,7	1	1	1	1	1	1	1	1	1	0	1	-10,782241	274,158252	309,540927	0
15.01.2021	20:14:38	0	0	2,937495	2,54475	313,8012	0,128	85,569	0	1016,84	6,7	9	8,7	1	1	1	1	1	1	1	1	1	0	1	-10,359408	274,015088	309,295197	0
15.01.2021	20:14:39	0	0	5,084125	2,57175	316,6668	0,128	85,561	0	1016,9	6,7	9	8,7	1	1	1	1	1	1	1	1	1	0	1	-10,359408	274,171729	310,026747	0
15.01.2021	20:14:40	0	0	3,389417	2,469	307,5948	0,132	85,57	0	1017,04	6,7	9	8,7	1	1	1	1	1	1	1	1	1	0	1	-13,6716	274,032925	306,066248	0
15.01.2021	20:14:41	0	0	4,519223	2,3865	293,4144	0,127	85,55	0	1016,76	6,7	9	8,7	1	1	1	1	1	1	1	1	1	0	1	-10,007047	274,119373	310,134457	0
15.01.2021	20:14:42	0	0	3,050475	2,45175	297,2736	0,127	85,578	0	1016,9	6,7	9	8,7	1	1	1	1	1	1	1	1	1	0	1	-5,778717	274,034413	313,966071	0
15.01.2021	20:14:43	0	0	4,858135	2,4045	301,2696	0,136	85,566	0	1016,94	6,7	9	8,8	1	1	1	1	1	1	1	1	1	0	1	-10,711769	274,138803	309,520512	0
15.01.2021	20:14:44	0	0	3,615378	2,43975	300,4596	0,126	85,566	0	1016,96	6,7	8,9	8,7	1	1	1	1	1	1	1	1	1	0	1	-11,909796	274,19571	308,588468	0
15.01.2021	20:14:45	0	0	4,519223	2,4645	298,2384	0,134	85,572	0	1016,9	6,7	8,9	8,7	1	1	1	1	1	1	1	1	1	0	1	-11,06413	274,091012	308,9449	0
15.01.2021	20:14:46	0	0	4,293261	2,391	280,6704	0,129	85,579	0	1016,76	6,7	8,8	8,7	1	1	1	1	1	1	1	1	1	0	1	-9,231853	274,19421	311,259398	0
15.01.2021	20:14:47	0	0	4,858164	2,28525	288,3816	0,124	85,56	0	1016,82	6,7	9	8,7	1	1	1	1	1	1	1	1	1	0	1	-13,460183	274,091012	306,548847	0
15.01.2021	20:14:48	0	0	3,728359	2,25825	295,5456	0,133	85,563	0	1016,94	6,7	9	8,7	1	1	1	1	1	1	1	1	1	0	1	-7,681466	274,016574	311,980073	0
15.01.2021	20:14:49	0	0	4,293261	2,259	298,9944	0,125	85,551	0	1016,8	6,7	8,8	8,7	1	1	1	1	1	1	1	1	1	0	1	-11,980268	274,140298	308,259	0
15.01.2021	20:14:50	0	0	2,824514	2,28225	297,3276	0,13	85,562	0	1016,98	6,7	8,9	8,7	1	1	1	1	1	1	1	1	1	0	1	-11,134602	274,01806	308,533871	0
15.01.2021	20:14:51	0	0	4,406242	2,39175	300,87	0,125	85,553	0	1016,88	6,7	9	8,7	1	1	1	1	1	1	1	1	1	0	1	-12,262156	274,049291	307,552078	0
15.01.2021	20:14:52	0	0	3,841339	2,4255	292,2192	0,126	85,561	0	1016,76	6,7	9	8,7	1	1	1	1	1	1	1	1	1	0	1	-9,654686	274,029951	310,069281	0
15.01.2021	20:14:53	0	0	4,0673	2,2965	302,0868	0,129	85,565	0	1016,98	6,7	9	8,7	1	1	1	1	1	1	1	1	1	0	1	-6,8358	274,012117	312,804941	0
15.01.2021	20:14:54	0	0	4,406242	2,02275	321,372	0,132	85,563	0	1016,84	6,7	8,9	8,7	1	1	1	1	1	1	1	1	1	0	1	-13,03735	274,08952	306,964714	0
15.01.2021	20:14:55	0	0	4,745184	2,1585	315,4788	0,127	85,564	0	1016,78	6,7	8,9	8,7	1	1	1	1	1	1	1	1	1	0	1	-10,923185	274,191211	309,554045	0
15.01.2021	20:14:56	0	0	3,728359	2,3895	316,962	0,122	85,54	0	1016,78	6,7	9	8,7	1	1	1	1	1	1	1	1	1	0	1	-7,399577	274,07312	312,525907	0
15.01.2021	20:14:57	0	0	4,519223	2,4435	311,4468	0,123	85,548	0	1016,76	6,7	9	8,7	1	1	1	1	1	1	1	1	1	0	1	-8,245243	274,210713	312,323174	0
15.01.2021	20:14:58	0	0	3,615378	2,52075	308,0232	0,126	85,561	0	1016,84	6,7	9	8,7	1	1	1	1	1	1	1	1	1	0	1	-10,570825	274,088029	309,424275	0
15.01.2021	20:14:59	0	0	3,502398	2,511	315,4752	0,129	85,556	0	1016,94	6,7	9	8,7	1	1	1	1	1	1	1	1	1	0	1	-7,82241	274,055245	312,019621	0
15.01.2021	20:15:00	0	0	4,519223	2,50425	316,296	0,145	85,565	0	1016,78	6,7	9	8,7	1	1	1	1	1	1	1	1	1	0	1	-9,302326	274,021032	310,380017	0
15.01.2021	20:15:01	0	0	3,050475	2,55825	295,1748	0,131	85,552	0	1016,92	6,7	9	8,7	1	1	1	1	1	1	1	1	1	0	1	-8,174771	274,140298	312,064497	0
15.01.2021	20:15:02	0	0	4,180281	2,5275	298,2744	0,13	85,547	0	1016,92	6,7	9	8,7	1	1	1	1	1	1	1	1	1	0	1	-6,765328	274,189712	313,704893	0
15.01.2021	20:15:03	0	0	2,485572	2,38125	291,8952	0,128	85,535	0	1016,68	6,7	9	8,7	1	1	1	1	1	1	1	1	1	0	1	-10,288936	274,064181	309,59481	0
15.01.2021	20:15:04	0	0	4,745184	2,4645	290,8116	0,127	85,544	0	1016,78	6,7	9	8,7	1	1	1	1	1	1	1	1	1	0	1	-9,090909	274,20021	311,428394	0
15.01.2021	20:15:05	0	0	2,824514	2,45325	306,828	0,129	85,547	0	1016,9	6,7	9	8,7	1	1	1	1	1	1	1	1	1	0	1	-8,315715	274,101456	311,742094	0
15.01.2021	20:15:06	0	0	2,711534	2,337	308,88	0,124	85,546	0	1017,02	6,7	9	8,7	1	1	1	1	1	1	1	1	1	0	1	-7,117689	274,015088	312,536917	0
15.01.2021	20:15:07	0	0	4,632203	2,21175	306,4608	0,129	85,553	0	1016,96	6,7	8,8	8,7	1	1	1	1	1	1	1	1	1	0	1	-12,966878	274,170231	307,412275	0
15.01.2021	20:15:08	0	0	2,711534	2,26425	311,814	0,127	85,554	0	1016,82	6,7	8,9	8,7	1	1	1	1	1	1	1	1	1	0	1	-8,879493	274,024005	310,816722	0
15.01.2021	20:15:09	0	0	2,937495	2,235	316,62	0,133	85,556	0	1016,84	6,7	9	8,7	1	1	1	1	1	1	1	1	1	0	1	-9,302326	274,064181	310,58142	0
15.01.2021	20:15:10	0	0	3,163456	2,18025	321,8292	0,135	85,562	0	1016,98	6,7	9	8,7	1	1	1	1	1	1	1	1	1	0	1	-8,80902	274,173227	311,584136	0
15.01.2021	20:15:11	0	0	3,389417	2,097	304,2288	0,126	85,549	0	1016,86	6,7	8,8	8,7	1	1	1	1	1	1	1	1	1	0	1	-8,45666	274,105934	311,622064	0
15.01.2021	20:15:12	0	0	4,0673	2,058	303,9444	0,133	85,543	0	1016,86	6,7	9	8,7	1	1	1	1	1	1	1	1	1	0	1	-7,540521	274,019546	312,134885	0
15.01.2021	20:15:13	0	0	3,276436	2,16675	314,046	0,124	85,545	0	1016,88	6,7	9	8,7	1	1	1	1	1	1	1	1	1	0	1	-9,725159	274,06567	310,165542	0
15.01.2021	20:15:14	0	0	4,632203	2,13525	307,5588	0,129	85,544	0	1016,78	6,7	9	8,7	1	1	1	1	1	1	1	1	1	0	1	-11,486963	274,003205	308,1122	0
15.01.2021	20:15:15	0	0	4,858164	2,07225	310,9968	0,121	85,546	0	1016,82	6,7	9	8,7	1	1	1	1	1	1	1	1	1	0	1	-12,403101	274,135813	307,815207	0
15.01.2021	20:15:16	0	0	4,406242	1,98	308,9376	0,127	85,554	0	1016,86	6,7	9	8,7	1	1	1	1	1	1	1	1	1	0	1	-8,386187	274,034413	311,358601	0
15.01.2021	20:15:17	0	0	3,050475	1,9485	307,1448	0,125	85,543	0	1016,76	6,7	9	8,7	1	1	1	1	1	1	1	1	1	0	1	-9,513742	274,07163	310,404784	0
15.01.2021	20:15:18	0	0	3,728359	1,8885	303,2244	0,129	85,568	0	1016,9	6,7	9	8,7	1	1	1	1	1	1	1	1	1	0	1	-8,949965	274,191211	311,527265	0
15.01.2021	20:15:19	0	0	2,598553	1,9785	298,6344	0,122	85,551	0	1016,92	6,7	9	8,7	1	1	1	1	1	1	1	1	1	0	1	-12,684989	274,049291	307,129245	0
15.01.2021	20:15:20	0	0	3,050475	2,12925	301,5036	0,127	85,553	0	1016,84	6,7	8,9	8,7	1	1	1	1	1	1	1	1	1	0	1	-8,386187	274,07014	311,525381	0
15.01.2021	20:15:21	0	0	4,406242	2,172	288,432	0,125	85,553	0	1017	6,7	9	8,7	1	1	1	1	1	1	1	1	1	0	1	-8,527132	274,168733	311,845021	0
15.01.2021	20:15:22	0	0	2,824514	2,06625	296,8884	0,129	85,56	0	1016,84	6,7	9	8,7	1	1	1	1	1	1	1	1	1	0	1	-12,614517	274,07312	307,310966	0
15.01.2021	20:15:23	0	0	2,937495	1,932	304,992	0,125	85,539	0	1016,74	6,7	8,9	8,7	1	1	1	1	1	1	1	1	1	0	1	-11,557435	274,152266	308,737756	0
15.01.2021	20:15:24	0	0	4,971145	1,90275	295,686	0,126	85,557	0	1016,8	6,7	9	8,7	1	1	1	1	1	1	1	1	1	0	1	-5,990134	274,040363	313,782425	0
15.01.2021	20:15:25	0	0	4,0673	2,06025	303,534	0,12	85,548	0	1016,82	6,7	8,8	8,7	1	1	1	1	1	1	1	1	1	0	1	-9,090909	274,15077	311,197289	0
15.01.2021	20:15:26	0	0	2,03365	2,17275	289,7352	0,127	85,56	0	1016,96	6,7	9	8,7	1	1	1	1	1	1	1	1	1	0	1	-7,047216	274,029951	312,676751	0
15.01.2021	20:15:27	0	0	2,824514	2,25225	312,4404	0,124	85,546	0	1016,94	6,7	8,8	8,7	1	1	1	1	1	1	1	1	1	0	1	-7,188161	274,050779	312,633022	0
15.01.2021	20:15:28	0	0	3,050475	2,343	306,1296	0,124	85,555	0	1016,96	6,8	8,8	8,7	1	1	1	1	1	1	1	1	1	0	1	-8,104299	274,19871	312,40799	0
15.01.2021	20:15:29	0	0	3,050475	2,3115	304,9452	0,125	85,555	0	1016,94	6,7	8,8	8,7	1	1	1	1	1	1	1	1	1	0	1	-8,949965	274,043338	310,836483	0
15.01.2021	20:15:30	0	0	4,632203	2,3115	306,702	0,122	85,554	0	1017	6,7	8,8	8,7	1	1	1	1	1	1	1	1	1	0	1	-12,191684	274,15077	308,096514	0
15.01.2021	20:15:31	0	0	3,389417	2,29125	298,6812	0,13	85,555	0	1016,72	6,7	9	8,7	1	1	1	1	1	1	1	1	1	0	1	-8,668076	274,19571	311,830187	0
15.01.2021	20:15:32	0	0	3,841339	2,2845	303,9408	0,126	85,557	0	1016,9	6,7	8,9	8,7	1	1	1	1	1	1	1	1	1	0	1	-6,272023	274,085046	313,709148	0
15.01.2021	20:15:33	0	0	3,615378	2,223	309,474	0,121	85,548	0	1016,92	6,7	9	8,7	1	1	1	1	1	1	1	1	1	0	1	-11,134602	274,19421	309,35665	0
15.01.2021	20:15:34	0	0	3,276436	2,18475	305,8272	0,125	85,544	0	1016,88	6,7	8,8	8,7	1	1	1	1	1	1	1	1	1	0	1	-9,725159	274,144785	310,535075	0
15.01.2021	20:15:35	0	0	4,858164	2,136	312,1308	0,123	85,554	0	1016,88	6,7	8,8	8,7	1	1	1	1	1	1	1	1	1	0	1	-12,544045	274,19871	307,968244	0
15.01.2021	20:15:36	0	0	4,858164	2,01675	313,2432	0,126	85,551	0	1016,84	6,8	8,8	8,7	1	1	1	1	1	1	1	1	1	0	1	-8,315715	274,083555	311,658492	0
15.01.2021	20:15:37	0	0	4,632203	1,97625	312,1488	0,128	85,562	0	1016,82	6,7	8,8	8,7	1	1	1	1	1	1	1	1	1	0	1	-12,614517	274,19571	307,883746	0
15.01.2021	20:15:38	0	0	2,711534	1,9965	309,5892	0,129	85,555	0	1016,9	6,7	8,8	8,7	1	1	1	1	1	1	1	1	1	0	1	-9,795631	274,06865	310,108981	0
15.01.2021	20:15:39	0	0	2,598553	2,06025	307,5732	0,129	85,551	0	1016,92	6,7	8,8	8,7	1	1	1	1	1	1	1	1	1	0	1	-8,738548	274,038875	311,027067	0
15.01.2021	20:15:40	0	0	4,745184	2,11425	307,5192	0,123	85,553	0	1016,84	6,7	9	8,7	1	1	1	1	1	1	1	1	1	0	1	-8,386187	274,056734	311,462795	0
15.01.2021	20:15:41	0	0	2,937495	2,1465	294,48	0,124	85,555	0	1016,92	6,7	8,8	8,7	1	1	1	1	1	1	1	1	1	0	1	-7,188161	274,022518	312,501117	0
15.01.2021	20:15:42	0	0	3,841339	2,22825	310,7484	0,123	85,564	0	1016,96	6,7	9	8,7	1	1	1	1	1	1	1	1	1	0	1	-10,218464	274,040363	309,554095	0
15.01.2021	20:15:43	0	0	4,519223	2,301	303,8112	0,127	85,545	0	1016,9	6,7	9	8,7	1	1	1	1	1	1	1	1	1	0	1	-11,839323	274,140298	308,399944	0
15.01.2021	20:15:44	0	0	4,519223	2,33925	300,4272	0,124	85,55	0	1016,88	6,7	8,9	8,7	1	1	1	1	1	1	1	1	1	0	1	-8,527132	274,024005	311,169083	0
15.01.2021	20:15:45	0	0	3,276436	2,397	299,7432	0,114	85,543	0	1016,92	6,7	8,9	8,7	1	1	1	1	1	1	1	1	1	0	1	-9,725159	274,134318	310,486164	0
15.01.2021	20:15:46	0	0	2,824514	2,3745	296,856	0,114	85,542	0	1016,78	6,7	9	8,7	1	1	1	1	1	1	1	1	1	0	1	-4,439746	274,013602	315,207926	0
15.01.2021	20:15:47	0	0	4,406242	2,2755	294,0516	0,119	85,556	0	1016,92	6,7	9	8,7	1	1	1	1	1	1	1	1	1	0	1	-9,795631	274,092503	310,220366	0
15.01.2021	20:15:48	0	0	4,293261	2,169	295,1676	0,127	85,547	0	1016,84	6,7	9	8,7	1	1	1	1	1	1	1	1	1	0	1	-10,077519	274,025491	309,625632	0
15.01.2021	20:15:49	0	0	4,745184	2,0775	289,1988	0,116	85,55	0	1016,82	6,7	9	8,7	1	1	1	1	1	1	1	1	1	0	1	-9,020437	274,161246	311,316723	0
15.01.2021	20:15:50	0	0	3,389417	2,00025	302,8212	0,127	85,556	0	1016,98	6,7	8,8	8,7	1	1	1	1	1	1	1	1	1	0	1	-10,147992	274,07312	309,777492	0
15.01.2021	20:15:51	0	0	4,632203	1,98825	295,1388	0,123	85,548	0	1016,86	6,7	8,9	8,7	1	1	1	1	1	1	1	1	1	0	1	-11,909796	274,161246	308,427365	0
15.01.2021	20:15:52	0	0	4,632203	1,947	306,1872	0,124	85,544	0	1016,94	6,7	9	8,7	1	1	1	1	1	1	1	1	1	0	1	-8,315715	274,088029	311,679384	0
15.01.2021	20:15:53	0	0	2,937495	1,88475	297,9756	0,123	85,555	0	1017	6,7	8,9	8,7	1	1	1	1	1	1	1	1	1	0	1	-8,45666	274,012117	311,184081	0
15.01.2021	20:15:54	0	0	4,519223	1,8465	282,42	0,123	85,546	0	1017	6,7	8,8	8,7	1	1	1	1	1	1	1	1	1	0	1	-8,315715	274,080573	311,644568	0
15.01.2021	20:15:55	0	0	3,502398	1,8405	295,5564	0,121	85,547	0	1016,88	6,7	9	8,7	1	1	1	1	1	1	1	1	1	0	1	-12,544045	274,192711	307,940196	0
15.01.2021	20:15:56	0	0	3,163456	1,872	272,4732	0,122	85,538	0	1016,66	6,7	9	8,7	1	1	1	1	1	1	1	1	1	0	1	-7,610994	274,064181	312,272752	0
15.01.2021	20:15:57	0	0	3,163456	1,99725	296,0568	0,125	85,547	0	1016,8	6,7	9	8,7	1	1	1	1	1	1	1	1	1	0	1	-9,654686	274,013602	309,992986	0
15.01.2021	20:15:58	0	0	3,050475	2,094	285,8796	0,124	85,552	0	1016,96	6,7	8,8	8,7	1	1	1	1	1	1	1	1	1	0	1	-8,879493	274,091012	311,129537	0
15.01.2021	20:15:59	0	0	2,711534	2,166	280,7136	0,121	85,546	0	1016,88	6,7	9	8,7	1	1	1	1	1	1	1	1	1	0	1	-14,094433	274,032925	305,643415	0
15.01.2021	20:16:00	0	0	4,519223	2,16525	293,6844	0,123	85,533	0	1016,88	6,7	8,8	8,7	1	1	1	1	1	1	1	1	1	0	1	-8,527132	274,104441	311,54462	0
15.01.2021	20:16:01	0	0	4,0673	2,26425	293,3676	0,128	85,55	0	1016,98	6,7	9	8,7	1	1	1	1	1	1	1	1	1	0	1	-10,641297	274,026978	309,068793	0
15.01.2021	20:16:02	0	0	4,406242	2,17725	297,18	0,124	85,554	0	1016,94	6,7	9	8,7	1	1	1	1	1	1	1	1	1	0	1	-7,399577	274,06567	312,491123	0
15.01.2021	20:16:03	0	0	2,937495	2,05425	308,5596	0,12	85,544	0	1016,98	6,7	8,8	8,7	1	1	1	1	1	1	1	1	1	0	1	-8,879493	274,206211	311,667872	0
15.01.2021	20:16:04	0	0	4,632203	2,00775	295,3152	0,123	85,552	0	1016,94	6,7	9	8,7	1	1	1	1	1	1	1	1	1	0	1	-11,134602	274,047803	308,672685	0
15.01.2021	20:16:05	0	0	4,406242	2,07375	303,516	0,123	85,56	0	1016,66	6,7	9	8,7	1	1	1	1	1	1	1	1	1	0	1	-12,896406	274,114893	307,224166	0
15.01.2021	20:16:06	0	0	2,711534	2,0385	318,4524	0,121	85,563	0	1017	6,7	9	8,7	1	1	1	1	1	1	1	1	1	0	1	-9,090909	274,192711	311,393332	0
15.01.2021	20:16:07	0	0	2,03365	1,93875	304,6392	0,118	85,546	0	1016,92	6,7	8,8	8,7	1	1	1	1	1	1	1	1	1	0	1	-6,20155	274,052268	313,626581	0
15.01.2021	20:16:08	0	0	2,937495	2,05425	319,5396	0,123	85,56	0	1016,9	6,7	8,8	8,7	1	1	1	1	1	1	1	1	1	0	1	-8,668076	274,029951	311,055891	0
15.01.2021	20:16:09	0	0	3,050475	2,09775	316,9584	0,123	85,552	0	1016,84	6,7	9	8,7	1	1	1	1	1	1	1	1	1	0	1	-10,42988	274,037387	309,328792	0
15.01.2021	20:16:10	0	0	2,711534	2,10525	316,9908	0,119	85,567	0	1016,96	6,7	9	8,7	1	1	1	1	1	1	1	1	1	0	1	-7,258633	274,086537	312,729502	0
15.01.2021	20:16:11	0	0	4,971145	1,9995	314,4636	0,123	85,565	0	1017,06	6,7	9	8,7	1	1	1	1	1	1	1	1	1	0	1	-10,147992	274,188213	310,31522	0
15.01.2021	20:16:12	0	0	4,180281	1,92975	310,6404	0,115	85,558	0	1016,96	6,7	9	8,7	1	1	1	1	1	1	1	1	1	0	1	-10,359408	274,086537	309,628727	0
15.01.2021	20:16:13	0	0	2,711534	1,97325	310,6836	0,119	85,565	0	1016,78	6,7	9	8,7	1	1	1	1	1	1	1	1	1	0	1	-8,597604	274,031438	311,133303	0
15.01.2021	20:16:14	0	0	3,728359	2,10825	309,4632	0,123	85,559	0	1016,98	6,7	8,8	8,7	1	1	1	1	1	1	1	1	1	0	1	-12,755462	274,132823	307,448876	0
15.01.2021	20:16:15	0	0	3,502398	2,415	298,6416	0,125	85,562	0	1017,02	6,8	8,8	8,7	1	1	1	1	1	1	1	1	1	0	1	-14,65821	274,20171	305,868107	0
15.01.2021	20:16:16	0	0	4,745184	2,65275	297,2376	0,121	85,556	0	1016,94	6,7	8,8	8,7	1	1	1	1	1	1	1	1	1	0	1	-8,80902	274,14329	311,444224	0
15.01.2021	20:16:17	0	0	2,372592	2,6175	303,4404	0,119	85,562	0	1016,88	6,7	9	8,7	1	1	1	1	1	1	1	1	1	0	1	-9,302326	274,15077	310,985872	0
15.01.2021	20:16:18	0	0	5,197106	2,70375	297,198	0,119	85,563	0	1016,94	6,7	8,8	8,7	1	1	1	1	1	1	1	1	1	0	1	-8,738548	274,20021	311,780754	0
15.01.2021	20:16:19	0	0	4,858164	2,91075	306,8568	0,125	85,569	0	1016,86	6,7	8,8	8,7	1	1	1	1	1	1	1	1	1	0	1	-5,919662	274,20321	314,61367	0
15.01.2021	20:16:20	0	0	2,937495	3,01875	307,566	0,124	85,568	0	1016,92	6,7	8,8	8,7	1	1	1	1	1	1	1	1	1	0	1	-10,570825	274,08952	309,43124	0
15.01.2021	20:16:21	0	0	2,711534	3,07725	299,736	0,119	85,558	0	1016,8	6,7	8,8	8,7	1	1	1	1	1	1	1	1	1	0	1	-5,355884	274,04185	314,423619	0
15.01.2021	20:16:22	0	0	2,485572	3,066	291,168	0,125	85,565	0	1017,08	6,7	8,8	8,7	1	1	1	1	1	1	1	1	1	0	1	-9,795631	274,19721	310,709645	0
15.01.2021	20:16:23	0	0	3,163456	3,0615	297,5868	0,123	85,563	0	1016,92	6,7	8,9	8,7	1	1	1	1	1	1	1	1	1	0	1	-6,906272	274,162743	313,437885	0
15.01.2021	20:16:24	0	0	3,389417	3,1695	300,3984	0,115	85,55	0	1016,68	6,7	8,8	8,7	1	1	1	1	1	1	1	1	1	0	1	-10,782241	274,155259	309,526937	0
15.01.2021	20:16:25	0	0	2,598553	3,20475	297,5076	0,124	85,575	0	1016,92	6,7	8,8	8,7	1	1	1	1	1	1	1	1	1	0	1	-10,359408	274,206211	310,187956	0
15.01.2021	20:16:26	0	0	4,406242	3,16725	300,2292	0,118	85,551	0	1016,64	6,7	9	8,7	1	1	1	1	1	1	1	1	1	0	1	-13,6716	274,165738	306,686554	0
15.01.2021	20:16:27	0	0	3,050475	3,0795	292,2516	0,122	85,534	0	1016,88	6,7	9	8,7	1	1	1	1	1	1	1	1	1	0	1	-7,047216	274,06567	312,843484	0
15.01.2021	20:16:28	0	0	3,502398	2,979	298,692	0,125	85,552	0	1017,04	6,7	8,9	8,7	1	1	1	1	1	1	1	1	1	0	1	-9,302326	274,191211	311,174905	0
15.01.2021	20:16:29	0	0	2,824514	2,89725	300,186	0,126	85,563	0	1016,86	6,7	9	8,7	1	1	1	1	1	1	1	1	1	0	1	-7,258633	274,049291	312,555602	0
15.01.2021	20:16:30	0	0	3,615378	2,73825	298,26	0,124	85,574	0	1016,92	6,7	8,8	8,7	1	1	1	1	1	1	1	1	1	0	1	-10,570825	274,146281	309,696399	0
15.01.2021	20:16:31	0	0	4,745184	2,7045	306,1656	0,118	85,568	0	1016,9	6,7	8,8	8,7	1	1	1	1	1	1	1	1	1	0	1	-8,45666	274,064181	311,427086	0
15.01.2021	20:16:32	0	0	2,598553	2,66025	302,526	0,126	85,561	0	1016,88	6,7	9	8,7	1	1	1	1	1	1	1	1	1	0	1	-9,161381	274,07014	310,750187	0
15.01.2021	20:16:33	0	0	3,615378	2,60625	304,6824	0,127	85,568	0	1016,92	6,7	9	8,7	1	1	1	1	1	1	1	1	1	0	1	-5,426357	274,038875	314,339259	0
15.01.2021	20:16:34	0	0	4,180281	2,535	312,4764	0,12	85,562	0	1016,9	6,8	8,9	8,7	1	1	1	1	1	1	1	1	1	0	1	-7,470049	274,062691	312,406742	0
15.01.2021	20:16:35	0	0	2,711534	2,44425	303,84	0,122	85,566	0	1016,94	6,7	9	8,7	1	1	1	1	1	1	1	1	1	0	1	-8,80902	274,026978	310,901069	0
15.01.2021	20:16:36	0	0	4,0673	2,30175	302,04	0,123	85,56	0	1016,98	6,7	8,8	8,7	1	1	1	1	1	1	1	1	1	0	1	-6,906272	274,105934	313,172452	0
15.01.2021	20:16:37	0	0	4,180281	2,304	318,8556	0,125	85,564	0	1017	6,7	9	8,7	1	1	1	1	1	1	1	1	1	0	1	-15,151515	274,173227	305,241641	0
15.01.2021	20:16:38	0	0	3,389417	2,3145	316,6452	0,124	85,558	0	1016,98	6,7	8,8	8,7	1	1	1	1	1	1	1	1	1	0	1	-11,486963	274,076101	308,452439	0
15.01.2021	20:16:39	0	0	4,519223	2,1615	316,9404	0,119	85,566	0	1016,9	6,8	9	8,7	1	1	1	1	1	1	1	1	1	0	1	-10,852713	274,032925	308,885134	0
15.01.2021	20:16:40	0	0	3,728359	1,97925	309,2076	0,124	85,573	0	1016,88	6,7	9	8,7	1	1	1	1	1	1	1	1	1	0	1	-11,768851	274,123856	308,393591	0
15.01.2021	20:16:41	0	0	4,406242	1,833	305,8884	0,118	85,558	0	1016,88	6,7	8,8	8,7	1	1	1	1	1	1	1	1	1	0	1	-4,22833	274,01806	315,440143	0
15.01.2021	20:16:42	0	0	2,937495	1,74525	296,4708	0,121	85,574	0	1016,78	6,7	8,8	8,7	1	1	1	1	1	1	1	1	1	0	1	-8,245243	274,052268	311,582888	0
15.01.2021	20:16:43	0	0	4,745184	1,7655	303,2532	0,121	85,57	0	1017,02	6,7	8,8	8,7	1	1	1	1	1	1	1	1	1	0	1	-8,597604	274,077591	311,348758	0
15.01.2021	20:16:44	0	0	2,598553	1,82475	307,6416	0,125	85,57	0	1016,9	6,7	9	8,7	1	1	1	1	1	1	1	1	1	0	1	-7,399577	274,013602	312,248095	0
15.01.2021	20:16:45	0	0	4,519223	1,85775	298,7136	0,122	85,543	0	1016,9	6,8	8,8	8,7	1	1	1	1	1	1	1	1	1	0	1	-5,919662	274,091012	314,089368	0
15.01.2021	20:16:46	0	0	2,937495	1,791	302,4648	0,121	85,557	0	1016,88	6,7	9	8,7	1	1	1	1	1	1	1	1	1	0	1	-7,82241	274,19871	312,689879	0
15.01.2021	20:16:47	0	0	4,180281	1,78875	308,826	0,121	85,568	0	1017	6,7	8,8	8,7	1	1	1	1	1	1	1	1	1	0	1	-10,782241	274,176223	309,624921	0
15.01.2021	20:16:48	0	0	4,858164	1,7895	297,3096	0,117	85,571	0	1016,8	6,7	8,8	8,7	1	1	1	1	1	1	1	1	1	0	1	-8,879493	274,170231	311,499661	0
15.01.2021	20:16:49	0	0	2,485572	1,85925	304,6464	0,118	85,562	0	1016,92	6,7	9	8,7	1	1	1	1	1	1	1	1	1	0	1	-12,544045	274,052268	307,284086	0
15.01.2021	20:16:50	0	0	2,485572	1,9305	302,0688	0,123	85,571	0	1017,04	6,7	8,8	8,7	1	1	1	1	1	1	1	1	1	0	1	-7,610994	274,085046	312,370177	0
15.01.2021	20:16:51	0	0	4,745184	2,001	294,1488	0,121	85,585	0	1016,9	6,7	8,8	8,7	1	1	1	1	1	1	1	1	1	0	1	-8,738548	274,192711	311,745692	0
15.01.2021	20:16:52	0	0	2,824514	2,1945	314,91	0,123	85,575	0	1017	6,7	8,8	8,7	1	1	1	1	1	1	1	1	1	0	1	-7,399577	274,07163	312,518949	0
15.01.2021	20:16:53	0	0	3,728359	2,25075	310,6728	0,119	85,575	0	1016,9	6,7	9	8,7	1	1	1	1	1	1	1	1	1	0	1	-8,668076	274,192711	311,816165	0
15.01.2021	20:16:54	0	0	4,745184	2,253	310,6944	0,121	85,564	0	1016,76	6,7	9	8,7	1	1	1	1	1	1	1	1	1	0	1	-8,527132	274,085046	311,454039	0
15.01.2021	20:16:55	0	0	2,937495	2,10225	302,1192	0,13	85,577	0	1016,9	6,7	8,8	8,7	1	1	1	1	1	1	1	1	1	0	1	-5,355884	274,01806	314,312588	0
15.01.2021	20:16:56	0	0	2,03365	2,0085	306,4644	0,128	85,583	0	1016,88	6,8	8,8	8,7	1	1	1	1	1	1	1	1	1	0	1	-10,147992	274,043338	309,638457	0
15.01.2021	20:16:57	0	0	4,519223	1,91025	298,98	0,125	85,575	0	1016,94	6,7	8,8	8,7	1	1	1	1	1	1	1	1	1	0	1	-9,584214	274,025491	310,118937	0
15.01.2021	20:16:58	0	0	4,632203	1,74225	296,3664	0,123	85,574	0	1016,8	6,7	8,8	8,7	1	1	1	1	1	1	1	1	1	0	1	-10,218464	274,159749	310,1117	0
15.01.2021	20:16:59	0	0	3,615378	1,68075	299,0304	0,12	85,558	0	1016,84	6,7	8,8	8,7	1	1	1	1	1	1	1	1	1	0	1	-6,976744	274,19871	313,535545	0
15.01.2021	20:17:00	0	0	2,824514	1,6185	293,3136	0,124	85,579	0	1016,86	6,7	8,8	8,7	1	1	1	1	1	1	1	1	1	0	1	-6,342495	274,044826	313,450899	0
15.01.2021	20:17:01	0	0	4,745184	1,56825	294,1164	0,124	85,589	0	1017	6,7	8,8	8,7	1	1	1	1	1	1	1	1	1	0	1	-6,906272	274,01806	312,7622	0
15.01.2021	20:17:02	0	0	3,050475	1,5375	303,156	0,122	85,587	0	1016,86	6,7	9	8,7	1	1	1	1	1	1	1	1	1	0	1	-5,355884	274,086537	314,63225	0
15.01.2021	20:17:03	0	0	4,971145	1,51125	309,5388	0,124	85,546	0	1016,94	6,7	9	8,7	1	1	1	1	1	1	1	1	1	0	1	-8,879493	274,20321	311,653839	0
15.01.2021	20:17:04	0	0	4,632203	1,46175	296,0748	0,129	85,581	0	1016,86	6,7	8,8	8,7	1	1	1	1	1	1	1	1	1	0	1	-9,161381	274,134318	311,049941	0
15.01.2021	20:17:05	0	0	2,711534	1,38825	300,4272	0,129	85,585	0	1016,9	6,7	9	8,7	1	1	1	1	1	1	1	1	1	0	1	-7,610994	274,20021	312,908309	0
15.01.2021	20:17:06	0	0	2,598553	1,38375	285,9624	0,126	85,58	0	1016,96	6,7	8,8	8,7	1	1	1	1	1	1	1	1	1	0	1	-18,957012	274,146281	301,310212	0
15.01.2021	20:17:07	0	0	4,745184	1,473	290,4012	0,126	85,576	0	1017,02	6,7	8,8	8,7	1	1	1	1	1	1	1	1	1	0	1	-14,446794	274,021032	305,235549	0
15.01.2021	20:17:08	0	0	4,0673	1,49175	296,1288	0,125	85,58	0	1016,92	6,8	9	8,7	1	1	1	1	1	1	1	1	1	0	1	-5,073996	274,064181	314,80975	0
15.01.2021	20:17:09	0	0	3,502398	1,578	290,8008	0,128	85,586	0	1017,02	6,7	8,8	8,7	1	1	1	1	1	1	1	1	1	0	1	-9,372798	274,174725	311,027361	0
15.01.2021	20:17:10	0	0	3,389417	1,65825	306,2412	0,121	85,569	0	1016,94	6,7	8,8	8,7	1	1	1	1	1	1	1	1	1	0	1	-12,121212	274,01806	307,54726	0
15.01.2021	20:17:11	0	0	4,971145	1,70925	307,494	0,128	85,577	0	1016,94	6,7	8,8	8,7	1	1	1	1	1	1	1	1	1	0	1	-14,587738	274,134318	305,623584	0
15.01.2021	20:17:12	0	0	2,824514	1,79325	318,3948	0,128	85,578	0	1017	6,7	8,8	8,7	1	1	1	1	1	1	1	1	1	0	1	-10,711769	274,213715	309,870687	0
15.01.2021	20:17:13	0	0	2,824514	1,99275	317,7072	0,125	85,572	0	1016,82	6,7	9	8,7	1	1	1	1	1	1	1	1	1	0	1	-12,05074	274,08952	307,951324	0
15.01.2021	20:17:14	0	0	2,711534	2,0985	311,6592	0,126	85,581	0	1016,96	6,7	8,8	8,7	1	1	1	1	1	1	1	1	1	0	1	-7,681466	274,218219	312,922053	0
15.01.2021	20:17:15	0	0	4,406242	2,06025	308,376	0,123	85,583	0	1017,08	6,7	8,8	8,7	1	1	1	1	1	1	1	1	1	0	1	-7,82241	274,158252	312,500758	0
15.01.2021	20:17:16	0	0	4,632203	1,98675	304,6356	0,127	85,571	0	1017,04	6,7	8,8	8,7	1	1	1	1	1	1	1	1	1	0	1	-10,500352	274,19421	309,990899	0
15.01.2021	20:17:17	0	0	4,745184	1,92825	292,59	0,118	85,576	0	1016,96	6,7	8,8	8,7	1	1	1	1	1	1	1	1	1	0	1	-10,570825	274,099963	309,480014	0
15.01.2021	20:17:18	0	0	2,937495	1,977	304,7076	0,125	85,556	0	1016,92	6,8	8,8	8,7	1	1	1	1	1	1	1	1	1	0	1	-9,795631	274,207712	310,75875	0
15.01.2021	20:17:19	0	0	4,0673	1,96875	312,39	0,125	85,566	0	1016,98	6,7	8,8	8,7	1	1	1	1	1	1	1	1	1	0	1	-10,218464	274,082064	309,748781	0
15.01.2021	20:17:20	0	0	3,95432	1,9485	310,7088	0,127	85,579	0	1016,88	6,8	9	8,7	1	1	1	1	1	1	1	1	1	0	1	-15,785765	274,186713	304,670438	0
15.01.2021	20:17:21	0	0	2,598553	1,908	310,6368	0,125	85,573	0	1016,86	6,7	8,8	8,7	1	1	1	1	1	1	1	1	1	0	1	-9,231853	274,080573	310,72843	0
15.01.2021	20:17:22	0	0	2,711534	1,8465	310,662	0,124	85,581	0	1016,78	6,7	8,8	8,7	1	1	1	1	1	1	1	1	1	0	1	-10,500352	274,01806	309,16812	0
15.01.2021	20:17:23	0	0	4,0673	1,81875	300,4704	0,124	85,576	0	1016,84	6,7	9	8,7	1	1	1	1	1	1	1	1	1	0	1	-10,077519	274,053757	309,757562	0
15.01.2021	20:17:24	0	0	2,372592	1,9185	303,894	0,127	85,577	0	1017,02	6,8	9	8,7	1	1	1	1	1	1	1	1	1	0	1	-6,906272	274,044826	312,887122	0
15.01.2021	20:17:25	0	0	4,180281	1,93875	306,7632	0,124	85,579	0	1016,9	6,7	9	8,7	1	1	1	1	1	1	1	1	1	0	1	-6,060606	274,137308	314,164688	0
15.01.2021	20:17:26	0	0	3,502398	1,947	306,1116	0,124	85,576	0	1017,08	6,7	8,8	8,7	1	1	1	1	1	1	1	1	1	0	1	-10,641297	274,07014	309,270272	0
15.01.2021	20:17:27	0	0	3,276436	1,995	304,2396	0,123	85,568	0	1017,04	6,7	9	8,7	1	1	1	1	1	1	1	1	1	0	1	-7,188161	274,104441	312,883591	0
15.01.2021	20:17:28	0	0	3,95432	2,04225	297,9	0,13	85,581	0	1016,92	6,7	8,8	8,7	1	1	1	1	1	1	1	1	1	0	1	-5,21494	274,210713	315,353477	0
15.01.2021	20:17:29	0	0	3,95432	2,1705	307,188	0,127	85,582	0	1017,02	6,7	8,8	8,7	1	1	1	1	1	1	1	1	1	0	1	-10,923185	274,07163	308,99534	0
15.01.2021	20:17:30	0	0	3,276436	2,223	297,2376	0,125	85,565	0	1016,84	6,7	8,8	8,7	1	1	1	1	1	1	1	1	1	0	1	-7,610994	274,209212	312,950405	0
15.01.2021	20:17:31	0	0	3,502398	2,316	311,364	0,126	85,572	0	1017	6,7	8,8	8,7	1	1	1	1	1	1	1	1	1	0	1	-5,990134	274,161246	314,347026	0
15.01.2021	20:17:32	0	0	2,824514	2,38725	303,2028	0,129	85,57	0	1017	6,8	9	8,7	1	1	1	1	1	1	1	1	1	0	1	-8,668076	274,19571	311,830187	0
15.01.2021	20:17:33	0	0	2,485572	2,4345	296,802	0,127	85,583	0	1017	6,7	9	8,7	1	1	1	1	1	1	1	1	1	0	1	-6,765328	274,064181	313,118418	0
15.01.2021	20:17:34	0	0	4,406242	2,38125	312,5268	0,127	85,574	0	1016,98	6,8	8,8	8,7	1	1	1	1	1	1	1	1	1	0	1	-6,8358	274,0359	312,91593	0
15.01.2021	20:17:35	0	0	2,598553	2,4435	314,3844	0,124	85,55	0	1017,08	6,7	8,8	8,7	1	1	1	1	1	1	1	1	1	0	1	-10,288936	274,119373	309,852568	0
15.01.2021	20:17:36	0	0	2,711534	2,736	312,1488	0,129	85,565	0	1016,82	6,7	8,8	8,7	1	1	1	1	1	1	1	1	1	0	1	-6,060606	274,046314	313,739734	0
15.01.2021	20:17:37	0	0	3,615378	2,83275	311,7312	0,131	85,56	0	1016,92	6,7	8,8	8,7	1	1	1	1	1	1	1	1	1	0	1	-7,963354	274,135813	312,254953	0
15.01.2021	20:17:38	0	0	3,502398	2,86725	305,8308	0,128	85,562	0	1017,06	6,7	8,8	8,7	1	1	1	1	1	1	1	1	1	0	1	-8,033827	274,221223	312,583738	0
15.01.2021	20:17:39	0	0	4,519223	2,8635	305,37	0,129	85,563	0	1017	6,7	8,8	8,7	1	1	1	1	1	1	1	1	1	0	1	-10,923185	274,105934	309,155538	0
15.01.2021	20:17:40	0	0	2,937495	2,91375	314,8236	0,131	85,563	0	1016,94	6,7	9	8,7	1	1	1	1	1	1	1	1	1	0	1	-12,896406	274,212214	307,67903	0
15.01.2021	20:17:41	0	0	2,259611	2,89425	314,4204	0,126	85,559	0	1016,9	6,7	9	8,7	1	1	1	1	1	1	1	1	1	0	1	-7,963354	274,059713	311,899531	0
15.01.2021	20:17:42	0	0	3,276436	2,8755	308,3976	0,135	85,558	0	1017	6,7	8,8	8,7	1	1	1	1	1	1	1	1	1	0	1	-9,513742	274,07312	310,411742	0
15.01.2021	20:17:43	0	0	4,519223	2,87175	313,1388	0,131	85,548	0	1016,84	6,7	8,8	8,7	1	1	1	1	1	1	1	1	1	0	1	-9,090909	274,099963	310,959929	0
15.01.2021	20:17:44	0	0	4,632203	2,73225	312,5052	0,131	85,558	0	1017,02	6,7	8,8	8,7	1	1	1	1	1	1	1	1	1	0	1	-8,80902	274,204711	311,731327	0
15.01.2021	20:17:45	0	0	4,406242	2,50575	314,4024	0,124	85,546	0	1016,86	6,7	8,8	8,7	1	1	1	1	1	1	1	1	1	0	1	-7,399577	274,128339	312,78381	0
15.01.2021	20:17:46	0	0	4,406242	2,41275	308,0988	0,135	85,56	0	1017,06	6,7	8,8	8,7	1	1	1	1	1	1	1	1	1	0	1	-10,288936	274,028464	309,428092	0
15.01.2021	20:17:47	0	0	4,0673	2,442	310,2948	0,125	85,546	0	1016,88	6,7	8,8	8,7	1	1	1	1	1	1	1	1	1	0	1	-8,315715	274,135813	311,902592	0
15.01.2021	20:17:48	0	0	4,632203	2,481	299,1096	0,127	85,551	0	1016,9	6,7	8,8	8,7	1	1	1	1	1	1	1	1	1	0	1	-6,906272	274,04185	312,873231	0
15.01.2021	20:17:49	0	0	3,163456	2,39925	292,1544	0,125	85,538	0	1016,9	6,7	9	8,7	1	1	1	1	1	1	1	1	1	0	1	-9,654686	274,091012	310,354344	0
15.01.2021	20:17:50	0	0	2,711534	2,28075	283,5396	0,132	85,547	0	1016,96	6,7	8,8	8,7	1	1	1	1	1	1	1	1	1	0	1	-12,332629	274,210713	308,235789	0
15.01.2021	20:17:51	0	0	2,372592	2,26125	291,7872	0,131	85,558	0	1016,88	6,7	9	8,7	1	1	1	1	1	1	1	1	1	0	1	-8,738548	274,093995	311,284415	0
15.01.2021	20:17:52	0	0	2,485572	2,3025	289,1556	0,13	85,551	0	1017	6,7	8,8	8,7	1	1	1	1	1	1	1	1	1	0	1	-12,473573	274,20321	308,059759	0
15.01.2021	20:17:53	0	0	2,824514	2,5095	292,5216	0,129	85,546	0	1016,76	6,7	8,8	8,7	1	1	1	1	1	1	1	1	1	0	1	-7,117689	274,153762	313,184495	0
15.01.2021	20:17:54	0	0	3,050475	2,55975	294,4008	0,131	85,547	0	1016,86	6,7	8,8	8,7	1	1	1	1	1	1	1	1	1	0	1	-12,473573	274,034413	307,271215	0
15.01.2021	20:17:55	0	0	2,485572	2,46975	271,3212	0,127	85,555	0	1016,88	6,7	8,8	8,7	1	1	1	1	1	1	1	1	1	0	1	-6,8358	274,132823	313,368538	0
15.01.2021	20:17:56	0	0	3,163456	2,3805	280,2168	0,127	85,546	0	1016,96	6,7	8,8	8,7	1	1	1	1	1	1	1	1	1	0	1	-11,557435	274,218219	309,046084	0
15.01.2021	20:17:57	0	0	4,406242	2,40975	288,0936	0,125	85,528	0	1016,86	6,7	8,8	8,7	1	1	1	1	1	1	1	1	1	0	1	-14,235377	274,161246	306,101783	0
15.01.2021	20:17:58	0	0	3,163456	2,406	281,2896	0,131	85,54	0	1016,96	6,8	8,8	8,7	1	1	1	1	1	1	1	1	1	0	1	-10,570825	274,04185	309,208679	0
15.01.2021	20:17:59	0	0	3,502398	2,2095	302,4	0,126	85,536	0	1017,04	6,7	8,8	8,7	1	1	1	1	1	1	1	1	1	0	1	-12,403101	274,168733	307,969052	0
15.01.2021	20:18:00	0	0	2,937495	2,028	295,542	0,13	85,542	0	1016,9	6,7	8,8	8,7	1	1	1	1	1	1	1	1	1	0	1	-11,839323	274,056734	308,009659	0
15.01.2021	20:18:01	0	0	3,502398	1,80975	308,4228	0,134	85,529	0	1016,92	6,7	9	8,7	1	1	1	1	1	1	1	1	1	0	1	-7,470049	274,082064	312,497196	0
15.01.2021	20:18:02	0	0	3,615378	1,72875	285,516	0,126	85,537	0	1016,98	6,7	8,8	8,7	1	1	1	1	1	1	1	1	1	0	1	-10,852713	274,20171	309,673604	0
15.01.2021	20:18:03	0	0	3,163456	1,716	291,5424	0,133	85,539	0	1016,82	6,7	8,8	8,7	1	1	1	1	1	1	1	1	1	0	1	-8,597604	274,082064	311,369641	0
15.01.2021	20:18:04	0	0	2,485572	1,82625	288,846	0,13	85,545	0	1016,96	6,7	8,8	8,7	1	1	1	1	1	1	1	1	1	0	1	-11,698379	274,031438	308,032528	0
15.01.2021	20:18:05	0	0	3,163456	1,935	294,7716	0,131	85,533	0	1016,84	6,8	8,8	8,7	1	1	1	1	1	1	1	1	1	0	1	-9,513742	274,098471	310,530127	0
15.01.2021	20:18:06	0	0	2,598553	1,8705	297,5904	0,129	85,532	0	1016,96	6,8	8,8	8,7	1	1	1	1	1	1	1	1	1	0	1	-12,121212	274,20171	308,405105	0
15.01.2021	20:18:07	0	0	3,841339	1,92525	286,6428	0,13	85,527	0	1017	6,7	9	8,7	1	1	1	1	1	1	1	1	1	0	1	-7,610994	274,128339	312,572393	0
15.01.2021	20:18:08	0	0	2,372592	1,93575	307,5516	0,127	85,522	0	1016,84	6,7	8,8	8,7	1	1	1	1	1	1	1	1	1	0	1	-7,047216	274,234743	313,633585	0
15.01.2021	20:18:09	0	0	2,937495	1,80525	311,742	0,13	85,542	0	1017,02	6,7	8,8	8,7	1	1	1	1	1	1	1	1	1	0	1	-8,668076	274,105934	311,410648	0
15.01.2021	20:18:10	0	0	3,276436	1,73475	296,5824	0,132	85,532	0	1016,98	6,8	9	8,7	1	1	1	1	1	1	1	1	1	0	1	-10,852713	274,050779	308,96847	0
15.01.2021	20:18:11	0	0	4,971145	1,812	300,8376	0,13	85,526	0	1016,96	6,7	8,8	8,7	1	1	1	1	1	1	1	1	1	0	1	-7,117689	274,152266	313,177502	0
15.01.2021	20:18:12	0	0	4,632203	1,81125	294,408	0,127	85,529	0	1016,9	6,8	8,8	8,7	1	1	1	1	1	1	1	1	1	0	1	-9,936575	274,216718	310,659922	0
15.01.2021	20:18:13	0	0	4,971145	1,7265	312,8292	0,125	85,518	0	1016,88	6,7	8,8	8,7	1	1	1	1	1	1	1	1	1	0	1	-8,80902	274,083555	311,165187	0
15.01.2021	20:18:14	0	0	3,615378	1,6935	304,182	0,128	85,52	0	1016,78	6,7	8,8	8,7	1	1	1	1	1	1	1	1	1	0	1	-11,205074	274,206211	309,34229	0
15.01.2021	20:18:15	0	0	2,824514	1,7325	305,3448	0,127	85,51	0	1016,92	6,8	8,8	8,7	1	1	1	1	1	1	1	1	1	0	1	-9,231853	274,149273	311,049353	0
15.01.2021	20:18:16	0	0	2,824514	1,797	320,8212	0,128	85,516	0	1016,9	6,7	8,8	8,7	1	1	1	1	1	1	1	1	1	0	1	-6,553911	274,171729	313,832244	0
15.01.2021	20:18:17	0	0	3,502398	1,7835	317,3292	0,129	85,517	0	1017,08	6,7	9	8,7	1	1	1	1	1	1	1	1	1	0	1	-11,275546	274,046314	308,524794	0
15.01.2021	20:18:18	0	0	5,084125	1,8	300,762	0,127	85,522	0	1016,8	6,7	8,8	8,7	1	1	1	1	1	1	1	1	1	0	1	-12,262156	274,098471	307,781712	0
15.01.2021	20:18:19	0	0	4,519223	1,8255	308,8152	0,13	85,52	0	1017	6,7	8,8	8,7	1	1	1	1	1	1	1	1	1	0	1	-6,8358	274,222724	313,788788	0
15.01.2021	20:18:20	0	0	4,858164	1,75725	299,7972	0,122	85,511	0	1016,8	6,8	8,8	8,7	1	1	1	1	1	1	1	1	1	0	1	-7,681466	274,152266	312,613725	0
15.01.2021	20:18:21	0	0	3,163456	1,81575	299,4264	0,131	85,515	0	1017	6,7	9	8,7	1	1	1	1	1	1	1	1	1	0	1	-6,976744	274,031438	312,754163	0
15.01.2021	20:18:22	0	0	4,0673	1,83	301,2084	0,129	85,518	0	1016,88	6,8	8,8	8,7	1	1	1	1	1	1	1	1	1	0	1	-10,147992	274,152266	310,147199	0
15.01.2021	20:18:23	0	0	3,050475	1,84275	307,5768	0,13	85,497	0	1016,98	6,7	8,8	8,7	1	1	1	1	1	1	1	1	1	0	1	-9,513742	274,032925	310,224105	0
15.01.2021	20:18:24	0	0	3,615378	1,90875	305,0028	0,124	85,51	0	1016,94	6,7	8,8	8,7	1	1	1	1	1	1	1	1	1	0	1	-8,668076	274,168733	311,704077	0
15.01.2021	20:18:25	0	0	2,937495	1,88025	290,7612	0,129	85,514	0	1016,92	6,8	8,8	8,7	1	1	1	1	1	1	1	1	1	0	1	-8,597604	274,050779	311,223579	0
15.01.2021	20:18:26	0	0	3,615378	1,83225	301,2516	0,128	85,513	0	1017,08	6,7	8,8	8,7	1	1	1	1	1	1	1	1	1	0	1	-6,060606	274,080573	313,899677	0
15.01.2021	20:18:27	0	0	2,937495	1,89525	301,158	0,135	85,513	0	1016,88	6,7	8,8	8,7	1	1	1	1	1	1	1	1	1	0	1	-10,218464	274,029951	309,505503	0
15.01.2021	20:18:28	0	0	2,485572	1,90725	305,7948	0,128	85,513	0	1016,76	6,7	8,8	8,7	1	1	1	1	1	1	1	1	1	0	1	-9,020437	274,086537	310,967698	0
15.01.2021	20:18:29	0	0	4,293261	1,839	303,4944	0,122	85,511	0	1016,76	6,8	8,8	8,7	1	1	1	1	1	1	1	1	1	0	1	-6,694856	274,218219	313,908663	0
15.01.2021	20:18:30	0	0	4,858164	1,806	312,4836	0,132	85,505	0	1016,84	6,7	8,8	8,7	1	1	1	1	1	1	1	1	1	0	1	-9,936575	274,141794	310,309681	0
15.01.2021	20:18:31	0	0	3,95432	1,76025	315,8748	0,135	85,511	0	1016,9	6,7	8,8	8,7	1	1	1	1	1	1	1	1	1	0	1	-12,05074	274,047803	307,756547	0
15.01.2021	20:18:32	0	0	3,728359	1,695	319,2624	0,12	85,504	0	1016,96	6,7	8,8	8,7	1	1	1	1	1	1	1	1	1	0	1	-11,980268	274,06865	307,924344	0
15.01.2021	20:18:33	0	0	3,050475	1,626	317,7432	0,128	85,496	0	1016,98	6,7	8,8	8,7	1	1	1	1	1	1	1	1	1	0	1	-9,725159	274,07014	310,18641	0
15.01.2021	20:18:34	0	0	4,180281	1,542	316,2384	0,125	85,509	0	1016,94	6,7	8,8	8,7	1	1	1	1	1	1	1	1	1	0	1	-8,245243	274,076101	311,694158	0
15.01.2021	20:18:35	0	0	4,180281	1,47675	313,632	0,129	85,502	0	1017,14	6,7	8,8	8,7	1	1	1	1	1	1	1	1	1	0	1	-9,725159	274,101456	310,33265	0
15.01.2021	20:18:36	0	0	4,406242	1,476	306,4176	0,129	85,489	0	1016,88	6,8	8,8	8,7	1	1	1	1	1	1	1	1	1	0	1	-8,668076	274,0359	311,083654	0
15.01.2021	20:18:37	0	0	3,050494	1,60275	312,858	0,127	85,507	0	1016,88	6,7	8,8	8,6	1	1	1	1	1	1	1	1	1	0	1	-6,553911	274,102948	313,510869	0
15.01.2021	20:18:38	0	0	2,485572	1,7775	313,6464	0,132	85,503	0	1017,1	6,7	8,8	8,7	1	1	1	1	1	1	1	1	1	0	1	-8,033827	274,216718	312,562671	0
15.01.2021	20:18:39	0	0	4,632203	1,9005	331,47	0,13	85,506	0	1016,78	6,7	9	8,7	1	1	1	1	1	1	1	1	1	0	1	-9,231853	274,091012	310,777177	0
15.01.2021	20:18:40	0	0	4,745184	2,08875	306,4428	0,126	85,499	0	1016,92	6,7	8,8	8,7	1	1	1	1	1	1	1	1	1	0	1	-12,403101	274,0359	307,348629	0
15.01.2021	20:18:41	0	0	4,293261	2,28825	315,468	0,119	85,505	0	1016,8	6,7	9	8,7	1	1	1	1	1	1	1	1	1	0	1	-10,007047	274,164241	310,344108	0
15.01.2021	20:18:42	0	0	3,615378	2,44725	312,4512	0,125	85,506	0	1016,9	6,7	9	8,7	1	1	1	1	1	1	1	1	1	0	1	-13,6716	274,215217	306,917877	0
15.01.2021	20:18:43	0	0	4,745184	2,41275	308,8332	0,124	85,49	0	1016,76	6,8	8,8	8,7	1	1	1	1	1	1	1	1	1	0	1	-10,077519	274,207712	310,476862	0
15.01.2021	20:18:44	0	0	4,519223	2,42625	313,1352	0,132	85,497	0	1017	6,7	8,8	8,7	1	1	1	1	1	1	1	1	1	0	1	-11,275546	274,113399	308,838049	0
15.01.2021	20:18:45	0	0	2,485572	2,40075	309,9564	0,129	85,48	0	1016,96	6,7	9	8,7	1	1	1	1	1	1	1	1	1	0	1	-8,245243	274,213715	312,337213	0
15.01.2021	20:18:46	0	0	4,858164	2,427	306,8928	0,125	85,498	0	1016,9	6,7	8,8	8,7	1	1	1	1	1	1	1	1	1	0	1	-11,346018	274,191211	309,131212	0
15.01.2021	20:18:47	0	0	3,728359	2,4375	303,1848	0,129	85,488	0	1016,88	6,8	9	8,7	1	1	1	1	1	1	1	1	1	0	1	-12,262156	274,221223	308,355408	0
15.01.2021	20:18:48	0	0	2,824514	2,556	306,774	0,129	85,497	0	1016,96	6,7	8,8	8,7	1	1	1	1	1	1	1	1	1	0	1	-8,45666	274,062691	311,420132	0
15.01.2021	20:18:49	0	0	4,0673	2,676	303,9444	0,128	85,503	0	1016,86	6,7	8,8	8,7	1	1	1	1	1	1	1	1	1	0	1	-8,315715	274,158252	312,007452	0
15.01.2021	20:18:50	0	0	3,389417	2,67375	300,4776	0,13	85,489	0	1016,98	6,8	8,8	8,7	1	1	1	1	1	1	1	1	1	0	1	-10,147992	274,20021	310,371311	0
15.01.2021	20:18:51	0	0	2,598553	2,661	293,706	0,131	85,503	0	1016,82	6,8	8,8	8,7	1	1	1	1	1	1	1	1	1	0	1	-10,923185	274,107427	309,162511	0
15.01.2021	20:18:52	0	0	4,180281	2,66475	290,3976	0,129	85,497	0	1016,92	6,7	8,8	8,7	1	1	1	1	1	1	1	1	1	0	1	-7,047216	274,19421	313,444035	0
15.01.2021	20:18:53	0	0	1,807689	2,73525	309,9492	0,129	85,511	0	1016,94	6,8	8,8	8,7	1	1	1	1	1	1	1	1	1	0	1	-7,963354	274,135813	312,254953	0
15.01.2021	20:18:54	0	0	3,502419	2,688	294,822	0,127	85,499	0	1016,94	6,7	8,8	8,6	1	1	1	1	1	1	1	1	1	0	1	-6,553911	274,215217	314,035565	0
15.01.2021	20:18:55	0	0	4,971145	2,64825	305,298	0,13	85,482	0	1016,74	6,8	8,8	8,7	1	1	1	1	1	1	1	1	1	0	1	-10,288936	274,079082	309,664386	0
15.01.2021	20:18:56	0	0	3,276456	2,595	299,7792	0,131	85,494	0	1016,9	6,8	8,8	8,6	1	1	1	1	1	1	1	1	1	0	1	-8,738548	274,034413	311,00624	0
15.01.2021	20:18:57	0	0	4,406242	2,538	316,9944	0,124	85,469	0	1016,9	6,7	8,8	8,7	1	1	1	1	1	1	1	1	1	0	1	-9,866103	274,171729	310,520052	0
15.01.2021	20:18:58	0	0	2,598553	2,448	316,2708	0,13	85,49	0	1016,84	6,7	8,8	8,7	1	1	1	1	1	1	1	1	1	0	1	-8,738548	274,028464	310,97848	0
15.01.2021	20:18:59	0	0	2,485572	2,403	308,4588	0,132	85,496	0	1016,94	6,8	8,8	8,7	1	1	1	1	1	1	1	1	1	0	1	-7,117689	274,19421	313,373563	0
15.01.2021	20:19:00	0	0	2,937495	2,48775	314,046	0,126	85,481	0	1016,94	6,7	9	8,7	1	1	1	1	1	1	1	1	1	0	1	-6,765328	274,218219	313,838191	0
15.01.2021	20:19:01	0	0	4,406242	2,685	308,4588	0,123	85,465	0	1016,88	6,7	9	8,7	1	1	1	1	1	1	1	1	1	0	1	-10,500352	274,176223	309,90681	0
15.01.2021	20:19:02	0	0	3,050475	2,70525	313,9596	0,127	85,48	0	1016,96	6,7	9	8,7	1	1	1	1	1	1	1	1	1	0	1	-9,231853	274,064181	310,651892	0
15.01.2021	20:19:03	0	0	4,0673	2,877	314,1828	0,125	85,47	0	1016,84	6,7	8,8	8,7	1	1	1	1	1	1	1	1	1	0	1	-10,641297	274,19871	309,870992	0
15.01.2021	20:19:04	0	0	3,276436	3,081	310,5792	0,126	85,461	0	1016,88	6,8	8,8	8,7	1	1	1	1	1	1	1	1	1	0	1	-14,235377	274,19421	306,255875	0
15.01.2021	20:19:05	0	0	4,632203	3,1125	312,876	0,125	85,474	0	1017,08	6,7	8,8	8,7	1	1	1	1	1	1	1	1	1	0	1	-8,879493	274,043338	310,906956	0
15.01.2021	20:19:06	0	0	3,615378	3,291	307,2132	0,127	85,483	0	1017,04	6,8	8,8	8,7	1	1	1	1	1	1	1	1	1	0	1	-3,382664	274,183716	317,059524	0
15.01.2021	20:19:07	0	0	4,745184	3,30225	309,888	0,128	85,479	0	1016,9	6,7	9	8,7	1	1	1	1	1	1	1	1	1	0	1	-6,553911	274,164241	313,797244	0
15.01.2021	20:19:08	0	0	3,95432	2,97225	300,4164	0,125	85,468	0	1016,94	6,7	8,8	8,7	1	1	1	1	1	1	1	1	1	0	1	-8,386187	274,04185	311,393316	0
15.01.2021	20:19:09	0	0	4,406242	2,62725	307,1556	0,122	85,455	0	1016,9	6,7	8,8	8,7	1	1	1	1	1	1	1	1	1	0	1	-9,302326	274,147777	310,971889	0
15.01.2021	20:19:10	0	0	3,050475	2,5935	315,1728	0,125	85,471	0	1016,96	6,7	8,8	8,7	1	1	1	1	1	1	1	1	1	0	1	-6,976744	274,0359	312,774986	0
15.01.2021	20:19:11	0	0	3,728359	2,619	312,3936	0,129	85,467	0	1016,8	6,7	8,8	8,7	1	1	1	1	1	1	1	1	1	0	1	-12,966878	274,131328	307,230475	0
15.01.2021	20:19:12	0	0	3,502398	2,5785	319,9824	0,128	85,469	0	1016,96	6,7	8,8	8,7	1	1	1	1	1	1	1	1	1	0	1	-6,906272	274,024005	312,789943	0
15.01.2021	20:19:13	0	0	2,824514	2,517	308,07	0,123	85,472	0	1016,94	6,7	8,8	8,7	1	1	1	1	1	1	1	1	1	0	1	-10,923185	274,074611	309,009257	0
15.01.2021	20:19:14	0	0	4,519223	2,439	312,7356	0,126	85,474	0	1016,94	6,7	8,8	8,7	1	1	1	1	1	1	1	1	1	0	1	-7,963354	274,052268	311,864777	0
15.01.2021	20:19:15	0	0	2,824514	2,42775	321,1452	0,125	85,452	0	1016,98	6,7	8,8	8,7	1	1	1	1	1	1	1	1	1	0	1	-4,016913	274,058223	315,83902	0
15.01.2021	20:19:16	0	0	4,406242	2,26275	316,6488	0,122	85,459	0	1016,88	6,8	8,8	8,7	1	1	1	1	1	1	1	1	1	0	1	-5,708245	274,218219	314,895274	0
15.01.2021	20:19:17	0	0	3,841339	2,09775	310,68	0,122	85,46	0	1016,94	6,7	9	8,7	1	1	1	1	1	1	1	1	1	0	1	-13,03735	274,099963	307,013488	0
15.01.2021	20:19:18	0	0	3,163456	1,9905	302,3784	0,123	85,449	0	1016,84	6,7	8,8	8,7	1	1	1	1	1	1	1	1	1	0	1	-4,298802	274,086537	315,689333	0
15.01.2021	20:19:19	0	0	3,615378	1,9515	302,8284	0,128	85,479	0	1017,08	6,7	8,8	8,7	1	1	1	1	1	1	1	1	1	0	1	-12,121212	274,182217	308,313969	0
15.01.2021	20:19:20	0	0	4,0673	1,87425	309,5028	0,122	85,465	0	1016,88	6,7	8,8	8,7	1	1	1	1	1	1	1	1	1	0	1	-8,245243	274,059713	311,617642	0
15.01.2021	20:19:21	0	0	4,0673	1,86675	300,8232	0,119	85,45	0	1017,02	6,7	8,8	8,7	1	1	1	1	1	1	1	1	1	0	1	-10,852713	274,153762	309,449471	0
15.01.2021	20:19:22	0	0	2,937495	1,905	312,4116	0,124	85,465	0	1016,98	6,7	9	8,7	1	1	1	1	1	1	1	1	1	0	1	-9,161381	274,206211	311,385983	0
15.01.2021	20:19:23	0	0	3,95432	1,941	307,6056	0,126	85,459	0	1017,04	6,7	8,8	8,7	1	1	1	1	1	1	1	1	1	0	1	-7,399577	274,102948	312,665203	0
15.01.2021	20:19:24	0	0	2,824514	2,0415	300,4452	0,126	85,46	0	1016,94	6,7	8,8	8,7	1	1	1	1	1	1	1	1	1	0	1	-9,020437	274,0359	310,731293	0
15.01.2021	20:19:25	0	0	3,163456	2,08725	297,9252	0,125	85,446	0	1017,02	6,7	8,8	8,7	1	1	1	1	1	1	1	1	1	0	1	-6,483439	274,095487	313,546492	0
15.01.2021	20:19:26	0	0	2,824514	2,1045	300,1536	0,124	85,441	0	1016,76	6,7	8,8	8,7	1	1	1	1	1	1	1	1	1	0	1	-8,597604	274,19421	311,893648	0
15.01.2021	20:19:27	0	0	3,050475	1,99575	304,2468	0,122	85,448	0	1016,9	6,7	9	8,7	1	1	1	1	1	1	1	1	1	0	1	-5,144468	274,079082	314,808854	0
15.01.2021	20:19:28	0	0	2,937495	1,893	296,0064	0,126	85,46	0	1016,98	6,7	8,8	8,7	1	1	1	1	1	1	1	1	1	0	1	-9,795631	274,19871	310,716658	0
15.01.2021	20:19:29	0	0	2,824514	1,97625	300,2076	0,125	85,442	0	1016,94	6,7	8,8	8,7	1	1	1	1	1	1	1	1	1	0	1	-13,6716	274,183716	306,770588	0
15.01.2021	20:19:30	0	0	4,0673	2,1405	303,5376	0,125	85,437	0	1016,94	6,7	8,8	8,7	1	1	1	1	1	1	1	1	1	0	1	-8,668076	274,180718	311,7601	0
15.01.2021	20:19:31	0	0	3,502398	2,25	304,6392	0,122	85,446	0	1016,76	6,7	8,8	8,7	1	1	1	1	1	1	1	1	1	0	1	-8,949965	274,19571	311,548299	0
15.01.2021	20:19:32	0	0	4,858164	2,3235	310,7232	0,12	85,444	0	1016,94	6,7	8,8	8,7	1	1	1	1	1	1	1	1	1	0	1	-12,684989	274,158252	307,638178	0
15.01.2021	20:19:33	0	0	4,745184	2,30025	297,558	0,132	85,457	0	1016,98	6,7	8,8	8,7	1	1	1	1	1	1	1	1	1	0	1	-11,41649	274,218219	309,187028	0
15.01.2021	20:19:34	0	0	2,937495	2,2785	302,7816	0,118	85,455	0	1016,86	6,7	9	8,7	1	1	1	1	1	1	1	1	1	0	1	-8,033827	274,096979	312,003073	0
15.01.2021	20:19:35	0	0	2,937495	2,27925	311,0328	0,124	85,435	0	1016,9	6,7	8,8	8,7	1	1	1	1	1	1	1	1	1	0	1	-10,42988	274,050779	309,391303	0
15.01.2021	20:19:36	0	0	3,728359	2,26725	311,4288	0,119	85,431	0	1016,88	6,8	8,8	8,7	1	1	1	1	1	1	1	1	1	0	1	-7,610994	274,162743	312,733164	0
15.01.2021	20:19:37	0	0	4,519223	2,403	303,4872	0,122	85,429	0	1016,88	6,7	8,8	8,7	1	1	1	1	1	1	1	1	1	0	1	-6,694856	274,221223	313,922709	0
15.01.2021	20:19:38	0	0	4,180281	2,65425	306,4896	0,121	85,439	0	1016,92	6,7	9	8,7	1	1	1	1	1	1	1	1	1	0	1	-10,218464	274,153762	310,08372	0
15.01.2021	20:19:39	0	0	2,711534	2,8125	303,5232	0,121	85,428	0	1016,84	6,7	8,8	8,7	1	1	1	1	1	1	1	1	1	0	1	-9,302326	274,19721	311,20295	0
15.01.2021	20:19:40	0	0	4,971145	2,8335	297,3456	0,128	85,439	0	1016,94	6,7	8,8	8,7	1	1	1	1	1	1	1	1	1	0	1	-10,218464	274,06865	309,686148	0
15.01.2021	20:19:41	0	0	4,519223	2,76225	302,0616	0,118	85,443	0	1016,92	6,7	8,8	8,7	1	1	1	1	1	1	1	1	1	0	1	-13,107822	274,20171	307,418495	0
15.01.2021	20:19:42	0	0	4,406242	2,6505	293,3244	0,126	85,437	0	1016,9	6,7	8,8	8,7	1	1	1	1	1	1	1	1	1	0	1	-10,641297	274,128339	309,54209	0
15.01.2021	20:19:43	0	0	4,519223	2,69325	302,8464	0,128	85,433	0	1017,08	6,7	8,8	8,7	1	1	1	1	1	1	1	1	1	0	1	-12,403101	274,206211	308,144263	0
15.01.2021	20:19:44	0	0	4,0673	2,6655	295,182	0,12	85,435	0	1016,8	6,7	8,8	8,7	1	1	1	1	1	1	1	1	1	0	1	-8,033827	274,188213	312,429385	0
15.01.2021	20:19:45	0	0	4,406242	2,56125	302,4324	0,125	85,446	0	1016,94	6,7	9	8,7	1	1	1	1	1	1	1	1	1	0	1	-11,06413	274,049291	308,750105	0
15.01.2021	20:19:46	0	0	4,180281	2,4945	302,0688	0,123	85,425	0	1016,88	6,7	8,8	8,7	1	1	1	1	1	1	1	1	1	0	1	-13,530655	274,080573	306,429628	0
15.01.2021	20:19:47	0	0	3,389417	2,55375	291,1896	0,13	85,427	0	1016,96	6,7	8,8	8,7	1	1	1	1	1	1	1	1	1	0	1	-8,879493	274,192711	311,604748	0
15.01.2021	20:19:48	0	0	3,615378	2,7645	293,3676	0,126	85,435	0	1016,8	6,7	8,8	8,7	1	1	1	1	1	1	1	1	1	0	1	-11,205074	274,06567	308,685626	0
15.01.2021	20:19:49	0	0	3,615378	2,934	297,1872	0,128	85,434	0	1016,92	6,7	8,8	8,7	1	1	1	1	1	1	1	1	1	0	1	-7,329105	274,20021	313,190198	0
15.01.2021	20:19:50	0	0	3,163456	2,84325	293,742	0,125	85,418	0	1016,86	6,7	8,8	8,7	1	1	1	1	1	1	1	1	1	0	1	-8,315715	274,158252	312,007452	0
15.01.2021	20:19:51	0	0	4,51925	2,751	298,3032	0,117	85,423	0	1016,98	6,7	8,8	8,6	1	1	1	1	1	1	1	1	1	0	1	-7,329105	274,032925	312,408742	0
15.01.2021	20:19:52	0	0	4,745184	2,7045	299,0052	0,122	85,42	0	1016,86	6,7	8,8	8,7	1	1	1	1	1	1	1	1	1	0	1	-11,698379	274,120867	308,450104	0
15.01.2021	20:19:53	0	0	4,858164	2,68725	305,4564	0,121	85,433	0	1017,04	6,7	8,8	8,7	1	1	1	1	1	1	1	1	1	0	1	-8,668076	274,20321	311,865256	0
15.01.2021	20:19:54	0	0	2,937495	2,77275	294,1416	0,122	85,427	0	1016,82	6,7	8,8	8,7	1	1	1	1	1	1	1	1	1	0	1	-8,45666	274,15077	311,831538	0
15.01.2021	20:19:55	0	0	2,937495	2,9535	301,1544	0,121	85,434	0	1017,18	6,7	8,8	8,7	1	1	1	1	1	1	1	1	1	0	1	-11,980268	274,0359	307,771462	0
15.01.2021	20:19:56	0	0	4,519223	3,0855	306,4608	0,126	85,413	0	1016,84	6,7	9	8,7	1	1	1	1	1	1	1	1	1	0	1	-9,795631	274,043338	309,990818	0
15.01.2021	20:19:57	0	0	3,050475	3,114	310,3236	0,12	85,435	0	1016,86	6,7	8,8	8,7	1	1	1	1	1	1	1	1	1	0	1	-7,892882	274,053757	311,942199	0
15.01.2021	20:19:58	0	0	3,728359	2,97975	311,004	0,123	85,426	0	1016,92	6,7	8,8	8,7	1	1	1	1	1	1	1	1	1	0	1	-12,966878	274,058223	306,889055	0
15.01.2021	20:19:59	0	0	4,180281	2,991	304,2792	0,123	85,431	0	1016,88	6,7	8,8	8,7	1	1	1	1	1	1	1	1	1	0	1	-8,879493	274,213715	311,702963	0
15.01.2021	20:20:00	0	0	2,824514	2,871	297,5904	0,116	85,422	0	1016,76	6,7	8,8	8,7	1	1	1	1	1	1	1	1	1	0	1	-9,725159	274,189712	310,745062	0
15.01.2021	20:20:01	0	0	2,937495	2,76675	309,5496	0,125	85,428	0	1016,96	6,7	8,8	8,7	1	1	1	1	1	1	1	1	1	0	1	-8,668076	274,049291	311,146158	0
15.01.2021	20:20:02	0	0	4,632203	2,83875	304,9668	0,119	85,434	0	1016,92	6,7	8,8	8,7	1	1	1	1	1	1	1	1	1	0	1	-11,06413	274,107427	309,021567	0
15.01.2021	20:20:03	0	0	3,163456	2,9445	310,7448	0,122	85,427	0	1016,8	6,7	8,8	8,7	1	1	1	1	1	1	1	1	1	0	1	-5,708245	274,082064	314,259	0
15.01.2021	20:20:04	0	0	4,180281	3,18975	292,5576	0,123	85,432	0	1017,02	6,7	8,8	8,7	1	1	1	1	1	1	1	1	1	0	1	-5,990134	274,170231	314,38902	0
15.01.2021	20:20:05	0	0	3,163456	3,1785	302,796	0,118	85,428	0	1017,04	6,7	8,8	8,7	1	1	1	1	1	1	1	1	1	0	1	-9,302326	274,064181	310,58142	0
15.01.2021	20:20:06	0	0	2,598553	3,09825	300,5208	0,122	85,425	0	1016,9	6,7	8,8	8,7	1	1	1	1	1	1	1	1	1	0	1	-8,949965	274,082064	311,01728	0
15.01.2021	20:20:07	0	0	4,745184	3,08925	304,9848	0,125	85,422	0	1016,86	6,7	8,8	8,7	1	1	1	1	1	1	1	1	1	0	1	-8,174771	274,170231	312,204383	0
15.01.2021	20:20:08	0	0	3,502398	3,02325	306,1368	0,116	85,425	0	1016,98	6,7	8,8	8,7	1	1	1	1	1	1	1	1	1	0	1	-10,993658	274,20321	309,539675	0
15.01.2021	20:20:09	0	0	2,372592	2,93475	313,1892	0,125	85,422	0	1016,94	6,7	8,8	8,7	1	1	1	1	1	1	1	1	1	0	1	-9,513742	274,052268	310,31439	0
15.01.2021	20:20:10	0	0	3,276436	2,9655	306,4104	0,117	85,419	0	1016,78	6,7	8,8	8,7	1	1	1	1	1	1	1	1	1	0	1	-9,231853	274,168733	311,1403	0
15.01.2021	20:20:11	0	0	3,95432	2,979	314,4132	0,114	85,402	0	1016,9	6,7	8,8	8,7	1	1	1	1	1	1	1	1	1	0	1	-5,426357	274,046314	314,373984	0
15.01.2021	20:20:12	0	0	2,485572	2,95875	315,8496	0,12	85,418	0	1016,94	6,7	8,8	8,7	1	1	1	1	1	1	1	1	1	0	1	-11,839323	274,06716	308,058332	0
15.01.2021	20:20:13	0	0	3,841339	2,75625	320,364	0,121	85,429	0	1016,78	6,7	8,8	8,7	1	1	1	1	1	1	1	1	1	0	1	-11,557435	274,186713	308,898768	0
15.01.2021	20:20:14	0	0	4,293261	2,50875	331,164	0,119	85,423	0	1017,02	6,7	8,8	8,7	1	1	1	1	1	1	1	1	1	0	1	-11,06413	274,20321	309,469202	0
15.01.2021	20:20:15	0	0	2,259611	2,45925	315,9036	0,122	85,426	0	1017,08	6,8	8,8	8,7	1	1	1	1	1	1	1	1	1	0	1	-8,174771	274,120867	311,973712	0
15.01.2021	20:20:16	0	0	3,615378	2,457	316,6092	0,123	85,43	0	1016,8	6,7	8,8	8,7	1	1	1	1	1	1	1	1	1	0	1	-13,601128	274,213715	306,981328	0
15.01.2021	20:20:17	0	0	2,711534	2,29725	312,4584	0,112	85,411	0	1016,82	6,7	8,8	8,7	1	1	1	1	1	1	1	1	1	0	1	-12,191684	274,077591	307,754677	0
15.01.2021	20:20:18	0	0	2,485572	2,31675	318,4812	0,119	85,414	0	1016,96	6,7	8,8	8,7	1	1	1	1	1	1	1	1	1	0	1	-11,41649	274,043338	308,369958	0
15.01.2021	20:20:19	0	0	4,180281	2,304	310,6764	0,119	85,416	0	1016,84	6,7	8,8	8,7	1	1	1	1	1	1	1	1	1	0	1	-8,033827	274,168733	312,338326	0
15.01.2021	20:20:20	0	0	4,858164	2,178	313,254	0,115	85,43	0	1017,1	6,7	8,8	8,7	1	1	1	1	1	1	1	1	1	0	1	-10,923185	274,052268	308,904946	0
15.01.2021	20:20:21	0	0	5,084125	2,0385	315,918	0,116	85,423	0	1017	6,7	8,8	8,7	1	1	1	1	1	1	1	1	1	0	1	-7,610994	274,159749	312,71917	0
15.01.2021	20:20:22	0	0	4,406242	1,94475	300,42	0,116	85,418	0	1016,9	6,7	8,8	8,7	1	1	1	1	1	1	1	1	1	0	1	-11,346018	274,059713	308,516867	0
15.01.2021	20:20:23	0	0	4,293261	1,962	304,6536	0,125	85,426	0	1016,9	6,7	8,8	8,7	1	1	1	1	1	1	1	1	1	0	1	-10,500352	274,052268	309,327779	0
15.01.2021	20:20:24	0	0	4,858164	1,92225	300,87	0,117	85,428	0	1016,98	6,8	8,8	8,7	1	1	1	1	1	1	1	1	1	0	1	-6,906272	274,132823	313,298065	0
15.01.2021	20:20:25	0	0	4,293261	1,93425	303,8688	0,117	85,424	0	1016,72	6,7	8,8	8,7	1	1	1	1	1	1	1	1	1	0	1	-6,272023	274,034413	313,472766	0
15.01.2021	20:20:26	0	0	4,858164	1,94025	309,636	0,119	85,433	0	1016,84	6,7	8,8	8,7	1	1	1	1	1	1	1	1	1	0	1	-10,42988	274,140298	309,809388	0
15.01.2021	20:20:27	0	0	2,711534	2,01825	304,992	0,118	85,43	0	1016,98	6,7	8,8	8,7	1	1	1	1	1	1	1	1	1	0	1	-11,627907	274,028464	308,089121	0
15.01.2021	20:20:28	0	0	2,824514	2,11725	293,7096	0,117	85,424	0	1016,94	6,7	8,8	8,7	1	1	1	1	1	1	1	1	1	0	1	-4,439746	274,092503	315,57625	0
15.01.2021	20:20:29	0	0	3,050475	2,15475	279,1296	0,116	85,413	0	1017	6,7	8,8	8,7	1	1	1	1	1	1	1	1	1	0	1	-8,033827	274,206211	312,513538	0
15.01.2021	20:20:30	0	0	3,050475	2,27475	295,596	0,119	85,422	0	1016,98	6,7	8,8	8,7	1	1	1	1	1	1	1	1	1	0	1	-10,711769	274,231738	309,954975	0
15.01.2021	20:20:31	0	0	4,858164	2,3265	304,6068	0,116	85,428	0	1016,88	6,7	8,8	8,7	1	1	1	1	1	1	1	1	1	0	1	-8,033827	274,104441	312,037925	0
15.01.2021	20:20:32	0	0	3,050475	2,229	306,1152	0,116	85,435	0	1016,98	6,7	8,8	8,7	1	1	1	1	1	1	1	1	1	0	1	-6,060606	274,031438	313,670301	0
15.01.2021	20:20:33	0	0	4,0673	2,247	294,8004	0,114	85,416	0	1016,84	6,7	8,8	8,7	1	1	1	1	1	1	1	1	1	0	1	-10,007047	274,096979	310,029853	0
15.01.2021	20:20:34	0	0	2,937495	2,27175	294,8544	0,113	85,415	0	1016,96	6,7	8,8	8,7	1	1	1	1	1	1	1	1	1	0	1	-12,473573	274,218219	308,129946	0
15.01.2021	20:20:35	0	0	3,163456	2,2755	299,3652	0,117	85,433	0	1016,82	6,7	8,8	8,7	1	1	1	1	1	1	1	1	1	0	1	-9,302326	274,116386	310,825223	0
15.01.2021	20:20:36	0	0	2,937495	2,214	296,7948	0,113	85,424	0	1016,94	6,7	8,8	8,7	1	1	1	1	1	1	1	1	1	0	1	-10,288936	274,213715	310,29352	0
15.01.2021	20:20:37	0	0	4,406242	2,17425	294,0876	0,113	85,426	0	1016,98	6,7	8,8	8,7	1	1	1	1	1	1	1	1	1	0	1	-14,023961	274,144785	306,236273	0
15.01.2021	20:20:38	0	0	2,598553	2,15175	296,7588	0,121	85,445	0	1017	6,7	8,8	8,7	1	1	1	1	1	1	1	1	1	0	1	-8,80902	274,038875	310,956595	0
15.01.2021	20:20:39	0	0	2,937495	2,064	296,7696	0,111	85,429	0	1016,86	6,7	8,8	8,7	1	1	1	1	1	1	1	1	1	0	1	-11,275546	274,158252	309,047622	0
15.01.2021	20:20:40	0	0	3,615378	1,9425	290,3976	0,119	85,416	0	1016,82	6,7	9	8,7	1	1	1	1	1	1	1	1	1	0	1	-11,275546	274,213715	309,30691	0
15.01.2021	20:20:41	0	0	3,95432	1,8315	308,9088	0,114	85,423	0	1016,98	6,7	8,8	8,7	1	1	1	1	1	1	1	1	1	0	1	-10,923185	274,119373	309,218319	0
15.01.2021	20:20:42	0	0	4,519223	1,7715	319,9608	0,111	85,409	0	1016,9	6,7	8,8	8,7	1	1	1	1	1	1	1	1	1	0	1	-9,725159	274,225728	310,913479	0
15.01.2021	20:20:43	0	0	3,276436	1,66425	314,4672	0,117	85,432	0	1016,84	6,7	8,8	8,7	1	1	1	1	1	1	1	1	1	0	1	-12,05074	274,167235	308,314413	0
15.01.2021	20:20:44	0	0	2,372592	1,5945	299,0448	0,116	85,423	0	1016,84	6,7	8,8	8,7	1	1	1	1	1	1	1	1	1	0	1	-8,033827	274,043338	311,752622	0
15.01.2021	20:20:45	0	0	4,745184	1,644	310,3416	0,117	85,415	0	1017,16	6,7	8,8	8,7	1	1	1	1	1	1	1	1	1	0	1	-6,20155	274,146281	314,065674	0
15.01.2021	20:20:46	0	0	3,502398	1,62825	296,8524	0,123	85,435	0	1016,92	6,7	8,8	8,7	1	1	1	1	1	1	1	1	1	0	1	-6,060606	274,04185	313,718897	0
15.01.2021	20:20:47	0	0	2,937495	1,62975	299,3652	0,119	85,429	0	1016,98	6,7	8,8	8,7	1	1	1	1	1	1	1	1	1	0	1	-8,949965	274,111906	311,156655	0
15.01.2021	20:20:48	0	0	3,163456	1,63725	289,1952	0,12	85,414	0	1016,86	6,8	8,8	8,7	1	1	1	1	1	1	1	1	1	0	1	-7,892882	274,221223	312,724682	0
15.01.2021	20:20:49	0	0	4,519223	1,70025	288,8568	0,118	85,402	0	1016,92	6,7	8,8	8,7	1	1	1	1	1	1	1	1	1	0	1	-11,768851	274,111906	308,337768	0
15.01.2021	20:20:50	0	0	2,372592	1,8585	296,1216	0,115	85,407	0	1017	6,7	8,8	8,7	1	1	1	1	1	1	1	1	1	0	1	-7,258633	274,228733	313,394056	0
15.01.2021	20:20:51	0	0	4,519223	1,91775	306,5292	0,119	85,42	0	1017	6,7	8,8	8,7	1	1	1	1	1	1	1	1	1	0	1	-9,584214	274,105934	310,49451	0
15.01.2021	20:20:52	0	0	4,0673	1,785	300,186	0,119	85,411	0	1016,92	6,7	8,8	8,7	1	1	1	1	1	1	1	1	1	0	1	-9,44327	274,215217	311,146206	0
15.01.2021	20:20:53	0	0	2,824514	1,7445	298,3248	0,118	85,427	0	1016,96	6,7	8,8	8,7	1	1	1	1	1	1	1	1	1	0	1	-6,553911	274,20021	313,965391	0
15.01.2021	20:20:54	0	0	4,0673	1,80975	298,98	0,115	85,427	0	1016,96	6,7	8,8	8,7	1	1	1	1	1	1	1	1	1	0	1	-12,544045	274,186713	307,912158	0
15.01.2021	20:20:55	0	0	2,824514	1,83	302,1048	0,12	85,423	0	1016,96	6,7	8,8	8,7	1	1	1	1	1	1	1	1	1	0	1	-11,557435	274,050779	308,263748	0
15.01.2021	20:20:56	0	0	4,858164	1,8765	297,882	0,117	85,428	0	1016,74	6,7	8,8	8,7	1	1	1	1	1	1	1	1	1	0	1	-12,825934	274,099963	307,224905	0
15.01.2021	20:20:57	0	0	3,6154	1,88775	296,8092	0,123	85,427	0	1016,86	6,7	8,8	8,6	1	1	1	1	1	1	1	1	1	0	1	-4,792107	274,212214	315,783329	0
15.01.2021	20:20:58	0	0	4,406242	2,01825	287,424	0,112	85,409	0	1016,86	6,7	8,8	8,7	1	1	1	1	1	1	1	1	1	0	1	-12,896406	274,207712	307,657975	0
15.01.2021	20:20:59	0	0	3,389417	1,986	306,5112	0,112	85,429	0	1016,88	6,7	8,8	8,7	1	1	1	1	1	1	1	1	1	0	1	-11,698379	274,095487	308,331552	0
15.01.2021	20:21:00	0	0	4,0673	1,9185	295,5456	0,118	85,427	0	1016,98	6,7	8,8	8,7	1	1	1	1	1	1	1	1	1	0	1	-12,473573	274,219721	308,136968	0
15.01.2021	20:21:01	0	0	4,519223	1,857	303,6348	0,118	85,417	0	1016,82	6,7	8,8	8,7	1	1	1	1	1	1	1	1	1	0	1	-8,174771	274,155259	312,134407	0
15.01.2021	20:21:02	0	0	4,180281	1,9545	295,218	0,118	85,426	0	1016,92	6,7	8,8	8,7	1	1	1	1	1	1	1	1	1	0	1	-12,473573	274,219721	308,136968	0
15.01.2021	20:21:03	0	0	2,485572	2,0505	297,5508	0,119	85,419	0	1016,88	6,7	8,8	8,7	1	1	1	1	1	1	1	1	1	0	1	-7,047216	274,110413	313,052428	0
15.01.2021	20:21:04	0	0	2,824514	2,03175	289,5012	0,117	85,426	0	1016,88	6,7	8,8	8,7	1	1	1	1	1	1	1	1	1	0	1	-10,570825	274,236246	310,117006	0
15.01.2021	20:21:05	0	0	4,971145	2,09025	298,6956	0,122	85,429	0	1016,98	6,8	8,8	8,7	1	1	1	1	1	1	1	1	1	0	1	-9,090909	274,096979	310,945991	0
15.01.2021	20:21:06	0	0	3,841339	2,17425	304,776	0,119	85,423	0	1016,8	6,7	8,8	8,7	1	1	1	1	1	1	1	1	1	0	1	-10,288936	274,170231	310,090218	0
15.01.2021	20:21:07	0	0	3,163456	2,14725	300,5244	0,116	85,417	0	1016,9	6,7	8,8	8,7	1	1	1	1	1	1	1	1	1	0	1	-11,557435	274,183716	308,884753	0
15.01.2021	20:21:08	0	0	4,0673	2,112	306,3708	0,124	85,433	0	1016,98	6,7	9	8,7	1	1	1	1	1	1	1	1	1	0	1	-8,245243	274,047803	311,562044	0
15.01.2021	20:21:09	0	0	3,95432	2,24775	288,7992	0,12	85,414	0	1016,88	6,8	8,8	8,7	1	1	1	1	1	1	1	1	1	0	1	-7,117689	274,147777	313,156526	0
15.01.2021	20:21:10	0	0	4,858164	2,31375	312,4116	0,124	85,415	0	1017,08	6,7	8,8	8,7	1	1	1	1	1	1	1	1	1	0	1	-9,654686	274,216718	310,941811	0
15.01.2021	20:21:11	0	0	3,728359	2,3775	292,6332	0,112	85,419	0	1016,88	6,7	8,8	8,7	1	1	1	1	1	1	1	1	1	0	1	-14,65821	274,158252	305,664958	0
15.01.2021	20:21:12	0	0	2,598553	2,36475	300,1788	0,118	85,423	0	1016,96	6,7	8,8	8,7	1	1	1	1	1	1	1	1	1	0	1	-12,473573	274,221223	308,143991	0
15.01.2021	20:21:13	0	0	3,95432	2,27475	298,7424	0,12	85,425	0	1016,88	6,7	8,8	8,7	1	1	1	1	1	1	1	1	1	0	1	-9,866103	274,167235	310,49905	0
15.01.2021	20:21:14	0	0	3,95432	2,19675	302,8464	0,124	85,429	0	1016,8	6,7	9	8,7	1	1	1	1	1	1	1	1	1	0	1	-10,500352	274,218219	310,103167	0
15.01.2021	20:21:15	0	0	3,502398	2,1045	307,5876	0,12	85,422	0	1017,06	6,7	8,8	8,7	1	1	1	1	1	1	1	1	1	0	1	-8,315715	274,171729	312,070439	0
15.01.2021	20:21:16	0	0	2,598553	2,09925	283,1616	0,118	85,395	0	1016,94	6,8	8,8	8,7	1	1	1	1	1	1	1	1	1	0	1	-9,866103	274,219721	310,744438	0
15.01.2021	20:21:17	0	0	4,293261	2,12625	305,3448	0,12	85,408	0	1017	6,7	8,8	8,7	1	1	1	1	1	1	1	1	1	0	1	-10,42988	274,135813	309,788427	0
15.01.2021	20:21:18	0	0	4,519223	2,115	300,0852	0,12	85,418	0	1016,98	6,7	8,8	8,7	1	1	1	1	1	1	1	1	1	0	1	-12,332629	274,224226	308,298984	0
15.01.2021	20:21:19	0	0	4,0673	2,0415	303,498	0,111	85,399	0	1016,76	6,7	8,8	8,7	1	1	1	1	1	1	1	1	1	0	1	-6,624383	274,146281	313,642841	0
15.01.2021	20:21:20	0	0	2,485572	2,14425	308,4588	0,119	85,399	0	1016,98	6,7	8,8	8,7	1	1	1	1	1	1	1	1	1	0	1	-12,332629	274,173227	308,060528	0
15.01.2021	20:21:21	0	0	4,745184	2,28825	308,1348	0,119	85,412	0	1017	6,7	8,8	8,7	1	1	1	1	1	1	1	1	1	0	1	-9,654686	274,218219	310,948833	0
15.01.2021	20:21:22	0	0	2,485572	2,31975	308,898	0,124	85,411	0	1016,92	6,8	8,8	8,7	1	1	1	1	1	1	1	1	1	0	1	-8,386187	274,122361	311,769275	0
15.01.2021	20:21:23	0	0	4,632203	2,27775	312,282	0,117	85,417	0	1016,96	6,7	8,8	8,7	1	1	1	1	1	1	1	1	1	0	1	-9,44327	274,216718	311,153227	0
15.01.2021	20:21:24	0	0	4,0673	2,232	307,5876	0,118	85,421	0	1016,82	6,7	8,8	8,7	1	1	1	1	1	1	1	1	1	0	1	-10,500352	274,116386	309,627196	0
15.01.2021	20:21:25	0	0	2,259611	2,1525	303,5196	0,119	85,414	0	1016,86	6,7	8,8	8,7	1	1	1	1	1	1	1	1	1	0	1	-6,8358	274,04185	312,943703	0
15.01.2021	20:21:26	0	0	4,971145	2,05425	314,1072	0,119	85,405	0	1016,78	6,7	8,8	8,7	1	1	1	1	1	1	1	1	1	0	1	-8,949965	274,11788	311,184561	0
15.01.2021	20:21:27	0	0	4,406242	1,92375	315,2088	0,113	85,387	0	1016,96	6,7	8,8	8,7	1	1	1	1	1	1	1	1	1	0	1	-7,188161	274,225728	313,450476	0
15.01.2021	20:21:28	0	0	2,937495	2,06475	306,18	0,121	85,413	0	1016,86	6,7	9	8,7	1	1	1	1	1	1	1	1	1	0	1	-10,782241	274,08952	309,219823	0
15.01.2021	20:21:29	0	0	2,485572	2,27475	306,5004	0,115	85,405	0	1016,86	6,7	8,8	8,7	1	1	1	1	1	1	1	1	1	0	1	-10,42988	274,04185	309,349623	0
15.01.2021	20:21:30	0	0	4,632203	2,37675	317,0268	0,118	85,397	0	1016,9	6,7	8,8	8,7	1	1	1	1	1	1	1	1	1	0	1	-14,869626	274,110413	305,230018	0
15.01.2021	20:21:31	0	0	4,519223	2,49975	311,6844	0,12	85,422	0	1016,96	6,7	8,8	8,7	1	1	1	1	1	1	1	1	1	0	1	-8,104299	274,23324	312,569473	0
15.01.2021	20:21:32	0	0	3,728359	2,5725	317,322	0,118	85,411	0	1016,94	6,7	9	8,7	1	1	1	1	1	1	1	1	1	0	1	-7,751938	274,135813	312,46637	0
15.01.2021	20:21:33	0	0	3,95432	2,487	320,7996	0,119	85,404	0	1016,92	6,8	8,8	8,7	1	1	1	1	1	1	1	1	1	0	1	-6,060606	274,23324	314,613166	0
15.01.2021	20:21:34	0	0	4,745184	2,44125	319,5504	0,115	85,391	0	1016,74	6,7	8,8	8,7	1	1	1	1	1	1	1	1	1	0	1	-12,05074	274,126844	308,125665	0
15.01.2021	20:21:35	0	0	4,971145	2,38425	314,8704	0,121	85,394	0	1016,96	6,7	8,8	8,7	1	1	1	1	1	1	1	1	1	0	1	-9,161381	274,212214	311,414055	0
15.01.2021	20:21:36	0	0	2,937495	2,31525	315,522	0,118	85,388	0	1017,06	6,7	8,8	8,7	1	1	1	1	1	1	1	1	1	0	1	-13,389711	274,110413	306,709934	0
15.01.2021	20:21:37	0	0	4,858164	2,25975	314,0496	0,114	85,391	0	1016,94	6,8	8,8	8,7	1	1	1	1	1	1	1	1	1	0	1	-13,953488	274,219721	306,657053	0
15.01.2021	20:21:38	0	0	4,293261	2,187	321,4368	0,121	85,392	0	1016,86	6,7	8,8	8,7	1	1	1	1	1	1	1	1	1	0	1	-6,694856	274,167235	313,670298	0
15.01.2021	20:21:39	0	0	3,841339	2,091	308,1492	0,122	85,393	0	1017,06	6,7	8,8	8,7	1	1	1	1	1	1	1	1	1	0	1	-9,44327	274,037387	310,315402	0
15.01.2021	20:21:40	0	0	2,598553	2,0475	316,2672	0,116	85,388	0	1016,62	6,7	8,8	8,7	1	1	1	1	1	1	1	1	1	0	1	-5,84919	274,102948	314,21559	0
15.01.2021	20:21:41	0	0	4,745184	2,2095	281,4084	0,121	85,383	0	1016,96	6,7	8,8	8,7	1	1	1	1	1	1	1	1	1	0	1	-9,090909	274,207712	311,463472	0
15.01.2021	20:21:42	0	0	4,519223	2,49525	288,5508	0,119	85,375	0	1016,82	6,7	8,8	8,7	1	1	1	1	1	1	1	1	1	0	1	-8,738548	274,096979	311,298351	0
15.01.2021	20:21:43	0	0	3,728359	2,7225	294,1128	0,12	85,379	0	1016,94	6,8	8,8	8,7	1	1	1	1	1	1	1	1	1	0	1	-7,963354	274,222724	312,661233	0
15.01.2021	20:21:44	0	0	3,615378	2,769	287,0028	0,119	85,371	0	1017,08	6,7	8,8	8,7	1	1	1	1	1	1	1	1	1	0	1	-7,892882	274,131328	312,304471	0
15.01.2021	20:21:45	0	0	2,485572	2,90475	292,6044	0,117	85,386	0	1016,76	6,8	8,8	8,7	1	1	1	1	1	1	1	1	1	0	1	-8,245243	274,046314	311,555097	0
15.01.2021	20:21:46	0	0	3,502398	2,886	295,686	0,118	85,392	0	1016,92	6,7	8,8	8,7	1	1	1	1	1	1	1	1	1	0	1	-12,825934	274,171729	307,560221	0
15.01.2021	20:21:47	0	0	3,841339	2,766	289,4976	0,122	85,381	0	1016,94	6,7	8,8	8,7	1	1	1	1	1	1	1	1	1	0	1	-10,711769	274,192711	309,772472	0
15.01.2021	20:21:48	0	0	4,632203	2,67975	288,4716	0,136	85,392	0	1016,98	6,7	8,8	8,7	1	1	1	1	1	1	1	1	1	0	1	-8,527132	274,173227	311,866025	0
15.01.2021	20:21:49	0	0	3,615378	2,44125	307,2708	0,117	85,364	0	1016,9	6,7	8,8	8,7	1	1	1	1	1	1	1	1	1	0	1	-12,05074	274,240755	308,658183	0
15.01.2021	20:21:50	0	0	2,598553	2,2545	300,24	0,115	85,374	0	1016,88	6,7	8,8	8,7	1	1	1	1	1	1	1	1	1	0	1	-10,077519	274,155259	310,231658	0
15.01.2021	20:21:51	0	0	2,824514	2,13825	290,862	0,113	85,381	0	1017	6,8	8,8	8,7	1	1	1	1	1	1	1	1	1	0	1	-6,906272	274,218219	313,697247	0
15.01.2021	20:21:52	0	0	2,824514	1,92	297,216	0,115	85,367	0	1016,86	6,8	8,8	8,7	1	1	1	1	1	1	1	1	1	0	1	-9,513742	274,20171	311,012575	0
15.01.2021	20:21:53	0	0	3,728359	1,78575	274,68	0,117	85,373	0	1016,76	6,7	8,8	8,7	1	1	1	1	1	1	1	1	1	0	1	-10,359408	274,085046	309,621763	0
15.01.2021	20:21:54	0	0	2,937495	1,79625	259,5636	0,118	85,377	0	1016,82	6,7	8,8	8,7	1	1	1	1	1	1	1	1	1	0	1	-6,272023	274,07014	313,639546	0
15.01.2021	20:21:55	0	0	2,824514	1,824	308,9268	0,113	85,358	0	1016,84	6,8	8,8	8,7	1	1	1	1	1	1	1	1	1	0	1	-7,82241	274,049291	311,991824	0
15.01.2021	20:21:56	0	0	4,858164	1,89225	302,058	0,11	85,348	0	1016,98	6,7	8,8	8,7	1	1	1	1	1	1	1	1	1	0	1	-10,500352	274,114893	309,620219	0
15.01.2021	20:21:57	0	0	3,502398	2,0685	298,7028	0,115	85,365	0	1016,78	6,7	8,8	8,7	1	1	1	1	1	1	1	1	1	0	1	-8,879493	274,059713	310,983393	0
15.01.2021	20:21:58	0	0	3,050475	2,24925	304,2756	0,122	85,377	0	1017,08	6,7	8,8	8,7	1	1	1	1	1	1	1	1	1	0	1	-10,147992	274,104441	309,92376	0
15.01.2021	20:21:59	0	0	2,485572	2,487	304,2576	0,12	85,37	0	1016,96	6,7	8,8	8,7	1	1	1	1	1	1	1	1	1	0	1	-7,399577	274,224226	313,232035	0
15.01.2021	20:22:00	0	0	4,971145	2,5905	304,2648	0,117	85,369	0	1016,76	6,8	8,8	8,7	1	1	1	1	1	1	1	1	1	0	1	-8,668076	274,096979	311,368824	0
15.01.2021	20:22:01	0	0	4,406242	2,565	313,1676	0,117	85,381	0	1016,96	6,8	8,8	8,7	1	1	1	1	1	1	1	1	1	0	1	-12,191684	274,06567	307,699016	0
15.01.2021	20:22:02	0	0	3,841339	2,54775	297,6408	0,116	85,384	0	1016,9	6,7	8,8	8,7	1	1	1	1	1	1	1	1	1	0	1	-8,738548	274,077591	311,207813	0
15.01.2021	20:22:03	0	0	4,180281	2,42475	297,2196	0,118	85,372	0	1016,88	6,7	8,8	8,7	1	1	1	1	1	1	1	1	1	0	1	-9,513742	274,055245	310,328289	0
15.01.2021	20:22:04	0	0	2,372592	2,364	296,1072	0,116	85,362	0	1016,94	6,7	8,8	8,7	1	1	1	1	1	1	1	1	1	0	1	-9,725159	274,055245	310,116873	0
15.01.2021	20:22:05	0	0	2,598553	2,30475	291,8952	0,12	85,369	0	1016,88	6,7	8,8	8,7	1	1	1	1	1	1	1	1	1	0	1	-10,007047	274,212214	310,568389	0
15.01.2021	20:22:06	0	0	2,711534	2,2515	298,3356	0,115	85,377	0	1016,84	6,7	8,8	8,7	1	1	1	1	1	1	1	1	1	0	1	-6,906272	274,20171	313,620045	0
15.01.2021	20:22:07	0	0	3,95432	2,118	280,6488	0,119	85,375	0	1016,98	6,7	8,8	8,7	1	1	1	1	1	1	1	1	1	0	1	-7,399577	274,212214	313,175859	0
15.01.2021	20:22:08	0	0	4,519223	2,11425	283,014	0,117	85,367	0	1016,88	6,7	8,8	8,7	1	1	1	1	1	1	1	1	1	0	1	-12,473573	274,191211	308,003657	0
15.01.2021	20:22:09	0	0	3,841339	2,2515	296,8164	0,124	85,383	0	1017	6,7	8,8	8,7	1	1	1	1	1	1	1	1	1	0	1	-13,460183	274,227231	307,18548	0
15.01.2021	20:22:10	0	0	5,197106	2,3865	296,0784	0,112	85,372	0	1016,84	6,7	8,8	8,7	1	1	1	1	1	1	1	1	1	0	1	-5,21494	274,102948	314,84984	0
15.01.2021	20:22:11	0	0	3,728359	2,4375	291,8232	0,119	85,371	0	1016,92	6,7	8,8	8,7	1	1	1	1	1	1	1	1	1	0	1	-9,936575	274,227231	310,709088	0
15.01.2021	20:22:12	0	0	3,615378	2,38875	287,0064	0,12	85,384	0	1016,98	6,7	8,8	8,7	1	1	1	1	1	1	1	1	1	0	1	-12,896406	274,062691	306,980386	0
15.01.2021	20:22:13	0	0	4,745184	2,39175	297,954	0,119	85,369	0	1016,84	6,7	8,8	8,7	1	1	1	1	1	1	1	1	1	0	1	-8,738548	274,185214	311,710647	0
15.01.2021	20:22:14	0	0	4,180281	2,50275	294,4332	0,119	85,37	0	1016,92	6,7	8,8	8,7	1	1	1	1	1	1	1	1	1	0	1	-8,315715	274,162743	312,028442	0
15.01.2021	20:22:15	0	0	3,841339	2,58075	286,9848	0,116	85,342	0	1016,92	6,7	8,8	8,7	1	1	1	1	1	1	1	1	1	0	1	-5,990134	274,043338	313,796314	0
15.01.2021	20:22:16	0	0	4,745184	2,56725	284,0796	0,115	85,34	0	1016,92	6,8	8,8	8,7	1	1	1	1	1	1	1	1	1	0	1	-11,557435	274,128339	308,625952	0
15.01.2021	20:22:17	0	0	3,163456	2,385	279,198	0,12	85,364	0	1016,96	6,7	8,8	8,7	1	1	1	1	1	1	1	1	1	0	1	-9,795631	274,062691	310,081161	0
15.01.2021	20:22:18	0	0	3,276436	2,322	294,192	0,118	85,362	0	1016,96	6,7	8,8	8,7	1	1	1	1	1	1	1	1	1	0	1	-10,782241	274,168733	309,589912	0
15.01.2021	20:22:19	0	0	2,824514	2,3625	285,606	0,122	85,343	0	1016,94	6,7	8,8	8,7	1	1	1	1	1	1	1	1	1	0	1	-9,372798	274,234743	311,308003	0
15.01.2021	20:22:20	0	0	3,615378	2,29725	298,7856	0,118	85,362	0	1016,76	6,8	8,8	8,7	1	1	1	1	1	1	1	1	1	0	1	-9,725159	274,113399	310,388437	0
15.01.2021	20:22:21	0	0	4,519223	2,3175	301,5864	0,112	85,334	0	1016,94	6,7	8,8	8,7	1	1	1	1	1	1	1	1	1	0	1	-10,570825	274,049291	309,24341	0
15.01.2021	20:22:22	0	0	2,824514	2,21325	302,5548	0,124	85,353	0	1016,96	6,7	8,8	8,7	1	1	1	1	1	1	1	1	1	0	1	-13,530655	274,153762	306,771528	0
15.01.2021	20:22:23	0	0	4,632203	2,283	315,2628	0,125	85,35	0	1016,8	6,7	9	8,7	1	1	1	1	1	1	1	1	1	0	1	-8,033827	274,230235	312,625889	0
15.01.2021	20:22:24	0	0	3,615378	2,33925	309,3192	0,122	85,341	0	1016,84	6,7	8,8	8,7	1	1	1	1	1	1	1	1	1	0	1	-9,795631	274,116386	310,331918	0
15.01.2021	20:22:25	0	0	2,485572	2,23125	299,3832	0,113	85,334	0	1016,94	6,7	8,8	8,7	1	1	1	1	1	1	1	1	1	0	1	-11,627907	274,225728	309,01073	0
15.01.2021	20:22:26	0	0	3,615378	2,22075	304,2972	0,114	85,337	0	1017	6,7	8,8	8,7	1	1	1	1	1	1	1	1	1	0	1	-8,597604	274,222724	312,026984	0
15.01.2021	20:22:27	0	0	4,745184	2,304	302,4396	0,118	85,339	0	1016,94	6,7	8,8	8,7	1	1	1	1	1	1	1	1	1	0	1	-13,107822	274,176223	307,29934	0
15.01.2021	20:22:28	0	0	4,745184	2,36625	295,5492	0,12	85,343	0	1016,96	6,7	8,8	8,7	1	1	1	1	1	1	1	1	1	0	1	-9,584214	274,107427	310,501483	0
15.01.2021	20:22:29	0	0	2,824514	2,41425	303,4908	0,12	85,339	0	1016,8	6,7	8,8	8,7	1	1	1	1	1	1	1	1	1	0	1	-9,725159	274,236246	310,962672	0
15.01.2021	20:22:30	0	0	4,858164	2,39925	305,4492	0,115	85,331	0	1016,92	6,7	8,8	8,7	1	1	1	1	1	1	1	1	1	0	1	-8,949965	274,101456	311,107844	0
15.01.2021	20:22:31	0	0	4,971145	2,3745	305,7768	0,117	85,332	0	1017	6,7	8,8	8,7	1	1	1	1	1	1	1	1	1	0	1	-12,896406	274,222724	307,728182	0
15.01.2021	20:22:32	0	0	2,824514	2,388	305,3952	0,115	85,333	0	1016,94	6,7	8,8	8,7	1	1	1	1	1	1	1	1	1	0	1	-10,077519	274,07163	309,841006	0
15.01.2021	20:22:33	0	0	3,502398	2,4525	310,2696	0,116	85,326	0	1016,98	6,8	8,8	8,7	1	1	1	1	1	1	1	1	1	0	1	-9,584214	274,049291	310,23002	0
15.01.2021	20:22:34	0	0	3,050475	2,517	304,9992	0,115	85,327	0	1016,88	6,7	8,8	8,7	1	1	1	1	1	1	1	1	1	0	1	-11,486963	274,099963	308,563876	0
15.01.2021	20:22:35	0	0	3,163456	2,454	312,6816	0,118	85,325	0	1017	6,7	8,8	8,7	1	1	1	1	1	1	1	1	1	0	1	-12,121212	274,20321	308,41212	0
15.01.2021	20:22:36	0	0	3,276436	2,319	324,108	0,117	85,319	0	1016,84	6,7	8,8	8,7	1	1	1	1	1	1	1	1	1	0	1	-13,03735	274,206211	307,510014	0
15.01.2021	20:22:37	0	0	4,632203	2,17875	310,7376	0,116	85,322	0	1017,02	6,8	8,8	8,7	1	1	1	1	1	1	1	1	1	0	1	-12,614517	274,19421	307,876734	0
15.01.2021	20:22:38	0	0	4,519223	2,15475	314,8416	0,118	85,33	0	1016,92	6,7	8,8	8,7	1	1	1	1	1	1	1	1	1	0	1	-12,544045	274,177721	307,870121	0
15.01.2021	20:22:39	0	0	2,485572	2,115	309,5352	0,116	85,322	0	1017	6,7	8,8	8,7	1	1	1	1	1	1	1	1	1	0	1	-8,245243	274,043338	311,541205	0
15.01.2021	20:22:40	0	0	3,841339	2,17875	311,4252	0,116	85,327	0	1016,94	6,7	8,8	8,7	1	1	1	1	1	1	1	1	1	0	1	-9,584214	274,11788	310,550312	0
15.01.2021	20:22:41	0	0	2,372592	2,151	319,3344	0,115	85,329	0	1016,78	6,7	8,8	8,7	1	1	1	1	1	1	1	1	1	0	1	-9,090909	274,239252	311,610983	0
15.01.2021	20:22:42	0	0	4,406242	1,98	319,5792	0,111	85,321	0	1016,86	6,7	8,8	8,7	1	1	1	1	1	1	1	1	1	0	1	-5,144468	274,123856	315,017975	0
15.01.2021	20:22:43	0	0	4,745184	1,91475	318,186	0,112	85,324	0	1016,88	6,8	8,8	8,7	1	1	1	1	1	1	1	1	1	0	1	-7,188161	274,06567	312,70254	0
15.01.2021	20:22:44	0	0	2,711534	1,90725	323,316	0,118	85,32	0	1016,88	6,7	8,8	8,7	1	1	1	1	1	1	1	1	1	0	1	-7,681466	274,236246	313,006365	0
15.01.2021	20:22:45	0	0	4,745184	1,97325	333,4824	0,111	85,313	0	1016,72	6,7	8,8	8,7	1	1	1	1	1	1	1	1	1	0	1	-14,446794	274,206211	306,100571	0
15.01.2021	20:22:46	0	0	4,858164	1,944	331,1388	0,117	85,324	0	1016,8	6,7	8,8	8,7	1	1	1	1	1	1	1	1	1	0	1	-7,892882	274,207712	312,661499	0
15.01.2021	20:22:47	0	0	4,632203	1,836	319,1184	0,113	85,326	0	1016,9	6,7	8,8	8,7	1	1	1	1	1	1	1	1	1	0	1	-10,711769	274,215217	309,877707	0
15.01.2021	20:22:48	0	0	4,519223	1,75875	323,7192	0,12	85,321	0	1016,82	6,7	8,8	8,7	1	1	1	1	1	1	1	1	1	0	1	-10,147992	274,176223	310,259171	0
15.01.2021	20:22:49	0	0	2,485572	1,67475	326,448	0,113	85,327	0	1016,88	6,7	8,8	8,7	1	1	1	1	1	1	1	1	1	0	1	-8,879493	274,061202	310,990346	0
15.01.2021	20:22:50	0	0	4,293261	1,5975	317,0376	0,111	85,299	0	1016,96	6,7	8,8	8,7	1	1	1	1	1	1	1	1	1	0	1	-10,288936	274,146281	309,978288	0
15.01.2021	20:22:51	0	0	4,632203	1,55775	318,5496	0,113	85,297	0	1016,88	6,7	8,8	8,7	1	1	1	1	1	1	1	1	1	0	1	-14,517266	274,242259	306,19869	0
15.01.2021	20:22:52	0	0	2,259611	1,53375	314,568	0,113	85,295	0	1016,7	6,7	8,8	8,7	1	1	1	1	1	1	1	1	1	0	1	-11,486963	274,147777	308,787252	0
15.01.2021	20:22:53	0	0	2,937495	1,58475	312,8616	0,108	85,312	0	1016,94	6,7	8,8	8,7	1	1	1	1	1	1	1	1	1	0	1	-16,420014	274,059713	303,442871	0
15.01.2021	20:22:54	0	0	4,971145	1,884	315,5076	0,108	85,31	0	1016,88	6,7	8,8	8,7	1	1	1	1	1	1	1	1	1	0	1	-8,174771	274,186713	312,281432	0
15.01.2021	20:22:55	0	0	4,406242	2,319	306,1476	0,117	85,318	0	1016,84	6,7	8,8	8,7	1	1	1	1	1	1	1	1	1	0	1	-12,262156	274,076101	307,677245	0
15.01.2021	20:22:56	0	0	2,824531	2,4105	297,9252	0,113	85,297	0	1016,94	6,7	8,8	8,6	1	1	1	1	1	1	1	1	1	0	1	-11,275546	274,107427	308,810151	0
15.01.2021	20:22:57	0	0	4,293261	2,37	302,8248	0,113	85,308	0	1017,02	6,7	8,8	8,7	1	1	1	1	1	1	1	1	1	0	1	-7,540521	274,056734	312,308461	0
15.01.2021	20:22:58	0	0	4,858164	2,33625	298,7172	0,114	85,317	0	1016,96	6,7	8,8	8,7	1	1	1	1	1	1	1	1	1	0	1	-7,892882	274,059713	311,970003	0
15.01.2021	20:22:59	0	0	4,519223	2,33925	297,5724	0,11	85,305	0	1016,76	6,8	8,8	8,7	1	1	1	1	1	1	1	1	1	0	1	-9,231853	274,183716	311,210335	0
15.01.2021	20:23:00	0	0	3,389417	2,35125	304,6572	0,113	85,314	0	1016,9	6,7	8,8	8,7	1	1	1	1	1	1	1	1	1	0	1	-4,651163	274,228733	316,001526	0
15.01.2021	20:23:01	0	0	2,598553	2,33625	293,3676	0,114	85,322	0	1016,9	6,8	8,8	8,7	1	1	1	1	1	1	1	1	1	0	1	-7,681466	274,107427	312,404231	0
15.01.2021	20:23:02	0	0	2,711534	2,44125	306,162	0,121	85,315	0	1017,04	6,7	8,8	8,7	1	1	1	1	1	1	1	1	1	0	1	-9,090909	274,052268	310,737222	0
15.01.2021	20:23:03	0	0	3,050475	2,48025	302,184	0,113	85,3	0	1016,92	6,7	8,8	8,7	1	1	1	1	1	1	1	1	1	0	1	-7,470049	274,059713	312,392836	0
15.01.2021	20:23:04	0	0	3,502419	2,53725	302,1048	0,113	85,301	0	1017	6,8	8,8	8,6	1	1	1	1	1	1	1	1	1	0	1	-10,641297	274,189712	309,828924	0
15.01.2021	20:23:05	0	0	4,858164	2,64375	310,3092	0,116	85,309	0	1016,78	6,7	8,8	8,7	1	1	1	1	1	1	1	1	1	0	1	-9,654686	274,225728	310,983951	0
15.01.2021	20:23:06	0	0	4,406242	2,66025	304,668	0,116	85,314	0	1016,92	6,7	8,8	8,7	1	1	1	1	1	1	1	1	1	0	1	-12,825934	274,188213	307,637278	0
15.01.2021	20:23:07	0	0	2,937495	2,5605	304,3008	0,108	85,293	0	1016,9	6,7	8,8	8,7	1	1	1	1	1	1	1	1	1	0	1	-7,399577	274,077591	312,546784	0
15.01.2021	20:23:08	0	0	4,632203	2,4285	312,858	0,111	85,304	0	1016,86	6,7	8,8	8,7	1	1	1	1	1	1	1	1	1	0	1	-6,976744	274,173227	313,416412	0
15.01.2021	20:23:09	0	0	2,372606	2,38725	297,558	0,112	85,317	0	1016,94	6,7	8,8	8,6	1	1	1	1	1	1	1	1	1	0	1	-11,486963	274,227231	309,1587	0
15.01.2021	20:23:10	0	0	3,841339	2,55525	305,01	0,116	85,316	0	1016,78	6,8	8,8	8,7	1	1	1	1	1	1	1	1	1	0	1	-10,500352	274,210713	310,068065	0
15.01.2021	20:23:11	0	0	5,084125	2,58975	307,2168	0,113	85,326	0	1016,94	6,8	8,8	8,7	1	1	1	1	1	1	1	1	1	0	1	-7,047216	274,222724	313,577372	0
15.01.2021	20:23:12	0	0	3,163456	2,643	303,5124	0,118	85,316	0	1016,92	6,7	8,8	8,7	1	1	1	1	1	1	1	1	1	0	1	-11,486963	274,131328	308,710391	0
15.01.2021	20:23:13	0	0	4,0673	2,78025	302,4288	0,115	85,316	0	1016,94	6,7	8,8	8,7	1	1	1	1	1	1	1	1	1	0	1	-7,399577	274,224226	313,232035	0
15.01.2021	20:23:14	0	0	4,519223	2,8035	304,2036	0,12	85,315	0	1016,86	6,7	9	8,7	1	1	1	1	1	1	1	1	1	0	1	-11,41649	274,19421	309,074761	0
15.01.2021	20:23:15	0	0	3,95432	2,79975	306,126	0,116	85,309	0	1016,92	6,7	8,8	8,7	1	1	1	1	1	1	1	1	1	0	1	-11,909796	274,227231	308,735867	0
15.01.2021	20:23:16	0	0	2,485572	2,85375	305,4276	0,118	85,321	0	1016,92	6,7	8,8	8,7	1	1	1	1	1	1	1	1	1	0	1	-11,06413	274,185214	309,385065	0
15.01.2021	20:23:17	0	0	4,858164	2,99475	309,8952	0,118	85,312	0	1017,02	6,7	8,8	8,7	1	1	1	1	1	1	1	1	1	0	1	-8,315715	274,186713	312,140488	0
15.01.2021	20:23:18	0	0	2,937495	2,93175	315,1656	0,118	85,296	0	1016,78	6,8	8,8	8,7	1	1	1	1	1	1	1	1	1	0	1	-11,06413	274,107427	309,021567	0
15.01.2021	20:23:19	0	0	2,711534	2,81025	307,2672	0,117	85,313	0	1016,76	6,7	8,8	8,7	1	1	1	1	1	1	1	1	1	0	1	-11,346018	274,086537	308,642116	0
15.01.2021	20:23:20	0	0	3,163456	2,709	315,882	0,111	85,306	0	1016,92	6,8	8,8	8,7	1	1	1	1	1	1	1	1	1	0	1	-10,077519	274,088029	309,91758	0
15.01.2021	20:23:21	0	0	2,937495	2,6535	304,5708	0,122	85,312	0	1016,94	6,7	8,8	8,7	1	1	1	1	1	1	1	1	1	0	1	-8,386187	274,111906	311,720432	0
15.01.2021	20:23:22	0	0	2,259611	2,5275	304,9344	0,118	85,315	0	1016,88	6,8	8,8	8,7	1	1	1	1	1	1	1	1	1	0	1	-9,725159	274,07014	310,18641	0
15.01.2021	20:23:23	0	0	3,276436	2,4525	311,8464	0,109	85,3	0	1016,94	6,8	8,8	8,7	1	1	1	1	1	1	1	1	1	0	1	-10,711769	274,204711	309,828579	0
15.01.2021	20:23:24	0	0	3,615378	2,43075	312,8292	0,113	85,305	0	1016,98	6,7	8,8	8,7	1	1	1	1	1	1	1	1	1	0	1	-12,403101	274,11788	307,731425	0
15.01.2021	20:23:25	0	0	4,519223	2,3715	304,2864	0,119	85,295	0	1016,8	6,7	8,8	8,7	1	1	1	1	1	1	1	1	1	0	1	-7,329105	274,230235	313,330611	0
15.01.2021	20:23:26	0	0	2,711534	2,4015	310,6944	0,114	85,292	0	1016,84	6,7	8,8	8,7	1	1	1	1	1	1	1	1	1	0	1	-7,681466	274,161246	312,655694	0
15.01.2021	20:23:27	0	0	2,598553	2,361	307,2204	0,113	85,282	0	1016,88	6,7	8,8	8,7	1	1	1	1	1	1	1	1	1	0	1	-9,161381	274,06716	310,736275	0
15.01.2021	20:23:28	0	0	2,711534	2,32425	308,8872	0,116	85,297	0	1016,84	6,7	8,8	8,7	1	1	1	1	1	1	1	1	1	0	1	-7,470049	274,192711	313,014191	0
15.01.2021	20:23:29	0	0	3,050475	2,27775	314,4564	0,118	85,304	0	1016,96	6,7	8,8	8,7	1	1	1	1	1	1	1	1	1	0	1	-9,584214	274,079082	310,369108	0
15.01.2021	20:23:30	0	0	5,310087	2,367	308,124	0,115	85,302	0	1017,12	6,8	8,8	8,7	1	1	1	1	1	1	1	1	1	0	1	-10,711769	274,049291	309,102466	0
15.01.2021	20:23:31	0	0	4,632203	2,32575	315,6012	0,115	85,305	0	1017	6,7	8,8	8,7	1	1	1	1	1	1	1	1	1	0	1	-12,544045	274,19571	307,954218	0
15.01.2021	20:23:32	0	0	4,406242	2,2875	294,8256	0,108	85,313	0	1016,86	6,7	8,8	8,7	1	1	1	1	1	1	1	1	1	0	1	-9,654686	274,07163	310,263839	0
15.01.2021	20:23:33	0	0	4,293261	2,25075	298,332	0,117	85,291	0	1016,92	6,7	8,8	8,7	1	1	1	1	1	1	1	1	1	0	1	-6,906272	274,206211	313,641092	0
15.01.2021	20:23:34	0	0	2,937495	2,2695	302,5044	0,116	85,285	0	1017,14	6,7	8,8	8,7	1	1	1	1	1	1	1	1	1	0	1	-8,174771	274,221223	312,442793	0
15.01.2021	20:23:35	0	0	4,632203	2,2185	305,7696	0,114	85,294	0	1017,12	6,7	8,8	8,7	1	1	1	1	1	1	1	1	1	0	1	-8,949965	274,102948	311,114815	0
15.01.2021	20:23:36	0	0	2,372592	2,25225	299,0376	0,116	85,3	0	1017	6,7	8,8	8,7	1	1	1	1	1	1	1	1	1	0	1	-8,527132	274,052268	311,301	0
15.01.2021	20:23:37	0	0	3,389417	2,238	315,2088	0,116	85,295	0	1016,88	6,8	8,8	8,7	1	1	1	1	1	1	1	1	1	0	1	-7,399577	274,209212	313,161822	0
15.01.2021	20:23:38	0	0	3,728359	2,1945	304,6572	0,12	85,292	0	1016,98	6,7	8,8	8,7	1	1	1	1	1	1	1	1	1	0	1	-8,315715	274,237749	312,379146	0
15.01.2021	20:23:39	0	0	4,0673	2,109	304,6248	0,11	85,305	0	1016,94	6,7	8,8	8,7	1	1	1	1	1	1	1	1	1	0	1	-9,090909	274,134318	311,120413	0
15.01.2021	20:23:40	0	0	2,824514	2,0355	312,8472	0,113	85,29	0	1016,8	6,8	8,8	8,7	1	1	1	1	1	1	1	1	1	0	1	-8,738548	274,240755	311,970375	0
15.01.2021	20:23:41	0	0	2,824514	2,12775	306,1908	0,115	85,283	0	1017,08	6,7	8,8	8,7	1	1	1	1	1	1	1	1	1	0	1	-11,486963	274,168733	308,88519	0
15.01.2021	20:23:42	0	0	4,745184	2,3175	308,07	0,119	85,283	0	1016,92	6,7	8,8	8,7	1	1	1	1	1	1	1	1	1	0	1	-7,399577	274,207712	313,154804	0
15.01.2021	20:23:43	0	0	3,389417	2,60625	309,276	0,115	85,292	0	1016,88	6,7	8,8	8,7	1	1	1	1	1	1	1	1	1	0	1	-8,597604	274,06716	311,300052	0
15.01.2021	20:23:44	0	0	4,971145	2,60175	314,9928	0,117	85,286	0	1016,9	6,7	8,8	8,7	1	1	1	1	1	1	1	1	1	0	1	-8,80902	274,20021	311,710282	0
15.01.2021	20:23:45	0	0	4,406242	2,42925	300,4092	0,118	85,281	0	1016,88	6,8	8,8	8,7	1	1	1	1	1	1	1	1	1	0	1	-11,205074	274,06865	308,699538	0
15.01.2021	20:23:46	0	0	3,615378	2,3025	301,9824	0,119	85,296	0	1016,8	6,7	9	8,7	1	1	1	1	1	1	1	1	1	0	1	-6,694856	274,219721	313,915686	0
15.01.2021	20:23:47	0	0	3,954296	2,253	300,3876	0,114	85,277	0	1016,92	6,7	8,8	8,8	1	1	1	1	1	1	1	1	1	0	1	-9,725159	274,110413	310,374486	0
15.01.2021	20:23:48	0	0	2,598553	2,148	308,8548	0,121	85,279	0	1017,02	6,7	8,8	8,7	1	1	1	1	1	1	1	1	1	0	1	-7,399577	274,243762	313,323411	0
15.01.2021	20:23:49	0	0	3,502398	2,058	306,1332	0,11	85,274	0	1016,82	6,8	8,8	8,7	1	1	1	1	1	1	1	1	1	0	1	-8,033827	274,158252	312,289341	0
15.01.2021	20:23:50	0	0	4,293261	1,94325	295,5888	0,112	85,279	0	1016,86	6,7	8,8	8,7	1	1	1	1	1	1	1	1	1	0	1	-5,84919	274,228733	314,8035	0
15.01.2021	20:23:51	0	0	2,598553	1,9575	318,42	0,12	85,288	0	1016,86	6,7	8,8	8,7	1	1	1	1	1	1	1	1	1	0	1	-10,147992	274,098471	309,895877	0
15.01.2021	20:23:52	0	0	4,858164	2,01825	306,0828	0,116	85,277	0	1016,96	6,7	8,8	8,7	1	1	1	1	1	1	1	1	1	0	1	-7,188161	274,224226	313,443452	0
15.01.2021	20:23:53	0	0	3,95432	2,03325	317,7792	0,117	85,283	0	1016,76	6,8	8,8	8,7	1	1	1	1	1	1	1	1	1	0	1	-13,319239	274,227231	307,326424	0
15.01.2021	20:23:54	0	0	4,632203	1,9545	309,2112	0,118	85,285	0	1016,92	6,7	8,8	8,7	1	1	1	1	1	1	1	1	1	0	1	-9,866103	274,165738	310,492051	0
15.01.2021	20:23:55	0	0	3,95432	1,8825	303,2856	0,121	85,277	0	1016,8	6,7	8,8	8,7	1	1	1	1	1	1	1	1	1	0	1	-7,892882	274,240755	312,816041	0
15.01.2021	20:23:56	0	0	4,180281	1,833	311,7708	0,117	85,283	0	1017,1	6,8	8,8	8,7	1	1	1	1	1	1	1	1	1	0	1	-6,060606	274,17922	314,360564	0
15.01.2021	20:23:57	0	0	3,050475	1,755	311,7816	0,118	85,272	0	1016,92	6,7	8,8	8,7	1	1	1	1	1	1	1	1	1	0	1	-9,936575	274,086537	310,05156	0
15.01.2021	20:23:58	0	0	3,389417	1,70625	313,5492	0,115	85,279	0	1017,08	6,8	8,8	8,7	1	1	1	1	1	1	1	1	1	0	1	-5,919662	274,056734	313,92932	0
15.01.2021	20:23:59	0	0	2,711534	1,68225	305,7372	0,116	85,278	0	1016,98	6,8	8,8	8,7	1	1	1	1	1	1	1	1	1	0	1	-11,41649	274,082064	308,550755	0
15.01.2021	20:24:00	0	0	3,163456	1,56825	318,4344	0,118	85,274	0	1016,88	6,7	8,8	8,7	1	1	1	1	1	1	1	1	1	0	1	-11,41649	274,06567	308,47421	0
15.01.2021	20:24:01	0	0	2,146631	1,47375	292,572	0,113	85,274	0	1016,92	6,7	8,8	8,7	1	1	1	1	1	1	1	1	1	0	1	-6,765328	274,099963	313,285511	0
15.01.2021	20:24:02	0	0	4,632203	1,39275	285,4872	0,122	85,273	0	1016,96	6,7	8,8	8,7	1	1	1	1	1	1	1	1	1	0	1	-5,708245	274,053757	314,126836	0
15.01.2021	20:24:03	0	0	5,197106	1,32	296,496	0,115	85,259	0	1016,86	6,7	8,8	8,7	1	1	1	1	1	1	1	1	1	0	1	-6,624383	274,183716	313,817805	0
15.01.2021	20:24:04	0	0	4,406242	1,353	297,5256	0,121	85,255	0	1016,92	6,8	8,8	8,7	1	1	1	1	1	1	1	1	1	0	1	-7,610994	274,218219	312,992525	0
15.01.2021	20:24:05	0	0	4,0673	1,3755	298,3464	0,117	85,269	0	1016,96	6,7	8,8	8,7	1	1	1	1	1	1	1	1	1	0	1	-8,315715	274,144785	311,944519	0
15.01.2021	20:24:06	0	0	2,372592	1,5075	304,6248	0,12	85,261	0	1016,88	6,7	8,8	8,7	1	1	1	1	1	1	1	1	1	0	1	-9,936575	274,056734	309,912407	0
15.01.2021	20:24:07	0	0	5,197106	1,761	300,8664	0,117	85,263	0	1016,94	6,8	8,8	8,7	1	1	1	1	1	1	1	1	1	0	1	-4,862579	274,177721	315,551587	0
15.01.2021	20:24:08	0	0	3,502398	1,902	307,1484	0,121	85,261	0	1016,92	6,8	8,8	8,7	1	1	1	1	1	1	1	1	1	0	1	-10,077519	274,085046	309,903651	0
15.01.2021	20:24:09	0	0	2,485572	2,00925	298,6884	0,117	85,272	0	1016,98	6,7	8,8	8,7	1	1	1	1	1	1	1	1	1	0	1	-10,852713	274,251281	309,90545	0
15.01.2021	20:24:10	0	0	4,632203	2,04825	298,674	0,113	85,269	0	1016,9	6,8	8,8	8,7	1	1	1	1	1	1	1	1	1	0	1	-11,134602	274,131328	309,062752	0
15.01.2021	20:24:11	0	0	2,711534	2,01825	305,7768	0,122	85,273	0	1016,82	6,8	8,8	8,7	1	1	1	1	1	1	1	1	1	0	1	-11,768851	274,246769	308,968205	0
15.01.2021	20:24:12	0	0	4,293261	1,96275	309,9348	0,12	85,275	0	1016,66	6,7	8,8	8,7	1	1	1	1	1	1	1	1	1	0	1	-7,610994	274,164241	312,740162	0
15.01.2021	20:24:13	0	0	2,711534	1,9335	304,2324	0,123	85,248	0	1016,96	6,8	8,8	8,7	1	1	1	1	1	1	1	1	1	0	1	-7,329105	274,119373	312,812399	0
15.01.2021	20:24:14	0	0	2,372592	1,941	307,5732	0,114	85,257	0	1016,84	6,7	8,8	8,7	1	1	1	1	1	1	1	1	1	0	1	-16,772375	274,093995	303,250589	0
15.01.2021	20:24:15	0	0	3,615378	1,95825	309,5676	0,12	85,282	0	1016,9	6,7	8,8	8,7	1	1	1	1	1	1	1	1	1	0	1	-7,047216	274,20171	313,479101	0
15.01.2021	20:24:16	0	0	4,858164	1,96575	294,1056	0,118	85,276	0	1016,92	6,7	8,8	8,7	1	1	1	1	1	1	1	1	1	0	1	-8,80902	274,237749	311,88584	0
15.01.2021	20:24:17	0	0	4,406242	2,11275	316,6164	0,123	85,281	0	1016,88	6,8	8,8	8,7	1	1	1	1	1	1	1	1	1	0	1	-4,862579	274,19421	315,628672	0
15.01.2021	20:24:18	0	0	3,615378	2,19075	309,5676	0,119	85,271	0	1017,1	6,8	8,8	8,7	1	1	1	1	1	1	1	1	1	0	1	-6,976744	274,239252	313,725148	0
15.01.2021	20:24:19	0	0	5,310087	2,346	310,9896	0,117	85,265	0	1017,02	6,7	8,8	8,7	1	1	1	1	1	1	1	1	1	0	1	-9,866103	274,120867	310,28238	0
15.01.2021	20:24:20	0	0	2,711534	2,493	301,6152	0,118	85,271	0	1016,88	6,7	8,9	8,7	1	1	1	1	1	1	1	1	1	0	1	-6,412967	274,240755	314,295956	0
15.01.2021	20:24:21	0	0	3,389417	2,49675	315,1548	0,122	85,277	0	1016,92	6,8	8,8	8,7	1	1	1	1	1	1	1	1	1	0	1	-8,668076	274,135813	311,550232	0
15.01.2021	20:24:22	0	0	4,519223	2,4975	306,7956	0,114	85,256	0	1016,9	6,8	8,8	8,7	1	1	1	1	1	1	1	1	1	0	1	-13,03735	274,23324	307,636422	0
15.01.2021	20:24:23	0	0	4,180281	2,39025	320,382	0,117	85,273	0	1016,98	6,7	8,8	8,7	1	1	1	1	1	1	1	1	1	0	1	-7,117689	274,144785	313,142545	0
15.01.2021	20:24:24	0	0	2,259611	2,34525	310,698	0,115	85,265	0	1016,96	6,7	8,8	8,7	1	1	1	1	1	1	1	1	1	0	1	-14,023961	274,061202	305,845878	0
15.01.2021	20:24:25	0	0	2,824514	2,28675	313,5996	0,118	85,261	0	1017	6,8	8,8	8,7	1	1	1	1	1	1	1	1	1	0	1	-4,580691	274,162743	315,763467	0
15.01.2021	20:24:26	0	0	4,745184	2,34	312,1524	0,12	85,256	0	1016,86	6,7	8,8	8,7	1	1	1	1	1	1	1	1	1	0	1	-7,117689	274,213715	313,464767	0
15.01.2021	20:24:27	0	0	4,406242	2,388	309,2256	0,112	85,26	0	1016,8	6,7	8,8	8,7	1	1	1	1	1	1	1	1	1	0	1	-7,963354	274,20321	312,569978	0
15.01.2021	20:24:28	0	0	4,971145	2,59425	315,5256	0,133	85,277	0	1017,16	6,7	8,8	8,7	1	1	1	1	1	1	1	1	1	0	1	-8,668076	274,234743	312,012725	0
15.01.2021	20:24:29	0	0	5,084125	2,658	313,6644	0,121	85,309	0	1017,2	6,7	8,8	8,7	1	1	1	1	1	1	1	1	1	0	1	-8,104299	274,114893	312,016273	0
15.01.2021	20:24:30	0	0	3,276436	2,5545	316,638	0,115	85,265	0	1016,86	6,7	8,8	8,7	1	1	1	1	1	1	1	1	1	0	1	-7,470049	274,07163	312,448476	0
15.01.2021	20:24:31	0	0	3,615378	2,36925	312,8976	0,118	85,269	0	1016,88	6,7	8,8	8,7	1	1	1	1	1	1	1	1	1	0	1	-8,668076	274,218219	311,935443	0
15.01.2021	20:24:32	0	0	4,180281	2,11575	304,5996	0,115	85,256	0	1016,86	6,7	8,8	8,7	1	1	1	1	1	1	1	1	1	0	1	-8,245243	274,170231	312,13391	0
15.01.2021	20:24:33	0	0	4,519223	1,9725	303,444	0,125	85,255	0	1016,96	6,7	8,8	8,7	1	1	1	1	1	1	1	1	1	0	1	-8,879493	274,061202	310,990346	0
15.01.2021	20:24:34	0	0	2,033638	1,93575	296,4924	0,115	85,242	0	1016,9	6,7	8,8	8,8	1	1	1	1	1	1	1	1	1	0	1	-6,412967	274,116386	313,714581	0
15.01.2021	20:24:35	0	0	3,841316	1,9185	300,4776	0,118	85,271	0	1016,92	6,7	8,8	8,8	1	1	1	1	1	1	1	1	1	0	1	-9,866103	274,249777	310,885024	0
15.01.2021	20:24:36	0	0	3,389417	2,01825	299,0268	0,119	85,269	0	1017	6,7	8,8	8,7	1	1	1	1	1	1	1	1	1	0	1	-7,117689	274,155259	313,191489	0
15.01.2021	20:24:37	0	0	2,711534	2,091	310,3524	0,119	85,262	0	1016,88	6,7	8,8	8,7	1	1	1	1	1	1	1	1	1	0	1	-9,866103	274,049291	309,948132	0
15.01.2021	20:24:38	0	0	3,050475	2,10675	309,222	0,115	85,247	0	1017,06	6,7	8,8	8,7	1	1	1	1	1	1	1	1	1	0	1	-4,651163	274,131328	315,546191	0
15.01.2021	20:24:39	0	0	4,180281	2,013	306,864	0,122	85,271	0	1016,94	6,7	8,8	8,7	1	1	1	1	1	1	1	1	1	0	1	-10,007047	274,236246	310,680783	0
15.01.2021	20:24:40	0	0	2,146631	1,91775	301,6548	0,119	85,259	0	1016,96	6,7	8,8	8,7	1	1	1	1	1	1	1	1	1	0	1	-3,805497	274,113399	316,308098	0
15.01.2021	20:24:41	0	0	2,937495	1,84275	305,3304	0,119	85,27	0	1016,94	6,7	8,8	8,7	1	1	1	1	1	1	1	1	1	0	1	-7,610994	274,096979	312,425906	0
15.01.2021	20:24:42	0	0	3,276436	1,878	310,2912	0,125	85,261	0	1017,1	6,7	8,8	8,7	1	1	1	1	1	1	1	1	1	0	1	-8,245243	274,047803	311,562044	0
15.01.2021	20:24:43	0	0	3,615378	1,85625	310,9788	0,121	85,256	0	1016,82	6,7	8,8	8,7	1	1	1	1	1	1	1	1	1	0	1	-12,684989	274,180718	307,743186	0
15.01.2021	20:24:44	0	0	4,745184	1,78575	293,3568	0,125	85,255	0	1016,98	6,7	8,8	8,7	1	1	1	1	1	1	1	1	1	0	1	-7,610994	274,06865	312,293618	0
15.01.2021	20:24:45	0	0	2,372592	1,788	302,5908	0,118	85,238	0	1016,94	6,7	8,8	8,7	1	1	1	1	1	1	1	1	1	0	1	-10,500352	274,134318	309,71097	0
15.01.2021	20:24:46	0	0	2,711534	1,782	296,8812	0,111	85,253	0	1016,88	6,7	8,8	8,7	1	1	1	1	1	1	1	1	1	0	1	-7,188161	274,056734	312,660821	0
15.01.2021	20:24:47	0	0	4,406242	1,77825	308,1132	0,121	85,263	0	1017,06	6,7	8,8	8,7	1	1	1	1	1	1	1	1	1	0	1	-10,711769	274,144785	309,548465	0
15.01.2021	20:24:48	0	0	4,971145	1,84725	296,4852	0,118	85,234	0	1016,92	6,7	8,8	8,7	1	1	1	1	1	1	1	1	1	0	1	-8,245243	274,06567	311,645457	0
15.01.2021	20:24:49	0	0	3,502398	1,905	314,8524	0,119	85,241	0	1016,94	6,7	8,8	8,7	1	1	1	1	1	1	1	1	1	0	1	-8,45666	274,206211	312,090705	0
15.01.2021	20:24:50	0	0	5,084125	1,91325	314,7444	0,123	85,241	0	1017,04	6,7	8,8	8,7	1	1	1	1	1	1	1	1	1	0	1	-9,090909	274,240755	311,618014	0
15.01.2021	20:24:51	0	0	2,485572	2,02275	320,0904	0,121	85,245	0	1016,9	6,7	8,8	8,7	1	1	1	1	1	1	1	1	1	0	1	-7,963354	274,131328	312,233999	0
15.01.2021	20:24:52	0	0	3,615378	2,07975	310,6872	0,125	85,252	0	1017,02	6,7	8,8	8,7	1	1	1	1	1	1	1	1	1	0	1	-10,147992	274,074611	309,784451	0
15.01.2021	20:24:53	0	0	4,745184	2,05875	298,6668	0,125	85,25	0	1016,92	6,7	8,8	8,7	1	1	1	1	1	1	1	1	1	0	1	-8,668076	274,173227	311,72508	0
15.01.2021	20:24:54	0	0	2,711534	1,95	304,218	0,121	85,246	0	1016,96	6,7	8,8	8,7	1	1	1	1	1	1	1	1	1	0	1	-11,698379	274,055245	308,143652	0
15.01.2021	20:24:55	0	0	4,632203	1,8795	306,9	0,121	85,247	0	1016,98	6,7	8,8	8,7	1	1	1	1	1	1	1	1	1	0	1	-11,06413	274,104441	309,007622	0
15.01.2021	20:24:56	0	0	4,406242	1,88925	308,9196	0,125	85,25	0	1016,94	6,7	8,8	8,7	1	1	1	1	1	1	1	1	1	0	1	-10,923185	274,098471	309,120683	0
15.01.2021	20:24:57	0	0	2,937495	1,95	294,8256	0,122	85,231	0	1016,98	6,7	8,8	8,7	1	1	1	1	1	1	1	1	1	0	1	-9,020437	274,06567	310,870264	0
15.01.2021	20:24:58	0	0	3,389417	1,9575	304,3008	0,124	85,248	0	1016,96	6,7	8,8	8,7	1	1	1	1	1	1	1	1	1	0	1	-10,42988	274,182217	310,005301	0
15.01.2021	20:24:59	0	0	4,971145	1,91325	304,29	0,121	85,246	0	1016,9	6,8	8,8	8,7	1	1	1	1	1	1	1	1	1	0	1	-9,44327	274,19571	311,054994	0
15.01.2021	20:25:00	0	0	4,180281	1,91175	295,5852	0,117	85,231	0	1016,9	6,8	8,8	8,7	1	1	1	1	1	1	1	1	1	0	1	-7,610994	274,062691	312,265798	0
15.01.2021	20:25:01	0	0	4,180281	1,89225	298,6884	0,125	85,238	0	1016,9	6,7	8,8	8,7	1	1	1	1	1	1	1	1	1	0	1	-12,825934	274,174725	307,574225	0
15.01.2021	20:25:02	0	0	4,293261	1,86375	297,2232	0,122	85,248	0	1017	6,7	8,8	8,7	1	1	1	1	1	1	1	1	1	0	1	-14,305849	274,240755	306,403074	0
15.01.2021	20:25:03	0	0	4,632203	1,87275	286,9452	0,123	85,234	0	1016,84	6,8	8,8	8,7	1	1	1	1	1	1	1	1	1	0	1	-12,121212	274,192711	308,363028	0
15.01.2021	20:25:04	0	0	4,519223	1,8045	300,798	0,124	85,24	0	1016,94	6,8	8,8	8,7	1	1	1	1	1	1	1	1	1	0	1	-12,05074	274,083555	307,923468	0
15.01.2021	20:25:05	0	0	3,841339	1,8	288,8172	0,127	85,243	0	1016,9	6,7	8,8	8,7	1	1	1	1	1	1	1	1	1	0	1	-6,342495	274,091012	313,666535	0
15.01.2021	20:25:06	0	0	4,519223	1,914	281,394	0,117	85,221	0	1016,94	6,8	8,8	8,7	1	1	1	1	1	1	1	1	1	0	1	-11,909796	274,19721	308,59548	0
15.01.2021	20:25:07	0	0	4,632203	2,04	290,7756	0,12	85,222	0	1016,96	6,8	8,8	8,7	1	1	1	1	1	1	1	1	1	0	1	-9,866103	274,237749	310,828758	0
15.01.2021	20:25:08	0	0	2,711534	2,18925	294,1056	0,125	85,229	0	1016,72	6,7	8,8	8,7	1	1	1	1	1	1	1	1	1	0	1	-10,500352	274,19421	309,990899	0
15.01.2021	20:25:09	0	0	3,276436	2,21925	309,924	0,121	85,207	0	1016,94	6,8	8,8	8,7	1	1	1	1	1	1	1	1	1	0	1	-6,412967	274,076101	313,526435	0
15.01.2021	20:25:10	0	0	3,276436	2,232	300,3912	0,126	85,23	0	1017,06	6,7	8,8	8,7	1	1	1	1	1	1	1	1	1	0	1	-7,751938	274,062691	312,124854	0
15.01.2021	20:25:11	0	0	3,276436	2,2095	308,1096	0,125	85,216	0	1016,76	6,7	8,8	8,7	1	1	1	1	1	1	1	1	1	0	1	-5,355884	274,180718	315,072291	0
15.01.2021	20:25:12	0	0	3,389417	2,2725	298,296	0,125	85,231	0	1016,96	6,8	8,8	8,7	1	1	1	1	1	1	1	1	1	0	1	-11,627907	274,254289	309,144331	0
15.01.2021	20:25:13	0	0	3,615378	2,35425	312,876	0,124	85,234	0	1016,78	6,7	8,8	8,7	1	1	1	1	1	1	1	1	1	0	1	-7,470049	274,140298	312,769219	0
15.01.2021	20:25:14	0	0	2,711534	2,29125	307,188	0,126	85,242	0	1016,96	6,7	8,8	8,7	1	1	1	1	1	1	1	1	1	0	1	-10,570825	274,242259	310,145131	0
15.01.2021	20:25:15	0	0	2,711534	2,205	309,4704	0,122	85,229	0	1016,76	6,7	8,8	8,7	1	1	1	1	1	1	1	1	1	0	1	-10,077519	274,164241	310,273636	0
15.01.2021	20:25:16	0	0	4,858164	2,11275	311,0076	0,118	85,226	0	1017,04	6,7	8,8	8,7	1	1	1	1	1	1	1	1	1	0	1	-8,668076	274,056734	311,180906	0
15.01.2021	20:25:17	0	0	2,372592	2,166	294,48	0,125	85,228	0	1017,08	6,8	8,9	8,7	1	1	1	1	1	1	1	1	1	0	1	-8,879493	274,093995	311,143471	0
15.01.2021	20:25:18	0	0	4,519223	2,21175	308,1168	0,118	85,203	0	1016,94	6,8	8,8	8,7	1	1	1	1	1	1	1	1	1	0	1	-9,372798	274,058223	310,483136	0
15.01.2021	20:25:19	0	0	3,050494	2,2365	304,1964	0,117	85,209	0	1016,92	6,8	8,8	8,6	1	1	1	1	1	1	1	1	1	0	1	-7,329105	274,177721	313,085061	0
15.01.2021	20:25:20	0	0	3,95432	2,24025	311,0256	0,12	85,216	0	1016,84	6,7	8,8	8,7	1	1	1	1	1	1	1	1	1	0	1	-3,523608	274,055245	316,318423	0
15.01.2021	20:25:21	0	0	2,824514	2,27025	304,2936	0,122	85,224	0	1016,92	6,8	8,8	8,7	1	1	1	1	1	1	1	1	1	0	1	-10,500352	274,176223	309,90681	0
15.01.2021	20:25:22	0	0	4,632203	2,23725	297,3024	0,123	85,222	0	1017,04	6,7	8,8	8,7	1	1	1	1	1	1	1	1	1	0	1	-5,144468	274,246769	315,592588	0
15.01.2021	20:25:23	0	0	5,197106	2,223	287,8452	0,124	85,227	0	1017,08	6,7	8,8	8,7	1	1	1	1	1	1	1	1	1	0	1	-11,698379	274,126844	308,478026	0
15.01.2021	20:25:24	0	0	4,858164	2,21625	299,4444	0,115	85,22	0	1016,74	6,8	8,8	8,7	1	1	1	1	1	1	1	1	1	0	1	-12,614517	274,234743	308,066284	0
15.01.2021	20:25:25	0	0	4,745184	2,28225	299,826	0,128	85,217	0	1017,04	6,7	8,8	8,7	1	1	1	1	1	1	1	1	1	0	1	-7,047216	274,173227	313,34594	0
15.01.2021	20:25:26	0	0	3,389417	2,2035	301,608	0,12	85,204	0	1017,02	6,7	8,8	8,7	1	1	1	1	1	1	1	1	1	0	1	-11,486963	274,07014	308,424606	0
15.01.2021	20:25:27	0	0	3,389417	2,2035	304,5852	0,118	85,209	0	1016,86	6,8	8,8	8,7	1	1	1	1	1	1	1	1	1	0	1	-5,990134	274,105934	314,08859	0
15.01.2021	20:25:28	0	0	3,728359	2,19525	308,16	0,123	85,223	0	1016,8	6,8	8,9	8,7	1	1	1	1	1	1	1	1	1	0	1	-8,386187	274,19721	312,119088	0
15.01.2021	20:25:29	0	0	2,937495	2,18625	313,2648	0,125	85,223	0	1016,88	6,7	8,9	8,7	1	1	1	1	1	1	1	1	1	0	1	-9,44327	274,242259	311,272686	0
15.01.2021	20:25:30	0	0	4,632203	2,13075	313,182	0,121	85,226	0	1017	6,7	8,8	8,7	1	1	1	1	1	1	1	1	1	0	1	-8,104299	274,236246	312,583532	0
15.01.2021	20:25:31	0	0	2,937495	2,1165	311,8716	0,125	85,221	0	1016,84	6,7	8,8	8,7	1	1	1	1	1	1	1	1	1	0	1	-5,073996	274,188213	315,389216	0
15.01.2021	20:25:32	0	0	3,276436	2,088	314,5248	0,127	85,22	0	1016,88	6,8	8,8	8,7	1	1	1	1	1	1	1	1	1	0	1	-7,188161	274,239252	313,513731	0
15.01.2021	20:25:33	0	0	4,971145	2,08125	310,1616	0,123	85,222	0	1017,04	6,7	8,8	8,7	1	1	1	1	1	1	1	1	1	0	1	-6,8358	274,224226	313,795812	0
15.01.2021	20:25:34	0	0	3,615378	2,142	313,9452	0,125	85,223	0	1016,9	6,7	8,8	8,7	1	1	1	1	1	1	1	1	1	0	1	-8,033827	274,141794	312,212429	0
15.01.2021	20:25:35	0	0	3,502398	2,21925	312,8724	0,125	85,218	0	1017	6,7	8,8	8,7	1	1	1	1	1	1	1	1	1	0	1	-12,262156	274,06567	307,628544	0
15.01.2021	20:25:36	0	0	4,180281	2,2155	309,1644	0,125	85,215	0	1016,88	6,7	8,8	8,7	1	1	1	1	1	1	1	1	1	0	1	-6,483439	274,19721	314,021837	0
15.01.2021	20:25:37	0	0	4,406242	2,2575	301,6332	0,119	85,218	0	1016,86	6,8	8,8	8,7	1	1	1	1	1	1	1	1	1	0	1	-10,852713	274,225728	309,785924	0
15.01.2021	20:25:38	0	0	4,745184	2,3685	312,1992	0,119	85,221	0	1017,04	6,7	8,8	8,7	1	1	1	1	1	1	1	1	1	0	1	-7,329105	274,20321	313,204227	0
15.01.2021	20:25:39	0	0	4,180281	2,4795	300,8664	0,125	85,224	0	1016,96	6,7	8,8	8,7	1	1	1	1	1	1	1	1	1	0	1	-9,866103	274,225728	310,772534	0
15.01.2021	20:25:40	0	0	3,163456	2,57775	305,3448	0,122	85,226	0	1016,98	6,7	8,8	8,7	1	1	1	1	1	1	1	1	1	0	1	-6,412967	274,129833	313,777403	0
15.01.2021	20:25:41	0	0	3,615378	2,622	300,4848	0,127	85,212	0	1017,06	6,7	8,8	8,7	1	1	1	1	1	1	1	1	1	0	1	-6,624383	274,052268	313,203748	0
15.01.2021	20:25:42	0	0	3,050475	2,57475	296,1432	0,122	85,202	0	1016,9	6,7	8,8	8,7	1	1	1	1	1	1	1	1	1	0	1	-5,496829	274,107427	314,588868	0
15.01.2021	20:25:43	0	0	4,406242	2,72775	305,3664	0,125	85,22	0	1017,04	6,7	8,8	8,7	1	1	1	1	1	1	1	1	1	0	1	-9,795631	274,062691	310,081161	0
15.01.2021	20:25:44	0	0	3,841339	3,01575	312,8328	0,119	85,213	0	1016,86	6,8	8,8	8,7	1	1	1	1	1	1	1	1	1	0	1	-7,681466	274,074611	312,250977	0
15.01.2021	20:25:45	0	0	3,502398	3,16275	308,9124	0,124	85,22	0	1016,92	6,7	8,8	8,7	1	1	1	1	1	1	1	1	1	0	1	-11,627907	274,079082	308,325415	0
15.01.2021	20:25:46	0	0	2,937495	2,99775	303,1956	0,121	85,209	0	1016,84	6,7	8,8	8,7	1	1	1	1	1	1	1	1	1	0	1	-7,540521	274,076101	312,39888	0
15.01.2021	20:25:47	0	0	2,485572	2,838	307,2384	0,123	85,207	0	1017,02	6,7	8,8	8,7	1	1	1	1	1	1	1	1	1	0	1	-3,735025	274,167235	316,630128	0
15.01.2021	20:25:48	0	0	3,276436	2,68425	315,2124	0,125	85,205	0	1017	6,7	8,8	8,7	1	1	1	1	1	1	1	1	1	0	1	-11,980268	274,056734	307,868714	0
15.01.2021	20:25:49	0	0	3,502398	2,64525	303,48	0,12	85,2	0	1016,84	6,7	8,8	8,7	1	1	1	1	1	1	1	1	1	0	1	-9,44327	274,129833	310,7471	0
15.01.2021	20:25:50	0	0	2,937495	2,65125	309,9456	0,127	85,206	0	1017,02	6,7	8,8	8,7	1	1	1	1	1	1	1	1	1	0	1	-11,768851	274,076101	308,17055	0
15.01.2021	20:25:51	0	0	4,632203	2,63775	309,2976	0,127	85,206	0	1016,74	6,7	8,8	8,7	1	1	1	1	1	1	1	1	1	0	1	-10,782241	274,144785	309,477993	0
15.01.2021	20:25:52	0	0	3,389417	2,475	296,8272	0,126	85,201	0	1017	6,7	8,8	8,7	1	1	1	1	1	1	1	1	1	0	1	-9,44327	274,240755	311,265653	0
15.01.2021	20:25:53	0	0	5,084125	2,4045	309,9384	0,128	85,205	0	1016,88	6,7	8,8	8,7	1	1	1	1	1	1	1	1	1	0	1	-11,698379	274,20171	308,827938	0
15.01.2021	20:25:54	0	0	2,485572	2,304	304,6644	0,125	85,206	0	1016,78	6,8	8,8	8,7	1	1	1	1	1	1	1	1	1	0	1	-10,218464	274,061202	309,651375	0
15.01.2021	20:25:55	0	0	4,858164	2,265	324,8028	0,12	85,197	0	1016,88	6,7	8,8	8,7	1	1	1	1	1	1	1	1	1	0	1	-9,936575	274,215217	310,652901	0
15.01.2021	20:25:56	0	0	2,711534	2,19075	296,4384	0,127	85,206	0	1016,92	6,7	8,8	8,7	1	1	1	1	1	1	1	1	1	0	1	-5,778717	274,055245	314,063314	0
15.01.2021	20:25:57	0	0	2,71155	2,24925	328,8924	0,125	85,215	0	1016,84	6,7	8,8	8,6	1	1	1	1	1	1	1	1	1	0	1	-10,007047	274,08952	309,995017	0
15.01.2021	20:25:58	0	0	2,937495	2,24925	328,1544	0,122	85,191	0	1016,9	6,7	9	8,7	1	1	1	1	1	1	1	1	1	0	1	-12,191684	274,126844	307,984721	0
15.01.2021	20:25:59	0	0	4,745184	2,06025	323,7048	0,128	85,203	0	1016,94	6,7	8,8	8,7	1	1	1	1	1	1	1	1	1	0	1	-9,161381	274,056734	310,687601	0
15.01.2021	20:26:00	0	0	5,423067	1,8075	318,4524	0,122	85,212	0	1016,96	6,7	8,8	8,7	1	1	1	1	1	1	1	1	1	0	1	-9,513742	274,159749	310,816422	0
15.01.2021	20:26:01	0	0	4,971145	1,69875	319,2768	0,118	85,208	0	1016,88	6,7	8,8	8,7	1	1	1	1	1	1	1	1	1	0	1	-8,668076	274,056734	311,180906	0
15.01.2021	20:26:02	0	0	5,423067	1,5795	326,4444	0,124	85,177	0	1016,96	6,7	8,8	8,7	1	1	1	1	1	1	1	1	1	0	1	-10,288936	274,176223	310,118226	0
15.01.2021	20:26:03	0	0	4,519223	1,42575	302,0976	0,125	85,203	0	1016,88	6,7	8,8	8,7	1	1	1	1	1	1	1	1	1	0	1	-8,527132	274,053757	311,307949	0
15.01.2021	20:26:04	0	0	2,824514	1,54125	321,138	0,132	85,201	0	1016,98	6,7	8,8	8,7	1	1	1	1	1	1	1	1	1	0	1	-13,389711	274,122361	306,765751	0
15.01.2021	20:26:05	0	0	4,406242	1,76325	320,5332	0,133	85,258	0	1016,76	6,7	8,8	8,7	1	1	1	1	1	1	1	1	1	0	1	-10,570825	274,061202	309,299014	0
15.01.2021	20:26:06	0	0	4,406242	2,1195	309,2364	0,127	85,194	0	1016,86	6,7	8,8	8,7	1	1	1	1	1	1	1	1	1	0	1	-9,44327	274,091012	310,56576	0
15.01.2021	20:26:07	0	0	2,937495	2,42625	303,5628	0,125	85,2	0	1016,82	6,7	8,8	8,7	1	1	1	1	1	1	1	1	1	0	1	-7,963354	274,052268	311,864777	0
15.01.2021	20:26:08	0	0	2,485572	2,58225	303,9372	0,125	85,201	0	1016,92	6,7	8,8	8,7	1	1	1	1	1	1	1	1	1	0	1	-7,751938	274,093995	312,271026	0
15.01.2021	20:26:09	0	0	3,502398	2,72475	304,83	0,122	85,202	0	1016,88	6,7	8,8	8,7	1	1	1	1	1	1	1	1	1	0	1	-8,033827	274,182217	312,401355	0
15.01.2021	20:26:10	0	0	4,745184	2,7135	291,8736	0,128	85,204	0	1016,94	6,7	8,8	8,7	1	1	1	1	1	1	1	1	1	0	1	-13,6716	274,171729	306,714555	0
15.01.2021	20:26:11	0	0	4,632203	2,56125	299,016	0,129	85,218	0	1016,96	6,8	8,8	8,7	1	1	1	1	1	1	1	1	1	0	1	-13,601128	274,237749	307,093733	0
15.01.2021	20:26:12	0	0	3,163456	2,2965	284,5224	0,129	85,225	0	1017	6,7	8,8	8,7	1	1	1	1	1	1	1	1	1	0	1	-8,033827	274,140298	312,205441	0
15.01.2021	20:26:13	0	0	4,858164	2,1675	305,7192	0,128	85,197	0	1016,88	6,7	8,8	8,7	1	1	1	1	1	1	1	1	1	0	1	-12,896406	274,257298	307,889909	0
15.01.2021	20:26:14	0	0	2,937495	2,163	305,0244	0,126	85,217	0	1016,9	6,8	8,8	8,7	1	1	1	1	1	1	1	1	1	0	1	-7,540521	274,170231	312,838632	0
15.01.2021	20:26:15	0	0	4,745184	2,23125	296,496	0,128	85,221	0	1016,94	6,7	8,8	8,7	1	1	1	1	1	1	1	1	1	0	1	-10,500352	274,239252	310,201539	0
15.01.2021	20:26:16	0	0	4,745184	2,4345	297,2556	0,13	85,221	0	1016,94	6,7	8,8	8,7	1	1	1	1	1	1	1	1	1	0	1	-13,107822	274,174725	307,292337	0
15.01.2021	20:26:17	0	0	4,632203	2,58225	291,5388	0,122	85,212	0	1016,88	6,7	8,8	8,7	1	1	1	1	1	1	1	1	1	0	1	-10,147992	274,218219	310,455527	0
15.01.2021	20:26:18	0	0	2,485572	2,52075	296,1072	0,131	85,221	0	1017,04	6,7	8,8	8,7	1	1	1	1	1	1	1	1	1	0	1	-10,147992	274,101456	309,909817	0
15.01.2021	20:26:19	0	0	4,406242	2,568	300,15	0,122	85,209	0	1016,84	6,7	8,8	8,7	1	1	1	1	1	1	1	1	1	0	1	-7,258633	274,076101	312,680769	0
15.01.2021	20:26:20	0	0	4,180281	2,64225	293,4036	0,127	85,225	0	1017	6,7	8,8	8,7	1	1	1	1	1	1	1	1	1	0	1	-6,272023	274,164241	314,079133	0
15.01.2021	20:26:21	0	0	2,711534	2,7	299,412	0,128	85,21	0	1016,9	6,7	8,8	8,7	1	1	1	1	1	1	1	1	1	0	1	-7,399577	274,07163	312,518949	0
15.01.2021	20:26:22	0	0	2,711534	2,6535	308,1312	0,128	85,222	0	1017	6,7	8,8	8,7	1	1	1	1	1	1	1	1	1	0	1	-13,883016	274,11788	306,25151	0
15.01.2021	20:26:23	0	0	2,824514	2,53875	299,79	0,13	85,255	0	1017,24	6,7	8,8	8,7	1	1	1	1	1	1	1	1	1	0	1	-5,144468	274,077591	314,801894	0
15.01.2021	20:26:24	0	0	3,728359	2,448	302,7744	0,124	85,202	0	1016,92	6,7	8,8	8,7	1	1	1	1	1	1	1	1	1	0	1	-9,020437	274,206211	311,526927	0
15.01.2021	20:26:25	0	0	4,858164	2,409	305,712	0,126	85,206	0	1016,94	6,8	8,9	8,7	1	1	1	1	1	1	1	1	1	0	1	-8,174771	274,058223	311,681162	0
15.01.2021	20:26:26	0	0	4,406268	2,58225	299,7108	0,129	85,193	0	1016,88	6,7	8,8	8,6	1	1	1	1	1	1	1	1	1	0	1	-8,245243	274,20171	312,281074	0
15.01.2021	20:26:27	0	0	3,502398	2,64525	300,1644	0,134	85,225	0	1017,06	6,7	9	8,7	1	1	1	1	1	1	1	1	1	0	1	-8,245243	274,224226	312,386369	0
15.01.2021	20:26:28	0	0	4,971145	2,56875	303,1668	0,133	85,217	0	1017,02	6,8	8,8	8,7	1	1	1	1	1	1	1	1	1	0	1	-9,936575	274,19871	310,575714	0
15.01.2021	20:26:29	0	0	3,163456	2,574	309,24	0,133	85,21	0	1017,02	6,7	8,8	8,7	1	1	1	1	1	1	1	1	1	0	1	-8,386187	274,234743	312,294613	0
15.01.2021	20:26:30	0	0	2,711534	2,55825	317,7792	0,127	85,198	0	1016,84	6,7	8,8	8,7	1	1	1	1	1	1	1	1	1	0	1	-7,610994	274,186713	312,845209	0
15.01.2021	20:26:31	0	0	3,841339	2,4735	306,5004	0,125	85,202	0	1016,96	6,8	8,8	8,7	1	1	1	1	1	1	1	1	1	0	1	-8,245243	274,043338	311,541205	0
15.01.2021	20:26:32	0	0	2,824514	2,37375	312,1668	0,131	85,21	0	1017,02	6,7	8,8	8,7	1	1	1	1	1	1	1	1	1	0	1	-8,104299	274,098471	311,93957	0
15.01.2021	20:26:33	0	0	2,824514	2,22675	302,1336	0,131	85,212	0	1017,2	6,8	8,8	8,7	1	1	1	1	1	1	1	1	1	0	1	-8,45666	274,236246	312,231171	0
15.01.2021	20:26:34	0	0	3,163456	2,25825	297,8928	0,13	85,187	0	1016,94	6,7	8,8	8,7	1	1	1	1	1	1	1	1	1	0	1	-10,218464	274,20171	310,307853	0
15.01.2021	20:26:35	0	0	2,259611	2,2275	284,8068	0,134	85,215	0	1016,98	6,7	8,8	8,7	1	1	1	1	1	1	1	1	1	0	1	-8,315715	274,050779	311,505467	0
15.01.2021	20:26:36	0	0	4,632203	2,1165	285,2064	0,128	85,209	0	1016,94	6,8	8,8	8,7	1	1	1	1	1	1	1	1	1	0	1	-8,315715	274,185214	312,13348	0
15.01.2021	20:26:37	0	0	2,485572	1,986	279,8964	0,128	85,194	0	1016,96	6,7	8,8	8,7	1	1	1	1	1	1	1	1	1	0	1	-9,513742	274,095487	310,516189	0
15.01.2021	20:26:38	0	0	4,406242	1,86675	286,2936	0,129	85,196	0	1016,9	6,7	8,8	8,7	1	1	1	1	1	1	1	1	1	0	1	-5,778717	274,07014	314,132851	0
15.01.2021	20:26:39	0	0	2,485572	1,77375	283,554	0,131	85,194	0	1017	6,8	8,8	8,7	1	1	1	1	1	1	1	1	1	0	1	-10,359408	274,064181	309,524338	0
15.01.2021	20:26:40	0	0	2,937495	1,716	279,1584	0,131	85,19	0	1017	6,7	8,8	8,7	1	1	1	1	1	1	1	1	1	0	1	-8,033827	274,137308	312,191467	0
15.01.2021	20:26:41	0	0	2,711534	1,67025	278,0388	0,133	85,194	0	1017,02	6,7	8,8	8,7	1	1	1	1	1	1	1	1	1	0	1	-10,923185	274,062691	308,953606	0
15.01.2021	20:26:42	0	0	4,632203	1,63875	283,536	0,128	85,189	0	1017,02	6,8	8,8	8,7	1	1	1	1	1	1	1	1	1	0	1	-10,359408	274,119373	309,782096	0
15.01.2021	20:26:43	0	0	3,841339	1,6305	284,004	0,132	85,206	0	1017,06	6,8	8,8	8,7	1	1	1	1	1	1	1	1	1	0	1	-8,80902	274,06716	311,088635	0
15.01.2021	20:26:44	0	0	3,615378	1,60725	291,978	0,128	85,184	0	1017,04	6,8	8,8	8,7	1	1	1	1	1	1	1	1	1	0	1	-11,134602	274,155259	309,174576	0
15.01.2021	20:26:45	0	0	2,259611	1,614	283,2408	0,13	85,184	0	1016,86	6,7	8,8	8,7	1	1	1	1	1	1	1	1	1	0	1	-8,386187	274,062691	311,490604	0
15.01.2021	20:26:46	0	0	4,632203	1,6605	283,1508	0,129	85,168	0	1016,72	6,7	8,8	8,7	1	1	1	1	1	1	1	1	1	0	1	-5,778717	274,161246	314,558443	0
15.01.2021	20:26:47	0	0	4,0673	1,67625	282,0888	0,131	85,184	0	1017,02	6,7	8,8	8,7	1	1	1	1	1	1	1	1	1	0	1	-14,164905	274,061202	305,704933	0
15.01.2021	20:26:48	0	0	5,084125	1,6335	283,2552	0,131	85,188	0	1017,16	6,7	8,8	8,7	1	1	1	1	1	1	1	1	1	0	1	-9,795631	274,128339	310,387756	0
15.01.2021	20:26:49	0	0	4,180281	1,623	283,5432	0,135	85,178	0	1016,92	6,7	8,8	8,7	1	1	1	1	1	1	1	1	1	0	1	-5,285412	274,239252	315,416479	0
15.01.2021	20:26:50	0	0	2,937495	1,551	284,094	0,136	85,185	0	1017,08	6,7	8,8	8,7	1	1	1	1	1	1	1	1	1	0	1	-6,694856	274,101456	313,362953	0
15.01.2021	20:26:51	0	0	3,050475	1,49175	283,176	0,132	85,169	0	1016,9	6,7	8,8	8,7	1	1	1	1	1	1	1	1	1	0	1	-6,412967	274,06865	313,491645	0
15.01.2021	20:26:52	0	0	4,180281	1,413	284,8068	0,13	85,173	0	1016,98	6,8	8,8	8,7	1	1	1	1	1	1	1	1	1	0	1	-9,866103	274,153762	310,436081	0
15.01.2021	20:26:53	0	0	2,937495	1,3305	283,536	0,134	85,172	0	1016,96	6,7	9	8,7	1	1	1	1	1	1	1	1	1	0	1	-9,584214	274,07014	310,327354	0
15.01.2021	20:26:54	0	0	4,406242	1,368	282,3768	0,13	85,17	0	1016,92	6,8	8,8	8,7	1	1	1	1	1	1	1	1	1	0	1	-11,346018	274,20321	309,187314	0
15.01.2021	20:26:55	0	0	4,406242	1,4805	282,5028	0,135	85,167	0	1016,94	6,7	8,8	8,7	1	1	1	1	1	1	1	1	1	0	1	-6,624383	274,215217	313,965093	0
15.01.2021	20:26:56	0	0	2,598553	1,5855	296,9172	0,13	85,147	0	1017,16	6,7	8,8	8,7	1	1	1	1	1	1	1	1	1	0	1	-10,993658	274,17922	309,427513	0
15.01.2021	20:26:57	0	0	4,971145	1,76175	287,406	0,131	85,162	0	1016,9	6,8	8,8	8,7	1	1	1	1	1	1	1	1	1	0	1	-9,795631	274,07014	310,115938	0
15.01.2021	20:26:58	0	0	4,519223	1,86525	291,1716	0,131	85,16	0	1017,08	6,7	8,8	8,7	1	1	1	1	1	1	1	1	1	0	1	-9,936575	274,192711	310,547666	0
15.01.2021	20:26:59	0	0	4,293261	1,97775	279,5148	0,126	85,147	0	1016,8	6,7	8,8	8,7	1	1	1	1	1	1	1	1	1	0	1	-6,8358	274,061202	313,034038	0
15.01.2021	20:27:00	0	0	4,406268	1,9725	285,8688	0,133	85,155	0	1016,86	6,7	8,8	8,6	1	1	1	1	1	1	1	1	1	0	1	-10,147992	274,099963	309,902847	0
15.01.2021	20:27:01	0	0	2,485572	2,1105	291,5424	0,125	85,148	0	1016,7	6,8	8,8	8,7	1	1	1	1	1	1	1	1	1	0	1	-11,275546	274,08952	308,726518	0
15.01.2021	20:27:02	0	0	2,598569	2,2035	291,834	0,122	85,148	0	1017,08	6,7	8,8	8,6	1	1	1	1	1	1	1	1	1	0	1	-10,711769	274,104441	309,359983	0
15.01.2021	20:27:03	0	0	3,841339	2,334	300,4992	0,125	85,147	0	1016,8	6,8	8,8	8,7	1	1	1	1	1	1	1	1	1	0	1	-12,191684	274,245266	308,538338	0
15.01.2021	20:27:04	0	0	4,971145	2,38425	291,8448	0,134	85,134	0	1016,96	6,7	8,8	8,7	1	1	1	1	1	1	1	1	1	0	1	-8,80902	274,183716	311,633168	0
15.01.2021	20:27:05	0	0	3,728359	2,44875	292,3308	0,129	85,143	0	1017,16	6,8	8,8	8,7	1	1	1	1	1	1	1	1	1	0	1	-7,329105	274,234743	313,351696	0
15.01.2021	20:27:06	0	0	2,711534	2,50725	286,5996	0,127	85,144	0	1017	6,7	8,8	8,7	1	1	1	1	1	1	1	1	1	0	1	-12,191684	274,120867	307,956799	0
15.01.2021	20:27:07	0	0	3,728359	2,5425	297,6372	0,129	85,135	0	1017	6,7	8,8	8,7	1	1	1	1	1	1	1	1	1	0	1	-11,980268	274,231738	308,686476	0
15.01.2021	20:27:08	0	0	2,598553	2,649	310,3056	0,129	85,133	0	1017,12	6,7	8,8	8,7	1	1	1	1	1	1	1	1	1	0	1	-11,134602	274,146281	309,132622	0
15.01.2021	20:27:09	0	0	4,519223	2,6775	307,584	0,13	85,133	0	1017	6,7	8,8	8,7	1	1	1	1	1	1	1	1	1	0	1	-4,580691	274,056734	315,268291	0
15.01.2021	20:27:10	0	0	3,276436	2,70525	319,4784	0,131	85,138	0	1016,82	6,7	8,8	8,7	1	1	1	1	1	1	1	1	1	0	1	-11,41649	274,14329	308,836754	0
15.01.2021	20:27:11	0	0	2,824514	2,661	318,8556	0,126	85,133	0	1016,98	6,7	8,8	8,7	1	1	1	1	1	1	1	1	1	0	1	-9,020437	274,059713	310,842449	0
15.01.2021	20:27:12	0	0	3,615378	2,511	315,8676	0,131	85,135	0	1016,9	6,7	8,8	8,7	1	1	1	1	1	1	1	1	1	0	1	-6,976744	274,096979	313,060156	0
15.01.2021	20:27:13	0	0	3,95432	2,42625	324,9144	0,133	85,145	0	1016,98	6,7	8,8	8,7	1	1	1	1	1	1	1	1	1	0	1	-7,963354	274,204711	312,576993	0
15.01.2021	20:27:14	0	0	3,841339	2,45175	313,1712	0,128	85,122	0	1016,98	6,8	8,8	8,7	1	1	1	1	1	1	1	1	1	0	1	-10,500352	274,228733	310,152337	0
15.01.2021	20:27:15	0	0	3,502398	2,47725	313,2288	0,135	85,133	0	1016,92	6,7	8,8	8,7	1	1	1	1	1	1	1	1	1	0	1	-8,033827	274,222724	312,590761	0
15.01.2021	20:27:16	0	0	5,310087	2,5875	309,9204	0,133	85,132	0	1017,02	6,7	8,8	8,7	1	1	1	1	1	1	1	1	1	0	1	-12,191684	274,212214	308,383752	0
15.01.2021	20:27:17	0	0	3,050475	2,63775	297,2016	0,134	85,113	0	1016,78	6,7	8,8	8,7	1	1	1	1	1	1	1	1	1	0	1	-12,403101	274,216718	308,193396	0
15.01.2021	20:27:18	0	0	4,0673	2,69325	302,7996	0,133	85,111	0	1016,88	6,7	8,8	8,7	1	1	1	1	1	1	1	1	1	0	1	-7,681466	274,213715	312,90099	0
15.01.2021	20:27:19	0	0	2,824497	2,6895	306,1188	0,127	85,121	0	1016,86	6,7	8,8	8,8	1	1	1	1	1	1	1	1	1	0	1	-8,386187	274,095487	311,643744	0
15.01.2021	20:27:20	0	0	5,084125	2,68275	307,2204	0,133	85,131	0	1016,88	6,7	8,8	8,7	1	1	1	1	1	1	1	1	1	0	1	-10,359408	274,213715	310,223048	0
15.01.2021	20:27:21	0	0	3,276436	2,73225	307,2564	0,129	85,105	0	1017,06	6,7	8,8	8,7	1	1	1	1	1	1	1	1	1	0	1	-10,570825	274,079082	309,382498	0
15.01.2021	20:27:22	0	0	2,485572	2,967	307,4976	0,134	85,127	0	1017	6,7	8,8	8,7	1	1	1	1	1	1	1	1	1	0	1	-8,527132	274,122361	311,628331	0
15.01.2021	20:27:23	0	0	3,050475	3,183	308,5416	0,134	85,124	0	1016,98	6,7	8,8	8,7	1	1	1	1	1	1	1	1	1	0	1	-6,8358	274,093995	313,187164	0
15.01.2021	20:27:24	0	0	2,485572	3,29625	303,4296	0,136	85,131	0	1017,1	6,7	8,8	8,7	1	1	1	1	1	1	1	1	1	0	1	-12,473573	274,111906	307,633047	0
15.01.2021	20:27:25	0	0	3,050475	3,3375	306,1764	0,127	85,114	0	1016,76	6,7	8,8	8,7	1	1	1	1	1	1	1	1	1	0	1	-8,104299	274,086537	311,883836	0
15.01.2021	20:27:26	0	0	4,293261	3,357	304,7112	0,132	85,124	0	1016,94	6,7	8,8	8,7	1	1	1	1	1	1	1	1	1	0	1	-10,570825	274,114893	309,549747	0
15.01.2021	20:27:27	0	0	2,937512	3,26475	306,8136	0,137	85,119	0	1016,9	6,7	8,8	8,6	1	1	1	1	1	1	1	1	1	0	1	-12,121212	274,23324	308,55256	0
15.01.2021	20:27:28	0	0	3,050475	3,2835	307,1412	0,135	85,118	0	1017,06	6,7	8,8	8,7	1	1	1	1	1	1	1	1	1	0	1	-12,332629	274,146281	307,934595	0
15.01.2021	20:27:29	0	0	4,519223	3,3645	313,164	0,131	85,114	0	1016,96	6,7	8,9	8,7	1	1	1	1	1	1	1	1	1	0	1	-9,44327	274,059713	310,419616	0
15.01.2021	20:27:30	0	0	2,598553	3,3525	313,9776	0,133	85,121	0	1016,9	6,7	8,8	8,7	1	1	1	1	1	1	1	1	1	0	1	-6,412967	274,180718	314,015209	0
15.01.2021	20:27:31	0	0	4,406242	3,411	309,8952	0,136	85,121	0	1016,94	6,7	8,8	8,7	1	1	1	1	1	1	1	1	1	0	1	-15,997181	274,227231	304,648482	0
15.01.2021	20:27:32	0	0	2,711534	3,40725	306,144	0,135	85,108	0	1016,84	6,7	8,8	8,7	1	1	1	1	1	1	1	1	1	0	1	-7,258633	274,225728	313,380004	0
15.01.2021	20:27:33	0	0	4,293261	3,22875	306,8208	0,134	85,101	0	1017,02	6,7	8,9	8,7	1	1	1	1	1	1	1	1	1	0	1	-10,782241	274,19571	309,716022	0
15.01.2021	20:27:34	0	0	2,485572	3,027	310,716	0,135	85,11	0	1017,14	6,7	8,8	8,7	1	1	1	1	1	1	1	1	1	0	1	-7,681466	274,062691	312,195326	0
15.01.2021	20:27:35	0	0	2,937495	2,99625	322,0776	0,13	85,104	0	1016,96	6,7	8,8	8,7	1	1	1	1	1	1	1	1	1	0	1	-6,906272	274,180718	313,521904	0
15.01.2021	20:27:36	0	0	3,95432	2,9355	321,1416	0,135	85,117	0	1017,14	6,8	8,8	8,7	1	1	1	1	1	1	1	1	1	0	1	-14,799154	274,204711	305,741193	0
15.01.2021	20:27:37	0	0	3,050475	2,832	316,6236	0,132	85,114	0	1017,04	6,7	8,8	8,7	1	1	1	1	1	1	1	1	1	0	1	-12,262156	274,119373	307,879348	0
15.01.2021	20:27:38	0	0	2,711534	2,985	313,9704	0,132	85,119	0	1016,96	6,7	8,8	8,7	1	1	1	1	1	1	1	1	1	0	1	-6,412967	274,08952	313,589097	0
15.01.2021	20:27:39	0	0	3,728359	3,02175	316,62	0,135	85,12	0	1017,16	6,7	8,8	8,7	1	1	1	1	1	1	1	1	1	0	1	-9,513742	274,218219	311,089777	0
15.01.2021	20:27:40	0	0	3,841339	2,81775	304,272	0,134	85,125	0	1017,06	6,7	8,8	8,7	1	1	1	1	1	1	1	1	1	0	1	-8,174771	274,215217	312,414705	0
15.01.2021	20:27:41	0	0	4,632203	2,69925	306,8028	0,131	85,12	0	1017,04	6,7	8,8	8,7	1	1	1	1	1	1	1	1	1	0	1	-9,725159	274,239252	310,976733	0
15.01.2021	20:27:42	0	0	4,745184	2,6715	309,222	0,127	85,119	0	1016,96	6,7	8,8	8,7	1	1	1	1	1	1	1	1	1	0	1	-11,557435	274,08952	308,444629	0
15.01.2021	20:27:43	0	0	2,824514	2,607	309,8988	0,132	85,118	0	1016,88	6,7	8,8	8,7	1	1	1	1	1	1	1	1	1	0	1	-11,768851	274,228733	308,883838	0
15.01.2021	20:27:44	0	0	3,163456	2,547	303,5088	0,133	85,108	0	1016,84	6,7	8,8	8,7	1	1	1	1	1	1	1	1	1	0	1	-8,80902	274,077591	311,137341	0
15.01.2021	20:27:45	0	0	2,824514	2,60775	307,62	0,131	85,118	0	1017,1	6,7	8,8	8,7	1	1	1	1	1	1	1	1	1	0	1	-12,473573	274,19421	308,017679	0
15.01.2021	20:27:46	0	0	2,937495	2,5935	300,1968	0,135	85,109	0	1016,78	6,7	8,8	8,7	1	1	1	1	1	1	1	1	1	0	1	-12,825934	274,053757	307,009147	0
15.01.2021	20:27:47	0	0	4,971145	2,52975	299,0016	0,124	85,11	0	1017	6,7	8,8	8,7	1	1	1	1	1	1	1	1	1	0	1	-8,45666	274,225728	312,181978	0
15.01.2021	20:27:48	0	0	3,502398	2,349	299,4012	0,129	85,108	0	1016,94	6,7	8,9	8,7	1	1	1	1	1	1	1	1	1	0	1	-8,45666	274,093995	311,566304	0
15.01.2021	20:27:49	0	0	2,485572	2,23425	291,5028	0,13	85,115	0	1016,98	6,8	8,8	8,7	1	1	1	1	1	1	1	1	1	0	1	-8,104299	274,19571	312,393965	0
15.01.2021	20:27:50	0	0	2,598553	2,2725	295,5816	0,129	85,105	0	1016,94	6,7	8,8	8,7	1	1	1	1	1	1	1	1	1	0	1	-7,82241	274,111906	312,284209	0
15.01.2021	20:27:51	0	0	5,197106	2,31675	287,298	0,134	85,099	0	1016,78	6,7	8,8	8,7	1	1	1	1	1	1	1	1	1	0	1	-7,681466	274,225728	312,957171	0
15.01.2021	20:27:52	0	0	4,293261	2,34375	294,7932	0,136	85,099	0	1016,94	6,7	8,8	8,7	1	1	1	1	1	1	1	1	1	0	1	-9,866103	274,182217	310,569079	0
15.01.2021	20:27:53	0	0	4,745155	2,3055	291,276	0,13	85,1	0	1016,98	6,7	9	8,8	1	1	1	1	1	1	1	1	1	0	1	-7,329105	274,056734	312,519877	0
15.01.2021	20:27:54	0	0	2,485572	2,23575	295,974	0,136	85,125	0	1017,04	6,7	8,8	8,7	1	1	1	1	1	1	1	1	1	0	1	-8,315715	274,134318	311,895607	0
15.01.2021	20:27:55	0	0	2,937495	2,169	292,5936	0,128	85,104	0	1016,86	6,7	8,9	8,7	1	1	1	1	1	1	1	1	1	0	1	-10,782241	274,07014	309,129327	0
15.01.2021	20:27:56	0	0	4,519223	2,187	291,1356	0,129	85,101	0	1016,9	6,7	8,8	8,7	1	1	1	1	1	1	1	1	1	0	1	-11,839323	274,108919	308,253347	0
15.01.2021	20:27:57	0	0	3,728359	2,15475	289,1124	0,135	85,105	0	1017	6,7	8,8	8,7	1	1	1	1	1	1	1	1	1	0	1	-5,637773	274,243762	315,085215	0
15.01.2021	20:27:58	0	0	2,711534	2,0955	287,7444	0,132	85,106	0	1016,96	6,7	8,8	8,7	1	1	1	1	1	1	1	1	1	0	1	-7,82241	274,116386	312,305138	0
15.01.2021	20:27:59	0	0	4,519223	2,03775	286,686	0,138	85,116	0	1017	6,7	8,8	8,7	1	1	1	1	1	1	1	1	1	0	1	-7,329105	274,064181	312,554641	0
15.01.2021	20:28:00	0	0	2,937495	1,9845	289,6704	0,133	85,121	0	1016,98	6,7	8,8	8,7	1	1	1	1	1	1	1	1	1	0	1	-10,42988	274,20171	310,096437	0
15.01.2021	20:28:01	0	0	5,197106	1,90875	290,016	0,133	85,124	0	1016,96	6,7	8,8	8,7	1	1	1	1	1	1	1	1	1	0	1	-9,090909	274,218219	311,51261	0
15.01.2021	20:28:02	0	0	4,293261	1,85775	289,5048	0,131	85,11	0	1017,1	6,8	8,8	8,7	1	1	1	1	1	1	1	1	1	0	1	-9,654686	274,20021	310,864616	0
15.01.2021	20:28:03	0	0	4,745212	1,73025	309,888	0,132	85,119	0	1017,04	6,7	8,9	8,6	1	1	1	1	1	1	1	1	1	0	1	-8,668076	274,131328	311,529277	0
15.01.2021	20:28:04	0	0	2,711534	1,68375	290,394	0,137	85,122	0	1017,12	6,7	8,8	8,7	1	1	1	1	1	1	1	1	1	0	1	-7,470049	274,243762	313,252939	0
15.01.2021	20:28:05	0	0	2,146631	1,686	308,0412	0,129	85,111	0	1016,84	6,8	8,8	8,7	1	1	1	1	1	1	1	1	1	0	1	-3,805497	274,101456	316,252312	0
15.01.2021	20:28:06	0	0	4,406242	1,7925	297,9684	0,133	85,104	0	1016,9	6,7	8,8	8,7	1	1	1	1	1	1	1	1	1	0	1	-7,258633	274,206211	313,288731	0
15.01.2021	20:28:07	0	0	3,050475	2,079	285,4764	0,135	85,112	0	1017,1	6,7	8,8	8,7	1	1	1	1	1	1	1	1	1	0	1	-9,936575	274,07014	309,974993	0
15.01.2021	20:28:08	0	0	4,745184	2,2875	306,5112	0,129	85,1	0	1016,96	6,7	8,8	8,7	1	1	1	1	1	1	1	1	1	0	1	-7,681466	274,131328	312,515888	0
15.01.2021	20:28:09	0	0	5,197106	2,556	300,1464	0,129	85,119	0	1016,8	6,8	8,8	8,7	1	1	1	1	1	1	1	1	1	0	1	-8,949965	274,19871	311,562324	0
15.01.2021	20:28:10	0	0	4,858164	2,6265	303,3864	0,136	85,13	0	1017,06	6,7	8,8	8,7	1	1	1	1	1	1	1	1	1	0	1	-8,879493	274,234743	311,801308	0
15.01.2021	20:28:11	0	0	4,632203	2,72325	302,8932	0,132	85,123	0	1016,96	6,7	8,8	8,7	1	1	1	1	1	1	1	1	1	0	1	-13,812544	274,182217	306,622637	0
15.01.2021	20:28:12	0	0	4,406242	2,8065	309,4992	0,134	85,111	0	1016,94	6,7	8,8	8,7	1	1	1	1	1	1	1	1	1	0	1	-7,892882	274,258803	312,900472	0
15.01.2021	20:28:13	0	0	3,841339	2,8125	297,5724	0,134	85,109	0	1017,08	6,7	8,8	8,7	1	1	1	1	1	1	1	1	1	0	1	-11,346018	274,218219	309,257501	0
15.01.2021	20:28:14	0	0	3,389417	2,8335	303,5124	0,131	85,111	0	1017,04	6,7	8,8	8,7	1	1	1	1	1	1	1	1	1	0	1	-8,386187	274,076101	311,553214	0
15.01.2021	20:28:15	0	0	4,293261	3,0555	287,0352	0,132	85,102	0	1017,02	6,7	9	8,7	1	1	1	1	1	1	1	1	1	0	1	-8,245243	274,240755	312,46368	0
15.01.2021	20:28:16	0	0	3,728359	3,24075	285,516	0,138	85,125	0	1017,1	6,7	8,8	8,7	1	1	1	1	1	1	1	1	1	0	1	-14,940099	274,141794	305,306157	0
15.01.2021	20:28:17	0	0	4,632203	3,30675	289,188	0,133	85,125	0	1017	6,7	8,8	8,7	1	1	1	1	1	1	1	1	1	0	1	-7,82241	274,049291	311,991824	0
15.01.2021	20:28:18	0	0	3,502419	3,23475	290,8116	0,133	85,112	0	1017,04	6,7	8,8	8,6	1	1	1	1	1	1	1	1	1	0	1	-6,8358	274,182217	313,599382	0
15.01.2021	20:28:19	0	0	4,406242	3,2025	291,4488	0,135	85,123	0	1017,1	6,7	8,8	8,7	1	1	1	1	1	1	1	1	1	0	1	-10,570825	274,239252	310,131067	0
15.01.2021	20:28:20	0	0	3,389397	3,285	302,796	0,132	85,098	0	1016,9	6,7	8,8	8,8	1	1	1	1	1	1	1	1	1	0	1	-12,825934	274,237749	307,868927	0
15.01.2021	20:28:21	0	0	4,293261	3,2535	307,5696	0,136	85,127	0	1016,92	6,7	8,8	8,7	1	1	1	1	1	1	1	1	1	0	1	-8,033827	274,209212	312,527572	0
15.01.2021	20:28:22	0	0	4,180281	3,066	296,8704	0,134	85,119	0	1017,14	6,7	8,8	8,7	1	1	1	1	1	1	1	1	1	0	1	-10,993658	274,07163	308,924868	0
15.01.2021	20:28:23	0	0	3,841339	2,7585	300,474	0,14	85,126	0	1017,06	6,8	8,8	8,7	1	1	1	1	1	1	1	1	1	0	1	-6,765328	274,120867	313,383155	0
15.01.2021	20:28:24	0	0	4,632203	2,51025	294,8544	0,139	85,131	0	1017,06	6,7	8,8	8,7	1	1	1	1	1	1	1	1	1	0	1	-6,765328	274,218219	313,838191	0
15.01.2021	20:28:25	0	0	4,858164	2,382	281,376	0,138	85,12	0	1017,1	6,7	8,8	8,7	1	1	1	1	1	1	1	1	1	0	1	-13,6716	274,050779	306,149583	0
15.01.2021	20:28:26	0	0	4,0673	2,33175	288,468	0,128	85,131	0	1017	6,8	8,8	8,7	1	1	1	1	1	1	1	1	1	0	1	-9,302326	274,230235	311,35739	0
15.01.2021	20:28:27	0	0	3,389417	2,307	290,7432	0,13	85,126	0	1016,88	6,8	8,9	8,7	1	1	1	1	1	1	1	1	1	0	1	-8,45666	274,107427	311,629037	0
15.01.2021	20:28:28	0	0	4,858164	2,2365	294,7068	0,132	85,116	0	1017,02	6,7	8,8	8,7	1	1	1	1	1	1	1	1	1	0	1	-10,641297	274,129833	309,549073	0
15.01.2021	20:28:29	0	0	3,728336	2,19975	278,8848	0,13	85,13	0	1017	6,7	8,8	8,8	1	1	1	1	1	1	1	1	1	0	1	-12,262156	274,249777	308,48897	0
15.01.2021	20:28:30	0	0	4,971145	2,3295	291,528	0,132	85,132	0	1017,06	6,7	8,8	8,7	1	1	1	1	1	1	1	1	1	0	1	-10,570825	274,171729	309,81533	0
15.01.2021	20:28:31	0	0	4,519223	2,49075	295,1496	0,136	85,133	0	1017,1	6,7	8,8	8,7	1	1	1	1	1	1	1	1	1	0	1	-10,570825	274,221223	310,04674	0
15.01.2021	20:28:32	0	0	4,293261	2,59875	288,8244	0,141	85,128	0	1016,98	6,7	8,8	8,7	1	1	1	1	1	1	1	1	1	0	1	-6,976744	274,062691	312,900048	0
15.01.2021	20:28:33	0	0	3,389417	2,5275	286,6608	0,135	85,127	0	1017,08	6,8	8,8	8,7	1	1	1	1	1	1	1	1	1	0	1	-6,131078	274,20321	314,402254	0
15.01.2021	20:28:34	0	0	4,632203	2,3985	287,7768	0,143	85,135	0	1017,26	6,7	8,8	8,7	1	1	1	1	1	1	1	1	1	0	1	-12,825934	274,219721	307,784607	0
15.01.2021	20:28:35	0	0	4,632203	2,358	274,2588	0,135	85,131	0	1017,1	6,7	8,8	8,7	1	1	1	1	1	1	1	1	1	0	1	-12,684989	274,227231	307,960673	0
15.01.2021	20:28:36	0	0	4,858164	2,42475	288,09	0,143	85,124	0	1016,9	6,7	8,8	8,7	1	1	1	1	1	1	1	1	1	0	1	-11,41649	274,123856	308,745952	0
15.01.2021	20:28:37	0	0	3,389417	2,445	287,0028	0,14	85,13	0	1016,94	6,8	8,8	8,7	1	1	1	1	1	1	1	1	1	0	1	-10,359408	274,131328	309,837945	0
15.01.2021	20:28:38	0	0	3,163456	2,34	283,554	0,134	85,122	0	1016,84	6,8	8,9	8,7	1	1	1	1	1	1	1	1	1	0	1	-10,288936	274,07163	309,62959	0
15.01.2021	20:28:39	0	0	2,711534	2,41875	285,8688	0,142	85,129	0	1017,04	6,8	8,9	8,7	1	1	1	1	1	1	1	1	1	0	1	-9,725159	274,188213	310,738053	0
15.01.2021	20:28:40	0	0	2,598553	2,535	300,5388	0,136	85,136	0	1017,22	6,7	8,8	8,7	1	1	1	1	1	1	1	1	1	0	1	-12,614517	274,064181	307,269228	0
15.01.2021	20:28:41	0	0	4,0673	2,65575	298,2636	0,136	85,126	0	1016,96	6,7	8,8	8,7	1	1	1	1	1	1	1	1	1	0	1	-10,993658	274,213715	309,588798	0
15.01.2021	20:28:42	0	0	3,728359	2,63625	296,8344	0,136	85,124	0	1016,94	6,7	8,8	8,7	1	1	1	1	1	1	1	1	1	0	1	-9,44327	274,085046	310,537901	0
15.01.2021	20:28:43	0	0	3,163456	2,5905	291,1932	0,141	85,138	0	1016,86	6,7	8,8	8,7	1	1	1	1	1	1	1	1	1	0	1	-8,668076	274,222724	311,956512	0
15.01.2021	20:28:44	0	0	5,084095	2,53425	290,4048	0,134	85,119	0	1016,9	6,8	8,8	8,8	1	1	1	1	1	1	1	1	1	0	1	-7,963354	274,062691	311,913437	0
15.01.2021	20:28:45	0	0	2,824514	2,454	295,5456	0,136	85,131	0	1017,08	6,7	8,8	8,7	1	1	1	1	1	1	1	1	1	0	1	-10,42988	274,170231	309,949273	0
15.01.2021	20:28:46	0	0	3,615356	2,42175	295,5096	0,129	85,123	0	1017	6,8	8,8	8,8	1	1	1	1	1	1	1	1	1	0	1	-13,601128	274,058223	306,254806	0
15.01.2021	20:28:47	0	0	3,95432	2,35425	293,3028	0,141	85,127	0	1017,18	6,8	8,8	8,7	1	1	1	1	1	1	1	1	1	0	1	-10,288936	274,101456	309,768873	0
15.01.2021	20:28:48	0	0	3,389417	2,364	302,8752	0,135	85,137	0	1017,06	6,7	8,9	8,7	1	1	1	1	1	1	1	1	1	0	1	-8,527132	274,053757	311,307949	0
15.01.2021	20:28:49	0	0	4,632203	2,346	298,6056	0,138	85,128	0	1017,04	6,8	8,8	8,7	1	1	1	1	1	1	1	1	1	0	1	-9,231853	274,239252	311,470038	0
15.01.2021	20:28:50	0	0	4,745184	2,388	302,4324	0,136	85,128	0	1017	6,7	8,8	8,7	1	1	1	1	1	1	1	1	1	0	1	-5,355884	274,161246	314,981276	0
15.01.2021	20:28:51	0	0	4,180281	2,53725	304,9956	0,134	85,125	0	1017,02	6,8	8,8	8,7	1	1	1	1	1	1	1	1	1	0	1	-9,866103	274,076101	310,073299	0
15.01.2021	20:28:52	0	0	3,276436	2,60325	299,7936	0,141	85,123	0	1017,22	6,7	8,8	8,7	1	1	1	1	1	1	1	1	1	0	1	-8,386187	274,212214	312,189249	0
15.01.2021	20:28:53	0	0	3,050475	2,526	305,3556	0,136	85,13	0	1017,08	6,8	8,8	8,7	1	1	1	1	1	1	1	1	1	0	1	-10,42988	274,06865	309,474732	0
15.01.2021	20:28:54	0	0	3,050475	2,403	298,9836	0,133	85,118	0	1016,94	6,7	8,8	8,7	1	1	1	1	1	1	1	1	1	0	1	-8,45666	274,192711	312,027581	0
15.01.2021	20:28:55	0	0	3,163456	2,382	302,0724	0,144	85,137	0	1017,02	6,7	8,8	8,7	1	1	1	1	1	1	1	1	1	0	1	-11,486963	274,06865	308,417649	0
15.01.2021	20:28:56	0	0	4,858164	2,37375	299,412	0,14	85,126	0	1016,94	6,7	8,8	8,7	1	1	1	1	1	1	1	1	1	0	1	-8,80902	274,107427	311,276676	0
15.01.2021	20:28:57	0	0	4,0673	2,3565	292,6296	0,139	85,125	0	1017,04	6,9	8,8	8,7	1	1	1	1	1	1	1	1	1	0	1	-10,570825	274,062691	309,305967	0
15.01.2021	20:28:58	0	0	4,293261	2,3535	284,8284	0,14	85,119	0	1017,16	6,7	8,8	8,7	1	1	1	1	1	1	1	1	1	0	1	-11,346018	274,209212	309,215381	0
15.01.2021	20:28:59	0	0	4,745184	2,289	291,456	0,14	85,137	0	1016,88	6,7	8,8	8,7	1	1	1	1	1	1	1	1	1	0	1	-10,288936	274,192711	310,195305	0
15.01.2021	20:29:00	0	0	4,180281	2,25225	293,364	0,136	85,134	0	1017,04	6,7	8,9	8,7	1	1	1	1	1	1	1	1	1	0	1	-7,047216	274,062691	312,829575	0
15.01.2021	20:29:01	0	0	4,519195	2,20875	298,9476	0,138	85,138	0	1017	6,7	8,8	8,8	1	1	1	1	1	1	1	1	1	0	1	-11,134602	274,131328	309,062752	0
15.01.2021	20:29:02	0	0	4,067276	2,076	317,3328	0,14	85,138	0	1016,96	6,7	8,8	8,8	1	1	1	1	1	1	1	1	1	0	1	-11,06413	274,240755	309,644794	0
15.01.2021	20:29:03	0	0	3,050475	1,93875	306,8388	0,137	85,137	0	1017,12	6,7	8,8	8,7	1	1	1	1	1	1	1	1	1	0	1	-9,725159	274,168733	310,646994	0
15.01.2021	20:29:04	0	0	4,632203	1,98225	309,222	0,134	85,126	0	1016,94	6,7	8,8	8,7	1	1	1	1	1	1	1	1	1	0	1	-9,584214	274,06716	310,313442	0
15.01.2021	20:29:05	0	0	5,423067	2,01	293,688	0,141	85,145	0	1017,08	6,7	8,9	8,7	1	1	1	1	1	1	1	1	1	0	1	-11,06413	274,137308	309,161164	0
15.01.2021	20:29:06	0	0	4,293261	1,911	300,4992	0,14	85,132	0	1017,02	6,7	8,8	8,7	1	1	1	1	1	1	1	1	1	0	1	-10,007047	274,064181	309,876699	0
15.01.2021	20:29:07	0	0	3,95432	1,80225	319,9932	0,135	85,128	0	1017,02	6,7	8,8	8,7	1	1	1	1	1	1	1	1	1	0	1	-13,389711	274,176223	307,017451	0
15.01.2021	20:29:08	0	0	3,841339	1,63425	306,1116	0,14	85,139	0	1016,96	6,7	8,8	8,7	1	1	1	1	1	1	1	1	1	0	1	-8,315715	274,237749	312,379146	0
15.01.2021	20:29:09	0	0	3,615378	1,47825	304,6572	0,141	85,125	0	1017,12	6,7	8,8	8,7	1	1	1	1	1	1	1	1	1	0	1	-11,909796	274,170231	308,469358	0
15.01.2021	20:29:10	0	0	4,293261	1,46925	300,8304	0,134	85,134	0	1017	6,7	8,9	8,7	1	1	1	1	1	1	1	1	1	0	1	-11,980268	274,219721	308,630273	0
15.01.2021	20:29:11	0	0	3,050475	1,47375	300,5064	0,136	85,123	0	1017	6,8	8,8	8,7	1	1	1	1	1	1	1	1	1	0	1	-9,654686	274,076101	310,284715	0
15.01.2021	20:29:12	0	0	2,937495	1,5255	281,4588	0,139	85,13	0	1017,06	6,7	8,8	8,7	1	1	1	1	1	1	1	1	1	0	1	-11,557435	274,131328	308,639919	0
15.01.2021	20:29:13	0	0	4,632175	1,62975	291,546	0,139	85,138	0	1017,04	6,7	8,9	8,8	1	1	1	1	1	1	1	1	1	0	1	-12,544045	274,237749	308,150816	0
15.01.2021	20:29:14	0	0	4,745184	1,72725	302,0724	0,139	85,122	0	1017	6,7	8,9	8,7	1	1	1	1	1	1	1	1	1	0	1	-5,144468	274,111906	314,962152	0
15.01.2021	20:29:15	0	0	4,858135	1,85025	294,8508	0,137	85,112	0	1016,94	6,8	8,9	8,8	1	1	1	1	1	1	1	1	1	0	1	-9,372798	274,261812	311,434638	0
15.01.2021	20:29:16	0	0	4,519223	2,03475	302,7564	0,139	85,125	0	1017,28	6,8	8,8	8,7	1	1	1	1	1	1	1	1	1	0	1	-8,386187	274,155259	311,92299	0
15.01.2021	20:29:17	0	0	2,598553	2,1975	312,516	0,148	85,139	0	1017,2	6,7	8,8	8,7	1	1	1	1	1	1	1	1	1	0	1	-8,315715	274,246769	312,421341	0
15.01.2021	20:29:18	0	0	3,163437	2,3745	299,4192	0,138	85,138	0	1016,88	6,7	8,8	8,8	1	1	1	1	1	1	1	1	1	0	1	-14,65821	274,080573	305,302073	0
15.01.2021	20:29:19	0	0	3,95432	2,5305	302,7672	0,14	85,123	0	1016,92	6,7	8,8	8,7	1	1	1	1	1	1	1	1	1	0	1	-7,82241	274,240755	312,886513	0
15.01.2021	20:29:20	0	0	3,389417	2,55525	303,93	0,135	85,114	0	1016,92	6,7	8,8	8,7	1	1	1	1	1	1	1	1	1	0	1	-14,869626	274,222724	305,754961	0
15.01.2021	20:29:21	0	0	3,954296	2,61675	306,4392	0,139	85,131	0	1017,1	6,7	8,9	8,8	1	1	1	1	1	1	1	1	1	0	1	-7,751938	274,210713	312,816479	0
15.01.2021	20:29:22	0	0	3,615378	2,694	304,2432	0,137	85,126	0	1017,04	6,7	8,8	8,7	1	1	1	1	1	1	1	1	1	0	1	-8,668076	274,180718	311,7601	0
15.01.2021	20:29:23	0	0	4,180281	2,6415	301,2192	0,142	85,138	0	1017,08	6,7	8,8	8,7	1	1	1	1	1	1	1	1	1	0	1	-12,614517	274,236246	308,073313	0
15.01.2021	20:29:24	0	0	4,519223	2,52	303,5556	0,139	85,107	0	1016,86	6,8	8,9	8,7	1	1	1	1	1	1	1	1	1	0	1	-9,866103	274,101456	310,191706	0
15.01.2021	20:29:25	0	0	3,276436	2,52075	291,5172	0,138	85,122	0	1017,02	6,8	8,9	8,7	1	1	1	1	1	1	1	1	1	0	1	-9,302326	274,228733	311,350364	0
15.01.2021	20:29:26	0	0	4,632203	2,65275	283,6188	0,142	85,131	0	1016,9	6,7	8,8	8,7	1	1	1	1	1	1	1	1	1	0	1	-11,698379	274,147777	308,575835	0
15.01.2021	20:29:27	0	0	3,502398	2,7375	285,5268	0,144	85,125	0	1016,92	6,8	8,9	8,7	1	1	1	1	1	1	1	1	1	0	1	-8,879493	274,055245	310,962539	0
15.01.2021	20:29:28	0	0	4,519195	2,71875	290,7648	0,136	85,112	0	1016,9	6,7	8,8	8,8	1	1	1	1	1	1	1	1	1	0	1	-11,205074	274,174725	309,195085	0
15.01.2021	20:29:29	0	0	4,0673	2,9205	294,1272	0,141	85,104	0	1017,02	6,7	8,8	8,7	1	1	1	1	1	1	1	1	1	0	1	-6,553911	274,245266	314,176111	0
15.01.2021	20:29:30	0	0	2,711534	3,141	297,954	0,141	85,101	0	1016,98	6,7	8,8	8,7	1	1	1	1	1	1	1	1	1	0	1	-9,654686	274,168733	310,717467	0
15.01.2021	20:29:31	0	0	4,519223	3,26475	299,3976	0,139	85,121	0	1017,04	6,7	8,9	8,7	1	1	1	1	1	1	1	1	1	0	1	-10,782241	274,085046	309,19893	0
15.01.2021	20:29:32	0	0	3,502398	3,288	305,334	0,14	85,119	0	1016,94	6,7	8,9	8,7	1	1	1	1	1	1	1	1	1	0	1	-9,372798	274,176223	311,034364	0
15.01.2021	20:29:33	0	0	3,95432	3,204	291,258	0,133	85,117	0	1016,98	6,7	8,9	8,7	1	1	1	1	1	1	1	1	1	0	1	-7,047216	274,07014	312,864352	0
15.01.2021	20:29:34	0	0	3,728359	3,11775	302,8212	0,139	85,089	0	1017,02	6,7	8,8	8,7	1	1	1	1	1	1	1	1	1	0	1	-12,825934	274,131328	307,37142	0
15.01.2021	20:29:35	0	0	2,937495	3,03825	307,2132	0,139	85,101	0	1016,88	6,7	8,8	8,7	1	1	1	1	1	1	1	1	1	0	1	-9,302326	274,06716	310,59533	0
15.01.2021	20:29:36	0	0	4,406242	2,9535	294,4044	0,139	85,115	0	1017,12	6,7	8,9	8,7	1	1	1	1	1	1	1	1	1	0	1	-8,315715	274,182217	312,119466	0
15.01.2021	20:29:37	0	0	2,372592	2,84325	297,9252	0,133	85,096	0	1017	6,7	8,8	8,7	1	1	1	1	1	1	1	1	1	0	1	-6,272023	274,113399	313,841573	0
15.01.2021	20:29:38	0	0	3,163456	2,748	285,5196	0,133	85,112	0	1017,02	6,7	8,8	8,7	1	1	1	1	1	1	1	1	1	0	1	-10,42988	274,239252	310,272012	0
15.01.2021	20:29:39	0	0	3,163456	2,7735	290,4444	0,138	85,122	0	1017,06	6,7	8,9	8,7	1	1	1	1	1	1	1	1	1	0	1	-5,637773	274,092503	314,378223	0
15.01.2021	20:29:40	0	0	3,276436	2,78625	309,2292	0,14	85,107	0	1017,08	6,7	8,9	8,7	1	1	1	1	1	1	1	1	1	0	1	-6,131078	274,091012	313,877952	0
15.01.2021	20:29:41	0	0	3,841339	2,69025	302,0616	0,136	85,114	0	1017,04	6,7	8,9	8,7	1	1	1	1	1	1	1	1	1	0	1	-8,386187	274,20171	312,14013	0
15.01.2021	20:29:42	0	0	4,293261	2,86725	300,4632	0,137	85,091	0	1017	6,7	8,8	8,7	1	1	1	1	1	1	1	1	1	0	1	-7,188161	274,056734	312,660821	0
15.01.2021	20:29:43	0	0	4,293236	2,922	297,2124	0,137	85,104	0	1017,06	6,8	8,8	8,8	1	1	1	1	1	1	1	1	1	0	1	-12,544045	274,105934	307,534679	0
15.01.2021	20:29:44	0	0	3,728359	2,86575	290,0484	0,134	85,094	0	1017	6,7	8,8	8,7	1	1	1	1	1	1	1	1	1	0	1	-9,513742	274,162743	310,830415	0
15.01.2021	20:29:45	0	0	4,632203	2,814	287,3844	0,134	85,088	0	1016,94	6,7	8,9	8,7	1	1	1	1	1	1	1	1	1	0	1	-9,936575	274,239252	310,765317	0
15.01.2021	20:29:46	0	0	4,745184	2,805	288,8208	0,138	85,082	0	1016,9	6,7	8,9	8,7	1	1	1	1	1	1	1	1	1	0	1	-4,721635	274,180718	315,706541	0
15.01.2021	20:29:47	0	0	3,728359	2,80725	299,0232	0,136	85,099	0	1016,94	6,7	8,9	8,7	1	1	1	1	1	1	1	1	1	0	1	-7,681466	274,23324	312,992306	0
15.01.2021	20:29:48	0	0	2,598553	2,76525	291,9096	0,133	85,097	0	1016,94	6,7	8,8	8,7	1	1	1	1	1	1	1	1	1	0	1	-9,795631	274,183716	310,646557	0
15.01.2021	20:29:49	0	0	3,276436	2,676	292,6296	0,138	85,095	0	1016,98	6,7	8,8	8,7	1	1	1	1	1	1	1	1	1	0	1	-10,993658	274,107427	309,092039	0
15.01.2021	20:29:50	0	0	3,163456	2,55075	299,7936	0,135	85,103	0	1017,02	6,8	8,9	8,7	1	1	1	1	1	1	1	1	1	0	1	-8,033827	274,092503	311,98217	0
15.01.2021	20:29:51	0	0	3,389417	2,517	298,3644	0,137	85,096	0	1017,06	6,7	8,9	8,7	1	1	1	1	1	1	1	1	1	0	1	-10,500352	274,058223	309,355581	0
15.01.2021	20:29:52	0	0	2,485572	2,48175	294,8148	0,136	85,097	0	1017,02	6,7	8,8	8,7	1	1	1	1	1	1	1	1	1	0	1	-7,329105	274,108919	312,763565	0
15.01.2021	20:29:53	0	0	4,632203	2,40225	290,7936	0,134	85,098	0	1016,98	6,7	8,8	8,7	1	1	1	1	1	1	1	1	1	0	1	-8,668076	274,062691	311,208716	0
15.01.2021	20:29:54	0	0	2,259598	2,44725	298,998	0,137	85,102	0	1017	6,7	8,8	8,8	1	1	1	1	1	1	1	1	1	0	1	-7,892882	274,141794	312,353374	0
15.01.2021	20:29:55	0	0	4,858164	2,5185	302,0832	0,129	85,088	0	1016,92	6,7	8,8	8,7	1	1	1	1	1	1	1	1	1	0	1	-8,386187	274,222724	312,2384	0
15.01.2021	20:29:56	0	0	2,03365	2,65875	296,5572	0,135	85,071	0	1017	6,7	8,8	8,7	1	1	1	1	1	1	1	1	1	0	1	-4,510218	274,07163	315,408307	0
15.01.2021	20:29:57	0	0	4,293261	2,92575	297,2304	0,135	85,1	0	1017,06	6,7	8,8	8,7	1	1	1	1	1	1	1	1	1	0	1	-6,624383	274,19571	313,87388	0
15.01.2021	20:29:58	0	0	4,180256	3,19275	296,1468	0,134	85,088	0	1016,94	6,7	8,9	8,8	1	1	1	1	1	1	1	1	1	0	1	-6,131078	274,240755	314,577845	0
15.01.2021	20:29:59	0	0	2,372592	3,3705	291,8412	0,126	85,092	0	1017,04	6,7	8,8	8,7	1	1	1	1	1	1	1	1	1	0	1	-4,933051	274,12535	315,236372	0
15.01.2021	20:30:00	0	0	4,293261	3,41175	296,0964	0,134	85,163	0	1017,08	6,7	8,9	8,7	1	1	1	1	1	1	1	1	1	0	1	-5,990134	274,218219	314,613385	0
15.01.2021	20:30:01	0	0	2,937495	3,58725	297,27	0,134	85,092	0	1017,06	6,7	8,8	8,7	1	1	1	1	1	1	1	1	1	0	1	-9,654686	274,096979	310,382213	0
15.01.2021	20:30:02	0	0	4,406242	3,714	299,3976	0,134	85,117	0	1017,04	6,7	8,8	8,7	1	1	1	1	1	1	1	1	1	0	1	-8,386187	274,062691	311,490604	0
15.01.2021	20:30:03	0	0	2,824514	3,6705	297,558	0,134	85,104	0	1017	6,7	8,8	8,7	1	1	1	1	1	1	1	1	1	0	1	-9,795631	274,177721	310,618535	0
15.01.2021	20:30:04	0	0	3,389417	3,6345	301,6224	0,129	85,118	0	1016,9	6,7	8,8	8,7	1	1	1	1	1	1	1	1	1	0	1	-4,298802	274,044826	315,494592	0
15.01.2021	20:30:05	0	0	2,711534	3,444	298,2456	0,135	85,104	0	1016,8	6,7	8,9	8,7	1	1	1	1	1	1	1	1	1	0	1	-9,231853	274,11788	310,902673	0
15.01.2021	20:30:06	0	0	2,824514	3,23175	300,1644	0,136	85,101	0	1017,1	6,7	8,9	8,7	1	1	1	1	1	1	1	1	1	0	1	-6,765328	274,055245	313,076704	0
15.01.2021	20:30:07	0	0	3,841339	3,0825	295,182	0,127	85,093	0	1017,02	6,7	8,8	8,7	1	1	1	1	1	1	1	1	1	0	1	-8,668076	274,110413	311,431569	0
15.01.2021	20:30:08	0	0	2,598569	2,964	299,3292	0,133	85,113	0	1016,82	6,7	8,9	8,6	1	1	1	1	1	1	1	1	1	0	1	-8,45666	274,079082	311,496662	0
15.01.2021	20:30:09	0	0	3,728359	2,82825	299,772	0,135	85,112	0	1017,04	6,7	8,9	8,7	1	1	1	1	1	1	1	1	1	0	1	-7,188161	274,052268	312,639971	0
15.01.2021	20:30:10	0	0	2,937495	2,9295	299,3724	0,131	85,119	0	1017,1	6,7	8,8	8,7	1	1	1	1	1	1	1	1	1	0	1	-8,879493	274,098471	311,164376	0
15.01.2021	20:30:11	0	0	3,95432	3,117	300,852	0,136	85,118	0	1017,02	6,7	8,8	8,7	1	1	1	1	1	1	1	1	1	0	1	-15,221987	274,06716	304,675668	0
15.01.2021	20:30:12	0	0	4,067276	3,228	296,496	0,135	85,123	0	1017,02	6,7	8,8	8,8	1	1	1	1	1	1	1	1	1	0	1	-10,641297	274,122361	309,514166	0
15.01.2021	20:30:13	0	0	3,050494	3,2265	290,7612	0,13	85,094	0	1016,86	6,7	8,9	8,6	1	1	1	1	1	1	1	1	1	0	1	-9,513742	274,245266	311,21628	0
15.01.2021	20:30:14	0	0	2,937495	3,051	298,6884	0,129	85,092	0	1016,96	6,7	8,8	8,7	1	1	1	1	1	1	1	1	1	0	1	-3,946441	274,180718	316,481735	0
15.01.2021	20:30:15	0	0	4,51925	2,97075	289,62	0,138	85,127	0	1016,88	6,7	8,9	8,6	1	1	1	1	1	1	1	1	1	0	1	-10,077519	274,218219	310,526	0
15.01.2021	20:30:16	0	0	4,632175	2,967	296,4672	0,131	85,103	0	1017,06	6,7	8,9	8,8	1	1	1	1	1	1	1	1	1	0	1	-7,470049	274,230235	313,189667	0
15.01.2021	20:30:17	0	0	4,180281	2,94675	289,4904	0,139	85,123	0	1017,02	6,7	8,8	8,7	1	1	1	1	1	1	1	1	1	0	1	-8,738548	274,173227	311,654608	0
15.01.2021	20:30:18	0	0	3,502398	2,74875	304,5888	0,134	85,119	0	1016,98	6,8	8,8	8,7	1	1	1	1	1	1	1	1	1	0	1	-10,077519	274,215217	310,511957	0
15.01.2021	20:30:19	0	0	2,937495	2,61225	304,2108	0,135	85,113	0	1016,9	6,7	8,8	8,7	1	1	1	1	1	1	1	1	1	0	1	-6,272023	274,128339	313,911365	0
15.01.2021	20:30:20	0	0	4,406216	2,64975	298,656	0,138	85,115	0	1017,1	6,8	8,9	8,8	1	1	1	1	1	1	1	1	1	0	1	-11,346018	274,243762	309,37697	0
15.01.2021	20:30:21	0	0	3,389437	2,787	298,6956	0,139	85,131	0	1016,96	6,7	8,8	8,6	1	1	1	1	1	1	1	1	1	0	1	-10,500352	274,180718	309,927823	0
15.01.2021	20:30:22	0	0	4,632203	2,847	300,2616	0,133	85,117	0	1017,08	6,7	8,9	8,7	1	1	1	1	1	1	1	1	1	0	1	-11,909796	274,225728	308,728842	0
15.01.2021	20:30:23	0	0	3,276436	2,78025	305,7696	0,14	85,116	0	1016,96	6,7	8,8	8,7	1	1	1	1	1	1	1	1	1	0	1	-6,976744	274,14329	313,2765	0
15.01.2021	20:30:24	0	0	3,163456	2,83125	296,1036	0,136	85,115	0	1017,02	6,7	8,8	8,7	1	1	1	1	1	1	1	1	1	0	1	-9,372798	274,225728	311,265839	0
15.01.2021	20:30:25	0	0	3,502398	2,8875	302,8104	0,137	85,116	0	1016,84	6,7	8,8	8,7	1	1	1	1	1	1	1	1	1	0	1	-5,708245	274,171729	314,677909	0
15.01.2021	20:30:26	0	0	2,259611	3,05025	291,8592	0,131	85,117	0	1016,96	6,7	8,8	8,7	1	1	1	1	1	1	1	1	1	0	1	-5,426357	274,237749	315,268504	0
15.01.2021	20:30:27	0	0	3,615378	3,1425	295,5024	0,138	85,119	0	1016,98	6,7	8,8	8,7	1	1	1	1	1	1	1	1	1	0	1	-6,8358	274,174725	313,564359	0
15.01.2021	20:30:28	0	0	4,519223	3,14475	288,8676	0,135	85,106	0	1017,04	6,7	8,9	8,7	1	1	1	1	1	1	1	1	1	0	1	-10,007047	274,07014	309,904521	0
15.01.2021	20:30:29	0	0	3,050457	3,05475	290,2176	0,135	85,116	0	1017,18	6,7	8,8	8,8	1	1	1	1	1	1	1	1	1	0	1	-11,909796	274,091012	308,099234	0
15.01.2021	20:30:30	0	0	4,519223	3,339	293,346	0,135	85,107	0	1017,02	6,7	8,9	8,7	1	1	1	1	1	1	1	1	1	0	1	-7,610994	274,19721	312,894282	0
15.01.2021	20:30:31	0	0	4,858193	3,1905	299,412	0,137	85,128	0	1017	6,7	8,9	8,6	1	1	1	1	1	1	1	1	1	0	1	-13,319239	274,186713	307,136964	0
15.01.2021	20:30:32	0	0	2,485572	2,985	294,804	0,136	85,124	0	1017,04	6,7	8,9	8,7	1	1	1	1	1	1	1	1	1	0	1	-9,866103	274,061202	310,003735	0
15.01.2021	20:30:33	0	0	3,728336	2,62575	290,0052	0,136	85,126	0	1017,18	6,8	8,9	8,8	1	1	1	1	1	1	1	1	1	0	1	-7,82241	274,079082	312,130912	0
15.01.2021	20:30:34	0	0	3,502398	2,43825	280,6488	0,131	85,113	0	1016,98	6,7	8,9	8,7	1	1	1	1	1	1	1	1	1	0	1	-8,033827	274,128339	312,14956	0
15.01.2021	20:30:35	0	0	3,163437	2,22	292,6944	0,131	85,093	0	1016,98	6,7	8,8	8,8	1	1	1	1	1	1	1	1	1	0	1	-5,285412	274,07014	314,626156	0
15.01.2021	20:30:36	0	0	4,180281	1,98	270,6012	0,135	85,134	0	1016,98	6,7	8,9	8,7	1	1	1	1	1	1	1	1	1	0	1	-4,22833	274,129833	315,96204	0
15.01.2021	20:30:37	0	0	3,163456	1,78125	281,4228	0,136	85,118	0	1017,02	6,7	8,9	8,7	1	1	1	1	1	1	1	1	1	0	1	-7,047216	274,06865	312,857395	0
15.01.2021	20:30:38	0	0	4,519223	1,791	294,4692	0,135	85,122	0	1016,96	6,7	8,9	8,7	1	1	1	1	1	1	1	1	1	0	1	-10,852713	274,140298	309,386555	0
15.01.2021	20:30:39	0	0	4,632203	1,9305	296,4096	0,14	85,138	0	1016,9	6,8	8,9	8,7	1	1	1	1	1	1	1	1	1	0	1	-7,188161	274,23324	313,485611	0
15.01.2021	20:30:40	0	0	2,711534	2,12775	305,7588	0,133	85,152	0	1016,98	6,7	8,9	8,7	1	1	1	1	1	1	1	1	1	0	1	-11,275546	274,173227	309,11761	0
15.01.2021	20:30:41	0	0	3,728336	2,274	311,796	0,134	85,145	0	1017,04	6,7	8,9	8,8	1	1	1	1	1	1	1	1	1	0	1	-11,134602	274,061202	308,735236	0
15.01.2021	20:30:42	0	0	2,259611	2,3295	312,1236	0,135	85,13	0	1016,96	6,7	8,9	8,7	1	1	1	1	1	1	1	1	1	0	1	-7,751938	274,128339	312,431449	0
15.01.2021	20:30:43	0	0	4,067276	2,52825	300,6108	0,131	85,143	0	1016,92	6,7	8,9	8,8	1	1	1	1	1	1	1	1	1	0	1	-9,654686	274,252785	311,110514	0
15.01.2021	20:30:44	0	0	4,406242	2,73825	304,6788	0,132	85,14	0	1016,96	6,8	8,8	8,7	1	1	1	1	1	1	1	1	1	0	1	-4,439746	274,152266	315,855444	0
15.01.2021	20:30:45	0	0	4,858164	3,09825	303,2712	0,138	85,149	0	1017	6,7	8,9	8,7	1	1	1	1	1	1	1	1	1	0	1	-10,147992	274,251281	310,610172	0
15.01.2021	20:30:46	0	0	4,745184	3,37425	303,2568	0,135	85,143	0	1017,1	6,7	8,8	8,7	1	1	1	1	1	1	1	1	1	0	1	-9,231853	274,131328	310,9655	0
15.01.2021	20:30:47	0	0	3,163437	3,2175	296,19	0,134	85,145	0	1016,88	6,7	8,9	8,8	1	1	1	1	1	1	1	1	1	0	1	-10,852713	274,055245	308,989318	0
15.01.2021	20:30:48	0	0	4,0673	2,92425	295,2324	0,139	85,15	0	1017,14	6,7	8,8	8,7	1	1	1	1	1	1	1	1	1	0	1	-8,174771	274,173227	312,218386	0
15.01.2021	20:30:49	0	0	3,389397	2,87025	295,596	0,141	85,151	0	1016,96	6,7	8,9	8,8	1	1	1	1	1	1	1	1	1	0	1	-8,45666	274,064181	311,427086	0
15.01.2021	20:30:50	0	0	4,632203	2,84625	284,6448	0,14	85,147	0	1016,98	6,7	8,9	8,7	1	1	1	1	1	1	1	1	1	0	1	-12,825934	274,180718	307,602242	0
15.01.2021	20:30:51	0	0	4,406242	2,9535	298,6416	0,136	85,148	0	1016,88	6,7	8,9	8,7	1	1	1	1	1	1	1	1	1	0	1	-9,866103	274,260308	310,934292	0
15.01.2021	20:30:52	0	0	3,050475	3,06375	303,2388	0,137	85,163	0	1017,02	6,7	8,9	8,7	1	1	1	1	1	1	1	1	1	0	1	-5,84919	274,177721	314,564977	0
15.01.2021	20:30:53	0	0	3,163475	3,093	302,8032	0,138	85,166	0	1016,94	6,7	8,9	8,6	1	1	1	1	1	1	1	1	1	0	1	-8,668076	274,11788	311,46645	0
15.01.2021	20:30:54	0	0	4,406242	3,0585	313,6248	0,132	85,153	0	1016,9	6,7	8,8	8,7	1	1	1	1	1	1	1	1	1	0	1	-12,332629	274,219721	308,277913	0
15.01.2021	20:30:55	0	0	3,502419	2,9025	309,2832	0,137	85,164	0	1016,8	6,7	8,9	8,6	1	1	1	1	1	1	1	1	1	0	1	-9,302326	274,240755	311,406598	0
15.01.2021	20:30:56	0	0	4,745184	2,77875	306,1692	0,14	85,162	0	1017	6,7	8,9	8,7	1	1	1	1	1	1	1	1	1	0	1	-9,231853	274,116386	310,895695	0
15.01.2021	20:30:57	0	0	3,615356	2,679	300,9132	0,132	85,173	0	1016,88	6,7	8,9	8,8	1	1	1	1	1	1	1	1	1	0	1	-9,725159	274,23324	310,948613	0
15.01.2021	20:30:58	0	0	4,519223	2,676	311,8248	0,137	85,178	0	1017	6,7	8,9	8,7	1	1	1	1	1	1	1	1	1	0	1	-12,473573	274,218219	308,129946	0
15.01.2021	20:30:59	0	0	4,406216	2,7495	302,0616	0,144	85,158	0	1016,94	6,8	8,8	8,8	1	1	1	1	1	1	1	1	1	0	1	-8,597604	274,06865	311,307008	0
15.01.2021	20:31:00	0	0	3,841316	2,80725	307,6056	0,143	85,176	0	1017,16	6,7	8,9	8,8	1	1	1	1	1	1	1	1	1	0	1	-9,936575	274,213715	310,645881	0
15.01.2021	20:31:01	0	0	2,711517	2,772	309,2544	0,14	85,167	0	1017	6,7	8,8	8,8	1	1	1	1	1	1	1	1	1	0	1	-7,82241	274,258803	312,970944	0
15.01.2021	20:31:02	0	0	3,502398	2,6475	304,9704	0,137	85,199	0	1016,98	6,7	8,9	8,7	1	1	1	1	1	1	1	1	1	0	1	-5,990134	274,189712	314,480087	0
15.01.2021	20:31:03	0	0	3,728336	2,66475	297,2304	0,14	85,182	0	1016,86	6,8	8,9	8,8	1	1	1	1	1	1	1	1	1	0	1	-11,275546	274,257298	309,510769	0
15.01.2021	20:31:04	0	0	2,598553	2,60925	298,008	0,138	85,17	0	1017,12	6,7	8,9	8,7	1	1	1	1	1	1	1	1	1	0	1	-5,84919	274,107427	314,236507	0
15.01.2021	20:31:05	0	0	4,858164	2,6355	296,838	0,14	85,176	0	1016,98	6,8	8,9	8,7	1	1	1	1	1	1	1	1	1	0	1	-11,909796	274,213715	308,67266	0
15.01.2021	20:31:06	0	0	3,615378	2,631	288,1512	0,134	85,164	0	1017,14	6,7	8,9	8,7	1	1	1	1	1	1	1	1	1	0	1	-9,654686	274,11788	310,47984	0
15.01.2021	20:31:07	0	0	4,406242	2,703	299,0412	0,14	85,176	0	1017,08	6,7	8,9	8,7	1	1	1	1	1	1	1	1	1	0	1	-9,725159	274,228733	310,927531	0
15.01.2021	20:31:08	0	0	3,050457	2,826	296,892	0,136	85,17	0	1017,08	6,7	8,9	8,8	1	1	1	1	1	1	1	1	1	0	1	-6,553911	274,19571	313,944352	0
15.01.2021	20:31:09	0	0	4,745184	2,814	296,8452	0,14	85,178	0	1017,06	6,7	8,8	8,7	1	1	1	1	1	1	1	1	1	0	1	-11,275546	274,144785	308,984688	0
15.01.2021	20:31:10	0	0	3,728336	3,0525	293,0652	0,136	85,17	0	1017	6,7	8,8	8,8	1	1	1	1	1	1	1	1	1	0	1	-6,694856	274,252785	314,070345	0
15.01.2021	20:31:11	0	0	2,372592	3,171	291,8628	0,137	85,181	0	1016,78	6,7	8,9	8,7	1	1	1	1	1	1	1	1	1	0	1	-13,03735	274,134318	307,173972	0
15.01.2021	20:31:12	0	0	3,615378	3,09375	299,1276	0,133	85,166	0	1016,96	6,7	8,8	8,7	1	1	1	1	1	1	1	1	1	0	1	-11,346018	274,236246	309,341812	0
15.01.2021	20:31:13	0	0	2,937477	2,99925	314,8092	0,135	85,166	0	1017,06	6,7	8,9	8,8	1	1	1	1	1	1	1	1	1	0	1	-7,470049	274,062691	312,406742	0
15.01.2021	20:31:14	0	0	3,050475	2,91975	316,2168	0,142	85,18	0	1017,16	6,7	8,8	8,7	1	1	1	1	1	1	1	1	1	0	1	-8,033827	274,186713	312,422376	0
15.01.2021	20:31:15	0	0	4,519223	2,832	315,2412	0,14	85,165	0	1017	6,7	8,9	8,7	1	1	1	1	1	1	1	1	1	0	1	-12,403101	274,064181	307,480645	0
15.01.2021	20:31:16	0	0	2,711517	2,8485	304,326	0,143	85,172	0	1016,96	6,7	8,9	8,8	1	1	1	1	1	1	1	1	1	0	1	-14,023961	274,105934	306,054763	0
15.01.2021	20:31:17	0	0	4,519195	3,0135	324,1548	0,137	85,157	0	1017,08	6,7	8,9	8,8	1	1	1	1	1	1	1	1	1	0	1	-13,460183	274,263317	307,354294	0
15.01.2021	20:31:18	0	0	2,824514	2,95425	318,1572	0,141	85,177	0	1017,02	6,8	8,9	8,7	1	1	1	1	1	1	1	1	1	0	1	-9,513742	274,20171	311,012575	0
15.01.2021	20:31:19	0	0	4,632175	2,685	315,936	0,141	85,174	0	1017,02	6,8	8,9	8,8	1	1	1	1	1	1	1	1	1	0	1	-9,795631	274,07312	310,129853	0
15.01.2021	20:31:20	0	0	3,841316	2,547	297,8928	0,142	85,171	0	1017,04	6,7	8,9	8,8	1	1	1	1	1	1	1	1	1	0	1	-7,681466	274,126844	312,494939	0
15.01.2021	20:31:21	0	0	4,971145	2,4555	312,5016	0,143	85,166	0	1016,94	6,7	8,9	8,7	1	1	1	1	1	1	1	1	1	0	1	-5,708245	274,07014	314,203323	0
15.01.2021	20:31:22	0	0	4,971115	2,52	300,1536	0,143	85,184	0	1017,02	6,7	8,9	8,8	1	1	1	1	1	1	1	1	1	0	1	-8,386187	274,225728	312,25245	0
15.01.2021	20:31:23	0	0	2,937495	2,73825	292,6044	0,135	85,175	0	1016,92	6,8	8,9	8,7	1	1	1	1	1	1	1	1	1	0	1	-8,104299	274,101456	311,95351	0
15.01.2021	20:31:24	0	0	4,406216	2,79375	296,802	0,134	85,171	0	1017	6,7	8,9	8,8	1	1	1	1	1	1	1	1	1	0	1	-10,782241	274,237749	309,91262	0
15.01.2021	20:31:25	0	0	4,293236	2,81625	291,204	0,141	85,177	0	1017,04	6,7	8,9	8,8	1	1	1	1	1	1	1	1	1	0	1	-13,03735	274,209212	307,524049	0
15.01.2021	20:31:26	0	0	2,598537	2,79	296,118	0,135	85,159	0	1017,02	6,7	8,9	8,8	1	1	1	1	1	1	1	1	1	0	1	-8,386187	274,260308	312,414207	0
15.01.2021	20:31:27	0	0	4,0673	2,757	296,8164	0,137	85,174	0	1017,02	6,8	8,9	8,7	1	1	1	1	1	1	1	1	1	0	1	-6,483439	274,147777	313,790776	0
15.01.2021	20:31:28	0	0	2,711534	2,826	291,8412	0,141	85,176	0	1017,06	6,7	8,9	8,7	1	1	1	1	1	1	1	1	1	0	1	-6,131078	274,114893	313,989493	0
15.01.2021	20:31:29	0	0	2,937495	2,9025	297,9072	0,141	85,179	0	1017,02	6,8	8,9	8,7	1	1	1	1	1	1	1	1	1	0	1	-9,161381	274,074611	310,771061	0
15.01.2021	20:31:30	0	0	3,502376	2,766	308,5092	0,144	85,175	0	1016,94	6,7	8,9	8,8	1	1	1	1	1	1	1	1	1	0	1	-9,936575	274,06567	309,954125	0
15.01.2021	20:31:31	0	0	4,745155	2,484	299,4372	0,139	85,166	0	1016,94	6,8	8,9	8,8	1	1	1	1	1	1	1	1	1	0	1	-7,258633	274,14329	312,994612	0
15.01.2021	20:31:32	0	0	4,406216	2,3415	306,1656	0,144	85,183	0	1017,04	6,7	8,9	8,8	1	1	1	1	1	1	1	1	1	0	1	-5,990134	274,254289	314,782104	0
15.01.2021	20:31:33	0	0	3,050457	2,211	297,6912	0,142	85,181	0	1016,98	6,7	8,8	8,8	1	1	1	1	1	1	1	1	1	0	1	-14,446794	274,08952	305,555271	0
15.01.2021	20:31:34	0	0	4,858135	2,18775	299,0268	0,139	85,164	0	1016,92	6,7	8,9	8,8	1	1	1	1	1	1	1	1	1	0	1	-7,188161	274,155259	313,121017	0
15.01.2021	20:31:35	0	0	4,406216	2,46375	299,052	0,147	85,155	0	1017	6,7	8,9	8,8	1	1	1	1	1	1	1	1	1	0	1	-8,033827	274,252785	312,731373	0
15.01.2021	20:31:36	0	0	4,0673	2,634	299,4264	0,144	85,17	0	1017,06	6,8	8,9	8,7	1	1	1	1	1	1	1	1	1	0	1	-10,993658	274,135813	309,22465	0
15.01.2021	20:31:37	0	0	4,180281	2,73	293,3424	0,147	85,171	0	1017,08	6,7	8,9	8,7	1	1	1	1	1	1	1	1	1	0	1	-13,6716	274,261812	307,135836	0
15.01.2021	20:31:38	0	0	2,937477	2,69625	303,4836	0,142	85,168	0	1016,8	6,7	8,9	8,8	1	1	1	1	1	1	1	1	1	0	1	-6,553911	274,149273	313,727295	0
15.01.2021	20:31:39	0	0	4,180281	2,70675	301,2624	0,147	85,174	0	1017,08	6,8	8,9	8,7	1	1	1	1	1	1	1	1	1	0	1	-8,80902	274,261812	311,998415	0
15.01.2021	20:31:40	0	0	2,937495	2,7045	310,428	0,146	85,181	0	1016,98	6,7	8,9	8,7	1	1	1	1	1	1	1	1	1	0	1	-7,82241	274,225728	312,816227	0
15.01.2021	20:31:41	0	0	4,858164	2,7705	303,84	0,145	85,169	0	1017,08	6,8	8,9	8,7	1	1	1	1	1	1	1	1	1	0	1	-8,527132	274,215217	312,062344	0
15.01.2021	20:31:42	0	0	3,615356	2,88975	305,7624	0,146	85,162	0	1016,98	6,7	8,8	8,8	1	1	1	1	1	1	1	1	1	0	1	-6,272023	274,206211	314,275342	0
15.01.2021	20:31:43	0	0	3,728359	2,99775	302,778	0,14	85,159	0	1016,94	6,7	8,9	8,7	1	1	1	1	1	1	1	1	1	0	1	-7,681466	274,11788	312,45306	0
15.01.2021	20:31:44	0	0	3,615356	3,07875	305,4384	0,145	85,177	0	1017,06	6,8	8,9	8,8	1	1	1	1	1	1	1	1	1	0	1	-11,134602	274,096979	308,902298	0
15.01.2021	20:31:45	0	0	4,858164	3,12975	304,29	0,144	85,172	0	1017	6,7	8,9	8,7	1	1	1	1	1	1	1	1	1	0	1	-8,738548	274,174725	311,661611	0
15.01.2021	20:31:46	0	0	3,502398	3,00675	306,7848	0,138	85,172	0	1017	6,7	8,9	8,7	1	1	1	1	1	1	1	1	1	0	1	-9,795631	274,080573	310,164653	0
15.01.2021	20:31:47	0	0	4,406242	2,76525	300,294	0,145	85,21	0	1017,26	6,7	8,9	8,7	1	1	1	1	1	1	1	1	1	0	1	-8,668076	274,146281	311,599148	0
15.01.2021	20:31:48	0	0	4,293236	2,61825	301,5144	0,146	85,169	0	1016,9	6,7	8,9	8,8	1	1	1	1	1	1	1	1	1	0	1	-13,460183	274,111906	306,646436	0
15.01.2021	20:31:49	0	0	5,084125	2,56275	290,4408	0,146	85,174	0	1016,96	6,7	8,9	8,7	1	1	1	1	1	1	1	1	1	0	1	-6,272023	274,222724	314,352565	0
15.01.2021	20:31:50	0	0	2,937477	2,631	290,4048	0,14	85,177	0	1017	6,8	8,9	8,8	1	1	1	1	1	1	1	1	1	0	1	-5,778717	274,119373	314,362787	0
15.01.2021	20:31:51	0	0	2,711534	2,5965	291,9024	0,144	85,177	0	1017,1	6,7	8,9	8,7	1	1	1	1	1	1	1	1	1	0	1	-12,332629	274,258803	308,460726	0
15.01.2021	20:31:52	0	0	4,519223	2,63175	286,7652	0,149	85,174	0	1016,98	6,8	8,9	8,7	1	1	1	1	1	1	1	1	1	0	1	-9,866103	274,159749	310,464061	0
15.01.2021	20:31:53	0	0	2,711534	2,6445	293,0148	0,147	85,17	0	1017,08	6,7	8,9	8,7	1	1	1	1	1	1	1	1	1	0	1	-12,755462	274,267833	308,080144	0
15.01.2021	20:31:54	0	0	3,502376	2,6385	283,2012	0,146	85,163	0	1017,14	6,8	8,9	8,8	1	1	1	1	1	1	1	1	1	0	1	-5,355884	274,12535	314,813539	0
15.01.2021	20:31:55	0	0	4,745184	2,66775	281,0016	0,142	85,165	0	1016,94	6,7	8,9	8,7	1	1	1	1	1	1	1	1	1	0	1	-8,949965	274,260308	311,85043	0
15.01.2021	20:31:56	0	0	4,971145	2,68725	289,962	0,141	85,181	0	1017,08	6,9	8,9	8,7	1	1	1	1	1	1	1	1	1	0	1	-9,513742	274,12535	310,655681	0
15.01.2021	20:31:57	0	0	5,084095	2,71725	285,516	0,141	85,152	0	1017,02	6,8	8,9	8,8	1	1	1	1	1	1	1	1	1	0	1	-8,104299	274,135813	312,114009	0
15.01.2021	20:31:58	0	0	2,824497	2,637	294,8796	0,144	85,186	0	1017,02	6,7	8,9	8,8	1	1	1	1	1	1	1	1	1	0	1	-5,708245	274,082064	314,259	0
15.01.2021	20:31:59	0	0	5,423067	2,544	293,7636	0,139	85,163	0	1017,08	6,7	8,9	8,7	1	1	1	1	1	1	1	1	1	0	1	-9,725159	274,20321	310,808174	0
15.01.2021	20:32:00	0	0	3,615378	2,58075	292,2156	0,145	85,181	0	1016,98	6,7	8,9	8,7	1	1	1	1	1	1	1	1	1	0	1	-10,359408	274,251281	310,398755	0
15.01.2021	20:32:01	0	0	3,276417	2,59275	293,2992	0,148	85,173	0	1017,2	6,7	8,9	8,8	1	1	1	1	1	1	1	1	1	0	1	-10,711769	274,147777	309,562446	0
15.01.2021	20:32:02	0	0	4,858135	2,4825	295,2	0,142	85,168	0	1016,94	6,7	8,9	8,8	1	1	1	1	1	1	1	1	1	0	1	-6,553911	274,248273	314,19018	0
15.01.2021	20:32:03	0	0	5,423035	2,42175	294,8328	0,144	85,165	0	1016,92	6,8	8,9	8,8	1	1	1	1	1	1	1	1	1	0	1	-6,8358	274,230235	313,823916	0
15.01.2021	20:32:04	0	0	4,971145	2,28975	295,5852	0,147	85,168	0	1016,94	6,7	8,9	8,7	1	1	1	1	1	1	1	1	1	0	1	-6,624383	274,227231	314,021279	0
15.01.2021	20:32:05	0	0	4,971145	2,22525	295,2576	0,148	85,171	0	1016,96	6,7	8,9	8,7	1	1	1	1	1	1	1	1	1	0	1	-8,033827	274,113399	312,079769	0
15.01.2021	20:32:06	0	0	2,485572	2,21025	300,4704	0,141	85,174	0	1017,08	6,7	8,9	8,7	1	1	1	1	1	1	1	1	1	0	1	-12,473573	274,266328	308,354989	0
15.01.2021	20:32:07	0	0	2,598553	2,307	293,3676	0,15	85,178	0	1017,02	6,7	8,9	8,7	1	1	1	1	1	1	1	1	1	0	1	-8,245243	274,147777	312,028971	0
15.01.2021	20:32:08	0	0	4,519195	2,34975	291,186	0,147	85,184	0	1017,02	6,7	8,8	8,8	1	1	1	1	1	1	1	1	1	0	1	-7,82241	274,246769	312,914646	0
15.01.2021	20:32:09	0	0	3,728336	2,5485	308,8476	0,15	85,176	0	1016,94	6,8	8,9	8,8	1	1	1	1	1	1	1	1	1	0	1	-9,866103	274,14329	310,387142	0
15.01.2021	20:32:10	0	0	2,711534	2,643	302,6052	0,144	85,178	0	1016,92	6,7	8,9	8,7	1	1	1	1	1	1	1	1	1	0	1	-11,134602	274,243762	309,588387	0
15.01.2021	20:32:11	0	0	3,050475	2,5935	305,3448	0,147	85,189	0	1017,06	6,7	8,9	8,7	1	1	1	1	1	1	1	1	1	0	1	-5,567301	274,191211	314,909929	0
15.01.2021	20:32:12	0	0	2,711517	2,7555	303,1812	0,14	85,175	0	1017,02	6,7	8,9	8,8	1	1	1	1	1	1	1	1	1	0	1	-10,007047	274,096979	310,029853	0
15.01.2021	20:32:13	0	0	3,163475	2,87325	308,4804	0,148	85,18	0	1017,06	6,7	8,9	8,6	1	1	1	1	1	1	1	1	1	0	1	-9,302326	274,216718	311,294172	0
15.01.2021	20:32:14	0	0	2,937495	2,89425	305,0172	0,14	85,169	0	1016,9	6,7	8,9	8,7	1	1	1	1	1	1	1	1	1	0	1	-8,738548	274,064181	311,145197	0
15.01.2021	20:32:15	0	0	3,276436	2,8815	297,2088	0,144	85,182	0	1017,02	6,7	8,9	8,7	1	1	1	1	1	1	1	1	1	0	1	-10,42988	274,14329	309,823364	0
15.01.2021	20:32:16	0	0	3,728359	2,93775	310,9752	0,144	85,16	0	1017,06	6,7	8,9	8,7	1	1	1	1	1	1	1	1	1	0	1	-7,117689	274,255794	313,661587	0
15.01.2021	20:32:17	0	0	3,050457	2,94375	309,2508	0,143	85,179	0	1016,8	6,7	8,9	8,8	1	1	1	1	1	1	1	1	1	0	1	-12,191684	274,20021	308,327618	0
15.01.2021	20:32:18	0	0	3,163456	2,817	303,2856	0,144	85,174	0	1016,98	6,9	8,9	8,7	1	1	1	1	1	1	1	1	1	0	1	-7,329105	274,248273	313,414986	0
15.01.2021	20:32:19	0	0	4,858193	2,96175	305,7732	0,141	85,174	0	1016,94	6,7	8,9	8,6	1	1	1	1	1	1	1	1	1	0	1	-8,949965	274,149273	311,331241	0
15.01.2021	20:32:20	0	0	4,632203	3,099	304,2504	0,146	85,181	0	1017,08	6,7	8,9	8,7	1	1	1	1	1	1	1	1	1	0	1	-6,976744	274,076101	312,962657	0
15.01.2021	20:32:21	0	0	3,050475	3,05175	305,3592	0,142	85,172	0	1016,88	6,9	8,9	8,7	1	1	1	1	1	1	1	1	1	0	1	-9,866103	274,191211	310,611127	0
15.01.2021	20:32:22	0	0	2,937477	2,925	300,8664	0,145	85,182	0	1016,92	6,7	8,9	8,8	1	1	1	1	1	1	1	1	1	0	1	-12,191684	274,261812	308,615751	0
15.01.2021	20:32:23	0	0	3,728359	2,87325	309,1644	0,146	85,179	0	1016,78	6,7	8,9	8,7	1	1	1	1	1	1	1	1	1	0	1	-10,288936	274,177721	310,12523	0
15.01.2021	20:32:24	0	0	4,067276	2,9265	311,8572	0,141	85,169	0	1017,12	6,7	8,9	8,8	1	1	1	1	1	1	1	1	1	0	1	-11,627907	274,237749	309,066954	0
15.01.2021	20:32:25	0	0	4,406216	2,8935	307,1376	0,146	85,17	0	1016,98	6,7	8,9	8,8	1	1	1	1	1	1	1	1	1	0	1	-6,342495	274,218219	314,261024	0
15.01.2021	20:32:26	0	0	3,615356	2,94675	314,8308	0,144	85,178	0	1016,92	6,8	8,9	8,8	1	1	1	1	1	1	1	1	1	0	1	-10,500352	274,260308	310,300042	0
15.01.2021	20:32:27	0	0	4,406242	2,90925	310,7916	0,145	85,17	0	1017,2	6,8	8,9	8,7	1	1	1	1	1	1	1	1	1	0	1	-11,205074	274,216718	309,391423	0
15.01.2021	20:32:28	0	0	2,485572	2,835	320,3748	0,145	85,171	0	1016,94	6,8	8,9	8,7	1	1	1	1	1	1	1	1	1	0	1	-8,879493	274,098471	311,164376	0
15.01.2021	20:32:29	0	0	2,711534	2,703	311,3316	0,143	85,175	0	1017,16	6,7	8,9	8,7	1	1	1	1	1	1	1	1	1	0	1	-9,231853	274,086537	310,756281	0
15.01.2021	20:32:30	0	0	3,050475	2,67	313,9812	0,142	85,164	0	1017,04	6,7	8,9	8,7	1	1	1	1	1	1	1	1	1	0	1	-10,077519	274,099963	309,973319	0
15.01.2021	20:32:31	0	0	4,293261	2,58525	315,8964	0,143	85,161	0	1017,04	6,8	8,9	8,7	1	1	1	1	1	1	1	1	1	0	1	-8,527132	274,228733	312,125557	0
15.01.2021	20:32:32	0	0	3,276417	2,481	326,3832	0,143	85,181	0	1016,9	6,7	8,9	8,8	1	1	1	1	1	1	1	1	1	0	1	-12,05074	274,242259	308,665216	0
15.01.2021	20:32:33	0	0	5,197106	2,33775	320,832	0,15	85,18	0	1016,82	6,7	8,9	8,7	1	1	1	1	1	1	1	1	1	0	1	-8,45666	274,191211	312,020571	0
15.01.2021	20:32:34	0	0	2,146618	2,274	328,59	0,14	85,18	0	1016,92	6,7	8,9	8,8	1	1	1	1	1	1	1	1	1	0	1	-8,738548	274,080573	311,221735	0
15.01.2021	20:32:35	0	0	2,485572	2,1495	309,312	0,145	85,174	0	1016,92	6,7	8,9	8,7	1	1	1	1	1	1	1	1	1	0	1	-12,191684	274,219721	308,418857	0
15.01.2021	20:32:36	0	0	3,389397	1,99725	329,6412	0,141	85,164	0	1017,12	6,8	8,9	8,8	1	1	1	1	1	1	1	1	1	0	1	-5,990134	274,222724	314,634454	0
15.01.2021	20:32:37	0	0	4,51925	1,87425	284,0184	0,145	85,177	0	1016,92	6,8	8,9	8,6	1	1	1	1	1	1	1	1	1	0	1	-7,540521	274,122361	312,614941	0
15.01.2021	20:32:38	0	0	2,711517	1,51575	308,4624	0,143	85,17	0	1016,92	6,7	8,9	8,8	1	1	1	1	1	1	1	1	1	0	1	-7,188161	274,213715	313,394295	0
15.01.2021	20:32:39	0	0	2,485572	1,3665	310,0392	0,146	85,158	0	1017,02	6,8	8,9	8,7	1	1	1	1	1	1	1	1	1	0	1	-11,275546	274,082064	308,691699	0
15.01.2021	20:32:40	0	0	3,276417	1,4685	281,0376	0,149	85,179	0	1016,9	6,8	8,9	8,8	1	1	1	1	1	1	1	1	1	0	1	-8,879493	274,213715	311,702963	0
15.01.2021	20:32:41	0	0	3,95432	1,65375	283,5396	0,141	85,184	0	1017	6,7	8,9	8,7	1	1	1	1	1	1	1	1	1	0	1	-6,906272	274,257298	313,880043	0
15.01.2021	20:32:42	0	0	4,858164	1,88475	283,5972	0,146	85,179	0	1016,9	6,7	8,9	8,7	1	1	1	1	1	1	1	1	1	0	1	-7,540521	274,111906	312,566098	0
15.01.2021	20:32:43	0	0	3,841316	1,836	269,856	0,145	85,178	0	1016,98	6,7	8,9	8,8	1	1	1	1	1	1	1	1	1	0	1	-14,446794	274,255794	306,332482	0
15.01.2021	20:32:44	0	0	3,95432	1,7655	282,1392	0,143	85,183	0	1017	6,8	8,9	8,7	1	1	1	1	1	1	1	1	1	0	1	-9,725159	274,147777	310,549056	0
15.01.2021	20:32:45	0	0	4,293261	1,716	288,8424	0,137	85,175	0	1016,8	6,7	8,9	8,7	1	1	1	1	1	1	1	1	1	0	1	-11,980268	274,07163	307,938258	0
15.01.2021	20:32:46	0	0	3,502376	1,776	285,1956	0,143	85,164	0	1016,9	6,7	8,9	8,8	1	1	1	1	1	1	1	1	1	0	1	-8,80902	274,141794	311,437235	0
15.01.2021	20:32:47	0	0	4,632203	1,863	285,6168	0,145	85,184	0	1017,06	6,8	8,9	8,7	1	1	1	1	1	1	1	1	1	0	1	-11,134602	274,06865	308,77001	0
15.01.2021	20:32:48	0	0	3,389397	1,971	290,466	0,142	85,164	0	1016,84	6,7	8,9	8,8	1	1	1	1	1	1	1	1	1	0	1	-12,191684	274,119373	307,94982	0
15.01.2021	20:32:49	0	0	4,293236	1,9665	310,3056	0,139	85,164	0	1017,12	6,8	8,9	8,8	1	1	1	1	1	1	1	1	1	0	1	-8,597604	274,254289	312,174634	0
15.01.2021	20:32:50	0	0	3,841316	1,914	280,6776	0,146	85,173	0	1017,02	6,7	8,9	8,8	1	1	1	1	1	1	1	1	1	0	1	-7,540521	274,189712	312,929699	0
15.01.2021	20:32:51	0	0	4,519195	1,86525	294,3936	0,141	85,173	0	1016,92	6,7	8,9	8,8	1	1	1	1	1	1	1	1	1	0	1	-12,684989	274,257298	308,101325	0
15.01.2021	20:32:52	0	0	4,858135	1,83675	300,1572	0,142	85,178	0	1017,02	6,7	8,9	8,8	1	1	1	1	1	1	1	1	1	0	1	-8,80902	274,182217	311,626161	0
15.01.2021	20:32:53	0	0	3,050457	1,80525	286,704	0,148	85,172	0	1017,02	6,8	8,9	8,8	1	1	1	1	1	1	1	1	1	0	1	-10,711769	274,077591	309,234593	0
15.01.2021	20:32:54	0	0	2,937477	1,8555	281,8404	0,145	85,175	0	1017,1	6,7	8,9	8,8	1	1	1	1	1	1	1	1	1	0	1	-7,258633	274,222724	313,365955	0
15.01.2021	20:32:55	0	0	3,728359	1,89675	289,6452	0,144	85,172	0	1017,12	6,8	8,9	8,7	1	1	1	1	1	1	1	1	1	0	1	-10,359408	274,19421	310,131844	0
15.01.2021	20:32:56	0	0	3,954296	2,12175	299,7396	0,15	85,177	0	1016,96	6,8	8,9	8,8	1	1	1	1	1	1	1	1	1	0	1	-9,725159	274,257298	311,061156	0
15.01.2021	20:32:57	0	0	3,163437	2,454	292,626	0,141	85,168	0	1016,92	6,7	8,9	8,8	1	1	1	1	1	1	1	1	1	0	1	-8,879493	274,164241	311,471663	0
15.01.2021	20:32:58	0	0	4,293236	2,706	293,3676	0,148	85,165	0	1016,94	6,8	8,9	8,8	1	1	1	1	1	1	1	1	1	0	1	-8,386187	274,252785	312,379013	0
15.01.2021	20:32:59	0	0	3,276417	3,033	287,3556	0,136	85,171	0	1016,98	6,7	8,9	8,8	1	1	1	1	1	1	1	1	1	0	1	-9,513742	274,23324	311,16003	0
15.01.2021	20:33:00	0	0	4,293236	3,27375	282,87	0,146	85,179	0	1017	6,7	8,9	8,8	1	1	1	1	1	1	1	1	1	0	1	-10,500352	274,245266	310,22967	0
15.01.2021	20:33:01	0	0	4,745155	3,132	300,8592	0,145	85,149	0	1016,84	6,8	8,9	8,8	1	1	1	1	1	1	1	1	1	0	1	-10,147992	274,212214	310,427445	0
15.01.2021	20:33:02	0	0	2,937477	3,04725	286,2432	0,141	85,169	0	1016,98	6,8	8,9	8,8	1	1	1	1	1	1	1	1	1	0	1	-7,258633	274,245266	313,471389	0
15.01.2021	20:33:03	0	0	4,180281	2,838	296,8596	0,145	85,174	0	1016,98	6,7	8,9	8,7	1	1	1	1	1	1	1	1	1	0	1	-10,218464	274,215217	310,371013	0
15.01.2021	20:33:04	0	0	4,293236	2,898	296,8668	0,144	85,154	0	1017,04	6,8	8,9	8,8	1	1	1	1	1	1	1	1	1	0	1	-7,470049	274,246769	313,267007	0
15.01.2021	20:33:05	0	0	3,95432	2,943	295,5672	0,141	85,149	0	1016,94	6,7	8,9	8,7	1	1	1	1	1	1	1	1	1	0	1	-11,41649	274,222724	309,208097	0
15.01.2021	20:33:06	0	0	3,389417	2,91825	306,5256	0,139	85,168	0	1017,06	6,7	8,9	8,7	1	1	1	1	1	1	1	1	1	0	1	-7,188161	274,077591	312,758201	0
15.01.2021	20:33:07	0	0	3,050475	2,8365	306,8496	0,141	85,172	0	1016,96	6,8	8,9	8,7	1	1	1	1	1	1	1	1	1	0	1	-9,302326	274,083555	310,671882	0
15.01.2021	20:33:08	0	0	2,937495	2,766	299,1672	0,144	85,168	0	1016,94	6,8	8,9	8,7	1	1	1	1	1	1	1	1	1	0	1	-8,245243	274,116386	311,882305	0
15.01.2021	20:33:09	0	0	3,163456	2,79525	294,1812	0,146	85,16	0	1016,96	6,7	8,9	8,7	1	1	1	1	1	1	1	1	1	0	1	-8,879493	274,06716	311,018163	0
15.01.2021	20:33:10	0	0	2,372578	2,802	282,042	0,143	85,181	0	1016,98	6,8	8,9	8,8	1	1	1	1	1	1	1	1	1	0	1	-10,711769	274,20021	309,807534	0
15.01.2021	20:33:11	0	0	4,632203	2,8185	286,974	0,144	85,155	0	1016,98	6,8	8,9	8,7	1	1	1	1	1	1	1	1	1	0	1	-10,359408	274,210713	310,209009	0
15.01.2021	20:33:12	0	0	4,519195	2,80875	285,9228	0,142	85,171	0	1016,82	6,7	8,9	8,8	1	1	1	1	1	1	1	1	1	0	1	-9,372798	274,07312	310,552686	0
15.01.2021	20:33:13	0	0	2,485558	2,916	287,4204	0,143	85,168	0	1017,06	6,7	8,9	8,8	1	1	1	1	1	1	1	1	1	0	1	-12,403101	274,129833	307,787269	0
15.01.2021	20:33:14	0	0	4,293261	2,901	284,0796	0,151	85,182	0	1017,04	6,7	8,9	8,7	1	1	1	1	1	1	1	1	1	0	1	-12,403101	274,255794	308,376175	0
15.01.2021	20:33:15	0	0	2,372578	2,889	294,138	0,142	85,173	0	1016,96	6,8	8,9	8,8	1	1	1	1	1	1	1	1	1	0	1	-6,694856	274,192711	313,789385	0
15.01.2021	20:33:16	0	0	3,502398	2,76225	289,7028	0,146	85,161	0	1016,88	6,8	8,9	8,7	1	1	1	1	1	1	1	1	1	0	1	-9,725159	274,07014	310,18641	0
15.01.2021	20:33:17	0	0	4,971115	2,72775	295,6536	0,146	85,165	0	1016,96	6,7	8,9	8,8	1	1	1	1	1	1	1	1	1	0	1	-8,738548	274,146281	311,528676	0
15.01.2021	20:33:18	0	0	3,615356	2,65875	289,5912	0,14	85,18	0	1017,1	6,8	8,9	8,8	1	1	1	1	1	1	1	1	1	0	1	-7,399577	274,251281	313,358586	0
15.01.2021	20:33:19	0	0	5,084095	2,44125	297,2916	0,143	85,175	0	1017	6,7	8,9	8,8	1	1	1	1	1	1	1	1	1	0	1	-8,245243	274,185214	312,203952	0
15.01.2021	20:33:20	0	0	4,858135	2,262	297,6156	0,145	85,167	0	1016,9	6,7	8,9	8,8	1	1	1	1	1	1	1	1	1	0	1	-6,412967	274,064181	313,470779	0
15.01.2021	20:33:21	0	0	4,180256	2,13675	289,5228	0,143	85,161	0	1016,9	6,7	8,9	8,8	1	1	1	1	1	1	1	1	1	0	1	-10,007047	274,137308	310,218247	0
15.01.2021	20:33:22	0	0	2,824497	2,09925	292,626	0,14	85,164	0	1016,86	6,7	8,9	8,8	1	1	1	1	1	1	1	1	1	0	1	-12,896406	274,239252	307,805486	0
15.01.2021	20:33:23	0	0	4,858135	2,06475	280,656	0,145	85,154	0	1017,16	6,8	8,9	8,8	1	1	1	1	1	1	1	1	1	0	1	-13,601128	274,126844	306,575277	0
15.01.2021	20:33:24	0	0	3,502376	2,15625	283,6368	0,149	85,178	0	1017,06	6,8	8,9	8,8	1	1	1	1	1	1	1	1	1	0	1	-11,41649	274,080573	308,543793	0
15.01.2021	20:33:25	0	0	4,406216	2,16	279,4788	0,138	85,156	0	1016,98	6,8	8,9	8,8	1	1	1	1	1	1	1	1	1	0	1	-12,05074	274,20321	308,482592	0
15.01.2021	20:33:26	0	0	3,615378	2,10075	271,8108	0,146	85,166	0	1017,06	6,9	8,9	8,7	1	1	1	1	1	1	1	1	1	0	1	-12,473573	274,252785	308,291627	0
15.01.2021	20:33:27	0	0	4,745184	2,0655	273,186	0,145	85,159	0	1016,94	6,7	8,9	8,7	1	1	1	1	1	1	1	1	1	0	1	-6,553911	274,141794	313,692345	0
15.01.2021	20:33:28	0	0	3,050457	2,0175	269,1324	0,148	85,149	0	1017,06	6,7	8,9	8,8	1	1	1	1	1	1	1	1	1	0	1	-9,795631	274,08952	310,206434	0
15.01.2021	20:33:29	0	0	4,406216	1,9035	264,6036	0,15	85,148	0	1017,06	6,7	8,9	8,8	1	1	1	1	1	1	1	1	1	0	1	-8,174771	274,191211	312,302459	0
15.01.2021	20:33:30	0	0	4,858164	1,824	280,3068	0,143	85,159	0	1017,12	6,8	8,9	8,7	1	1	1	1	1	1	1	1	1	0	1	-9,795631	274,251281	310,962532	0
15.01.2021	20:33:31	0	0	3,615356	1,79475	276,12	0,145	85,148	0	1017,02	6,8	8,9	8,8	1	1	1	1	1	1	1	1	1	0	1	-7,751938	274,185214	312,697257	0
15.01.2021	20:33:32	0	0	5,084125	1,7055	273,9744	0,148	85,152	0	1017	6,7	8,9	8,7	1	1	1	1	1	1	1	1	1	0	1	-6,553911	274,246769	314,183145	0
15.01.2021	20:33:33	0	0	4,745155	1,59	285,5448	0,146	85,139	0	1017,06	6,7	8,9	8,8	1	1	1	1	1	1	1	1	1	0	1	-13,178295	274,135813	307,040013	0
15.01.2021	20:33:34	0	0	3,615356	1,57725	309,9204	0,139	85,14	0	1016,88	6,8	8,9	8,8	1	1	1	1	1	1	1	1	1	0	1	-14,65821	274,236246	306,029621	0
15.01.2021	20:33:35	0	0	2,937477	1,58775	301,6116	0,148	85,142	0	1017,16	6,8	8,9	8,8	1	1	1	1	1	1	1	1	1	0	1	-9,231853	274,189712	311,238367	0
15.01.2021	20:33:36	0	0	3,502398	1,52325	307,224	0,142	85,15	0	1016,84	6,7	8,9	8,7	1	1	1	1	1	1	1	1	1	0	1	-7,681466	274,20321	312,851866	0
15.01.2021	20:33:37	0	0	2,824497	1,54275	307,1916	0,147	85,142	0	1017,08	6,8	8,9	8,8	1	1	1	1	1	1	1	1	1	0	1	-11,275546	274,092503	308,74045	0
15.01.2021	20:33:38	0	0	4,067276	1,54575	308,466	0,134	85,128	0	1017,08	6,8	8,9	8,8	1	1	1	1	1	1	1	1	1	0	1	-8,738548	274,227231	311,907115	0
15.01.2021	20:33:39	0	0	2,598553	1,599	289,5732	0,14	85,13	0	1017,02	6,9	8,9	8,7	1	1	1	1	1	1	1	1	1	0	1	-12,05074	274,245266	308,679282	0
15.01.2021	20:33:40	0	0	3,841339	1,554	296,8272	0,143	85,132	0	1016,96	6,8	8,9	8,7	1	1	1	1	1	1	1	1	1	0	1	-7,963354	274,207712	312,591027	0
15.01.2021	20:33:41	0	0	3,728359	1,5795	284,4036	0,143	85,137	0	1017,04	6,8	8,9	8,7	1	1	1	1	1	1	1	1	1	0	1	-5,21494	274,246769	315,522116	0
15.01.2021	20:33:42	0	0	3,502419	1,60125	292,6764	0,14	85,125	0	1017,12	6,8	8,9	8,6	1	1	1	1	1	1	1	1	1	0	1	-11,41649	274,186713	309,039712	0
15.01.2021	20:33:43	0	0	4,293236	1,644	287,7768	0,137	85,137	0	1016,96	6,7	8,9	8,8	1	1	1	1	1	1	1	1	1	0	1	-11,41649	274,249777	309,334636	0
15.01.2021	20:33:44	0	0	4,858164	1,7985	297,9144	0,143	85,131	0	1017,12	6,8	8,9	8,7	1	1	1	1	1	1	1	1	1	0	1	-12,473573	274,20171	308,052744	0
15.01.2021	20:33:45	0	0	4,858135	1,88325	294,8292	0,148	85,145	0	1017,12	6,8	8,9	8,8	1	1	1	1	1	1	1	1	1	0	1	-8,245243	274,239252	312,456649	0
15.01.2021	20:33:46	0	0	3,502376	1,926	296,5356	0,141	85,139	0	1016,9	6,8	8,9	8,8	1	1	1	1	1	1	1	1	1	0	1	-7,188161	274,20321	313,345171	0
15.01.2021	20:33:47	0	0	4,067325	1,83225	299,4012	0,144	85,135	0	1016,94	6,7	8,9	8,6	1	1	1	1	1	1	1	1	1	0	1	-11,557435	274,227231	309,088228	0
15.01.2021	20:33:48	0	0	3,050457	1,81125	300,1572	0,146	85,129	0	1017,06	6,8	8,9	8,8	1	1	1	1	1	1	1	1	1	0	1	-7,82241	274,17922	312,59876	0
15.01.2021	20:33:49	0	0	3,050475	1,827	292,302	0,141	85,113	0	1016,94	6,8	8,9	8,7	1	1	1	1	1	1	1	1	1	0	1	-8,033827	274,082064	311,933419	0
15.01.2021	20:33:50	0	0	4,858135	1,77	294,84	0,14	85,132	0	1016,98	6,7	8,9	8,8	1	1	1	1	1	1	1	1	1	0	1	-9,090909	274,191211	311,386321	0
15.01.2021	20:33:51	0	0	2,598553	1,815	294,1092	0,142	85,138	0	1016,98	6,8	8,9	8,7	1	1	1	1	1	1	1	1	1	0	1	-4,933051	274,06567	314,957649	0
15.01.2021	20:33:52	0	0	2,711534	1,85925	298,26	0,144	85,134	0	1017,04	6,7	8,9	8,7	1	1	1	1	1	1	1	1	1	0	1	-7,963354	274,110413	312,13629	0
15.01.2021	20:33:53	0	0	3,163437	1,89375	294,8364	0,142	85,122	0	1016,94	6,8	8,9	8,8	1	1	1	1	1	1	1	1	1	0	1	-9,654686	274,07014	310,256882	0
15.01.2021	20:33:54	0	0	4,858135	1,78125	295,1532	0,14	85,135	0	1017	6,8	8,9	8,8	1	1	1	1	1	1	1	1	1	0	1	-14,587738	274,204711	305,95261	0
15.01.2021	20:33:55	0	0	2,824497	1,674	266,2128	0,141	85,139	0	1017	6,8	8,9	8,8	1	1	1	1	1	1	1	1	1	0	1	-10,711769	274,243762	310,01122	0
15.01.2021	20:33:56	0	0	3,050494	1,77075	281,3724	0,145	85,128	0	1017	6,8	8,9	8,6	1	1	1	1	1	1	1	1	1	0	1	-14,65821	274,161246	305,67895	0
15.01.2021	20:33:57	0	0	3,050457	1,8405	297,1692	0,141	85,126	0	1016,94	6,8	8,9	8,8	1	1	1	1	1	1	1	1	1	0	1	-8,949965	274,096979	311,086935	0
15.01.2021	20:33:58	0	0	3,276436	1,9785	294,7968	0,144	85,129	0	1017,04	6,7	8,9	8,7	1	1	1	1	1	1	1	1	1	0	1	-11,909796	274,188213	308,553416	0
15.01.2021	20:33:59	0	0	3,841316	1,94925	299,7324	0,14	85,122	0	1016,96	6,8	8,9	8,8	1	1	1	1	1	1	1	1	1	0	1	-11,205074	274,219721	309,405467	0
15.01.2021	20:34:00	0	0	2,711517	1,8975	298,674	0,143	85,134	0	1017,04	6,7	8,9	8,8	1	1	1	1	1	1	1	1	1	0	1	-6,060606	274,240755	314,648317	0
15.01.2021	20:34:01	0	0	4,519223	1,8045	295,4916	0,143	85,139	0	1017,22	6,7	8,9	8,7	1	1	1	1	1	1	1	1	1	0	1	-10,218464	274,231738	310,44828	0
15.01.2021	20:34:02	0	0	4,632203	1,80375	298,2672	0,145	85,143	0	1016,98	6,7	8,9	8,7	1	1	1	1	1	1	1	1	1	0	1	-7,751938	274,207712	312,802443	0
15.01.2021	20:34:03	0	0	3,050475	1,80225	304,2396	0,141	85,123	0	1016,88	6,7	8,9	8,7	1	1	1	1	1	1	1	1	1	0	1	-8,668076	274,236246	312,019754	0
15.01.2021	20:34:04	0	0	4,745155	1,76625	300,4668	0,147	85,144	0	1017,1	6,7	8,9	8,8	1	1	1	1	1	1	1	1	1	0	1	-10,359408	274,242259	310,356548	0
15.01.2021	20:34:05	0	0	3,276417	1,6455	294,3972	0,137	85,118	0	1016,9	6,7	8,9	8,8	1	1	1	1	1	1	1	1	1	0	1	-9,090909	274,204711	311,449439	0
15.01.2021	20:34:06	0	0	4,519223	1,67925	312,0876	0,144	85,132	0	1017,1	6,8	8,9	8,7	1	1	1	1	1	1	1	1	1	0	1	-11,486963	274,246769	309,250094	0
15.01.2021	20:34:07	0	0	4,858164	1,61925	313,938	0,144	85,134	0	1017,02	6,7	8,9	8,7	1	1	1	1	1	1	1	1	1	0	1	-8,174771	274,137308	312,050523	0
15.01.2021	20:34:08	0	0	4,406216	1,60575	301,2084	0,146	85,136	0	1017,06	6,8	8,9	8,8	1	1	1	1	1	1	1	1	1	0	1	-8,80902	274,06567	311,08168	0
15.01.2021	20:34:09	0	0	2,711517	1,57875	310,6908	0,138	85,133	0	1017,04	6,8	8,9	8,8	1	1	1	1	1	1	1	1	1	0	1	-10,288936	274,099963	309,761903	0
15.01.2021	20:34:10	0	0	2,485572	1,4475	304,7004	0,146	85,133	0	1016,88	6,7	8,9	8,7	1	1	1	1	1	1	1	1	1	0	1	-10,007047	274,135813	310,21126	0
15.01.2021	20:34:11	0	0	4,067276	1,31325	298,5876	0,145	85,15	0	1017,08	6,7	8,9	8,8	1	1	1	1	1	1	1	1	1	0	1	-11,134602	274,207712	309,419779	0
15.01.2021	20:34:12	0	0	4,406216	1,25025	311,7204	0,145	85,147	0	1016,88	6,8	8,9	8,8	1	1	1	1	1	1	1	1	1	0	1	-11,557435	274,239252	309,144457	0
15.01.2021	20:34:13	0	0	2,485558	1,29375	313,2144	0,145	85,132	0	1016,96	6,8	8,9	8,8	1	1	1	1	1	1	1	1	1	0	1	-9,020437	274,123856	311,142006	0
15.01.2021	20:34:14	0	0	2,598537	1,27275	318,384	0,139	85,123	0	1017,06	6,7	8,9	8,8	1	1	1	1	1	1	1	1	1	0	1	-10,923185	274,249777	309,827942	0
15.01.2021	20:34:15	0	0	4,519223	1,3095	304,2612	0,144	85,139	0	1016,92	6,8	8,9	8,7	1	1	1	1	1	1	1	1	1	0	1	-8,45666	274,156756	311,859513	0
15.01.2021	20:34:16	0	0	3,841339	1,3335	299,4048	0,149	85,14	0	1016,82	6,7	8,9	8,7	1	1	1	1	1	1	1	1	1	0	1	-7,258633	274,246769	313,478424	0
15.01.2021	20:34:17	0	0	4,293261	1,437	295,506	0,143	85,137	0	1017,1	6,7	8,9	8,7	1	1	1	1	1	1	1	1	1	0	1	-9,020437	274,183716	311,421751	0
15.01.2021	20:34:18	0	0	5,197075	1,503	289,1088	0,143	85,136	0	1017,06	6,7	8,9	8,8	1	1	1	1	1	1	1	1	1	0	1	-9,725159	274,246769	311,011898	0
15.01.2021	20:34:19	0	0	4,519223	1,5855	296,7876	0,143	85,147	0	1017,02	6,8	8,9	8,7	1	1	1	1	1	1	1	1	1	0	1	-9,795631	274,165738	310,562523	0
15.01.2021	20:34:20	0	0	3,163456	1,641	301,1796	0,142	85,132	0	1016,96	6,8	8,9	8,7	1	1	1	1	1	1	1	1	1	0	1	-6,8358	274,102948	313,22898	0
15.01.2021	20:34:21	0	0	3,841362	1,56975	303,2028	0,14	85,141	0	1016,7	6,8	8,9	8,6	1	1	1	1	1	1	1	1	1	0	1	-10,500352	274,138803	309,731928	0
15.01.2021	20:34:22	0	0	4,406242	1,47075	285,174	0,142	85,144	0	1017,06	6,7	8,9	8,7	1	1	1	1	1	1	1	1	1	0	1	-9,725159	274,212214	310,850278	0
15.01.2021	20:34:23	0	0	3,389397	1,42875	291,996	0,137	85,123	0	1016,96	6,8	8,9	8,8	1	1	1	1	1	1	1	1	1	0	1	-8,597604	274,209212	311,963795	0
15.01.2021	20:34:24	0	0	3,728359	1,46775	298,6704	0,141	85,134	0	1017,06	6,7	8,9	8,7	1	1	1	1	1	1	1	1	1	0	1	-9,795631	274,248273	310,948461	0
15.01.2021	20:34:25	0	0	4,858135	1,6215	298,6848	0,146	85,149	0	1017	6,8	8,9	8,8	1	1	1	1	1	1	1	1	1	0	1	-10,852713	274,164241	309,498442	0
15.01.2021	20:34:26	0	0	3,615356	1,61775	287,7624	0,134	85,139	0	1016,9	6,8	8,9	8,8	1	1	1	1	1	1	1	1	1	0	1	-7,470049	274,074611	312,462393	0
15.01.2021	20:34:27	0	0	3,502398	1,512	301,626	0,14	85,138	0	1017,1	6,7	8,9	8,7	1	1	1	1	1	1	1	1	1	0	1	-9,584214	274,141794	310,662042	0
15.01.2021	20:34:28	0	0	2,711517	1,42725	286,9344	0,14	85,129	0	1017,22	6,8	8,9	8,8	1	1	1	1	1	1	1	1	1	0	1	-9,372798	274,076101	310,566604	0
15.01.2021	20:34:29	0	0	3,050457	1,3485	299,0088	0,136	85,14	0	1016,92	6,8	8,9	8,8	1	1	1	1	1	1	1	1	1	0	1	-9,584214	274,171729	310,80194	0
15.01.2021	20:34:30	0	0	2,937477	1,25775	299,5092	0,14	85,14	0	1016,92	6,9	8,9	8,8	1	1	1	1	1	1	1	1	1	0	1	-13,319239	274,261812	307,488197	0
15.01.2021	20:34:31	0	0	3,389397	1,278	294,5196	0,138	85,138	0	1017,06	6,8	8,9	8,8	1	1	1	1	1	1	1	1	1	0	1	-14,446794	274,207712	306,107588	0
15.01.2021	20:34:32	0	0	3,389397	1,33275	299,7648	0,135	85,134	0	1017,02	6,9	8,9	8,8	1	1	1	1	1	1	1	1	1	0	1	-9,020437	274,092503	310,99556	0
15.01.2021	20:34:33	0	0	4,745155	1,4235	301,6332	0,143	85,157	0	1016,9	6,7	8,9	8,8	1	1	1	1	1	1	1	1	1	0	1	-8,245243	274,209212	312,316156	0
15.01.2021	20:34:34	0	0	2,598553	1,47675	311,8896	0,144	85,149	0	1016,98	6,8	8,9	8,7	1	1	1	1	1	1	1	1	1	0	1	-8,45666	274,255794	312,322616	0
15.01.2021	20:34:35	0	0	2,03365	1,578	314,1288	0,142	85,146	0	1016,76	6,7	8,9	8,7	1	1	1	1	1	1	1	1	1	0	1	-8,527132	274,245266	312,20289	0
15.01.2021	20:34:36	0	0	3,389417	1,50525	319,6116	0,146	85,145	0	1017,08	6,7	8,9	8,7	1	1	1	1	1	1	1	1	1	0	1	-10,218464	274,155259	310,090714	0
15.01.2021	20:34:37	0	0	3,954296	1,4055	308,4264	0,145	85,157	0	1017	6,8	8,9	8,8	1	1	1	1	1	1	1	1	1	0	1	-6,976744	274,245266	313,753278	0
15.01.2021	20:34:38	0	0	3,276436	1,398	299,4192	0,141	85,158	0	1016,9	6,8	8,9	8,7	1	1	1	1	1	1	1	1	1	0	1	-9,231853	274,119373	310,909651	0
15.01.2021	20:34:39	0	0	3,841339	1,485	296,8812	0,137	85,139	0	1016,88	6,8	8,9	8,7	1	1	1	1	1	1	1	1	1	0	1	-11,205074	274,079082	308,748248	0
15.01.2021	20:34:40	0	0	2,937477	1,57875	302,094	0,144	85,139	0	1017	6,8	8,9	8,8	1	1	1	1	1	1	1	1	1	0	1	-9,020437	274,099963	311,030402	0
15.01.2021	20:34:41	0	0	3,728359	1,66875	304,6176	0,142	85,144	0	1017	6,8	8,9	8,7	1	1	1	1	1	1	1	1	1	0	1	-10,42988	274,257298	310,356435	0
15.01.2021	20:34:42	0	0	2,824514	1,65975	306,756	0,136	85,128	0	1017,06	6,8	8,9	8,7	1	1	1	1	1	1	1	1	1	0	1	-9,795631	274,164241	310,555525	0
15.01.2021	20:34:43	0	0	4,519195	1,64925	308,8404	0,136	85,14	0	1016,92	6,7	8,9	8,8	1	1	1	1	1	1	1	1	1	0	1	-7,82241	274,082064	312,144835	0
15.01.2021	20:34:44	0	0	3,615356	1,57125	296,4096	0,145	85,148	0	1016,94	6,8	8,9	8,8	1	1	1	1	1	1	1	1	1	0	1	-10,359408	274,144785	309,900826	0
15.01.2021	20:34:45	0	0	3,615356	1,54875	282,4164	0,146	85,144	0	1017,04	6,7	8,9	8,8	1	1	1	1	1	1	1	1	1	0	1	-14,094433	274,080573	305,865851	0
15.01.2021	20:34:46	0	0	3,841316	1,64025	312,5232	0,14	85,149	0	1016,9	6,8	8,9	8,8	1	1	1	1	1	1	1	1	1	0	1	-7,399577	274,132823	312,80476	0
15.01.2021	20:34:47	0	0	3,389417	1,815	299,4192	0,139	85,14	0	1017	6,8	8,9	8,7	1	1	1	1	1	1	1	1	1	0	1	-12,473573	274,06865	307,431039	0
15.01.2021	20:34:48	0	0	2,937477	2,02125	310,0032	0,144	85,146	0	1016,96	6,8	8,9	8,8	1	1	1	1	1	1	1	1	1	0	1	-8,738548	274,19421	311,752703	0
15.01.2021	20:34:49	0	0	4,406242	2,07075	303,8256	0,14	85,151	0	1016,88	6,8	8,9	8,7	1	1	1	1	1	1	1	1	1	0	1	-7,610994	274,076101	312,328408	0
15.01.2021	20:34:50	0	0	4,519223	2,00925	304,6212	0,14	85,143	0	1017	6,8	8,9	8,7	1	1	1	1	1	1	1	1	1	0	1	-12,191684	274,134318	308,019638	0
15.01.2021	20:34:51	0	0	4,745155	2,05425	299,7684	0,14	85,138	0	1017,04	6,7	8,9	8,8	1	1	1	1	1	1	1	1	1	0	1	-8,104299	274,257298	312,682016	0
15.01.2021	20:34:52	0	0	3,841316	2,049	315,9324	0,141	85,14	0	1017,04	6,8	8,9	8,8	1	1	1	1	1	1	1	1	1	0	1	-8,245243	274,086537	311,742892	0
15.01.2021	20:34:53	0	0	4,971145	2,04225	314,4276	0,137	85,152	0	1017	6,8	8,9	8,7	1	1	1	1	1	1	1	1	1	0	1	-10,852713	274,137308	309,372581	0
15.01.2021	20:34:54	0	0	3,389417	2,0115	321,444	0,139	85,142	0	1017,02	6,9	8,9	8,7	1	1	1	1	1	1	1	1	1	0	1	-11,768851	274,059713	308,094034	0
15.01.2021	20:34:55	0	0	2,824514	1,9395	315,8784	0,135	85,134	0	1017,04	6,7	8,9	8,7	1	1	1	1	1	1	1	1	1	0	1	-12,966878	274,138803	307,265402	0
15.01.2021	20:34:56	0	0	3,615356	1,88025	319,1616	0,145	85,157	0	1017,16	6,8	8,9	8,8	1	1	1	1	1	1	1	1	1	0	1	-8,033827	274,07014	311,877742	0
15.01.2021	20:34:57	0	0	3,728359	1,8	317,5596	0,144	85,14	0	1017,04	6,7	8,9	8,7	1	1	1	1	1	1	1	1	1	0	1	-9,020437	274,206211	311,526927	0
15.01.2021	20:34:58	0	0	2,711534	1,76775	315,5328	0,141	85,13	0	1017,06	6,8	8,9	8,7	1	1	1	1	1	1	1	1	1	0	1	-10,711769	274,079082	309,241553	0
15.01.2021	20:34:59	0	0	4,632203	1,7865	317,3724	0,141	85,136	0	1016,98	6,8	8,9	8,7	1	1	1	1	1	1	1	1	1	0	1	-9,020437	274,074611	310,912005	0
15.01.2021	20:35:00	0	0	4,293236	1,764	320,7816	0,147	85,148	0	1017,1	6,7	8,9	8,8	1	1	1	1	1	1	1	1	1	0	1	-5,567301	274,176223	314,839861	0
15.01.2021	20:35:01	0	0	4,180281	1,65525	316,6776	0,135	85,152	0	1016,98	6,8	8,9	8,7	1	1	1	1	1	1	1	1	1	0	1	-6,765328	274,06716	313,132328	0
15.01.2021	20:35:02	0	0	4,632175	1,52625	313,5816	0,141	85,146	0	1017,02	6,8	8,9	8,8	1	1	1	1	1	1	1	1	1	0	1	-13,460183	274,189712	307,010037	0
15.01.2021	20:35:03	0	0	4,180256	1,42425	309,5928	0,135	85,144	0	1016,98	6,8	8,9	8,8	1	1	1	1	1	1	1	1	1	0	1	-11,275546	274,06865	308,629066	0
15.01.2021	20:35:04	0	0	3,389417	1,401	310,266	0,142	85,145	0	1017	6,7	8,9	8,7	1	1	1	1	1	1	1	1	1	0	1	-4,651163	274,152266	315,644028	0
15.01.2021	20:35:05	0	0	4,858135	1,413	312,174	0,136	85,124	0	1016,96	6,7	8,9	8,8	1	1	1	1	1	1	1	1	1	0	1	-8,174771	274,242259	312,541185	0
15.01.2021	20:35:06	0	0	2,146631	1,42725	309,5028	0,144	85,124	0	1016,98	6,7	8,9	8,7	1	1	1	1	1	1	1	1	1	0	1	-9,302326	274,20321	311,231006	0
15.01.2021	20:35:07	0	0	3,163456	1,485	296,7984	0,14	85,131	0	1016,94	6,8	8,9	8,7	1	1	1	1	1	1	1	1	1	0	1	-8,174771	274,083555	311,799437	0
15.01.2021	20:35:08	0	0	4,293261	1,491	290,0628	0,138	85,126	0	1016,92	6,8	8,9	8,7	1	1	1	1	1	1	1	1	1	0	1	-11,839323	274,204711	308,701024	0
15.01.2021	20:35:09	0	0	4,293261	1,50375	282,798	0,143	85,146	0	1016,98	6,8	8,9	8,7	1	1	1	1	1	1	1	1	1	0	1	-10,711769	274,20171	309,814548	0
15.01.2021	20:35:10	0	0	2,711534	1,4535	304,974	0,138	85,145	0	1016,86	6,8	8,9	8,7	1	1	1	1	1	1	1	1	1	0	1	-9,936575	274,246769	310,800481	0
15.01.2021	20:35:11	0	0	4,858135	1,43925	297,972	0,136	85,123	0	1016,94	6,8	8,9	8,8	1	1	1	1	1	1	1	1	1	0	1	-9,866103	274,161246	310,471057	0
15.01.2021	20:35:12	0	0	4,745155	1,44525	288,4428	0,142	85,144	0	1016,94	6,8	8,9	8,8	1	1	1	1	1	1	1	1	1	0	1	-4,933051	274,074611	314,999391	0
15.01.2021	20:35:13	0	0	3,615378	1,49925	289,0044	0,14	85,139	0	1017	6,7	8,9	8,7	1	1	1	1	1	1	1	1	1	0	1	-9,936575	274,140298	310,302693	0
15.01.2021	20:35:14	0	0	3,615378	1,57425	298,7316	0,141	85,141	0	1016,9	6,8	8,9	8,7	1	1	1	1	1	1	1	1	1	0	1	-11,627907	274,246769	309,109149	0
15.01.2021	20:35:15	0	0	3,163437	1,61325	307,5192	0,143	85,136	0	1017,06	6,8	8,9	8,8	1	1	1	1	1	1	1	1	1	0	1	-7,540521	274,119373	312,600983	0
15.01.2021	20:35:16	0	0	4,51925	1,641	292,5432	0,145	85,142	0	1017,1	6,8	8,9	8,6	1	1	1	1	1	1	1	1	1	0	1	-10,570825	274,237749	310,124036	0
15.01.2021	20:35:17	0	0	4,406216	1,79925	279,1404	0,138	85,129	0	1016,8	6,8	8,9	8,8	1	1	1	1	1	1	1	1	1	0	1	-11,134602	274,212214	309,440834	0
15.01.2021	20:35:18	0	0	5,084095	1,92225	278,0568	0,139	85,119	0	1016,94	6,8	8,9	8,8	1	1	1	1	1	1	1	1	1	0	1	-5,990134	274,248273	314,753957	0
15.01.2021	20:35:19	0	0	4,632175	1,95675	290,7144	0,137	85,13	0	1017,1	6,8	8,9	8,8	1	1	1	1	1	1	1	1	1	0	1	-7,329105	274,186713	313,127098	0
15.01.2021	20:35:20	0	0	4,519195	1,90575	287,1108	0,142	85,136	0	1017,2	6,8	8,9	8,8	1	1	1	1	1	1	1	1	1	0	1	-10,852713	274,083555	309,121495	0
15.01.2021	20:35:21	0	0	3,050475	1,908	277,1496	0,139	85,128	0	1016,98	6,7	8,9	8,7	1	1	1	1	1	1	1	1	1	0	1	-6,906272	274,120867	313,242211	0
15.01.2021	20:35:22	0	0	4,858164	1,89975	282,1248	0,142	85,124	0	1017,04	6,8	8,9	8,7	1	1	1	1	1	1	1	1	1	0	1	-11,698379	274,062691	308,178413	0
15.01.2021	20:35:23	0	0	4,632175	1,98075	284,7672	0,142	85,113	0	1016,96	6,8	8,9	8,8	1	1	1	1	1	1	1	1	1	0	1	-9,725159	274,113399	310,388437	0
15.01.2021	20:35:24	0	0	3,841316	2,1675	292,95	0,133	85,135	0	1017,04	6,8	8,9	8,8	1	1	1	1	1	1	1	1	1	0	1	-7,540521	274,074611	312,391921	0
15.01.2021	20:35:25	0	0	4,293236	2,34375	299,7936	0,141	85,129	0	1017	6,8	8,9	8,8	1	1	1	1	1	1	1	1	1	0	1	-12,896406	274,132823	307,307932	0
15.01.2021	20:35:26	0	0	2,824497	2,39475	302,382	0,135	85,125	0	1017,02	6,8	8,9	8,8	1	1	1	1	1	1	1	1	1	0	1	-10,570825	274,074611	309,361618	0
15.01.2021	20:35:27	0	0	4,632203	2,36775	309,9024	0,134	85,107	0	1016,92	6,8	8,9	8,7	1	1	1	1	1	1	1	1	1	0	1	-9,795631	274,12535	310,373793	0
15.01.2021	20:35:28	0	0	4,293261	2,35425	298,7316	0,142	85,127	0	1017,06	6,8	8,9	8,7	1	1	1	1	1	1	1	1	1	0	1	-11,698379	274,218219	308,90514	0
15.01.2021	20:35:29	0	0	4,519223	2,556	300,4668	0,14	85,126	0	1017,06	6,8	8,9	8,7	1	1	1	1	1	1	1	1	1	0	1	-9,654686	274,083555	310,319521	0
15.01.2021	20:35:30	0	0	2,711534	2,61825	301,626	0,141	85,126	0	1016,82	6,8	8,9	8,7	1	1	1	1	1	1	1	1	1	0	1	-6,694856	274,101456	313,362953	0
15.01.2021	20:35:31	0	0	3,615378	2,6685	312,0228	0,14	85,12	0	1017,08	6,7	8,9	8,7	1	1	1	1	1	1	1	1	1	0	1	-13,03735	274,06716	306,860306	0
15.01.2021	20:35:32	0	0	4,858135	2,571	307,5876	0,136	85,106	0	1017	6,8	8,9	8,8	1	1	1	1	1	1	1	1	1	0	1	-8,315715	274,15077	311,972483	0
15.01.2021	20:35:33	0	0	2,937477	2,51025	306,3852	0,141	85,115	0	1016,82	6,8	8,9	8,8	1	1	1	1	1	1	1	1	1	0	1	-10,147992	274,243762	310,574997	0
15.01.2021	20:35:34	0	0	3,615378	2,55525	305,9784	0,138	85,105	0	1016,84	6,8	8,9	8,7	1	1	1	1	1	1	1	1	1	0	1	-10,147992	274,185214	310,301204	0
15.01.2021	20:35:35	0	0	4,971145	2,60475	303,5016	0,14	85,114	0	1016,84	6,8	8,9	8,7	1	1	1	1	1	1	1	1	1	0	1	-6,906272	274,059713	312,956614	0
15.01.2021	20:35:36	0	0	3,841316	2,57325	305,3052	0,141	85,109	0	1017,08	6,8	8,9	8,8	1	1	1	1	1	1	1	1	1	0	1	-8,738548	274,183716	311,70364	0
15.01.2021	20:35:37	0	0	4,745155	2,56125	298,3536	0,138	85,121	0	1017,1	6,8	8,9	8,8	1	1	1	1	1	1	1	1	1	0	1	-8,45666	274,249777	312,294467	0
15.01.2021	20:35:38	0	0	3,841316	2,4165	300,4452	0,137	85,106	0	1016,96	6,8	8,9	8,8	1	1	1	1	1	1	1	1	1	0	1	-7,681466	274,116386	312,446083	0
15.01.2021	20:35:39	0	0	3,050475	2,391	297,558	0,139	85,117	0	1016,88	6,8	8,9	8,7	1	1	1	1	1	1	1	1	1	0	1	-5,919662	274,083555	314,054546	0
15.01.2021	20:35:40	0	0	2,824514	2,544	300,8808	0,144	85,117	0	1017,04	6,8	8,9	8,7	1	1	1	1	1	1	1	1	1	0	1	-7,258633	274,06716	312,639023	0
15.01.2021	20:35:41	0	0	3,050457	2,6925	303,552	0,14	85,125	0	1017,02	6,7	8,9	8,8	1	1	1	1	1	1	1	1	1	0	1	-12,403101	274,146281	307,864123	0
15.01.2021	20:35:42	0	0	3,728359	2,76825	301,5936	0,135	85,102	0	1016,94	6,8	8,9	8,7	1	1	1	1	1	1	1	1	1	0	1	-14,376321	274,236246	306,311509	0
15.01.2021	20:35:43	0	0	3,841339	2,85975	302,3568	0,138	85,115	0	1016,82	6,8	8,9	8,7	1	1	1	1	1	1	1	1	1	0	1	-12,544045	274,110413	307,5556	0
15.01.2021	20:35:44	0	0	4,406216	2,889	301,608	0,136	85,109	0	1016,94	6,8	8,9	8,8	1	1	1	1	1	1	1	1	1	0	1	-13,248767	274,20021	307,270536	0
15.01.2021	20:35:45	0	0	2,485572	2,8875	309,1968	0,142	85,114	0	1017,22	6,8	8,9	8,7	1	1	1	1	1	1	1	1	1	0	1	-8,527132	274,239252	312,17476	0
15.01.2021	20:35:46	0	0	3,841339	2,74875	311,7564	0,137	85,126	0	1017,02	6,8	8,9	8,7	1	1	1	1	1	1	1	1	1	0	1	-10,007047	274,120867	310,141436	0
15.01.2021	20:35:47	0	0	4,971145	2,63025	294,7536	0,14	85,124	0	1017,04	6,8	8,9	8,7	1	1	1	1	1	1	1	1	1	0	1	-15,433404	274,188213	305,029808	0
15.01.2021	20:35:48	0	0	4,406242	2,67	312,786	0,141	85,132	0	1016,9	6,8	8,9	8,7	1	1	1	1	1	1	1	1	1	0	1	-10,852713	274,240755	309,85621	0
15.01.2021	20:35:49	0	0	3,163456	2,6325	308,1636	0,138	85,129	0	1017	6,8	8,9	8,7	1	1	1	1	1	1	1	1	1	0	1	-5,990134	274,188213	314,473077	0
15.01.2021	20:35:50	0	0	4,180281	2,451	303,1704	0,131	85,128	0	1017	6,8	8,9	8,7	1	1	1	1	1	1	1	1	1	0	1	-7,047216	274,230235	313,6125	0
15.01.2021	20:35:51	0	0	4,293236	2,32125	302,4144	0,14	85,119	0	1017,1	6,8	8,9	8,8	1	1	1	1	1	1	1	1	1	0	1	-8,033827	274,167235	312,331326	0
15.01.2021	20:35:52	0	0	3,276417	2,1735	309,1968	0,141	85,124	0	1017,02	6,8	8,9	8,8	1	1	1	1	1	1	1	1	1	0	1	-10,570825	274,209212	309,990574	0
15.01.2021	20:35:53	0	0	3,728359	2,10975	306,8784	0,138	85,128	0	1016,96	6,8	8,9	8,7	1	1	1	1	1	1	1	1	1	0	1	-7,399577	274,19871	313,112712	0
15.01.2021	20:35:54	0	0	4,406242	2,00775	308,0592	0,144	85,131	0	1017,08	6,8	8,9	8,7	1	1	1	1	1	1	1	1	1	0	1	-7,610994	274,222724	313,013594	0
15.01.2021	20:35:55	0	0	4,293261	1,82475	315,2304	0,14	85,126	0	1016,94	6,8	8,9	8,7	1	1	1	1	1	1	1	1	1	0	1	-9,372798	274,119373	310,768706	0
15.01.2021	20:35:56	0	0	4,745155	1,809	315,8676	0,138	85,124	0	1016,86	6,8	8,9	8,8	1	1	1	1	1	1	1	1	1	0	1	-8,45666	274,234743	312,224141	0
15.01.2021	20:35:57	0	0	2,937477	1,96575	318,4488	0,139	85,134	0	1017,1	6,8	8,9	8,8	1	1	1	1	1	1	1	1	1	0	1	-7,82241	274,209212	312,738989	0
15.01.2021	20:35:58	0	0	3,050475	2,00325	310,2804	0,137	85,139	0	1016,82	6,8	8,9	8,7	1	1	1	1	1	1	1	1	1	0	1	-11,557435	274,074611	308,375008	0
15.01.2021	20:35:59	0	0	3,502376	2,00475	315,5004	0,133	85,128	0	1016,94	6,8	8,9	8,8	1	1	1	1	1	1	1	1	1	0	1	-11,486963	274,243762	309,236026	0
15.01.2021	20:36:00	0	0	3,615356	1,99275	316,6128	0,137	85,132	0	1016,9	6,8	8,9	8,8	1	1	1	1	1	1	1	1	1	0	1	-6,412967	274,224226	314,218645	0
15.01.2021	20:36:01	0	0	4,406242	2,04075	322,6212	0,137	85,141	0	1016,82	6,8	8,9	8,7	1	1	1	1	1	1	1	1	1	0	1	-7,610994	274,06865	312,293618	0
15.01.2021	20:36:02	0	0	4,519195	2,01375	313,2684	0,14	85,127	0	1017	6,8	8,9	8,8	1	1	1	1	1	1	1	1	1	0	1	-4,933051	274,206211	315,614313	0
15.01.2021	20:36:03	0	0	4,519195	1,95675	308,736	0,141	85,142	0	1016,98	6,8	8,9	8,8	1	1	1	1	1	1	1	1	1	0	1	-7,82241	274,239252	312,879482	0
15.01.2021	20:36:04	0	0	4,519223	1,97625	302,7996	0,14	85,131	0	1016,96	6,8	8,9	8,7	1	1	1	1	1	1	1	1	1	0	1	-10,359408	274,122361	309,796054	0
15.01.2021	20:36:05	0	0	3,728359	1,965	321,4152	0,137	85,123	0	1017	6,8	8,9	8,7	1	1	1	1	1	1	1	1	1	0	1	-14,446794	274,088029	305,548306	0
15.01.2021	20:36:06	0	0	3,276436	1,94775	298,6056	0,141	85,136	0	1016,82	6,8	8,9	8,7	1	1	1	1	1	1	1	1	1	0	1	-14,65821	274,20021	305,861093	0
15.01.2021	20:36:07	0	0	3,615356	1,9305	305,6256	0,135	85,13	0	1016,98	6,8	8,9	8,8	1	1	1	1	1	1	1	1	1	0	1	-7,751938	274,080573	312,208345	0
15.01.2021	20:36:08	0	0	3,95432	1,8285	294,1272	0,136	85,145	0	1017,02	6,8	8,9	8,7	1	1	1	1	1	1	1	1	1	0	1	-10,077519	274,11788	310,057007	0
15.01.2021	20:36:09	0	0	4,632175	1,581	321,84	0,139	85,117	0	1016,9	6,8	8,9	8,8	1	1	1	1	1	1	1	1	1	0	1	-13,6716	274,236246	307,016231	0
15.01.2021	20:36:10	0	0	4,180281	1,39425	320,7672	0,141	85,147	0	1017	6,8	9	8,7	1	1	1	1	1	1	1	1	1	0	1	-6,906272	274,185214	313,542923	0
15.01.2021	20:36:11	0	0	3,615356	1,31025	312,8076	0,138	85,133	0	1017,14	6,8	8,9	8,8	1	1	1	1	1	1	1	1	1	0	1	-9,795631	274,219721	310,814911	0
15.01.2021	20:36:12	0	0	3,841339	1,27425	315,1476	0,139	85,137	0	1016,96	6,8	8,9	8,7	1	1	1	1	1	1	1	1	1	0	1	-11,275546	274,186713	309,180657	0
15.01.2021	20:36:13	0	0	4,406242	1,236	310,5828	0,137	85,137	0	1016,9	6,8	8,9	8,7	1	1	1	1	1	1	1	1	1	0	1	-11,768851	274,225728	308,869786	0
15.01.2021	20:36:14	0	0	4,632175	1,212	311,7312	0,132	85,125	0	1016,98	6,8	8,9	8,8	1	1	1	1	1	1	1	1	1	0	1	-6,483439	274,126844	313,692966	0
15.01.2021	20:36:15	0	0	3,615356	1,25175	313,2864	0,138	85,139	0	1017,02	6,8	8,9	8,8	1	1	1	1	1	1	1	1	1	0	1	-10,923185	274,225728	309,715452	0
15.01.2021	20:36:16	0	0	4,293261	1,3995	305,7948	0,133	85,143	0	1017	6,8	8,9	8,7	1	1	1	1	1	1	1	1	1	0	1	-10,500352	274,234743	310,180449	0
15.01.2021	20:36:17	0	0	3,615378	1,497	305,0064	0,138	85,121	0	1016,94	6,8	8,9	8,7	1	1	1	1	1	1	1	1	1	0	1	-13,601128	274,164241	306,750028	0
15.01.2021	20:36:18	0	0	3,502398	1,542	288,1332	0,145	85,138	0	1016,88	6,8	8,9	8,7	1	1	1	1	1	1	1	1	1	0	1	-7,82241	274,237749	312,872451	0
15.01.2021	20:36:19	0	0	4,632203	1,62525	302,364	0,139	85,127	0	1016,86	6,8	8,9	8,7	1	1	1	1	1	1	1	1	1	0	1	-5,285412	274,122361	314,87005	0
15.01.2021	20:36:20	0	0	4,745184	1,85775	289,9692	0,135	85,15	0	1016,9	6,8	8,9	8,7	1	1	1	1	1	1	1	1	1	0	1	-7,188161	274,23324	313,485611	0
15.01.2021	20:36:21	0	0	4,745184	2,01825	285,9084	0,137	85,143	0	1017,04	6,9	8,9	8,7	1	1	1	1	1	1	1	1	1	0	1	-8,738548	274,140298	311,50072	0
15.01.2021	20:36:22	0	0	4,406216	2,133	293,6664	0,137	85,143	0	1017,02	6,8	8,9	8,8	1	1	1	1	1	1	1	1	1	0	1	-10,711769	274,261812	310,095667	0
15.01.2021	20:36:23	0	0	3,615378	2,1015	289,602	0,139	85,118	0	1016,82	6,8	8,9	8,7	1	1	1	1	1	1	1	1	1	0	1	-10,993658	274,152266	309,301533	0
15.01.2021	20:36:24	0	0	3,615378	2,19375	282,1392	0,142	85,147	0	1017	6,8	8,9	8,7	1	1	1	1	1	1	1	1	1	0	1	-10,077519	274,058223	309,778414	0
15.01.2021	20:36:25	0	0	3,728336	2,21925	285,5628	0,14	85,144	0	1017,1	6,8	8,9	8,8	1	1	1	1	1	1	1	1	1	0	1	-8,879493	274,173227	311,513664	0
15.01.2021	20:36:26	0	0	5,197075	2,12325	278,0424	0,138	85,146	0	1016,98	6,8	8,9	8,8	1	1	1	1	1	1	1	1	1	0	1	-11,346018	274,23324	309,327754	0
15.01.2021	20:36:27	0	0	2,485572	2,10525	284,6664	0,141	85,134	0	1016,98	6,8	8,9	8,7	1	1	1	1	1	1	1	1	1	0	1	-6,624383	274,135813	313,593924	0
15.01.2021	20:36:28	0	0	5,423067	2,136	299,7972	0,144	85,149	0	1017,12	6,8	8,9	8,7	1	1	1	1	1	1	1	1	1	0	1	-8,668076	274,260308	312,132319	0
15.01.2021	20:36:29	0	0	3,502376	2,08125	297,2556	0,141	85,148	0	1017,06	6,8	8,9	8,8	1	1	1	1	1	1	1	1	1	0	1	-7,892882	274,079082	312,06044	0
15.01.2021	20:36:30	0	0	4,180281	2,10675	306,3564	0,138	85,125	0	1016,96	6,8	8,9	8,7	1	1	1	1	1	1	1	1	1	0	1	-10,147992	274,110413	309,951653	0
15.01.2021	20:36:31	0	0	4,519195	2,26575	301,7124	0,143	85,136	0	1016,96	6,8	8,9	8,8	1	1	1	1	1	1	1	1	1	0	1	-8,527132	274,234743	312,153669	0
15.01.2021	20:36:32	0	0	2,372592	2,45175	297,8748	0,143	85,136	0	1017,02	6,8	8,9	8,7	1	1	1	1	1	1	1	1	1	0	1	-8,386187	274,185214	312,063008	0
15.01.2021	20:36:33	0	0	5,084125	2,53125	300,8448	0,142	85,138	0	1017,1	6,8	8,9	8,7	1	1	1	1	1	1	1	1	1	0	1	-8,668076	274,252785	312,097124	0
15.01.2021	20:36:34	0	0	4,067276	2,51475	294,7716	0,141	85,132	0	1016,86	6,8	8,9	8,8	1	1	1	1	1	1	1	1	1	0	1	-10,570825	274,12535	309,598599	0
15.01.2021	20:36:35	0	0	4,858164	2,4195	292,212	0,142	85,145	0	1017,02	6,8	8,9	8,7	1	1	1	1	1	1	1	1	1	0	1	-5,778717	274,076101	314,160684	0
15.01.2021	20:36:36	0	0	4,632175	2,45925	291,4848	0,141	85,149	0	1017,02	6,7	8,9	8,8	1	1	1	1	1	1	1	1	1	0	1	-9,302326	274,098471	310,741543	0
15.01.2021	20:36:37	0	0	2,937495	2,562	297,1764	0,132	85,134	0	1017,02	6,8	8,9	8,7	1	1	1	1	1	1	1	1	1	0	1	-7,82241	274,092503	312,193586	0
15.01.2021	20:36:38	0	0	4,632203	2,472	298,674	0,144	85,139	0	1016,9	6,8	8,9	8,7	1	1	1	1	1	1	1	1	1	0	1	-6,624383	274,07163	313,294142	0
15.01.2021	20:36:39	0	0	2,937495	2,3835	304,6536	0,138	85,145	0	1016,86	6,8	8,9	8,7	1	1	1	1	1	1	1	1	1	0	1	-8,80902	274,091012	311,20001	0
15.01.2021	20:36:40	0	0	3,728359	2,28675	307,1808	0,143	85,155	0	1017,04	6,7	8,9	8,7	1	1	1	1	1	1	1	1	1	0	1	-11,627907	274,056734	308,221075	0
15.01.2021	20:36:41	0	0	2,824514	2,21175	296,8416	0,137	85,152	0	1017,14	6,8	8,9	8,7	1	1	1	1	1	1	1	1	1	0	1	-6,8358	274,093995	313,187164	0
15.01.2021	20:36:42	0	0	3,728359	2,163	288,1044	0,144	85,143	0	1016,96	6,8	8,9	8,7	1	1	1	1	1	1	1	1	1	0	1	-12,896406	274,240755	307,812517	0
15.01.2021	20:36:43	0	0	4,180281	2,235	284,8536	0,142	85,139	0	1017,08	6,8	8,9	8,7	1	1	1	1	1	1	1	1	1	0	1	-8,668076	274,11788	311,46645	0
15.01.2021	20:36:44	0	0	3,502376	2,4705	301,2084	0,129	85,146	0	1017,04	6,8	8,9	8,8	1	1	1	1	1	1	1	1	1	0	1	-7,82241	274,221223	312,795154	0
15.01.2021	20:36:45	0	0	2,937495	2,6835	295,5672	0,142	85,155	0	1017,02	6,8	8,9	8,7	1	1	1	1	1	1	1	1	1	0	1	-10,218464	274,080573	309,74182	0
15.01.2021	20:36:46	0	0	4,745155	2,7735	299,3616	0,138	85,16	0	1017	6,8	8,9	8,8	1	1	1	1	1	1	1	1	1	0	1	-13,178295	274,204711	307,362053	0
15.01.2021	20:36:47	0	0	4,180281	2,90325	299,394	0,143	85,153	0	1017,1	6,8	8,9	8,7	1	1	1	1	1	1	1	1	1	0	1	-7,258633	274,242259	313,457323	0
15.01.2021	20:36:48	0	0	3,615356	2,85975	299,34	0,138	85,138	0	1016,94	6,8	8,9	8,8	1	1	1	1	1	1	1	1	1	0	1	-8,315715	274,162743	312,028442	0
15.01.2021	20:36:49	0	0	2,372592	2,739	296,9568	0,136	85,147	0	1016,98	6,8	8,9	8,7	1	1	1	1	1	1	1	1	1	0	1	-10,42988	274,086537	309,558254	0
15.01.2021	20:36:50	0	0	3,163456	2,69175	302,8248	0,143	85,149	0	1016,96	6,8	8,9	8,7	1	1	1	1	1	1	1	1	1	0	1	-13,812544	274,162743	306,531613	0
15.01.2021	20:36:51	0	0	4,406242	2,61075	300,168	0,138	85,145	0	1017	6,7	8,9	8,7	1	1	1	1	1	1	1	1	1	0	1	-12,614517	274,251281	308,143646	0
15.01.2021	20:36:52	0	0	4,067276	2,52	306,1404	0,136	85,146	0	1016,98	6,8	8,9	8,8	1	1	1	1	1	1	1	1	1	0	1	-8,668076	274,141794	311,57818	0
15.01.2021	20:36:53	0	0	3,163456	2,511	306,4716	0,145	85,145	0	1016,96	6,8	8,9	8,7	1	1	1	1	1	1	1	1	1	0	1	-13,389711	274,079082	306,563611	0
15.01.2021	20:36:54	0	0	3,954296	2,505	304,6356	0,142	85,149	0	1017,1	6,8	8,9	8,8	1	1	1	1	1	1	1	1	1	0	1	-10,641297	274,164241	309,709859	0
15.01.2021	20:36:55	0	0	2,711534	2,484	306,8136	0,143	85,154	0	1017,12	6,8	8,9	8,7	1	1	1	1	1	1	1	1	1	0	1	-9,584214	274,055245	310,257817	0
15.01.2021	20:36:56	0	0	4,632203	2,53725	294,3252	0,139	85,135	0	1016,98	6,8	8,9	8,7	1	1	1	1	1	1	1	1	1	0	1	-9,513742	274,19421	310,97751	0
15.01.2021	20:36:57	0	0	2,824514	2,5875	303,2568	0,142	85,146	0	1016,98	6,8	8,9	8,7	1	1	1	1	1	1	1	1	1	0	1	-8,879493	274,07014	311,032076	0
15.01.2021	20:36:58	0	0	4,745155	2,62275	307,5192	0,143	85,144	0	1016,92	6,8	8,9	8,8	1	1	1	1	1	1	1	1	1	0	1	-7,188161	274,182217	313,247021	0
15.01.2021	20:36:59	0	0	4,858164	2,5185	299,3796	0,137	85,15	0	1016,98	6,8	8,9	8,7	1	1	1	1	1	1	1	1	1	0	1	-9,302326	274,06865	310,602286	0
15.01.2021	20:37:00	0	0	2,485572	2,38725	311,3316	0,141	85,134	0	1017	6,8	8,9	8,7	1	1	1	1	1	1	1	1	1	0	1	-9,372798	274,167235	310,992355	0
15.01.2021	20:37:01	0	0	2,372592	2,31375	298,9836	0,138	85,147	0	1016,98	6,8	8,9	8,7	1	1	1	1	1	1	1	1	1	0	1	-8,033827	274,083555	311,940381	0
15.01.2021	20:37:02	0	0	4,632203	2,43	309,258	0,141	85,151	0	1017,04	6,8	8,9	8,7	1	1	1	1	1	1	1	1	1	0	1	-10,711769	274,239252	309,990123	0
15.01.2021	20:37:03	0	0	3,502398	2,457	304,2936	0,143	85,151	0	1016,92	6,8	8,9	8,7	1	1	1	1	1	1	1	1	1	0	1	-11,486963	274,101456	308,570846	0
15.01.2021	20:37:04	0	0	3,050475	2,4705	295,2036	0,137	85,152	0	1017	6,8	8,9	8,7	1	1	1	1	1	1	1	1	1	0	1	-11,980268	274,108919	308,112403	0
15.01.2021	20:37:05	0	0	2,146631	2,4615	299,4408	0,143	85,149	0	1016,98	6,8	8,9	8,7	1	1	1	1	1	1	1	1	1	0	1	-8,104299	274,107427	311,981398	0
15.01.2021	20:37:06	0	0	4,406242	2,41425	306,1116	0,142	85,147	0	1016,96	6,8	8,9	8,7	1	1	1	1	1	1	1	1	1	0	1	-12,544045	274,251281	308,214118	0
15.01.2021	20:37:07	0	0	3,276417	2,28525	309,2004	0,135	85,128	0	1017,02	6,8	8,9	8,8	1	1	1	1	1	1	1	1	1	0	1	-9,866103	274,131328	310,33125	0
15.01.2021	20:37:08	0	0	3,615356	2,17875	307,224	0,139	85,143	0	1016,98	6,8	8,9	8,8	1	1	1	1	1	1	1	1	1	0	1	-10,711769	274,251281	310,046394	0
15.01.2021	20:37:09	0	0	5,310087	2,09025	310,662	0,142	85,161	0	1017,08	6,8	8,9	8,7	1	1	1	1	1	1	1	1	1	0	1	-5,567301	274,114893	314,553271	0
15.01.2021	20:37:10	0	0	4,406242	2,05875	302,0076	0,149	85,159	0	1017,1	6,8	8,9	8,7	1	1	1	1	1	1	1	1	1	0	1	-5,778717	274,06567	314,111983	0
15.01.2021	20:37:11	0	0	3,276417	2,21025	292,3272	0,141	85,159	0	1017,1	6,8	8,9	8,8	1	1	1	1	1	1	1	1	1	0	1	-9,513742	274,221223	311,103822	0
15.01.2021	20:37:12	0	0	4,632175	2,26875	302,1084	0,14	85,163	0	1016,92	6,8	8,9	8,8	1	1	1	1	1	1	1	1	1	0	1	-10,641297	274,216718	309,955201	0
15.01.2021	20:37:13	0	0	3,389417	2,2455	299,0052	0,143	85,143	0	1016,9	6,8	8,9	8,7	1	1	1	1	1	1	1	1	1	0	1	-10,500352	274,085046	309,480818	0
15.01.2021	20:37:14	0	0	4,858135	2,27925	296,1612	0,143	85,152	0	1017,08	6,8	8,9	8,8	1	1	1	1	1	1	1	1	1	0	1	-8,668076	274,20171	311,858241	0
15.01.2021	20:37:15	0	0	3,615378	2,27325	301,6188	0,142	85,142	0	1017,06	6,8	8,9	8,7	1	1	1	1	1	1	1	1	1	0	1	-13,248767	274,240755	307,460157	0
15.01.2021	20:37:16	0	0	5,197075	2,10225	285,4872	0,143	85,158	0	1017,02	6,8	8,9	8,8	1	1	1	1	1	1	1	1	1	0	1	-5,567301	274,19571	314,930963	0
15.01.2021	20:37:17	0	0	4,0673	1,8945	312,8328	0,143	85,152	0	1017,04	6,8	8,9	8,7	1	1	1	1	1	1	1	1	1	0	1	-9,44327	274,076101	310,496132	0
15.01.2021	20:37:18	0	0	4,180281	1,755	282,168	0,144	85,134	0	1017,06	6,8	8,9	8,7	1	1	1	1	1	1	1	1	1	0	1	-10,007047	274,20171	310,51927	0
15.01.2021	20:37:19	0	0	3,050475	1,7385	300,4812	0,137	85,139	0	1016,8	6,8	8,9	8,7	1	1	1	1	1	1	1	1	1	0	1	-6,131078	274,15077	314,15712	0
15.01.2021	20:37:20	0	0	2,485572	1,887	307,1268	0,147	85,142	0	1017,14	6,7	8,9	8,7	1	1	1	1	1	1	1	1	1	0	1	-11,41649	274,249777	309,334636	0
15.01.2021	20:37:21	0	0	3,502376	1,95375	305,3952	0,144	85,146	0	1016,88	6,8	8,9	8,8	1	1	1	1	1	1	1	1	1	0	1	-8,949965	274,207712	311,604416	0
15.01.2021	20:37:22	0	0	2,937477	1,9935	308,952	0,141	85,149	0	1017,04	6,8	8,9	8,8	1	1	1	1	1	1	1	1	1	0	1	-11,698379	274,07163	308,220147	0
15.01.2021	20:37:23	0	0	4,632203	2,02725	284,0148	0,137	85,139	0	1017	6,8	8,9	8,7	1	1	1	1	1	1	1	1	1	0	1	-9,936575	274,14329	310,31667	0
15.01.2021	20:37:24	0	0	4,406216	2,1015	299,3688	0,142	85,139	0	1016,94	6,8	8,9	8,8	1	1	1	1	1	1	1	1	1	0	1	-7,188161	274,249777	313,562966	0
15.01.2021	20:37:25	0	0	4,519223	2,10225	284,742	0,14	85,136	0	1017,06	6,8	8,9	8,7	1	1	1	1	1	1	1	1	1	0	1	-10,711769	274,102948	309,353011	0
15.01.2021	20:37:26	0	0	4,293261	2,1855	290,7792	0,142	85,133	0	1016,94	6,8	9	8,7	1	1	1	1	1	1	1	1	1	0	1	-11,134602	274,105934	308,944122	0
15.01.2021	20:37:27	0	0	3,841316	2,28525	300,8268	0,135	85,125	0	1016,84	6,8	8,9	8,8	1	1	1	1	1	1	1	1	1	0	1	-9,020437	274,085046	310,960734	0
15.01.2021	20:37:28	0	0	4,519223	2,19675	282,1248	0,141	85,144	0	1017,06	6,8	8,9	8,7	1	1	1	1	1	1	1	1	1	0	1	-6,694856	274,209212	313,866543	0
15.01.2021	20:37:29	0	0	2,824514	2,0685	279,2376	0,141	85,153	0	1016,94	6,8	8,9	8,7	1	1	1	1	1	1	1	1	1	0	1	-10,500352	274,131328	309,697001	0
15.01.2021	20:37:30	0	0	4,067276	1,90725	286,6536	0,138	85,15	0	1017,08	6,8	8,9	8,8	1	1	1	1	1	1	1	1	1	0	1	-10,711769	274,221223	309,905795	0
15.01.2021	20:37:31	0	0	4,180256	1,986	278,7876	0,143	85,152	0	1017,04	6,8	8,9	8,8	1	1	1	1	1	1	1	1	1	0	1	-10,852713	274,188213	309,610498	0
15.01.2021	20:37:32	0	0	3,050475	2,04825	293,724	0,144	85,148	0	1017,02	6,8	8,9	8,7	1	1	1	1	1	1	1	1	1	0	1	-8,033827	274,105934	312,044897	0
15.01.2021	20:37:33	0	0	2,598553	2,09325	293,7276	0,142	85,133	0	1017,06	6,8	8,9	8,7	1	1	1	1	1	1	1	1	1	0	1	-9,654686	274,06865	310,249925	0
15.01.2021	20:37:34	0	0	3,615378	2,124	287,7624	0,143	85,16	0	1017,14	6,8	8,9	8,7	1	1	1	1	1	1	1	1	1	0	1	-11,768851	274,239252	308,93304	0
15.01.2021	20:37:35	0	0	2,485572	2,09625	299,4192	0,147	85,164	0	1017	6,8	8,9	8,7	1	1	1	1	1	1	1	1	1	0	1	-8,879493	274,215217	311,709984	0
15.01.2021	20:37:36	0	0	4,858164	2,04525	287,3304	0,141	85,142	0	1016,96	6,8	8,9	8,7	1	1	1	1	1	1	1	1	1	0	1	-8,45666	274,17922	311,964511	0
15.01.2021	20:37:37	0	0	3,502398	2,03175	285,5484	0,144	85,148	0	1017,1	6,8	8,9	8,7	1	1	1	1	1	1	1	1	1	0	1	-8,668076	274,246769	312,06898	0
15.01.2021	20:37:38	0	0	1,92067	2,058	282,3732	0,144	85,127	0	1017,04	6,8	8,9	8,7	1	1	1	1	1	1	1	1	1	0	1	-9,161381	274,183716	311,280807	0
15.01.2021	20:37:39	0	0	2,485572	2,1345	285,2136	0,139	85,148	0	1017	6,8	8,9	8,7	1	1	1	1	1	1	1	1	1	0	1	-11,275546	274,246769	309,46151	0
15.01.2021	20:37:40	0	0	2,485558	2,24325	271,0116	0,142	85,14	0	1017	6,8	8,9	8,8	1	1	1	1	1	1	1	1	1	0	1	-10,359408	274,104441	309,712343	0
15.01.2021	20:37:41	0	0	4,0673	2,34075	293,6628	0,142	85,143	0	1016,94	6,8	8,9	8,7	1	1	1	1	1	1	1	1	1	0	1	-8,033827	274,064181	311,849919	0
15.01.2021	20:37:42	0	0	3,502398	2,391	308,4228	0,144	85,145	0	1017,04	6,8	8,9	8,7	1	1	1	1	1	1	1	1	1	0	1	-9,795631	274,19571	310,702633	0
15.01.2021	20:37:43	0	0	4,293236	2,23275	321,4188	0,14	85,132	0	1017,08	6,8	8,9	8,8	1	1	1	1	1	1	1	1	1	0	1	-7,258633	274,246769	313,478424	0
15.01.2021	20:37:44	0	0	2,259598	2,0355	318,8484	0,142	85,155	0	1016,9	6,8	8,9	8,8	1	1	1	1	1	1	1	1	1	0	1	-12,332629	274,140298	307,906639	0
15.01.2021	20:37:45	0	0	2,937477	1,88475	297,5796	0,142	85,128	0	1017,04	6,8	8,9	8,8	1	1	1	1	1	1	1	1	1	0	1	-11,627907	274,23324	309,045865	0
15.01.2021	20:37:46	0	0	3,276436	1,98225	288,3888	0,136	85,149	0	1016,96	6,8	8,9	8,7	1	1	1	1	1	1	1	1	1	0	1	-6,976744	274,104441	313,095007	0
15.01.2021	20:37:47	0	0	2,824514	2,29275	297,2088	0,143	85,141	0	1016,88	6,8	8,9	8,7	1	1	1	1	1	1	1	1	1	0	1	-9,090909	274,079082	310,862413	0
15.01.2021	20:37:48	0	0	3,95432	2,4405	303,9228	0,136	85,148	0	1016,92	6,8	8,9	8,7	1	1	1	1	1	1	1	1	1	0	1	-8,386187	274,113399	311,727408	0
15.01.2021	20:37:49	0	0	2,372592	2,57025	291,8988	0,144	85,14	0	1017,1	6,8	8,9	8,7	1	1	1	1	1	1	1	1	1	0	1	-5,919662	274,242259	314,796294	0
15.01.2021	20:37:50	0	0	4,519223	2,58825	292,2552	0,137	85,135	0	1017,06	6,8	8,9	8,7	1	1	1	1	1	1	1	1	1	0	1	-9,231853	274,20171	311,294464	0
15.01.2021	20:37:51	0	0	3,389397	2,64	301,5684	0,143	85,153	0	1016,98	6,8	8,9	8,8	1	1	1	1	1	1	1	1	1	0	1	-7,963354	274,218219	312,640164	0
15.01.2021	20:37:52	0	0	4,0673	2,61675	301,3092	0,141	85,135	0	1017,16	6,8	8,9	8,7	1	1	1	1	1	1	1	1	1	0	1	-8,879493	274,23324	311,794279	0
15.01.2021	20:37:53	0	0	4,745184	2,6955	306,8424	0,138	85,141	0	1016,98	6,8	8,9	8,7	1	1	1	1	1	1	1	1	1	0	1	-16,701903	274,07312	303,223581	0
15.01.2021	20:37:54	0	0	4,519195	2,646	302,8428	0,141	85,158	0	1016,86	6,8	8,9	8,8	1	1	1	1	1	1	1	1	1	0	1	-8,668076	274,19421	311,823176	0
15.01.2021	20:37:55	0	0	2,372592	2,6115	297,4968	0,133	85,135	0	1017,02	6,8	8,9	8,7	1	1	1	1	1	1	1	1	1	0	1	-10,782241	274,242259	309,933715	0
15.01.2021	20:37:56	0	0	2,937495	2,5725	312,7932	0,136	85,128	0	1016,98	6,8	8,9	8,7	1	1	1	1	1	1	1	1	1	0	1	-10,147992	274,113399	309,965604	0
15.01.2021	20:37:57	0	0	4,519195	2,57925	311,7348	0,144	85,14	0	1017,14	6,8	8,9	8,8	1	1	1	1	1	1	1	1	1	0	1	-7,540521	274,243762	313,182467	0
15.01.2021	20:37:58	0	0	4,519223	2,63925	310,2732	0,142	85,143	0	1017,02	6,8	8,9	8,7	1	1	1	1	1	1	1	1	1	0	1	-12,614517	274,128339	307,56887	0
15.01.2021	20:37:59	0	0	4,180281	2,74425	305,7192	0,136	85,126	0	1017,02	6,8	8,9	8,7	1	1	1	1	1	1	1	1	1	0	1	-7,188161	274,216718	313,408337	0
15.01.2021	20:38:00	0	0	4,180281	2,83875	311,3172	0,144	85,143	0	1017,12	6,8	8,9	8,7	1	1	1	1	1	1	1	1	1	0	1	-8,245243	274,257298	312,541072	0
15.01.2021	20:38:01	0	0	2,824497	2,769	304,9308	0,137	85,127	0	1016,92	6,8	8,9	8,8	1	1	1	1	1	1	1	1	1	0	1	-8,949965	274,104441	311,121787	0
15.01.2021	20:38:02	0	0	2,711534	2,82	307,5696	0,143	85,141	0	1017,04	6,8	8,9	8,7	1	1	1	1	1	1	1	1	1	0	1	-9,090909	274,07312	310,834575	0
15.01.2021	20:38:03	0	0	3,163437	2,8065	305,37	0,139	85,118	0	1016,96	6,8	8,9	8,8	1	1	1	1	1	1	1	1	1	0	1	-11,41649	274,105934	308,662233	0
15.01.2021	20:38:04	0	0	4,406216	2,78475	299,8008	0,136	85,126	0	1017	6,8	8,9	8,8	1	1	1	1	1	1	1	1	1	0	1	-15,221987	274,058223	304,633946	0
15.01.2021	20:38:05	0	0	3,841316	2,79975	304,6068	0,138	85,125	0	1017,12	6,8	8,9	8,8	1	1	1	1	1	1	1	1	1	0	1	-9,161381	274,129833	311,028989	0
15.01.2021	20:38:06	0	0	3,050475	2,754	303,4872	0,139	85,132	0	1017,04	6,8	8,9	8,7	1	1	1	1	1	1	1	1	1	0	1	-9,161381	274,079082	310,791941	0
15.01.2021	20:38:07	0	0	4,632203	2,68425	301,2192	0,143	85,137	0	1016,84	6,8	8,9	8,7	1	1	1	1	1	1	1	1	1	0	1	-7,963354	274,128339	312,220033	0
15.01.2021	20:38:08	0	0	4,745184	2,69475	295,1928	0,149	85,147	0	1017,08	6,8	8,9	8,7	1	1	1	1	1	1	1	1	1	0	1	-6,483439	274,237749	314,211422	0
15.01.2021	20:38:09	0	0	4,406242	2,66325	297,8892	0,134	85,123	0	1017	6,8	8,9	8,7	1	1	1	1	1	1	1	1	1	0	1	-8,174771	274,111906	311,931849	0
15.01.2021	20:38:10	0	0	2,937477	2,63475	310,2552	0,145	85,145	0	1016,98	6,8	8,9	8,8	1	1	1	1	1	1	1	1	1	0	1	-11,205074	274,255794	309,574202	0
15.01.2021	20:38:11	0	0	3,389417	2,4975	299,4012	0,138	85,148	0	1016,94	6,8	8,9	8,7	1	1	1	1	1	1	1	1	1	0	1	-8,527132	274,20321	312,0062	0
15.01.2021	20:38:12	0	0	3,502398	2,454	308,1528	0,141	85,126	0	1017	6,8	9	8,7	1	1	1	1	1	1	1	1	1	0	1	-9,020437	274,20321	311,512895	0
15.01.2021	20:38:13	0	0	2,824514	2,439	304,9344	0,139	85,148	0	1017,16	6,8	8,9	8,7	1	1	1	1	1	1	1	1	1	0	1	-11,06413	274,058223	308,791804	0
15.01.2021	20:38:14	0	0	2,937495	2,42925	300,5028	0,142	85,147	0	1017,04	6,8	8,9	8,7	1	1	1	1	1	1	1	1	1	0	1	-10,42988	274,153762	309,872304	0
15.01.2021	20:38:15	0	0	3,728359	2,42325	308,124	0,141	85,152	0	1017,04	6,8	8,9	8,7	1	1	1	1	1	1	1	1	1	0	1	-8,738548	274,254289	312,033689	0
15.01.2021	20:38:16	0	0	3,389417	2,403	307,2168	0,135	85,143	0	1017,08	6,8	8,9	8,7	1	1	1	1	1	1	1	1	1	0	1	-5,990134	274,101456	314,067675	0
15.01.2021	20:38:17	0	0	3,163456	2,34525	306,54	0,143	85,155	0	1017,06	6,8	8,8	8,7	1	1	1	1	1	1	1	1	1	0	1	-8,104299	274,06716	311,793357	0
15.01.2021	20:38:18	0	0	4,406216	2,22675	300,8232	0,137	85,134	0	1017,02	6,8	8,9	8,8	1	1	1	1	1	1	1	1	1	0	1	-11,06413	274,126844	309,112275	0
15.01.2021	20:38:19	0	0	4,632203	2,18325	298,3068	0,138	85,193	0	1016,92	6,8	8,9	8,7	1	1	1	1	1	1	1	1	1	0	1	-7,470049	274,249777	313,281078	0
15.01.2021	20:38:20	0	0	4,519223	2,17425	308,1384	0,14	85,16	0	1016,92	6,8	8,9	8,7	1	1	1	1	1	1	1	1	1	0	1	-12,403101	274,153762	307,899083	0
15.01.2021	20:38:21	0	0	4,406242	2,18175	301,1832	0,137	85,157	0	1017,04	6,8	8,9	8,7	1	1	1	1	1	1	1	1	1	0	1	-10,007047	274,258803	310,786307	0
15.01.2021	20:38:22	0	0	2,937495	2,22825	300,5496	0,138	85,159	0	1017,06	6,8	8,9	8,7	1	1	1	1	1	1	1	1	1	0	1	-8,527132	274,20021	311,992171	0
15.01.2021	20:38:23	0	0	4,632175	2,169	303,9048	0,142	85,155	0	1017,02	6,8	8,9	8,8	1	1	1	1	1	1	1	1	1	0	1	-8,738548	274,225728	311,900089	0
15.01.2021	20:38:24	0	0	4,406242	2,07075	293,706	0,141	85,153	0	1017,06	6,8	8,9	8,7	1	1	1	1	1	1	1	1	1	0	1	-9,161381	274,152266	311,133809	0
15.01.2021	20:38:25	0	0	3,841339	1,97025	297,5616	0,141	85,158	0	1017,08	6,8	8,9	8,7	1	1	1	1	1	1	1	1	1	0	1	-10,570825	274,240755	310,138099	0
15.01.2021	20:38:26	0	0	3,615378	1,92825	300,4452	0,14	85,172	0	1017,04	6,8	8,9	8,7	1	1	1	1	1	1	1	1	1	0	1	-11,698379	274,170231	308,680774	0
15.01.2021	20:38:27	0	0	4,406242	1,938	290,808	0,141	85,162	0	1016,98	6,8	8,9	8,7	1	1	1	1	1	1	1	1	1	0	1	-9,654686	274,076101	310,284715	0
15.01.2021	20:38:28	0	0	3,502398	2,09475	295,5924	0,138	85,16	0	1017,02	6,8	8,9	8,7	1	1	1	1	1	1	1	1	1	0	1	-13,460183	274,189712	307,010037	0
15.01.2021	20:38:29	0	0	2,259611	2,16975	298,368	0,143	85,17	0	1017	6,8	8,9	8,7	1	1	1	1	1	1	1	1	1	0	1	-11,698379	274,074611	308,234063	0
15.01.2021	20:38:30	0	0	4,0673	2,274	293,7312	0,138	85,164	0	1016,86	6,8	8,9	8,7	1	1	1	1	1	1	1	1	1	0	1	-13,03735	274,128339	307,146037	0
15.01.2021	20:38:31	0	0	3,502398	2,39475	295,1604	0,147	85,169	0	1016,96	6,8	8,9	8,7	1	1	1	1	1	1	1	1	1	0	1	-10,42988	274,225728	310,208757	0
15.01.2021	20:38:32	0	0	4,632203	2,42025	302,4828	0,137	85,166	0	1016,96	6,8	8,9	8,7	1	1	1	1	1	1	1	1	1	0	1	-8,597604	274,152266	311,697587	0
15.01.2021	20:38:33	0	0	3,502398	2,36925	298,7712	0,142	85,167	0	1017	6,8	8,9	8,7	1	1	1	1	1	1	1	1	1	0	1	-11,41649	274,237749	309,27837	0
15.01.2021	20:38:34	0	0	4,745184	2,37675	290,0484	0,134	85,172	0	1016,86	6,8	8,9	8,7	1	1	1	1	1	1	1	1	1	0	1	-8,45666	274,20321	312,076672	0
15.01.2021	20:38:35	0	0	4,632175	2,388	301,536	0,142	85,156	0	1017	6,8	8,9	8,8	1	1	1	1	1	1	1	1	1	0	1	-4,580691	274,218219	316,022828	0
15.01.2021	20:38:36	0	0	3,502398	2,42625	292,6152	0,142	85,161	0	1017,02	6,8	8,9	8,7	1	1	1	1	1	1	1	1	1	0	1	-9,654686	274,224226	310,976926	0
15.01.2021	20:38:37	0	0	3,502398	2,442	301,6008	0,138	85,176	0	1017,12	6,8	8,9	8,7	1	1	1	1	1	1	1	1	1	0	1	-12,614517	274,164241	307,736638	0
15.01.2021	20:38:38	0	0	4,632175	2,50275	299,2896	0,14	85,179	0	1017,06	6,8	8,9	8,8	1	1	1	1	1	1	1	1	1	0	1	-10,359408	274,249777	310,391719	0
15.01.2021	20:38:39	0	0	3,95432	2,4795	291,9132	0,139	85,179	0	1017,02	6,8	8,9	8,7	1	1	1	1	1	1	1	1	1	0	1	-10,077519	274,210713	310,490898	0
15.01.2021	20:38:40	0	0	4,745184	2,364	302,4576	0,142	85,165	0	1016,9	6,8	8,9	8,7	1	1	1	1	1	1	1	1	1	0	1	-9,161381	274,255794	311,617895	0
15.01.2021	20:38:41	0	0	3,389417	2,34	291,1716	0,144	85,18	0	1017,26	6,8	8,9	8,7	1	1	1	1	1	1	1	1	1	0	1	-9,020437	274,091012	310,988593	0
15.01.2021	20:38:42	0	0	3,615378	2,4015	296,8704	0,137	85,174	0	1016,94	6,8	8,9	8,7	1	1	1	1	1	1	1	1	1	0	1	-13,812544	274,213715	306,769912	0
15.01.2021	20:38:43	0	0	4,632203	2,352	295,5312	0,144	85,178	0	1017	6,8	8,9	8,7	1	1	1	1	1	1	1	1	1	0	1	-15,856237	274,240755	304,852687	0
15.01.2021	20:38:44	0	0	3,276436	2,346	298,962	0,139	85,19	0	1016,98	6,8	8,9	8,7	1	1	1	1	1	1	1	1	1	0	1	-7,399577	274,114893	312,720994	0
15.01.2021	20:38:45	0	0	4,0673	2,34075	295,1748	0,141	85,18	0	1017	6,8	8,9	8,7	1	1	1	1	1	1	1	1	1	0	1	-7,399577	274,254289	313,37266	0
15.01.2021	20:38:46	0	0	3,502398	2,25075	296,4528	0,141	85,185	0	1016,88	6,8	8,9	8,7	1	1	1	1	1	1	1	1	1	0	1	-7,399577	274,088029	312,595522	0
15.01.2021	20:38:47	0	0	4,745184	2,21025	297,8856	0,144	85,179	0	1017,02	6,8	8,9	8,7	1	1	1	1	1	1	1	1	1	0	1	-11,909796	274,225728	308,728842	0
15.01.2021	20:38:48	0	0	2,937495	2,2305	291,24	0,145	85,179	0	1017,06	6,8	8,9	8,7	1	1	1	1	1	1	1	1	1	0	1	-12,825934	274,092503	307,190063	0
15.01.2021	20:38:49	0	0	3,728359	2,187	289,5696	0,139	85,18	0	1017,06	6,8	8,9	8,7	1	1	1	1	1	1	1	1	1	0	1	-8,527132	274,091012	311,481898	0
15.01.2021	20:38:50	0	0	3,502398	2,109	290,0412	0,148	85,194	0	1017,02	6,8	8,9	8,7	1	1	1	1	1	1	1	1	1	0	1	-7,892882	274,101456	312,164927	0
15.01.2021	20:38:51	0	0	4,632203	2,16225	290,7072	0,139	85,195	0	1017,02	6,8	8,8	8,7	1	1	1	1	1	1	1	1	1	0	1	-10,077519	274,152266	310,217671	0
15.01.2021	20:38:52	0	0	4,293261	2,14425	289,1376	0,142	85,18	0	1017,04	6,8	8,9	8,7	1	1	1	1	1	1	1	1	1	0	1	-10,288936	274,255794	310,49034	0
15.01.2021	20:38:53	0	0	4,519223	2,0745	288,4068	0,141	85,178	0	1017	6,8	8,9	8,7	1	1	1	1	1	1	1	1	1	0	1	-5,426357	274,192711	315,057884	0
15.01.2021	20:38:54	0	0	3,050475	2,10375	292,2372	0,148	85,188	0	1016,92	6,8	8,9	8,7	1	1	1	1	1	1	1	1	1	0	1	-8,527132	274,06716	311,370524	0
15.01.2021	20:38:55	0	0	2,598553	2,12475	292,0068	0,142	85,19	0	1017,06	6,8	8,9	8,7	1	1	1	1	1	1	1	1	1	0	1	-10,218464	274,191211	310,258766	0
15.01.2021	20:38:56	0	0	2,372592	2,12175	295,254	0,15	85,187	0	1016,88	6,8	8,8	8,7	1	1	1	1	1	1	1	1	1	0	1	-9,161381	274,096979	310,875518	0
15.01.2021	20:38:57	0	0	4,858164	2,085	298,6992	0,145	85,187	0	1016,88	6,8	8,9	8,7	1	1	1	1	1	1	1	1	1	0	1	-5,919662	274,231738	314,747082	0
15.01.2021	20:38:58	0	0	2,824514	2,19825	300,0528	0,147	85,183	0	1017,1	6,8	8,8	8,7	1	1	1	1	1	1	1	1	1	0	1	-8,245243	274,096979	311,791657	0
15.01.2021	20:38:59	0	0	2,711534	2,3205	302,5044	0,15	85,189	0	1017	6,8	8,9	8,7	1	1	1	1	1	1	1	1	1	0	1	-8,668076	274,213715	311,91438	0
15.01.2021	20:39:00	0	0	4,971145	2,26725	290,8224	0,144	85,188	0	1017,1	6,8	8,9	8,7	1	1	1	1	1	1	1	1	1	0	1	-8,104299	274,06716	311,793357	0
15.01.2021	20:39:01	0	0	3,728336	2,14425	301,5108	0,138	85,182	0	1016,92	6,8	8,9	8,8	1	1	1	1	1	1	1	1	1	0	1	-7,82241	274,19571	312,675853	0
15.01.2021	20:39:02	0	0	2,937495	2,07975	302,814	0,142	85,176	0	1016,96	6,8	8,8	8,7	1	1	1	1	1	1	1	1	1	0	1	-7,258633	274,237749	313,436228	0
15.01.2021	20:39:03	0	0	3,389397	2,03325	300,8916	0,141	85,188	0	1016,94	6,8	8,9	8,8	1	1	1	1	1	1	1	1	1	0	1	-6,342495	274,231738	314,324249	0
15.01.2021	20:39:04	0	0	4,858164	1,9305	302,796	0,146	85,193	0	1017,14	6,8	8,9	8,7	1	1	1	1	1	1	1	1	1	0	1	-10,077519	274,080573	309,882764	0
15.01.2021	20:39:05	0	0	4,0673	1,773	291,8268	0,142	85,186	0	1017,1	6,8	8,8	8,7	1	1	1	1	1	1	1	1	1	0	1	-10,42988	274,128339	309,753507	0
15.01.2021	20:39:06	0	0	2,259611	1,62825	305,7804	0,145	85,189	0	1017,16	6,8	8,9	8,7	1	1	1	1	1	1	1	1	1	0	1	-9,513742	274,11788	310,620784	0
15.01.2021	20:39:07	0	0	2,824514	1,647	305,3556	0,144	85,185	0	1017,02	6,8	8,9	8,7	1	1	1	1	1	1	1	1	1	0	1	-9,513742	274,255794	311,265534	0
15.01.2021	20:39:08	0	0	4,971145	1,73775	302,4756	0,145	85,198	0	1017,08	6,8	8,9	8,7	1	1	1	1	1	1	1	1	1	0	1	-10,641297	274,206211	309,906067	0
15.01.2021	20:39:09	0	0	3,615378	1,78725	298,2492	0,141	85,181	0	1017,08	6,8	8,9	8,7	1	1	1	1	1	1	1	1	1	0	1	-12,614517	274,113399	307,499078	0
15.01.2021	20:39:10	0	0	2,485558	1,7535	304,236	0,144	85,193	0	1017	6,8	8,9	8,8	1	1	1	1	1	1	1	1	1	0	1	-11,275546	274,249777	309,475581	0
15.01.2021	20:39:11	0	0	3,615378	1,83825	300,8808	0,149	85,183	0	1017,02	6,8	8,9	8,7	1	1	1	1	1	1	1	1	1	0	1	-12,684989	274,19571	307,813274	0
15.01.2021	20:39:12	0	0	3,615378	1,86	299,7648	0,149	85,2	0	1017,08	6,8	8,9	8,7	1	1	1	1	1	1	1	1	1	0	1	-11,134602	274,230235	309,525114	0
15.01.2021	20:39:13	0	0	3,95432	1,80825	318,2184	0,146	85,2	0	1017,08	6,8	8,9	8,7	1	1	1	1	1	1	1	1	1	0	1	-7,399577	274,08952	312,602487	0
15.01.2021	20:39:14	0	0	2,598553	1,82325	298,3356	0,146	85,189	0	1016,96	6,8	8,9	8,7	1	1	1	1	1	1	1	1	1	0	1	-12,966878	274,251281	307,791285	0
15.01.2021	20:39:15	0	0	4,971145	1,7625	321,7788	0,139	85,189	0	1017	6,8	8,9	8,7	1	1	1	1	1	1	1	1	1	0	1	-9,020437	274,239252	311,681455	0
15.01.2021	20:39:16	0	0	3,050475	1,6995	313,6464	0,149	85,185	0	1016,84	6,8	8,9	8,7	1	1	1	1	1	1	1	1	1	0	1	-9,725159	274,191211	310,752072	0
15.01.2021	20:39:17	0	0	2,711517	1,69125	299,4696	0,141	85,196	0	1016,98	6,8	8,9	8,8	1	1	1	1	1	1	1	1	1	0	1	-8,527132	274,239252	312,17476	0
15.01.2021	20:39:18	0	0	4,406242	1,67175	298,2492	0,15	85,176	0	1016,9	6,8	8,8	8,7	1	1	1	1	1	1	1	1	1	0	1	-6,412967	274,082064	313,554278	0
15.01.2021	20:39:19	0	0	2,824514	1,5285	302,8104	0,143	85,19	0	1016,96	6,8	8,9	8,7	1	1	1	1	1	1	1	1	1	0	1	-9,654686	274,091012	310,354344	0
15.01.2021	20:39:20	0	0	3,163456	1,4655	301,302	0,148	85,187	0	1017,04	6,8	8,9	8,7	1	1	1	1	1	1	1	1	1	0	1	-9,725159	274,082064	310,242087	0
15.01.2021	20:39:21	0	0	3,389417	1,4865	315,8784	0,141	85,182	0	1016,94	6,8	8,9	8,7	1	1	1	1	1	1	1	1	1	0	1	-11,909796	274,19571	308,588468	0
15.01.2021	20:39:22	0	0	2,598553	1,455	318,8232	0,143	85,192	0	1017,14	6,8	9	8,7	1	1	1	1	1	1	1	1	1	0	1	-9,513742	274,080573	310,446541	0
15.01.2021	20:39:23	0	0	2,824514	1,37325	301,23	0,14	85,187	0	1017	6,8	8,9	8,7	1	1	1	1	1	1	1	1	1	0	1	-5,21494	274,116386	314,912608	0
15.01.2021	20:39:24	0	0	4,180256	1,36725	296,424	0,146	85,201	0	1017	6,8	8,9	8,8	1	1	1	1	1	1	1	1	1	0	1	-11,698379	274,120867	308,450104	0
15.01.2021	20:39:25	0	0	4,519195	1,47075	292,5756	0,142	85,194	0	1016,94	6,8	8,9	8,8	1	1	1	1	1	1	1	1	1	0	1	-8,104299	274,07163	311,814227	0
15.01.2021	20:39:26	0	0	2,937495	1,4925	297,1944	0,149	85,186	0	1017	6,8	8,9	8,7	1	1	1	1	1	1	1	1	1	0	1	-10,993658	274,192711	309,490583	0
15.01.2021	20:39:27	0	0	3,615378	1,47825	297,1764	0,138	85,166	0	1016,98	6,8	9	8,7	1	1	1	1	1	1	1	1	1	0	1	-10,711769	274,252785	310,053431	0
15.01.2021	20:39:28	0	0	3,276417	1,47825	298,6992	0,148	85,192	0	1016,94	6,8	8,9	8,8	1	1	1	1	1	1	1	1	1	0	1	-13,6716	274,237749	307,023261	0
15.01.2021	20:39:29	0	0	3,728359	1,53975	306,45	0,142	85,192	0	1017,1	6,8	8,9	8,7	1	1	1	1	1	1	1	1	1	0	1	-10,711769	274,086537	309,276366	0
15.01.2021	20:39:30	0	0	3,615378	1,58925	309,8952	0,144	85,182	0	1017,14	6,8	8,8	8,7	1	1	1	1	1	1	1	1	1	0	1	-13,178295	274,231738	307,488449	0
15.01.2021	20:39:31	0	0	3,841339	1,581	314,37	0,147	85,189	0	1017,08	6,8	8,9	8,7	1	1	1	1	1	1	1	1	1	0	1	-9,513742	274,101456	310,544067	0
15.01.2021	20:39:32	0	0	2,711534	1,623	311,7672	0,137	85,178	0	1016,86	6,8	8,9	8,7	1	1	1	1	1	1	1	1	1	0	1	-8,174771	274,249777	312,576356	0
15.01.2021	20:39:33	0	0	4,406242	1,59075	321,8796	0,142	85,183	0	1017,2	6,8	8,9	8,7	1	1	1	1	1	1	1	1	1	0	1	-7,82241	274,173227	312,570746	0
15.01.2021	20:39:34	0	0	4,406242	1,63275	306,4176	0,143	85,169	0	1017,08	6,8	9	8,7	1	1	1	1	1	1	1	1	1	0	1	-9,302326	274,064181	310,58142	0
15.01.2021	20:39:35	0	0	3,276436	1,656	330,7428	0,144	85,189	0	1017,14	6,8	8,9	8,7	1	1	1	1	1	1	1	1	1	0	1	-11,41649	274,180718	309,011685	0
15.01.2021	20:39:36	0	0	2,598553	1,5885	308,0736	0,138	85,195	0	1016,9	6,8	8,9	8,7	1	1	1	1	1	1	1	1	1	0	1	-16,138125	274,249777	304,613001	0
15.01.2021	20:39:37	0	0	4,971145	1,536	291,8628	0,142	85,196	0	1017,06	6,8	8,9	8,7	1	1	1	1	1	1	1	1	1	0	1	-11,134602	274,155259	309,174576	0
15.01.2021	20:39:38	0	0	4,293261	1,4475	307,566	0,137	85,188	0	1016,98	6,8	8,8	8,7	1	1	1	1	1	1	1	1	1	0	1	-9,654686	274,252785	311,110514	0
15.01.2021	20:39:39	0	0	3,502398	1,39725	310,5936	0,145	85,173	0	1017,14	6,8	8,9	8,7	1	1	1	1	1	1	1	1	1	0	1	-10,711769	274,188213	309,751442	0
15.01.2021	20:39:40	0	0	2,598553	1,38225	304,9992	0,145	85,188	0	1017	6,8	8,9	8,7	1	1	1	1	1	1	1	1	1	0	1	-14,305849	274,07312	305,619635	0
15.01.2021	20:39:41	0	0	2,937495	1,356	311,778	0,143	85,185	0	1017,14	6,8	8,9	8,7	1	1	1	1	1	1	1	1	1	0	1	-11,768851	274,126844	308,407554	0
15.01.2021	20:39:42	0	0	3,502398	1,326	311,4072	0,149	85,196	0	1017,18	6,8	8,9	8,7	1	1	1	1	1	1	1	1	1	0	1	-12,825934	274,236246	307,861897	0
15.01.2021	20:39:43	0	0	5,197106	1,3245	315,1008	0,142	85,178	0	1017,02	6,8	8,9	8,7	1	1	1	1	1	1	1	1	1	0	1	-9,231853	274,219721	311,378688	0
15.01.2021	20:39:44	0	0	2,711534	1,341	309,9096	0,147	85,178	0	1017,06	6,8	8,9	8,7	1	1	1	1	1	1	1	1	1	0	1	-9,654686	274,091012	310,354344	0
15.01.2021	20:39:45	0	0	2,372592	1,32525	309,5172	0,144	85,193	0	1016,94	6,8	8,9	8,7	1	1	1	1	1	1	1	1	1	0	1	-6,20155	274,183716	314,240638	0
15.01.2021	20:39:46	0	0	4,406242	1,3485	304,92	0,145	85,185	0	1017,02	6,8	8,9	8,7	1	1	1	1	1	1	1	1	1	0	1	-9,161381	274,218219	311,442138	0
15.01.2021	20:39:47	0	0	3,276436	1,50225	296,4204	0,145	85,191	0	1016,96	6,8	8,9	8,7	1	1	1	1	1	1	1	1	1	0	1	-12,544045	274,120867	307,604438	0
15.01.2021	20:39:48	0	0	3,276436	1,65675	308,0628	0,138	85,181	0	1016,9	6,8	8,9	8,7	1	1	1	1	1	1	1	1	1	0	1	-7,892882	274,095487	312,137049	0
15.01.2021	20:39:49	0	0	4,632175	1,71225	290,4012	0,14	85,201	0	1017,08	6,8	9	8,8	1	1	1	1	1	1	1	1	1	0	1	-7,610994	274,088029	312,384106	0
15.01.2021	20:39:50	0	0	4,858135	1,833	296,0964	0,143	85,171	0	1016,82	6,8	8,9	8,8	1	1	1	1	1	1	1	1	1	0	1	-14,446794	274,137308	305,7785	0
15.01.2021	20:39:51	0	0	2,259611	1,914	293,0004	0,148	85,189	0	1017,06	6,8	8,9	8,7	1	1	1	1	1	1	1	1	1	0	1	-9,795631	274,055245	310,0464	0
15.01.2021	20:39:52	0	0	4,745184	2,08125	293,3352	0,146	85,176	0	1017,06	6,8	8,9	8,7	1	1	1	1	1	1	1	1	1	0	1	-6,8358	274,183716	313,606388	0
15.01.2021	20:39:53	0	0	3,841339	2,202	291,5064	0,145	85,171	0	1017,12	6,8	8,9	8,7	1	1	1	1	1	1	1	1	1	0	1	-8,879493	274,074611	311,05295	0
15.01.2021	20:39:54	0	0	3,95432	2,34075	300,168	0,144	85,185	0	1016,96	6,8	8,9	8,7	1	1	1	1	1	1	1	1	1	0	1	-12,614517	274,144785	307,645717	0
15.01.2021	20:39:55	0	0	3,841339	2,559	284,0868	0,138	85,181	0	1016,96	6,8	9	8,7	1	1	1	1	1	1	1	1	1	0	1	-6,412967	274,237749	314,281894	0
15.01.2021	20:39:56	0	0	2,598553	2,59575	287,4024	0,143	85,187	0	1017,06	6,8	8,9	8,7	1	1	1	1	1	1	1	1	1	0	1	-8,245243	274,122361	311,910219	0
15.01.2021	20:39:57	0	0	4,293261	2,6175	285,2208	0,136	85,178	0	1017,12	6,8	9	8,7	1	1	1	1	1	1	1	1	1	0	1	-12,544045	274,251281	308,214118	0
15.01.2021	20:39:58	0	0	2,598553	2,62125	291,8412	0,153	85,186	0	1017,22	6,8	8,9	8,7	1	1	1	1	1	1	1	1	1	0	1	-10,007047	274,191211	310,470183	0
15.01.2021	20:39:59	0	0	4,632203	2,57025	297,882	0,145	85,178	0	1016,96	6,8	8,9	8,7	1	1	1	1	1	1	1	1	1	0	1	-9,936575	274,239252	310,765317	0
15.01.2021	20:40:00	0	0	3,615378	2,5455	290,8152	0,142	85,169	0	1017,08	6,8	8,9	8,7	1	1	1	1	1	1	1	1	1	0	1	-8,668076	274,210713	311,900341	0
15.01.2021	20:40:01	0	0	3,050475	2,43225	289,242	0,142	85,164	0	1016,98	6,8	8,9	8,7	1	1	1	1	1	1	1	1	1	0	1	-10,359408	274,113399	309,754187	0
15.01.2021	20:40:02	0	0	4,745184	2,44875	294,4044	0,143	85,177	0	1016,96	6,8	8,9	8,7	1	1	1	1	1	1	1	1	1	0	1	-8,527132	274,062691	311,34966	0
15.01.2021	20:40:03	0	0	4,971145	2,45625	288,1188	0,143	85,172	0	1017	6,8	8,9	8,7	1	1	1	1	1	1	1	1	1	0	1	-10,993658	274,116386	309,133891	0
15.01.2021	20:40:04	0	0	4,519223	2,484	290,3868	0,139	85,175	0	1016,98	6,8	8,9	8,7	1	1	1	1	1	1	1	1	1	0	1	-8,879493	274,209212	311,681906	0
15.01.2021	20:40:05	0	0	4,519223	2,445	297,2484	0,143	85,158	0	1017,06	6,8	8,9	8,7	1	1	1	1	1	1	1	1	1	0	1	-10,923185	274,222724	309,701403	0
15.01.2021	20:40:06	0	0	3,163456	2,4465	275,0256	0,144	85,182	0	1017	6,8	8,9	8,7	1	1	1	1	1	1	1	1	1	0	1	-10,923185	274,230235	309,736531	0
15.01.2021	20:40:07	0	0	3,841339	2,47275	297,522	0,144	85,18	0	1016,94	6,8	8,9	8,7	1	1	1	1	1	1	1	1	1	0	1	-10,359408	274,19571	310,138855	0
15.01.2021	20:40:08	0	0	4,519223	2,56875	290,7612	0,141	85,183	0	1017,1	6,8	8,9	8,7	1	1	1	1	1	1	1	1	1	0	1	-9,161381	274,07014	310,750187	0
15.01.2021	20:40:09	0	0	4,858164	2,493	289,188	0,142	85,168	0	1016,98	6,8	8,9	8,7	1	1	1	1	1	1	1	1	1	0	1	-10,711769	274,155259	309,597409	0
15.01.2021	20:40:10	0	0	2,824514	2,4645	293,4864	0,141	85,174	0	1017,04	6,8	8,9	8,7	1	1	1	1	1	1	1	1	1	0	1	-7,188161	274,251281	313,570002	0
15.01.2021	20:40:11	0	0	3,050475	2,61075	272,0556	0,145	85,176	0	1017,06	6,8	8,9	8,7	1	1	1	1	1	1	1	1	1	0	1	-8,949965	274,149273	311,331241	0
15.01.2021	20:40:12	0	0	4,858164	2,868	298,2348	0,143	85,169	0	1016,92	6,8	8,9	8,7	1	1	1	1	1	1	1	1	1	0	1	-7,82241	274,237749	312,872451	0
15.01.2021	20:40:13	0	0	2,485572	2,919	292,6224	0,144	85,181	0	1016,92	6,8	8,9	8,7	1	1	1	1	1	1	1	1	1	0	1	-9,302326	274,111906	310,804294	0
15.01.2021	20:40:14	0	0	4,0673	2,77725	301,6512	0,144	85,178	0	1017,1	6,8	9	8,7	1	1	1	1	1	1	1	1	1	0	1	-8,527132	274,239252	312,17476	0
15.01.2021	20:40:15	0	0	4,632203	2,6445	290,4372	0,144	85,177	0	1017,08	6,8	8,8	8,7	1	1	1	1	1	1	1	1	1	0	1	-8,033827	274,213715	312,548629	0
15.01.2021	20:40:16	0	0	3,163437	2,8365	286,3116	0,146	85,178	0	1016,98	6,8	9	8,8	1	1	1	1	1	1	1	1	1	0	1	-9,44327	274,191211	311,03396	0
15.01.2021	20:40:17	0	0	4,745184	3,0465	282,9276	0,143	85,176	0	1017,04	6,8	8,9	8,7	1	1	1	1	1	1	1	1	1	0	1	-10,711769	274,249777	310,039358	0
15.01.2021	20:40:18	0	0	2,937495	3,102	299,4408	0,138	85,165	0	1016,92	6,8	8,9	8,7	1	1	1	1	1	1	1	1	1	0	1	-10,077519	274,188213	310,385692	0
15.01.2021	20:40:19	0	0	4,745184	3,153	280,2744	0,142	85,188	0	1017,1	6,8	8,9	8,7	1	1	1	1	1	1	1	1	1	0	1	-12,191684	274,245266	308,538338	0
15.01.2021	20:40:20	0	0	2,372592	3,13725	286,1712	0,133	85,18	0	1017,02	6,8	8,9	8,7	1	1	1	1	1	1	1	1	1	0	1	-11,839323	274,174725	308,560836	0
15.01.2021	20:40:21	0	0	3,95432	3,09225	273,546	0,144	85,19	0	1016,9	6,8	8,9	8,7	1	1	1	1	1	1	1	1	1	0	1	-9,584214	274,249777	311,166913	0
15.01.2021	20:40:22	0	0	3,615378	3,06825	279,4752	0,138	85,18	0	1017	6,8	8,9	8,7	1	1	1	1	1	1	1	1	1	0	1	-9,725159	274,189712	310,745062	0
15.01.2021	20:40:23	0	0	3,615356	3,10425	281,052	0,143	85,178	0	1017,14	6,8	9	8,8	1	1	1	1	1	1	1	1	1	0	1	-10,923185	274,215217	309,666291	0
15.01.2021	20:40:24	0	0	2,711534	3,141	286,6536	0,142	85,165	0	1017,02	6,8	8,9	8,7	1	1	1	1	1	1	1	1	1	0	1	-9,584214	274,204711	310,956134	0
15.01.2021	20:40:25	0	0	4,745184	3,1545	282,4416	0,143	85,172	0	1016,96	6,8	8,9	8,7	1	1	1	1	1	1	1	1	1	0	1	-9,372798	274,114893	310,747774	0
15.01.2021	20:40:26	0	0	4,293261	2,98125	285,156	0,141	85,176	0	1016,94	6,8	8,9	8,7	1	1	1	1	1	1	1	1	1	0	1	-7,047216	274,243762	313,675772	0
15.01.2021	20:40:27	0	0	2,711534	2,8995	294,0768	0,144	85,179	0	1017	6,8	8,8	8,7	1	1	1	1	1	1	1	1	1	0	1	-7,892882	274,113399	312,220713	0
15.01.2021	20:40:28	0	0	3,615378	2,77575	290,07	0,142	85,17	0	1017,06	6,8	8,9	8,7	1	1	1	1	1	1	1	1	1	0	1	-9,020437	274,236246	311,667394	0
15.01.2021	20:40:29	0	0	3,389417	2,82825	287,7624	0,14	85,156	0	1016,94	6,8	9	8,7	1	1	1	1	1	1	1	1	1	0	1	-12,121212	274,105934	307,957512	0
15.01.2021	20:40:30	0	0	3,728359	2,76975	284,0688	0,14	85,151	0	1017,04	6,8	8,9	8,7	1	1	1	1	1	1	1	1	1	0	1	-7,610994	274,06716	312,286662	0
15.01.2021	20:40:31	0	0	3,050475	2,76525	291,492	0,136	85,155	0	1016,76	6,8	8,8	8,7	1	1	1	1	1	1	1	1	1	0	1	-9,654686	274,141794	310,591569	0
15.01.2021	20:40:32	0	0	3,389417	2,7285	294,4368	0,138	85,155	0	1016,96	6,8	8,9	8,7	1	1	1	1	1	1	1	1	1	0	1	-7,892882	274,254289	312,879355	0
15.01.2021	20:40:33	0	0	4,632175	2,8245	292,5936	0,145	85,171	0	1017,04	6,8	8,9	8,8	1	1	1	1	1	1	1	1	1	0	1	-4,862579	274,246769	315,874477	0
15.01.2021	20:40:34	0	0	2,824514	2,78475	290,8764	0,145	85,161	0	1016,96	6,8	8,9	8,7	1	1	1	1	1	1	1	1	1	0	1	-8,45666	274,177721	311,957506	0
15.01.2021	20:40:35	0	0	5,084125	2,87925	285,4944	0,144	85,146	0	1016,9	6,8	8,9	8,7	1	1	1	1	1	1	1	1	1	0	1	-10,923185	274,064181	308,96056	0
15.01.2021	20:40:36	0	0	2,711534	2,98725	286,2756	0,138	85,139	0	1016,98	6,8	8,9	8,7	1	1	1	1	1	1	1	1	1	0	1	-10,077519	274,19871	310,43477	0
15.01.2021	20:40:37	0	0	5,084125	3,01875	290,7828	0,138	85,149	0	1017,12	6,8	9	8,7	1	1	1	1	1	1	1	1	1	0	1	-9,725159	274,237749	310,969702	0
15.01.2021	20:40:38	0	0	4,632203	3,02475	296,1036	0,137	85,146	0	1016,92	6,8	8,8	8,7	1	1	1	1	1	1	1	1	1	0	1	-5,708245	274,242259	315,00771	0
15.01.2021	20:40:39	0	0	4,180281	2,92275	291,2364	0,137	85,158	0	1017,04	6,8	8,9	8,7	1	1	1	1	1	1	1	1	1	0	1	-9,513742	274,161246	310,823418	0
15.01.2021	20:40:40	0	0	4,519223	2,89875	290,0772	0,141	85,164	0	1017,1	6,8	8,9	8,7	1	1	1	1	1	1	1	1	1	0	1	-8,668076	274,246769	312,06898	0
15.01.2021	20:40:41	0	0	3,050475	2,82225	288,4248	0,143	85,159	0	1017,12	6,8	8,8	8,7	1	1	1	1	1	1	1	1	1	0	1	-10,641297	274,17922	309,779874	0
15.01.2021	20:40:42	0	0	3,728336	2,72775	287,8164	0,136	85,155	0	1016,96	6,8	8,9	8,8	1	1	1	1	1	1	1	1	1	0	1	-10,147992	274,06567	309,742709	0
15.01.2021	20:40:43	0	0	2,937495	2,6055	294,336	0,138	85,152	0	1017,06	6,8	8,9	8,7	1	1	1	1	1	1	1	1	1	0	1	-7,751938	274,077591	312,194424	0
15.01.2021	20:40:44	0	0	4,745184	2,57775	294,8292	0,137	85,161	0	1017,02	6,8	8,9	8,7	1	1	1	1	1	1	1	1	1	0	1	-12,05074	274,123856	308,111703	0
15.01.2021	20:40:45	0	0	3,615378	2,49675	297,5472	0,138	85,15	0	1017,14	6,8	8,9	8,7	1	1	1	1	1	1	1	1	1	0	1	-10,570825	274,245266	310,159198	0
15.01.2021	20:40:46	0	0	2,824514	2,49375	304,254	0,136	85,15	0	1017,06	6,8	9	8,7	1	1	1	1	1	1	1	1	1	0	1	-12,332629	274,183716	308,109559	0
15.01.2021	20:40:47	0	0	4,745184	2,46975	300,816	0,138	85,148	0	1017,04	6,8	8,9	8,7	1	1	1	1	1	1	1	1	1	0	1	-9,302326	274,061202	310,567513	0
15.01.2021	20:40:48	0	0	2,372578	2,59725	292,554	0,139	85,159	0	1017	6,8	8,8	8,8	1	1	1	1	1	1	1	1	1	0	1	-5,285412	274,132823	314,918925	0
15.01.2021	20:40:49	0	0	2,937495	2,81175	292,2588	0,132	85,161	0	1017,04	6,8	8,8	8,7	1	1	1	1	1	1	1	1	1	0	1	-6,8358	274,255794	313,943476	0
15.01.2021	20:40:50	0	0	3,615378	3,042	300,8088	0,139	85,149	0	1016,98	6,8	8,9	8,7	1	1	1	1	1	1	1	1	1	0	1	-7,399577	274,128339	312,78381	0
15.01.2021	20:40:51	0	0	5,310087	3,1605	296,0676	0,13	85,147	0	1016,88	6,8	9	8,7	1	1	1	1	1	1	1	1	1	0	1	-15,856237	274,240755	304,852687	0
15.01.2021	20:40:52	0	0	3,502376	3,10275	288,7776	0,141	85,152	0	1017	6,8	8,9	8,8	1	1	1	1	1	1	1	1	1	0	1	-10,923185	274,188213	309,540026	0
15.01.2021	20:40:53	0	0	2,711534	2,88675	287,712	0,138	85,156	0	1017,06	6,8	8,9	8,7	1	1	1	1	1	1	1	1	1	0	1	-8,879493	274,116386	311,248056	0
15.01.2021	20:40:54	0	0	3,163456	2,8365	292,9752	0,143	85,171	0	1016,98	6,8	8,8	8,7	1	1	1	1	1	1	1	1	1	0	1	-9,161381	274,095487	310,86855	0
15.01.2021	20:40:55	0	0	2,824514	2,97225	296,0172	0,134	85,151	0	1016,98	6,8	9	8,7	1	1	1	1	1	1	1	1	1	0	1	-9,654686	274,110413	310,444958	0
15.01.2021	20:40:56	0	0	4,406242	2,943	294,0732	0,141	85,146	0	1017,1	6,8	8,9	8,7	1	1	1	1	1	1	1	1	1	0	1	-10,218464	274,19721	310,286812	0
15.01.2021	20:40:57	0	0	4,180256	2,92125	296,4168	0,133	85,164	0	1016,92	6,8	8,9	8,8	1	1	1	1	1	1	1	1	1	0	1	-6,906272	274,257298	313,880043	0
15.01.2021	20:40:58	0	0	4,745184	2,74875	300,8556	0,13	85,162	0	1016,98	6,8	8,9	8,7	1	1	1	1	1	1	1	1	1	0	1	-9,866103	274,204711	310,674245	0
15.01.2021	20:40:59	0	0	3,615378	2,5725	298,9368	0,14	85,175	0	1017,16	6,8	9	8,7	1	1	1	1	1	1	1	1	1	0	1	-9,231853	274,102948	310,832926	0
15.01.2021	20:41:00	0	0	4,519223	2,529	301,608	0,141	85,164	0	1016,94	6,8	9	8,7	1	1	1	1	1	1	1	1	1	0	1	-7,751938	274,20171	312,774379	0
15.01.2021	20:41:01	0	0	2,937495	2,5305	300,4416	0,14	85,182	0	1016,94	6,8	8,9	8,7	1	1	1	1	1	1	1	1	1	0	1	-10,711769	274,212214	309,863667	0
15.01.2021	20:41:02	0	0	3,050475	2,50275	301,968	0,141	85,176	0	1017,16	6,8	9	8,7	1	1	1	1	1	1	1	1	1	0	1	-10,147992	274,082064	309,819254	0
15.01.2021	20:41:03	0	0	4,519223	2,538	291,1428	0,143	85,178	0	1017,1	6,8	8,9	8,7	1	1	1	1	1	1	1	1	1	0	1	-7,82241	274,225728	312,816227	0
15.01.2021	20:41:04	0	0	4,406242	2,6925	288,8136	0,142	85,163	0	1016,98	6,8	9	8,7	1	1	1	1	1	1	1	1	1	0	1	-6,624383	274,239252	314,077508	0
15.01.2021	20:41:05	0	0	3,050475	2,7705	299,0448	0,14	85,162	0	1016,86	6,8	8,9	8,7	1	1	1	1	1	1	1	1	1	0	1	-14,305849	274,114893	305,814722	0
15.01.2021	20:41:06	0	0	4,632203	2,88225	297,5328	0,139	85,19	0	1017,1	6,8	8,9	8,7	1	1	1	1	1	1	1	1	1	0	1	-5,778717	274,082064	314,188528	0
15.01.2021	20:41:07	0	0	3,95432	2,88975	291,5604	0,143	85,185	0	1016,9	6,8	8,9	8,7	1	1	1	1	1	1	1	1	1	0	1	-7,258633	274,260308	313,541762	0
15.01.2021	20:41:08	0	0	4,971145	2,88825	293,2416	0,14	85,18	0	1017,04	6,8	8,8	8,7	1	1	1	1	1	1	1	1	1	0	1	-7,892882	274,168733	312,479271	0
15.01.2021	20:41:09	0	0	2,146631	2,94375	288,7776	0,136	85,199	0	1017,04	6,8	8,9	8,7	1	1	1	1	1	1	1	1	1	0	1	-12,121212	274,07163	307,797314	0
15.01.2021	20:41:10	0	0	3,276436	2,955	300,096	0,138	85,197	0	1017	6,8	9	8,7	1	1	1	1	1	1	1	1	1	0	1	-5,285412	274,146281	314,981812	0
15.01.2021	20:41:11	0	0	4,0673	2,75025	289,17	0,138	85,193	0	1017,1	6,8	8,9	8,7	1	1	1	1	1	1	1	1	1	0	1	-6,624383	274,255794	314,154893	0
15.01.2021	20:41:12	0	0	3,728359	2,5785	296,478	0,141	85,201	0	1016,84	6,8	8,9	8,7	1	1	1	1	1	1	1	1	1	0	1	-12,191684	274,144785	308,06855	0
15.01.2021	20:41:13	0	0	5,084125	2,42025	291,1536	0,142	85,197	0	1017	6,8	8,8	8,7	1	1	1	1	1	1	1	1	1	0	1	-12,262156	274,251281	308,496007	0
15.01.2021	20:41:14	0	0	2,598553	2,27775	302,4396	0,141	85,198	0	1017,08	6,8	8,9	8,7	1	1	1	1	1	1	1	1	1	0	1	-10,923185	274,079082	309,030137	0
15.01.2021	20:41:15	0	0	3,95432	2,22675	292,6224	0,138	85,193	0	1017,1	6,8	9	8,7	1	1	1	1	1	1	1	1	1	0	1	-3,312192	274,152266	316,982999	0
15.01.2021	20:41:16	0	0	3,841339	2,244	296,8272	0,146	85,199	0	1016,9	6,8	9	8,7	1	1	1	1	1	1	1	1	1	0	1	-9,302326	274,06865	310,602286	0
15.01.2021	20:41:17	0	0	3,050457	2,238	275,4144	0,139	85,183	0	1016,78	6,8	9	8,8	1	1	1	1	1	1	1	1	1	0	1	-9,161381	274,156756	311,154791	0
15.01.2021	20:41:18	0	0	2,937495	2,10525	287,0424	0,142	85,196	0	1016,78	6,8	8,9	8,7	1	1	1	1	1	1	1	1	1	0	1	-7,751938	274,07312	312,173546	0
15.01.2021	20:41:19	0	0	4,293261	1,9335	291,1716	0,139	85,177	0	1016,96	6,8	8,8	8,7	1	1	1	1	1	1	1	1	1	0	1	-10,993658	274,114893	309,126914	0
15.01.2021	20:41:20	0	0	2,937495	1,9245	294,4332	0,141	85,205	0	1017,06	6,8	8,9	8,7	1	1	1	1	1	1	1	1	1	0	1	-4,016913	274,263317	316,797564	0
15.01.2021	20:41:21	0	0	3,050475	1,90425	290,7612	0,142	85,205	0	1016,96	6,8	8,9	8,7	1	1	1	1	1	1	1	1	1	0	1	-7,963354	274,080573	311,996929	0
15.01.2021	20:41:22	0	0	4,632203	1,93125	300,4992	0,142	85,208	0	1016,9	6,8	8,9	8,7	1	1	1	1	1	1	1	1	1	0	1	-12,614517	274,219721	307,996024	0
15.01.2021	20:41:23	0	0	2,711534	1,959	292,1652	0,142	85,184	0	1017,04	6,8	8,9	8,7	1	1	1	1	1	1	1	1	1	0	1	-7,188161	274,080573	312,772123	0
15.01.2021	20:41:24	0	0	3,615378	1,9335	292,5684	0,136	85,206	0	1017,08	6,8	8,8	8,7	1	1	1	1	1	1	1	1	1	0	1	-9,302326	274,188213	311,160886	0
15.01.2021	20:41:25	0	0	4,406242	1,989	286,2972	0,139	85,209	0	1016,9	6,8	8,9	8,7	1	1	1	1	1	1	1	1	1	0	1	-9,936575	274,261812	310,87086	0
15.01.2021	20:41:26	0	0	3,502398	2,02275	303,8616	0,144	85,204	0	1017,08	6,8	8,9	8,7	1	1	1	1	1	1	1	1	1	0	1	-8,174771	274,096979	311,862129	0
15.01.2021	20:41:27	0	0	5,084125	2,0055	292,9536	0,139	85,207	0	1016,9	6,8	8,9	8,7	1	1	1	1	1	1	1	1	1	0	1	-9,513742	274,171729	310,872413	0
15.01.2021	20:41:28	0	0	2,598553	2,06475	306,2124	0,144	85,194	0	1016,84	6,8	8,9	8,7	1	1	1	1	1	1	1	1	1	0	1	-8,45666	274,077591	311,489702	0
15.01.2021	20:41:29	0	0	3,95432	2,07825	306,4464	0,146	85,2	0	1016,82	6,8	8,9	8,7	1	1	1	1	1	1	1	1	1	0	1	-11,346018	274,132823	308,858319	0
15.01.2021	20:41:30	0	0	4,632203	2,00775	317,0016	0,144	85,201	0	1017,04	6,8	9	8,7	1	1	1	1	1	1	1	1	1	0	1	-11,627907	274,257298	309,158408	0
15.01.2021	20:41:31	0	0	4,632203	1,95525	323,37	0,142	85,198	0	1017	6,8	8,9	8,7	1	1	1	1	1	1	1	1	1	0	1	-17,406624	274,156756	302,909548	0
15.01.2021	20:41:32	0	0	2,598553	1,863	319,2264	0,138	85,195	0	1017,04	6,8	8,9	8,7	1	1	1	1	1	1	1	1	1	0	1	-6,694856	274,092503	313,321141	0
15.01.2021	20:41:33	0	0	3,502398	1,734	322,632	0,146	85,202	0	1016,92	6,8	8,9	8,7	1	1	1	1	1	1	1	1	1	0	1	-11,134602	274,168733	309,237551	0
15.01.2021	20:41:34	0	0	3,389417	1,61925	322,5168	0,141	85,187	0	1017	6,8	8,9	8,7	1	1	1	1	1	1	1	1	1	0	1	-11,41649	274,083555	308,557717	0
15.01.2021	20:41:35	0	0	3,615378	1,48125	313,5348	0,143	85,194	0	1017,1	6,8	8,8	8,7	1	1	1	1	1	1	1	1	1	0	1	-8,738548	274,135813	311,479759	0
15.01.2021	20:41:36	0	0	5,084125	1,4025	316,6632	0,144	85,211	0	1017,04	6,8	8,8	8,7	1	1	1	1	1	1	1	1	1	0	1	-7,892882	274,213715	312,689574	0
15.01.2021	20:41:37	0	0	2,711517	1,33425	307,7028	0,162	85,223	0	1017,08	6,8	9	8,8	1	1	1	1	1	1	1	1	1	0	1	-9,302326	274,260308	311,498069	0
15.01.2021	20:41:38	0	0	4,745184	1,35375	304,992	0,137	85,206	0	1017,06	6,8	8,9	8,7	1	1	1	1	1	1	1	1	1	0	1	-8,738548	274,186713	311,717655	0
15.01.2021	20:41:39	0	0	4,519223	1,35225	296,8668	0,15	85,218	0	1016,98	6,8	8,9	8,7	1	1	1	1	1	1	1	1	1	0	1	-8,949965	274,258803	311,84339	0
15.01.2021	20:41:40	0	0	5,084125	1,3095	297,9144	0,14	85,202	0	1016,84	6,8	8,9	8,7	1	1	1	1	1	1	1	1	1	0	1	-12,896406	274,15077	307,391792	0
15.01.2021	20:41:41	0	0	4,406242	1,24575	305,4024	0,146	85,203	0	1016,94	6,8	8,9	8,7	1	1	1	1	1	1	1	1	1	0	1	-8,386187	274,261812	312,421248	0
15.01.2021	20:41:42	0	0	4,858164	1,25325	314,7876	0,139	85,194	0	1017,02	6,8	8,9	8,7	1	1	1	1	1	1	1	1	1	0	1	-13,742072	274,134318	306,46925	0
15.01.2021	20:41:43	0	0	2,598553	1,35075	302,4216	0,139	85,203	0	1017	6,8	8,8	8,7	1	1	1	1	1	1	1	1	1	0	1	-6,20155	274,080573	313,758733	0
15.01.2021	20:41:44	0	0	3,841339	1,35	314,8632	0,144	85,214	0	1017,12	6,8	9	8,7	1	1	1	1	1	1	1	1	1	0	1	-7,82241	274,088029	312,172689	0
15.01.2021	20:41:45	0	0	2,485572	1,44225	314,7732	0,14	85,2	0	1017,12	6,8	9	8,7	1	1	1	1	1	1	1	1	1	0	1	-10,288936	274,251281	310,469227	0
15.01.2021	20:41:46	0	0	2,03365	1,446	312,7356	0,146	85,205	0	1017,08	6,8	9	8,7	1	1	1	1	1	1	1	1	1	0	1	-9,795631	274,129833	310,394739	0
15.01.2021	20:41:47	0	0	4,858164	1,39875	302,868	0,139	85,22	0	1016,98	6,8	9	8,7	1	1	1	1	1	1	1	1	1	0	1	-8,315715	274,254289	312,456522	0
15.01.2021	20:41:48	0	0	3,615378	1,3365	311,7708	0,144	85,209	0	1017,08	6,8	9	8,7	1	1	1	1	1	1	1	1	1	0	1	-9,866103	274,180718	310,562073	0
15.01.2021	20:41:49	0	0	3,502398	1,3665	309,8412	0,149	85,204	0	1017	6,8	9	8,7	1	1	1	1	1	1	1	1	1	0	1	-8,386187	274,092503	311,629809	0
15.01.2021	20:41:50	0	0	4,406242	1,42275	312,1992	0,136	85,212	0	1016,98	6,8	8,9	8,7	1	1	1	1	1	1	1	1	1	0	1	-11,275546	274,158252	309,047622	0
15.01.2021	20:41:51	0	0	4,632203	1,42425	312,102	0,143	85,277	0	1016,96	6,8	8,8	8,7	1	1	1	1	1	1	1	1	1	0	1	-11,06413	274,239252	309,637762	0
15.01.2021	20:41:52	0	0	3,728359	1,41	299,772	0,143	85,223	0	1017,04	6,8	8,8	8,7	1	1	1	1	1	1	1	1	1	0	1	-10,359408	274,189712	310,110812	0
15.01.2021	20:41:53	0	0	2,146631	1,38825	302,8248	0,143	85,219	0	1017,06	6,8	9	8,7	1	1	1	1	1	1	1	1	1	0	1	-5,355884	274,07014	314,555684	0
15.01.2021	20:41:54	0	0	4,406242	1,43325	299,0412	0,142	85,208	0	1016,9	6,8	9	8,7	1	1	1	1	1	1	1	1	1	0	1	-6,765328	274,164241	313,585828	0
15.01.2021	20:41:55	0	0	4,406242	1,43475	288,8388	0,137	85,229	0	1017,02	6,8	8,9	8,7	1	1	1	1	1	1	1	1	1	0	1	-11,980268	274,091012	308,028762	0
15.01.2021	20:41:56	0	0	3,615378	1,7325	290,8836	0,149	85,216	0	1017,08	6,8	8,9	8,7	1	1	1	1	1	1	1	1	1	0	1	-11,346018	274,254289	309,426219	0
15.01.2021	20:41:57	0	0	3,502398	1,9515	288,0864	0,141	85,216	0	1017,1	6,8	8,9	8,7	1	1	1	1	1	1	1	1	1	0	1	-7,047216	274,122361	313,108246	0
15.01.2021	20:41:58	0	0	3,163456	2,247	297,63	0,146	85,202	0	1016,96	6,8	8,8	8,7	1	1	1	1	1	1	1	1	1	0	1	-9,654686	274,267833	311,180919	0
15.01.2021	20:41:59	0	0	4,632203	2,34525	291,1464	0,142	85,23	0	1017,1	6,8	9	8,7	1	1	1	1	1	1	1	1	1	0	1	-5,778717	274,188213	314,684494	0
15.01.2021	20:42:00	0	0	3,841339	2,46975	312,1092	0,14	85,229	0	1017,02	6,8	8,8	8,7	1	1	1	1	1	1	1	1	1	0	1	-11,06413	274,242259	309,651826	0
15.01.2021	20:42:01	0	0	4,0673	2,4765	277,5744	0,145	85,227	0	1016,9	6,8	8,9	8,7	1	1	1	1	1	1	1	1	1	0	1	-10,42988	274,113399	309,683715	0
15.01.2021	20:42:02	0	0	4,632203	2,3865	284,094	0,143	85,212	0	1017,08	6,8	9	8,7	1	1	1	1	1	1	1	1	1	0	1	-6,553911	274,260308	314,246483	0
15.01.2021	20:42:03	0	0	4,745184	2,26875	276,7788	0,143	85,211	0	1016,98	6,8	8,8	8,7	1	1	1	1	1	1	1	1	1	0	1	-11,557435	274,129833	308,632935	0
15.01.2021	20:42:04	0	0	4,0673	2,1615	293,3532	0,143	85,215	0	1017,02	6,8	9	8,7	1	1	1	1	1	1	1	1	1	0	1	-10,147992	274,08952	309,854073	0
15.01.2021	20:42:05	0	0	3,502398	2,26725	283,5936	0,144	85,204	0	1016,96	6,8	8,9	8,7	1	1	1	1	1	1	1	1	1	0	1	-12,262156	274,146281	308,005067	0
15.01.2021	20:42:06	0	0	3,95432	2,33775	288,4284	0,146	85,214	0	1017,24	6,8	8,8	8,7	1	1	1	1	1	1	1	1	1	0	1	-8,668076	274,242259	312,047879	0
15.01.2021	20:42:07	0	0	2,711534	2,24625	277,5924	0,142	85,208	0	1016,94	6,8	9	8,7	1	1	1	1	1	1	1	1	1	0	1	-8,245243	274,189712	312,224977	0
15.01.2021	20:42:08	0	0	3,050475	2,20725	296,0352	0,145	85,227	0	1017,14	6,8	9	8,7	1	1	1	1	1	1	1	1	1	0	1	-11,134602	274,076101	308,8048	0
15.01.2021	20:42:09	0	0	4,632203	2,17125	285,4116	0,134	85,206	0	1016,82	6,8	8,8	8,7	1	1	1	1	1	1	1	1	1	0	1	-13,03735	274,219721	307,573191	0
15.01.2021	20:42:10	0	0	2,824514	2,24925	292,284	0,147	85,207	0	1017,06	6,8	9	8,7	1	1	1	1	1	1	1	1	1	0	1	-7,258633	274,252785	313,506567	0
15.01.2021	20:42:11	0	0	5,310087	2,38275	305,5284	0,143	85,198	0	1017,04	6,8	8,8	8,7	1	1	1	1	1	1	1	1	1	0	1	-6,272023	274,159749	314,058141	0
15.01.2021	20:42:12	0	0	4,745184	2,3715	284,4396	0,135	85,2	0	1016,92	6,8	8,8	8,7	1	1	1	1	1	1	1	1	1	0	1	-10,570825	274,086537	309,41731	0
15.01.2021	20:42:13	0	0	2,824514	2,19675	305,3952	0,143	85,186	0	1016,94	6,8	9	8,7	1	1	1	1	1	1	1	1	1	0	1	-12,121212	274,141794	308,125044	0
15.01.2021	20:42:14	0	0	4,632203	2,115	302,7888	0,144	85,199	0	1017	6,8	9	8,7	1	1	1	1	1	1	1	1	1	0	1	-14,799154	274,255794	305,980122	0
15.01.2021	20:42:15	0	0	4,180281	2,1	321,0876	0,142	85,213	0	1017,08	6,8	8,8	8,7	1	1	1	1	1	1	1	1	1	0	1	-16,208598	274,221223	304,408967	0
15.01.2021	20:42:16	0	0	4,858164	1,9155	318,4632	0,144	85,199	0	1017	6,8	8,9	8,7	1	1	1	1	1	1	1	1	1	0	1	-6,765328	274,086537	313,222807	0
15.01.2021	20:42:17	0	0	2,372592	1,66575	319,1976	0,142	85,202	0	1017	6,8	8,9	8,7	1	1	1	1	1	1	1	1	1	0	1	-8,949965	274,188213	311,513247	0
15.01.2021	20:42:18	0	0	2,711534	1,52325	318,4092	0,141	85,194	0	1017	6,8	8,8	8,7	1	1	1	1	1	1	1	1	1	0	1	-11,134602	274,108919	308,958069	0
15.01.2021	20:42:19	0	0	3,389417	1,64325	323,7372	0,148	85,212	0	1017,12	6,8	8,8	8,7	1	1	1	1	1	1	1	1	1	0	1	-5,778717	274,258803	315,014637	0
15.01.2021	20:42:20	0	0	2,485572	1,87875	313,9344	0,141	85,203	0	1017,08	6,8	9	8,7	1	1	1	1	1	1	1	1	1	0	1	-5,355884	274,140298	314,883383	0
15.01.2021	20:42:21	0	0	4,745184	2,0805	315,2268	0,145	85,216	0	1017,04	6,8	9	8,7	1	1	1	1	1	1	1	1	1	0	1	-6,976744	274,263317	313,837733	0
15.01.2021	20:42:22	0	0	5,197106	2,205	302,3856	0,144	85,198	0	1017,12	6,8	8,8	8,7	1	1	1	1	1	1	1	1	1	0	1	-10,570825	274,20021	309,948478	0
15.01.2021	20:42:23	0	0	2,598553	2,25	298,6344	0,142	85,203	0	1017,12	6,8	8,8	8,7	1	1	1	1	1	1	1	1	1	0	1	-7,470049	274,082064	312,497196	0
15.01.2021	20:42:24	0	0	2,711534	2,3535	299,7864	0,142	85,204	0	1016,96	6,8	8,9	8,7	1	1	1	1	1	1	1	1	1	0	1	-7,963354	274,146281	312,303869	0
15.01.2021	20:42:25	0	0	5,310087	2,3535	292,9788	0,143	85,197	0	1017,04	6,8	8,8	8,7	1	1	1	1	1	1	1	1	1	0	1	-8,45666	274,076101	311,482742	0
15.01.2021	20:42:26	0	0	4,067276	2,2245	288,7524	0,145	85,206	0	1016,96	6,8	8,8	8,8	1	1	1	1	1	1	1	1	1	0	1	-10,641297	274,219721	309,969245	0
15.01.2021	20:42:27	0	0	4,745184	2,0415	294,39	0,143	85,191	0	1016,94	6,8	9	8,7	1	1	1	1	1	1	1	1	1	0	1	-12,544045	274,221223	308,073519	0
15.01.2021	20:42:28	0	0	2,824514	2,007	299,4372	0,139	85,214	0	1017,02	6,8	8,9	8,7	1	1	1	1	1	1	1	1	1	0	1	-12,403101	274,249777	308,348026	0
15.01.2021	20:42:29	0	0	4,293261	1,96575	304,2144	0,145	85,199	0	1016,9	6,8	8,8	8,7	1	1	1	1	1	1	1	1	1	0	1	-6,8358	274,248273	313,908291	0
15.01.2021	20:42:30	0	0	3,276436	1,95225	292,212	0,144	85,193	0	1017	6,8	8,8	8,7	1	1	1	1	1	1	1	1	1	0	1	-13,883016	274,085046	306,098155	0
15.01.2021	20:42:31	0	0	2,711534	2,0295	276,8148	0,134	85,188	0	1016,9	6,8	8,8	8,7	1	1	1	1	1	1	1	1	1	0	1	-6,272023	274,135813	313,946285	0
15.01.2021	20:42:32	0	0	4,0673	2,0595	277,1388	0,142	85,2	0	1017,06	6,8	9	8,7	1	1	1	1	1	1	1	1	1	0	1	-7,258633	274,098471	312,785236	0
15.01.2021	20:42:33	0	0	3,276436	2,073	273,6288	0,146	85,186	0	1016,98	6,8	9	8,7	1	1	1	1	1	1	1	1	1	0	1	-11,134602	274,099963	308,916237	0
15.01.2021	20:42:34	0	0	2,824514	2,08875	276,8652	0,145	85,189	0	1017	6,8	8,8	8,7	1	1	1	1	1	1	1	1	1	0	1	-6,131078	274,260308	314,669316	0
15.01.2021	20:42:35	0	0	2,937495	2,0145	286,9668	0,142	85,177	0	1017,12	6,8	8,9	8,7	1	1	1	1	1	1	1	1	1	0	1	-10,007047	274,159749	310,323116	0
15.01.2021	20:42:36	0	0	4,519223	1,8975	272,4912	0,138	85,177	0	1017,04	6,8	8,8	8,7	1	1	1	1	1	1	1	1	1	0	1	-11,346018	274,07163	308,572507	0
15.01.2021	20:42:37	0	0	2,598553	1,81725	272,8116	0,143	85,183	0	1017	6,8	9	8,7	1	1	1	1	1	1	1	1	1	0	1	-8,174771	274,083555	311,799437	0
15.01.2021	20:42:38	0	0	4,519223	1,91475	275,346	0,132	85,178	0	1017,08	6,8	8,8	8,7	1	1	1	1	1	1	1	1	1	0	1	-6,976744	274,108919	313,115926	0
15.01.2021	20:42:39	0	0	3,163456	2,09775	284,0652	0,139	85,173	0	1017,12	6,8	8,9	8,7	1	1	1	1	1	1	1	1	1	0	1	-7,610994	274,251281	313,147169	0
15.01.2021	20:42:40	0	0	4,180281	2,14125	280,2924	0,133	85,173	0	1016,98	6,8	9	8,7	1	1	1	1	1	1	1	1	1	0	1	-8,386187	274,267833	312,449418	0
15.01.2021	20:42:41	0	0	2,485572	2,22525	283,1904	0,14	85,169	0	1016,9	6,8	8,9	8,7	1	1	1	1	1	1	1	1	1	0	1	-10,500352	274,210713	310,068065	0
15.01.2021	20:42:42	0	0	4,180281	2,28075	294,0588	0,138	85,163	0	1017,16	6,8	9	8,7	1	1	1	1	1	1	1	1	1	0	1	-10,852713	274,20171	309,673604	0
15.01.2021	20:42:43	0	0	4,632203	2,33925	297,9252	0,142	85,184	0	1016,96	6,8	8,8	8,7	1	1	1	1	1	1	1	1	1	0	1	-8,879493	274,23324	311,794279	0
15.01.2021	20:42:44	0	0	3,050457	2,3325	285,552	0,136	85,183	0	1016,96	6,8	8,9	8,8	1	1	1	1	1	1	1	1	1	0	1	-9,231853	274,101456	310,825955	0
15.01.2021	20:42:45	0	0	2,598553	2,44725	287,7012	0,138	85,175	0	1016,96	6,8	8,9	8,7	1	1	1	1	1	1	1	1	1	0	1	-9,161381	274,114893	310,95919	0
15.01.2021	20:42:46	0	0	4,632203	2,50725	291,87	0,138	85,168	0	1017,08	6,8	8,8	8,7	1	1	1	1	1	1	1	1	1	0	1	-10,288936	274,111906	309,817684	0
15.01.2021	20:42:47	0	0	3,615378	2,508	307,332	0,148	85,18	0	1017	6,8	8,9	8,7	1	1	1	1	1	1	1	1	1	0	1	-8,386187	274,093995	311,636776	0
15.01.2021	20:42:48	0	0	4,745184	2,49225	305,3592	0,14	85,164	0	1017,12	6,8	9	8,7	1	1	1	1	1	1	1	1	1	0	1	-10,42988	274,177721	309,984286	0
15.01.2021	20:42:49	0	0	4,406242	2,5485	295,578	0,135	85,166	0	1016,92	6,8	8,8	8,7	1	1	1	1	1	1	1	1	1	0	1	-6,342495	274,258803	314,45086	0
15.01.2021	20:42:50	0	0	2,598553	2,4975	304,5636	0,141	85,174	0	1016,96	6,8	8,8	8,7	1	1	1	1	1	1	1	1	1	0	1	-6,412967	274,192711	314,071274	0
15.01.2021	20:42:51	0	0	4,745184	2,33925	298,9764	0,14	85,18	0	1017	6,8	8,8	8,7	1	1	1	1	1	1	1	1	1	0	1	-7,188161	274,260308	313,612234	0
15.01.2021	20:42:52	0	0	4,858164	2,5065	296,064	0,143	85,167	0	1016,98	6,8	8,9	8,7	1	1	1	1	1	1	1	1	1	0	1	-8,245243	274,119373	311,896261	0
15.01.2021	20:42:53	0	0	3,728359	2,80125	296,4852	0,136	85,171	0	1016,98	6,8	8,9	8,7	1	1	1	1	1	1	1	1	1	0	1	-11,768851	274,231738	308,897892	0
15.01.2021	20:42:54	0	0	3,728359	2,86275	299,664	0,141	85,205	0	1016,9	6,8	9	8,7	1	1	1	1	1	1	1	1	1	0	1	-10,923185	274,252785	309,842015	0
15.01.2021	20:42:55	0	0	3,728359	2,8995	301,1976	0,14	85,171	0	1016,92	6,8	9	8,7	1	1	1	1	1	1	1	1	1	0	1	-7,751938	274,088029	312,243161	0
15.01.2021	20:42:56	0	0	5,310087	2,889	309,438	0,143	85,181	0	1016,92	6,8	8,8	8,7	1	1	1	1	1	1	1	1	1	0	1	-8,45666	274,192711	312,027581	0
15.01.2021	20:42:57	0	0	3,050475	2,95425	299,43	0,14	85,174	0	1016,98	6,8	8,8	8,7	1	1	1	1	1	1	1	1	1	0	1	-7,963354	274,258803	312,83	0
15.01.2021	20:42:58	0	0	2,598553	2,9475	307,1304	0,137	85,17	0	1016,98	6,8	9	8,7	1	1	1	1	1	1	1	1	1	0	1	-8,668076	274,14329	311,585168	0
15.01.2021	20:42:59	0	0	3,728359	3,02475	301,2516	0,146	85,186	0	1017,16	6,8	8,8	8,7	1	1	1	1	1	1	1	1	1	0	1	-9,795631	274,246769	310,941426	0
15.01.2021	20:43:00	0	0	3,841339	3,024	311,706	0,133	85,165	0	1016,92	6,8	8,8	8,7	1	1	1	1	1	1	1	1	1	0	1	-6,131078	274,144785	314,129156	0
15.01.2021	20:43:01	0	0	4,632203	2,949	302,3172	0,137	85,169	0	1017,12	6,8	9	8,7	1	1	1	1	1	1	1	1	1	0	1	-14,164905	274,261812	306,642531	0
15.01.2021	20:43:02	0	0	3,841339	3,0915	303,5484	0,136	85,17	0	1016,96	6,8	8,9	8,7	1	1	1	1	1	1	1	1	1	0	1	-10,500352	274,216718	310,096145	0
15.01.2021	20:43:03	0	0	2,937495	3,378	307,2276	0,137	85,188	0	1016,92	6,8	8,8	8,7	1	1	1	1	1	1	1	1	1	0	1	-3,171247	274,07014	316,740321	0
15.01.2021	20:43:04	0	0	3,163456	3,35925	304,2828	0,149	85,179	0	1017	6,8	9	8,7	1	1	1	1	1	1	1	1	1	0	1	-10,147992	274,128339	310,035396	0
15.01.2021	20:43:05	0	0	3,276436	3,14025	309,978	0,138	85,185	0	1017,12	6,8	8,8	8,7	1	1	1	1	1	1	1	1	1	0	1	-12,191684	274,206211	308,35568	0
15.01.2021	20:43:06	0	0	3,95432	2,9085	285,1848	0,139	85,189	0	1017,06	6,8	8,8	8,7	1	1	1	1	1	1	1	1	1	0	1	-6,694856	274,254289	314,077382	0
15.01.2021	20:43:07	0	0	3,050475	2,832	291,8376	0,139	85,193	0	1017	6,8	8,8	8,7	1	1	1	1	1	1	1	1	1	0	1	-10,500352	274,159749	309,829811	0
15.01.2021	20:43:08	0	0	2,598553	2,73225	298,6344	0,139	85,18	0	1017	6,8	9	8,7	1	1	1	1	1	1	1	1	1	0	1	-10,359408	274,082064	309,607837	0
15.01.2021	20:43:09	0	0	3,389417	2,7375	290,7396	0,137	85,182	0	1017,02	6,8	9	8,7	1	1	1	1	1	1	1	1	1	0	1	-10,993658	274,116386	309,133891	0
15.01.2021	20:43:10	0	0	4,519223	2,68425	286,29	0,143	85,182	0	1016,86	6,8	8,9	8,7	1	1	1	1	1	1	1	1	1	0	1	-11,346018	274,252785	309,419182	0
15.01.2021	20:43:11	0	0	4,632203	2,51775	291,4812	0,135	85,182	0	1016,92	6,8	8,8	8,7	1	1	1	1	1	1	1	1	1	0	1	-8,104299	274,11788	312,030227	0
15.01.2021	20:43:12	0	0	4,180281	2,42025	290,754	0,134	85,183	0	1016,92	6,8	9	8,7	1	1	1	1	1	1	1	1	1	0	1	-7,047216	274,091012	312,961814	0
15.01.2021	20:43:13	0	0	4,745184	2,3475	280,404	0,144	85,18	0	1016,96	6,8	9	8,7	1	1	1	1	1	1	1	1	1	0	1	-10,782241	274,254289	309,989997	0
15.01.2021	20:43:14	0	0	2,598553	2,3175	296,1576	0,139	85,188	0	1016,72	6,8	8,8	8,7	1	1	1	1	1	1	1	1	1	0	1	-15,292459	274,159749	305,037704	0
15.01.2021	20:43:15	0	0	2,598553	2,2635	282,1356	0,139	85,189	0	1017,02	6,8	8,8	8,7	1	1	1	1	1	1	1	1	1	0	1	-11,839323	274,251281	308,91884	0
15.01.2021	20:43:16	0	0	4,519223	2,18325	292,6512	0,141	85,192	0	1017	6,8	9	8,7	1	1	1	1	1	1	1	1	1	0	1	-10,359408	274,170231	310,019745	0
15.01.2021	20:43:17	0	0	4,293261	2,08125	301,6296	0,144	85,191	0	1017,02	6,8	8,8	8,7	1	1	1	1	1	1	1	1	1	0	1	-10,42988	274,086537	309,558254	0
15.01.2021	20:43:18	0	0	3,389417	2,0055	300,492	0,14	85,169	0	1016,96	6,8	8,8	8,7	1	1	1	1	1	1	1	1	1	0	1	-7,892882	274,19721	312,612394	0
15.01.2021	20:43:19	0	0	4,745184	1,90875	306,1908	0,137	85,175	0	1017,06	6,8	8,8	8,7	1	1	1	1	1	1	1	1	1	0	1	-8,668076	274,255794	312,1112	0
15.01.2021	20:43:20	0	0	2,711534	1,85325	304,218	0,134	85,198	0	1016,92	6,8	9	8,7	1	1	1	1	1	1	1	1	1	0	1	-10,500352	274,135813	309,717955	0
15.01.2021	20:43:21	0	0	4,293261	1,815	289,584	0,144	85,196	0	1017,02	6,8	8,8	8,7	1	1	1	1	1	1	1	1	1	0	1	-8,104299	274,240755	312,604625	0
15.01.2021	20:43:22	0	0	2,711534	1,84875	285,5232	0,141	85,19	0	1017,16	6,8	8,8	8,7	1	1	1	1	1	1	1	1	1	0	1	-4,792107	274,185214	315,657088	0
15.01.2021	20:43:23	0	0	3,728359	2,0655	280,6236	0,132	85,203	0	1016,98	6,8	9	8,7	1	1	1	1	1	1	1	1	1	0	1	-7,751938	274,252785	313,013262	0
15.01.2021	20:43:24	0	0	3,276436	2,3355	278,3916	0,143	85,195	0	1016,88	6,8	8,8	8,7	1	1	1	1	1	1	1	1	1	0	1	-8,80902	274,260308	311,991374	0
15.01.2021	20:43:25	0	0	3,502398	2,26425	282,8664	0,138	85,195	0	1016,88	6,8	8,8	8,7	1	1	1	1	1	1	1	1	1	0	1	-10,288936	274,204711	310,251412	0
15.01.2021	20:43:26	0	0	2,485572	2,22975	282,4956	0,136	85,202	0	1017	6,8	8,8	8,7	1	1	1	1	1	1	1	1	1	0	1	-7,892882	274,243762	312,830106	0
15.01.2021	20:43:27	0	0	3,050475	2,211	286,614	0,138	85,197	0	1017,04	6,8	8,8	8,7	1	1	1	1	1	1	1	1	1	0	1	-11,205074	274,122361	308,950389	0
15.01.2021	20:43:28	0	0	3,728359	2,2995	310,698	0,133	85,198	0	1016,8	6,8	9	8,7	1	1	1	1	1	1	1	1	1	0	1	-9,795631	274,083555	310,178577	0
15.01.2021	20:43:29	0	0	4,406242	2,295	302,4936	0,131	85,18	0	1016,88	6,8	9	8,7	1	1	1	1	1	1	1	1	1	0	1	-8,104299	274,146281	312,162925	0
15.01.2021	20:43:30	0	0	3,276436	2,37975	302,454	0,137	85,198	0	1017,08	6,8	8,8	8,7	1	1	1	1	1	1	1	1	1	0	1	-10,500352	274,246769	310,236704	0
15.01.2021	20:43:31	0	0	2,146631	2,5455	292,8924	0,133	85,196	0	1016,88	6,8	8,8	8,7	1	1	1	1	1	1	1	1	1	0	1	-9,302326	274,158252	311,020842	0
15.01.2021	20:43:32	0	0	4,632203	2,724	305,7588	0,131	85,194	0	1016,92	6,8	8,9	8,7	1	1	1	1	1	1	1	1	1	0	1	-11,275546	274,251281	309,482617	0
15.01.2021	20:43:33	0	0	2,485572	2,853	303,2136	0,137	85,208	0	1016,98	6,8	9	8,7	1	1	1	1	1	1	1	1	1	0	1	-5,567301	274,207712	314,98708	0
15.01.2021	20:43:34	0	0	2,824514	2,913	303,4872	0,139	85,191	0	1016,98	6,8	9	8,7	1	1	1	1	1	1	1	1	1	0	1	-7,610994	274,102948	312,453786	0
15.01.2021	20:43:35	0	0	5,084125	2,9175	297,2628	0,137	85,199	0	1016,88	6,8	8,8	8,7	1	1	1	1	1	1	1	1	1	0	1	-6,624383	274,257298	314,161931	0
15.01.2021	20:43:36	0	0	4,293236	2,83725	308,4696	0,133	85,19	0	1017,18	6,8	8,8	8,8	1	1	1	1	1	1	1	1	1	0	1	-10,42988	274,132823	309,774457	0
15.01.2021	20:43:37	0	0	4,0673	2,7075	293,7816	0,139	85,192	0	1017,14	6,8	8,8	8,7	1	1	1	1	1	1	1	1	1	0	1	-11,486963	274,258803	309,306392	0
15.01.2021	20:43:38	0	0	4,293261	2,7045	300,4128	0,131	85,196	0	1017,08	6,8	8,8	8,7	1	1	1	1	1	1	1	1	1	0	1	-12,896406	274,132823	307,307932	0
15.01.2021	20:43:39	0	0	4,971145	2,79225	309,5388	0,134	85,173	0	1017,18	6,8	8,8	8,7	1	1	1	1	1	1	1	1	1	0	1	-5,355884	274,251281	315,402279	0
15.01.2021	20:43:40	0	0	4,632203	2,8635	303,5232	0,129	85,196	0	1016,88	6,8	9	8,7	1	1	1	1	1	1	1	1	1	0	1	-9,795631	274,266328	311,032932	0
15.01.2021	20:43:41	0	0	5,310087	2,889	307,5444	0,134	85,193	0	1016,98	6,8	8,8	8,7	1	1	1	1	1	1	1	1	1	0	1	-13,03735	274,159749	307,292813	0
15.01.2021	20:43:42	0	0	4,0673	2,898	303,1344	0,134	85,196	0	1017,1	6,8	8,8	8,7	1	1	1	1	1	1	1	1	1	0	1	-5,426357	274,083555	314,547851	0
15.01.2021	20:43:43	0	0	5,084125	3,15675	308,79	0,136	85,191	0	1016,96	6,8	8,9	8,7	1	1	1	1	1	1	1	1	1	0	1	-10,923185	274,120867	309,225298	0
15.01.2021	20:43:44	0	0	2,485572	3,28875	307,1808	0,133	85,193	0	1016,88	6,8	9	8,7	1	1	1	1	1	1	1	1	1	0	1	-9,654686	274,076101	310,284715	0
15.01.2021	20:43:45	0	0	3,841339	3,207	307,566	0,136	85,191	0	1017	6,8	8,8	8,7	1	1	1	1	1	1	1	1	1	0	1	-12,121212	274,207712	308,433169	0
15.01.2021	20:43:46	0	0	4,180281	3,02925	315,936	0,141	85,191	0	1017,12	6,8	8,8	8,7	1	1	1	1	1	1	1	1	1	0	1	-9,654686	274,076101	310,284715	0
15.01.2021	20:43:47	0	0	4,180281	2,9625	314,046	0,139	85,182	0	1017,08	6,8	8,8	8,7	1	1	1	1	1	1	1	1	1	0	1	-7,751938	274,119373	312,389566	0
15.01.2021	20:43:48	0	0	3,841339	2,95425	309,186	0,139	85,192	0	1017,06	6,8	8,8	8,7	1	1	1	1	1	1	1	1	1	0	1	-7,963354	274,092503	312,052642	0
15.01.2021	20:43:49	0	0	3,050475	3,186	312,894	0,136	85,187	0	1017,02	6,8	9	8,7	1	1	1	1	1	1	1	1	1	0	1	-10,923185	274,252785	309,842015	0
15.01.2021	20:43:50	0	0	2,824514	3,19425	314,0064	0,135	85,171	0	1016,92	6,8	8,8	8,7	1	1	1	1	1	1	1	1	1	0	1	-9,090909	274,126844	311,085496	0
15.01.2021	20:43:51	0	0	4,519223	3,084	309,456	0,135	85,17	0	1017,06	6,8	9	8,7	1	1	1	1	1	1	1	1	1	0	1	-9,020437	274,076101	310,918965	0
15.01.2021	20:43:52	0	0	5,084125	2,91225	322,5924	0,133	85,181	0	1016,8	6,8	8,8	8,7	1	1	1	1	1	1	1	1	1	0	1	-7,540521	274,147777	312,733693	0
15.01.2021	20:43:53	0	0	4,745184	2,598	320,0076	0,134	85,179	0	1017,08	6,8	8,8	8,7	1	1	1	1	1	1	1	1	1	0	1	-6,20155	274,236246	314,48628	0
15.01.2021	20:43:54	0	0	3,728359	2,51775	324,3168	0,137	85,183	0	1017	6,8	9	8,7	1	1	1	1	1	1	1	1	1	0	1	-7,610994	274,15077	312,677204	0
15.01.2021	20:43:55	0	0	3,728359	2,6115	324,0864	0,137	85,191	0	1016,86	6,8	8,8	8,7	1	1	1	1	1	1	1	1	1	0	1	-6,412967	274,082064	313,554278	0
15.01.2021	20:43:56	0	0	4,406242	2,64675	318,7908	0,138	85,18	0	1016,92	6,8	8,8	8,7	1	1	1	1	1	1	1	1	1	0	1	-6,342495	274,20171	314,183822	0
15.01.2021	20:43:57	0	0	3,728359	2,55	309,8952	0,132	85,168	0	1016,98	6,8	9	8,7	1	1	1	1	1	1	1	1	1	0	1	-8,315715	274,216718	312,280782	0
15.01.2021	20:43:58	0	0	4,293261	2,59725	315,2196	0,132	85,186	0	1016,92	6,8	8,8	8,7	1	1	1	1	1	1	1	1	1	0	1	-10,711769	274,254289	310,060469	0
15.01.2021	20:43:59	0	0	2,598553	2,53125	315,864	0,135	85,184	0	1017	6,8	8,8	8,7	1	1	1	1	1	1	1	1	1	0	1	-9,654686	274,153762	310,647497	0
15.01.2021	20:44:00	0	0	4,519223	2,541	304,632	0,132	85,186	0	1016,96	6,8	8,8	8,7	1	1	1	1	1	1	1	1	1	0	1	-8,245243	274,248273	312,498848	0
15.01.2021	20:44:01	0	0	2,598553	2,5095	295,5888	0,131	85,176	0	1017,06	6,8	9	8,7	1	1	1	1	1	1	1	1	1	0	1	-4,22833	274,120867	315,920153	0
15.01.2021	20:44:02	0	0	3,728359	2,4945	305,3232	0,134	85,193	0	1017,06	6,8	9	8,7	1	1	1	1	1	1	1	1	1	0	1	-8,738548	274,249777	312,012579	0
15.01.2021	20:44:03	0	0	3,276436	2,4855	296,7156	0,134	85,186	0	1016,86	6,8	9	8,7	1	1	1	1	1	1	1	1	1	0	1	-7,188161	274,177721	313,226005	0
15.01.2021	20:44:04	0	0	4,632203	2,5155	299,7504	0,135	85,186	0	1016,98	6,8	8,8	8,7	1	1	1	1	1	1	1	1	1	0	1	-7,963354	274,240755	312,745569	0
15.01.2021	20:44:05	0	0	2,711534	2,61225	299,268	0,129	85,17	0	1016,9	6,8	8,8	8,7	1	1	1	1	1	1	1	1	1	0	1	-10,711769	274,176223	309,695393	0
15.01.2021	20:44:06	0	0	2,824514	2,6175	300,186	0,133	85,178	0	1016,92	6,8	9	8,7	1	1	1	1	1	1	1	1	1	0	1	-4,933051	274,058223	314,922882	0
15.01.2021	20:44:07	0	0	4,519223	2,5815	294,138	0,13	85,208	0	1017,02	6,8	8,8	8,7	1	1	1	1	1	1	1	1	1	0	1	-7,82241	274,20321	312,710922	0
15.01.2021	20:44:08	0	0	2,598553	2,562	292,9068	0,135	85,19	0	1017,12	6,8	9	8,7	1	1	1	1	1	1	1	1	1	0	1	-8,104299	274,086537	311,883836	0
15.01.2021	20:44:09	0	0	4,971145	2,47725	289,5876	0,134	85,194	0	1016,96	6,8	8,8	8,7	1	1	1	1	1	1	1	1	1	0	1	-8,527132	274,08952	311,474933	0
15.01.2021	20:44:10	0	0	2,937495	2,367	294,4008	0,134	85,197	0	1016,96	6,8	8,8	8,7	1	1	1	1	1	1	1	1	1	0	1	-8,245243	274,19721	312,260033	0
15.01.2021	20:44:11	0	0	4,519223	2,28525	300,456	0,137	85,193	0	1016,82	6,8	8,8	8,7	1	1	1	1	1	1	1	1	1	0	1	-5,778717	274,245266	314,951305	0
15.01.2021	20:44:12	0	0	4,632203	2,23125	301,2012	0,136	85,191	0	1016,98	6,8	8,8	8,7	1	1	1	1	1	1	1	1	1	0	1	-16,490486	274,134318	303,720836	0
15.01.2021	20:44:13	0	0	2,711534	2,18475	300,4596	0,135	85,198	0	1017,08	6,8	8,8	8,7	1	1	1	1	1	1	1	1	1	0	1	-7,470049	274,098471	312,573819	0
15.01.2021	20:44:14	0	0	3,95432	2,16	302,4612	0,131	85,204	0	1017,02	6,8	8,8	8,7	1	1	1	1	1	1	1	1	1	0	1	-7,188161	274,122361	312,967302	0
15.01.2021	20:44:15	0	0	2,598553	2,18475	302,4756	0,131	85,185	0	1016,96	6,8	8,8	8,7	1	1	1	1	1	1	1	1	1	0	1	-9,795631	274,119373	310,345873	0
15.01.2021	20:44:16	0	0	3,95432	2,211	298,9296	0,134	85,212	0	1016,98	6,8	8,8	8,7	1	1	1	1	1	1	1	1	1	0	1	-8,527132	274,261812	312,280304	0
15.01.2021	20:44:17	0	0	3,95432	2,151	300,8196	0,127	85,206	0	1016,92	6,8	8,8	8,7	1	1	1	1	1	1	1	1	1	0	1	-8,033827	274,216718	312,562671	0
15.01.2021	20:44:18	0	0	2,824514	2,21175	296,478	0,129	85,193	0	1017,04	6,8	9	8,7	1	1	1	1	1	1	1	1	1	0	1	-13,460183	274,093995	306,56278	0
15.01.2021	20:44:19	0	0	4,293261	2,30325	296,8884	0,132	85,201	0	1017,04	6,8	8,8	8,7	1	1	1	1	1	1	1	1	1	0	1	-6,131078	274,086537	313,857056	0
15.01.2021	20:44:20	0	0	3,95432	2,32725	304,6392	0,135	85,206	0	1016,98	6,8	9	8,7	1	1	1	1	1	1	1	1	1	0	1	-12,403101	274,210713	308,165316	0
15.01.2021	20:44:21	0	0	3,050475	2,1825	309,5496	0,133	85,197	0	1017,16	6,8	8,8	8,7	1	1	1	1	1	1	1	1	1	0	1	-9,795631	274,11788	310,338895	0
15.01.2021	20:44:22	0	0	4,519223	2,016	307,5732	0,134	85,206	0	1017,1	6,8	8,8	8,7	1	1	1	1	1	1	1	1	1	0	1	-11,839323	274,252785	308,925877	0
15.01.2021	20:44:23	0	0	2,598553	1,8585	293,8104	0,134	85,212	0	1017,02	6,8	8,8	8,7	1	1	1	1	1	1	1	1	1	0	1	-8,386187	274,134318	311,825135	0
15.01.2021	20:44:24	0	0	4,180281	1,86525	291,2112	0,137	85,201	0	1016,98	6,8	8,8	8,7	1	1	1	1	1	1	1	1	1	0	1	-7,329105	274,095487	312,700826	0
15.01.2021	20:44:25	0	0	4,180281	1,8315	296,1216	0,131	85,207	0	1016,94	6,8	8,8	8,7	1	1	1	1	1	1	1	1	1	0	1	-6,342495	274,107427	313,743202	0
15.01.2021	20:44:26	0	0	5,084125	1,833	275,4108	0,135	85,214	0	1017,06	6,8	9	8,7	1	1	1	1	1	1	1	1	1	0	1	-10,993658	274,266328	309,834905	0
15.01.2021	20:44:27	0	0	2,937495	1,782	285,9408	0,129	85,206	0	1016,92	6,8	8,8	8,7	1	1	1	1	1	1	1	1	1	0	1	-6,8358	274,129833	313,35457	0
15.01.2021	20:44:28	0	0	4,180281	1,67025	299,7936	0,138	85,207	0	1017,08	6,8	9	8,7	1	1	1	1	1	1	1	1	1	0	1	-8,879493	274,245266	311,85053	0
15.01.2021	20:44:29	0	0	3,95432	1,61775	301,302	0,137	85,213	0	1016,94	6,8	9	8,7	1	1	1	1	1	1	1	1	1	0	1	-5,708245	274,210713	314,860172	0
15.01.2021	20:44:30	0	0	4,180281	1,50675	306,0792	0,136	85,201	0	1017,04	6,8	8,8	8,7	1	1	1	1	1	1	1	1	1	0	1	-11,346018	274,116386	308,78153	0
15.01.2021	20:44:31	0	0	4,519223	1,54875	313,578	0,136	85,204	0	1017,16	6,8	9	8,7	1	1	1	1	1	1	1	1	1	0	1	-14,587738	274,07312	305,337746	0
15.01.2021	20:44:32	0	0	2,937495	1,5705	298,7316	0,134	85,2	0	1017,12	6,8	8,8	8,7	1	1	1	1	1	1	1	1	1	0	1	-6,906272	274,105934	313,172452	0
15.01.2021	20:44:33	0	0	4,406242	1,55325	299,3364	0,134	85,195	0	1017,1	6,8	9	8,7	1	1	1	1	1	1	1	1	1	0	1	-6,906272	274,085046	313,074899	0
15.01.2021	20:44:34	0	0	4,180281	1,5	300,186	0,136	85,212	0	1016,96	6,8	8,8	8,7	1	1	1	1	1	1	1	1	1	0	1	-5,778717	274,224226	314,852895	0
15.01.2021	20:44:35	0	0	4,519223	1,46625	296,4888	0,136	85,207	0	1016,88	6,8	9	8,7	1	1	1	1	1	1	1	1	1	0	1	-11,839323	274,239252	308,862568	0
15.01.2021	20:44:36	0	0	2,937495	1,52625	293,6196	0,126	85,198	0	1017,18	6,8	8,8	8,7	1	1	1	1	1	1	1	1	1	0	1	-6,906272	274,096979	313,130628	0
15.01.2021	20:44:37	0	0	4,745184	1,53825	303,516	0,132	85,191	0	1017	6,8	8,8	8,7	1	1	1	1	1	1	1	1	1	0	1	-10,993658	274,213715	309,588798	0
15.01.2021	20:44:38	0	0	3,841339	1,4565	298,2276	0,136	85,187	0	1017	6,8	9	8,7	1	1	1	1	1	1	1	1	1	0	1	-5,355884	274,083555	314,618323	0
15.01.2021	20:44:39	0	0	4,632203	1,42575	300,8412	0,13	85,195	0	1016,9	6,8	9	8,7	1	1	1	1	1	1	1	1	1	0	1	-6,765328	274,224226	313,866284	0
15.01.2021	20:44:40	0	0	4,632203	1,4535	296,4492	0,128	85,185	0	1016,96	6,8	8,8	8,7	1	1	1	1	1	1	1	1	1	0	1	-9,866103	274,114893	310,254469	0
15.01.2021	20:44:41	0	0	3,615378	1,40475	289,5948	0,135	85,18	0	1016,82	6,8	8,8	8,7	1	1	1	1	1	1	1	1	1	0	1	-8,45666	274,266328	312,371903	0
15.01.2021	20:44:42	0	0	2,937495	1,3185	279,1728	0,134	85,191	0	1017,1	6,8	8,8	8,7	1	1	1	1	1	1	1	1	1	0	1	-10,359408	274,177721	310,054758	0
15.01.2021	20:44:43	0	0	3,163456	1,254	283,5936	0,128	85,186	0	1016,98	6,8	8,8	8,7	1	1	1	1	1	1	1	1	1	0	1	-7,540521	274,07163	312,378004	0
15.01.2021	20:44:44	0	0	3,276436	1,242	292,3128	0,133	85,191	0	1016,98	6,8	8,8	8,7	1	1	1	1	1	1	1	1	1	0	1	-10,782241	274,20021	309,737062	0
15.01.2021	20:44:45	0	0	4,293261	1,25175	269,6076	0,13	85,18	0	1016,82	6,8	8,8	8,7	1	1	1	1	1	1	1	1	1	0	1	-10,147992	274,076101	309,79141	0
15.01.2021	20:44:46	0	0	3,502398	1,251	280,404	0,13	85,169	0	1017,04	6,8	8,8	8,7	1	1	1	1	1	1	1	1	1	0	1	-11,980268	274,158252	308,3429	0
15.01.2021	20:44:47	0	0	1,92067	1,26225	280,242	0,128	85,154	0	1017	6,8	8,8	8,7	1	1	1	1	1	1	1	1	1	0	1	-7,540521	274,258803	313,252833	0
15.01.2021	20:44:48	0	0	2,824514	1,25175	264,636	0,132	85,17	0	1017,04	6,8	8,8	8,7	1	1	1	1	1	1	1	1	1	0	1	-8,104299	274,156756	312,211874	0
15.01.2021	20:44:49	0	0	4,406242	1,2465	284,004	0,137	85,18	0	1016,84	6,8	8,8	8,7	1	1	1	1	1	1	1	1	1	0	1	-12,191684	274,252785	308,573516	0
15.01.2021	20:44:50	0	0	5,197106	1,269	279,1548	0,131	85,173	0	1016,92	6,8	8,8	8,7	1	1	1	1	1	1	1	1	1	0	1	-7,963354	274,206211	312,58401	0
15.01.2021	20:44:51	0	0	3,841339	1,338	284,8068	0,135	85,171	0	1017,04	6,8	8,8	8,7	1	1	1	1	1	1	1	1	1	0	1	-8,527132	274,228733	312,125557	0
15.01.2021	20:44:52	0	0	3,502398	1,47075	259,9236	0,131	85,178	0	1016,9	6,8	8,8	8,7	1	1	1	1	1	1	1	1	1	0	1	-12,403101	274,134318	307,808221	0
15.01.2021	20:44:53	0	0	2,485572	1,6065	253,1952	0,132	85,165	0	1016,98	6,8	8,8	8,7	1	1	1	1	1	1	1	1	1	0	1	-6,272023	274,07312	313,653461	0
15.01.2021	20:44:54	0	0	4,745184	1,64625	285,4584	0,133	85,16	0	1016,96	6,8	9	8,7	1	1	1	1	1	1	1	1	1	0	1	-8,879493	274,218219	311,724026	0
15.01.2021	20:44:55	0	0	5,197106	1,60575	280,152	0,128	85,165	0	1016,92	6,8	8,8	8,7	1	1	1	1	1	1	1	1	1	0	1	-9,584214	274,221223	311,03335	0
15.01.2021	20:44:56	0	0	2,485572	1,55925	270,2664	0,13	85,167	0	1016,98	6,8	8,8	8,7	1	1	1	1	1	1	1	1	1	0	1	-9,584214	274,114893	310,536357	0
15.01.2021	20:44:57	0	0	3,050475	1,61625	272,1096	0,132	85,175	0	1016,94	6,8	8,8	8,7	1	1	1	1	1	1	1	1	1	0	1	-8,245243	274,255794	312,534033	0
15.01.2021	20:44:58	0	0	4,632203	1,686	284,8572	0,134	85,161	0	1016,94	6,8	8,8	8,7	1	1	1	1	1	1	1	1	1	0	1	-9,725159	274,20171	310,801158	0
15.01.2021	20:44:59	0	0	2,711534	1,8135	290,1672	0,137	85,18	0	1017	6,8	8,8	8,7	1	1	1	1	1	1	1	1	1	0	1	-9,231853	274,221223	311,385711	0
15.01.2021	20:45:00	0	0	3,163456	1,9785	289,1952	0,129	85,171	0	1017,02	6,8	8,8	8,7	1	1	1	1	1	1	1	1	1	0	1	-9,936575	274,14329	310,31667	0
15.01.2021	20:45:01	0	0	4,406242	2,1585	281,3472	0,127	85,179	0	1016,96	6,8	8,8	8,7	1	1	1	1	1	1	1	1	1	0	1	-9,866103	274,255794	310,913173	0
15.01.2021	20:45:02	0	0	4,519223	2,25825	280,6056	0,128	85,182	0	1017,1	6,8	8,8	8,7	1	1	1	1	1	1	1	1	1	0	1	-8,80902	274,126844	311,367385	0
15.01.2021	20:45:03	0	0	3,615378	2,3205	297,5076	0,127	85,161	0	1016,84	6,8	8,8	8,7	1	1	1	1	1	1	1	1	1	0	1	-8,527132	274,061202	311,342707	0
15.01.2021	20:45:04	0	0	3,050475	2,33775	289,2672	0,128	85,162	0	1017	6,8	8,8	8,7	1	1	1	1	1	1	1	1	1	0	1	-8,80902	274,116386	311,318528	0
15.01.2021	20:45:05	0	0	5,084125	2,376	292,284	0,127	85,165	0	1016,84	6,8	8,8	8,7	1	1	1	1	1	1	1	1	1	0	1	-11,768851	274,239252	308,93304	0
15.01.2021	20:45:06	0	0	3,389417	2,39025	303,8112	0,131	85,183	0	1016,88	6,8	8,8	8,7	1	1	1	1	1	1	1	1	1	0	1	-8,245243	274,204711	312,295105	0
15.01.2021	20:45:07	0	0	2,937495	2,41875	293,3568	0,131	85,184	0	1016,96	6,8	8,8	8,7	1	1	1	1	1	1	1	1	1	0	1	-8,80902	274,062691	311,067771	0
15.01.2021	20:45:08	0	0	4,406242	2,508	302,0328	0,132	85,188	0	1016,96	6,8	8,8	8,7	1	1	1	1	1	1	1	1	1	0	1	-8,315715	274,207712	312,238666	0
15.01.2021	20:45:09	0	0	3,95432	2,52825	288,4176	0,13	85,176	0	1017,18	6,8	8,8	8,7	1	1	1	1	1	1	1	1	1	0	1	-7,399577	274,077591	312,546784	0
15.01.2021	20:45:10	0	0	3,95432	2,547	288,8172	0,13	85,179	0	1017,04	6,8	9	8,7	1	1	1	1	1	1	1	1	1	0	1	-10,288936	274,140298	309,950332	0
15.01.2021	20:45:11	0	0	4,293261	2,43075	288,0756	0,134	85,199	0	1016,96	6,8	8,8	8,7	1	1	1	1	1	1	1	1	1	0	1	-4,510218	274,246769	316,226838	0
15.01.2021	20:45:12	0	0	5,084125	2,517	299,0196	0,132	85,177	0	1016,92	6,8	8,8	8,7	1	1	1	1	1	1	1	1	1	0	1	-9,584214	274,111906	310,522405	0
15.01.2021	20:45:13	0	0	4,519223	2,58375	297,5652	0,134	85,192	0	1016,86	6,8	8,8	8,7	1	1	1	1	1	1	1	1	1	0	1	-6,8358	274,249777	313,915327	0
15.01.2021	20:45:14	0	0	3,276436	2,601	287,8164	0,13	85,206	0	1017,06	6,8	8,8	8,7	1	1	1	1	1	1	1	1	1	0	1	-11,346018	274,114893	308,774553	0
15.01.2021	20:45:15	0	0	2,824514	2,7495	286,9992	0,133	85,195	0	1017,04	6,8	8,8	8,7	1	1	1	1	1	1	1	1	1	0	1	-8,104299	274,104441	311,967453	0
15.01.2021	20:45:16	0	0	4,519223	2,802	297,5292	0,129	85,188	0	1017,2	6,8	8,8	8,7	1	1	1	1	1	1	1	1	1	0	1	-6,20155	274,242259	314,514405	0
15.01.2021	20:45:17	0	0	4,293261	2,85825	301,2804	0,13	85,195	0	1017	6,8	8,8	8,7	1	1	1	1	1	1	1	1	1	0	1	-9,302326	274,188213	311,160886	0
15.01.2021	20:45:18	0	0	2,711534	2,8275	310,9284	0,133	85,171	0	1016,96	6,8	9	8,7	1	1	1	1	1	1	1	1	1	0	1	-7,963354	274,091012	312,045676	0
15.01.2021	20:45:19	0	0	3,163456	2,61375	304,6572	0,134	85,184	0	1016,94	6,8	8,8	8,7	1	1	1	1	1	1	1	1	1	0	1	-9,372798	274,134318	310,838524	0
15.01.2021	20:45:20	0	0	3,728359	2,382	296,838	0,135	85,206	0	1017,06	6,8	9	8,7	1	1	1	1	1	1	1	1	1	0	1	-13,601128	274,07312	306,324356	0
15.01.2021	20:45:21	0	0	4,406242	2,28975	292,6368	0,129	85,188	0	1017,12	6,8	8,8	8,7	1	1	1	1	1	1	1	1	1	0	1	-9,372798	274,131328	310,824556	0
15.01.2021	20:45:22	0	0	4,0673	2,3265	301,3524	0,133	85,195	0	1016,94	6,8	8,8	8,7	1	1	1	1	1	1	1	1	1	0	1	-8,597604	274,079082	311,355718	0
15.01.2021	20:45:23	0	0	2,598553	2,37525	303,4764	0,126	85,188	0	1016,74	6,8	8,8	8,7	1	1	1	1	1	1	1	1	1	0	1	-4,721635	274,204711	315,818713	0
15.01.2021	20:45:24	0	0	4,293261	2,5935	309,5244	0,131	85,198	0	1017,18	6,8	8,8	8,7	1	1	1	1	1	1	1	1	1	0	1	-13,460183	274,213715	307,122273	0
15.01.2021	20:45:25	0	0	4,293261	2,78625	312,4872	0,13	85,202	0	1017,06	6,8	8,8	8,7	1	1	1	1	1	1	1	1	1	0	1	-10,570825	274,07014	309,340744	0
15.01.2021	20:45:26	0	0	4,971145	2,6475	304,6572	0,13	85,203	0	1017,06	6,8	8,8	8,7	1	1	1	1	1	1	1	1	1	0	1	-7,681466	274,114893	312,439106	0
15.01.2021	20:45:27	0	0	4,519223	2,574	307,5588	0,131	85,2	0	1016,92	6,8	8,8	8,7	1	1	1	1	1	1	1	1	1	0	1	-7,188161	274,243762	313,534828	0
15.01.2021	20:45:28	0	0	3,95432	2,4675	291,1572	0,133	85,203	0	1016,94	6,8	8,8	8,7	1	1	1	1	1	1	1	1	1	0	1	-7,892882	274,213715	312,689574	0
15.01.2021	20:45:29	0	0	2,824514	2,41425	320,7852	0,134	85,213	0	1016,86	6,8	8,8	8,7	1	1	1	1	1	1	1	1	1	0	1	-8,80902	274,095487	311,220911	0
15.01.2021	20:45:30	0	0	4,293261	2,43525	298,9908	0,131	85,202	0	1017,04	6,8	8,8	8,7	1	1	1	1	1	1	1	1	1	0	1	-12,05074	274,234743	308,630061	0
15.01.2021	20:45:31	0	0	3,728359	2,37075	291,564	0,13	85,202	0	1016,94	6,8	8,8	8,7	1	1	1	1	1	1	1	1	1	0	1	-8,949965	274,192711	311,534276	0
15.01.2021	20:45:32	0	0	4,745184	2,2635	292,9716	0,139	85,215	0	1017,06	6,8	8,8	8,7	1	1	1	1	1	1	1	1	1	0	1	-11,205074	274,255794	309,574202	0
15.01.2021	20:45:33	0	0	4,632203	2,1495	280,224	0,131	85,212	0	1017,04	6,8	8,8	8,7	1	1	1	1	1	1	1	1	1	0	1	-12,121212	274,180718	308,306964	0
15.01.2021	20:45:34	0	0	2,824514	2,223	278,4384	0,132	85,212	0	1016,98	6,8	8,8	8,7	1	1	1	1	1	1	1	1	1	0	1	-4,721635	274,096979	315,315265	0
15.01.2021	20:45:35	0	0	4,519223	2,628	282,1824	0,129	85,199	0	1017,14	6,8	8,8	8,7	1	1	1	1	1	1	1	1	1	0	1	-13,389711	274,182217	307,04547	0
15.01.2021	20:45:36	0	0	3,502398	2,9055	290,412	0,128	85,212	0	1016,88	6,8	8,8	8,7	1	1	1	1	1	1	1	1	1	0	1	-4,651163	274,07163	315,267363	0
15.01.2021	20:45:37	0	0	3,050475	3,02325	281,376	0,132	85,211	0	1016,98	6,8	8,8	8,7	1	1	1	1	1	1	1	1	1	0	1	-9,372798	274,06865	310,531814	0
15.01.2021	20:45:38	0	0	3,050475	3,0525	277,2396	0,13	85,208	0	1016,98	6,8	8,8	8,7	1	1	1	1	1	1	1	1	1	0	1	-9,513742	274,174725	310,886417	0
15.01.2021	20:45:39	0	0	2,937495	3,051	294,426	0,13	85,212	0	1017,2	6,8	8,8	8,7	1	1	1	1	1	1	1	1	1	0	1	-10,288936	274,06865	309,615676	0
15.01.2021	20:45:40	0	0	2,372592	2,98575	290,8872	0,128	85,206	0	1017,04	6,8	8,8	8,7	1	1	1	1	1	1	1	1	1	0	1	-6,8358	274,088029	313,159299	0
15.01.2021	20:45:41	0	0	3,841339	2,98875	296,118	0,125	85,205	0	1017	6,8	8,8	8,7	1	1	1	1	1	1	1	1	1	0	1	-10,359408	274,20021	310,159895	0
15.01.2021	20:45:42	0	0	4,180281	2,97675	288,1584	0,133	85,199	0	1017,02	6,8	8,8	8,7	1	1	1	1	1	1	1	1	1	0	1	-9,654686	274,231738	311,012057	0
15.01.2021	20:45:43	0	0	3,389417	3,0225	291,1932	0,125	85,208	0	1016,9	6,8	8,8	8,7	1	1	1	1	1	1	1	1	1	0	1	-10,641297	274,221223	309,976268	0
15.01.2021	20:45:44	0	0	4,293261	3,08325	298,674	0,13	85,22	0	1016,96	6,8	8,8	8,7	1	1	1	1	1	1	1	1	1	0	1	-12,825934	274,088029	307,169165	0
15.01.2021	20:45:45	0	0	3,615378	3,006	300,1968	0,129	85,226	0	1016,98	6,8	8,8	8,7	1	1	1	1	1	1	1	1	1	0	1	-9,161381	274,093995	310,861582	0
15.01.2021	20:45:46	0	0	2,711534	2,9565	300,5136	0,133	85,201	0	1017,02	6,8	8,8	8,7	1	1	1	1	1	1	1	1	1	0	1	-10,077519	274,101456	309,980289	0
15.01.2021	20:45:47	0	0	3,95432	2,89875	291,1428	0,133	85,218	0	1017	6,8	8,8	8,7	1	1	1	1	1	1	1	1	1	0	1	-7,117689	274,251281	313,640475	0
15.01.2021	20:45:48	0	0	2,937495	2,94	302,1552	0,129	85,224	0	1017,02	6,8	8,8	8,7	1	1	1	1	1	1	1	1	1	0	1	-13,460183	274,168733	306,91197	0
15.01.2021	20:45:49	0	0	4,632203	2,949	296,1144	0,13	85,215	0	1017,1	6,8	8,8	8,7	1	1	1	1	1	1	1	1	1	0	1	-10,359408	274,251281	310,398755	0
15.01.2021	20:45:50	0	0	2,711534	2,88675	296,7984	0,126	85,209	0	1017,04	6,8	8,8	8,7	1	1	1	1	1	1	1	1	1	0	1	-10,500352	274,17922	309,920818	0
15.01.2021	20:45:51	0	0	2,824514	2,75625	291,24	0,129	85,226	0	1017	6,8	8,8	8,7	1	1	1	1	1	1	1	1	1	0	1	-7,399577	274,242259	313,316378	0
15.01.2021	20:45:52	0	0	4,180281	2,6385	293,2812	0,127	85,205	0	1016,92	6,8	8,8	8,7	1	1	1	1	1	1	1	1	1	0	1	-4,439746	274,111906	315,666873	0
15.01.2021	20:45:53	0	0	4,180281	2,66325	309,2184	0,15	85,232	0	1017,1	6,8	8,8	8,7	1	1	1	1	1	1	1	1	1	0	1	-6,976744	274,20321	313,556588	0
15.01.2021	20:45:54	0	0	4,632203	2,8485	301,1616	0,133	85,22	0	1017,02	6,8	8,8	8,7	1	1	1	1	1	1	1	1	1	0	1	-6,976744	274,07014	312,934824	0
15.01.2021	20:45:55	0	0	4,745184	3,1065	296,8308	0,131	85,205	0	1017,02	6,8	8,8	8,7	1	1	1	1	1	1	1	1	1	0	1	-15,292459	274,19571	305,205804	0
15.01.2021	20:45:56	0	0	4,180281	3,273	296,8344	0,13	85,208	0	1017,06	6,8	8,8	8,7	1	1	1	1	1	1	1	1	1	0	1	-7,681466	274,243762	313,041523	0
15.01.2021	20:45:57	0	0	3,95432	3,3405	299,0448	0,13	85,216	0	1017,14	6,8	8,8	8,7	1	1	1	1	1	1	1	1	1	0	1	-7,610994	274,20021	312,908309	0
15.01.2021	20:45:58	0	0	4,293261	3,39825	295,524	0,13	85,228	0	1017,04	6,8	8,8	8,7	1	1	1	1	1	1	1	1	1	0	1	-12,684989	274,236246	308,002841	0
15.01.2021	20:45:59	0	0	2,711534	3,3825	288,8244	0,129	85,213	0	1017	6,8	8,8	8,7	1	1	1	1	1	1	1	1	1	0	1	-11,346018	274,105934	308,732706	0
15.01.2021	20:46:00	0	0	2,711534	3,5145	295,5204	0,128	85,227	0	1016,94	6,8	8,8	8,7	1	1	1	1	1	1	1	1	1	0	1	-6,131078	274,19871	314,381211	0
15.01.2021	20:46:01	0	0	3,502398	3,5115	293,31	0,131	85,215	0	1017,08	6,8	8,8	8,7	1	1	1	1	1	1	1	1	1	0	1	-6,342495	274,077591	313,603867	0
15.01.2021	20:46:02	0	0	4,519223	3,474	296,3808	0,127	85,206	0	1016,96	6,8	8,8	8,7	1	1	1	1	1	1	1	1	1	0	1	-4,862579	274,183716	315,579609	0
15.01.2021	20:46:03	0	0	3,502398	3,38025	300,1752	0,135	85,222	0	1016,96	6,8	8,8	8,7	1	1	1	1	1	1	1	1	1	0	1	-7,892882	274,254289	312,879355	0
15.01.2021	20:46:04	0	0	4,632203	3,42225	295,6032	0,133	85,223	0	1016,88	6,8	8,8	8,7	1	1	1	1	1	1	1	1	1	0	1	-12,614517	274,149273	307,666689	0
15.01.2021	20:46:05	0	0	4,293261	3,44475	302,7816	0,131	85,229	0	1017,06	6,8	8,8	8,7	1	1	1	1	1	1	1	1	1	0	1	-9,513742	274,06716	310,383914	0
15.01.2021	20:46:06	0	0	3,502398	3,3435	305,784	0,132	85,222	0	1016,96	6,8	8,8	8,7	1	1	1	1	1	1	1	1	1	0	1	-8,527132	274,114893	311,59344	0
15.01.2021	20:46:07	0	0	4,745184	3,32475	317,7108	0,128	85,221	0	1017,06	6,8	8,8	8,7	1	1	1	1	1	1	1	1	1	0	1	-9,795631	274,218219	310,807888	0
15.01.2021	20:46:08	0	0	2,824514	3,1725	319,9392	0,125	85,214	0	1017,08	6,8	8,8	8,7	1	1	1	1	1	1	1	1	1	0	1	-12,614517	274,064181	307,269228	0
15.01.2021	20:46:09	0	0	3,615378	3,0735	309,9312	0,132	85,223	0	1016,98	6,8	9	8,7	1	1	1	1	1	1	1	1	1	0	1	-12,825934	274,123856	307,336509	0
15.01.2021	20:46:10	0	0	4,293261	3,13425	314,4024	0,135	85,229	0	1017,04	6,8	8,8	8,7	1	1	1	1	1	1	1	1	1	0	1	-7,540521	274,255794	313,238754	0
15.01.2021	20:46:11	0	0	2,485572	3,10575	311,6988	0,135	85,21	0	1017,02	6,8	8,8	8,7	1	1	1	1	1	1	1	1	1	0	1	-9,513742	274,168733	310,858411	0
15.01.2021	20:46:12	0	0	3,050475	3,04275	298,6776	0,128	85,225	0	1016,94	6,8	8,8	8,7	1	1	1	1	1	1	1	1	1	0	1	-4,157858	274,062691	315,718934	0
15.01.2021	20:46:13	0	0	3,728359	2,92425	303,552	0,131	85,225	0	1016,98	6,8	8,8	8,7	1	1	1	1	1	1	1	1	1	0	1	-5,637773	274,14329	314,615471	0
15.01.2021	20:46:14	0	0	4,406242	2,8605	312,4764	0,133	85,229	0	1017,2	6,8	8,8	8,7	1	1	1	1	1	1	1	1	1	0	1	-16,208598	274,254289	304,56364	0
15.01.2021	20:46:15	0	0	2,711534	2,75775	290,5452	0,133	85,232	0	1017	6,8	8,8	8,7	1	1	1	1	1	1	1	1	1	0	1	-7,892882	274,149273	312,388324	0
15.01.2021	20:46:16	0	0	3,163456	2,69025	274,6116	0,131	85,234	0	1017,06	6,8	8,8	8,7	1	1	1	1	1	1	1	1	1	0	1	-13,03735	274,082064	306,929895	0
15.01.2021	20:46:17	0	0	3,163456	2,5665	279,9396	0,131	85,233	0	1017,04	6,8	8,8	8,7	1	1	1	1	1	1	1	1	1	0	1	-11,486963	274,116386	308,640586	0
15.01.2021	20:46:18	0	0	4,519223	2,49075	274,662	0,13	85,223	0	1016,88	6,8	8,8	8,7	1	1	1	1	1	1	1	1	1	0	1	-9,725159	274,242259	310,990797	0
15.01.2021	20:46:19	0	0	2,937495	2,385	283,2264	0,132	85,224	0	1017	6,8	8,8	8,7	1	1	1	1	1	1	1	1	1	0	1	-8,386187	274,105934	311,692536	0
15.01.2021	20:46:20	0	0	4,293261	2,2725	276,4908	0,137	85,26	0	1017,36	6,8	8,8	8,7	1	1	1	1	1	1	1	1	1	0	1	-8,80902	274,225728	311,829617	0
15.01.2021	20:46:21	0	0	4,406242	2,1525	284,0904	0,132	85,226	0	1017,1	6,8	8,8	8,7	1	1	1	1	1	1	1	1	1	0	1	-7,963354	274,108919	312,129316	0
15.01.2021	20:46:22	0	0	4,293261	2,07375	282,7512	0,136	85,228	0	1017,12	6,8	8,8	8,7	1	1	1	1	1	1	1	1	1	0	1	-9,090909	274,230235	311,568807	0
15.01.2021	20:46:23	0	0	3,95432	1,94325	288,7956	0,134	85,233	0	1017,02	6,8	8,8	8,7	1	1	1	1	1	1	1	1	1	0	1	-10,218464	274,246769	310,518593	0
15.01.2021	20:46:24	0	0	3,615378	1,854	293,0004	0,13	85,203	0	1016,98	6,8	8,8	8,7	1	1	1	1	1	1	1	1	1	0	1	-13,319239	274,19421	307,172013	0
15.01.2021	20:46:25	0	0	3,841339	1,86075	303,696	0,136	85,224	0	1016,88	6,8	8,8	8,7	1	1	1	1	1	1	1	1	1	0	1	-9,090909	274,242259	311,625047	0
15.01.2021	20:46:26	0	0	3,95432	1,899	292,356	0,135	85,225	0	1017,18	6,8	8,8	8,7	1	1	1	1	1	1	1	1	1	0	1	-5,778717	274,19571	314,719546	0
15.01.2021	20:46:27	0	0	3,841339	1,9995	305,0028	0,135	85,234	0	1017,08	6,8	8,8	8,7	1	1	1	1	1	1	1	1	1	0	1	-5,990134	274,242259	314,725822	0
15.01.2021	20:46:28	0	0	2,824514	1,95225	294,7788	0,133	85,226	0	1017,06	6,8	8,8	8,7	1	1	1	1	1	1	1	1	1	0	1	-5,426357	274,206211	315,121008	0
15.01.2021	20:46:29	0	0	4,632203	1,84425	268,7148	0,135	85,235	0	1016,92	6,8	8,8	8,7	1	1	1	1	1	1	1	1	1	0	1	-8,245243	274,222724	312,379345	0
15.01.2021	20:46:30	0	0	4,293261	1,857	272,4084	0,13	85,222	0	1017,1	6,8	8,8	8,7	1	1	1	1	1	1	1	1	1	0	1	-10,782241	274,135813	309,436067	0
15.01.2021	20:46:31	0	0	2,937495	1,92375	264,6684	0,134	85,227	0	1017,12	6,8	8,8	8,7	1	1	1	1	1	1	1	1	1	0	1	-10,711769	274,252785	310,053431	0
15.01.2021	20:46:32	0	0	3,502398	1,92825	277,1928	0,134	85,227	0	1016,98	6,8	8,8	8,7	1	1	1	1	1	1	1	1	1	0	1	-11,275546	274,092503	308,74045	0
15.01.2021	20:46:33	0	0	4,632203	1,905	295,5672	0,134	85,237	0	1016,9	6,8	8,8	8,7	1	1	1	1	1	1	1	1	1	0	1	-10,500352	274,206211	310,047012	0
15.01.2021	20:46:34	0	0	2,937495	1,8525	287,7624	0,134	85,236	0	1017,22	6,8	8,8	8,7	1	1	1	1	1	1	1	1	1	0	1	-10,007047	274,074611	309,925395	0
15.01.2021	20:46:35	0	0	4,180281	1,779	291,4848	0,131	85,232	0	1017	6,8	8,8	8,7	1	1	1	1	1	1	1	1	1	0	1	-11,275546	274,236246	309,412284	0
15.01.2021	20:46:36	0	0	4,632203	1,671	280,224	0,13	85,219	0	1016,94	6,8	8,8	8,7	1	1	1	1	1	1	1	1	1	0	1	-9,302326	274,228733	311,350364	0
15.01.2021	20:46:37	0	0	4,180281	1,6125	284,4864	0,122	85,207	0	1016,92	6,8	8,8	8,7	1	1	1	1	1	1	1	1	1	0	1	-10,359408	274,210713	310,209009	0
15.01.2021	20:46:38	0	0	3,050475	1,55775	287,0388	0,13	85,238	0	1017,06	6,8	8,8	8,7	1	1	1	1	1	1	1	1	1	0	1	-8,45666	274,249777	312,294467	0
15.01.2021	20:46:39	0	0	4,971145	1,53975	273,564	0,128	85,234	0	1017,14	6,8	8,8	8,7	1	1	1	1	1	1	1	1	1	0	1	-12,614517	274,19871	307,897772	0
15.01.2021	20:46:40	0	0	4,858164	1,62225	263,6316	0,133	85,229	0	1017,08	6,8	8,8	8,7	1	1	1	1	1	1	1	1	1	0	1	-10,077519	274,076101	309,861882	0
15.01.2021	20:46:41	0	0	3,276436	1,7175	273,978	0,135	85,244	0	1016,76	6,8	8,8	8,7	1	1	1	1	1	1	1	1	1	0	1	-9,513742	274,176223	310,89342	0
15.01.2021	20:46:42	0	0	2,711534	1,7205	278,0964	0,122	85,236	0	1016,92	6,8	8,8	8,7	1	1	1	1	1	1	1	1	1	0	1	-8,738548	274,240755	311,970375	0
15.01.2021	20:46:43	0	0	4,745184	1,9305	279,5112	0,127	85,243	0	1016,98	6,8	8,8	8,7	1	1	1	1	1	1	1	1	1	0	1	-8,45666	274,170231	311,922494	0
15.01.2021	20:46:44	0	0	5,084125	2,2425	267,6924	0,132	85,245	0	1017,08	6,8	8,8	8,7	1	1	1	1	1	1	1	1	1	0	1	-7,751938	274,243762	312,971051	0
15.01.2021	20:46:45	0	0	2,598553	2,5455	285,498	0,128	85,237	0	1017,02	6,8	8,8	8,7	1	1	1	1	1	1	1	1	1	0	1	-10,147992	274,129833	310,042378	0
15.01.2021	20:46:46	0	0	4,858164	2,60175	274,3344	0,133	85,258	0	1017,12	6,8	8,8	8,7	1	1	1	1	1	1	1	1	1	0	1	-12,755462	274,242259	307,960494	0
15.01.2021	20:46:47	0	0	3,163456	2,69775	263,4912	0,128	85,235	0	1016,88	6,8	8,8	8,7	1	1	1	1	1	1	1	1	1	0	1	-7,540521	274,14329	312,712723	0
15.01.2021	20:46:48	0	0	2,485572	2,655	273,186	0,126	85,245	0	1016,92	6,8	8,8	8,7	1	1	1	1	1	1	1	1	1	0	1	-6,553911	274,210713	314,014506	0
15.01.2021	20:46:49	0	0	4,632203	2,63025	278,82	0,129	85,256	0	1017	6,8	8,8	8,7	1	1	1	1	1	1	1	1	1	0	1	-7,610994	274,248273	313,133098	0
15.01.2021	20:46:50	0	0	5,084125	2,637	272,52	0,13	85,245	0	1017,08	6,8	8,8	8,7	1	1	1	1	1	1	1	1	1	0	1	-7,540521	274,182217	312,89466	0
15.01.2021	20:46:51	0	0	2,824514	2,6715	280,6632	0,133	85,247	0	1017	6,8	8,8	8,7	1	1	1	1	1	1	1	1	1	0	1	-7,399577	274,07163	312,518949	0
15.01.2021	20:46:52	0	0	2,598553	2,68425	286,9992	0,13	85,255	0	1017,14	6,8	8,8	8,7	1	1	1	1	1	1	1	1	1	0	1	-9,231853	274,225728	311,406784	0
15.01.2021	20:46:53	0	0	4,519223	2,667	293,4576	0,126	85,235	0	1017	6,8	8,8	8,7	1	1	1	1	1	1	1	1	1	0	1	-8,245243	274,092503	311,770753	0
15.01.2021	20:46:54	0	0	2,146631	2,61675	286,668	0,129	85,25	0	1017,02	6,8	8,8	8,7	1	1	1	1	1	1	1	1	1	0	1	-12,896406	274,207712	307,657975	0
15.01.2021	20:46:55	0	0	4,406242	2,5605	295,1676	0,126	85,239	0	1017,16	6,8	8,8	8,7	1	1	1	1	1	1	1	1	1	0	1	-8,80902	274,252785	311,95618	0
15.01.2021	20:46:56	0	0	2,937495	2,628	287,694	0,13	85,247	0	1017,06	6,8	8,8	8,7	1	1	1	1	1	1	1	1	1	0	1	-13,6716	274,189712	306,798621	0
15.01.2021	20:46:57	0	0	2,937495	2,7435	299,0628	0,128	85,263	0	1017,22	6,8	8,8	8,7	1	1	1	1	1	1	1	1	1	0	1	-6,624383	274,264822	314,197136	0
15.01.2021	20:46:58	0	0	4,0673	2,74725	293,3172	0,134	85,256	0	1017,1	6,8	8,8	8,7	1	1	1	1	1	1	1	1	1	0	1	-8,104299	274,135813	312,114009	0
15.01.2021	20:46:59	0	0	3,95432	2,75025	293,3316	0,132	85,256	0	1017,08	6,8	8,8	8,7	1	1	1	1	1	1	1	1	1	0	1	-14,094433	274,251281	306,66373	0
15.01.2021	20:47:00	0	0	3,163456	2,72775	296,55	0,123	85,255	0	1016,96	6,8	8,8	8,7	1	1	1	1	1	1	1	1	1	0	1	-7,751938	274,144785	312,508296	0
15.01.2021	20:47:01	0	0	2,711534	2,682	295,578	0,129	85,268	0	1017,16	6,8	8,8	8,7	1	1	1	1	1	1	1	1	1	0	1	-14,094433	274,237749	306,600428	0
15.01.2021	20:47:02	0	0	4,293261	2,49	285,9012	0,129	85,246	0	1016,96	6,8	8,8	8,7	1	1	1	1	1	1	1	1	1	0	1	-10,782241	274,20321	309,751091	0
15.01.2021	20:47:03	0	0	3,050475	2,45775	296,8416	0,135	85,266	0	1016,9	6,8	8,8	8,7	1	1	1	1	1	1	1	1	1	0	1	-7,117689	274,210713	313,450729	0
15.01.2021	20:47:04	0	0	4,745184	2,3955	299,8512	0,134	85,258	0	1017	6,8	8,8	8,7	1	1	1	1	1	1	1	1	1	0	1	-10,641297	274,212214	309,93414	0
15.01.2021	20:47:05	0	0	3,502398	2,30625	291,114	0,128	85,273	0	1017,16	6,8	8,8	8,7	1	1	1	1	1	1	1	1	1	0	1	-7,258633	274,207712	313,295748	0
15.01.2021	20:47:06	0	0	3,050475	2,1525	303,5016	0,133	85,27	0	1016,82	6,8	8,8	8,7	1	1	1	1	1	1	1	1	1	0	1	-11,557435	274,076101	308,381967	0
15.01.2021	20:47:07	0	0	4,519223	2,0955	286,9812	0,128	85,244	0	1016,98	6,8	8,8	8,7	1	1	1	1	1	1	1	1	1	0	1	-6,20155	274,099963	313,849288	0
15.01.2021	20:47:08	0	0	4,745184	2,13975	290,4264	0,121	85,27	0	1017,06	6,8	8,8	8,7	1	1	1	1	1	1	1	1	1	0	1	-13,530655	274,20321	307,002677	0
15.01.2021	20:47:09	0	0	4,858164	2,20575	278,4492	0,124	85,265	0	1017,06	6,8	8,8	8,7	1	1	1	1	1	1	1	1	1	0	1	-13,953488	274,111906	306,153131	0
15.01.2021	20:47:10	0	0	4,519223	2,33175	274,6368	0,128	85,283	0	1017,02	6,8	8,8	8,7	1	1	1	1	1	1	1	1	1	0	1	-9,161381	274,210713	311,407036	0
15.01.2021	20:47:11	0	0	2,824514	2,49075	291,1068	0,13	85,284	0	1017,02	6,8	8,8	8,7	1	1	1	1	1	1	1	1	1	0	1	-11,557435	274,246769	309,179622	0
15.01.2021	20:47:12	0	0	3,389417	2,529	279,5148	0,124	85,261	0	1016,88	6,8	8,8	8,7	1	1	1	1	1	1	1	1	1	0	1	-9,725159	274,231738	310,941585	0
15.01.2021	20:47:13	0	0	4,180281	2,56875	314,0064	0,13	85,282	0	1017,24	6,8	8,8	8,7	1	1	1	1	1	1	1	1	1	0	1	-9,44327	274,164241	310,907885	0
15.01.2021	20:47:14	0	0	3,276436	2,43675	312,75	0,129	85,285	0	1017,24	6,8	8,8	8,7	1	1	1	1	1	1	1	1	1	0	1	-5,708245	274,058223	314,147688	0
15.01.2021	20:47:15	0	0	4,519223	2,23125	295,632	0,131	85,288	0	1017,08	6,8	8,8	8,7	1	1	1	1	1	1	1	1	1	0	1	-6,694856	274,19721	313,81042	0
15.01.2021	20:47:16	0	0	4,745184	2,235	306,846	0,128	85,289	0	1017,32	6,8	8,8	8,7	1	1	1	1	1	1	1	1	1	0	1	-11,275546	274,234743	309,405255	0
15.01.2021	20:47:17	0	0	4,519223	2,3325	304,2612	0,12	85,28	0	1017,02	6,8	8,8	8,7	1	1	1	1	1	1	1	1	1	0	1	-12,191684	274,098471	307,852185	0
15.01.2021	20:47:18	0	0	4,632203	2,33025	295,1892	0,123	85,278	0	1017	6,8	8,8	8,7	1	1	1	1	1	1	1	1	1	0	1	-11,134602	274,224226	309,49701	0
15.01.2021	20:47:19	0	0	4,406242	2,31525	312,2064	0,133	85,303	0	1016,94	6,8	8,8	8,7	1	1	1	1	1	1	1	1	1	0	1	-5,426357	274,215217	315,16312	0
15.01.2021	20:47:20	0	0	2,937495	2,30025	294,282	0,128	85,299	0	1017,14	6,8	8,8	8,7	1	1	1	1	1	1	1	1	1	0	1	-8,879493	274,085046	311,101678	0
15.01.2021	20:47:21	0	0	2,824514	2,34225	303,5124	0,126	85,3	0	1017	6,8	8,8	8,7	1	1	1	1	1	1	1	1	1	0	1	-10,007047	274,239252	310,694845	0
15.01.2021	20:47:22	0	0	3,95432	2,2755	292,8132	0,128	85,301	0	1017,04	6,8	8,8	8,7	1	1	1	1	1	1	1	1	1	0	1	-9,302326	274,240755	311,406598	0
15.01.2021	20:47:23	0	0	2,937495	2,08125	298,242	0,129	85,291	0	1016,96	6,8	8,8	8,7	1	1	1	1	1	1	1	1	1	0	1	-8,45666	274,174725	311,943499	0
15.01.2021	20:47:24	0	0	3,276436	1,98375	288,144	0,127	85,304	0	1017,06	6,8	8,8	8,7	1	1	1	1	1	1	1	1	1	0	1	-9,44327	274,249777	311,307857	0
15.01.2021	20:47:25	0	0	2,372592	2,0505	295,4808	0,13	85,307	0	1017,04	6,7	8,8	8,7	1	1	1	1	1	1	1	1	1	0	1	-5,84919	274,149273	314,432016	0
15.01.2021	20:47:26	0	0	3,95432	2,1645	290,9088	0,132	85,294	0	1016,9	6,8	8,8	8,7	1	1	1	1	1	1	1	1	1	0	1	-7,047216	274,06567	312,843484	0
15.01.2021	20:47:27	0	0	4,858164	2,238	285,9228	0,121	85,294	0	1016,96	6,8	8,8	8,7	1	1	1	1	1	1	1	1	1	0	1	-7,82241	274,138803	312,40987	0
15.01.2021	20:47:28	0	0	2,824514	2,30175	296,8776	0,127	85,308	0	1017	6,8	8,8	8,7	1	1	1	1	1	1	1	1	1	0	1	-7,751938	274,083555	312,22227	0
15.01.2021	20:47:29	0	0	3,841339	2,41875	295,2144	0,128	85,294	0	1017,02	6,8	8,8	8,7	1	1	1	1	1	1	1	1	1	0	1	-8,738548	274,222724	311,88604	0
15.01.2021	20:47:30	0	0	4,858164	2,49525	292,9032	0,128	85,316	0	1017,04	6,8	8,8	8,7	1	1	1	1	1	1	1	1	1	0	1	-7,117689	274,209212	313,44371	0
15.01.2021	20:47:31	0	0	4,745184	2,51175	298,6992	0,122	85,314	0	1017	6,8	8,8	8,7	1	1	1	1	1	1	1	1	1	0	1	-14,376321	274,204711	306,164026	0
15.01.2021	20:47:32	0	0	2,485572	2,64075	297,2556	0,129	85,323	0	1017,14	6,8	8,8	8,7	1	1	1	1	1	1	1	1	1	0	1	-11,205074	274,093995	308,81789	0
15.01.2021	20:47:33	0	0	2,598553	2,817	299,4984	0,13	85,329	0	1016,98	6,8	8,8	8,7	1	1	1	1	1	1	1	1	1	0	1	-4,792107	274,064181	315,091639	0
15.01.2021	20:47:34	0	0	2,824514	3,01275	296,2332	0,149	85,329	0	1017,22	6,8	8,8	8,7	1	1	1	1	1	1	1	1	1	0	1	-5,919662	274,114893	314,20091	0
15.01.2021	20:47:35	0	0	5,197106	3,12375	296,0244	0,129	85,322	0	1017,06	6,8	8,8	8,7	1	1	1	1	1	1	1	1	1	0	1	-8,668076	274,107427	311,417621	0
15.01.2021	20:47:36	0	0	4,406242	3,153	289,566	0,13	85,314	0	1017,04	6,8	8,8	8,7	1	1	1	1	1	1	1	1	1	0	1	-7,188161	274,06716	312,709495	0
15.01.2021	20:47:37	0	0	2,824514	3,27675	293,5008	0,13	85,322	0	1016,92	6,8	8,8	8,7	1	1	1	1	1	1	1	1	1	0	1	-8,597604	274,159749	311,73256	0
15.01.2021	20:47:38	0	0	3,163456	3,1875	303,228	0,129	85,328	0	1017,14	6,8	8,8	8,7	1	1	1	1	1	1	1	1	1	0	1	-8,80902	274,257298	311,977294	0
15.01.2021	20:47:39	0	0	3,728359	3,1395	303,4944	0,131	85,329	0	1016,98	6,8	8,8	8,7	1	1	1	1	1	1	1	1	1	0	1	-7,751938	274,096979	312,284962	0
15.01.2021	20:47:40	0	0	4,519223	3,1455	303,1992	0,134	85,297	0	1017,04	6,8	8,8	8,7	1	1	1	1	1	1	1	1	1	0	1	-9,372798	274,240755	311,336126	0
15.01.2021	20:47:41	0	0	4,632203	3,1815	293,3136	0,13	85,32	0	1017	6,8	8,8	8,7	1	1	1	1	1	1	1	1	1	0	1	-8,245243	274,225728	312,393394	0
15.01.2021	20:47:42	0	0	2,711534	3,243	299,3724	0,133	85,314	0	1017,02	6,8	8,8	8,7	1	1	1	1	1	1	1	1	1	0	1	-11,839323	274,107427	308,246373	0
15.01.2021	20:47:43	0	0	4,406242	3,2145	297,5328	0,13	85,313	0	1017,1	6,8	8,8	8,7	1	1	1	1	1	1	1	1	1	0	1	-9,584214	274,213715	310,998242	0
15.01.2021	20:47:44	0	0	4,180281	3,14775	294,0804	0,123	85,32	0	1017,08	6,8	8,8	8,7	1	1	1	1	1	1	1	1	1	0	1	-10,288936	274,237749	310,405925	0
15.01.2021	20:47:45	0	0	3,050475	3,0285	300,1032	0,126	85,308	0	1017,2	6,8	8,8	8,7	1	1	1	1	1	1	1	1	1	0	1	-6,20155	274,110413	313,898094	0
15.01.2021	20:47:46	0	0	2,824514	2,946	297,9432	0,128	85,309	0	1017,04	6,8	8,8	8,7	1	1	1	1	1	1	1	1	1	0	1	-11,41649	274,240755	309,292433	0
15.01.2021	20:47:47	0	0	3,050475	2,73675	302,0436	0,129	85,316	0	1017,14	6,8	8,8	8,7	1	1	1	1	1	1	1	1	1	0	1	-6,060606	274,116386	314,066942	0
15.01.2021	20:47:48	0	0	3,163456	2,643	309,168	0,127	85,314	0	1016,96	6,8	8,8	8,7	1	1	1	1	1	1	1	1	1	0	1	-11,557435	274,086537	308,4307	0
15.01.2021	20:47:49	0	0	2,824514	2,60025	304,3296	0,138	85,328	0	1017,22	6,8	8,8	8,7	1	1	1	1	1	1	1	1	1	0	1	-7,258633	274,102948	312,806147	0
15.01.2021	20:47:50	0	0	2,824514	2,5875	311,3208	0,134	85,328	0	1017,1	6,8	8,8	8,7	1	1	1	1	1	1	1	1	1	0	1	-8,949965	274,096979	311,086935	0
15.01.2021	20:47:51	0	0	4,406242	2,7315	304,2648	0,13	85,316	0	1017,12	6,8	8,8	8,7	1	1	1	1	1	1	1	1	1	0	1	-6,8358	274,185214	313,613395	0
15.01.2021	20:47:52	0	0	2,598553	2,79825	299,4444	0,134	85,302	0	1017	6,8	8,8	8,7	1	1	1	1	1	1	1	1	1	0	1	-11,839323	274,080573	308,12096	0
15.01.2021	20:47:53	0	0	4,180281	2,84625	300,4884	0,128	85,322	0	1017,04	6,8	8,8	8,7	1	1	1	1	1	1	1	1	1	0	1	-5,637773	274,224226	314,993839	0
15.01.2021	20:47:54	0	0	3,615378	2,811	312,1992	0,128	85,317	0	1017,2	6,8	8,8	8,7	1	1	1	1	1	1	1	1	1	0	1	-5,426357	274,225728	315,212281	0
15.01.2021	20:47:55	0	0	4,858164	2,7345	310,6548	0,133	85,33	0	1016,98	6,8	8,8	8,7	1	1	1	1	1	1	1	1	1	0	1	-11,134602	274,230235	309,525114	0
15.01.2021	20:47:56	0	0	5,536048	2,72025	307,1952	0,131	85,327	0	1017,14	6,8	8,8	8,7	1	1	1	1	1	1	1	1	1	0	1	-7,82241	274,186713	312,633793	0
15.01.2021	20:47:57	0	0	3,615378	2,80575	310,9356	0,133	85,333	0	1017,18	6,8	8,8	8,7	1	1	1	1	1	1	1	1	1	0	1	-9,513742	274,255794	311,265534	0
15.01.2021	20:47:58	0	0	3,728359	3,0195	306,3708	0,132	85,317	0	1017,06	6,8	8,8	8,7	1	1	1	1	1	1	1	1	1	0	1	-10,077519	274,236246	310,610311	0
15.01.2021	20:47:59	0	0	4,293261	3,07425	282,7872	0,131	85,328	0	1017,18	6,8	8,8	8,7	1	1	1	1	1	1	1	1	1	0	1	-12,05074	274,231738	308,616004	0
15.01.2021	20:48:00	0	0	4,519223	3,081	298,2276	0,132	85,316	0	1017,02	6,7	8,8	8,7	1	1	1	1	1	1	1	1	1	0	1	-11,346018	274,153762	308,956166	0
15.01.2021	20:48:01	0	0	2,824514	3,01875	299,0844	0,13	85,332	0	1017,08	6,8	8,8	8,7	1	1	1	1	1	1	1	1	1	0	1	-6,765328	274,076101	313,174074	0
15.01.2021	20:48:02	0	0	3,95432	2,8995	289,1808	0,131	85,331	0	1016,9	6,8	8,8	8,7	1	1	1	1	1	1	1	1	1	0	1	-9,090909	274,116386	311,036639	0
15.01.2021	20:48:03	0	0	2,598553	2,8215	290,7576	0,128	85,322	0	1017,02	6,8	8,8	8,7	1	1	1	1	1	1	1	1	1	0	1	-10,993658	274,077591	308,952704	0
15.01.2021	20:48:04	0	0	3,050475	2,6895	288,1368	0,126	85,323	0	1017,02	6,8	8,8	8,7	1	1	1	1	1	1	1	1	1	0	1	-9,936575	274,141794	310,309681	0
15.01.2021	20:48:05	0	0	4,0673	2,6775	285,9192	0,13	85,301	0	1017,06	6,8	8,8	8,7	1	1	1	1	1	1	1	1	1	0	1	-7,751938	274,083555	312,22227	0
15.01.2021	20:48:06	0	0	4,858164	2,5875	291,492	0,124	85,326	0	1017,04	6,8	8,8	8,7	1	1	1	1	1	1	1	1	1	0	1	-7,82241	274,185214	312,626785	0
15.01.2021	20:48:07	0	0	4,293261	2,64	287,7624	0,129	85,313	0	1017,06	6,8	8,8	8,7	1	1	1	1	1	1	1	1	1	0	1	-10,077519	274,062691	309,799272	0
15.01.2021	20:48:08	0	0	4,519223	2,6415	295,5708	0,127	85,328	0	1017,1	6,7	8,8	8,7	1	1	1	1	1	1	1	1	1	0	1	-6,906272	274,06716	312,991384	0
15.01.2021	20:48:09	0	0	4,519223	2,55825	299,016	0,128	85,323	0	1017,1	6,8	8,9	8,7	1	1	1	1	1	1	1	1	1	0	1	-9,654686	274,101456	310,403122	0
15.01.2021	20:48:10	0	0	2,146631	2,45625	297,972	0,133	85,318	0	1016,92	6,8	8,8	8,7	1	1	1	1	1	1	1	1	1	0	1	-10,782241	274,228733	309,870448	0
15.01.2021	20:48:11	0	0	3,050475	2,331	291,8772	0,131	85,312	0	1017,02	6,8	8,8	8,7	1	1	1	1	1	1	1	1	1	0	1	-8,386187	274,07163	311,532338	0
15.01.2021	20:48:12	0	0	2,598553	2,17575	279,882	0,133	85,33	0	1017,08	6,8	8,8	8,7	1	1	1	1	1	1	1	1	1	0	1	-6,694856	274,189712	313,775365	0
15.01.2021	20:48:13	0	0	2,711534	2,16525	280,2888	0,126	85,336	0	1017,2	6,8	8,8	8,7	1	1	1	1	1	1	1	1	1	0	1	-14,023961	274,248273	306,720131	0
15.01.2021	20:48:14	0	0	4,745184	2,15475	289,5984	0,133	85,331	0	1017,14	6,8	8,8	8,7	1	1	1	1	1	1	1	1	1	0	1	-7,470049	274,180718	312,958126	0
15.01.2021	20:48:15	0	0	3,841339	2,14875	272,8296	0,133	85,327	0	1017,14	6,8	8,8	8,7	1	1	1	1	1	1	1	1	1	0	1	-8,668076	274,257298	312,118239	0
15.01.2021	20:48:16	0	0	2,485572	2,08575	285,93	0,13	85,318	0	1017,08	6,8	8,8	8,7	1	1	1	1	1	1	1	1	1	0	1	-8,597604	274,162743	311,746553	0
15.01.2021	20:48:17	0	0	3,95432	1,9785	283,5432	0,125	85,321	0	1017,16	6,8	8,8	8,7	1	1	1	1	1	1	1	1	1	0	1	-8,597604	274,206211	311,94976	0
15.01.2021	20:48:18	0	0	4,858164	1,9275	288,1692	0,131	85,339	0	1017,16	6,8	8,8	8,7	1	1	1	1	1	1	1	1	1	0	1	-10,147992	274,07014	309,763577	0
15.01.2021	20:48:19	0	0	2,711534	1,9755	277,3116	0,131	85,328	0	1017,06	6,8	8,8	8,7	1	1	1	1	1	1	1	1	1	0	1	-7,258633	274,080573	312,70165	0
15.01.2021	20:48:20	0	0	2,598553	1,97625	280,2672	0,132	85,32	0	1017,1	6,8	8,8	8,7	1	1	1	1	1	1	1	1	1	0	1	-7,188161	274,111906	312,918459	0
15.01.2021	20:48:21	0	0	3,615378	2,00175	282,4452	0,137	85,32	0	1017,1	6,8	8,8	8,7	1	1	1	1	1	1	1	1	1	0	1	-10,077519	274,076101	309,861882	0
15.01.2021	20:48:22	0	0	4,519223	2,05725	275,7492	0,13	85,336	0	1017,12	6,8	8,8	8,7	1	1	1	1	1	1	1	1	1	0	1	-8,597604	274,224226	312,034008	0
15.01.2021	20:48:23	0	0	4,0673	2,121	280,6272	0,133	85,334	0	1016,94	6,8	8,8	8,7	1	1	1	1	1	1	1	1	1	0	1	-6,8358	274,128339	313,347587	0
15.01.2021	20:48:24	0	0	4,0673	2,082	282,0888	0,134	85,332	0	1017,22	6,7	8,8	8,7	1	1	1	1	1	1	1	1	1	0	1	-6,765328	274,07014	313,146241	0
15.01.2021	20:48:25	0	0	4,0673	1,92375	290,052	0,136	85,334	0	1017,02	6,8	8,8	8,7	1	1	1	1	1	1	1	1	1	0	1	-11,486963	274,123856	308,67548	0
15.01.2021	20:48:26	0	0	2,711534	1,91625	285,9876	0,134	85,32	0	1017,04	6,8	8,8	8,7	1	1	1	1	1	1	1	1	1	0	1	-11,557435	274,064181	308,326311	0
15.01.2021	20:48:27	0	0	3,163456	2,05725	283,194	0,13	85,31	0	1016,88	6,8	8,8	8,7	1	1	1	1	1	1	1	1	1	0	1	-5,990134	274,19421	314,501118	0
15.01.2021	20:48:28	0	0	3,276436	2,4315	278,478	0,132	85,319	0	1017,02	6,8	8,8	8,7	1	1	1	1	1	1	1	1	1	0	1	-10,923185	274,061202	308,946653	0
15.01.2021	20:48:29	0	0	2,711534	2,5635	282,4488	0,127	85,321	0	1017,08	6,8	8,8	8,7	1	1	1	1	1	1	1	1	1	0	1	-9,161381	274,105934	310,917343	0
15.01.2021	20:48:30	0	0	4,745184	2,54625	293,3964	0,126	85,331	0	1017,08	6,8	8,9	8,7	1	1	1	1	1	1	1	1	1	0	1	-12,403101	274,11788	307,731425	0
15.01.2021	20:48:31	0	0	3,502398	2,5425	288,072	0,131	85,322	0	1016,98	6,8	8,8	8,7	1	1	1	1	1	1	1	1	1	0	1	-7,399577	274,248273	313,344514	0
15.01.2021	20:48:32	0	0	4,745184	2,55	286,2756	0,129	85,321	0	1016,94	6,8	8,8	8,7	1	1	1	1	1	1	1	1	1	0	1	-8,45666	274,162743	311,887498	0
15.01.2021	20:48:33	0	0	4,519223	2,38125	283,2696	0,127	85,318	0	1017,2	6,8	8,8	8,7	1	1	1	1	1	1	1	1	1	0	1	-9,231853	274,064181	310,651892	0
15.01.2021	20:48:34	0	0	3,163456	2,1795	256,23	0,119	85,315	0	1017,04	6,8	8,8	8,7	1	1	1	1	1	1	1	1	1	0	1	-11,486963	274,168733	308,88519	0
15.01.2021	20:48:35	0	0	2,598553	2,13375	284,8176	0,127	85,338	0	1017,02	6,8	8,9	8,7	1	1	1	1	1	1	1	1	1	0	1	-10,218464	274,092503	309,797533	0
15.01.2021	20:48:36	0	0	3,389417	2,06775	269,1288	0,13	85,325	0	1017,04	6,8	8,9	8,7	1	1	1	1	1	1	1	1	1	0	1	-11,346018	274,046314	308,454322	0
15.01.2021	20:48:37	0	0	4,519223	2,0685	276,21	0,127	85,336	0	1017,16	6,8	8,8	8,7	1	1	1	1	1	1	1	1	1	0	1	-10,570825	274,129833	309,619545	0
15.01.2021	20:48:38	0	0	4,745184	1,98	273,5316	0,13	85,336	0	1017,22	6,8	8,8	8,7	1	1	1	1	1	1	1	1	1	0	1	-10,500352	274,243762	310,222636	0
15.01.2021	20:48:39	0	0	3,502398	1,848	273,258	0,127	85,327	0	1017,1	6,8	8,8	8,7	1	1	1	1	1	1	1	1	1	0	1	-10,711769	274,104441	309,359983	0
15.01.2021	20:48:40	0	0	3,841339	1,7775	269,1936	0,121	85,338	0	1017,08	6,8	8,8	8,7	1	1	1	1	1	1	1	1	1	0	1	-11,627907	274,064181	308,255839	0
15.01.2021	20:48:41	0	0	3,163456	1,7415	265,806	0,131	85,35	0	1017,1	6,7	8,8	8,7	1	1	1	1	1	1	1	1	1	0	1	-11,627907	274,092503	308,38809	0
15.01.2021	20:48:42	0	0	5,084125	1,75725	268,8192	0,122	85,34	0	1017,02	6,8	8,8	8,7	1	1	1	1	1	1	1	1	1	0	1	-9,654686	274,107427	310,43101	0
15.01.2021	20:48:43	0	0	4,519223	1,84575	271,3284	0,129	85,329	0	1017	6,8	8,8	8,7	1	1	1	1	1	1	1	1	1	0	1	-11,557435	274,215217	309,032041	0
15.01.2021	20:48:44	0	0	4,745184	1,96575	267,0012	0,124	85,347	0	1017	6,8	8,8	8,7	1	1	1	1	1	1	1	1	1	0	1	-8,104299	274,236246	312,583532	0
15.01.2021	20:48:45	0	0	2,146631	2,01075	269,5896	0,131	85,331	0	1016,96	6,7	8,8	8,7	1	1	1	1	1	1	1	1	1	0	1	-11,980268	274,209212	308,581131	0
15.01.2021	20:48:46	0	0	4,971145	2,0115	267,6168	0,124	85,354	0	1017,18	6,8	8,8	8,7	1	1	1	1	1	1	1	1	1	0	1	-7,751938	274,212214	312,823498	0
15.01.2021	20:48:47	0	0	4,971145	1,97025	273,546	0,132	85,347	0	1017,22	6,8	8,8	8,7	1	1	1	1	1	1	1	1	1	0	1	-8,033827	274,239252	312,668065	0
15.01.2021	20:48:48	0	0	3,163456	1,83675	267,6852	0,127	85,337	0	1017,12	6,8	8,8	8,7	1	1	1	1	1	1	1	1	1	0	1	-12,05074	274,064181	307,833006	0
15.01.2021	20:48:49	0	0	2,485572	1,7895	268,4592	0,127	85,342	0	1017,18	6,8	8,8	8,7	1	1	1	1	1	1	1	1	1	0	1	-9,231853	274,170231	311,1473	0
15.01.2021	20:48:50	0	0	5,084125	1,764	277,614	0,125	85,342	0	1016,94	6,8	8,8	8,7	1	1	1	1	1	1	1	1	1	0	1	-11,41649	274,234743	309,26431	0
15.01.2021	20:48:51	0	0	5,197106	1,764	274,2768	0,125	85,347	0	1017,22	6,7	8,9	8,7	1	1	1	1	1	1	1	1	1	0	1	-9,513742	274,19721	310,991534	0
15.01.2021	20:48:52	0	0	2,824514	1,815	290,0772	0,129	85,355	0	1017,1	6,8	8,8	8,7	1	1	1	1	1	1	1	1	1	0	1	-7,399577	274,23324	313,274195	0
15.01.2021	20:48:53	0	0	2,711534	1,7985	287,0352	0,125	85,329	0	1017,1	6,8	8,8	8,7	1	1	1	1	1	1	1	1	1	0	1	-5,919662	274,107427	314,166035	0
15.01.2021	20:48:54	0	0	3,050475	1,7475	287,3916	0,12	85,339	0	1017,1	6,8	8,8	8,7	1	1	1	1	1	1	1	1	1	0	1	-12,332629	274,219721	308,277913	0
15.01.2021	20:48:55	0	0	3,050475	1,84875	301,2264	0,126	85,328	0	1017,08	6,8	8,8	8,7	1	1	1	1	1	1	1	1	1	0	1	-8,104299	274,204711	312,436049	0
15.01.2021	20:48:56	0	0	4,971145	1,8615	288,2304	0,13	85,35	0	1017,2	6,8	8,8	8,7	1	1	1	1	1	1	1	1	1	0	1	-13,03735	274,173227	307,355806	0
15.01.2021	20:48:57	0	0	3,050475	1,82625	298,9476	0,129	85,348	0	1017,14	6,8	8,8	8,7	1	1	1	1	1	1	1	1	1	0	1	-9,231853	274,091012	310,777177	0
15.01.2021	20:48:58	0	0	2,937495	1,80525	279,882	0,124	85,331	0	1017,1	6,8	8,8	8,7	1	1	1	1	1	1	1	1	1	0	1	-8,033827	274,119373	312,107677	0
15.01.2021	20:48:59	0	0	4,293261	1,92	279,8928	0,129	85,349	0	1017,14	6,8	8,8	8,7	1	1	1	1	1	1	1	1	1	0	1	-6,906272	274,043338	312,880176	0
15.01.2021	20:49:00	0	0	2,372592	1,989	269,9028	0,129	85,357	0	1017,1	6,8	8,9	8,7	1	1	1	1	1	1	1	1	1	0	1	-7,963354	274,126844	312,213051	0
15.01.2021	20:49:01	0	0	4,632203	1,90725	302,1156	0,125	85,331	0	1017,18	6,8	8,8	8,7	1	1	1	1	1	1	1	1	1	0	1	-11,980268	274,059713	307,882618	0
15.01.2021	20:49:02	0	0	2,598553	2,025	298,6272	0,127	85,363	0	1017,12	6,8	8,8	8,7	1	1	1	1	1	1	1	1	1	0	1	-9,513742	274,093995	310,509222	0
15.01.2021	20:49:03	0	0	3,841339	2,1495	314,0856	0,129	85,335	0	1017,16	6,8	8,8	8,7	1	1	1	1	1	1	1	1	1	0	1	-8,174771	274,052268	311,653361	0
15.01.2021	20:49:04	0	0	2,824514	2,2245	296,4348	0,129	85,339	0	1017,2	6,8	8,8	8,7	1	1	1	1	1	1	1	1	1	0	1	-5,567301	274,237749	315,12756	0
15.01.2021	20:49:05	0	0	3,050475	2,45325	286,2216	0,125	85,344	0	1017,12	6,7	8,8	8,7	1	1	1	1	1	1	1	1	1	0	1	-8,174771	274,129833	312,015599	0
15.01.2021	20:49:06	0	0	4,632203	2,76225	286,9884	0,124	85,328	0	1017,06	6,7	8,9	8,7	1	1	1	1	1	1	1	1	1	0	1	-8,738548	274,076101	311,200853	0
15.01.2021	20:49:07	0	0	3,389397	2,9055	288,4392	0,12	85,34	0	1017,1	6,8	8,8	8,8	1	1	1	1	1	1	1	1	1	0	1	-11,698379	274,168733	308,673774	0
15.01.2021	20:49:08	0	0	3,841339	2,83425	285,192	0,121	85,344	0	1017,1	6,7	8,9	8,7	1	1	1	1	1	1	1	1	1	0	1	-4,933051	274,245266	315,796971	0
15.01.2021	20:49:09	0	0	3,728359	2,73225	285,876	0,126	85,32	0	1017,12	6,8	8,9	8,7	1	1	1	1	1	1	1	1	1	0	1	-10,147992	274,189712	310,322229	0
15.01.2021	20:49:10	0	0	3,615378	2,775	283,2624	0,123	85,329	0	1017,18	6,7	8,8	8,7	1	1	1	1	1	1	1	1	1	0	1	-11,346018	274,23324	309,327754	0
15.01.2021	20:49:11	0	0	3,615356	2,7675	283,554	0,12	85,338	0	1017,12	6,8	8,8	8,8	1	1	1	1	1	1	1	1	1	0	1	-10,993658	274,164241	309,357498	0
15.01.2021	20:49:12	0	0	4,745184	2,877	292,9896	0,123	85,333	0	1017	6,8	8,8	8,7	1	1	1	1	1	1	1	1	1	0	1	-9,302326	274,056734	310,546656	0
15.01.2021	20:49:13	0	0	4,519223	2,73375	303,5736	0,123	85,345	0	1017,04	6,7	8,8	8,7	1	1	1	1	1	1	1	1	1	0	1	-8,949965	274,138803	311,282316	0
15.01.2021	20:49:14	0	0	3,95432	2,66175	295,2972	0,127	85,349	0	1017,1	6,8	8,9	8,7	1	1	1	1	1	1	1	1	1	0	1	-7,82241	274,053757	312,012671	0
15.01.2021	20:49:15	0	0	2,711534	2,61975	309,6144	0,121	85,334	0	1017,06	6,7	8,9	8,7	1	1	1	1	1	1	1	1	1	0	1	-10,570825	274,086537	309,41731	0
15.01.2021	20:49:16	0	0	3,841339	2,607	285,516	0,128	85,351	0	1017,26	6,8	8,8	8,7	1	1	1	1	1	1	1	1	1	0	1	-6,412967	274,055245	313,429064	0
15.01.2021	20:49:17	0	0	2,598553	2,50425	306,7992	0,121	85,351	0	1017,1	6,8	8,8	8,7	1	1	1	1	1	1	1	1	1	0	1	-9,090909	274,161246	311,246251	0
15.01.2021	20:49:18	0	0	4,406242	2,4735	281,4444	0,128	85,358	0	1017,18	6,7	8,8	8,7	1	1	1	1	1	1	1	1	1	0	1	-8,174771	274,044826	311,618623	0
15.01.2021	20:49:19	0	0	3,389417	2,319	290,3796	0,125	85,351	0	1017,18	6,7	8,9	8,7	1	1	1	1	1	1	1	1	1	0	1	-8,45666	274,168733	311,915493	0
15.01.2021	20:49:20	0	0	3,163456	2,217	292,6584	0,126	85,351	0	1017,16	6,8	8,8	8,7	1	1	1	1	1	1	1	1	1	0	1	-6,976744	274,08952	313,02532	0
15.01.2021	20:49:21	0	0	4,632203	2,16525	291,6144	0,128	85,355	0	1017,1	6,8	8,8	8,7	1	1	1	1	1	1	1	1	1	0	1	-7,610994	274,218219	312,992525	0
15.01.2021	20:49:22	0	0	5,423067	2,12025	289,5732	0,128	85,361	0	1017,16	6,8	8,8	8,7	1	1	1	1	1	1	1	1	1	0	1	-7,540521	274,061202	312,329317	0
15.01.2021	20:49:23	0	0	3,276436	2,27475	291,5028	0,122	85,36	0	1017,22	6,7	8,9	8,7	1	1	1	1	1	1	1	1	1	0	1	-7,540521	274,116386	312,587027	0
15.01.2021	20:49:24	0	0	2,598553	2,34825	289,2168	0,124	85,354	0	1017,04	6,8	8,8	8,7	1	1	1	1	1	1	1	1	1	0	1	-9,020437	274,052268	310,807695	0
15.01.2021	20:49:25	0	0	3,502398	2,39325	294,4332	0,123	85,373	0	1017,04	6,8	8,8	8,7	1	1	1	1	1	1	1	1	1	0	1	-6,976744	274,182217	313,458437	0
15.01.2021	20:49:26	0	0	5,197106	2,4225	298,2888	0,124	85,359	0	1017,14	6,7	8,9	8,7	1	1	1	1	1	1	1	1	1	0	1	-7,963354	274,228733	312,689335	0
15.01.2021	20:49:27	0	0	2,598553	2,379	299,0016	0,127	85,375	0	1017,12	6,8	8,9	8,7	1	1	1	1	1	1	1	1	1	0	1	-6,976744	274,168733	313,395409	0
15.01.2021	20:49:28	0	0	4,406242	2,35725	297,5616	0,117	85,36	0	1017,08	6,8	8,9	8,7	1	1	1	1	1	1	1	1	1	0	1	-4,580691	274,050779	315,240492	0
15.01.2021	20:49:29	0	0	3,163456	2,358	295,5888	0,121	85,373	0	1017,06	6,8	8,8	8,7	1	1	1	1	1	1	1	1	1	0	1	-10,077519	274,177721	310,336647	0
15.01.2021	20:49:30	0	0	3,841339	2,35575	294,8292	0,124	85,384	0	1017,02	6,8	8,8	8,7	1	1	1	1	1	1	1	1	1	0	1	-10,359408	274,224226	310,272204	0
15.01.2021	20:49:31	0	0	4,406242	2,44125	283,5576	0,126	85,369	0	1017,26	6,8	8,9	8,7	1	1	1	1	1	1	1	1	1	0	1	-7,399577	274,19571	313,098686	0
15.01.2021	20:49:32	0	0	4,971145	2,48175	286,2864	0,122	85,379	0	1016,98	6,7	8,9	8,7	1	1	1	1	1	1	1	1	1	0	1	-8,174771	274,188213	312,28844	0
15.01.2021	20:49:33	0	0	4,180281	2,46975	289,6272	0,121	85,386	0	1017,12	6,7	8,9	8,7	1	1	1	1	1	1	1	1	1	0	1	-5,919662	274,176223	314,487501	0
15.01.2021	20:49:34	0	0	2,598569	2,421	286,2144	0,126	85,385	0	1017,1	6,8	8,8	8,6	1	1	1	1	1	1	1	1	1	0	1	-9,513742	274,06567	310,376958	0
15.01.2021	20:49:35	0	0	3,163456	2,451	275,8212	0,124	85,386	0	1017,12	6,7	8,8	8,7	1	1	1	1	1	1	1	1	1	0	1	-8,245243	274,099963	311,805595	0
15.01.2021	20:49:36	0	0	2,937495	2,526	283,5468	0,127	85,389	0	1016,98	6,8	8,9	8,7	1	1	1	1	1	1	1	1	1	0	1	-11,839323	274,053757	307,995758	0
15.01.2021	20:49:37	0	0	4,406242	2,44275	283,5324	0,127	85,394	0	1017,2	6,8	8,8	8,7	1	1	1	1	1	1	1	1	1	0	1	-9,584214	274,074611	310,348228	0
15.01.2021	20:49:38	0	0	3,615378	2,33775	290,4516	0,122	85,4	0	1017,04	6,8	8,8	8,7	1	1	1	1	1	1	1	1	1	0	1	-11,205074	274,083555	308,769134	0
15.01.2021	20:49:39	0	0	4,632203	2,19675	283,23	0,124	85,401	0	1017,18	6,8	8,9	8,7	1	1	1	1	1	1	1	1	1	0	1	-5,778717	274,209212	314,782681	0
15.01.2021	20:49:40	0	0	4,519223	2,175	287,7624	0,126	85,404	0	1017,14	6,8	8,9	8,7	1	1	1	1	1	1	1	1	1	0	1	-10,993658	274,230235	309,666059	0
15.01.2021	20:49:41	0	0	2,598553	2,22675	281,3904	0,123	85,405	0	1017,02	6,8	8,8	8,7	1	1	1	1	1	1	1	1	1	0	1	-7,329105	274,101456	312,728704	0
15.01.2021	20:49:42	0	0	4,519223	2,43075	291,1824	0,127	85,402	0	1016,92	6,8	8,8	8,7	1	1	1	1	1	1	1	1	1	0	1	-6,694856	274,230235	313,964861	0
15.01.2021	20:49:43	0	0	3,728359	2,6715	288,4104	0,118	85,4	0	1017,28	6,8	8,8	8,7	1	1	1	1	1	1	1	1	1	0	1	-7,470049	274,177721	312,944117	0
15.01.2021	20:49:44	0	0	4,632203	2,811	284,8428	0,123	85,389	0	1017,14	6,8	8,8	8,7	1	1	1	1	1	1	1	1	1	0	1	-9,725159	274,222724	310,899429	0
15.01.2021	20:49:45	0	0	3,050475	2,7075	285,8868	0,118	85,395	0	1017,08	6,7	8,9	8,7	1	1	1	1	1	1	1	1	1	0	1	-9,231853	274,19721	311,273422	0
15.01.2021	20:49:46	0	0	3,502398	2,55675	279,9144	0,123	85,407	0	1016,94	6,7	8,9	8,7	1	1	1	1	1	1	1	1	1	0	1	-8,245243	274,047803	311,562044	0
15.01.2021	20:49:47	0	0	3,276436	2,469	286,6248	0,122	85,407	0	1017,28	6,8	8,8	8,7	1	1	1	1	1	1	1	1	1	0	1	-7,963354	274,085046	312,017816	0
15.01.2021	20:49:48	0	0	4,293261	2,3565	278,0892	0,124	85,396	0	1016,98	6,8	8,8	8,7	1	1	1	1	1	1	1	1	1	0	1	-9,161381	274,19421	311,32987	0
15.01.2021	20:49:49	0	0	2,598553	2,286	283,59	0,122	85,414	0	1017,02	6,7	8,9	8,7	1	1	1	1	1	1	1	1	1	0	1	-9,725159	274,173227	310,667998	0
15.01.2021	20:49:50	0	0	4,632203	2,259	315,198	0,12	85,42	0	1017,14	6,7	8,8	8,7	1	1	1	1	1	1	1	1	1	0	1	-10,359408	274,227231	310,286255	0
15.01.2021	20:49:51	0	0	3,502398	2,2425	298,3284	0,123	85,401	0	1017,22	6,7	8,9	8,7	1	1	1	1	1	1	1	1	1	0	1	-5,285412	274,098471	314,758457	0
15.01.2021	20:49:52	0	0	2,372592	2,091	296,5428	0,125	85,406	0	1017,06	6,8	8,8	8,7	1	1	1	1	1	1	1	1	1	0	1	-5,496829	274,050779	314,324354	0
15.01.2021	20:49:53	0	0	2,711534	1,92225	291,2832	0,121	85,421	0	1017,02	6,8	8,9	8,7	1	1	1	1	1	1	1	1	1	0	1	-8,033827	274,146281	312,233397	0
15.01.2021	20:49:54	0	0	4,632203	1,88025	294,1596	0,119	85,419	0	1017,04	6,8	8,8	8,7	1	1	1	1	1	1	1	1	1	0	1	-7,329105	274,055245	312,512926	0
15.01.2021	20:49:55	0	0	4,858193	1,887	300,8736	0,127	85,417	0	1017,22	6,7	8,9	8,6	1	1	1	1	1	1	1	1	1	0	1	-7,117689	274,183716	313,324499	0
15.01.2021	20:49:56	0	0	3,95432	1,9155	279,3132	0,119	85,417	0	1017	6,7	8,9	8,7	1	1	1	1	1	1	1	1	1	0	1	-8,80902	274,061202	311,060818	0
15.01.2021	20:49:57	0	0	2,485572	2,05575	283,2084	0,121	85,437	0	1017,1	6,8	8,8	8,7	1	1	1	1	1	1	1	1	1	0	1	-12,684989	274,093995	307,337974	0
15.01.2021	20:49:58	0	0	5,197106	2,07825	299,3832	0,121	85,409	0	1017,08	6,7	8,8	8,7	1	1	1	1	1	1	1	1	1	0	1	-6,8358	274,224226	313,795812	0
15.01.2021	20:49:59	0	0	4,745184	2,1315	290,106	0,125	85,432	0	1017,18	6,7	8,9	8,7	1	1	1	1	1	1	1	1	1	0	1	-7,470049	274,096979	312,56685	0
15.01.2021	20:50:00	0	0	3,841339	2,079	280,26	0,125	85,444	0	1017,14	6,7	8,9	8,7	1	1	1	1	1	1	1	1	1	0	1	-9,654686	274,231738	311,012057	0
15.01.2021	20:50:01	0	0	4,406242	2,178	270,5148	0,125	85,438	0	1017,28	6,7	8,9	8,7	1	1	1	1	1	1	1	1	1	0	1	-6,976744	274,219721	313,633797	0
15.01.2021	20:50:02	0	0	4,519223	2,32875	292,5396	0,125	85,448	0	1017,22	6,8	8,9	8,7	1	1	1	1	1	1	1	1	1	0	1	-13,6716	274,212214	306,903837	0
15.01.2021	20:50:03	0	0	3,050494	2,364	290,808	0,122	85,438	0	1017,12	6,8	8,9	8,6	1	1	1	1	1	1	1	1	1	0	1	-9,161381	274,052268	310,66675	0
15.01.2021	20:50:04	0	0	4,745184	2,35275	293,0112	0,128	85,451	0	1017,3	6,8	8,9	8,7	1	1	1	1	1	1	1	1	1	0	1	-9,231853	274,059713	310,631032	0
15.01.2021	20:50:05	0	0	2,259611	2,154	280,6524	0,128	85,448	0	1017,08	6,7	8,8	8,7	1	1	1	1	1	1	1	1	1	0	1	-8,033827	274,189712	312,436394	0
15.01.2021	20:50:06	0	0	2,711534	1,98975	256,5936	0,124	85,434	0	1017,18	6,7	8,9	8,7	1	1	1	1	1	1	1	1	1	0	1	-10,359408	274,243762	310,363581	0
15.01.2021	20:50:07	0	0	4,971145	1,94925	288,4104	0,12	85,442	0	1017,06	6,7	8,9	8,7	1	1	1	1	1	1	1	1	1	0	1	-8,80902	274,171729	311,577134	0
15.01.2021	20:50:08	0	0	3,502419	1,9995	271,008	0,126	85,456	0	1017,06	6,8	8,8	8,6	1	1	1	1	1	1	1	1	1	0	1	-9,302326	274,221223	311,315239	0
15.01.2021	20:50:09	0	0	2,937495	2,0445	277,182	0,124	85,463	0	1017,16	6,8	8,8	8,7	1	1	1	1	1	1	1	1	1	0	1	-9,44327	274,210713	311,125147	0
15.01.2021	20:50:10	0	0	3,615378	2,0655	282,5568	0,127	85,458	0	1017,16	6,8	8,9	8,7	1	1	1	1	1	1	1	1	1	0	1	-16,067653	274,20321	304,465679	0
15.01.2021	20:50:11	0	0	3,276436	1,98375	278,01	0,128	85,475	0	1017,08	6,8	8,8	8,7	1	1	1	1	1	1	1	1	1	0	1	-11,346018	274,237749	309,348842	0
15.01.2021	20:50:12	0	0	4,632231	1,88175	280,2348	0,122	85,459	0	1017,08	6,8	8,8	8,6	1	1	1	1	1	1	1	1	1	0	1	-10,077519	274,19871	310,43477	0
15.01.2021	20:50:13	0	0	3,502398	1,73325	283,2156	0,127	85,468	0	1017,18	6,8	8,9	8,7	1	1	1	1	1	1	1	1	1	0	1	-12,966878	274,07163	306,951648	0
15.01.2021	20:50:14	0	0	3,050475	1,59075	276,5196	0,125	85,475	0	1017,18	6,8	8,9	8,7	1	1	1	1	1	1	1	1	1	0	1	-5,990134	274,085046	313,991037	0
15.01.2021	20:50:15	0	0	4,180281	1,53225	285,5448	0,121	85,473	0	1017,16	6,8	8,8	8,7	1	1	1	1	1	1	1	1	1	0	1	-9,866103	274,058223	309,989831	0
15.01.2021	20:50:16	0	0	4,971145	1,467	284,1516	0,127	85,48	0	1017,06	6,7	8,9	8,7	1	1	1	1	1	1	1	1	1	0	1	-12,684989	274,105934	307,393734	0
15.01.2021	20:50:17	0	0	2,711534	1,4925	268,092	0,128	85,476	0	1017,16	6,7	8,9	8,7	1	1	1	1	1	1	1	1	1	0	1	-8,174771	274,055245	311,66726	0
15.01.2021	20:50:18	0	0	3,050475	1,596	276,0948	0,127	85,481	0	1017,26	6,7	8,8	8,7	1	1	1	1	1	1	1	1	1	0	1	-13,742072	274,102948	306,322708	0
15.01.2021	20:50:19	0	0	3,95432	1,69275	271,3248	0,12	85,482	0	1017,1	6,8	8,8	8,7	1	1	1	1	1	1	1	1	1	0	1	-9,161381	274,059713	310,701504	0
15.01.2021	20:50:20	0	0	3,050475	1,6995	278,7984	0,126	85,474	0	1017,08	6,7	8,9	8,7	1	1	1	1	1	1	1	1	1	0	1	-2,325581	274,132823	317,878756	0
15.01.2021	20:50:21	0	0	3,502398	1,63725	288,4464	0,13	85,494	0	1017,1	6,7	8,9	8,7	1	1	1	1	1	1	1	1	1	0	1	-6,131078	274,225728	314,507559	0
15.01.2021	20:50:22	0	0	3,163475	1,56225	278,784	0,123	85,477	0	1016,96	6,7	8,9	8,6	1	1	1	1	1	1	1	1	1	0	1	-11,698379	274,189712	308,771841	0
15.01.2021	20:50:23	0	0	4,0673	1,635	284,7996	0,128	85,488	0	1017,18	6,8	8,8	8,7	1	1	1	1	1	1	1	1	1	0	1	-6,976744	274,231738	313,689999	0
15.01.2021	20:50:24	0	0	4,745184	1,74825	283,5252	0,126	85,482	0	1017,04	6,8	8,9	8,7	1	1	1	1	1	1	1	1	1	0	1	-8,597604	274,188213	311,865607	0
15.01.2021	20:50:25	0	0	2,824514	1,806	286,6644	0,122	85,483	0	1017,08	6,8	8,9	8,7	1	1	1	1	1	1	1	1	1	0	1	-12,966878	274,219721	307,643663	0
15.01.2021	20:50:26	0	0	3,163456	1,74375	276,4548	0,121	85,479	0	1017,12	6,7	8,9	8,7	1	1	1	1	1	1	1	1	1	0	1	-8,033827	274,234743	312,646974	0
15.01.2021	20:50:27	0	0	4,632175	1,683	275,0076	0,125	85,492	0	1017,08	6,8	8,9	8,8	1	1	1	1	1	1	1	1	1	0	1	-6,412967	274,19871	314,099322	0
15.01.2021	20:50:28	0	0	2,937495	1,761	283,1724	0,129	85,488	0	1017,1	6,8	8,9	8,7	1	1	1	1	1	1	1	1	1	0	1	-5,567301	274,07312	314,358183	0
15.01.2021	20:50:29	0	0	3,389437	1,79625	281,3868	0,125	85,493	0	1017,26	6,8	8,9	8,6	1	1	1	1	1	1	1	1	1	0	1	-8,033827	274,108919	312,058844	0
15.01.2021	20:50:30	0	0	3,728381	1,7985	274,6476	0,127	85,488	0	1017,06	6,7	8,9	8,6	1	1	1	1	1	1	1	1	1	0	1	-6,694856	274,230235	313,964861	0
15.01.2021	20:50:31	0	0	4,0673	1,8345	272,8944	0,121	85,476	0	1017,24	6,8	8,8	8,7	1	1	1	1	1	1	1	1	1	0	1	-9,231853	274,174725	311,168306	0
15.01.2021	20:50:32	0	0	2,372606	1,8705	273,5892	0,131	85,503	0	1017,1	6,8	8,9	8,6	1	1	1	1	1	1	1	1	1	0	1	-10,218464	274,053757	309,616617	0
15.01.2021	20:50:33	0	0	4,293261	1,84575	276,8436	0,12	85,472	0	1017,08	6,7	8,9	8,7	1	1	1	1	1	1	1	1	1	0	1	-8,597604	274,210713	311,970813	0
15.01.2021	20:50:34	0	0	4,406216	1,8435	275,3856	0,13	85,492	0	1017,26	6,7	8,9	8,8	1	1	1	1	1	1	1	1	1	0	1	-8,174771	274,243762	312,548218	0
15.01.2021	20:50:35	0	0	3,6154	1,81275	265,4604	0,128	85,49	0	1017,1	6,8	8,8	8,6	1	1	1	1	1	1	1	1	1	0	1	-10,359408	274,146281	309,907816	0
15.01.2021	20:50:36	0	0	3,050494	1,89975	276,84	0,128	85,497	0	1017,28	6,7	8,9	8,6	1	1	1	1	1	1	1	1	1	0	1	-6,976744	274,218219	313,626775	0
15.01.2021	20:50:37	0	0	3,95432	1,95525	281,016	0,123	85,492	0	1017,26	6,7	8,9	8,7	1	1	1	1	1	1	1	1	1	0	1	-6,553911	274,177721	313,860255	0
15.01.2021	20:50:38	0	0	2,372606	1,965	280,2456	0,125	85,49	0	1017,22	6,8	8,9	8,6	1	1	1	1	1	1	1	1	1	0	1	-8,949965	274,243762	311,773024	0
15.01.2021	20:50:39	0	0	2,824514	1,96575	275,7744	0,127	85,488	0	1017,12	6,8	8,8	8,7	1	1	1	1	1	1	1	1	1	0	1	-11,980268	274,159749	308,349896	0
15.01.2021	20:50:40	0	0	2,71155	2,09775	295,2252	0,129	85,482	0	1017,02	6,8	8,9	8,6	1	1	1	1	1	1	1	1	1	0	1	-9,513742	274,228733	311,138947	0
15.01.2021	20:50:41	0	0	2,937495	2,23575	287,352	0,121	85,483	0	1017,2	6,7	8,9	8,7	1	1	1	1	1	1	1	1	1	0	1	-9,090909	274,162743	311,253248	0
15.01.2021	20:50:42	0	0	2,598553	2,31375	296,8272	0,123	85,468	0	1017,18	6,7	8,9	8,7	1	1	1	1	1	1	1	1	1	0	1	-12,755462	274,234743	307,925339	0
15.01.2021	20:50:43	0	0	4,067276	2,27625	290,0412	0,122	85,478	0	1017,04	6,8	8,9	8,8	1	1	1	1	1	1	1	1	1	0	1	-10,570825	274,212214	310,004612	0
15.01.2021	20:50:44	0	0	2,372592	2,62875	285,84	0,127	85,485	0	1017,22	6,8	8,9	8,7	1	1	1	1	1	1	1	1	1	0	1	-14,587738	274,216718	306,008759	0
15.01.2021	20:50:45	0	0	2,598553	3,0045	294,7932	0,123	85,476	0	1017,12	6,8	8,9	8,7	1	1	1	1	1	1	1	1	1	0	1	-10,42988	274,092503	309,586116	0
15.01.2021	20:50:46	0	0	3,502376	2,96175	296,4924	0,128	85,479	0	1017,12	6,8	8,9	8,8	1	1	1	1	1	1	1	1	1	0	1	-8,315715	274,06716	311,581941	0
15.01.2021	20:50:47	0	0	2,485587	2,7165	287,7444	0,126	85,48	0	1017,14	6,8	8,9	8,6	1	1	1	1	1	1	1	1	1	0	1	-5,84919	274,156756	314,466983	0
15.01.2021	20:50:48	0	0	2,485572	2,5485	289,9908	0,125	85,468	0	1017,12	6,7	8,8	8,7	1	1	1	1	1	1	1	1	1	0	1	-8,174771	274,064181	311,708975	0
15.01.2021	20:50:49	0	0	4,519223	2,33475	282,8376	0,128	85,48	0	1017,24	6,8	8,9	8,7	1	1	1	1	1	1	1	1	1	0	1	-11,06413	274,132823	309,140208	0
15.01.2021	20:50:50	0	0	3,95432	2,08425	265,4748	0,124	85,471	0	1017,02	6,8	8,9	8,7	1	1	1	1	1	1	1	1	1	0	1	-5,778717	274,059713	314,084168	0
15.01.2021	20:50:51	0	0	3,502419	2,1315	254,7864	0,126	85,478	0	1017,12	6,8	8,9	8,6	1	1	1	1	1	1	1	1	1	0	1	-8,527132	274,07312	311,398352	0
15.01.2021	20:50:52	0	0	3,389417	2,298	266,2956	0,125	85,469	0	1017,02	6,7	8,9	8,7	1	1	1	1	1	1	1	1	1	0	1	-12,403101	274,237749	308,29176	0
15.01.2021	20:50:53	0	0	2,598553	2,15925	256,9716	0,121	85,49	0	1017,1	6,7	8,9	8,7	1	1	1	1	1	1	1	1	1	0	1	-11,06413	274,077591	308,882232	0
15.01.2021	20:50:54	0	0	3,95432	2,01525	262,116	0,123	85,466	0	1017,1	6,8	8,9	8,7	1	1	1	1	1	1	1	1	1	0	1	-9,513742	274,149273	310,767464	0
15.01.2021	20:50:55	0	0	3,050475	1,91475	269,1144	0,118	85,486	0	1017,28	6,7	8,9	8,7	1	1	1	1	1	1	1	1	1	0	1	-11,627907	274,225728	309,01073	0
15.01.2021	20:50:56	0	0	2,937495	1,896	267,0264	0,119	85,473	0	1017,14	6,7	8,8	8,7	1	1	1	1	1	1	1	1	1	0	1	-10,711769	274,153762	309,590415	0
15.01.2021	20:50:57	0	0	2,711534	2,001	268,398	0,118	85,484	0	1017,22	6,7	8,9	8,7	1	1	1	1	1	1	1	1	1	0	1	-8,949965	274,06716	310,947691	0
15.01.2021	20:50:58	0	0	2,711534	2,07075	278,046	0,12	85,497	0	1017,02	6,7	8,9	8,7	1	1	1	1	1	1	1	1	1	0	1	-9,231853	274,119373	310,909651	0
15.01.2021	20:50:59	0	0	4,971145	2,1975	290,3868	0,124	85,482	0	1017,1	6,7	8,9	8,7	1	1	1	1	1	1	1	1	1	0	1	-11,134602	274,055245	308,707429	0
15.01.2021	20:51:00	0	0	3,276436	2,33475	288,8316	0,117	85,504	0	1017,3	6,7	8,9	8,7	1	1	1	1	1	1	1	1	1	0	1	-7,047216	274,07163	312,871309	0
15.01.2021	20:51:01	0	0	4,745184	2,44425	294,7896	0,12	85,501	0	1017,1	6,7	8,8	8,7	1	1	1	1	1	1	1	1	1	0	1	-14,094433	274,122361	306,06103	0
15.01.2021	20:51:02	0	0	4,745184	2,42775	296,7264	0,125	85,489	0	1017,1	6,7	8,9	8,7	1	1	1	1	1	1	1	1	1	0	1	-9,866103	274,058223	309,989831	0
15.01.2021	20:51:03	0	0	4,632175	2,4165	301,194	0,124	85,491	0	1017,16	6,7	8,8	8,8	1	1	1	1	1	1	1	1	1	0	1	-11,346018	274,135813	308,872289	0
15.01.2021	20:51:04	0	0	3,502398	2,45925	304,6968	0,126	85,507	0	1017,02	6,7	8,9	8,7	1	1	1	1	1	1	1	1	1	0	1	-11,768851	274,04185	308,010652	0
15.01.2021	20:51:05	0	0	3,389417	2,69175	303,5484	0,124	85,497	0	1017,14	6,7	8,9	8,7	1	1	1	1	1	1	1	1	1	0	1	-10,570825	274,105934	309,507899	0
15.01.2021	20:51:06	0	0	2,937495	2,78325	300,1392	0,121	85,48	0	1017,08	6,7	8,9	8,7	1	1	1	1	1	1	1	1	1	0	1	-8,879493	274,242259	311,836463	0
15.01.2021	20:51:07	0	0	3,050457	2,826	301,59	0,126	85,505	0	1017,04	6,8	8,9	8,8	1	1	1	1	1	1	1	1	1	0	1	-10,359408	274,185214	310,089787	0
15.01.2021	20:51:08	0	0	2,598569	3,1065	300,1284	0,119	85,505	0	1017,04	6,7	8,9	8,6	1	1	1	1	1	1	1	1	1	0	1	-8,597604	274,088029	311,397495	0
15.01.2021	20:51:09	0	0	4,180306	3,34725	317,2788	0,125	85,496	0	1017,12	6,8	8,9	8,6	1	1	1	1	1	1	1	1	1	0	1	-10,993658	274,20321	309,539675	0
15.01.2021	20:51:10	0	0	3,502398	3,37125	303,5412	0,123	85,509	0	1017,14	6,7	8,9	8,7	1	1	1	1	1	1	1	1	1	0	1	-11,134602	274,227231	309,511061	0
15.01.2021	20:51:11	0	0	4,745212	3,74925	299,7324	0,125	85,505	0	1017,18	6,7	8,9	8,6	1	1	1	1	1	1	1	1	1	0	1	-10,147992	274,110413	309,951653	0
15.01.2021	20:51:12	0	0	2,711534	3,876	303,912	0,123	85,499	0	1017,2	6,8	8,9	8,7	1	1	1	1	1	1	1	1	1	0	1	-9,372798	274,046314	310,427542	0
15.01.2021	20:51:13	0	0	4,971145	3,81075	305,7408	0,114	85,502	0	1017,16	6,7	8,9	8,7	1	1	1	1	1	1	1	1	1	0	1	-12,966878	274,188213	307,496333	0
15.01.2021	20:51:14	0	0	4,632175	3,6135	304,2792	0,118	85,492	0	1017,1	6,7	8,9	8,8	1	1	1	1	1	1	1	1	1	0	1	-7,188161	274,207712	313,366221	0
15.01.2021	20:51:15	0	0	4,180306	3,114	311,4252	0,121	85,508	0	1017,2	6,8	8,9	8,6	1	1	1	1	1	1	1	1	1	0	1	-9,725159	274,14329	310,528086	0
15.01.2021	20:51:16	0	0	3,163456	2,889	303,12	0,123	85,502	0	1017,1	6,8	8,9	8,7	1	1	1	1	1	1	1	1	1	0	1	-6,8358	274,052268	312,992332	0
15.01.2021	20:51:17	0	0	5,084125	2,826	319,5072	0,126	85,512	0	1017,08	6,7	8,9	8,7	1	1	1	1	1	1	1	1	1	0	1	-8,527132	274,156756	311,789041	0
15.01.2021	20:51:18	0	0	2,259611	2,8575	326,718	0,122	85,516	0	1017,12	6,7	8,9	8,7	1	1	1	1	1	1	1	1	1	0	1	-5,073996	274,219721	315,536545	0
15.01.2021	20:51:19	0	0	2,372606	2,7255	324,7812	0,122	85,51	0	1017,02	6,7	8,9	8,6	1	1	1	1	1	1	1	1	1	0	1	-8,949965	274,17922	311,471206	0
15.01.2021	20:51:20	0	0	4,858164	2,64225	326,3724	0,12	85,516	0	1017,02	6,7	8,9	8,7	1	1	1	1	1	1	1	1	1	0	1	-9,866103	274,207712	310,688278	0
15.01.2021	20:51:21	0	0	3,954296	2,63175	319,2444	0,125	85,521	0	1017,16	6,7	8,9	8,8	1	1	1	1	1	1	1	1	1	0	1	-10,570825	274,044826	309,222569	0
15.01.2021	20:51:22	0	0	2,824514	2,52525	318,3984	0,119	85,506	0	1017,1	6,8	8,8	8,7	1	1	1	1	1	1	1	1	1	0	1	-8,315715	274,099963	311,735123	0
15.01.2021	20:51:23	0	0	2,598569	2,33775	313,2036	0,123	85,531	0	1017,02	6,7	8,9	8,6	1	1	1	1	1	1	1	1	1	0	1	-7,188161	274,236246	313,49967	0
15.01.2021	20:51:24	0	0	4,293261	2,1885	318,3732	0,123	85,525	0	1017,08	6,7	8,9	8,7	1	1	1	1	1	1	1	1	1	0	1	-11,134602	274,098471	308,909267	0
15.01.2021	20:51:25	0	0	3,389437	2,154	314,838	0,126	85,526	0	1017,16	6,7	8,9	8,6	1	1	1	1	1	1	1	1	1	0	1	-4,510218	274,052268	315,317913	0
15.01.2021	20:51:26	0	0	3,728381	2,1495	307,242	0,128	85,531	0	1017,06	6,7	8,9	8,6	1	1	1	1	1	1	1	1	1	0	1	-7,117689	274,099963	312,93315	0
15.01.2021	20:51:27	0	0	2,485572	2,08875	302,4324	0,121	85,538	0	1017,2	6,7	8,9	8,7	1	1	1	1	1	1	1	1	1	0	1	-13,03735	274,04185	306,742153	0
15.01.2021	20:51:28	0	0	3,050494	2,00775	319,176	0,124	85,535	0	1017,18	6,7	8,9	8,6	1	1	1	1	1	1	1	1	1	0	1	-6,553911	274,138803	313,678369	0
15.01.2021	20:51:29	0	0	4,519223	2,01075	305,73	0,124	85,534	0	1017,06	6,7	8,9	8,7	1	1	1	1	1	1	1	1	1	0	1	-7,681466	274,224226	312,950146	0
15.01.2021	20:51:30	0	0	3,163456	2,01975	310,3092	0,122	85,514	0	1017,06	6,7	8,9	8,7	1	1	1	1	1	1	1	1	1	0	1	-7,258633	274,144785	313,001601	0
15.01.2021	20:51:31	0	0	4,406242	2,097	299,3832	0,122	85,525	0	1017,02	6,7	8,9	8,7	1	1	1	1	1	1	1	1	1	0	1	-7,047216	274,212214	313,52822	0
15.01.2021	20:51:32	0	0	4,180306	2,16975	303,1524	0,125	85,52	0	1017,3	6,7	8,9	8,6	1	1	1	1	1	1	1	1	1	0	1	-8,315715	274,059713	311,54717	0
15.01.2021	20:51:33	0	0	2,71155	2,25525	300,1284	0,123	85,525	0	1017,16	6,7	8,9	8,6	1	1	1	1	1	1	1	1	1	0	1	-4,510218	274,091012	315,498812	0
15.01.2021	20:51:34	0	0	3,728381	2,35425	294,4296	0,115	85,526	0	1017,12	6,7	8,9	8,6	1	1	1	1	1	1	1	1	1	0	1	-5,144468	274,091012	314,864562	0
15.01.2021	20:51:35	0	0	3,050475	2,5245	295,488	0,121	85,528	0	1017,26	6,7	8,9	8,7	1	1	1	1	1	1	1	1	1	0	1	-8,033827	274,062691	311,842965	0
15.01.2021	20:51:36	0	0	3,389397	2,3775	292,2048	0,122	85,553	0	1017,12	6,7	8,9	8,8	1	1	1	1	1	1	1	1	1	0	1	-7,188161	274,07163	312,730365	0
15.01.2021	20:51:37	0	0	4,519223	2,265	290,0448	0,121	85,534	0	1017,16	6,7	8,9	8,7	1	1	1	1	1	1	1	1	1	0	1	-8,879493	274,102948	311,185287	0
15.01.2021	20:51:38	0	0	2,937495	2,16975	292,2336	0,117	85,54	0	1017,14	6,8	8,8	8,7	1	1	1	1	1	1	1	1	1	0	1	-9,725159	274,038875	310,040457	0
15.01.2021	20:51:39	0	0	3,841339	2,04975	288,4284	0,118	85,514	0	1017,1	6,7	8,9	8,7	1	1	1	1	1	1	1	1	1	0	1	-11,627907	274,123856	308,534536	0
15.01.2021	20:51:40	0	0	2,598569	2,01975	287,7192	0,125	85,537	0	1017,12	6,7	8,8	8,6	1	1	1	1	1	1	1	1	1	0	1	-10,42988	274,040363	309,342679	0
15.01.2021	20:51:41	0	0	3,502398	1,89975	300,7908	0,123	85,529	0	1017,12	6,8	8,9	8,7	1	1	1	1	1	1	1	1	1	0	1	-6,553911	274,06865	313,350701	0
15.01.2021	20:51:42	0	0	2,711534	1,99875	302,8104	0,124	85,532	0	1017,2	6,7	8,9	8,7	1	1	1	1	1	1	1	1	1	0	1	-10,077519	274,07312	309,847964	0
15.01.2021	20:51:43	0	0	3,954344	2,07675	306,126	0,12	85,526	0	1017,04	6,7	8,8	8,6	1	1	1	1	1	1	1	1	1	0	1	-10,218464	274,215217	310,371013	0
15.01.2021	20:51:44	0	0	2,824497	2,106	297,9216	0,124	85,54	0	1017,2	6,7	8,9	8,8	1	1	1	1	1	1	1	1	1	0	1	-4,580691	274,058223	315,275243	0
15.01.2021	20:51:45	0	0	3,95432	2,106	302,814	0,12	85,522	0	1017,06	6,7	8,9	8,7	1	1	1	1	1	1	1	1	1	0	1	-6,483439	274,037387	313,275233	0
15.01.2021	20:51:46	0	0	3,615378	2,133	293,3964	0,124	85,536	0	1017,18	6,7	8,9	8,7	1	1	1	1	1	1	1	1	1	0	1	-4,016913	274,218219	316,586606	0
15.01.2021	20:51:47	0	0	2,598569	2,0385	292,5648	0,122	85,531	0	1017,1	6,7	8,9	8,6	1	1	1	1	1	1	1	1	1	0	1	-8,315715	274,091012	311,693315	0
15.01.2021	20:51:48	0	0	4,180256	2,02725	288,4284	0,119	85,526	0	1017,08	6,7	8,9	8,8	1	1	1	1	1	1	1	1	1	0	1	-7,117689	274,161246	313,219472	0
15.01.2021	20:51:49	0	0	4,858164	2,01375	281,3004	0,117	85,535	0	1017,18	6,7	8,9	8,7	1	1	1	1	1	1	1	1	1	0	1	-9,584214	274,210713	310,984203	0
15.01.2021	20:51:50	0	0	3,841362	2,12475	290,4012	0,116	85,534	0	1016,96	6,8	8,9	8,6	1	1	1	1	1	1	1	1	1	0	1	-5,144468	274,156756	315,171704	0
15.01.2021	20:51:51	0	0	3,95432	2,12025	275,3928	0,125	85,527	0	1017,08	6,7	8,9	8,7	1	1	1	1	1	1	1	1	1	0	1	-10,147992	274,222724	310,476596	0
15.01.2021	20:51:52	0	0	2,937512	2,09625	270,2952	0,123	85,539	0	1017,04	6,7	8,9	8,6	1	1	1	1	1	1	1	1	1	0	1	-9,302326	274,114893	310,818246	0
15.01.2021	20:51:53	0	0	3,728336	2,02725	274,2804	0,117	85,544	0	1017,14	6,7	8,9	8,8	1	1	1	1	1	1	1	1	1	0	1	-7,329105	274,212214	313,246331	0
15.01.2021	20:51:54	0	0	4,858135	1,97325	276,444	0,117	85,533	0	1017,1	6,7	8,9	8,8	1	1	1	1	1	1	1	1	1	0	1	-5,567301	274,180718	314,860875	0
15.01.2021	20:51:55	0	0	2,824514	2,24625	282,8268	0,122	85,539	0	1017,36	6,7	8,9	8,7	1	1	1	1	1	1	1	1	1	0	1	-5,567301	274,206211	314,980063	0
15.01.2021	20:51:56	0	0	3,389437	2,80725	284,49	0,121	85,553	0	1017,3	6,7	8,9	8,6	1	1	1	1	1	1	1	1	1	0	1	-7,117689	274,101456	312,94012	0
15.01.2021	20:51:57	0	0	2,598537	3,22725	285,5412	0,122	85,524	0	1017,1	6,7	8,9	8,8	1	1	1	1	1	1	1	1	1	0	1	-9,090909	274,215217	311,498567	0
15.01.2021	20:51:58	0	0	5,084125	3,34125	290,0268	0,118	85,544	0	1017,14	6,7	8,9	8,7	1	1	1	1	1	1	1	1	1	0	1	-10,570825	274,155259	309,738353	0
15.01.2021	20:51:59	0	0	4,51925	3,219	292,95	0,122	85,544	0	1017,14	6,7	8,9	8,6	1	1	1	1	1	1	1	1	1	0	1	-9,161381	274,218219	311,442138	0
15.01.2021	20:52:00	0	0	4,971175	3,20325	299,7792	0,123	85,519	0	1017,2	6,7	8,9	8,6	1	1	1	1	1	1	1	1	1	0	1	-7,329105	274,131328	312,868248	0
15.01.2021	20:52:01	0	0	2,598553	3,16575	304,6248	0,12	85,546	0	1017,1	6,7	8,9	8,7	1	1	1	1	1	1	1	1	1	0	1	-7,117689	274,050779	312,703494	0
15.01.2021	20:52:02	0	0	3,728381	3,07575	308,0016	0,114	85,541	0	1017,1	6,7	8,9	8,6	1	1	1	1	1	1	1	1	1	0	1	-7,329105	274,183716	313,113083	0
15.01.2021	20:52:03	0	0	4,632231	3,01575	316,9476	0,118	85,535	0	1017,12	6,7	8,9	8,6	1	1	1	1	1	1	1	1	1	0	1	-9,584214	274,20321	310,949118	0
15.01.2021	20:52:04	0	0	3,163456	3,04875	300,384	0,118	85,537	0	1017,2	6,7	8,9	8,7	1	1	1	1	1	1	1	1	1	0	1	-7,681466	274,076101	312,257936	0
15.01.2021	20:52:05	0	0	2,711517	3,16575	286,6356	0,119	85,551	0	1017,14	6,7	8,9	8,8	1	1	1	1	1	1	1	1	1	0	1	-9,795631	274,165738	310,562523	0
15.01.2021	20:52:06	0	0	3,728359	3,0585	298,7028	0,115	85,528	0	1017,16	6,7	8,9	8,7	1	1	1	1	1	1	1	1	1	0	1	-9,795631	274,07014	310,115938	0
15.01.2021	20:52:07	0	0	3,163456	2,85225	292,608	0,119	85,533	0	1017,22	6,7	8,9	8,7	1	1	1	1	1	1	1	1	1	0	1	-8,033827	274,044826	311,759567	0
15.01.2021	20:52:08	0	0	4,971175	2,75325	293,4036	0,112	85,538	0	1017,28	6,7	8,9	8,6	1	1	1	1	1	1	1	1	1	0	1	-12,473573	274,155259	307,835605	0
15.01.2021	20:52:09	0	0	4,971145	2,83275	315,8568	0,122	85,558	0	1017,16	6,7	8,9	8,7	1	1	1	1	1	1	1	1	1	0	1	-8,386187	274,04185	311,393316	0
15.01.2021	20:52:10	0	0	4,519223	2,85225	315,9216	0,123	85,556	0	1017,2	6,7	8,9	8,7	1	1	1	1	1	1	1	1	1	0	1	-11,486963	274,093995	308,536001	0
15.01.2021	20:52:11	0	0	2,937477	2,943	311,7816	0,123	85,565	0	1017,2	6,7	8,9	8,8	1	1	1	1	1	1	1	1	1	0	1	-5,426357	274,040363	314,346202	0
15.01.2021	20:52:12	0	0	4,632203	2,946	316,7784	0,115	85,556	0	1017,22	6,8	8,9	8,7	1	1	1	1	1	1	1	1	1	0	1	-5,21494	274,146281	315,052284	0
15.01.2021	20:52:13	0	0	4,858164	2,68875	315,2304	0,115	85,55	0	1017,16	6,7	8,9	8,7	1	1	1	1	1	1	1	1	1	0	1	-7,540521	274,171729	312,845633	0
15.01.2021	20:52:14	0	0	3,276417	2,4885	305,0712	0,119	85,559	0	1017,04	6,7	8,9	8,8	1	1	1	1	1	1	1	1	1	0	1	-6,906272	274,236246	313,781558	0
15.01.2021	20:52:15	0	0	5,197106	2,52975	309,2508	0,119	85,543	0	1017,06	6,7	8,9	8,7	1	1	1	1	1	1	1	1	1	0	1	-9,090909	274,105934	310,987815	0
15.01.2021	20:52:16	0	0	4,745184	2,643	302,4576	0,116	85,564	0	1017,2	6,7	8,9	8,7	1	1	1	1	1	1	1	1	1	0	1	-8,386187	274,218219	312,217331	0
15.01.2021	20:52:17	0	0	3,050494	2,922	319,5216	0,118	85,561	0	1017,22	6,7	8,9	8,6	1	1	1	1	1	1	1	1	1	0	1	-10,218464	274,11788	309,916062	0
15.01.2021	20:52:18	0	0	2,937495	2,868	292,6044	0,118	85,558	0	1017,26	6,7	8,9	8,7	1	1	1	1	1	1	1	1	1	0	1	-4,580691	274,07014	315,330878	0
15.01.2021	20:52:19	0	0	4,406242	2,6415	279,756	0,114	85,566	0	1017,14	6,8	8,9	8,7	1	1	1	1	1	1	1	1	1	0	1	-10,007047	274,085046	309,974124	0
15.01.2021	20:52:20	0	0	2,711534	2,4525	284,4432	0,116	85,578	0	1017,22	6,8	8,9	8,7	1	1	1	1	1	1	1	1	1	0	1	-7,047216	274,050779	312,773966	0
15.01.2021	20:52:21	0	0	3,050494	2,34675	280,6416	0,112	85,563	0	1017,06	6,7	8,9	8,6	1	1	1	1	1	1	1	1	1	0	1	-13,742072	274,167235	306,623081	0
15.01.2021	20:52:22	0	0	3,954296	2,319	290,394	0,12	85,559	0	1017,16	6,7	8,9	8,8	1	1	1	1	1	1	1	1	1	0	1	-12,825934	274,219721	307,784607	0
15.01.2021	20:52:23	0	0	4,51925	2,4315	280,4976	0,124	85,59	0	1017,18	6,7	8,9	8,6	1	1	1	1	1	1	1	1	1	0	1	-13,460183	274,14329	306,793061	0
15.01.2021	20:52:24	0	0	3,389417	2,6115	293,3568	0,116	85,594	0	1017,18	6,7	8,9	8,7	1	1	1	1	1	1	1	1	1	0	1	-7,540521	274,04185	312,238982	0
15.01.2021	20:52:25	0	0	4,406268	2,8935	284,8248	0,124	85,586	0	1017,16	6,7	8,9	8,6	1	1	1	1	1	1	1	1	1	0	1	-11,839323	274,17922	308,581847	0
15.01.2021	20:52:26	0	0	4,0673	2,88525	299,79	0,118	85,579	0	1017,18	6,7	8,9	8,7	1	1	1	1	1	1	1	1	1	0	1	-10,288936	274,155259	310,020242	0
15.01.2021	20:52:27	0	0	3,389417	2,59125	303,9264	0,117	85,598	0	1017,06	6,7	8,9	8,7	1	1	1	1	1	1	1	1	1	0	1	-10,711769	274,037387	309,046904	0
15.01.2021	20:52:28	0	0	4,971115	2,4225	306,396	0,119	85,577	0	1017,24	6,8	8,9	8,8	1	1	1	1	1	1	1	1	1	0	1	-7,399577	274,11788	312,734949	0
15.01.2021	20:52:29	0	0	3,954344	2,37975	308,0916	0,123	85,603	0	1017,2	6,7	8,8	8,6	1	1	1	1	1	1	1	1	1	0	1	-8,245243	274,210713	312,323174	0
15.01.2021	20:52:30	0	0	2,937495	2,493	291,5064	0,121	85,602	0	1017,14	6,7	8,9	8,7	1	1	1	1	1	1	1	1	1	0	1	-8,386187	274,098471	311,657681	0
15.01.2021	20:52:31	0	0	3,163456	2,54025	320,4	0,126	85,603	0	1017,2	6,7	8,9	8,7	1	1	1	1	1	1	1	1	1	0	1	-6,976744	274,026978	312,733345	0
15.01.2021	20:52:32	0	0	4,180306	2,46375	290,7576	0,122	85,596	0	1017,04	6,7	8,9	8,6	1	1	1	1	1	1	1	1	1	0	1	-10,288936	274,167235	310,076217	0
15.01.2021	20:52:33	0	0	3,728381	2,6115	311,3496	0,117	85,588	0	1017,14	6,7	8,8	8,6	1	1	1	1	1	1	1	1	1	0	1	-14,869626	274,076101	305,069775	0
15.01.2021	20:52:34	0	0	3,841362	2,8695	295,164	0,12	85,591	0	1017,22	6,7	8,9	8,6	1	1	1	1	1	1	1	1	1	0	1	-5,919662	274,052268	313,90847	0
15.01.2021	20:52:35	0	0	3,502398	3,11475	305,3952	0,12	85,614	0	1017,1	6,7	8,9	8,7	1	1	1	1	1	1	1	1	1	0	1	-9,231853	274,074611	310,700589	0
15.01.2021	20:52:36	0	0	4,632203	3,165	298,008	0,124	85,62	0	1017,18	6,7	8,9	8,7	1	1	1	1	1	1	1	1	1	0	1	-6,8358	274,213715	313,746656	0
15.01.2021	20:52:37	0	0	4,858164	3,01425	291,9564	0,112	85,61	0	1017,36	6,7	8,9	8,7	1	1	1	1	1	1	1	1	1	0	1	-14,235377	274,131328	305,961976	0
15.01.2021	20:52:38	0	0	2,824514	2,8455	295,0452	0,122	85,619	0	1017,28	6,7	8,9	8,7	1	1	1	1	1	1	1	1	1	0	1	-11,205074	274,079082	308,748248	0
15.01.2021	20:52:39	0	0	3,6154	2,78775	306,3996	0,117	85,606	0	1017,2	6,7	8,9	8,6	1	1	1	1	1	1	1	1	1	0	1	-8,245243	274,186713	312,21096	0
15.01.2021	20:52:40	0	0	3,276456	2,62875	299,826	0,118	85,617	0	1017,12	6,7	8,9	8,6	1	1	1	1	1	1	1	1	1	0	1	-6,8358	274,080573	313,124483	0
15.01.2021	20:52:41	0	0	3,163456	2,52375	300,4488	0,124	85,619	0	1017,28	6,7	8,9	8,7	1	1	1	1	1	1	1	1	1	0	1	-7,963354	274,050779	311,857828	0
15.01.2021	20:52:42	0	0	4,0673	2,583	303,858	0,113	85,618	0	1017,16	6,8	8,9	8,7	1	1	1	1	1	1	1	1	1	0	1	-11,346018	274,132823	308,858319	0
15.01.2021	20:52:43	0	0	2,711534	2,67675	298,3968	0,124	85,629	0	1017,06	6,7	8,8	8,7	1	1	1	1	1	1	1	1	1	0	1	-5,778717	274,222724	314,84587	0
15.01.2021	20:52:44	0	0	4,406268	2,6865	291,1716	0,12	85,608	0	1017,16	6,7	8,9	8,6	1	1	1	1	1	1	1	1	1	0	1	-6,765328	274,167235	313,599825	0
15.01.2021	20:52:45	0	0	2,033662	2,6415	302,4288	0,114	85,622	0	1017,14	6,7	8,9	8,6	1	1	1	1	1	1	1	1	1	0	1	-9,302326	274,074611	310,630117	0
15.01.2021	20:52:46	0	0	4,632203	2,703	290,412	0,115	85,618	0	1017,08	6,7	8,9	8,7	1	1	1	1	1	1	1	1	1	0	1	-6,906272	274,20171	313,620045	0
15.01.2021	20:52:47	0	0	4,745184	2,68275	305,7228	0,122	85,621	0	1017,2	6,7	8,9	8,7	1	1	1	1	1	1	1	1	1	0	1	-7,470049	274,185214	312,979146	0
15.01.2021	20:52:48	0	0	4,745212	2,91075	290,718	0,121	85,635	0	1017,16	6,7	8,8	8,6	1	1	1	1	1	1	1	1	1	0	1	-10,500352	274,038875	309,265263	0
15.01.2021	20:52:49	0	0	3,050475	3,0315	288,4212	0,117	85,622	0	1017,12	6,7	8,9	8,7	1	1	1	1	1	1	1	1	1	0	1	-11,06413	274,06716	308,833526	0
15.01.2021	20:52:50	0	0	4,745184	3,177	293,0256	0,119	85,627	0	1017,26	6,7	8,9	8,7	1	1	1	1	1	1	1	1	1	0	1	-11,698379	274,216718	308,898118	0
15.01.2021	20:52:51	0	0	2,259625	3,2145	285,21	0,12	85,627	0	1017,22	6,7	8,9	8,6	1	1	1	1	1	1	1	1	1	0	1	-7,188161	274,086537	312,799974	0
15.01.2021	20:52:52	0	0	3,615356	3,31725	286,9524	0,125	85,624	0	1017,1	6,7	8,9	8,8	1	1	1	1	1	1	1	1	1	0	1	-9,44327	274,04185	310,336233	0
15.01.2021	20:52:53	0	0	4,632231	3,4215	301,5972	0,118	85,631	0	1017,1	6,7	8,9	8,6	1	1	1	1	1	1	1	1	1	0	1	-6,553911	274,077591	313,39245	0
15.01.2021	20:52:54	0	0	2,711534	3,37275	287,4888	0,12	85,631	0	1017,26	6,7	8,9	8,7	1	1	1	1	1	1	1	1	1	0	1	-7,188161	274,209212	313,373238	0
15.01.2021	20:52:55	0	0	3,841362	3,0945	290,6892	0,119	85,628	0	1017,14	6,7	8,9	8,6	1	1	1	1	1	1	1	1	1	0	1	-10,711769	274,141794	309,534487	0
15.01.2021	20:52:56	0	0	2,711534	2,8335	291,5028	0,121	85,633	0	1017,06	6,7	8,9	8,7	1	1	1	1	1	1	1	1	1	0	1	-8,245243	274,221223	312,372321	0
15.01.2021	20:52:57	0	0	4,858164	2,5635	287,316	0,118	85,634	0	1017,12	6,7	8,9	8,7	1	1	1	1	1	1	1	1	1	0	1	-5,567301	274,137308	314,657993	0
15.01.2021	20:52:58	0	0	3,050494	2,37825	273,5172	0,116	85,644	0	1017,04	6,8	8,9	8,6	1	1	1	1	1	1	1	1	1	0	1	-13,107822	274,043338	306,678626	0
15.01.2021	20:52:59	0	0	4,51925	2,325	284,796	0,117	85,699	0	1017,12	6,7	8,9	8,6	1	1	1	1	1	1	1	1	1	0	1	-13,107822	274,12535	307,061601	0
15.01.2021	20:53:00	0	0	4,858135	2,25825	282,78	0,122	85,65	0	1017,14	6,8	8,9	8,8	1	1	1	1	1	1	1	1	1	0	1	-7,188161	274,225728	313,450476	0
15.01.2021	20:53:01	0	0	4,858135	2,25825	282,78	0,122	85,65	0	1017,14	6,8	8,9	8,8	1	1	1	1	1	1	1	1	1	0	1	-10,218464	274,086537	309,769671	0
15.01.2021	20:53:02	0	0	3,502398	2,06175	270,9864	0,118	85,64	0	1017,08	6,7	8,9	8,7	1	1	1	1	1	1	1	1	1	0	1	-10,852713	274,12535	309,31671	0
15.01.2021	20:53:03	0	0	3,163475	1,96875	278,766	0,125	85,65	0	1017,12	6,7	8,9	8,6	1	1	1	1	1	1	1	1	1	0	1	-9,936575	274,207712	310,617806	0
15.01.2021	20:53:04	0	0	3,050475	1,9785	265,4028	0,12	85,644	0	1017,1	6,7	8,9	8,7	1	1	1	1	1	1	1	1	1	0	1	-10,641297	274,116386	309,486252	0
15.01.2021	20:53:05	0	0	2,598553	2,01225	290,3976	0,121	85,645	0	1017,12	6,7	8,9	8,7	1	1	1	1	1	1	1	1	1	0	1	-9,372798	274,043338	310,413651	0
15.01.2021	20:53:06	0	0	2,937477	1,9575	284,8176	0,12	85,658	0	1017,24	6,8	8,8	8,8	1	1	1	1	1	1	1	1	1	0	1	-8,668076	274,12535	311,501347	0
15.01.2021	20:53:07	0	0	2,711534	1,97625	294,4044	0,121	85,665	0	1017,22	6,8	8,9	8,7	1	1	1	1	1	1	1	1	1	0	1	-10,641297	274,219721	309,969245	0
15.01.2021	20:53:08	0	0	4,293261	2,05425	286,2756	0,123	85,651	0	1017,24	6,7	8,9	8,7	1	1	1	1	1	1	1	1	1	0	1	-12,262156	274,07163	307,656369	0
15.01.2021	20:53:09	0	0	4,519223	1,9785	294,8004	0,125	85,66	0	1017,24	6,7	8,8	8,7	1	1	1	1	1	1	1	1	1	0	1	-8,597604	274,206211	311,94976	0
15.01.2021	20:53:10	0	0	3,728359	1,9905	285,84	0,115	85,653	0	1017,12	6,7	8,9	8,7	1	1	1	1	1	1	1	1	1	0	1	-12,191684	274,098471	307,852185	0
15.01.2021	20:53:11	0	0	4,293261	2,03925	286,6572	0,121	85,66	0	1017,22	6,7	8,9	8,7	1	1	1	1	1	1	1	1	1	0	1	-4,087385	274,228733	316,565304	0
15.01.2021	20:53:12	0	0	3,95432	2,02275	285,4656	0,117	85,666	0	1017,2	6,7	8,9	8,7	1	1	1	1	1	1	1	1	1	0	1	-9,020437	274,155259	311,288741	0
15.01.2021	20:53:13	0	0	3,615378	1,87725	298,0656	0,112	85,651	0	1017,02	6,7	8,8	8,7	1	1	1	1	1	1	1	1	1	0	1	-13,319239	274,155259	306,989939	0
15.01.2021	20:53:14	0	0	3,95432	1,779	282,1176	0,123	85,664	0	1017,18	6,7	8,8	8,7	1	1	1	1	1	1	1	1	1	0	1	-11,486963	274,204711	309,053385	0
15.01.2021	20:53:15	0	0	4,519223	1,91625	274,6116	0,125	85,673	0	1017,06	6,7	8,9	8,7	1	1	1	1	1	1	1	1	1	0	1	-10,923185	274,098471	309,120683	0
15.01.2021	20:53:16	0	0	5,197106	2,06925	275,7132	0,122	85,678	0	1017,16	6,7	8,9	8,7	1	1	1	1	1	1	1	1	1	0	1	-9,302326	274,225728	311,336312	0
15.01.2021	20:53:17	0	0	2,824531	2,12925	275,7348	0,118	85,661	0	1017,08	6,7	8,9	8,6	1	1	1	1	1	1	1	1	1	0	1	-10,993658	274,164241	309,357498	0
15.01.2021	20:53:18	0	0	3,615378	2,13	284,418	0,12	85,673	0	1017,16	6,7	8,9	8,7	1	1	1	1	1	1	1	1	1	0	1	-8,597604	274,040363	311,174955	0
15.01.2021	20:53:19	0	0	4,745184	2,09175	286,65	0,117	85,669	0	1017,08	6,8	8,9	8,7	1	1	1	1	1	1	1	1	1	0	1	-10,993658	274,083555	308,98055	0
15.01.2021	20:53:20	0	0	3,615378	2,07075	300,7656	0,125	85,675	0	1017,04	6,7	8,9	8,7	1	1	1	1	1	1	1	1	1	0	1	-10,42988	274,224226	310,201732	0
15.01.2021	20:53:21	0	0	3,276417	2,09625	289,6056	0,129	85,684	0	1017,2	6,7	8,9	8,8	1	1	1	1	1	1	1	1	1	0	1	-8,597604	274,126844	311,578801	0
15.01.2021	20:53:22	0	0	5,197106	2,05275	297,216	0,124	85,67	0	1017,26	6,7	8,8	8,7	1	1	1	1	1	1	1	1	1	0	1	-8,245243	274,026978	311,464846	0
15.01.2021	20:53:23	0	0	4,0673	1,956	308,7288	0,114	85,679	0	1017,36	6,7	8,9	8,7	1	1	1	1	1	1	1	1	1	0	1	-10,782241	274,168733	309,589912	0
15.01.2021	20:53:24	0	0	3,502398	1,91775	319,1184	0,122	85,696	0	1017,32	6,8	8,9	8,7	1	1	1	1	1	1	1	1	1	0	1	-8,668076	274,210713	311,900341	0
15.01.2021	20:53:25	0	0	2,711534	1,914	293,7204	0,122	85,692	0	1017,14	6,7	8,9	8,7	1	1	1	1	1	1	1	1	1	0	1	-10,359408	274,101456	309,698401	0
15.01.2021	20:53:26	0	0	3,95432	1,81425	280,2636	0,121	85,671	0	1017,18	6,8	8,9	8,7	1	1	1	1	1	1	1	1	1	0	1	-7,892882	274,221223	312,724682	0
15.01.2021	20:53:27	0	0	4,180281	1,87275	280,9584	0,122	85,678	0	1017,14	6,7	8,9	8,7	1	1	1	1	1	1	1	1	1	0	1	-9,44327	274,050779	310,377913	0
15.01.2021	20:53:28	0	0	3,050475	1,87125	304,2576	0,116	85,692	0	1017,16	6,7	8,9	8,7	1	1	1	1	1	1	1	1	1	0	1	-12,191684	274,044826	307,60171	0
15.01.2021	20:53:29	0	0	5,310087	1,824	287,4852	0,117	85,694	0	1017,1	6,7	8,9	8,7	1	1	1	1	1	1	1	1	1	0	1	-13,178295	274,182217	307,256887	0
15.01.2021	20:53:30	0	0	4,745212	1,8	295,5456	0,121	85,696	0	1017,16	6,7	8,9	8,6	1	1	1	1	1	1	1	1	1	0	1	-7,117689	274,038875	312,647927	0
15.01.2021	20:53:31	0	0	4,293287	1,90125	288,0828	0,121	85,706	0	1017,22	6,7	8,9	8,6	1	1	1	1	1	1	1	1	1	0	1	-5,21494	274,101456	314,842869	0
15.01.2021	20:53:32	0	0	4,293261	2,016	291,492	0,117	85,691	0	1017,12	6,7	8,9	8,7	1	1	1	1	1	1	1	1	1	0	1	-11,134602	274,206211	309,412762	0
15.01.2021	20:53:33	0	0	3,841339	2,1585	286,9632	0,118	85,702	0	1017,3	6,7	8,8	8,7	1	1	1	1	1	1	1	1	1	0	1	-11,41649	274,06865	308,488121	0
15.01.2021	20:53:34	0	0	3,502398	2,38425	291,8736	0,121	85,706	0	1017,44	6,7	8,9	8,7	1	1	1	1	1	1	1	1	1	0	1	-7,610994	274,230235	313,048722	0
15.01.2021	20:53:35	0	0	4,632203	2,48775	303,9264	0,117	85,709	0	1017,2	6,7	8,9	8,7	1	1	1	1	1	1	1	1	1	0	1	-10,42988	274,107427	309,655817	0
15.01.2021	20:53:36	0	0	3,728359	2,52375	298,6704	0,119	85,681	0	1017,24	6,7	8,8	8,7	1	1	1	1	1	1	1	1	1	0	1	-10,993658	274,037387	308,765015	0
15.01.2021	20:53:37	0	0	4,632203	2,61375	304,2684	0,115	85,7	0	1017,16	6,7	8,8	8,7	1	1	1	1	1	1	1	1	1	0	1	-12,191684	274,182217	308,243497	0
15.01.2021	20:53:38	0	0	5,084125	2,703	297,9252	0,114	85,691	0	1017,02	6,7	8,9	8,7	1	1	1	1	1	1	1	1	1	0	1	-11,839323	274,185214	308,609872	0
15.01.2021	20:53:39	0	0	4,0673	2,76525	300,9132	0,12	85,696	0	1017,24	6,8	8,9	8,7	1	1	1	1	1	1	1	1	1	0	1	-6,765328	274,047803	313,041959	0
15.01.2021	20:53:40	0	0	4,406268	2,871	305,37	0,116	85,7	0	1017,16	6,7	8,8	8,6	1	1	1	1	1	1	1	1	1	0	1	-10,782241	274,17922	309,63893	0
15.01.2021	20:53:41	0	0	3,841339	2,91825	312,8292	0,113	85,7	0	1017,06	6,8	8,9	8,7	1	1	1	1	1	1	1	1	1	0	1	-8,104299	274,026978	311,605791	0
15.01.2021	20:53:42	0	0	3,728359	2,93775	303,2856	0,12	85,706	0	1017,24	6,8	8,9	8,7	1	1	1	1	1	1	1	1	1	0	1	-6,060606	274,188213	314,402605	0
15.01.2021	20:53:43	0	0	3,95432	2,949	310,2912	0,12	85,71	0	1017,26	6,8	8,9	8,7	1	1	1	1	1	1	1	1	1	0	1	-5,496829	274,167235	314,868324	0
15.01.2021	20:53:44	0	0	2,711534	2,93625	308,4408	0,113	85,704	0	1017,14	6,7	8,8	8,7	1	1	1	1	1	1	1	1	1	0	1	-7,82241	274,06567	312,06829	0
15.01.2021	20:53:45	0	0	2,711534	2,9535	300,8232	0,112	85,697	0	1016,96	6,7	8,9	8,7	1	1	1	1	1	1	1	1	1	0	1	-9,020437	274,074611	310,912005	0
15.01.2021	20:53:46	0	0	4,858164	2,81175	297,6084	0,121	85,699	0	1017,18	6,7	8,9	8,7	1	1	1	1	1	1	1	1	1	0	1	-8,597604	274,222724	312,026984	0
15.01.2021	20:53:47	0	0	2,824531	2,631	295,182	0,118	85,692	0	1017,26	6,8	8,8	8,6	1	1	1	1	1	1	1	1	1	0	1	-8,033827	274,110413	312,065818	0
15.01.2021	20:53:48	0	0	4,293261	2,613	296,1864	0,116	85,7	0	1017,14	6,8	8,9	8,7	1	1	1	1	1	1	1	1	1	0	1	-13,812544	274,216718	306,783953	0
15.01.2021	20:53:49	0	0	3,163456	2,58	290,124	0,12	85,702	0	1017,2	6,7	8,9	8,7	1	1	1	1	1	1	1	1	1	0	1	-8,949965	274,06865	310,954647	0
15.01.2021	20:53:50	0	0	2,598553	2,532	278,8308	0,118	85,694	0	1017,1	6,8	8,9	8,7	1	1	1	1	1	1	1	1	1	0	1	-8,879493	274,07312	311,045991	0
15.01.2021	20:53:51	0	0	3,728359	2,4225	285,1632	0,129	85,715	0	1017,3	6,8	8,9	8,7	1	1	1	1	1	1	1	1	1	0	1	-9,725159	274,055245	310,116873	0
15.01.2021	20:53:52	0	0	4,632175	2,32725	279,8964	0,119	85,701	0	1017,22	6,7	8,8	8,8	1	1	1	1	1	1	1	1	1	0	1	-8,386187	274,158252	311,93698	0
15.01.2021	20:53:53	0	0	2,937495	2,27175	281,3976	0,119	85,707	0	1017,26	6,8	8,9	8,7	1	1	1	1	1	1	1	1	1	0	1	-9,584214	274,043338	310,202234	0
15.01.2021	20:53:54	0	0	3,276417	2,21025	280,9656	0,116	85,714	0	1016,92	6,8	8,9	8,8	1	1	1	1	1	1	1	1	1	0	1	-6,906272	274,111906	313,200348	0
15.01.2021	20:53:55	0	0	5,084125	2,12775	273,8556	0,116	85,713	0	1017,16	6,7	8,9	8,7	1	1	1	1	1	1	1	1	1	0	1	-7,117689	274,239252	313,584203	0
15.01.2021	20:53:56	0	0	2,937512	2,10975	277,1784	0,116	85,726	0	1017,34	6,7	8,9	8,6	1	1	1	1	1	1	1	1	1	0	1	-7,470049	274,131328	312,727304	0
15.01.2021	20:53:57	0	0	3,050475	2,1225	272,5236	0,12	85,716	0	1017,18	6,8	8,9	8,7	1	1	1	1	1	1	1	1	1	0	1	-9,090909	274,034413	310,653879	0
15.01.2021	20:53:58	0	0	3,95432	2,20575	279,8784	0,118	85,704	0	1017,22	6,8	8,9	8,7	1	1	1	1	1	1	1	1	1	0	1	-12,755462	274,20171	307,770855	0
15.01.2021	20:53:59	0	0	4,858164	2,32275	279,918	0,12	85,719	0	1017,3	6,7	8,9	8,7	1	1	1	1	1	1	1	1	1	0	1	-8,033827	274,215217	312,55565	0
15.01.2021	20:54:00	0	0	2,711534	2,36925	293,7312	0,116	85,723	0	1017,16	6,7	8,8	8,7	1	1	1	1	1	1	1	1	1	0	1	-6,976744	274,076101	312,962657	0
15.01.2021	20:54:01	0	0	5,197106	2,39475	279,5112	0,109	85,713	0	1017,2	6,7	8,9	8,7	1	1	1	1	1	1	1	1	1	0	1	-13,812544	274,167235	306,552609	0
15.01.2021	20:54:02	0	0	4,067276	2,34	279,8532	0,117	85,719	0	1017,22	6,7	8,9	8,8	1	1	1	1	1	1	1	1	1	0	1	-9,161381	274,188213	311,30183	0
15.01.2021	20:54:03	0	0	3,050475	2,25225	280,3032	0,117	85,724	0	1017,2	6,7	8,9	8,7	1	1	1	1	1	1	1	1	1	0	1	-12,191684	274,061202	307,678154	0
15.01.2021	20:54:04	0	0	3,95432	2,1615	282,4632	0,119	85,718	0	1017,14	6,8	8,8	8,7	1	1	1	1	1	1	1	1	1	0	1	-9,866103	274,170231	310,513051	0
15.01.2021	20:54:05	0	0	3,276436	2,17575	292,9248	0,115	85,703	0	1017,24	6,7	8,8	8,7	1	1	1	1	1	1	1	1	1	0	1	-8,104299	274,206211	312,443065	0
15.01.2021	20:54:06	0	0	2,711534	2,18175	285,1416	0,114	85,699	0	1017,14	6,7	8,9	8,7	1	1	1	1	1	1	1	1	1	0	1	-8,174771	274,155259	312,134407	0
15.01.2021	20:54:07	0	0	4,406242	2,13375	279,8532	0,12	85,726	0	1017,22	6,7	8,9	8,7	1	1	1	1	1	1	1	1	1	0	1	-6,553911	274,046314	313,246429	0
15.01.2021	20:54:08	0	0	4,632231	2,05725	286,2576	0,121	85,718	0	1017,24	6,7	8,8	8,6	1	1	1	1	1	1	1	1	1	0	1	-9,44327	274,168733	310,928883	0
15.01.2021	20:54:09	0	0	4,632203	2,13225	296,4996	0,12	85,741	0	1017,28	6,7	8,8	8,7	1	1	1	1	1	1	1	1	1	0	1	-9,090909	274,210713	311,477508	0
15.01.2021	20:54:10	0	0	2,937495	2,16525	287,3952	0,115	85,731	0	1017,24	6,7	8,8	8,7	1	1	1	1	1	1	1	1	1	0	1	-10,923185	274,074611	309,009257	0
15.01.2021	20:54:11	0	0	3,841362	2,15475	295,596	0,115	85,728	0	1017,04	6,8	8,9	8,6	1	1	1	1	1	1	1	1	1	0	1	-6,976744	274,031438	312,754163	0
15.01.2021	20:54:12	0	0	3,050494	2,1765	281,412	0,112	85,734	0	1017,16	6,7	8,9	8,6	1	1	1	1	1	1	1	1	1	0	1	-9,44327	274,134318	310,768052	0
15.01.2021	20:54:13	0	0	3,728359	2,13225	279,4716	0,117	85,733	0	1017,3	6,8	8,8	8,7	1	1	1	1	1	1	1	1	1	0	1	-6,20155	274,04185	313,577953	0
15.01.2021	20:54:14	0	0	2,598553	2,1795	273,222	0,122	85,736	0	1017,08	6,7	8,8	8,7	1	1	1	1	1	1	1	1	1	0	1	-5,496829	274,161246	314,840331	0
15.01.2021	20:54:15	0	0	4,632203	2,12475	288,8208	0,118	85,732	0	1017,14	6,8	8,8	8,7	1	1	1	1	1	1	1	1	1	0	1	-5,003524	274,044826	314,78987	0
15.01.2021	20:54:16	0	0	4,406242	2,088	280,278	0,113	85,729	0	1017,02	6,8	8,9	8,7	1	1	1	1	1	1	1	1	1	0	1	-9,866103	274,144785	310,394131	0
15.01.2021	20:54:17	0	0	3,050475	1,9935	295,5888	0,117	85,749	0	1017,1	6,8	8,9	8,7	1	1	1	1	1	1	1	1	1	0	1	-7,047216	274,059713	312,815669	0
15.01.2021	20:54:18	0	0	4,180281	2,01375	282,4056	0,123	85,74	0	1017,26	6,8	8,8	8,7	1	1	1	1	1	1	1	1	1	0	1	-7,751938	274,212214	312,823498	0
15.01.2021	20:54:19	0	0	4,180281	2,088	303,174	0,11	85,739	0	1017,2	6,8	9	8,7	1	1	1	1	1	1	1	1	1	0	1	-10,923185	274,050779	308,897997	0
15.01.2021	20:54:20	0	0	4,858164	1,97325	292,1436	0,121	85,725	0	1017,22	6,8	8,9	8,7	1	1	1	1	1	1	1	1	1	0	1	-7,681466	274,137308	312,543828	0
15.01.2021	20:54:21	0	0	4,971145	1,71975	270,6156	0,119	85,741	0	1017,18	6,7	8,8	8,7	1	1	1	1	1	1	1	1	1	0	1	-5,990134	274,204711	314,550214	0
15.01.2021	20:54:22	0	0	4,632203	1,4925	285,1704	0,11	85,728	0	1017,16	6,7	8,8	8,7	1	1	1	1	1	1	1	1	1	0	1	-8,597604	274,031438	311,133303	0
15.01.2021	20:54:23	0	0	4,632203	1,368	285,4728	0,117	85,731	0	1017,06	6,7	8,8	8,7	1	1	1	1	1	1	1	1	1	0	1	-9,936575	274,137308	310,288719	0
15.01.2021	20:54:24	0	0	2,937495	1,40925	269,9208	0,119	85,74	0	1017,2	6,7	8,9	8,7	1	1	1	1	1	1	1	1	1	0	1	-6,976744	274,228733	313,675945	0
15.01.2021	20:54:25	0	0	3,502398	1,5225	275,4108	0,117	85,737	0	1017,18	6,8	8,8	8,7	1	1	1	1	1	1	1	1	1	0	1	-10,570825	274,12535	309,598599	0
15.01.2021	20:54:26	0	0	4,519223	1,71825	276,822	0,117	85,754	0	1017,26	6,7	8,9	8,7	1	1	1	1	1	1	1	1	1	0	1	-9,231853	274,192711	311,252387	0
15.01.2021	20:54:27	0	0	4,293261	1,869	286,3008	0,12	85,748	0	1017,22	6,7	8,9	8,7	1	1	1	1	1	1	1	1	1	0	1	-11,980268	274,095487	308,049664	0
15.01.2021	20:54:28	0	0	2,259611	1,836	280,1628	0,123	85,758	0	1017,12	6,8	8,8	8,7	1	1	1	1	1	1	1	1	1	0	1	-11,275546	274,213715	309,30691	0
15.01.2021	20:54:29	0	0	3,728359	1,7865	261,3564	0,118	85,755	0	1016,98	6,8	8,8	8,7	1	1	1	1	1	1	1	1	1	0	1	-9,795631	274,149273	310,485575	0
15.01.2021	20:54:30	0	0	2,485572	1,71675	265,4208	0,114	85,742	0	1017,08	6,8	8,9	8,7	1	1	1	1	1	1	1	1	1	0	1	-8,174771	274,043338	311,611677	0
15.01.2021	20:54:31	0	0	4,745184	1,62075	264,6828	0,115	85,732	0	1017,1	6,7	8,9	8,7	1	1	1	1	1	1	1	1	1	0	1	-13,460183	274,11788	306,674343	0
15.01.2021	20:54:32	0	0	4,519195	1,812	271,3968	0,114	85,743	0	1017,04	6,7	8,8	8,8	1	1	1	1	1	1	1	1	1	0	1	-7,258633	274,213715	313,323823	0
15.01.2021	20:54:33	0	0	3,615378	2,0805	280,3752	0,112	85,743	0	1017,1	6,8	8,9	8,7	1	1	1	1	1	1	1	1	1	0	1	-6,483439	274,105934	313,595285	0
15.01.2021	20:54:34	0	0	3,841339	2,565	282,1032	0,12	85,769	0	1017,28	6,8	8,9	8,7	1	1	1	1	1	1	1	1	1	0	1	-8,245243	274,037387	311,513429	0
15.01.2021	20:54:35	0	0	3,276436	2,85675	281,0268	0,106	85,755	0	1017,12	6,8	8,8	8,7	1	1	1	1	1	1	1	1	1	0	1	-9,231853	274,061202	310,637985	0
15.01.2021	20:54:36	0	0	4,632203	2,93175	288,0756	0,119	85,763	0	1017,16	6,8	8,8	8,7	1	1	1	1	1	1	1	1	1	0	1	-8,738548	274,186713	311,717655	0
15.01.2021	20:54:37	0	0	4,293261	2,982	300,87	0,113	85,752	0	1017,22	6,7	8,8	8,7	1	1	1	1	1	1	1	1	1	0	1	-8,386187	274,025491	311,316964	0
15.01.2021	20:54:38	0	0	3,841339	2,8965	291,8736	0,115	85,762	0	1017,16	6,8	8,9	8,7	1	1	1	1	1	1	1	1	1	0	1	-8,879493	274,07014	311,032076	0
15.01.2021	20:54:39	0	0	4,745184	2,81775	294,8256	0,112	85,756	0	1017,18	6,7	8,8	8,7	1	1	1	1	1	1	1	1	1	0	1	-10,077519	274,209212	310,483879	0
15.01.2021	20:54:40	0	0	2,259611	2,77125	296,8524	0,114	85,764	0	1017,18	6,8	8,9	8,7	1	1	1	1	1	1	1	1	1	0	1	-9,725159	274,058223	310,130775	0
15.01.2021	20:54:41	0	0	2,598553	2,9415	293,004	0,115	85,764	0	1017,2	6,7	8,8	8,7	1	1	1	1	1	1	1	1	1	0	1	-9,725159	274,20171	310,801158	0
15.01.2021	20:54:42	0	0	2,259611	3,05025	287,7696	0,116	85,767	0	1017,32	6,8	8,8	8,7	1	1	1	1	1	1	1	1	1	0	1	-7,82241	274,099963	312,228428	0
15.01.2021	20:54:43	0	0	2,485572	3,213	295,506	0,113	85,752	0	1016,92	6,8	8,9	8,7	1	1	1	1	1	1	1	1	1	0	1	-10,147992	274,032925	309,589856	0
15.01.2021	20:54:44	0	0	4,971145	3,21375	293,364	0,112	85,781	0	1017,12	6,7	8,8	8,7	1	1	1	1	1	1	1	1	1	0	1	-7,258633	274,144785	313,001601	0
15.01.2021	20:54:45	0	0	4,519223	3,18075	293,3388	0,116	85,763	0	1017,26	6,8	8,9	8,7	1	1	1	1	1	1	1	1	1	0	1	-6,765328	274,204711	313,77502	0
15.01.2021	20:54:46	0	0	2,485572	3,2235	295,5492	0,116	85,772	0	1017,24	6,8	8,8	8,7	1	1	1	1	1	1	1	1	1	0	1	-9,584214	274,080573	310,376069	0
15.01.2021	20:54:47	0	0	2,711534	3,267	297,5688	0,109	85,764	0	1017,14	6,8	8,9	8,7	1	1	1	1	1	1	1	1	1	0	1	-9,654686	274,0359	310,097044	0
15.01.2021	20:54:48	0	0	2,711534	3,26625	298,9908	0,116	85,787	0	1017,42	6,8	8,9	8,7	1	1	1	1	1	1	1	1	1	0	1	-10,500352	274,174725	309,899807	0
15.01.2021	20:54:49	0	0	4,293261	3,1695	291,51	0,105	85,761	0	1017,02	6,8	8,8	8,7	1	1	1	1	1	1	1	1	1	0	1	-10,288936	274,06865	309,615676	0
15.01.2021	20:54:50	0	0	2,711534	2,85825	292,5864	0,111	85,751	0	1017,2	6,8	8,8	8,7	1	1	1	1	1	1	1	1	1	0	1	-10,007047	274,19571	310,491216	0
15.01.2021	20:54:51	0	0	4,971145	2,63475	294,372	0,117	85,776	0	1017,1	6,8	8,8	8,7	1	1	1	1	1	1	1	1	1	0	1	-9,020437	274,186713	311,435766	0
15.01.2021	20:54:52	0	0	3,050475	2,595	308,9448	0,111	85,776	0	1017,16	6,8	8,8	8,7	1	1	1	1	1	1	1	1	1	0	1	-10,923185	274,174725	309,476974	0
15.01.2021	20:54:53	0	0	4,745184	2,517	301,5576	0,12	85,783	0	1017,18	6,8	8,9	8,7	1	1	1	1	1	1	1	1	1	0	1	-10,570825	274,061202	309,299014	0
15.01.2021	20:54:54	0	0	4,745184	2,40825	288,8712	0,117	85,784	0	1017,4	6,7	8,8	8,7	1	1	1	1	1	1	1	1	1	0	1	-9,372798	274,028464	310,34423	0
15.01.2021	20:54:55	0	0	3,502398	2,29875	297,5004	0,117	85,784	0	1017,14	6,8	8,8	8,7	1	1	1	1	1	1	1	1	1	0	1	-7,892882	274,168733	312,479271	0
15.01.2021	20:54:56	0	0	2,824514	2,32575	294,7716	0,113	85,807	0	1017,64	6,8	8,8	8,7	1	1	1	1	1	1	1	1	1	0	1	-7,82241	274,222724	312,802178	0
15.01.2021	20:54:57	0	0	4,180281	2,21175	310,5612	0,111	85,79	0	1017,28	6,8	8,8	8,7	1	1	1	1	1	1	1	1	1	0	1	-10,218464	274,168733	310,153689	0
15.01.2021	20:54:58	0	0	4,519223	2,09775	297,5652	0,115	85,769	0	1017,24	6,8	8,8	8,7	1	1	1	1	1	1	1	1	1	0	1	-10,147992	274,167235	310,217162	0
15.01.2021	20:54:59	0	0	2,711534	2,04375	314,4348	0,114	85,783	0	1017,18	6,8	8,9	8,7	1	1	1	1	1	1	1	1	1	0	1	-11,698379	274,06567	308,192321	0
15.01.2021	20:55:00	0	0	2,598553	2,16	315,1872	0,114	85,777	0	1017,32	6,8	8,8	8,7	1	1	1	1	1	1	1	1	1	0	1	-6,694856	274,059713	313,16803	0
15.01.2021	20:55:01	0	0	3,389417	2,2305	310,9788	0,111	85,781	0	1017,16	6,8	8,8	8,7	1	1	1	1	1	1	1	1	1	0	1	-11,346018	274,037387	308,412654	0
15.01.2021	20:55:02	0	0	4,519223	2,2695	312,4872	0,112	85,778	0	1017,26	6,8	8,8	8,7	1	1	1	1	1	1	1	1	1	0	1	-9,866103	274,113399	310,247492	0
15.01.2021	20:55:03	0	0	2,485572	2,3115	307,1592	0,117	85,789	0	1017,16	6,8	8,8	8,7	1	1	1	1	1	1	1	1	1	0	1	-5,990134	274,021032	313,692208	0
15.01.2021	20:55:04	0	0	3,95432	2,403	300,7368	0,107	85,773	0	1017,12	6,8	8,8	8,7	1	1	1	1	1	1	1	1	1	0	1	-12,544045	274,176223	307,863117	0
15.01.2021	20:55:05	0	0	3,050475	2,388	298,7244	0,11	85,781	0	1017,16	6,8	8,8	8,7	1	1	1	1	1	1	1	1	1	0	1	-7,892882	274,204711	312,647465	0
15.01.2021	20:55:06	0	0	2,937495	2,34375	303,498	0,109	85,792	0	1017,14	6,8	8,8	8,7	1	1	1	1	1	1	1	1	1	0	1	-6,483439	274,06865	313,421173	0
15.01.2021	20:55:07	0	0	5,423067	2,27625	296,8344	0,109	85,777	0	1017,12	6,8	8,8	8,7	1	1	1	1	1	1	1	1	1	0	1	-6,624383	274,19421	313,866868	0
15.01.2021	20:55:08	0	0	4,519223	2,20125	293,3532	0,113	85,792	0	1017,22	6,7	8,8	8,7	1	1	1	1	1	1	1	1	1	0	1	-7,047216	274,20021	313,472086	0
15.01.2021	20:55:09	0	0	4,0673	2,17875	300,2328	0,106	85,774	0	1017	6,8	8,9	8,7	1	1	1	1	1	1	1	1	1	0	1	-8,738548	274,105934	311,340176	0
15.01.2021	20:55:10	0	0	4,0673	2,151	288,4104	0,105	85,794	0	1017,26	6,7	8,8	8,7	1	1	1	1	1	1	1	1	1	0	1	-10,42988	274,216718	310,166617	0
15.01.2021	20:55:11	0	0	4,519223	2,17275	293,7456	0,108	85,785	0	1017,2	6,7	8,8	8,7	1	1	1	1	1	1	1	1	1	0	1	-9,725159	274,128339	310,458229	0
15.01.2021	20:55:12	0	0	2,824514	2,1645	286,29	0,108	85,791	0	1017,18	6,8	8,8	8,7	1	1	1	1	1	1	1	1	1	0	1	-9,584214	274,210713	310,984203	0
15.01.2021	20:55:13	0	0	2,03365	2,19075	293,688	0,111	85,797	0	1017,24	6,8	8,8	8,7	1	1	1	1	1	1	1	1	1	0	1	-8,45666	274,15077	311,831538	0
15.01.2021	20:55:14	0	0	4,406242	2,27325	274,9968	0,112	85,795	0	1017,22	6,8	8,8	8,7	1	1	1	1	1	1	1	1	1	0	1	-7,047216	274,07163	312,871309	0
15.01.2021	20:55:15	0	0	4,293261	2,27775	286,6284	0,113	85,788	0	1017,24	6,8	8,8	8,7	1	1	1	1	1	1	1	1	1	0	1	-11,627907	274,031438	308,103	0
15.01.2021	20:55:16	0	0	3,276436	2,22225	267,3504	0,107	85,798	0	1017,16	6,7	8,8	8,7	1	1	1	1	1	1	1	1	1	0	1	-11,346018	274,120867	308,802465	0
15.01.2021	20:55:17	0	0	3,276436	2,05575	274,6836	0,109	85,789	0	1017,16	6,8	8,9	8,7	1	1	1	1	1	1	1	1	1	0	1	-11,41649	274,204711	309,123857	0
15.01.2021	20:55:18	0	0	4,858164	1,97475	276,1668	0,111	85,799	0	1017,22	6,7	8,9	8,7	1	1	1	1	1	1	1	1	1	0	1	-8,668076	274,128339	311,515311	0
15.01.2021	20:55:19	0	0	4,406242	1,89225	272,448	0,114	85,811	0	1017,28	6,8	8,8	8,7	1	1	1	1	1	1	1	1	1	0	1	-7,892882	274,026978	311,817207	0
15.01.2021	20:55:20	0	0	2,485572	1,776	275,004	0,112	85,819	0	1017,12	6,8	8,8	8,7	1	1	1	1	1	1	1	1	1	0	1	-6,976744	274,077591	312,969617	0
15.01.2021	20:55:21	0	0	3,050475	1,7985	278,4024	0,106	85,797	0	1017,02	6,8	8,9	8,7	1	1	1	1	1	1	1	1	1	0	1	-7,82241	274,047803	311,984877	0
15.01.2021	20:55:22	0	0	4,406242	1,9275	285,8652	0,12	85,812	0	1017,38	6,8	8,8	8,7	1	1	1	1	1	1	1	1	1	0	1	-11,768851	274,20171	308,757466	0
15.01.2021	20:55:23	0	0	4,406242	1,977	281,394	0,111	85,813	0	1017,2	6,8	8,8	8,7	1	1	1	1	1	1	1	1	1	0	1	-7,329105	274,095487	312,700826	0
15.01.2021	20:55:24	0	0	4,293261	2,01	285,822	0,114	85,818	0	1017,16	6,8	8,8	8,7	1	1	1	1	1	1	1	1	1	0	1	-4,721635	274,19721	315,783641	0
15.01.2021	20:55:25	0	0	2,824514	1,983	281,2968	0,109	85,816	0	1017,1	6,8	8,9	8,7	1	1	1	1	1	1	1	1	1	0	1	-7,329105	274,06567	312,561595	0
15.01.2021	20:55:26	0	0	3,163456	1,9155	283,536	0,112	85,825	0	1017,02	6,8	8,8	8,7	1	1	1	1	1	1	1	1	1	0	1	-7,399577	274,19421	313,091675	0
15.01.2021	20:55:27	0	0	3,841339	1,983	286,254	0,108	85,816	0	1017,16	6,8	8,8	8,7	1	1	1	1	1	1	1	1	1	0	1	-6,20155	274,116386	313,925998	0
15.01.2021	20:55:28	0	0	3,163456	2,02575	284,418	0,111	85,821	0	1017,18	6,8	8,8	8,7	1	1	1	1	1	1	1	1	1	0	1	-11,06413	274,026978	308,64596	0
15.01.2021	20:55:29	0	0	3,728359	2,08725	283,626	0,107	85,817	0	1017,2	6,7	8,8	8,7	1	1	1	1	1	1	1	1	1	0	1	-8,879493	274,093995	311,143471	0
15.01.2021	20:55:30	0	0	3,389417	2,1345	306,1044	0,111	85,83	0	1017,24	6,8	8,9	8,7	1	1	1	1	1	1	1	1	1	0	1	-10,42988	274,034413	309,314908	0
15.01.2021	20:55:31	0	0	3,502398	2,061	298,9944	0,11	85,83	0	1017,16	6,8	8,8	8,7	1	1	1	1	1	1	1	1	1	0	1	-13,107822	274,19871	307,404467	0
15.01.2021	20:55:32	0	0	3,615378	1,94175	304,686	0,103	85,829	0	1017,06	6,8	8,8	8,7	1	1	1	1	1	1	1	1	1	0	1	-9,44327	274,149273	310,837936	0
15.01.2021	20:55:33	0	0	4,293261	1,926	296,4924	0,111	85,832	0	1017,14	6,8	8,8	8,7	1	1	1	1	1	1	1	1	1	0	1	-9,161381	274,20171	311,364936	0
15.01.2021	20:55:34	0	0	3,841339	1,89825	301,1112	0,111	85,834	0	1017,24	6,8	8,8	8,7	1	1	1	1	1	1	1	1	1	0	1	-9,936575	274,052268	309,891557	0
15.01.2021	20:55:35	0	0	2,824514	1,8135	301,1004	0,11	85,829	0	1017,08	6,8	8,8	8,7	1	1	1	1	1	1	1	1	1	0	1	-8,597604	274,06716	311,300052	0
15.01.2021	20:55:36	0	0	2,598553	1,728	300,1752	0,111	85,82	0	1017,08	6,8	8,9	8,7	1	1	1	1	1	1	1	1	1	0	1	-8,738548	274,044826	311,054846	0
15.01.2021	20:55:37	0	0	4,858164	1,692	298,6524	0,107	85,843	0	1017,16	6,8	8,9	8,7	1	1	1	1	1	1	1	1	1	0	1	-6,765328	274,080573	313,194956	0
15.01.2021	20:55:38	0	0	4,0673	1,70175	287,7732	0,114	85,847	0	1017,3	6,8	8,8	8,7	1	1	1	1	1	1	1	1	1	0	1	-13,742072	274,19571	306,756192	0
15.01.2021	20:55:39	0	0	4,745184	1,72275	305,7444	0,109	85,84	0	1017,16	6,8	8,8	8,7	1	1	1	1	1	1	1	1	1	0	1	-9,302326	274,137308	310,922968	0
15.01.2021	20:55:40	0	0	2,598553	1,63875	294,1056	0,111	85,832	0	1017,08	6,7	8,8	8,7	1	1	1	1	1	1	1	1	1	0	1	-10,359408	274,20021	310,159895	0
15.01.2021	20:55:41	0	0	4,858164	1,60575	284,8104	0,107	85,839	0	1017,14	6,8	8,8	8,7	1	1	1	1	1	1	1	1	1	0	1	-7,047216	274,098471	312,996652	0
15.01.2021	20:55:42	0	0	3,728359	1,81275	288,9072	0,114	85,845	0	1017,06	6,8	8,8	8,7	1	1	1	1	1	1	1	1	1	0	1	-7,188161	274,158252	313,135007	0
15.01.2021	20:55:43	0	0	4,180281	1,983	300,4776	0,113	85,847	0	1017,22	6,8	8,8	8,7	1	1	1	1	1	1	1	1	1	0	1	-7,258633	274,158252	313,064535	0
15.01.2021	20:55:44	0	0	4,858164	1,93575	302,4612	0,105	85,835	0	1017,18	6,8	8,8	8,7	1	1	1	1	1	1	1	1	1	0	1	-6,553911	274,177721	313,860255	0
15.01.2021	20:55:45	0	0	2,711534	1,85025	290,3724	0,109	85,838	0	1017,34	6,7	8,8	8,7	1	1	1	1	1	1	1	1	1	0	1	-7,540521	274,180718	312,887654	0
15.01.2021	20:55:46	0	0	3,841339	1,7175	297,1728	0,106	85,848	0	1017,06	6,8	8,8	8,7	1	1	1	1	1	1	1	1	1	0	1	-11,768851	274,167235	308,596302	0
15.01.2021	20:55:47	0	0	4,406242	1,6245	292,9752	0,112	85,844	0	1017,12	6,8	8,8	8,7	1	1	1	1	1	1	1	1	1	0	1	-7,540521	274,212214	313,034915	0
15.01.2021	20:55:48	0	0	4,406242	1,58775	279,576	0,113	85,846	0	1017,28	6,8	8,8	8,7	1	1	1	1	1	1	1	1	1	0	1	-11,768851	274,105934	308,309873	0
15.01.2021	20:55:49	0	0	4,0673	1,59375	274,9644	0,113	85,844	0	1017,16	6,8	8,9	8,7	1	1	1	1	1	1	1	1	1	0	1	-7,610994	274,031438	312,119913	0
15.01.2021	20:55:50	0	0	4,519223	1,548	289,5948	0,11	85,867	0	1017,2	6,8	8,8	8,7	1	1	1	1	1	1	1	1	1	0	1	-11,205074	274,111906	308,901546	0
15.01.2021	20:55:51	0	0	2,937495	1,497	309,5316	0,11	85,854	0	1017,26	6,8	8,8	8,7	1	1	1	1	1	1	1	1	1	0	1	-9,584214	274,026978	310,125875	0
15.01.2021	20:55:52	0	0	2,372592	1,5405	297,2628	0,112	85,864	0	1017,2	6,8	8,8	8,7	1	1	1	1	1	1	1	1	1	0	1	-13,389711	274,083555	306,584497	0
15.01.2021	20:55:53	0	0	4,180281	1,5435	294,4296	0,11	85,873	0	1017,3	6,8	8,8	8,7	1	1	1	1	1	1	1	1	1	0	1	-7,329105	274,040363	312,443454	0
15.01.2021	20:55:54	0	0	4,180281	1,54575	292,986	0,105	85,86	0	1017,24	6,8	8,8	8,7	1	1	1	1	1	1	1	1	1	0	1	-9,513742	274,034413	310,231046	0
15.01.2021	20:55:55	0	0	3,728359	1,49325	286,2252	0,106	85,866	0	1017,18	6,7	8,9	8,7	1	1	1	1	1	1	1	1	1	0	1	-9,090909	274,113399	311,022686	0
15.01.2021	20:55:56	0	0	5,084125	1,41	274,9788	0,109	85,86	0	1017,18	6,7	8,8	8,7	1	1	1	1	1	1	1	1	1	0	1	-13,601128	274,024005	306,095087	0
15.01.2021	20:55:57	0	0	3,615378	1,3935	281,3508	0,102	85,855	0	1017,02	6,8	8,8	8,7	1	1	1	1	1	1	1	1	1	0	1	-9,584214	274,058223	310,271719	0
15.01.2021	20:55:58	0	0	3,163456	1,45875	282,2508	0,111	85,872	0	1017,34	6,8	8,8	8,7	1	1	1	1	1	1	1	1	1	0	1	-7,188161	274,180718	313,240015	0
15.01.2021	20:55:59	0	0	2,824514	1,47	288,774	0,105	85,87	0	1017,2	6,8	8,8	8,7	1	1	1	1	1	1	1	1	1	0	1	-9,302326	274,086537	310,685809	0
15.01.2021	20:56:00	0	0	3,841339	1,455	297,1584	0,105	85,861	0	1017,04	6,8	8,8	8,7	1	1	1	1	1	1	1	1	1	0	1	-12,896406	274,207712	307,657975	0
15.01.2021	20:56:01	0	0	4,519223	1,55325	302,022	0,111	85,879	0	1017,22	6,8	8,8	8,7	1	1	1	1	1	1	1	1	1	0	1	-7,610994	274,104441	312,460758	0
15.01.2021	20:56:02	0	0	4,632203	1,701	302,1228	0,11	85,888	0	1017,16	6,8	8,8	8,7	1	1	1	1	1	1	1	1	1	0	1	-9,584214	274,024005	310,112	0
15.01.2021	20:56:03	0	0	2,824514	1,85175	303,1524	0,114	85,884	0	1017,14	6,8	8,9	8,7	1	1	1	1	1	1	1	1	1	0	1	-1,691332	274,025491	318,01182	0
15.01.2021	20:56:04	0	0	2,937495	1,926	301,2264	0,107	85,875	0	1017,24	6,8	8,8	8,7	1	1	1	1	1	1	1	1	1	0	1	-6,412967	274,107427	313,67273	0
15.01.2021	20:56:05	0	0	3,95432	1,83975	296,7948	0,112	85,887	0	1017,3	6,8	8,8	8,7	1	1	1	1	1	1	1	1	1	0	1	-9,302326	274,021032	310,380017	0
15.01.2021	20:56:06	0	0	4,858164	1,75875	292,3308	0,107	85,884	0	1017,2	6,8	8,8	8,7	1	1	1	1	1	1	1	1	1	0	1	-6,8358	274,123856	313,326643	0
15.01.2021	20:56:07	0	0	3,728359	1,785	294,1488	0,109	85,887	0	1017,26	6,8	8,8	8,7	1	1	1	1	1	1	1	1	1	0	1	-13,107822	274,006175	306,505197	0
15.01.2021	20:56:08	0	0	4,406242	1,71075	300,42	0,107	85,89	0	1017,26	6,8	8,8	8,7	1	1	1	1	1	1	1	1	1	0	1	-9,654686	274,114893	310,465885	0
15.01.2021	20:56:09	0	0	2,711534	1,56975	290,3868	0,109	85,883	0	1017,24	6,8	8,8	8,7	1	1	1	1	1	1	1	1	1	0	1	-8,879493	274,204711	311,660855	0
15.01.2021	20:56:10	0	0	2,598553	1,51275	289,6812	0,099	85,884	0	1017,28	6,8	8,8	8,7	1	1	1	1	1	1	1	1	1	0	1	-10,711769	274,164241	309,639386	0
15.01.2021	20:56:11	0	0	2,598553	1,46775	287,784	0,109	85,891	0	1017,18	6,8	8,8	8,7	1	1	1	1	1	1	1	1	1	0	1	-8,45666	274,022518	311,232618	0
15.01.2021	20:56:12	0	0	3,615378	1,4535	295,5816	0,115	85,896	0	1017,2	6,8	8,8	8,7	1	1	1	1	1	1	1	1	1	0	1	-10,993658	274,11788	309,140868	0
15.01.2021	20:56:13	0	0	4,745184	1,44825	292,2552	0,11	85,906	0	1017,26	6,8	8,8	8,7	1	1	1	1	1	1	1	1	1	0	1	-11,909796	274,210713	308,658622	0
15.01.2021	20:56:14	0	0	3,163456	1,42275	292,2264	0,109	85,911	0	1017,38	6,8	8,8	8,7	1	1	1	1	1	1	1	1	1	0	1	-8,104299	274,077591	311,842063	0
15.01.2021	20:56:15	0	0	3,163456	1,36725	296,0532	0,11	85,903	0	1017,18	6,8	8,9	8,7	1	1	1	1	1	1	1	1	1	0	1	-13,6716	274,192711	306,812641	0
15.01.2021	20:56:16	0	0	4,293261	1,32	297,0864	0,112	85,894	0	1017,3	6,8	8,8	8,7	1	1	1	1	1	1	1	1	1	0	1	-9,654686	274,20321	310,878646	0
15.01.2021	20:56:17	0	0	4,0673	1,31775	299,8224	0,109	85,898	0	1017,22	6,8	8,8	8,7	1	1	1	1	1	1	1	1	1	0	1	-13,883016	274,155259	306,426162	0
15.01.2021	20:56:18	0	0	2,598553	1,3305	299,412	0,11	85,915	0	1017,1	6,8	8,8	8,7	1	1	1	1	1	1	1	1	1	0	1	-10,852713	274,204711	309,687635	0
15.01.2021	20:56:19	0	0	2,824514	1,344	294,3504	0,114	85,905	0	1017,4	6,8	8,8	8,7	1	1	1	1	1	1	1	1	1	0	1	-11,557435	274,132823	308,646903	0
15.01.2021	20:56:20	0	0	4,632203	1,398	309,924	0,111	85,892	0	1017,38	6,8	8,8	8,7	1	1	1	1	1	1	1	1	1	0	1	-12,684989	274,19421	307,806262	0
15.01.2021	20:56:21	0	0	2,598553	1,389	299,7432	0,107	85,905	0	1017,28	6,8	8,8	8,7	1	1	1	1	1	1	1	1	1	0	1	-10,852713	274,174725	309,547446	0
15.01.2021	20:56:22	0	0	3,276436	1,3905	311,3964	0,112	85,899	0	1017,2	6,8	8,8	8,7	1	1	1	1	1	1	1	1	1	0	1	-14,940099	274,096979	305,096801	0
15.01.2021	20:56:23	0	0	4,745184	1,398	311,4036	0,115	85,908	0	1017,18	6,8	8,8	8,7	1	1	1	1	1	1	1	1	1	0	1	-7,681466	274,19871	312,830823	0
15.01.2021	20:56:24	0	0	3,502398	1,4385	297,9072	0,115	85,892	0	1017,14	6,8	8,8	8,7	1	1	1	1	1	1	1	1	1	0	1	-11,134602	274,052268	308,69353	0
15.01.2021	20:56:25	0	0	4,180281	1,45875	301,554	0,111	85,906	0	1017,22	6,8	8,8	8,7	1	1	1	1	1	1	1	1	1	0	1	-8,104299	274,044826	311,689095	0
15.01.2021	20:56:26	0	0	2,711534	1,542	309,5604	0,112	85,888	0	1017,24	6,8	8,8	8,7	1	1	1	1	1	1	1	1	1	0	1	-6,342495	274,024005	313,35372	0
15.01.2021	20:56:27	0	0	4,519223	1,5195	306,1224	0,116	85,908	0	1017,22	6,8	8,8	8,7	1	1	1	1	1	1	1	1	1	0	1	-7,047216	274,056734	312,801766	0
15.01.2021	20:56:28	0	0	3,389417	1,49625	302,4468	0,114	85,907	0	1017,28	6,8	8,8	8,7	1	1	1	1	1	1	1	1	1	0	1	-9,302326	274,191211	311,174905	0
15.01.2021	20:56:29	0	0	3,163456	1,58625	304,7148	0,111	85,916	0	1017,2	6,8	8,8	8,7	1	1	1	1	1	1	1	1	1	0	1	-9,44327	274,06567	310,447431	0
15.01.2021	20:56:30	0	0	4,0673	1,638	306,4068	0,102	85,912	0	1017,04	6,8	8,8	8,7	1	1	1	1	1	1	1	1	1	0	1	-12,825934	274,20321	307,707398	0
15.01.2021	20:56:31	0	0	2,598553	1,6215	311,5296	0,106	85,919	0	1017,16	6,8	8,8	8,7	1	1	1	1	1	1	1	1	1	0	1	-11,698379	274,131328	308,498974	0
15.01.2021	20:56:32	0	0	3,841339	1,5975	309,8952	0,107	85,92	0	1017,22	6,8	8,8	8,7	1	1	1	1	1	1	1	1	1	0	1	-11,980268	274,19721	308,525008	0
15.01.2021	20:56:33	0	0	4,293261	1,63575	299,0232	0,11	85,92	0	1017,3	6,8	8,8	8,7	1	1	1	1	1	1	1	1	1	0	1	-6,553911	274,080573	313,406372	0
15.01.2021	20:56:34	0	0	4,406242	1,62	302,0544	0,114	85,924	0	1017,12	6,8	8,8	8,7	1	1	1	1	1	1	1	1	1	0	1	-8,668076	274,14329	311,585168	0
15.01.2021	20:56:35	0	0	2,824514	1,71975	288,8244	0,118	85,91	0	1017,2	6,8	8,8	8,7	1	1	1	1	1	1	1	1	1	0	1	-9,795631	274,20021	310,723672	0
15.01.2021	20:56:36	0	0	3,841339	1,9125	286,2612	0,113	85,908	0	1017,3	6,8	8,8	8,7	1	1	1	1	1	1	1	1	1	0	1	-9,090909	274,093995	310,932055	0
15.01.2021	20:56:37	0	0	4,632203	2,03475	285,516	0,11	85,923	0	1017,16	6,8	8,8	8,7	1	1	1	1	1	1	1	1	1	0	1	-9,795631	274,20171	310,730686	0
15.01.2021	20:56:38	0	0	4,293261	2,085	281,7576	0,11	85,928	0	1017,28	6,8	8,8	8,7	1	1	1	1	1	1	1	1	1	0	1	-10,218464	274,080573	309,74182	0
15.01.2021	20:56:39	0	0	3,728359	2,0865	283,59	0,116	85,935	0	1017,18	6,8	8,8	8,7	1	1	1	1	1	1	1	1	1	0	1	-9,936575	274,029951	309,787392	0
15.01.2021	20:56:40	0	0	4,745184	2,08125	279,9	0,11	85,925	0	1017,22	6,8	8,8	8,7	1	1	1	1	1	1	1	1	1	0	1	-7,470049	274,080573	312,490234	0
15.01.2021	20:56:41	0	0	2,711534	1,94025	294,4008	0,111	85,916	0	1017,3	6,8	8,8	8,7	1	1	1	1	1	1	1	1	1	0	1	-7,751938	274,024005	311,944277	0
15.01.2021	20:56:42	0	0	3,615378	1,821	296,8272	0,108	85,929	0	1017,16	6,8	8,9	8,7	1	1	1	1	1	1	1	1	1	0	1	-10,641297	274,153762	309,660887	0
15.01.2021	20:56:43	0	0	4,180281	1,7265	294,048	0,108	85,909	0	1017,18	6,8	8,8	8,7	1	1	1	1	1	1	1	1	1	0	1	-9,936575	274,0359	309,815155	0
15.01.2021	20:56:44	0	0	3,389417	1,5705	298,9512	0,11	85,915	0	1016,98	6,8	8,8	8,7	1	1	1	1	1	1	1	1	1	0	1	-9,725159	274,170231	310,653995	0
15.01.2021	20:56:45	0	0	3,389417	1,542	304,6248	0,109	85,919	0	1017,12	6,8	8,8	8,7	1	1	1	1	1	1	1	1	1	0	1	-10,288936	274,059713	309,57395	0
15.01.2021	20:56:46	0	0	3,728359	1,57575	305,3232	0,107	85,91	0	1017,34	6,8	8,9	8,7	1	1	1	1	1	1	1	1	1	0	1	-9,513742	274,079082	310,43958	0
15.01.2021	20:56:47	0	0	2,146631	1,6245	303,8868	0,115	85,922	0	1017,28	6,8	8,8	8,7	1	1	1	1	1	1	1	1	1	0	1	-12,191684	274,032925	307,546163	0
15.01.2021	20:56:48	0	0	4,293261	1,70325	298,6596	0,113	85,905	0	1017,28	6,8	8,9	8,7	1	1	1	1	1	1	1	1	1	0	1	-10,852713	274,140298	309,386555	0
15.01.2021	20:56:49	0	0	3,050475	1,73925	308,394	0,11	85,912	0	1017,2	6,7	8,8	8,7	1	1	1	1	1	1	1	1	1	0	1	-10,923185	274,062691	308,953606	0
15.01.2021	20:56:50	0	0	3,163456	1,659	304,6176	0,111	85,921	0	1017,24	6,8	8,8	8,7	1	1	1	1	1	1	1	1	1	0	1	-5,21494	274,162743	315,129217	0
15.01.2021	20:56:51	0	0	4,519223	1,6065	287,1	0,112	85,928	0	1017,22	6,8	8,8	8,7	1	1	1	1	1	1	1	1	1	0	1	-5,003524	274,01806	314,664949	0
15.01.2021	20:56:52	0	0	4,858164	1,60425	288,7848	0,112	85,926	0	1017,16	6,8	8,8	8,7	1	1	1	1	1	1	1	1	1	0	1	-7,963354	274,105934	312,115369	0
15.01.2021	20:56:53	0	0	3,502398	1,69425	307,2168	0,108	85,932	0	1017,24	6,8	8,8	8,7	1	1	1	1	1	1	1	1	1	0	1	-11,06413	274,010631	308,56968	0
15.01.2021	20:56:54	0	0	4,745184	1,81275	297,5292	0,11	85,925	0	1017,22	6,8	8,8	8,7	1	1	1	1	1	1	1	1	1	0	1	-8,668076	274,077591	311,278285	0
15.01.2021	20:56:55	0	0	2,598553	1,89975	299,0304	0,113	85,929	0	1017,26	6,8	8,8	8,7	1	1	1	1	1	1	1	1	1	0	1	-9,020437	274,024005	310,675778	0
15.01.2021	20:56:56	0	0	2,598553	1,971	298,3068	0,111	85,937	0	1017,12	6,8	8,8	8,7	1	1	1	1	1	1	1	1	1	0	1	-12,05074	274,17922	308,370431	0
15.01.2021	20:56:57	0	0	3,728359	2,04975	305,6796	0,11	85,917	0	1017,18	6,8	8,8	8,7	1	1	1	1	1	1	1	1	1	0	1	-6,976744	274,047803	312,830543	0
15.01.2021	20:56:58	0	0	3,389417	2,04225	315,1332	0,114	85,928	0	1017,04	6,8	8,8	8,7	1	1	1	1	1	1	1	1	1	0	1	-4,792107	274,034413	314,952681	0
15.01.2021	20:56:59	0	0	3,502398	2,1915	306,1008	0,106	85,927	0	1017,14	6,8	8,9	8,7	1	1	1	1	1	1	1	1	1	0	1	-8,386187	274,140298	311,85308	0
15.01.2021	20:57:00	0	0	4,858164	2,33625	305,8092	0,11	85,924	0	1017,2	6,8	8,8	8,7	1	1	1	1	1	1	1	1	1	0	1	-5,84919	274,186713	314,607013	0
15.01.2021	20:57:01	0	0	4,180281	2,373	301,5936	0,114	85,931	0	1017,12	6,8	8,8	8,7	1	1	1	1	1	1	1	1	1	0	1	-7,963354	274,140298	312,275913	0
15.01.2021	20:57:02	0	0	4,632203	2,38875	310,0068	0,111	85,942	0	1017,22	6,8	8,9	8,7	1	1	1	1	1	1	1	1	1	0	1	-13,03735	274,171729	307,348804	0
15.01.2021	20:57:03	0	0	2,937495	2,2995	296,8956	0,109	85,93	0	1017,2	6,8	8,8	8,7	1	1	1	1	1	1	1	1	1	0	1	-6,624383	274,138803	313,607897	0
15.01.2021	20:57:04	0	0	4,858164	2,3355	293,328	0,108	85,925	0	1017,22	6,8	8,8	8,7	1	1	1	1	1	1	1	1	1	0	1	-10,147992	274,158252	310,175176	0
15.01.2021	20:57:05	0	0	3,389417	2,667	299,0376	0,105	85,937	0	1017,2	6,8	8,8	8,7	1	1	1	1	1	1	1	1	1	0	1	-8,386187	274,152266	311,909003	0
15.01.2021	20:57:06	0	0	4,406242	2,64675	289,5552	0,112	85,933	0	1017,28	6,8	8,8	8,7	1	1	1	1	1	1	1	1	1	0	1	-8,245243	274,170231	312,13391	0
15.01.2021	20:57:07	0	0	4,858164	2,44875	297,9036	0,112	85,943	0	1017,22	6,8	8,8	8,7	1	1	1	1	1	1	1	1	1	0	1	-10,500352	274,131328	309,697001	0
15.01.2021	20:57:08	0	0	2,259611	2,316	291,8808	0,113	85,949	0	1017,26	6,8	8,8	8,7	1	1	1	1	1	1	1	1	1	0	1	-12,403101	274,192711	308,08114	0
15.01.2021	20:57:09	0	0	4,632203	2,28525	297,6012	0,112	85,929	0	1017,26	6,8	8,8	8,7	1	1	1	1	1	1	1	1	1	0	1	-11,980268	274,158252	308,3429	0
15.01.2021	20:57:10	0	0	5,423067	2,28375	292,356	0,114	85,921	0	1017,24	6,8	8,8	8,7	1	1	1	1	1	1	1	1	1	0	1	-8,315715	274,161246	312,021445	0
15.01.2021	20:57:11	0	0	5,084125	2,2905	300,87	0,107	85,916	0	1017,18	6,8	8,8	8,7	1	1	1	1	1	1	1	1	1	0	1	-6,906272	274,19871	313,606017	0
15.01.2021	20:57:12	0	0	2,259611	2,38275	299,0304	0,112	85,933	0	1017,06	6,8	8,8	8,7	1	1	1	1	1	1	1	1	1	0	1	-9,584214	274,161246	310,752946	0
15.01.2021	20:57:13	0	0	2,711534	2,36325	290,4156	0,11	85,948	0	1017,34	6,8	8,8	8,7	1	1	1	1	1	1	1	1	1	0	1	-9,936575	274,07014	309,974993	0
15.01.2021	20:57:14	0	0	4,406242	2,391	288,1584	0,105	85,94	0	1017,18	6,8	8,8	8,7	1	1	1	1	1	1	1	1	1	0	1	-8,668076	274,20321	311,865256	0
15.01.2021	20:57:15	0	0	3,95432	2,478	282,132	0,104	85,937	0	1017,32	6,8	8,8	8,7	1	1	1	1	1	1	1	1	1	0	1	-9,372798	274,152266	310,922393	0
15.01.2021	20:57:16	0	0	4,180281	2,46525	283,2012	0,11	85,934	0	1017,26	6,7	8,8	8,7	1	1	1	1	1	1	1	1	1	0	1	-6,131078	274,19571	314,367185	0
15.01.2021	20:57:17	0	0	4,180281	2,48325	297,612	0,109	85,929	0	1017,2	6,8	8,8	8,7	1	1	1	1	1	1	1	1	1	0	1	-8,45666	274,062691	311,420132	0
15.01.2021	20:57:18	0	0	4,971145	2,433	292,2444	0,109	85,951	0	1017,2	6,8	8,8	8,7	1	1	1	1	1	1	1	1	1	0	1	-8,668076	274,185214	311,781119	0
15.01.2021	20:57:19	0	0	2,485572	2,397	292,986	0,113	85,953	0	1017,16	6,8	8,8	8,7	1	1	1	1	1	1	1	1	1	0	1	-9,654686	274,138803	310,577594	0
15.01.2021	20:57:20	0	0	4,293261	2,35875	302,0616	0,109	85,95	0	1017,26	6,8	8,8	8,7	1	1	1	1	1	1	1	1	1	0	1	-9,161381	274,204711	311,378967	0
15.01.2021	20:57:21	0	0	2,485572	2,30625	282,132	0,107	85,956	0	1017,34	6,8	8,8	8,7	1	1	1	1	1	1	1	1	1	0	1	-9,44327	274,11788	310,691256	0
15.01.2021	20:57:22	0	0	4,632203	2,39175	284,8716	0,11	85,952	0	1017,26	6,8	8,8	8,7	1	1	1	1	1	1	1	1	1	0	1	-7,751938	274,189712	312,718282	0
15.01.2021	20:57:23	0	0	2,937495	2,33625	279,7992	0,11	85,959	0	1017,2	6,8	8,8	8,7	1	1	1	1	1	1	1	1	1	0	1	-13,883016	274,052268	305,945115	0
15.01.2021	20:57:24	0	0	2,824514	2,3925	293,7492	0,101	85,934	0	1017,16	6,8	8,8	8,7	1	1	1	1	1	1	1	1	1	0	1	-8,386187	274,101456	311,671621	0
15.01.2021	20:57:25	0	0	3,276436	2,424	272,8836	0,109	85,954	0	1017,32	6,8	8,8	8,7	1	1	1	1	1	1	1	1	1	0	1	-8,245243	274,189712	312,224977	0
15.01.2021	20:57:26	0	0	3,95432	2,4615	279,126	0,103	85,953	0	1017,32	6,8	8,8	8,7	1	1	1	1	1	1	1	1	1	0	1	-10,570825	274,059713	309,292061	0
15.01.2021	20:57:27	0	0	4,0673	2,53575	282,438	0,105	85,95	0	1017,18	6,8	8,8	8,7	1	1	1	1	1	1	1	1	1	0	1	-9,795631	274,028464	309,921397	0
15.01.2021	20:57:28	0	0	3,502398	2,5845	283,2156	0,102	85,949	0	1017,28	6,8	8,8	8,7	1	1	1	1	1	1	1	1	1	0	1	-8,033827	274,024005	311,662388	0
15.01.2021	20:57:29	0	0	3,050475	2,73525	284,4036	0,112	85,96	0	1017,18	6,8	8,8	8,7	1	1	1	1	1	1	1	1	1	0	1	-8,597604	274,132823	311,606734	0
15.01.2021	20:57:30	0	0	2,937495	2,751	271,0044	0,107	85,948	0	1017,36	6,8	8,8	8,7	1	1	1	1	1	1	1	1	1	0	1	-8,104299	274,186713	312,351904	0
15.01.2021	20:57:31	0	0	4,406242	2,6295	278,8524	0,103	85,96	0	1017,32	6,8	8,8	8,7	1	1	1	1	1	1	1	1	1	0	1	-6,624383	274,135813	313,593924	0
15.01.2021	20:57:32	0	0	3,050475	2,39925	272,8404	0,109	85,956	0	1017,34	6,8	8,8	8,7	1	1	1	1	1	1	1	1	1	0	1	-12,473573	274,191211	308,003657	0
15.01.2021	20:57:33	0	0	4,858164	2,148	274,626	0,103	85,967	0	1017,24	6,7	8,8	8,7	1	1	1	1	1	1	1	1	1	0	1	-5,144468	274,141794	315,101788	0
15.01.2021	20:57:34	0	0	4,519223	2,2065	291,924	0,11	85,952	0	1017,12	6,8	8,8	8,7	1	1	1	1	1	1	1	1	1	0	1	-8,104299	274,016574	311,55724	0
15.01.2021	20:57:35	0	0	4,858164	2,337	285,5232	0,108	85,964	0	1017,14	6,8	8,8	8,7	1	1	1	1	1	1	1	1	1	0	1	-7,82241	274,116386	312,305138	0
15.01.2021	20:57:36	0	0	2,598553	2,31525	288,1008	0,105	85,963	0	1017,14	6,8	8,8	8,7	1	1	1	1	1	1	1	1	1	0	1	-8,738548	274,192711	311,745692	0
15.01.2021	20:57:37	0	0	3,615378	2,25825	280,9296	0,102	85,957	0	1017,16	6,8	8,8	8,7	1	1	1	1	1	1	1	1	1	0	1	-11,275546	274,101456	308,782263	0
15.01.2021	20:57:38	0	0	3,050475	2,25375	288,09	0,113	85,955	0	1017,26	6,8	8,8	8,7	1	1	1	1	1	1	1	1	1	0	1	-10,359408	274,186713	310,096795	0
15.01.2021	20:57:39	0	0	4,745184	2,30775	277,632	0,104	85,954	0	1017,18	6,8	8,8	8,7	1	1	1	1	1	1	1	1	1	0	1	-6,131078	274,095487	313,898853	0
15.01.2021	20:57:40	0	0	2,485572	2,40075	285,4872	0,106	85,963	0	1017,14	6,8	8,8	8,7	1	1	1	1	1	1	1	1	1	0	1	-6,272023	274,00469	313,334068	0
15.01.2021	20:57:41	0	0	4,745184	2,5185	285,5196	0,1	85,953	0	1017,2	6,8	8,8	8,7	1	1	1	1	1	1	1	1	1	0	1	-10,218464	274,122361	309,936999	0
15.01.2021	20:57:42	0	0	2,824514	2,54475	295,5312	0,11	85,962	0	1017,32	6,8	8,8	8,7	1	1	1	1	1	1	1	1	1	0	1	-7,540521	274,192711	312,943719	0
15.01.2021	20:57:43	0	0	5,310087	2,6475	293,6988	0,104	85,961	0	1017,22	6,8	8,8	8,7	1	1	1	1	1	1	1	1	1	0	1	-6,412967	274,099963	313,637872	0
15.01.2021	20:57:44	0	0	2,824514	2,5875	296,4456	0,108	85,967	0	1017,3	6,8	8,8	8,7	1	1	1	1	1	1	1	1	1	0	1	-11,346018	274,010631	308,287791	0
15.01.2021	20:57:45	0	0	2,03365	2,69025	279,1728	0,106	85,967	0	1017,26	6,8	8,9	8,7	1	1	1	1	1	1	1	1	1	0	1	-12,121212	274,049291	307,693022	0
15.01.2021	20:57:46	0	0	3,276436	2,7135	283,4748	0,11	85,966	0	1017,24	6,8	8,8	8,7	1	1	1	1	1	1	1	1	1	0	1	-9,372798	274,006175	310,240221	0
15.01.2021	20:57:47	0	0	3,841339	2,793	278,8452	0,103	85,95	0	1017,1	6,8	8,8	8,7	1	1	1	1	1	1	1	1	1	0	1	-7,329105	274,120867	312,819378	0
15.01.2021	20:57:48	0	0	2,711534	2,646	283,5612	0,11	85,966	0	1017,18	6,8	8,8	8,7	1	1	1	1	1	1	1	1	1	0	1	-10,218464	274,191211	310,258766	0
15.01.2021	20:57:49	0	0	2,598553	2,43675	289,5696	0,109	85,958	0	1017,2	6,8	8,8	8,7	1	1	1	1	1	1	1	1	1	0	1	-8,245243	274,167235	312,11991	0
15.01.2021	20:57:50	0	0	2,711534	2,3265	283,5432	0,107	85,968	0	1017,02	6,7	8,8	8,7	1	1	1	1	1	1	1	1	1	0	1	-10,641297	274,044826	309,152097	0
15.01.2021	20:57:51	0	0	2,598553	2,3625	283,5504	0,1	85,965	0	1017,16	6,8	8,8	8,7	1	1	1	1	1	1	1	1	1	0	1	-6,976744	274,010631	312,657065	0
15.01.2021	20:57:52	0	0	2,711534	2,34225	285,5088	0,104	85,962	0	1017,32	6,8	8,8	8,7	1	1	1	1	1	1	1	1	1	0	1	-11,205074	274,126844	308,971331	0
15.01.2021	20:57:53	0	0	3,615378	2,289	287,0064	0,104	85,968	0	1017,3	6,8	8,8	8,7	1	1	1	1	1	1	1	1	1	0	1	-11,980268	274,20021	308,539035	0
15.01.2021	20:57:54	0	0	3,276436	2,21325	288,882	0,109	85,944	0	1017,22	6,7	8,8	8,7	1	1	1	1	1	1	1	1	1	0	1	-4,933051	274,146281	315,334172	0
15.01.2021	20:57:55	0	0	2,937495	2,17425	286,3008	0,103	85,959	0	1017,22	6,8	8,8	8,7	1	1	1	1	1	1	1	1	1	0	1	-12,121212	274,015088	307,533393	0
15.01.2021	20:57:56	0	0	4,858164	2,16	290,7972	0,106	85,961	0	1017,28	6,8	8,8	8,7	1	1	1	1	1	1	1	1	1	0	1	-11,698379	274,095487	308,331552	0
15.01.2021	20:57:57	0	0	2,485572	2,16075	291,8268	0,107	85,966	0	1017,16	6,8	8,8	8,7	1	1	1	1	1	1	1	1	1	0	1	-8,245243	274,016574	311,416295	0
15.01.2021	20:57:58	0	0	4,858164	2,14125	300,4416	0,105	85,971	0	1017,26	6,8	8,8	8,7	1	1	1	1	1	1	1	1	1	0	1	-13,460183	274,108919	306,632487	0
15.01.2021	20:57:59	0	0	3,841339	2,091	303,8904	0,099	85,953	0	1017,04	6,8	8,8	8,7	1	1	1	1	1	1	1	1	1	0	1	-11,980268	274,19571	308,517996	0
15.01.2021	20:58:00	0	0	2,937495	2,04975	294,3432	0,106	85,962	0	1017,12	6,8	8,8	8,7	1	1	1	1	1	1	1	1	1	0	1	-8,104299	274,040363	311,66826	0
15.01.2021	20:58:01	0	0	3,615378	2,01975	301,5864	0,102	85,955	0	1017,18	6,8	8,8	8,7	1	1	1	1	1	1	1	1	1	0	1	-6,976744	274,165738	313,38141	0
15.01.2021	20:58:02	0	0	4,519223	1,875	303,4008	0,105	85,975	0	1017,22	6,8	8,8	8,7	1	1	1	1	1	1	1	1	1	0	1	-11,768851	274,185214	308,680344	0
15.01.2021	20:58:03	0	0	3,615378	1,815	297,2304	0,1	85,962	0	1017,06	6,8	8,8	8,7	1	1	1	1	1	1	1	1	1	0	1	-6,976744	274,083555	312,997464	0
15.01.2021	20:58:04	0	0	4,406242	1,80525	294,804	0,105	85,979	0	1017,26	6,8	8,8	8,7	1	1	1	1	1	1	1	1	1	0	1	-9,161381	274,188213	311,30183	0
15.01.2021	20:58:05	0	0	2,824514	1,93725	296,5104	0,102	85,967	0	1017,12	6,8	8,8	8,7	1	1	1	1	1	1	1	1	1	0	1	-9,866103	274,058223	309,989831	0
15.01.2021	20:58:06	0	0	3,389417	2,106	292,248	0,106	85,965	0	1017,22	6,8	8,8	8,7	1	1	1	1	1	1	1	1	1	0	1	-10,218464	274,20171	310,307853	0
15.01.2021	20:58:07	0	0	2,711534	2,19225	310,5612	0,1	85,957	0	1017,08	6,8	8,8	8,7	1	1	1	1	1	1	1	1	1	0	1	-8,104299	274,192711	312,379942	0
15.01.2021	20:58:08	0	0	4,632203	2,199	306,1152	0,107	85,972	0	1017,22	6,8	8,8	8,7	1	1	1	1	1	1	1	1	1	0	1	-6,342495	274,159749	313,987669	0
15.01.2021	20:58:09	0	0	3,95432	2,1765	307,206	0,101	85,958	0	1017,08	6,8	8,8	8,7	1	1	1	1	1	1	1	1	1	0	1	-6,624383	274,038875	313,141232	0
15.01.2021	20:58:10	0	0	3,728359	2,055	298,6704	0,101	85,967	0	1017,16	6,8	8,8	8,7	1	1	1	1	1	1	1	1	1	0	1	-6,624383	274,019546	313,051024	0
15.01.2021	20:58:11	0	0	4,519223	1,99275	298,6416	0,106	85,955	0	1017,16	6,8	8,8	8,7	1	1	1	1	1	1	1	1	1	0	1	-11,346018	274,147777	308,928196	0
15.01.2021	20:58:12	0	0	2,598553	2,061	293,742	0,103	85,947	0	1017,14	6,8	8,8	8,7	1	1	1	1	1	1	1	1	1	0	1	-9,372798	274,024005	310,323417	0
15.01.2021	20:58:13	0	0	3,389417	2,181	296,0316	0,103	85,975	0	1017,28	6,7	8,8	8,7	1	1	1	1	1	1	1	1	1	0	1	-8,668076	274,147777	311,606138	0
15.01.2021	20:58:14	0	0	4,293261	2,244	302,0904	0,105	85,963	0	1017,26	6,8	8,8	8,7	1	1	1	1	1	1	1	1	1	0	1	-7,047216	274,047803	312,760071	0
15.01.2021	20:58:15	0	0	3,502398	2,16675	303,1956	0,104	85,966	0	1017,18	6,8	8,8	8,7	1	1	1	1	1	1	1	1	1	0	1	-5,144468	274,047803	314,662819	0
15.01.2021	20:58:16	0	0	2,824514	2,0925	301,0932	0,102	85,96	0	1017,38	6,8	9	8,7	1	1	1	1	1	1	1	1	1	0	1	-10,007047	274,137308	310,218247	0
15.01.2021	20:58:17	0	0	4,406242	2,1525	296,7948	0,102	85,976	0	1017,22	6,8	8,8	8,7	1	1	1	1	1	1	1	1	1	0	1	-7,681466	274,015088	311,973139	0
15.01.2021	20:58:18	0	0	4,180281	2,1045	304,6752	0,097	85,952	0	1017,22	6,8	8,8	8,7	1	1	1	1	1	1	1	1	1	0	1	-7,117689	274,113399	312,995907	0
15.01.2021	20:58:19	0	0	3,276436	2,0295	298,9944	0,101	85,966	0	1017,3	6,7	8,8	8,7	1	1	1	1	1	1	1	1	1	0	1	-9,795631	274,192711	310,68861	0
15.01.2021	20:58:20	0	0	4,745184	2,097	296,8452	0,103	85,965	0	1017,28	6,8	8,8	8,7	1	1	1	1	1	1	1	1	1	0	1	-9,302326	274,144785	310,957908	0
15.01.2021	20:58:21	0	0	2,711534	1,98975	291,5388	0,102	85,971	0	1017,2	6,8	8,8	8,7	1	1	1	1	1	1	1	1	1	0	1	-5,073996	274,055245	314,768035	0
15.01.2021	20:58:22	0	0	3,389417	1,91025	297,2268	0,104	85,97	0	1017,22	6,8	8,8	8,7	1	1	1	1	1	1	1	1	1	0	1	-7,610994	274,182217	312,824188	0
15.01.2021	20:58:23	0	0	3,841339	1,8705	295,1856	0,102	85,961	0	1017,18	6,8	8,8	8,7	1	1	1	1	1	1	1	1	1	0	1	-9,090909	274,056734	310,758073	0
15.01.2021	20:58:24	0	0	3,841339	1,9125	310,986	0,1	85,953	0	1017,12	6,8	8,8	8,7	1	1	1	1	1	1	1	1	1	0	1	-7,047216	274,176223	313,359946	0
15.01.2021	20:58:25	0	0	4,971145	1,98975	309,3228	0,102	85,962	0	1017,02	6,8	8,8	8,7	1	1	1	1	1	1	1	1	1	0	1	-8,738548	274,132823	311,465789	0
15.01.2021	20:58:26	0	0	4,293261	2,0865	313,164	0,107	85,96	0	1017,08	6,8	8,8	8,7	1	1	1	1	1	1	1	1	1	0	1	-9,302326	274,20021	311,216977	0
15.01.2021	20:58:27	0	0	4,745184	2,19225	306,8352	0,107	85,979	0	1017,2	6,8	8,8	8,7	1	1	1	1	1	1	1	1	1	0	1	-13,460183	274,099963	306,590655	0
15.01.2021	20:58:28	0	0	4,745184	2,3385	298,5516	0,098	85,965	0	1017,3	6,8	8,8	8,7	1	1	1	1	1	1	1	1	1	0	1	-9,513742	274,17922	310,907428	0
15.01.2021	20:58:29	0	0	3,95432	2,56725	294,0264	0,093	85,957	0	1017,06	6,8	8,8	8,7	1	1	1	1	1	1	1	1	1	0	1	-10,359408	274,156756	309,956764	0
15.01.2021	20:58:30	0	0	2,711534	2,78025	285,5232	0,105	85,968	0	1017,18	6,8	8,8	8,7	1	1	1	1	1	1	1	1	1	0	1	-9,372798	274,046314	310,427542	0
15.01.2021	20:58:31	0	0	3,615378	2,7855	305,3664	0,101	85,961	0	1017,18	6,8	8,8	8,7	1	1	1	1	1	1	1	1	1	0	1	-12,191684	274,161246	308,145476	0
15.01.2021	20:58:32	0	0	2,824514	2,595	304,6176	0,102	85,959	0	1017,18	6,8	8,8	8,7	1	1	1	1	1	1	1	1	1	0	1	-7,470049	274,037387	312,288623	0
15.01.2021	20:58:33	0	0	2,711534	2,34825	300,4668	0,103	85,965	0	1017,34	6,8	8,8	8,7	1	1	1	1	1	1	1	1	1	0	1	-11,698379	274,149273	308,582827	0
15.01.2021	20:58:34	0	0	3,163456	2,19825	293,67	0,1	85,946	0	1017,24	6,8	8,8	8,7	1	1	1	1	1	1	1	1	1	0	1	-13,389711	274,167235	306,975442	0
15.01.2021	20:58:35	0	0	3,728359	2,21925	303,4944	0,102	85,976	0	1017,26	6,8	8,8	8,7	1	1	1	1	1	1	1	1	1	0	1	-10,147992	274,164241	310,203164	0
15.01.2021	20:58:36	0	0	4,971145	2,331	313,596	0,108	85,979	0	1017,18	6,8	8,8	8,7	1	1	1	1	1	1	1	1	1	0	1	-8,104299	274,006175	311,50872	0
15.01.2021	20:58:37	0	0	2,711534	2,39775	311,3604	0,095	85,953	0	1017,16	6,8	8,8	8,7	1	1	1	1	1	1	1	1	1	0	1	-10,147992	274,107427	309,937705	0
15.01.2021	20:58:38	0	0	3,502398	2,4105	301,2048	0,104	85,969	0	1017,04	6,8	8,8	8,7	1	1	1	1	1	1	1	1	1	0	1	-8,80902	274,006175	310,803999	0
15.01.2021	20:58:39	0	0	4,519223	2,2695	297,1476	0,103	85,98	0	1017,18	6,8	8,8	8,7	1	1	1	1	1	1	1	1	1	0	1	-10,570825	274,07014	309,340744	0
15.01.2021	20:58:40	0	0	3,389417	2,295	299,3796	0,104	85,984	0	1017,14	6,8	8,8	8,7	1	1	1	1	1	1	1	1	1	0	1	-5,426357	274,031438	314,30455	0
15.01.2021	20:58:41	0	0	4,519223	2,37675	275,4216	0,099	85,978	0	1017,24	6,8	8,8	8,7	1	1	1	1	1	1	1	1	1	0	1	-7,82241	274,135813	312,395898	0
15.01.2021	20:58:42	0	0	3,276436	2,3835	282,4308	0,101	85,984	0	1017,28	6,8	8,8	8,7	1	1	1	1	1	1	1	1	1	0	1	-9,725159	274,003205	309,874004	0
15.01.2021	20:58:43	0	0	4,519223	2,46	285,9228	0,1	85,991	0	1017,22	6,8	8,8	8,7	1	1	1	1	1	1	1	1	1	0	1	-8,174771	274,092503	311,841226	0
15.01.2021	20:58:44	0	0	2,937495	2,343	284,7348	0,1	85,985	0	1017,2	6,8	8,8	8,7	1	1	1	1	1	1	1	1	1	0	1	-7,540521	273,998751	312,03786	0
15.01.2021	20:58:45	0	0	4,632203	2,196	290,2356	0,099	85,976	0	1017,18	6,8	8,8	8,7	1	1	1	1	1	1	1	1	1	0	1	-9,090909	274,144785	311,169325	0
15.01.2021	20:58:46	0	0	2,824514	1,9905	284,0652	0,104	85,994	0	1017,22	6,8	8,8	8,7	1	1	1	1	1	1	1	1	1	0	1	-9,44327	274,009146	310,183609	0
15.01.2021	20:58:47	0	0	3,615378	1,88325	292,3092	0,1	85,991	0	1017,1	6,8	8,8	8,7	1	1	1	1	1	1	1	1	1	0	1	-10,711769	274,047803	309,095518	0
15.01.2021	20:58:48	0	0	4,632203	1,84125	311,4144	0,095	85,991	0	1017,26	6,8	8,8	8,7	1	1	1	1	1	1	1	1	1	0	1	-11,557435	274,183716	308,884753	0
15.01.2021	20:58:49	0	0	4,971145	1,98525	282,4488	0,099	85,994	0	1017,06	6,8	8,8	8,7	1	1	1	1	1	1	1	1	1	0	1	-12,825934	274,165738	307,53222	0
15.01.2021	20:58:50	0	0	4,519223	2,1435	300,4488	0,101	85,994	0	1017,16	6,8	8,8	8,7	1	1	1	1	1	1	1	1	1	0	1	-16,420014	274,183716	304,022174	0
15.01.2021	20:58:51	0	0	3,728359	2,22	303,8508	0,101	85,993	0	1017,18	6,8	8,8	8,7	1	1	1	1	1	1	1	1	1	0	1	-9,161381	274,08952	310,840683	0
15.01.2021	20:58:52	0	0	3,050475	2,382	307,5048	0,095	85,983	0	1017,2	6,8	8,8	8,7	1	1	1	1	1	1	1	1	1	0	1	-6,624383	274,19871	313,887906	0
15.01.2021	20:58:53	0	0	4,632203	2,5005	303,8436	0,096	85,993	0	1017,16	6,8	8,8	8,7	1	1	1	1	1	1	1	1	1	0	1	-9,302326	274,14329	310,950919	0
15.01.2021	20:58:54	0	0	4,632203	2,6625	306,108	0,097	85,991	0	1017,2	6,8	8,8	8,7	1	1	1	1	1	1	1	1	1	0	1	-4,933051	274,010631	314,700758	0
15.01.2021	20:58:55	0	0	4,293261	2,763	311,7744	0,098	85,994	0	1017,28	6,8	8,8	8,7	1	1	1	1	1	1	1	1	1	0	1	-10,218464	274,110413	309,881181	0
15.01.2021	20:58:56	0	0	2,598553	2,703	304,254	0,097	86,005	0	1017,24	6,7	8,8	8,7	1	1	1	1	1	1	1	1	1	0	1	-7,329105	274,00766	312,290844	0
15.01.2021	20:58:57	0	0	4,858164	2,64975	308,0052	0,091	86,001	0	1017,16	6,8	8,8	8,7	1	1	1	1	1	1	1	1	1	0	1	-6,8358	274,158252	313,487368	0
15.01.2021	20:58:58	0	0	4,632203	2,50125	301,5612	0,095	85,995	0	1017,26	6,8	8,8	8,7	1	1	1	1	1	1	1	1	1	0	1	-9,866103	274,141794	310,380153	0
15.01.2021	20:58:59	0	0	3,050475	2,56725	293,0004	0,096	86,001	0	1017,18	6,8	8,8	8,7	1	1	1	1	1	1	1	1	1	0	1	-9,654686	274,031438	310,07622	0
15.01.2021	20:59:00	0	0	4,632203	2,57475	294,7824	0,102	86,003	0	1017,26	6,7	8,8	8,7	1	1	1	1	1	1	1	1	1	0	1	-10,359408	274,167235	310,005745	0
15.01.2021	20:59:01	0	0	2,485572	2,47125	274,9968	0,097	85,989	0	1017,3	6,8	8,8	8,7	1	1	1	1	1	1	1	1	1	0	1	-7,258633	274,04185	312,52087	0
15.01.2021	20:59:02	0	0	4,180281	2,322	271,854	0,099	86,011	0	1017,28	6,7	8,8	8,7	1	1	1	1	1	1	1	1	1	0	1	-10,007047	274,176223	310,400115	0
15.01.2021	20:59:03	0	0	4,293287	2,3115	281,3832	0,097	86,008	0	1017,16	6,8	8,8	8,6	1	1	1	1	1	1	1	1	1	0	1	-11,698379	274,167235	308,666774	0
15.01.2021	20:59:04	0	0	4,406242	2,29725	282,4488	0,098	86,011	0	1017,14	6,7	8,8	8,7	1	1	1	1	1	1	1	1	1	0	1	-8,949965	274,126844	311,22644	0
15.01.2021	20:59:05	0	0	2,711534	2,499	278,8056	0,095	85,986	0	1017,2	6,8	8,8	8,7	1	1	1	1	1	1	1	1	1	0	1	-6,624383	274,00766	312,995565	0
15.01.2021	20:59:06	0	0	2,824514	2,6745	272,4516	0,101	86,015	0	1017,26	6,8	8,8	8,7	1	1	1	1	1	1	1	1	1	0	1	-6,20155	274,098471	313,842318	0
15.01.2021	20:59:07	0	0	3,841339	2,74875	270,9828	0,093	86,008	0	1017,1	6,8	8,8	8,7	1	1	1	1	1	1	1	1	1	0	1	-7,540521	274,168733	312,831631	0
15.01.2021	20:59:08	0	0	3,728359	2,69625	276,4692	0,097	86,009	0	1017,2	6,8	8,8	8,7	1	1	1	1	1	1	1	1	1	0	1	-9,161381	274,010631	310,472428	0
15.01.2021	20:59:09	0	0	4,858164	2,54625	262,8	0,094	86,005	0	1017,18	6,8	8,8	8,7	1	1	1	1	1	1	1	1	1	0	1	-9,936575	274,171729	310,44958	0
15.01.2021	20:59:10	0	0	4,632203	2,4255	274,2264	0,092	86,006	0	1017,22	6,8	8,8	8,7	1	1	1	1	1	1	1	1	1	0	1	-8,315715	274,174725	312,084444	0
15.01.2021	20:59:11	0	0	3,728359	2,24775	268,8552	0,091	86,017	0	1017,12	6,7	8,8	8,7	1	1	1	1	1	1	1	1	1	0	1	-11,134602	274,0359	308,617128	0
15.01.2021	20:59:12	0	0	3,389417	2,20875	280,2168	0,096	86,025	0	1017,34	6,8	8,8	8,7	1	1	1	1	1	1	1	1	1	0	1	-8,033827	274,173227	312,35933	0
15.01.2021	20:59:13	0	0	4,293261	2,1975	274,3776	0,099	86,017	0	1017,2	6,7	8,8	8,7	1	1	1	1	1	1	1	1	1	0	1	-10,42988	274,126844	309,746525	0
15.01.2021	20:59:14	0	0	2,372592	2,223	278,4888	0,099	86,007	0	1017,18	6,8	8,8	8,7	1	1	1	1	1	1	1	1	1	0	1	-11,486963	274,010631	308,146847	0
15.01.2021	20:59:15	0	0	2,598553	2,15325	290,8152	0,097	86,016	0	1017,26	6,8	8,8	8,7	1	1	1	1	1	1	1	1	1	0	1	-6,131078	274,07163	313,787448	0
15.01.2021	20:59:16	0	0	2,598553	2,12625	289,1268	0,097	86,026	0	1017,36	6,8	8,8	8,7	1	1	1	1	1	1	1	1	1	0	1	-5,567301	273,998751	314,011081	0
15.01.2021	20:59:17	0	0	3,502398	2,091	270,3312	0,089	86,013	0	1017,08	6,8	8,8	8,7	1	1	1	1	1	1	1	1	1	0	1	-8,033827	274,111906	312,072793	0
15.01.2021	20:59:18	0	0	3,163456	2,0985	267,3468	0,1	86,026	0	1017,24	6,8	8,8	8,7	1	1	1	1	1	1	1	1	1	0	1	-9,513742	274,0359	310,237988	0
15.01.2021	20:59:19	0	0	4,632203	2,109	283,1688	0,096	86,029	0	1017,22	6,8	8,8	8,7	1	1	1	1	1	1	1	1	1	0	1	-11,06413	274,161246	309,273031	0
15.01.2021	20:59:20	0	0	3,615378	2,187	272,07	0,095	86,031	0	1017,2	6,8	8,8	8,7	1	1	1	1	1	1	1	1	1	0	1	-10,923185	274,086537	309,064949	0
15.01.2021	20:59:21	0	0	4,519223	2,25225	268,056	0,088	86,025	0	1017,18	6,8	8,8	8,7	1	1	1	1	1	1	1	1	1	0	1	-11,205074	274,19721	309,300202	0
15.01.2021	20:59:22	0	0	2,146631	2,31075	273,51	0,099	86,029	0	1017,26	6,7	8,8	8,7	1	1	1	1	1	1	1	1	1	0	1	-7,540521	274,126844	312,635883	0
15.01.2021	20:59:23	0	0	4,180281	2,3205	285,5592	0,1	86,031	0	1017,3	6,8	8,8	8,7	1	1	1	1	1	1	1	1	1	0	1	-10,42988	274,19421	310,061372	0
15.01.2021	20:59:24	0	0	3,163456	2,39175	285,5196	0,095	86,029	0	1017,28	6,8	8,8	8,7	1	1	1	1	1	1	1	1	1	0	1	-8,527132	274,152266	311,768059	0
15.01.2021	20:59:25	0	0	4,519223	2,48475	293,382	0,091	86,021	0	1017	6,8	8,8	8,7	1	1	1	1	1	1	1	1	1	0	1	-7,470049	274,131328	312,727304	0
15.01.2021	20:59:26	0	0	3,050475	2,58075	296,8272	0,094	86,091	0	1017,24	6,8	8,8	8,7	1	1	1	1	1	1	1	1	1	0	1	-11,980268	274,056734	307,868714	0
15.01.2021	20:59:27	0	0	3,276436	2,58975	306,1332	0,097	86,045	0	1017,32	6,8	8,8	8,7	1	1	1	1	1	1	1	1	1	0	1	-14,587738	274,182217	305,847444	0
15.01.2021	20:59:28	0	0	3,389417	2,59425	303,4944	0,088	86,022	0	1017,08	6,7	8,8	8,7	1	1	1	1	1	1	1	1	1	0	1	-12,825934	274,040363	306,946625	0
15.01.2021	20:59:29	0	0	3,615378	2,52225	300,0708	0,092	86,037	0	1017,22	6,8	8,8	8,7	1	1	1	1	1	1	1	1	1	0	1	-6,412967	274,159749	313,917197	0
15.01.2021	20:59:30	0	0	3,615378	2,38725	300,8628	0,093	86,026	0	1017,18	6,8	8,8	8,7	1	1	1	1	1	1	1	1	1	0	1	-11,909796	274,180718	308,51838	0
15.01.2021	20:59:31	0	0	4,971145	2,3025	294,3936	0,094	86,016	0	1017,12	6,7	8,8	8,7	1	1	1	1	1	1	1	1	1	0	1	-5,144468	274,06567	314,746233	0
15.01.2021	20:59:32	0	0	3,163456	2,31525	294,408	0,095	86,033	0	1017,22	6,8	8,8	8,7	1	1	1	1	1	1	1	1	1	0	1	-6,765328	274,028464	312,9517	0
15.01.2021	20:59:33	0	0	4,745184	2,26575	295,1136	0,091	86,036	0	1017,06	6,8	8,8	8,7	1	1	1	1	1	1	1	1	1	0	1	-5,496829	274,123856	314,665614	0
15.01.2021	20:59:34	0	0	2,598553	2,238	304,6896	0,095	86,048	0	1017,16	6,7	8,8	8,7	1	1	1	1	1	1	1	1	1	0	1	-10,359408	274,015088	309,295197	0
15.01.2021	20:59:35	0	0	4,632203	2,39475	295,1172	0,092	86,04	0	1017,16	6,7	8,8	8,7	1	1	1	1	1	1	1	1	1	0	1	-11,41649	274,06567	308,47421	0
15.01.2021	20:59:36	0	0	4,406242	2,57625	314,8344	0,092	86,051	0	1017,08	6,8	8,8	8,7	1	1	1	1	1	1	1	1	1	0	1	-10,288936	273,997267	309,28252	0
15.01.2021	20:59:37	0	0	3,389417	2,62275	313,1712	0,097	86,047	0	1017,22	6,8	8,8	8,7	1	1	1	1	1	1	1	1	1	0	1	-10,993658	274,137308	309,231636	0
15.01.2021	20:59:38	0	0	3,050475	2,51925	314,8704	0,093	86,025	0	1017,26	6,8	8,8	8,7	1	1	1	1	1	1	1	1	1	0	1	-9,936575	274,022518	309,752703	0
15.01.2021	20:59:39	0	0	4,858164	2,28675	313,2432	0,093	86,043	0	1017,2	6,7	8,8	8,7	1	1	1	1	1	1	1	1	1	0	1	-8,45666	274,167235	311,908493	0
15.01.2021	20:59:40	0	0	2,824514	2,13	296,4348	0,09	86,046	0	1017,22	6,7	8,8	8,7	1	1	1	1	1	1	1	1	1	0	1	-9,866103	274,013602	309,78157	0
15.01.2021	20:59:41	0	0	4,745184	2,1075	286,236	0,087	86,057	0	1017,12	6,8	8,8	8,7	1	1	1	1	1	1	1	1	1	0	1	-7,470049	274,123856	312,692393	0
15.01.2021	20:59:42	0	0	4,745184	2,091	313,2468	0,093	86,037	0	1017,32	6,7	8,8	8,7	1	1	1	1	1	1	1	1	1	0	1	-9,161381	274,182217	311,2738	0
15.01.2021	20:59:43	0	0	3,841339	2,1675	311,76	0,095	86,048	0	1017,24	6,8	8,8	8,7	1	1	1	1	1	1	1	1	1	0	1	-12,262156	274,162743	308,082001	0
15.01.2021	20:59:44	0	0	2,485572	2,21925	332,4276	0,099	86,039	0	1017,28	6,8	8,8	8,7	1	1	1	1	1	1	1	1	1	0	1	-4,792107	274,028464	314,924921	0
15.01.2021	20:59:45	0	0	2,824514	2,2095	301,6008	0,099	86,039	0	1017,28	6,8	8,8	8,7	1	1	1	1	1	1	1	1	1	0	1	-5,355884	274,009146	314,270994	0
15.01.2021	20:59:46	0	0	5,310087	2,187	310,1976	0,089	86,036	0	1017,26	6,7	8,8	8,7	1	1	1	1	1	1	1	1	1	0	1	-5,285412	274,134318	314,92591	0
15.01.2021	20:59:47	0	0	4,180281	2,17875	304,9164	0,092	86,038	0	1017,26	6,8	8,8	8,7	1	1	1	1	1	1	1	1	1	0	1	-8,527132	274,189712	311,943089	0
15.01.2021	20:59:48	0	0	4,745184	2,26875	296,8128	0,093	86,043	0	1017,1	6,7	8,8	8,7	1	1	1	1	1	1	1	1	1	0	1	-9,372798	274,156756	310,943375	0
15.01.2021	20:59:49	0	0	2,598553	2,31075	307,2204	0,097	86,047	0	1017,36	6,7	8,8	8,7	1	1	1	1	1	1	1	1	1	0	1	-8,033827	274,17922	312,387344	0
15.01.2021	20:59:50	0	0	2,824514	2,148	304,5996	0,093	86,044	0	1017,14	6,8	8,8	8,7	1	1	1	1	1	1	1	1	1	0	1	-6,624383	274,040363	313,148176	0
15.01.2021	20:59:51	0	0	3,728381	1,9125	301,5324	0,088	86,048	0	1017,22	6,8	8,8	8,6	1	1	1	1	1	1	1	1	1	0	1	-8,315715	274,188213	312,147496	0
15.01.2021	20:59:52	0	0	3,95432	1,7175	305,73	0,095	86,057	0	1017,2	6,7	8,8	8,7	1	1	1	1	1	1	1	1	1	0	1	-5,144468	274,052268	314,683664	0
15.01.2021	20:59:53	0	0	3,050475	1,66875	281,7432	0,09	86,03	0	1017,14	6,7	8,8	8,7	1	1	1	1	1	1	1	1	1	0	1	-10,782241	274,185214	309,666954	0
15.01.2021	20:59:54	0	0	3,728359	1,7235	296,2224	0,091	86,04	0	1017,26	6,8	8,8	8,7	1	1	1	1	1	1	1	1	1	0	1	-5,567301	274,122361	314,588162	0
15.01.2021	20:59:55	0	0	3,163456	1,7415	294,7752	0,091	86,043	0	1017,18	6,7	8,8	8,7	1	1	1	1	1	1	1	1	1	0	1	-11,486963	274,001721	308,105272	0
15.01.2021	20:59:56	0	0	4,858164	1,75875	305,7156	0,087	86,053	0	1017,3	6,8	8,8	8,7	1	1	1	1	1	1	1	1	1	0	1	-9,020437	274,128339	311,16295	0
15.01.2021	20:59:57	0	0	2,711534	1,7325	302,8032	0,087	86,055	0	1017,3	6,8	8,8	8,7	1	1	1	1	1	1	1	1	1	0	1	-9,795631	274,180718	310,632545	0
15.01.2021	20:59:58	0	0	3,502398	1,74225	307,5048	0,092	86,053	0	1017,3	6,7	8,8	8,7	1	1	1	1	1	1	1	1	1	0	1	-10,007047	274,093995	310,015916	0
15.01.2021	20:59:59	0	0	2,711534	1,794	304,2288	0,087	86,043	0	1017,18	6,8	8,8	8,7	1	1	1	1	1	1	1	1	1	0	1	-9,44327	274,006175	310,169749	0
15.01.2021	21:00:00	0	0	4,0673	1,8225	313,29	0,092	86,054	0	1017,3	6,8	8,8	8,7	1	1	1	1	1	1	1	1	1	0	1	-10,711769	274,031438	309,019138	0
15.01.2021	21:00:01	0	0	2,937495	1,92075	308,0268	0,085	86,06	0	1017,18	6,8	8,8	8,7	1	1	1	1	1	1	1	1	1	0	1	-3,664553	273,99133	315,879208	0
15.01.2021	21:00:02	0	0	3,841339	1,911	307,53	0,089	86,056	0	1017,16	6,8	8,8	8,7	1	1	1	1	1	1	1	1	1	0	1	-6,765328	274,137308	313,459966	0
15.01.2021	21:00:03	0	0	4,745184	1,8315	297,8676	0,09	86,05	0	1017,04	6,8	8,8	8,7	1	1	1	1	1	1	1	1	1	0	1	-9,020437	274,000236	310,564871	0
15.01.2021	21:00:04	0	0	2,598553	1,8975	286,29	0,095	86,071	0	1017,2	6,7	8,8	8,7	1	1	1	1	1	1	1	1	1	0	1	-6,694856	274,120867	313,453627	0
15.01.2021	21:00:05	0	0	2,824514	2,01975	300,1608	0,085	86,058	0	1017,1	6,8	8,8	8,7	1	1	1	1	1	1	1	1	1	0	1	-9,372798	273,997267	310,198659	0
15.01.2021	21:00:06	0	0	4,180281	1,995	310,5936	0,093	86,064	0	1017,24	6,7	8,8	8,7	1	1	1	1	1	1	1	1	1	0	1	-9,090909	274,062691	310,785883	0
15.01.2021	21:00:07	0	0	2,937495	2,00925	312,534	0,087	86,068	0	1017,28	6,8	8,8	8,7	1	1	1	1	1	1	1	1	1	0	1	-10,570825	274,003205	309,028338	0
15.01.2021	21:00:08	0	0	4,406242	1,9335	307,1916	0,09	86,068	0	1017,26	6,8	8,8	8,7	1	1	1	1	1	1	1	1	1	0	1	-9,020437	274,158252	311,302731	0
15.01.2021	21:00:09	0	0	3,615378	1,812	319,9896	0,095	86,082	0	1017,36	6,7	8,8	8,7	1	1	1	1	1	1	1	1	1	0	1	-10,641297	274,131328	309,556057	0
15.01.2021	21:00:10	0	0	2,711534	1,73175	305,3808	0,088	86,059	0	1017,26	6,8	8,8	8,7	1	1	1	1	1	1	1	1	1	0	1	-6,20155	274,025491	313,501601	0
15.01.2021	21:00:11	0	0	3,389417	1,6875	309,9384	0,091	86,079	0	1017,22	6,7	8,8	8,7	1	1	1	1	1	1	1	1	1	0	1	-4,439746	274,12535	315,729677	0
15.01.2021	21:00:12	0	0	2,824514	1,632	310,7448	0,094	86,068	0	1017,3	6,7	8,8	8,7	1	1	1	1	1	1	1	1	1	0	1	-6,342495	273,994298	313,215113	0
15.01.2021	21:00:13	0	0	3,95432	1,51125	313,5276	0,096	86,076	0	1017,18	6,8	8,8	8,7	1	1	1	1	1	1	1	1	1	0	1	-10,147992	274,061202	309,721847	0
15.01.2021	21:00:14	0	0	3,276436	1,512	310,9752	0,09	86,081	0	1017,28	6,7	8,8	8,7	1	1	1	1	1	1	1	1	1	0	1	-7,117689	274,176223	313,289474	0
15.01.2021	21:00:15	0	0	3,95432	1,48125	310,2804	0,091	86,082	0	1017,14	6,7	8,8	8,7	1	1	1	1	1	1	1	1	1	0	1	-6,624383	274,141794	313,621873	0
15.01.2021	21:00:16	0	0	3,502398	1,548	304,254	0,087	86,079	0	1017,22	6,8	8,8	8,7	1	1	1	1	1	1	1	1	1	0	1	-9,090909	274,01806	310,577563	0
15.01.2021	21:00:17	0	0	3,050475	1,70325	283,1256	0,088	86,083	0	1017,22	6,7	8,8	8,7	1	1	1	1	1	1	1	1	1	0	1	-9,44327	274,025491	310,259882	0
15.01.2021	21:00:18	0	0	4,745184	1,82475	283,1544	0,092	86,079	0	1017,08	6,8	8,8	8,7	1	1	1	1	1	1	1	1	1	0	1	-7,610994	274,122361	312,544469	0
15.01.2021	21:00:19	0	0	3,615378	1,90275	286,9884	0,09	86,096	0	1017,4	6,7	8,8	8,7	1	1	1	1	1	1	1	1	1	0	1	-9,513742	274,012117	310,126998	0
15.01.2021	21:00:20	0	0	2,824514	1,971	294,2892	0,082	86,089	0	1017,14	6,8	8,8	8,7	1	1	1	1	1	1	1	1	1	0	1	-6,624383	274,062691	313,252408	0
15.01.2021	21:00:21	0	0	2,711534	2,0175	294,3828	0,089	86,092	0	1017,24	6,7	8,8	8,7	1	1	1	1	1	1	1	1	1	0	1	-8,879493	273,985395	310,636583	0
15.01.2021	21:00:22	0	0	2,824514	1,9725	297,2052	0,086	86,087	0	1017,34	6,8	8,8	8,7	1	1	1	1	1	1	1	1	1	0	1	-7,258633	274,08952	312,743431	0
15.01.2021	21:00:23	0	0	3,841339	1,86	308,4408	0,086	86,084	0	1017,24	6,7	8,8	8,7	1	1	1	1	1	1	1	1	1	0	1	-10,852713	274,00469	308,753377	0
15.01.2021	21:00:24	0	0	2,824514	1,72725	292,1472	0,09	86,097	0	1017,2	6,8	8,8	8,7	1	1	1	1	1	1	1	1	1	0	1	-4,651163	274,032925	315,086684	0
15.01.2021	21:00:25	0	0	2,598553	1,6995	298,9404	0,091	86,099	0	1017,24	6,7	8,8	8,7	1	1	1	1	1	1	1	1	1	0	1	-11,768851	274,062691	308,10794	0
15.01.2021	21:00:26	0	0	2,937495	1,674	298,62	0,087	86,097	0	1017,38	6,7	8,8	8,7	1	1	1	1	1	1	1	1	1	0	1	-8,80902	274,183716	311,633168	0
15.01.2021	21:00:27	0	0	4,858164	1,6365	294,0804	0,09	86,098	0	1017,12	6,7	8,8	8,7	1	1	1	1	1	1	1	1	1	0	1	-8,597604	274,07312	311,32788	0
15.01.2021	21:00:28	0	0	4,632203	1,59225	305,73	0,09	86,083	0	1017,26	6,7	8,8	8,7	1	1	1	1	1	1	1	1	1	0	1	-7,540521	274,164241	312,810634	0
15.01.2021	21:00:29	0	0	3,276436	1,54875	300,1356	0,087	86,102	0	1017,16	6,7	8,8	8,7	1	1	1	1	1	1	1	1	1	0	1	-10,077519	274,025491	309,625632	0
15.01.2021	21:00:30	0	0	4,858164	1,536	299,8368	0,089	86,093	0	1017,22	6,7	8,8	8,7	1	1	1	1	1	1	1	1	1	0	1	-4,933051	274,105934	315,145672	0
15.01.2021	21:00:31	0	0	2,372592	1,563	306,7236	0,091	86,092	0	1017,3	6,7	8,8	8,7	1	1	1	1	1	1	1	1	1	0	1	-9,020437	274,137308	311,204857	0
15.01.2021	21:00:32	0	0	2,598553	1,53525	298,6632	0,091	86,088	0	1017,26	6,8	8,8	8,7	1	1	1	1	1	1	1	1	1	0	1	-5,285412	273,992814	314,265271	0
15.01.2021	21:00:33	0	0	3,276436	1,55025	277,5672	0,088	86,105	0	1017,2	6,7	8,8	8,7	1	1	1	1	1	1	1	1	1	0	1	-11,06413	274,024005	308,632085	0
15.01.2021	21:00:34	0	0	3,841339	1,56	309,2292	0,09	86,111	0	1017,36	6,7	8,8	8,7	1	1	1	1	1	1	1	1	1	0	1	-8,104299	274,028464	311,612729	0
15.01.2021	21:00:35	0	0	2,824514	1,596	317,7684	0,09	86,099	0	1017,22	6,8	8,8	8,7	1	1	1	1	1	1	1	1	1	0	1	-9,584214	274,165738	310,77394	0
15.01.2021	21:00:36	0	0	3,841339	1,67475	309,4236	0,089	86,098	0	1017,18	6,8	8,8	8,7	1	1	1	1	1	1	1	1	1	0	1	-6,553911	274,126844	313,622494	0
15.01.2021	21:00:37	0	0	4,51925	1,63725	307,5768	0,088	86,1	0	1017,36	6,7	8,8	8,6	1	1	1	1	1	1	1	1	1	0	1	-13,742072	274,116386	306,385476	0
15.01.2021	21:00:38	0	0	3,728359	1,5555	302,8824	0,088	86,103	0	1017,28	6,8	8,8	8,7	1	1	1	1	1	1	1	1	1	0	1	-7,399577	274,180718	313,028599	0
15.01.2021	21:00:39	0	0	2,711534	1,512	306,1584	0,091	86,113	0	1017,2	6,8	8,8	8,7	1	1	1	1	1	1	1	1	1	0	1	-10,711769	274,009146	308,91511	0
15.01.2021	21:00:40	0	0	2,71155	1,54875	302,094	0,092	86,11	0	1017,4	6,8	8,8	8,6	1	1	1	1	1	1	1	1	1	0	1	-10,42988	274,038875	309,335735	0
15.01.2021	21:00:41	0	0	4,745184	1,69125	293,3532	0,092	86,112	0	1017,18	6,7	8,8	8,7	1	1	1	1	1	1	1	1	1	0	1	-12,05074	274,153762	308,251444	0
15.01.2021	21:00:42	0	0	3,276436	1,7985	297,1764	0,091	86,124	0	1017,26	6,8	8,8	8,7	1	1	1	1	1	1	1	1	1	0	1	-7,82241	274,074611	312,110032	0
15.01.2021	21:00:43	0	0	3,502398	1,82475	296,1324	0,087	86,112	0	1017,24	6,8	8,8	8,7	1	1	1	1	1	1	1	1	1	0	1	-6,060606	274,173227	314,332551	0
15.01.2021	21:00:44	0	0	3,728359	1,79925	302,778	0,087	86,122	0	1017,26	6,7	8,8	8,7	1	1	1	1	1	1	1	1	1	0	1	-10,641297	274,176223	309,765866	0
15.01.2021	21:00:45	0	0	3,728359	1,82775	308,07	0,092	86,112	0	1017,08	6,7	8,8	8,7	1	1	1	1	1	1	1	1	1	0	1	-11,346018	274,06567	308,544682	0
15.01.2021	21:00:46	0	0	2,259611	1,91475	296,4204	0,092	86,117	0	1017,22	6,7	8,8	8,7	1	1	1	1	1	1	1	1	1	0	1	-7,892882	274,012117	311,747858	0
15.01.2021	21:00:47	0	0	3,276436	1,989	305,352	0,092	86,109	0	1017,1	6,7	8,8	8,7	1	1	1	1	1	1	1	1	1	0	1	-5,919662	274,168733	314,452491	0
15.01.2021	21:00:48	0	0	5,084125	1,97025	295,1892	0,092	86,112	0	1017,34	6,7	8,8	8,7	1	1	1	1	1	1	1	1	1	0	1	-8,879493	274,099963	311,171346	0
15.01.2021	21:00:49	0	0	3,95432	1,89	302,0544	0,089	86,121	0	1017,3	6,7	8,8	8,7	1	1	1	1	1	1	1	1	1	0	1	-7,399577	274,170231	312,979576	0
15.01.2021	21:00:50	0	0	2,824514	1,79025	294,3108	0,091	86,12	0	1017,24	6,7	8,8	8,7	1	1	1	1	1	1	1	1	1	0	1	-9,231853	274,010631	310,401956	0
15.01.2021	21:00:51	0	0	3,276436	1,82175	300,438	0,086	86,115	0	1017,4	6,7	8,8	8,7	1	1	1	1	1	1	1	1	1	0	1	-5,355884	274,114893	314,764687	0
15.01.2021	21:00:52	0	0	3,163456	1,863	309,2112	0,086	86,128	0	1017,28	6,7	8,8	8,7	1	1	1	1	1	1	1	1	1	0	1	-8,738548	273,989846	310,79829	0
15.01.2021	21:00:53	0	0	3,050494	1,93425	305,0172	0,086	86,126	0	1017,14	6,7	8,8	8,6	1	1	1	1	1	1	1	1	1	0	1	-6,553911	274,173227	313,839245	0
15.01.2021	21:00:54	0	0	4,180281	1,94625	306,8064	0,086	86,118	0	1017,2	6,8	8,8	8,7	1	1	1	1	1	1	1	1	1	0	1	-11,486963	274,096979	308,549937	0
15.01.2021	21:00:55	0	0	4,745212	1,782	313,0956	0,09	86,133	0	1017,2	6,8	8,8	8,6	1	1	1	1	1	1	1	1	1	0	1	-9,584214	274,183716	310,857974	0
15.01.2021	21:00:56	0	0	2,711534	1,68	290,0592	0,09	86,126	0	1017,16	6,7	8,8	8,7	1	1	1	1	1	1	1	1	1	0	1	-8,597604	273,994298	310,960003	0
15.01.2021	21:00:57	0	0	3,502419	1,5975	300,7728	0,086	86,131	0	1017,32	6,7	8,8	8,6	1	1	1	1	1	1	1	1	1	0	1	-7,470049	274,108919	312,622621	0
15.01.2021	21:00:58	0	0	3,841339	1,61325	291,4488	0,087	86,132	0	1017,12	6,7	8,8	8,7	1	1	1	1	1	1	1	1	1	0	1	-10,782241	274,173227	309,610916	0
15.01.2021	21:00:59	0	0	3,163456	1,677	300,0744	0,083	86,125	0	1017,26	6,7	8,8	8,7	1	1	1	1	1	1	1	1	1	0	1	-10,852713	274,128339	309,330674	0
15.01.2021	21:01:00	0	0	4,519223	1,77675	301,7412	0,084	86,133	0	1017,18	6,8	8,8	8,7	1	1	1	1	1	1	1	1	1	0	1	-9,44327	274,025491	310,259882	0
15.01.2021	21:01:01	0	0	4,632203	1,89525	303,8976	0,092	86,138	0	1017,28	6,7	8,8	8,7	1	1	1	1	1	1	1	1	1	0	1	-4,439746	274,171729	315,946408	0
15.01.2021	21:01:02	0	0	2,937495	1,89375	309,24	0,089	86,133	0	1017,24	6,7	8,8	8,7	1	1	1	1	1	1	1	1	1	0	1	-7,188161	274,104441	312,883591	0
15.01.2021	21:01:03	0	0	3,95432	1,78425	307,566	0,089	86,136	0	1017,12	6,7	8,8	8,7	1	1	1	1	1	1	1	1	1	0	1	-8,386187	274,15077	311,90201	0
15.01.2021	21:01:04	0	0	4,632203	1,70325	297,2484	0,086	86,151	0	1017,28	6,7	8,8	8,7	1	1	1	1	1	1	1	1	1	0	1	-10,570825	274,182217	309,864357	0
15.01.2021	21:01:05	0	0	3,389417	1,641	292,5828	0,09	86,138	0	1017,24	6,7	8,8	8,7	1	1	1	1	1	1	1	1	1	0	1	-7,047216	274,00469	312,558874	0
15.01.2021	21:01:06	0	0	4,293261	1,665	280,2132	0,084	86,138	0	1017,08	6,7	8,8	8,7	1	1	1	1	1	1	1	1	1	0	1	-4,510218	274,082064	315,457027	0
15.01.2021	21:01:07	0	0	4,971145	1,6815	286,6104	0,088	86,151	0	1017,18	6,7	8,8	8,7	1	1	1	1	1	1	1	1	1	0	1	-7,540521	274,0359	312,211209	0
15.01.2021	21:01:08	0	0	4,971145	1,6725	290,0376	0,086	86,137	0	1017,2	6,8	8,8	8,7	1	1	1	1	1	1	1	1	1	0	1	-9,654686	274,00469	309,951404	0
15.01.2021	21:01:09	0	0	3,163456	1,68225	276,138	0,085	86,138	0	1017,3	6,7	8,8	8,7	1	1	1	1	1	1	1	1	1	0	1	-7,188161	274,050779	312,633022	0
15.01.2021	21:01:10	0	0	2,711534	1,797	279,4788	0,088	86,15	0	1017,24	6,8	8,8	8,7	1	1	1	1	1	1	1	1	1	0	1	-8,879493	274,064181	311,004253	0
15.01.2021	21:01:11	0	0	4,971145	2,09625	289,206	0,087	86,157	0	1017,28	6,7	8,8	8,7	1	1	1	1	1	1	1	1	1	0	1	-6,060606	274,170231	314,318547	0
15.01.2021	21:01:12	0	0	3,163456	2,35125	304,2	0,089	86,149	0	1017,24	6,7	8,8	8,7	1	1	1	1	1	1	1	1	1	0	1	-10,993658	274,204711	309,54669	0
15.01.2021	21:01:13	0	0	2,485572	2,53575	293,6736	0,079	86,14	0	1017,12	6,7	8,8	8,7	1	1	1	1	1	1	1	1	1	0	1	-11,134602	274,021032	308,54774	0
15.01.2021	21:01:14	0	0	3,389437	2,463	312,8292	0,086	86,159	0	1017,26	6,7	8,8	8,6	1	1	1	1	1	1	1	1	1	0	1	-9,584214	274,137308	310,641079	0
15.01.2021	21:01:15	0	0	3,389437	2,292	299,79	0,081	86,152	0	1017,18	6,7	8,8	8,6	1	1	1	1	1	1	1	1	1	0	1	-11,346018	274,009146	308,28086	0
15.01.2021	21:01:16	0	0	2,824514	2,118	305,2764	0,089	86,137	0	1017,46	6,7	8,8	8,7	1	1	1	1	1	1	1	1	1	0	1	-10,288936	274,126844	309,887469	0
15.01.2021	21:01:17	0	0	4,293287	1,95	300,8304	0,09	86,16	0	1017,24	6,7	8,8	8,6	1	1	1	1	1	1	1	1	1	0	1	-7,047216	274,052268	312,780915	0
15.01.2021	21:01:18	0	0	4,745184	1,81275	304,668	0,082	86,152	0	1017,28	6,7	8,8	8,7	1	1	1	1	1	1	1	1	1	0	1	-10,993658	274,159749	309,336506	0
15.01.2021	21:01:19	0	0	4,180281	1,79925	305,3556	0,087	86,138	0	1017,22	6,7	8,8	8,7	1	1	1	1	1	1	1	1	1	0	1	-3,030303	274,019546	316,645104	0
15.01.2021	21:01:20	0	0	4,406268	1,73625	298,9872	0,088	86,148	0	1017,24	6,8	8,8	8,6	1	1	1	1	1	1	1	1	1	0	1	-9,584214	274,14329	310,66903	0
15.01.2021	21:01:21	0	0	3,050475	1,716	307,2168	0,085	86,147	0	1017,24	6,7	8,8	8,7	1	1	1	1	1	1	1	1	1	0	1	-12,473573	274,012117	307,167168	0
15.01.2021	21:01:22	0	0	4,406242	1,72575	309,8988	0,088	86,153	0	1017,1	6,7	8,8	8,7	1	1	1	1	1	1	1	1	1	0	1	-13,883016	274,058223	305,972917	0
15.01.2021	21:01:23	0	0	3,6154	1,69725	305,0172	0,083	86,14	0	1017,28	6,7	8,8	8,6	1	1	1	1	1	1	1	1	1	0	1	-5,426357	274,135813	314,791951	0
15.01.2021	21:01:24	0	0	2,485587	1,65525	296,8344	0,086	86,16	0	1017,22	6,7	8,8	8,6	1	1	1	1	1	1	1	1	1	0	1	-6,765328	274,173227	313,627829	0
15.01.2021	21:01:25	0	0	3,954344	1,60725	311,3748	0,088	86,147	0	1017,22	6,7	8,8	8,6	1	1	1	1	1	1	1	1	1	0	1	-12,544045	274,120867	307,604438	0
15.01.2021	21:01:26	0	0	2,598553	1,59075	288,1908	0,087	86,156	0	1017,3	6,7	8,8	8,7	1	1	1	1	1	1	1	1	1	0	1	-5,708245	274,170231	314,670908	0
15.01.2021	21:01:27	0	0	4,971145	1,566	288,144	0,09	86,156	0	1017,24	6,7	8,8	8,7	1	1	1	1	1	1	1	1	1	0	1	-6,906272	274,162743	313,437885	0
15.01.2021	21:01:28	0	0	2,71155	1,5975	293,6628	0,085	86,151	0	1017,18	6,7	8,8	8,6	1	1	1	1	1	1	1	1	1	0	1	-9,795631	274,086537	310,192504	0
15.01.2021	21:01:29	0	0	2,598569	1,5885	283,1796	0,087	86,152	0	1017,28	6,7	8,8	8,6	1	1	1	1	1	1	1	1	1	0	1	-14,094433	274,043338	305,692016	0
15.01.2021	21:01:30	0	0	4,971175	1,52025	298,2024	0,088	86,14	0	1017,3	6,7	8,8	8,6	1	1	1	1	1	1	1	1	1	0	1	-5,567301	273,995783	313,997231	0
15.01.2021	21:01:31	0	0	4,406242	1,5255	305,802	0,086	86,15	0	1017,16	6,7	8,8	8,7	1	1	1	1	1	1	1	1	1	0	1	-9,795631	274,06567	310,09507	0
15.01.2021	21:01:32	0	0	3,954344	1,437	308,8764	0,092	86,155	0	1017,48	6,7	8,8	8,6	1	1	1	1	1	1	1	1	1	0	1	-8,245243	274,026978	311,464846	0
15.01.2021	21:01:33	0	0	3,050494	1,395	304,65	0,088	86,144	0	1017,18	6,7	8,8	8,6	1	1	1	1	1	1	1	1	1	0	1	-6,906272	274,167235	313,458881	0
15.01.2021	21:01:34	0	0	3,841362	1,344	301,644	0,087	86,158	0	1017,36	6,7	8,8	8,6	1	1	1	1	1	1	1	1	1	0	1	-6,553911	274,06567	313,336789	0
15.01.2021	21:01:35	0	0	3,050494	1,2915	305,064	0,09	86,145	0	1017,2	6,8	8,8	8,6	1	1	1	1	1	1	1	1	1	0	1	-9,44327	273,992814	310,107414	0
15.01.2021	21:01:36	0	0	2,598569	1,27725	302,526	0,084	86,163	0	1017,14	6,7	8,8	8,6	1	1	1	1	1	1	1	1	1	0	1	-8,949965	274,025491	310,753187	0
15.01.2021	21:01:37	0	0	4,858164	1,236	309,7944	0,09	86,154	0	1017,3	6,7	8,8	8,7	1	1	1	1	1	1	1	1	1	0	1	-6,342495	274,031438	313,388412	0
15.01.2021	21:01:38	0	0	3,502419	1,23525	308,7936	0,082	86,156	0	1017,06	6,7	8,8	8,6	1	1	1	1	1	1	1	1	1	0	1	-2,466526	274,00469	317,139565	0
15.01.2021	21:01:39	0	0	4,406242	1,149	304,7112	0,083	86,144	0	1017,2	6,7	8,8	8,7	1	1	1	1	1	1	1	1	1	0	1	-3,805497	274,177721	316,608669	0
15.01.2021	21:01:40	0	0	3,615378	1,1445	309,924	0,087	86,164	0	1017,44	6,7	8,8	8,7	1	1	1	1	1	1	1	1	1	0	1	-8,104299	274,095487	311,925633	0
15.01.2021	21:01:41	0	0	5,310087	1,1355	299,7396	0,088	86,161	0	1017,26	6,7	8,8	8,7	1	1	1	1	1	1	1	1	1	0	1	-10,007047	274,062691	309,869744	0
15.01.2021	21:01:42	0	0	3,502419	1,1565	294,7788	0,093	86,166	0	1017,1	6,8	8,8	8,6	1	1	1	1	1	1	1	1	1	0	1	-10,359408	274,168733	310,012745	0
15.01.2021	21:01:43	0	0	3,841339	1,173	305,3196	0,086	86,16	0	1017,14	6,7	8,8	8,7	1	1	1	1	1	1	1	1	1	0	1	-9,161381	274,06716	310,736275	0
15.01.2021	21:01:44	0	0	4,745184	1,21575	313,1676	0,086	86,165	0	1017,32	6,7	8,8	8,7	1	1	1	1	1	1	1	1	1	0	1	-6,412967	274,07312	313,512517	0
15.01.2021	21:01:45	0	0	2,372592	1,233	305,6292	0,086	86,152	0	1017,28	6,7	8,8	8,7	1	1	1	1	1	1	1	1	1	0	1	-9,302326	273,986879	310,22067	0
15.01.2021	21:01:46	0	0	3,502398	1,23525	304,2252	0,082	86,153	0	1017,04	6,7	8,8	8,7	1	1	1	1	1	1	1	1	1	0	1	-8,949965	274,026978	310,760125	0
15.01.2021	21:01:47	0	0	4,0673	1,182	297,522	0,086	86,16	0	1017,26	6,7	8,8	8,7	1	1	1	1	1	1	1	1	1	0	1	-5,778717	274,096979	314,258182	0
15.01.2021	21:01:48	0	0	3,502398	1,1295	288,504	0,081	86,159	0	1017,32	6,7	8,8	8,7	1	1	1	1	1	1	1	1	1	0	1	-8,174771	274,167235	312,190382	0
15.01.2021	21:01:49	0	0	2,824514	1,179	313,56	0,084	86,162	0	1017,18	6,7	8,8	8,7	1	1	1	1	1	1	1	1	1	0	1	-10,711769	274,079082	309,241553	0
15.01.2021	21:01:50	0	0	2,937495	1,176	322,5636	0,087	86,167	0	1017,26	6,7	8,8	8,7	1	1	1	1	1	1	1	1	1	0	1	-8,45666	274,055245	311,385372	0
15.01.2021	21:01:51	0	0	2,711534	1,20375	300,1572	0,08	86,169	0	1017,2	6,7	8,8	8,7	1	1	1	1	1	1	1	1	1	0	1	-7,188161	273,99133	312,3556	0
15.01.2021	21:01:52	0	0	3,728359	1,29975	289,5156	0,088	86,174	0	1017,28	6,7	8,8	8,7	1	1	1	1	1	1	1	1	1	0	1	-10,711769	274,159749	309,618395	0
15.01.2021	21:01:53	0	0	4,745212	1,35375	304,8804	0,09	86,165	0	1017,36	6,7	8,8	8,6	1	1	1	1	1	1	1	1	1	0	1	-8,174771	274,038875	311,590844	0
15.01.2021	21:01:54	0	0	4,51925	1,37625	309,5208	0,086	86,165	0	1017,2	6,7	8,8	8,6	1	1	1	1	1	1	1	1	1	0	1	-10,711769	274,158252	309,611399	0
15.01.2021	21:01:55	0	0	3,163456	1,425	304,578	0,083	86,166	0	1017,24	6,7	8,8	8,7	1	1	1	1	1	1	1	1	1	0	1	-8,104299	274,101456	311,95351	0
15.01.2021	21:01:56	0	0	2,937512	1,49175	315,882	0,089	86,161	0	1017,16	6,7	8,8	8,6	1	1	1	1	1	1	1	1	1	0	1	-4,510218	273,983912	314,998937	0
15.01.2021	21:01:57	0	0	3,954344	1,638	311,7852	0,078	86,171	0	1017,16	6,7	8,8	8,6	1	1	1	1	1	1	1	1	1	0	1	-9,513742	274,000236	310,071566	0
15.01.2021	21:01:58	0	0	2,937495	1,73175	301,6008	0,083	86,151	0	1017,26	6,7	8,8	8,7	1	1	1	1	1	1	1	1	1	0	1	-11,768851	274,038875	307,996764	0
15.01.2021	21:01:59	0	0	4,067325	1,85025	310,6224	0,081	86,156	0	1017,38	6,7	8,8	8,6	1	1	1	1	1	1	1	1	1	0	1	-13,248767	274,083555	306,725441	0
15.01.2021	21:02:00	0	0	4,51925	1,7745	306,4464	0,082	86,163	0	1017,36	6,7	8,8	8,6	1	1	1	1	1	1	1	1	1	0	1	-7,751938	274,168733	312,620215	0
15.01.2021	21:02:01	0	0	4,51925	1,7745	306,4464	0,082	86,163	0	1017,36	6,7	8,8	8,6	1	1	1	1	1	1	1	1	1	0	1	-10,42988	274,108919	309,66279	0
15.01.2021	21:02:02	0	0	3,728381	1,788	298,026	0,078	86,155	0	1017,22	6,8	8,8	8,6	1	1	1	1	1	1	1	1	1	0	1	-9,020437	274,095487	311,009494	0
15.01.2021	21:02:03	0	0	4,519223	1,70325	310,6656	0,085	86,161	0	1017,18	6,7	8,8	8,7	1	1	1	1	1	1	1	1	1	0	1	-6,342495	274,161246	313,994665	0
15.01.2021	21:02:04	0	0	2,598553	1,62975	299,0124	0,081	86,147	0	1017,26	6,7	8,8	8,7	1	1	1	1	1	1	1	1	1	0	1	-4,580691	274,001721	315,011544	0
15.01.2021	21:02:05	0	0	4,632203	1,656	297,972	0,084	86,161	0	1017,4	6,7	8,8	8,7	1	1	1	1	1	1	1	1	1	0	1	-6,272023	274,044826	313,521371	0
15.01.2021	21:02:06	0	0	2,937512	1,63275	297,5688	0,087	86,166	0	1017,14	6,7	8,8	8,6	1	1	1	1	1	1	1	1	1	0	1	-5,144468	274,164241	315,206687	0
15.01.2021	21:02:07	0	0	3,95432	1,63875	300,4128	0,08	86,165	0	1017,3	6,7	8,8	8,7	1	1	1	1	1	1	1	1	1	0	1	-10,993658	273,99133	308,550103	0
15.01.2021	21:02:08	0	0	4,0673	1,611	300,8052	0,084	86,17	0	1017,22	6,7	8,8	8,7	1	1	1	1	1	1	1	1	1	0	1	-8,315715	274,052268	311,512416	0
15.01.2021	21:02:09	0	0	3,841362	1,58175	315,4824	0,083	86,153	0	1017,08	6,7	8,8	8,6	1	1	1	1	1	1	1	1	1	0	1	-11,698379	273,992814	307,852305	0
15.01.2021	21:02:10	0	0	4,180281	1,515	311,7852	0,087	86,174	0	1017,42	6,7	8,8	8,7	1	1	1	1	1	1	1	1	1	0	1	-6,272023	274,170231	314,107131	0
15.01.2021	21:02:11	0	0	4,745184	1,491	314,7228	0,087	86,164	0	1017,18	6,7	8,8	8,7	1	1	1	1	1	1	1	1	1	0	1	-8,245243	274,12535	311,92418	0
15.01.2021	21:02:12	0	0	4,51925	1,45875	318,0744	0,087	86,165	0	1017,18	6,7	8,8	8,6	1	1	1	1	1	1	1	1	1	0	1	-7,188161	274,167235	313,176992	0
15.01.2021	21:02:13	0	0	2,824514	1,48875	301,644	0,084	86,162	0	1017,34	6,7	8,8	8,7	1	1	1	1	1	1	1	1	1	0	1	-10,288936	274,0359	309,462794	0
15.01.2021	21:02:14	0	0	4,519223	1,47	310,7304	0,085	86,176	0	1017,38	6,7	8,8	8,7	1	1	1	1	1	1	1	1	1	0	1	-8,104299	273,967602	311,328783	0
15.01.2021	21:02:15	0	0	2,598553	1,521	311,7348	0,085	86,155	0	1017,26	6,7	8,8	8,7	1	1	1	1	1	1	1	1	1	0	1	-9,654686	274,15077	310,633512	0
15.01.2021	21:02:16	0	0	5,197106	1,5195	312,8256	0,093	86,175	0	1017,24	6,7	8,8	8,7	1	1	1	1	1	1	1	1	1	0	1	-8,033827	274,135813	312,184481	0
15.01.2021	21:02:17	0	0	4,632203	1,59375	298,0044	0,084	86,161	0	1016,96	6,7	8,8	8,7	1	1	1	1	1	1	1	1	1	0	1	-9,866103	274,058223	309,989831	0
15.01.2021	21:02:18	0	0	4,180306	1,644	337,5684	0,082	86,177	0	1017,3	6,7	8,8	8,6	1	1	1	1	1	1	1	1	1	0	1	-5,567301	274,164241	314,783854	0
15.01.2021	21:02:19	0	0	4,51925	1,63575	330,1092	0,085	86,164	0	1017,16	6,7	8,6	8,6	1	1	1	1	1	1	1	1	1	0	1	-6,131078	274,132823	314,073259	0
15.01.2021	21:02:20	0	0	4,067325	1,5315	312,4044	0,085	86,164	0	1017,32	6,7	8,8	8,6	1	1	1	1	1	1	1	1	1	0	1	-12,684989	274,08952	307,317075	0
15.01.2021	21:02:21	0	0	3,6154	1,38675	302,8176	0,082	86,179	0	1017,18	6,7	8,8	8,6	1	1	1	1	1	1	1	1	1	0	1	-8,949965	274,015088	310,70464	0
15.01.2021	21:02:22	0	0	4,067325	1,2645	292,2444	0,085	86,172	0	1017,2	6,7	8,8	8,6	1	1	1	1	1	1	1	1	1	0	1	-5,708245	274,00469	313,897845	0
15.01.2021	21:02:23	0	0	4,632203	1,203	300,7332	0,086	86,179	0	1017,2	6,7	8,8	8,7	1	1	1	1	1	1	1	1	1	0	1	-8,386187	274,053757	311,448894	0
15.01.2021	21:02:24	0	0	4,858193	1,1625	288,0324	0,086	86,163	0	1017,2	6,7	8,8	8,6	1	1	1	1	1	1	1	1	1	0	1	-10,077519	274,028464	309,639509	0
15.01.2021	21:02:25	0	0	4,180281	1,116	297,5076	0,083	86,171	0	1017,18	6,7	8,8	8,7	1	1	1	1	1	1	1	1	1	0	1	-11,627907	273,980945	307,867411	0
15.01.2021	21:02:26	0	0	5,197106	1,16475	301,6116	0,087	86,187	0	1017,2	6,7	8,8	8,7	1	1	1	1	1	1	1	1	1	0	1	-9,866103	273,982429	309,636134	0
15.01.2021	21:02:27	0	0	2,598569	1,23825	299,7432	0,082	86,161	0	1017,24	6,7	8,8	8,6	1	1	1	1	1	1	1	1	1	0	1	-10,500352	274,159749	309,829811	0
15.01.2021	21:02:28	0	0	4,51925	1,3425	302,1012	0,084	86,166	0	1017,18	6,7	8,8	8,6	1	1	1	1	1	1	1	1	1	0	1	-8,104299	274,126844	312,072106	0
15.01.2021	21:02:29	0	0	3,502398	1,4535	297,162	0,082	86,172	0	1017,14	6,7	8,8	8,7	1	1	1	1	1	1	1	1	1	0	1	-4,369274	273,986879	315,153722	0
15.01.2021	21:02:30	0	0	4,858193	1,515	296,8596	0,085	86,18	0	1017,22	6,7	8,8	8,6	1	1	1	1	1	1	1	1	1	0	1	-7,188161	273,967602	312,244921	0
15.01.2021	21:02:31	0	0	3,389437	1,55775	291,5496	0,085	86,178	0	1017,2	6,7	8,8	8,6	1	1	1	1	1	1	1	1	1	0	1	-9,725159	274,14329	310,528086	0
15.01.2021	21:02:32	0	0	3,728359	1,6275	285,8832	0,085	86,17	0	1017,2	6,7	8,8	8,7	1	1	1	1	1	1	1	1	1	0	1	-9,725159	274,079082	310,228164	0
15.01.2021	21:02:33	0	0	4,0673	1,638	289,5768	0,085	86,171	0	1017,28	6,7	8,8	8,7	1	1	1	1	1	1	1	1	1	0	1	-13,319239	273,988363	306,210678	0
15.01.2021	21:02:34	0	0	2,824531	1,6305	295,524	0,084	86,174	0	1017,26	6,7	8,8	8,6	1	1	1	1	1	1	1	1	1	0	1	-3,24172	274,003205	316,357443	0
15.01.2021	21:02:35	0	0	4,632203	1,62825	296,856	0,084	86,186	0	1017,24	6,7	8,8	8,7	1	1	1	1	1	1	1	1	1	0	1	-10,218464	274,044826	309,57493	0
15.01.2021	21:02:36	0	0	5,084156	1,641	293,7312	0,074	86,179	0	1017,2	6,7	8,8	8,6	1	1	1	1	1	1	1	1	1	0	1	-6,131078	273,973531	313,329658	0
15.01.2021	21:02:37	0	0	3,954344	1,7325	308,1276	0,082	86,181	0	1017,24	6,7	8,8	8,6	1	1	1	1	1	1	1	1	1	0	1	-6,412967	274,152266	313,882224	0
15.01.2021	21:02:38	0	0	4,858164	1,7265	301,3164	0,079	86,175	0	1017,32	6,7	8,8	8,7	1	1	1	1	1	1	1	1	1	0	1	-8,949965	274,114893	311,170607	0
15.01.2021	21:02:39	0	0	4,745212	1,794	298,2672	0,083	86,173	0	1017,26	6,7	8,8	8,6	1	1	1	1	1	1	1	1	1	0	1	-11,134602	274,026978	308,575488	0
15.01.2021	21:02:40	0	0	2,372606	1,90125	293,346	0,076	86,175	0	1017,22	6,7	8,8	8,6	1	1	1	1	1	1	1	1	1	0	1	-9,513742	274,144785	310,746492	0
15.01.2021	21:02:41	0	0	2,598553	1,93575	306,432	0,079	86,174	0	1017,2	6,7	8,8	8,7	1	1	1	1	1	1	1	1	1	0	1	-6,8358	273,994298	312,721807	0
15.01.2021	21:02:42	0	0	4,406242	1,9425	299,412	0,083	86,183	0	1017,28	6,7	8,8	8,7	1	1	1	1	1	1	1	1	1	0	1	-9,795631	274,095487	310,234301	0
15.01.2021	21:02:43	0	0	2,598569	1,97325	310,7268	0,085	86,171	0	1017,22	6,7	8,8	8,6	1	1	1	1	1	1	1	1	1	0	1	-10,007047	274,08952	309,995017	0
15.01.2021	21:02:44	0	0	4,858193	1,9215	310,9824	0,083	86,17	0	1017,24	6,7	8,8	8,6	1	1	1	1	1	1	1	1	1	0	1	-8,386187	273,980945	311,109131	0
15.01.2021	21:02:45	0	0	4,632231	1,85925	317,754	0,086	86,176	0	1017,32	6,7	8,8	8,6	1	1	1	1	1	1	1	1	1	0	1	-10,077519	274,140298	310,161748	0
15.01.2021	21:02:46	0	0	4,858164	1,86975	323,7804	0,082	86,159	0	1017,22	6,7	8,8	8,7	1	1	1	1	1	1	1	1	1	0	1	-10,147992	274,131328	310,049362	0
15.01.2021	21:02:47	0	0	3,050494	1,8825	324,0144	0,078	86,174	0	1017,22	6,7	8,8	8,6	1	1	1	1	1	1	1	1	1	0	1	-8,315715	274,131328	311,881638	0
15.01.2021	21:02:48	0	0	4,858193	1,947	318,4236	0,081	86,155	0	1017,3	6,7	8,8	8,6	1	1	1	1	1	1	1	1	1	0	1	-8,45666	274,165738	311,901494	0
15.01.2021	21:02:49	0	0	3,954344	1,97475	318,4272	0,085	86,175	0	1017,08	6,7	8,8	8,6	1	1	1	1	1	1	1	1	1	0	1	-5,919662	273,976497	313,554905	0
15.01.2021	21:02:50	0	0	3,389417	1,95975	304,2072	0,085	86,173	0	1017,26	6,7	8,8	8,7	1	1	1	1	1	1	1	1	1	0	1	-5,567301	274,079082	314,386021	0
15.01.2021	21:02:51	0	0	3,276456	1,97775	321,1164	0,084	86,158	0	1017,36	6,7	8,8	8,6	1	1	1	1	1	1	1	1	1	0	1	-7,610994	274,128339	312,572393	0
15.01.2021	21:02:52	0	0	4,406242	2,0325	310,2372	0,083	86,17	0	1017,3	6,7	8,8	8,7	1	1	1	1	1	1	1	1	1	0	1	-9,372798	274,156756	310,943375	0
15.01.2021	21:02:53	0	0	3,502398	1,9935	291,1572	0,081	86,178	0	1017,28	6,7	8,8	8,7	1	1	1	1	1	1	1	1	1	0	1	-11,980268	274,044826	307,813126	0
15.01.2021	21:02:54	0	0	3,6154	1,9185	317,1456	0,084	86,177	0	1017,22	6,7	8,8	8,6	1	1	1	1	1	1	1	1	1	0	1	-7,117689	274,010631	312,516121	0
15.01.2021	21:02:55	0	0	2,033662	1,87725	315,5436	0,083	86,172	0	1017,26	6,7	8,8	8,6	1	1	1	1	1	1	1	1	1	0	1	-4,22833	274,14329	316,024915	0
15.01.2021	21:02:56	0	0	2,598569	1,8195	307,5948	0,083	86,162	0	1017,2	6,7	8,8	8,6	1	1	1	1	1	1	1	1	1	0	1	-4,580691	274,009146	315,046188	0
15.01.2021	21:02:57	0	0	4,180281	1,6725	320,4108	0,08	86,168	0	1017,3	6,7	8,8	8,7	1	1	1	1	1	1	1	1	1	0	1	-8,45666	274,038875	311,308956	0
15.01.2021	21:02:58	0	0	3,163475	1,674	320,8788	0,082	86,162	0	1017,2	6,7	8,8	8,6	1	1	1	1	1	1	1	1	1	0	1	-11,486963	273,973531	307,973773	0
15.01.2021	21:02:59	0	0	4,293287	1,67475	322,6464	0,074	86,177	0	1017,24	6,7	8,8	8,6	1	1	1	1	1	1	1	1	1	0	1	-9,936575	273,983912	309,572581	0
15.01.2021	21:03:00	0	0	4,858193	1,5495	316,548	0,081	86,168	0	1017,3	6,7	8,8	8,6	1	1	1	1	1	1	1	1	1	0	1	-5,144468	274,012117	314,496273	0
15.01.2021	21:03:01	0	0	3,6154	1,52175	320,0544	0,079	86,152	0	1017,16	6,7	8,8	8,6	1	1	1	1	1	1	1	1	1	0	1	-8,879493	274,105934	311,199231	0
15.01.2021	21:03:02	0	0	2,824531	1,41675	322,6212	0,075	86,158	0	1017,28	6,7	8,8	8,6	1	1	1	1	1	1	1	1	1	0	1	-8,668076	273,982429	310,834161	0
15.01.2021	21:03:03	0	0	3,276456	1,41825	322,9524	0,084	86,169	0	1017,16	6,7	8,8	8,6	1	1	1	1	1	1	1	1	1	0	1	-9,795631	274,009146	309,831248	0
15.01.2021	21:03:04	0	0	4,858193	1,5855	300,4992	0,074	86,169	0	1017,28	6,7	8,8	8,6	1	1	1	1	1	1	1	1	1	0	1	-13,248767	273,980945	306,246552	0
15.01.2021	21:03:05	0	0	4,745184	1,7025	327,8268	0,073	86,165	0	1017,28	6,7	8,8	8,7	1	1	1	1	1	1	1	1	1	0	1	-8,949965	274,15077	311,338233	0
15.01.2021	21:03:06	0	0	4,293287	1,7235	312,8472	0,08	86,174	0	1016,98	6,7	8,8	8,6	1	1	1	1	1	1	1	1	1	0	1	-9,44327	274,111906	310,66335	0
15.01.2021	21:03:07	0	0	4,180281	1,644	303,8256	0,076	86,174	0	1017,3	6,7	8,8	8,7	1	1	1	1	1	1	1	1	1	0	1	-7,470049	274,029951	312,253918	0
15.01.2021	21:03:08	0	0	3,954344	1,70625	319,5792	0,082	86,183	0	1017,3	6,7	8,8	8,6	1	1	1	1	1	1	1	1	1	0	1	-12,191684	273,964638	307,227574	0
15.01.2021	21:03:09	0	0	4,180281	1,638	320,4828	0,081	86,168	0	1017,12	6,7	8,8	8,7	1	1	1	1	1	1	1	1	1	0	1	-12,896406	274,085046	307,084765	0
15.01.2021	21:03:10	0	0	2,485572	1,5405	314,8776	0,08	86,155	0	1017,42	6,7	8,8	8,7	1	1	1	1	1	1	1	1	1	0	1	-9,372798	273,973531	310,087938	0
15.01.2021	21:03:11	0	0	2,146644	1,44075	304,974	0,077	86,169	0	1017,34	6,7	8,8	8,6	1	1	1	1	1	1	1	1	1	0	1	-6,624383	273,976497	312,850184	0
15.01.2021	21:03:12	0	0	2,485587	1,32975	298,224	0,079	86,18	0	1017,24	6,7	8,8	8,6	1	1	1	1	1	1	1	1	1	0	1	-6,20155	274,049291	313,612684	0
15.01.2021	21:03:13	0	0	4,745184	1,22475	285,5952	0,08	86,183	0	1017,16	6,7	8,8	8,7	1	1	1	1	1	1	1	1	1	0	1	-8,597604	274,034413	311,147184	0
15.01.2021	21:03:14	0	0	2,598553	1,2675	294,4044	0,083	86,179	0	1017,22	6,7	8,8	8,7	1	1	1	1	1	1	1	1	1	0	1	-3,59408	274,146281	316,673144	0
15.01.2021	21:03:15	0	0	2,71155	1,32825	287,0352	0,083	86,168	0	1017,26	6,7	8,8	8,6	1	1	1	1	1	1	1	1	1	0	1	-10,993658	273,975014	308,473994	0
15.01.2021	21:03:16	0	0	2,824531	1,434	280,9656	0,079	86,183	0	1017,36	6,7	8,8	8,6	1	1	1	1	1	1	1	1	1	0	1	-1,973221	274,010631	317,660589	0
15.01.2021	21:03:17	0	0	2,71155	1,50975	299,8296	0,081	86,178	0	1017,16	6,7	8,8	8,6	1	1	1	1	1	1	1	1	1	0	1	-11,909796	274,029951	307,814171	0
15.01.2021	21:03:18	0	0	3,276436	1,6395	284,8536	0,081	86,17	0	1017,26	6,7	8,8	8,7	1	1	1	1	1	1	1	1	1	0	1	-10,007047	274,168733	310,365106	0
15.01.2021	21:03:19	0	0	4,293287	1,67025	290,1312	0,078	86,168	0	1017,26	6,7	8,8	8,6	1	1	1	1	1	1	1	1	1	0	1	-10,007047	274,104441	310,064704	0
15.01.2021	21:03:20	0	0	3,615378	1,58175	294,5952	0,08	86,181	0	1017,3	6,7	8,8	8,7	1	1	1	1	1	1	1	1	1	0	1	-5,496829	274,088029	314,49827	0
15.01.2021	21:03:21	0	0	3,050494	1,40775	283,5792	0,083	86,182	0	1017,22	6,7	8,8	8,6	1	1	1	1	1	1	1	1	1	0	1	-7,399577	274,11788	312,734949	0
15.01.2021	21:03:22	0	0	3,6154	1,3155	307,5984	0,083	86,178	0	1017,32	6,7	8,8	8,6	1	1	1	1	1	1	1	1	1	0	1	-10,993658	274,141794	309,252598	0
15.01.2021	21:03:23	0	0	4,180306	1,32225	303,8688	0,078	86,161	0	1017,18	6,7	8,8	8,6	1	1	1	1	1	1	1	1	1	0	1	-5,355884	273,970566	314,091023	0
15.01.2021	21:03:24	0	0	2,598569	1,39125	318,1608	0,08	86,18	0	1017,26	6,7	8,8	8,6	1	1	1	1	1	1	1	1	1	0	1	-11,557435	274,034413	308,187353	0
15.01.2021	21:03:25	0	0	3,728381	1,30875	319,1976	0,077	86,163	0	1017,3	6,7	8,8	8,6	1	1	1	1	1	1	1	1	1	0	1	-11,980268	274,015088	307,674337	0
15.01.2021	21:03:26	0	0	4,632231	1,23975	315,8928	0,081	86,19	0	1017,12	6,7	8,8	8,6	1	1	1	1	1	1	1	1	1	0	1	-6,906272	273,970566	312,540635	0
15.01.2021	21:03:27	0	0	4,406268	1,11375	316,656	0,081	86,171	0	1017,18	6,7	8,8	8,6	1	1	1	1	1	1	1	1	1	0	1	-7,82241	274,092503	312,193586	0
15.01.2021	21:03:28	0	0	4,51925	1,09275	312,588	0,077	86,167	0	1017,24	6,7	8,8	8,6	1	1	1	1	1	1	1	1	1	0	1	-10,782241	274,149273	309,498965	0
15.01.2021	21:03:29	0	0	3,050494	1,053	298,998	0,07	86,178	0	1017,3	6,7	8,8	8,6	1	1	1	1	1	1	1	1	1	0	1	-12,05074	274,14329	308,202505	0
15.01.2021	21:03:30	0	0	3,728381	1,089	299,7576	0,073	86,175	0	1017,26	6,7	8,8	8,6	1	1	1	1	1	1	1	1	1	0	1	-5,990134	274,016574	313,671405	0
15.01.2021	21:03:31	0	0	4,406268	1,083	315,5328	0,075	86,175	0	1017,22	6,7	8,8	8,6	1	1	1	1	1	1	1	1	1	0	1	-9,654686	274,088029	310,340413	0
15.01.2021	21:03:32	0	0	2,824531	1,0695	312,4116	0,079	86,194	0	1017,34	6,7	8,8	8,6	1	1	1	1	1	1	1	1	1	0	1	-9,090909	274,113399	311,022686	0
15.01.2021	21:03:33	0	0	2,824531	1,04625	311,0004	0,081	86,161	0	1017,2	6,7	8,8	8,6	1	1	1	1	1	1	1	1	1	0	1	-12,825934	273,977979	306,65555	0
15.01.2021	21:03:34	0	0	4,180306	1,0545	306,7884	0,078	86,184	0	1017,28	6,7	8,8	8,6	1	1	1	1	1	1	1	1	1	0	1	-10,007047	274,105934	310,071677	0
15.01.2021	21:03:35	0	0	3,502419	1,04025	306,4356	0,074	86,172	0	1017,18	6,7	8,8	8,6	1	1	1	1	1	1	1	1	1	0	1	-9,161381	274,049291	310,652853	0
15.01.2021	21:03:36	0	0	4,858193	1,10625	311,3352	0,081	86,173	0	1017,22	6,7	8,8	8,6	1	1	1	1	1	1	1	1	1	0	1	-6,624383	274,12535	313,54504	0
15.01.2021	21:03:37	0	0	4,632231	1,152	308,0916	0,078	86,182	0	1017,2	6,7	8,8	8,6	1	1	1	1	1	1	1	1	1	0	1	-10,500352	273,979462	308,988048	0
15.01.2021	21:03:38	0	0	5,197137	1,236	305,3664	0,073	86,171	0	1017,16	6,7	8,8	8,6	1	1	1	1	1	1	1	1	1	0	1	-9,302326	274,013602	310,345347	0
15.01.2021	21:03:39	0	0	2,824531	1,2765	292,6044	0,074	86,179	0	1017,14	6,7	8,6	8,6	1	1	1	1	1	1	1	1	1	0	1	-13,178295	274,00469	306,427796	0
15.01.2021	21:03:40	0	0	2,03365	1,31625	294,804	0,073	86,186	0	1017,24	6,7	8,8	8,7	1	1	1	1	1	1	1	1	1	0	1	-11,346018	273,969084	308,093976	0
15.01.2021	21:03:41	0	0	4,067325	1,32375	294,3504	0,074	86,183	0	1017,36	6,7	8,8	8,6	1	1	1	1	1	1	1	1	1	0	1	-6,624383	274,00469	312,981707	0
15.01.2021	21:03:42	0	0	4,180306	1,314	300,132	0,073	86,188	0	1017,12	6,7	8,8	8,6	1	1	1	1	1	1	1	1	1	0	1	-8,033827	274,050779	311,787356	0
15.01.2021	21:03:43	0	0	4,293287	1,26525	318,4632	0,082	86,206	0	1017,3	6,7	8,8	8,6	1	1	1	1	1	1	1	1	1	0	1	-6,412967	274,147777	313,861248	0
15.01.2021	21:03:44	0	0	2,598569	1,302	290,7288	0,076	86,181	0	1017,3	6,7	8,8	8,6	1	1	1	1	1	1	1	1	1	0	1	-9,654686	274,156756	310,661486	0
15.01.2021	21:03:45	0	0	4,858193	1,28925	316,998	0,075	86,188	0	1017,38	6,7	8,8	8,6	1	1	1	1	1	1	1	1	1	0	1	-6,483439	274,056734	313,365543	0
15.01.2021	21:03:46	0	0	4,858193	1,21875	310,3524	0,078	86,174	0	1017,26	6,7	8,8	8,6	1	1	1	1	1	1	1	1	1	0	1	-4,580691	274,101456	315,477118	0
15.01.2021	21:03:47	0	0	4,858193	1,134	299,7324	0,079	86,187	0	1017,2	6,7	8,8	8,6	1	1	1	1	1	1	1	1	1	0	1	-8,174771	274,134318	312,036551	0
15.01.2021	21:03:48	0	0	4,858193	1,05075	306,8532	0,073	86,178	0	1017,32	6,7	8,8	8,6	1	1	1	1	1	1	1	1	1	0	1	-6,412967	274,092503	313,60303	0
15.01.2021	21:03:49	0	0	2,71155	1,12425	305,802	0,076	86,187	0	1017,38	6,7	8,8	8,6	1	1	1	1	1	1	1	1	1	0	1	-6,131078	274,114893	313,989493	0
15.01.2021	21:03:50	0	0	3,728381	1,2465	305,82	0,075	86,192	0	1017,26	6,7	8,8	8,6	1	1	1	1	1	1	1	1	1	0	1	-7,540521	274,128339	312,642866	0
15.01.2021	21:03:51	0	0	4,632231	1,36125	290,322	0,072	86,169	0	1017,18	6,7	8,8	8,6	1	1	1	1	1	1	1	1	1	0	1	-11,134602	274,026978	308,575488	0
15.01.2021	21:03:52	0	0	4,632231	1,395	300,1896	0,079	86,181	0	1017,2	6,7	8,8	8,6	1	1	1	1	1	1	1	1	1	0	1	-8,245243	274,137308	311,980051	0
15.01.2021	21:03:53	0	0	3,276456	1,45275	309,5136	0,072	86,187	0	1017,34	6,7	8,8	8,6	1	1	1	1	1	1	1	1	1	0	1	-8,104299	273,982429	311,397938	0
15.01.2021	21:03:54	0	0	2,824531	1,4955	307,4544	0,079	86,171	0	1017,3	6,7	8,8	8,6	1	1	1	1	1	1	1	1	1	0	1	-6,342495	274,050779	313,478688	0
15.01.2021	21:03:55	0	0	2,598569	1,57575	312,192	0,075	86,185	0	1017,32	6,7	8,8	8,6	1	1	1	1	1	1	1	1	1	0	1	-10,007047	274,147777	310,267167	0
15.01.2021	21:03:56	0	0	2,824531	1,53975	308,718	0,081	86,19	0	1017,2	6,7	8,8	8,6	1	1	1	1	1	1	1	1	1	0	1	-9,725159	274,006175	309,887861	0
15.01.2021	21:03:57	0	0	2,937512	1,52475	302,1516	0,075	86,189	0	1017,3	6,7	8,8	8,6	1	1	1	1	1	1	1	1	1	0	1	-5,567301	274,102948	314,497479	0
15.01.2021	21:03:58	0	0	3,615378	1,5675	291,2292	0,075	86,175	0	1017,08	6,7	8,8	8,7	1	1	1	1	1	1	1	1	1	0	1	-9,161381	273,95723	310,22333	0
15.01.2021	21:03:59	0	0	2,71155	1,64625	292,23	0,075	86,186	0	1017,32	6,7	8,8	8,6	1	1	1	1	1	1	1	1	1	0	1	-10,077519	273,997267	309,493937	0
15.01.2021	21:04:00	0	0	4,180306	1,662	301,2156	0,072	86,164	0	1017,08	6,7	8,8	8,6	1	1	1	1	1	1	1	1	1	0	1	-12,684989	274,037387	307,073683	0
15.01.2021	21:04:01	0	0	3,728381	1,6725	298,6596	0,072	86,187	0	1017,26	6,7	8,6	8,6	1	1	1	1	1	1	1	1	1	0	1	-5,919662	273,972049	313,53416	0
15.01.2021	21:04:02	0	0	4,745212	1,59225	296,0388	0,075	86,183	0	1017,16	6,7	8,8	8,6	1	1	1	1	1	1	1	1	1	0	1	-6,8358	274,00766	312,784149	0
15.01.2021	21:04:03	0	0	4,180281	1,55625	279,2304	0,073	86,174	0	1017,3	6,7	8,8	8,7	1	1	1	1	1	1	1	1	1	0	1	-7,610994	274,025491	312,092158	0
15.01.2021	21:04:04	0	0	4,632231	1,4985	293,7204	0,077	86,185	0	1017,22	6,7	8,8	8,6	1	1	1	1	1	1	1	1	1	0	1	-7,610994	273,960193	311,787535	0
15.01.2021	21:04:05	0	0	4,293287	1,473	292,1076	0,07	86,184	0	1017,18	6,7	8,8	8,6	1	1	1	1	1	1	1	1	1	0	1	-8,245243	273,958711	311,146376	0
15.01.2021	21:04:06	0	0	4,632231	1,4235	281,3796	0,078	86,175	0	1017,44	6,7	8,8	8,6	1	1	1	1	1	1	1	1	1	0	1	-8,879493	274,058223	310,976441	0
15.01.2021	21:04:07	0	0	2,71155	1,36425	290,0016	0,072	86,168	0	1017,18	6,7	8,8	8,6	1	1	1	1	1	1	1	1	1	0	1	-10,42988	273,970566	309,017027	0
15.01.2021	21:04:08	0	0	4,406268	1,29	292,1868	0,078	86,186	0	1017,24	6,7	8,8	8,6	1	1	1	1	1	1	1	1	1	0	1	-10,852713	274,105934	309,226011	0
15.01.2021	21:04:09	0	0	4,51925	1,215	306,9288	0,077	86,172	0	1017,22	6,7	8,8	8,6	1	1	1	1	1	1	1	1	1	0	1	-10,147992	274,01806	309,520481	0
15.01.2021	21:04:10	0	0	2,71155	1,22625	299,0376	0,075	86,17	0	1017,26	6,7	8,8	8,6	1	1	1	1	1	1	1	1	1	0	1	-7,470049	274,12535	312,699374	0
15.01.2021	21:04:11	0	0	4,180306	1,371	290,79	0,07	86,161	0	1017,22	6,7	8,8	8,6	1	1	1	1	1	1	1	1	1	0	1	-8,386187	273,977979	311,095296	0
15.01.2021	21:04:12	0	0	2,937512	1,49025	296,082	0,077	86,176	0	1017,22	6,7	8,8	8,6	1	1	1	1	1	1	1	1	1	0	1	-11,980268	274,013602	307,667405	0
15.01.2021	21:04:13	0	0	3,841362	1,53225	291,2472	0,073	86,178	0	1017,24	6,7	8,8	8,6	1	1	1	1	1	1	1	1	1	0	1	-5,708245	274,116386	314,419303	0
15.01.2021	21:04:14	0	0	4,293287	1,5585	312,4944	0,076	86,177	0	1017,26	6,7	8,8	8,6	1	1	1	1	1	1	1	1	1	0	1	-7,258633	274,129833	312,931737	0
15.01.2021	21:04:15	0	0	3,841362	1,49175	305,316	0,07	86,158	0	1017,36	6,7	8,8	8,6	1	1	1	1	1	1	1	1	1	0	1	-9,302326	273,994298	310,255282	0
15.01.2021	21:04:16	0	0	2,937512	1,467	296,4276	0,075	86,171	0	1017,12	6,7	8,8	8,6	1	1	1	1	1	1	1	1	1	0	1	-7,117689	274,025491	312,585463	0
15.01.2021	21:04:17	0	0	4,180306	1,52025	307,2024	0,074	86,173	0	1017,28	6,7	8,8	8,6	1	1	1	1	1	1	1	1	1	0	1	-9,161381	274,132823	311,042956	0
15.01.2021	21:04:18	0	0	3,163475	1,5615	298,6776	0,073	86,164	0	1017,34	6,7	8,8	8,6	1	1	1	1	1	1	1	1	1	0	1	-6,553911	273,961674	312,851526	0
15.01.2021	21:04:19	0	0	4,971175	1,55025	281,7504	0,065	86,167	0	1017,32	6,7	8,8	8,6	1	1	1	1	1	1	1	1	1	0	1	-9,725159	274,077591	310,221203	0
15.01.2021	21:04:20	0	0	3,050494	1,54125	279,8604	0,078	86,174	0	1017,1	6,7	8,8	8,6	1	1	1	1	1	1	1	1	1	0	1	-6,976744	274,000236	312,608564	0
15.01.2021	21:04:21	0	0	4,406268	1,62225	283,6224	0,077	86,16	0	1017,22	6,7	8,8	8,6	1	1	1	1	1	1	1	1	1	0	1	-10,570825	274,135813	309,647483	0
15.01.2021	21:04:22	0	0	2,824531	1,7655	293,7492	0,077	86,16	0	1017,28	6,7	8,8	8,6	1	1	1	1	1	1	1	1	1	0	1	-6,553911	273,988363	312,976006	0
15.01.2021	21:04:23	0	0	5,084156	1,881	297,9324	0,075	86,171	0	1017,2	6,7	8,8	8,6	1	1	1	1	1	1	1	1	1	0	1	-12,966878	274,076101	306,972524	0
15.01.2021	21:04:24	0	0	4,745212	1,8495	295,5744	0,07	86,16	0	1017,2	6,7	8,8	8,6	1	1	1	1	1	1	1	1	1	0	1	-11,557435	274,134318	308,653887	0
15.01.2021	21:04:25	0	0	2,824531	1,8675	298,2348	0,071	86,154	0	1017,14	6,7	8,8	8,6	1	1	1	1	1	1	1	1	1	0	1	-11,205074	274,000236	308,380234	0
15.01.2021	21:04:26	0	0	3,728381	1,82625	303,4944	0,077	86,16	0	1017,3	6,7	8,8	8,6	1	1	1	1	1	1	1	1	1	0	1	-11,627907	274,082064	308,339338	0
15.01.2021	21:04:27	0	0	4,858193	1,8345	300,4848	0,077	86,171	0	1017,3	6,7	8,8	8,6	1	1	1	1	1	1	1	1	1	0	1	-9,372798	274,131328	310,824556	0
15.01.2021	21:04:28	0	0	3,954344	1,77675	300,492	0,07	86,165	0	1017,2	6,7	8,8	8,6	1	1	1	1	1	1	1	1	1	0	1	-4,510218	273,980945	314,9851	0
15.01.2021	21:04:29	0	0	4,406268	1,6785	295,5996	0,075	86,176	0	1017,12	6,7	8,8	8,6	1	1	1	1	1	1	1	1	1	0	1	-7,540521	274,095487	312,48941	0
15.01.2021	21:04:30	0	0	2,824514	1,64175	302,058	0,072	86,162	0	1017,12	6,7	8,8	8,7	1	1	1	1	1	1	1	1	1	0	1	-10,993658	273,980945	308,501661	0
15.01.2021	21:04:31	0	0	2,372606	1,57125	294,9372	0,074	86,164	0	1017,24	6,7	8,8	8,6	1	1	1	1	1	1	1	1	1	0	1	-9,936575	274,074611	309,995867	0
15.01.2021	21:04:32	0	0	4,632231	1,58025	299,3652	0,079	86,179	0	1017,24	6,7	8,8	8,6	1	1	1	1	1	1	1	1	1	0	1	-7,82241	273,954267	311,548487	0
15.01.2021	21:04:33	0	0	2,937512	1,63725	299,4372	0,072	86,161	0	1017,18	6,7	8,8	8,6	1	1	1	1	1	1	1	1	1	0	1	-13,953488	273,995783	305,611043	0
15.01.2021	21:04:34	0	0	3,728381	1,659	298,2996	0,067	86,163	0	1017,24	6,7	8,8	8,6	1	1	1	1	1	1	1	1	1	0	1	-8,80902	273,998751	310,769361	0
15.01.2021	21:04:35	0	0	2,485587	1,716	300,8916	0,076	86,163	0	1017,38	6,7	8,8	8,6	1	1	1	1	1	1	1	1	1	0	1	-15,64482	273,951305	303,712265	0
15.01.2021	21:04:36	0	0	2,372606	1,7775	296,4564	0,074	86,17	0	1017,18	6,7	8,8	8,6	1	1	1	1	1	1	1	1	1	0	1	-10,570825	273,955749	308,806979	0
15.01.2021	21:04:37	0	0	3,954344	1,8405	303,2172	0,074	86,172	0	1017,3	6,7	8,8	8,6	1	1	1	1	1	1	1	1	1	0	1	-8,879493	274,00766	310,740456	0
15.01.2021	21:04:38	0	0	4,293287	1,893	304,2036	0,07	86,154	0	1017,2	6,7	8,8	8,6	1	1	1	1	1	1	1	1	1	0	1	-8,949965	273,969084	310,490029	0
15.01.2021	21:04:39	0	0	4,632231	1,85325	309,8592	0,07	86,159	0	1017,3	6,7	8,8	8,6	1	1	1	1	1	1	1	1	1	0	1	-8,738548	273,95723	310,646163	0
15.01.2021	21:04:40	0	0	4,632231	1,776	306,8028	0,072	86,173	0	1017,16	6,7	8,8	8,6	1	1	1	1	1	1	1	1	1	0	1	-11,980268	274,01806	307,688205	0
15.01.2021	21:04:41	0	0	4,51925	1,764	293,7384	0,071	86,179	0	1017,22	6,7	8,8	8,6	1	1	1	1	1	1	1	1	1	0	1	-10,852713	274,123856	309,30973	0
15.01.2021	21:04:42	0	0	2,937512	1,76025	288,1044	0,071	86,168	0	1017,26	6,7	8,8	8,6	1	1	1	1	1	1	1	1	1	0	1	-10,852713	273,977979	308,62877	0
15.01.2021	21:04:43	0	0	2,937512	1,794	291,888	0,071	86,177	0	1017,34	6,7	8,8	8,6	1	1	1	1	1	1	1	1	1	0	1	-8,245243	274,104441	311,826508	0
15.01.2021	21:04:44	0	0	4,293287	1,8675	296,8092	0,073	86,169	0	1017,32	6,7	8,6	8,6	1	1	1	1	1	1	1	1	1	0	1	-6,342495	273,952786	313,021496	0
15.01.2021	21:04:45	0	0	3,841362	1,845	295,7004	0,071	86,169	0	1017,18	6,7	8,8	8,6	1	1	1	1	1	1	1	1	1	0	1	-4,298802	273,992814	315,251882	0
15.01.2021	21:04:46	0	0	3,6154	1,82475	294,8148	0,073	86,174	0	1017,3	6,7	8,8	8,6	1	1	1	1	1	1	1	1	1	0	1	-10,852713	273,979462	308,635687	0
15.01.2021	21:04:47	0	0	2,937512	1,932	288,3744	0,07	86,175	0	1017,26	6,7	8,8	8,6	1	1	1	1	1	1	1	1	1	0	1	-9,090909	273,95723	310,293802	0
15.01.2021	21:04:48	0	0	3,728381	1,95675	294,8328	0,068	86,187	0	1017,3	6,7	8,8	8,6	1	1	1	1	1	1	1	1	1	0	1	-9,654686	274,031438	310,07622	0
15.01.2021	21:04:49	0	0	2,485587	1,8495	280,998	0,067	86,175	0	1017,3	6,7	8,6	8,6	1	1	1	1	1	1	1	1	1	0	1	-9,090909	273,95723	310,293802	0
15.01.2021	21:04:50	0	0	2,71155	1,752	301,266	0,069	86,173	0	1017,24	6,7	8,8	8,6	1	1	1	1	1	1	1	1	1	0	1	-7,188161	274,06716	312,709495	0
15.01.2021	21:04:51	0	0	2,824531	1,67025	300,51	0,064	86,176	0	1017,24	6,7	8,8	8,6	1	1	1	1	1	1	1	1	1	0	1	-13,107822	273,954267	306,263075	0
15.01.2021	21:04:52	0	0	2,937512	1,596	303,8688	0,071	86,185	0	1017,3	6,7	8,8	8,6	1	1	1	1	1	1	1	1	1	0	1	-10,359408	273,964638	309,05985	0
15.01.2021	21:04:53	0	0	2,71155	1,5795	298,9656	0,067	86,175	0	1017,32	6,7	8,8	8,6	1	1	1	1	1	1	1	1	1	0	1	-10,923185	274,010631	308,710624	0
15.01.2021	21:04:54	0	0	4,51925	1,56675	299,7648	0,072	86,177	0	1017,18	6,7	8,8	8,6	1	1	1	1	1	1	1	1	1	0	1	-9,231853	274,123856	310,930589	0
15.01.2021	21:04:55	0	0	2,598569	1,62225	310,6152	0,069	86,176	0	1017,2	6,7	8,8	8,6	1	1	1	1	1	1	1	1	1	0	1	-11,06413	274,001721	308,528105	0
15.01.2021	21:04:56	0	0	2,372606	1,6005	291,474	0,073	86,18	0	1017,14	6,7	8,8	8,6	1	1	1	1	1	1	1	1	1	0	1	-6,694856	273,997267	312,876601	0
15.01.2021	21:04:57	0	0	4,971175	1,638	286,6284	0,068	86,174	0	1017,24	6,7	8,8	8,6	1	1	1	1	1	1	1	1	1	0	1	-9,302326	274,123856	310,860117	0
15.01.2021	21:04:58	0	0	2,259611	1,737	283,2084	0,074	86,179	0	1017,24	6,7	8,8	8,7	1	1	1	1	1	1	1	1	1	0	1	-9,513742	273,949825	309,836438	0
15.01.2021	21:04:59	0	0	2,824531	1,8195	302,8428	0,071	86,176	0	1017,38	6,7	8,8	8,6	1	1	1	1	1	1	1	1	1	0	1	-6,765328	274,013602	312,882345	0
15.01.2021	21:05:00	0	0	2,598569	1,9125	295,5024	0,073	86,182	0	1017,44	6,7	8,8	8,6	1	1	1	1	1	1	1	1	1	0	1	-8,033827	273,952786	311,330164	0
15.01.2021	21:05:01	0	0	4,293287	2,013	294,804	0,07	86,194	0	1017,26	6,7	8,8	8,6	1	1	1	1	1	1	1	1	1	0	1	-7,82241	274,12535	312,347013	0
15.01.2021	21:05:02	0	0	3,276456	2,0025	297,9612	0,066	86,181	0	1017,44	6,7	8,8	8,6	1	1	1	1	1	1	1	1	1	0	1	-12,755462	274,093995	307,267502	0
15.01.2021	21:05:03	0	0	3,276456	2,0985	293,3928	0,066	86,177	0	1017,3	6,7	8,8	8,6	1	1	1	1	1	1	1	1	1	0	1	-7,681466	274,010631	311,952343	0
15.01.2021	21:05:04	0	0	2,937512	2,121	302,7744	0,068	86,17	0	1017,04	6,7	8,8	8,6	1	1	1	1	1	1	1	1	1	0	1	-12,473573	273,954267	306,897324	0
15.01.2021	21:05:05	0	0	4,406268	2,16675	300,5964	0,072	86,187	0	1017,3	6,7	8,8	8,6	1	1	1	1	1	1	1	1	1	0	1	-7,329105	274,123856	312,833338	0
15.01.2021	21:05:06	0	0	3,050494	2,25375	299,772	0,067	86,16	0	1017,34	6,7	8,8	8,6	1	1	1	1	1	1	1	1	1	0	1	-8,245243	274,013602	311,402429	0
15.01.2021	21:05:07	0	0	3,6154	2,25225	300,7764	0,072	86,176	0	1017,2	6,7	8,8	8,6	1	1	1	1	1	1	1	1	1	0	1	-5,567301	273,985395	313,948775	0
15.01.2021	21:05:08	0	0	2,824531	2,30175	296,4852	0,072	86,17	0	1017,26	6,7	8,8	8,6	1	1	1	1	1	1	1	1	1	0	1	-8,033827	273,948344	311,30945	0
15.01.2021	21:05:09	0	0	4,51925	2,36625	307,53	0,067	86,173	0	1017,3	6,7	8,8	8,6	1	1	1	1	1	1	1	1	1	0	1	-4,580691	273,95723	314,804021	0
15.01.2021	21:05:10	0	0	2,485587	2,31	308,4768	0,065	86,168	0	1017,34	6,7	8,8	8,6	1	1	1	1	1	1	1	1	1	0	1	-14,587738	274,06865	305,316874	0
15.01.2021	21:05:11	0	0	3,276456	2,2305	306,45	0,072	86,186	0	1017,22	6,7	8,6	8,6	1	1	1	1	1	1	1	1	1	0	1	-10,570825	273,951305	308,786261	0
15.01.2021	21:05:12	0	0	3,389437	2,11875	298,0008	0,068	86,174	0	1017,34	6,7	8,8	8,6	1	1	1	1	1	1	1	1	1	0	1	-9,725159	273,982429	309,777078	0
15.01.2021	21:05:13	0	0	4,406268	2,0355	297,5688	0,069	86,188	0	1017,22	6,7	8,8	8,6	1	1	1	1	1	1	1	1	1	0	1	-8,527132	274,013602	311,120541	0
15.01.2021	21:05:14	0	0	3,6154	2,05575	300,8808	0,071	86,181	0	1017,34	6,7	8,8	8,6	1	1	1	1	1	1	1	1	1	0	1	-7,470049	273,963156	311,942298	0
15.01.2021	21:05:15	0	0	3,841339	2,127	301,3128	0,068	86,186	0	1017,42	6,7	8,8	8,7	1	1	1	1	1	1	1	1	1	0	1	-11,768851	274,108919	308,323819	0
15.01.2021	21:05:16	0	0	4,745212	2,106	305,3772	0,07	86,183	0	1017,22	6,7	8,8	8,6	1	1	1	1	1	1	1	1	1	0	1	-8,174771	274,059713	311,688115	0
15.01.2021	21:05:17	0	0	4,51925	2,10675	299,3652	0,062	86,181	0	1017,24	6,7	8,8	8,6	1	1	1	1	1	1	1	1	1	0	1	-8,174771	273,963156	311,237577	0
15.01.2021	21:05:18	0	0	3,728381	2,04375	301,6476	0,065	86,18	0	1017,18	6,7	8,8	8,6	1	1	1	1	1	1	1	1	1	0	1	-14,376321	274,116386	305,751227	0
15.01.2021	21:05:19	0	0	3,6154	2,06025	298,7676	0,063	86,176	0	1017,3	6,7	8,9	8,6	1	1	1	1	1	1	1	1	1	0	1	-9,231853	274,105934	310,84687	0
15.01.2021	21:05:20	0	0	4,745212	2,07	298,3104	0,069	86,202	0	1017,3	6,8	8,8	8,6	1	1	1	1	1	1	1	1	1	0	1	-7,82241	274,040363	311,950149	0
15.01.2021	21:05:21	0	0	2,598569	2,1555	291,1932	0,071	86,187	0	1017,24	6,7	8,6	8,6	1	1	1	1	1	1	1	1	1	0	1	-11,06413	274,016574	308,597409	0
15.01.2021	21:05:22	0	0	2,937512	2,1705	299,808	0,071	86,199	0	1017,36	6,7	8,8	8,6	1	1	1	1	1	1	1	1	1	0	1	-10,711769	274,11788	309,422757	0
15.01.2021	21:05:23	0	0	3,954344	2,13	300,8556	0,069	86,185	0	1017,28	6,7	8,8	8,6	1	1	1	1	1	1	1	1	1	0	1	-5,778717	274,085046	314,202453	0
15.01.2021	21:05:24	0	0	5,084156	2,127	299,8152	0,065	86,183	0	1017,04	6,7	8,6	8,6	1	1	1	1	1	1	1	1	1	0	1	-6,976744	274,06716	312,920912	0
15.01.2021	21:05:25	0	0	2,937512	2,08725	302,0868	0,067	86,2	0	1017,16	6,7	8,8	8,6	1	1	1	1	1	1	1	1	1	0	1	-10,218464	273,960193	309,180065	0
15.01.2021	21:05:26	0	0	2,71155	2,046	300,0852	0,067	86,205	0	1017,22	6,7	8,6	8,6	1	1	1	1	1	1	1	1	1	0	1	-11,768851	274,123856	308,393591	0
15.01.2021	21:05:27	0	0	4,067325	2,073	307,5912	0,067	86,193	0	1017,3	6,7	8,8	8,6	1	1	1	1	1	1	1	1	1	0	1	-7,681466	273,998751	311,896916	0
15.01.2021	21:05:28	0	0	3,276456	2,136	294,822	0,071	86,212	0	1017,28	6,7	8,8	8,6	1	1	1	1	1	1	1	1	1	0	1	-7,82241	273,937982	311,472554	0
15.01.2021	21:05:29	0	0	4,406268	2,13525	300,186	0,07	86,195	0	1017,34	6,7	8,8	8,6	1	1	1	1	1	1	1	1	1	0	1	-12,473573	274,098471	307,570296	0
15.01.2021	21:05:30	0	0	4,632231	2,1165	293,2956	0,064	86,201	0	1017,16	6,6	8,8	8,6	1	1	1	1	1	1	1	1	1	0	1	-13,742072	274,044826	306,051322	0
15.01.2021	21:05:31	0	0	2,937512	1,97925	300,8196	0,072	86,205	0	1017,38	6,7	8,8	8,6	1	1	1	1	1	1	1	1	1	0	1	-6,272023	274,074611	313,66042	0
15.01.2021	21:05:32	0	0	3,502419	1,94325	295,164	0,07	86,222	0	1017,2	6,7	8,6	8,6	1	1	1	1	1	1	1	1	1	0	1	-5,637773	274,120867	314,51071	0
15.01.2021	21:05:33	0	0	5,197137	1,91625	303,2856	0,066	86,204	0	1017,4	6,7	8,8	8,6	1	1	1	1	1	1	1	1	1	0	1	-8,45666	274,07163	311,461866	0
15.01.2021	21:05:34	0	0	4,745212	1,86375	299,8296	0,064	86,218	0	1017,28	6,7	8,8	8,6	1	1	1	1	1	1	1	1	1	0	1	-9,372798	274,058223	310,483136	0
15.01.2021	21:05:35	0	0	4,971175	1,9065	305,406	0,069	86,204	0	1017,24	6,7	8,6	8,6	1	1	1	1	1	1	1	1	1	0	1	-10,359408	274,101456	309,698401	0
15.01.2021	21:05:36	0	0	2,937512	1,8795	300,4056	0,072	86,222	0	1017,32	6,7	8,8	8,6	1	1	1	1	1	1	1	1	1	0	1	-8,527132	273,940942	310,781633	0
15.01.2021	21:05:37	0	0	2,598569	1,8375	298,2168	0,068	86,23	0	1017,22	6,7	8,6	8,6	1	1	1	1	1	1	1	1	1	0	1	-13,883016	273,994298	305,674591	0
15.01.2021	21:05:38	0	0	2,71155	1,743	306,8748	0,072	86,215	0	1017,38	6,7	8,8	8,6	1	1	1	1	1	1	1	1	1	0	1	-8,033827	273,973531	311,426909	0
15.01.2021	21:05:39	0	0	2,146644	1,76475	316,9872	0,071	86,226	0	1017,18	6,7	8,8	8,6	1	1	1	1	1	1	1	1	1	0	1	-8,386187	274,123856	311,776255	0
15.01.2021	21:05:40	0	0	3,728381	1,7415	307,6272	0,067	86,211	0	1017,32	6,7	8,6	8,6	1	1	1	1	1	1	1	1	1	0	1	-11,627907	273,976497	307,84666	0
15.01.2021	21:05:41	0	0	4,971175	1,731	304,6608	0,064	86,229	0	1017,38	6,7	8,8	8,6	1	1	1	1	1	1	1	1	1	0	1	-9,090909	274,009146	310,535969	0
15.01.2021	21:05:42	0	0	4,51925	1,668	304,2612	0,063	86,223	0	1017,32	6,8	8,6	8,6	1	1	1	1	1	1	1	1	1	0	1	-6,765328	274,12535	313,404096	0
15.01.2021	21:05:43	0	0	4,858193	1,65225	303,1668	0,065	86,227	0	1017,3	6,7	8,7	8,6	1	1	1	1	1	1	1	1	1	0	1	-10,147992	274,128339	310,035396	0
15.01.2021	21:05:44	0	0	3,163475	1,644	299,4012	0,071	86,224	0	1017,4	6,7	8,6	8,6	1	1	1	1	1	1	1	1	1	0	1	-6,412967	273,979462	313,075434	0
15.01.2021	21:05:45	0	0	3,954344	1,6125	295,5708	0,061	86,225	0	1017,18	6,6	8,6	8,6	1	1	1	1	1	1	1	1	1	0	1	-4,862579	274,11788	315,271947	0
15.01.2021	21:05:46	0	0	2,71155	1,60275	296,082	0,069	86,238	0	1017,26	6,7	8,6	8,6	1	1	1	1	1	1	1	1	1	0	1	-8,597604	273,946863	310,738769	0
15.01.2021	21:05:47	0	0	5,310118	1,6635	285,5232	0,059	86,227	0	1017,16	6,6	8,9	8,6	1	1	1	1	1	1	1	1	1	0	1	-8,033827	274,099963	312,017012	0
15.01.2021	21:05:48	0	0	4,858193	1,665	288,4428	0,064	86,221	0	1017,2	6,7	8,8	8,6	1	1	1	1	1	1	1	1	1	0	1	-6,694856	274,04185	313,084648	0
15.01.2021	21:05:49	0	0	4,51925	1,623	281,0988	0,069	86,239	0	1017,3	6,7	8,8	8,6	1	1	1	1	1	1	1	1	1	0	1	-9,513742	274,131328	310,683611	0
15.01.2021	21:05:50	0	0	4,971175	1,611	289,2312	0,072	86,239	0	1017,28	6,7	8,6	8,6	1	1	1	1	1	1	1	1	1	0	1	-8,033827	274,085046	311,947344	0
15.01.2021	21:05:51	0	0	4,51925	1,61625	300,6288	0,068	86,232	0	1017,16	6,7	8,8	8,6	1	1	1	1	1	1	1	1	1	0	1	-5,144468	273,969084	314,295526	0
15.01.2021	21:05:52	0	0	4,067325	1,5285	304,29	0,073	86,232	0	1017,18	6,7	8,8	8,6	1	1	1	1	1	1	1	1	1	0	1	-13,6716	274,128339	306,511787	0
15.01.2021	21:05:53	0	0	4,745212	1,596	292,59	0,063	86,23	0	1017,06	6,7	8,8	8,6	1	1	1	1	1	1	1	1	1	0	1	-10,359408	273,960193	309,03912	0
15.01.2021	21:05:54	0	0	3,728381	1,6815	304,218	0,065	86,235	0	1017,14	6,6	8,8	8,6	1	1	1	1	1	1	1	1	1	0	1	-10,711769	274,06865	309,192843	0
15.01.2021	21:05:55	0	0	3,276456	1,76925	300,4812	0,065	86,249	0	1017,34	6,7	8,8	8,6	1	1	1	1	1	1	1	1	1	0	1	-5,84919	274,013602	313,798483	0
15.01.2021	21:05:56	0	0	3,163475	1,70775	308,8512	0,063	86,245	0	1017,16	6,8	8,6	8,6	1	1	1	1	1	1	1	1	1	0	1	-13,178295	273,955749	306,199509	0
15.01.2021	21:05:57	0	0	3,389437	1,719	307,1664	0,064	86,242	0	1017,26	6,7	8,6	8,6	1	1	1	1	1	1	1	1	1	0	1	-9,020437	273,967602	310,412645	0
15.01.2021	21:05:58	0	0	4,632231	1,70625	306,882	0,068	86,24	0	1017,26	6,7	8,9	8,6	1	1	1	1	1	1	1	1	1	0	1	-10,711769	274,083555	309,262439	0
15.01.2021	21:05:59	0	0	2,485587	1,6995	307,5768	0,066	86,237	0	1017,26	6,7	8,8	8,6	1	1	1	1	1	1	1	1	1	0	1	-7,610994	274,079082	312,342328	0
15.01.2021	21:06:00	0	0	4,406268	1,6545	305,7048	0,067	86,251	0	1017,3	6,7	8,6	8,6	1	1	1	1	1	1	1	1	1	0	1	-8,668076	274,126844	311,508329	0
15.01.2021	21:06:01	0	0	4,632231	1,61625	309,204	0,062	86,258	0	1017,24	6,7	8,6	8,6	1	1	1	1	1	1	1	1	1	0	1	-14,164905	274,080573	305,795378	0
15.01.2021	21:06:02	0	0	3,728381	1,5495	309,4704	0,065	86,254	0	1017,26	6,7	8,8	8,6	1	1	1	1	1	1	1	1	1	0	1	-7,681466	274,064181	312,20228	0
15.01.2021	21:06:03	0	0	3,050494	1,524	306,8208	0,065	86,239	0	1017,16	6,6	8,8	8,6	1	1	1	1	1	1	1	1	1	0	1	-7,751938	273,940942	311,556827	0
15.01.2021	21:06:04	0	0	4,51925	1,52475	308,862	0,066	86,25	0	1017,26	6,7	8,6	8,6	1	1	1	1	1	1	1	1	1	0	1	-12,05074	274,074611	307,881702	0
15.01.2021	21:06:05	0	0	3,841362	1,5	314,4996	0,063	86,241	0	1017,2	6,6	8,6	8,6	1	1	1	1	1	1	1	1	1	0	1	-5,637773	274,013602	314,009899	0
15.01.2021	21:06:06	0	0	4,51925	1,37775	305,3772	0,068	86,251	0	1017,28	6,7	8,8	8,6	1	1	1	1	1	1	1	1	1	0	1	-6,553911	273,939462	312,747953	0
15.01.2021	21:06:07	0	0	3,276456	1,302	314,4204	0,065	86,257	0	1017,28	6,7	8,6	8,6	1	1	1	1	1	1	1	1	1	0	1	-9,020437	273,951305	310,336649	0
15.01.2021	21:06:08	0	0	4,067325	1,24725	317,0124	0,066	86,26	0	1017,28	6,7	8,8	8,6	1	1	1	1	1	1	1	1	1	0	1	-8,668076	274,016574	310,993462	0
15.01.2021	21:06:09	0	0	3,163475	1,23975	309,9924	0,065	86,253	0	1017,24	6,7	8,6	8,6	1	1	1	1	1	1	1	1	1	0	1	-6,694856	274,122361	313,460607	0
15.01.2021	21:06:10	0	0	3,728381	1,18125	307,1592	0,066	86,246	0	1017,34	6,7	8,6	8,6	1	1	1	1	1	1	1	1	1	0	1	-7,963354	273,973531	311,497381	0
15.01.2021	21:06:11	0	0	3,050494	1,143	309,3048	0,066	86,258	0	1017,3	6,7	8,8	8,6	1	1	1	1	1	1	1	1	1	0	1	-7,258633	274,082064	312,708612	0
15.01.2021	21:06:12	0	0	3,050494	1,12725	311,4468	0,069	86,257	0	1017,38	6,7	8,8	8,6	1	1	1	1	1	1	1	1	1	0	1	-10,500352	273,946863	308,83602	0
15.01.2021	21:06:13	0	0	2,937512	1,12275	315,8532	0,042	86,246	0	1017,1	6,7	8,6	8,6	1	1	1	1	1	1	1	1	1	0	1	-8,245243	273,970566	311,201664	0
15.01.2021	21:06:14	0	0	4,180306	1,09875	317,8116	0,065	86,249	0	1017,3	6,6	8,8	8,6	1	1	1	1	1	1	1	1	1	0	1	-10,500352	274,056734	309,34863	0
15.01.2021	21:06:15	0	0	2,824531	1,14525	317,8476	0,067	86,252	0	1017,38	6,7	8,8	8,6	1	1	1	1	1	1	1	1	1	0	1	-9,936575	274,11788	310,197951	0
15.01.2021	21:06:16	0	0	3,163475	1,1955	322,9236	0,066	86,252	0	1017,3	6,7	8,7	8,6	1	1	1	1	1	1	1	1	1	0	1	-9,231853	274,122361	310,923609	0
15.01.2021	21:06:17	0	0	3,6154	1,2	323,3412	0,065	86,257	0	1017,34	6,7	8,8	8,6	1	1	1	1	1	1	1	1	1	0	1	-5,637773	274,08952	314,364291	0
15.01.2021	21:06:18	0	0	3,728381	1,22175	315,9216	0,064	86,263	0	1017,2	6,7	8,6	8,6	1	1	1	1	1	1	1	1	1	0	1	-7,188161	274,058223	312,667773	0
15.01.2021	21:06:19	0	0	2,259625	1,28025	310,6692	0,064	86,271	0	1017,4	6,7	8,8	8,6	1	1	1	1	1	1	1	1	1	0	1	-5,21494	273,933543	314,059329	0
15.01.2021	21:06:20	0	0	3,841362	1,40325	312,3972	0,06	86,243	0	1017,26	6,6	8,8	8,6	1	1	1	1	1	1	1	1	1	0	1	-5,778717	274,062691	314,098074	0
15.01.2021	21:06:21	0	0	2,485572	1,43475	322,9308	0,06	86,246	0	1017,4	6,6	8,8	8,7	1	1	1	1	1	1	1	1	1	0	1	-8,597604	274,101456	311,460205	0
15.01.2021	21:06:22	0	0	2,372606	1,41075	304,6572	0,069	86,282	0	1017,3	6,7	8,8	8,6	1	1	1	1	1	1	1	1	1	0	1	-10,641297	274,126844	309,535108	0
15.01.2021	21:06:23	0	0	3,954344	1,36875	292,5972	0,061	86,26	0	1017,18	6,7	8,6	8,6	1	1	1	1	1	1	1	1	1	0	1	-13,460183	274,077591	306,486178	0
15.01.2021	21:06:24	0	0	3,389437	1,329	300,4416	0,063	86,263	0	1017,26	6,7	8,8	8,6	1	1	1	1	1	1	1	1	1	0	1	-6,976744	273,992814	312,573939	0
15.01.2021	21:06:25	0	0	2,71155	1,34925	303,8472	0,064	86,257	0	1017,24	6,6	8,6	8,6	1	1	1	1	1	1	1	1	1	0	1	-6,412967	274,126844	313,763438	0
15.01.2021	21:06:26	0	0	4,632231	1,28475	304,9848	0,062	86,265	0	1017,24	6,6	8,6	8,6	1	1	1	1	1	1	1	1	1	0	1	-11,768851	274,101456	308,288958	0
15.01.2021	21:06:27	0	0	4,745212	1,302	296,4456	0,061	86,265	0	1017,22	6,7	8,6	8,6	1	1	1	1	1	1	1	1	1	0	1	-4,016913	274,131328	316,18044	0
15.01.2021	21:06:28	0	0	3,728381	1,27275	299,07	0,067	86,265	0	1017,34	6,6	8,8	8,6	1	1	1	1	1	1	1	1	1	0	1	-8,45666	273,943903	310,865908	0
15.01.2021	21:06:29	0	0	3,276456	1,23825	307,5516	0,064	86,268	0	1017,24	6,8	8,8	8,6	1	1	1	1	1	1	1	1	1	0	1	-4,510218	273,977979	314,971265	0
15.01.2021	21:06:30	0	0	3,389437	1,23225	304,6788	0,058	86,263	0	1017,26	6,6	8,6	8,6	1	1	1	1	1	1	1	1	1	0	1	-8,45666	273,986879	311,066336	0
15.01.2021	21:06:31	0	0	2,71155	1,26525	298,2708	0,066	86,272	0	1017,28	6,7	8,9	8,6	1	1	1	1	1	1	1	1	1	0	1	-7,470049	274,010631	312,16376	0
15.01.2021	21:06:32	0	0	3,163475	1,275	302,8428	0,068	86,274	0	1017,34	6,6	8,8	8,6	1	1	1	1	1	1	1	1	1	0	1	-9,584214	274,107427	310,501483	0
15.01.2021	21:06:33	0	0	3,502419	1,2825	306,8748	0,069	86,266	0	1017,36	6,6	8,8	8,6	1	1	1	1	1	1	1	1	1	0	1	-6,976744	274,085046	313,004427	0
15.01.2021	21:06:34	0	0	2,824531	1,29825	304,29	0,065	86,276	0	1017,28	6,6	8,6	8,6	1	1	1	1	1	1	1	1	1	0	1	-10,641297	274,00469	308,964794	0
15.01.2021	21:06:35	0	0	4,406268	1,32075	298,7064	0,066	86,273	0	1017,24	6,7	8,6	8,6	1	1	1	1	1	1	1	1	1	0	1	-9,161381	274,126844	311,015024	0
15.01.2021	21:06:36	0	0	2,937512	1,36725	297,4716	0,064	86,27	0	1017,18	6,7	8,7	8,6	1	1	1	1	1	1	1	1	1	0	1	-8,668076	273,973531	310,79266	0
15.01.2021	21:06:37	0	0	2,824531	1,36725	297,8676	0,07	86,268	0	1017,36	6,7	8,6	8,6	1	1	1	1	1	1	1	1	1	0	1	-9,090909	273,967602	310,342173	0
15.01.2021	21:06:38	0	0	3,841362	1,3905	294,7104	0,058	86,266	0	1017,24	6,7	8,8	8,6	1	1	1	1	1	1	1	1	1	0	1	-9,584214	273,973531	309,876522	0
15.01.2021	21:06:39	0	0	2,937512	1,35675	297,9468	0,063	86,257	0	1017,36	6,7	8,8	8,6	1	1	1	1	1	1	1	1	1	0	1	-8,738548	274,028464	310,97848	0
15.01.2021	21:06:40	0	0	4,293287	1,308	306,4248	0,063	86,267	0	1017,28	6,7	8,8	8,6	1	1	1	1	1	1	1	1	1	0	1	-8,949965	274,080573	311,010319	0
15.01.2021	21:06:41	0	0	3,502419	1,287	309,906	0,062	86,248	0	1017,24	6,7	8,8	8,6	1	1	1	1	1	1	1	1	1	0	1	-5,567301	274,116386	314,560247	0
15.01.2021	21:06:42	0	0	2,598569	1,28025	314,442	0,064	86,267	0	1017,28	6,7	8,6	8,6	1	1	1	1	1	1	1	1	1	0	1	-5,355884	273,980945	314,139434	0
15.01.2021	21:06:43	0	0	2,71155	1,28925	306,4428	0,064	86,275	0	1017,38	6,7	8,6	8,6	1	1	1	1	1	1	1	1	1	0	1	-8,45666	274,021032	311,225683	0
15.01.2021	21:06:44	0	0	2,598569	1,2525	312,7572	0,064	86,259	0	1017,28	6,6	8,8	8,6	1	1	1	1	1	1	1	1	1	0	1	-6,765328	274,119373	313,376176	0
15.01.2021	21:06:45	0	0	3,502419	1,2525	308,4588	0,066	86,269	0	1017,4	6,7	8,8	8,6	1	1	1	1	1	1	1	1	1	0	1	-11,909796	274,123856	308,252647	0
15.01.2021	21:06:46	0	0	3,276456	1,29075	311,382	0,065	86,264	0	1017,12	6,7	8,7	8,6	1	1	1	1	1	1	1	1	1	0	1	-5,778717	274,061202	314,091121	0
15.01.2021	21:06:47	0	0	4,067325	1,33275	324,3744	0,061	86,266	0	1017,36	6,6	8,6	8,6	1	1	1	1	1	1	1	1	1	0	1	-7,117689	274,050779	312,703494	0
15.01.2021	21:06:48	0	0	3,841362	1,35825	309,996	0,056	86,263	0	1017,22	6,6	8,6	8,6	1	1	1	1	1	1	1	1	1	0	1	-7,470049	273,937982	311,824915	0
15.01.2021	21:06:49	0	0	2,485587	1,326	306,1548	0,066	86,275	0	1017,42	6,7	8,7	8,6	1	1	1	1	1	1	1	1	1	0	1	-10,570825	273,937982	308,72414	0
15.01.2021	21:06:50	0	0	4,971175	1,2465	305,37	0,063	86,278	0	1017,3	6,7	8,7	8,6	1	1	1	1	1	1	1	1	1	0	1	-13,6716	274,091012	306,33743	0
15.01.2021	21:06:51	0	0	4,406268	1,2285	313,2504	0,058	86,255	0	1017,3	6,6	8,7	8,6	1	1	1	1	1	1	1	1	1	0	1	-10,218464	273,948344	309,124813	0
15.01.2021	21:06:52	0	0	4,067325	1,24875	309,9276	0,055	86,26	0	1017,26	6,6	8,7	8,6	1	1	1	1	1	1	1	1	1	0	1	-9,231853	273,942422	310,083812	0
15.01.2021	21:06:53	0	0	2,598569	1,2615	318,7764	0,062	86,259	0	1017,26	6,6	8,6	8,6	1	1	1	1	1	1	1	1	1	0	1	-6,906272	273,973531	312,554464	0
15.01.2021	21:06:54	0	0	3,389437	1,2285	316,3284	0,059	86,279	0	1017,22	6,6	8,7	8,6	1	1	1	1	1	1	1	1	1	0	1	-10,923185	274,053757	308,911896	0
15.01.2021	21:06:55	0	0	4,406268	1,16475	303,2784	0,057	86,271	0	1017,3	6,7	8,6	8,6	1	1	1	1	1	1	1	1	1	0	1	-6,20155	274,105934	313,877173	0
15.01.2021	21:06:56	0	0	4,632231	1,101	298,6416	0,066	86,272	0	1017,26	6,7	8,8	8,6	1	1	1	1	1	1	1	1	1	0	1	-8,315715	274,001721	311,27652	0
15.01.2021	21:06:57	0	0	3,6154	1,14375	301,2192	0,058	86,26	0	1017,28	6,6	8,6	8,6	1	1	1	1	1	1	1	1	1	0	1	-10,359408	274,113399	309,754187	0
15.01.2021	21:06:58	0	0	4,632231	1,1475	303,4764	0,063	86,274	0	1017,28	6,6	8,6	8,6	1	1	1	1	1	1	1	1	1	0	1	-4,510218	273,937982	314,784746	0
15.01.2021	21:06:59	0	0	3,841362	1,20225	303,2424	0,061	86,27	0	1017,38	6,6	8,7	8,6	1	1	1	1	1	1	1	1	1	0	1	-8,033827	274,056734	311,815155	0
15.01.2021	21:07:00	0	0	4,067325	1,27275	296,3988	0,062	86,285	0	1017,22	6,6	8,8	8,6	1	1	1	1	1	1	1	1	1	0	1	-9,161381	274,056734	310,687601	0
15.01.2021	21:07:01	0	0	4,293287	1,37625	296,5536	0,058	86,261	0	1017,3	6,7	8,9	8,6	1	1	1	1	1	1	1	1	1	0	1	-5,144468	274,107427	314,941229	0
15.01.2021	21:07:02	0	0	4,858193	1,4265	286,9776	0,058	86,26	0	1017,26	6,6	8,6	8,6	1	1	1	1	1	1	1	1	1	0	1	-8,949965	274,098471	311,093904	0
15.01.2021	21:07:03	0	0	3,6154	1,5345	282,1968	0,059	86,265	0	1017,2	6,6	8,6	8,6	1	1	1	1	1	1	1	1	1	0	1	-10,288936	274,047803	309,518351	0
15.01.2021	21:07:04	0	0	2,71155	1,5765	303,2388	0,063	86,278	0	1017,22	6,7	8,6	8,6	1	1	1	1	1	1	1	1	1	0	1	-4,792107	273,932064	314,475265	0
15.01.2021	21:07:05	0	0	4,745212	1,68375	293,2884	0,054	86,286	0	1017,32	6,6	8,9	8,6	1	1	1	1	1	1	1	1	1	0	1	-11,275546	274,07163	308,64298	0
15.01.2021	21:07:06	0	0	3,6154	1,653	297,9648	0,055	86,28	0	1017,34	6,6	8,7	8,6	1	1	1	1	1	1	1	1	1	0	1	-6,20155	274,122361	313,953912	0
15.01.2021	21:07:07	0	0	3,502398	1,668	302,4612	0,055	86,279	0	1017,38	6,7	8,8	8,7	1	1	1	1	1	1	1	1	1	0	1	-8,80902	274,044826	310,984373	0
15.01.2021	21:07:08	0	0	2,485587	1,701	289,224	0,06	86,264	0	1017,42	6,6	8,6	8,6	1	1	1	1	1	1	1	1	1	0	1	-7,470049	274,114893	312,650522	0
15.01.2021	21:07:09	0	0	3,502419	1,93725	283,5864	0,059	86,261	0	1017,4	6,6	8,8	8,6	1	1	1	1	1	1	1	1	1	0	1	-12,191684	274,123856	307,970758	0
15.01.2021	21:07:10	0	0	2,485587	1,95825	286,2936	0,06	86,284	0	1017,22	6,6	8,8	8,6	1	1	1	1	1	1	1	1	1	0	1	-5,637773	273,973531	313,822963	0
15.01.2021	21:07:11	0	0	2,937512	1,899	291,4668	0,061	86,262	0	1017,38	6,7	8,6	8,6	1	1	1	1	1	1	1	1	1	0	1	-7,751938	274,098471	312,291931	0
15.01.2021	21:07:12	0	0	2,824531	1,75125	292,968	0,056	86,278	0	1017,28	6,6	8,6	8,6	1	1	1	1	1	1	1	1	1	0	1	-8,245243	274,11788	311,889283	0
15.01.2021	21:07:13	0	0	4,858193	1,78275	294,5052	0,063	86,275	0	1017,38	6,7	8,8	8,6	1	1	1	1	1	1	1	1	1	0	1	-13,953488	273,994298	305,604119	0
15.01.2021	21:07:14	0	0	4,293287	1,55775	297,4932	0,059	86,287	0	1017,3	6,8	8,6	8,6	1	1	1	1	1	1	1	1	1	0	1	-9,302326	274,092503	310,713671	0
15.01.2021	21:07:15	0	0	4,632231	1,44525	286,254	0,062	86,284	0	1017,44	6,7	8,7	8,6	1	1	1	1	1	1	1	1	1	0	1	-6,272023	274,114893	313,848549	0
15.01.2021	21:07:16	0	0	3,163475	1,38675	300,3876	0,06	86,269	0	1017,36	6,7	8,6	8,6	1	1	1	1	1	1	1	1	1	0	1	-9,654686	273,961674	309,750751	0
15.01.2021	21:07:17	0	0	3,502398	1,51425	297,2268	0,064	86,263	0	1017,24	6,6	8,6	8,7	1	1	1	1	1	1	1	1	1	0	1	-13,530655	274,091012	306,478375	0
15.01.2021	21:07:18	0	0	4,067325	1,64025	294,1236	0,063	86,289	0	1017,4	6,7	8,6	8,6	1	1	1	1	1	1	1	1	1	0	1	-13,178295	274,113399	306,935301	0
15.01.2021	21:07:19	0	0	4,406268	1,61475	300,906	0,062	86,282	0	1017,3	6,7	8,8	8,6	1	1	1	1	1	1	1	1	1	0	1	-12,614517	274,06865	307,290095	0
15.01.2021	21:07:20	0	0	2,824531	1,686	303,5196	0,054	86,275	0	1017,22	6,7	8,7	8,6	1	1	1	1	1	1	1	1	1	0	1	-9,513742	274,058223	310,342191	0
15.01.2021	21:07:21	0	0	3,841362	1,77525	294,7824	0,059	86,277	0	1017,28	6,7	8,6	8,6	1	1	1	1	1	1	1	1	1	0	1	-9,513742	274,083555	310,460466	0
15.01.2021	21:07:22	0	0	4,51925	1,7355	300,4992	0,057	86,285	0	1017,38	6,7	8,6	8,6	1	1	1	1	1	1	1	1	1	0	1	-8,668076	274,11788	311,46645	0
15.01.2021	21:07:23	0	0	4,293287	1,80975	306,4968	0,071	86,282	0	1017,36	6,6	8,8	8,6	1	1	1	1	1	1	1	1	1	0	1	-9,654686	274,07014	310,256882	0
15.01.2021	21:07:24	0	0	2,71155	1,86675	311,0292	0,054	86,272	0	1017,28	6,7	8,6	8,6	1	1	1	1	1	1	1	1	1	0	1	-8,174771	274,044826	311,618623	0
15.01.2021	21:07:25	0	0	4,858193	1,866	305,3088	0,057	86,267	0	1017,04	6,6	8,8	8,6	1	1	1	1	1	1	1	1	1	0	1	-8,245243	274,108919	311,847427	0
15.01.2021	21:07:26	0	0	4,406268	1,86675	308,7792	0,059	86,293	0	1017,08	6,6	8,8	8,6	1	1	1	1	1	1	1	1	1	0	1	-5,84919	274,047803	313,958097	0
15.01.2021	21:07:27	0	0	3,728381	1,77225	303,2388	0,06	86,28	0	1017,36	6,7	8,8	8,6	1	1	1	1	1	1	1	1	1	0	1	-9,372798	274,104441	310,698954	0
15.01.2021	21:07:28	0	0	3,841362	1,78575	300,1464	0,06	86,281	0	1017,34	6,7	8,7	8,6	1	1	1	1	1	1	1	1	1	0	1	-10,288936	273,921711	308,930174	0
15.01.2021	21:07:29	0	0	3,502419	1,812	314,0856	0,054	86,274	0	1017,18	6,6	8,8	8,6	1	1	1	1	1	1	1	1	1	0	1	-8,033827	274,00766	311,586122	0
15.01.2021	21:07:30	0	0	2,259625	1,97025	308,8008	0,063	86,287	0	1017,3	6,6	8,6	8,6	1	1	1	1	1	1	1	1	1	0	1	-8,527132	274,104441	311,54462	0
15.01.2021	21:07:31	0	0	3,841362	2,05875	303,8472	0,06	86,286	0	1017,3	6,6	8,8	8,6	1	1	1	1	1	1	1	1	1	0	1	-6,342495	273,970566	313,104413	0
15.01.2021	21:07:32	0	0	4,858193	1,97775	299,736	0,058	86,278	0	1017,26	6,6	8,6	8,6	1	1	1	1	1	1	1	1	1	0	1	-9,513742	274,104441	310,558009	0
15.01.2021	21:07:33	0	0	4,632231	1,90575	303,4152	0,058	86,283	0	1017,2	6,6	8,7	8,6	1	1	1	1	1	1	1	1	1	0	1	-8,527132	273,935023	310,754035	0
15.01.2021	21:07:34	0	0	4,632231	1,79625	308,4876	0,056	86,279	0	1017,26	6,7	8,8	8,6	1	1	1	1	1	1	1	1	1	0	1	-8,033827	274,0359	311,717903	0
15.01.2021	21:07:35	0	0	3,163475	1,77075	287,7876	0,053	86,299	0	1017,34	6,7	8,6	8,6	1	1	1	1	1	1	1	1	1	0	1	-12,755462	273,920233	306,456756	0
15.01.2021	21:07:36	0	0	5,4231	1,89225	295,578	0,056	86,272	0	1017,3	6,7	8,6	8,6	1	1	1	1	1	1	1	1	1	0	1	-7,188161	274,009146	312,438718	0
15.01.2021	21:07:37	0	0	4,51925	1,97925	288,8208	0,055	86,283	0	1017,34	6,6	8,8	8,6	1	1	1	1	1	1	1	1	1	0	1	-7,188161	273,926147	312,051629	0
15.01.2021	21:07:38	0	0	2,824531	2,151	298,9404	0,055	86,276	0	1017,28	6,6	8,6	8,6	1	1	1	1	1	1	1	1	1	0	1	-10,641297	273,997267	308,93016	0
15.01.2021	21:07:39	0	0	2,937512	2,136	297,5328	0,061	86,289	0	1017,08	6,6	8,8	8,6	1	1	1	1	1	1	1	1	1	0	1	-8,386187	273,935023	310,89498	0
15.01.2021	21:07:40	0	0	3,276456	1,992	306,5328	0,052	86,277	0	1017,26	6,6	8,6	8,6	1	1	1	1	1	1	1	1	1	0	1	-10,923185	273,95723	308,461526	0
15.01.2021	21:07:41	0	0	3,502419	1,815	294,4224	0,058	86,276	0	1017,32	6,6	8,8	8,6	1	1	1	1	1	1	1	1	1	0	1	-10,359408	274,059713	309,503478	0
15.01.2021	21:07:42	0	0	4,51925	1,7355	295,4664	0,054	86,288	0	1017,48	6,7	8,6	8,6	1	1	1	1	1	1	1	1	1	0	1	-8,033827	274,102948	312,030953	0
15.01.2021	21:07:43	0	0	3,163475	1,84875	297,5652	0,05	86,297	0	1017,5	6,7	8,7	8,6	1	1	1	1	1	1	1	1	1	0	1	-7,892882	274,07163	312,025643	0
15.01.2021	21:07:44	0	0	4,293287	2,13375	305,028	0,061	86,287	0	1017,3	6,7	8,6	8,6	1	1	1	1	1	1	1	1	1	0	1	-7,892882	274,06865	312,01173	0
15.01.2021	21:07:45	0	0	2,485587	2,19075	311,778	0,056	86,299	0	1017,38	6,6	8,7	8,6	1	1	1	1	1	1	1	1	1	0	1	-9,866103	273,935023	309,415064	0
15.01.2021	21:07:46	0	0	3,276456	2,208	295,2036	0,06	86,28	0	1017,22	6,6	8,7	8,6	1	1	1	1	1	1	1	1	1	0	1	-13,953488	273,998751	305,624893	0
15.01.2021	21:07:47	0	0	3,6154	2,1585	299,808	0,051	86,288	0	1017,28	6,7	8,8	8,6	1	1	1	1	1	1	1	1	1	0	1	-9,090909	274,098471	310,95296	0
15.01.2021	21:07:48	0	0	3,050475	2,05125	289,5552	0,055	86,286	0	1017,38	6,7	8,8	8,7	1	1	1	1	1	1	1	1	1	0	1	-8,174771	274,026978	311,535319	0
15.01.2021	21:07:49	0	0	4,51925	1,9755	285,4764	0,052	86,282	0	1017,3	6,7	8,6	8,6	1	1	1	1	1	1	1	1	1	0	1	-10,993658	273,92319	308,232345	0
15.01.2021	21:07:50	0	0	2,71155	1,89825	311,7852	0,057	86,284	0	1017,2	6,6	8,7	8,6	1	1	1	1	1	1	1	1	1	0	1	-11,839323	273,945383	307,490146	0
15.01.2021	21:07:51	0	0	3,050475	2,03925	288,1332	0,055	86,296	0	1017,3	6,6	8,7	8,7	1	1	1	1	1	1	1	1	1	0	1	-8,668076	274,044826	311,125318	0
15.01.2021	21:07:52	0	0	4,745212	2,27925	293,3892	0,06	86,283	0	1017,28	6,6	8,7	8,6	1	1	1	1	1	1	1	1	1	0	1	-12,684989	274,116386	307,442559	0
15.01.2021	21:07:53	0	0	4,858164	2,394	291,1284	0,055	86,296	0	1017,26	6,7	8,6	8,7	1	1	1	1	1	1	1	1	1	0	1	-9,936575	273,997267	309,634881	0
15.01.2021	21:07:54	0	0	3,728359	2,32125	278,7624	0,062	86,3	0	1017,34	6,6	8,9	8,7	1	1	1	1	1	1	1	1	1	0	1	-7,751938	274,088029	312,243161	0
15.01.2021	21:07:55	0	0	4,293287	2,229	283,5612	0,048	86,283	0	1017,24	6,7	8,6	8,6	1	1	1	1	1	1	1	1	1	0	1	-8,104299	274,043338	311,682149	0
15.01.2021	21:07:56	0	0	4,293287	2,10825	276,3936	0,054	86,293	0	1017,36	6,6	8,6	8,6	1	1	1	1	1	1	1	1	1	0	1	-10,359408	274,104441	309,712343	0
15.01.2021	21:07:57	0	0	3,502419	1,9665	291,7692	0,056	86,285	0	1017,24	6,6	8,7	8,6	1	1	1	1	1	1	1	1	1	0	1	-8,527132	273,949825	310,823049	0
15.01.2021	21:07:58	0	0	3,163475	1,87275	298,3644	0,048	86,278	0	1017,38	6,6	8,6	8,6	1	1	1	1	1	1	1	1	1	0	1	-8,879493	273,977979	310,601991	0
15.01.2021	21:07:59	0	0	3,276456	1,76175	273,87	0,055	86,287	0	1017,4	6,6	8,7	8,6	1	1	1	1	1	1	1	1	1	0	1	-8,45666	273,92319	310,769343	0
15.01.2021	21:08:00	0	0	2,372606	1,66125	285,2388	0,059	86,292	0	1017,4	6,7	8,9	8,6	1	1	1	1	1	1	1	1	1	0	1	-6,412967	273,983912	313,096189	0
15.01.2021	21:08:01	0	0	2,824531	1,653	290,0484	0,053	86,298	0	1017,3	6,6	8,7	8,6	1	1	1	1	1	1	1	1	1	0	1	-12,684989	273,943903	306,637578	0
15.01.2021	21:08:02	0	0	3,502419	1,65225	293,796	0,055	86,288	0	1017,32	6,7	8,6	8,6	1	1	1	1	1	1	1	1	1	0	1	-9,372798	274,032925	310,36505	0
15.01.2021	21:08:03	0	0	3,841339	1,65825	285,2208	0,059	86,294	0	1017,34	6,6	8,8	8,7	1	1	1	1	1	1	1	1	1	0	1	-10,641297	274,037387	309,117376	0
15.01.2021	21:08:04	0	0	3,389437	1,59225	291,2436	0,053	86,296	0	1017,28	6,7	8,9	8,6	1	1	1	1	1	1	1	1	1	0	1	-9,020437	273,929105	310,233143	0
15.01.2021	21:08:05	0	0	4,180306	1,55625	285,5376	0,058	86,297	0	1017,2	6,6	8,7	8,6	1	1	1	1	1	1	1	1	1	0	1	-13,107822	274,06716	306,789833	0
15.01.2021	21:08:06	0	0	4,51925	1,488	282,8736	0,056	86,294	0	1017,48	6,7	8,6	8,6	1	1	1	1	1	1	1	1	1	0	1	-9,302326	274,096979	310,734574	0
15.01.2021	21:08:07	0	0	2,937512	1,49325	268,0848	0,055	86,289	0	1017,18	6,6	8,6	8,6	1	1	1	1	1	1	1	1	1	0	1	-5,708245	273,988363	313,821672	0
15.01.2021	21:08:08	0	0	4,406242	1,533	283,248	0,054	86,289	0	1017,38	6,6	8,9	8,7	1	1	1	1	1	1	1	1	1	0	1	-6,131078	274,047803	313,676209	0
15.01.2021	21:08:09	0	0	3,728381	1,5165	286,272	0,056	86,289	0	1017,32	6,6	8,7	8,6	1	1	1	1	1	1	1	1	1	0	1	-10,641297	273,915798	308,550249	0
15.01.2021	21:08:10	0	0	3,389437	1,551	286,0308	0,057	86,291	0	1017,28	6,6	8,7	8,6	1	1	1	1	1	1	1	1	1	0	1	-5,355884	273,932064	313,911488	0
15.01.2021	21:08:11	0	0	4,858193	1,61625	292,9824	0,048	86,286	0	1017,18	6,6	8,7	8,6	1	1	1	1	1	1	1	1	1	0	1	-8,45666	274,025491	311,246492	0
15.01.2021	21:08:12	0	0	2,598569	1,6815	293,3856	0,057	86,281	0	1017,16	6,7	8,6	8,6	1	1	1	1	1	1	1	1	1	0	1	-9,513742	274,105934	310,564982	0
15.01.2021	21:08:13	0	0	3,728381	1,758	291,0996	0,054	86,284	0	1017,32	6,7	8,7	8,6	1	1	1	1	1	1	1	1	1	0	1	-10,641297	274,050779	309,179886	0
15.01.2021	21:08:14	0	0	4,51925	1,7535	296,82	0,053	86,292	0	1017,46	6,7	8,6	8,6	1	1	1	1	1	1	1	1	1	0	1	-7,82241	274,095487	312,207521	0
15.01.2021	21:08:15	0	0	4,971145	1,61925	300,4596	0,056	86,278	0	1017,24	6,7	8,7	8,7	1	1	1	1	1	1	1	1	1	0	1	-11,346018	273,96612	308,080151	0
15.01.2021	21:08:16	0	0	5,197137	1,53975	313,6104	0,056	86,281	0	1017,2	6,7	8,8	8,6	1	1	1	1	1	1	1	1	1	0	1	-11,839323	274,031438	307,891583	0
15.01.2021	21:08:17	0	0	3,954344	1,5555	310,86	0,054	86,299	0	1017,32	6,6	8,7	8,6	1	1	1	1	1	1	1	1	1	0	1	-9,513742	273,921711	309,705368	0
15.01.2021	21:08:18	0	0	4,180281	1,51725	324,8316	0,054	86,268	0	1017,38	6,6	8,8	8,7	1	1	1	1	1	1	1	1	1	0	1	-7,117689	274,07014	312,79388	0
15.01.2021	21:08:19	0	0	3,954344	1,44	309,3768	0,055	86,285	0	1017,28	6,6	8,6	8,6	1	1	1	1	1	1	1	1	1	0	1	-9,372798	273,936503	309,915268	0
15.01.2021	21:08:20	0	0	2,598569	1,39575	307,2132	0,051	86,294	0	1017,32	6,7	8,6	8,6	1	1	1	1	1	1	1	1	1	0	1	-9,090909	274,043338	310,695539	0
15.01.2021	21:08:21	0	0	4,406268	1,332	328,1616	0,053	86,279	0	1017,16	6,7	8,6	8,6	1	1	1	1	1	1	1	1	1	0	1	-12,121212	274,099963	307,929626	0
15.01.2021	21:08:22	0	0	2,824531	1,25025	316,998	0,046	86,267	0	1017,18	6,7	8,6	8,6	1	1	1	1	1	1	1	1	1	0	1	-10,007047	273,969084	309,432947	0
15.01.2021	21:08:23	0	0	4,293287	1,2075	315,9144	0,056	86,275	0	1017,4	6,7	8,9	8,6	1	1	1	1	1	1	1	1	1	0	1	-14,517266	273,932064	304,750106	0
15.01.2021	21:08:24	0	0	3,389437	1,173	322,9812	0,057	86,289	0	1017,38	6,6	8,6	8,6	1	1	1	1	1	1	1	1	1	0	1	-6,624383	274,113399	313,489212	0
15.01.2021	21:08:25	0	0	2,824514	1,17375	318,9672	0,055	86,288	0	1017,26	6,7	8,6	8,7	1	1	1	1	1	1	1	1	1	0	1	-7,681466	273,994298	311,876141	0
15.01.2021	21:08:26	0	0	4,632231	1,20375	308,1132	0,056	86,266	0	1017,22	6,7	8,6	8,6	1	1	1	1	1	1	1	1	1	0	1	-9,866103	274,043338	309,920345	0
15.01.2021	21:08:27	0	0	2,824514	1,21275	304,6608	0,061	86,283	0	1017,24	6,7	8,6	8,7	1	1	1	1	1	1	1	1	1	0	1	-8,668076	274,105934	311,410648	0
15.01.2021	21:08:28	0	0	2,598553	1,23525	301,5756	0,058	86,289	0	1017,3	6,7	8,7	8,7	1	1	1	1	1	1	1	1	1	0	1	-8,386187	274,0359	311,365543	0
15.01.2021	21:08:29	0	0	4,858193	1,24125	313,6176	0,06	86,28	0	1017,26	6,7	8,6	8,6	1	1	1	1	1	1	1	1	1	0	1	-8,879493	274,08952	311,122572	0
15.01.2021	21:08:30	0	0	3,841362	1,25625	307,2096	0,052	86,265	0	1017,22	6,6	8,7	8,6	1	1	1	1	1	1	1	1	1	0	1	-10,993658	274,107427	309,092039	0
15.01.2021	21:08:31	0	0	4,406242	1,24875	301,2408	0,056	86,282	0	1017,3	6,7	8,9	8,7	1	1	1	1	1	1	1	1	1	0	1	-6,20155	273,975014	313,266101	0
15.01.2021	21:08:32	0	0	2,824531	1,20675	314,0928	0,052	86,279	0	1017,22	6,7	8,6	8,6	1	1	1	1	1	1	1	1	1	0	1	-12,403101	274,031438	307,327806	0
15.01.2021	21:08:33	0	0	4,293287	1,2465	313,2612	0,056	86,291	0	1017,3	6,7	8,8	8,6	1	1	1	1	1	1	1	1	1	0	1	-9,231853	274,088029	310,763246	0
15.01.2021	21:08:34	0	0	2,937512	1,302	308,5092	0,054	86,296	0	1017,26	6,6	8,6	8,6	1	1	1	1	1	1	1	1	1	0	1	-7,540521	273,924668	311,692374	0
15.01.2021	21:08:35	0	0	4,51925	1,383	315,5328	0,05	86,284	0	1017,32	6,7	8,6	8,6	1	1	1	1	1	1	1	1	1	0	1	-7,540521	274,064181	312,343224	0
15.01.2021	21:08:36	0	0	4,293261	1,42125	299,7972	0,057	86,283	0	1017,38	6,7	8,7	8,7	1	1	1	1	1	1	1	1	1	0	1	-10,782241	274,093995	309,240723	0
15.01.2021	21:08:37	0	0	3,841362	1,44975	295,146	0,058	86,276	0	1017,36	6,7	8,6	8,6	1	1	1	1	1	1	1	1	1	0	1	-10,077519	274,031438	309,653387	0
15.01.2021	21:08:38	0	0	3,389437	1,5	302,814	0,058	86,291	0	1017,4	6,6	8,6	8,6	1	1	1	1	1	1	1	1	1	0	1	-11,346018	274,088029	308,649081	0
15.01.2021	21:08:39	0	0	3,389437	1,50225	296,5176	0,053	86,289	0	1017,34	6,7	8,6	8,6	1	1	1	1	1	1	1	1	1	0	1	-9,161381	273,930585	310,099094	0
15.01.2021	21:08:40	0	0	4,519223	1,54725	296,406	0,055	86,275	0	1017,36	6,6	8,6	8,7	1	1	1	1	1	1	1	1	1	0	1	-8,033827	274,040363	311,738732	0
15.01.2021	21:08:41	0	0	3,841362	1,53675	306,4212	0,053	86,294	0	1017,34	6,7	8,7	8,6	1	1	1	1	1	1	1	1	1	0	1	-11,698379	274,107427	308,387318	0
15.01.2021	21:08:42	0	0	3,502398	1,45425	308,1204	0,048	86,288	0	1017,24	6,7	8,7	8,7	1	1	1	1	1	1	1	1	1	0	1	-8,527132	273,961674	310,878306	0
15.01.2021	21:08:43	0	0	2,259625	1,40475	301,5792	0,054	86,292	0	1017,38	6,7	8,6	8,6	1	1	1	1	1	1	1	1	1	0	1	-6,624383	273,945383	312,705086	0
15.01.2021	21:08:44	0	0	4,51925	1,4295	294,228	0,053	86,296	0	1017,34	6,7	8,7	8,6	1	1	1	1	1	1	1	1	1	0	1	-10,923185	274,010631	308,710624	0
15.01.2021	21:08:45	0	0	2,598569	1,4625	298,2996	0,056	86,291	0	1017,16	6,7	8,6	8,6	1	1	1	1	1	1	1	1	1	0	1	-6,412967	274,098471	313,630902	0
15.01.2021	21:08:46	0	0	2,71155	1,64925	306,1152	0,056	86,291	0	1017,32	6,7	8,6	8,6	1	1	1	1	1	1	1	1	1	0	1	-8,949965	274,06567	310,940736	0
15.01.2021	21:08:47	0	0	3,728381	1,81125	307,2708	0,054	86,298	0	1017,4	6,6	8,7	8,6	1	1	1	1	1	1	1	1	1	0	1	-5,990134	273,940942	313,318631	0
15.01.2021	21:08:48	0	0	2,485572	1,93275	301,2228	0,058	86,289	0	1017,34	6,6	8,6	8,7	1	1	1	1	1	1	1	1	1	0	1	-7,470049	273,955749	311,907755	0
15.01.2021	21:08:49	0	0	2,485572	1,90125	316,5732	0,05	86,28	0	1017,3	6,7	8,6	8,7	1	1	1	1	1	1	1	1	1	0	1	-13,812544	273,967602	305,620538	0
15.01.2021	21:08:50	0	0	2,598569	1,78125	292,626	0,049	86,273	0	1017,22	6,7	8,7	8,6	1	1	1	1	1	1	1	1	1	0	1	-11,768851	273,911364	307,402028	0
15.01.2021	21:08:51	0	0	2,711534	1,7325	276,2388	0,055	86,294	0	1017,36	6,7	8,6	8,7	1	1	1	1	1	1	1	1	1	0	1	-4,369274	273,946863	314,967099	0
15.01.2021	21:08:52	0	0	2,824531	1,692	307,584	0,052	86,262	0	1017,26	6,7	8,6	8,6	1	1	1	1	1	1	1	1	1	0	1	-5,567301	274,006175	314,045718	0
15.01.2021	21:08:53	0	0	3,502398	1,6215	287,388	0,053	86,284	0	1017,26	6,7	8,6	8,7	1	1	1	1	1	1	1	1	1	0	1	-4,792107	274,07014	315,119461	0
15.01.2021	21:08:54	0	0	3,050475	1,5795	290,0628	0,055	86,279	0	1017,24	6,7	8,7	8,7	1	1	1	1	1	1	1	1	1	0	1	-7,963354	273,946863	311,373018	0
15.01.2021	21:08:55	0	0	4,745212	1,55025	299,2176	0,046	86,284	0	1017,26	6,7	8,8	8,6	1	1	1	1	1	1	1	1	1	0	1	-14,446794	274,044826	305,3466	0
15.01.2021	21:08:56	0	0	5,084156	1,53375	296,8668	0,056	86,295	0	1017,5	6,7	8,7	8,6	1	1	1	1	1	1	1	1	1	0	1	-9,44327	274,08952	310,558794	0
15.01.2021	21:08:57	0	0	3,389437	1,47075	309,9636	0,053	86,301	0	1017,12	6,6	8,6	8,6	1	1	1	1	1	1	1	1	1	0	1	-6,976744	273,967602	312,456337	0
15.01.2021	21:08:58	0	0	2,598569	1,45875	297,8928	0,046	86,281	0	1017,34	6,7	8,6	8,6	1	1	1	1	1	1	1	1	1	0	1	-8,80902	274,047803	310,998267	0
15.01.2021	21:08:59	0	0	2,71155	1,45575	294,7968	0,051	86,271	0	1017,36	6,7	8,6	8,6	1	1	1	1	1	1	1	1	1	0	1	-7,751938	273,908408	311,405166	0
15.01.2021	21:09:00	0	0	4,632203	1,5765	291,4128	0,055	86,303	0	1017,4	6,7	8,6	8,7	1	1	1	1	1	1	1	1	1	0	1	-10,42988	273,979462	309,05852	0
15.01.2021	21:09:01	0	0	4,632203	1,5765	291,4128	0,055	86,303	0	1017,4	6,7	8,6	8,7	1	1	1	1	1	1	1	1	1	0	1	-7,399577	274,086537	312,588558	0
15.01.2021	21:09:02	0	0	4,293287	1,71525	291,8844	0,055	86,29	0	1017,18	6,7	8,6	8,6	1	1	1	1	1	1	1	1	1	0	1	-5,144468	273,943903	314,178099	0
15.01.2021	21:09:03	0	0	4,971175	1,8285	291,8808	0,047	86,291	0	1017,2	6,7	8,6	8,6	1	1	1	1	1	1	1	1	1	0	1	-9,231853	273,963156	310,180494	0
15.01.2021	21:09:04	0	0	3,502398	1,84425	282,4128	0,055	86,303	0	1017,38	6,7	8,7	8,7	1	1	1	1	1	1	1	1	1	0	1	-10,077519	274,08952	309,924545	0
15.01.2021	21:09:05	0	0	4,51925	1,815	286,2504	0,051	86,296	0	1017,22	6,7	8,7	8,6	1	1	1	1	1	1	1	1	1	0	1	-10,077519	274,096979	309,95938	0
15.01.2021	21:09:06	0	0	5,197137	1,848	278,46	0,051	86,305	0	1017,08	6,6	8,7	8,6	1	1	1	1	1	1	1	1	1	0	1	-10,218464	274,019546	309,456943	0
15.01.2021	21:09:07	0	0	3,6154	1,82475	299,4732	0,055	86,3	0	1017,32	6,7	8,6	8,6	1	1	1	1	1	1	1	1	1	0	1	-5,567301	273,91432	313,617355	0
15.01.2021	21:09:08	0	0	3,841362	1,76025	302,8896	0,056	86,298	0	1017,32	6,7	8,6	8,6	1	1	1	1	1	1	1	1	1	0	1	-8,386187	273,903976	310,75026	0
15.01.2021	21:09:09	0	0	3,728381	1,6905	298,296	0,055	86,295	0	1017,24	6,7	8,7	8,6	1	1	1	1	1	1	1	1	1	0	1	-6,624383	274,016574	313,037155	0
15.01.2021	21:09:10	0	0	2,824531	1,593	305,7048	0,051	86,282	0	1017,26	6,7	8,7	8,6	1	1	1	1	1	1	1	1	1	0	1	-11,698379	273,963156	307,713969	0
15.01.2021	21:09:11	0	0	2,598569	1,60125	326,8008	0,057	86,296	0	1017,34	6,6	8,6	8,6	1	1	1	1	1	1	1	1	1	0	1	-9,020437	274,077591	310,925925	0
15.01.2021	21:09:12	0	0	4,745184	1,63575	322,3008	0,048	86,284	0	1017,16	6,7	8,7	8,7	1	1	1	1	1	1	1	1	1	0	1	-6,20155	274,025491	313,501601	0
15.01.2021	21:09:13	0	0	2,598553	1,78275	312,876	0,052	86,284	0	1017,34	6,7	8,8	8,7	1	1	1	1	1	1	1	1	1	0	1	-8,879493	274,07163	311,039033	0
15.01.2021	21:09:14	0	0	3,841362	1,78425	336,7692	0,047	86,288	0	1017,3	6,7	8,6	8,6	1	1	1	1	1	1	1	1	1	0	1	-7,399577	274,099963	312,651261	0
15.01.2021	21:09:15	0	0	4,858164	1,6395	321,768	0,052	86,29	0	1017,3	6,7	8,7	8,7	1	1	1	1	1	1	1	1	1	0	1	-7,681466	273,958711	311,710154	0
15.01.2021	21:09:16	0	0	4,180306	1,5345	308,1348	0,053	86,296	0	1017,24	6,6	8,7	8,6	1	1	1	1	1	1	1	1	1	0	1	-11,698379	274,077591	308,247982	0
15.01.2021	21:09:17	0	0	2,937512	1,47375	311,3604	0,05	86,294	0	1017,32	6,6	8,7	8,6	1	1	1	1	1	1	1	1	1	0	1	-2,677942	273,936503	316,610123	0
15.01.2021	21:09:18	0	0	4,519223	1,39425	312,3648	0,042	86,291	0	1017,26	6,7	8,6	8,7	1	1	1	1	1	1	1	1	1	0	1	-5,073996	273,920233	314,138222	0
15.01.2021	21:09:19	0	0	4,0673	1,39725	308,4516	0,047	86,279	0	1017,18	6,6	8,9	8,7	1	1	1	1	1	1	1	1	1	0	1	-8,668076	274,095487	311,361855	0
15.01.2021	21:09:20	0	0	4,971175	1,59225	290,4192	0,044	86,282	0	1017,28	6,7	8,6	8,6	1	1	1	1	1	1	1	1	1	0	1	-7,681466	274,025491	312,021686	0
15.01.2021	21:09:21	0	0	2,824531	1,74825	293,328	0,053	86,295	0	1017,22	6,7	8,6	8,6	1	1	1	1	1	1	1	1	1	0	1	-8,597604	273,943903	310,724963	0
15.01.2021	21:09:22	0	0	4,293261	1,7445	303,5016	0,05	86,301	0	1017,2	6,7	8,6	8,7	1	1	1	1	1	1	1	1	1	0	1	-8,104299	274,058223	311,751635	0
15.01.2021	21:09:23	0	0	2,937495	1,64625	295,1784	0,054	86,299	0	1017,32	6,7	8,7	8,7	1	1	1	1	1	1	1	1	1	0	1	-4,651163	274,059713	315,211723	0
15.01.2021	21:09:24	0	0	4,745184	1,512	302,0184	0,053	86,282	0	1017,34	6,7	8,7	8,7	1	1	1	1	1	1	1	1	1	0	1	-6,060606	273,915798	313,130939	0
15.01.2021	21:09:25	0	0	3,050475	1,455	304,9776	0,048	86,274	0	1017,26	6,7	8,7	8,7	1	1	1	1	1	1	1	1	1	0	1	-10,852713	273,994298	308,704894	0
15.01.2021	21:09:26	0	0	2,824531	1,392	314,046	0,048	86,296	0	1017,24	6,7	8,6	8,6	1	1	1	1	1	1	1	1	1	0	1	-11,41649	274,082064	308,550755	0
15.01.2021	21:09:27	0	0	3,389437	1,35	311,4288	0,045	86,295	0	1017,2	6,7	8,6	8,6	1	1	1	1	1	1	1	1	1	0	1	-7,751938	273,903976	311,384509	0
15.01.2021	21:09:28	0	0	4,180281	1,347	305,82	0,054	86,296	0	1017,3	6,6	8,7	8,7	1	1	1	1	1	1	1	1	1	0	1	-5,567301	274,00766	314,052648	0
15.01.2021	21:09:29	0	0	4,0673	1,39275	315,5544	0,052	86,301	0	1017,4	6,7	8,7	8,7	1	1	1	1	1	1	1	1	1	0	1	-7,329105	273,901022	311,793574	0
15.01.2021	21:09:30	0	0	2,824514	1,4685	318,4848	0,046	86,291	0	1017,34	6,7	8,6	8,7	1	1	1	1	1	1	1	1	1	0	1	-7,82241	274,001721	311,769825	0
15.01.2021	21:09:31	0	0	2,485587	1,49925	322,1532	0,054	86,304	0	1017,42	6,7	8,7	8,6	1	1	1	1	1	1	1	1	1	0	1	-8,879493	273,905453	310,26384	0
15.01.2021	21:09:32	0	0	2,937495	1,509	302,0688	0,051	86,289	0	1017,26	6,7	8,6	8,7	1	1	1	1	1	1	1	1	1	0	1	-9,020437	273,948344	310,322839	0
15.01.2021	21:09:33	0	0	3,163456	1,485	310,9716	0,05	86,289	0	1017,32	6,7	8,6	8,7	1	1	1	1	1	1	1	1	1	0	1	-6,131078	273,95723	313,253633	0
15.01.2021	21:09:34	0	0	3,6154	1,51275	301,2696	0,046	86,288	0	1017,58	6,7	8,7	8,6	1	1	1	1	1	1	1	1	1	0	1	-8,949965	273,917276	310,248471	0
15.01.2021	21:09:35	0	0	2,372592	1,57575	305,7696	0,054	86,295	0	1017,28	6,7	8,7	8,7	1	1	1	1	1	1	1	1	1	0	1	-10,288936	273,948344	309,05434	0
15.01.2021	21:09:36	0	0	4,0673	1,61925	308,502	0,047	86,297	0	1017,32	6,7	8,7	8,7	1	1	1	1	1	1	1	1	1	0	1	-8,033827	273,909886	311,130165	0
15.01.2021	21:09:37	0	0	2,485587	1,58025	319,2048	0,046	86,289	0	1017,38	6,6	8,7	8,6	1	1	1	1	1	1	1	1	1	0	1	-9,513742	273,955749	309,864062	0
15.01.2021	21:09:38	0	0	3,389417	1,6515	316,7064	0,043	86,294	0	1017,24	6,7	8,7	8,7	1	1	1	1	1	1	1	1	1	0	1	-7,258633	274,049291	312,555602	0
15.01.2021	21:09:39	0	0	4,745184	1,74225	301,6656	0,049	86,287	0	1017,24	6,7	8,7	8,7	1	1	1	1	1	1	1	1	1	0	1	-11,557435	273,906931	307,592783	0
15.01.2021	21:09:40	0	0	3,954344	1,821	310,3812	0,047	86,282	0	1017,4	6,7	8,7	8,6	1	1	1	1	1	1	1	1	1	0	1	-8,174771	273,995783	311,389761	0
15.01.2021	21:09:41	0	0	2,372606	1,84875	309,2436	0,047	86,285	0	1017,28	6,6	8,7	8,6	1	1	1	1	1	1	1	1	1	0	1	-3,030303	274,092503	316,985693	0
15.01.2021	21:09:42	0	0	2,824514	1,8885	304,2648	0,042	86,291	0	1017,32	6,6	8,6	8,7	1	1	1	1	1	1	1	1	1	0	1	-4,016913	274,06865	315,887698	0
15.01.2021	21:09:43	0	0	3,841339	1,84575	308,502	0,051	86,284	0	1017,28	6,7	8,6	8,7	1	1	1	1	1	1	1	1	1	0	1	-12,191684	274,059713	307,671201	0
15.01.2021	21:09:44	0	0	4,632259	1,8285	308,1276	0,05	86,279	0	1017,2	6,7	8,8	8,5	1	1	1	1	1	1	1	1	1	0	1	-5,073996	273,901022	314,048684	0
15.01.2021	21:09:45	0	0	4,51925	1,7355	294,4764	0,048	86,279	0	1017,32	6,7	8,7	8,6	1	1	1	1	1	1	1	1	1	0	1	-5,496829	273,970566	313,950079	0
15.01.2021	21:09:46	0	0	2,937495	1,65525	297,8892	0,039	86,288	0	1017,2	6,7	8,6	8,7	1	1	1	1	1	1	1	1	1	0	1	-7,188161	273,932064	312,079211	0
15.01.2021	21:09:47	0	0	3,276436	1,6005	269,154	0,04	86,282	0	1017,2	6,7	8,6	8,7	1	1	1	1	1	1	1	1	1	0	1	-8,174771	273,970566	311,272137	0
15.01.2021	21:09:48	0	0	3,954344	1,5435	288,1512	0,05	86,272	0	1017,24	6,7	8,7	8,6	1	1	1	1	1	1	1	1	1	0	1	-7,82241	274,085046	312,158761	0
15.01.2021	21:09:49	0	0	4,971145	1,58025	305,7732	0,042	86,281	0	1017,28	6,7	8,7	8,7	1	1	1	1	1	1	1	1	1	0	1	-10,147992	273,949825	309,202189	0
15.01.2021	21:09:50	0	0	4,0673	1,70775	293,7312	0,045	86,267	0	1017,32	6,7	8,6	8,7	1	1	1	1	1	1	1	1	1	0	1	-9,654686	273,912842	309,523081	0
15.01.2021	21:09:51	0	0	4,406268	1,78575	304,6968	0,044	86,29	0	1017,08	6,7	8,7	8,6	1	1	1	1	1	1	1	1	1	0	1	-10,852713	274,022518	308,836565	0
15.01.2021	21:09:52	0	0	3,841339	1,67475	292,9716	0,051	86,284	0	1017,26	6,7	8,6	8,7	1	1	1	1	1	1	1	1	1	0	1	-10,077519	273,912842	309,100248	0
15.01.2021	21:09:53	0	0	4,293287	1,671	284,0256	0,041	86,272	0	1017,34	6,7	8,7	8,6	1	1	1	1	1	1	1	1	1	0	1	-12,191684	274,06716	307,705972	0
15.01.2021	21:09:54	0	0	2,824514	1,785	276,4908	0,041	86,286	0	1017,12	6,7	8,6	8,7	1	1	1	1	1	1	1	1	1	0	1	-8,245243	273,960193	311,153285	0
15.01.2021	21:09:55	0	0	2,598553	1,81725	268,848	0,045	86,286	0	1017,32	6,7	8,8	8,7	1	1	1	1	1	1	1	1	1	0	1	-7,329105	273,887734	311,731649	0
15.01.2021	21:09:56	0	0	3,502398	1,866	281,3832	0,048	86,291	0	1017,18	6,7	8,6	8,7	1	1	1	1	1	1	1	1	1	0	1	-6,20155	274,015088	313,453055	0
15.01.2021	21:09:57	0	0	2,598569	1,80675	271,008	0,047	86,285	0	1017,28	6,7	8,6	8,6	1	1	1	1	1	1	1	1	1	0	1	-12,262156	273,898068	306,846757	0
15.01.2021	21:09:58	0	0	4,745212	1,83225	261,6984	0,041	86,29	0	1017,52	6,7	8,9	8,6	1	1	1	1	1	1	1	1	1	0	1	-14,869626	273,998751	304,708755	0
15.01.2021	21:09:59	0	0	3,841339	1,7055	262,17	0,046	86,292	0	1017,34	6,7	8,7	8,7	1	1	1	1	1	1	1	1	1	0	1	-6,8358	274,076101	313,103602	0
15.01.2021	21:10:00	0	0	3,050475	1,5405	274,2444	0,047	86,3	0	1017,42	6,7	8,7	8,7	1	1	1	1	1	1	1	1	1	0	1	-13,742072	274,034413	306,002716	0
15.01.2021	21:10:01	0	0	4,858193	1,42125	282,1572	0,048	86,291	0	1017,42	6,7	8,7	8,6	1	1	1	1	1	1	1	1	1	0	1	-8,245243	274,049291	311,568991	0
15.01.2021	21:10:02	0	0	2,711534	1,3365	285,93	0,049	86,282	0	1017,38	6,6	8,7	8,7	1	1	1	1	1	1	1	1	1	0	1	-10,147992	273,905453	308,995341	0
15.01.2021	21:10:03	0	0	4,745212	1,308	306,4572	0,042	86,292	0	1017,38	6,7	8,6	8,6	1	1	1	1	1	1	1	1	1	0	1	-10,993658	273,958711	308,397962	0
15.01.2021	21:10:04	0	0	4,745184	1,215	299,4768	0,044	86,286	0	1017,28	6,7	8,7	8,7	1	1	1	1	1	1	1	1	1	0	1	-9,44327	274,086537	310,544865	0
15.01.2021	21:10:05	0	0	2,711534	1,2525	297,5724	0,04	86,296	0	1017,32	6,7	8,7	8,7	1	1	1	1	1	1	1	1	1	0	1	-10,500352	273,96612	308,925817	0
15.01.2021	21:10:06	0	0	5,084125	1,272	329,7348	0,045	86,286	0	1017,28	6,7	8,7	8,7	1	1	1	1	1	1	1	1	1	0	1	-8,668076	273,911364	310,502803	0
15.01.2021	21:10:07	0	0	3,389417	1,335	317,0124	0,044	86,303	0	1017,36	6,6	8,7	8,7	1	1	1	1	1	1	1	1	1	0	1	-11,768851	274,029951	307,955116	0
15.01.2021	21:10:08	0	0	3,954344	1,3815	325,998	0,047	86,293	0	1017,34	6,7	8,7	8,6	1	1	1	1	1	1	1	1	1	0	1	-13,389711	274,064181	306,494035	0
15.01.2021	21:10:09	0	0	3,728359	1,45575	320,5476	0,044	86,298	0	1017,28	6,7	8,7	8,7	1	1	1	1	1	1	1	1	1	0	1	-10,711769	273,96612	308,714401	0
15.01.2021	21:10:10	0	0	3,841362	1,404	315,9612	0,045	86,31	0	1017,3	6,7	8,7	8,6	1	1	1	1	1	1	1	1	1	0	1	-5,285412	273,915798	313,906133	0
15.01.2021	21:10:11	0	0	2,598553	1,314	311,0076	0,044	86,288	0	1017,3	6,6	8,6	8,7	1	1	1	1	1	1	1	1	1	0	1	-6,20155	273,933543	313,072719	0
15.01.2021	21:10:12	0	0	5,197137	1,33425	303,2928	0,043	86,288	0	1017,24	6,7	8,6	8,6	1	1	1	1	1	1	1	1	1	0	1	-12,684989	273,976497	306,789578	0
15.01.2021	21:10:13	0	0	3,954344	1,39725	312,1668	0,041	86,305	0	1017,3	6,7	8,6	8,6	1	1	1	1	1	1	1	1	1	0	1	-5,708245	273,915798	313,4833	0
15.01.2021	21:10:14	0	0	2,485587	1,5255	297,9612	0,047	86,296	0	1017,36	6,7	8,6	8,6	1	1	1	1	1	1	1	1	1	0	1	-8,668076	273,972049	310,785745	0
15.01.2021	21:10:15	0	0	4,745212	1,58175	300,15	0,044	86,311	0	1017,36	6,7	8,6	8,6	1	1	1	1	1	1	1	1	1	0	1	-10,147992	274,077591	309,79837	0
15.01.2021	21:10:16	0	0	3,389437	1,611	299,0232	0,043	86,301	0	1017,16	6,7	8,7	8,6	1	1	1	1	1	1	1	1	1	0	1	-8,879493	273,935023	310,401674	0
15.01.2021	21:10:17	0	0	3,050475	1,6905	291,4632	0,041	86,299	0	1017,42	6,7	8,6	8,7	1	1	1	1	1	1	1	1	1	0	1	-13,107822	274,034413	306,636966	0
15.01.2021	21:10:18	0	0	2,824514	1,78725	299,0664	0,041	86,286	0	1017,36	6,7	8,6	8,7	1	1	1	1	1	1	1	1	1	0	1	-12,473573	274,08952	307,528491	0
15.01.2021	21:10:19	0	0	4,858164	1,926	300,4452	0,041	86,297	0	1017,18	6,7	8,6	8,7	1	1	1	1	1	1	1	1	1	0	1	-11,134602	273,998751	308,44378	0
15.01.2021	21:10:20	0	0	4,745184	2,02725	304,6788	0,045	86,301	0	1017,32	6,7	8,7	8,7	1	1	1	1	1	1	1	1	1	0	1	-5,990134	274,085046	313,991037	0
15.01.2021	21:10:21	0	0	4,067325	2,06175	300,1392	0,04	86,292	0	1017,24	6,7	8,7	8,6	1	1	1	1	1	1	1	1	1	0	1	-6,976744	273,943903	312,345823	0
15.01.2021	21:10:22	0	0	3,050494	2,04825	303,5844	0,042	86,287	0	1017,14	6,6	8,6	8,6	1	1	1	1	1	1	1	1	1	0	1	-9,725159	273,935023	309,556008	0
15.01.2021	21:10:23	0	0	2,598569	2,025	300,8736	0,042	86,303	0	1017,26	6,7	8,7	8,6	1	1	1	1	1	1	1	1	1	0	1	-6,906272	273,906931	312,243946	0
15.01.2021	21:10:24	0	0	4,067325	2,02575	300,4128	0,042	86,3	0	1017,42	6,7	8,6	8,6	1	1	1	1	1	1	1	1	1	0	1	-6,8358	273,960193	312,562728	0
15.01.2021	21:10:25	0	0	3,728381	2,06775	297,2016	0,043	86,299	0	1017,26	6,7	8,7	8,6	1	1	1	1	1	1	1	1	1	0	1	-10,218464	274,080573	309,74182	0
15.01.2021	21:10:26	0	0	2,711534	2,0505	291,4812	0,044	86,306	0	1017,36	6,7	8,7	8,7	1	1	1	1	1	1	1	1	1	0	1	-6,624383	273,930585	312,636092	0
15.01.2021	21:10:27	0	0	2,711534	2,037	298,3212	0,041	86,305	0	1017,38	6,7	8,6	8,7	1	1	1	1	1	1	1	1	1	0	1	-9,654686	273,915798	309,536859	0
15.01.2021	21:10:28	0	0	4,180281	1,9725	287,0532	0,045	86,29	0	1017,28	6,7	8,7	8,7	1	1	1	1	1	1	1	1	1	0	1	-9,44327	273,929105	309,81031	0
15.01.2021	21:10:29	0	0	4,745184	1,85175	292,9428	0,042	86,289	0	1017,42	6,7	8,7	8,7	1	1	1	1	1	1	1	1	1	0	1	-5,285412	274,076101	314,653989	0
15.01.2021	21:10:30	0	0	3,841362	1,8465	282,798	0,037	86,279	0	1017,36	6,7	8,7	8,6	1	1	1	1	1	1	1	1	1	0	1	-5,355884	273,935023	313,925283	0
15.01.2021	21:10:31	0	0	4,519223	1,89675	291,5208	0,042	86,303	0	1017,36	6,7	8,7	8,7	1	1	1	1	1	1	1	1	1	0	1	-7,610994	274,079082	312,342328	0
15.01.2021	21:10:32	0	0	3,163475	2,02125	284,4036	0,038	86,292	0	1017,4	6,7	8,7	8,6	1	1	1	1	1	1	1	1	1	0	1	-6,272023	273,940942	313,036742	0
15.01.2021	21:10:33	0	0	3,276436	2,2635	288,108	0,041	86,308	0	1017,3	6,7	8,7	8,7	1	1	1	1	1	1	1	1	1	0	1	-7,610994	274,047803	312,196293	0
15.01.2021	21:10:34	0	0	4,51925	2,2815	292,608	0,033	86,283	0	1017,36	6,7	8,7	8,6	1	1	1	1	1	1	1	1	1	0	1	-10,42988	274,076101	309,509521	0
15.01.2021	21:10:35	0	0	2,824514	2,28075	288,432	0,049	86,297	0	1017,34	6,6	8,7	8,7	1	1	1	1	1	1	1	1	1	0	1	-5,778717	273,936503	313,509348	0
15.01.2021	21:10:36	0	0	4,293261	2,349	291,4884	0,035	86,293	0	1017,44	6,7	8,7	8,7	1	1	1	1	1	1	1	1	1	0	1	-6,272023	274,091012	313,737008	0
15.01.2021	21:10:37	0	0	3,841362	2,3445	298,6776	0,047	86,296	0	1017,36	6,7	8,6	8,6	1	1	1	1	1	1	1	1	1	0	1	-9,795631	273,949825	309,55455	0
15.01.2021	21:10:38	0	0	2,259611	2,259	298,314	0,04	86,302	0	1017,52	6,7	8,7	8,7	1	1	1	1	1	1	1	1	1	0	1	-10,500352	273,936503	308,787713	0
15.01.2021	21:10:39	0	0	4,293261	2,19975	300,8808	0,035	86,292	0	1017,2	6,7	8,7	8,7	1	1	1	1	1	1	1	1	1	0	1	-10,500352	274,061202	309,369486	0
15.01.2021	21:10:40	0	0	4,406268	2,1195	318,7764	0,034	86,293	0	1017,28	6,7	8,7	8,6	1	1	1	1	1	1	1	1	1	0	1	-8,033827	273,979462	311,454574	0
15.01.2021	21:10:41	0	0	3,728381	2,09475	313,2828	0,033	86,301	0	1017,22	6,7	8,6	8,6	1	1	1	1	1	1	1	1	1	0	1	-8,597604	274,074611	311,334838	0
15.01.2021	21:10:42	0	0	3,050475	2,004	307,2348	0,037	86,298	0	1017,44	6,7	8,7	8,7	1	1	1	1	1	1	1	1	1	0	1	-11,06413	273,973531	308,396606	0
15.01.2021	21:10:43	0	0	3,276436	1,81275	289,6344	0,035	86,292	0	1017,32	6,7	8,7	8,7	1	1	1	1	1	1	1	1	1	0	1	-12,121212	274,064181	307,762534	0
15.01.2021	21:10:44	0	0	4,406268	1,71975	300,8592	0,036	86,297	0	1017,4	6,7	8,7	8,6	1	1	1	1	1	1	1	1	1	0	1	-14,65821	274,077591	305,288152	0
15.01.2021	21:10:45	0	0	4,745184	1,752	295,164	0,031	86,286	0	1017,18	6,7	8,7	8,7	1	1	1	1	1	1	1	1	1	0	1	-7,399577	274,006175	312,213442	0
15.01.2021	21:10:46	0	0	4,293261	1,905	294,6816	0,036	86,29	0	1017,24	6,7	8,6	8,7	1	1	1	1	1	1	1	1	1	0	1	-9,302326	273,905453	309,841007	0
15.01.2021	21:10:47	0	0	2,598569	1,98675	298,6524	0,033	86,283	0	1017,52	6,7	8,7	8,6	1	1	1	1	1	1	1	1	1	0	1	-9,795631	274,07014	310,115938	0
15.01.2021	21:10:48	0	0	4,180281	1,92375	285,4296	0,035	86,306	0	1017,3	6,7	8,6	8,7	1	1	1	1	1	1	1	1	1	0	1	-5,919662	273,955749	313,458142	0
15.01.2021	21:10:49	0	0	3,841339	1,794	306,1404	0,037	86,3	0	1017,42	6,7	8,7	8,7	1	1	1	1	1	1	1	1	1	0	1	-8,45666	274,080573	311,503624	0
15.01.2021	21:10:50	0	0	3,163456	1,65675	301,6008	0,035	86,293	0	1017,26	6,7	8,7	8,7	1	1	1	1	1	1	1	1	1	0	1	-9,231853	273,976497	310,242714	0
15.01.2021	21:10:51	0	0	5,084156	1,60725	297,9648	0,036	86,295	0	1017,38	6,7	8,7	8,6	1	1	1	1	1	1	1	1	1	0	1	-8,174771	274,061202	311,695067	0
15.01.2021	21:10:52	0	0	3,95432	1,67775	291,852	0,031	86,286	0	1017,3	6,7	8,7	8,7	1	1	1	1	1	1	1	1	1	0	1	-6,342495	274,088029	313,652604	0
15.01.2021	21:10:53	0	0	2,71155	1,761	287,7948	0,037	86,302	0	1017,28	6,7	8,7	8,6	1	1	1	1	1	1	1	1	1	0	1	-9,584214	274,040363	310,188345	0
15.01.2021	21:10:54	0	0	4,180306	1,6965	307,1556	0,039	86,305	0	1017,4	6,7	8,7	8,6	1	1	1	1	1	1	1	1	1	0	1	-9,725159	274,040363	310,0474	0
15.01.2021	21:10:55	0	0	3,163456	1,62525	308,4804	0,036	86,301	0	1017,22	6,7	8,6	8,7	1	1	1	1	1	1	1	1	1	0	1	-5,708245	273,911364	313,462634	0
15.01.2021	21:10:56	0	0	3,050475	1,61025	293,3532	0,028	86,304	0	1017,32	6,7	8,7	8,7	1	1	1	1	1	1	1	1	1	0	1	-8,949965	273,893638	310,138305	0
15.01.2021	21:10:57	0	0	3,163475	1,72125	285,9516	0,034	86,315	0	1017,24	6,7	8,7	8,6	1	1	1	1	1	1	1	1	1	0	1	-7,963354	273,998751	311,615027	0
15.01.2021	21:10:58	0	0	2,598569	1,74675	308,9016	0,033	86,313	0	1017,32	6,7	8,6	8,6	1	1	1	1	1	1	1	1	1	0	1	-5,778717	274,07312	314,146766	0
15.01.2021	21:10:59	0	0	3,728359	1,7475	292,1688	0,034	86,299	0	1017,28	6,7	8,7	8,7	1	1	1	1	1	1	1	1	1	0	1	-8,245243	274,031438	311,485664	0
15.01.2021	21:11:00	0	0	4,406242	1,7445	312,4512	0,034	86,311	0	1017,34	6,7	8,7	8,7	1	1	1	1	1	1	1	1	1	0	1	-9,302326	273,898068	309,806588	0
15.01.2021	21:11:01	0	0	2,485572	1,72875	299,43	0,028	86,288	0	1017,22	6,7	8,7	8,7	1	1	1	1	1	1	1	1	1	0	1	-7,188161	273,99133	312,3556	0
15.01.2021	21:11:02	0	0	4,51925	1,698	294,8148	0,032	86,305	0	1017,18	6,7	8,7	8,6	1	1	1	1	1	1	1	1	1	0	1	-9,936575	274,088029	310,058524	0
15.01.2021	21:11:03	0	0	3,276456	1,67175	303,4908	0,029	86,308	0	1017,42	6,7	8,7	8,6	1	1	1	1	1	1	1	1	1	0	1	-11,06413	273,99133	308,479631	0
15.01.2021	21:11:04	0	0	2,824531	1,656	294,768	0,036	86,316	0	1017,26	6,7	8,7	8,6	1	1	1	1	1	1	1	1	1	0	1	-6,8358	274,07163	313,082726	0
15.01.2021	21:11:05	0	0	4,406242	1,716	292,0032	0,034	86,31	0	1017,36	6,7	8,7	8,7	1	1	1	1	1	1	1	1	1	0	1	-10,711769	274,000236	308,873539	0
15.01.2021	21:11:06	0	0	2,937495	1,8045	274,2084	0,031	86,316	0	1017,46	6,7	8,7	8,7	1	1	1	1	1	1	1	1	1	0	1	-8,949965	274,07312	310,975519	0
15.01.2021	21:11:07	0	0	3,276476	1,887	300,4272	0,032	86,31	0	1017,46	6,7	8,7	8,5	1	1	1	1	1	1	1	1	1	0	1	-9,090909	274,012117	310,549831	0
15.01.2021	21:11:08	0	0	3,841362	1,9095	288,0972	0,027	86,311	0	1017,34	6,7	8,7	8,6	1	1	1	1	1	1	1	1	1	0	1	-7,963354	273,892162	311,118036	0
15.01.2021	21:11:09	0	0	3,276436	2,004	291,8088	0,029	86,299	0	1017,18	6,7	8,7	8,7	1	1	1	1	1	1	1	1	1	0	1	-6,483439	274,06716	313,414217	0
15.01.2021	21:11:10	0	0	4,293261	2,04675	292,1688	0,031	86,321	0	1017,32	6,7	8,7	8,7	1	1	1	1	1	1	1	1	1	0	1	-11,134602	274,019546	308,540805	0
15.01.2021	21:11:11	0	0	2,71155	2,11725	288,4284	0,029	86,314	0	1017,46	6,7	8,7	8,6	1	1	1	1	1	1	1	1	1	0	1	-13,883016	273,896591	305,219016	0
15.01.2021	21:11:12	0	0	4,745184	2,2215	283,158	0,027	86,303	0	1017,32	6,7	8,7	8,7	1	1	1	1	1	1	1	1	1	0	1	-9,795631	273,945383	309,533839	0
15.01.2021	21:11:13	0	0	3,389437	2,11725	286,6284	0,032	86,307	0	1017,26	6,7	8,7	8,6	1	1	1	1	1	1	1	1	1	0	1	-6,624383	274,077591	313,321978	0
15.01.2021	21:11:14	0	0	4,180281	1,93425	282,132	0,031	86,316	0	1017,28	6,7	8,7	8,7	1	1	1	1	1	1	1	1	1	0	1	-8,245243	274,076101	311,694158	0
15.01.2021	21:11:15	0	0	3,954344	1,86	286,9848	0,027	86,296	0	1017,3	6,7	8,7	8,6	1	1	1	1	1	1	1	1	1	0	1	-2,677942	273,954267	316,692955	0
15.01.2021	21:11:16	0	0	3,389417	1,86975	283,2084	0,026	86,29	0	1017,28	6,7	8,6	8,7	1	1	1	1	1	1	1	1	1	0	1	-10,782241	273,893638	308,306029	0
15.01.2021	21:11:17	0	0	2,711534	1,9215	284,76	0,022	86,296	0	1017,26	6,7	8,7	8,7	1	1	1	1	1	1	1	1	1	0	1	-6,131078	273,917276	313,067357	0
15.01.2021	21:11:18	0	0	3,276456	1,95225	289,638	0,027	86,289	0	1017,56	6,7	8,6	8,6	1	1	1	1	1	1	1	1	1	0	1	-7,751938	274,062691	312,124854	0
15.01.2021	21:11:19	0	0	4,519223	2,022	296,3736	0,029	86,311	0	1017,54	6,7	8,6	8,7	1	1	1	1	1	1	1	1	1	0	1	-14,235377	274,006175	305,377642	0
15.01.2021	21:11:20	0	0	2,824514	2,03175	302,0256	0,023	86,287	0	1017,28	6,7	8,6	8,7	1	1	1	1	1	1	1	1	1	0	1	-8,949965	273,896591	310,152067	0
15.01.2021	21:11:21	0	0	3,050475	1,99425	298,0224	0,026	86,295	0	1017,28	6,7	8,7	8,7	1	1	1	1	1	1	1	1	1	0	1	-10,923185	273,908408	308,233919	0
15.01.2021	21:11:22	0	0	4,971175	2,13075	300,276	0,031	86,296	0	1017,3	6,7	8,6	8,6	1	1	1	1	1	1	1	1	1	0	1	-9,231853	274,074611	310,700589	0
15.01.2021	21:11:23	0	0	2,824514	2,121	294,7608	0,03	86,315	0	1017,24	6,7	8,7	8,7	1	1	1	1	1	1	1	1	1	0	1	-7,258633	274,015088	312,395972	0
15.01.2021	21:11:24	0	0	3,841339	2,1075	290,3796	0,024	86,314	0	1017,34	6,7	8,7	8,7	1	1	1	1	1	1	1	1	1	0	1	-10,782241	274,07014	309,129327	0
15.01.2021	21:11:25	0	0	4,632259	2,02875	299,7396	0,018	86,302	0	1017,3	6,7	8,7	8,5	1	1	1	1	1	1	1	1	1	0	1	-10,923185	273,886258	308,130692	0
15.01.2021	21:11:26	0	0	3,050494	1,95375	301,2876	0,028	86,313	0	1017,28	6,7	8,6	8,6	1	1	1	1	1	1	1	1	1	0	1	-6,060606	273,936503	313,227459	0
15.01.2021	21:11:27	0	0	4,632203	1,86225	300,8412	0,029	86,319	0	1017,26	6,7	8,7	8,7	1	1	1	1	1	1	1	1	1	0	1	-6,131078	274,043338	313,65537	0
15.01.2021	21:11:28	0	0	5,084125	1,8435	296,7696	0,026	86,316	0	1017,34	6,7	8,6	8,7	1	1	1	1	1	1	1	1	1	0	1	-6,694856	274,056734	313,154126	0
15.01.2021	21:11:29	0	0	4,293261	1,905	297,3096	0,025	86,313	0	1017,2	6,7	8,7	8,7	1	1	1	1	1	1	1	1	1	0	1	-12,191684	273,998751	307,386698	0
15.01.2021	21:11:30	0	0	3,276456	2,022	287,7264	0,028	86,313	0	1017,38	6,7	8,7	8,6	1	1	1	1	1	1	1	1	1	0	1	-8,033827	273,902499	311,095736	0
15.01.2021	21:11:31	0	0	3,276456	2,0865	290,736	0,028	86,317	0	1017,22	6,7	8,7	8,6	1	1	1	1	1	1	1	1	1	0	1	-8,879493	274,031438	310,851414	0
15.01.2021	21:11:32	0	0	2,146631	2,109	294,4332	0,028	86,322	0	1017,26	6,7	8,7	8,7	1	1	1	1	1	1	1	1	1	0	1	-10,147992	274,04185	309,631512	0
15.01.2021	21:11:33	0	0	3,163494	2,088	300,9384	0,03	86,304	0	1017,38	6,7	8,7	8,5	1	1	1	1	1	1	1	1	1	0	1	-7,258633	273,884782	311,788368	0
15.01.2021	21:11:34	0	0	3,95432	2,10975	300,8664	0,032	86,317	0	1017,26	6,7	8,7	8,7	1	1	1	1	1	1	1	1	1	0	1	-8,527132	273,986879	310,995864	0
15.01.2021	21:11:35	0	0	3,728381	2,14875	315,1836	0,026	86,309	0	1017,38	6,7	8,7	8,6	1	1	1	1	1	1	1	1	1	0	1	-8,386187	273,912842	310,79158	0
15.01.2021	21:11:36	0	0	4,632203	2,15775	308,106	0,027	86,292	0	1017,22	6,7	8,7	8,7	1	1	1	1	1	1	1	1	1	0	1	-7,188161	273,896591	311,913871	0
15.01.2021	21:11:37	0	0	2,598553	2,16075	308,8008	0,023	86,314	0	1017,32	6,7	8,7	8,7	1	1	1	1	1	1	1	1	1	0	1	-7,610994	273,902499	311,518569	0
15.01.2021	21:11:38	0	0	2,598553	2,1285	313,2108	0,025	86,306	0	1017,2	6,7	8,7	8,7	1	1	1	1	1	1	1	1	1	0	1	-7,188161	273,893638	311,90011	0
15.01.2021	21:11:39	0	0	3,050475	2,088	303,3864	0,019	86,312	0	1017,34	6,7	8,7	8,7	1	1	1	1	1	1	1	1	1	0	1	-7,047216	273,988363	312,4827	0
15.01.2021	21:11:40	0	0	2,711534	2,02125	306,1332	0,027	86,321	0	1017,26	6,7	8,6	8,7	1	1	1	1	1	1	1	1	1	0	1	-7,470049	274,062691	312,406742	0
15.01.2021	21:11:41	0	0	2,598553	2,0205	304,6068	0,023	86,32	0	1017,22	6,7	8,7	8,7	1	1	1	1	1	1	1	1	1	0	1	-7,470049	273,943903	311,852518	0
15.01.2021	21:11:42	0	0	3,728381	1,989	295,7832	0,024	86,315	0	1017,32	6,7	8,7	8,6	1	1	1	1	1	1	1	1	1	0	1	-9,302326	273,884782	309,744675	0
15.01.2021	21:11:43	0	0	4,293261	1,9485	292,9428	0,019	86,321	0	1017,2	6,7	8,7	8,7	1	1	1	1	1	1	1	1	1	0	1	-7,610994	274,047803	312,196293	0
15.01.2021	21:11:44	0	0	3,050494	1,908	293,0004	0,025	86,335	0	1017,28	6,7	8,7	8,6	1	1	1	1	1	1	1	1	1	0	1	-10,570825	273,890686	308,503687	0
15.01.2021	21:11:45	0	0	3,050494	1,81275	299,7216	0,019	86,326	0	1017,34	6,7	8,7	8,6	1	1	1	1	1	1	1	1	1	0	1	-6,412967	273,936503	312,875099	0
15.01.2021	21:11:46	0	0	3,050475	1,7775	301,6116	0,022	86,338	0	1017,24	6,7	8,7	8,7	1	1	1	1	1	1	1	1	1	0	1	-8,527132	273,905453	310,616201	0
15.01.2021	21:11:47	0	0	4,632231	1,707	296,838	0,019	86,348	0	1017,38	6,7	8,7	8,6	1	1	1	1	1	1	1	1	1	0	1	-9,584214	274,006175	310,028805	0
15.01.2021	21:11:48	0	0	2,711534	1,63575	296,8128	0,025	86,352	0	1017,18	6,7	8,7	8,7	1	1	1	1	1	1	1	1	1	0	1	-7,258633	273,88921	311,809	0
15.01.2021	21:11:49	0	0	4,971175	1,61625	301,4604	0,007	86,347	0	1017,38	6,7	8,7	8,6	1	1	1	1	1	1	1	1	1	0	1	-10,288936	273,939462	309,012928	0
15.01.2021	21:11:50	0	0	3,389417	1,57875	307,1484	0,028	86,343	0	1017,26	6,7	8,7	8,7	1	1	1	1	1	1	1	1	1	0	1	-9,161381	274,043338	310,625067	0
15.01.2021	21:11:51	0	0	4,745212	1,50525	298,7136	0,027	86,348	0	1017,36	6,7	8,7	8,6	1	1	1	1	1	1	1	1	1	0	1	-5,285412	274,044826	314,507982	0
15.01.2021	21:11:52	0	0	4,51925	1,5	310,302	0,023	86,339	0	1017,42	6,7	8,7	8,6	1	1	1	1	1	1	1	1	1	0	1	-6,272023	273,982429	313,230214	0
15.01.2021	21:11:53	0	0	3,95432	1,54425	323,136	0,021	86,346	0	1017,24	6,7	8,7	8,7	1	1	1	1	1	1	1	1	1	0	1	-7,751938	274,07163	312,166588	0
15.01.2021	21:11:54	0	0	3,841339	1,572	312,8832	0,029	86,35	0	1017,24	6,7	8,7	8,7	1	1	1	1	1	1	1	1	1	0	1	-7,188161	273,958711	312,203459	0
15.01.2021	21:11:55	0	0	3,050494	1,62075	322,2756	0,028	86,36	0	1017,44	6,7	8,7	8,6	1	1	1	1	1	1	1	1	1	0	1	-8,033827	274,077591	311,912535	0
15.01.2021	21:11:56	0	0	3,502398	1,59075	321,426	0,022	86,358	0	1017,24	6,7	8,7	8,7	1	1	1	1	1	1	1	1	1	0	1	-5,567301	273,983912	313,941855	0
15.01.2021	21:11:57	0	0	2,824531	1,54425	321,3072	0,024	86,356	0	1017,38	6,7	8,7	8,6	1	1	1	1	1	1	1	1	1	0	1	-9,936575	274,074611	309,995867	0
15.01.2021	21:11:58	0	0	2,598553	1,5315	320,3964	0,02	86,346	0	1017,14	6,7	8,7	8,7	1	1	1	1	1	1	1	1	1	0	1	-6,060606	273,946863	313,275767	0
15.01.2021	21:11:59	0	0	3,502419	1,5315	306,4572	0,022	86,373	0	1017,4	6,7	8,7	8,6	1	1	1	1	1	1	1	1	1	0	1	-13,883016	274,074611	306,049426	0
15.01.2021	21:12:00	0	0	4,745184	1,443	325,5516	0,023	86,37	0	1017,12	6,7	8,7	8,7	1	1	1	1	1	1	1	1	1	0	1	-10,923185	274,032925	308,814662	0
15.01.2021	21:12:01	0	0	4,632203	1,40025	318,8268	0,021	86,357	0	1017,54	6,7	8,6	8,7	1	1	1	1	1	1	1	1	1	0	1	-7,610994	273,909886	311,552998	0
15.01.2021	21:12:02	0	0	3,502398	1,33725	295,5132	0,018	86,354	0	1017,26	6,7	8,7	8,7	1	1	1	1	1	1	1	1	1	0	1	-8,174771	273,937982	311,120194	0
15.01.2021	21:12:03	0	0	2,937512	1,31775	293,7204	0,026	86,37	0	1017,26	6,7	8,7	8,6	1	1	1	1	1	1	1	1	1	0	1	-5,84919	273,895115	313,245961	0
15.01.2021	21:12:04	0	0	3,163475	1,2915	315,5364	0,015	86,365	0	1017,3	6,7	8,7	8,6	1	1	1	1	1	1	1	1	1	0	1	-1,832276	273,958711	317,559343	0
15.01.2021	21:12:05	0	0	4,180306	1,25025	347,2524	0,017	86,376	0	1017,28	6,7	8,7	8,6	1	1	1	1	1	1	1	1	1	0	1	-6,906272	274,082064	313,060973	0
15.01.2021	21:12:06	0	0	3,841339	1,21125	327,168	0,017	86,378	0	1017,42	6,7	8,7	8,7	1	1	1	1	1	1	1	1	1	0	1	-5,567301	274,01806	314,101171	0
15.01.2021	21:12:07	0	0	3,276456	1,23375	317,304	0,028	86,38	0	1017,32	6,7	8,7	8,6	1	1	1	1	1	1	1	1	1	0	1	-12,473573	273,88921	306,59406	0
15.01.2021	21:12:08	0	0	3,389437	1,30425	322,2252	0,02	86,391	0	1017,28	6,7	8,7	8,6	1	1	1	1	1	1	1	1	1	0	1	-10,570825	273,948344	308,772452	0
15.01.2021	21:12:09	0	0	5,084186	1,3965	316,6668	0,022	86,374	0	1017,32	6,7	8,7	8,5	1	1	1	1	1	1	1	1	1	0	1	-7,047216	274,07312	312,878267	0
15.01.2021	21:12:10	0	0	4,745212	1,4475	311,778	0,021	86,37	0	1017,44	6,7	8,7	8,6	1	1	1	1	1	1	1	1	1	0	1	-9,161381	274,037387	310,597291	0
15.01.2021	21:12:11	0	0	4,067349	1,49475	316,656	0,024	86,384	0	1017,3	6,7	8,7	8,5	1	1	1	1	1	1	1	1	1	0	1	-8,738548	274,093995	311,284415	0
15.01.2021	21:12:12	0	0	2,824514	1,5165	328,536	0,02	86,38	0	1017,22	6,7	8,6	8,7	1	1	1	1	1	1	1	1	1	0	1	-5,567301	273,937982	313,727664	0
15.01.2021	21:12:13	0	0	5,084156	1,5405	315,8568	0,024	86,393	0	1017,22	6,7	8,7	8,6	1	1	1	1	1	1	1	1	1	0	1	-11,768851	274,0359	307,982879	0
15.01.2021	21:12:14	0	0	3,276436	1,4625	316,62	0,022	86,399	0	1017,4	6,7	8,7	8,7	1	1	1	1	1	1	1	1	1	0	1	-15,010571	273,898068	304,098343	0
15.01.2021	21:12:15	0	0	4,858164	1,42275	316,6956	0,02	86,388	0	1017,34	6,7	8,7	8,7	1	1	1	1	1	1	1	1	1	0	1	-10,852713	274,016574	308,808825	0
15.01.2021	21:12:16	0	0	4,406242	1,44675	304,65	0,022	86,399	0	1017,24	6,7	8,7	8,7	1	1	1	1	1	1	1	1	1	0	1	-9,020437	274,077591	310,925925	0
15.01.2021	21:12:17	0	0	5,4231	1,5465	309,8844	0,019	86,385	0	1017,3	6,7	8,7	8,6	1	1	1	1	1	1	1	1	1	0	1	-3,875969	274,029951	315,847998	0
15.01.2021	21:12:18	0	0	4,293261	1,62525	318,8556	0,025	86,402	0	1017,26	6,7	8,6	8,7	1	1	1	1	1	1	1	1	1	0	1	-8,104299	273,952786	311,259692	0
15.01.2021	21:12:19	0	0	2,598569	1,51725	308,448	0,025	86,406	0	1017,34	6,7	8,7	8,6	1	1	1	1	1	1	1	1	1	0	1	-9,654686	274,082064	310,312559	0
15.01.2021	21:12:20	0	0	3,95432	1,422	309,834	0,02	86,384	0	1017,24	6,7	8,7	8,7	1	1	1	1	1	1	1	1	1	0	1	-9,584214	274,056734	310,264768	0
15.01.2021	21:12:21	0	0	2,824531	1,35075	314,478	0,027	86,399	0	1017,58	6,7	8,7	8,6	1	1	1	1	1	1	1	1	1	0	1	-7,047216	274,047803	312,760071	0
15.01.2021	21:12:22	0	0	3,050475	1,39875	313,2252	0,022	86,406	0	1017,36	6,7	8,7	8,7	1	1	1	1	1	1	1	1	1	0	1	-5,708245	274,034413	314,036543	0
15.01.2021	21:12:23	0	0	2,71155	1,39725	308,034	0,025	86,397	0	1017,32	6,7	8,7	8,6	1	1	1	1	1	1	1	1	1	0	1	-9,372798	273,958711	310,018822	0
15.01.2021	21:12:24	0	0	3,615378	1,368	297,2232	0,022	86,409	0	1017,3	6,7	8,7	8,7	1	1	1	1	1	1	1	1	1	0	1	-9,584214	274,07014	310,327354	0
15.01.2021	21:12:25	0	0	2,598553	1,347	298,674	0,022	86,387	0	1017,12	6,7	8,7	8,7	1	1	1	1	1	1	1	1	1	0	1	-10,782241	274,034413	308,962547	0
15.01.2021	21:12:26	0	0	4,293287	1,29975	303,2496	0,027	86,411	0	1017,34	6,7	8,7	8,6	1	1	1	1	1	1	1	1	1	0	1	-10,711769	274,028464	309,005259	0
15.01.2021	21:12:27	0	0	2,824514	1,22325	311,4576	0,025	86,408	0	1017,3	6,7	8,7	8,7	1	1	1	1	1	1	1	1	1	0	1	-12,191684	273,899545	306,924112	0
15.01.2021	21:12:28	0	0	4,293287	1,065	327,1752	0,018	86,409	0	1017,3	6,7	8,7	8,6	1	1	1	1	1	1	1	1	1	0	1	-8,033827	273,99133	311,509934	0
15.01.2021	21:12:29	0	0	2,71155	0,9855	327,8916	0,024	86,411	0	1017,3	6,7	8,7	8,6	1	1	1	1	1	1	1	1	1	0	1	-8,315715	274,082064	311,65153	0
15.01.2021	21:12:30	0	0	4,632203	0,94125	316,9584	0,015	86,405	0	1017,14	6,7	8,7	8,7	1	1	1	1	1	1	1	1	1	0	1	-9,231853	274,034413	310,512935	0
15.01.2021	21:12:31	0	0	4,745212	0,91275	315,8784	0,021	86,396	0	1017,18	6,7	8,7	8,6	1	1	1	1	1	1	1	1	1	0	1	-10,007047	274,019546	309,66836	0
15.01.2021	21:12:32	0	0	2,71155	0,876	322,2	0,022	86,406	0	1017,26	6,7	8,7	8,6	1	1	1	1	1	1	1	1	1	0	1	-11,346018	273,893638	307,742252	0
15.01.2021	21:12:33	0	0	3,728381	0,83025	315,5868	0,022	86,389	0	1017,36	6,7	8,7	8,6	1	1	1	1	1	1	1	1	1	0	1	-3,030303	273,951305	316,326782	0
15.01.2021	21:12:34	0	0	2,485587	0,8325	310,6404	0,023	86,401	0	1017,22	6,7	8,7	8,6	1	1	1	1	1	1	1	1	1	0	1	-10,077519	273,91432	309,107136	0
15.01.2021	21:12:35	0	0	3,050494	0,7755	312,8004	0,021	86,405	0	1017,38	6,7	8,7	8,6	1	1	1	1	1	1	1	1	1	0	1	-4,510218	273,918754	314,695108	0
15.01.2021	21:12:36	0	0	3,389437	0,789	306,468	0,021	86,409	0	1017,14	6,7	8,7	8,6	1	1	1	1	1	1	1	1	1	0	1	-7,751938	274,031438	311,978969	0
15.01.2021	21:12:37	0	0	3,728381	0,76425	303,2496	0,025	86,41	0	1017,36	6,7	8,7	8,6	1	1	1	1	1	1	1	1	1	0	1	-5,285412	273,890686	313,789099	0
15.01.2021	21:12:38	0	0	4,067325	0,7485	308,8152	0,025	86,419	0	1017,38	6,7	8,7	8,6	1	1	1	1	1	1	1	1	1	0	1	-6,8358	273,963156	312,576548	0
15.01.2021	21:12:39	0	0	4,406268	0,753	312,8256	0,021	86,419	0	1017,38	6,7	8,7	8,6	1	1	1	1	1	1	1	1	1	0	1	-2,396054	274,077591	317,550308	0
15.01.2021	21:12:40	0	0	4,632231	0,765	310,6404	0,017	86,416	0	1017,24	6,7	8,7	8,6	1	1	1	1	1	1	1	1	1	0	1	-8,738548	274,015088	310,916057	0
15.01.2021	21:12:41	0	0	4,51925	0,7785	314,3916	0,016	86,406	0	1017,3	6,7	8,7	8,6	1	1	1	1	1	1	1	1	1	0	1	-11,486963	274,076101	308,452439	0
15.01.2021	21:12:42	0	0	4,180281	0,804	310,5936	0,022	86,422	0	1017,08	6,7	8,7	8,7	1	1	1	1	1	1	1	1	1	0	1	-9,513742	273,939462	309,788122	0
15.01.2021	21:12:43	0	0	4,519223	0,80925	306,4212	0,023	86,413	0	1017,34	6,7	8,7	8,7	1	1	1	1	1	1	1	1	1	0	1	-6,272023	274,07312	313,653461	0
15.01.2021	21:12:44	0	0	5,310087	0,8025	309,5496	0,02	86,419	0	1017,36	6,7	8,7	8,7	1	1	1	1	1	1	1	1	1	0	1	-10,218464	274,06716	309,679192	0
15.01.2021	21:12:45	0	0	4,406242	0,8235	318,4272	0,023	86,425	0	1017,24	6,7	8,7	8,7	1	1	1	1	1	1	1	1	1	0	1	-11,275546	273,949825	308,074634	0
15.01.2021	21:12:46	0	0	4,180281	0,8685	323,3412	0,021	86,412	0	1017,42	6,7	8,7	8,7	1	1	1	1	1	1	1	1	1	0	1	-10,218464	274,077591	309,727898	0
15.01.2021	21:12:47	0	0	3,6154	0,96975	326,7396	0,022	86,429	0	1017,36	6,7	8,7	8,6	1	1	1	1	1	1	1	1	1	0	1	-6,976744	273,948344	312,366532	0
15.01.2021	21:12:48	0	0	2,598569	1,07625	314,1252	0,023	86,419	0	1017,3	6,7	8,7	8,6	1	1	1	1	1	1	1	1	1	0	1	-12,403101	274,06865	307,501511	0
15.01.2021	21:12:49	0	0	3,163475	1,092	311,7888	0,023	86,42	0	1017,4	6,7	8,7	8,6	1	1	1	1	1	1	1	1	1	0	1	-6,8358	273,970566	312,611108	0
15.01.2021	21:12:50	0	0	4,406242	1,04025	311,04	0,02	86,423	0	1017,3	6,7	8,7	8,7	1	1	1	1	1	1	1	1	1	0	1	-10,147992	274,076101	309,79141	0
15.01.2021	21:12:51	0	0	4,858164	1,029	296,064	0,014	86,421	0	1017,18	6,7	8,7	8,7	1	1	1	1	1	1	1	1	1	0	1	-10,641297	274,028464	309,075731	0
15.01.2021	21:12:52	0	0	2,259611	1,04325	307,5552	0,021	86,414	0	1017,36	6,7	8,7	8,7	1	1	1	1	1	1	1	1	1	0	1	-8,315715	274,028464	311,401313	0
15.01.2021	21:12:53	0	0	2,71155	0,98325	319,5468	0,014	86,432	0	1017,16	6,7	8,7	8,6	1	1	1	1	1	1	1	1	1	0	1	-13,389711	274,074611	306,542731	0
15.01.2021	21:12:54	0	0	4,632259	0,9765	303,1704	0,02	86,428	0	1017,34	6,7	8,7	8,5	1	1	1	1	1	1	1	1	1	0	1	-11,41649	274,01806	308,251982	0
15.01.2021	21:12:55	0	0	4,406268	0,9765	302,9076	0,021	86,408	0	1017,24	6,7	8,6	8,6	1	1	1	1	1	1	1	1	1	0	1	-9,44327	274,07312	310,482214	0
15.01.2021	21:12:56	0	0	3,389437	0,96975	308,7144	0,016	86,415	0	1017,34	6,7	8,7	8,6	1	1	1	1	1	1	1	1	1	0	1	-10,782241	274,0359	308,969489	0
15.01.2021	21:12:57	0	0	3,841339	1,0005	303,48	0,018	86,415	0	1017,34	6,7	8,7	8,7	1	1	1	1	1	1	1	1	1	0	1	-9,654686	274,06567	310,236014	0
15.01.2021	21:12:58	0	0	2,598569	0,9885	306,792	0,016	86,421	0	1017,36	6,7	8,7	8,6	1	1	1	1	1	1	1	1	1	0	1	-10,570825	273,982429	308,931412	0
15.01.2021	21:12:59	0	0	2,598553	0,99825	307,2276	0,02	86,424	0	1017,38	6,7	8,7	8,7	1	1	1	1	1	1	1	1	1	0	1	-6,624383	273,896591	312,477649	0
15.01.2021	21:13:00	0	0	2,485587	0,97125	302,4432	0,023	86,424	0	1017,22	6,7	8,7	8,6	1	1	1	1	1	1	1	1	1	0	1	-12,05074	273,92319	307,175262	0
15.01.2021	21:13:01	0	0	4,406268	0,972	299,7828	0,023	86,424	0	1017,34	6,7	8,7	8,6	1	1	1	1	1	1	1	1	1	0	1	-5,567301	274,021032	314,115041	0
15.01.2021	21:13:02	0	0	3,954367	1,04775	297,2232	0,015	86,416	0	1017,38	6,7	8,7	8,5	1	1	1	1	1	1	1	1	1	0	1	-6,765328	273,899545	312,350469	0
15.01.2021	21:13:03	0	0	3,841339	1,14675	297,4968	0,018	86,416	0	1017,24	6,7	8,7	8,7	1	1	1	1	1	1	1	1	1	0	1	-8,80902	273,958711	310,582599	0
15.01.2021	21:13:04	0	0	4,519223	1,2075	286,2756	0,021	86,416	0	1017,4	6,7	8,7	8,7	1	1	1	1	1	1	1	1	1	0	1	-7,399577	273,896591	311,702455	0
15.01.2021	21:13:05	0	0	4,406268	1,22775	296,5176	0,018	86,428	0	1017,28	6,7	8,7	8,6	1	1	1	1	1	1	1	1	1	0	1	-7,82241	273,927626	311,424274	0
15.01.2021	21:13:06	0	0	4,51925	1,21875	309,366	0,012	86,41	0	1017,14	6,7	8,7	8,6	1	1	1	1	1	1	1	1	1	0	1	-7,681466	274,053757	312,153615	0
15.01.2021	21:13:07	0	0	3,728359	1,30425	296,0568	0,015	86,401	0	1017,18	6,7	8,7	8,7	1	1	1	1	1	1	1	1	1	0	1	-7,681466	274,024005	312,014749	0
15.01.2021	21:13:08	0	0	4,0673	1,35075	304,2144	0,023	86,428	0	1017,38	6,7	8,7	8,7	1	1	1	1	1	1	1	1	1	0	1	-7,329105	274,012117	312,311636	0
15.01.2021	21:13:09	0	0	3,841362	1,413	290,0088	0,02	86,416	0	1017,46	6,7	8,7	8,6	1	1	1	1	1	1	1	1	1	0	1	-6,272023	274,056734	313,576959	0
15.01.2021	21:13:10	0	0	3,050494	1,49025	289,9872	0,014	86,415	0	1017,32	6,7	8,7	8,6	1	1	1	1	1	1	1	1	1	0	1	-5,003524	273,920233	314,208694	0
15.01.2021	21:13:11	0	0	2,71155	1,5165	290,4372	0,02	86,422	0	1017,36	6,7	8,7	8,6	1	1	1	1	1	1	1	1	1	0	1	-6,483439	273,961674	312,921999	0
15.01.2021	21:13:12	0	0	3,6154	1,57575	299,4372	0,017	86,425	0	1017,32	6,7	8,7	8,6	1	1	1	1	1	1	1	1	1	0	1	-10,288936	274,06716	309,60872	0
15.01.2021	21:13:13	0	0	2,937512	1,623	294,7248	0,017	86,407	0	1017,34	6,7	8,7	8,6	1	1	1	1	1	1	1	1	1	0	1	-6,694856	273,926147	312,544934	0
15.01.2021	21:13:14	0	0	4,519223	1,62225	298,6128	0,015	86,423	0	1017,28	6,7	8,7	8,7	1	1	1	1	1	1	1	1	1	0	1	-3,875969	274,064181	316,007777	0
15.01.2021	21:13:15	0	0	4,067325	1,6575	294,8112	0,016	86,413	0	1017,3	6,7	8,7	8,6	1	1	1	1	1	1	1	1	1	0	1	-9,302326	274,034413	310,442463	0
15.01.2021	21:13:16	0	0	2,598569	1,65375	291,888	0,02	86,413	0	1017,28	6,7	8,7	8,6	1	1	1	1	1	1	1	1	1	0	1	-7,681466	273,892162	311,399925	0
15.01.2021	21:13:17	0	0	2,485587	1,671	291,8664	0,019	86,43	0	1017,26	6,7	8,7	8,6	1	1	1	1	1	1	1	1	1	0	1	-5,708245	273,87888	313,311255	0
15.01.2021	21:13:18	0	0	4,406268	1,7475	292,6116	0,017	86,439	0	1017,5	6,7	8,7	8,6	1	1	1	1	1	1	1	1	1	0	1	-4,721635	273,905453	314,421697	0
15.01.2021	21:13:19	0	0	3,050475	1,73025	289,6236	0,022	86,426	0	1017,38	6,6	8,7	8,7	1	1	1	1	1	1	1	1	1	0	1	-6,20155	273,908408	312,955554	0
15.01.2021	21:13:20	0	0	2,485587	1,68375	286,2936	0,018	86,424	0	1017,26	6,7	8,7	8,6	1	1	1	1	1	1	1	1	1	0	1	-4,933051	273,932064	314,334321	0
15.01.2021	21:13:21	0	0	3,502398	1,6245	295,5708	0,015	86,443	0	1017,28	6,7	8,7	8,7	1	1	1	1	1	1	1	1	1	0	1	-6,060606	273,92319	313,165396	0
15.01.2021	21:13:22	0	0	3,389437	1,563	301,6368	0,016	86,426	0	1017,28	6,7	8,7	8,6	1	1	1	1	1	1	1	1	1	0	1	-6,412967	273,905453	312,730366	0
15.01.2021	21:13:23	0	0	4,858193	1,49625	297,5328	0,021	86,433	0	1017,2	6,7	8,7	8,6	1	1	1	1	1	1	1	1	1	0	1	-7,470049	273,880355	311,556325	0
15.01.2021	21:13:24	0	0	4,180306	1,4595	298,6164	0,017	86,433	0	1017,26	6,7	8,7	8,6	1	1	1	1	1	1	1	1	1	0	1	-12,121212	273,95723	307,263499	0
15.01.2021	21:13:25	0	0	3,276456	1,41225	290,7648	0,017	86,438	0	1017,32	6,7	8,7	8,6	1	1	1	1	1	1	1	1	1	0	1	-4,792107	274,058223	315,063826	0
15.01.2021	21:13:26	0	0	4,293287	1,347	292,212	0,014	86,435	0	1017,4	6,7	8,7	8,6	1	1	1	1	1	1	1	1	1	0	1	-6,272023	273,958711	313,119597	0
15.01.2021	21:13:27	0	0	3,502419	1,3605	303,4296	0,012	86,439	0	1017,32	6,7	8,7	8,6	1	1	1	1	1	1	1	1	1	0	1	-8,033827	273,890686	311,040684	0
15.01.2021	21:13:28	0	0	3,050494	1,3455	309,5316	0,017	86,444	0	1017,26	6,7	8,7	8,6	1	1	1	1	1	1	1	1	1	0	1	-4,369274	273,960193	315,029254	0
15.01.2021	21:13:29	0	0	4,406242	1,3095	307,5984	0,015	86,44	0	1017,3	6,7	8,7	8,7	1	1	1	1	1	1	1	1	1	0	1	-7,470049	274,06865	312,434562	0
15.01.2021	21:13:30	0	0	3,954344	1,29375	317,7072	0,017	86,436	0	1017,36	6,7	8,7	8,6	1	1	1	1	1	1	1	1	1	0	1	-6,20155	273,932064	313,065822	0
15.01.2021	21:13:31	0	0	2,146644	1,2765	317,3724	0,013	86,439	0	1017,36	6,7	8,7	8,6	1	1	1	1	1	1	1	1	1	0	1	-8,174771	273,890686	310,89974	0
15.01.2021	21:13:32	0	0	3,6154	1,24575	313,5132	0,019	86,44	0	1017,34	6,7	8,7	8,6	1	1	1	1	1	1	1	1	1	0	1	-11,346018	274,015088	308,308587	0
15.01.2021	21:13:33	0	0	3,276436	1,20675	318,3912	0,021	86,447	0	1017,34	6,7	8,7	8,7	1	1	1	1	1	1	1	1	1	0	1	-8,386187	273,890686	310,688324	0
15.01.2021	21:13:34	0	0	3,050494	1,16175	323,2692	0,015	86,427	0	1017,26	6,7	8,7	8,6	1	1	1	1	1	1	1	1	1	0	1	-4,157858	273,929105	315,095722	0
15.01.2021	21:13:35	0	0	4,745212	1,164	314,0604	0,007	86,434	0	1017,26	6,7	8,7	8,6	1	1	1	1	1	1	1	1	1	0	1	-8,668076	273,899545	310,44772	0
15.01.2021	21:13:36	0	0	4,51925	1,128	317,4372	0,019	86,453	0	1017,38	6,7	8,7	8,6	1	1	1	1	1	1	1	1	1	0	1	-10,570825	274,049291	309,24341	0
15.01.2021	21:13:37	0	0	3,6154	1,116	327,7656	0,015	86,437	0	1017,14	6,7	8,7	8,6	1	1	1	1	1	1	1	1	1	0	1	-6,624383	273,946863	312,711989	0
15.01.2021	21:13:38	0	0	4,519223	1,0455	325,1268	0,013	86,438	0	1017,22	6,7	8,7	8,7	1	1	1	1	1	1	1	1	1	0	1	-4,792107	273,880355	314,234267	0
15.01.2021	21:13:39	0	0	4,51925	1,10925	312,8364	0,018	86,439	0	1017,32	6,7	8,7	8,6	1	1	1	1	1	1	1	1	1	0	1	-5,567301	274,028464	314,149727	0
15.01.2021	21:13:40	0	0	3,276456	1,13625	321,8796	0,016	86,436	0	1017,32	6,7	8,7	8,6	1	1	1	1	1	1	1	1	1	0	1	-6,483439	273,924668	312,749457	0
15.01.2021	21:13:41	0	0	4,632203	1,15725	324,4068	0,016	86,444	0	1017,2	6,7	8,7	8,7	1	1	1	1	1	1	1	1	1	0	1	-7,047216	274,047803	312,760071	0
15.01.2021	21:13:42	0	0	2,937512	1,1565	320,4576	0,017	86,446	0	1017,3	6,7	8,7	8,6	1	1	1	1	1	1	1	1	1	0	1	-6,412967	274,043338	313,373481	0
15.01.2021	21:13:43	0	0	4,51925	1,20525	334,2384	0,015	86,447	0	1017,44	6,7	8,7	8,6	1	1	1	1	1	1	1	1	1	0	1	-5,84919	273,887734	313,211565	0
15.01.2021	21:13:44	0	0	3,276456	1,26675	318,8952	0,014	86,436	0	1017,32	6,7	8,7	8,6	1	1	1	1	1	1	1	1	1	0	1	-8,597604	274,061202	311,272234	0
15.01.2021	21:13:45	0	0	4,51925	1,31025	336,3336	0,016	86,451	0	1017,3	6,7	8,7	8,6	1	1	1	1	1	1	1	1	1	0	1	-8,879493	274,043338	310,906956	0
15.01.2021	21:13:46	0	0	2,598569	1,347	328,1472	0,012	86,442	0	1017,32	6,7	8,7	8,6	1	1	1	1	1	1	1	1	1	0	1	-8,174771	274,012117	311,46597	0
15.01.2021	21:13:47	0	0	2,71155	1,3335	315,4716	0,009	86,432	0	1017,26	6,7	8,7	8,6	1	1	1	1	1	1	1	1	1	0	1	-7,610994	274,06865	312,293618	0
15.01.2021	21:13:48	0	0	4,971175	1,32	315,9108	0,014	86,435	0	1017,16	6,7	8,7	8,6	1	1	1	1	1	1	1	1	1	0	1	-7,963354	273,945383	311,366115	0
15.01.2021	21:13:49	0	0	4,180281	1,30275	318,762	0,015	86,45	0	1017,36	6,7	8,7	8,7	1	1	1	1	1	1	1	1	1	0	1	-7,329105	274,040363	312,443454	0
15.01.2021	21:13:50	0	0	4,067325	1,3275	313,1712	0,018	86,501	0	1017,24	6,7	8,7	8,6	1	1	1	1	1	1	1	1	1	0	1	-9,231853	273,930585	310,028622	0
15.01.2021	21:13:51	0	0	4,51925	1,389	317,7864	0,019	86,45	0	1017,3	6,7	8,7	8,6	1	1	1	1	1	1	1	1	1	0	1	-4,510218	273,906931	314,64	0
15.01.2021	21:13:52	0	0	3,050494	1,47075	311,3964	0,016	86,439	0	1017,34	6,7	8,7	8,6	1	1	1	1	1	1	1	1	1	0	1	-8,879493	273,884782	310,167508	0
15.01.2021	21:13:53	0	0	2,485587	1,5465	311,0904	0,016	86,444	0	1017,3	6,7	8,7	8,6	1	1	1	1	1	1	1	1	1	0	1	-12,755462	274,003205	306,843701	0
15.01.2021	21:13:54	0	0	3,163475	1,5915	300,8052	0,016	86,433	0	1017,2	6,7	8,7	8,6	1	1	1	1	1	1	1	1	1	0	1	-9,936575	273,905453	309,206757	0
15.01.2021	21:13:55	0	0	4,632231	1,548	302,04	0,016	86,44	0	1017,46	6,7	8,7	8,6	1	1	1	1	1	1	1	1	1	0	1	-5,426357	274,06567	314,464344	0
15.01.2021	21:13:56	0	0	4,858193	1,506	315,4788	0,014	86,443	0	1017,36	6,7	8,7	8,6	1	1	1	1	1	1	1	1	1	0	1	-5,990134	274,024005	313,706081	0
15.01.2021	21:13:57	0	0	3,615378	1,55775	312,1992	0,008	86,45	0	1017,24	6,7	8,7	8,7	1	1	1	1	1	1	1	1	1	0	1	-8,245243	274,059713	311,617642	0
15.01.2021	21:13:58	0	0	4,971175	1,52475	309,8952	0,012	86,44	0	1017,2	6,7	8,7	8,6	1	1	1	1	1	1	1	1	1	0	1	-7,963354	273,921711	311,255755	0
15.01.2021	21:13:59	0	0	3,050494	1,506	296,0712	0,012	86,442	0	1017,18	6,7	8,7	8,6	1	1	1	1	1	1	1	1	1	0	1	-8,033827	273,911364	311,137052	0
15.01.2021	21:14:00	0	0	4,067325	1,52475	317,3472	0,011	86,428	0	1017,28	6,7	8,7	8,6	1	1	1	1	1	1	1	1	1	0	1	-7,399577	274,016574	312,261961	0
15.01.2021	21:14:01	0	0	3,728381	1,491	308,898	0,016	86,451	0	1017,3	6,7	8,7	8,6	1	1	1	1	1	1	1	1	1	0	1	-6,8358	273,901022	312,286879	0
15.01.2021	21:14:02	0	0	5,084156	1,437	298,6524	0,014	86,446	0	1017,2	6,7	8,7	8,6	1	1	1	1	1	1	1	1	1	0	1	-9,302326	273,963156	310,110022	0
15.01.2021	21:14:03	0	0	4,745212	1,3905	311,4	0,011	86,455	0	1017,34	6,7	8,7	8,6	1	1	1	1	1	1	1	1	1	0	1	-7,82241	274,052268	312,005721	0
15.01.2021	21:14:04	0	0	4,51925	1,33425	319,1868	0,016	86,452	0	1017,34	6,7	8,7	8,6	1	1	1	1	1	1	1	1	1	0	1	-8,879493	273,937982	310,415472	0
15.01.2021	21:14:05	0	0	3,728381	1,257	313,2108	0,013	86,451	0	1017,36	6,7	8,7	8,6	1	1	1	1	1	1	1	1	1	0	1	-10,359408	273,890686	308,715103	0
15.01.2021	21:14:06	0	0	2,71155	1,248	294,8256	0,014	86,448	0	1017,42	6,7	8,7	8,6	1	1	1	1	1	1	1	1	1	0	1	-5,285412	274,015088	314,369193	0
15.01.2021	21:14:07	0	0	4,51925	1,2555	299,9196	0,014	86,444	0	1017,22	6,7	8,7	8,6	1	1	1	1	1	1	1	1	1	0	1	-5,144468	273,924668	314,088428	0
15.01.2021	21:14:08	0	0	1,8077	1,29825	302,832	0,016	86,47	0	1017,38	6,7	8,7	8,6	1	1	1	1	1	1	1	1	1	0	1	-8,386187	273,884782	310,660813	0
15.01.2021	21:14:09	0	0	3,050475	1,344	290,0412	0,011	86,438	0	1017,24	6,7	8,7	8,7	1	1	1	1	1	1	1	1	1	0	1	-9,513742	274,01806	310,15473	0
15.01.2021	21:14:10	0	0	3,728381	1,39875	305,7696	0,015	86,449	0	1017,42	6,7	8,7	8,6	1	1	1	1	1	1	1	1	1	0	1	-7,82241	273,940942	311,486355	0
15.01.2021	21:14:11	0	0	4,180306	1,39875	305,4024	0,017	86,456	0	1017,3	6,7	8,7	8,6	1	1	1	1	1	1	1	1	1	0	1	-6,342495	274,061202	313,527344	0
15.01.2021	21:14:12	0	0	2,146644	1,41075	305,0064	0,013	86,433	0	1017,46	6,7	8,7	8,6	1	1	1	1	1	1	1	1	1	0	1	-8,668076	273,930585	310,592399	0
15.01.2021	21:14:13	0	0	2,71155	1,437	295,5528	0,012	86,454	0	1017,32	6,7	8,7	8,6	1	1	1	1	1	1	1	1	1	0	1	-10,007047	273,899545	309,108749	0
15.01.2021	21:14:14	0	0	4,858164	1,41825	303,5196	0,012	86,463	0	1017,38	6,7	8,7	8,7	1	1	1	1	1	1	1	1	1	0	1	-9,936575	274,025491	309,766577	0
15.01.2021	21:14:15	0	0	4,858193	1,38225	303,5592	0,01	86,466	0	1017,4	6,7	8,7	8,6	1	1	1	1	1	1	1	1	1	0	1	-10,077519	274,043338	309,708929	0
15.01.2021	21:14:16	0	0	2,824531	1,3635	296,8092	0,011	86,465	0	1017,3	6,7	8,7	8,6	1	1	1	1	1	1	1	1	1	0	1	-10,500352	274,053757	309,334729	0
15.01.2021	21:14:17	0	0	2,598569	1,34925	292,9104	0,012	86,463	0	1017,34	6,7	8,7	8,6	1	1	1	1	1	1	1	1	1	0	1	-11,768851	273,994298	307,788756	0
15.01.2021	21:14:18	0	0	2,598553	1,31175	300,51	0,016	86,447	0	1017,38	6,7	8,7	8,7	1	1	1	1	1	1	1	1	1	0	1	-9,866103	273,886258	309,187774	0
15.01.2021	21:14:19	0	0	3,050494	1,266	304,6824	0,01	86,465	0	1017,3	6,7	8,7	8,6	1	1	1	1	1	1	1	1	1	0	1	-6,20155	273,949825	313,14863	0
15.01.2021	21:14:20	0	0	3,6154	1,25025	291,456	0,008	86,457	0	1017,26	6,7	8,7	8,6	1	1	1	1	1	1	1	1	1	0	1	-7,329105	274,056734	312,519877	0
15.01.2021	21:14:21	0	0	3,276436	1,212	301,5612	0,014	86,465	0	1017,26	6,7	8,7	8,7	1	1	1	1	1	1	1	1	1	0	1	-9,584214	274,029951	310,139753	0
15.01.2021	21:14:22	0	0	3,6154	1,3275	293,2956	0,006	86,456	0	1017,22	6,6	8,7	8,6	1	1	1	1	1	1	1	1	1	0	1	-12,05074	274,021032	307,631602	0
15.01.2021	21:14:23	0	0	4,406268	1,47	302,058	0,014	86,478	0	1017,16	6,7	8,7	8,6	1	1	1	1	1	1	1	1	1	0	1	-10,923185	274,077591	309,023176	0
15.01.2021	21:14:24	0	0	3,389437	1,5015	309,1896	0,018	86,473	0	1017,44	6,6	8,7	8,6	1	1	1	1	1	1	1	1	1	0	1	-11,839323	274,013602	307,808349	0
15.01.2021	21:14:25	0	0	4,51925	1,4625	305,3016	0,013	86,485	0	1017,24	6,7	8,7	8,6	1	1	1	1	1	1	1	1	1	0	1	-3,171247	274,083555	316,80296	0
15.01.2021	21:14:26	0	0	2,937495	1,3845	308,88	0,012	86,472	0	1017,16	6,7	8,7	8,7	1	1	1	1	1	1	1	1	1	0	1	-8,174771	273,949825	311,17541	0
15.01.2021	21:14:27	0	0	4,180281	1,30275	317,0268	0,014	86,485	0	1017,46	6,7	8,7	8,7	1	1	1	1	1	1	1	1	1	0	1	-9,161381	274,053757	310,6737	0
15.01.2021	21:14:28	0	0	2,824531	1,25925	315,9108	0,01	86,483	0	1017,34	6,7	8,7	8,6	1	1	1	1	1	1	1	1	1	0	1	-5,285412	273,951305	314,071673	0
15.01.2021	21:14:29	0	0	4,180306	1,22175	313,2036	0,011	86,476	0	1017,38	6,6	8,7	8,6	1	1	1	1	1	1	1	1	1	0	1	-11,134602	274,055245	308,707429	0
15.01.2021	21:14:30	0	0	3,954344	1,20075	311,6664	0,013	86,476	0	1017,28	6,7	8,7	8,6	1	1	1	1	1	1	1	1	1	0	1	-8,668076	273,986879	310,85492	0
15.01.2021	21:14:31	0	0	4,406268	1,24575	301,626	0,011	86,485	0	1017,32	6,7	8,7	8,6	1	1	1	1	1	1	1	1	1	0	1	-12,614517	273,906931	306,535701	0
15.01.2021	21:14:32	0	0	4,632231	1,26675	317,7828	0,016	86,488	0	1017,36	6,6	8,7	8,6	1	1	1	1	1	1	1	1	1	0	1	-5,144468	273,896591	313,957564	0
15.01.2021	21:14:33	0	0	3,502419	1,275	316,9188	0,012	86,465	0	1017,24	6,7	8,7	8,6	1	1	1	1	1	1	1	1	1	0	1	-8,104299	274,006175	311,50872	0
15.01.2021	21:14:34	0	0	3,163475	1,25775	283,5684	0,017	86,487	0	1017,44	6,6	8,7	8,6	1	1	1	1	1	1	1	1	1	0	1	-6,553911	273,887734	312,506843	0
15.01.2021	21:14:35	0	0	3,954344	1,23825	297,6588	0,009	86,478	0	1017,3	6,7	8,7	8,6	1	1	1	1	1	1	1	1	1	0	1	-6,272023	274,00469	313,334068	0
15.01.2021	21:14:36	0	0	4,067325	1,20075	297,1836	0,014	86,477	0	1017,4	6,7	8,7	8,6	1	1	1	1	1	1	1	1	1	0	1	-12,544045	274,047803	307,263242	0
15.01.2021	21:14:37	0	0	2,598569	1,161	298,3608	0,007	86,478	0	1017,32	6,6	8,7	8,6	1	1	1	1	1	1	1	1	1	0	1	-9,584214	273,924668	309,648682	0
15.01.2021	21:14:38	0	0	4,51925	1,14075	310,644	0,009	86,489	0	1017,3	6,6	8,7	8,6	1	1	1	1	1	1	1	1	1	0	1	-8,033827	274,07014	311,877742	0
15.01.2021	21:14:39	0	0	2,937512	1,128	295,5996	0,006	86,473	0	1017,36	6,7	8,7	8,6	1	1	1	1	1	1	1	1	1	0	1	-7,399577	273,933543	311,874692	0
15.01.2021	21:14:40	0	0	4,745212	1,13925	289,1628	0,013	86,468	0	1017,4	6,7	8,7	8,6	1	1	1	1	1	1	1	1	1	0	1	-7,470049	274,06567	312,420651	0
15.01.2021	21:14:41	0	0	4,51925	1,19175	300,3696	0,013	86,493	0	1017,12	6,6	8,7	8,6	1	1	1	1	1	1	1	1	1	0	1	-5,778717	273,958711	313,612902	0
15.01.2021	21:14:42	0	0	4,858164	1,1775	297,162	0,01	86,476	0	1017,18	6,7	8,7	8,7	1	1	1	1	1	1	1	1	1	0	1	-4,439746	273,929105	314,813833	0
15.01.2021	21:14:43	0	0	4,971145	1,19925	289,5624	0,014	86,495	0	1017,34	6,6	8,7	8,7	1	1	1	1	1	1	1	1	1	0	1	-7,82241	274,06716	312,075246	0
15.01.2021	21:14:44	0	0	2,937512	1,18125	290,4444	0,011	86,484	0	1017,28	6,7	8,7	8,6	1	1	1	1	1	1	1	1	1	0	1	-10,993658	273,935023	308,28751	0
15.01.2021	21:14:45	0	0	2,259625	1,164	282,1176	0,014	86,49	0	1017,44	6,7	8,7	8,6	1	1	1	1	1	1	1	1	1	0	1	-9,020437	273,874454	309,978444	0
15.01.2021	21:14:46	0	0	4,745212	1,19025	287,73	0,009	86,481	0	1017,2	6,7	8,7	8,6	1	1	1	1	1	1	1	1	1	0	1	-8,668076	273,955749	310,709728	0
15.01.2021	21:14:47	0	0	2,71155	1,18275	294,3972	0,007	86,503	0	1017,36	6,7	8,7	8,6	1	1	1	1	1	1	1	1	1	0	1	-9,513742	273,883306	309,526382	0
15.01.2021	21:14:48	0	0	2,485587	1,149	307,5408	0,016	86,492	0	1017,18	6,7	8,7	8,6	1	1	1	1	1	1	1	1	1	0	1	-5,144468	273,884782	313,902533	0
15.01.2021	21:14:49	0	0	4,632231	1,1325	310,1904	0,012	86,497	0	1017,3	6,7	8,7	8,6	1	1	1	1	1	1	1	1	1	0	1	-12,966878	273,936503	306,321187	0
15.01.2021	21:14:50	0	0	2,824531	1,14525	298,6452	0,013	86,498	0	1017,36	6,6	8,7	8,6	1	1	1	1	1	1	1	1	1	0	1	-5,990134	274,064181	313,893612	0
15.01.2021	21:14:51	0	0	3,6154	1,0995	299,0124	0,014	86,492	0	1017,34	6,7	8,7	8,6	1	1	1	1	1	1	1	1	1	0	1	-8,597604	273,980945	310,897714	0
15.01.2021	21:14:52	0	0	4,745212	1,09275	302,7924	0,013	86,488	0	1017,16	6,6	8,7	8,6	1	1	1	1	1	1	1	1	1	0	1	-3,312192	274,058223	316,543742	0
15.01.2021	21:14:53	0	0	2,824531	1,08525	307,5804	0,016	86,488	0	1017,2	6,7	8,7	8,6	1	1	1	1	1	1	1	1	1	0	1	-8,033827	273,929105	311,219753	0
15.01.2021	21:14:54	0	0	3,050494	1,0695	306,0432	0,012	86,487	0	1017,38	6,7	8,7	8,6	1	1	1	1	1	1	1	1	1	0	1	-6,624383	274,049291	313,189851	0
15.01.2021	21:14:55	0	0	2,824514	1,10475	290,358	0,018	86,489	0	1017,4	6,7	8,7	8,7	1	1	1	1	1	1	1	1	1	0	1	-8,45666	273,920233	310,755558	0
15.01.2021	21:14:56	0	0	2,71155	1,18875	285,192	0,017	86,499	0	1017,32	6,7	8,7	8,6	1	1	1	1	1	1	1	1	1	0	1	-10,007047	273,933543	309,267222	0
15.01.2021	21:14:57	0	0	3,163475	1,17675	297,1584	0,015	86,496	0	1017,48	6,7	8,7	8,6	1	1	1	1	1	1	1	1	1	0	1	-14,940099	273,87888	304,079401	0
15.01.2021	21:14:58	0	0	3,6154	1,125	293,3892	0,01	86,478	0	1017,54	6,7	8,7	8,6	1	1	1	1	1	1	1	1	1	0	1	-10,007047	273,964638	309,412211	0
15.01.2021	21:14:59	0	0	3,502419	1,1685	289,1484	0,011	86,496	0	1017,4	6,7	8,7	8,6	1	1	1	1	1	1	1	1	1	0	1	-12,684989	273,875929	306,320764	0
15.01.2021	21:15:00	0	0	3,502419	1,19625	309,2148	0,008	86,488	0	1017,22	6,7	8,7	8,6	1	1	1	1	1	1	1	1	1	0	1	-8,949965	274,01806	310,718508	0
15.01.2021	21:15:01	0	0	4,632231	1,28175	297,8532	0,012	86,487	0	1017,42	6,6	8,7	8,6	1	1	1	1	1	1	1	1	1	0	1	-8,879493	274,044826	310,913901	0
15.01.2021	21:15:02	0	0	2,937512	1,28025	299,3868	0,014	86,485	0	1017,36	6,7	8,7	8,6	1	1	1	1	1	1	1	1	1	0	1	-8,668076	273,920233	310,544142	0
15.01.2021	21:15:03	0	0	4,406268	1,23225	310,9716	0,014	86,482	0	1017,46	6,7	8,7	8,6	1	1	1	1	1	1	1	1	1	0	1	-8,45666	274,024005	311,239555	0
15.01.2021	21:15:04	0	0	4,293287	1,35075	294,7644	0,014	86,488	0	1017,42	6,7	8,7	8,6	1	1	1	1	1	1	1	1	1	0	1	-8,315715	273,96612	311,110454	0
15.01.2021	21:15:05	0	0	2,71155	1,50375	289,6956	0,014	86,486	0	1017,32	6,7	8,7	8,6	1	1	1	1	1	1	1	1	1	0	1	-6,342495	273,883306	312,69763	0
15.01.2021	21:15:06	0	0	2,824531	1,5555	282,4812	0,013	86,492	0	1017,32	6,6	8,7	8,6	1	1	1	1	1	1	1	1	1	0	1	-7,963354	273,924668	311,269541	0
15.01.2021	21:15:07	0	0	3,728381	1,629	279,4752	0,012	86,48	0	1017,34	6,6	8,7	8,6	1	1	1	1	1	1	1	1	1	0	1	-7,258633	273,91432	311,926023	0
15.01.2021	21:15:08	0	0	4,406268	1,7385	289,5876	0,017	86,487	0	1017,44	6,7	8,7	8,6	1	1	1	1	1	1	1	1	1	0	1	-8,386187	273,872979	310,605822	0
15.01.2021	21:15:09	0	0	4,293287	1,75725	279,2412	0,014	86,482	0	1017,26	6,6	8,7	8,6	1	1	1	1	1	1	1	1	1	0	1	-7,188161	273,945383	312,141309	0
15.01.2021	21:15:10	0	0	4,51925	1,695	281,7504	0,006	86,483	0	1017,42	6,7	8,7	8,6	1	1	1	1	1	1	1	1	1	0	1	-10,570825	273,877405	308,441802	0
15.01.2021	21:15:11	0	0	3,728381	1,73475	293,3748	0,011	86,467	0	1017,52	6,7	8,7	8,6	1	1	1	1	1	1	1	1	1	0	1	-9,513742	273,906931	309,636476	0
15.01.2021	21:15:12	0	0	2,824531	1,743	290,4408	0,007	86,481	0	1017,22	6,6	8,7	8,6	1	1	1	1	1	1	1	1	1	0	1	-10,923185	274,01806	308,745287	0
15.01.2021	21:15:13	0	0	4,406268	1,6395	293,6088	0,015	86,478	0	1017,34	6,7	8,7	8,6	1	1	1	1	1	1	1	1	1	0	1	-9,161381	273,898068	309,947533	0
15.01.2021	21:15:14	0	0	4,971175	1,6155	301,2156	0,009	86,471	0	1017,08	6,7	8,7	8,6	1	1	1	1	1	1	1	1	1	0	1	-9,161381	274,01806	310,507091	0
15.01.2021	21:15:15	0	0	2,485587	1,6365	295,1136	0,013	86,474	0	1017,36	6,7	8,7	8,6	1	1	1	1	1	1	1	1	1	0	1	-6,20155	274,053757	313,633531	0
15.01.2021	21:15:16	0	0	2,71155	1,6335	301,662	0,015	86,479	0	1017,42	6,7	8,7	8,6	1	1	1	1	1	1	1	1	1	0	1	-10,923185	274,00469	308,682905	0
15.01.2021	21:15:17	0	0	3,276456	1,6275	296,406	0,011	86,469	0	1017,3	6,7	8,7	8,6	1	1	1	1	1	1	1	1	1	0	1	-5,496829	273,88921	313,570804	0
15.01.2021	21:15:18	0	0	5,084156	1,6785	295,1532	0,011	86,465	0	1017,38	6,7	8,7	8,6	1	1	1	1	1	1	1	1	1	0	1	-12,403101	273,952786	306,96089	0
15.01.2021	21:15:19	0	0	3,050494	1,689	303,48	0,01	86,475	0	1017,34	6,6	8,7	8,6	1	1	1	1	1	1	1	1	1	0	1	-5,778717	273,871505	313,206421	0
15.01.2021	21:15:20	0	0	4,51925	1,7115	300,9024	0,016	86,482	0	1017,36	6,6	8,7	8,6	1	1	1	1	1	1	1	1	1	0	1	-10,007047	273,933543	309,267222	0
15.01.2021	21:15:21	0	0	4,067325	1,67775	302,0796	0,008	86,47	0	1017,34	6,7	8,7	8,6	1	1	1	1	1	1	1	1	1	0	1	-7,117689	273,88921	311,949944	0
15.01.2021	21:15:22	0	0	3,050494	1,6725	301,5576	0,01	86,471	0	1017,22	6,7	8,7	8,6	1	1	1	1	1	1	1	1	1	0	1	-5,355884	273,920233	313,856333	0
15.01.2021	21:15:23	0	0	2,71155	1,581	300,8808	0,013	86,484	0	1017,42	6,7	8,7	8,6	1	1	1	1	1	1	1	1	1	0	1	-11,205074	273,933543	308,069195	0
15.01.2021	21:15:24	0	0	3,276456	1,51575	301,2624	0,011	86,483	0	1017,38	6,7	8,7	8,6	1	1	1	1	1	1	1	1	1	0	1	-7,540521	274,044826	312,252872	0
15.01.2021	21:15:25	0	0	3,389437	1,4265	300,8808	0,013	86,47	0	1017,4	6,7	8,7	8,6	1	1	1	1	1	1	1	1	1	0	1	-6,20155	274,00469	313,40454	0
15.01.2021	21:15:26	0	0	3,841362	1,41375	300,4992	0,013	86,472	0	1017,36	6,7	8,7	8,6	1	1	1	1	1	1	1	1	1	0	1	-6,131078	273,930585	313,129397	0
15.01.2021	21:15:27	0	0	3,502419	1,488	304,5384	0,016	86,484	0	1017,34	6,7	8,7	8,6	1	1	1	1	1	1	1	1	1	0	1	-10,147992	274,06567	309,742709	0
15.01.2021	21:15:28	0	0	3,6154	1,5885	303,534	0,018	86,474	0	1017,38	6,7	8,7	8,6	1	1	1	1	1	1	1	1	1	0	1	-6,483439	273,954267	312,887458	0
15.01.2021	21:15:29	0	0	3,6154	1,67925	306,468	0,007	86,468	0	1017,38	6,7	8,7	8,6	1	1	1	1	1	1	1	1	1	0	1	-11,627907	273,874454	307,370974	0
15.01.2021	21:15:30	0	0	3,276456	1,68375	300,492	0,013	86,469	0	1017,38	6,6	8,7	8,6	1	1	1	1	1	1	1	1	1	0	1	-7,892882	274,028464	311,824146	0
15.01.2021	21:15:31	0	0	4,745212	1,71975	289,602	0,011	86,495	0	1017,28	6,7	8,7	8,6	1	1	1	1	1	1	1	1	1	0	1	-8,80902	273,967602	310,624061	0
15.01.2021	21:15:32	0	0	4,745212	1,62975	300,4524	0,012	86,49	0	1017,26	6,7	8,7	8,6	1	1	1	1	1	1	1	1	1	0	1	-10,923185	274,01806	308,745287	0
15.01.2021	21:15:33	0	0	4,745212	1,701	301,248	0,011	86,479	0	1017,26	6,7	8,7	8,6	1	1	1	1	1	1	1	1	1	0	1	-10,570825	274,015088	309,083781	0
15.01.2021	21:15:34	0	0	4,971175	1,78575	306,108	0,01	86,49	0	1017,38	6,7	8,7	8,6	1	1	1	1	1	1	1	1	1	0	1	-10,147992	274,061202	309,721847	0
15.01.2021	21:15:35	0	0	4,406268	1,87125	298,674	0,015	86,474	0	1017,08	6,7	8,7	8,6	1	1	1	1	1	1	1	1	1	0	1	-7,188161	274,047803	312,619126	0
15.01.2021	21:15:36	0	0	4,745212	1,932	302,814	0,01	86,482	0	1017,36	6,7	8,7	8,6	1	1	1	1	1	1	1	1	1	0	1	-8,80902	273,930585	310,451455	0
15.01.2021	21:15:37	0	0	2,824531	2,025	288,864	0,012	86,492	0	1017,38	6,6	8,7	8,6	1	1	1	1	1	1	1	1	1	0	1	-8,245243	273,912842	310,932524	0
15.01.2021	21:15:38	0	0	4,293287	2,136	290,1456	0,008	86,49	0	1017,38	6,7	8,7	8,6	1	1	1	1	1	1	1	1	1	0	1	-8,527132	274,061202	311,342707	0
15.01.2021	21:15:39	0	0	4,51925	2,03325	292,1544	0,008	86,477	0	1017,22	6,6	8,7	8,6	1	1	1	1	1	1	1	1	1	0	1	-8,80902	274,000236	310,776288	0
15.01.2021	21:15:40	0	0	4,406268	2,055	290,4156	0,01	86,494	0	1017,34	6,7	8,7	8,6	1	1	1	1	1	1	1	1	1	0	1	-7,047216	273,890686	312,027295	0
15.01.2021	21:15:41	0	0	3,6154	2,0025	293,7996	0,01	86,485	0	1017,34	6,7	8,7	8,6	1	1	1	1	1	1	1	1	1	0	1	-6,906272	274,016574	312,755266	0
15.01.2021	21:15:42	0	0	4,745212	2,06775	290,4264	0,006	86,471	0	1017,28	6,6	8,7	8,6	1	1	1	1	1	1	1	1	1	0	1	-7,892882	273,87888	311,126618	0
15.01.2021	21:15:43	0	0	4,51925	2,085	287,3772	0,01	86,488	0	1017,42	6,7	8,7	8,6	1	1	1	1	1	1	1	1	1	0	1	-10,711769	273,961674	308,693669	0
15.01.2021	21:15:44	0	0	3,389437	2,05725	281,7684	0,011	86,485	0	1017,48	6,6	8,7	8,6	1	1	1	1	1	1	1	1	1	0	1	-6,20155	273,874454	312,797331	0
15.01.2021	21:15:45	0	0	3,276436	2,0595	280,6344	0,007	86,487	0	1017,32	6,6	8,7	8,7	1	1	1	1	1	1	1	1	1	0	1	-8,949965	273,986879	310,573031	0
15.01.2021	21:15:46	0	0	4,745212	2,04525	283,2516	0,01	86,503	0	1017,3	6,6	8,7	8,6	1	1	1	1	1	1	1	1	1	0	1	-5,778717	273,880355	313,247657	0
15.01.2021	21:15:47	0	0	4,632231	2,2155	285,48	0,004	86,494	0	1017,24	6,6	8,7	8,6	1	1	1	1	1	1	1	1	1	0	1	-6,342495	274,043338	313,443954	0
15.01.2021	21:15:48	0	0	3,276456	2,31075	296,9172	0,012	86,491	0	1017,34	6,7	8,7	8,6	1	1	1	1	1	1	1	1	1	0	1	-12,684989	273,964638	306,734269	0
15.01.2021	21:15:49	0	0	4,293287	2,28225	299,4516	0,006	86,496	0	1017,36	6,6	8,7	8,6	1	1	1	1	1	1	1	1	1	0	1	-9,725159	273,887734	309,335596	0
15.01.2021	21:15:50	0	0	4,51925	2,17575	304,686	0,013	86,489	0	1017,22	6,6	8,7	8,6	1	1	1	1	1	1	1	1	1	0	1	-4,933051	273,887734	314,127703	0
15.01.2021	21:15:51	0	0	3,502419	2,09325	302,4756	0,009	86,498	0	1017,4	6,7	8,7	8,6	1	1	1	1	1	1	1	1	1	0	1	-6,131078	273,997267	313,440378	0
15.01.2021	21:15:52	0	0	2,711534	2,0535	285,2532	0,012	86,512	0	1017,42	6,6	8,7	8,7	1	1	1	1	1	1	1	1	1	0	1	-8,315715	274,052268	311,512416	0
15.01.2021	21:15:53	0	0	2,824531	2,00625	282,132	0,01	86,515	0	1017,38	6,7	8,7	8,6	1	1	1	1	1	1	1	1	1	0	1	-9,725159	273,921711	309,493951	0
15.01.2021	21:15:54	0	0	3,050494	2,06925	282,0996	0,012	86,509	0	1017,34	6,7	8,7	8,6	1	1	1	1	1	1	1	1	1	0	1	-9,513742	273,989846	310,023096	0
15.01.2021	21:15:55	0	0	4,293287	2,0865	287,7588	0,014	86,504	0	1017,32	6,7	8,7	8,6	1	1	1	1	1	1	1	1	1	0	1	-5,496829	274,06567	314,393872	0
15.01.2021	21:15:56	0	0	4,51925	1,97475	294,3756	0,008	86,5	0	1017,26	6,7	8,7	8,6	1	1	1	1	1	1	1	1	1	0	1	-7,681466	274,001721	311,910769	0
15.01.2021	21:15:57	0	0	2,485587	1,94925	303,228	0,018	86,51	0	1017,4	6,7	8,7	8,6	1	1	1	1	1	1	1	1	1	0	1	-12,473573	273,87003	306,504696	0
15.01.2021	21:15:58	0	0	4,293287	2,01675	302,4684	0,009	86,497	0	1017,3	6,6	8,7	8,6	1	1	1	1	1	1	1	1	1	0	1	-9,44327	273,952786	309,920721	0
15.01.2021	21:15:59	0	0	4,632231	2,0625	305,0532	0,01	86,515	0	1017,42	6,7	8,7	8,6	1	1	1	1	1	1	1	1	1	0	1	-9,513742	274,06567	310,376958	0
15.01.2021	21:16:00	0	0	2,598569	2,02275	291,1644	0,011	86,522	0	1017,42	6,7	8,7	8,6	1	1	1	1	1	1	1	1	1	0	1	-9,936575	273,994298	309,621032	0
15.01.2021	21:16:01	0	0	4,067325	1,93725	286,7328	0,007	86,515	0	1017,48	6,7	8,7	8,6	1	1	1	1	1	1	1	1	1	0	1	-7,681466	274,046314	312,118874	0
15.01.2021	21:16:02	0	0	4,971175	1,9425	303,1704	0,01	86,514	0	1017,22	6,7	8,7	8,6	1	1	1	1	1	1	1	1	1	0	1	-7,117689	274,043338	312,66876	0
15.01.2021	21:16:03	0	0	5,310087	2,169	298,2744	0,012	86,513	0	1017,44	6,6	8,7	8,7	1	1	1	1	1	1	1	1	1	0	1	-10,570825	274,00766	309,049124	0
15.01.2021	21:16:04	0	0	4,632231	2,3295	302,0796	0,015	86,529	0	1017,36	6,6	8,7	8,6	1	1	1	1	1	1	1	1	1	0	1	-7,681466	274,07312	312,244018	0
15.01.2021	21:16:05	0	0	5,649062	2,4285	302,4432	0,005	86,51	0	1017,42	6,6	8,7	8,6	1	1	1	1	1	1	1	1	1	0	1	-10,500352	274,003205	309,09881	0
15.01.2021	21:16:06	0	0	4,51925	2,51475	329,6196	0,018	86,52	0	1017,46	6,7	8,7	8,6	1	1	1	1	1	1	1	1	1	0	1	-10,42988	274,06865	309,474732	0
15.01.2021	21:16:07	0	0	3,050494	2,47575	322,5672	0,011	86,507	0	1017,26	6,7	8,7	8,6	1	1	1	1	1	1	1	1	1	0	1	-8,527132	273,890686	310,547379	0
15.01.2021	21:16:08	0	0	2,598569	2,40225	307,2276	0,01	86,522	0	1017,18	6,7	8,7	8,6	1	1	1	1	1	1	1	1	1	0	1	-7,188161	273,915798	312,003385	0
15.01.2021	21:16:09	0	0	4,51925	2,32875	314,4276	0,012	86,531	0	1017,28	6,7	8,7	8,6	1	1	1	1	1	1	1	1	1	0	1	-5,637773	274,058223	314,21816	0
15.01.2021	21:16:10	0	0	4,632231	2,45025	292,6224	0,012	86,531	0	1017,28	6,7	8,7	8,6	1	1	1	1	1	1	1	1	1	0	1	-10,007047	273,976497	309,46752	0
15.01.2021	21:16:11	0	0	3,841362	2,7345	309,6	0,011	86,531	0	1017,38	6,7	8,7	8,6	1	1	1	1	1	1	1	1	1	0	1	-9,44327	273,884782	309,603731	0
15.01.2021	21:16:12	0	0	3,502419	2,81025	309,9204	0,007	86,524	0	1017,3	6,6	8,7	8,6	1	1	1	1	1	1	1	1	1	0	1	-9,161381	273,927626	310,085303	0
15.01.2021	21:16:13	0	0	2,146644	2,65275	289,1592	0,007	86,527	0	1017,38	6,7	8,7	8,6	1	1	1	1	1	1	1	1	1	0	1	-10,993658	273,880355	308,032717	0
15.01.2021	21:16:14	0	0	2,824531	2,6055	288,1332	0,014	86,523	0	1017,34	6,6	8,7	8,6	1	1	1	1	1	1	1	1	1	0	1	-8,668076	274,000236	310,917232	0
15.01.2021	21:16:15	0	0	4,293287	2,54175	303,57	0,014	86,514	0	1017,18	6,6	8,7	8,6	1	1	1	1	1	1	1	1	1	0	1	-9,795631	274,00766	309,824318	0
15.01.2021	21:16:16	0	0	4,51925	2,47425	294,4188	0,017	86,544	0	1017,5	6,7	8,7	8,6	1	1	1	1	1	1	1	1	1	0	1	-6,976744	274,06865	312,927868	0
15.01.2021	21:16:17	0	0	4,067325	2,45325	293,3712	0,004	86,52	0	1017,28	6,7	8,7	8,6	1	1	1	1	1	1	1	1	1	0	1	-8,668076	273,958711	310,723543	0
15.01.2021	21:16:18	0	0	4,745212	2,48625	300,8844	0,015	86,534	0	1017,42	6,7	8,7	8,6	1	1	1	1	1	1	1	1	1	0	1	-7,047216	274,064181	312,836529	0
15.01.2021	21:16:19	0	0	3,276456	2,7375	293,346	0,012	86,526	0	1017,34	6,7	8,7	8,6	1	1	1	1	1	1	1	1	1	0	1	-9,513742	274,000236	310,071566	0
15.01.2021	21:16:20	0	0	4,519277	2,907	298,6668	0,011	86,532	0	1017,32	6,7	8,7	8,5	1	1	1	1	1	1	1	1	1	0	1	-11,41649	273,881831	307,616758	0
15.01.2021	21:16:21	0	0	2,824531	2,86425	299,7612	0,014	86,516	0	1017,1	6,7	8,7	8,6	1	1	1	1	1	1	1	1	1	0	1	-6,060606	273,936503	313,227459	0
15.01.2021	21:16:22	0	0	4,067325	2,697	292,9932	0,014	86,526	0	1017,34	6,7	8,7	8,6	1	1	1	1	1	1	1	1	1	0	1	-7,540521	273,881831	311,492727	0
15.01.2021	21:16:23	0	0	2,824531	2,559	300,8304	0,011	86,535	0	1017,4	6,7	8,7	8,6	1	1	1	1	1	1	1	1	1	0	1	-10,782241	273,905453	308,361091	0
15.01.2021	21:16:24	0	0	4,51925	2,457	307,1664	0,015	86,523	0	1017,26	6,6	8,7	8,6	1	1	1	1	1	1	1	1	1	0	1	-9,654686	274,000236	309,930622	0
15.01.2021	21:16:25	0	0	2,598569	2,42325	300,1428	0,015	86,535	0	1017,28	6,7	8,7	8,6	1	1	1	1	1	1	1	1	1	0	1	-12,262156	274,059713	307,600729	0
15.01.2021	21:16:26	0	0	2,598569	2,3205	307,5552	0,012	86,534	0	1017,34	6,6	8,7	8,6	1	1	1	1	1	1	1	1	1	0	1	-13,178295	273,935023	306,102872	0
15.01.2021	21:16:27	0	0	2,598569	2,29725	302,5224	0,014	86,52	0	1017,34	6,7	8,7	8,6	1	1	1	1	1	1	1	1	1	0	1	-7,82241	274,07014	312,089158	0
15.01.2021	21:16:28	0	0	2,937512	2,2665	299,0592	0,012	86,527	0	1017,3	6,7	8,7	8,6	1	1	1	1	1	1	1	1	1	0	1	-6,342495	273,988363	313,187422	0
15.01.2021	21:16:29	0	0	2,824531	2,34375	307,1412	0,017	86,534	0	1017,42	6,7	8,7	8,6	1	1	1	1	1	1	1	1	1	0	1	-10,923185	273,87888	308,096315	0
15.01.2021	21:16:30	0	0	2,937512	2,3235	300,798	0,011	86,531	0	1017,24	6,7	8,7	8,6	1	1	1	1	1	1	1	1	1	0	1	-4,510218	273,935023	314,770949	0
15.01.2021	21:16:31	0	0	4,745212	2,2665	306,8388	0,012	86,539	0	1017,42	6,7	8,7	8,6	1	1	1	1	1	1	1	1	1	0	1	-7,470049	274,046314	312,330291	0
15.01.2021	21:16:32	0	0	4,406268	2,11275	319,1472	0,015	86,528	0	1017,36	6,7	8,7	8,6	1	1	1	1	1	1	1	1	1	0	1	-11,205074	274,015088	308,449531	0
15.01.2021	21:16:33	0	0	2,937512	2,05275	303,5268	0,014	86,524	0	1017,32	6,7	8,7	8,6	1	1	1	1	1	1	1	1	1	0	1	-6,412967	273,932064	312,854405	0
15.01.2021	21:16:34	0	0	2,937512	2,0085	318,7512	0,009	86,529	0	1017,34	6,7	8,7	8,6	1	1	1	1	1	1	1	1	1	0	1	-8,45666	273,871505	310,528479	0
15.01.2021	21:16:35	0	0	3,6154	2,01225	305,73	0,012	86,521	0	1017,42	6,7	8,7	8,6	1	1	1	1	1	1	1	1	1	0	1	-7,82241	274,01806	311,846062	0
15.01.2021	21:16:36	0	0	2,71155	2,05275	300,834	0,01	86,528	0	1017,38	6,6	8,7	8,6	1	1	1	1	1	1	1	1	1	0	1	-5,84919	274,038875	313,916426	0
15.01.2021	21:16:37	0	0	2,598553	2,00325	305,37	0,009	86,545	0	1017,26	6,6	8,7	8,7	1	1	1	1	1	1	1	1	1	0	1	-7,681466	273,908408	311,475639	0
15.01.2021	21:16:38	0	0	2,71155	1,9875	300,8196	0,011	86,554	0	1017,22	6,7	8,7	8,6	1	1	1	1	1	1	1	1	1	0	1	-10,641297	273,912842	308,53647	0
15.01.2021	21:16:39	0	0	3,841362	1,96275	308,0448	0,009	86,527	0	1017,2	6,7	8,7	8,6	1	1	1	1	1	1	1	1	1	0	1	-5,567301	274,058223	314,288633	0
15.01.2021	21:16:40	0	0	4,180306	1,93425	309,1428	0,008	86,533	0	1017,3	6,7	8,7	8,6	1	1	1	1	1	1	1	1	1	0	1	-8,45666	273,960193	310,941869	0
15.01.2021	21:16:41	0	0	2,937512	1,85925	318,0816	0,005	86,539	0	1017,4	6,7	8,7	8,6	1	1	1	1	1	1	1	1	1	0	1	-8,879493	274,062691	310,997299	0
15.01.2021	21:16:42	0	0	2,485587	1,85475	312,7428	0,009	86,539	0	1017,42	6,7	8,7	8,6	1	1	1	1	1	1	1	1	1	0	1	-7,82241	273,918754	311,382916	0
15.01.2021	21:16:43	0	0	4,067325	1,9815	313,6716	0,006	86,549	0	1017,22	6,7	8,7	8,6	1	1	1	1	1	1	1	1	1	0	1	-7,047216	274,06567	312,843484	0
15.01.2021	21:16:44	0	0	3,050494	2,0505	310,2336	0,01	86,555	0	1017,4	6,7	8,7	8,6	1	1	1	1	1	1	1	1	1	0	1	-8,386187	273,935023	310,89498	0
15.01.2021	21:16:45	0	0	3,954344	2,0445	309,9744	0,008	86,546	0	1017,32	6,7	8,7	8,6	1	1	1	1	1	1	1	1	1	0	1	-5,708245	274,058223	314,147688	0
15.01.2021	21:16:46	0	0	2,598569	1,9455	319,5864	0,01	86,543	0	1017,66	6,7	8,7	8,6	1	1	1	1	1	1	1	1	1	0	1	-10,500352	273,933543	308,773917	0
15.01.2021	21:16:47	0	0	3,728381	1,91475	319,5432	0,014	86,544	0	1017,3	6,6	8,7	8,6	1	1	1	1	1	1	1	1	1	0	1	-9,513742	273,940942	309,795023	0
15.01.2021	21:16:48	0	0	4,067325	1,9665	318,348	0,011	86,54	0	1017,2	6,7	8,7	8,6	1	1	1	1	1	1	1	1	1	0	1	-6,8358	273,898068	312,273114	0
15.01.2021	21:16:49	0	0	3,276456	2,01075	325,1052	0,011	86,547	0	1017,22	6,7	8,7	8,6	1	1	1	1	1	1	1	1	1	0	1	-7,329105	273,902499	311,800458	0
15.01.2021	21:16:50	0	0	4,632231	2,0205	301,6368	0,012	86,528	0	1017,18	6,6	8,7	8,6	1	1	1	1	1	1	1	1	1	0	1	-5,778717	274,074611	314,153725	0
15.01.2021	21:16:51	0	0	3,502419	1,992	308,8692	0,01	86,532	0	1017,2	6,7	8,7	8,6	1	1	1	1	1	1	1	1	1	0	1	-10,218464	273,992814	309,33222	0
15.01.2021	21:16:52	0	0	3,6154	1,86525	302,0544	0,012	86,537	0	1017,36	6,7	8,7	8,6	1	1	1	1	1	1	1	1	1	0	1	-8,668076	273,893638	310,420194	0
15.01.2021	21:16:53	0	0	4,971175	1,80675	302,9112	0,015	86,551	0	1017,44	6,6	8,7	8,6	1	1	1	1	1	1	1	1	1	0	1	-4,439746	273,936503	314,848319	0
15.01.2021	21:16:54	0	0	3,954344	1,66125	308,8152	0,013	86,546	0	1017,34	6,7	8,7	8,6	1	1	1	1	1	1	1	1	1	0	1	-10,077519	274,06567	309,813181	0
15.01.2021	21:16:55	0	0	4,632231	1,57875	294,39	0,011	86,551	0	1017,2	6,7	8,7	8,6	1	1	1	1	1	1	1	1	1	0	1	-9,302326	274,046314	310,498015	0
15.01.2021	21:16:56	0	0	4,632231	1,61475	317,7972	0,015	86,551	0	1017,34	6,6	8,7	8,6	1	1	1	1	1	1	1	1	1	0	1	-9,020437	273,887734	310,040318	0
15.01.2021	21:16:57	0	0	3,728381	1,79325	308,1276	0,013	86,553	0	1017,28	6,6	8,7	8,6	1	1	1	1	1	1	1	1	1	0	1	-3,59408	274,04185	316,185423	0
15.01.2021	21:16:58	0	0	4,406268	1,86825	306,1296	0,011	86,557	0	1017,28	6,7	8,7	8,6	1	1	1	1	1	1	1	1	1	0	1	-6,8358	273,983912	312,673356	0
15.01.2021	21:16:59	0	0	4,406268	1,97025	310,9284	0,016	86,558	0	1017,36	6,7	8,7	8,6	1	1	1	1	1	1	1	1	1	0	1	-6,131078	273,893638	312,957192	0
15.01.2021	21:17:00	0	0	2,485587	1,91025	308,4732	0,011	86,551	0	1017,28	6,7	8,7	8,6	1	1	1	1	1	1	1	1	1	0	1	-10,641297	273,976497	308,83327	0
15.01.2021	21:17:01	0	0	4,406268	1,76325	312,4188	0,014	86,54	0	1017,18	6,7	8,7	8,6	1	1	1	1	1	1	1	1	1	0	1	-10,359408	273,895115	308,735743	0
15.01.2021	21:17:02	0	0	4,632231	1,61775	280,26	0,013	86,554	0	1017,34	6,7	8,7	8,6	1	1	1	1	1	1	1	1	1	0	1	-10,147992	273,992814	309,402692	0
15.01.2021	21:17:03	0	0	4,51925	1,6725	293,3424	0,015	86,545	0	1017,26	6,6	8,7	8,6	1	1	1	1	1	1	1	1	1	0	1	-13,601128	273,896591	305,500904	0
15.01.2021	21:17:04	0	0	4,51925	1,88325	301,3128	0,006	86,55	0	1017,34	6,7	8,7	8,6	1	1	1	1	1	1	1	1	1	0	1	-10,993658	274,025491	308,709494	0
15.01.2021	21:17:05	0	0	2,937512	1,968	322,6788	0,017	86,566	0	1017,4	6,7	8,7	8,6	1	1	1	1	1	1	1	1	1	0	1	-10,923185	274,04185	308,856318	0
15.01.2021	21:17:06	0	0	4,406295	1,9455	308,4624	0,016	86,568	0	1017,24	6,6	8,7	8,5	1	1	1	1	1	1	1	1	1	0	1	-6,131078	273,886258	312,922799	0
15.01.2021	21:17:07	0	0	3,050475	1,956	308,0484	0,014	86,566	0	1017,38	6,7	8,7	8,7	1	1	1	1	1	1	1	1	1	0	1	-7,329105	273,980945	312,166213	0
15.01.2021	21:17:08	0	0	3,728381	1,9305	327,114	0,014	86,564	0	1017,44	6,7	8,7	8,6	1	1	1	1	1	1	1	1	1	0	1	-12,403101	273,898068	306,705813	0
15.01.2021	21:17:09	0	0	4,180306	2,0415	320,7636	0,012	86,572	0	1017,36	6,7	8,7	8,6	1	1	1	1	1	1	1	1	1	0	1	-7,540521	273,951305	311,816564	0
15.01.2021	21:17:10	0	0	2,937512	2,07	328,9284	0,013	86,565	0	1017,38	6,7	8,7	8,6	1	1	1	1	1	1	1	1	1	0	1	-10,42988	274,092503	309,586116	0
15.01.2021	21:17:11	0	0	4,406268	2,10075	317,8008	0,015	86,555	0	1017,3	6,6	8,7	8,6	1	1	1	1	1	1	1	1	1	0	1	-8,668076	274,01806	311,000396	0
15.01.2021	21:17:12	0	0	3,841362	1,9875	325,9548	0,014	86,565	0	1017,32	6,7	8,7	8,6	1	1	1	1	1	1	1	1	1	0	1	-10,711769	273,899545	308,404027	0
15.01.2021	21:17:13	0	0	5,084156	1,83975	325,4256	0,006	86,564	0	1017,36	6,7	8,7	8,6	1	1	1	1	1	1	1	1	1	0	1	-7,047216	274,026978	312,662873	0
15.01.2021	21:17:14	0	0	3,6154	1,64325	308,8764	0,017	86,569	0	1017,38	6,6	8,7	8,6	1	1	1	1	1	1	1	1	1	0	1	-12,332629	273,892162	306,748762	0
15.01.2021	21:17:15	0	0	5,197137	1,55475	320,3316	0,007	86,565	0	1017,32	6,7	8,7	8,6	1	1	1	1	1	1	1	1	1	0	1	-8,597604	273,99133	310,946157	0
15.01.2021	21:17:16	0	0	4,745212	1,45425	304,3188	0,011	86,572	0	1017,42	6,7	8,7	8,6	1	1	1	1	1	1	1	1	1	0	1	-8,879493	273,883306	310,160632	0
15.01.2021	21:17:17	0	0	4,971175	1,3365	311,0328	0,015	86,577	0	1017,3	6,7	8,7	8,6	1	1	1	1	1	1	1	1	1	0	1	-8,45666	274,00766	311,163289	0
15.01.2021	21:17:18	0	0	4,745212	1,38975	312,5304	0,016	86,583	0	1017,4	6,7	8,7	8,6	1	1	1	1	1	1	1	1	1	0	1	-9,44327	274,06716	310,454386	0
15.01.2021	21:17:19	0	0	3,728381	1,4415	288,1332	0,009	86,58	0	1017,38	6,7	8,7	8,6	1	1	1	1	1	1	1	1	1	0	1	-7,610994	274,019546	312,064413	0
15.01.2021	21:17:20	0	0	4,180306	1,5015	294,1452	0,01	86,571	0	1017,38	6,7	8,7	8,6	1	1	1	1	1	1	1	1	1	0	1	-10,147992	274,06716	309,749664	0
15.01.2021	21:17:21	0	0	4,067325	1,63575	304,9776	0,017	86,583	0	1017,3	6,7	8,7	8,6	1	1	1	1	1	1	1	1	1	0	1	-10,570825	274,049291	309,24341	0
15.01.2021	21:17:22	0	0	2,259625	1,803	288,4428	0,01	86,571	0	1017,24	6,7	8,7	8,6	1	1	1	1	1	1	1	1	1	0	1	-12,403101	273,998751	307,175281	0
15.01.2021	21:17:23	0	0	4,180306	1,82775	302,8212	0,017	86,575	0	1017,3	6,7	8,7	8,6	1	1	1	1	1	1	1	1	1	0	1	-10,288936	274,019546	309,386471	0
15.01.2021	21:17:24	0	0	3,6154	1,7685	290,3976	0,013	86,588	0	1017,38	6,7	8,7	8,6	1	1	1	1	1	1	1	1	1	0	1	-5,708245	274,064181	314,175501	0
15.01.2021	21:17:25	0	0	2,033662	1,78725	295,5528	0,016	86,584	0	1017,22	6,7	8,7	8,6	1	1	1	1	1	1	1	1	1	0	1	-7,540521	274,062691	312,33627	0
15.01.2021	21:17:26	0	0	4,858193	1,85325	299,4444	0,014	86,581	0	1017,38	6,7	8,7	8,6	1	1	1	1	1	1	1	1	1	0	1	-9,020437	274,031438	310,71047	0
15.01.2021	21:17:27	0	0	4,51925	1,851	297,5796	0,015	86,584	0	1017,32	6,7	8,7	8,6	1	1	1	1	1	1	1	1	1	0	1	-10,007047	274,029951	309,71692	0
15.01.2021	21:17:28	0	0	3,163475	1,872	287,6616	0,013	86,586	0	1017,3	6,7	8,7	8,6	1	1	1	1	1	1	1	1	1	0	1	-8,597604	274,086537	311,390531	0
15.01.2021	21:17:29	0	0	3,389437	1,94175	299,4228	0,016	86,577	0	1017,36	6,7	8,7	8,6	1	1	1	1	1	1	1	1	1	0	1	-9,584214	274,021032	310,098128	0
15.01.2021	21:17:30	0	0	2,937512	1,88925	307,2384	0,016	86,573	0	1017,42	6,7	8,7	8,6	1	1	1	1	1	1	1	1	1	0	1	-11,557435	273,890686	307,517076	0
15.01.2021	21:17:31	0	0	3,6154	1,75125	309,1788	0,017	86,555	0	1017,16	6,7	8,7	8,6	1	1	1	1	1	1	1	1	1	0	1	-7,963354	274,026978	311,746735	0
15.01.2021	21:17:32	0	0	3,389437	1,65525	302,0904	0,012	86,58	0	1017,3	6,7	8,7	8,6	1	1	1	1	1	1	1	1	1	0	1	-11,839323	274,074611	308,093119	0
15.01.2021	21:17:33	0	0	4,180306	1,5615	299,7972	0,017	86,597	0	1017,36	6,7	8,7	8,6	1	1	1	1	1	1	1	1	1	0	1	-6,20155	273,901022	312,921129	0
15.01.2021	21:17:34	0	0	3,389437	1,515	294,8004	0,012	86,575	0	1017,3	6,7	8,7	8,6	1	1	1	1	1	1	1	1	1	0	1	-7,047216	273,917276	312,151219	0
15.01.2021	21:17:35	0	0	3,6154	1,4895	308,8692	0,014	86,571	0	1017,3	6,7	8,7	8,6	1	1	1	1	1	1	1	1	1	0	1	-8,315715	273,958711	311,075904	0
15.01.2021	21:17:36	0	0	2,372606	1,4655	315,9792	0,017	86,595	0	1017,3	6,7	8,7	8,6	1	1	1	1	1	1	1	1	1	0	1	-6,20155	273,901022	312,921129	0
15.01.2021	21:17:37	0	0	2,824531	1,45275	300,5352	0,016	86,591	0	1017,3	6,7	8,7	8,6	1	1	1	1	1	1	1	1	1	0	1	-9,866103	273,972049	309,587719	0
15.01.2021	21:17:38	0	0	4,293287	1,47825	308,1348	0,018	86,597	0	1017,44	6,6	8,7	8,6	1	1	1	1	1	1	1	1	1	0	1	-3,875969	273,902499	315,253594	0
15.01.2021	21:17:39	0	0	3,841362	1,491	314,4276	0,015	86,594	0	1017,42	6,7	8,7	8,6	1	1	1	1	1	1	1	1	1	0	1	-6,412967	273,929105	312,840613	0
15.01.2021	21:17:40	0	0	3,276456	1,52175	314,0712	0,009	86,6	0	1017,4	6,7	8,7	8,6	1	1	1	1	1	1	1	1	1	0	1	-7,047216	273,937982	312,247748	0
15.01.2021	21:17:41	0	0	4,745212	1,5285	312,1056	0,015	86,607	0	1017,36	6,7	8,7	8,6	1	1	1	1	1	1	1	1	1	0	1	-6,20155	273,905453	312,941782	0
15.01.2021	21:17:42	0	0	2,937512	1,53075	312,1992	0,014	86,595	0	1017,1	6,7	8,7	8,6	1	1	1	1	1	1	1	1	1	0	1	-13,389711	274,021032	306,292631	0
15.01.2021	21:17:43	0	0	4,632231	1,5075	309,9708	0,009	86,598	0	1017,32	6,7	8,7	8,6	1	1	1	1	1	1	1	1	1	0	1	-9,161381	273,893638	309,926889	0
15.01.2021	21:17:44	0	0	4,293287	1,48575	313,218	0,015	86,584	0	1017,3	6,7	8,7	8,6	1	1	1	1	1	1	1	1	1	0	1	-12,262156	273,998751	307,316225	0
15.01.2021	21:17:45	0	0	2,71155	1,485	312,8292	0,018	86,586	0	1017,16	6,7	8,7	8,6	1	1	1	1	1	1	1	1	1	0	1	-11,486963	273,908408	307,670142	0
15.01.2021	21:17:46	0	0	2,824531	1,58625	311,0076	0,018	86,599	0	1017,42	6,6	8,7	8,6	1	1	1	1	1	1	1	1	1	0	1	-9,302326	273,917276	309,89611	0
15.01.2021	21:17:47	0	0	2,485572	1,578	317,3832	0,016	86,592	0	1017,38	6,7	8,7	8,7	1	1	1	1	1	1	1	1	1	0	1	-5,355884	273,932064	313,911488	0
15.01.2021	21:17:48	0	0	2,824531	1,55625	308,4624	0,017	86,604	0	1017,28	6,7	8,7	8,6	1	1	1	1	1	1	1	1	1	0	1	-9,372798	273,917276	309,825638	0
15.01.2021	21:17:49	0	0	4,293287	1,53975	319,2156	0,015	86,581	0	1017,16	6,7	8,6	8,6	1	1	1	1	1	1	1	1	1	0	1	-8,668076	274,024005	311,028138	0
15.01.2021	21:17:50	0	0	3,6154	1,55775	307,5984	0,017	86,621	0	1017,48	6,7	8,7	8,6	1	1	1	1	1	1	1	1	1	0	1	-8,315715	274,093995	311,707248	0
15.01.2021	21:17:51	0	0	3,050494	1,6455	313,5744	0,017	86,583	0	1017,48	6,7	8,7	8,6	1	1	1	1	1	1	1	1	1	0	1	-4,792107	273,921711	314,427003	0
15.01.2021	21:17:52	0	0	2,824531	1,6665	317,7684	0,014	86,596	0	1017,32	6,6	8,7	8,6	1	1	1	1	1	1	1	1	1	0	1	-10,500352	274,061202	309,369486	0
15.01.2021	21:17:53	0	0	3,389437	1,6395	319,9824	0,022	86,604	0	1017,38	6,6	8,7	8,6	1	1	1	1	1	1	1	1	1	0	1	-7,892882	273,942422	311,422783	0
15.01.2021	21:17:54	0	0	4,745212	1,65525	311,3928	0,017	86,596	0	1017,44	6,7	8,7	8,6	1	1	1	1	1	1	1	1	1	0	1	-8,386187	274,04185	311,393316	0
15.01.2021	21:17:55	0	0	3,841362	1,6365	316,9692	0,015	86,601	0	1017,16	6,7	8,6	8,6	1	1	1	1	1	1	1	1	1	0	1	-12,05074	274,080573	307,909543	0
15.01.2021	21:17:56	0	0	4,632203	1,71075	313,1964	0,019	86,613	0	1017,26	6,6	8,7	8,7	1	1	1	1	1	1	1	1	1	0	1	-7,470049	273,995783	312,094482	0
15.01.2021	21:17:57	0	0	4,632231	1,83825	312,4584	0,016	86,595	0	1017,28	6,7	8,7	8,6	1	1	1	1	1	1	1	1	1	0	1	-10,288936	274,085046	309,692235	0
15.01.2021	21:17:58	0	0	2,485602	1,96725	319,1544	0,015	86,6	0	1017,28	6,7	8,7	8,5	1	1	1	1	1	1	1	1	1	0	1	-9,302326	273,95723	310,082386	0
15.01.2021	21:17:59	0	0	3,276456	2,157	316,944	0,013	86,599	0	1017,26	6,7	8,7	8,6	1	1	1	1	1	1	1	1	1	0	1	-7,399577	273,892162	311,681813	0
15.01.2021	21:18:00	0	0	4,971175	2,36325	312,1992	0,02	86,621	0	1017,22	6,7	8,7	8,6	1	1	1	1	1	1	1	1	1	0	1	-10,923185	273,983912	308,58597	0
15.01.2021	21:18:01	0	0	4,406268	2,502	313,2288	0,014	86,608	0	1017,16	6,7	8,7	8,6	1	1	1	1	1	1	1	1	1	0	1	-10,711769	274,052268	309,116363	0
15.01.2021	21:18:02	0	0	4,858193	2,45925	320,4468	0,008	86,605	0	1017,12	6,7	8,7	8,6	1	1	1	1	1	1	1	1	1	0	1	-10,641297	274,049291	309,172938	0
15.01.2021	21:18:03	0	0	3,050494	2,41875	312,462	0,015	86,612	0	1017,34	6,7	8,7	8,6	1	1	1	1	1	1	1	1	1	0	1	-8,174771	274,082064	311,792474	0
15.01.2021	21:18:04	0	0	3,6154	2,421	314,1108	0,019	86,61	0	1017,42	6,7	8,7	8,6	1	1	1	1	1	1	1	1	1	0	1	-11,768851	274,047803	308,038436	0
15.01.2021	21:18:05	0	0	3,954344	2,3535	309,9204	0,018	86,595	0	1017,42	6,7	8,7	8,6	1	1	1	1	1	1	1	1	1	0	1	-10,852713	274,047803	308,954574	0
15.01.2021	21:18:06	0	0	4,632231	2,4495	307,1916	0,017	86,601	0	1017,24	6,7	8,7	8,6	1	1	1	1	1	1	1	1	1	0	1	-9,795631	274,037387	309,963042	0
15.01.2021	21:18:07	0	0	4,067325	2,4975	313,164	0,016	86,58	0	1017,28	6,7	8,7	8,6	1	1	1	1	1	1	1	1	1	0	1	-8,597604	274,06716	311,300052	0
15.01.2021	21:18:08	0	0	4,632231	2,60925	303,5916	0,018	86,59	0	1017,12	6,7	8,7	8,6	1	1	1	1	1	1	1	1	1	0	1	-10,147992	273,933543	309,126278	0
15.01.2021	21:18:09	0	0	3,276456	2,727	330,7968	0,021	86,61	0	1017,24	6,7	8,7	8,6	1	1	1	1	1	1	1	1	1	0	1	-8,033827	273,912842	311,14394	0
15.01.2021	21:18:10	0	0	2,372606	2,613	313,974	0,021	86,611	0	1017,3	6,7	8,7	8,6	1	1	1	1	1	1	1	1	1	0	1	-9,372798	273,952786	309,991193	0
15.01.2021	21:18:11	0	0	4,51925	2,406	309,2364	0,021	86,608	0	1017,34	6,7	8,7	8,6	1	1	1	1	1	1	1	1	1	0	1	-12,121212	273,898068	306,987702	0
15.01.2021	21:18:12	0	0	3,163475	2,196	309,2436	0,017	86,598	0	1017,26	6,7	8,7	8,6	1	1	1	1	1	1	1	1	1	0	1	-14,094433	273,932064	305,172939	0
15.01.2021	21:18:13	0	0	2,598569	2,01525	307,6236	0,022	86,606	0	1017,36	6,7	8,7	8,6	1	1	1	1	1	1	1	1	1	0	1	-12,825934	273,946863	306,510439	0
15.01.2021	21:18:14	0	0	3,276456	1,86525	336,8016	0,02	86,603	0	1017,3	6,7	8,7	8,6	1	1	1	1	1	1	1	1	1	0	1	-10,288936	273,924668	308,94396	0
15.01.2021	21:18:15	0	0	2,598569	1,91475	309,6036	0,019	86,607	0	1017,24	6,7	8,7	8,6	1	1	1	1	1	1	1	1	1	0	1	-10,359408	273,926147	308,880382	0
15.01.2021	21:18:16	0	0	3,276456	1,95075	328,2264	0,018	86,594	0	1017,54	6,7	8,7	8,6	1	1	1	1	1	1	1	1	1	0	1	-6,624383	273,926147	312,615406	0
15.01.2021	21:18:17	0	0	4,745184	1,8975	330,39	0,018	86,6	0	1017,36	6,7	8,7	8,7	1	1	1	1	1	1	1	1	1	0	1	-6,553911	273,921711	312,665199	0
15.01.2021	21:18:18	0	0	3,050494	1,84275	333,2088	0,022	86,603	0	1017,3	6,7	8,7	8,6	1	1	1	1	1	1	1	1	1	0	1	-9,302326	273,92319	309,923677	0
15.01.2021	21:18:19	0	0	4,0673	1,773	318,4272	0,018	86,598	0	1017,42	6,7	8,7	8,7	1	1	1	1	1	1	1	1	1	0	1	-5,003524	274,00469	314,602567	0
15.01.2021	21:18:20	0	0	4,293287	1,79475	318,114	0,015	86,606	0	1017,18	6,7	8,7	8,6	1	1	1	1	1	1	1	1	1	0	1	-13,460183	274,079082	306,493139	0
15.01.2021	21:18:21	0	0	2,937512	1,70325	327,8232	0,019	86,611	0	1017,34	6,7	8,7	8,6	1	1	1	1	1	1	1	1	1	0	1	-4,510218	273,926147	314,729571	0
15.01.2021	21:18:22	0	0	3,276456	1,6185	314,0784	0,018	86,584	0	1017,34	6,7	8,7	8,6	1	1	1	1	1	1	1	1	1	0	1	-7,82241	273,908408	311,334694	0
15.01.2021	21:18:23	0	0	3,502419	1,5495	317,808	0,016	86,597	0	1017,38	6,7	8,7	8,6	1	1	1	1	1	1	1	1	1	0	1	-9,936575	273,958711	309,455044	0
15.01.2021	21:18:24	0	0	4,180306	1,60275	305,4024	0,02	86,598	0	1017,36	6,7	8,7	8,6	1	1	1	1	1	1	1	1	1	0	1	-5,637773	274,101456	314,420036	0
15.01.2021	21:18:25	0	0	3,389437	1,59825	314,1	0,016	86,6	0	1017,36	6,7	8,7	8,6	1	1	1	1	1	1	1	1	1	0	1	-3,875969	273,96612	315,550201	0
15.01.2021	21:18:26	0	0	4,406242	1,48425	303,9444	0,021	86,602	0	1017,46	6,7	8,7	8,7	1	1	1	1	1	1	1	1	1	0	1	-13,601128	274,077591	306,345234	0
15.01.2021	21:18:27	0	0	3,841362	1,37925	267,3648	0,014	86,597	0	1017,28	6,7	8,7	8,6	1	1	1	1	1	1	1	1	1	0	1	-14,235377	274,056734	305,613605	0
15.01.2021	21:18:28	0	0	3,841362	1,34625	267,0372	0,019	86,573	0	1017,28	6,7	8,7	8,6	1	1	1	1	1	1	1	1	1	0	1	-11,768851	274,088029	308,226248	0
15.01.2021	21:18:29	0	0	3,276456	1,425	311,76	0,02	86,603	0	1017,2	6,7	8,7	8,6	1	1	1	1	1	1	1	1	1	0	1	-7,399577	273,967602	312,033504	0
15.01.2021	21:18:30	0	0	2,824514	1,536	291,8376	0,02	86,597	0	1017,3	6,7	8,7	8,7	1	1	1	1	1	1	1	1	1	0	1	-9,020437	274,092503	310,99556	0
15.01.2021	21:18:31	0	0	2,71155	1,76325	306,1476	0,02	86,599	0	1017,38	6,7	8,7	8,6	1	1	1	1	1	1	1	1	1	0	1	-13,883016	273,933543	305,391253	0
15.01.2021	21:18:32	0	0	2,598569	2,13075	297,2736	0,024	86,601	0	1017,38	6,7	8,7	8,6	1	1	1	1	1	1	1	1	1	0	1	-7,399577	273,960193	311,998951	0
15.01.2021	21:18:33	0	0	2,71155	2,45025	300,8448	0,019	86,598	0	1017,3	6,7	8,7	8,6	1	1	1	1	1	1	1	1	1	0	1	-9,020437	273,902499	310,109126	0
15.01.2021	21:18:34	0	0	2,598569	2,60175	295,1676	0,015	86,601	0	1017,32	6,7	8,7	8,6	1	1	1	1	1	1	1	1	1	0	1	-11,06413	274,053757	308,770951	0
15.01.2021	21:18:35	0	0	5,310118	2,6835	289,602	0,014	86,592	0	1017,14	6,7	8,7	8,6	1	1	1	1	1	1	1	1	1	0	1	-9,302326	274,049291	310,511909	0
15.01.2021	21:18:36	0	0	4,858193	2,703	296,1504	0,019	86,573	0	1017,56	6,7	8,7	8,6	1	1	1	1	1	1	1	1	1	0	1	-9,090909	274,037387	310,667763	0
15.01.2021	21:18:37	0	0	2,485587	2,616	299,8584	0,017	86,583	0	1017,18	6,7	8,7	8,6	1	1	1	1	1	1	1	1	1	0	1	-9,584214	273,945383	309,745256	0
15.01.2021	21:18:38	0	0	4,858223	2,47875	297,2484	0,016	86,589	0	1017,44	6,7	8,7	8,5	1	1	1	1	1	1	1	1	1	0	1	-6,694856	273,955749	312,682948	0
15.01.2021	21:18:39	0	0	4,971175	2,48025	308,0628	0,016	86,599	0	1017,32	6,7	8,7	8,6	1	1	1	1	1	1	1	1	1	0	1	-12,121212	274,08952	307,880852	0
15.01.2021	21:18:40	0	0	4,51925	2,52375	298,6992	0,016	86,587	0	1017,22	6,7	8,7	8,6	1	1	1	1	1	1	1	1	1	0	1	-13,248767	274,059713	306,614119	0
15.01.2021	21:18:41	0	0	2,146644	2,5995	299,4552	0,019	86,601	0	1017,36	6,7	8,7	8,6	1	1	1	1	1	1	1	1	1	0	1	-9,513742	274,024005	310,182472	0
15.01.2021	21:18:42	0	0	3,728381	2,7105	293,7672	0,018	86,592	0	1017,28	6,7	8,7	8,6	1	1	1	1	1	1	1	1	1	0	1	-5,84919	273,937982	313,445775	0
15.01.2021	21:18:43	0	0	4,406268	2,72925	292,2084	0,021	86,6	0	1017,3	6,7	8,7	8,6	1	1	1	1	1	1	1	1	1	0	1	-7,751938	274,0359	311,999792	0
15.01.2021	21:18:44	0	0	3,6154	2,63625	297,5832	0,021	86,592	0	1017,34	6,6	8,7	8,6	1	1	1	1	1	1	1	1	1	0	1	-9,231853	273,893638	309,856417	0
15.01.2021	21:18:45	0	0	4,745241	2,47125	300,2508	0,023	86,595	0	1017,26	6,7	8,7	8,5	1	1	1	1	1	1	1	1	1	0	1	-10,570825	274,021032	309,111518	0
15.01.2021	21:18:46	0	0	4,406268	2,44125	294,4476	0,016	86,595	0	1017,54	6,7	8,7	8,6	1	1	1	1	1	1	1	1	1	0	1	-11,557435	274,086537	308,4307	0
15.01.2021	21:18:47	0	0	2,372606	2,63775	306,1008	0,016	86,573	0	1017,28	6,7	8,7	8,6	1	1	1	1	1	1	1	1	1	0	1	-10,007047	274,04185	309,772456	0
15.01.2021	21:18:48	0	0	3,050494	2,66025	297,2592	0,018	86,563	0	1017,28	6,7	8,7	8,6	1	1	1	1	1	1	1	1	1	0	1	-9,020437	274,077591	310,925925	0
15.01.2021	21:18:49	0	0	4,632231	2,62875	300,204	0,011	86,596	0	1017,24	6,7	8,7	8,6	1	1	1	1	1	1	1	1	1	0	1	-7,681466	274,050779	312,139717	0
15.01.2021	21:18:50	0	0	4,745241	2,5635	297,8676	0,019	86,586	0	1017,22	6,7	8,7	8,5	1	1	1	1	1	1	1	1	1	0	1	-10,570825	273,932064	308,696547	0
15.01.2021	21:18:51	0	0	3,050494	2,4915	297,558	0,022	86,591	0	1017,34	6,6	8,7	8,6	1	1	1	1	1	1	1	1	1	0	1	-6,624383	273,936503	312,663682	0
15.01.2021	21:18:52	0	0	2,485587	2,43675	298,6272	0,02	86,583	0	1017,38	6,7	8,7	8,6	1	1	1	1	1	1	1	1	1	0	1	-12,121212	274,049291	307,693022	0
15.01.2021	21:18:53	0	0	2,485587	2,3295	291,798	0,014	86,574	0	1017,3	6,7	8,7	8,6	1	1	1	1	1	1	1	1	1	0	1	-10,570825	273,955749	308,806979	0
15.01.2021	21:18:54	0	0	3,276456	2,31225	306,1944	0,02	86,583	0	1017,28	6,7	8,7	8,6	1	1	1	1	1	1	1	1	1	0	1	-7,258633	274,06567	312,632068	0
15.01.2021	21:18:55	0	0	3,728381	2,3295	294,138	0,016	86,584	0	1017,28	6,7	8,7	8,6	1	1	1	1	1	1	1	1	1	0	1	-9,161381	274,074611	310,771061	0
15.01.2021	21:18:56	0	0	4,971175	2,3505	301,6044	0,018	86,59	0	1017,32	6,7	8,7	8,6	1	1	1	1	1	1	1	1	1	0	1	-7,399577	273,963156	312,012771	0
15.01.2021	21:18:57	0	0	2,71155	2,394	297,864	0,021	86,601	0	1017,32	6,7	8,7	8,6	1	1	1	1	1	1	1	1	1	0	1	-8,597604	274,104441	311,474148	0
15.01.2021	21:18:58	0	0	4,51925	2,4015	310,6764	0,021	86,58	0	1017,44	6,7	8,7	8,6	1	1	1	1	1	1	1	1	1	0	1	-9,090909	273,983912	310,418247	0
15.01.2021	21:18:59	0	0	4,858193	2,36775	309,5676	0,018	86,573	0	1017,38	6,7	8,7	8,6	1	1	1	1	1	1	1	1	1	0	1	-4,933051	274,086537	315,055083	0
15.01.2021	21:19:00	0	0	3,163475	2,3265	301,4208	0,015	86,572	0	1017,44	6,7	8,7	8,6	1	1	1	1	1	1	1	1	1	0	1	-8,104299	274,034413	311,640489	0
15.01.2021	21:19:01	0	0	2,71155	2,2845	307,6128	0,012	86,588	0	1017,48	6,7	8,7	8,6	1	1	1	1	1	1	1	1	1	0	1	-11,06413	274,077591	308,882232	0
15.01.2021	21:19:02	0	0	4,632231	2,2365	311,1012	0,016	86,585	0	1017,16	6,7	8,7	8,6	1	1	1	1	1	1	1	1	1	0	1	-7,188161	274,043338	312,598288	0
15.01.2021	21:19:03	0	0	2,598569	2,2395	306,1836	0,016	86,573	0	1017,28	6,7	8,7	8,6	1	1	1	1	1	1	1	1	1	0	1	-12,05074	274,037387	307,707932	0
15.01.2021	21:19:04	0	0	3,050512	2,18775	315,8568	0,02	86,586	0	1017,34	6,7	8,7	8,5	1	1	1	1	1	1	1	1	1	0	1	-12,684989	273,906931	306,465229	0
15.01.2021	21:19:05	0	0	2,937512	2,11725	309,9672	0,021	86,579	0	1017,32	6,7	8,7	8,6	1	1	1	1	1	1	1	1	1	0	1	-10,782241	273,961674	308,623197	0
15.01.2021	21:19:06	0	0	4,632231	2,181	299,0268	0,018	86,594	0	1017,4	6,7	8,7	8,6	1	1	1	1	1	1	1	1	1	0	1	-8,033827	274,079082	311,919495	0
15.01.2021	21:19:07	0	0	4,406268	2,172	306,8388	0,016	86,575	0	1017,18	6,7	8,7	8,6	1	1	1	1	1	1	1	1	1	0	1	-7,82241	274,064181	312,061336	0
15.01.2021	21:19:08	0	0	1,92067	2,094	304,6032	0,013	86,587	0	1017,38	6,7	8,7	8,7	1	1	1	1	1	1	1	1	1	0	1	-7,681466	273,960193	311,717062	0
15.01.2021	21:19:09	0	0	3,050494	2,01	301,2012	0,015	86,571	0	1017,38	6,7	8,7	8,6	1	1	1	1	1	1	1	1	1	0	1	-6,060606	273,929105	313,192974	0
15.01.2021	21:19:10	0	0	2,485587	1,968	300,4848	0,021	86,58	0	1017,16	6,7	8,7	8,6	1	1	1	1	1	1	1	1	1	0	1	-8,879493	274,031438	310,851414	0
15.01.2021	21:19:11	0	0	2,824514	2,0745	301,2408	0,011	86,577	0	1017,28	6,7	8,6	8,7	1	1	1	1	1	1	1	1	1	0	1	-6,483439	273,915798	312,708106	0
15.01.2021	21:19:12	0	0	4,406242	2,13225	297,0216	0,011	86,574	0	1017,24	6,7	8,7	8,7	1	1	1	1	1	1	1	1	1	0	1	-6,694856	273,976497	312,779711	0
15.01.2021	21:19:13	0	0	4,406295	2,22375	296,5788	0,013	86,587	0	1017,36	6,7	8,7	8,5	1	1	1	1	1	1	1	1	1	0	1	-6,765328	274,086537	313,222807	0
15.01.2021	21:19:14	0	0	3,95432	2,25525	299,448	0,018	86,571	0	1017,36	6,7	8,7	8,7	1	1	1	1	1	1	1	1	1	0	1	-8,315715	274,04185	311,463788	0
15.01.2021	21:19:15	0	0	2,711566	2,28	298,7424	0,018	86,589	0	1017,4	6,7	8,6	8,5	1	1	1	1	1	1	1	1	1	0	1	-7,258633	274,009146	312,368246	0
15.01.2021	21:19:16	0	0	2,372592	2,22	293,4	0,015	86,572	0	1017,32	6,7	8,7	8,7	1	1	1	1	1	1	1	1	1	0	1	-7,82241	273,917276	311,376025	0
15.01.2021	21:19:17	0	0	3,276456	2,20425	288,1044	0,013	86,572	0	1017,2	6,7	8,7	8,6	1	1	1	1	1	1	1	1	1	0	1	-8,315715	273,95723	311,068996	0
15.01.2021	21:19:18	0	0	3,841339	2,17275	296,8308	0,017	86,585	0	1017,44	6,7	8,7	8,7	1	1	1	1	1	1	1	1	1	0	1	-10,782241	274,110413	309,317404	0
15.01.2021	21:19:19	0	0	2,937495	2,118	290,376	0,015	86,583	0	1017,3	6,7	8,7	8,7	1	1	1	1	1	1	1	1	1	0	1	-6,342495	273,952786	313,021496	0
15.01.2021	21:19:20	0	0	3,6154	2,079	294,8436	0,017	86,578	0	1017,32	6,7	8,7	8,6	1	1	1	1	1	1	1	1	1	0	1	-8,668076	274,088029	311,327023	0
15.01.2021	21:19:21	0	0	3,841362	2,1285	301,2408	0,018	86,59	0	1017,4	6,7	8,7	8,6	1	1	1	1	1	1	1	1	1	0	1	-7,681466	273,899545	311,43433	0
15.01.2021	21:19:22	0	0	4,51925	2,24025	303,552	0,022	86,581	0	1017,42	6,7	8,7	8,6	1	1	1	1	1	1	1	1	1	0	1	-10,147992	273,955749	309,229812	0
15.01.2021	21:19:23	0	0	4,51925	2,30175	310,4028	0,022	86,59	0	1017,38	6,7	8,7	8,6	1	1	1	1	1	1	1	1	1	0	1	-14,940099	274,101456	305,11771	0
15.01.2021	21:19:24	0	0	5,084156	2,418	299,0628	0,01	86,569	0	1017,3	6,7	8,7	8,6	1	1	1	1	1	1	1	1	1	0	1	-10,147992	273,973531	309,312744	0
15.01.2021	21:19:25	0	0	4,858193	2,47725	301,6728	0,016	86,589	0	1017,42	6,7	8,7	8,6	1	1	1	1	1	1	1	1	1	0	1	-11,627907	273,95723	307,756804	0
15.01.2021	21:19:26	0	0	3,502419	2,457	297,9396	0,01	86,582	0	1017,44	6,7	8,7	8,6	1	1	1	1	1	1	1	1	1	0	1	-10,993658	274,099963	309,057181	0
15.01.2021	21:19:27	0	0	2,824531	2,37075	303,9336	0,019	86,565	0	1017,32	6,7	8,7	8,6	1	1	1	1	1	1	1	1	1	0	1	-6,976744	273,948344	312,366532	0
15.01.2021	21:19:28	0	0	3,6154	2,2455	306,162	0,021	86,588	0	1017,36	6,7	8,7	8,6	1	1	1	1	1	1	1	1	1	0	1	-9,725159	273,933543	309,549111	0
15.01.2021	21:19:29	0	0	3,6154	2,19375	307,5948	0,013	86,585	0	1017,32	6,7	8,7	8,6	1	1	1	1	1	1	1	1	1	0	1	-9,231853	273,933543	310,042416	0
15.01.2021	21:19:30	0	0	2,485587	2,208	303,2604	0,014	86,587	0	1017,3	6,7	8,6	8,6	1	1	1	1	1	1	1	1	1	0	1	-9,584214	273,942422	309,731452	0
15.01.2021	21:19:31	0	0	4,067349	2,2125	302,0832	0,015	86,565	0	1017,32	6,7	8,7	8,5	1	1	1	1	1	1	1	1	1	0	1	-11,557435	274,06567	308,333266	0
15.01.2021	21:19:32	0	0	3,163475	2,30025	293,0292	0,02	86,582	0	1017,22	6,7	8,7	8,6	1	1	1	1	1	1	1	1	1	0	1	-8,80902	274,047803	310,998267	0
15.01.2021	21:19:33	0	0	2,485587	2,3805	303,9444	0,014	86,564	0	1017,42	6,7	8,7	8,6	1	1	1	1	1	1	1	1	1	0	1	-14,023961	274,104441	306,047791	0
15.01.2021	21:19:34	0	0	2,71155	2,3505	301,7556	0,017	86,578	0	1017,3	6,7	8,7	8,6	1	1	1	1	1	1	1	1	1	0	1	-6,272023	273,969084	313,167972	0
15.01.2021	21:19:35	0	0	4,632231	2,214	291,8808	0,018	86,566	0	1017,42	6,7	8,7	8,6	1	1	1	1	1	1	1	1	1	0	1	-7,258633	274,096979	312,778267	0
15.01.2021	21:19:36	0	0	4,293287	2,10825	293,0148	0,019	86,582	0	1017,38	6,7	8,7	8,6	1	1	1	1	1	1	1	1	1	0	1	-12,684989	273,91432	306,499666	0
15.01.2021	21:19:37	0	0	3,276456	2,133	295,2324	0,017	86,572	0	1017,46	6,7	8,7	8,6	1	1	1	1	1	1	1	1	1	0	1	-11,627907	273,982429	307,87433	0
15.01.2021	21:19:38	0	0	2,937512	2,15175	295,236	0,015	86,578	0	1017,32	6,7	8,7	8,6	1	1	1	1	1	1	1	1	1	0	1	-10,852713	274,059713	309,010172	0
15.01.2021	21:19:39	0	0	4,858223	2,148	307,1664	0,021	86,576	0	1017,36	6,7	8,7	8,5	1	1	1	1	1	1	1	1	1	0	1	-9,725159	274,083555	310,249049	0
15.01.2021	21:19:40	0	0	4,632203	2,19225	306,1764	0,024	86,585	0	1017,38	6,7	8,7	8,7	1	1	1	1	1	1	1	1	1	0	1	-11,06413	274,062691	308,812662	0
15.01.2021	21:19:41	0	0	3,389437	2,1915	306,8352	0,013	86,559	0	1017,34	6,7	8,7	8,6	1	1	1	1	1	1	1	1	1	0	1	-11,205074	273,921711	308,014036	0
15.01.2021	21:19:42	0	0	3,841362	2,24775	305,82	0,013	86,581	0	1017,5	6,7	8,7	8,6	1	1	1	1	1	1	1	1	1	0	1	-8,527132	273,976497	310,947435	0
15.01.2021	21:19:43	0	0	2,824531	2,27025	302,0436	0,017	86,59	0	1017,46	6,7	8,7	8,6	1	1	1	1	1	1	1	1	1	0	1	-9,936575	274,095487	310,093356	0
15.01.2021	21:19:44	0	0	3,276456	2,2065	301,2624	0,01	86,581	0	1017,4	6,7	8,7	8,6	1	1	1	1	1	1	1	1	1	0	1	-10,641297	274,07014	309,270272	0
15.01.2021	21:19:45	0	0	3,615378	2,133	303,2568	0,016	86,59	0	1017,3	6,7	8,7	8,7	1	1	1	1	1	1	1	1	1	0	1	-7,188161	273,958711	312,203459	0
15.01.2021	21:19:46	0	0	4,632231	2,0955	298,6308	0,017	86,581	0	1017,42	6,7	8,7	8,6	1	1	1	1	1	1	1	1	1	0	1	-9,866103	273,91432	309,318553	0
15.01.2021	21:19:47	0	0	3,728359	2,058	309,5136	0,017	86,575	0	1017,32	6,7	8,7	8,7	1	1	1	1	1	1	1	1	1	0	1	-11,909796	273,964638	307,509463	0
15.01.2021	21:19:48	0	0	2,937495	1,956	310,6692	0,017	86,576	0	1017,4	6,7	8,7	8,7	1	1	1	1	1	1	1	1	1	0	1	-10,500352	273,945383	308,829117	0
15.01.2021	21:19:49	0	0	4,858193	1,95075	318,4812	0,021	86,574	0	1017,24	6,7	8,7	8,6	1	1	1	1	1	1	1	1	1	0	1	-10,711769	274,052268	309,116363	0
15.01.2021	21:19:50	0	0	4,0673	1,91325	317,0484	0,024	86,59	0	1017,42	6,7	8,7	8,7	1	1	1	1	1	1	1	1	1	0	1	-7,681466	274,105934	312,397258	0
15.01.2021	21:19:51	0	0	2,485572	1,9155	312,1812	0,019	86,587	0	1017,42	6,7	8,7	8,7	1	1	1	1	1	1	1	1	1	0	1	-8,879493	274,012117	310,761248	0
15.01.2021	21:19:52	0	0	4,745212	1,90875	303,5628	0,016	86,578	0	1017,3	6,7	8,7	8,6	1	1	1	1	1	1	1	1	1	0	1	-7,188161	274,093995	312,834803	0
15.01.2021	21:19:53	0	0	4,293287	1,953	304,2756	0,019	86,585	0	1017,36	6,7	8,7	8,6	1	1	1	1	1	1	1	1	1	0	1	-11,134602	274,080573	308,825681	0
15.01.2021	21:19:54	0	0	3,728381	1,91925	303,5412	0,017	86,587	0	1017,38	6,7	8,7	8,6	1	1	1	1	1	1	1	1	1	0	1	-7,892882	274,074611	312,03956	0
15.01.2021	21:19:55	0	0	4,293261	1,9125	296,8308	0,016	86,589	0	1017,38	6,7	8,7	8,7	1	1	1	1	1	1	1	1	1	0	1	-11,41649	274,061202	308,453348	0
15.01.2021	21:19:56	0	0	4,067325	1,78875	306,198	0,019	86,595	0	1017,28	6,7	8,7	8,6	1	1	1	1	1	1	1	1	1	0	1	-7,188161	273,942422	312,127505	0
15.01.2021	21:19:57	0	0	3,841362	1,7925	310,3776	0,013	86,581	0	1017,26	6,7	8,7	8,6	1	1	1	1	1	1	1	1	1	0	1	-10,218464	274,07163	309,700062	0
15.01.2021	21:19:58	0	0	3,502398	1,77225	309,2508	0,016	86,59	0	1017,34	6,7	8,7	8,7	1	1	1	1	1	1	1	1	1	0	1	-11,557435	274,047803	308,249852	0
15.01.2021	21:19:59	0	0	4,632231	1,791	297,5796	0,019	86,583	0	1017,36	6,7	8,7	8,6	1	1	1	1	1	1	1	1	1	0	1	-9,161381	273,91432	310,023275	0
15.01.2021	21:20:00	0	0	4,0673	1,9245	292,6692	0,015	86,591	0	1017,4	6,7	8,7	8,7	1	1	1	1	1	1	1	1	1	0	1	-12,262156	274,098471	307,781712	0
15.01.2021	21:20:01	0	0	3,050494	2,03025	294,822	0,021	86,586	0	1017,4	6,7	8,7	8,6	1	1	1	1	1	1	1	1	1	0	1	-11,839323	273,936503	307,448742	0
15.01.2021	21:20:02	0	0	3,050494	1,95525	297,2016	0,024	86,596	0	1017,22	6,7	8,7	8,6	1	1	1	1	1	1	1	1	1	0	1	-10,288936	273,926147	308,950854	0
15.01.2021	21:20:03	0	0	3,163456	1,896	293,0184	0,02	86,592	0	1017,34	6,7	8,7	8,7	1	1	1	1	1	1	1	1	1	0	1	-9,231853	274,049291	310,582381	0
15.01.2021	21:20:04	0	0	4,51925	1,82625	306,45	0,018	86,597	0	1017,4	6,7	8,7	8,6	1	1	1	1	1	1	1	1	1	0	1	-11,768851	274,101456	308,288958	0
15.01.2021	21:20:05	0	0	4,067325	1,69125	300,996	0,023	86,592	0	1017,34	6,7	8,7	8,6	1	1	1	1	1	1	1	1	1	0	1	-6,553911	274,06865	313,350701	0
15.01.2021	21:20:06	0	0	4,632231	1,683	303,4836	0,015	86,591	0	1017,34	6,7	8,7	8,6	1	1	1	1	1	1	1	1	1	0	1	-9,866103	273,952786	309,497888	0
15.01.2021	21:20:07	0	0	3,163475	1,6695	303,8796	0,016	86,594	0	1017,16	6,7	8,7	8,6	1	1	1	1	1	1	1	1	1	0	1	-13,248767	274,113399	306,864828	0
15.01.2021	21:20:08	0	0	3,954344	1,6425	300,2328	0,025	86,597	0	1017,28	6,7	8,7	8,6	1	1	1	1	1	1	1	1	1	0	1	-7,047216	274,003205	312,551946	0
15.01.2021	21:20:09	0	0	4,406268	1,6575	295,218	0,02	86,598	0	1017,4	6,7	8,7	8,6	1	1	1	1	1	1	1	1	1	0	1	-10,852713	273,935023	308,428454	0
15.01.2021	21:20:10	0	0	2,937512	1,7325	296,4924	0,022	86,6	0	1017,3	6,7	8,7	8,6	1	1	1	1	1	1	1	1	1	0	1	-10,923185	273,960193	308,475343	0
15.01.2021	21:20:11	0	0	3,728359	1,85325	299,8116	0,022	86,597	0	1017,4	6,6	8,7	8,7	1	1	1	1	1	1	1	1	1	0	1	-7,258633	273,975014	312,209018	0
15.01.2021	21:20:12	0	0	3,502419	1,821	298,6848	0,026	86,606	0	1017,34	6,7	8,7	8,6	1	1	1	1	1	1	1	1	1	0	1	-11,557435	274,099963	308,493404	0
15.01.2021	21:20:13	0	0	4,858164	1,7055	303,696	0,015	86,585	0	1017,34	6,7	8,7	8,7	1	1	1	1	1	1	1	1	1	0	1	-10,359408	273,982429	309,142829	0
15.01.2021	21:20:14	0	0	3,841362	1,60275	287,316	0,03	86,601	0	1017,4	6,7	8,6	8,6	1	1	1	1	1	1	1	1	1	0	1	-10,782241	274,095487	309,24769	0
15.01.2021	21:20:15	0	0	4,632231	1,5285	294,4008	0,028	86,59	0	1017,38	6,7	8,7	8,6	1	1	1	1	1	1	1	1	1	0	1	-10,500352	273,980945	308,994966	0
15.01.2021	21:20:16	0	0	2,824531	1,47825	294,2316	0,02	86,594	0	1017,28	6,7	8,7	8,6	1	1	1	1	1	1	1	1	1	0	1	-7,470049	273,924668	311,762846	0
15.01.2021	21:20:17	0	0	4,632231	1,5975	309,9312	0,019	86,584	0	1017,16	6,7	8,7	8,6	1	1	1	1	1	1	1	1	1	0	1	-6,131078	274,064181	313,752668	0
15.01.2021	21:20:18	0	0	4,406268	1,74675	312,4692	0,026	86,592	0	1017,32	6,7	8,7	8,6	1	1	1	1	1	1	1	1	1	0	1	-5,285412	274,111906	314,821207	0
15.01.2021	21:20:19	0	0	4,632231	1,7415	311,0652	0,024	86,573	0	1017,28	6,7	8,7	8,6	1	1	1	1	1	1	1	1	1	0	1	-12,473573	274,07014	307,437996	0
15.01.2021	21:20:20	0	0	3,841385	1,80675	305,352	0,026	86,595	0	1017,34	6,7	8,7	8,5	1	1	1	1	1	1	1	1	1	0	1	-13,953488	273,939462	305,348376	0
15.01.2021	21:20:21	0	0	2,824531	1,797	316,2384	0,02	86,594	0	1017,44	6,7	8,7	8,6	1	1	1	1	1	1	1	1	1	0	1	-4,298802	273,951305	315,058283	0
15.01.2021	21:20:22	0	0	3,163475	1,84125	309,546	0,021	86,578	0	1017,34	6,6	8,7	8,6	1	1	1	1	1	1	1	1	1	0	1	-7,399577	274,06865	312,505035	0
15.01.2021	21:20:23	0	0	2,598569	1,902	317,4372	0,018	86,583	0	1017,24	6,7	8,7	8,6	1	1	1	1	1	1	1	1	1	0	1	-12,262156	274,093995	307,760807	0
15.01.2021	21:20:24	0	0	4,406268	2,07525	306,1728	0,022	86,592	0	1017,24	6,7	8,7	8,6	1	1	1	1	1	1	1	1	1	0	1	-8,597604	274,044826	311,19579	0
15.01.2021	21:20:25	0	0	3,276436	2,28525	309,2148	0,021	86,577	0	1017,32	6,7	8,7	8,7	1	1	1	1	1	1	1	1	1	0	1	-8,033827	273,921711	311,185283	0
15.01.2021	21:20:26	0	0	4,632203	2,394	306,4248	0,022	86,592	0	1017,36	6,7	8,7	8,7	1	1	1	1	1	1	1	1	1	0	1	-9,936575	274,056734	309,912407	0
15.01.2021	21:20:27	0	0	2,824531	2,36325	305,3772	0,024	86,562	0	1017,24	6,7	8,7	8,6	1	1	1	1	1	1	1	1	1	0	1	-13,178295	273,932064	306,089077	0
15.01.2021	21:20:28	0	0	4,745184	2,37	293,688	0,023	86,584	0	1017,34	6,7	8,7	8,7	1	1	1	1	1	1	1	1	1	0	1	-10,288936	274,059713	309,57395	0
15.01.2021	21:20:29	0	0	2,372606	2,49825	301,2516	0,019	86,583	0	1017,22	6,7	8,7	8,6	1	1	1	1	1	1	1	1	1	0	1	-11,346018	273,960193	308,05251	0
15.01.2021	21:20:30	0	0	2,146631	2,51925	301,212	0,022	86,587	0	1017,16	6,7	8,7	8,7	1	1	1	1	1	1	1	1	1	0	1	-9,584214	273,994298	309,973393	0
15.01.2021	21:20:31	0	0	3,502419	2,59125	299,0196	0,012	86,58	0	1017,24	6,7	8,7	8,6	1	1	1	1	1	1	1	1	1	0	1	-6,624383	274,102948	313,440396	0
15.01.2021	21:20:32	0	0	4,519223	2,517	287,0028	0,019	86,576	0	1017,1	6,7	8,7	8,7	1	1	1	1	1	1	1	1	1	0	1	-9,231853	273,992814	310,31883	0
15.01.2021	21:20:33	0	0	3,389437	2,3145	300,8196	0,021	86,585	0	1017,34	6,7	8,7	8,6	1	1	1	1	1	1	1	1	1	0	1	-9,584214	273,986879	309,938782	0
15.01.2021	21:20:34	0	0	4,632203	2,18475	293,7168	0,024	86,573	0	1017,18	6,7	8,7	8,7	1	1	1	1	1	1	1	1	1	0	1	-8,879493	273,945383	310,449977	0
15.01.2021	21:20:35	0	0	4,971175	2,16225	287,0424	0,019	86,586	0	1017,42	6,7	8,7	8,6	1	1	1	1	1	1	1	1	1	0	1	-7,82241	274,07312	312,103074	0
15.01.2021	21:20:36	0	0	5,423067	2,08875	287,8848	0,026	86,579	0	1017,28	6,7	8,7	8,7	1	1	1	1	1	1	1	1	1	0	1	-8,45666	274,099963	311,594179	0
15.01.2021	21:20:37	0	0	2,598569	1,9965	303,516	0,024	86,58	0	1017,32	6,7	8,7	8,6	1	1	1	1	1	1	1	1	1	0	1	-13,389711	274,052268	306,438421	0
15.01.2021	21:20:38	0	0	4,971175	2,07525	304,6932	0,021	86,582	0	1017,42	6,7	8,6	8,6	1	1	1	1	1	1	1	1	1	0	1	-7,963354	273,927626	311,28333	0
15.01.2021	21:20:39	0	0	3,50244	2,061	309,9384	0,023	86,577	0	1017,36	6,7	8,7	8,5	1	1	1	1	1	1	1	1	1	0	1	-8,597604	274,047803	311,209683	0
15.01.2021	21:20:40	0	0	4,51925	2,157	307,2384	0,026	86,595	0	1017,38	6,7	8,7	8,6	1	1	1	1	1	1	1	1	1	0	1	-12,121212	274,102948	307,943568	0
15.01.2021	21:20:41	0	0	4,745212	2,29725	296,5356	0,028	86,585	0	1017,48	6,7	8,7	8,6	1	1	1	1	1	1	1	1	1	0	1	-6,8358	274,058223	313,020134	0
15.01.2021	21:20:42	0	0	3,389437	2,37	307,1988	0,03	86,592	0	1017,3	6,7	8,7	8,6	1	1	1	1	1	1	1	1	1	0	1	-11,275546	274,111906	308,831073	0
15.01.2021	21:20:43	0	0	3,615421	2,41125	289,6668	0,023	86,583	0	1017,38	6,7	8,6	8,5	1	1	1	1	1	1	1	1	1	0	1	-9,020437	274,016574	310,641102	0
15.01.2021	21:20:44	0	0	4,406268	2,52	299,0988	0,019	86,574	0	1017,28	6,7	8,7	8,6	1	1	1	1	1	1	1	1	1	0	1	-11,41649	273,948344	307,926786	0
15.01.2021	21:20:45	0	0	2,937512	2,4945	295,2108	0,022	86,542	0	1017,4	6,7	8,7	8,6	1	1	1	1	1	1	1	1	1	0	1	-14,094433	273,909886	305,069559	0
15.01.2021	21:20:46	0	0	3,502419	2,42925	302,4648	0,02	86,585	0	1017,34	6,7	8,7	8,6	1	1	1	1	1	1	1	1	1	0	1	-7,117689	274,016574	312,54385	0
15.01.2021	21:20:47	0	0	4,519223	2,38725	298,7352	0,022	86,582	0	1017,38	6,7	8,7	8,7	1	1	1	1	1	1	1	1	1	0	1	-11,627907	274,104441	308,443845	0
15.01.2021	21:20:48	0	0	4,180281	2,28075	322,6608	0,021	86,581	0	1017,44	6,7	8,7	8,7	1	1	1	1	1	1	1	1	1	0	1	-9,513742	274,019546	310,161665	0
15.01.2021	21:20:49	0	0	2,71155	2,28375	317,0052	0,02	86,568	0	1017,26	6,7	8,7	8,6	1	1	1	1	1	1	1	1	1	0	1	-10,500352	274,095487	309,529579	0
15.01.2021	21:20:50	0	0	3,502398	2,26725	312,1848	0,024	86,57	0	1017,36	6,7	8,7	8,7	1	1	1	1	1	1	1	1	1	0	1	-10,711769	274,110413	309,387876	0
15.01.2021	21:20:51	0	0	4,180281	2,2695	306,8964	0,025	86,574	0	1017,3	6,7	8,7	8,7	1	1	1	1	1	1	1	1	1	0	1	-9,936575	274,105934	310,142149	0
15.01.2021	21:20:52	0	0	3,389417	2,226	297,9864	0,027	86,582	0	1017,28	6,7	8,7	8,7	1	1	1	1	1	1	1	1	1	0	1	-6,976744	274,116386	313,150804	0
15.01.2021	21:20:53	0	0	2,937495	2,19675	315,2772	0,022	86,572	0	1017,36	6,7	8,7	8,7	1	1	1	1	1	1	1	1	1	0	1	-8,80902	274,07312	311,116463	0
15.01.2021	21:20:54	0	0	4,858193	2,211	307,2456	0,029	86,585	0	1017,36	6,7	8,7	8,6	1	1	1	1	1	1	1	1	1	0	1	-6,765328	274,110413	313,334317	0
15.01.2021	21:20:55	0	0	4,51925	2,26725	312,5412	0,021	86,565	0	1017,3	6,7	8,7	8,6	1	1	1	1	1	1	1	1	1	0	1	-8,879493	274,00766	310,740456	0
15.01.2021	21:20:56	0	0	3,276456	2,2755	302,8176	0,02	86,571	0	1017,26	6,7	8,6	8,6	1	1	1	1	1	1	1	1	1	0	1	-9,866103	274,113399	310,247492	0
15.01.2021	21:20:57	0	0	3,050475	2,16375	312,174	0,022	86,575	0	1017,24	6,7	8,7	8,7	1	1	1	1	1	1	1	1	1	0	1	-8,668076	274,06865	311,236536	0
15.01.2021	21:20:58	0	0	2,937512	2,016	310,7232	0,023	86,575	0	1017,38	6,7	8,7	8,6	1	1	1	1	1	1	1	1	1	0	1	-7,117689	273,937982	312,177276	0
15.01.2021	21:20:59	0	0	3,95432	1,923	309,2148	0,025	86,574	0	1017,28	6,7	8,7	8,7	1	1	1	1	1	1	1	1	1	0	1	-12,05074	274,07014	307,860829	0
15.01.2021	21:21:00	0	0	4,858193	1,938	323,6796	0,023	86,572	0	1017,36	6,6	8,7	8,6	1	1	1	1	1	1	1	1	1	0	1	-7,399577	273,989846	312,137261	0
15.01.2021	21:21:01	0	0	4,858193	1,938	323,6796	0,023	86,572	0	1017,36	6,6	8,7	8,6	1	1	1	1	1	1	1	1	1	0	1	-12,896406	274,120867	307,252077	0
15.01.2021	21:21:02	0	0	3,841385	1,80525	312,2496	0,022	86,571	0	1017,3	6,6	8,7	8,5	1	1	1	1	1	1	1	1	1	0	1	-14,517266	273,994298	305,040342	0
15.01.2021	21:21:03	0	0	4,51925	1,66425	309,1572	0,023	86,564	0	1017,52	6,7	8,7	8,6	1	1	1	1	1	1	1	1	1	0	1	-7,399577	274,110413	312,700068	0
15.01.2021	21:21:04	0	0	2,937495	1,7115	324,5076	0,019	86,561	0	1017,42	6,6	8,7	8,7	1	1	1	1	1	1	1	1	1	0	1	-10,852713	273,970566	308,594194	0
15.01.2021	21:21:05	0	0	2,71155	1,749	309,9708	0,023	86,571	0	1017,34	6,7	8,7	8,6	1	1	1	1	1	1	1	1	1	0	1	-6,624383	273,960193	312,774145	0
15.01.2021	21:21:06	0	0	3,050475	1,833	315,882	0,024	86,551	0	1017,34	6,7	8,7	8,7	1	1	1	1	1	1	1	1	1	0	1	-9,654686	274,034413	310,090102	0
15.01.2021	21:21:07	0	0	4,858164	1,81875	311,0796	0,026	86,572	0	1017,4	6,6	8,7	8,7	1	1	1	1	1	1	1	1	1	0	1	-10,711769	274,114893	309,408803	0
15.01.2021	21:21:08	0	0	4,858193	1,7625	311,8248	0,019	86,566	0	1017,38	6,7	8,7	8,6	1	1	1	1	1	1	1	1	1	0	1	-10,641297	274,099963	309,409542	0
15.01.2021	21:21:09	0	0	3,615378	1,66425	317,0916	0,016	86,565	0	1017,48	6,6	8,7	8,7	1	1	1	1	1	1	1	1	1	0	1	-8,45666	274,074611	311,475783	0
15.01.2021	21:21:10	0	0	4,293287	1,665	305,4672	0,02	86,564	0	1017,32	6,7	8,7	8,6	1	1	1	1	1	1	1	1	1	0	1	-10,570825	274,107427	309,514872	0
15.01.2021	21:21:11	0	0	2,146644	1,60575	305,406	0,024	86,568	0	1017,26	6,7	8,7	8,6	1	1	1	1	1	1	1	1	1	0	1	-9,936575	274,0359	309,815155	0
15.01.2021	21:21:12	0	0	3,276456	1,58325	301,6116	0,019	86,558	0	1017,34	6,7	8,7	8,6	1	1	1	1	1	1	1	1	1	0	1	-9,513742	273,964638	309,905516	0
15.01.2021	21:21:13	0	0	4,632203	1,53075	313,3044	0,024	86,552	0	1017,26	6,7	8,7	8,7	1	1	1	1	1	1	1	1	1	0	1	-8,80902	274,074611	311,123422	0
15.01.2021	21:21:14	0	0	2,598553	1,49625	307,6308	0,029	86,566	0	1017,22	6,7	8,6	8,7	1	1	1	1	1	1	1	1	1	0	1	-7,963354	273,989846	311,573484	0
15.01.2021	21:21:15	0	0	4,745184	1,491	298,3248	0,023	86,569	0	1017,4	6,7	8,7	8,7	1	1	1	1	1	1	1	1	1	0	1	-5,778717	273,927626	313,467967	0
15.01.2021	21:21:16	0	0	3,502419	1,5585	307,584	0,021	86,56	0	1017,3	6,7	8,6	8,6	1	1	1	1	1	1	1	1	1	0	1	-6,483439	274,019546	313,191968	0
15.01.2021	21:21:17	0	0	3,615378	1,6515	294,8148	0,023	86,565	0	1017,36	6,7	8,7	8,7	1	1	1	1	1	1	1	1	1	0	1	-11,980268	274,119373	308,161236	0
15.01.2021	21:21:18	0	0	2,937495	1,77	294,4944	0,027	86,57	0	1017,32	6,7	8,7	8,7	1	1	1	1	1	1	1	1	1	0	1	-8,45666	274,032925	311,281188	0
15.01.2021	21:21:19	0	0	4,858193	1,86	296,19	0,025	86,556	0	1017,32	6,7	8,6	8,6	1	1	1	1	1	1	1	1	1	0	1	-12,332629	273,970566	307,114279	0
15.01.2021	21:21:20	0	0	4,632203	2,01225	288,8928	0,027	86,555	0	1017,34	6,7	8,7	8,7	1	1	1	1	1	1	1	1	1	0	1	-11,06413	273,943903	308,258438	0
15.01.2021	21:21:21	0	0	5,084156	2,1465	304,3044	0,017	86,562	0	1017,18	6,7	8,7	8,6	1	1	1	1	1	1	1	1	1	0	1	-9,866103	274,079082	310,087219	0
15.01.2021	21:21:22	0	0	3,841339	2,244	299,8368	0,026	86,569	0	1017,38	6,7	8,7	8,7	1	1	1	1	1	1	1	1	1	0	1	-12,332629	274,114893	307,787943	0
15.01.2021	21:21:23	0	0	4,51925	2,27625	297,2304	0,022	86,55	0	1017,34	6,7	8,6	8,6	1	1	1	1	1	1	1	1	1	0	1	-9,725159	274,013602	309,922514	0
15.01.2021	21:21:24	0	0	4,406295	2,38875	301,6152	0,027	86,566	0	1017,26	6,7	8,6	8,5	1	1	1	1	1	1	1	1	1	0	1	-10,782241	273,949825	308,56794	0
15.01.2021	21:21:25	0	0	4,180281	2,40075	295,1856	0,018	86,557	0	1017,26	6,7	8,7	8,7	1	1	1	1	1	1	1	1	1	0	1	-8,738548	274,126844	311,437857	0
15.01.2021	21:21:26	0	0	4,067325	2,4405	296,8524	0,024	86,546	0	1017,22	6,7	8,7	8,6	1	1	1	1	1	1	1	1	1	0	1	-7,399577	274,085046	312,581594	0
15.01.2021	21:21:27	0	0	4,406268	2,523	300,186	0,022	86,556	0	1017,52	6,7	8,7	8,6	1	1	1	1	1	1	1	1	1	0	1	-6,765328	273,992814	312,785356	0
15.01.2021	21:21:28	0	0	4,632231	2,562	299,0628	0,019	86,546	0	1017,22	6,7	8,7	8,6	1	1	1	1	1	1	1	1	1	0	1	-6,131078	274,131328	314,066275	0
15.01.2021	21:21:29	0	0	5,084125	2,57925	303,4944	0,026	86,56	0	1017,18	6,7	8,7	8,7	1	1	1	1	1	1	1	1	1	0	1	-6,20155	274,064181	313,682195	0
15.01.2021	21:21:30	0	0	4,858193	2,5845	304,3044	0,026	86,552	0	1017,48	6,7	8,7	8,6	1	1	1	1	1	1	1	1	1	0	1	-9,584214	274,122361	310,571248	0
15.01.2021	21:21:31	0	0	3,389437	2,652	301,6224	0,029	86,561	0	1017,46	6,7	8,7	8,6	1	1	1	1	1	1	1	1	1	0	1	-5,567301	273,994298	313,990306	0
15.01.2021	21:21:32	0	0	3,841362	2,7345	301,6116	0,022	86,539	0	1017,28	6,7	8,7	8,6	1	1	1	1	1	1	1	1	1	0	1	-8,174771	273,977979	311,306712	0
15.01.2021	21:21:33	0	0	3,728359	2,757	300,4632	0,019	86,545	0	1017,18	6,6	8,7	8,7	1	1	1	1	1	1	1	1	1	0	1	-8,738548	273,935023	310,542619	0
15.01.2021	21:21:34	0	0	4,293261	2,739	302,742	0,021	86,542	0	1017,4	6,7	8,7	8,7	1	1	1	1	1	1	1	1	1	0	1	-7,892882	274,082064	312,074363	0
15.01.2021	21:21:35	0	0	3,389458	2,85225	297,306	0,031	86,568	0	1017,44	6,7	8,7	8,5	1	1	1	1	1	1	1	1	1	0	1	-7,258633	273,942422	312,057033	0
15.01.2021	21:21:36	0	0	4,406268	2,92275	300,3228	0,028	86,549	0	1017,2	6,7	8,7	8,6	1	1	1	1	1	1	1	1	1	0	1	-6,624383	274,074611	313,308059	0
15.01.2021	21:21:37	0	0	4,858193	2,96625	305,7552	0,028	86,536	0	1017,36	6,7	8,7	8,6	1	1	1	1	1	1	1	1	1	0	1	-8,597604	274,08952	311,40446	0
15.01.2021	21:21:38	0	0	2,711534	2,958	305,6868	0,021	86,538	0	1017,36	6,7	8,7	8,7	1	1	1	1	1	1	1	1	1	0	1	-10,007047	273,986879	309,515949	0
15.01.2021	21:21:39	0	0	4,406295	2,9085	306,774	0,026	86,547	0	1017,34	6,7	8,7	8,5	1	1	1	1	1	1	1	1	1	0	1	-6,342495	274,105934	313,736229	0
15.01.2021	21:21:40	0	0	2,937512	2,883	306,4284	0,031	86,546	0	1017,38	6,7	8,7	8,6	1	1	1	1	1	1	1	1	1	0	1	-9,725159	274,082064	310,242087	0
15.01.2021	21:21:41	0	0	2,372606	2,87475	305,3736	0,022	86,544	0	1017,36	6,7	8,7	8,6	1	1	1	1	1	1	1	1	1	0	1	-8,245243	273,932064	311,022129	0
15.01.2021	21:21:42	0	0	2,598569	2,82225	303,5484	0,028	86,55	0	1017,34	6,7	8,7	8,6	1	1	1	1	1	1	1	1	1	0	1	-6,976744	274,046314	312,823596	0
15.01.2021	21:21:43	0	0	4,745212	2,75775	308,4984	0,028	86,54	0	1017,42	6,7	8,7	8,6	1	1	1	1	1	1	1	1	1	0	1	-5,073996	273,946863	314,262377	0
15.01.2021	21:21:44	0	0	2,937495	2,63175	304,2504	0,022	86,536	0	1017,36	6,7	8,7	8,7	1	1	1	1	1	1	1	1	1	0	1	-11,557435	274,040363	308,215124	0
15.01.2021	21:21:45	0	0	4,406242	2,577	298,2672	0,022	86,552	0	1017,48	6,7	8,7	8,7	1	1	1	1	1	1	1	1	1	0	1	-7,892882	273,937982	311,402082	0
15.01.2021	21:21:46	0	0	4,180306	2,58	298,314	0,027	86,533	0	1017,42	6,7	8,7	8,6	1	1	1	1	1	1	1	1	1	0	1	-8,527132	274,056734	311,32185	0
15.01.2021	21:21:47	0	0	3,50244	2,49975	299,4048	0,027	86,537	0	1017,46	6,6	8,7	8,5	1	1	1	1	1	1	1	1	1	0	1	-3,805497	273,943903	315,517071	0
15.01.2021	21:21:48	0	0	4,180306	2,40675	291,1644	0,026	86,545	0	1017,44	6,7	8,7	8,6	1	1	1	1	1	1	1	1	1	0	1	-12,544045	274,06716	307,353611	0
15.01.2021	21:21:49	0	0	4,745212	2,41425	296,1432	0,027	86,554	0	1017,42	6,7	8,7	8,6	1	1	1	1	1	1	1	1	1	0	1	-6,976744	274,120867	313,171739	0
15.01.2021	21:21:50	0	0	2,598553	2,499	300,4848	0,025	86,557	0	1017,32	6,7	8,7	8,7	1	1	1	1	1	1	1	1	1	0	1	-8,597604	274,01806	311,070868	0
15.01.2021	21:21:51	0	0	2,485572	2,4735	290,88	0,027	86,548	0	1017,42	6,7	8,7	8,7	1	1	1	1	1	1	1	1	1	0	1	-5,990134	273,935023	313,291033	0
15.01.2021	21:21:52	0	0	2,71155	2,45775	297,2376	0,029	86,543	0	1017,26	6,7	8,7	8,6	1	1	1	1	1	1	1	1	1	0	1	-6,131078	274,043338	313,65537	0
15.01.2021	21:21:53	0	0	4,406242	2,45625	293,3028	0,024	86,519	0	1017,28	6,7	8,7	8,7	1	1	1	1	1	1	1	1	1	0	1	-9,090909	274,113399	311,022686	0
15.01.2021	21:21:54	0	0	3,841362	2,427	297,6696	0,028	86,546	0	1017,18	6,7	8,7	8,6	1	1	1	1	1	1	1	1	1	0	1	-5,496829	274,016574	314,16471	0
15.01.2021	21:21:55	0	0	3,95432	2,42775	301,6656	0,025	86,533	0	1017,28	6,6	8,7	8,7	1	1	1	1	1	1	1	1	1	0	1	-6,976744	274,123856	313,185698	0
15.01.2021	21:21:56	0	0	4,180281	2,36625	297,5436	0,029	86,545	0	1017,38	6,7	8,7	8,7	1	1	1	1	1	1	1	1	1	0	1	-11,205074	273,977979	308,276409	0
15.01.2021	21:21:57	0	0	3,389437	2,31225	295,1028	0,024	86,543	0	1017,3	6,7	8,7	8,6	1	1	1	1	1	1	1	1	1	0	1	-10,42988	273,992814	309,120803	0
15.01.2021	21:21:58	0	0	2,711534	2,22	302,85	0,027	86,545	0	1017,26	6,7	8,7	8,7	1	1	1	1	1	1	1	1	1	0	1	-7,610994	274,058223	312,24494	0
15.01.2021	21:21:59	0	0	2,824514	2,25675	293,3784	0,031	86,557	0	1017,64	6,7	8,6	8,7	1	1	1	1	1	1	1	1	1	0	1	-9,44327	273,955749	309,934534	0
15.01.2021	21:22:00	0	0	5,310118	2,325	303,8724	0,024	86,55	0	1017,4	6,7	8,7	8,6	1	1	1	1	1	1	1	1	1	0	1	-8,386187	273,951305	310,970898	0
15.01.2021	21:22:01	0	0	4,067325	2,4315	300,4236	0,028	86,534	0	1017,4	6,7	8,7	8,6	1	1	1	1	1	1	1	1	1	0	1	-8,597604	274,085046	311,383567	0
15.01.2021	21:22:02	0	0	3,728359	2,4735	298,2636	0,028	86,55	0	1017,36	6,7	8,7	8,7	1	1	1	1	1	1	1	1	1	0	1	-8,879493	273,935023	310,401674	0
15.01.2021	21:22:03	0	0	2,71155	2,553	305,6544	0,028	86,542	0	1017,16	6,7	8,7	8,6	1	1	1	1	1	1	1	1	1	0	1	-9,654686	273,989846	309,882152	0
15.01.2021	21:22:04	0	0	4,406242	2,8155	310,3236	0,03	86,555	0	1017,5	6,6	8,7	8,7	1	1	1	1	1	1	1	1	1	0	1	-7,329105	273,946863	312,007268	0
15.01.2021	21:22:05	0	0	2,71155	2,8845	295,1604	0,034	86,545	0	1017,26	6,6	8,7	8,6	1	1	1	1	1	1	1	1	1	0	1	-10,641297	274,012117	308,999444	0
15.01.2021	21:22:06	0	0	2,937512	2,81925	296,0748	0,03	86,552	0	1017,32	6,6	8,7	8,6	1	1	1	1	1	1	1	1	1	0	1	-13,03735	274,138803	307,19493	0
15.01.2021	21:22:07	0	0	4,51925	2,87025	301,608	0,029	86,553	0	1017,38	6,7	8,6	8,6	1	1	1	1	1	1	1	1	1	0	1	-10,007047	274,074611	309,925395	0
15.01.2021	21:22:08	0	0	3,954344	2,79975	298,2456	0,027	86,553	0	1017,3	6,7	8,7	8,6	1	1	1	1	1	1	1	1	1	0	1	-5,919662	273,954267	313,451235	0
15.01.2021	21:22:09	0	0	3,728381	2,679	307,2492	0,029	86,543	0	1017,38	6,7	8,7	8,6	1	1	1	1	1	1	1	1	1	0	1	-12,332629	273,982429	307,169608	0
15.01.2021	21:22:10	0	0	4,632203	2,63475	307,296	0,028	86,549	0	1017,36	6,6	8,7	8,7	1	1	1	1	1	1	1	1	1	0	1	-11,909796	274,107427	308,175901	0
15.01.2021	21:22:11	0	0	2,711566	2,47125	294,4548	0,027	86,555	0	1017,36	6,7	8,7	8,5	1	1	1	1	1	1	1	1	1	0	1	-11,486963	274,140298	308,752305	0
15.01.2021	21:22:12	0	0	2,37262	2,397	311,5368	0,028	86,53	0	1017,36	6,7	8,6	8,5	1	1	1	1	1	1	1	1	1	0	1	-11,06413	273,958711	308,32749	0
15.01.2021	21:22:13	0	0	3,6154	2,484	300,51	0,023	86,527	0	1017,34	6,6	8,7	8,6	1	1	1	1	1	1	1	1	1	0	1	-11,06413	274,029951	308,659837	0
15.01.2021	21:22:14	0	0	2,824531	2,53725	308,1636	0,027	86,547	0	1017,34	6,7	8,7	8,6	1	1	1	1	1	1	1	1	1	0	1	-6,272023	273,940942	313,036742	0
15.01.2021	21:22:15	0	0	3,163475	2,643	309,51	0,026	86,55	0	1017,38	6,7	8,7	8,6	1	1	1	1	1	1	1	1	1	0	1	-5,637773	274,025491	314,065379	0
15.01.2021	21:22:16	0	0	2,824514	2,721	308,88	0,028	86,537	0	1017,46	6,7	8,7	8,7	1	1	1	1	1	1	1	1	1	0	1	-11,768851	273,960193	307,629677	0
15.01.2021	21:22:17	0	0	4,293287	2,63775	313,1676	0,026	86,537	0	1017,2	6,7	8,7	8,6	1	1	1	1	1	1	1	1	1	0	1	-10,711769	274,040363	309,06079	0
15.01.2021	21:22:18	0	0	2,824514	2,55975	297,4788	0,023	86,548	0	1017,3	6,7	8,7	8,7	1	1	1	1	1	1	1	1	1	0	1	-14,517266	274,11788	305,61726	0
15.01.2021	21:22:19	0	0	3,276456	2,75025	299,4192	0,027	86,535	0	1017,32	6,7	8,7	8,6	1	1	1	1	1	1	1	1	1	0	1	-10,42988	274,062691	309,446912	0
15.01.2021	21:22:20	0	0	4,519277	2,829	302,3604	0,028	86,545	0	1017,48	6,7	8,7	8,5	1	1	1	1	1	1	1	1	1	0	1	-4,792107	273,949825	314,558073	0
15.01.2021	21:22:21	0	0	3,389437	2,829	308,0556	0,026	86,531	0	1017,4	6,6	8,7	8,6	1	1	1	1	1	1	1	1	1	0	1	-7,399577	274,050779	312,421606	0
15.01.2021	21:22:22	0	0	2,824531	2,76225	286,6572	0,025	86,539	0	1017,42	6,7	8,7	8,6	1	1	1	1	1	1	1	1	1	0	1	-4,651163	273,963156	314,761185	0
15.01.2021	21:22:23	0	0	2,259611	2,7975	299,3832	0,027	86,536	0	1017,4	6,6	8,7	8,7	1	1	1	1	1	1	1	1	1	0	1	-9,513742	273,961674	309,891696	0
15.01.2021	21:22:24	0	0	4,519223	2,76075	305,3592	0,031	86,536	0	1017,26	6,7	8,7	8,7	1	1	1	1	1	1	1	1	1	0	1	-11,205074	274,105934	308,87365	0
15.01.2021	21:22:25	0	0	2,485572	2,63475	306,7956	0,033	86,543	0	1017,34	6,7	8,7	8,7	1	1	1	1	1	1	1	1	1	0	1	-9,866103	274,07014	310,045466	0
15.01.2021	21:22:26	0	0	3,615378	2,637	307,2636	0,033	86,547	0	1017,36	6,7	8,7	8,7	1	1	1	1	1	1	1	1	1	0	1	-13,319239	274,135813	306,899069	0
15.01.2021	21:22:27	0	0	3,841339	2,7105	309,1896	0,033	86,557	0	1017,28	6,7	8,7	8,7	1	1	1	1	1	1	1	1	1	0	1	-9,372798	274,07312	310,552686	0
15.01.2021	21:22:28	0	0	3,502398	2,772	303,5808	0,03	86,535	0	1017,32	6,7	8,7	8,7	1	1	1	1	1	1	1	1	1	0	1	-12,262156	273,977979	307,219327	0
15.01.2021	21:22:29	0	0	4,971175	2,7885	306,1332	0,024	86,537	0	1017,28	6,7	8,7	8,6	1	1	1	1	1	1	1	1	1	0	1	-10,077519	274,056734	309,771463	0
15.01.2021	21:22:30	0	0	2,598569	2,73	304,6428	0,027	86,526	0	1017,4	6,7	8,7	8,6	1	1	1	1	1	1	1	1	1	0	1	-6,8358	273,933543	312,438469	0
15.01.2021	21:22:31	0	0	5,084125	2,76	303,2208	0,031	86,541	0	1017,3	6,7	8,7	8,7	1	1	1	1	1	1	1	1	1	0	1	-13,883016	274,128339	306,300371	0
15.01.2021	21:22:32	0	0	4,519223	2,883	302,3316	0,033	86,54	0	1017,48	6,6	8,7	8,7	1	1	1	1	1	1	1	1	1	0	1	-5,919662	274,074611	314,012781	0
15.01.2021	21:22:33	0	0	5,310087	3,11775	308,4516	0,026	86,53	0	1017,18	6,6	8,7	8,7	1	1	1	1	1	1	1	1	1	0	1	-7,610994	273,989846	311,925845	0
15.01.2021	21:22:34	0	0	3,728359	3,1335	302,0364	0,032	86,541	0	1017,24	6,6	8,7	8,7	1	1	1	1	1	1	1	1	1	0	1	-8,45666	274,134318	311,754663	0
15.01.2021	21:22:35	0	0	2,71155	3,177	312,8616	0,026	86,538	0	1017,24	6,7	8,7	8,6	1	1	1	1	1	1	1	1	1	0	1	-7,470049	273,985395	312,046026	0
15.01.2021	21:22:36	0	0	2,372592	3,13725	301,1976	0,028	86,533	0	1017,34	6,7	8,7	8,7	1	1	1	1	1	1	1	1	1	0	1	-9,44327	273,958711	309,94835	0
15.01.2021	21:22:37	0	0	3,389437	3,072	307,278	0,027	86,529	0	1017,1	6,6	8,7	8,6	1	1	1	1	1	1	1	1	1	0	1	-11,839323	274,022518	307,849955	0
15.01.2021	21:22:38	0	0	3,163494	3,0285	311,4144	0,032	86,544	0	1017,34	6,7	8,7	8,5	1	1	1	1	1	1	1	1	1	0	1	-8,174771	273,963156	311,237577	0
15.01.2021	21:22:39	0	0	3,6154	3,03	309,2256	0,03	86,545	0	1017,42	6,7	8,7	8,6	1	1	1	1	1	1	1	1	1	0	1	-10,147992	274,111906	309,958628	0
15.01.2021	21:22:40	0	0	4,971145	2,98575	308,1096	0,029	86,538	0	1017,34	6,7	8,7	8,7	1	1	1	1	1	1	1	1	1	0	1	-6,272023	274,123856	313,89042	0
15.01.2021	21:22:41	0	0	3,276436	2,9055	300,1248	0,027	86,541	0	1017,26	6,7	8,7	8,7	1	1	1	1	1	1	1	1	1	0	1	-6,483439	274,07163	313,435087	0
15.01.2021	21:22:42	0	0	4,51925	2,8845	309,564	0,028	86,547	0	1017,28	6,6	8,7	8,6	1	1	1	1	1	1	1	1	1	0	1	-5,778717	273,955749	313,599087	0
15.01.2021	21:22:43	0	0	4,293287	2,8605	309,2472	0,029	86,539	0	1017,34	6,7	8,7	8,6	1	1	1	1	1	1	1	1	1	0	1	-8,315715	274,034413	311,429073	0
15.01.2021	21:22:44	0	0	3,389417	2,74275	309,9204	0,026	86,537	0	1017,42	6,7	8,7	8,7	1	1	1	1	1	1	1	1	1	0	1	-7,188161	273,946863	312,148212	0
15.01.2021	21:22:45	0	0	3,389417	2,71575	307,1736	0,026	86,538	0	1017,42	6,7	8,7	8,7	1	1	1	1	1	1	1	1	1	0	1	-6,060606	274,07312	313,864878	0
15.01.2021	21:22:46	0	0	3,050475	2,7015	314,874	0,031	86,522	0	1017,3	6,7	8,7	8,7	1	1	1	1	1	1	1	1	1	0	1	-8,45666	273,95723	310,928052	0
15.01.2021	21:22:47	0	0	2,937495	2,7105	314,838	0,028	86,52	0	1017,36	6,6	8,7	8,7	1	1	1	1	1	1	1	1	1	0	1	-8,315715	274,062691	311,561076	0
15.01.2021	21:22:48	0	0	3,615378	2,81625	312,426	0,033	86,539	0	1017,28	6,6	8,7	8,7	1	1	1	1	1	1	1	1	1	0	1	-8,668076	274,138803	311,564204	0
15.01.2021	21:22:49	0	0	4,180281	2,79525	313,704	0,027	86,527	0	1017,12	6,7	8,7	8,7	1	1	1	1	1	1	1	1	1	0	1	-9,372798	274,021032	310,309544	0
15.01.2021	21:22:50	0	0	2,485602	2,727	307,5372	0,033	86,534	0	1017,32	6,6	8,7	8,5	1	1	1	1	1	1	1	1	1	0	1	-6,906272	274,128339	313,277115	0
15.01.2021	21:22:51	0	0	4,632231	2,73975	316,6704	0,022	86,538	0	1017,32	6,6	8,7	8,6	1	1	1	1	1	1	1	1	1	0	1	-5,285412	274,06865	314,6192	0
15.01.2021	21:22:52	0	0	4,180281	2,71875	312,4368	0,033	86,527	0	1017,36	6,7	8,7	8,7	1	1	1	1	1	1	1	1	1	0	1	-6,765328	274,135813	313,45298	0
15.01.2021	21:22:53	0	0	3,502398	2,63025	306,8172	0,031	86,528	0	1017,48	6,7	8,7	8,7	1	1	1	1	1	1	1	1	1	0	1	-6,976744	274,050779	312,844439	0
15.01.2021	21:22:54	0	0	3,615378	2,5845	311,3424	0,033	86,546	0	1017,3	6,6	8,7	8,7	1	1	1	1	1	1	1	1	1	0	1	-9,44327	273,958711	309,94835	0
15.01.2021	21:22:55	0	0	3,050494	2,649	314,478	0,034	86,528	0	1017,26	6,7	8,7	8,6	1	1	1	1	1	1	1	1	1	0	1	-7,963354	273,977979	311,518129	0
15.01.2021	21:22:56	0	0	4,632203	2,72625	313,5564	0,028	86,54	0	1017,44	6,7	8,7	8,7	1	1	1	1	1	1	1	1	1	0	1	-13,6716	274,108919	306,421071	0
15.01.2021	21:22:57	0	0	3,389417	2,8335	316,8252	0,03	86,533	0	1017,38	6,7	8,7	8,7	1	1	1	1	1	1	1	1	1	0	1	-11,346018	274,015088	308,308587	0
15.01.2021	21:22:58	0	0	4,067325	2,778	308,8656	0,033	86,525	0	1017,3	6,7	8,7	8,6	1	1	1	1	1	1	1	1	1	0	1	-13,601128	273,963156	305,81122	0
15.01.2021	21:22:59	0	0	2,711566	2,7585	313,1928	0,026	86,524	0	1017,3	6,6	8,7	8,5	1	1	1	1	1	1	1	1	1	0	1	-7,188161	274,013602	312,459512	0
15.01.2021	21:23:00	0	0	4,745184	2,70975	316,2456	0,029	86,512	0	1017,3	6,6	8,7	8,7	1	1	1	1	1	1	1	1	1	0	1	-9,372798	274,132823	310,83154	0
15.01.2021	21:23:01	0	0	4,632203	2,64825	308,8368	0,036	86,519	0	1017,36	6,6	8,7	8,7	1	1	1	1	1	1	1	1	1	0	1	-4,721635	274,06716	315,176021	0
15.01.2021	21:23:02	0	0	4,180281	2,59425	311,6232	0,025	86,522	0	1017,34	6,7	8,7	8,7	1	1	1	1	1	1	1	1	1	0	1	-7,258633	273,960193	312,139895	0
15.01.2021	21:23:03	0	0	4,632203	2,58	304,722	0,032	86,518	0	1017,34	6,6	8,7	8,7	1	1	1	1	1	1	1	1	1	0	1	-9,725159	273,994298	309,832449	0
15.01.2021	21:23:04	0	0	4,971175	2,5155	315,2304	0,034	86,528	0	1017,34	6,6	8,7	8,6	1	1	1	1	1	1	1	1	1	0	1	-7,751938	274,119373	312,389566	0
15.01.2021	21:23:05	0	0	4,745184	2,4885	310,3632	0,025	86,515	0	1017,24	6,6	8,6	8,7	1	1	1	1	1	1	1	1	1	0	1	-10,077519	274,122361	310,077943	0
15.01.2021	21:23:06	0	0	3,163475	2,4735	317,0124	0,031	86,514	0	1017,38	6,7	8,6	8,6	1	1	1	1	1	1	1	1	1	0	1	-13,953488	274,138803	306,278792	0
15.01.2021	21:23:07	0	0	4,180281	2,44575	313,2144	0,029	86,501	0	1017,24	6,6	8,6	8,7	1	1	1	1	1	1	1	1	1	0	1	-9,302326	274,024005	310,393889	0
15.01.2021	21:23:08	0	0	4,745212	2,3625	312,138	0,033	86,522	0	1017,26	6,7	8,7	8,6	1	1	1	1	1	1	1	1	1	0	1	-8,315715	274,113399	311,79788	0
15.01.2021	21:23:09	0	0	2,485587	2,33325	309,9384	0,032	86,523	0	1017,42	6,6	8,7	8,6	1	1	1	1	1	1	1	1	1	0	1	-6,412967	274,137308	313,812327	0
15.01.2021	21:23:10	0	0	4,971175	2,34525	301,176	0,032	86,525	0	1017,46	6,6	8,7	8,6	1	1	1	1	1	1	1	1	1	0	1	-7,963354	274,126844	312,213051	0
15.01.2021	21:23:11	0	0	4,293287	2,24175	310,9644	0,032	86,525	0	1017,4	6,6	8,7	8,6	1	1	1	1	1	1	1	1	1	0	1	-9,584214	274,01806	310,084258	0
15.01.2021	21:23:12	0	0	2,259611	2,20425	294,2028	0,03	86,514	0	1017,34	6,6	8,7	8,7	1	1	1	1	1	1	1	1	1	0	1	-10,852713	273,960193	308,545815	0
15.01.2021	21:23:13	0	0	4,858164	2,19675	297,8964	0,033	86,528	0	1017,44	6,7	8,7	8,7	1	1	1	1	1	1	1	1	1	0	1	-11,134602	274,006175	308,478417	0
15.01.2021	21:23:14	0	0	2,372606	2,09175	294,0444	0,028	86,516	0	1017,3	6,6	8,7	8,6	1	1	1	1	1	1	1	1	1	0	1	-14,517266	274,152266	305,777925	0
15.01.2021	21:23:15	0	0	2,711566	2,0235	291,456	0,032	86,526	0	1017,32	6,6	8,7	8,5	1	1	1	1	1	1	1	1	1	0	1	-8,174771	274,056734	311,674211	0
15.01.2021	21:23:16	0	0	4,632203	1,94625	302,1588	0,03	86,528	0	1017,3	6,6	8,7	8,7	1	1	1	1	1	1	1	1	1	0	1	-8,80902	273,951305	310,548065	0
15.01.2021	21:23:17	0	0	2,485587	1,85925	310,2948	0,03	86,517	0	1017,3	6,7	8,7	8,6	1	1	1	1	1	1	1	1	1	0	1	-9,161381	274,06716	310,736275	0
15.01.2021	21:23:18	0	0	3,502398	1,779	306,8496	0,035	86,525	0	1017,32	6,7	8,7	8,7	1	1	1	1	1	1	1	1	1	0	1	-13,248767	273,976497	306,2258	0
15.01.2021	21:23:19	0	0	3,163456	1,7955	298,7604	0,031	86,518	0	1017,42	6,6	8,7	8,7	1	1	1	1	1	1	1	1	1	0	1	-5,990134	274,074611	313,942308	0
15.01.2021	21:23:20	0	0	2,485572	1,80675	299,9052	0,029	86,526	0	1017,24	6,6	8,7	8,7	1	1	1	1	1	1	1	1	1	0	1	-8,104299	274,131328	312,093055	0
15.01.2021	21:23:21	0	0	4,632259	1,815	299,4264	0,029	86,51	0	1017,3	6,6	8,7	8,5	1	1	1	1	1	1	1	1	1	0	1	-11,06413	274,046314	308,73621	0
15.01.2021	21:23:22	0	0	2,372606	1,84725	302,148	0,029	86,518	0	1017,3	6,6	8,7	8,6	1	1	1	1	1	1	1	1	1	0	1	-8,245243	274,141794	312,001013	0
15.01.2021	21:23:23	0	0	4,745212	1,812	302,112	0,036	86,525	0	1017,24	6,7	8,7	8,6	1	1	1	1	1	1	1	1	1	0	1	-11,557435	274,019546	308,117972	0
15.01.2021	21:23:24	0	0	3,276436	1,81125	300,4344	0,034	86,521	0	1017,22	6,6	8,7	8,7	1	1	1	1	1	1	1	1	1	0	1	-9,795631	273,969084	309,644364	0
15.01.2021	21:23:25	0	0	2,598584	1,84575	294,1164	0,035	86,52	0	1017,38	6,7	8,7	8,5	1	1	1	1	1	1	1	1	1	0	1	-9,936575	274,059713	309,926311	0
15.01.2021	21:23:26	0	0	4,971145	1,872	308,4984	0,033	86,526	0	1017,52	6,7	8,7	8,7	1	1	1	1	1	1	1	1	1	0	1	-6,20155	274,113399	313,912045	0
15.01.2021	21:23:27	0	0	4,745184	1,8975	304,7508	0,027	86,504	0	1017,26	6,6	8,7	8,7	1	1	1	1	1	1	1	1	1	0	1	-12,614517	274,099963	307,436321	0
15.01.2021	21:23:28	0	0	4,519223	1,92	303,1776	0,029	86,507	0	1017,28	6,6	8,7	8,7	1	1	1	1	1	1	1	1	1	0	1	-7,329105	274,11788	312,805421	0
15.01.2021	21:23:29	0	0	2,824548	1,91625	301,9788	0,036	86,511	0	1017,44	6,7	8,7	8,5	1	1	1	1	1	1	1	1	1	0	1	-8,80902	274,083555	311,165187	0
15.01.2021	21:23:30	0	0	3,163456	1,90125	305,3232	0,034	86,528	0	1017,32	6,6	8,7	8,7	1	1	1	1	1	1	1	1	1	0	1	-11,346018	274,134318	308,865304	0
15.01.2021	21:23:31	0	0	3,276436	1,9155	306,8208	0,033	86,507	0	1017,46	6,7	8,7	8,7	1	1	1	1	1	1	1	1	1	0	1	-5,073996	274,046314	314,726344	0
15.01.2021	21:23:32	0	0	3,50244	1,88175	302,4684	0,034	86,524	0	1017,32	6,6	8,7	8,5	1	1	1	1	1	1	1	1	1	0	1	-8,80902	274,135813	311,409287	0
15.01.2021	21:23:33	0	0	3,276456	1,84425	304,308	0,031	86,525	0	1017,4	6,7	8,7	8,6	1	1	1	1	1	1	1	1	1	0	1	-8,949965	274,038875	310,815651	0
15.01.2021	21:23:34	0	0	2,259625	1,764	315,4644	0,032	86,528	0	1017,38	6,6	8,7	8,6	1	1	1	1	1	1	1	1	1	0	1	-5,355884	274,135813	314,862423	0
15.01.2021	21:23:35	0	0	4,519223	1,7565	297,2088	0,035	86,519	0	1017,32	6,7	8,6	8,7	1	1	1	1	1	1	1	1	1	0	1	-9,795631	274,079082	310,157691	0
15.01.2021	21:23:36	0	0	2,711534	1,81575	311,0688	0,031	86,517	0	1017,42	6,7	8,7	8,7	1	1	1	1	1	1	1	1	1	0	1	-7,258633	274,146281	313,008591	0
15.01.2021	21:23:37	0	0	4,745212	1,82475	306,4716	0,031	86,517	0	1017,38	6,7	8,6	8,6	1	1	1	1	1	1	1	1	1	0	1	-6,694856	274,025491	313,008296	0
15.01.2021	21:23:38	0	0	3,615421	1,8945	310,6476	0,032	86,506	0	1017,32	6,6	8,7	8,5	1	1	1	1	1	1	1	1	1	0	1	-8,245243	274,146281	312,021981	0
15.01.2021	21:23:39	0	0	3,163456	1,944	311,1372	0,039	86,524	0	1017,44	6,7	8,7	8,7	1	1	1	1	1	1	1	1	1	0	1	-10,782241	274,083555	309,191967	0
15.01.2021	21:23:40	0	0	4,293287	1,94325	306,4968	0,038	86,525	0	1017,38	6,6	8,7	8,6	1	1	1	1	1	1	1	1	1	0	1	-7,117689	273,967602	312,315393	0
15.01.2021	21:23:41	0	0	4,51925	1,93875	310,68	0,034	86,522	0	1017,28	6,7	8,7	8,6	1	1	1	1	1	1	1	1	1	0	1	-10,500352	274,14329	309,752892	0
15.01.2021	21:23:42	0	0	3,050494	1,9425	306,4212	0,026	86,507	0	1017,22	6,7	8,7	8,6	1	1	1	1	1	1	1	1	1	0	1	-6,906272	274,024005	312,789943	0
15.01.2021	21:23:43	0	0	2,824514	1,8705	312,1596	0,033	86,518	0	1017,3	6,6	8,7	8,7	1	1	1	1	1	1	1	1	1	0	1	-8,879493	274,14329	311,373752	0
15.01.2021	21:23:44	0	0	3,6154	1,93275	310,6332	0,033	86,526	0	1017,54	6,6	8,7	8,6	1	1	1	1	1	1	1	1	1	0	1	-9,372798	274,037387	310,385875	0
15.01.2021	21:23:45	0	0	2,824514	2,00025	317,6784	0,036	86,502	0	1017,38	6,6	8,7	8,7	1	1	1	1	1	1	1	1	1	0	1	-8,527132	273,964638	310,892127	0
15.01.2021	21:23:46	0	0	4,971145	1,95	295,5492	0,034	86,516	0	1017,4	6,6	8,6	8,7	1	1	1	1	1	1	1	1	1	0	1	-8,879493	274,110413	311,220152	0
15.01.2021	21:23:47	0	0	2,485572	1,93425	291,6864	0,035	86,513	0	1017,22	6,6	8,7	8,7	1	1	1	1	1	1	1	1	1	0	1	-10,711769	274,107427	309,373928	0
15.01.2021	21:23:48	0	0	3,954344	1,9725	287,748	0,034	86,521	0	1017,36	6,6	8,7	8,6	1	1	1	1	1	1	1	1	1	0	1	-4,933051	273,995783	314,63148	0
15.01.2021	21:23:49	0	0	4,858193	1,93275	298,7316	0,032	86,519	0	1017,3	6,6	8,7	8,6	1	1	1	1	1	1	1	1	1	0	1	-13,107822	274,034413	306,636966	0
15.01.2021	21:23:50	0	0	4,858164	1,94175	289,692	0,038	86,529	0	1017,48	6,6	8,7	8,7	1	1	1	1	1	1	1	1	1	0	1	-10,359408	274,141794	309,886848	0
15.01.2021	21:23:51	0	0	5,197168	1,9695	290,1276	0,028	86,513	0	1017,32	6,7	8,7	8,5	1	1	1	1	1	1	1	1	1	0	1	-9,302326	274,034413	310,442463	0
15.01.2021	21:23:52	0	0	2,71155	1,98825	288,8784	0,034	86,513	0	1017,28	6,6	8,6	8,6	1	1	1	1	1	1	1	1	1	0	1	-11,205074	274,152266	309,090117	0
15.01.2021	21:23:53	0	0	3,050475	1,95825	289,2384	0,029	86,489	0	1017,46	6,7	8,7	8,7	1	1	1	1	1	1	1	1	1	0	1	-11,980268	274,053757	307,854813	0
15.01.2021	21:23:54	0	0	3,728381	1,8825	298,62	0,028	86,512	0	1017,32	6,7	8,7	8,6	1	1	1	1	1	1	1	1	1	0	1	-10,147992	274,156756	310,168181	0
15.01.2021	21:23:55	0	0	3,389437	1,83225	309,5568	0,031	86,517	0	1017,38	6,6	8,7	8,6	1	1	1	1	1	1	1	1	1	0	1	-9,44327	273,998751	310,135112	0
15.01.2021	21:23:56	0	0	4,293287	1,7175	304,2972	0,033	86,494	0	1017,46	6,6	8,7	8,6	1	1	1	1	1	1	1	1	1	0	1	-9,725159	273,95723	309,659553	0
15.01.2021	21:23:57	0	0	2,824514	1,61925	320,76	0,034	86,514	0	1017,28	6,6	8,7	8,7	1	1	1	1	1	1	1	1	1	0	1	-9,795631	274,012117	309,84511	0
15.01.2021	21:23:58	0	0	3,389417	1,4865	321,0876	0,032	86,521	0	1017,44	6,6	8,7	8,7	1	1	1	1	1	1	1	1	1	0	1	-13,248767	274,131328	306,948587	0
15.01.2021	21:23:59	0	0	3,163475	1,47825	288,4608	0,037	86,506	0	1017,42	6,6	8,6	8,6	1	1	1	1	1	1	1	1	1	0	1	-9,725159	273,994298	309,832449	0
15.01.2021	21:24:00	0	0	4,971175	1,5285	302,778	0,032	86,521	0	1017,36	6,7	8,7	8,6	1	1	1	1	1	1	1	1	1	0	1	-10,852713	274,009146	308,774165	0
15.01.2021	21:24:01	0	0	4,180306	1,53075	309,2364	0,034	86,503	0	1017,34	6,6	8,7	8,6	1	1	1	1	1	1	1	1	1	0	1	-9,936575	274,098471	310,107294	0
15.01.2021	21:24:02	0	0	4,519223	1,5255	311,8176	0,037	86,523	0	1017,34	6,6	8,7	8,7	1	1	1	1	1	1	1	1	1	0	1	-8,245243	274,088029	311,749856	0
15.01.2021	21:24:03	0	0	3,841339	1,554	315,1656	0,038	86,512	0	1017,42	6,7	8,7	8,7	1	1	1	1	1	1	1	1	1	0	1	-7,399577	273,954267	311,97132	0
15.01.2021	21:24:04	0	0	4,745184	1,52775	320,3784	0,035	86,521	0	1017,3	6,7	8,7	8,7	1	1	1	1	1	1	1	1	1	0	1	-7,82241	274,055245	312,019621	0
15.01.2021	21:24:05	0	0	4,519223	1,49625	314,3772	0,032	86,514	0	1017,38	6,7	8,7	8,7	1	1	1	1	1	1	1	1	1	0	1	-8,45666	274,140298	311,782608	0
15.01.2021	21:24:06	0	0	4,0673	1,53525	308,52	0,036	86,523	0	1017,4	6,6	8,7	8,7	1	1	1	1	1	1	1	1	1	0	1	-7,751938	274,12535	312,417486	0
15.01.2021	21:24:07	0	0	2,711534	1,692	314,748	0,031	86,518	0	1017,32	6,6	8,7	8,7	1	1	1	1	1	1	1	1	1	0	1	-9,654686	274,031438	310,07622	0
15.01.2021	21:24:08	0	0	3,050475	1,88175	314,8272	0,03	86,495	0	1017,42	6,6	8,7	8,7	1	1	1	1	1	1	1	1	1	0	1	-11,698379	273,967602	307,734703	0
15.01.2021	21:24:09	0	0	3,389437	1,881	322,2504	0,035	86,519	0	1017,46	6,7	8,7	8,6	1	1	1	1	1	1	1	1	1	0	1	-6,906272	274,076101	313,03313	0
15.01.2021	21:24:10	0	0	4,745184	1,8315	307,2492	0,03	86,505	0	1017,36	6,7	8,6	8,7	1	1	1	1	1	1	1	1	1	0	1	-9,584214	273,958711	309,807405	0
15.01.2021	21:24:11	0	0	3,841339	1,842	320,0904	0,03	86,502	0	1017,36	6,6	8,7	8,7	1	1	1	1	1	1	1	1	1	0	1	-10,147992	274,026978	309,562098	0
15.01.2021	21:24:12	0	0	2,824514	1,83375	315,2376	0,03	86,507	0	1017,48	6,7	8,6	8,7	1	1	1	1	1	1	1	1	1	0	1	-11,275546	273,95723	308,109165	0
15.01.2021	21:24:13	0	0	4,519223	1,78725	325,4868	0,033	86,515	0	1017,44	6,6	8,7	8,7	1	1	1	1	1	1	1	1	1	0	1	-7,610994	274,116386	312,516555	0
15.01.2021	21:24:14	0	0	4,406268	1,776	304,5708	0,026	86,502	0	1017,22	6,6	8,6	8,6	1	1	1	1	1	1	1	1	1	0	1	-11,627907	274,126844	308,548498	0
15.01.2021	21:24:15	0	0	4,406268	1,806	315,4068	0,029	86,504	0	1017,3	6,6	8,7	8,6	1	1	1	1	1	1	1	1	1	0	1	-10,852713	274,028464	308,864315	0
15.01.2021	21:24:16	0	0	2,93753	1,896	314,0244	0,031	86,488	0	1017,3	6,6	8,7	8,5	1	1	1	1	1	1	1	1	1	0	1	-4,933051	273,992814	314,617632	0
15.01.2021	21:24:17	0	0	3,389437	1,8585	309,4812	0,034	86,509	0	1017,46	6,6	8,7	8,6	1	1	1	1	1	1	1	1	1	0	1	-8,386187	273,986879	311,136808	0
15.01.2021	21:24:18	0	0	3,050475	1,872	305,424	0,035	86,498	0	1017,38	6,6	8,7	8,7	1	1	1	1	1	1	1	1	1	0	1	-11,134602	273,961674	308,270836	0
15.01.2021	21:24:19	0	0	2,485572	1,848	306,9036	0,036	86,513	0	1017,36	6,7	8,6	8,7	1	1	1	1	1	1	1	1	1	0	1	-9,795631	273,998751	309,782751	0
15.01.2021	21:24:20	0	0	3,95432	1,77075	305,064	0,03	86,504	0	1017,32	6,6	8,7	8,7	1	1	1	1	1	1	1	1	1	0	1	-8,245243	274,110413	311,854402	0
15.01.2021	21:24:21	0	0	3,615378	1,6695	310,6656	0,027	86,503	0	1017,5	6,7	8,7	8,7	1	1	1	1	1	1	1	1	1	0	1	-8,949965	274,074611	310,982478	0
15.01.2021	21:24:22	0	0	4,858193	1,58625	309,9348	0,032	86,504	0	1017,44	6,7	8,6	8,6	1	1	1	1	1	1	1	1	1	0	1	-8,80902	274,111906	311,297599	0
15.01.2021	21:24:23	0	0	3,728359	1,5135	303,8688	0,031	86,502	0	1017,3	6,7	8,7	8,7	1	1	1	1	1	1	1	1	1	0	1	-6,412967	273,960193	312,985561	0
15.01.2021	21:24:24	0	0	2,259638	1,5075	310,266	0,039	86,514	0	1017,46	6,6	8,7	8,5	1	1	1	1	1	1	1	1	1	0	1	-9,372798	274,010631	310,261011	0
15.01.2021	21:24:25	0	0	4,293261	1,63425	306,4824	0,03	86,516	0	1017,3	6,7	8,7	8,7	1	1	1	1	1	1	1	1	1	0	1	-10,993658	273,958711	308,397962	0
15.01.2021	21:24:26	0	0	4,971145	1,8585	307,1484	0,029	86,506	0	1017,44	6,6	8,7	8,7	1	1	1	1	1	1	1	1	1	0	1	-9,020437	274,12535	311,148987	0
15.01.2021	21:24:27	0	0	3,615378	1,88025	323,6688	0,03	86,484	0	1017,38	6,7	8,7	8,7	1	1	1	1	1	1	1	1	1	0	1	-10,288936	274,091012	309,720094	0
15.01.2021	21:24:28	0	0	4,858164	1,8525	324,3672	0,035	86,508	0	1017,38	6,6	8,7	8,7	1	1	1	1	1	1	1	1	1	0	1	-8,668076	274,114893	311,452495	0
15.01.2021	21:24:29	0	0	3,6154	1,8135	316,9944	0,037	86,5	0	1017,48	6,6	8,7	8,6	1	1	1	1	1	1	1	1	1	0	1	-6,624383	274,113399	313,489212	0
15.01.2021	21:24:30	0	0	3,728381	1,74675	317,3688	0,031	86,511	0	1017,24	6,7	8,7	8,6	1	1	1	1	1	1	1	1	1	0	1	-7,681466	273,983912	311,82769	0
15.01.2021	21:24:31	0	0	2,711534	1,73475	318,5172	0,037	86,507	0	1017,26	6,6	8,7	8,7	1	1	1	1	1	1	1	1	1	0	1	-11,205074	273,970566	308,241834	0
15.01.2021	21:24:32	0	0	3,6154	1,76325	311,4144	0,033	86,504	0	1017,36	6,7	8,7	8,6	1	1	1	1	1	1	1	1	1	0	1	-11,41649	273,995783	308,148041	0
15.01.2021	21:24:33	0	0	2,824514	1,764	316,9908	0,035	86,507	0	1017,34	6,7	8,7	8,7	1	1	1	1	1	1	1	1	1	0	1	-8,033827	273,95723	311,350885	0
15.01.2021	21:24:34	0	0	4,632203	1,7955	318,4596	0,035	86,505	0	1017,36	6,7	8,7	8,7	1	1	1	1	1	1	1	1	1	0	1	-9,44327	274,077591	310,503092	0
15.01.2021	21:24:35	0	0	4,971175	1,7805	316,9728	0,035	86,498	0	1017,38	6,6	8,7	8,6	1	1	1	1	1	1	1	1	1	0	1	-14,164905	274,132823	306,039433	0
15.01.2021	21:24:36	0	0	2,372592	1,79625	310,698	0,038	86,501	0	1017,34	6,6	8,7	8,7	1	1	1	1	1	1	1	1	1	0	1	-7,610994	274,013602	312,036679	0
15.01.2021	21:24:37	0	0	4,51925	1,737	324,3564	0,032	86,497	0	1017,36	6,7	8,7	8,6	1	1	1	1	1	1	1	1	1	0	1	-7,470049	274,140298	312,769219	0
15.01.2021	21:24:38	0	0	3,841339	1,80675	328,932	0,033	86,488	0	1017,32	6,7	8,7	8,7	1	1	1	1	1	1	1	1	1	0	1	-6,412967	274,085046	313,568204	0
15.01.2021	21:24:39	0	0	4,406242	1,91475	322,0956	0,031	86,49	0	1017,42	6,6	8,7	8,7	1	1	1	1	1	1	1	1	1	0	1	-8,597604	274,119373	311,5439	0
15.01.2021	21:24:40	0	0	2,937495	1,93425	332,082	0,038	86,51	0	1017,42	6,6	8,7	8,7	1	1	1	1	1	1	1	1	1	0	1	-10,42988	274,140298	309,809388	0
15.01.2021	21:24:41	0	0	4,519223	1,92675	327,4272	0,036	86,5	0	1017,38	6,7	8,7	8,7	1	1	1	1	1	1	1	1	1	0	1	-5,919662	274,013602	313,728011	0
15.01.2021	21:24:42	0	0	3,728359	1,84875	329,2344	0,034	86,494	0	1017,32	6,6	8,7	8,7	1	1	1	1	1	1	1	1	1	0	1	-9,584214	274,102948	310,480566	0
15.01.2021	21:24:43	0	0	4,180306	1,746	325,6344	0,033	86,491	0	1017,28	6,7	8,7	8,6	1	1	1	1	1	1	1	1	1	0	1	-6,553911	274,128339	313,629476	0
15.01.2021	21:24:44	0	0	3,728359	1,6905	313,2216	0,035	86,501	0	1017,38	6,6	8,7	8,7	1	1	1	1	1	1	1	1	1	0	1	-7,681466	273,99133	311,862295	0
15.01.2021	21:24:45	0	0	2,824531	1,64625	321,9048	0,036	86,496	0	1017,34	6,6	8,7	8,6	1	1	1	1	1	1	1	1	1	0	1	-5,637773	274,01806	314,030699	0
15.01.2021	21:24:46	0	0	4,51925	1,5525	295,6032	0,03	86,503	0	1017,36	6,6	8,7	8,6	1	1	1	1	1	1	1	1	1	0	1	-9,725159	274,15077	310,563039	0
15.01.2021	21:24:47	0	0	3,276436	1,53225	287,0496	0,036	86,48	0	1017,28	6,6	8,6	8,7	1	1	1	1	1	1	1	1	1	0	1	-10,218464	274,025491	309,484688	0
15.01.2021	21:24:48	0	0	3,841339	1,45725	279,4788	0,033	86,484	0	1017,34	6,7	8,6	8,7	1	1	1	1	1	1	1	1	1	0	1	-6,060606	274,107427	314,025091	0
15.01.2021	21:24:49	0	0	2,824514	1,33275	290,0628	0,034	86,491	0	1017,4	6,6	8,7	8,7	1	1	1	1	1	1	1	1	1	0	1	-8,597604	274,108919	311,495066	0
15.01.2021	21:24:50	0	0	2,485572	1,272	297,5292	0,039	86,482	0	1017,32	6,7	8,7	8,7	1	1	1	1	1	1	1	1	1	0	1	-6,060606	274,144785	314,199628	0
15.01.2021	21:24:51	0	0	4,632203	1,23075	291,8592	0,03	86,478	0	1017,3	6,7	8,7	8,7	1	1	1	1	1	1	1	1	1	0	1	-4,439746	274,06865	315,464866	0
15.01.2021	21:24:52	0	0	2,711534	1,242	288,1404	0,037	86,499	0	1017,52	6,7	8,7	8,7	1	1	1	1	1	1	1	1	1	0	1	-8,245243	274,126844	311,931162	0
15.01.2021	21:24:53	0	0	3,163475	1,23375	300,24	0,036	86,487	0	1017,26	6,7	8,7	8,6	1	1	1	1	1	1	1	1	1	0	1	-9,302326	274,06567	310,588375	0
15.01.2021	21:24:54	0	0	3,050494	1,2345	310,3344	0,038	86,49	0	1017,44	6,7	8,7	8,6	1	1	1	1	1	1	1	1	1	0	1	-7,610994	274,098471	312,432875	0
15.01.2021	21:24:55	0	0	2,485572	1,20225	321,858	0,039	86,495	0	1017,38	6,6	8,7	8,7	1	1	1	1	1	1	1	1	1	0	1	-4,580691	274,076101	315,358711	0
15.01.2021	21:24:56	0	0	4,293261	1,26075	315,9576	0,029	86,496	0	1017,42	6,7	8,7	8,7	1	1	1	1	1	1	1	1	1	0	1	-7,610994	273,99133	311,932767	0
15.01.2021	21:24:57	0	0	2,598553	1,3065	308,034	0,032	86,489	0	1017,36	6,6	8,7	8,7	1	1	1	1	1	1	1	1	1	0	1	-9,654686	274,104441	310,417065	0
15.01.2021	21:24:58	0	0	4,406268	1,29075	316,602	0,036	86,483	0	1017,52	6,6	8,7	8,6	1	1	1	1	1	1	1	1	1	0	1	-5,637773	274,119373	314,503731	0
15.01.2021	21:24:59	0	0	4,406242	1,26225	320,4324	0,037	86,474	0	1017,28	6,6	8,7	8,7	1	1	1	1	1	1	1	1	1	0	1	-7,399577	273,976497	312,07499	0
15.01.2021	21:25:00	0	0	4,180281	1,2885	290,8188	0,035	86,497	0	1017,38	6,6	8,7	8,7	1	1	1	1	1	1	1	1	1	0	1	-9,372798	273,963156	310,03955	0
15.01.2021	21:25:01	0	0	2,711534	1,317	296,172	0,04	86,496	0	1017,36	6,7	8,7	8,7	1	1	1	1	1	1	1	1	1	0	1	-11,486963	273,967602	307,946119	0
15.01.2021	21:25:02	0	0	4,180281	1,38225	304,9776	0,035	86,491	0	1017,38	6,6	8,7	8,7	1	1	1	1	1	1	1	1	1	0	1	-4,369274	274,126844	315,807131	0
15.01.2021	21:25:03	0	0	2,259625	1,4145	299,844	0,033	86,496	0	1017,4	6,6	8,7	8,6	1	1	1	1	1	1	1	1	1	0	1	-9,725159	274,091012	310,283872	0
15.01.2021	21:25:04	0	0	4,745184	1,4115	300,8736	0,033	86,474	0	1017,46	6,6	8,7	8,7	1	1	1	1	1	1	1	1	1	0	1	-7,470049	274,152266	312,825141	0
15.01.2021	21:25:05	0	0	4,632259	1,41825	298,6812	0,038	86,499	0	1017,52	6,7	8,7	8,5	1	1	1	1	1	1	1	1	1	0	1	-9,584214	273,970566	309,862693	0
15.01.2021	21:25:06	0	0	2,711534	1,44075	297,54	0,034	86,488	0	1017,42	6,6	8,7	8,7	1	1	1	1	1	1	1	1	1	0	1	-7,329105	273,96612	312,097065	0
15.01.2021	21:25:07	0	0	2,03365	1,47375	305,4816	0,04	86,487	0	1017,22	6,7	8,7	8,7	1	1	1	1	1	1	1	1	1	0	1	-8,949965	274,01806	310,718508	0
15.01.2021	21:25:08	0	0	3,163456	1,4865	302,3748	0,036	86,489	0	1017,3	6,7	8,7	8,7	1	1	1	1	1	1	1	1	1	0	1	-10,147992	273,983912	309,361164	0
15.01.2021	21:25:09	0	0	3,050494	1,4625	308,4768	0,029	86,473	0	1017,46	6,7	8,7	8,6	1	1	1	1	1	1	1	1	1	0	1	-6,8358	274,029951	312,888167	0
15.01.2021	21:25:10	0	0	3,728359	1,419	314,0748	0,031	86,467	0	1017,34	6,7	8,7	8,7	1	1	1	1	1	1	1	1	1	0	1	-8,80902	274,137308	311,416273	0
15.01.2021	21:25:11	0	0	2,485587	1,40175	304,3332	0,031	86,461	0	1017,38	6,6	8,7	8,6	1	1	1	1	1	1	1	1	1	0	1	-6,060606	274,074611	313,871836	0
15.01.2021	21:25:12	0	0	3,389417	1,38825	299,0772	0,034	86,478	0	1017,36	6,6	8,7	8,7	1	1	1	1	1	1	1	1	1	0	1	-13,03735	274,15077	307,250848	0
15.01.2021	21:25:13	0	0	3,502398	1,407	297,2232	0,033	86,477	0	1017,34	6,7	8,7	8,7	1	1	1	1	1	1	1	1	1	0	1	-10,077519	274,038875	309,688096	0
15.01.2021	21:25:14	0	0	2,598553	1,44825	303,9552	0,035	86,486	0	1017,42	6,6	8,7	8,7	1	1	1	1	1	1	1	1	1	0	1	-5,355884	274,135813	314,862423	0
15.01.2021	21:25:15	0	0	4,519223	1,43475	305,7588	0,035	86,479	0	1017,4	6,7	8,7	8,7	1	1	1	1	1	1	1	1	1	0	1	-7,892882	274,064181	311,990863	0
15.01.2021	21:25:16	0	0	3,615378	1,461	306,4392	0,037	86,47	0	1017,5	6,7	8,7	8,7	1	1	1	1	1	1	1	1	1	0	1	-7,963354	274,129833	312,227015	0
15.01.2021	21:25:17	0	0	4,858164	1,5045	307,4616	0,041	86,472	0	1017,34	6,6	8,7	8,7	1	1	1	1	1	1	1	1	1	0	1	-7,610994	273,969084	311,829001	0
15.01.2021	21:25:18	0	0	3,163456	1,5495	300,9024	0,032	86,473	0	1017,4	6,7	8,7	8,7	1	1	1	1	1	1	1	1	1	0	1	-14,235377	274,07014	305,676191	0
15.01.2021	21:25:19	0	0	2,937495	1,5765	302,8608	0,04	86,486	0	1017,52	6,7	8,7	8,7	1	1	1	1	1	1	1	1	1	0	1	-2,677942	273,964638	316,741316	0
15.01.2021	21:25:20	0	0	4,858193	1,65825	300,4452	0,034	86,447	0	1017,38	6,7	8,7	8,6	1	1	1	1	1	1	1	1	1	0	1	-6,553911	274,029951	313,170056	0
15.01.2021	21:25:21	0	0	3,502398	1,7385	297,972	0,036	86,456	0	1017,3	6,7	8,7	8,7	1	1	1	1	1	1	1	1	1	0	1	-6,976744	273,970566	312,470163	0
15.01.2021	21:25:22	0	0	4,406268	1,788	307,188	0,028	86,469	0	1017,38	6,7	8,7	8,6	1	1	1	1	1	1	1	1	1	0	1	-11,980268	274,022518	307,70901	0
15.01.2021	21:25:23	0	0	4,51925	1,95525	300,4812	0,035	86,464	0	1017,28	6,7	8,7	8,6	1	1	1	1	1	1	1	1	1	0	1	-12,473573	273,951305	306,883512	0
15.01.2021	21:25:24	0	0	4,180281	2,05725	302,0868	0,031	86,451	0	1017,28	6,6	8,7	8,7	1	1	1	1	1	1	1	1	1	0	1	-6,765328	274,08952	313,236737	0
15.01.2021	21:25:25	0	0	2,824531	2,0835	306,3276	0,03	86,462	0	1017,44	6,6	8,7	8,6	1	1	1	1	1	1	1	1	1	0	1	-5,144468	274,14329	315,108777	0
15.01.2021	21:25:26	0	0	3,050475	2,09325	298,7388	0,027	86,447	0	1017,24	6,6	8,7	8,7	1	1	1	1	1	1	1	1	1	0	1	-9,302326	274,012117	310,338415	0
15.01.2021	21:25:27	0	0	2,711534	2,05425	298,9008	0,034	86,462	0	1017,52	6,7	8,7	8,7	1	1	1	1	1	1	1	1	1	0	1	-9,584214	274,092503	310,431782	0
15.01.2021	21:25:28	0	0	2,598553	2,20725	303,1704	0,032	86,455	0	1017,42	6,6	8,7	8,7	1	1	1	1	1	1	1	1	1	0	1	-5,637773	274,135813	314,580535	0
15.01.2021	21:25:29	0	0	3,389417	2,36325	309,222	0,03	86,456	0	1017,34	6,7	8,7	8,7	1	1	1	1	1	1	1	1	1	0	1	-11,557435	274,037387	308,201238	0
15.01.2021	21:25:30	0	0	4,858193	2,43375	310,3272	0,032	86,459	0	1017,34	6,6	8,7	8,6	1	1	1	1	1	1	1	1	1	0	1	-9,866103	274,128339	310,317284	0
15.01.2021	21:25:31	0	0	2,598569	2,334	303,174	0,033	86,46	0	1017,28	6,6	8,6	8,6	1	1	1	1	1	1	1	1	1	0	1	-6,342495	274,003205	313,256668	0
15.01.2021	21:25:32	0	0	4,293313	2,27925	297,9036	0,032	86,458	0	1017,48	6,6	8,7	8,5	1	1	1	1	1	1	1	1	1	0	1	-9,372798	274,129833	310,817572	0
15.01.2021	21:25:33	0	0	3,163456	2,2605	293,3316	0,034	86,467	0	1017,48	6,7	8,7	8,7	1	1	1	1	1	1	1	1	1	0	1	-10,359408	273,955749	309,018396	0
15.01.2021	21:25:34	0	0	2,598553	2,2905	300,0384	0,033	86,453	0	1017,36	6,6	8,7	8,7	1	1	1	1	1	1	1	1	1	0	1	-9,866103	273,995783	309,698429	0
15.01.2021	21:25:35	0	0	4,745184	2,24775	306,756	0,03	86,439	0	1017,34	6,6	8,7	8,7	1	1	1	1	1	1	1	1	1	0	1	-7,399577	273,994298	312,15803	0
15.01.2021	21:25:36	0	0	3,502419	2,18475	319,1904	0,03	86,453	0	1017,24	6,7	8,7	8,6	1	1	1	1	1	1	1	1	1	0	1	-9,231853	273,969084	310,208141	0
15.01.2021	21:25:37	0	0	4,632203	2,09775	319,1652	0,032	86,436	0	1017,34	6,7	8,7	8,7	1	1	1	1	1	1	1	1	1	0	1	-11,698379	274,114893	308,422192	0
15.01.2021	21:25:38	0	0	4,745212	1,97625	313,6392	0,034	86,458	0	1017,4	6,7	8,7	8,6	1	1	1	1	1	1	1	1	1	0	1	-8,245243	273,995783	311,319288	0
15.01.2021	21:25:39	0	0	4,0673	1,83	314,0712	0,031	86,455	0	1017,38	6,7	8,7	8,7	1	1	1	1	1	1	1	1	1	0	1	-4,22833	273,95723	315,156382	0
15.01.2021	21:25:40	0	0	3,276436	1,6515	316,5876	0,034	86,446	0	1017,44	6,7	8,7	8,7	1	1	1	1	1	1	1	1	1	0	1	-6,20155	274,037387	313,557122	0
15.01.2021	21:25:41	0	0	3,389417	1,60125	314,0604	0,027	86,437	0	1017,4	6,7	8,7	8,7	1	1	1	1	1	1	1	1	1	0	1	-6,272023	273,975014	313,195629	0
15.01.2021	21:25:42	0	0	3,276436	1,61925	310,6044	0,03	86,424	0	1017,34	6,7	8,7	8,7	1	1	1	1	1	1	1	1	1	0	1	-8,104299	274,111906	312,002321	0
15.01.2021	21:25:43	0	0	2,598569	1,56225	340,1856	0,029	86,444	0	1017,42	6,7	8,6	8,6	1	1	1	1	1	1	1	1	1	0	1	-11,275546	273,960193	308,122982	0
15.01.2021	21:25:44	0	0	3,954344	1,44375	320,31	0,027	86,444	0	1017,5	6,7	8,7	8,6	1	1	1	1	1	1	1	1	1	0	1	-9,866103	274,119373	310,275401	0
15.01.2021	21:25:45	0	0	3,6154	1,36575	299,3796	0,035	86,446	0	1017,34	6,7	8,7	8,6	1	1	1	1	1	1	1	1	1	0	1	-5,426357	273,985395	314,089719	0
15.01.2021	21:25:46	0	0	4,971175	1,2885	302,4144	0,03	86,432	0	1017,2	6,6	8,6	8,6	1	1	1	1	1	1	1	1	1	0	1	-7,188161	274,131328	313,009193	0
15.01.2021	21:25:47	0	0	3,728381	1,34925	308,0736	0,03	86,447	0	1017,46	6,7	8,6	8,6	1	1	1	1	1	1	1	1	1	0	1	-6,060606	274,079082	313,892716	0
15.01.2021	21:25:48	0	0	2,259611	1,434	307,5156	0,031	86,422	0	1017,38	6,7	8,7	8,7	1	1	1	1	1	1	1	1	1	0	1	-8,174771	274,131328	312,022582	0
15.01.2021	21:25:49	0	0	2,711534	1,5675	308,5452	0,031	86,438	0	1017,34	6,7	8,7	8,7	1	1	1	1	1	1	1	1	1	0	1	-9,654686	274,043338	310,131762	0
15.01.2021	21:25:50	0	0	3,389437	1,72125	305,3376	0,032	86,425	0	1017,36	6,8	8,7	8,6	1	1	1	1	1	1	1	1	1	0	1	-10,641297	274,126844	309,535108	0
15.01.2021	21:25:51	0	0	2,485587	1,88175	292,1652	0,029	86,428	0	1017,46	6,7	8,6	8,6	1	1	1	1	1	1	1	1	1	0	1	-8,879493	273,997267	310,691964	0
15.01.2021	21:25:52	0	0	3,502419	2,03325	284,4432	0,03	86,432	0	1017,28	6,7	8,7	8,6	1	1	1	1	1	1	1	1	1	0	1	-10,711769	274,131328	309,485585	0
15.01.2021	21:25:53	0	0	3,615378	2,0355	284,0472	0,029	86,422	0	1017,18	6,7	8,7	8,7	1	1	1	1	1	1	1	1	1	0	1	-5,84919	274,019546	313,826217	0
15.01.2021	21:25:54	0	0	3,728381	2,028	288,1332	0,033	86,416	0	1017,32	6,7	8,6	8,6	1	1	1	1	1	1	1	1	1	0	1	-9,513742	274,123856	310,648701	0
15.01.2021	21:25:55	0	0	4,745184	2,02575	304,668	0,031	86,426	0	1017,26	6,7	8,7	8,7	1	1	1	1	1	1	1	1	1	0	1	-8,315715	274,049291	311,498519	0
15.01.2021	21:25:56	0	0	2,937495	2,02425	302,7204	0,034	86,432	0	1017,42	6,7	8,7	8,7	1	1	1	1	1	1	1	1	1	0	1	-7,188161	273,945383	312,141309	0
15.01.2021	21:25:57	0	0	3,615378	1,81425	304,6068	0,033	86,43	0	1017,44	6,7	8,7	8,7	1	1	1	1	1	1	1	1	1	0	1	-5,637773	274,049291	314,176461	0
15.01.2021	21:25:58	0	0	5,197137	1,64925	280,9296	0,027	86,44	0	1017,34	6,7	8,7	8,6	1	1	1	1	1	1	1	1	1	0	1	-7,117689	274,14329	313,135556	0
15.01.2021	21:25:59	0	0	4,745184	1,64475	285,4728	0,029	86,419	0	1017,28	6,7	8,7	8,7	1	1	1	1	1	1	1	1	1	0	1	-5,778717	274,010631	313,855092	0
15.01.2021	21:26:00	0	0	2,598553	1,821	287,3664	0,027	86,432	0	1017,38	6,7	8,7	8,7	1	1	1	1	1	1	1	1	1	0	1	-7,470049	273,937982	311,824915	0
15.01.2021	21:26:01	0	0	3,389417	1,94775	287,0064	0,03	86,421	0	1017,14	6,7	8,7	8,7	1	1	1	1	1	1	1	1	1	0	1	-6,765328	274,044826	313,028066	0
15.01.2021	21:26:02	0	0	3,95432	1,9965	307,5696	0,034	86,426	0	1017,24	6,7	8,7	8,7	1	1	1	1	1	1	1	1	1	0	1	-8,104299	274,123856	312,058144	0
15.01.2021	21:26:03	0	0	3,6154	1,92975	321,8796	0,029	86,408	0	1017,3	6,6	8,7	8,6	1	1	1	1	1	1	1	1	1	0	1	-10,993658	274,028464	308,72337	0
15.01.2021	21:26:04	0	0	3,728359	1,86075	316,2276	0,028	86,407	0	1017,56	6,7	8,7	8,7	1	1	1	1	1	1	1	1	1	0	1	-8,597604	274,132823	311,606734	0
15.01.2021	21:26:05	0	0	2,485572	1,8195	321,1524	0,031	86,435	0	1017,5	6,6	8,7	8,7	1	1	1	1	1	1	1	1	1	0	1	-9,936575	274,056734	309,912407	0
15.01.2021	21:26:06	0	0	4,519223	1,7475	300,1752	0,029	86,41	0	1017,42	6,7	8,7	8,7	1	1	1	1	1	1	1	1	1	0	1	-6,483439	274,12535	313,685984	0
15.01.2021	21:26:07	0	0	4,180331	1,644	297,612	0,026	86,421	0	1017,24	6,7	8,7	8,5	1	1	1	1	1	1	1	1	1	0	1	-9,020437	274,049291	310,793798	0
15.01.2021	21:26:08	0	0	2,485587	1,569	308,0484	0,031	86,413	0	1017,3	6,7	8,7	8,6	1	1	1	1	1	1	1	1	1	0	1	-6,765328	273,960193	312,633201	0
15.01.2021	21:26:09	0	0	3,389437	1,4805	312,192	0,031	86,425	0	1017,42	6,6	8,7	8,6	1	1	1	1	1	1	1	1	1	0	1	-6,694856	274,044826	313,098538	0
15.01.2021	21:26:10	0	0	3,728359	1,488	300,9384	0,033	86,412	0	1017,38	6,7	8,7	8,7	1	1	1	1	1	1	1	1	1	0	1	-10,077519	273,954267	309,293378	0
15.01.2021	21:26:11	0	0	4,406268	1,52625	313,2396	0,032	86,421	0	1017,54	6,6	8,7	8,6	1	1	1	1	1	1	1	1	1	0	1	-15,926709	274,083555	304,047499	0
15.01.2021	21:26:12	0	0	3,502398	1,51425	308,0232	0,03	86,431	0	1017,38	6,7	8,7	8,7	1	1	1	1	1	1	1	1	1	0	1	-6,20155	274,140298	314,037717	0
15.01.2021	21:26:13	0	0	2,71155	1,5195	311,8572	0,031	86,427	0	1017,44	6,7	8,7	8,6	1	1	1	1	1	1	1	1	1	0	1	-8,668076	273,994298	310,889531	0
15.01.2021	21:26:14	0	0	4,293261	1,65375	319,6116	0,032	86,432	0	1017,5	6,6	8,7	8,7	1	1	1	1	1	1	1	1	1	0	1	-3,312192	274,122361	316,843271	0
15.01.2021	21:26:15	0	0	4,293287	1,836	315,2196	0,029	86,429	0	1017,42	6,7	8,7	8,6	1	1	1	1	1	1	1	1	1	0	1	-9,44327	274,064181	310,440476	0
15.01.2021	21:26:16	0	0	4,180281	1,92975	316,638	0,029	86,425	0	1017,48	6,7	8,7	8,7	1	1	1	1	1	1	1	1	1	0	1	-6,20155	274,116386	313,925998	0
15.01.2021	21:26:17	0	0	4,0673	1,932	309,2724	0,025	86,405	0	1017,26	6,7	8,7	8,7	1	1	1	1	1	1	1	1	1	0	1	-8,033827	274,062691	311,842965	0
15.01.2021	21:26:18	0	0	4,745184	1,96725	297,1872	0,031	86,426	0	1017,46	6,7	8,6	8,7	1	1	1	1	1	1	1	1	1	0	1	-5,778717	273,946863	313,557655	0
15.01.2021	21:26:19	0	0	2,711534	1,947	301,5684	0,028	86,414	0	1017,26	6,6	8,7	8,7	1	1	1	1	1	1	1	1	1	0	1	-7,117689	273,995783	312,446843	0
15.01.2021	21:26:20	0	0	2,485587	1,8465	294,8004	0,027	86,409	0	1017,18	6,6	8,7	8,6	1	1	1	1	1	1	1	1	1	0	1	-8,597604	274,137308	311,62769	0
15.01.2021	21:26:21	0	0	4,406242	1,81875	288,1116	0,031	86,412	0	1017,28	6,7	8,7	8,7	1	1	1	1	1	1	1	1	1	0	1	-6,553911	274,00766	313,066037	0
15.01.2021	21:26:22	0	0	2,598553	1,84425	296,9028	0,028	86,419	0	1017,38	6,7	8,7	8,7	1	1	1	1	1	1	1	1	1	0	1	-9,161381	274,140298	311,077887	0
15.01.2021	21:26:23	0	0	5,084125	1,839	304,2324	0,026	86,42	0	1017,18	6,6	8,7	8,7	1	1	1	1	1	1	1	1	1	0	1	-8,104299	274,058223	311,751635	0
15.01.2021	21:26:24	0	0	3,502398	1,8675	320,04	0,025	86,414	0	1017,32	6,7	8,7	8,7	1	1	1	1	1	1	1	1	1	0	1	-10,42988	274,15077	309,858318	0
15.01.2021	21:26:25	0	0	3,050475	1,893	316,1556	0,032	86,414	0	1017,24	6,6	8,7	8,7	1	1	1	1	1	1	1	1	1	0	1	-9,372798	274,064181	310,510948	0
15.01.2021	21:26:26	0	0	4,51925	1,9245	314,2368	0,032	86,428	0	1017,34	6,7	8,7	8,6	1	1	1	1	1	1	1	1	1	0	1	-6,483439	274,135813	313,734869	0
15.01.2021	21:26:27	0	0	5,084156	1,89	312,5016	0,026	86,406	0	1017,3	6,7	8,6	8,6	1	1	1	1	1	1	1	1	1	0	1	-8,315715	274,110413	311,783929	0
15.01.2021	21:26:28	0	0	4,745184	1,8705	312,066	0,029	86,421	0	1017,38	6,7	8,7	8,7	1	1	1	1	1	1	1	1	1	0	1	-9,936575	274,052268	309,891557	0
15.01.2021	21:26:29	0	0	4,180306	1,98975	315,63	0,03	86,414	0	1017,4	6,7	8,7	8,6	1	1	1	1	1	1	1	1	1	0	1	-8,738548	274,126844	311,437857	0
15.01.2021	21:26:30	0	0	3,954367	1,94775	326,7216	0,029	86,401	0	1017,28	6,6	8,7	8,5	1	1	1	1	1	1	1	1	1	0	1	-7,82241	274,107427	312,263287	0
15.01.2021	21:26:31	0	0	2,598569	1,85925	321,7824	0,025	86,404	0	1017,26	6,7	8,7	8,6	1	1	1	1	1	1	1	1	1	0	1	-5,84919	273,998751	313,729192	0
15.01.2021	21:26:32	0	0	4,293261	1,79475	307,1592	0,026	86,404	0	1017,4	6,6	8,7	8,7	1	1	1	1	1	1	1	1	1	0	1	-8,386187	274,058223	311,469746	0
15.01.2021	21:26:33	0	0	4,519223	1,902	318,4272	0,029	86,403	0	1017,32	6,7	8,7	8,7	1	1	1	1	1	1	1	1	1	0	1	-7,610994	274,119373	312,53051	0
15.01.2021	21:26:34	0	0	4,519223	2,076	302,868	0,029	86,404	0	1017,16	6,7	8,7	8,7	1	1	1	1	1	1	1	1	1	0	1	-8,527132	274,102948	311,537648	0
15.01.2021	21:26:35	0	0	3,389437	2,15925	311,4648	0,028	86,401	0	1017,32	6,7	8,7	8,6	1	1	1	1	1	1	1	1	1	0	1	-3,735025	273,949825	315,615156	0
15.01.2021	21:26:36	0	0	3,841339	2,15925	306,1116	0,029	86,42	0	1017,26	6,7	8,7	8,7	1	1	1	1	1	1	1	1	1	0	1	-4,933051	273,977979	314,548432	0
15.01.2021	21:26:37	0	0	4,745212	2,19525	310,7052	0,03	86,409	0	1017,34	6,7	8,7	8,6	1	1	1	1	1	1	1	1	1	0	1	-8,386187	273,951305	310,970898	0
15.01.2021	21:26:38	0	0	3,841339	2,23875	315,2664	0,033	86,395	0	1017,36	6,7	8,7	8,7	1	1	1	1	1	1	1	1	1	0	1	-8,949965	274,099963	311,100874	0
15.01.2021	21:26:39	0	0	2,711534	2,277	310,68	0,028	86,407	0	1017,28	6,6	8,7	8,7	1	1	1	1	1	1	1	1	1	0	1	-6,624383	273,964638	312,794875	0
15.01.2021	21:26:40	0	0	4,519223	2,283	306,8604	0,031	86,401	0	1017,38	6,7	8,7	8,7	1	1	1	1	1	1	1	1	1	0	1	-9,654686	273,969084	309,785308	0
15.01.2021	21:26:41	0	0	4,971145	2,2575	304,308	0,028	86,406	0	1017,34	6,7	8,7	8,7	1	1	1	1	1	1	1	1	1	0	1	-10,993658	274,013602	308,654015	0
15.01.2021	21:26:42	0	0	2,598569	2,175	295,596	0,032	86,409	0	1017,46	6,7	8,7	8,6	1	1	1	1	1	1	1	1	1	0	1	-7,399577	273,948344	311,943699	0
15.01.2021	21:26:43	0	0	3,841362	2,24625	316,5912	0,028	86,403	0	1017,32	6,7	8,7	8,6	1	1	1	1	1	1	1	1	1	0	1	-10,641297	274,06865	309,263315	0
15.01.2021	21:26:44	0	0	2,937495	2,3025	306,1008	0,03	86,402	0	1017,46	6,7	8,7	8,7	1	1	1	1	1	1	1	1	1	0	1	-9,161381	273,958711	310,230238	0
15.01.2021	21:26:45	0	0	4,745184	2,27025	313,2108	0,029	86,411	0	1017,5	6,7	8,7	8,7	1	1	1	1	1	1	1	1	1	0	1	-6,8358	274,08952	313,166264	0
15.01.2021	21:26:46	0	0	4,293261	2,27025	299,3544	0,031	86,403	0	1017,5	6,7	8,7	8,7	1	1	1	1	1	1	1	1	1	0	1	-5,778717	273,963156	313,63363	0
15.01.2021	21:26:47	0	0	2,824531	2,193	308,7684	0,028	86,403	0	1017,38	6,6	8,6	8,6	1	1	1	1	1	1	1	1	1	0	1	-3,664553	274,091012	316,344478	0
15.01.2021	21:26:48	0	0	3,276436	2,20725	306,1764	0,028	86,405	0	1017,42	6,7	8,7	8,7	1	1	1	1	1	1	1	1	1	0	1	-3,523608	273,949825	315,826572	0
15.01.2021	21:26:49	0	0	2,71155	2,3355	303,3504	0,024	86,404	0	1017,34	6,7	8,7	8,6	1	1	1	1	1	1	1	1	1	0	1	-9,020437	274,058223	310,835497	0
15.01.2021	21:26:50	0	0	3,163456	2,39175	300,15	0,028	86,398	0	1017,18	6,7	8,7	8,7	1	1	1	1	1	1	1	1	1	0	1	-6,20155	273,930585	313,058925	0
15.01.2021	21:26:51	0	0	4,745184	2,42925	308,8152	0,026	86,393	0	1017,42	6,7	8,7	8,7	1	1	1	1	1	1	1	1	1	0	1	-10,077519	274,086537	309,910615	0
15.01.2021	21:26:52	0	0	2,937512	2,51175	308,4804	0,023	86,395	0	1017,48	6,7	8,7	8,6	1	1	1	1	1	1	1	1	1	0	1	-7,188161	273,969084	312,251834	0
15.01.2021	21:26:53	0	0	3,163456	2,51475	311,0256	0,03	86,406	0	1017,36	6,7	8,7	8,7	1	1	1	1	1	1	1	1	1	0	1	-8,104299	274,135813	312,114009	0
15.01.2021	21:26:54	0	0	5,310087	2,484	310,2876	0,032	86,403	0	1017,3	6,7	8,7	8,7	1	1	1	1	1	1	1	1	1	0	1	-8,527132	274,088029	311,467967	0
15.01.2021	21:26:55	0	0	3,163456	2,343	309,9564	0,031	86,385	0	1017,4	6,7	8,7	8,7	1	1	1	1	1	1	1	1	1	0	1	-6,765328	273,95723	312,619384	0
15.01.2021	21:26:56	0	0	3,502419	2,1795	314,4276	0,029	86,399	0	1017,2	6,7	8,7	8,6	1	1	1	1	1	1	1	1	1	0	1	-5,990134	273,995783	313,574398	0
15.01.2021	21:26:57	0	0	2,485587	2,1165	300,4596	0,032	86,4	0	1017,24	6,6	8,7	8,6	1	1	1	1	1	1	1	1	1	0	1	-6,060606	274,107427	314,025091	0
15.01.2021	21:26:58	0	0	2,372592	2,16	290,7828	0,031	86,403	0	1017,46	6,7	8,7	8,7	1	1	1	1	1	1	1	1	1	0	1	-7,540521	273,983912	311,968634	0
15.01.2021	21:26:59	0	0	4,293287	2,25075	291,4704	0,027	86,393	0	1017,48	6,7	8,7	8,6	1	1	1	1	1	1	1	1	1	0	1	-8,879493	274,107427	311,206204	0
15.01.2021	21:27:00	0	0	4,293261	2,29125	291,8952	0,029	86,394	0	1017,42	6,7	8,7	8,7	1	1	1	1	1	1	1	1	1	0	1	-9,44327	274,043338	310,343178	0
15.01.2021	21:27:01	0	0	4,971175	2,2335	294,1632	0,034	86,41	0	1017,4	6,7	8,7	8,6	1	1	1	1	1	1	1	1	1	0	1	-8,386187	274,12535	311,783236	0
15.01.2021	21:27:02	0	0	2,485587	2,23575	290,8368	0,028	86,388	0	1017,5	6,7	8,7	8,6	1	1	1	1	1	1	1	1	1	0	1	-9,936575	273,998751	309,641807	0
15.01.2021	21:27:03	0	0	3,6154	2,22225	298,296	0,028	86,404	0	1017,42	6,6	8,7	8,6	1	1	1	1	1	1	1	1	1	0	1	-8,245243	273,949825	311,104937	0
15.01.2021	21:27:04	0	0	2,824531	2,31825	300,456	0,03	86,401	0	1017,34	6,7	8,7	8,6	1	1	1	1	1	1	1	1	1	0	1	-8,033827	274,009146	311,593052	0
15.01.2021	21:27:05	0	0	4,406268	2,40525	302,4432	0,026	86,393	0	1017,28	6,7	8,7	8,6	1	1	1	1	1	1	1	1	1	0	1	-11,134602	274,104441	308,93715	0
15.01.2021	21:27:06	0	0	2,485572	2,331	298,7136	0,028	86,395	0	1017,44	6,7	8,7	8,7	1	1	1	1	1	1	1	1	1	0	1	-5,426357	274,082064	314,540889	0
15.01.2021	21:27:07	0	0	2,71155	2,2275	308,0916	0,028	86,412	0	1017,4	6,7	8,7	8,6	1	1	1	1	1	1	1	1	1	0	1	-12,825934	274,119373	307,31557	0
15.01.2021	21:27:08	0	0	4,0673	2,25375	294,786	0,029	86,402	0	1017,28	6,7	8,7	8,7	1	1	1	1	1	1	1	1	1	0	1	-12,825934	274,043338	306,960514	0
15.01.2021	21:27:09	0	0	3,389417	2,14275	294,5016	0,022	86,403	0	1017,48	6,6	8,7	8,7	1	1	1	1	1	1	1	1	1	0	1	-6,976744	274,123856	313,185698	0
15.01.2021	21:27:10	0	0	4,293261	2,1435	284,8104	0,023	86,387	0	1017,32	6,7	8,7	8,7	1	1	1	1	1	1	1	1	1	0	1	-5,778717	273,995783	313,785814	0
15.01.2021	21:27:11	0	0	3,389417	2,211	291,5424	0,027	86,415	0	1017,36	6,7	8,6	8,7	1	1	1	1	1	1	1	1	1	0	1	-11,346018	274,126844	308,830387	0
15.01.2021	21:27:12	0	0	3,050475	2,3025	288,8388	0,02	86,401	0	1017,32	6,7	8,7	8,7	1	1	1	1	1	1	1	1	1	0	1	-6,553911	273,986879	312,969085	0
15.01.2021	21:27:13	0	0	3,163456	2,32575	286,3188	0,027	86,408	0	1017,4	6,7	8,7	8,7	1	1	1	1	1	1	1	1	1	0	1	-8,879493	274,123856	311,28295	0
15.01.2021	21:27:14	0	0	4,406242	2,4105	292,7304	0,03	86,402	0	1017,12	6,6	8,7	8,7	1	1	1	1	1	1	1	1	1	0	1	-5,708245	274,077591	314,238116	0
15.01.2021	21:27:15	0	0	4,858164	2,427	293,3964	0,026	86,418	0	1017,28	6,7	8,6	8,7	1	1	1	1	1	1	1	1	1	0	1	-6,060606	274,104441	314,011145	0
15.01.2021	21:27:16	0	0	3,050475	2,43675	298,6812	0,024	86,407	0	1017,32	6,7	8,7	8,7	1	1	1	1	1	1	1	1	1	0	1	-5,637773	273,99133	313,905988	0
15.01.2021	21:27:17	0	0	2,937512	2,3625	305,7516	0,029	86,415	0	1017,28	6,7	8,7	8,6	1	1	1	1	1	1	1	1	1	0	1	-10,641297	273,980945	308,854022	0
15.01.2021	21:27:18	0	0	2,71155	2,115	322,2576	0,025	86,404	0	1017,22	6,7	8,7	8,6	1	1	1	1	1	1	1	1	1	0	1	-8,386187	273,980945	311,109131	0
15.01.2021	21:27:19	0	0	2,372592	1,983	315,4896	0,029	86,416	0	1017,32	6,7	8,7	8,7	1	1	1	1	1	1	1	1	1	0	1	-5,84919	273,994298	313,708418	0
15.01.2021	21:27:20	0	0	3,389458	1,8975	314,82	0,025	86,391	0	1017,38	6,7	8,7	8,5	1	1	1	1	1	1	1	1	1	0	1	-7,681466	273,96612	311,744704	0
15.01.2021	21:27:21	0	0	4,406242	1,782	315,4824	0,031	86,408	0	1017,52	6,7	8,7	8,7	1	1	1	1	1	1	1	1	1	0	1	-7,117689	274,06865	312,786923	0
15.01.2021	21:27:22	0	0	2,711534	1,67325	312,6132	0,028	86,401	0	1017,22	6,7	8,7	8,7	1	1	1	1	1	1	1	1	1	0	1	-7,82241	274,141794	312,423846	0
15.01.2021	21:27:23	0	0	2,937512	1,57125	319,6116	0,029	86,4	0	1017,56	6,7	8,7	8,6	1	1	1	1	1	1	1	1	1	0	1	-9,725159	273,995783	309,839373	0
15.01.2021	21:27:24	0	0	3,95432	1,6575	301,23	0,028	86,405	0	1017,3	6,7	8,7	8,7	1	1	1	1	1	1	1	1	1	0	1	-10,711769	274,129833	309,478601	0
15.01.2021	21:27:25	0	0	3,841339	1,75125	304,9236	0,025	86,394	0	1017,28	6,7	8,7	8,7	1	1	1	1	1	1	1	1	1	0	1	-3,875969	274,038875	315,889646	0
15.01.2021	21:27:26	0	0	3,615378	1,88625	299,034	0,023	86,401	0	1017,42	6,7	8,7	8,7	1	1	1	1	1	1	1	1	1	0	1	-8,597604	273,961674	310,807834	0
15.01.2021	21:27:27	0	0	4,293261	1,953	308,844	0,029	86,404	0	1017,4	6,7	8,7	8,7	1	1	1	1	1	1	1	1	1	0	1	-11,346018	274,07312	308,579465	0
15.01.2021	21:27:28	0	0	2,711534	1,953	298,6992	0,031	86,412	0	1017,24	6,7	8,7	8,7	1	1	1	1	1	1	1	1	1	0	1	-6,765328	273,95723	312,619384	0
15.01.2021	21:27:29	0	0	4,632231	1,9575	303,2604	0,027	86,401	0	1017,38	6,7	8,7	8,6	1	1	1	1	1	1	1	1	1	0	1	-6,483439	274,043338	313,303009	0
15.01.2021	21:27:30	0	0	3,502419	1,911	306,1692	0,031	86,414	0	1017,22	6,7	8,7	8,6	1	1	1	1	1	1	1	1	1	0	1	-5,84919	274,131328	314,348164	0
15.01.2021	21:27:31	0	0	4,406242	1,902	303,1488	0,027	86,399	0	1017,46	6,6	8,7	8,7	1	1	1	1	1	1	1	1	1	0	1	-10,42988	273,975014	309,037771	0
15.01.2021	21:27:32	0	0	4,745212	1,86075	302,7636	0,028	86,405	0	1017,42	6,7	8,7	8,6	1	1	1	1	1	1	1	1	1	0	1	-6,906272	273,937982	312,388693	0
15.01.2021	21:27:33	0	0	4,406242	1,85325	298,2456	0,028	86,404	0	1017,34	6,6	8,7	8,7	1	1	1	1	1	1	1	1	1	0	1	-14,376321	274,06716	305,521334	0
15.01.2021	21:27:34	0	0	2,372592	1,899	297,5472	0,029	86,419	0	1017,48	6,7	8,7	8,7	1	1	1	1	1	1	1	1	1	0	1	-6,20155	273,955749	313,176254	0
15.01.2021	21:27:35	0	0	3,050494	1,8915	309,528	0,032	86,404	0	1017,36	6,7	8,7	8,6	1	1	1	1	1	1	1	1	1	0	1	-4,510218	273,997267	315,061238	0
15.01.2021	21:27:36	0	0	4,51925	1,86225	304,974	0,034	86,399	0	1017,36	6,7	8,7	8,6	1	1	1	1	1	1	1	1	1	0	1	-11,698379	274,105934	308,380345	0
15.01.2021	21:27:37	0	0	5,310087	1,803	299,4732	0,024	86,388	0	1017,34	6,7	8,7	8,7	1	1	1	1	1	1	1	1	1	0	1	-10,500352	274,062691	309,376439	0
15.01.2021	21:27:38	0	0	2,824514	1,731	322,8264	0,031	86,401	0	1017,4	6,6	8,7	8,7	1	1	1	1	1	1	1	1	1	0	1	-5,073996	273,976497	314,400571	0
15.01.2021	21:27:39	0	0	3,615421	1,6425	310,68	0,031	86,376	0	1017,34	6,7	8,7	8,5	1	1	1	1	1	1	1	1	1	0	1	-5,073996	274,113399	315,039599	0
15.01.2021	21:27:40	0	0	4,180306	1,674	319,6044	0,032	86,387	0	1017,44	6,7	8,7	8,6	1	1	1	1	1	1	1	1	1	0	1	-8,80902	273,988363	310,720896	0
15.01.2021	21:27:41	0	0	4,971145	1,6395	316,962	0,03	86,394	0	1017,42	6,7	8,7	8,7	1	1	1	1	1	1	1	1	1	0	1	-10,288936	273,980945	309,206382	0
15.01.2021	21:27:42	0	0	2,937512	1,617	310,644	0,036	86,391	0	1017,44	6,7	8,7	8,6	1	1	1	1	1	1	1	1	1	0	1	-7,188161	273,988363	312,341756	0
15.01.2021	21:27:43	0	0	2,485587	1,6545	321,1056	0,028	86,395	0	1017,34	6,7	8,7	8,6	1	1	1	1	1	1	1	1	1	0	1	-8,738548	274,122361	311,416914	0
15.01.2021	21:27:44	0	0	3,6154	1,65975	323,6148	0,03	86,401	0	1017,36	6,7	8,7	8,6	1	1	1	1	1	1	1	1	1	0	1	-4,087385	274,040363	315,685174	0
15.01.2021	21:27:45	0	0	4,858164	1,7085	308,8404	0,024	86,39	0	1017,2	6,7	8,7	8,7	1	1	1	1	1	1	1	1	1	0	1	-6,553911	274,123856	313,608531	0
15.01.2021	21:27:46	0	0	4,971175	1,69425	303,4368	0,028	86,395	0	1017,32	6,6	8,7	8,6	1	1	1	1	1	1	1	1	1	0	1	-8,033827	274,091012	311,975203	0
15.01.2021	21:27:47	0	0	2,372606	1,6995	304,2432	0,028	86,381	0	1017,44	6,7	8,7	8,6	1	1	1	1	1	1	1	1	1	0	1	-4,157858	274,113399	315,955738	0
15.01.2021	21:27:48	0	0	4,519223	1,60125	305,3808	0,028	86,394	0	1017,12	6,7	8,7	8,7	1	1	1	1	1	1	1	1	1	0	1	-5,144468	274,015088	314,510137	0
15.01.2021	21:27:49	0	0	4,406242	1,503	294,066	0,027	86,377	0	1017,34	6,7	8,7	8,7	1	1	1	1	1	1	1	1	1	0	1	-9,936575	273,943903	309,385992	0
15.01.2021	21:27:50	0	0	4,0673	1,55325	306,1476	0,023	86,38	0	1017,38	6,7	8,7	8,7	1	1	1	1	1	1	1	1	1	0	1	-6,342495	274,116386	313,785054	0
15.01.2021	21:27:51	0	0	4,293287	1,58625	298,6668	0,029	86,395	0	1017,38	6,7	8,7	8,6	1	1	1	1	1	1	1	1	1	0	1	-10,782241	273,977979	308,699242	0
15.01.2021	21:27:52	0	0	3,841339	1,5735	305,37	0,028	86,387	0	1017,38	6,7	8,7	8,7	1	1	1	1	1	1	1	1	1	0	1	-6,131078	274,120867	314,017405	0
15.01.2021	21:27:53	0	0	4,51925	1,59975	300,7548	0,031	86,38	0	1017,38	6,7	8,7	8,6	1	1	1	1	1	1	1	1	1	0	1	-6,412967	274,024005	313,283248	0
15.01.2021	21:27:54	0	0	4,0673	1,6155	295,182	0,029	86,372	0	1017,32	6,6	8,7	8,7	1	1	1	1	1	1	1	1	1	0	1	-8,315715	273,942422	310,99995	0
15.01.2021	21:27:55	0	0	4,519277	1,551	294,0552	0,031	86,387	0	1017,3	6,7	8,7	8,5	1	1	1	1	1	1	1	1	1	0	1	-7,963354	274,044826	311,830039	0
15.01.2021	21:27:56	0	0	4,632203	1,50825	305,3952	0,033	86,382	0	1017,46	6,6	8,7	8,7	1	1	1	1	1	1	1	1	1	0	1	-9,161381	273,955749	310,216423	0
15.01.2021	21:27:57	0	0	3,389417	1,48875	311,0184	0,028	86,384	0	1017,34	6,6	8,7	8,7	1	1	1	1	1	1	1	1	1	0	1	-6,8358	274,088029	313,159299	0
15.01.2021	21:27:58	0	0	4,180306	1,45725	304,3152	0,036	86,382	0	1017,34	6,7	8,7	8,6	1	1	1	1	1	1	1	1	1	0	1	-9,513742	274,128339	310,669645	0
15.01.2021	21:27:59	0	0	4,293261	1,4385	307,1772	0,026	86,379	0	1017,5	6,7	8,7	8,7	1	1	1	1	1	1	1	1	1	0	1	-7,681466	274,010631	311,952343	0
15.01.2021	21:28:00	0	0	2,937495	1,39275	317,0592	0,032	86,386	0	1017,34	6,7	8,7	8,7	1	1	1	1	1	1	1	1	1	0	1	-6,131078	273,945383	313,198392	0
15.01.2021	21:28:01	0	0	4,067349	1,47975	309,2724	0,034	86,366	0	1017,26	6,7	8,7	8,5	1	1	1	1	1	1	1	1	1	0	1	-9,372798	273,960193	310,025731	0
15.01.2021	21:28:02	0	0	3,050475	1,50375	321,4152	0,028	86,399	0	1017,4	6,7	8,7	8,7	1	1	1	1	1	1	1	1	1	0	1	-5,708245	273,988363	313,821672	0
15.01.2021	21:28:03	0	0	4,971145	1,5135	321,5016	0,025	86,37	0	1017,32	6,7	8,7	8,7	1	1	1	1	1	1	1	1	1	0	1	-5,637773	274,016574	314,023765	0
15.01.2021	21:28:04	0	0	4,406242	1,53075	312,1452	0,027	86,389	0	1017,4	6,7	8,7	8,7	1	1	1	1	1	1	1	1	1	0	1	-7,610994	274,086537	312,377141	0
15.01.2021	21:28:05	0	0	5,197106	1,64325	316,2024	0,027	86,397	0	1017,46	6,6	8,6	8,7	1	1	1	1	1	1	1	1	1	0	1	-6,624383	273,955749	312,753421	0
15.01.2021	21:28:06	0	0	3,276436	1,83675	317,3256	0,03	86,385	0	1017,5	6,7	8,7	8,7	1	1	1	1	1	1	1	1	1	0	1	-10,570825	274,046314	309,229516	0
15.01.2021	21:28:07	0	0	3,841339	2,0235	308,106	0,025	86,384	0	1017,44	6,7	8,7	8,7	1	1	1	1	1	1	1	1	1	0	1	-11,134602	273,976497	308,339965	0
15.01.2021	21:28:08	0	0	3,163494	2,0835	316,6524	0,028	86,394	0	1017,36	6,7	8,7	8,5	1	1	1	1	1	1	1	1	1	0	1	-6,553911	274,059713	313,308974	0
15.01.2021	21:28:09	0	0	3,276456	2,082	316,5984	0,022	86,382	0	1017,32	6,7	8,7	8,6	1	1	1	1	1	1	1	1	1	0	1	-5,144468	274,047803	314,662819	0
15.01.2021	21:28:10	0	0	4,632203	2,0955	315,2088	0,022	86,379	0	1017,3	6,7	8,7	8,7	1	1	1	1	1	1	1	1	1	0	1	-5,778717	274,140298	314,46055	0
15.01.2021	21:28:11	0	0	4,0673	2,1015	308,106	0,024	86,366	0	1017,3	6,6	8,7	8,7	1	1	1	1	1	1	1	1	1	0	1	-6,976744	274,058223	312,879189	0
15.01.2021	21:28:12	0	0	3,163456	1,97625	302,0364	0,043	86,386	0	1017,22	6,7	8,7	8,7	1	1	1	1	1	1	1	1	1	0	1	-12,121212	274,131328	308,076141	0
15.01.2021	21:28:13	0	0	4,632203	1,8885	306,9864	0,032	86,386	0	1017,36	6,6	8,7	8,7	1	1	1	1	1	1	1	1	1	0	1	-9,936575	273,973531	309,524161	0
15.01.2021	21:28:14	0	0	3,502419	1,85925	298,6776	0,024	86,378	0	1017,36	6,6	8,7	8,6	1	1	1	1	1	1	1	1	1	0	1	-7,399577	273,976497	312,07499	0
15.01.2021	21:28:15	0	0	4,51925	1,7745	305,4312	0,022	86,39	0	1017,26	6,7	8,7	8,6	1	1	1	1	1	1	1	1	1	0	1	-11,275546	273,952786	308,088445	0
15.01.2021	21:28:16	0	0	3,163456	1,6515	304,56	0,024	86,388	0	1017,42	6,7	8,7	8,7	1	1	1	1	1	1	1	1	1	0	1	-8,80902	274,021032	310,873322	0
15.01.2021	21:28:17	0	0	2,485587	1,6155	303,264	0,025	86,374	0	1017,36	6,7	8,6	8,6	1	1	1	1	1	1	1	1	1	0	1	-6,8358	274,123856	313,326643	0
15.01.2021	21:28:18	0	0	4,971175	1,6365	308,0988	0,027	86,385	0	1017,36	6,7	8,7	8,6	1	1	1	1	1	1	1	1	1	0	1	-4,721635	274,025491	314,981517	0
15.01.2021	21:28:19	0	0	2,598553	1,6335	303,228	0,031	86,379	0	1017,46	6,7	8,7	8,7	1	1	1	1	1	1	1	1	1	0	1	-9,372798	274,132823	310,83154	0
15.01.2021	21:28:20	0	0	4,858164	1,70175	306,8604	0,027	86,384	0	1017,24	6,6	8,7	8,7	1	1	1	1	1	1	1	1	1	0	1	-7,892882	273,961674	311,512555	0
15.01.2021	21:28:21	0	0	4,067325	1,7535	289,2168	0,028	86,375	0	1017,3	6,7	8,6	8,6	1	1	1	1	1	1	1	1	1	0	1	-3,805497	273,994298	315,75211	0
15.01.2021	21:28:22	0	0	4,406268	1,77825	300,1392	0,03	86,398	0	1017,34	6,6	8,7	8,6	1	1	1	1	1	1	1	1	1	0	1	-13,319239	274,104441	306,752513	0
15.01.2021	21:28:23	0	0	3,163456	1,81875	297,2484	0,03	86,384	0	1017,44	6,7	8,7	8,7	1	1	1	1	1	1	1	1	1	0	1	-5,567301	274,034413	314,177487	0
15.01.2021	21:28:24	0	0	3,163475	1,8165	290,034	0,027	86,391	0	1017,42	6,7	8,7	8,6	1	1	1	1	1	1	1	1	1	0	1	-6,272023	273,939462	313,029842	0
15.01.2021	21:28:25	0	0	4,067325	1,8225	297,54	0,025	86,387	0	1017,4	6,7	8,7	8,6	1	1	1	1	1	1	1	1	1	0	1	-7,751938	274,053757	312,083143	0
15.01.2021	21:28:26	0	0	3,954344	1,7385	285,4836	0,026	86,377	0	1017,36	6,6	8,7	8,6	1	1	1	1	1	1	1	1	1	0	1	-7,892882	274,123856	312,26956	0
15.01.2021	21:28:27	0	0	3,954367	1,69425	292,2912	0,024	86,391	0	1017,36	6,7	8,7	8,5	1	1	1	1	1	1	1	1	1	0	1	-7,047216	273,954267	312,323681	0
15.01.2021	21:28:28	0	0	2,598553	1,6545	289,62	0,021	86,386	0	1017,48	6,7	8,7	8,7	1	1	1	1	1	1	1	1	1	0	1	-9,372798	273,983912	310,136358	0
15.01.2021	21:28:29	0	0	4,632203	1,56825	288,8784	0,024	86,373	0	1017,48	6,7	8,7	8,7	1	1	1	1	1	1	1	1	1	0	1	-8,45666	274,123856	311,705783	0
15.01.2021	21:28:30	0	0	3,615378	1,5705	296,9316	0,028	86,383	0	1017,36	6,7	8,7	8,7	1	1	1	1	1	1	1	1	1	0	1	-7,681466	274,021032	312,000876	0
15.01.2021	21:28:31	0	0	2,937512	1,5015	295,5492	0,026	86,389	0	1017,42	6,7	8,7	8,6	1	1	1	1	1	1	1	1	1	0	1	-6,131078	274,12535	314,038345	0
15.01.2021	21:28:32	0	0	2,259611	1,467	297,5364	0,025	86,402	0	1017,5	6,7	8,7	8,7	1	1	1	1	1	1	1	1	1	0	1	-10,570825	273,977979	308,910659	0
15.01.2021	21:28:33	0	0	4,745184	1,4115	294,0876	0,028	86,392	0	1017,4	6,7	8,7	8,7	1	1	1	1	1	1	1	1	1	0	1	-7,117689	274,08952	312,884376	0
15.01.2021	21:28:34	0	0	2,824514	1,443	285,9012	0,027	86,388	0	1017,36	6,7	8,7	8,7	1	1	1	1	1	1	1	1	1	0	1	-6,765328	273,997267	312,806129	0
15.01.2021	21:28:35	0	0	3,163475	1,58775	291,42	0,024	86,398	0	1017,28	6,7	8,7	8,6	1	1	1	1	1	1	1	1	1	0	1	-11,768851	274,122361	308,386611	0
15.01.2021	21:28:36	0	0	2,937495	1,63725	299,3868	0,025	86,391	0	1017,34	6,7	8,7	8,7	1	1	1	1	1	1	1	1	1	0	1	-8,315715	274,119373	311,825789	0
15.01.2021	21:28:37	0	0	3,163456	1,722	312,1164	0,027	86,395	0	1017,46	6,7	8,7	8,7	1	1	1	1	1	1	1	1	1	0	1	-6,20155	274,06865	313,703061	0
15.01.2021	21:28:38	0	0	4,745184	1,737	306,5004	0,017	86,402	0	1017,34	6,7	8,7	8,7	1	1	1	1	1	1	1	1	1	0	1	-7,329105	274,116386	312,798443	0
15.01.2021	21:28:39	0	0	4,858164	1,76625	306,4464	0,029	86,395	0	1017,44	6,7	8,7	8,7	1	1	1	1	1	1	1	1	1	0	1	-9,090909	274,06567	310,799791	0
15.01.2021	21:28:40	0	0	3,615378	1,70325	304,7256	0,022	86,39	0	1017,46	6,7	8,7	8,7	1	1	1	1	1	1	1	1	1	0	1	-4,298802	274,122361	315,856661	0
15.01.2021	21:28:41	0	0	4,293287	1,62	306,4572	0,019	86,404	0	1017,32	6,7	8,7	8,6	1	1	1	1	1	1	1	1	1	0	1	-5,778717	274,07163	314,139808	0
15.01.2021	21:28:42	0	0	2,937495	1,64325	300,4992	0,021	86,395	0	1017,22	6,7	8,7	8,7	1	1	1	1	1	1	1	1	1	0	1	-6,342495	274,126844	313,83391	0
15.01.2021	21:28:43	0	0	4,180306	1,60425	312,8688	0,026	86,399	0	1017,34	6,7	8,7	8,6	1	1	1	1	1	1	1	1	1	0	1	-3,030303	273,961674	316,375135	0
15.01.2021	21:28:44	0	0	3,615378	1,5975	306,7812	0,026	86,407	0	1017,44	6,7	8,7	8,7	1	1	1	1	1	1	1	1	1	0	1	-8,315715	274,105934	311,763009	0
15.01.2021	21:28:45	0	0	3,615378	1,62975	303,9372	0,024	86,41	0	1017,38	6,7	8,7	8,7	1	1	1	1	1	1	1	1	1	0	1	-12,755462	274,120867	307,393021	0
15.01.2021	21:28:46	0	0	4,293261	1,73775	323,3304	0,027	86,407	0	1017,28	6,7	8,7	8,7	1	1	1	1	1	1	1	1	1	0	1	-9,584214	274,050779	310,236968	0
15.01.2021	21:28:47	0	0	2,598553	1,75125	311,7348	0,031	86,409	0	1017,38	6,7	8,7	8,7	1	1	1	1	1	1	1	1	1	0	1	-4,510218	273,936503	314,777847	0
15.01.2021	21:28:48	0	0	3,841362	1,72575	309,8952	0,019	86,404	0	1017,2	6,7	8,7	8,6	1	1	1	1	1	1	1	1	1	0	1	-7,610994	274,013602	312,036679	0
15.01.2021	21:28:49	0	0	3,163456	1,71675	306,504	0,022	86,395	0	1017,28	6,7	8,7	8,7	1	1	1	1	1	1	1	1	1	0	1	-4,580691	274,128339	315,602697	0
15.01.2021	21:28:50	0	0	3,841339	1,665	306,4968	0,02	86,4	0	1017,46	6,7	8,7	8,7	1	1	1	1	1	1	1	1	1	0	1	-7,329105	274,062691	312,547687	0
15.01.2021	21:28:51	0	0	3,95432	1,62675	312,1416	0,029	86,403	0	1017,36	6,6	8,7	8,7	1	1	1	1	1	1	1	1	1	0	1	-7,963354	274,108919	312,129316	0
15.01.2021	21:28:52	0	0	4,519223	1,683	307,602	0,028	86,397	0	1017,26	6,7	8,6	8,7	1	1	1	1	1	1	1	1	1	0	1	-5,990134	274,074611	313,942308	0
15.01.2021	21:28:53	0	0	5,310118	1,79775	302,3676	0,022	86,396	0	1017,58	6,7	8,7	8,6	1	1	1	1	1	1	1	1	1	0	1	-13,742072	273,958711	305,649548	0
15.01.2021	21:28:54	0	0	2,824531	1,86075	309,7908	0,03	86,406	0	1017,42	6,7	8,7	8,6	1	1	1	1	1	1	1	1	1	0	1	-8,949965	273,942422	310,365701	0
15.01.2021	21:28:55	0	0	4,632203	1,85025	302,3748	0,029	86,403	0	1017,38	6,7	8,7	8,7	1	1	1	1	1	1	1	1	1	0	1	-9,372798	273,994298	310,18481	0
15.01.2021	21:28:56	0	0	4,0673	1,79625	302,0292	0,02	86,387	0	1017,38	6,7	8,7	8,7	1	1	1	1	1	1	1	1	1	0	1	-10,359408	274,111906	309,747212	0
15.01.2021	21:28:57	0	0	3,95432	1,78425	304,6212	0,029	86,396	0	1017,42	6,7	8,7	8,7	1	1	1	1	1	1	1	1	1	0	1	-9,584214	274,012117	310,056526	0
15.01.2021	21:28:58	0	0	2,824531	1,71	302,0652	0,031	86,402	0	1017,38	6,7	8,6	8,6	1	1	1	1	1	1	1	1	1	0	1	-5,84919	273,935023	313,431977	0
15.01.2021	21:28:59	0	0	3,276476	1,611	294,0444	0,026	86,395	0	1017,2	6,7	8,7	8,5	1	1	1	1	1	1	1	1	1	0	1	-8,104299	273,964638	311,31496	0
15.01.2021	21:29:00	0	0	3,841339	1,4295	313,218	0,03	86,388	0	1017,28	6,7	8,7	8,7	1	1	1	1	1	1	1	1	1	0	1	-10,711769	274,116386	309,41578	0
15.01.2021	21:29:01	0	0	5,536048	1,32675	313,236	0,023	86,383	0	1017,48	6,7	8,7	8,7	1	1	1	1	1	1	1	1	1	0	1	-13,178295	274,000236	306,407013	0
15.01.2021	21:29:02	0	0	4,971145	1,33425	313,2936	0,024	86,373	0	1017,32	6,7	8,7	8,7	1	1	1	1	1	1	1	1	1	0	1	-10,077519	273,942422	309,238146	0
15.01.2021	21:29:03	0	0	5,310118	1,3875	332,7768	0,027	86,399	0	1017,3	6,6	8,7	8,6	1	1	1	1	1	1	1	1	1	0	1	-11,134602	274,001721	308,457633	0
15.01.2021	21:29:04	0	0	2,711534	1,398	329,2704	0,042	86,401	0	1017,58	6,7	8,7	8,7	1	1	1	1	1	1	1	1	1	0	1	-8,174771	273,935023	311,106396	0
15.01.2021	21:29:05	0	0	2,937495	1,347	295,4772	0,027	86,396	0	1017,34	6,7	8,7	8,7	1	1	1	1	1	1	1	1	1	0	1	-4,016913	273,973531	315,443823	0
15.01.2021	21:29:06	0	0	3,502419	1,335	306,4932	0,022	86,398	0	1017,56	6,7	8,7	8,6	1	1	1	1	1	1	1	1	1	0	1	-12,896406	274,116386	307,231142	0
15.01.2021	21:29:07	0	0	4,971175	1,33575	315,2412	0,021	86,387	0	1017,38	6,7	8,7	8,6	1	1	1	1	1	1	1	1	1	0	1	-6,060606	274,076101	313,878796	0
15.01.2021	21:29:08	0	0	2,824531	1,35	296,4312	0,027	86,372	0	1017,46	6,7	8,7	8,6	1	1	1	1	1	1	1	1	1	0	1	-4,862579	274,11788	315,271947	0
15.01.2021	21:29:09	0	0	3,841339	1,39275	313,5672	0,024	86,391	0	1017,42	6,7	8,7	8,7	1	1	1	1	1	1	1	1	1	0	1	-12,121212	274,028464	307,595816	0
15.01.2021	21:29:10	0	0	4,293287	1,47375	305,3916	0,025	86,387	0	1017,46	6,7	8,6	8,6	1	1	1	1	1	1	1	1	1	0	1	-11,134602	274,101456	308,923207	0
15.01.2021	21:29:11	0	0	4,519223	1,5045	286,6644	0,028	86,39	0	1017,24	6,7	8,7	8,7	1	1	1	1	1	1	1	1	1	0	1	-6,553911	273,985395	312,962164	0
15.01.2021	21:29:12	0	0	4,858193	1,47675	312,4152	0,022	86,386	0	1017,38	6,7	8,7	8,6	1	1	1	1	1	1	1	1	1	0	1	-11,134602	274,095487	308,89533	0
15.01.2021	21:29:13	0	0	3,163456	1,4985	304,9632	0,025	86,372	0	1017,14	6,7	8,7	8,7	1	1	1	1	1	1	1	1	1	0	1	-6,483439	273,985395	313,032636	0
15.01.2021	21:29:14	0	0	5,084125	1,5165	311,8356	0,023	86,36	0	1017,34	6,7	8,7	8,7	1	1	1	1	1	1	1	1	1	0	1	-9,866103	274,08952	310,135961	0
15.01.2021	21:29:15	0	0	2,711534	1,44675	315,54	0,028	86,384	0	1017,5	6,7	8,7	8,7	1	1	1	1	1	1	1	1	1	0	1	-5,355884	273,998751	314,222497	0
15.01.2021	21:29:16	0	0	4,180281	1,36575	313,9992	0,022	86,364	0	1017,36	6,7	8,7	8,7	1	1	1	1	1	1	1	1	1	0	1	-8,879493	273,936503	310,408573	0
15.01.2021	21:29:17	0	0	3,163456	1,34025	306,0396	0,029	86,384	0	1017,32	6,7	8,7	8,7	1	1	1	1	1	1	1	1	1	0	1	-11,768851	274,062691	308,10794	0
15.01.2021	21:29:18	0	0	4,745212	1,3695	294,0408	0,02	86,379	0	1017,38	6,7	8,7	8,6	1	1	1	1	1	1	1	1	1	0	1	-6,694856	274,080573	313,265428	0
15.01.2021	21:29:19	0	0	2,598553	1,40625	304,9776	0,026	86,386	0	1017,44	6,7	8,7	8,7	1	1	1	1	1	1	1	1	1	0	1	-7,258633	274,11788	312,875893	0
15.01.2021	21:29:20	0	0	4,067325	1,40625	297,8856	0,024	86,364	0	1017,32	6,7	8,7	8,6	1	1	1	1	1	1	1	1	1	0	1	-8,738548	274,076101	311,200853	0
15.01.2021	21:29:21	0	0	3,95432	1,48575	303,2208	0,031	86,392	0	1017,42	6,7	8,7	8,7	1	1	1	1	1	1	1	1	1	0	1	-3,875969	273,921711	315,343141	0
15.01.2021	21:29:22	0	0	2,937495	1,49925	298,3788	0,023	86,378	0	1017,36	6,7	8,6	8,7	1	1	1	1	1	1	1	1	1	0	1	-7,610994	273,983912	311,898162	0
15.01.2021	21:29:23	0	0	4,745184	1,60575	299,7792	0,019	86,376	0	1017,3	6,7	8,7	8,7	1	1	1	1	1	1	1	1	1	0	1	-8,527132	273,943903	310,795436	0
15.01.2021	21:29:24	0	0	4,293287	1,6305	306,4212	0,024	86,37	0	1017,5	6,7	8,7	8,6	1	1	1	1	1	1	1	1	1	0	1	-8,80902	274,099963	311,241818	0
15.01.2021	21:29:25	0	0	2,711534	1,70175	293,8932	0,028	86,39	0	1017,24	6,7	8,7	8,7	1	1	1	1	1	1	1	1	1	0	1	-8,45666	273,936503	310,831406	0
15.01.2021	21:29:26	0	0	4,180306	1,71375	315,3024	0,026	86,376	0	1017,24	6,7	8,7	8,6	1	1	1	1	1	1	1	1	1	0	1	-11,134602	274,006175	308,478417	0
15.01.2021	21:29:27	0	0	2,598569	1,7085	314,3844	0,024	86,383	0	1017,32	6,7	8,7	8,6	1	1	1	1	1	1	1	1	1	0	1	-8,386187	273,939462	310,915677	0
15.01.2021	21:29:28	0	0	2,033662	1,704	308,1132	0,023	86,383	0	1017,38	6,7	8,7	8,6	1	1	1	1	1	1	1	1	1	0	1	-5,144468	273,985395	314,371608	0
15.01.2021	21:29:29	0	0	2,485572	1,68525	315,4824	0,024	86,382	0	1017,4	6,7	8,7	8,7	1	1	1	1	1	1	1	1	1	0	1	-10,359408	273,933543	308,914861	0
15.01.2021	21:29:30	0	0	4,0673	1,6485	314,172	0,028	86,383	0	1017,36	6,7	8,7	8,7	1	1	1	1	1	1	1	1	1	0	1	-10,288936	273,951305	309,06815	0
15.01.2021	21:29:31	0	0	3,615378	1,63125	305,3952	0,028	86,38	0	1017,36	6,7	8,7	8,7	1	1	1	1	1	1	1	1	1	0	1	-9,372798	274,086537	310,615337	0
15.01.2021	21:29:32	0	0	3,615378	1,66125	307,2456	0,025	86,386	0	1017,36	6,7	8,6	8,7	1	1	1	1	1	1	1	1	1	0	1	-7,188161	273,997267	312,383296	0
15.01.2021	21:29:33	0	0	3,163475	1,7025	302,4504	0,027	86,374	0	1017,16	6,7	8,7	8,6	1	1	1	1	1	1	1	1	1	0	1	-7,258633	273,95723	312,126079	0
15.01.2021	21:29:34	0	0	3,95432	1,713	295,1892	0,022	86,363	0	1017,26	6,7	8,7	8,7	1	1	1	1	1	1	1	1	1	0	1	-7,117689	273,954267	312,253209	0
15.01.2021	21:29:35	0	0	4,745184	1,695	297,9324	0,025	86,386	0	1017,42	6,7	8,7	8,7	1	1	1	1	1	1	1	1	1	0	1	-10,147992	274,015088	309,506614	0
15.01.2021	21:29:36	0	0	3,389417	1,578	325,9872	0,022	86,38	0	1017,36	6,7	8,7	8,7	1	1	1	1	1	1	1	1	1	0	1	-8,45666	273,954267	310,914238	0
15.01.2021	21:29:37	0	0	2,71155	1,4715	305,2548	0,026	86,383	0	1017,46	6,7	8,7	8,6	1	1	1	1	1	1	1	1	1	0	1	-8,033827	273,961674	311,371611	0
15.01.2021	21:29:38	0	0	2,824514	1,5	301,6764	0,028	86,389	0	1017,52	6,7	8,7	8,7	1	1	1	1	1	1	1	1	1	0	1	-9,231853	273,924668	310,001042	0
15.01.2021	21:29:39	0	0	3,95432	1,53525	321,8832	0,026	86,39	0	1017,38	6,7	8,7	8,7	1	1	1	1	1	1	1	1	1	0	1	-9,372798	273,976497	310,101769	0
15.01.2021	21:29:40	0	0	4,858193	1,50375	324,1044	0,026	86,388	0	1017,42	6,7	8,7	8,6	1	1	1	1	1	1	1	1	1	0	1	-10,218464	273,930585	309,042012	0
15.01.2021	21:29:41	0	0	3,163456	1,4655	325,5408	0,026	86,382	0	1017,34	6,7	8,7	8,7	1	1	1	1	1	1	1	1	1	0	1	-6,8358	273,96612	312,59037	0
15.01.2021	21:29:42	0	0	5,084125	1,46775	329,6628	0,025	86,378	0	1017,18	6,7	8,7	8,7	1	1	1	1	1	1	1	1	1	0	1	-6,765328	274,114893	313,355244	0
15.01.2021	21:29:43	0	0	2,598553	1,50375	325,9656	0,018	86,379	0	1017,2	6,7	8,7	8,7	1	1	1	1	1	1	1	1	1	0	1	-11,41649	274,00469	308,1896	0
15.01.2021	21:29:44	0	0	2,711534	1,63725	320,4756	0,023	86,386	0	1017,52	6,7	8,7	8,7	1	1	1	1	1	1	1	1	1	0	1	-10,147992	273,939462	309,153873	0
15.01.2021	21:29:45	0	0	4,745184	1,72125	316,9728	0,024	86,389	0	1017,46	6,7	8,7	8,7	1	1	1	1	1	1	1	1	1	0	1	-8,45666	274,043338	311,329789	0
15.01.2021	21:29:46	0	0	2,93753	1,72725	331,4664	0,024	86,379	0	1017,38	6,7	8,7	8,5	1	1	1	1	1	1	1	1	1	0	1	-5,778717	274,110413	314,320927	0
15.01.2021	21:29:47	0	0	2,71155	2,001	315,9	0,022	86,367	0	1017,36	6,7	8,7	8,6	1	1	1	1	1	1	1	1	1	0	1	-6,976744	274,040363	312,795815	0
15.01.2021	21:29:48	0	0	2,71155	2,22	324,4032	0,023	86,389	0	1017,38	6,7	8,7	8,6	1	1	1	1	1	1	1	1	1	0	1	-11,275546	274,108919	308,817124	0
15.01.2021	21:29:49	0	0	5,084125	2,21025	333,1404	0,023	86,382	0	1017,4	6,7	8,7	8,7	1	1	1	1	1	1	1	1	1	0	1	-5,426357	274,021032	314,255986	0
15.01.2021	21:29:50	0	0	3,389417	2,2725	324,7452	0,019	86,375	0	1017,3	6,7	8,7	8,7	1	1	1	1	1	1	1	1	1	0	1	-7,258633	273,915798	311,932913	0
15.01.2021	21:29:51	0	0	4,858193	2,37375	328,1688	0,021	86,389	0	1017,34	6,7	8,7	8,6	1	1	1	1	1	1	1	1	1	0	1	-5,003524	273,995783	314,561008	0
15.01.2021	21:29:52	0	0	4,067325	2,4255	333,504	0,026	86,368	0	1017,32	6,7	8,7	8,6	1	1	1	1	1	1	1	1	1	0	1	-8,245243	274,111906	311,861377	0
15.01.2021	21:29:53	0	0	4,519223	2,37675	323,6076	0,021	86,377	0	1017,38	6,7	8,7	8,7	1	1	1	1	1	1	1	1	1	0	1	-4,369274	274,105934	315,70945	0
15.01.2021	21:29:54	0	0	2,824531	2,3535	324,36	0,024	86,373	0	1017,48	6,7	8,7	8,6	1	1	1	1	1	1	1	1	1	0	1	-5,990134	273,96612	313,436036	0
15.01.2021	21:29:55	0	0	2,598569	2,3955	318,8052	0,028	86,374	0	1017,3	6,7	8,7	8,6	1	1	1	1	1	1	1	1	1	0	1	-10,570825	273,936503	308,717241	0
15.01.2021	21:29:56	0	0	4,632203	2,445	317,7468	0,023	86,381	0	1017,28	6,7	8,7	8,7	1	1	1	1	1	1	1	1	1	0	1	-7,329105	274,064181	312,554641	0
15.01.2021	21:29:57	0	0	3,502398	2,46075	321,5052	0,019	86,37	0	1017,4	6,7	8,7	8,7	1	1	1	1	1	1	1	1	1	0	1	-9,725159	273,943903	309,597409	0
15.01.2021	21:29:58	0	0	4,293261	2,40225	314,8488	0,021	86,378	0	1017,4	6,7	8,7	8,7	1	1	1	1	1	1	1	1	1	0	1	-8,949965	273,932064	310,317407	0
15.01.2021	21:29:59	0	0	4,632231	2,30625	318,5712	0,023	86,371	0	1017,48	6,7	8,7	8,6	1	1	1	1	1	1	1	1	1	0	1	-8,597604	274,06716	311,300052	0
15.01.2021	21:30:00	0	0	2,598553	2,25	308,8476	0,018	86,387	0	1017,4	6,7	8,7	8,7	1	1	1	1	1	1	1	1	1	0	1	-5,003524	274,102948	315,061256	0
15.01.2021	21:30:01	0	0	2,824514	2,25525	311,76	0,028	86,381	0	1017,46	6,7	8,7	8,7	1	1	1	1	1	1	1	1	1	0	1	-9,231853	273,958711	310,159766	0
15.01.2021	21:30:02	0	0	4,180281	2,2605	314,1288	0,025	86,373	0	1017,38	6,7	8,7	8,7	1	1	1	1	1	1	1	1	1	0	1	-7,540521	273,964638	311,878737	0
15.01.2021	21:30:03	0	0	4,293261	2,24175	311,3604	0,021	86,386	0	1017,42	6,7	8,7	8,7	1	1	1	1	1	1	1	1	1	0	1	-7,610994	274,047803	312,196293	0
15.01.2021	21:30:04	0	0	2,937495	2,16225	306,3744	0,028	86,377	0	1017,46	6,7	8,7	8,7	1	1	1	1	1	1	1	1	1	0	1	-5,919662	274,095487	314,11027	0
15.01.2021	21:30:05	0	0	3,050494	2,15475	297,9252	0,024	86,374	0	1017,44	6,7	8,7	8,6	1	1	1	1	1	1	1	1	1	0	1	-8,527132	274,049291	311,287103	0
15.01.2021	21:30:06	0	0	2,824531	2,16075	303,3252	0,015	86,362	0	1017,32	6,7	8,7	8,6	1	1	1	1	1	1	1	1	1	0	1	-4,298802	273,927626	314,947882	0
15.01.2021	21:30:07	0	0	4,519223	2,1255	320,0148	0,022	86,389	0	1017,34	6,7	8,7	8,7	1	1	1	1	1	1	1	1	1	0	1	-15,081043	274,034413	304,663745	0
15.01.2021	21:30:08	0	0	4,519223	1,98075	310,6836	0,017	86,373	0	1017,5	6,7	8,7	8,7	1	1	1	1	1	1	1	1	1	0	1	-5,567301	273,926147	313,672489	0
15.01.2021	21:30:09	0	0	3,841339	1,8615	308,088	0,019	86,371	0	1017,38	6,7	8,7	8,7	1	1	1	1	1	1	1	1	1	0	1	-10,852713	274,091012	309,156317	0
15.01.2021	21:30:10	0	0	2,71155	1,845	306,504	0,022	86,383	0	1017,38	6,7	8,7	8,6	1	1	1	1	1	1	1	1	1	0	1	-8,386187	273,929105	310,867392	0
15.01.2021	21:30:11	0	0	3,95432	1,88775	304,9632	0,028	86,379	0	1017,4	6,7	8,7	8,7	1	1	1	1	1	1	1	1	1	0	1	-8,80902	273,994298	310,748587	0
15.01.2021	21:30:12	0	0	3,728359	1,8465	304,65	0,022	86,375	0	1017,46	6,7	8,7	8,7	1	1	1	1	1	1	1	1	1	0	1	-9,372798	273,921711	309,846312	0
15.01.2021	21:30:13	0	0	2,372592	1,8315	305,3916	0,022	86,368	0	1017,44	6,7	8,7	8,7	1	1	1	1	1	1	1	1	1	0	1	-9,725159	274,040363	310,0474	0
15.01.2021	21:30:14	0	0	3,163456	1,7235	303,1164	0,026	86,376	0	1017,34	6,7	8,7	8,7	1	1	1	1	1	1	1	1	1	0	1	-10,077519	273,920233	309,134698	0
15.01.2021	21:30:15	0	0	3,050475	1,65825	302,8716	0,034	86,372	0	1017,46	6,7	8,7	8,7	1	1	1	1	1	1	1	1	1	0	1	-7,188161	274,053757	312,64692	0
15.01.2021	21:30:16	0	0	3,050475	1,74225	303,5628	0,016	86,362	0	1017,3	6,7	8,7	8,7	1	1	1	1	1	1	1	1	1	0	1	-10,077519	274,096979	309,95938	0
15.01.2021	21:30:17	0	0	4,632231	1,94025	300,2724	0,018	86,369	0	1017,34	6,7	8,7	8,6	1	1	1	1	1	1	1	1	1	0	1	-6,694856	273,988363	312,835061	0
15.01.2021	21:30:18	0	0	2,372592	2,076	310,6764	0,028	86,378	0	1017,38	6,7	8,7	8,7	1	1	1	1	1	1	1	1	1	0	1	-6,412967	273,927626	312,833717	0
15.01.2021	21:30:19	0	0	2,937512	2,1285	311,7924	0,026	86,371	0	1017,4	6,7	8,7	8,6	1	1	1	1	1	1	1	1	1	0	1	-7,892882	274,031438	311,838025	0
15.01.2021	21:30:20	0	0	2,598553	2,0955	317,7432	0,022	86,362	0	1017,54	6,7	8,7	8,7	1	1	1	1	1	1	1	1	1	0	1	-12,473573	274,114893	307,646999	0
15.01.2021	21:30:21	0	0	2,71155	2,04525	308,574	0,021	86,365	0	1017,52	6,7	8,7	8,6	1	1	1	1	1	1	1	1	1	0	1	-7,681466	274,046314	312,118874	0
15.01.2021	21:30:22	0	0	4,632231	2,013	308,0988	0,022	86,376	0	1017,3	6,7	8,7	8,6	1	1	1	1	1	1	1	1	1	0	1	-9,866103	273,932064	309,401269	0
15.01.2021	21:30:23	0	0	3,841362	1,9425	315,8568	0,025	86,376	0	1017,52	6,7	8,7	8,6	1	1	1	1	1	1	1	1	1	0	1	-4,721635	274,095487	315,308296	0
15.01.2021	21:30:24	0	0	2,71155	1,926	312,4728	0,02	86,374	0	1017,48	6,7	8,7	8,6	1	1	1	1	1	1	1	1	1	0	1	-4,22833	273,969084	315,211664	0
15.01.2021	21:30:25	0	0	3,163475	1,89525	321,3648	0,021	86,365	0	1017,38	6,7	8,7	8,6	1	1	1	1	1	1	1	1	1	0	1	-9,654686	273,943903	309,667881	0
15.01.2021	21:30:26	0	0	4,293261	1,7385	325,1304	0,014	86,362	0	1017,42	6,7	8,7	8,7	1	1	1	1	1	1	1	1	1	0	1	-10,711769	274,091012	309,297261	0
15.01.2021	21:30:27	0	0	4,971145	1,7655	314,82	0,02	86,366	0	1017,38	6,7	8,7	8,7	1	1	1	1	1	1	1	1	1	0	1	-9,795631	273,972049	309,658191	0
15.01.2021	21:30:28	0	0	4,745184	1,77	321,1056	0,02	86,362	0	1017,42	6,7	8,7	8,7	1	1	1	1	1	1	1	1	1	0	1	-6,976744	274,064181	312,907002	0
15.01.2021	21:30:29	0	0	4,519223	1,75575	307,6092	0,024	86,363	0	1017,36	6,7	8,7	8,7	1	1	1	1	1	1	1	1	1	0	1	-7,047216	273,929105	312,206363	0
15.01.2021	21:30:30	0	0	4,745212	1,755	325,134	0,014	86,353	0	1017,4	6,7	8,7	8,6	1	1	1	1	1	1	1	1	1	0	1	-9,090909	274,077591	310,855452	0
15.01.2021	21:30:31	0	0	3,276436	1,76325	318,042	0,02	86,347	0	1017,36	6,7	8,7	8,7	1	1	1	1	1	1	1	1	1	0	1	-10,288936	274,107427	309,796761	0
15.01.2021	21:30:32	0	0	2,824548	1,728	314,37	0,021	86,359	0	1017,3	6,7	8,7	8,5	1	1	1	1	1	1	1	1	1	0	1	-12,473573	273,924668	306,759323	0
15.01.2021	21:30:33	0	0	4,406268	1,6725	319,266	0,025	86,364	0	1017,44	6,7	8,7	8,6	1	1	1	1	1	1	1	1	1	0	1	-7,047216	274,059713	312,815669	0
15.01.2021	21:30:34	0	0	3,502398	1,6095	319,5972	0,022	86,365	0	1017,52	6,7	8,7	8,7	1	1	1	1	1	1	1	1	1	0	1	-9,513742	273,935023	309,767425	0
15.01.2021	21:30:35	0	0	4,067325	1,63425	319,248	0,029	86,371	0	1017,4	6,7	8,7	8,6	1	1	1	1	1	1	1	1	1	0	1	-8,949965	274,055245	310,892066	0
15.01.2021	21:30:36	0	0	3,050494	1,57575	314,514	0,017	86,354	0	1017,28	6,7	8,7	8,6	1	1	1	1	1	1	1	1	1	0	1	-7,610994	273,936503	311,677072	0
15.01.2021	21:30:37	0	0	4,632231	1,61625	314,8884	0,018	86,366	0	1017,46	6,7	8,7	8,6	1	1	1	1	1	1	1	1	1	0	1	-12,896406	274,114893	307,224166	0
15.01.2021	21:30:38	0	0	3,841339	1,65825	329,6844	0,022	86,352	0	1017,38	6,7	8,7	8,7	1	1	1	1	1	1	1	1	1	0	1	-6,906272	273,979462	312,582129	0
15.01.2021	21:30:39	0	0	4,067325	1,6935	322,1856	0,019	86,368	0	1017,38	6,7	8,7	8,6	1	1	1	1	1	1	1	1	1	0	1	-11,486963	273,937982	307,808002	0
15.01.2021	21:30:40	0	0	3,163475	1,59	321,8868	0,024	86,364	0	1017,38	6,7	8,7	8,6	1	1	1	1	1	1	1	1	1	0	1	-7,82241	274,047803	311,984877	0
15.01.2021	21:30:41	0	0	4,293261	1,46475	318,1536	0,022	86,374	0	1017,4	6,7	8,7	8,7	1	1	1	1	1	1	1	1	1	0	1	-5,355884	274,107427	314,729812	0
15.01.2021	21:30:42	0	0	4,51925	1,44825	318,8556	0,022	86,366	0	1017,54	6,7	8,7	8,6	1	1	1	1	1	1	1	1	1	0	1	-7,258633	274,037387	312,50004	0
15.01.2021	21:30:43	0	0	2,598553	1,539	313,2432	0,023	86,373	0	1017,36	6,7	8,6	8,7	1	1	1	1	1	1	1	1	1	0	1	-11,346018	274,096979	308,690881	0
15.01.2021	21:30:44	0	0	2,937495	1,6275	299,7576	0,024	86,355	0	1017,34	6,7	8,7	8,7	1	1	1	1	1	1	1	1	1	0	1	-7,892882	274,015088	311,761723	0
15.01.2021	21:30:45	0	0	4,632231	1,7205	302,0796	0,019	86,365	0	1017,4	6,7	8,7	8,6	1	1	1	1	1	1	1	1	1	0	1	-9,090909	274,126844	311,085496	0
15.01.2021	21:30:46	0	0	3,163456	1,8075	327,4812	0,021	86,382	0	1017,5	6,7	8,7	8,7	1	1	1	1	1	1	1	1	1	0	1	-4,933051	273,997267	314,638405	0
15.01.2021	21:30:47	0	0	4,293261	1,9545	303,5088	0,025	86,372	0	1017,34	6,7	8,7	8,7	1	1	1	1	1	1	1	1	1	0	1	-3,523608	274,11788	316,610918	0
15.01.2021	21:30:48	0	0	4,971145	2,1465	314,8704	0,027	86,368	0	1017,44	6,7	8,7	8,7	1	1	1	1	1	1	1	1	1	0	1	-9,795631	274,009146	309,831248	0
15.01.2021	21:30:49	0	0	4,745212	2,36175	309,2328	0,024	86,358	0	1017,5	6,6	8,7	8,6	1	1	1	1	1	1	1	1	1	0	1	-11,205074	273,933543	308,069195	0
15.01.2021	21:30:50	0	0	2,372592	2,46375	318,5568	0,017	86,354	0	1017,32	6,7	8,7	8,7	1	1	1	1	1	1	1	1	1	0	1	-9,020437	274,061202	310,849401	0
15.01.2021	21:30:51	0	0	2,824514	2,55225	317,0088	0,026	86,372	0	1017,32	6,7	8,7	8,7	1	1	1	1	1	1	1	1	1	0	1	-9,161381	273,937982	310,133583	0
15.01.2021	21:30:52	0	0	4,971175	2,53725	336,4632	0,022	86,361	0	1017,46	6,7	8,7	8,6	1	1	1	1	1	1	1	1	1	0	1	-6,483439	273,988363	313,046478	0
15.01.2021	21:30:53	0	0	4,971175	2,4915	324,7884	0,018	86,362	0	1017,24	6,7	8,7	8,6	1	1	1	1	1	1	1	1	1	0	1	-5,21494	273,932064	314,052432	0
15.01.2021	21:30:54	0	0	3,841339	2,4345	328,9212	0,037	86,37	0	1017,52	6,7	8,7	8,7	1	1	1	1	1	1	1	1	1	0	1	-11,06413	274,00766	308,555819	0
15.01.2021	21:30:55	0	0	3,050475	2,41725	324,7488	0,026	86,371	0	1017,48	6,7	8,7	8,7	1	1	1	1	1	1	1	1	1	0	1	-8,315715	274,119373	311,825789	0
15.01.2021	21:30:56	0	0	2,824514	2,30625	323,6004	0,021	86,375	0	1017,36	6,7	8,7	8,7	1	1	1	1	1	1	1	1	1	0	1	-8,245243	273,972049	311,208578	0
15.01.2021	21:30:57	0	0	2,598553	2,2185	320,778	0,025	86,384	0	1017,42	6,7	8,6	8,7	1	1	1	1	1	1	1	1	1	0	1	-6,20155	273,932064	313,065822	0
15.01.2021	21:30:58	0	0	2,824514	2,03475	317,3652	0,024	86,392	0	1017,34	6,7	8,7	8,7	1	1	1	1	1	1	1	1	1	0	1	-11,275546	274,028464	308,441482	0
15.01.2021	21:30:59	0	0	4,519223	1,9935	317,7036	0,026	86,367	0	1017,36	6,7	8,7	8,7	1	1	1	1	1	1	1	1	1	0	1	-9,936575	273,940942	309,37219	0
15.01.2021	21:31:00	0	0	3,050494	2,067	313,2108	0,018	86,38	0	1017,34	6,7	8,7	8,6	1	1	1	1	1	1	1	1	1	0	1	-10,288936	273,973531	309,1718	0
15.01.2021	21:31:01	0	0	3,276436	2,145	321,7824	0,024	86,389	0	1017,4	6,7	8,7	8,7	1	1	1	1	1	1	1	1	1	0	1	-7,681466	274,101456	312,376343	0
15.01.2021	21:31:02	0	0	4,745184	2,2335	321,84	0,019	86,387	0	1017,44	6,7	8,7	8,7	1	1	1	1	1	1	1	1	1	0	1	-5,990134	273,948344	313,353142	0
15.01.2021	21:31:03	0	0	4,51925	2,32875	326,1492	0,023	86,391	0	1017,42	6,7	8,7	8,6	1	1	1	1	1	1	1	1	1	0	1	-9,866103	273,986879	309,656893	0
15.01.2021	21:31:04	0	0	2,372592	2,3865	324,4248	0,026	86,368	0	1017,32	6,7	8,7	8,7	1	1	1	1	1	1	1	1	1	0	1	-7,540521	273,921711	311,678588	0
15.01.2021	21:31:05	0	0	4,406268	2,37375	318,1212	0,025	86,4	0	1017,44	6,7	8,7	8,6	1	1	1	1	1	1	1	1	1	0	1	-9,161381	274,026978	310,548708	0
15.01.2021	21:31:06	0	0	2,824514	2,346	321,5088	0,024	86,393	0	1017,48	6,7	8,7	8,7	1	1	1	1	1	1	1	1	1	0	1	-6,131078	273,936503	313,156987	0
15.01.2021	21:31:07	0	0	3,728359	2,25375	322,5996	0,026	86,399	0	1017,6	6,7	8,7	8,7	1	1	1	1	1	1	1	1	1	0	1	-11,346018	274,032925	308,391829	0
15.01.2021	21:31:08	0	0	2,485572	2,1705	312,9048	0,028	86,396	0	1017,46	6,7	8,7	8,7	1	1	1	1	1	1	1	1	1	0	1	-6,553911	273,932064	312,713461	0
15.01.2021	21:31:09	0	0	4,971175	2,097	312,8832	0,018	86,379	0	1017,32	6,7	8,7	8,6	1	1	1	1	1	1	1	1	1	0	1	-12,332629	273,99133	307,211132	0
15.01.2021	21:31:10	0	0	2,71155	2,05875	324,0756	0,028	86,387	0	1017,76	6,7	8,7	8,6	1	1	1	1	1	1	1	1	1	0	1	-12,544045	274,111906	307,562575	0
15.01.2021	21:31:11	0	0	3,728359	1,98	326,0376	0,029	86,376	0	1017,38	6,7	8,7	8,7	1	1	1	1	1	1	1	1	1	0	1	-8,527132	274,099963	311,523707	0
15.01.2021	21:31:12	0	0	3,163475	1,959	317,7756	0,019	86,392	0	1017,42	6,7	8,7	8,6	1	1	1	1	1	1	1	1	1	0	1	-9,513742	273,99133	310,030019	0
15.01.2021	21:31:13	0	0	2,711534	1,9155	333,5076	0,027	86,395	0	1017,5	6,7	8,7	8,7	1	1	1	1	1	1	1	1	1	0	1	-7,188161	274,12535	312,981263	0
15.01.2021	21:31:14	0	0	3,954344	1,83825	332,0604	0,019	86,386	0	1017,38	6,7	8,7	8,6	1	1	1	1	1	1	1	1	1	0	1	-10,500352	274,003205	309,09881	0
15.01.2021	21:31:15	0	0	4,180281	1,818	329,2596	0,025	86,399	0	1017,4	6,7	8,7	8,7	1	1	1	1	1	1	1	1	1	0	1	-8,033827	273,929105	311,219753	0
15.01.2021	21:31:16	0	0	4,51925	1,806	306,45	0,028	86,393	0	1017,42	6,7	8,7	8,6	1	1	1	1	1	1	1	1	1	0	1	-12,684989	274,040363	307,08757	0
15.01.2021	21:31:17	0	0	2,598553	1,8525	311,4252	0,028	86,399	0	1017,42	6,7	8,7	8,7	1	1	1	1	1	1	1	1	1	0	1	-8,245243	274,120867	311,90324	0
15.01.2021	21:31:18	0	0	3,163456	1,944	305,4312	0,024	86,399	0	1017,1	6,7	8,7	8,7	1	1	1	1	1	1	1	1	1	0	1	-14,235377	274,022518	305,453901	0
15.01.2021	21:31:19	0	0	4,293287	1,88775	315,9144	0,021	86,397	0	1017,34	6,7	8,7	8,6	1	1	1	1	1	1	1	1	1	0	1	-4,157858	274,102948	315,906922	0
15.01.2021	21:31:20	0	0	3,502419	1,90425	298,2636	0,023	86,393	0	1017,44	6,7	8,7	8,6	1	1	1	1	1	1	1	1	1	0	1	-7,751938	274,056734	312,097044	0
15.01.2021	21:31:21	0	0	4,180306	1,86225	308,9196	0,028	86,396	0	1017,42	6,7	8,7	8,6	1	1	1	1	1	1	1	1	1	0	1	-12,332629	274,113399	307,780967	0
15.01.2021	21:31:22	0	0	3,615378	1,78125	310,9968	0,023	86,399	0	1017,3	6,7	8,7	8,7	1	1	1	1	1	1	1	1	1	0	1	-6,20155	274,0359	313,55018	0
15.01.2021	21:31:23	0	0	4,745212	1,77225	313,2468	0,025	86,403	0	1017,58	6,7	8,7	8,6	1	1	1	1	1	1	1	1	1	0	1	-6,060606	274,135813	314,157702	0
15.01.2021	21:31:24	0	0	3,276436	1,67175	326,0484	0,025	86,399	0	1017,4	6,7	8,7	8,7	1	1	1	1	1	1	1	1	1	0	1	-8,597604	274,001721	310,994631	0
15.01.2021	21:31:25	0	0	3,841339	1,566	299,7324	0,017	86,385	0	1017,38	6,7	8,7	8,7	1	1	1	1	1	1	1	1	1	0	1	-5,355884	273,951305	314,001201	0
15.01.2021	21:31:26	0	0	3,841362	1,686	303,9048	0,027	86,393	0	1017,26	6,7	8,7	8,6	1	1	1	1	1	1	1	1	1	0	1	-9,44327	274,04185	310,336233	0
15.01.2021	21:31:27	0	0	3,615378	1,779	310,6764	0,022	86,399	0	1017,36	6,7	8,7	8,7	1	1	1	1	1	1	1	1	1	0	1	-5,355884	274,116386	314,771664	0
15.01.2021	21:31:28	0	0	3,389417	1,827	304,6608	0,026	86,4	0	1017,42	6,7	8,7	8,7	1	1	1	1	1	1	1	1	1	0	1	-5,708245	274,064181	314,175501	0
15.01.2021	21:31:29	0	0	5,084125	1,81125	301,2588	0,024	86,397	0	1017,44	6,7	8,7	8,7	1	1	1	1	1	1	1	1	1	0	1	-7,610994	273,940942	311,697771	0
15.01.2021	21:31:30	0	0	2,598569	1,76175	294,4512	0,023	86,394	0	1017,34	6,7	8,7	8,6	1	1	1	1	1	1	1	1	1	0	1	-7,892882	273,992814	311,657801	0
15.01.2021	21:31:31	0	0	3,502419	1,713	303,174	0,025	86,398	0	1017,26	6,7	8,7	8,6	1	1	1	1	1	1	1	1	1	0	1	-7,540521	273,949825	311,809659	0
15.01.2021	21:31:32	0	0	2,711534	1,695	295,2396	0,027	86,395	0	1017,38	6,7	8,7	8,7	1	1	1	1	1	1	1	1	1	0	1	-14,587738	274,058223	305,268196	0
15.01.2021	21:31:33	0	0	4,745212	1,69575	301,644	0,024	86,378	0	1017,24	6,7	8,7	8,6	1	1	1	1	1	1	1	1	1	0	1	-12,473573	273,948344	306,869703	0
15.01.2021	21:31:34	0	0	3,276456	1,75275	302,0724	0,028	86,403	0	1017,42	6,7	8,7	8,6	1	1	1	1	1	1	1	1	1	0	1	-6,483439	273,994298	313,074168	0
15.01.2021	21:31:35	0	0	2,259611	1,7325	301,2804	0,028	86,392	0	1017,3	6,7	8,7	8,7	1	1	1	1	1	1	1	1	1	0	1	-6,8358	273,937982	312,459165	0
15.01.2021	21:31:36	0	0	4,51925	1,74975	301,5864	0,043	86,394	0	1017,08	6,7	8,7	8,6	1	1	1	1	1	1	1	1	1	0	1	-8,879493	274,032925	310,858355	0
15.01.2021	21:31:37	0	0	5,31015	1,75425	305,3916	0,027	86,412	0	1017,4	6,7	8,7	8,5	1	1	1	1	1	1	1	1	1	0	1	-7,540521	274,122361	312,614941	0
15.01.2021	21:31:38	0	0	4,858164	1,68525	307,17	0,025	86,413	0	1017,44	6,7	8,7	8,7	1	1	1	1	1	1	1	1	1	0	1	-9,020437	274,098471	311,023432	0
15.01.2021	21:31:39	0	0	3,502419	1,65675	304,704	0,03	86,417	0	1017,44	6,7	8,7	8,6	1	1	1	1	1	1	1	1	1	0	1	-7,610994	274,120867	312,537489	0
15.01.2021	21:31:40	0	0	2,598569	1,6365	304,6176	0,027	86,408	0	1017,54	6,7	8,7	8,6	1	1	1	1	1	1	1	1	1	0	1	-6,765328	273,952786	312,598663	0
15.01.2021	21:31:41	0	0	4,180281	1,61325	302,8104	0,027	86,405	0	1017,4	6,7	8,7	8,7	1	1	1	1	1	1	1	1	1	0	1	-5,84919	273,980945	313,646129	0
15.01.2021	21:31:42	0	0	4,632231	1,6245	299,9448	0,027	86,397	0	1017,34	6,7	8,7	8,6	1	1	1	1	1	1	1	1	1	0	1	-4,439746	274,111906	315,666873	0
15.01.2021	21:31:43	0	0	2,033662	1,674	308,448	0,027	86,407	0	1017,46	6,7	8,7	8,6	1	1	1	1	1	1	1	1	1	0	1	-10,147992	273,936503	309,140074	0
15.01.2021	21:31:44	0	0	3,6154	1,57575	304,2144	0,033	86,404	0	1017,62	6,7	8,7	8,6	1	1	1	1	1	1	1	1	1	0	1	-8,315715	274,099963	311,735123	0
15.01.2021	21:31:45	0	0	3,163475	1,554	304,632	0,023	86,402	0	1017,4	6,7	8,7	8,6	1	1	1	1	1	1	1	1	1	0	1	-7,892882	274,055245	311,949149	0
15.01.2021	21:31:46	0	0	4,632203	1,515	311,382	0,023	86,399	0	1017,34	6,7	8,7	8,7	1	1	1	1	1	1	1	1	1	0	1	-5,355884	273,935023	313,925283	0
15.01.2021	21:31:47	0	0	4,745184	1,40775	309,9924	0,031	86,41	0	1017,44	6,7	8,7	8,7	1	1	1	1	1	1	1	1	1	0	1	-5,778717	273,994298	313,77889	0
15.01.2021	21:31:48	0	0	4,632231	1,37775	311,4756	0,027	86,396	0	1017,16	6,7	8,7	8,6	1	1	1	1	1	1	1	1	1	0	1	-8,45666	274,135813	311,761648	0
15.01.2021	21:31:49	0	0	3,841362	1,3125	317,7972	0,023	86,406	0	1017,38	6,7	8,7	8,6	1	1	1	1	1	1	1	1	1	0	1	-8,949965	274,016574	310,711574	0
15.01.2021	21:31:50	0	0	4,067325	1,26525	319,1976	0,031	86,409	0	1017,38	6,7	8,7	8,6	1	1	1	1	1	1	1	1	1	0	1	-8,033827	274,122361	312,121636	0
15.01.2021	21:31:51	0	0	3,841339	1,19325	311,0868	0,025	86,4	0	1017,38	6,7	8,7	8,7	1	1	1	1	1	1	1	1	1	0	1	-10,852713	274,049291	308,961521	0
15.01.2021	21:31:52	0	0	4,858193	1,11975	313,02	0,023	86,405	0	1017,32	6,7	8,7	8,6	1	1	1	1	1	1	1	1	1	0	1	-10,359408	274,113399	309,754187	0
15.01.2021	21:31:53	0	0	2,711534	1,11225	317,8224	0,028	86,411	0	1017,46	6,7	8,7	8,7	1	1	1	1	1	1	1	1	1	0	1	-13,530655	274,040363	306,241904	0
15.01.2021	21:31:54	0	0	3,276436	1,13325	310,2984	0,022	86,391	0	1017,22	6,7	8,7	8,7	1	1	1	1	1	1	1	1	1	0	1	-9,372798	274,128339	310,810589	0
15.01.2021	21:31:55	0	0	4,632203	1,2045	308,0124	0,028	86,411	0	1017,28	6,7	8,7	8,7	1	1	1	1	1	1	1	1	1	0	1	-10,923185	274,077591	309,023176	0
15.01.2021	21:31:56	0	0	3,276436	1,3095	315,5868	0,026	86,395	0	1017,36	6,7	8,7	8,7	1	1	1	1	1	1	1	1	1	0	1	-9,725159	274,110413	310,374486	0
15.01.2021	21:31:57	0	0	3,502398	1,33575	312,7608	0,031	86,413	0	1017,34	6,7	8,7	8,7	1	1	1	1	1	1	1	1	1	0	1	-5,637773	274,01806	314,030699	0
15.01.2021	21:31:58	0	0	2,711534	1,3635	304,6824	0,026	86,401	0	1017,38	6,7	8,7	8,7	1	1	1	1	1	1	1	1	1	0	1	-4,510218	273,939462	314,791646	0
15.01.2021	21:31:59	0	0	2,485572	1,37775	315,1584	0,018	86,405	0	1017,32	6,7	8,7	8,7	1	1	1	1	1	1	1	1	1	0	1	-4,580691	273,979462	314,90771	0
15.01.2021	21:32:00	0	0	2,824531	1,3635	314,5536	0,027	86,409	0	1017,36	6,7	8,7	8,6	1	1	1	1	1	1	1	1	1	0	1	-12,825934	274,122361	307,329529	0
15.01.2021	21:32:01	0	0	3,502398	1,3995	316,9836	0,025	86,404	0	1017,34	6,7	8,7	8,7	1	1	1	1	1	1	1	1	1	0	1	-10,42988	274,046314	309,37046	0
15.01.2021	21:32:02	0	0	2,598553	1,40325	320,3964	0,026	86,404	0	1017,36	6,7	8,7	8,7	1	1	1	1	1	1	1	1	1	0	1	-12,684989	273,942422	306,630676	0
15.01.2021	21:32:03	0	0	4,51925	1,476	310,662	0,025	86,413	0	1017,44	6,7	8,7	8,6	1	1	1	1	1	1	1	1	1	0	1	-6,976744	274,053757	312,858337	0
15.01.2021	21:32:04	0	0	5,084125	1,5225	317,7648	0,022	86,408	0	1017,36	6,7	8,7	8,7	1	1	1	1	1	1	1	1	1	0	1	-7,188161	274,113399	312,925435	0
15.01.2021	21:32:05	0	0	2,824531	1,542	322,5384	0,023	86,411	0	1017,4	6,7	8,7	8,6	1	1	1	1	1	1	1	1	1	0	1	-6,342495	274,046314	313,457845	0
15.01.2021	21:32:06	0	0	4,067325	1,5165	321,8832	0,023	86,409	0	1017,48	6,7	8,7	8,6	1	1	1	1	1	1	1	1	1	0	1	-5,426357	274,11788	314,708169	0
15.01.2021	21:32:07	0	0	2,711534	1,479	324,3744	0,026	86,389	0	1017,3	6,7	8,7	8,7	1	1	1	1	1	1	1	1	1	0	1	-6,483439	274,009146	313,14344	0
15.01.2021	21:32:08	0	0	4,067325	1,44525	324,8064	0,026	86,404	0	1017,26	6,7	8,7	8,6	1	1	1	1	1	1	1	1	1	0	1	-9,584214	273,948344	309,759062	0
15.01.2021	21:32:09	0	0	2,824531	1,3755	323,7732	0,025	86,409	0	1017,4	6,7	8,7	8,6	1	1	1	1	1	1	1	1	1	0	1	-7,610994	274,034413	312,133795	0
15.01.2021	21:32:10	0	0	4,858193	1,32525	318,4272	0,02	86,402	0	1017,44	6,7	8,7	8,6	1	1	1	1	1	1	1	1	1	0	1	-7,540521	274,114893	312,58005	0
15.01.2021	21:32:11	0	0	4,632231	1,41075	318,0744	0,029	86,425	0	1017,34	6,7	8,7	8,6	1	1	1	1	1	1	1	1	1	0	1	-10,923185	273,969084	308,516809	0
15.01.2021	21:32:12	0	0	3,050475	1,6695	317,8404	0,029	86,416	0	1017,36	6,7	8,7	8,7	1	1	1	1	1	1	1	1	1	0	1	-14,799154	274,114893	305,321417	0
15.01.2021	21:32:13	0	0	4,406268	1,91475	330,0948	0,023	86,4	0	1017,4	6,7	8,7	8,6	1	1	1	1	1	1	1	1	1	0	1	-10,500352	274,062691	309,376439	0
15.01.2021	21:32:14	0	0	2,146631	1,9305	309,4848	0,03	86,411	0	1017,34	6,7	8,7	8,7	1	1	1	1	1	1	1	1	1	0	1	-12,614517	273,948344	306,728759	0
15.01.2021	21:32:15	0	0	5,197137	1,806	304,3008	0,028	86,391	0	1017,36	6,7	8,7	8,6	1	1	1	1	1	1	1	1	1	0	1	-12,05074	274,059713	307,812146	0
15.01.2021	21:32:16	0	0	2,824514	1,7415	307,5948	0,033	86,409	0	1017,4	6,7	8,7	8,7	1	1	1	1	1	1	1	1	1	0	1	-7,963354	273,958711	311,428265	0
15.01.2021	21:32:17	0	0	3,389417	1,85025	314,7948	0,024	86,397	0	1017,36	6,7	8,7	8,7	1	1	1	1	1	1	1	1	1	0	1	-9,302326	274,013602	310,345347	0
15.01.2021	21:32:18	0	0	3,6154	1,962	302,8608	0,023	86,412	0	1017,4	6,7	8,7	8,6	1	1	1	1	1	1	1	1	1	0	1	-10,218464	274,11788	309,916062	0
15.01.2021	21:32:19	0	0	2,598553	2,073	333,1764	0,028	86,398	0	1017,32	6,7	8,7	8,7	1	1	1	1	1	1	1	1	1	0	1	-7,188161	274,110413	312,911484	0
15.01.2021	21:32:20	0	0	4,745212	1,986	329,6664	0,031	86,408	0	1017,4	6,7	8,7	8,6	1	1	1	1	1	1	1	1	1	0	1	-7,047216	274,06865	312,857395	0
15.01.2021	21:32:21	0	0	4,293287	1,90125	324,126	0,025	86,396	0	1017,44	6,7	8,7	8,6	1	1	1	1	1	1	1	1	1	0	1	-10,077519	274,120867	310,070964	0
15.01.2021	21:32:22	0	0	3,728381	1,9605	319,9968	0,031	86,41	0	1017,44	6,7	8,7	8,6	1	1	1	1	1	1	1	1	1	0	1	-7,751938	273,992814	311,798746	0
15.01.2021	21:32:23	0	0	4,519223	2,09925	312,8472	0,025	86,403	0	1017,3	6,7	8,7	8,7	1	1	1	1	1	1	1	1	1	0	1	-6,553911	273,940942	312,754854	0
15.01.2021	21:32:24	0	0	3,163456	2,12925	306,4284	0,024	86,406	0	1017,4	6,7	8,7	8,7	1	1	1	1	1	1	1	1	1	0	1	-10,077519	273,994298	309,480088	0
15.01.2021	21:32:25	0	0	4,067325	2,04	334,2096	0,028	86,42	0	1017,46	6,7	8,7	8,6	1	1	1	1	1	1	1	1	1	0	1	-9,372798	274,022518	310,31648	0
15.01.2021	21:32:26	0	0	4,745212	1,85025	328,1976	0,025	86,406	0	1017,3	6,7	8,7	8,6	1	1	1	1	1	1	1	1	1	0	1	-9,584214	274,074611	310,348228	0
15.01.2021	21:32:27	0	0	3,163456	1,84875	321,1452	0,028	86,417	0	1017,42	6,7	8,7	8,7	1	1	1	1	1	1	1	1	1	0	1	-7,82241	273,95723	311,562301	0
15.01.2021	21:32:28	0	0	4,406268	1,7655	308,0052	0,026	86,419	0	1017,28	6,7	8,7	8,6	1	1	1	1	1	1	1	1	1	0	1	-8,033827	274,009146	311,593052	0
15.01.2021	21:32:29	0	0	3,728359	1,84875	301,2192	0,03	86,419	0	1017,46	6,7	8,7	8,7	1	1	1	1	1	1	1	1	1	0	1	-7,540521	273,926147	311,699268	0
15.01.2021	21:32:30	0	0	2,824514	1,95975	293,2992	0,035	86,419	0	1017,32	6,7	8,7	8,7	1	1	1	1	1	1	1	1	1	0	1	-5,990134	273,979462	313,498267	0
15.01.2021	21:32:31	0	0	3,954344	2,0265	303,2028	0,027	86,411	0	1017,28	6,7	8,7	8,6	1	1	1	1	1	1	1	1	1	0	1	-9,654686	273,946863	309,681686	0
15.01.2021	21:32:32	0	0	3,841362	2,06625	306,3816	0,026	86,406	0	1017,36	6,7	8,7	8,6	1	1	1	1	1	1	1	1	1	0	1	-11,41649	274,07312	308,508993	0
15.01.2021	21:32:33	0	0	3,728359	2,0955	305,3484	0,027	86,397	0	1017,38	6,7	8,7	8,7	1	1	1	1	1	1	1	1	1	0	1	-13,530655	274,102948	306,534124	0
15.01.2021	21:32:34	0	0	4,293261	2,0505	313,1964	0,024	86,404	0	1017,22	6,7	8,7	8,7	1	1	1	1	1	1	1	1	1	0	1	-7,892882	274,021032	311,78946	0
15.01.2021	21:32:35	0	0	3,95432	2,00475	303,192	0,028	86,415	0	1017,3	6,7	8,7	8,7	1	1	1	1	1	1	1	1	1	0	1	-8,245243	273,937982	311,049721	0
15.01.2021	21:32:36	0	0	4,745184	2,109	306,1044	0,027	86,412	0	1017,32	6,7	8,7	8,7	1	1	1	1	1	1	1	1	1	0	1	-6,976744	274,064181	312,907002	0
15.01.2021	21:32:37	0	0	4,519223	2,202	305,0388	0,025	86,411	0	1017,34	6,7	8,7	8,7	1	1	1	1	1	1	1	1	1	0	1	-4,22833	274,131328	315,969024	0
15.01.2021	21:32:38	0	0	4,632203	2,2875	313,6284	0,023	86,413	0	1017,4	6,7	8,7	8,7	1	1	1	1	1	1	1	1	1	0	1	-10,147992	273,998751	309,43039	0
15.01.2021	21:32:39	0	0	3,389417	2,289	295,5636	0,03	86,412	0	1017,54	6,7	8,7	8,7	1	1	1	1	1	1	1	1	1	0	1	-7,751938	274,107427	312,333759	0
15.01.2021	21:32:40	0	0	4,971175	2,24925	301,2264	0,031	86,411	0	1017,48	6,7	8,7	8,6	1	1	1	1	1	1	1	1	1	0	1	-10,923185	274,012117	308,717555	0
15.01.2021	21:32:41	0	0	3,728381	2,244	309,168	0,019	86,408	0	1017,3	6,7	8,7	8,6	1	1	1	1	1	1	1	1	1	0	1	-6,765328	273,961674	312,64011	0
15.01.2021	21:32:42	0	0	4,293261	2,36025	312,7716	0,024	86,411	0	1017,42	6,7	8,7	8,7	1	1	1	1	1	1	1	1	1	0	1	-9,725159	274,088029	310,269941	0
15.01.2021	21:32:43	0	0	3,728359	2,46225	312,174	0,024	86,402	0	1017,32	6,7	8,7	8,7	1	1	1	1	1	1	1	1	1	0	1	-8,668076	273,954267	310,702821	0
15.01.2021	21:32:44	0	0	4,0673	2,49675	321,138	0,022	86,402	0	1017,26	6,7	8,7	8,7	1	1	1	1	1	1	1	1	1	0	1	-6,624383	274,079082	313,328939	0
15.01.2021	21:32:45	0	0	3,163456	2,493	315,198	0,029	86,405	0	1017,32	6,7	8,7	8,7	1	1	1	1	1	1	1	1	1	0	1	-7,047216	274,088029	312,947883	0
15.01.2021	21:32:46	0	0	4,632203	2,57625	309,2328	0,032	86,405	0	1017,34	6,7	8,7	8,7	1	1	1	1	1	1	1	1	1	0	1	-7,329105	273,970566	312,117803	0
15.01.2021	21:32:47	0	0	4,51925	2,6055	322,6464	0,022	86,394	0	1017,48	6,7	8,7	8,6	1	1	1	1	1	1	1	1	1	0	1	-10,147992	273,945383	309,181478	0
15.01.2021	21:32:48	0	0	2,485572	2,562	316,6632	0,028	86,401	0	1017,52	6,7	8,7	8,7	1	1	1	1	1	1	1	1	1	0	1	-5,637773	273,972049	313,816048	0
15.01.2021	21:32:49	0	0	2,598553	2,5995	318,1284	0,027	86,402	0	1017,2	6,7	8,7	8,7	1	1	1	1	1	1	1	1	1	0	1	-5,355884	274,07163	314,562641	0
15.01.2021	21:32:50	0	0	4,51925	2,66175	316,296	0,027	86,412	0	1017,4	6,7	8,7	8,6	1	1	1	1	1	1	1	1	1	0	1	-5,567301	274,096979	314,469599	0
15.01.2021	21:32:51	0	0	4,632203	2,6475	320,85	0,022	86,399	0	1017,4	6,7	8,7	8,7	1	1	1	1	1	1	1	1	1	0	1	-6,412967	274,052268	313,415165	0
15.01.2021	21:32:52	0	0	3,954344	2,6355	328,3452	0,021	86,391	0	1017,42	6,7	8,7	8,6	1	1	1	1	1	1	1	1	1	0	1	-12,262156	274,122361	307,893306	0
15.01.2021	21:32:53	0	0	4,180306	2,4765	322,2108	0,027	86,395	0	1017,42	6,7	8,7	8,6	1	1	1	1	1	1	1	1	1	0	1	-7,047216	274,049291	312,767018	0
15.01.2021	21:32:54	0	0	4,632231	2,3325	315,162	0,028	86,404	0	1017,32	6,7	8,7	8,6	1	1	1	1	1	1	1	1	1	0	1	-5,778717	273,946863	313,557655	0
15.01.2021	21:32:55	0	0	5,4231	2,145	316,98	0,025	86,401	0	1017,22	6,7	8,7	8,6	1	1	1	1	1	1	1	1	1	0	1	-7,047216	273,988363	312,4827	0
15.01.2021	21:32:56	0	0	4,293261	2,085	318,8628	0,03	86,4	0	1017,3	6,7	8,7	8,7	1	1	1	1	1	1	1	1	1	0	1	-11,627907	274,082064	308,339338	0
15.01.2021	21:32:57	0	0	2,372592	2,04825	315,9432	0,029	86,391	0	1017,38	6,7	8,7	8,7	1	1	1	1	1	1	1	1	1	0	1	-7,892882	273,936503	311,395183	0
15.01.2021	21:32:58	0	0	3,728381	2,004	315,54	0,02	86,375	0	1017,26	6,7	8,7	8,6	1	1	1	1	1	1	1	1	1	0	1	-13,319239	273,951305	306,037847	0
15.01.2021	21:32:59	0	0	3,389417	2,02875	313,1172	0,022	86,387	0	1017,28	6,7	8,7	8,7	1	1	1	1	1	1	1	1	1	0	1	-4,016913	274,052268	315,811218	0
15.01.2021	21:33:00	0	0	3,389437	2,106	317,088	0,022	86,382	0	1017,5	6,7	8,7	8,6	1	1	1	1	1	1	1	1	1	0	1	-7,470049	274,113399	312,643546	0
15.01.2021	21:33:01	0	0	3,841339	2,229	323,7624	0,024	86,393	0	1017,36	6,7	8,7	8,7	1	1	1	1	1	1	1	1	1	0	1	-9,44327	273,975014	310,024381	0
15.01.2021	21:33:02	0	0	2,937495	2,2845	315,1692	0,02	86,383	0	1017,24	6,7	8,7	8,7	1	1	1	1	1	1	1	1	1	0	1	-14,799154	273,933543	304,475115	0
15.01.2021	21:33:03	0	0	3,502419	2,31825	324,0252	0,025	86,397	0	1017,46	6,7	8,7	8,6	1	1	1	1	1	1	1	1	1	0	1	-9,866103	274,040363	309,906456	0
15.01.2021	21:33:04	0	0	4,406242	2,3505	319,2444	0,026	86,396	0	1017,56	6,7	8,7	8,7	1	1	1	1	1	1	1	1	1	0	1	-9,584214	274,104441	310,487537	0
15.01.2021	21:33:05	0	0	5,084125	2,2875	317,034	0,025	86,395	0	1017,44	6,7	8,7	8,7	1	1	1	1	1	1	1	1	1	0	1	-8,386187	273,964638	311,033071	0
15.01.2021	21:33:06	0	0	3,615378	2,21025	322,9164	0,025	86,388	0	1017,32	6,7	8,7	8,7	1	1	1	1	1	1	1	1	1	0	1	-6,483439	273,943903	312,839128	0
15.01.2021	21:33:07	0	0	3,728381	2,22375	317,376	0,023	86,393	0	1017,3	6,7	8,7	8,6	1	1	1	1	1	1	1	1	1	0	1	-9,654686	273,936503	309,633379	0
15.01.2021	21:33:08	0	0	3,276456	2,2035	322,6392	0,027	86,401	0	1017,56	6,7	8,7	8,6	1	1	1	1	1	1	1	1	1	0	1	-10,641297	273,929105	308,612283	0
15.01.2021	21:33:09	0	0	2,598569	2,19075	318,7728	0,027	86,379	0	1017,3	6,7	8,7	8,6	1	1	1	1	1	1	1	1	1	0	1	-5,073996	273,985395	314,44208	0
15.01.2021	21:33:10	0	0	3,6154	2,124	327,7224	0,027	86,405	0	1017,36	6,7	8,7	8,6	1	1	1	1	1	1	1	1	1	0	1	-11,06413	273,933543	308,21014	0
15.01.2021	21:33:11	0	0	3,95432	1,99725	311,3568	0,027	86,391	0	1017,3	6,7	8,7	8,7	1	1	1	1	1	1	1	1	1	0	1	-8,668076	274,091012	311,340954	0
15.01.2021	21:33:12	0	0	2,598569	1,905	304,326	0,027	86,399	0	1017,46	6,7	8,7	8,6	1	1	1	1	1	1	1	1	1	0	1	-8,104299	274,050779	311,716884	0
15.01.2021	21:33:13	0	0	4,293261	1,80525	302,0976	0,028	86,394	0	1017,4	6,7	8,7	8,7	1	1	1	1	1	1	1	1	1	0	1	-9,725159	274,101456	310,33265	0
15.01.2021	21:33:14	0	0	3,728359	1,76175	307,2096	0,026	86,383	0	1017,22	6,7	8,7	8,7	1	1	1	1	1	1	1	1	1	0	1	-9,795631	274,044826	309,997763	0
15.01.2021	21:33:15	0	0	4,858193	1,6875	302,076	0,029	86,39	0	1017,44	6,7	8,7	8,6	1	1	1	1	1	1	1	1	1	0	1	-6,906272	273,927626	312,340412	0
15.01.2021	21:33:16	0	0	4,406242	1,6755	300,1752	0,023	86,39	0	1017,5	6,7	8,7	8,7	1	1	1	1	1	1	1	1	1	0	1	-7,258633	273,995783	312,305899	0
15.01.2021	21:33:17	0	0	4,745184	1,65	294,7572	0,024	86,408	0	1017,42	6,7	8,7	8,7	1	1	1	1	1	1	1	1	1	0	1	-10,500352	274,101456	309,557456	0
15.01.2021	21:33:18	0	0	2,937495	1,641	301,554	0,022	86,385	0	1017,34	6,7	8,7	8,7	1	1	1	1	1	1	1	1	1	0	1	-10,288936	274,061202	309,580902	0
15.01.2021	21:33:19	0	0	4,293287	1,719	298,7496	0,022	86,402	0	1017,42	6,7	8,7	8,6	1	1	1	1	1	1	1	1	1	0	1	-5,990134	273,92319	313,235869	0
15.01.2021	21:33:20	0	0	4,406268	1,69875	301,68	0,021	86,392	0	1017,36	6,7	8,7	8,6	1	1	1	1	1	1	1	1	1	0	1	-5,144468	274,053757	314,690613	0
15.01.2021	21:33:21	0	0	3,163475	1,6485	299,4372	0,027	86,396	0	1017,46	6,7	8,7	8,6	1	1	1	1	1	1	1	1	1	0	1	-12,403101	274,11788	307,731425	0
15.01.2021	21:33:22	0	0	2,485572	1,7115	307,1988	0,026	86,396	0	1017,38	6,7	8,7	8,7	1	1	1	1	1	1	1	1	1	0	1	-8,45666	273,969084	310,983335	0
15.01.2021	21:33:23	0	0	3,163456	1,77225	312,534	0,022	86,381	0	1017,4	6,7	8,7	8,7	1	1	1	1	1	1	1	1	1	0	1	-6,765328	273,926147	312,474462	0
15.01.2021	21:33:24	0	0	4,745212	1,78275	310,2876	0,029	86,4	0	1017,26	6,7	8,7	8,6	1	1	1	1	1	1	1	1	1	0	1	-9,020437	274,044826	310,772957	0
15.01.2021	21:33:25	0	0	2,598553	1,9065	300,1356	0,025	86,385	0	1017,44	6,7	8,7	8,7	1	1	1	1	1	1	1	1	1	0	1	-10,007047	274,096979	310,029853	0
15.01.2021	21:33:26	0	0	3,615378	2,1705	310,3272	0,027	86,395	0	1017,42	6,7	8,7	8,7	1	1	1	1	1	1	1	1	1	0	1	-4,22833	274,026978	315,48176	0
15.01.2021	21:33:27	0	0	3,841339	2,289	306,4284	0,028	86,393	0	1017,42	6,7	8,7	8,7	1	1	1	1	1	1	1	1	1	0	1	-9,231853	274,093995	310,79111	0
15.01.2021	21:33:28	0	0	3,389417	2,42775	303,1668	0,031	86,39	0	1017,42	6,7	8,7	8,7	1	1	1	1	1	1	1	1	1	0	1	-11,486963	273,99133	308,056798	0
15.01.2021	21:33:29	0	0	4,858164	2,421	303,138	0,025	86,404	0	1017,42	6,7	8,7	8,7	1	1	1	1	1	1	1	1	1	0	1	-9,161381	274,102948	310,903399	0
15.01.2021	21:33:30	0	0	3,6154	2,34375	300,4704	0,02	86,381	0	1017,24	6,7	8,7	8,6	1	1	1	1	1	1	1	1	1	0	1	-8,879493	273,992814	310,671191	0
15.01.2021	21:33:31	0	0	4,519277	2,205	301,5684	0,029	86,403	0	1017,52	6,7	8,7	8,5	1	1	1	1	1	1	1	1	1	0	1	-8,45666	274,108919	311,636011	0
15.01.2021	21:33:32	0	0	5,084156	2,1735	297,2088	0,024	86,398	0	1017,28	6,7	8,7	8,6	1	1	1	1	1	1	1	1	1	0	1	-8,80902	274,010631	310,824789	0
15.01.2021	21:33:33	0	0	4,180281	2,1645	296,0712	0,021	86,375	0	1017,48	6,7	8,7	8,7	1	1	1	1	1	1	1	1	1	0	1	-8,386187	273,951305	310,970898	0
15.01.2021	21:33:34	0	0	4,519223	2,1465	301,2588	0,028	86,393	0	1017,48	6,7	8,7	8,7	1	1	1	1	1	1	1	1	1	0	1	-7,892882	274,044826	311,900512	0
15.01.2021	21:33:35	0	0	4,293261	2,14125	308,9916	0,025	86,392	0	1017,34	6,7	8,7	8,7	1	1	1	1	1	1	1	1	1	0	1	-14,023961	274,12535	306,145463	0
15.01.2021	21:33:36	0	0	4,632203	2,16825	310,7376	0,021	86,388	0	1017,36	6,7	8,7	8,7	1	1	1	1	1	1	1	1	1	0	1	-13,389711	274,04185	306,389792	0
15.01.2021	21:33:37	0	0	4,067325	2,235	311,4756	0,025	86,384	0	1017,36	6,7	8,7	8,6	1	1	1	1	1	1	1	1	1	0	1	-6,342495	273,929105	312,911085	0
15.01.2021	21:33:38	0	0	3,050494	2,16825	307,2744	0,026	86,386	0	1017,34	6,7	8,7	8,6	1	1	1	1	1	1	1	1	1	0	1	-14,446794	274,059713	305,416092	0
15.01.2021	21:33:39	0	0	4,519223	2,091	313,254	0,025	86,39	0	1017,48	6,7	8,7	8,7	1	1	1	1	1	1	1	1	1	0	1	-15,292459	274,113399	304,821136	0
15.01.2021	21:33:40	0	0	4,180281	2,05725	311,0904	0,021	86,383	0	1017,44	6,7	8,7	8,7	1	1	1	1	1	1	1	1	1	0	1	-10,147992	274,096979	309,888908	0
15.01.2021	21:33:41	0	0	3,6154	1,97775	315,4176	0,023	86,369	0	1017,42	6,7	8,7	8,6	1	1	1	1	1	1	1	1	1	0	1	-11,768851	274,062691	308,10794	0
15.01.2021	21:33:42	0	0	4,858164	1,9575	320,3928	0,026	86,378	0	1017,34	6,7	8,7	8,7	1	1	1	1	1	1	1	1	1	0	1	-12,684989	274,077591	307,261372	0
15.01.2021	21:33:43	0	0	2,71155	1,95075	322,596	0,02	86,381	0	1017,26	6,7	8,7	8,6	1	1	1	1	1	1	1	1	1	0	1	-11,275546	274,095487	308,754385	0
15.01.2021	21:33:44	0	0	4,971205	1,91625	324,3888	0,023	86,391	0	1017,4	6,7	8,7	8,5	1	1	1	1	1	1	1	1	1	0	1	-8,668076	274,04185	311,111427	0
15.01.2021	21:33:45	0	0	2,598569	1,88925	319,2012	0,021	86,388	0	1017,4	6,7	8,7	8,6	1	1	1	1	1	1	1	1	1	0	1	-10,218464	274,107427	309,867233	0
15.01.2021	21:33:46	0	0	2,598569	1,902	320,382	0,017	86,376	0	1017,28	6,7	8,7	8,6	1	1	1	1	1	1	1	1	1	0	1	-5,919662	274,052268	313,90847	0
15.01.2021	21:33:47	0	0	3,276436	1,9305	320,0148	0,022	86,386	0	1017,38	6,7	8,7	8,7	1	1	1	1	1	1	1	1	1	0	1	-5,144468	273,936503	314,143598	0
15.01.2021	21:33:48	0	0	4,745184	1,929	322,56	0,025	86,39	0	1017,42	6,7	8,7	8,7	1	1	1	1	1	1	1	1	1	0	1	-4,510218	273,985395	315,005857	0
15.01.2021	21:33:49	0	0	4,406242	1,83225	327,7764	0,022	86,393	0	1017,5	6,7	8,7	8,7	1	1	1	1	1	1	1	1	1	0	1	-8,738548	274,059713	311,124337	0
15.01.2021	21:33:50	0	0	4,632203	1,86075	326,7072	0,025	86,381	0	1017,32	6,7	8,7	8,7	1	1	1	1	1	1	1	1	1	0	1	-7,258633	274,086537	312,729502	0
15.01.2021	21:33:51	0	0	2,937512	1,84275	322,1424	0,024	86,376	0	1017,3	6,7	8,7	8,6	1	1	1	1	1	1	1	1	1	0	1	-6,624383	274,086537	313,363751	0
15.01.2021	21:33:52	0	0	4,0673	1,8315	327,456	0,027	86,386	0	1017,36	6,7	8,7	8,7	1	1	1	1	1	1	1	1	1	0	1	-9,302326	274,105934	310,776398	0
15.01.2021	21:33:53	0	0	3,954344	1,80975	323,676	0,027	86,391	0	1017,48	6,7	8,7	8,6	1	1	1	1	1	1	1	1	1	0	1	-8,245243	274,07312	311,680241	0
15.01.2021	21:33:54	0	0	2,71155	1,7115	316,2348	0,027	86,404	0	1017,42	6,7	8,7	8,6	1	1	1	1	1	1	1	1	1	0	1	-6,624383	274,099963	313,426455	0
15.01.2021	21:33:55	0	0	3,163475	1,74375	309,276	0,02	86,388	0	1017,4	6,7	8,7	8,6	1	1	1	1	1	1	1	1	1	0	1	-5,637773	273,948344	313,705503	0
15.01.2021	21:33:56	0	0	2,711534	1,72875	318,7548	0,022	86,397	0	1017,38	6,7	8,7	8,7	1	1	1	1	1	1	1	1	1	0	1	-6,553911	274,055245	313,28812	0
15.01.2021	21:33:57	0	0	2,372606	1,833	317,3616	0,02	86,406	0	1017,48	6,7	8,7	8,6	1	1	1	1	1	1	1	1	1	0	1	-10,359408	274,120867	309,789075	0
15.01.2021	21:33:58	0	0	4,632203	1,88475	306,8856	0,022	86,386	0	1017,36	6,7	8,7	8,7	1	1	1	1	1	1	1	1	1	0	1	-5,496829	274,058223	314,359105	0
15.01.2021	21:33:59	0	0	2,485572	1,93425	303,93	0,022	86,384	0	1017,42	6,7	8,7	8,7	1	1	1	1	1	1	1	1	1	0	1	-4,792107	274,088029	315,202992	0
15.01.2021	21:34:00	0	0	4,971145	2,00175	292,6512	0,027	86,396	0	1017,44	6,7	8,7	8,7	1	1	1	1	1	1	1	1	1	0	1	-9,302326	273,960193	310,096203	0
15.01.2021	21:34:01	0	0	3,276436	2,08875	294,7932	0,024	86,406	0	1017,44	6,7	8,7	8,7	1	1	1	1	1	1	1	1	1	0	1	-9,302326	274,113399	310,81127	0
15.01.2021	21:34:02	0	0	5,197137	2,0685	306,4752	0,026	86,398	0	1017,44	6,7	8,7	8,6	1	1	1	1	1	1	1	1	1	0	1	-7,047216	274,050779	312,773966	0
15.01.2021	21:34:03	0	0	2,485572	1,986	291,8052	0,028	86,412	0	1017,44	6,7	8,7	8,7	1	1	1	1	1	1	1	1	1	0	1	-9,44327	273,939462	309,858594	0
15.01.2021	21:34:04	0	0	2,824531	1,8225	303,2172	0,025	86,404	0	1017,44	6,7	8,7	8,6	1	1	1	1	1	1	1	1	1	0	1	-9,654686	274,046314	310,145654	0
15.01.2021	21:34:05	0	0	4,858164	1,74	303,9156	0,022	86,4	0	1017,46	6,7	8,7	8,7	1	1	1	1	1	1	1	1	1	0	1	-2,255109	274,104441	317,816642	0
15.01.2021	21:34:06	0	0	3,502398	1,6725	309,582	0,022	86,397	0	1017,38	6,7	8,7	8,7	1	1	1	1	1	1	1	1	1	0	1	-8,033827	274,059713	311,829059	0
15.01.2021	21:34:07	0	0	4,406268	1,74075	286,6968	0,018	86,395	0	1017,4	6,7	8,7	8,6	1	1	1	1	1	1	1	1	1	0	1	-5,567301	274,095487	314,46263	0
15.01.2021	21:34:08	0	0	3,615378	1,824	293,7168	0,026	86,381	0	1017,4	6,7	8,7	8,7	1	1	1	1	1	1	1	1	1	0	1	-12,262156	274,061202	307,607682	0
15.01.2021	21:34:09	0	0	4,745184	1,923	298,2168	0,027	86,409	0	1017,38	6,7	8,7	8,7	1	1	1	1	1	1	1	1	1	0	1	-13,530655	274,108919	306,562015	0
15.01.2021	21:34:10	0	0	3,050494	1,947	296,8776	0,021	86,395	0	1017,18	6,7	8,7	8,6	1	1	1	1	1	1	1	1	1	0	1	-8,597604	274,000236	310,987704	0
15.01.2021	21:34:11	0	0	3,502419	1,88775	299,0664	0,026	86,403	0	1017,44	6,7	8,7	8,6	1	1	1	1	1	1	1	1	1	0	1	-11,41649	274,091012	308,59254	0
15.01.2021	21:34:12	0	0	4,51925	1,80675	299,3112	0,023	86,391	0	1017,38	6,7	8,7	8,6	1	1	1	1	1	1	1	1	1	0	1	-11,205074	273,951305	308,152011	0
15.01.2021	21:34:13	0	0	4,293261	1,824	300,3732	0,025	86,408	0	1017,36	6,7	8,7	8,7	1	1	1	1	1	1	1	1	1	0	1	-5,84919	273,939462	313,452675	0
15.01.2021	21:34:14	0	0	3,050475	1,86	297,4716	0,027	86,382	0	1017,44	6,7	8,7	8,7	1	1	1	1	1	1	1	1	1	0	1	-11,205074	273,95723	308,179637	0
15.01.2021	21:34:15	0	0	3,276456	1,938	282,834	0,019	86,399	0	1017,36	6,7	8,7	8,6	1	1	1	1	1	1	1	1	1	0	1	-7,681466	274,053757	312,153615	0
15.01.2021	21:34:16	0	0	4,745184	2,07225	296,7984	0,022	86,4	0	1017,28	6,7	8,7	8,7	1	1	1	1	1	1	1	1	1	0	1	-7,258633	274,064181	312,625113	0
15.01.2021	21:34:17	0	0	2,711534	2,097	282,1104	0,028	86,39	0	1017,42	6,7	8,7	8,7	1	1	1	1	1	1	1	1	1	0	1	-3,946441	274,105934	316,132283	0
15.01.2021	21:34:18	0	0	2,824514	2,05275	298,206	0,028	86,398	0	1017,32	6,7	8,7	8,7	1	1	1	1	1	1	1	1	1	0	1	-5,778717	273,970566	313,66819	0
15.01.2021	21:34:19	0	0	2,598553	1,98825	288,3924	0,019	86,391	0	1017,24	6,7	8,7	8,7	1	1	1	1	1	1	1	1	1	0	1	-5,708245	273,924668	313,524651	0
15.01.2021	21:34:20	0	0	4,0673	1,974	300,9024	0,02	86,394	0	1017,38	6,7	8,7	8,7	1	1	1	1	1	1	1	1	1	0	1	-9,231853	273,994298	310,325754	0
15.01.2021	21:34:21	0	0	4,067325	1,91775	300,1392	0,025	86,402	0	1017,42	6,7	8,7	8,6	1	1	1	1	1	1	1	1	1	0	1	-10,42988	274,113399	309,683715	0
15.01.2021	21:34:22	0	0	3,728381	1,941	296,802	0,021	86,402	0	1017,28	6,7	8,7	8,6	1	1	1	1	1	1	1	1	1	0	1	-10,993658	274,062691	308,883134	0
15.01.2021	21:34:23	0	0	2,259625	1,9185	298,2456	0,018	86,392	0	1017,32	6,7	8,7	8,6	1	1	1	1	1	1	1	1	1	0	1	-7,117689	274,114893	313,002883	0
15.01.2021	21:34:24	0	0	3,050475	2,052	294,0912	0,023	86,395	0	1017,46	6,7	8,7	8,7	1	1	1	1	1	1	1	1	1	0	1	-6,131078	274,047803	313,676209	0
15.01.2021	21:34:25	0	0	3,6154	2,11725	298,2744	0,025	86,4	0	1017,38	6,7	8,7	8,6	1	1	1	1	1	1	1	1	1	0	1	-5,637773	274,108919	314,454897	0
15.01.2021	21:34:26	0	0	4,180281	2,004	280,242	0,024	86,391	0	1017,44	6,7	8,7	8,7	1	1	1	1	1	1	1	1	1	0	1	-4,22833	273,964638	315,190929	0
15.01.2021	21:34:27	0	0	2,598553	1,84875	302,3388	0,018	86,395	0	1017,44	6,7	8,7	8,7	1	1	1	1	1	1	1	1	1	0	1	-7,82241	273,988363	311,707507	0
15.01.2021	21:34:28	0	0	3,502419	1,81425	303,8508	0,021	86,39	0	1017,34	6,7	8,7	8,6	1	1	1	1	1	1	1	1	1	0	1	-6,483439	274,096979	313,553461	0
15.01.2021	21:34:29	0	0	4,406268	1,92	298,3248	0,017	86,378	0	1017,28	6,7	8,7	8,6	1	1	1	1	1	1	1	1	1	0	1	-6,694856	274,046314	313,105485	0
15.01.2021	21:34:30	0	0	4,0673	2,11575	306,0684	0,02	86,365	0	1017,36	6,7	8,7	8,7	1	1	1	1	1	1	1	1	1	0	1	-10,077519	273,963156	309,334828	0
15.01.2021	21:34:31	0	0	3,615378	2,31225	300,8988	0,023	86,392	0	1017,36	6,7	8,7	8,7	1	1	1	1	1	1	1	1	1	0	1	-8,879493	274,096979	311,157407	0
15.01.2021	21:34:32	0	0	2,824514	2,41725	316,7316	0,02	86,386	0	1017,3	6,7	8,7	8,7	1	1	1	1	1	1	1	1	1	0	1	-5,21494	273,942422	314,100726	0
15.01.2021	21:34:33	0	0	2,598569	2,39025	309,2076	0,022	86,398	0	1017,38	6,7	8,7	8,6	1	1	1	1	1	1	1	1	1	0	1	-4,510218	274,040363	315,262341	0
15.01.2021	21:34:34	0	0	4,067325	2,3805	302,5224	0,02	86,368	0	1017,46	6,7	8,7	8,6	1	1	1	1	1	1	1	1	1	0	1	-9,44327	273,92319	309,782733	0
15.01.2021	21:34:35	0	0	2,598569	2,397	303,9228	0,021	86,387	0	1017,42	6,7	8,7	8,6	1	1	1	1	1	1	1	1	1	0	1	-4,087385	274,009146	315,539493	0
15.01.2021	21:34:36	0	0	3,163456	2,38575	302,6124	0,025	86,388	0	1017,34	6,7	8,7	8,7	1	1	1	1	1	1	1	1	1	0	1	-14,094433	274,101456	305,963376	0
15.01.2021	21:34:37	0	0	4,632231	2,355	312,2028	0,024	86,377	0	1017,32	6,7	8,7	8,6	1	1	1	1	1	1	1	1	1	0	1	-7,963354	274,047803	311,843933	0
15.01.2021	21:34:38	0	0	3,728359	2,38275	308,412	0,024	86,385	0	1017,38	6,7	8,7	8,7	1	1	1	1	1	1	1	1	1	0	1	-9,513742	274,062691	310,36305	0
15.01.2021	21:34:39	0	0	4,745184	2,4165	308,8512	0,023	86,367	0	1017,36	6,7	8,7	8,7	1	1	1	1	1	1	1	1	1	0	1	-8,668076	274,06716	311,22958	0
15.01.2021	21:34:40	0	0	4,632231	2,38125	311,7564	0,02	86,376	0	1017,16	6,7	8,7	8,6	1	1	1	1	1	1	1	1	1	0	1	-4,862579	273,921711	314,35653	0
15.01.2021	21:34:41	0	0	4,858193	2,268	304,9632	0,021	86,381	0	1017,46	6,7	8,7	8,6	1	1	1	1	1	1	1	1	1	0	1	-7,258633	274,061202	312,611205	0
15.01.2021	21:34:42	0	0	3,841362	2,14125	313,65	0,021	86,381	0	1017,54	6,7	8,7	8,6	1	1	1	1	1	1	1	1	1	0	1	-4,933051	274,092503	315,082945	0
15.01.2021	21:34:43	0	0	3,6154	2,067	304,65	0,024	86,38	0	1017,16	6,7	8,7	8,6	1	1	1	1	1	1	1	1	1	0	1	-7,329105	273,95723	312,055606	0
15.01.2021	21:34:44	0	0	4,406242	1,98525	319,986	0,023	86,384	0	1017,36	6,7	8,7	8,7	1	1	1	1	1	1	1	1	1	0	1	-10,007047	274,08952	309,995017	0
15.01.2021	21:34:45	0	0	2,824514	1,896	313,1604	0,021	86,37	0	1017,32	6,7	8,7	8,7	1	1	1	1	1	1	1	1	1	0	1	-6,272023	274,06716	313,625633	0
15.01.2021	21:34:46	0	0	2,372592	1,80375	312,5376	0,018	86,383	0	1017,3	6,7	8,7	8,7	1	1	1	1	1	1	1	1	1	0	1	-9,936575	273,943903	309,385992	0
15.01.2021	21:34:47	0	0	2,598553	1,85175	311,0688	0,024	86,384	0	1017,4	6,7	8,7	8,7	1	1	1	1	1	1	1	1	1	0	1	-8,949965	274,088029	311,045134	0
15.01.2021	21:34:48	0	0	2,259625	1,93125	304,9308	0,021	86,373	0	1017,42	6,7	8,7	8,6	1	1	1	1	1	1	1	1	1	0	1	-9,936575	273,979462	309,551826	0
15.01.2021	21:34:49	0	0	2,824531	1,9665	315,8496	0,02	86,362	0	1017,46	6,7	8,7	8,6	1	1	1	1	1	1	1	1	1	0	1	-12,614517	274,108919	307,478153	0
15.01.2021	21:34:50	0	0	3,841362	2,0715	305,7084	0,018	86,358	0	1017,36	6,7	8,7	8,6	1	1	1	1	1	1	1	1	1	0	1	-6,694856	274,040363	313,077703	0
15.01.2021	21:34:51	0	0	4,745184	2,184	307,62	0,023	86,374	0	1017,2	6,7	8,7	8,7	1	1	1	1	1	1	1	1	1	0	1	-5,144468	273,915798	314,047077	0
15.01.2021	21:34:52	0	0	3,502419	2,32125	307,5624	0,025	86,373	0	1017,5	6,7	8,7	8,6	1	1	1	1	1	1	1	1	1	0	1	-6,976744	274,010631	312,657065	0
15.01.2021	21:34:53	0	0	2,485587	2,343	302,0076	0,016	86,376	0	1017,46	6,7	8,7	8,6	1	1	1	1	1	1	1	1	1	0	1	-9,020437	274,102948	311,044343	0
15.01.2021	21:34:54	0	0	3,954344	2,298	314,442	0,023	86,377	0	1017,3	6,7	8,7	8,6	1	1	1	1	1	1	1	1	1	0	1	-8,80902	274,010631	310,824789	0
15.01.2021	21:34:55	0	0	3,6154	2,27325	308,0592	0,022	86,37	0	1017,36	6,7	8,7	8,6	1	1	1	1	1	1	1	1	1	0	1	-3,24172	274,096979	316,79518	0
15.01.2021	21:34:56	0	0	3,615378	2,10975	323,298	0,012	86,383	0	1017,38	6,7	8,7	8,7	1	1	1	1	1	1	1	1	1	0	1	-12,121212	274,064181	307,762534	0
15.01.2021	21:34:57	0	0	3,502398	2,1255	313,6788	0,021	86,382	0	1017,3	6,7	8,7	8,7	1	1	1	1	1	1	1	1	1	0	1	-6,412967	273,975014	313,054684	0
15.01.2021	21:34:58	0	0	4,0673	2,13375	323,73	0,018	86,38	0	1017,38	6,7	8,7	8,7	1	1	1	1	1	1	1	1	1	0	1	-6,976744	274,099963	313,074094	0
15.01.2021	21:34:59	0	0	2,824531	2,187	312,426	0,021	86,371	0	1017,32	6,7	8,7	8,6	1	1	1	1	1	1	1	1	1	0	1	-9,725159	273,946863	309,611214	0
15.01.2021	21:35:00	0	0	4,971145	2,052	310,1868	0,021	86,38	0	1017,42	6,7	8,7	8,7	1	1	1	1	1	1	1	1	1	0	1	-6,342495	273,92319	312,883508	0
15.01.2021	21:35:01	0	0	4,293287	1,93875	308,52	0,015	86,375	0	1017,18	6,7	8,7	8,6	1	1	1	1	1	1	1	1	1	0	1	-5,003524	274,07312	314,92196	0
15.01.2021	21:35:02	0	0	3,389417	2,0235	295,2432	0,026	86,363	0	1017,6	6,7	8,7	8,7	1	1	1	1	1	1	1	1	1	0	1	-7,681466	273,926147	311,558324	0
15.01.2021	21:35:03	0	0	4,971145	2,15025	311,472	0,019	86,366	0	1017,28	6,7	8,7	8,7	1	1	1	1	1	1	1	1	1	0	1	-7,540521	274,029951	312,183446	0
15.01.2021	21:35:04	0	0	3,502398	2,22225	305,8668	0,02	86,385	0	1017,32	6,7	8,7	8,7	1	1	1	1	1	1	1	1	1	0	1	-10,852713	274,108919	309,239957	0
15.01.2021	21:35:05	0	0	4,180306	2,1735	308,9664	0,019	86,37	0	1017,42	6,7	8,7	8,6	1	1	1	1	1	1	1	1	1	0	1	-6,272023	274,055245	313,570009	0
15.01.2021	21:35:06	0	0	4,632203	2,20125	306,4896	0,015	86,381	0	1017,46	6,7	8,7	8,7	1	1	1	1	1	1	1	1	1	0	1	-6,553911	274,096979	313,482989	0
15.01.2021	21:35:07	0	0	2,937495	2,1615	299,4552	0,016	86,371	0	1017,34	6,7	8,7	8,7	1	1	1	1	1	1	1	1	1	0	1	-9,795631	273,969084	309,644364	0
15.01.2021	21:35:08	0	0	4,519223	2,11275	303,5916	0,014	86,374	0	1017,32	6,7	8,7	8,7	1	1	1	1	1	1	1	1	1	0	1	-5,003524	274,101456	315,054285	0
15.01.2021	21:35:09	0	0	4,971145	2,031	305,406	0,02	86,385	0	1017,34	6,7	8,7	8,7	1	1	1	1	1	1	1	1	1	0	1	-9,654686	274,029951	310,069281	0
15.01.2021	21:35:10	0	0	2,937512	1,8885	290,3976	0,017	86,379	0	1017,38	6,7	8,7	8,6	1	1	1	1	1	1	1	1	1	0	1	-10,359408	274,098471	309,684461	0
15.01.2021	21:35:11	0	0	3,95432	1,71	287,856	0,02	86,383	0	1017,4	6,7	8,7	8,7	1	1	1	1	1	1	1	1	1	0	1	-8,033827	273,997267	311,53763	0
15.01.2021	21:35:12	0	0	3,841362	1,7535	294,1488	0,021	86,366	0	1017,48	6,7	8,7	8,6	1	1	1	1	1	1	1	1	1	0	1	-7,399577	273,91432	311,785079	0
15.01.2021	21:35:13	0	0	2,824514	1,8315	296,8668	0,019	86,389	0	1017,52	6,7	8,7	8,7	1	1	1	1	1	1	1	1	1	0	1	-6,20155	273,972049	313,252271	0
15.01.2021	21:35:14	0	0	3,728359	1,863	312,4908	0,018	86,378	0	1017,36	6,7	8,7	8,7	1	1	1	1	1	1	1	1	1	0	1	-7,892882	273,936503	311,395183	0
15.01.2021	21:35:15	0	0	4,519223	1,9065	298,6596	0,021	86,373	0	1017,48	6,7	8,7	8,7	1	1	1	1	1	1	1	1	1	0	1	-10,359408	274,093995	309,663556	0
15.01.2021	21:35:16	0	0	4,51925	1,9275	294,93	0,02	86,387	0	1017,38	6,7	8,7	8,6	1	1	1	1	1	1	1	1	1	0	1	-9,231853	274,056734	310,617129	0
15.01.2021	21:35:17	0	0	3,841362	1,89375	293,4828	0,01	86,375	0	1017,38	6,7	8,7	8,6	1	1	1	1	1	1	1	1	1	0	1	-9,090909	273,986879	310,432087	0
15.01.2021	21:35:18	0	0	3,954344	1,86	299,466	0,014	86,389	0	1017,4	6,7	8,7	8,6	1	1	1	1	1	1	1	1	1	0	1	-7,963354	273,926147	311,276435	0
15.01.2021	21:35:19	0	0	2,824531	1,86675	296,1612	0,018	86,39	0	1017,36	6,7	8,7	8,6	1	1	1	1	1	1	1	1	1	0	1	-6,060606	274,013602	313,587066	0
15.01.2021	21:35:20	0	0	4,519223	1,908	301,644	0,021	86,379	0	1017,42	6,7	8,7	8,7	1	1	1	1	1	1	1	1	1	0	1	-6,060606	273,920233	313,151612	0
15.01.2021	21:35:21	0	0	2,372606	1,87725	303,8688	0,023	86,367	0	1017,46	6,7	8,7	8,6	1	1	1	1	1	1	1	1	1	0	1	-9,090909	274,043338	310,695539	0
15.01.2021	21:35:22	0	0	3,615378	1,8075	291,1932	0,026	86,378	0	1017,28	6,7	8,7	8,7	1	1	1	1	1	1	1	1	1	0	1	-9,44327	274,07312	310,482214	0
15.01.2021	21:35:23	0	0	2,71155	1,77375	306,072	0,025	86,377	0	1017,26	6,7	8,7	8,6	1	1	1	1	1	1	1	1	1	0	1	-8,879493	274,102948	311,185287	0
15.01.2021	21:35:24	0	0	3,954344	1,809	306,18	0,021	86,386	0	1017,26	6,7	8,7	8,6	1	1	1	1	1	1	1	1	1	0	1	-7,82241	274,01806	311,846062	0
15.01.2021	21:35:25	0	0	2,259625	2,02725	301,6296	0,021	86,396	0	1017,7	6,7	8,7	8,6	1	1	1	1	1	1	1	1	1	0	1	-6,8358	273,929105	312,41778	0
15.01.2021	21:35:26	0	0	3,050494	2,05125	304,5636	0,022	86,387	0	1017,52	6,7	8,7	8,6	1	1	1	1	1	1	1	1	1	0	1	-6,20155	273,958711	313,190069	0
15.01.2021	21:35:27	0	0	4,406242	2,058	308,4336	0,021	86,369	0	1017,26	6,7	8,7	8,7	1	1	1	1	1	1	1	1	1	0	1	-8,668076	273,920233	310,544142	0
15.01.2021	21:35:28	0	0	3,502398	2,12175	310,6548	0,012	86,383	0	1017,28	6,7	8,7	8,7	1	1	1	1	1	1	1	1	1	0	1	-10,288936	273,982429	309,213301	0
15.01.2021	21:35:29	0	0	4,51925	2,21175	306,8388	0,02	86,378	0	1017,44	6,7	8,7	8,6	1	1	1	1	1	1	1	1	1	0	1	-7,047216	273,909886	312,116775	0
15.01.2021	21:35:30	0	0	3,841362	2,2785	298,6956	0,02	86,394	0	1017,38	6,7	8,7	8,6	1	1	1	1	1	1	1	1	1	0	1	-10,711769	274,046314	309,088571	0
15.01.2021	21:35:31	0	0	2,146631	2,31975	304,3764	0,029	86,388	0	1017,3	6,7	8,7	8,7	1	1	1	1	1	1	1	1	1	0	1	-10,288936	273,921711	308,930174	0
15.01.2021	21:35:32	0	0	4,632231	2,33775	309,2688	0,025	86,386	0	1017,4	6,7	8,7	8,6	1	1	1	1	1	1	1	1	1	0	1	-8,104299	274,024005	311,591916	0
15.01.2021	21:35:33	0	0	4,51925	2,1765	322,6176	0,026	86,394	0	1017,48	6,7	8,7	8,6	1	1	1	1	1	1	1	1	1	0	1	-8,45666	274,122361	311,698803	0
15.01.2021	21:35:34	0	0	4,632231	2,0625	298,71	0,019	86,392	0	1017,36	6,7	8,7	8,6	1	1	1	1	1	1	1	1	1	0	1	-9,161381	274,056734	310,687601	0
15.01.2021	21:35:35	0	0	4,632231	2,08125	315,9	0,024	86,391	0	1017,3	6,7	8,7	8,6	1	1	1	1	1	1	1	1	1	0	1	-9,44327	273,908408	309,713834	0
15.01.2021	21:35:36	0	0	3,050475	2,06475	314,0712	0,02	86,386	0	1017,44	6,6	8,7	8,7	1	1	1	1	1	1	1	1	1	0	1	-9,020437	273,963156	310,391911	0
15.01.2021	21:35:37	0	0	3,728359	2,0415	302,4684	0,027	86,395	0	1017,42	6,7	8,7	8,7	1	1	1	1	1	1	1	1	1	0	1	-12,191684	274,102948	307,873096	0
15.01.2021	21:35:38	0	0	3,954344	2,14875	315,4932	0,025	86,387	0	1017,52	6,7	8,7	8,6	1	1	1	1	1	1	1	1	1	0	1	-6,060606	274,047803	313,746681	0
15.01.2021	21:35:39	0	0	2,259611	2,199	306,3492	0,021	86,38	0	1017,3	6,7	8,7	8,7	1	1	1	1	1	1	1	1	1	0	1	-8,738548	274,105934	311,340176	0
15.01.2021	21:35:40	0	0	2,937495	2,1825	325,4472	0,017	86,385	0	1017,28	6,7	8,7	8,7	1	1	1	1	1	1	1	1	1	0	1	-7,751938	273,955749	311,625866	0
15.01.2021	21:35:41	0	0	3,615378	2,12325	310,3128	0,025	86,395	0	1017,4	6,7	8,7	8,7	1	1	1	1	1	1	1	1	1	0	1	-4,721635	273,940942	314,58713	0
15.01.2021	21:35:42	0	0	3,615378	1,962	319,23	0,017	86,377	0	1017,34	6,7	8,7	8,7	1	1	1	1	1	1	1	1	1	0	1	-4,721635	274,025491	314,981517	0
15.01.2021	21:35:43	0	0	4,632231	1,86225	310,608	0,026	86,408	0	1017,36	6,7	8,7	8,6	1	1	1	1	1	1	1	1	1	0	1	-11,346018	274,107427	308,739678	0
15.01.2021	21:35:44	0	0	3,954344	1,81275	314,424	0,02	86,394	0	1017,38	6,7	8,7	8,6	1	1	1	1	1	1	1	1	1	0	1	-8,174771	274,029951	311,549196	0
15.01.2021	21:35:45	0	0	4,745212	1,722	303,9012	0,017	86,397	0	1017,46	6,7	8,7	8,6	1	1	1	1	1	1	1	1	1	0	1	-9,936575	274,095487	310,093356	0
15.01.2021	21:35:46	0	0	2,598553	1,7085	306,972	0,021	86,401	0	1017,34	6,7	8,7	8,7	1	1	1	1	1	1	1	1	1	0	1	-9,090909	273,972049	310,362912	0
15.01.2021	21:35:47	0	0	2,937495	1,791	303,1956	0,021	86,408	0	1017,42	6,7	8,7	8,7	1	1	1	1	1	1	1	1	1	0	1	-5,355884	274,099963	314,694954	0
15.01.2021	21:35:48	0	0	4,632231	1,85475	310,302	0,018	86,396	0	1017,34	6,7	8,7	8,6	1	1	1	1	1	1	1	1	1	0	1	-5,990134	274,074611	313,942308	0
15.01.2021	21:35:49	0	0	2,71155	1,87425	300,888	0,016	86,408	0	1017,46	6,7	8,7	8,6	1	1	1	1	1	1	1	1	1	0	1	-5,426357	273,943903	313,896211	0
15.01.2021	21:35:50	0	0	4,632231	1,96725	307,1088	0,022	86,399	0	1017,3	6,7	8,7	8,6	1	1	1	1	1	1	1	1	1	0	1	-7,117689	274,061202	312,75215	0
15.01.2021	21:35:51	0	0	4,632203	1,89525	300,096	0,024	86,39	0	1017,38	6,7	8,7	8,7	1	1	1	1	1	1	1	1	1	0	1	-10,500352	274,102948	309,564427	0
15.01.2021	21:35:52	0	0	4,0673	1,821	293,274	0,022	86,387	0	1017,36	6,6	8,7	8,7	1	1	1	1	1	1	1	1	1	0	1	-5,496829	273,939462	313,805036	0
15.01.2021	21:35:53	0	0	4,406242	1,7775	303,9588	0,017	86,402	0	1017,42	6,7	8,7	8,7	1	1	1	1	1	1	1	1	1	0	1	-7,329105	274,07163	312,589421	0
15.01.2021	21:35:54	0	0	4,858193	1,77825	314,4528	0,023	86,406	0	1017,34	6,7	8,7	8,6	1	1	1	1	1	1	1	1	1	0	1	-9,936575	274,086537	310,05156	0
15.01.2021	21:35:55	0	0	4,519223	1,77075	307,1916	0,021	86,403	0	1017,44	6,7	8,7	8,7	1	1	1	1	1	1	1	1	1	0	1	-7,047216	274,06567	312,843484	0
15.01.2021	21:35:56	0	0	3,050494	1,662	324,3456	0,02	86,41	0	1017,44	6,7	8,7	8,6	1	1	1	1	1	1	1	1	1	0	1	-6,765328	273,973531	312,695408	0
15.01.2021	21:35:57	0	0	4,745212	1,65075	295,3044	0,019	86,396	0	1017,48	6,7	8,7	8,6	1	1	1	1	1	1	1	1	1	0	1	-7,399577	273,921711	311,819533	0
15.01.2021	21:35:58	0	0	4,293261	1,6725	308,8224	0,018	86,405	0	1017,4	6,7	8,7	8,7	1	1	1	1	1	1	1	1	1	0	1	-6,412967	274,00469	313,193123	0
15.01.2021	21:35:59	0	0	3,276436	1,59975	301,518	0,02	86,405	0	1017,38	6,7	8,7	8,7	1	1	1	1	1	1	1	1	1	0	1	-8,174771	273,930585	311,085705	0
15.01.2021	21:36:00	0	0	4,971145	1,55625	305,3196	0,027	86,403	0	1017,32	6,7	8,7	8,7	1	1	1	1	1	1	1	1	1	0	1	-5,919662	273,992814	313,631022	0
15.01.2021	21:36:01	0	0	4,51925	1,44375	304,686	0,016	86,407	0	1017,44	6,7	8,7	8,6	1	1	1	1	1	1	1	1	1	0	1	-8,668076	273,927626	310,578608	0
15.01.2021	21:36:02	0	0	2,598553	1,37325	305,7696	0,021	86,412	0	1017,32	6,7	8,7	8,7	1	1	1	1	1	1	1	1	1	0	1	-4,22833	273,933543	315,045939	0
15.01.2021	21:36:03	0	0	4,971145	1,37625	319,122	0,018	86,405	0	1017,24	6,7	8,7	8,7	1	1	1	1	1	1	1	1	1	0	1	-9,584214	274,07014	310,327354	0
15.01.2021	21:36:04	0	0	4,180306	1,3515	308,0232	0,023	86,405	0	1017,46	6,7	8,7	8,6	1	1	1	1	1	1	1	1	1	0	1	-8,245243	273,937982	311,049721	0
15.01.2021	21:36:05	0	0	2,937512	1,39425	308,448	0,022	86,417	0	1017,32	6,7	8,7	8,6	1	1	1	1	1	1	1	1	1	0	1	-10,42988	274,055245	309,412151	0
15.01.2021	21:36:06	0	0	3,276456	1,43175	295,0956	0,024	86,421	0	1017,44	6,7	8,7	8,6	1	1	1	1	1	1	1	1	1	0	1	-8,45666	274,040363	311,315899	0
15.01.2021	21:36:07	0	0	2,372606	1,5165	303,8832	0,025	86,418	0	1017,18	6,7	8,7	8,6	1	1	1	1	1	1	1	1	1	0	1	-8,315715	273,940942	310,993049	0
15.01.2021	21:36:08	0	0	2,485572	1,4865	313,5924	0,019	86,403	0	1017,28	6,7	8,7	8,7	1	1	1	1	1	1	1	1	1	0	1	-6,694856	273,99133	312,848905	0
15.01.2021	21:36:09	0	0	2,71155	1,512	308,052	0,024	86,42	0	1017,3	6,7	8,7	8,6	1	1	1	1	1	1	1	1	1	0	1	-8,668076	273,909886	310,495915	0
15.01.2021	21:36:10	0	0	2,71155	1,62375	308,484	0,022	86,422	0	1017,42	6,7	8,7	8,6	1	1	1	1	1	1	1	1	1	0	1	-8,245243	274,034413	311,499545	0
15.01.2021	21:36:11	0	0	4,51925	1,7535	310,7376	0,017	86,403	0	1017,44	6,7	8,7	8,6	1	1	1	1	1	1	1	1	1	0	1	-4,580691	274,095487	315,449241	0
15.01.2021	21:36:12	0	0	2,598553	1,926	296,5176	0,025	86,42	0	1017,48	6,7	8,7	8,7	1	1	1	1	1	1	1	1	1	0	1	-9,725159	273,967602	309,707923	0
15.01.2021	21:36:13	0	0	3,050475	2,0145	302,7672	0,022	86,42	0	1017,56	6,7	8,7	8,7	1	1	1	1	1	1	1	1	1	0	1	-11,41649	274,102948	308,648289	0
15.01.2021	21:36:14	0	0	4,067325	2,11425	311,4216	0,019	86,432	0	1017,22	6,7	8,7	8,6	1	1	1	1	1	1	1	1	1	0	1	-9,725159	274,000236	309,860149	0
15.01.2021	21:36:15	0	0	3,6154	2,10975	300,4524	0,017	86,417	0	1017,48	6,7	8,7	8,6	1	1	1	1	1	1	1	1	1	0	1	-6,483439	273,929105	312,770141	0
15.01.2021	21:36:16	0	0	3,050494	2,118	302,778	0,022	86,409	0	1017,36	6,7	8,7	8,6	1	1	1	1	1	1	1	1	1	0	1	-5,990134	273,977979	313,49135	0
15.01.2021	21:36:17	0	0	3,050494	2,09175	328,8312	0,022	86,426	0	1017,56	6,7	8,7	8,6	1	1	1	1	1	1	1	1	1	0	1	-6,272023	273,917276	312,926413	0
15.01.2021	21:36:18	0	0	3,276436	1,9845	311,3964	0,017	86,424	0	1017,38	6,7	8,7	8,7	1	1	1	1	1	1	1	1	1	0	1	-6,976744	274,049291	312,83749	0
15.01.2021	21:36:19	0	0	3,615378	1,87275	306,7812	0,022	86,434	0	1017,36	6,7	8,7	8,7	1	1	1	1	1	1	1	1	1	0	1	-6,765328	274,091012	313,243702	0
15.01.2021	21:36:20	0	0	4,745184	1,84125	297,2592	0,023	86,419	0	1017,42	6,7	8,7	8,7	1	1	1	1	1	1	1	1	1	0	1	-9,161381	273,977979	310,320102	0
15.01.2021	21:36:21	0	0	4,0673	1,79925	316,638	0,015	86,419	0	1017,38	6,7	8,7	8,7	1	1	1	1	1	1	1	1	1	0	1	-5,919662	274,083555	314,054546	0
15.01.2021	21:36:22	0	0	3,050494	1,77075	316,296	0,024	86,431	0	1017,4	6,7	8,7	8,6	1	1	1	1	1	1	1	1	1	0	1	-3,453136	273,977979	316,028347	0
15.01.2021	21:36:23	0	0	2,711534	1,734	310,6152	0,023	86,432	0	1017,48	6,7	8,7	8,7	1	1	1	1	1	1	1	1	1	0	1	-10,782241	273,939462	308,519623	0
15.01.2021	21:36:24	0	0	2,598569	1,70025	310,698	0,022	86,431	0	1017,32	6,7	8,7	8,6	1	1	1	1	1	1	1	1	1	0	1	-8,738548	273,989846	310,79829	0
15.01.2021	21:36:25	0	0	3,502398	1,599	303,228	0,022	86,435	0	1017,32	6,7	8,7	8,7	1	1	1	1	1	1	1	1	1	0	1	-9,020437	274,083555	310,953771	0
15.01.2021	21:36:26	0	0	4,406268	1,59075	303,1164	0,015	86,418	0	1017,38	6,7	8,7	8,6	1	1	1	1	1	1	1	1	1	0	1	-9,654686	274,0359	310,097044	0
15.01.2021	21:36:27	0	0	2,824531	1,64625	298,656	0,021	86,422	0	1017,36	6,7	8,7	8,6	1	1	1	1	1	1	1	1	1	0	1	-9,020437	273,911364	310,150442	0
15.01.2021	21:36:28	0	0	3,95432	1,674	305,748	0,025	86,424	0	1017,24	6,7	8,7	8,7	1	1	1	1	1	1	1	1	1	0	1	-7,399577	273,96612	312,026593	0
15.01.2021	21:36:29	0	0	4,632231	1,647	306,7488	0,022	86,428	0	1017,42	6,7	8,7	8,6	1	1	1	1	1	1	1	1	1	0	1	-10,007047	274,095487	310,022884	0
15.01.2021	21:36:30	0	0	4,971175	1,608	312,8364	0,02	86,414	0	1017,4	6,7	8,7	8,6	1	1	1	1	1	1	1	1	1	0	1	-8,245243	274,003205	311,353919	0
15.01.2021	21:36:31	0	0	4,745184	1,64475	304,2468	0,024	86,424	0	1017,34	6,7	8,7	8,7	1	1	1	1	1	1	1	1	1	0	1	-7,751938	273,912842	311,425829	0
15.01.2021	21:36:32	0	0	3,502398	1,6965	305,406	0,021	86,41	0	1017,48	6,7	8,7	8,7	1	1	1	1	1	1	1	1	1	0	1	-8,386187	274,040363	311,386372	0
15.01.2021	21:36:33	0	0	3,050494	1,78425	307,1808	0,024	86,43	0	1017,4	6,7	8,7	8,6	1	1	1	1	1	1	1	1	1	0	1	-5,355884	274,055245	314,486147	0
15.01.2021	21:36:34	0	0	4,293261	1,85775	304,2396	0,024	86,426	0	1017,5	6,7	8,7	8,7	1	1	1	1	1	1	1	1	1	0	1	-4,933051	273,906931	314,217167	0
15.01.2021	21:36:35	0	0	2,485587	1,8915	312,4836	0,016	86,426	0	1017,46	6,7	8,7	8,6	1	1	1	1	1	1	1	1	1	0	1	-5,84919	273,976497	313,625377	0
15.01.2021	21:36:36	0	0	2,598553	1,9575	310,896	0,021	86,421	0	1017,3	6,7	8,7	8,7	1	1	1	1	1	1	1	1	1	0	1	-6,976744	274,000236	312,608564	0
15.01.2021	21:36:37	0	0	4,180306	1,94325	308,8368	0,025	86,435	0	1017,4	6,7	8,7	8,6	1	1	1	1	1	1	1	1	1	0	1	-8,738548	274,107427	311,347149	0
15.01.2021	21:36:38	0	0	3,615378	1,8675	316,2636	0,019	86,424	0	1017,44	6,7	8,7	8,7	1	1	1	1	1	1	1	1	1	0	1	-5,003524	274,07312	314,92196	0
15.01.2021	21:36:39	0	0	3,841362	1,7655	319,2156	0,022	86,43	0	1017,54	6,7	8,7	8,6	1	1	1	1	1	1	1	1	1	0	1	-7,82241	274,07163	312,096116	0
15.01.2021	21:36:40	0	0	3,276436	1,7025	320,7312	0,018	86,426	0	1017,5	6,7	8,7	8,7	1	1	1	1	1	1	1	1	1	0	1	-10,359408	273,949825	308,990773	0
15.01.2021	21:36:41	0	0	2,259625	1,767	305,7804	0,022	86,423	0	1017,34	6,7	8,7	8,6	1	1	1	1	1	1	1	1	1	0	1	-2,889359	274,049291	316,924876	0
15.01.2021	21:36:42	0	0	3,841362	1,9095	304,9596	0,016	86,409	0	1017,46	6,7	8,7	8,6	1	1	1	1	1	1	1	1	1	0	1	-7,399577	274,00469	312,206513	0
15.01.2021	21:36:43	0	0	3,502419	1,85925	313,1676	0,015	86,414	0	1017,52	6,7	8,7	8,6	1	1	1	1	1	1	1	1	1	0	1	-9,725159	274,074611	310,207284	0
15.01.2021	21:36:44	0	0	2,598569	1,7085	316,62	0,015	86,413	0	1017,4	6,7	8,7	8,6	1	1	1	1	1	1	1	1	1	0	1	-5,637773	273,951305	313,719312	0
15.01.2021	21:36:45	0	0	5,197106	1,7265	315,2628	0,019	86,415	0	1017,48	6,7	8,7	8,7	1	1	1	1	1	1	1	1	1	0	1	-7,047216	273,896591	312,054816	0
15.01.2021	21:36:46	0	0	3,728381	1,788	313,668	0,02	86,415	0	1017,48	6,7	8,7	8,6	1	1	1	1	1	1	1	1	1	0	1	-8,45666	274,04185	311,322844	0
15.01.2021	21:36:47	0	0	2,259625	1,88625	302,4288	0,018	86,423	0	1017,28	6,7	8,7	8,6	1	1	1	1	1	1	1	1	1	0	1	-3,453136	273,920233	315,759082	0
15.01.2021	21:36:48	0	0	4,858193	1,908	315,9144	0,023	86,419	0	1017,46	6,7	8,7	8,6	1	1	1	1	1	1	1	1	1	0	1	-5,21494	274,077591	314,731421	0
15.01.2021	21:36:49	0	0	2,71155	1,98675	305,3916	0,025	86,411	0	1017,5	6,7	8,7	8,6	1	1	1	1	1	1	1	1	1	0	1	-4,862579	273,954267	314,508318	0
15.01.2021	21:36:50	0	0	4,632231	2,12625	306,8568	0,017	86,414	0	1017,4	6,7	8,7	8,6	1	1	1	1	1	1	1	1	1	0	1	-5,84919	274,08952	314,152875	0
15.01.2021	21:36:51	0	0	3,276456	2,13375	307,2024	0,017	86,394	0	1017,34	6,7	8,7	8,6	1	1	1	1	1	1	1	1	1	0	1	-7,681466	274,024005	312,014749	0
15.01.2021	21:36:52	0	0	2,485587	2,151	306,468	0,025	86,398	0	1017,3	6,7	8,7	8,6	1	1	1	1	1	1	1	1	1	0	1	-8,033827	273,918754	311,1715	0
15.01.2021	21:36:53	0	0	4,519223	2,1105	302,04	0,022	86,413	0	1017,4	6,7	8,7	8,7	1	1	1	1	1	1	1	1	1	0	1	-9,231853	273,921711	309,987256	0
15.01.2021	21:36:54	0	0	4,971175	2,0505	300,5316	0,021	86,408	0	1017,6	6,7	8,7	8,6	1	1	1	1	1	1	1	1	1	0	1	-5,285412	274,038875	314,480203	0
15.01.2021	21:36:55	0	0	2,485587	2,082	309,5928	0,026	86,42	0	1017,6	6,7	8,7	8,6	1	1	1	1	1	1	1	1	1	0	1	-10,852713	274,108919	309,239957	0
15.01.2021	21:36:56	0	0	4,406268	1,9815	311,0508	0,023	86,391	0	1017,26	6,7	8,7	8,6	1	1	1	1	1	1	1	1	1	0	1	-6,694856	274,038875	313,07076	0
15.01.2021	21:36:57	0	0	2,824531	1,971	312,426	0,024	86,422	0	1017,38	6,7	8,7	8,6	1	1	1	1	1	1	1	1	1	0	1	-9,302326	274,08952	310,699739	0
15.01.2021	21:36:58	0	0	4,971145	1,94775	310,7124	0,019	86,401	0	1017,48	6,7	8,7	8,7	1	1	1	1	1	1	1	1	1	0	1	-8,527132	273,977979	310,954352	0
15.01.2021	21:36:59	0	0	3,389437	2,00625	306,1584	0,02	86,413	0	1017,44	6,7	8,7	8,6	1	1	1	1	1	1	1	1	1	0	1	-9,372798	274,095487	310,657134	0
15.01.2021	21:37:00	0	0	5,310118	1,98225	307,5984	0,021	86,414	0	1017,46	6,7	8,7	8,6	1	1	1	1	1	1	1	1	1	0	1	-5,144468	273,970566	314,30244	0
15.01.2021	21:37:01	0	0	2,71155	1,89975	306,144	0,02	86,403	0	1017,36	6,7	8,7	8,6	1	1	1	1	1	1	1	1	1	0	1	-8,45666	273,926147	310,78313	0
15.01.2021	21:37:02	0	0	3,276456	1,91625	309,8952	0,018	86,412	0	1017,36	6,7	8,7	8,6	1	1	1	1	1	1	1	1	1	0	1	-8,174771	273,940942	311,133994	0
15.01.2021	21:37:03	0	0	4,51925	1,86975	310,2192	0,018	86,404	0	1017,42	6,7	8,7	8,6	1	1	1	1	1	1	1	1	1	0	1	-12,896406	273,95723	306,488305	0
15.01.2021	21:37:04	0	0	4,293287	1,81125	309,5352	0,016	86,392	0	1017,3	6,7	8,7	8,6	1	1	1	1	1	1	1	1	1	0	1	-9,936575	274,099963	310,114263	0
15.01.2021	21:37:05	0	0	2,598569	1,8045	313,2252	0,022	86,411	0	1017,48	6,7	8,7	8,6	1	1	1	1	1	1	1	1	1	0	1	-4,651163	273,939462	314,650702	0
15.01.2021	21:37:06	0	0	4,745241	1,77525	312,1524	0,021	86,417	0	1017,5	6,7	8,7	8,5	1	1	1	1	1	1	1	1	1	0	1	-7,82241	274,098471	312,221459	0
15.01.2021	21:37:07	0	0	3,728381	1,7685	313,2684	0,021	86,418	0	1017,36	6,7	8,7	8,6	1	1	1	1	1	1	1	1	1	0	1	-5,144468	274,026978	314,565622	0
15.01.2021	21:37:08	0	0	2,71155	1,7385	309,9384	0,022	86,404	0	1017,4	6,7	8,7	8,6	1	1	1	1	1	1	1	1	1	0	1	-8,104299	274,095487	311,925633	0
15.01.2021	21:37:09	0	0	3,050494	1,75275	302,094	0,019	86,415	0	1017,4	6,7	8,7	8,6	1	1	1	1	1	1	1	1	1	0	1	-10,288936	274,101456	309,768873	0
15.01.2021	21:37:10	0	0	3,050475	1,8	309,8808	0,02	86,401	0	1017,4	6,7	8,7	8,7	1	1	1	1	1	1	1	1	1	0	1	-9,513742	274,037387	310,24493	0
15.01.2021	21:37:11	0	0	3,502398	1,8615	315,2448	0,019	86,412	0	1017,4	6,7	8,7	8,7	1	1	1	1	1	1	1	1	1	0	1	-4,580691	273,91432	314,603965	0
15.01.2021	21:37:12	0	0	2,485587	1,9395	305,3988	0,023	86,407	0	1017,4	6,7	8,7	8,6	1	1	1	1	1	1	1	1	1	0	1	-6,272023	273,961674	313,133415	0
15.01.2021	21:37:13	0	0	3,050475	1,9575	315,5148	0,018	86,417	0	1017,42	6,6	8,7	8,7	1	1	1	1	1	1	1	1	1	0	1	-4,933051	274,032925	314,804796	0
15.01.2021	21:37:14	0	0	3,389437	1,91175	309,1932	0,021	86,41	0	1017,44	6,7	8,7	8,6	1	1	1	1	1	1	1	1	1	0	1	-4,651163	273,926147	314,588627	0
15.01.2021	21:37:15	0	0	3,728381	1,956	311,31	0,019	86,418	0	1017,38	6,7	8,7	8,6	1	1	1	1	1	1	1	1	1	0	1	-5,285412	274,06567	314,605288	0
15.01.2021	21:37:16	0	0	3,276436	1,9935	307,1988	0,014	86,41	0	1017,38	6,7	8,7	8,7	1	1	1	1	1	1	1	1	1	0	1	-10,077519	273,945383	309,25195	0
15.01.2021	21:37:17	0	0	5,197106	1,9455	315,8964	0,02	86,412	0	1017,36	6,7	8,7	8,7	1	1	1	1	1	1	1	1	1	0	1	-4,510218	273,924668	314,722677	0
15.01.2021	21:37:18	0	0	2,485587	1,8225	301,2408	0,019	86,418	0	1017,32	6,7	8,7	8,6	1	1	1	1	1	1	1	1	1	0	1	-1,057082	274,079082	318,89624	0
15.01.2021	21:37:19	0	0	4,745212	1,761	302,8176	0,02	86,398	0	1017,38	6,7	8,7	8,6	1	1	1	1	1	1	1	1	1	0	1	-11,768851	273,995783	307,79568	0
15.01.2021	21:37:20	0	0	4,632231	1,69875	306,1044	0,015	86,419	0	1017,48	6,7	8,7	8,6	1	1	1	1	1	1	1	1	1	0	1	-9,513742	274,091012	310,495288	0
15.01.2021	21:37:21	0	0	3,6154	1,71525	314,514	0,021	86,404	0	1017,52	6,7	8,7	8,6	1	1	1	1	1	1	1	1	1	0	1	-7,751938	273,945383	311,577532	0
15.01.2021	21:37:22	0	0	2,259625	1,6605	307,2096	0,021	86,408	0	1017,32	6,7	8,7	8,6	1	1	1	1	1	1	1	1	1	0	1	-5,919662	274,095487	314,11027	0
15.01.2021	21:37:23	0	0	4,971175	1,632	311,5008	0,018	86,415	0	1017,44	6,7	8,7	8,6	1	1	1	1	1	1	1	1	1	0	1	-5,637773	274,079082	314,315549	0
15.01.2021	21:37:24	0	0	4,745212	1,6005	317,376	0,015	86,407	0	1017,38	6,7	8,7	8,6	1	1	1	1	1	1	1	1	1	0	1	-9,372798	273,921711	309,846312	0
15.01.2021	21:37:25	0	0	3,389437	1,602	315,2376	0,013	86,406	0	1017,44	6,6	8,7	8,6	1	1	1	1	1	1	1	1	1	0	1	-9,090909	273,961674	310,314529	0
15.01.2021	21:37:26	0	0	4,745212	1,6185	316,3176	0,02	86,393	0	1017,28	6,7	8,7	8,6	1	1	1	1	1	1	1	1	1	0	1	-4,369274	274,086537	315,618861	0
15.01.2021	21:37:27	0	0	4,293287	1,64025	314,0676	0,018	86,419	0	1017,38	6,7	8,7	8,6	1	1	1	1	1	1	1	1	1	0	1	-9,513742	273,99133	310,030019	0
15.01.2021	21:37:28	0	0	5,084156	1,65825	313,2432	0,016	86,417	0	1017,36	6,7	8,7	8,6	1	1	1	1	1	1	1	1	1	0	1	-5,496829	273,918754	313,708498	0
15.01.2021	21:37:29	0	0	4,971175	1,6125	315,4536	0,017	86,396	0	1017,52	6,7	8,7	8,6	1	1	1	1	1	1	1	1	1	0	1	-5,990134	273,994298	313,567473	0
15.01.2021	21:37:30	0	0	5,197137	1,6065	314,064	0,013	86,407	0	1017,26	6,7	8,7	8,6	1	1	1	1	1	1	1	1	1	0	1	-7,82241	274,07014	312,089158	0
15.01.2021	21:37:31	0	0	3,389437	1,59075	312,1488	0,017	86,406	0	1017,34	6,7	8,7	8,6	1	1	1	1	1	1	1	1	1	0	1	-7,82241	273,955749	311,555394	0
15.01.2021	21:37:32	0	0	3,728381	1,60425	312,5088	0,017	86,418	0	1017,44	6,7	8,7	8,6	1	1	1	1	1	1	1	1	1	0	1	-9,44327	274,093995	310,579694	0
15.01.2021	21:37:33	0	0	4,51925	1,61025	315,4788	0,015	86,42	0	1017,36	6,7	8,7	8,6	1	1	1	1	1	1	1	1	1	0	1	-6,694856	274,04185	313,084648	0
15.01.2021	21:37:34	0	0	2,711534	1,638	306,5688	0,013	86,412	0	1017,44	6,7	8,7	8,7	1	1	1	1	1	1	1	1	1	0	1	-8,45666	273,908408	310,700445	0
15.01.2021	21:37:35	0	0	4,51925	1,73475	303,5124	0,015	86,404	0	1017,4	6,7	8,7	8,6	1	1	1	1	1	1	1	1	1	0	1	-9,372798	274,00469	310,233293	0
15.01.2021	21:37:36	0	0	2,372606	1,81425	303,192	0,018	86,419	0	1017,5	6,7	8,7	8,6	1	1	1	1	1	1	1	1	1	0	1	-7,610994	273,905453	311,532339	0
15.01.2021	21:37:37	0	0	4,858193	1,803	303,5592	0,021	86,413	0	1017,4	6,7	8,7	8,6	1	1	1	1	1	1	1	1	1	0	1	-9,584214	274,016574	310,077324	0
15.01.2021	21:37:38	0	0	3,6154	1,806	310,6512	0,02	86,43	0	1017,48	6,7	8,7	8,6	1	1	1	1	1	1	1	1	1	0	1	-8,315715	273,912842	310,862052	0
15.01.2021	21:37:39	0	0	2,824531	1,833	288,4248	0,02	86,423	0	1017,46	6,7	8,7	8,6	1	1	1	1	1	1	1	1	1	0	1	-12,896406	273,955749	306,481398	0
15.01.2021	21:37:40	0	0	4,51925	1,866	293,6772	0,015	86,424	0	1017,46	6,7	8,7	8,6	1	1	1	1	1	1	1	1	1	0	1	-10,147992	274,056734	309,70099	0
15.01.2021	21:37:41	0	0	4,971145	1,94625	304,6824	0,013	86,418	0	1017,44	6,7	8,7	8,7	1	1	1	1	1	1	1	1	1	0	1	-9,090909	274,052268	310,737222	0
15.01.2021	21:37:42	0	0	2,711534	1,9875	280,1412	0,015	86,415	0	1017,44	6,7	8,7	8,7	1	1	1	1	1	1	1	1	1	0	1	-4,792107	273,918754	314,413219	0
15.01.2021	21:37:43	0	0	2,824514	1,83225	317,682	0,023	86,425	0	1017,42	6,7	8,7	8,7	1	1	1	1	1	1	1	1	1	0	1	-10,923185	274,00469	308,682905	0
15.01.2021	21:37:44	0	0	4,180281	1,698	308,5164	0,014	86,407	0	1017,48	6,6	8,7	8,7	1	1	1	1	1	1	1	1	1	0	1	-5,426357	273,918754	313,77897	0
15.01.2021	21:37:45	0	0	4,180306	1,5465	326,7972	0,021	86,421	0	1017,34	6,7	8,7	8,6	1	1	1	1	1	1	1	1	1	0	1	-6,8358	273,975014	312,631851	0
15.01.2021	21:37:46	0	0	3,389437	1,515	318,8484	0,02	86,419	0	1017,46	6,7	8,7	8,6	1	1	1	1	1	1	1	1	1	0	1	-7,610994	274,083555	312,363214	0
15.01.2021	21:37:47	0	0	5,084156	1,58775	318,78	0,015	86,426	0	1017,32	6,7	8,7	8,6	1	1	1	1	1	1	1	1	1	0	1	-7,82241	273,970566	311,624497	0
15.01.2021	21:37:48	0	0	4,632203	1,6995	316,6524	0,02	86,42	0	1017,5	6,7	8,7	8,7	1	1	1	1	1	1	1	1	1	0	1	-6,131078	273,909886	313,032913	0
15.01.2021	21:37:49	0	0	4,745212	1,9635	321,2244	0,018	86,419	0	1017,46	6,7	8,7	8,6	1	1	1	1	1	1	1	1	1	0	1	-6,483439	273,926147	312,756351	0
15.01.2021	21:37:50	0	0	4,858193	2,28	304,9812	0,017	86,414	0	1017,32	6,7	8,7	8,6	1	1	1	1	1	1	1	1	1	0	1	-7,047216	274,044826	312,746177	0
15.01.2021	21:37:51	0	0	4,519223	2,30175	310,6296	0,015	86,416	0	1017,24	6,7	8,7	8,7	1	1	1	1	1	1	1	1	1	0	1	-5,073996	274,061202	314,795843	0
15.01.2021	21:37:52	0	0	2,485587	2,1765	299,8008	0,017	86,417	0	1017,52	6,7	8,7	8,6	1	1	1	1	1	1	1	1	1	0	1	-6,412967	273,933543	312,861302	0
15.01.2021	21:37:53	0	0	4,293287	1,986	299,8296	0,022	86,413	0	1017,2	6,7	8,7	8,6	1	1	1	1	1	1	1	1	1	0	1	-12,262156	273,927626	306,984528	0
15.01.2021	21:37:54	0	0	4,51925	1,83525	304,668	0,015	86,418	0	1017,32	6,7	8,7	8,6	1	1	1	1	1	1	1	1	1	0	1	-8,386187	274,0359	311,365543	0
15.01.2021	21:37:55	0	0	2,598569	1,716	305,3844	0,018	86,422	0	1017,54	6,7	8,7	8,6	1	1	1	1	1	1	1	1	1	0	1	-6,976744	273,902499	312,152819	0
15.01.2021	21:37:56	0	0	4,293287	1,68225	301,6044	0,014	86,411	0	1017,4	6,7	8,7	8,6	1	1	1	1	1	1	1	1	1	0	1	-5,637773	273,970566	313,809134	0
15.01.2021	21:37:57	0	0	2,372606	1,701	300,132	0,016	86,423	0	1017,46	6,7	8,7	8,6	1	1	1	1	1	1	1	1	1	0	1	-7,82241	274,083555	312,151798	0
15.01.2021	21:37:58	0	0	3,841339	1,6605	317,0124	0,016	86,412	0	1017,36	6,6	8,7	8,7	1	1	1	1	1	1	1	1	1	0	1	-11,06413	274,015088	308,590476	0
15.01.2021	21:37:59	0	0	3,389437	1,6125	296,496	0,017	86,423	0	1017,36	6,7	8,7	8,6	1	1	1	1	1	1	1	1	1	0	1	-5,637773	274,088029	314,357326	0
15.01.2021	21:38:00	0	0	2,71155	1,68075	309,312	0,018	86,425	0	1017,46	6,7	8,7	8,6	1	1	1	1	1	1	1	1	1	0	1	-6,20155	273,988363	313,328366	0
15.01.2021	21:38:01	0	0	3,728381	1,76925	305,3664	0,015	86,412	0	1017,46	6,7	8,7	8,6	1	1	1	1	1	1	1	1	1	0	1	-6,976744	273,912842	312,201023	0
15.01.2021	21:38:02	0	0	3,954344	1,7775	299,4084	0,013	86,412	0	1017,26	6,8	8,7	8,6	1	1	1	1	1	1	1	1	1	0	1	-2,959831	274,00469	316,64626	0
15.01.2021	21:38:03	0	0	3,6154	1,809	308,1168	0,018	86,427	0	1017,48	6,8	8,7	8,6	1	1	1	1	1	1	1	1	1	0	1	-8,174771	273,908408	310,982333	0
15.01.2021	21:38:04	0	0	4,632231	1,84725	309,546	0,017	86,413	0	1017,4	6,7	8,7	8,6	1	1	1	1	1	1	1	1	1	0	1	-2,748414	274,083555	317,225793	0
15.01.2021	21:38:05	0	0	4,971175	2,03775	306,4104	0,013	86,4	0	1017,28	6,7	8,7	8,6	1	1	1	1	1	1	1	1	1	0	1	-7,117689	274,055245	312,724343	0
15.01.2021	21:38:06	0	0	4,745212	2,20875	308,556	0,013	86,412	0	1017,46	6,8	8,7	8,6	1	1	1	1	1	1	1	1	1	0	1	-9,161381	274,037387	310,597291	0
15.01.2021	21:38:07	0	0	5,084156	2,38575	300,2832	0,011	86,407	0	1017,28	6,6	8,7	8,6	1	1	1	1	1	1	1	1	1	0	1	-8,597604	274,092503	311,418393	0
15.01.2021	21:38:08	0	0	4,745184	2,61675	298,5984	0,016	86,427	0	1017,32	6,6	8,7	8,7	1	1	1	1	1	1	1	1	1	0	1	-10,923185	274,061202	308,946653	0
15.01.2021	21:38:09	0	0	2,824531	2,68275	304,1784	0,012	86,411	0	1017,46	6,7	8,7	8,6	1	1	1	1	1	1	1	1	1	0	1	-10,218464	273,937982	309,076501	0
15.01.2021	21:38:10	0	0	2,824531	2,523	311,76	0,017	86,422	0	1017,36	6,6	8,7	8,6	1	1	1	1	1	1	1	1	1	0	1	-11,06413	273,902499	308,065433	0
15.01.2021	21:38:11	0	0	4,406268	2,4525	303,5016	0,011	86,418	0	1017,5	6,7	8,7	8,6	1	1	1	1	1	1	1	1	1	0	1	-11,275546	274,015088	308,379059	0
15.01.2021	21:38:12	0	0	2,372606	2,631	297,9108	0,009	86,413	0	1017,42	6,6	8,7	8,6	1	1	1	1	1	1	1	1	1	0	1	-9,090909	273,921711	310,128201	0
15.01.2021	21:38:13	0	0	2,937495	2,75775	284,4684	0,012	86,421	0	1017,3	6,7	8,7	8,7	1	1	1	1	1	1	1	1	1	0	1	-10,570825	273,975014	308,896827	0
15.01.2021	21:38:14	0	0	3,050494	2,70525	283,5252	0,015	86,42	0	1017,44	6,7	8,7	8,6	1	1	1	1	1	1	1	1	1	0	1	-5,003524	273,901022	314,119156	0
15.01.2021	21:38:15	0	0	2,598569	2,55825	292,176	0,014	86,425	0	1017,48	6,6	8,7	8,6	1	1	1	1	1	1	1	1	1	0	1	-7,751938	274,009146	311,874941	0
15.01.2021	21:38:16	0	0	4,293287	2,3835	293,0004	0,009	86,415	0	1017,26	6,7	8,7	8,6	1	1	1	1	1	1	1	1	1	0	1	-7,329105	274,056734	312,519877	0
15.01.2021	21:38:17	0	0	3,502419	2,15625	286,3044	0,01	86,422	0	1017,48	6,7	8,7	8,6	1	1	1	1	1	1	1	1	1	0	1	-8,386187	274,024005	311,310027	0
15.01.2021	21:38:18	0	0	2,71155	2,06925	290,052	0,015	86,429	0	1017,44	6,7	8,7	8,6	1	1	1	1	1	1	1	1	1	0	1	-5,496829	274,056734	314,352153	0
15.01.2021	21:38:19	0	0	2,372606	1,92975	316,7244	0,013	86,418	0	1017,44	6,7	8,7	8,6	1	1	1	1	1	1	1	1	1	0	1	-9,725159	273,948344	309,618118	0
15.01.2021	21:38:20	0	0	3,841362	1,80375	298,3536	0,007	86,406	0	1017,36	6,7	8,7	8,6	1	1	1	1	1	1	1	1	1	0	1	-9,090909	274,080573	310,869374	0
15.01.2021	21:38:21	0	0	3,841339	1,8765	296,4024	0,009	86,416	0	1017,3	6,6	8,7	8,7	1	1	1	1	1	1	1	1	1	0	1	-5,426357	274,013602	314,221316	0
15.01.2021	21:38:22	0	0	4,067325	2,01975	303,4872	0,013	86,431	0	1017,46	6,7	8,7	8,6	1	1	1	1	1	1	1	1	1	0	1	-10,359408	273,937982	308,935557	0
15.01.2021	21:38:23	0	0	2,485572	1,96725	311,436	0,014	86,435	0	1017,44	6,7	8,7	8,7	1	1	1	1	1	1	1	1	1	0	1	-10,147992	274,01806	309,520481	0
15.01.2021	21:38:24	0	0	4,51925	1,89525	303,2388	0,009	86,404	0	1017,36	6,6	8,7	8,6	1	1	1	1	1	1	1	1	1	0	1	-4,580691	273,915798	314,610855	0
15.01.2021	21:38:25	0	0	4,406242	1,986	322,56	0,013	86,426	0	1017,42	6,7	8,7	8,7	1	1	1	1	1	1	1	1	1	0	1	-11,41649	273,972049	308,037331	0
15.01.2021	21:38:26	0	0	2,824531	2,1525	318,8016	0,014	86,42	0	1017,18	6,6	8,7	8,6	1	1	1	1	1	1	1	1	1	0	1	-4,157858	273,899545	314,957939	0
15.01.2021	21:38:27	0	0	4,406268	2,1225	312,4296	0,013	86,427	0	1017,4	6,7	8,7	8,6	1	1	1	1	1	1	1	1	1	0	1	-9,44327	273,963156	309,969078	0
15.01.2021	21:38:28	0	0	3,841362	2,1165	288,1548	0,012	86,431	0	1017,34	6,6	8,7	8,6	1	1	1	1	1	1	1	1	1	0	1	-10,007047	274,07312	309,918437	0
15.01.2021	21:38:29	0	0	4,406268	2,08875	308,8404	0,008	86,418	0	1017,46	6,6	8,7	8,6	1	1	1	1	1	1	1	1	1	0	1	-9,725159	274,029951	309,998809	0
15.01.2021	21:38:30	0	0	3,050494	1,97325	312,1236	0,012	86,421	0	1017,52	6,6	8,7	8,6	1	1	1	1	1	1	1	1	1	0	1	-3,312192	273,929105	315,941388	0
15.01.2021	21:38:31	0	0	2,824531	1,938	292,6548	0,016	86,435	0	1017,6	6,7	8,7	8,6	1	1	1	1	1	1	1	1	1	0	1	-11,134602	274,06567	308,756099	0
15.01.2021	21:38:32	0	0	4,858164	1,83825	302,8284	0,015	86,421	0	1017,24	6,7	8,7	8,7	1	1	1	1	1	1	1	1	1	0	1	-5,21494	273,95723	314,169771	0
15.01.2021	21:38:33	0	0	3,050475	1,902	285,8868	0,01	86,428	0	1017,46	6,7	8,7	8,7	1	1	1	1	1	1	1	1	1	0	1	-3,735025	274,076101	316,204377	0
15.01.2021	21:38:34	0	0	4,180306	1,929	291,2184	0,013	86,418	0	1017,42	6,7	8,7	8,6	1	1	1	1	1	1	1	1	1	0	1	-8,315715	273,921711	310,903394	0
15.01.2021	21:38:35	0	0	2,598569	1,90575	296,0964	0,012	86,408	0	1017,4	6,7	8,7	8,6	1	1	1	1	1	1	1	1	1	0	1	-8,668076	273,92319	310,557926	0
15.01.2021	21:38:36	0	0	4,745212	1,77375	327,3948	0,006	86,43	0	1017,4	6,7	8,7	8,6	1	1	1	1	1	1	1	1	1	0	1	-8,104299	274,016574	311,55724	0
15.01.2021	21:38:37	0	0	2,937512	1,677	306,2304	0,019	86,433	0	1017,46	6,7	8,7	8,6	1	1	1	1	1	1	1	1	1	0	1	-9,372798	274,076101	310,566604	0
15.01.2021	21:38:38	0	0	2,598569	1,56975	300,4776	0,012	86,423	0	1017,46	6,6	8,7	8,6	1	1	1	1	1	1	1	1	1	0	1	-6,20155	273,976497	313,273017	0
15.01.2021	21:38:39	0	0	2,372606	1,51425	314,4528	0,014	86,409	0	1017,54	6,8	8,7	8,6	1	1	1	1	1	1	1	1	1	0	1	-8,104299	273,895115	310,990852	0
15.01.2021	21:38:40	0	0	4,858193	1,5615	306,8748	0,013	86,416	0	1017,42	6,7	8,7	8,6	1	1	1	1	1	1	1	1	1	0	1	-7,610994	274,053757	312,224087	0
15.01.2021	21:38:41	0	0	3,502398	1,64625	319,5972	0,014	86,433	0	1017,34	6,7	8,7	8,7	1	1	1	1	1	1	1	1	1	0	1	-4,651163	273,933543	314,623106	0
15.01.2021	21:38:42	0	0	5,4231	1,74825	308,07	0,013	86,405	0	1017,46	6,6	8,7	8,6	1	1	1	1	1	1	1	1	1	0	1	-5,003524	274,04185	314,77598	0
15.01.2021	21:38:43	0	0	3,389417	1,7745	310,9968	0,013	86,427	0	1017,42	6,7	8,7	8,7	1	1	1	1	1	1	1	1	1	0	1	-5,990134	273,91432	313,194522	0
15.01.2021	21:38:44	0	0	5,084156	1,791	311,8392	0,008	86,422	0	1017,44	6,7	8,7	8,6	1	1	1	1	1	1	1	1	1	0	1	-5,778717	273,948344	313,564559	0
15.01.2021	21:38:45	0	0	3,954344	1,78725	311,778	0,014	86,429	0	1017,48	6,7	8,7	8,6	1	1	1	1	1	1	1	1	1	0	1	-9,725159	273,87888	309,294341	0
15.01.2021	21:38:46	0	0	3,502419	1,97925	306,4248	0,014	86,411	0	1017,42	6,6	8,7	8,6	1	1	1	1	1	1	1	1	1	0	1	-8,174771	273,905453	310,968561	0
15.01.2021	21:38:47	0	0	3,163475	2,07225	289,278	0,012	86,417	0	1017,58	6,6	8,7	8,6	1	1	1	1	1	1	1	1	1	0	1	-9,936575	274,029951	309,787392	0
15.01.2021	21:38:48	0	0	2,71155	2,181	304,3044	0,015	86,435	0	1017,5	6,7	8,7	8,6	1	1	1	1	1	1	1	1	1	0	1	-11,909796	273,896591	307,192236	0
15.01.2021	21:38:49	0	0	3,163475	2,2185	311,9076	0,016	86,416	0	1017,58	6,7	8,7	8,6	1	1	1	1	1	1	1	1	1	0	1	-9,584214	273,973531	309,876522	0
15.01.2021	21:38:50	0	0	2,71155	2,247	315,522	0,01	86,426	0	1017,32	6,7	8,7	8,6	1	1	1	1	1	1	1	1	1	0	1	-7,751938	273,935023	311,529229	0
15.01.2021	21:38:51	0	0	3,050494	2,151	302,4	0,01	86,424	0	1017,42	6,7	8,7	8,6	1	1	1	1	1	1	1	1	1	0	1	-6,906272	274,026978	312,803817	0
15.01.2021	21:38:52	0	0	5,084156	2,0535	317,7252	0,013	86,413	0	1017,56	6,6	8,7	8,6	1	1	1	1	1	1	1	1	1	0	1	-5,637773	273,939462	313,664091	0
15.01.2021	21:38:53	0	0	4,745212	1,97775	305,3376	0,008	86,405	0	1017,32	6,6	8,7	8,6	1	1	1	1	1	1	1	1	1	0	1	-9,020437	273,884782	310,026564	0
15.01.2021	21:38:54	0	0	4,293287	2,0715	314,3556	0,01	86,415	0	1017,52	6,6	8,7	8,6	1	1	1	1	1	1	1	1	1	0	1	-5,84919	274,044826	313,944204	0
15.01.2021	21:38:55	0	0	4,067325	2,2725	303,9084	0,013	86,433	0	1017,44	6,6	8,7	8,6	1	1	1	1	1	1	1	1	1	0	1	-2,889359	273,896591	316,212673	0
15.01.2021	21:38:56	0	0	2,937512	2,26575	294,804	0,012	86,427	0	1017,42	6,7	8,7	8,6	1	1	1	1	1	1	1	1	1	0	1	-2,184637	273,970566	317,26227	0
15.01.2021	21:38:57	0	0	3,389437	2,29875	308,8224	0,008	86,44	0	1017,4	6,7	8,7	8,6	1	1	1	1	1	1	1	1	1	0	1	-12,544045	274,079082	307,409277	0
15.01.2021	21:38:58	0	0	3,841362	2,295	303,2244	0,01	86,429	0	1017,54	6,7	8,7	8,6	1	1	1	1	1	1	1	1	1	0	1	-6,060606	274,010631	313,573203	0
15.01.2021	21:38:59	0	0	4,632203	2,21475	298,3572	0,005	86,413	0	1017,52	6,7	8,7	8,7	1	1	1	1	1	1	1	1	1	0	1	-7,258633	273,88921	311,809	0
15.01.2021	21:39:00	0	0	3,050494	2,136	304,6608	0,015	86,437	0	1017,32	6,7	8,7	8,6	1	1	1	1	1	1	1	1	1	0	1	-6,412967	273,921711	312,806143	0
15.01.2021	21:39:01	0	0	4,745212	2,085	311,7852	0,016	86,428	0	1017,48	6,6	8,7	8,6	1	1	1	1	1	1	1	1	1	0	1	-4,792107	273,937982	314,502857	0
15.01.2021	21:39:02	0	0	4,51925	1,98225	325,9872	0,013	86,433	0	1017,38	6,7	8,7	8,6	1	1	1	1	1	1	1	1	1	0	1	-5,355884	273,881831	313,677365	0
15.01.2021	21:39:03	0	0	3,502398	1,90575	311,7312	0,008	86,43	0	1017,46	6,7	8,7	8,7	1	1	1	1	1	1	1	1	1	0	1	-8,245243	273,96612	311,180927	0
15.01.2021	21:39:04	0	0	2,937495	2,00025	321,48	0,011	86,429	0	1017,36	6,7	8,7	8,7	1	1	1	1	1	1	1	1	1	0	1	-10,288936	273,911364	308,881943	0
15.01.2021	21:39:05	0	0	4,406268	2,10675	316,2132	0,018	86,428	0	1017,44	6,8	8,7	8,6	1	1	1	1	1	1	1	1	1	0	1	-7,82241	274,026978	311,887679	0
15.01.2021	21:39:06	0	0	4,51925	2,12325	319,9572	0,013	86,428	0	1017,38	6,6	8,7	8,6	1	1	1	1	1	1	1	1	1	0	1	-6,20155	274,061202	313,668288	0
15.01.2021	21:39:07	0	0	3,728381	2,25375	318,456	0,01	86,412	0	1017,18	6,7	8,7	8,6	1	1	1	1	1	1	1	1	1	0	1	-8,668076	273,898068	310,440838	0
15.01.2021	21:39:08	0	0	4,406242	2,442	324,6984	0,01	86,438	0	1017,38	6,7	8,7	8,7	1	1	1	1	1	1	1	1	1	0	1	-8,245243	274,022518	311,444035	0
15.01.2021	21:39:09	0	0	4,293261	2,45325	302,8788	0,013	86,417	0	1017,42	6,6	8,7	8,7	1	1	1	1	1	1	1	1	1	0	1	-6,272023	273,892162	312,809368	0
15.01.2021	21:39:10	0	0	4,067325	2,418	310,6764	0,012	86,43	0	1017,42	6,6	8,7	8,6	1	1	1	1	1	1	1	1	1	0	1	-1,973221	274,046314	317,82712	0
15.01.2021	21:39:11	0	0	4,745212	2,4	313,5996	0,012	86,439	0	1017,48	6,6	8,7	8,6	1	1	1	1	1	1	1	1	1	0	1	-12,05074	274,0359	307,70099	0
15.01.2021	21:39:12	0	0	2,937512	2,43825	319,5576	0,013	86,425	0	1017,48	6,6	8,7	8,6	1	1	1	1	1	1	1	1	1	0	1	-8,386187	273,899545	310,729609	0
15.01.2021	21:39:13	0	0	3,841362	2,54925	295,5816	0,009	86,425	0	1017,26	6,7	8,7	8,6	1	1	1	1	1	1	1	1	1	0	1	-7,188161	274,059713	312,674725	0
15.01.2021	21:39:14	0	0	4,51925	2,517	287,748	0,01	86,42	0	1017,36	6,7	8,7	8,6	1	1	1	1	1	1	1	1	1	0	1	-12,544045	274,040363	307,228514	0
15.01.2021	21:39:15	0	0	2,824531	2,391	307,1016	0,014	86,432	0	1017,5	6,6	8,7	8,6	1	1	1	1	1	1	1	1	1	0	1	-7,188161	273,915798	312,003385	0
15.01.2021	21:39:16	0	0	3,841362	2,31825	313,6104	0,007	86,447	0	1017,34	6,7	8,7	8,6	1	1	1	1	1	1	1	1	1	0	1	-5,84919	274,058223	314,006744	0
15.01.2021	21:39:17	0	0	4,971175	2,22975	319,122	0,01	86,44	0	1017,38	6,6	8,7	8,6	1	1	1	1	1	1	1	1	1	0	1	-5,426357	273,895115	313,668794	0
15.01.2021	21:39:18	0	0	3,954344	2,12775	313,1604	0,009	86,431	0	1017,42	6,6	8,7	8,6	1	1	1	1	1	1	1	1	1	0	1	-8,104299	274,046314	311,696041	0
15.01.2021	21:39:19	0	0	3,050494	2,03025	304,2432	0,008	86,446	0	1017,44	6,7	8,7	8,6	1	1	1	1	1	1	1	1	1	0	1	-10,359408	274,080573	309,600875	0
15.01.2021	21:39:20	0	0	4,51925	2,13075	312,4944	0,009	86,448	0	1017,5	6,7	8,7	8,6	1	1	1	1	1	1	1	1	1	0	1	-12,825934	273,980945	306,669385	0
15.01.2021	21:39:21	0	0	2,598569	2,2815	310,9752	0,012	86,453	0	1017,54	6,6	8,7	8,6	1	1	1	1	1	1	1	1	1	0	1	-9,090909	273,906931	310,059309	0
15.01.2021	21:39:22	0	0	4,632231	2,32725	318,9132	0,012	86,447	0	1017,4	6,6	8,7	8,6	1	1	1	1	1	1	1	1	1	0	1	-9,654686	273,964638	309,764572	0
15.01.2021	21:39:23	0	0	4,858193	2,2935	310,6008	0,008	86,432	0	1017,38	6,6	8,7	8,6	1	1	1	1	1	1	1	1	1	0	1	-9,090909	274,074611	310,841533	0
15.01.2021	21:39:24	0	0	4,180306	2,2815	311,3568	0,006	86,43	0	1017,34	6,7	8,7	8,6	1	1	1	1	1	1	1	1	1	0	1	-10,077519	273,989846	309,459319	0
15.01.2021	21:39:25	0	0	5,197137	2,16	309,5352	0,011	86,438	0	1017,34	6,6	8,7	8,6	1	1	1	1	1	1	1	1	1	0	1	-11,134602	274,058223	308,721332	0
15.01.2021	21:39:26	0	0	4,293287	2,08875	311,0328	0,008	86,448	0	1017,54	6,6	8,7	8,6	1	1	1	1	1	1	1	1	1	0	1	-10,852713	273,992814	308,697971	0
15.01.2021	21:39:27	0	0	5,084125	2,11575	321,4764	0,01	86,45	0	1017,48	6,6	8,7	8,7	1	1	1	1	1	1	1	1	1	0	1	-5,496829	273,917276	313,701607	0
15.01.2021	21:39:28	0	0	2,824531	2,06325	325,2312	0,009	86,461	0	1017,42	6,7	8,7	8,6	1	1	1	1	1	1	1	1	1	0	1	-3,946441	273,933543	315,327828	0
15.01.2021	21:39:29	0	0	2,824531	2,0685	324,3816	0,011	86,456	0	1017,42	6,7	8,7	8,6	1	1	1	1	1	1	1	1	1	0	1	-9,936575	273,909886	309,227416	0
15.01.2021	21:39:30	0	0	3,954344	1,941	317,772	0,008	86,438	0	1017,34	6,6	8,7	8,6	1	1	1	1	1	1	1	1	1	0	1	-10,147992	273,933543	309,126278	0
15.01.2021	21:39:31	0	0	2,372606	1,8195	315,2268	0,005	86,45	0	1017,38	6,8	8,7	8,6	1	1	1	1	1	1	1	1	1	0	1	-4,510218	273,902499	314,619345	0
15.01.2021	21:39:32	0	0	2,937512	1,7205	299,7684	0,012	86,448	0	1017,4	6,6	8,7	8,6	1	1	1	1	1	1	1	1	1	0	1	-4,651163	273,954267	314,719734	0
15.01.2021	21:39:33	0	0	2,824531	1,69125	294,7752	0,014	86,451	0	1017,46	6,7	8,7	8,6	1	1	1	1	1	1	1	1	1	0	1	-6,553911	273,886258	312,499966	0
15.01.2021	21:39:34	0	0	5,084156	1,66125	295,1028	0,002	86,453	0	1017,26	6,7	8,7	8,6	1	1	1	1	1	1	1	1	1	0	1	-9,584214	273,963156	309,828133	0
15.01.2021	21:39:35	0	0	4,51925	1,701	309,2076	0,01	86,46	0	1017,4	6,7	8,7	8,6	1	1	1	1	1	1	1	1	1	0	1	-9,513742	274,062691	310,36305	0
15.01.2021	21:39:36	0	0	2,372606	1,7355	306,8352	0,013	86,462	0	1017,5	6,7	8,7	8,6	1	1	1	1	1	1	1	1	1	0	1	-3,382664	273,918754	315,822662	0
15.01.2021	21:39:37	0	0	4,293287	1,78575	304,1604	0,01	86,459	0	1017,46	6,6	8,7	8,6	1	1	1	1	1	1	1	1	1	0	1	-6,765328	273,995783	312,799204	0
15.01.2021	21:39:38	0	0	2,71155	1,74525	318,8196	0,007	86,437	0	1017,58	6,8	8,7	8,6	1	1	1	1	1	1	1	1	1	0	1	-10,852713	274,082064	309,114532	0
15.01.2021	21:39:39	0	0	4,745212	1,7055	306,414	0,009	86,461	0	1017,2	6,6	8,7	8,6	1	1	1	1	1	1	1	1	1	0	1	-7,892882	273,964638	311,526376	0
15.01.2021	21:39:40	0	0	3,163475	1,69575	303,5772	0,013	86,463	0	1017,54	6,6	8,7	8,6	1	1	1	1	1	1	1	1	1	0	1	-8,527132	273,906931	310,623086	0
15.01.2021	21:39:41	0	0	4,632231	1,6695	302,0544	0,008	86,47	0	1017,38	6,8	8,7	8,6	1	1	1	1	1	1	1	1	1	0	1	-2,255109	273,952786	317,108882	0
15.01.2021	21:39:42	0	0	3,502419	1,69875	303,5988	0,008	86,468	0	1017,26	6,7	8,7	8,6	1	1	1	1	1	1	1	1	1	0	1	-8,174771	274,082064	311,792474	0
15.01.2021	21:39:43	0	0	3,389437	1,6995	305,7516	0,013	86,468	0	1017,44	6,7	8,7	8,6	1	1	1	1	1	1	1	1	1	0	1	-6,694856	273,927626	312,551829	0
15.01.2021	21:39:44	0	0	4,745212	1,65525	297,9324	0,009	86,457	0	1017,4	6,6	8,7	8,6	1	1	1	1	1	1	1	1	1	0	1	-8,386187	274,044826	311,407206	0
15.01.2021	21:39:45	0	0	4,406268	1,62525	300,4344	0,009	86,462	0	1017,38	6,7	8,7	8,6	1	1	1	1	1	1	1	1	1	0	1	-7,751938	274,026978	311,958152	0
15.01.2021	21:39:46	0	0	2,485587	1,64475	302,4036	0,013	86,464	0	1017,48	6,7	8,7	8,6	1	1	1	1	1	1	1	1	1	0	1	-9,584214	274,082064	310,383031	0
15.01.2021	21:39:47	0	0	3,163475	1,635	300,4128	0,011	86,469	0	1017,34	6,7	8,7	8,6	1	1	1	1	1	1	1	1	1	0	1	-5,496829	273,994298	314,060779	0
15.01.2021	21:39:48	0	0	2,937512	1,63875	296,4384	0,01	86,469	0	1017,44	6,7	8,7	8,6	1	1	1	1	1	1	1	1	1	0	1	-10,711769	273,908408	308,445335	0
15.01.2021	21:39:49	0	0	3,389437	1,6485	296,838	0,011	86,455	0	1017,52	6,6	8,7	8,6	1	1	1	1	1	1	1	1	1	0	1	-7,751938	273,952786	311,612053	0
15.01.2021	21:39:50	0	0	3,163475	1,74525	300,5028	0,013	86,48	0	1017,42	6,6	8,7	8,6	1	1	1	1	1	1	1	1	1	0	1	-8,527132	274,074611	311,405311	0
15.01.2021	21:39:51	0	0	4,632231	1,73325	300,4416	0,012	86,474	0	1017,4	6,6	8,7	8,6	1	1	1	1	1	1	1	1	1	0	1	-8,245243	273,960193	311,153285	0
15.01.2021	21:39:52	0	0	2,259625	1,67325	298,9944	0,005	86,469	0	1017,4	6,6	8,7	8,6	1	1	1	1	1	1	1	1	1	0	1	-6,412967	273,909886	312,751024	0
15.01.2021	21:39:53	0	0	4,51925	1,662	299,3508	0,002	86,462	0	1017,7	6,6	8,7	8,6	1	1	1	1	1	1	1	1	1	0	1	-5,708245	274,026978	314,001844	0
15.01.2021	21:39:54	0	0	2,937512	1,63125	298,6164	0,004	86,468	0	1017,42	6,7	8,7	8,6	1	1	1	1	1	1	1	1	1	0	1	-9,513742	273,952786	309,850249	0
15.01.2021	21:39:55	0	0	3,841362	1,62075	308,8728	0,011	86,458	0	1017,6	6,7	8,7	8,6	1	1	1	1	1	1	1	1	1	0	1	-8,245243	274,091012	311,763787	0
15.01.2021	21:39:56	0	0	2,824531	1,647	305,694	0,006	86,473	0	1017,34	6,6	8,7	8,6	1	1	1	1	1	1	1	1	1	0	1	-7,117689	273,96612	312,308481	0
15.01.2021	21:39:57	0	0	3,728381	1,731	306,7668	0,013	86,47	0	1017,58	6,6	8,7	8,6	1	1	1	1	1	1	1	1	1	0	1	-6,976744	274,085046	313,004427	0
15.01.2021	21:39:58	0	0	5,084156	1,713	322,5564	0,011	86,462	0	1017,5	6,7	8,7	8,6	1	1	1	1	1	1	1	1	1	0	1	-4,933051	273,964638	314,486207	0
15.01.2021	21:39:59	0	0	3,276456	1,70925	323,712	0,011	86,461	0	1017,46	6,7	8,7	8,6	1	1	1	1	1	1	1	1	1	0	1	-11,346018	273,905453	307,797314	0
15.01.2021	21:40:00	0	0	4,406268	1,87575	320,0256	0,005	86,472	0	1017,52	6,6	8,7	8,6	1	1	1	1	1	1	1	1	1	0	1	-9,231853	274,024005	310,464361	0
15.01.2021	21:40:01	0	0	2,937512	2,02125	325,9944	0,005	86,457	0	1017,42	6,6	8,7	8,6	1	1	1	1	1	1	1	1	1	0	1	-8,45666	273,936503	310,831406	0
15.01.2021	21:40:02	0	0	2,598569	2,046	328,0968	0,01	86,457	0	1017,4	6,6	8,7	8,6	1	1	1	1	1	1	1	1	1	0	1	-10,923185	274,080573	309,037098	0
15.01.2021	21:40:03	0	0	4,51925	2,07825	329,274	0,006	86,475	0	1017,3	6,6	8,7	8,6	1	1	1	1	1	1	1	1	1	0	1	-7,470049	274,052268	312,358082	0
15.01.2021	21:40:04	0	0	5,4231	2,0895	325,548	0,014	86,477	0	1017,46	6,8	8,7	8,6	1	1	1	1	1	1	1	1	1	0	1	-10,359408	273,88921	308,708224	0
15.01.2021	21:40:05	0	0	3,6154	1,9935	325,1628	0,006	86,477	0	1017,58	6,6	8,7	8,6	1	1	1	1	1	1	1	1	1	0	1	-3,312192	273,932064	315,95518	0
15.01.2021	21:40:06	0	0	3,502419	1,93725	327,0924	0,01	86,493	0	1017,24	6,7	8,7	8,6	1	1	1	1	1	1	1	1	1	0	1	-8,597604	274,06865	311,307008	0
15.01.2021	21:40:07	0	0	3,502419	1,95	317,6928	0,012	86,468	0	1017,14	6,6	8,7	8,6	1	1	1	1	1	1	1	1	1	0	1	-6,483439	273,99133	313,060322	0
15.01.2021	21:40:08	0	0	3,389437	1,9845	318,8412	0,007	86,459	0	1017,36	6,7	8,7	8,6	1	1	1	1	1	1	1	1	1	0	1	-6,20155	274,082064	313,765695	0
15.01.2021	21:40:09	0	0	4,51925	2,0385	315,2088	0,008	86,484	0	1017,48	6,7	8,7	8,6	1	1	1	1	1	1	1	1	1	0	1	-10,570825	274,050779	309,250358	0
15.01.2021	21:40:10	0	0	3,163475	2,109	315,8712	0,022	86,5	0	1017,44	6,6	8,7	8,6	1	1	1	1	1	1	1	1	1	0	1	-7,047216	274,06865	312,857395	0
15.01.2021	21:40:11	0	0	4,745212	2,0625	312,498	0,008	86,481	0	1017,4	6,6	8,7	8,6	1	1	1	1	1	1	1	1	1	0	1	-8,879493	274,040363	310,893066	0
15.01.2021	21:40:12	0	0	2,485587	1,953	316,908	0,012	86,477	0	1017,44	6,6	8,7	8,6	1	1	1	1	1	1	1	1	1	0	1	-9,936575	273,899545	309,179221	0
15.01.2021	21:40:13	0	0	4,51925	1,8945	296,1036	0,006	86,479	0	1017,54	6,7	8,7	8,6	1	1	1	1	1	1	1	1	1	0	1	-6,412967	273,917276	312,785469	0
15.01.2021	21:40:14	0	0	2,71155	2,05725	320,0256	0,011	86,487	0	1017,48	6,6	8,7	8,6	1	1	1	1	1	1	1	1	1	0	1	-8,245243	274,040363	311,527316	0
15.01.2021	21:40:15	0	0	4,632231	2,217	315,1332	0,005	86,477	0	1017,42	6,7	8,7	8,6	1	1	1	1	1	1	1	1	1	0	1	-9,584214	274,044826	310,20918	0
15.01.2021	21:40:16	0	0	2,71155	2,20875	313,5348	0,009	86,465	0	1017,48	6,6	8,7	8,6	1	1	1	1	1	1	1	1	1	0	1	-3,805497	273,886258	315,24838	0
15.01.2021	21:40:17	0	0	3,954344	2,223	315,1296	0,01	86,474	0	1017,28	6,7	8,7	8,6	1	1	1	1	1	1	1	1	1	0	1	-7,399577	274,056734	312,449405	0
15.01.2021	21:40:18	0	0	4,632231	2,39175	319,1976	0,011	86,488	0	1017,34	6,6	8,7	8,6	1	1	1	1	1	1	1	1	1	0	1	-5,567301	274,076101	314,372101	0
15.01.2021	21:40:19	0	0	4,971175	2,5215	317,3436	0,012	86,472	0	1017,36	6,6	8,7	8,6	1	1	1	1	1	1	1	1	1	0	1	-7,047216	274,026978	312,662873	0
15.01.2021	21:40:20	0	0	4,632231	2,445	314,4096	0,01	86,481	0	1017,42	6,7	8,7	8,6	1	1	1	1	1	1	1	1	1	0	1	-8,386187	273,908408	310,770917	0
15.01.2021	21:40:21	0	0	4,632231	2,40075	303,5016	0,009	86,469	0	1017,56	6,7	8,7	8,6	1	1	1	1	1	1	1	1	1	0	1	-5,990134	273,951305	313,366952	0
15.01.2021	21:40:22	0	0	2,71155	2,5275	318,15	0,009	86,469	0	1017,56	6,7	8,7	8,6	1	1	1	1	1	1	1	1	1	0	1	-6,412967	273,903976	312,723481	0
15.01.2021	21:40:23	0	0	4,293287	2,57775	294,8364	0,003	86,486	0	1017,46	6,6	8,7	8,6	1	1	1	1	1	1	1	1	1	0	1	-5,919662	274,037387	313,839011	0
15.01.2021	21:40:24	0	0	3,276456	2,667	305,298	0,008	86,478	0	1017,34	6,6	8,7	8,6	1	1	1	1	1	1	1	1	1	0	1	-5,990134	273,930585	313,270342	0
15.01.2021	21:40:25	0	0	4,180306	2,66775	303,4584	0,006	86,486	0	1017,42	6,6	8,7	8,6	1	1	1	1	1	1	1	1	1	0	1	-7,399577	273,927626	311,847107	0
15.01.2021	21:40:26	0	0	2,598569	2,64225	287,6544	0,005	86,48	0	1017,24	6,6	8,7	8,6	1	1	1	1	1	1	1	1	1	0	1	-8,879493	273,902499	310,25007	0
15.01.2021	21:40:27	0	0	3,728381	2,51025	297,882	0,011	86,494	0	1017,44	6,7	8,7	8,6	1	1	1	1	1	1	1	1	1	0	1	-4,439746	273,912842	314,738021	0
15.01.2021	21:40:28	0	0	4,180306	2,463	291,8592	-0,001	86,475	0	1017,44	6,7	8,7	8,6	1	1	1	1	1	1	1	1	1	0	1	-5,003524	273,932064	314,263848	0
15.01.2021	21:40:29	0	0	3,050494	2,3985	290,7828	0,013	86,497	0	1017,4	6,6	8,6	8,6	1	1	1	1	1	1	1	1	1	0	1	-3,523608	274,076101	316,415793	0
15.01.2021	21:40:30	0	0	4,971175	2,2875	285,7932	0,006	86,484	0	1017,44	6,6	8,7	8,6	1	1	1	1	1	1	1	1	1	0	1	-4,510218	273,964638	314,90904	0
15.01.2021	21:40:31	0	0	4,858193	2,18625	296,0676	0,005	86,476	0	1017,36	6,6	8,7	8,6	1	1	1	1	1	1	1	1	1	0	1	-5,778717	273,887734	313,282037	0
15.01.2021	21:40:32	0	0	3,163475	2,06925	290,7828	0,01	86,488	0	1017,66	6,7	8,7	8,6	1	1	1	1	1	1	1	1	1	0	1	-7,258633	274,034413	312,486155	0
15.01.2021	21:40:33	0	0	2,937512	1,97925	320,3892	0,012	86,492	0	1017,38	6,7	8,7	8,6	1	1	1	1	1	1	1	1	1	0	1	-7,047216	274,055245	312,794815	0
15.01.2021	21:40:34	0	0	4,858193	1,863	297,5364	0,009	86,505	0	1017,38	6,6	8,7	8,6	1	1	1	1	1	1	1	1	1	0	1	-11,275546	274,052268	308,552585	0
15.01.2021	21:40:35	0	0	2,71155	1,92675	303,2316	0,012	86,496	0	1017,56	6,6	8,7	8,6	1	1	1	1	1	1	1	1	1	0	1	-10,218464	273,940942	309,090301	0
15.01.2021	21:40:36	0	0	3,841362	1,887	300,8556	0,01	86,486	0	1017,46	6,6	8,7	8,6	1	1	1	1	1	1	1	1	1	0	1	-7,892882	273,906931	311,257336	0
15.01.2021	21:40:37	0	0	2,598569	1,8225	305,298	0,008	86,487	0	1017,58	6,7	8,7	8,6	1	1	1	1	1	1	1	1	1	0	1	-6,976744	273,926147	312,263046	0
15.01.2021	21:40:38	0	0	2,824531	1,72725	294,4944	0,012	86,499	0	1017,46	6,6	8,6	8,6	1	1	1	1	1	1	1	1	1	0	1	-11,980268	273,902499	307,149295	0
15.01.2021	21:40:39	0	0	4,406268	1,797	302,0652	0,007	86,5	0	1017,4	6,6	8,7	8,6	1	1	1	1	1	1	1	1	1	0	1	-11,346018	273,986879	308,176978	0
15.01.2021	21:40:40	0	0	2,824531	1,9335	299,7936	0,01	86,504	0	1017,56	6,6	8,7	8,6	1	1	1	1	1	1	1	1	1	0	1	-8,174771	273,88921	310,892862	0
15.01.2021	21:40:41	0	0	3,163475	1,94625	309,4632	0,008	86,501	0	1017,62	6,6	8,7	8,6	1	1	1	1	1	1	1	1	1	0	1	-4,862579	274,050779	314,958603	0
15.01.2021	21:40:42	0	0	2,71155	1,905	300,8376	0,01	86,504	0	1017,36	6,6	8,7	8,6	1	1	1	1	1	1	1	1	1	0	1	-8,668076	274,0359	311,083654	0
15.01.2021	21:40:43	0	0	2,598569	1,9275	299,3724	0,008	86,481	0	1017,48	6,6	8,7	8,6	1	1	1	1	1	1	1	1	1	0	1	-10,288936	274,06716	309,60872	0
15.01.2021	21:40:44	0	0	3,954344	1,88325	308,0304	0,008	86,509	0	1017,48	6,6	8,7	8,6	1	1	1	1	1	1	1	1	1	0	1	-9,44327	273,932064	309,824102	0
15.01.2021	21:40:45	0	0	3,389437	1,8495	317,7144	0,007	86,513	0	1017,44	6,6	8,7	8,6	1	1	1	1	1	1	1	1	1	0	1	-10,923185	274,059713	308,9397	0
15.01.2021	21:40:46	0	0	4,51925	1,80375	319,176	0,01	86,51	0	1017,46	6,7	8,7	8,6	1	1	1	1	1	1	1	1	1	0	1	-7,047216	273,908408	312,109888	0
15.01.2021	21:40:47	0	0	4,51925	1,75725	318,42	0,011	86,504	0	1017,5	6,7	8,7	8,6	1	1	1	1	1	1	1	1	1	0	1	-9,302326	273,948344	310,040951	0
15.01.2021	21:40:48	0	0	3,050494	1,6755	328,4892	0,01	86,516	0	1017,48	6,6	8,7	8,6	1	1	1	1	1	1	1	1	1	0	1	-9,161381	273,958711	310,230238	0
15.01.2021	21:40:49	0	0	2,485587	1,64175	319,1616	0,008	86,522	0	1017,46	6,6	8,7	8,6	1	1	1	1	1	1	1	1	1	0	1	-4,933051	273,908408	314,224053	0
15.01.2021	21:40:50	0	0	4,293287	1,5225	315,8604	0,01	86,527	0	1017,42	6,6	8,7	8,6	1	1	1	1	1	1	1	1	1	0	1	-6,694856	274,015088	312,95975	0
15.01.2021	21:40:51	0	0	3,389437	1,56525	318,7692	0,011	86,518	0	1017,46	6,6	8,7	8,6	1	1	1	1	1	1	1	1	1	0	1	-6,272023	273,902499	312,85754	0
15.01.2021	21:40:52	0	0	2,824531	1,58325	325,5192	0,009	86,525	0	1017,42	6,6	8,7	8,6	1	1	1	1	1	1	1	1	1	0	1	-7,610994	273,983912	311,898162	0
15.01.2021	21:40:53	0	0	4,51925	1,54875	323,6256	0,01	86,516	0	1017,5	6,7	8,7	8,6	1	1	1	1	1	1	1	1	1	0	1	-4,087385	274,080573	315,872898	0
15.01.2021	21:40:54	0	0	3,728381	1,5045	304,3368	0,004	86,519	0	1017,34	6,7	8,6	8,6	1	1	1	1	1	1	1	1	1	0	1	-6,20155	273,960193	313,196978	0
15.01.2021	21:40:55	0	0	4,180306	1,49625	306,8028	0,011	86,502	0	1017,36	6,7	8,7	8,6	1	1	1	1	1	1	1	1	1	0	1	-5,637773	274,044826	314,155621	0
15.01.2021	21:40:56	0	0	2,485587	1,45425	300,8232	0,008	86,503	0	1017,46	6,6	8,7	8,6	1	1	1	1	1	1	1	1	1	0	1	-9,302326	274,07312	310,623158	0
15.01.2021	21:40:57	0	0	2,824531	1,4805	307,1808	0,01	86,525	0	1017,36	6,7	8,7	8,6	1	1	1	1	1	1	1	1	1	0	1	-11,486963	273,926147	307,752827	0
15.01.2021	21:40:58	0	0	2,937512	1,54125	314,4024	0,006	86,535	0	1017,44	6,6	8,7	8,6	1	1	1	1	1	1	1	1	1	0	1	-6,483439	274,064181	313,400307	0
15.01.2021	21:40:59	0	0	3,502419	1,59225	303,9084	0,003	86,525	0	1017,44	6,7	8,7	8,6	1	1	1	1	1	1	1	1	1	0	1	-11,980268	274,04185	307,799236	0
15.01.2021	21:41:00	0	0	4,293287	1,5645	316,6128	0,005	86,531	0	1017,42	6,7	8,6	8,6	1	1	1	1	1	1	1	1	1	0	1	-8,879493	274,076101	311,059909	0
15.01.2021	21:41:01	0	0	4,293287	1,5645	316,6128	0,005	86,531	0	1017,42	6,7	8,6	8,6	1	1	1	1	1	1	1	1	1	0	1	-4,721635	273,936503	314,566431	0
15.01.2021	21:41:02	0	0	3,6154	1,47975	303,4764	0,004	86,537	0	1017,36	6,6	8,7	8,6	1	1	1	1	1	1	1	1	1	0	1	-6,694856	273,902499	312,434707	0
15.01.2021	21:41:03	0	0	3,728381	1,45875	308,052	0,005	86,517	0	1017,18	6,6	8,7	8,6	1	1	1	1	1	1	1	1	1	0	1	-11,768851	274,00766	307,851097	0
15.01.2021	21:41:04	0	0	2,937512	1,542	301,5216	0,009	86,534	0	1017,36	6,7	8,7	8,6	1	1	1	1	1	1	1	1	1	0	1	-4,369274	274,085046	315,611897	0
15.01.2021	21:41:05	0	0	4,632231	1,55475	314,0964	0,005	86,534	0	1017,54	6,6	8,7	8,6	1	1	1	1	1	1	1	1	1	0	1	-5,778717	273,903976	313,35773	0
15.01.2021	21:41:06	0	0	3,954344	1,6455	304,5672	0,005	86,531	0	1017,48	6,8	8,7	8,6	1	1	1	1	1	1	1	1	1	0	1	-11,627907	274,024005	308,068308	0
15.01.2021	21:41:07	0	0	2,372606	1,86075	308,0088	0,01	86,543	0	1017,5	6,7	8,7	8,6	1	1	1	1	1	1	1	1	1	0	1	-11,346018	274,08952	308,656046	0
15.01.2021	21:41:08	0	0	2,71155	2,0445	321,5232	0,005	86,53	0	1017,44	6,6	8,7	8,6	1	1	1	1	1	1	1	1	1	0	1	-10,711769	274,00469	308,894322	0
15.01.2021	21:41:09	0	0	2,71155	2,1015	311,7636	0,013	86,529	0	1017,46	6,7	8,7	8,6	1	1	1	1	1	1	1	1	1	0	1	-7,470049	274,08952	312,532015	0
15.01.2021	21:41:10	0	0	2,259625	2,11125	315,9576	0,012	86,538	0	1017,52	6,7	8,7	8,6	1	1	1	1	1	1	1	1	1	0	1	-6,342495	273,906931	312,807723	0
15.01.2021	21:41:11	0	0	4,632231	2,03775	315,4608	0,004	86,533	0	1017,52	6,7	8,7	8,6	1	1	1	1	1	1	1	1	1	0	1	-6,412967	274,052268	313,415165	0
15.01.2021	21:41:12	0	0	4,067325	1,98075	307,548	0,002	86,516	0	1017,46	6,6	8,7	8,6	1	1	1	1	1	1	1	1	1	0	1	-5,144468	273,930585	314,116008	0
15.01.2021	21:41:13	0	0	3,050494	2,034	311,7996	0,009	86,539	0	1017,32	6,8	8,7	8,6	1	1	1	1	1	1	1	1	1	0	1	-5,919662	273,918754	313,285665	0
15.01.2021	21:41:14	0	0	4,971175	2,15025	316,62	0,008	86,539	0	1017,42	6,6	8,7	8,6	1	1	1	1	1	1	1	1	1	0	1	-8,033827	274,07163	311,884699	0
15.01.2021	21:41:15	0	0	3,050494	2,22825	315,8892	0,009	86,548	0	1017,18	6,8	8,6	8,6	1	1	1	1	1	1	1	1	1	0	1	-9,302326	273,912842	309,875441	0
15.01.2021	21:41:16	0	0	5,197137	2,18025	303,4584	0,007	86,54	0	1017,54	6,6	8,6	8,6	1	1	1	1	1	1	1	1	1	0	1	-7,540521	274,07163	312,378004	0
15.01.2021	21:41:17	0	0	3,841362	2,298	284,7852	0,009	86,541	0	1017,28	6,6	8,7	8,6	1	1	1	1	1	1	1	1	1	0	1	-7,258633	273,958711	312,132987	0
15.01.2021	21:41:18	0	0	2,937512	2,39925	323,298	0,011	86,538	0	1017,34	6,7	8,7	8,6	1	1	1	1	1	1	1	1	1	0	1	-9,795631	274,076101	310,143771	0
15.01.2021	21:41:19	0	0	3,841362	2,62725	310,9824	0,012	86,544	0	1017,4	6,6	8,7	8,6	1	1	1	1	1	1	1	1	1	0	1	-8,45666	273,960193	310,941869	0
15.01.2021	21:41:20	0	0	2,372606	2,85975	317,0412	0,014	86,551	0	1017,58	6,7	8,7	8,6	1	1	1	1	1	1	1	1	1	0	1	-5,355884	273,902499	313,773679	0
15.01.2021	21:41:21	0	0	3,841362	3,04725	322,5204	0,01	86,543	0	1017,4	6,7	8,7	8,6	1	1	1	1	1	1	1	1	1	0	1	-11,346018	274,031438	308,384889	0
15.01.2021	21:41:22	0	0	2,259625	3,11325	311,4036	0,009	86,54	0	1017,42	6,7	8,7	8,6	1	1	1	1	1	1	1	1	1	0	1	-6,976744	273,976497	312,497823	0
15.01.2021	21:41:23	0	0	2,372606	3,00825	313,2036	0,016	86,541	0	1017,28	6,8	8,7	8,6	1	1	1	1	1	1	1	1	1	0	1	-6,906272	274,082064	313,060973	0
15.01.2021	21:41:24	0	0	2,485587	2,82075	302,4684	0,013	86,542	0	1017,5	6,6	8,7	8,6	1	1	1	1	1	1	1	1	1	0	1	-13,389711	274,04185	306,389792	0
15.01.2021	21:41:25	0	0	2,71155	2,75325	302,4864	0,01	86,55	0	1017,38	6,6	8,7	8,6	1	1	1	1	1	1	1	1	1	0	1	-5,778717	273,943903	313,54385	0
15.01.2021	21:41:26	0	0	3,050494	2,6685	303,5088	0,008	86,546	0	1017,48	6,7	8,7	8,6	1	1	1	1	1	1	1	1	1	0	1	-10,077519	273,909886	309,086472	0
15.01.2021	21:41:27	0	0	3,954344	2,55075	297,2736	0,003	86,571	0	1017,7	6,7	8,7	8,6	1	1	1	1	1	1	1	1	1	0	1	-7,751938	274,04185	312,027565	0
15.01.2021	21:41:28	0	0	2,033662	2,51325	305,3736	0,01	86,545	0	1017,46	6,7	8,7	8,6	1	1	1	1	1	1	1	1	1	0	1	-10,711769	274,093995	309,311195	0
15.01.2021	21:41:29	0	0	3,389437	2,643	291,8412	0,008	86,559	0	1017,5	6,6	8,7	8,6	1	1	1	1	1	1	1	1	1	0	1	-2,959831	273,972049	316,493991	0
15.01.2021	21:41:30	0	0	3,389437	2,6295	313,1964	0,008	86,554	0	1017,5	6,6	8,7	8,6	1	1	1	1	1	1	1	1	1	0	1	-9,302326	273,895115	309,792825	0
15.01.2021	21:41:31	0	0	4,858193	2,4495	301,644	0,004	86,542	0	1017,3	6,7	8,7	8,6	1	1	1	1	1	1	1	1	1	0	1	-7,82241	273,912842	311,355357	0
15.01.2021	21:41:32	0	0	3,6154	2,5275	302,4828	0,001	86,534	0	1017,36	6,6	8,7	8,6	1	1	1	1	1	1	1	1	1	0	1	-7,681466	274,043338	312,104982	0
15.01.2021	21:41:33	0	0	4,293287	2,59125	312,8688	0,008	86,551	0	1017,62	6,6	8,7	8,6	1	1	1	1	1	1	1	1	1	0	1	-6,624383	273,901022	312,498296	0
15.01.2021	21:41:34	0	0	4,632231	2,64375	302,0184	0,01	86,552	0	1017,48	6,7	8,7	8,6	1	1	1	1	1	1	1	1	1	0	1	-5,496829	274,037387	314,261844	0
15.01.2021	21:41:35	0	0	2,598569	2,54775	305,0172	0,01	86,549	0	1017,38	6,7	8,7	8,6	1	1	1	1	1	1	1	1	1	0	1	-10,570825	273,92319	308,655178	0
15.01.2021	21:41:36	0	0	3,163475	2,45625	302,0112	0,016	86,556	0	1017,42	6,7	8,7	8,6	1	1	1	1	1	1	1	1	1	0	1	-8,174771	273,983912	311,334385	0
15.01.2021	21:41:37	0	0	4,406268	2,421	307,1052	0,008	86,549	0	1017,52	6,6	8,7	8,6	1	1	1	1	1	1	1	1	1	0	1	-10,077519	273,915798	309,114026	0
15.01.2021	21:41:38	0	0	3,728381	2,42175	301,2264	0,01	86,538	0	1017,34	6,8	8,7	8,6	1	1	1	1	1	1	1	1	1	0	1	-4,22833	274,029951	315,495637	0
15.01.2021	21:41:39	0	0	4,971175	2,41275	302,0796	0,01	86,547	0	1017,3	6,6	8,7	8,6	1	1	1	1	1	1	1	1	1	0	1	-9,725159	274,043338	310,06129	0
15.01.2021	21:41:40	0	0	4,632231	2,38425	305,7948	0,006	86,55	0	1017,22	6,7	8,7	8,6	1	1	1	1	1	1	1	1	1	0	1	-7,82241	274,080573	312,137873	0
15.01.2021	21:41:41	0	0	2,598569	2,32275	308,8548	0,014	86,556	0	1017,54	6,7	8,7	8,6	1	1	1	1	1	1	1	1	1	0	1	-7,329105	273,948344	312,014171	0
15.01.2021	21:41:42	0	0	4,858193	2,37225	305,6292	0,013	86,548	0	1017,42	6,6	8,7	8,6	1	1	1	1	1	1	1	1	1	0	1	-9,513742	274,037387	310,24493	0
15.01.2021	21:41:43	0	0	4,971175	2,469	308,0592	0,013	86,572	0	1017,3	6,7	8,7	8,6	1	1	1	1	1	1	1	1	1	0	1	-9,090909	274,083555	310,883299	0
15.01.2021	21:41:44	0	0	4,180306	2,622	310,2588	0,008	86,557	0	1017,42	6,6	8,7	8,6	1	1	1	1	1	1	1	1	1	0	1	-10,288936	273,952786	309,075055	0
15.01.2021	21:41:45	0	0	4,971175	2,5995	316,3176	0,011	86,567	0	1017,42	6,7	8,7	8,6	1	1	1	1	1	1	1	1	1	0	1	-10,711769	273,96612	308,714401	0
15.01.2021	21:41:46	0	0	4,067325	2,53875	314,5104	0,016	86,566	0	1017,5	6,7	8,7	8,6	1	1	1	1	1	1	1	1	1	0	1	-5,144468	273,906931	314,00575	0
15.01.2021	21:41:47	0	0	4,745212	2,535	314,0532	0,012	86,57	0	1017,6	6,7	8,6	8,6	1	1	1	1	1	1	1	1	1	0	1	-11,346018	274,064181	308,537727	0
15.01.2021	21:41:48	0	0	3,841362	2,478	316,2996	0,008	86,553	0	1017,34	6,7	8,7	8,6	1	1	1	1	1	1	1	1	1	0	1	-10,570825	274,080573	309,389459	0
15.01.2021	21:41:49	0	0	4,632231	2,4675	313,1676	0,011	86,572	0	1017,4	6,7	8,7	8,6	1	1	1	1	1	1	1	1	1	0	1	-9,090909	274,056734	310,758073	0
15.01.2021	21:41:50	0	0	3,728381	2,556	307,206	0,013	86,574	0	1017,52	6,7	8,7	8,6	1	1	1	1	1	1	1	1	1	0	1	-10,077519	273,937982	309,217445	0
15.01.2021	21:41:51	0	0	3,163475	2,697	309,4776	0,016	86,57	0	1017,5	6,7	8,7	8,6	1	1	1	1	1	1	1	1	1	0	1	-5,990134	274,085046	313,991037	0
15.01.2021	21:41:52	0	0	3,841362	2,84625	291,9276	0,004	86,558	0	1017,42	6,6	8,7	8,6	1	1	1	1	1	1	1	1	1	0	1	-7,470049	273,958711	311,92157	0
15.01.2021	21:41:53	0	0	2,485587	2,99625	303,5916	0,008	86,573	0	1017,42	6,6	8,7	8,6	1	1	1	1	1	1	1	1	1	0	1	-7,751938	274,085046	312,229233	0
15.01.2021	21:41:54	0	0	3,163475	2,931	302,4864	0,013	86,567	0	1017,3	6,7	8,7	8,6	1	1	1	1	1	1	1	1	1	0	1	-1,832276	273,973531	317,62846	0
15.01.2021	21:41:55	0	0	2,033662	2,8245	301,59	0,009	86,576	0	1017,5	6,7	8,7	8,6	1	1	1	1	1	1	1	1	1	0	1	-9,020437	273,902499	310,109126	0
15.01.2021	21:41:56	0	0	4,745212	2,6775	309,9024	0,007	86,56	0	1017,42	6,7	8,7	8,6	1	1	1	1	1	1	1	1	1	0	1	-8,315715	274,000236	311,269593	0
15.01.2021	21:41:57	0	0	3,728359	2,59875	294,8004	0,009	86,563	0	1017,48	6,8	8,7	8,7	1	1	1	1	1	1	1	1	1	0	1	-11,41649	274,098471	308,627378	0
15.01.2021	21:41:58	0	0	4,180306	2,71575	308,0628	0,004	86,568	0	1017,28	6,6	8,7	8,6	1	1	1	1	1	1	1	1	1	0	1	-8,033827	274,01806	311,634646	0
15.01.2021	21:41:59	0	0	4,971175	2,7795	309,5208	0,006	86,571	0	1017,4	6,7	8,7	8,6	1	1	1	1	1	1	1	1	1	0	1	-6,553911	274,038875	313,211704	0
15.01.2021	21:42:00	0	0	3,841362	2,733	301,6368	0,014	86,577	0	1017,58	6,7	8,6	8,6	1	1	1	1	1	1	1	1	1	0	1	-6,8358	273,911364	312,335079	0
15.01.2021	21:42:01	0	0	2,146644	2,583	303,5448	0,009	86,576	0	1017,38	6,7	8,7	8,6	1	1	1	1	1	1	1	1	1	0	1	-7,892882	274,037387	311,86579	0
15.01.2021	21:42:02	0	0	3,841362	2,31675	311,4504	0,011	86,564	0	1017,5	6,7	8,7	8,6	1	1	1	1	1	1	1	1	1	0	1	-7,399577	274,052268	312,428554	0
15.01.2021	21:42:03	0	0	3,389437	2,2335	316,2924	0,012	86,558	0	1017,28	6,7	8,6	8,6	1	1	1	1	1	1	1	1	1	0	1	-6,342495	273,920233	312,869723	0
15.01.2021	21:42:04	0	0	3,728381	2,2005	311,5116	0,011	86,577	0	1017,34	6,7	8,7	8,6	1	1	1	1	1	1	1	1	1	0	1	-8,245243	274,053757	311,589838	0
15.01.2021	21:42:05	0	0	4,406268	2,12475	303,2496	0,015	86,583	0	1017,52	6,6	8,7	8,6	1	1	1	1	1	1	1	1	1	0	1	-4,933051	273,942422	314,382614	0
15.01.2021	21:42:06	0	0	4,293287	1,9785	314,0856	0,015	86,635	0	1017,4	6,7	8,7	8,6	1	1	1	1	1	1	1	1	1	0	1	-8,668076	274,064181	311,21567	0
15.01.2021	21:42:07	0	0	4,293287	1,86825	307,6884	0,008	86,563	0	1017,24	6,6	8,7	8,6	1	1	1	1	1	1	1	1	1	0	1	-10,852713	273,906931	308,297505	0
15.01.2021	21:42:08	0	0	4,180306	1,84125	301,752	0,016	86,568	0	1017,38	6,6	8,7	8,6	1	1	1	1	1	1	1	1	1	0	1	-4,369274	274,001721	315,222961	0
15.01.2021	21:42:09	0	0	4,632231	1,788	301,6044	0,012	86,579	0	1017,46	6,6	8,7	8,6	1	1	1	1	1	1	1	1	1	0	1	-7,751938	273,909886	311,412053	0
15.01.2021	21:42:10	0	0	3,389437	1,773	291,8772	0,01	86,559	0	1017,54	6,6	8,7	8,6	1	1	1	1	1	1	1	1	1	0	1	-7,610994	274,044826	312,1824	0
15.01.2021	21:42:11	0	0	4,632231	1,8645	314,4888	0,01	86,571	0	1017,54	6,7	8,7	8,6	1	1	1	1	1	1	1	1	1	0	1	-13,178295	273,954267	306,192603	0
15.01.2021	21:42:12	0	0	3,841362	1,944	306,8928	0,018	86,574	0	1017,44	6,6	8,6	8,6	1	1	1	1	1	1	1	1	1	0	1	-6,765328	273,909886	312,398664	0
15.01.2021	21:42:13	0	0	2,71155	2,02125	296,874	0,015	86,577	0	1017,56	6,7	8,7	8,6	1	1	1	1	1	1	1	1	1	0	1	-9,090909	273,969084	310,349085	0
15.01.2021	21:42:14	0	0	4,971145	2,145	301,5972	0,015	86,572	0	1017,42	6,6	8,7	8,7	1	1	1	1	1	1	1	1	1	0	1	-8,668076	274,07163	311,25045	0
15.01.2021	21:42:15	0	0	4,293287	2,2095	317,5272	0,013	86,565	0	1017,36	6,7	8,6	8,6	1	1	1	1	1	1	1	1	1	0	1	-10,359408	273,933543	308,914861	0
15.01.2021	21:42:16	0	0	2,824531	2,1885	308,9088	0,008	86,587	0	1017,56	6,6	8,7	8,6	1	1	1	1	1	1	1	1	1	0	1	-8,104299	273,948344	311,238978	0
15.01.2021	21:42:17	0	0	4,293287	2,151	316,728	0,012	86,584	0	1017,32	6,6	8,7	8,6	1	1	1	1	1	1	1	1	1	0	1	-7,610994	273,917276	311,587442	0
15.01.2021	21:42:18	0	0	2,71155	2,06625	312,912	0,015	86,574	0	1017,36	6,6	8,7	8,6	1	1	1	1	1	1	1	1	1	0	1	-7,329105	273,949825	312,021076	0
15.01.2021	21:42:19	0	0	3,389437	1,9395	312,5268	0,011	86,565	0	1017,36	6,7	8,7	8,6	1	1	1	1	1	1	1	1	1	0	1	-7,258633	273,911364	311,912246	0
15.01.2021	21:42:20	0	0	3,954344	1,8555	308,8476	0,012	86,584	0	1017,32	6,6	8,7	8,6	1	1	1	1	1	1	1	1	1	0	1	-7,047216	274,034413	312,697572	0
15.01.2021	21:42:21	0	0	3,389417	1,78275	302,4648	0,015	86,578	0	1017,52	6,7	8,7	8,7	1	1	1	1	1	1	1	1	1	0	1	-12,684989	274,093995	307,337974	0
15.01.2021	21:42:22	0	0	2,937512	1,7325	297,5256	0,017	86,591	0	1017,44	6,7	8,7	8,6	1	1	1	1	1	1	1	1	1	0	1	-9,795631	274,019546	309,879776	0
15.01.2021	21:42:23	0	0	4,293287	1,665	294,8724	0,018	86,586	0	1017,42	6,6	8,7	8,6	1	1	1	1	1	1	1	1	1	0	1	-5,285412	274,083555	314,688795	0
15.01.2021	21:42:24	0	0	2,485587	1,65225	291,9168	0,016	86,578	0	1017,54	6,6	8,7	8,6	1	1	1	1	1	1	1	1	1	0	1	-6,131078	274,037387	313,627594	0
15.01.2021	21:42:25	0	0	3,954344	1,72725	290,7072	0,013	86,571	0	1017,4	6,7	8,7	8,6	1	1	1	1	1	1	1	1	1	0	1	-7,329105	274,062691	312,547687	0
15.01.2021	21:42:26	0	0	3,389437	1,82625	300,1176	0,005	86,573	0	1017,38	6,7	8,7	8,6	1	1	1	1	1	1	1	1	1	0	1	-4,157858	274,059713	315,705028	0
15.01.2021	21:42:27	0	0	3,502419	1,97475	303,5556	0,013	86,571	0	1017,22	6,7	8,7	8,6	1	1	1	1	1	1	1	1	1	0	1	-5,003524	273,976497	314,471043	0
15.01.2021	21:42:28	0	0	3,6154	2,067	305,0496	0,017	86,591	0	1017,32	6,6	8,7	8,6	1	1	1	1	1	1	1	1	1	0	1	-6,412967	274,061202	313,456871	0
15.01.2021	21:42:29	0	0	2,824531	2,061	295,2108	0,015	86,585	0	1017,4	6,7	8,7	8,6	1	1	1	1	1	1	1	1	1	0	1	-8,879493	273,951305	310,477593	0
15.01.2021	21:42:30	0	0	2,372606	2,0325	307,1736	0,013	86,591	0	1017,6	6,6	8,7	8,6	1	1	1	1	1	1	1	1	1	0	1	-5,990134	273,937982	313,304831	0
15.01.2021	21:42:31	0	0	4,51925	1,92075	312,1524	0,014	86,578	0	1017,28	6,7	8,6	8,6	1	1	1	1	1	1	1	1	1	0	1	-9,302326	273,936503	309,98574	0
15.01.2021	21:42:32	0	0	4,745212	1,782	300,5136	0,011	86,588	0	1017,42	6,6	8,6	8,6	1	1	1	1	1	1	1	1	1	0	1	-8,597604	273,952786	310,766387	0
15.01.2021	21:42:33	0	0	3,728381	1,761	301,2804	0,017	86,599	0	1017,42	6,7	8,7	8,6	1	1	1	1	1	1	1	1	1	0	1	-9,090909	274,093995	310,932055	0
15.01.2021	21:42:34	0	0	3,728381	1,701	321,8796	0,014	86,587	0	1017,38	6,6	8,7	8,6	1	1	1	1	1	1	1	1	1	0	1	-7,117689	274,074611	312,814754	0
15.01.2021	21:42:35	0	0	4,632231	1,713	317,7792	0,009	86,584	0	1017,44	6,7	8,7	8,6	1	1	1	1	1	1	1	1	1	0	1	-7,329105	273,918754	311,876221	0
15.01.2021	21:42:36	0	0	2,485587	1,854	311,0796	0,014	86,589	0	1017,44	6,7	8,7	8,6	1	1	1	1	1	1	1	1	1	0	1	-7,963354	273,964638	311,455904	0
15.01.2021	21:42:37	0	0	2,824531	2,00475	313,1892	0,016	86,592	0	1017,58	6,7	8,7	8,6	1	1	1	1	1	1	1	1	1	0	1	-6,624383	273,902499	312,50518	0
15.01.2021	21:42:38	0	0	2,824531	2,07525	309,258	0,01	86,586	0	1017,28	6,7	8,7	8,6	1	1	1	1	1	1	1	1	1	0	1	-10,147992	273,977979	309,333492	0
15.01.2021	21:42:39	0	0	4,971175	2,01825	310,716	0,013	86,59	0	1017,4	6,7	8,7	8,6	1	1	1	1	1	1	1	1	1	0	1	-7,047216	274,046314	312,753124	0
15.01.2021	21:42:40	0	0	4,971175	1,8615	309,924	0,012	86,591	0	1017,52	6,6	8,7	8,6	1	1	1	1	1	1	1	1	1	0	1	-9,795631	273,911364	309,375248	0
15.01.2021	21:42:41	0	0	4,632231	1,8135	309,2796	0,016	86,592	0	1017,42	6,6	8,7	8,6	1	1	1	1	1	1	1	1	1	0	1	-8,80902	274,043338	310,977428	0
15.01.2021	21:42:42	0	0	2,824531	1,737	304,9488	0,017	86,598	0	1017,42	6,7	8,7	8,6	1	1	1	1	1	1	1	1	1	0	1	-7,610994	273,901022	311,511686	0
15.01.2021	21:42:43	0	0	4,180306	1,665	310,7124	0,016	86,598	0	1017,42	6,6	8,7	8,6	1	1	1	1	1	1	1	1	1	0	1	-7,470049	274,043338	312,316399	0
15.01.2021	21:42:44	0	0	2,033662	1,70025	312,8976	0,015	86,591	0	1017,48	6,7	8,7	8,6	1	1	1	1	1	1	1	1	1	0	1	-11,275546	274,037387	308,483126	0
15.01.2021	21:42:45	0	0	4,293287	1,7055	310,3632	0,015	86,595	0	1017,48	6,6	8,7	8,6	1	1	1	1	1	1	1	1	1	0	1	-5,778717	273,912842	313,39905	0
15.01.2021	21:42:46	0	0	2,824514	1,6875	314,4492	0,01	86,594	0	1017,46	6,7	8,7	8,7	1	1	1	1	1	1	1	1	1	0	1	-8,386187	273,972049	311,067634	0
15.01.2021	21:42:47	0	0	2,824531	1,65075	322,5924	0,008	86,59	0	1017,54	6,7	8,7	8,6	1	1	1	1	1	1	1	1	1	0	1	-11,205074	273,915798	307,986471	0
15.01.2021	21:42:48	0	0	4,745212	1,6035	313,2756	0,011	86,589	0	1017,34	6,6	8,7	8,6	1	1	1	1	1	1	1	1	1	0	1	-8,386187	273,96612	311,039982	0
15.01.2021	21:42:49	0	0	2,598569	1,57875	311,4108	0,012	86,604	0	1017,38	6,7	8,7	8,6	1	1	1	1	1	1	1	1	1	0	1	-3,523608	274,012117	316,117132	0
15.01.2021	21:42:50	0	0	3,389437	1,6005	315,9108	0,005	86,602	0	1017,46	6,7	8,7	8,6	1	1	1	1	1	1	1	1	1	0	1	-6,20155	273,906931	312,948668	0
15.01.2021	21:42:51	0	0	2,937512	1,67025	308,1024	0,013	86,599	0	1017,38	6,6	8,7	8,6	1	1	1	1	1	1	1	1	1	0	1	-4,933051	274,001721	314,659183	0
15.01.2021	21:42:52	0	0	2,485587	1,80075	291,9096	0,007	86,605	0	1017,34	6,6	8,7	8,6	1	1	1	1	1	1	1	1	1	0	1	-3,805497	274,096979	316,231403	0
15.01.2021	21:42:53	0	0	4,858193	1,83975	308,4516	0,012	86,603	0	1017,46	6,6	8,7	8,6	1	1	1	1	1	1	1	1	1	0	1	-6,342495	273,979462	313,145906	0
15.01.2021	21:42:54	0	0	3,276456	1,842	300,924	0,011	86,593	0	1017,44	6,7	8,7	8,6	1	1	1	1	1	1	1	1	1	0	1	-4,933051	273,905453	314,210281	0
15.01.2021	21:42:55	0	0	4,067325	1,9035	316,2816	0,009	86,599	0	1017,28	6,7	8,7	8,6	1	1	1	1	1	1	1	1	1	0	1	-9,372798	273,980945	310,122521	0
15.01.2021	21:42:56	0	0	3,6154	1,88325	311,4468	0,012	86,587	0	1017,46	6,7	8,7	8,6	1	1	1	1	1	1	1	1	1	0	1	-10,147992	273,903976	308,988456	0
15.01.2021	21:42:57	0	0	4,067325	1,81575	296,8992	0,009	86,595	0	1017,48	6,7	8,7	8,6	1	1	1	1	1	1	1	1	1	0	1	-11,557435	273,964638	307,861824	0
15.01.2021	21:42:58	0	0	2,598569	1,833	307,5804	0,016	86,607	0	1017,56	6,7	8,7	8,6	1	1	1	1	1	1	1	1	1	0	1	-7,892882	273,91432	311,291774	0
15.01.2021	21:42:59	0	0	3,841362	1,72875	309,51	0,008	86,605	0	1017,4	6,6	8,7	8,6	1	1	1	1	1	1	1	1	1	0	1	-4,157858	274,050779	315,663325	0
15.01.2021	21:43:00	0	0	2,598569	1,49175	304,6644	0,015	86,617	0	1017,52	6,7	8,7	8,6	1	1	1	1	1	1	1	1	1	0	1	-7,047216	274,098471	312,996652	0
15.01.2021	21:43:01	0	0	2,598569	1,49175	304,6644	0,015	86,617	0	1017,52	6,7	8,7	8,6	1	1	1	1	1	1	1	1	1	0	1	-6,342495	274,091012	313,666535	0
15.01.2021	21:43:02	0	0	3,502419	1,54725	298,9728	0,013	86,601	0	1017,5	6,6	8,7	8,6	1	1	1	1	1	1	1	1	1	0	1	-6,976744	274,058223	312,879189	0
15.01.2021	21:43:03	0	0	4,406268	1,5915	308,0592	0,008	86,6	0	1017,34	6,7	8,7	8,6	1	1	1	1	1	1	1	1	1	0	1	-8,174771	274,053757	311,66031	0
15.01.2021	21:43:04	0	0	3,841362	1,557	294,8832	0,013	86,61	0	1017,44	6,6	8,7	8,6	1	1	1	1	1	1	1	1	1	0	1	-7,329105	273,917276	311,86933	0
15.01.2021	21:43:05	0	0	3,276456	1,5285	296,82	0,016	86,593	0	1017,48	6,6	8,7	8,6	1	1	1	1	1	1	1	1	1	0	1	-5,637773	273,942422	313,677893	0
15.01.2021	21:43:06	0	0	4,971175	1,38675	312,1704	0,013	86,582	0	1017,42	6,6	8,7	8,6	1	1	1	1	1	1	1	1	1	0	1	-9,231853	274,053757	310,603228	0
15.01.2021	21:43:07	0	0	4,406268	1,2795	291,87	0,013	86,59	0	1017,44	6,6	8,7	8,6	1	1	1	1	1	1	1	1	1	0	1	-6,694856	274,082064	313,27239	0
15.01.2021	21:43:08	0	0	2,485587	1,34925	312,9912	0,014	86,607	0	1017,46	6,6	8,6	8,6	1	1	1	1	1	1	1	1	1	0	1	-9,936575	273,975014	309,531076	0
15.01.2021	21:43:09	0	0	3,728381	1,44675	319,2408	0,016	86,597	0	1017,36	6,6	8,7	8,6	1	1	1	1	1	1	1	1	1	0	1	-8,45666	273,91432	310,727996	0
15.01.2021	21:43:10	0	0	4,067325	1,437	318,4632	0,017	86,603	0	1017,48	6,6	8,7	8,6	1	1	1	1	1	1	1	1	1	0	1	-7,963354	274,053757	311,871727	0
15.01.2021	21:43:11	0	0	4,858193	1,46775	309,2364	0,011	86,608	0	1017,56	6,7	8,7	8,6	1	1	1	1	1	1	1	1	1	0	1	-5,84919	273,908408	313,307915	0
15.01.2021	21:43:12	0	0	4,406268	1,51575	316,692	0,012	86,595	0	1017,62	6,7	8,7	8,6	1	1	1	1	1	1	1	1	1	0	1	-4,721635	273,99133	314,822126	0
15.01.2021	21:43:13	0	0	3,163475	1,60875	303,8868	0,018	86,615	0	1017,42	6,6	8,7	8,6	1	1	1	1	1	1	1	1	1	0	1	-8,386187	273,918754	310,819139	0
15.01.2021	21:43:14	0	0	4,971175	1,779	308,0664	0,009	86,606	0	1017,3	6,7	8,7	8,6	1	1	1	1	1	1	1	1	1	0	1	-6,20155	273,964638	313,217708	0
15.01.2021	21:43:15	0	0	2,259625	1,89225	325,2204	0,013	86,624	0	1017,42	6,7	8,7	8,6	1	1	1	1	1	1	1	1	1	0	1	-6,272023	274,08952	313,730042	0
15.01.2021	21:43:16	0	0	3,728381	1,9185	316,5912	0,009	86,605	0	1017,5	6,8	8,6	8,6	1	1	1	1	1	1	1	1	1	0	1	-7,963354	273,975014	311,504297	0
15.01.2021	21:43:17	0	0	2,485587	2,00925	315,18	0,015	86,616	0	1017,52	6,7	8,7	8,6	1	1	1	1	1	1	1	1	1	0	1	-5,144468	274,077591	314,801894	0
15.01.2021	21:43:18	0	0	3,728381	2,12025	314,946	0,009	86,617	0	1017,42	6,7	8,7	8,6	1	1	1	1	1	1	1	1	1	0	1	-5,990134	273,921711	313,228976	0
15.01.2021	21:43:19	0	0	2,372606	2,274	308,448	0,014	86,604	0	1017,4	6,6	8,7	8,6	1	1	1	1	1	1	1	1	1	0	1	-9,795631	273,943903	309,526937	0
15.01.2021	21:43:20	0	0	4,067325	2,18475	302,4576	0,01	86,613	0	1017,42	6,7	8,7	8,6	1	1	1	1	1	1	1	1	1	0	1	-8,386187	273,920233	310,82603	0
15.01.2021	21:43:21	0	0	4,858193	2,08275	296,8452	0,009	86,61	0	1017,4	6,7	8,7	8,6	1	1	1	1	1	1	1	1	1	0	1	-11,557435	274,053757	308,277646	0
15.01.2021	21:43:22	0	0	2,485587	1,983	293,742	0,013	86,589	0	1017,48	6,6	8,7	8,6	1	1	1	1	1	1	1	1	1	0	1	-6,694856	274,053757	313,140226	0
15.01.2021	21:43:23	0	0	2,937512	1,86825	292,3128	0,013	86,618	0	1017,46	6,6	8,7	8,6	1	1	1	1	1	1	1	1	1	0	1	-5,567301	273,96612	313,858869	0
15.01.2021	21:43:24	0	0	3,502419	1,78425	310,2624	0,013	86,62	0	1017,62	6,7	8,7	8,6	1	1	1	1	1	1	1	1	1	0	1	-6,553911	274,102948	313,510869	0
15.01.2021	21:43:25	0	0	3,502419	1,64025	315,5112	0,008	86,589	0	1017,48	6,7	8,7	8,6	1	1	1	1	1	1	1	1	1	0	1	-4,862579	274,006175	314,75044	0
15.01.2021	21:43:26	0	0	4,632231	1,55325	322,8804	0,009	86,608	0	1017,42	6,7	8,7	8,6	1	1	1	1	1	1	1	1	1	0	1	-7,047216	274,098471	312,996652	0
15.01.2021	21:43:27	0	0	4,180306	1,518	306,4356	0,01	86,625	0	1017,36	6,7	8,7	8,6	1	1	1	1	1	1	1	1	1	0	1	-7,470049	273,99133	312,073711	0
15.01.2021	21:43:28	0	0	4,858193	1,46475	304,6824	0,013	86,628	0	1017,46	6,7	8,7	8,6	1	1	1	1	1	1	1	1	1	0	1	-5,073996	274,096979	314,962904	0
15.01.2021	21:43:29	0	0	3,389437	1,47225	309,564	0,014	86,609	0	1017,34	6,7	8,7	8,6	1	1	1	1	1	1	1	1	1	0	1	-10,359408	274,037387	309,399264	0
15.01.2021	21:43:30	0	0	4,067325	1,49325	297,5652	0,009	86,607	0	1017,5	6,7	8,7	8,6	1	1	1	1	1	1	1	1	1	0	1	-8,949965	273,932064	310,317407	0
15.01.2021	21:43:31	0	0	4,51925	1,602	287,046	0,013	86,609	0	1017,56	6,7	8,7	8,6	1	1	1	1	1	1	1	1	1	0	1	-7,82241	273,975014	311,645241	0
15.01.2021	21:43:32	0	0	3,841362	1,66725	294,4044	0,013	86,608	0	1017,42	6,7	8,7	8,6	1	1	1	1	1	1	1	1	1	0	1	-5,496829	273,924668	313,736067	0
15.01.2021	21:43:33	0	0	3,163475	1,686	308,43	0,012	86,618	0	1017,6	6,8	8,7	8,6	1	1	1	1	1	1	1	1	1	0	1	-4,862579	273,930585	314,397896	0
15.01.2021	21:43:34	0	0	3,6154	1,74525	304,2252	0,012	86,612	0	1017,46	6,6	8,7	8,6	1	1	1	1	1	1	1	1	1	0	1	-6,624383	274,013602	313,023289	0
15.01.2021	21:43:35	0	0	4,067325	1,728	312,4728	0,009	86,604	0	1017,44	6,8	8,6	8,6	1	1	1	1	1	1	1	1	1	0	1	-5,919662	273,920233	313,292556	0
15.01.2021	21:43:36	0	0	4,180306	1,6785	301,6008	0,011	86,601	0	1017,42	6,7	8,7	8,6	1	1	1	1	1	1	1	1	1	0	1	-8,738548	274,024005	310,957666	0
15.01.2021	21:43:37	0	0	3,502419	1,68075	305,7336	0,013	86,62	0	1017,68	6,6	8,7	8,6	1	1	1	1	1	1	1	1	1	0	1	-4,087385	273,906931	315,062833	0
15.01.2021	21:43:38	0	0	4,858193	1,7205	302,8572	0,008	86,6	0	1017,38	6,7	8,7	8,6	1	1	1	1	1	1	1	1	1	0	1	-7,047216	274,022518	312,642062	0
15.01.2021	21:43:39	0	0	3,389437	1,7715	299,7504	0,008	86,608	0	1017,38	6,6	8,7	8,6	1	1	1	1	1	1	1	1	1	0	1	-7,399577	274,07312	312,525907	0
15.01.2021	21:43:40	0	0	3,276456	1,8075	298,6848	0,014	86,59	0	1017,36	6,6	8,7	8,6	1	1	1	1	1	1	1	1	1	0	1	-7,82241	273,92319	311,403592	0
15.01.2021	21:43:41	0	0	2,824531	1,80375	312,4512	0,012	86,612	0	1017,5	6,8	8,7	8,6	1	1	1	1	1	1	1	1	1	0	1	-11,41649	274,047803	308,390797	0
15.01.2021	21:43:42	0	0	4,067325	1,80675	307,566	0,014	86,604	0	1017,58	6,7	8,6	8,6	1	1	1	1	1	1	1	1	1	0	1	-6,131078	273,948344	313,212198	0
15.01.2021	21:43:43	0	0	4,745212	1,87575	309,5712	0,014	86,614	0	1017,4	6,7	8,7	8,6	1	1	1	1	1	1	1	1	1	0	1	-8,386187	274,06567	311,504513	0
15.01.2021	21:43:44	0	0	4,293287	1,92375	305,7552	0,008	86,595	0	1017,36	6,7	8,7	8,6	1	1	1	1	1	1	1	1	1	0	1	-11,909796	274,096979	308,127104	0
15.01.2021	21:43:45	0	0	2,485587	2,01375	315,8856	0,014	86,605	0	1017,42	6,7	8,7	8,6	1	1	1	1	1	1	1	1	1	0	1	-8,315715	273,939462	310,986149	0
15.01.2021	21:43:46	0	0	2,824531	2,10825	313,218	0,008	86,597	0	1017,34	6,6	8,7	8,6	1	1	1	1	1	1	1	1	1	0	1	-11,275546	273,906931	307,874672	0
15.01.2021	21:43:47	0	0	3,954344	2,058	323,658	0,009	86,605	0	1017,58	6,6	8,7	8,6	1	1	1	1	1	1	1	1	1	0	1	-10,359408	273,937982	308,935557	0
15.01.2021	21:43:48	0	0	2,71155	2,03325	318,8088	0,011	86,615	0	1017,38	6,7	8,7	8,6	1	1	1	1	1	1	1	1	1	0	1	-6,272023	273,939462	313,029842	0
15.01.2021	21:43:49	0	0	3,728381	2,06775	325,1304	0,009	86,598	0	1017,38	6,6	8,7	8,6	1	1	1	1	1	1	1	1	1	0	1	-5,778717	273,911364	313,392161	0
15.01.2021	21:43:50	0	0	2,937512	2,04675	320,0868	0,012	86,607	0	1017,4	6,7	8,7	8,6	1	1	1	1	1	1	1	1	1	0	1	-2,114165	274,016574	317,547374	0
15.01.2021	21:43:51	0	0	2,598569	2,013	322,5888	0,009	86,615	0	1017,3	6,7	8,7	8,6	1	1	1	1	1	1	1	1	1	0	1	-8,315715	273,902499	310,813848	0
15.01.2021	21:43:52	0	0	4,51925	2,02125	325,1088	0,012	86,607	0	1017,5	6,6	8,7	8,6	1	1	1	1	1	1	1	1	1	0	1	-10,288936	273,986879	309,23406	0
15.01.2021	21:43:53	0	0	3,841362	1,9635	326,6676	0,016	86,602	0	1017,3	6,6	8,7	8,6	1	1	1	1	1	1	1	1	1	0	1	-9,231853	274,091012	310,777177	0
15.01.2021	21:43:54	0	0	4,067325	1,84725	333,4248	0,015	86,61	0	1017,5	6,7	8,7	8,6	1	1	1	1	1	1	1	1	1	0	1	-4,369274	273,977979	315,112209	0
15.01.2021	21:43:55	0	0	4,745212	1,68675	333,4428	0,005	86,61	0	1017,46	6,6	8,7	8,6	1	1	1	1	1	1	1	1	1	0	1	-8,245243	273,91432	310,939413	0
15.01.2021	21:43:56	0	0	4,858193	1,587	330,0336	0,011	86,611	0	1017,38	6,6	8,6	8,6	1	1	1	1	1	1	1	1	1	0	1	-10,782241	273,970566	308,664666	0
15.01.2021	21:43:57	0	0	2,598569	1,57875	332,4384	0,007	86,601	0	1017,5	6,8	8,7	8,6	1	1	1	1	1	1	1	1	1	0	1	-7,82241	273,901022	311,300269	0
15.01.2021	21:43:58	0	0	5,310118	1,59375	327,7476	0,011	86,616	0	1017,4	6,6	8,7	8,6	1	1	1	1	1	1	1	1	1	0	1	-11,134602	273,958711	308,257018	0
15.01.2021	21:43:59	0	0	2,485587	1,614	328,5108	0,012	86,616	0	1017,5	6,6	8,6	8,6	1	1	1	1	1	1	1	1	1	0	1	-11,275546	274,085046	308,705625	0
15.01.2021	21:44:00	0	0	4,971175	1,64325	328,1904	0,013	86,62	0	1017,48	6,6	8,7	8,6	1	1	1	1	1	1	1	1	1	0	1	-5,073996	273,955749	314,303808	0
15.01.2021	21:44:01	0	0	2,259625	1,65675	330,1308	0,009	86,613	0	1017,3	6,7	8,7	8,6	1	1	1	1	1	1	1	1	1	0	1	-10,007047	274,077591	309,939314	0
15.01.2021	21:44:02	0	0	3,954344	1,7625	329,3712	0,01	86,629	0	1017,48	6,6	8,7	8,6	1	1	1	1	1	1	1	1	1	0	1	-4,298802	274,086537	315,689333	0
15.01.2021	21:44:03	0	0	4,067325	1,76325	335,7252	0,009	86,623	0	1017,54	6,7	8,6	8,6	1	1	1	1	1	1	1	1	1	0	1	-7,751938	273,933543	311,522331	0
15.01.2021	21:44:04	0	0	2,598569	1,89	339,174	0,011	86,629	0	1017,5	6,7	8,7	8,6	1	1	1	1	1	1	1	1	1	0	1	-4,087385	274,015088	315,56722	0
15.01.2021	21:44:05	0	0	4,406268	1,908	323,2692	0,006	86,622	0	1017,5	6,6	8,7	8,6	1	1	1	1	1	1	1	1	1	0	1	-3,946441	274,092503	316,069555	0
15.01.2021	21:44:06	0	0	2,598569	1,73925	315,8604	0,005	86,617	0	1017,52	6,7	8,6	8,6	1	1	1	1	1	1	1	1	1	0	1	-8,668076	274,031438	311,062831	0
15.01.2021	21:44:07	0	0	4,51925	1,662	316,638	0,011	86,603	0	1017,46	6,6	8,7	8,6	1	1	1	1	1	1	1	1	1	0	1	-9,654686	274,049291	310,159548	0
15.01.2021	21:44:08	0	0	2,71155	1,61325	315,198	0,012	86,621	0	1017,32	6,7	8,7	8,6	1	1	1	1	1	1	1	1	1	0	1	-5,496829	273,905453	313,646504	0
15.01.2021	21:44:09	0	0	4,406268	1,65375	313,5708	0,024	86,643	0	1017,44	6,7	8,7	8,6	1	1	1	1	1	1	1	1	1	0	1	-4,087385	273,983912	315,42177	0
15.01.2021	21:44:10	0	0	2,824531	1,7505	312,8004	0,009	86,635	0	1017,48	6,7	8,7	8,6	1	1	1	1	1	1	1	1	1	0	1	-5,21494	273,906931	313,935278	0
15.01.2021	21:44:11	0	0	3,389437	1,92675	309,2292	0,01	86,623	0	1017,58	6,6	8,7	8,6	1	1	1	1	1	1	1	1	1	0	1	-4,087385	274,019546	315,588021	0
15.01.2021	21:44:12	0	0	3,841362	2,03625	321,8832	0,01	86,641	0	1017,42	6,6	8,7	8,6	1	1	1	1	1	1	1	1	1	0	1	-7,82241	274,077591	312,123951	0
15.01.2021	21:44:13	0	0	2,71155	2,1315	309,9348	0,005	86,62	0	1017,46	6,6	8,7	8,6	1	1	1	1	1	1	1	1	1	0	1	-8,668076	274,074611	311,264366	0
15.01.2021	21:44:14	0	0	2,824531	2,2125	333,486	0,005	86,635	0	1017,34	6,7	8,7	8,6	1	1	1	1	1	1	1	1	1	0	1	-7,540521	273,960193	311,858007	0
15.01.2021	21:44:15	0	0	2,485587	2,15025	330,0336	0,012	86,641	0	1017,54	6,6	8,7	8,6	1	1	1	1	1	1	1	1	1	0	1	-5,426357	274,074611	314,506086	0
15.01.2021	21:44:16	0	0	4,745212	2,079	332,4096	0,009	86,63	0	1017,42	6,7	8,7	8,6	1	1	1	1	1	1	1	1	1	0	1	-4,439746	273,946863	314,896626	0
15.01.2021	21:44:17	0	0	3,6154	2,03025	333,0828	0,012	86,639	0	1017,44	6,6	8,7	8,6	1	1	1	1	1	1	1	1	1	0	1	-6,906272	274,095487	313,123659	0
15.01.2021	21:44:18	0	0	4,632231	2,03925	334,2636	0,006	86,639	0	1017,34	6,6	8,7	8,6	1	1	1	1	1	1	1	1	1	0	1	-8,104299	273,972049	311,349523	0
15.01.2021	21:44:19	0	0	4,632231	2,073	340,5852	0,006	86,632	0	1017,46	6,8	8,7	8,6	1	1	1	1	1	1	1	1	1	0	1	-11,980268	273,946863	307,356105	0
15.01.2021	21:44:20	0	0	4,745184	2,094	334,9872	0,01	86,648	0	1017,46	6,7	8,7	8,7	1	1	1	1	1	1	1	1	1	0	1	-4,721635	274,025491	314,981517	0
15.01.2021	21:44:21	0	0	3,276456	1,99875	338,8392	0,005	86,639	0	1017,32	6,7	8,6	8,6	1	1	1	1	1	1	1	1	1	0	1	-6,8358	273,929105	312,41778	0
15.01.2021	21:44:22	0	0	3,163475	1,85025	334,9368	0,01	86,616	0	1017,44	6,7	8,7	8,6	1	1	1	1	1	1	1	1	1	0	1	-10,993658	274,028464	308,72337	0
15.01.2021	21:44:23	0	0	4,067325	1,69275	338,742	0,007	86,628	0	1017,3	6,6	8,6	8,6	1	1	1	1	1	1	1	1	1	0	1	-8,386187	274,050779	311,434995	0
15.01.2021	21:44:24	0	0	2,485587	1,656	328,9464	0,006	86,642	0	1017,36	6,6	8,7	8,6	1	1	1	1	1	1	1	1	1	0	1	-10,711769	274,082064	309,255476	0
15.01.2021	21:44:25	0	0	2,824531	1,55625	325,548	0,011	86,642	0	1017,28	6,7	8,6	8,6	1	1	1	1	1	1	1	1	1	0	1	-11,06413	274,00766	308,555819	0
15.01.2021	21:44:26	0	0	3,728381	1,46625	324,7416	0,014	86,655	0	1017,42	6,7	8,6	8,6	1	1	1	1	1	1	1	1	1	0	1	-7,751938	274,092503	312,264059	0
15.01.2021	21:44:27	0	0	4,632231	1,38225	330,7392	0,003	86,638	0	1017,42	6,7	8,7	8,6	1	1	1	1	1	1	1	1	1	0	1	-12,544045	273,951305	306,81304	0
15.01.2021	21:44:28	0	0	4,406268	1,3755	329,6808	0,016	86,647	0	1017,4	6,7	8,7	8,6	1	1	1	1	1	1	1	1	1	0	1	-7,82241	274,080573	312,137873	0
15.01.2021	21:44:29	0	0	4,971175	1,4775	313,1712	0,01	86,648	0	1017,38	6,7	8,6	8,6	1	1	1	1	1	1	1	1	1	0	1	-11,909796	273,986879	307,6132	0
15.01.2021	21:44:30	0	0	4,745212	1,6395	332,0964	0,014	86,647	0	1017,52	6,6	8,7	8,6	1	1	1	1	1	1	1	1	1	0	1	-8,80902	274,076101	311,130381	0
15.01.2021	21:44:31	0	0	3,841362	1,7655	330,0048	0,012	86,647	0	1017,44	6,6	8,7	8,6	1	1	1	1	1	1	1	1	1	0	1	-6,483439	274,0359	313,268291	0
15.01.2021	21:44:32	0	0	2,824531	1,776	334,6416	0,003	86,653	0	1017,56	6,7	8,7	8,6	1	1	1	1	1	1	1	1	1	0	1	-8,738548	273,911364	310,432331	0
15.01.2021	21:44:33	0	0	4,067325	1,72725	334,656	0,011	86,646	0	1017,44	6,6	8,7	8,6	1	1	1	1	1	1	1	1	1	0	1	-8,174771	273,970566	311,272137	0
15.01.2021	21:44:34	0	0	4,858193	1,68825	323,6472	0,012	86,659	0	1017,5	6,8	8,7	8,6	1	1	1	1	1	1	1	1	1	0	1	-9,795631	273,912842	309,382136	0
15.01.2021	21:44:35	0	0	3,502419	1,617	332,8776	0,014	86,647	0	1017,34	6,7	8,7	8,6	1	1	1	1	1	1	1	1	1	0	1	-4,087385	274,04185	315,692118	0
15.01.2021	21:44:36	0	0	5,197137	1,626	324,0828	0,009	86,639	0	1017,36	6,6	8,7	8,6	1	1	1	1	1	1	1	1	1	0	1	-10,923185	274,047803	308,884102	0
15.01.2021	21:44:37	0	0	2,824531	1,8165	335,9988	0,01	86,653	0	1017,44	6,6	8,7	8,6	1	1	1	1	1	1	1	1	1	0	1	-9,020437	273,936503	310,267629	0
15.01.2021	21:44:38	0	0	3,276456	1,9965	336,3084	0,013	86,668	0	1017,54	6,6	8,6	8,6	1	1	1	1	1	1	1	1	1	0	1	-8,949965	273,943903	310,372603	0
15.01.2021	21:44:39	0	0	5,310118	2,1735	342,666	0,009	86,65	0	1017,34	6,8	8,7	8,6	1	1	1	1	1	1	1	1	1	0	1	-5,778717	273,896591	313,323315	0
15.01.2021	21:44:40	0	0	3,841362	2,26425	332,8524	0,012	86,647	0	1017,26	6,7	8,6	8,6	1	1	1	1	1	1	1	1	1	0	1	-12,403101	273,973531	307,057635	0
15.01.2021	21:44:41	0	0	4,406268	2,3895	335,7144	0,013	86,652	0	1017,46	6,6	8,7	8,6	1	1	1	1	1	1	1	1	1	0	1	-6,412967	274,062691	313,463825	0
15.01.2021	21:44:42	0	0	3,389437	2,50575	333,9252	0,009	86,655	0	1017,48	6,7	8,7	8,6	1	1	1	1	1	1	1	1	1	0	1	-9,44327	273,902499	309,686293	0
15.01.2021	21:44:43	0	0	4,067325	2,47875	333,828	0,009	86,653	0	1017,6	6,6	8,7	8,6	1	1	1	1	1	1	1	1	1	0	1	-8,738548	274,031438	310,992359	0
15.01.2021	21:44:44	0	0	3,6154	2,271	312,48	0,006	86,647	0	1017,28	6,7	8,7	8,6	1	1	1	1	1	1	1	1	1	0	1	-4,580691	274,077591	315,365671	0
15.01.2021	21:44:45	0	0	4,406268	2,22525	330,4368	0,008	86,673	0	1017,4	6,6	8,7	8,6	1	1	1	1	1	1	1	1	1	0	1	-5,778717	274,059713	314,084168	0
15.01.2021	21:44:46	0	0	3,841362	2,238	315,8316	0,01	86,666	0	1017,36	6,7	8,7	8,6	1	1	1	1	1	1	1	1	1	0	1	-5,84919	273,951305	313,507896	0
15.01.2021	21:44:47	0	0	4,632231	2,23275	323,3376	0,01	86,657	0	1017,44	6,6	8,7	8,6	1	1	1	1	1	1	1	1	1	0	1	-3,805497	274,074611	316,126946	0
15.01.2021	21:44:48	0	0	4,067325	2,085	307,5732	0,012	86,668	0	1017,4	6,6	8,7	8,6	1	1	1	1	1	1	1	1	1	0	1	-11,275546	274,076101	308,663855	0
15.01.2021	21:44:49	0	0	4,406268	2,04825	314,4492	0,014	86,656	0	1017,5	6,7	8,7	8,6	1	1	1	1	1	1	1	1	1	0	1	-5,496829	274,025491	314,206323	0
15.01.2021	21:44:50	0	0	4,067325	1,98225	315,2052	0,014	86,667	0	1017,42	6,6	8,7	8,6	1	1	1	1	1	1	1	1	1	0	1	-8,315715	273,902499	310,813848	0
15.01.2021	21:44:51	0	0	4,971175	1,98225	314,8668	0,012	86,661	0	1017,4	6,7	8,7	8,6	1	1	1	1	1	1	1	1	1	0	1	-8,879493	273,958711	310,512127	0
15.01.2021	21:44:52	0	0	4,293287	1,965	305,0028	0,01	86,657	0	1017,44	6,7	8,7	8,6	1	1	1	1	1	1	1	1	1	0	1	-13,812544	274,06716	306,085112	0
15.01.2021	21:44:53	0	0	3,6154	1,94775	304,614	0,009	86,651	0	1017,46	6,6	8,7	8,6	1	1	1	1	1	1	1	1	1	0	1	-7,399577	274,085046	312,581594	0
15.01.2021	21:44:54	0	0	2,937512	1,8735	302,076	0,009	86,663	0	1017,36	6,7	8,7	8,6	1	1	1	1	1	1	1	1	1	0	1	-5,637773	273,924668	313,595123	0
15.01.2021	21:44:55	0	0	3,954344	1,95375	306,1188	0,015	86,656	0	1017,7	6,6	8,7	8,6	1	1	1	1	1	1	1	1	1	0	1	-6,976744	273,95723	312,407967	0
15.01.2021	21:44:56	0	0	3,841362	2,01675	292,9932	0,014	86,66	0	1017,42	6,6	8,6	8,6	1	1	1	1	1	1	1	1	1	0	1	-5,496829	274,053757	314,338252	0
15.01.2021	21:44:57	0	0	4,858193	2,02425	300,9096	0,009	86,66	0	1017,36	6,7	8,7	8,6	1	1	1	1	1	1	1	1	1	0	1	-7,258633	274,080573	312,70165	0
15.01.2021	21:44:58	0	0	4,067325	1,91325	309,6396	0,013	86,67	0	1017,32	6,6	8,6	8,6	1	1	1	1	1	1	1	1	1	0	1	-11,768851	274,00469	307,837239	0
15.01.2021	21:44:59	0	0	4,067325	1,7805	323,01	0,009	86,666	0	1017,5	6,7	8,7	8,6	1	1	1	1	1	1	1	1	1	0	1	-10,077519	274,086537	309,910615	0
15.01.2021	21:45:00	0	0	2,937512	1,7085	309,2508	0,007	86,671	0	1017,38	6,6	8,7	8,6	1	1	1	1	1	1	1	1	1	0	1	-9,231853	274,096979	310,805046	0
15.01.2021	21:45:01	0	0	4,293287	1,77375	310,3596	0,01	86,662	0	1017,5	6,6	8,7	8,6	1	1	1	1	1	1	1	1	1	0	1	-4,298802	273,997267	315,272654	0
15.01.2021	21:45:02	0	0	3,728381	1,88175	314,0712	0,015	86,676	0	1017,46	6,6	8,7	8,6	1	1	1	1	1	1	1	1	1	0	1	-6,483439	273,906931	312,666779	0
15.01.2021	21:45:03	0	0	4,632231	1,99125	317,394	0,012	86,675	0	1017,38	6,6	8,7	8,6	1	1	1	1	1	1	1	1	1	0	1	-6,8358	274,04185	312,943703	0
15.01.2021	21:45:04	0	0	2,598569	1,99425	315,6156	0,013	86,674	0	1017,48	6,7	8,7	8,6	1	1	1	1	1	1	1	1	1	0	1	-10,218464	273,896591	308,883568	0
15.01.2021	21:45:05	0	0	2,824531	1,977	316,692	0,011	86,685	0	1017,48	6,7	8,6	8,6	1	1	1	1	1	1	1	1	1	0	1	-1,127555	273,972049	318,326267	0
15.01.2021	21:45:06	0	0	3,163475	1,9695	315,504	0,013	86,68	0	1017,46	6,6	8,7	8,6	1	1	1	1	1	1	1	1	1	0	1	-8,80902	273,933543	310,465249	0
15.01.2021	21:45:07	0	0	3,389437	1,95675	315,2664	0,006	86,682	0	1017,44	6,7	8,7	8,6	1	1	1	1	1	1	1	1	1	0	1	-9,020437	274,025491	310,682715	0
15.01.2021	21:45:08	0	0	3,954344	1,91775	310,3956	0,013	86,671	0	1017,44	6,6	8,7	8,6	1	1	1	1	1	1	1	1	1	0	1	-5,708245	273,945383	313,621225	0
15.01.2021	21:45:09	0	0	2,71155	1,95525	310,2264	0,008	86,683	0	1017,5	6,7	8,7	8,6	1	1	1	1	1	1	1	1	1	0	1	-5,778717	273,899545	313,337079	0
15.01.2021	21:45:10	0	0	4,632231	1,926	305,0496	0,004	86,67	0	1017,42	6,8	8,7	8,6	1	1	1	1	1	1	1	1	1	0	1	-5,919662	274,038875	313,845954	0
15.01.2021	21:45:11	0	0	3,728381	1,94325	308,4768	0,01	86,681	0	1017,42	6,7	8,7	8,6	1	1	1	1	1	1	1	1	1	0	1	-6,20155	274,07014	313,710018	0
15.01.2021	21:45:12	0	0	2,485587	1,91025	308,4552	0,01	86,683	0	1017,5	6,7	8,7	8,6	1	1	1	1	1	1	1	1	1	0	1	-7,399577	273,908408	311,757527	0
15.01.2021	21:45:13	0	0	4,51925	1,83225	303,2568	0,006	86,681	0	1017,36	6,7	8,7	8,6	1	1	1	1	1	1	1	1	1	0	1	-8,80902	273,967602	310,624061	0
15.01.2021	21:45:14	0	0	2,71155	1,77075	313,2504	0,008	86,666	0	1017,26	6,7	8,7	8,6	1	1	1	1	1	1	1	1	1	0	1	-7,258633	273,942422	312,057033	0
15.01.2021	21:45:15	0	0	2,71155	1,77375	319,5684	0,008	86,69	0	1017,46	6,8	8,7	8,6	1	1	1	1	1	1	1	1	1	0	1	-11,909796	273,921711	307,309314	0
15.01.2021	21:45:16	0	0	3,728381	1,7685	312,2244	0,003	86,683	0	1017,46	6,6	8,6	8,6	1	1	1	1	1	1	1	1	1	0	1	-9,584214	274,040363	310,188345	0
15.01.2021	21:45:17	0	0	3,954344	1,75875	319,5828	0,013	86,676	0	1017,26	6,7	8,7	8,6	1	1	1	1	1	1	1	1	1	0	1	-3,24172	274,082064	316,725526	0
15.01.2021	21:45:18	0	0	3,728381	1,72725	315,9288	0,014	86,679	0	1017,38	6,6	8,7	8,6	1	1	1	1	1	1	1	1	1	0	1	-9,584214	274,050779	310,236968	0
15.01.2021	21:45:19	0	0	3,163475	1,71825	314,0784	0,014	86,676	0	1017,5	6,7	8,7	8,6	1	1	1	1	1	1	1	1	1	0	1	-5,073996	273,91432	314,11066	0
15.01.2021	21:45:20	0	0	4,406268	1,7355	320,3352	0,008	86,674	0	1017,42	6,7	8,7	8,6	1	1	1	1	1	1	1	1	1	0	1	-5,21494	273,929105	314,038639	0
15.01.2021	21:45:21	0	0	3,389437	1,79175	312,5556	0,005	86,664	0	1017,36	6,7	8,7	8,6	1	1	1	1	1	1	1	1	1	0	1	-9,725159	274,059713	310,137727	0
15.01.2021	21:45:22	0	0	4,406268	1,8345	315,954	0,009	86,69	0	1017,8	6,6	8,6	8,6	1	1	1	1	1	1	1	1	1	0	1	-11,06413	273,930585	308,196346	0
15.01.2021	21:45:23	0	0	3,954344	1,881	313,1712	0,014	86,673	0	1017,46	6,6	8,7	8,6	1	1	1	1	1	1	1	1	1	0	1	-7,610994	274,083555	312,363214	0
15.01.2021	21:45:24	0	0	4,745212	1,83375	312,8076	0,008	86,676	0	1017,38	6,7	8,7	8,6	1	1	1	1	1	1	1	1	1	0	1	-4,298802	274,000236	315,286506	0
15.01.2021	21:45:25	0	0	2,598569	1,8375	311,1552	0,009	86,673	0	1017,56	6,6	8,7	8,6	1	1	1	1	1	1	1	1	1	0	1	-5,285412	274,040363	314,487147	0
15.01.2021	21:45:26	0	0	4,51925	1,80375	312,2172	0,009	86,669	0	1017,42	6,7	8,7	8,6	1	1	1	1	1	1	1	1	1	0	1	-9,936575	273,892162	309,144815	0
15.01.2021	21:45:27	0	0	4,180306	1,788	303,7716	0,008	86,674	0	1017,58	6,6	8,6	8,6	1	1	1	1	1	1	1	1	1	0	1	-4,792107	274,076101	315,147294	0
15.01.2021	21:45:28	0	0	2,824531	1,76625	308,7612	0,015	86,673	0	1017,34	6,6	8,7	8,6	1	1	1	1	1	1	1	1	1	0	1	-12,05074	273,963156	307,361608	0
15.01.2021	21:45:29	0	0	4,51925	1,848	304,9704	0,013	86,678	0	1017,68	6,7	8,7	8,6	1	1	1	1	1	1	1	1	1	0	1	-9,44327	274,077591	310,503092	0
15.01.2021	21:45:30	0	0	4,632231	1,86525	312,1056	0,011	86,665	0	1017,34	6,8	8,7	8,6	1	1	1	1	1	1	1	1	1	0	1	-6,342495	274,021032	313,339847	0
15.01.2021	21:45:31	0	0	2,71155	1,84275	308,1024	0,014	86,67	0	1017,46	6,6	8,7	8,6	1	1	1	1	1	1	1	1	1	0	1	-9,725159	273,899545	309,390638	0
15.01.2021	21:45:32	0	0	4,745212	1,85025	308,0916	0,007	86,669	0	1017,42	6,7	8,7	8,6	1	1	1	1	1	1	1	1	1	0	1	-7,047216	274,003205	312,551946	0
15.01.2021	21:45:33	0	0	4,293287	1,88925	307,5012	0,015	86,658	0	1017,54	6,7	8,7	8,6	1	1	1	1	1	1	1	1	1	0	1	-4,651163	274,07312	315,274321	0
15.01.2021	21:45:34	0	0	4,067325	1,9515	312,1272	0,008	86,667	0	1017,5	6,7	8,7	8,6	1	1	1	1	1	1	1	1	1	0	1	-14,517266	273,983912	304,99189	0
15.01.2021	21:45:35	0	0	4,067325	1,965	304,5708	0,01	86,671	0	1017,4	6,6	8,6	8,6	1	1	1	1	1	1	1	1	1	0	1	-10,782241	274,077591	309,164121	0
15.01.2021	21:45:36	0	0	4,745212	1,91025	308,538	0,008	86,653	0	1017,54	6,7	8,7	8,6	1	1	1	1	1	1	1	1	1	0	1	-9,513742	273,952786	309,850249	0
15.01.2021	21:45:37	0	0	4,745212	1,85325	304,2648	0,015	86,68	0	1017,42	6,7	8,7	8,6	1	1	1	1	1	1	1	1	1	0	1	-4,862579	274,050779	314,958603	0
15.01.2021	21:45:38	0	0	4,067325	1,80075	307,1916	0,012	86,654	0	1017,5	6,6	8,7	8,6	1	1	1	1	1	1	1	1	1	0	1	-5,355884	274,062691	314,520907	0
15.01.2021	21:45:39	0	0	4,293287	1,7295	310,2228	0,01	86,667	0	1017,42	6,7	8,7	8,6	1	1	1	1	1	1	1	1	1	0	1	-8,527132	274,016574	311,134407	0
15.01.2021	21:45:40	0	0	3,276456	1,62225	294,7104	0,013	86,661	0	1017,36	6,7	8,6	8,6	1	1	1	1	1	1	1	1	1	0	1	-11,698379	273,940942	307,610386	0
15.01.2021	21:45:41	0	0	3,6154	1,57575	293,3712	0,009	86,664	0	1017,4	6,7	8,7	8,6	1	1	1	1	1	1	1	1	1	0	1	-9,725159	273,915798	309,466387	0
15.01.2021	21:45:42	0	0	5,084156	1,63125	303,174	0,01	86,671	0	1017,52	6,8	8,7	8,6	1	1	1	1	1	1	1	1	1	0	1	-6,906272	274,01806	312,7622	0
15.01.2021	21:45:43	0	0	4,971175	1,61325	310,6584	0,013	86,654	0	1017,24	6,7	8,7	8,6	1	1	1	1	1	1	1	1	1	0	1	-9,161381	273,926147	310,078408	0
15.01.2021	21:45:44	0	0	4,406268	1,6125	308,8008	0,012	86,675	0	1017,64	6,6	8,6	8,6	1	1	1	1	1	1	1	1	1	0	1	-6,765328	274,043338	313,021121	0
15.01.2021	21:45:45	0	0	2,485587	1,62375	304,236	0,006	86,663	0	1017,36	6,7	8,7	8,6	1	1	1	1	1	1	1	1	1	0	1	-10,42988	273,898068	308,679034	0
15.01.2021	21:45:46	0	0	3,050494	1,58475	286,5888	0,008	86,669	0	1017,46	6,7	8,7	8,6	1	1	1	1	1	1	1	1	1	0	1	-8,668076	274,003205	310,931086	0
15.01.2021	21:45:47	0	0	4,406268	1,527	318,1896	0,016	86,668	0	1017,26	6,6	8,7	8,6	1	1	1	1	1	1	1	1	1	0	1	-10,570825	274,06567	309,319876	0
15.01.2021	21:45:48	0	0	3,841362	1,44525	299,7072	0,01	86,648	0	1017,38	6,7	8,7	8,6	1	1	1	1	1	1	1	1	1	0	1	-10,782241	273,946863	308,554132	0
15.01.2021	21:45:49	0	0	3,276456	1,4595	300,492	0,005	86,665	0	1017,42	6,6	8,6	8,6	1	1	1	1	1	1	1	1	1	0	1	-13,953488	273,890686	305,121023	0
15.01.2021	21:45:50	0	0	3,163475	1,47075	315,4464	0,007	86,665	0	1017,36	6,7	8,7	8,6	1	1	1	1	1	1	1	1	1	0	1	-9,161381	273,933543	310,112888	0
15.01.2021	21:45:51	0	0	4,067325	1,46925	291,8952	0,011	86,67	0	1017,36	6,7	8,6	8,6	1	1	1	1	1	1	1	1	1	0	1	-5,84919	273,898068	313,259724	0
15.01.2021	21:45:52	0	0	3,163475	1,48725	300,1572	0,021	86,692	0	1017,4	6,7	8,7	8,6	1	1	1	1	1	1	1	1	1	0	1	-6,906272	274,022518	312,783006	0
15.01.2021	21:45:53	0	0	5,197137	1,455	307,5408	0,008	86,658	0	1017,32	6,6	8,6	8,6	1	1	1	1	1	1	1	1	1	0	1	-8,949965	274,049291	310,86427	0
15.01.2021	21:45:54	0	0	3,050494	1,37925	309,186	0,013	86,674	0	1017,38	6,6	8,7	8,6	1	1	1	1	1	1	1	1	1	0	1	-13,03735	273,906931	306,112868	0
15.01.2021	21:45:55	0	0	4,51925	1,35375	312,8436	0,004	86,672	0	1017,38	6,7	8,7	8,6	1	1	1	1	1	1	1	1	1	0	1	-6,8358	274,076101	313,103602	0
15.01.2021	21:45:56	0	0	3,163475	1,32225	321,1668	0,011	86,66	0	1017,42	6,6	8,7	8,6	1	1	1	1	1	1	1	1	1	0	1	-8,386187	273,929105	310,867392	0
15.01.2021	21:45:57	0	0	3,954344	1,3005	316,89	0,01	86,681	0	1017,44	6,7	8,7	8,6	1	1	1	1	1	1	1	1	1	0	1	-7,470049	273,890686	311,604462	0
15.01.2021	21:45:58	0	0	2,598569	1,2795	309,4812	0,015	86,685	0	1017,44	6,7	8,7	8,6	1	1	1	1	1	1	1	1	1	0	1	-8,527132	274,086537	311,461003	0
15.01.2021	21:45:59	0	0	3,6154	1,2525	306,864	0,009	86,667	0	1017,52	6,7	8,6	8,6	1	1	1	1	1	1	1	1	1	0	1	-11,627907	273,936503	307,660159	0
15.01.2021	21:46:00	0	0	4,406268	1,2735	295,1388	0,016	86,67	0	1017,48	6,6	8,7	8,6	1	1	1	1	1	1	1	1	1	0	1	-11,134602	274,07163	308,783924	0
15.01.2021	21:46:01	0	0	4,51925	1,32075	309,186	0,004	86,69	0	1017,22	6,6	8,7	8,6	1	1	1	1	1	1	1	1	1	0	1	-5,708245	273,963156	313,704102	0
15.01.2021	21:46:02	0	0	2,598569	1,407	302,8644	0,008	86,684	0	1017,42	6,6	8,7	8,6	1	1	1	1	1	1	1	1	1	0	1	-4,298802	274,082064	315,668443	0
15.01.2021	21:46:03	0	0	4,180306	1,482	296,8452	0,006	86,674	0	1017,48	6,7	8,7	8,6	1	1	1	1	1	1	1	1	1	0	1	-8,245243	274,025491	311,457909	0
15.01.2021	21:46:04	0	0	2,71155	1,53825	304,6104	0,008	86,691	0	1017,56	6,6	8,7	8,6	1	1	1	1	1	1	1	1	1	0	1	-5,708245	274,06865	314,196367	0
15.01.2021	21:46:05	0	0	4,406268	1,53	303,498	0,012	86,664	0	1017,38	6,7	8,6	8,6	1	1	1	1	1	1	1	1	1	0	1	-9,231853	274,058223	310,62408	0
15.01.2021	21:46:06	0	0	4,745212	1,5465	310,2804	0,011	86,687	0	1017,42	6,7	8,7	8,6	1	1	1	1	1	1	1	1	1	0	1	-9,090909	274,029951	310,633058	0
15.01.2021	21:46:07	0	0	4,067325	1,52175	306,8388	0,005	86,677	0	1017,32	6,6	8,7	8,6	1	1	1	1	1	1	1	1	1	0	1	-7,117689	273,892162	311,963702	0
15.01.2021	21:46:08	0	0	4,180306	1,5525	304,2612	0,018	86,688	0	1017,32	6,6	8,7	8,6	1	1	1	1	1	1	1	1	1	0	1	-5,073996	273,933543	314,200273	0
15.01.2021	21:46:09	0	0	2,937512	1,572	304,9704	0,011	86,69	0	1017,44	6,7	8,7	8,6	1	1	1	1	1	1	1	1	1	0	1	-7,117689	273,955749	312,260115	0
15.01.2021	21:46:10	0	0	3,954344	1,5735	312,1056	0,016	86,682	0	1017,5	6,6	8,7	8,6	1	1	1	1	1	1	1	1	1	0	1	-5,285412	274,079082	314,66791	0
15.01.2021	21:46:11	0	0	3,954344	1,52175	296,1	0,018	86,682	0	1017,46	6,6	8,7	8,6	1	1	1	1	1	1	1	1	1	0	1	-6,483439	273,951305	312,873646	0
15.01.2021	21:46:12	0	0	4,745212	1,4835	300,0096	0,009	86,685	0	1017,36	6,7	8,7	8,6	1	1	1	1	1	1	1	1	1	0	1	-7,82241	273,903976	311,314037	0
15.01.2021	21:46:13	0	0	3,389437	1,40475	301,5828	0,008	86,676	0	1017,48	6,7	8,7	8,6	1	1	1	1	1	1	1	1	1	0	1	-7,892882	274,019546	311,782525	0
15.01.2021	21:46:14	0	0	2,937512	1,3815	306,4356	0,01	86,682	0	1017,4	6,6	8,7	8,6	1	1	1	1	1	1	1	1	1	0	1	-9,584214	273,903976	309,552233	0
15.01.2021	21:46:15	0	0	3,841362	1,32	290,7684	0,014	86,685	0	1017,42	6,6	8,7	8,6	1	1	1	1	1	1	1	1	1	0	1	-11,134602	273,997267	308,436855	0
15.01.2021	21:46:16	0	0	2,824531	1,30725	297,8064	0,011	86,67	0	1017,44	6,6	8,7	8,6	1	1	1	1	1	1	1	1	1	0	1	-7,258633	274,06865	312,645979	0
15.01.2021	21:46:17	0	0	3,841362	1,3245	304,254	0,013	86,679	0	1017,42	6,7	8,7	8,6	1	1	1	1	1	1	1	1	1	0	1	-13,601128	274,040363	306,171431	0
15.01.2021	21:46:18	0	0	2,824531	1,34325	299,034	0,009	86,687	0	1017,36	6,7	8,7	8,6	1	1	1	1	1	1	1	1	1	0	1	-5,355884	273,951305	314,001201	0
15.01.2021	21:46:19	0	0	2,71155	1,38675	308,4768	0,015	86,688	0	1017,4	6,6	8,7	8,6	1	1	1	1	1	1	1	1	1	0	1	-9,231853	274,079082	310,721469	0
15.01.2021	21:46:20	0	0	4,067325	1,4835	312,6024	0,012	86,662	0	1017,36	6,6	8,7	8,6	1	1	1	1	1	1	1	1	1	0	1	-9,302326	274,025491	310,400826	0
15.01.2021	21:46:21	0	0	3,6154	1,70025	326,7288	0,011	86,683	0	1017,42	6,6	8,6	8,6	1	1	1	1	1	1	1	1	1	0	1	-2,466526	273,884782	316,580475	0
15.01.2021	21:46:22	0	0	4,406268	1,90425	316,2924	0,014	86,68	0	1017,46	6,6	8,7	8,6	1	1	1	1	1	1	1	1	1	0	1	-8,315715	273,99133	311,228045	0
15.01.2021	21:46:23	0	0	2,824514	2,0055	318,1428	0,016	86,685	0	1017,52	6,7	8,7	8,7	1	1	1	1	1	1	1	1	1	0	1	-9,725159	274,077591	310,221203	0
15.01.2021	21:46:24	0	0	4,858193	2,0865	312,8544	0,016	86,677	0	1017,46	6,7	8,7	8,6	1	1	1	1	1	1	1	1	1	0	1	-7,399577	273,986879	312,123419	0
15.01.2021	21:46:25	0	0	4,51925	2,094	307,6272	0,013	86,669	0	1017,46	6,6	8,6	8,6	1	1	1	1	1	1	1	1	1	0	1	-4,792107	274,076101	315,147294	0
15.01.2021	21:46:26	0	0	3,276456	2,001	306,198	0,012	86,671	0	1017,52	6,7	8,7	8,6	1	1	1	1	1	1	1	1	1	0	1	-3,59408	274,022518	316,095198	0
15.01.2021	21:46:27	0	0	2,71155	1,93725	306,1224	0,01	86,673	0	1017,38	6,7	8,7	8,6	1	1	1	1	1	1	1	1	1	0	1	-12,825934	273,906931	306,324284	0
15.01.2021	21:46:28	0	0	2,372606	1,87575	303,9084	0,015	86,69	0	1017,42	6,7	8,7	8,6	1	1	1	1	1	1	1	1	1	0	1	-12,262156	273,967602	307,170925	0
15.01.2021	21:46:29	0	0	4,067325	1,82025	309,9636	0,011	86,668	0	1017,48	6,6	8,7	8,6	1	1	1	1	1	1	1	1	1	0	1	-5,144468	274,085046	314,836703	0
15.01.2021	21:46:30	0	0	2,598569	1,83	311,8176	0,013	86,689	0	1017,46	6,7	8,7	8,6	1	1	1	1	1	1	1	1	1	0	1	-8,949965	274,009146	310,676914	0
15.01.2021	21:46:31	0	0	2,485587	1,734	319,572	0,013	86,691	0	1017,46	6,7	8,7	8,6	1	1	1	1	1	1	1	1	1	0	1	-6,906272	273,884782	312,140728	0
15.01.2021	21:46:32	0	0	5,084156	1,64175	308,4876	0,017	86,671	0	1017,34	6,8	8,7	8,6	1	1	1	1	1	1	1	1	1	0	1	-6,694856	274,026978	313,015234	0
15.01.2021	21:46:33	0	0	4,067325	1,5615	296,0748	0,006	86,682	0	1017,38	6,7	8,7	8,6	1	1	1	1	1	1	1	1	1	0	1	-10,852713	274,021032	308,829629	0
15.01.2021	21:46:34	0	0	4,858193	1,61775	304,9272	0,016	86,673	0	1017,3	6,6	8,7	8,6	1	1	1	1	1	1	1	1	1	0	1	-6,694856	274,077591	313,251506	0
15.01.2021	21:46:35	0	0	4,406268	1,67325	317,3472	0,004	86,675	0	1017,4	6,8	8,7	8,6	1	1	1	1	1	1	1	1	1	0	1	-7,047216	273,975014	312,420435	0
15.01.2021	21:46:36	0	0	2,485587	1,70025	321,1308	0,01	86,669	0	1017,44	6,7	8,7	8,6	1	1	1	1	1	1	1	1	1	0	1	-4,580691	274,080573	315,379593	0
15.01.2021	21:46:37	0	0	4,745212	1,76325	321,1884	0,009	86,663	0	1017,42	6,7	8,7	8,6	1	1	1	1	1	1	1	1	1	0	1	-5,073996	273,937982	314,220969	0
15.01.2021	21:46:38	0	0	3,050494	1,9065	314,8812	0,012	86,664	0	1017,44	6,6	8,6	8,6	1	1	1	1	1	1	1	1	1	0	1	-11,06413	274,07163	308,854396	0
15.01.2021	21:46:39	0	0	3,841362	2,11275	312,1848	0,013	86,673	0	1017,56	6,7	8,6	8,6	1	1	1	1	1	1	1	1	1	0	1	-8,597604	273,948344	310,745672	0
15.01.2021	21:46:40	0	0	4,293287	2,29875	308,8188	0,01	86,682	0	1017,58	6,7	8,7	8,6	1	1	1	1	1	1	1	1	1	0	1	-7,82241	274,059713	312,040475	0
15.01.2021	21:46:41	0	0	2,937512	2,32275	308,8368	0,009	86,659	0	1017,46	6,6	8,6	8,6	1	1	1	1	1	1	1	1	1	0	1	-7,047216	274,0359	312,704514	0
15.01.2021	21:46:42	0	0	4,51925	2,22375	311,814	0,006	86,657	0	1017,32	6,7	8,7	8,6	1	1	1	1	1	1	1	1	1	0	1	-5,144468	274,06865	314,760144	0
15.01.2021	21:46:43	0	0	2,598569	2,2185	312,7248	0,011	86,675	0	1017,22	6,6	8,7	8,6	1	1	1	1	1	1	1	1	1	0	1	-9,795631	273,935023	309,485536	0
15.01.2021	21:46:44	0	0	2,824531	2,214	313,1784	0,011	86,655	0	1017,3	6,7	8,6	8,6	1	1	1	1	1	1	1	1	1	0	1	-8,033827	273,893638	311,054444	0
15.01.2021	21:46:45	0	0	4,745212	2,12025	318,474	0,009	86,703	0	1017,82	6,7	8,7	8,6	1	1	1	1	1	1	1	1	1	0	1	-6,060606	274,009146	313,566272	0
15.01.2021	21:46:46	0	0	3,954344	2,1555	309,9276	0,01	86,675	0	1017,48	6,8	8,7	8,6	1	1	1	1	1	1	1	1	1	0	1	-2,959831	274,06716	316,937825	0
15.01.2021	21:46:47	0	0	3,728381	2,14425	310,266	0,008	86,671	0	1017,36	6,7	8,7	8,6	1	1	1	1	1	1	1	1	1	0	1	-7,258633	273,927626	311,988051	0
15.01.2021	21:46:48	0	0	2,824531	2,2875	307,6128	0,008	86,664	0	1017,38	6,7	8,6	8,6	1	1	1	1	1	1	1	1	1	0	1	-7,892882	274,061202	311,976956	0
15.01.2021	21:46:49	0	0	4,632231	2,38275	312,4188	0,013	86,679	0	1017,4	6,7	8,6	8,6	1	1	1	1	1	1	1	1	1	0	1	-8,104299	273,929105	311,149281	0
15.01.2021	21:46:50	0	0	2,937512	2,4195	312,4476	0,01	86,677	0	1017,52	6,7	8,7	8,6	1	1	1	1	1	1	1	1	1	0	1	-6,20155	273,906931	312,948668	0
15.01.2021	21:46:51	0	0	3,163475	2,361	313,1928	0,016	86,677	0	1017,42	6,7	8,7	8,6	1	1	1	1	1	1	1	1	1	0	1	-5,355884	273,930585	313,904591	0
15.01.2021	21:46:52	0	0	4,180306	2,523	298,674	0,009	86,679	0	1017,3	6,7	8,7	8,6	1	1	1	1	1	1	1	1	1	0	1	-8,174771	274,06567	311,715929	0
15.01.2021	21:46:53	0	0	4,745212	2,6745	306,7416	0,006	86,694	0	1017,44	6,7	8,7	8,6	1	1	1	1	1	1	1	1	1	0	1	-9,725159	273,936503	309,562907	0
15.01.2021	21:46:54	0	0	2,824531	2,778	307,1844	0,008	86,674	0	1017,48	6,7	8,6	8,6	1	1	1	1	1	1	1	1	1	0	1	-7,470049	274,06865	312,434562	0
15.01.2021	21:46:55	0	0	4,858193	2,8035	308,8404	0,011	86,67	0	1017,4	6,7	8,7	8,6	1	1	1	1	1	1	1	1	1	0	1	-10,923185	274,034413	308,821603	0
15.01.2021	21:46:56	0	0	3,6154	2,8005	305,3916	0,005	86,684	0	1017,44	6,7	8,7	8,6	1	1	1	1	1	1	1	1	1	0	1	-4,22833	273,890686	314,846181	0
15.01.2021	21:46:57	0	0	4,971175	2,7585	305,0064	0,012	86,686	0	1017,44	6,6	8,7	8,6	1	1	1	1	1	1	1	1	1	0	1	-5,778717	274,001721	313,813517	0
15.01.2021	21:46:58	0	0	4,632231	2,7525	311,8176	0,009	86,684	0	1017,44	6,7	8,7	8,6	1	1	1	1	1	1	1	1	1	0	1	-8,033827	273,881831	310,999422	0
15.01.2021	21:46:59	0	0	3,841362	2,71575	306,8712	0,009	86,676	0	1017,46	6,7	8,7	8,6	1	1	1	1	1	1	1	1	1	0	1	-7,751938	274,026978	311,958152	0
15.01.2021	21:47:00	0	0	3,389437	2,7615	306,4248	0,005	86,677	0	1017,42	6,7	8,6	8,6	1	1	1	1	1	1	1	1	1	0	1	-2,536998	274,016574	317,124541	0
15.01.2021	21:47:01	0	0	4,51925	2,85225	308,4696	0,011	86,686	0	1017,48	6,6	8,7	8,6	1	1	1	1	1	1	1	1	1	0	1	-3,664553	273,871505	315,320586	0
15.01.2021	21:47:02	0	0	4,971175	2,81925	305,0892	0,009	86,677	0	1017,42	6,7	8,7	8,6	1	1	1	1	1	1	1	1	1	0	1	-8,45666	273,940942	310,852105	0
15.01.2021	21:47:03	0	0	2,824531	2,8695	307,2024	0,01	86,687	0	1017,54	6,6	8,7	8,6	1	1	1	1	1	1	1	1	1	0	1	-3,030303	273,884782	316,016697	0
15.01.2021	21:47:04	0	0	4,293287	2,81925	302,3604	0,003	86,681	0	1017,42	6,7	8,7	8,6	1	1	1	1	1	1	1	1	1	0	1	-8,245243	273,946863	311,09113	0
15.01.2021	21:47:05	0	0	4,293287	2,832	301,2732	0,007	86,671	0	1017,22	6,7	8,6	8,6	1	1	1	1	1	1	1	1	1	0	1	-9,513742	274,07312	310,411742	0
15.01.2021	21:47:06	0	0	3,163475	2,76525	305,802	0,01	86,677	0	1017,4	6,7	8,7	8,6	1	1	1	1	1	1	1	1	1	0	1	-6,342495	273,946863	312,993878	0
15.01.2021	21:47:07	0	0	5,310118	2,63175	305,0136	0,013	86,664	0	1017,32	6,6	8,7	8,6	1	1	1	1	1	1	1	1	1	0	1	-10,711769	274,064181	309,171977	0
15.01.2021	21:47:08	0	0	3,954344	2,595	310,6872	0,01	86,692	0	1017,4	6,7	8,7	8,6	1	1	1	1	1	1	1	1	1	0	1	-5,637773	273,975014	313,829878	0
15.01.2021	21:47:09	0	0	2,485587	2,52525	304,6104	0,014	86,683	0	1017,34	6,7	8,7	8,6	1	1	1	1	1	1	1	1	1	0	1	-6,131078	274,061202	313,73876	0
15.01.2021	21:47:10	0	0	4,971175	2,4765	303,534	0,01	86,686	0	1017,36	6,7	8,7	8,6	1	1	1	1	1	1	1	1	1	0	1	-6,8358	273,898068	312,273114	0
15.01.2021	21:47:11	0	0	4,067325	2,45925	306,4428	0,012	86,688	0	1017,36	6,6	8,6	8,6	1	1	1	1	1	1	1	1	1	0	1	-4,933051	273,949825	314,417129	0
15.01.2021	21:47:12	0	0	2,598569	2,46825	307,5624	0,012	86,69	0	1017,54	6,6	8,7	8,6	1	1	1	1	1	1	1	1	1	0	1	-8,245243	274,058223	311,61069	0
15.01.2021	21:47:13	0	0	2,937512	2,48025	306,8028	0,003	86,693	0	1017,44	6,6	8,7	8,6	1	1	1	1	1	1	1	1	1	0	1	-5,919662	273,963156	313,492686	0
15.01.2021	21:47:14	0	0	2,598569	2,5185	310,6224	0,013	86,69	0	1017,44	6,7	8,7	8,6	1	1	1	1	1	1	1	1	1	0	1	-10,147992	273,880355	308,878383	0
15.01.2021	21:47:15	0	0	3,6154	2,48625	305,928	0,011	86,672	0	1017,4	6,6	8,7	8,6	1	1	1	1	1	1	1	1	1	0	1	-7,470049	274,019546	312,205358	0
15.01.2021	21:47:16	0	0	2,259625	2,448	310,2624	0,009	86,671	0	1017,46	6,7	8,7	8,6	1	1	1	1	1	1	1	1	1	0	1	-7,540521	273,909886	311,62347	0
15.01.2021	21:47:17	0	0	3,276456	2,3925	304,6536	0,006	86,673	0	1017,36	6,7	8,6	8,6	1	1	1	1	1	1	1	1	1	0	1	-10,711769	274,032925	309,026078	0
15.01.2021	21:47:18	0	0	4,293287	2,43675	305,0064	0,011	86,683	0	1017,44	6,7	8,7	8,6	1	1	1	1	1	1	1	1	1	0	1	-10,147992	273,906931	309,002227	0
15.01.2021	21:47:19	0	0	3,050494	2,4435	301,3272	0,009	86,689	0	1017,32	6,7	8,7	8,6	1	1	1	1	1	1	1	1	1	0	1	-7,117689	273,95723	312,267023	0
15.01.2021	21:47:20	0	0	4,745212	2,4765	311,4252	0,008	86,689	0	1017,46	6,7	8,7	8,6	1	1	1	1	1	1	1	1	1	0	1	-6,131078	273,87888	312,888422	0
15.01.2021	21:47:21	0	0	4,406268	2,4315	305,0136	0,004	86,667	0	1017,5	6,7	8,7	8,6	1	1	1	1	1	1	1	1	1	0	1	-10,147992	274,032925	309,589856	0
15.01.2021	21:47:22	0	0	4,293287	2,31975	312,4656	0,006	86,695	0	1017,4	6,7	8,7	8,6	1	1	1	1	1	1	1	1	1	0	1	-6,483439	273,88921	312,584193	0
15.01.2021	21:47:23	0	0	4,180306	2,2545	295,596	0,008	86,689	0	1017,38	6,7	8,7	8,6	1	1	1	1	1	1	1	1	1	0	1	-8,80902	273,958711	310,582599	0
15.01.2021	21:47:24	0	0	4,632231	2,1945	311,3748	0,004	86,695	0	1017,46	6,6	8,6	8,6	1	1	1	1	1	1	1	1	1	0	1	-10,923185	273,895115	308,171965	0
15.01.2021	21:47:25	0	0	2,71155	2,22225	296,4168	0,008	86,677	0	1017,42	6,7	8,6	8,6	1	1	1	1	1	1	1	1	1	0	1	-8,597604	274,07014	311,313965	0
15.01.2021	21:47:26	0	0	3,502419	2,193	311,346	0,006	86,689	0	1017,48	6,7	8,7	8,6	1	1	1	1	1	1	1	1	1	0	1	-6,20155	273,983912	313,307605	0
15.01.2021	21:47:27	0	0	3,276456	2,08875	309,51	0,006	86,687	0	1017,24	6,7	8,6	8,6	1	1	1	1	1	1	1	1	1	0	1	-7,329105	274,053757	312,505976	0
15.01.2021	21:47:28	0	0	4,632231	2,061	315,486	0,005	86,695	0	1017,4	6,7	8,6	8,6	1	1	1	1	1	1	1	1	1	0	1	-9,936575	273,988363	309,593342	0
15.01.2021	21:47:29	0	0	4,745212	2,0685	313,5744	0,008	86,695	0	1017,42	6,7	8,7	8,6	1	1	1	1	1	1	1	1	1	0	1	-8,104299	273,886258	310,949578	0
15.01.2021	21:47:30	0	0	4,406268	2,06925	310,2552	0,004	86,683	0	1017,46	6,7	8,7	8,6	1	1	1	1	1	1	1	1	1	0	1	-10,993658	274,024005	308,702557	0
15.01.2021	21:47:31	0	0	4,632231	2,09625	319,5792	0,006	86,675	0	1017,38	6,7	8,7	8,6	1	1	1	1	1	1	1	1	1	0	1	-4,862579	273,899545	314,253217	0
15.01.2021	21:47:32	0	0	4,180306	2,19075	307,584	0,008	86,704	0	1017,48	6,7	8,7	8,6	1	1	1	1	1	1	1	1	1	0	1	-8,527132	274,06716	311,370524	0
15.01.2021	21:47:33	0	0	3,6154	2,30625	311,436	0,008	86,694	0	1017,32	6,7	8,7	8,6	1	1	1	1	1	1	1	1	1	0	1	-7,751938	274,00766	311,868011	0
15.01.2021	21:47:34	0	0	3,954344	2,40225	313,2036	0,008	86,692	0	1017,5	6,7	8,7	8,6	1	1	1	1	1	1	1	1	1	0	1	-9,936575	274,032925	309,801272	0
15.01.2021	21:47:35	0	0	2,71155	2,508	317,4012	0,005	86,684	0	1017,4	6,7	8,7	8,6	1	1	1	1	1	1	1	1	1	0	1	-10,993658	274,032925	308,74419	0
15.01.2021	21:47:36	0	0	4,632231	2,595	311,76	0,006	86,684	0	1017,42	6,7	8,6	8,6	1	1	1	1	1	1	1	1	1	0	1	-6,976744	274,012117	312,663996	0
15.01.2021	21:47:37	0	0	4,632231	2,652	310,3812	0	86,693	0	1017,4	6,7	8,6	8,6	1	1	1	1	1	1	1	1	1	0	1	-4,298802	273,896591	314,80323	0
15.01.2021	21:47:38	0	0	4,067325	2,6445	312,4584	0,008	86,694	0	1017,46	6,7	8,7	8,6	1	1	1	1	1	1	1	1	1	0	1	-12,966878	273,969084	306,473116	0
15.01.2021	21:47:39	0	0	2,824531	2,56725	296,1972	0,013	86,696	0	1017,64	6,6	8,6	8,6	1	1	1	1	1	1	1	1	1	0	1	-8,45666	273,890686	310,617851	0
15.01.2021	21:47:40	0	0	2,824531	2,49	301,2444	0,009	86,693	0	1017,3	6,7	8,6	8,6	1	1	1	1	1	1	1	1	1	0	1	-6,694856	273,92319	312,531147	0
15.01.2021	21:47:41	0	0	4,067325	2,41725	297,6192	0,011	86,678	0	1017,5	6,7	8,6	8,6	1	1	1	1	1	1	1	1	1	0	1	-4,792107	273,881831	314,241142	0
15.01.2021	21:47:42	0	0	3,841362	2,44575	307,6452	0,007	86,679	0	1017,36	6,7	8,7	8,6	1	1	1	1	1	1	1	1	1	0	1	-5,355884	273,998751	314,222497	0
15.01.2021	21:47:43	0	0	4,293287	2,46825	303,8832	0,008	86,69	0	1017,2	6,7	8,6	8,6	1	1	1	1	1	1	1	1	1	0	1	-2,677942	274,044826	317,115452	0
15.01.2021	21:47:44	0	0	3,502419	2,41425	301,9716	0,003	86,677	0	1017,42	6,7	8,7	8,6	1	1	1	1	1	1	1	1	1	0	1	-7,470049	273,933543	311,80422	0
15.01.2021	21:47:45	0	0	2,598569	2,349	305,46	0,005	86,668	0	1017,46	6,7	8,7	8,6	1	1	1	1	1	1	1	1	1	0	1	-8,80902	273,875929	310,196733	0
15.01.2021	21:47:46	0	0	2,937512	2,33625	301,086	0,011	86,688	0	1017,4	6,6	8,7	8,6	1	1	1	1	1	1	1	1	1	0	1	-7,117689	274,006175	312,495331	0
15.01.2021	21:47:47	0	0	4,632231	2,33475	301,5792	0,01	86,698	0	1017,54	6,7	8,7	8,6	1	1	1	1	1	1	1	1	1	0	1	-5,990134	273,871505	312,995005	0
15.01.2021	21:47:48	0	0	4,745212	2,25375	302,04	0,002	86,702	0	1017,38	6,7	8,7	8,6	1	1	1	1	1	1	1	1	1	0	1	-8,527132	273,952786	310,836859	0
15.01.2021	21:47:49	0	0	4,971175	2,229	302,7996	0,005	86,701	0	1017,42	6,7	8,7	8,6	1	1	1	1	1	1	1	1	1	0	1	-8,45666	274,059713	311,406226	0
15.01.2021	21:47:50	0	0	1,8077	2,16525	306,432	0,009	86,703	0	1017,34	6,7	8,6	8,6	1	1	1	1	1	1	1	1	1	0	1	-11,698379	273,943903	307,624188	0
15.01.2021	21:47:51	0	0	2,485587	2,1285	303,2316	0,011	86,701	0	1017,6	6,7	8,7	8,6	1	1	1	1	1	1	1	1	1	0	1	-8,315715	274,049291	311,498519	0
15.01.2021	21:47:52	0	0	3,954344	2,1	310,3956	0,012	86,696	0	1017,44	6,7	8,6	8,6	1	1	1	1	1	1	1	1	1	0	1	-5,708245	273,967602	313,724836	0
15.01.2021	21:47:53	0	0	4,51925	2,07225	297,2124	0,012	86,707	0	1017,32	6,7	8,7	8,6	1	1	1	1	1	1	1	1	1	0	1	-10,923185	274,07163	308,99534	0
15.01.2021	21:47:54	0	0	3,728381	2,07975	298,62	0,013	86,7	0	1017,44	6,7	8,7	8,6	1	1	1	1	1	1	1	1	1	0	1	-8,315715	274,006175	311,297304	0
15.01.2021	21:47:55	0	0	4,406268	2,15925	298,3212	0,007	86,695	0	1017,42	6,7	8,6	8,6	1	1	1	1	1	1	1	1	1	0	1	-8,738548	273,896591	310,363484	0
15.01.2021	21:47:56	0	0	3,728381	2,28375	303,354	0,005	86,706	0	1017,42	6,7	8,7	8,6	1	1	1	1	1	1	1	1	1	0	1	-7,82241	273,887734	311,238344	0
15.01.2021	21:47:57	0	0	4,180306	2,26275	309,8772	0,007	86,7	0	1017,48	6,7	8,7	8,6	1	1	1	1	1	1	1	1	1	0	1	-10,500352	273,91432	308,684304	0
15.01.2021	21:47:58	0	0	3,6154	2,18475	312,498	0,008	86,706	0	1017,5	6,7	8,6	8,6	1	1	1	1	1	1	1	1	1	0	1	-9,654686	273,92319	309,571316	0
15.01.2021	21:47:59	0	0	4,51925	2,1555	315,1764	0,008	86,716	0	1017,48	6,7	8,7	8,6	1	1	1	1	1	1	1	1	1	0	1	-12,121212	274,0359	307,630518	0
15.01.2021	21:48:00	0	0	2,598569	2,097	318,7836	0,006	86,712	0	1017,34	6,6	8,7	8,6	1	1	1	1	1	1	1	1	1	0	1	-7,470049	273,933543	311,80422	0
15.01.2021	21:48:01	0	0	3,502419	2,1345	317,052	-0,001	86,708	0	1017,32	6,7	8,6	8,6	1	1	1	1	1	1	1	1	1	0	1	-6,060606	273,937982	313,234359	0
15.01.2021	21:48:02	0	0	2,937512	2,21475	312,4476	0,012	86,722	0	1017,36	6,7	8,7	8,6	1	1	1	1	1	1	1	1	1	0	1	-7,892882	273,895115	311,202268	0
15.01.2021	21:48:03	0	0	3,6154	2,229	325,1016	0,003	86,726	0	1017,46	6,6	8,6	8,6	1	1	1	1	1	1	1	1	1	0	1	-8,668076	274,010631	310,965733	0
15.01.2021	21:48:04	0	0	4,745212	2,15775	316,6308	0,006	86,727	0	1017,48	6,6	8,7	8,6	1	1	1	1	1	1	1	1	1	0	1	-8,80902	273,887734	310,251734	0
15.01.2021	21:48:05	0	0	2,71155	1,9875	315,522	-0,002	86,72	0	1017,24	6,7	8,7	8,6	1	1	1	1	1	1	1	1	1	0	1	-11,346018	274,013602	308,301654	0
15.01.2021	21:48:06	0	0	3,6154	1,821	316,728	0,008	86,719	0	1017,5	6,7	8,6	8,6	1	1	1	1	1	1	1	1	1	0	1	-4,933051	273,908408	314,224053	0
15.01.2021	21:48:07	0	0	3,050494	1,7505	317,2968	0,01	86,716	0	1017,26	6,7	8,6	8,6	1	1	1	1	1	1	1	1	1	0	1	-7,82241	273,929105	311,431169	0
15.01.2021	21:48:08	0	0	4,180306	1,79175	313,2396	0,013	86,719	0	1017,4	6,7	8,6	8,6	1	1	1	1	1	1	1	1	1	0	1	-6,20155	274,029951	313,522417	0
15.01.2021	21:48:09	0	0	2,485587	1,80225	316,584	0,009	86,734	0	1017,48	6,7	8,7	8,6	1	1	1	1	1	1	1	1	1	0	1	-8,879493	274,06716	311,018163	0
15.01.2021	21:48:10	0	0	4,51925	1,83	324,81	0,01	86,724	0	1017,46	6,7	8,7	8,6	1	1	1	1	1	1	1	1	1	0	1	-6,553911	274,040363	313,218648	0
15.01.2021	21:48:11	0	0	3,954344	1,854	315,2088	0,01	86,729	0	1017,38	6,7	8,7	8,6	1	1	1	1	1	1	1	1	1	0	1	-13,601128	274,07014	306,310441	0
15.01.2021	21:48:12	0	0	4,180306	1,8465	316,2528	0,007	86,713	0	1017,44	6,7	8,7	8,6	1	1	1	1	1	1	1	1	1	0	1	-6,272023	273,92319	312,95398	0
15.01.2021	21:48:13	0	0	4,293287	1,8045	319,2444	0,006	86,731	0	1017,36	6,7	8,7	8,6	1	1	1	1	1	1	1	1	1	0	1	-10,42988	274,06567	309,46082	0
15.01.2021	21:48:14	0	0	2,824531	1,866	313,254	0,01	86,732	0	1017,44	6,7	8,6	8,6	1	1	1	1	1	1	1	1	1	0	1	-6,553911	274,021032	313,128431	0
15.01.2021	21:48:15	0	0	3,954344	1,91325	316,2708	0,009	86,738	0	1017,52	6,7	8,7	8,6	1	1	1	1	1	1	1	1	1	0	1	-11,698379	274,053757	308,136702	0
15.01.2021	21:48:16	0	0	4,858193	1,878	326,3076	0,005	86,719	0	1017,46	6,6	8,6	8,6	1	1	1	1	1	1	1	1	1	0	1	-6,483439	274,049291	313,330795	0
15.01.2021	21:48:17	0	0	3,841362	1,82475	321,1848	0,003	86,716	0	1017,34	6,7	8,7	8,6	1	1	1	1	1	1	1	1	1	0	1	-7,470049	274,074611	312,462393	0
15.01.2021	21:48:18	0	0	3,954344	1,722	321,4404	0	86,721	0	1017,36	6,7	8,6	8,6	1	1	1	1	1	1	1	1	1	0	1	-7,610994	274,053757	312,224087	0
15.01.2021	21:48:19	0	0	3,502419	1,81575	321,4584	0,005	86,738	0	1017,36	6,7	8,7	8,6	1	1	1	1	1	1	1	1	1	0	1	-6,342495	273,933543	312,931774	0
15.01.2021	21:48:20	0	0	4,406268	1,848	322,2252	0,003	86,736	0	1017,46	6,7	8,7	8,6	1	1	1	1	1	1	1	1	1	0	1	-10,359408	274,028464	309,35762	0
15.01.2021	21:48:21	0	0	3,841362	1,8315	330,0624	0,005	86,752	0	1017,54	6,7	8,7	8,6	1	1	1	1	1	1	1	1	1	0	1	-6,624383	274,062691	313,252408	0
15.01.2021	21:48:22	0	0	3,389437	1,767	321,1056	0,005	86,736	0	1017,26	6,7	8,7	8,6	1	1	1	1	1	1	1	1	1	0	1	-4,721635	273,967602	314,711447	0
15.01.2021	21:48:23	0	0	2,485587	1,67325	315,9504	0,011	86,728	0	1017,34	6,6	8,7	8,6	1	1	1	1	1	1	1	1	1	0	1	-4,087385	274,06716	315,81027	0
15.01.2021	21:48:24	0	0	4,180306	1,62975	310,662	0,001	86,749	0	1017,4	6,7	8,6	8,6	1	1	1	1	1	1	1	1	1	0	1	-5,778717	273,982429	313,723519	0
15.01.2021	21:48:25	0	0	3,050494	1,70025	321,9012	0,011	86,753	0	1017,46	6,7	8,6	8,6	1	1	1	1	1	1	1	1	1	0	1	-6,976744	273,906931	312,173474	0
15.01.2021	21:48:26	0	0	2,937512	1,7595	311,8392	0,006	86,756	0	1017,48	6,7	8,6	8,6	1	1	1	1	1	1	1	1	1	0	1	-6,272023	273,958711	313,119597	0
15.01.2021	21:48:27	0	0	2,259625	1,83075	325,134	0,012	86,742	0	1017,48	6,6	8,6	8,6	1	1	1	1	1	1	1	1	1	0	1	-9,302326	273,875929	309,703428	0
15.01.2021	21:48:28	0	0	4,971175	1,9695	319,1832	0,01	86,75	0	1017,5	6,7	8,6	8,6	1	1	1	1	1	1	1	1	1	0	1	-9,584214	274,024005	310,112	0
15.01.2021	21:48:29	0	0	2,259625	2,12925	319,2264	0,008	86,76	0	1017,5	6,6	8,7	8,6	1	1	1	1	1	1	1	1	1	0	1	-8,104299	273,895115	310,990852	0
15.01.2021	21:48:30	0	0	3,502419	2,205	332,4312	0,012	86,757	0	1017,38	6,7	8,6	8,6	1	1	1	1	1	1	1	1	1	0	1	-11,698379	273,972049	307,755442	0
15.01.2021	21:48:31	0	0	4,632231	2,1075	320,4432	0,005	86,75	0	1017,36	6,7	8,7	8,6	1	1	1	1	1	1	1	1	1	0	1	-10,711769	274,038875	309,053847	0
15.01.2021	21:48:32	0	0	3,954344	1,974	310,6368	0,007	86,753	0	1017,38	6,7	8,7	8,6	1	1	1	1	1	1	1	1	1	0	1	-10,359408	274,06865	309,545204	0
15.01.2021	21:48:33	0	0	3,841362	1,89	321,1668	0,005	86,751	0	1017,34	6,7	8,7	8,6	1	1	1	1	1	1	1	1	1	0	1	-11,980268	273,977979	307,501216	0
15.01.2021	21:48:34	0	0	4,067325	1,79325	325,1808	0,009	86,763	0	1017,26	6,7	8,6	8,6	1	1	1	1	1	1	1	1	1	0	1	-9,725159	273,88921	309,342474	0
15.01.2021	21:48:35	0	0	4,632231	1,74525	315,846	0,011	86,761	0	1017,48	6,7	8,7	8,6	1	1	1	1	1	1	1	1	1	0	1	-12,262156	273,976497	307,212411	0
15.01.2021	21:48:36	0	0	4,745212	1,674	318,7512	0,009	86,762	0	1017,42	6,7	8,7	8,6	1	1	1	1	1	1	1	1	1	0	1	-10,500352	273,887734	308,560402	0
15.01.2021	21:48:37	0	0	4,858193	1,7175	304,65	0,011	86,762	0	1017,46	6,7	8,7	8,6	1	1	1	1	1	1	1	1	1	0	1	-4,369274	274,019546	315,306133	0
15.01.2021	21:48:38	0	0	3,728381	1,782	321,8544	0,011	86,762	0	1017,58	6,7	8,6	8,6	1	1	1	1	1	1	1	1	1	0	1	-2,748414	274,022518	316,940864	0
15.01.2021	21:48:39	0	0	2,372606	1,95	303,5016	0,008	86,765	0	1017,4	6,7	8,6	8,6	1	1	1	1	1	1	1	1	1	0	1	-6,20155	274,062691	313,675241	0
15.01.2021	21:48:40	0	0	4,632231	2,14875	318,8592	0,006	86,756	0	1017,4	6,6	8,7	8,6	1	1	1	1	1	1	1	1	1	0	1	-10,641297	273,977979	308,840187	0
15.01.2021	21:48:41	0	0	2,71155	2,33325	298,746	0,012	86,778	0	1017,56	6,7	8,7	8,6	1	1	1	1	1	1	1	1	1	0	1	-4,22833	273,901022	314,894349	0
15.01.2021	21:48:42	0	0	4,632231	2,4	312,4548	0,006	86,758	0	1017,52	6,7	8,6	8,6	1	1	1	1	1	1	1	1	1	0	1	-10,147992	273,955749	309,229812	0
15.01.2021	21:48:43	0	0	3,163475	2,601	305,7264	0,008	86,77	0	1017,26	6,7	8,7	8,6	1	1	1	1	1	1	1	1	1	0	1	-5,073996	274,076101	314,865406	0
15.01.2021	21:48:44	0	0	2,937512	2,8395	314,4528	0,008	86,773	0	1017,38	6,7	8,6	8,6	1	1	1	1	1	1	1	1	1	0	1	-10,147992	273,99133	309,395769	0
15.01.2021	21:48:45	0	0	2,824531	2,84775	313,6032	0,014	86,766	0	1017,5	6,7	8,6	8,6	1	1	1	1	1	1	1	1	1	0	1	-7,117689	273,893638	311,970582	0
15.01.2021	21:48:46	0	0	3,502419	2,67	333,1476	0,01	86,772	0	1017,52	6,6	8,6	8,6	1	1	1	1	1	1	1	1	1	0	1	-13,178295	274,001721	306,41394	0
15.01.2021	21:48:47	0	0	3,389437	2,3955	324,0864	0,008	86,767	0	1017,48	6,6	8,6	8,6	1	1	1	1	1	1	1	1	1	0	1	-6,8358	274,07312	313,089684	0
15.01.2021	21:48:48	0	0	3,163475	2,16825	323,9748	0,008	86,774	0	1017,28	6,7	8,6	8,6	1	1	1	1	1	1	1	1	1	0	1	-5,426357	273,954267	313,944541	0
15.01.2021	21:48:49	0	0	4,067325	2,06625	311,814	0,006	86,756	0	1017,5	6,7	8,7	8,6	1	1	1	1	1	1	1	1	1	0	1	-6,412967	273,886258	312,64091	0
15.01.2021	21:48:50	0	0	3,050494	2,007	315,4536	0,008	86,776	0	1017,32	6,7	8,7	8,6	1	1	1	1	1	1	1	1	1	0	1	-9,231853	273,951305	310,125232	0
15.01.2021	21:48:51	0	0	4,293287	1,9335	316,9584	0,011	86,771	0	1017,44	6,7	8,6	8,6	1	1	1	1	1	1	1	1	1	0	1	-12,473573	274,064181	307,410173	0
15.01.2021	21:48:52	0	0	4,180306	1,9755	288,36	0,01	86,77	0	1017,44	6,7	8,6	8,6	1	1	1	1	1	1	1	1	1	0	1	-13,460183	274,029951	306,263784	0
15.01.2021	21:48:53	0	0	2,824531	2,02875	316,944	0,012	86,764	0	1017,38	6,7	8,6	8,6	1	1	1	1	1	1	1	1	1	0	1	-9,866103	273,895115	309,229048	0
15.01.2021	21:48:54	0	0	3,728381	2,15175	325,4292	0,012	86,769	0	1017,48	6,6	8,6	8,6	1	1	1	1	1	1	1	1	1	0	1	-5,21494	273,939462	314,086924	0
15.01.2021	21:48:55	0	0	4,406268	2,244	328,9392	0,01	86,779	0	1017,44	6,7	8,7	8,6	1	1	1	1	1	1	1	1	1	0	1	-5,144468	274,06865	314,760144	0
15.01.2021	21:48:56	0	0	3,954344	2,15175	334,9584	0,014	86,771	0	1017,4	6,7	8,6	8,6	1	1	1	1	1	1	1	1	1	0	1	-9,513742	274,024005	310,182472	0
15.01.2021	21:48:57	0	0	2,598569	2,01825	334,2312	0,011	86,757	0	1017,5	6,7	8,6	8,6	1	1	1	1	1	1	1	1	1	0	1	-4,721635	273,920233	314,490583	0
15.01.2021	21:48:58	0	0	2,146644	1,9545	331,506	0,009	86,774	0	1017,58	6,6	8,7	8,6	1	1	1	1	1	1	1	1	1	0	1	-8,668076	273,939462	310,633788	0
15.01.2021	21:48:59	0	0	4,632231	1,98075	312,894	0,008	86,77	0	1017,3	6,6	8,6	8,6	1	1	1	1	1	1	1	1	1	0	1	-10,641297	274,06865	309,263315	0
15.01.2021	21:49:00	0	0	3,163475	2,02275	322,2	0,006	86,772	0	1017,44	6,6	8,6	8,6	1	1	1	1	1	1	1	1	1	0	1	-5,637773	274,00469	313,968317	0
15.01.2021	21:49:01	0	0	2,71155	2,09325	308,4516	0,008	86,771	0	1017,44	6,7	8,6	8,6	1	1	1	1	1	1	1	1	1	0	1	-8,949965	274,056734	310,899017	0
15.01.2021	21:49:02	0	0	4,971175	2,05575	308,142	0,007	86,778	0	1017,6	6,7	8,6	8,6	1	1	1	1	1	1	1	1	1	0	1	-9,584214	273,997267	309,987242	0
15.01.2021	21:49:03	0	0	3,502419	2,08275	300,402	0,01	86,784	0	1017,48	6,7	8,7	8,6	1	1	1	1	1	1	1	1	1	0	1	-6,060606	274,07014	313,850962	0
15.01.2021	21:49:04	0	0	4,632231	2,1285	318,852	0,005	86,775	0	1017,4	6,7	8,6	8,6	1	1	1	1	1	1	1	1	1	0	1	-8,245243	274,006175	311,367776	0
15.01.2021	21:49:05	0	0	4,293287	2,238	315,198	0,007	86,768	0	1017,54	6,7	8,7	8,6	1	1	1	1	1	1	1	1	1	0	1	-3,735025	273,887734	315,32573	0
15.01.2021	21:49:06	0	0	1,920681	2,33175	308,6064	0,005	86,772	0	1017,48	6,7	8,6	8,6	1	1	1	1	1	1	1	1	1	0	1	-8,949965	273,939462	310,3519	0
15.01.2021	21:49:07	0	0	4,632231	2,3535	309,5928	0,006	86,78	0	1017,46	6,7	8,7	8,6	1	1	1	1	1	1	1	1	1	0	1	-7,681466	274,044826	312,111928	0
15.01.2021	21:49:08	0	0	4,180306	2,376	314,784	0,005	86,766	0	1017,44	6,7	8,6	8,6	1	1	1	1	1	1	1	1	1	0	1	-11,134602	273,960193	308,263926	0
15.01.2021	21:49:09	0	0	2,937512	2,469	318,7584	0,011	86,774	0	1017,44	6,7	8,7	8,6	1	1	1	1	1	1	1	1	1	0	1	-10,077519	274,06865	309,827092	0
15.01.2021	21:49:10	0	0	3,502419	2,39325	322,2468	0,01	86,779	0	1017,58	6,7	8,7	8,6	1	1	1	1	1	1	1	1	1	0	1	-8,174771	273,911364	310,996108	0
15.01.2021	21:49:11	0	0	3,6154	2,17275	299,7576	0,008	86,786	0	1017,4	6,7	8,6	8,6	1	1	1	1	1	1	1	1	1	0	1	-6,906272	274,064181	312,977474	0
15.01.2021	21:49:12	0	0	3,728381	2,07	289,2204	0,01	86,785	0	1017,44	6,7	8,7	8,6	1	1	1	1	1	1	1	1	1	0	1	-3,312192	273,924668	315,920704	0
15.01.2021	21:49:13	0	0	4,406268	2,0715	313,1784	0,007	86,778	0	1017,56	6,7	8,6	8,6	1	1	1	1	1	1	1	1	1	0	1	-7,82241	274,074611	312,110032	0
15.01.2021	21:49:14	0	0	3,502419	2,043	310,6584	0,004	86,769	0	1017,48	6,7	8,7	8,6	1	1	1	1	1	1	1	1	1	0	1	-9,513742	273,958711	309,877877	0
15.01.2021	21:49:15	0	0	4,51925	2,0715	308,844	0,004	86,788	0	1017,4	6,7	8,6	8,6	1	1	1	1	1	1	1	1	1	0	1	-8,597604	274,06716	311,300052	0
15.01.2021	21:49:16	0	0	4,745212	2,127	303,1416	0,001	86,778	0	1017,38	6,6	8,7	8,6	1	1	1	1	1	1	1	1	1	0	1	-8,738548	274,01806	310,929924	0
15.01.2021	21:49:17	0	0	2,937512	2,22975	312,498	0,005	86,774	0	1017,42	6,7	8,7	8,6	1	1	1	1	1	1	1	1	1	0	1	-6,342495	273,88921	312,725138	0
15.01.2021	21:49:18	0	0	4,745212	2,2785	318,1284	0,012	86,785	0	1017,42	6,7	8,7	8,6	1	1	1	1	1	1	1	1	1	0	1	-5,919662	273,995783	313,64487	0
15.01.2021	21:49:19	0	0	3,389437	2,283	315,252	-0,003	86,77	0	1017,48	6,7	8,6	8,6	1	1	1	1	1	1	1	1	1	0	1	-5,919662	273,877405	313,092965	0
15.01.2021	21:49:20	0	0	3,050494	2,2965	329,8212	0,004	86,781	0	1017,3	6,7	8,7	8,6	1	1	1	1	1	1	1	1	1	0	1	-7,540521	273,91432	311,644134	0
15.01.2021	21:49:21	0	0	3,728381	2,35125	322,686	0,004	86,766	0	1017,38	6,7	8,6	8,6	1	1	1	1	1	1	1	1	1	0	1	-9,231853	273,921711	309,987256	0
15.01.2021	21:49:22	0	0	3,954344	2,39775	321,8616	0,009	86,778	0	1017,5	6,6	8,6	8,6	1	1	1	1	1	1	1	1	1	0	1	-8,668076	274,056734	311,180906	0
15.01.2021	21:49:23	0	0	2,485587	2,3625	320,7564	0	86,775	0	1017,42	6,7	8,7	8,6	1	1	1	1	1	1	1	1	1	0	1	-7,963354	273,964638	311,455904	0
15.01.2021	21:49:24	0	0	3,841362	2,3085	312,8616	0,007	86,788	0	1017,48	6,7	8,6	8,6	1	1	1	1	1	1	1	1	1	0	1	-4,721635	273,87888	314,297865	0
15.01.2021	21:49:25	0	0	3,841362	2,2065	314,4132	0,004	86,778	0	1017,3	6,7	8,6	8,6	1	1	1	1	1	1	1	1	1	0	1	-10,007047	274,006175	309,605972	0
15.01.2021	21:49:26	0	0	2,824531	2,04975	310,68	0,001	86,785	0	1017,5	6,6	8,6	8,6	1	1	1	1	1	1	1	1	1	0	1	-10,570825	273,874454	308,428057	0
15.01.2021	21:49:27	0	0	4,406268	1,857	304,7328	0,007	86,783	0	1017,38	6,7	8,6	8,6	1	1	1	1	1	1	1	1	1	0	1	-11,06413	274,015088	308,590476	0
15.01.2021	21:49:28	0	0	2,598569	1,674	306,2016	0	86,789	0	1017,26	6,7	8,6	8,6	1	1	1	1	1	1	1	1	1	0	1	-7,117689	273,877405	311,894938	0
15.01.2021	21:49:29	0	0	4,745212	1,70025	297,8424	0,007	86,788	0	1017,36	6,6	8,7	8,6	1	1	1	1	1	1	1	1	1	0	1	-5,426357	273,951305	313,930729	0
15.01.2021	21:49:30	0	0	4,067325	1,97025	309,2076	0,009	86,797	0	1017,48	6,7	8,7	8,6	1	1	1	1	1	1	1	1	1	0	1	-13,6716	274,056734	306,177382	0
15.01.2021	21:49:31	0	0	4,180306	2,193	311,8068	0,009	86,799	0	1017,42	6,7	8,7	8,6	1	1	1	1	1	1	1	1	1	0	1	-8,527132	273,973531	310,933604	0
15.01.2021	21:49:32	0	0	2,824531	2,349	315,8892	0,006	86,776	0	1017,5	6,7	8,6	8,6	1	1	1	1	1	1	1	1	1	0	1	-9,372798	274,061202	310,497041	0
15.01.2021	21:49:33	0	0	3,841362	2,36475	313,2216	0,007	86,794	0	1017,38	6,7	8,6	8,6	1	1	1	1	1	1	1	1	1	0	1	-6,8358	273,906931	312,314418	0
15.01.2021	21:49:34	0	0	3,502419	2,3475	314,0676	0,009	86,778	0	1017,36	6,7	8,6	8,6	1	1	1	1	1	1	1	1	1	0	1	-6,060606	273,906931	313,089612	0
15.01.2021	21:49:35	0	0	3,163475	2,2845	313,236	0,008	86,789	0	1017,58	6,7	8,7	8,6	1	1	1	1	1	1	1	1	1	0	1	-8,104299	274,01806	311,564174	0
15.01.2021	21:49:36	0	0	3,728381	2,1915	315,8316	0,009	86,801	0	1017,5	6,7	8,6	8,6	1	1	1	1	1	1	1	1	1	0	1	-7,610994	273,887734	311,449761	0
15.01.2021	21:49:37	0	0	2,71155	2,14425	317,7432	0,002	86,779	0	1017,32	6,7	8,6	8,6	1	1	1	1	1	1	1	1	1	0	1	-4,016913	273,992814	315,53377	0
15.01.2021	21:49:38	0	0	4,067325	2,0715	328,59	0,013	86,789	0	1017,44	6,7	8,7	8,6	1	1	1	1	1	1	1	1	1	0	1	-4,933051	273,872979	314,058958	0
15.01.2021	21:49:39	0	0	5,310118	2,0115	327,1608	0,01	86,793	0	1017,46	6,7	8,6	8,6	1	1	1	1	1	1	1	1	1	0	1	-6,20155	273,995783	313,362981	0
15.01.2021	21:49:40	0	0	2,824531	2,08425	323,2872	0,005	86,8	0	1017,4	6,6	8,6	8,6	1	1	1	1	1	1	1	1	1	0	1	-12,332629	273,906931	306,817589	0
15.01.2021	21:49:41	0	0	4,180306	2,15775	327,1644	0,014	86,786	0	1017,54	6,7	8,7	8,6	1	1	1	1	1	1	1	1	1	0	1	-7,047216	273,890686	312,027295	0
15.01.2021	21:49:42	0	0	3,050494	2,14575	327,7944	0,004	86,793	0	1017,38	6,7	8,6	8,6	1	1	1	1	1	1	1	1	1	0	1	-9,654686	273,995783	309,909845	0
15.01.2021	21:49:43	0	0	3,276456	2,08425	317,3364	0,007	86,789	0	1017,6	6,7	8,7	8,6	1	1	1	1	1	1	1	1	1	0	1	-2,396054	273,88921	316,671579	0
15.01.2021	21:49:44	0	0	4,293287	2,02125	306,8208	-0,001	86,793	0	1017,44	6,7	8,6	8,6	1	1	1	1	1	1	1	1	1	0	1	-3,523608	274,010631	316,110201	0
15.01.2021	21:49:45	0	0	4,971175	1,857	322,632	0,008	86,769	0	1017,42	6,7	8,6	8,6	1	1	1	1	1	1	1	1	1	0	1	-7,258633	274,044826	312,534761	0
15.01.2021	21:49:46	0	0	4,745212	1,755	306,1476	0,007	86,774	0	1017,36	6,7	8,7	8,6	1	1	1	1	1	1	1	1	1	0	1	-4,721635	273,927626	314,525049	0
15.01.2021	21:49:47	0	0	3,389437	1,668	300,978	0,007	86,785	0	1017,4	6,7	8,7	8,6	1	1	1	1	1	1	1	1	1	0	1	-6,765328	273,883306	312,274797	0
15.01.2021	21:49:48	0	0	3,050494	1,64325	301,608	0,006	86,768	0	1017,42	6,8	8,6	8,6	1	1	1	1	1	1	1	1	1	0	1	-10,007047	274,003205	309,592115	0
15.01.2021	21:49:49	0	0	5,084156	1,578	319,5648	0,009	86,8	0	1017,22	6,7	8,7	8,6	1	1	1	1	1	1	1	1	1	0	1	-7,540521	274,062691	312,33627	0
15.01.2021	21:49:50	0	0	4,067325	1,67025	314,0784	0,01	86,791	0	1017,5	6,7	8,6	8,6	1	1	1	1	1	1	1	1	1	0	1	-5,496829	273,960193	313,9017	0
15.01.2021	21:49:51	0	0	4,971175	1,6725	317,826	0,008	86,792	0	1017,54	6,7	8,7	8,6	1	1	1	1	1	1	1	1	1	0	1	-7,047216	274,064181	312,836529	0
15.01.2021	21:49:52	0	0	3,6154	1,575	324,792	0,008	86,793	0	1017,34	6,7	8,6	8,6	1	1	1	1	1	1	1	1	1	0	1	-8,80902	273,945383	310,520449	0
15.01.2021	21:49:53	0	0	2,71155	1,6035	312,3972	0,011	86,8	0	1017,5	6,7	8,6	8,6	1	1	1	1	1	1	1	1	1	0	1	-7,540521	273,872979	311,451488	0
15.01.2021	21:49:54	0	0	2,937512	1,7325	320,4036	0,009	86,804	0	1017,34	6,7	8,6	8,6	1	1	1	1	1	1	1	1	1	0	1	-7,258633	274,031438	312,472274	0
15.01.2021	21:49:55	0	0	5,084156	1,8135	326,2968	0,005	86,785	0	1017,22	6,7	8,6	8,6	1	1	1	1	1	1	1	1	1	0	1	-5,144468	274,040363	314,628091	0
15.01.2021	21:49:56	0	0	4,51925	1,79625	338,0076	0,003	86,795	0	1017,46	6,7	8,6	8,6	1	1	1	1	1	1	1	1	1	0	1	-7,681466	273,88921	311,386167	0
15.01.2021	21:49:57	0	0	4,858193	1,6635	332,3196	0,003	86,787	0	1017,44	6,7	8,6	8,6	1	1	1	1	1	1	1	1	1	0	1	-7,117689	273,975014	312,349963	0
15.01.2021	21:49:58	0	0	4,067325	1,59975	327,4308	0,007	86,79	0	1017,42	6,6	8,6	8,6	1	1	1	1	1	1	1	1	1	0	1	-5,144468	274,06865	314,760144	0
15.01.2021	21:49:59	0	0	3,728381	1,49625	323,3124	0,002	86,798	0	1017,38	6,7	8,6	8,6	1	1	1	1	1	1	1	1	1	0	1	-4,510218	274,010631	315,123591	0
15.01.2021	21:50:00	0	0	4,067325	1,41525	315,8784	0,004	86,795	0	1017,44	6,6	8,7	8,6	1	1	1	1	1	1	1	1	1	0	1	-8,949965	273,887734	310,11079	0
15.01.2021	21:50:01	0	0	3,841362	1,42125	306,162	0,008	86,792	0	1017,46	6,7	8,6	8,6	1	1	1	1	1	1	1	1	1	0	1	-6,060606	273,927626	313,186078	0
15.01.2021	21:50:02	0	0	2,937512	1,51275	329,3532	0,007	86,786	0	1017,46	6,7	8,7	8,6	1	1	1	1	1	1	1	1	1	0	1	-11,486963	273,924668	307,745933	0
15.01.2021	21:50:03	0	0	3,502419	1,61625	316,944	0,009	86,802	0	1017,46	6,7	8,6	8,6	1	1	1	1	1	1	1	1	1	0	1	-5,144468	273,877405	313,868159	0
15.01.2021	21:50:04	0	0	4,745212	1,64925	308,826	0	86,785	0	1017,34	6,7	8,6	8,6	1	1	1	1	1	1	1	1	1	0	1	-8,45666	273,961674	310,948778	0
15.01.2021	21:50:05	0	0	4,180306	1,674	302,8212	0,007	86,798	0	1017,34	6,7	8,6	8,6	1	1	1	1	1	1	1	1	1	0	1	-9,584214	273,88921	309,483418	0
15.01.2021	21:50:06	0	0	4,067325	1,6605	303,1776	0,004	86,806	0	1017,5	6,7	8,7	8,6	1	1	1	1	1	1	1	1	1	0	1	-8,245243	273,955749	311,132561	0
15.01.2021	21:50:07	0	0	4,180306	1,77525	315,4176	0,009	86,802	0	1017,44	6,7	8,6	8,6	1	1	1	1	1	1	1	1	1	0	1	-9,44327	273,905453	309,700062	0
15.01.2021	21:50:08	0	0	4,180306	1,86075	312,1524	0,004	86,802	0	1017,58	6,7	8,7	8,6	1	1	1	1	1	1	1	1	1	0	1	-4,298802	273,880355	314,727572	0
15.01.2021	21:50:09	0	0	3,389437	1,9245	312,264	0,008	86,804	0	1017,5	6,7	8,6	8,6	1	1	1	1	1	1	1	1	1	0	1	-8,315715	274,024005	311,380499	0
15.01.2021	21:50:10	0	0	2,485587	1,91925	306,1044	0,008	86,813	0	1017,42	6,7	8,6	8,6	1	1	1	1	1	1	1	1	1	0	1	-3,664553	273,902499	315,465011	0
15.01.2021	21:50:11	0	0	3,163475	1,9995	303,912	-0,002	86,782	0	1017,4	6,7	8,7	8,6	1	1	1	1	1	1	1	1	1	0	1	-6,131078	273,926147	313,108711	0
15.01.2021	21:50:12	0	0	2,824531	2,12025	306,072	0,005	86,791	0	1017,48	6,7	8,6	8,6	1	1	1	1	1	1	1	1	1	0	1	-7,047216	273,91432	312,13744	0
15.01.2021	21:50:13	0	0	4,971175	2,2305	307,1952	0,002	86,792	0	1017,36	6,7	8,6	8,6	1	1	1	1	1	1	1	1	1	0	1	-7,751938	273,908408	311,405166	0
15.01.2021	21:50:14	0	0	3,276456	2,1855	307,2096	0,006	86,787	0	1017,34	6,7	8,6	8,6	1	1	1	1	1	1	1	1	1	0	1	-9,090909	274,044826	310,702485	0
15.01.2021	21:50:15	0	0	4,632231	2,139	305,3808	0,006	86,809	0	1017,44	6,7	8,7	8,6	1	1	1	1	1	1	1	1	1	0	1	-6,483439	273,99133	313,060322	0
15.01.2021	21:50:16	0	0	4,51925	2,09625	321,9516	0,012	86,811	0	1017,48	6,7	8,6	8,6	1	1	1	1	1	1	1	1	1	0	1	-8,597604	274,062691	311,279188	0
15.01.2021	21:50:17	0	0	4,745212	2,1	305,0784	-0,002	86,802	0	1017,5	6,7	8,7	8,6	1	1	1	1	1	1	1	1	1	0	1	-5,496829	273,960193	313,9017	0
15.01.2021	21:50:18	0	0	5,084156	2,17725	314,0532	0,005	86,79	0	1017,5	6,7	8,6	8,6	1	1	1	1	1	1	1	1	1	0	1	-3,735025	273,898068	315,373889	0
15.01.2021	21:50:19	0	0	3,841362	2,21475	302,4972	0,009	86,795	0	1017,44	6,7	8,6	8,6	1	1	1	1	1	1	1	1	1	0	1	-6,412967	273,983912	313,096189	0
15.01.2021	21:50:20	0	0	4,067325	2,10225	309,5028	0,01	86,801	0	1017,48	6,7	8,6	8,6	1	1	1	1	1	1	1	1	1	0	1	-6,272023	273,871505	312,713116	0
15.01.2021	21:50:21	0	0	4,180306	1,98975	306,0972	0,008	86,798	0	1017,46	6,7	8,6	8,6	1	1	1	1	1	1	1	1	1	0	1	-7,892882	273,992814	311,657801	0
15.01.2021	21:50:22	0	0	4,971175	1,9305	309,8808	0,01	86,807	0	1017,54	6,7	8,6	8,6	1	1	1	1	1	1	1	1	1	0	1	-6,624383	273,877405	312,388243	0
15.01.2021	21:50:23	0	0	4,180306	1,86075	313,65	0,006	86,814	0	1017,36	6,7	8,7	8,6	1	1	1	1	1	1	1	1	1	0	1	-7,470049	274,034413	312,274739	0
15.01.2021	21:50:24	0	0	3,6154	1,85625	325,9872	0,005	86,802	0	1017,42	6,7	8,6	8,6	1	1	1	1	1	1	1	1	1	0	1	-7,329105	273,942422	311,986561	0
15.01.2021	21:50:25	0	0	2,71155	1,8945	330,3792	0,007	86,785	0	1017,3	6,7	8,6	8,6	1	1	1	1	1	1	1	1	1	0	1	-7,188161	273,875929	311,817593	0
15.01.2021	21:50:26	0	0	5,084156	1,9515	322,56	0,005	86,799	0	1017,46	6,7	8,6	8,6	1	1	1	1	1	1	1	1	1	0	1	-8,104299	273,945383	311,225171	0
15.01.2021	21:50:27	0	0	3,728381	2,10975	316,5372	0,007	86,808	0	1017,4	6,7	8,6	8,6	1	1	1	1	1	1	1	1	1	0	1	-9,584214	274,037387	310,174458	0
15.01.2021	21:50:28	0	0	4,971175	2,2365	321,8904	0,008	86,806	0	1017,42	6,7	8,6	8,6	1	1	1	1	1	1	1	1	1	0	1	-5,285412	274,064181	314,598333	0
15.01.2021	21:50:29	0	0	4,745212	2,1165	331,0452	0,006	86,81	0	1017,44	6,7	8,7	8,6	1	1	1	1	1	1	1	1	1	0	1	-8,668076	273,998751	310,910306	0
15.01.2021	21:50:30	0	0	4,858193	1,9005	298,4148	0,002	86,793	0	1017,4	6,7	8,6	8,6	1	1	1	1	1	1	1	1	1	0	1	-9,654686	274,061202	310,215152	0
15.01.2021	21:50:31	0	0	4,180306	1,77525	324,828	0,006	86,802	0	1017,6	6,7	8,7	8,6	1	1	1	1	1	1	1	1	1	0	1	-10,007047	273,940942	309,301718	0
15.01.2021	21:50:32	0	0	2,485587	1,7385	328,9572	0,002	86,795	0	1017,36	6,6	8,6	8,6	1	1	1	1	1	1	1	1	1	0	1	-9,302326	273,883306	309,737799	0
15.01.2021	21:50:33	0	0	3,276456	1,68225	325,998	0,002	86,797	0	1017,38	6,7	8,6	8,6	1	1	1	1	1	1	1	1	1	0	1	-6,20155	273,952786	313,162441	0
15.01.2021	21:50:34	0	0	2,824531	1,617	325,242	0,004	86,789	0	1017,44	6,7	8,6	8,6	1	1	1	1	1	1	1	1	1	0	1	-4,510218	273,884782	314,536782	0
15.01.2021	21:50:35	0	0	4,293287	1,62225	324,3888	0,008	86,802	0	1017,34	6,7	8,6	8,6	1	1	1	1	1	1	1	1	1	0	1	-3,171247	274,001721	316,420987	0
15.01.2021	21:50:36	0	0	4,51925	1,62	332,82	0,002	86,806	0	1017,46	6,7	8,7	8,6	1	1	1	1	1	1	1	1	1	0	1	-8,245243	273,886258	310,808634	0
15.01.2021	21:50:37	0	0	4,971175	1,63425	323,3844	-0,002	86,781	0	1017,12	6,7	8,7	8,6	1	1	1	1	1	1	1	1	1	0	1	-12,403101	273,997267	307,168356	0
15.01.2021	21:50:38	0	0	4,858193	1,64025	306,7956	0,006	86,799	0	1017,44	6,7	8,6	8,6	1	1	1	1	1	1	1	1	1	0	1	-6,906272	274,034413	312,838516	0
15.01.2021	21:50:39	0	0	4,858193	1,7295	311,3856	0	86,785	0	1017,46	6,7	8,6	8,6	1	1	1	1	1	1	1	1	1	0	1	-3,312192	273,933543	315,962078	0
15.01.2021	21:50:40	0	0	4,406268	1,809	306,0936	0,005	86,799	0	1017,46	6,7	8,6	8,6	1	1	1	1	1	1	1	1	1	0	1	-9,725159	273,862658	309,218768	0
15.01.2021	21:50:41	0	0	3,389437	1,74975	299,3544	0,005	86,809	0	1017,32	6,7	8,6	8,6	1	1	1	1	1	1	1	1	1	0	1	-8,668076	273,92319	310,557926	0
15.01.2021	21:50:42	0	0	3,502419	1,69575	299,34	0,004	86,806	0	1017,56	6,7	8,7	8,6	1	1	1	1	1	1	1	1	1	0	1	-7,82241	273,940942	311,486355	0
15.01.2021	21:50:43	0	0	3,954344	1,8105	296,1072	0,004	86,798	0	1017,54	6,7	8,6	8,6	1	1	1	1	1	1	1	1	1	0	1	-2,536998	274,061202	317,33284	0
15.01.2021	21:50:44	0	0	2,71155	1,93425	295,56	0,003	86,803	0	1017,6	6,7	8,7	8,6	1	1	1	1	1	1	1	1	1	0	1	-11,06413	274,053757	308,770951	0
15.01.2021	21:50:45	0	0	2,824531	1,968	289,5624	0,002	86,795	0	1017,44	6,7	8,7	8,6	1	1	1	1	1	1	1	1	1	0	1	-5,919662	273,933543	313,354607	0
15.01.2021	21:50:46	0	0	3,954344	1,9335	291,1752	0,003	86,8	0	1017,32	6,7	8,6	8,6	1	1	1	1	1	1	1	1	1	0	1	-8,315715	273,877405	310,696911	0
15.01.2021	21:50:47	0	0	4,067325	1,899	292,9176	-0,001	86,79	0	1017,48	6,7	8,6	8,6	1	1	1	1	1	1	1	1	1	0	1	-7,329105	274,019546	312,346302	0
15.01.2021	21:50:48	0	0	4,745212	1,86825	300,8628	0,002	86,795	0	1017,38	6,7	8,6	8,6	1	1	1	1	1	1	1	1	1	0	1	-10,641297	274,015088	309,013308	0
15.01.2021	21:50:49	0	0	3,050494	1,8315	301,2552	0,007	86,829	0	1017,46	6,7	8,7	8,6	1	1	1	1	1	1	1	1	1	0	1	-10,570825	274,049291	309,24341	0
15.01.2021	21:50:50	0	0	2,485587	1,788	308,3976	0,007	86,807	0	1017,46	6,7	8,7	8,6	1	1	1	1	1	1	1	1	1	0	1	-7,047216	273,994298	312,510391	0
15.01.2021	21:50:51	0	0	3,389437	1,845	302,8104	0,004	86,799	0	1017,3	6,7	8,6	8,6	1	1	1	1	1	1	1	1	1	0	1	-13,883016	273,874454	305,115865	0
15.01.2021	21:50:52	0	0	2,824531	1,7415	323,3376	0,004	86,813	0	1017,46	6,7	8,6	8,6	1	1	1	1	1	1	1	1	1	0	1	-6,272023	273,937982	313,022942	0
15.01.2021	21:50:53	0	0	4,858193	1,61475	327,4236	0,002	86,807	0	1017,36	6,7	8,7	8,6	1	1	1	1	1	1	1	1	1	0	1	-8,879493	273,920233	310,332725	0
15.01.2021	21:50:54	0	0	3,954344	1,56375	322,6356	0,008	86,821	0	1017,48	6,7	8,6	8,6	1	1	1	1	1	1	1	1	1	0	1	-5,285412	273,886258	313,768465	0
15.01.2021	21:50:55	0	0	4,406268	1,575	313,992	0,008	86,809	0	1017,32	6,7	8,6	8,6	1	1	1	1	1	1	1	1	1	0	1	-5,567301	274,021032	314,115041	0
15.01.2021	21:50:56	0	0	3,050494	1,66275	319,1832	0	86,79	0	1017,48	6,7	8,7	8,6	1	1	1	1	1	1	1	1	1	0	1	-7,399577	273,884782	311,647423	0
15.01.2021	21:50:57	0	0	4,406268	1,7115	303,48	-0,002	86,799	0	1017,46	6,7	8,6	8,6	1	1	1	1	1	1	1	1	1	0	1	-9,231853	273,989846	310,304985	0
15.01.2021	21:50:58	0	0	2,824531	1,7745	303,5196	0,004	86,81	0	1017,4	6,7	8,6	8,6	1	1	1	1	1	1	1	1	1	0	1	-8,597604	273,87888	310,421896	0
15.01.2021	21:50:59	0	0	4,51925	1,79775	299,3364	0,003	86,821	0	1017,58	6,7	8,6	8,6	1	1	1	1	1	1	1	1	1	0	1	-6,272023	273,961674	313,133415	0
15.01.2021	21:51:00	0	0	2,824531	1,791	298,998	-0,002	86,813	0	1017,48	6,7	8,6	8,6	1	1	1	1	1	1	1	1	1	0	1	-10,852713	274,0359	308,899017	0
15.01.2021	21:51:01	0	0	2,598569	1,7085	312,48	0	86,801	0	1017,4	6,7	8,7	8,6	1	1	1	1	1	1	1	1	1	0	1	-9,866103	274,04185	309,9134	0
15.01.2021	21:51:02	0	0	4,293287	1,85475	309,2436	0,003	86,8	0	1017,48	6,7	8,6	8,6	1	1	1	1	1	1	1	1	1	0	1	-2,677942	273,994298	316,879665	0
15.01.2021	21:51:03	0	0	2,485587	2,07675	311,328	-0,005	86,808	0	1017,52	6,7	8,6	8,6	1	1	1	1	1	1	1	1	1	0	1	-5,708245	274,050779	314,112937	0
15.01.2021	21:51:04	0	0	4,067325	2,27925	318,78	0,002	86,809	0	1017,36	6,7	8,6	8,6	1	1	1	1	1	1	1	1	1	0	1	-9,020437	274,010631	310,613372	0
15.01.2021	21:51:05	0	0	4,293287	2,45175	314,4456	0,005	86,81	0	1017,32	6,7	8,6	8,6	1	1	1	1	1	1	1	1	1	0	1	-11,346018	273,930585	307,914457	0
15.01.2021	21:51:06	0	0	3,502419	2,46675	315,9036	0,003	86,819	0	1017,66	6,7	8,6	8,6	1	1	1	1	1	1	1	1	1	0	1	-11,346018	274,056734	308,502964	0
15.01.2021	21:51:07	0	0	2,71155	2,41425	310,1076	0,004	86,82	0	1017,36	6,7	8,6	8,6	1	1	1	1	1	1	1	1	1	0	1	-6,483439	273,921711	312,735671	0
15.01.2021	21:51:08	0	0	4,632231	2,2245	314,8776	0,002	86,81	0	1017,48	6,7	8,6	8,6	1	1	1	1	1	1	1	1	1	0	1	-12,332629	273,88921	306,735004	0
15.01.2021	21:51:09	0	0	4,067325	2,0985	315,5256	0,007	86,813	0	1017,52	6,7	8,6	8,6	1	1	1	1	1	1	1	1	1	0	1	-10,782241	274,021032	308,900101	0
15.01.2021	21:51:10	0	0	3,6154	2,034	310,6368	0	86,815	0	1017,26	6,7	8,6	8,6	1	1	1	1	1	1	1	1	1	0	1	-10,288936	274,059713	309,57395	0
15.01.2021	21:51:11	0	0	4,971175	1,8435	303,9192	-0,002	86,809	0	1017,38	6,7	8,6	8,6	1	1	1	1	1	1	1	1	1	0	1	-10,218464	273,95723	309,166248	0
15.01.2021	21:51:12	0	0	4,180306	1,78575	312,516	-0,001	86,801	0	1017,5	6,7	8,6	8,6	1	1	1	1	1	1	1	1	1	0	1	-10,641297	273,880355	308,385078	0
15.01.2021	21:51:13	0	0	2,937512	1,83375	307,5912	-0,001	86,803	0	1017,42	6,7	8,7	8,6	1	1	1	1	1	1	1	1	1	0	1	-19,027484	273,982429	300,474753	0
15.01.2021	21:51:14	0	0	3,6154	1,92675	314,0316	0	86,802	0	1017,38	6,7	8,6	8,6	1	1	1	1	1	1	1	1	1	0	1	-6,8358	274,029951	312,888167	0
15.01.2021	21:51:15	0	0	4,632231	1,99875	311,7564	-0,002	86,786	0	1017,52	6,7	8,7	8,6	1	1	1	1	1	1	1	1	1	0	1	-9,231853	274,0359	310,519877	0
15.01.2021	21:51:16	0	0	4,632231	2,055	319,0968	0,002	86,807	0	1017,54	6,7	8,6	8,6	1	1	1	1	1	1	1	1	1	0	1	-7,329105	273,940942	311,97966	0
15.01.2021	21:51:17	0	0	2,824531	2,09925	318,1212	-0,001	86,803	0	1017,5	6,7	8,6	8,6	1	1	1	1	1	1	1	1	1	0	1	-9,584214	273,861184	309,352846	0
15.01.2021	21:51:18	0	0	3,502419	1,9965	327,852	-0,005	86,788	0	1017,46	6,7	8,7	8,6	1	1	1	1	1	1	1	1	1	0	1	-9,161381	273,915798	310,030164	0
15.01.2021	21:51:19	0	0	2,937512	1,90425	323,2008	-0,005	86,809	0	1017,4	6,7	8,6	8,6	1	1	1	1	1	1	1	1	1	0	1	-9,302326	274,015088	310,35228	0
15.01.2021	21:51:20	0	0	3,728381	1,93125	318,8268	0,004	86,796	0	1017,42	6,7	8,7	8,6	1	1	1	1	1	1	1	1	1	0	1	-6,20155	274,049291	313,612684	0
15.01.2021	21:51:21	0	0	3,163475	1,94475	312,1668	-0,001	86,788	0	1017,28	6,7	8,6	8,6	1	1	1	1	1	1	1	1	1	0	1	-5,567301	273,920233	313,644917	0
15.01.2021	21:51:22	0	0	3,050494	1,99425	328,9212	-0,008	86,791	0	1017,42	6,7	8,6	8,6	1	1	1	1	1	1	1	1	1	0	1	-9,302326	273,875929	309,703428	0
15.01.2021	21:51:23	0	0	4,745212	1,992	304,2468	0,001	86,809	0	1017,42	6,7	8,6	8,6	1	1	1	1	1	1	1	1	1	0	1	-6,765328	273,970566	312,68158	0
15.01.2021	21:51:24	0	0	2,71155	1,98525	324,3276	0,001	86,814	0	1017,36	6,7	8,6	8,6	1	1	1	1	1	1	1	1	1	0	1	-14,587738	274,058223	305,268196	0
15.01.2021	21:51:25	0	0	3,502419	1,98975	305,892	0,001	86,802	0	1017,54	6,7	8,6	8,6	1	1	1	1	1	1	1	1	1	0	1	-4,087385	273,955749	315,290418	0
15.01.2021	21:51:26	0	0	3,163475	2,016	312,8868	0,002	86,814	0	1017,54	6,7	8,6	8,6	1	1	1	1	1	1	1	1	1	0	1	-6,553911	274,044826	313,239483	0
15.01.2021	21:51:27	0	0	4,51925	1,98825	317,7864	-0,002	86,81	0	1017,52	6,7	8,6	8,6	1	1	1	1	1	1	1	1	1	0	1	-7,117689	273,901022	312,004991	0
15.01.2021	21:51:28	0	0	4,293287	1,941	315,198	0,001	86,817	0	1017,46	6,7	8,7	8,6	1	1	1	1	1	1	1	1	1	0	1	-6,906272	273,946863	312,430101	0
15.01.2021	21:51:29	0	0	2,598569	1,869	308,07	0	86,818	0	1017,46	6,7	8,6	8,6	1	1	1	1	1	1	1	1	1	0	1	-7,751938	273,883306	311,288186	0
15.01.2021	21:51:30	0	0	2,824531	1,78425	309,9564	-0,003	86,807	0	1017,46	6,7	8,7	8,6	1	1	1	1	1	1	1	1	1	0	1	-7,329105	273,918754	311,876221	0
15.01.2021	21:51:31	0	0	4,632231	1,803	317,808	0	86,817	0	1017,36	6,7	8,6	8,6	1	1	1	1	1	1	1	1	1	0	1	-12,966878	273,927626	306,279806	0
15.01.2021	21:51:32	0	0	2,372606	1,7805	326,3832	-0,005	86,801	0	1017,48	6,7	8,6	8,6	1	1	1	1	1	1	1	1	1	0	1	-7,258633	273,915798	311,932913	0
15.01.2021	21:51:33	0	0	4,745212	1,6995	329,3928	-0,004	86,823	0	1017,54	6,7	8,7	8,6	1	1	1	1	1	1	1	1	1	0	1	-7,681466	274,059713	312,18142	0
15.01.2021	21:51:34	0	0	4,406268	1,683	333,432	-0,001	86,81	0	1017,5	6,7	8,6	8,6	1	1	1	1	1	1	1	1	1	0	1	-9,866103	273,942422	309,449563	0
15.01.2021	21:51:35	0	0	4,067325	1,58625	327,3768	-0,003	86,806	0	1017,3	6,7	8,6	8,6	1	1	1	1	1	1	1	1	1	0	1	-7,117689	274,0359	312,634041	0
15.01.2021	21:51:36	0	0	3,6154	1,47975	323,2764	0,001	86,814	0	1017,46	6,7	8,6	8,6	1	1	1	1	1	1	1	1	1	0	1	-10,147992	274,046314	309,652349	0
15.01.2021	21:51:37	0	0	4,51925	1,43025	313,5564	0	86,799	0	1017,48	6,7	8,6	8,6	1	1	1	1	1	1	1	1	1	0	1	-9,795631	273,884782	309,25137	0
15.01.2021	21:51:38	0	0	5,197137	1,46625	319,2012	0,002	86,826	0	1017,32	6,7	8,6	8,6	1	1	1	1	1	1	1	1	1	0	1	-8,174771	273,949825	311,17541	0
15.01.2021	21:51:39	0	0	3,6154	1,4895	317,8044	-0,001	86,808	0	1017,48	6,7	8,6	8,6	1	1	1	1	1	1	1	1	1	0	1	-5,355884	273,892162	313,725506	0
15.01.2021	21:51:40	0	0	3,502419	1,4475	317,286	0,002	86,828	0	1017,66	6,7	8,6	8,6	1	1	1	1	1	1	1	1	1	0	1	-10,147992	274,050779	309,673191	0
15.01.2021	21:51:41	0	0	4,406268	1,506	322,5672	-0,006	86,82	0	1017,42	6,7	8,7	8,6	1	1	1	1	1	1	1	1	1	0	1	-10,218464	273,997267	309,352993	0
15.01.2021	21:51:42	0	0	2,598569	1,584	321,1704	-0,002	86,815	0	1017,38	6,7	8,6	8,6	1	1	1	1	1	1	1	1	1	0	1	-14,940099	274,07312	304,985385	0
15.01.2021	21:51:43	0	0	4,632231	1,7295	315,1296	-0,002	86,815	0	1017,5	6,7	8,7	8,6	1	1	1	1	1	1	1	1	1	0	1	-11,839323	273,942422	307,476342	0
15.01.2021	21:51:44	0	0	3,502419	1,89975	319,1364	-0,009	86,817	0	1017,56	6,7	8,6	8,6	1	1	1	1	1	1	1	1	1	0	1	-9,654686	274,024005	310,041528	0
15.01.2021	21:51:45	0	0	3,728381	1,92825	318,4236	-0,003	86,829	0	1017,42	6,7	8,7	8,6	1	1	1	1	1	1	1	1	1	0	1	-10,007047	273,937982	309,287917	0
15.01.2021	21:51:46	0	0	3,276456	1,812	315,9468	-0,006	86,822	0	1017,5	6,7	8,7	8,6	1	1	1	1	1	1	1	1	1	0	1	-9,654686	273,918754	309,55064	0
15.01.2021	21:51:47	0	0	2,824531	1,7625	313,2	0,004	86,822	0	1017,48	6,7	8,6	8,6	1	1	1	1	1	1	1	1	1	0	1	-11,980268	273,881831	307,052981	0
15.01.2021	21:51:48	0	0	5,197137	1,7085	313,938	0	86,824	0	1017,4	6,7	8,6	8,6	1	1	1	1	1	1	1	1	1	0	1	-8,315715	273,933543	310,958554	0
15.01.2021	21:51:49	0	0	3,6154	1,683	328,1436	-0,009	86,806	0	1017,46	6,7	8,6	8,6	1	1	1	1	1	1	1	1	1	0	1	-8,245243	274,076101	311,694158	0
15.01.2021	21:51:50	0	0	3,954344	1,63425	321,8688	-0,001	86,823	0	1017,5	6,7	8,6	8,6	1	1	1	1	1	1	1	1	1	0	1	-4,510218	273,998751	315,068163	0
15.01.2021	21:51:51	0	0	2,937512	1,599	311,8068	0,001	86,843	0	1017,62	6,7	8,6	8,6	1	1	1	1	1	1	1	1	1	0	1	-7,892882	273,912842	311,284885	0
15.01.2021	21:51:52	0	0	4,293287	1,581	306,0936	0,004	86,807	0	1017,26	6,7	8,6	8,6	1	1	1	1	1	1	1	1	1	0	1	-7,681466	274,047803	312,125821	0
15.01.2021	21:51:53	0	0	4,745212	1,545	315,864	0,002	86,827	0	1017,64	6,7	8,6	8,6	1	1	1	1	1	1	1	1	1	0	1	-11,41649	274,019546	308,258916	0
15.01.2021	21:51:54	0	0	2,485587	1,43025	311,3676	-0,003	86,821	0	1017,48	6,7	8,6	8,6	1	1	1	1	1	1	1	1	1	0	1	-5,708245	273,881831	313,325004	0
15.01.2021	21:51:55	0	0	4,067325	1,4145	302,256	-0,004	86,829	0	1017,42	6,7	8,6	8,6	1	1	1	1	1	1	1	1	1	0	1	-8,386187	274,00766	311,233761	0
15.01.2021	21:51:56	0	0	2,598569	1,35075	315,2448	-0,001	86,818	0	1017,46	6,7	8,6	8,6	1	1	1	1	1	1	1	1	1	0	1	-7,610994	274,056734	312,237988	0
15.01.2021	21:51:57	0	0	4,632231	1,3305	299,4012	-0,004	86,826	0	1017,5	6,6	8,6	8,6	1	1	1	1	1	1	1	1	1	0	1	-8,668076	274,024005	311,028138	0
15.01.2021	21:51:58	0	0	2,937512	1,36875	297,3348	-0,002	86,82	0	1017,5	6,7	8,6	8,6	1	1	1	1	1	1	1	1	1	0	1	-7,892882	273,898068	311,216031	0
15.01.2021	21:51:59	0	0	3,841362	1,341	302,814	-0,004	86,803	0	1017,42	6,7	8,7	8,6	1	1	1	1	1	1	1	1	1	0	1	-5,496829	274,016574	314,16471	0
15.01.2021	21:52:00	0	0	3,502419	1,326	302,3928	-0,002	86,828	0	1017,14	6,7	8,6	8,6	1	1	1	1	1	1	1	1	1	0	1	-3,030303	273,927626	316,216381	0
15.01.2021	21:52:01	0	0	2,937512	1,27725	309,2076	-0,01	86,82	0	1017,3	6,7	8,6	8,6	1	1	1	1	1	1	1	1	1	0	1	-6,412967	274,059713	313,449919	0
15.01.2021	21:52:02	0	0	3,954344	1,2795	304,6068	-0,004	86,811	0	1017,32	6,7	8,6	8,6	1	1	1	1	1	1	1	1	1	0	1	-9,936575	273,985395	309,5795	0
15.01.2021	21:52:03	0	0	4,067325	1,30725	308,8368	-0,006	86,824	0	1017,42	6,7	8,6	8,6	1	1	1	1	1	1	1	1	1	0	1	-7,963354	273,943903	311,359213	0
15.01.2021	21:52:04	0	0	4,180306	1,25325	314,8308	-0,001	86,827	0	1017,5	6,7	8,7	8,6	1	1	1	1	1	1	1	1	1	0	1	-11,205074	274,056734	308,643908	0
15.01.2021	21:52:05	0	0	4,293287	1,28475	303,8904	-0,001	86,837	0	1017,52	6,7	8,6	8,6	1	1	1	1	1	1	1	1	1	0	1	-8,879493	273,88921	310,18814	0
15.01.2021	21:52:06	0	0	3,954344	1,3185	305,676	0,003	86,843	0	1017,38	6,7	8,6	8,6	1	1	1	1	1	1	1	1	1	0	1	-8,315715	273,92319	310,910287	0
15.01.2021	21:52:07	0	0	3,6154	1,27425	309,24	-0,005	86,831	0	1017,42	6,7	8,7	8,6	1	1	1	1	1	1	1	1	1	0	1	-8,527132	274,046314	311,273208	0
15.01.2021	21:52:08	0	0	3,6154	1,3395	296,0928	-0,003	86,822	0	1017,38	6,7	8,6	8,6	1	1	1	1	1	1	1	1	1	0	1	-9,020437	273,921711	310,198673	0
15.01.2021	21:52:09	0	0	3,841362	1,4085	308,1492	0,002	86,84	0	1017,48	6,7	8,7	8,6	1	1	1	1	1	1	1	1	1	0	1	-9,654686	273,881831	309,378563	0
15.01.2021	21:52:10	0	0	3,728381	1,5015	304,704	0	86,833	0	1017,46	6,7	8,6	8,6	1	1	1	1	1	1	1	1	1	0	1	-8,174771	273,905453	310,968561	0
15.01.2021	21:52:11	0	0	3,276456	1,4745	303,4908	-0,001	86,842	0	1017,38	6,7	8,7	8,6	1	1	1	1	1	1	1	1	1	0	1	-5,778717	273,87888	313,240783	0
15.01.2021	21:52:12	0	0	3,6154	1,4535	305,3664	0,001	86,845	0	1017,4	6,7	8,7	8,6	1	1	1	1	1	1	1	1	1	0	1	-4,510218	273,921711	314,708891	0
15.01.2021	21:52:13	0	0	3,728381	1,461	296,4672	0	86,844	0	1017,46	6,7	8,6	8,6	1	1	1	1	1	1	1	1	1	0	1	-5,990134	273,886258	313,063743	0
15.01.2021	21:52:14	0	0	4,745212	1,467	298,0332	0,004	86,856	0	1017,56	6,7	8,6	8,6	1	1	1	1	1	1	1	1	1	0	1	-6,624383	274,032925	313,113464	0
15.01.2021	21:52:15	0	0	2,598569	1,458	287,7552	-0,005	86,833	0	1017,42	6,7	8,6	8,6	1	1	1	1	1	1	1	1	1	0	1	-7,188161	273,884782	311,85884	0
15.01.2021	21:52:16	0	0	4,293287	1,45725	292,6548	0,001	86,848	0	1017,52	6,7	8,6	8,6	1	1	1	1	1	1	1	1	1	0	1	-7,188161	273,930585	312,072315	0
15.01.2021	21:52:17	0	0	4,51925	1,455	299,7972	-0,005	86,837	0	1017,58	6,7	8,6	8,6	1	1	1	1	1	1	1	1	1	0	1	-8,386187	274,0359	311,365543	0
15.01.2021	21:52:18	0	0	4,745212	1,4715	292,6584	0,006	86,85	0	1017,46	6,7	8,7	8,6	1	1	1	1	1	1	1	1	1	0	1	-4,721635	273,986879	314,801361	0
15.01.2021	21:52:19	0	0	5,084156	1,3995	288,3852	0	86,847	0	1017,54	6,7	8,7	8,6	1	1	1	1	1	1	1	1	1	0	1	-8,738548	274,059713	311,124337	0
15.01.2021	21:52:20	0	0	3,050494	1,4085	285,894	-0,008	86,858	0	1017,5	6,7	8,7	8,6	1	1	1	1	1	1	1	1	1	0	1	-5,990134	273,877405	313,022493	0
15.01.2021	21:52:21	0	0	2,937512	1,437	290,1456	0,002	86,836	0	1017,42	6,7	8,6	8,6	1	1	1	1	1	1	1	1	1	0	1	-8,315715	273,977979	311,165768	0
15.01.2021	21:52:22	0	0	2,937565	1,4445	297,2412	-0,001	86,832	0	1017,48	6,7	8,6	8,3	1	1	1	1	1	1	1	1	1	0	1	-6,060606	274,061202	313,809232	0
15.01.2021	21:52:23	0	0	2,71155	1,5315	293,3244	-0,001	86,853	0	1017,46	6,7	8,7	8,6	1	1	1	1	1	1	1	1	1	0	1	-7,117689	274,00469	312,488402	0
15.01.2021	21:52:24	0	0	3,6154	1,55775	296,4816	0,003	86,858	0	1017,48	6,7	8,7	8,6	1	1	1	1	1	1	1	1	1	0	1	-5,496829	274,061202	314,37301	0
15.01.2021	21:52:25	0	0	3,050494	1,55025	303,2064	-0,006	86,842	0	1017,46	6,7	8,6	8,6	1	1	1	1	1	1	1	1	1	0	1	-10,923185	274,003205	308,675977	0
15.01.2021	21:52:26	0	0	3,389437	1,5075	292,1724	0	86,851	0	1017,48	6,7	8,6	8,6	1	1	1	1	1	1	1	1	1	0	1	-8,668076	274,009146	310,958802	0
15.01.2021	21:52:27	0	0	2,71155	1,4835	296,8956	0,002	86,855	0	1017,54	6,7	8,6	8,6	1	1	1	1	1	1	1	1	1	0	1	-10,641297	273,871505	308,343842	0
15.01.2021	21:52:28	0	0	4,067325	1,458	292,5936	-0,01	86,845	0	1017,24	6,7	8,6	8,6	1	1	1	1	1	1	1	1	1	0	1	-9,513742	273,982429	309,988495	0
15.01.2021	21:52:29	0	0	3,6154	1,42125	290,4372	-0,005	86,858	0	1017,38	6,7	8,6	8,6	1	1	1	1	1	1	1	1	1	0	1	-8,386187	273,872979	310,605822	0
15.01.2021	21:52:30	0	0	2,598569	1,389	293,3676	-0,002	86,838	0	1017,54	6,7	8,6	8,6	1	1	1	1	1	1	1	1	1	0	1	-8,879493	273,936503	310,408573	0
15.01.2021	21:52:31	0	0	3,728381	1,32825	297,2736	-0,006	86,846	0	1017,56	6,7	8,6	8,6	1	1	1	1	1	1	1	1	1	0	1	-7,117689	273,865607	311,839973	0
15.01.2021	21:52:32	0	0	4,858193	1,32525	297,4644	0,002	86,855	0	1017,44	6,7	8,6	8,6	1	1	1	1	1	1	1	1	1	0	1	-7,470049	273,972049	311,983772	0
15.01.2021	21:52:33	0	0	2,598569	1,40025	305,3412	-0,013	86,854	0	1017,4	6,7	8,6	8,6	1	1	1	1	1	1	1	1	1	0	1	-8,45666	274,031438	311,274247	0
15.01.2021	21:52:34	0	0	4,180306	1,43175	318,7944	-0,007	86,853	0	1017,28	6,7	8,6	8,6	1	1	1	1	1	1	1	1	1	0	1	-8,949965	274,019546	310,725442	0
15.01.2021	21:52:35	0	0	4,406268	1,401	313,2684	-0,001	86,852	0	1017,5	6,7	8,6	8,6	1	1	1	1	1	1	1	1	1	0	1	-5,285412	274,000236	314,299896	0
15.01.2021	21:52:36	0	0	2,824531	1,3665	311,4468	0,001	86,865	0	1017,4	6,7	8,7	8,6	1	1	1	1	1	1	1	1	1	0	1	-3,100775	274,055245	316,741256	0
15.01.2021	21:52:37	0	0	4,632231	1,3335	307,53	-0,003	86,855	0	1017,38	6,7	8,6	8,6	1	1	1	1	1	1	1	1	1	0	1	-7,117689	274,01806	312,550784	0
15.01.2021	21:52:38	0	0	3,276456	1,32	304,992	0	86,849	0	1017,34	6,7	8,7	8,6	1	1	1	1	1	1	1	1	1	0	1	-9,725159	274,053757	310,109923	0
15.01.2021	21:52:39	0	0	4,51925	1,38375	308,8656	-0,005	86,853	0	1017,52	6,7	8,7	8,6	1	1	1	1	1	1	1	1	1	0	1	-9,372798	273,903976	309,76365	0
15.01.2021	21:52:40	0	0	4,745212	1,36275	316,6884	-0,005	86,857	0	1017,5	6,7	8,6	8,6	1	1	1	1	1	1	1	1	1	0	1	-6,906272	274,025491	312,79688	0
15.01.2021	21:52:41	0	0	2,824531	1,3545	316,6596	-0,005	86,843	0	1017,44	6,7	8,6	8,6	1	1	1	1	1	1	1	1	1	0	1	-5,426357	273,881831	313,606892	0
15.01.2021	21:52:42	0	0	2,485587	1,28325	312,462	0,004	86,864	0	1017,32	6,7	8,6	8,6	1	1	1	1	1	1	1	1	1	0	1	-4,933051	273,906931	314,217167	0
15.01.2021	21:52:43	0	0	3,954344	1,236	315,9	-0,003	86,849	0	1017,34	6,7	8,7	8,6	1	1	1	1	1	1	1	1	1	0	1	-9,161381	274,046314	310,638959	0
15.01.2021	21:52:44	0	0	3,163475	1,2375	320,0364	-0,004	86,853	0	1017,46	6,7	8,6	8,6	1	1	1	1	1	1	1	1	1	0	1	-8,527132	273,91432	310,657524	0
15.01.2021	21:52:45	0	0	4,632231	1,16775	312,8904	-0,007	86,859	0	1017,3	6,7	8,6	8,6	1	1	1	1	1	1	1	1	1	0	1	-7,540521	273,864132	311,410272	0
15.01.2021	21:52:46	0	0	4,745212	1,14375	309,222	-0,004	86,859	0	1017,4	6,7	8,6	8,6	1	1	1	1	1	1	1	1	1	0	1	-9,090909	273,945383	310,238561	0
15.01.2021	21:52:47	0	0	3,6154	1,119	310,9392	-0,004	86,848	0	1017,5	6,7	8,6	8,6	1	1	1	1	1	1	1	1	1	0	1	-7,751938	274,056734	312,097044	0
15.01.2021	21:52:48	0	0	3,841362	1,09725	313,3224	0	86,865	0	1017,42	6,7	8,6	8,6	1	1	1	1	1	1	1	1	1	0	1	-3,875969	273,930585	315,384506	0
15.01.2021	21:52:49	0	0	3,841362	1,0755	313,1964	-0,001	86,863	0	1017,42	6,7	8,6	8,6	1	1	1	1	1	1	1	1	1	0	1	-11,768851	273,91432	307,415805	0
15.01.2021	21:52:50	0	0	2,259625	1,04325	308,8224	0,002	86,866	0	1017,52	6,7	8,6	8,6	1	1	1	1	1	1	1	1	1	0	1	-4,933051	273,898068	314,175862	0
15.01.2021	21:52:51	0	0	4,632231	1,0845	312,8724	-0,003	86,855	0	1017,3	6,7	8,6	8,6	1	1	1	1	1	1	1	1	1	0	1	-6,976744	273,977979	312,504739	0
15.01.2021	21:52:52	0	0	3,276456	1,06875	322,2144	-0,001	86,846	0	1017,44	6,7	8,6	8,6	1	1	1	1	1	1	1	1	1	0	1	-5,285412	274,038875	314,480203	0
15.01.2021	21:52:53	0	0	4,293287	1,03125	316,224	-0,006	86,865	0	1017,56	6,7	8,6	8,6	1	1	1	1	1	1	1	1	1	0	1	-9,161381	273,980945	310,333937	0
15.01.2021	21:52:54	0	0	2,824531	0,9975	303,9228	0,001	86,869	0	1017,26	6,7	8,6	8,6	1	1	1	1	1	1	1	1	1	0	1	-8,668076	273,872979	310,323934	0
15.01.2021	21:52:55	0	0	3,389437	1,01325	308,0484	-0,001	86,863	0	1017,36	6,7	8,6	8,6	1	1	1	1	1	1	1	1	1	0	1	-7,610994	273,943903	311,711574	0
15.01.2021	21:52:56	0	0	3,276456	0,98175	307,2204	-0,001	86,85	0	1017,36	6,7	8,6	8,6	1	1	1	1	1	1	1	1	1	0	1	-8,597604	273,881831	310,435645	0
15.01.2021	21:52:57	0	0	4,51925	0,9945	304,6572	-0,009	86,863	0	1017,26	6,7	8,6	8,6	1	1	1	1	1	1	1	1	1	0	1	-6,694856	273,872979	312,297154	0
15.01.2021	21:52:58	0	0	4,406268	1,05525	305,298	0	86,855	0	1017,34	6,7	8,6	8,6	1	1	1	1	1	1	1	1	1	0	1	-5,778717	273,951305	313,578368	0
15.01.2021	21:52:59	0	0	3,163475	1,152	302,1228	-0,002	86,849	0	1017,42	6,7	8,6	8,6	1	1	1	1	1	1	1	1	1	0	1	-4,933051	273,865607	314,02461	0
15.01.2021	21:53:00	0	0	2,485587	1,236	293,6376	-0,001	86,863	0	1017,48	6,7	8,6	8,6	1	1	1	1	1	1	1	1	1	0	1	-4,298802	273,970566	315,148106	0
15.01.2021	21:53:01	0	0	2,824531	1,2465	295,1496	-0,004	86,862	0	1017,58	6,7	8,6	8,6	1	1	1	1	1	1	1	1	1	0	1	-6,694856	274,046314	313,105485	0
15.01.2021	21:53:02	0	0	2,372606	1,27575	308,052	-0,001	86,878	0	1017,38	6,7	8,6	8,6	1	1	1	1	1	1	1	1	1	0	1	-4,651163	273,861184	314,285897	0
15.01.2021	21:53:03	0	0	2,372606	1,25775	296,2008	-0,003	86,866	0	1017,42	6,7	8,6	8,6	1	1	1	1	1	1	1	1	1	0	1	-10,641297	273,983912	308,867859	0
15.01.2021	21:53:04	0	0	2,598569	1,25925	291,5604	0	86,858	0	1017,48	6,7	8,6	8,6	1	1	1	1	1	1	1	1	1	0	1	-4,933051	273,887734	314,127703	0
15.01.2021	21:53:05	0	0	2,824531	1,26675	295,5528	-0,002	86,852	0	1017,5	6,7	8,6	8,6	1	1	1	1	1	1	1	1	1	0	1	-7,188161	274,034413	312,556628	0
15.01.2021	21:53:06	0	0	3,841362	1,2945	292,23	-0,004	86,866	0	1017,48	6,7	8,6	8,6	1	1	1	1	1	1	1	1	1	0	1	-8,738548	274,009146	310,88833	0
15.01.2021	21:53:07	0	0	4,745212	1,38525	286,6068	-0,009	86,867	0	1017,56	6,7	8,6	8,6	1	1	1	1	1	1	1	1	1	0	1	-7,399577	274,053757	312,435504	0
15.01.2021	21:53:08	0	0	4,745212	1,58775	302,0364	-0,003	86,843	0	1017,36	6,7	8,6	8,6	1	1	1	1	1	1	1	1	1	0	1	-5,778717	273,939462	313,523147	0
15.01.2021	21:53:09	0	0	3,6154	1,9035	292,2336	-0,007	86,853	0	1017,4	6,7	8,6	8,6	1	1	1	1	1	1	1	1	1	0	1	-8,45666	274,049291	311,357575	0
15.01.2021	21:53:10	0	0	4,180306	2,058	297,144	-0,002	86,855	0	1017,48	6,7	8,6	8,6	1	1	1	1	1	1	1	1	1	0	1	-6,765328	273,989846	312,771511	0
15.01.2021	21:53:11	0	0	2,598569	2,14275	312,1524	-0,007	86,859	0	1017,44	6,7	8,6	8,6	1	1	1	1	1	1	1	1	1	0	1	-11,980268	273,892162	307,101123	0
15.01.2021	21:53:12	0	0	4,406268	2,139	299,142	-0,004	86,858	0	1017,46	6,7	8,6	8,6	1	1	1	1	1	1	1	1	1	0	1	-8,033827	273,994298	311,523781	0
15.01.2021	21:53:13	0	0	2,824531	2,0985	284,8176	-0,01	86,859	0	1017,34	6,7	8,6	8,6	1	1	1	1	1	1	1	1	1	0	1	-7,188161	273,911364	311,982718	0
15.01.2021	21:53:14	0	0	4,406268	2,1435	289,1664	-0,005	86,855	0	1017,58	6,7	8,6	8,6	1	1	1	1	1	1	1	1	1	0	1	-8,104299	274,038875	311,661317	0
15.01.2021	21:53:15	0	0	4,406268	2,10675	286,578	-0,014	86,856	0	1017,3	6,7	8,6	8,6	1	1	1	1	1	1	1	1	1	0	1	-6,412967	273,877405	312,59966	0
15.01.2021	21:53:16	0	0	3,163475	2,094	286,5888	-0,006	86,864	0	1017,56	6,7	8,6	8,6	1	1	1	1	1	1	1	1	1	0	1	-5,285412	273,906931	313,864806	0
15.01.2021	21:53:17	0	0	3,728381	2,06625	288,7848	-0,004	86,861	0	1017,44	6,7	8,6	8,6	1	1	1	1	1	1	1	1	1	0	1	-12,191684	273,867081	306,772846	0
15.01.2021	21:53:18	0	0	3,389437	2,1315	283,6044	-0,007	86,851	0	1017,46	6,7	8,6	8,6	1	1	1	1	1	1	1	1	1	0	1	-6,412967	273,927626	312,833717	0
15.01.2021	21:53:19	0	0	3,954344	2,22075	287,7588	-0,004	86,87	0	1017,44	6,7	8,7	8,6	1	1	1	1	1	1	1	1	1	0	1	-7,258633	273,872979	311,733377	0
15.01.2021	21:53:20	0	0	4,293287	2,265	289,1916	-0,013	86,851	0	1017,38	6,7	8,6	8,6	1	1	1	1	1	1	1	1	1	0	1	-9,231853	273,970566	310,215054	0
15.01.2021	21:53:21	0	0	4,971175	2,271	288,8424	-0,01	86,852	0	1017,46	6,7	8,6	8,6	1	1	1	1	1	1	1	1	1	0	1	-7,82241	273,862658	311,121516	0
15.01.2021	21:53:22	0	0	4,745212	2,2425	298,7064	-0,012	86,868	0	1017,4	6,7	8,6	8,6	1	1	1	1	1	1	1	1	1	0	1	-7,329105	273,977979	312,152378	0
15.01.2021	21:53:23	0	0	3,6154	2,235	308,4516	-0,01	86,849	0	1017,54	6,7	8,6	8,6	1	1	1	1	1	1	1	1	1	0	1	-4,439746	274,044826	315,353648	0
15.01.2021	21:53:24	0	0	4,632231	2,19225	298,8036	-0,007	86,858	0	1017,56	6,7	8,6	8,6	1	1	1	1	1	1	1	1	1	0	1	-11,06413	273,927626	308,182555	0
15.01.2021	21:53:25	0	0	4,632231	2,226	301,1832	-0,009	86,858	0	1017,34	6,7	8,6	8,6	1	1	1	1	1	1	1	1	1	0	1	-8,738548	273,909886	310,425443	0
15.01.2021	21:53:26	0	0	2,71155	2,22075	304,614	-0,007	86,866	0	1017,54	6,7	8,7	8,6	1	1	1	1	1	1	1	1	1	0	1	-8,033827	274,022518	311,655451	0
15.01.2021	21:53:27	0	0	4,406268	2,1165	303,534	-0,012	86,859	0	1017,44	6,7	8,6	8,6	1	1	1	1	1	1	1	1	1	0	1	-10,147992	274,00766	309,471957	0
15.01.2021	21:53:28	0	0	2,598569	2,04375	305,712	-0,009	86,868	0	1017,58	6,7	8,6	8,6	1	1	1	1	1	1	1	1	1	0	1	-6,624383	273,87003	312,353885	0
15.01.2021	21:53:29	0	0	4,858193	2,01225	320,0724	-0,018	86,843	0	1017,42	6,7	8,6	8,6	1	1	1	1	1	1	1	1	1	0	1	-12,825934	273,924668	306,406962	0
15.01.2021	21:53:30	0	0	2,71155	1,899	320,7384	-0,012	86,85	0	1017,38	6,7	8,6	8,6	1	1	1	1	1	1	1	1	1	0	1	-10,641297	273,87003	308,336972	0
15.01.2021	21:53:31	0	0	3,276456	1,71375	324,0504	-0,01	86,861	0	1017,44	6,7	8,6	8,6	1	1	1	1	1	1	1	1	1	0	1	-3,030303	274,006175	316,582716	0
15.01.2021	21:53:32	0	0	2,824531	1,6455	306,8388	-0,013	86,859	0	1017,48	6,7	8,7	8,6	1	1	1	1	1	1	1	1	1	0	1	-5,073996	273,939462	314,227869	0
15.01.2021	21:53:33	0	0	3,841362	1,62825	306,1584	-0,008	86,854	0	1017,4	6,7	8,6	8,6	1	1	1	1	1	1	1	1	1	0	1	-6,765328	274,053757	313,069753	0
15.01.2021	21:53:34	0	0	2,824531	1,6635	309,9024	-0,005	86,858	0	1017,2	6,7	8,6	8,6	1	1	1	1	1	1	1	1	1	0	1	-10,641297	273,908408	308,515808	0
15.01.2021	21:53:35	0	0	2,937512	1,6335	316,1844	-0,008	86,858	0	1017,38	6,7	8,6	8,6	1	1	1	1	1	1	1	1	1	0	1	-5,144468	273,858237	313,778861	0
15.01.2021	21:53:36	0	0	4,293287	1,59975	312,1596	-0,014	86,844	0	1017,52	6,7	8,6	8,6	1	1	1	1	1	1	1	1	1	0	1	-7,540521	273,954267	311,830376	0
15.01.2021	21:53:37	0	0	4,067325	1,6665	313,2504	-0,011	86,863	0	1017,36	6,7	8,6	8,6	1	1	1	1	1	1	1	1	1	0	1	-5,990134	274,016574	313,671405	0
15.01.2021	21:53:38	0	0	4,632231	1,68675	327,1248	-0,011	86,854	0	1017,56	6,7	8,7	8,6	1	1	1	1	1	1	1	1	1	0	1	-7,047216	273,874454	311,951665	0
15.01.2021	21:53:39	0	0	2,372606	1,6155	315,9252	-0,01	86,841	0	1017,36	6,7	8,6	8,6	1	1	1	1	1	1	1	1	1	0	1	-9,44327	273,935023	309,837897	0
15.01.2021	21:53:40	0	0	2,598569	1,56975	311,814	-0,006	86,849	0	1017,48	6,7	8,6	8,6	1	1	1	1	1	1	1	1	1	0	1	-8,738548	273,87888	310,280952	0
15.01.2021	21:53:41	0	0	2,71155	1,56975	328,176	-0,014	86,853	0	1017,4	6,7	8,6	8,6	1	1	1	1	1	1	1	1	1	0	1	-8,245243	273,949825	311,104937	0
15.01.2021	21:53:42	0	0	2,824531	1,587	313,2504	-0,008	86,859	0	1017,4	6,7	8,6	8,6	1	1	1	1	1	1	1	1	1	0	1	-6,060606	273,862658	312,88332	0
15.01.2021	21:53:43	0	0	4,632231	1,5675	319,608	-0,009	86,837	0	1017,64	6,7	8,6	8,6	1	1	1	1	1	1	1	1	1	0	1	-5,426357	274,025491	314,276795	0
15.01.2021	21:53:44	0	0	4,067325	1,62	302,076	-0,008	86,852	0	1017,46	6,7	8,6	8,6	1	1	1	1	1	1	1	1	1	0	1	-3,382664	273,967602	316,050418	0
15.01.2021	21:53:45	0	0	3,728381	1,83825	325,4832	-0,011	86,851	0	1017,42	6,7	8,6	8,6	1	1	1	1	1	1	1	1	1	0	1	-7,399577	273,903976	311,73687	0
15.01.2021	21:53:46	0	0	4,51925	2,0295	304,3116	-0,004	86,854	0	1017,38	6,7	8,6	8,6	1	1	1	1	1	1	1	1	1	0	1	-6,483439	273,988363	313,046478	0
15.01.2021	21:53:47	0	0	3,163475	2,0355	312,4584	-0,008	86,833	0	1017,62	6,7	8,6	8,6	1	1	1	1	1	1	1	1	1	0	1	-9,372798	273,865607	309,584864	0
15.01.2021	21:53:48	0	0	2,598569	1,8915	311,7852	-0,012	86,848	0	1017,44	6,7	8,6	8,6	1	1	1	1	1	1	1	1	1	0	1	-7,963354	273,921711	311,255755	0
15.01.2021	21:53:49	0	0	2,372606	1,67025	277,5888	-0,012	86,85	0	1017,38	6,7	8,6	8,6	1	1	1	1	1	1	1	1	1	0	1	-6,553911	274,010631	313,079898	0
15.01.2021	21:53:50	0	0	2,824531	1,6185	287,7552	-0,007	86,842	0	1017,46	6,7	8,6	8,6	1	1	1	1	1	1	1	1	1	0	1	-14,376321	273,867081	304,588208	0
15.01.2021	21:53:51	0	0	2,824531	1,65375	294,8508	-0,015	86,837	0	1017,44	6,7	8,6	8,6	1	1	1	1	1	1	1	1	1	0	1	-9,936575	273,970566	309,510332	0
15.01.2021	21:53:52	0	0	3,502419	1,72125	293,0868	-0,014	86,831	0	1017,6	6,7	8,6	8,6	1	1	1	1	1	1	1	1	1	0	1	-8,45666	273,87888	310,56284	0
15.01.2021	21:53:53	0	0	4,51925	1,64325	298,3248	-0,013	86,854	0	1017,42	6,7	8,6	8,6	1	1	1	1	1	1	1	1	1	0	1	-8,104299	273,96612	311,321871	0
15.01.2021	21:53:54	0	0	3,050494	1,56825	296,4168	-0,012	86,856	0	1017,52	6,7	8,6	8,6	1	1	1	1	1	1	1	1	1	0	1	-7,470049	273,892162	311,611341	0
15.01.2021	21:53:55	0	0	4,51925	1,563	302,418	-0,015	86,842	0	1017,54	6,7	8,6	8,6	1	1	1	1	1	1	1	1	1	0	1	-5,073996	273,918754	314,13133	0
15.01.2021	21:53:56	0	0	3,050494	1,58325	315,1476	-0,008	86,866	0	1017,56	6,7	8,6	8,6	1	1	1	1	1	1	1	1	1	0	1	-10,359408	273,940942	308,949357	0
15.01.2021	21:53:57	0	0	4,180306	1,5525	304,9704	-0,014	86,85	0	1017,46	6,7	8,6	8,6	1	1	1	1	1	1	1	1	1	0	1	-7,399577	274,026978	312,310512	0
15.01.2021	21:53:58	0	0	4,51925	1,608	306,3744	-0,016	86,852	0	1017,3	6,7	8,6	8,6	1	1	1	1	1	1	1	1	1	0	1	-6,976744	273,980945	312,518574	0
15.01.2021	21:53:59	0	0	4,067325	1,71225	319,158	-0,011	86,856	0	1017,52	6,7	8,6	8,6	1	1	1	1	1	1	1	1	1	0	1	-8,949965	273,87888	310,069535	0
15.01.2021	21:54:00	0	0	3,6154	1,98975	309,8844	-0,014	86,842	0	1017,44	6,7	8,6	8,6	1	1	1	1	1	1	1	1	1	0	1	-5,919662	274,016574	313,741877	0
15.01.2021	21:54:01	0	0	3,6154	1,98975	309,8844	-0,014	86,842	0	1017,44	6,7	8,6	8,6	1	1	1	1	1	1	1	1	1	0	1	-3,100775	273,911364	316,070104	0
15.01.2021	21:54:02	0	0	3,276456	2,01	308,088	-0,01	86,845	0	1017,44	6,7	8,6	8,6	1	1	1	1	1	1	1	1	1	0	1	-9,513742	273,862658	309,430184	0
15.01.2021	21:54:03	0	0	4,971175	2,06325	317,0232	-0,012	86,855	0	1017,38	6,7	8,6	8,6	1	1	1	1	1	1	1	1	1	0	1	-10,147992	273,926147	309,091798	0
15.01.2021	21:54:04	0	0	2,824531	2,12175	301,3272	-0,016	86,853	0	1017,5	6,7	8,6	8,6	1	1	1	1	1	1	1	1	1	0	1	-8,879493	273,906931	310,270725	0
15.01.2021	21:54:05	0	0	2,71155	2,172	327,1428	-0,02	86,853	0	1017,52	6,7	8,6	8,6	1	1	1	1	1	1	1	1	1	0	1	-4,298802	274,043338	315,487646	0
15.01.2021	21:54:06	0	0	2,937512	2,124	318,8304	-0,011	86,849	0	1017,58	6,7	8,6	8,6	1	1	1	1	1	1	1	1	1	0	1	-7,681466	273,892162	311,399925	0
15.01.2021	21:54:07	0	0	3,163475	2,157	314,0856	-0,015	86,844	0	1017,48	6,7	8,6	8,6	1	1	1	1	1	1	1	1	1	0	1	-8,45666	273,862658	310,487267	0
15.01.2021	21:54:08	0	0	4,293287	2,16675	324,3672	-0,017	86,858	0	1017,52	6,7	8,6	8,6	1	1	1	1	1	1	1	1	1	0	1	-6,412967	273,88921	312,654666	0
15.01.2021	21:54:09	0	0	4,51925	2,11275	317,7612	-0,015	86,849	0	1017,3	6,7	8,6	8,6	1	1	1	1	1	1	1	1	1	0	1	-8,174771	273,886258	310,879106	0
15.01.2021	21:54:10	0	0	4,180306	2,10675	329,3244	-0,014	86,855	0	1017,46	6,7	8,6	8,6	1	1	1	1	1	1	1	1	1	0	1	-6,20155	274,00766	313,418398	0
15.01.2021	21:54:11	0	0	3,954344	2,16825	333,5004	-0,005	86,854	0	1017,54	6,7	8,6	8,6	1	1	1	1	1	1	1	1	1	0	1	-11,980268	274,032925	307,757579	0
15.01.2021	21:54:12	0	0	4,745212	2,12325	309,8664	-0,011	86,858	0	1017,4	6,7	8,6	8,6	1	1	1	1	1	1	1	1	1	0	1	-11,980268	273,937982	307,314697	0
15.01.2021	21:54:13	0	0	4,51925	1,95975	321,1128	-0,012	86,844	0	1017,48	6,7	8,6	8,6	1	1	1	1	1	1	1	1	1	0	1	-9,513742	273,980945	309,981576	0
15.01.2021	21:54:14	0	0	3,163475	1,86075	318,834	-0,017	86,852	0	1017,3	6,7	8,6	8,6	1	1	1	1	1	1	1	1	1	0	1	-9,44327	274,047803	310,364017	0
15.01.2021	21:54:15	0	0	3,728381	1,863	317,7036	-0,013	86,873	0	1017,44	6,7	8,6	8,6	1	1	1	1	1	1	1	1	1	0	1	-5,990134	273,980945	313,505184	0
15.01.2021	21:54:16	0	0	3,954344	1,914	316,6632	0,004	86,874	0	1017,58	6,7	8,6	8,6	1	1	1	1	1	1	1	1	1	0	1	-11,768851	274,034413	307,975937	0
15.01.2021	21:54:17	0	0	2,937512	2,08425	316,2816	-0,014	86,861	0	1017,42	6,7	8,6	8,6	1	1	1	1	1	1	1	1	1	0	1	-7,399577	273,88921	311,668055	0
15.01.2021	21:54:18	0	0	3,954344	2,1555	313,5564	-0,017	86,863	0	1017,5	6,7	8,6	8,6	1	1	1	1	1	1	1	1	1	0	1	-7,751938	274,043338	312,03451	0
15.01.2021	21:54:19	0	0	2,824565	2,142	310,2768	-0,013	86,868	0	1017,64	6,7	8,6	8,4	1	1	1	1	1	1	1	1	1	0	1	-4,933051	273,977979	314,548432	0
15.01.2021	21:54:20	0	0	3,502419	2,07525	317,3976	-0,012	86,866	0	1017,48	6,7	8,6	8,6	1	1	1	1	1	1	1	1	1	0	1	-6,976744	273,905453	312,166588	0
15.01.2021	21:54:21	0	0	2,71155	1,95	310,698	-0,012	86,867	0	1017,44	6,7	8,6	8,6	1	1	1	1	1	1	1	1	1	0	1	-8,879493	274,001721	310,712742	0
15.01.2021	21:54:22	0	0	2,824531	1,8165	302,1372	-0,013	86,87	0	1017,64	6,7	8,6	8,6	1	1	1	1	1	1	1	1	1	0	1	-10,077519	274,031438	309,653387	0
15.01.2021	21:54:23	0	0	2,598569	1,63425	313,65	-0,013	86,868	0	1017,34	6,7	8,6	8,6	1	1	1	1	1	1	1	1	1	0	1	-10,218464	273,975014	309,249187	0
15.01.2021	21:54:24	0	0	3,6154	1,44825	321,4908	-0,01	86,87	0	1017,56	6,7	8,6	8,6	1	1	1	1	1	1	1	1	1	0	1	-7,540521	273,867081	311,424008	0
15.01.2021	21:54:25	0	0	4,067325	1,4415	312,21	-0,012	86,855	0	1017,46	6,7	8,6	8,6	1	1	1	1	1	1	1	1	1	0	1	-7,470049	274,053757	312,365032	0
15.01.2021	21:54:26	0	0	3,841362	1,6125	313,236	-0,011	86,857	0	1017,54	6,7	8,6	8,6	1	1	1	1	1	1	1	1	1	0	1	-6,624383	273,952786	312,739608	0
15.01.2021	21:54:27	0	0	2,824531	1,653	309,9492	-0,009	86,88	0	1017,4	6,7	8,6	8,6	1	1	1	1	1	1	1	1	1	0	1	-6,976744	273,871505	312,008395	0
15.01.2021	21:54:28	0	0	4,293287	1,6215	320,0112	-0,012	86,865	0	1017,46	6,7	8,6	8,6	1	1	1	1	1	1	1	1	1	0	1	-8,033827	273,915798	311,157719	0
15.01.2021	21:54:29	0	0	2,372606	1,78125	310,6836	-0,013	86,888	0	1017,5	6,7	8,6	8,6	1	1	1	1	1	1	1	1	1	0	1	-6,272023	273,886258	312,781855	0
15.01.2021	21:54:30	0	0	3,841362	1,89525	309,2472	-0,013	86,878	0	1017,48	6,7	8,6	8,6	1	1	1	1	1	1	1	1	1	0	1	-6,342495	273,896591	312,759537	0
15.01.2021	21:54:31	0	0	2,598569	1,824	308,4588	-0,01	86,89	0	1017,26	6,7	8,6	8,6	1	1	1	1	1	1	1	1	1	0	1	-4,439746	273,905453	314,703586	0
15.01.2021	21:54:32	0	0	3,050494	1,74075	303,8472	-0,01	86,889	0	1017,52	6,7	8,6	8,6	1	1	1	1	1	1	1	1	1	0	1	-6,060606	273,871505	312,924533	0
15.01.2021	21:54:33	0	0	2,485587	1,7685	306,4968	-0,016	86,88	0	1017,52	6,7	8,6	8,6	1	1	1	1	1	1	1	1	1	0	1	-6,20155	273,929105	313,052029	0
15.01.2021	21:54:34	0	0	3,050494	1,8015	310,266	-0,011	86,884	0	1017,42	6,7	8,6	8,6	1	1	1	1	1	1	1	1	1	0	1	-4,862579	273,865607	314,095082	0
15.01.2021	21:54:35	0	0	2,598569	1,8285	306,144	-0,016	86,86	0	1017,32	6,7	8,6	8,6	1	1	1	1	1	1	1	1	1	0	1	-5,426357	274,00766	314,193592	0
15.01.2021	21:54:36	0	0	4,632231	1,81875	308,8692	-0,009	86,887	0	1017,38	6,7	8,6	8,6	1	1	1	1	1	1	1	1	1	0	1	-11,980268	274,015088	307,674337	0
15.01.2021	21:54:37	0	0	2,372606	1,998	309,2112	-0,014	86,874	0	1017,4	6,7	8,6	8,6	1	1	1	1	1	1	1	1	1	0	1	-11,698379	274,029951	308,025588	0
15.01.2021	21:54:38	0	0	2,824531	2,11725	309,8448	-0,012	86,894	0	1017,54	6,7	8,6	8,6	1	1	1	1	1	1	1	1	1	0	1	-5,21494	273,898068	313,893974	0
15.01.2021	21:54:39	0	0	4,180306	2,0925	313,2288	-0,008	86,895	0	1017,6	6,7	8,6	8,6	1	1	1	1	1	1	1	1	1	0	1	-8,738548	274,026978	310,971541	0
15.01.2021	21:54:40	0	0	3,728381	2,0475	315,8568	-0,012	86,893	0	1017,52	6,7	8,6	8,6	1	1	1	1	1	1	1	1	1	0	1	-13,812544	273,992814	305,73814	0
15.01.2021	21:54:41	0	0	4,632231	1,9725	312,858	-0,008	86,899	0	1017,54	6,7	8,6	8,6	1	1	1	1	1	1	1	1	1	0	1	-12,755462	274,049291	307,058773	0
15.01.2021	21:54:42	0	0	2,937512	1,929	310,2552	-0,011	86,903	0	1017,42	6,7	8,6	8,6	1	1	1	1	1	1	1	1	1	0	1	-7,399577	273,929105	311,854002	0
15.01.2021	21:54:43	0	0	3,276456	1,92075	310,0356	-0,012	86,903	0	1017,62	6,7	8,6	8,6	1	1	1	1	1	1	1	1	1	0	1	-6,412967	273,858237	312,510362	0
15.01.2021	21:54:44	0	0	4,632231	1,8825	309,9816	-0,016	86,888	0	1017,4	6,7	8,6	8,6	1	1	1	1	1	1	1	1	1	0	1	-7,751938	273,986879	311,771058	0
15.01.2021	21:54:45	0	0	4,180306	1,938	308,8548	-0,024	86,903	0	1017,34	6,7	8,6	8,6	1	1	1	1	1	1	1	1	1	0	1	-13,883016	274,043338	305,903432	0
15.01.2021	21:54:46	0	0	4,858193	1,998	308,0808	-0,013	86,913	0	1017,48	6,7	8,6	8,6	1	1	1	1	1	1	1	1	1	0	1	-3,805497	273,905453	315,337836	0
15.01.2021	21:54:47	0	0	5,197137	2,07375	313,7256	-0,009	86,941	0	1017,76	6,7	8,6	8,6	1	1	1	1	1	1	1	1	1	0	1	-10,500352	274,04185	309,279151	0
15.01.2021	21:54:48	0	0	3,954344	2,097	320,0256	-0,015	86,901	0	1017,4	6,7	8,6	8,6	1	1	1	1	1	1	1	1	1	0	1	-8,45666	273,87003	310,521609	0
15.01.2021	21:54:49	0	0	4,745212	2,11575	313,596	-0,02	86,898	0	1017,36	6,7	8,6	8,6	1	1	1	1	1	1	1	1	1	0	1	-9,936575	273,943903	309,385992	0
15.01.2021	21:54:50	0	0	2,485587	2,1555	315,2088	-0,014	86,918	0	1017,48	6,7	8,6	8,6	1	1	1	1	1	1	1	1	1	0	1	-11,346018	273,884782	307,700982	0
15.01.2021	21:54:51	0	0	4,293287	2,22075	313,2216	-0,013	86,914	0	1017,5	6,7	8,6	8,6	1	1	1	1	1	1	1	1	1	0	1	-5,637773	273,940942	313,670992	0
15.01.2021	21:54:52	0	0	4,632231	2,265	319,1148	-0,009	86,917	0	1017,54	6,7	8,6	8,6	1	1	1	1	1	1	1	1	1	0	1	-4,933051	273,865607	314,02461	0
15.01.2021	21:54:53	0	0	3,163475	2,30025	318,4128	-0,013	86,927	0	1017,38	6,7	8,6	8,6	1	1	1	1	1	1	1	1	1	0	1	-5,919662	273,99133	313,624099	0
15.01.2021	21:54:54	0	0	3,276495	2,27625	318,7944	-0,009	86,915	0	1017,44	6,7	8,6	8,4	1	1	1	1	1	1	1	1	1	0	1	-12,191684	273,871505	306,793455	0
15.01.2021	21:54:55	0	0	3,841362	2,256	318,2616	-0,013	86,913	0	1017,32	6,7	8,6	8,6	1	1	1	1	1	1	1	1	1	0	1	-6,483439	273,972049	312,970382	0
15.01.2021	21:54:56	0	0	2,824531	2,14725	323,3304	-0,009	86,929	0	1017,4	6,7	8,6	8,6	1	1	1	1	1	1	1	1	1	0	1	-7,610994	273,871505	311,374145	0
15.01.2021	21:54:57	0	0	5,084156	2,16075	316,278	-0,018	86,904	0	1017,36	6,7	8,6	8,6	1	1	1	1	1	1	1	1	1	0	1	-14,869626	273,920233	304,342591	0
15.01.2021	21:54:58	0	0	3,050494	2,169	317,7612	-0,009	86,927	0	1017,54	6,7	8,6	8,6	1	1	1	1	1	1	1	1	1	0	1	-5,355884	273,903976	313,780563	0
15.01.2021	21:54:59	0	0	2,372606	2,1675	318,1356	-0,015	86,914	0	1017,58	6,7	8,6	8,6	1	1	1	1	1	1	1	1	1	0	1	-10,218464	274,049291	309,595771	0
15.01.2021	21:55:00	0	0	2,937512	2,145	316,656	-0,009	86,923	0	1017,58	6,6	8,6	8,6	1	1	1	1	1	1	1	1	1	0	1	-8,386187	274,013602	311,261485	0
15.01.2021	21:55:01	0	0	4,858193	2,0685	322,6572	-0,018	86,921	0	1017,46	6,7	8,6	8,6	1	1	1	1	1	1	1	1	1	0	1	-12,121212	274,047803	307,686075	0
15.01.2021	21:55:02	0	0	4,858193	1,953	287,3376	-0,009	86,929	0	1017,38	6,7	8,6	8,6	1	1	1	1	1	1	1	1	1	0	1	-10,923185	273,942422	308,39248	0
15.01.2021	21:55:03	0	0	2,937512	1,83	299,7576	-0,01	86,94	0	1017,58	6,7	8,6	8,6	1	1	1	1	1	1	1	1	1	0	1	-8,597604	273,883306	310,44252	0
15.01.2021	21:55:04	0	0	2,598569	1,65975	305,334	-0,01	86,904	0	1017,4	6,7	8,6	8,6	1	1	1	1	1	1	1	1	1	0	1	-7,963354	273,909886	311,200637	0
15.01.2021	21:55:05	0	0	5,423197	1,488	299,7936	-0,008	86,918	0	1017,38	6,7	8,6	8,3	1	1	1	1	1	1	1	1	1	0	1	-8,738548	273,874454	310,260333	0
15.01.2021	21:55:06	0	0	3,954344	1,39275	297,252	-0,007	86,935	0	1017,46	6,7	8,6	8,6	1	1	1	1	1	1	1	1	1	0	1	-7,751938	273,96612	311,674232	0
15.01.2021	21:55:07	0	0	3,954415	1,40325	308,4876	-0,015	86,922	0	1017,34	6,7	8,6	8,3	1	1	1	1	1	1	1	1	1	0	1	-10,923185	274,052268	308,904946	0
15.01.2021	21:55:08	0	0	2,598569	1,3905	306,8064	-0,01	86,925	0	1017,52	6,7	8,6	8,6	1	1	1	1	1	1	1	1	1	0	1	-2,677942	273,935023	316,603225	0
15.01.2021	21:55:09	0	0	4,293287	1,39275	302,5224	-0,011	86,916	0	1017,52	6,7	8,6	8,6	1	1	1	1	1	1	1	1	1	0	1	-8,738548	274,052268	311,089583	0
15.01.2021	21:55:10	0	0	3,6154	1,401	311,8176	-0,016	86,925	0	1017,42	6,7	8,6	8,6	1	1	1	1	1	1	1	1	1	0	1	-6,412967	273,96612	313,013203	0
15.01.2021	21:55:11	0	0	4,293287	1,386	300,186	-0,011	86,935	0	1017,46	6,7	8,6	8,6	1	1	1	1	1	1	1	1	1	0	1	-4,298802	273,893638	314,789468	0
15.01.2021	21:55:12	0	0	4,632231	1,48575	304,6212	-0,013	86,938	0	1017,56	6,7	8,6	8,6	1	1	1	1	1	1	1	1	1	0	1	-3,030303	274,049291	316,783932	0
15.01.2021	21:55:13	0	0	4,632231	1,497	305,7516	-0,016	86,929	0	1017,34	6,7	8,6	8,6	1	1	1	1	1	1	1	1	1	0	1	-4,016913	274,012117	315,623827	0
15.01.2021	21:55:14	0	0	4,180306	1,52625	300,1356	-0,011	86,946	0	1017,46	6,7	8,6	8,6	1	1	1	1	1	1	1	1	1	0	1	-6,20155	274,04185	313,577953	0
15.01.2021	21:55:15	0	0	3,841362	1,5525	307,6056	-0,009	86,928	0	1017,64	6,7	8,6	8,6	1	1	1	1	1	1	1	1	1	0	1	-6,412967	273,955749	312,964837	0
15.01.2021	21:55:16	0	0	3,841362	1,5225	314,0928	-0,01	86,939	0	1017,42	6,7	8,6	8,6	1	1	1	1	1	1	1	1	1	0	1	-5,990134	274,038875	313,775481	0
15.01.2021	21:55:17	0	0	4,51925	1,467	320,1264	-0,011	86,943	0	1017,42	6,7	8,6	8,6	1	1	1	1	1	1	1	1	1	0	1	-8,315715	273,924668	310,91718	0
15.01.2021	21:55:18	0	0	2,824531	1,5225	309,924	-0,019	86,944	0	1017,46	6,7	8,6	8,6	1	1	1	1	1	1	1	1	1	0	1	-12,191684	274,044826	307,60171	0
15.01.2021	21:55:19	0	0	4,067325	1,67775	317,0412	-0,01	86,952	0	1017,54	6,7	8,6	8,6	1	1	1	1	1	1	1	1	1	0	1	-5,778717	274,001721	313,813517	0
15.01.2021	21:55:20	0	0	4,067325	1,857	308,088	-0,014	86,95	0	1017,54	6,7	8,6	8,6	1	1	1	1	1	1	1	1	1	0	1	-6,20155	273,969084	313,238444	0
15.01.2021	21:55:21	0	0	4,632231	1,92525	305,766	-0,017	86,947	0	1017,4	6,7	8,6	8,6	1	1	1	1	1	1	1	1	1	0	1	-8,597604	274,049291	311,216631	0
15.01.2021	21:55:22	0	0	4,180306	1,9815	316,6956	-0,018	86,926	0	1017,44	6,7	8,6	8,6	1	1	1	1	1	1	1	1	1	0	1	-9,725159	273,936503	309,562907	0
15.01.2021	21:55:23	0	0	2,824531	1,9635	309,5712	-0,018	86,933	0	1017,36	6,7	8,6	8,6	1	1	1	1	1	1	1	1	1	0	1	-6,624383	273,898068	312,48453	0
15.01.2021	21:55:24	0	0	4,406268	1,88325	300,8808	-0,011	86,951	0	1017,48	6,7	8,6	8,6	1	1	1	1	1	1	1	1	1	0	1	-9,44327	273,875929	309,562484	0
15.01.2021	21:55:25	0	0	3,276456	1,776	301,698	-0,013	86,946	0	1017,44	6,7	8,6	8,6	1	1	1	1	1	1	1	1	1	0	1	-4,510218	273,906931	314,64	0
15.01.2021	21:55:26	0	0	4,293287	1,6965	300,51	-0,018	86,963	0	1017,32	6,7	8,6	8,6	1	1	1	1	1	1	1	1	1	0	1	-12,403101	273,880355	306,623273	0
15.01.2021	21:55:27	0	0	3,728381	1,626	299,4552	-0,013	86,951	0	1017,42	6,7	8,6	8,6	1	1	1	1	1	1	1	1	1	0	1	-7,610994	273,896591	311,491038	0
15.01.2021	21:55:28	0	0	2,372606	1,54725	294,1596	-0,017	86,955	0	1017,46	6,7	8,6	8,6	1	1	1	1	1	1	1	1	1	0	1	-8,386187	273,896591	310,715844	0
15.01.2021	21:55:29	0	0	3,389437	1,503	299,4048	-0,019	86,952	0	1017,62	6,7	8,6	8,6	1	1	1	1	1	1	1	1	1	0	1	-7,82241	273,927626	311,424274	0
15.01.2021	21:55:30	0	0	2,598569	1,5345	299,43	-0,018	86,94	0	1017,54	6,7	8,6	8,6	1	1	1	1	1	1	1	1	1	0	1	-6,412967	274,037387	313,345705	0
15.01.2021	21:55:31	0	0	3,389437	1,5615	301,5576	-0,014	86,955	0	1017,46	6,7	8,6	8,6	1	1	1	1	1	1	1	1	1	0	1	-8,033827	273,895115	311,061324	0
15.01.2021	21:55:32	0	0	2,598569	1,656	305,7048	-0,013	86,951	0	1017,42	6,7	8,6	8,6	1	1	1	1	1	1	1	1	1	0	1	-7,963354	273,901022	311,159325	0
15.01.2021	21:55:33	0	0	2,71155	1,641	310,2732	-0,02	86,966	0	1017,56	6,7	8,6	8,6	1	1	1	1	1	1	1	1	1	0	1	-11,839323	273,929105	307,414256	0
15.01.2021	21:55:34	0	0	4,971175	1,644	305,0316	-0,017	86,949	0	1017,38	6,7	8,6	8,6	1	1	1	1	1	1	1	1	1	0	1	-5,073996	274,015088	314,580609	0
15.01.2021	21:55:35	0	0	4,51925	1,596	309,8736	-0,016	86,945	0	1017,46	6,7	8,6	8,6	1	1	1	1	1	1	1	1	1	0	1	-6,342495	274,001721	313,24974	0
15.01.2021	21:55:36	0	0	3,841362	1,53525	297,9	-0,015	86,945	0	1017,58	6,7	8,6	8,6	1	1	1	1	1	1	1	1	1	0	1	-8,879493	273,920233	310,332725	0
15.01.2021	21:55:37	0	0	4,632231	1,44375	302,0292	-0,017	86,953	0	1017,46	6,7	8,6	8,6	1	1	1	1	1	1	1	1	1	0	1	-3,946441	274,064181	315,937305	0
15.01.2021	21:55:38	0	0	2,598569	1,44	293,436	-0,016	86,96	0	1017,44	6,7	8,6	8,6	1	1	1	1	1	1	1	1	1	0	1	-7,963354	274,029951	311,760613	0
15.01.2021	21:55:39	0	0	3,502419	1,47975	293,6736	-0,022	86,953	0	1017,4	6,7	8,6	8,6	1	1	1	1	1	1	1	1	1	0	1	-10,359408	274,0359	309,392322	0
15.01.2021	21:55:40	0	0	3,502419	1,48575	299,448	-0,014	86,945	0	1017,38	6,7	8,6	8,6	1	1	1	1	1	1	1	1	1	0	1	-10,288936	274,021032	309,393406	0
15.01.2021	21:55:41	0	0	4,180306	1,53525	298,62	-0,015	86,94	0	1017,3	6,7	8,6	8,6	1	1	1	1	1	1	1	1	1	0	1	-4,510218	274,000236	315,07509	0
15.01.2021	21:55:42	0	0	4,971175	1,61475	304,2504	-0,01	86,949	0	1017,42	6,7	8,6	8,6	1	1	1	1	1	1	1	1	1	0	1	-7,399577	274,052268	312,428554	0
15.01.2021	21:55:43	0	0	3,276456	1,677	296,0208	-0,014	86,951	0	1017,46	6,7	8,6	8,6	1	1	1	1	1	1	1	1	1	0	1	-8,597604	273,921711	310,621506	0
15.01.2021	21:55:44	0	0	3,163475	1,87125	290,736	-0,016	86,935	0	1017,32	6,7	8,6	8,6	1	1	1	1	1	1	1	1	1	0	1	-6,694856	273,898068	312,414058	0
15.01.2021	21:55:45	0	0	2,598569	2,01	287,3412	-0,01	86,947	0	1017,62	6,7	8,6	8,6	1	1	1	1	1	1	1	1	1	0	1	-4,580691	273,864132	314,370103	0
15.01.2021	21:55:46	0	0	5,084156	2,00475	287,7768	-0,016	86,938	0	1017,42	6,7	8,6	8,6	1	1	1	1	1	1	1	1	1	0	1	-8,597604	274,006175	311,015415	0
15.01.2021	21:55:47	0	0	4,632231	1,89975	294,1056	-0,016	86,946	0	1017,56	6,7	8,6	8,6	1	1	1	1	1	1	1	1	1	0	1	-10,007047	273,896591	309,094985	0
15.01.2021	21:55:48	0	0	4,745269	1,78275	306,7668	-0,014	86,944	0	1017,64	6,7	8,6	8,4	1	1	1	1	1	1	1	1	1	0	1	-5,990134	273,917276	313,208302	0
15.01.2021	21:55:49	0	0	3,050494	1,6785	294,048	-0,009	86,955	0	1017,6	6,7	8,6	8,6	1	1	1	1	1	1	1	1	1	0	1	-8,527132	273,864132	310,423662	0
15.01.2021	21:55:50	0	0	4,745212	1,572	286,9668	-0,015	86,935	0	1017,32	6,7	8,6	8,6	1	1	1	1	1	1	1	1	1	0	1	-8,245243	273,979462	311,243157	0
15.01.2021	21:55:51	0	0	4,293287	1,542	283,1688	-0,015	86,948	0	1017,7	6,7	8,6	8,6	1	1	1	1	1	1	1	1	1	0	1	-7,188161	274,034413	312,556628	0
15.01.2021	21:55:52	0	0	4,180306	1,6335	284,0796	-0,018	86,927	0	1017,28	6,7	8,6	8,6	1	1	1	1	1	1	1	1	1	0	1	-6,060606	274,025491	313,642546	0
15.01.2021	21:55:53	0	0	4,180306	1,79175	287,7228	-0,022	86,94	0	1017,58	6,7	8,6	8,6	1	1	1	1	1	1	1	1	1	0	1	-8,174771	274,006175	311,438248	0
15.01.2021	21:55:54	0	0	4,293287	1,9575	290,7792	-0,015	86,952	0	1017,5	6,7	8,6	8,6	1	1	1	1	1	1	1	1	1	0	1	-10,359408	273,893638	308,728862	0
15.01.2021	21:55:55	0	0	3,841362	1,9095	291,9672	-0,018	86,948	0	1017,48	6,7	8,6	8,6	1	1	1	1	1	1	1	1	1	0	1	-6,412967	273,867081	312,551563	0
15.01.2021	21:55:56	0	0	3,050494	1,9395	304,9812	-0,014	86,944	0	1017,44	6,7	8,6	8,6	1	1	1	1	1	1	1	1	1	0	1	-3,805497	273,969084	315,634497	0
15.01.2021	21:55:57	0	0	2,937548	1,887	306,8136	-0,016	86,947	0	1017,56	6,7	8,6	8,4	1	1	1	1	1	1	1	1	1	0	1	-10,359408	274,055245	309,482623	0
15.01.2021	21:55:58	0	0	4,971175	1,737	301,608	-0,02	86,936	0	1017,44	6,7	8,6	8,6	1	1	1	1	1	1	1	1	1	0	1	-10,359408	274,003205	309,239754	0
15.01.2021	21:55:59	0	0	3,728381	1,6365	310,0284	-0,016	86,958	0	1017,58	6,7	8,6	8,6	1	1	1	1	1	1	1	1	1	0	1	-7,82241	273,901022	311,300269	0
15.01.2021	21:56:00	0	0	2,937512	1,46025	316,2456	-0,016	86,93	0	1017,42	6,7	8,6	8,6	1	1	1	1	1	1	1	1	1	0	1	-6,483439	273,901022	312,63924	0
15.01.2021	21:56:01	0	0	2,937512	1,46025	316,2456	-0,016	86,93	0	1017,42	6,7	8,6	8,6	1	1	1	1	1	1	1	1	1	0	1	-12,191684	273,872979	306,800326	0
15.01.2021	21:56:02	0	0	4,406268	1,40175	321,0984	-0,016	86,936	0	1017,46	6,7	8,6	8,6	1	1	1	1	1	1	1	1	1	0	1	-7,610994	273,899545	311,504803	0
15.01.2021	21:56:03	0	0	4,632231	1,36875	320,076	-0,013	86,946	0	1017,54	6,7	8,6	8,6	1	1	1	1	1	1	1	1	1	0	1	-6,060606	273,865607	312,897055	0
15.01.2021	21:56:04	0	0	3,050494	1,36125	309,2148	-0,02	86,944	0	1017,58	6,7	8,6	8,6	1	1	1	1	1	1	1	1	1	0	1	-10,711769	273,903976	308,424679	0
15.01.2021	21:56:05	0	0	2,598569	1,41375	311,7996	-0,012	86,947	0	1017,44	6,7	8,6	8,6	1	1	1	1	1	1	1	1	1	0	1	-9,302326	274,037387	310,456347	0
15.01.2021	21:56:06	0	0	2,937548	1,4205	319,0968	-0,02	86,95	0	1017,58	6,7	8,6	8,4	1	1	1	1	1	1	1	1	1	0	1	-4,22833	273,935023	315,052837	0
15.01.2021	21:56:07	0	0	3,6154	1,455	318,78	-0,021	86,944	0	1017,7	6,7	8,7	8,6	1	1	1	1	1	1	1	1	1	0	1	-8,174771	274,049291	311,639464	0
15.01.2021	21:56:08	0	0	2,5986	1,4835	310,6908	-0,023	86,941	0	1017,58	6,7	8,6	8,4	1	1	1	1	1	1	1	1	1	0	1	-7,963354	273,915798	311,228191	0
15.01.2021	21:56:09	0	0	4,180306	1,5	309,7944	-0,015	86,944	0	1017,48	6,7	8,6	8,6	1	1	1	1	1	1	1	1	1	0	1	-6,272023	273,893638	312,816248	0
15.01.2021	21:56:10	0	0	4,971175	1,497	305,37	-0,019	86,944	0	1017,54	6,7	8,6	8,6	1	1	1	1	1	1	1	1	1	0	1	-7,963354	273,926147	311,276435	0
15.01.2021	21:56:11	0	0	2,71155	1,464	318,762	-0,017	86,965	0	1017,52	6,7	8,6	8,6	1	1	1	1	1	1	1	1	1	0	1	-8,738548	273,88921	310,329084	0
15.01.2021	21:56:12	0	0	4,858193	1,43475	314,8272	-0,018	86,952	0	1017,48	6,7	8,6	8,6	1	1	1	1	1	1	1	1	1	0	1	-5,778717	273,856763	313,137747	0
15.01.2021	21:56:13	0	0	2,71155	1,521	325,1772	-0,017	86,945	0	1017,76	6,7	8,6	8,6	1	1	1	1	1	1	1	1	1	0	1	-10,993658	273,994298	308,56395	0
15.01.2021	21:56:14	0	0	2,71155	1,599	318,4128	-0,015	86,957	0	1017,36	6,7	8,6	8,6	1	1	1	1	1	1	1	1	1	0	1	-5,567301	274,040363	314,205258	0
15.01.2021	21:56:15	0	0	3,728381	1,65375	319,14	-0,019	86,954	0	1017,34	6,7	8,6	8,6	1	1	1	1	1	1	1	1	1	0	1	-3,664553	274,00766	315,955396	0
15.01.2021	21:56:16	0	0	4,180306	1,65975	321,0948	-0,021	86,946	0	1017,54	6,7	8,6	8,6	1	1	1	1	1	1	1	1	1	0	1	-6,765328	274,037387	312,993345	0
15.01.2021	21:56:17	0	0	3,841362	1,6875	321,894	-0,018	86,956	0	1017,44	6,7	8,6	8,6	1	1	1	1	1	1	1	1	1	0	1	-9,795631	273,927626	309,451054	0
15.01.2021	21:56:18	0	0	3,728381	1,73025	317,3472	-0,019	86,953	0	1017,42	6,7	8,6	8,6	1	1	1	1	1	1	1	1	1	0	1	-6,483439	274,044826	313,309955	0
15.01.2021	21:56:19	0	0	3,954391	1,74675	310,7124	-0,022	86,946	0	1017,54	6,7	8,6	8,4	1	1	1	1	1	1	1	1	1	0	1	-12,262156	273,908408	306,894948	0
15.01.2021	21:56:20	0	0	2,598569	1,704	309,9204	-0,022	86,945	0	1017,58	6,7	8,6	8,6	1	1	1	1	1	1	1	1	1	0	1	-10,288936	273,886258	308,764941	0
15.01.2021	21:56:21	0	0	4,971175	1,63425	315,216	-0,019	86,958	0	1017,36	6,7	8,6	8,6	1	1	1	1	1	1	1	1	1	0	1	-2,818887	273,85971	316,111308	0
15.01.2021	21:56:22	0	0	4,971175	1,61175	316,2456	-0,018	86,955	0	1017,48	6,7	8,6	8,6	1	1	1	1	1	1	1	1	1	0	1	-4,933051	274,001721	314,659183	0
15.01.2021	21:56:23	0	0	3,841362	1,59375	317,718	-0,017	86,937	0	1017,42	6,7	8,6	8,6	1	1	1	1	1	1	1	1	1	0	1	-6,060606	273,998751	313,517776	0
15.01.2021	21:56:24	0	0	3,050494	1,557	321,3828	-0,024	86,959	0	1017,32	6,7	8,6	8,6	1	1	1	1	1	1	1	1	1	0	1	-4,016913	274,025491	315,686238	0
15.01.2021	21:56:25	0	0	2,824531	1,521	321,2496	-0,02	86,961	0	1017,36	6,7	8,6	8,6	1	1	1	1	1	1	1	1	1	0	1	-7,258633	273,886258	311,795244	0
15.01.2021	21:56:26	0	0	2,937512	1,491	309,888	-0,021	86,962	0	1017,5	6,7	8,6	8,6	1	1	1	1	1	1	1	1	1	0	1	-6,20155	273,862658	312,742376	0
15.01.2021	21:56:27	0	0	3,841431	1,5525	294,8004	-0,019	86,963	0	1017,5	6,7	8,6	8,3	1	1	1	1	1	1	1	1	1	0	1	-2,60747	273,867081	316,35706	0
15.01.2021	21:56:28	0	0	4,858193	1,61475	291,4632	-0,018	86,94	0	1017,42	6,7	8,6	8,6	1	1	1	1	1	1	1	1	1	0	1	-8,245243	274,019546	311,430164	0
15.01.2021	21:56:29	0	0	3,389437	1,773	290,4264	-0,018	86,968	0	1017,54	6,7	8,6	8,6	1	1	1	1	1	1	1	1	1	0	1	-7,681466	273,868555	311,289933	0
15.01.2021	21:56:30	0	0	4,51925	1,88025	277,5744	-0,017	86,948	0	1017,34	6,7	8,6	8,6	1	1	1	1	1	1	1	1	1	0	1	-5,567301	273,986879	313,955695	0
15.01.2021	21:56:31	0	0	3,050494	1,78425	276,1092	-0,018	86,941	0	1017,4	6,7	8,6	8,6	1	1	1	1	1	1	1	1	1	0	1	-4,792107	273,861184	314,144953	0
15.01.2021	21:56:32	0	0	3,841408	1,59	289,8828	-0,015	86,944	0	1017,56	6,7	8,6	8,4	1	1	1	1	1	1	1	1	1	0	1	-5,637773	273,985395	313,878302	0
15.01.2021	21:56:33	0	0	4,745298	1,39875	300,5244	-0,016	86,95	0	1017,34	6,7	8,6	8,3	1	1	1	1	1	1	1	1	1	0	1	-4,933051	274,0359	314,818679	0
15.01.2021	21:56:34	0	0	4,180306	1,30575	297,27	-0,019	86,939	0	1017,3	6,7	8,6	8,6	1	1	1	1	1	1	1	1	1	0	1	-10,218464	274,025491	309,484688	0
15.01.2021	21:56:35	0	0	3,6154	1,29525	305,334	-0,016	86,941	0	1017,54	6,7	8,6	8,6	1	1	1	1	1	1	1	1	1	0	1	-5,990134	274,021032	313,692208	0
15.01.2021	21:56:36	0	0	3,389437	1,353	308,7792	-0,021	86,954	0	1017,5	6,7	8,6	8,6	1	1	1	1	1	1	1	1	1	0	1	-8,45666	274,0359	311,29507	0
15.01.2021	21:56:37	0	0	4,180306	1,419	303,9156	-0,023	86,955	0	1017,56	6,7	8,6	8,6	1	1	1	1	1	1	1	1	1	0	1	-4,510218	273,932064	314,757154	0
15.01.2021	21:56:38	0	0	4,406268	1,33875	321,4116	-0,016	86,955	0	1017,52	6,7	8,6	8,6	1	1	1	1	1	1	1	1	1	0	1	-4,157858	273,864132	314,792936	0
15.01.2021	21:56:39	0	0	3,050494	1,34175	323,3952	-0,026	86,934	0	1017,3	6,7	8,6	8,6	1	1	1	1	1	1	1	1	1	0	1	-6,131078	273,975014	313,336573	0
15.01.2021	21:56:40	0	0	3,276456	1,3185	314,0604	-0,014	86,957	0	1017,56	6,7	8,6	8,6	1	1	1	1	1	1	1	1	1	0	1	-6,694856	273,855289	312,214745	0
15.01.2021	21:56:41	0	0	2,598569	1,299	317,7576	-0,022	86,93	0	1017,48	6,7	8,6	8,6	1	1	1	1	1	1	1	1	1	0	1	-5,990134	273,982429	313,512103	0
15.01.2021	21:56:42	0	0	4,180306	1,31325	317,736	-0,023	86,941	0	1017,54	6,7	8,6	8,6	1	1	1	1	1	1	1	1	1	0	1	-7,963354	274,037387	311,795318	0
15.01.2021	21:56:43	0	0	2,71155	1,446	314,496	-0,019	86,936	0	1017,5	6,7	8,6	8,6	1	1	1	1	1	1	1	1	1	0	1	-9,584214	273,939462	309,71765	0
15.01.2021	21:56:44	0	0	4,293287	1,5435	306,8388	-0,026	86,95	0	1017,28	6,7	8,6	8,6	1	1	1	1	1	1	1	1	1	0	1	-8,033827	274,032925	311,704021	0
15.01.2021	21:56:45	0	0	5,4231	1,70775	299,3544	-0,028	86,936	0	1017,4	6,7	8,6	8,6	1	1	1	1	1	1	1	1	1	0	1	-8,527132	273,924668	310,705764	0
15.01.2021	21:56:46	0	0	3,389437	1,8375	300,8124	-0,015	86,963	0	1017,64	6,7	8,6	8,6	1	1	1	1	1	1	1	1	1	0	1	-2,818887	274,040363	316,953672	0
15.01.2021	21:56:47	0	0	4,858193	1,97925	300,204	-0,02	86,96	0	1017,52	6,7	8,6	8,6	1	1	1	1	1	1	1	1	1	0	1	-9,795631	273,942422	309,520035	0
15.01.2021	21:56:48	0	0	2,146644	2,1585	309,2328	-0,02	86,958	0	1017,54	6,7	8,6	8,6	1	1	1	1	1	1	1	1	1	0	1	-5,285412	274,047803	314,521875	0
15.01.2021	21:56:49	0	0	4,51925	2,36625	301,1436	-0,021	86,94	0	1017,48	6,7	8,6	8,6	1	1	1	1	1	1	1	1	1	0	1	-5,778717	273,896591	313,323315	0
15.01.2021	21:56:50	0	0	2,372606	2,2785	306,4212	-0,021	86,94	0	1017,44	6,7	8,6	8,6	1	1	1	1	1	1	1	1	1	0	1	-4,580691	273,87888	314,438809	0
15.01.2021	21:56:51	0	0	2,485587	2,0745	295,1172	-0,026	86,952	0	1017,54	6,7	8,6	8,6	1	1	1	1	1	1	1	1	1	0	1	-10,218464	273,856763	308,698001	0
15.01.2021	21:56:52	0	0	2,598569	1,9305	308,142	-0,021	86,947	0	1017,58	6,7	8,6	8,6	1	1	1	1	1	1	1	1	1	0	1	-11,134602	273,970566	308,312306	0
15.01.2021	21:56:53	0	0	4,51925	1,9635	315,4032	-0,022	86,938	0	1017,6	6,7	8,6	8,6	1	1	1	1	1	1	1	1	1	0	1	-5,073996	273,865607	313,883666	0
15.01.2021	21:56:54	0	0	3,841362	1,89	312,8436	-0,026	86,946	0	1017,46	6,7	8,6	8,6	1	1	1	1	1	1	1	1	1	0	1	-7,610994	273,960193	311,787535	0
15.01.2021	21:56:55	0	0	4,858193	1,8075	315,8712	-0,018	86,961	0	1017,46	6,7	8,6	8,6	1	1	1	1	1	1	1	1	1	0	1	-5,778717	274,0359	313,973013	0
15.01.2021	21:56:56	0	0	5,084156	1,86825	302,4684	-0,027	86,938	0	1017,36	6,7	8,6	8,6	1	1	1	1	1	1	1	1	1	0	1	-8,174771	273,901022	310,947908	0
15.01.2021	21:56:57	0	0	3,276456	2,0265	306,09	-0,02	86,953	0	1017,38	6,7	8,6	8,6	1	1	1	1	1	1	1	1	1	0	1	-3,946441	273,890686	315,12807	0
15.01.2021	21:56:58	0	0	4,745212	2,21025	308,4984	-0,016	86,95	0	1017,56	6,7	8,6	8,6	1	1	1	1	1	1	1	1	1	0	1	-6,624383	273,985395	312,891692	0
15.01.2021	21:56:59	0	0	4,180306	2,211	305,3196	-0,022	86,951	0	1017,32	6,7	8,6	8,6	1	1	1	1	1	1	1	1	1	0	1	-8,104299	274,0359	311,647431	0
15.01.2021	21:57:00	0	0	3,954344	2,11425	305,0712	-0,021	86,957	0	1017,42	6,7	8,6	8,6	1	1	1	1	1	1	1	1	1	0	1	-5,21494	273,927626	314,031744	0
15.01.2021	21:57:01	0	0	3,954344	2,11425	305,0712	-0,021	86,957	0	1017,42	6,7	8,6	8,6	1	1	1	1	1	1	1	1	1	0	1	-7,892882	274,038875	311,872733	0
15.01.2021	21:57:02	0	0	5,084156	2,12925	316,242	-0,021	86,946	0	1017,44	6,7	8,6	8,6	1	1	1	1	1	1	1	1	1	0	1	-11,698379	273,908408	307,458725	0
15.01.2021	21:57:03	0	0	3,728381	2,1045	306,4932	-0,024	86,959	0	1017,56	6,7	8,6	8,6	1	1	1	1	1	1	1	1	1	0	1	-9,866103	274,016574	309,795436	0
15.01.2021	21:57:04	0	0	3,6154	2,05275	306,4932	-0,023	86,954	0	1017,44	6,7	8,6	8,6	1	1	1	1	1	1	1	1	1	0	1	-10,923185	274,031438	308,807722	0
15.01.2021	21:57:05	0	0	3,276456	1,968	318,1788	-0,027	86,953	0	1017,46	6,7	8,6	8,6	1	1	1	1	1	1	1	1	1	0	1	-6,20155	274,012117	313,43919	0
15.01.2021	21:57:06	0	0	2,71155	2,016	297,2016	-0,027	86,945	0	1017,4	6,7	8,6	8,6	1	1	1	1	1	1	1	1	1	0	1	-3,453136	273,982429	316,049101	0
15.01.2021	21:57:07	0	0	2,598569	2,07825	309,8376	-0,026	86,944	0	1017,4	6,7	8,6	8,6	1	1	1	1	1	1	1	1	1	0	1	-7,681466	273,87888	311,338034	0
15.01.2021	21:57:08	0	0	4,180356	2,09775	306,1548	-0,028	86,955	0	1017,52	6,7	8,6	8,4	1	1	1	1	1	1	1	1	1	0	1	-5,778717	273,844978	313,082853	0
15.01.2021	21:57:09	0	0	2,937512	2,09475	312,1812	-0,026	86,954	0	1017,44	6,7	8,6	8,6	1	1	1	1	1	1	1	1	1	0	1	-8,597604	273,961674	310,807834	0
15.01.2021	21:57:10	0	0	3,841362	1,9605	301,6224	-0,024	86,952	0	1017,54	6,7	8,6	8,6	1	1	1	1	1	1	1	1	1	0	1	-6,272023	273,858237	312,651306	0
15.01.2021	21:57:11	0	0	3,954344	1,875	284,76	-0,025	86,936	0	1017,4	6,7	8,6	8,6	1	1	1	1	1	1	1	1	1	0	1	-9,090909	273,917276	310,107526	0
15.01.2021	21:57:12	0	0	4,858193	1,72125	290,7252	-0,028	86,945	0	1017,42	6,7	8,6	8,6	1	1	1	1	1	1	1	1	1	0	1	-11,768851	274,029951	307,955116	0
15.01.2021	21:57:13	0	0	4,745212	1,66425	297,5436	-0,02	86,958	0	1017,56	6,7	8,6	8,6	1	1	1	1	1	1	1	1	1	0	1	-11,486963	273,951305	307,870123	0
15.01.2021	21:57:14	0	0	2,937512	1,63125	290,7792	-0,022	86,94	0	1017,5	6,7	8,6	8,6	1	1	1	1	1	1	1	1	1	0	1	-9,090909	273,856763	309,825555	0
15.01.2021	21:57:15	0	0	2,71155	1,6305	289,5264	-0,02	86,945	0	1017,48	6,7	8,6	8,6	1	1	1	1	1	1	1	1	1	0	1	-8,104299	273,983912	311,404857	0
15.01.2021	21:57:16	0	0	3,6154	1,7775	285,1668	-0,023	86,957	0	1017,42	6,7	8,6	8,6	1	1	1	1	1	1	1	1	1	0	1	-7,188161	273,855289	311,72144	0
15.01.2021	21:57:17	0	0	2,937512	1,96725	293,3748	-0,025	86,944	0	1017,6	6,7	8,6	8,6	1	1	1	1	1	1	1	1	1	0	1	-9,372798	273,909886	309,791194	0
15.01.2021	21:57:18	0	0	3,389437	2,1135	293,3748	-0,026	86,969	0	1017,52	6,7	8,6	8,6	1	1	1	1	1	1	1	1	1	0	1	-9,584214	274,00766	310,035734	0
15.01.2021	21:57:19	0	0	3,050494	2,14125	282,1176	-0,025	86,945	0	1017,54	6,7	8,6	8,6	1	1	1	1	1	1	1	1	1	0	1	-6,553911	273,973531	312,906825	0
15.01.2021	21:57:20	0	0	4,406268	2,12625	283,5432	-0,024	86,955	0	1017,52	6,7	8,6	8,6	1	1	1	1	1	1	1	1	1	0	1	-11,205074	274,032925	308,532773	0
15.01.2021	21:57:21	0	0	4,406268	2,00175	278,388	-0,024	86,955	0	1017,38	6,7	8,6	8,6	1	1	1	1	1	1	1	1	1	0	1	-8,45666	273,915798	310,734886	0
15.01.2021	21:57:22	0	0	4,745269	1,8555	279,8604	-0,026	86,959	0	1017,46	6,7	8,6	8,4	1	1	1	1	1	1	1	1	1	0	1	-12,05074	274,037387	307,707932	0
15.01.2021	21:57:23	0	0	2,71155	1,73025	278,4672	-0,02	86,96	0	1017,44	6,7	8,6	8,6	1	1	1	1	1	1	1	1	1	0	1	-7,751938	273,899545	311,363858	0
15.01.2021	21:57:24	0	0	2,824531	1,77225	268,1028	-0,02	86,965	0	1017,5	6,7	8,6	8,6	1	1	1	1	1	1	1	1	1	0	1	-11,06413	273,856763	307,852335	0
15.01.2021	21:57:25	0	0	4,51925	1,91625	277,5492	-0,023	86,954	0	1017,64	6,7	8,6	8,6	1	1	1	1	1	1	1	1	1	0	1	-9,231853	273,927626	310,014831	0
15.01.2021	21:57:26	0	0	4,067325	1,96425	284,7888	-0,017	86,947	0	1017,44	6,7	8,6	8,6	1	1	1	1	1	1	1	1	1	0	1	-5,144468	274,043338	314,64198	0
15.01.2021	21:57:27	0	0	3,502461	2,03475	275,796	-0,028	86,962	0	1017,48	6,7	8,6	8,4	1	1	1	1	1	1	1	1	1	0	1	-5,003524	273,88921	314,064109	0
15.01.2021	21:57:28	0	0	4,519304	2,08275	288,378	-0,023	86,958	0	1017,38	6,7	8,6	8,4	1	1	1	1	1	1	1	1	1	0	1	-10,570825	274,015088	309,083781	0
15.01.2021	21:57:29	0	0	3,276456	2,0775	282,33	-0,026	86,959	0	1017,48	6,7	8,6	8,6	1	1	1	1	1	1	1	1	1	0	1	-5,355884	274,024005	314,34033	0
15.01.2021	21:57:30	0	0	4,519304	2,10375	303,516	-0,025	86,991	0	1017,7	6,7	8,6	8,4	1	1	1	1	1	1	1	1	1	0	1	-7,892882	274,029951	311,831085	0
15.01.2021	21:57:31	0	0	4,406268	2,03775	311,3748	-0,021	86,967	0	1017,52	6,7	8,6	8,6	1	1	1	1	1	1	1	1	1	0	1	-10,500352	273,997267	309,071104	0
15.01.2021	21:57:32	0	0	2,824565	2,127	308,0232	-0,021	86,97	0	1017,6	6,7	8,6	8,4	1	1	1	1	1	1	1	1	1	0	1	-6,483439	273,908408	312,673665	0
15.01.2021	21:57:33	0	0	2,485587	2,25	304,3512	-0,022	86,983	0	1017,56	6,7	8,6	8,6	1	1	1	1	1	1	1	1	1	0	1	-7,82241	273,861184	311,11465	0
15.01.2021	21:57:34	0	0	2,71155	2,3595	302,0832	-0,025	86,961	0	1017,56	6,7	8,6	8,6	1	1	1	1	1	1	1	1	1	0	1	-8,949965	273,933543	310,324304	0
15.01.2021	21:57:35	0	0	5,084156	2,34975	309,9348	-0,022	86,962	0	1017,58	6,7	8,6	8,6	1	1	1	1	1	1	1	1	1	0	1	-6,8358	273,850869	312,053212	0
15.01.2021	21:57:36	0	0	2,485587	2,3385	303,4332	-0,023	86,96	0	1017,66	6,7	8,6	8,6	1	1	1	1	1	1	1	1	1	0	1	-2,536998	273,937982	316,757967	0
15.01.2021	21:57:37	0	0	4,745269	2,343	306,8712	-0,022	86,959	0	1017,34	6,7	8,6	8,4	1	1	1	1	1	1	1	1	1	0	1	-7,188161	274,037387	312,570512	0
15.01.2021	21:57:38	0	0	3,050494	2,36325	304,6428	-0,028	86,957	0	1017,38	6,7	8,6	8,6	1	1	1	1	1	1	1	1	1	0	1	-9,161381	273,976497	310,313186	0
15.01.2021	21:57:39	0	0	4,858193	2,36025	306,1188	-0,028	86,959	0	1017,44	6,7	8,6	8,6	1	1	1	1	1	1	1	1	1	0	1	-7,117689	274,028464	312,599339	0
15.01.2021	21:57:40	0	0	4,51925	2,30775	312,1704	-0,022	86,961	0	1017,48	6,7	8,6	8,6	1	1	1	1	1	1	1	1	1	0	1	-9,866103	273,902499	309,26346	0
15.01.2021	21:57:41	0	0	2,598569	2,286	320,0004	-0,02	86,968	0	1017,36	6,7	8,6	8,6	1	1	1	1	1	1	1	1	1	0	1	-6,906272	273,846451	311,962158	0
15.01.2021	21:57:42	0	0	2,598569	2,13525	310,6944	-0,021	86,964	0	1017,42	6,7	8,6	8,6	1	1	1	1	1	1	1	1	1	0	1	-9,513742	274,037387	310,24493	0
15.01.2021	21:57:43	0	0	4,180306	2,0955	313,1748	-0,023	86,968	0	1017,5	6,7	8,6	8,6	1	1	1	1	1	1	1	1	1	0	1	-10,359408	273,973531	309,101328	0
15.01.2021	21:57:44	0	0	2,824531	2,229	308,0988	-0,027	86,961	0	1017,54	6,7	8,6	8,6	1	1	1	1	1	1	1	1	1	0	1	-8,80902	273,87003	310,169248	0
15.01.2021	21:57:45	0	0	2,598569	2,361	310,2768	-0,024	86,966	0	1017,34	6,7	8,6	8,6	1	1	1	1	1	1	1	1	1	0	1	-10,077519	274,021032	309,604823	0
15.01.2021	21:57:46	0	0	4,180306	2,52675	307,134	-0,02	86,967	0	1017,48	6,7	8,6	8,6	1	1	1	1	1	1	1	1	1	0	1	-6,060606	273,99133	313,483155	0
15.01.2021	21:57:47	0	0	3,728426	2,54925	312,8616	-0,024	86,973	0	1017,42	6,7	8,6	8,4	1	1	1	1	1	1	1	1	1	0	1	-4,933051	273,85971	313,997143	0
15.01.2021	21:57:48	0	0	2,824565	2,53725	310,2228	-0,025	86,964	0	1017,46	6,7	8,6	8,4	1	1	1	1	1	1	1	1	1	0	1	-8,45666	273,88921	310,610973	0
15.01.2021	21:57:49	0	0	3,841362	2,62125	306,2124	-0,025	86,955	0	1017,24	6,7	8,6	8,6	1	1	1	1	1	1	1	1	1	0	1	-6,272023	273,995783	313,292509	0
15.01.2021	21:57:50	0	0	3,163475	2,736	298,7604	-0,026	86,97	0	1017,42	6,7	8,6	8,6	1	1	1	1	1	1	1	1	1	0	1	-5,355884	273,85971	313,57431	0
15.01.2021	21:57:51	0	0	2,937548	2,781	299,0124	-0,026	86,975	0	1017,54	6,7	8,6	8,4	1	1	1	1	1	1	1	1	1	0	1	-8,527132	273,903976	310,609316	0
15.01.2021	21:57:52	0	0	3,050494	2,78325	301,5972	-0,031	86,961	0	1017,42	6,7	8,6	8,6	1	1	1	1	1	1	1	1	1	0	1	-7,963354	274,022518	311,725924	0
15.01.2021	21:57:53	0	0	2,485587	2,79075	299,4588	-0,025	86,971	0	1017,58	6,6	8,6	8,6	1	1	1	1	1	1	1	1	1	0	1	-7,82241	273,976497	311,652157	0
15.01.2021	21:57:54	0	0	3,502419	2,8455	297,1728	-0,023	86,965	0	1017,52	6,7	8,6	8,6	1	1	1	1	1	1	1	1	1	0	1	-6,060606	273,874454	312,938275	0
15.01.2021	21:57:55	0	0	2,937512	2,74875	302,346	-0,023	86,965	0	1017,66	6,7	8,6	8,6	1	1	1	1	1	1	1	1	1	0	1	-9,584214	273,998751	309,994168	0
15.01.2021	21:57:56	0	0	4,406268	2,667	303,264	-0,023	86,95	0	1017,44	6,7	8,6	8,6	1	1	1	1	1	1	1	1	1	0	1	-7,892882	274,034413	311,851906	0
15.01.2021	21:57:57	0	0	2,71155	2,577	308,754	-0,027	86,971	0	1017,4	6,7	8,6	8,6	1	1	1	1	1	1	1	1	1	0	1	-5,990134	273,898068	313,11878	0
15.01.2021	21:57:58	0	0	3,728381	2,5485	308,4444	-0,025	86,955	0	1017,46	6,7	8,6	8,6	1	1	1	1	1	1	1	1	1	0	1	-5,355884	273,884782	313,691116	0
15.01.2021	21:57:59	0	0	4,745212	2,56425	315,18	-0,025	86,966	0	1017,42	6,7	8,6	8,6	1	1	1	1	1	1	1	1	1	0	1	-7,963354	273,906931	311,186864	0
15.01.2021	21:58:00	0	0	2,598569	2,6625	315,8424	-0,024	86,964	0	1017,46	6,7	8,6	8,6	1	1	1	1	1	1	1	1	1	0	1	-5,778717	273,877405	313,233909	0
15.01.2021	21:58:01	0	0	3,954391	2,65875	312,8328	-0,022	86,957	0	1017,5	6,7	8,6	8,4	1	1	1	1	1	1	1	1	1	0	1	-5,285412	274,04185	314,494091	0
15.01.2021	21:58:02	0	0	4,971175	2,63775	314,028	-0,031	86,947	0	1017,38	6,7	8,6	8,6	1	1	1	1	1	1	1	1	1	0	1	-10,923185	274,006175	308,689834	0
15.01.2021	21:58:03	0	0	4,971175	2,646	311,6988	-0,027	86,965	0	1017,6	6,7	8,6	8,6	1	1	1	1	1	1	1	1	1	0	1	-4,369274	273,921711	314,849836	0
15.01.2021	21:58:04	0	0	2,485587	2,67075	309,6144	-0,03	86,963	0	1017,38	6,7	8,6	8,6	1	1	1	1	1	1	1	1	1	0	1	-9,584214	273,843505	309,270497	0
15.01.2021	21:58:05	0	0	2,485587	2,634	315,4824	-0,024	86,968	0	1017,38	6,6	8,6	8,6	1	1	1	1	1	1	1	1	1	0	1	-12,755462	273,969084	306,684533	0
15.01.2021	21:58:06	0	0	3,954344	2,45475	312,0552	-0,02	86,957	0	1017,48	6,7	8,6	8,6	1	1	1	1	1	1	1	1	1	0	1	-10,077519	273,994298	309,480088	0
15.01.2021	21:58:07	0	0	4,293287	2,283	308,502	-0,03	86,951	0	1017,52	6,7	8,6	8,6	1	1	1	1	1	1	1	1	1	0	1	-12,755462	274,031438	306,975445	0
15.01.2021	21:58:08	0	0	2,824531	2,24775	303,1884	-0,021	86,961	0	1017,6	6,7	8,6	8,6	1	1	1	1	1	1	1	1	1	0	1	-4,157858	273,935023	315,123309	0
15.01.2021	21:58:09	0	0	3,6154	2,30625	297,2376	-0,022	86,972	0	1017,52	6,7	8,6	8,6	1	1	1	1	1	1	1	1	1	0	1	-8,245243	274,040363	311,527316	0
15.01.2021	21:58:10	0	0	2,259625	2,325	309,9276	-0,023	86,968	0	1017,5	6,7	8,6	8,6	1	1	1	1	1	1	1	1	1	0	1	-4,510218	273,995783	315,054313	0
15.01.2021	21:58:11	0	0	2,71155	2,334	288,8136	-0,023	86,979	0	1017,52	6,7	8,6	8,6	1	1	1	1	1	1	1	1	1	0	1	-8,668076	273,865607	310,289585	0
15.01.2021	21:58:12	0	0	5,310118	2,30925	295,4304	-0,021	86,977	0	1017,44	6,7	8,6	8,6	1	1	1	1	1	1	1	1	1	0	1	-10,147992	274,049291	309,666243	0
15.01.2021	21:58:13	0	0	3,276456	2,3655	292,6224	-0,027	86,969	0	1017,38	6,7	8,6	8,6	1	1	1	1	1	1	1	1	1	0	1	-4,721635	273,972049	314,732186	0
15.01.2021	21:58:14	0	0	3,6154	2,49225	292,914	-0,031	86,964	0	1017,52	6,7	8,6	8,6	1	1	1	1	1	1	1	1	1	0	1	-8,597604	274,019546	311,077803	0
15.01.2021	21:58:15	0	0	2,71155	2,60475	299,0196	-0,025	86,95	0	1017,4	6,7	8,6	8,6	1	1	1	1	1	1	1	1	1	0	1	-3,875969	273,994298	315,681638	0
15.01.2021	21:58:16	0	0	4,971175	2,658	305,3736	-0,031	86,97	0	1017,4	6,7	8,6	8,6	1	1	1	1	1	1	1	1	1	0	1	-9,090909	274,019546	310,584498	0
15.01.2021	21:58:17	0	0	3,728426	2,60925	292,1976	-0,025	86,984	0	1017,42	6,7	8,6	8,4	1	1	1	1	1	1	1	1	1	0	1	-8,879493	273,929105	310,374087	0
15.01.2021	21:58:18	0	0	3,05053	2,592	301,2444	-0,026	86,979	0	1017,28	6,7	8,6	8,4	1	1	1	1	1	1	1	1	1	0	1	-4,792107	273,868555	314,179292	0
15.01.2021	21:58:19	0	0	3,728381	2,592	294,7752	-0,027	86,981	0	1017,4	6,7	8,6	8,6	1	1	1	1	1	1	1	1	1	0	1	-8,879493	273,85971	310,050702	0
15.01.2021	21:58:20	0	0	4,406321	2,625	296,8344	-0,032	86,972	0	1017,3	6,7	8,6	8,4	1	1	1	1	1	1	1	1	1	0	1	-12,403101	273,964638	307,016158	0
15.01.2021	21:58:21	0	0	4,51925	2,59425	296,838	-0,028	86,976	0	1017,4	6,7	8,6	8,6	1	1	1	1	1	1	1	1	1	0	1	-7,258633	273,875929	311,747121	0
15.01.2021	21:58:22	0	0	4,745212	2,625	296,4564	-0,027	86,977	0	1017,28	6,7	8,6	8,6	1	1	1	1	1	1	1	1	1	0	1	-8,386187	274,001721	311,206047	0
15.01.2021	21:58:23	0	0	4,745212	2,51025	297,648	-0,024	86,985	0	1017,54	6,7	8,6	8,6	1	1	1	1	1	1	1	1	1	0	1	-5,496829	273,862658	313,447098	0
15.01.2021	21:58:24	0	0	2,824531	2,496	300,8376	-0,027	86,977	0	1017,44	6,7	8,6	8,6	1	1	1	1	1	1	1	1	1	0	1	-7,82241	273,988363	311,707507	0
15.01.2021	21:58:25	0	0	3,728381	2,51475	299,0196	-0,024	86,978	0	1017,38	6,7	8,6	8,6	1	1	1	1	1	1	1	1	1	0	1	-8,104299	274,04185	311,675204	0
15.01.2021	21:58:26	0	0	4,406268	2,496	296,892	-0,029	86,975	0	1017,38	6,7	8,6	8,6	1	1	1	1	1	1	1	1	1	0	1	-5,426357	274,006175	314,186663	0
15.01.2021	21:58:27	0	0	4,745212	2,385	303,5196	-0,02	87,004	0	1017,46	6,7	8,6	8,6	1	1	1	1	1	1	1	1	1	0	1	-4,651163	274,00766	314,968786	0
15.01.2021	21:58:28	0	0	4,519304	2,35575	302,0148	-0,021	86,993	0	1017,64	6,7	8,6	8,4	1	1	1	1	1	1	1	1	1	0	1	-4,016913	274,058223	315,83902	0
15.01.2021	21:58:29	0	0	4,406268	2,45625	305,748	-0,021	86,987	0	1017,38	6,7	8,6	8,6	1	1	1	1	1	1	1	1	1	0	1	-7,540521	274,019546	312,134885	0
15.01.2021	21:58:30	0	0	4,51925	2,44125	300,1284	-0,027	86,979	0	1017,42	6,7	8,6	8,6	1	1	1	1	1	1	1	1	1	0	1	-4,157858	273,892162	314,923533	0
15.01.2021	21:58:31	0	0	2,598569	2,41575	299,3976	-0,025	86,994	0	1017,44	6,6	8,6	8,6	1	1	1	1	1	1	1	1	1	0	1	-8,245243	274,040363	311,527316	0
15.01.2021	21:58:32	0	0	4,067374	2,49525	296,136	-0,026	87,006	0	1017,44	6,7	8,6	8,4	1	1	1	1	1	1	1	1	1	0	1	-3,664553	273,896591	315,437479	0
15.01.2021	21:58:33	0	0	2,824531	2,4945	304,6896	-0,019	87,008	0	1017,48	6,7	8,6	8,6	1	1	1	1	1	1	1	1	1	0	1	-8,386187	273,903976	310,75026	0
15.01.2021	21:58:34	0	0	3,841362	2,448	311,0436	-0,02	86,997	0	1017,54	6,7	8,6	8,6	1	1	1	1	1	1	1	1	1	0	1	-10,711769	274,015088	308,942836	0
15.01.2021	21:58:35	0	0	3,276456	2,3655	304,7184	-0,027	86,998	0	1017,2	6,7	8,6	8,6	1	1	1	1	1	1	1	1	1	0	1	-7,399577	273,85971	311,530617	0
15.01.2021	21:58:36	0	0	3,389437	2,28675	304,272	-0,025	87,006	0	1017,5	6,7	8,6	8,6	1	1	1	1	1	1	1	1	1	0	1	-5,21494	273,91432	313,969716	0
15.01.2021	21:58:37	0	0	3,276456	2,259	304,3044	-0,023	87,003	0	1017,42	6,7	8,6	8,6	1	1	1	1	1	1	1	1	1	0	1	-10,993658	273,858237	307,929671	0
15.01.2021	21:58:38	0	0	4,745212	2,21475	306,8424	-0,024	87,007	0	1017,36	6,7	8,6	8,6	1	1	1	1	1	1	1	1	1	0	1	-8,527132	273,967602	310,90595	0
15.01.2021	21:58:39	0	0	4,51925	2,1735	310,2588	-0,021	87,013	0	1017,46	6,7	8,6	8,6	1	1	1	1	1	1	1	1	1	0	1	-8,668076	273,87003	310,310192	0
15.01.2021	21:58:40	0	0	2,598569	2,20425	302,454	-0,018	87,016	0	1017,52	6,7	8,6	8,6	1	1	1	1	1	1	1	1	1	0	1	-11,557435	274,001721	308,0348	0
15.01.2021	21:58:41	0	0	4,858193	2,2125	311,0112	-0,022	87,018	0	1017,44	6,7	8,6	8,6	1	1	1	1	1	1	1	1	1	0	1	-8,033827	273,87888	310,985673	0
15.01.2021	21:58:42	0	0	4,293287	2,18025	306,1224	-0,021	87,011	0	1017,5	6,7	8,6	8,6	1	1	1	1	1	1	1	1	1	0	1	-8,738548	273,921711	310,480561	0
15.01.2021	21:58:43	0	0	2,824531	2,26575	305,4348	-0,021	87,028	0	1017,3	6,7	8,6	8,6	1	1	1	1	1	1	1	1	1	0	1	-6,976744	273,855289	311,932856	0
15.01.2021	21:58:44	0	0	4,180306	2,34075	300,1788	-0,023	87,017	0	1017,26	6,7	8,6	8,6	1	1	1	1	1	1	1	1	1	0	1	-11,698379	273,920233	307,513839	0
15.01.2021	21:58:45	0	0	4,858252	2,4105	300,4596	-0,03	87,014	0	1017,36	6,7	8,6	8,4	1	1	1	1	1	1	1	1	1	0	1	-6,20155	273,892162	312,87984	0
15.01.2021	21:58:46	0	0	4,745212	2,47725	309,6576	-0,023	87,028	0	1017,46	6,6	8,6	8,6	1	1	1	1	1	1	1	1	1	0	1	-8,45666	273,986879	311,066336	0
15.01.2021	21:58:47	0	0	4,745212	2,50575	306,0936	-0,021	87,009	0	1017,42	6,7	8,6	8,6	1	1	1	1	1	1	1	1	1	0	1	-9,513742	273,898068	309,595172	0
15.01.2021	21:58:48	0	0	2,937512	2,4405	304,668	-0,023	87,029	0	1017,52	6,7	8,6	8,6	1	1	1	1	1	1	1	1	1	0	1	-5,285412	273,997267	314,286044	0
15.01.2021	21:58:49	0	0	2,372635	2,42775	307,5516	-0,022	87,027	0	1017,4	6,7	8,6	8,4	1	1	1	1	1	1	1	1	1	0	1	-7,82241	274,04185	311,957093	0
15.01.2021	21:58:50	0	0	4,632231	2,48325	306,8244	-0,021	87,045	0	1017,52	6,7	8,6	8,6	1	1	1	1	1	1	1	1	1	0	1	-7,681466	273,989846	311,855373	0
15.01.2021	21:58:51	0	0	4,971234	2,508	309,2616	-0,019	87,026	0	1017,42	6,7	8,6	8,4	1	1	1	1	1	1	1	1	1	0	1	-8,104299	273,864132	310,846495	0
15.01.2021	21:58:52	0	0	4,067374	2,499	302,886	-0,02	87,017	0	1017,42	6,7	8,6	8,4	1	1	1	1	1	1	1	1	1	0	1	-12,262156	274,043338	307,524292	0
15.01.2021	21:58:53	0	0	3,276456	2,36775	303,5304	-0,023	87,025	0	1017,36	6,7	8,6	8,6	1	1	1	1	1	1	1	1	1	0	1	-12,966878	273,929105	306,286702	0
15.01.2021	21:58:54	0	0	3,163475	2,31525	303,4764	-0,019	87,028	0	1017,42	6,7	8,6	8,6	1	1	1	1	1	1	1	1	1	0	1	-4,439746	273,901022	314,682933	0
15.01.2021	21:58:55	0	0	2,372635	2,22675	303,4872	-0,017	87,049	0	1017,48	6,7	8,6	8,4	1	1	1	1	1	1	1	1	1	0	1	-6,20155	274,058223	313,654383	0
15.01.2021	21:58:56	0	0	4,971234	2,1675	299,7648	-0,019	87,035	0	1017,5	6,7	8,6	8,4	1	1	1	1	1	1	1	1	1	0	1	-5,426357	274,000236	314,158951	0
15.01.2021	21:58:57	0	0	3,954344	2,202	294,0804	-0,019	87,038	0	1017,42	6,7	8,6	8,6	1	1	1	1	1	1	1	1	1	0	1	-7,892882	274,055245	311,949149	0
15.01.2021	21:58:58	0	0	3,6154	2,166	301,2084	-0,018	87,038	0	1017,26	6,7	8,6	8,6	1	1	1	1	1	1	1	1	1	0	1	-6,483439	273,963156	312,928909	0
15.01.2021	21:58:59	0	0	5,1972	2,11575	300,4776	-0,018	87,04	0	1017,44	6,7	8,6	8,4	1	1	1	1	1	1	1	1	1	0	1	-7,610994	274,049291	312,203241	0
15.01.2021	21:59:00	0	0	3,163513	2,0955	300,816	-0,022	87,035	0	1017,46	6,7	8,6	8,4	1	1	1	1	1	1	1	1	1	0	1	-5,919662	273,979462	313,568739	0
15.01.2021	21:59:01	0	0	3,050494	2,07075	292,6224	-0,021	87,041	0	1017,38	6,7	8,6	8,6	1	1	1	1	1	1	1	1	1	0	1	-9,795631	273,865607	309,162031	0
15.01.2021	21:59:02	0	0	4,519304	1,99575	297,5076	-0,02	87,033	0	1017,48	6,7	8,6	8,4	1	1	1	1	1	1	1	1	1	0	1	-6,976744	273,960193	312,421784	0
15.01.2021	21:59:03	0	0	4,745212	1,95825	298,7316	-0,022	87,044	0	1017,32	6,7	8,6	8,6	1	1	1	1	1	1	1	1	1	0	1	-11,627907	274,046314	308,172433	0
15.01.2021	21:59:04	0	0	5,084156	1,91475	296,4816	-0,016	87,043	0	1017,4	6,7	8,6	8,6	1	1	1	1	1	1	1	1	1	0	1	-8,80902	273,946863	310,527352	0
15.01.2021	21:59:05	0	0	3,502419	1,914	297,9612	-0,021	87,041	0	1017,46	6,7	8,6	8,6	1	1	1	1	1	1	1	1	1	0	1	-6,342495	273,867081	312,622035	0
15.01.2021	21:59:06	0	0	4,632231	1,96875	295,542	-0,021	87,056	0	1017,5	6,7	8,6	8,6	1	1	1	1	1	1	1	1	1	0	1	-13,389711	273,939462	305,912153	0
15.01.2021	21:59:07	0	0	4,745212	1,893	290,0592	-0,021	87,056	0	1017,46	6,7	8,6	8,6	1	1	1	1	1	1	1	1	1	0	1	-6,553911	273,875929	312,451842	0
15.01.2021	21:59:08	0	0	4,745212	1,79925	300,114	-0,021	87,041	0	1017,4	6,7	8,6	8,6	1	1	1	1	1	1	1	1	1	0	1	-8,245243	273,940942	311,063522	0
15.01.2021	21:59:09	0	0	3,841362	1,7415	293,7492	-0,022	87,043	0	1017,6	6,7	8,6	8,6	1	1	1	1	1	1	1	1	1	0	1	-7,258633	273,875929	311,747121	0
15.01.2021	21:59:10	0	0	4,067325	1,7535	288,8424	-0,016	87,055	0	1017,38	6,7	8,6	8,6	1	1	1	1	1	1	1	1	1	0	1	-8,80902	273,927626	310,437664	0
15.01.2021	21:59:11	0	0	3,841362	1,7535	302,0364	-0,016	87,059	0	1017,56	6,7	8,6	8,6	1	1	1	1	1	1	1	1	1	0	1	-4,298802	273,912842	314,878965	0
15.01.2021	21:59:12	0	0	3,841362	1,81125	296,8272	-0,025	87,047	0	1017,4	6,7	8,6	8,6	1	1	1	1	1	1	1	1	1	0	1	-10,218464	274,044826	309,57493	0
15.01.2021	21:59:13	0	0	4,858193	1,914	291,8736	-0,023	87,056	0	1017,4	6,7	8,6	8,6	1	1	1	1	1	1	1	1	1	0	1	-15,503876	274,001721	304,088359	0
15.01.2021	21:59:14	0	0	2,937512	1,98825	295,218	-0,021	87,059	0	1017,36	6,7	8,6	8,6	1	1	1	1	1	1	1	1	1	0	1	-10,077519	273,874454	308,921362	0
15.01.2021	21:59:15	0	0	3,389437	1,99425	293,3496	-0,016	87,057	0	1017,44	6,7	8,6	8,6	1	1	1	1	1	1	1	1	1	0	1	-6,624383	274,013602	313,023289	0
15.01.2021	21:59:16	0	0	4,406268	2,007	299,466	-0,013	87,057	0	1017,48	6,7	8,6	8,6	1	1	1	1	1	1	1	1	1	0	1	-6,624383	274,052268	313,203748	0
15.01.2021	21:59:17	0	0	2,824531	1,995	299,142	-0,02	87,064	0	1017,3	6,7	8,6	8,6	1	1	1	1	1	1	1	1	1	0	1	-14,446794	273,887734	304,613961	0
15.01.2021	21:59:18	0	0	3,954344	1,863	307,188	-0,02	87,071	0	1017,4	6,7	8,6	8,6	1	1	1	1	1	1	1	1	1	0	1	-10,42988	274,049291	309,384354	0
15.01.2021	21:59:19	0	0	3,163475	1,7505	305,766	-0,016	87,055	0	1017,4	6,7	8,6	8,6	1	1	1	1	1	1	1	1	1	0	1	-9,725159	273,898068	309,383755	0
15.01.2021	21:59:20	0	0	4,406268	1,69125	293,7492	-0,015	87,063	0	1017,44	6,7	8,6	8,6	1	1	1	1	1	1	1	1	1	0	1	-4,157858	273,945383	315,171612	0
15.01.2021	21:59:21	0	0	3,954344	1,72125	296,4636	-0,019	87,056	0	1017,52	6,7	8,6	8,6	1	1	1	1	1	1	1	1	1	0	1	-6,060606	274,064181	313,82314	0
15.01.2021	21:59:22	0	0	3,050494	1,7475	298,656	-0,016	87,051	0	1017,54	6,7	8,6	8,6	1	1	1	1	1	1	1	1	1	0	1	-5,84919	273,942422	313,466476	0
15.01.2021	21:59:23	0	0	4,406268	1,8135	295,1532	-0,015	87,079	0	1017,52	6,7	8,6	8,6	1	1	1	1	1	1	1	1	1	0	1	-7,610994	274,059713	312,251892	0
15.01.2021	21:59:24	0	0	5,084156	1,911	283,5288	-0,018	87,062	0	1017,5	6,7	8,6	8,6	1	1	1	1	1	1	1	1	1	0	1	-7,470049	273,994298	312,087558	0
15.01.2021	21:59:25	0	0	2,824565	1,97775	289,1448	-0,02	87,055	0	1017,32	6,7	8,6	8,4	1	1	1	1	1	1	1	1	1	0	1	-9,161381	274,062691	310,71541	0
15.01.2021	21:59:26	0	0	3,954344	2,0055	290,4336	-0,021	87,06	0	1017,28	6,7	8,6	8,6	1	1	1	1	1	1	1	1	1	0	1	-2,466526	274,037387	317,292147	0
15.01.2021	21:59:27	0	0	3,276495	1,9815	305,7624	-0,02	87,062	0	1017,38	6,7	8,6	8,4	1	1	1	1	1	1	1	1	1	0	1	-10,500352	274,052268	309,327779	0
15.01.2021	21:59:28	0	0	2,598569	1,91625	302,0832	-0,017	87,08	0	1017,44	6,7	8,6	8,6	1	1	1	1	1	1	1	1	1	0	1	-8,597604	273,977979	310,883879	0
15.01.2021	21:59:29	0	0	4,632231	1,87425	301,212	-0,015	87,077	0	1017,28	6,7	8,6	8,6	1	1	1	1	1	1	1	1	1	0	1	-9,090909	274,053757	310,744172	0
15.01.2021	21:59:30	0	0	4,51925	1,8825	305,0496	-0,01	87,074	0	1017,46	6,7	8,6	8,6	1	1	1	1	1	1	1	1	1	0	1	-7,751938	273,954267	311,618959	0
15.01.2021	21:59:31	0	0	3,502419	1,80075	298,296	-0,023	87,068	0	1017,4	6,7	8,6	8,6	1	1	1	1	1	1	1	1	1	0	1	-7,470049	273,901022	311,65263	0
15.01.2021	21:59:32	0	0	3,389478	1,80825	298,7136	-0,023	87,076	0	1017,52	6,7	8,6	8,4	1	1	1	1	1	1	1	1	1	0	1	-8,386187	274,040363	311,386372	0
15.01.2021	21:59:33	0	0	3,276456	1,8585	302,8428	-0,018	87,075	0	1017,44	6,7	8,6	8,6	1	1	1	1	1	1	1	1	1	0	1	-6,906272	274,000236	312,679036	0
15.01.2021	21:59:34	0	0	4,745269	1,902	292,2156	-0,016	87,075	0	1017,44	6,7	8,6	8,4	1	1	1	1	1	1	1	1	1	0	1	-9,795631	274,040363	309,976928	0
15.01.2021	21:59:35	0	0	4,745212	1,8825	301,5612	-0,027	87,08	0	1017,44	6,7	8,6	8,6	1	1	1	1	1	1	1	1	1	0	1	-8,45666	274,000236	311,128648	0
15.01.2021	21:59:36	0	0	3,954344	1,88475	300,15	-0,014	87,091	0	1017,42	6,7	8,6	8,6	1	1	1	1	1	1	1	1	1	0	1	-8,949965	274,062691	310,926827	0
15.01.2021	21:59:37	0	0	4,858193	1,80075	308,4084	-0,015	87,074	0	1017,56	6,7	8,6	8,6	1	1	1	1	1	1	1	1	1	0	1	-3,735025	274,0359	316,016705	0
15.01.2021	21:59:38	0	0	3,728381	1,81575	304,3404	-0,017	87,083	0	1017,46	6,7	8,6	8,6	1	1	1	1	1	1	1	1	1	0	1	-10,782241	274,047803	309,025046	0
15.01.2021	21:59:39	0	0	4,51925	1,84275	295,4772	-0,016	87,093	0	1017,56	6,7	8,6	8,6	1	1	1	1	1	1	1	1	1	0	1	-7,963354	273,915798	311,228191	0
15.01.2021	21:59:40	0	0	4,971175	1,90875	297,2448	-0,015	87,082	0	1017,44	6,7	8,6	8,6	1	1	1	1	1	1	1	1	1	0	1	-6,8358	274,021032	312,846542	0
15.01.2021	21:59:41	0	0	4,632231	1,9455	297,8892	-0,015	87,06	0	1017,32	6,7	8,6	8,6	1	1	1	1	1	1	1	1	1	0	1	-9,725159	273,865607	309,232503	0
15.01.2021	21:59:42	0	0	4,971175	2,0025	298,2636	-0,012	87,081	0	1017,56	6,7	8,6	8,6	1	1	1	1	1	1	1	1	1	0	1	-3,523608	273,982429	315,978629	0
15.01.2021	21:59:43	0	0	4,180306	1,9635	296,8416	-0,012	87,086	0	1017,62	6,7	8,6	8,6	1	1	1	1	1	1	1	1	1	0	1	-6,906272	273,871505	312,078867	0
15.01.2021	21:59:44	0	0	3,615443	1,92825	304,2144	-0,017	87,09	0	1017,48	6,7	8,6	8,4	1	1	1	1	1	1	1	1	1	0	1	-6,483439	273,983912	313,025717	0
15.01.2021	21:59:45	0	0	3,6154	1,9395	302,7528	-0,011	87,107	0	1017,4	6,7	8,6	8,6	1	1	1	1	1	1	1	1	1	0	1	-8,033827	273,872979	310,958183	0
15.01.2021	21:59:46	0	0	3,389437	1,89975	297,1836	-0,017	87,078	0	1017,48	6,7	8,6	8,6	1	1	1	1	1	1	1	1	1	0	1	-8,174771	273,929105	311,078809	0
15.01.2021	21:59:47	0	0	2,485587	1,839	308,1456	-0,018	87,087	0	1017,6	6,7	8,6	8,6	1	1	1	1	1	1	1	1	1	0	1	-10,570825	273,874454	308,428057	0
15.01.2021	21:59:48	0	0	3,6154	1,815	293,6664	-0,011	87,094	0	1017,62	6,7	8,6	8,6	1	1	1	1	1	1	1	1	1	0	1	-11,134602	274,038875	308,631014	0
15.01.2021	21:59:49	0	0	4,293287	1,785	299,0268	-0,015	87,081	0	1017,52	6,7	8,6	8,6	1	1	1	1	1	1	1	1	1	0	1	-5,84919	274,040363	313,923369	0
15.01.2021	21:59:50	0	0	4,745212	1,824	301,4892	-0,009	87,101	0	1017,62	6,7	8,6	8,6	1	1	1	1	1	1	1	1	1	0	1	-7,047216	273,933543	312,227053	0
15.01.2021	21:59:51	0	0	3,502461	1,89225	304,578	-0,016	87,083	0	1017,58	6,7	8,6	8,4	1	1	1	1	1	1	1	1	1	0	1	-5,708245	273,905453	313,435087	0
15.01.2021	21:59:52	0	0	2,937512	1,977	295,5024	-0,017	87,095	0	1017,3	6,7	8,6	8,6	1	1	1	1	1	1	1	1	1	0	1	-10,359408	273,935023	308,921759	0
15.01.2021	21:59:53	0	0	3,163475	2,019	318,096	-0,012	87,094	0	1017,42	6,7	8,6	8,6	1	1	1	1	1	1	1	1	1	0	1	-7,117689	273,875929	311,888065	0
15.01.2021	21:59:54	0	0	4,180306	2,0865	313,578	-0,015	87,094	0	1017,54	6,7	8,6	8,6	1	1	1	1	1	1	1	1	1	0	1	-3,946441	273,976497	315,528126	0
15.01.2021	21:59:55	0	0	3,389437	2,10525	310,7052	-0,013	87,097	0	1017,48	6,7	8,6	8,6	1	1	1	1	1	1	1	1	1	0	1	-4,087385	273,875929	314,918368	0
15.01.2021	21:59:56	0	0	2,937512	2,109	315,2088	-0,008	87,093	0	1017,5	6,7	8,6	8,6	1	1	1	1	1	1	1	1	1	0	1	-7,470049	273,986879	312,052947	0
15.01.2021	21:59:57	0	0	4,293339	2,0685	315,9252	-0,011	87,094	0	1017,54	6,7	8,6	8,4	1	1	1	1	1	1	1	1	1	0	1	-10,852713	273,872979	308,139297	0
15.01.2021	21:59:58	0	0	3,389478	1,977	315,2016	-0,014	87,088	0	1017,24	6,7	8,6	8,4	1	1	1	1	1	1	1	1	1	0	1	-5,990134	274,021032	313,692208	0
15.01.2021	21:59:59	0	0	3,050494	1,87875	310,7556	-0,014	87,083	0	1017,4	6,7	8,6	8,6	1	1	1	1	1	1	1	1	1	0	1	-7,258633	274,055245	312,583398	0
15.01.2021	22:00:00	0	0	3,841362	1,85625	309,8988	-0,011	87,087	0	1017,52	6,7	8,6	8,6	1	1	1	1	1	1	1	1	1	0	1	-6,694856	273,929105	312,558724	0
15.01.2021	22:00:01	0	0	3,841362	2,007	307,5696	-0,014	87,1	0	1017,48	6,7	8,6	8,6	1	1	1	1	1	1	1	1	1	0	1	-6,412967	274,034413	313,331821	0
15.01.2021	22:00:02	0	0	3,728381	2,19975	303,894	-0,02	87,087	0	1017,4	6,7	8,6	8,6	1	1	1	1	1	1	1	1	1	0	1	-7,751938	273,875929	311,253816	0
15.01.2021	22:00:03	0	0	4,632231	2,29425	310,3344	-0,015	87,082	0	1017,46	6,7	8,6	8,6	1	1	1	1	1	1	1	1	1	0	1	-4,580691	273,963156	314,831657	0
15.01.2021	22:00:04	0	0	3,6154	2,2995	305,0172	-0,011	87,091	0	1017,44	6,7	8,6	8,6	1	1	1	1	1	1	1	1	1	0	1	-4,721635	273,883306	314,318489	0
15.01.2021	22:00:05	0	0	3,050494	2,29425	308,4552	-0,016	87,067	0	1017,54	6,7	8,6	8,6	1	1	1	1	1	1	1	1	1	0	1	-9,302326	273,926147	309,937464	0
15.01.2021	22:00:06	0	0	3,502419	2,271	302,4468	-0,01	87,086	0	1017,5	6,7	8,6	8,6	1	1	1	1	1	1	1	1	1	0	1	-13,319239	274,052268	306,508893	0
15.01.2021	22:00:07	0	0	5,310118	2,208	304,6464	-0,012	87,077	0	1017,44	6,7	8,6	8,6	1	1	1	1	1	1	1	1	1	0	1	-6,765328	273,892162	312,316063	0
15.01.2021	22:00:08	0	0	4,858193	2,09475	303,5268	-0,01	87,082	0	1017,6	6,7	8,6	8,6	1	1	1	1	1	1	1	1	1	0	1	-7,610994	273,945383	311,718476	0
15.01.2021	22:00:09	0	0	4,180356	2,0085	311,4396	-0,009	87,088	0	1017,4	6,7	8,6	8,4	1	1	1	1	1	1	1	1	1	0	1	-7,540521	273,880355	311,485853	0
15.01.2021	22:00:10	0	0	3,050494	1,99425	307,2204	-0,014	87,094	0	1017,44	6,7	8,6	8,6	1	1	1	1	1	1	1	1	1	0	1	-9,231853	273,933543	310,042416	0
15.01.2021	22:00:11	0	0	3,502461	1,95075	308,826	-0,011	87,072	0	1017,5	6,7	8,6	8,4	1	1	1	1	1	1	1	1	1	0	1	-8,386187	274,056734	311,462795	0
15.01.2021	22:00:12	0	0	3,163475	1,9605	308,0664	-0,011	87,084	0	1017,36	6,7	8,6	8,6	1	1	1	1	1	1	1	1	1	0	1	-12,403101	274,050779	307,418082	0
15.01.2021	22:00:13	0	0	5,1972	1,96275	306,1764	-0,015	87,082	0	1017,52	6,7	8,6	8,4	1	1	1	1	1	1	1	1	1	0	1	-10,993658	273,961674	308,41178	0
15.01.2021	22:00:14	0	0	3,050494	1,95525	306,1692	-0,007	87,096	0	1017,48	6,7	8,6	8,6	1	1	1	1	1	1	1	1	1	0	1	-6,694856	273,887734	312,365899	0
15.01.2021	22:00:15	0	0	3,841362	1,974	304,164	-0,017	87,095	0	1017,38	6,7	8,6	8,6	1	1	1	1	1	1	1	1	1	0	1	-4,510218	273,906931	314,64	0
15.01.2021	22:00:16	0	0	3,954344	2,022	303,4692	-0,01	87,083	0	1017,42	6,7	8,6	8,6	1	1	1	1	1	1	1	1	1	0	1	-7,188161	273,979462	312,30024	0
15.01.2021	22:00:17	0	0	4,180306	2,02425	307,5372	-0,017	87,077	0	1017,44	6,7	8,6	8,6	1	1	1	1	1	1	1	1	1	0	1	-11,627907	274,055245	308,214124	0
15.01.2021	22:00:18	0	0	2,824531	1,99125	315,2052	-0,019	87,083	0	1017,62	6,7	8,6	8,6	1	1	1	1	1	1	1	1	1	0	1	-5,919662	273,926147	313,320128	0
15.01.2021	22:00:19	0	0	3,954344	1,9965	315,1944	-0,013	87,096	0	1017,58	6,7	8,6	8,6	1	1	1	1	1	1	1	1	1	0	1	-7,82241	273,92319	311,403592	0
15.01.2021	22:00:20	0	0	2,937512	1,94025	305,7336	-0,012	87,087	0	1017,46	6,7	8,6	8,6	1	1	1	1	1	1	1	1	1	0	1	-10,500352	273,865607	308,457309	0
15.01.2021	22:00:21	0	0	3,163475	1,899	294,4836	-0,012	87,086	0	1017,48	6,7	8,6	8,6	1	1	1	1	1	1	1	1	1	0	1	-7,82241	273,980945	311,672908	0
15.01.2021	22:00:22	0	0	2,5986	1,82775	307,1988	-0,015	87,077	0	1017,46	6,7	8,6	8,4	1	1	1	1	1	1	1	1	1	0	1	-8,80902	273,903976	310,327427	0
15.01.2021	22:00:23	0	0	3,841362	1,82175	306,8244	-0,018	87,084	0	1017,3	6,7	8,6	8,6	1	1	1	1	1	1	1	1	1	0	1	-8,245243	273,917276	310,953192	0
15.01.2021	22:00:24	0	0	5,084217	1,902	291,0672	-0,015	87,086	0	1017,52	6,7	8,6	8,4	1	1	1	1	1	1	1	1	1	0	1	-6,272023	274,001721	313,320212	0
15.01.2021	22:00:25	0	0	3,954344	1,968	308,1024	-0,012	87,094	0	1017,38	6,7	8,6	8,6	1	1	1	1	1	1	1	1	1	0	1	-9,725159	274,052268	310,102973	0
15.01.2021	22:00:26	0	0	3,276456	2,0985	315,7992	-0,015	87,09	0	1017,38	6,7	8,6	8,6	1	1	1	1	1	1	1	1	1	0	1	-9,513742	274,038875	310,251873	0
15.01.2021	22:00:27	0	0	4,067325	2,004	320,7888	-0,018	87,072	0	1017,44	6,7	8,6	8,6	1	1	1	1	1	1	1	1	1	0	1	-10,993658	273,995783	308,570874	0
15.01.2021	22:00:28	0	0	2,824565	1,995	314,46	-0,01	87,095	0	1017,48	6,7	8,6	8,4	1	1	1	1	1	1	1	1	1	0	1	-6,765328	274,059713	313,097558	0
15.01.2021	22:00:29	0	0	2,5986	2,0985	315,882	-0,016	87,084	0	1017,44	6,7	8,6	8,4	1	1	1	1	1	1	1	1	1	0	1	-6,8358	273,88921	312,231833	0
15.01.2021	22:00:30	0	0	4,632287	2,14125	313,5888	-0,013	87,094	0	1017,26	6,7	8,6	8,4	1	1	1	1	1	1	1	1	1	0	1	-5,708245	273,961674	313,697192	0
15.01.2021	22:00:31	0	0	3,728381	2,07	310,2984	-0,014	87,09	0	1017,48	6,7	8,6	8,6	1	1	1	1	1	1	1	1	1	0	1	-5,21494	274,07014	314,696628	0
15.01.2021	22:00:32	0	0	4,51925	2,14575	304,668	-0,014	87,093	0	1017,48	6,7	8,6	8,6	1	1	1	1	1	1	1	1	1	0	1	-9,513742	274,016574	310,147796	0
15.01.2021	22:00:33	0	0	2,598569	2,28	306,8388	-0,005	87,099	0	1017,48	6,7	8,6	8,6	1	1	1	1	1	1	1	1	1	0	1	-6,272023	273,886258	312,781855	0
15.01.2021	22:00:34	0	0	4,180306	2,34225	304,2324	-0,014	87,076	0	1017,5	6,7	8,6	8,6	1	1	1	1	1	1	1	1	1	0	1	-6,20155	274,026978	313,508539	0
15.01.2021	22:00:35	0	0	4,293287	2,337	303,5124	-0,014	87,064	0	1017,36	6,7	8,6	8,6	1	1	1	1	1	1	1	1	1	0	1	-7,681466	274,00766	311,938483	0
15.01.2021	22:00:36	0	0	4,406268	2,334	304,2936	-0,016	87,091	0	1017,36	6,7	8,6	8,6	1	1	1	1	1	1	1	1	1	0	1	-5,990134	273,899545	313,125662	0
15.01.2021	22:00:37	0	0	4,293287	2,38875	304,6176	-0,015	87,095	0	1017,36	6,7	8,6	8,6	1	1	1	1	1	1	1	1	1	0	1	-10,288936	273,945383	309,040534	0
15.01.2021	22:00:38	0	0	2,937548	2,45625	306,8424	-0,014	87,075	0	1017,5	6,7	8,6	8,4	1	1	1	1	1	1	1	1	1	0	1	-4,580691	274,07163	315,337835	0
15.01.2021	22:00:39	0	0	4,632287	2,412	314,1036	-0,014	87,069	0	1017,5	6,7	8,6	8,4	1	1	1	1	1	1	1	1	1	0	1	-4,933051	274,028464	314,783977	0
15.01.2021	22:00:40	0	0	2,485587	2,3355	319,2408	-0,014	87,078	0	1017,42	6,7	8,6	8,6	1	1	1	1	1	1	1	1	1	0	1	-6,342495	273,88921	312,725138	0
15.01.2021	22:00:41	0	0	3,502461	2,12775	320,7996	-0,02	87,08	0	1017,68	6,7	8,6	8,4	1	1	1	1	1	1	1	1	1	0	1	-9,090909	273,927626	310,155775	0
15.01.2021	22:00:42	0	0	3,841362	1,8795	318,4452	-0,012	87,096	0	1017,36	6,7	8,6	8,6	1	1	1	1	1	1	1	1	1	0	1	-4,510218	274,058223	315,345715	0
15.01.2021	22:00:43	0	0	2,71155	1,71675	311,7672	-0,015	87,079	0	1017,4	6,7	8,6	8,6	1	1	1	1	1	1	1	1	1	0	1	-8,245243	274,07014	311,666325	0
15.01.2021	22:00:44	0	0	3,389437	1,662	305,37	-0,014	87,08	0	1017,4	6,7	8,6	8,6	1	1	1	1	1	1	1	1	1	0	1	-6,553911	273,963156	312,858436	0
15.01.2021	22:00:45	0	0	4,632231	1,72275	318,6972	-0,01	87,095	0	1017,26	6,7	8,6	8,6	1	1	1	1	1	1	1	1	1	0	1	-5,708245	274,061202	314,161593	0
15.01.2021	22:00:46	0	0	2,5986	1,83975	308,4696	-0,016	87,089	0	1017,46	6,7	8,6	8,4	1	1	1	1	1	1	1	1	1	0	1	-7,470049	273,901022	311,65263	0
15.01.2021	22:00:47	0	0	4,51925	1,88775	312,2568	-0,012	87,071	0	1017,4	6,7	8,6	8,6	1	1	1	1	1	1	1	1	1	0	1	-9,090909	273,954267	310,279988	0
15.01.2021	22:00:48	0	0	2,485587	1,9755	302,8356	-0,013	87,082	0	1017,38	6,7	8,6	8,6	1	1	1	1	1	1	1	1	1	0	1	-3,946441	273,880355	315,079933	0
15.01.2021	22:00:49	0	0	2,824531	1,9905	325,1412	-0,016	87,097	0	1017,5	6,7	8,6	8,6	1	1	1	1	1	1	1	1	1	0	1	-6,694856	274,074611	313,237587	0
15.01.2021	22:00:50	0	0	2,71155	1,8225	331,1964	-0,015	87,098	0	1017,44	6,7	8,6	8,6	1	1	1	1	1	1	1	1	1	0	1	-5,567301	273,977979	313,914183	0
15.01.2021	22:00:51	0	0	4,067325	1,6365	313,5348	-0,011	87,091	0	1017,3	6,7	8,6	8,6	1	1	1	1	1	1	1	1	1	0	1	-8,45666	274,074611	311,475783	0
15.01.2021	22:00:52	0	0	3,954344	1,60725	318,1032	-0,013	87,095	0	1017,5	6,7	8,6	8,6	1	1	1	1	1	1	1	1	1	0	1	-7,82241	274,034413	311,922378	0
15.01.2021	22:00:53	0	0	3,728381	1,66275	314,4636	-0,014	87,106	0	1017,52	6,7	8,6	8,6	1	1	1	1	1	1	1	1	1	0	1	-8,174771	273,92319	311,051231	0
15.01.2021	22:00:54	0	0	3,502461	1,98975	308,4156	-0,014	87,096	0	1017,46	6,7	8,6	8,4	1	1	1	1	1	1	1	1	1	0	1	-4,862579	273,887734	314,198175	0
15.01.2021	22:00:55	0	0	4,067325	2,3055	310,6008	-0,016	87,078	0	1017,4	6,7	8,6	8,6	1	1	1	1	1	1	1	1	1	0	1	-9,372798	273,936503	309,915268	0
15.01.2021	22:00:56	0	0	3,163475	2,49075	321,4512	-0,017	87,088	0	1017,46	6,7	8,6	8,6	1	1	1	1	1	1	1	1	1	0	1	-9,231853	274,00469	310,374237	0
15.01.2021	22:00:57	0	0	4,51925	2,5665	311,0076	-0,014	87,097	0	1017,52	6,7	8,6	8,6	1	1	1	1	1	1	1	1	1	0	1	-7,681466	274,040363	312,091093	0
15.01.2021	22:00:58	0	0	4,858252	2,63325	309,4956	-0,013	87,097	0	1017,44	6,7	8,6	8,4	1	1	1	1	1	1	1	1	1	0	1	-5,496829	274,0359	314,254901	0
15.01.2021	22:00:59	0	0	4,632231	2,65575	309,888	-0,013	87,09	0	1017,36	6,7	8,6	8,6	1	1	1	1	1	1	1	1	1	0	1	-9,513742	273,969084	309,926252	0
15.01.2021	22:01:00	0	0	2,937512	2,6535	309,8412	-0,015	87,103	0	1017,48	6,7	8,6	8,6	1	1	1	1	1	1	1	1	1	0	1	-4,369274	273,892162	314,712116	0
15.01.2021	22:01:01	0	0	3,615443	2,6775	308,1096	-0,014	87,093	0	1017,3	6,7	8,6	8,4	1	1	1	1	1	1	1	1	1	0	1	-8,738548	273,893638	310,349722	0
15.01.2021	22:01:02	0	0	2,937512	2,70825	308,0736	-0,008	87,092	0	1017,48	6,7	8,6	8,6	1	1	1	1	1	1	1	1	1	0	1	-7,329105	273,955749	312,048699	0
15.01.2021	22:01:03	0	0	3,050494	2,793	307,5084	-0,012	87,096	0	1017,52	6,7	8,6	8,6	1	1	1	1	1	1	1	1	1	0	1	-7,610994	274,052268	312,217138	0
15.01.2021	22:01:04	0	0	2,598569	2,859	306,432	-0,008	87,082	0	1017,48	6,7	8,6	8,6	1	1	1	1	1	1	1	1	1	0	1	-8,80902	273,946863	310,527352	0
15.01.2021	22:01:05	0	0	3,389478	2,8455	307,5264	-0,021	87,082	0	1017,5	6,7	8,6	8,4	1	1	1	1	1	1	1	1	1	0	1	-8,597604	273,892162	310,483786	0
15.01.2021	22:01:06	0	0	4,745269	2,75175	305,3124	-0,023	87,093	0	1017,52	6,7	8,6	8,4	1	1	1	1	1	1	1	1	1	0	1	-7,892882	274,040363	311,879677	0
15.01.2021	22:01:07	0	0	3,6154	2,72475	304,2288	-0,019	87,077	0	1017,3	6,7	8,6	8,6	1	1	1	1	1	1	1	1	1	0	1	-8,738548	274,009146	310,88833	0
15.01.2021	22:01:08	0	0	4,067374	2,72775	303,858	-0,012	87,086	0	1017,4	6,7	8,6	8,4	1	1	1	1	1	1	1	1	1	0	1	-10,852713	274,058223	309,00322	0
15.01.2021	22:01:09	0	0	3,050494	2,68575	305,0316	-0,017	87,077	0	1017,62	6,7	8,6	8,6	1	1	1	1	1	1	1	1	1	0	1	-6,342495	273,936503	312,945571	0
15.01.2021	22:01:10	0	0	3,6154	2,7045	301,644	-0,009	87,081	0	1017,6	6,7	8,6	8,6	1	1	1	1	1	1	1	1	1	0	1	-9,725159	274,053757	310,109923	0
15.01.2021	22:01:11	0	0	3,6154	2,63175	301,176	-0,012	87,078	0	1017,46	6,7	8,6	8,6	1	1	1	1	1	1	1	1	1	0	1	-10,993658	273,935023	308,28751	0
15.01.2021	22:01:12	0	0	4,858252	2,58675	300,1428	-0,019	87,078	0	1017,36	6,7	8,6	8,4	1	1	1	1	1	1	1	1	1	0	1	-5,778717	274,010631	313,855092	0
15.01.2021	22:01:13	0	0	4,180306	2,53275	297,216	-0,013	87,073	0	1017,5	6,7	8,6	8,6	1	1	1	1	1	1	1	1	1	0	1	-4,721635	273,883306	314,318489	0
15.01.2021	22:01:14	0	0	2,598569	2,622	296,856	-0,015	87,077	0	1017,34	6,7	8,6	8,6	1	1	1	1	1	1	1	1	1	0	1	-8,738548	273,975014	310,729103	0
15.01.2021	22:01:15	0	0	3,841362	2,66175	297,8712	-0,019	87,081	0	1017,46	6,7	8,6	8,6	1	1	1	1	1	1	1	1	1	0	1	-5,778717	273,883306	313,261407	0
15.01.2021	22:01:16	0	0	3,389437	2,625	301,23	-0,015	87,072	0	1017,44	6,7	8,6	8,6	1	1	1	1	1	1	1	1	1	0	1	-5,073996	273,908408	314,083109	0
15.01.2021	22:01:17	0	0	2,824531	2,70075	301,1976	-0,014	87,078	0	1017,4	6,7	8,6	8,6	1	1	1	1	1	1	1	1	1	0	1	-7,82241	273,988363	311,707507	0
15.01.2021	22:01:18	0	0	4,293339	2,706	302,4828	-0,017	87,076	0	1017,5	6,7	8,6	8,4	1	1	1	1	1	1	1	1	1	0	1	-6,976744	274,07014	312,934824	0
15.01.2021	22:01:19	0	0	4,406268	2,5695	309,1752	-0,02	87,072	0	1017,32	6,7	8,6	8,6	1	1	1	1	1	1	1	1	1	0	1	-8,245243	274,038875	311,520372	0
15.01.2021	22:01:20	0	0	2,71155	2,47875	302,8212	-0,014	87,081	0	1017,5	6,7	8,6	8,6	1	1	1	1	1	1	1	1	1	0	1	-6,342495	273,937982	312,95247	0
15.01.2021	22:01:21	0	0	3,728381	2,5005	305,3232	-0,014	87,083	0	1017,56	6,7	8,6	8,6	1	1	1	1	1	1	1	1	1	0	1	-5,496829	274,07312	314,428655	0
15.01.2021	22:01:22	0	0	4,632231	2,532	307,2204	-0,019	87,079	0	1017,6	6,7	8,6	8,6	1	1	1	1	1	1	1	1	1	0	1	-7,82241	273,892162	311,25898	0
15.01.2021	22:01:23	0	0	4,519304	2,5125	313,2792	-0,017	87,072	0	1017,44	6,7	8,6	8,4	1	1	1	1	1	1	1	1	1	0	1	-9,584214	273,924668	309,648682	0
15.01.2021	22:01:24	0	0	2,937548	2,5605	298,2852	-0,014	87,063	0	1017,48	6,7	8,6	8,4	1	1	1	1	1	1	1	1	1	0	1	-10,218464	274,07163	309,700062	0
15.01.2021	22:01:25	0	0	3,954344	2,565	307,2024	-0,025	87,047	0	1017,5	6,7	8,6	8,6	1	1	1	1	1	1	1	1	1	0	1	-6,412967	273,899545	312,702829	0
15.01.2021	22:01:26	0	0	2,824531	2,60025	313,8516	-0,019	87,08	0	1017,4	6,7	8,6	8,6	1	1	1	1	1	1	1	1	1	0	1	-6,272023	273,936503	313,016043	0
15.01.2021	22:01:27	0	0	3,615443	2,57625	313,146	-0,022	87,067	0	1017,54	6,7	8,6	8,4	1	1	1	1	1	1	1	1	1	0	1	-8,527132	274,07163	311,391394	0
15.01.2021	22:01:28	0	0	3,276456	2,63325	303,5304	-0,013	87,052	0	1017,46	6,7	8,6	8,6	1	1	1	1	1	1	1	1	1	0	1	-8,245243	274,032925	311,492604	0
15.01.2021	22:01:29	0	0	4,971175	2,47275	308,844	-0,018	87,051	0	1017,44	6,7	8,6	8,6	1	1	1	1	1	1	1	1	1	0	1	-13,742072	274,056734	306,10691	0
15.01.2021	22:01:30	0	0	3,954344	2,42775	309,474	-0,018	87,07	0	1017,18	6,7	8,6	8,6	1	1	1	1	1	1	1	1	1	0	1	-4,016913	274,040363	315,755646	0
15.01.2021	22:01:31	0	0	2,71155	2,367	314,046	-0,018	87,084	0	1017,42	6,7	8,6	8,6	1	1	1	1	1	1	1	1	1	0	1	-2,748414	273,933543	316,525855	0
15.01.2021	22:01:32	0	0	3,6154	2,33475	302,7996	-0,015	87,085	0	1017,64	6,7	8,6	8,6	1	1	1	1	1	1	1	1	1	0	1	-16,138125	274,056734	303,710857	0
15.01.2021	22:01:33	0	0	4,067325	2,43975	303,156	-0,015	87,075	0	1017,52	6,7	8,6	8,6	1	1	1	1	1	1	1	1	1	0	1	-3,735025	274,025491	315,968127	0
15.01.2021	22:01:34	0	0	3,276495	2,48775	313,5564	-0,019	87,083	0	1017,46	6,7	8,6	8,4	1	1	1	1	1	1	1	1	1	0	1	-9,020437	273,875929	309,985317	0
15.01.2021	22:01:35	0	0	3,841362	2,4855	311,3784	-0,019	87,087	0	1017,52	6,7	8,6	8,6	1	1	1	1	1	1	1	1	1	0	1	-10,570825	274,062691	309,305967	0
15.01.2021	22:01:36	0	0	3,389437	2,39475	304,596	-0,014	87,096	0	1017,46	6,7	8,6	8,6	1	1	1	1	1	1	1	1	1	0	1	-3,382664	273,979462	316,105737	0
15.01.2021	22:01:37	0	0	2,824531	2,3235	312,9228	-0,014	87,07	0	1017,48	6,7	8,6	8,6	1	1	1	1	1	1	1	1	1	0	1	-12,614517	274,082064	307,352728	0
15.01.2021	22:01:38	0	0	4,51925	2,298	312,1596	-0,016	87,083	0	1017,46	6,7	8,6	8,6	1	1	1	1	1	1	1	1	1	0	1	-8,80902	273,915798	310,382525	0
15.01.2021	22:01:39	0	0	2,485587	2,28225	315,45	-0,015	87,096	0	1017,56	6,7	8,6	8,6	1	1	1	1	1	1	1	1	1	0	1	-9,584214	274,006175	310,028805	0
15.01.2021	22:01:40	0	0	3,954344	2,32275	313,9668	-0,015	87,105	0	1017,36	6,7	8,6	8,6	1	1	1	1	1	1	1	1	1	0	1	-8,597604	273,899545	310,518192	0
15.01.2021	22:01:41	0	0	4,406268	2,36175	322,1496	-0,013	87,101	0	1017,62	6,7	8,6	8,6	1	1	1	1	1	1	1	1	1	0	1	-9,936575	274,064181	309,947171	0
15.01.2021	22:01:42	0	0	2,598569	2,415	324,7488	-0,011	87,088	0	1017,54	6,7	8,6	8,6	1	1	1	1	1	1	1	1	1	0	1	-7,188161	273,95723	312,196551	0
15.01.2021	22:01:43	0	0	3,6154	2,3865	318,3552	-0,014	87,095	0	1017,46	6,7	8,6	8,6	1	1	1	1	1	1	1	1	1	0	1	-10,711769	273,881831	308,32148	0
15.01.2021	22:01:44	0	0	3,6154	2,33775	327,4236	-0,015	87,098	0	1017,58	6,7	8,6	8,6	1	1	1	1	1	1	1	1	1	0	1	-9,372798	273,964638	310,046461	0
15.01.2021	22:01:45	0	0	4,858193	2,307	319,9572	-0,015	87,073	0	1017,56	6,7	8,6	8,6	1	1	1	1	1	1	1	1	1	0	1	-8,738548	274,047803	311,068739	0
15.01.2021	22:01:46	0	0	2,824565	2,21175	321,8292	-0,016	87,1	0	1017,5	6,7	8,6	8,4	1	1	1	1	1	1	1	1	1	0	1	-7,610994	273,964638	311,808265	0
15.01.2021	22:01:47	0	0	4,632231	2,139	323,6436	-0,016	87,082	0	1017,52	6,7	8,6	8,6	1	1	1	1	1	1	1	1	1	0	1	-4,439746	274,06865	315,464866	0
15.01.2021	22:01:48	0	0	4,971175	1,96725	324,4032	-0,018	87,093	0	1017,34	6,7	8,6	8,6	1	1	1	1	1	1	1	1	1	0	1	-6,131078	273,943903	313,191489	0
15.01.2021	22:01:49	0	0	2,146644	1,85175	304,2216	-0,014	87,106	0	1017,54	6,7	8,6	8,6	1	1	1	1	1	1	1	1	1	0	1	-6,412967	273,886258	312,64091	0
15.01.2021	22:01:50	0	0	4,971234	1,8165	303,5412	-0,015	87,095	0	1017,4	6,7	8,6	8,4	1	1	1	1	1	1	1	1	1	0	1	-8,033827	274,049291	311,780408	0
15.01.2021	22:01:51	0	0	2,824531	1,72725	319,5216	-0,013	87,111	0	1017,34	6,7	8,6	8,6	1	1	1	1	1	1	1	1	1	0	1	-15,503876	273,899545	303,61192	0
15.01.2021	22:01:52	0	0	2,711582	1,71	311,6736	-0,01	87,109	0	1017,62	6,7	8,6	8,4	1	1	1	1	1	1	1	1	1	0	1	-7,470049	273,986879	312,052947	0
15.01.2021	22:01:53	0	0	4,632231	1,81425	314,4708	-0,016	87,099	0	1017,42	6,7	8,6	8,6	1	1	1	1	1	1	1	1	1	0	1	-9,795631	274,021032	309,886711	0
15.01.2021	22:01:54	0	0	4,293339	1,851	316,6128	-0,013	87,121	0	1017,48	6,7	8,6	8,4	1	1	1	1	1	1	1	1	1	0	1	-12,332629	274,06567	307,558072	0
15.01.2021	22:01:55	0	0	3,502461	1,81575	305,4024	-0,012	87,11	0	1017,6	6,7	8,6	8,4	1	1	1	1	1	1	1	1	1	0	1	-7,047216	273,948344	312,29606	0
15.01.2021	22:01:56	0	0	4,745212	1,71075	326,754	-0,013	87,109	0	1017,36	6,7	8,6	8,6	1	1	1	1	1	1	1	1	1	0	1	-7,610994	274,053757	312,224087	0
15.01.2021	22:01:57	0	0	4,51925	1,73475	320,1264	-0,012	87,122	0	1017,52	6,7	8,6	8,6	1	1	1	1	1	1	1	1	1	0	1	-4,087385	273,954267	315,283512	0
15.01.2021	22:01:58	0	0	3,389437	1,8615	318,7872	-0,01	87,112	0	1017,72	6,7	8,6	8,6	1	1	1	1	1	1	1	1	1	0	1	-9,090909	274,040363	310,68165	0
15.01.2021	22:01:59	0	0	2,71155	2,0445	323,9784	-0,018	87,103	0	1017,46	6,7	8,6	8,6	1	1	1	1	1	1	1	1	1	0	1	-10,077519	273,915798	309,114026	0
15.01.2021	22:02:00	0	0	5,197137	2,18775	312,3936	-0,009	87,111	0	1017,62	6,7	8,6	8,6	1	1	1	1	1	1	1	1	1	0	1	-5,778717	274,019546	313,89669	0
15.01.2021	22:02:01	0	0	4,180356	2,184	317,7216	-0,011	87,119	0	1017,5	6,7	8,6	8,4	1	1	1	1	1	1	1	1	1	0	1	-7,329105	273,881831	311,704144	0
15.01.2021	22:02:02	0	0	3,276456	2,19975	307,4868	-0,021	87,102	0	1017,52	6,7	8,6	8,6	1	1	1	1	1	1	1	1	1	0	1	-3,100775	274,000236	316,484533	0
15.01.2021	22:02:03	0	0	2,485587	2,11725	323,6868	-0,011	87,115	0	1017,42	6,7	8,6	8,6	1	1	1	1	1	1	1	1	1	0	1	-5,355884	273,87888	313,663616	0
15.01.2021	22:02:04	0	0	4,406321	2,0715	314,8236	-0,013	87,111	0	1017,34	6,7	8,6	8,4	1	1	1	1	1	1	1	1	1	0	1	-11,41649	274,000236	308,168818	0
15.01.2021	22:02:05	0	0	2,598569	1,992	327,0924	-0,022	87,108	0	1017,48	6,7	8,6	8,6	1	1	1	1	1	1	1	1	1	0	1	-8,245243	273,892162	310,836147	0
15.01.2021	22:02:06	0	0	2,598569	2,01375	311,0364	-0,014	87,118	0	1017,64	6,7	8,6	8,6	1	1	1	1	1	1	1	1	1	0	1	-7,047216	273,917276	312,151219	0
15.01.2021	22:02:07	0	0	2,71155	2,02575	317,7612	-0,015	87,116	0	1017,4	6,7	8,6	8,6	1	1	1	1	1	1	1	1	1	0	1	-11,768851	273,933543	307,505418	0
15.01.2021	22:02:08	0	0	2,485587	1,97175	305,3772	-0,012	87,11	0	1017,5	6,7	8,6	8,6	1	1	1	1	1	1	1	1	1	0	1	-4,651163	273,898068	314,457751	0
15.01.2021	22:02:09	0	0	4,745212	1,8975	306,8496	-0,012	87,119	0	1017,52	6,7	8,6	8,6	1	1	1	1	1	1	1	1	1	0	1	-6,272023	273,955749	313,105781	0
15.01.2021	22:02:10	0	0	3,389437	1,89225	303,2532	-0,013	87,121	0	1017,42	6,7	8,6	8,6	1	1	1	1	1	1	1	1	1	0	1	-10,852713	274,062691	309,024079	0
15.01.2021	22:02:11	0	0	4,51925	1,88175	311,814	-0,013	87,129	0	1017,44	6,7	8,6	8,6	1	1	1	1	1	1	1	1	1	0	1	-10,077519	274,012117	309,563221	0
15.01.2021	22:02:12	0	0	3,05053	1,85475	302,8248	-0,007	87,126	0	1017,42	6,7	8,6	8,4	1	1	1	1	1	1	1	1	1	0	1	-6,624383	274,032925	313,113464	0
15.01.2021	22:02:13	0	0	3,728381	1,94025	304,9992	-0,009	87,107	0	1017,42	6,7	8,6	8,6	1	1	1	1	1	1	1	1	1	0	1	-5,426357	273,901022	313,696323	0
15.01.2021	22:02:14	0	0	4,858193	1,986	306,0792	-0,021	87,114	0	1017,24	6,7	8,6	8,6	1	1	1	1	1	1	1	1	1	0	1	-8,386187	274,022518	311,303091	0
15.01.2021	22:02:15	0	0	4,067374	2,12325	315,4716	-0,009	87,121	0	1017,46	6,7	8,6	8,4	1	1	1	1	1	1	1	1	1	0	1	-7,470049	274,052268	312,358082	0
15.01.2021	22:02:16	0	0	2,824531	2,181	307,5084	-0,007	87,118	0	1017,48	6,7	8,6	8,6	1	1	1	1	1	1	1	1	1	0	1	-5,285412	273,911364	313,885467	0
15.01.2021	22:02:17	0	0	2,937565	2,178	313,5888	-0,005	87,115	0	1017,42	6,7	8,6	8,3	1	1	1	1	1	1	1	1	1	0	1	-5,990134	274,026978	313,719956	0
15.01.2021	22:02:18	0	0	3,841362	2,148	310,2552	-0,012	87,108	0	1017,54	6,7	8,6	8,6	1	1	1	1	1	1	1	1	1	0	1	-7,188161	273,887734	311,872594	0
15.01.2021	22:02:19	0	0	4,745212	1,9665	305,4132	-0,012	87,116	0	1017,46	6,7	8,6	8,6	1	1	1	1	1	1	1	1	1	0	1	-5,144468	273,917276	314,053968	0
15.01.2021	22:02:20	0	0	4,067374	1,905	304,8768	-0,012	87,132	0	1017,48	6,7	8,6	8,4	1	1	1	1	1	1	1	1	1	0	1	-9,513742	273,887734	309,547012	0
15.01.2021	22:02:21	0	0	4,067325	1,8705	300,8412	-0,007	87,123	0	1017,42	6,7	8,6	8,6	1	1	1	1	1	1	1	1	1	0	1	-8,879493	274,06567	311,011208	0
15.01.2021	22:02:22	0	0	2,824531	1,75575	304,6104	-0,018	87,106	0	1017,44	6,7	8,6	8,6	1	1	1	1	1	1	1	1	1	0	1	-7,470049	273,994298	312,087558	0
15.01.2021	22:02:23	0	0	3,615443	1,722	299,4012	-0,01	87,117	0	1017,48	6,7	8,6	8,4	1	1	1	1	1	1	1	1	1	0	1	-6,765328	274,049291	313,048907	0
15.01.2021	22:02:24	0	0	4,51925	1,758	312,4476	-0,014	87,122	0	1017,6	6,7	8,6	8,6	1	1	1	1	1	1	1	1	1	0	1	-7,188161	273,880355	311,838214	0
15.01.2021	22:02:25	0	0	4,745212	1,80825	302,0508	-0,016	87,123	0	1017,5	6,7	8,6	8,6	1	1	1	1	1	1	1	1	1	0	1	-8,879493	273,935023	310,401674	0
15.01.2021	22:02:26	0	0	4,293287	1,881	302,4684	-0,021	87,127	0	1017,46	6,7	8,6	8,6	1	1	1	1	1	1	1	1	1	0	1	-9,090909	273,905453	310,052423	0
15.01.2021	22:02:27	0	0	2,937512	1,914	312,12	-0,013	87,13	0	1017,44	6,7	8,6	8,6	1	1	1	1	1	1	1	1	1	0	1	-4,721635	273,908408	314,435469	0
15.01.2021	22:02:28	0	0	2,372635	1,90425	306,81	-0,019	87,122	0	1017,44	6,7	8,6	8,4	1	1	1	1	1	1	1	1	1	0	1	-2,325581	274,010631	317,308228	0
15.01.2021	22:02:29	0	0	2,824531	1,845	307,5516	-0,017	87,119	0	1017,3	6,7	8,6	8,6	1	1	1	1	1	1	1	1	1	0	1	-6,976744	273,903976	312,159703	0
15.01.2021	22:02:30	0	0	4,745269	1,7685	307,1988	-0,017	87,118	0	1017,46	6,7	8,6	8,4	1	1	1	1	1	1	1	1	1	0	1	-7,82241	273,935023	311,458757	0
15.01.2021	22:02:31	0	0	3,163475	1,692	312,8976	-0,014	87,138	0	1017,52	6,7	8,6	8,6	1	1	1	1	1	1	1	1	1	0	1	-9,020437	274,086537	310,967698	0
15.01.2021	22:02:32	0	0	4,51925	1,60575	306,774	-0,009	87,118	0	1017,48	6,7	8,6	8,6	1	1	1	1	1	1	1	1	1	0	1	-6,131078	274,021032	313,551264	0
15.01.2021	22:02:33	0	0	4,632231	1,55325	305,4276	-0,01	87,126	0	1017,6	6,7	8,6	8,6	1	1	1	1	1	1	1	1	1	0	1	-6,906272	274,06716	312,991384	0
15.01.2021	22:02:34	0	0	2,598569	1,56675	296,8668	-0,011	87,13	0	1017,36	6,7	8,6	8,6	1	1	1	1	1	1	1	1	1	0	1	-9,090909	273,946863	310,245464	0
15.01.2021	22:02:35	0	0	3,502419	1,59675	300,204	-0,013	87,112	0	1017,46	6,7	8,6	8,6	1	1	1	1	1	1	1	1	1	0	1	-5,919662	273,892162	313,161729	0
15.01.2021	22:02:36	0	0	2,937548	1,5675	303,12	-0,008	87,12	0	1017,3	6,7	8,6	8,4	1	1	1	1	1	1	1	1	1	0	1	-7,188161	274,003205	312,411002	0
15.01.2021	22:02:37	0	0	2,372635	1,54425	291,2004	-0,01	87,127	0	1017,56	6,7	8,6	8,4	1	1	1	1	1	1	1	1	1	0	1	-8,738548	274,06716	311,159108	0
15.01.2021	22:02:38	0	0	4,858193	1,56375	298,6236	-0,016	87,12	0	1017,42	6,7	8,6	8,6	1	1	1	1	1	1	1	1	1	0	1	-6,483439	274,049291	313,330795	0
15.01.2021	22:02:39	0	0	3,954344	1,50525	314,8128	-0,011	87,136	0	1017,48	6,7	8,6	8,6	1	1	1	1	1	1	1	1	1	0	1	-6,553911	273,951305	312,803174	0
15.01.2021	22:02:40	0	0	4,067325	1,47	295,83	-0,01	87,136	0	1017,6	6,7	8,6	8,6	1	1	1	1	1	1	1	1	1	0	1	-6,624383	273,892162	312,457007	0
15.01.2021	22:02:41	0	0	2,259625	1,48125	309,9312	-0,01	87,142	0	1017,54	6,7	8,6	8,6	1	1	1	1	1	1	1	1	1	0	1	-8,174771	274,026978	311,535319	0
15.01.2021	22:02:42	0	0	2,598569	1,56375	308,4192	-0,01	87,126	0	1017,26	6,7	8,6	8,6	1	1	1	1	1	1	1	1	1	0	1	-10,570825	274,074611	309,361618	0
15.01.2021	22:02:43	0	0	4,180306	1,59	308,484	-0,01	87,139	0	1017,68	6,7	8,6	8,6	1	1	1	1	1	1	1	1	1	0	1	-7,047216	273,883306	311,992908	0
15.01.2021	22:02:44	0	0	3,163475	1,6095	302,0004	-0,012	87,107	0	1017,42	6,7	8,6	8,6	1	1	1	1	1	1	1	1	1	0	1	-5,778717	273,911364	313,392161	0
15.01.2021	22:02:45	0	0	2,485587	1,5405	300,1968	-0,01	87,134	0	1017,56	6,7	8,6	8,6	1	1	1	1	1	1	1	1	1	0	1	-3,100775	274,028464	316,616253	0
15.01.2021	22:02:46	0	0	2,485587	1,61775	300,4632	-0,006	87,125	0	1017,56	6,7	8,6	8,6	1	1	1	1	1	1	1	1	1	0	1	-8,245243	274,056734	311,603739	0
15.01.2021	22:02:47	0	0	4,51925	1,67025	298,98	-0,014	87,123	0	1017,54	6,7	8,6	8,6	1	1	1	1	1	1	1	1	1	0	1	-6,976744	273,939462	312,32512	0
15.01.2021	22:02:48	0	0	4,51925	1,60875	292,158	-0,003	87,133	0	1017,46	6,7	8,6	8,6	1	1	1	1	1	1	1	1	1	0	1	-5,355884	274,047803	314,451403	0
15.01.2021	22:02:49	0	0	5,197137	1,65675	304,9668	-0,006	87,128	0	1017,48	6,7	8,6	8,6	1	1	1	1	1	1	1	1	1	0	1	-5,84919	274,034413	313,895599	0
15.01.2021	22:02:50	0	0	3,163475	1,62225	303,2172	-0,008	87,124	0	1017,38	6,7	8,6	8,6	1	1	1	1	1	1	1	1	1	0	1	-8,315715	274,053757	311,519366	0
15.01.2021	22:02:51	0	0	4,180306	1,64625	295,5672	-0,012	87,131	0	1017,46	6,7	8,6	8,6	1	1	1	1	1	1	1	1	1	0	1	-6,553911	273,895115	312,54124	0
15.01.2021	22:02:52	0	0	4,745212	1,62225	289,1412	-0,011	87,105	0	1017,6	6,7	8,6	8,6	1	1	1	1	1	1	1	1	1	0	1	-6,976744	274,029951	312,747223	0
15.01.2021	22:02:53	0	0	2,937512	1,5525	291,0744	-0,01	87,132	0	1017,46	6,7	8,6	8,6	1	1	1	1	1	1	1	1	1	0	1	-9,654686	273,91432	309,529969	0
15.01.2021	22:02:54	0	0	3,502419	1,54575	299,4588	-0,006	87,12	0	1017,52	6,7	8,6	8,6	1	1	1	1	1	1	1	1	1	0	1	-9,161381	274,024005	310,534833	0
15.01.2021	22:02:55	0	0	4,51925	1,4595	304,758	-0,011	87,121	0	1017,44	6,7	8,6	8,6	1	1	1	1	1	1	1	1	1	0	1	-9,725159	274,055245	310,116873	0
15.01.2021	22:02:56	0	0	4,067325	1,47525	285,8724	-0,011	87,114	0	1017,48	6,7	8,6	8,6	1	1	1	1	1	1	1	1	1	0	1	-10,359408	274,029951	309,364559	0
15.01.2021	22:02:57	0	0	2,937512	1,563	288,4176	-0,011	87,125	0	1017,44	6,7	8,6	8,6	1	1	1	1	1	1	1	1	1	0	1	-9,372798	273,92319	309,853205	0
15.01.2021	22:02:58	0	0	4,293287	1,57725	302,76	-0,009	87,124	0	1017,64	6,7	8,6	8,6	1	1	1	1	1	1	1	1	1	0	1	-5,355884	273,921711	313,863225	0
15.01.2021	22:02:59	0	0	3,841362	1,65075	290,0304	-0,013	87,125	0	1017,52	6,7	8,6	8,6	1	1	1	1	1	1	1	1	1	0	1	-10,641297	274,055245	309,200735	0
15.01.2021	22:03:00	0	0	2,824531	1,77075	290,8224	-0,006	87,126	0	1017,64	6,7	8,6	8,6	1	1	1	1	1	1	1	1	1	0	1	-8,245243	274,06567	311,645457	0
15.01.2021	22:03:01	0	0	2,824531	1,77075	290,8224	-0,006	87,126	0	1017,64	6,7	8,6	8,6	1	1	1	1	1	1	1	1	1	0	1	-9,795631	273,903976	309,340817	0
15.01.2021	22:03:02	0	0	3,502419	1,81875	288,7452	-0,006	87,135	0	1017,58	6,7	8,6	8,6	1	1	1	1	1	1	1	1	1	0	1	-8,386187	273,927626	310,860497	0
15.01.2021	22:03:03	0	0	4,293287	1,9005	282,1428	-0,009	87,125	0	1017,48	6,7	8,6	8,6	1	1	1	1	1	1	1	1	1	0	1	-11,557435	274,056734	308,291547	0
15.01.2021	22:03:04	0	0	4,971175	1,95525	282,1644	-0,01	87,122	0	1017,58	6,7	8,6	8,6	1	1	1	1	1	1	1	1	1	0	1	-8,738548	273,995783	310,825983	0
15.01.2021	22:03:05	0	0	4,067325	1,8705	279,9072	-0,013	87,108	0	1017,56	6,7	8,6	8,6	1	1	1	1	1	1	1	1	1	0	1	-9,44327	273,893638	309,645	0
15.01.2021	22:03:06	0	0	3,389437	1,815	290,8296	-0,009	87,137	0	1017,72	6,7	8,6	8,6	1	1	1	1	1	1	1	1	1	0	1	-7,540521	274,012117	312,100219	0
15.01.2021	22:03:07	0	0	2,71155	1,77225	301,212	-0,007	87,134	0	1017,52	6,7	8,6	8,6	1	1	1	1	1	1	1	1	1	0	1	-11,980268	273,997267	307,591189	0
15.01.2021	22:03:08	0	0	3,502419	1,7685	304,65	-0,01	87,131	0	1017,54	6,7	8,6	8,6	1	1	1	1	1	1	1	1	1	0	1	-7,399577	273,887734	311,661177	0
15.01.2021	22:03:09	0	0	4,745212	1,80525	309,5244	-0,007	87,127	0	1017,36	6,7	8,6	8,6	1	1	1	1	1	1	1	1	1	0	1	-9,372798	274,038875	310,392818	0
15.01.2021	22:03:10	0	0	4,406268	1,84575	311,814	-0,013	87,111	0	1017,48	6,7	8,6	8,6	1	1	1	1	1	1	1	1	1	0	1	-6,976744	274,049291	312,83749	0
15.01.2021	22:03:11	0	0	3,163475	1,78125	306,8568	-0,011	87,129	0	1017,44	6,7	8,6	8,6	1	1	1	1	1	1	1	1	1	0	1	-6,765328	273,898068	312,343586	0
15.01.2021	22:03:12	0	0	4,293287	1,6605	294,0732	-0,002	87,126	0	1017,48	6,7	8,6	8,6	1	1	1	1	1	1	1	1	1	0	1	-4,439746	273,952786	314,924245	0
15.01.2021	22:03:13	0	0	2,937512	1,497	294,1128	-0,008	87,12	0	1017,3	6,7	8,6	8,6	1	1	1	1	1	1	1	1	1	0	1	-5,285412	273,899545	313,830384	0
15.01.2021	22:03:14	0	0	4,858193	1,38825	290,7936	-0,006	87,14	0	1017,36	6,7	8,6	8,6	1	1	1	1	1	1	1	1	1	0	1	-5,426357	274,061202	314,443482	0
15.01.2021	22:03:15	0	0	2,71155	1,356	273,2004	-0,009	87,137	0	1017,38	6,7	8,6	8,6	1	1	1	1	1	1	1	1	1	0	1	-3,523608	273,921711	315,695502	0
15.01.2021	22:03:16	0	0	3,6154	1,32075	276,4548	-0,012	87,119	0	1017,52	6,7	8,6	8,6	1	1	1	1	1	1	1	1	1	0	1	-7,399577	273,927626	311,847107	0
15.01.2021	22:03:17	0	0	4,180306	1,24125	285,174	-0,007	87,125	0	1017,26	6,7	8,6	8,6	1	1	1	1	1	1	1	1	1	0	1	-10,077519	274,07014	309,834049	0
15.01.2021	22:03:18	0	0	3,728381	1,21875	286,2576	-0,008	87,129	0	1017,4	6,7	8,6	8,6	1	1	1	1	1	1	1	1	1	0	1	-5,285412	273,982429	314,216824	0
15.01.2021	22:03:19	0	0	3,389437	1,1895	289,5912	-0,006	87,13	0	1017,54	6,7	8,6	8,6	1	1	1	1	1	1	1	1	1	0	1	-5,496829	273,893638	313,591441	0
15.01.2021	22:03:20	0	0	5,084217	1,1535	293,31	-0,016	87,13	0	1017,44	6,7	8,6	8,4	1	1	1	1	1	1	1	1	1	0	1	-10,359408	274,0359	309,392322	0
15.01.2021	22:03:21	0	0	2,937512	1,10475	290,1384	-0,021	87,117	0	1017,36	6,7	8,6	8,6	1	1	1	1	1	1	1	1	1	0	1	-5,990134	274,010631	313,643675	0
15.01.2021	22:03:22	0	0	4,180306	1,01175	298,6236	-0,012	87,137	0	1017,6	6,7	8,6	8,6	1	1	1	1	1	1	1	1	1	0	1	-9,020437	274,056734	310,828545	0
15.01.2021	22:03:23	0	0	2,824531	1,08	293,3172	-0,01	87,127	0	1017,62	6,7	8,6	8,6	1	1	1	1	1	1	1	1	1	0	1	-7,399577	273,915798	311,791968	0
15.01.2021	22:03:24	0	0	4,858193	1,2015	298,2816	-0,006	87,117	0	1017,62	6,7	8,6	8,6	1	1	1	1	1	1	1	1	1	0	1	-6,8358	273,997267	312,735656	0
15.01.2021	22:03:25	0	0	2,937512	1,314	306,7416	-0,013	87,123	0	1017,48	6,7	8,6	8,6	1	1	1	1	1	1	1	1	1	0	1	-5,355884	273,893638	313,732386	0
15.01.2021	22:03:26	0	0	3,502419	1,3515	289,1448	-0,007	87,129	0	1017,56	6,7	8,6	8,6	1	1	1	1	1	1	1	1	1	0	1	-7,540521	273,920233	311,671696	0
15.01.2021	22:03:27	0	0	4,858193	1,38825	302,4936	-0,007	87,126	0	1017,42	6,7	8,6	8,6	1	1	1	1	1	1	1	1	1	0	1	-10,359408	273,96612	309,066762	0
15.01.2021	22:03:28	0	0	4,293339	1,40925	304,6248	-0,006	87,122	0	1017,18	6,7	8,6	8,4	1	1	1	1	1	1	1	1	1	0	1	-5,84919	274,080573	314,111094	0
15.01.2021	22:03:29	0	0	2,937512	1,38975	304,7508	-0,013	87,114	0	1017,38	6,7	8,6	8,6	1	1	1	1	1	1	1	1	1	0	1	-5,144468	273,980945	314,35085	0
15.01.2021	22:03:30	0	0	3,841408	1,35	300,8124	-0,014	87,119	0	1017,42	6,7	8,6	8,4	1	1	1	1	1	1	1	1	1	0	1	-8,315715	274,064181	311,56803	0
15.01.2021	22:03:31	0	0	2,71155	1,383	291,8304	-0,008	87,126	0	1017,58	6,7	8,6	8,6	1	1	1	1	1	1	1	1	1	0	1	-5,285412	273,932064	313,98196	0
15.01.2021	22:03:32	0	0	2,824531	1,38375	306,774	-0,01	87,129	0	1017,5	6,7	8,6	8,6	1	1	1	1	1	1	1	1	1	0	1	-9,584214	274,024005	310,112	0
15.01.2021	22:03:33	0	0	4,180306	1,353	319,104	-0,009	87,122	0	1017,52	6,7	8,6	8,6	1	1	1	1	1	1	1	1	1	0	1	-8,033827	273,881831	310,999422	0
15.01.2021	22:03:34	0	0	3,050494	1,25475	302,0436	-0,008	87,119	0	1017,4	6,7	8,6	8,6	1	1	1	1	1	1	1	1	1	0	1	-5,426357	273,979462	314,062044	0
15.01.2021	22:03:35	0	0	2,485587	1,2525	296,0748	-0,01	87,1	0	1017,56	6,7	8,6	8,6	1	1	1	1	1	1	1	1	1	0	1	-9,866103	274,044826	309,927291	0
15.01.2021	22:03:36	0	0	4,293287	1,15575	312,0804	-0,01	87,129	0	1017,5	6,7	8,6	8,6	1	1	1	1	1	1	1	1	1	0	1	-12,121212	274,056734	307,72777	0
15.01.2021	22:03:37	0	0	3,6154	1,20375	315,8964	-0,009	87,123	0	1017,52	6,7	8,6	8,6	1	1	1	1	1	1	1	1	1	0	1	-6,765328	273,961674	312,64011	0
15.01.2021	22:03:38	0	0	4,745212	1,24575	310,2984	-0,008	87,119	0	1017,44	6,7	8,6	8,6	1	1	1	1	1	1	1	1	1	0	1	-4,22833	273,890686	314,846181	0
15.01.2021	22:03:39	0	0	2,71155	1,2675	310,9428	-0,01	87,12	0	1017,34	6,7	8,6	8,6	1	1	1	1	1	1	1	1	1	0	1	-8,104299	273,915798	311,087247	0
15.01.2021	22:03:40	0	0	2,937512	1,30125	305,3412	-0,006	87,118	0	1017,44	6,7	8,6	8,6	1	1	1	1	1	1	1	1	1	0	1	-8,879493	274,015088	310,775113	0
15.01.2021	22:03:41	0	0	3,728381	1,24875	310,986	-0,005	87,107	0	1017,5	6,7	8,6	8,6	1	1	1	1	1	1	1	1	1	0	1	-6,8358	274,076101	313,103602	0
15.01.2021	22:03:42	0	0	4,180306	1,25925	300,2364	-0,01	87,109	0	1017,46	6,7	8,6	8,6	1	1	1	1	1	1	1	1	1	0	1	-6,412967	274,038875	313,352648	0
15.01.2021	22:03:43	0	0	3,6154	1,227	297,5472	-0,01	87,114	0	1017,6	6,7	8,6	8,6	1	1	1	1	1	1	1	1	1	0	1	-10,147992	274,003205	309,451171	0
15.01.2021	22:03:44	0	0	4,971264	1,26525	309,8376	-0,013	87,101	0	1017,3	6,7	8,6	8,3	1	1	1	1	1	1	1	1	1	0	1	-11,205074	274,061202	308,664764	0
15.01.2021	22:03:45	0	0	3,276456	1,3665	298,6884	-0,012	87,108	0	1017,52	6,7	8,6	8,6	1	1	1	1	1	1	1	1	1	0	1	-6,272023	273,929105	312,981557	0
15.01.2021	22:03:46	0	0	3,163475	1,60725	297,414	-0,011	87,13	0	1017,48	6,7	8,6	8,6	1	1	1	1	1	1	1	1	1	0	1	-7,117689	274,013602	312,529984	0
15.01.2021	22:03:47	0	0	3,389437	1,806	302,076	-0,007	87,111	0	1017,58	6,7	8,6	8,6	1	1	1	1	1	1	1	1	1	0	1	-11,486963	274,061202	308,382876	0
15.01.2021	22:03:48	0	0	4,180306	1,9035	304,668	-0,009	87,105	0	1017,56	6,7	8,6	8,6	1	1	1	1	1	1	1	1	1	0	1	-6,624383	274,025491	313,078768	0
15.01.2021	22:03:49	0	0	3,163475	2,07	306,4068	-0,008	87,116	0	1017,48	6,7	8,6	8,6	1	1	1	1	1	1	1	1	1	0	1	-8,45666	274,032925	311,281188	0
15.01.2021	22:03:50	0	0	4,51925	2,13675	306,8172	-0,006	87,11	0	1017,52	6,7	8,6	8,6	1	1	1	1	1	1	1	1	1	0	1	-10,500352	274,064181	309,383393	0
15.01.2021	22:03:51	0	0	3,163475	2,13	302,8032	-0,009	87,094	0	1017,52	6,7	8,6	8,6	1	1	1	1	1	1	1	1	1	0	1	-7,751938	274,024005	311,944277	0
15.01.2021	22:03:52	0	0	2,71155	2,15325	305,7516	-0,008	87,116	0	1017,54	6,7	8,6	8,6	1	1	1	1	1	1	1	1	1	0	1	-9,866103	274,029951	309,857864	0
15.01.2021	22:03:53	0	0	2,71155	2,22225	302,778	-0,007	87,119	0	1017,34	6,7	8,6	8,6	1	1	1	1	1	1	1	1	1	0	1	-10,288936	273,883306	308,751189	0
15.01.2021	22:03:54	0	0	3,728381	2,20275	304,6212	-0,01	87,105	0	1017,38	6,7	8,6	8,6	1	1	1	1	1	1	1	1	1	0	1	-6,060606	273,963156	313,351742	0
15.01.2021	22:03:55	0	0	4,293287	2,14725	300,4632	-0,009	87,125	0	1017,5	6,7	8,6	8,6	1	1	1	1	1	1	1	1	1	0	1	-11,557435	274,062691	308,319357	0
15.01.2021	22:03:56	0	0	3,954344	2,073	302,454	-0,014	87,096	0	1017,38	6,7	8,6	8,6	1	1	1	1	1	1	1	1	1	0	1	-6,553911	273,906931	312,596307	0
15.01.2021	22:03:57	0	0	4,632231	2,04975	305,4024	-0,009	87,105	0	1017,5	6,7	8,6	8,6	1	1	1	1	1	1	1	1	1	0	1	-10,42988	273,902499	308,699683	0
15.01.2021	22:03:58	0	0	3,163475	2,0055	302,436	-0,008	87,11	0	1017,48	6,7	8,6	8,6	1	1	1	1	1	1	1	1	1	0	1	-10,218464	274,06716	309,679192	0
15.01.2021	22:03:59	0	0	4,180306	2,0265	307,1844	-0,012	87,095	0	1017,48	6,7	8,6	8,6	1	1	1	1	1	1	1	1	1	0	1	-8,386187	274,015088	311,268418	0
15.01.2021	22:04:00	0	0	4,406268	2,064	305,3304	-0,009	87,102	0	1017,5	6,7	8,6	8,6	1	1	1	1	1	1	1	1	1	0	1	-6,131078	273,887734	312,929676	0
15.01.2021	22:04:01	0	0	3,050494	2,09025	306,9036	-0,012	87,087	0	1017,28	6,7	8,6	8,6	1	1	1	1	1	1	1	1	1	0	1	-9,302326	273,91432	309,88233	0
15.01.2021	22:04:02	0	0	3,954344	2,06475	305,6868	-0,007	87,096	0	1017,56	6,7	8,6	8,6	1	1	1	1	1	1	1	1	1	0	1	-10,218464	273,930585	309,042012	0
15.01.2021	22:04:03	0	0	2,71155	2,09025	312,5052	-0,007	87,088	0	1017,4	6,7	8,6	8,6	1	1	1	1	1	1	1	1	1	0	1	-5,708245	273,872979	313,283765	0
15.01.2021	22:04:04	0	0	5,084156	2,07675	303,4404	-0,006	87,095	0	1017,52	6,7	8,6	8,6	1	1	1	1	1	1	1	1	1	0	1	-10,711769	274,006175	308,90125	0
15.01.2021	22:04:05	0	0	4,406268	2,0745	305,3484	-0,007	87,1	0	1017,48	6,7	8,6	8,6	1	1	1	1	1	1	1	1	1	0	1	-11,134602	273,942422	308,181064	0
15.01.2021	22:04:06	0	0	4,632231	2,01975	303,4404	-0,019	87,092	0	1017,48	6,7	8,6	8,6	1	1	1	1	1	1	1	1	1	0	1	-5,567301	273,898068	313,541613	0
15.01.2021	22:04:07	0	0	5,4231	1,95375	312,3936	-0,012	87,089	0	1017,58	6,7	8,6	8,6	1	1	1	1	1	1	1	1	1	0	1	-5,144468	273,936503	314,143598	0
15.01.2021	22:04:08	0	0	2,485587	1,9065	299,376	-0,016	87,096	0	1017,58	6,7	8,6	8,6	1	1	1	1	1	1	1	1	1	0	1	-12,403101	274,037387	307,355572	0
15.01.2021	22:04:09	0	0	4,971175	1,9005	297,2448	-0,014	87,07	0	1017,4	6,7	8,6	8,6	1	1	1	1	1	1	1	1	1	0	1	-9,090909	274,040363	310,68165	0
15.01.2021	22:04:10	0	0	2,71155	1,9335	290,0268	-0,009	87,092	0	1017,5	6,7	8,6	8,6	1	1	1	1	1	1	1	1	1	0	1	-8,174771	274,00766	311,445178	0
15.01.2021	22:04:11	0	0	4,51925	1,9845	299,7792	-0,005	87,081	0	1017,54	6,7	8,6	8,6	1	1	1	1	1	1	1	1	1	0	1	-6,483439	273,877405	312,529187	0
15.01.2021	22:04:12	0	0	3,050494	1,911	283,23	-0,013	87,091	0	1017,5	6,7	8,6	8,6	1	1	1	1	1	1	1	1	1	0	1	-11,768851	274,025491	307,9343	0
15.01.2021	22:04:13	0	0	4,858193	1,9095	285,4944	-0,007	87,095	0	1017,34	6,7	8,6	8,6	1	1	1	1	1	1	1	1	1	0	1	-2,889359	273,963156	316,522989	0
15.01.2021	22:04:14	0	0	4,406268	1,86375	300,1248	-0,011	87,092	0	1017,4	6,7	8,6	8,6	1	1	1	1	1	1	1	1	1	0	1	-4,22833	274,049291	315,585905	0
15.01.2021	22:04:15	0	0	4,519304	1,77975	281,34	-0,01	87,093	0	1017,48	6,7	8,6	8,4	1	1	1	1	1	1	1	1	1	0	1	-6,342495	274,025491	313,360657	0
15.01.2021	22:04:16	0	0	4,745269	1,63275	290,7504	-0,012	87,084	0	1017,46	6,7	8,6	8,4	1	1	1	1	1	1	1	1	1	0	1	-8,668076	273,932064	310,599296	0
15.01.2021	22:04:17	0	0	2,824531	1,52325	279,8784	-0,017	87,095	0	1017,3	6,7	8,6	8,6	1	1	1	1	1	1	1	1	1	0	1	-7,963354	273,87888	311,056146	0
15.01.2021	22:04:18	0	0	5,197137	1,45425	296,4024	-0,01	87,07	0	1017,46	6,7	8,6	8,6	1	1	1	1	1	1	1	1	1	0	1	-8,80902	274,000236	310,776288	0
15.01.2021	22:04:19	0	0	4,858193	1,40775	293,3676	-0,01	87,092	0	1017,54	6,7	8,6	8,6	1	1	1	1	1	1	1	1	1	0	1	-3,805497	273,886258	315,24838	0
15.01.2021	22:04:20	0	0	4,067325	1,4115	272,4948	-0,009	87,093	0	1017,54	6,7	8,6	8,6	1	1	1	1	1	1	1	1	1	0	1	-4,298802	273,88921	314,768831	0
15.01.2021	22:04:21	0	0	5,084156	1,46925	290,0484	-0,015	87,093	0	1017,42	6,7	8,6	8,6	1	1	1	1	1	1	1	1	1	0	1	-9,936575	273,939462	309,365289	0
15.01.2021	22:04:22	0	0	3,841362	1,56675	297,5544	-0,014	87,094	0	1017,5	6,7	8,6	8,6	1	1	1	1	1	1	1	1	1	0	1	-9,372798	273,868555	309,598601	0
15.01.2021	22:04:23	0	0	4,180306	1,62975	297,9288	-0,018	87,097	0	1017,42	6,7	8,6	8,6	1	1	1	1	1	1	1	1	1	0	1	-3,030303	273,901022	316,092376	0
15.01.2021	22:04:24	0	0	3,615443	1,7025	288,8316	-0,016	87,081	0	1017,46	6,7	8,6	8,4	1	1	1	1	1	1	1	1	1	0	1	-4,721635	273,946863	314,614738	0
15.01.2021	22:04:25	0	0	2,824531	1,71075	285,9444	-0,009	87,112	0	1017,56	6,6	8,6	8,6	1	1	1	1	1	1	1	1	1	0	1	-8,45666	274,062691	311,420132	0
15.01.2021	22:04:26	0	0	4,745212	1,6545	287,748	-0,013	87,09	0	1017,38	6,7	8,6	8,6	1	1	1	1	1	1	1	1	1	0	1	-7,258633	274,003205	312,340529	0
15.01.2021	22:04:27	0	0	2,937512	1,67925	296,8416	-0,005	87,09	0	1017,62	6,7	8,6	8,6	1	1	1	1	1	1	1	1	1	0	1	-7,892882	273,875929	311,112871	0
15.01.2021	22:04:28	0	0	3,050494	1,66125	299,8152	-0,009	87,096	0	1017,34	6,7	8,6	8,6	1	1	1	1	1	1	1	1	1	0	1	-11,627907	273,887734	307,432848	0
15.01.2021	22:04:29	0	0	5,084156	1,5735	278,8128	-0,007	87,104	0	1017,46	6,7	8,6	8,6	1	1	1	1	1	1	1	1	1	0	1	-7,82241	273,979462	311,66599	0
15.01.2021	22:04:30	0	0	3,954344	1,50225	284,8824	-0,015	87,097	0	1017,54	6,7	8,6	8,6	1	1	1	1	1	1	1	1	1	0	1	-7,329105	274,062691	312,547687	0
15.01.2021	22:04:31	0	0	4,293287	1,635	311,3604	-0,011	87,101	0	1017,62	6,7	8,6	8,6	1	1	1	1	1	1	1	1	1	0	1	-7,751938	274,000236	311,83337	0
15.01.2021	22:04:32	0	0	2,937512	1,6785	305,2944	-0,009	87,102	0	1017,5	6,7	8,6	8,6	1	1	1	1	1	1	1	1	1	0	1	-5,003524	274,062691	314,873268	0
15.01.2021	22:04:33	0	0	3,276456	1,623	292,2192	-0,007	87,098	0	1017,42	6,7	8,6	8,6	1	1	1	1	1	1	1	1	1	0	1	-5,990134	273,924668	313,242762	0
15.01.2021	22:04:34	0	0	4,971175	1,64175	291,4812	-0,009	87,071	0	1017,52	6,7	8,6	8,6	1	1	1	1	1	1	1	1	1	0	1	-7,681466	274,040363	312,091093	0
15.01.2021	22:04:35	0	0	2,937512	1,78575	276,8652	-0,009	87,097	0	1017,56	6,7	8,6	8,6	1	1	1	1	1	1	1	1	1	0	1	-5,990134	273,892162	313,091256	0
15.01.2021	22:04:36	0	0	4,293287	1,7955	315,5616	-0,012	87,087	0	1017,42	6,7	8,6	8,6	1	1	1	1	1	1	1	1	1	0	1	-7,047216	273,930585	312,213259	0
15.01.2021	22:04:37	0	0	3,728381	1,85325	301,2156	-0,012	87,096	0	1017,5	6,7	8,6	8,6	1	1	1	1	1	1	1	1	1	0	1	-11,768851	274,07014	308,142717	0
15.01.2021	22:04:38	0	0	4,067325	1,99425	302,7852	-0,012	87,1	0	1017,42	6,6	8,6	8,6	1	1	1	1	1	1	1	1	1	0	1	-7,751938	274,031438	311,978969	0
15.01.2021	22:04:39	0	0	3,163475	2,0145	300,8412	-0,011	87,107	0	1017,5	6,7	8,6	8,6	1	1	1	1	1	1	1	1	1	0	1	-6,694856	273,91432	312,4898	0
15.01.2021	22:04:40	0	0	4,971175	1,902	298,314	-0,008	87,098	0	1017,42	6,7	8,6	8,6	1	1	1	1	1	1	1	1	1	0	1	-7,82241	274,031438	311,908497	0
15.01.2021	22:04:41	0	0	3,276456	1,749	283,1364	-0,013	87,099	0	1017,48	6,7	8,6	8,6	1	1	1	1	1	1	1	1	1	0	1	-4,933051	274,00766	314,686897	0
15.01.2021	22:04:42	0	0	5,423165	1,61775	282,1104	-0,011	87,097	0	1017,6	6,7	8,6	8,4	1	1	1	1	1	1	1	1	1	0	1	-10,147992	273,87888	308,871509	0
15.01.2021	22:04:43	0	0	3,276456	1,55325	285,2064	-0,021	87,089	0	1017,38	6,7	8,6	8,6	1	1	1	1	1	1	1	1	1	0	1	-10,218464	274,053757	309,616617	0
15.01.2021	22:04:44	0	0	4,971175	1,52775	297,2196	-0,01	87,101	0	1017,4	6,7	8,6	8,6	1	1	1	1	1	1	1	1	1	0	1	-5,778717	274,00766	313,841231	0
15.01.2021	22:04:45	0	0	4,51925	1,5165	308,7576	-0,009	87,098	0	1017,36	6,7	8,6	8,6	1	1	1	1	1	1	1	1	1	0	1	-4,298802	273,924668	314,934094	0
15.01.2021	22:04:46	0	0	4,293339	1,51725	302,7636	-0,011	87,096	0	1017,52	6,7	8,6	8,4	1	1	1	1	1	1	1	1	1	0	1	-8,80902	274,056734	311,039962	0
15.01.2021	22:04:47	0	0	4,293287	1,51425	293,778	-0,015	87,098	0	1017,38	6,7	8,6	8,6	1	1	1	1	1	1	1	1	1	0	1	-4,933051	274,009146	314,693827	0
15.01.2021	22:04:48	0	0	4,067325	1,54425	298,6164	-0,01	87,112	0	1017,56	6,7	8,6	8,6	1	1	1	1	1	1	1	1	1	0	1	-8,245243	274,06567	311,645457	0
15.01.2021	22:04:49	0	0	2,824531	1,47675	319,5612	-0,015	87,106	0	1017,5	6,7	8,6	8,6	1	1	1	1	1	1	1	1	1	0	1	-11,134602	274,025491	308,56855	0
15.01.2021	22:04:50	0	0	4,51925	1,3725	308,1348	-0,008	87,112	0	1017,52	6,7	8,6	8,6	1	1	1	1	1	1	1	1	1	0	1	-9,302326	274,010631	310,331484	0
15.01.2021	22:04:51	0	0	4,293287	1,31325	289,6272	-0,01	87,089	0	1017,46	6,7	8,6	8,6	1	1	1	1	1	1	1	1	1	0	1	-9,020437	274,040363	310,752122	0
15.01.2021	22:04:52	0	0	4,971175	1,2915	298,98	-0,015	87,083	0	1017,46	6,7	8,6	8,6	1	1	1	1	1	1	1	1	1	0	1	-11,205074	273,994298	308,352533	0
15.01.2021	22:04:53	0	0	3,163475	1,32	285,5304	-0,013	87,093	0	1017,5	6,7	8,6	8,6	1	1	1	1	1	1	1	1	1	0	1	-6,412967	273,883306	312,627158	0
15.01.2021	22:04:54	0	0	4,858193	1,33725	305,7048	-0,011	87,118	0	1017,5	6,7	8,6	8,6	1	1	1	1	1	1	1	1	1	0	1	-6,412967	273,955749	312,964837	0
15.01.2021	22:04:55	0	0	2,824531	1,30875	315,5256	-0,007	87,105	0	1017,56	6,7	8,6	8,6	1	1	1	1	1	1	1	1	1	0	1	-7,399577	274,053757	312,435504	0
15.01.2021	22:04:56	0	0	4,632231	1,3215	309,9636	-0,016	87,107	0	1017,42	6,7	8,6	8,6	1	1	1	1	1	1	1	1	1	0	1	-6,906272	274,016574	312,755266	0
15.01.2021	22:04:57	0	0	3,954391	1,314	312,462	-0,016	87,1	0	1017,4	6,7	8,6	8,4	1	1	1	1	1	1	1	1	1	0	1	-10,42988	273,929105	308,823699	0
15.01.2021	22:04:58	0	0	3,276456	1,29225	307,5732	-0,014	87,103	0	1017,48	6,7	8,6	8,6	1	1	1	1	1	1	1	1	1	0	1	-10,359408	273,881831	308,673841	0
15.01.2021	22:04:59	0	0	3,728381	1,29825	309,24	-0,013	87,114	0	1017,32	6,7	8,6	8,6	1	1	1	1	1	1	1	1	1	0	1	-6,624383	274,058223	313,23155	0
15.01.2021	22:05:00	0	0	4,180306	1,37025	318,1284	-0,012	87,103	0	1017,5	6,7	8,6	8,6	1	1	1	1	1	1	1	1	1	0	1	-9,866103	273,930585	309,394373	0
15.01.2021	22:05:01	0	0	4,180306	1,35675	305,7228	-0,013	87,104	0	1017,48	6,7	8,7	8,6	1	1	1	1	1	1	1	1	1	0	1	-6,20155	273,920233	313,010667	0
15.01.2021	22:05:02	0	0	4,632231	1,30425	302,4828	-0,013	87,118	0	1017,5	6,7	8,6	8,6	1	1	1	1	1	1	1	1	1	0	1	-8,033827	274,038875	311,731789	0
15.01.2021	22:05:03	0	0	3,276495	1,3095	315,5292	-0,009	87,104	0	1017,64	6,7	8,6	8,4	1	1	1	1	1	1	1	1	1	0	1	-6,976744	273,912842	312,201023	0
15.01.2021	22:05:04	0	0	2,598569	1,40025	316,7748	-0,011	87,115	0	1017,56	6,7	8,6	8,6	1	1	1	1	1	1	1	1	1	0	1	-7,399577	273,95723	311,985134	0
15.01.2021	22:05:05	0	0	4,180306	1,4805	313,5924	-0,011	87,116	0	1017,62	6,7	8,6	8,6	1	1	1	1	1	1	1	1	1	0	1	-8,033827	273,87003	310,944442	0
15.01.2021	22:05:06	0	0	4,293287	1,59375	313,2252	-0,014	87,106	0	1017,48	6,7	8,6	8,6	1	1	1	1	1	1	1	1	1	0	1	-7,892882	274,019546	311,782525	0
15.01.2021	22:05:07	0	0	4,858193	1,6785	315,468	-0,012	87,113	0	1017,52	6,7	8,6	8,6	1	1	1	1	1	1	1	1	1	0	1	-8,879493	273,986879	310,643503	0
15.01.2021	22:05:08	0	0	2,485587	1,67475	311,0868	-0,018	87,103	0	1017,32	6,7	8,6	8,6	1	1	1	1	1	1	1	1	1	0	1	-9,302326	274,059713	310,56056	0
15.01.2021	22:05:09	0	0	2,937512	1,722	305,01	-0,018	87,101	0	1017,38	6,7	8,6	8,6	1	1	1	1	1	1	1	1	1	0	1	-10,570825	273,875929	308,434929	0
15.01.2021	22:05:10	0	0	2,824531	1,7805	310,9788	-0,009	87,115	0	1017,52	6,7	8,6	8,6	1	1	1	1	1	1	1	1	1	0	1	-5,003524	273,989846	314,533315	0
15.01.2021	22:05:11	0	0	2,372606	1,8765	306,432	-0,012	87,092	0	1017,6	6,7	8,6	8,6	1	1	1	1	1	1	1	1	1	0	1	-7,681466	273,91432	311,50319	0
15.01.2021	22:05:12	0	0	4,745212	2,06175	303,1416	-0,01	87,117	0	1017,46	6,7	8,6	8,6	1	1	1	1	1	1	1	1	1	0	1	-8,597604	274,026978	311,112486	0
15.01.2021	22:05:13	0	0	4,180306	2,178	309,5784	-0,016	87,106	0	1017,52	6,7	8,6	8,6	1	1	1	1	1	1	1	1	1	0	1	-7,610994	274,062691	312,265798	0
15.01.2021	22:05:14	0	0	5,197137	2,22825	313,578	-0,015	87,091	0	1017,48	6,7	8,6	8,6	1	1	1	1	1	1	1	1	1	0	1	-4,510218	274,04185	315,269285	0
15.01.2021	22:05:15	0	0	2,485587	2,24475	302,8104	-0,02	87,105	0	1017,44	6,7	8,6	8,6	1	1	1	1	1	1	1	1	1	0	1	-4,792107	273,967602	314,640975	0
15.01.2021	22:05:16	0	0	3,276456	2,1645	307,1556	-0,012	87,087	0	1017,62	6,7	8,6	8,6	1	1	1	1	1	1	1	1	1	0	1	-12,755462	274,031438	306,975445	0
15.01.2021	22:05:17	0	0	5,084156	2,03775	291,204	-0,01	87,098	0	1017,44	6,7	8,6	8,6	1	1	1	1	1	1	1	1	1	0	1	-7,681466	274,047803	312,125821	0
15.01.2021	22:05:18	0	0	3,841362	1,97025	294,7968	-0,012	87,084	0	1017,36	6,7	8,6	8,6	1	1	1	1	1	1	1	1	1	0	1	-8,386187	273,995783	311,178344	0
15.01.2021	22:05:19	0	0	2,485587	1,96875	303,9012	-0,008	87,109	0	1017,58	6,7	8,6	8,6	1	1	1	1	1	1	1	1	1	0	1	-6,272023	274,04185	313,507481	0
15.01.2021	22:05:20	0	0	2,485587	2,0145	295,1928	-0,015	87,105	0	1017,42	6,7	8,6	8,6	1	1	1	1	1	1	1	1	1	0	1	-10,782241	273,87888	308,237259	0
15.01.2021	22:05:21	0	0	2,372606	2,11875	300,1824	-0,01	87,098	0	1017,58	6,7	8,6	8,6	1	1	1	1	1	1	1	1	1	0	1	-6,412967	273,985395	313,103109	0
15.01.2021	22:05:22	0	0	4,632231	2,20275	305,7984	-0,013	87,09	0	1017,68	6,7	8,6	8,6	1	1	1	1	1	1	1	1	1	0	1	-8,80902	273,867081	310,155509	0
15.01.2021	22:05:23	0	0	2,937512	2,286	306,8352	-0,012	87,108	0	1017,42	6,7	8,6	8,6	1	1	1	1	1	1	1	1	1	0	1	-10,923185	274,029951	308,800782	0
15.01.2021	22:05:24	0	0	4,067325	2,328	302,4684	-0,015	87,099	0	1017,44	6,7	8,6	8,6	1	1	1	1	1	1	1	1	1	0	1	-7,188161	274,050779	312,633022	0
15.01.2021	22:05:25	0	0	2,71155	2,33625	315,5652	-0,011	87,108	0	1017,58	6,7	8,6	8,6	1	1	1	1	1	1	1	1	1	0	1	-5,496829	274,055245	314,345202	0
15.01.2021	22:05:26	0	0	3,389437	2,36025	311,7276	-0,012	87,1	0	1017,46	6,7	8,6	8,6	1	1	1	1	1	1	1	1	1	0	1	-7,610994	273,943903	311,711574	0
15.01.2021	22:05:27	0	0	2,824531	2,334	300,8376	-0,013	87,103	0	1017,5	6,7	8,6	8,6	1	1	1	1	1	1	1	1	1	0	1	-5,778717	273,868555	313,192681	0
15.01.2021	22:05:28	0	0	3,163475	2,29425	311,8104	-0,018	87,11	0	1017,48	6,7	8,6	8,6	1	1	1	1	1	1	1	1	1	0	1	-8,949965	274,044826	310,843429	0
15.01.2021	22:05:29	0	0	2,598569	2,247	297,8964	-0,02	87,091	0	1017,36	6,7	8,6	8,6	1	1	1	1	1	1	1	1	1	0	1	-5,073996	273,940942	314,234769	0
15.01.2021	22:05:30	0	0	2,372606	2,205	299,3868	-0,004	87,164	0	1017,4	6,7	8,6	8,6	1	1	1	1	1	1	1	1	1	0	1	-11,134602	273,875929	307,871152	0
15.01.2021	22:05:31	0	0	4,51925	2,19525	300,2364	-0,011	87,121	0	1017,5	6,7	8,6	8,6	1	1	1	1	1	1	1	1	1	0	1	-8,315715	274,07014	311,595853	0
15.01.2021	22:05:32	0	0	4,293339	2,14275	303,4584	-0,017	87,095	0	1017,48	6,7	8,6	8,4	1	1	1	1	1	1	1	1	1	0	1	-6,694856	274,009146	312,932023	0
15.01.2021	22:05:33	0	0	4,067325	2,01225	300,888	-0,015	87,118	0	1017,42	6,7	8,6	8,6	1	1	1	1	1	1	1	1	1	0	1	-10,218464	273,946863	309,117909	0
15.01.2021	22:05:34	0	0	3,389437	1,96425	296,9784	-0,015	87,097	0	1017,54	6,7	8,6	8,6	1	1	1	1	1	1	1	1	1	0	1	-9,725159	273,942422	309,590507	0
15.01.2021	22:05:35	0	0	2,824531	1,90725	297,2124	-0,011	87,109	0	1017,58	6,7	8,6	8,6	1	1	1	1	1	1	1	1	1	0	1	-11,205074	274,046314	308,595266	0
15.01.2021	22:05:36	0	0	4,971175	1,90575	302,472	-0,019	87,113	0	1017,44	6,7	8,6	8,6	1	1	1	1	1	1	1	1	1	0	1	-5,637773	274,024005	314,058441	0
15.01.2021	22:05:37	0	0	4,406268	1,893	310,6584	-0,012	87,109	0	1017,46	6,7	8,6	8,6	1	1	1	1	1	1	1	1	1	0	1	-7,82241	274,031438	311,908497	0
15.01.2021	22:05:38	0	0	3,6154	1,899	303,66	-0,012	87,106	0	1017,48	6,7	8,6	8,6	1	1	1	1	1	1	1	1	1	0	1	-5,355884	273,980945	314,139434	0
15.01.2021	22:05:39	0	0	2,372606	1,89	310,2732	-0,022	87,119	0	1017,34	6,7	8,6	8,6	1	1	1	1	1	1	1	1	1	0	1	-2,889359	273,862658	316,054568	0
15.01.2021	22:05:40	0	0	3,841362	1,8225	292,6404	-0,017	87,119	0	1017,46	6,7	8,6	8,6	1	1	1	1	1	1	1	1	1	0	1	-7,963354	274,056734	311,885628	0
15.01.2021	22:05:41	0	0	4,067325	1,7715	300,4884	-0,01	87,115	0	1017,58	6,6	8,6	8,6	1	1	1	1	1	1	1	1	1	0	1	-10,923185	273,896591	308,178847	0
15.01.2021	22:05:42	0	0	2,824531	1,72575	305,7624	-0,015	87,113	0	1017,38	6,7	8,6	8,6	1	1	1	1	1	1	1	1	1	0	1	-3,24172	273,868555	315,729679	0
15.01.2021	22:05:43	0	0	4,406268	1,65075	310,7232	-0,02	87,104	0	1017,32	6,7	8,6	8,6	1	1	1	1	1	1	1	1	1	0	1	-4,157858	273,933543	315,116412	0
15.01.2021	22:05:44	0	0	2,824531	1,6095	299,07	-0,011	87,12	0	1017,54	6,7	8,6	8,6	1	1	1	1	1	1	1	1	1	0	1	-6,624383	273,875929	312,38137	0
15.01.2021	22:05:45	0	0	4,180306	1,5705	299,4084	-0,013	87,132	0	1017,56	6,7	8,6	8,6	1	1	1	1	1	1	1	1	1	0	1	-8,527132	273,954267	310,843765	0
15.01.2021	22:05:46	0	0	3,276456	1,58325	299,4156	-0,015	87,122	0	1017,54	6,7	8,6	8,6	1	1	1	1	1	1	1	1	1	0	1	-6,412967	274,055245	313,429064	0
15.01.2021	22:05:47	0	0	2,937512	1,71525	304,6428	-0,017	87,119	0	1017,44	6,7	8,6	8,6	1	1	1	1	1	1	1	1	1	0	1	-5,144468	273,905453	313,998864	0
15.01.2021	22:05:48	0	0	2,71155	1,797	301,626	-0,011	87,12	0	1017,5	6,7	8,6	8,6	1	1	1	1	1	1	1	1	1	0	1	-9,44327	273,986879	310,079726	0
15.01.2021	22:05:49	0	0	3,728381	1,821	297,4536	-0,009	87,119	0	1017,42	6,7	8,6	8,6	1	1	1	1	1	1	1	1	1	0	1	-11,205074	273,87003	307,773195	0
15.01.2021	22:05:50	0	0	3,389437	1,9095	302,022	-0,009	87,124	0	1017,5	6,7	8,6	8,6	1	1	1	1	1	1	1	1	1	0	1	-8,738548	273,995783	310,825983	0
15.01.2021	22:05:51	0	0	2,259625	1,929	304,2324	-0,012	87,125	0	1017,36	6,7	8,6	8,6	1	1	1	1	1	1	1	1	1	0	1	-11,768851	273,874454	307,23003	0
15.01.2021	22:05:52	0	0	3,954391	1,8525	296,1612	-0,011	87,117	0	1017,68	6,7	8,6	8,4	1	1	1	1	1	1	1	1	1	0	1	-12,191684	274,056734	307,657298	0
15.01.2021	22:05:53	0	0	2,824531	1,8555	289,26	-0,011	87,158	0	1017,82	6,7	8,6	8,6	1	1	1	1	1	1	1	1	1	0	1	-4,016913	273,92319	315,209089	0
15.01.2021	22:05:54	0	0	3,050494	1,7925	301,6332	-0,013	87,128	0	1017,42	6,7	8,6	8,6	1	1	1	1	1	1	1	1	1	0	1	-7,399577	273,995783	312,164954	0
15.01.2021	22:05:55	0	0	2,71155	1,7595	289,2168	-0,012	87,115	0	1017,5	6,7	8,6	8,6	1	1	1	1	1	1	1	1	1	0	1	-7,047216	274,053757	312,787865	0
15.01.2021	22:05:56	0	0	5,084217	1,761	293,3028	-0,018	87,113	0	1017,38	6,7	8,6	8,4	1	1	1	1	1	1	1	1	1	0	1	-7,963354	274,034413	311,781434	0
15.01.2021	22:05:57	0	0	2,937512	1,671	295,5204	-0,012	87,118	0	1017,54	6,7	8,6	8,6	1	1	1	1	1	1	1	1	1	0	1	-11,205074	273,946863	308,131299	0
15.01.2021	22:05:58	0	0	3,389437	1,524	295,2252	-0,008	87,131	0	1017,44	6,7	8,6	8,6	1	1	1	1	1	1	1	1	1	0	1	-9,725159	274,056734	310,123823	0
15.01.2021	22:05:59	0	0	3,954344	1,557	294,8004	-0,014	87,125	0	1017,52	6,7	8,6	8,6	1	1	1	1	1	1	1	1	1	0	1	-10,711769	273,906931	308,438449	0
15.01.2021	22:06:00	0	0	4,971175	1,6065	303,1992	-0,013	87,14	0	1017,44	6,7	8,6	8,6	1	1	1	1	1	1	1	1	1	0	1	-3,24172	274,034413	316,503069	0
15.01.2021	22:06:01	0	0	4,51925	1,731	294,3288	-0,01	87,129	0	1017,56	6,7	8,6	8,6	1	1	1	1	1	1	1	1	1	0	1	-6,976744	274,025491	312,726408	0
15.01.2021	22:06:02	0	0	3,841408	1,8075	302,4684	-0,012	87,125	0	1017,54	6,7	8,6	8,4	1	1	1	1	1	1	1	1	1	0	1	-11,980268	273,937982	307,314697	0
15.01.2021	22:06:03	0	0	3,728381	1,863	302,8752	-0,01	87,127	0	1017,48	6,7	8,6	8,6	1	1	1	1	1	1	1	1	1	0	1	-2,959831	273,864132	315,990963	0
15.01.2021	22:06:04	0	0	5,197137	1,884	306,414	-0,015	87,14	0	1017,44	6,7	8,6	8,6	1	1	1	1	1	1	1	1	1	0	1	-10,359408	273,945383	308,970062	0
15.01.2021	22:06:05	0	0	3,050494	1,91325	293,3568	-0,011	87,12	0	1017,42	6,7	8,6	8,6	1	1	1	1	1	1	1	1	1	0	1	-7,751938	274,062691	312,124854	0
15.01.2021	22:06:06	0	0	4,745212	2,0055	291,8736	-0,006	87,134	0	1017,42	6,7	8,6	8,6	1	1	1	1	1	1	1	1	1	0	1	-10,42988	273,855289	308,47972	0
15.01.2021	22:06:07	0	0	2,71155	2,06325	290,4192	-0,009	87,143	0	1017,36	6,7	8,6	8,6	1	1	1	1	1	1	1	1	1	0	1	-3,664553	273,905453	315,47878	0
15.01.2021	22:06:08	0	0	2,937548	2,06775	288,8244	-0,008	87,144	0	1017,48	6,7	8,6	8,4	1	1	1	1	1	1	1	1	1	0	1	-7,963354	274,012117	311,677386	0
15.01.2021	22:06:09	0	0	4,180306	2,03625	288,4248	-0,015	87,146	0	1017,52	6,7	8,6	8,6	1	1	1	1	1	1	1	1	1	0	1	-9,090909	274,050779	310,730274	0
15.01.2021	22:06:10	0	0	5,084156	2,0985	286,9812	-0,006	87,131	0	1017,66	6,7	8,6	8,6	1	1	1	1	1	1	1	1	1	0	1	-7,117689	273,985395	312,398387	0
15.01.2021	22:06:11	0	0	2,598569	2,0715	291,2328	-0,011	87,15	0	1017,46	6,7	8,6	8,6	1	1	1	1	1	1	1	1	1	0	1	-5,990134	274,053757	313,844947	0
15.01.2021	22:06:12	0	0	2,711582	2,0625	290,0628	-0,018	87,135	0	1017,42	6,7	8,6	8,4	1	1	1	1	1	1	1	1	1	0	1	-5,778717	273,906931	313,371501	0
15.01.2021	22:06:13	0	0	2,485617	2,0685	287,7336	-0,014	87,135	0	1017,52	6,7	8,6	8,4	1	1	1	1	1	1	1	1	1	0	1	-10,782241	273,933543	308,492028	0
15.01.2021	22:06:14	0	0	3,163513	2,01525	285,5484	-0,008	87,138	0	1017,48	6,7	8,6	8,4	1	1	1	1	1	1	1	1	1	0	1	-10,218464	273,874454	308,780418	0
15.01.2021	22:06:15	0	0	4,293287	1,91925	290,772	-0,017	87,123	0	1017,5	6,7	8,6	8,6	1	1	1	1	1	1	1	1	1	0	1	-3,030303	273,893638	316,057967	0
15.01.2021	22:06:16	0	0	4,51925	1,85925	292,662	-0,013	87,116	0	1017,52	6,7	8,6	8,6	1	1	1	1	1	1	1	1	1	0	1	-8,245243	274,026978	311,464846	0
15.01.2021	22:06:17	0	0	2,598569	1,76475	290,7648	-0,01	87,139	0	1017,48	6,7	8,6	8,6	1	1	1	1	1	1	1	1	1	0	1	-8,033827	273,875929	310,971927	0
15.01.2021	22:06:18	0	0	4,971234	1,74225	292,266	-0,007	87,122	0	1017,4	6,7	8,6	8,4	1	1	1	1	1	1	1	1	1	0	1	-10,500352	274,012117	309,140388	0
15.01.2021	22:06:19	0	0	4,632231	1,71975	296,8848	-0,011	87,129	0	1017,58	6,7	8,6	8,6	1	1	1	1	1	1	1	1	1	0	1	-6,976744	273,932064	312,290628	0
15.01.2021	22:06:20	0	0	3,389437	1,65075	290,0088	-0,013	87,12	0	1017,54	6,7	8,6	8,6	1	1	1	1	1	1	1	1	1	0	1	-12,684989	273,895115	306,410161	0
15.01.2021	22:06:21	0	0	5,084156	1,55625	291,87	-0,006	87,126	0	1017,42	6,7	8,6	8,6	1	1	1	1	1	1	1	1	1	0	1	-11,486963	273,911364	307,683916	0
15.01.2021	22:06:22	0	0	4,293287	1,4925	296,4276	-0,007	87,123	0	1017,54	6,7	8,6	8,6	1	1	1	1	1	1	1	1	1	0	1	-8,245243	273,935023	311,035924	0
15.01.2021	22:06:23	0	0	3,276495	1,44075	296,1576	-0,007	87,13	0	1017,46	6,7	8,6	8,4	1	1	1	1	1	1	1	1	1	0	1	-6,412967	273,881831	312,620282	0
15.01.2021	22:06:24	0	0	4,632231	1,449	304,5924	-0,006	87,144	0	1017,58	6,7	8,6	8,6	1	1	1	1	1	1	1	1	1	0	1	-4,580691	273,929105	314,672889	0
15.01.2021	22:06:25	0	0	2,824531	1,50375	312,8724	-0,01	87,132	0	1017,54	6,7	8,6	8,6	1	1	1	1	1	1	1	1	1	0	1	-5,426357	273,986879	314,096639	0
15.01.2021	22:06:26	0	0	3,502419	1,5975	308,8764	-0,009	87,125	0	1017,56	6,7	8,6	8,6	1	1	1	1	1	1	1	1	1	0	1	-6,765328	273,867081	312,199202	0
15.01.2021	22:06:27	0	0	4,51925	1,719	307,242	-0,016	87,118	0	1017,4	6,7	8,6	8,6	1	1	1	1	1	1	1	1	1	0	1	-11,346018	273,906931	307,8042	0
15.01.2021	22:06:28	0	0	2,71155	1,785	310,302	-0,008	87,137	0	1017,44	6,7	8,6	8,6	1	1	1	1	1	1	1	1	1	0	1	-7,188161	273,874454	311,810721	0
15.01.2021	22:06:29	0	0	4,406268	1,89825	312,1956	-0,013	87,146	0	1017,34	6,7	8,6	8,6	1	1	1	1	1	1	1	1	1	0	1	-6,272023	274,00766	313,347926	0
15.01.2021	22:06:30	0	0	4,858193	1,914	309,2184	-0,006	87,146	0	1017,56	6,7	8,6	8,6	1	1	1	1	1	1	1	1	1	0	1	-6,8358	273,886258	312,218077	0
15.01.2021	22:06:31	0	0	3,163475	1,8975	297,558	-0,006	87,138	0	1017,4	6,7	8,6	8,6	1	1	1	1	1	1	1	1	1	0	1	-7,399577	273,898068	311,709337	0
15.01.2021	22:06:32	0	0	3,728381	1,93275	300,7908	-0,008	87,15	0	1017,52	6,7	8,6	8,6	1	1	1	1	1	1	1	1	1	0	1	-11,134602	273,969084	308,305392	0
15.01.2021	22:06:33	0	0	2,259625	1,9185	299,736	-0,009	87,125	0	1017,6	6,7	8,6	8,6	1	1	1	1	1	1	1	1	1	0	1	-6,976744	274,021032	312,705598	0
15.01.2021	22:06:34	0	0	3,163475	1,8765	305,6508	-0,013	87,137	0	1017,46	6,7	8,6	8,6	1	1	1	1	1	1	1	1	1	0	1	-9,654686	273,892162	309,426704	0
15.01.2021	22:06:35	0	0	3,050494	1,86675	306,3672	-0,008	87,14	0	1017,48	6,7	8,6	8,6	1	1	1	1	1	1	1	1	1	0	1	-9,795631	273,986879	309,727365	0
15.01.2021	22:06:36	0	0	3,954344	1,806	296,8128	-0,011	87,136	0	1017,4	6,7	8,6	8,6	1	1	1	1	1	1	1	1	1	0	1	-8,033827	274,044826	311,759567	0
15.01.2021	22:06:37	0	0	3,389437	1,67175	305,7012	0,001	87,153	0	1017,56	6,7	8,6	8,6	1	1	1	1	1	1	1	1	1	0	1	-6,342495	273,903976	312,793953	0
15.01.2021	22:06:38	0	0	2,937512	1,6395	311,8176	-0,015	87,133	0	1017,4	6,7	8,6	8,6	1	1	1	1	1	1	1	1	1	0	1	-4,087385	273,892162	314,994005	0
15.01.2021	22:06:39	0	0	4,632231	1,68825	306,8316	-0,008	87,143	0	1017,34	6,7	8,6	8,6	1	1	1	1	1	1	1	1	1	0	1	-6,553911	274,050779	313,267272	0
15.01.2021	22:06:40	0	0	3,389437	1,87275	301,6008	-0,007	87,146	0	1017,54	6,7	8,6	8,6	1	1	1	1	1	1	1	1	1	0	1	-8,45666	273,939462	310,845205	0
15.01.2021	22:06:41	0	0	5,310118	1,99875	308,808	-0,014	87,142	0	1017,38	6,7	8,6	8,6	1	1	1	1	1	1	1	1	1	0	1	-7,540521	274,0359	312,211209	0
15.01.2021	22:06:42	0	0	3,954344	2,09775	304,272	-0,007	87,142	0	1017,3	6,7	8,6	8,6	1	1	1	1	1	1	1	1	1	0	1	-7,117689	273,918754	312,087638	0
15.01.2021	22:06:43	0	0	2,598569	2,1795	310,6476	-0,009	87,129	0	1017,32	6,7	8,6	8,6	1	1	1	1	1	1	1	1	1	0	1	-5,919662	273,937982	313,375303	0
15.01.2021	22:06:44	0	0	3,050494	2,271	314,0208	-0,011	87,116	0	1017,56	6,7	8,6	8,6	1	1	1	1	1	1	1	1	1	0	1	-11,346018	274,025491	308,357133	0
15.01.2021	22:06:45	0	0	2,824531	2,22975	287,082	-0,012	87,134	0	1017,42	6,7	8,6	8,6	1	1	1	1	1	1	1	1	1	0	1	-5,778717	273,995783	313,785814	0
15.01.2021	22:06:46	0	0	4,745212	2,19825	309,186	-0,006	87,15	0	1017,54	6,7	8,6	8,6	1	1	1	1	1	1	1	1	1	0	1	-5,144468	274,012117	314,496273	0
15.01.2021	22:06:47	0	0	3,954344	2,23725	296,5284	-0,009	87,146	0	1017,56	6,7	8,6	8,6	1	1	1	1	1	1	1	1	1	0	1	-8,033827	273,920233	311,178391	0
15.01.2021	22:06:48	0	0	4,51925	2,2755	303,4512	-0,012	87,152	0	1017,62	6,7	8,6	8,6	1	1	1	1	1	1	1	1	1	0	1	-8,245243	273,865607	310,712418	0
15.01.2021	22:06:49	0	0	4,858193	2,3715	305,3592	-0,012	87,143	0	1017,34	6,7	8,6	8,6	1	1	1	1	1	1	1	1	1	0	1	-7,82241	273,935023	311,458757	0
15.01.2021	22:06:50	0	0	4,067325	2,5065	301,266	-0,008	87,123	0	1017,42	6,7	8,6	8,6	1	1	1	1	1	1	1	1	1	0	1	-12,121212	273,867081	306,843318	0
15.01.2021	22:06:51	0	0	3,389437	2,65575	299,862	-0,008	87,149	0	1017,46	6,7	8,6	8,6	1	1	1	1	1	1	1	1	1	0	1	-5,285412	274,00469	314,320678	0
15.01.2021	22:06:52	0	0	4,632287	2,84625	302,3568	-0,008	87,147	0	1017,42	6,7	8,6	8,4	1	1	1	1	1	1	1	1	1	0	1	-7,117689	274,052268	312,710443	0
15.01.2021	22:06:53	0	0	3,728426	2,80725	308,43	-0,012	87,121	0	1017,5	6,7	8,6	8,4	1	1	1	1	1	1	1	1	1	0	1	-6,906272	273,960193	312,492256	0
15.01.2021	22:06:54	0	0	4,293287	2,775	296,0712	-0,005	87,149	0	1017,62	6,7	8,6	8,6	1	1	1	1	1	1	1	1	1	0	1	-4,651163	274,037387	315,10751	0
15.01.2021	22:06:55	0	0	4,971175	2,5515	300,4488	-0,012	87,141	0	1017,48	6,7	8,6	8,6	1	1	1	1	1	1	1	1	1	0	1	-7,117689	273,875929	311,888065	0
15.01.2021	22:06:56	0	0	3,6154	2,376	296,8164	-0,006	87,155	0	1017,6	6,7	8,6	8,6	1	1	1	1	1	1	1	1	1	0	1	-7,610994	273,946863	311,725379	0
15.01.2021	22:06:57	0	0	4,745212	2,20125	297,8568	-0,008	87,15	0	1017,46	6,7	8,6	8,6	1	1	1	1	1	1	1	1	1	0	1	-6,553911	274,053757	313,28117	0
15.01.2021	22:06:58	0	0	4,858193	2,03925	295,1496	-0,008	87,146	0	1017,76	6,7	8,6	8,6	1	1	1	1	1	1	1	1	1	0	1	-10,288936	273,972049	309,164886	0
15.01.2021	22:06:59	0	0	4,406268	1,965	299,034	-0,007	87,155	0	1017,46	6,7	8,6	8,6	1	1	1	1	1	1	1	1	1	0	1	-7,751938	273,895115	311,343213	0
15.01.2021	22:07:00	0	0	4,51925	1,89825	293,8176	-0,013	87,154	0	1017,58	6,7	8,6	8,6	1	1	1	1	1	1	1	1	1	0	1	-8,315715	273,881831	310,717534	0
15.01.2021	22:07:01	0	0	4,971175	1,9245	291,5028	-0,006	87,15	0	1017,48	6,7	8,6	8,6	1	1	1	1	1	1	1	1	1	0	1	-4,933051	273,930585	314,327424	0
15.01.2021	22:07:02	0	0	3,502419	1,95975	288,774	-0,013	87,142	0	1017,62	6,7	8,6	8,6	1	1	1	1	1	1	1	1	1	0	1	-3,523608	273,865607	315,434053	0
15.01.2021	22:07:03	0	0	4,51925	1,93275	285,174	-0,013	87,126	0	1017,38	6,7	8,6	8,6	1	1	1	1	1	1	1	1	1	0	1	-7,540521	273,958711	311,851098	0
15.01.2021	22:07:04	0	0	2,937548	1,8435	304,6032	-0,013	87,149	0	1017,54	6,7	8,6	8,4	1	1	1	1	1	1	1	1	1	0	1	-7,82241	273,880355	311,203964	0
15.01.2021	22:07:05	0	0	4,293287	1,755	310,968	-0,008	87,147	0	1017,54	6,7	8,6	8,6	1	1	1	1	1	1	1	1	1	0	1	-8,033827	274,031438	311,69708	0
15.01.2021	22:07:06	0	0	3,163475	1,6935	282,4128	-0,011	87,138	0	1017,26	6,7	8,6	8,6	1	1	1	1	1	1	1	1	1	0	1	-4,22833	274,038875	315,537286	0
15.01.2021	22:07:07	0	0	5,1972	1,707	290,7828	-0,008	87,15	0	1017,4	6,7	8,6	8,4	1	1	1	1	1	1	1	1	1	0	1	-6,342495	274,043338	313,443954	0
15.01.2021	22:07:08	0	0	4,971175	1,533	335,4264	-0,013	87,148	0	1017,5	6,7	8,6	8,6	1	1	1	1	1	1	1	1	1	0	1	-9,866103	273,964638	309,553155	0
15.01.2021	22:07:09	0	0	3,841362	1,4355	317,7972	-0,015	87,152	0	1017,36	6,7	8,6	8,6	1	1	1	1	1	1	1	1	1	0	1	-10,147992	274,055245	309,69404	0
15.01.2021	22:07:10	0	0	4,180306	1,39275	300,5064	-0,013	87,148	0	1017,42	6,7	8,6	8,6	1	1	1	1	1	1	1	1	1	0	1	-8,386187	273,929105	310,867392	0
15.01.2021	22:07:11	0	0	3,276456	1,4265	305,7012	-0,011	87,146	0	1017,5	6,6	8,6	8,6	1	1	1	1	1	1	1	1	1	0	1	-6,976744	274,013602	312,670928	0
15.01.2021	22:07:12	0	0	3,841362	1,4295	284,0904	-0,016	87,146	0	1017,48	6,7	8,6	8,6	1	1	1	1	1	1	1	1	1	0	1	-11,698379	274,044826	308,095015	0
15.01.2021	22:07:13	0	0	4,632231	1,5315	289,5336	-0,01	87,144	0	1017,5	6,7	8,6	8,6	1	1	1	1	1	1	1	1	1	0	1	-12,403101	273,902499	306,726462	0
15.01.2021	22:07:14	0	0	2,937512	1,57425	291,7872	-0,01	87,152	0	1017,78	6,7	8,6	8,6	1	1	1	1	1	1	1	1	1	0	1	-5,144468	274,022518	314,54481	0
15.01.2021	22:07:15	0	0	3,841362	1,55625	298,6344	-0,016	87,142	0	1017,46	6,6	8,6	8,6	1	1	1	1	1	1	1	1	1	0	1	-7,047216	274,050779	312,773966	0
15.01.2021	22:07:16	0	0	4,067374	1,46025	297,2052	-0,008	87,146	0	1017,44	6,7	8,6	8,4	1	1	1	1	1	1	1	1	1	0	1	-10,007047	274,0359	309,744683	0
15.01.2021	22:07:17	0	0	2,598569	1,30125	302,4288	-0,009	87,145	0	1017,44	6,7	8,6	8,6	1	1	1	1	1	1	1	1	1	0	1	-9,090909	273,930585	310,169566	0
15.01.2021	22:07:18	0	0	4,632231	1,1955	306,8424	-0,013	87,142	0	1017,5	6,7	8,6	8,6	1	1	1	1	1	1	1	1	1	0	1	-6,20155	273,884782	312,84545	0
15.01.2021	22:07:19	0	0	4,180306	1,10025	326,376	-0,011	87,142	0	1017,4	6,7	8,6	8,6	1	1	1	1	1	1	1	1	1	0	1	-9,302326	274,00469	310,303765	0
15.01.2021	22:07:20	0	0	3,502419	1,05975	318,8808	-0,018	87,151	0	1017,58	6,7	8,6	8,6	1	1	1	1	1	1	1	1	1	0	1	-4,792107	274,061202	315,077731	0
15.01.2021	22:07:21	0	0	3,502461	1,0545	311,76	-0,013	87,146	0	1017,52	6,7	8,6	8,4	1	1	1	1	1	1	1	1	1	0	1	-7,047216	274,055245	312,794815	0
15.01.2021	22:07:22	0	0	3,050494	1,09125	325,9332	-0,01	87,15	0	1017,58	6,7	8,6	8,6	1	1	1	1	1	1	1	1	1	0	1	-9,584214	273,969084	309,85578	0
15.01.2021	22:07:23	0	0	4,067325	1,0995	318,3948	-0,01	87,213	0	1017,58	6,7	8,6	8,6	1	1	1	1	1	1	1	1	1	0	1	-6,8358	274,031438	312,895107	0
15.01.2021	22:07:24	0	0	4,51925	1,122	308,7864	-0,014	87,132	0	1017,36	6,7	8,6	8,6	1	1	1	1	1	1	1	1	1	0	1	-8,245243	274,022518	311,444035	0
15.01.2021	22:07:25	0	0	4,745212	1,13625	311,3208	-0,009	87,118	0	1017,48	6,7	8,6	8,6	1	1	1	1	1	1	1	1	1	0	1	-11,698379	274,01806	307,970093	0
15.01.2021	22:07:26	0	0	5,084217	1,2255	303,5376	-0,012	87,121	0	1017,44	6,7	8,6	8,4	1	1	1	1	1	1	1	1	1	0	1	-9,302326	274,019546	310,373081	0
15.01.2021	22:07:27	0	0	4,180306	1,30725	308,8404	-0,016	87,137	0	1017,42	6,7	8,6	8,6	1	1	1	1	1	1	1	1	1	0	1	-11,839323	273,921711	307,379786	0
15.01.2021	22:07:28	0	0	3,728381	1,344	295,5096	-0,007	87,136	0	1017,46	6,7	8,6	8,6	1	1	1	1	1	1	1	1	1	0	1	-6,20155	273,862658	312,742376	0
15.01.2021	22:07:29	0	0	4,180306	1,33875	295,56	-0,014	87,13	0	1017,38	6,7	8,6	8,6	1	1	1	1	1	1	1	1	1	0	1	-8,315715	273,930585	310,94476	0
15.01.2021	22:07:30	0	0	2,937512	1,37775	290,4336	-0,011	87,146	0	1017,22	6,7	8,6	8,6	1	1	1	1	1	1	1	1	1	0	1	-5,990134	273,892162	313,091256	0
15.01.2021	22:07:31	0	0	4,745212	1,4805	309,2256	-0,008	87,149	0	1017,5	6,7	8,6	8,6	1	1	1	1	1	1	1	1	1	0	1	-4,862579	273,871505	314,12256	0
15.01.2021	22:07:32	0	0	3,954344	1,55625	326,7072	-0,014	87,147	0	1017,46	6,7	8,6	8,6	1	1	1	1	1	1	1	1	1	0	1	-8,033827	273,88921	311,033806	0
15.01.2021	22:07:33	0	0	3,05053	1,587	313,218	-0,011	87,122	0	1017,5	6,7	8,6	8,4	1	1	1	1	1	1	1	1	1	0	1	-10,218464	274,001721	309,373771	0
15.01.2021	22:07:34	0	0	3,954344	1,5885	297,9288	-0,01	87,129	0	1017,48	6,7	8,6	8,6	1	1	1	1	1	1	1	1	1	0	1	-8,386187	273,87003	310,592081	0
15.01.2021	22:07:35	0	0	3,615443	1,52475	298,7064	-0,01	87,153	0	1017,44	6,7	8,6	8,4	1	1	1	1	1	1	1	1	1	0	1	-11,557435	273,96612	307,868735	0
15.01.2021	22:07:36	0	0	3,728381	1,3935	300,186	-0,013	87,137	0	1017,48	6,7	8,6	8,6	1	1	1	1	1	1	1	1	1	0	1	-10,288936	274,025491	309,414216	0
15.01.2021	22:07:37	0	0	4,067325	1,27125	316,0116	-0,014	87,138	0	1017,48	6,7	8,6	8,6	1	1	1	1	1	1	1	1	1	0	1	-8,386187	273,918754	310,819139	0
15.01.2021	22:07:38	0	0	3,6154	1,164	318,4704	-0,017	87,138	0	1017,5	6,7	8,6	8,6	1	1	1	1	1	1	1	1	1	0	1	-6,412967	273,880355	312,613407	0
15.01.2021	22:07:39	0	0	4,632231	1,068	310,644	-0,006	87,148	0	1017,6	6,7	8,6	8,6	1	1	1	1	1	1	1	1	1	0	1	-10,852713	274,016574	308,808825	0
15.01.2021	22:07:40	0	0	2,937512	1,04475	315,882	-0,014	87,148	0	1017,28	6,7	8,6	8,6	1	1	1	1	1	1	1	1	1	0	1	-8,033827	273,980945	311,461492	0
15.01.2021	22:07:41	0	0	4,51925	1,107	316,3176	-0,01	87,142	0	1017,5	6,7	8,6	8,6	1	1	1	1	1	1	1	1	1	0	1	-8,245243	274,046314	311,555097	0
15.01.2021	22:07:42	0	0	4,180306	1,158	309,2364	-0,013	87,131	0	1017,4	6,7	8,6	8,6	1	1	1	1	1	1	1	1	1	0	1	-7,117689	274,050779	312,703494	0
15.01.2021	22:07:43	0	0	2,824531	1,19475	290,772	-0,01	87,141	0	1017,58	6,7	8,6	8,6	1	1	1	1	1	1	1	1	1	0	1	-6,131078	273,939462	313,170786	0
15.01.2021	22:07:44	0	0	2,824531	1,1895	288,4248	-0,011	87,123	0	1017,6	6,7	8,6	8,6	1	1	1	1	1	1	1	1	1	0	1	-3,030303	273,865607	315,927358	0
15.01.2021	22:07:45	0	0	3,841408	1,19325	304,6644	-0,019	87,127	0	1017,38	6,7	8,6	8,4	1	1	1	1	1	1	1	1	1	0	1	-7,047216	273,963156	312,365131	0
15.01.2021	22:07:46	0	0	3,389437	1,15275	305,7444	-0,012	87,12	0	1017,34	6,7	8,6	8,6	1	1	1	1	1	1	1	1	1	0	1	-5,637773	274,056734	314,211209	0
15.01.2021	22:07:47	0	0	4,858193	1,152	294,8832	-0,011	87,131	0	1017,5	6,7	8,6	8,6	1	1	1	1	1	1	1	1	1	0	1	-4,087385	273,921711	315,131724	0
15.01.2021	22:07:48	0	0	3,841362	1,10625	303,1812	-0,01	87,133	0	1017,48	6,7	8,6	8,6	1	1	1	1	1	1	1	1	1	0	1	-9,302326	274,04185	310,477178	0
15.01.2021	22:07:49	0	0	4,51925	1,071	297,612	-0,01	87,141	0	1017,48	6,7	8,6	8,6	1	1	1	1	1	1	1	1	1	0	1	-8,174771	274,009146	311,452108	0
15.01.2021	22:07:50	0	0	4,745212	1,14225	286,3296	-0,008	87,14	0	1017,58	6,7	8,6	8,6	1	1	1	1	1	1	1	1	1	0	1	-7,681466	273,995783	311,883066	0
15.01.2021	22:07:51	0	0	3,389437	1,236	300,5352	-0,011	87,141	0	1017,42	6,7	8,6	8,6	1	1	1	1	1	1	1	1	1	0	1	-6,624383	274,052268	313,203748	0
15.01.2021	22:07:52	0	0	4,745212	1,269	299,4336	-0,011	87,132	0	1017,48	6,7	8,6	8,6	1	1	1	1	1	1	1	1	1	0	1	-7,82241	273,989846	311,714428	0
15.01.2021	22:07:53	0	0	2,259625	1,239	290,7792	-0,014	87,139	0	1017,56	6,7	8,6	8,6	1	1	1	1	1	1	1	1	1	0	1	-4,933051	273,877405	314,079575	0
15.01.2021	22:07:54	0	0	3,728381	1,25175	288,0684	-0,011	87,128	0	1017,44	6,7	8,6	8,6	1	1	1	1	1	1	1	1	1	0	1	-5,990134	273,918754	313,215192	0
15.01.2021	22:07:55	0	0	3,954344	1,2645	284,8644	-0,014	87,117	0	1017,44	6,7	8,6	8,6	1	1	1	1	1	1	1	1	1	0	1	-9,44327	273,908408	309,713834	0
15.01.2021	22:07:56	0	0	3,389478	1,35225	290,0556	-0,02	87,136	0	1017,3	6,7	8,6	8,4	1	1	1	1	1	1	1	1	1	0	1	-8,527132	273,901022	310,595548	0
15.01.2021	22:07:57	0	0	2,372606	1,35825	287,3232	-0,011	87,134	0	1017,4	6,7	8,6	8,6	1	1	1	1	1	1	1	1	1	0	1	-8,386187	273,906931	310,764031	0
15.01.2021	22:07:58	0	0	2,937512	1,3875	288,4068	-0,011	87,131	0	1017,4	6,7	8,6	8,6	1	1	1	1	1	1	1	1	1	0	1	-6,483439	273,890686	312,591072	0
15.01.2021	22:07:59	0	0	3,954344	1,3635	286,9452	-0,012	87,143	0	1017,56	6,7	8,6	8,6	1	1	1	1	1	1	1	1	1	0	1	-10,570825	273,926147	308,668965	0
15.01.2021	22:08:00	0	0	4,519304	1,395	297,8244	-0,013	87,135	0	1017,46	6,7	8,6	8,4	1	1	1	1	1	1	1	1	1	0	1	-5,567301	273,871505	313,417838	0
15.01.2021	22:08:01	0	0	5,310118	1,49175	301,2084	-0,014	87,134	0	1017,42	6,7	8,6	8,6	1	1	1	1	1	1	1	1	1	0	1	-7,751938	273,969084	311,688056	0
15.01.2021	22:08:02	0	0	3,05053	1,54725	310,9932	-0,011	87,121	0	1017,5	6,7	8,6	8,4	1	1	1	1	1	1	1	1	1	0	1	-9,44327	274,028464	310,273758	0
15.01.2021	22:08:03	0	0	2,824531	1,58775	308,8944	-0,017	87,135	0	1017,32	6,7	8,6	8,6	1	1	1	1	1	1	1	1	1	0	1	-10,288936	273,905453	308,854397	0
15.01.2021	22:08:04	0	0	3,389437	1,55625	314,82	-0,014	87,134	0	1017,48	6,7	8,6	8,6	1	1	1	1	1	1	1	1	1	0	1	-9,302326	273,881831	309,730923	0
15.01.2021	22:08:05	0	0	4,067325	1,4955	302,3568	-0,019	87,135	0	1017,4	6,7	8,6	8,6	1	1	1	1	1	1	1	1	1	0	1	-8,80902	273,985395	310,707055	0
15.01.2021	22:08:06	0	0	3,276495	1,512	299,4372	-0,013	87,14	0	1017,56	6,7	8,6	8,4	1	1	1	1	1	1	1	1	1	0	1	-4,439746	274,046314	315,360594	0
15.01.2021	22:08:07	0	0	2,71155	1,50075	298,9872	-0,016	87,137	0	1017,54	6,7	8,6	8,6	1	1	1	1	1	1	1	1	1	0	1	-9,795631	274,01806	309,872842	0
15.01.2021	22:08:08	0	0	3,276456	1,48125	295,1604	-0,013	87,14	0	1017,62	6,7	8,6	8,6	1	1	1	1	1	1	1	1	1	0	1	-7,610994	273,91432	311,573662	0
15.01.2021	22:08:09	0	0	4,632287	1,43925	300,294	-0,014	87,146	0	1017,56	6,7	8,6	8,4	1	1	1	1	1	1	1	1	1	0	1	-7,892882	273,867081	311,071648	0
15.01.2021	22:08:10	0	0	3,05053	1,34025	299,7396	-0,011	87,146	0	1017,38	6,7	8,6	8,4	1	1	1	1	1	1	1	1	1	0	1	-3,664553	273,898068	315,444361	0
15.01.2021	22:08:11	0	0	3,728381	1,22475	301,212	-0,011	87,141	0	1017,58	6,7	8,6	8,6	1	1	1	1	1	1	1	1	1	0	1	-8,45666	273,875929	310,549094	0
15.01.2021	22:08:12	0	0	2,824531	1,2315	308,0052	-0,018	87,146	0	1017,5	6,7	8,6	8,6	1	1	1	1	1	1	1	1	1	0	1	-6,976744	273,903976	312,159703	0
15.01.2021	22:08:13	0	0	4,745212	1,25025	299,1744	-0,011	87,146	0	1017,52	6,7	8,6	8,6	1	1	1	1	1	1	1	1	1	0	1	-8,738548	273,92319	310,487454	0
15.01.2021	22:08:14	0	0	4,745212	1,32	289,5768	-0,014	87,148	0	1017,46	6,7	8,6	8,6	1	1	1	1	1	1	1	1	1	0	1	-5,990134	273,998751	313,588248	0
15.01.2021	22:08:15	0	0	2,824531	1,3845	300,1608	-0,016	87,139	0	1017,4	6,7	8,6	8,6	1	1	1	1	1	1	1	1	1	0	1	-7,963354	274,006175	311,649665	0
15.01.2021	22:08:16	0	0	2,71155	1,45425	295,5708	-0,018	87,146	0	1017,4	6,7	8,6	8,6	1	1	1	1	1	1	1	1	1	0	1	-10,077519	273,871505	308,907619	0
15.01.2021	22:08:17	0	0	3,954344	1,54575	296,1	-0,017	87,136	0	1017,24	6,7	8,6	8,6	1	1	1	1	1	1	1	1	1	0	1	-6,976744	273,912842	312,201023	0
15.01.2021	22:08:18	0	0	3,6154	1,56675	300,4884	-0,01	87,146	0	1017,52	6,7	8,6	8,6	1	1	1	1	1	1	1	1	1	0	1	-4,087385	273,989846	315,449453	0
15.01.2021	22:08:19	0	0	4,406321	1,671	291,1824	-0,013	87,147	0	1017,5	6,7	8,6	8,4	1	1	1	1	1	1	1	1	1	0	1	-11,909796	274,0359	307,841934	0
15.01.2021	22:08:20	0	0	4,858193	1,67925	291,168	-0,016	87,148	0	1017,46	6,7	8,6	8,6	1	1	1	1	1	1	1	1	1	0	1	-8,104299	274,012117	311,536442	0
15.01.2021	22:08:21	0	0	4,180306	1,68525	302,85	-0,017	87,131	0	1017,6	6,7	8,6	8,6	1	1	1	1	1	1	1	1	1	0	1	-8,879493	273,903976	310,256955	0
15.01.2021	22:08:22	0	0	4,067325	1,782	316,9836	-0,012	87,157	0	1017,38	6,7	8,6	8,6	1	1	1	1	1	1	1	1	1	0	1	-6,976744	273,862658	311,967182	0
15.01.2021	22:08:23	0	0	3,615443	1,794	305,316	-0,018	87,143	0	1017,24	6,7	8,6	8,4	1	1	1	1	1	1	1	1	1	0	1	-10,711769	273,937982	308,583196	0
15.01.2021	22:08:24	0	0	2,71155	1,90875	314,1684	-0,019	87,154	0	1017,5	6,7	8,6	8,6	1	1	1	1	1	1	1	1	1	0	1	-9,161381	273,864132	309,789412	0
15.01.2021	22:08:25	0	0	3,163475	1,947	309,3084	-0,017	87,142	0	1017,7	6,7	8,6	8,6	1	1	1	1	1	1	1	1	1	0	1	-6,412967	273,989846	313,123872	0
15.01.2021	22:08:26	0	0	3,841362	1,965	311,7348	-0,018	87,145	0	1017,54	6,7	8,6	8,6	1	1	1	1	1	1	1	1	1	0	1	-11,557435	273,980945	307,937884	0
15.01.2021	22:08:27	0	0	2,598569	1,9155	301,2516	-0,018	87,149	0	1017,52	6,7	8,6	8,6	1	1	1	1	1	1	1	1	1	0	1	-6,8358	273,861184	312,10126	0
15.01.2021	22:08:28	0	0	4,293287	1,938	303,1776	-0,018	87,147	0	1017,56	6,7	8,6	8,6	1	1	1	1	1	1	1	1	1	0	1	-10,147992	273,946863	309,188381	0
15.01.2021	22:08:29	0	0	4,519304	1,97325	306,4176	-0,017	87,157	0	1017,54	6,7	8,6	8,4	1	1	1	1	1	1	1	1	1	0	1	-10,782241	274,061202	309,087597	0
15.01.2021	22:08:30	0	0	4,51925	1,99875	302,0184	-0,017	87,149	0	1017,44	6,7	8,6	8,6	1	1	1	1	1	1	1	1	1	0	1	-10,147992	273,986879	309,375004	0
15.01.2021	22:08:31	0	0	2,71155	2,052	309,5352	-0,011	87,157	0	1017,5	6,7	8,6	8,6	1	1	1	1	1	1	1	1	1	0	1	-8,80902	273,892162	310,27237	0
15.01.2021	22:08:32	0	0	3,276456	2,13675	304,6356	-0,011	87,15	0	1017,48	6,7	8,6	8,6	1	1	1	1	1	1	1	1	1	0	1	-4,721635	273,856763	314,194829	0
15.01.2021	22:08:33	0	0	3,728381	2,307	298,2384	-0,017	87,14	0	1017,62	6,7	8,6	8,6	1	1	1	1	1	1	1	1	1	0	1	-9,020437	273,95723	310,364274	0
15.01.2021	22:08:34	0	0	2,937512	2,3565	303,4872	-0,014	87,152	0	1017,56	6,7	8,6	8,6	1	1	1	1	1	1	1	1	1	0	1	-6,976744	273,87003	312,001524	0
15.01.2021	22:08:35	0	0	3,05053	2,3235	302,7888	-0,011	87,158	0	1017,52	6,7	8,6	8,4	1	1	1	1	1	1	1	1	1	0	1	-9,584214	273,997267	309,987242	0
15.01.2021	22:08:36	0	0	4,858252	2,31975	302,04	-0,011	87,152	0	1017,44	6,7	8,6	8,4	1	1	1	1	1	1	1	1	1	0	1	-8,033827	273,868555	310,937572	0
15.01.2021	22:08:37	0	0	2,824531	2,268	305,3808	-0,02	87,145	0	1017,56	6,7	8,6	8,6	1	1	1	1	1	1	1	1	1	0	1	-8,45666	273,908408	310,700445	0
15.01.2021	22:08:38	0	0	3,615443	2,2155	300,4632	-0,013	87,14	0	1017,32	6,7	8,6	8,4	1	1	1	1	1	1	1	1	1	0	1	-7,047216	274,031438	312,68369	0
15.01.2021	22:08:39	0	0	4,632231	2,21775	312,4944	-0,014	87,134	0	1017,42	6,7	8,6	8,6	1	1	1	1	1	1	1	1	1	0	1	-10,288936	273,969084	309,151058	0
15.01.2021	22:08:40	0	0	4,858193	2,1285	306,1872	-0,016	87,154	0	1017,62	6,7	8,6	8,6	1	1	1	1	1	1	1	1	1	0	1	-8,949965	273,858237	309,973364	0
15.01.2021	22:08:41	0	0	4,632231	2,11875	308,898	-0,016	87,128	0	1017,46	6,7	8,6	8,6	1	1	1	1	1	1	1	1	1	0	1	-5,355884	273,958711	314,035735	0
15.01.2021	22:08:42	0	0	2,5986	2,14725	308,4444	-0,012	87,153	0	1017,62	6,7	8,6	8,4	1	1	1	1	1	1	1	1	1	0	1	-6,906272	273,858237	312,017057	0
15.01.2021	22:08:43	0	0	3,6154	2,196	313,1604	-0,016	87,144	0	1017,64	6,7	8,6	8,6	1	1	1	1	1	1	1	1	1	0	1	-2,043693	273,908408	317,113412	0
15.01.2021	22:08:44	0	0	2,937512	2,29875	303,8724	-0,013	87,144	0	1017,54	6,6	8,6	8,6	1	1	1	1	1	1	1	1	1	0	1	-6,8358	273,880355	312,190574	0
15.01.2021	22:08:45	0	0	3,841362	2,346	306,4212	-0,013	87,145	0	1017,52	6,7	8,6	8,6	1	1	1	1	1	1	1	1	1	0	1	-9,584214	273,902499	309,545349	0
15.01.2021	22:08:46	0	0	4,51925	2,21475	305,6688	-0,018	87,133	0	1017,48	6,7	8,6	8,6	1	1	1	1	1	1	1	1	1	0	1	-10,923185	273,992814	308,627498	0
15.01.2021	22:08:47	0	0	3,276495	2,15175	304,65	-0,012	87,162	0	1017,46	6,7	8,6	8,4	1	1	1	1	1	1	1	1	1	0	1	-4,792107	273,893638	314,296163	0
15.01.2021	22:08:48	0	0	3,954344	2,13	313,596	-0,017	87,156	0	1017,44	6,7	8,6	8,6	1	1	1	1	1	1	1	1	1	0	1	-7,258633	273,983912	312,250523	0
15.01.2021	22:08:49	0	0	3,841362	2,12175	311,7312	-0,017	87,134	0	1017,5	6,7	8,6	8,6	1	1	1	1	1	1	1	1	1	0	1	-13,03735	274,038875	306,728265	0
15.01.2021	22:08:50	0	0	4,293339	2,15175	314,8812	-0,02	87,144	0	1017,46	6,7	8,6	8,4	1	1	1	1	1	1	1	1	1	0	1	-6,483439	274,012117	313,157302	0
15.01.2021	22:08:51	0	0	4,51925	2,11575	320,4828	-0,02	87,148	0	1017,5	6,7	8,6	8,6	1	1	1	1	1	1	1	1	1	0	1	-6,553911	273,872979	312,438099	0
15.01.2021	22:08:52	0	0	3,841408	2,1	314,838	-0,022	87,146	0	1017,52	6,7	8,6	8,4	1	1	1	1	1	1	1	1	1	0	1	-10,359408	273,929105	308,894172	0
15.01.2021	22:08:53	0	0	2,824565	2,14125	311,3784	-0,015	87,161	0	1017,56	6,7	8,6	8,4	1	1	1	1	1	1	1	1	1	0	1	-7,540521	273,855289	311,369079	0
15.01.2021	22:08:54	0	0	3,050494	2,14725	313,2216	-0,017	87,158	0	1017,32	6,6	8,6	8,6	1	1	1	1	1	1	1	1	1	0	1	-8,597604	274,013602	311,050069	0
15.01.2021	22:08:55	0	0	3,05053	2,121	310,7016	-0,016	87,144	0	1017,34	6,7	8,6	8,4	1	1	1	1	1	1	1	1	1	0	1	-12,684989	274,012117	306,955751	0
15.01.2021	22:08:56	0	0	4,858252	2,03025	325,5156	-0,015	87,157	0	1017,64	6,7	8,6	8,4	1	1	1	1	1	1	1	1	1	0	1	-6,8358	274,038875	312,929815	0
15.01.2021	22:08:57	0	0	3,050494	2,00325	312,2244	-0,017	87,169	0	1017,68	6,6	8,6	8,6	1	1	1	1	1	1	1	1	1	0	1	-4,580691	273,921711	314,638419	0
15.01.2021	22:08:58	0	0	4,067374	2,034	321,8076	-0,017	87,159	0	1017,54	6,7	8,6	8,4	1	1	1	1	1	1	1	1	1	0	1	-10,077519	273,875929	308,928234	0
15.01.2021	22:08:59	0	0	4,858193	2,06775	306,882	-0,011	87,159	0	1017,4	6,7	8,6	8,6	1	1	1	1	1	1	1	1	1	0	1	-6,412967	273,935023	312,8682	0
15.01.2021	22:09:00	0	0	4,632287	1,96575	315,4788	-0,018	87,15	0	1017,4	6,7	8,6	8,4	1	1	1	1	1	1	1	1	1	0	1	-8,45666	274,049291	311,357575	0
15.01.2021	22:09:01	0	0	4,632287	1,96575	315,4788	-0,018	87,15	0	1017,4	6,7	8,6	8,4	1	1	1	1	1	1	1	1	1	0	1	-6,8358	273,945383	312,49367	0
15.01.2021	22:09:02	0	0	3,6154	1,923	310,3452	-0,019	87,173	0	1017,48	6,7	8,6	8,6	1	1	1	1	1	1	1	1	1	0	1	-7,047216	273,864132	311,903577	0
15.01.2021	22:09:03	0	0	3,728381	1,9065	322,2684	-0,023	87,162	0	1017,6	6,7	8,6	8,6	1	1	1	1	1	1	1	1	1	0	1	-6,131078	273,902499	312,998485	0
15.01.2021	22:09:04	0	0	2,485587	1,8495	318,3228	-0,015	87,164	0	1017,42	6,7	8,6	8,6	1	1	1	1	1	1	1	1	1	0	1	-11,557435	274,043338	308,229013	0
15.01.2021	22:09:05	0	0	3,502419	1,755	325,9116	-0,012	87,173	0	1017,64	6,7	8,6	8,6	1	1	1	1	1	1	1	1	1	0	1	-6,553911	273,988363	312,976006	0
15.01.2021	22:09:06	0	0	4,519304	1,7475	320,31	-0,014	87,178	0	1017,42	6,7	8,6	8,4	1	1	1	1	1	1	1	1	1	0	1	-8,597604	273,87003	310,380665	0
15.01.2021	22:09:07	0	0	5,084156	1,7955	313,1748	-0,015	87,17	0	1017,26	6,7	8,6	8,6	1	1	1	1	1	1	1	1	1	0	1	-9,725159	273,909886	309,438833	0
15.01.2021	22:09:08	0	0	4,067325	1,72725	303,9192	-0,012	87,176	0	1017,38	6,7	8,6	8,6	1	1	1	1	1	1	1	1	1	0	1	-6,694856	274,043338	313,091593	0
15.01.2021	22:09:09	0	0	5,536081	1,716	310,2552	-0,015	87,18	0	1017,58	6,6	8,6	8,6	1	1	1	1	1	1	1	1	1	0	1	-10,852713	274,012117	308,788027	0
15.01.2021	22:09:10	0	0	3,728381	1,653	310,3092	-0,011	87,178	0	1017,5	6,7	8,6	8,6	1	1	1	1	1	1	1	1	1	0	1	-9,231853	273,880355	309,794521	0
15.01.2021	22:09:11	0	0	3,728381	1,6125	310,9716	-0,015	87,173	0	1017,4	6,6	8,6	8,6	1	1	1	1	1	1	1	1	1	0	1	-3,523608	273,890686	315,550903	0
15.01.2021	22:09:12	0	0	2,824531	1,59375	293,7096	-0,014	87,175	0	1017,44	6,6	8,6	8,6	1	1	1	1	1	1	1	1	1	0	1	-6,8358	273,989846	312,701039	0
15.01.2021	22:09:13	0	0	5,084217	1,6185	303,4296	-0,019	87,178	0	1017,48	6,7	8,6	8,4	1	1	1	1	1	1	1	1	1	0	1	-4,933051	273,862658	314,010875	0
15.01.2021	22:09:14	0	0	3,276495	1,59075	297,288	-0,018	87,179	0	1017,48	6,7	8,6	8,4	1	1	1	1	1	1	1	1	1	0	1	-6,624383	273,946863	312,711989	0
15.01.2021	22:09:15	0	0	2,372606	1,54425	302,0976	-0,015	87,197	0	1017,52	6,7	8,6	8,6	1	1	1	1	1	1	1	1	1	0	1	-12,05074	274,046314	307,7496	0
15.01.2021	22:09:16	0	0	4,293339	1,4835	308,0844	-0,011	87,193	0	1017,36	6,7	8,6	8,4	1	1	1	1	1	1	1	1	1	0	1	-5,778717	274,034413	313,966071	0
15.01.2021	22:09:17	0	0	2,485587	1,48425	305,334	-0,014	87,179	0	1017,52	6,7	8,6	8,6	1	1	1	1	1	1	1	1	1	0	1	-6,8358	274,016574	312,825739	0
15.01.2021	22:09:18	0	0	4,51925	1,48425	298,6848	-0,015	87,189	0	1017,5	6,7	8,6	8,6	1	1	1	1	1	1	1	1	1	0	1	-8,033827	273,867081	310,930703	0
15.01.2021	22:09:19	0	0	4,519304	1,521	306,8352	-0,011	87,184	0	1017,4	6,6	8,6	8,4	1	1	1	1	1	1	1	1	1	0	1	-6,906272	273,946863	312,430101	0
15.01.2021	22:09:20	0	0	4,406268	1,52475	317,8296	-0,023	87,186	0	1017,44	6,7	8,6	8,6	1	1	1	1	1	1	1	1	1	0	1	-7,470049	274,056734	312,378933	0
15.01.2021	22:09:21	0	0	4,067325	1,5735	303,9444	-0,02	87,193	0	1017,44	6,7	8,6	8,6	1	1	1	1	1	1	1	1	1	0	1	-7,258633	273,961674	312,146805	0
15.01.2021	22:09:22	0	0	4,406268	1,53675	306,1656	0,006	87,195	0	1017,34	6,6	8,6	8,6	1	1	1	1	1	1	1	1	1	0	1	-9,936575	274,034413	309,808213	0
15.01.2021	22:09:23	0	0	3,728381	1,45875	298,2384	-0,014	87,193	0	1017,5	6,7	8,6	8,6	1	1	1	1	1	1	1	1	1	0	1	-6,765328	273,896591	312,336704	0
15.01.2021	22:09:24	0	0	4,067374	1,425	284,4	-0,014	87,199	0	1017,58	6,7	8,6	8,4	1	1	1	1	1	1	1	1	1	0	1	-10,218464	274,038875	309,547152	0
15.01.2021	22:09:25	0	0	3,954391	1,482	295,1748	-0,012	87,199	0	1017,54	6,7	8,6	8,4	1	1	1	1	1	1	1	1	1	0	1	-6,412967	273,881831	312,620282	0
15.01.2021	22:09:26	0	0	3,050494	1,5285	296,478	-0,014	87,186	0	1017,56	6,7	8,6	8,6	1	1	1	1	1	1	1	1	1	0	1	-9,372798	273,970566	310,07411	0
15.01.2021	22:09:27	0	0	3,841408	1,55775	300,8736	-0,013	87,208	0	1017,48	6,7	8,6	8,4	1	1	1	1	1	1	1	1	1	0	1	-6,553911	273,872979	312,438099	0
15.01.2021	22:09:28	0	0	3,728381	1,65825	296,4096	-0,011	87,199	0	1017,36	6,7	8,6	8,6	1	1	1	1	1	1	1	1	1	0	1	-8,174771	274,031438	311,556136	0
15.01.2021	22:09:29	0	0	4,067374	1,7625	290,8332	-0,012	87,199	0	1017,68	6,7	8,6	8,4	1	1	1	1	1	1	1	1	1	0	1	-9,513742	273,989846	310,023096	0
15.01.2021	22:09:30	0	0	2,824565	1,8495	300,816	-0,014	87,203	0	1017,54	6,7	8,6	8,4	1	1	1	1	1	1	1	1	1	0	1	-11,134602	273,874454	307,86428	0
15.01.2021	22:09:31	0	0	3,050494	1,7985	291,5172	-0,015	87,206	0	1017,46	6,7	8,6	8,6	1	1	1	1	1	1	1	1	1	0	1	-7,610994	273,899545	311,504803	0
15.01.2021	22:09:32	0	0	4,293287	1,6965	288,3888	-0,02	87,192	0	1017,5	6,7	8,6	8,6	1	1	1	1	1	1	1	1	1	0	1	-7,329105	274,01806	312,339367	0
15.01.2021	22:09:33	0	0	3,163475	1,63125	297,5796	-0,019	87,198	0	1017,32	6,7	8,6	8,6	1	1	1	1	1	1	1	1	1	0	1	-9,513742	273,899545	309,602054	0
15.01.2021	22:09:34	0	0	2,5986	1,65375	290,3976	-0,015	87,174	0	1017,4	6,7	8,6	8,4	1	1	1	1	1	1	1	1	1	0	1	-12,755462	273,881831	306,277787	0
15.01.2021	22:09:35	0	0	5,084217	1,60125	284,8392	-0,015	87,201	0	1017,38	6,7	8,6	8,4	1	1	1	1	1	1	1	1	1	0	1	-8,949965	274,029951	310,774002	0
15.01.2021	22:09:36	0	0	4,632231	1,659	291,294	-0,019	87,19	0	1017,62	6,7	8,6	8,6	1	1	1	1	1	1	1	1	1	0	1	-5,990134	273,912842	313,187633	0
15.01.2021	22:09:37	0	0	4,632231	1,80675	292,9896	-0,017	87,2	0	1017,46	6,7	8,6	8,6	1	1	1	1	1	1	1	1	1	0	1	-2,60747	274,034413	317,137318	0
15.01.2021	22:09:38	0	0	2,937512	1,839	305,7804	-0,018	87,2	0	1017,52	6,7	8,6	8,6	1	1	1	1	1	1	1	1	1	0	1	-5,708245	273,976497	313,766322	0
15.01.2021	22:09:39	0	0	4,519304	1,806	293,346	-0,014	87,201	0	1017,54	6,7	8,6	8,4	1	1	1	1	1	1	1	1	1	0	1	-7,681466	273,872979	311,310544	0
15.01.2021	22:09:40	0	0	4,51925	1,8435	294,4152	-0,016	87,192	0	1017,46	6,7	8,6	8,6	1	1	1	1	1	1	1	1	1	0	1	-5,778717	273,973531	313,682019	0
15.01.2021	22:09:41	0	0	2,71155	1,93875	300,1176	-0,017	87,203	0	1017,46	6,7	8,6	8,6	1	1	1	1	1	1	1	1	1	0	1	-7,188161	273,877405	311,824466	0
15.01.2021	22:09:42	0	0	4,293287	2,154	295,146	-0,02	87,198	0	1017,52	6,7	8,6	8,6	1	1	1	1	1	1	1	1	1	0	1	-7,117689	273,874454	311,881193	0
15.01.2021	22:09:43	0	0	2,485587	2,27325	297,5076	-0,019	87,209	0	1017,58	6,7	8,6	8,6	1	1	1	1	1	1	1	1	1	0	1	-5,496829	273,980945	313,99849	0
15.01.2021	22:09:44	0	0	2,824531	2,1675	301,248	-0,016	87,204	0	1017,6	6,7	8,6	8,6	1	1	1	1	1	1	1	1	1	0	1	-8,527132	273,867081	310,437398	0
15.01.2021	22:09:45	0	0	3,6154	2,1	301,5468	-0,013	87,207	0	1017,48	6,7	8,6	8,6	1	1	1	1	1	1	1	1	1	0	1	-9,302326	273,983912	310,20683	0
15.01.2021	22:09:46	0	0	3,954344	2,0595	287,7156	-0,018	87,201	0	1017,42	6,7	8,6	8,6	1	1	1	1	1	1	1	1	1	0	1	-4,087385	274,047803	315,719902	0
15.01.2021	22:09:47	0	0	3,502419	2,01975	300,564	-0,018	87,214	0	1017,54	6,7	8,6	8,6	1	1	1	1	1	1	1	1	1	0	1	-7,047216	273,946863	312,289156	0
15.01.2021	22:09:48	0	0	2,485587	2,0085	299,8332	-0,018	87,194	0	1017,54	6,7	8,6	8,6	1	1	1	1	1	1	1	1	1	0	1	-7,963354	273,88921	311,104278	0
15.01.2021	22:09:49	0	0	2,598569	1,9275	300,1356	-0,023	87,206	0	1017,54	6,7	8,6	8,6	1	1	1	1	1	1	1	1	1	0	1	-6,976744	273,903976	312,159703	0
15.01.2021	22:09:50	0	0	4,632287	1,9335	298,98	-0,015	87,207	0	1017,44	6,7	8,6	8,4	1	1	1	1	1	1	1	1	1	0	1	-7,540521	273,883306	311,499603	0
15.01.2021	22:09:51	0	0	2,824531	1,97025	302,7528	-0,01	87,215	0	1017,46	6,7	8,6	8,6	1	1	1	1	1	1	1	1	1	0	1	-4,510218	273,896591	314,591813	0
15.01.2021	22:09:52	0	0	4,293287	1,99875	306,4968	-0,014	87,207	0	1017,54	6,7	8,6	8,6	1	1	1	1	1	1	1	1	1	0	1	-9,020437	274,049291	310,793798	0
15.01.2021	22:09:53	0	0	4,745269	1,95825	298,0008	-0,013	87,215	0	1017,46	6,7	8,6	8,4	1	1	1	1	1	1	1	1	1	0	1	-9,302326	273,927626	309,944359	0
15.01.2021	22:09:54	0	0	2,146644	1,95975	297,5472	-0,013	87,209	0	1017,48	6,7	8,6	8,6	1	1	1	1	1	1	1	1	1	0	1	-10,147992	273,903976	308,988456	0
15.01.2021	22:09:55	0	0	3,728381	1,99725	292,6008	-0,013	87,208	0	1017,56	6,6	8,6	8,6	1	1	1	1	1	1	1	1	1	0	1	-3,664553	273,942422	315,651113	0
15.01.2021	22:09:56	0	0	4,067325	2,0955	293,3964	-0,013	87,216	0	1017,68	6,7	8,6	8,6	1	1	1	1	1	1	1	1	1	0	1	-6,976744	274,059713	312,886141	0
15.01.2021	22:09:57	0	0	2,598569	2,259	293,3424	-0,023	87,212	0	1017,38	6,7	8,6	8,6	1	1	1	1	1	1	1	1	1	0	1	-7,892882	273,936503	311,395183	0
15.01.2021	22:09:58	0	0	4,971175	2,35725	305,442	-0,018	87,204	0	1017,52	6,7	8,6	8,6	1	1	1	1	1	1	1	1	1	0	1	-7,892882	273,865607	311,064779	0
15.01.2021	22:09:59	0	0	2,71155	2,37075	308,0844	-0,014	87,211	0	1017,5	6,7	8,6	8,6	1	1	1	1	1	1	1	1	1	0	1	-7,470049	274,052268	312,358082	0
15.01.2021	22:10:00	0	0	4,406268	2,496	307,4904	-0,019	87,213	0	1017,6	6,7	8,6	8,6	1	1	1	1	1	1	1	1	1	0	1	-4,510218	273,995783	315,054313	0
15.01.2021	22:10:01	0	0	4,406268	2,496	307,4904	-0,019	87,213	0	1017,6	6,7	8,6	8,6	1	1	1	1	1	1	1	1	1	0	1	-13,107822	274,037387	306,65085	0
15.01.2021	22:10:02	0	0	3,615443	2,52525	316,3032	-0,016	87,221	0	1017,56	6,7	8,6	8,4	1	1	1	1	1	1	1	1	1	0	1	-9,936575	274,019546	309,738832	0
15.01.2021	22:10:03	0	0	3,276456	2,5455	308,0844	-0,011	87,222	0	1017,52	6,7	8,6	8,6	1	1	1	1	1	1	1	1	1	0	1	-9,936575	274,040363	309,835984	0
15.01.2021	22:10:04	0	0	4,51925	2,4285	306,0396	-0,015	87,212	0	1017,48	6,7	8,6	8,6	1	1	1	1	1	1	1	1	1	0	1	-7,82241	273,982429	311,679827	0
15.01.2021	22:10:05	0	0	2,71155	2,28525	301,9932	-0,012	87,203	0	1017,36	6,7	8,6	8,6	1	1	1	1	1	1	1	1	1	0	1	-3,875969	274,058223	315,979964	0
15.01.2021	22:10:06	0	0	2,937548	2,223	304,2108	-0,019	87,201	0	1017,56	6,7	8,6	8,4	1	1	1	1	1	1	1	1	1	0	1	-7,963354	273,943903	311,359213	0
15.01.2021	22:10:07	0	0	3,841362	2,3025	303,2532	-0,014	87,199	0	1017,58	6,7	8,6	8,6	1	1	1	1	1	1	1	1	1	0	1	-6,20155	274,052268	313,626581	0
15.01.2021	22:10:08	0	0	4,293287	2,42325	305,8632	-0,016	87,216	0	1017,56	6,7	8,6	8,6	1	1	1	1	1	1	1	1	1	0	1	-7,540521	274,047803	312,266765	0
15.01.2021	22:10:09	0	0	4,745269	2,42625	308,0988	-0,02	87,211	0	1017,52	6,7	8,6	8,4	1	1	1	1	1	1	1	1	1	0	1	-10,007047	273,988363	309,52287	0
15.01.2021	22:10:10	0	0	3,389478	2,40225	304,6392	-0,015	87,202	0	1017,46	6,7	8,6	8,4	1	1	1	1	1	1	1	1	1	0	1	-14,305849	274,049291	305,508385	0
15.01.2021	22:10:11	0	0	2,5986	2,4015	301,5072	-0,01	87,211	0	1017,52	6,7	8,6	8,4	1	1	1	1	1	1	1	1	1	0	1	-8,104299	273,903976	311,032149	0
15.01.2021	22:10:12	0	0	3,276495	2,298	306,432	-0,014	87,218	0	1017,42	6,7	8,6	8,4	1	1	1	1	1	1	1	1	1	0	1	-5,84919	274,012117	313,791551	0
15.01.2021	22:10:13	0	0	2,598569	2,25225	302,5044	-0,018	87,211	0	1017,46	6,7	8,6	8,6	1	1	1	1	1	1	1	1	1	0	1	-6,272023	274,052268	313,556109	0
15.01.2021	22:10:14	0	0	3,841408	2,181	299,3508	-0,014	87,204	0	1017,48	6,7	8,6	8,4	1	1	1	1	1	1	1	1	1	0	1	-10,359408	273,99133	309,184353	0
15.01.2021	22:10:15	0	0	4,519304	2,1255	303,2136	-0,011	87,217	0	1017,62	6,6	8,6	8,4	1	1	1	1	1	1	1	1	1	0	1	-10,077519	273,865607	308,880142	0
15.01.2021	22:10:16	0	0	4,745212	2,09775	311,0544	-0,015	87,219	0	1017,5	6,7	8,6	8,6	1	1	1	1	1	1	1	1	1	0	1	-7,540521	273,963156	311,871826	0
15.01.2021	22:10:17	0	0	2,711582	2,097	304,29	-0,013	87,217	0	1017,52	6,7	8,6	8,4	1	1	1	1	1	1	1	1	1	0	1	-7,399577	273,903976	311,73687	0
15.01.2021	22:10:18	0	0	3,841362	2,124	309,9492	-0,014	87,215	0	1017,44	6,7	8,6	8,6	1	1	1	1	1	1	1	1	1	0	1	-6,906272	273,890686	312,168239	0
15.01.2021	22:10:19	0	0	4,067374	2,03475	308,8224	-0,013	87,216	0	1017,5	6,7	8,6	8,4	1	1	1	1	1	1	1	1	1	0	1	-9,513742	273,979462	309,974658	0
15.01.2021	22:10:20	0	0	3,728381	1,98525	311,346	-0,017	87,189	0	1017,5	6,7	8,6	8,6	1	1	1	1	1	1	1	1	1	0	1	-7,610994	273,862658	311,332933	0
15.01.2021	22:10:21	0	0	5,197137	1,9305	314,0568	-0,014	87,202	0	1017,44	6,7	8,6	8,6	1	1	1	1	1	1	1	1	1	0	1	-2,889359	273,867081	316,075171	0
15.01.2021	22:10:22	0	0	2,824531	1,92525	298,2276	-0,011	87,202	0	1017,26	6,7	8,6	8,6	1	1	1	1	1	1	1	1	1	0	1	-3,664553	274,000236	315,920756	0
15.01.2021	22:10:23	0	0	4,858252	2,043	297,1656	-0,016	87,215	0	1017,62	6,7	8,6	8,4	1	1	1	1	1	1	1	1	1	0	1	-5,778717	274,037387	313,979955	0
15.01.2021	22:10:24	0	0	3,276495	2,08425	293,7132	-0,016	87,225	0	1017,6	6,7	8,6	8,4	1	1	1	1	1	1	1	1	1	0	1	-9,161381	273,908408	309,995723	0
15.01.2021	22:10:25	0	0	4,858252	2,21475	292,7628	-0,023	87,189	0	1017,38	6,7	8,6	8,4	1	1	1	1	1	1	1	1	1	0	1	-7,610994	273,87003	311,367275	0
15.01.2021	22:10:26	0	0	2,824531	2,3325	296,0856	-0,023	87,213	0	1017,42	6,7	8,6	8,6	1	1	1	1	1	1	1	1	1	0	1	-5,778717	273,975014	313,688934	0
15.01.2021	22:10:27	0	0	2,824531	2,3895	294,8256	-0,017	87,23	0	1017,54	6,7	8,6	8,6	1	1	1	1	1	1	1	1	1	0	1	-8,45666	273,856763	310,459805	0
15.01.2021	22:10:28	0	0	3,954344	2,3745	293,3388	-0,019	87,204	0	1017,4	6,7	8,6	8,6	1	1	1	1	1	1	1	1	1	0	1	-2,60747	273,909886	316,556521	0
15.01.2021	22:10:29	0	0	4,406268	2,3835	295,0992	-0,017	87,223	0	1017,42	6,7	8,6	8,6	1	1	1	1	1	1	1	1	1	0	1	-5,990134	273,985395	313,525942	0
15.01.2021	22:10:30	0	0	3,389437	2,40975	294,4188	-0,013	87,217	0	1017,7	6,7	8,6	8,6	1	1	1	1	1	1	1	1	1	0	1	-6,976744	274,053757	312,858337	0
15.01.2021	22:10:31	0	0	2,937548	2,40675	290,8008	-0,022	87,21	0	1017,48	6,7	8,6	8,4	1	1	1	1	1	1	1	1	1	0	1	-5,990134	273,973531	313,470602	0
15.01.2021	22:10:32	0	0	2,71155	2,39175	287,8164	-0,009	87,217	0	1017,4	6,7	8,6	8,6	1	1	1	1	1	1	1	1	1	0	1	-10,147992	274,044826	309,645402	0
15.01.2021	22:10:33	0	0	4,632231	2,34075	293,724	-0,016	87,203	0	1017,46	6,7	8,6	8,6	1	1	1	1	1	1	1	1	1	0	1	-7,610994	273,898068	311,49792	0
15.01.2021	22:10:34	0	0	4,406268	2,2845	292,23	-0,014	87,21	0	1017,56	6,7	8,6	8,6	1	1	1	1	1	1	1	1	1	0	1	-6,765328	273,929105	312,488252	0
15.01.2021	22:10:35	0	0	2,71155	2,25825	296,5176	-0,009	87,224	0	1017,58	6,7	8,6	8,6	1	1	1	1	1	1	1	1	1	0	1	-6,8358	274,047803	312,971487	0
15.01.2021	22:10:36	0	0	2,824531	2,19375	300,06	-0,017	87,204	0	1017,52	6,7	8,6	8,6	1	1	1	1	1	1	1	1	1	0	1	-8,033827	274,009146	311,593052	0
15.01.2021	22:10:37	0	0	2,5986	2,20425	300,1644	-0,022	87,209	0	1017,4	6,7	8,6	8,4	1	1	1	1	1	1	1	1	1	0	1	-9,020437	273,890686	310,054074	0
15.01.2021	22:10:38	0	0	4,858252	2,202	293,3208	-0,015	87,21	0	1017,5	6,7	8,6	8,4	1	1	1	1	1	1	1	1	1	0	1	-8,738548	274,006175	310,874471	0
15.01.2021	22:10:39	0	0	4,067374	2,163	302,4288	-0,022	87,203	0	1017,46	6,7	8,6	8,4	1	1	1	1	1	1	1	1	1	0	1	-8,45666	274,043338	311,329789	0
15.01.2021	22:10:40	0	0	4,180356	2,15475	291,51	-0,013	87,208	0	1017,54	6,7	8,6	8,4	1	1	1	1	1	1	1	1	1	0	1	-5,073996	273,995783	314,490536	0
15.01.2021	22:10:41	0	0	3,502419	2,205	299,7036	-0,013	87,212	0	1017,38	6,7	8,6	8,6	1	1	1	1	1	1	1	1	1	0	1	-6,765328	273,896591	312,336704	0
15.01.2021	22:10:42	0	0	5,084156	2,2575	291,7836	-0,012	87,225	0	1017,48	6,7	8,6	8,6	1	1	1	1	1	1	1	1	1	0	1	-8,879493	274,029951	310,844474	0
15.01.2021	22:10:43	0	0	4,067325	2,30025	290,79	-0,02	87,213	0	1017,5	6,7	8,6	8,6	1	1	1	1	1	1	1	1	1	0	1	-9,161381	273,887734	309,899373	0
15.01.2021	22:10:44	0	0	4,519304	2,32125	294,8112	-0,021	87,206	0	1017,38	6,7	8,6	8,4	1	1	1	1	1	1	1	1	1	0	1	-6,8358	273,903976	312,300648	0
15.01.2021	22:10:45	0	0	3,163475	2,34975	296,8416	-0,015	87,213	0	1017,32	6,7	8,6	8,6	1	1	1	1	1	1	1	1	1	0	1	-5,073996	274,025491	314,629156	0
15.01.2021	22:10:46	0	0	4,180356	2,30175	303,48	-0,015	87,224	0	1017,5	6,7	8,6	8,4	1	1	1	1	1	1	1	1	1	0	1	-10,147992	273,964638	309,271267	0
15.01.2021	22:10:47	0	0	2,937548	2,25375	296,8236	-0,013	87,222	0	1017,5	6,7	8,6	8,4	1	1	1	1	1	1	1	1	1	0	1	-12,403101	273,864132	306,547693	0
15.01.2021	22:10:48	0	0	4,406268	2,229	301,122	-0,022	87,222	0	1017,4	6,7	8,6	8,6	1	1	1	1	1	1	1	1	1	0	1	-8,668076	273,901022	310,454603	0
15.01.2021	22:10:49	0	0	3,502419	2,178	296,4636	-0,017	87,225	0	1017,52	6,7	8,6	8,6	1	1	1	1	1	1	1	1	1	0	1	-9,725159	273,924668	309,507737	0
15.01.2021	22:10:50	0	0	2,711582	2,202	293,31	-0,017	87,226	0	1017,32	6,7	8,6	8,4	1	1	1	1	1	1	1	1	1	0	1	-7,329105	274,050779	312,492078	0
15.01.2021	22:10:51	0	0	2,824565	2,178	306,1368	-0,015	87,227	0	1017,5	6,7	8,6	8,4	1	1	1	1	1	1	1	1	1	0	1	-6,694856	273,964638	312,724403	0
15.01.2021	22:10:52	0	0	3,389478	2,09775	296,8884	-0,017	87,222	0	1017,64	6,7	8,6	8,4	1	1	1	1	1	1	1	1	1	0	1	-4,721635	274,047803	315,085652	0
15.01.2021	22:10:53	0	0	3,502419	2,15925	304,2828	-0,019	87,219	0	1017,4	6,6	8,6	8,6	1	1	1	1	1	1	1	1	1	0	1	-8,174771	273,939462	311,127093	0
15.01.2021	22:10:54	0	0	2,824565	2,19225	301,1976	-0,014	87,224	0	1017,56	6,7	8,6	8,4	1	1	1	1	1	1	1	1	1	0	1	-12,755462	273,901022	306,367218	0
15.01.2021	22:10:55	0	0	5,084156	2,20275	300,8232	-0,016	87,21	0	1017,38	6,7	8,6	8,6	1	1	1	1	1	1	1	1	1	0	1	-11,627907	274,032925	308,10994	0
15.01.2021	22:10:56	0	0	4,406321	2,17425	304,1568	-0,015	87,231	0	1017,44	6,7	8,6	8,4	1	1	1	1	1	1	1	1	1	0	1	-5,84919	274,013602	313,798483	0
15.01.2021	22:10:57	0	0	4,632231	2,17875	301,1796	-0,019	87,221	0	1017,4	6,6	8,6	8,6	1	1	1	1	1	1	1	1	1	0	1	-9,44327	274,010631	310,190539	0
15.01.2021	22:10:58	0	0	2,71155	2,21925	302,0724	-0,014	87,234	0	1017,54	6,7	8,6	8,6	1	1	1	1	1	1	1	1	1	0	1	-7,963354	273,875929	311,042399	0
15.01.2021	22:10:59	0	0	4,971175	2,21475	302,1444	-0,02	87,217	0	1017,4	6,6	8,6	8,6	1	1	1	1	1	1	1	1	1	0	1	-7,610994	274,021032	312,071349	0
15.01.2021	22:11:00	0	0	2,937548	2,23875	300,1968	-0,012	87,244	0	1017,6	6,7	8,6	8,4	1	1	1	1	1	1	1	1	1	0	1	-5,637773	273,911364	313,533106	0
15.01.2021	22:11:01	0	0	5,084217	2,181	303,4944	-0,015	87,232	0	1017,56	6,7	8,6	8,4	1	1	1	1	1	1	1	1	1	0	1	-12,825934	274,00469	306,780157	0
15.01.2021	22:11:02	0	0	3,728381	2,18925	305,028	-0,015	87,24	0	1017,5	6,7	8,6	8,6	1	1	1	1	1	1	1	1	1	0	1	-7,258633	273,892162	311,822758	0
15.01.2021	22:11:03	0	0	2,937548	2,1615	302,85	-0,018	87,231	0	1017,42	6,7	8,6	8,4	1	1	1	1	1	1	1	1	1	0	1	-6,342495	273,989846	313,194344	0
15.01.2021	22:11:04	0	0	2,5986	2,124	301,3092	-0,02	87,247	0	1017,44	6,7	8,6	8,4	1	1	1	1	1	1	1	1	1	0	1	-6,20155	274,046314	313,59879	0
15.01.2021	22:11:05	0	0	4,067325	2,0895	299,7756	-0,017	87,237	0	1017,5	6,7	8,6	8,6	1	1	1	1	1	1	1	1	1	0	1	-8,245243	274,022518	311,444035	0
15.01.2021	22:11:06	0	0	3,502461	2,03925	298,2672	-0,013	87,244	0	1017,4	6,7	8,6	8,4	1	1	1	1	1	1	1	1	1	0	1	-9,513742	273,892162	309,567648	0
15.01.2021	22:11:07	0	0	4,180356	2,004	291,9168	-0,014	87,223	0	1017,54	6,7	8,6	8,4	1	1	1	1	1	1	1	1	1	0	1	-7,610994	273,911364	311,559885	0
15.01.2021	22:11:08	0	0	4,180306	2,013	292,6116	-0,018	87,241	0	1017,34	6,7	8,6	8,6	1	1	1	1	1	1	1	1	1	0	1	-7,892882	274,052268	311,935249	0
15.01.2021	22:11:09	0	0	3,954344	2,03025	300,4272	-0,016	87,245	0	1017,6	6,7	8,6	8,6	1	1	1	1	1	1	1	1	1	0	1	-10,007047	273,926147	309,232742	0
15.01.2021	22:11:10	0	0	5,084156	2,03625	297,2232	-0,016	87,243	0	1017,56	6,7	8,6	8,6	1	1	1	1	1	1	1	1	1	0	1	-8,174771	274,029951	311,549196	0
15.01.2021	22:11:11	0	0	3,050494	2,00475	301,1832	-0,021	87,242	0	1017,42	6,7	8,6	8,6	1	1	1	1	1	1	1	1	1	0	1	-7,470049	273,896591	311,631983	0
15.01.2021	22:11:12	0	0	2,485617	2,04675	302,7744	-0,013	87,246	0	1017,54	6,7	8,6	8,4	1	1	1	1	1	1	1	1	1	0	1	-8,949965	273,91432	310,234691	0
15.01.2021	22:11:13	0	0	2,824531	2,1885	307,2276	-0,015	87,246	0	1017,56	6,7	8,6	8,6	1	1	1	1	1	1	1	1	1	0	1	-4,933051	274,044826	314,860342	0
15.01.2021	22:11:14	0	0	3,276495	2,23875	300,834	-0,017	87,242	0	1017,54	6,7	8,6	8,4	1	1	1	1	1	1	1	1	1	0	1	-7,892882	273,935023	311,388285	0
15.01.2021	22:11:15	0	0	3,954344	2,2095	319,9644	-0,019	87,256	0	1017,6	6,7	8,6	8,6	1	1	1	1	1	1	1	1	1	0	1	-8,668076	274,003205	310,931086	0
15.01.2021	22:11:16	0	0	2,598569	2,18325	307,1196	-0,018	87,257	0	1017,56	6,7	8,6	8,6	1	1	1	1	1	1	1	1	1	0	1	-10,782241	274,06567	309,108459	0
15.01.2021	22:11:17	0	0	3,163475	2,1075	312,4152	-0,014	87,242	0	1017,42	6,7	8,6	8,6	1	1	1	1	1	1	1	1	1	0	1	-7,399577	273,883306	311,640547	0
15.01.2021	22:11:18	0	0	2,5986	2,064	310,9896	-0,018	87,261	0	1017,64	6,7	8,6	8,4	1	1	1	1	1	1	1	1	1	0	1	-10,42988	274,00766	309,190068	0
15.01.2021	22:11:19	0	0	2,937548	2,01675	309,5208	-0,012	87,238	0	1017,38	6,7	8,6	8,4	1	1	1	1	1	1	1	1	1	0	1	-4,721635	273,867081	314,242895	0
15.01.2021	22:11:20	0	0	3,276456	2,00325	310,3596	-0,013	87,256	0	1017,62	6,7	8,6	8,6	1	1	1	1	1	1	1	1	1	0	1	-12,544045	273,982429	306,958192	0
15.01.2021	22:11:21	0	0	3,163475	1,98	306,1512	-0,012	87,258	0	1017,52	6,7	8,6	8,6	1	1	1	1	1	1	1	1	1	0	1	-6,624383	273,875929	312,38137	0
15.01.2021	22:11:22	0	0	3,728426	1,941	312,7392	-0,014	87,26	0	1017,42	6,7	8,6	8,4	1	1	1	1	1	1	1	1	1	0	1	-10,42988	273,951305	308,927205	0
15.01.2021	22:11:23	0	0	2,485617	2,03625	303,8364	-0,019	87,253	0	1017,34	6,7	8,6	8,4	1	1	1	1	1	1	1	1	1	0	1	-3,100775	273,892162	315,980615	0
15.01.2021	22:11:24	0	0	3,502461	2,08575	314,5104	-0,017	87,263	0	1017,28	6,7	8,6	8,4	1	1	1	1	1	1	1	1	1	0	1	-9,090909	273,939462	310,210955	0
15.01.2021	22:11:25	0	0	3,841362	2,08125	309,4632	-0,014	87,274	0	1017,56	6,7	8,6	8,6	1	1	1	1	1	1	1	1	1	0	1	-6,060606	274,056734	313,788376	0
15.01.2021	22:11:26	0	0	3,163475	2,1045	309,8736	-0,016	87,266	0	1017,56	6,7	8,6	8,6	1	1	1	1	1	1	1	1	1	0	1	-8,245243	273,986879	311,277753	0
15.01.2021	22:11:27	0	0	4,519304	2,06175	313,6068	-0,018	87,265	0	1017,58	6,7	8,6	8,4	1	1	1	1	1	1	1	1	1	0	1	-5,990134	273,87888	313,029366	0
15.01.2021	22:11:28	0	0	4,293339	2,02125	298,602	-0,017	87,251	0	1017,6	6,7	8,6	8,4	1	1	1	1	1	1	1	1	1	0	1	-10,218464	273,903976	308,917984	0
15.01.2021	22:11:29	0	0	2,824531	1,97475	285,4944	-0,018	87,258	0	1017,5	6,7	8,6	8,6	1	1	1	1	1	1	1	1	1	0	1	-8,104299	274,024005	311,591916	0
15.01.2021	22:11:30	0	0	3,728381	1,9485	294,3648	-0,015	87,258	0	1017,4	6,7	8,6	8,6	1	1	1	1	1	1	1	1	1	0	1	-11,205074	274,049291	308,609161	0
15.01.2021	22:11:31	0	0	4,067325	1,9095	293,3532	-0,011	87,266	0	1017,62	6,7	8,6	8,6	1	1	1	1	1	1	1	1	1	0	1	-6,553911	273,958711	312,837708	0
15.01.2021	22:11:32	0	0	2,5986	1,9035	294,0804	-0,024	87,266	0	1017,5	6,7	8,6	8,4	1	1	1	1	1	1	1	1	1	0	1	-9,161381	274,046314	310,638959	0
15.01.2021	22:11:33	0	0	2,824565	1,82025	312,9552	-0,012	87,258	0	1017,5	6,7	8,6	8,4	1	1	1	1	1	1	1	1	1	0	1	-7,892882	273,961674	311,512555	0
15.01.2021	22:11:34	0	0	4,293287	1,7895	300,456	-0,017	87,279	0	1017,6	6,7	8,6	8,6	1	1	1	1	1	1	1	1	1	0	1	-11,768851	274,052268	308,05928	0
15.01.2021	22:11:35	0	0	4,971175	1,782	302,13	-0,021	87,261	0	1017,52	6,7	8,6	8,6	1	1	1	1	1	1	1	1	1	0	1	-9,866103	274,025491	309,837049	0
15.01.2021	22:11:36	0	0	3,050494	1,7805	296,856	-0,011	87,261	0	1017,42	6,7	8,6	8,6	1	1	1	1	1	1	1	1	1	0	1	-3,523608	273,983912	315,985548	0
15.01.2021	22:11:37	0	0	4,632231	1,82175	296,8488	-0,021	87,262	0	1017,5	6,7	8,6	8,6	1	1	1	1	1	1	1	1	1	0	1	-7,963354	274,059713	311,899531	0
15.01.2021	22:11:38	0	0	4,406268	1,91025	286,2792	-0,009	87,269	0	1017,56	6,7	8,6	8,6	1	1	1	1	1	1	1	1	1	0	1	-7,258633	274,013602	312,38904	0
15.01.2021	22:11:39	0	0	3,6154	1,8735	291,204	-0,021	87,25	0	1017,46	6,7	8,6	8,6	1	1	1	1	1	1	1	1	1	0	1	-7,892882	274,028464	311,824146	0
15.01.2021	22:11:40	0	0	4,180356	1,9245	285,8652	-0,019	87,272	0	1017,42	6,7	8,6	8,4	1	1	1	1	1	1	1	1	1	0	1	-9,866103	273,898068	309,242811	0
15.01.2021	22:11:41	0	0	3,389437	1,974	286,2648	-0,019	87,269	0	1017,44	6,7	8,6	8,6	1	1	1	1	1	1	1	1	1	0	1	-6,624383	273,909886	312,539608	0
15.01.2021	22:11:42	0	0	3,389437	1,97625	281,7468	-0,015	87,266	0	1017,54	6,7	8,6	8,6	1	1	1	1	1	1	1	1	1	0	1	-3,875969	274,061202	315,993869	0
15.01.2021	22:11:43	0	0	2,824565	1,88025	293,1228	-0,019	87,26	0	1017,38	6,7	8,6	8,4	1	1	1	1	1	1	1	1	1	0	1	-5,426357	273,921711	313,792753	0
15.01.2021	22:11:44	0	0	4,745212	1,8075	287,8884	-0,011	87,266	0	1017,48	6,7	8,6	8,6	1	1	1	1	1	1	1	1	1	0	1	-9,020437	274,044826	310,772957	0
15.01.2021	22:11:45	0	0	2,824565	1,71375	280,2708	-0,014	87,264	0	1017,48	6,7	8,6	8,4	1	1	1	1	1	1	1	1	1	0	1	-6,412967	273,963156	312,999381	0
15.01.2021	22:11:46	0	0	2,598569	1,68975	276,8976	-0,017	87,256	0	1017,56	6,7	8,6	8,6	1	1	1	1	1	1	1	1	1	0	1	-7,258633	274,07163	312,659893	0
15.01.2021	22:11:47	0	0	2,372635	1,57725	275,382	-0,012	87,269	0	1017,44	6,7	8,6	8,4	1	1	1	1	1	1	1	1	1	0	1	-11,205074	273,948344	308,138202	0
15.01.2021	22:11:48	0	0	2,824565	1,527	275,13	-0,018	87,258	0	1017,52	6,7	8,6	8,4	1	1	1	1	1	1	1	1	1	0	1	-8,668076	273,874454	310,330805	0
15.01.2021	22:11:49	0	0	4,745212	1,614	270,6444	-0,01	87,272	0	1017,54	6,7	8,6	8,6	1	1	1	1	1	1	1	1	1	0	1	-9,725159	273,970566	309,721749	0
15.01.2021	22:11:50	0	0	3,276495	1,73325	271,0224	-0,015	87,269	0	1017,52	6,7	8,6	8,4	1	1	1	1	1	1	1	1	1	0	1	-8,738548	274,053757	311,096533	0
15.01.2021	22:11:51	0	0	3,276495	1,74	280,2528	-0,017	87,276	0	1017,48	6,7	8,6	8,4	1	1	1	1	1	1	1	1	1	0	1	-6,976744	273,95723	312,407967	0
15.01.2021	22:11:52	0	0	4,745212	1,70475	279,2124	-0,014	87,278	0	1017,54	6,7	8,6	8,6	1	1	1	1	1	1	1	1	1	0	1	-9,725159	274,032925	310,012689	0
15.01.2021	22:11:53	0	0	3,615443	1,6155	282,1392	-0,015	87,268	0	1017,48	6,7	8,6	8,4	1	1	1	1	1	1	1	1	1	0	1	-13,107822	274,061202	306,762016	0
15.01.2021	22:11:54	0	0	4,51925	1,5585	288,4536	-0,021	87,275	0	1017,5	6,7	8,6	8,6	1	1	1	1	1	1	1	1	1	0	1	-10,500352	273,958711	308,891267	0
15.01.2021	22:11:55	0	0	3,615443	1,55175	290,0088	-0,022	87,251	0	1017,5	6,7	8,6	8,4	1	1	1	1	1	1	1	1	1	0	1	-9,795631	274,061202	310,074208	0
15.01.2021	22:11:56	0	0	2,485617	1,5525	300,8196	-0,017	87,276	0	1017,54	6,7	8,6	8,4	1	1	1	1	1	1	1	1	1	0	1	-12,262156	273,969084	307,177838	0
15.01.2021	22:11:57	0	0	2,824565	1,58025	305,0604	-0,014	87,262	0	1017,48	6,7	8,6	8,4	1	1	1	1	1	1	1	1	1	0	1	-6,20155	274,029951	313,522417	0
15.01.2021	22:11:58	0	0	3,6154	1,746	310,5396	-0,024	87,279	0	1017,48	6,7	8,6	8,6	1	1	1	1	1	1	1	1	1	0	1	-7,610994	274,06716	312,286662	0
15.01.2021	22:11:59	0	0	3,163475	1,878	312,8616	-0,017	87,276	0	1017,46	6,7	8,6	8,6	1	1	1	1	1	1	1	1	1	0	1	-6,624383	273,937982	312,670581	0
15.01.2021	22:12:00	0	0	3,728381	1,98075	320,7924	-0,017	87,275	0	1017,48	6,7	8,6	8,6	1	1	1	1	1	1	1	1	1	0	1	-4,651163	274,058223	315,204771	0
15.01.2021	22:12:01	0	0	2,71155	2,05875	322,56	-0,016	87,271	0	1017,64	6,7	8,6	8,6	1	1	1	1	1	1	1	1	1	0	1	-6,483439	274,00469	313,122651	0
15.01.2021	22:12:02	0	0	4,858193	1,98075	324,2304	-0,017	87,268	0	1017,58	6,7	8,6	8,6	1	1	1	1	1	1	1	1	1	0	1	-6,765328	274,052268	313,062804	0
15.01.2021	22:12:03	0	0	4,632231	1,98225	313,1568	-0,017	87,276	0	1017,42	6,7	8,6	8,6	1	1	1	1	1	1	1	1	1	0	1	-8,668076	274,025491	311,035076	0
15.01.2021	22:12:04	0	0	2,485617	2,06775	310,3488	-0,014	87,286	0	1017,54	6,7	8,6	8,4	1	1	1	1	1	1	1	1	1	0	1	-6,765328	274,07014	313,146241	0
15.01.2021	22:12:05	0	0	4,406268	2,21475	306,558	-0,013	87,275	0	1017,44	6,7	8,6	8,6	1	1	1	1	1	1	1	1	1	0	1	-4,22833	273,960193	315,170198	0
15.01.2021	22:12:06	0	0	4,745212	2,433	306,4932	-0,022	87,292	0	1017,5	6,7	8,6	8,6	1	1	1	1	1	1	1	1	1	0	1	-10,782241	273,87888	308,237259	0
15.01.2021	22:12:07	0	0	3,389478	2,62875	305,8236	-0,014	87,283	0	1017,54	6,7	8,6	8,4	1	1	1	1	1	1	1	1	1	0	1	-8,245243	274,026978	311,464846	0
15.01.2021	22:12:08	0	0	3,954344	2,71575	303,8976	-0,013	87,292	0	1017,56	6,7	8,6	8,6	1	1	1	1	1	1	1	1	1	0	1	-8,315715	274,032925	311,422132	0
15.01.2021	22:12:09	0	0	2,824531	2,799	303,5124	-0,021	87,279	0	1017,52	6,7	8,6	8,6	1	1	1	1	1	1	1	1	1	0	1	-10,147992	273,982429	309,354245	0
15.01.2021	22:12:10	0	0	4,858252	2,754	303,4692	-0,018	87,279	0	1017,28	6,7	8,6	8,4	1	1	1	1	1	1	1	1	1	0	1	-6,412967	273,881831	312,620282	0
15.01.2021	22:12:11	0	0	4,745269	2,688	303,9012	-0,015	87,295	0	1017,52	6,7	8,6	8,4	1	1	1	1	1	1	1	1	1	0	1	-4,369274	273,982429	315,132963	0
15.01.2021	22:12:12	0	0	3,728381	2,634	304,6104	-0,015	87,277	0	1017,42	6,7	8,6	8,6	1	1	1	1	1	1	1	1	1	0	1	-6,906272	274,06716	312,991384	0
15.01.2021	22:12:13	0	0	4,180356	2,61675	307,566	-0,017	87,289	0	1017,46	6,7	8,6	8,4	1	1	1	1	1	1	1	1	1	0	1	-9,161381	273,997267	310,410075	0
15.01.2021	22:12:14	0	0	4,51925	2,5455	308,1096	-0,02	87,274	0	1017,48	6,7	8,6	8,6	1	1	1	1	1	1	1	1	1	0	1	-7,258633	274,077591	312,687729	0
15.01.2021	22:12:15	0	0	2,598569	2,4465	305,73	-0,013	87,29	0	1017,44	6,7	8,6	8,6	1	1	1	1	1	1	1	1	1	0	1	-7,258633	273,899545	311,857163	0
15.01.2021	22:12:16	0	0	3,841362	2,40975	304,6788	-0,016	87,288	0	1017,52	6,7	8,6	8,6	1	1	1	1	1	1	1	1	1	0	1	-9,513742	274,050779	310,307441	0
15.01.2021	22:12:17	0	0	3,954344	2,4465	306,7884	-0,015	87,289	0	1017,58	6,7	8,6	8,6	1	1	1	1	1	1	1	1	1	0	1	-7,82241	273,982429	311,679827	0
15.01.2021	22:12:18	0	0	2,372635	2,3955	308,4912	-0,017	87,285	0	1017,62	6,7	8,6	8,4	1	1	1	1	1	1	1	1	1	0	1	-8,668076	274,050779	311,153107	0
15.01.2021	22:12:19	0	0	4,632287	2,30325	299,7684	-0,013	87,28	0	1017,4	6,7	8,6	8,4	1	1	1	1	1	1	1	1	1	0	1	-8,80902	273,917276	310,389415	0
15.01.2021	22:12:20	0	0	5,197137	2,244	302,436	-0,015	87,28	0	1017,38	6,7	8,6	8,6	1	1	1	1	1	1	1	1	1	0	1	-7,188161	274,032925	312,549687	0
15.01.2021	22:12:21	0	0	4,293339	2,19075	294,0876	-0,014	87,274	0	1017,4	6,7	8,6	8,4	1	1	1	1	1	1	1	1	1	0	1	-4,22833	273,898068	314,880584	0
15.01.2021	22:12:22	0	0	2,372606	2,259	294,4188	-0,012	87,274	0	1017,62	6,7	8,6	8,6	1	1	1	1	1	1	1	1	1	0	1	-5,496829	273,945383	313,832641	0
15.01.2021	22:12:23	0	0	2,711582	2,325	295,1712	-0,019	87,28	0	1017,32	6,7	8,6	8,4	1	1	1	1	1	1	1	1	1	0	1	-8,033827	274,061202	311,836012	0
15.01.2021	22:12:24	0	0	4,180356	2,29275	298,6632	-0,016	87,285	0	1017,52	6,7	8,6	8,4	1	1	1	1	1	1	1	1	1	0	1	-7,258633	273,967602	312,174449	0
15.01.2021	22:12:25	0	0	3,728426	2,145	293,3424	-0,009	87,294	0	1017,56	6,7	8,6	8,4	1	1	1	1	1	1	1	1	1	0	1	-8,386187	274,055245	311,455844	0
15.01.2021	22:12:26	0	0	3,728381	1,977	288,8964	-0,019	87,271	0	1017,6	6,7	8,6	8,6	1	1	1	1	1	1	1	1	1	0	1	-9,302326	273,955749	310,075478	0
15.01.2021	22:12:27	0	0	4,632231	1,91475	297,9756	-0,014	87,28	0	1017,54	6,7	8,6	8,6	1	1	1	1	1	1	1	1	1	0	1	-10,852713	274,055245	308,989318	0
15.01.2021	22:12:28	0	0	3,954391	1,86975	300,1896	-0,013	87,278	0	1017,48	6,7	8,6	8,4	1	1	1	1	1	1	1	1	1	0	1	-10,007047	273,91432	309,177609	0
15.01.2021	22:12:29	0	0	3,502461	1,8165	303,2784	-0,013	87,28	0	1017,48	6,7	8,6	8,4	1	1	1	1	1	1	1	1	1	0	1	-12,191684	274,074611	307,740758	0
15.01.2021	22:12:30	0	0	5,4231	1,878	296,388	-0,019	87,271	0	1017,34	6,7	8,6	8,6	1	1	1	1	1	1	1	1	1	0	1	-5,990134	273,961674	313,415304	0
15.01.2021	22:12:31	0	0	5,197137	2,1375	290,8044	-0,017	87,295	0	1017,62	6,7	8,6	8,6	1	1	1	1	1	1	1	1	1	0	1	-6,624383	273,883306	312,415741	0
15.01.2021	22:12:32	0	0	5,1972	2,4135	292,2624	-0,016	87,29	0	1017,38	6,7	8,6	8,4	1	1	1	1	1	1	1	1	1	0	1	-6,483439	273,933543	312,79083	0
15.01.2021	22:12:33	0	0	3,841362	2,5455	303,462	-0,018	87,273	0	1017,5	6,7	8,6	8,6	1	1	1	1	1	1	1	1	1	0	1	-12,614517	273,901022	306,508162	0
15.01.2021	22:12:34	0	0	5,084156	2,56575	304,9632	-0,012	87,277	0	1017,46	6,7	8,6	8,6	1	1	1	1	1	1	1	1	1	0	1	-9,513742	274,025491	310,18941	0
15.01.2021	22:12:35	0	0	2,937512	2,4705	300,9132	-0,025	87,284	0	1017,38	6,7	8,6	8,6	1	1	1	1	1	1	1	1	1	0	1	-9,584214	274,00766	310,035734	0
15.01.2021	22:12:36	0	0	3,728381	2,427	297,6228	-0,021	87,286	0	1017,5	6,7	8,6	8,6	1	1	1	1	1	1	1	1	1	0	1	-8,668076	274,07312	311,257408	0
15.01.2021	22:12:37	0	0	3,954391	2,4555	298,7244	-0,017	87,273	0	1017,56	6,7	8,6	8,4	1	1	1	1	1	1	1	1	1	0	1	-6,553911	273,921711	312,665199	0
15.01.2021	22:12:38	0	0	3,728426	2,58	305,0028	-0,014	87,29	0	1017,42	6,7	8,6	8,4	1	1	1	1	1	1	1	1	1	0	1	-8,386187	273,883306	310,653937	0
15.01.2021	22:12:39	0	0	4,519304	2,60475	306,81	-0,015	87,288	0	1017,44	6,7	8,6	8,4	1	1	1	1	1	1	1	1	1	0	1	-7,399577	273,930585	311,860898	0
15.01.2021	22:12:40	0	0	4,293287	2,51775	304,6572	-0,02	87,279	0	1017,52	6,7	8,6	8,6	1	1	1	1	1	1	1	1	1	0	1	-11,205074	274,058223	308,650859	0
15.01.2021	22:12:41	0	0	4,406321	2,46375	304,3044	-0,015	87,279	0	1017,52	6,7	8,6	8,4	1	1	1	1	1	1	1	1	1	0	1	-6,483439	273,989846	313,053399	0
15.01.2021	22:12:42	0	0	3,163475	2,4165	305,4096	-0,014	87,287	0	1017,52	6,7	8,6	8,6	1	1	1	1	1	1	1	1	1	0	1	-11,41649	273,88921	307,651142	0
15.01.2021	22:12:43	0	0	2,824531	2,412	308,5128	-0,015	87,292	0	1017,52	6,7	8,6	8,6	1	1	1	1	1	1	1	1	1	0	1	-8,174771	273,902499	310,954792	0
15.01.2021	22:12:44	0	0	4,067325	2,44575	305,334	-0,017	87,29	0	1017,62	6,7	8,6	8,6	1	1	1	1	1	1	1	1	1	0	1	-11,134602	273,902499	307,994961	0
15.01.2021	22:12:45	0	0	2,259625	2,5455	311,3712	-0,02	87,273	0	1017,42	6,7	8,6	8,6	1	1	1	1	1	1	1	1	1	0	1	-12,544045	273,915798	306,6475	0
15.01.2021	22:12:46	0	0	3,050494	2,5485	302,85	-0,014	87,292	0	1017,32	6,7	8,6	8,6	1	1	1	1	1	1	1	1	1	0	1	-7,399577	273,88921	311,668055	0
15.01.2021	22:12:47	0	0	3,615443	2,46975	305,6724	-0,021	87,281	0	1017,6	6,7	8,6	8,4	1	1	1	1	1	1	1	1	1	0	1	-6,342495	273,915798	312,849051	0
15.01.2021	22:12:48	0	0	4,180306	2,4	306,4068	-0,016	87,283	0	1017,46	6,7	8,6	8,6	1	1	1	1	1	1	1	1	1	0	1	-12,473573	273,937982	306,821392	0
15.01.2021	22:12:49	0	0	2,824531	2,343	297,846	-0,021	87,279	0	1017,46	6,7	8,6	8,6	1	1	1	1	1	1	1	1	1	0	1	-3,875969	273,912842	315,301798	0
15.01.2021	22:12:50	0	0	2,937512	2,29425	296,8776	-0,019	87,282	0	1017,46	6,7	8,6	8,6	1	1	1	1	1	1	1	1	1	0	1	-6,412967	273,883306	312,627158	0
15.01.2021	22:12:51	0	0	3,502461	2,22675	294,0696	-0,022	87,27	0	1017,5	6,7	8,6	8,4	1	1	1	1	1	1	1	1	1	0	1	-10,500352	273,920233	308,711865	0
15.01.2021	22:12:52	0	0	3,502419	2,2245	300,5244	-0,017	87,285	0	1017,58	6,7	8,6	8,6	1	1	1	1	1	1	1	1	1	0	1	-8,386187	274,003205	311,212975	0
15.01.2021	22:12:53	0	0	4,519304	2,22675	300,474	-0,016	87,273	0	1017,5	6,7	8,6	8,4	1	1	1	1	1	1	1	1	1	0	1	-7,681466	274,07312	312,244018	0
15.01.2021	22:12:54	0	0	3,954344	2,2965	300,5568	-0,014	87,29	0	1017,46	6,7	8,6	8,6	1	1	1	1	1	1	1	1	1	0	1	-7,047216	274,006175	312,565803	0
15.01.2021	22:12:55	0	0	4,406268	2,32275	300,8844	-0,013	87,295	0	1017,64	6,7	8,6	8,6	1	1	1	1	1	1	1	1	1	0	1	-8,949965	274,053757	310,885116	0
15.01.2021	22:12:56	0	0	4,293287	2,29425	306,7992	-0,016	87,283	0	1017,38	6,7	8,6	8,6	1	1	1	1	1	1	1	1	1	0	1	-5,567301	273,892162	313,514089	0
15.01.2021	22:12:57	0	0	2,598569	2,355	300,5424	-0,015	87,284	0	1017,64	6,7	8,6	8,6	1	1	1	1	1	1	1	1	1	0	1	-15,574348	273,898068	303,534566	0
15.01.2021	22:12:58	0	0	2,824531	2,505	302,4792	-0,015	87,295	0	1017,52	6,7	8,6	8,6	1	1	1	1	1	1	1	1	1	0	1	-5,426357	273,902499	313,703206	0
15.01.2021	22:12:59	0	0	4,51925	2,55075	298,3788	-0,014	87,291	0	1017,44	6,7	8,6	8,6	1	1	1	1	1	1	1	1	1	0	1	-6,8358	273,937982	312,459165	0
15.01.2021	22:13:00	0	0	2,71155	2,55975	303,2784	-0,02	87,297	0	1017,64	6,7	8,6	8,6	1	1	1	1	1	1	1	1	1	0	1	-10,218464	273,875929	308,78729	0
15.01.2021	22:13:01	0	0	4,971234	2,47425	301,3308	-0,021	87,276	0	1017,38	6,7	8,6	8,4	1	1	1	1	1	1	1	1	1	0	1	-7,540521	273,970566	311,906386	0
15.01.2021	22:13:02	0	0	3,954344	2,41575	300,2184	-0,02	87,281	0	1017,54	6,7	8,6	8,6	1	1	1	1	1	1	1	1	1	0	1	-9,020437	274,037387	310,738235	0
15.01.2021	22:13:03	0	0	3,502419	2,37525	297,2808	-0,014	87,296	0	1017,4	6,7	8,6	8,6	1	1	1	1	1	1	1	1	1	0	1	-6,694856	274,032925	313,042992	0
15.01.2021	22:13:04	0	0	3,276456	2,307	300,0924	-0,02	87,288	0	1017,32	6,6	8,6	8,6	1	1	1	1	1	1	1	1	1	0	1	-6,624383	274,049291	313,189851	0
15.01.2021	22:13:05	0	0	2,598569	2,20125	302,742	-0,018	87,284	0	1017,54	6,7	8,6	8,6	1	1	1	1	1	1	1	1	1	0	1	-7,540521	273,99133	312,003239	0
15.01.2021	22:13:06	0	0	4,406268	2,19	298,386	-0,015	87,286	0	1017,52	6,7	8,6	8,6	1	1	1	1	1	1	1	1	1	0	1	-7,047216	273,867081	311,917313	0
15.01.2021	22:13:07	0	0	4,519304	2,1135	291,4956	-0,02	87,303	0	1017,54	6,7	8,6	8,4	1	1	1	1	1	1	1	1	1	0	1	-7,82241	273,980945	311,672908	0
15.01.2021	22:13:08	0	0	3,615443	1,9425	291,1716	-0,015	87,313	0	1017,46	6,7	8,6	8,4	1	1	1	1	1	1	1	1	1	0	1	-9,513742	274,064181	310,370004	0
15.01.2021	22:13:09	0	0	2,372635	1,88625	293,3964	-0,02	87,301	0	1017,46	6,6	8,6	8,4	1	1	1	1	1	1	1	1	1	0	1	-5,778717	273,995783	313,785814	0
15.01.2021	22:13:10	0	0	3,276456	1,84575	288,8244	-0,011	87,316	0	1017,48	6,7	8,6	8,6	1	1	1	1	1	1	1	1	1	0	1	-7,751938	273,886258	311,301939	0
15.01.2021	22:13:11	0	0	3,502461	1,8285	297,2196	-0,016	87,301	0	1017,5	6,7	8,6	8,4	1	1	1	1	1	1	1	1	1	0	1	-7,963354	273,929105	311,290225	0
15.01.2021	22:13:12	0	0	3,6154	1,73625	313,2612	-0,017	87,311	0	1017,46	6,7	8,6	8,6	1	1	1	1	1	1	1	1	1	0	1	-8,174771	274,074611	311,757671	0
15.01.2021	22:13:13	0	0	2,711582	1,701	301,2804	-0,012	87,308	0	1017,5	6,7	8,6	8,4	1	1	1	1	1	1	1	1	1	0	1	-9,302326	273,970566	310,144582	0
15.01.2021	22:13:14	0	0	3,502419	1,75125	312,48	-0,02	87,296	0	1017,48	6,7	8,6	8,6	1	1	1	1	1	1	1	1	1	0	1	-11,205074	274,06567	308,685626	0
15.01.2021	22:13:15	0	0	5,310118	1,749	311,0076	-0,019	87,306	0	1017,48	6,7	8,6	8,6	1	1	1	1	1	1	1	1	1	0	1	-10,852713	273,961674	308,552724	0
15.01.2021	22:13:16	0	0	3,728426	1,64475	332,7696	-0,015	87,313	0	1017,68	6,7	8,6	8,4	1	1	1	1	1	1	1	1	1	0	1	-5,919662	273,884782	313,127339	0
15.01.2021	22:13:17	0	0	2,5986	1,6125	300,8628	-0,022	87,316	0	1017,48	6,7	8,6	8,4	1	1	1	1	1	1	1	1	1	0	1	-6,8358	273,898068	312,273114	0
15.01.2021	22:13:18	0	0	4,406268	1,6125	306,882	-0,014	87,311	0	1017,4	6,7	8,6	8,6	1	1	1	1	1	1	1	1	1	0	1	-11,557435	273,924668	307,675461	0
15.01.2021	22:13:19	0	0	4,745269	1,6575	302,8572	-0,018	87,307	0	1017,42	6,7	8,6	8,4	1	1	1	1	1	1	1	1	1	0	1	-8,949965	274,015088	310,70464	0
15.01.2021	22:13:20	0	0	3,502419	1,64475	309,8664	-0,019	87,315	0	1017,64	6,7	8,6	8,6	1	1	1	1	1	1	1	1	1	0	1	-4,862579	273,92319	314,363423	0
15.01.2021	22:13:21	0	0	3,05053	1,605	308,952	-0,018	87,317	0	1017,52	6,7	8,6	8,4	1	1	1	1	1	1	1	1	1	0	1	-9,090909	273,909886	310,073082	0
15.01.2021	22:13:22	0	0	4,745269	1,572	304,2972	-0,014	87,327	0	1017,62	6,7	8,6	8,4	1	1	1	1	1	1	1	1	1	0	1	-4,298802	273,901022	314,823877	0
15.01.2021	22:13:23	0	0	4,519304	1,50975	296,0928	-0,016	87,308	0	1017,5	6,7	8,6	8,4	1	1	1	1	1	1	1	1	1	0	1	-4,792107	273,877405	314,220519	0
15.01.2021	22:13:24	0	0	2,824565	1,46775	277,2432	-0,023	87,323	0	1017,52	6,7	8,6	8,4	1	1	1	1	1	1	1	1	1	0	1	-6,20155	273,970566	313,245357	0
15.01.2021	22:13:25	0	0	3,615443	1,36575	300,9744	-0,012	87,319	0	1017,54	6,7	8,6	8,4	1	1	1	1	1	1	1	1	1	0	1	-10,711769	274,043338	309,074679	0
15.01.2021	22:13:26	0	0	2,5986	1,35825	309,1752	-0,015	87,331	0	1017,42	6,7	8,6	8,4	1	1	1	1	1	1	1	1	1	0	1	-6,976744	274,009146	312,650134	0
15.01.2021	22:13:27	0	0	4,406321	1,3485	284,4252	-0,013	87,325	0	1017,62	6,7	8,6	8,4	1	1	1	1	1	1	1	1	1	0	1	-9,302326	274,07312	310,623158	0
15.01.2021	22:13:28	0	0	3,276495	1,37625	298,314	-0,016	87,323	0	1017,42	6,7	8,6	8,4	1	1	1	1	1	1	1	1	1	0	1	-9,44327	273,969084	309,996724	0
15.01.2021	22:13:29	0	0	4,180356	1,48425	283,1616	-0,018	87,334	0	1017,48	6,7	8,6	8,4	1	1	1	1	1	1	1	1	1	0	1	-4,580691	273,886258	314,473187	0
15.01.2021	22:13:30	0	0	2,824531	1,52625	291,8448	-0,016	87,322	0	1017,6	6,7	8,6	8,6	1	1	1	1	1	1	1	1	1	0	1	-7,610994	273,917276	311,587442	0
15.01.2021	22:13:31	0	0	2,824565	1,566	284,7852	-0,019	87,33	0	1017,46	6,7	8,6	8,4	1	1	1	1	1	1	1	1	1	0	1	-11,486963	273,917276	307,711473	0
15.01.2021	22:13:32	0	0	2,71155	1,665	294,0264	-0,015	87,328	0	1017,52	6,7	8,6	8,6	1	1	1	1	1	1	1	1	1	0	1	-8,668076	274,043338	311,118372	0
15.01.2021	22:13:33	0	0	3,05053	1,70775	296,4744	-0,016	87,338	0	1017,38	6,7	8,6	8,4	1	1	1	1	1	1	1	1	1	0	1	-7,399577	273,932064	311,867795	0
15.01.2021	22:13:34	0	0	3,841362	1,63425	292,2156	-0,015	87,329	0	1017,64	6,7	8,6	8,6	1	1	1	1	1	1	1	1	1	0	1	-4,439746	273,905453	314,703586	0
15.01.2021	22:13:35	0	0	3,502461	1,54575	302,3712	-0,017	87,316	0	1017,46	6,7	8,6	8,4	1	1	1	1	1	1	1	1	1	0	1	-6,906272	274,006175	312,706747	0
15.01.2021	22:13:36	0	0	4,519304	1,42875	301,5792	-0,009	87,338	0	1017,56	6,7	8,6	8,4	1	1	1	1	1	1	1	1	1	0	1	-1,550388	274,07014	318,361181	0
15.01.2021	22:13:37	0	0	3,163475	1,4445	296,1036	-0,025	87,335	0	1017,42	6,7	8,6	8,6	1	1	1	1	1	1	1	1	1	0	1	-14,094433	274,010631	305,539377	0
15.01.2021	22:13:38	0	0	2,824565	1,48125	308,1528	-0,011	87,337	0	1017,52	6,7	8,6	8,4	1	1	1	1	1	1	1	1	1	0	1	-8,879493	273,893638	310,208778	0
15.01.2021	22:13:39	0	0	4,406321	1,569	296,0748	-0,018	87,33	0	1017,58	6,7	8,6	8,4	1	1	1	1	1	1	1	1	1	0	1	-5,637773	274,025491	314,065379	0
15.01.2021	22:13:40	0	0	2,598569	1,7385	299,7828	-0,013	87,332	0	1017,46	6,7	8,6	8,6	1	1	1	1	1	1	1	1	1	0	1	-2,466526	273,939462	316,835339	0
15.01.2021	22:13:41	0	0	4,519304	2,004	288,4932	-0,01	87,318	0	1017,46	6,7	8,6	8,4	1	1	1	1	1	1	1	1	1	0	1	-10,42988	273,896591	308,672152	0
15.01.2021	22:13:42	0	0	4,745212	2,16225	300,1644	-0,014	87,316	0	1017,54	6,7	8,6	8,6	1	1	1	1	1	1	1	1	1	0	1	-6,483439	273,973531	312,977297	0
15.01.2021	22:13:43	0	0	3,954344	2,1105	284,8032	-0,017	87,32	0	1017,54	6,7	8,6	8,6	1	1	1	1	1	1	1	1	1	0	1	-7,329105	274,079082	312,624217	0
15.01.2021	22:13:44	0	0	3,276456	1,9845	310,3812	-0,019	87,321	0	1017,6	6,7	8,6	8,6	1	1	1	1	1	1	1	1	1	0	1	-7,258633	273,95723	312,126079	0
15.01.2021	22:13:45	0	0	2,598569	1,92375	303,2604	-0,011	87,336	0	1017,48	6,7	8,6	8,6	1	1	1	1	1	1	1	1	1	0	1	-4,580691	273,896591	314,521341	0
15.01.2021	22:13:46	0	0	3,276495	2,07525	293,2992	-0,019	87,328	0	1017,48	6,7	8,6	8,4	1	1	1	1	1	1	1	1	1	0	1	-7,610994	273,992814	311,93969	0
15.01.2021	22:13:47	0	0	2,598569	2,2305	318,3984	-0,014	87,337	0	1017,44	6,7	8,6	8,6	1	1	1	1	1	1	1	1	1	0	1	-10,147992	274,032925	309,589856	0
15.01.2021	22:13:48	0	0	2,146644	2,2785	296,0856	-0,011	87,326	0	1017,5	6,7	8,6	8,6	1	1	1	1	1	1	1	1	1	0	1	-8,527132	274,029951	311,196835	0
15.01.2021	22:13:49	0	0	2,598569	2,24775	307,2096	-0,016	87,323	0	1017,48	6,7	8,6	8,6	1	1	1	1	1	1	1	1	1	0	1	-3,453136	273,883306	315,586988	0
15.01.2021	22:13:50	0	0	5,084156	2,20575	298,9836	-0,015	87,32	0	1017,48	6,7	8,6	8,6	1	1	1	1	1	1	1	1	1	0	1	-6,060606	273,943903	313,261961	0
15.01.2021	22:13:51	0	0	4,519304	2,2035	287,6832	-0,012	87,326	0	1017,38	6,7	8,6	8,4	1	1	1	1	1	1	1	1	1	0	1	-8,174771	273,881831	310,858478	0
15.01.2021	22:13:52	0	0	2,598569	2,24925	294,4224	-0,012	87,317	0	1017,36	6,7	8,6	8,6	1	1	1	1	1	1	1	1	1	0	1	-5,778717	273,946863	313,557655	0
15.01.2021	22:13:53	0	0	4,632287	2,30625	279,8172	-0,019	87,325	0	1017,5	6,7	8,6	8,4	1	1	1	1	1	1	1	1	1	0	1	-6,8358	274,082064	313,131445	0
15.01.2021	22:13:54	0	0	3,6154	2,3835	292,2156	-0,014	87,342	0	1017,44	6,7	8,6	8,6	1	1	1	1	1	1	1	1	1	0	1	-6,483439	274,056734	313,365543	0
15.01.2021	22:13:55	0	0	3,502461	2,44125	296,0208	-0,014	87,32	0	1017,44	6,7	8,6	8,4	1	1	1	1	1	1	1	1	1	0	1	-5,637773	273,903976	313,498674	0
15.01.2021	22:13:56	0	0	3,163475	2,4915	293,6448	-0,013	87,333	0	1017,54	6,7	8,6	8,6	1	1	1	1	1	1	1	1	1	0	1	-7,188161	273,933543	312,086109	0
15.01.2021	22:13:57	0	0	3,841362	2,4825	298,638	-0,013	87,328	0	1017,56	6,7	8,6	8,6	1	1	1	1	1	1	1	1	1	0	1	-10,570825	273,884782	308,476176	0
15.01.2021	22:13:58	0	0	4,632287	2,41575	296,4924	-0,018	87,311	0	1017,52	6,7	8,6	8,4	1	1	1	1	1	1	1	1	1	0	1	-5,567301	274,006175	314,045718	0
15.01.2021	22:13:59	0	0	2,824531	2,39025	300,528	-0,013	87,316	0	1017,46	6,7	8,6	8,6	1	1	1	1	1	1	1	1	1	0	1	-8,738548	274,076101	311,200853	0
15.01.2021	22:14:00	0	0	4,067374	2,3775	317,016	-0,017	87,317	0	1017,5	6,7	8,6	8,4	1	1	1	1	1	1	1	1	1	0	1	-3,171247	273,927626	316,075437	0
15.01.2021	22:14:01	0	0	4,067374	2,3775	317,016	-0,017	87,317	0	1017,5	6,7	8,6	8,4	1	1	1	1	1	1	1	1	1	0	1	-10,570825	273,892162	308,510566	0
15.01.2021	22:14:02	0	0	2,372635	2,15475	318,7944	-0,017	87,321	0	1017,42	6,7	8,6	8,4	1	1	1	1	1	1	1	1	1	0	1	-6,483439	273,930585	312,777036	0
15.01.2021	22:14:03	0	0	3,050494	2,01	320,4216	-0,017	87,316	0	1017,54	6,7	8,6	8,6	1	1	1	1	1	1	1	1	1	0	1	-10,42988	274,056734	309,419102	0
15.01.2021	22:14:04	0	0	3,841362	1,90725	321,5304	-0,018	87,319	0	1017,42	6,7	8,6	8,6	1	1	1	1	1	1	1	1	1	0	1	-4,22833	273,943903	315,094238	0
15.01.2021	22:14:05	0	0	2,937548	1,8675	306,9036	-0,016	87,314	0	1017,46	6,7	8,6	8,4	1	1	1	1	1	1	1	1	1	0	1	-6,483439	273,883306	312,556685	0
15.01.2021	22:14:06	0	0	3,841408	1,884	318,8052	-0,016	87,313	0	1017,4	6,7	8,6	8,4	1	1	1	1	1	1	1	1	1	0	1	-5,426357	273,948344	313,91692	0
15.01.2021	22:14:07	0	0	4,51925	1,839	321,9048	-0,013	87,322	0	1017,58	6,7	8,6	8,6	1	1	1	1	1	1	1	1	1	0	1	-6,8358	273,87888	312,1837	0
15.01.2021	22:14:08	0	0	3,841362	1,71525	310,7016	-0,017	87,303	0	1017,54	6,7	8,6	8,6	1	1	1	1	1	1	1	1	1	0	1	-8,80902	273,929105	310,444559	0
15.01.2021	22:14:09	0	0	4,180306	1,65	307,2132	-0,016	87,304	0	1017,62	6,7	8,6	8,6	1	1	1	1	1	1	1	1	1	0	1	-7,681466	274,06567	312,209235	0
15.01.2021	22:14:10	0	0	3,050494	1,68	323,9568	-0,016	87,301	0	1017,34	6,7	8,6	8,6	1	1	1	1	1	1	1	1	1	0	1	-8,949965	273,955749	310,427839	0
15.01.2021	22:14:11	0	0	4,180306	1,69425	306,2196	-0,008	87,326	0	1017,46	6,7	8,6	8,6	1	1	1	1	1	1	1	1	1	0	1	-8,949965	274,06716	310,947691	0
15.01.2021	22:14:12	0	0	4,971234	1,71825	286,182	-0,019	87,303	0	1017,46	6,7	8,6	8,4	1	1	1	1	1	1	1	1	1	0	1	-4,721635	273,955749	314,656169	0
15.01.2021	22:14:13	0	0	3,615443	1,77675	302,8392	-0,017	87,322	0	1017,52	6,7	8,6	8,4	1	1	1	1	1	1	1	1	1	0	1	-7,681466	274,062691	312,195326	0
15.01.2021	22:14:14	0	0	3,389478	1,704	299,8224	-0,022	87,324	0	1017,44	6,7	8,6	8,4	1	1	1	1	1	1	1	1	1	0	1	-7,963354	273,946863	311,373018	0
15.01.2021	22:14:15	0	0	2,824565	1,60875	298,6812	-0,016	87,316	0	1017,56	6,7	8,6	8,4	1	1	1	1	1	1	1	1	1	0	1	-8,104299	273,88921	310,963334	0
15.01.2021	22:14:16	0	0	3,954344	1,5945	299,502	-0,014	87,334	0	1017,68	6,7	8,6	8,6	1	1	1	1	1	1	1	1	1	0	1	-6,694856	274,022518	312,994423	0
15.01.2021	22:14:17	0	0	3,6154	1,61025	294,4044	-0,011	87,319	0	1017,46	6,7	8,6	8,6	1	1	1	1	1	1	1	1	1	0	1	-4,298802	273,890686	314,775709	0
15.01.2021	22:14:18	0	0	2,71155	1,70325	307,134	-0,016	87,327	0	1017,5	6,7	8,6	8,6	1	1	1	1	1	1	1	1	1	0	1	-7,681466	274,003205	311,917696	0
15.01.2021	22:14:19	0	0	4,971175	1,788	314,0604	-0,021	87,335	0	1017,44	6,7	8,6	8,6	1	1	1	1	1	1	1	1	1	0	1	-8,738548	274,06865	311,166064	0
15.01.2021	22:14:20	0	0	4,632287	1,80525	307,1196	-0,022	87,321	0	1017,32	6,7	8,6	8,4	1	1	1	1	1	1	1	1	1	0	1	-8,879493	273,967602	310,553589	0
15.01.2021	22:14:21	0	0	3,276456	1,80975	312,4584	-0,014	87,317	0	1017,34	6,7	8,6	8,6	1	1	1	1	1	1	1	1	1	0	1	-11,205074	274,077591	308,741288	0
15.01.2021	22:14:22	0	0	4,51925	1,848	308,7828	-0,015	87,336	0	1017,66	6,7	8,6	8,6	1	1	1	1	1	1	1	1	1	0	1	-7,258633	274,003205	312,340529	0
15.01.2021	22:14:23	0	0	4,745269	1,83075	294,8076	-0,014	87,326	0	1017,5	6,7	8,6	8,4	1	1	1	1	1	1	1	1	1	0	1	-8,174771	274,064181	311,708975	0
15.01.2021	22:14:24	0	0	4,745269	1,761	311,7672	-0,013	87,315	0	1017,56	6,7	8,6	8,4	1	1	1	1	1	1	1	1	1	0	1	-7,258633	273,951305	312,098453	0
15.01.2021	22:14:25	0	0	4,971175	1,74825	299,3436	-0,011	87,328	0	1017,56	6,7	8,6	8,6	1	1	1	1	1	1	1	1	1	0	1	-7,540521	274,07312	312,384962	0
15.01.2021	22:14:26	0	0	5,084156	1,73475	301,5684	-0,015	87,325	0	1017,52	6,7	8,6	8,6	1	1	1	1	1	1	1	1	1	0	1	-4,651163	274,037387	315,10751	0
15.01.2021	22:14:27	0	0	2,485587	1,722	294,7608	-0,012	87,328	0	1017,34	6,7	8,6	8,6	1	1	1	1	1	1	1	1	1	0	1	-6,412967	273,935023	312,8682	0
15.01.2021	22:14:28	0	0	3,728426	1,743	293,274	-0,012	87,334	0	1017,64	6,7	8,6	8,4	1	1	1	1	1	1	1	1	1	0	1	-7,610994	274,074611	312,321449	0
15.01.2021	22:14:29	0	0	4,51925	1,8375	305,01	-0,015	87,332	0	1017,36	6,7	8,6	8,6	1	1	1	1	1	1	1	1	1	0	1	-9,231853	274,019546	310,443554	0
15.01.2021	22:14:30	0	0	4,51925	1,8555	306,4932	-0,012	87,323	0	1017,48	6,7	8,6	8,6	1	1	1	1	1	1	1	1	1	0	1	-8,738548	273,884782	310,308452	0
15.01.2021	22:14:31	0	0	5,310118	1,88775	298,242	-0,017	87,322	0	1017,7	6,7	8,6	8,6	1	1	1	1	1	1	1	1	1	0	1	-7,399577	273,926147	311,840213	0
15.01.2021	22:14:32	0	0	2,824565	1,911	300,4704	-0,013	87,322	0	1017,58	6,7	8,6	8,4	1	1	1	1	1	1	1	1	1	0	1	-6,624383	273,893638	312,463887	0
15.01.2021	22:14:33	0	0	2,372606	1,935	300,8772	-0,017	87,334	0	1017,48	6,7	8,6	8,6	1	1	1	1	1	1	1	1	1	0	1	-10,077519	274,021032	309,604823	0
15.01.2021	22:14:34	0	0	2,937512	1,81275	302,7888	-0,013	87,328	0	1017,62	6,7	8,6	8,6	1	1	1	1	1	1	1	1	1	0	1	-10,923185	274,029951	308,800782	0
15.01.2021	22:14:35	0	0	5,084156	1,80075	290,1384	-0,02	87,335	0	1017,44	6,7	8,6	8,6	1	1	1	1	1	1	1	1	1	0	1	-5,708245	274,056734	314,140737	0
15.01.2021	22:14:36	0	0	2,824565	1,932	298,6776	-0,014	87,319	0	1017,56	6,7	8,6	8,4	1	1	1	1	1	1	1	1	1	0	1	-4,087385	273,918754	315,117941	0
15.01.2021	22:14:37	0	0	3,05053	1,926	302,3604	-0,023	87,319	0	1017,44	6,7	8,6	8,4	1	1	1	1	1	1	1	1	1	0	1	-3,171247	274,012117	316,469493	0
15.01.2021	22:14:38	0	0	3,728381	1,89	290,1024	-0,011	87,329	0	1017,4	6,7	8,6	8,6	1	1	1	1	1	1	1	1	1	0	1	-8,245243	274,076101	311,694158	0
15.01.2021	22:14:39	0	0	2,824531	1,827	286,9632	-0,015	87,317	0	1017,72	6,7	8,6	8,6	1	1	1	1	1	1	1	1	1	0	1	-7,681466	273,918754	311,52386	0
15.01.2021	22:14:40	0	0	2,71155	1,86675	265,032	-0,014	87,329	0	1017,46	6,7	8,6	8,6	1	1	1	1	1	1	1	1	1	0	1	-6,8358	273,926147	312,40399	0
15.01.2021	22:14:41	0	0	3,502419	1,857	264,6144	-0,018	87,315	0	1017,46	6,7	8,6	8,6	1	1	1	1	1	1	1	1	1	0	1	-4,510218	274,076101	315,429183	0
15.01.2021	22:14:42	0	0	4,180306	1,767	273,4236	-0,013	87,335	0	1017,46	6,7	8,6	8,6	1	1	1	1	1	1	1	1	1	0	1	-6,8358	273,949825	312,514381	0
15.01.2021	22:14:43	0	0	2,485587	1,755	278,7624	-0,02	87,318	0	1017,3	6,7	8,6	8,6	1	1	1	1	1	1	1	1	1	0	1	-7,470049	274,080573	312,490234	0
15.01.2021	22:14:44	0	0	3,728426	1,737	279,5076	-0,015	87,322	0	1017,4	6,7	8,6	8,4	1	1	1	1	1	1	1	1	1	0	1	-8,315715	273,955749	311,062089	0
15.01.2021	22:14:45	0	0	3,502419	1,7985	285,9084	-0,016	87,336	0	1017,54	6,7	8,6	8,6	1	1	1	1	1	1	1	1	1	0	1	-8,245243	273,877405	310,767383	0
15.01.2021	22:14:46	0	0	3,389437	2,0175	273,5244	-0,017	87,338	0	1017,44	6,7	8,6	8,6	1	1	1	1	1	1	1	1	1	0	1	-8,315715	274,003205	311,283447	0
15.01.2021	22:14:47	0	0	4,406321	2,19525	286,596	-0,012	87,365	0	1017,7	6,7	8,6	8,4	1	1	1	1	1	1	1	1	1	0	1	-6,272023	274,056734	313,576959	0
15.01.2021	22:14:48	0	0	4,632287	2,12625	289,17	-0,015	87,334	0	1017,38	6,7	8,6	8,4	1	1	1	1	1	1	1	1	1	0	1	-9,936575	274,07014	309,974993	0
15.01.2021	22:14:49	0	0	2,372606	2,07525	284,796	-0,01	87,334	0	1017,32	6,7	8,6	8,6	1	1	1	1	1	1	1	1	1	0	1	-5,84919	274,074611	314,083253	0
15.01.2021	22:14:50	0	0	3,728426	2,04975	301,2048	-0,013	87,328	0	1017,34	6,7	8,6	8,4	1	1	1	1	1	1	1	1	1	0	1	-8,527132	274,009146	311,099747	0
15.01.2021	22:14:51	0	0	4,745269	1,9725	307,9656	-0,016	87,333	0	1017,52	6,7	8,6	8,4	1	1	1	1	1	1	1	1	1	0	1	-8,45666	273,892162	310,624731	0
15.01.2021	22:14:52	0	0	4,51925	1,902	327,3696	-0,016	87,327	0	1017,58	6,7	8,6	8,6	1	1	1	1	1	1	1	1	1	0	1	-10,147992	273,960193	309,250537	0
15.01.2021	22:14:53	0	0	4,858193	1,81875	313,5888	-0,01	87,326	0	1017,48	6,7	8,6	8,6	1	1	1	1	1	1	1	1	1	0	1	-11,205074	274,083555	308,769134	0
15.01.2021	22:14:54	0	0	4,745212	1,7415	324,0036	-0,012	87,34	0	1017,5	6,7	8,6	8,6	1	1	1	1	1	1	1	1	1	0	1	-4,157858	273,973531	315,302878	0
15.01.2021	22:14:55	0	0	4,51925	1,65525	310,2552	-0,021	87,315	0	1017,52	6,7	8,6	8,6	1	1	1	1	1	1	1	1	1	0	1	-5,003524	274,079082	314,949798	0
15.01.2021	22:14:56	0	0	4,858252	1,55925	310,302	-0,016	87,326	0	1017,54	6,7	8,6	8,4	1	1	1	1	1	1	1	1	1	0	1	-6,553911	273,955749	312,823893	0
15.01.2021	22:14:57	0	0	4,180356	1,50675	296,82	-0,022	87,322	0	1017,5	6,7	8,6	8,4	1	1	1	1	1	1	1	1	1	0	1	-8,527132	273,887734	310,533623	0
15.01.2021	22:14:58	0	0	3,954391	1,49775	302,9148	-0,018	87,308	0	1017,4	6,7	8,6	8,4	1	1	1	1	1	1	1	1	1	0	1	-5,990134	273,958711	313,401486	0
15.01.2021	22:14:59	0	0	4,180306	1,482	289,6956	-0,01	87,329	0	1017,62	6,7	8,6	8,6	1	1	1	1	1	1	1	1	1	0	1	-6,483439	274,079082	313,469883	0
15.01.2021	22:15:00	0	0	4,745212	1,68525	295,6536	-0,02	87,314	0	1017,6	6,7	8,6	8,6	1	1	1	1	1	1	1	1	1	0	1	-7,329105	274,012117	312,311636	0
15.01.2021	22:15:01	0	0	2,5986	1,8825	300,8808	-0,017	87,311	0	1017,46	6,7	8,6	8,4	1	1	1	1	1	1	1	1	1	0	1	-5,567301	274,079082	314,386021	0
15.01.2021	22:15:02	0	0	3,615443	2,02275	300,2112	-0,013	87,318	0	1017,48	6,7	8,6	8,4	1	1	1	1	1	1	1	1	1	0	1	-5,637773	273,895115	313,457378	0
15.01.2021	22:15:03	0	0	2,5986	2,1645	299,718	-0,018	87,313	0	1017,54	6,7	8,6	8,4	1	1	1	1	1	1	1	1	1	0	1	-6,976744	273,929105	312,276835	0
15.01.2021	22:15:04	0	0	2,485617	2,2005	299,4372	-0,019	87,319	0	1017,56	6,7	8,6	8,4	1	1	1	1	1	1	1	1	1	0	1	-8,879493	273,912842	310,298274	0
15.01.2021	22:15:05	0	0	4,632287	2,211	301,2048	-0,017	87,321	0	1017,54	6,7	8,6	8,4	1	1	1	1	1	1	1	1	1	0	1	-6,483439	273,887734	312,577315	0
15.01.2021	22:15:06	0	0	2,485587	2,2605	306,1116	-0,014	87,318	0	1017,62	6,7	8,6	8,6	1	1	1	1	1	1	1	1	1	0	1	-5,567301	273,951305	313,789785	0
15.01.2021	22:15:07	0	0	2,937512	2,30475	296,8776	-0,023	87,305	0	1017,36	6,7	8,6	8,6	1	1	1	1	1	1	1	1	1	0	1	-8,315715	273,92319	310,910287	0
15.01.2021	22:15:08	0	0	3,954344	2,25	297,4932	-0,016	87,309	0	1017,54	6,7	8,6	8,6	1	1	1	1	1	1	1	1	1	0	1	-4,862579	274,06716	315,035077	0
15.01.2021	22:15:09	0	0	3,389478	2,1435	302,3532	-0,016	87,292	0	1017,42	6,7	8,7	8,4	1	1	1	1	1	1	1	1	1	0	1	-11,41649	274,000236	308,168818	0
15.01.2021	22:15:10	0	0	3,841362	2,1225	306,828	-0,014	87,324	0	1017,5	6,7	8,6	8,6	1	1	1	1	1	1	1	1	1	0	1	-5,003524	274,07014	314,908045	0
15.01.2021	22:15:11	0	0	5,084156	2,06625	301,518	-0,012	87,328	0	1017,52	6,7	8,6	8,6	1	1	1	1	1	1	1	1	1	0	1	-9,161381	274,06567	310,729319	0
15.01.2021	22:15:12	0	0	2,824565	1,9935	299,4228	-0,012	87,315	0	1017,54	6,7	8,6	8,4	1	1	1	1	1	1	1	1	1	0	1	-6,694856	273,940942	312,613909	0
15.01.2021	22:15:13	0	0	2,598569	1,87275	300,168	-0,012	87,312	0	1017,54	6,7	8,6	8,6	1	1	1	1	1	1	1	1	1	0	1	-12,403101	274,07312	307,522383	0
15.01.2021	22:15:14	0	0	2,485617	1,7835	296,1288	-0,012	87,32	0	1017,68	6,7	8,6	8,4	1	1	1	1	1	1	1	1	1	0	1	-5,637773	274,006175	313,975246	0
15.01.2021	22:15:15	0	0	2,372606	1,69425	292,9392	-0,024	87,317	0	1017,46	6,7	8,6	8,6	1	1	1	1	1	1	1	1	1	0	1	-8,80902	273,893638	310,27925	0
15.01.2021	22:15:16	0	0	3,502419	1,6635	287,3664	-0,015	87,305	0	1017,52	6,7	8,6	8,6	1	1	1	1	1	1	1	1	1	0	1	-6,20155	273,952786	313,162441	0
15.01.2021	22:15:17	0	0	3,389437	1,6515	293,6628	-0,018	87,327	0	1017,54	6,7	8,6	8,6	1	1	1	1	1	1	1	1	1	0	1	-5,708245	273,893638	313,380025	0
15.01.2021	22:15:18	0	0	4,858193	1,66725	283,2012	-0,011	87,306	0	1017,48	6,7	8,6	8,6	1	1	1	1	1	1	1	1	1	0	1	-7,470049	274,00469	312,136041	0
15.01.2021	22:15:19	0	0	2,71155	1,71375	291,852	-0,018	87,321	0	1017,66	6,7	8,6	8,6	1	1	1	1	1	1	1	1	1	0	1	-5,708245	273,905453	313,435087	0
15.01.2021	22:15:20	0	0	2,71155	1,7265	291,1968	-0,022	87,319	0	1017,46	6,7	8,6	8,6	1	1	1	1	1	1	1	1	1	0	1	-9,513742	273,892162	309,567648	0
15.01.2021	22:15:21	0	0	4,745212	1,79925	302,5044	-0,018	87,312	0	1017,68	6,7	8,6	8,6	1	1	1	1	1	1	1	1	1	0	1	-8,738548	273,927626	310,508136	0
15.01.2021	22:15:22	0	0	4,406268	1,75425	284,778	-0,018	87,329	0	1017,6	6,7	8,6	8,6	1	1	1	1	1	1	1	1	1	0	1	-6,060606	273,886258	312,993271	0
15.01.2021	22:15:23	0	0	4,971234	1,74225	287,7372	-0,021	87,314	0	1017,5	6,7	8,6	8,4	1	1	1	1	1	1	1	1	1	0	1	-8,668076	274,022518	311,021202	0
15.01.2021	22:15:24	0	0	3,050494	1,69125	290,3832	-0,016	87,317	0	1017,52	6,7	8,6	8,6	1	1	1	1	1	1	1	1	1	0	1	-9,302326	273,912842	309,875441	0
15.01.2021	22:15:25	0	0	3,276456	1,632	279,4788	-0,016	87,318	0	1017,44	6,7	8,6	8,6	1	1	1	1	1	1	1	1	1	0	1	-10,782241	273,91432	308,402415	0
15.01.2021	22:15:26	0	0	3,276495	1,62	294,7608	-0,014	87,318	0	1017,56	6,7	8,6	8,4	1	1	1	1	1	1	1	1	1	0	1	-5,21494	273,886258	313,838937	0
15.01.2021	22:15:27	0	0	3,276495	1,6005	301,2624	-0,023	87,321	0	1017,4	6,6	8,6	8,4	1	1	1	1	1	1	1	1	1	0	1	-4,087385	273,92319	315,138617	0
15.01.2021	22:15:28	0	0	3,954344	1,593	310,6908	-0,014	87,326	0	1017,58	6,7	8,6	8,6	1	1	1	1	1	1	1	1	1	0	1	-9,936575	274,055245	309,905456	0
15.01.2021	22:15:29	0	0	4,858252	1,59675	307,5336	-0,021	87,327	0	1017,52	6,7	8,6	8,4	1	1	1	1	1	1	1	1	1	0	1	-6,342495	274,032925	313,395353	0
15.01.2021	22:15:30	0	0	2,259625	1,5945	316,332	-0,017	87,326	0	1017,48	6,7	8,6	8,6	1	1	1	1	1	1	1	1	1	0	1	-6,976744	273,895115	312,118407	0
15.01.2021	22:15:31	0	0	4,067374	1,686	314,4996	-0,014	87,328	0	1017,5	6,7	8,6	8,4	1	1	1	1	1	1	1	1	1	0	1	-5,426357	273,961674	313,979081	0
15.01.2021	22:15:32	0	0	2,71155	1,824	318,4488	-0,013	87,339	0	1017,66	6,7	8,6	8,6	1	1	1	1	1	1	1	1	1	0	1	-10,42988	273,877405	308,582746	0
15.01.2021	22:15:33	0	0	4,293287	1,836	314,8308	-0,017	87,329	0	1017,52	6,7	8,6	8,6	1	1	1	1	1	1	1	1	1	0	1	-10,077519	274,00469	309,528571	0
15.01.2021	22:15:34	0	0	2,937548	1,85175	318,0852	-0,023	87,322	0	1017,62	6,7	8,6	8,4	1	1	1	1	1	1	1	1	1	0	1	-6,412967	273,877405	312,59966	0
15.01.2021	22:15:35	0	0	3,728426	1,89675	320,0292	-0,014	87,326	0	1017,34	6,7	8,6	8,4	1	1	1	1	1	1	1	1	1	0	1	-4,369274	273,998751	315,209108	0
15.01.2021	22:15:36	0	0	2,824565	1,863	316,5624	-0,012	87,328	0	1017,62	6,7	8,6	8,4	1	1	1	1	1	1	1	1	1	0	1	-5,708245	273,877405	313,304381	0
15.01.2021	22:15:37	0	0	4,745269	1,92075	285,444	-0,016	87,339	0	1017,7	6,7	8,6	8,4	1	1	1	1	1	1	1	1	1	0	1	-5,355884	274,038875	314,409731	0
15.01.2021	22:15:38	0	0	5,084156	1,99275	294,5376	-0,014	87,327	0	1017,38	6,7	8,6	8,6	1	1	1	1	1	1	1	1	1	0	1	-5,778717	274,024005	313,917497	0
15.01.2021	22:15:39	0	0	4,406268	2,04	296,4996	-0,014	87,345	0	1017,48	6,7	8,6	8,6	1	1	1	1	1	1	1	1	1	0	1	-6,8358	274,053757	312,999281	0
15.01.2021	22:15:40	0	0	4,51925	2,085	298,2708	-0,025	87,319	0	1017,36	6,7	8,6	8,6	1	1	1	1	1	1	1	1	1	0	1	-2,818887	273,896591	316,283145	0
15.01.2021	22:15:41	0	0	3,163513	2,1285	293,3568	-0,018	87,32	0	1017,48	6,7	8,6	8,4	1	1	1	1	1	1	1	1	1	0	1	-8,668076	273,899545	310,44772	0
15.01.2021	22:15:42	0	0	4,067325	2,1375	296,82	-0,014	87,335	0	1017,48	6,7	8,6	8,6	1	1	1	1	1	1	1	1	1	0	1	-5,496829	274,028464	314,220199	0
15.01.2021	22:15:43	0	0	2,372606	2,10975	293,2596	-0,016	87,339	0	1017,54	6,7	8,6	8,6	1	1	1	1	1	1	1	1	1	0	1	-6,412967	274,062691	313,463825	0
15.01.2021	22:15:44	0	0	2,824531	2,163	296,8596	-0,015	87,336	0	1017,34	6,7	8,6	8,6	1	1	1	1	1	1	1	1	1	0	1	-10,42988	273,930585	308,830595	0
15.01.2021	22:15:45	0	0	2,485617	2,14125	298,206	-0,013	87,34	0	1017,62	6,7	8,6	8,4	1	1	1	1	1	1	1	1	1	0	1	-9,231853	274,058223	310,62408	0
15.01.2021	22:15:46	0	0	3,841362	2,1675	299,8224	-0,018	87,339	0	1017,62	6,7	8,6	8,6	1	1	1	1	1	1	1	1	1	0	1	-6,060606	273,926147	313,179184	0
15.01.2021	22:15:47	0	0	3,389437	2,2485	292,8708	-0,017	87,337	0	1017,58	6,7	8,6	8,6	1	1	1	1	1	1	1	1	1	0	1	-4,016913	273,871505	314,968226	0
15.01.2021	22:15:48	0	0	2,937548	2,27025	292,2372	-0,017	87,325	0	1017,38	6,7	8,6	8,4	1	1	1	1	1	1	1	1	1	0	1	-8,597604	273,935023	310,683563	0
15.01.2021	22:15:49	0	0	4,971234	2,33025	292,1508	-0,013	87,339	0	1017,48	6,7	8,6	8,4	1	1	1	1	1	1	1	1	1	0	1	-10,993658	273,899545	308,122139	0
15.01.2021	22:15:50	0	0	2,937548	2,355	291,8592	-0,021	87,318	0	1017,4	6,7	8,6	8,4	1	1	1	1	1	1	1	1	1	0	1	-6,906272	274,021032	312,77607	0
15.01.2021	22:15:51	0	0	4,632287	2,31375	288,4356	-0,021	87,33	0	1017,48	6,7	8,6	8,4	1	1	1	1	1	1	1	1	1	0	1	-10,077519	273,886258	308,976358	0
15.01.2021	22:15:52	0	0	2,711582	2,21775	297,8208	-0,017	87,336	0	1017,38	6,7	8,6	8,4	1	1	1	1	1	1	1	1	1	0	1	-4,087385	273,945383	315,242084	0
15.01.2021	22:15:53	0	0	4,858193	2,1675	298,5876	-0,023	87,323	0	1017,3	6,7	8,6	8,6	1	1	1	1	1	1	1	1	1	0	1	-8,033827	274,055245	311,808205	0
15.01.2021	22:15:54	0	0	4,632287	2,18325	292,95	-0,022	87,33	0	1017,52	6,7	8,6	8,4	1	1	1	1	1	1	1	1	1	0	1	-7,82241	273,964638	311,596848	0
15.01.2021	22:15:55	0	0	4,51925	2,235	298,6956	-0,017	87,337	0	1017,54	6,7	8,6	8,6	1	1	1	1	1	1	1	1	1	0	1	-8,033827	274,062691	311,842965	0
15.01.2021	22:15:56	0	0	3,954344	2,247	302,0292	-0,018	87,338	0	1017,46	6,7	8,6	8,6	1	1	1	1	1	1	1	1	1	0	1	-7,117689	274,025491	312,585463	0
15.01.2021	22:15:57	0	0	4,632287	2,27025	300,4632	-0,014	87,333	0	1017,64	6,6	8,6	8,4	1	1	1	1	1	1	1	1	1	0	1	-11,205074	273,886258	307,848803	0
15.01.2021	22:15:58	0	0	4,067325	2,265	298,2564	-0,019	87,327	0	1017,54	6,7	8,6	8,6	1	1	1	1	1	1	1	1	1	0	1	-6,906272	273,961674	312,499166	0
15.01.2021	22:15:59	0	0	2,824531	2,19825	301,2912	-0,018	87,346	0	1017,5	6,7	8,6	8,6	1	1	1	1	1	1	1	1	1	0	1	-7,188161	273,883306	311,851964	0
15.01.2021	22:16:00	0	0	4,180306	2,148	299,7324	-0,013	87,338	0	1017,5	6,7	8,6	8,6	1	1	1	1	1	1	1	1	1	0	1	-5,990134	274,049291	313,824101	0
15.01.2021	22:16:01	0	0	4,180306	2,148	299,7324	-0,013	87,338	0	1017,5	6,7	8,6	8,6	1	1	1	1	1	1	1	1	1	0	1	-5,990134	274,049291	313,824101	0
15.01.2021	22:16:02	0	0	4,858252	2,0955	311,0436	-0,018	87,347	0	1017,5	6,7	8,6	8,4	1	1	1	1	1	1	1	1	1	0	1	-8,879493	273,935023	310,401674	0
15.01.2021	22:16:03	0	0	2,711582	2,1105	304,6896	-0,014	87,347	0	1017,5	6,7	8,6	8,4	1	1	1	1	1	1	1	1	1	0	1	-5,073996	273,909886	314,089995	0
15.01.2021	22:16:04	0	0	3,615443	2,166	312,1524	-0,017	87,351	0	1017,54	6,7	8,6	8,4	1	1	1	1	1	1	1	1	1	0	1	-8,879493	273,908408	310,277612	0
15.01.2021	22:16:05	0	0	3,502461	2,181	317,0304	-0,021	87,349	0	1017,46	6,7	8,6	8,4	1	1	1	1	1	1	1	1	1	0	1	-1,409443	273,892162	317,671947	0
15.01.2021	22:16:06	0	0	5,084156	2,0565	305,0136	-0,013	87,351	0	1017,34	6,7	8,6	8,6	1	1	1	1	1	1	1	1	1	0	1	-5,778717	274,012117	313,862023	0
15.01.2021	22:16:07	0	0	4,067374	1,959	309,2328	-0,02	87,331	0	1017,4	6,7	8,6	8,4	1	1	1	1	1	1	1	1	1	0	1	-6,694856	274,064181	313,18889	0
15.01.2021	22:16:08	0	0	4,971175	1,902	304,6104	-0,019	87,342	0	1017,42	6,7	8,6	8,6	1	1	1	1	1	1	1	1	1	0	1	-8,668076	273,948344	310,6752	0
15.01.2021	22:16:09	0	0	2,824565	1,84125	301,284	-0,019	87,365	0	1017,58	6,7	8,6	8,4	1	1	1	1	1	1	1	1	1	0	1	-9,866103	274,07312	310,059381	0
15.01.2021	22:16:10	0	0	3,728426	1,80675	315,2484	-0,016	87,357	0	1017,54	6,7	8,6	8,4	1	1	1	1	1	1	1	1	1	0	1	-7,258633	274,021032	312,423709	0
15.01.2021	22:16:11	0	0	4,519304	1,7325	312,48	-0,013	87,343	0	1017,6	6,7	8,6	8,4	1	1	1	1	1	1	1	1	1	0	1	-11,346018	274,058223	308,509915	0
15.01.2021	22:16:12	0	0	2,033662	1,70925	315,1728	-0,017	87,35	0	1017,5	6,7	8,6	8,6	1	1	1	1	1	1	1	1	1	0	1	-8,668076	274,00766	310,951872	0
15.01.2021	22:16:13	0	0	3,615443	1,632	309,1932	-0,013	87,345	0	1017,48	6,7	8,6	8,4	1	1	1	1	1	1	1	1	1	0	1	-11,41649	274,010631	308,217319	0
15.01.2021	22:16:14	0	0	4,745212	1,63125	318,8412	-0,023	87,345	0	1017,56	6,7	8,6	8,6	1	1	1	1	1	1	1	1	1	0	1	-8,315715	274,052268	311,512416	0
15.01.2021	22:16:15	0	0	3,163513	1,64175	326,0844	-0,014	87,357	0	1017,54	6,7	8,6	8,4	1	1	1	1	1	1	1	1	1	0	1	-9,936575	274,00469	309,669515	0
15.01.2021	22:16:16	0	0	2,485617	1,7325	314,4096	-0,018	87,347	0	1017,34	6,7	8,6	8,4	1	1	1	1	1	1	1	1	1	0	1	-9,161381	274,074611	310,771061	0
15.01.2021	22:16:17	0	0	3,389437	1,83075	315,5544	-0,019	87,349	0	1017,36	6,7	8,6	8,6	1	1	1	1	1	1	1	1	1	0	1	-6,624383	273,951305	312,732702	0
15.01.2021	22:16:18	0	0	4,745269	1,84875	313,2504	-0,019	87,357	0	1017,5	6,7	8,6	8,4	1	1	1	1	1	1	1	1	1	0	1	-6,060606	274,010631	313,573203	0
15.01.2021	22:16:19	0	0	4,406268	1,93425	315,9936	-0,022	87,344	0	1017,62	6,7	8,6	8,6	1	1	1	1	1	1	1	1	1	0	1	-9,090909	274,012117	310,549831	0
15.01.2021	22:16:20	0	0	2,5986	1,9905	317,3328	-0,014	87,368	0	1017,6	6,7	8,6	8,4	1	1	1	1	1	1	1	1	1	0	1	-8,174771	273,87003	310,803498	0
15.01.2021	22:16:21	0	0	4,745269	2,00475	316,9512	-0,013	87,349	0	1017,62	6,7	8,6	8,4	1	1	1	1	1	1	1	1	1	0	1	-5,355884	273,926147	313,883905	0
15.01.2021	22:16:22	0	0	2,485587	2,0265	315,8604	-0,024	87,356	0	1017,42	6,7	8,6	8,6	1	1	1	1	1	1	1	1	1	0	1	-5,496829	273,886258	313,557048	0
15.01.2021	22:16:23	0	0	2,937548	2,028	313,5888	-0,023	87,358	0	1017,26	6,7	8,6	8,4	1	1	1	1	1	1	1	1	1	0	1	-7,329105	274,00469	312,276985	0
15.01.2021	22:16:24	0	0	2,485587	2,0145	318,0816	-0,02	87,358	0	1017,54	6,7	8,6	8,6	1	1	1	1	1	1	1	1	1	0	1	-6,765328	273,930585	312,495148	0
15.01.2021	22:16:25	0	0	3,6154	1,9575	312,2136	-0,025	87,339	0	1017,54	6,7	8,6	8,6	1	1	1	1	1	1	1	1	1	0	1	-4,651163	273,901022	314,471517	0
15.01.2021	22:16:26	0	0	5,084217	1,9455	315,594	-0,016	87,355	0	1017,56	6,7	8,6	8,4	1	1	1	1	1	1	1	1	1	0	1	-7,399577	274,026978	312,310512	0
15.01.2021	22:16:27	0	0	4,406321	1,893	315,8892	-0,019	87,334	0	1017,5	6,7	8,6	8,4	1	1	1	1	1	1	1	1	1	0	1	-3,382664	274,040363	316,389895	0
15.01.2021	22:16:28	0	0	3,841408	1,7835	305,7732	-0,022	87,35	0	1017,32	6,7	8,6	8,4	1	1	1	1	1	1	1	1	1	0	1	-6,765328	274,012117	312,875413	0
15.01.2021	22:16:29	0	0	4,745269	1,713	297,8712	-0,013	87,359	0	1017,58	6,7	8,6	8,4	1	1	1	1	1	1	1	1	1	0	1	-8,45666	274,001721	311,135575	0
15.01.2021	22:16:30	0	0	2,485587	1,686	299,7252	-0,019	87,349	0	1017,5	6,7	8,6	8,6	1	1	1	1	1	1	1	1	1	0	1	-9,302326	274,055245	310,539706	0
15.01.2021	22:16:31	0	0	4,971175	1,63875	300,906	-0,02	87,346	0	1017,46	6,7	8,6	8,6	1	1	1	1	1	1	1	1	1	0	1	-6,976744	273,942422	312,338922	0
15.01.2021	22:16:32	0	0	4,51925	1,65525	304,9884	-0,016	87,356	0	1017,62	6,7	8,6	8,6	1	1	1	1	1	1	1	1	1	0	1	-4,651163	274,06865	315,253449	0
15.01.2021	22:16:33	0	0	3,728426	1,6995	302,4972	-0,015	87,351	0	1017,5	6,7	8,6	8,4	1	1	1	1	1	1	1	1	1	0	1	-6,765328	274,031438	312,965579	0
15.01.2021	22:16:34	0	0	3,163513	1,734	311,04	-0,019	87,333	0	1017,54	6,7	8,6	8,4	1	1	1	1	1	1	1	1	1	0	1	-4,933051	274,037387	314,825621	0
15.01.2021	22:16:35	0	0	2,71155	1,7895	288,4392	-0,016	87,331	0	1017,42	6,7	8,6	8,6	1	1	1	1	1	1	1	1	1	0	1	-5,567301	273,92319	313,658701	0
15.01.2021	22:16:36	0	0	3,502461	1,8435	287,0352	-0,022	87,337	0	1017,52	6,7	8,6	8,4	1	1	1	1	1	1	1	1	1	0	1	-6,20155	273,895115	312,8936	0
15.01.2021	22:16:37	0	0	4,858193	1,818	312,5016	-0,018	87,367	0	1017,5	6,7	8,6	8,6	1	1	1	1	1	1	1	1	1	0	1	-2,60747	274,024005	317,088744	0
15.01.2021	22:16:38	0	0	2,937548	1,65075	304,9776	-0,021	87,359	0	1017,44	6,7	8,6	8,4	1	1	1	1	1	1	1	1	1	0	1	-8,45666	274,053757	311,378421	0
15.01.2021	22:16:39	0	0	4,632231	1,56225	319,5072	-0,024	87,348	0	1017,46	6,7	8,6	8,6	1	1	1	1	1	1	1	1	1	0	1	-6,976744	274,026978	312,733345	0
15.01.2021	22:16:40	0	0	3,05053	1,49925	332,334	-0,022	87,345	0	1017,4	6,7	8,6	8,4	1	1	1	1	1	1	1	1	1	0	1	-6,131078	273,902499	312,998485	0
15.01.2021	22:16:41	0	0	3,05053	1,37025	336,438	-0,016	87,365	0	1017,62	6,7	8,6	8,4	1	1	1	1	1	1	1	1	1	0	1	-9,513742	274,025491	310,18941	0
15.01.2021	22:16:42	0	0	3,163475	1,287	321,1308	-0,017	87,341	0	1017,42	6,7	8,6	8,6	1	1	1	1	1	1	1	1	1	0	1	-8,949965	273,886258	310,103912	0
15.01.2021	22:16:43	0	0	2,485617	1,16625	317,7756	-0,016	87,356	0	1017,54	6,7	8,6	8,4	1	1	1	1	1	1	1	1	1	0	1	-8,738548	274,016574	310,92299	0
15.01.2021	22:16:44	0	0	2,5986	1,17825	306,198	-0,023	87,342	0	1017,4	6,7	8,6	8,4	1	1	1	1	1	1	1	1	1	0	1	-11,839323	274,058223	308,01661	0
15.01.2021	22:16:45	0	0	3,389478	1,1925	308,088	-0,022	87,361	0	1017,48	6,7	8,6	8,4	1	1	1	1	1	1	1	1	1	0	1	-9,231853	274,026978	310,478236	0
15.01.2021	22:16:46	0	0	3,841362	1,22925	306,4212	-0,022	87,344	0	1017,44	6,7	8,6	8,6	1	1	1	1	1	1	1	1	1	0	1	-8,104299	273,88921	310,963334	0
15.01.2021	22:16:47	0	0	3,389478	1,34025	295,5816	-0,018	87,351	0	1017,46	6,7	8,6	8,4	1	1	1	1	1	1	1	1	1	0	1	-10,288936	273,975014	309,178715	0
15.01.2021	22:16:48	0	0	3,841362	1,44075	302,5044	-0,02	87,352	0	1017,54	6,7	8,6	8,6	1	1	1	1	1	1	1	1	1	0	1	-8,80902	273,890686	310,265491	0
15.01.2021	22:16:49	0	0	2,937548	1,488	302,8572	-0,016	87,35	0	1017,58	6,7	8,6	8,4	1	1	1	1	1	1	1	1	1	0	1	-6,624383	273,986879	312,898612	0
15.01.2021	22:16:50	0	0	3,502419	1,52325	303,894	-0,015	87,356	0	1017,48	6,7	8,6	8,6	1	1	1	1	1	1	1	1	1	0	1	-4,792107	273,87888	314,227393	0
15.01.2021	22:16:51	0	0	4,067374	1,5285	301,5936	-0,019	87,355	0	1017,34	6,7	8,6	8,4	1	1	1	1	1	1	1	1	1	0	1	-5,21494	273,945383	314,11453	0
15.01.2021	22:16:52	0	0	4,745212	1,488	302,526	-0,021	87,34	0	1017,62	6,7	8,6	8,6	1	1	1	1	1	1	1	1	1	0	1	-8,949965	274,034413	310,794824	0
15.01.2021	22:16:53	0	0	3,163513	1,4925	300,4632	-0,02	87,351	0	1017,38	6,7	8,6	8,4	1	1	1	1	1	1	1	1	1	0	1	-6,060606	273,88921	313,007026	0
15.01.2021	22:16:54	0	0	2,824531	1,527	313,5672	-0,02	87,358	0	1017,48	6,7	8,6	8,6	1	1	1	1	1	1	1	1	1	0	1	-4,792107	273,96612	314,634063	0
15.01.2021	22:16:55	0	0	4,293339	1,551	316,5696	-0,014	87,359	0	1017,52	6,7	8,6	8,4	1	1	1	1	1	1	1	1	1	0	1	-5,285412	273,901022	313,837267	0
15.01.2021	22:16:56	0	0	3,954391	1,51875	315,4464	-0,017	87,352	0	1017,54	6,7	8,6	8,4	1	1	1	1	1	1	1	1	1	0	1	-3,735025	273,932064	315,532347	0
15.01.2021	22:16:57	0	0	3,502419	1,3935	314,4096	-0,023	87,354	0	1017,52	6,7	8,6	8,6	1	1	1	1	1	1	1	1	1	0	1	-6,483439	273,899545	312,632357	0
15.01.2021	22:16:58	0	0	2,71155	1,3515	300,4056	-0,025	87,345	0	1017,5	6,7	8,6	8,6	1	1	1	1	1	1	1	1	1	0	1	-8,174771	273,909886	310,98922	0
15.01.2021	22:16:59	0	0	2,485587	1,3425	308,5056	-0,02	87,343	0	1017,64	6,7	8,6	8,6	1	1	1	1	1	1	1	1	1	0	1	-6,342495	273,887734	312,71826	0
15.01.2021	22:17:00	0	0	2,5986	1,4595	305,352	-0,022	87,35	0	1017,48	6,7	8,6	8,4	1	1	1	1	1	1	1	1	1	0	1	-10,570825	273,911364	308,600054	0
15.01.2021	22:17:01	0	0	4,971175	1,42725	312,1884	-0,02	87,363	0	1017,64	6,7	8,6	8,6	1	1	1	1	1	1	1	1	1	0	1	-5,285412	273,887734	313,775342	0
15.01.2021	22:17:02	0	0	3,05053	1,32675	310,2336	-0,021	87,363	0	1017,54	6,7	8,6	8,4	1	1	1	1	1	1	1	1	1	0	1	-5,919662	274,001721	313,672573	0
15.01.2021	22:17:03	0	0	2,372606	1,314	306,828	-0,017	87,344	0	1017,48	6,7	8,6	8,6	1	1	1	1	1	1	1	1	1	0	1	-8,104299	273,883306	310,935826	0
15.01.2021	22:17:04	0	0	4,293339	1,257	301,1976	-0,018	87,35	0	1017,56	6,7	8,6	8,4	1	1	1	1	1	1	1	1	1	0	1	-8,174771	273,997267	311,396685	0
15.01.2021	22:17:05	0	0	4,971175	1,21125	300,4668	-0,015	87,354	0	1017,46	6,7	8,6	8,6	1	1	1	1	1	1	1	1	1	0	1	-10,42988	274,07014	309,481688	0
15.01.2021	22:17:06	0	0	2,598569	1,2105	305,3772	-0,026	87,349	0	1017,34	6,7	8,6	8,6	1	1	1	1	1	1	1	1	1	0	1	-7,258633	274,015088	312,395972	0
15.01.2021	22:17:07	0	0	2,372635	1,2105	300,8484	-0,024	87,352	0	1017,44	6,7	8,6	8,4	1	1	1	1	1	1	1	1	1	0	1	-8,386187	274,06865	311,518424	0
15.01.2021	22:17:08	0	0	4,745269	1,22325	303,1452	-0,026	87,349	0	1017,4	6,7	8,6	8,4	1	1	1	1	1	1	1	1	1	0	1	-8,879493	274,000236	310,705815	0
15.01.2021	22:17:09	0	0	4,293287	1,22475	305,0424	-0,021	87,337	0	1017,4	6,7	8,6	8,6	1	1	1	1	1	1	1	1	1	0	1	-10,852713	273,887734	308,208041	0
15.01.2021	22:17:10	0	0	4,51925	1,22175	318,2004	-0,026	87,34	0	1017,4	6,7	8,6	8,6	1	1	1	1	1	1	1	1	1	0	1	-9,725159	274,006175	309,887861	0
15.01.2021	22:17:11	0	0	2,711582	1,25025	309,8952	-0,02	87,355	0	1017,48	6,7	8,6	8,4	1	1	1	1	1	1	1	1	1	0	1	-7,610994	274,021032	312,071349	0
15.01.2021	22:17:12	0	0	4,519304	1,305	306,0684	-0,02	87,339	0	1017,48	6,7	8,6	8,4	1	1	1	1	1	1	1	1	1	0	1	-8,597604	273,912842	310,580163	0
15.01.2021	22:17:13	0	0	4,51925	1,251	313,1532	-0,026	87,356	0	1017,54	6,7	8,6	8,6	1	1	1	1	1	1	1	1	1	0	1	-2,043693	274,056734	317,805289	0
15.01.2021	22:17:14	0	0	2,485587	1,2465	308,5884	-0,022	87,345	0	1017,52	6,7	8,6	8,6	1	1	1	1	1	1	1	1	1	0	1	-8,033827	273,890686	311,040684	0
15.01.2021	22:17:15	0	0	4,51925	1,22625	314,3556	-0,024	87,353	0	1017,46	6,7	8,6	8,6	1	1	1	1	1	1	1	1	1	0	1	-8,949965	273,945383	310,379505	0
15.01.2021	22:17:16	0	0	5,084217	1,19325	327,7224	-0,023	87,341	0	1017,56	6,7	8,6	8,4	1	1	1	1	1	1	1	1	1	0	1	-9,866103	274,040363	309,906456	0
15.01.2021	22:17:17	0	0	4,519304	1,1835	308,8224	-0,022	87,352	0	1017,52	6,7	8,6	8,4	1	1	1	1	1	1	1	1	1	0	1	-6,8358	273,935023	312,445367	0
15.01.2021	22:17:18	0	0	4,632287	1,16175	303,2532	-0,027	87,349	0	1017,44	6,7	8,6	8,4	1	1	1	1	1	1	1	1	1	0	1	-6,694856	273,880355	312,331519	0
15.01.2021	22:17:19	0	0	3,954391	1,14075	300,8772	-0,022	87,343	0	1017,58	6,7	8,6	8,4	1	1	1	1	1	1	1	1	1	0	1	-9,090909	274,003205	310,508253	0
15.01.2021	22:17:20	0	0	4,067374	1,18125	293,7132	-0,019	87,355	0	1017,48	6,7	8,6	8,4	1	1	1	1	1	1	1	1	1	0	1	-8,315715	273,901022	310,806964	0
15.01.2021	22:17:21	0	0	4,632287	1,17975	302,4036	-0,018	87,353	0	1017,48	6,7	8,6	8,4	1	1	1	1	1	1	1	1	1	0	1	-8,245243	274,016574	311,416295	0
15.01.2021	22:17:22	0	0	3,728381	1,221	302,418	-0,021	87,347	0	1017,46	6,7	8,6	8,6	1	1	1	1	1	1	1	1	1	0	1	-4,087385	274,056734	315,761597	0
15.01.2021	22:17:23	0	0	3,728426	1,28475	308,4516	-0,025	87,341	0	1017,36	6,7	8,6	8,4	1	1	1	1	1	1	1	1	1	0	1	-7,470049	273,927626	311,776635	0
15.01.2021	22:17:24	0	0	3,163475	1,3275	304,9812	-0,021	87,365	0	1017,66	6,7	8,6	8,6	1	1	1	1	1	1	1	1	1	0	1	-6,272023	273,886258	312,781855	0
15.01.2021	22:17:25	0	0	2,711582	1,3425	303,9156	-0,018	87,348	0	1017,6	6,7	8,6	8,4	1	1	1	1	1	1	1	1	1	0	1	-2,748414	273,933543	316,525855	0
15.01.2021	22:17:26	0	0	3,050494	1,34325	300,816	-0,018	87,363	0	1017,5	6,7	8,6	8,6	1	1	1	1	1	1	1	1	1	0	1	-4,862579	274,056734	314,986403	0
15.01.2021	22:17:27	0	0	3,954391	1,35675	304,308	-0,021	87,363	0	1017,44	6,7	8,6	8,4	1	1	1	1	1	1	1	1	1	0	1	-9,725159	274,021032	309,957184	0
15.01.2021	22:17:28	0	0	4,632287	1,38675	290,0592	-0,019	87,361	0	1017,76	6,7	8,6	8,4	1	1	1	1	1	1	1	1	1	0	1	-6,483439	273,880355	312,542935	0
15.01.2021	22:17:29	0	0	3,841408	1,49175	294,1236	-0,024	87,357	0	1017,32	6,7	8,6	8,4	1	1	1	1	1	1	1	1	1	0	1	-5,426357	273,893638	313,661914	0
15.01.2021	22:17:30	0	0	2,71155	1,55625	311,7924	-0,024	87,361	0	1017,48	6,7	8,6	8,6	1	1	1	1	1	1	1	1	1	0	1	-7,540521	273,939462	311,761343	0
15.01.2021	22:17:31	0	0	4,293287	1,60575	300,42	-0,027	87,363	0	1017,46	6,7	8,6	8,6	1	1	1	1	1	1	1	1	1	0	1	-8,174771	274,077591	311,771591	0
15.01.2021	22:17:32	0	0	4,745212	1,623	303,9048	-0,026	87,353	0	1017,54	6,7	8,6	8,6	1	1	1	1	1	1	1	1	1	0	1	-5,21494	274,026978	314,495149	0
15.01.2021	22:17:33	0	0	3,276495	1,67025	306,4068	-0,02	87,361	0	1017,6	6,7	8,6	8,4	1	1	1	1	1	1	1	1	1	0	1	-8,80902	274,012117	310,83172	0
15.01.2021	22:17:34	0	0	3,05053	1,70025	302,3676	-0,025	87,361	0	1017,5	6,7	8,6	8,4	1	1	1	1	1	1	1	1	1	0	1	-2,466526	273,918754	316,738801	0
15.01.2021	22:17:35	0	0	4,858252	1,73025	305,4348	-0,018	87,366	0	1017,42	6,7	8,6	8,4	1	1	1	1	1	1	1	1	1	0	1	-5,355884	274,053757	314,479197	0
15.01.2021	22:17:36	0	0	4,745269	1,65525	309,8808	-0,029	87,348	0	1017,54	6,7	8,6	8,4	1	1	1	1	1	1	1	1	1	0	1	-7,117689	273,921711	312,101421	0
15.01.2021	22:17:37	0	0	4,632231	1,623	295,5744	-0,03	87,362	0	1017,48	6,7	8,6	8,6	1	1	1	1	1	1	1	1	1	0	1	-10,218464	273,890686	308,856047	0
15.01.2021	22:17:38	0	0	1,807722	1,6155	315,8856	-0,028	87,365	0	1017,26	6,7	8,6	8,4	1	1	1	1	1	1	1	1	1	0	1	-4,721635	274,07163	315,196891	0
15.01.2021	22:17:39	0	0	4,519304	1,67175	304,5528	-0,023	87,36	0	1017,6	6,7	8,6	8,4	1	1	1	1	1	1	1	1	1	0	1	-4,016913	273,977979	315,46457	0
15.01.2021	22:17:40	0	0	2,711582	1,66125	309,1716	-0,026	87,354	0	1017,42	6,7	8,6	8,4	1	1	1	1	1	1	1	1	1	0	1	-7,329105	274,07163	312,589421	0
15.01.2021	22:17:41	0	0	3,502419	1,6185	314,4492	-0,022	87,358	0	1017,4	6,7	8,6	8,6	1	1	1	1	1	1	1	1	1	0	1	-8,527132	273,988363	311,002785	0
15.01.2021	22:17:42	0	0	2,824565	1,5945	311,364	-0,019	87,365	0	1017,46	6,7	8,6	8,4	1	1	1	1	1	1	1	1	1	0	1	-9,584214	273,875929	309,421539	0
15.01.2021	22:17:43	0	0	2,485617	1,542	315,4824	-0,023	87,363	0	1017,5	6,7	8,6	8,4	1	1	1	1	1	1	1	1	1	0	1	-5,21494	273,92319	314,011062	0
15.01.2021	22:17:44	0	0	3,389437	1,52325	310,9896	-0,023	87,363	0	1017,56	6,7	8,6	8,6	1	1	1	1	1	1	1	1	1	0	1	-9,936575	273,880355	309,089799	0
15.01.2021	22:17:45	0	0	4,293339	1,452	297,1872	-0,023	87,364	0	1017,52	6,7	8,6	8,4	1	1	1	1	1	1	1	1	1	0	1	-6,906272	273,940942	312,402493	0
15.01.2021	22:17:46	0	0	4,858252	1,488	304,0128	-0,023	87,355	0	1017,46	6,7	8,6	8,4	1	1	1	1	1	1	1	1	1	0	1	-6,272023	274,06567	313,618678	0
15.01.2021	22:17:47	0	0	2,71155	1,49475	311,0292	-0,024	87,353	0	1017,5	6,7	8,6	8,6	1	1	1	1	1	1	1	1	1	0	1	-8,80902	273,915798	310,382525	0
15.01.2021	22:17:48	0	0	2,598569	1,46175	303,8976	-0,02	87,358	0	1017,62	6,7	8,6	8,6	1	1	1	1	1	1	1	1	1	0	1	-7,82241	273,868555	311,148989	0
15.01.2021	22:17:49	0	0	4,067374	1,482	301,2228	-0,026	87,352	0	1017,46	6,7	8,6	8,4	1	1	1	1	1	1	1	1	1	0	1	-5,84919	273,988363	313,680727	0
15.01.2021	22:17:50	0	0	2,937548	1,49325	309,1608	-0,019	87,365	0	1017,6	6,7	8,6	8,4	1	1	1	1	1	1	1	1	1	0	1	-3,875969	274,043338	315,910479	0
15.01.2021	22:17:51	0	0	3,728426	1,54425	310,2516	-0,023	87,363	0	1017,52	6,7	8,6	8,4	1	1	1	1	1	1	1	1	1	0	1	-4,016913	274,00469	315,589177	0
15.01.2021	22:17:52	0	0	3,841362	1,55025	311,76	-0,028	87,356	0	1017,54	6,7	8,6	8,6	1	1	1	1	1	1	1	1	1	0	1	-9,302326	274,012117	310,338415	0
15.01.2021	22:17:53	0	0	4,293339	1,52625	312,1524	-0,021	87,349	0	1017,5	6,7	8,6	8,4	1	1	1	1	1	1	1	1	1	0	1	-4,510218	274,034413	315,23457	0
15.01.2021	22:17:54	0	0	3,05053	1,4565	314,8056	-0,013	87,355	0	1017,62	6,7	8,6	8,4	1	1	1	1	1	1	1	1	1	0	1	-0,845666	273,908408	318,311438	0
15.01.2021	22:17:55	0	0	4,971234	1,44525	308,0448	-0,023	87,37	0	1017,58	6,6	8,6	8,4	1	1	1	1	1	1	1	1	1	0	1	-7,047216	273,920233	312,165001	0
15.01.2021	22:17:56	0	0	3,728381	1,4385	297,8244	-0,024	87,373	0	1017,46	6,7	8,6	8,6	1	1	1	1	1	1	1	1	1	0	1	-8,738548	274,034413	311,00624	0
15.01.2021	22:17:57	0	0	4,632287	1,44525	295,578	-0,025	87,37	0	1017,46	6,7	8,6	8,4	1	1	1	1	1	1	1	1	1	0	1	-6,976744	273,883306	312,06338	0
15.01.2021	22:17:58	0	0	3,728426	1,41075	299,664	-0,031	87,361	0	1017,46	6,7	8,6	8,4	1	1	1	1	1	1	1	1	1	0	1	-7,540521	274,001721	312,051713	0
15.01.2021	22:17:59	0	0	2,259652	1,38525	297,27	-0,023	87,369	0	1017,48	6,7	8,6	8,4	1	1	1	1	1	1	1	1	1	0	1	-5,21494	274,049291	314,599294	0
15.01.2021	22:18:00	0	0	3,954391	1,44075	295,0776	-0,024	87,356	0	1017,58	6,7	8,6	8,4	1	1	1	1	1	1	1	1	1	0	1	-7,188161	274,00469	312,41793	0
15.01.2021	22:18:01	0	0	4,293339	1,54575	293,2992	-0,024	87,361	0	1017,48	6,6	8,6	8,4	1	1	1	1	1	1	1	1	1	0	1	-5,003524	273,886258	314,050354	0
15.01.2021	22:18:02	0	0	3,50244	1,58175	296,496	-0,022	87,36	0	1017,7	6,7	8,6	8,5	1	1	1	1	1	1	1	1	1	0	1	-3,875969	273,898068	315,232945	0
15.01.2021	22:18:03	0	0	3,954391	1,5405	295,1676	-0,023	87,351	0	1017,56	6,7	8,6	8,4	1	1	1	1	1	1	1	1	1	0	1	-6,342495	273,992814	313,208189	0
15.01.2021	22:18:04	0	0	3,050494	1,42875	303,9012	-0,027	87,357	0	1017,56	6,7	8,6	8,6	1	1	1	1	1	1	1	1	1	0	1	-6,694856	273,911364	312,476023	0
15.01.2021	22:18:05	0	0	4,745212	1,341	295,146	-0,024	87,361	0	1017,62	6,7	8,6	8,6	1	1	1	1	1	1	1	1	1	0	1	-7,188161	274,016574	312,473378	0
15.01.2021	22:18:06	0	0	4,858193	1,407	304,236	-0,023	87,347	0	1017,5	6,7	8,6	8,6	1	1	1	1	1	1	1	1	1	0	1	-8,949965	274,028464	310,767063	0
15.01.2021	22:18:07	0	0	3,615443	1,56975	296,4096	-0,024	87,341	0	1017,4	6,7	8,6	8,4	1	1	1	1	1	1	1	1	1	0	1	-6,694856	274,043338	313,091593	0
15.01.2021	22:18:08	0	0	3,954391	1,6815	307,1736	-0,022	87,355	0	1017,42	6,7	8,6	8,4	1	1	1	1	1	1	1	1	1	0	1	-6,20155	274,031438	313,529356	0
15.01.2021	22:18:09	0	0	3,615443	1,63275	302,8248	-0,026	87,367	0	1017,44	6,7	8,6	8,4	1	1	1	1	1	1	1	1	1	0	1	-6,553911	273,908408	312,603193	0
15.01.2021	22:18:10	0	0	4,745269	1,635	288,8352	-0,026	87,354	0	1017,36	6,7	8,6	8,4	1	1	1	1	1	1	1	1	1	0	1	-9,372798	274,026978	310,337292	0
15.01.2021	22:18:11	0	0	4,51925	1,542	303,2136	-0,021	87,361	0	1017,66	6,7	8,6	8,6	1	1	1	1	1	1	1	1	1	0	1	-6,694856	274,052268	313,133276	0
15.01.2021	22:18:12	0	0	2,937512	1,41825	300,834	-0,026	87,354	0	1017,54	6,6	8,6	8,6	1	1	1	1	1	1	1	1	1	0	1	-7,82241	273,909886	311,341581	0
15.01.2021	22:18:13	0	0	4,067374	1,41525	297,864	-0,025	87,347	0	1017,58	6,6	8,6	8,4	1	1	1	1	1	1	1	1	1	0	1	-6,694856	274,013602	312,952817	0
15.01.2021	22:18:14	0	0	3,389478	1,4775	293,742	-0,027	87,364	0	1017,46	6,7	8,6	8,4	1	1	1	1	1	1	1	1	1	0	1	-9,161381	274,050779	310,659801	0
15.01.2021	22:18:15	0	0	3,954391	1,52625	295,5636	-0,02	87,36	0	1017,72	6,7	8,6	8,4	1	1	1	1	1	1	1	1	1	0	1	-5,567301	274,001721	314,024934	0
15.01.2021	22:18:16	0	0	3,276495	1,5735	294,1308	-0,028	87,37	0	1017,5	6,7	8,6	8,4	1	1	1	1	1	1	1	1	1	0	1	-3,523608	273,867081	315,440922	0
15.01.2021	22:18:17	0	0	2,372635	1,611	294,4512	-0,027	87,35	0	1017,5	6,7	8,6	8,4	1	1	1	1	1	1	1	1	1	0	1	-3,382664	274,021032	316,299678	0
15.01.2021	22:18:18	0	0	3,954391	1,56675	302,8752	-0,025	87,367	0	1017,52	6,7	8,6	8,4	1	1	1	1	1	1	1	1	1	0	1	-4,862579	273,867081	314,101951	0
15.01.2021	22:18:19	0	0	3,163475	1,50225	296,4852	-0,019	87,354	0	1017,46	6,7	8,6	8,6	1	1	1	1	1	1	1	1	1	0	1	-5,919662	274,022518	313,769616	0
15.01.2021	22:18:20	0	0	4,858252	1,527	299,0196	-0,026	87,364	0	1017,64	6,7	8,6	8,4	1	1	1	1	1	1	1	1	1	0	1	-6,8358	274,046314	312,96454	0
15.01.2021	22:18:21	0	0	2,824565	1,54125	296,8344	-0,02	87,362	0	1017,48	6,7	8,6	8,4	1	1	1	1	1	1	1	1	1	0	1	-6,8358	273,99133	312,707961	0
15.01.2021	22:18:22	0	0	2,711582	1,51725	304,578	-0,028	87,369	0	1017,66	6,7	8,6	8,4	1	1	1	1	1	1	1	1	1	0	1	-5,355884	273,994298	314,201723	0
15.01.2021	22:18:23	0	0	3,502461	1,4535	319,5036	-0,019	87,372	0	1017,6	6,7	8,6	8,4	1	1	1	1	1	1	1	1	1	0	1	-5,919662	273,88921	313,147971	0
15.01.2021	22:18:24	0	0	4,067325	1,37475	326,0052	-0,025	87,366	0	1017,34	6,6	8,6	8,6	1	1	1	1	1	1	1	1	1	0	1	-3,59408	273,983912	315,915075	0
15.01.2021	22:18:25	0	0	3,841408	1,29075	320,7312	-0,027	87,38	0	1017,3	6,7	8,6	8,4	1	1	1	1	1	1	1	1	1	0	1	-2,60747	274,043338	317,178978	0
15.01.2021	22:18:26	0	0	3,728426	1,27875	312,2136	-0,027	87,354	0	1017,62	6,7	8,6	8,4	1	1	1	1	1	1	1	1	1	0	1	-6,553911	274,000236	313,031397	0
15.01.2021	22:18:27	0	0	2,033687	1,25775	314,4672	-0,027	87,364	0	1017,66	6,7	8,6	8,4	1	1	1	1	1	1	1	1	1	0	1	-7,188161	273,865607	311,769501	0
15.01.2021	22:18:28	0	0	3,728381	1,308	320,3316	-0,022	87,365	0	1017,58	6,7	8,6	8,6	1	1	1	1	1	1	1	1	1	0	1	-7,117689	273,91432	312,066967	0
15.01.2021	22:18:29	0	0	2,824531	1,3035	314,802	-0,019	87,374	0	1017,44	6,7	8,6	8,6	1	1	1	1	1	1	1	1	1	0	1	-9,302326	273,893638	309,785945	0
15.01.2021	22:18:30	0	0	3,6154	1,28325	308,0664	-0,022	87,353	0	1017,56	6,7	8,6	8,6	1	1	1	1	1	1	1	1	1	0	1	-10,218464	274,029951	309,505503	0
15.01.2021	22:18:31	0	0	4,067374	1,344	319,2192	-0,028	87,364	0	1017,42	6,7	8,6	8,4	1	1	1	1	1	1	1	1	1	0	1	-3,312192	274,006175	316,300827	0
15.01.2021	22:18:32	0	0	3,841362	1,32975	315,1764	-0,022	87,368	0	1017,54	6,7	8,6	8,6	1	1	1	1	1	1	1	1	1	0	1	-11,486963	274,016574	308,174576	0
15.01.2021	22:18:33	0	0	4,519304	1,30575	317,0592	-0,02	87,358	0	1017,66	6,7	8,6	8,4	1	1	1	1	1	1	1	1	1	0	1	-5,567301	274,000236	314,018007	0
15.01.2021	22:18:34	0	0	3,728426	1,29375	307,5552	-0,022	87,371	0	1017,7	6,7	8,6	8,4	1	1	1	1	1	1	1	1	1	0	1	-6,694856	273,855289	312,214745	0
15.01.2021	22:18:35	0	0	5,084217	1,30875	313,9344	-0,021	87,369	0	1017,5	6,7	8,6	8,4	1	1	1	1	1	1	1	1	1	0	1	-6,272023	273,929105	312,981557	0
15.01.2021	22:18:36	0	0	2,5986	1,31475	328,6836	-0,021	87,378	0	1017,54	6,7	8,6	8,4	1	1	1	1	1	1	1	1	1	0	1	-7,963354	274,052268	311,864777	0
15.01.2021	22:18:37	0	0	4,180306	1,26375	327,8448	-0,021	87,361	0	1017,52	6,7	8,6	8,6	1	1	1	1	1	1	1	1	1	0	1	-8,104299	273,973531	311,356437	0
15.01.2021	22:18:38	0	0	4,519304	1,254	323,7264	-0,029	87,365	0	1017,5	6,7	8,6	8,4	1	1	1	1	1	1	1	1	1	0	1	-5,708245	273,877405	313,304381	0
15.01.2021	22:18:39	0	0	2,824565	1,266	324,2988	-0,023	87,376	0	1017,56	6,7	8,6	8,4	1	1	1	1	1	1	1	1	1	0	1	-7,047216	273,939462	312,254648	0
15.01.2021	22:18:40	0	0	3,163513	1,27725	320,364	-0,024	87,368	0	1017,52	6,7	8,6	8,4	1	1	1	1	1	1	1	1	1	0	1	-13,03735	273,872979	305,95466	0
15.01.2021	22:18:41	0	0	4,51925	1,28475	306,8352	-0,024	87,368	0	1017,48	6,7	8,6	8,6	1	1	1	1	1	1	1	1	1	0	1	-8,315715	274,000236	311,269593	0
15.01.2021	22:18:42	0	0	2,485617	1,28175	316,962	-0,025	87,371	0	1017,6	6,7	8,6	8,4	1	1	1	1	1	1	1	1	1	0	1	-8,245243	274,047803	311,562044	0
15.01.2021	22:18:43	0	0	3,954391	1,31325	289,9548	-0,025	87,353	0	1017,56	6,7	8,6	8,4	1	1	1	1	1	1	1	1	1	0	1	-6,624383	273,963156	312,787964	0
15.01.2021	22:18:44	0	0	4,180306	1,3965	290,0448	-0,023	87,366	0	1017,5	6,7	8,6	8,6	1	1	1	1	1	1	1	1	1	0	1	-3,664553	274,04185	316,114951	0
15.01.2021	22:18:45	0	0	4,293339	1,437	297,486	-0,026	87,377	0	1017,52	6,7	8,6	8,4	1	1	1	1	1	1	1	1	1	0	1	-6,272023	273,973531	313,188713	0
15.01.2021	22:18:46	0	0	2,937548	1,44825	294,4404	-0,022	87,364	0	1017,48	6,7	8,6	8,4	1	1	1	1	1	1	1	1	1	0	1	-7,117689	273,884782	311,929312	0
15.01.2021	22:18:47	0	0	4,067325	1,4445	310,2768	-0,025	87,362	0	1017,48	6,7	8,6	8,6	1	1	1	1	1	1	1	1	1	0	1	-5,073996	274,019546	314,601411	0
15.01.2021	22:18:48	0	0	4,971234	1,4175	318,4596	-0,027	87,36	0	1017,52	6,7	8,6	8,4	1	1	1	1	1	1	1	1	1	0	1	-3,946441	273,99133	315,59732	0
15.01.2021	22:18:49	0	0	2,824565	1,40025	313,3044	-0,026	87,373	0	1017,6	6,7	8,6	8,4	1	1	1	1	1	1	1	1	1	0	1	-9,372798	273,877405	309,639829	0
15.01.2021	22:18:50	0	0	2,485617	1,32975	312,156	-0,019	87,377	0	1017,48	6,7	8,6	8,4	1	1	1	1	1	1	1	1	1	0	1	-5,637773	273,96612	313,788397	0
15.01.2021	22:18:51	0	0	3,163513	1,31025	316,242	-0,024	87,379	0	1017,54	6,7	8,6	8,4	1	1	1	1	1	1	1	1	1	0	1	-6,060606	273,87888	312,958894	0
15.01.2021	22:18:52	0	0	3,276456	1,23675	314,0676	-0,026	87,367	0	1017,42	6,7	8,6	8,6	1	1	1	1	1	1	1	1	1	0	1	-10,923185	274,00469	308,682905	0
15.01.2021	22:18:53	0	0	4,858193	1,23225	313,2252	-0,022	87,377	0	1017,54	6,7	8,6	8,6	1	1	1	1	1	1	1	1	1	0	1	-6,624383	274,000236	312,960925	0
15.01.2021	22:18:54	0	0	3,841408	1,23825	310,6008	-0,031	87,348	0	1017,5	6,7	8,6	8,4	1	1	1	1	1	1	1	1	1	0	1	-5,144468	274,00766	314,475481	0
15.01.2021	22:18:55	0	0	4,067325	1,34625	307,2132	-0,024	87,377	0	1017,58	6,6	8,6	8,6	1	1	1	1	1	1	1	1	1	0	1	-8,738548	274,047803	311,068739	0
15.01.2021	22:18:56	0	0	2,259625	1,39875	309,9132	-0,025	87,361	0	1017,54	6,6	8,6	8,6	1	1	1	1	1	1	1	1	1	0	1	-6,765328	273,898068	312,343586	0
15.01.2021	22:18:57	0	0	3,389478	1,5105	309,87	-0,028	87,361	0	1017,5	6,7	8,6	8,4	1	1	1	1	1	1	1	1	1	0	1	-5,144468	273,924668	314,088428	0
15.01.2021	22:18:58	0	0	2,033662	1,6425	305,7552	-0,021	87,37	0	1017,54	6,7	8,6	8,6	1	1	1	1	1	1	1	1	1	0	1	-6,131078	273,895115	312,964073	0
15.01.2021	22:18:59	0	0	3,163475	1,74	312,804	-0,023	87,363	0	1017,62	6,7	8,6	8,6	1	1	1	1	1	1	1	1	1	0	1	-12,332629	273,963156	307,079719	0
15.01.2021	22:19:00	0	0	2,937548	1,77225	297,8316	-0,021	87,384	0	1017,56	6,7	8,6	8,4	1	1	1	1	1	1	1	1	1	0	1	-8,80902	274,052268	311,019111	0
15.01.2021	22:19:01	0	0	4,406321	1,7505	306,4716	-0,023	87,376	0	1017,6	6,7	8,6	8,4	1	1	1	1	1	1	1	1	1	0	1	-6,131078	273,95723	313,253633	0
15.01.2021	22:19:02	0	0	4,067374	1,7475	296,6112	-0,023	87,369	0	1017,52	6,7	8,6	8,4	1	1	1	1	1	1	1	1	1	0	1	-9,513742	273,877405	309,498884	0
15.01.2021	22:19:03	0	0	4,51925	1,70625	309,51	-0,028	87,372	0	1017,52	6,7	8,6	8,6	1	1	1	1	1	1	1	1	1	0	1	-5,285412	273,87888	313,734088	0
15.01.2021	22:19:04	0	0	4,293339	1,746	303,5124	-0,026	87,354	0	1017,5	6,7	8,6	8,4	1	1	1	1	1	1	1	1	1	0	1	-5,003524	273,949825	314,346657	0
15.01.2021	22:19:05	0	0	4,858252	1,734	303,4728	-0,026	87,376	0	1017,66	6,7	8,6	8,4	1	1	1	1	1	1	1	1	1	0	1	-8,668076	274,043338	311,118372	0
15.01.2021	22:19:06	0	0	4,745269	1,7505	297,27	-0,023	87,356	0	1017,38	6,6	8,6	8,4	1	1	1	1	1	1	1	1	1	0	1	-11,557435	273,940942	307,75133	0
15.01.2021	22:19:07	0	0	4,519304	1,8555	304,6608	-0,023	87,381	0	1017,64	6,7	8,6	8,4	1	1	1	1	1	1	1	1	1	0	1	-8,245243	274,043338	311,541205	0
15.01.2021	22:19:08	0	0	2,146669	1,91325	298,674	-0,024	87,387	0	1017,56	6,7	8,6	8,4	1	1	1	1	1	1	1	1	1	0	1	-7,047216	273,977979	312,434267	0
15.01.2021	22:19:09	0	0	2,485617	1,85925	286,2396	-0,025	87,371	0	1017,56	6,7	8,6	8,4	1	1	1	1	1	1	1	1	1	0	1	-5,144468	273,881831	313,888781	0
15.01.2021	22:19:10	0	0	4,293287	1,85925	294,8472	-0,026	87,376	0	1017,54	6,7	8,6	8,6	1	1	1	1	1	1	1	1	1	0	1	-4,580691	273,927626	314,665994	0
15.01.2021	22:19:11	0	0	4,067374	1,8945	289,9944	-0,025	87,381	0	1017,5	6,7	8,6	8,4	1	1	1	1	1	1	1	1	1	0	1	-6,342495	274,0359	313,409235	0
15.01.2021	22:19:12	0	0	3,276495	1,9095	290,016	-0,026	87,367	0	1017,5	6,6	8,6	8,4	1	1	1	1	1	1	1	1	1	0	1	-7,610994	273,926147	311,628796	0
15.01.2021	22:19:13	0	0	3,615443	1,875	283,5288	-0,03	87,382	0	1017,42	6,7	8,6	8,4	1	1	1	1	1	1	1	1	1	0	1	-6,694856	274,037387	313,063817	0
15.01.2021	22:19:14	0	0	3,954391	1,8495	284,8572	-0,023	87,371	0	1017,58	6,7	8,6	8,4	1	1	1	1	1	1	1	1	1	0	1	-2,396054	274,001721	317,196181	0
15.01.2021	22:19:15	0	0	3,389478	1,79025	288,8244	-0,023	87,395	0	1017,52	6,7	8,6	8,4	1	1	1	1	1	1	1	1	1	0	1	-5,708245	274,019546	313,967162	0
15.01.2021	22:19:16	0	0	4,067374	1,7775	293,7168	-0,026	87,392	0	1017,5	6,7	8,6	8,4	1	1	1	1	1	1	1	1	1	0	1	-6,412967	274,056734	313,436015	0
15.01.2021	22:19:17	0	0	4,858252	1,74	283,1328	-0,025	87,377	0	1017,52	6,7	8,6	8,4	1	1	1	1	1	1	1	1	1	0	1	-7,540521	273,983912	311,968634	0
15.01.2021	22:19:18	0	0	4,519304	1,74225	279,4536	-0,022	87,392	0	1017,58	6,6	8,6	8,4	1	1	1	1	1	1	1	1	1	0	1	-7,399577	273,868555	311,571822	0
15.01.2021	22:19:19	0	0	3,276495	1,767	280,6416	-0,026	87,407	0	1017,66	6,7	8,6	8,4	1	1	1	1	1	1	1	1	1	0	1	-7,892882	274,037387	311,86579	0
15.01.2021	22:19:20	0	0	3,954391	1,77825	288,1224	-0,021	87,392	0	1017,48	6,7	8,6	8,4	1	1	1	1	1	1	1	1	1	0	1	-6,20155	273,92319	313,024452	0
15.01.2021	22:19:21	0	0	3,05053	1,74825	303,2316	-0,019	87,402	0	1017,54	6,7	8,6	8,4	1	1	1	1	1	1	1	1	1	0	1	-6,412967	273,872979	312,579043	0
15.01.2021	22:19:22	0	0	4,858252	1,67325	297,522	-0,02	87,388	0	1017,56	6,7	8,6	8,4	1	1	1	1	1	1	1	1	1	0	1	-5,84919	274,052268	313,978942	0
15.01.2021	22:19:23	0	0	3,841408	1,6035	290,808	-0,024	87,389	0	1017,4	6,7	8,6	8,4	1	1	1	1	1	1	1	1	1	0	1	-5,073996	273,937982	314,220969	0
15.01.2021	22:19:24	0	0	4,858252	1,59375	305,7192	-0,023	87,384	0	1017,52	6,7	8,6	8,4	1	1	1	1	1	1	1	1	1	0	1	-10,077519	274,029951	309,646448	0
15.01.2021	22:19:25	0	0	4,745269	1,67175	307,5948	-0,027	87,376	0	1017,5	6,7	8,6	8,4	1	1	1	1	1	1	1	1	1	0	1	-7,681466	274,013602	311,966207	0
15.01.2021	22:19:26	0	0	3,728426	1,6515	309,834	-0,022	87,391	0	1017,54	6,6	8,6	8,4	1	1	1	1	1	1	1	1	1	0	1	-10,570825	274,015088	309,083781	0
15.01.2021	22:19:27	0	0	4,519304	1,59675	299,2932	-0,027	87,4	0	1017,38	6,7	8,7	8,4	1	1	1	1	1	1	1	1	1	0	1	-3,312192	273,912842	315,865575	0
15.01.2021	22:19:28	0	0	4,519304	1,635	294,3792	-0,023	87,4	0	1017,64	6,7	8,6	8,4	1	1	1	1	1	1	1	1	1	0	1	-6,131078	274,047803	313,676209	0
15.01.2021	22:19:29	0	0	5,1972	1,66125	298,2492	-0,023	87,404	0	1017,48	6,7	8,6	8,4	1	1	1	1	1	1	1	1	1	0	1	-7,681466	273,983912	311,82769	0
15.01.2021	22:19:30	0	0	2,711582	1,79025	309,1212	-0,025	87,399	0	1017,6	6,7	8,6	8,4	1	1	1	1	1	1	1	1	1	0	1	-7,470049	274,044826	312,323345	0
15.01.2021	22:19:31	0	0	4,293339	1,74225	318,4632	-0,023	87,401	0	1017,6	6,7	8,6	8,4	1	1	1	1	1	1	1	1	1	0	1	-5,990134	273,932064	313,277238	0
15.01.2021	22:19:32	0	0	4,632287	1,752	306,4104	-0,034	87,388	0	1017,46	6,7	8,6	8,4	1	1	1	1	1	1	1	1	1	0	1	-4,933051	273,87003	314,045217	0
15.01.2021	22:19:33	0	0	4,971234	1,8435	316,9512	-0,026	87,401	0	1017,5	6,7	8,6	8,4	1	1	1	1	1	1	1	1	1	0	1	-7,117689	273,91432	312,066967	0
15.01.2021	22:19:34	0	0	3,389478	1,88925	314,8236	-0,021	87,395	0	1017,48	6,7	8,6	8,4	1	1	1	1	1	1	1	1	1	0	1	-3,171247	273,979462	316,317153	0
15.01.2021	22:19:35	0	0	2,824565	1,8915	314,0532	-0,024	87,382	0	1017,56	6,7	8,6	8,4	1	1	1	1	1	1	1	1	1	0	1	-7,82241	273,924668	311,410486	0
15.01.2021	22:19:36	0	0	2,937548	1,8555	308,88	-0,023	87,403	0	1017,54	6,7	8,6	8,4	1	1	1	1	1	1	1	1	1	0	1	-8,386187	273,871505	310,598951	0
15.01.2021	22:19:37	0	0	3,728426	1,83075	312,1632	-0,026	87,395	0	1017,52	6,6	8,6	8,4	1	1	1	1	1	1	1	1	1	0	1	-5,073996	273,983912	314,43516	0
15.01.2021	22:19:38	0	0	4,745269	1,80075	311,1552	-0,021	87,382	0	1017,4	6,6	8,6	8,4	1	1	1	1	1	1	1	1	1	0	1	-6,272023	274,032925	313,465825	0
15.01.2021	22:19:39	0	0	2,937548	1,82325	313,1604	-0,025	87,388	0	1017,62	6,7	8,6	8,4	1	1	1	1	1	1	1	1	1	0	1	-7,188161	273,960193	312,210368	0
15.01.2021	22:19:40	0	0	4,632287	1,836	321,0984	-0,022	87,401	0	1017,56	6,6	8,6	8,4	1	1	1	1	1	1	1	1	1	0	1	-5,919662	273,927626	313,327023	0
15.01.2021	22:19:41	0	0	5,084217	1,74825	317,2824	-0,026	87,385	0	1017,44	6,7	8,6	8,4	1	1	1	1	1	1	1	1	1	0	1	-12,825934	273,903976	306,310514	0
15.01.2021	22:19:42	0	0	2,485617	1,659	308,7864	-0,02	87,399	0	1017,54	6,7	8,6	8,4	1	1	1	1	1	1	1	1	1	0	1	-6,412967	274,025491	313,290185	0
15.01.2021	22:19:43	0	0	2,485617	1,63425	312,768	-0,023	87,394	0	1017,62	6,6	8,6	8,4	1	1	1	1	1	1	1	1	1	0	1	-5,778717	273,912842	313,39905	0
15.01.2021	22:19:44	0	0	2,711582	1,6125	310,662	-0,02	87,401	0	1017,6	6,7	8,6	8,4	1	1	1	1	1	1	1	1	1	0	1	-9,654686	273,867081	309,309843	0
15.01.2021	22:19:45	0	0	3,389478	1,566	309,5388	-0,02	87,392	0	1017,48	6,7	8,6	8,4	1	1	1	1	1	1	1	1	1	0	1	-7,540521	273,871505	311,444617	0
15.01.2021	22:19:46	0	0	4,971234	1,5855	302,0652	-0,018	87,393	0	1017,72	6,6	8,6	8,4	1	1	1	1	1	1	1	1	1	0	1	-6,906272	273,982429	312,595965	0
15.01.2021	22:19:47	0	0	5,084217	1,6515	300,78	-0,032	87,381	0	1017,52	6,7	8,6	8,4	1	1	1	1	1	1	1	1	1	0	1	-7,82241	274,019546	311,852997	0
15.01.2021	22:19:48	0	0	3,163513	1,6935	296,7552	-0,024	87,401	0	1017,52	6,6	8,6	8,4	1	1	1	1	1	1	1	1	1	0	1	-4,016913	273,905453	315,126419	0
15.01.2021	22:19:49	0	0	4,406321	1,70925	304,668	-0,023	87,395	0	1017,56	6,7	8,6	8,4	1	1	1	1	1	1	1	1	1	0	1	-9,654686	274,025491	310,048465	0
15.01.2021	22:19:50	0	0	4,067374	1,7865	303,9444	-0,022	87,403	0	1017,58	6,6	8,6	8,4	1	1	1	1	1	1	1	1	1	0	1	-9,513742	274,038875	310,251873	0
15.01.2021	22:19:51	0	0	4,406321	1,7895	300,7584	-0,023	87,393	0	1017,48	6,7	8,6	8,4	1	1	1	1	1	1	1	1	1	0	1	-6,694856	274,021032	312,987487	0
15.01.2021	22:19:52	0	0	4,858252	1,7955	297,8568	-0,021	87,4	0	1017,5	6,6	8,6	8,4	1	1	1	1	1	1	1	1	1	0	1	-7,188161	273,995783	312,376371	0
15.01.2021	22:19:53	0	0	4,632287	1,806	300,852	-0,023	87,391	0	1017,54	6,6	8,6	8,4	1	1	1	1	1	1	1	1	1	0	1	-5,355884	273,995783	314,208647	0
15.01.2021	22:19:54	0	0	3,841408	1,83825	306,1152	-0,019	87,388	0	1017,42	6,7	8,6	8,4	1	1	1	1	1	1	1	1	1	0	1	-6,20155	273,867081	312,762979	0
15.01.2021	22:19:55	0	0	3,728426	1,839	305,3556	-0,023	87,394	0	1017,66	6,6	8,6	8,4	1	1	1	1	1	1	1	1	1	0	1	-7,82241	274,003205	311,776752	0
15.01.2021	22:19:56	0	0	3,728426	1,84125	308,7972	-0,022	87,389	0	1017,52	6,7	8,6	8,4	1	1	1	1	1	1	1	1	1	0	1	-9,866103	273,883306	309,174022	0
15.01.2021	22:19:57	0	0	3,615443	1,84425	304,2216	-0,029	87,375	0	1017,5	6,7	8,6	8,4	1	1	1	1	1	1	1	1	1	0	1	-7,963354	273,995783	311,601177	0
15.01.2021	22:19:58	0	0	3,05053	1,80525	304,6788	-0,03	87,389	0	1017,46	6,6	8,6	8,4	1	1	1	1	1	1	1	1	1	0	1	-5,355884	273,867081	313,608645	0
15.01.2021	22:19:59	0	0	4,519304	1,84725	307,2636	-0,024	87,383	0	1017,38	6,6	8,6	8,4	1	1	1	1	1	1	1	1	1	0	1	-7,892882	273,930585	311,367593	0
15.01.2021	22:20:00	0	0	4,406321	1,88175	309,96	-0,023	87,386	0	1017,5	6,6	8,6	8,4	1	1	1	1	1	1	1	1	1	0	1	-8,315715	273,856763	310,600749	0
15.01.2021	22:20:01	0	0	3,615443	1,87275	305,3628	-0,024	87,385	0	1017,58	6,7	8,6	8,4	1	1	1	1	1	1	1	1	1	0	1	-9,372798	273,896591	309,729234	0
15.01.2021	22:20:02	0	0	3,502419	1,8855	310,6188	-0,023	87,387	0	1017,58	6,7	8,6	8,6	1	1	1	1	1	1	1	1	1	0	1	-7,188161	274,040363	312,584398	0
15.01.2021	22:20:03	0	0	2,259652	1,794	317,394	-0,024	87,39	0	1017,38	6,6	8,6	8,4	1	1	1	1	1	1	1	1	1	0	1	-9,584214	273,875929	309,421539	0
15.01.2021	22:20:04	0	0	4,632287	1,67625	309,582	-0,024	87,381	0	1017,56	6,7	8,6	8,4	1	1	1	1	1	1	1	1	1	0	1	-4,651163	273,979462	314,837238	0
15.01.2021	22:20:05	0	0	2,937548	1,57275	309,1896	-0,027	87,373	0	1017,54	6,6	8,6	8,4	1	1	1	1	1	1	1	1	1	0	1	-6,976744	273,864132	311,974049	0
15.01.2021	22:20:06	0	0	2,711582	1,52625	305,01	-0,022	87,391	0	1017,66	6,6	8,6	8,4	1	1	1	1	1	1	1	1	1	0	1	-5,708245	273,975014	313,759406	0
15.01.2021	22:20:07	0	0	4,293339	1,533	304,29	-0,025	87,383	0	1017,48	6,6	8,6	8,4	1	1	1	1	1	1	1	1	1	0	1	-6,483439	273,852343	312,412435	0
15.01.2021	22:20:08	0	0	4,745269	1,458	310,2768	-0,025	87,365	0	1017,56	6,7	8,6	8,4	1	1	1	1	1	1	1	1	1	0	1	-7,681466	273,99133	311,862295	0
15.01.2021	22:20:09	0	0	4,519223	1,49625	294,822	-0,029	87,393	0	1017,42	6,6	8,6	8,7	1	1	1	1	1	1	1	1	1	0	1	-7,117689	274,0359	312,634041	0
15.01.2021	22:20:10	0	0	3,389478	1,59975	305,3772	-0,026	87,386	0	1017,56	6,6	8,6	8,4	1	1	1	1	1	1	1	1	1	0	1	-8,315715	273,96612	311,110454	0
15.01.2021	22:20:11	0	0	3,05053	1,63275	298,278	-0,031	87,377	0	1017,44	6,6	8,6	8,4	1	1	1	1	1	1	1	1	1	0	1	-5,073996	273,861184	313,863064	0
15.01.2021	22:20:12	0	0	2,824565	1,67325	303,8616	-0,026	87,392	0	1017,46	6,6	8,6	8,4	1	1	1	1	1	1	1	1	1	0	1	-6,412967	273,85971	312,517227	0
15.01.2021	22:20:13	0	0	3,276495	1,65975	304,9848	-0,022	87,39	0	1017,56	6,7	8,6	8,4	1	1	1	1	1	1	1	1	1	0	1	-10,782241	273,982429	308,719996	0
15.01.2021	22:20:14	0	0	2,711582	1,656	307,584	-0,027	87,388	0	1017,64	6,6	8,6	8,4	1	1	1	1	1	1	1	1	1	0	1	-6,342495	273,855289	312,567106	0
15.01.2021	22:20:15	0	0	4,067374	1,6455	304,3116	-0,028	87,388	0	1017,42	6,6	8,6	8,4	1	1	1	1	1	1	1	1	1	0	1	-10,852713	273,886258	308,201164	0
15.01.2021	22:20:16	0	0	2,5986	1,58475	314,8704	-0,026	87,376	0	1017,58	6,7	8,6	8,4	1	1	1	1	1	1	1	1	1	0	1	-4,369274	273,852343	314,5266	0
15.01.2021	22:20:17	0	0	3,502461	1,548	317,7	-0,03	87,38	0	1017,54	6,7	8,6	8,4	1	1	1	1	1	1	1	1	1	0	1	-8,527132	274,001721	311,065103	0
15.01.2021	22:20:18	0	0	2,711582	1,53375	318,7692	-0,021	87,38	0	1017,74	6,7	8,6	8,4	1	1	1	1	1	1	1	1	1	0	1	-6,694856	274,00766	312,925093	0
15.01.2021	22:20:19	0	0	2,937548	1,54275	309,5856	-0,026	87,385	0	1017,64	6,7	8,6	8,4	1	1	1	1	1	1	1	1	1	0	1	-5,285412	273,905453	313,85792	0
15.01.2021	22:20:20	0	0	4,406268	1,54425	308,106	-0,025	87,401	0	1017,52	6,7	8,6	8,6	1	1	1	1	1	1	1	1	1	0	1	-3,946441	273,995783	315,61809	0
15.01.2021	22:20:21	0	0	3,276476	1,41075	314,0604	-0,024	87,39	0	1017,58	6,7	8,6	8,5	1	1	1	1	1	1	1	1	1	0	1	-8,879493	273,960193	310,519036	0
15.01.2021	22:20:22	0	0	2,824565	1,38525	304,668	-0,028	87,38	0	1017,46	6,6	8,6	8,4	1	1	1	1	1	1	1	1	1	0	1	-8,033827	273,862658	310,9101	0
15.01.2021	22:20:23	0	0	3,276495	1,44675	303,3144	-0,026	87,374	0	1017,64	6,6	8,6	8,4	1	1	1	1	1	1	1	1	1	0	1	-6,483439	273,972049	312,970382	0
15.01.2021	22:20:24	0	0	4,180356	1,55925	307,2528	-0,028	87,388	0	1017,48	6,7	8,6	8,4	1	1	1	1	1	1	1	1	1	0	1	-6,272023	273,858237	312,651306	0
15.01.2021	22:20:25	0	0	2,485617	1,62	308,4768	-0,027	87,389	0	1017,52	6,6	8,6	8,4	1	1	1	1	1	1	1	1	1	0	1	-10,570825	273,88921	308,496808	0
15.01.2021	22:20:26	0	0	4,519304	1,599	312,1128	-0,027	87,383	0	1017,56	6,7	8,6	8,4	1	1	1	1	1	1	1	1	1	0	1	-5,567301	273,849396	313,31485	0
15.01.2021	22:20:27	0	0	4,406268	1,66575	303,8904	-0,024	87,387	0	1017,46	6,7	8,6	8,6	1	1	1	1	1	1	1	1	1	0	1	-5,84919	274,026978	313,8609	0
15.01.2021	22:20:28	0	0	3,163513	1,72725	309,5316	-0,028	87,376	0	1017,62	6,7	8,6	8,4	1	1	1	1	1	1	1	1	1	0	1	-5,778717	273,995783	313,785814	0
15.01.2021	22:20:29	0	0	3,389478	1,70025	308,5272	-0,029	87,391	0	1017,42	6,7	8,6	8,4	1	1	1	1	1	1	1	1	1	0	1	-6,8358	273,855289	312,0738	0
15.01.2021	22:20:30	0	0	2,711582	1,62975	313,5996	-0,026	87,393	0	1017,56	6,7	8,6	8,4	1	1	1	1	1	1	1	1	1	0	1	-1,902748	273,896591	317,199284	0
15.01.2021	22:20:31	0	0	3,728426	1,5975	316,2924	-0,024	87,387	0	1017,62	6,7	8,6	8,4	1	1	1	1	1	1	1	1	1	0	1	-5,426357	274,01806	314,242116	0
15.01.2021	22:20:32	0	0	3,954391	1,611	319,23	-0,028	87,378	0	1017,4	6,6	8,6	8,4	1	1	1	1	1	1	1	1	1	0	1	-3,171247	273,903976	315,9652	0
15.01.2021	22:20:33	0	0	3,05053	1,59375	309,9204	-0,026	87,396	0	1017,66	6,7	8,6	8,4	1	1	1	1	1	1	1	1	1	0	1	-9,231853	274,032925	310,505994	0
15.01.2021	22:20:34	0	0	3,389478	1,548	309,258	-0,025	87,376	0	1017,54	6,7	8,6	8,4	1	1	1	1	1	1	1	1	1	0	1	-9,795631	273,903976	309,340817	0
15.01.2021	22:20:35	0	0	4,406321	1,5135	311,7312	-0,033	87,386	0	1017,5	6,7	8,6	8,4	1	1	1	1	1	1	1	1	1	0	1	-8,104299	274,022518	311,584979	0
15.01.2021	22:20:36	0	0	4,067325	1,5	298,2492	-0,024	87,39	0	1017,5	6,7	8,6	8,6	1	1	1	1	1	1	1	1	1	0	1	-8,033827	273,972049	311,419995	0
15.01.2021	22:20:37	0	0	2,711582	1,49475	307,1592	-0,025	87,382	0	1017,5	6,6	8,6	8,4	1	1	1	1	1	1	1	1	1	0	1	-11,627907	274,037387	308,130765	0
15.01.2021	22:20:38	0	0	4,406295	1,5525	310,3128	-0,025	87,377	0	1017,36	6,7	8,6	8,5	1	1	1	1	1	1	1	1	1	0	1	-6,624383	273,976497	312,850184	0
15.01.2021	22:20:39	0	0	3,389478	1,62675	310,7016	-0,025	87,377	0	1017,6	6,6	8,6	8,4	1	1	1	1	1	1	1	1	1	0	1	-6,342495	273,855289	312,567106	0
15.01.2021	22:20:40	0	0	4,745269	1,6905	305,7732	-0,033	87,369	0	1017,34	6,7	8,7	8,4	1	1	1	1	1	1	1	1	1	0	1	-7,963354	273,918754	311,241972	0
15.01.2021	22:20:41	0	0	3,6154	1,7205	304,5816	-0,027	87,387	0	1017,42	6,7	8,6	8,6	1	1	1	1	1	1	1	1	1	0	1	-6,8358	274,031438	312,895107	0
15.01.2021	22:20:42	0	0	3,841408	1,6845	316,2672	-0,022	87,373	0	1017,62	6,6	8,6	8,4	1	1	1	1	1	1	1	1	1	0	1	-6,8358	273,921711	312,38331	0
15.01.2021	22:20:43	0	0	3,502461	1,58625	318,816	-0,027	87,398	0	1017,66	6,6	8,6	8,4	1	1	1	1	1	1	1	1	1	0	1	-7,047216	274,003205	312,551946	0
15.01.2021	22:20:44	0	0	2,824565	1,60875	329,688	-0,029	87,385	0	1017,6	6,6	8,6	8,4	1	1	1	1	1	1	1	1	1	0	1	-1,832276	273,940942	317,476488	0
15.01.2021	22:20:45	0	0	4,293339	1,671	321,3936	-0,026	87,39	0	1017,5	6,6	8,6	8,4	1	1	1	1	1	1	1	1	1	0	1	-9,231853	274,043338	310,554595	0
15.01.2021	22:20:46	0	0	2,485617	1,7865	321,9012	-0,022	87,378	0	1017,7	6,6	8,6	8,4	1	1	1	1	1	1	1	1	1	0	1	-5,990134	273,91432	313,194522	0
15.01.2021	22:20:47	0	0	4,858252	1,896	318,0744	-0,022	87,392	0	1017,58	6,7	8,6	8,4	1	1	1	1	1	1	1	1	1	0	1	-11,557435	274,032925	308,180412	0
15.01.2021	22:20:48	0	0	4,519304	1,90275	321,1128	-0,026	87,394	0	1017,54	6,7	8,7	8,4	1	1	1	1	1	1	1	1	1	0	1	-10,641297	273,920233	308,570921	0
15.01.2021	22:20:49	0	0	4,971234	1,82325	326,826	-0,029	87,401	0	1017,46	6,7	8,6	8,4	1	1	1	1	1	1	1	1	1	0	1	-6,906272	274,025491	312,79688	0
15.01.2021	22:20:50	0	0	3,05053	1,7865	316,5804	-0,024	87,385	0	1017,52	6,6	8,6	8,4	1	1	1	1	1	1	1	1	1	0	1	-5,637773	273,935023	313,643394	0
15.01.2021	22:20:51	0	0	4,180356	1,77	308,808	-0,019	87,383	0	1017,44	6,7	8,7	8,4	1	1	1	1	1	1	1	1	1	0	1	-5,708245	273,861184	313,228815	0
15.01.2021	22:20:52	0	0	4,067374	1,8825	299,4228	-0,026	87,374	0	1017,42	6,6	8,6	8,4	1	1	1	1	1	1	1	1	1	0	1	-6,342495	273,920233	312,869723	0
15.01.2021	22:20:53	0	0	4,971234	1,9755	304,2468	-0,032	87,377	0	1017,44	6,6	8,6	8,4	1	1	1	1	1	1	1	1	1	0	1	-11,839323	274,024005	307,856891	0
15.01.2021	22:20:54	0	0	3,163513	2,00025	300,8664	-0,027	87,393	0	1017,54	6,7	8,6	8,4	1	1	1	1	1	1	1	1	1	0	1	-6,694856	273,92319	312,531147	0
15.01.2021	22:20:55	0	0	3,163475	1,9155	300,1068	-0,027	87,386	0	1017,62	6,7	8,6	8,6	1	1	1	1	1	1	1	1	1	0	1	-7,751938	273,868555	311,219461	0
15.01.2021	22:20:56	0	0	4,406321	1,8495	294,3468	-0,028	87,395	0	1017,54	6,6	8,6	8,4	1	1	1	1	1	1	1	1	1	0	1	-10,077519	273,918754	309,127807	0
15.01.2021	22:20:57	0	0	2,711582	1,81125	296,8452	-0,027	87,398	0	1017,64	6,6	8,6	8,4	1	1	1	1	1	1	1	1	1	0	1	-1,62086	273,858237	317,302469	0
15.01.2021	22:20:58	0	0	2,824565	1,77825	294,8364	-0,027	87,395	0	1017,52	6,7	8,6	8,4	1	1	1	1	1	1	1	1	1	0	1	-5,426357	273,877405	313,58627	0
15.01.2021	22:20:59	0	0	2,824565	1,72125	296,9136	-0,029	87,385	0	1017,6	6,6	8,6	8,4	1	1	1	1	1	1	1	1	1	0	1	-7,681466	274,024005	312,014749	0
15.01.2021	22:21:00	0	0	4,067374	1,6905	294,372	-0,022	87,389	0	1017,52	6,6	8,6	8,4	1	1	1	1	1	1	1	1	1	0	1	-10,641297	273,982429	308,86094	0
15.01.2021	22:21:01	0	0	4,632231	1,58175	294,5016	-0,024	87,397	0	1017,5	6,6	8,6	8,6	1	1	1	1	1	1	1	1	1	0	1	-9,866103	274,025491	309,837049	0
15.01.2021	22:21:02	0	0	3,615443	1,57425	297,9252	-0,022	87,398	0	1017,44	6,6	8,6	8,4	1	1	1	1	1	1	1	1	1	0	1	-8,033827	274,013602	311,613846	0
15.01.2021	22:21:03	0	0	3,276476	1,51875	302,9112	-0,025	87,398	0	1017,52	6,6	8,6	8,5	1	1	1	1	1	1	1	1	1	0	1	-8,245243	273,901022	310,877436	0
15.01.2021	22:21:04	0	0	3,615443	1,56	296,874	-0,032	87,392	0	1017,52	6,7	8,6	8,4	1	1	1	1	1	1	1	1	1	0	1	-4,510218	274,015088	315,144387	0
15.01.2021	22:21:05	0	0	5,1972	1,53975	300,8556	-0,033	87,392	0	1017,56	6,6	8,6	8,4	1	1	1	1	1	1	1	1	1	0	1	-6,694856	274,031438	313,036051	0
15.01.2021	22:21:06	0	0	4,180356	1,596	305,3628	-0,024	87,394	0	1017,66	6,7	8,7	8,4	1	1	1	1	1	1	1	1	1	0	1	-7,610994	273,937982	311,683971	0
15.01.2021	22:21:07	0	0	3,276495	1,60725	304,6464	-0,027	87,397	0	1017,64	6,7	8,6	8,4	1	1	1	1	1	1	1	1	1	0	1	-5,144468	273,858237	313,778861	0
15.01.2021	22:21:08	0	0	4,067374	1,59375	306,4932	-0,034	87,393	0	1017,64	6,6	8,6	8,4	1	1	1	1	1	1	1	1	1	0	1	-6,131078	273,979462	313,357322	0
15.01.2021	22:21:09	0	0	2,824565	1,54575	292,9284	-0,026	87,389	0	1017,68	6,7	8,7	8,4	1	1	1	1	1	1	1	1	1	0	1	-4,369274	273,884782	314,677726	0
15.01.2021	22:21:10	0	0	3,728426	1,56	299,79	-0,027	87,397	0	1017,52	6,7	8,6	8,4	1	1	1	1	1	1	1	1	1	0	1	-8,315715	274,009146	311,311163	0
15.01.2021	22:21:11	0	0	3,163513	1,60875	304,1748	-0,015	87,399	0	1017,6	6,6	8,6	8,4	1	1	1	1	1	1	1	1	1	0	1	-9,513742	273,975014	309,953909	0
15.01.2021	22:21:12	0	0	4,293339	1,60125	296,4348	-0,024	87,408	0	1017,72	6,6	8,6	8,4	1	1	1	1	1	1	1	1	1	0	1	-7,188161	274,043338	312,598288	0
15.01.2021	22:21:13	0	0	2,937548	1,569	297,5292	-0,024	87,408	0	1017,56	6,6	8,6	8,4	1	1	1	1	1	1	1	1	1	0	1	-5,073996	273,960193	314,324532	0
15.01.2021	22:21:14	0	0	2,5986	1,59375	301,1328	-0,027	87,399	0	1017,44	6,6	8,6	8,4	1	1	1	1	1	1	1	1	1	0	1	-7,188161	273,853816	311,714576	0
15.01.2021	22:21:15	0	0	4,180356	1,68525	299,646	-0,031	87,399	0	1017,32	6,6	8,6	8,4	1	1	1	1	1	1	1	1	1	0	1	-5,708245	273,972049	313,745576	0
15.01.2021	22:21:16	0	0	3,615443	1,7205	289,512	-0,024	87,408	0	1017,8	6,7	8,6	8,4	1	1	1	1	1	1	1	1	1	0	1	-9,513742	274,034413	310,231046	0
15.01.2021	22:21:17	0	0	2,824565	1,6935	292,554	-0,028	87,405	0	1017,58	6,7	8,6	8,4	1	1	1	1	1	1	1	1	1	0	1	-4,651163	273,976497	314,823404	0
15.01.2021	22:21:18	0	0	3,163513	1,608	301,5936	-0,028	87,412	0	1017,48	6,6	8,6	8,4	1	1	1	1	1	1	1	1	1	0	1	-9,584214	273,890686	309,490297	0
15.01.2021	22:21:19	0	0	3,615443	1,626	296,8812	-0,025	87,405	0	1017,66	6,7	8,7	8,4	1	1	1	1	1	1	1	1	1	0	1	-9,936575	273,980945	309,558743	0
15.01.2021	22:21:20	0	0	2,937548	1,6215	303,5484	-0,031	87,398	0	1017,52	6,7	8,6	8,4	1	1	1	1	1	1	1	1	1	0	1	-7,540521	273,875929	311,465232	0
15.01.2021	22:21:21	0	0	4,406321	1,63425	304,2216	-0,027	87,404	0	1017,64	6,6	8,6	8,4	1	1	1	1	1	1	1	1	1	0	1	-8,315715	273,862658	310,628211	0
15.01.2021	22:21:22	0	0	2,711582	1,587	307,3752	-0,03	87,405	0	1017,54	6,6	8,6	8,4	1	1	1	1	1	1	1	1	1	0	1	-5,355884	273,976497	314,118683	0
15.01.2021	22:21:23	0	0	3,841408	1,5525	299,4228	-0,027	87,42	0	1017,44	6,6	8,6	8,4	1	1	1	1	1	1	1	1	1	0	1	-12,473573	273,862658	306,470354	0
15.01.2021	22:21:24	0	0	4,180306	1,4685	304,2936	-0,031	87,399	0	1017,46	6,7	8,6	8,6	1	1	1	1	1	1	1	1	1	0	1	-5,990134	273,890686	313,084377	0
15.01.2021	22:21:25	0	0	4,632287	1,45125	307,1664	-0,023	87,411	0	1017,5	6,7	8,6	8,4	1	1	1	1	1	1	1	1	1	0	1	-7,751938	274,047803	312,055349	0
15.01.2021	22:21:26	0	0	2,71155	1,428	309,438	-0,026	87,401	0	1017,38	6,6	8,6	8,6	1	1	1	1	1	1	1	1	1	0	1	-4,157858	273,886258	314,89602	0
15.01.2021	22:21:27	0	0	2,5986	1,4355	318,1572	-0,031	87,41	0	1017,48	6,6	8,6	8,4	1	1	1	1	1	1	1	1	1	0	1	-8,949965	273,87888	310,069535	0
15.01.2021	22:21:28	0	0	3,389478	1,4385	311,0256	-0,028	87,409	0	1017,44	6,6	8,6	8,4	1	1	1	1	1	1	1	1	1	0	1	-8,45666	273,975014	311,010992	0
15.01.2021	22:21:29	0	0	3,954391	1,4295	312,894	-0,03	87,413	0	1017,4	6,7	8,7	8,4	1	1	1	1	1	1	1	1	1	0	1	-6,131078	273,849396	312,751073	0
15.01.2021	22:21:30	0	0	3,841362	1,4715	315,4968	-0,029	87,396	0	1017,44	6,7	8,6	8,6	1	1	1	1	1	1	1	1	1	0	1	-5,496829	273,905453	313,646504	0
15.01.2021	22:21:31	0	0	2,5986	1,43175	317,3004	-0,029	87,406	0	1017,4	6,6	8,6	8,4	1	1	1	1	1	1	1	1	1	0	1	-7,399577	273,871505	311,585562	0
15.01.2021	22:21:32	0	0	2,485617	1,4325	319,2156	-0,029	87,411	0	1017,42	6,6	8,6	8,4	1	1	1	1	1	1	1	1	1	0	1	-6,553911	273,912842	312,623856	0
15.01.2021	22:21:33	0	0	4,971234	1,4445	311,7492	-0,024	87,397	0	1017,54	6,6	8,6	8,4	1	1	1	1	1	1	1	1	1	0	1	-5,637773	274,001721	313,954462	0
15.01.2021	22:21:34	0	0	5,310182	1,458	306,0756	-0,023	87,401	0	1017,42	6,6	8,6	8,4	1	1	1	1	1	1	1	1	1	0	1	-5,84919	274,015088	313,805416	0
15.01.2021	22:21:35	0	0	2,5986	1,4595	312,4584	-0,027	87,394	0	1017,62	6,6	8,6	8,4	1	1	1	1	1	1	1	1	1	0	1	-6,483439	274,04185	313,296064	0
15.01.2021	22:21:36	0	0	3,389478	1,4385	308,7	-0,032	87,399	0	1017,7	6,6	8,6	8,4	1	1	1	1	1	1	1	1	1	0	1	-8,738548	273,886258	310,315329	0
15.01.2021	22:21:37	0	0	2,5986	1,41825	313,1856	-0,025	87,425	0	1017,64	6,7	8,7	8,4	1	1	1	1	1	1	1	1	1	0	1	-11,839323	274,044826	307,95407	0
15.01.2021	22:21:38	0	0	2,259652	1,44675	319,5756	-0,022	87,408	0	1017,58	6,6	8,6	8,4	1	1	1	1	1	1	1	1	1	0	1	-7,117689	273,892162	311,963702	0
15.01.2021	22:21:39	0	0	3,728426	1,4835	303,9804	-0,029	87,415	0	1017,5	6,7	8,6	8,4	1	1	1	1	1	1	1	1	1	0	1	-5,919662	273,985395	313,596414	0
15.01.2021	22:21:40	0	0	4,858252	1,45275	295,5888	-0,028	87,417	0	1017,52	6,6	8,6	8,4	1	1	1	1	1	1	1	1	1	0	1	-10,570825	274,003205	309,028338	0
15.01.2021	22:21:41	0	0	2,711582	1,52025	294,3468	-0,028	87,413	0	1017,6	6,6	8,6	8,4	1	1	1	1	1	1	1	1	1	0	1	-6,553911	273,84056	312,287085	0
15.01.2021	22:21:42	0	0	4,180356	1,53975	297,8892	-0,027	87,42	0	1017,74	6,6	8,6	8,4	1	1	1	1	1	1	1	1	1	0	1	-4,087385	273,942422	315,22828	0
15.01.2021	22:21:43	0	0	3,276495	1,485	299,3364	-0,021	87,427	0	1017,36	6,6	8,6	8,4	1	1	1	1	1	1	1	1	1	0	1	-7,470049	274,04185	312,309454	0
15.01.2021	22:21:44	0	0	2,937548	1,40625	291,906	-0,025	87,416	0	1017,44	6,6	8,6	8,4	1	1	1	1	1	1	1	1	1	0	1	-4,298802	273,952786	315,065189	0
15.01.2021	22:21:45	0	0	3,389478	1,35975	294,8076	-0,029	87,414	0	1017,5	6,6	8,6	8,4	1	1	1	1	1	1	1	1	1	0	1	-5,990134	273,858237	312,933195	0
15.01.2021	22:21:46	0	0	2,485617	1,29075	299,43	-0,028	87,424	0	1017,48	6,6	8,6	8,4	1	1	1	1	1	1	1	1	1	0	1	-5,496829	273,945383	313,832641	0
15.01.2021	22:21:47	0	0	3,276495	1,218	294,1164	-0,025	87,415	0	1017,36	6,6	8,6	8,4	1	1	1	1	1	1	1	1	1	0	1	-11,346018	274,040363	308,426541	0
15.01.2021	22:21:48	0	0	4,632287	1,1295	285,1704	-0,03	87,404	0	1017,64	6,7	8,6	8,4	1	1	1	1	1	1	1	1	1	0	1	-9,654686	273,899545	309,46111	0
15.01.2021	22:21:49	0	0	3,841408	1,1205	300,8628	-0,025	87,421	0	1017,58	6,7	8,6	8,4	1	1	1	1	1	1	1	1	1	0	1	-3,030303	274,00469	316,575787	0
15.01.2021	22:21:50	0	0	3,502461	1,17	309,222	-0,028	87,437	0	1017,54	6,7	8,6	8,4	1	1	1	1	1	1	1	1	1	0	1	-7,540521	273,862658	311,403405	0
15.01.2021	22:21:51	0	0	3,389478	1,21425	283,5468	-0,025	87,422	0	1017,54	6,6	8,6	8,4	1	1	1	1	1	1	1	1	1	0	1	-8,668076	273,905453	310,475256	0
15.01.2021	22:21:52	0	0	3,502461	1,308	292,9644	-0,027	87,433	0	1017,4	6,6	8,7	8,4	1	1	1	1	1	1	1	1	1	0	1	-10,570825	273,861184	308,366235	0
15.01.2021	22:21:53	0	0	2,485617	1,272	324,3384	-0,025	87,422	0	1017,66	6,6	8,6	8,4	1	1	1	1	1	1	1	1	1	0	1	-6,412967	273,935023	312,8682	0
15.01.2021	22:21:54	0	0	2,485587	1,2015	317,5164	-0,024	87,435	0	1017,62	6,6	8,6	8,6	1	1	1	1	1	1	1	1	1	0	1	-5,778717	273,85971	313,151477	0
15.01.2021	22:21:55	0	0	4,745269	1,1655	307,1736	-0,024	87,409	0	1017,5	6,6	8,6	8,4	1	1	1	1	1	1	1	1	1	0	1	-7,892882	273,905453	311,25045	0
15.01.2021	22:21:56	0	0	3,276495	1,10025	315,5436	-0,03	87,42	0	1017,44	6,7	8,6	8,4	1	1	1	1	1	1	1	1	1	0	1	-7,047216	274,043338	312,739232	0
15.01.2021	22:21:57	0	0	3,05053	1,04475	298,6596	-0,027	87,42	0	1017,56	6,7	8,6	8,4	1	1	1	1	1	1	1	1	1	0	1	-7,258633	273,948344	312,084643	0
15.01.2021	22:21:58	0	0	4,519304	1,0635	278,8128	-0,024	87,438	0	1017,46	6,6	8,6	8,4	1	1	1	1	1	1	1	1	1	0	1	-5,144468	273,855289	313,765132	0
15.01.2021	22:21:59	0	0	3,389458	1,11975	294,822	-0,022	87,438	0	1017,58	6,6	8,6	8,5	1	1	1	1	1	1	1	1	1	0	1	-3,875969	273,967602	315,557113	0
15.01.2021	22:22:00	0	0	2,485617	1,18575	299,052	-0,024	87,434	0	1017,54	6,6	8,6	8,4	1	1	1	1	1	1	1	1	1	0	1	-9,44327	273,858237	309,480059	0
15.01.2021	22:22:01	0	0	4,745269	1,30125	279,1656	-0,027	87,428	0	1017,62	6,6	8,6	8,4	1	1	1	1	1	1	1	1	1	0	1	-9,44327	273,975014	310,024381	0
15.01.2021	22:22:02	0	0	4,632287	1,3395	291,4272	-0,023	87,436	0	1017,7	6,6	8,6	8,4	1	1	1	1	1	1	1	1	1	0	1	-8,527132	273,868555	310,444267	0
15.01.2021	22:22:03	0	0	3,728426	1,383	299,3976	-0,024	87,444	0	1017,64	6,6	8,6	8,4	1	1	1	1	1	1	1	1	1	0	1	-7,540521	273,955749	311,837282	0
15.01.2021	22:22:04	0	0	3,728426	1,44525	275,7564	-0,032	87,424	0	1017,46	6,6	8,6	8,4	1	1	1	1	1	1	1	1	1	0	1	-6,342495	273,839088	312,491644	0
15.01.2021	22:22:05	0	0	3,728381	1,47	283,1184	-0,027	87,424	0	1017,48	6,6	8,6	8,6	1	1	1	1	1	1	1	1	1	0	1	-6,131078	273,980945	313,36424	0
15.01.2021	22:22:06	0	0	4,858252	1,347	279,846	-0,029	87,431	0	1017,5	6,6	8,6	8,4	1	1	1	1	1	1	1	1	1	0	1	-6,483439	274,003205	313,115723	0
15.01.2021	22:22:07	0	0	2,259652	1,3245	285,894	-0,023	87,419	0	1017,4	6,7	8,6	8,4	1	1	1	1	1	1	1	1	1	0	1	-10,218464	273,980945	309,276855	0
15.01.2021	22:22:08	0	0	4,180356	1,37175	284,4072	-0,023	87,435	0	1017,42	6,7	8,6	8,4	1	1	1	1	1	1	1	1	1	0	1	-11,557435	274,016574	308,104104	0
15.01.2021	22:22:09	0	0	3,615443	1,34775	288,4392	-0,023	87,436	0	1017,46	6,6	8,6	8,4	1	1	1	1	1	1	1	1	1	0	1	-7,188161	273,955749	312,189643	0
15.01.2021	22:22:10	0	0	3,728426	1,2705	301,9932	-0,028	87,431	0	1017,56	6,6	8,6	8,4	1	1	1	1	1	1	1	1	1	0	1	-7,258633	273,982429	312,243604	0
15.01.2021	22:22:11	0	0	2,372635	1,314	291,8484	-0,026	87,445	0	1017,66	6,6	8,6	8,4	1	1	1	1	1	1	1	1	1	0	1	-7,117689	273,881831	311,91556	0
15.01.2021	22:22:12	0	0	3,050512	1,33125	307,5012	-0,028	87,441	0	1017,4	6,6	8,6	8,5	1	1	1	1	1	1	1	1	1	0	1	-9,372798	273,862658	309,571129	0
15.01.2021	22:22:13	0	0	2,824565	1,29675	313,2144	-0,024	87,437	0	1017,64	6,6	8,6	8,4	1	1	1	1	1	1	1	1	1	0	1	-4,933051	273,912842	314,244716	0
15.01.2021	22:22:14	0	0	3,05053	1,176	302,8536	-0,029	87,442	0	1017,46	6,6	8,6	8,4	1	1	1	1	1	1	1	1	1	0	1	-9,090909	273,85971	309,839285	0
15.01.2021	22:22:15	0	0	4,519304	1,13175	295,6248	-0,027	87,422	0	1017,42	6,6	8,6	8,4	1	1	1	1	1	1	1	1	1	0	1	-13,107822	273,969084	306,332172	0
15.01.2021	22:22:16	0	0	4,067374	1,0575	306,9036	-0,023	87,448	0	1017,68	6,7	8,6	8,4	1	1	1	1	1	1	1	1	1	0	1	-3,171247	273,91432	316,013409	0
15.01.2021	22:22:17	0	0	2,5986	1,03275	310,284	-0,027	87,429	0	1017,52	6,6	8,6	8,4	1	1	1	1	1	1	1	1	1	0	1	-7,892882	273,972049	311,560939	0
15.01.2021	22:22:18	0	0	4,519304	0,98325	300,2076	-0,026	87,429	0	1017,56	6,6	8,6	8,4	1	1	1	1	1	1	1	1	1	0	1	-9,090909	273,871505	309,89423	0
15.01.2021	22:22:19	0	0	3,615443	0,98775	295,5204	-0,021	87,442	0	1017,64	6,6	8,6	8,4	1	1	1	1	1	1	1	1	1	0	1	-5,073996	273,954267	314,296901	0
15.01.2021	22:22:20	0	0	2,711582	0,957	297,2484	-0,023	87,43	0	1017,46	6,6	8,6	8,4	1	1	1	1	1	1	1	1	1	0	1	-9,936575	273,850869	308,952437	0
15.01.2021	22:22:21	0	0	2,824565	0,9195	301,2408	-0,026	87,448	0	1017,54	6,6	8,6	8,4	1	1	1	1	1	1	1	1	1	0	1	-4,439746	273,939462	314,862118	0
15.01.2021	22:22:22	0	0	4,858252	0,91575	309,87	-0,025	87,448	0	1017,64	6,6	8,6	8,4	1	1	1	1	1	1	1	1	1	0	1	-2,466526	273,874454	316,532356	0
15.01.2021	22:22:23	0	0	5,1972	0,90825	312,7968	-0,019	87,438	0	1017,62	6,6	8,6	8,4	1	1	1	1	1	1	1	1	1	0	1	-7,681466	273,902499	311,448097	0
15.01.2021	22:22:24	0	0	3,954344	0,88125	318,438	-0,021	87,437	0	1017,54	6,6	8,6	8,6	1	1	1	1	1	1	1	1	1	0	1	-9,231853	274,024005	310,464361	0
15.01.2021	22:22:25	0	0	3,502461	0,93675	315,2376	-0,035	87,436	0	1017,58	6,6	8,6	8,4	1	1	1	1	1	1	1	1	1	0	1	-14,65821	273,964638	304,761048	0
15.01.2021	22:22:26	0	0	4,067325	1,0215	315,1692	-0,019	87,441	0	1017,54	6,7	8,7	8,6	1	1	1	1	1	1	1	1	1	0	1	-7,399577	274,026978	312,310512	0
15.01.2021	22:22:27	0	0	4,971234	1,014	318,816	-0,034	87,437	0	1017,48	6,6	8,6	8,4	1	1	1	1	1	1	1	1	1	0	1	-9,513742	273,92319	309,71226	0
15.01.2021	22:22:28	0	0	4,745269	0,9915	322,1748	-0,026	87,439	0	1017,56	6,6	8,7	8,4	1	1	1	1	1	1	1	1	1	0	1	-9,866103	274,04185	309,9134	0
15.01.2021	22:22:29	0	0	3,841408	0,9525	323,6976	-0,029	87,424	0	1017,6	6,6	8,6	8,4	1	1	1	1	1	1	1	1	1	0	1	-5,426357	273,935023	313,85481	0
15.01.2021	22:22:30	0	0	4,632287	1,0155	314,8416	-0,026	87,434	0	1017,36	6,6	8,6	8,4	1	1	1	1	1	1	1	1	1	0	1	-5,708245	274,025491	313,994906	0
15.01.2021	22:22:31	0	0	3,163494	1,0665	309,8844	-0,026	87,437	0	1017,64	6,6	8,6	8,5	1	1	1	1	1	1	1	1	1	0	1	-7,610994	273,87003	311,367275	0
15.01.2021	22:22:32	0	0	4,406321	1,0785	315,8748	-0,027	87,438	0	1017,48	6,6	8,6	8,4	1	1	1	1	1	1	1	1	1	0	1	-10,500352	274,021032	309,18199	0
15.01.2021	22:22:33	0	0	3,276495	1,07475	326,7324	-0,027	87,413	0	1017,54	6,6	8,6	8,4	1	1	1	1	1	1	1	1	1	0	1	-10,42988	273,977979	309,051603	0
15.01.2021	22:22:34	0	0	4,745269	1,06875	324,144	-0,028	87,435	0	1017,54	6,6	8,6	8,4	1	1	1	1	1	1	1	1	1	0	1	-7,329105	274,0359	312,422625	0
15.01.2021	22:22:35	0	0	3,954391	1,07625	318,0996	-0,023	87,448	0	1017,7	6,6	8,6	8,4	1	1	1	1	1	1	1	1	1	0	1	-10,218464	273,943903	309,104104	0
15.01.2021	22:22:36	0	0	4,519304	1,0725	311,7816	-0,02	87,431	0	1017,48	6,6	8,6	8,4	1	1	1	1	1	1	1	1	1	0	1	-9,302326	274,032925	310,435522	0
15.01.2021	22:22:37	0	0	2,711582	1,09125	314,1252	-0,034	87,43	0	1017,54	6,6	8,6	8,4	1	1	1	1	1	1	1	1	1	0	1	-5,285412	273,998751	314,29297	0
15.01.2021	22:22:38	0	0	2,5986	1,07475	324,4248	-0,027	87,444	0	1017,52	6,6	8,6	8,4	1	1	1	1	1	1	1	1	1	0	1	-6,20155	273,893638	312,88672	0
15.01.2021	22:22:39	0	0	4,067374	1,08225	324,4572	-0,033	87,424	0	1017,44	6,6	8,6	8,4	1	1	1	1	1	1	1	1	1	0	1	-9,584214	273,896591	309,517818	0
15.01.2021	22:22:40	0	0	3,389478	1,03575	317,376	-0,021	87,436	0	1017,46	6,6	8,6	8,4	1	1	1	1	1	1	1	1	1	0	1	-2,466526	273,844978	316,395045	0
15.01.2021	22:22:41	0	0	4,632287	1,074	313,2252	-0,027	87,421	0	1017,5	6,6	8,6	8,4	1	1	1	1	1	1	1	1	1	0	1	-9,372798	273,920233	309,83942	0
15.01.2021	22:22:42	0	0	4,632287	1,06425	303,2748	-0,019	87,431	0	1017,52	6,6	8,6	8,4	1	1	1	1	1	1	1	1	1	0	1	-7,963354	274,015088	311,691251	0
15.01.2021	22:22:43	0	0	4,293339	1,0275	303,2208	-0,025	87,426	0	1017,44	6,6	8,6	8,4	1	1	1	1	1	1	1	1	1	0	1	-11,346018	273,943903	307,976549	0
15.01.2021	22:22:44	0	0	5,084217	1,047	306,8604	-0,022	87,425	0	1017,52	6,6	8,6	8,4	1	1	1	1	1	1	1	1	1	0	1	-11,980268	274,031438	307,750639	0
15.01.2021	22:22:45	0	0	3,728426	1,10475	291,1752	-0,031	87,423	0	1017,46	6,6	8,6	8,4	1	1	1	1	1	1	1	1	1	0	1	-7,470049	273,895115	311,625101	0
15.01.2021	22:22:46	0	0	4,745269	1,12125	279,2196	-0,024	87,43	0	1017,56	6,6	8,6	8,4	1	1	1	1	1	1	1	1	1	0	1	-7,751938	273,844978	311,109632	0
15.01.2021	22:22:47	0	0	2,711582	1,09425	299,43	-0,029	87,416	0	1017,6	6,7	8,6	8,4	1	1	1	1	1	1	1	1	1	0	1	-9,302326	273,951305	310,05476	0
15.01.2021	22:22:48	0	0	4,745269	1,1805	300,1752	-0,027	87,42	0	1017,6	6,6	8,6	8,4	1	1	1	1	1	1	1	1	1	0	1	-8,033827	274,04185	311,745677	0
15.01.2021	22:22:49	0	0	2,711582	1,2765	284,076	-0,028	87,411	0	1017,56	6,7	8,6	8,4	1	1	1	1	1	1	1	1	1	0	1	-12,05074	273,906931	307,099478	0
15.01.2021	22:22:50	0	0	4,406321	1,392	297,5364	-0,022	87,412	0	1017,66	6,6	8,6	8,4	1	1	1	1	1	1	1	1	1	0	1	-8,315715	274,031438	311,415192	0
15.01.2021	22:22:51	0	0	4,971234	1,5975	290,0772	-0,025	87,422	0	1017,56	6,6	8,7	8,4	1	1	1	1	1	1	1	1	1	0	1	-10,359408	273,958711	309,032211	0
15.01.2021	22:22:52	0	0	3,163513	1,734	284,7636	-0,028	87,41	0	1017,58	6,6	8,6	8,4	1	1	1	1	1	1	1	1	1	0	1	-8,45666	273,896591	310,645372	0
15.01.2021	22:22:53	0	0	4,519304	1,8195	296,5392	-0,03	87,422	0	1017,5	6,6	8,7	8,4	1	1	1	1	1	1	1	1	1	0	1	-13,319239	273,915798	305,872306	0
15.01.2021	22:22:54	0	0	2,711582	1,92825	280,1772	-0,027	87,423	0	1017,66	6,6	8,6	8,4	1	1	1	1	1	1	1	1	1	0	1	-6,8358	273,843505	312,018912	0
15.01.2021	22:22:55	0	0	4,293339	1,96275	294,498	-0,03	87,418	0	1017,54	6,6	8,6	8,4	1	1	1	1	1	1	1	1	1	0	1	-11,698379	273,976497	307,776188	0
15.01.2021	22:22:56	0	0	2,824565	1,9425	313,6032	-0,023	87,419	0	1017,48	6,6	8,6	8,4	1	1	1	1	1	1	1	1	1	0	1	-5,21494	274,012117	314,4258	0
15.01.2021	22:22:57	0	0	2,937548	1,80075	303,192	-0,029	87,425	0	1017,56	6,6	8,6	8,4	1	1	1	1	1	1	1	1	1	0	1	-9,513742	273,871505	309,471397	0
15.01.2021	22:22:58	0	0	4,519304	1,782	297,9288	-0,023	87,424	0	1017,6	6,6	8,7	8,4	1	1	1	1	1	1	1	1	1	0	1	-6,906272	273,979462	312,582129	0
15.01.2021	22:22:59	0	0	4,406321	1,68975	310,6656	-0,025	87,418	0	1017,62	6,7	8,6	8,4	1	1	1	1	1	1	1	1	1	0	1	-9,725159	273,852343	309,170716	0
15.01.2021	22:23:00	0	0	4,858252	1,6755	306,1044	-0,024	87,41	0	1017,54	6,6	8,6	8,4	1	1	1	1	1	1	1	1	1	0	1	-13,460183	273,896591	305,641849	0
15.01.2021	22:23:01	0	0	4,745212	1,62825	316,656	-0,028	87,391	0	1017,52	6,6	8,6	8,6	1	1	1	1	1	1	1	1	1	0	1	-11,346018	274,003205	308,253144	0
15.01.2021	22:23:02	0	0	4,180356	1,593	311,9472	-0,032	87,42	0	1017,62	6,6	8,7	8,4	1	1	1	1	1	1	1	1	1	0	1	-7,681466	273,967602	311,751616	0
15.01.2021	22:23:03	0	0	4,632287	1,60575	299,7648	-0,025	87,414	0	1017,58	6,6	8,6	8,4	1	1	1	1	1	1	1	1	1	0	1	-5,285412	273,856763	313,631052	0
15.01.2021	22:23:04	0	0	3,954391	1,63275	304,5636	-0,029	87,42	0	1017,62	6,6	8,6	8,4	1	1	1	1	1	1	1	1	1	0	1	-6,624383	273,847923	312,250907	0
15.01.2021	22:23:05	0	0	4,858252	1,662	302,832	-0,039	87,401	0	1017,44	6,6	8,6	8,4	1	1	1	1	1	1	1	1	1	0	1	-7,258633	274,00766	312,361316	0
15.01.2021	22:23:06	0	0	4,632287	1,70475	302,8752	-0,03	87,422	0	1017,6	6,6	8,6	8,4	1	1	1	1	1	1	1	1	1	0	1	-7,82241	273,895115	311,272741	0
15.01.2021	22:23:07	0	0	4,745241	1,67625	307,1556	-0,028	87,389	0	1017,36	6,6	8,7	8,5	1	1	1	1	1	1	1	1	1	0	1	-7,892882	274,009146	311,733996	0
15.01.2021	22:23:08	0	0	4,519277	1,72425	302,0616	-0,032	87,412	0	1017,52	6,6	8,6	8,5	1	1	1	1	1	1	1	1	1	0	1	-4,298802	273,948344	315,044474	0
15.01.2021	22:23:09	0	0	3,163513	1,68375	302,7744	-0,028	87,42	0	1017,72	6,6	8,7	8,4	1	1	1	1	1	1	1	1	1	0	1	-5,990134	274,009146	313,636745	0
15.01.2021	22:23:10	0	0	4,519304	1,62525	298,0332	-0,026	87,412	0	1017,44	6,6	8,6	8,4	1	1	1	1	1	1	1	1	1	0	1	-5,285412	273,912842	313,892355	0
15.01.2021	22:23:11	0	0	2,372635	1,57425	300,1248	-0,028	87,415	0	1017,66	6,6	8,6	8,4	1	1	1	1	1	1	1	1	1	0	1	-8,174771	273,84056	310,666225	0
15.01.2021	22:23:12	0	0	4,293339	1,54875	290,0304	-0,026	87,405	0	1017,6	6,6	8,6	8,4	1	1	1	1	1	1	1	1	1	0	1	-9,020437	273,979462	310,467964	0
15.01.2021	22:23:13	0	0	4,632259	1,5045	308,0736	-0,028	87,428	0	1017,58	6,6	8,6	8,5	1	1	1	1	1	1	1	1	1	0	1	-9,584214	273,850869	309,304798	0
15.01.2021	22:23:14	0	0	3,163513	1,46175	314,3664	-0,033	87,403	0	1017,56	6,6	8,7	8,4	1	1	1	1	1	1	1	1	1	0	1	-6,272023	273,85971	312,658172	0
15.01.2021	22:23:15	0	0	4,632287	1,4115	298,98	-0,025	87,417	0	1017,68	6,6	8,6	8,4	1	1	1	1	1	1	1	1	1	0	1	-7,399577	274,016574	312,261961	0
15.01.2021	22:23:16	0	0	3,389478	1,362	285,516	-0,032	87,401	0	1017,5	6,6	8,7	8,4	1	1	1	1	1	1	1	1	1	0	1	-10,993658	273,989846	308,543181	0
15.01.2021	22:23:17	0	0	4,067374	1,368	294,1668	-0,029	87,404	0	1017,58	6,6	8,6	8,4	1	1	1	1	1	1	1	1	1	0	1	-6,131078	273,99133	313,412683	0
15.01.2021	22:23:18	0	0	3,615443	1,40175	301,302	-0,033	87,395	0	1017,54	6,6	8,7	8,4	1	1	1	1	1	1	1	1	1	0	1	-6,272023	273,834672	312,541549	0
15.01.2021	22:23:19	0	0	4,067374	1,45125	309,8808	-0,039	87,414	0	1017,44	6,6	8,6	8,4	1	1	1	1	1	1	1	1	1	0	1	-9,090909	273,958711	310,30071	0
15.01.2021	22:23:20	0	0	3,276495	1,50525	301,518	-0,037	87,401	0	1017,4	6,6	8,6	8,4	1	1	1	1	1	1	1	1	1	0	1	-6,272023	274,00469	313,334068	0
15.01.2021	22:23:21	0	0	3,954391	1,49775	308,8656	-0,03	87,41	0	1017,58	6,6	8,6	8,4	1	1	1	1	1	1	1	1	1	0	1	-6,906272	273,842033	311,941581	0
15.01.2021	22:23:22	0	0	3,05053	1,4835	303,156	-0,027	87,416	0	1017,4	6,6	8,6	8,4	1	1	1	1	1	1	1	1	1	0	1	-8,527132	273,87888	310,492368	0
15.01.2021	22:23:23	0	0	3,05053	1,46475	299,0052	-0,029	87,395	0	1017,5	6,6	8,6	8,4	1	1	1	1	1	1	1	1	1	0	1	-6,553911	273,960193	312,844617	0
15.01.2021	22:23:24	0	0	4,067374	1,476	299,7864	-0,036	87,414	0	1017,54	6,6	8,6	8,4	1	1	1	1	1	1	1	1	1	0	1	-7,82241	273,96612	311,60376	0
15.01.2021	22:23:25	0	0	2,937548	1,44675	311,472	-0,031	87,412	0	1017,5	6,6	8,6	8,4	1	1	1	1	1	1	1	1	1	0	1	-4,369274	273,843505	314,485437	0
15.01.2021	22:23:26	0	0	4,406321	1,45575	305,7804	-0,033	87,418	0	1017,44	6,6	8,7	8,4	1	1	1	1	1	1	1	1	1	0	1	-5,073996	273,955749	314,303808	0
15.01.2021	22:23:27	0	0	4,632287	1,43475	295,5276	-0,029	87,404	0	1017,56	6,6	8,6	8,4	1	1	1	1	1	1	1	1	1	0	1	-10,923185	274,01806	308,745287	0
15.01.2021	22:23:28	0	0	4,519304	1,44375	310,6836	-0,035	87,417	0	1017,5	6,6	8,6	8,4	1	1	1	1	1	1	1	1	1	0	1	-10,923185	273,977979	308,558298	0
15.01.2021	22:23:29	0	0	4,180356	1,49025	309,942	-0,036	87,426	0	1017,58	6,7	8,7	8,4	1	1	1	1	1	1	1	1	1	0	1	-6,483439	273,933543	312,79083	0
15.01.2021	22:23:30	0	0	4,858252	1,515	297,5832	-0,028	87,432	0	1017,68	6,6	8,6	8,4	1	1	1	1	1	1	1	1	1	0	1	-4,721635	273,839088	314,112504	0
15.01.2021	22:23:31	0	0	4,293339	1,623	308,8404	-0,033	87,416	0	1017,74	6,6	8,6	8,4	1	1	1	1	1	1	1	1	1	0	1	-8,527132	273,887734	310,533623	0
15.01.2021	22:23:32	0	0	2,485617	1,605	303,174	-0,027	87,426	0	1017,8	6,6	8,6	8,4	1	1	1	1	1	1	1	1	1	0	1	-4,933051	274,00469	314,673039	0
15.01.2021	22:23:33	0	0	2,485617	1,623	306,0972	-0,032	87,4	0	1017,58	6,6	8,6	8,4	1	1	1	1	1	1	1	1	1	0	1	-8,949965	273,969084	310,490029	0
15.01.2021	22:23:34	0	0	2,5986	1,62975	311,7384	-0,032	87,434	0	1017,5	6,6	8,6	8,4	1	1	1	1	1	1	1	1	1	0	1	-5,990134	274,012117	313,650607	0
15.01.2021	22:23:35	0	0	2,485602	1,617	305,0424	-0,031	87,42	0	1017,34	6,6	8,6	8,5	1	1	1	1	1	1	1	1	1	0	1	-6,553911	273,853816	312,348826	0
15.01.2021	22:23:36	0	0	2,711582	1,68675	306,8568	-0,028	87,432	0	1017,46	6,6	8,6	8,4	1	1	1	1	1	1	1	1	1	0	1	-8,245243	273,918754	310,960083	0
15.01.2021	22:23:37	0	0	2,5986	1,75275	296,1036	-0,029	87,416	0	1017,52	6,6	8,6	8,4	1	1	1	1	1	1	1	1	1	0	1	-5,84919	273,834672	312,964382	0
15.01.2021	22:23:38	0	0	2,824565	1,77975	309,546	-0,039	87,425	0	1017,34	6,7	8,6	8,4	1	1	1	1	1	1	1	1	1	0	1	-8,738548	273,955749	310,639256	0
15.01.2021	22:23:39	0	0	4,406321	1,80075	300,2076	-0,028	87,43	0	1017,52	6,7	8,6	8,4	1	1	1	1	1	1	1	1	1	0	1	-8,45666	273,843505	310,398052	0
15.01.2021	22:23:40	0	0	3,163513	1,875	305,676	-0,031	87,411	0	1017,58	6,6	8,6	8,4	1	1	1	1	1	1	1	1	1	0	1	-3,523608	273,868555	315,447791	0
15.01.2021	22:23:41	0	0	4,858193	1,89825	300,4848	-0,04	87,42	0	1017,46	6,6	8,6	8,6	1	1	1	1	1	1	1	1	1	0	1	-9,090909	274,01806	310,577563	0
15.01.2021	22:23:42	0	0	4,745269	1,8645	304,3188	-0,036	87,412	0	1017,44	6,6	8,6	8,4	1	1	1	1	1	1	1	1	1	0	1	-9,302326	273,84056	309,53867	0
15.01.2021	22:23:43	0	0	3,728426	1,87875	299,754	-0,034	87,415	0	1017,48	6,6	8,6	8,4	1	1	1	1	1	1	1	1	1	0	1	-7,470049	273,91432	311,714607	0
15.01.2021	22:23:44	0	0	2,824565	1,914	303,1884	-0,033	87,416	0	1017,52	6,6	8,6	8,4	1	1	1	1	1	1	1	1	1	0	1	-7,047216	274,001721	312,545018	0
15.01.2021	22:23:45	0	0	2,711582	1,9005	308,0664	-0,035	87,428	0	1017,54	6,6	8,6	8,4	1	1	1	1	1	1	1	1	1	0	1	-5,496829	273,875929	313,508925	0
15.01.2021	22:23:46	0	0	2,937548	1,821	303,552	-0,033	87,406	0	1017,66	6,6	8,6	8,4	1	1	1	1	1	1	1	1	1	0	1	-8,315715	273,896591	310,786317	0
15.01.2021	22:23:47	0	0	2,5986	1,74675	299,4156	-0,037	87,42	0	1017,5	6,6	8,6	8,4	1	1	1	1	1	1	1	1	1	0	1	-10,077519	274,024005	309,618695	0
15.01.2021	22:23:48	0	0	4,858252	1,72725	294,7428	-0,031	87,423	0	1017,6	6,6	8,7	8,4	1	1	1	1	1	1	1	1	1	0	1	-7,047216	273,908408	312,109888	0
15.01.2021	22:23:49	0	0	2,485617	1,65675	286,6608	-0,038	87,425	0	1017,56	6,7	8,6	8,4	1	1	1	1	1	1	1	1	1	0	1	-4,651163	274,019546	315,024244	0
15.01.2021	22:23:50	0	0	4,858223	1,6035	290,0268	-0,034	87,436	0	1017,48	6,6	8,6	8,5	1	1	1	1	1	1	1	1	1	0	1	-7,82241	273,980945	311,672908	0
15.01.2021	22:23:51	0	0	4,293339	1,56	284,85	-0,033	87,423	0	1017,56	6,6	8,6	8,4	1	1	1	1	1	1	1	1	1	0	1	-10,218464	274,010631	309,415346	0
15.01.2021	22:23:52	0	0	3,841408	1,40025	284,8356	-0,033	87,429	0	1017,54	6,6	8,6	8,4	1	1	1	1	1	1	1	1	1	0	1	-7,047216	273,868555	311,924183	0
15.01.2021	22:23:53	0	0	3,163513	1,30725	298,692	-0,035	87,425	0	1017,5	6,6	8,6	8,4	1	1	1	1	1	1	1	1	1	0	1	-6,272023	273,977979	313,209461	0
15.01.2021	22:23:54	0	0	2,937548	1,27875	302,0724	-0,033	87,417	0	1017,5	6,6	8,6	8,4	1	1	1	1	1	1	1	1	1	0	1	-10,782241	273,853816	308,120496	0
15.01.2021	22:23:55	0	0	4,067349	1,2525	308,0376	-0,031	87,437	0	1017,76	6,6	8,6	8,5	1	1	1	1	1	1	1	1	1	0	1	-7,610994	273,985395	311,905082	0
15.01.2021	22:23:56	0	0	3,954391	1,19325	323,3268	-0,034	87,436	0	1017,58	6,6	8,6	8,4	1	1	1	1	1	1	1	1	1	0	1	-9,090909	274,016574	310,570629	0
15.01.2021	22:23:57	0	0	4,519304	1,21875	308,0628	-0,036	87,432	0	1017,58	6,6	8,7	8,4	1	1	1	1	1	1	1	1	1	0	1	-9,090909	273,992814	310,459775	0
15.01.2021	22:23:58	0	0	4,519304	1,27125	309,8484	-0,029	87,439	0	1017,56	6,6	8,6	8,4	1	1	1	1	1	1	1	1	1	0	1	-4,651163	273,839088	314,182976	0
15.01.2021	22:23:59	0	0	4,745212	1,2705	304,8732	-0,031	87,42	0	1017,64	6,6	8,6	8,6	1	1	1	1	1	1	1	1	1	0	1	-7,329105	273,926147	311,910685	0
15.01.2021	22:24:00	0	0	3,841408	1,25625	308,0628	-0,039	87,417	0	1017,36	6,6	8,6	8,4	1	1	1	1	1	1	1	1	1	0	1	-8,315715	274,025491	311,387436	0
15.01.2021	22:24:01	0	0	3,841408	1,25625	308,0628	-0,039	87,417	0	1017,36	6,6	8,6	8,4	1	1	1	1	1	1	1	1	1	0	1	-9,302326	273,881831	309,730923	0
15.01.2021	22:24:02	0	0	4,180356	1,26675	300,8088	-0,044	87,423	0	1017,6	6,6	8,6	8,4	1	1	1	1	1	1	1	1	1	0	1	-8,527132	273,983912	310,982024	0
15.01.2021	22:24:03	0	0	2,711582	1,2435	290,4048	-0,042	87,439	0	1017,56	6,6	8,7	8,4	1	1	1	1	1	1	1	1	1	0	1	-6,060606	273,88921	313,007026	0
15.01.2021	22:24:04	0	0	3,163475	1,33275	291,2076	-0,03	87,438	0	1017,48	6,7	8,6	8,6	1	1	1	1	1	1	1	1	1	0	1	-13,107822	273,850869	305,78119	0
15.01.2021	22:24:05	0	0	3,954391	1,44075	285,4296	-0,03	87,44	0	1017,42	6,6	8,6	8,4	1	1	1	1	1	1	1	1	1	0	1	-5,355884	273,884782	313,691116	0
15.01.2021	22:24:06	0	0	2,485602	1,4715	294,0336	-0,032	87,437	0	1017,5	6,6	8,6	8,5	1	1	1	1	1	1	1	1	1	0	1	-7,681466	273,837616	311,145817	0
15.01.2021	22:24:07	0	0	4,858252	1,45275	286,9272	-0,027	87,433	0	1017,64	6,6	8,6	8,4	1	1	1	1	1	1	1	1	1	0	1	-7,047216	273,91432	312,13744	0
15.01.2021	22:24:08	0	0	5,1972	1,34775	297,8856	-0,033	87,428	0	1017,5	6,6	8,6	8,4	1	1	1	1	1	1	1	1	1	0	1	-5,708245	273,997267	313,863211	0
15.01.2021	22:24:09	0	0	2,711582	1,21575	303,0912	-0,03	87,427	0	1017,54	6,6	8,5	8,4	1	1	1	1	1	1	1	1	1	0	1	-4,933051	273,868555	314,038347	0
15.01.2021	22:24:10	0	0	2,372635	1,176	294,4548	-0,028	87,449	0	1017,66	6,6	8,6	8,4	1	1	1	1	1	1	1	1	1	0	1	-8,45666	273,843505	310,398052	0
15.01.2021	22:24:11	0	0	4,971205	1,1145	287,3232	-0,032	87,45	0	1017,46	6,6	8,6	8,5	1	1	1	1	1	1	1	1	1	0	1	-8,033827	273,95723	311,350885	0
15.01.2021	22:24:12	0	0	2,5986	1,0995	276,1668	-0,033	87,433	0	1017,52	6,6	8,6	8,4	1	1	1	1	1	1	1	1	1	0	1	-7,892882	274,021032	311,78946	0
15.01.2021	22:24:13	0	0	2,937548	1,0965	288,8532	-0,031	87,448	0	1017,54	6,6	8,6	8,4	1	1	1	1	1	1	1	1	1	0	1	-7,751938	273,964638	311,66732	0
15.01.2021	22:24:14	0	0	3,841408	1,1025	287,7804	-0,033	87,427	0	1017,56	6,6	8,6	8,4	1	1	1	1	1	1	1	1	1	0	1	-8,315715	274,016574	311,345823	0
15.01.2021	22:24:15	0	0	3,389478	1,1565	285,8256	-0,031	87,434	0	1017,5	6,6	8,6	8,4	1	1	1	1	1	1	1	1	1	0	1	-9,725159	273,861184	309,211901	0
15.01.2021	22:24:16	0	0	4,180356	1,16775	292,9968	-0,034	87,419	0	1017,26	6,6	8,7	8,4	1	1	1	1	1	1	1	1	1	0	1	-10,641297	273,954267	308,7296	0
15.01.2021	22:24:17	0	0	3,05053	1,11975	296,8272	-0,03	87,448	0	1017,56	6,6	8,6	8,4	1	1	1	1	1	1	1	1	1	0	1	-10,218464	273,852343	308,677411	0
15.01.2021	22:24:18	0	0	2,5986	1,08975	301,2912	-0,029	87,44	0	1017,52	6,6	8,7	8,4	1	1	1	1	1	1	1	1	1	0	1	-9,866103	273,917276	309,332333	0
15.01.2021	22:24:19	0	0	3,05053	1,13175	294,1092	-0,037	87,436	0	1017,54	6,6	8,6	8,4	1	1	1	1	1	1	1	1	1	0	1	-9,654686	273,858237	309,268643	0
15.01.2021	22:24:20	0	0	2,937548	1,20375	286,5672	-0,029	87,454	0	1017,78	6,6	8,6	8,4	1	1	1	1	1	1	1	1	1	0	1	-7,258633	273,890686	311,815878	0
15.01.2021	22:24:21	0	0	2,5986	1,2825	296,4312	-0,03	87,447	0	1017,56	6,6	8,6	8,4	1	1	1	1	1	1	1	1	1	0	1	-6,8358	274,019546	312,839607	0
15.01.2021	22:24:22	0	0	4,971234	1,36875	283,212	-0,039	87,442	0	1017,54	6,6	8,6	8,4	1	1	1	1	1	1	1	1	1	0	1	-4,721635	273,970566	314,725273	0
15.01.2021	22:24:23	0	0	2,937548	1,5675	270,7416	-0,028	87,448	0	1017,62	6,6	8,7	8,4	1	1	1	1	1	1	1	1	1	0	1	-6,060606	273,861184	312,876454	0
15.01.2021	22:24:24	0	0	2,5986	1,6695	301,6728	-0,03	87,463	0	1017,56	6,6	8,6	8,4	1	1	1	1	1	1	1	1	1	0	1	-6,412967	273,942422	312,902699	0
15.01.2021	22:24:25	0	0	4,180356	1,689	297,3024	-0,029	87,49	0	1017,66	6,6	8,6	8,4	1	1	1	1	1	1	1	1	1	0	1	-7,751938	274,00766	311,868011	0
15.01.2021	22:24:26	0	0	2,485617	1,71	287,7588	-0,027	87,456	0	1017,6	6,6	8,6	8,4	1	1	1	1	1	1	1	1	1	0	1	-10,007047	273,896591	309,094985	0
15.01.2021	22:24:27	0	0	4,293339	1,764	291,0744	-0,032	87,449	0	1017,48	6,6	8,6	8,4	1	1	1	1	1	1	1	1	1	0	1	-7,610994	273,977979	311,87049	0
15.01.2021	22:24:28	0	0	2,824548	1,779	291,8196	-0,025	87,442	0	1017,56	6,6	8,6	8,5	1	1	1	1	1	1	1	1	1	0	1	-5,21494	273,887734	313,845814	0
15.01.2021	22:24:29	0	0	3,276456	1,77225	305,7876	-0,033	87,451	0	1017,54	6,6	8,6	8,6	1	1	1	1	1	1	1	1	1	0	1	-8,104299	273,979462	311,384102	0
15.01.2021	22:24:30	0	0	4,067374	1,79625	301,248	-0,035	87,442	0	1017,62	6,6	8,6	8,4	1	1	1	1	1	1	1	1	1	0	1	-10,42988	273,995783	309,134651	0
15.01.2021	22:24:31	0	0	2,5986	1,755	312,6708	-0,025	87,455	0	1017,56	6,7	8,6	8,4	1	1	1	1	1	1	1	1	1	0	1	-8,597604	273,862658	310,346323	0
15.01.2021	22:24:32	0	0	3,05053	1,66275	303,5052	-0,033	87,446	0	1017,52	6,6	8,6	8,4	1	1	1	1	1	1	1	1	1	0	1	-3,805497	273,837616	315,021786	0
15.01.2021	22:24:33	0	0	4,971234	1,64325	299,7216	-0,029	87,454	0	1017,6	6,6	8,6	8,4	1	1	1	1	1	1	1	1	1	0	1	-8,104299	273,909886	311,059692	0
15.01.2021	22:24:34	0	0	3,954367	1,6215	293,7852	-0,034	87,448	0	1017,56	6,6	8,6	8,5	1	1	1	1	1	1	1	1	1	0	1	-5,355884	274,01806	314,312588	0
15.01.2021	22:24:35	0	0	3,954391	1,683	289,5768	-0,037	87,432	0	1017,42	6,6	8,6	8,4	1	1	1	1	1	1	1	1	1	0	1	-10,007047	273,909886	309,156944	0
15.01.2021	22:24:36	0	0	4,519304	1,671	291,096	-0,032	87,44	0	1017,52	6,6	8,6	8,4	1	1	1	1	1	1	1	1	1	0	1	-9,302326	273,986879	310,22067	0
15.01.2021	22:24:37	0	0	4,406321	1,686	284,8248	-0,029	87,435	0	1017,44	6,6	8,7	8,4	1	1	1	1	1	1	1	1	1	0	1	-12,544045	273,967602	306,889037	0
15.01.2021	22:24:38	0	0	2,372635	1,737	286,2396	-0,032	87,437	0	1017,5	6,6	8,6	8,4	1	1	1	1	1	1	1	1	1	0	1	-4,087385	274,01806	315,581087	0
15.01.2021	22:24:39	0	0	2,5986	1,758	286,6644	-0,032	87,436	0	1017,58	6,6	8,6	8,4	1	1	1	1	1	1	1	1	1	0	1	-8,879493	273,912842	310,298274	0
15.01.2021	22:24:40	0	0	4,293339	1,74375	285,2496	-0,034	87,443	0	1017,58	6,6	8,7	8,4	1	1	1	1	1	1	1	1	1	0	1	-9,372798	273,982429	310,129439	0
15.01.2021	22:24:41	0	0	4,293339	1,7085	286,6248	-0,031	87,462	0	1017,56	6,6	8,6	8,4	1	1	1	1	1	1	1	1	1	0	1	-7,258633	274,012117	312,382108	0
15.01.2021	22:24:42	0	0	4,632287	1,6935	286,2468	-0,028	87,453	0	1017,54	6,6	8,6	8,4	1	1	1	1	1	1	1	1	1	0	1	-8,245243	274,00766	311,374705	0
15.01.2021	22:24:43	0	0	4,858223	1,69125	285,5124	-0,031	87,44	0	1017,52	6,6	8,6	8,5	1	1	1	1	1	1	1	1	1	0	1	-4,933051	273,980945	314,562267	0
15.01.2021	22:24:44	0	0	3,276495	1,66275	288,1188	-0,028	87,431	0	1017,54	6,6	8,6	8,4	1	1	1	1	1	1	1	1	1	0	1	-6,976744	274,013602	312,670928	0
15.01.2021	22:24:45	0	0	3,389478	1,65225	298,4364	-0,032	87,459	0	1017,26	6,6	8,5	8,4	1	1	1	1	1	1	1	1	1	0	1	-10,077519	273,940942	309,231245	0
15.01.2021	22:24:46	0	0	3,728426	1,6185	299,0412	-0,03	87,444	0	1017,56	6,6	8,6	8,4	1	1	1	1	1	1	1	1	1	0	1	-5,708245	273,8332	313,098472	0
15.01.2021	22:24:47	0	0	3,841408	1,683	297,9396	-0,034	87,463	0	1017,6	6,6	8,6	8,4	1	1	1	1	1	1	1	1	1	0	1	-7,258633	273,976497	312,215934	0
15.01.2021	22:24:48	0	0	4,745269	1,71075	296,1504	-0,034	87,442	0	1017,52	6,6	8,7	8,4	1	1	1	1	1	1	1	1	1	0	1	-7,963354	274,01806	311,705118	0
15.01.2021	22:24:49	0	0	4,067374	1,70325	294,5592	-0,03	87,469	0	1017,52	6,6	8,6	8,4	1	1	1	1	1	1	1	1	1	0	1	-8,386187	273,906931	310,764031	0
15.01.2021	22:24:50	0	0	3,615443	1,70325	298,728	-0,037	87,466	0	1017,56	6,6	8,6	8,4	1	1	1	1	1	1	1	1	1	0	1	-5,990134	273,847923	312,885156	0
15.01.2021	22:24:51	0	0	2,5986	1,64175	286,29	-0,038	87,456	0	1017,5	6,6	8,6	8,4	1	1	1	1	1	1	1	1	1	0	1	-11,346018	273,834672	307,467553	0
15.01.2021	22:24:52	0	0	2,937548	1,557	290,0304	-0,033	87,46	0	1017,52	6,7	8,6	8,4	1	1	1	1	1	1	1	1	1	0	1	-11,839323	273,939462	307,462541	0
15.01.2021	22:24:53	0	0	2,146669	1,509	297,2196	-0,031	87,458	0	1017,56	6,6	8,6	8,4	1	1	1	1	1	1	1	1	1	0	1	-11,06413	273,849396	307,818021	0
15.01.2021	22:24:54	0	0	3,615443	1,476	297,9252	-0,028	87,462	0	1017,52	6,6	8,6	8,4	1	1	1	1	1	1	1	1	1	0	1	-9,44327	273,849396	309,438881	0
15.01.2021	22:24:55	0	0	2,259652	1,52175	282,4776	-0,037	87,447	0	1017,36	6,6	8,7	8,4	1	1	1	1	1	1	1	1	1	0	1	-4,580691	273,943903	314,741877	0
15.01.2021	22:24:56	0	0	2,93753	1,5915	286,686	-0,032	87,457	0	1017,56	6,6	8,6	8,5	1	1	1	1	1	1	1	1	1	0	1	-3,382664	273,846451	315,485766	0
15.01.2021	22:24:57	0	0	4,745269	1,6515	288,1548	-0,031	87,463	0	1017,48	6,6	8,6	8,4	1	1	1	1	1	1	1	1	1	0	1	-5,990134	273,872979	313,001876	0
15.01.2021	22:24:58	0	0	4,971205	1,74675	300,5352	-0,037	87,464	0	1017,58	6,6	8,6	8,5	1	1	1	1	1	1	1	1	1	0	1	-8,174771	274,00469	311,431319	0
15.01.2021	22:24:59	0	0	2,485617	1,86225	298,4292	-0,031	87,472	0	1017,54	6,6	8,6	8,4	1	1	1	1	1	1	1	1	1	0	1	-10,852713	273,875929	308,15304	0
15.01.2021	22:25:00	0	0	4,519304	1,87725	303,156	-0,03	87,449	0	1017,5	6,6	8,6	8,4	1	1	1	1	1	1	1	1	1	0	1	-7,329105	274,019546	312,346302	0
15.01.2021	22:25:01	0	0	4,406321	1,94175	295,1532	-0,028	87,459	0	1017,6	6,6	8,6	8,4	1	1	1	1	1	1	1	1	1	0	1	-5,285412	273,972049	314,168409	0
15.01.2021	22:25:02	0	0	2,937548	1,941	294,408	-0,031	87,477	0	1017,64	6,6	8,6	8,4	1	1	1	1	1	1	1	1	1	0	1	-10,923185	274,000236	308,662123	0
15.01.2021	22:25:03	0	0	2,93753	1,9185	291,4488	-0,028	87,461	0	1017,68	6,6	8,6	8,5	1	1	1	1	1	1	1	1	1	0	1	-7,117689	273,867081	311,846841	0
15.01.2021	22:25:04	0	0	4,858252	1,926	288,8676	-0,034	87,453	0	1017,56	6,6	8,6	8,4	1	1	1	1	1	1	1	1	1	0	1	-10,711769	273,911364	308,45911	0
15.01.2021	22:25:05	0	0	2,485617	1,869	303,4476	-0,03	87,459	0	1017,6	6,6	8,6	8,4	1	1	1	1	1	1	1	1	1	0	1	-9,372798	273,839088	309,461341	0
15.01.2021	22:25:06	0	0	2,711566	1,7985	306,1368	-0,033	87,464	0	1017,56	6,6	8,6	8,5	1	1	1	1	1	1	1	1	1	0	1	-9,654686	273,96612	309,771483	0
15.01.2021	22:25:07	0	0	2,711582	1,788	303,9192	-0,031	87,463	0	1017,54	6,6	8,6	8,4	1	1	1	1	1	1	1	1	1	0	1	-8,45666	273,84056	310,384336	0
15.01.2021	22:25:08	0	0	4,519304	1,78275	299,0592	-0,029	87,462	0	1017,42	6,6	8,7	8,4	1	1	1	1	1	1	1	1	1	0	1	-11,486963	273,92319	307,73904	0
15.01.2021	22:25:09	0	0	2,824565	1,8135	300,0744	-0,028	87,48	0	1017,74	6,6	8,6	8,4	1	1	1	1	1	1	1	1	1	0	1	-11,698379	273,846451	307,170051	0
15.01.2021	22:25:10	0	0	3,05053	1,73925	300,168	-0,034	87,48	0	1017,58	6,6	8,6	8,4	1	1	1	1	1	1	1	1	1	0	1	-6,272023	273,861184	312,665037	0
15.01.2021	22:25:11	0	0	3,163513	1,73775	288,3492	-0,031	87,469	0	1017,58	6,6	8,6	8,4	1	1	1	1	1	1	1	1	1	0	1	-12,332629	274,012117	307,308112	0
15.01.2021	22:25:12	0	0	4,180356	1,6725	295,182	-0,038	87,453	0	1017,5	6,7	8,6	8,4	1	1	1	1	1	1	1	1	1	0	1	-8,174771	273,932064	311,092601	0
15.01.2021	22:25:13	0	0	2,937548	1,6755	303,4692	-0,03	87,473	0	1017,6	6,6	8,6	8,4	1	1	1	1	1	1	1	1	1	0	1	-10,500352	273,842033	308,347501	0
15.01.2021	22:25:14	0	0	2,937548	1,6755	306,8496	-0,035	87,456	0	1017,62	6,6	8,6	8,4	1	1	1	1	1	1	1	1	1	0	1	-6,624383	273,895115	312,470767	0
15.01.2021	22:25:15	0	0	2,5986	1,61775	312,8544	-0,037	87,462	0	1017,46	6,6	8,6	8,4	1	1	1	1	1	1	1	1	1	0	1	-10,923185	274,016574	308,738353	0
15.01.2021	22:25:16	0	0	3,841385	1,61175	306,2412	-0,034	87,465	0	1017,56	6,6	8,6	8,5	1	1	1	1	1	1	1	1	1	0	1	-8,80902	273,87003	310,169248	0
15.01.2021	22:25:17	0	0	4,632287	1,635	301,1652	-0,033	87,462	0	1017,7	6,6	8,7	8,4	1	1	1	1	1	1	1	1	1	0	1	-10,852713	274,000236	308,732595	0
15.01.2021	22:25:18	0	0	2,5986	1,644	309,2148	-0,029	87,467	0	1017,52	6,6	8,6	8,4	1	1	1	1	1	1	1	1	1	0	1	-7,963354	273,87003	311,014914	0
15.01.2021	22:25:19	0	0	3,163513	1,7445	303,8004	-0,031	87,464	0	1017,7	6,6	8,6	8,4	1	1	1	1	1	1	1	1	1	0	1	-9,44327	273,85971	309,486924	0
15.01.2021	22:25:20	0	0	4,745269	1,84725	316,1916	-0,038	87,455	0	1017,44	6,6	8,6	8,4	1	1	1	1	1	1	1	1	1	0	1	-4,933051	273,982429	314,569185	0
15.01.2021	22:25:21	0	0	4,632287	1,88775	314,3988	-0,033	87,474	0	1017,58	6,6	8,6	8,4	1	1	1	1	1	1	1	1	1	0	1	-10,993658	273,887734	308,067097	0
15.01.2021	22:25:22	0	0	2,937548	1,7505	320,382	-0,035	87,472	0	1017,52	6,6	8,6	8,4	1	1	1	1	1	1	1	1	1	0	1	-5,003524	273,87003	313,974745	0
15.01.2021	22:25:23	0	0	3,502461	1,671	321,0588	-0,039	87,472	0	1017,48	6,6	8,6	8,4	1	1	1	1	1	1	1	1	1	0	1	-8,033827	273,948344	311,30945	0
15.01.2021	22:25:24	0	0	2,824565	1,54725	313,74	-0,023	87,486	0	1017,62	6,7	8,6	8,4	1	1	1	1	1	1	1	1	1	0	1	-7,117689	274,00766	312,50226	0
15.01.2021	22:25:25	0	0	3,276495	1,48425	307,188	-0,03	87,46	0	1017,56	6,6	8,6	8,4	1	1	1	1	1	1	1	1	1	0	1	-9,936575	274,000236	309,648733	0
15.01.2021	22:25:26	0	0	2,259652	1,455	305,712	-0,036	87,488	0	1017,58	6,6	8,6	8,4	1	1	1	1	1	1	1	1	1	0	1	-4,157858	273,834672	314,655714	0
15.01.2021	22:25:27	0	0	4,406321	1,47975	320,256	-0,036	87,474	0	1017,48	6,6	8,6	8,4	1	1	1	1	1	1	1	1	1	0	1	-7,188161	273,964638	312,231098	0
15.01.2021	22:25:28	0	0	4,519304	1,48875	319,9716	-0,03	87,469	0	1017,42	6,6	8,6	8,4	1	1	1	1	1	1	1	1	1	0	1	-3,805497	274,009146	315,821382	0
15.01.2021	22:25:29	0	0	4,067374	1,47975	319,5648	-0,031	87,458	0	1017,58	6,6	8,6	8,4	1	1	1	1	1	1	1	1	1	0	1	-7,681466	273,937982	311,613499	0
15.01.2021	22:25:30	0	0	3,389478	1,42875	312,8292	-0,029	87,472	0	1017,56	6,6	8,6	8,4	1	1	1	1	1	1	1	1	1	0	1	-10,007047	273,994298	309,55056	0
15.01.2021	22:25:31	0	0	4,293313	1,38375	309,204	-0,035	87,466	0	1017,54	6,6	8,6	8,5	1	1	1	1	1	1	1	1	1	0	1	-13,03735	274,003205	306,561812	0
15.01.2021	22:25:32	0	0	2,485617	1,46025	308,4444	-0,031	87,47	0	1017,64	6,6	8,6	8,4	1	1	1	1	1	1	1	1	1	0	1	-8,597604	273,976497	310,876963	0
15.01.2021	22:25:33	0	0	2,824565	1,524	309,5676	-0,026	87,474	0	1017,52	6,6	8,6	8,4	1	1	1	1	1	1	1	1	1	0	1	-7,610994	273,87003	311,367275	0
15.01.2021	22:25:34	0	0	2,937548	1,545	308,8584	-0,029	87,477	0	1017,44	6,6	8,6	8,4	1	1	1	1	1	1	1	1	1	0	1	-7,188161	273,903976	311,948287	0
15.01.2021	22:25:35	0	0	2,824565	1,53525	303,4404	-0,038	87,465	0	1017,54	6,6	8,6	8,4	1	1	1	1	1	1	1	1	1	0	1	-9,090909	274,025491	310,612243	0
15.01.2021	22:25:36	0	0	5,310182	1,51275	312,354	-0,033	87,466	0	1017,64	6,6	8,7	8,4	1	1	1	1	1	1	1	1	1	0	1	-9,584214	273,92319	309,641788	0
15.01.2021	22:25:37	0	0	3,163513	1,515	299,4264	-0,031	87,468	0	1017,76	6,6	8,7	8,4	1	1	1	1	1	1	1	1	1	0	1	-9,231853	274,024005	310,464361	0
15.01.2021	22:25:38	0	0	4,519304	1,5855	304,6284	-0,036	87,468	0	1017,84	6,6	8,6	8,4	1	1	1	1	1	1	1	1	1	0	1	-8,104299	273,967602	311,328783	0
15.01.2021	22:25:39	0	0	2,711582	1,6665	308,0808	-0,028	87,47	0	1017,5	6,7	8,6	8,4	1	1	1	1	1	1	1	1	1	0	1	-5,21494	273,99133	314,328821	0
15.01.2021	22:25:40	0	0	2,824565	1,72275	305,7048	-0,035	87,46	0	1017,62	6,6	8,6	8,4	1	1	1	1	1	1	1	1	1	0	1	-8,033827	273,890686	311,040684	0
15.01.2021	22:25:41	0	0	3,954391	1,7265	305,0388	-0,031	87,474	0	1017,44	6,6	8,7	8,4	1	1	1	1	1	1	1	1	1	0	1	-7,117689	274,024005	312,578526	0
15.01.2021	22:25:42	0	0	2,485617	1,803	304,9416	-0,03	87,463	0	1017,58	6,6	8,6	8,4	1	1	1	1	1	1	1	1	1	0	1	-8,45666	273,945383	310,87281	0
15.01.2021	22:25:43	0	0	4,745269	1,92675	304,236	-0,032	87,471	0	1017,46	6,7	8,6	8,4	1	1	1	1	1	1	1	1	1	0	1	-6,20155	274,037387	313,557122	0
15.01.2021	22:25:44	0	0	4,858252	1,95675	306,3996	-0,031	87,462	0	1017,62	6,6	8,6	8,4	1	1	1	1	1	1	1	1	1	0	1	-11,346018	273,896591	307,756014	0
15.01.2021	22:25:45	0	0	3,615443	1,887	294,4476	-0,04	87,461	0	1017,42	6,6	8,6	8,4	1	1	1	1	1	1	1	1	1	0	1	-6,483439	273,8332	312,323278	0
15.01.2021	22:25:46	0	0	4,293339	1,9005	296,082	-0,032	87,464	0	1017,56	6,6	8,7	8,4	1	1	1	1	1	1	1	1	1	0	1	-6,272023	273,92319	312,95398	0
15.01.2021	22:25:47	0	0	4,293339	1,8255	288,8352	-0,034	87,466	0	1017,58	6,6	8,6	8,4	1	1	1	1	1	1	1	1	1	0	1	-6,483439	274,021032	313,198903	0
15.01.2021	22:25:48	0	0	3,389478	1,79175	292,1652	-0,031	87,44	0	1017,24	6,6	8,7	8,4	1	1	1	1	1	1	1	1	1	0	1	-8,597604	273,872979	310,394406	0
15.01.2021	22:25:49	0	0	4,406321	1,85775	289,5588	-0,03	87,469	0	1017,46	6,6	8,6	8,4	1	1	1	1	1	1	1	1	1	0	1	-10,993658	274,0359	308,758072	0
15.01.2021	22:25:50	0	0	3,050512	1,78725	309,15	-0,034	87,461	0	1017,6	6,6	8,6	8,5	1	1	1	1	1	1	1	1	1	0	1	-4,157858	273,881831	314,875391	0
15.01.2021	22:25:51	0	0	3,389478	1,626	322,992	-0,036	87,448	0	1017,58	6,6	8,6	8,4	1	1	1	1	1	1	1	1	1	0	1	-11,557435	273,887734	307,50332	0
15.01.2021	22:25:52	0	0	4,632287	1,47	313,9956	-0,035	87,467	0	1017,7	6,6	8,6	8,4	1	1	1	1	1	1	1	1	1	0	1	-8,527132	273,906931	310,623086	0
15.01.2021	22:25:53	0	0	3,163513	1,4295	314,424	-0,037	87,46	0	1017,64	6,6	8,6	8,4	1	1	1	1	1	1	1	1	1	0	1	-6,765328	273,84056	312,075668	0
15.01.2021	22:25:54	0	0	4,180356	1,37625	316,5732	-0,038	87,451	0	1017,54	6,6	8,6	8,4	1	1	1	1	1	1	1	1	1	0	1	-5,496829	273,898068	313,612085	0
15.01.2021	22:25:55	0	0	2,824565	1,39275	294,4476	-0,035	87,458	0	1017,56	6,6	8,6	8,4	1	1	1	1	1	1	1	1	1	0	1	-3,875969	274,00766	315,74398	0
15.01.2021	22:25:56	0	0	3,615443	1,377	292,914	-0,037	87,452	0	1017,46	6,7	8,6	8,4	1	1	1	1	1	1	1	1	1	0	1	-5,990134	273,850869	312,898878	0
15.01.2021	22:25:57	0	0	3,276495	1,3485	302,1336	-0,037	87,444	0	1017,56	6,6	8,7	8,4	1	1	1	1	1	1	1	1	1	0	1	-12,825934	273,942422	306,489732	0
15.01.2021	22:25:58	0	0	4,519277	1,263	302,382	-0,038	87,444	0	1017,5	6,6	8,6	8,5	1	1	1	1	1	1	1	1	1	0	1	-6,20155	273,837616	312,625732	0
15.01.2021	22:25:59	0	0	4,858252	1,19175	304,5852	-0,031	87,457	0	1017,5	6,6	8,7	8,4	1	1	1	1	1	1	1	1	1	0	1	-11,205074	273,920233	308,007144	0
15.01.2021	22:26:00	0	0	3,728426	1,22775	307,188	-0,036	87,458	0	1017,58	6,6	8,6	8,4	1	1	1	1	1	1	1	1	1	0	1	-6,272023	273,849396	312,610128	0
15.01.2021	22:26:01	0	0	5,423165	1,34475	309,2004	-0,04	87,452	0	1017,5	6,6	8,6	8,4	1	1	1	1	1	1	1	1	1	0	1	-7,258633	273,943903	312,063935	0
15.01.2021	22:26:02	0	0	3,389478	1,3755	303,1776	-0,033	87,452	0	1017,56	6,6	8,6	8,4	1	1	1	1	1	1	1	1	1	0	1	-7,470049	273,856763	311,446415	0
15.01.2021	22:26:03	0	0	3,954391	1,38	315,486	-0,033	87,455	0	1017,6	6,6	8,6	8,4	1	1	1	1	1	1	1	1	1	0	1	-3,453136	273,893638	315,635134	0
15.01.2021	22:26:04	0	0	3,954391	1,40925	318,4308	-0,034	87,461	0	1017,62	6,6	8,6	8,4	1	1	1	1	1	1	1	1	1	0	1	-12,332629	274,016574	307,32891	0
15.01.2021	22:26:05	0	0	3,163513	1,37475	312,75	-0,031	87,457	0	1017,56	6,6	8,6	8,4	1	1	1	1	1	1	1	1	1	0	1	-8,80902	273,902499	310,320543	0
15.01.2021	22:26:06	0	0	4,858252	1,35	315,2268	-0,031	87,45	0	1017,54	6,6	8,6	8,4	1	1	1	1	1	1	1	1	1	0	1	-8,245243	273,992814	311,305441	0
15.01.2021	22:26:07	0	0	3,615443	1,32675	319,2516	-0,028	87,456	0	1017,7	6,6	8,6	8,4	1	1	1	1	1	1	1	1	1	0	1	-9,44327	273,972049	310,010551	0
15.01.2021	22:26:08	0	0	4,745269	1,362	309,8556	-0,038	87,457	0	1017,48	6,6	8,6	8,4	1	1	1	1	1	1	1	1	1	0	1	-13,6716	274,001721	305,920635	0
15.01.2021	22:26:09	0	0	2,485617	1,29225	303,5484	-0,035	87,46	0	1017,68	6,6	8,6	8,4	1	1	1	1	1	1	1	1	1	0	1	-6,906272	273,847923	311,969018	0
15.01.2021	22:26:10	0	0	3,276495	1,2795	294,4044	-0,04	87,443	0	1017,48	6,6	8,6	8,4	1	1	1	1	1	1	1	1	1	0	1	-7,892882	273,881831	311,140367	0
15.01.2021	22:26:11	0	0	4,293339	1,18425	283,2156	-0,034	87,457	0	1017,48	6,6	8,6	8,4	1	1	1	1	1	1	1	1	1	0	1	-7,258633	273,892162	311,822758	0
15.01.2021	22:26:12	0	0	2,5986	1,15725	280,7748	-0,038	87,469	0	1017,66	6,6	8,6	8,4	1	1	1	1	1	1	1	1	1	0	1	-5,21494	274,00469	314,39115	0
15.01.2021	22:26:13	0	0	3,728426	1,134	285,4044	-0,039	87,45	0	1017,56	6,6	8,5	8,4	1	1	1	1	1	1	1	1	1	0	1	-8,879493	273,994298	310,678115	0
15.01.2021	22:26:14	0	0	2,711582	1,131	299,4444	-0,033	87,455	0	1017,62	6,6	8,6	8,4	1	1	1	1	1	1	1	1	1	0	1	-10,641297	274,00469	308,964794	0
15.01.2021	22:26:15	0	0	4,067374	1,176	297,2268	-0,036	87,468	0	1017,4	6,6	8,6	8,4	1	1	1	1	1	1	1	1	1	0	1	-5,708245	273,943903	313,614322	0
15.01.2021	22:26:16	0	0	3,954367	1,209	303,5412	-0,037	87,459	0	1017,74	6,6	8,6	8,5	1	1	1	1	1	1	1	1	1	0	1	-6,8358	274,006175	312,777219	0
15.01.2021	22:26:17	0	0	5,536147	1,30275	300,4452	-0,039	87,452	0	1017,66	6,6	8,6	8,4	1	1	1	1	1	1	1	1	1	0	1	-8,879493	273,955749	310,498311	0
15.01.2021	22:26:18	0	0	4,858252	1,34775	309,5784	-0,034	87,471	0	1017,76	6,6	8,6	8,4	1	1	1	1	1	1	1	1	1	0	1	-7,681466	273,834672	311,132106	0
15.01.2021	22:26:19	0	0	2,824548	1,46625	309,1896	-0,037	87,458	0	1017,64	6,6	8,6	8,5	1	1	1	1	1	1	1	1	1	0	1	-11,839323	273,908408	307,317781	0
15.01.2021	22:26:20	0	0	4,632287	1,51725	310,6944	-0,034	87,467	0	1017,58	6,6	8,6	8,4	1	1	1	1	1	1	1	1	1	0	1	-6,131078	273,830256	312,661932	0
15.01.2021	22:26:21	0	0	4,519304	1,50825	310,698	-0,039	87,467	0	1017,68	6,6	8,6	8,4	1	1	1	1	1	1	1	1	1	0	1	-10,007047	273,903976	309,1294	0
15.01.2021	22:26:22	0	0	4,293339	1,5105	308,07	-0,036	87,467	0	1017,6	6,6	8,6	8,4	1	1	1	1	1	1	1	1	1	0	1	-6,976744	274,031438	312,754163	0
15.01.2021	22:26:23	0	0	4,406321	1,48275	285,7824	-0,04	87,469	0	1017,7	6,7	8,6	8,4	1	1	1	1	1	1	1	1	1	0	1	-11,768851	273,933543	307,505418	0
15.01.2021	22:26:24	0	0	2,824565	1,4835	288,8172	-0,04	87,464	0	1017,64	6,6	8,6	8,4	1	1	1	1	1	1	1	1	1	0	1	-7,188161	274,019546	312,487246	0
15.01.2021	22:26:25	0	0	2,5986	1,4535	300,4344	-0,035	87,466	0	1017,6	6,6	8,6	8,4	1	1	1	1	1	1	1	1	1	0	1	-12,403101	273,961674	307,002337	0
15.01.2021	22:26:26	0	0	2,5986	1,419	292,6692	-0,036	87,474	0	1017,5	6,6	8,7	8,4	1	1	1	1	1	1	1	1	1	0	1	-5,990134	273,846451	312,878296	0
15.01.2021	22:26:27	0	0	4,632287	1,428	291,8592	-0,035	87,47	0	1017,72	6,6	8,6	8,4	1	1	1	1	1	1	1	1	1	0	1	-8,033827	273,982429	311,46841	0
15.01.2021	22:26:28	0	0	2,711582	1,482	296,4852	-0,036	87,477	0	1017,56	6,6	8,6	8,4	1	1	1	1	1	1	1	1	1	0	1	-8,104299	273,84056	310,736697	0
15.01.2021	22:26:29	0	0	3,615443	1,5345	300,4308	-0,036	87,473	0	1017,62	6,6	8,6	8,4	1	1	1	1	1	1	1	1	1	0	1	-7,188161	273,886258	311,865716	0
15.01.2021	22:26:30	0	0	4,180356	1,58175	300,8628	-0,035	87,482	0	1017,6	6,6	8,6	8,4	1	1	1	1	1	1	1	1	1	0	1	-8,245243	273,994298	311,312364	0
15.01.2021	22:26:31	0	0	4,858252	1,64475	302,6952	-0,037	87,473	0	1017,62	6,6	8,6	8,4	1	1	1	1	1	1	1	1	1	0	1	-8,80902	273,995783	310,755511	0
15.01.2021	22:26:32	0	0	4,293339	1,62075	303,5268	-0,041	87,475	0	1017,66	6,6	8,6	8,4	1	1	1	1	1	1	1	1	1	0	1	-6,060606	273,948344	313,28267	0
15.01.2021	22:26:33	0	0	2,711566	1,65525	300,4632	-0,038	87,478	0	1017,44	6,6	8,6	8,5	1	1	1	1	1	1	1	1	1	0	1	-8,386187	273,837616	310,441095	0
15.01.2021	22:26:34	0	0	2,711582	1,692	300,8412	-0,033	87,471	0	1017,68	6,6	8,6	8,4	1	1	1	1	1	1	1	1	1	0	1	-10,359408	273,986879	309,163588	0
15.01.2021	22:26:35	0	0	4,745241	1,72725	300,1644	-0,041	87,471	0	1017,64	6,6	8,6	8,5	1	1	1	1	1	1	1	1	1	0	1	-10,42988	273,989846	309,106958	0
15.01.2021	22:26:36	0	0	2,5986	1,743	293,7348	-0,032	87,461	0	1017,48	6,6	8,6	8,4	1	1	1	1	1	1	1	1	1	0	1	-5,426357	273,872979	313,565653	0
15.01.2021	22:26:37	0	0	3,954391	1,716	293,3496	-0,039	87,48	0	1017,58	6,6	8,7	8,4	1	1	1	1	1	1	1	1	1	0	1	-9,936575	274,01806	309,731897	0
15.01.2021	22:26:38	0	0	2,937548	1,6575	286,6824	-0,039	87,462	0	1017,62	6,6	8,6	8,4	1	1	1	1	1	1	1	1	1	0	1	-6,694856	273,970566	312,752052	0
15.01.2021	22:26:39	0	0	2,711582	1,68075	291,4884	-0,034	87,454	0	1017,52	6,6	8,6	8,4	1	1	1	1	1	1	1	1	1	0	1	-8,597604	274,016574	311,063935	0
15.01.2021	22:26:40	0	0	2,711582	1,79025	290,0268	-0,036	87,47	0	1017,62	6,6	8,6	8,4	1	1	1	1	1	1	1	1	1	0	1	-10,077519	273,963156	309,334828	0
15.01.2021	22:26:41	0	0	5,084217	1,76925	296,1504	-0,037	87,483	0	1017,7	6,6	8,6	8,4	1	1	1	1	1	1	1	1	1	0	1	-10,923185	273,951305	308,4339	0
15.01.2021	22:26:42	0	0	2,372635	1,77825	292,878	-0,036	87,451	0	1017,54	6,6	8,6	8,4	1	1	1	1	1	1	1	1	1	0	1	-9,44327	274,00469	310,16282	0
15.01.2021	22:26:43	0	0	2,824565	1,79475	299,772	-0,041	87,456	0	1017,56	6,6	8,6	8,4	1	1	1	1	1	1	1	1	1	0	1	-7,82241	273,967602	311,610671	0
15.01.2021	22:26:44	0	0	4,745269	1,806	303,1632	-0,035	87,465	0	1017,56	6,6	8,6	8,4	1	1	1	1	1	1	1	1	1	0	1	-7,470049	273,828785	311,316109	0
15.01.2021	22:26:45	0	0	3,163494	1,779	301,7016	-0,036	87,473	0	1017,54	6,6	8,6	8,5	1	1	1	1	1	1	1	1	1	0	1	-3,523608	274,000236	316,0617	0
15.01.2021	22:26:46	0	0	5,310182	1,779	306,1008	-0,038	87,459	0	1017,5	6,6	8,7	8,4	1	1	1	1	1	1	1	1	1	0	1	-11,557435	273,940942	307,75133	0
15.01.2021	22:26:47	0	0	4,293339	1,79175	300,4956	-0,042	87,451	0	1017,6	6,6	8,6	8,4	1	1	1	1	1	1	1	1	1	0	1	-7,258633	273,831728	311,541231	0
15.01.2021	22:26:48	0	0	3,50244	1,70925	295,5492	-0,034	87,463	0	1017,66	6,6	8,6	8,5	1	1	1	1	1	1	1	1	1	0	1	-6,694856	273,895115	312,400295	0
15.01.2021	22:26:49	0	0	4,180356	1,677	305,3484	-0,036	87,447	0	1017,46	6,6	8,6	8,4	1	1	1	1	1	1	1	1	1	0	1	-8,386187	274,009146	311,240691	0
15.01.2021	22:26:50	0	0	3,276495	1,60425	309,2616	-0,038	87,456	0	1017,56	6,6	8,7	8,4	1	1	1	1	1	1	1	1	1	0	1	-8,033827	273,958711	311,357793	0
15.01.2021	22:26:51	0	0	4,293339	1,58625	314,3448	-0,039	87,454	0	1017,48	6,6	8,6	8,4	1	1	1	1	1	1	1	1	1	0	1	-8,174771	273,865607	310,78289	0
15.01.2021	22:26:52	0	0	3,502461	1,5945	310,6332	-0,043	87,456	0	1017,48	6,6	8,6	8,4	1	1	1	1	1	1	1	1	1	0	1	-8,527132	273,989846	311,009707	0
15.01.2021	22:26:53	0	0	3,05053	1,60125	320,0004	-0,037	87,458	0	1017,54	6,6	8,6	8,4	1	1	1	1	1	1	1	1	1	0	1	-8,879493	273,824371	309,886112	0
15.01.2021	22:26:54	0	0	2,824565	1,6395	309,8736	-0,037	87,459	0	1017,6	6,6	8,7	8,4	1	1	1	1	1	1	1	1	1	0	1	-10,852713	273,926147	308,387077	0
15.01.2021	22:26:55	0	0	2,5986	1,66725	300,1176	-0,035	87,455	0	1017,6	6,6	8,6	8,4	1	1	1	1	1	1	1	1	1	0	1	-12,121212	274,010631	307,512597	0
15.01.2021	22:26:56	0	0	4,067374	1,68675	307,1664	-0,035	87,449	0	1017,66	6,6	8,6	8,4	1	1	1	1	1	1	1	1	1	0	1	-9,866103	273,945383	309,463367	0
15.01.2021	22:26:57	0	0	4,858252	1,65975	305,0316	-0,042	87,443	0	1017,64	6,6	8,5	8,4	1	1	1	1	1	1	1	1	1	0	1	-7,892882	273,84056	310,948113	0
15.01.2021	22:26:58	0	0	2,824565	1,8165	304,6392	-0,037	87,462	0	1017,52	6,6	8,6	8,4	1	1	1	1	1	1	1	1	1	0	1	-10,147992	273,896591	308,95404	0
15.01.2021	22:26:59	0	0	4,745269	1,9125	309,2148	-0,034	87,461	0	1017,64	6,6	8,6	8,4	1	1	1	1	1	1	1	1	1	0	1	-7,188161	274,016574	312,473378	0
15.01.2021	22:27:00	0	0	2,372635	2,00325	301,5504	-0,039	87,454	0	1017,68	6,6	8,7	8,4	1	1	1	1	1	1	1	1	1	0	1	-8,104299	273,88921	310,963334	0
15.01.2021	22:27:01	0	0	3,615443	2,043	301,266	-0,041	87,452	0	1017,44	6,6	8,6	8,4	1	1	1	1	1	1	1	1	1	0	1	-6,624383	274,003205	312,974779	0
15.01.2021	22:27:02	0	0	4,745241	2,043	301,6008	-0,035	87,457	0	1017,6	6,6	8,6	8,5	1	1	1	1	1	1	1	1	1	0	1	-7,610994	273,954267	311,759903	0
15.01.2021	22:27:03	0	0	3,728426	2,067	302,76	-0,034	87,451	0	1017,58	6,6	8,5	8,4	1	1	1	1	1	1	1	1	1	0	1	-6,553911	273,875929	312,451842	0
15.01.2021	22:27:04	0	0	3,728426	2,08275	303,966	-0,045	87,442	0	1017,52	6,6	8,6	8,4	1	1	1	1	1	1	1	1	1	0	1	-8,104299	273,976497	311,370268	0
15.01.2021	22:27:05	0	0	2,5986	2,0535	306,8352	-0,04	87,463	0	1017,62	6,6	8,6	8,4	1	1	1	1	1	1	1	1	1	0	1	-4,510218	274,006175	315,102801	0
15.01.2021	22:27:06	0	0	4,519304	2,02875	305,3556	-0,04	87,45	0	1017,66	6,6	8,6	8,4	1	1	1	1	1	1	1	1	1	0	1	-10,007047	273,898068	309,101867	0
15.01.2021	22:27:07	0	0	4,406321	2,02425	310,7196	-0,035	87,452	0	1017,64	6,6	8,6	8,4	1	1	1	1	1	1	1	1	1	0	1	-8,80902	274,022518	310,880258	0
15.01.2021	22:27:08	0	0	3,841408	1,9245	306,1656	-0,044	87,462	0	1017,5	6,6	8,6	8,4	1	1	1	1	1	1	1	1	1	0	1	-7,329105	273,960193	312,069423	0
15.01.2021	22:27:09	0	0	4,406295	1,974	304,9884	-0,038	87,46	0	1017,6	6,6	8,6	8,5	1	1	1	1	1	1	1	1	1	0	1	-8,033827	273,972049	311,419995	0
15.01.2021	22:27:10	0	0	2,937548	2,028	302,8104	-0,038	87,459	0	1017,5	6,6	8,6	8,4	1	1	1	1	1	1	1	1	1	0	1	-5,355884	273,892162	313,725506	0
15.01.2021	22:27:11	0	0	4,067374	2,076	303,5052	-0,032	87,47	0	1017,62	6,6	8,6	8,4	1	1	1	1	1	1	1	1	1	0	1	-5,003524	274,012117	314,637217	0
15.01.2021	22:27:12	0	0	3,841408	2,04825	305,7264	-0,036	87,475	0	1017,58	6,6	8,7	8,4	1	1	1	1	1	1	1	1	1	0	1	-10,852713	273,908408	308,304391	0
15.01.2021	22:27:13	0	0	4,519304	1,977	301,6044	-0,034	87,468	0	1017,5	6,6	8,6	8,4	1	1	1	1	1	1	1	1	1	0	1	-4,22833	274,006175	315,384689	0
15.01.2021	22:27:14	0	0	4,067374	1,9125	303,894	-0,04	87,472	0	1017,58	6,6	8,6	8,4	1	1	1	1	1	1	1	1	1	0	1	-7,399577	273,949825	311,950603	0
15.01.2021	22:27:15	0	0	3,954367	1,83675	308,5812	-0,014	87,471	0	1017,76	6,6	8,6	8,5	1	1	1	1	1	1	1	1	1	0	1	-7,82241	274,00766	311,797538	0
15.01.2021	22:27:16	0	0	4,971234	1,87425	296,8632	-0,043	87,469	0	1017,58	6,6	8,6	8,4	1	1	1	1	1	1	1	1	1	0	1	-5,778717	273,960193	313,619811	0
15.01.2021	22:27:17	0	0	2,711566	1,96725	301,2624	-0,042	87,467	0	1017,66	6,6	8,7	8,5	1	1	1	1	1	1	1	1	1	0	1	-7,258633	274,022518	312,430645	0
15.01.2021	22:27:18	0	0	2,5986	2,05725	306,1332	-0,038	87,474	0	1017,34	6,6	8,6	8,4	1	1	1	1	1	1	1	1	1	0	1	-6,412967	273,886258	312,64091	0
15.01.2021	22:27:19	0	0	2,937548	2,0745	304,8192	-0,036	87,474	0	1017,48	6,6	8,6	8,4	1	1	1	1	1	1	1	1	1	0	1	-2,889359	273,8229	315,869395	0
15.01.2021	22:27:20	0	0	2,5986	2,06775	297,9252	-0,039	87,468	0	1017,62	6,6	8,6	8,4	1	1	1	1	1	1	1	1	1	0	1	-9,725159	273,980945	309,77016	0
15.01.2021	22:27:21	0	0	4,293339	2,05125	312,0876	-0,04	87,47	0	1017,6	6,6	8,6	8,4	1	1	1	1	1	1	1	1	1	0	1	-7,681466	273,995783	311,883066	0
15.01.2021	22:27:22	0	0	4,632287	2,04525	305,7912	-0,045	87,469	0	1017,76	6,6	8,6	8,4	1	1	1	1	1	1	1	1	1	0	1	-9,161381	273,975014	310,30627	0
15.01.2021	22:27:23	0	0	2,711582	1,947	307,4436	-0,039	87,443	0	1017,58	6,6	8,6	8,4	1	1	1	1	1	1	1	1	1	0	1	-7,610994	273,96612	311,815176	0
15.01.2021	22:27:24	0	0	2,5986	1,8855	320,0544	-0,034	87,482	0	1017,56	6,6	8,6	8,4	1	1	1	1	1	1	1	1	1	0	1	-12,473573	274,012117	307,167168	0
15.01.2021	22:27:25	0	0	2,485617	1,73325	308,4984	-0,039	87,459	0	1017,66	6,7	8,6	8,4	1	1	1	1	1	1	1	1	1	0	1	-5,778717	273,880355	313,247657	0
15.01.2021	22:27:26	0	0	2,824565	1,683	302,8896	-0,039	87,466	0	1017,7	6,6	8,6	8,4	1	1	1	1	1	1	1	1	1	0	1	-8,315715	273,997267	311,255741	0
15.01.2021	22:27:27	0	0	3,163513	1,749	319,9752	-0,04	87,46	0	1017,5	6,6	8,6	8,4	1	1	1	1	1	1	1	1	1	0	1	-6,272023	273,886258	312,781855	0
15.01.2021	22:27:28	0	0	4,406321	1,8075	300,5352	-0,039	87,474	0	1017,68	6,6	8,6	8,4	1	1	1	1	1	1	1	1	1	0	1	-9,372798	273,8229	309,385956	0
15.01.2021	22:27:29	0	0	3,05053	1,8105	310,6692	-0,035	87,466	0	1017,64	6,6	8,6	8,4	1	1	1	1	1	1	1	1	1	0	1	-5,003524	273,937982	314,291441	0
15.01.2021	22:27:30	0	0	3,841408	1,8255	307,2132	-0,04	87,467	0	1017,64	6,6	8,6	8,4	1	1	1	1	1	1	1	1	1	0	1	-8,879493	273,842033	309,968361	0
15.01.2021	22:27:31	0	0	4,406321	1,87275	312,2136	-0,039	87,47	0	1017,62	6,6	8,6	8,4	1	1	1	1	1	1	1	1	1	0	1	-6,8358	273,988363	312,694117	0
15.01.2021	22:27:32	0	0	2,937548	1,81875	305,3304	-0,037	87,465	0	1017,56	6,6	8,5	8,4	1	1	1	1	1	1	1	1	1	0	1	-7,117689	273,87888	311,901812	0
15.01.2021	22:27:33	0	0	4,632287	1,76325	312,534	-0,038	87,471	0	1017,68	6,6	8,6	8,4	1	1	1	1	1	1	1	1	1	0	1	-6,906272	273,84056	311,934724	0
15.01.2021	22:27:34	0	0	2,824548	1,7025	310,2408	-0,043	87,458	0	1017,42	6,6	8,6	8,5	1	1	1	1	1	1	1	1	1	0	1	-6,342495	273,970566	313,104413	0
15.01.2021	22:27:35	0	0	4,067374	1,73175	297,9288	-0,036	87,481	0	1017,6	6,6	8,6	8,4	1	1	1	1	1	1	1	1	1	0	1	-8,80902	274,013602	310,838652	0
15.01.2021	22:27:36	0	0	3,163513	1,686	302,4396	-0,043	87,459	0	1017,64	6,6	8,7	8,4	1	1	1	1	1	1	1	1	1	0	1	-6,8358	273,896591	312,266232	0
15.01.2021	22:27:37	0	0	5,310182	1,7115	305,7372	-0,034	87,477	0	1017,68	6,6	8,6	8,4	1	1	1	1	1	1	1	1	1	0	1	-7,963354	273,842033	310,884499	0
15.01.2021	22:27:38	0	0	3,954391	1,788	309,2256	-0,042	87,467	0	1017,64	6,6	8,6	8,4	1	1	1	1	1	1	1	1	1	0	1	-9,936575	273,917276	309,26186	0
15.01.2021	22:27:39	0	0	4,632259	1,85475	308,106	-0,037	87,475	0	1017,6	6,6	8,7	8,5	1	1	1	1	1	1	1	1	1	0	1	-7,963354	274,010631	311,670455	0
15.01.2021	22:27:40	0	0	2,372635	1,86825	307,566	-0,033	87,481	0	1017,78	6,6	8,5	8,4	1	1	1	1	1	1	1	1	1	0	1	-6,906272	273,91432	312,278384	0
15.01.2021	22:27:41	0	0	4,406321	1,824	309,5856	-0,04	87,486	0	1017,66	6,6	8,6	8,4	1	1	1	1	1	1	1	1	1	0	1	-6,342495	274,00766	313,277454	0
15.01.2021	22:27:42	0	0	3,841408	1,79025	311,4036	-0,033	87,482	0	1017,62	6,6	8,5	8,4	1	1	1	1	1	1	1	1	1	0	1	-8,80902	273,902499	310,320543	0
15.01.2021	22:27:43	0	0	2,824565	1,72725	310,2372	-0,041	87,487	0	1017,6	6,6	8,6	8,4	1	1	1	1	1	1	1	1	1	0	1	-7,892882	273,831728	310,906981	0
15.01.2021	22:27:44	0	0	2,711582	1,62225	308,4444	-0,044	87,472	0	1017,58	6,6	8,6	8,4	1	1	1	1	1	1	1	1	1	0	1	-8,45666	273,935023	310,824507	0
15.01.2021	22:27:45	0	0	3,615443	1,55025	311,3424	-0,034	87,487	0	1017,56	6,6	8,6	8,4	1	1	1	1	1	1	1	1	1	0	1	-5,84919	274,012117	313,791551	0
15.01.2021	22:27:46	0	0	4,632287	1,54575	295,524	-0,039	87,49	0	1017,48	6,6	8,7	8,4	1	1	1	1	1	1	1	1	1	0	1	-10,711769	273,91432	308,472887	0
15.01.2021	22:27:47	0	0	2,937548	1,6155	307,2132	-0,034	87,47	0	1017,44	6,6	8,7	8,4	1	1	1	1	1	1	1	1	1	0	1	-5,144468	273,839088	313,689671	0
15.01.2021	22:27:48	0	0	3,502461	1,635	304,686	-0,036	87,472	0	1017,4	6,6	8,6	8,4	1	1	1	1	1	1	1	1	1	0	1	-5,144468	273,932064	314,122904	0
15.01.2021	22:27:49	0	0	2,5986	1,566	305,8092	-0,035	87,496	0	1017,6	6,6	8,6	8,4	1	1	1	1	1	1	1	1	1	0	1	-6,694856	273,827313	312,08445	0
15.01.2021	22:27:50	0	0	4,632259	1,52175	300,1032	-0,036	87,494	0	1017,58	6,6	8,6	8,5	1	1	1	1	1	1	1	1	1	0	1	-5,637773	273,937982	313,657192	0
15.01.2021	22:27:51	0	0	3,954391	1,5975	300,4632	-0,037	87,497	0	1017,58	6,6	8,6	8,4	1	1	1	1	1	1	1	1	1	0	1	-4,792107	274,009146	314,834771	0
15.01.2021	22:27:52	0	0	2,485602	1,60425	304,9632	-0,037	87,502	0	1017,76	6,6	8,6	8,5	1	1	1	1	1	1	1	1	1	0	1	-11,275546	273,948344	308,06773	0
15.01.2021	22:27:53	0	0	4,971234	1,55025	309,2616	-0,038	87,49	0	1017,54	6,6	8,6	8,4	1	1	1	1	1	1	1	1	1	0	1	-2,466526	273,8229	316,292228	0
15.01.2021	22:27:54	0	0	3,728426	1,5405	303,5232	-0,04	87,497	0	1017,56	6,6	8,7	8,4	1	1	1	1	1	1	1	1	1	0	1	-8,033827	273,862658	310,9101	0
15.01.2021	22:27:55	0	0	2,711582	1,4865	298,6272	-0,044	87,493	0	1017,56	6,6	8,6	8,4	1	1	1	1	1	1	1	1	1	0	1	-7,047216	273,87003	311,931052	0
15.01.2021	22:27:56	0	0	3,615443	1,47	300,8772	-0,033	87,504	0	1017,7	6,6	8,6	8,4	1	1	1	1	1	1	1	1	1	0	1	-8,597604	273,853816	310,305133	0
15.01.2021	22:27:57	0	0	2,93753	1,461	294,75	-0,037	87,495	0	1017,44	6,6	8,6	8,5	1	1	1	1	1	1	1	1	1	0	1	-7,399577	273,995783	312,164954	0
15.01.2021	22:27:58	0	0	4,858252	1,47375	297,2484	-0,034	87,509	0	1017,62	6,6	8,6	8,4	1	1	1	1	1	1	1	1	1	0	1	-10,147992	273,843505	308,70672	0
15.01.2021	22:27:59	0	0	3,841385	1,49925	303,4944	-0,041	87,501	0	1017,4	6,6	8,6	8,5	1	1	1	1	1	1	1	1	1	0	1	-6,060606	273,975014	313,407045	0
15.01.2021	22:28:00	0	0	3,05053	1,55925	300,1068	-0,038	87,51	0	1017,56	6,6	8,5	8,4	1	1	1	1	1	1	1	1	1	0	1	-7,399577	274,021032	312,282765	0
15.01.2021	22:28:01	0	0	3,05053	1,55925	300,1068	-0,038	87,51	0	1017,56	6,6	8,5	8,4	1	1	1	1	1	1	1	1	1	0	1	-5,990134	273,948344	313,353142	0
15.01.2021	22:28:02	0	0	1,920704	1,524	309,2472	-0,038	87,512	0	1017,7	6,6	8,6	8,4	1	1	1	1	1	1	1	1	1	0	1	-4,651163	273,8229	314,107591	0
15.01.2021	22:28:03	0	0	4,971234	1,55325	294,4188	-0,038	87,5	0	1017,76	6,6	8,6	8,4	1	1	1	1	1	1	1	1	1	0	1	-10,923185	273,948344	308,420091	0
15.01.2021	22:28:04	0	0	5,310182	1,6125	300,2256	-0,034	87,523	0	1017,64	6,6	8,6	8,4	1	1	1	1	1	1	1	1	1	0	1	-8,315715	274,009146	311,311163	0
15.01.2021	22:28:05	0	0	3,163513	1,6335	299,3256	-0,036	87,519	0	1017,72	6,6	8,7	8,4	1	1	1	1	1	1	1	1	1	0	1	-9,302326	273,96612	310,123844	0
15.01.2021	22:28:06	0	0	5,536147	1,629	302,472	-0,04	87,502	0	1017,58	6,6	8,6	8,4	1	1	1	1	1	1	1	1	1	0	1	-7,258633	273,985395	312,257443	0
15.01.2021	22:28:07	0	0	4,632287	1,5945	310,77	-0,04	87,514	0	1017,54	6,6	8,7	8,4	1	1	1	1	1	1	1	1	1	0	1	-5,919662	274,010631	313,714148	0
15.01.2021	22:28:08	0	0	4,406321	1,602	309,9168	-0,039	87,516	0	1017,56	6,6	8,6	8,4	1	1	1	1	1	1	1	1	1	0	1	-8,80902	273,980945	310,686298	0
15.01.2021	22:28:09	0	0	4,745269	1,608	304,2756	-0,042	87,521	0	1017,56	6,6	8,5	8,4	1	1	1	1	1	1	1	1	1	0	1	-7,258633	273,997267	312,312824	0
15.01.2021	22:28:10	0	0	5,310182	1,644	302,0616	-0,038	87,522	0	1017,58	6,6	8,5	8,4	1	1	1	1	1	1	1	1	1	0	1	-7,047216	273,982429	312,45502	0
15.01.2021	22:28:11	0	0	4,519277	1,686	304,9776	-0,041	87,518	0	1017,58	6,6	8,6	8,5	1	1	1	1	1	1	1	1	1	0	1	-5,285412	273,883306	313,754712	0
15.01.2021	22:28:12	0	0	4,519304	1,7625	309,528	-0,035	87,515	0	1017,64	6,6	8,6	8,4	1	1	1	1	1	1	1	1	1	0	1	-7,117689	274,015088	312,536917	0
15.01.2021	22:28:13	0	0	3,502461	1,73925	302,0868	-0,038	87,522	0	1017,68	6,6	8,6	8,4	1	1	1	1	1	1	1	1	1	0	1	-10,218464	273,927626	309,028221	0
15.01.2021	22:28:14	0	0	4,519304	1,71375	302,4648	-0,034	87,519	0	1017,62	6,6	8,6	8,4	1	1	1	1	1	1	1	1	1	0	1	-6,20155	273,998751	313,376831	0
15.01.2021	22:28:15	0	0	2,711582	1,71375	303,516	-0,04	87,524	0	1017,56	6,6	8,5	8,4	1	1	1	1	1	1	1	1	1	0	1	-8,879493	273,960193	310,519036	0
15.01.2021	22:28:16	0	0	4,858252	1,6875	305,4348	-0,039	87,514	0	1017,64	6,6	8,6	8,4	1	1	1	1	1	1	1	1	1	0	1	-8,738548	273,973531	310,722188	0
15.01.2021	22:28:17	0	0	4,293339	1,647	300,4092	-0,033	87,53	0	1017,6	6,6	8,5	8,4	1	1	1	1	1	1	1	1	1	0	1	-9,725159	273,95723	309,659553	0
15.01.2021	22:28:18	0	0	3,841408	1,581	299,79	-0,036	87,532	0	1017,62	6,6	8,6	8,4	1	1	1	1	1	1	1	1	1	0	1	-10,359408	274,00766	309,26054	0
15.01.2021	22:28:19	0	0	3,841408	1,54725	290,8116	-0,036	87,518	0	1017,58	6,6	8,6	8,4	1	1	1	1	1	1	1	1	1	0	1	-5,567301	273,906931	313,582917	0
15.01.2021	22:28:20	0	0	3,728426	1,506	298,6272	-0,038	87,538	0	1017,6	6,6	8,6	8,4	1	1	1	1	1	1	1	1	1	0	1	-6,20155	273,8332	312,605167	0
15.01.2021	22:28:21	0	0	4,745269	1,473	294,3864	-0,037	87,531	0	1017,6	6,6	8,6	8,4	1	1	1	1	1	1	1	1	1	0	1	-9,020437	273,982429	310,4818	0
15.01.2021	22:28:22	0	0	3,05053	1,458	291,78	-0,036	87,531	0	1017,48	6,6	8,6	8,4	1	1	1	1	1	1	1	1	1	0	1	-12,896406	273,861184	306,040654	0
15.01.2021	22:28:23	0	0	3,05053	1,44525	297,2016	-0,035	87,536	0	1017,66	6,6	8,6	8,4	1	1	1	1	1	1	1	1	1	0	1	-13,107822	273,901022	306,014857	0
15.01.2021	22:28:24	0	0	4,632287	1,4265	298,3104	-0,036	87,545	0	1017,56	6,6	8,6	8,4	1	1	1	1	1	1	1	1	1	0	1	-9,020437	274,009146	310,606442	0
15.01.2021	22:28:25	0	0	2,711582	1,40475	292,968	-0,033	87,511	0	1017,5	6,6	8,6	8,4	1	1	1	1	1	1	1	1	1	0	1	-10,077519	273,975014	309,390132	0
15.01.2021	22:28:26	0	0	4,406295	1,30725	309,9204	-0,031	87,534	0	1017,7	6,6	8,6	8,5	1	1	1	1	1	1	1	1	1	0	1	-12,191684	273,834672	306,621887	0
15.01.2021	22:28:27	0	0	3,728426	1,236	302,8068	-0,038	87,538	0	1017,64	6,6	8,7	8,4	1	1	1	1	1	1	1	1	1	0	1	-8,879493	273,967602	310,553589	0
15.01.2021	22:28:28	0	0	3,389478	1,20525	292,0032	-0,037	87,521	0	1017,58	6,6	8,6	8,4	1	1	1	1	1	1	1	1	1	0	1	-11,346018	273,865607	307,611643	0
15.01.2021	22:28:29	0	0	4,293339	1,16925	303,804	-0,019	87,55	0	1017,7	6,6	8,6	8,4	1	1	1	1	1	1	1	1	1	0	1	-7,188161	273,886258	311,865716	0
15.01.2021	22:28:30	0	0	4,406321	1,161	302,8536	-0,038	87,536	0	1017,6	6,6	8,7	8,4	1	1	1	1	1	1	1	1	1	0	1	-2,959831	274,003205	316,639331	0
15.01.2021	22:28:31	0	0	4,180356	1,12425	297,2232	-0,035	87,53	0	1017,7	6,6	8,6	8,4	1	1	1	1	1	1	1	1	1	0	1	-4,933051	273,868555	314,038347	0
15.01.2021	22:28:32	0	0	2,711566	1,04175	295,1424	-0,033	87,533	0	1017,56	6,6	8,6	8,5	1	1	1	1	1	1	1	1	1	0	1	-3,946441	273,834672	314,867131	0
15.01.2021	22:28:33	0	0	2,5986	1,038	300,8736	-0,036	87,523	0	1017,6	6,6	8,7	8,4	1	1	1	1	1	1	1	1	1	0	1	-7,540521	273,917276	311,657914	0
15.01.2021	22:28:34	0	0	4,745269	1,05675	298,2996	-0,035	87,535	0	1017,52	6,6	8,6	8,4	1	1	1	1	1	1	1	1	1	0	1	-6,553911	273,8229	312,204843	0
15.01.2021	22:28:35	0	0	5,64913	1,12125	301,176	-0,04	87,544	0	1017,64	6,6	8,6	8,4	1	1	1	1	1	1	1	1	1	0	1	-4,298802	273,865607	314,658859	0
15.01.2021	22:28:36	0	0	4,858252	1,1085	306,108	-0,037	87,543	0	1017,54	6,6	8,6	8,4	1	1	1	1	1	1	1	1	1	0	1	-3,946441	273,988363	315,583476	0
15.01.2021	22:28:37	0	0	4,406321	1,1535	296,8308	-0,029	87,558	0	1017,72	6,6	8,6	8,4	1	1	1	1	1	1	1	1	1	0	1	-4,580691	273,963156	314,831657	0
15.01.2021	22:28:38	0	0	3,841385	1,19025	301,1292	-0,032	87,545	0	1017,6	6,6	8,6	8,5	1	1	1	1	1	1	1	1	1	0	1	-5,355884	273,977979	314,125599	0
15.01.2021	22:28:39	0	0	3,728403	1,23975	303,9984	-0,036	87,561	0	1017,66	6,6	8,6	8,5	1	1	1	1	1	1	1	1	1	0	1	-9,161381	274,000236	310,423927	0
15.01.2021	22:28:40	0	0	3,841408	1,2915	295,1208	-0,034	87,545	0	1017,44	6,6	8,6	8,4	1	1	1	1	1	1	1	1	1	0	1	-8,668076	273,880355	310,358298	0
15.01.2021	22:28:41	0	0	3,50244	1,458	295,11	-0,033	87,554	0	1017,42	6,6	8,6	8,5	1	1	1	1	1	1	1	1	1	0	1	-10,500352	273,995783	309,064179	0
15.01.2021	22:28:42	0	0	3,615443	1,542	292,5828	-0,035	87,536	0	1017,6	6,6	8,6	8,4	1	1	1	1	1	1	1	1	1	0	1	-3,664553	273,932064	315,60282	0
15.01.2021	22:28:43	0	0	2,485617	1,56075	289,9692	-0,031	87,545	0	1017,72	6,6	8,5	8,4	1	1	1	1	1	1	1	1	1	0	1	-11,557435	273,836144	307,262992	0
15.01.2021	22:28:44	0	0	5,084186	1,58325	290,7612	-0,037	87,548	0	1017,48	6,6	8,6	8,5	1	1	1	1	1	1	1	1	1	0	1	-5,637773	273,943903	313,684794	0
15.01.2021	22:28:45	0	0	2,5986	1,6185	294,8256	-0,033	87,539	0	1017,64	6,6	8,6	8,4	1	1	1	1	1	1	1	1	1	0	1	-7,399577	274,012117	312,241163	0
15.01.2021	22:28:46	0	0	3,05053	1,5945	294,4764	-0,035	87,552	0	1017,54	6,6	8,6	8,4	1	1	1	1	1	1	1	1	1	0	1	-8,597604	273,917276	310,600832	0
15.01.2021	22:28:47	0	0	4,745269	1,5855	296,9064	-0,037	87,538	0	1017,6	6,6	8,5	8,4	1	1	1	1	1	1	1	1	1	0	1	-7,681466	273,871505	311,303673	0
15.01.2021	22:28:48	0	0	3,615421	1,58925	294,0264	-0,031	87,548	0	1017,64	6,6	8,7	8,5	1	1	1	1	1	1	1	1	1	0	1	-5,708245	273,995783	313,856286	0
15.01.2021	22:28:49	0	0	4,632287	1,58775	293,6736	-0,037	87,549	0	1017,58	6,6	8,6	8,4	1	1	1	1	1	1	1	1	1	0	1	-6,412967	273,979462	313,075434	0
15.01.2021	22:28:50	0	0	4,519304	1,57125	297,1944	-0,031	87,551	0	1017,64	6,6	8,6	8,4	1	1	1	1	1	1	1	1	1	0	1	-10,500352	273,955749	308,877452	0
15.01.2021	22:28:51	0	0	2,5986	1,5615	300,9312	-0,04	87,546	0	1017,54	6,6	8,7	8,4	1	1	1	1	1	1	1	1	1	0	1	-3,523608	273,830256	315,269402	0
15.01.2021	22:28:52	0	0	4,519304	1,5135	300,852	-0,038	87,548	0	1017,52	6,6	8,6	8,4	1	1	1	1	1	1	1	1	1	0	1	-7,188161	273,946863	312,148212	0
15.01.2021	22:28:53	0	0	4,632287	1,533	288,504	-0,036	87,537	0	1017,62	6,6	8,6	8,4	1	1	1	1	1	1	1	1	1	0	1	-10,077519	273,967602	309,355562	0
15.01.2021	22:28:54	0	0	3,954367	1,518	303,93	-0,044	87,542	0	1017,48	6,6	8,6	8,5	1	1	1	1	1	1	1	1	1	0	1	-9,513742	273,986879	310,009254	0
15.01.2021	22:28:55	0	0	3,615421	1,47825	299,0232	-0,034	87,541	0	1017,38	6,6	8,6	8,5	1	1	1	1	1	1	1	1	1	0	1	-3,946441	273,96612	315,479729	0
15.01.2021	22:28:56	0	0	3,841385	1,443	301,572	-0,031	87,557	0	1017,6	6,6	8,6	8,5	1	1	1	1	1	1	1	1	1	0	1	-9,161381	273,837616	309,665901	0
15.01.2021	22:28:57	0	0	4,406321	1,41975	295,5312	-0,032	87,552	0	1017,54	6,6	8,6	8,4	1	1	1	1	1	1	1	1	1	0	1	-6,624383	273,969084	312,815611	0
15.01.2021	22:28:58	0	0	4,632287	1,3695	305,7696	-0,036	87,531	0	1017,56	6,6	8,6	8,4	1	1	1	1	1	1	1	1	1	0	1	-4,016913	274,006175	315,596106	0
15.01.2021	22:28:59	0	0	3,05053	1,35225	297,234	-0,034	87,554	0	1017,56	6,6	8,6	8,4	1	1	1	1	1	1	1	1	1	0	1	-7,117689	273,884782	311,929312	0
15.01.2021	22:29:00	0	0	2,824548	1,311	305,3664	-0,032	87,543	0	1017,62	6,6	8,6	8,5	1	1	1	1	1	1	1	1	1	0	1	-4,580691	273,844978	314,28088	0
15.01.2021	22:29:01	0	0	4,406321	1,24875	313,5996	-0,032	87,548	0	1017,66	6,6	8,7	8,4	1	1	1	1	1	1	1	1	1	0	1	-7,117689	274,021032	312,564654	0
15.01.2021	22:29:02	0	0	2,937548	1,242	307,98	-0,039	87,546	0	1017,68	6,6	8,6	8,4	1	1	1	1	1	1	1	1	1	0	1	-8,104299	273,871505	310,88084	0
15.01.2021	22:29:03	0	0	4,180356	1,209	310,6872	-0,034	87,551	0	1017,54	6,6	8,5	8,4	1	1	1	1	1	1	1	1	1	0	1	-8,527132	274,022518	311,162146	0
15.01.2021	22:29:04	0	0	3,05053	1,20525	307,6128	-0,033	87,535	0	1017,54	6,6	8,6	8,4	1	1	1	1	1	1	1	1	1	0	1	-2,677942	273,899545	316,437854	0
15.01.2021	22:29:05	0	0	2,485617	1,188	308,1312	-0,031	87,552	0	1017,52	6,6	8,6	8,4	1	1	1	1	1	1	1	1	1	0	1	-7,82241	273,828785	310,963748	0
15.01.2021	22:29:06	0	0	4,293339	1,16175	299,826	-0,035	87,544	0	1017,6	6,6	8,6	8,4	1	1	1	1	1	1	1	1	1	0	1	-7,117689	273,903976	312,018759	0
15.01.2021	22:29:07	0	0	3,276495	1,12575	304,7076	-0,034	87,524	0	1017,68	6,6	8,6	8,4	1	1	1	1	1	1	1	1	1	0	1	-4,651163	273,824371	314,114441	0
15.01.2021	22:29:08	0	0	3,728426	1,11525	311,7204	-0,039	87,535	0	1017,66	6,6	8,5	8,4	1	1	1	1	1	1	1	1	1	0	1	-11,839323	273,895115	307,255827	0
15.01.2021	22:29:09	0	0	3,615443	1,146	302,4468	-0,041	87,549	0	1017,66	6,6	8,5	8,4	1	1	1	1	1	1	1	1	1	0	1	-14,376321	274,013602	305,271351	0
15.01.2021	22:29:10	0	0	4,858252	1,1955	309,9348	-0,037	87,541	0	1017,58	6,6	8,6	8,4	1	1	1	1	1	1	1	1	1	0	1	-5,708245	273,836144	313,112182	0
15.01.2021	22:29:11	0	0	2,824565	1,3005	306,4104	-0,033	87,55	0	1017,54	6,6	8,6	8,4	1	1	1	1	1	1	1	1	1	0	1	-5,496829	273,834672	313,316743	0
15.01.2021	22:29:12	0	0	4,745269	1,34475	302,1012	-0,034	87,546	0	1017,66	6,6	8,6	8,4	1	1	1	1	1	1	1	1	1	0	1	-4,862579	273,827313	313,916727	0
15.01.2021	22:29:13	0	0	3,163513	1,3935	295,7004	-0,033	87,551	0	1017,68	6,6	8,7	8,4	1	1	1	1	1	1	1	1	1	0	1	-5,637773	273,861184	313,299287	0
15.01.2021	22:29:14	0	0	4,858223	1,458	297,2736	-0,03	87,551	0	1017,66	6,6	8,6	8,5	1	1	1	1	1	1	1	1	1	0	1	-7,258633	273,88921	311,809	0
15.01.2021	22:29:15	0	0	3,389478	1,47975	296,5212	-0,044	87,549	0	1017,56	6,6	8,7	8,4	1	1	1	1	1	1	1	1	1	0	1	-6,060606	274,000236	313,524702	0
15.01.2021	22:29:16	0	0	3,954367	1,491	297,936	-0,041	87,55	0	1017,36	6,6	8,6	8,5	1	1	1	1	1	1	1	1	1	0	1	-8,527132	273,865607	310,43053	0
15.01.2021	22:29:17	0	0	4,745269	1,54425	297,9216	-0,029	87,551	0	1017,62	6,6	8,6	8,4	1	1	1	1	1	1	1	1	1	0	1	-4,22833	274,009146	315,398549	0
15.01.2021	22:29:18	0	0	2,485617	1,57575	306,1368	-0,033	87,536	0	1017,62	6,6	8,7	8,4	1	1	1	1	1	1	1	1	1	0	1	-6,131078	273,979462	313,357322	0
15.01.2021	22:29:19	0	0	3,05053	1,602	304,9704	-0,034	87,552	0	1017,56	6,6	8,6	8,4	1	1	1	1	1	1	1	1	1	0	1	-5,21494	273,849396	313,667211	0
15.01.2021	22:29:20	0	0	5,310182	1,58925	307,1412	-0,033	87,548	0	1017,52	6,6	8,6	8,4	1	1	1	1	1	1	1	1	1	0	1	-8,597604	273,945383	310,731866	0
15.01.2021	22:29:21	0	0	2,711582	1,527	310,6836	-0,029	87,541	0	1017,42	6,6	8,6	8,4	1	1	1	1	1	1	1	1	1	0	1	-5,567301	273,828785	313,218857	0
15.01.2021	22:29:22	0	0	3,389458	1,54875	307,6092	-0,032	87,543	0	1017,38	6,6	8,7	8,5	1	1	1	1	1	1	1	1	1	0	1	-3,805497	273,946863	315,530876	0
15.01.2021	22:29:23	0	0	3,728426	1,64325	300,1284	-0,035	87,559	0	1017,48	6,6	8,6	8,4	1	1	1	1	1	1	1	1	1	0	1	-3,24172	273,824371	315,523885	0
15.01.2021	22:29:24	0	0	3,954391	1,6755	298,5948	-0,03	87,553	0	1017,66	6,6	8,7	8,4	1	1	1	1	1	1	1	1	1	0	1	-11,134602	273,880355	307,891772	0
15.01.2021	22:29:25	0	0	4,406295	1,61475	301,6692	-0,041	87,552	0	1017,48	6,6	8,6	8,5	1	1	1	1	1	1	1	1	1	0	1	-5,496829	274,013602	314,150844	0
15.01.2021	22:29:26	0	0	3,163513	1,59675	304,6356	-0,032	87,551	0	1017,62	6,6	8,7	8,4	1	1	1	1	1	1	1	1	1	0	1	-9,936575	273,893638	309,151695	0
15.01.2021	22:29:27	0	0	4,406321	1,52625	314,406	-0,037	87,547	0	1017,52	6,6	8,6	8,4	1	1	1	1	1	1	1	1	1	0	1	-7,892882	274,010631	311,740927	0
15.01.2021	22:29:28	0	0	3,163513	1,49775	307,5084	-0,041	87,552	0	1017,56	6,6	8,6	8,4	1	1	1	1	1	1	1	1	1	0	1	-12,896406	273,896591	306,205626	0
15.01.2021	22:29:29	0	0	4,971234	1,5825	306,1656	-0,034	87,54	0	1017,64	6,6	8,6	8,4	1	1	1	1	1	1	1	1	1	0	1	-10,147992	273,960193	309,250537	0
15.01.2021	22:29:30	0	0	2,372635	1,581	319,4424	-0,036	87,555	0	1017,46	6,6	8,7	8,4	1	1	1	1	1	1	1	1	1	0	1	-10,993658	273,880355	308,032717	0
15.01.2021	22:29:31	0	0	2,937548	1,5285	316,9692	-0,03	87,546	0	1017,66	6,6	8,6	8,4	1	1	1	1	1	1	1	1	1	0	1	-5,84919	273,8332	312,957528	0
15.01.2021	22:29:32	0	0	4,067374	1,4895	312,1812	-0,031	87,553	0	1017,64	6,6	8,6	8,4	1	1	1	1	1	1	1	1	1	0	1	-4,721635	273,96612	314,704535	0
15.01.2021	22:29:33	0	0	4,632287	1,527	313,2324	-0,034	87,531	0	1017,72	6,6	8,6	8,4	1	1	1	1	1	1	1	1	1	0	1	-5,003524	273,847923	313,871767	0
15.01.2021	22:29:34	0	0	2,824565	1,5375	309,186	-0,034	87,54	0	1017,56	6,6	8,6	8,4	1	1	1	1	1	1	1	1	1	0	1	-5,919662	273,858237	313,003667	0
15.01.2021	22:29:35	0	0	2,711582	1,61475	312,4476	-0,039	87,541	0	1017,5	6,6	8,7	8,4	1	1	1	1	1	1	1	1	1	0	1	-7,681466	274,016574	311,980073	0
15.01.2021	22:29:36	0	0	3,615443	1,74975	303,8544	-0,035	87,542	0	1017,58	6,6	8,6	8,4	1	1	1	1	1	1	1	1	1	0	1	-5,285412	273,952786	314,078579	0
15.01.2021	22:29:37	0	0	3,728426	1,76175	314,3304	-0,036	87,539	0	1017,64	6,6	8,6	8,4	1	1	1	1	1	1	1	1	1	0	1	-8,80902	274,00469	310,79707	0
15.01.2021	22:29:38	0	0	3,841408	1,75575	308,8404	-0,035	87,544	0	1017,58	6,6	8,6	8,4	1	1	1	1	1	1	1	1	1	0	1	-10,500352	273,951305	308,856733	0
15.01.2021	22:29:39	0	0	4,971234	1,75275	309,1464	-0,037	87,542	0	1017,6	6,6	8,6	8,4	1	1	1	1	1	1	1	1	1	0	1	-8,527132	273,977979	310,954352	0
15.01.2021	22:29:40	0	0	2,711582	1,692	306,7848	-0,034	87,552	0	1017,6	6,6	8,6	8,4	1	1	1	1	1	1	1	1	1	0	1	-7,82241	273,855289	311,08719	0
15.01.2021	22:29:41	0	0	3,276495	1,65975	308,4156	-0,027	87,542	0	1017,52	6,6	8,6	8,4	1	1	1	1	1	1	1	1	1	0	1	-7,258633	273,871505	311,726506	0
15.01.2021	22:29:42	0	0	3,841385	1,647	309,5676	-0,037	87,543	0	1017,38	6,6	8,6	8,5	1	1	1	1	1	1	1	1	1	0	1	-10,147992	273,988363	309,381925	0
15.01.2021	22:29:43	0	0	2,5986	1,617	309,1752	-0,033	87,541	0	1017,46	6,6	8,6	8,4	1	1	1	1	1	1	1	1	1	0	1	-8,597604	273,884782	310,449397	0
15.01.2021	22:29:44	0	0	3,728426	1,60125	310,6872	-0,036	87,541	0	1017,68	6,6	8,6	8,4	1	1	1	1	1	1	1	1	1	0	1	-5,778717	273,828785	313,00744	0
15.01.2021	22:29:45	0	0	4,293339	1,569	312,786	-0,038	87,533	0	1017,44	6,6	8,6	8,4	1	1	1	1	1	1	1	1	1	0	1	-7,82241	273,945383	311,50706	0
15.01.2021	22:29:46	0	0	2,824548	1,52625	307,17	-0,032	87,545	0	1017,56	6,6	8,6	8,5	1	1	1	1	1	1	1	1	1	0	1	-6,060606	273,817017	312,670754	0
15.01.2021	22:29:47	0	0	3,502461	1,467	307,116	-0,032	87,544	0	1017,62	6,6	8,6	8,4	1	1	1	1	1	1	1	1	1	0	1	-5,567301	273,951305	313,789785	0
15.01.2021	22:29:48	0	0	4,858223	1,464	300,8088	-0,036	87,543	0	1017,64	6,6	8,6	8,5	1	1	1	1	1	1	1	1	1	0	1	-6,20155	273,980945	313,293768	0
15.01.2021	22:29:49	0	0	2,5986	1,47075	304,686	-0,028	87,559	0	1017,62	6,6	8,6	8,4	1	1	1	1	1	1	1	1	1	0	1	-8,738548	273,949825	310,611632	0
15.01.2021	22:29:50	0	0	4,406321	1,4565	301,5972	-0,035	87,53	0	1017,56	6,6	8,6	8,4	1	1	1	1	1	1	1	1	1	0	1	-7,188161	273,852343	311,707714	0
15.01.2021	22:29:51	0	0	4,293339	1,431	303,2172	-0,034	87,543	0	1017,58	6,6	8,7	8,4	1	1	1	1	1	1	1	1	1	0	1	-13,107822	273,880355	305,918552	0
15.01.2021	22:29:52	0	0	2,937548	1,38075	303,4512	-0,032	87,547	0	1017,6	6,6	8,6	8,4	1	1	1	1	1	1	1	1	1	0	1	-7,047216	273,834672	311,766355	0
15.01.2021	22:29:53	0	0	3,728426	1,3515	291,078	-0,033	87,523	0	1017,5	6,6	8,6	8,4	1	1	1	1	1	1	1	1	1	0	1	-11,980268	273,861184	306,956792	0
15.01.2021	22:29:54	0	0	4,180356	1,3725	291,1968	-0,036	87,541	0	1017,4	6,6	8,6	8,4	1	1	1	1	1	1	1	1	1	0	1	-7,470049	273,975014	311,997602	0
15.01.2021	22:29:55	0	0	2,5986	1,29675	298,6632	-0,032	87,53	0	1017,6	6,6	8,6	8,4	1	1	1	1	1	1	1	1	1	0	1	-4,933051	273,84056	313,907944	0
15.01.2021	22:29:56	0	0	2,937548	1,284	298,746	-0,037	87,527	0	1017,54	6,6	8,6	8,4	1	1	1	1	1	1	1	1	1	0	1	-5,919662	273,856763	312,996803	0
15.01.2021	22:29:57	0	0	3,728426	1,27575	297,2088	-0,032	87,524	0	1017,68	6,6	8,6	8,4	1	1	1	1	1	1	1	1	1	0	1	-7,610994	274,001721	311,981241	0
15.01.2021	22:29:58	0	0	2,5986	1,26825	286,614	-0,034	87,544	0	1017,46	6,6	8,6	8,4	1	1	1	1	1	1	1	1	1	0	1	-9,090909	273,983912	310,418247	0
15.01.2021	22:29:59	0	0	4,519304	1,2345	278,4528	-0,029	87,554	0	1017,46	6,6	8,6	8,4	1	1	1	1	1	1	1	1	1	0	1	-9,090909	273,96612	310,335261	0
15.01.2021	22:30:00	0	0	4,406321	1,25025	292,6764	-0,037	87,541	0	1017,48	6,6	8,6	8,4	1	1	1	1	1	1	1	1	1	0	1	-13,248767	273,973531	306,211969	0
15.01.2021	22:30:01	0	0	2,5986	1,3155	293,7276	-0,03	87,543	0	1017,6	6,6	8,6	8,4	1	1	1	1	1	1	1	1	1	0	1	-9,725159	273,862658	309,218768	0
15.01.2021	22:30:02	0	0	4,180356	1,37925	298,3428	-0,032	87,531	0	1017,58	6,6	8,6	8,4	1	1	1	1	1	1	1	1	1	0	1	-10,147992	274,00766	309,471957	0
15.01.2021	22:30:03	0	0	2,033687	1,3545	303,2532	-0,026	87,536	0	1017,78	6,6	8,6	8,4	1	1	1	1	1	1	1	1	1	0	1	-11,06413	273,864132	307,886664	0
15.01.2021	22:30:04	0	0	2,711566	1,38225	296,4636	-0,03	87,541	0	1017,54	6,6	8,6	8,5	1	1	1	1	1	1	1	1	1	0	1	-6,483439	273,862658	312,460487	0
15.01.2021	22:30:05	0	0	4,971234	1,3305	289,2168	-0,034	87,532	0	1017,6	6,6	8,6	8,4	1	1	1	1	1	1	1	1	1	0	1	-9,513742	273,828785	309,272416	0
15.01.2021	22:30:06	0	0	4,745269	1,2585	287,0712	-0,033	87,541	0	1017,62	6,6	8,6	8,4	1	1	1	1	1	1	1	1	1	0	1	-6,976744	273,875929	312,029009	0
15.01.2021	22:30:07	0	0	4,745269	1,19325	287,406	-0,035	87,534	0	1017,56	6,6	8,6	8,4	1	1	1	1	1	1	1	1	1	0	1	-6,553911	274,003205	313,045251	0
15.01.2021	22:30:08	0	0	4,971205	1,11	296,4096	-0,035	87,548	0	1017,52	6,6	8,6	8,5	1	1	1	1	1	1	1	1	1	0	1	-4,933051	273,898068	314,175862	0
15.01.2021	22:30:09	0	0	2,711582	1,07325	293,7132	-0,035	87,531	0	1017,58	6,6	8,6	8,4	1	1	1	1	1	1	1	1	1	0	1	-9,231853	273,817017	309,499507	0
15.01.2021	22:30:10	0	0	2,485602	1,03275	282,7692	-0,034	87,534	0	1017,5	6,6	8,7	8,5	1	1	1	1	1	1	1	1	1	0	1	-6,272023	273,998751	313,306359	0
15.01.2021	22:30:11	0	0	3,954391	1,017	290,8368	-0,03	87,544	0	1017,76	6,6	8,6	8,4	1	1	1	1	1	1	1	1	1	0	1	-11,205074	274,003205	308,394088	0
15.01.2021	22:30:12	0	0	3,05053	1,04025	289,53	-0,034	87,519	0	1017,58	6,6	8,6	8,4	1	1	1	1	1	1	1	1	1	0	1	-5,496829	273,895115	313,598322	0
15.01.2021	22:30:13	0	0	2,824565	1,047	288,8856	-0,037	87,539	0	1017,56	6,6	8,6	8,4	1	1	1	1	1	1	1	1	1	0	1	-12,191684	274,003205	307,407478	0
15.01.2021	22:30:14	0	0	3,954391	1,01925	299,8152	-0,035	87,542	0	1017,66	6,6	8,5	8,4	1	1	1	1	1	1	1	1	1	0	1	-9,866103	273,961674	309,539335	0
15.01.2021	22:30:15	0	0	2,5986	0,99675	293,3208	-0,03	87,552	0	1017,74	6,6	8,6	8,4	1	1	1	1	1	1	1	1	1	0	1	-4,862579	273,834672	313,950992	0
15.01.2021	22:30:16	0	0	2,5986	0,98925	282,7584	-0,035	87,548	0	1017,54	6,6	8,6	8,4	1	1	1	1	1	1	1	1	1	0	1	-11,06413	273,871505	307,921009	0
15.01.2021	22:30:17	0	0	2,5986	1,01925	287,7984	-0,034	87,531	0	1017,6	6,6	8,5	8,4	1	1	1	1	1	1	1	1	1	0	1	-9,725159	274,001721	309,867076	0
15.01.2021	22:30:18	0	0	4,519304	1,05825	289,2204	-0,034	87,54	0	1017,64	6,6	8,6	8,4	1	1	1	1	1	1	1	1	1	0	1	-7,188161	273,877405	311,824466	0
15.01.2021	22:30:19	0	0	2,711582	1,0575	291,8268	-0,028	87,53	0	1017,46	6,6	8,6	8,4	1	1	1	1	1	1	1	1	1	0	1	-9,090909	273,995783	310,473622	0
15.01.2021	22:30:20	0	0	2,711582	1,04025	301,5576	-0,031	87,551	0	1017,46	6,6	8,6	8,4	1	1	1	1	1	1	1	1	1	0	1	-5,355884	273,830256	313,437126	0
15.01.2021	22:30:21	0	0	2,5986	1,0635	292,9752	-0,034	87,547	0	1017,46	6,6	8,6	8,4	1	1	1	1	1	1	1	1	1	0	1	-4,651163	273,976497	314,823404	0
15.01.2021	22:30:22	0	0	4,067374	1,071	289,53	-0,034	87,536	0	1017,52	6,6	8,6	8,4	1	1	1	1	1	1	1	1	1	0	1	-10,852713	274,000236	308,732595	0
15.01.2021	22:30:23	0	0	4,406321	1,02375	296,0532	-0,033	87,548	0	1017,58	6,6	8,6	8,4	1	1	1	1	1	1	1	1	1	0	1	-10,42988	273,867081	308,53465	0
15.01.2021	22:30:24	0	0	2,824565	0,999	293,3892	-0,039	87,545	0	1017,52	6,6	8,6	8,4	1	1	1	1	1	1	1	1	1	0	1	-4,439746	273,989846	315,097092	0
15.01.2021	22:30:25	0	0	2,824565	1,0095	286,9668	-0,03	87,531	0	1017,7	6,6	8,6	8,4	1	1	1	1	1	1	1	1	1	0	1	-11,698379	273,871505	307,28676	0
15.01.2021	22:30:26	0	0	4,745269	1,07475	282,204	-0,032	87,55	0	1017,62	6,6	8,5	8,4	1	1	1	1	1	1	1	1	1	0	1	-7,188161	273,992814	312,362523	0
15.01.2021	22:30:27	0	0	5,084217	1,17	292,572	-0,033	87,543	0	1017,56	6,6	8,6	8,4	1	1	1	1	1	1	1	1	1	0	1	-2,255109	273,927626	316,991575	0
15.01.2021	22:30:28	0	0	3,276495	1,182	297,4896	-0,035	87,554	0	1017,72	6,6	8,6	8,4	1	1	1	1	1	1	1	1	1	0	1	-9,372798	273,818487	309,36541	0
15.01.2021	22:30:29	0	0	4,180356	1,20525	300,8196	-0,035	87,536	0	1017,58	6,6	8,6	8,4	1	1	1	1	1	1	1	1	1	0	1	-8,527132	273,973531	310,933604	0
15.01.2021	22:30:30	0	0	3,163494	1,27425	304,6284	-0,033	87,527	0	1017,52	6,6	8,6	8,5	1	1	1	1	1	1	1	1	1	0	1	-5,637773	273,95723	313,746938	0
15.01.2021	22:30:31	0	0	4,858252	1,3155	299,0628	-0,034	87,542	0	1017,64	6,6	8,6	8,4	1	1	1	1	1	1	1	1	1	0	1	-8,80902	274,009146	310,817858	0
15.01.2021	22:30:32	0	0	3,954391	1,34925	299,7684	-0,037	87,552	0	1017,62	6,6	8,6	8,4	1	1	1	1	1	1	1	1	1	0	1	-7,188161	273,895115	311,90699	0
15.01.2021	22:30:33	0	0	4,067374	1,425	295,506	-0,032	87,554	0	1017,58	6,6	8,6	8,4	1	1	1	1	1	1	1	1	1	0	1	-4,862579	273,989846	314,674259	0
15.01.2021	22:30:34	0	0	2,372635	1,41375	296,0568	-0,031	87,553	0	1017,54	6,6	8,6	8,4	1	1	1	1	1	1	1	1	1	0	1	-4,580691	273,855289	314,32891	0
15.01.2021	22:30:35	0	0	3,163513	1,36725	296,4852	-0,032	87,549	0	1017,64	6,6	8,6	8,4	1	1	1	1	1	1	1	1	1	0	1	-5,426357	273,980945	314,068962	0
15.01.2021	22:30:36	0	0	4,519304	1,29975	300,1752	-0,035	87,548	0	1017,5	6,6	8,6	8,4	1	1	1	1	1	1	1	1	1	0	1	-13,953488	273,961674	305,451949	0
15.01.2021	22:30:37	0	0	4,406321	1,272	291,906	-0,038	87,523	0	1017,62	6,6	8,6	8,4	1	1	1	1	1	1	1	1	1	0	1	-6,906272	273,836144	311,914155	0
15.01.2021	22:30:38	0	0	2,033687	1,3215	292,9716	-0,034	87,541	0	1017,66	6,6	8,7	8,4	1	1	1	1	1	1	1	1	1	0	1	-7,047216	273,831728	311,752647	0
15.01.2021	22:30:39	0	0	4,067374	1,35075	308,4516	-0,037	87,542	0	1017,62	6,6	8,6	8,4	1	1	1	1	1	1	1	1	1	0	1	-7,047216	273,88921	312,020416	0
15.01.2021	22:30:40	0	0	2,824565	1,3485	299,7792	-0,037	87,552	0	1017,56	6,6	8,6	8,4	1	1	1	1	1	1	1	1	1	0	1	-5,003524	273,818487	313,734684	0
15.01.2021	22:30:41	0	0	2,485617	1,36875	286,6104	-0,034	87,547	0	1017,54	6,6	8,6	8,4	1	1	1	1	1	1	1	1	1	0	1	-5,355884	273,943903	313,966683	0
15.01.2021	22:30:42	0	0	2,485602	1,3485	298,6416	-0,039	87,548	0	1017,46	6,6	8,6	8,5	1	1	1	1	1	1	1	1	1	0	1	-2,325581	273,986879	317,197414	0
15.01.2021	22:30:43	0	0	3,615443	1,28925	296,8344	-0,028	87,541	0	1017,52	6,6	8,6	8,4	1	1	1	1	1	1	1	1	1	0	1	-6,412967	273,893638	312,675303	0
15.01.2021	22:30:44	0	0	2,033687	1,2915	293,7456	-0,03	87,534	0	1017,42	6,6	8,6	8,4	1	1	1	1	1	1	1	1	1	0	1	-5,144468	274,00469	314,461622	0
15.01.2021	22:30:45	0	0	4,971234	1,2825	293,3172	-0,027	87,544	0	1017,62	6,6	8,6	8,4	1	1	1	1	1	1	1	1	1	0	1	-10,993658	273,967602	308,439424	0
15.01.2021	22:30:46	0	0	3,389478	1,32225	289,152	-0,03	87,543	0	1017,6	6,6	8,6	8,4	1	1	1	1	1	1	1	1	1	0	1	-3,946441	273,846451	314,921989	0
15.01.2021	22:30:47	0	0	3,615443	1,3995	293,3388	-0,035	87,541	0	1017,52	6,6	8,6	8,4	1	1	1	1	1	1	1	1	1	0	1	-4,369274	273,998751	315,209108	0
15.01.2021	22:30:48	0	0	2,824565	1,449	299,8476	-0,033	87,526	0	1017,4	6,6	8,6	8,4	1	1	1	1	1	1	1	1	1	0	1	-8,45666	273,872979	310,53535	0
15.01.2021	22:30:49	0	0	2,5986	1,44075	292,2192	-0,033	87,554	0	1017,66	6,6	8,6	8,4	1	1	1	1	1	1	1	1	1	0	1	-6,272023	273,8229	312,486732	0
15.01.2021	22:30:50	0	0	5,084217	1,47375	290,0268	-0,027	87,545	0	1017,54	6,6	8,6	8,4	1	1	1	1	1	1	1	1	1	0	1	-8,949965	273,943903	310,372603	0
15.01.2021	22:30:51	0	0	4,632287	1,47525	292,8924	-0,036	87,529	0	1017,54	6,6	8,6	8,4	1	1	1	1	1	1	1	1	1	0	1	-4,862579	274,009146	314,764299	0
15.01.2021	22:30:52	0	0	4,745241	1,51575	290,3076	-0,039	87,524	0	1017,52	6,6	8,6	8,5	1	1	1	1	1	1	1	1	1	0	1	-7,681466	273,880355	311,344908	0
15.01.2021	22:30:53	0	0	2,5986	1,48275	295,2288	-0,029	87,536	0	1017,58	6,6	8,6	8,4	1	1	1	1	1	1	1	1	1	0	1	-4,721635	273,808195	313,968654	0
15.01.2021	22:30:54	0	0	3,276495	1,4805	295,56	-0,033	87,545	0	1017,58	6,6	8,6	8,4	1	1	1	1	1	1	1	1	1	0	1	-9,302326	273,872979	309,689684	0
15.01.2021	22:30:55	0	0	4,745269	1,4595	301,2048	-0,036	87,536	0	1017,64	6,6	8,6	8,4	1	1	1	1	1	1	1	1	1	0	1	-4,862579	274,009146	314,764299	0
15.01.2021	22:30:56	0	0	3,389478	1,3605	300,4236	-0,032	87,54	0	1017,56	6,6	8,6	8,4	1	1	1	1	1	1	1	1	1	0	1	-7,963354	273,940942	311,34541	0
15.01.2021	22:30:57	0	0	3,954367	1,30575	296,4348	-0,029	87,528	0	1017,6	6,6	8,7	8,5	1	1	1	1	1	1	1	1	1	0	1	-10,007047	273,994298	309,55056	0
15.01.2021	22:30:58	0	0	2,937548	1,22325	284,4144	-0,033	87,532	0	1017,7	6,6	8,6	8,4	1	1	1	1	1	1	1	1	1	0	1	-8,386187	273,948344	310,957089	0
15.01.2021	22:30:59	0	0	2,5986	1,2285	290,8116	-0,035	87,532	0	1017,62	6,6	8,6	8,4	1	1	1	1	1	1	1	1	1	0	1	-2,255109	273,817017	316,476251	0
15.01.2021	22:31:00	0	0	3,276495	1,22175	289,6272	-0,034	87,534	0	1017,5	6,6	8,6	8,4	1	1	1	1	1	1	1	1	1	0	1	-6,412967	274,006175	313,200052	0
15.01.2021	22:31:01	0	0	3,276495	1,22175	289,6272	-0,034	87,534	0	1017,5	6,6	8,6	8,4	1	1	1	1	1	1	1	1	1	0	1	-9,231853	273,887734	309,828901	0
15.01.2021	22:31:02	0	0	4,406321	1,18725	275,742	-0,036	87,526	0	1017,54	6,6	8,6	8,4	1	1	1	1	1	1	1	1	1	0	1	-6,483439	273,986879	313,039557	0
15.01.2021	22:31:03	0	0	2,711566	1,1595	283,2228	-0,036	87,535	0	1017,58	6,6	8,6	8,5	1	1	1	1	1	1	1	1	1	0	1	-4,580691	273,856763	314,335774	0
15.01.2021	22:31:04	0	0	4,293339	1,1175	302,4288	-0,041	87,509	0	1017,66	6,6	8,6	8,4	1	1	1	1	1	1	1	1	1	0	1	-5,355884	273,811135	313,348093	0
15.01.2021	22:31:05	0	0	3,276495	1,12125	290,772	-0,039	87,512	0	1017,46	6,6	8,7	8,4	1	1	1	1	1	1	1	1	1	0	1	-7,258633	273,85971	311,671561	0
15.01.2021	22:31:06	0	0	3,276495	1,119	281,376	-0,034	87,519	0	1017,54	6,6	8,6	8,4	1	1	1	1	1	1	1	1	1	0	1	-7,892882	273,998751	311,6855	0
15.01.2021	22:31:07	0	0	4,067374	1,1115	286,6896	-0,033	87,533	0	1017,6	6,6	8,7	8,4	1	1	1	1	1	1	1	1	1	0	1	-6,976744	273,935023	312,304423	0
15.01.2021	22:31:08	0	0	4,406321	1,1025	297,2052	-0,032	87,527	0	1017,54	6,6	8,6	8,4	1	1	1	1	1	1	1	1	1	0	1	-2,466526	273,99133	317,077235	0
15.01.2021	22:31:09	0	0	2,937548	1,125	288,8244	-0,038	87,533	0	1017,38	6,6	8,6	8,4	1	1	1	1	1	1	1	1	1	0	1	-10,077519	273,825842	308,694935	0
15.01.2021	22:31:10	0	0	3,389458	1,092	278,0568	-0,038	87,532	0	1017,56	6,6	8,5	8,5	1	1	1	1	1	1	1	1	1	0	1	-8,527132	273,954267	310,843765	0
15.01.2021	22:31:11	0	0	3,50244	1,101	292,9608	-0,038	87,515	0	1017,64	6,6	8,6	8,5	1	1	1	1	1	1	1	1	1	0	1	-1,198027	273,853816	317,70471	0
15.01.2021	22:31:12	0	0	4,858252	1,09425	284,8392	-0,038	87,538	0	1017,6	6,6	8,7	8,4	1	1	1	1	1	1	1	1	1	0	1	-5,567301	273,92319	313,658701	0
15.01.2021	22:31:13	0	0	4,632287	1,065	296,8992	-0,035	87,524	0	1017,64	6,6	8,5	8,4	1	1	1	1	1	1	1	1	1	0	1	-7,540521	273,99133	312,003239	0
15.01.2021	22:31:14	0	0	4,632287	1,041	306,4716	-0,04	87,52	0	1017,46	6,6	8,7	8,4	1	1	1	1	1	1	1	1	1	0	1	-11,41649	273,960193	307,982038	0
15.01.2021	22:31:15	0	0	4,858223	1,06125	298,3068	-0,031	87,535	0	1017,62	6,6	8,6	8,5	1	1	1	1	1	1	1	1	1	0	1	-5,355884	273,8229	313,40287	0
15.01.2021	22:31:16	0	0	4,519277	1,053	296,7732	-0,04	87,526	0	1017,46	6,6	8,6	8,5	1	1	1	1	1	1	1	1	1	0	1	-4,933051	273,935023	314,348116	0
15.01.2021	22:31:17	0	0	3,841408	1,04475	301,68	-0,034	87,528	0	1017,48	6,6	8,6	8,4	1	1	1	1	1	1	1	1	1	0	1	-3,664553	273,815546	315,059961	0
15.01.2021	22:31:18	0	0	4,519304	1,04625	299,3364	-0,035	87,528	0	1017,66	6,6	8,6	8,4	1	1	1	1	1	1	1	1	1	0	1	-9,020437	273,955749	310,357367	0
15.01.2021	22:31:19	0	0	5,084217	1,05225	301,5504	-0,036	87,519	0	1017,5	6,6	8,6	8,4	1	1	1	1	1	1	1	1	1	0	1	-10,711769	273,821429	308,040136	0
15.01.2021	22:31:20	0	0	3,728426	1,01175	304,5564	-0,035	87,591	0	1017,62	6,6	8,5	8,4	1	1	1	1	1	1	1	1	1	0	1	-6,412967	273,949825	312,937214	0
15.01.2021	22:31:21	0	0	4,293339	1,00575	293,3568	-0,035	87,533	0	1017,54	6,6	8,6	8,4	1	1	1	1	1	1	1	1	1	0	1	-4,933051	273,818487	313,805157	0
15.01.2021	22:31:22	0	0	3,050512	1,02825	295,5816	-0,036	87,532	0	1017,48	6,6	8,6	8,5	1	1	1	1	1	1	1	1	1	0	1	-7,047216	273,92319	312,178786	0
15.01.2021	22:31:23	0	0	4,632287	0,9675	294,1236	-0,035	87,542	0	1017,66	6,6	8,6	8,4	1	1	1	1	1	1	1	1	1	0	1	-9,372798	273,818487	309,36541	0
15.01.2021	22:31:24	0	0	4,519304	0,981	292,6188	-0,038	87,535	0	1017,62	6,6	8,7	8,4	1	1	1	1	1	1	1	1	1	0	1	-4,22833	273,849396	314,653821	0
15.01.2021	22:31:25	0	0	5,1972	1,0605	298,7064	-0,039	87,517	0	1017,56	6,6	8,5	8,4	1	1	1	1	1	1	1	1	1	0	1	-3,24172	273,825842	315,530735	0
15.01.2021	22:31:26	0	0	4,406321	1,158	296,7588	-0,04	87,521	0	1017,46	6,6	8,6	8,4	1	1	1	1	1	1	1	1	1	0	1	-5,426357	273,967602	314,006725	0
15.01.2021	22:31:27	0	0	2,5986	1,215	288,8784	-0,039	87,521	0	1017,54	6,6	8,6	8,4	1	1	1	1	1	1	1	1	1	0	1	-6,060606	273,871505	312,924533	0
15.01.2021	22:31:28	0	0	2,5986	1,2735	283,158	-0,035	87,533	0	1017,38	6,6	8,6	8,4	1	1	1	1	1	1	1	1	1	0	1	-7,751938	273,992814	311,798746	0
15.01.2021	22:31:29	0	0	3,502461	1,29825	288,1476	-0,038	87,544	0	1017,62	6,6	8,6	8,4	1	1	1	1	1	1	1	1	1	0	1	-8,104299	273,960193	311,294229	0
15.01.2021	22:31:30	0	0	3,389478	1,25475	284,094	-0,04	87,539	0	1017,62	6,6	8,6	8,4	1	1	1	1	1	1	1	1	1	0	1	-3,664553	273,960193	315,733976	0
15.01.2021	22:31:31	0	0	3,841408	1,20975	276,5268	-0,042	87,532	0	1017,48	6,6	8,6	8,4	1	1	1	1	1	1	1	1	1	0	1	-10,923185	273,973531	308,537551	0
15.01.2021	22:31:32	0	0	3,841408	1,19925	290,0556	-0,035	87,537	0	1017,52	6,6	8,6	8,4	1	1	1	1	1	1	1	1	1	0	1	-9,513742	273,949825	309,836438	0
15.01.2021	22:31:33	0	0	4,519304	1,20975	284,094	-0,036	87,533	0	1017,56	6,6	8,7	8,4	1	1	1	1	1	1	1	1	1	0	1	-9,866103	273,819958	308,878953	0
15.01.2021	22:31:34	0	0	4,406321	1,161	292,9032	-0,042	87,532	0	1017,6	6,6	8,6	8,4	1	1	1	1	1	1	1	1	1	0	1	-2,043693	273,929105	317,209887	0
15.01.2021	22:31:35	0	0	2,5986	1,13025	298,3428	-0,037	87,536	0	1017,62	6,6	8,5	8,4	1	1	1	1	1	1	1	1	1	0	1	-5,919662	273,849396	312,962489	0
15.01.2021	22:31:36	0	0	2,711566	1,10025	290,808	-0,038	87,538	0	1017,54	6,6	8,6	8,5	1	1	1	1	1	1	1	1	1	0	1	-4,721635	273,921711	314,497475	0
15.01.2021	22:31:37	0	0	2,5986	1,113	294,822	-0,036	87,578	0	1018	6,6	8,6	8,4	1	1	1	1	1	1	1	1	1	0	1	-6,976744	273,825842	311,795711	0
15.01.2021	22:31:38	0	0	2,711582	1,06725	304,2756	-0,036	87,546	0	1017,6	6,6	8,7	8,4	1	1	1	1	1	1	1	1	1	0	1	-6,131078	273,932064	313,136294	0
15.01.2021	22:31:39	0	0	4,406321	1,059	304,2792	-0,042	87,538	0	1017,56	6,6	8,5	8,4	1	1	1	1	1	1	1	1	1	0	1	-5,637773	273,992814	313,912911	0
15.01.2021	22:31:40	0	0	2,824565	1,10925	296,7948	-0,037	87,54	0	1017,56	6,6	8,7	8,4	1	1	1	1	1	1	1	1	1	0	1	-6,412967	273,855289	312,496633	0
15.01.2021	22:31:41	0	0	4,745269	1,10925	300,2004	-0,041	87,528	0	1017,54	6,6	8,7	8,4	1	1	1	1	1	1	1	1	1	0	1	-7,540521	273,985395	311,975554	0
15.01.2021	22:31:42	0	0	2,824565	1,13325	302,8572	-0,047	87,532	0	1017,54	6,6	8,6	8,4	1	1	1	1	1	1	1	1	1	0	1	-5,778717	273,855289	313,130883	0
15.01.2021	22:31:43	0	0	3,163494	1,11825	294,7572	-0,04	87,517	0	1017,64	6,6	8,6	8,5	1	1	1	1	1	1	1	1	1	0	1	-8,949965	273,952786	310,414026	0
15.01.2021	22:31:44	0	0	4,406321	1,0965	297,2016	-0,036	87,544	0	1017,54	6,6	8,6	8,4	1	1	1	1	1	1	1	1	1	0	1	-10,218464	273,824371	308,54714	0
15.01.2021	22:31:45	0	0	3,163513	1,02075	307,5984	-0,033	87,603	0	1017,58	6,6	8,6	8,4	1	1	1	1	1	1	1	1	1	0	1	-10,42988	273,881831	308,603369	0
15.01.2021	22:31:46	0	0	4,632287	1,0245	307,6056	-0,036	87,542	0	1017,56	6,6	8,5	8,4	1	1	1	1	1	1	1	1	1	0	1	-5,073996	273,980945	314,421323	0
15.01.2021	22:31:47	0	0	4,519304	1,00125	303,4656	-0,044	87,533	0	1017,48	6,6	8,6	8,4	1	1	1	1	1	1	1	1	1	0	1	-7,329105	273,96612	312,097065	0
15.01.2021	22:31:48	0	0	3,615443	0,9735	301,5684	-0,042	87,54	0	1017,44	6,6	8,6	8,4	1	1	1	1	1	1	1	1	1	0	1	-11,980268	273,977979	307,501216	0
15.01.2021	22:31:49	0	0	3,728426	0,98925	306,2232	-0,047	87,547	0	1017,56	6,6	8,6	8,4	1	1	1	1	1	1	1	1	1	0	1	-4,580691	273,989846	314,956148	0
15.01.2021	22:31:50	0	0	4,971234	1,00275	302,8536	-0,035	87,545	0	1017,68	6,6	8,6	8,4	1	1	1	1	1	1	1	1	1	0	1	-8,315715	273,951305	311,04137	0
15.01.2021	22:31:51	0	0	3,954391	0,987	289,9908	-0,046	87,526	0	1017,48	6,6	8,6	8,4	1	1	1	1	1	1	1	1	1	0	1	-7,751938	273,983912	311,757218	0
15.01.2021	22:31:52	0	0	3,954391	0,97575	289,9836	-0,041	87,54	0	1017,58	6,6	8,7	8,4	1	1	1	1	1	1	1	1	1	0	1	-7,188161	273,933543	312,086109	0
15.01.2021	22:31:53	0	0	2,824565	0,95925	294,102	-0,041	87,543	0	1017,36	6,6	8,6	8,4	1	1	1	1	1	1	1	1	1	0	1	-5,990134	273,96612	313,436036	0
15.01.2021	22:31:54	0	0	2,259652	0,918	301,6728	-0,046	87,541	0	1017,64	6,6	8,6	8,4	1	1	1	1	1	1	1	1	1	0	1	-7,047216	273,997267	312,52424	0
15.01.2021	22:31:55	0	0	3,05053	0,94575	303,516	-0,049	87,54	0	1017,68	6,6	8,5	8,4	1	1	1	1	1	1	1	1	1	0	1	-6,131078	273,87888	312,888422	0
15.01.2021	22:31:56	0	0	3,841408	0,963	299,8008	-0,037	87,557	0	1017,62	6,6	8,6	8,4	1	1	1	1	1	1	1	1	1	0	1	-9,372798	273,983912	310,136358	0
15.01.2021	22:31:57	0	0	2,937548	1,002	293,346	-0,04	87,551	0	1017,56	6,6	8,6	8,4	1	1	1	1	1	1	1	1	1	0	1	-7,047216	273,937982	312,247748	0
15.01.2021	22:31:58	0	0	4,858252	1,1205	306,0108	-0,04	87,554	0	1017,52	6,6	8,6	8,4	1	1	1	1	1	1	1	1	1	0	1	-4,651163	273,79644	313,9844	0
15.01.2021	22:31:59	0	0	2,711566	1,25475	307,62	-0,041	87,555	0	1017,56	6,6	8,6	8,5	1	1	1	1	1	1	1	1	1	0	1	-6,976744	273,847923	311,898546	0
15.01.2021	22:32:00	0	0	2,485617	1,452	297,1692	-0,038	87,549	0	1017,42	6,6	8,6	8,4	1	1	1	1	1	1	1	1	1	0	1	-6,483439	273,819958	312,261617	0
15.01.2021	22:32:01	0	0	2,485617	1,452	297,1692	-0,038	87,549	0	1017,42	6,6	8,6	8,4	1	1	1	1	1	1	1	1	1	0	1	-6,976744	273,800847	311,679336	0
15.01.2021	22:32:02	0	0	5,423132	1,515	303,1956	-0,035	87,561	0	1017,52	6,6	8,6	8,5	1	1	1	1	1	1	1	1	1	0	1	-10,218464	273,906931	308,931754	0
15.01.2021	22:32:03	0	0	2,711582	1,51575	295,182	-0,038	87,551	0	1017,52	6,6	8,7	8,4	1	1	1	1	1	1	1	1	1	0	1	-8,527132	273,998751	311,05125	0
15.01.2021	22:32:04	0	0	2,937548	1,60725	296,0712	-0,041	87,552	0	1017,54	6,6	8,6	8,4	1	1	1	1	1	1	1	1	1	0	1	-11,486963	273,874454	307,511919	0
15.01.2021	22:32:05	0	0	2,372635	1,7145	303,21	-0,04	87,549	0	1017,66	6,6	8,6	8,4	1	1	1	1	1	1	1	1	1	0	1	-6,131078	273,988363	313,398839	0
15.01.2021	22:32:06	0	0	2,5986	1,78275	302,5224	-0,045	87,561	0	1017,68	6,6	8,6	8,4	1	1	1	1	1	1	1	1	1	0	1	-5,84919	273,901022	313,27349	0
15.01.2021	22:32:07	0	0	3,389478	1,78275	299,0268	-0,044	87,562	0	1017,6	6,6	8,6	8,4	1	1	1	1	1	1	1	1	1	0	1	-6,20155	273,818487	312,536658	0
15.01.2021	22:32:08	0	0	4,180356	1,821	295,1856	-0,047	87,535	0	1017,54	6,6	8,7	8,4	1	1	1	1	1	1	1	1	1	0	1	-11,06413	273,861184	307,87293	0
15.01.2021	22:32:09	0	0	4,406321	1,7805	297,8928	-0,036	87,561	0	1017,56	6,6	8,7	8,4	1	1	1	1	1	1	1	1	1	0	1	-4,651163	273,995783	314,913369	0
15.01.2021	22:32:10	0	0	4,745241	1,73625	312,426	-0,044	87,546	0	1017,58	6,6	8,6	8,5	1	1	1	1	1	1	1	1	1	0	1	-5,21494	273,935023	314,066227	0
15.01.2021	22:32:11	0	0	4,632287	1,6755	302,8644	-0,032	87,569	0	1017,54	6,6	8,5	8,4	1	1	1	1	1	1	1	1	1	0	1	-4,298802	273,99133	315,244959	0
15.01.2021	22:32:12	0	0	3,163513	1,644	307,584	-0,041	87,562	0	1017,62	6,6	8,6	8,4	1	1	1	1	1	1	1	1	1	0	1	-9,866103	273,917276	309,332333	0
15.01.2021	22:32:13	0	0	2,824565	1,62675	309,2436	-0,042	87,565	0	1017,62	6,6	8,5	8,4	1	1	1	1	1	1	1	1	1	0	1	-6,8358	273,988363	312,694117	0
15.01.2021	22:32:14	0	0	2,598584	1,60425	308,0664	-0,038	87,562	0	1017,44	6,6	8,6	8,5	1	1	1	1	1	1	1	1	1	0	1	-6,906272	273,834672	311,9073	0
15.01.2021	22:32:15	0	0	2,372635	1,64925	304,938	-0,042	87,555	0	1017,5	6,6	8,7	8,4	1	1	1	1	1	1	1	1	1	0	1	-4,933051	273,960193	314,465477	0
15.01.2021	22:32:16	0	0	3,163513	1,67325	297,4716	-0,042	87,571	0	1017,36	6,6	8,6	8,4	1	1	1	1	1	1	1	1	1	0	1	-5,073996	273,85971	313,856198	0
15.01.2021	22:32:17	0	0	3,05053	1,695	299,0484	-0,044	87,56	0	1017,56	6,6	8,6	8,4	1	1	1	1	1	1	1	1	1	0	1	-7,047216	273,842033	311,800637	0
15.01.2021	22:32:18	0	0	3,050512	1,7685	313,1784	-0,04	87,557	0	1017,58	6,6	8,6	8,5	1	1	1	1	1	1	1	1	1	0	1	-5,355884	273,818487	313,382324	0
15.01.2021	22:32:19	0	0	4,519304	1,7835	307,5588	-0,044	87,56	0	1017,56	6,6	8,5	8,4	1	1	1	1	1	1	1	1	1	0	1	-8,104299	273,865607	310,853363	0
15.01.2021	22:32:20	0	0	3,276495	1,788	309,5712	-0,044	87,563	0	1017,5	6,6	8,6	8,4	1	1	1	1	1	1	1	1	1	0	1	-7,892882	273,989846	311,643956	0
15.01.2021	22:32:21	0	0	4,067374	1,68	311,7564	-0,036	87,557	0	1017,58	6,6	8,6	8,4	1	1	1	1	1	1	1	1	1	0	1	-11,275546	273,856763	307,640918	0
15.01.2021	22:32:22	0	0	2,824565	1,668	310,9248	-0,04	87,565	0	1017,76	6,6	8,6	8,4	1	1	1	1	1	1	1	1	1	0	1	-6,906272	273,800847	311,749808	0
15.01.2021	22:32:23	0	0	3,05053	1,6395	304,5672	-0,042	87,563	0	1017,52	6,6	8,6	8,4	1	1	1	1	1	1	1	1	1	0	1	-6,8358	273,84056	312,005196	0
15.01.2021	22:32:24	0	0	3,728426	1,6065	302,0724	-0,044	87,564	0	1017,58	6,6	8,6	8,4	1	1	1	1	1	1	1	1	1	0	1	-0	273,815546	318,724514	0
15.01.2021	22:32:25	0	0	3,954391	1,59975	300,1464	-0,041	87,556	0	1017,46	6,6	8,7	8,4	1	1	1	1	1	1	1	1	1	0	1	-5,567301	273,911364	313,603578	0
15.01.2021	22:32:26	0	0	3,389478	1,59975	307,512	-0,033	87,575	0	1017,72	6,6	8,5	8,4	1	1	1	1	1	1	1	1	1	0	1	-6,8358	273,99133	312,707961	0
15.01.2021	22:32:27	0	0	4,293339	1,629	304,9812	-0,038	87,562	0	1017,5	6,6	8,5	8,4	1	1	1	1	1	1	1	1	1	0	1	-6,765328	273,948344	312,577949	0
15.01.2021	22:32:28	0	0	2,485617	1,653	309,51	-0,04	87,546	0	1017,68	6,6	8,6	8,4	1	1	1	1	1	1	1	1	1	0	1	-3,24172	273,831728	315,558144	0
15.01.2021	22:32:29	0	0	4,406321	1,5945	303,5376	-0,037	87,561	0	1017,66	6,6	8,7	8,4	1	1	1	1	1	1	1	1	1	0	1	-7,892882	273,979462	311,595518	0
15.01.2021	22:32:30	0	0	3,841408	1,5495	309,996	-0,039	87,547	0	1017,42	6,6	8,5	8,4	1	1	1	1	1	1	1	1	1	0	1	-6,765328	273,868555	312,206071	0
15.01.2021	22:32:31	0	0	3,728403	1,47975	311,7024	-0,037	87,564	0	1017,72	6,6	8,5	8,5	1	1	1	1	1	1	1	1	1	0	1	-6,624383	273,982429	312,877853	0
15.01.2021	22:32:32	0	0	4,406321	1,449	303,5232	-0,035	87,556	0	1017,58	6,6	8,6	8,4	1	1	1	1	1	1	1	1	1	0	1	-5,708245	273,920233	313,503972	0
15.01.2021	22:32:33	0	0	3,276495	1,38	306,8532	-0,035	87,561	0	1017,58	6,6	8,6	8,4	1	1	1	1	1	1	1	1	1	0	1	-6,624383	273,8229	312,134371	0
15.01.2021	22:32:34	0	0	3,502461	1,353	296,8524	-0,038	87,558	0	1017,64	6,6	8,6	8,4	1	1	1	1	1	1	1	1	1	0	1	-7,963354	273,917276	311,235081	0
15.01.2021	22:32:35	0	0	3,163513	1,33125	291,888	-0,042	87,564	0	1017,56	6,6	8,5	8,4	1	1	1	1	1	1	1	1	1	0	1	-5,355884	273,808195	313,334405	0
15.01.2021	22:32:36	0	0	4,406321	1,25475	295,4808	-0,039	87,554	0	1017,42	6,6	8,6	8,4	1	1	1	1	1	1	1	1	1	0	1	-4,369274	273,927626	314,87741	0
15.01.2021	22:32:37	0	0	4,180356	1,23225	300,1068	-0,043	87,576	0	1017,48	6,6	8,7	8,4	1	1	1	1	1	1	1	1	1	0	1	-7,610994	273,985395	311,905082	0
15.01.2021	22:32:38	0	0	4,632287	1,227	305,3628	-0,041	87,573	0	1017,56	6,6	8,6	8,4	1	1	1	1	1	1	1	1	1	0	1	-9,513742	273,955749	309,864062	0
15.01.2021	22:32:39	0	0	3,05053	1,28625	299,4876	-0,047	87,556	0	1017,62	6,6	8,6	8,4	1	1	1	1	1	1	1	1	1	0	1	-3,664553	273,808195	315,025737	0
15.01.2021	22:32:40	0	0	4,745269	1,43925	292,266	-0,041	87,557	0	1017,64	6,6	8,7	8,4	1	1	1	1	1	1	1	1	1	0	1	-6,624383	273,958711	312,767236	0
15.01.2021	22:32:41	0	0	5,1972	1,58475	297,5508	-0,037	87,569	0	1017,56	6,6	8,6	8,4	1	1	1	1	1	1	1	1	1	0	1	-7,610994	273,927626	311,635691	0
15.01.2021	22:32:42	0	0	4,858252	1,6545	293,706	-0,037	87,572	0	1017,54	6,6	8,6	8,4	1	1	1	1	1	1	1	1	1	0	1	-4,580691	273,983912	314,928465	0
15.01.2021	22:32:43	0	0	4,293339	1,6635	284,814	-0,046	87,56	0	1017,38	6,6	8,6	8,4	1	1	1	1	1	1	1	1	1	0	1	-6,765328	273,880355	312,261046	0
15.01.2021	22:32:44	0	0	2,37262	1,67625	284,454	-0,037	87,561	0	1017,68	6,6	8,6	8,5	1	1	1	1	1	1	1	1	1	0	1	-7,681466	273,803786	310,988296	0
15.01.2021	22:32:45	0	0	2,824565	1,64475	298,9908	-0,04	87,561	0	1017,54	6,6	8,6	8,4	1	1	1	1	1	1	1	1	1	0	1	-10,288936	273,865607	308,668726	0
15.01.2021	22:32:46	0	0	2,711582	1,566	305,7588	-0,043	87,574	0	1017,6	6,6	8,6	8,4	1	1	1	1	1	1	1	1	1	0	1	-7,329105	273,812606	311,381717	0
15.01.2021	22:32:47	0	0	4,632287	1,4775	287,7336	-0,039	87,577	0	1017,62	6,6	8,6	8,4	1	1	1	1	1	1	1	1	1	0	1	-9,231853	273,853816	309,670884	0
15.01.2021	22:32:48	0	0	2,146669	1,39275	298,3356	-0,042	87,569	0	1017,44	6,6	8,6	8,4	1	1	1	1	1	1	1	1	1	0	1	-8,386187	273,817017	310,345173	0
15.01.2021	22:32:49	0	0	3,276495	1,3935	282,1968	-0,04	87,571	0	1017,58	6,6	8,6	8,4	1	1	1	1	1	1	1	1	1	0	1	-6,20155	273,915798	312,989995	0
15.01.2021	22:32:50	0	0	4,971205	1,37175	293,0328	-0,042	87,568	0	1017,66	6,6	8,6	8,5	1	1	1	1	1	1	1	1	1	0	1	-7,117689	273,793502	311,504199	0
15.01.2021	22:32:51	0	0	4,519277	1,34625	294,8472	-0,044	87,559	0	1017,44	6,6	8,6	8,5	1	1	1	1	1	1	1	1	1	0	1	-5,990134	273,95723	313,394578	0
15.01.2021	22:32:52	0	0	2,485617	1,33725	272,0484	-0,044	87,574	0	1017,6	6,6	8,6	8,4	1	1	1	1	1	1	1	1	1	0	1	-8,174771	273,985395	311,341305	0
15.01.2021	22:32:53	0	0	2,711582	1,40175	281,0232	-0,042	87,561	0	1017,66	6,6	8,7	8,4	1	1	1	1	1	1	1	1	1	0	1	-5,637773	273,836144	313,182654	0
15.01.2021	22:32:54	0	0	3,841408	1,45575	301,6224	-0,039	87,573	0	1017,46	6,6	8,6	8,4	1	1	1	1	1	1	1	1	1	0	1	-7,610994	273,930585	311,649482	0
15.01.2021	22:32:55	0	0	4,406321	1,44675	306,4572	-0,034	87,571	0	1017,52	6,6	8,5	8,4	1	1	1	1	1	1	1	1	1	0	1	-6,906272	273,977979	312,575211	0
15.01.2021	22:32:56	0	0	2,5986	1,49475	288,1476	-0,035	87,576	0	1017,5	6,6	8,6	8,4	1	1	1	1	1	1	1	1	1	0	1	-10,007047	273,903976	309,1294	0
15.01.2021	22:32:57	0	0	3,389478	1,593	289,1664	-0,04	87,564	0	1017,3	6,6	8,6	8,4	1	1	1	1	1	1	1	1	1	0	1	-5,355884	273,8332	313,450833	0
15.01.2021	22:32:58	0	0	2,824548	1,69875	290,0484	-0,039	87,585	0	1017,58	6,6	8,6	8,5	1	1	1	1	1	1	1	1	1	0	1	-6,060606	273,945383	313,268864	0
15.01.2021	22:32:59	0	0	3,615443	1,74825	288,756	-0,041	87,584	0	1017,44	6,6	8,6	8,4	1	1	1	1	1	1	1	1	1	0	1	-5,285412	273,972049	314,168409	0
15.01.2021	22:33:00	0	0	4,293339	1,73175	292,2048	-0,038	87,57	0	1017,6	6,6	8,6	8,4	1	1	1	1	1	1	1	1	1	0	1	-4,933051	273,929105	314,320528	0
15.01.2021	22:33:01	0	0	3,163513	1,80375	288,4428	-0,035	87,585	0	1017,62	6,6	8,7	8,4	1	1	1	1	1	1	1	1	1	0	1	-9,090909	273,982429	310,411328	0
15.01.2021	22:33:02	0	0	2,711582	1,80225	291,8808	-0,039	87,584	0	1017,54	6,6	8,6	8,4	1	1	1	1	1	1	1	1	1	0	1	-4,298802	273,933543	314,975467	0
15.01.2021	22:33:03	0	0	2,711582	1,77225	299,3652	-0,041	87,573	0	1017,72	6,6	8,7	8,4	1	1	1	1	1	1	1	1	1	0	1	-7,540521	273,836144	311,279905	0
15.01.2021	22:33:04	0	0	4,971234	1,67325	288,1296	-0,036	87,575	0	1017,62	6,6	8,5	8,4	1	1	1	1	1	1	1	1	1	0	1	-5,567301	273,942422	313,748365	0
15.01.2021	22:33:05	0	0	3,728426	1,656	290,52	-0,04	87,563	0	1017,56	6,6	8,6	8,4	1	1	1	1	1	1	1	1	1	0	1	-10,570825	273,817017	308,160536	0
15.01.2021	22:33:06	0	0	4,406295	1,69725	297,2304	-0,034	87,593	0	1017,54	6,6	8,6	8,5	1	1	1	1	1	1	1	1	1	0	1	-9,513742	273,960193	309,884786	0
15.01.2021	22:33:07	0	0	3,728403	1,70625	295,5492	-0,036	87,58	0	1017,54	6,6	8,5	8,5	1	1	1	1	1	1	1	1	1	0	1	-7,540521	273,837616	311,286761	0
15.01.2021	22:33:08	0	0	3,841408	1,665	297,594	-0,036	87,567	0	1017,58	6,6	8,6	8,4	1	1	1	1	1	1	1	1	1	0	1	-6,553911	273,887734	312,506843	0
15.01.2021	22:33:09	0	0	3,276476	1,56375	274,356	-0,041	87,577	0	1017,44	6,6	8,6	8,5	1	1	1	1	1	1	1	1	1	0	1	-5,003524	273,808195	313,686766	0
15.01.2021	22:33:10	0	0	2,937548	1,5945	307,6056	-0,041	87,583	0	1017,52	6,6	8,6	8,4	1	1	1	1	1	1	1	1	1	0	1	-4,157858	273,935023	315,123309	0
15.01.2021	22:33:11	0	0	4,293339	1,608	286,9776	-0,04	87,597	0	1017,6	6,6	8,6	8,4	1	1	1	1	1	1	1	1	1	0	1	-4,298802	273,839088	314,535337	0
15.01.2021	22:33:12	0	0	4,971234	1,61775	281,3652	-0,037	87,582	0	1017,62	6,6	8,5	8,4	1	1	1	1	1	1	1	1	1	0	1	-4,721635	273,853816	314,181102	0
15.01.2021	22:33:13	0	0	2,485617	1,64925	303,5772	-0,042	87,567	0	1017,56	6,6	8,6	8,4	1	1	1	1	1	1	1	1	1	0	1	-7,047216	273,985395	312,468859	0
15.01.2021	22:33:14	0	0	2,37262	1,6005	314,874	-0,04	87,581	0	1017,46	6,6	8,6	8,5	1	1	1	1	1	1	1	1	1	0	1	-7,470049	273,867081	311,49448	0
15.01.2021	22:33:15	0	0	4,632259	1,48425	317,43	-0,041	87,567	0	1017,52	6,6	8,6	8,5	1	1	1	1	1	1	1	1	1	0	1	-1,761804	273,972049	317,692017	0
15.01.2021	22:33:16	0	0	2,937548	1,3635	304,7328	-0,04	87,571	0	1017,66	6,6	8,6	8,4	1	1	1	1	1	1	1	1	1	0	1	-1,973221	273,819958	316,771835	0
15.01.2021	22:33:17	0	0	2,937548	1,31775	297,5796	-0,039	87,581	0	1017,58	6,6	8,6	8,4	1	1	1	1	1	1	1	1	1	0	1	-7,188161	273,85971	311,742033	0
15.01.2021	22:33:18	0	0	2,93753	1,29075	284,8788	-0,042	87,585	0	1017,64	6,6	8,6	8,5	1	1	1	1	1	1	1	1	1	0	1	-11,205074	273,84056	307,635922	0
15.01.2021	22:33:19	0	0	4,971234	1,21425	293,6988	-0,043	87,582	0	1017,68	6,6	8,7	8,4	1	1	1	1	1	1	1	1	1	0	1	-5,919662	273,96612	313,506508	0
15.01.2021	22:33:20	0	0	2,824548	1,1475	303,7968	-0,041	87,592	0	1017,6	6,6	8,6	8,5	1	1	1	1	1	1	1	1	1	0	1	-8,80902	273,871505	310,176118	0
15.01.2021	22:33:21	0	0	3,954367	1,06425	279,2052	-0,041	87,6	0	1017,5	6,6	8,7	8,5	1	1	1	1	1	1	1	1	1	0	1	-1,832276	273,945383	317,497193	0
15.01.2021	22:33:22	0	0	2,485617	1,0575	284,1984	-0,043	87,572	0	1017,4	6,6	8,6	8,4	1	1	1	1	1	1	1	1	1	0	1	-7,470049	273,958711	311,92157	0
15.01.2021	22:33:23	0	0	4,519304	1,0785	290,772	-0,041	87,579	0	1017,56	6,6	8,5	8,4	1	1	1	1	1	1	1	1	1	0	1	-5,496829	273,818487	313,241379	0
15.01.2021	22:33:24	0	0	2,824565	1,15725	308,5128	-0,033	87,59	0	1017,66	6,6	8,7	8,4	1	1	1	1	1	1	1	1	1	0	1	-8,245243	273,906931	310,904975	0
15.01.2021	22:33:25	0	0	4,745269	1,24425	306,594	-0,046	87,578	0	1017,66	6,6	8,6	8,4	1	1	1	1	1	1	1	1	1	0	1	-11,557435	274,003205	308,041727	0
15.01.2021	22:33:26	0	0	4,632259	1,3755	305,8416	-0,041	87,584	0	1017,54	6,6	8,6	8,5	1	1	1	1	1	1	1	1	1	0	1	-13,03735	273,821429	305,714555	0
15.01.2021	22:33:27	0	0	3,276495	1,491	287,802	-0,037	87,587	0	1017,64	6,6	8,6	8,4	1	1	1	1	1	1	1	1	1	0	1	-3,453136	273,805256	315,223468	0
15.01.2021	22:33:28	0	0	3,276495	1,57425	299,8116	-0,039	87,58	0	1017,58	6,6	8,6	8,4	1	1	1	1	1	1	1	1	1	0	1	-8,315715	273,875929	310,690038	0
15.01.2021	22:33:29	0	0	3,05053	1,581	308,7612	-0,038	87,565	0	1017,62	6,6	8,7	8,4	1	1	1	1	1	1	1	1	1	0	1	-4,369274	273,977979	315,112209	0
15.01.2021	22:33:30	0	0	4,971205	1,53975	324,4464	-0,036	87,59	0	1017,54	6,6	8,6	8,5	1	1	1	1	1	1	1	1	1	0	1	-6,272023	273,939462	313,029842	0
15.01.2021	22:33:31	0	0	3,163513	1,55175	311,796	-0,033	87,584	0	1017,62	6,6	8,6	8,4	1	1	1	1	1	1	1	1	1	0	1	-5,426357	273,8229	313,332398	0
15.01.2021	22:33:32	0	0	4,406295	1,53825	312,5052	-0,045	87,583	0	1017,58	6,6	8,6	8,5	1	1	1	1	1	1	1	1	1	0	1	-3,805497	273,809665	314,891636	0
15.01.2021	22:33:33	0	0	3,389478	1,5165	304,632	-0,038	87,59	0	1017,56	6,6	8,6	8,4	1	1	1	1	1	1	1	1	1	0	1	-5,990134	273,814076	312,727534	0
15.01.2021	22:33:34	0	0	3,163494	1,52775	306,1368	-0,039	87,588	0	1017,64	6,6	8,6	8,5	1	1	1	1	1	1	1	1	1	0	1	-1,832276	273,855289	317,077324	0
15.01.2021	22:33:35	0	0	3,841408	1,48875	306,0936	-0,046	87,588	0	1017,62	6,6	8,6	8,4	1	1	1	1	1	1	1	1	1	0	1	-4,298802	273,812606	314,41202	0
15.01.2021	22:33:36	0	0	2,485617	1,464	304,9848	-0,04	87,565	0	1017,5	6,6	8,5	8,4	1	1	1	1	1	1	1	1	1	0	1	-5,990134	273,825842	312,782321	0
15.01.2021	22:33:37	0	0	3,389478	1,49175	306,108	-0,044	87,569	0	1017,62	6,6	8,6	8,4	1	1	1	1	1	1	1	1	1	0	1	-13,178295	273,87888	305,841205	0
15.01.2021	22:33:38	0	0	4,632287	1,5705	309,906	-0,036	87,584	0	1017,58	6,6	8,6	8,4	1	1	1	1	1	1	1	1	1	0	1	-10,288936	273,973531	309,1718	0
15.01.2021	22:33:39	0	0	3,389458	1,5855	308,826	-0,035	87,585	0	1017,64	6,6	8,5	8,5	1	1	1	1	1	1	1	1	1	0	1	-9,513742	273,839088	309,320397	0
15.01.2021	22:33:40	0	0	2,824565	1,5675	299,772	-0,039	87,579	0	1017,46	6,6	8,6	8,4	1	1	1	1	1	1	1	1	1	0	1	-8,949965	273,827313	309,829341	0
15.01.2021	22:33:41	0	0	4,406321	1,521	298,35	-0,037	87,577	0	1017,54	6,6	8,6	8,4	1	1	1	1	1	1	1	1	1	0	1	-6,060606	273,836144	312,759821	0
15.01.2021	22:33:42	0	0	3,615443	1,5345	298,6092	-0,036	87,56	0	1017,54	6,6	8,6	8,4	1	1	1	1	1	1	1	1	1	0	1	-8,245243	273,979462	311,243157	0
15.01.2021	22:33:43	0	0	4,858223	1,53075	308,07	-0,037	87,582	0	1017,58	6,6	8,6	8,5	1	1	1	1	1	1	1	1	1	0	1	-8,879493	273,877405	310,133134	0
15.01.2021	22:33:44	0	0	4,293339	1,50825	308,862	-0,045	87,578	0	1017,44	6,6	8,6	8,4	1	1	1	1	1	1	1	1	1	0	1	-6,906272	273,806726	311,777174	0
15.01.2021	22:33:45	0	0	2,824565	1,45575	301,3056	-0,044	87,562	0	1017,52	6,6	8,6	8,4	1	1	1	1	1	1	1	1	1	0	1	-7,329105	273,911364	311,841774	0
15.01.2021	22:33:46	0	0	3,841408	1,51275	302,04	-0,043	87,577	0	1017,74	6,6	8,5	8,4	1	1	1	1	1	1	1	1	1	0	1	-2,959831	273,975014	316,50782	0
15.01.2021	22:33:47	0	0	4,519277	1,60125	300,4956	-0,041	87,571	0	1017,6	6,6	8,6	8,5	1	1	1	1	1	1	1	1	1	0	1	-6,553911	273,85971	312,376283	0
15.01.2021	22:33:48	0	0	2,485617	1,632	302,3064	-0,043	87,577	0	1017,68	6,6	8,6	8,4	1	1	1	1	1	1	1	1	1	0	1	-5,496829	273,986879	314,026167	0
15.01.2021	22:33:49	0	0	4,971234	1,60425	290,8008	-0,042	87,577	0	1017,58	6,6	8,6	8,4	1	1	1	1	1	1	1	1	1	0	1	-4,933051	273,95723	314,45166	0
15.01.2021	22:33:50	0	0	3,276495	1,60575	299,0016	-0,039	87,581	0	1017,62	6,6	8,6	8,4	1	1	1	1	1	1	1	1	1	0	1	-6,624383	273,842033	312,22347	0
15.01.2021	22:33:51	0	0	5,084217	1,55925	297,2304	-0,041	87,587	0	1017,76	6,6	8,6	8,4	1	1	1	1	1	1	1	1	1	0	1	-8,104299	273,982429	311,397938	0
15.01.2021	22:33:52	0	0	3,05053	1,48125	291,6036	-0,038	87,581	0	1017,6	6,6	8,6	8,4	1	1	1	1	1	1	1	1	1	0	1	-6,906272	273,911364	312,264607	0
15.01.2021	22:33:53	0	0	2,485602	1,4415	292,6152	-0,038	87,581	0	1017,68	6,6	8,6	8,5	1	1	1	1	1	1	1	1	1	0	1	-6,412967	273,979462	313,075434	0
15.01.2021	22:33:54	0	0	3,954391	1,38525	288,8172	-0,034	87,588	0	1017,68	6,6	8,5	8,4	1	1	1	1	1	1	1	1	1	0	1	-8,527132	273,949825	310,823049	0
15.01.2021	22:33:55	0	0	2,372635	1,33575	292,9536	-0,04	87,581	0	1017,66	6,6	8,5	8,4	1	1	1	1	1	1	1	1	1	0	1	-9,936575	273,809665	308,760558	0
15.01.2021	22:33:56	0	0	2,5986	1,2945	286,9704	-0,041	87,573	0	1017,64	6,6	8,6	8,4	1	1	1	1	1	1	1	1	1	0	1	-5,919662	273,852343	312,976213	0
15.01.2021	22:33:57	0	0	3,502461	1,221	287,3808	-0,043	87,573	0	1017,58	6,6	8,6	8,4	1	1	1	1	1	1	1	1	1	0	1	-5,708245	273,983912	313,800911	0
15.01.2021	22:33:58	0	0	2,485617	1,23525	283,2084	-0,044	87,559	0	1017,7	6,6	8,6	8,4	1	1	1	1	1	1	1	1	1	0	1	-5,708245	273,905453	313,435087	0
15.01.2021	22:33:59	0	0	2,485617	1,236	299,0088	-0,04	87,575	0	1017,66	6,6	8,6	8,4	1	1	1	1	1	1	1	1	1	0	1	-7,470049	273,814076	311,247618	0
15.01.2021	22:34:00	0	0	2,824565	1,18725	294,3684	-0,045	87,572	0	1017,56	6,6	8,6	8,4	1	1	1	1	1	1	1	1	1	0	1	-5,355884	273,84056	313,485111	0
15.01.2021	22:34:01	0	0	4,067374	1,2015	285,5268	-0,035	87,579	0	1017,62	6,6	8,6	8,4	1	1	1	1	1	1	1	1	1	0	1	-6,906272	273,812606	311,80455	0
15.01.2021	22:34:02	0	0	2,711582	1,2165	297,198	-0,044	87,576	0	1017,38	6,6	8,6	8,4	1	1	1	1	1	1	1	1	1	0	1	-7,751938	273,844978	311,109632	0
15.01.2021	22:34:03	0	0	2,485617	1,254	287,7624	-0,046	87,579	0	1017,64	6,6	8,6	8,4	1	1	1	1	1	1	1	1	1	0	1	-9,654686	273,837616	309,172596	0
15.01.2021	22:34:04	0	0	3,163513	1,308	288,1296	-0,038	87,568	0	1017,4	6,6	8,6	8,4	1	1	1	1	1	1	1	1	1	0	1	-6,483439	273,793502	312,138448	0
15.01.2021	22:34:05	0	0	4,519304	1,29375	296,8704	-0,041	87,562	0	1017,48	6,6	8,5	8,4	1	1	1	1	1	1	1	1	1	0	1	-7,047216	273,856763	311,869248	0
15.01.2021	22:34:06	0	0	2,937548	1,2825	285,498	-0,041	87,566	0	1017,5	6,6	8,5	8,4	1	1	1	1	1	1	1	1	1	0	1	-7,610994	273,972049	311,842828	0
15.01.2021	22:34:07	0	0	4,293339	1,30425	289,5984	-0,038	87,572	0	1017,56	6,6	8,6	8,4	1	1	1	1	1	1	1	1	1	0	1	-5,84919	273,834672	312,964382	0
15.01.2021	22:34:08	0	0	2,711582	1,26075	301,5504	-0,043	87,556	0	1017,56	6,6	8,7	8,4	1	1	1	1	1	1	1	1	1	0	1	-7,963354	273,986879	311,559641	0
15.01.2021	22:34:09	0	0	4,180356	1,194	299,0088	-0,041	87,584	0	1017,58	6,6	8,5	8,4	1	1	1	1	1	1	1	1	1	0	1	-6,483439	273,915798	312,708106	0
15.01.2021	22:34:10	0	0	3,615443	1,15125	297,4824	-0,036	87,57	0	1017,74	6,6	8,6	8,4	1	1	1	1	1	1	1	1	1	0	1	-5,778717	273,954267	313,59218	0
15.01.2021	22:34:11	0	0	3,728403	1,14525	305,0244	-0,044	87,577	0	1017,6	6,6	8,5	8,5	1	1	1	1	1	1	1	1	1	0	1	-10,570825	273,983912	308,938331	0
15.01.2021	22:34:12	0	0	3,728426	1,11375	303,1884	-0,037	87,584	0	1017,56	6,6	8,6	8,4	1	1	1	1	1	1	1	1	1	0	1	-6,694856	273,861184	312,242204	0
15.01.2021	22:34:13	0	0	4,293313	1,13175	295,4844	-0,041	87,573	0	1017,62	6,6	8,6	8,5	1	1	1	1	1	1	1	1	1	0	1	-9,513742	273,803786	309,15602	0
15.01.2021	22:34:14	0	0	4,406295	1,203	292,9824	-0,043	87,585	0	1017,66	6,6	8,5	8,5	1	1	1	1	1	1	1	1	1	0	1	-9,020437	273,87003	309,957832	0
15.01.2021	22:34:15	0	0	4,067374	1,28925	291,8448	-0,041	87,573	0	1017,6	6,6	8,6	8,4	1	1	1	1	1	1	1	1	1	0	1	-5,426357	273,975014	314,041295	0
15.01.2021	22:34:16	0	0	3,841408	1,2345	309,9348	-0,044	87,581	0	1017,56	6,6	8,7	8,4	1	1	1	1	1	1	1	1	1	0	1	-4,298802	273,908408	314,858302	0
15.01.2021	22:34:17	0	0	2,824548	1,1625	304,0092	-0,041	87,572	0	1017,5	6,6	8,6	8,5	1	1	1	1	1	1	1	1	1	0	1	-5,84919	273,980945	313,646129	0
15.01.2021	22:34:18	0	0	3,05053	1,197	289,9836	-0,04	87,57	0	1017,52	6,6	8,6	8,4	1	1	1	1	1	1	1	1	1	0	1	-8,879493	273,849396	310,002658	0
15.01.2021	22:34:19	0	0	4,180356	1,25025	299,3868	-0,037	87,645	0	1017,52	6,6	8,5	8,4	1	1	1	1	1	1	1	1	1	0	1	-4,651163	273,85971	314,279031	0
15.01.2021	22:34:20	0	0	3,728426	1,266	297,8964	-0,04	87,564	0	1017,62	6,6	8,5	8,4	1	1	1	1	1	1	1	1	1	0	1	-5,708245	273,986879	313,814751	0
15.01.2021	22:34:21	0	0	2,5986	1,257	296,118	-0,036	87,58	0	1017,46	6,6	8,6	8,4	1	1	1	1	1	1	1	1	1	0	1	-12,966878	273,847923	305,908412	0
15.01.2021	22:34:22	0	0	3,163513	1,2345	290,0016	-0,034	87,578	0	1017,56	6,6	8,5	8,4	1	1	1	1	1	1	1	1	1	0	1	-6,694856	273,936503	312,59321	0
15.01.2021	22:34:23	0	0	2,5986	1,22925	292,212	-0,037	87,561	0	1017,68	6,6	8,6	8,4	1	1	1	1	1	1	1	1	1	0	1	-7,892882	273,85971	311,037312	0
15.01.2021	22:34:24	0	0	2,824565	1,245	288,4104	-0,038	87,585	0	1017,5	6,6	8,6	8,4	1	1	1	1	1	1	1	1	1	0	1	-6,20155	273,817017	312,52981	0
15.01.2021	22:34:25	0	0	2,485602	1,24725	288,1188	-0,04	87,577	0	1017,6	6,6	8,6	8,5	1	1	1	1	1	1	1	1	1	0	1	-9,44327	273,995783	310,121262	0
15.01.2021	22:34:26	0	0	3,954391	1,24275	297,2556	-0,037	87,588	0	1017,54	6,6	8,7	8,4	1	1	1	1	1	1	1	1	1	0	1	-7,188161	273,91432	311,996495	0
15.01.2021	22:34:27	0	0	4,519277	1,197	295,5204	-0,046	87,577	0	1017,5	6,6	8,7	8,5	1	1	1	1	1	1	1	1	1	0	1	-5,21494	273,797909	313,427461	0
15.01.2021	22:34:28	0	0	2,5986	1,179	296,4132	-0,043	87,564	0	1017,44	6,5	8,7	8,4	1	1	1	1	1	1	1	1	1	0	1	-7,610994	273,942422	311,704672	0
15.01.2021	22:34:29	0	0	3,50244	1,1595	302,8176	-0,039	87,589	0	1017,56	6,6	8,6	8,5	1	1	1	1	1	1	1	1	1	0	1	-2,748414	273,809665	315,948718	0
15.01.2021	22:34:30	0	0	3,841408	1,16625	305,3448	-0,041	87,588	0	1017,62	6,6	8,7	8,4	1	1	1	1	1	1	1	1	1	0	1	-3,312192	273,892162	315,769199	0
15.01.2021	22:34:31	0	0	4,180331	1,116	307,1808	-0,045	87,59	0	1017,66	6,6	8,5	8,5	1	1	1	1	1	1	1	1	1	0	1	-4,22833	273,970566	315,218578	0
15.01.2021	22:34:32	0	0	2,711582	1,0695	314,3268	-0,045	87,582	0	1017,52	6,6	8,5	8,4	1	1	1	1	1	1	1	1	1	0	1	-7,610994	273,861184	311,326066	0
15.01.2021	22:34:33	0	0	4,632287	1,0455	314,046	-0,045	87,577	0	1017,56	6,6	8,6	8,4	1	1	1	1	1	1	1	1	1	0	1	-2,677942	273,79644	315,957621	0
15.01.2021	22:34:34	0	0	5,310182	1,056	316,2636	-0,042	87,594	0	1017,54	6,6	8,6	8,4	1	1	1	1	1	1	1	1	1	0	1	-5,144468	273,892162	313,936922	0
15.01.2021	22:34:35	0	0	3,502461	1,071	319,9608	-0,042	87,583	0	1017,58	6,6	8,5	8,4	1	1	1	1	1	1	1	1	1	0	1	-3,805497	273,802317	314,857424	0
15.01.2021	22:34:36	0	0	4,293313	1,065	318,8664	-0,033	87,603	0	1017,76	6,6	8,6	8,5	1	1	1	1	1	1	1	1	1	0	1	-5,355884	273,887734	313,70487	0
15.01.2021	22:34:37	0	0	4,745269	1,08375	317,376	-0,038	87,586	0	1017,52	6,6	8,6	8,4	1	1	1	1	1	1	1	1	1	0	1	-4,862579	273,79644	313,772983	0
15.01.2021	22:34:38	0	0	5,423165	1,0725	314,3952	-0,039	87,582	0	1017,58	6,6	8,6	8,4	1	1	1	1	1	1	1	1	1	0	1	-8,597604	273,87888	310,421896	0
15.01.2021	22:34:39	0	0	4,858252	1,05075	311,4324	-0,036	87,601	0	1017,64	6,6	8,5	8,4	1	1	1	1	1	1	1	1	1	0	1	-1,832276	273,799378	316,816964	0
15.01.2021	22:34:40	0	0	3,615421	1,08225	315,9288	-0,042	87,584	0	1017,54	6,6	8,5	8,5	1	1	1	1	1	1	1	1	1	0	1	-5,003524	273,87003	313,974745	0
15.01.2021	22:34:41	0	0	4,406321	1,06875	318,4632	-0,038	87,589	0	1017,54	6,6	8,5	8,4	1	1	1	1	1	1	1	1	1	0	1	-6,8358	273,792033	311,779251	0
15.01.2021	22:34:42	0	0	2,5986	1,086	307,2924	-0,037	87,582	0	1017,64	6,6	8,6	8,4	1	1	1	1	1	1	1	1	1	0	1	-4,862579	273,911364	314,3083	0
15.01.2021	22:34:43	0	0	2,711582	1,095	305,7048	-0,037	87,583	0	1017,54	6,6	8,6	8,4	1	1	1	1	1	1	1	1	1	0	1	-8,315715	273,802317	310,347206	0
15.01.2021	22:34:44	0	0	2,93753	1,02525	327,2616	-0,04	87,595	0	1017,52	6,6	8,7	8,5	1	1	1	1	1	1	1	1	1	0	1	-3,24172	273,842033	315,606134	0
15.01.2021	22:34:45	0	0	2,598584	1,017	325,2096	-0,041	87,586	0	1017,6	6,6	8,6	8,5	1	1	1	1	1	1	1	1	1	0	1	-8,738548	273,843505	310,116163	0
15.01.2021	22:34:46	0	0	3,615443	1,02525	308,808	-0,038	87,598	0	1017,62	6,6	8,6	8,4	1	1	1	1	1	1	1	1	1	0	1	-6,553911	273,794971	312,074814	0
15.01.2021	22:34:47	0	0	3,276495	1,0635	320,0688	-0,04	87,584	0	1017,5	6,6	8,6	8,4	1	1	1	1	1	1	1	1	1	0	1	-3,875969	273,850869	315,013043	0
15.01.2021	22:34:48	0	0	2,259652	1,13175	310,7808	-0,035	87,592	0	1017,52	6,6	8,6	8,4	1	1	1	1	1	1	1	1	1	0	1	-7,117689	273,985395	312,398387	0
15.01.2021	22:34:49	0	0	3,163513	1,1595	305,4204	-0,042	87,602	0	1017,62	6,6	8,6	8,4	1	1	1	1	1	1	1	1	1	0	1	-11,41649	273,864132	307,534303	0
15.01.2021	22:34:50	0	0	3,841385	1,15275	306,1584	-0,041	87,606	0	1017,7	6,6	8,6	8,5	1	1	1	1	1	1	1	1	1	0	1	-11,698379	273,980945	307,796939	0
15.01.2021	22:34:51	0	0	2,711582	1,12425	309,2724	-0,036	87,59	0	1017,68	6,6	8,6	8,4	1	1	1	1	1	1	1	1	1	0	1	-4,862579	273,88921	314,205053	0
15.01.2021	22:34:52	0	0	4,858252	1,12875	300,1536	-0,037	87,59	0	1017,38	6,6	8,6	8,4	1	1	1	1	1	1	1	1	1	0	1	-6,976744	273,794971	311,651981	0
15.01.2021	22:34:53	0	0	2,937548	1,1745	308,034	-0,038	87,593	0	1017,7	6,6	8,6	8,4	1	1	1	1	1	1	1	1	1	0	1	-4,721635	273,865607	314,236026	0
15.01.2021	22:34:54	0	0	4,745269	1,19325	302,4036	-0,038	87,58	0	1017,48	6,6	8,6	8,4	1	1	1	1	1	1	1	1	1	0	1	-1,902748	273,985395	317,613327	0
15.01.2021	22:34:55	0	0	4,293339	1,2075	311,0256	-0,04	87,593	0	1017,62	6,6	8,5	8,4	1	1	1	1	1	1	1	1	1	0	1	-10,570825	273,874454	308,428057	0
15.01.2021	22:34:56	0	0	2,824565	1,26075	307,2204	-0,038	87,599	0	1017,54	6,6	8,6	8,4	1	1	1	1	1	1	1	1	1	0	1	-8,45666	273,980945	311,038659	0
15.01.2021	22:34:57	0	0	2,824565	1,341	302,0796	-0,045	87,587	0	1017,68	6,6	8,5	8,4	1	1	1	1	1	1	1	1	1	0	1	-6,906272	273,896591	312,19576	0
15.01.2021	22:34:58	0	0	4,406295	1,36875	315,8712	-0,039	87,594	0	1017,62	6,6	8,6	8,5	1	1	1	1	1	1	1	1	1	0	1	-6,272023	273,809665	312,42511	0
15.01.2021	22:34:59	0	0	2,824548	1,431	319,1292	-0,04	87,594	0	1017,72	6,6	8,6	8,5	1	1	1	1	1	1	1	1	1	0	1	-5,637773	273,865607	313,319888	0
15.01.2021	22:35:00	0	0	2,93753	1,404	317,0844	-0,037	87,594	0	1017,8	6,6	8,6	8,5	1	1	1	1	1	1	1	1	1	0	1	-4,298802	273,805256	314,377802	0
15.01.2021	22:35:01	0	0	2,598584	1,35525	314,7768	-0,034	87,595	0	1017,7	6,6	8,6	8,5	1	1	1	1	1	1	1	1	1	0	1	-7,681466	273,970566	311,765442	0
15.01.2021	22:35:02	0	0	4,632287	1,35225	307,6236	-0,046	87,581	0	1017,58	6,6	8,6	8,4	1	1	1	1	1	1	1	1	1	0	1	-5,21494	273,975014	314,252711	0
15.01.2021	22:35:03	0	0	2,711582	1,347	310,6872	-0,038	87,6	0	1017,6	6,6	8,6	8,4	1	1	1	1	1	1	1	1	1	0	1	-7,610994	273,84056	311,230002	0
15.01.2021	22:35:04	0	0	4,971234	1,28625	308,8224	-0,036	87,594	0	1017,5	6,6	8,6	8,4	1	1	1	1	1	1	1	1	1	0	1	-4,510218	273,830256	314,282792	0
15.01.2021	22:35:05	0	0	4,180331	1,30125	314,1072	-0,033	87,597	0	1017,54	6,6	8,5	8,5	1	1	1	1	1	1	1	1	1	0	1	-8,80902	273,986879	310,713975	0
15.01.2021	22:35:06	0	0	4,858252	1,389	323,7876	-0,037	87,593	0	1017,64	6,6	8,6	8,4	1	1	1	1	1	1	1	1	1	0	1	-7,399577	273,937982	311,895387	0
15.01.2021	22:35:07	0	0	2,937548	1,4025	322,6428	-0,039	87,588	0	1017,58	6,6	8,5	8,4	1	1	1	1	1	1	1	1	1	0	1	-8,597604	273,96612	310,828566	0
15.01.2021	22:35:08	0	0	4,406321	1,392	304,9992	-0,041	87,588	0	1017,56	6,6	8,6	8,4	1	1	1	1	1	1	1	1	1	0	1	-3,875969	273,963156	315,536379	0
15.01.2021	22:35:09	0	0	5,423132	1,39275	308,8908	-0,04	87,581	0	1017,56	6,6	8,6	8,5	1	1	1	1	1	1	1	1	1	0	1	-9,725159	273,856763	309,191306	0
15.01.2021	22:35:10	0	0	4,858252	1,32075	317,7612	-0,04	87,598	0	1017,7	6,6	8,5	8,4	1	1	1	1	1	1	1	1	1	0	1	-7,258633	273,945383	312,070837	0
15.01.2021	22:35:11	0	0	3,615443	1,28775	309,2256	-0,041	87,594	0	1017,7	6,6	8,6	8,4	1	1	1	1	1	1	1	1	1	0	1	-6,765328	273,921711	312,453782	0
15.01.2021	22:35:12	0	0	2,5986	1,251	304,992	-0,039	87,601	0	1017,6	6,6	8,6	8,4	1	1	1	1	1	1	1	1	1	0	1	-6,976744	273,979462	312,511656	0
15.01.2021	22:35:13	0	0	2,485617	1,23975	303,2064	-0,04	87,579	0	1017,62	6,6	8,6	8,4	1	1	1	1	1	1	1	1	1	0	1	-3,664553	273,8332	315,142165	0
15.01.2021	22:35:14	0	0	2,824548	1,2495	309,6612	-0,04	87,592	0	1017,7	6,6	8,6	8,5	1	1	1	1	1	1	1	1	1	0	1	-7,117689	273,849396	311,764462	0
15.01.2021	22:35:15	0	0	2,5986	1,2255	297,216	-0,038	87,598	0	1017,7	6,6	8,7	8,4	1	1	1	1	1	1	1	1	1	0	1	-4,721635	273,815546	314,002879	0
15.01.2021	22:35:16	0	0	4,745269	1,24575	302,8068	-0,044	87,592	0	1017,78	6,6	8,6	8,4	1	1	1	1	1	1	1	1	1	0	1	-6,906272	273,951305	312,450813	0
15.01.2021	22:35:17	0	0	2,937548	1,2255	324,7632	-0,041	87,601	0	1017,64	6,6	8,6	8,4	1	1	1	1	1	1	1	1	1	0	1	-7,892882	273,812606	310,81794	0
15.01.2021	22:35:18	0	0	4,858252	1,19925	321,948	-0,042	87,58	0	1017,6	6,6	8,6	8,4	1	1	1	1	1	1	1	1	1	0	1	-5,990134	273,946863	313,346239	0
15.01.2021	22:35:19	0	0	3,163494	1,212	312,858	-0,04	87,595	0	1017,68	6,6	8,5	8,5	1	1	1	1	1	1	1	1	1	0	1	-3,946441	273,817017	314,784919	0
15.01.2021	22:35:20	0	0	3,163513	1,27425	323,3556	-0,039	87,598	0	1017,46	6,6	8,6	8,4	1	1	1	1	1	1	1	1	1	0	1	-7,470049	273,943903	311,852518	0
15.01.2021	22:35:21	0	0	4,180356	1,3275	321,8724	-0,035	87,592	0	1017,44	6,6	8,6	8,4	1	1	1	1	1	1	1	1	1	0	1	-7,117689	273,945383	312,211781	0
15.01.2021	22:35:22	0	0	2,485617	1,3335	321,1884	-0,045	87,593	0	1017,52	6,6	8,6	8,4	1	1	1	1	1	1	1	1	1	0	1	-6,553911	273,843505	312,3008	0
15.01.2021	22:35:23	0	0	5,084186	1,3305	324,3888	-0,045	87,596	0	1017,58	6,6	8,6	8,5	1	1	1	1	1	1	1	1	1	0	1	-3,382664	273,975014	316,084987	0
15.01.2021	22:35:24	0	0	3,954391	1,30275	319,9464	-0,043	87,576	0	1017,56	6,6	8,6	8,4	1	1	1	1	1	1	1	1	1	0	1	-6,272023	273,842033	312,575831	0
15.01.2021	22:35:25	0	0	2,5986	1,245	320,3856	-0,038	87,596	0	1017,66	6,6	8,6	8,4	1	1	1	1	1	1	1	1	1	0	1	-12,262156	273,976497	307,212411	0
15.01.2021	22:35:26	0	0	4,293339	1,10925	311,04	-0,044	87,592	0	1017,56	6,6	8,5	8,4	1	1	1	1	1	1	1	1	1	0	1	-4,792107	273,961674	314,613331	0
15.01.2021	22:35:27	0	0	4,180356	1,05375	307,6524	-0,04	87,61	0	1017,58	6,6	8,6	8,4	1	1	1	1	1	1	1	1	1	0	1	-11,980268	273,903976	307,15618	0
15.01.2021	22:35:28	0	0	3,502461	1,02525	314,3808	-0,038	87,606	0	1017,7	6,6	8,6	8,4	1	1	1	1	1	1	1	1	1	0	1	-8,033827	273,982429	311,46841	0
15.01.2021	22:35:29	0	0	2,824565	1,04625	318,4812	-0,043	87,593	0	1017,46	6,6	8,6	8,4	1	1	1	1	1	1	1	1	1	0	1	-7,188161	273,917276	312,010275	0
15.01.2021	22:35:30	0	0	3,841408	1,014	317,0016	-0,037	87,595	0	1017,5	6,6	8,5	8,4	1	1	1	1	1	1	1	1	1	0	1	-4,721635	273,961674	314,683803	0
15.01.2021	22:35:31	0	0	3,615421	0,94425	316,602	-0,039	87,597	0	1017,64	6,6	8,6	8,5	1	1	1	1	1	1	1	1	1	0	1	-9,302326	273,858237	309,621003	0
15.01.2021	22:35:32	0	0	4,067349	0,92175	314,46	-0,041	87,593	0	1017,54	6,6	8,5	8,5	1	1	1	1	1	1	1	1	1	0	1	-6,412967	273,794971	312,215758	0
15.01.2021	22:35:33	0	0	4,180331	0,8835	301,6584	-0,037	87,599	0	1017,66	6,5	8,6	8,5	1	1	1	1	1	1	1	1	1	0	1	-5,708245	273,91432	313,476411	0
15.01.2021	22:35:34	0	0	3,502461	0,86175	301,5936	-0,041	87,589	0	1017,54	6,6	8,6	8,4	1	1	1	1	1	1	1	1	1	0	1	-9,161381	273,809665	309,535752	0
15.01.2021	22:35:35	0	0	3,50244	0,822	312,0984	-0,037	87,605	0	1017,52	6,6	8,6	8,5	1	1	1	1	1	1	1	1	1	0	1	-8,597604	273,872979	310,394406	0
15.01.2021	22:35:36	0	0	4,971234	0,8205	311,8176	-0,036	87,599	0	1017,64	6,6	8,6	8,4	1	1	1	1	1	1	1	1	1	0	1	-3,664553	273,781755	314,902659	0
15.01.2021	22:35:37	0	0	4,180356	0,77625	304,6536	-0,041	87,59	0	1017,52	6,6	8,6	8,4	1	1	1	1	1	1	1	1	1	0	1	-8,033827	273,884782	311,013174	0
15.01.2021	22:35:38	0	0	3,954391	0,73725	297,45	-0,039	87,608	0	1017,66	6,6	8,5	8,4	1	1	1	1	1	1	1	1	1	0	1	-6,906272	273,986879	312,616724	0
15.01.2021	22:35:39	0	0	4,519304	0,7545	297,5904	-0,04	87,611	0	1017,62	6,6	8,6	8,4	1	1	1	1	1	1	1	1	1	0	1	-7,117689	273,942422	312,197977	0
15.01.2021	22:35:40	0	0	2,37262	0,78075	303,9804	-0,036	87,608	0	1017,68	6,6	8,6	8,5	1	1	1	1	1	1	1	1	1	0	1	-8,033827	273,811135	310,67015	0
15.01.2021	22:35:41	0	0	3,163513	0,903	305,7768	-0,036	87,607	0	1017,48	6,6	8,7	8,4	1	1	1	1	1	1	1	1	1	0	1	-9,513742	273,847923	309,361548	0
15.01.2021	22:35:42	0	0	3,615443	0,99075	308,5128	-0,038	87,613	0	1017,66	6,6	8,6	8,4	1	1	1	1	1	1	1	1	1	0	1	-6,8358	273,808195	311,854489	0
15.01.2021	22:35:43	0	0	4,858252	0,98925	319,536	-0,045	87,605	0	1017,56	6,6	8,6	8,4	1	1	1	1	1	1	1	1	1	0	1	-4,862579	273,903976	314,273868	0
15.01.2021	22:35:44	0	0	2,937548	0,95025	318,276	-0,043	87,605	0	1017,56	6,6	8,6	8,4	1	1	1	1	1	1	1	1	1	0	1	-10,359408	273,972049	309,094413	0
15.01.2021	22:35:45	0	0	3,615443	0,94425	308,448	-0,04	87,61	0	1017,68	6,6	8,5	8,4	1	1	1	1	1	1	1	1	1	0	1	-8,033827	273,949825	311,316354	0
15.01.2021	22:35:46	0	0	4,067349	0,92925	307,2816	-0,039	87,621	0	1017,8	6,6	8,6	8,5	1	1	1	1	1	1	1	1	1	0	1	-8,80902	273,948344	310,534256	0
15.01.2021	22:35:47	0	0	2,824565	0,9435	308,826	-0,039	87,611	0	1017,74	6,6	8,6	8,4	1	1	1	1	1	1	1	1	1	0	1	-6,624383	273,983912	312,884772	0
15.01.2021	22:35:48	0	0	3,615443	0,95775	299,3544	-0,047	87,598	0	1017,58	6,6	8,6	8,4	1	1	1	1	1	1	1	1	1	0	1	-7,610994	273,84056	311,230002	0
15.01.2021	22:35:49	0	0	4,519277	0,948	299,412	-0,038	87,609	0	1017,58	6,6	8,7	8,5	1	1	1	1	1	1	1	1	1	0	1	-6,624383	273,948344	312,718893	0
15.01.2021	22:35:50	0	0	2,485617	0,90225	305,7156	-0,043	87,608	0	1017,5	6,6	8,7	8,4	1	1	1	1	1	1	1	1	1	0	1	-9,513742	273,977979	309,967741	0
15.01.2021	22:35:51	0	0	4,293339	0,9345	318,204	-0,039	87,606	0	1017,64	6,6	8,6	8,4	1	1	1	1	1	1	1	1	1	0	1	-11,980268	273,926147	307,259522	0
15.01.2021	22:35:52	0	0	2,824565	0,95025	312,0984	-0,037	87,61	0	1017,58	6,6	8,5	8,4	1	1	1	1	1	1	1	1	1	0	1	-5,567301	273,963156	313,845047	0
15.01.2021	22:35:53	0	0	4,745269	0,996	306,0324	-0,041	87,59	0	1017,38	6,6	8,6	8,4	1	1	1	1	1	1	1	1	1	0	1	-6,694856	273,940942	312,613909	0
15.01.2021	22:35:54	0	0	5,197168	1,03575	314,388	-0,037	87,621	0	1017,6	6,6	8,6	8,5	1	1	1	1	1	1	1	1	1	0	1	-7,329105	273,794971	311,29962	0
15.01.2021	22:35:55	0	0	3,728426	1,0065	310,2732	-0,038	87,615	0	1017,72	6,6	8,6	8,4	1	1	1	1	1	1	1	1	1	0	1	-9,725159	273,901022	309,397521	0
15.01.2021	22:35:56	0	0	4,745269	0,9795	309,3048	-0,041	87,601	0	1017,38	6,6	8,6	8,4	1	1	1	1	1	1	1	1	1	0	1	-6,342495	273,809665	312,354638	0
15.01.2021	22:35:57	0	0	4,971205	0,94275	320,6952	-0,04	87,612	0	1017,5	6,6	8,6	8,5	1	1	1	1	1	1	1	1	1	0	1	-9,44327	273,963156	309,969078	0
15.01.2021	22:35:58	0	0	4,293339	0,87975	330,9048	-0,044	87,613	0	1017,64	6,6	8,6	8,4	1	1	1	1	1	1	1	1	1	0	1	-7,117689	273,871505	311,86745	0
15.01.2021	22:35:59	0	0	4,180356	0,837	336,7656	-0,038	87,627	0	1017,62	6,6	8,6	8,4	1	1	1	1	1	1	1	1	1	0	1	-7,470049	273,983912	312,039106	0
15.01.2021	22:36:00	0	0	2,937548	0,8655	325,98	-0,039	87,61	0	1017,48	6,6	8,5	8,4	1	1	1	1	1	1	1	1	1	0	1	-5,990134	273,865607	312,967528	0
15.01.2021	22:36:01	0	0	3,389478	0,89325	321,8076	-0,038	87,622	0	1017,62	6,6	8,6	8,4	1	1	1	1	1	1	1	1	1	0	1	-11,768851	273,79644	306,866711	0
15.01.2021	22:36:02	0	0	4,067349	0,936	326,214	-0,046	87,609	0	1017,56	6,6	8,6	8,5	1	1	1	1	1	1	1	1	1	0	1	-7,047216	273,887734	312,013538	0
15.01.2021	22:36:03	0	0	3,502461	0,9075	321,0912	-0,042	87,599	0	1017,56	6,6	8,6	8,4	1	1	1	1	1	1	1	1	1	0	1	-5,426357	273,805256	313,250247	0
15.01.2021	22:36:04	0	0	3,050512	0,915	312,8328	-0,044	87,607	0	1017,54	6,6	8,6	8,5	1	1	1	1	1	1	1	1	1	0	1	-5,426357	273,895115	313,668794	0
15.01.2021	22:36:05	0	0	3,05053	0,90675	307,1988	-0,044	87,605	0	1017,54	6,6	8,6	8,4	1	1	1	1	1	1	1	1	1	0	1	-8,45666	273,979462	311,031741	0
15.01.2021	22:36:06	0	0	3,276495	0,9315	299,412	-0,048	87,593	0	1017,62	6,6	8,6	8,4	1	1	1	1	1	1	1	1	1	0	1	-8,315715	273,808195	310,374574	0
15.01.2021	22:36:07	0	0	4,858252	0,93375	302,8284	-0,04	87,61	0	1017,46	6,6	8,6	8,4	1	1	1	1	1	1	1	1	1	0	1	-1,691332	273,961674	317,714106	0
15.01.2021	22:36:08	0	0	4,745269	0,95925	319,14	-0,04	87,621	0	1017,48	6,6	8,6	8,4	1	1	1	1	1	1	1	1	1	0	1	-5,426357	273,980945	314,068962	0
15.01.2021	22:36:09	0	0	2,5986	0,9585	317,7072	-0,039	87,603	0	1017,52	6,5	8,6	8,4	1	1	1	1	1	1	1	1	1	0	1	-2,889359	273,917276	316,309077	0
15.01.2021	22:36:10	0	0	3,841408	0,933	309,2724	-0,036	87,63	0	1017,58	6,6	8,5	8,4	1	1	1	1	1	1	1	1	1	0	1	-2,396054	273,800847	316,260027	0
15.01.2021	22:36:11	0	0	3,276495	0,8895	310,6944	-0,042	87,61	0	1017,42	6,6	8,7	8,4	1	1	1	1	1	1	1	1	1	0	1	-4,087385	273,92319	315,138617	0
15.01.2021	22:36:12	0	0	4,293339	0,87	318,1104	-0,043	87,618	0	1017,5	6,6	8,6	8,4	1	1	1	1	1	1	1	1	1	0	1	-4,580691	273,794971	314,048034	0
15.01.2021	22:36:13	0	0	4,406321	0,79125	321,1272	-0,04	87,597	0	1017,64	6,6	8,5	8,4	1	1	1	1	1	1	1	1	1	0	1	-5,355884	273,929105	313,897695	0
15.01.2021	22:36:14	0	0	2,711582	0,76275	316,9872	-0,046	87,615	0	1017,56	6,6	8,6	8,4	1	1	1	1	1	1	1	1	1	0	1	-9,161381	273,831728	309,638482	0
15.01.2021	22:36:15	0	0	4,519304	0,71325	309,1212	-0,041	87,617	0	1017,42	6,6	8,6	8,4	1	1	1	1	1	1	1	1	1	0	1	-5,003524	273,797909	313,638878	0
15.01.2021	22:36:16	0	0	4,519277	0,735	309,9204	-0,045	87,614	0	1017,54	6,6	8,6	8,5	1	1	1	1	1	1	1	1	1	0	1	-6,20155	273,797909	312,440851	0
15.01.2021	22:36:17	0	0	3,728426	0,70125	314,0172	-0,044	87,615	0	1017,62	6,6	8,6	8,4	1	1	1	1	1	1	1	1	1	0	1	-8,245243	273,977979	311,23624	0
15.01.2021	22:36:18	0	0	2,711582	0,7305	309,9672	-0,041	87,626	0	1017,66	6,6	8,5	8,4	1	1	1	1	1	1	1	1	1	0	1	-4,016913	273,899545	315,098883	0
15.01.2021	22:36:19	0	0	2,937548	0,73425	314,0604	-0,038	87,614	0	1017,5	6,6	8,6	8,4	1	1	1	1	1	1	1	1	1	0	1	-4,22833	273,79644	314,407233	0
15.01.2021	22:36:20	0	0	3,276495	0,7665	320,7636	-0,04	87,615	0	1017,72	6,6	8,6	8,4	1	1	1	1	1	1	1	1	1	0	1	-6,906272	273,814076	311,811396	0
15.01.2021	22:36:21	0	0	2,5986	0,79725	313,722	-0,039	87,628	0	1017,52	6,6	8,6	8,4	1	1	1	1	1	1	1	1	1	0	1	-9,936575	273,979462	309,551826	0
15.01.2021	22:36:22	0	0	3,389478	0,7935	303,5232	-0,044	87,62	0	1017,44	6,6	8,6	8,4	1	1	1	1	1	1	1	1	1	0	1	-6,060606	273,856763	312,855858	0
15.01.2021	22:36:23	0	0	2,937548	0,78075	314,0604	-0,04	87,625	0	1017,6	6,6	8,5	8,4	1	1	1	1	1	1	1	1	1	0	1	-6,342495	273,855289	312,567106	0
15.01.2021	22:36:24	0	0	5,084217	0,771	331,1568	-0,041	87,595	0	1017,52	6,6	8,6	8,4	1	1	1	1	1	1	1	1	1	0	1	-5,144468	273,955749	314,233336	0
15.01.2021	22:36:25	0	0	4,180356	0,7485	334,6524	-0,04	87,618	0	1017,68	6,6	8,6	8,4	1	1	1	1	1	1	1	1	1	0	1	-4,862579	273,895115	314,232571	0
15.01.2021	22:36:26	0	0	3,841408	0,74175	323,7192	-0,037	87,626	0	1017,8	6,6	8,6	8,4	1	1	1	1	1	1	1	1	1	0	1	-8,668076	273,977979	310,813407	0
15.01.2021	22:36:27	0	0	3,728426	0,729	319,5504	-0,041	87,632	0	1017,58	6,6	8,6	8,4	1	1	1	1	1	1	1	1	1	0	1	-2,466526	273,920233	316,745692	0
15.01.2021	22:36:28	0	0	4,632259	0,70125	321,8004	-0,045	87,623	0	1017,62	6,6	8,6	8,5	1	1	1	1	1	1	1	1	1	0	1	-4,792107	273,976497	314,68246	0
15.01.2021	22:36:29	0	0	3,389478	0,7485	318,4704	-0,043	87,619	0	1017,54	6,6	8,6	8,4	1	1	1	1	1	1	1	1	1	0	1	-4,862579	273,837616	313,964703	0
15.01.2021	22:36:30	0	0	3,841408	0,774	316,2888	-0,039	87,618	0	1017,62	6,6	8,6	8,4	1	1	1	1	1	1	1	1	1	0	1	-5,990134	273,811135	312,713843	0
15.01.2021	22:36:31	0	0	3,728403	0,831	317,3904	-0,041	87,619	0	1017,58	6,6	8,5	8,5	1	1	1	1	1	1	1	1	1	0	1	-5,919662	273,817017	312,811699	0
15.01.2021	22:36:32	0	0	5,084186	0,834	316,638	-0,038	87,628	0	1017,38	6,6	8,5	8,5	1	1	1	1	1	1	1	1	1	0	1	-6,20155	273,858237	312,721779	0
15.01.2021	22:36:33	0	0	2,033687	0,93975	311,8248	-0,036	87,62	0	1017,4	6,6	8,6	8,4	1	1	1	1	1	1	1	1	1	0	1	-6,553911	273,799378	312,095329	0
15.01.2021	22:36:34	0	0	2,711582	1,029	314,4348	-0,043	87,612	0	1017,54	6,6	8,6	8,4	1	1	1	1	1	1	1	1	1	0	1	-5,073996	273,877405	313,938631	0
15.01.2021	22:36:35	0	0	2,485617	1,04175	316,9656	-0,038	87,612	0	1017,5	6,6	8,6	8,4	1	1	1	1	1	1	1	1	1	0	1	-7,540521	273,985395	311,975554	0
15.01.2021	22:36:36	0	0	4,745269	1,0695	314,3592	-0,035	87,622	0	1017,68	6,6	8,5	8,4	1	1	1	1	1	1	1	1	1	0	1	-8,104299	273,920233	311,107919	0
15.01.2021	22:36:37	0	0	2,824565	1,0485	318,1428	-0,04	87,639	0	1017,46	6,6	8,6	8,4	1	1	1	1	1	1	1	1	1	0	1	-6,060606	273,986879	313,46239	0
15.01.2021	22:36:38	0	0	4,180356	1,056	310,608	-0,034	87,623	0	1017,6	6,6	8,6	8,4	1	1	1	1	1	1	1	1	1	0	1	-5,919662	273,901022	313,203018	0
15.01.2021	22:36:39	0	0	2,372635	1,0215	306,8496	-0,044	87,612	0	1017,6	6,6	8,6	8,4	1	1	1	1	1	1	1	1	1	0	1	-5,84919	273,969084	313,590805	0
15.01.2021	22:36:40	0	0	3,05053	1,02075	302,8284	-0,045	87,611	0	1017,4	6,6	8,6	8,4	1	1	1	1	1	1	1	1	1	0	1	-7,188161	273,836144	311,632266	0
15.01.2021	22:36:41	0	0	4,858223	1,0005	305,7444	-0,037	87,631	0	1017,68	6,6	8,6	8,5	1	1	1	1	1	1	1	1	1	0	1	-7,540521	273,812606	311,170301	0
15.01.2021	22:36:42	0	0	4,858252	0,96525	302,7924	-0,036	87,625	0	1017,48	6,6	8,5	8,4	1	1	1	1	1	1	1	1	1	0	1	-2,889359	273,972049	316,564463	0
15.01.2021	22:36:43	0	0	3,502461	1,0035	300,0852	-0,036	87,636	0	1017,56	6,6	8,6	8,4	1	1	1	1	1	1	1	1	1	0	1	-10,288936	273,877405	308,723691	0
15.01.2021	22:36:44	0	0	4,519304	1,05075	298,9044	-0,031	87,634	0	1017,64	6,6	8,6	8,4	1	1	1	1	1	1	1	1	1	0	1	-6,272023	273,988363	313,257894	0
15.01.2021	22:36:45	0	0	3,163513	1,07625	300,4524	-0,036	87,636	0	1017,56	6,6	8,6	8,4	1	1	1	1	1	1	1	1	1	0	1	-9,372798	273,849396	309,509353	0
15.01.2021	22:36:46	0	0	4,519304	1,1175	308,808	-0,039	87,605	0	1017,52	6,6	8,6	8,4	1	1	1	1	1	1	1	1	1	0	1	-8,597604	273,982429	310,904633	0
15.01.2021	22:36:47	0	0	4,067374	1,13475	305,1036	-0,04	87,619	0	1017,56	6,6	8,6	8,4	1	1	1	1	1	1	1	1	1	0	1	-3,664553	273,893638	315,423718	0
15.01.2021	22:36:48	0	0	2,711566	1,0845	297,9072	-0,043	87,618	0	1017,48	6,6	8,6	8,5	1	1	1	1	1	1	1	1	1	0	1	-3,946441	273,78616	314,641269	0
15.01.2021	22:36:49	0	0	4,406321	1,0905	295,5636	-0,036	87,636	0	1017,56	6,6	8,6	8,4	1	1	1	1	1	1	1	1	1	0	1	-8,386187	273,917276	310,812248	0
15.01.2021	22:36:50	0	0	2,5986	1,1025	297,2664	-0,042	87,637	0	1017,64	6,6	8,6	8,4	1	1	1	1	1	1	1	1	1	0	1	-9,866103	273,983912	309,643053	0
15.01.2021	22:36:51	0	0	4,745269	1,0665	298,6884	-0,038	87,627	0	1017,58	6,6	8,6	8,4	1	1	1	1	1	1	1	1	1	0	1	-5,990134	273,852343	312,90574	0
15.01.2021	22:36:52	0	0	4,858252	1,08225	294,4656	-0,035	87,641	0	1017,34	6,6	8,6	8,4	1	1	1	1	1	1	1	1	1	0	1	-6,342495	273,969084	313,0975	0
15.01.2021	22:36:53	0	0	2,711566	1,077	297,2448	-0,036	87,632	0	1017,72	6,6	8,6	8,5	1	1	1	1	1	1	1	1	1	0	1	-2,325581	273,927626	316,921103	0
15.01.2021	22:36:54	0	0	3,276495	1,05375	309,9168	-0,034	87,619	0	1017,62	6,6	8,6	8,4	1	1	1	1	1	1	1	1	1	0	1	-2,677942	273,975014	316,789709	0
15.01.2021	22:36:55	0	0	3,276495	1,00275	316,2996	-0,038	87,614	0	1017,52	6,6	8,5	8,4	1	1	1	1	1	1	1	1	1	0	1	-6,906272	273,821429	311,845633	0
15.01.2021	22:36:56	0	0	4,293313	0,942	318,1788	-0,038	87,622	0	1017,54	6,6	8,6	8,5	1	1	1	1	1	1	1	1	1	0	1	-2,325581	273,834672	316,48799	0
15.01.2021	22:36:57	0	0	4,293339	0,88725	308,1168	-0,04	87,616	0	1017,52	6,6	8,6	8,4	1	1	1	1	1	1	1	1	1	0	1	-8,45666	273,802317	310,206261	0
15.01.2021	22:36:58	0	0	4,745269	0,8775	312,8328	-0,035	87,632	0	1017,56	6,6	8,6	8,4	1	1	1	1	1	1	1	1	1	0	1	-7,258633	273,980945	312,236685	0
15.01.2021	22:36:59	0	0	4,858252	0,89025	319,9392	-0,042	87,616	0	1017,6	6,6	8,6	8,4	1	1	1	1	1	1	1	1	1	0	1	-7,610994	273,862658	311,332933	0
15.01.2021	22:37:00	0	0	3,615443	0,93525	307,6164	-0,035	87,631	0	1017,52	6,6	8,6	8,4	1	1	1	1	1	1	1	1	1	0	1	-8,80902	273,96612	310,617149	0
15.01.2021	22:37:01	0	0	4,745241	0,94275	304,6032	-0,035	87,639	0	1017,62	6,6	8,6	8,5	1	1	1	1	1	1	1	1	1	0	1	-5,496829	273,902499	313,632734	0
15.01.2021	22:37:02	0	0	2,372635	0,9165	309,5316	-0,039	87,616	0	1017,36	6,6	8,6	8,4	1	1	1	1	1	1	1	1	1	0	1	-6,483439	273,792033	312,131612	0
15.01.2021	22:37:03	0	0	3,276495	0,89025	315,2088	-0,036	87,618	0	1017,56	6,6	8,6	8,4	1	1	1	1	1	1	1	1	1	0	1	-10,359408	273,881831	308,673841	0
15.01.2021	22:37:04	0	0	4,519304	0,83025	314,5788	-0,038	87,612	0	1017,68	6,6	8,6	8,4	1	1	1	1	1	1	1	1	1	0	1	-2,889359	273,794971	315,739366	0
15.01.2021	22:37:05	0	0	4,293339	0,79875	301,2264	-0,034	87,624	0	1017,56	6,6	8,7	8,4	1	1	1	1	1	1	1	1	1	0	1	-8,033827	273,853816	310,86891	0
15.01.2021	22:37:06	0	0	2,711582	0,7695	304,668	-0,034	87,644	0	1017,72	6,6	8,6	8,4	1	1	1	1	1	1	1	1	1	0	1	-7,82241	273,78616	310,7653	0
15.01.2021	22:37:07	0	0	2,5986	0,74625	315,8892	-0,034	87,633	0	1017,76	6,6	8,6	8,4	1	1	1	1	1	1	1	1	1	0	1	-8,668076	273,853816	310,234661	0
15.01.2021	22:37:08	0	0	2,824565	0,723	322,6176	-0,037	87,623	0	1017,56	6,5	8,6	8,4	1	1	1	1	1	1	1	1	1	0	1	-7,610994	273,793502	311,010894	0
15.01.2021	22:37:09	0	0	3,728426	0,753	317,7108	-0,033	87,63	0	1017,52	6,6	8,6	8,4	1	1	1	1	1	1	1	1	1	0	1	-8,033827	273,856763	310,882638	0
15.01.2021	22:37:10	0	0	3,728426	0,783	307,1808	-0,039	87,622	0	1017,52	6,6	8,6	8,4	1	1	1	1	1	1	1	1	1	0	1	-2,466526	273,803786	316,203236	0
15.01.2021	22:37:11	0	0	4,406321	0,75975	312,5196	-0,038	87,612	0	1017,54	6,6	8,6	8,4	1	1	1	1	1	1	1	1	1	0	1	-7,82241	273,903976	311,314037	0
15.01.2021	22:37:12	0	0	4,519277	0,7485	318,1068	-0,036	87,626	0	1017,54	6,6	8,6	8,5	1	1	1	1	1	1	1	1	1	0	1	-4,862579	273,980945	314,632739	0
15.01.2021	22:37:13	0	0	2,711582	0,73125	322,2216	-0,038	87,629	0	1017,62	6,6	8,6	8,4	1	1	1	1	1	1	1	1	1	0	1	-8,315715	273,884782	310,731285	0
15.01.2021	22:37:14	0	0	5,1972	0,68325	323,352	-0,038	87,611	0	1017,44	6,6	8,6	8,4	1	1	1	1	1	1	1	1	1	0	1	-5,637773	273,78616	312,949937	0
15.01.2021	22:37:15	0	0	4,293339	0,68025	321,0732	-0,033	87,637	0	1017,66	6,6	8,6	8,4	1	1	1	1	1	1	1	1	1	0	1	-4,087385	273,935023	315,193782	0
15.01.2021	22:37:16	0	0	2,033687	0,67725	318,4488	-0,038	87,627	0	1017,56	6,6	8,6	8,4	1	1	1	1	1	1	1	1	1	0	1	-6,060606	273,972049	313,393215	0
15.01.2021	22:37:17	0	0	3,05053	0,61575	315,2124	-0,037	87,616	0	1017,68	6,6	8,6	8,4	1	1	1	1	1	1	1	1	1	0	1	-5,778717	273,839088	313,055421	0
15.01.2021	22:37:18	0	0	2,5986	0,62475	317,7576	-0,038	87,635	0	1017,46	6,6	8,6	8,4	1	1	1	1	1	1	1	1	1	0	1	-10,218464	273,985395	309,297612	0
15.01.2021	22:37:19	0	0	3,954367	0,6135	323,3088	-0,035	87,631	0	1017,7	6,7	8,6	8,5	1	1	1	1	1	1	1	1	1	0	1	-6,976744	273,830256	311,816266	0
15.01.2021	22:37:20	0	0	4,067374	0,5835	325,2348	-0,032	87,644	0	1017,56	6,6	8,6	8,4	1	1	1	1	1	1	1	1	1	0	1	-7,963354	273,926147	311,276435	0
15.01.2021	22:37:21	0	0	3,615443	0,58875	323,0064	-0,039	87,621	0	1017,6	6,6	8,6	8,4	1	1	1	1	1	1	1	1	1	0	1	-1,268499	273,78616	317,319211	0
15.01.2021	22:37:22	0	0	4,406321	0,55275	315,882	-0,038	87,639	0	1017,68	6,6	8,6	8,4	1	1	1	1	1	1	1	1	1	0	1	-2,889359	273,920233	316,322859	0
15.01.2021	22:37:23	0	0	3,163513	0,552	317,0196	-0,037	87,632	0	1017,56	6,6	8,6	8,4	1	1	1	1	1	1	1	1	1	0	1	-5,990134	273,792033	312,624917	0
15.01.2021	22:37:24	0	0	4,632287	0,5835	324,0828	-0,036	87,637	0	1017,58	6,6	8,6	8,4	1	1	1	1	1	1	1	1	1	0	1	-6,20155	273,930585	313,058925	0
15.01.2021	22:37:25	0	0	3,841408	0,624	321,4944	-0,037	87,632	0	1017,56	6,6	8,6	8,4	1	1	1	1	1	1	1	1	1	0	1	-7,329105	273,819958	311,415951	0
15.01.2021	22:37:26	0	0	4,745269	0,6945	315,8928	-0,033	87,635	0	1017,54	6,6	8,6	8,4	1	1	1	1	1	1	1	1	1	0	1	-4,721635	273,970566	314,725273	0
15.01.2021	22:37:27	0	0	3,954391	0,73875	311,4108	-0,038	87,628	0	1017,76	6,6	8,6	8,4	1	1	1	1	1	1	1	1	1	0	1	-5,990134	273,849396	312,892017	0
15.01.2021	22:37:28	0	0	4,519304	0,73125	315,2196	-0,038	87,632	0	1017,68	6,6	8,6	8,4	1	1	1	1	1	1	1	1	1	0	1	-5,919662	273,805256	312,756942	0
15.01.2021	22:37:29	0	0	3,728426	0,77475	313,2144	-0,037	87,637	0	1017,5	6,6	8,6	8,4	1	1	1	1	1	1	1	1	1	0	1	-8,245243	273,967602	311,187839	0
15.01.2021	22:37:30	0	0	4,632287	0,7905	301,6476	-0,037	87,621	0	1017,64	6,6	8,6	8,4	1	1	1	1	1	1	1	1	1	0	1	-3,735025	273,915798	315,456521	0
15.01.2021	22:37:31	0	0	2,711582	0,75825	299,0664	-0,036	87,635	0	1017,66	6,6	8,6	8,4	1	1	1	1	1	1	1	1	1	0	1	-9,866103	273,977979	309,615381	0
15.01.2021	22:37:32	0	0	4,293339	0,75975	300,1068	-0,037	87,612	0	1017,48	6,6	8,6	8,4	1	1	1	1	1	1	1	1	1	0	1	-7,258633	273,92319	311,96737	0
15.01.2021	22:37:33	0	0	4,067374	0,744	294,0948	-0,039	87,622	0	1017,48	6,6	8,6	8,4	1	1	1	1	1	1	1	1	1	0	1	-9,302326	273,960193	310,096203	0
15.01.2021	22:37:34	0	0	4,293339	0,678	294,0768	-0,032	87,634	0	1017,56	6,6	8,5	8,4	1	1	1	1	1	1	1	1	1	0	1	-9,866103	273,895115	309,229048	0
15.01.2021	22:37:35	0	0	4,632287	0,68175	288,4608	-0,037	87,635	0	1017,58	6,6	8,6	8,4	1	1	1	1	1	1	1	1	1	0	1	-10,077519	273,967602	309,355562	0
15.01.2021	22:37:36	0	0	4,293339	0,708	279,9144	-0,041	87,626	0	1017,6	6,6	8,6	8,4	1	1	1	1	1	1	1	1	1	0	1	-4,157858	273,800847	314,498223	0
15.01.2021	22:37:37	0	0	2,937548	0,76875	279,162	-0,036	87,631	0	1017,72	6,6	8,7	8,4	1	1	1	1	1	1	1	1	1	0	1	-5,708245	273,903976	313,428202	0
15.01.2021	22:37:38	0	0	4,745241	0,78	299,7936	-0,043	87,625	0	1017,38	6,6	8,6	8,5	1	1	1	1	1	1	1	1	1	0	1	-4,862579	273,976497	314,611988	0
15.01.2021	22:37:39	0	0	2,824565	0,81525	318,8268	-0,037	87,614	0	1017,54	6,6	8,6	8,4	1	1	1	1	1	1	1	1	1	0	1	-7,751938	273,868555	311,219461	0
15.01.2021	22:37:40	0	0	4,858252	0,83475	311,7852	-0,039	87,631	0	1017,58	6,6	8,6	8,4	1	1	1	1	1	1	1	1	1	0	1	-4,087385	273,789096	314,513994	0
15.01.2021	22:37:41	0	0	4,293339	0,813	288,8496	-0,036	87,621	0	1017,58	6,6	8,6	8,4	1	1	1	1	1	1	1	1	1	0	1	-5,426357	273,87888	313,593143	0
15.01.2021	22:37:42	0	0	4,293313	0,8685	290,754	-0,031	87,628	0	1017,48	6,6	8,6	8,5	1	1	1	1	1	1	1	1	1	0	1	-9,302326	273,970566	310,144582	0
15.01.2021	22:37:43	0	0	3,954391	0,85125	308,4372	-0,036	87,64	0	1017,6	6,6	8,6	8,4	1	1	1	1	1	1	1	1	1	0	1	-1,62086	273,875929	317,384894	0
15.01.2021	22:37:44	0	0	3,163513	0,822	311,112	-0,034	87,621	0	1017,64	6,6	8,6	8,4	1	1	1	1	1	1	1	1	1	0	1	-5,144468	273,794971	313,484257	0
15.01.2021	22:37:45	0	0	3,163513	0,7455	305,7192	-0,031	87,627	0	1017,68	6,6	8,6	8,4	1	1	1	1	1	1	1	1	1	0	1	-9,302326	273,884782	309,744675	0
15.01.2021	22:37:46	0	0	2,711582	0,69	307,2708	-0,033	87,626	0	1017,54	6,6	8,6	8,4	1	1	1	1	1	1	1	1	1	0	1	-10,852713	273,781755	307,714498	0
15.01.2021	22:37:47	0	0	3,615443	0,65325	306,7776	-0,041	87,611	0	1017,52	6,6	8,6	8,4	1	1	1	1	1	1	1	1	1	0	1	-10,077519	273,912842	309,100248	0
15.01.2021	22:37:48	0	0	4,406321	0,6315	302,4036	-0,039	87,629	0	1017,48	6,6	8,6	8,4	1	1	1	1	1	1	1	1	1	0	1	-9,231853	273,970566	310,215054	0
15.01.2021	22:37:49	0	0	5,423165	0,57825	297,2268	-0,038	87,622	0	1017,42	6,6	8,6	8,4	1	1	1	1	1	1	1	1	1	0	1	-3,523608	273,935023	315,757559	0
15.01.2021	22:37:50	0	0	4,293339	0,54975	297,576	-0,036	87,633	0	1017,5	6,6	8,6	8,4	1	1	1	1	1	1	1	1	1	0	1	-4,298802	273,787628	314,295743	0
15.01.2021	22:37:51	0	0	2,485617	0,564	303,4512	-0,036	87,605	0	1017,5	6,6	8,6	8,4	1	1	1	1	1	1	1	1	1	0	1	-6,20155	273,850869	312,687462	0
15.01.2021	22:37:52	0	0	2,5986	0,564	308,4768	-0,031	87,626	0	1017,48	6,6	8,5	8,4	1	1	1	1	1	1	1	1	1	0	1	-7,892882	273,843505	310,961829	0
15.01.2021	22:37:53	0	0	3,276495	0,5625	306,8676	-0,039	87,625	0	1017,48	6,6	8,6	8,4	1	1	1	1	1	1	1	1	1	0	1	-7,117689	273,958711	312,273931	0
15.01.2021	22:37:54	0	0	2,824565	0,5505	301,6008	-0,042	87,628	0	1017,54	6,6	8,6	8,4	1	1	1	1	1	1	1	1	1	0	1	-4,016913	273,903976	315,119534	0
15.01.2021	22:37:55	0	0	2,485617	0,56325	295,6464	-0,033	87,63	0	1017,56	6,6	8,6	8,4	1	1	1	1	1	1	1	1	1	0	1	-5,990134	273,793502	312,631754	0
15.01.2021	22:37:56	0	0	4,632287	0,5745	291,1752	-0,041	87,606	0	1017,58	6,6	8,6	8,4	1	1	1	1	1	1	1	1	1	0	1	-5,21494	273,839088	313,619199	0
15.01.2021	22:37:57	0	0	4,971234	0,57375	298,5732	-0,028	87,619	0	1017,56	6,6	8,6	8,4	1	1	1	1	1	1	1	1	1	0	1	-4,298802	273,963156	315,113546	0
15.01.2021	22:37:58	0	0	3,954391	0,609	304,254	-0,032	87,613	0	1017,56	6,6	8,6	8,4	1	1	1	1	1	1	1	1	1	0	1	-5,567301	273,84056	313,273695	0
15.01.2021	22:37:59	0	0	2,824565	0,6135	303,8868	-0,033	87,624	0	1017,56	6,6	8,6	8,4	1	1	1	1	1	1	1	1	1	0	1	-10,993658	273,77882	307,559891	0
15.01.2021	22:38:00	0	0	2,937548	0,591	301,5216	-0,035	87,62	0	1017,66	6,6	8,6	8,4	1	1	1	1	1	1	1	1	1	0	1	-4,087385	273,892162	314,994005	0
15.01.2021	22:38:01	0	0	3,05053	0,6	303,174	-0,029	87,63	0	1017,56	6,6	8,6	8,4	1	1	1	1	1	1	1	1	1	0	1	-7,258633	273,96612	312,167537	0
15.01.2021	22:38:02	0	0	3,615443	0,5565	308,1276	-0,034	87,627	0	1017,42	6,6	8,6	8,4	1	1	1	1	1	1	1	1	1	0	1	-6,765328	273,821429	311,986577	0
15.01.2021	22:38:03	0	0	3,615443	0,52125	310,3164	-0,038	87,62	0	1017,56	6,6	8,6	8,4	1	1	1	1	1	1	1	1	1	0	1	-5,21494	273,77295	313,311291	0
15.01.2021	22:38:04	0	0	3,728426	0,5325	312,7176	-0,033	87,62	0	1017,8	6,6	8,6	8,4	1	1	1	1	1	1	1	1	1	0	1	-2,748414	273,886258	316,305463	0
15.01.2021	22:38:05	0	0	4,406321	0,53925	312,8832	-0,037	87,606	0	1017,5	6,6	8,6	8,4	1	1	1	1	1	1	1	1	1	0	1	-5,144468	273,768549	313,361282	0
15.01.2021	22:38:06	0	0	4,858252	0,56475	310,3704	-0,028	87,621	0	1017,48	6,6	8,6	8,4	1	1	1	1	1	1	1	1	1	0	1	-7,892882	273,880355	311,133492	0
15.01.2021	22:38:07	0	0	3,502461	0,53775	308,7612	-0,037	87,616	0	1017,56	6,6	8,6	8,4	1	1	1	1	1	1	1	1	1	0	1	-2,818887	273,800847	315,837194	0
15.01.2021	22:38:08	0	0	4,745269	0,582	311,4108	-0,034	87,605	0	1017,32	6,6	8,6	8,4	1	1	1	1	1	1	1	1	1	0	1	-2,60747	273,896591	316,494562	0
15.01.2021	22:38:09	0	0	3,841408	0,57375	316,9368	-0,03	87,624	0	1017,72	6,6	8,6	8,4	1	1	1	1	1	1	1	1	1	0	1	-6,342495	273,975014	313,125156	0
15.01.2021	22:38:10	0	0	3,05053	0,588	321,8544	-0,036	87,609	0	1017,6	6,6	8,5	8,4	1	1	1	1	1	1	1	1	1	0	1	-1,550388	273,868555	317,421011	0
15.01.2021	22:38:11	0	0	3,389478	0,59175	325,5696	-0,03	87,627	0	1017,54	6,6	8,6	8,4	1	1	1	1	1	1	1	1	1	0	1	-8,45666	273,77882	310,096889	0
15.01.2021	22:38:12	0	0	4,858252	0,6315	332,7984	-0,032	87,622	0	1017,46	6,6	8,6	8,4	1	1	1	1	1	1	1	1	1	0	1	-7,117689	273,877405	311,894938	0
15.01.2021	22:38:13	0	0	4,180331	0,642	328,9536	-0,029	87,622	0	1017,56	6,6	8,6	8,5	1	1	1	1	1	1	1	1	1	0	1	-5,778717	273,951305	313,578368	0
15.01.2021	22:38:14	0	0	2,937548	0,7095	329,9976	-0,034	87,628	0	1017,64	6,6	8,6	8,4	1	1	1	1	1	1	1	1	1	0	1	-4,933051	273,84056	313,907944	0
15.01.2021	22:38:15	0	0	4,745269	0,756	330,2748	-0,041	87,604	0	1017,48	6,6	8,6	8,4	1	1	1	1	1	1	1	1	1	0	1	-5,84919	273,783223	312,724854	0
15.01.2021	22:38:16	0	0	3,841408	0,765	327,0996	-0,038	87,625	0	1017,54	6,6	8,6	8,4	1	1	1	1	1	1	1	1	1	0	1	-7,82241	273,865607	311,135251	0
15.01.2021	22:38:17	0	0	4,180331	0,7755	331,4196	-0,036	87,626	0	1017,62	6,6	8,6	8,5	1	1	1	1	1	1	1	1	1	0	1	-4,369274	273,963156	315,043074	0
15.01.2021	22:38:18	0	0	4,067374	0,79875	335,2896	-0,034	87,615	0	1017,62	6,6	8,6	8,4	1	1	1	1	1	1	1	1	1	0	1	-6,765328	273,800847	311,890753	0
15.01.2021	22:38:19	0	0	3,502461	0,82575	331,9632	-0,038	87,617	0	1017,74	6,6	8,6	8,4	1	1	1	1	1	1	1	1	1	0	1	-6,20155	273,909886	312,962441	0
15.01.2021	22:38:20	0	0	4,632287	0,88125	328,5684	-0,03	87,616	0	1017,56	6,6	8,6	8,4	1	1	1	1	1	1	1	1	1	0	1	-7,117689	273,967602	312,315393	0
15.01.2021	22:38:21	0	0	5,084217	0,88425	323,6976	-0,035	87,628	0	1017,68	6,6	8,6	8,4	1	1	1	1	1	1	1	1	1	0	1	-9,936575	273,839088	308,897564	0
15.01.2021	22:38:22	0	0	3,954391	0,83325	338,6556	-0,036	87,605	0	1017,5	6,6	8,6	8,4	1	1	1	1	1	1	1	1	1	0	1	-4,792107	273,963156	314,620241	0
15.01.2021	22:38:23	0	0	3,389458	0,78825	356,9436	-0,033	87,623	0	1017,5	6,6	8,6	8,5	1	1	1	1	1	1	1	1	1	0	1	-4,439746	273,836144	314,380681	0
15.01.2021	22:38:24	0	0	4,745269	0,75975	357,3036	-0,022	87,625	0	1017,6	6,6	8,6	8,4	1	1	1	1	1	1	1	1	1	0	1	-4,721635	273,78616	313,866075	0
15.01.2021	22:38:25	0	0	3,615443	0,71625	344,7864	-0,035	87,602	0	1017,48	6,6	8,6	8,4	1	1	1	1	1	1	1	1	1	0	1	-7,82241	273,912842	311,355357	0
15.01.2021	22:38:26	0	0	2,5986	0,65475	326,358	-0,029	87,631	0	1017,58	6,6	8,6	8,4	1	1	1	1	1	1	1	1	1	0	1	-10,007047	273,781755	308,560164	0
15.01.2021	22:38:27	0	0	4,971234	0,60375	313,668	-0,037	87,617	0	1017,58	6,6	8,6	8,4	1	1	1	1	1	1	1	1	1	0	1	-8,033827	273,850869	310,855186	0
15.01.2021	22:38:28	0	0	3,276495	0,54375	306,1476	-0,039	87,599	0	1017,62	6,6	8,6	8,4	1	1	1	1	1	1	1	1	1	0	1	-4,22833	273,954267	315,142567	0
15.01.2021	22:38:29	0	0	4,971234	0,53925	297,9684	-0,031	87,617	0	1017,5	6,6	8,6	8,4	1	1	1	1	1	1	1	1	1	0	1	-10,641297	273,935023	308,63987	0
15.01.2021	22:38:30	0	0	5,084217	0,51675	294,4224	-0,037	87,607	0	1017,54	6,6	8,6	8,4	1	1	1	1	1	1	1	1	1	0	1	-4,157858	273,799378	314,491383	0
15.01.2021	22:38:31	0	0	2,5986	0,46425	296,514	-0,034	87,617	0	1017,6	6,7	8,6	8,4	1	1	1	1	1	1	1	1	1	0	1	-9,020437	273,95723	310,364274	0
15.01.2021	22:38:32	0	0	3,841408	0,384	304,2972	-0,035	87,615	0	1017,6	6,5	8,6	8,4	1	1	1	1	1	1	1	1	1	0	1	-3,875969	273,871505	315,10917	0
15.01.2021	22:38:33	0	0	2,824565	0,3975	308,0952	-0,029	87,631	0	1017,66	6,6	8,6	8,4	1	1	1	1	1	1	1	1	1	0	1	-7,82241	273,954267	311,548487	0
15.01.2021	22:38:34	0	0	2,5986	0,3675	304,9884	-0,033	87,626	0	1017,68	6,6	8,6	8,4	1	1	1	1	1	1	1	1	1	0	1	-7,470049	273,855289	311,439551	0
15.01.2021	22:38:35	0	0	3,163513	0,38925	302,0904	-0,033	87,62	0	1017,64	6,6	8,6	8,4	1	1	1	1	1	1	1	1	1	0	1	-5,144468	273,899545	313,971328	0
15.01.2021	22:38:36	0	0	2,372635	0,423	302,4972	-0,033	87,606	0	1017,46	6,6	8,6	8,4	1	1	1	1	1	1	1	1	1	0	1	-5,567301	273,797909	313,0751	0
15.01.2021	22:38:37	0	0	2,824565	0,4665	301,6728	-0,032	87,605	0	1017,66	6,6	8,6	8,4	1	1	1	1	1	1	1	1	1	0	1	-7,047216	273,912842	312,130551	0
15.01.2021	22:38:38	0	0	5,084217	0,47025	300,2256	-0,037	87,606	0	1017,48	6,6	8,6	8,4	1	1	1	1	1	1	1	1	1	0	1	-8,174771	273,770016	310,337805	0
15.01.2021	22:38:39	0	0	4,745269	0,4905	294,1164	-0,033	87,61	0	1017,56	6,6	8,6	8,4	1	1	1	1	1	1	1	1	1	0	1	-11,346018	273,849396	307,536133	0
15.01.2021	22:38:40	0	0	2,937548	0,50775	282,4416	-0,03	87,629	0	1017,64	6,6	8,6	8,4	1	1	1	1	1	1	1	1	1	0	1	-5,990134	273,952786	313,373857	0
15.01.2021	22:38:41	0	0	5,084217	0,5505	274,3596	-0,032	87,607	0	1017,34	6,6	8,6	8,4	1	1	1	1	1	1	1	1	1	0	1	-5,567301	273,849396	313,31485	0
15.01.2021	22:38:42	0	0	4,067374	0,576	277,2252	-0,029	87,601	0	1017,44	6,6	8,6	8,4	1	1	1	1	1	1	1	1	1	0	1	-6,553911	273,945383	312,775559	0
15.01.2021	22:38:43	0	0	3,163513	0,60075	291,4992	-0,033	87,619	0	1017,6	6,6	8,6	8,4	1	1	1	1	1	1	1	1	1	0	1	-4,933051	273,805256	313,743552	0
15.01.2021	22:38:44	0	0	3,615443	0,68475	297,324	-0,031	87,602	0	1017,64	6,6	8,6	8,4	1	1	1	1	1	1	1	1	1	0	1	-0,775194	273,952786	318,588797	0
15.01.2021	22:38:45	0	0	3,615443	0,75225	285,9156	-0,029	87,618	0	1017,54	6,6	8,6	8,4	1	1	1	1	1	1	1	1	1	0	1	-5,21494	273,805256	313,461664	0
15.01.2021	22:38:46	0	0	5,1972	0,78525	276,8868	-0,031	87,621	0	1017,7	6,6	8,6	8,4	1	1	1	1	1	1	1	1	1	0	1	-4,651163	273,839088	314,182976	0
15.01.2021	22:38:47	0	0	3,841408	0,8055	284,1012	-0,032	87,621	0	1017,44	6,6	8,6	8,4	1	1	1	1	1	1	1	1	1	0	1	-5,285412	273,952786	314,078579	0
15.01.2021	22:38:48	0	0	4,406321	0,82875	290,826	-0,03	87,616	0	1017,52	6,6	8,6	8,4	1	1	1	1	1	1	1	1	1	0	1	-9,302326	273,912842	309,875441	0
15.01.2021	22:38:49	0	0	4,858252	0,8145	288,8424	-0,035	87,618	0	1017,56	6,6	8,6	8,4	1	1	1	1	1	1	1	1	1	0	1	-2,396054	273,969084	317,043941	0
15.01.2021	22:38:50	0	0	4,519304	0,7965	291,8664	-0,032	87,619	0	1017,52	6,5	8,6	8,4	1	1	1	1	1	1	1	1	1	0	1	-3,664553	273,903976	315,471895	0
15.01.2021	22:38:51	0	0	4,406321	0,84075	289,5372	-0,029	87,631	0	1017,62	6,6	8,6	8,4	1	1	1	1	1	1	1	1	1	0	1	-5,144468	273,790565	313,463747	0
15.01.2021	22:38:52	0	0	2,824565	0,85125	275,8428	-0,035	87,62	0	1017,64	6,6	8,6	8,4	1	1	1	1	1	1	1	1	1	0	1	-9,936575	273,883306	309,103549	0
15.01.2021	22:38:53	0	0	3,05053	0,843	284,5296	-0,029	87,62	0	1017,58	6,6	8,6	8,4	1	1	1	1	1	1	1	1	1	0	1	-5,84919	273,775885	312,690699	0
15.01.2021	22:38:54	0	0	3,841408	0,852	297,6552	-0,033	87,613	0	1017,58	6,6	8,6	8,4	1	1	1	1	1	1	1	1	1	0	1	-4,087385	273,802317	314,575535	0
15.01.2021	22:38:55	0	0	3,05053	0,87825	286,6644	-0,031	87,615	0	1017,56	6,6	8,6	8,4	1	1	1	1	1	1	1	1	1	0	1	-0,422833	273,774418	318,110227	0
15.01.2021	22:38:56	0	0	4,180356	0,89475	291,2184	-0,034	87,615	0	1017,62	6,6	8,6	8,4	1	1	1	1	1	1	1	1	1	0	1	-4,933051	273,902499	314,196512	0
15.01.2021	22:38:57	0	0	3,502461	0,86325	309,9672	-0,03	87,631	0	1017,72	6,6	8,6	8,4	1	1	1	1	1	1	1	1	1	0	1	-2,466526	273,77882	316,087023	0
15.01.2021	22:38:58	0	0	4,406321	0,84075	312,8652	-0,035	87,612	0	1017,62	6,6	8,6	8,4	1	1	1	1	1	1	1	1	1	0	1	-8,104299	273,905453	311,039034	0
15.01.2021	22:38:59	0	0	4,971234	0,79125	307,5912	-0,028	87,616	0	1017,64	6,6	8,6	8,4	1	1	1	1	1	1	1	1	1	0	1	-4,157858	273,775885	314,382031	0
15.01.2021	22:39:00	0	0	3,615443	0,72375	304,2396	-0,01	87,633	0	1017,68	6,5	8,6	8,4	1	1	1	1	1	1	1	1	1	0	1	-7,258633	273,887734	311,802122	0
15.01.2021	22:39:01	0	0	4,632287	0,6855	301,464	-0,04	87,602	0	1017,56	6,6	8,6	8,4	1	1	1	1	1	1	1	1	1	0	1	-4,016913	273,770016	314,495663	0
15.01.2021	22:39:02	0	0	2,937548	0,67875	302,9472	-0,034	87,61	0	1017,4	6,6	8,6	8,4	1	1	1	1	1	1	1	1	1	0	1	-5,21494	273,881831	313,818309	0
15.01.2021	22:39:03	0	0	4,745269	0,6645	302,8032	-0,029	87,614	0	1017,66	6,6	8,6	8,4	1	1	1	1	1	1	1	1	1	0	1	-4,22833	273,781755	314,338882	0
15.01.2021	22:39:04	0	0	2,824565	0,65475	300,4884	-0,031	87,618	0	1017,66	6,5	8,6	8,4	1	1	1	1	1	1	1	1	1	0	1	-6,765328	273,886258	312,288549	0
15.01.2021	22:39:05	0	0	4,180356	0,68175	301,2588	-0,032	87,609	0	1017,58	6,6	8,6	8,4	1	1	1	1	1	1	1	1	1	0	1	-9,866103	273,960193	309,532425	0
15.01.2021	22:39:06	0	0	4,971234	0,66525	301,6332	-0,032	87,604	0	1017,52	6,6	8,6	8,4	1	1	1	1	1	1	1	1	1	0	1	-5,21494	273,817017	313,51642	0
15.01.2021	22:39:07	0	0	2,259652	0,6645	300,8952	-0,029	87,606	0	1017,54	6,6	8,5	8,4	1	1	1	1	1	1	1	1	1	0	1	-2,114165	273,770016	316,398411	0
15.01.2021	22:39:08	0	0	3,615443	0,6435	304,2	-0,028	87,613	0	1017,46	6,6	8,6	8,4	1	1	1	1	1	1	1	1	1	0	1	-3,59408	273,886258	315,459797	0
15.01.2021	22:39:09	0	0	3,05053	0,6435	308,1204	-0,031	87,593	0	1017,62	6,6	8,7	8,4	1	1	1	1	1	1	1	1	1	0	1	-7,82241	273,77882	310,731139	0
15.01.2021	22:39:10	0	0	3,05053	0,63225	307,2636	-0,039	87,601	0	1017,5	6,6	8,6	8,4	1	1	1	1	1	1	1	1	1	0	1	-2,396054	273,790565	316,212161	0
15.01.2021	22:39:11	0	0	5,310182	0,63525	307,6668	-0,031	87,594	0	1017,48	6,6	8,6	8,4	1	1	1	1	1	1	1	1	1	0	1	-1,057082	273,88921	318,01055	0
15.01.2021	22:39:12	0	0	2,711582	0,636	313,218	-0,023	87,607	0	1017,56	6,6	8,6	8,4	1	1	1	1	1	1	1	1	1	0	1	-9,795631	273,951305	309,561455	0
15.01.2021	22:39:13	0	0	4,406321	0,65625	321,8724	-0,026	87,621	0	1017,46	6,5	8,6	8,4	1	1	1	1	1	1	1	1	1	0	1	-5,426357	273,852343	313,469518	0
15.01.2021	22:39:14	0	0	4,745269	0,63525	325,5408	-0,028	87,594	0	1017,58	6,6	8,6	8,4	1	1	1	1	1	1	1	1	1	0	1	-11,839323	273,960193	307,559205	0
15.01.2021	22:39:15	0	0	5,1972	0,687	322,2036	-0,028	87,617	0	1017,56	6,5	8,6	8,4	1	1	1	1	1	1	1	1	1	0	1	-10,782241	273,839088	308,051898	0
15.01.2021	22:39:16	0	0	3,615443	0,6405	317,6856	-0,029	87,619	0	1017,72	6,6	8,6	8,4	1	1	1	1	1	1	1	1	1	0	1	-5,21494	273,767082	313,283984	0
15.01.2021	22:39:17	0	0	4,519277	0,639	326,3724	-0,029	87,612	0	1017,48	6,6	8,6	8,5	1	1	1	1	1	1	1	1	1	0	1	-6,976744	273,799378	311,672496	0
15.01.2021	22:39:18	0	0	4,406321	0,621	335,286	-0,031	87,608	0	1017,6	6,6	8,6	8,4	1	1	1	1	1	1	1	1	1	0	1	-1,832276	273,95723	317,552435	0
15.01.2021	22:39:19	0	0	3,615443	0,58275	340,5456	-0,033	87,607	0	1017,54	6,6	8,5	8,4	1	1	1	1	1	1	1	1	1	0	1	-6,906272	273,855289	312,003328	0
15.01.2021	22:39:20	0	0	3,841408	0,54075	334,2456	-0,034	87,602	0	1017,62	6,5	8,6	8,4	1	1	1	1	1	1	1	1	1	0	1	-5,073996	273,761216	313,39763	0
15.01.2021	22:39:21	0	0	4,406321	0,516	318,1716	-0,036	87,607	0	1017,5	6,6	8,6	8,4	1	1	1	1	1	1	1	1	1	0	1	-5,778717	273,912842	313,39905	0
15.01.2021	22:39:22	0	0	4,519304	0,5235	310,644	-0,03	87,603	0	1017,66	6,6	8,6	8,4	1	1	1	1	1	1	1	1	1	0	1	-5,003524	273,77882	313,550025	0
15.01.2021	22:39:23	0	0	3,841408	0,57375	314,8236	-0,026	87,613	0	1017,46	6,6	8,6	8,4	1	1	1	1	1	1	1	1	1	0	1	-2,60747	273,809665	316,089663	0
15.01.2021	22:39:24	0	0	3,615443	0,66225	321,4152	-0,03	87,598	0	1017,4	6,6	8,6	8,4	1	1	1	1	1	1	1	1	1	0	1	-6,624383	273,893638	312,463887	0
15.01.2021	22:39:25	0	0	4,406321	0,7725	319,5072	-0,03	87,593	0	1017,52	6,6	8,6	8,4	1	1	1	1	1	1	1	1	1	0	1	-5,355884	273,794971	313,27284	0
15.01.2021	22:39:26	0	0	2,485617	0,864	318,8628	-0,025	87,619	0	1017,6	6,6	8,6	8,4	1	1	1	1	1	1	1	1	1	0	1	-7,329105	273,940942	311,97966	0
15.01.2021	22:39:27	0	0	2,937548	0,9315	328,9464	-0,027	87,612	0	1017,74	6,6	8,6	8,4	1	1	1	1	1	1	1	1	1	0	1	-8,245243	273,874454	310,753638	0
15.01.2021	22:39:28	0	0	3,502461	0,9855	330,4224	-0,028	87,62	0	1017,58	6,6	8,6	8,4	1	1	1	1	1	1	1	1	1	0	1	-4,510218	273,952786	314,853773	0
15.01.2021	22:39:29	0	0	4,745269	0,99225	322,9524	-0,028	87,601	0	1017,6	6,5	8,6	8,4	1	1	1	1	1	1	1	1	1	0	1	-7,258633	273,872979	311,733377	0
15.01.2021	22:39:30	0	0	2,598584	1,008	324,7596	-0,033	87,604	0	1017,58	6,6	8,6	8,5	1	1	1	1	1	1	1	1	1	0	1	-5,990134	273,770016	312,522442	0
15.01.2021	22:39:31	0	0	3,841408	1,0275	327,0384	-0,03	87,587	0	1017,54	6,5	8,6	8,4	1	1	1	1	1	1	1	1	1	0	1	-5,84919	273,8332	312,957528	0
15.01.2021	22:39:32	0	0	4,519304	1,035	327,8196	-0,026	87,597	0	1017,48	6,5	8,6	8,4	1	1	1	1	1	1	1	1	1	0	1	-9,795631	273,963156	309,616717	0
15.01.2021	22:39:33	0	0	2,937548	1,062	328,2948	-0,028	87,607	0	1017,64	6,6	8,6	8,4	1	1	1	1	1	1	1	1	1	0	1	-7,399577	273,812606	311,311245	0
15.01.2021	22:39:34	0	0	2,485617	1,08	327,1392	-0,025	87,605	0	1017,5	6,6	8,5	8,4	1	1	1	1	1	1	1	1	1	0	1	-4,651163	273,932064	314,616209	0
15.01.2021	22:39:35	0	0	4,632287	1,07925	326,7504	-0,032	87,6	0	1017,56	6,6	8,6	8,4	1	1	1	1	1	1	1	1	1	0	1	-4,862579	273,921711	314,35653	0
15.01.2021	22:39:36	0	0	3,389478	1,044	325,9584	-0,028	87,604	0	1017,64	6,5	8,6	8,4	1	1	1	1	1	1	1	1	1	0	1	-5,003524	273,842033	313,84433	0
15.01.2021	22:39:37	0	0	4,180356	1,00875	326,772	-0,027	87,603	0	1017,56	6,6	8,6	8,4	1	1	1	1	1	1	1	1	1	0	1	-3,805497	273,755352	314,638842	0
15.01.2021	22:39:38	0	0	2,5986	1,02825	327,3984	-0,028	87,598	0	1017,58	6,7	8,6	8,4	1	1	1	1	1	1	1	1	1	0	1	-5,355884	273,946863	313,980488	0
15.01.2021	22:39:39	0	0	5,1972	1,01325	328,5792	-0,029	87,601	0	1017,4	6,6	8,6	8,4	1	1	1	1	1	1	1	1	1	0	1	-5,355884	273,91432	313,828771	0
15.01.2021	22:39:40	0	0	2,146669	1,03425	330,0732	-0,028	87,604	0	1017,54	6,6	8,6	8,4	1	1	1	1	1	1	1	1	1	0	1	-6,906272	273,802317	311,756649	0
15.01.2021	22:39:41	0	0	3,163513	1,02	331,5312	-0,027	87,592	0	1017,6	6,6	8,6	8,4	1	1	1	1	1	1	1	1	1	0	1	-4,933051	273,927626	314,313633	0
15.01.2021	22:39:42	0	0	2,5986	1,041	326,4372	-0,027	87,608	0	1017,6	6,5	8,6	8,4	1	1	1	1	1	1	1	1	1	0	1	-5,919662	273,799378	312,729579	0
15.01.2021	22:39:43	0	0	2,824565	1,00575	328,4712	-0,028	87,594	0	1017,64	6,6	8,6	8,4	1	1	1	1	1	1	1	1	1	0	1	-3,382664	273,821429	315,369241	0
15.01.2021	22:39:44	0	0	3,05053	1,01925	329,796	-0,026	87,6	0	1017,68	6,6	8,6	8,4	1	1	1	1	1	1	1	1	1	0	1	-7,258633	273,946863	312,07774	0
15.01.2021	22:39:45	0	0	3,163513	1,0425	321,768	-0,032	87,605	0	1017,6	6,6	8,6	8,4	1	1	1	1	1	1	1	1	1	0	1	-5,567301	273,793502	313,054587	0
15.01.2021	22:39:46	0	0	2,5986	1,01175	322,1676	-0,028	87,598	0	1017,6	6,6	8,6	8,4	1	1	1	1	1	1	1	1	1	0	1	-7,470049	273,809665	311,227083	0
15.01.2021	22:39:47	0	0	4,406321	0,975	329,7564	-0,033	87,59	0	1017,44	6,7	8,6	8,4	1	1	1	1	1	1	1	1	1	0	1	-4,580691	273,75242	313,850008	0
15.01.2021	22:39:48	0	0	2,711582	1,00275	334,2672	-0,027	87,604	0	1017,5	6,6	8,6	8,4	1	1	1	1	1	1	1	1	1	0	1	-7,329105	273,827313	311,450201	0
15.01.2021	22:39:49	0	0	4,519304	1,0185	324,0288	-0,031	87,593	0	1017,56	6,5	8,6	8,4	1	1	1	1	1	1	1	1	1	0	1	-9,302326	273,945383	310,027144	0
15.01.2021	22:39:50	0	0	2,5986	1,00725	325,9152	-0,034	87,591	0	1017,54	6,6	8,6	8,4	1	1	1	1	1	1	1	1	1	0	1	-2,959831	273,837616	315,867452	0
15.01.2021	22:39:51	0	0	4,971234	0,9795	329,6268	-0,03	87,596	0	1017,56	6,5	8,6	8,4	1	1	1	1	1	1	1	1	1	0	1	-5,84919	273,787628	312,745355	0
15.01.2021	22:39:52	0	0	2,37262	0,94425	328,5828	-0,033	87,582	0	1017,48	6,6	8,6	8,5	1	1	1	1	1	1	1	1	1	0	1	-7,82241	273,789096	310,778969	0
15.01.2021	22:39:53	0	0	4,632287	0,95325	322,5996	-0,033	87,591	0	1017,5	6,6	8,6	8,4	1	1	1	1	1	1	1	1	1	0	1	-6,976744	273,948344	312,366532	0
15.01.2021	22:39:54	0	0	4,519304	0,92025	324,3816	-0,025	87,601	0	1017,64	6,6	8,6	8,4	1	1	1	1	1	1	1	1	1	0	1	-3,946441	273,898068	315,162473	0
15.01.2021	22:39:55	0	0	4,971234	0,89025	328,8816	-0,028	87,6	0	1017,64	6,5	8,6	8,4	1	1	1	1	1	1	1	1	1	0	1	-7,82241	273,775885	310,717479	0
15.01.2021	22:39:56	0	0	2,485602	0,82125	323,6472	-0,031	87,581	0	1017,56	6,6	8,6	8,5	1	1	1	1	1	1	1	1	1	0	1	-13,107822	273,837616	305,71946	0
15.01.2021	22:39:57	0	0	2,5986	0,83025	324,0972	-0,03	87,585	0	1017,54	6,5	8,6	8,4	1	1	1	1	1	1	1	1	1	0	1	-5,708245	273,748024	312,701998	0
15.01.2021	22:39:58	0	0	3,954391	0,83775	324,45	-0,025	87,592	0	1017,56	6,6	8,6	8,4	1	1	1	1	1	1	1	1	1	0	1	-4,087385	273,87003	314,890883	0
15.01.2021	22:39:59	0	0	3,615443	0,843	321,4296	-0,021	87,6	0	1017,68	6,6	8,6	8,4	1	1	1	1	1	1	1	1	1	0	1	-5,990134	273,942422	313,325532	0
15.01.2021	22:40:00	0	0	2,485617	0,84075	328,8996	-0,031	87,583	0	1017,5	6,6	8,6	8,4	1	1	1	1	1	1	1	1	1	0	1	-6,20155	273,797909	312,440851	0
15.01.2021	22:40:01	0	0	4,067374	0,82725	336,4164	-0,025	87,588	0	1017,66	6,6	8,5	8,4	1	1	1	1	1	1	1	1	1	0	1	-5,778717	273,787628	312,815827	0
15.01.2021	22:40:02	0	0	3,728426	0,7635	331,5132	-0,024	87,592	0	1017,54	6,7	8,6	8,4	1	1	1	1	1	1	1	1	1	0	1	-7,963354	273,8332	310,843363	0
15.01.2021	22:40:03	0	0	4,745269	0,76125	312,1596	-0,023	87,578	0	1017,56	6,6	8,6	8,4	1	1	1	1	1	1	1	1	1	0	1	-5,144468	273,943903	314,178099	0
15.01.2021	22:40:04	0	0	4,519304	0,74025	297,486	-0,022	87,586	0	1017,48	6,5	8,6	8,4	1	1	1	1	1	1	1	1	1	0	1	-9,161381	273,84056	309,679615	0
15.01.2021	22:40:05	0	0	2,937548	0,73425	300,8304	-0,022	87,585	0	1017,58	6,5	8,6	8,4	1	1	1	1	1	1	1	1	1	0	1	-6,8358	273,937982	312,459165	0
15.01.2021	22:40:06	0	0	3,05053	0,744	312,8328	-0,028	87,574	0	1017,58	6,6	8,6	8,4	1	1	1	1	1	1	1	1	1	0	1	-8,738548	273,842033	310,109305	0
15.01.2021	22:40:07	0	0	3,163513	0,77175	320,0688	-0,024	87,581	0	1017,4	6,5	8,6	8,4	1	1	1	1	1	1	1	1	1	0	1	-6,553911	273,954267	312,816986	0
15.01.2021	22:40:08	0	0	4,406321	0,78975	321,1092	-0,023	87,592	0	1017,66	6,5	8,6	8,4	1	1	1	1	1	1	1	1	1	0	1	-8,174771	273,819958	310,570285	0
15.01.2021	22:40:09	0	0	4,632287	0,85575	320,1228	-0,026	87,594	0	1017,58	6,5	8,6	8,4	1	1	1	1	1	1	1	1	1	0	1	-2,184637	273,939462	317,117227	0
15.01.2021	22:40:10	0	0	4,293339	0,966	322,6392	-0,029	87,593	0	1017,64	6,7	8,6	8,4	1	1	1	1	1	1	1	1	1	0	1	-6,906272	273,792033	311,708779	0
15.01.2021	22:40:11	0	0	3,954391	0,9825	327,114	-0,029	87,587	0	1017,56	6,6	8,6	8,4	1	1	1	1	1	1	1	1	1	0	1	-6,624383	273,890686	312,450128	0
15.01.2021	22:40:12	0	0	3,728426	0,9915	331,128	-0,025	87,589	0	1017,52	6,5	8,6	8,4	1	1	1	1	1	1	1	1	1	0	1	-6,20155	273,942422	313,114115	0
15.01.2021	22:40:13	0	0	2,711582	1,0335	323,046	-0,024	87,589	0	1017,78	6,6	8,6	8,4	1	1	1	1	1	1	1	1	1	0	1	-11,134602	273,883306	307,905523	0
15.01.2021	22:40:14	0	0	3,276495	1,0755	322,5924	-0,024	87,582	0	1017,66	6,6	8,6	8,4	1	1	1	1	1	1	1	1	1	0	1	-1,761804	273,768549	316,743946	0
15.01.2021	22:40:15	0	0	4,632287	1,10325	317,3508	-0,027	87,585	0	1017,52	6,6	8,6	8,4	1	1	1	1	1	1	1	1	1	0	1	-3,171247	273,812606	315,539575	0
15.01.2021	22:40:16	0	0	3,502461	1,10175	323,7336	-0,016	87,583	0	1017,5	6,6	8,6	8,4	1	1	1	1	1	1	1	1	1	0	1	-6,976744	273,774418	311,556316	0
15.01.2021	22:40:17	0	0	3,954391	1,02525	321,8328	-0,024	87,59	0	1017,68	6,6	8,6	8,4	1	1	1	1	1	1	1	1	1	0	1	-8,174771	273,896591	310,927261	0
15.01.2021	22:40:18	0	0	2,937548	1,01475	309,9528	-0,023	87,596	0	1017,6	6,5	8,6	8,4	1	1	1	1	1	1	1	1	1	0	1	-7,047216	273,768549	311,458533	0
15.01.2021	22:40:19	0	0	2,5986	1,01775	308,0808	-0,024	87,596	0	1017,62	6,6	8,6	8,4	1	1	1	1	1	1	1	1	1	0	1	-6,553911	273,926147	312,685879	0
15.01.2021	22:40:20	0	0	2,937548	1,02375	321,156	-0,024	87,584	0	1017,52	6,5	8,6	8,4	1	1	1	1	1	1	1	1	1	0	1	-7,892882	273,890686	311,181629	0
15.01.2021	22:40:21	0	0	2,372635	0,975	328,194	-0,021	87,59	0	1017,68	6,5	8,6	8,4	1	1	1	1	1	1	1	1	1	0	1	-5,990134	273,771483	312,52927	0
15.01.2021	22:40:22	0	0	4,293313	0,987	321,1668	-0,021	87,586	0	1017,68	6,6	8,6	8,5	1	1	1	1	1	1	1	1	1	0	1	-5,567301	273,831728	313,232563	0
15.01.2021	22:40:23	0	0	3,502461	0,9945	318,8268	-0,023	87,595	0	1017,36	6,5	8,6	8,4	1	1	1	1	1	1	1	1	1	0	1	-10,641297	273,930585	308,619179	0
15.01.2021	22:40:24	0	0	3,389478	1,074	327,7908	-0,024	87,595	0	1017,54	6,6	8,6	8,4	1	1	1	1	1	1	1	1	1	0	1	-5,990134	273,858237	312,933195	0
15.01.2021	22:40:25	0	0	2,146669	1,16025	322,9164	-0,02	87,58	0	1017,54	6,6	8,6	8,4	1	1	1	1	1	1	1	1	1	0	1	-7,751938	273,755352	310,692401	0
15.01.2021	22:40:26	0	0	2,937548	1,23	318,1896	-0,024	87,571	0	1017,52	6,5	8,6	8,4	1	1	1	1	1	1	1	1	1	0	1	-4,510218	273,808195	314,180071	0
15.01.2021	22:40:27	0	0	2,372635	1,29	321,5196	-0,025	87,589	0	1017,58	6,6	8,6	8,4	1	1	1	1	1	1	1	1	1	0	1	-5,285412	273,911364	313,885467	0
15.01.2021	22:40:28	0	0	2,711582	1,311	323,64	-0,02	87,576	0	1017,42	6,5	8,6	8,4	1	1	1	1	1	1	1	1	1	0	1	-0,563777	273,793502	318,05811	0
15.01.2021	22:40:29	0	0	5,310182	1,275	319,5036	-0,025	87,596	0	1017,5	6,5	8,6	8,4	1	1	1	1	1	1	1	1	1	0	1	-6,694856	273,884782	312,352145	0
15.01.2021	22:40:30	0	0	4,293339	1,257	332,0532	-0,019	87,59	0	1017,7	6,6	8,6	8,4	1	1	1	1	1	1	1	1	1	0	1	-5,496829	273,937982	313,798136	0
15.01.2021	22:40:31	0	0	4,293339	1,245	328,5864	-0,031	87,579	0	1017,6	6,6	8,6	8,4	1	1	1	1	1	1	1	1	1	0	1	-5,496829	273,868555	313,47457	0
15.01.2021	22:40:32	0	0	4,632287	1,2015	318,1896	-0,021	87,593	0	1017,5	6,5	8,6	8,4	1	1	1	1	1	1	1	1	1	0	1	-8,174771	273,927626	311,071913	0
15.01.2021	22:40:33	0	0	3,615443	1,218	320,3856	-0,028	87,572	0	1017,4	6,5	8,6	8,4	1	1	1	1	1	1	1	1	1	0	1	-7,188161	273,892162	311,89323	0
15.01.2021	22:40:34	0	0	2,937548	1,20975	321,1164	-0,026	87,583	0	1017,54	6,6	8,6	8,4	1	1	1	1	1	1	1	1	1	0	1	-8,668076	273,75975	309,796727	0
15.01.2021	22:40:35	0	0	4,745269	1,17375	314,1108	-0,022	87,582	0	1017,54	6,6	8,6	8,4	1	1	1	1	1	1	1	1	1	0	1	-3,523608	273,881831	315,509641	0
15.01.2021	22:40:36	0	0	4,067374	1,08675	317,7432	-0,025	87,579	0	1017,6	6,6	8,6	8,4	1	1	1	1	1	1	1	1	1	0	1	-7,117689	273,920233	312,094529	0
15.01.2021	22:40:37	0	0	2,485617	1,06875	322,1892	-0,021	87,58	0	1017,42	6,6	8,6	8,4	1	1	1	1	1	1	1	1	1	0	1	-6,412967	273,768549	312,092783	0
15.01.2021	22:40:38	0	0	3,389478	1,06875	323,2512	-0,024	87,583	0	1017,66	6,6	8,6	8,4	1	1	1	1	1	1	1	1	1	0	1	-3,735025	273,817017	314,996336	0
15.01.2021	22:40:39	0	0	2,5986	1,08225	321,228	-0,02	87,577	0	1017,44	6,6	8,6	8,4	1	1	1	1	1	1	1	1	1	0	1	-4,721635	273,765616	313,770463	0
15.01.2021	22:40:40	0	0	4,406321	1,06425	321,8256	-0,027	87,577	0	1017,48	6,5	8,5	8,4	1	1	1	1	1	1	1	1	1	0	1	-7,610994	273,865607	311,346668	0
15.01.2021	22:40:41	0	0	4,632287	1,068	323,73	-0,018	87,586	0	1017,54	6,6	8,6	8,4	1	1	1	1	1	1	1	1	1	0	1	-6,906272	273,932064	312,3611	0
15.01.2021	22:40:42	0	0	3,954391	1,0185	327,3696	-0,024	87,572	0	1017,6	6,5	8,6	8,4	1	1	1	1	1	1	1	1	1	0	1	-4,651163	273,881831	314,382086	0
15.01.2021	22:40:43	0	0	3,728426	1,02675	322,2216	-0,02	87,583	0	1017,68	6,6	8,6	8,4	1	1	1	1	1	1	1	1	1	0	1	-3,453136	273,764149	315,032138	0
15.01.2021	22:40:44	0	0	3,502461	1,014	316,9872	-0,022	87,567	0	1017,62	6,5	8,6	8,4	1	1	1	1	1	1	1	1	1	0	1	-8,45666	273,85971	310,473535	0
15.01.2021	22:40:45	0	0	4,632287	0,99975	320,8284	-0,025	87,577	0	1017,64	6,6	8,6	8,4	1	1	1	1	1	1	1	1	1	0	1	-7,470049	273,755352	310,974289	0
15.01.2021	22:40:46	0	0	4,745269	1,00575	322,8984	-0,021	87,578	0	1017,56	6,5	8,6	8,4	1	1	1	1	1	1	1	1	1	0	1	-4,157858	273,880355	314,868517	0
15.01.2021	22:40:47	0	0	3,615443	0,99375	334,2744	-0,024	87,562	0	1017,54	6,6	8,6	8,4	1	1	1	1	1	1	1	1	1	0	1	-6,483439	273,755352	311,9609	0
15.01.2021	22:40:48	0	0	4,067374	0,92775	342,0972	-0,021	87,573	0	1017,6	6,6	8,6	8,4	1	1	1	1	1	1	1	1	1	0	1	-8,104299	273,805256	310,572305	0
15.01.2021	22:40:49	0	0	2,711582	0,93225	345,3516	-0,025	87,57	0	1017,54	6,6	8,6	8,4	1	1	1	1	1	1	1	1	1	0	1	-4,510218	273,921711	314,708891	0
15.01.2021	22:40:50	0	0	3,502461	0,9345	339,8328	-0,021	87,564	0	1017,64	6,6	8,6	8,4	1	1	1	1	1	1	1	1	1	0	1	-5,21494	273,764149	313,270333	0
15.01.2021	22:40:51	0	0	2,711582	0,9045	327,834	-0,02	87,572	0	1017,6	6,6	8,6	8,4	1	1	1	1	1	1	1	1	1	0	1	-5,637773	273,819958	313,107283	0
15.01.2021	22:40:52	0	0	2,824565	0,921	317,0196	-0,028	87,568	0	1017,52	6,5	8,6	8,4	1	1	1	1	1	1	1	1	1	0	1	-6,131078	273,768549	312,374671	0
15.01.2021	22:40:53	0	0	3,163513	0,8925	315,8316	-0,018	87,565	0	1017,68	6,6	8,6	8,4	1	1	1	1	1	1	1	1	1	0	1	-9,725159	273,852343	309,170716	0
15.01.2021	22:40:54	0	0	2,711582	0,8865	318,8952	-0,026	87,576	0	1017,5	6,6	8,6	8,4	1	1	1	1	1	1	1	1	1	0	1	-2,255109	273,929105	316,99847	0
15.01.2021	22:40:55	0	0	4,632287	0,97275	316,008	-0,023	87,569	0	1017,64	6,5	8,6	8,4	1	1	1	1	1	1	1	1	1	0	1	-6,553911	273,88921	312,513721	0
15.01.2021	22:40:56	0	0	3,502461	1,008	317,0124	-0,025	87,567	0	1017,62	6,5	8,6	8,4	1	1	1	1	1	1	1	1	1	0	1	-3,805497	273,890686	315,269014	0
15.01.2021	22:40:57	0	0	2,711582	1,0395	318,8664	-0,019	87,575	0	1017,66	6,6	8,6	8,4	1	1	1	1	1	1	1	1	1	0	1	-2,889359	273,930585	316,371117	0
15.01.2021	22:40:58	0	0	3,05053	1,06875	313,2792	-0,021	87,572	0	1017,62	6,6	8,6	8,4	1	1	1	1	1	1	1	1	1	0	1	-2,536998	273,868555	316,434401	0
15.01.2021	22:40:59	0	0	4,293339	1,02225	314,0388	-0,026	87,574	0	1017,64	6,6	8,6	8,4	1	1	1	1	1	1	1	1	1	0	1	-6,976744	273,948344	312,366532	0
15.01.2021	22:41:00	0	0	3,841408	1,07925	313,9992	-0,018	87,571	0	1017,68	6,6	8,6	8,4	1	1	1	1	1	1	1	1	1	0	1	-4,580691	273,811135	314,123286	0
15.01.2021	22:41:01	0	0	4,406321	1,1025	309,2184	-0,02	87,574	0	1017,58	6,5	8,6	8,4	1	1	1	1	1	1	1	1	1	0	1	-3,59408	273,932064	315,673292	0
15.01.2021	22:41:02	0	0	4,858252	1,116	318,4632	-0,026	87,568	0	1017,64	6,5	8,6	8,4	1	1	1	1	1	1	1	1	1	0	1	-9,161381	273,799378	309,487859	0
15.01.2021	22:41:03	0	0	3,728426	1,11225	321,1452	-0,028	87,57	0	1017,6	6,5	8,6	8,4	1	1	1	1	1	1	1	1	1	0	1	-7,892882	273,91432	311,291774	0
15.01.2021	22:41:04	0	0	3,502461	1,137	314,46	-0,024	87,568	0	1017,4	6,6	8,6	8,4	1	1	1	1	1	1	1	1	1	0	1	-4,792107	273,775885	313,747782	0
15.01.2021	22:41:05	0	0	3,389478	1,1565	310,6944	-0,029	87,562	0	1017,56	6,5	8,6	8,4	1	1	1	1	1	1	1	1	1	0	1	-4,510218	273,877405	314,502408	0
15.01.2021	22:41:06	0	0	3,615443	1,14225	314,4636	-0,023	87,572	0	1017,74	6,6	8,6	8,4	1	1	1	1	1	1	1	1	1	0	1	-8,033827	273,77295	310,492405	0
15.01.2021	22:41:07	0	0	3,615443	1,15875	312,7968	-0,029	87,557	0	1017,54	6,6	8,5	8,4	1	1	1	1	1	1	1	1	1	0	1	-6,412967	273,811135	312,29101	0
15.01.2021	22:41:08	0	0	2,711582	1,16475	312,8904	-0,022	87,57	0	1017,66	6,6	8,6	8,4	1	1	1	1	1	1	1	1	1	0	1	-4,651163	273,743629	313,738631	0
15.01.2021	22:41:09	0	0	4,519304	1,149	318,132	-0,026	87,568	0	1017,62	6,6	8,6	8,4	1	1	1	1	1	1	1	1	1	0	1	-10,007047	273,8229	308,751707	0
15.01.2021	22:41:10	0	0	2,711582	1,12725	314,8416	-0,023	87,562	0	1017,56	6,6	8,6	8,4	1	1	1	1	1	1	1	1	1	0	1	-8,527132	273,936503	310,760934	0
15.01.2021	22:41:11	0	0	3,728426	1,128	311,3856	-0,025	87,573	0	1017,62	6,5	8,6	8,4	1	1	1	1	1	1	1	1	1	0	1	-4,721635	273,890686	314,352876	0
15.01.2021	22:41:12	0	0	4,971234	1,11675	319,2552	-0,022	87,567	0	1017,64	6,6	8,6	8,4	1	1	1	1	1	1	1	1	1	0	1	-9,513742	273,750955	308,910138	0
15.01.2021	22:41:13	0	0	2,5986	1,14675	324,09	-0,024	87,566	0	1017,58	6,5	8,6	8,4	1	1	1	1	1	1	1	1	1	0	1	-5,919662	273,78616	312,668049	0
15.01.2021	22:41:14	0	0	2,711582	1,104	321,4332	-0,026	87,556	0	1017,42	6,6	8,6	8,4	1	1	1	1	1	1	1	1	1	0	1	-5,990134	273,846451	312,878296	0
15.01.2021	22:41:15	0	0	3,954391	1,0725	305,4564	-0,023	87,575	0	1017,46	6,6	8,6	8,4	1	1	1	1	1	1	1	1	1	0	1	-5,567301	273,767082	312,931623	0
15.01.2021	22:41:16	0	0	4,858252	1,02225	314,4888	-0,023	87,558	0	1017,64	6,5	8,6	8,4	1	1	1	1	1	1	1	1	1	0	1	-5,990134	273,865607	312,967528	0
15.01.2021	22:41:17	0	0	2,711582	1,02375	320,9292	-0,02	87,559	0	1017,58	6,5	8,6	8,4	1	1	1	1	1	1	1	1	1	0	1	-3,59408	273,75975	314,870723	0
15.01.2021	22:41:18	0	0	2,372635	0,981	317,7504	-0,023	87,56	0	1017,62	6,5	8,6	8,4	1	1	1	1	1	1	1	1	1	0	1	-7,540521	273,861184	311,396538	0
15.01.2021	22:41:19	0	0	4,858252	0,96375	317,4444	-0,021	87,569	0	1017,76	6,6	8,6	8,4	1	1	1	1	1	1	1	1	1	0	1	-6,906272	273,733377	311,435828	0
15.01.2021	22:41:20	0	0	4,745269	0,981	320,4072	-0,023	87,54	0	1017,64	6,5	8,6	8,4	1	1	1	1	1	1	1	1	1	0	1	-5,21494	273,902499	313,914623	0
15.01.2021	22:41:21	0	0	2,824565	0,978	324,054	-0,019	87,559	0	1017,66	6,6	8,6	8,4	1	1	1	1	1	1	1	1	1	0	1	-2,536998	273,78616	316,050712	0
15.01.2021	22:41:22	0	0	4,406321	1,0035	330,426	-0,02	87,571	0	1017,56	6,5	8,6	8,4	1	1	1	1	1	1	1	1	1	0	1	-3,171247	273,817017	315,560113	0
15.01.2021	22:41:23	0	0	2,824565	1,0605	330,7032	-0,02	87,543	0	1017,62	6,5	8,6	8,4	1	1	1	1	1	1	1	1	1	0	1	-7,258633	273,768549	311,247117	0
15.01.2021	22:41:24	0	0	3,728426	1,143	315,9972	-0,022	87,553	0	1017,62	6,6	8,6	8,4	1	1	1	1	1	1	1	1	1	0	1	-6,765328	273,799378	311,883913	0
15.01.2021	22:41:25	0	0	3,05053	1,197	320,3568	-0,021	87,559	0	1017,6	6,6	8,5	8,4	1	1	1	1	1	1	1	1	1	0	1	-5,144468	273,736305	313,211256	0
15.01.2021	22:41:26	0	0	2,937548	1,22625	317,3868	-0,032	87,557	0	1017,66	6,6	8,6	8,4	1	1	1	1	1	1	1	1	1	0	1	-5,285412	273,814076	313,432255	0
15.01.2021	22:41:27	0	0	2,824565	1,18125	301,2228	-0,022	87,555	0	1017,62	6,5	8,6	8,4	1	1	1	1	1	1	1	1	1	0	1	-5,919662	273,750955	312,504218	0
15.01.2021	22:41:28	0	0	4,519304	1,18125	304,3404	-0,025	87,553	0	1017,48	6,5	8,6	8,4	1	1	1	1	1	1	1	1	1	0	1	-3,312192	273,847923	315,563098	0
15.01.2021	22:41:29	0	0	3,389478	1,134	317,0772	-0,023	87,552	0	1017,56	6,7	8,6	8,4	1	1	1	1	1	1	1	1	1	0	1	-5,708245	273,75975	312,756558	0
15.01.2021	22:41:30	0	0	3,05053	1,07475	324,432	-0,025	87,557	0	1017,58	6,6	8,6	8,4	1	1	1	1	1	1	1	1	1	0	1	-5,285412	273,758284	313,172569	0
15.01.2021	22:41:31	0	0	3,502461	1,041	315,5436	-0,03	87,549	0	1017,54	6,7	8,6	8,4	1	1	1	1	1	1	1	1	1	0	1	-4,792107	273,787628	313,802437	0
15.01.2021	22:41:32	0	0	4,745269	0,96375	303,5448	-0,02	87,564	0	1017,64	6,5	8,6	8,4	1	1	1	1	1	1	1	1	1	0	1	-4,298802	273,890686	314,775709	0
15.01.2021	22:41:33	0	0	2,5986	0,9135	298,674	-0,025	87,547	0	1017,58	6,5	8,6	8,4	1	1	1	1	1	1	1	1	1	0	1	-6,765328	273,756818	311,685832	0
15.01.2021	22:41:34	0	0	4,971234	0,888	314,046	-0,028	87,539	0	1017,62	6,5	8,6	8,4	1	1	1	1	1	1	1	1	1	0	1	-5,285412	273,805256	313,391192	0
15.01.2021	22:41:35	0	0	4,406321	0,86625	321,4908	-0,018	87,534	0	1017,54	6,5	8,6	8,4	1	1	1	1	1	1	1	1	1	0	1	-6,060606	273,915798	313,130939	0
15.01.2021	22:41:36	0	0	3,389478	0,8475	319,1832	-0,019	87,542	0	1017,68	6,7	8,6	8,4	1	1	1	1	1	1	1	1	1	0	1	-0,775194	273,765616	317,716905	0
15.01.2021	22:41:37	0	0	4,406321	0,8565	318,1068	-0,02	87,549	0	1017,68	6,6	8,5	8,4	1	1	1	1	1	1	1	1	1	0	1	-7,892882	273,75242	310,537816	0
15.01.2021	22:41:38	0	0	3,163513	0,894	322,5636	-0,023	87,561	0	1017,64	6,5	8,6	8,4	1	1	1	1	1	1	1	1	1	0	1	-3,171247	273,892162	315,910143	0
15.01.2021	22:41:39	0	0	4,858252	0,92925	318,4596	-0,021	87,538	0	1017,54	6,6	8,6	8,4	1	1	1	1	1	1	1	1	1	0	1	-5,144468	273,762683	313,333982	0
15.01.2021	22:41:40	0	0	3,728426	0,95925	311,4432	-0,029	87,544	0	1017,54	6,6	8,6	8,4	1	1	1	1	1	1	1	1	1	0	1	-6,553911	273,775885	311,985978	0
15.01.2021	22:41:41	0	0	4,971234	0,95475	325,512	-0,023	87,552	0	1017,66	6,6	8,6	8,4	1	1	1	1	1	1	1	1	1	0	1	-5,778717	273,739234	312,590633	0
15.01.2021	22:41:42	0	0	3,615443	0,92325	322,9128	-0,023	87,551	0	1017,62	6,5	8,6	8,4	1	1	1	1	1	1	1	1	1	0	1	-5,567301	273,898068	313,541613	0
15.01.2021	22:41:43	0	0	2,5986	0,909	312,4908	-0,016	87,545	0	1017,62	6,5	8,6	8,4	1	1	1	1	1	1	1	1	1	0	1	-2,466526	273,761216	316,0051	0
15.01.2021	22:41:44	0	0	4,971234	0,95925	300,42	-0,027	87,534	0	1017,54	6,5	8,6	8,4	1	1	1	1	1	1	1	1	1	0	1	-0,704722	273,75975	317,760082	0
15.01.2021	22:41:45	0	0	2,372635	0,97125	297,2304	-0,022	87,536	0	1017,66	6,5	8,6	8,4	1	1	1	1	1	1	1	1	1	0	1	-4,933051	273,864132	314,017742	0
15.01.2021	22:41:46	0	0	3,05053	0,981	296,3952	-0,025	87,532	0	1017,62	6,5	8,6	8,4	1	1	1	1	1	1	1	1	1	0	1	-7,117689	273,73777	311,244848	0
15.01.2021	22:41:47	0	0	4,180356	0,95325	315,8676	-0,026	87,537	0	1017,58	6,6	8,6	8,4	1	1	1	1	1	1	1	1	1	0	1	-8,527132	273,875929	310,478622	0
15.01.2021	22:41:48	0	0	3,05053	0,95025	321,8616	-0,02	87,539	0	1017,72	6,5	8,6	8,4	1	1	1	1	1	1	1	1	1	0	1	-10,288936	273,765616	308,203162	0
15.01.2021	22:41:49	0	0	4,180356	0,91575	311,022	-0,02	87,54	0	1017,66	6,5	8,6	8,4	1	1	1	1	1	1	1	1	1	0	1	-11,346018	273,88921	307,721614	0
15.01.2021	22:41:50	0	0	4,293339	0,9075	312,5016	-0,02	87,545	0	1017,62	6,5	8,6	8,4	1	1	1	1	1	1	1	1	1	0	1	-6,694856	273,781755	311,872356	0
15.01.2021	22:41:51	0	0	4,293339	0,88725	318,5136	-0,02	87,529	0	1017,56	6,5	8,6	8,4	1	1	1	1	1	1	1	1	1	0	1	-5,355884	273,746559	313,047542	0
15.01.2021	22:41:52	0	0	2,711582	0,8715	321,0948	-0,019	87,526	0	1017,32	6,5	8,6	8,4	1	1	1	1	1	1	1	1	1	0	1	-5,708245	273,831728	313,091618	0
15.01.2021	22:41:53	0	0	5,084217	0,88425	320,4	-0,026	87,529	0	1017,58	6,6	8,6	8,4	1	1	1	1	1	1	1	1	1	0	1	-7,82241	273,755352	310,621928	0
15.01.2021	22:41:54	0	0	2,937548	0,81975	316,548	-0,026	87,532	0	1017,56	6,6	8,6	8,4	1	1	1	1	1	1	1	1	1	0	1	-9,020437	273,748024	309,389806	0
15.01.2021	22:41:55	0	0	4,406321	0,81975	314,1108	-0,023	87,52	0	1017,62	6,5	8,6	8,4	1	1	1	1	1	1	1	1	1	0	1	-9,090909	273,868555	309,88049	0
15.01.2021	22:41:56	0	0	2,711582	0,825	305,4312	-0,025	87,527	0	1017,72	6,5	8,5	8,4	1	1	1	1	1	1	1	1	1	0	1	-7,047216	273,756818	311,403943	0
15.01.2021	22:41:57	0	0	5,084217	0,79725	296,4492	-0,025	87,521	0	1017,56	6,6	8,6	8,4	1	1	1	1	1	1	1	1	1	0	1	-8,527132	273,862658	310,416795	0
15.01.2021	22:41:58	0	0	3,05053	0,86475	305,3592	-0,021	87,527	0	1017,66	6,6	8,5	8,4	1	1	1	1	1	1	1	1	1	0	1	-4,087385	273,898068	315,021528	0
15.01.2021	22:41:59	0	0	3,502461	0,936	313,5996	-0,021	87,507	0	1017,5	6,5	8,6	8,4	1	1	1	1	1	1	1	1	1	0	1	-6,342495	273,77882	312,211054	0
15.01.2021	22:42:00	0	0	3,276495	0,92625	318,0816	-0,024	87,513	0	1017,46	6,6	8,6	8,4	1	1	1	1	1	1	1	1	1	0	1	-6,412967	273,867081	312,551563	0
15.01.2021	22:42:01	0	0	2,824565	0,92775	308,8368	-0,025	87,515	0	1017,62	6,5	8,6	8,4	1	1	1	1	1	1	1	1	1	0	1	-8,527132	273,920233	310,685086	0
15.01.2021	22:42:02	0	0	4,632287	0,9045	306,1692	-0,024	87,519	0	1017,34	6,5	8,5	8,4	1	1	1	1	1	1	1	1	1	0	1	-4,016913	273,797909	314,625488	0
15.01.2021	22:42:03	0	0	3,954391	0,96375	304,2612	-0,026	87,525	0	1017,68	6,7	8,6	8,4	1	1	1	1	1	1	1	1	1	0	1	-3,523608	273,930585	315,736867	0
15.01.2021	22:42:04	0	0	3,05053	0,99825	310,6872	-0,021	87,517	0	1017,38	6,5	8,6	8,4	1	1	1	1	1	1	1	1	1	0	1	-9,44327	273,855289	309,46633	0
15.01.2021	22:42:05	0	0	3,502461	1,05375	321,1452	-0,021	87,529	0	1017,68	6,6	8,6	8,4	1	1	1	1	1	1	1	1	1	0	1	-4,792107	273,740699	313,584057	0
15.01.2021	22:42:06	0	0	2,824565	1,08525	328,896	-0,021	87,517	0	1017,64	6,5	8,6	8,4	1	1	1	1	1	1	1	1	1	0	1	-9,725159	273,843505	309,129553	0
15.01.2021	22:42:07	0	0	2,5986	1,1145	321,8256	-0,022	87,503	0	1017,56	6,6	8,6	8,4	1	1	1	1	1	1	1	1	1	0	1	-7,540521	273,927626	311,706163	0
15.01.2021	22:42:08	0	0	4,406295	1,23225	300,816	-0,018	87,514	0	1017,66	6,6	8,6	8,5	1	1	1	1	1	1	1	1	1	0	1	-5,426357	273,856763	313,490108	0
15.01.2021	22:42:09	0	0	4,632287	1,35825	311,4468	-0,021	87,514	0	1017,7	6,6	8,6	8,4	1	1	1	1	1	1	1	1	1	0	1	-1,973221	273,742164	316,409758	0
15.01.2021	22:42:10	0	0	3,502461	1,40775	312,8076	-0,022	87,523	0	1017,5	6,5	8,6	8,4	1	1	1	1	1	1	1	1	1	0	1	-5,144468	273,921711	314,074642	0
15.01.2021	22:42:11	0	0	3,05053	1,42725	315,9216	-0,019	87,5	0	1017,66	6,5	8,6	8,4	1	1	1	1	1	1	1	1	1	0	1	-2,60747	273,77882	315,946079	0
15.01.2021	22:42:12	0	0	3,05053	1,413	311,3604	-0,024	87,515	0	1017,62	6,5	8,6	8,4	1	1	1	1	1	1	1	1	1	0	1	-6,694856	273,892162	312,386535	0
15.01.2021	22:42:13	0	0	4,745269	1,392	312,102	-0,028	87,506	0	1017,56	6,6	8,6	8,4	1	1	1	1	1	1	1	1	1	0	1	-5,355884	273,91432	313,828771	0
15.01.2021	22:42:14	0	0	3,389478	1,3215	321,1884	-0,019	87,501	0	1017,42	6,5	8,6	8,4	1	1	1	1	1	1	1	1	1	0	1	-7,188161	273,861184	311,748899	0
15.01.2021	22:42:15	0	0	3,276495	1,332	308,4588	-0,027	87,513	0	1017,44	6,5	8,5	8,4	1	1	1	1	1	1	1	1	1	0	1	-6,20155	273,887734	312,859204	0
15.01.2021	22:42:16	0	0	4,519304	1,3995	303,1668	-0,021	87,491	0	1017,42	6,6	8,6	8,4	1	1	1	1	1	1	1	1	1	0	1	-2,396054	273,896591	316,705978	0
15.01.2021	22:42:17	0	0	4,180356	1,44075	306,4176	-0,025	87,498	0	1017,64	6,6	8,6	8,4	1	1	1	1	1	1	1	1	1	0	1	-1,057082	273,911364	318,113796	0
15.01.2021	22:42:18	0	0	4,745269	1,452	299,43	-0,023	87,5	0	1017,64	6,5	8,6	8,4	1	1	1	1	1	1	1	1	1	0	1	-9,795631	273,806726	308,887815	0
15.01.2021	22:42:19	0	0	2,824565	1,449	304,992	-0,021	87,505	0	1017,6	6,5	8,6	8,4	1	1	1	1	1	1	1	1	1	0	1	-3,24172	273,915798	315,949826	0
15.01.2021	22:42:20	0	0	3,276495	1,43175	302,76	-0,026	87,492	0	1017,6	6,5	8,6	8,4	1	1	1	1	1	1	1	1	1	0	1	-9,302326	273,839088	309,531813	0
15.01.2021	22:42:21	0	0	4,067374	1,419	303,2028	-0,03	87,505	0	1017,82	6,5	8,6	8,4	1	1	1	1	1	1	1	1	1	0	1	-10,147992	273,727521	308,166869	0
15.01.2021	22:42:22	0	0	2,372635	1,395	309,8304	-0,022	87,496	0	1017,6	6,6	8,6	8,4	1	1	1	1	1	1	1	1	1	0	1	-6,131078	273,864132	312,819715	0
15.01.2021	22:42:23	0	0	4,858252	1,46475	294,8292	-0,019	87,508	0	1017,48	6,5	8,6	8,4	1	1	1	1	1	1	1	1	1	0	1	-4,087385	273,921711	315,131724	0
15.01.2021	22:42:24	0	0	5,084217	1,46025	303,876	-0,02	87,507	0	1017,46	6,6	8,6	8,4	1	1	1	1	1	1	1	1	1	0	1	-9,513742	273,867081	309,450788	0
15.01.2021	22:42:25	0	0	4,519304	1,4385	324,7704	-0,028	87,506	0	1017,64	6,5	8,6	8,4	1	1	1	1	1	1	1	1	1	0	1	-9,513742	273,895115	309,581409	0
15.01.2021	22:42:26	0	0	2,711582	1,40625	312,2208	-0,027	87,498	0	1017,6	6,5	8,6	8,4	1	1	1	1	1	1	1	1	1	0	1	-5,84919	273,749489	312,567872	0
15.01.2021	22:42:27	0	0	4,067374	1,35	306,7704	-0,023	87,507	0	1017,64	6,5	8,6	8,4	1	1	1	1	1	1	1	1	1	0	1	-8,879493	273,774418	309,653567	0
15.01.2021	22:42:28	0	0	5,310182	1,32375	314,4852	-0,023	87,486	0	1017,58	6,6	8,6	8,4	1	1	1	1	1	1	1	1	1	0	1	-4,510218	273,898068	314,598695	0
15.01.2021	22:42:29	0	0	4,519304	1,30275	310,3416	-0,026	87,503	0	1017,6	6,5	8,6	8,4	1	1	1	1	1	1	1	1	1	0	1	-8,033827	273,836144	310,7866	0
15.01.2021	22:42:30	0	0	3,615443	1,25775	312,8688	-0,024	87,499	0	1017,66	6,6	8,5	8,4	1	1	1	1	1	1	1	1	1	0	1	-9,372798	273,740699	309,003366	0
15.01.2021	22:42:31	0	0	4,406321	1,26375	318,456	-0,024	87,508	0	1017,68	6,6	8,6	8,4	1	1	1	1	1	1	1	1	1	0	1	-8,879493	273,856763	310,036972	0
15.01.2021	22:42:32	0	0	4,971234	1,25325	314,8056	-0,025	87,488	0	1017,7	6,5	8,6	8,4	1	1	1	1	1	1	1	1	1	0	1	-5,990134	273,918754	313,215192	0
15.01.2021	22:42:33	0	0	3,728426	1,21425	321,462	-0,021	87,5	0	1017,6	6,5	8,6	8,4	1	1	1	1	1	1	1	1	1	0	1	-0	273,775885	318,539889	0
15.01.2021	22:42:34	0	0	5,084217	1,16775	308,7792	-0,02	87,517	0	1017,54	6,5	8,6	8,4	1	1	1	1	1	1	1	1	1	0	1	-8,174771	273,87888	310,844729	0
15.01.2021	22:42:35	0	0	4,632287	1,11075	303,2064	-0,022	87,516	0	1017,68	6,5	8,6	8,4	1	1	1	1	1	1	1	1	1	0	1	-6,412967	273,746559	311,990459	0
15.01.2021	22:42:36	0	0	2,937548	1,08825	307,188	-0,021	87,502	0	1017,64	6,5	8,6	8,4	1	1	1	1	1	1	1	1	1	0	1	-4,439746	273,806726	314,2437	0
15.01.2021	22:42:37	0	0	4,406321	1,06725	313,9452	-0,03	87,505	0	1017,62	6,5	8,6	8,4	1	1	1	1	1	1	1	1	1	0	1	-7,188161	273,749489	311,228901	0
15.01.2021	22:42:38	0	0	2,937548	1,02975	321,1344	-0,029	87,505	0	1017,48	6,5	8,6	8,4	1	1	1	1	1	1	1	1	1	0	1	-5,144468	273,867081	313,820062	0
15.01.2021	22:42:39	0	0	3,163513	1,01625	322,6104	-0,021	87,501	0	1017,52	6,5	8,6	8,4	1	1	1	1	1	1	1	1	1	0	1	-3,523608	273,743629	314,866186	0
15.01.2021	22:42:40	0	0	4,745269	0,9855	321,1488	-0,027	87,51	0	1017,62	6,5	8,6	8,4	1	1	1	1	1	1	1	1	1	0	1	-3,875969	273,797909	314,766432	0
15.01.2021	22:42:41	0	0	4,293339	0,9825	315,9072	-0,024	87,511	0	1017,7	6,6	8,6	8,4	1	1	1	1	1	1	1	1	1	0	1	-6,342495	273,896591	312,759537	0
15.01.2021	22:42:42	0	0	4,745269	0,96525	313,2468	-0,026	87,502	0	1017,6	6,5	8,6	8,4	1	1	1	1	1	1	1	1	1	0	1	-6,20155	273,755352	312,242788	0
15.01.2021	22:42:43	0	0	4,971234	1,01625	309,2508	-0,025	87,515	0	1017,6	6,5	8,6	8,4	1	1	1	1	1	1	1	1	1	0	1	-3,453136	273,818487	315,285072	0
15.01.2021	22:42:44	0	0	4,745269	1,101	308,0952	-0,033	87,505	0	1017,66	6,5	8,6	8,4	1	1	1	1	1	1	1	1	1	0	1	-5,21494	273,748024	313,195303	0
15.01.2021	22:42:45	0	0	4,745269	1,185	310,9428	-0,02	87,511	0	1017,72	6,6	8,6	8,4	1	1	1	1	1	1	1	1	1	0	1	-6,060606	273,887734	313,000148	0
15.01.2021	22:42:46	0	0	4,745269	1,21875	319,572	-0,028	87,503	0	1017,58	6,5	8,5	8,4	1	1	1	1	1	1	1	1	1	0	1	-6,906272	273,818487	311,831936	0
15.01.2021	22:42:47	0	0	3,050512	1,167	326,3184	-0,025	87,513	0	1017,54	6,5	8,6	8,5	1	1	1	1	1	1	1	1	1	0	1	-4,510218	273,73777	313,852318	0
15.01.2021	22:42:48	0	0	2,937548	1,14675	318,7476	-0,025	87,512	0	1017,56	6,5	8,6	8,4	1	1	1	1	1	1	1	1	1	0	1	-6,8358	273,87003	312,142469	0
15.01.2021	22:42:49	0	0	4,406321	1,13325	309,2004	-0,022	87,516	0	1017,6	6,5	8,5	8,4	1	1	1	1	1	1	1	1	1	0	1	-6,412967	273,920233	312,799251	0
15.01.2021	22:42:50	0	0	2,5986	1,13475	308,4588	-0,027	87,485	0	1017,7	6,5	8,6	8,4	1	1	1	1	1	1	1	1	1	0	1	-3,875969	273,892162	315,205421	0
15.01.2021	22:42:51	0	0	2,937548	1,131	309,9024	-0,022	87,498	0	1017,58	6,5	8,6	8,4	1	1	1	1	1	1	1	1	1	0	1	-5,355884	273,75975	313,108919	0
15.01.2021	22:42:52	0	0	4,858252	1,11375	310,7268	-0,025	87,498	0	1017,74	6,5	8,5	8,4	1	1	1	1	1	1	1	1	1	0	1	-3,805497	273,774418	314,727563	0
15.01.2021	22:42:53	0	0	2,5986	1,07775	317,7936	-0,027	87,505	0	1017,66	6,5	8,5	8,4	1	1	1	1	1	1	1	1	1	0	1	-4,510218	273,901022	314,612461	0
15.01.2021	22:42:54	0	0	3,389478	1,01775	321,4224	-0,023	87,501	0	1017,66	6,5	8,6	8,4	1	1	1	1	1	1	1	1	1	0	1	-4,510218	273,917276	314,688217	0
15.01.2021	22:42:55	0	0	3,502461	0,99075	315,9576	-0,024	87,517	0	1017,66	6,5	8,5	8,4	1	1	1	1	1	1	1	1	1	0	1	-5,778717	273,789096	312,822662	0
15.01.2021	22:42:56	0	0	2,372635	1,0815	317,3328	-0,023	87,513	0	1017,58	6,5	8,6	8,4	1	1	1	1	1	1	1	1	1	0	1	-2,889359	273,927626	316,357326	0
15.01.2021	22:42:57	0	0	4,293339	1,14675	311,3352	-0,025	87,496	0	1017,72	6,5	8,6	8,4	1	1	1	1	1	1	1	1	1	0	1	-5,990134	273,789096	312,611245	0
15.01.2021	22:42:58	0	0	4,293339	1,16475	318,5136	-0,021	87,506	0	1017,76	6,7	8,6	8,4	1	1	1	1	1	1	1	1	1	0	1	-5,21494	273,758284	313,243041	0
15.01.2021	22:42:59	0	0	4,632287	1,1835	311,4	-0,026	87,508	0	1017,62	6,5	8,6	8,4	1	1	1	1	1	1	1	1	1	0	1	-8,245243	273,908408	310,911861	0
15.01.2021	22:43:00	0	0	4,519304	1,18875	304,2792	-0,024	87,51	0	1017,82	6,6	8,6	8,4	1	1	1	1	1	1	1	1	1	0	1	-5,567301	273,858237	313,356028	0
15.01.2021	22:43:01	0	0	4,519304	1,18875	304,2792	-0,024	87,51	0	1017,82	6,6	8,6	8,4	1	1	1	1	1	1	1	1	1	0	1	-5,84919	273,932064	313,418182	0
15.01.2021	22:43:02	0	0	2,824565	1,21275	304,9956	-0,032	87,511	0	1017,64	6,6	8,6	8,4	1	1	1	1	1	1	1	1	1	0	1	-7,681466	273,855289	311,228135	0
15.01.2021	22:43:03	0	0	3,841408	1,17825	299,0196	-0,025	87,5	0	1017,68	6,5	8,6	8,4	1	1	1	1	1	1	1	1	1	0	1	-7,047216	273,734841	311,301695	0
15.01.2021	22:43:04	0	0	5,1972	1,17375	297,2052	-0,025	87,5	0	1017,68	6,5	8,6	8,4	1	1	1	1	1	1	1	1	1	0	1	-5,778717	273,868555	313,192681	0
15.01.2021	22:43:05	0	0	4,858252	1,16775	299,7432	-0,02	87,506	0	1017,66	6,5	8,6	8,4	1	1	1	1	1	1	1	1	1	0	1	-8,527132	273,905453	310,616201	0
15.01.2021	22:43:06	0	0	4,632287	1,1145	302,4576	-0,021	87,514	0	1017,52	6,5	8,6	8,4	1	1	1	1	1	1	1	1	1	0	1	-5,003524	273,853816	313,899213	0
15.01.2021	22:43:07	0	0	3,163513	1,098	306,4284	-0,027	87,516	0	1017,66	6,6	8,6	8,4	1	1	1	1	1	1	1	1	1	0	1	-4,862579	273,933543	314,41169	0
15.01.2021	22:43:08	0	0	5,084217	1,068	310,2876	-0,024	87,513	0	1017,54	6,5	8,6	8,4	1	1	1	1	1	1	1	1	1	0	1	-7,258633	273,830256	311,534378	0
15.01.2021	22:43:09	0	0	2,711582	1,08825	312,2064	-0,024	87,517	0	1017,66	6,5	8,6	8,4	1	1	1	1	1	1	1	1	1	0	1	-2,255109	273,750955	316,16877	0
15.01.2021	22:43:10	0	0	3,163513	1,13325	305,3592	-0,022	87,506	0	1017,54	6,6	8,6	8,4	1	1	1	1	1	1	1	1	1	0	1	-4,157858	273,800847	314,498223	0
15.01.2021	22:43:11	0	0	1,920704	1,173	305,0064	-0,025	87,516	0	1017,6	6,6	8,6	8,4	1	1	1	1	1	1	1	1	1	0	1	-7,681466	273,926147	311,558324	0
15.01.2021	22:43:12	0	0	4,858252	1,1685	307,5444	-0,027	87,513	0	1017,48	6,5	8,6	8,4	1	1	1	1	1	1	1	1	1	0	1	-8,315715	273,921711	310,903394	0
15.01.2021	22:43:13	0	0	3,728426	1,182	311,0472	-0,024	87,519	0	1017,56	6,5	8,6	8,4	1	1	1	1	1	1	1	1	1	0	1	-3,100775	273,87003	315,877493	0
15.01.2021	22:43:14	0	0	3,615443	1,25925	303,498	-0,025	87,522	0	1017,52	6,5	8,6	8,4	1	1	1	1	1	1	1	1	1	0	1	-5,990134	273,78616	312,597576	0
15.01.2021	22:43:15	0	0	4,745269	1,3095	311,3964	-0,022	87,503	0	1017,8	6,5	8,6	8,4	1	1	1	1	1	1	1	1	1	0	1	-4,298802	273,761216	314,172824	0
15.01.2021	22:43:16	0	0	3,276495	1,31325	312,4584	-0,024	87,503	0	1017,58	6,6	8,6	8,4	1	1	1	1	1	1	1	1	1	0	1	-5,919662	273,740699	312,456502	0
15.01.2021	22:43:17	0	0	3,389478	1,29	309,906	-0,022	87,507	0	1017,68	6,6	8,6	8,4	1	1	1	1	1	1	1	1	1	0	1	-7,399577	273,781755	311,167634	0
15.01.2021	22:43:18	0	0	2,485617	1,248	308,0448	-0,021	87,52	0	1017,48	6,5	8,6	8,4	1	1	1	1	1	1	1	1	1	0	1	-4,510218	273,809665	314,186914	0
15.01.2021	22:43:19	0	0	2,711582	1,22925	307,2312	-0,022	87,522	0	1017,74	6,5	8,6	8,4	1	1	1	1	1	1	1	1	1	0	1	-3,523608	273,932064	315,743764	0
15.01.2021	22:43:20	0	0	5,084217	1,233	299,7288	-0,015	87,519	0	1017,68	6,5	8,6	8,4	1	1	1	1	1	1	1	1	1	0	1	-4,22833	273,837616	314,598953	0
15.01.2021	22:43:21	0	0	4,180356	1,2255	302,1372	-0,019	87,523	0	1017,56	6,5	8,6	8,4	1	1	1	1	1	1	1	1	1	0	1	-7,82241	273,756818	310,628749	0
15.01.2021	22:43:22	0	0	4,293339	1,2375	298,6452	-0,021	87,506	0	1017,54	6,5	8,6	8,4	1	1	1	1	1	1	1	1	1	0	1	-7,540521	273,806726	311,142925	0
15.01.2021	22:43:23	0	0	2,485617	1,24125	300,1536	-0,02	87,515	0	1017,6	6,5	8,6	8,4	1	1	1	1	1	1	1	1	1	0	1	-6,624383	273,777352	311,922335	0
15.01.2021	22:43:24	0	0	4,519277	1,2225	297,7272	-0,025	87,531	0	1017,6	6,6	8,6	8,5	1	1	1	1	1	1	1	1	1	0	1	-6,906272	273,75975	311,558531	0
15.01.2021	22:43:25	0	0	2,485617	1,16925	295,1388	-0,023	87,525	0	1017,7	6,5	8,6	8,4	1	1	1	1	1	1	1	1	1	0	1	-3,59408	273,881831	315,439169	0
15.01.2021	22:43:26	0	0	2,372635	1,15275	302,8392	-0,02	87,51	0	1017,8	6,5	8,6	8,4	1	1	1	1	1	1	1	1	1	0	1	-5,144468	273,748024	313,265775	0
15.01.2021	22:43:27	0	0	3,728426	1,116	294,4944	-0,021	87,51	0	1017,7	6,5	8,6	8,4	1	1	1	1	1	1	1	1	1	0	1	-2,043693	273,824371	316,721911	0
15.01.2021	22:43:28	0	0	3,05053	1,11075	290,8512	-0,019	87,511	0	1017,72	6,5	8,5	8,4	1	1	1	1	1	1	1	1	1	0	1	-2,466526	273,750955	315,957354	0
15.01.2021	22:43:29	0	0	4,858252	1,101	297,1728	-0,021	87,512	0	1017,58	6,5	8,6	8,4	1	1	1	1	1	1	1	1	1	0	1	-8,45666	273,855289	310,452941	0
15.01.2021	22:43:30	0	0	4,632287	1,068	304,6284	-0,028	87,502	0	1017,56	6,6	8,6	8,4	1	1	1	1	1	1	1	1	1	0	1	-5,990134	273,75242	312,440565	0
15.01.2021	22:43:31	0	0	4,519304	1,0575	301,6368	-0,024	87,5	0	1017,72	6,5	8,6	8,4	1	1	1	1	1	1	1	1	1	0	1	-5,144468	273,887734	313,916287	0
15.01.2021	22:43:32	0	0	2,937548	1,107	302,3964	-0,024	87,523	0	1017,58	6,5	8,6	8,4	1	1	1	1	1	1	1	1	1	0	1	-7,117689	273,790565	311,490526	0
15.01.2021	22:43:33	0	0	3,841408	1,17825	309,5424	-0,02	87,512	0	1017,74	6,6	8,6	8,4	1	1	1	1	1	1	1	1	1	0	1	-5,84919	273,929105	313,40439	0
15.01.2021	22:43:34	0	0	3,389478	1,15725	294,354	-0,023	87,509	0	1017,56	6,6	8,6	8,4	1	1	1	1	1	1	1	1	1	0	1	-6,624383	273,794971	312,004341	0
15.01.2021	22:43:35	0	0	4,293339	1,119	303,5988	-0,021	87,525	0	1017,66	6,5	8,6	8,4	1	1	1	1	1	1	1	1	1	0	1	-2,466526	273,948344	316,876751	0
15.01.2021	22:43:36	0	0	2,5986	1,11375	313,6176	-0,028	87,516	0	1017,72	6,7	8,6	8,4	1	1	1	1	1	1	1	1	1	0	1	-4,862579	273,789096	313,7388	0
15.01.2021	22:43:37	0	0	3,389478	1,0785	309,906	-0,021	87,526	0	1017,7	6,5	8,6	8,4	1	1	1	1	1	1	1	1	1	0	1	-4,298802	273,892162	314,782588	0
15.01.2021	22:43:38	0	0	3,615443	1,12275	310,6512	-0,016	87,513	0	1017,72	6,5	8,6	8,4	1	1	1	1	1	1	1	1	1	0	1	-7,963354	273,87888	311,056146	0
15.01.2021	22:43:39	0	0	3,841408	1,12125	312,48	-0,024	87,517	0	1017,66	6,5	8,5	8,4	1	1	1	1	1	1	1	1	1	0	1	-8,949965	273,880355	310,076409	0
15.01.2021	22:43:40	0	0	3,163513	1,14975	311,7888	-0,021	87,522	0	1017,5	6,5	8,6	8,4	1	1	1	1	1	1	1	1	1	0	1	-3,946441	273,761216	314,525185	0
15.01.2021	22:43:41	0	0	4,858252	1,1685	313,254	-0,025	87,501	0	1017,4	6,6	8,6	8,4	1	1	1	1	1	1	1	1	1	0	1	-11,909796	273,874454	307,089086	0
15.01.2021	22:43:42	0	0	4,971234	1,14075	314,46	-0,019	87,502	0	1017,64	6,5	8,6	8,4	1	1	1	1	1	1	1	1	1	0	1	-5,355884	273,75242	313,074814	0
15.01.2021	22:43:43	0	0	4,971234	1,05975	315,3276	-0,021	87,515	0	1017,66	6,5	8,5	8,4	1	1	1	1	1	1	1	1	1	0	1	-5,84919	273,814076	312,868478	0
15.01.2021	22:43:44	0	0	2,5986	1,0185	315,2412	-0,027	87,486	0	1017,64	6,5	8,6	8,4	1	1	1	1	1	1	1	1	1	0	1	-8,879493	273,933543	310,394777	0
15.01.2021	22:43:45	0	0	4,632287	0,9855	315,1476	-0,021	87,517	0	1017,6	6,5	8,6	8,4	1	1	1	1	1	1	1	1	1	0	1	-6,694856	273,809665	312,002277	0
15.01.2021	22:43:46	0	0	2,259652	0,972	321,1308	-0,023	87,508	0	1017,62	6,5	8,6	8,4	1	1	1	1	1	1	1	1	1	0	1	-9,090909	273,755352	309,35343	0
15.01.2021	22:43:47	0	0	3,615443	0,91875	324,792	-0,023	87,501	0	1017,64	6,5	8,6	8,4	1	1	1	1	1	1	1	1	1	0	1	-6,483439	273,892162	312,597951	0
15.01.2021	22:43:48	0	0	2,824565	0,8805	321,4152	-0,018	87,526	0	1017,54	6,5	8,6	8,4	1	1	1	1	1	1	1	1	1	0	1	-4,157858	273,764149	314,327416	0
15.01.2021	22:43:49	0	0	4,971234	0,80625	325,1088	-0,017	87,519	0	1017,58	6,5	8,6	8,4	1	1	1	1	1	1	1	1	1	0	1	-2,818887	273,85971	316,111308	0
15.01.2021	22:43:50	0	0	4,406321	0,7725	332,7804	-0,017	87,52	0	1017,6	6,5	8,6	8,4	1	1	1	1	1	1	1	1	1	0	1	-9,44327	273,926147	309,79652	0
15.01.2021	22:43:51	0	0	3,05053	0,72075	335,2752	-0,025	87,516	0	1017,68	6,5	8,6	8,4	1	1	1	1	1	1	1	1	1	0	1	-4,933051	273,780288	313,627329	0
15.01.2021	22:43:52	0	0	4,745269	0,699	327,834	-0,022	87,515	0	1017,64	6,5	8,6	8,4	1	1	1	1	1	1	1	1	1	0	1	-7,188161	273,806726	311,495285	0
15.01.2021	22:43:53	0	0	4,519304	0,69675	318,3984	-0,023	87,525	0	1017,68	6,5	8,6	8,4	1	1	1	1	1	1	1	1	1	0	1	-3,664553	273,767082	314,834371	0
15.01.2021	22:43:54	0	0	2,259652	0,69375	321,2136	-0,025	87,522	0	1017,48	6,5	8,6	8,4	1	1	1	1	1	1	1	1	1	0	1	-7,258633	273,8332	311,548084	0
15.01.2021	22:43:55	0	0	3,502461	0,69375	329,598	-0,026	87,519	0	1017,56	6,5	8,6	8,4	1	1	1	1	1	1	1	1	1	0	1	-1,198027	273,736305	317,157697	0
15.01.2021	22:43:56	0	0	4,067374	0,6975	325,5336	-0,023	87,52	0	1017,8	6,5	8,6	8,4	1	1	1	1	1	1	1	1	1	0	1	-5,637773	273,827313	313,141533	0
15.01.2021	22:43:57	0	0	4,406321	0,66375	322,9128	-0,024	87,528	0	1017,6	6,5	8,6	8,4	1	1	1	1	1	1	1	1	1	0	1	-5,426357	273,753886	313,011162	0
15.01.2021	22:43:58	0	0	4,067374	0,6705	327,4308	-0,027	87,516	0	1017,68	6,5	8,6	8,4	1	1	1	1	1	1	1	1	1	0	1	-5,144468	273,793502	313,47742	0
15.01.2021	22:43:59	0	0	2,5986	0,66	332,3376	-0,024	87,511	0	1017,76	6,5	8,6	8,4	1	1	1	1	1	1	1	1	1	0	1	-3,735025	273,936503	315,553041	0
15.01.2021	22:44:00	0	0	4,745269	0,64875	329,6664	-0,028	87,523	0	1017,64	6,5	8,6	8,4	1	1	1	1	1	1	1	1	1	0	1	-4,721635	273,902499	314,407928	0
15.01.2021	22:44:01	0	0	3,163513	0,62175	324,7344	-0,027	87,51	0	1017,44	6,5	8,6	8,4	1	1	1	1	1	1	1	1	1	0	1	-5,919662	273,87003	313,058607	0
15.01.2021	22:44:02	0	0	2,824565	0,6255	327,4884	-0,019	87,558	0	1018,02	6,5	8,6	8,4	1	1	1	1	1	1	1	1	1	0	1	-11,346018	273,742164	307,03696	0
15.01.2021	22:44:03	0	0	4,632287	0,61125	331,452	-0,021	87,519	0	1017,66	6,6	8,6	8,4	1	1	1	1	1	1	1	1	1	0	1	-4,792107	273,811135	313,91187	0
15.01.2021	22:44:04	0	0	5,084217	0,606	330,7968	-0,024	87,521	0	1017,66	6,5	8,6	8,4	1	1	1	1	1	1	1	1	1	0	1	-6,906272	273,917276	312,292163	0
15.01.2021	22:44:05	0	0	2,711582	0,615	324,5112	-0,021	87,52	0	1017,64	6,5	8,6	8,4	1	1	1	1	1	1	1	1	1	0	1	-5,637773	273,87003	313,340495	0
15.01.2021	22:44:06	0	0	3,615443	0,61575	315,8856	-0,024	87,52	0	1017,6	6,5	8,6	8,4	1	1	1	1	1	1	1	1	1	0	1	-5,003524	273,740699	313,37264	0
15.01.2021	22:44:07	0	0	2,485617	0,594	314,4204	-0,024	87,524	0	1017,62	6,5	8,6	8,4	1	1	1	1	1	1	1	1	1	0	1	-7,258633	273,775885	311,281256	0
15.01.2021	22:44:08	0	0	4,745269	0,59025	318,096	-0,025	87,505	0	1017,6	6,5	8,6	8,4	1	1	1	1	1	1	1	1	1	0	1	-8,104299	273,755352	310,34004	0
15.01.2021	22:44:09	0	0	4,406321	0,603	319,1724	-0,023	87,525	0	1017,74	6,5	8,6	8,4	1	1	1	1	1	1	1	1	1	0	1	-8,80902	273,902499	310,320543	0
15.01.2021	22:44:10	0	0	3,05053	0,6225	322,956	-0,025	87,53	0	1017,58	6,5	8,6	8,4	1	1	1	1	1	1	1	1	1	0	1	-4,22833	273,77882	314,325219	0
15.01.2021	22:44:11	0	0	4,180356	0,61125	328,1364	-0,028	87,517	0	1017,72	6,5	8,6	8,4	1	1	1	1	1	1	1	1	1	0	1	-6,765328	273,800847	311,890753	0
15.01.2021	22:44:12	0	0	3,728426	0,567	328,6692	-0,024	87,509	0	1017,54	6,5	8,6	8,4	1	1	1	1	1	1	1	1	1	0	1	-5,990134	273,926147	313,249656	0
15.01.2021	22:44:13	0	0	2,824565	0,51975	321,7428	-0,025	87,516	0	1017,72	6,5	8,6	8,4	1	1	1	1	1	1	1	1	1	0	1	-5,426357	273,825842	313,346098	0
15.01.2021	22:44:14	0	0	4,519304	0,49875	315,5184	-0,024	87,532	0	1017,48	6,5	8,6	8,4	1	1	1	1	1	1	1	1	1	0	1	-6,20155	273,750955	312,222329	0
15.01.2021	22:44:15	0	0	2,824565	0,51825	318,384	-0,024	87,524	0	1017,38	6,5	8,6	8,4	1	1	1	1	1	1	1	1	1	0	1	-5,073996	273,843505	313,780716	0
15.01.2021	22:44:16	0	0	4,632287	0,50775	324,5436	-0,026	87,513	0	1017,56	6,5	8,6	8,4	1	1	1	1	1	1	1	1	1	0	1	-4,792107	273,91432	314,392549	0
15.01.2021	22:44:17	0	0	2,824565	0,558	322,9668	-0,023	87,525	0	1017,6	6,6	8,6	8,4	1	1	1	1	1	1	1	1	1	0	1	-3,030303	273,762683	315,448146	0
15.01.2021	22:44:18	0	0	4,519304	0,57675	317,7216	-0,024	87,527	0	1017,56	6,6	8,6	8,4	1	1	1	1	1	1	1	1	1	0	1	-3,523608	273,886258	315,530269	0
15.01.2021	22:44:19	0	0	2,372635	0,63075	319,5396	-0,032	87,522	0	1017,56	6,5	8,6	8,4	1	1	1	1	1	1	1	1	1	0	1	-1,691332	273,855289	317,218268	0
15.01.2021	22:44:20	0	0	3,502461	0,63075	322,2324	-0,027	87,508	0	1017,48	6,5	8,6	8,4	1	1	1	1	1	1	1	1	1	0	1	-9,513742	273,784691	309,067135	0
15.01.2021	22:44:21	0	0	4,858252	0,606	321,426	-0,024	87,521	0	1017,52	6,5	8,6	8,4	1	1	1	1	1	1	1	1	1	0	1	-5,426357	273,929105	313,827223	0
15.01.2021	22:44:22	0	0	4,858252	0,62775	321,1488	-0,022	87,528	0	1017,54	6,5	8,6	8,4	1	1	1	1	1	1	1	1	1	0	1	-9,936575	273,792033	308,678476	0
15.01.2021	22:44:23	0	0	2,824565	0,60075	320,7168	-0,024	87,532	0	1017,6	6,5	8,6	8,4	1	1	1	1	1	1	1	1	1	0	1	-11,768851	273,899545	307,346945	0
15.01.2021	22:44:24	0	0	3,276495	0,63825	319,32	-0,019	87,557	0	1017,96	6,5	8,6	8,4	1	1	1	1	1	1	1	1	1	0	1	-5,990134	273,749489	312,426927	0
15.01.2021	22:44:25	0	0	4,858252	0,67425	319,1832	-0,026	87,528	0	1017,6	6,5	8,6	8,4	1	1	1	1	1	1	1	1	1	0	1	-5,567301	273,8332	313,239416	0
15.01.2021	22:44:26	0	0	2,5986	0,69825	324,4284	-0,026	87,519	0	1017,6	6,5	8,6	8,4	1	1	1	1	1	1	1	1	1	0	1	-4,721635	273,92319	314,504367	0
15.01.2021	22:44:27	0	0	4,406321	0,717	340,8516	-0,026	87,525	0	1017,56	6,6	8,6	8,4	1	1	1	1	1	1	1	1	1	0	1	-6,765328	273,85971	312,164866	0
15.01.2021	22:44:28	0	0	3,841408	0,72825	340,9416	-0,021	87,529	0	1017,66	6,5	8,6	8,4	1	1	1	1	1	1	1	1	1	0	1	-3,523608	273,736305	314,832116	0
15.01.2021	22:44:29	0	0	5,084217	0,70425	330,7356	-0,025	87,533	0	1017,74	6,6	8,6	8,4	1	1	1	1	1	1	1	1	1	0	1	-7,117689	273,846451	311,750741	0
15.01.2021	22:44:30	0	0	3,615443	0,68025	322,8984	-0,027	87,523	0	1017,52	6,7	8,6	8,4	1	1	1	1	1	1	1	1	1	0	1	-6,060606	273,926147	313,179184	0
15.01.2021	22:44:31	0	0	3,615443	0,64425	322,5816	-0,028	87,526	0	1017,68	6,5	8,6	8,4	1	1	1	1	1	1	1	1	1	0	1	-3,100775	273,792033	315,514276	0
15.01.2021	22:44:32	0	0	3,954391	0,62775	322,5816	-0,029	87,515	0	1017,76	6,6	8,6	8,4	1	1	1	1	1	1	1	1	1	0	1	-7,681466	273,753886	310,756052	0
15.01.2021	22:44:33	0	0	4,067374	0,6225	325,5192	-0,03	87,516	0	1017,56	6,5	8,6	8,4	1	1	1	1	1	1	1	1	1	0	1	-9,020437	273,881831	310,012812	0
15.01.2021	22:44:34	0	0	2,711582	0,63675	330,7752	-0,026	87,52	0	1017,64	6,5	8,6	8,4	1	1	1	1	1	1	1	1	1	0	1	-12,825934	273,753886	305,611585	0
15.01.2021	22:44:35	0	0	2,5986	0,5895	335,2644	-0,024	87,513	0	1017,62	6,5	8,6	8,4	1	1	1	1	1	1	1	1	1	0	1	-7,188161	273,799378	311,46108	0
15.01.2021	22:44:36	0	0	4,293339	0,564	337,1868	-0,027	87,529	0	1017,68	6,5	8,6	8,4	1	1	1	1	1	1	1	1	1	0	1	-7,258633	273,924668	311,974263	0
15.01.2021	22:44:37	0	0	3,163513	0,5475	333,5148	-0,029	87,526	0	1017,52	6,6	8,6	8,4	1	1	1	1	1	1	1	1	1	0	1	-6,342495	273,867081	312,622035	0
15.01.2021	22:44:38	0	0	2,485617	0,507	327,8556	-0,028	87,518	0	1017,78	6,6	8,6	8,4	1	1	1	1	1	1	1	1	1	0	1	-7,610994	273,746559	310,792433	0
15.01.2021	22:44:39	0	0	3,502461	0,504	324,3204	-0,018	87,521	0	1017,6	6,5	8,6	8,4	1	1	1	1	1	1	1	1	1	0	1	-4,862579	273,84056	313,978417	0
15.01.2021	22:44:40	0	0	4,519304	0,4425	322,182	-0,026	87,516	0	1017,6	6,5	8,6	8,4	1	1	1	1	1	1	1	1	1	0	1	-4,933051	273,917276	314,265384	0
15.01.2021	22:44:41	0	0	2,711582	0,435	321,4512	-0,029	87,512	0	1017,56	6,5	8,6	8,4	1	1	1	1	1	1	1	1	1	0	1	-3,805497	273,87888	315,214003	0
15.01.2021	22:44:42	0	0	4,406321	0,4125	319,5972	-0,027	87,517	0	1017,54	6,6	8,6	8,4	1	1	1	1	1	1	1	1	1	0	1	-3,24172	273,73777	315,120817	0
15.01.2021	22:44:43	0	0	4,406321	0,43575	316,7712	-0,023	87,524	0	1017,62	6,6	8,6	8,4	1	1	1	1	1	1	1	1	1	0	1	-8,245243	273,767082	310,253681	0
15.01.2021	22:44:44	0	0	4,632287	0,444	314,5716	-0,032	87,521	0	1017,58	6,6	8,6	8,4	1	1	1	1	1	1	1	1	1	0	1	-6,694856	273,750955	311,729024	0
15.01.2021	22:44:45	0	0	3,728426	0,46725	316,2456	-0,029	87,526	0	1017,64	6,5	8,6	8,4	1	1	1	1	1	1	1	1	1	0	1	-5,990134	273,784691	312,590743	0
15.01.2021	22:44:46	0	0	4,745269	0,516	318,8412	-0,032	87,528	0	1017,56	6,5	8,6	8,4	1	1	1	1	1	1	1	1	1	0	1	-8,45666	273,932064	310,810712	0
15.01.2021	22:44:47	0	0	2,937548	0,53775	320,0796	-0,023	87,521	0	1017,52	6,5	8,6	8,4	1	1	1	1	1	1	1	1	1	0	1	-6,20155	273,858237	312,721779	0
15.01.2021	22:44:48	0	0	3,954391	0,53625	318,8844	-0,027	87,512	0	1017,66	6,5	8,6	8,4	1	1	1	1	1	1	1	1	1	0	1	-6,131078	273,745094	312,265532	0
15.01.2021	22:44:49	0	0	3,954391	0,5655	315,504	-0,024	87,588	0	1017,7	6,5	8,6	8,4	1	1	1	1	1	1	1	1	1	0	1	-4,721635	273,808195	313,968654	0
15.01.2021	22:44:50	0	0	2,937548	0,5445	319,1544	-0,029	87,514	0	1017,72	6,6	8,6	8,4	1	1	1	1	1	1	1	1	1	0	1	-2,466526	273,927626	316,780159	0
15.01.2021	22:44:51	0	0	4,519304	0,57375	327,1068	-0,029	87,524	0	1017,6	6,6	8,6	8,4	1	1	1	1	1	1	1	1	1	0	1	-8,033827	273,802317	310,629094	0
15.01.2021	22:44:52	0	0	3,841408	0,555	328,5612	-0,036	87,523	0	1017,56	6,5	8,6	8,4	1	1	1	1	1	1	1	1	1	0	1	-11,980268	273,896591	307,121764	0
15.01.2021	22:44:53	0	0	3,954391	0,54525	320,0184	-0,028	87,523	0	1017,74	6,6	8,6	8,4	1	1	1	1	1	1	1	1	1	0	1	-8,104299	273,8229	310,654455	0
15.01.2021	22:44:54	0	0	2,259652	0,534	314,82	-0,027	87,512	0	1017,56	6,5	8,6	8,4	1	1	1	1	1	1	1	1	1	0	1	-4,721635	273,926147	314,518155	0
15.01.2021	22:44:55	0	0	4,971234	0,52425	319,2048	-0,028	87,498	0	1017,6	6,6	8,6	8,4	1	1	1	1	1	1	1	1	1	0	1	-8,315715	273,867081	310,648815	0
15.01.2021	22:44:56	0	0	4,519304	0,504	327,4776	-0,03	87,515	0	1017,64	6,6	8,6	8,4	1	1	1	1	1	1	1	1	1	0	1	-8,80902	273,749489	309,608041	0
15.01.2021	22:44:57	0	0	2,824565	0,486	330,3216	-0,027	87,516	0	1017,6	6,5	8,6	8,4	1	1	1	1	1	1	1	1	1	0	1	-7,117689	273,818487	311,620519	0
15.01.2021	22:44:58	0	0	4,971234	0,48975	329,328	-0,027	87,519	0	1017,66	6,5	8,6	8,4	1	1	1	1	1	1	1	1	1	0	1	-3,171247	273,929105	316,082332	0
15.01.2021	22:44:59	0	0	4,180356	0,46125	327,8556	-0,031	87,51	0	1017,56	6,5	8,6	8,4	1	1	1	1	1	1	1	1	1	0	1	-5,496829	273,855289	313,412772	0
15.01.2021	22:45:00	0	0	4,632287	0,411	325,908	-0,034	87,514	0	1017,56	6,5	8,6	8,4	1	1	1	1	1	1	1	1	1	0	1	-7,117689	273,917276	312,080747	0
15.01.2021	22:45:01	0	0	3,728426	0,43725	320,7456	-0,035	87,505	0	1017,54	6,5	8,6	8,4	1	1	1	1	1	1	1	1	1	0	1	-10,077519	273,87003	308,900749	0
15.01.2021	22:45:02	0	0	4,971234	0,4305	314,3988	-0,028	87,52	0	1017,6	6,5	8,6	8,4	1	1	1	1	1	1	1	1	1	0	1	-5,778717	273,924668	313,454178	0
15.01.2021	22:45:03	0	0	4,067374	0,429	309,1716	-0,031	87,525	0	1017,74	6,5	8,6	8,4	1	1	1	1	1	1	1	1	1	0	1	-4,651163	273,853816	314,251574	0
15.01.2021	22:45:04	0	0	2,372635	0,4965	305,514	-0,027	87,518	0	1017,56	6,5	8,6	8,4	1	1	1	1	1	1	1	1	1	0	1	-8,245243	273,736305	310,110481	0
15.01.2021	22:45:05	0	0	2,824565	0,53325	304,596	-0,029	87,512	0	1017,58	6,6	8,6	8,4	1	1	1	1	1	1	1	1	1	0	1	-7,047216	273,853816	311,855521	0
15.01.2021	22:45:06	0	0	4,971234	0,55425	303,2172	-0,033	87,527	0	1017,52	6,5	8,5	8,4	1	1	1	1	1	1	1	1	1	0	1	-6,624383	273,927626	312,622301	0
15.01.2021	22:45:07	0	0	2,937548	0,543	302,5188	-0,034	87,52	0	1017,74	6,6	8,6	8,4	1	1	1	1	1	1	1	1	1	0	1	-9,302326	273,811135	309,401652	0
15.01.2021	22:45:08	0	0	3,728426	0,51	302,0796	-0,029	87,5	0	1017,56	6,5	8,6	8,4	1	1	1	1	1	1	1	1	1	0	1	-7,399577	273,91432	311,785079	0
15.01.2021	22:45:09	0	0	4,519304	0,52425	305,0028	-0,031	87,515	0	1017,58	6,5	8,6	8,4	1	1	1	1	1	1	1	1	1	0	1	-8,315715	273,884782	310,731285	0
15.01.2021	22:45:10	0	0	4,180356	0,53925	306,4212	-0,029	87,516	0	1017,6	6,5	8,6	8,4	1	1	1	1	1	1	1	1	1	0	1	-8,386187	273,746559	310,017239	0
15.01.2021	22:45:11	0	0	4,632287	0,54375	302,8032	-0,029	87,514	0	1017,62	6,6	8,6	8,4	1	1	1	1	1	1	1	1	1	0	1	-9,725159	273,871505	309,25998	0
15.01.2021	22:45:12	0	0	3,615443	0,561	303,1452	-0,029	87,517	0	1017,6	6,5	8,6	8,4	1	1	1	1	1	1	1	1	1	0	1	-8,245243	273,745094	310,151367	0
15.01.2021	22:45:13	0	0	2,824565	0,55425	301,9824	-0,032	87,504	0	1017,58	6,5	8,6	8,4	1	1	1	1	1	1	1	1	1	0	1	-5,990134	273,850869	312,898878	0
15.01.2021	22:45:14	0	0	3,615443	0,54075	296,9136	-0,029	87,505	0	1017,52	6,5	8,6	8,4	1	1	1	1	1	1	1	1	1	0	1	-7,892882	273,733377	310,449218	0
15.01.2021	22:45:15	0	0	4,971234	0,5475	291,1608	-0,024	87,522	0	1017,7	6,5	8,6	8,4	1	1	1	1	1	1	1	1	1	0	1	-2,889359	273,84056	315,951637	0
15.01.2021	22:45:16	0	0	4,519304	0,5535	288,036	-0,027	87,504	0	1017,62	6,5	8,6	8,4	1	1	1	1	1	1	1	1	1	0	1	-2,889359	273,918754	316,315968	0
15.01.2021	22:45:17	0	0	4,519304	0,54	291,8772	-0,03	87,501	0	1017,68	6,5	8,6	8,4	1	1	1	1	1	1	1	1	1	0	1	-11,134602	273,850869	307,75441	0
15.01.2021	22:45:18	0	0	4,406321	0,58425	298,9764	-0,028	87,512	0	1017,64	6,6	8,6	8,4	1	1	1	1	1	1	1	1	1	0	1	-8,174771	273,921711	311,044339	0
15.01.2021	22:45:19	0	0	3,276495	0,5625	300,8196	-0,031	87,521	0	1017,6	6,5	8,6	8,4	1	1	1	1	1	1	1	1	1	0	1	-7,681466	273,849396	311,200685	0
15.01.2021	22:45:20	0	0	3,728426	0,57	298,0476	-0,028	87,515	0	1017,64	6,5	8,6	8,4	1	1	1	1	1	1	1	1	1	0	1	-6,906272	273,73777	311,456265	0
15.01.2021	22:45:21	0	0	4,971234	0,57975	297,234	-0,028	87,503	0	1017,62	6,5	8,6	8,4	1	1	1	1	1	1	1	1	1	0	1	-6,976744	273,901022	312,145935	0
15.01.2021	22:45:22	0	0	4,519304	0,6135	299,394	-0,035	87,502	0	1017,48	6,5	8,6	8,4	1	1	1	1	1	1	1	1	1	0	1	-9,725159	273,792033	308,889892	0
15.01.2021	22:45:23	0	0	3,05053	0,59025	299,4012	-0,028	87,514	0	1017,68	6,6	8,6	8,4	1	1	1	1	1	1	1	1	1	0	1	-4,651163	273,75242	313,779536	0
15.01.2021	22:45:24	0	0	2,937548	0,59025	298,7532	-0,034	87,507	0	1017,46	6,5	8,6	8,4	1	1	1	1	1	1	1	1	1	0	1	-2,818887	273,79644	315,816676	0
15.01.2021	22:45:25	0	0	2,5986	0,56625	299,8116	-0,03	87,509	0	1017,72	6,5	8,6	8,4	1	1	1	1	1	1	1	1	1	0	1	-2,677942	273,742164	315,705036	0
15.01.2021	22:45:26	0	0	5,1972	0,52275	303,1524	-0,03	87,508	0	1017,58	6,5	8,6	8,4	1	1	1	1	1	1	1	1	1	0	1	-7,329105	273,868555	311,642294	0
15.01.2021	22:45:27	0	0	4,406321	0,4965	306,4428	-0,037	87,501	0	1017,52	6,5	8,6	8,4	1	1	1	1	1	1	1	1	1	0	1	-4,369274	273,892162	314,712116	0
15.01.2021	22:45:28	0	0	2,5986	0,48525	304,9776	-0,031	87,485	0	1017,54	6,5	8,6	8,4	1	1	1	1	1	1	1	1	1	0	1	-6,060606	273,908408	313,096498	0
15.01.2021	22:45:29	0	0	4,406321	0,48	299,3652	-0,029	87,512	0	1017,76	6,6	8,6	8,4	1	1	1	1	1	1	1	1	1	0	1	-5,285412	273,91432	313,899244	0
15.01.2021	22:45:30	0	0	4,519304	0,4635	295,4772	-0,029	87,487	0	1017,56	6,5	8,6	8,4	1	1	1	1	1	1	1	1	1	0	1	-7,681466	273,898068	311,427448	0
15.01.2021	22:45:31	0	0	4,406321	0,46125	295,1676	-0,029	87,503	0	1017,66	6,5	8,6	8,4	1	1	1	1	1	1	1	1	1	0	1	-6,8358	273,868555	312,135599	0
15.01.2021	22:45:32	0	0	3,163513	0,4605	298,692	-0,036	87,506	0	1017,64	6,5	8,6	8,4	1	1	1	1	1	1	1	1	1	0	1	-9,513742	273,727521	308,801118	0
15.01.2021	22:45:33	0	0	4,406321	0,474	305,334	-0,029	87,509	0	1017,58	6,5	8,6	8,4	1	1	1	1	1	1	1	1	1	0	1	-3,875969	273,843505	314,978743	0
15.01.2021	22:45:34	0	0	3,615443	0,4635	311,6952	-0,027	87,497	0	1017,58	6,5	8,6	8,4	1	1	1	1	1	1	1	1	1	0	1	-9,795631	273,920233	309,416587	0
15.01.2021	22:45:35	0	0	2,711582	0,45675	314,0388	-0,029	87,49	0	1017,42	6,5	8,6	8,4	1	1	1	1	1	1	1	1	1	0	1	-6,8358	273,849396	312,046351	0
15.01.2021	22:45:36	0	0	3,502461	0,45675	311,6952	-0,026	87,5	0	1017,54	6,5	8,6	8,4	1	1	1	1	1	1	1	1	1	0	1	-3,030303	273,740699	315,345861	0
15.01.2021	22:45:37	0	0	5,423165	0,44625	307,6236	-0,031	87,495	0	1017,64	6,6	8,6	8,4	1	1	1	1	1	1	1	1	1	0	1	-9,372798	273,874454	309,626084	0
15.01.2021	22:45:38	0	0	2,711582	0,4425	308,4444	-0,029	87,499	0	1017,72	6,5	8,6	8,4	1	1	1	1	1	1	1	1	1	0	1	-3,735025	273,764149	314,750249	0
15.01.2021	22:45:39	0	0	4,293339	0,4305	309,5892	-0,031	87,503	0	1017,64	6,6	8,6	8,4	1	1	1	1	1	1	1	1	1	0	1	-7,399577	273,902499	311,729986	0
15.01.2021	22:45:40	0	0	4,067374	0,38625	309,2616	-0,03	87,51	0	1017,6	6,5	8,6	8,4	1	1	1	1	1	1	1	1	1	0	1	-0	273,909886	319,163991	0
15.01.2021	22:45:41	0	0	4,632287	0,37425	308,826	-0,03	87,518	0	1017,64	6,5	8,6	8,4	1	1	1	1	1	1	1	1	1	0	1	-6,624383	273,781755	311,942828	0
15.01.2021	22:45:42	0	0	4,858252	0,42525	312,1308	-0,033	87,492	0	1017,56	6,5	8,6	8,4	1	1	1	1	1	1	1	1	1	0	1	-6,483439	273,862658	312,460487	0
15.01.2021	22:45:43	0	0	3,502461	0,414	317,7072	-0,026	87,499	0	1017,54	6,5	8,6	8,4	1	1	1	1	1	1	1	1	1	0	1	-4,087385	273,902499	315,042178	0
15.01.2021	22:45:44	0	0	4,067374	0,4275	325,062	-0,033	87,496	0	1017,48	6,6	8,6	8,4	1	1	1	1	1	1	1	1	1	0	1	-7,399577	273,855289	311,510023	0
15.01.2021	22:45:45	0	0	2,372635	0,41175	330,7932	-0,026	87,504	0	1017,62	6,6	8,6	8,4	1	1	1	1	1	1	1	1	1	0	1	-1,338971	273,739234	317,030379	0
15.01.2021	22:45:46	0	0	5,1972	0,387	326,3184	-0,032	87,493	0	1017,68	6,5	8,6	8,4	1	1	1	1	1	1	1	1	1	0	1	-7,329105	273,799378	311,320136	0
15.01.2021	22:45:47	0	0	2,146669	0,3915	320,3424	-0,031	87,507	0	1017,64	6,5	8,6	8,4	1	1	1	1	1	1	1	1	1	0	1	-9,231853	273,924668	310,001042	0
15.01.2021	22:45:48	0	0	2,824565	0,4185	320,3784	-0,027	87,517	0	1017,58	6,5	8,6	8,4	1	1	1	1	1	1	1	1	1	0	1	-9,44327	273,794971	309,185455	0
15.01.2021	22:45:49	0	0	4,406321	0,38025	324,1872	-0,03	87,496	0	1017,54	6,5	8,6	8,4	1	1	1	1	1	1	1	1	1	0	1	-4,298802	273,745094	314,097808	0
15.01.2021	22:45:50	0	0	4,519304	0,384	326,7468	-0,03	87,495	0	1017,64	6,5	8,6	8,4	1	1	1	1	1	1	1	1	1	0	1	-6,976744	273,853816	311,925993	0
15.01.2021	22:45:51	0	0	2,824565	0,363	324,3888	-0,029	87,499	0	1017,56	6,6	8,6	8,4	1	1	1	1	1	1	1	1	1	0	1	-7,470049	273,909886	311,693942	0
15.01.2021	22:45:52	0	0	2,824565	0,38175	317,7504	-0,037	87,487	0	1017,58	6,5	8,6	8,4	1	1	1	1	1	1	1	1	1	0	1	-4,651163	273,852343	314,244712	0
15.01.2021	22:45:53	0	0	2,711582	0,35775	306,414	-0,03	87,498	0	1017,46	6,5	8,6	8,4	1	1	1	1	1	1	1	1	1	0	1	-3,312192	273,764149	315,173082	0
15.01.2021	22:45:54	0	0	4,180356	0,414	299,7756	-0,027	87,504	0	1017,62	6,6	8,6	8,4	1	1	1	1	1	1	1	1	1	0	1	-3,875969	273,899545	315,239827	0
15.01.2021	22:45:55	0	0	4,519304	0,438	302,4648	-0,031	87,487	0	1017,62	6,5	8,6	8,4	1	1	1	1	1	1	1	1	1	0	1	-2,677942	273,868555	316,293457	0
15.01.2021	22:45:56	0	0	4,406321	0,42075	310,7016	-0,038	87,483	0	1017,62	6,5	8,6	8,4	1	1	1	1	1	1	1	1	1	0	1	-9,44327	273,903976	309,693177	0
15.01.2021	22:45:57	0	0	4,519304	0,45675	315,558	-0,038	87,502	0	1017,64	6,5	8,6	8,4	1	1	1	1	1	1	1	1	1	0	1	-5,990134	273,868555	312,981265	0
15.01.2021	22:45:58	0	0	2,711582	0,486	314,4636	-0,034	87,49	0	1017,62	6,5	8,6	8,4	1	1	1	1	1	1	1	1	1	0	1	-8,45666	273,742164	309,926319	0
15.01.2021	22:45:59	0	0	3,276495	0,47925	312,1344	-0,028	87,482	0	1017,54	6,5	8,6	8,4	1	1	1	1	1	1	1	1	1	0	1	-4,510218	273,755352	313,93412	0
15.01.2021	22:46:00	0	0	4,632287	0,57525	314,8056	-0,041	87,493	0	1017,56	6,7	8,6	8,4	1	1	1	1	1	1	1	1	1	0	1	-7,82241	273,809665	310,874723	0
15.01.2021	22:46:01	0	0	4,632287	0,57525	314,8056	-0,041	87,493	0	1017,56	6,7	8,6	8,4	1	1	1	1	1	1	1	1	1	0	1	-6,976744	273,905453	312,166588	0
15.01.2021	22:46:02	0	0	4,519304	0,58575	314,7804	-0,027	87,494	0	1017,52	6,5	8,6	8,4	1	1	1	1	1	1	1	1	1	0	1	-6,131078	273,770016	312,381498	0
15.01.2021	22:46:03	0	0	3,728426	0,606	311,4432	-0,03	87,512	0	1017,7	6,5	8,6	8,4	1	1	1	1	1	1	1	1	1	0	1	-5,990134	273,898068	313,11878	0
15.01.2021	22:46:04	0	0	4,067374	0,60675	307,1016	-0,033	87,494	0	1017,6	6,5	8,6	8,4	1	1	1	1	1	1	1	1	1	0	1	-7,610994	273,799378	311,038247	0
15.01.2021	22:46:05	0	0	4,632287	0,58725	306,1296	-0,037	87,496	0	1017,66	6,5	8,6	8,4	1	1	1	1	1	1	1	1	1	0	1	-7,82241	273,902499	311,307153	0
15.01.2021	22:46:06	0	0	3,841408	0,61725	301,5828	-0,032	87,502	0	1017,64	6,5	8,6	8,4	1	1	1	1	1	1	1	1	1	0	1	-7,751938	273,809665	310,945195	0
15.01.2021	22:46:07	0	0	4,180356	0,58425	300,9204	-0,031	87,506	0	1017,78	6,6	8,6	8,4	1	1	1	1	1	1	1	1	1	0	1	-7,047216	273,777352	311,499502	0
15.01.2021	22:46:08	0	0	3,841408	0,5805	306,4428	-0,034	87,484	0	1017,66	6,5	8,6	8,4	1	1	1	1	1	1	1	1	1	0	1	-7,610994	273,881831	311,422255	0
15.01.2021	22:46:09	0	0	3,954391	0,57375	317,6676	-0,038	87,494	0	1017,62	6,5	8,6	8,4	1	1	1	1	1	1	1	1	1	0	1	-7,188161	273,84056	311,652835	0
15.01.2021	22:46:10	0	0	4,858252	0,51675	314,0352	-0,035	87,494	0	1017,54	6,5	8,6	8,4	1	1	1	1	1	1	1	1	1	0	1	-6,20155	273,91432	312,983105	0
15.01.2021	22:46:11	0	0	3,954391	0,50175	302,0076	-0,031	87,496	0	1017,56	6,5	8,6	8,4	1	1	1	1	1	1	1	1	1	0	1	-8,245243	273,780288	310,315137	0
15.01.2021	22:46:12	0	0	3,954391	0,4575	305,7588	-0,035	87,493	0	1017,6	6,5	8,6	8,4	1	1	1	1	1	1	1	1	1	0	1	-6,342495	273,721667	311,945136	0
15.01.2021	22:46:13	0	0	4,406321	0,4755	307,6092	-0,031	87,499	0	1017,66	6,6	8,6	8,4	1	1	1	1	1	1	1	1	1	0	1	-9,936575	273,746559	308,466851	0
15.01.2021	22:46:14	0	0	2,372635	0,46125	306,1476	-0,027	87,496	0	1017,66	6,5	8,6	8,4	1	1	1	1	1	1	1	1	1	0	1	-3,664553	273,797909	314,977849	0
15.01.2021	22:46:15	0	0	3,954391	0,459	304,236	-0,031	87,505	0	1017,64	6,5	8,6	8,4	1	1	1	1	1	1	1	1	1	0	1	-6,8358	273,745094	311,56081	0
15.01.2021	22:46:16	0	0	3,954391	0,42225	302,9112	-0,039	87,484	0	1017,52	6,5	8,6	8,4	1	1	1	1	1	1	1	1	1	0	1	-0,070472	273,824371	318,695132	0
15.01.2021	22:46:17	0	0	3,841408	0,4155	303,1452	-0,035	87,507	0	1017,66	6,5	8,6	8,4	1	1	1	1	1	1	1	1	1	0	1	-6,483439	273,727521	311,831421	0
15.01.2021	22:46:18	0	0	3,841408	0,42075	302,0724	-0,035	87,486	0	1017,52	6,6	8,6	8,4	1	1	1	1	1	1	1	1	1	0	1	-8,45666	273,836144	310,363767	0
15.01.2021	22:46:19	0	0	4,858252	0,4155	301,176	-0,037	87,484	0	1017,56	6,5	8,6	8,4	1	1	1	1	1	1	1	1	1	0	1	-5,285412	273,730448	313,043067	0
15.01.2021	22:46:20	0	0	3,728426	0,435	300,4092	-0,035	87,489	0	1017,54	6,5	8,6	8,4	1	1	1	1	1	1	1	1	1	0	1	-8,668076	273,861184	310,268984	0
15.01.2021	22:46:21	0	0	4,067374	0,4485	302,0868	-0,03	87,493	0	1017,48	6,5	8,6	8,4	1	1	1	1	1	1	1	1	1	0	1	-6,624383	273,727521	311,690477	0
15.01.2021	22:46:22	0	0	4,745269	0,44925	303,1812	-0,034	87,489	0	1017,64	6,6	8,6	8,4	1	1	1	1	1	1	1	1	1	0	1	-4,792107	273,856763	314,124357	0
15.01.2021	22:46:23	0	0	3,276495	0,456	300,4776	-0,033	87,491	0	1017,66	6,5	8,6	8,4	1	1	1	1	1	1	1	1	1	0	1	-5,990134	273,733377	312,351966	0
15.01.2021	22:46:24	0	0	3,389478	0,471	295,5528	-0,034	87,492	0	1017,56	6,5	8,6	8,4	1	1	1	1	1	1	1	1	1	0	1	-9,795631	273,808195	308,894658	0
15.01.2021	22:46:25	0	0	3,841408	0,504	290,394	-0,033	87,477	0	1017,7	6,5	8,6	8,4	1	1	1	1	1	1	1	1	1	0	1	-6,624383	273,912842	312,553384	0
15.01.2021	22:46:26	0	0	2,5986	0,53925	290,0232	-0,033	87,492	0	1017,58	6,5	8,6	8,4	1	1	1	1	1	1	1	1	1	0	1	-4,862579	273,787628	313,731965	0
15.01.2021	22:46:27	0	0	4,632287	0,5655	295,5204	-0,032	87,492	0	1017,58	6,5	8,6	8,4	1	1	1	1	1	1	1	1	1	0	1	-9,866103	273,71874	308,407917	0
15.01.2021	22:46:28	0	0	4,745269	0,6075	298,9728	-0,041	87,49	0	1017,48	6,5	8,6	8,4	1	1	1	1	1	1	1	1	1	0	1	-13,883016	273,811135	304,820961	0
15.01.2021	22:46:29	0	0	4,519304	0,639	284,7708	-0,038	87,493	0	1017,62	6,5	8,5	8,4	1	1	1	1	1	1	1	1	1	0	1	-5,144468	273,730448	313,184011	0
15.01.2021	22:46:30	0	0	4,180356	0,6645	278,7624	-0,034	87,484	0	1017,58	6,5	8,6	8,4	1	1	1	1	1	1	1	1	1	0	1	-0	273,8229	318,758754	0
15.01.2021	22:46:31	0	0	4,745269	0,6855	285,8796	-0,037	87,497	0	1017,6	6,6	8,6	8,4	1	1	1	1	1	1	1	1	1	0	1	-2,818887	273,901022	316,303793	0
15.01.2021	22:46:32	0	0	3,841408	0,654	292,2264	-0,034	87,493	0	1017,62	6,5	8,6	8,4	1	1	1	1	1	1	1	1	1	0	1	-4,580691	273,809665	314,116442	0
15.01.2021	22:46:33	0	0	2,937548	0,71775	294,4188	-0,03	87,492	0	1017,74	6,5	8,6	8,4	1	1	1	1	1	1	1	1	1	0	1	-5,144468	273,72313	313,149969	0
15.01.2021	22:46:34	0	0	2,937548	0,77025	293,7132	-0,032	87,486	0	1017,44	6,5	8,6	8,4	1	1	1	1	1	1	1	1	1	0	1	-5,355884	273,84056	313,485111	0
15.01.2021	22:46:35	0	0	2,824565	0,84375	291,0672	-0,034	87,48	0	1017,56	6,5	8,6	8,4	1	1	1	1	1	1	1	1	1	0	1	-7,188161	273,715814	311,07225	0
15.01.2021	22:46:36	0	0	4,293339	0,882	290,7504	-0,031	87,491	0	1017,74	6,5	8,6	8,4	1	1	1	1	1	1	1	1	1	0	1	-8,104299	273,852343	310,791576	0
15.01.2021	22:46:37	0	0	4,406321	0,89475	287,406	-0,031	87,482	0	1017,58	6,5	8,6	8,4	1	1	1	1	1	1	1	1	1	0	1	-9,936575	273,918754	309,268751	0
15.01.2021	22:46:38	0	0	3,276495	0,95325	286,6608	-0,033	87,488	0	1017,48	6,5	8,6	8,4	1	1	1	1	1	1	1	1	1	0	1	-2,748414	273,821429	316,00349	0
15.01.2021	22:46:39	0	0	4,406321	1,0065	290,8152	-0,036	87,466	0	1017,58	6,6	8,6	8,4	1	1	1	1	1	1	1	1	1	0	1	-9,090909	273,748024	309,319334	0
15.01.2021	22:46:40	0	0	4,067374	1,02	297,8748	-0,032	87,493	0	1017,68	6,5	8,5	8,4	1	1	1	1	1	1	1	1	1	0	1	-9,231853	273,85971	309,698341	0
15.01.2021	22:46:41	0	0	4,180356	1,0095	294,0876	-0,037	87,484	0	1017,66	6,5	8,6	8,4	1	1	1	1	1	1	1	1	1	0	1	-9,372798	273,774418	309,160262	0
15.01.2021	22:46:42	0	0	4,745269	1,0155	287,0352	-0,031	87,478	0	1017,62	6,5	8,6	8,4	1	1	1	1	1	1	1	1	1	0	1	-5,637773	273,890686	313,436738	0
15.01.2021	22:46:43	0	0	4,519304	0,9645	284,8356	-0,035	87,456	0	1017,58	6,5	8,6	8,4	1	1	1	1	1	1	1	1	1	0	1	-3,735025	273,875929	315,270729	0
15.01.2021	22:46:44	0	0	4,293339	0,92025	286,614	-0,04	87,475	0	1017,56	6,5	8,6	8,4	1	1	1	1	1	1	1	1	1	0	1	-3,171247	273,836144	315,649179	0
15.01.2021	22:46:45	0	0	3,615443	0,897	294,1272	-0,035	87,485	0	1017,52	6,5	8,6	8,4	1	1	1	1	1	1	1	1	1	0	1	-10,42988	273,902499	308,699683	0
15.01.2021	22:46:46	0	0	3,841408	0,93975	293,7744	-0,033	87,469	0	1017,4	6,5	8,6	8,4	1	1	1	1	1	1	1	1	1	0	1	-6,412967	273,874454	312,585915	0
15.01.2021	22:46:47	0	0	4,632287	0,9495	296,0856	-0,034	87,482	0	1017,52	6,5	8,6	8,4	1	1	1	1	1	1	1	1	1	0	1	-10,288936	273,884782	308,758065	0
15.01.2021	22:46:48	0	0	4,745269	0,97875	300,4956	-0,035	87,491	0	1017,7	6,5	8,6	8,4	1	1	1	1	1	1	1	1	1	0	1	-3,735025	273,824371	315,030579	0
15.01.2021	22:46:49	0	0	2,937548	0,93225	298,7388	-0,041	87,474	0	1017,58	6,6	8,6	8,4	1	1	1	1	1	1	1	1	1	0	1	-6,060606	273,711426	312,179397	0
15.01.2021	22:46:50	0	0	4,745269	0,93975	295,2	-0,037	87,47	0	1017,4	6,5	8,6	8,4	1	1	1	1	1	1	1	1	1	0	1	-8,386187	273,784691	310,194689	0
15.01.2021	22:46:51	0	0	4,858252	0,9285	299,0304	-0,038	87,479	0	1017,56	6,5	8,6	8,4	1	1	1	1	1	1	1	1	1	0	1	-2,255109	273,883306	316,785015	0
15.01.2021	22:46:52	0	0	2,937548	0,93075	302,7528	-0,034	87,482	0	1017,56	6,5	8,6	8,4	1	1	1	1	1	1	1	1	1	0	1	-6,412967	273,771483	312,106437	0
15.01.2021	22:46:53	0	0	4,406321	0,909	308,0196	-0,033	87,484	0	1017,62	6,5	8,6	8,4	1	1	1	1	1	1	1	1	1	0	1	-6,483439	273,898068	312,625475	0
15.01.2021	22:46:54	0	0	5,084217	0,86475	298,6992	-0,039	87,485	0	1017,62	6,5	8,6	8,4	1	1	1	1	1	1	1	1	1	0	1	-4,933051	273,793502	313,688836	0
15.01.2021	22:46:55	0	0	4,519304	0,84825	296,0784	-0,033	87,478	0	1017,44	6,5	8,6	8,4	1	1	1	1	1	1	1	1	1	0	1	-5,426357	273,903976	313,710091	0
15.01.2021	22:46:56	0	0	4,180356	0,80625	301,626	-0,037	87,469	0	1017,42	6,5	8,6	8,4	1	1	1	1	1	1	1	1	1	0	1	-9,161381	273,812606	309,549441	0
15.01.2021	22:46:57	0	0	5,1972	0,76725	302,076	-0,034	87,475	0	1017,6	6,5	8,6	8,4	1	1	1	1	1	1	1	1	1	0	1	-5,567301	273,727521	312,74756	0
15.01.2021	22:46:58	0	0	3,841408	0,76575	297,1908	-0,032	87,477	0	1017,64	6,5	8,6	8,4	1	1	1	1	1	1	1	1	1	0	1	-6,694856	273,743629	311,694938	0
15.01.2021	22:46:59	0	0	4,971234	0,73575	304,6932	-0,03	87,479	0	1017,64	6,5	8,6	8,4	1	1	1	1	1	1	1	1	1	0	1	-8,386187	273,762683	310,092262	0
15.01.2021	22:47:00	0	0	4,745269	0,7005	315,27	-0,034	87,484	0	1017,52	6,5	8,6	8,4	1	1	1	1	1	1	1	1	1	0	1	-3,946441	273,714352	314,307167	0
15.01.2021	22:47:01	0	0	2,372635	0,68925	316,944	-0,038	87,488	0	1017,64	6,6	8,6	8,4	1	1	1	1	1	1	1	1	1	0	1	-6,20155	273,849396	312,680601	0
15.01.2021	22:47:02	0	0	2,5986	0,6855	306,4392	-0,038	87,488	0	1017,56	6,5	8,5	8,4	1	1	1	1	1	1	1	1	1	0	1	-3,312192	273,892162	315,769199	0
15.01.2021	22:47:03	0	0	4,745269	0,68175	296,3736	-0,038	87,484	0	1017,46	6,5	8,6	8,4	1	1	1	1	1	1	1	1	1	0	1	-7,258633	273,78616	311,329078	0
15.01.2021	22:47:04	0	0	4,519304	0,7125	299,7	-0,038	87,466	0	1017,68	6,5	8,6	8,4	1	1	1	1	1	1	1	1	1	0	1	-3,24172	273,899545	315,874077	0
15.01.2021	22:47:05	0	0	3,954391	0,681	299,916	-0,033	87,48	0	1017,56	6,6	8,6	8,4	1	1	1	1	1	1	1	1	1	0	1	-7,329105	273,834672	311,484467	0
15.01.2021	22:47:06	0	0	4,406321	0,6645	297,27	-0,041	87,486	0	1017,58	6,5	8,6	8,4	1	1	1	1	1	1	1	1	1	0	1	-7,82241	273,761216	310,649216	0
15.01.2021	22:47:07	0	0	2,485617	0,66225	297,9504	-0,035	87,49	0	1017,58	6,6	8,6	8,4	1	1	1	1	1	1	1	1	1	0	1	-6,694856	273,765616	311,797243	0
15.01.2021	22:47:08	0	0	3,163513	0,678	302,0868	-0,039	87,474	0	1017,56	6,5	8,6	8,4	1	1	1	1	1	1	1	1	1	0	1	-2,184637	273,72313	316,1098	0
15.01.2021	22:47:09	0	0	2,824565	0,73125	301,5864	-0,032	87,479	0	1017,68	6,5	8,5	8,4	1	1	1	1	1	1	1	1	1	0	1	-8,949965	273,890686	310,124546	0
15.01.2021	22:47:10	0	0	4,180356	0,78075	296,478	-0,034	87,487	0	1017,58	6,6	8,6	8,4	1	1	1	1	1	1	1	1	1	0	1	-5,990134	273,746559	312,413292	0
15.01.2021	22:47:11	0	0	2,259652	0,81075	315,18	-0,039	87,486	0	1017,62	6,5	8,6	8,4	1	1	1	1	1	1	1	1	1	0	1	-5,778717	273,72313	312,51572	0
15.01.2021	22:47:12	0	0	3,163513	0,77925	310,2588	-0,042	87,485	0	1017,54	6,5	8,6	8,4	1	1	1	1	1	1	1	1	1	0	1	-4,580691	273,886258	314,473187	0
15.01.2021	22:47:13	0	0	4,745269	0,795	299,8152	-0,034	87,488	0	1017,5	6,6	8,6	8,4	1	1	1	1	1	1	1	1	1	0	1	-9,725159	273,781755	308,842053	0
15.01.2021	22:47:14	0	0	4,745269	0,80625	301,59	-0,038	87,49	0	1017,64	6,5	8,6	8,4	1	1	1	1	1	1	1	1	1	0	1	-9,161381	273,88921	309,906251	0
15.01.2021	22:47:15	0	0	4,519304	0,8385	316,2672	-0,032	87,482	0	1017,58	6,5	8,5	8,4	1	1	1	1	1	1	1	1	1	0	1	-1,832276	273,78616	316,755434	0
15.01.2021	22:47:16	0	0	3,163513	0,83325	323,2872	-0,039	87,476	0	1017,54	6,5	8,6	8,4	1	1	1	1	1	1	1	1	1	0	1	-0,775194	273,724593	317,526051	0
15.01.2021	22:47:17	0	0	4,519304	0,801	317,0412	-0,036	87,477	0	1017,58	6,5	8,6	8,4	1	1	1	1	1	1	1	1	1	0	1	-9,936575	273,846451	308,931855	0
15.01.2021	22:47:18	0	0	2,937548	0,7755	310,6728	-0,036	87,492	0	1017,62	6,6	8,6	8,4	1	1	1	1	1	1	1	1	1	0	1	-9,231853	273,883306	309,808271	0
15.01.2021	22:47:19	0	0	2,5986	0,72525	309,1572	-0,032	87,486	0	1017,66	6,5	8,6	8,4	1	1	1	1	1	1	1	1	1	0	1	-5,355884	273,767082	313,143039	0
15.01.2021	22:47:20	0	0	3,502461	0,70425	294,0192	-0,033	87,498	0	1017,7	6,6	8,6	8,4	1	1	1	1	1	1	1	1	1	0	1	-8,245243	273,883306	310,794881	0
15.01.2021	22:47:21	0	0	3,389478	0,6975	291,4848	-0,035	87,484	0	1017,68	6,5	8,6	8,4	1	1	1	1	1	1	1	1	1	0	1	-3,805497	273,770016	314,707079	0
15.01.2021	22:47:22	0	0	3,05053	0,666	301,5648	-0,032	87,496	0	1017,74	6,6	8,5	8,4	1	1	1	1	1	1	1	1	1	0	1	-4,369274	273,702653	313,829929	0
15.01.2021	22:47:23	0	0	2,711582	0,63975	314,0388	-0,031	87,49	0	1017,56	6,6	8,6	8,4	1	1	1	1	1	1	1	1	1	0	1	-5,496829	273,740699	312,879335	0
15.01.2021	22:47:24	0	0	2,937548	0,61725	319,6188	-0,037	87,481	0	1017,54	6,5	8,6	8,4	1	1	1	1	1	1	1	1	1	0	1	-4,721635	273,727521	313,593225	0
15.01.2021	22:47:25	0	0	3,615443	0,57825	321,0984	-0,045	87,493	0	1017,54	6,5	8,6	8,4	1	1	1	1	1	1	1	1	1	0	1	-8,386187	273,846451	310,482243	0
15.01.2021	22:47:26	0	0	4,519304	0,54675	318,1284	-0,033	87,485	0	1017,64	6,6	8,6	8,4	1	1	1	1	1	1	1	1	1	0	1	-8,245243	273,830256	310,547767	0
15.01.2021	22:47:27	0	0	2,711582	0,51225	315,9612	-0,034	87,497	0	1017,66	6,6	8,5	8,4	1	1	1	1	1	1	1	1	1	0	1	-8,597604	273,887734	310,463151	0
15.01.2021	22:47:28	0	0	3,05053	0,48	316,656	-0,035	87,48	0	1017,66	6,6	8,6	8,4	1	1	1	1	1	1	1	1	1	0	1	-7,047216	273,819958	311,69784	0
15.01.2021	22:47:29	0	0	3,615443	0,45075	317,3832	-0,035	87,503	0	1017,62	6,6	8,6	8,4	1	1	1	1	1	1	1	1	1	0	1	-11,909796	273,709964	306,323406	0
15.01.2021	22:47:30	0	0	4,519304	0,4485	317,3868	-0,042	87,49	0	1017,48	6,6	8,6	8,4	1	1	1	1	1	1	1	1	1	0	1	-10,147992	273,867081	308,816538	0
15.01.2021	22:47:31	0	0	3,728426	0,4875	317,3868	-0,032	87,496	0	1017,8	6,5	8,6	8,4	1	1	1	1	1	1	1	1	1	0	1	-5,355884	273,853816	313,546853	0
15.01.2021	22:47:32	0	0	5,1972	0,534	315,1944	-0,037	87,481	0	1017,5	6,5	8,6	8,4	1	1	1	1	1	1	1	1	1	0	1	-4,157858	273,711426	314,082145	0
15.01.2021	22:47:33	0	0	4,519304	0,618	310,6368	-0,038	87,477	0	1017,66	6,6	8,6	8,4	1	1	1	1	1	1	1	1	1	0	1	-5,144468	273,858237	313,778861	0
15.01.2021	22:47:34	0	0	3,502461	0,66975	309,4956	-0,032	87,481	0	1017,72	6,6	8,6	8,4	1	1	1	1	1	1	1	1	1	0	1	-1,691332	273,761216	316,780294	0
15.01.2021	22:47:35	0	0	2,5986	0,666	311,8392	-0,032	87,495	0	1017,72	6,5	8,6	8,4	1	1	1	1	1	1	1	1	1	0	1	-0,352361	273,853816	318,550376	0
15.01.2021	22:47:36	0	0	3,276495	0,6675	313,1316	-0,034	87,491	0	1017,62	6,5	8,6	8,4	1	1	1	1	1	1	1	1	1	0	1	-6,553911	273,836144	312,266516	0
15.01.2021	22:47:37	0	0	2,824565	0,68175	303,2208	-0,04	87,495	0	1017,6	6,5	8,6	8,4	1	1	1	1	1	1	1	1	1	0	1	-7,540521	273,887734	311,520233	0
15.01.2021	22:47:38	0	0	4,858252	0,66075	288,09	-0,034	87,491	0	1017,68	6,6	8,6	8,4	1	1	1	1	1	1	1	1	1	0	1	-8,668076	273,819958	310,07698	0
15.01.2021	22:47:39	0	0	3,841408	0,62775	285,246	-0,037	87,504	0	1017,62	6,5	8,6	8,4	1	1	1	1	1	1	1	1	1	0	1	-4,651163	273,839088	314,182976	0
15.01.2021	22:47:40	0	0	2,5986	0,66225	290,4444	-0,031	87,527	0	1017,68	6,5	8,6	8,4	1	1	1	1	1	1	1	1	1	0	1	-6,483439	273,69973	311,70217	0
15.01.2021	22:47:41	0	0	4,632287	0,6315	290,7684	-0,041	87,497	0	1017,7	6,6	8,6	8,4	1	1	1	1	1	1	1	1	1	0	1	-4,439746	273,864132	314,511047	0
15.01.2021	22:47:42	0	0	2,485617	0,657	288,4536	-0,037	87,481	0	1017,68	6,6	8,6	8,4	1	1	1	1	1	1	1	1	1	0	1	-3,24172	273,884782	315,805281	0
15.01.2021	22:47:43	0	0	3,728426	0,68325	286,002	-0,032	87,496	0	1017,68	6,5	8,6	8,4	1	1	1	1	1	1	1	1	1	0	1	-6,765328	273,75242	311,665371	0
15.01.2021	22:47:44	0	0	4,858252	0,663	283,158	-0,039	87,483	0	1017,56	6,6	8,6	8,4	1	1	1	1	1	1	1	1	1	0	1	-5,426357	273,88921	313,641276	0
15.01.2021	22:47:45	0	0	4,293339	0,61425	285,1956	-0,041	87,48	0	1017,52	6,5	8,6	8,4	1	1	1	1	1	1	1	1	1	0	1	-4,22833	273,789096	314,373049	0
15.01.2021	22:47:46	0	0	2,146669	0,63	288,4356	-0,036	87,487	0	1017,62	6,6	8,6	8,4	1	1	1	1	1	1	1	1	1	0	1	-4,22833	273,895115	314,866821	0
15.01.2021	22:47:47	0	0	3,163513	0,6	285,93	-0,039	87,498	0	1017,72	6,5	8,6	8,4	1	1	1	1	1	1	1	1	1	0	1	-5,355884	273,8229	313,40287	0
15.01.2021	22:47:48	0	0	3,615443	0,6465	280,9332	-0,034	87,49	0	1017,68	6,6	8,5	8,4	1	1	1	1	1	1	1	1	1	0	1	-9,161381	273,728984	309,160288	0
15.01.2021	22:47:49	0	0	2,5986	0,6915	281,4444	-0,035	87,502	0	1017,62	6,6	8,6	8,4	1	1	1	1	1	1	1	1	1	0	1	-8,527132	273,877405	310,485495	0
15.01.2021	22:47:50	0	0	3,05053	0,795	283,2444	-0,033	87,482	0	1017,5	6,5	8,6	8,4	1	1	1	1	1	1	1	1	1	0	1	-6,060606	273,720203	312,220219	0
15.01.2021	22:47:51	0	0	3,05053	0,9045	276,4188	-0,038	87,499	0	1017,6	6,5	8,6	8,4	1	1	1	1	1	1	1	1	1	0	1	-8,033827	273,742164	310,349152	0
15.01.2021	22:47:52	0	0	3,05053	1,03275	288,126	-0,042	87,491	0	1017,42	6,6	8,6	8,4	1	1	1	1	1	1	1	1	1	0	1	-4,298802	273,881831	314,734447	0
15.01.2021	22:47:53	0	0	3,841408	1,14675	282,1392	-0,033	87,483	0	1017,66	6,5	8,6	8,4	1	1	1	1	1	1	1	1	1	0	1	-8,033827	273,767082	310,465097	0
15.01.2021	22:47:54	0	0	2,824565	1,2405	275,3784	-0,035	87,501	0	1017,58	6,6	8,6	8,4	1	1	1	1	1	1	1	1	1	0	1	-7,610994	273,893638	311,477277	0
15.01.2021	22:47:55	0	0	2,937548	1,296	300,8268	-0,033	87,472	0	1017,62	6,6	8,6	8,4	1	1	1	1	1	1	1	1	1	0	1	-6,483439	273,708501	311,742962	0
15.01.2021	22:47:56	0	0	4,632287	1,353	294,7572	-0,035	87,489	0	1017,64	6,5	8,5	8,4	1	1	1	1	1	1	1	1	1	0	1	-8,315715	273,755352	310,128623	0
15.01.2021	22:47:57	0	0	4,406321	1,404	288,1584	-0,034	87,473	0	1017,72	6,6	8,5	8,4	1	1	1	1	1	1	1	1	1	0	1	-1,550388	273,695345	316,614834	0
15.01.2021	22:47:58	0	0	4,858252	1,434	297,468	-0,032	87,489	0	1017,54	6,6	8,6	8,4	1	1	1	1	1	1	1	1	1	0	1	-10,570825	273,775885	307,969064	0
15.01.2021	22:47:59	0	0	3,615443	1,425	300,5424	-0,037	87,496	0	1017,6	6,5	8,5	8,4	1	1	1	1	1	1	1	1	1	0	1	-1,479915	273,720203	316,800909	0
15.01.2021	22:48:00	0	0	2,824565	1,39125	294,4368	-0,035	87,498	0	1017,72	6,6	8,6	8,4	1	1	1	1	1	1	1	1	1	0	1	-10,641297	273,855289	308,268304	0
15.01.2021	22:48:01	0	0	2,711582	1,3095	303,5844	-0,032	87,487	0	1017,7	6,5	8,5	8,4	1	1	1	1	1	1	1	1	1	0	1	-5,355884	273,742164	313,027094	0
15.01.2021	22:48:02	0	0	3,954391	1,2315	331,092	-0,037	87,493	0	1017,6	6,6	8,6	8,4	1	1	1	1	1	1	1	1	1	0	1	-8,245243	273,731912	310,090046	0
15.01.2021	22:48:03	0	0	4,519304	1,15575	322,164	-0,035	87,497	0	1017,6	6,6	8,6	8,4	1	1	1	1	1	1	1	1	1	0	1	-2,60747	273,692423	315,544163	0
15.01.2021	22:48:04	0	0	2,824565	1,0995	306,8172	-0,028	87,491	0	1017,54	6,6	8,5	8,4	1	1	1	1	1	1	1	1	1	0	1	-4,862579	273,817017	313,868781	0
15.01.2021	22:48:05	0	0	3,728426	1,08675	306,7848	-0,037	87,49	0	1017,6	6,5	8,5	8,4	1	1	1	1	1	1	1	1	1	0	1	-3,171247	273,890686	315,903264	0
15.01.2021	22:48:06	0	0	4,632287	1,0575	298,26	-0,033	87,484	0	1017,58	6,5	8,6	8,4	1	1	1	1	1	1	1	1	1	0	1	-10,218464	273,774418	308,314596	0
15.01.2021	22:48:07	0	0	2,5986	1,1115	302,4036	-0,034	87,48	0	1017,4	6,5	8,6	8,4	1	1	1	1	1	1	1	1	1	0	1	-9,584214	273,877405	309,428412	0
15.01.2021	22:48:08	0	0	3,728426	1,14975	307,6128	-0,031	87,498	0	1017,64	6,5	8,6	8,4	1	1	1	1	1	1	1	1	1	0	1	-4,439746	273,809665	314,257387	0
15.01.2021	22:48:09	0	0	5,1972	1,17975	307,2096	-0,031	87,499	0	1017,62	6,6	8,6	8,4	1	1	1	1	1	1	1	1	1	0	1	-4,510218	273,875929	314,495535	0
15.01.2021	22:48:10	0	0	2,824565	1,2225	297,9612	-0,045	87,482	0	1017,6	6,6	8,6	8,4	1	1	1	1	1	1	1	1	1	0	1	-6,060606	273,75242	312,370093	0
15.01.2021	22:48:11	0	0	4,632287	1,2645	292,878	-0,036	87,484	0	1017,64	6,6	8,6	8,4	1	1	1	1	1	1	1	1	1	0	1	-5,708245	273,693884	312,450181	0
15.01.2021	22:48:12	0	0	4,519304	1,293	294,4476	-0,034	87,472	0	1017,6	6,6	8,6	8,4	1	1	1	1	1	1	1	1	1	0	1	-8,668076	273,774418	309,864984	0
15.01.2021	22:48:13	0	0	3,389478	1,251	294,4188	-0,033	87,468	0	1017,68	6,6	8,6	8,4	1	1	1	1	1	1	1	1	1	0	1	-3,171247	273,712889	315,075558	0
15.01.2021	22:48:14	0	0	3,05053	1,23525	286,3332	-0,035	87,499	0	1017,56	6,6	8,6	8,4	1	1	1	1	1	1	1	1	1	0	1	-7,188161	273,701191	311,004245	0
15.01.2021	22:48:15	0	0	4,180356	1,21125	286,2756	-0,036	87,484	0	1017,6	6,6	8,5	8,4	1	1	1	1	1	1	1	1	1	0	1	-1,902748	273,809665	316,794384	0
15.01.2021	22:48:16	0	0	4,067374	1,19625	284,4216	-0,031	87,491	0	1017,66	6,5	8,6	8,4	1	1	1	1	1	1	1	1	1	0	1	-8,597604	273,877405	310,415023	0
15.01.2021	22:48:17	0	0	4,971234	1,155	284,0904	-0,036	87,479	0	1017,54	6,5	8,6	8,4	1	1	1	1	1	1	1	1	1	0	1	-4,016913	273,858237	314,906416	0
15.01.2021	22:48:18	0	0	2,711582	1,16625	289,548	-0,031	87,487	0	1017,68	6,5	8,6	8,4	1	1	1	1	1	1	1	1	1	0	1	-5,990134	273,740699	312,38603	0
15.01.2021	22:48:19	0	0	3,954391	1,137	286,6068	-0,033	87,486	0	1017,66	6,6	8,6	8,4	1	1	1	1	1	1	1	1	1	0	1	-5,778717	273,858237	313,144611	0
15.01.2021	22:48:20	0	0	2,711582	1,14075	276,7752	-0,036	87,496	0	1017,6	6,6	8,6	8,4	1	1	1	1	1	1	1	1	1	0	1	-5,003524	273,712889	313,243281	0
15.01.2021	22:48:21	0	0	5,084217	1,10625	271,4076	-0,035	87,489	0	1017,62	6,5	8,6	8,4	1	1	1	1	1	1	1	1	1	0	1	-10,993658	273,825842	307,778797	0
15.01.2021	22:48:22	0	0	4,293339	1,07175	278,8992	-0,041	87,495	0	1017,58	6,6	8,6	8,4	1	1	1	1	1	1	1	1	1	0	1	-2,959831	273,693884	315,198596	0
15.01.2021	22:48:23	0	0	3,728426	1,08075	295,6212	-0,034	87,502	0	1017,68	6,5	8,5	8,4	1	1	1	1	1	1	1	1	1	0	1	-2,748414	273,780288	315,811966	0
15.01.2021	22:48:24	0	0	2,5986	1,10325	297,6192	-0,038	87,492	0	1017,6	6,5	8,6	8,4	1	1	1	1	1	1	1	1	1	0	1	-8,245243	273,702653	309,95396	0
15.01.2021	22:48:25	0	0	2,5986	1,10925	300,5496	-0,045	87,492	0	1017,6	6,6	8,6	8,4	1	1	1	1	1	1	1	1	1	0	1	-5,567301	273,79644	313,068262	0
15.01.2021	22:48:26	0	0	3,728426	1,08675	294,4116	-0,037	87,495	0	1017,58	6,6	8,6	8,4	1	1	1	1	1	1	1	1	1	0	1	-8,033827	273,72313	310,260611	0
15.01.2021	22:48:27	0	0	2,937548	1,092	290,754	-0,037	87,502	0	1017,68	6,5	8,5	8,4	1	1	1	1	1	1	1	1	1	0	1	-10,923185	273,705577	307,289616	0
15.01.2021	22:48:28	0	0	2,485617	1,07475	302,4864	-0,038	87,477	0	1017,62	6,6	8,6	8,4	1	1	1	1	1	1	1	1	1	0	1	-6,553911	273,696807	311,618105	0
15.01.2021	22:48:29	0	0	2,5986	1,11375	295,56	-0,034	87,5	0	1017,68	6,5	8,6	8,4	1	1	1	1	1	1	1	1	1	0	1	-7,470049	273,842033	311,377804	0
15.01.2021	22:48:30	0	0	4,293339	1,12425	287,766	-0,039	87,492	0	1017,68	6,5	8,6	8,4	1	1	1	1	1	1	1	1	1	0	1	-9,654686	273,855289	309,254914	0
15.01.2021	22:48:31	0	0	3,276495	1,137	292,6548	-0,041	87,494	0	1017,62	6,6	8,5	8,4	1	1	1	1	1	1	1	1	1	0	1	-4,933051	273,698268	313,245761	0
15.01.2021	22:48:32	0	0	4,632287	1,101	288,054	-0,031	87,507	0	1017,62	6,5	8,6	8,4	1	1	1	1	1	1	1	1	1	0	1	-3,312192	273,730448	315,016287	0
15.01.2021	22:48:33	0	0	4,971234	1,09125	298,674	-0,034	87,508	0	1017,78	6,5	8,6	8,4	1	1	1	1	1	1	1	1	1	0	1	-5,073996	273,901022	314,048684	0
15.01.2021	22:48:34	0	0	2,824565	1,0395	298,6704	-0,043	87,498	0	1017,58	6,5	8,6	8,4	1	1	1	1	1	1	1	1	1	0	1	-8,45666	273,824371	310,308944	0
15.01.2021	22:48:35	0	0	2,5986	0,92775	288,4824	-0,028	87,503	0	1017,62	6,5	8,6	8,4	1	1	1	1	1	1	1	1	1	0	1	-2,114165	273,715814	316,146246	0
15.01.2021	22:48:36	0	0	2,824565	0,8115	287,0784	-0,034	87,503	0	1017,74	6,5	8,6	8,4	1	1	1	1	1	1	1	1	1	0	1	-6,624383	273,750955	311,799496	0
15.01.2021	22:48:37	0	0	4,632287	0,7335	290,052	-0,036	87,505	0	1017,82	6,5	8,6	8,4	1	1	1	1	1	1	1	1	1	0	1	-5,567301	273,836144	313,253126	0
15.01.2021	22:48:38	0	0	4,632287	0,68475	303,9012	-0,04	87,486	0	1017,64	6,6	8,6	8,4	1	1	1	1	1	1	1	1	1	0	1	-9,090909	273,692423	309,060724	0
15.01.2021	22:48:39	0	0	3,276495	0,6795	312,5412	-0,034	87,507	0	1017,66	6,5	8,6	8,4	1	1	1	1	1	1	1	1	1	0	1	-8,104299	273,856763	310,812166	0
15.01.2021	22:48:40	0	0	2,711582	0,693	317,7648	-0,042	87,5	0	1017,64	6,6	8,6	8,4	1	1	1	1	1	1	1	1	1	0	1	-3,100775	273,887734	315,959979	0
15.01.2021	22:48:41	0	0	2,5986	0,68625	325,0836	-0,032	87,508	0	1017,68	6,5	8,6	8,4	1	1	1	1	1	1	1	1	1	0	1	-6,553911	273,748024	311,856332	0
15.01.2021	22:48:42	0	0	2,824565	0,702	326,3472	-0,035	87,497	0	1017,52	6,6	8,6	8,4	1	1	1	1	1	1	1	1	1	0	1	-5,990134	273,874454	313,008748	0
15.01.2021	22:48:43	0	0	4,858252	0,69675	315,4572	-0,039	87,493	0	1017,58	6,6	8,6	8,4	1	1	1	1	1	1	1	1	1	0	1	-6,624383	273,818487	312,113825	0
15.01.2021	22:48:44	0	0	3,615443	0,67725	309,8736	-0,034	87,502	0	1017,56	6,5	8,6	8,4	1	1	1	1	1	1	1	1	1	0	1	-9,161381	273,880355	309,864993	0
15.01.2021	22:48:45	0	0	3,615443	0,6525	312,4836	-0,034	87,505	0	1017,58	6,5	8,6	8,4	1	1	1	1	1	1	1	1	1	0	1	-7,82241	273,797909	310,819991	0
15.01.2021	22:48:46	0	0	4,406321	0,633	318,1284	-0,036	87,502	0	1017,58	6,5	8,6	8,4	1	1	1	1	1	1	1	1	1	0	1	-3,59408	273,708501	314,63232	0
15.01.2021	22:48:47	0	0	4,067374	0,59775	318,3372	-0,035	87,511	0	1017,56	6,5	8,6	8,4	1	1	1	1	1	1	1	1	1	0	1	-11,205074	273,727521	307,109786	0
15.01.2021	22:48:48	0	0	2,5986	0,57675	316,6092	-0,035	87,502	0	1017,7	6,5	8,6	8,4	1	1	1	1	1	1	1	1	1	0	1	-7,047216	273,731912	311,288073	0
15.01.2021	22:48:49	0	0	2,5986	0,5565	312,4944	-0,034	87,494	0	1017,66	6,5	8,6	8,4	1	1	1	1	1	1	1	1	1	0	1	-6,272023	273,87888	312,747477	0
15.01.2021	22:48:50	0	0	3,502461	0,52725	309,6036	-0,045	87,5	0	1017,56	6,6	8,6	8,4	1	1	1	1	1	1	1	1	1	0	1	-8,527132	273,733377	309,814968	0
15.01.2021	22:48:51	0	0	2,5986	0,507	311,022	-0,04	87,49	0	1017,66	6,6	8,6	8,4	1	1	1	1	1	1	1	1	1	0	1	-10,359408	273,883306	308,680716	0
15.01.2021	22:48:52	0	0	4,858252	0,49125	315,9216	-0,037	87,506	0	1017,64	6,6	8,6	8,4	1	1	1	1	1	1	1	1	1	0	1	-8,386187	273,783223	310,187856	0
15.01.2021	22:48:53	0	0	2,5986	0,528	316,296	-0,041	87,511	0	1017,66	6,5	8,6	8,4	1	1	1	1	1	1	1	1	1	0	1	-8,879493	273,753886	309,558026	0
15.01.2021	22:48:54	0	0	3,954415	0,54975	313,6248	-0,039	87,493	0	1017,54	6,5	8,5	8,3	1	1	1	1	1	1	1	1	1	0	1	-6,624383	273,881831	312,408866	0
15.01.2021	22:48:55	0	0	4,406321	0,6045	310,7736	-0,035	87,509	0	1017,74	6,6	8,5	8,4	1	1	1	1	1	1	1	1	1	0	1	-4,157858	273,794971	314,470867	0
15.01.2021	22:48:56	0	0	3,615443	0,6615	307,26	-0,036	87,499	0	1017,52	6,5	8,6	8,4	1	1	1	1	1	1	1	1	1	0	1	-5,637773	273,872979	313,354237	0
15.01.2021	22:48:57	0	0	2,824565	0,78225	308,0592	-0,036	87,499	0	1017,62	6,5	8,6	8,4	1	1	1	1	1	1	1	1	1	0	1	-7,751938	273,758284	310,706043	0
15.01.2021	22:48:58	0	0	5,1972	0,9075	302,1588	-0,039	87,483	0	1017,54	6,6	8,5	8,4	1	1	1	1	1	1	1	1	1	0	1	-5,84919	273,862658	313,094737	0
15.01.2021	22:48:59	0	0	4,519304	0,96525	304,7148	-0,04	87,49	0	1017,68	6,5	8,5	8,4	1	1	1	1	1	1	1	1	1	0	1	-3,946441	273,727521	314,368419	0
15.01.2021	22:49:00	0	0	4,745269	1,1085	316,5876	-0,036	87,496	0	1017,58	6,5	8,6	8,4	1	1	1	1	1	1	1	1	1	0	1	-5,073996	273,880355	313,952378	0
15.01.2021	22:49:01	0	0	4,745269	1,1085	316,5876	-0,036	87,496	0	1017,58	6,5	8,6	8,4	1	1	1	1	1	1	1	1	1	0	1	-7,188161	273,799378	311,46108	0
15.01.2021	22:49:02	0	0	2,824565	1,1175	311,6484	-0,033	87,498	0	1017,72	6,5	8,6	8,4	1	1	1	1	1	1	1	1	1	0	1	-6,342495	273,865607	312,615167	0
15.01.2021	22:49:03	0	0	4,632287	1,21725	313,5672	-0,038	87,482	0	1017,56	6,5	8,6	8,4	1	1	1	1	1	1	1	1	1	0	1	-5,355884	273,812606	313,354938	0
15.01.2021	22:49:04	0	0	4,858252	1,25625	323,676	-0,033	87,495	0	1017,64	6,5	8,6	8,4	1	1	1	1	1	1	1	1	1	0	1	-5,355884	273,87888	313,663616	0
15.01.2021	22:49:05	0	0	3,05053	1,23075	314,4708	-0,033	87,499	0	1017,6	6,6	8,5	8,4	1	1	1	1	1	1	1	1	1	0	1	-5,003524	273,743629	313,38627	0
15.01.2021	22:49:06	0	0	2,937548	1,26675	314,082	-0,041	87,497	0	1017,56	6,6	8,6	8,4	1	1	1	1	1	1	1	1	1	0	1	-4,510218	273,695345	313,655003	0
15.01.2021	22:49:07	0	0	5,1972	1,21725	315,5688	-0,044	87,482	0	1017,6	6,5	8,6	8,4	1	1	1	1	1	1	1	1	1	0	1	-2,466526	273,77295	316,059706	0
15.01.2021	22:49:08	0	0	2,937548	1,20375	314,3844	-0,035	87,496	0	1017,6	6,5	8,5	8,4	1	1	1	1	1	1	1	1	1	0	1	-7,399577	273,877405	311,613049	0
15.01.2021	22:49:09	0	0	2,824565	1,194	304,614	-0,037	87,486	0	1017,6	6,6	8,6	8,4	1	1	1	1	1	1	1	1	1	0	1	-8,668076	273,792033	309,946975	0
15.01.2021	22:49:10	0	0	3,276495	1,203	312,4908	-0,038	87,5	0	1017,68	6,5	8,5	8,4	1	1	1	1	1	1	1	1	1	0	1	-4,298802	273,698268	313,88001	0
15.01.2021	22:49:11	0	0	4,519304	1,185	317,6748	-0,033	87,491	0	1017,7	6,6	8,5	8,4	1	1	1	1	1	1	1	1	1	0	1	-4,933051	273,73777	313,429485	0
15.01.2021	22:49:12	0	0	4,519304	1,218	295,632	-0,04	87,497	0	1017,64	6,6	8,5	8,4	1	1	1	1	1	1	1	1	1	0	1	-10,500352	273,867081	308,464177	0
15.01.2021	22:49:13	0	0	2,824565	1,17825	300,8052	-0,038	87,497	0	1017,66	6,6	8,5	8,4	1	1	1	1	1	1	1	1	1	0	1	-4,721635	273,755352	313,722704	0
15.01.2021	22:49:14	0	0	3,841408	1,146	314,8092	-0,037	87,506	0	1017,68	6,6	8,6	8,4	1	1	1	1	1	1	1	1	1	0	1	-6,8358	273,871505	312,149339	0
15.01.2021	22:49:15	0	0	4,180356	1,155	317,7144	-0,034	87,47	0	1017,5	6,6	8,6	8,4	1	1	1	1	1	1	1	1	1	0	1	-4,016913	273,815546	314,7076	0
15.01.2021	22:49:16	0	0	2,711582	1,16475	318,8196	-0,039	87,482	0	1017,58	6,5	8,6	8,4	1	1	1	1	1	1	1	1	1	0	1	-5,21494	273,68804	312,916314	0
15.01.2021	22:49:17	0	0	3,163513	1,1055	312,1308	-0,04	87,48	0	1017,68	6,5	8,6	8,4	1	1	1	1	1	1	1	1	1	0	1	-8,033827	273,808195	310,656463	0
15.01.2021	22:49:18	0	0	4,745269	1,09575	302,4432	-0,037	87,495	0	1017,74	6,6	8,5	8,4	1	1	1	1	1	1	1	1	1	0	1	-3,312192	273,701191	314,880214	0
15.01.2021	22:49:19	0	0	2,711582	1,056	294,4224	-0,043	87,492	0	1017,62	6,6	8,5	8,4	1	1	1	1	1	1	1	1	1	0	1	-5,21494	273,746559	313,188486	0
15.01.2021	22:49:20	0	0	3,276495	1,0875	300,8376	-0,04	87,494	0	1017,58	6,6	8,5	8,4	1	1	1	1	1	1	1	1	1	0	1	-5,496829	273,87003	313,48144	0
15.01.2021	22:49:21	0	0	4,971234	1,1385	298,6452	-0,035	87,499	0	1017,58	6,6	8,6	8,4	1	1	1	1	1	1	1	1	1	0	1	-7,329105	273,756818	311,122055	0
15.01.2021	22:49:22	0	0	4,632287	1,14375	296,8092	-0,041	87,478	0	1017,54	6,5	8,5	8,4	1	1	1	1	1	1	1	1	1	0	1	-2,325581	273,689501	315,812465	0
15.01.2021	22:49:23	0	0	4,858252	1,1235	294,426	-0,035	87,488	0	1017,58	6,5	8,6	8,4	1	1	1	1	1	1	1	1	1	0	1	-8,45666	273,768549	310,04909	0
15.01.2021	22:49:24	0	0	4,519304	1,07925	294,7572	-0,04	87,485	0	1017,64	6,5	8,6	8,4	1	1	1	1	1	1	1	1	1	0	1	-6,060606	273,868555	312,910793	0
15.01.2021	22:49:25	0	0	4,180356	1,059	290,0736	-0,045	87,467	0	1017,6	6,5	8,6	8,4	1	1	1	1	1	1	1	1	1	0	1	-7,399577	273,739234	310,969773	0
15.01.2021	22:49:26	0	0	3,502461	1,05825	295,6428	-0,039	87,475	0	1017,6	6,5	8,6	8,4	1	1	1	1	1	1	1	1	1	0	1	-7,188161	273,693884	310,970266	0
15.01.2021	22:49:27	0	0	2,824565	1,05675	288,1728	-0,039	87,476	0	1017,54	6,5	8,6	8,4	1	1	1	1	1	1	1	1	1	0	1	-4,369274	273,731912	313,966015	0
15.01.2021	22:49:28	0	0	2,937548	1,083	283,2444	-0,036	87,49	0	1017,62	6,6	8,5	8,4	1	1	1	1	1	1	1	1	1	0	1	-12,191684	273,707039	306,027916	0
15.01.2021	22:49:29	0	0	5,423165	1,10775	296,1072	-0,038	87,478	0	1017,66	6,6	8,5	8,4	1	1	1	1	1	1	1	1	1	0	1	-8,738548	273,828785	310,04761	0
15.01.2021	22:49:30	0	0	3,389478	1,05675	319,3056	-0,039	87,489	0	1017,54	6,6	8,6	8,4	1	1	1	1	1	1	1	1	1	0	1	-8,527132	273,731912	309,808158	0
15.01.2021	22:49:31	0	0	2,5986	1,005	321,894	-0,042	87,467	0	1017,66	6,6	8,6	8,4	1	1	1	1	1	1	1	1	1	0	1	-5,567301	273,884782	313,4797	0
15.01.2021	22:49:32	0	0	3,05053	0,89775	291,8664	-0,042	87,488	0	1017,5	6,5	8,5	8,4	1	1	1	1	1	1	1	1	1	0	1	-9,936575	273,708501	308,289826	0
15.01.2021	22:49:33	0	0	3,502461	0,81	285,93	-0,038	87,48	0	1017,7	6,5	8,6	8,4	1	1	1	1	1	1	1	1	1	0	1	-2,677942	273,695345	315,487279	0
15.01.2021	22:49:34	0	0	2,824565	0,7965	301,2948	-0,039	87,486	0	1017,58	6,5	8,6	8,4	1	1	1	1	1	1	1	1	1	0	1	-4,087385	273,753886	314,350133	0
15.01.2021	22:49:35	0	0	4,293339	0,76125	314,8344	-0,035	87,479	0	1017,6	6,6	8,6	8,4	1	1	1	1	1	1	1	1	1	0	1	-2,60747	273,673438	315,455898	0
15.01.2021	22:49:36	0	0	4,406321	0,7395	311,4792	-0,04	87,485	0	1017,66	6,6	8,6	8,4	1	1	1	1	1	1	1	1	1	0	1	-7,047216	273,753886	311,390302	0
15.01.2021	22:49:37	0	0	2,824565	0,73425	300,3948	-0,043	87,478	0	1017,74	6,6	8,6	8,4	1	1	1	1	1	1	1	1	1	0	1	-5,708245	273,711426	312,531758	0
15.01.2021	22:49:38	0	0	4,406321	0,759	298,0188	-0,044	87,461	0	1017,7	6,6	8,6	8,4	1	1	1	1	1	1	1	1	1	0	1	-6,694856	273,827313	312,08445	0
15.01.2021	22:49:39	0	0	3,502461	0,77475	304,974	-0,043	87,481	0	1017,64	6,6	8,5	8,4	1	1	1	1	1	1	1	1	1	0	1	-5,003524	273,68804	313,127731	0
15.01.2021	22:49:40	0	0	3,05053	0,74025	311,31	-0,037	87,48	0	1017,66	6,6	8,5	8,4	1	1	1	1	1	1	1	1	1	0	1	-7,329105	273,731912	311,006184	0
15.01.2021	22:49:41	0	0	3,841408	0,732	312,8364	-0,046	87,462	0	1017,42	6,6	8,5	8,4	1	1	1	1	1	1	1	1	1	0	1	-8,597604	273,867081	310,366926	0
15.01.2021	22:49:42	0	0	4,632287	0,73125	302,4144	-0,047	87,475	0	1017,62	6,6	8,5	8,4	1	1	1	1	1	1	1	1	1	0	1	-6,694856	273,846451	312,173574	0
15.01.2021	22:49:43	0	0	4,745269	0,753	295,5708	-0,048	87,455	0	1017,6	6,5	8,6	8,4	1	1	1	1	1	1	1	1	1	0	1	-5,708245	273,825842	313,064209	0
15.01.2021	22:49:44	0	0	2,711582	0,7095	311,7924	-0,051	87,457	0	1017,7	6,6	8,6	8,4	1	1	1	1	1	1	1	1	1	0	1	-5,285412	273,830256	313,507598	0
15.01.2021	22:49:45	0	0	2,937548	0,69225	324,378	-0,044	87,462	0	1017,6	6,6	8,6	8,4	1	1	1	1	1	1	1	1	1	0	1	-6,553911	273,749489	311,86315	0
15.01.2021	22:49:46	0	0	2,824565	0,69	315,8388	-0,049	87,476	0	1017,58	6,6	8,6	8,4	1	1	1	1	1	1	1	1	1	0	1	-6,483439	273,72313	311,810998	0
15.01.2021	22:49:47	0	0	3,615443	0,71925	288,4392	-0,054	87,469	0	1017,66	6,5	8,6	8,4	1	1	1	1	1	1	1	1	1	0	1	-7,470049	273,745094	310,92656	0
15.01.2021	22:49:48	0	0	4,858252	0,69975	280,6884	-0,044	87,48	0	1017,58	6,5	8,6	8,4	1	1	1	1	1	1	1	1	1	0	1	-6,20155	273,864132	312,749243	0
15.01.2021	22:49:49	0	0	4,067374	0,69075	290,034	-0,046	87,456	0	1017,72	6,6	8,6	8,4	1	1	1	1	1	1	1	1	1	0	1	-6,694856	273,689501	311,443191	0
15.01.2021	22:49:50	0	0	4,180356	0,6795	289,4004	-0,045	87,464	0	1017,64	6,6	8,5	8,4	1	1	1	1	1	1	1	1	1	0	1	-6,553911	273,847923	312,321379	0
15.01.2021	22:49:51	0	0	4,180356	0,6915	282,8448	-0,049	87,457	0	1017,68	6,6	8,6	8,4	1	1	1	1	1	1	1	1	1	0	1	-8,174771	273,712889	310,072034	0
15.01.2021	22:49:52	0	0	4,293339	0,6615	275,418	-0,046	87,472	0	1017,7	6,6	8,5	8,4	1	1	1	1	1	1	1	1	1	0	1	-10,782241	273,8332	308,024476	0
15.01.2021	22:49:53	0	0	2,711582	0,67125	276,8832	-0,046	87,475	0	1017,72	6,5	8,6	8,4	1	1	1	1	1	1	1	1	1	0	1	-7,540521	273,692423	310,611111	0
15.01.2021	22:49:54	0	0	5,084217	0,636	294,1344	-0,043	87,471	0	1017,68	6,6	8,6	8,4	1	1	1	1	1	1	1	1	1	0	1	-8,597604	273,750955	309,826276	0
15.01.2021	22:49:55	0	0	3,389478	0,61725	315,9216	-0,049	87,464	0	1017,62	6,6	8,5	8,4	1	1	1	1	1	1	1	1	1	0	1	-6,694856	273,875929	312,310898	0
15.01.2021	22:49:56	0	0	3,841408	0,6075	323,7912	-0,05	87,46	0	1017,78	6,5	8,6	8,4	1	1	1	1	1	1	1	1	1	0	1	-2,466526	273,803786	316,203236	0
15.01.2021	22:49:57	0	0	3,05053	0,57525	316,7208	-0,047	87,475	0	1017,58	6,6	8,6	8,4	1	1	1	1	1	1	1	1	1	0	1	-8,104299	273,683659	310,006583	0
15.01.2021	22:49:58	0	0	4,858281	0,582	304,956	-0,05	87,452	0	1017,6	6,6	8,5	8,3	1	1	1	1	1	1	1	1	1	0	1	-9,795631	273,77882	308,757918	0
15.01.2021	22:49:59	0	0	3,615443	0,59175	306,1476	-0,044	87,483	0	1017,78	6,6	8,6	8,4	1	1	1	1	1	1	1	1	1	0	1	-3,946441	273,868555	315,024958	0
15.01.2021	22:50:00	0	0	2,824565	0,624	313,5096	-0,046	87,46	0	1017,52	6,5	8,6	8,4	1	1	1	1	1	1	1	1	1	0	1	-6,131078	273,749489	312,285983	0
15.01.2021	22:50:01	0	0	4,067374	0,663	311,6268	-0,051	87,462	0	1017,78	6,5	8,5	8,4	1	1	1	1	1	1	1	1	1	0	1	-4,439746	273,717277	313,827469	0
15.01.2021	22:50:02	0	0	2,824565	0,71775	307,2384	-0,051	87,469	0	1017,54	6,5	8,5	8,4	1	1	1	1	1	1	1	1	1	0	1	-6,412967	273,847923	312,462323	0
15.01.2021	22:50:03	0	0	4,406321	0,7155	310,6044	-0,045	87,473	0	1017,54	6,6	8,5	8,4	1	1	1	1	1	1	1	1	1	0	1	-5,21494	273,843505	313,639772	0
15.01.2021	22:50:04	0	0	2,485617	0,696	315,2268	-0,045	87,449	0	1017,56	6,5	8,5	8,4	1	1	1	1	1	1	1	1	1	0	1	-4,369274	273,734841	313,979638	0
15.01.2021	22:50:05	0	0	4,406321	0,708	316,98	-0,048	87,458	0	1017,72	6,5	8,5	8,4	1	1	1	1	1	1	1	1	1	0	1	-5,778717	273,682198	312,325375	0
15.01.2021	22:50:06	0	0	4,858252	0,69375	308,1636	-0,049	87,45	0	1017,44	6,6	8,6	8,4	1	1	1	1	1	1	1	1	1	0	1	-1,198027	273,793502	317,423861	0
15.01.2021	22:50:07	0	0	3,728426	0,69	297,2412	-0,044	87,47	0	1017,58	6,5	8,5	8,4	1	1	1	1	1	1	1	1	1	0	1	-10,288936	273,87003	308,689333	0
15.01.2021	22:50:08	0	0	4,406321	0,68925	299,3508	-0,046	87,459	0	1017,68	6,6	8,5	8,4	1	1	1	1	1	1	1	1	1	0	1	-3,523608	273,753886	314,91391	0
15.01.2021	22:50:09	0	0	4,519304	0,69675	316,6308	-0,047	87,473	0	1017,74	6,6	8,5	8,4	1	1	1	1	1	1	1	1	1	0	1	-2,184637	273,696807	315,987379	0
15.01.2021	22:50:10	0	0	2,711582	0,66525	326,34	-0,043	87,477	0	1017,7	6,5	8,5	8,4	1	1	1	1	1	1	1	1	1	0	1	-3,523608	273,825842	315,248847	0
15.01.2021	22:50:11	0	0	4,293339	0,62475	319,2624	-0,056	87,465	0	1017,64	6,6	8,6	8,4	1	1	1	1	1	1	1	1	1	0	1	-6,412967	273,707039	311,806634	0
15.01.2021	22:50:12	0	0	3,389478	0,60375	308,0196	-0,045	87,476	0	1017,48	6,6	8,6	8,4	1	1	1	1	1	1	1	1	1	0	1	-8,668076	273,717277	309,599139	0
15.01.2021	22:50:13	0	0	3,502461	0,55125	297,8856	-0,05	87,477	0	1017,5	6,6	8,5	8,4	1	1	1	1	1	1	1	1	1	0	1	-7,470049	273,861184	311,467011	0
15.01.2021	22:50:14	0	0	3,728426	0,54075	288,81	-0,045	87,473	0	1017,56	6,6	8,5	8,4	1	1	1	1	1	1	1	1	1	0	1	-9,161381	273,743629	309,228413	0
15.01.2021	22:50:15	0	0	3,615443	0,552	284,0832	-0,046	87,466	0	1017,58	6,5	8,6	8,4	1	1	1	1	1	1	1	1	1	0	1	-4,298802	273,696807	313,873214	0
15.01.2021	22:50:16	0	0	2,485617	0,6345	295,5132	-0,049	87,466	0	1017,64	6,6	8,6	8,4	1	1	1	1	1	1	1	1	1	0	1	-1,973221	273,724593	316,328024	0
15.01.2021	22:50:17	0	0	3,615443	0,68175	311,8212	-0,05	87,477	0	1017,56	6,6	8,6	8,4	1	1	1	1	1	1	1	1	1	0	1	-11,134602	273,728984	307,187068	0
15.01.2021	22:50:18	0	0	4,519304	0,6945	314,064	-0,047	87,48	0	1017,7	6,6	8,5	8,4	1	1	1	1	1	1	1	1	1	0	1	-7,963354	273,849396	310,918796	0
15.01.2021	22:50:19	0	0	4,293339	0,72375	299,7252	-0,047	87,48	0	1017,56	6,6	8,6	8,4	1	1	1	1	1	1	1	1	1	0	1	-3,664553	273,850869	315,22446	0
15.01.2021	22:50:20	0	0	4,971234	0,7365	287,8524	-0,043	87,489	0	1017,58	6,5	8,5	8,4	1	1	1	1	1	1	1	1	1	0	1	-4,087385	273,858237	314,835943	0
15.01.2021	22:50:21	0	0	4,858252	0,747	282,1392	-0,051	87,481	0	1017,6	6,6	8,5	8,4	1	1	1	1	1	1	1	1	1	0	1	-6,694856	273,805256	311,981748	0
15.01.2021	22:50:22	0	0	4,180381	0,7485	283,14	-0,046	87,48	0	1017,68	6,6	8,6	8,3	1	1	1	1	1	1	1	1	1	0	1	-3,805497	273,85971	315,124697	0
15.01.2021	22:50:23	0	0	4,180356	0,741	283,59	-0,046	87,472	0	1017,6	6,5	8,6	8,4	1	1	1	1	1	1	1	1	1	0	1	-6,342495	273,809665	312,354638	0
15.01.2021	22:50:24	0	0	4,519304	0,76575	279,522	-0,048	87,47	0	1017,6	6,6	8,5	8,4	1	1	1	1	1	1	1	1	1	0	1	-5,496829	273,855289	313,412772	0
15.01.2021	22:50:25	0	0	3,728426	0,7665	280,296	-0,046	87,465	0	1017,62	6,6	8,5	8,4	1	1	1	1	1	1	1	1	1	0	1	-6,976744	273,73777	311,385792	0
15.01.2021	22:50:26	0	0	3,502461	0,75675	284,8068	-0,048	87,488	0	1017,7	6,6	8,5	8,4	1	1	1	1	1	1	1	1	1	0	1	-4,016913	273,680738	314,08039	0
15.01.2021	22:50:27	0	0	3,728426	0,732	285,858	-0,051	87,458	0	1017,56	6,5	8,6	8,4	1	1	1	1	1	1	1	1	1	0	1	-7,188161	273,711426	311,051842	0
15.01.2021	22:50:28	0	0	3,728426	0,7455	283,2084	-0,053	87,467	0	1017,54	6,6	8,6	8,4	1	1	1	1	1	1	1	1	1	0	1	-7,329105	273,680738	310,768199	0
15.01.2021	22:50:29	0	0	4,293339	0,7305	277,2828	-0,045	87,472	0	1017,86	6,6	8,5	8,4	1	1	1	1	1	1	1	1	1	0	1	-4,298802	273,842033	314,549051	0
15.01.2021	22:50:30	0	0	2,824565	0,7485	279,9216	-0,056	87,476	0	1017,68	6,6	8,5	8,4	1	1	1	1	1	1	1	1	1	0	1	-4,933051	273,800847	313,723029	0
15.01.2021	22:50:31	0	0	4,632287	0,72525	286,794	-0,054	87,451	0	1017,64	6,6	8,5	8,4	1	1	1	1	1	1	1	1	1	0	1	-7,117689	273,685119	310,999984	0
15.01.2021	22:50:32	0	0	3,389478	0,73875	287,298	-0,05	87,458	0	1017,7	6,5	8,6	8,4	1	1	1	1	1	1	1	1	1	0	1	-5,073996	273,77295	313,452235	0
15.01.2021	22:50:33	0	0	2,711582	0,74625	280,6956	-0,045	87,464	0	1017,48	6,5	8,5	8,4	1	1	1	1	1	1	1	1	1	0	1	-9,302326	273,868555	309,669073	0
15.01.2021	22:50:34	0	0	3,163513	0,72825	283,5108	-0,044	87,464	0	1017,6	6,6	8,5	8,4	1	1	1	1	1	1	1	1	1	0	1	-7,258633	273,818487	311,479575	0
15.01.2021	22:50:35	0	0	3,728426	0,75375	287,0892	-0,05	87,471	0	1017,7	6,6	8,6	8,4	1	1	1	1	1	1	1	1	1	0	1	-4,298802	273,856763	314,617662	0
15.01.2021	22:50:36	0	0	4,971234	0,75225	290,0268	-0,053	87,46	0	1017,6	6,5	8,5	8,4	1	1	1	1	1	1	1	1	1	0	1	-4,933051	273,824371	313,832553	0
15.01.2021	22:50:37	0	0	4,632287	0,75675	288,414	-0,048	87,469	0	1017,7	6,5	8,5	8,4	1	1	1	1	1	1	1	1	1	0	1	-7,399577	273,693884	310,75885	0
15.01.2021	22:50:38	0	0	2,711582	0,741	284,058	-0,05	87,473	0	1017,64	6,6	8,5	8,4	1	1	1	1	1	1	1	1	1	0	1	-6,765328	273,730448	311,563151	0
15.01.2021	22:50:39	0	0	3,502461	0,77475	283,5288	-0,047	87,451	0	1017,54	6,5	8,5	8,4	1	1	1	1	1	1	1	1	1	0	1	-10,570825	273,864132	308,379969	0
15.01.2021	22:50:40	0	0	4,406321	0,7515	289,2168	-0,052	87,46	0	1017,52	6,6	8,6	8,4	1	1	1	1	1	1	1	1	1	0	1	-10,993658	273,777352	307,553061	0
15.01.2021	22:50:41	0	0	3,05053	0,759	289,1268	-0,051	87,464	0	1017,78	6,6	8,5	8,4	1	1	1	1	1	1	1	1	1	0	1	-5,778717	273,682198	312,325375	0
15.01.2021	22:50:42	0	0	2,824565	0,75525	286,6752	-0,052	87,455	0	1017,6	6,5	8,5	8,4	1	1	1	1	1	1	1	1	1	0	1	-7,117689	273,727521	311,197172	0
15.01.2021	22:50:43	0	0	2,824565	0,74475	288,8244	-0,051	87,455	0	1017,66	6,6	8,6	8,4	1	1	1	1	1	1	1	1	1	0	1	-5,144468	273,861184	313,792592	0
15.01.2021	22:50:44	0	0	4,971234	0,7335	292,23	-0,052	87,467	0	1017,56	6,6	8,5	8,4	1	1	1	1	1	1	1	1	1	0	1	-4,157858	273,800847	314,498223	0
15.01.2021	22:50:45	0	0	3,841408	0,705	293,3784	-0,053	87,464	0	1017,6	6,5	8,5	8,4	1	1	1	1	1	1	1	1	1	0	1	-5,426357	273,85971	313,503838	0
15.01.2021	22:50:46	0	0	3,276495	0,7035	290,8116	-0,051	87,452	0	1017,74	6,5	8,5	8,4	1	1	1	1	1	1	1	1	1	0	1	-4,580691	273,715814	313,67972	0
15.01.2021	22:50:47	0	0	4,745269	0,67275	287,3628	-0,056	87,461	0	1017,68	6,6	8,5	8,4	1	1	1	1	1	1	1	1	1	0	1	-7,681466	273,836144	311,138961	0
15.01.2021	22:50:48	0	0	4,406348	0,66825	290,8008	-0,05	87,466	0	1017,7	6,5	8,5	8,3	1	1	1	1	1	1	1	1	1	0	1	-7,047216	273,862658	311,89671	0
15.01.2021	22:50:49	0	0	2,824582	0,66375	299,8332	-0,05	87,457	0	1017,64	6,6	8,6	8,3	1	1	1	1	1	1	1	1	1	0	1	-3,875969	273,692423	314,275664	0
15.01.2021	22:50:50	0	0	2,937548	0,64575	301,6476	-0,058	87,448	0	1017,6	6,6	8,5	8,4	1	1	1	1	1	1	1	1	1	0	1	-8,174771	273,84056	310,666225	0
15.01.2021	22:50:51	0	0	2,485617	0,6795	297,5112	-0,05	87,457	0	1017,58	6,5	8,6	8,4	1	1	1	1	1	1	1	1	1	0	1	-13,883016	273,698268	304,295796	0
15.01.2021	22:50:52	0	0	2,711582	0,6795	294,102	-0,055	87,466	0	1017,6	6,5	8,5	8,4	1	1	1	1	1	1	1	1	1	0	1	-6,272023	273,830256	312,520988	0
15.01.2021	22:50:53	0	0	2,372635	0,67275	300,5028	-0,052	87,453	0	1017,62	6,6	8,6	8,4	1	1	1	1	1	1	1	1	1	0	1	-7,892882	273,815546	310,831631	0
15.01.2021	22:50:54	0	0	4,519304	0,6585	300,5388	-0,052	87,467	0	1017,6	6,5	8,5	8,4	1	1	1	1	1	1	1	1	1	0	1	-5,990134	273,749489	312,426927	0
15.01.2021	22:50:55	0	0	3,728426	0,68025	287,4456	-0,052	87,459	0	1017,68	6,6	8,6	8,4	1	1	1	1	1	1	1	1	1	0	1	-9,866103	273,850869	309,022909	0
15.01.2021	22:50:56	0	0	3,615443	0,63825	281,6784	-0,054	87,466	0	1017,72	6,6	8,5	8,4	1	1	1	1	1	1	1	1	1	0	1	-8,45666	273,812606	310,254162	0
15.01.2021	22:50:57	0	0	4,519304	0,6225	287,4312	-0,049	87,45	0	1017,6	6,4	8,5	8,4	1	1	1	1	1	1	1	1	1	0	1	-8,668076	273,701191	309,52433	0
15.01.2021	22:50:58	0	0	2,937548	0,63975	292,2804	-0,055	87,451	0	1017,6	6,5	8,5	8,4	1	1	1	1	1	1	1	1	1	0	1	-4,580691	273,690962	313,564149	0
15.01.2021	22:50:59	0	0	5,084217	0,61875	287,748	-0,054	87,457	0	1017,78	6,6	8,6	8,4	1	1	1	1	1	1	1	1	1	0	1	-7,047216	273,837616	311,780066	0
15.01.2021	22:51:00	0	0	4,858252	0,6345	280,6308	-0,055	87,454	0	1017,6	6,5	8,5	8,4	1	1	1	1	1	1	1	1	1	0	1	-4,22833	273,73777	314,134207	0
15.01.2021	22:51:01	0	0	2,824565	0,65475	277,614	-0,058	87,438	0	1017,68	6,6	8,5	8,4	1	1	1	1	1	1	1	1	1	0	1	-8,386187	273,852343	310,509687	0
15.01.2021	22:51:02	0	0	4,406321	0,642	278,8344	-0,056	87,46	0	1017,64	6,6	8,5	8,4	1	1	1	1	1	1	1	1	1	0	1	-11,839323	273,821429	306,912581	0
15.01.2021	22:51:03	0	0	3,163513	0,6375	286,3044	-0,058	87,446	0	1017,68	6,6	8,5	8,4	1	1	1	1	1	1	1	1	1	0	1	-5,355884	273,728984	312,965785	0
15.01.2021	22:51:04	0	0	3,163513	0,66825	290,4336	-0,034	87,471	0	1017,68	6,5	8,5	8,4	1	1	1	1	1	1	1	1	1	0	1	-7,117689	273,683659	310,993194	0
15.01.2021	22:51:05	0	0	4,745269	0,67575	288,1116	-0,057	87,434	0	1017,66	6,6	8,6	8,4	1	1	1	1	1	1	1	1	1	0	1	-9,513742	273,743629	308,876052	0
15.01.2021	22:51:06	0	0	2,711582	0,6855	288,468	-0,049	87,449	0	1017,7	6,6	8,5	8,4	1	1	1	1	1	1	1	1	1	0	1	-10,007047	273,858237	308,916282	0
15.01.2021	22:51:07	0	0	4,519304	0,70725	297,5832	-0,058	87,434	0	1017,6	6,6	8,5	8,4	1	1	1	1	1	1	1	1	1	0	1	-5,285412	273,808195	313,404877	0
15.01.2021	22:51:08	0	0	2,824565	0,71925	297,6012	-0,062	87,445	0	1017,5	6,5	8,5	8,4	1	1	1	1	1	1	1	1	1	0	1	-5,144468	273,689501	312,993579	0
15.01.2021	22:51:09	0	0	4,632314	0,71625	292,2048	-0,059	87,442	0	1017,64	6,6	8,5	8,3	1	1	1	1	1	1	1	1	1	0	1	-4,580691	273,831728	314,219173	0
15.01.2021	22:51:10	0	0	2,711582	0,73425	289,566	-0,054	87,448	0	1017,6	6,5	8,6	8,4	1	1	1	1	1	1	1	1	1	0	1	-4,933051	273,689501	313,204995	0
15.01.2021	22:51:11	0	0	2,5986	0,72	292,2588	-0,056	87,441	0	1017,74	6,6	8,5	8,4	1	1	1	1	1	1	1	1	1	0	1	-5,778717	273,724593	312,522527	0
15.01.2021	22:51:12	0	0	4,745298	0,71775	295,4952	-0,056	87,436	0	1017,6	6,6	8,5	8,3	1	1	1	1	1	1	1	1	1	0	1	-8,033827	273,837616	310,793456	0
15.01.2021	22:51:13	0	0	4,858252	0,72	290,7504	-0,055	87,448	0	1017,64	6,5	8,6	8,4	1	1	1	1	1	1	1	1	1	0	1	-5,919662	273,733377	312,422438	0
15.01.2021	22:51:14	0	0	3,615443	0,70725	281,3688	-0,055	87,456	0	1017,62	6,6	8,5	8,4	1	1	1	1	1	1	1	1	1	0	1	-6,624383	273,692423	311,527249	0
15.01.2021	22:51:15	0	0	3,05053	0,73425	282,8772	-0,062	87,437	0	1017,52	6,6	8,5	8,4	1	1	1	1	1	1	1	1	1	0	1	-9,44327	273,803786	309,226492	0
15.01.2021	22:51:16	0	0	3,502461	0,7635	288,1512	-0,058	87,454	0	1017,74	6,6	8,5	8,4	1	1	1	1	1	1	1	1	1	0	1	-6,694856	273,68804	311,436399	0
15.01.2021	22:51:17	0	0	4,745269	0,795	291,8808	-0,058	87,447	0	1017,66	6,6	8,6	8,4	1	1	1	1	1	1	1	1	1	0	1	-7,470049	273,71874	310,80397	0
15.01.2021	22:51:18	0	0	3,389478	0,819	291,1212	-0,058	87,46	0	1017,52	6,6	8,5	8,4	1	1	1	1	1	1	1	1	1	0	1	-8,386187	273,69973	309,799421	0
15.01.2021	22:51:19	0	0	4,858252	0,8355	296,7984	-0,061	87,43	0	1017,6	6,6	8,5	8,4	1	1	1	1	1	1	1	1	1	0	1	-6,060606	273,73777	312,30193	0
15.01.2021	22:51:20	0	0	4,180356	0,83925	293,0112	-0,061	87,445	0	1017,62	6,6	8,5	8,4	1	1	1	1	1	1	1	1	1	0	1	-10,641297	273,809665	308,055836	0
15.01.2021	22:51:21	0	0	3,05053	0,86025	295,9956	-0,061	87,445	0	1017,78	6,6	8,6	8,4	1	1	1	1	1	1	1	1	1	0	1	-8,104299	273,695345	310,060922	0
15.01.2021	22:51:22	0	0	2,5986	0,858	308,0988	-0,06	87,447	0	1017,68	6,6	8,5	8,4	1	1	1	1	1	1	1	1	1	0	1	-5,84919	273,674898	312,220964	0
15.01.2021	22:51:23	0	0	2,485617	0,89325	305,4564	-0,057	87,445	0	1017,62	6,6	8,5	8,4	1	1	1	1	1	1	1	1	1	0	1	-2,184637	273,8229	316,574117	0
15.01.2021	22:51:24	0	0	2,372635	0,855	284,454	-0,056	87,444	0	1017,64	6,6	8,5	8,4	1	1	1	1	1	1	1	1	1	0	1	-8,738548	273,855289	310,171052	0
15.01.2021	22:51:25	0	0	4,858252	0,798	279,8892	-0,064	87,446	0	1017,6	6,6	8,6	8,4	1	1	1	1	1	1	1	1	1	0	1	-8,668076	273,762683	309,810373	0
15.01.2021	22:51:26	0	0	3,276495	0,765	290,3832	-0,057	87,444	0	1017,58	6,6	8,5	8,4	1	1	1	1	1	1	1	1	1	0	1	-7,399577	273,671979	310,657006	0
15.01.2021	22:51:27	0	0	4,745269	0,75225	298,2204	-0,062	87,452	0	1017,6	6,6	8,6	8,4	1	1	1	1	1	1	1	1	1	0	1	-8,80902	273,742164	309,573958	0
15.01.2021	22:51:28	0	0	5,084247	0,7335	298,1808	-0,064	87,44	0	1017,66	6,6	8,5	8,3	1	1	1	1	1	1	1	1	1	0	1	-8,527132	273,843505	310,32758	0
15.01.2021	22:51:29	0	0	2,824565	0,70875	292,9356	-0,059	87,436	0	1017,74	6,6	8,5	8,4	1	1	1	1	1	1	1	1	1	0	1	-4,721635	273,709964	313,511567	0
15.01.2021	22:51:30	0	0	5,084217	0,74475	294,8148	-0,061	87,438	0	1017,66	6,6	8,5	8,4	1	1	1	1	1	1	1	1	1	0	1	-8,668076	273,721667	309,619555	0
15.01.2021	22:51:31	0	0	2,711599	0,73275	300,8952	-0,064	87,452	0	1017,68	6,5	8,5	8,3	1	1	1	1	1	1	1	1	1	0	1	-5,708245	273,705577	312,504556	0
15.01.2021	22:51:32	0	0	5,197231	0,7785	298,638	-0,061	87,445	0	1017,6	6,6	8,5	8,3	1	1	1	1	1	1	1	1	1	0	1	-4,439746	273,692423	313,711886	0
15.01.2021	22:51:33	0	0	3,163513	0,79875	282,0564	-0,065	87,44	0	1017,7	6,6	8,5	8,4	1	1	1	1	1	1	1	1	1	0	1	-5,355884	273,726057	312,952168	0
15.01.2021	22:51:34	0	0	3,728426	0,8925	287,82	-0,065	87,435	0	1017,6	6,6	8,5	8,4	1	1	1	1	1	1	1	1	1	0	1	-3,59408	273,8229	315,164674	0
15.01.2021	22:51:35	0	0	3,502482	0,91725	300,4848	-0,062	87,448	0	1017,74	6,6	8,5	8,3	1	1	1	1	1	1	1	1	1	0	1	-5,708245	273,667601	312,327986	0
15.01.2021	22:51:36	0	0	3,05053	0,9885	295,5564	-0,063	87,448	0	1017,52	6,6	8,5	8,4	1	1	1	1	1	1	1	1	1	0	1	-9,302326	273,740699	309,073838	0
15.01.2021	22:51:37	0	0	3,615443	1,0155	290,1096	-0,062	87,463	0	1017,68	6,6	8,5	8,4	1	1	1	1	1	1	1	1	1	0	1	-8,597604	273,673438	309,465764	0
15.01.2021	22:51:38	0	0	2,937548	1,0155	292,158	-0,065	87,439	0	1017,56	6,6	8,5	8,4	1	1	1	1	1	1	1	1	1	0	1	-4,933051	273,736305	313,422672	0
15.01.2021	22:51:39	0	0	3,841431	0,984	294,1128	-0,067	87,455	0	1017,64	6,6	8,5	8,3	1	1	1	1	1	1	1	1	1	0	1	-5,496829	273,68658	312,627634	0
15.01.2021	22:51:40	0	0	4,632259	0,918	302,0076	-0,06	87,459	0	1017,56	6,6	8,5	8,5	1	1	1	1	1	1	1	1	1	0	1	-5,355884	273,767082	313,143039	0
15.01.2021	22:51:41	0	0	3,163513	0,86925	300,8772	-0,062	87,463	0	1017,66	6,6	8,5	8,4	1	1	1	1	1	1	1	1	1	0	1	-7,540521	273,852343	311,355353	0
15.01.2021	22:51:42	0	0	3,841408	0,873	292,968	-0,063	87,46	0	1017,54	6,6	8,5	8,4	1	1	1	1	1	1	1	1	1	0	1	-7,82241	273,762683	310,656039	0
15.01.2021	22:51:43	0	0	4,971234	0,84075	291,2724	-0,064	87,451	0	1017,64	6,6	8,5	8,4	1	1	1	1	1	1	1	1	1	0	1	-8,315715	273,673438	309,747653	0
15.01.2021	22:51:44	0	0	4,858252	0,81975	291,4776	-0,065	87,446	0	1017,86	6,6	8,5	8,4	1	1	1	1	1	1	1	1	1	0	1	-3,664553	273,749489	314,752509	0
15.01.2021	22:51:45	0	0	4,519304	0,83025	299,3688	-0,066	87,446	0	1017,7	6,6	8,5	8,4	1	1	1	1	1	1	1	1	1	0	1	-3,875969	273,842033	314,971884	0
15.01.2021	22:51:46	0	0	4,180381	0,855	302,85	-0,066	87,461	0	1017,58	6,4	8,5	8,3	1	1	1	1	1	1	1	1	1	0	1	-9,372798	273,702653	308,826406	0
15.01.2021	22:51:47	0	0	4,971234	0,86925	299,466	-0,063	87,465	0	1017,64	6,5	8,5	8,4	1	1	1	1	1	1	1	1	1	0	1	-12,825934	273,812606	305,884888	0
15.01.2021	22:51:48	0	0	4,519331	0,8775	296,9172	-0,063	87,471	0	1017,78	6,4	8,5	8,3	1	1	1	1	1	1	1	1	1	0	1	-8,245243	273,818487	310,492965	0
15.01.2021	22:51:49	0	0	2,937548	0,8625	302,8068	-0,064	87,458	0	1017,7	6,6	8,5	8,4	1	1	1	1	1	1	1	1	1	0	1	-5,21494	273,677818	312,868787	0
15.01.2021	22:51:50	0	0	3,502482	0,8295	306,1116	-0,07	87,446	0	1017,62	6,6	8,5	8,3	1	1	1	1	1	1	1	1	1	0	1	-7,963354	273,800847	310,692726	0
15.01.2021	22:51:51	0	0	3,615443	0,8385	302,2128	-0,074	87,461	0	1017,68	6,6	8,5	8,4	1	1	1	1	1	1	1	1	1	0	1	-5,073996	273,79644	313,561567	0
15.01.2021	22:51:52	0	0	3,615465	0,801	294,7968	-0,071	87,461	0	1017,74	6,6	8,5	8,3	1	1	1	1	1	1	1	1	1	0	1	-6,906272	273,852343	311,989602	0
15.01.2021	22:51:53	0	0	2,824565	0,7935	288,1512	-0,074	87,461	0	1017,58	6,6	8,5	8,4	1	1	1	1	1	1	1	1	1	0	1	-5,285412	273,790565	313,322802	0
15.01.2021	22:51:54	0	0	4,632287	0,79725	289,17	-0,065	87,454	0	1017,66	6,6	8,5	8,4	1	1	1	1	1	1	1	1	1	0	1	-5,778717	273,842033	313,069136	0
15.01.2021	22:51:55	0	0	3,728426	0,80775	301,6152	-0,061	87,458	0	1017,6	6,6	8,5	8,4	1	1	1	1	1	1	1	1	1	0	1	-3,946441	273,711426	314,293562	0
15.01.2021	22:51:56	0	0	4,406321	0,765	295,146	-0,068	87,46	0	1017,64	6,5	8,5	8,4	1	1	1	1	1	1	1	1	1	0	1	-4,862579	273,667601	313,173652	0
15.01.2021	22:51:57	0	0	3,502461	0,80025	295,5816	-0,063	87,467	0	1017,66	6,6	8,5	8,4	1	1	1	1	1	1	1	1	1	0	1	-2,60747	273,797909	316,034931	0
15.01.2021	22:51:58	0	0	2,711582	0,828	306,8892	-0,064	87,465	0	1017,48	6,6	8,5	8,4	1	1	1	1	1	1	1	1	1	0	1	-1,198027	273,658848	316,797517	0
15.01.2021	22:51:59	0	0	2,711582	0,85725	310,4172	-0,068	87,456	0	1017,8	6,5	8,5	8,4	1	1	1	1	1	1	1	1	1	0	1	-7,047216	273,745094	311,349393	0
15.01.2021	22:52:00	0	0	4,293339	0,86625	304,2144	-0,066	87,469	0	1017,76	6,6	8,5	8,4	1	1	1	1	1	1	1	1	1	0	1	-2,255109	273,673438	315,808259	0
15.01.2021	22:52:01	0	0	4,293339	0,816	301,6044	-0,065	87,466	0	1017,54	6,6	8,5	8,4	1	1	1	1	1	1	1	1	1	0	1	-6,20155	273,790565	312,406664	0
15.01.2021	22:52:02	0	0	2,5986	0,8265	299,8116	-0,07	87,464	0	1017,8	6,6	8,5	8,4	1	1	1	1	1	1	1	1	1	0	1	-4,933051	273,648641	313,015053	0
15.01.2021	22:52:03	0	0	3,502461	0,81675	289,2204	-0,073	87,471	0	1017,6	6,4	8,5	8,4	1	1	1	1	1	1	1	1	1	0	1	-2,60747	273,714352	315,646138	0
15.01.2021	22:52:04	0	0	3,163513	0,801	285,8832	-0,068	87,451	0	1017,72	6,5	8,5	8,4	1	1	1	1	1	1	1	1	1	0	1	-7,117689	273,839088	311,71645	0
15.01.2021	22:52:05	0	0	4,971234	0,8205	293,0004	-0,071	87,461	0	1017,66	6,6	8,5	8,4	1	1	1	1	1	1	1	1	1	0	1	-6,8358	273,806726	311,847646	0
15.01.2021	22:52:06	0	0	3,728426	0,81375	294,4224	-0,066	87,469	0	1017,56	6,6	8,5	8,4	1	1	1	1	1	1	1	1	1	0	1	-4,721635	273,721667	313,565996	0
15.01.2021	22:52:07	0	0	4,745269	0,83175	293,7132	-0,071	87,444	0	1017,58	6,6	8,5	8,4	1	1	1	1	1	1	1	1	1	0	1	-8,879493	273,805256	309,797111	0
15.01.2021	22:52:08	0	0	2,711582	0,87675	302,1192	-0,07	87,477	0	1017,64	6,6	8,5	8,4	1	1	1	1	1	1	1	1	1	0	1	-1,973221	273,650098	315,981659	0
15.01.2021	22:52:09	0	0	2,485617	0,8565	306,0972	-0,073	87,472	0	1017,66	6,6	8,5	8,4	1	1	1	1	1	1	1	1	1	0	1	-4,22833	273,800847	314,427751	0
15.01.2021	22:52:10	0	0	2,598615	0,87525	303,2424	-0,067	87,466	0	1017,44	6,6	8,5	8,3	1	1	1	1	1	1	1	1	1	0	1	-7,329105	273,84056	311,511891	0
15.01.2021	22:52:11	0	0	3,502461	0,852	295,5708	-0,067	87,466	0	1017,56	6,4	8,5	8,4	1	1	1	1	1	1	1	1	1	0	1	-5,567301	273,814076	313,150367	0
15.01.2021	22:52:12	0	0	4,180381	0,8715	289,1736	-0,062	87,477	0	1017,52	6,6	8,5	8,3	1	1	1	1	1	1	1	1	1	0	1	-3,875969	273,837616	314,951314	0
15.01.2021	22:52:13	0	0	2,372635	0,873	296,496	-0,068	87,468	0	1017,68	6,5	8,5	8,4	1	1	1	1	1	1	1	1	1	0	1	-4,862579	273,714352	313,391028	0
15.01.2021	22:52:14	0	0	2,824565	0,9105	296,0748	-0,067	87,465	0	1017,66	6,4	8,5	8,4	1	1	1	1	1	1	1	1	1	0	1	-6,906272	273,836144	311,914155	0
15.01.2021	22:52:15	0	0	2,372649	0,90525	291,1932	-0,077	87,464	0	1017,66	6,4	8,5	8,3	1	1	1	1	1	1	1	1	1	0	1	-8,879493	273,682198	309,2246	0
15.01.2021	22:52:16	0	0	4,067374	0,924	296,4672	-0,072	87,477	0	1017,6	6,6	8,5	8,4	1	1	1	1	1	1	1	1	1	0	1	-1,409443	273,777352	317,137275	0
15.01.2021	22:52:17	0	0	2,824565	0,95325	296,1432	-0,067	87,47	0	1017,56	6,6	8,5	8,4	1	1	1	1	1	1	1	1	1	0	1	-5,567301	273,658848	312,428243	0
15.01.2021	22:52:18	0	0	3,389478	0,918	292,2768	-0,072	87,474	0	1017,68	6,6	8,5	8,4	1	1	1	1	1	1	1	1	1	0	1	-5,637773	273,77295	312,888458	0
15.01.2021	22:52:19	0	0	4,971234	0,8955	301,0968	-0,071	87,472	0	1017,66	6,4	8,5	8,4	1	1	1	1	1	1	1	1	1	0	1	-7,610994	273,824371	311,15461	0
15.01.2021	22:52:20	0	0	2,711582	0,90525	309,2256	-0,07	87,471	0	1017,64	6,4	8,5	8,4	1	1	1	1	1	1	1	1	1	0	1	-5,144468	273,712889	313,102337	0
15.01.2021	22:52:21	0	0	4,858281	0,91275	307,5588	-0,076	87,469	0	1017,58	6,6	8,5	8,3	1	1	1	1	1	1	1	1	1	0	1	-3,523608	273,658848	314,471936	0
15.01.2021	22:52:22	0	0	2,711599	1,017	309,2832	-0,071	87,485	0	1017,66	6,4	8,5	8,3	1	1	1	1	1	1	1	1	1	0	1	-3,171247	273,730448	315,157232	0
15.01.2021	22:52:23	0	0	3,615443	1,05225	313,1892	-0,071	87,49	0	1017,78	6,6	8,5	8,4	1	1	1	1	1	1	1	1	1	0	1	-7,329105	273,677818	310,754622	0
15.01.2021	22:52:24	0	0	3,728426	1,0605	315,8784	-0,067	87,479	0	1017,56	6,6	8,5	8,4	1	1	1	1	1	1	1	1	1	0	1	-5,567301	273,698268	312,611511	0
15.01.2021	22:52:25	0	0	4,406295	1,03575	309,2328	-0,071	87,485	0	1017,6	6,6	8,5	8,5	1	1	1	1	1	1	1	1	1	0	1	-6,765328	273,837616	312,061955	0
15.01.2021	22:52:26	0	0	4,519304	1,02	310,6548	-0,069	87,486	0	1017,62	6,4	8,5	8,4	1	1	1	1	1	1	1	1	1	0	1	-4,933051	273,783223	313,640992	0
15.01.2021	22:52:27	0	0	2,711582	1,0335	330,0624	-0,067	87,496	0	1017,64	6,6	8,5	8,4	1	1	1	1	1	1	1	1	1	0	1	-3,382664	273,830256	315,410347	0
15.01.2021	22:52:28	0	0	3,389498	1,026	332,1	-0,068	87,485	0	1017,72	6,6	8,5	8,3	1	1	1	1	1	1	1	1	1	0	1	-8,597604	273,68804	309,533651	0
15.01.2021	22:52:29	0	0	3,276495	1,0155	323,2872	-0,073	87,484	0	1017,62	6,6	8,5	8,4	1	1	1	1	1	1	1	1	1	0	1	-8,315715	273,653014	309,652716	0
15.01.2021	22:52:30	0	0	3,276495	1,029	324,3888	-0,068	87,477	0	1017,7	6,5	8,5	8,4	1	1	1	1	1	1	1	1	1	0	1	-2,466526	273,758284	315,991455	0
15.01.2021	22:52:31	0	0	4,406348	1,04775	330,354	-0,075	87,485	0	1017,62	6,6	8,5	8,3	1	1	1	1	1	1	1	1	1	0	1	-5,637773	273,824371	313,127831	0
15.01.2021	22:52:32	0	0	4,858252	1,0845	307,7244	-0,075	87,473	0	1017,46	6,6	8,5	8,4	1	1	1	1	1	1	1	1	1	0	1	-8,527132	273,819958	310,217924	0
15.01.2021	22:52:33	0	0	4,858252	1,07925	302,4432	-0,069	87,486	0	1017,5	6,6	8,5	8,4	1	1	1	1	1	1	1	1	1	0	1	-10,42988	273,789096	308,171499	0
15.01.2021	22:52:34	0	0	3,050548	1,10025	323,0208	-0,075	87,49	0	1017,84	6,6	8,5	8,3	1	1	1	1	1	1	1	1	1	0	1	-5,990134	273,666142	312,039314	0
15.01.2021	22:52:35	0	0	3,954391	1,08825	320,166	-0,073	87,492	0	1017,68	6,6	8,5	8,4	1	1	1	1	1	1	1	1	1	0	1	-8,386187	273,69973	309,799421	0
15.01.2021	22:52:36	0	0	3,502482	1,1145	321,5124	-0,07	87,485	0	1017,56	6,4	8,5	8,3	1	1	1	1	1	1	1	1	1	0	1	-9,372798	273,660306	308,629526	0
15.01.2021	22:52:37	0	0	4,632314	1,125	336,1104	-0,073	87,493	0	1017,54	6,6	8,5	8,3	1	1	1	1	1	1	1	1	1	0	1	-4,22833	273,75975	314,236473	0
15.01.2021	22:52:38	0	0	4,180356	1,0935	339,5016	-0,065	87,498	0	1017,78	6,6	8,5	8,4	1	1	1	1	1	1	1	1	1	0	1	-0,563777	273,666142	317,465671	0
15.01.2021	22:52:39	0	0	3,502461	1,023	335,628	-0,076	87,485	0	1017,82	6,5	8,5	8,4	1	1	1	1	1	1	1	1	1	0	1	-8,174771	273,749489	310,24229	0
15.01.2021	22:52:40	0	0	3,841408	0,981	322,1352	-0,08	87,485	0	1017,58	6,6	8,5	8,4	1	1	1	1	1	1	1	1	1	0	1	-6,412967	273,655931	311,56902	0
15.01.2021	22:52:41	0	0	4,067374	0,954	304,6356	-0,069	87,493	0	1017,58	6,4	8,5	8,4	1	1	1	1	1	1	1	1	1	0	1	-5,990134	273,762683	312,488316	0
15.01.2021	22:52:42	0	0	3,389498	0,91575	308,5524	-0,073	87,49	0	1017,58	6,6	8,5	8,3	1	1	1	1	1	1	1	1	1	0	1	-4,157858	273,655931	313,824129	0
15.01.2021	22:52:43	0	0	2,598615	0,897	317,0052	-0,075	87,494	0	1017,76	6,6	8,5	8,3	1	1	1	1	1	1	1	1	1	0	1	-7,188161	273,770016	311,324416	0
15.01.2021	22:52:44	0	0	4,858252	0,89475	311,8284	-0,078	87,486	0	1017,54	6,6	8,5	8,4	1	1	1	1	1	1	1	1	1	0	1	-3,312192	273,657389	314,676573	0
15.01.2021	22:52:45	0	0	4,519331	0,86925	282,8088	-0,072	87,488	0	1017,58	6,6	8,5	8,3	1	1	1	1	1	1	1	1	1	0	1	-10,147992	273,753886	308,289527	0
15.01.2021	22:52:46	0	0	3,502482	0,8865	274,4136	-0,072	87,499	0	1017,72	6,6	8,5	8,3	1	1	1	1	1	1	1	1	1	0	1	-5,778717	273,661765	312,230386	0
15.01.2021	22:52:47	0	0	4,067398	1,05075	282,8304	-0,067	87,498	0	1017,76	6,6	8,6	8,3	1	1	1	1	1	1	1	1	1	0	1	-5,144468	273,789096	313,456911	0
15.01.2021	22:52:48	0	0	3,615443	1,119	301,122	-0,073	87,495	0	1017,6	6,4	8,5	8,4	1	1	1	1	1	1	1	1	1	0	1	-3,875969	273,666142	314,153479	0
15.01.2021	22:52:49	0	0	2,485617	1,158	309,51	-0,073	87,5	0	1017,46	6,6	8,5	8,4	1	1	1	1	1	1	1	1	1	0	1	-6,483439	273,709964	311,749762	0
15.01.2021	22:52:50	0	0	2,711599	1,13325	307,1376	-0,071	87,505	0	1017,64	6,6	8,5	8,3	1	1	1	1	1	1	1	1	1	0	1	-6,412967	273,676358	311,663974	0
15.01.2021	22:52:51	0	0	3,615443	1,14675	304,2216	-0,071	87,5	0	1017,64	6,4	8,5	8,4	1	1	1	1	1	1	1	1	1	0	1	-8,597604	273,682198	309,506489	0
15.01.2021	22:52:52	0	0	4,519331	1,11	300,438	-0,071	87,479	0	1017,62	6,6	8,5	8,3	1	1	1	1	1	1	1	1	1	0	1	-7,751938	273,797909	310,890463	0
15.01.2021	22:52:53	0	0	4,858281	1,1415	311,76	-0,08	87,488	0	1017,56	6,4	8,5	8,3	1	1	1	1	1	1	1	1	1	0	1	-7,610994	273,809665	311,086139	0
15.01.2021	22:52:54	0	0	2,824582	1,15275	311,1084	-0,074	87,511	0	1017,66	6,4	8,5	8,3	1	1	1	1	1	1	1	1	1	0	1	-3,453136	273,709964	314,780065	0
15.01.2021	22:52:55	0	0	4,858252	1,0935	303,5304	-0,071	87,508	0	1017,66	6,6	8,5	8,4	1	1	1	1	1	1	1	1	1	0	1	-8,245243	273,663224	309,770641	0
15.01.2021	22:52:56	0	0	5,1972	1,149	300,8124	-0,068	87,515	0	1017,72	6,4	8,5	8,4	1	1	1	1	1	1	1	1	1	0	1	-4,369274	273,781755	314,197938	0
15.01.2021	22:52:57	0	0	4,067374	1,1835	296,928	-0,074	87,498	0	1017,64	6,6	8,5	8,4	1	1	1	1	1	1	1	1	1	0	1	-5,285412	273,784691	313,295465	0
15.01.2021	22:52:58	0	0	4,067398	1,2405	291,6936	-0,073	87,498	0	1017,58	6,6	8,5	8,3	1	1	1	1	1	1	1	1	1	0	1	-6,342495	273,839088	312,491644	0
15.01.2021	22:52:59	0	0	4,067398	1,3365	292,9824	-0,078	87,503	0	1017,66	6,4	8,5	8,3	1	1	1	1	1	1	1	1	1	0	1	-6,060606	273,77882	312,492943	0
15.01.2021	22:53:00	0	0	4,519304	1,37625	302,868	-0,069	87,51	0	1017,7	6,4	8,5	8,4	1	1	1	1	1	1	1	1	1	0	1	-4,510218	273,846451	314,358212	0
15.01.2021	22:53:01	0	0	4,519331	1,33875	306,396	-0,074	87,489	0	1017,82	6,6	8,5	8,3	1	1	1	1	1	1	1	1	1	0	1	-10,077519	273,702653	308,121684	0
15.01.2021	22:53:02	0	0	4,745298	1,30575	299,4696	-0,075	87,494	0	1017,46	6,6	8,5	8,3	1	1	1	1	1	1	1	1	1	0	1	-4,22833	273,837616	314,598953	0
15.01.2021	22:53:03	0	0	4,745269	1,24425	313,2108	-0,072	87,488	0	1017,68	6,6	8,5	8,4	1	1	1	1	1	1	1	1	1	0	1	-7,047216	273,724593	311,254028	0
15.01.2021	22:53:04	0	0	3,050548	1,2015	316,3104	-0,071	87,51	0	1017,6	6,6	8,5	8,3	1	1	1	1	1	1	1	1	1	0	1	-5,708245	273,658848	312,287299	0
15.01.2021	22:53:05	0	0	4,858281	1,12725	310,6224	-0,078	87,496	0	1017,56	6,6	8,5	8,3	1	1	1	1	1	1	1	1	1	0	1	-5,144468	273,75975	313,320335	0
15.01.2021	22:53:06	0	0	3,163513	1,0365	313,2	-0,071	87,488	0	1017,52	6,6	8,6	8,4	1	1	1	1	1	1	1	1	1	0	1	-7,258633	273,767082	311,240291	0
15.01.2021	22:53:07	0	0	4,519304	1,04325	313,1892	-0,077	87,512	0	1017,64	6,6	8,5	8,4	1	1	1	1	1	1	1	1	1	0	1	-7,82241	273,8229	310,936344	0
15.01.2021	22:53:08	0	0	2,5986	1,03875	309,9312	-0,078	87,506	0	1017,64	6,6	8,5	8,4	1	1	1	1	1	1	1	1	1	0	1	-2,818887	273,800847	315,837194	0
15.01.2021	22:53:09	0	0	3,389498	1,05225	310,7016	-0,067	87,551	0	1018,06	6,6	8,5	8,3	1	1	1	1	1	1	1	1	1	0	1	-4,298802	273,698268	313,88001	0
15.01.2021	22:53:10	0	0	5,084217	1,068	314,1	-0,071	87,51	0	1017,64	6,6	8,5	8,4	1	1	1	1	1	1	1	1	1	0	1	-2,466526	273,784691	316,114351	0
15.01.2021	22:53:11	0	0	3,276515	1,04175	311,0436	-0,069	87,508	0	1017,46	6,6	8,5	8,3	1	1	1	1	1	1	1	1	1	0	1	-6,553911	273,671979	311,502672	0
15.01.2021	22:53:12	0	0	3,954415	1,05975	300,5136	-0,072	87,518	0	1017,72	6,4	8,5	8,3	1	1	1	1	1	1	1	1	1	0	1	-4,298802	273,806726	314,384644	0
15.01.2021	22:53:13	0	0	4,406348	1,0695	304,2396	-0,077	87,509	0	1017,58	6,4	8,5	8,3	1	1	1	1	1	1	1	1	1	0	1	-8,879493	273,78616	309,708218	0
15.01.2021	22:53:14	0	0	2,824582	1,0755	309,5532	-0,07	87,517	0	1017,72	6,4	8,5	8,3	1	1	1	1	1	1	1	1	1	0	1	-8,738548	273,674898	309,331606	0
15.01.2021	22:53:15	0	0	2,824582	1,077	317,7288	-0,075	87,521	0	1017,6	6,5	8,5	8,3	1	1	1	1	1	1	1	1	1	0	1	-10,852713	273,671979	307,20387	0
15.01.2021	22:53:16	0	0	2,711599	1,08975	313,2288	-0,07	87,511	0	1017,78	6,4	8,5	8,3	1	1	1	1	1	1	1	1	1	0	1	-3,312192	273,690962	314,832648	0
15.01.2021	22:53:17	0	0	3,163532	1,1505	310,7196	-0,069	87,522	0	1017,76	6,4	8,5	8,3	1	1	1	1	1	1	1	1	1	0	1	-7,892882	273,667601	310,143349	0
15.01.2021	22:53:18	0	0	3,954415	1,2045	312,1632	-0,074	87,504	0	1017,6	6,4	8,5	8,3	1	1	1	1	1	1	1	1	1	0	1	-2,536998	273,774418	315,996062	0
15.01.2021	22:53:19	0	0	2,937565	1,22325	309,5532	-0,067	87,515	0	1017,64	6,4	8,5	8,3	1	1	1	1	1	1	1	1	1	0	1	-5,003524	273,836144	313,816903	0
15.01.2021	22:53:20	0	0	3,954415	1,18575	310,2732	-0,076	87,521	0	1017,64	6,4	8,5	8,3	1	1	1	1	1	1	1	1	1	0	1	-9,090909	273,800847	309,565171	0
15.01.2021	22:53:21	0	0	4,858281	1,18275	317,0304	-0,077	87,531	0	1017,66	6,4	8,5	8,3	1	1	1	1	1	1	1	1	1	0	1	-9,231853	273,666142	308,797595	0
15.01.2021	22:53:22	0	0	3,841431	1,16025	301,5432	-0,074	87,522	0	1017,64	6,4	8,5	8,3	1	1	1	1	1	1	1	1	1	0	1	-3,453136	273,781755	315,114076	0
15.01.2021	22:53:23	0	0	2,598615	1,13775	306,3708	-0,072	87,524	0	1017,72	6,6	8,5	8,3	1	1	1	1	1	1	1	1	1	0	1	-6,765328	273,650098	311,189552	0
15.01.2021	22:53:24	0	0	3,954415	1,14075	314,7984	-0,072	87,513	0	1017,62	6,4	8,5	8,3	1	1	1	1	1	1	1	1	1	0	1	-8,738548	273,749489	309,678513	0
15.01.2021	22:53:25	0	0	3,728448	1,0875	319,2012	-0,067	87,531	0	1017,68	6,6	8,5	8,3	1	1	1	1	1	1	1	1	1	0	1	-8,245243	273,834672	310,568329	0
15.01.2021	22:53:26	0	0	2,259666	1,0245	320,3028	-0,075	87,536	0	1017,68	6,4	8,5	8,3	1	1	1	1	1	1	1	1	1	0	1	-4,721635	273,72313	313,572802	0
15.01.2021	22:53:27	0	0	3,276515	0,9495	322,146	-0,078	87,506	0	1017,56	6,6	8,5	8,3	1	1	1	1	1	1	1	1	1	0	1	-9,44327	273,654473	308,531939	0
15.01.2021	22:53:28	0	0	3,050548	0,89775	333,864	-0,073	87,524	0	1017,68	6,6	8,5	8,3	1	1	1	1	1	1	1	1	1	0	1	-3,312192	273,792033	315,302859	0
15.01.2021	22:53:29	0	0	4,971264	0,951	332,7912	-0,069	87,521	0	1017,7	6,4	8,5	8,3	1	1	1	1	1	1	1	1	1	0	1	-6,131078	273,68658	311,993385	0
15.01.2021	22:53:30	0	0	3,841431	1,02525	318,834	-0,073	87,502	0	1017,54	6,4	8,5	8,3	1	1	1	1	1	1	1	1	1	0	1	-8,386187	273,79644	310,249375	0
15.01.2021	22:53:31	0	0	4,971264	1,0275	329,2812	-0,082	87,492	0	1017,62	6,4	8,5	8,3	1	1	1	1	1	1	1	1	1	0	1	-5,21494	273,787628	313,379604	0
15.01.2021	22:53:32	0	0	3,841431	1,04775	330,7392	-0,071	87,517	0	1017,6	6,4	8,5	8,3	1	1	1	1	1	1	1	1	1	0	1	-6,694856	273,837616	312,132427	0
15.01.2021	22:53:33	0	0	3,050548	1,11	316,9656	-0,079	87,525	0	1017,66	6,4	8,5	8,3	1	1	1	1	1	1	1	1	1	0	1	-6,412967	273,711426	311,827036	0
15.01.2021	22:53:34	0	0	3,502461	1,17	324,3996	-0,072	87,524	0	1017,62	6,4	8,5	8,4	1	1	1	1	1	1	1	1	1	0	1	-6,8358	273,8332	311,970917	0
15.01.2021	22:53:35	0	0	4,180356	1,17375	323,3628	-0,075	87,521	0	1017,6	6,6	8,5	8,4	1	1	1	1	1	1	1	1	1	0	1	-7,751938	273,68804	310,379317	0
15.01.2021	22:53:36	0	0	2,711582	1,191	315,2052	-0,077	87,507	0	1017,68	6,4	8,5	8,4	1	1	1	1	1	1	1	1	1	0	1	-6,483439	273,828785	312,302719	0
15.01.2021	22:53:37	0	0	5,197231	1,16025	315,8496	-0,075	87,529	0	1017,66	6,4	8,5	8,3	1	1	1	1	1	1	1	1	1	0	1	-6,976744	273,721667	311,310887	0
15.01.2021	22:53:38	0	0	4,971264	1,14075	321,1416	-0,083	87,514	0	1017,54	6,4	8,5	8,3	1	1	1	1	1	1	1	1	1	0	1	-4,933051	273,842033	313,914802	0
15.01.2021	22:53:39	0	0	3,954367	1,152	322,2612	-0,075	87,519	0	1017,62	6,4	8,5	8,5	1	1	1	1	1	1	1	1	1	0	1	-8,949965	273,805256	309,726639	0
15.01.2021	22:53:40	0	0	2,824582	1,155	322,9488	-0,078	87,514	0	1017,54	6,6	8,5	8,3	1	1	1	1	1	1	1	1	1	0	1	-4,157858	273,653014	313,810574	0
15.01.2021	22:53:41	0	0	4,971264	1,164	330,7284	-0,081	87,528	0	1017,58	6,4	8,5	8,3	1	1	1	1	1	1	1	1	1	0	1	-7,540521	273,745094	310,856088	0
15.01.2021	22:53:42	0	0	3,728448	1,113	334,9476	-0,077	87,511	0	1017,6	6,6	8,5	8,3	1	1	1	1	1	1	1	1	1	0	1	-6,765328	273,817017	311,966033	0
15.01.2021	22:53:43	0	0	2,5986	1,068	325,4904	-0,072	87,513	0	1017,54	6,4	8,5	8,4	1	1	1	1	1	1	1	1	1	0	1	-4,792107	273,695345	313,373114	0
15.01.2021	22:53:44	0	0	4,632314	1,05075	324,414	-0,077	87,519	0	1017,54	6,4	8,5	8,3	1	1	1	1	1	1	1	1	1	0	1	-7,329105	273,775885	311,210784	0
15.01.2021	22:53:45	0	0	3,841385	1,07925	322,6392	-0,075	87,53	0	1017,42	6,4	8,5	8,5	1	1	1	1	1	1	1	1	1	0	1	-5,496829	273,79644	313,138734	0
15.01.2021	22:53:46	0	0	4,519304	1,032	321,1452	-0,074	87,516	0	1017,52	6,4	8,5	8,4	1	1	1	1	1	1	1	1	1	0	1	-9,513742	273,660306	308,488581	0
15.01.2021	22:53:47	0	0	4,406348	1,02525	330,4944	-0,073	87,52	0	1017,6	6,4	8,5	8,3	1	1	1	1	1	1	1	1	1	0	1	-7,188161	273,690962	310,956679	0
15.01.2021	22:53:48	0	0	2,485632	0,96375	337,1436	-0,071	87,517	0	1017,62	6,6	8,5	8,3	1	1	1	1	1	1	1	1	1	0	1	-4,22833	273,8229	314,530424	0
15.01.2021	22:53:49	0	0	4,519277	0,93675	329,2776	-0,074	87,523	0	1017,66	6,4	8,5	8,5	1	1	1	1	1	1	1	1	1	0	1	-2,677942	273,811135	316,026035	0
15.01.2021	22:53:50	0	0	3,841431	0,88125	323,6868	-0,076	87,529	0	1017,7	6,6	8,5	8,3	1	1	1	1	1	1	1	1	1	0	1	-6,412967	273,705577	311,799834	0
15.01.2021	22:53:51	0	0	4,632314	0,819	327,078	-0,073	87,526	0	1017,64	6,4	8,5	8,3	1	1	1	1	1	1	1	1	1	0	1	-5,21494	273,657389	312,773825	0
15.01.2021	22:53:52	0	0	4,858281	0,7755	330,7212	-0,079	87,525	0	1017,64	6,4	8,5	8,3	1	1	1	1	1	1	1	1	1	0	1	-2,959831	273,696807	315,212186	0
15.01.2021	22:53:53	0	0	4,067398	0,74025	326,7216	-0,081	87,518	0	1017,56	6,4	8,5	8,3	1	1	1	1	1	1	1	1	1	0	1	-5,919662	273,819958	312,825394	0
15.01.2021	22:53:54	0	0	2,598615	0,71625	319,6404	-0,072	87,518	0	1017,54	6,4	8,5	8,3	1	1	1	1	1	1	1	1	1	0	1	-9,936575	273,774418	308,596485	0
15.01.2021	22:53:55	0	0	3,163532	0,726	321,7896	-0,078	87,536	0	1017,62	6,6	8,5	8,3	1	1	1	1	1	1	1	1	1	0	1	-4,22833	273,683659	313,882552	0
15.01.2021	22:53:56	0	0	3,502482	0,678	326,0052	-0,074	87,536	0	1017,68	6,4	8,5	8,3	1	1	1	1	1	1	1	1	1	0	1	-5,708245	273,758284	312,749736	0
15.01.2021	22:53:57	0	0	4,858252	0,62325	327,402	-0,072	87,521	0	1017,56	6,4	8,5	8,4	1	1	1	1	1	1	1	1	1	0	1	-8,033827	273,836144	310,7866	0
15.01.2021	22:53:58	0	0	3,502482	0,6795	308,4588	-0,074	87,534	0	1017,6	6,6	8,5	8,3	1	1	1	1	1	1	1	1	1	0	1	-5,919662	273,75242	312,511037	0
15.01.2021	22:53:59	0	0	3,502482	0,68475	306,1296	-0,081	87,535	0	1017,42	6,4	8,5	8,3	1	1	1	1	1	1	1	1	1	0	1	-7,399577	273,836144	311,42085	0
15.01.2021	22:54:00	0	0	3,276515	0,71175	314,7408	-0,073	87,54	0	1017,56	6,4	8,5	8,3	1	1	1	1	1	1	1	1	1	0	1	-6,483439	273,692423	311,668194	0
15.01.2021	22:54:01	0	0	3,389498	0,74625	312,3036	-0,079	87,523	0	1017,4	6,4	8,5	8,3	1	1	1	1	1	1	1	1	1	0	1	-7,470049	273,650098	310,48483	0
15.01.2021	22:54:02	0	0	4,406348	0,72225	300,1608	-0,071	87,534	0	1017,7	6,4	8,5	8,3	1	1	1	1	1	1	1	1	1	0	1	-4,369274	273,68804	313,76198	0
15.01.2021	22:54:03	0	0	2,937565	0,76425	297,3204	-0,072	87,53	0	1017,7	6,4	8,5	8,3	1	1	1	1	1	1	1	1	1	0	1	-4,933051	273,808195	313,757238	0
15.01.2021	22:54:04	0	0	2,372649	0,73875	301,7124	-0,076	87,531	0	1017,6	6,4	8,5	8,3	1	1	1	1	1	1	1	1	1	0	1	-3,523608	273,77295	315,002623	0
15.01.2021	22:54:05	0	0	4,971264	0,76425	300,8988	-0,081	87,527	0	1017,74	6,4	8,5	8,3	1	1	1	1	1	1	1	1	1	0	1	-8,45666	273,811135	310,247317	0
15.01.2021	22:54:06	0	0	3,728448	0,77925	300,1464	-0,074	87,526	0	1017,58	6,6	8,5	8,3	1	1	1	1	1	1	1	1	1	0	1	-6,060606	273,728984	312,261063	0
15.01.2021	22:54:07	0	0	3,276515	0,81075	299,7396	-0,079	87,535	0	1017,62	6,4	8,5	8,3	1	1	1	1	1	1	1	1	1	0	1	-4,298802	273,641353	313,615435	0
15.01.2021	22:54:08	0	0	4,519331	0,86625	296,154	-0,074	87,517	0	1017,62	6,6	8,5	8,3	1	1	1	1	1	1	1	1	1	0	1	-8,033827	273,740699	310,342337	0
15.01.2021	22:54:09	0	0	3,389478	0,8445	308,8296	-0,074	87,532	0	1017,64	6,6	8,5	8,4	1	1	1	1	1	1	1	1	1	0	1	-5,144468	273,830256	313,648542	0
15.01.2021	22:54:10	0	0	5,084217	0,83025	311,1156	-0,072	87,535	0	1017,54	6,4	8,5	8,4	1	1	1	1	1	1	1	1	1	0	1	-9,936575	273,767082	308,562349	0
15.01.2021	22:54:11	0	0	4,293365	0,756	307,1592	-0,081	87,536	0	1017,54	6,4	8,5	8,3	1	1	1	1	1	1	1	1	1	0	1	-9,725159	273,8229	309,033596	0
15.01.2021	22:54:12	0	0	3,502482	0,744	300,4632	-0,071	87,528	0	1017,56	6,4	8,5	8,3	1	1	1	1	1	1	1	1	1	0	1	-7,329105	273,818487	311,409103	0
15.01.2021	22:54:13	0	0	2,711599	0,696	292,9356	-0,076	87,539	0	1017,74	6,4	8,5	8,3	1	1	1	1	1	1	1	1	1	0	1	-7,047216	273,799378	311,602024	0
15.01.2021	22:54:14	0	0	3,163532	0,6465	297,1728	-0,073	87,537	0	1017,72	6,4	8,5	8,3	1	1	1	1	1	1	1	1	1	0	1	-1,198027	273,670519	316,851771	0
15.01.2021	22:54:15	0	0	2,711599	0,64575	301,2336	-0,081	87,535	0	1017,6	6,6	8,5	8,3	1	1	1	1	1	1	1	1	1	0	1	-7,963354	273,775885	310,576534	0
15.01.2021	22:54:16	0	0	3,954391	0,65775	302,1048	-0,077	87,535	0	1017,76	6,6	8,5	8,4	1	1	1	1	1	1	1	1	1	0	1	-4,439746	273,701191	313,75266	0
15.01.2021	22:54:17	0	0	3,841431	0,66075	305,766	-0,075	87,521	0	1017,66	6,4	8,5	8,3	1	1	1	1	1	1	1	1	1	0	1	-5,073996	273,818487	313,664212	0
15.01.2021	22:54:18	0	0	3,615465	0,639	306,4464	-0,08	87,526	0	1017,66	6,6	8,5	8,3	1	1	1	1	1	1	1	1	1	0	1	-2,184637	273,797909	316,457764	0
15.01.2021	22:54:19	0	0	3,954415	0,64725	298,062	-0,075	87,547	0	1017,64	6,6	8,5	8,3	1	1	1	1	1	1	1	1	1	0	1	-5,003524	273,774418	313,529536	0
15.01.2021	22:54:20	0	0	4,632314	0,6135	298,6632	-0,074	87,551	0	1017,76	6,4	8,5	8,3	1	1	1	1	1	1	1	1	1	0	1	-4,933051	273,636982	312,960873	0
15.01.2021	22:54:21	0	0	4,067374	0,62025	301,7124	-0,074	87,542	0	1017,64	6,4	8,5	8,4	1	1	1	1	1	1	1	1	1	0	1	-7,047216	273,701191	311,145189	0
15.01.2021	22:54:22	0	0	4,293365	0,636	295,6032	-0,083	87,546	0	1017,42	6,4	8,5	8,3	1	1	1	1	1	1	1	1	1	0	1	-5,426357	273,642811	312,494653	0
15.01.2021	22:54:23	0	0	3,389498	0,67125	302,4648	-0,068	87,601	0	1017,6	6,4	8,5	8,3	1	1	1	1	1	1	1	1	1	0	1	-5,003524	273,715814	313,256888	0
15.01.2021	22:54:24	0	0	4,519331	0,67425	310,6368	-0,08	87,548	0	1017,68	6,4	8,5	8,3	1	1	1	1	1	1	1	1	1	0	1	-1,268499	273,653014	316,699933	0
15.01.2021	22:54:25	0	0	3,050548	0,69675	310,7016	-0,075	87,546	0	1017,64	6,4	8,5	8,3	1	1	1	1	1	1	1	1	1	0	1	-6,20155	273,708501	312,02485	0
15.01.2021	22:54:26	0	0	2,485632	0,6975	307,2564	-0,075	87,545	0	1017,54	6,4	8,5	8,3	1	1	1	1	1	1	1	1	1	0	1	-6,906272	273,648641	311,041832	0
15.01.2021	22:54:27	0	0	4,293365	0,65925	306,162	-0,076	87,541	0	1017,68	6,4	8,5	8,3	1	1	1	1	1	1	1	1	1	0	1	-1,409443	273,685119	316,708229	0
15.01.2021	22:54:28	0	0	2,711599	0,6135	307,188	-0,077	87,536	0	1017,58	6,4	8,5	8,3	1	1	1	1	1	1	1	1	1	0	1	-3,875969	273,834672	314,937603	0
15.01.2021	22:54:29	0	0	2,711599	0,6375	308,9016	-0,076	87,542	0	1017,68	6,4	8,5	8,3	1	1	1	1	1	1	1	1	1	0	1	-9,231853	273,69973	308,953755	0
15.01.2021	22:54:30	0	0	4,180381	0,6315	311,1336	-0,07	87,526	0	1017,58	6,4	8,5	8,3	1	1	1	1	1	1	1	1	1	0	1	-7,329105	273,831728	311,470759	0
15.01.2021	22:54:31	0	0	4,971264	0,63975	315,8856	-0,075	87,539	0	1017,68	6,4	8,5	8,3	1	1	1	1	1	1	1	1	1	0	1	-7,963354	273,764149	310,521919	0
15.01.2021	22:54:32	0	0	4,632314	0,645	319,644	-0,079	87,54	0	1017,66	6,4	8,5	8,3	1	1	1	1	1	1	1	1	1	0	1	-5,426357	273,639896	312,481109	0
15.01.2021	22:54:33	0	0	3,389498	0,65775	318,4596	-0,077	87,545	0	1017,66	6,4	8,5	8,3	1	1	1	1	1	1	1	1	1	0	1	-4,721635	273,680738	313,375669	0
15.01.2021	22:54:34	0	0	3,728426	0,642	312,1848	-0,073	87,545	0	1017,8	6,4	8,5	8,4	1	1	1	1	1	1	1	1	1	0	1	-9,372798	273,830256	309,420213	0
15.01.2021	22:54:35	0	0	4,519331	0,66225	307,1592	-0,078	87,53	0	1017,46	6,4	8,5	8,3	1	1	1	1	1	1	1	1	1	0	1	-10,077519	273,69973	308,108089	0
15.01.2021	22:54:36	0	0	3,050548	0,68625	312,8652	-0,076	87,545	0	1017,6	6,6	8,5	8,3	1	1	1	1	1	1	1	1	1	0	1	-9,372798	273,836144	309,447629	0
15.01.2021	22:54:37	0	0	3,954415	0,68925	325,1844	-0,082	87,548	0	1017,58	6,4	8,5	8,3	1	1	1	1	1	1	1	1	1	0	1	-5,496829	273,73777	312,865708	0
15.01.2021	22:54:38	0	0	3,276515	0,67275	325,1736	-0,085	87,559	0	1017,62	6,4	8,5	8,3	1	1	1	1	1	1	1	1	1	0	1	-9,725159	273,805256	308,951445	0
15.01.2021	22:54:39	0	0	5,197231	0,7005	308,9412	-0,081	87,536	0	1017,66	6,6	8,5	8,3	1	1	1	1	1	1	1	1	1	0	1	-3,946441	273,775885	314,593448	0
15.01.2021	22:54:40	0	0	4,519331	0,66075	293,3676	-0,079	87,548	0	1017,64	6,4	8,5	8,3	1	1	1	1	1	1	1	1	1	0	1	-5,426357	273,648641	312,521747	0
15.01.2021	22:54:41	0	0	2,824582	0,66825	296,478	-0,078	87,547	0	1017,48	6,4	8,5	8,3	1	1	1	1	1	1	1	1	1	0	1	-6,342495	273,709964	311,890707	0
15.01.2021	22:54:42	0	0	3,728448	0,6315	309,3804	-0,073	87,553	0	1017,62	6,4	8,5	8,3	1	1	1	1	1	1	1	1	1	0	1	-5,567301	273,654473	312,407908	0
15.01.2021	22:54:43	0	0	4,180381	0,573	320,5368	-0,075	87,55	0	1017,58	6,6	8,5	8,3	1	1	1	1	1	1	1	1	1	0	1	-5,919662	273,794971	312,709063	0
15.01.2021	22:54:44	0	0	3,841431	0,59025	323,3952	-0,076	87,533	0	1017,6	6,4	8,5	8,3	1	1	1	1	1	1	1	1	1	0	1	-8,527132	273,712889	309,719673	0
15.01.2021	22:54:45	0	0	4,858281	0,59475	321,8616	-0,076	87,553	0	1017,74	6,6	8,5	8,3	1	1	1	1	1	1	1	1	1	0	1	-5,637773	273,821429	313,114132	0
15.01.2021	22:54:46	0	0	2,824582	0,6315	324,4104	-0,076	87,54	0	1017,54	6,4	8,5	8,3	1	1	1	1	1	1	1	1	1	0	1	-2,959831	273,661765	315,049273	0
15.01.2021	22:54:47	0	0	3,276515	0,6615	334,6632	-0,077	87,552	0	1017,66	6,6	8,5	8,3	1	1	1	1	1	1	1	1	1	0	1	-2,959831	273,682198	315,144262	0
15.01.2021	22:54:48	0	0	2,598615	0,68625	340,2576	-0,073	87,563	0	1017,66	6,4	8,5	8,3	1	1	1	1	1	1	1	1	1	0	1	-6,694856	273,642811	311,226154	0
15.01.2021	22:54:49	0	0	3,615465	0,6645	336,4308	-0,076	87,548	0	1017,54	6,4	8,5	8,3	1	1	1	1	1	1	1	1	1	0	1	-10,42988	273,78616	308,15783	0
15.01.2021	22:54:50	0	0	4,293365	0,6765	323,3664	-0,072	87,559	0	1017,62	6,4	8,5	8,3	1	1	1	1	1	1	1	1	1	0	1	-5,496829	273,812606	313,213993	0
15.01.2021	22:54:51	0	0	2,372635	0,7515	295,5276	-0,085	87,55	0	1017,54	6,6	8,5	8,4	1	1	1	1	1	1	1	1	1	0	1	-6,060606	273,674898	312,009548	0
15.01.2021	22:54:52	0	0	3,615465	0,83325	283,6224	-0,076	87,553	0	1017,58	6,4	8,5	8,3	1	1	1	1	1	1	1	1	1	0	1	-8,174771	273,68658	309,949692	0
15.01.2021	22:54:53	0	0	4,745298	0,87675	297,6912	-0,076	87,546	0	1017,44	6,4	8,5	8,3	1	1	1	1	1	1	1	1	1	0	1	-5,003524	273,817017	313,727837	0
15.01.2021	22:54:54	0	0	2,711599	0,9315	314,586	-0,083	87,537	0	1017,56	6,6	8,5	8,3	1	1	1	1	1	1	1	1	1	0	1	-4,510218	273,765616	313,98188	0
15.01.2021	22:54:55	0	0	4,293365	0,95625	298,7136	-0,076	87,544	0	1017,5	6,4	8,5	8,3	1	1	1	1	1	1	1	1	1	0	1	-4,298802	273,638439	313,601893	0
15.01.2021	22:54:56	0	0	2,824582	0,92925	291,1644	-0,082	87,541	0	1017,58	6,4	8,5	8,3	1	1	1	1	1	1	1	1	1	0	1	-7,258633	273,683659	310,852249	0
15.01.2021	22:54:57	0	0	4,067398	0,888	295,506	-0,077	87,548	0	1017,54	6,4	8,5	8,3	1	1	1	1	1	1	1	1	1	0	1	-6,553911	273,8229	312,204843	0
15.01.2021	22:54:58	0	0	2,824582	0,85125	305,4672	-0,076	87,549	0	1017,52	6,4	8,5	8,3	1	1	1	1	1	1	1	1	1	0	1	-4,369274	273,693884	313,789153	0
15.01.2021	22:54:59	0	0	3,954415	0,79425	313,2504	-0,078	87,562	0	1017,54	6,4	8,5	8,3	1	1	1	1	1	1	1	1	1	0	1	-8,45666	273,660306	309,545664	0
15.01.2021	22:55:00	0	0	4,406348	0,7815	305,7588	-0,08	87,56	0	1017,68	6,4	8,5	8,3	1	1	1	1	1	1	1	1	1	0	1	-4,439746	273,642811	313,481263	0
15.01.2021	22:55:01	0	0	4,293365	0,786	300,5424	-0,083	87,553	0	1017,64	6,6	8,5	8,3	1	1	1	1	1	1	1	1	1	0	1	-12,755462	273,702653	305,443742	0
15.01.2021	22:55:02	0	0	2,711599	0,73275	305,7912	-0,076	87,562	0	1017,58	6,4	8,5	8,3	1	1	1	1	1	1	1	1	1	0	1	-5,919662	273,812606	312,79116	0
15.01.2021	22:55:03	0	0	4,406348	0,68775	314,82	-0,082	87,541	0	1017,56	6,4	8,5	8,3	1	1	1	1	1	1	1	1	1	0	1	-9,090909	273,720203	309,189916	0
15.01.2021	22:55:04	0	0	2,937565	0,69225	314,4564	-0,081	87,559	0	1017,6	6,4	8,5	8,3	1	1	1	1	1	1	1	1	1	0	1	-5,003524	273,817017	313,727837	0
15.01.2021	22:55:05	0	0	4,519331	0,663	302,076	-0,082	87,559	0	1017,58	6,4	8,5	8,3	1	1	1	1	1	1	1	1	1	0	1	-3,453136	273,781755	315,114076	0
15.01.2021	22:55:06	0	0	2,711599	0,6795	290,8476	-0,077	87,557	0	1017,6	6,4	8,5	8,3	1	1	1	1	1	1	1	1	1	0	1	-6,412967	273,685119	311,704705	0
15.01.2021	22:55:07	0	0	4,858281	0,675	298,2636	-0,082	87,559	0	1017,56	6,4	8,5	8,3	1	1	1	1	1	1	1	1	1	0	1	-5,637773	273,660306	312,36455	0
15.01.2021	22:55:08	0	0	2,485632	0,666	313,2252	-0,08	87,55	0	1017,66	6,6	8,5	8,3	1	1	1	1	1	1	1	1	1	0	1	-7,963354	273,673438	310,100014	0
15.01.2021	22:55:09	0	0	4,632314	0,70575	312,8544	-0,074	87,556	0	1017,62	6,4	8,5	8,3	1	1	1	1	1	1	1	1	1	0	1	-6,765328	273,650098	311,189552	0
15.01.2021	22:55:10	0	0	2,937565	0,69975	305,4672	-0,079	87,57	0	1017,66	6,6	8,5	8,3	1	1	1	1	1	1	1	1	1	0	1	-5,073996	273,695345	313,091225	0
15.01.2021	22:55:11	0	0	2,598615	0,70575	304,6752	-0,074	87,574	0	1017,6	6,4	8,5	8,3	1	1	1	1	1	1	1	1	1	0	1	-7,329105	273,658848	310,666439	0
15.01.2021	22:55:12	0	0	4,067398	0,68775	304,6032	-0,082	87,558	0	1017,62	6,4	8,5	8,3	1	1	1	1	1	1	1	1	1	0	1	-8,80902	273,661765	309,200083	0
15.01.2021	22:55:13	0	0	3,841431	0,68025	302,022	-0,079	87,56	0	1017,5	6,4	8,5	8,3	1	1	1	1	1	1	1	1	1	0	1	-7,892882	273,708501	310,333518	0
15.01.2021	22:55:14	0	0	3,050548	0,70125	300,1392	-0,073	87,573	0	1017,54	6,4	8,5	8,3	1	1	1	1	1	1	1	1	1	0	1	-5,426357	273,819958	313,318699	0
15.01.2021	22:55:15	0	0	4,180381	0,717	301,4892	-0,076	87,564	0	1017,58	6,4	8,5	8,3	1	1	1	1	1	1	1	1	1	0	1	-6,8358	273,770016	311,676776	0
15.01.2021	22:55:16	0	0	2,711599	0,71775	307,1952	-0,077	87,564	0	1017,44	6,4	8,5	8,3	1	1	1	1	1	1	1	1	1	0	1	-7,82241	273,827313	310,956896	0
15.01.2021	22:55:17	0	0	4,971264	0,72225	315,8568	-0,079	87,543	0	1017,5	6,4	8,5	8,3	1	1	1	1	1	1	1	1	1	0	1	-8,738548	273,787628	309,855996	0
15.01.2021	22:55:18	0	0	2,937565	0,7365	318,4632	-0,078	87,558	0	1017,58	6,4	8,5	8,3	1	1	1	1	1	1	1	1	1	0	1	-6,20155	273,762683	312,276899	0
15.01.2021	22:55:19	0	0	4,971264	0,69675	310,644	-0,083	87,558	0	1017,4	6,4	8,5	8,3	1	1	1	1	1	1	1	1	1	0	1	-5,285412	273,650098	312,669467	0
15.01.2021	22:55:20	0	0	2,711599	0,6495	303,7572	-0,08	87,567	0	1017,62	6,6	8,5	8,3	1	1	1	1	1	1	1	1	1	0	1	-4,22833	273,704115	313,977672	0
15.01.2021	22:55:21	0	0	3,389498	0,6465	303,174	-0,083	87,563	0	1017,56	6,4	8,5	8,3	1	1	1	1	1	1	1	1	1	0	1	-6,412967	273,8229	312,345787	0
15.01.2021	22:55:22	0	0	3,163532	0,63975	304,2252	-0,082	87,555	0	1017,64	6,4	8,5	8,3	1	1	1	1	1	1	1	1	1	0	1	-3,453136	273,666142	314,576312	0
15.01.2021	22:55:23	0	0	4,858281	0,67875	302,076	-0,075	87,573	0	1017,6	6,6	8,5	8,3	1	1	1	1	1	1	1	1	1	0	1	-6,060606	273,784691	312,520271	0
15.01.2021	22:55:24	0	0	5,084247	0,66225	299,0916	-0,082	87,555	0	1017,46	6,4	8,5	8,3	1	1	1	1	1	1	1	1	1	0	1	-5,426357	273,808195	313,263933	0
15.01.2021	22:55:25	0	0	4,745298	0,7035	301,5504	-0,084	87,563	0	1017,6	6,4	8,5	8,3	1	1	1	1	1	1	1	1	1	0	1	-6,272023	273,783223	312,302021	0
15.01.2021	22:55:26	0	0	2,033699	0,717	309,9636	-0,082	87,555	0	1017,58	6,4	8,5	8,3	1	1	1	1	1	1	1	1	1	0	1	-5,285412	273,667601	312,750819	0
15.01.2021	22:55:27	0	0	4,632314	0,7095	310,3992	-0,078	87,56	0	1017,56	6,4	8,5	8,3	1	1	1	1	1	1	1	1	1	0	1	-6,131078	273,783223	312,442966	0
15.01.2021	22:55:28	0	0	5,084247	0,75	298,3176	-0,084	87,562	0	1017,8	6,4	8,5	8,3	1	1	1	1	1	1	1	1	1	0	1	-5,144468	273,800847	313,511612	0
15.01.2021	22:55:29	0	0	2,937565	0,77025	290,8044	-0,079	87,573	0	1017,66	6,4	8,5	8,3	1	1	1	1	1	1	1	1	1	0	1	-8,245243	273,780288	310,315137	0
15.01.2021	22:55:30	0	0	2,598615	0,7185	293,9184	-0,085	87,549	0	1017,52	6,4	8,5	8,3	1	1	1	1	1	1	1	1	1	0	1	-6,8358	273,645725	311,098756	0
15.01.2021	22:55:31	0	0	4,406348	0,73575	301,212	-0,077	87,563	0	1017,56	6,4	8,5	8,3	1	1	1	1	1	1	1	1	1	0	1	-8,597604	273,66906	309,44541	0
15.01.2021	22:55:32	0	0	3,050548	0,74175	303,5556	-0,075	87,579	0	1017,62	6,4	8,5	8,3	1	1	1	1	1	1	1	1	1	0	1	-5,144468	273,641353	312,769769	0
15.01.2021	22:55:33	0	0	3,954415	0,741	299,4192	-0,075	87,567	0	1017,72	6,4	8,5	8,3	1	1	1	1	1	1	1	1	1	0	1	-4,721635	273,708501	313,504766	0
15.01.2021	22:55:34	0	0	3,954415	0,73275	296,4456	-0,078	87,549	0	1017,52	6,4	8,5	8,3	1	1	1	1	1	1	1	1	1	0	1	-11,41649	273,809665	307,280642	0
15.01.2021	22:55:35	0	0	2,485632	0,717	294,1092	-0,078	87,571	0	1017,72	6,4	8,5	8,3	1	1	1	1	1	1	1	1	1	0	1	-5,21494	273,745094	313,18167	0
15.01.2021	22:55:36	0	0	3,389498	0,72675	299,3256	-0,086	87,562	0	1017,56	6,4	8,5	8,3	1	1	1	1	1	1	1	1	1	0	1	-5,919662	273,805256	312,756942	0
15.01.2021	22:55:37	0	0	3,276515	0,69825	300,9672	-0,076	87,576	0	1017,64	6,4	8,5	8,3	1	1	1	1	1	1	1	1	1	0	1	-9,936575	273,658848	308,058969	0
15.01.2021	22:55:38	0	0	3,954415	0,717	298,638	-0,081	87,547	0	1017,58	6,4	8,5	8,3	1	1	1	1	1	1	1	1	1	0	1	-8,033827	273,802317	310,629094	0
15.01.2021	22:55:39	0	0	4,519331	0,70725	299,3976	-0,079	87,571	0	1017,6	6,4	8,5	8,3	1	1	1	1	1	1	1	1	1	0	1	-3,382664	273,777352	315,164055	0
15.01.2021	22:55:40	0	0	4,406348	0,696	306,1944	-0,078	87,568	0	1017,58	6,4	8,5	8,3	1	1	1	1	1	1	1	1	1	0	1	-6,20155	273,797909	312,440851	0
15.01.2021	22:55:41	0	0	2,598615	0,66225	311,0112	-0,078	87,571	0	1017,72	6,4	8,5	8,3	1	1	1	1	1	1	1	1	1	0	1	-7,258633	273,768549	311,247117	0
15.01.2021	22:55:42	0	0	4,406348	0,67275	303,9012	-0,083	87,567	0	1017,52	6,4	8,5	8,3	1	1	1	1	1	1	1	1	1	0	1	-3,453136	273,817017	315,278225	0
15.01.2021	22:55:43	0	0	4,632314	0,69375	294,444	-0,08	87,574	0	1017,66	6,4	8,5	8,3	1	1	1	1	1	1	1	1	1	0	1	-6,553911	273,689501	311,584135	0
15.01.2021	22:55:44	0	0	2,711599	0,75225	293,4288	-0,084	87,566	0	1017,54	6,6	8,5	8,3	1	1	1	1	1	1	1	1	1	0	1	-3,875969	273,661765	314,133135	0
15.01.2021	22:55:45	0	0	3,502482	0,837	295,1388	-0,08	87,576	0	1017,6	6,4	8,5	8,3	1	1	1	1	1	1	1	1	1	0	1	-1,691332	273,784691	316,889545	0
15.01.2021	22:55:46	0	0	2,937565	0,894	295,1388	-0,087	87,565	0	1017,44	6,4	8,5	8,3	1	1	1	1	1	1	1	1	1	0	1	-6,272023	273,632612	311,601595	0
15.01.2021	22:55:47	0	0	3,841431	0,9225	301,1904	-0,088	87,553	0	1017,72	6,4	8,5	8,3	1	1	1	1	1	1	1	1	1	0	1	-5,919662	273,709964	312,31354	0
15.01.2021	22:55:48	0	0	3,728448	0,909	302,0904	-0,077	87,574	0	1017,62	6,4	8,5	8,3	1	1	1	1	1	1	1	1	1	0	1	-4,016913	273,639896	313,890552	0
15.01.2021	22:55:49	0	0	2,598615	0,94875	296,0712	-0,081	87,551	0	1017,52	6,4	8,5	8,3	1	1	1	1	1	1	1	1	1	0	1	-4,862579	273,680738	313,234724	0
15.01.2021	22:55:50	0	0	2,824565	0,95925	297,8928	-0,079	87,567	0	1017,56	6,4	8,5	8,4	1	1	1	1	1	1	1	1	1	0	1	-9,020437	273,650098	308,934442	0
15.01.2021	22:55:51	0	0	4,406348	0,94875	308,8692	-0,084	87,564	0	1017,5	6,4	8,5	8,3	1	1	1	1	1	1	1	1	1	0	1	-4,792107	273,663224	313,223778	0
15.01.2021	22:55:52	0	0	5,084247	0,94425	307,2204	-0,084	87,571	0	1017,5	6,4	8,5	8,3	1	1	1	1	1	1	1	1	1	0	1	-4,721635	273,77882	313,831914	0
15.01.2021	22:55:53	0	0	4,745298	0,96225	300,438	-0,077	87,578	0	1017,6	6,4	8,5	8,3	1	1	1	1	1	1	1	1	1	0	1	-7,751938	273,625331	310,087847	0
15.01.2021	22:55:54	0	0	4,858281	0,96975	297,522	-0,079	87,565	0	1017,7	6,4	8,5	8,3	1	1	1	1	1	1	1	1	1	0	1	-7,610994	273,714352	310,642614	0
15.01.2021	22:55:55	0	0	3,050548	1,0095	298,2636	-0,077	87,574	0	1017,68	6,4	8,5	8,3	1	1	1	1	1	1	1	1	1	0	1	-5,778717	273,632612	312,0949	0
15.01.2021	22:55:56	0	0	5,084247	1,01475	297,99	-0,079	87,574	0	1017,7	6,4	8,5	8,3	1	1	1	1	1	1	1	1	1	0	1	-7,117689	273,701191	311,074717	0
15.01.2021	22:55:57	0	0	4,971264	0,98625	303,1884	-0,078	87,567	0	1017,6	6,4	8,5	8,3	1	1	1	1	1	1	1	1	1	0	1	-4,792107	273,771483	313,727296	0
15.01.2021	22:55:58	0	0	4,745298	0,94275	300,4308	-0,076	87,575	0	1017,58	6,4	8,5	8,3	1	1	1	1	1	1	1	1	1	0	1	-5,84919	273,650098	312,10569	0
15.01.2021	22:55:59	0	0	4,519331	0,951	287,028	-0,083	87,561	0	1017,6	6,4	8,5	8,3	1	1	1	1	1	1	1	1	1	0	1	-7,540521	273,639896	310,366944	0
15.01.2021	22:56:00	0	0	2,824582	0,93375	281,6856	-0,081	87,561	0	1017,62	6,4	8,5	8,3	1	1	1	1	1	1	1	1	1	0	1	-7,258633	273,702653	310,940571	0
15.01.2021	22:56:01	0	0	4,745298	0,94725	284,9292	-0,079	87,561	0	1017,62	6,4	8,5	8,3	1	1	1	1	1	1	1	1	1	0	1	-5,426357	273,812606	313,284465	0
15.01.2021	22:56:02	0	0	3,728448	0,945	285,8328	-0,076	87,578	0	1017,62	6,4	8,5	8,3	1	1	1	1	1	1	1	1	1	0	1	-8,245243	273,704115	309,960759	0
15.01.2021	22:56:03	0	0	3,841431	0,9345	290,8188	-0,08	87,567	0	1017,56	6,4	8,5	8,3	1	1	1	1	1	1	1	1	1	0	1	-8,45666	273,812606	310,254162	0
15.01.2021	22:56:04	0	0	2,711599	0,999	294,8688	-0,08	87,567	0	1017,54	6,4	8,5	8,3	1	1	1	1	1	1	1	1	1	0	1	-4,369274	273,753886	314,068244	0
15.01.2021	22:56:05	0	0	3,615465	1,0575	282,852	-0,079	87,574	0	1017,6	6,4	8,5	8,3	1	1	1	1	1	1	1	1	1	0	1	-7,681466	273,808195	311,008823	0
15.01.2021	22:56:06	0	0	4,519331	1,10325	276,4764	-0,077	87,564	0	1017,64	6,4	8,5	8,3	1	1	1	1	1	1	1	1	1	0	1	-6,624383	273,673438	311,438985	0
15.01.2021	22:56:07	0	0	4,745298	1,14525	294,7716	-0,075	87,553	0	1017,62	6,4	8,5	8,3	1	1	1	1	1	1	1	1	1	0	1	-5,144468	273,762683	313,333982	0
15.01.2021	22:56:08	0	0	2,824582	1,20375	302,4	-0,075	87,576	0	1017,7	6,4	8,5	8,3	1	1	1	1	1	1	1	1	1	0	1	-3,664553	273,817017	315,066808	0
15.01.2021	22:56:09	0	0	4,745298	1,2735	293,6916	-0,077	87,578	0	1017,58	6,4	8,5	8,3	1	1	1	1	1	1	1	1	1	0	1	-3,805497	273,765616	314,686601	0
15.01.2021	22:56:10	0	0	2,824582	1,2495	294,8184	-0,081	87,56	0	1017,52	6,4	8,5	8,3	1	1	1	1	1	1	1	1	1	0	1	-7,751938	273,654473	310,223271	0
15.01.2021	22:56:11	0	0	2,598615	1,2465	291,1464	-0,08	87,57	0	1017,52	6,4	8,5	8,3	1	1	1	1	1	1	1	1	1	0	1	-8,315715	273,762683	310,162734	0
15.01.2021	22:56:12	0	0	2,937565	1,27425	288,4032	-0,069	87,571	0	1017,56	6,4	8,5	8,3	1	1	1	1	1	1	1	1	1	0	1	-9,584214	273,811135	309,119763	0
15.01.2021	22:56:13	0	0	4,745298	1,251	292,212	-0,086	87,555	0	1017,6	6,4	8,5	8,3	1	1	1	1	1	1	1	1	1	0	1	-6,342495	273,730448	311,985984	0
15.01.2021	22:56:14	0	0	4,632314	1,19025	292,9608	-0,082	87,569	0	1017,58	6,4	8,5	8,3	1	1	1	1	1	1	1	1	1	0	1	-7,047216	273,797909	311,595185	0
15.01.2021	22:56:15	0	0	4,971264	1,15575	290,79	-0,079	87,576	0	1017,6	6,6	8,5	8,3	1	1	1	1	1	1	1	1	1	0	1	-8,668076	273,701191	309,52433	0
15.01.2021	22:56:16	0	0	3,276515	1,176	299,8152	-0,077	87,577	0	1017,78	6,4	8,5	8,3	1	1	1	1	1	1	1	1	1	0	1	-5,073996	273,815546	313,650518	0
15.01.2021	22:56:17	0	0	2,824582	1,1475	298,3212	-0,076	87,576	0	1017,52	6,4	8,5	8,3	1	1	1	1	1	1	1	1	1	0	1	-6,624383	273,809665	312,072749	0
15.01.2021	22:56:18	0	0	3,728448	1,143	294,8364	-0,08	87,559	0	1017,62	6,4	8,5	8,3	1	1	1	1	1	1	1	1	1	0	1	-11,41649	273,734841	306,932421	0
15.01.2021	22:56:19	0	0	4,293365	1,08225	300,1788	-0,078	87,563	0	1017,56	6,4	8,5	8,3	1	1	1	1	1	1	1	1	1	0	1	-4,298802	273,806726	314,384644	0
15.01.2021	22:56:20	0	0	3,615465	1,04775	306,8568	-0,076	87,565	0	1017,76	6,4	8,5	8,3	1	1	1	1	1	1	1	1	1	0	1	-5,990134	273,707039	312,229467	0
15.01.2021	22:56:21	0	0	2,598615	1,02675	302,0688	-0,073	87,562	0	1017,64	6,4	8,5	8,3	1	1	1	1	1	1	1	1	1	0	1	-12,262156	273,805256	306,414447	0
15.01.2021	22:56:22	0	0	4,971264	0,98775	289,2384	-0,076	87,543	0	1017,54	6,4	8,5	8,3	1	1	1	1	1	1	1	1	1	0	1	-5,778717	273,731912	312,556572	0
15.01.2021	22:56:23	0	0	3,615465	0,96825	294,4188	-0,08	87,566	0	1017,62	6,4	8,5	8,3	1	1	1	1	1	1	1	1	1	0	1	-6,906272	273,780288	311,654108	0
15.01.2021	22:56:24	0	0	4,519331	0,93525	292,9752	-0,073	87,563	0	1017,56	6,4	8,5	8,3	1	1	1	1	1	1	1	1	1	0	1	-7,470049	273,783223	311,103995	0
15.01.2021	22:56:25	0	0	3,728448	0,97425	296,4636	-0,078	87,562	0	1017,56	6,4	8,5	8,3	1	1	1	1	1	1	1	1	1	0	1	-6,765328	273,702653	311,433876	0
15.01.2021	22:56:26	0	0	4,519331	1,0005	304,9668	-0,073	87,567	0	1017,54	6,4	8,5	8,3	1	1	1	1	1	1	1	1	1	0	1	-9,231853	273,824371	309,533751	0
15.01.2021	22:56:27	0	0	3,389498	1,005	307,5804	-0,077	87,566	0	1017,66	6,6	8,5	8,3	1	1	1	1	1	1	1	1	1	0	1	-6,060606	273,712889	312,186199	0
15.01.2021	22:56:28	0	0	2,711599	0,9735	299,4156	-0,073	87,554	0	1017,62	6,4	8,5	8,3	1	1	1	1	1	1	1	1	1	0	1	-4,933051	273,636982	312,960873	0
15.01.2021	22:56:29	0	0	3,728448	0,942	288,8568	-0,077	87,559	0	1017,64	6,4	8,6	8,3	1	1	1	1	1	1	1	1	1	0	1	-2,889359	273,762683	315,589091	0
15.01.2021	22:56:30	0	0	4,293365	0,951	290,1276	-0,074	87,55	0	1017,64	6,4	8,5	8,3	1	1	1	1	1	1	1	1	1	0	1	-5,496829	273,632612	312,376789	0
15.01.2021	22:56:31	0	0	4,632287	0,9075	291,546	-0,083	87,555	0	1017,56	6,4	8,5	8,4	1	1	1	1	1	1	1	1	1	0	1	-10,218464	273,767082	308,28046	0
15.01.2021	22:56:32	0	0	4,293365	0,86775	291,6036	-0,074	87,562	0	1017,5	6,4	8,5	8,3	1	1	1	1	1	1	1	1	1	0	1	-8,80902	273,644268	309,118762	0
15.01.2021	22:56:33	0	0	3,276515	0,87825	285,5268	-0,077	87,559	0	1017,62	6,4	8,5	8,3	1	1	1	1	1	1	1	1	1	0	1	-6,20155	273,753886	312,235968	0
15.01.2021	22:56:34	0	0	2,824582	0,88275	295,5816	-0,082	87,563	0	1017,58	6,4	8,5	8,3	1	1	1	1	1	1	1	1	1	0	1	-4,862579	273,790565	313,745635	0
15.01.2021	22:56:35	0	0	3,050548	0,85275	301,68	-0,076	87,549	0	1017,66	6,4	8,5	8,3	1	1	1	1	1	1	1	1	1	0	1	-6,694856	273,650098	311,260024	0
15.01.2021	22:56:36	0	0	4,858281	0,83625	297,9612	-0,072	87,553	0	1017,64	6,6	8,5	8,3	1	1	1	1	1	1	1	1	1	0	1	-6,976744	273,636982	310,91718	0
15.01.2021	22:56:37	0	0	3,050548	0,82425	303,5736	-0,079	87,542	0	1017,46	6,4	8,5	8,3	1	1	1	1	1	1	1	1	1	0	1	-4,439746	273,679278	313,650769	0
15.01.2021	22:56:38	0	0	4,067398	0,77475	306,0324	-0,073	87,555	0	1017,66	6,4	8,5	8,3	1	1	1	1	1	1	1	1	1	0	1	-3,382664	273,625331	314,457121	0
15.01.2021	22:56:39	0	0	2,598615	0,7605	298,6812	-0,077	87,541	0	1017,56	6,4	8,5	8,3	1	1	1	1	1	1	1	1	1	0	1	-4,933051	273,745094	313,463558	0
15.01.2021	22:56:40	0	0	2,259666	0,7815	284,0256	-0,08	87,542	0	1017,6	6,4	8,5	8,3	1	1	1	1	1	1	1	1	1	0	1	-4,298802	273,812606	314,41202	0
15.01.2021	22:56:41	0	0	3,841431	0,798	278,8272	-0,077	87,565	0	1017,5	6,4	8,5	8,3	1	1	1	1	1	1	1	1	1	0	1	-0,422833	273,775885	318,117056	0
15.01.2021	22:56:42	0	0	3,163532	0,80625	285,894	-0,081	87,548	0	1017,64	6,4	8,5	8,3	1	1	1	1	1	1	1	1	1	0	1	-0,352361	273,755352	318,091978	0
15.01.2021	22:56:43	0	0	3,954415	0,81525	293,2884	-0,078	87,562	0	1017,62	6,4	8,5	8,3	1	1	1	1	1	1	1	1	1	0	1	-4,439746	273,664683	313,58292	0
15.01.2021	22:56:44	0	0	4,745298	0,7995	294,3468	-0,083	87,561	0	1017,56	6,4	8,5	8,3	1	1	1	1	1	1	1	1	1	0	1	-4,651163	273,647183	313,290167	0
15.01.2021	22:56:45	0	0	4,067398	0,771	289,5732	-0,075	87,563	0	1017,54	6,4	8,5	8,3	1	1	1	1	1	1	1	1	1	0	1	-8,033827	273,787628	310,560718	0
15.01.2021	22:56:46	0	0	3,954415	0,74625	292,6044	-0,076	87,549	0	1017,6	6,4	8,6	8,3	1	1	1	1	1	1	1	1	1	0	1	-4,157858	273,664683	313,864808	0
15.01.2021	22:56:47	0	0	4,406321	0,81075	300,438	-0,073	87,568	0	1017,64	6,4	8,5	8,4	1	1	1	1	1	1	1	1	1	0	1	-5,567301	273,784691	313,013576	0
15.01.2021	22:56:48	0	0	4,971264	0,819	297,6408	-0,083	87,554	0	1017,62	6,4	8,5	8,3	1	1	1	1	1	1	1	1	1	0	1	-8,45666	273,803786	310,213102	0
15.01.2021	22:56:49	0	0	4,858281	0,81	290,8368	-0,075	87,55	0	1017,6	6,4	8,5	8,3	1	1	1	1	1	1	1	1	1	0	1	-9,725159	273,708501	308,501242	0
15.01.2021	22:56:50	0	0	2,711582	0,8175	299,052	-0,072	87,567	0	1017,68	6,4	8,5	8,4	1	1	1	1	1	1	1	1	1	0	1	-8,597604	273,641353	309,316633	0
15.01.2021	22:56:51	0	0	3,163532	0,8295	293,742	-0,081	87,553	0	1017,54	6,4	8,5	8,3	1	1	1	1	1	1	1	1	1	0	1	-7,751938	273,690962	310,392901	0
15.01.2021	22:56:52	0	0	3,502482	0,86025	284,5008	-0,081	87,555	0	1017,44	6,4	8,5	8,3	1	1	1	1	1	1	1	1	1	0	1	-7,258633	273,629699	310,601449	0
15.01.2021	22:56:53	0	0	3,050548	0,83325	294,4512	-0,081	87,552	0	1017,56	6,4	8,5	8,3	1	1	1	1	1	1	1	1	1	0	1	-6,060606	273,728984	312,261063	0
15.01.2021	22:56:54	0	0	2,824582	0,85425	307,3788	-0,072	87,566	0	1017,64	6,4	8,5	8,3	1	1	1	1	1	1	1	1	1	0	1	-5,285412	273,660306	312,716911	0
15.01.2021	22:56:55	0	0	4,971264	0,861	308,574	-0,078	87,555	0	1017,34	6,4	8,5	8,3	1	1	1	1	1	1	1	1	1	0	1	-7,117689	273,762683	311,360761	0
15.01.2021	22:56:56	0	0	3,502482	0,86175	300,8448	-0,076	87,558	0	1017,64	6,4	8,5	8,3	1	1	1	1	1	1	1	1	1	0	1	-6,8358	273,636982	311,058125	0
15.01.2021	22:56:57	0	0	4,745298	0,849	295,6068	-0,079	87,553	0	1017,54	6,4	8,5	8,3	1	1	1	1	1	1	1	1	1	0	1	-2,889359	273,644268	315,038423	0
15.01.2021	22:56:58	0	0	3,615465	0,86025	298,6776	-0,08	87,546	0	1017,46	6,4	8,5	8,3	1	1	1	1	1	1	1	1	1	0	1	-10,218464	273,705577	307,994337	0
15.01.2021	22:56:59	0	0	2,937565	0,8355	294,0264	-0,073	87,568	0	1017,58	6,4	8,5	8,3	1	1	1	1	1	1	1	1	1	0	1	-7,399577	273,635525	310,487578	0
15.01.2021	22:57:00	0	0	3,502482	0,86625	288,7632	-0,084	87,56	0	1017,56	6,4	8,5	8,3	1	1	1	1	1	1	1	1	1	0	1	-7,470049	273,676358	310,606891	0
15.01.2021	22:57:01	0	0	4,632314	0,82125	297,2592	-0,075	87,546	0	1017,68	6,6	8,5	8,3	1	1	1	1	1	1	1	1	1	0	1	-10,007047	273,814076	308,71062	0
15.01.2021	22:57:02	0	0	3,728448	0,798	308,2068	-0,078	87,563	0	1017,64	6,4	8,5	8,3	1	1	1	1	1	1	1	1	1	0	1	-6,412967	273,761216	312,058659	0
15.01.2021	22:57:03	0	0	3,841431	0,75525	318,1572	-0,08	87,569	0	1017,6	6,6	8,5	8,3	1	1	1	1	1	1	1	1	1	0	1	-5,919662	273,819958	312,825394	0
15.01.2021	22:57:04	0	0	4,067398	0,7215	321,894	-0,083	87,559	0	1017,66	6,4	8,5	8,3	1	1	1	1	1	1	1	1	1	0	1	-7,470049	273,651556	310,491606	0
15.01.2021	22:57:05	0	0	4,519331	0,6945	311,8644	-0,077	87,565	0	1017,62	6,4	8,5	8,3	1	1	1	1	1	1	1	1	1	0	1	-7,258633	273,698268	310,920179	0
15.01.2021	22:57:06	0	0	3,502482	0,69375	297,2412	-0,076	87,563	0	1017,48	6,4	8,5	8,3	1	1	1	1	1	1	1	1	1	0	1	-9,161381	273,802317	309,50154	0
15.01.2021	22:57:07	0	0	4,406348	0,63225	299,7756	-0,075	87,576	0	1017,64	6,4	8,5	8,3	1	1	1	1	1	1	1	1	1	0	1	-4,298802	273,762683	314,179648	0
15.01.2021	22:57:08	0	0	4,632314	0,6225	305,3844	-0,077	87,576	0	1017,68	6,4	8,5	8,3	1	1	1	1	1	1	1	1	1	0	1	-5,003524	273,634069	312,876862	0
15.01.2021	22:57:09	0	0	2,598615	0,606	311,166	-0,085	87,566	0	1017,58	6,4	8,5	8,3	1	1	1	1	1	1	1	1	1	0	1	-6,8358	273,715814	311,424611	0
15.01.2021	22:57:10	0	0	3,502482	0,57	310,3128	-0,077	87,572	0	1017,68	6,4	8,5	8,3	1	1	1	1	1	1	1	1	1	0	1	-6,483439	273,814076	312,234229	0
15.01.2021	22:57:11	0	0	3,841431	0,57675	304,3728	-0,08	87,563	0	1017,46	6,4	8,5	8,3	1	1	1	1	1	1	1	1	1	0	1	-7,470049	273,674898	310,600105	0
15.01.2021	22:57:12	0	0	3,841431	0,573	300,4992	-0,082	87,556	0	1017,62	6,4	8,5	8,3	1	1	1	1	1	1	1	1	1	0	1	-7,82241	273,644268	310,105372	0
15.01.2021	22:57:13	0	0	3,954415	0,564	299,4408	-0,081	87,556	0	1017,6	6,6	8,5	8,3	1	1	1	1	1	1	1	1	1	0	1	-3,805497	273,72313	314,48894	0
15.01.2021	22:57:14	0	0	2,711599	0,5265	303,6168	-0,064	87,579	0	1017,82	6,4	8,5	8,3	1	1	1	1	1	1	1	1	1	0	1	-4,862579	273,626787	312,983971	0
15.01.2021	22:57:15	0	0	3,954415	0,528	310,6476	-0,077	87,572	0	1017,48	6,4	8,5	8,3	1	1	1	1	1	1	1	1	1	0	1	-5,21494	273,657389	312,773825	0
15.01.2021	22:57:16	0	0	3,050548	0,48	318,4524	-0,074	87,581	0	1017,78	6,4	8,5	8,3	1	1	1	1	1	1	1	1	1	0	1	-1,832276	273,780288	316,728104	0
15.01.2021	22:57:17	0	0	5,084247	0,44025	323,3592	-0,08	87,56	0	1017,62	6,4	8,6	8,3	1	1	1	1	1	1	1	1	1	0	1	-5,990134	273,792033	312,624917	0
15.01.2021	22:57:18	0	0	4,632314	0,429	322,6176	-0,083	87,566	0	1017,62	6,4	8,5	8,3	1	1	1	1	1	1	1	1	1	0	1	-6,131078	273,797909	312,511323	0
15.01.2021	22:57:19	0	0	3,615465	0,4365	320,4324	-0,079	87,569	0	1017,56	6,4	8,5	8,3	1	1	1	1	1	1	1	1	1	0	1	-4,862579	273,742164	313,520399	0
15.01.2021	22:57:20	0	0	3,841408	0,41625	319,2876	-0,085	87,565	0	1017,56	6,4	8,5	8,4	1	1	1	1	1	1	1	1	1	0	1	-2,396054	273,650098	315,558826	0
15.01.2021	22:57:21	0	0	3,615465	0,4365	320,4684	-0,078	87,572	0	1017,7	6,4	8,5	8,3	1	1	1	1	1	1	1	1	1	0	1	-5,496829	273,811135	313,207148	0
15.01.2021	22:57:22	0	0	3,502482	0,40875	323,262	-0,084	87,565	0	1017,52	6,4	8,5	8,3	1	1	1	1	1	1	1	1	1	0	1	-0,704722	273,693884	317,453705	0
15.01.2021	22:57:23	0	0	4,293365	0,39825	327,5424	-0,075	87,572	0	1017,52	6,4	8,5	8,3	1	1	1	1	1	1	1	1	1	0	1	-5,84919	273,66906	312,193825	0
15.01.2021	22:57:24	0	0	4,632314	0,39	333,8532	-0,077	87,576	0	1017,62	6,4	8,5	8,3	1	1	1	1	1	1	1	1	1	0	1	-5,990134	273,730448	312,338345	0
15.01.2021	22:57:25	0	0	2,711599	0,3705	336,8196	-0,08	87,578	0	1017,64	6,4	8,5	8,3	1	1	1	1	1	1	1	1	1	0	1	-6,131078	273,815546	312,593436	0
15.01.2021	22:57:26	0	0	2,824582	0,321	333,3888	-0,078	87,567	0	1017,6	6,4	8,5	8,3	1	1	1	1	1	1	1	1	1	0	1	-5,144468	273,657389	312,844297	0
15.01.2021	22:57:27	0	0	2,485632	0,3345	328,5864	-0,079	87,565	0	1017,54	6,4	8,5	8,3	1	1	1	1	1	1	1	1	1	0	1	-4,369274	273,689501	313,768773	0
15.01.2021	22:57:28	0	0	3,163532	0,348	320,0544	-0,076	87,566	0	1017,74	6,4	8,5	8,3	1	1	1	1	1	1	1	1	1	0	1	-6,20155	273,625331	311,638234	0
15.01.2021	22:57:29	0	0	3,389498	0,35175	308,1096	-0,078	87,576	0	1017,64	6,4	8,5	8,3	1	1	1	1	1	1	1	1	1	0	1	-6,906272	273,765616	311,585826	0
15.01.2021	22:57:30	0	0	3,728448	0,41625	304,3188	-0,082	87,571	0	1017,62	6,4	8,5	8,3	1	1	1	1	1	1	1	1	1	0	1	-4,721635	273,825842	314,05082	0
15.01.2021	22:57:31	0	0	5,197231	0,444	308,952	-0,079	87,567	0	1017,66	6,4	8,5	8,3	1	1	1	1	1	1	1	1	1	0	1	-6,624383	273,787628	311,970161	0
15.01.2021	22:57:32	0	0	4,745298	0,45	314,1144	-0,078	87,572	0	1017,6	6,4	8,5	8,3	1	1	1	1	1	1	1	1	1	0	1	-5,426357	273,748024	312,983887	0
15.01.2021	22:57:33	0	0	3,050548	0,47325	319,6044	-0,079	87,579	0	1017,58	6,4	8,5	8,3	1	1	1	1	1	1	1	1	1	0	1	-9,795631	273,654473	308,179578	0
15.01.2021	22:57:34	0	0	3,615465	0,5145	321,84	-0,073	87,581	0	1017,48	6,4	8,5	8,3	1	1	1	1	1	1	1	1	1	0	1	-3,453136	273,655931	314,528851	0
15.01.2021	22:57:35	0	0	2,485632	0,5115	317,3508	-0,079	87,577	0	1017,56	6,4	8,5	8,3	1	1	1	1	1	1	1	1	1	0	1	-2,114165	273,720203	316,16666	0
15.01.2021	22:57:36	0	0	3,050548	0,51075	314,064	-0,076	87,588	0	1017,6	6,4	8,5	8,3	1	1	1	1	1	1	1	1	1	0	1	-9,725159	273,827313	309,054147	0
15.01.2021	22:57:37	0	0	4,180381	0,5565	313,596	-0,077	87,585	0	1017,64	6,4	8,5	8,3	1	1	1	1	1	1	1	1	1	0	1	-5,708245	273,696807	312,463771	0
15.01.2021	22:57:38	0	0	4,180381	0,55875	314,0928	-0,078	87,583	0	1017,7	6,4	8,5	8,3	1	1	1	1	1	1	1	1	1	0	1	-3,946441	273,631156	313,920408	0
15.01.2021	22:57:39	0	0	2,711599	0,55275	319,5936	-0,076	87,575	0	1017,46	6,4	8,5	8,3	1	1	1	1	1	1	1	1	1	0	1	-6,483439	273,679278	311,607076	0
15.01.2021	22:57:40	0	0	4,180381	0,567	316,6272	-0,076	87,575	0	1017,66	6,4	8,5	8,3	1	1	1	1	1	1	1	1	1	0	1	-7,329105	273,789096	311,272274	0
15.01.2021	22:57:41	0	0	3,615465	0,59625	308,4948	-0,073	87,58	0	1017,7	6,4	8,5	8,3	1	1	1	1	1	1	1	1	1	0	1	-9,090909	273,78616	309,496801	0
15.01.2021	22:57:42	0	0	4,293365	0,57075	306,1584	-0,074	87,574	0	1017,54	6,4	8,5	8,3	1	1	1	1	1	1	1	1	1	0	1	-5,990134	273,651556	311,971521	0
15.01.2021	22:57:43	0	0	2,711599	0,55725	302,418	-0,079	87,564	0	1017,64	6,4	8,5	8,3	1	1	1	1	1	1	1	1	1	0	1	-7,82241	273,753886	310,615108	0
15.01.2021	22:57:44	0	0	2,598615	0,549	300,4164	-0,076	87,588	0	1017,6	6,4	8,5	8,3	1	1	1	1	1	1	1	1	1	0	1	-6,20155	273,638439	311,699144	0
15.01.2021	22:57:45	0	0	4,971264	0,51525	308,0916	-0,072	87,575	0	1017,78	6,4	8,5	8,3	1	1	1	1	1	1	1	1	1	0	1	-4,439746	273,803786	314,230016	0
15.01.2021	22:57:46	0	0	2,711599	0,504	315,8856	-0,077	87,568	0	1017,6	6,4	8,5	8,3	1	1	1	1	1	1	1	1	1	0	1	-5,21494	273,690962	312,929899	0
15.01.2021	22:57:47	0	0	2,937565	0,53025	319,5324	-0,076	87,578	0	1017,68	6,4	8,5	8,3	1	1	1	1	1	1	1	1	1	0	1	-8,386187	273,634069	309,494198	0
15.01.2021	22:57:48	0	0	4,293365	0,54825	316,224	-0,08	87,587	0	1017,6	6,4	8,5	8,3	1	1	1	1	1	1	1	1	1	0	1	-9,725159	273,727521	308,589702	0
15.01.2021	22:57:49	0	0	3,954415	0,58575	313,1856	-0,077	87,581	0	1017,7	6,4	8,5	8,3	1	1	1	1	1	1	1	1	1	0	1	-3,171247	273,636982	314,722677	0
15.01.2021	22:57:50	0	0	4,632314	0,618	313,6248	-0,076	87,583	0	1017,5	6,4	8,5	8,3	1	1	1	1	1	1	1	1	1	0	1	-3,312192	273,701191	314,880214	0
15.01.2021	22:57:51	0	0	3,389498	0,6345	315,8244	-0,073	87,589	0	1017,68	6,4	8,5	8,3	1	1	1	1	1	1	1	1	1	0	1	-8,033827	273,811135	310,67015	0
15.01.2021	22:57:52	0	0	3,050548	0,68925	321,1164	-0,076	87,596	0	1017,6	6,4	8,5	8,3	1	1	1	1	1	1	1	1	1	0	1	-5,919662	273,677818	312,164066	0
15.01.2021	22:57:53	0	0	3,050548	0,69975	324,4104	-0,078	87,585	0	1017,68	6,4	8,5	8,3	1	1	1	1	1	1	1	1	1	0	1	-4,580691	273,644268	313,347091	0
15.01.2021	22:57:54	0	0	3,276515	0,73275	324,774	-0,085	87,571	0	1017,56	6,4	8,5	8,3	1	1	1	1	1	1	1	1	1	0	1	-5,567301	273,755352	312,877038	0
15.01.2021	22:57:55	0	0	3,050548	0,71625	320,7636	-0,079	87,6	0	1017,54	6,4	8,5	8,3	1	1	1	1	1	1	1	1	1	0	1	-4,087385	273,780288	314,472995	0
15.01.2021	22:57:56	0	0	4,858281	0,7245	317,4588	-0,079	87,572	0	1017,66	6,4	8,5	8,3	1	1	1	1	1	1	1	1	1	0	1	-5,567301	273,642811	312,353708	0
15.01.2021	22:57:57	0	0	3,276515	0,7305	320,7528	-0,08	87,578	0	1017,62	6,4	8,5	8,3	1	1	1	1	1	1	1	1	1	0	1	-3,946441	273,664683	314,076225	0
15.01.2021	22:57:58	0	0	2,146682	0,759	323,6508	-0,075	87,583	0	1017,58	6,4	8,5	8,3	1	1	1	1	1	1	1	1	1	0	1	-10,852713	273,677818	307,231014	0
15.01.2021	22:57:59	0	0	3,163532	0,7245	320,0004	-0,078	87,566	0	1017,44	6,4	8,5	8,3	1	1	1	1	1	1	1	1	1	0	1	-6,8358	273,670519	311,213998	0
15.01.2021	22:58:00	0	0	2,372649	0,74175	321,4332	-0,078	87,563	0	1017,5	6,4	8,5	8,3	1	1	1	1	1	1	1	1	1	0	1	-8,668076	273,642811	309,252933	0
15.01.2021	22:58:01	0	0	4,632314	0,77625	327,33	-0,076	87,584	0	1017,62	6,4	8,5	8,3	1	1	1	1	1	1	1	1	1	0	1	-11,698379	273,790565	306,909836	0
15.01.2021	22:58:02	0	0	2,937565	0,76875	326,7432	-0,076	87,584	0	1017,52	6,4	8,5	8,3	1	1	1	1	1	1	1	1	1	0	1	-3,382664	273,75242	315,048035	0
15.01.2021	22:58:03	0	0	2,937565	0,7755	319,6296	-0,08	87,588	0	1017,54	6,4	8,5	8,3	1	1	1	1	1	1	1	1	1	0	1	-5,84919	273,638439	312,051505	0
15.01.2021	22:58:04	0	0	3,502482	0,8025	318,8484	-0,084	87,571	0	1017,64	6,6	8,5	8,3	1	1	1	1	1	1	1	1	1	0	1	-7,82241	273,657389	310,166355	0
15.01.2021	22:58:05	0	0	4,293365	0,84	320,5368	-0,076	87,586	0	1017,62	6,4	8,5	8,3	1	1	1	1	1	1	1	1	1	0	1	-3,664553	273,690962	314,480287	0
15.01.2021	22:58:06	0	0	5,197231	0,85575	318,456	-0,07	87,582	0	1017,6	6,4	8,5	8,3	1	1	1	1	1	1	1	1	1	0	1	-6,412967	273,817017	312,318394	0
15.01.2021	22:58:07	0	0	3,050548	0,8235	314,838	-0,075	87,58	0	1017,64	6,6	8,6	8,3	1	1	1	1	1	1	1	1	1	0	1	-9,513742	273,727521	308,801118	0
15.01.2021	22:58:08	0	0	3,502482	0,83925	311,0292	-0,079	87,592	0	1017,62	6,4	8,5	8,3	1	1	1	1	1	1	1	1	1	0	1	-7,117689	273,628243	310,735627	0
15.01.2021	22:58:09	0	0	4,632314	0,84225	309,8988	-0,077	87,574	0	1017,64	6,4	8,5	8,3	1	1	1	1	1	1	1	1	1	0	1	-10,077519	273,72313	308,216918	0
15.01.2021	22:58:10	0	0	4,293365	0,90075	312,4368	-0,077	87,584	0	1017,44	6,4	8,5	8,3	1	1	1	1	1	1	1	1	1	0	1	-4,862579	273,815546	313,861934	0
15.01.2021	22:58:11	0	0	2,485632	0,92175	312,174	-0,073	87,575	0	1017,58	6,4	8,5	8,3	1	1	1	1	1	1	1	1	1	0	1	-6,412967	273,671979	311,643616	0
15.01.2021	22:58:12	0	0	4,858281	0,96825	315,1656	-0,081	87,566	0	1017,6	6,4	8,5	8,3	1	1	1	1	1	1	1	1	1	0	1	-6,906272	273,783223	311,667772	0
15.01.2021	22:58:13	0	0	4,519331	0,93975	320,8824	-0,075	87,583	0	1017,6	6,4	8,5	8,3	1	1	1	1	1	1	1	1	1	0	1	-9,513742	273,765616	308,978356	0
15.01.2021	22:58:14	0	0	3,615465	0,921	319,1904	-0,072	87,58	0	1017,64	6,4	8,5	8,3	1	1	1	1	1	1	1	1	1	0	1	-4,298802	273,702653	313,900402	0
15.01.2021	22:58:15	0	0	2,824582	0,9345	306,756	-0,072	87,577	0	1017,6	6,4	8,5	8,3	1	1	1	1	1	1	1	1	1	0	1	-4,439746	273,799378	314,209494	0
15.01.2021	22:58:16	0	0	3,050548	0,95475	306,1728	-0,075	87,58	0	1017,56	6,4	8,5	8,3	1	1	1	1	1	1	1	1	1	0	1	-6,272023	273,680738	311,825281	0
15.01.2021	22:58:17	0	0	3,615465	0,96375	317,7828	-0,079	87,59	0	1017,66	6,4	8,5	8,3	1	1	1	1	1	1	1	1	1	0	1	-7,892882	273,638439	310,007812	0
15.01.2021	22:58:18	0	0	4,406348	0,96675	321,8292	-0,075	87,578	0	1017,64	6,4	8,5	8,3	1	1	1	1	1	1	1	1	1	0	1	-1,550388	273,631156	316,316462	0
15.01.2021	22:58:19	0	0	3,615465	1,00875	311,0976	-0,081	87,562	0	1017,36	6,4	8,5	8,3	1	1	1	1	1	1	1	1	1	0	1	-2,396054	273,683659	315,714829	0
15.01.2021	22:58:20	0	0	3,615465	1,03575	318,834	-0,086	87,561	0	1017,44	6,4	8,5	8,3	1	1	1	1	1	1	1	1	1	0	1	-6,272023	273,671979	311,78456	0
15.01.2021	22:58:21	0	0	4,293365	0,99	318,1428	-0,078	87,573	0	1017,64	6,6	8,5	8,3	1	1	1	1	1	1	1	1	1	0	1	-5,003524	273,628243	312,849792	0
15.01.2021	22:58:22	0	0	4,180381	1,0065	314,4744	-0,077	87,573	0	1017,34	6,4	8,5	8,3	1	1	1	1	1	1	1	1	1	0	1	-3,24172	273,677818	314,842008	0
15.01.2021	22:58:23	0	0	3,502461	0,97275	312,8328	-0,081	87,566	0	1017,46	6,4	8,5	8,4	1	1	1	1	1	1	1	1	1	0	1	-3,24172	273,775885	315,298169	0
15.01.2021	22:58:24	0	0	2,711599	0,95025	308,4948	-0,078	87,58	0	1017,7	6,4	8,5	8,3	1	1	1	1	1	1	1	1	1	0	1	-7,117689	273,635525	310,769466	0
15.01.2021	22:58:25	0	0	4,406348	0,954	303,264	-0,083	87,591	0	1017,48	6,4	8,5	8,3	1	1	1	1	1	1	1	1	1	0	1	-3,382664	273,808195	315,307625	0
15.01.2021	22:58:26	0	0	4,180381	0,975	304,1892	-0,076	87,572	0	1017,64	6,4	8,5	8,3	1	1	1	1	1	1	1	1	1	0	1	-4,087385	273,783223	314,486658	0
15.01.2021	22:58:27	0	0	3,502461	0,975	303,2964	-0,075	87,579	0	1017,7	6,4	8,5	8,4	1	1	1	1	1	1	1	1	1	0	1	-3,735025	273,799378	314,914216	0
15.01.2021	22:58:28	0	0	4,858281	1,038	302,04	-0,078	87,588	0	1017,56	6,4	8,5	8,3	1	1	1	1	1	1	1	1	1	0	1	-6,412967	273,777352	312,133752	0
15.01.2021	22:58:29	0	0	4,519331	1,0515	304,254	-0,075	87,584	0	1017,56	6,4	8,5	8,3	1	1	1	1	1	1	1	1	1	0	1	-6,765328	273,753886	311,672191	0
15.01.2021	22:58:30	0	0	3,954415	1,0185	303,5268	-0,082	87,575	0	1017,72	6,4	8,5	8,3	1	1	1	1	1	1	1	1	1	0	1	-4,439746	273,815546	314,284767	0
15.01.2021	22:58:31	0	0	3,615465	0,96825	298,656	-0,08	87,569	0	1017,64	6,6	8,5	8,3	1	1	1	1	1	1	1	1	1	0	1	-5,144468	273,667601	312,891763	0
15.01.2021	22:58:32	0	0	2,937565	0,98775	297,3672	-0,074	87,585	0	1017,58	6,4	8,5	8,3	1	1	1	1	1	1	1	1	1	0	1	-6,483439	273,821429	312,268466	0
15.01.2021	22:58:33	0	0	4,632314	0,987	312,1056	-0,074	87,591	0	1017,76	6,4	8,5	8,3	1	1	1	1	1	1	1	1	1	0	1	-0,845666	273,702653	317,353538	0
15.01.2021	22:58:34	0	0	2,824582	0,9705	317,0412	-0,078	87,583	0	1017,66	6,4	8,5	8,3	1	1	1	1	1	1	1	1	1	0	1	-11,980268	273,815546	306,744246	0
15.01.2021	22:58:35	0	0	4,293365	0,9345	313,6572	-0,077	87,576	0	1017,64	6,4	8,5	8,3	1	1	1	1	1	1	1	1	1	0	1	-10,570825	273,670519	307,478974	0
15.01.2021	22:58:36	0	0	4,406348	0,8865	319,9248	-0,08	87,593	0	1017,66	6,4	8,5	8,3	1	1	1	1	1	1	1	1	1	0	1	-6,131078	273,809665	312,566055	0
15.01.2021	22:58:37	0	0	2,711599	0,933	316,6056	-0,078	87,58	0	1017,52	6,4	8,5	8,3	1	1	1	1	1	1	1	1	1	0	1	-8,738548	273,734841	309,610363	0
15.01.2021	22:58:38	0	0	4,519331	0,9495	307,1664	-0,076	87,587	0	1017,52	6,4	8,5	8,3	1	1	1	1	1	1	1	1	1	0	1	-7,963354	273,817017	310,768006	0
15.01.2021	22:58:39	0	0	4,971264	0,97125	325,1196	-0,08	87,584	0	1017,52	6,4	8,5	8,3	1	1	1	1	1	1	1	1	1	0	1	-5,285412	273,698268	312,8934	0
15.01.2021	22:58:40	0	0	4,745298	0,92025	331,9668	-0,083	87,574	0	1017,28	6,4	8,5	8,3	1	1	1	1	1	1	1	1	1	0	1	-4,298802	273,809665	314,398331	0
15.01.2021	22:58:41	0	0	3,954415	0,93075	318,1788	-0,083	87,582	0	1017,54	6,4	8,5	8,3	1	1	1	1	1	1	1	1	1	0	1	-5,426357	273,701191	312,766049	0
15.01.2021	22:58:42	0	0	4,519304	0,92775	304,1964	-0,071	87,595	0	1017,64	6,4	8,5	8,4	1	1	1	1	1	1	1	1	1	0	1	-2,959831	273,809665	315,737302	0
15.01.2021	22:58:43	0	0	4,293365	0,915	309,51	-0,077	87,589	0	1017,62	6,4	8,5	8,3	1	1	1	1	1	1	1	1	1	0	1	-6,694856	273,679278	311,39566	0
15.01.2021	22:58:44	0	0	4,519331	0,92775	315,8136	-0,082	87,593	0	1017,62	6,4	8,5	8,3	1	1	1	1	1	1	1	1	1	0	1	-3,100775	273,818487	315,637433	0
15.01.2021	22:58:45	0	0	2,372649	0,9375	315,2268	-0,077	87,591	0	1017,58	6,4	8,5	8,3	1	1	1	1	1	1	1	1	1	0	1	-9,513742	273,743629	308,876052	0
15.01.2021	22:58:46	0	0	2,937565	0,92625	318,7836	-0,076	87,578	0	1017,58	6,4	8,5	8,3	1	1	1	1	1	1	1	1	1	0	1	-6,765328	273,629699	311,094755	0
15.01.2021	22:58:47	0	0	2,598615	0,9135	321,1668	-0,079	87,574	0	1017,64	6,4	8,5	8,3	1	1	1	1	1	1	1	1	1	0	1	-6,20155	273,746559	312,201876	0
15.01.2021	22:58:48	0	0	3,728448	0,91125	321,1308	-0,075	87,59	0	1017,58	6,4	8,5	8,3	1	1	1	1	1	1	1	1	1	0	1	-5,003524	273,631156	312,863326	0
15.01.2021	22:58:49	0	0	3,389498	0,891	321,4656	-0,079	87,584	0	1017,66	6,4	8,5	8,3	1	1	1	1	1	1	1	1	1	0	1	-4,580691	273,707039	313,63891	0
15.01.2021	22:58:50	0	0	2,485632	0,9015	322,3152	-0,077	87,585	0	1017,6	6,4	8,5	8,3	1	1	1	1	1	1	1	1	1	0	1	-4,792107	273,645725	313,142448	0
15.01.2021	22:58:51	0	0	2,485632	0,90225	316,2816	-0,081	87,566	0	1017,64	6,4	8,5	8,3	1	1	1	1	1	1	1	1	1	0	1	-6,624383	273,645725	311,310172	0
15.01.2021	22:58:52	0	0	4,971264	0,89475	309,348	-0,076	87,583	0	1017,54	6,4	8,5	8,3	1	1	1	1	1	1	1	1	1	0	1	-3,875969	273,803786	314,793793	0
15.01.2021	22:58:53	0	0	4,971264	0,8295	309,222	-0,08	87,576	0	1017,42	6,4	8,5	8,3	1	1	1	1	1	1	1	1	1	0	1	-3,664553	273,764149	314,820721	0
15.01.2021	22:58:54	0	0	4,632314	0,84975	317,7576	-0,079	87,587	0	1017,56	6,4	8,5	8,3	1	1	1	1	1	1	1	1	1	0	1	-8,104299	273,818487	310,633909	0
15.01.2021	22:58:55	0	0	2,598615	0,81225	331,4916	-0,076	87,592	0	1017,46	6,4	8,5	8,3	1	1	1	1	1	1	1	1	1	0	1	-5,990134	273,731912	312,345155	0
15.01.2021	22:58:56	0	0	2,937565	0,771	332,0136	-0,078	87,594	0	1017,44	6,4	8,5	8,3	1	1	1	1	1	1	1	1	1	0	1	-4,792107	273,631156	313,074742	0
15.01.2021	22:58:57	0	0	4,406348	0,7605	323,6832	-0,078	87,597	0	1017,54	6,6	8,5	8,3	1	1	1	1	1	1	1	1	1	0	1	-2,536998	273,663224	315,478887	0
15.01.2021	22:58:58	0	0	5,084217	0,72525	321,4044	-0,075	87,594	0	1017,58	6,4	8,5	8,4	1	1	1	1	1	1	1	1	1	0	1	-7,892882	273,767082	310,606041	0
15.01.2021	22:58:59	0	0	2,937565	0,68625	326,052	-0,078	87,599	0	1017,64	6,4	8,5	8,3	1	1	1	1	1	1	1	1	1	0	1	-7,047216	273,817017	311,684144	0
15.01.2021	22:59:00	0	0	3,389498	0,6765	329,6988	-0,079	87,595	0	1017,62	6,4	8,5	8,3	1	1	1	1	1	1	1	1	1	0	1	-9,372798	273,792033	309,242253	0
15.01.2021	22:59:01	0	0	3,728426	0,675	331,5672	-0,074	87,597	0	1017,72	6,6	8,5	8,4	1	1	1	1	1	1	1	1	1	0	1	-5,919662	273,644268	312,00812	0
15.01.2021	22:59:02	0	0	3,728448	0,63825	327,852	-0,074	87,592	0	1017,62	6,4	8,5	8,3	1	1	1	1	1	1	1	1	1	0	1	-1,409443	273,680738	316,68786	0
15.01.2021	22:59:03	0	0	4,745298	0,6645	325,2132	-0,076	87,59	0	1017,48	6,4	8,5	8,3	1	1	1	1	1	1	1	1	1	0	1	-4,369274	273,651556	313,592381	0
15.01.2021	22:59:04	0	0	4,067398	0,65325	327,1212	-0,081	87,592	0	1017,66	6,4	8,5	8,3	1	1	1	1	1	1	1	1	1	0	1	-6,060606	273,653014	311,907826	0
15.01.2021	22:59:05	0	0	3,615465	0,636	324,4176	-0,077	87,602	0	1017,7	6,4	8,5	8,3	1	1	1	1	1	1	1	1	1	0	1	-2,255109	273,653014	315,713322	0
15.01.2021	22:59:06	0	0	3,841431	0,6225	325,9764	-0,075	87,596	0	1017,6	6,4	8,5	8,3	1	1	1	1	1	1	1	1	1	0	1	-3,030303	273,676358	315,046637	0
15.01.2021	22:59:07	0	0	4,858281	0,66825	325,9944	-0,08	87,599	0	1017,66	6,4	8,5	8,3	1	1	1	1	1	1	1	1	1	0	1	-4,510218	273,75975	313,954585	0
15.01.2021	22:59:08	0	0	3,389498	0,687	327,1392	-0,083	87,588	0	1017,52	6,6	8,5	8,3	1	1	1	1	1	1	1	1	1	0	1	-4,369274	273,638439	313,531421	0
15.01.2021	22:59:09	0	0	5,084247	0,72075	338,3712	-0,076	87,595	0	1017,56	6,4	8,5	8,3	1	1	1	1	1	1	1	1	1	0	1	-6,483439	273,739234	311,885911	0
15.01.2021	22:59:10	0	0	4,406348	0,71775	338,3856	-0,075	87,586	0	1017,56	6,4	8,5	8,3	1	1	1	1	1	1	1	1	1	0	1	-7,681466	273,635525	310,205689	0
15.01.2021	22:59:11	0	0	3,728448	0,7395	318,582	-0,075	87,593	0	1017,56	6,4	8,5	8,3	1	1	1	1	1	1	1	1	1	0	1	-5,285412	273,771483	313,233991	0
15.01.2021	22:59:12	0	0	3,954415	0,75075	307,2276	-0,073	87,605	0	1017,46	6,4	8,5	8,3	1	1	1	1	1	1	1	1	1	0	1	-7,892882	273,758284	310,565099	0
15.01.2021	22:59:13	0	0	2,598615	0,77025	311,76	-0,075	87,599	0	1017,7	6,4	8,5	8,3	1	1	1	1	1	1	1	1	1	0	1	-6,131078	273,636982	311,762846	0
15.01.2021	22:59:14	0	0	4,745298	0,753	314,8272	-0,078	87,602	0	1017,72	6,4	8,5	8,3	1	1	1	1	1	1	1	1	1	0	1	-8,45666	273,746559	309,946767	0
15.01.2021	22:59:15	0	0	2,711599	0,795	302,8608	-0,079	87,596	0	1017,58	6,4	8,5	8,3	1	1	1	1	1	1	1	1	1	0	1	-2,60747	273,626787	315,23908	0
15.01.2021	22:59:16	0	0	2,824582	0,834	295,5672	-0,075	87,595	0	1017,62	6,4	8,5	8,3	1	1	1	1	1	1	1	1	1	0	1	-5,708245	273,69973	312,477364	0
15.01.2021	22:59:17	0	0	4,632314	0,873	305,3988	-0,074	87,591	0	1017,58	6,4	8,5	8,3	1	1	1	1	1	1	1	1	1	0	1	-4,862579	273,634069	313,017806	0
15.01.2021	22:59:18	0	0	3,276515	0,921	313,6752	-0,081	87,595	0	1017,64	6,4	8,5	8,3	1	1	1	1	1	1	1	1	1	0	1	-7,047216	273,743629	311,342577	0
15.01.2021	22:59:19	0	0	2,937565	0,948	317,7684	-0,077	87,576	0	1017,56	6,4	8,5	8,3	1	1	1	1	1	1	1	1	1	0	1	-8,668076	273,635525	309,219079	0
15.01.2021	22:59:20	0	0	3,954415	0,94125	311,4936	-0,069	87,602	0	1017,56	6,4	8,5	8,3	1	1	1	1	1	1	1	1	1	0	1	-7,399577	273,739234	310,969773	0
15.01.2021	22:59:21	0	0	2,485632	0,94125	312,4296	-0,079	87,578	0	1017,58	6,4	8,5	8,3	1	1	1	1	1	1	1	1	1	0	1	-14,517266	273,663224	303,498619	0
15.01.2021	22:59:22	0	0	4,971264	0,975	323,748	-0,075	87,586	0	1017,62	6,4	8,5	8,3	1	1	1	1	1	1	1	1	1	0	1	-10,993658	273,770016	307,518919	0
15.01.2021	22:59:23	0	0	2,937565	0,978	330,4152	-0,073	87,606	0	1017,62	6,4	8,5	8,3	1	1	1	1	1	1	1	1	1	0	1	-7,610994	273,638439	310,289701	0
15.01.2021	22:59:24	0	0	2,824582	0,9285	330,3036	-0,078	87,603	0	1017,48	6,4	8,5	8,3	1	1	1	1	1	1	1	1	1	0	1	-8,80902	273,698268	309,369792	0
15.01.2021	22:59:25	0	0	4,632314	0,843	336,3084	-0,059	87,595	0	1017,72	6,4	8,5	8,3	1	1	1	1	1	1	1	1	1	0	1	-7,82241	273,658848	310,173134	0
15.01.2021	22:59:26	0	0	2,711599	0,822	332,4204	-0,081	87,585	0	1017,76	6,4	8,5	8,3	1	1	1	1	1	1	1	1	1	0	1	-6,272023	273,727521	312,042838	0
15.01.2021	22:59:27	0	0	4,858281	0,78375	319,59	-0,071	87,592	0	1017,6	6,6	8,5	8,3	1	1	1	1	1	1	1	1	1	0	1	-8,45666	273,628243	309,396656	0
15.01.2021	22:59:28	0	0	2,598615	0,7965	314,4312	-0,084	87,596	0	1017,5	6,4	8,5	8,3	1	1	1	1	1	1	1	1	1	0	1	-4,510218	273,69973	313,67539	0
15.01.2021	22:59:29	0	0	2,711599	0,7935	312,9048	-0,089	87,58	0	1017,5	6,4	8,5	8,3	1	1	1	1	1	1	1	1	1	0	1	-5,21494	273,812606	313,495882	0
15.01.2021	22:59:30	0	0	2,824582	0,75675	327,1464	-0,078	87,588	0	1017,62	6,4	8,5	8,3	1	1	1	1	1	1	1	1	1	0	1	-6,412967	273,707039	311,806634	0
15.01.2021	22:59:31	0	0	3,954415	0,69375	331,1532	-0,077	87,596	0	1017,68	6,4	8,5	8,3	1	1	1	1	1	1	1	1	1	0	1	-6,342495	273,812606	312,368327	0
15.01.2021	22:59:32	0	0	3,728448	0,669	330,4116	-0,071	87,596	0	1017,58	6,4	8,5	8,3	1	1	1	1	1	1	1	1	1	0	1	-5,637773	273,742164	312,745205	0
15.01.2021	22:59:33	0	0	3,276515	0,69225	324,828	-0,073	87,595	0	1017,54	6,4	8,5	8,3	1	1	1	1	1	1	1	1	1	0	1	-6,131078	273,806726	312,552368	0
15.01.2021	22:59:34	0	0	2,598615	0,73275	316,2672	-0,075	87,583	0	1017,54	6,4	8,5	8,3	1	1	1	1	1	1	1	1	1	0	1	-2,466526	273,762683	316,011924	0
15.01.2021	22:59:35	0	0	4,519331	0,792	310,2804	-0,074	87,598	0	1017,6	6,4	8,5	8,3	1	1	1	1	1	1	1	1	1	0	1	-9,584214	273,809665	309,112919	0
15.01.2021	22:59:36	0	0	4,406348	0,88425	312,138	-0,076	87,592	0	1017,44	6,4	8,5	8,3	1	1	1	1	1	1	1	1	1	0	1	-7,117689	273,767082	311,381235	0
15.01.2021	22:59:37	0	0	4,180381	0,918	310,3164	-0,078	87,588	0	1017,54	6,4	8,5	8,3	1	1	1	1	1	1	1	1	1	0	1	-7,258633	273,696807	310,913384	0
15.01.2021	22:59:38	0	0	4,632314	1,017	309,9204	-0,076	87,61	0	1017,72	6,4	8,5	8,3	1	1	1	1	1	1	1	1	1	0	1	-4,651163	273,638439	313,249532	0
15.01.2021	22:59:39	0	0	3,389498	1,0815	312,4836	-0,075	87,594	0	1017,5	6,4	8,5	8,3	1	1	1	1	1	1	1	1	1	0	1	-7,610994	273,683659	310,499888	0
15.01.2021	22:59:40	0	0	2,5986	1,07475	298,9692	-0,078	87,603	0	1017,74	6,4	8,5	8,4	1	1	1	1	1	1	1	1	1	0	1	-6,976744	273,811135	311,727233	0
15.01.2021	22:59:41	0	0	4,858281	1,06275	293,0076	-0,075	87,589	0	1017,52	6,4	8,5	8,3	1	1	1	1	1	1	1	1	1	0	1	-4,510218	273,745094	313,886391	0
15.01.2021	22:59:42	0	0	3,502482	1,0215	299,394	-0,076	87,583	0	1017,56	6,4	8,5	8,3	1	1	1	1	1	1	1	1	1	0	1	-9,020437	273,815546	309,704077	0
15.01.2021	22:59:43	0	0	2,824565	1,005	298,3608	-0,08	87,608	0	1017,66	6,4	8,5	8,4	1	1	1	1	1	1	1	1	1	0	1	-5,778717	273,636982	312,115207	0
15.01.2021	22:59:44	0	0	4,067398	0,99825	295,6896	-0,078	87,594	0	1017,68	6,4	8,5	8,3	1	1	1	1	1	1	1	1	1	0	1	-7,681466	273,75242	310,749233	0
15.01.2021	22:59:45	0	0	2,824582	0,99525	298,3248	-0,075	87,598	0	1017,64	6,4	8,5	8,3	1	1	1	1	1	1	1	1	1	0	1	-6,906272	273,639896	311,001194	0
15.01.2021	22:59:46	0	0	4,406348	0,95625	296,5104	-0,082	87,591	0	1017,56	6,4	8,5	8,3	1	1	1	1	1	1	1	1	1	0	1	-8,386187	273,721667	309,901443	0
15.01.2021	22:59:47	0	0	4,406321	0,9165	297,5904	-0,078	87,596	0	1017,6	6,4	8,5	8,4	1	1	1	1	1	1	1	1	1	0	1	-6,694856	273,648641	311,253249	0
15.01.2021	22:59:48	0	0	3,276515	0,90675	306,0864	-0,076	87,6	0	1017,58	6,4	8,5	8,3	1	1	1	1	1	1	1	1	1	0	1	-3,664553	273,745094	314,732057	0
15.01.2021	22:59:49	0	0	3,954415	0,8865	313,6536	-0,076	87,595	0	1017,5	6,4	8,5	8,3	1	1	1	1	1	1	1	1	1	0	1	-2,677942	273,638439	315,222752	0
15.01.2021	22:59:50	0	0	4,745269	0,8145	317,3904	-0,074	87,597	0	1017,54	6,4	8,5	8,4	1	1	1	1	1	1	1	1	1	0	1	-6,694856	273,764149	311,790418	0
15.01.2021	22:59:51	0	0	3,728448	0,759	310,7016	-0,074	87,598	0	1017,56	6,4	8,5	8,3	1	1	1	1	1	1	1	1	1	0	1	-4,580691	273,639896	313,326775	0
15.01.2021	22:59:52	0	0	3,276515	0,75375	297,1836	-0,08	87,589	0	1017,6	6,4	8,5	8,3	1	1	1	1	1	1	1	1	1	0	1	-2,677942	273,664683	315,344724	0
15.01.2021	22:59:53	0	0	3,389498	0,75975	291,906	-0,073	87,594	0	1017,64	6,4	8,5	8,3	1	1	1	1	1	1	1	1	1	0	1	-1,832276	273,812606	316,878546	0
15.01.2021	22:59:54	0	0	4,858252	0,735	304,2936	-0,073	87,594	0	1017,52	6,4	8,5	8,4	1	1	1	1	1	1	1	1	1	0	1	-11,134602	273,674898	306,935552	0
15.01.2021	22:59:55	0	0	5,084217	0,765	319,1148	-0,077	87,592	0	1017,6	6,4	8,5	8,4	1	1	1	1	1	1	1	1	1	0	1	-3,523608	273,638439	314,377087	0
15.01.2021	22:59:56	0	0	4,632314	0,717	323,694	-0,07	87,602	0	1017,7	6,4	8,5	8,3	1	1	1	1	1	1	1	1	1	0	1	-6,976744	273,75242	311,453954	0
15.01.2021	22:59:57	0	0	4,858252	0,6825	321,8472	-0,074	87,593	0	1017,6	6,4	8,5	8,4	1	1	1	1	1	1	1	1	1	0	1	-7,540521	273,792033	311,074529	0
15.01.2021	22:59:58	0	0	2,598615	0,66	323,694	-0,075	87,597	0	1017,58	6,4	8,5	8,3	1	1	1	1	1	1	1	1	1	0	1	-6,906272	273,794971	311,722453	0
15.01.2021	22:59:59	0	0	5,310214	0,606	321,4836	-0,079	87,596	0	1017,58	6,4	8,5	8,3	1	1	1	1	1	1	1	1	1	0	1	-9,725159	273,758284	308,732823	0
15.01.2021	23:00:00	0	0	4,406348	0,59475	322,182	-0,072	87,586	0	1017,64	6,4	8,5	8,3	1	1	1	1	1	1	1	1	1	0	1	-4,510218	273,641353	313,404019	0
15.01.2021	23:00:01	0	0	4,293365	0,56025	321,5268	-0,077	87,602	0	1017,58	6,4	8,5	8,3	1	1	1	1	1	1	1	1	1	0	1	-4,933051	273,777352	313,613667	0
15.01.2021	23:00:02	0	0	3,050548	0,51525	321,1524	-0,074	87,592	0	1017,68	6,4	8,5	8,3	1	1	1	1	1	1	1	1	1	0	1	-3,312192	273,68804	314,819063	0
15.01.2021	23:00:03	0	0	4,971234	0,54225	328,5504	-0,077	87,587	0	1017,56	6,4	8,5	8,4	1	1	1	1	1	1	1	1	1	0	1	-3,523608	273,809665	315,173525	0
15.01.2021	23:00:04	0	0	2,937565	0,54825	328,1184	-0,076	87,592	0	1017,62	6,4	8,5	8,3	1	1	1	1	1	1	1	1	1	0	1	-5,496829	273,704115	312,709173	0
15.01.2021	23:00:05	0	0	4,632314	0,53775	324,8784	-0,075	87,593	0	1017,74	6,4	8,5	8,3	1	1	1	1	1	1	1	1	1	0	1	-9,372798	273,777352	309,173921	0
15.01.2021	23:00:06	0	0	4,519331	0,52575	324,414	-0,073	87,595	0	1017,62	6,4	8,5	8,3	1	1	1	1	1	1	1	1	1	0	1	-5,21494	273,79644	313,420623	0
15.01.2021	23:00:07	0	0	3,163532	0,47775	320,76	-0,073	87,598	0	1017,68	6,4	8,5	8,3	1	1	1	1	1	1	1	1	1	0	1	-6,272023	273,648641	311,676082	0
15.01.2021	23:00:08	0	0	4,293365	0,49725	315,2268	-0,075	87,601	0	1017,58	6,4	8,5	8,3	1	1	1	1	1	1	1	1	1	0	1	-5,003524	273,809665	313,693609	0
15.01.2021	23:00:09	0	0	3,954415	0,4635	309,204	-0,078	87,576	0	1017,48	6,4	8,5	8,3	1	1	1	1	1	1	1	1	1	0	1	-3,735025	273,780288	314,825355	0
15.01.2021	23:00:10	0	0	2,937565	0,4545	299,3796	-0,074	87,592	0	1017,72	6,4	8,5	8,3	1	1	1	1	1	1	1	1	1	0	1	-6,765328	273,644268	311,162454	0
15.01.2021	23:00:11	0	0	4,519331	0,44325	290,8116	-0,069	87,588	0	1017,56	6,4	8,5	8,3	1	1	1	1	1	1	1	1	1	0	1	-6,624383	273,783223	311,949661	0
15.01.2021	23:00:12	0	0	3,502482	0,44325	290,0268	-0,072	87,595	0	1017,66	6,4	8,5	8,3	1	1	1	1	1	1	1	1	1	0	1	-3,946441	273,679278	314,144074	0
15.01.2021	23:00:13	0	0	4,519304	0,4155	292,5792	-0,075	87,6	0	1017,62	6,4	8,5	8,4	1	1	1	1	1	1	1	1	1	0	1	-7,399577	273,628243	310,453739	0
15.01.2021	23:00:14	0	0	4,632314	0,39375	297,2376	-0,075	87,593	0	1017,6	6,4	8,5	8,3	1	1	1	1	1	1	1	1	1	0	1	-8,315715	273,728984	310,005954	0
15.01.2021	23:00:15	0	0	4,519331	0,42375	300,456	-0,075	87,612	0	1017,62	6,4	8,5	8,3	1	1	1	1	1	1	1	1	1	0	1	-4,439746	273,626787	313,406804	0
15.01.2021	23:00:16	0	0	2,5986	0,43125	308,8836	-0,073	87,597	0	1017,64	6,4	8,5	8,4	1	1	1	1	1	1	1	1	1	0	1	-7,329105	273,756818	311,122055	0
15.01.2021	23:00:17	0	0	2,598615	0,44325	313,2144	-0,076	87,585	0	1017,6	6,4	8,5	8,3	1	1	1	1	1	1	1	1	1	0	1	-1,62086	273,628243	316,232456	0
15.01.2021	23:00:18	0	0	3,050548	0,447	309,2292	-0,069	87,591	0	1017,48	6,4	8,5	8,3	1	1	1	1	1	1	1	1	1	0	1	-2,818887	273,698268	315,359926	0
15.01.2021	23:00:19	0	0	3,841431	0,4815	305,3844	-0,077	87,594	0	1017,56	6,4	8,5	8,3	1	1	1	1	1	1	1	1	1	0	1	-5,21494	273,806726	313,468506	0
15.01.2021	23:00:20	0	0	3,389498	0,46425	300,4272	-0,065	87,595	0	1017,64	6,4	8,5	8,3	1	1	1	1	1	1	1	1	1	0	1	-4,298802	273,708501	313,927599	0
15.01.2021	23:00:21	0	0	2,485632	0,48825	303,264	-0,075	87,593	0	1017,58	6,4	8,5	8,3	1	1	1	1	1	1	1	1	1	0	1	-5,778717	273,815546	312,945796	0
15.01.2021	23:00:22	0	0	2,824582	0,48375	313,2	-0,079	87,599	0	1017,6	6,4	8,5	8,3	1	1	1	1	1	1	1	1	1	0	1	-3,59408	273,689501	314,543966	0
15.01.2021	23:00:23	0	0	4,067374	0,4725	318,8304	-0,071	87,577	0	1017,66	6,4	8,5	8,4	1	1	1	1	1	1	1	1	1	0	1	-5,496829	273,787628	313,097716	0
15.01.2021	23:00:24	0	0	3,389498	0,456	316,6488	-0,073	87,594	0	1017,58	6,4	8,5	8,3	1	1	1	1	1	1	1	1	1	0	1	-9,866103	273,790565	308,742112	0
15.01.2021	23:00:25	0	0	3,05053	0,4575	313,992	-0,07	87,597	0	1017,44	6,4	8,5	8,4	1	1	1	1	1	1	1	1	1	0	1	-7,82241	273,762683	310,656039	0
15.01.2021	23:00:26	0	0	3,050548	0,44475	313,596	-0,079	87,58	0	1017,56	6,4	8,5	8,3	1	1	1	1	1	1	1	1	1	0	1	-2,466526	273,655931	315,515461	0
15.01.2021	23:00:27	0	0	4,293365	0,4785	315,882	-0,078	87,598	0	1017,54	6,4	8,5	8,3	1	1	1	1	1	1	1	1	1	0	1	-6,976744	273,667601	311,059487	0
15.01.2021	23:00:28	0	0	3,389498	0,483	324,4356	-0,072	87,61	0	1017,74	6,4	8,5	8,3	1	1	1	1	1	1	1	1	1	0	1	-6,553911	273,792033	312,06114	0
15.01.2021	23:00:29	0	0	3,163532	0,45975	333,5076	-0,074	87,599	0	1017,62	6,4	8,5	8,3	1	1	1	1	1	1	1	1	1	0	1	-2,325581	273,770016	316,186995	0
15.01.2021	23:00:30	0	0	3,841431	0,429	339,1524	-0,075	87,575	0	1017,52	6,4	8,5	8,3	1	1	1	1	1	1	1	1	1	0	1	-6,342495	273,632612	311,531123	0
15.01.2021	23:00:31	0	0	4,971264	0,42975	335,2536	-0,078	87,584	0	1017,56	6,4	8,5	8,3	1	1	1	1	1	1	1	1	1	0	1	-9,584214	273,784691	308,996663	0
15.01.2021	23:00:32	0	0	4,406348	0,42	326,3544	-0,07	87,585	0	1017,56	6,4	8,5	8,3	1	1	1	1	1	1	1	1	1	0	1	-3,875969	273,746559	314,527457	0
15.01.2021	23:00:33	0	0	3,163513	0,4455	324,7992	-0,072	87,578	0	1017,6	6,4	8,5	8,4	1	1	1	1	1	1	1	1	1	0	1	-5,496829	273,638439	312,403866	0
15.01.2021	23:00:34	0	0	2,937565	0,42	327,3804	-0,071	87,606	0	1017,74	6,4	8,5	8,3	1	1	1	1	1	1	1	1	1	0	1	-4,157858	273,676358	313,919083	0
15.01.2021	23:00:35	0	0	3,728448	0,4005	328,9428	-0,07	87,592	0	1017,58	6,4	8,5	8,3	1	1	1	1	1	1	1	1	1	0	1	-4,721635	273,802317	313,941286	0
15.01.2021	23:00:36	0	0	5,310214	0,4305	328,5756	-0,072	87,607	0	1017,62	6,4	8,5	8,3	1	1	1	1	1	1	1	1	1	0	1	-7,047216	273,783223	311,526828	0
15.01.2021	23:00:37	0	0	3,502482	0,3885	327,7908	-0,072	87,607	0	1017,56	6,6	8,5	8,3	1	1	1	1	1	1	1	1	1	0	1	-5,84919	273,797909	312,793212	0
15.01.2021	23:00:38	0	0	2,598615	0,36	326,7792	-0,067	87,596	0	1017,66	6,4	8,5	8,3	1	1	1	1	1	1	1	1	1	0	1	-8,879493	273,683659	309,231389	0
15.01.2021	23:00:39	0	0	3,276495	0,35025	321,2244	-0,079	87,578	0	1017,78	6,4	8,5	8,4	1	1	1	1	1	1	1	1	1	0	1	-5,990134	273,808195	312,700155	0
15.01.2021	23:00:40	0	0	2,711599	0,38025	323,7372	-0,072	87,6	0	1017,52	6,6	8,5	8,3	1	1	1	1	1	1	1	1	1	0	1	-6,553911	273,647183	311,387418	0
15.01.2021	23:00:41	0	0	4,067398	0,36225	336,1788	-0,07	87,588	0	1017,62	6,4	8,5	8,3	1	1	1	1	1	1	1	1	1	0	1	-3,382664	273,679278	314,707851	0
15.01.2021	23:00:42	0	0	2,259652	0,34275	336,42	-0,079	87,588	0	1017,56	6,4	8,5	8,4	1	1	1	1	1	1	1	1	1	0	1	-5,708245	273,815546	313,016268	0
15.01.2021	23:00:43	0	0	3,728426	0,34725	325,152	-0,074	87,603	0	1017,54	6,4	8,5	8,4	1	1	1	1	1	1	1	1	1	0	1	-9,725159	273,77295	308,801073	0
15.01.2021	23:00:44	0	0	4,745298	0,32025	312,8904	-0,069	87,592	0	1017,62	6,4	8,5	8,3	1	1	1	1	1	1	1	1	1	0	1	-6,694856	273,800847	311,961225	0
15.01.2021	23:00:45	0	0	4,745269	0,30075	305,4132	-0,073	87,602	0	1017,56	6,4	8,5	8,4	1	1	1	1	1	1	1	1	1	0	1	-7,258633	273,750955	311,165247	0
15.01.2021	23:00:46	0	0	3,050548	0,3	299,412	-0,075	87,596	0	1017,68	6,4	8,5	8,3	1	1	1	1	1	1	1	1	1	0	1	-7,963354	273,653014	310,005077	0
15.01.2021	23:00:47	0	0	2,711599	0,2955	292,2264	-0,074	87,576	0	1017,6	6,4	8,5	8,3	1	1	1	1	1	1	1	1	1	0	1	-7,329105	273,696807	310,842911	0
15.01.2021	23:00:48	0	0	2,146682	0,2865	288,4968	-0,069	87,608	0	1017,68	6,4	8,5	8,3	1	1	1	1	1	1	1	1	1	0	1	-5,144468	273,654473	312,830741	0
15.01.2021	23:00:49	0	0	2,824582	0,29325	287,424	-0,078	87,581	0	1017,48	6,4	8,5	8,3	1	1	1	1	1	1	1	1	1	0	1	-10,42988	273,670519	307,619918	0
15.01.2021	23:00:50	0	0	3,389478	0,26925	287,0856	-0,078	87,604	0	1017,58	6,4	8,5	8,4	1	1	1	1	1	1	1	1	1	0	1	-8,315715	273,683659	309,795167	0
15.01.2021	23:00:51	0	0	2,824582	0,285	293,4216	-0,073	87,61	0	1017,62	6,4	8,5	8,3	1	1	1	1	1	1	1	1	1	0	1	-8,80902	273,635525	309,078134	0
15.01.2021	23:00:52	0	0	4,519304	0,273	302,814	-0,073	87,606	0	1017,58	6,4	8,5	8,4	1	1	1	1	1	1	1	1	1	0	1	-3,171247	273,770016	315,341329	0
15.01.2021	23:00:53	0	0	2,824565	0,25725	311,0508	-0,071	87,603	0	1017,72	6,4	8,5	8,4	1	1	1	1	1	1	1	1	1	0	1	-3,946441	273,655931	314,035545	0
15.01.2021	23:00:54	0	0	3,276515	0,336	319,1472	-0,072	87,607	0	1017,54	6,4	8,5	8,3	1	1	1	1	1	1	1	1	1	0	1	-6,906272	273,664683	311,116394	0
15.01.2021	23:00:55	0	0	3,276515	0,4515	323,7084	-0,071	87,602	0	1017,52	6,4	8,5	8,3	1	1	1	1	1	1	1	1	1	0	1	-6,20155	273,66906	311,841464	0
15.01.2021	23:00:56	0	0	2,824582	0,52125	326,4804	-0,074	87,591	0	1017,64	6,4	8,5	8,3	1	1	1	1	1	1	1	1	1	0	1	-6,060606	273,818487	312,677602	0
15.01.2021	23:00:57	0	0	2,824582	0,59175	324,4716	-0,074	87,601	0	1017,74	6,5	8,5	8,3	1	1	1	1	1	1	1	1	1	0	1	-4,862579	273,651556	313,099076	0
15.01.2021	23:00:58	0	0	2,711599	0,62025	328,2588	-0,076	87,61	0	1017,6	6,4	8,5	8,3	1	1	1	1	1	1	1	1	1	0	1	-4,792107	273,689501	313,34594	0
15.01.2021	23:00:59	0	0	3,954391	0,62775	332,0244	-0,075	87,608	0	1017,68	6,4	8,5	8,4	1	1	1	1	1	1	1	1	1	0	1	-9,161381	273,811135	309,542596	0
15.01.2021	23:01:00	0	0	4,971264	0,61275	324,2016	-0,072	87,605	0	1017,66	6,4	8,5	8,3	1	1	1	1	1	1	1	1	1	0	1	-4,510218	273,724593	313,791026	0
15.01.2021	23:01:01	0	0	3,276515	0,60975	310,9968	-0,072	87,598	0	1017,56	6,4	8,5	8,3	1	1	1	1	1	1	1	1	1	0	1	-7,892882	273,821429	310,859022	0
15.01.2021	23:01:02	0	0	3,728448	0,594	300,888	-0,073	87,606	0	1017,66	6,4	8,5	8,3	1	1	1	1	1	1	1	1	1	0	1	-7,540521	273,765616	310,951577	0
15.01.2021	23:01:03	0	0	4,406321	0,6495	307,2564	-0,069	87,608	0	1017,82	6,4	8,5	8,4	1	1	1	1	1	1	1	1	1	0	1	-3,382664	273,639896	314,524802	0
15.01.2021	23:01:04	0	0	2,937565	0,681	319,2372	-0,071	87,612	0	1017,76	6,4	8,5	8,3	1	1	1	1	1	1	1	1	1	0	1	-7,470049	273,814076	311,247618	0
15.01.2021	23:01:05	0	0	3,389498	0,6885	322,9452	-0,071	87,596	0	1017,58	6,4	8,5	8,3	1	1	1	1	1	1	1	1	1	0	1	-6,483439	273,721667	311,804192	0
15.01.2021	23:01:06	0	0	2,711582	0,6645	313,1388	-0,069	87,594	0	1017,68	6,4	8,5	8,4	1	1	1	1	1	1	1	1	1	0	1	-3,664553	273,638439	314,236142	0
15.01.2021	23:01:07	0	0	3,276515	0,687	300,4164	-0,079	87,6	0	1017,58	6,4	8,5	8,3	1	1	1	1	1	1	1	1	1	0	1	-8,033827	273,670519	310,015972	0
15.01.2021	23:01:08	0	0	2,711599	0,687	292,2228	-0,066	87,614	0	1017,58	6,4	8,5	8,3	1	1	1	1	1	1	1	1	1	0	1	-8,245243	273,674898	309,824911	0
15.01.2021	23:01:09	0	0	4,406321	0,723	297,5184	-0,07	87,618	0	1017,52	6,4	8,5	8,4	1	1	1	1	1	1	1	1	1	0	1	-4,016913	273,799378	314,632327	0
15.01.2021	23:01:10	0	0	3,163532	0,73575	304,416	-0,069	87,602	0	1017,54	6,4	8,5	8,3	1	1	1	1	1	1	1	1	1	0	1	-5,84919	273,750955	312,57469	0
15.01.2021	23:01:11	0	0	4,858281	0,70575	303,9156	-0,07	87,62	0	1017,6	6,4	8,5	8,3	1	1	1	1	1	1	1	1	1	0	1	-4,933051	273,618052	312,872916	0
15.01.2021	23:01:12	0	0	2,937565	0,76425	296,5356	-0,077	87,596	0	1017,54	6,4	8,5	8,3	1	1	1	1	1	1	1	1	1	0	1	-1,832276	273,698268	316,346536	0
15.01.2021	23:01:13	0	0	3,502461	0,825	297,9648	-0,072	87,6	0	1017,42	6,4	8,5	8,4	1	1	1	1	1	1	1	1	1	0	1	-4,651163	273,647183	313,290167	0
15.01.2021	23:01:14	0	0	4,067374	0,8745	310,6872	-0,075	87,602	0	1017,64	6,4	8,5	8,4	1	1	1	1	1	1	1	1	1	0	1	-6,412967	273,720203	311,867858	0
15.01.2021	23:01:15	0	0	2,485632	0,94725	315,1764	-0,07	87,587	0	1017,68	6,4	8,5	8,3	1	1	1	1	1	1	1	1	1	0	1	-7,047216	273,811135	311,656761	0
15.01.2021	23:01:16	0	0	3,050548	1,03875	316,692	-0,073	87,6	0	1017,6	6,4	8,5	8,3	1	1	1	1	1	1	1	1	1	0	1	-8,738548	273,777352	309,80817	0
15.01.2021	23:01:17	0	0	2,259666	1,02525	317,07	-0,069	87,608	0	1017,7	6,4	8,5	8,3	1	1	1	1	1	1	1	1	1	0	1	-6,272023	273,634069	311,608363	0
15.01.2021	23:01:18	0	0	4,406348	1,011	313,6572	-0,072	87,598	0	1017,64	6,4	8,5	8,3	1	1	1	1	1	1	1	1	1	0	1	-7,892882	273,755352	310,551456	0
15.01.2021	23:01:19	0	0	3,05053	1,02975	311,9328	-0,075	87,589	0	1017,74	6,4	8,5	8,4	1	1	1	1	1	1	1	1	1	0	1	-4,862579	273,783223	313,711465	0
15.01.2021	23:01:20	0	0	2,824582	1,083	315,252	-0,066	87,61	0	1017,66	6,4	8,5	8,3	1	1	1	1	1	1	1	1	1	0	1	-10,359408	273,625331	307,480376	0
15.01.2021	23:01:21	0	0	4,293365	1,074	308,466	-0,071	87,604	0	1017,66	6,4	8,5	8,3	1	1	1	1	1	1	1	1	1	0	1	-8,386187	273,711426	309,853816	0
15.01.2021	23:01:22	0	0	4,632314	1,06575	308,124	-0,072	87,601	0	1017,5	6,4	8,5	8,3	1	1	1	1	1	1	1	1	1	0	1	-4,933051	273,815546	313,791462	0
15.01.2021	23:01:23	0	0	3,728426	1,11075	311,1012	-0,07	87,593	0	1017,62	6,4	8,5	8,4	1	1	1	1	1	1	1	1	1	0	1	-3,523608	273,736305	314,832116	0
15.01.2021	23:01:24	0	0	2,598615	1,0785	309,2724	-0,068	87,616	0	1017,7	6,4	8,5	8,3	1	1	1	1	1	1	1	1	1	0	1	-8,879493	273,8229	309,879262	0
15.01.2021	23:01:25	0	0	3,954415	1,0485	310,7088	-0,064	87,601	0	1017,58	6,4	8,5	8,3	1	1	1	1	1	1	1	1	1	0	1	-8,80902	273,792033	309,80603	0
15.01.2021	23:01:26	0	0	4,519331	1,03875	306,8424	-0,068	87,596	0	1017,64	6,4	8,5	8,3	1	1	1	1	1	1	1	1	1	0	1	-7,047216	273,762683	311,431233	0
15.01.2021	23:01:27	0	0	3,728448	1,04475	302,0796	-0,071	87,596	0	1017,64	6,4	8,5	8,3	1	1	1	1	1	1	1	1	1	0	1	-8,386187	273,800847	310,269893	0
15.01.2021	23:01:28	0	0	2,372635	0,99975	305,7444	-0,066	87,597	0	1017,64	6,5	8,5	8,4	1	1	1	1	1	1	1	1	1	0	1	-6,906272	273,679278	311,184243	0
15.01.2021	23:01:29	0	0	2,259666	0,96825	305,1468	-0,073	87,605	0	1017,58	6,4	8,5	8,3	1	1	1	1	1	1	1	1	1	0	1	-8,597604	273,770016	309,914972	0
15.01.2021	23:01:30	0	0	3,389498	0,95025	303,5196	-0,068	87,606	0	1017,64	6,4	8,5	8,3	1	1	1	1	1	1	1	1	1	0	1	-3,523608	273,815546	315,200906	0
15.01.2021	23:01:31	0	0	3,276495	0,9585	301,59	-0,069	87,601	0	1017,44	6,4	8,5	8,4	1	1	1	1	1	1	1	1	1	0	1	-2,043693	273,77295	316,482539	0
15.01.2021	23:01:32	0	0	4,745269	1,0065	308,8656	-0,07	87,587	0	1017,64	6,4	8,5	8,4	1	1	1	1	1	1	1	1	1	0	1	-5,21494	273,676358	312,862	0
15.01.2021	23:01:33	0	0	3,05053	1,05	310,6872	-0,066	87,604	0	1017,84	6,4	8,5	8,4	1	1	1	1	1	1	1	1	1	0	1	-6,624383	273,808195	312,065906	0
15.01.2021	23:01:34	0	0	4,180381	1,04625	307,1772	-0,052	87,597	0	1017,64	6,4	8,5	8,3	1	1	1	1	1	1	1	1	1	0	1	-8,386187	273,749489	310,030874	0
15.01.2021	23:01:35	0	0	4,180381	1,02975	312,2064	-0,07	87,586	0	1017,62	6,4	8,5	8,3	1	1	1	1	1	1	1	1	1	0	1	-6,8358	273,819958	311,909256	0
15.01.2021	23:01:36	0	0	5,084247	0,9765	306,8532	-0,07	87,613	0	1017,76	6,4	8,5	8,3	1	1	1	1	1	1	1	1	1	0	1	-5,637773	273,75242	312,792926	0
15.01.2021	23:01:37	0	0	4,067398	0,95625	299,4336	-0,068	87,606	0	1017,7	6,4	8,5	8,3	1	1	1	1	1	1	1	1	1	0	1	-5,637773	273,767082	312,861151	0
15.01.2021	23:01:38	0	0	4,180356	0,9585	303,0948	-0,07	87,602	0	1017,68	6,4	8,5	8,4	1	1	1	1	1	1	1	1	1	0	1	-6,765328	273,636982	311,128597	0
15.01.2021	23:01:39	0	0	3,615443	0,93675	300,8844	-0,067	87,598	0	1017,68	6,4	8,5	8,4	1	1	1	1	1	1	1	1	1	0	1	-6,624383	273,800847	312,031697	0
15.01.2021	23:01:40	0	0	4,406321	0,924	299,0448	-0,07	87,575	0	1017,62	6,4	8,5	8,4	1	1	1	1	1	1	1	1	1	0	1	-6,131078	273,655931	311,850908	0
15.01.2021	23:01:41	0	0	5,197231	0,9345	300,474	-0,065	87,6	0	1017,68	6,4	8,5	8,3	1	1	1	1	1	1	1	1	1	0	1	-3,312192	273,814076	315,405476	0
15.01.2021	23:01:42	0	0	4,971234	0,90375	305,3052	-0,067	87,587	0	1017,64	6,4	8,5	8,4	1	1	1	1	1	1	1	1	1	0	1	-4,862579	273,72313	313,431858	0
15.01.2021	23:01:43	0	0	4,406348	0,861	302,8176	-0,064	87,596	0	1017,56	6,4	8,5	8,3	1	1	1	1	1	1	1	1	1	0	1	-8,315715	273,689501	309,822331	0
15.01.2021	23:01:44	0	0	2,937565	0,85875	306,5688	-0,075	87,59	0	1017,72	6,6	8,5	8,3	1	1	1	1	1	1	1	1	1	0	1	-4,651163	273,631156	313,215687	0
15.01.2021	23:01:45	0	0	3,163532	0,86025	307,2132	-0,07	87,588	0	1017,6	6,4	8,5	8,3	1	1	1	1	1	1	1	1	1	0	1	-3,24172	273,676358	314,835221	0
15.01.2021	23:01:46	0	0	4,519331	0,855	310,3236	-0,069	87,594	0	1017,68	6,4	8,5	8,3	1	1	1	1	1	1	1	1	1	0	1	-7,751938	273,743629	310,637856	0
15.01.2021	23:01:47	0	0	2,824565	0,85725	316,9512	-0,068	87,592	0	1017,7	6,4	8,5	8,4	1	1	1	1	1	1	1	1	1	0	1	-5,426357	273,634069	312,454029	0
15.01.2021	23:01:48	0	0	3,841431	0,8655	315,504	-0,069	87,599	0	1017,68	6,4	8,5	8,3	1	1	1	1	1	1	1	1	1	0	1	-7,540521	273,77295	310,98571	0
15.01.2021	23:01:49	0	0	3,502461	0,891	314,0208	-0,068	87,603	0	1017,64	6,4	8,5	8,4	1	1	1	1	1	1	1	1	1	0	1	-4,580691	273,781755	313,986521	0
15.01.2021	23:01:50	0	0	2,259652	0,903	311,742	-0,077	87,587	0	1017,62	6,4	8,5	8,4	1	1	1	1	1	1	1	1	1	0	1	-2,677942	273,800847	315,978138	0
15.01.2021	23:01:51	0	0	3,05053	0,8895	313,1964	-0,069	87,578	0	1017,68	6,4	8,5	8,4	1	1	1	1	1	1	1	1	1	0	1	-2,184637	273,692423	315,966996	0
15.01.2021	23:01:52	0	0	5,084217	0,8895	315,6012	-0,072	87,585	0	1017,62	6,6	8,5	8,4	1	1	1	1	1	1	1	1	1	0	1	-8,668076	273,702653	309,531127	0
15.01.2021	23:01:53	0	0	2,5986	0,88275	316,9728	-0,074	87,579	0	1017,66	6,4	8,5	8,4	1	1	1	1	1	1	1	1	1	0	1	-4,721635	273,797909	313,920766	0
15.01.2021	23:01:54	0	0	2,711582	0,8595	311,8068	-0,068	87,585	0	1017,7	6,4	8,5	8,4	1	1	1	1	1	1	1	1	1	0	1	-3,59408	273,712889	314,652725	0
15.01.2021	23:01:55	0	0	2,937565	0,8475	311,5188	-0,067	87,586	0	1017,7	6,6	8,5	8,3	1	1	1	1	1	1	1	1	1	0	1	-6,272023	273,802317	312,390898	0
15.01.2021	23:01:56	0	0	3,728448	0,8475	312,21	-0,069	87,594	0	1017,64	6,4	8,5	8,3	1	1	1	1	1	1	1	1	1	0	1	-5,285412	273,790565	313,322802	0
15.01.2021	23:01:57	0	0	3,163513	0,822	302,8392	-0,071	87,592	0	1017,6	6,4	8,5	8,4	1	1	1	1	1	1	1	1	1	0	1	-5,355884	273,748024	313,054359	0
15.01.2021	23:01:58	0	0	5,084217	0,8295	293,742	-0,072	87,59	0	1017,7	6,4	8,5	8,4	1	1	1	1	1	1	1	1	1	0	1	-7,258633	273,809665	311,4385	0
15.01.2021	23:01:59	0	0	2,937565	0,8445	295,1136	-0,067	87,582	0	1017,52	6,4	8,5	8,3	1	1	1	1	1	1	1	1	1	0	1	-3,312192	273,708501	314,914209	0
15.01.2021	23:02:00	0	0	4,067398	0,89025	306,1656	-0,071	87,588	0	1017,64	6,4	8,5	8,3	1	1	1	1	1	1	1	1	1	0	1	-5,144468	273,693884	313,013959	0
15.01.2021	23:02:01	0	0	2,937548	0,89625	310,9608	-0,071	87,589	0	1017,7	6,4	8,5	8,4	1	1	1	1	1	1	1	1	1	0	1	-5,708245	273,802317	312,954676	0
15.01.2021	23:02:02	0	0	3,728426	0,873	309,9276	-0,068	87,594	0	1017,76	6,4	8,6	8,4	1	1	1	1	1	1	1	1	1	0	1	-4,369274	273,654473	313,605935	0
15.01.2021	23:02:03	0	0	2,824582	0,88575	312,1596	-0,067	87,587	0	1017,5	6,4	8,6	8,3	1	1	1	1	1	1	1	1	1	0	1	-4,439746	273,690962	313,705093	0
15.01.2021	23:02:04	0	0	4,180356	0,85575	318,0672	-0,07	87,58	0	1017,58	6,4	8,5	8,4	1	1	1	1	1	1	1	1	1	0	1	-11,41649	273,626787	306,430059	0
15.01.2021	23:02:05	0	0	4,858281	0,825	317,7	-0,062	87,586	0	1017,7	6,6	8,5	8,3	1	1	1	1	1	1	1	1	1	0	1	-3,59408	273,799378	315,05516	0
15.01.2021	23:02:06	0	0	3,502461	0,822	320,1876	-0,07	87,573	0	1017,52	6,4	8,5	8,4	1	1	1	1	1	1	1	1	1	0	1	-7,047216	273,78616	311,540494	0
15.01.2021	23:02:07	0	0	2,937565	0,813	324,7272	-0,068	87,604	0	1017,62	6,4	8,5	8,3	1	1	1	1	1	1	1	1	1	0	1	-3,875969	273,639896	314,031497	0
15.01.2021	23:02:08	0	0	4,745269	0,82725	322,1568	-0,07	87,582	0	1017,66	6,4	8,5	8,4	1	1	1	1	1	1	1	1	1	0	1	-5,708245	273,775885	312,831644	0
15.01.2021	23:02:09	0	0	4,180381	0,83775	316,6848	-0,072	87,589	0	1017,74	6,4	8,5	8,3	1	1	1	1	1	1	1	1	1	0	1	-3,171247	273,682198	314,932845	0
15.01.2021	23:02:10	0	0	3,841408	0,83475	315,126	-0,066	87,591	0	1017,58	6,4	8,5	8,4	1	1	1	1	1	1	1	1	1	0	1	-7,258633	273,812606	311,452189	0
15.01.2021	23:02:11	0	0	3,841431	0,8055	320,0112	-0,067	87,588	0	1017,64	6,5	8,5	8,3	1	1	1	1	1	1	1	1	1	0	1	-7,047216	273,726057	311,260836	0
15.01.2021	23:02:12	0	0	4,406321	0,7935	321,174	-0,066	87,585	0	1017,64	6,4	8,6	8,4	1	1	1	1	1	1	1	1	1	0	1	-2,677942	273,639896	315,229523	0
15.01.2021	23:02:13	0	0	3,841408	0,792	327,006	-0,066	87,594	0	1017,62	6,5	8,5	8,4	1	1	1	1	1	1	1	1	1	0	1	-9,654686	273,787628	308,939858	0
15.01.2021	23:02:14	0	0	2,824565	0,82725	324,3852	-0,067	87,595	0	1017,74	6,4	8,6	8,4	1	1	1	1	1	1	1	1	1	0	1	-8,104299	273,761216	310,367327	0
15.01.2021	23:02:15	0	0	2,824565	0,819	325,116	-0,067	87,584	0	1017,38	6,4	8,5	8,4	1	1	1	1	1	1	1	1	1	0	1	-3,100775	273,642811	314,820234	0
15.01.2021	23:02:16	0	0	3,728448	0,81975	326,4048	-0,076	87,594	0	1017,58	6,4	8,5	8,3	1	1	1	1	1	1	1	1	1	0	1	-5,144468	273,69973	313,041141	0
15.01.2021	23:02:17	0	0	4,519304	0,807	327,096	-0,068	87,572	0	1017,6	6,6	8,6	8,4	1	1	1	1	1	1	1	1	1	0	1	-5,21494	273,834672	313,598632	0
15.01.2021	23:02:18	0	0	4,519304	0,78225	327,8772	-0,071	87,585	0	1017,7	6,4	8,5	8,4	1	1	1	1	1	1	1	1	1	0	1	-9,654686	273,692423	308,496946	0
15.01.2021	23:02:19	0	0	3,615443	0,756	323,298	-0,069	87,587	0	1017,74	6,4	8,5	8,4	1	1	1	1	1	1	1	1	1	0	1	-9,795631	273,777352	308,751088	0
15.01.2021	23:02:20	0	0	2,937548	0,7275	317,7396	-0,073	87,571	0	1017,58	6,4	8,5	8,4	1	1	1	1	1	1	1	1	1	0	1	-2,889359	273,657389	315,099406	0
15.01.2021	23:02:21	0	0	2,485617	0,70575	311,7564	-0,078	87,572	0	1017,54	6,6	8,5	8,4	1	1	1	1	1	1	1	1	1	0	1	-7,610994	273,75975	310,85381	0
15.01.2021	23:02:22	0	0	2,485617	0,67425	308,106	-0,067	87,576	0	1017,58	6,4	8,5	8,4	1	1	1	1	1	1	1	1	1	0	1	-2,818887	273,660306	315,183437	0
15.01.2021	23:02:23	0	0	4,632287	0,66975	301,2084	-0,068	87,585	0	1017,62	6,4	8,5	8,4	1	1	1	1	1	1	1	1	1	0	1	-5,073996	273,805256	313,602608	0
15.01.2021	23:02:24	0	0	4,293339	0,702	309,2508	-0,066	87,58	0	1017,68	6,4	8,5	8,4	1	1	1	1	1	1	1	1	1	0	1	-8,174771	273,78616	310,412939	0
15.01.2021	23:02:25	0	0	3,615443	0,7035	320,4504	-0,077	87,58	0	1017,76	6,4	8,5	8,4	1	1	1	1	1	1	1	1	1	0	1	-7,681466	273,819958	311,06359	0
15.01.2021	23:02:26	0	0	5,197231	0,71025	326,3436	-0,074	87,58	0	1017,72	6,4	8,5	8,3	1	1	1	1	1	1	1	1	1	0	1	-6,624383	273,745094	311,772226	0
15.01.2021	23:02:27	0	0	2,824582	0,66675	325,1376	-0,068	87,587	0	1017,62	6,5	8,5	8,3	1	1	1	1	1	1	1	1	1	0	1	-5,778717	273,650098	312,176162	0
15.01.2021	23:02:28	0	0	2,485617	0,68025	322,5312	-0,07	87,585	0	1017,66	6,6	8,6	8,4	1	1	1	1	1	1	1	1	1	0	1	-8,668076	273,815546	310,056438	0
15.01.2021	23:02:29	0	0	2,937565	0,6765	322,9956	-0,069	87,582	0	1017,78	6,4	8,5	8,3	1	1	1	1	1	1	1	1	1	0	1	-6,20155	273,705577	312,01125	0
15.01.2021	23:02:30	0	0	4,632287	0,65625	324,0648	-0,07	87,569	0	1017,66	6,4	8,5	8,4	1	1	1	1	1	1	1	1	1	0	1	-5,708245	273,806726	312,975201	0
15.01.2021	23:02:31	0	0	4,067374	0,648	323,3448	-0,068	87,576	0	1017,64	6,4	8,6	8,4	1	1	1	1	1	1	1	1	1	0	1	-1,057082	273,679278	317,033433	0
15.01.2021	23:02:32	0	0	3,05053	0,63075	321,9624	-0,07	87,555	0	1017,62	6,4	8,6	8,4	1	1	1	1	1	1	1	1	1	0	1	-3,664553	273,660306	314,337771	0
15.01.2021	23:02:33	0	0	4,858252	0,6405	318,1788	-0,077	87,573	0	1017,42	6,4	8,5	8,4	1	1	1	1	1	1	1	1	1	0	1	-3,735025	273,819958	315,010031	0
15.01.2021	23:02:34	0	0	3,954391	0,6675	315,6012	-0,072	87,579	0	1017,62	6,4	8,5	8,4	1	1	1	1	1	1	1	1	1	0	1	-5,355884	273,731912	312,979405	0
15.01.2021	23:02:35	0	0	4,632314	0,693	315,2124	-0,071	87,583	0	1017,7	6,4	8,5	8,3	1	1	1	1	1	1	1	1	1	0	1	-4,298802	273,805256	314,377802	0
15.01.2021	23:02:36	0	0	3,163513	0,69225	321,7572	-0,068	87,574	0	1017,72	6,4	8,5	8,4	1	1	1	1	1	1	1	1	1	0	1	-2,959831	273,730448	315,368648	0
15.01.2021	23:02:37	0	0	3,954391	0,71775	314,5032	-0,072	87,558	0	1017,66	6,4	8,6	8,4	1	1	1	1	1	1	1	1	1	0	1	-9,44327	273,814076	309,274398	0
15.01.2021	23:02:38	0	0	4,745269	0,77325	303,624	-0,074	87,557	0	1017,64	6,4	8,5	8,4	1	1	1	1	1	1	1	1	1	0	1	-6,765328	273,803786	311,904434	0
15.01.2021	23:02:39	0	0	2,372635	0,783	302,4684	-0,069	87,571	0	1017,6	6,6	8,6	8,4	1	1	1	1	1	1	1	1	1	0	1	-7,399577	273,75975	311,065226	0
15.01.2021	23:02:40	0	0	2,711599	0,76875	301,5756	-0,073	87,569	0	1017,62	6,4	8,5	8,3	1	1	1	1	1	1	1	1	1	0	1	-4,298802	273,792033	314,316249	0
15.01.2021	23:02:41	0	0	2,711582	0,76575	306,1512	-0,075	87,565	0	1017,66	6,4	8,5	8,4	1	1	1	1	1	1	1	1	1	0	1	-6,412967	273,647183	311,528363	0
15.01.2021	23:02:42	0	0	5,084217	0,74625	318,1536	-0,067	87,575	0	1017,74	6,4	8,5	8,4	1	1	1	1	1	1	1	1	1	0	1	-6,8358	273,730448	311,492679	0
15.01.2021	23:02:43	0	0	2,485617	0,70425	326,6676	-0,074	87,572	0	1017,6	6,6	8,5	8,4	1	1	1	1	1	1	1	1	1	0	1	-2,325581	273,666142	315,703867	0
15.01.2021	23:02:44	0	0	3,728426	0,732	321,1164	-0,076	87,57	0	1017,62	6,5	8,5	8,4	1	1	1	1	1	1	1	1	1	0	1	-11,06413	273,808195	307,626159	0
15.01.2021	23:02:45	0	0	3,502482	0,774	305,766	-0,068	87,575	0	1017,76	6,4	8,5	8,3	1	1	1	1	1	1	1	1	1	0	1	-6,131078	273,770016	312,381498	0
15.01.2021	23:02:46	0	0	4,180381	0,81975	298,2996	-0,071	87,576	0	1017,64	6,5	8,5	8,3	1	1	1	1	1	1	1	1	1	0	1	-6,765328	273,641353	311,148909	0
15.01.2021	23:02:47	0	0	4,858252	0,86325	298,728	-0,07	87,585	0	1017,66	6,4	8,5	8,4	1	1	1	1	1	1	1	1	1	0	1	-4,651163	273,79644	313,9844	0
15.01.2021	23:02:48	0	0	3,841408	0,9315	302,4432	-0,068	87,566	0	1017,52	6,4	8,5	8,4	1	1	1	1	1	1	1	1	1	0	1	-3,735025	273,708501	314,491376	0
15.01.2021	23:02:49	0	0	2,711582	0,94575	300,4884	-0,069	87,56	0	1017,44	6,4	8,6	8,4	1	1	1	1	1	1	1	1	1	0	1	-5,21494	273,651556	312,746715	0
15.01.2021	23:02:50	0	0	3,163532	0,95025	293,0148	-0,07	87,583	0	1017,58	6,4	8,5	8,3	1	1	1	1	1	1	1	1	1	0	1	-3,382664	273,679278	314,707851	0
15.01.2021	23:02:51	0	0	4,632287	0,9675	296,6148	-0,075	87,557	0	1017,62	6,4	8,5	8,4	1	1	1	1	1	1	1	1	1	0	1	-3,664553	273,638439	314,236142	0
15.01.2021	23:02:52	0	0	3,615443	0,9855	309,2616	-0,071	87,555	0	1017,66	6,6	8,5	8,4	1	1	1	1	1	1	1	1	1	0	1	-4,087385	273,789096	314,513994	0
15.01.2021	23:02:53	0	0	3,615443	1,02	318,204	-0,073	87,571	0	1017,64	6,4	8,6	8,4	1	1	1	1	1	1	1	1	1	0	1	-3,735025	273,814076	314,982643	0
15.01.2021	23:02:54	0	0	4,406321	0,948	313,2108	-0,075	87,56	0	1017,7	6,4	8,5	8,4	1	1	1	1	1	1	1	1	1	0	1	-5,990134	273,783223	312,58391	0
15.01.2021	23:02:55	0	0	3,163532	0,858	306,2196	-0,071	87,573	0	1017,74	6,5	8,5	8,3	1	1	1	1	1	1	1	1	1	0	1	-3,59408	273,728984	314,727589	0
15.01.2021	23:02:56	0	0	3,728426	0,807	297,5292	-0,07	87,572	0	1017,4	6,4	8,6	8,4	1	1	1	1	1	1	1	1	1	0	1	-7,047216	273,814076	311,670451	0
15.01.2021	23:02:57	0	0	4,971234	0,78975	296,0964	-0,066	87,558	0	1017,64	6,4	8,6	8,4	1	1	1	1	1	1	1	1	1	0	1	-4,933051	273,727521	313,381809	0
15.01.2021	23:02:58	0	0	3,841408	0,75825	300,8916	-0,074	87,571	0	1017,74	6,4	8,5	8,4	1	1	1	1	1	1	1	1	1	0	1	-5,84919	273,653014	312,119242	0
15.01.2021	23:02:59	0	0	4,293339	0,67875	312,7788	-0,072	87,569	0	1017,56	6,4	8,5	8,4	1	1	1	1	1	1	1	1	1	0	1	-6,412967	273,787628	312,181578	0
15.01.2021	23:03:00	0	0	2,598615	0,6555	316,2708	-0,072	87,557	0	1017,4	6,5	8,5	8,3	1	1	1	1	1	1	1	1	1	0	1	-4,933051	273,714352	313,320556	0
15.01.2021	23:03:01	0	0	4,293339	0,57825	310,7124	-0,072	87,578	0	1017,58	6,4	8,5	8,4	1	1	1	1	1	1	1	1	1	0	1	-2,60747	273,806726	316,075976	0
15.01.2021	23:03:02	0	0	4,632287	0,53775	304,7076	-0,069	87,576	0	1017,72	6,4	8,5	8,4	1	1	1	1	1	1	1	1	1	0	1	-5,426357	273,768549	313,079393	0
15.01.2021	23:03:03	0	0	4,632287	0,4965	302,058	-0,069	87,574	0	1017,74	6,5	8,5	8,4	1	1	1	1	1	1	1	1	1	0	1	-4,510218	273,693884	313,648208	0
15.01.2021	23:03:04	0	0	5,762147	0,45825	305,5608	-0,07	87,576	0	1017,76	6,4	8,5	8,3	1	1	1	1	1	1	1	1	1	0	1	-1,973221	273,815546	316,751293	0
15.01.2021	23:03:05	0	0	4,406321	0,441	314,874	-0,074	87,565	0	1017,64	6,6	8,5	8,4	1	1	1	1	1	1	1	1	1	0	1	-7,188161	273,648641	310,759943	0
15.01.2021	23:03:06	0	0	4,406348	0,41775	325,1808	-0,073	87,551	0	1017,46	6,6	8,5	8,3	1	1	1	1	1	1	1	1	1	0	1	-9,231853	273,642811	308,689156	0
15.01.2021	23:03:07	0	0	2,824582	0,4155	334,386	-0,073	87,571	0	1017,64	6,4	8,5	8,3	1	1	1	1	1	1	1	1	1	0	1	-5,426357	273,690962	312,718483	0
15.01.2021	23:03:08	0	0	3,615443	0,456	340,6392	-0,072	87,577	0	1017,72	6,4	8,5	8,4	1	1	1	1	1	1	1	1	1	0	1	-6,906272	273,818487	311,831936	0
15.01.2021	23:03:09	0	0	3,841408	0,48975	342,108	-0,074	87,571	0	1017,68	6,4	8,6	8,4	1	1	1	1	1	1	1	1	1	0	1	-7,610994	273,784691	310,969883	0
15.01.2021	23:03:10	0	0	4,971234	0,531	331,128	-0,069	87,571	0	1017,66	6,4	8,5	8,4	1	1	1	1	1	1	1	1	1	0	1	-10,42988	273,77882	308,123669	0
15.01.2021	23:03:11	0	0	5,084217	0,60225	316,71	-0,067	87,558	0	1017,64	6,4	8,5	8,4	1	1	1	1	1	1	1	1	1	0	1	-5,003524	273,821429	313,748381	0
15.01.2021	23:03:12	0	0	3,05053	0,6765	318,0708	-0,071	87,578	0	1017,66	6,4	8,5	8,4	1	1	1	1	1	1	1	1	1	0	1	-7,117689	273,770016	311,394888	0
15.01.2021	23:03:13	0	0	4,745269	0,6915	321,768	-0,067	87,575	0	1017,72	6,6	8,6	8,4	1	1	1	1	1	1	1	1	1	0	1	-4,580691	273,834672	314,232881	0
15.01.2021	23:03:14	0	0	5,1972	0,74625	320,8284	-0,075	87,569	0	1017,72	6,6	8,5	8,4	1	1	1	1	1	1	1	1	1	0	1	-4,933051	273,75242	313,497647	0
15.01.2021	23:03:15	0	0	3,163513	0,7185	321,246	-0,071	87,558	0	1017,66	6,4	8,5	8,4	1	1	1	1	1	1	1	1	1	0	1	-8,315715	273,642811	309,605294	0
15.01.2021	23:03:16	0	0	2,5986	0,717	318,8232	-0,072	87,573	0	1017,6	6,4	8,5	8,4	1	1	1	1	1	1	1	1	1	0	1	-3,59408	273,682198	314,510012	0
15.01.2021	23:03:17	0	0	4,519331	0,66975	315,846	-0,071	87,576	0	1017,66	6,4	8,5	8,3	1	1	1	1	1	1	1	1	1	0	1	-3,735025	273,771483	314,784379	0
15.01.2021	23:03:18	0	0	4,858252	0,666	315,2304	-0,071	87,574	0	1017,68	6,4	8,6	8,4	1	1	1	1	1	1	1	1	1	0	1	-7,751938	273,802317	310,910983	0
15.01.2021	23:03:19	0	0	3,728426	0,65325	312,9444	-0,076	87,565	0	1017,72	6,4	8,5	8,4	1	1	1	1	1	1	1	1	1	0	1	-4,933051	273,696807	313,238965	0
15.01.2021	23:03:20	0	0	4,632287	0,6315	318,51	-0,08	87,56	0	1017,66	6,4	8,5	8,4	1	1	1	1	1	1	1	1	1	0	1	-2,184637	273,639896	315,722829	0
15.01.2021	23:03:21	0	0	4,293339	0,579	319,9716	-0,072	87,581	0	1017,62	6,4	8,6	8,4	1	1	1	1	1	1	1	1	1	0	1	-4,651163	273,758284	313,806818	0
15.01.2021	23:03:22	0	0	3,615443	0,53025	306,1656	-0,071	87,581	0	1017,7	6,4	8,6	8,4	1	1	1	1	1	1	1	1	1	0	1	-5,637773	273,828785	313,148385	0
15.01.2021	23:03:23	0	0	4,406321	0,5745	295,56	-0,073	87,575	0	1017,58	6,4	8,5	8,4	1	1	1	1	1	1	1	1	1	0	1	-7,82241	273,679278	310,268105	0
15.01.2021	23:03:24	0	0	2,259652	0,651	311,0508	-0,078	87,572	0	1017,6	6,4	8,5	8,4	1	1	1	1	1	1	1	1	1	0	1	-6,765328	273,828785	312,02083	0
15.01.2021	23:03:25	0	0	2,5986	0,7095	320,7564	-0,071	87,588	0	1017,6	6,4	8,6	8,4	1	1	1	1	1	1	1	1	1	0	1	-4,933051	273,683659	313,177831	0
15.01.2021	23:03:26	0	0	2,937565	0,7125	310,6656	-0,073	87,586	0	1017,74	6,6	8,5	8,3	1	1	1	1	1	1	1	1	1	0	1	-7,047216	273,767082	311,451707	0
15.01.2021	23:03:27	0	0	2,372635	0,69675	303,174	-0,075	87,573	0	1017,7	6,4	8,5	8,4	1	1	1	1	1	1	1	1	1	0	1	-7,117689	273,825842	311,654766	0
15.01.2021	23:03:28	0	0	2,937548	0,7005	315,2664	-0,077	87,579	0	1017,44	6,4	8,6	8,4	1	1	1	1	1	1	1	1	1	0	1	-4,439746	273,77882	314,113803	0
15.01.2021	23:03:29	0	0	3,050548	0,68625	323,3628	-0,076	87,585	0	1017,6	6,4	8,6	8,3	1	1	1	1	1	1	1	1	1	0	1	-9,020437	273,8332	309,78628	0
15.01.2021	23:03:30	0	0	3,05053	0,6795	314,856	-0,073	87,57	0	1017,82	6,5	8,5	8,4	1	1	1	1	1	1	1	1	1	0	1	-4,157858	273,77295	314,368374	0
15.01.2021	23:03:31	0	0	4,406348	0,681	305,3988	-0,073	87,582	0	1017,48	6,6	8,5	8,3	1	1	1	1	1	1	1	1	1	0	1	-7,540521	273,690962	310,604318	0
15.01.2021	23:03:32	0	0	5,084217	0,666	303,9048	-0,081	87,575	0	1017,58	6,4	8,5	8,4	1	1	1	1	1	1	1	1	1	0	1	-4,298802	273,799378	314,350439	0
15.01.2021	23:03:33	0	0	2,711582	0,6435	307,6092	-0,074	87,577	0	1017,62	6,4	8,6	8,4	1	1	1	1	1	1	1	1	1	0	1	-3,735025	273,748024	314,675219	0
15.01.2021	23:03:34	0	0	4,406321	0,60375	303,5484	-0,074	87,571	0	1017,62	6,4	8,6	8,4	1	1	1	1	1	1	1	1	1	0	1	-3,523608	273,828785	315,26255	0
15.01.2021	23:03:35	0	0	3,163532	0,5655	299,0052	-0,075	87,576	0	1017,52	6,4	8,5	8,3	1	1	1	1	1	1	1	1	1	0	1	-5,21494	273,692423	312,936693	0
15.01.2021	23:03:36	0	0	2,824582	0,561	308,5308	-0,071	87,582	0	1017,66	6,4	8,6	8,3	1	1	1	1	1	1	1	1	1	0	1	-6,694856	273,657389	311,293909	0
15.01.2021	23:03:37	0	0	3,954391	0,5475	321,0264	-0,066	87,576	0	1017,66	6,4	8,6	8,4	1	1	1	1	1	1	1	1	1	0	1	-7,117689	273,812606	311,593133	0
15.01.2021	23:03:38	0	0	4,180381	0,555	319,6224	-0,076	87,589	0	1017,6	6,4	8,5	8,3	1	1	1	1	1	1	1	1	1	0	1	-2,536998	273,673438	315,52637	0
15.01.2021	23:03:39	0	0	4,406348	0,5505	306,0828	-0,072	87,579	0	1017,62	6,6	8,5	8,3	1	1	1	1	1	1	1	1	1	0	1	-6,20155	273,806726	312,481896	0
15.01.2021	23:03:40	0	0	2,824565	0,5595	290,808	-0,072	87,574	0	1017,56	6,4	8,5	8,4	1	1	1	1	1	1	1	1	1	0	1	-0	273,685119	318,117672	0
15.01.2021	23:03:41	0	0	4,406321	0,60225	280,0152	-0,072	87,585	0	1017,82	6,6	8,5	8,4	1	1	1	1	1	1	1	1	1	0	1	-4,651163	273,805256	314,025441	0
15.01.2021	23:03:42	0	0	4,858252	0,59625	273,1896	-0,072	87,581	0	1017,46	6,6	8,6	8,4	1	1	1	1	1	1	1	1	1	0	1	-7,540521	273,806726	311,142925	0
15.01.2021	23:03:43	0	0	4,180381	0,6075	280,2348	-0,07	87,589	0	1017,62	6,4	8,5	8,3	1	1	1	1	1	1	1	1	1	0	1	-4,087385	273,758284	314,370596	0
15.01.2021	23:03:44	0	0	3,615465	0,5835	294,5016	-0,071	87,594	0	1017,42	6,4	8,5	8,3	1	1	1	1	1	1	1	1	1	0	1	-1,198027	273,648641	316,750077	0
15.01.2021	23:03:45	0	0	3,050548	0,561	312,5304	-0,076	87,575	0	1017,54	6,4	8,6	8,3	1	1	1	1	1	1	1	1	1	0	1	-3,59408	273,693884	314,564346	0
15.01.2021	23:03:46	0	0	2,485632	0,531	320,112	-0,073	87,587	0	1017,58	6,4	8,5	8,3	1	1	1	1	1	1	1	1	1	0	1	-7,540521	273,639896	310,366944	0
15.01.2021	23:03:47	0	0	3,389498	0,534	316,9296	-0,072	87,58	0	1017,8	6,4	8,6	8,3	1	1	1	1	1	1	1	1	1	0	1	-6,060606	273,799378	312,588635	0
15.01.2021	23:03:48	0	0	2,937548	0,5415	317,0124	-0,072	87,59	0	1017,64	6,4	8,5	8,4	1	1	1	1	1	1	1	1	1	0	1	-4,087385	273,654473	313,887823	0
15.01.2021	23:03:49	0	0	2,372649	0,53025	319,2516	-0,072	87,585	0	1017,74	6,4	8,5	8,3	1	1	1	1	1	1	1	1	1	0	1	-5,496829	273,827313	313,282477	0
15.01.2021	23:03:50	0	0	4,406321	0,54075	324,378	-0,071	87,587	0	1017,56	6,4	8,5	8,4	1	1	1	1	1	1	1	1	1	0	1	-4,862579	273,770016	313,649997	0
15.01.2021	23:03:51	0	0	5,084217	0,525	325,296	-0,071	87,59	0	1017,6	6,4	8,6	8,4	1	1	1	1	1	1	1	1	1	0	1	-4,157858	273,761216	314,313768	0
15.01.2021	23:03:52	0	0	3,502461	0,4935	315,54	-0,076	87,591	0	1017,56	6,4	8,5	8,4	1	1	1	1	1	1	1	1	1	0	1	-7,681466	273,671979	310,375117	0
15.01.2021	23:03:53	0	0	3,163513	0,483	309,888	-0,076	87,592	0	1017,7	6,4	8,6	8,4	1	1	1	1	1	1	1	1	1	0	1	-7,188161	273,705577	311,02464	0
15.01.2021	23:03:54	0	0	2,711582	0,495	308,0592	-0,071	87,587	0	1017,68	6,4	8,5	8,4	1	1	1	1	1	1	1	1	1	0	1	-3,523608	273,653014	314,444824	0
15.01.2021	23:03:55	0	0	5,084217	0,5235	308,8152	-0,071	87,59	0	1017,56	6,4	8,6	8,4	1	1	1	1	1	1	1	1	1	0	1	-6,8358	273,777352	311,710919	0
15.01.2021	23:03:56	0	0	4,745269	0,50925	314,0712	-0,067	87,602	0	1017,62	6,4	8,6	8,4	1	1	1	1	1	1	1	1	1	0	1	-1,338971	273,809665	317,358162	0
15.01.2021	23:03:57	0	0	4,519304	0,55875	318,4272	-0,076	87,591	0	1017,74	6,5	8,5	8,4	1	1	1	1	1	1	1	1	1	0	1	-2,889359	273,653014	315,079073	0
15.01.2021	23:03:58	0	0	3,954391	0,54525	319,2012	-0,074	87,569	0	1017,52	6,4	8,6	8,4	1	1	1	1	1	1	1	1	1	0	1	-5,708245	273,770016	312,804331	0
15.01.2021	23:03:59	0	0	2,033687	0,58125	316,35	-0,071	87,598	0	1017,64	6,6	8,5	8,4	1	1	1	1	1	1	1	1	1	0	1	-5,073996	273,8229	313,684758	0
15.01.2021	23:04:00	0	0	3,276495	0,5865	320,004	-0,07	87,576	0	1017,46	6,4	8,5	8,4	1	1	1	1	1	1	1	1	1	0	1	-6,624383	273,743629	311,76541	0
15.01.2021	23:04:01	0	0	3,276495	0,5865	320,004	-0,07	87,576	0	1017,46	6,4	8,5	8,4	1	1	1	1	1	1	1	1	1	0	1	-3,030303	273,647183	314,911026	0
15.01.2021	23:04:02	0	0	2,937548	0,5835	322,6464	-0,071	87,58	0	1017,52	6,4	8,6	8,4	1	1	1	1	1	1	1	1	1	0	1	-4,721635	273,658848	313,273909	0
15.01.2021	23:04:03	0	0	3,954391	0,5865	321,8868	-0,072	87,59	0	1017,64	6,4	8,5	8,4	1	1	1	1	1	1	1	1	1	0	1	-6,624383	273,814076	312,093284	0
15.01.2021	23:04:04	0	0	4,519304	0,58875	321,4836	-0,071	87,59	0	1017,56	6,4	8,6	8,4	1	1	1	1	1	1	1	1	1	0	1	-8,104299	273,79644	310,531264	0
15.01.2021	23:04:05	0	0	4,180356	0,5895	323,7228	-0,076	87,593	0	1017,6	6,4	8,5	8,4	1	1	1	1	1	1	1	1	1	0	1	-0,704722	273,767082	317,794202	0
15.01.2021	23:04:06	0	0	3,728426	0,585	325,1268	-0,072	87,588	0	1017,74	6,5	8,6	8,4	1	1	1	1	1	1	1	1	1	0	1	-6,624383	273,809665	312,072749	0
15.01.2021	23:04:07	0	0	3,502461	0,60975	323,3916	-0,073	87,593	0	1017,6	6,4	8,6	8,4	1	1	1	1	1	1	1	1	1	0	1	-3,805497	273,77882	314,748052	0
15.01.2021	23:04:08	0	0	3,163513	0,62175	322,5636	-0,068	87,595	0	1017,68	6,4	8,6	8,4	1	1	1	1	1	1	1	1	1	0	1	-3,59408	273,720203	314,686745	0
15.01.2021	23:04:09	0	0	3,502482	0,60675	324,4104	-0,071	87,593	0	1017,66	6,4	8,6	8,3	1	1	1	1	1	1	1	1	1	0	1	-3,523608	273,628243	314,329708	0
15.01.2021	23:04:10	0	0	4,519304	0,65475	321,8724	-0,071	87,593	0	1017,68	6,4	8,5	8,4	1	1	1	1	1	1	1	1	1	0	1	-5,355884	273,677818	312,727843	0
15.01.2021	23:04:11	0	0	4,858252	0,65475	319,2444	-0,076	87,588	0	1017,68	6,5	8,5	8,4	1	1	1	1	1	1	1	1	1	0	1	-4,298802	273,689501	313,839245	0
15.01.2021	23:04:12	0	0	3,728426	0,67875	318,3768	-0,075	87,58	0	1017,4	6,4	8,5	8,4	1	1	1	1	1	1	1	1	1	0	1	-4,792107	273,8229	313,966647	0
15.01.2021	23:04:13	0	0	3,502461	0,68475	315,1692	-0,074	87,576	0	1017,6	6,4	8,5	8,4	1	1	1	1	1	1	1	1	1	0	1	-8,104299	273,715814	310,156112	0
15.01.2021	23:04:14	0	0	4,293365	0,642	315,4752	-0,073	87,603	0	1017,66	6,4	8,6	8,3	1	1	1	1	1	1	1	1	1	0	1	-9,936575	273,824371	308,829029	0
15.01.2021	23:04:15	0	0	4,180356	0,6525	314,9676	-0,075	87,591	0	1017,86	6,4	8,5	8,4	1	1	1	1	1	1	1	1	1	0	1	-4,439746	273,746559	313,96368	0
15.01.2021	23:04:16	0	0	4,406321	0,67275	311,7564	-0,076	87,606	0	1017,64	6,4	8,6	8,4	1	1	1	1	1	1	1	1	1	0	1	-10,782241	273,636982	307,111683	0
15.01.2021	23:04:17	0	0	4,180356	0,6555	311,76	-0,062	87,583	0	1017,64	6,4	8,6	8,4	1	1	1	1	1	1	1	1	1	0	1	-9,231853	273,77882	309,321696	0
15.01.2021	23:04:18	0	0	3,728448	0,6525	312,1452	-0,072	87,572	0	1017,64	6,4	8,5	8,3	1	1	1	1	1	1	1	1	1	0	1	-7,399577	273,69973	310,786032	0
15.01.2021	23:04:19	0	0	4,293365	0,66075	310,9644	-0,072	87,586	0	1017,68	6,4	8,6	8,3	1	1	1	1	1	1	1	1	1	0	1	-5,144468	273,817017	313,586893	0
15.01.2021	23:04:20	0	0	3,050548	0,645	310,2984	-0,08	87,587	0	1017,46	6,4	8,5	8,3	1	1	1	1	1	1	1	1	1	0	1	-9,795631	273,705577	308,41717	0
15.01.2021	23:04:21	0	0	3,05053	0,657	311,7132	-0,075	87,591	0	1017,68	6,5	8,5	8,4	1	1	1	1	1	1	1	1	1	0	1	-11,275546	273,8229	307,483208	0
15.01.2021	23:04:22	0	0	2,711599	0,675	317,376	-0,07	87,577	0	1017,56	6,5	8,6	8,3	1	1	1	1	1	1	1	1	1	0	1	-7,188161	273,77882	311,365388	0
15.01.2021	23:04:23	0	0	3,728426	0,72975	321,4404	-0,076	87,59	0	1017,6	6,6	8,6	8,4	1	1	1	1	1	1	1	1	1	0	1	-4,157858	273,647183	313,783472	0
15.01.2021	23:04:24	0	0	3,502461	0,7185	316,6524	-0,068	87,593	0	1017,76	6,6	8,6	8,4	1	1	1	1	1	1	1	1	1	0	1	-4,087385	273,651556	313,87427	0
15.01.2021	23:04:25	0	0	2,824582	0,69975	312,4044	-0,079	87,591	0	1017,58	6,4	8,6	8,3	1	1	1	1	1	1	1	1	1	0	1	-4,792107	273,730448	313,536372	0
15.01.2021	23:04:26	0	0	4,519304	0,71625	312,2064	-0,072	87,578	0	1017,64	6,4	8,6	8,4	1	1	1	1	1	1	1	1	1	0	1	-5,003524	273,655931	312,978463	0
15.01.2021	23:04:27	0	0	4,632314	0,72675	311,724	-0,072	87,585	0	1017,7	6,4	8,5	8,3	1	1	1	1	1	1	1	1	1	0	1	-8,527132	273,828785	310,259026	0
15.01.2021	23:04:28	0	0	3,276515	0,73425	309,9852	-0,072	87,592	0	1017,76	6,4	8,6	8,3	1	1	1	1	1	1	1	1	1	0	1	-6,624383	273,689501	311,513663	0
15.01.2021	23:04:29	0	0	3,163513	0,69975	310,3128	-0,073	87,592	0	1017,74	6,6	8,5	8,4	1	1	1	1	1	1	1	1	1	0	1	-6,342495	273,762683	312,135955	0
15.01.2021	23:04:30	0	0	2,372635	0,7005	311,0076	-0,07	87,593	0	1017,58	6,6	8,6	8,4	1	1	1	1	1	1	1	1	1	0	1	-6,060606	273,645725	311,873949	0
15.01.2021	23:04:31	0	0	4,632314	0,6495	311,364	-0,073	87,587	0	1017,62	6,4	8,5	8,3	1	1	1	1	1	1	1	1	1	0	1	-10,218464	273,815546	308,50605	0
15.01.2021	23:04:32	0	0	4,858252	0,648	312,4584	-0,075	87,56	0	1017,42	6,5	8,6	8,4	1	1	1	1	1	1	1	1	1	0	1	-5,84919	273,73777	312,513347	0
15.01.2021	23:04:33	0	0	2,485632	0,6225	318,438	-0,071	87,592	0	1017,76	6,4	8,5	8,3	1	1	1	1	1	1	1	1	1	0	1	-3,875969	273,674898	314,194185	0
15.01.2021	23:04:34	0	0	5,536181	0,64275	321,1848	-0,072	87,596	0	1017,68	6,5	8,6	8,3	1	1	1	1	1	1	1	1	1	0	1	-8,033827	273,784691	310,54705	0
15.01.2021	23:04:35	0	0	3,276495	0,64725	304,9596	-0,073	87,597	0	1017,8	6,4	8,5	8,4	1	1	1	1	1	1	1	1	1	0	1	-4,369274	273,635525	313,517881	0
15.01.2021	23:04:36	0	0	2,5986	0,651	297,2412	-0,068	87,592	0	1017,7	6,4	8,6	8,4	1	1	1	1	1	1	1	1	1	0	1	-7,258633	273,667601	310,777598	0
15.01.2021	23:04:37	0	0	3,389498	0,65025	302,904	-0,075	87,578	0	1017,62	6,4	8,5	8,3	1	1	1	1	1	1	1	1	1	0	1	-7,82241	273,715814	310,438001	0
15.01.2021	23:04:38	0	0	4,519331	0,65925	311,7672	-0,074	87,594	0	1017,66	6,4	8,6	8,3	1	1	1	1	1	1	1	1	1	0	1	-3,453136	273,642811	314,467873	0
15.01.2021	23:04:39	0	0	3,05053	0,61875	312,102	-0,073	87,583	0	1017,6	6,4	8,6	8,4	1	1	1	1	1	1	1	1	1	0	1	-8,949965	273,654473	309,025244	0
15.01.2021	23:04:40	0	0	4,745269	0,59625	306,8244	-0,071	87,581	0	1017,66	6,4	8,5	8,4	1	1	1	1	1	1	1	1	1	0	1	-6,694856	273,764149	311,790418	0
15.01.2021	23:04:41	0	0	4,745298	0,555	303,3576	-0,073	87,579	0	1017,44	6,6	8,6	8,3	1	1	1	1	1	1	1	1	1	0	1	-6,483439	273,824371	312,282165	0
15.01.2021	23:04:42	0	0	4,632314	0,5685	300,8376	-0,073	87,579	0	1017,64	6,6	8,5	8,3	1	1	1	1	1	1	1	1	1	0	1	-5,708245	273,777352	312,838473	0
15.01.2021	23:04:43	0	0	4,632314	0,552	300,8772	-0,071	87,593	0	1017,62	6,4	8,6	8,3	1	1	1	1	1	1	1	1	1	0	1	-7,047216	273,685119	311,070456	0
15.01.2021	23:04:44	0	0	4,067398	0,51975	302,4648	-0,076	87,572	0	1017,62	6,4	8,6	8,3	1	1	1	1	1	1	1	1	1	0	1	-5,21494	273,825842	313,557515	0
15.01.2021	23:04:45	0	0	4,632314	0,492	302,5656	-0,076	87,575	0	1017,64	6,5	8,5	8,3	1	1	1	1	1	1	1	1	1	0	1	-7,258633	273,690962	310,886207	0
15.01.2021	23:04:46	0	0	4,067374	0,486	302,454	-0,077	87,586	0	1017,6	6,4	8,6	8,4	1	1	1	1	1	1	1	1	1	0	1	-3,59408	273,645725	314,340475	0
15.01.2021	23:04:47	0	0	3,841431	0,4995	304,2648	-0,073	87,581	0	1017,64	6,4	8,6	8,3	1	1	1	1	1	1	1	1	1	0	1	-9,231853	273,690962	308,912986	0
15.01.2021	23:04:48	0	0	4,406348	0,51525	307,6452	-0,07	87,581	0	1017,64	6,5	8,5	8,3	1	1	1	1	1	1	1	1	1	0	1	-4,087385	273,758284	314,370596	0
15.01.2021	23:04:49	0	0	2,485632	0,534	308,3292	-0,073	87,585	0	1017,72	6,4	8,5	8,3	1	1	1	1	1	1	1	1	1	0	1	-3,453136	273,642811	314,467873	0
15.01.2021	23:04:50	0	0	4,632287	0,5835	306,4068	-0,074	87,597	0	1017,58	6,4	8,6	8,4	1	1	1	1	1	1	1	1	1	0	1	-0,916138	273,783223	317,657906	0
15.01.2021	23:04:51	0	0	4,858252	0,5565	306,4212	-0,071	87,586	0	1017,62	6,4	8,6	8,4	1	1	1	1	1	1	1	1	1	0	1	-5,567301	273,746559	312,836125	0
15.01.2021	23:04:52	0	0	3,728426	0,567	307,4508	-0,069	87,588	0	1017,64	6,4	8,6	8,4	1	1	1	1	1	1	1	1	1	0	1	-10,218464	273,636982	307,675461	0
15.01.2021	23:04:53	0	0	3,05053	0,55125	308,8404	-0,069	87,592	0	1017,56	6,4	8,6	8,4	1	1	1	1	1	1	1	1	1	0	1	-5,355884	273,727521	312,958976	0
15.01.2021	23:04:54	0	0	3,841431	0,5775	310,3344	-0,078	87,58	0	1017,56	6,4	8,6	8,3	1	1	1	1	1	1	1	1	1	0	1	-7,470049	273,808195	311,22024	0
15.01.2021	23:04:55	0	0	4,858281	0,555	307,5624	-0,071	87,595	0	1017,72	6,4	8,5	8,3	1	1	1	1	1	1	1	1	1	0	1	-6,20155	273,743629	312,188243	0
15.01.2021	23:04:56	0	0	3,728426	0,59175	303,5412	-0,071	87,579	0	1017,56	6,4	8,6	8,4	1	1	1	1	1	1	1	1	1	0	1	-9,795631	273,78616	308,79208	0
15.01.2021	23:04:57	0	0	3,050548	0,61275	303,534	-0,073	87,566	0	1017,58	6,4	8,6	8,3	1	1	1	1	1	1	1	1	1	0	1	-5,778717	273,663224	312,237167	0
15.01.2021	23:04:58	0	0	3,728448	0,594	306,8316	-0,068	87,588	0	1017,82	6,4	8,5	8,3	1	1	1	1	1	1	1	1	1	0	1	-9,584214	273,654473	308,390995	0
15.01.2021	23:04:59	0	0	3,954391	0,591	306,8928	-0,069	87,588	0	1017,64	6,4	8,6	8,4	1	1	1	1	1	1	1	1	1	0	1	-6,8358	273,819958	311,909256	0
15.01.2021	23:05:00	0	0	4,745298	0,585	305,334	-0,073	87,586	0	1017,64	6,4	8,6	8,3	1	1	1	1	1	1	1	1	1	0	1	-5,073996	273,777352	313,472723	0
15.01.2021	23:05:01	0	0	2,711599	0,56325	302,4648	-0,07	87,583	0	1017,7	6,4	8,5	8,3	1	1	1	1	1	1	1	1	1	0	1	-4,298802	273,821429	314,453103	0
15.01.2021	23:05:02	0	0	4,406348	0,567	299,0484	-0,073	87,583	0	1017,38	6,6	8,6	8,3	1	1	1	1	1	1	1	1	1	0	1	-3,875969	273,780288	314,684411	0
15.01.2021	23:05:03	0	0	4,632287	0,5805	299,4804	-0,074	87,588	0	1017,66	6,4	8,6	8,4	1	1	1	1	1	1	1	1	1	0	1	-6,272023	273,660306	311,730301	0
15.01.2021	23:05:04	0	0	4,406321	0,5565	301,2588	-0,071	87,569	0	1017,54	6,4	8,6	8,4	1	1	1	1	1	1	1	1	1	0	1	-8,104299	273,814076	310,613369	0
15.01.2021	23:05:05	0	0	4,745269	0,57675	301,554	-0,07	87,58	0	1017,58	6,4	8,5	8,4	1	1	1	1	1	1	1	1	1	0	1	-7,329105	273,784691	311,251772	0
15.01.2021	23:05:06	0	0	2,372635	0,5955	300,3948	-0,069	87,589	0	1017,8	6,4	8,6	8,4	1	1	1	1	1	1	1	1	1	0	1	-8,527132	273,749489	309,889929	0
15.01.2021	23:05:07	0	0	3,615465	0,603	304,6896	-0,071	87,577	0	1017,8	6,4	8,5	8,3	1	1	1	1	1	1	1	1	1	0	1	-14,023961	273,639896	303,883505	0
15.01.2021	23:05:08	0	0	3,728448	0,63	312,1884	-0,067	87,584	0	1017,5	6,4	8,5	8,3	1	1	1	1	1	1	1	1	1	0	1	-5,990134	273,714352	312,263474	0
15.01.2021	23:05:09	0	0	3,502482	0,60975	308,124	-0,07	87,588	0	1017,84	6,4	8,6	8,3	1	1	1	1	1	1	1	1	1	0	1	-2,959831	273,805256	315,716773	0
15.01.2021	23:05:10	0	0	2,5986	0,57975	302,2704	-0,067	87,6	0	1017,72	6,5	8,5	8,4	1	1	1	1	1	1	1	1	1	0	1	-7,329105	273,68658	310,795358	0
15.01.2021	23:05:11	0	0	3,728426	0,54975	300,5316	-0,069	87,599	0	1017,58	6,4	8,6	8,4	1	1	1	1	1	1	1	1	1	0	1	-6,272023	273,701191	311,920383	0
15.01.2021	23:05:12	0	0	4,519331	0,58875	297,2844	-0,067	87,603	0	1017,7	6,4	8,5	8,3	1	1	1	1	1	1	1	1	1	0	1	-7,963354	273,639896	309,944111	0
15.01.2021	23:05:13	0	0	3,276515	0,6225	288,828	-0,068	87,593	0	1017,68	6,4	8,6	8,3	1	1	1	1	1	1	1	1	1	0	1	-4,298802	273,664683	313,723864	0
15.01.2021	23:05:14	0	0	4,180381	0,59025	291,492	-0,074	87,592	0	1017,52	6,5	8,6	8,3	1	1	1	1	1	1	1	1	1	0	1	-2,677942	273,645725	315,256613	0
15.01.2021	23:05:15	0	0	3,050548	0,5655	296,5392	-0,072	87,578	0	1017,68	6,5	8,6	8,3	1	1	1	1	1	1	1	1	1	0	1	-5,637773	273,639896	312,269693	0
15.01.2021	23:05:16	0	0	4,85831	0,516	296,1108	-0,071	87,592	0	1017,72	6,4	8,6	8,2	1	1	1	1	1	1	1	1	1	0	1	-2,466526	273,753886	315,970993	0
15.01.2021	23:05:17	0	0	2,485632	0,49725	286,7076	-0,069	87,593	0	1017,82	6,4	8,6	8,3	1	1	1	1	1	1	1	1	1	0	1	-2,043693	273,809665	316,65344	0
15.01.2021	23:05:18	0	0	3,728426	0,48375	274,0356	-0,075	87,6	0	1017,46	6,4	8,6	8,4	1	1	1	1	1	1	1	1	1	0	1	-7,258633	273,821429	311,493272	0
15.01.2021	23:05:19	0	0	3,502482	0,4905	263,934	-0,064	87,603	0	1017,62	6,4	8,6	8,3	1	1	1	1	1	1	1	1	1	0	1	-2,889359	273,701191	315,303047	0
15.01.2021	23:05:20	0	0	4,519331	0,4965	268,8408	-0,065	87,594	0	1017,56	6,4	8,5	8,3	1	1	1	1	1	1	1	1	1	0	1	-3,100775	273,821429	315,65113	0
15.01.2021	23:05:21	0	0	5,197231	0,5145	282,1212	-0,072	87,59	0	1017,78	6,4	8,6	8,3	1	1	1	1	1	1	1	1	1	0	1	-5,355884	273,712889	312,890921	0
15.01.2021	23:05:22	0	0	2,598615	0,50325	293,4252	-0,068	87,597	0	1017,7	6,4	8,6	8,3	1	1	1	1	1	1	1	1	1	0	1	-4,933051	273,753886	313,504467	0
15.01.2021	23:05:23	0	0	2,598615	0,5595	297,972	-0,073	87,598	0	1017,62	6,4	8,6	8,3	1	1	1	1	1	1	1	1	1	0	1	-5,144468	273,825842	313,627987	0
15.01.2021	23:05:24	0	0	4,067398	0,5535	288,4788	-0,062	87,601	0	1017,66	6,4	8,6	8,3	1	1	1	1	1	1	1	1	1	0	1	-4,439746	273,740699	313,936418	0
15.01.2021	23:05:25	0	0	3,841408	0,5775	279,2484	-0,069	87,593	0	1017,62	6,4	8,6	8,4	1	1	1	1	1	1	1	1	1	0	1	-3,664553	273,812606	315,046269	0
15.01.2021	23:05:26	0	0	2,711582	0,5775	279,2016	-0,068	87,602	0	1017,52	6,4	8,6	8,4	1	1	1	1	1	1	1	1	1	0	1	-7,610994	273,715814	310,649417	0
15.01.2021	23:05:27	0	0	4,293339	0,582	282,4488	-0,069	87,619	0	1017,56	6,4	8,5	8,4	1	1	1	1	1	1	1	1	1	0	1	-5,708245	273,811135	312,995732	0
15.01.2021	23:05:28	0	0	3,276515	0,59175	290,4876	-0,069	87,582	0	1017,5	6,4	8,6	8,3	1	1	1	1	1	1	1	1	1	0	1	-0,352361	273,660306	317,649963	0
15.01.2021	23:05:29	0	0	3,502482	0,5655	293,7132	-0,071	87,595	0	1017,54	6,5	8,6	8,3	1	1	1	1	1	1	1	1	1	0	1	-8,386187	273,702653	309,813016	0
15.01.2021	23:05:30	0	0	2,824582	0,54225	289,1808	-0,071	87,601	0	1017,74	6,4	8,6	8,3	1	1	1	1	1	1	1	1	1	0	1	-6,624383	273,705577	311,588417	0
15.01.2021	23:05:31	0	0	3,728448	0,54375	281,0124	-0,069	87,615	0	1017,7	6,4	8,5	8,3	1	1	1	1	1	1	1	1	1	0	1	-3,523608	273,720203	314,757217	0
15.01.2021	23:05:32	0	0	2,824582	0,5175	275,7852	-0,07	87,596	0	1017,7	6,4	8,6	8,3	1	1	1	1	1	1	1	1	1	0	1	-5,567301	273,647183	312,374029	0
15.01.2021	23:05:33	0	0	4,745298	0,5295	272,61	-0,075	87,593	0	1017,56	6,4	8,5	8,3	1	1	1	1	1	1	1	1	1	0	1	-9,020437	273,77882	309,533112	0
15.01.2021	23:05:34	0	0	4,858281	0,513	272,8764	-0,071	87,582	0	1017,44	6,4	8,6	8,3	1	1	1	1	1	1	1	1	1	0	1	-9,654686	273,693884	308,50374	0
15.01.2021	23:05:35	0	0	3,954391	0,501	275,4468	-0,067	87,602	0	1017,78	6,4	8,5	8,4	1	1	1	1	1	1	1	1	1	0	1	-8,245243	273,809665	310,45189	0
15.01.2021	23:05:36	0	0	4,406348	0,5265	277,2576	-0,073	87,592	0	1017,62	6,6	8,6	8,3	1	1	1	1	1	1	1	1	1	0	1	-6,131078	273,711426	312,108925	0
15.01.2021	23:05:37	0	0	2,824565	0,501	278,082	-0,068	87,605	0	1017,74	6,6	8,6	8,4	1	1	1	1	1	1	1	1	1	0	1	-5,355884	273,819958	313,389172	0
15.01.2021	23:05:38	0	0	3,163532	0,54	279,252	-0,07	87,585	0	1017,62	6,4	8,6	8,3	1	1	1	1	1	1	1	1	1	0	1	-7,258633	273,731912	311,076656	0
15.01.2021	23:05:39	0	0	3,615443	0,57675	278,8092	-0,067	87,572	0	1017,58	6,5	8,6	8,4	1	1	1	1	1	1	1	1	1	0	1	-5,84919	273,647183	312,09214	0
15.01.2021	23:05:40	0	0	3,615465	0,63525	282,8808	-0,071	87,596	0	1017,62	6,4	8,5	8,3	1	1	1	1	1	1	1	1	1	0	1	-7,470049	273,800847	311,186031	0
15.01.2021	23:05:41	0	0	3,502482	0,675	286,596	-0,072	87,605	0	1017,58	6,4	8,6	8,3	1	1	1	1	1	1	1	1	1	0	1	-3,523608	273,758284	314,934373	0
15.01.2021	23:05:42	0	0	3,050548	0,6885	286,686	-0,067	87,591	0	1017,48	6,4	8,6	8,3	1	1	1	1	1	1	1	1	1	0	1	-4,862579	273,8229	313,896175	0
15.01.2021	23:05:43	0	0	3,728426	0,726	285,9696	-0,066	87,601	0	1017,78	6,4	8,6	8,4	1	1	1	1	1	1	1	1	1	0	1	-6,906272	273,666142	311,123176	0
15.01.2021	23:05:44	0	0	3,728426	0,7335	286,6536	-0,069	87,588	0	1017,6	6,4	8,6	8,4	1	1	1	1	1	1	1	1	1	0	1	-8,104299	273,814076	310,613369	0
15.01.2021	23:05:45	0	0	4,067374	0,73425	285,5304	-0,069	87,597	0	1017,7	6,4	8,6	8,4	1	1	1	1	1	1	1	1	1	0	1	-5,355884	273,755352	313,088454	0
15.01.2021	23:05:46	0	0	3,728426	0,732	284,13	-0,067	87,588	0	1017,68	6,4	8,6	8,4	1	1	1	1	1	1	1	1	1	0	1	-7,681466	273,632612	310,192151	0
15.01.2021	23:05:47	0	0	3,05053	0,69975	282,834	-0,069	87,59	0	1017,58	6,4	8,5	8,4	1	1	1	1	1	1	1	1	1	0	1	-2,043693	273,667601	315,992538	0
15.01.2021	23:05:48	0	0	2,372649	0,69075	280,404	-0,066	87,597	0	1017,64	6,4	8,6	8,3	1	1	1	1	1	1	1	1	1	0	1	-4,862579	273,75975	313,602224	0
15.01.2021	23:05:49	0	0	3,163532	0,68925	281,4012	-0,068	87,583	0	1017,62	6,4	8,6	8,3	1	1	1	1	1	1	1	1	1	0	1	-4,016913	273,626787	313,829636	0
15.01.2021	23:05:50	0	0	3,389478	0,70275	288,8496	-0,071	87,599	0	1017,76	6,5	8,6	8,4	1	1	1	1	1	1	1	1	1	0	1	-6,272023	273,647183	311,669307	0
15.01.2021	23:05:51	0	0	3,389498	0,76875	295,6752	-0,069	87,588	0	1017,62	6,4	8,6	8,3	1	1	1	1	1	1	1	1	1	0	1	-7,610994	273,664683	310,411672	0
15.01.2021	23:05:52	0	0	4,293365	0,8265	301,1976	-0,068	87,593	0	1017,66	6,4	8,6	8,3	1	1	1	1	1	1	1	1	1	0	1	-5,637773	273,78616	312,949937	0
15.01.2021	23:05:53	0	0	3,841408	0,84975	300,8952	-0,068	87,587	0	1017,62	6,4	8,6	8,4	1	1	1	1	1	1	1	1	1	0	1	-5,637773	273,636982	312,256151	0
15.01.2021	23:05:54	0	0	5,084217	0,849	297,6336	-0,07	87,573	0	1017,62	6,4	8,6	8,4	1	1	1	1	1	1	1	1	1	0	1	-8,668076	273,704115	309,537926	0
15.01.2021	23:05:55	0	0	4,293365	0,858	298,6632	-0,069	87,588	0	1017,6	6,6	8,6	8,3	1	1	1	1	1	1	1	1	1	0	1	-4,651163	273,770016	313,861413	0
15.01.2021	23:05:56	0	0	2,937565	0,86475	299,9484	-0,069	87,586	0	1017,7	6,6	8,6	8,3	1	1	1	1	1	1	1	1	1	0	1	-8,174771	273,811135	310,529206	0
15.01.2021	23:05:57	0	0	3,954391	0,825	294,4584	-0,065	87,588	0	1017,52	6,4	8,5	8,4	1	1	1	1	1	1	1	1	1	0	1	-13,460183	273,758284	304,997798	0
15.01.2021	23:05:58	0	0	4,406348	0,8115	303,1956	-0,069	87,588	0	1017,52	6,5	8,6	8,3	1	1	1	1	1	1	1	1	1	0	1	-5,637773	273,628243	312,215543	0
15.01.2021	23:05:59	0	0	5,310182	0,78975	309,2004	-0,075	87,584	0	1017,68	6,4	8,6	8,4	1	1	1	1	1	1	1	1	1	0	1	-5,426357	273,671979	312,630226	0
15.01.2021	23:06:00	0	0	2,598615	0,78225	305,4204	-0,069	87,586	0	1017,64	6,4	8,6	8,3	1	1	1	1	1	1	1	1	1	0	1	-6,412967	273,664683	311,609699	0
15.01.2021	23:06:01	0	0	4,519331	0,77175	303,8904	-0,068	87,592	0	1017,62	6,4	8,5	8,3	1	1	1	1	1	1	1	1	1	0	1	-3,171247	273,634069	314,709138	0
15.01.2021	23:06:02	0	0	2,598615	0,804	306,1584	-0,065	87,579	0	1017,6	6,6	8,6	8,3	1	1	1	1	1	1	1	1	1	0	1	-6,483439	273,708501	311,742962	0
15.01.2021	23:06:03	0	0	4,406321	0,78675	306,8532	-0,065	87,601	0	1017,72	6,4	8,6	8,4	1	1	1	1	1	1	1	1	1	0	1	-8,45666	273,806726	310,226787	0
15.01.2021	23:06:04	0	0	5,310214	0,77775	305,01	-0,069	87,582	0	1017,62	6,4	8,6	8,3	1	1	1	1	1	1	1	1	1	0	1	-6,765328	273,724593	311,535917	0
15.01.2021	23:06:05	0	0	2,824565	0,75375	305,7552	-0,071	87,59	0	1017,76	6,6	8,6	8,4	1	1	1	1	1	1	1	1	1	0	1	-6,412967	273,805256	312,263637	0
15.01.2021	23:06:06	0	0	3,163513	0,75	306,8568	-0,07	87,577	0	1017,6	6,4	8,6	8,4	1	1	1	1	1	1	1	1	1	0	1	-7,329105	273,660306	310,673219	0
15.01.2021	23:06:07	0	0	4,745298	0,765	303,4692	-0,069	87,59	0	1017,74	6,4	8,6	8,3	1	1	1	1	1	1	1	1	1	0	1	-4,792107	273,715814	313,468304	0
15.01.2021	23:06:08	0	0	3,954415	0,75525	298,2924	-0,066	87,574	0	1017,74	6,4	8,6	8,3	1	1	1	1	1	1	1	1	1	0	1	-4,651163	273,615142	313,141282	0
15.01.2021	23:06:09	0	0	4,858281	0,7635	296,4276	-0,075	87,567	0	1017,54	6,4	8,6	8,3	1	1	1	1	1	1	1	1	1	0	1	-5,990134	273,758284	312,467847	0
15.01.2021	23:06:10	0	0	2,711599	0,75	298,9944	-0,072	87,571	0	1017,44	6,4	8,6	8,3	1	1	1	1	1	1	1	1	1	0	1	-6,624383	273,671979	311,432199	0
15.01.2021	23:06:11	0	0	3,615465	0,78	299,4012	-0,067	87,589	0	1017,6	6,6	8,5	8,3	1	1	1	1	1	1	1	1	1	0	1	-7,329105	273,761216	311,142521	0
15.01.2021	23:06:12	0	0	2,711599	0,79725	294,7788	-0,062	87,583	0	1017,56	6,5	8,5	8,3	1	1	1	1	1	1	1	1	1	0	1	-7,892882	273,817017	310,838478	0
15.01.2021	23:06:13	0	0	2,937548	0,81975	290,7864	-0,059	87,594	0	1017,46	6,5	8,5	8,4	1	1	1	1	1	1	1	1	1	0	1	-5,919662	273,673438	312,143706	0
15.01.2021	23:06:14	0	0	3,276515	0,85575	293,7672	-0,07	87,591	0	1017,56	6,4	8,5	8,3	1	1	1	1	1	1	1	1	1	0	1	-5,990134	273,650098	311,964745	0
15.01.2021	23:06:15	0	0	4,745269	0,89775	295,1568	-0,064	87,587	0	1017,54	6,4	8,6	8,4	1	1	1	1	1	1	1	1	1	0	1	-2,889359	273,802317	315,773562	0
15.01.2021	23:06:16	0	0	2,824565	0,89175	299,7972	-0,063	87,588	0	1017,5	6,4	8,6	8,4	1	1	1	1	1	1	1	1	1	0	1	-6,765328	273,635525	311,121827	0
15.01.2021	23:06:17	0	0	4,519331	0,89925	305,3088	-0,068	87,585	0	1017,7	6,4	8,5	8,3	1	1	1	1	1	1	1	1	1	0	1	-7,470049	273,648641	310,478055	0
15.01.2021	23:06:18	0	0	2,711599	0,90225	303,84	-0,069	87,589	0	1017,64	6,4	8,6	8,3	1	1	1	1	1	1	1	1	1	0	1	-4,721635	273,696807	313,450382	0
15.01.2021	23:06:19	0	0	2,598615	0,94125	304,308	-0,067	87,576	0	1017,72	6,5	8,6	8,3	1	1	1	1	1	1	1	1	1	0	1	-8,386187	273,803786	310,283575	0
15.01.2021	23:06:20	0	0	4,519331	0,99375	307,5552	-0,068	87,588	0	1017,54	6,4	8,6	8,3	1	1	1	1	1	1	1	1	1	0	1	-6,8358	273,705577	311,377001	0
15.01.2021	23:06:21	0	0	3,841408	1,0245	306,198	-0,067	87,577	0	1017,64	6,4	8,6	8,4	1	1	1	1	1	1	1	1	1	0	1	-2,536998	273,680738	315,560306	0
15.01.2021	23:06:22	0	0	4,406348	1,1325	304,56	-0,065	87,578	0	1017,76	6,4	8,6	8,3	1	1	1	1	1	1	1	1	1	0	1	-3,030303	273,797909	315,612098	0
15.01.2021	23:06:23	0	0	3,163513	1,22025	317,718	-0,068	87,571	0	1017,62	6,6	8,6	8,4	1	1	1	1	1	1	1	1	1	0	1	-5,567301	273,680738	312,530003	0
15.01.2021	23:06:24	0	0	4,519304	1,30275	311,6916	-0,073	87,586	0	1017,44	6,5	8,6	8,4	1	1	1	1	1	1	1	1	1	0	1	-3,523608	273,811135	315,180369	0
15.01.2021	23:06:25	0	0	3,502482	1,3305	319,1904	-0,065	87,581	0	1017,68	6,4	8,6	8,3	1	1	1	1	1	1	1	1	1	0	1	-3,312192	273,625331	314,527593	0
15.01.2021	23:06:26	0	0	3,502482	1,34025	322,65	-0,068	87,592	0	1017,76	6,4	8,5	8,3	1	1	1	1	1	1	1	1	1	0	1	-4,580691	273,670519	313,469108	0
15.01.2021	23:06:27	0	0	4,293365	1,24725	328,5	-0,064	87,58	0	1017,74	6,4	8,6	8,3	1	1	1	1	1	1	1	1	1	0	1	-5,355884	273,815546	313,368629	0
15.01.2021	23:06:28	0	0	2,711582	1,1385	315,18	-0,064	87,586	0	1017,68	6,4	8,6	8,4	1	1	1	1	1	1	1	1	1	0	1	-6,272023	273,731912	312,063267	0
15.01.2021	23:06:29	0	0	2,372649	1,08525	299,7468	-0,069	87,574	0	1017,66	6,4	8,6	8,3	1	1	1	1	1	1	1	1	1	0	1	-2,959831	273,818487	315,778377	0
15.01.2021	23:06:30	0	0	3,050548	1,11225	303,5736	-0,066	87,577	0	1017,7	6,4	8,6	8,3	1	1	1	1	1	1	1	1	1	0	1	-8,104299	273,809665	310,592834	0
15.01.2021	23:06:31	0	0	3,841431	1,1445	288,432	-0,068	87,57	0	1017,6	6,4	8,6	8,3	1	1	1	1	1	1	1	1	1	0	1	-2,60747	273,674898	315,462684	0
15.01.2021	23:06:32	0	0	4,180381	1,1835	285,21	-0,07	87,573	0	1017,6	6,4	8,6	8,3	1	1	1	1	1	1	1	1	1	0	1	-5,84919	273,623875	311,98383	0
15.01.2021	23:06:33	0	0	5,423197	1,16175	292,2516	-0,067	87,576	0	1017,64	6,4	8,6	8,3	1	1	1	1	1	1	1	1	1	0	1	-4,22833	273,707039	313,991271	0
15.01.2021	23:06:34	0	0	3,728448	1,08675	298,3464	-0,069	87,57	0	1017,62	6,4	8,6	8,3	1	1	1	1	1	1	1	1	1	0	1	-8,597604	273,635525	309,289551	0
15.01.2021	23:06:35	0	0	2,485632	1,04475	299,0052	-0,07	87,574	0	1017,34	6,4	8,6	8,3	1	1	1	1	1	1	1	1	1	0	1	-8,174771	273,631156	309,692079	0
15.01.2021	23:06:36	0	0	2,824582	1,005	293,706	-0,07	87,574	0	1017,54	6,4	8,6	8,3	1	1	1	1	1	1	1	1	1	0	1	-6,624383	273,680738	311,47292	0
15.01.2021	23:06:37	0	0	3,502461	1,0125	286,4232	-0,068	87,564	0	1017,86	6,4	8,6	8,4	1	1	1	1	1	1	1	1	1	0	1	-5,003524	273,635525	312,883631	0
15.01.2021	23:06:38	0	0	4,745298	0,99225	277,6212	-0,062	87,581	0	1017,8	6,4	8,6	8,3	1	1	1	1	1	1	1	1	1	0	1	-6,060606	273,692423	312,091027	0
15.01.2021	23:06:39	0	0	4,406348	0,99825	279,9144	-0,065	87,577	0	1017,64	6,5	8,5	8,3	1	1	1	1	1	1	1	1	1	0	1	-6,342495	273,685119	311,775178	0
15.01.2021	23:06:40	0	0	4,632314	0,9675	281,4552	-0,064	87,574	0	1017,62	6,4	8,6	8,3	1	1	1	1	1	1	1	1	1	0	1	-5,285412	273,638439	312,615282	0
15.01.2021	23:06:41	0	0	3,276515	0,9075	282,762	-0,065	87,556	0	1017,68	6,4	8,6	8,3	1	1	1	1	1	1	1	1	1	0	1	-4,651163	273,641353	313,263074	0
15.01.2021	23:06:42	0	0	4,519331	0,89925	283,1652	-0,066	87,576	0	1017,58	6,4	8,6	8,3	1	1	1	1	1	1	1	1	1	0	1	-3,875969	273,753886	314,561549	0
15.01.2021	23:06:43	0	0	5,310214	0,87675	279,522	-0,07	87,556	0	1017,58	6,5	8,6	8,3	1	1	1	1	1	1	1	1	1	0	1	-7,892882	273,792033	310,722168	0
15.01.2021	23:06:44	0	0	3,276515	0,86475	282,0816	-0,073	87,572	0	1017,66	6,4	8,6	8,3	1	1	1	1	1	1	1	1	1	0	1	-7,329105	273,73777	311,033432	0
15.01.2021	23:06:45	0	0	4,406348	0,85875	284,8068	-0,067	87,583	0	1017,52	6,4	8,5	8,3	1	1	1	1	1	1	1	1	1	0	1	-7,540521	273,811135	311,163456	0
15.01.2021	23:06:46	0	0	3,841431	0,858	284,814	-0,063	87,572	0	1017,6	6,4	8,5	8,3	1	1	1	1	1	1	1	1	1	0	1	-1,338971	273,645725	316,595584	0
15.01.2021	23:06:47	0	0	3,389498	0,88725	285,966	-0,073	87,559	0	1017,56	6,4	8,5	8,3	1	1	1	1	1	1	1	1	1	0	1	-5,990134	273,712889	312,256671	0
15.01.2021	23:06:48	0	0	3,728426	0,846	285,5124	-0,066	87,573	0	1017,7	6,4	8,6	8,4	1	1	1	1	1	1	1	1	1	0	1	-6,060606	273,632612	311,813011	0
15.01.2021	23:06:49	0	0	4,632314	0,86025	284,4324	-0,07	87,569	0	1017,62	6,4	8,6	8,3	1	1	1	1	1	1	1	1	1	0	1	-3,805497	273,762683	314,672953	0
15.01.2021	23:06:50	0	0	3,728448	0,84225	284,544	-0,073	87,57	0	1017,62	6,4	8,6	8,3	1	1	1	1	1	1	1	1	1	0	1	-5,990134	273,683659	312,120748	0
15.01.2021	23:06:51	0	0	4,406348	0,83925	281,7972	-0,067	87,563	0	1017,6	6,4	8,6	8,3	1	1	1	1	1	1	1	1	1	0	1	-5,426357	273,797909	313,216045	0
15.01.2021	23:06:52	0	0	3,841431	0,85875	281,7324	-0,07	87,567	0	1017,52	6,4	8,6	8,3	1	1	1	1	1	1	1	1	1	0	1	-3,382664	273,775885	315,157225	0
15.01.2021	23:06:53	0	0	2,372649	0,86175	283,1796	-0,064	87,572	0	1017,72	6,4	8,5	8,3	1	1	1	1	1	1	1	1	1	0	1	-3,946441	273,775885	314,593448	0
15.01.2021	23:06:54	0	0	4,519331	0,86475	281,7396	-0,064	87,556	0	1017,6	6,4	8,6	8,3	1	1	1	1	1	1	1	1	1	0	1	-6,483439	273,636982	311,410485	0
15.01.2021	23:06:55	0	0	2,711582	0,87525	280,2636	-0,063	87,578	0	1017,66	6,4	8,6	8,4	1	1	1	1	1	1	1	1	1	0	1	-5,567301	273,667601	312,46893	0
15.01.2021	23:06:56	0	0	2,711599	0,84975	279,1332	-0,066	87,561	0	1017,56	6,6	8,6	8,3	1	1	1	1	1	1	1	1	1	0	1	-6,412967	273,616597	311,386239	0
15.01.2021	23:06:57	0	0	2,711599	0,83775	279,936	-0,068	87,579	0	1017,68	6,4	8,6	8,3	1	1	1	1	1	1	1	1	1	0	1	-6,8358	273,75975	311,629003	0
15.01.2021	23:06:58	0	0	3,841431	0,84675	281,0556	-0,064	87,579	0	1017,7	6,4	8,6	8,3	1	1	1	1	1	1	1	1	1	0	1	-5,21494	273,623875	312,61808	0
15.01.2021	23:06:59	0	0	4,971264	0,8085	281,484	-0,067	87,582	0	1017,7	6,4	8,6	8,3	1	1	1	1	1	1	1	1	1	0	1	-11,698379	273,75975	306,766424	0
15.01.2021	23:07:00	0	0	4,971264	0,80025	281,8764	-0,068	87,584	0	1017,58	6,4	8,6	8,3	1	1	1	1	1	1	1	1	1	0	1	-6,060606	273,774418	312,472454	0
15.01.2021	23:07:01	0	0	3,728448	0,82425	283,5612	-0,069	87,571	0	1017,38	6,4	8,6	8,3	1	1	1	1	1	1	1	1	1	0	1	-3,946441	273,655931	314,035545	0
15.01.2021	23:07:02	0	0	3,389498	0,84525	285,8652	-0,063	87,579	0	1017,56	6,4	8,6	8,3	1	1	1	1	1	1	1	1	1	0	1	-10,993658	273,702653	307,205546	0
15.01.2021	23:07:03	0	0	4,406348	0,83775	288,144	-0,068	87,57	0	1017,48	6,6	8,6	8,3	1	1	1	1	1	1	1	1	1	0	1	-8,174771	273,768549	310,330979	0
15.01.2021	23:07:04	0	0	4,067398	0,83475	287,802	-0,067	87,579	0	1017,64	6,4	8,6	8,3	1	1	1	1	1	1	1	1	1	0	1	-4,016913	273,799378	314,632327	0
15.01.2021	23:07:05	0	0	4,632314	0,84	285,2028	-0,064	87,579	0	1017,68	6,4	8,6	8,3	1	1	1	1	1	1	1	1	1	0	1	-6,765328	273,696807	311,406689	0
15.01.2021	23:07:06	0	0	2,824582	0,834	287,7228	-0,063	87,585	0	1017,64	6,4	8,6	8,3	1	1	1	1	1	1	1	1	1	0	1	-2,959831	273,620963	314,859661	0
15.01.2021	23:07:07	0	0	4,971264	0,84675	283,6116	-0,064	87,589	0	1017,58	6,4	8,6	8,3	1	1	1	1	1	1	1	1	1	0	1	-4,933051	273,756818	313,518108	0
15.01.2021	23:07:08	0	0	4,067398	0,852	281,3076	-0,06	87,593	0	1017,58	6,4	8,6	8,3	1	1	1	1	1	1	1	1	1	0	1	-6,412967	273,803786	312,256795	0
15.01.2021	23:07:09	0	0	4,858281	0,8385	283,2588	-0,066	87,581	0	1017,64	6,4	8,6	8,3	1	1	1	1	1	1	1	1	1	0	1	-0,634249	273,775885	317,905639	0
15.01.2021	23:07:10	0	0	4,519304	0,84825	285,4368	-0,067	87,582	0	1017,64	6,4	8,6	8,4	1	1	1	1	1	1	1	1	1	0	1	-3,453136	273,638439	314,447559	0
15.01.2021	23:07:11	0	0	2,711599	0,83925	284,9832	-0,066	87,583	0	1017,58	6,4	8,6	8,3	1	1	1	1	1	1	1	1	1	0	1	-4,087385	273,641353	313,826852	0
15.01.2021	23:07:12	0	0	4,858281	0,879	279,5184	-0,06	87,586	0	1017,82	6,4	8,6	8,3	1	1	1	1	1	1	1	1	1	0	1	-4,933051	273,743629	313,456742	0
15.01.2021	23:07:13	0	0	3,389498	0,864	280,2816	-0,064	87,588	0	1017,62	6,4	8,6	8,3	1	1	1	1	1	1	1	1	1	0	1	-9,584214	273,629699	308,275868	0
15.01.2021	23:07:14	0	0	4,067398	0,85425	285,2064	-0,065	87,594	0	1017,72	6,4	8,6	8,3	1	1	1	1	1	1	1	1	1	0	1	-10,077519	273,743629	308,312274	0
15.01.2021	23:07:15	0	0	3,728448	0,8475	287,4312	-0,066	87,595	0	1017,66	6,4	8,6	8,3	1	1	1	1	1	1	1	1	1	0	1	-7,188161	273,811135	311,515816	0
15.01.2021	23:07:16	0	0	5,197231	0,85725	285,6312	-0,067	87,58	0	1017,74	6,4	8,6	8,3	1	1	1	1	1	1	1	1	1	0	1	-6,906272	273,664683	311,116394	0
15.01.2021	23:07:17	0	0	3,050548	0,85275	285,9156	-0,061	87,594	0	1017,74	6,4	8,6	8,3	1	1	1	1	1	1	1	1	1	0	1	-3,523608	273,736305	314,832116	0
15.01.2021	23:07:18	0	0	3,502482	0,846	285,5592	-0,069	87,579	0	1017,72	6,4	8,6	8,3	1	1	1	1	1	1	1	1	1	0	1	-6,624383	273,814076	312,093284	0
15.01.2021	23:07:19	0	0	2,824582	0,85725	284,562	-0,063	87,595	0	1017,44	6,4	8,6	8,3	1	1	1	1	1	1	1	1	1	0	1	-5,708245	273,721667	312,579386	0
15.01.2021	23:07:20	0	0	3,615465	0,84975	285,8976	-0,061	87,587	0	1017,6	6,4	8,6	8,3	1	1	1	1	1	1	1	1	1	0	1	-7,540521	273,803786	311,129241	0
15.01.2021	23:07:21	0	0	4,519331	0,81375	286,254	-0,07	87,589	0	1017,68	6,4	8,6	8,3	1	1	1	1	1	1	1	1	1	0	1	-8,033827	273,664683	309,988839	0
15.01.2021	23:07:22	0	0	4,293365	0,81	285,5772	-0,07	87,588	0	1017,76	6,4	8,6	8,3	1	1	1	1	1	1	1	1	1	0	1	-7,892882	273,812606	310,81794	0
15.01.2021	23:07:23	0	0	3,276515	0,816	284,4684	-0,064	87,596	0	1017,74	6,4	8,6	8,3	1	1	1	1	1	1	1	1	1	0	1	-6,20155	273,709964	312,031651	0
15.01.2021	23:07:24	0	0	2,711599	0,8475	288,8316	-0,066	87,597	0	1017,64	6,4	8,6	8,3	1	1	1	1	1	1	1	1	1	0	1	-1,127555	273,635525	316,7596	0
15.01.2021	23:07:25	0	0	4,632314	0,81	292,6368	-0,061	87,59	0	1017,6	6,4	8,6	8,3	1	1	1	1	1	1	1	1	1	0	1	-5,84919	273,667601	312,187041	0
15.01.2021	23:07:26	0	0	3,163513	0,822	294,4224	-0,064	87,591	0	1017,64	6,4	8,6	8,4	1	1	1	1	1	1	1	1	1	0	1	-8,033827	273,787628	310,560718	0
15.01.2021	23:07:27	0	0	4,406348	0,85725	285,9732	-0,064	87,579	0	1017,8	6,4	8,6	8,3	1	1	1	1	1	1	1	1	1	0	1	-3,382664	273,663224	314,633221	0
15.01.2021	23:07:28	0	0	3,502482	0,858	288,8928	-0,063	87,596	0	1017,56	6,4	8,5	8,3	1	1	1	1	1	1	1	1	1	0	1	-8,527132	273,740699	309,849032	0
15.01.2021	23:07:29	0	0	3,502482	0,85275	297,9468	-0,063	87,586	0	1017,72	6,4	8,6	8,3	1	1	1	1	1	1	1	1	1	0	1	-6,131078	273,634069	311,749307	0
15.01.2021	23:07:30	0	0	4,519331	0,84975	304,29	-0,07	87,569	0	1017,52	6,4	8,6	8,3	1	1	1	1	1	1	1	1	1	0	1	-6,694856	273,781755	311,872356	0
15.01.2021	23:07:31	0	0	3,728448	0,84375	300,5172	-0,067	87,563	0	1017,48	6,5	8,6	8,3	1	1	1	1	1	1	1	1	1	0	1	-2,043693	273,674898	316,026461	0
15.01.2021	23:07:32	0	0	4,632314	0,82125	293,3928	-0,067	87,586	0	1017,68	6,4	8,6	8,3	1	1	1	1	1	1	1	1	1	0	1	-6,131078	273,789096	312,470301	0
15.01.2021	23:07:33	0	0	2,824582	0,81675	286,9956	-0,069	87,594	0	1017,52	6,4	8,6	8,3	1	1	1	1	1	1	1	1	1	0	1	-5,637773	273,660306	312,36455	0
15.01.2021	23:07:34	0	0	4,519331	0,86325	286,9632	-0,064	87,567	0	1017,56	6,4	8,6	8,3	1	1	1	1	1	1	1	1	1	0	1	-4,580691	273,628243	313,272625	0
15.01.2021	23:07:35	0	0	2,711599	0,8955	293,0112	-0,064	87,586	0	1017,58	6,4	8,6	8,3	1	1	1	1	1	1	1	1	1	0	1	-4,862579	273,66906	313,180435	0
15.01.2021	23:07:36	0	0	3,841431	0,90375	292,212	-0,065	87,587	0	1017,78	6,4	8,6	8,3	1	1	1	1	1	1	1	1	1	0	1	-8,879493	273,676358	309,197448	0
15.01.2021	23:07:37	0	0	4,406348	0,8835	283,0896	-0,063	87,587	0	1017,52	6,4	8,6	8,3	1	1	1	1	1	1	1	1	1	0	1	-3,664553	273,79644	314,97101	0
15.01.2021	23:07:38	0	0	4,858281	0,87825	281,5092	-0,066	87,583	0	1017,62	6,4	8,6	8,3	1	1	1	1	1	1	1	1	1	0	1	-7,751938	273,690962	310,392901	0
15.01.2021	23:07:39	0	0	4,519331	0,85725	282,4344	-0,065	87,58	0	1017,64	6,5	8,6	8,3	1	1	1	1	1	1	1	1	1	0	1	-1,832276	273,628243	316,021039	0
15.01.2021	23:07:40	0	0	3,841431	0,88725	281,3616	-0,068	87,572	0	1017,66	6,4	8,6	8,3	1	1	1	1	1	1	1	1	1	0	1	-6,906272	273,739234	311,463078	0
15.01.2021	23:07:41	0	0	4,293365	0,8895	286,6176	-0,064	87,58	0	1017,5	6,4	8,6	8,3	1	1	1	1	1	1	1	1	1	0	1	-10,641297	273,802317	308,021624	0
15.01.2021	23:07:42	0	0	4,971264	0,9105	292,59	-0,074	87,577	0	1017,6	6,4	8,6	8,3	1	1	1	1	1	1	1	1	1	0	1	-5,567301	273,806726	313,116145	0
15.01.2021	23:07:43	0	0	2,259666	0,963	287,0172	-0,064	87,586	0	1017,72	6,4	8,6	8,3	1	1	1	1	1	1	1	1	1	0	1	-6,765328	273,749489	311,651733	0
15.01.2021	23:07:44	0	0	5,197231	1,02675	287,3232	-0,073	87,566	0	1017,58	6,4	8,6	8,3	1	1	1	1	1	1	1	1	1	0	1	-4,651163	273,78616	313,936548	0
15.01.2021	23:07:45	0	0	5,310214	0,99	292,6836	-0,065	87,577	0	1017,68	6,4	8,6	8,3	1	1	1	1	1	1	1	1	1	0	1	-3,100775	273,739234	315,268575	0
15.01.2021	23:07:46	0	0	3,163532	0,97875	286,5852	-0,069	87,574	0	1017,44	6,5	8,6	8,3	1	1	1	1	1	1	1	1	1	0	1	-5,567301	273,815546	313,157213	0
15.01.2021	23:07:47	0	0	3,050548	0,99825	282,6972	-0,066	87,566	0	1017,66	6,4	8,6	8,3	1	1	1	1	1	1	1	1	1	0	1	-3,805497	273,721667	314,482134	0
15.01.2021	23:07:48	0	0	3,615465	1,038	289,5192	-0,059	87,586	0	1017,62	6,4	8,6	8,3	1	1	1	1	1	1	1	1	1	0	1	-7,963354	273,805256	310,713249	0
15.01.2021	23:07:49	0	0	4,745298	1,03125	290,178	-0,071	87,576	0	1017,52	6,4	8,6	8,3	1	1	1	1	1	1	1	1	1	0	1	-6,060606	273,758284	312,397375	0
15.01.2021	23:07:50	0	0	3,163513	1,0365	289,53	-0,067	87,578	0	1017,54	6,4	8,6	8,4	1	1	1	1	1	1	1	1	1	0	1	-2,959831	273,800847	315,69625	0
15.01.2021	23:07:51	0	0	2,372649	1,04925	292,2012	-0,066	87,574	0	1017,78	6,4	8,6	8,3	1	1	1	1	1	1	1	1	1	0	1	-1,62086	273,667601	316,415371	0
15.01.2021	23:07:52	0	0	4,858281	1,02975	294,768	-0,061	87,579	0	1017,66	6,4	8,6	8,3	1	1	1	1	1	1	1	1	1	0	1	-6,765328	273,748024	311,644916	0
15.01.2021	23:07:53	0	0	3,502482	1,023	294,7896	-0,066	87,584	0	1017,78	6,4	8,5	8,3	1	1	1	1	1	1	1	1	1	0	1	-7,258633	273,636982	310,635292	0
15.01.2021	23:07:54	0	0	2,824582	0,95775	300,366	-0,067	87,583	0	1017,68	6,4	8,6	8,3	1	1	1	1	1	1	1	1	1	0	1	-5,144468	273,746559	313,258958	0
15.01.2021	23:07:55	0	0	4,067398	0,963	306,1152	-0,066	87,562	0	1017,8	6,5	8,6	8,3	1	1	1	1	1	1	1	1	1	0	1	-3,946441	273,805256	314,730163	0
15.01.2021	23:07:56	0	0	3,728448	0,93675	310,6296	-0,065	87,566	0	1017,66	6,4	8,6	8,3	1	1	1	1	1	1	1	1	1	0	1	-4,157858	273,736305	314,197866	0
15.01.2021	23:07:57	0	0	4,632314	0,95025	303,9012	-0,064	87,578	0	1017,68	6,4	8,6	8,3	1	1	1	1	1	1	1	1	1	0	1	-6,765328	273,645725	311,169228	0
15.01.2021	23:07:58	0	0	2,824582	0,9	297,5076	-0,062	87,571	0	1017,5	6,4	8,6	8,3	1	1	1	1	1	1	1	1	1	0	1	-7,540521	273,661765	310,468582	0
15.01.2021	23:07:59	0	0	4,632314	0,92925	302,4	-0,065	87,566	0	1017,62	6,4	8,6	8,3	1	1	1	1	1	1	1	1	1	0	1	-5,990134	273,750955	312,433746	0
15.01.2021	23:08:00	0	0	5,084247	0,9105	301,3416	-0,065	87,584	0	1017,6	6,4	8,6	8,3	1	1	1	1	1	1	1	1	1	0	1	-2,959831	273,622419	314,866425	0
15.01.2021	23:08:01	0	0	5,423197	0,903	298,2708	-0,069	87,566	0	1017,58	6,4	8,6	8,3	1	1	1	1	1	1	1	1	1	0	1	-7,751938	273,75242	310,678761	0
15.01.2021	23:08:02	0	0	3,050548	0,897	297,9432	-0,062	87,58	0	1017,84	6,4	8,6	8,3	1	1	1	1	1	1	1	1	1	0	1	-6,131078	273,625331	311,708706	0
15.01.2021	23:08:03	0	0	3,615465	0,87675	304,6824	-0,066	87,576	0	1017,7	6,4	8,6	8,3	1	1	1	1	1	1	1	1	1	0	1	-3,453136	273,72313	314,841301	0
15.01.2021	23:08:04	0	0	2,598615	0,89775	313,5204	-0,061	87,587	0	1017,84	6,4	8,6	8,3	1	1	1	1	1	1	1	1	1	0	1	-7,540521	273,625331	310,299263	0
15.01.2021	23:08:05	0	0	4,180381	0,942	314,4492	-0,062	87,572	0	1017,68	6,5	8,6	8,3	1	1	1	1	1	1	1	1	1	0	1	-4,862579	273,771483	313,656824	0
15.01.2021	23:08:06	0	0	3,389498	0,9495	311,3748	-0,063	87,563	0	1017,62	6,4	8,6	8,3	1	1	1	1	1	1	1	1	1	0	1	-7,399577	273,705577	310,813224	0
15.01.2021	23:08:07	0	0	3,615465	0,95325	313,5888	-0,062	87,566	0	1017,64	6,4	8,6	8,3	1	1	1	1	1	1	1	1	1	0	1	-6,8358	273,658848	311,159744	0
15.01.2021	23:08:08	0	0	3,728448	0,92925	321,156	-0,064	87,583	0	1017,56	6,5	8,6	8,3	1	1	1	1	1	1	1	1	1	0	1	-6,272023	273,746559	312,131404	0
15.01.2021	23:08:09	0	0	4,971264	0,9075	323,2944	-0,064	87,57	0	1017,74	6,5	8,6	8,3	1	1	1	1	1	1	1	1	1	0	1	-6,412967	273,695345	311,752254	0
15.01.2021	23:08:10	0	0	3,954415	0,89325	319,212	-0,062	87,582	0	1017,72	6,4	8,6	8,3	1	1	1	1	1	1	1	1	1	0	1	-6,272023	273,631156	311,594827	0
15.01.2021	23:08:11	0	0	3,050548	0,90825	315,2592	-0,066	87,57	0	1017,5	6,4	8,6	8,3	1	1	1	1	1	1	1	1	1	0	1	-4,369274	273,724593	313,93197	0
15.01.2021	23:08:12	0	0	2,711599	0,897	312,75	-0,065	87,587	0	1017,6	6,4	8,6	8,3	1	1	1	1	1	1	1	1	1	0	1	-6,412967	273,632612	311,46065	0
15.01.2021	23:08:13	0	0	2,824582	0,84675	313,5744	-0,056	87,578	0	1017,74	6,6	8,6	8,3	1	1	1	1	1	1	1	1	1	0	1	-12,191684	273,653014	305,776747	0
15.01.2021	23:08:14	0	0	4,858281	0,83325	317,0052	-0,063	87,588	0	1017,66	6,4	8,6	8,3	1	1	1	1	1	1	1	1	1	0	1	-5,778717	273,712889	312,468088	0
15.01.2021	23:08:15	0	0	2,937565	0,81075	312,8292	-0,063	87,561	0	1017,6	6,4	8,6	8,3	1	1	1	1	1	1	1	1	1	0	1	-6,342495	273,639896	311,564971	0
15.01.2021	23:08:16	0	0	4,180381	0,7755	309,9132	-0,068	87,588	0	1017,64	6,4	8,6	8,3	1	1	1	1	1	1	1	1	1	0	1	-9,936575	273,680738	308,160728	0
15.01.2021	23:08:17	0	0	3,050548	0,75375	310,3164	-0,068	87,585	0	1017,4	6,4	8,6	8,3	1	1	1	1	1	1	1	1	1	0	1	-2,959831	273,674898	315,110323	0
15.01.2021	23:08:18	0	0	4,745298	0,68475	316,3824	-0,062	87,59	0	1017,82	6,5	8,6	8,3	1	1	1	1	1	1	1	1	1	0	1	-3,946441	273,625331	313,893343	0
15.01.2021	23:08:19	0	0	3,728448	0,63	324,0324	-0,07	87,584	0	1017,58	6,5	8,6	8,3	1	1	1	1	1	1	1	1	1	0	1	-6,765328	273,677818	311,3184	0
15.01.2021	23:08:20	0	0	2,598615	0,57525	321,1416	-0,065	87,59	0	1017,76	6,4	8,6	8,3	1	1	1	1	1	1	1	1	1	0	1	-1,832276	273,654473	316,142933	0
15.01.2021	23:08:21	0	0	4,971264	0,54075	305,3844	-0,062	87,583	0	1017,74	6,4	8,6	8,3	1	1	1	1	1	1	1	1	1	0	1	-9,654686	273,762683	308,823763	0
15.01.2021	23:08:22	0	0	2,937565	0,51375	291,1752	-0,062	87,609	0	1017,6	6,5	8,6	8,3	1	1	1	1	1	1	1	1	1	0	1	-4,792107	273,632612	313,08151	0
15.01.2021	23:08:23	0	0	3,389498	0,51675	291,8556	-0,061	87,588	0	1017,64	6,5	8,6	8,3	1	1	1	1	1	1	1	1	1	0	1	-2,818887	273,673438	315,244482	0
15.01.2021	23:08:24	0	0	3,728448	0,51225	302,4324	-0,065	87,596	0	1017,78	6,4	8,6	8,3	1	1	1	1	1	1	1	1	1	0	1	-4,580691	273,784691	314,000186	0
15.01.2021	23:08:25	0	0	4,519331	0,50325	306,8388	-0,063	87,595	0	1017,52	6,4	8,6	8,3	1	1	1	1	1	1	1	1	1	0	1	-5,708245	273,799378	312,940995	0
15.01.2021	23:08:26	0	0	2,937565	0,4965	300,42	-0,067	87,595	0	1017,68	6,4	8,6	8,3	1	1	1	1	1	1	1	1	1	0	1	-2,60747	273,78616	315,98024	0
15.01.2021	23:08:27	0	0	4,406348	0,50325	293,3208	-0,065	87,602	0	1017,74	6,4	8,6	8,3	1	1	1	1	1	1	1	1	1	0	1	-11,557435	273,799378	307,091806	0
15.01.2021	23:08:28	0	0	5,423197	0,52275	290,0124	-0,062	87,582	0	1017,7	6,4	8,6	8,3	1	1	1	1	1	1	1	1	1	0	1	-10,359408	273,711426	307,880595	0
15.01.2021	23:08:29	0	0	3,050548	0,5415	287,4024	-0,059	87,581	0	1017,64	6,4	8,6	8,3	1	1	1	1	1	1	1	1	1	0	1	-9,020437	273,638439	308,880258	0
15.01.2021	23:08:30	0	0	2,711599	0,5385	286,668	-0,063	87,602	0	1017,68	6,5	8,6	8,3	1	1	1	1	1	1	1	1	1	0	1	-7,610994	273,689501	310,527053	0
15.01.2021	23:08:31	0	0	2,824582	0,627	289,224	-0,058	87,607	0	1017,72	6,5	8,6	8,3	1	1	1	1	1	1	1	1	1	0	1	-6,976744	273,666142	311,052704	0
15.01.2021	23:08:32	0	0	5,084247	0,64725	290,4444	-0,062	87,588	0	1017,66	6,4	8,6	8,3	1	1	1	1	1	1	1	1	1	0	1	-7,963354	273,777352	310,583364	0
15.01.2021	23:08:33	0	0	3,502482	0,7065	293,6808	-0,059	87,595	0	1017,54	6,4	8,6	8,3	1	1	1	1	1	1	1	1	1	0	1	-7,470049	273,802317	311,192872	0
15.01.2021	23:08:34	0	0	2,598615	0,7425	290,808	-0,056	87,608	0	1017,58	6,4	8,6	8,3	1	1	1	1	1	1	1	1	1	0	1	-7,751938	273,632612	310,121679	0
15.01.2021	23:08:35	0	0	4,293365	0,74475	287,1252	-0,059	87,607	0	1017,78	6,4	8,6	8,3	1	1	1	1	1	1	1	1	1	0	1	-7,117689	273,673438	310,94568	0
15.01.2021	23:08:36	0	0	2,711599	0,75975	285,8364	-0,068	87,61	0	1017,68	6,4	8,6	8,3	1	1	1	1	1	1	1	1	1	0	1	-4,22833	273,632612	313,645287	0
15.01.2021	23:08:37	0	0	2,485632	0,74925	280,638	-0,065	87,599	0	1017,62	6,5	8,6	8,3	1	1	1	1	1	1	1	1	1	0	1	-7,470049	273,647183	310,47128	0
15.01.2021	23:08:38	0	0	4,858281	0,774	280,9116	-0,066	87,605	0	1017,66	6,5	8,6	8,3	1	1	1	1	1	1	1	1	1	0	1	-4,439746	273,758284	314,018235	0
15.01.2021	23:08:39	0	0	3,276515	0,807	288,1008	-0,062	87,613	0	1017,5	6,4	8,6	8,3	1	1	1	1	1	1	1	1	1	0	1	-6,412967	273,634069	311,467419	0
15.01.2021	23:08:40	0	0	4,745298	0,8385	287,3376	-0,061	87,601	0	1017,78	6,4	8,6	8,3	1	1	1	1	1	1	1	1	1	0	1	-8,597604	273,68804	309,533651	0
15.01.2021	23:08:41	0	0	3,163532	0,81525	278,8308	-0,067	87,614	0	1017,68	6,4	8,6	8,3	1	1	1	1	1	1	1	1	1	0	1	-5,637773	273,629699	312,222309	0
15.01.2021	23:08:42	0	0	2,937565	0,8625	283,1904	-0,065	87,613	0	1017,74	6,4	8,6	8,3	1	1	1	1	1	1	1	1	1	0	1	-5,778717	273,685119	312,338955	0
15.01.2021	23:08:43	0	0	2,711599	0,85425	286,9812	-0,061	87,62	0	1017,58	6,4	8,6	8,3	1	1	1	1	1	1	1	1	1	0	1	-4,792107	273,809665	313,905026	0
15.01.2021	23:08:44	0	0	4,293365	0,84525	278,7912	-0,063	87,62	0	1017,62	6,5	8,6	8,3	1	1	1	1	1	1	1	1	1	0	1	-7,399577	273,75242	311,031121	0
15.01.2021	23:08:45	0	0	2,937565	0,876	278,7444	-0,062	87,622	0	1017,72	6,4	8,6	8,3	1	1	1	1	1	1	1	1	1	0	1	-5,990134	273,648641	311,95797	0
15.01.2021	23:08:46	0	0	3,389498	0,88125	285,894	-0,064	87,616	0	1017,66	6,4	8,6	8,3	1	1	1	1	1	1	1	1	1	0	1	-7,329105	273,666142	310,700343	0
15.01.2021	23:08:47	0	0	3,276515	0,90075	283,1796	-0,066	87,613	0	1017,66	6,4	8,6	8,3	1	1	1	1	1	1	1	1	1	0	1	-6,272023	273,794971	312,356702	0
15.01.2021	23:08:48	0	0	3,615465	0,8655	280,278	-0,065	87,614	0	1017,56	6,5	8,6	8,3	1	1	1	1	1	1	1	1	1	0	1	-9,372798	273,780288	309,187582	0
15.01.2021	23:08:49	0	0	3,276515	0,915	283,248	-0,07	87,612	0	1017,6	6,5	8,6	8,3	1	1	1	1	1	1	1	1	1	0	1	-7,399577	273,8229	311,359177	0
15.01.2021	23:08:50	0	0	3,954415	0,92925	284,0328	-0,061	87,598	0	1017,44	6,5	8,6	8,3	1	1	1	1	1	1	1	1	1	0	1	-4,933051	273,739234	313,436298	0
15.01.2021	23:08:51	0	0	3,163532	0,9735	281,0232	-0,06	87,622	0	1017,68	6,4	8,6	8,3	1	1	1	1	1	1	1	1	1	0	1	-3,946441	273,654473	314,028768	0
15.01.2021	23:08:52	0	0	4,067398	0,95475	280,9656	-0,065	87,598	0	1017,48	6,4	8,6	8,3	1	1	1	1	1	1	1	1	1	0	1	-5,285412	273,784691	313,295465	0
15.01.2021	23:08:53	0	0	4,632314	1,00125	281,052	-0,063	87,625	0	1017,5	6,4	8,6	8,3	1	1	1	1	1	1	1	1	1	0	1	-4,298802	273,645725	313,635753	0
15.01.2021	23:08:54	0	0	4,067398	0,9915	280,9872	-0,072	87,613	0	1017,6	6,4	8,6	8,3	1	1	1	1	1	1	1	1	1	0	1	-5,144468	273,777352	313,402251	0
15.01.2021	23:08:55	0	0	3,615465	1,02	281,0052	-0,062	87,609	0	1017,58	6,5	8,6	8,3	1	1	1	1	1	1	1	1	1	0	1	-5,567301	273,641353	312,346936	0
15.01.2021	23:08:56	0	0	4,180381	0,99675	279,8676	-0,063	87,603	0	1017,68	6,4	8,6	8,3	1	1	1	1	1	1	1	1	1	0	1	-9,654686	273,809665	309,042446	0
15.01.2021	23:08:57	0	0	2,485632	0,999	280,2132	-0,064	87,618	0	1017,52	6,5	8,6	8,3	1	1	1	1	1	1	1	1	1	0	1	-8,527132	273,707039	309,692469	0
15.01.2021	23:08:58	0	0	3,615465	1,03425	281,3688	-0,058	87,618	0	1017,58	6,5	8,6	8,3	1	1	1	1	1	1	1	1	1	0	1	-1,973221	273,815546	316,751293	0
15.01.2021	23:08:59	0	0	2,372649	1,0035	280,2744	-0,061	87,619	0	1017,72	6,5	8,6	8,3	1	1	1	1	1	1	1	1	1	0	1	-8,174771	273,683659	309,936111	0
15.01.2021	23:09:00	0	0	2,598615	1,01175	283,194	-0,06	87,628	0	1017,6	6,4	8,6	8,3	1	1	1	1	1	1	1	1	1	0	1	-6,483439	273,802317	312,179482	0
15.01.2021	23:09:01	0	0	3,728448	0,966	279,8172	-0,059	87,62	0	1017,64	6,5	8,6	8,3	1	1	1	1	1	1	1	1	1	0	1	-6,131078	273,777352	312,41564	0
15.01.2021	23:09:02	0	0	4,406348	0,96825	279,4608	-0,068	87,6	0	1017,7	6,5	8,6	8,3	1	1	1	1	1	1	1	1	1	0	1	-6,553911	273,667601	311,48232	0
15.01.2021	23:09:03	0	0	2,711599	1,00125	279,396	-0,057	87,625	0	1017,84	6,4	8,6	8,3	1	1	1	1	1	1	1	1	1	0	1	-11,909796	273,815546	306,814718	0
15.01.2021	23:09:04	0	0	2,937565	0,99225	280,2564	-0,059	87,622	0	1017,7	6,5	8,6	8,3	1	1	1	1	1	1	1	1	1	0	1	-9,513742	273,715814	308,746669	0
15.01.2021	23:09:05	0	0	4,745298	0,96525	276,1992	-0,064	87,616	0	1017,6	6,5	8,6	8,3	1	1	1	1	1	1	1	1	1	0	1	-4,087385	273,828785	314,698772	0
15.01.2021	23:09:06	0	0	5,084247	0,96525	276,4476	-0,064	87,624	0	1017,68	6,5	8,6	8,3	1	1	1	1	1	1	1	1	1	0	1	-6,976744	273,728984	311,344925	0
15.01.2021	23:09:07	0	0	2,146682	0,95025	277,2432	-0,058	87,626	0	1017,56	6,4	8,6	8,3	1	1	1	1	1	1	1	1	1	0	1	-7,610994	273,642811	310,310016	0
15.01.2021	23:09:08	0	0	3,954415	0,942	275,7456	-0,069	87,595	0	1017,58	6,4	8,6	8,3	1	1	1	1	1	1	1	1	1	0	1	-7,258633	273,767082	311,240291	0
15.01.2021	23:09:09	0	0	3,502482	0,9345	273,9096	-0,061	87,624	0	1017,5	6,5	8,6	8,3	1	1	1	1	1	1	1	1	1	0	1	-6,412967	273,717277	311,854248	0
15.01.2021	23:09:10	0	0	4,745298	0,942	276,4116	-0,06	87,609	0	1017,56	6,5	8,6	8,3	1	1	1	1	1	1	1	1	1	0	1	-9,795631	273,8332	309,011087	0
15.01.2021	23:09:11	0	0	4,745298	0,94425	275,3784	-0,054	87,618	0	1017,66	6,4	8,6	8,3	1	1	1	1	1	1	1	1	1	0	1	-5,21494	273,806726	313,468506	0
15.01.2021	23:09:12	0	0	2,937565	0,96675	276,9048	-0,063	87,62	0	1017,66	6,5	8,6	8,3	1	1	1	1	1	1	1	1	1	0	1	-9,44327	273,711426	308,796733	0
15.01.2021	23:09:13	0	0	4,406348	0,98775	272,862	-0,067	87,623	0	1017,6	6,5	8,6	8,3	1	1	1	1	1	1	1	1	1	0	1	-6,906272	273,825842	311,866183	0
15.01.2021	23:09:14	0	0	4,519331	1,08975	276,822	-0,06	87,622	0	1017,66	6,4	8,6	8,3	1	1	1	1	1	1	1	1	1	0	1	-9,654686	273,764149	308,830587	0
15.01.2021	23:09:15	0	0	4,632314	1,203	276,894	-0,06	87,602	0	1017,62	6,4	8,6	8,3	1	1	1	1	1	1	1	1	1	0	1	-9,654686	273,839088	309,179452	0
15.01.2021	23:09:16	0	0	5,197231	1,2285	282,0708	-0,066	87,605	0	1017,56	6,4	8,6	8,3	1	1	1	1	1	1	1	1	1	0	1	-5,708245	273,777352	312,838473	0
15.01.2021	23:09:17	0	0	3,841431	1,227	281,1096	-0,064	87,597	0	1017,6	6,5	8,6	8,3	1	1	1	1	1	1	1	1	1	0	1	-8,033827	273,695345	310,131395	0
15.01.2021	23:09:18	0	0	2,937565	1,26225	275,3676	-0,062	87,593	0	1017,6	6,5	8,6	8,3	1	1	1	1	1	1	1	1	1	0	1	-7,963354	273,671979	310,093228	0
15.01.2021	23:09:19	0	0	5,197231	1,2975	276,8364	-0,056	87,627	0	1017,56	6,5	8,6	8,3	1	1	1	1	1	1	1	1	1	0	1	-6,694856	273,770016	311,817721	0
15.01.2021	23:09:20	0	0	2,598615	1,34175	272,088	-0,062	87,62	0	1017,76	6,4	8,6	8,3	1	1	1	1	1	1	1	1	1	0	1	-11,980268	273,824371	306,785336	0
15.01.2021	23:09:21	0	0	3,841431	1,3155	271,0512	-0,068	87,614	0	1017,64	6,4	8,6	8,3	1	1	1	1	1	1	1	1	1	0	1	-3,946441	273,701191	314,245965	0
15.01.2021	23:09:22	0	0	3,389498	1,29525	276,5376	-0,067	87,606	0	1017,62	6,4	8,6	8,3	1	1	1	1	1	1	1	1	1	0	1	-7,470049	273,683659	310,640833	0
15.01.2021	23:09:23	0	0	3,389498	1,30875	276,516	-0,066	87,61	0	1017,52	6,5	8,6	8,3	1	1	1	1	1	1	1	1	1	0	1	-10,007047	273,819958	308,738009	0
15.01.2021	23:09:24	0	0	3,615465	1,251	280,3248	-0,059	87,616	0	1017,42	6,4	8,6	8,3	1	1	1	1	1	1	1	1	1	0	1	-5,21494	273,69973	312,970669	0
15.01.2021	23:09:25	0	0	2,485632	1,27575	283,1724	-0,06	87,616	0	1017,7	6,5	8,6	8,3	1	1	1	1	1	1	1	1	1	0	1	-6,553911	273,641353	311,360326	0
15.01.2021	23:09:26	0	0	2,711599	1,3095	274,9788	-0,066	87,59	0	1017,58	6,5	8,6	8,3	1	1	1	1	1	1	1	1	1	0	1	-7,470049	273,698268	310,708763	0
15.01.2021	23:09:27	0	0	3,841431	1,3245	277,5924	-0,06	87,615	0	1017,56	6,5	8,6	8,3	1	1	1	1	1	1	1	1	1	0	1	-6,694856	273,638439	311,205839	0
15.01.2021	23:09:28	0	0	4,745298	1,389	282,1644	-0,064	87,617	0	1017,64	6,5	8,6	8,3	1	1	1	1	1	1	1	1	1	0	1	-6,8358	273,66906	311,207214	0
15.01.2021	23:09:29	0	0	4,519331	1,365	282,5424	-0,064	87,622	0	1017,72	6,5	8,6	8,3	1	1	1	1	1	1	1	1	1	0	1	-4,087385	273,724593	314,213859	0
15.01.2021	23:09:30	0	0	4,858281	1,32525	275,796	-0,059	87,615	0	1017,66	6,5	8,6	8,3	1	1	1	1	1	1	1	1	1	0	1	-7,117689	273,805256	311,558915	0
15.01.2021	23:09:31	0	0	4,745298	1,28025	274,6296	-0,06	87,618	0	1017,68	6,4	8,6	8,3	1	1	1	1	1	1	1	1	1	0	1	-3,946441	273,775885	314,593448	0
15.01.2021	23:09:32	0	0	3,615465	1,206	269,1648	-0,065	87,597	0	1017,42	6,4	8,6	8,3	1	1	1	1	1	1	1	1	1	0	1	-5,285412	273,720203	312,995413	0
15.01.2021	23:09:33	0	0	4,406348	1,1325	279,9072	-0,061	87,593	0	1017,8	6,5	8,6	8,3	1	1	1	1	1	1	1	1	1	0	1	-7,188161	273,655931	310,793826	0
15.01.2021	23:09:34	0	0	3,163532	1,12575	276,8976	-0,06	87,598	0	1017,68	6,5	8,5	8,3	1	1	1	1	1	1	1	1	1	0	1	-5,144468	273,834672	313,669104	0
15.01.2021	23:09:35	0	0	2,937565	1,09425	269,2368	-0,061	87,6	0	1017,72	6,5	8,6	8,3	1	1	1	1	1	1	1	1	1	0	1	-2,889359	273,683659	315,221523	0
15.01.2021	23:09:36	0	0	4,067398	1,0875	270,3636	-0,064	87,61	0	1017,66	6,5	8,6	8,3	1	1	1	1	1	1	1	1	1	0	1	-7,892882	273,701191	310,299524	0
15.01.2021	23:09:37	0	0	3,163532	1,134	273,6036	-0,063	87,61	0	1017,74	6,5	8,6	8,3	1	1	1	1	1	1	1	1	1	0	1	-7,540521	273,644268	310,387261	0
15.01.2021	23:09:38	0	0	4,745298	1,164	271,8	-0,065	87,594	0	1017,72	6,5	8,6	8,3	1	1	1	1	1	1	1	1	1	0	1	-3,805497	273,726057	314,502555	0
15.01.2021	23:09:39	0	0	3,502482	1,1925	273,3372	-0,069	87,604	0	1017,64	6,5	8,6	8,3	1	1	1	1	1	1	1	1	1	0	1	-4,721635	273,821429	314,03027	0
15.01.2021	23:09:40	0	0	4,067398	1,212	285,228	-0,065	87,61	0	1017,62	6,5	8,6	8,3	1	1	1	1	1	1	1	1	1	0	1	-8,879493	273,812606	309,831329	0
15.01.2021	23:09:41	0	0	4,406348	1,26975	288,2052	-0,074	87,589	0	1017,66	6,5	8,6	8,3	1	1	1	1	1	1	1	1	1	0	1	-8,45666	273,711426	309,783343	0
15.01.2021	23:09:42	0	0	4,519331	1,305	295,5888	-0,063	87,584	0	1017,7	6,5	8,6	8,3	1	1	1	1	1	1	1	1	1	0	1	-6,412967	273,830256	312,380044	0
15.01.2021	23:09:43	0	0	2,485632	1,3365	295,1856	-0,061	87,591	0	1017,66	6,5	8,6	8,3	1	1	1	1	1	1	1	1	1	0	1	-9,302326	273,799378	309,346915	0
15.01.2021	23:09:44	0	0	4,971264	1,32	291,2796	-0,071	87,59	0	1017,64	6,5	8,6	8,3	1	1	1	1	1	1	1	1	1	0	1	-4,933051	273,653014	313,03538	0
15.01.2021	23:09:45	0	0	3,389498	1,34625	290,4264	-0,068	87,586	0	1017,66	6,4	8,6	8,3	1	1	1	1	1	1	1	1	1	0	1	-3,312192	273,707039	314,907409	0
15.01.2021	23:09:46	0	0	3,615465	1,39725	292,5684	-0,064	87,579	0	1017,48	6,5	8,6	8,3	1	1	1	1	1	1	1	1	1	0	1	-4,22833	273,834672	314,585242	0
15.01.2021	23:09:47	0	0	3,615465	1,40175	289,2348	-0,065	87,586	0	1017,72	6,5	8,6	8,3	1	1	1	1	1	1	1	1	1	0	1	-5,285412	273,728984	313,036257	0
15.01.2021	23:09:48	0	0	2,485632	1,44375	284,5296	-0,071	87,58	0	1017,62	6,5	8,6	8,3	1	1	1	1	1	1	1	1	1	0	1	-8,597604	273,824371	310,168	0
15.01.2021	23:09:49	0	0	4,180381	1,4325	282,8016	-0,066	87,57	0	1017,72	6,5	8,6	8,3	1	1	1	1	1	1	1	1	1	0	1	-7,117689	273,767082	311,381235	0
15.01.2021	23:09:50	0	0	2,485632	1,4115	283,6332	-0,068	87,57	0	1017,5	6,5	8,6	8,3	1	1	1	1	1	1	1	1	1	0	1	-6,20155	273,821429	312,550354	0
15.01.2021	23:09:51	0	0	4,519331	1,37325	278,0748	-0,062	87,572	0	1017,66	6,5	8,5	8,3	1	1	1	1	1	1	1	1	1	0	1	-2,396054	273,805256	316,28055	0
15.01.2021	23:09:52	0	0	3,615465	1,36575	278,8308	-0,064	87,559	0	1017,48	6,5	8,6	8,3	1	1	1	1	1	1	1	1	1	0	1	-4,721635	273,825842	314,05082	0
15.01.2021	23:09:53	0	0	4,519331	1,3305	282,474	-0,062	87,579	0	1017,62	6,5	8,6	8,3	1	1	1	1	1	1	1	1	1	0	1	-6,272023	273,784691	312,308854	0
15.01.2021	23:09:54	0	0	2,598615	1,296	283,6152	-0,069	87,569	0	1017,48	6,5	8,6	8,3	1	1	1	1	1	1	1	1	1	0	1	-10,923185	273,692423	307,228447	0
15.01.2021	23:09:55	0	0	2,711599	1,248	292,9896	-0,065	87,573	0	1017,68	6,5	8,6	8,3	1	1	1	1	1	1	1	1	1	0	1	-5,84919	273,734841	312,499722	0
15.01.2021	23:09:56	0	0	2,598615	1,23975	291,8844	-0,064	87,589	0	1017,68	6,5	8,6	8,3	1	1	1	1	1	1	1	1	1	0	1	-5,637773	273,812606	313,073049	0
15.01.2021	23:09:57	0	0	3,841431	1,185	281,79	-0,063	87,577	0	1017,66	6,5	8,6	8,3	1	1	1	1	1	1	1	1	1	0	1	-6,20155	273,793502	312,420337	0
15.01.2021	23:09:58	0	0	3,728448	1,18725	278,8596	-0,061	87,576	0	1017,82	6,5	8,6	8,3	1	1	1	1	1	1	1	1	1	0	1	-6,8358	273,690962	311,30904	0
15.01.2021	23:09:59	0	0	4,519331	1,2255	279,5256	-0,064	87,57	0	1017,7	6,5	8,6	8,3	1	1	1	1	1	1	1	1	1	0	1	-7,188161	273,650098	310,766719	0
15.01.2021	23:10:00	0	0	4,745298	1,1985	277,65	-0,061	87,58	0	1017,7	6,5	8,6	8,3	1	1	1	1	1	1	1	1	1	0	1	-4,862579	273,653014	313,105852	0
15.01.2021	23:10:01	0	0	4,067398	1,17975	277,5888	-0,059	87,588	0	1017,88	6,4	8,6	8,3	1	1	1	1	1	1	1	1	1	0	1	-7,892882	273,648641	310,055222	0
15.01.2021	23:10:02	0	0	3,954415	1,16175	279,5004	-0,07	87,561	0	1017,48	6,5	8,6	8,3	1	1	1	1	1	1	1	1	1	0	1	-6,060606	273,726057	312,247446	0
15.01.2021	23:10:03	0	0	2,259666	1,19175	283,6296	-0,067	87,588	0	1017,66	6,5	8,6	8,3	1	1	1	1	1	1	1	1	1	0	1	-3,171247	273,794971	315,457477	0
15.01.2021	23:10:04	0	0	3,954415	1,1745	283,5036	-0,066	87,565	0	1017,74	6,4	8,6	8,3	1	1	1	1	1	1	1	1	1	0	1	-8,45666	273,654473	309,518549	0
15.01.2021	23:10:05	0	0	2,372649	1,17675	276,84	-0,07	87,572	0	1017,68	6,5	8,6	8,3	1	1	1	1	1	1	1	1	1	0	1	-5,990134	273,762683	312,488316	0
15.01.2021	23:10:06	0	0	4,971264	1,1985	277,164	-0,07	87,583	0	1017,46	6,5	8,6	8,3	1	1	1	1	1	1	1	1	1	0	1	-5,285412	273,800847	313,370668	0
15.01.2021	23:10:07	0	0	4,745298	1,1535	279,8928	-0,068	87,575	0	1017,54	6,5	8,6	8,3	1	1	1	1	1	1	1	1	1	0	1	-10,077519	273,68804	308,053735	0
15.01.2021	23:10:08	0	0	2,711599	1,13625	271,7172	-0,066	87,573	0	1017,6	6,5	8,6	8,3	1	1	1	1	1	1	1	1	1	0	1	-7,540521	273,842033	311,307332	0
15.01.2021	23:10:09	0	0	2,711599	1,155	277,5996	-0,071	87,579	0	1017,74	6,5	8,6	8,3	1	1	1	1	1	1	1	1	1	0	1	-6,20155	273,761216	312,270076	0
15.01.2021	23:10:10	0	0	3,163532	1,23525	279,9468	-0,064	87,587	0	1017,72	6,5	8,6	8,3	1	1	1	1	1	1	1	1	1	0	1	-8,597604	273,654473	309,377605	0
15.01.2021	23:10:11	0	0	4,745298	1,2225	272,5776	-0,065	87,57	0	1017,72	6,5	8,6	8,3	1	1	1	1	1	1	1	1	1	0	1	-8,245243	273,800847	310,410837	0
15.01.2021	23:10:12	0	0	4,180381	1,2	266,9292	-0,065	87,579	0	1017,64	6,5	8,6	8,3	1	1	1	1	1	1	1	1	1	0	1	-8,245243	273,821429	310,506662	0
15.01.2021	23:10:13	0	0	2,824582	1,23375	273,9312	-0,068	87,58	0	1017,58	6,5	8,6	8,3	1	1	1	1	1	1	1	1	1	0	1	-6,342495	273,68804	311,78876	0
15.01.2021	23:10:14	0	0	4,067398	1,185	278,0856	-0,068	87,568	0	1017,68	6,5	8,6	8,3	1	1	1	1	1	1	1	1	1	0	1	-10,782241	273,704115	307,423761	0
15.01.2021	23:10:15	0	0	2,485632	1,20075	282,4272	-0,064	87,569	0	1017,38	6,5	8,6	8,3	1	1	1	1	1	1	1	1	1	0	1	-9,513742	273,653014	308,45469	0
15.01.2021	23:10:16	0	0	4,632314	1,21575	293,652	-0,065	87,583	0	1017,56	6,5	8,6	8,3	1	1	1	1	1	1	1	1	1	0	1	-5,84919	273,733377	312,492911	0
15.01.2021	23:10:17	0	0	3,163532	1,23675	284,1084	-0,065	87,577	0	1017,66	6,5	8,6	8,3	1	1	1	1	1	1	1	1	1	0	1	-9,866103	273,654473	308,109106	0
15.01.2021	23:10:18	0	0	3,163532	1,22475	277,164	-0,071	87,575	0	1017,54	6,5	8,6	8,3	1	1	1	1	1	1	1	1	1	0	1	-6,483439	273,764149	312,001835	0
15.01.2021	23:10:19	0	0	2,937565	1,215	283,5828	-0,069	87,574	0	1017,46	6,5	8,6	8,3	1	1	1	1	1	1	1	1	1	0	1	-7,258633	273,824371	311,506971	0
15.01.2021	23:10:20	0	0	4,519331	1,2	281,016	-0,068	87,576	0	1017,68	6,5	8,6	8,3	1	1	1	1	1	1	1	1	1	0	1	-4,580691	273,787628	314,013854	0
15.01.2021	23:10:21	0	0	4,858281	1,17375	282,42	-0,063	87,581	0	1017,64	6,5	8,5	8,3	1	1	1	1	1	1	1	1	1	0	1	-8,245243	273,806726	310,438203	0
15.01.2021	23:10:22	0	0	3,841431	1,1775	292,9896	-0,072	87,587	0	1017,5	6,5	8,6	8,3	1	1	1	1	1	1	1	1	1	0	1	-3,946441	273,663224	314,069443	0
15.01.2021	23:10:23	0	0	3,050548	1,16025	282,4056	-0,068	87,572	0	1017,54	6,5	8,6	8,3	1	1	1	1	1	1	1	1	1	0	1	-4,016913	273,75242	314,413785	0
15.01.2021	23:10:24	0	0	2,937565	1,18425	274,2696	-0,067	87,596	0	1017,74	6,5	8,6	8,3	1	1	1	1	1	1	1	1	1	0	1	-5,426357	273,648641	312,521747	0
15.01.2021	23:10:25	0	0	3,163532	1,1835	286,6644	-0,068	87,576	0	1017,62	6,5	8,5	8,3	1	1	1	1	1	1	1	1	1	0	1	-3,875969	273,753886	314,561549	0
15.01.2021	23:10:26	0	0	3,728448	1,14075	277,236	-0,07	87,58	0	1017,5	6,5	8,6	8,3	1	1	1	1	1	1	1	1	1	0	1	-10,923185	273,642811	306,997824	0
15.01.2021	23:10:27	0	0	2,372649	1,1415	275,8356	-0,068	87,581	0	1017,7	6,5	8,6	8,3	1	1	1	1	1	1	1	1	1	0	1	-7,470049	273,68658	310,654414	0
15.01.2021	23:10:28	0	0	4,519331	1,15275	286,6176	-0,064	87,589	0	1017,74	6,5	8,6	8,3	1	1	1	1	1	1	1	1	1	0	1	-8,45666	273,790565	310,151555	0
15.01.2021	23:10:29	0	0	3,389498	1,19475	281,7468	-0,062	87,585	0	1017,66	6,4	8,6	8,3	1	1	1	1	1	1	1	1	1	0	1	-7,610994	273,828785	311,175164	0
15.01.2021	23:10:30	0	0	4,519331	1,15725	278,0424	-0,062	87,582	0	1017,7	6,5	8,6	8,3	1	1	1	1	1	1	1	1	1	0	1	-7,329105	273,740699	311,047059	0
15.01.2021	23:10:31	0	0	4,745298	1,14225	285,1704	-0,069	87,589	0	1017,98	6,5	8,6	8,3	1	1	1	1	1	1	1	1	1	0	1	-1,902748	273,805256	316,773855	0
15.01.2021	23:10:32	0	0	3,728448	1,134	272,3688	-0,065	87,586	0	1017,5	6,5	8,6	8,3	1	1	1	1	1	1	1	1	1	0	1	-8,315715	273,66906	309,727299	0
15.01.2021	23:10:33	0	0	2,937565	1,10025	268,7868	-0,064	87,579	0	1017,62	6,5	8,6	8,3	1	1	1	1	1	1	1	1	1	0	1	-5,84919	273,818487	312,889018	0
15.01.2021	23:10:34	0	0	4,745298	1,068	286,0488	-0,066	87,584	0	1017,64	6,5	8,6	8,3	1	1	1	1	1	1	1	1	1	0	1	-7,047216	273,654473	310,927992	0
15.01.2021	23:10:35	0	0	5,084247	1,038	279,5328	-0,068	87,589	0	1017,54	6,4	8,6	8,3	1	1	1	1	1	1	1	1	1	0	1	-7,258633	273,717277	311,008582	0
15.01.2021	23:10:36	0	0	5,084247	1,0155	268,452	-0,064	87,583	0	1017,64	6,5	8,6	8,3	1	1	1	1	1	1	1	1	1	0	1	-10,993658	273,825842	307,778797	0
15.01.2021	23:10:37	0	0	3,841431	1,02525	271,3644	-0,066	87,591	0	1017,82	6,5	8,5	8,3	1	1	1	1	1	1	1	1	1	0	1	-7,188161	273,77295	311,338071	0
15.01.2021	23:10:38	0	0	2,711599	0,99825	282,3336	-0,064	87,582	0	1017,68	6,5	8,6	8,3	1	1	1	1	1	1	1	1	1	0	1	-5,919662	273,661765	312,089442	0
15.01.2021	23:10:39	0	0	4,067398	1,03725	281,7792	-0,068	87,576	0	1017,52	6,5	8,6	8,3	1	1	1	1	1	1	1	1	1	0	1	-4,933051	273,690962	313,211788	0
15.01.2021	23:10:40	0	0	4,632314	1,06875	273,2436	-0,065	87,589	0	1017,68	6,5	8,5	8,3	1	1	1	1	1	1	1	1	1	0	1	-6,272023	273,77882	312,281526	0
15.01.2021	23:10:41	0	0	4,971264	1,07475	273,6072	-0,061	87,585	0	1017,6	6,5	8,6	8,3	1	1	1	1	1	1	1	1	1	0	1	-4,580691	273,78616	314,00702	0
15.01.2021	23:10:42	0	0	4,406348	1,0995	276,1524	-0,068	87,583	0	1017,6	6,5	8,6	8,3	1	1	1	1	1	1	1	1	1	0	1	-7,258633	273,781755	311,308579	0
15.01.2021	23:10:43	0	0	3,615465	1,10175	275,022	-0,072	87,571	0	1017,68	6,5	8,6	8,3	1	1	1	1	1	1	1	1	1	0	1	-3,664553	273,834672	315,149019	0
15.01.2021	23:10:44	0	0	4,067398	1,0905	284,0652	-0,072	87,578	0	1017,62	6,5	8,6	8,3	1	1	1	1	1	1	1	1	1	0	1	-9,795631	273,720203	308,485194	0
15.01.2021	23:10:45	0	0	3,954415	1,10175	288,1764	-0,071	87,569	0	1017,6	6,5	8,6	8,3	1	1	1	1	1	1	1	1	1	0	1	-9,936575	273,8332	308,870142	0
15.01.2021	23:10:46	0	0	2,937565	1,11375	281,0232	-0,069	87,579	0	1017,52	6,4	8,6	8,3	1	1	1	1	1	1	1	1	1	0	1	-6,060606	273,683659	312,050276	0
15.01.2021	23:10:47	0	0	4,745298	1,12275	283,176	-0,071	87,588	0	1017,66	6,5	8,6	8,3	1	1	1	1	1	1	1	1	1	0	1	-11,134602	273,846451	307,733828	0
15.01.2021	23:10:48	0	0	3,050548	1,12425	278,0136	-0,066	87,585	0	1017,66	6,5	8,6	8,3	1	1	1	1	1	1	1	1	1	0	1	-8,879493	273,701191	309,312913	0
15.01.2021	23:10:49	0	0	2,937565	1,08975	275,724	-0,065	87,596	0	1017,64	6,5	8,5	8,3	1	1	1	1	1	1	1	1	1	0	1	-5,144468	273,667601	312,891763	0
15.01.2021	23:10:50	0	0	2,598615	1,16775	275,7672	-0,071	87,58	0	1017,7	6,5	8,6	8,3	1	1	1	1	1	1	1	1	1	0	1	-9,936575	273,677818	308,147152	0
15.01.2021	23:10:51	0	0	2,485632	1,194	281,808	-0,068	87,574	0	1017,56	6,5	8,6	8,3	1	1	1	1	1	1	1	1	1	0	1	-7,188161	273,775885	311,351728	0
15.01.2021	23:10:52	0	0	4,180381	1,1925	278,8092	-0,069	87,582	0	1017,54	6,5	8,6	8,3	1	1	1	1	1	1	1	1	1	0	1	-7,751938	273,84056	311,089058	0
15.01.2021	23:10:53	0	0	3,502482	1,14825	279,1548	-0,066	87,575	0	1017,44	6,5	8,6	8,3	1	1	1	1	1	1	1	1	1	0	1	-5,637773	273,787628	312,956771	0
15.01.2021	23:10:54	0	0	3,050548	1,16475	278,8452	-0,065	87,584	0	1017,68	6,5	8,6	8,3	1	1	1	1	1	1	1	1	1	0	1	-3,523608	273,828785	315,26255	0
15.01.2021	23:10:55	0	0	4,632231	1,25025	273,9672	-0,072	87,575	0	1017,46	6,5	8,6	8,6	1	1	1	1	1	1	1	1	1	0	1	-11,06413	273,749489	307,352932	0
15.01.2021	23:10:56	0	0	5,197231	1,28475	271,7424	-0,07	87,56	0	1017,54	6,5	8,5	8,3	1	1	1	1	1	1	1	1	1	0	1	-6,765328	273,839088	312,068811	0
15.01.2021	23:10:57	0	0	4,180381	1,26	275,7204	-0,075	87,574	0	1017,48	6,5	8,6	8,3	1	1	1	1	1	1	1	1	1	0	1	-7,399577	273,690962	310,745262	0
15.01.2021	23:10:58	0	0	4,632314	1,25775	272,0412	-0,074	87,578	0	1017,68	6,5	8,6	8,3	1	1	1	1	1	1	1	1	1	0	1	-6,342495	273,654473	311,632714	0
15.01.2021	23:10:59	0	0	2,485632	1,25925	275,7708	-0,071	87,584	0	1017,6	6,5	8,6	8,3	1	1	1	1	1	1	1	1	1	0	1	-8,527132	273,695345	309,638089	0
15.01.2021	23:11:00	0	0	4,067398	1,25325	279,9072	-0,071	87,583	0	1017,62	6,5	8,6	8,3	1	1	1	1	1	1	1	1	1	0	1	-5,355884	273,790565	313,25233	0
15.01.2021	23:11:01	0	0	4,293365	1,24125	278,0928	-0,064	87,586	0	1017,76	6,5	8,6	8,3	1	1	1	1	1	1	1	1	1	0	1	-3,100775	273,853816	315,801962	0
15.01.2021	23:11:02	0	0	4,858281	1,1835	276,8184	-0,071	87,573	0	1017,8	6,5	8,6	8,3	1	1	1	1	1	1	1	1	1	0	1	-3,523608	273,767082	314,975315	0
15.01.2021	23:11:03	0	0	3,954415	1,14525	277,6464	-0,073	87,555	0	1017,72	6,5	8,6	8,3	1	1	1	1	1	1	1	1	1	0	1	-3,735025	273,830256	315,057986	0
15.01.2021	23:11:04	0	0	3,728448	1,1085	279,9288	-0,068	87,576	0	1017,66	6,5	8,6	8,3	1	1	1	1	1	1	1	1	1	0	1	-4,369274	273,72313	313,925163	0
15.01.2021	23:11:05	0	0	5,084247	1,12575	277,2576	-0,075	87,571	0	1017,48	6,5	8,6	8,3	1	1	1	1	1	1	1	1	1	0	1	-9,090909	273,663224	308,924976	0
15.01.2021	23:11:06	0	0	4,293365	1,176	271,9836	-0,079	87,579	0	1017,56	6,5	8,6	8,3	1	1	1	1	1	1	1	1	1	0	1	-6,060606	273,783223	312,513438	0
15.01.2021	23:11:07	0	0	3,163532	1,19025	277,6068	-0,072	87,57	0	1017,6	6,5	8,6	8,3	1	1	1	1	1	1	1	1	1	0	1	-5,073996	273,670519	312,975802	0
15.01.2021	23:11:08	0	0	2,711599	1,1775	273,9672	-0,069	87,576	0	1017,58	6,5	8,6	8,3	1	1	1	1	1	1	1	1	1	0	1	-5,567301	273,677818	312,516427	0
15.01.2021	23:11:09	0	0	4,745298	1,203	273,5856	-0,073	87,572	0	1017,62	6,5	8,6	8,3	1	1	1	1	1	1	1	1	1	0	1	-12,966878	273,720203	305,313947	0
15.01.2021	23:11:10	0	0	3,615465	1,2105	281,7	-0,068	87,577	0	1017,6	6,5	8,6	8,3	1	1	1	1	1	1	1	1	1	0	1	-6,976744	273,856763	311,93972	0
15.01.2021	23:11:11	0	0	4,632314	1,22625	283,338	-0,072	87,576	0	1017,64	6,5	8,6	8,3	1	1	1	1	1	1	1	1	1	0	1	-5,990134	273,730448	312,338345	0
15.01.2021	23:11:12	0	0	3,841431	1,20375	283,572	-0,071	87,574	0	1017,64	6,5	8,6	8,3	1	1	1	1	1	1	1	1	1	0	1	-6,483439	273,836144	312,336988	0
15.01.2021	23:11:13	0	0	2,937565	1,215	281,7936	-0,073	87,574	0	1017,54	6,5	8,6	8,3	1	1	1	1	1	1	1	1	1	0	1	-5,990134	273,69973	312,195475	0
15.01.2021	23:11:14	0	0	4,293365	1,2075	280,224	-0,075	87,585	0	1017,64	6,5	8,6	8,3	1	1	1	1	1	1	1	1	1	0	1	-4,016913	273,8332	314,789804	0
15.01.2021	23:11:15	0	0	2,598615	1,20075	277,2432	-0,069	87,582	0	1017,52	6,5	8,6	8,3	1	1	1	1	1	1	1	1	1	0	1	-8,738548	273,704115	309,467454	0
15.01.2021	23:11:16	0	0	4,971264	1,2405	274,6872	-0,071	87,567	0	1017,66	6,5	8,6	8,3	1	1	1	1	1	1	1	1	1	0	1	-7,047216	273,658848	310,948328	0
15.01.2021	23:11:17	0	0	4,180381	1,236	282,1644	-0,074	87,58	0	1017,6	6,5	8,5	8,3	1	1	1	1	1	1	1	1	1	0	1	-14,164905	273,762683	304,313545	0
15.01.2021	23:11:18	0	0	4,745298	1,22025	282,7404	-0,073	87,575	0	1017,62	6,5	8,6	8,3	1	1	1	1	1	1	1	1	1	0	1	-1,550388	273,676358	316,526553	0
15.01.2021	23:11:19	0	0	2,711599	1,2045	274,2984	-0,071	87,592	0	1017,68	6,5	8,6	8,3	1	1	1	1	1	1	1	1	1	0	1	-10,852713	273,693884	307,305713	0
15.01.2021	23:11:20	0	0	2,937565	1,2255	275,382	-0,073	87,58	0	1017,66	6,5	8,6	8,3	1	1	1	1	1	1	1	1	1	0	1	-6,8358	273,812606	311,875022	0
15.01.2021	23:11:21	0	0	4,067398	1,23075	279,936	-0,072	87,586	0	1017,68	6,5	8,5	8,3	1	1	1	1	1	1	1	1	1	0	1	-8,104299	273,803786	310,565463	0
15.01.2021	23:11:22	0	0	2,711599	1,19475	276,1704	-0,076	87,589	0	1017,78	6,5	8,6	8,3	1	1	1	1	1	1	1	1	1	0	1	-4,439746	273,828785	314,346412	0
15.01.2021	23:11:23	0	0	4,406348	1,2195	271,026	-0,079	87,582	0	1017,56	6,5	8,6	8,3	1	1	1	1	1	1	1	1	1	0	1	-4,933051	273,709964	313,30015	0
15.01.2021	23:11:24	0	0	2,937565	1,18425	276,4836	-0,073	87,582	0	1017,66	6,5	8,6	8,3	1	1	1	1	1	1	1	1	1	0	1	-6,976744	273,839088	311,857395	0
15.01.2021	23:11:25	0	0	4,745298	1,176	279,2628	-0,076	87,58	0	1017,64	6,5	8,6	8,3	1	1	1	1	1	1	1	1	1	0	1	-10,218464	273,802317	308,444457	0
15.01.2021	23:11:26	0	0	4,406348	1,185	279,9324	-0,071	87,581	0	1017,64	6,5	8,6	8,3	1	1	1	1	1	1	1	1	1	0	1	-9,372798	273,663224	308,643087	0
15.01.2021	23:11:27	0	0	4,180381	1,2015	274,6296	-0,078	87,578	0	1017,58	6,5	8,6	8,3	1	1	1	1	1	1	1	1	1	0	1	-5,144468	273,704115	313,061534	0
15.01.2021	23:11:28	0	0	3,050548	1,242	275,7852	-0,074	87,572	0	1017,84	6,5	8,6	8,3	1	1	1	1	1	1	1	1	1	0	1	-6,412967	273,839088	312,421172	0
15.01.2021	23:11:29	0	0	4,745298	1,2345	276,174	-0,077	87,563	0	1017,56	6,5	8,6	8,3	1	1	1	1	1	1	1	1	1	0	1	-7,610994	273,811135	311,092983	0
15.01.2021	23:11:30	0	0	3,276515	1,16325	276,4476	-0,072	87,588	0	1017,56	6,5	8,6	8,3	1	1	1	1	1	1	1	1	1	0	1	-6,20155	273,75975	312,263253	0
15.01.2021	23:11:31	0	0	4,180381	1,13775	281,3796	-0,071	87,582	0	1017,68	6,5	8,6	8,3	1	1	1	1	1	1	1	1	1	0	1	-6,483439	273,670519	311,566359	0
15.01.2021	23:11:32	0	0	4,971264	1,11975	276,1344	-0,082	87,576	0	1017,6	6,5	8,6	8,3	1	1	1	1	1	1	1	1	1	0	1	-7,610994	273,809665	311,086139	0
15.01.2021	23:11:33	0	0	4,858281	1,08675	272,898	-0,071	87,595	0	1017,56	6,5	8,6	8,3	1	1	1	1	1	1	1	1	1	0	1	-7,82241	273,666142	310,207038	0
15.01.2021	23:11:34	0	0	3,954415	1,116	277,1964	-0,079	87,589	0	1017,6	6,5	8,6	8,3	1	1	1	1	1	1	1	1	1	0	1	-10,077519	273,680738	308,019784	0
15.01.2021	23:11:35	0	0	2,485632	1,1205	278,0892	-0,072	87,595	0	1017,78	6,5	8,6	8,3	1	1	1	1	1	1	1	1	1	0	1	-5,003524	273,809665	313,693609	0
15.01.2021	23:11:36	0	0	4,067398	1,107	273,978	-0,074	87,595	0	1017,74	6,5	8,6	8,3	1	1	1	1	1	1	1	1	1	0	1	-4,651163	273,803786	314,018599	0
15.01.2021	23:11:37	0	0	3,389498	1,15575	275,0544	-0,076	87,587	0	1017,68	6,5	8,6	8,3	1	1	1	1	1	1	1	1	1	0	1	-6,483439	273,696807	311,688577	0
15.01.2021	23:11:38	0	0	3,502482	1,23075	276,4152	-0,08	87,585	0	1017,56	6,5	8,6	8,3	1	1	1	1	1	1	1	1	1	0	1	-3,805497	273,821429	314,946408	0
15.01.2021	23:11:39	0	0	2,598615	1,25775	273,8736	-0,081	87,582	0	1017,42	6,5	8,5	8,3	1	1	1	1	1	1	1	1	1	0	1	-3,664553	273,806726	315,018894	0
15.01.2021	23:11:40	0	0	4,067398	1,2285	273,1896	-0,076	87,586	0	1017,74	6,5	8,5	8,3	1	1	1	1	1	1	1	1	1	0	1	-9,090909	273,828785	309,695249	0
15.01.2021	23:11:41	0	0	3,389498	1,26075	270,2772	-0,079	87,575	0	1017,66	6,5	8,6	8,3	1	1	1	1	1	1	1	1	1	0	1	-5,426357	273,814076	313,291311	0
15.01.2021	23:11:42	0	0	4,858281	1,25325	271,0188	-0,075	87,576	0	1017,58	6,5	8,6	8,3	1	1	1	1	1	1	1	1	1	0	1	-8,597604	273,806726	310,085842	0
15.01.2021	23:11:43	0	0	4,858281	1,26975	272,4336	-0,077	87,599	0	1017,7	6,5	8,6	8,3	1	1	1	1	1	1	1	1	1	0	1	-7,751938	273,789096	310,849441	0
15.01.2021	23:11:44	0	0	4,180381	1,25925	264,5892	-0,075	87,584	0	1017,58	6,5	8,6	8,3	1	1	1	1	1	1	1	1	1	0	1	-8,949965	273,677818	309,133763	0
15.01.2021	23:11:45	0	0	2,711599	1,248	266,6088	-0,07	87,589	0	1017,6	6,5	8,6	8,3	1	1	1	1	1	1	1	1	1	0	1	-5,708245	273,696807	312,463771	0
15.01.2021	23:11:46	0	0	4,632314	1,254	268,0272	-0,08	87,6	0	1017,7	6,5	8,6	8,3	1	1	1	1	1	1	1	1	1	0	1	-5,778717	273,682198	312,325375	0
15.01.2021	23:11:47	0	0	4,858281	1,218	270,6408	-0,075	87,602	0	1017,66	6,5	8,6	8,3	1	1	1	1	1	1	1	1	1	0	1	-1,761804	273,726057	316,546248	0
15.01.2021	23:11:48	0	0	3,050548	1,2	268,6572	-0,074	87,579	0	1017,46	6,5	8,6	8,3	1	1	1	1	1	1	1	1	1	0	1	-4,510218	273,666142	313,51923	0
15.01.2021	23:11:49	0	0	4,632314	1,18125	263,214	-0,072	87,592	0	1017,78	6,5	8,6	8,3	1	1	1	1	1	1	1	1	1	0	1	-8,668076	273,781755	309,899136	0
15.01.2021	23:11:50	0	0	3,276515	1,173	263,5668	-0,073	87,591	0	1017,6	6,5	8,5	8,3	1	1	1	1	1	1	1	1	1	0	1	-2,043693	273,66906	315,999322	0
15.01.2021	23:11:51	0	0	4,745298	1,16925	265,1148	-0,074	87,59	0	1017,68	6,5	8,6	8,3	1	1	1	1	1	1	1	1	1	0	1	-5,567301	273,784691	313,013576	0
15.01.2021	23:11:52	0	0	4,067398	1,158	263,5956	-0,08	87,59	0	1017,7	6,5	8,6	8,3	1	1	1	1	1	1	1	1	1	0	1	-5,990134	273,8332	312,816583	0
15.01.2021	23:11:53	0	0	3,276515	1,1685	259,182	-0,075	87,577	0	1017,62	6,5	8,6	8,3	1	1	1	1	1	1	1	1	1	0	1	-5,355884	273,730448	312,972595	0
15.01.2021	23:11:54	0	0	4,067398	1,1655	255,5352	-0,076	87,596	0	1017,56	6,5	8,6	8,3	1	1	1	1	1	1	1	1	1	0	1	-7,963354	273,664683	310,059312	0
15.01.2021	23:11:55	0	0	3,163532	1,1805	259,9056	-0,075	87,592	0	1017,64	6,5	8,6	8,3	1	1	1	1	1	1	1	1	1	0	1	-5,426357	273,777352	313,120362	0
15.01.2021	23:11:56	0	0	4,632314	1,13775	269,1684	-0,076	87,582	0	1017,68	6,4	8,6	8,3	1	1	1	1	1	1	1	1	1	0	1	-8,879493	273,690962	309,265347	0
15.01.2021	23:11:57	0	0	3,276515	1,14375	271,2888	-0,076	87,605	0	1017,68	6,5	8,6	8,3	1	1	1	1	1	1	1	1	1	0	1	-4,792107	273,849396	314,090044	0
15.01.2021	23:11:58	0	0	2,711599	1,074	261,738	-0,08	87,58	0	1017,56	6,5	8,6	8,3	1	1	1	1	1	1	1	1	1	0	1	-6,694856	273,715814	311,565556	0
15.01.2021	23:11:59	0	0	2,598615	1,09275	269,1972	-0,084	87,591	0	1017,38	6,5	8,6	8,3	1	1	1	1	1	1	1	1	1	0	1	-10,570825	273,673438	307,492544	0
15.01.2021	23:12:00	0	0	3,502482	1,1685	275,4072	-0,08	87,573	0	1017,58	6,5	8,6	8,3	1	1	1	1	1	1	1	1	1	0	1	-8,386187	273,733377	309,955913	0
15.01.2021	23:12:01	0	0	4,858281	1,1745	270,3204	-0,074	87,591	0	1017,62	6,5	8,6	8,3	1	1	1	1	1	1	1	1	1	0	1	-8,45666	273,827313	310,322646	0
15.01.2021	23:12:02	0	0	3,841431	1,22025	263,1816	-0,079	87,569	0	1017,5	6,5	8,6	8,3	1	1	1	1	1	1	1	1	1	0	1	-8,174771	273,808195	310,515518	0
15.01.2021	23:12:03	0	0	3,502482	1,2435	262,4688	-0,078	87,588	0	1017,56	6,5	8,5	8,3	1	1	1	1	1	1	1	1	1	0	1	-4,439746	273,787628	314,154798	0
15.01.2021	23:12:04	0	0	3,163532	1,22925	270,648	-0,079	87,582	0	1017,52	6,5	8,6	8,3	1	1	1	1	1	1	1	1	1	0	1	-5,285412	273,679278	312,805103	0
15.01.2021	23:12:05	0	0	4,406348	1,2675	269,8596	-0,081	87,585	0	1017,7	6,5	8,6	8,3	1	1	1	1	1	1	1	1	1	0	1	-8,245243	273,836144	310,575184	0
15.01.2021	23:12:06	0	0	3,728448	1,32825	279,1944	-0,083	87,584	0	1017,6	6,5	8,6	8,3	1	1	1	1	1	1	1	1	1	0	1	-8,597604	273,828785	310,188554	0
15.01.2021	23:12:07	0	0	4,293365	1,40775	281,034	-0,074	87,592	0	1017,74	6,5	8,6	8,3	1	1	1	1	1	1	1	1	1	0	1	-12,473573	273,66906	305,569441	0
15.01.2021	23:12:08	0	0	2,937565	1,401	268,0344	-0,082	87,584	0	1017,7	6,5	8,6	8,3	1	1	1	1	1	1	1	1	1	0	1	-10,42988	273,671979	307,626703	0
15.01.2021	23:12:09	0	0	2,598615	1,37625	262,782	-0,075	87,583	0	1017,64	6,5	8,6	8,3	1	1	1	1	1	1	1	1	1	0	1	-5,496829	273,708501	312,729572	0
15.01.2021	23:12:10	0	0	2,711599	1,4115	269,9568	-0,073	87,58	0	1017,56	6,5	8,6	8,3	1	1	1	1	1	1	1	1	1	0	1	-8,45666	273,828785	310,329498	0
15.01.2021	23:12:11	0	0	3,050548	1,4115	272,0412	-0,082	87,567	0	1017,52	6,5	8,6	8,3	1	1	1	1	1	1	1	1	1	0	1	-4,510218	273,806726	314,173228	0
15.01.2021	23:12:12	0	0	2,259666	1,407	271,3896	-0,081	87,57	0	1017,66	6,5	8,6	8,3	1	1	1	1	1	1	1	1	1	0	1	-7,117689	273,836144	311,702738	0
15.01.2021	23:12:13	0	0	2,937565	1,476	272,394	-0,082	87,564	0	1017,54	6,5	8,6	8,3	1	1	1	1	1	1	1	1	1	0	1	-6,553911	273,711426	311,686092	0
15.01.2021	23:12:14	0	0	4,632314	1,55475	270,3384	-0,078	87,594	0	1017,7	6,5	8,6	8,3	1	1	1	1	1	1	1	1	1	0	1	-3,171247	273,658848	314,824297	0
15.01.2021	23:12:15	0	0	4,519331	1,542	269,1648	-0,086	87,587	0	1017,58	6,5	8,6	8,3	1	1	1	1	1	1	1	1	1	0	1	-7,470049	273,765616	311,022049	0
15.01.2021	23:12:16	0	0	5,310214	1,4775	269,9172	-0,077	87,579	0	1017,74	6,5	8,6	8,3	1	1	1	1	1	1	1	1	1	0	1	-6,624383	273,790565	311,983831	0
15.01.2021	23:12:17	0	0	3,502482	1,41375	271,062	-0,081	87,591	0	1017,64	6,5	8,6	8,3	1	1	1	1	1	1	1	1	1	0	1	-5,990134	273,66906	312,05288	0
15.01.2021	23:12:18	0	0	2,598615	1,37625	271,3968	-0,062	87,587	0	1017,8	6,5	8,6	8,3	1	1	1	1	1	1	1	1	1	0	1	-4,510218	273,712889	313,736587	0
15.01.2021	23:12:19	0	0	4,293365	1,34625	269,6292	-0,086	87,568	0	1017,64	6,5	8,6	8,3	1	1	1	1	1	1	1	1	1	0	1	-5,073996	273,834672	313,739576	0
15.01.2021	23:12:20	0	0	4,632314	1,27425	282,1176	-0,085	87,583	0	1017,54	6,5	8,5	8,3	1	1	1	1	1	1	1	1	1	0	1	-7,892882	273,79644	310,74268	0
15.01.2021	23:12:21	0	0	4,745298	1,18725	280,9224	-0,08	87,585	0	1017,7	6,5	8,6	8,3	1	1	1	1	1	1	1	1	1	0	1	-7,047216	273,836144	311,77321	0
15.01.2021	23:12:22	0	0	4,293365	1,158	275,796	-0,082	87,584	0	1017,48	6,5	8,6	8,3	1	1	1	1	1	1	1	1	1	0	1	-5,003524	273,784691	313,577353	0
15.01.2021	23:12:23	0	0	4,519331	1,17225	274,248	-0,085	87,584	0	1017,54	6,5	8,6	8,3	1	1	1	1	1	1	1	1	1	0	1	-5,919662	273,664683	312,103004	0
15.01.2021	23:12:24	0	0	2,485632	1,14	280,1952	-0,084	87,581	0	1017,62	6,5	8,6	8,3	1	1	1	1	1	1	1	1	1	0	1	-9,231853	273,811135	309,472124	0
15.01.2021	23:12:25	0	0	3,615465	1,119	288,522	-0,088	87,59	0	1017,66	6,5	8,6	8,3	1	1	1	1	1	1	1	1	1	0	1	-5,496829	273,805256	313,179775	0
15.01.2021	23:12:26	0	0	2,937565	1,08075	288,4068	-0,085	87,592	0	1017,64	6,5	8,6	8,3	1	1	1	1	1	1	1	1	1	0	1	-8,386187	273,828785	310,39997	0
15.01.2021	23:12:27	0	0	2,485632	1,0365	291,7728	-0,077	87,596	0	1017,84	6,5	8,6	8,3	1	1	1	1	1	1	1	1	1	0	1	-3,24172	273,654473	314,733489	0
15.01.2021	23:12:28	0	0	5,084247	1,03275	291,4236	-0,084	87,581	0	1017,6	6,5	8,6	8,3	1	1	1	1	1	1	1	1	1	0	1	-9,161381	273,774418	309,371679	0
15.01.2021	23:12:29	0	0	2,824582	1,059	290,538	-0,081	87,581	0	1017,7	6,5	8,6	8,3	1	1	1	1	1	1	1	1	1	0	1	-5,708245	273,834672	313,105327	0
15.01.2021	23:12:30	0	0	4,971264	1,08225	284,112	-0,09	87,587	0	1017,68	6,5	8,6	8,3	1	1	1	1	1	1	1	1	1	0	1	-7,399577	273,77882	311,153972	0
15.01.2021	23:12:31	0	0	2,598615	1,06425	283,5504	-0,08	87,657	0	1017,8	6,5	8,6	8,3	1	1	1	1	1	1	1	1	1	0	1	-3,664553	273,825842	315,107902	0
15.01.2021	23:12:32	0	0	3,728448	1,0875	288,0432	-0,086	87,598	0	1017,62	6,5	8,6	8,3	1	1	1	1	1	1	1	1	1	0	1	-3,523608	273,794971	315,105117	0
15.01.2021	23:12:33	0	0	3,728448	1,11	288,7704	-0,081	87,595	0	1017,56	6,5	8,5	8,3	1	1	1	1	1	1	1	1	1	0	1	-5,21494	273,8332	313,591777	0
15.01.2021	23:12:34	0	0	3,954415	1,125	285,84	-0,081	87,597	0	1017,66	6,5	8,6	8,3	1	1	1	1	1	1	1	1	1	0	1	-7,540521	273,825842	311,231933	0
15.01.2021	23:12:35	0	0	4,632314	1,1295	301,5396	-0,084	87,597	0	1017,56	6,5	8,6	8,3	1	1	1	1	1	1	1	1	1	0	1	-6,342495	273,704115	311,863507	0
15.01.2021	23:12:36	0	0	4,745298	1,12875	300,06	-0,079	87,591	0	1017,58	6,5	8,6	8,3	1	1	1	1	1	1	1	1	1	0	1	-6,624383	273,834672	312,189188	0
15.01.2021	23:12:37	0	0	4,519331	1,12725	291,7656	-0,085	87,583	0	1017,62	6,5	8,5	8,3	1	1	1	1	1	1	1	1	1	0	1	-12,473573	273,724593	305,827671	0
15.01.2021	23:12:38	0	0	4,067398	1,155	293,3208	-0,078	87,593	0	1017,5	6,5	8,6	8,3	1	1	1	1	1	1	1	1	1	0	1	-5,778717	273,830256	313,014293	0
15.01.2021	23:12:39	0	0	4,067398	1,17075	300,06	-0,088	87,583	0	1017,54	6,5	8,6	8,3	1	1	1	1	1	1	1	1	1	0	1	-10,007047	273,742164	308,375931	0
15.01.2021	23:12:40	0	0	5,084247	1,167	298,0224	-0,081	87,597	0	1017,66	6,5	8,5	8,3	1	1	1	1	1	1	1	1	1	0	1	-5,073996	273,655931	312,907991	0
15.01.2021	23:12:41	0	0	2,937565	1,18575	300,7944	-0,088	87,588	0	1017,7	6,4	8,6	8,3	1	1	1	1	1	1	1	1	1	0	1	-5,496829	273,787628	313,097716	0
15.01.2021	23:12:42	0	0	3,841431	1,155	300,2148	-0,083	87,588	0	1017,56	6,5	8,6	8,3	1	1	1	1	1	1	1	1	1	0	1	-2,536998	273,69973	315,648611	0
15.01.2021	23:12:43	0	0	3,615465	1,143	289,206	-0,085	87,596	0	1017,56	6,5	8,6	8,3	1	1	1	1	1	1	1	1	1	0	1	-4,792107	273,671979	313,264476	0
15.01.2021	23:12:44	0	0	3,276515	1,1055	291,8988	-0,084	87,592	0	1017,62	6,5	8,6	8,3	1	1	1	1	1	1	1	1	1	0	1	-7,892882	273,794971	310,735842	0
15.01.2021	23:12:45	0	0	3,728448	1,053	296,784	-0,089	87,58	0	1017,48	6,5	8,6	8,3	1	1	1	1	1	1	1	1	1	0	1	-6,060606	273,679278	312,029909	0
15.01.2021	23:12:46	0	0	4,406348	1,0425	289,5624	-0,087	87,586	0	1017,64	6,5	8,6	8,3	1	1	1	1	1	1	1	1	1	0	1	-5,355884	273,792033	313,259166	0
15.01.2021	23:12:47	0	0	3,163532	1,07925	292,5936	-0,088	87,597	0	1017,62	6,5	8,6	8,3	1	1	1	1	1	1	1	1	1	0	1	-3,946441	273,799378	314,702799	0
15.01.2021	23:12:48	0	0	4,406348	1,06875	295,4772	-0,084	87,592	0	1017,56	6,5	8,6	8,3	1	1	1	1	1	1	1	1	1	0	1	-13,601128	273,774418	304,931932	0
15.01.2021	23:12:49	0	0	2,598615	1,0845	295,236	-0,083	87,599	0	1017,64	6,5	8,6	8,3	1	1	1	1	1	1	1	1	1	0	1	-8,949965	273,658848	309,045579	0
15.01.2021	23:12:50	0	0	3,163532	1,08075	296,5752	-0,086	87,593	0	1017,56	6,5	8,6	8,3	1	1	1	1	1	1	1	1	1	0	1	-13,953488	273,768549	304,552261	0
15.01.2021	23:12:51	0	0	3,163532	1,06425	291,2112	-0,084	87,593	0	1017,64	6,5	8,6	8,3	1	1	1	1	1	1	1	1	1	0	1	-7,188161	273,8332	311,618557	0
15.01.2021	23:12:52	0	0	2,824582	1,05825	286,9632	-0,086	87,594	0	1017,66	6,5	8,6	8,3	1	1	1	1	1	1	1	1	1	0	1	-3,523608	273,75975	314,941195	0
15.01.2021	23:12:53	0	0	2,485632	1,04325	286,902	-0,086	87,603	0	1017,56	6,5	8,6	8,3	1	1	1	1	1	1	1	1	1	0	1	-11,557435	273,834672	307,256137	0
15.01.2021	23:12:54	0	0	4,293365	1,0335	294,4548	-0,089	87,608	0	1017,52	6,5	8,6	8,3	1	1	1	1	1	1	1	1	1	0	1	-9,795631	273,802317	308,86729	0
15.01.2021	23:12:55	0	0	4,632314	1,0395	290,8008	-0,085	87,612	0	1017,66	6,5	8,6	8,3	1	1	1	1	1	1	1	1	1	0	1	-3,946441	273,670519	314,103357	0
15.01.2021	23:12:56	0	0	2,824582	1,023	280,962	-0,087	87,604	0	1017,64	6,5	8,6	8,3	1	1	1	1	1	1	1	1	1	0	1	-7,540521	273,673438	310,522847	0
15.01.2021	23:12:57	0	0	4,406348	1,0455	278,0172	-0,092	87,601	0	1017,52	6,4	8,6	8,3	1	1	1	1	1	1	1	1	1	0	1	-3,875969	273,727521	314,438891	0
15.01.2021	23:12:58	0	0	2,824582	1,03725	273,9312	-0,084	87,623	0	1017,64	6,5	8,6	8,3	1	1	1	1	1	1	1	1	1	0	1	-4,792107	273,667601	313,244124	0
15.01.2021	23:12:59	0	0	2,146682	1,04625	269,9064	-0,085	87,615	0	1017,62	6,5	8,6	8,3	1	1	1	1	1	1	1	1	1	0	1	-1,409443	273,745094	316,987166	0
15.01.2021	23:13:00	0	0	4,745298	1,0905	276,7572	-0,086	87,603	0	1017,62	6,5	8,6	8,3	1	1	1	1	1	1	1	1	1	0	1	-6,765328	273,784691	311,815549	0
15.01.2021	23:13:01	0	0	3,389498	1,1115	269,9064	-0,086	87,608	0	1017,56	6,5	8,6	8,3	1	1	1	1	1	1	1	1	1	0	1	-5,426357	273,670519	312,623442	0
15.01.2021	23:13:02	0	0	4,632314	1,161	263,5236	-0,087	87,614	0	1017,62	6,4	8,6	8,3	1	1	1	1	1	1	1	1	1	0	1	-1,902748	273,842033	316,945105	0
15.01.2021	23:13:03	0	0	2,711599	1,13175	264,9672	-0,083	87,614	0	1017,62	6,5	8,6	8,3	1	1	1	1	1	1	1	1	1	0	1	-6,342495	273,781755	312,224717	0
15.01.2021	23:13:04	0	0	2,711599	1,137	268,4304	-0,087	87,613	0	1017,6	6,5	8,6	8,3	1	1	1	1	1	1	1	1	1	0	1	-2,889359	273,8332	315,917359	0
15.01.2021	23:13:05	0	0	5,536181	1,0755	271,3572	-0,083	87,616	0	1017,58	6,5	8,6	8,3	1	1	1	1	1	1	1	1	1	0	1	-4,933051	273,784691	313,647825	0
15.01.2021	23:13:06	0	0	2,937565	1,02825	272,4408	-0,087	87,618	0	1017,54	6,5	8,6	8,3	1	1	1	1	1	1	1	1	1	0	1	-6,553911	273,844978	312,307659	0
15.01.2021	23:13:07	0	0	4,745298	0,97125	270,576	-0,091	87,613	0	1017,6	6,5	8,6	8,3	1	1	1	1	1	1	1	1	1	0	1	-3,312192	273,827313	315,467114	0
15.01.2021	23:13:08	0	0	2,824582	0,9675	270,3672	-0,085	87,617	0	1017,56	6,5	8,6	8,3	1	1	1	1	1	1	1	1	1	0	1	-8,315715	273,780288	310,244665	0
15.01.2021	23:13:09	0	0	4,632314	0,95175	270,54	-0,086	87,626	0	1017,68	6,5	8,6	8,3	1	1	1	1	1	1	1	1	1	0	1	-4,369274	273,8332	314,437443	0
15.01.2021	23:13:10	0	0	3,050548	0,9285	271,0008	-0,088	87,624	0	1017,66	6,5	8,6	8,3	1	1	1	1	1	1	1	1	1	0	1	-6,131078	273,780288	312,429302	0
15.01.2021	23:13:11	0	0	5,310214	0,9405	272,844	-0,09	87,606	0	1017,52	6,5	8,6	8,3	1	1	1	1	1	1	1	1	1	0	1	-4,792107	273,68804	313,339147	0
15.01.2021	23:13:12	0	0	4,745298	0,96	271,3644	-0,088	87,611	0	1017,48	6,5	8,6	8,3	1	1	1	1	1	1	1	1	1	0	1	-11,205074	273,811135	307,498903	0
15.01.2021	23:13:13	0	0	4,519331	1,01475	270,936	-0,089	87,605	0	1017,5	6,5	8,6	8,3	1	1	1	1	1	1	1	1	1	0	1	-5,426357	273,802317	313,236564	0
15.01.2021	23:13:14	0	0	3,163532	1,041	268,812	-0,091	87,619	0	1017,62	6,5	8,6	8,3	1	1	1	1	1	1	1	1	1	0	1	-8,45666	273,711426	309,783343	0
15.01.2021	23:13:15	0	0	2,598615	1,01625	264,4308	-0,088	87,627	0	1017,74	6,5	8,6	8,3	1	1	1	1	1	1	1	1	1	0	1	-4,721635	273,831728	314,078229	0
15.01.2021	23:13:16	0	0	4,858281	0,9615	267,3216	-0,085	87,621	0	1017,6	6,5	8,6	8,3	1	1	1	1	1	1	1	1	1	0	1	-5,426357	273,721667	312,861274	0
15.01.2021	23:13:17	0	0	3,163532	0,9375	274,3272	-0,092	87,621	0	1017,48	6,5	8,6	8,3	1	1	1	1	1	1	1	1	1	0	1	-8,386187	273,680738	309,711116	0
15.01.2021	23:13:18	0	0	4,858281	0,9225	275,0688	-0,092	87,614	0	1017,26	6,5	8,6	8,3	1	1	1	1	1	1	1	1	1	0	1	-4,439746	273,800847	314,216334	0
15.01.2021	23:13:19	0	0	2,937565	0,924	276,4512	-0,09	87,631	0	1017,74	6,5	8,6	8,3	1	1	1	1	1	1	1	1	1	0	1	-5,355884	273,701191	312,836521	0
15.01.2021	23:13:20	0	0	4,632314	0,95025	279,8172	-0,08	87,637	0	1017,68	6,5	8,6	8,3	1	1	1	1	1	1	1	1	1	0	1	-6,765328	273,842033	312,082526	0
15.01.2021	23:13:21	0	0	4,858281	1,00575	278,4276	-0,088	87,626	0	1017,54	6,5	8,6	8,3	1	1	1	1	1	1	1	1	1	0	1	-12,473573	273,839088	306,360566	0
15.01.2021	23:13:22	0	0	4,632314	1,04025	276,2028	-0,091	87,627	0	1017,76	6,5	8,6	8,3	1	1	1	1	1	1	1	1	1	0	1	-10,852713	273,715814	307,407698	0
15.01.2021	23:13:23	0	0	3,163532	1,053	275,688	-0,089	87,64	0	1017,64	6,5	8,6	8,3	1	1	1	1	1	1	1	1	1	0	1	-5,496829	273,680738	312,600475	0
15.01.2021	23:13:24	0	0	3,615465	1,0155	279,2124	-0,096	87,63	0	1017,58	6,5	8,6	8,3	1	1	1	1	1	1	1	1	1	0	1	-8,597604	273,767082	309,90132	0
15.01.2021	23:13:25	0	0	4,293365	0,99825	275,7132	-0,096	87,622	0	1017,52	6,5	8,6	8,3	1	1	1	1	1	1	1	1	1	0	1	-8,315715	273,831728	310,484148	0
15.01.2021	23:13:26	0	0	4,180381	1,0275	271,386	-0,094	87,625	0	1017,56	6,5	8,6	8,3	1	1	1	1	1	1	1	1	1	0	1	-7,681466	273,71874	310,592554	0
15.01.2021	23:13:27	0	0	4,519331	1,02525	258,4728	-0,087	87,629	0	1017,7	6,5	8,6	8,3	1	1	1	1	1	1	1	1	1	0	1	-8,033827	273,654473	309,941382	0
15.01.2021	23:13:28	0	0	3,276515	1,03725	260,6328	-0,09	87,638	0	1017,64	6,5	8,6	8,3	1	1	1	1	1	1	1	1	1	0	1	-2,959831	273,73777	315,402706	0
15.01.2021	23:13:29	0	0	3,389498	1,05075	274,6512	-0,09	87,614	0	1017,66	6,5	8,6	8,3	1	1	1	1	1	1	1	1	1	0	1	-3,59408	273,84056	315,246915	0
15.01.2021	23:13:30	0	0	4,632314	1,0425	272,8296	-0,089	87,63	0	1017,64	6,5	8,6	8,3	1	1	1	1	1	1	1	1	1	0	1	-9,161381	273,802317	309,50154	0
15.01.2021	23:13:31	0	0	4,745298	1,02675	266,5908	-0,092	87,631	0	1017,52	6,5	8,6	8,3	1	1	1	1	1	1	1	1	1	0	1	-5,073996	273,661765	312,935108	0
15.01.2021	23:13:32	0	0	3,954415	1,04775	264,96	-0,094	87,613	0	1017,64	6,5	8,6	8,3	1	1	1	1	1	1	1	1	1	0	1	-10,923185	273,712889	307,32362	0
15.01.2021	23:13:33	0	0	2,711599	1,029	266,6088	-0,09	87,614	0	1017,66	6,5	8,6	8,3	1	1	1	1	1	1	1	1	1	0	1	-3,312192	273,834672	315,50138	0
15.01.2021	23:13:34	0	0	5,084247	0,963	270,954	-0,086	87,635	0	1017,64	6,5	8,6	8,3	1	1	1	1	1	1	1	1	1	0	1	-5,990134	273,809665	312,706999	0
15.01.2021	23:13:35	0	0	3,389498	0,972	277,2036	-0,087	87,619	0	1017,76	6,5	8,6	8,3	1	1	1	1	1	1	1	1	1	0	1	-10,288936	273,695345	307,876285	0
15.01.2021	23:13:36	0	0	3,954415	1,029	276,5484	-0,087	87,619	0	1017,52	6,5	8,6	8,3	1	1	1	1	1	1	1	1	1	0	1	-8,949965	273,708501	309,276436	0
15.01.2021	23:13:37	0	0	4,180381	1,08225	271,7892	-0,088	87,613	0	1017,66	6,5	8,6	8,3	1	1	1	1	1	1	1	1	1	0	1	-6,694856	273,846451	312,173574	0
15.01.2021	23:13:38	0	0	3,276515	1,07325	274,644	-0,09	87,631	0	1017,68	6,5	8,6	8,3	1	1	1	1	1	1	1	1	1	0	1	-5,567301	273,758284	312,89068	0
15.01.2021	23:13:39	0	0	4,632314	1,095	274,662	-0,093	87,622	0	1017,64	6,5	8,6	8,3	1	1	1	1	1	1	1	1	1	0	1	-4,933051	273,847923	313,942239	0
15.01.2021	23:13:40	0	0	3,050548	1,0695	277,578	-0,093	87,638	0	1017,56	6,5	8,6	8,3	1	1	1	1	1	1	1	1	1	0	1	-3,946441	273,75975	314,518362	0
15.01.2021	23:13:41	0	0	3,389498	1,06725	283,1688	-0,086	87,63	0	1017,7	6,5	8,6	8,3	1	1	1	1	1	1	1	1	1	0	1	-5,990134	273,831728	312,80973	0
15.01.2021	23:13:42	0	0	5,310214	1,08225	280,2456	-0,091	87,643	0	1017,64	6,5	8,6	8,3	1	1	1	1	1	1	1	1	1	0	1	-5,144468	273,765616	313,34763	0
15.01.2021	23:13:43	0	0	2,937565	1,09275	274,6152	-0,089	87,636	0	1017,64	6,5	8,6	8,3	1	1	1	1	1	1	1	1	1	0	1	-3,171247	273,66906	314,871767	0
15.01.2021	23:13:44	0	0	5,084247	1,11075	273,8988	-0,093	87,625	0	1017,58	6,5	8,6	8,3	1	1	1	1	1	1	1	1	1	0	1	-7,540521	273,750955	310,883358	0
15.01.2021	23:13:45	0	0	4,293365	1,06875	273,1932	-0,089	87,624	0	1017,64	6,5	8,6	8,3	1	1	1	1	1	1	1	1	1	0	1	-4,580691	273,657389	313,408074	0
15.01.2021	23:13:46	0	0	4,293365	1,047	274,95	-0,089	87,629	0	1017,46	6,5	8,6	8,3	1	1	1	1	1	1	1	1	1	0	1	-3,664553	273,797909	314,977849	0
15.01.2021	23:13:47	0	0	3,615465	0,98475	280,962	-0,093	87,631	0	1017,62	6,5	8,6	8,3	1	1	1	1	1	1	1	1	1	0	1	-2,255109	273,844978	316,606461	0
15.01.2021	23:13:48	0	0	2,485632	1,02225	276,8544	-0,085	87,627	0	1017,62	6,5	8,6	8,3	1	1	1	1	1	1	1	1	1	0	1	-2,959831	273,740699	315,416333	0
15.01.2021	23:13:49	0	0	4,632314	1,0635	278,7732	-0,093	87,629	0	1017,62	6,5	8,5	8,3	1	1	1	1	1	1	1	1	1	0	1	-7,399577	273,815546	311,324937	0
15.01.2021	23:13:50	0	0	3,389498	1,10925	279,5436	-0,091	87,629	0	1017,8	6,5	8,6	8,3	1	1	1	1	1	1	1	1	1	0	1	-5,355884	273,842033	313,491969	0
15.01.2021	23:13:51	0	0	3,050548	1,128	276,3756	-0,092	87,619	0	1017,66	6,5	8,6	8,3	1	1	1	1	1	1	1	1	1	0	1	-4,792107	273,714352	313,461501	0
15.01.2021	23:13:52	0	0	2,711599	1,12425	273,1572	-0,093	87,642	0	1017,54	6,5	8,6	8,3	1	1	1	1	1	1	1	1	1	0	1	-4,298802	273,836144	314,521625	0
15.01.2021	23:13:53	0	0	4,067398	1,15875	277,5384	-0,091	87,627	0	1017,64	6,5	8,6	8,3	1	1	1	1	1	1	1	1	1	0	1	-7,188161	273,789096	311,413219	0
15.01.2021	23:13:54	0	0	3,615465	1,19775	268,794	-0,092	87,625	0	1017,52	6,4	8,6	8,3	1	1	1	1	1	1	1	1	1	0	1	-2,959831	273,664683	315,062835	0
15.01.2021	23:13:55	0	0	3,841431	1,18875	271,4148	-0,096	87,612	0	1017,56	6,4	8,6	8,3	1	1	1	1	1	1	1	1	1	0	1	-0,704722	273,663224	317,311163	0
15.01.2021	23:13:56	0	0	3,615465	1,21725	276,1452	-0,091	87,617	0	1017,56	6,4	8,6	8,3	1	1	1	1	1	1	1	1	1	0	1	-7,82241	273,808195	310,867879	0
15.01.2021	23:13:57	0	0	4,406348	1,2015	269,9496	-0,091	87,639	0	1017,4	6,5	8,6	8,3	1	1	1	1	1	1	1	1	1	0	1	-5,285412	273,674898	312,784742	0
15.01.2021	23:13:58	0	0	2,711599	1,1805	269,5356	-0,087	87,639	0	1017,54	6,5	8,6	8,3	1	1	1	1	1	1	1	1	1	0	1	-5,355884	273,701191	312,836521	0
15.01.2021	23:13:59	0	0	2,824582	1,173	270,2952	-0,093	87,645	0	1017,58	6,5	8,6	8,3	1	1	1	1	1	1	1	1	1	0	1	-2,325581	273,748024	316,084662	0
15.01.2021	23:14:00	0	0	2,824582	1,1235	278,0244	-0,092	87,638	0	1017,6	6,5	8,6	8,3	1	1	1	1	1	1	1	1	1	0	1	-4,369274	273,660306	313,633049	0
15.01.2021	23:14:01	0	0	3,841431	1,06725	280,944	-0,091	87,639	0	1017,54	6,5	8,6	8,3	1	1	1	1	1	1	1	1	1	0	1	-4,298802	273,799378	314,350439	0
15.01.2021	23:14:02	0	0	3,841431	1,074	284,1228	-0,091	87,639	0	1017,72	6,5	8,6	8,3	1	1	1	1	1	1	1	1	1	0	1	-7,258633	273,790565	311,349582	0
15.01.2021	23:14:03	0	0	3,163532	1,098	290,3292	-0,091	87,647	0	1017,4	6,5	8,6	8,3	1	1	1	1	1	1	1	1	1	0	1	-5,285412	273,676358	312,791528	0
15.01.2021	23:14:04	0	0	4,406348	1,05675	283,2012	-0,093	87,628	0	1017,66	6,5	8,6	8,3	1	1	1	1	1	1	1	1	1	0	1	-5,567301	273,72313	312,727136	0
15.01.2021	23:14:05	0	0	4,067398	1,104	281,3328	-0,098	87,643	0	1017,56	6,5	8,6	8,3	1	1	1	1	1	1	1	1	1	0	1	-15,081043	273,849396	303,801108	0
15.01.2021	23:14:06	0	0	5,197231	1,0935	280,2132	-0,093	87,631	0	1017,52	6,5	8,6	8,3	1	1	1	1	1	1	1	1	1	0	1	-8,033827	273,799378	310,615414	0
15.01.2021	23:14:07	0	0	3,389498	1,098	279,882	-0,09	87,642	0	1017,56	6,5	8,6	8,3	1	1	1	1	1	1	1	1	1	0	1	-6,976744	273,667601	311,059487	0
15.01.2021	23:14:08	0	0	4,180381	1,0545	284,7492	-0,089	87,636	0	1017,6	6,5	8,5	8,3	1	1	1	1	1	1	1	1	1	0	1	-10,641297	273,843505	308,213415	0
15.01.2021	23:14:09	0	0	5,310214	1,0305	283,1976	-0,091	87,634	0	1017,48	6,5	8,6	8,3	1	1	1	1	1	1	1	1	1	0	1	-6,060606	273,714352	312,193002	0
15.01.2021	23:14:10	0	0	3,050548	1,01625	283,1868	-0,089	87,643	0	1017,62	6,5	8,6	8,3	1	1	1	1	1	1	1	1	1	0	1	-6,483439	273,808195	312,20685	0
15.01.2021	23:14:11	0	0	2,711599	0,996	284,0256	-0,093	87,643	0	1017,42	6,5	8,6	8,3	1	1	1	1	1	1	1	1	1	0	1	-4,651163	273,79644	313,9844	0
15.01.2021	23:14:12	0	0	4,180381	1,03275	280,1952	-0,09	87,666	0	1017,48	6,5	8,6	8,3	1	1	1	1	1	1	1	1	1	0	1	-7,540521	273,836144	311,279905	0
15.01.2021	23:14:13	0	0	4,519331	1,00275	275,3712	-0,092	87,633	0	1017,78	6,5	8,6	8,3	1	1	1	1	1	1	1	1	1	0	1	-6,976744	273,793502	311,645143	0
15.01.2021	23:14:14	0	0	4,745298	1,0125	271,7496	-0,091	87,636	0	1017,62	6,5	8,6	8,3	1	1	1	1	1	1	1	1	1	0	1	-11,205074	273,714352	307,048534	0
15.01.2021	23:14:15	0	0	2,485632	1,0155	276,3576	-0,086	87,666	0	1017,62	6,5	8,6	8,3	1	1	1	1	1	1	1	1	1	0	1	-6,624383	273,819958	312,120673	0
15.01.2021	23:14:16	0	0	3,502482	0,9765	272,8116	-0,092	87,656	0	1017,84	6,5	8,6	8,3	1	1	1	1	1	1	1	1	1	0	1	-4,087385	273,733377	314,254715	0
15.01.2021	23:14:17	0	0	4,406348	0,94425	261,6984	-0,09	87,65	0	1017,56	6,5	8,6	8,3	1	1	1	1	1	1	1	1	1	0	1	-7,963354	273,842033	310,884499	0
15.01.2021	23:14:18	0	0	4,971264	0,90975	260,9244	-0,09	87,66	0	1017,52	6,5	8,6	8,3	1	1	1	1	1	1	1	1	1	0	1	-3,171247	273,797909	315,471154	0
15.01.2021	23:14:19	0	0	2,824582	0,8685	266,9652	-0,089	87,65	0	1017,58	6,5	8,6	8,3	1	1	1	1	1	1	1	1	1	0	1	-0	273,696807	318,172016	0
15.01.2021	23:14:20	0	0	3,163532	0,81675	273,2148	-0,087	87,653	0	1017,4	6,5	8,6	8,3	1	1	1	1	1	1	1	1	1	0	1	-8,45666	273,799378	310,192581	0
15.01.2021	23:14:21	0	0	5,084247	0,8055	268,0668	-0,092	87,662	0	1017,62	6,5	8,6	8,3	1	1	1	1	1	1	1	1	1	0	1	-6,765328	273,682198	311,338765	0
15.01.2021	23:14:22	0	0	4,745298	0,78825	262,0116	-0,087	87,661	0	1017,38	6,5	8,6	8,3	1	1	1	1	1	1	1	1	1	0	1	-8,245243	273,802317	310,417678	0
15.01.2021	23:14:23	0	0	5,084247	0,762	264,6504	-0,094	87,662	0	1017,54	6,5	8,6	8,3	1	1	1	1	1	1	1	1	1	0	1	-9,161381	273,797909	309,48102	0
15.01.2021	23:14:24	0	0	3,728448	0,7515	271,7064	-0,096	87,667	0	1017,6	6,5	8,6	8,3	1	1	1	1	1	1	1	1	1	0	1	-7,470049	273,84056	311,370946	0
15.01.2021	23:14:25	0	0	4,745298	0,74025	273,312	-0,094	87,654	0	1017,48	6,4	8,6	8,3	1	1	1	1	1	1	1	1	1	0	1	-5,496829	273,815546	313,227685	0
15.01.2021	23:14:26	0	0	4,632314	0,74775	272,412	-0,089	87,668	0	1017,58	6,5	8,6	8,3	1	1	1	1	1	1	1	1	1	0	1	-8,949965	273,792033	309,665086	0
15.01.2021	23:14:27	0	0	3,954415	0,71925	272,7828	-0,091	87,676	0	1017,58	6,5	8,6	8,3	1	1	1	1	1	1	1	1	1	0	1	-3,453136	273,658848	314,542408	0
15.01.2021	23:14:28	0	0	2,937565	0,72375	269,946	-0,095	87,674	0	1017,52	6,5	8,6	8,3	1	1	1	1	1	1	1	1	1	0	1	-7,540521	273,708501	310,685879	0
15.01.2021	23:14:29	0	0	5,310214	0,7305	267,4188	-0,097	87,656	0	1017,58	6,5	8,6	8,3	1	1	1	1	1	1	1	1	1	0	1	-6,412967	273,828785	312,373191	0
15.01.2021	23:14:30	0	0	5,084247	0,7425	265,7484	-0,096	87,67	0	1017,72	6,5	8,6	8,3	1	1	1	1	1	1	1	1	1	0	1	-8,879493	273,784691	309,701384	0
15.01.2021	23:14:31	0	0	4,519331	0,756	266,22	-0,091	87,676	0	1017,72	6,5	8,6	8,3	1	1	1	1	1	1	1	1	1	0	1	-4,651163	273,663224	313,364722	0
15.01.2021	23:14:32	0	0	5,084247	0,78375	266,2812	-0,089	87,675	0	1017,68	6,5	8,6	8,3	1	1	1	1	1	1	1	1	1	0	1	-5,073996	273,789096	313,527384	0
15.01.2021	23:14:33	0	0	4,406348	0,79125	265,7484	-0,09	87,673	0	1017,56	6,5	8,6	8,3	1	1	1	1	1	1	1	1	1	0	1	-3,664553	273,846451	315,203877	0
15.01.2021	23:14:34	0	0	2,824582	0,7935	268,074	-0,091	87,674	0	1017,54	6,5	8,6	8,3	1	1	1	1	1	1	1	1	1	0	1	-1,198027	273,780288	317,362353	0
15.01.2021	23:14:35	0	0	2,372649	0,792	269,1036	-0,094	87,687	0	1017,66	6,5	8,6	8,3	1	1	1	1	1	1	1	1	1	0	1	-8,033827	273,847923	310,841463	0
15.01.2021	23:14:36	0	0	3,050548	0,81825	268,8696	-0,097	87,68	0	1017,58	6,5	8,6	8,3	1	1	1	1	1	1	1	1	1	0	1	-5,285412	273,746559	313,118014	0
15.01.2021	23:14:37	0	0	4,519331	0,81075	268,8336	-0,1	87,676	0	1017,66	6,4	8,6	8,3	1	1	1	1	1	1	1	1	1	0	1	-4,087385	273,8332	314,719332	0
15.01.2021	23:14:38	0	0	4,180381	0,80025	273,51	-0,095	87,667	0	1017,62	6,4	8,6	8,3	1	1	1	1	1	1	1	1	1	0	1	-7,892882	273,705577	310,319919	0
15.01.2021	23:14:39	0	0	3,841431	0,75825	271,4076	-0,094	87,682	0	1017,72	6,5	8,6	8,3	1	1	1	1	1	1	1	1	1	0	1	-7,470049	273,8332	311,336668	0
15.01.2021	23:14:40	0	0	4,632314	0,75075	268,4016	-0,092	87,676	0	1017,62	6,5	8,5	8,3	1	1	1	1	1	1	1	1	1	0	1	-9,584214	273,830256	309,208796	0
15.01.2021	23:14:41	0	0	2,711599	0,70125	266,5728	-0,093	87,676	0	1017,6	6,5	8,6	8,3	1	1	1	1	1	1	1	1	1	0	1	-6,8358	273,714352	311,417808	0
15.01.2021	23:14:42	0	0	4,745298	0,6915	266,6052	-0,097	87,666	0	1017,5	6,5	8,6	8,3	1	1	1	1	1	1	1	1	1	0	1	-4,22833	273,834672	314,585242	0
15.01.2021	23:14:43	0	0	3,728448	0,65175	264,9996	-0,088	87,691	0	1017,78	6,5	8,6	8,3	1	1	1	1	1	1	1	1	1	0	1	-7,329105	273,787628	311,26544	0
15.01.2021	23:14:44	0	0	3,050548	0,63975	264,3048	-0,101	87,675	0	1017,54	6,5	8,6	8,3	1	1	1	1	1	1	1	1	1	0	1	-5,285412	273,844978	313,576158	0
15.01.2021	23:14:45	0	0	4,745298	0,62925	266,9436	-0,095	87,68	0	1017,56	6,5	8,6	8,3	1	1	1	1	1	1	1	1	1	0	1	-4,439746	273,714352	313,813861	0
15.01.2021	23:14:46	0	0	4,632314	0,65025	268,8264	-0,092	87,675	0	1017,6	6,5	8,6	8,3	1	1	1	1	1	1	1	1	1	0	1	-5,285412	273,670519	312,764386	0
15.01.2021	23:14:47	0	0	4,406348	0,62625	263,1384	-0,1	87,672	0	1017,56	6,5	8,6	8,3	1	1	1	1	1	1	1	1	1	0	1	-6,694856	273,711426	311,545147	0
15.01.2021	23:14:48	0	0	2,937565	0,633	258,7572	-0,1	87,687	0	1017,62	6,5	8,6	8,3	1	1	1	1	1	1	1	1	1	0	1	-7,82241	273,792033	310,792641	0
15.01.2021	23:14:49	0	0	4,745298	0,62925	258,0552	-0,091	87,68	0	1017,76	6,5	8,6	8,3	1	1	1	1	1	1	1	1	1	0	1	-3,24172	273,828785	315,544438	0
15.01.2021	23:14:50	0	0	4,745298	0,65625	260,244	-0,102	87,673	0	1017,5	6,5	8,6	8,3	1	1	1	1	1	1	1	1	1	0	1	-4,22833	273,780288	314,33205	0
15.01.2021	23:14:51	0	0	4,180381	0,67425	265,0212	-0,096	87,677	0	1017,46	6,5	8,6	8,3	1	1	1	1	1	1	1	1	1	0	1	-8,738548	273,843505	310,116163	0
15.01.2021	23:14:52	0	0	4,971264	0,72225	270,576	-0,093	87,689	0	1017,64	6,5	8,5	8,3	1	1	1	1	1	1	1	1	1	0	1	-8,879493	273,727521	309,435368	0
15.01.2021	23:14:53	0	0	4,971264	0,67125	268,7652	-0,098	87,677	0	1017,62	6,5	8,5	8,3	1	1	1	1	1	1	1	1	1	0	1	-7,399577	273,661765	310,609527	0
15.01.2021	23:14:54	0	0	4,180381	0,66525	259,4952	-0,096	87,676	0	1017,76	6,4	8,6	8,3	1	1	1	1	1	1	1	1	1	0	1	-4,22833	273,78616	314,359381	0
15.01.2021	23:14:55	0	0	3,954415	0,64425	257,2704	-0,091	87,695	0	1017,56	6,5	8,6	8,3	1	1	1	1	1	1	1	1	1	0	1	-9,090909	273,828785	309,695249	0
15.01.2021	23:14:56	0	0	2,824582	0,702	257,6844	-0,091	87,671	0	1017,52	6,5	8,6	8,3	1	1	1	1	1	1	1	1	1	0	1	-4,721635	273,683659	313,389247	0
15.01.2021	23:14:57	0	0	3,389498	0,7455	260,226	-0,092	87,694	0	1017,68	6,5	8,6	8,3	1	1	1	1	1	1	1	1	1	0	1	-4,651163	273,789096	313,950217	0
15.01.2021	23:14:58	0	0	4,971264	0,879	260,9928	-0,092	87,678	0	1017,66	6,4	8,6	8,3	1	1	1	1	1	1	1	1	1	0	1	-3,946441	273,8332	314,860276	0
15.01.2021	23:14:59	0	0	3,050548	0,93525	256,9428	-0,096	87,66	0	1017,42	6,5	8,6	8,3	1	1	1	1	1	1	1	1	1	0	1	-5,708245	273,739234	312,661105	0
15.01.2021	23:15:00	0	0	4,971264	0,93075	258,4476	-0,093	87,688	0	1017,6	6,5	8,6	8,3	1	1	1	1	1	1	1	1	1	0	1	-6,412967	273,664683	311,609699	0
15.01.2021	23:15:01	0	0	3,163532	0,9585	258,7392	-0,097	87,673	0	1017,54	6,4	8,6	8,3	1	1	1	1	1	1	1	1	1	0	1	-4,369274	273,787628	314,22527	0
15.01.2021	23:15:02	0	0	2,824582	0,921	257,292	-0,094	87,68	0	1017,54	6,5	8,6	8,3	1	1	1	1	1	1	1	1	1	0	1	-3,664553	273,655931	314,317434	0
15.01.2021	23:15:03	0	0	4,971264	0,918	253,818	-0,092	87,68	0	1017,68	6,5	8,6	8,3	1	1	1	1	1	1	1	1	1	0	1	-13,742072	273,720203	304,538753	0
15.01.2021	23:15:04	0	0	2,372649	0,909	256,9716	-0,088	87,678	0	1017,58	6,5	8,6	8,3	1	1	1	1	1	1	1	1	1	0	1	-3,664553	273,66906	314,378462	0
15.01.2021	23:15:05	0	0	4,293365	0,83025	255,132	-0,1	87,671	0	1017,56	6,5	8,6	8,3	1	1	1	1	1	1	1	1	1	0	1	-8,668076	273,740699	309,708088	0
15.01.2021	23:15:06	0	0	4,180381	0,80475	254,3616	-0,095	87,682	0	1017,6	6,5	8,6	8,3	1	1	1	1	1	1	1	1	1	0	1	-3,523608	273,834672	315,289964	0
15.01.2021	23:15:07	0	0	4,180381	0,7755	254,358	-0,092	87,677	0	1017,68	6,5	8,6	8,3	1	1	1	1	1	1	1	1	1	0	1	-5,285412	273,68804	312,845842	0
15.01.2021	23:15:08	0	0	3,276515	0,75075	255,798	-0,089	87,671	0	1017,54	6,5	8,6	8,3	1	1	1	1	1	1	1	1	1	0	1	-5,708245	273,679278	312,38227	0
15.01.2021	23:15:09	0	0	4,745298	0,7455	258,0696	-0,1	87,659	0	1017,5	6,5	8,5	8,3	1	1	1	1	1	1	1	1	1	0	1	-8,033827	273,825842	310,738628	0
15.01.2021	23:15:10	0	0	5,084247	0,79125	252,0324	-0,1	87,666	0	1017,56	6,5	8,6	8,3	1	1	1	1	1	1	1	1	1	0	1	-5,567301	273,797909	313,0751	0
15.01.2021	23:15:11	0	0	4,293365	0,82575	263,6136	-0,095	87,675	0	1017,56	6,5	8,6	8,3	1	1	1	1	1	1	1	1	1	0	1	-9,302326	273,666142	308,727123	0
15.01.2021	23:15:12	0	0	3,163532	0,804	272,4516	-0,094	87,662	0	1017,68	6,5	8,6	8,3	1	1	1	1	1	1	1	1	1	0	1	-0,916138	273,767082	317,582786	0
15.01.2021	23:15:13	0	0	4,406348	0,82575	267,3756	-0,098	87,663	0	1017,58	6,5	8,6	8,3	1	1	1	1	1	1	1	1	1	0	1	-8,386187	273,830256	310,406823	0
15.01.2021	23:15:14	0	0	4,858281	0,77925	264,2904	-0,098	87,658	0	1017,5	6,5	8,6	8,3	1	1	1	1	1	1	1	1	1	0	1	-4,439746	273,803786	314,230016	0
15.01.2021	23:15:15	0	0	4,293365	0,8145	262,1664	-0,099	87,668	0	1017,64	6,5	8,6	8,3	1	1	1	1	1	1	1	1	1	0	1	-3,523608	273,831728	315,276255	0
15.01.2021	23:15:16	0	0	2,937565	0,84225	258,048	-0,095	87,683	0	1017,8	6,5	8,6	8,3	1	1	1	1	1	1	1	1	1	0	1	-6,412967	273,705577	311,799834	0
15.01.2021	23:15:17	0	0	2,711599	0,849	265,3524	-0,101	87,671	0	1017,5	6,5	8,6	8,3	1	1	1	1	1	1	1	1	1	0	1	-6,272023	273,692423	311,87961	0
15.01.2021	23:15:18	0	0	4,519331	0,84525	279,9036	-0,103	87,668	0	1017,58	6,5	8,6	8,3	1	1	1	1	1	1	1	1	1	0	1	-6,412967	273,837616	312,414316	0
15.01.2021	23:15:19	0	0	4,745298	0,85125	261,7272	-0,1	87,662	0	1017,68	6,5	8,6	8,3	1	1	1	1	1	1	1	1	1	0	1	-3,171247	273,695345	314,993974	0
15.01.2021	23:15:20	0	0	3,728448	0,843	244,188	-0,096	87,654	0	1017,6	6,5	8,6	8,3	1	1	1	1	1	1	1	1	1	0	1	-8,80902	273,677818	309,274707	0
15.01.2021	23:15:21	0	0	3,050548	0,92925	257,0292	-0,096	87,665	0	1017,64	6,5	8,6	8,3	1	1	1	1	1	1	1	1	1	0	1	-6,060606	273,68658	312,063857	0
15.01.2021	23:15:22	0	0	2,937565	0,9765	273,942	-0,091	87,662	0	1017,68	6,5	8,6	8,3	1	1	1	1	1	1	1	1	1	0	1	-8,949965	273,803786	309,719797	0
15.01.2021	23:15:23	0	0	3,276515	1,0245	272,4624	-0,095	87,66	0	1017,62	6,5	8,6	8,3	1	1	1	1	1	1	1	1	1	0	1	-3,523608	273,666142	314,50584	0
15.01.2021	23:15:24	0	0	4,632314	1,095	271,872	-0,099	87,647	0	1017,42	6,5	8,6	8,3	1	1	1	1	1	1	1	1	1	0	1	-4,369274	273,743629	314,02052	0
15.01.2021	23:15:25	0	0	4,180381	1,1775	273,5496	-0,097	87,654	0	1017,72	6,5	8,6	8,3	1	1	1	1	1	1	1	1	1	0	1	-9,231853	273,655931	308,750133	0
15.01.2021	23:15:26	0	0	3,954415	1,18425	279,8136	-0,094	87,657	0	1017,5	6,5	8,6	8,3	1	1	1	1	1	1	1	1	1	0	1	-5,144468	273,721667	313,143163	0
15.01.2021	23:15:27	0	0	2,711599	1,1895	268,884	-0,096	87,666	0	1017,5	6,5	8,6	8,3	1	1	1	1	1	1	1	1	1	0	1	-3,664553	273,674898	314,405601	0
15.01.2021	23:15:28	0	0	3,728448	1,1325	260,9892	-0,103	87,662	0	1017,52	6,5	8,6	8,3	1	1	1	1	1	1	1	1	1	0	1	-5,84919	273,708501	312,377211	0
15.01.2021	23:15:29	0	0	3,276515	1,0785	266,2452	-0,094	87,67	0	1017,62	6,4	8,6	8,3	1	1	1	1	1	1	1	1	1	0	1	-3,453136	273,828785	315,333022	0
15.01.2021	23:15:30	0	0	4,971264	1,0455	266,616	-0,103	87,657	0	1017,62	6,5	8,6	8,3	1	1	1	1	1	1	1	1	1	0	1	-8,80902	273,817017	309,92234	0
15.01.2021	23:15:31	0	0	2,598615	1,0155	256,158	-0,102	87,651	0	1017,6	6,5	8,6	8,3	1	1	1	1	1	1	1	1	1	0	1	-9,513742	273,758284	308,944239	0
15.01.2021	23:15:32	0	0	3,841431	1,02525	253,5552	-0,099	87,668	0	1017,64	6,5	8,6	8,3	1	1	1	1	1	1	1	1	1	0	1	-1,902748	273,836144	316,917678	0
15.01.2021	23:15:33	0	0	3,502482	1,00575	265,4172	-0,099	87,658	0	1017,66	6,5	8,6	8,3	1	1	1	1	1	1	1	1	1	0	1	-7,681466	273,730448	310,647013	0
15.01.2021	23:15:34	0	0	3,728448	1,00575	267,3864	-0,095	87,66	0	1017,48	6,5	8,6	8,3	1	1	1	1	1	1	1	1	1	0	1	-7,329105	273,658848	310,666439	0
15.01.2021	23:15:35	0	0	5,536181	0,96675	266,256	-0,104	87,647	0	1017,46	6,5	8,6	8,3	1	1	1	1	1	1	1	1	1	0	1	-10,288936	273,714352	307,964672	0
15.01.2021	23:15:36	0	0	2,598615	0,951	265,3488	-0,098	87,665	0	1017,5	6,5	8,6	8,3	1	1	1	1	1	1	1	1	1	0	1	-8,315715	273,828785	310,470443	0
15.01.2021	23:15:37	0	0	4,745298	0,9375	262,8504	-0,102	87,665	0	1017,6	6,5	8,6	8,3	1	1	1	1	1	1	1	1	1	0	1	-3,805497	273,830256	314,987514	0
15.01.2021	23:15:38	0	0	4,745298	0,96375	262,422	-0,099	87,663	0	1017,64	6,5	8,6	8,3	1	1	1	1	1	1	1	1	1	0	1	-3,735025	273,767082	314,763899	0
15.01.2021	23:15:39	0	0	2,824582	0,996	263,5308	-0,101	87,666	0	1017,64	6,5	8,6	8,3	1	1	1	1	1	1	1	1	1	0	1	-5,285412	273,84056	313,555584	0
15.01.2021	23:15:40	0	0	2,937565	1,0155	266,2092	-0,103	87,644	0	1017,52	6,5	8,6	8,3	1	1	1	1	1	1	1	1	1	0	1	-10,923185	273,730448	307,405294	0
15.01.2021	23:15:41	0	0	4,293365	1,00575	265,3668	-0,099	87,654	0	1017,58	6,5	8,5	8,3	1	1	1	1	1	1	1	1	1	0	1	-11,909796	273,660306	306,092528	0
15.01.2021	23:15:42	0	0	3,276515	1,06875	265,3524	-0,099	87,672	0	1017,68	6,5	8,6	8,3	1	1	1	1	1	1	1	1	1	0	1	-6,20155	273,709964	312,031651	0
15.01.2021	23:15:43	0	0	2,598615	1,13775	267,9156	-0,099	87,652	0	1017,58	6,5	8,6	8,3	1	1	1	1	1	1	1	1	1	0	1	-9,090909	273,680738	309,006394	0
15.01.2021	23:15:44	0	0	3,050548	1,197	275,382	-0,103	87,681	0	1017,48	6,5	8,6	8,3	1	1	1	1	1	1	1	1	1	0	1	-6,342495	273,69973	311,843114	0
15.01.2021	23:15:45	0	0	3,728448	1,20225	281,2932	-0,099	87,674	0	1017,62	6,5	8,6	8,3	1	1	1	1	1	1	1	1	1	0	1	-4,933051	273,797909	313,70935	0
15.01.2021	23:15:46	0	0	4,293365	1,2435	280,602	-0,109	87,662	0	1017,36	6,5	8,6	8,3	1	1	1	1	1	1	1	1	1	0	1	-6,20155	273,8332	312,605167	0
15.01.2021	23:15:47	0	0	3,728448	1,296	274,6764	-0,11	87,656	0	1017,68	6,5	8,6	8,3	1	1	1	1	1	1	1	1	1	0	1	-5,990134	273,690962	312,154705	0
15.01.2021	23:15:48	0	0	4,293365	1,35075	276,2208	-0,103	87,67	0	1017,78	6,5	8,6	8,3	1	1	1	1	1	1	1	1	1	0	1	-4,439746	273,677818	313,643981	0
15.01.2021	23:15:49	0	0	3,615465	1,40025	276,9084	-0,107	87,663	0	1017,58	6,5	8,6	8,3	1	1	1	1	1	1	1	1	1	0	1	-5,073996	273,8332	313,732722	0
15.01.2021	23:15:50	0	0	3,276515	1,407	276,0732	-0,095	87,672	0	1017,54	6,5	8,6	8,3	1	1	1	1	1	1	1	1	1	0	1	-5,073996	273,708501	313,152405	0
15.01.2021	23:15:51	0	0	2,824582	1,41075	275,3172	-0,098	87,656	0	1017,48	6,5	8,6	8,3	1	1	1	1	1	1	1	1	1	0	1	-6,553911	273,825842	312,218544	0
15.01.2021	23:15:52	0	0	5,197231	1,428	277,7076	-0,103	87,681	0	1017,54	6,5	8,6	8,3	1	1	1	1	1	1	1	1	1	0	1	-6,8358	273,711426	311,404203	0
15.01.2021	23:15:53	0	0	3,163532	1,4205	278,8668	-0,098	87,674	0	1017,56	6,5	8,5	8,3	1	1	1	1	1	1	1	1	1	0	1	-6,483439	273,655931	311,498548	0
15.01.2021	23:15:54	0	0	3,163532	1,43775	275,8176	-0,105	87,673	0	1017,6	6,4	8,6	8,3	1	1	1	1	1	1	1	1	1	0	1	-5,567301	273,654473	312,407908	0
15.01.2021	23:15:55	0	0	4,971264	1,437	275,0292	-0,098	87,661	0	1017,66	6,5	8,6	8,3	1	1	1	1	1	1	1	1	1	0	1	-5,990134	273,767082	312,50879	0
15.01.2021	23:15:56	0	0	3,050548	1,389	274,4028	-0,101	87,655	0	1017,64	6,5	8,5	8,3	1	1	1	1	1	1	1	1	1	0	1	-3,171247	273,846451	315,697183	0
15.01.2021	23:15:57	0	0	3,841431	1,3905	277,5348	-0,096	87,674	0	1017,46	6,5	8,6	8,3	1	1	1	1	1	1	1	1	1	0	1	-2,959831	273,695345	315,20539	0
15.01.2021	23:15:58	0	0	2,372649	1,3185	283,23	-0,099	87,678	0	1017,84	6,5	8,6	8,3	1	1	1	1	1	1	1	1	1	0	1	-8,527132	273,682198	309,576961	0
15.01.2021	23:15:59	0	0	2,824582	1,28325	280,2456	-0,101	87,649	0	1017,76	6,5	8,6	8,3	1	1	1	1	1	1	1	1	1	0	1	-3,875969	273,836144	314,944458	0
15.01.2021	23:16:00	0	0	5,084247	1,20525	280,7388	-0,098	87,665	0	1017,5	6,4	8,6	8,3	1	1	1	1	1	1	1	1	1	0	1	-4,087385	273,761216	314,384241	0
15.01.2021	23:16:01	0	0	3,276515	1,1805	279,8316	-0,103	87,657	0	1017,68	6,5	8,6	8,3	1	1	1	1	1	1	1	1	1	0	1	-5,778717	273,831728	313,021146	0
15.01.2021	23:16:02	0	0	4,858281	1,206	278,8236	-0,102	87,675	0	1017,56	6,5	8,6	8,3	1	1	1	1	1	1	1	1	1	0	1	-6,694856	273,84056	312,14614	0
15.01.2021	23:16:03	0	0	2,824582	1,23375	275,3604	-0,102	87,676	0	1017,64	6,5	8,6	8,3	1	1	1	1	1	1	1	1	1	0	1	-8,315715	273,711426	309,924288	0
15.01.2021	23:16:04	0	0	2,598615	1,25775	278,8488	-0,107	87,664	0	1017,64	6,5	8,6	8,3	1	1	1	1	1	1	1	1	1	0	1	-6,131078	273,666142	311,89837	0
15.01.2021	23:16:05	0	0	3,728448	1,2435	276,2028	-0,1	87,676	0	1017,54	6,5	8,6	8,3	1	1	1	1	1	1	1	1	1	0	1	-7,681466	273,727521	310,633395	0
15.01.2021	23:16:06	0	0	2,485632	1,2405	273,5712	-0,1	87,682	0	1017,56	6,4	8,6	8,3	1	1	1	1	1	1	1	1	1	0	1	-7,188161	273,8332	311,618557	0
15.01.2021	23:16:07	0	0	2,485632	1,20525	275,436	-0,097	87,675	0	1017,6	6,5	8,6	8,3	1	1	1	1	1	1	1	1	1	0	1	-5,637773	273,72313	312,656664	0
15.01.2021	23:16:08	0	0	5,084247	1,212	273,9024	-0,104	87,664	0	1017,66	6,5	8,6	8,3	1	1	1	1	1	1	1	1	1	0	1	-2,959831	273,655931	315,022156	0
15.01.2021	23:16:09	0	0	3,163532	1,203	275,8176	-0,099	87,663	0	1017,58	6,5	8,6	8,3	1	1	1	1	1	1	1	1	1	0	1	-7,610994	273,789096	310,990386	0
15.01.2021	23:16:10	0	0	3,163532	1,19925	280,9692	-0,107	87,669	0	1017,56	6,4	8,6	8,3	1	1	1	1	1	1	1	1	1	0	1	-10,782241	273,655931	307,199746	0
15.01.2021	23:16:11	0	0	5,084247	1,206	278,0604	-0,104	87,662	0	1017,56	6,5	8,6	8,3	1	1	1	1	1	1	1	1	1	0	1	-6,8358	273,731912	311,499489	0
15.01.2021	23:16:12	0	0	5,197231	1,1715	276,4476	-0,106	87,666	0	1017,56	6,5	8,6	8,3	1	1	1	1	1	1	1	1	1	0	1	-5,285412	273,815546	313,439101	0
15.01.2021	23:16:13	0	0	4,067398	1,15425	281,376	-0,103	87,682	0	1017,42	6,5	8,6	8,3	1	1	1	1	1	1	1	1	1	0	1	-5,84919	273,828785	312,936968	0
15.01.2021	23:16:14	0	0	2,937565	1,17975	278,73	-0,103	87,677	0	1017,5	6,5	8,6	8,3	1	1	1	1	1	1	1	1	1	0	1	-3,523608	273,748024	314,886635	0
15.01.2021	23:16:15	0	0	2,711599	1,1655	274,2876	-0,104	87,688	0	1017,6	6,4	8,6	8,3	1	1	1	1	1	1	1	1	1	0	1	-5,496829	273,834672	313,316743	0
15.01.2021	23:16:16	0	0	2,598615	1,12275	279,4968	-0,101	87,672	0	1017,58	6,5	8,6	8,3	1	1	1	1	1	1	1	1	1	0	1	-6,131078	273,712889	312,115727	0
15.01.2021	23:16:17	0	0	2,711599	1,12125	277,1208	-0,1	87,683	0	1017,54	6,5	8,6	8,3	1	1	1	1	1	1	1	1	1	0	1	-9,654686	273,647183	308,286643	0
15.01.2021	23:16:18	0	0	2,598615	1,08075	277,3008	-0,104	87,671	0	1017,62	6,5	8,6	8,3	1	1	1	1	1	1	1	1	1	0	1	-5,990134	273,780288	312,570246	0
15.01.2021	23:16:19	0	0	2,937565	1,0335	276,5268	-0,105	87,691	0	1017,54	6,5	8,6	8,3	1	1	1	1	1	1	1	1	1	0	1	-6,483439	273,673438	311,579929	0
15.01.2021	23:16:20	0	0	3,050548	1,041	269,9244	-0,102	87,673	0	1017,48	6,5	8,6	8,3	1	1	1	1	1	1	1	1	1	0	1	-5,919662	273,77882	312,633887	0
15.01.2021	23:16:21	0	0	3,163532	1,00725	274,32	-0,096	87,681	0	1017,52	6,5	8,5	8,3	1	1	1	1	1	1	1	1	1	0	1	-4,439746	273,655931	313,54224	0
15.01.2021	23:16:22	0	0	4,067398	1,017	280,98	-0,105	87,677	0	1017,64	6,5	8,6	8,3	1	1	1	1	1	1	1	1	1	0	1	-4,157858	273,77295	314,368374	0
15.01.2021	23:16:23	0	0	2,824582	1,0035	281,8008	-0,105	87,682	0	1017,8	6,4	8,6	8,3	1	1	1	1	1	1	1	1	1	0	1	-11,557435	273,648641	306,390669	0
15.01.2021	23:16:24	0	0	2,711599	1,04625	274,7376	-0,106	87,672	0	1017,64	6,5	8,6	8,3	1	1	1	1	1	1	1	1	1	0	1	-6,483439	273,726057	311,824613	0
15.01.2021	23:16:25	0	0	3,615465	1,068	281,4768	-0,103	87,689	0	1017,62	6,5	8,6	8,3	1	1	1	1	1	1	1	1	1	0	1	-10,007047	273,654473	307,968162	0
15.01.2021	23:16:26	0	0	4,971264	1,092	284,7528	-0,106	87,678	0	1017,5	6,5	8,6	8,3	1	1	1	1	1	1	1	1	1	0	1	-4,087385	273,806726	314,596061	0
15.01.2021	23:16:27	0	0	2,598615	1,101	281,2932	-0,103	87,682	0	1017,48	6,5	8,6	8,3	1	1	1	1	1	1	1	1	1	0	1	-6,272023	273,707039	311,947578	0
15.01.2021	23:16:28	0	0	4,406348	1,1055	287,7732	-0,105	87,693	0	1017,58	6,5	8,6	8,3	1	1	1	1	1	1	1	1	1	0	1	-7,751938	273,802317	310,910983	0
15.01.2021	23:16:29	0	0	2,824582	1,09575	289,872	-0,102	87,688	0	1017,5	6,5	8,6	8,3	1	1	1	1	1	1	1	1	1	0	1	-7,681466	273,780288	310,878914	0
15.01.2021	23:16:30	0	0	3,389498	1,116	290,7756	-0,099	87,695	0	1017,5	6,5	8,6	8,3	1	1	1	1	1	1	1	1	1	0	1	-7,117689	273,836144	311,702738	0
15.01.2021	23:16:31	0	0	4,519331	1,116	292,2624	-0,104	87,688	0	1017,56	6,5	8,6	8,3	1	1	1	1	1	1	1	1	1	0	1	-5,355884	273,692423	312,795748	0
15.01.2021	23:16:32	0	0	2,711599	1,092	291,2076	-0,105	87,698	0	1017,76	6,5	8,6	8,3	1	1	1	1	1	1	1	1	1	0	1	-6,553911	273,658848	311,441633	0
15.01.2021	23:16:33	0	0	2,485632	1,1055	291,7908	-0,106	87,694	0	1017,5	6,4	8,6	8,3	1	1	1	1	1	1	1	1	1	0	1	-3,24172	273,75242	315,188979	0
15.01.2021	23:16:34	0	0	4,519331	1,10775	293,3604	-0,111	87,687	0	1017,46	6,5	8,6	8,3	1	1	1	1	1	1	1	1	1	0	1	-6,342495	273,66906	311,70052	0
15.01.2021	23:16:35	0	0	4,519331	1,107	293,3316	-0,106	87,701	0	1017,66	6,5	8,6	8,3	1	1	1	1	1	1	1	1	1	0	1	-4,721635	273,827313	314,057671	0
15.01.2021	23:16:36	0	0	4,745298	1,098	294,3972	-0,106	87,706	0	1017,56	6,5	8,6	8,3	1	1	1	1	1	1	1	1	1	0	1	-5,426357	273,756818	313,024803	0
15.01.2021	23:16:37	0	0	2,937565	1,11825	296,46	-0,103	87,688	0	1017,56	6,4	8,6	8,3	1	1	1	1	1	1	1	1	1	0	1	-8,879493	273,642811	309,041517	0
15.01.2021	23:16:38	0	0	3,050548	1,146	294,1164	-0,103	87,711	0	1017,64	6,5	8,6	8,3	1	1	1	1	1	1	1	1	1	0	1	-5,355884	273,768549	313,149865	0
15.01.2021	23:16:39	0	0	3,050548	1,164	297,8028	-0,104	87,701	0	1017,52	6,5	8,6	8,3	1	1	1	1	1	1	1	1	1	0	1	-7,751938	273,663224	310,263947	0
15.01.2021	23:16:40	0	0	4,745298	1,1925	292,2768	-0,105	87,696	0	1017,58	6,5	8,6	8,3	1	1	1	1	1	1	1	1	1	0	1	-6,412967	273,75242	312,017732	0
15.01.2021	23:16:41	0	0	3,728448	1,1235	290,052	-0,1	87,715	0	1017,58	6,5	8,6	8,3	1	1	1	1	1	1	1	1	1	0	1	-2,536998	273,660306	315,465326	0
15.01.2021	23:16:42	0	0	3,841431	1,065	284,1012	-0,104	87,704	0	1017,7	6,5	8,6	8,3	1	1	1	1	1	1	1	1	1	0	1	-7,82241	273,811135	310,881567	0
15.01.2021	23:16:43	0	0	3,163532	1,07925	276,858	-0,107	87,712	0	1017,52	6,5	8,6	8,3	1	1	1	1	1	1	1	1	1	0	1	-3,946441	273,677818	314,137286	0
15.01.2021	23:16:44	0	0	3,841431	1,10025	275,3964	-0,108	87,716	0	1017,42	6,5	8,6	8,3	1	1	1	1	1	1	1	1	1	0	1	-6,906272	273,695345	311,258949	0
15.01.2021	23:16:45	0	0	3,276515	1,11225	280,2636	-0,109	87,712	0	1017,6	6,5	8,6	8,3	1	1	1	1	1	1	1	1	1	0	1	-5,285412	273,696807	312,886604	0
15.01.2021	23:16:46	0	0	3,841431	1,16025	281,7144	-0,108	87,715	0	1017,72	6,5	8,6	8,3	1	1	1	1	1	1	1	1	1	0	1	-6,976744	273,68804	311,15451	0
15.01.2021	23:16:47	0	0	4,067398	1,13925	292,5936	-0,099	87,719	0	1017,58	6,5	8,6	8,3	1	1	1	1	1	1	1	1	1	0	1	-5,496829	273,771483	313,022575	0
15.01.2021	23:16:48	0	0	3,050548	1,098	295,5492	-0,099	87,717	0	1017,54	6,5	8,6	8,3	1	1	1	1	1	1	1	1	1	0	1	-3,453136	273,660306	314,549188	0
15.01.2021	23:16:49	0	0	4,406348	1,04325	279,1836	-0,106	87,72	0	1017,7	6,5	8,6	8,3	1	1	1	1	1	1	1	1	1	0	1	-1,338971	273,698268	316,839841	0
15.01.2021	23:16:50	0	0	4,067398	0,99675	268,8264	-0,102	87,727	0	1017,62	6,5	8,6	8,3	1	1	1	1	1	1	1	1	1	0	1	-4,510218	273,654473	313,46499	0
15.01.2021	23:16:51	0	0	4,858281	1,00425	278,0352	-0,105	87,745	0	1017,66	6,5	8,6	8,3	1	1	1	1	1	1	1	1	1	0	1	-4,862579	273,692423	313,289053	0
15.01.2021	23:16:52	0	0	4,180381	0,987	285,48	-0,098	87,733	0	1017,68	6,5	8,6	8,3	1	1	1	1	1	1	1	1	1	0	1	-2,325581	273,831728	316,474282	0
15.01.2021	23:16:53	0	0	2,711599	0,96525	278,4348	-0,107	87,725	0	1017,58	6,5	8,6	8,3	1	1	1	1	1	1	1	1	1	0	1	-7,188161	273,781755	311,379051	0
15.01.2021	23:16:54	0	0	3,389498	0,96225	276,8256	-0,099	87,746	0	1017,5	6,5	8,6	8,3	1	1	1	1	1	1	1	1	1	0	1	-3,453136	273,797909	315,189265	0
15.01.2021	23:16:55	0	0	3,841431	0,94575	280,2132	-0,101	87,737	0	1017,6	6,5	8,6	8,3	1	1	1	1	1	1	1	1	1	0	1	-6,060606	273,800847	312,595474	0
15.01.2021	23:16:56	0	0	3,389498	1,00725	280,9332	-0,104	87,74	0	1017,58	6,5	8,5	8,3	1	1	1	1	1	1	1	1	1	0	1	-2,466526	273,648641	315,481578	0
15.01.2021	23:16:57	0	0	2,598615	1,02375	269,9712	-0,107	87,745	0	1017,66	6,5	8,6	8,3	1	1	1	1	1	1	1	1	1	0	1	-4,087385	273,768549	314,418364	0
15.01.2021	23:16:58	0	0	2,937565	1,035	270,576	-0,11	87,739	0	1017,58	6,5	8,6	8,3	1	1	1	1	1	1	1	1	1	0	1	-8,104299	273,824371	310,661305	0
15.01.2021	23:16:59	0	0	4,858281	0,954	297,5112	-0,102	87,739	0	1017,58	6,5	8,6	8,3	1	1	1	1	1	1	1	1	1	0	1	-5,990134	273,783223	312,58391	0
15.01.2021	23:17:00	0	0	4,519331	0,921	302,4432	-0,109	87,739	0	1017,68	6,5	8,6	8,3	1	1	1	1	1	1	1	1	1	0	1	-1,409443	273,653014	316,558988	0
15.01.2021	23:17:01	0	0	2,146682	0,891	287,0568	-0,105	87,744	0	1017,64	6,5	8,6	8,3	1	1	1	1	1	1	1	1	1	0	1	-3,664553	273,721667	314,623078	0
15.01.2021	23:17:02	0	0	4,745298	0,90975	282,4776	-0,1	87,738	0	1017,82	6,5	8,6	8,3	1	1	1	1	1	1	1	1	1	0	1	-5,84919	273,658848	312,146354	0
15.01.2021	23:17:03	0	0	3,841431	0,855	288,396	-0,107	87,745	0	1017,42	6,5	8,6	8,3	1	1	1	1	1	1	1	1	1	0	1	-6,412967	273,748024	311,997277	0
15.01.2021	23:17:04	0	0	5,084247	0,774	280,6452	-0,106	87,753	0	1017,68	6,5	8,6	8,3	1	1	1	1	1	1	1	1	1	0	1	-12,191684	273,812606	306,519138	0
15.01.2021	23:17:05	0	0	4,406348	0,759	273,9204	-0,108	87,75	0	1017,7	6,5	8,6	8,3	1	1	1	1	1	1	1	1	1	0	1	-10,641297	273,790565	307,966918	0
15.01.2021	23:17:06	0	0	2,598615	0,7335	273,2688	-0,105	87,746	0	1017,58	6,5	8,6	8,3	1	1	1	1	1	1	1	1	1	0	1	-3,312192	273,717277	314,955023	0
15.01.2021	23:17:07	0	0	3,954415	0,70725	282,294	-0,103	87,74	0	1017,54	6,5	8,6	8,3	1	1	1	1	1	1	1	1	1	0	1	-1,198027	273,792033	317,417024	0
15.01.2021	23:17:08	0	0	3,728448	0,645	299,8008	-0,101	87,764	0	1017,66	6,5	8,6	8,3	1	1	1	1	1	1	1	1	1	0	1	-1,409443	273,849396	317,472708	0
15.01.2021	23:17:09	0	0	4,067398	0,594	305,334	-0,102	87,746	0	1017,64	6,5	8,6	8,3	1	1	1	1	1	1	1	1	1	0	1	-8,315715	273,783223	310,258329	0
15.01.2021	23:17:10	0	0	3,163532	0,582	296,9568	-0,102	87,759	0	1017,58	6,5	8,6	8,3	1	1	1	1	1	1	1	1	1	0	1	-4,298802	273,650098	313,656077	0
15.01.2021	23:17:11	0	0	4,632314	0,58125	286,9632	-0,102	87,762	0	1017,68	6,4	8,6	8,3	1	1	1	1	1	1	1	1	1	0	1	-3,382664	273,730448	314,945815	0
15.01.2021	23:17:12	0	0	3,841431	0,5985	280,2852	-0,106	87,758	0	1017,64	6,5	8,6	8,3	1	1	1	1	1	1	1	1	1	0	1	-3,24172	273,660306	314,760604	0
15.01.2021	23:17:13	0	0	3,615465	0,606	276,8472	-0,106	87,759	0	1017,62	6,5	8,6	8,3	1	1	1	1	1	1	1	1	1	0	1	-8,104299	273,660306	309,898025	0
15.01.2021	23:17:14	0	0	4,406348	0,654	276,7572	-0,101	87,76	0	1017,66	6,5	8,6	8,3	1	1	1	1	1	1	1	1	1	0	1	-3,100775	273,762683	315,377674	0
15.01.2021	23:17:15	0	0	3,615465	0,66375	280,9908	-0,106	87,761	0	1017,64	6,5	8,6	8,3	1	1	1	1	1	1	1	1	1	0	1	-3,875969	273,843505	314,978743	0
15.01.2021	23:17:16	0	0	2,937565	0,684	284,4144	-0,102	87,756	0	1017,54	6,5	8,6	8,3	1	1	1	1	1	1	1	1	1	0	1	-4,298802	273,777352	314,247917	0
15.01.2021	23:17:17	0	0	4,406348	0,69525	283,6368	-0,106	87,763	0	1017,62	6,5	8,6	8,3	1	1	1	1	1	1	1	1	1	0	1	-2,889359	273,842033	315,958495	0
15.01.2021	23:17:18	0	0	4,745298	0,67725	286,2324	-0,107	87,769	0	1017,6	6,5	8,6	8,3	1	1	1	1	1	1	1	1	1	0	1	-4,933051	273,705577	313,279749	0
15.01.2021	23:17:19	0	0	4,745298	0,67575	286,2576	-0,095	87,759	0	1017,72	6,5	8,6	8,3	1	1	1	1	1	1	1	1	1	0	1	-11,557435	273,800847	307,098646	0
15.01.2021	23:17:20	0	0	4,632314	0,65475	279,8352	-0,099	87,772	0	1017,58	6,5	8,6	8,3	1	1	1	1	1	1	1	1	1	0	1	-4,721635	273,682198	313,382458	0
15.01.2021	23:17:21	0	0	3,615465	0,654	265,7988	-0,105	87,759	0	1017,66	6,5	8,6	8,3	1	1	1	1	1	1	1	1	1	0	1	-7,047216	273,68804	311,084038	0
15.01.2021	23:17:22	0	0	3,050548	0,7065	257,3352	-0,1	87,775	0	1017,7	6,5	8,6	8,3	1	1	1	1	1	1	1	1	1	0	1	-7,82241	273,657389	310,166355	0
15.01.2021	23:17:23	0	0	3,615465	0,75225	265,4676	-0,099	87,762	0	1017,44	6,5	8,6	8,3	1	1	1	1	1	1	1	1	1	0	1	-9,161381	273,721667	309,12625	0
15.01.2021	23:17:24	0	0	2,937565	0,78675	275,7888	-0,099	87,759	0	1017,62	6,4	8,6	8,3	1	1	1	1	1	1	1	1	1	0	1	-7,963354	273,847923	310,911936	0
15.01.2021	23:17:25	0	0	4,745298	0,792	275,7708	-0,097	87,769	0	1017,5	6,5	8,6	8,3	1	1	1	1	1	1	1	1	1	0	1	-6,412967	273,730448	311,915512	0
15.01.2021	23:17:26	0	0	3,163532	0,73275	268,8408	-0,105	87,774	0	1017,42	6,5	8,6	8,3	1	1	1	1	1	1	1	1	1	0	1	-7,82241	273,661765	310,186694	0
15.01.2021	23:17:27	0	0	3,163532	0,69975	273,2148	-0,1	87,781	0	1017,6	6,5	8,6	8,3	1	1	1	1	1	1	1	1	1	0	1	-6,20155	273,71874	312,072469	0
15.01.2021	23:17:28	0	0	4,293365	0,6495	281,7648	-0,098	87,758	0	1017,26	6,5	8,6	8,3	1	1	1	1	1	1	1	1	1	0	1	-4,792107	273,8229	313,966647	0
15.01.2021	23:17:29	0	0	2,937565	0,64575	279,414	-0,104	87,773	0	1017,56	6,5	8,6	8,3	1	1	1	1	1	1	1	1	1	0	1	-4,580691	273,685119	313,536982	0
15.01.2021	23:17:30	0	0	5,197231	0,6975	278,0892	-0,095	87,773	0	1017,58	6,5	8,6	8,3	1	1	1	1	1	1	1	1	1	0	1	-8,949965	273,8332	309,856753	0
15.01.2021	23:17:31	0	0	2,711599	0,78375	283,1472	-0,096	87,774	0	1017,52	6,5	8,6	8,3	1	1	1	1	1	1	1	1	1	0	1	-7,399577	273,792033	311,215474	0
15.01.2021	23:17:32	0	0	2,937565	0,792	286,2432	-0,103	87,774	0	1017,64	6,5	8,6	8,3	1	1	1	1	1	1	1	1	1	0	1	-6,272023	273,836144	312,548404	0
15.01.2021	23:17:33	0	0	4,180381	0,822	290,4084	-0,096	87,776	0	1017,8	6,5	8,6	8,3	1	1	1	1	1	1	1	1	1	0	1	-1,198027	273,721667	317,089604	0
15.01.2021	23:17:34	0	0	5,197231	0,855	286,2288	-0,106	87,766	0	1017,52	6,4	8,6	8,3	1	1	1	1	1	1	1	1	1	0	1	-6,131078	273,666142	311,89837	0
15.01.2021	23:17:35	0	0	4,180381	0,882	280,692	-0,097	87,776	0	1017,7	6,4	8,6	8,3	1	1	1	1	1	1	1	1	1	0	1	-4,510218	273,749489	313,906843	0
15.01.2021	23:17:36	0	0	4,745298	0,96225	281,034	-0,103	87,783	0	1017,64	6,5	8,6	8,3	1	1	1	1	1	1	1	1	1	0	1	-5,144468	273,834672	313,669104	0
15.01.2021	23:17:37	0	0	4,632314	0,95625	282,3984	-0,102	87,776	0	1017,66	6,5	8,6	8,3	1	1	1	1	1	1	1	1	1	0	1	-10,923185	273,661765	307,085918	0
15.01.2021	23:17:38	0	0	4,858281	0,95625	284,85	-0,108	87,766	0	1017,58	6,5	8,6	8,3	1	1	1	1	1	1	1	1	1	0	1	-5,144468	273,727521	313,170393	0
15.01.2021	23:17:39	0	0	4,519331	0,92925	285,8904	-0,102	87,765	0	1017,48	6,5	8,6	8,3	1	1	1	1	1	1	1	1	1	0	1	-3,805497	273,814076	314,912171	0
15.01.2021	23:17:40	0	0	3,841431	0,94425	283,7556	-0,098	87,762	0	1017,7	6,5	8,6	8,3	1	1	1	1	1	1	1	1	1	0	1	-6,976744	273,8332	311,829973	0
15.01.2021	23:17:41	0	0	3,276515	0,96525	285,4512	-0,104	87,77	0	1017,5	6,5	8,6	8,3	1	1	1	1	1	1	1	1	1	0	1	-5,84919	273,702653	312,350014	0
15.01.2021	23:17:42	0	0	3,050548	0,9645	288,126	-0,099	87,779	0	1017,62	6,4	8,6	8,3	1	1	1	1	1	1	1	1	1	0	1	-5,426357	273,68658	312,698107	0
15.01.2021	23:17:43	0	0	3,502482	0,9915	288,1296	-0,101	87,786	0	1017,64	6,5	8,6	8,3	1	1	1	1	1	1	1	1	1	0	1	-6,694856	273,847923	312,180435	0
15.01.2021	23:17:44	0	0	2,937565	0,9615	287,7228	-0,097	87,778	0	1017,56	6,5	8,6	8,3	1	1	1	1	1	1	1	1	1	0	1	-6,8358	273,830256	311,957211	0
15.01.2021	23:17:45	0	0	2,485632	0,96225	288,81	-0,1	87,764	0	1017,5	6,5	8,6	8,3	1	1	1	1	1	1	1	1	1	0	1	-3,100775	273,690962	315,044064	0
15.01.2021	23:17:46	0	0	4,632314	0,92475	284,0508	-0,099	87,779	0	1017,84	6,4	8,6	8,3	1	1	1	1	1	1	1	1	1	0	1	-6,20155	273,69973	311,984058	0
15.01.2021	23:17:47	0	0	3,389498	0,89325	285,498	-0,101	87,775	0	1017,48	6,5	8,6	8,3	1	1	1	1	1	1	1	1	1	0	1	-2,889359	273,661765	315,119745	0
15.01.2021	23:17:48	0	0	3,728448	0,93825	291,204	-0,095	87,781	0	1017,44	6,5	8,6	8,3	1	1	1	1	1	1	1	1	1	0	1	-3,664553	273,704115	314,541449	0
15.01.2021	23:17:49	0	0	2,937565	0,9855	294,8256	-0,104	87,789	0	1017,68	6,5	8,6	8,3	1	1	1	1	1	1	1	1	1	0	1	-6,412967	273,670519	311,636831	0
15.01.2021	23:17:50	0	0	2,711599	1,01175	291,4596	-0,096	87,786	0	1017,6	6,5	8,6	8,3	1	1	1	1	1	1	1	1	1	0	1	-8,45666	273,84056	310,384336	0
15.01.2021	23:17:51	0	0	2,598615	1,0245	290,7936	-0,099	87,782	0	1017,56	6,5	8,6	8,3	1	1	1	1	1	1	1	1	1	0	1	-10,42988	273,846451	308,43855	0
15.01.2021	23:17:52	0	0	2,937565	1,02825	292,2264	-0,101	87,778	0	1017,64	6,5	8,6	8,3	1	1	1	1	1	1	1	1	1	0	1	-6,8358	273,740699	311,540364	0
15.01.2021	23:17:53	0	0	2,598615	1,02375	295,1208	-0,102	87,792	0	1017,72	6,5	8,6	8,3	1	1	1	1	1	1	1	1	1	0	1	-4,933051	273,846451	313,935379	0
15.01.2021	23:17:54	0	0	3,728448	1,017	291,4344	-0,1	87,771	0	1017,66	6,5	8,6	8,3	1	1	1	1	1	1	1	1	1	0	1	-6,060606	273,724593	312,240638	0
15.01.2021	23:17:55	0	0	2,711599	1,011	280,3644	-0,105	87,783	0	1017,54	6,4	8,6	8,3	1	1	1	1	1	1	1	1	1	0	1	-5,144468	273,843505	313,710244	0
15.01.2021	23:17:56	0	0	2,937565	1,0185	283,212	-0,106	87,787	0	1017,56	6,5	8,6	8,3	1	1	1	1	1	1	1	1	1	0	1	-6,694856	273,78616	311,892855	0
15.01.2021	23:17:57	0	0	4,067398	0,996	289,5696	-0,096	87,796	0	1017,6	6,5	8,6	8,3	1	1	1	1	1	1	1	1	1	0	1	-4,933051	273,834672	313,88052	0
15.01.2021	23:17:58	0	0	5,084247	1,017	292,1436	-0,101	87,78	0	1017,64	6,4	8,6	8,3	1	1	1	1	1	1	1	1	1	0	1	-4,087385	273,750955	314,336494	0
15.01.2021	23:17:59	0	0	3,389498	0,9765	298,3068	-0,094	87,792	0	1017,64	6,5	8,6	8,3	1	1	1	1	1	1	1	1	1	0	1	-9,795631	273,84056	309,045365	0
15.01.2021	23:18:00	0	0	2,711599	0,93825	297,918	-0,1	87,786	0	1017,48	6,5	8,6	8,3	1	1	1	1	1	1	1	1	1	0	1	-3,805497	273,794971	314,823228	0
15.01.2021	23:18:01	0	0	4,632314	0,92175	297,9288	-0,093	87,796	0	1017,78	6,5	8,5	8,3	1	1	1	1	1	1	1	1	1	0	1	-7,047216	273,844978	311,814354	0
15.01.2021	23:18:02	0	0	3,502482	0,91875	301,5	-0,1	87,792	0	1017,64	6,5	8,5	8,3	1	1	1	1	1	1	1	1	1	0	1	-8,597604	273,72313	309,696833	0
15.01.2021	23:18:03	0	0	4,858281	0,8685	288,3888	-0,105	87,774	0	1017,58	6,4	8,6	8,3	1	1	1	1	1	1	1	1	1	0	1	-9,302326	273,825842	309,470129	0
15.01.2021	23:18:04	0	0	3,954415	0,85575	290,7648	-0,096	87,783	0	1017,74	6,5	8,6	8,3	1	1	1	1	1	1	1	1	1	0	1	-5,708245	273,809665	312,988888	0
15.01.2021	23:18:05	0	0	3,502482	0,855	302,094	-0,1	87,79	0	1017,56	6,5	8,6	8,3	1	1	1	1	1	1	1	1	1	0	1	-6,20155	273,850869	312,687462	0
15.01.2021	23:18:06	0	0	3,728448	0,8445	302,8392	-0,1	87,785	0	1017,76	6,5	8,6	8,3	1	1	1	1	1	1	1	1	1	0	1	-9,513742	273,762683	308,964707	0
15.01.2021	23:18:07	0	0	2,485632	0,87825	294,8328	-0,096	87,802	0	1017,5	6,5	8,6	8,3	1	1	1	1	1	1	1	1	1	0	1	-8,033827	273,843505	310,820885	0
15.01.2021	23:18:08	0	0	4,180381	0,8535	298,3176	-0,106	87,798	0	1017,66	6,5	8,6	8,3	1	1	1	1	1	1	1	1	1	0	1	-7,82241	273,714352	310,431198	0
15.01.2021	23:18:09	0	0	2,824582	0,8685	300,1464	-0,1	87,792	0	1017,52	6,5	8,6	8,3	1	1	1	1	1	1	1	1	1	0	1	-4,087385	273,847923	314,787905	0
15.01.2021	23:18:10	0	0	2,485632	0,88425	293,7492	-0,099	87,794	0	1017,68	6,5	8,6	8,3	1	1	1	1	1	1	1	1	1	0	1	-7,329105	273,789096	311,272274	0
15.01.2021	23:18:11	0	0	4,858281	0,9045	294,0912	-0,098	87,793	0	1017,62	6,5	8,6	8,3	1	1	1	1	1	1	1	1	1	0	1	-7,963354	273,853816	310,939383	0
15.01.2021	23:18:12	0	0	2,824582	0,8895	294,8076	-0,101	87,801	0	1017,6	6,5	8,6	8,3	1	1	1	1	1	1	1	1	1	0	1	-1,902748	273,819958	316,842308	0
15.01.2021	23:18:13	0	0	4,971264	0,86925	294,4548	-0,097	87,798	0	1017,46	6,5	8,6	8,3	1	1	1	1	1	1	1	1	1	0	1	-8,245243	273,676358	309,831697	0
15.01.2021	23:18:14	0	0	2,937565	0,85275	292,2228	-0,1	87,792	0	1017,62	6,5	8,6	8,3	1	1	1	1	1	1	1	1	1	0	1	-4,792107	273,731912	313,543182	0
15.01.2021	23:18:15	0	0	4,406348	0,8445	292,9716	-0,092	87,812	0	1017,8	6,5	8,6	8,3	1	1	1	1	1	1	1	1	1	0	1	-6,412967	273,849396	312,469184	0
15.01.2021	23:18:16	0	0	3,841431	0,837	295,2036	-0,1	87,805	0	1017,4	6,5	8,6	8,3	1	1	1	1	1	1	1	1	1	0	1	-1,832276	273,817017	316,899084	0
15.01.2021	23:18:17	0	0	2,598615	0,77175	291,1428	-0,08	87,801	0	1017,78	6,4	8,6	8,3	1	1	1	1	1	1	1	1	1	0	1	-5,990134	273,815546	312,73438	0
15.01.2021	23:18:18	0	0	4,180381	0,73425	287,496	-0,101	87,801	0	1017,6	6,5	8,6	8,3	1	1	1	1	1	1	1	1	1	0	1	-4,016913	273,819958	314,728143	0
15.01.2021	23:18:19	0	0	3,728448	0,711	289,2276	-0,096	87,812	0	1017,68	6,4	8,6	8,3	1	1	1	1	1	1	1	1	1	0	1	-3,664553	273,66906	314,378462	0
15.01.2021	23:18:20	0	0	2,598615	0,726	296,874	-0,095	87,799	0	1017,64	6,5	8,6	8,3	1	1	1	1	1	1	1	1	1	0	1	-5,778717	273,792033	312,836333	0
15.01.2021	23:18:21	0	0	3,615465	0,74325	301,3308	-0,095	87,808	0	1017,44	6,5	8,6	8,3	1	1	1	1	1	1	1	1	1	0	1	-5,285412	273,852343	313,610462	0
15.01.2021	23:18:22	0	0	2,711599	0,774	295,524	-0,099	87,823	0	1017,68	6,4	8,6	8,3	1	1	1	1	1	1	1	1	1	0	1	-4,369274	273,780288	314,191106	0
15.01.2021	23:18:23	0	0	4,293365	0,81675	290,7864	-0,099	87,82	0	1017,72	6,5	8,6	8,3	1	1	1	1	1	1	1	1	1	0	1	-5,637773	273,849396	313,244378	0
15.01.2021	23:18:24	0	0	4,519331	0,81375	295,1496	-0,097	87,82	0	1017,68	6,5	8,6	8,3	1	1	1	1	1	1	1	1	1	0	1	-2,536998	273,793502	316,08489	0
15.01.2021	23:18:25	0	0	2,146682	0,84375	302,7672	-0,102	87,814	0	1017,58	6,4	8,6	8,3	1	1	1	1	1	1	1	1	1	0	1	-4,862579	273,689501	313,275467	0
15.01.2021	23:18:26	0	0	4,180381	0,882	312,1596	-0,102	87,812	0	1017,58	6,5	8,6	8,3	1	1	1	1	1	1	1	1	1	0	1	-4,22833	273,761216	314,243296	0
15.01.2021	23:18:27	0	0	4,858281	0,86925	308,8116	-0,095	87,799	0	1017,62	6,5	8,6	8,3	1	1	1	1	1	1	1	1	1	0	1	-4,157858	273,850869	314,731155	0
15.01.2021	23:18:28	0	0	3,954415	0,8385	308,0628	-0,095	87,793	0	1017,56	6,5	8,6	8,3	1	1	1	1	1	1	1	1	1	0	1	-5,426357	273,824371	313,339248	0
15.01.2021	23:18:29	0	0	3,954415	0,83775	310,6728	-0,098	87,816	0	1017,62	6,5	8,6	8,3	1	1	1	1	1	1	1	1	1	0	1	-8,104299	273,852343	310,791576	0
15.01.2021	23:18:30	0	0	3,615465	0,83325	309,87	-0,101	87,809	0	1017,6	6,5	8,6	8,3	1	1	1	1	1	1	1	1	1	0	1	-9,44327	273,714352	308,810338	0
15.01.2021	23:18:31	0	0	3,050548	0,831	308,4516	-0,097	87,828	0	1017,74	6,5	8,6	8,3	1	1	1	1	1	1	1	1	1	0	1	-7,751938	273,836144	311,068489	0
15.01.2021	23:18:32	0	0	4,067398	0,80625	307,1772	-0,098	87,822	0	1017,58	6,4	8,6	8,3	1	1	1	1	1	1	1	1	1	0	1	-3,100775	273,799378	315,548465	0
15.01.2021	23:18:33	0	0	4,067398	0,8295	301,2012	-0,088	87,823	0	1017,66	6,4	8,6	8,3	1	1	1	1	1	1	1	1	1	0	1	-5,637773	273,827313	313,141533	0
15.01.2021	23:18:34	0	0	3,276515	0,813	303,2244	-0,096	87,812	0	1017,64	6,5	8,6	8,3	1	1	1	1	1	1	1	1	1	0	1	-6,765328	273,689501	311,372719	0
15.01.2021	23:18:35	0	0	3,276515	0,7785	304,2792	-0,091	87,807	0	1017,48	6,5	8,6	8,3	1	1	1	1	1	1	1	1	1	0	1	-5,567301	273,670519	312,482497	0
15.01.2021	23:18:36	0	0	3,389498	0,78	306,1404	-0,102	87,812	0	1017,58	6,4	8,6	8,3	1	1	1	1	1	1	1	1	1	0	1	-3,100775	273,806726	315,582671	0
15.01.2021	23:18:37	0	0	3,389498	0,73875	309,9348	-0,095	87,831	0	1017,6	6,4	8,6	8,3	1	1	1	1	1	1	1	1	1	0	1	-7,470049	273,856763	311,446415	0
15.01.2021	23:18:38	0	0	3,954415	0,76425	312,0336	-0,092	87,819	0	1017,4	6,5	8,6	8,3	1	1	1	1	1	1	1	1	1	0	1	-5,778717	273,817017	312,952643	0
15.01.2021	23:18:39	0	0	2,824582	0,73875	311,3712	-0,093	87,81	0	1017,58	6,4	8,6	8,3	1	1	1	1	1	1	1	1	1	0	1	-5,426357	273,664683	312,59631	0
15.01.2021	23:18:40	0	0	3,841431	0,75075	306,1728	-0,096	87,83	0	1017,66	6,5	8,6	8,3	1	1	1	1	1	1	1	1	1	0	1	-5,567301	273,739234	312,802049	0
15.01.2021	23:18:41	0	0	4,745298	0,78825	303,5052	-0,093	87,812	0	1017,62	6,5	8,6	8,3	1	1	1	1	1	1	1	1	1	0	1	-9,020437	273,849396	309,861714	0
15.01.2021	23:18:42	0	0	2,598615	0,75975	309,2184	-0,097	87,827	0	1017,68	6,5	8,6	8,3	1	1	1	1	1	1	1	1	1	0	1	-5,919662	273,787628	312,674883	0
15.01.2021	23:18:43	0	0	2,824582	0,7695	308,0412	-0,098	87,824	0	1017,58	6,5	8,6	8,3	1	1	1	1	1	1	1	1	1	0	1	-7,751938	273,850869	311,137074	0
15.01.2021	23:18:44	0	0	2,711599	0,762	303,5448	-0,099	87,821	0	1017,54	6,4	8,5	8,3	1	1	1	1	1	1	1	1	1	0	1	-12,191684	273,654473	305,783525	0
15.01.2021	23:18:45	0	0	5,084247	0,741	308,106	-0,097	87,806	0	1017,62	6,4	8,6	8,3	1	1	1	1	1	1	1	1	1	0	1	-6,483439	273,8229	312,275315	0
15.01.2021	23:18:46	0	0	2,824582	0,7365	310,6584	-0,094	87,836	0	1017,68	6,4	8,6	8,3	1	1	1	1	1	1	1	1	1	0	1	-4,721635	273,809665	313,975498	0
15.01.2021	23:18:47	0	0	3,615465	0,76575	305,0748	-0,098	87,811	0	1017,62	6,5	8,6	8,3	1	1	1	1	1	1	1	1	1	0	1	-5,778717	273,855289	313,130883	0
15.01.2021	23:18:48	0	0	2,937565	0,77775	297,2304	-0,099	87,823	0	1017,72	6,5	8,6	8,3	1	1	1	1	1	1	1	1	1	0	1	-4,792107	273,800847	313,863973	0
15.01.2021	23:18:49	0	0	4,858281	0,79875	308,1564	-0,095	87,84	0	1017,66	6,5	8,6	8,3	1	1	1	1	1	1	1	1	1	0	1	-7,610994	273,853816	311,291743	0
15.01.2021	23:18:50	0	0	2,711599	0,78375	314,3952	-0,089	87,832	0	1017,64	6,4	8,6	8,3	1	1	1	1	1	1	1	1	1	0	1	-4,510218	273,770016	314,002358	0
15.01.2021	23:18:51	0	0	2,485632	0,76275	306,8928	-0,094	87,824	0	1017,64	6,4	8,6	8,3	1	1	1	1	1	1	1	1	1	0	1	-6,8358	273,674898	311,234354	0
15.01.2021	23:18:52	0	0	5,197231	0,765	298,6776	-0,1	87,828	0	1017,68	6,5	8,6	8,3	1	1	1	1	1	1	1	1	1	0	1	-5,144468	273,830256	313,648542	0
15.01.2021	23:18:53	0	0	3,276515	0,78675	300,4668	-0,098	87,83	0	1017,48	6,4	8,6	8,3	1	1	1	1	1	1	1	1	1	0	1	-2,60747	273,852343	316,288404	0
15.01.2021	23:18:54	0	0	3,163532	0,76875	300,8484	-0,096	87,831	0	1017,6	6,5	8,6	8,3	1	1	1	1	1	1	1	1	1	0	1	-5,355884	273,793502	313,266003	0
15.01.2021	23:18:55	0	0	3,502482	0,7605	297,2484	-0,096	87,871	0	1017,96	6,5	8,6	8,3	1	1	1	1	1	1	1	1	1	0	1	-6,624383	273,862658	312,319543	0
15.01.2021	23:18:56	0	0	2,598615	0,744	296,1144	-0,094	87,831	0	1017,46	6,4	8,6	8,3	1	1	1	1	1	1	1	1	1	0	1	-4,087385	273,736305	314,268338	0
15.01.2021	23:18:57	0	0	4,293365	0,7125	300,9024	-0,092	87,848	0	1017,68	6,5	8,6	8,3	1	1	1	1	1	1	1	1	1	0	1	-2,60747	273,824371	316,158134	0
15.01.2021	23:18:58	0	0	4,971264	0,66525	300,4488	-0,1	87,828	0	1017,56	6,5	8,6	8,3	1	1	1	1	1	1	1	1	1	0	1	-7,399577	273,814076	311,31809	0
15.01.2021	23:18:59	0	0	4,293365	0,68775	293,3316	-0,091	87,843	0	1017,68	6,4	8,6	8,3	1	1	1	1	1	1	1	1	1	0	1	-2,184637	273,667601	315,851594	0
15.01.2021	23:19:00	0	0	4,858281	0,714	290,7288	-0,094	87,841	0	1017,64	6,5	8,5	8,3	1	1	1	1	1	1	1	1	1	0	1	-7,963354	273,781755	310,603857	0
15.01.2021	23:19:01	0	0	4,293365	0,7215	303,5304	-0,091	87,839	0	1017,68	6,4	8,6	8,3	1	1	1	1	1	1	1	1	1	0	1	-4,580691	273,680738	313,516613	0
15.01.2021	23:19:02	0	0	5,197231	0,70875	302,0508	-0,096	87,835	0	1017,54	6,4	8,6	8,3	1	1	1	1	1	1	1	1	1	0	1	-7,399577	273,71874	310,874443	0
15.01.2021	23:19:03	0	0	2,711599	0,72225	291,4488	-0,096	87,823	0	1017,52	6,5	8,6	8,3	1	1	1	1	1	1	1	1	1	0	1	-3,171247	273,846451	315,697183	0
15.01.2021	23:19:04	0	0	2,824582	0,70575	294,7464	-0,1	87,829	0	1017,64	6,4	8,6	8,3	1	1	1	1	1	1	1	1	1	0	1	-3,382664	273,695345	314,782557	0
15.01.2021	23:19:05	0	0	4,067325	0,69525	300,2184	-0,097	87,831	0	1017,58	6,4	8,6	8,6	1	1	1	1	1	1	1	1	1	0	1	-8,527132	273,730448	309,801347	0
15.01.2021	23:19:06	0	0	4,293365	0,69975	297,522	-0,099	87,844	0	1017,64	6,5	8,6	8,3	1	1	1	1	1	1	1	1	1	0	1	-7,681466	273,834672	311,132106	0
15.01.2021	23:19:07	0	0	4,293365	0,72975	294,372	-0,099	87,841	0	1017,66	6,4	8,6	8,3	1	1	1	1	1	1	1	1	1	0	1	-6,20155	273,856763	312,714914	0
15.01.2021	23:19:08	0	0	4,745298	0,711	292,9824	-0,094	87,841	0	1017,42	6,5	8,6	8,3	1	1	1	1	1	1	1	1	1	0	1	-4,862579	273,805256	313,814024	0
15.01.2021	23:19:09	0	0	4,406348	0,72675	292,6368	-0,092	87,847	0	1017,68	6,5	8,6	8,3	1	1	1	1	1	1	1	1	1	0	1	-5,708245	273,673438	312,355123	0
15.01.2021	23:19:10	0	0	4,971264	0,71475	289,1376	-0,096	87,829	0	1017,66	6,4	8,6	8,3	1	1	1	1	1	1	1	1	1	0	1	-6,412967	273,809665	312,284166	0
15.01.2021	23:19:11	0	0	2,711599	0,71175	285,1632	-0,099	87,839	0	1017,64	6,4	8,6	8,3	1	1	1	1	1	1	1	1	1	0	1	-6,765328	273,853816	312,137409	0
15.01.2021	23:19:12	0	0	3,502482	0,69375	289,1304	-0,095	87,827	0	1017,66	6,4	8,6	8,3	1	1	1	1	1	1	1	1	1	0	1	-4,651163	273,797909	313,991239	0
15.01.2021	23:19:13	0	0	2,824582	0,70875	295,5708	-0,09	87,849	0	1017,66	6,5	8,6	8,3	1	1	1	1	1	1	1	1	1	0	1	-4,651163	273,839088	314,182976	0
15.01.2021	23:19:14	0	0	4,632314	0,7065	296,766	-0,096	87,847	0	1017,64	6,4	8,6	8,3	1	1	1	1	1	1	1	1	1	0	1	-7,82241	273,730448	310,506069	0
15.01.2021	23:19:15	0	0	4,519331	0,7185	293,3352	-0,09	87,85	0	1017,72	6,5	8,6	8,3	1	1	1	1	1	1	1	1	1	0	1	-6,342495	273,682198	311,761598	0
15.01.2021	23:19:16	0	0	4,293365	0,7035	289,2204	-0,091	87,84	0	1017,78	6,5	8,6	8,3	1	1	1	1	1	1	1	1	1	0	1	-6,553911	273,799378	312,095329	0
15.01.2021	23:19:17	0	0	4,858281	0,69	285,12	-0,094	87,849	0	1017,62	6,5	8,6	8,3	1	1	1	1	1	1	1	1	1	0	1	-6,624383	273,736305	311,73134	0
15.01.2021	23:19:18	0	0	4,067398	0,69525	288,846	-0,095	87,836	0	1017,52	6,5	8,6	8,3	1	1	1	1	1	1	1	1	1	0	1	-7,047216	273,66906	310,995798	0
15.01.2021	23:19:19	0	0	3,841431	0,71475	289,1412	-0,091	87,843	0	1017,38	6,4	8,6	8,3	1	1	1	1	1	1	1	1	1	0	1	-4,22833	273,847923	314,64696	0
15.01.2021	23:19:20	0	0	4,632314	0,77025	285,5664	-0,09	87,851	0	1017,64	6,5	8,6	8,3	1	1	1	1	1	1	1	1	1	0	1	-8,879493	273,831728	309,920371	0
15.01.2021	23:19:21	0	0	2,937565	0,825	282,4992	-0,091	87,848	0	1017,64	6,4	8,6	8,3	1	1	1	1	1	1	1	1	1	0	1	-4,933051	273,847923	313,942239	0
15.01.2021	23:19:22	0	0	4,632314	0,89475	286,6968	-0,089	87,838	0	1017,64	6,4	8,6	8,3	1	1	1	1	1	1	1	1	1	0	1	-4,016913	273,814076	314,700754	0
15.01.2021	23:19:23	0	0	2,824582	0,921	297,8604	-0,09	87,9	0	1017,6	6,5	8,6	8,3	1	1	1	1	1	1	1	1	1	0	1	-5,144468	273,695345	313,020753	0
15.01.2021	23:19:24	0	0	4,632314	0,92175	294,4692	-0,093	87,842	0	1017,48	6,4	8,6	8,3	1	1	1	1	1	1	1	1	1	0	1	-3,100775	273,853816	315,801962	0
15.01.2021	23:19:25	0	0	4,858281	0,89025	286,9704	-0,099	87,834	0	1017,56	6,5	8,6	8,3	1	1	1	1	1	1	1	1	1	0	1	-8,315715	273,8332	310,491002	0
15.01.2021	23:19:26	0	0	2,372649	0,864	292,1724	-0,091	87,836	0	1017,66	6,4	8,6	8,3	1	1	1	1	1	1	1	1	1	0	1	-4,22833	273,78616	314,359381	0
15.01.2021	23:19:27	0	0	5,197231	0,84525	300,7944	-0,09	87,851	0	1017,62	6,5	8,6	8,3	1	1	1	1	1	1	1	1	1	0	1	-5,637773	273,864132	313,313021	0
15.01.2021	23:19:28	0	0	4,406348	0,864	296,1432	-0,091	87,842	0	1017,58	6,5	8,6	8,3	1	1	1	1	1	1	1	1	1	0	1	-5,144468	273,742164	313,238511	0
15.01.2021	23:19:29	0	0	2,598615	0,897	284,4252	-0,091	87,859	0	1017,6	6,5	8,6	8,3	1	1	1	1	1	1	1	1	1	0	1	-7,188161	273,861184	311,748899	0
15.01.2021	23:19:30	0	0	5,084247	0,92175	284,3928	-0,095	87,841	0	1017,7	6,4	8,5	8,3	1	1	1	1	1	1	1	1	1	0	1	-11,768851	273,781755	306,79836	0
15.01.2021	23:19:31	0	0	3,050548	0,97425	285,9444	-0,097	87,843	0	1017,48	6,5	8,6	8,3	1	1	1	1	1	1	1	1	1	0	1	-6,976744	273,677818	311,106983	0
15.01.2021	23:19:32	0	0	4,745298	0,9945	283,5792	-0,097	87,826	0	1017,5	6,4	8,6	8,3	1	1	1	1	1	1	1	1	1	0	1	-8,949965	273,75975	309,514838	0
15.01.2021	23:19:33	0	0	3,841431	0,98625	290,79	-0,101	87,833	0	1017,5	6,4	8,6	8,3	1	1	1	1	1	1	1	1	1	0	1	-4,792107	273,861184	314,144953	0
15.01.2021	23:19:34	0	0	3,163532	0,9555	293,3244	-0,096	87,826	0	1017,6	6,5	8,6	8,3	1	1	1	1	1	1	1	1	1	0	1	-7,681466	273,802317	310,981455	0
15.01.2021	23:19:35	0	0	4,180381	0,95175	290,4336	-0,092	87,834	0	1017,7	6,5	8,6	8,3	1	1	1	1	1	1	1	1	1	0	1	-4,087385	273,68658	314,037078	0
15.01.2021	23:19:36	0	0	4,519331	0,9165	289,224	-0,096	87,838	0	1017,64	6,4	8,6	8,3	1	1	1	1	1	1	1	1	1	0	1	-5,778717	273,69973	312,406891	0
15.01.2021	23:19:37	0	0	3,502482	0,939	295,1928	-0,092	87,835	0	1017,54	6,5	8,6	8,3	1	1	1	1	1	1	1	1	1	0	1	-7,963354	273,830256	310,829656	0
15.01.2021	23:19:38	0	0	4,858281	0,90525	305,7084	-0,095	87,836	0	1017,68	6,5	8,6	8,3	1	1	1	1	1	1	1	1	1	0	1	-7,963354	273,68804	310,1679	0
15.01.2021	23:19:39	0	0	4,180381	0,8865	309,9276	-0,091	87,832	0	1017,56	6,4	8,6	8,3	1	1	1	1	1	1	1	1	1	0	1	-7,047216	273,797909	311,595185	0
15.01.2021	23:19:40	0	0	4,406348	0,93225	304,7724	-0,09	87,834	0	1017,74	6,4	8,6	8,3	1	1	1	1	1	1	1	1	1	0	1	-9,936575	273,858237	308,986754	0
15.01.2021	23:19:41	0	0	3,502482	0,93675	304,1928	-0,089	87,843	0	1017,6	6,5	8,6	8,3	1	1	1	1	1	1	1	1	1	0	1	-10,288936	273,758284	308,169045	0
15.01.2021	23:19:42	0	0	2,937565	0,8985	307,1484	-0,089	87,845	0	1017,76	6,5	8,6	8,3	1	1	1	1	1	1	1	1	1	0	1	-8,104299	273,865607	310,853363	0
15.01.2021	23:19:43	0	0	2,711599	0,85425	306,3672	-0,092	87,838	0	1017,46	6,4	8,6	8,3	1	1	1	1	1	1	1	1	1	0	1	-5,355884	273,733377	312,986216	0
15.01.2021	23:19:44	0	0	2,711599	0,831	312,1884	-0,094	87,837	0	1017,5	6,4	8,6	8,3	1	1	1	1	1	1	1	1	1	0	1	-4,510218	273,68658	313,614245	0
15.01.2021	23:19:45	0	0	3,163532	0,77625	319,158	-0,095	87,822	0	1017,54	6,4	8,6	8,3	1	1	1	1	1	1	1	1	1	0	1	-5,144468	273,79644	313,491095	0
15.01.2021	23:19:46	0	0	4,067398	0,74775	320,0076	-0,091	87,834	0	1017,52	6,5	8,6	8,3	1	1	1	1	1	1	1	1	1	0	1	-5,496829	273,858237	313,4265	0
15.01.2021	23:19:47	0	0	4,858281	0,74175	314,7732	-0,091	87,84	0	1017,56	6,5	8,6	8,3	1	1	1	1	1	1	1	1	1	0	1	-9,302326	273,764149	309,182948	0
15.01.2021	23:19:48	0	0	3,389498	0,72825	309,3372	-0,09	87,835	0	1017,66	6,5	8,6	8,3	1	1	1	1	1	1	1	1	1	0	1	-5,708245	273,856763	313,208219	0
15.01.2021	23:19:49	0	0	3,163532	0,744	305,7228	-0,087	87,837	0	1017,6	6,5	8,6	8,3	1	1	1	1	1	1	1	1	1	0	1	-10,359408	273,756818	308,091751	0
15.01.2021	23:19:50	0	0	3,502482	0,795	308,88	-0,092	87,819	0	1017,74	6,5	8,5	8,3	1	1	1	1	1	1	1	1	1	0	1	-7,470049	273,701191	310,722357	0
15.01.2021	23:19:51	0	0	2,937565	0,76275	323,712	-0,091	87,839	0	1017,56	6,4	8,6	8,3	1	1	1	1	1	1	1	1	1	0	1	-8,174771	273,702653	310,024433	0
15.01.2021	23:19:52	0	0	3,276515	0,771	330,0372	-0,091	87,834	0	1017,76	6,4	8,6	8,3	1	1	1	1	1	1	1	1	1	0	1	-3,664553	273,824371	315,101052	0
15.01.2021	23:19:53	0	0	4,293365	0,6945	325,1592	-0,089	87,833	0	1017,66	6,5	8,6	8,3	1	1	1	1	1	1	1	1	1	0	1	-9,090909	273,846451	309,777521	0
15.01.2021	23:19:54	0	0	2,824582	0,68325	318,4308	-0,094	87,834	0	1017,66	6,4	8,6	8,3	1	1	1	1	1	1	1	1	1	0	1	-4,721635	273,740699	313,654529	0
15.01.2021	23:19:55	0	0	3,050548	0,666	313,2288	-0,097	87,837	0	1017,44	6,4	8,6	8,3	1	1	1	1	1	1	1	1	1	0	1	-8,949965	273,862658	309,993962	0
15.01.2021	23:19:56	0	0	3,163532	0,61875	310,752	-0,097	87,821	0	1017,76	6,4	8,6	8,3	1	1	1	1	1	1	1	1	1	0	1	-6,131078	273,781755	312,436133	0
15.01.2021	23:19:57	0	0	2,824582	0,597	315,4896	-0,093	87,826	0	1017,58	6,5	8,6	8,3	1	1	1	1	1	1	1	1	1	0	1	-4,157858	273,682198	313,946235	0
15.01.2021	23:19:58	0	0	4,745298	0,55125	321,8868	-0,093	87,841	0	1017,74	6,5	8,6	8,3	1	1	1	1	1	1	1	1	1	0	1	-7,963354	273,803786	310,706408	0
15.01.2021	23:19:59	0	0	4,745298	0,5565	320,76	-0,094	87,814	0	1017,78	6,4	8,6	8,3	1	1	1	1	1	1	1	1	1	0	1	-6,553911	273,831728	312,245952	0
15.01.2021	23:20:00	0	0	3,502482	0,5505	311,04	-0,097	87,831	0	1017,6	6,4	8,6	8,3	1	1	1	1	1	1	1	1	1	0	1	-8,668076	273,790565	309,940139	0
15.01.2021	23:20:01	0	0	2,824582	0,53025	298,6776	-0,096	87,836	0	1017,58	6,4	8,6	8,3	1	1	1	1	1	1	1	1	1	0	1	-7,258633	273,871505	311,726506	0
15.01.2021	23:20:02	0	0	2,598615	0,579	284,5476	-0,088	87,837	0	1017,78	6,5	8,6	8,3	1	1	1	1	1	1	1	1	1	0	1	-8,033827	273,711426	310,206176	0
15.01.2021	23:20:03	0	0	3,502482	0,6255	282,4308	-0,095	87,832	0	1017,54	6,4	8,6	8,3	1	1	1	1	1	1	1	1	1	0	1	-6,765328	273,821429	311,986577	0
15.01.2021	23:20:04	0	0	4,632314	0,66525	294,4836	-0,093	87,816	0	1017,7	6,4	8,6	8,3	1	1	1	1	1	1	1	1	1	0	1	-5,144468	273,87003	313,833801	0
15.01.2021	23:20:05	0	0	2,937565	0,68925	308,9448	-0,094	87,822	0	1017,6	6,5	8,6	8,3	1	1	1	1	1	1	1	1	1	0	1	-2,043693	273,734841	316,305219	0
15.01.2021	23:20:06	0	0	2,937565	0,70275	314,7984	-0,09	87,83	0	1017,72	6,5	8,6	8,3	1	1	1	1	1	1	1	1	1	0	1	-7,470049	273,871505	311,51509	0
15.01.2021	23:20:07	0	0	4,406348	0,681	308,502	-0,088	87,845	0	1017,6	6,5	8,6	8,3	1	1	1	1	1	1	1	1	1	0	1	-4,721635	273,746559	313,681791	0
15.01.2021	23:20:08	0	0	2,259666	0,711	300,996	-0,094	87,826	0	1017,7	6,5	8,6	8,3	1	1	1	1	1	1	1	1	1	0	1	-5,84919	273,683659	312,261693	0
15.01.2021	23:20:09	0	0	2,598615	0,72225	305,424	-0,095	87,812	0	1017,58	6,5	8,6	8,3	1	1	1	1	1	1	1	1	1	0	1	-3,875969	273,811135	314,828008	0
15.01.2021	23:20:10	0	0	4,067398	0,74025	305,262	-0,093	87,828	0	1017,74	6,4	8,6	8,3	1	1	1	1	1	1	1	1	1	0	1	-3,805497	273,830256	314,987514	0
15.01.2021	23:20:11	0	0	2,711599	0,8115	306,162	-0,097	87,823	0	1017,62	6,4	8,6	8,3	1	1	1	1	1	1	1	1	1	0	1	-2,959831	273,842033	315,888023	0
15.01.2021	23:20:12	0	0	4,406348	0,891	298,818	-0,093	87,812	0	1017,56	6,4	8,6	8,3	1	1	1	1	1	1	1	1	1	0	1	-6,694856	273,714352	311,558752	0
15.01.2021	23:20:13	0	0	4,632314	0,912	303,2676	-0,095	87,813	0	1017,54	6,5	8,6	8,3	1	1	1	1	1	1	1	1	1	0	1	-8,668076	273,794971	309,960649	0
15.01.2021	23:20:14	0	0	3,389498	0,9105	314,0352	-0,094	87,809	0	1017,68	6,5	8,6	8,3	1	1	1	1	1	1	1	1	1	0	1	-3,735025	273,702653	314,464179	0
15.01.2021	23:20:15	0	0	2,711599	0,92175	312,5232	-0,088	87,821	0	1017,74	6,5	8,6	8,3	1	1	1	1	1	1	1	1	1	0	1	-9,231853	273,849396	309,650297	0
15.01.2021	23:20:16	0	0	2,146682	0,945	309,6648	-0,09	87,803	0	1017,56	6,5	8,6	8,3	1	1	1	1	1	1	1	1	1	0	1	-7,399577	273,677818	310,68415	0
15.01.2021	23:20:17	0	0	3,050548	1,01775	308,4408	-0,089	87,823	0	1017,7	6,4	8,6	8,3	1	1	1	1	1	1	1	1	1	0	1	-5,355884	273,746559	313,047542	0
15.01.2021	23:20:18	0	0	2,598615	1,07925	307,2348	-0,095	87,797	0	1017,64	6,5	8,6	8,3	1	1	1	1	1	1	1	1	1	0	1	-6,412967	273,670519	311,636831	0
15.01.2021	23:20:19	0	0	3,050548	1,06875	315,5616	-0,09	87,818	0	1017,52	6,5	8,6	8,3	1	1	1	1	1	1	1	1	1	0	1	-5,778717	273,734841	312,570194	0
15.01.2021	23:20:20	0	0	2,937565	1,07475	311,8212	-0,092	87,823	0	1017,68	6,4	8,6	8,3	1	1	1	1	1	1	1	1	1	0	1	-8,315715	273,855289	310,593885	0
15.01.2021	23:20:21	0	0	4,632314	1,02525	302,8032	-0,091	87,819	0	1017,74	6,5	8,6	8,3	1	1	1	1	1	1	1	1	1	0	1	-6,131078	273,858237	312,792251	0
15.01.2021	23:20:22	0	0	5,084247	1,05675	304,7112	-0,092	87,819	0	1017,56	6,4	8,6	8,3	1	1	1	1	1	1	1	1	1	0	1	-7,047216	273,8332	311,759501	0
15.01.2021	23:20:23	0	0	2,824582	0,99375	309,4992	-0,091	87,824	0	1017,8	6,5	8,6	8,3	1	1	1	1	1	1	1	1	1	0	1	-6,483439	273,87003	312,49483	0
15.01.2021	23:20:24	0	0	2,598615	0,9705	317,4408	-0,094	87,805	0	1017,64	6,5	8,6	8,3	1	1	1	1	1	1	1	1	1	0	1	-7,258633	273,8229	311,500121	0
15.01.2021	23:20:25	0	0	2,598615	0,9375	313,632	-0,088	87,813	0	1017,7	6,4	8,6	8,3	1	1	1	1	1	1	1	1	1	0	1	-9,231853	273,87003	309,746415	0
15.01.2021	23:20:26	0	0	4,971264	0,92475	308,1024	-0,094	87,793	0	1017,64	6,5	8,6	8,3	1	1	1	1	1	1	1	1	1	0	1	-5,355884	273,726057	312,952168	0
15.01.2021	23:20:27	0	0	3,954415	0,873	309,5712	-0,098	87,8	0	1017,4	6,5	8,6	8,3	1	1	1	1	1	1	1	1	1	0	1	-5,919662	273,856763	312,996803	0
15.01.2021	23:20:28	0	0	3,841431	0,88575	316,2132	-0,094	87,825	0	1017,66	6,4	8,6	8,3	1	1	1	1	1	1	1	1	1	0	1	-4,369274	273,815546	314,35524	0
15.01.2021	23:20:29	0	0	4,745298	0,85875	319,5	-0,093	87,81	0	1017,58	6,5	8,6	8,3	1	1	1	1	1	1	1	1	1	0	1	-6,272023	273,84056	312,568973	0
15.01.2021	23:20:30	0	0	3,841431	0,83325	312,8616	-0,092	87,797	0	1017,64	6,4	8,6	8,3	1	1	1	1	1	1	1	1	1	0	1	-5,285412	273,720203	312,995413	0
15.01.2021	23:20:31	0	0	2,711599	0,7575	309,2076	-0,093	87,801	0	1017,68	6,5	8,6	8,3	1	1	1	1	1	1	1	1	1	0	1	-7,610994	273,855289	311,298607	0
15.01.2021	23:20:32	0	0	4,519331	0,71775	324,1332	-0,094	87,806	0	1017,64	6,5	8,6	8,3	1	1	1	1	1	1	1	1	1	0	1	-8,174771	273,855289	310,734829	0
15.01.2021	23:20:33	0	0	4,293365	0,6735	332,064	-0,094	87,807	0	1017,52	6,4	8,6	8,3	1	1	1	1	1	1	1	1	1	0	1	-7,82241	273,821429	310,929495	0
15.01.2021	23:20:34	0	0	4,519331	0,68175	323,3988	-0,091	87,803	0	1017,74	6,4	8,6	8,3	1	1	1	1	1	1	1	1	1	0	1	-11,627907	273,815546	307,096607	0
15.01.2021	23:20:35	0	0	4,293365	0,729	319,2552	-0,09	87,806	0	1017,62	6,4	8,6	8,3	1	1	1	1	1	1	1	1	1	0	1	-9,725159	273,84056	309,115837	0
15.01.2021	23:20:36	0	0	4,067398	0,744	325,1628	-0,089	87,808	0	1017,7	6,4	8,6	8,3	1	1	1	1	1	1	1	1	1	0	1	-6,694856	273,811135	312,009122	0
15.01.2021	23:20:37	0	0	3,276515	0,78375	329,6808	-0,095	87,788	0	1017,6	6,5	8,6	8,3	1	1	1	1	1	1	1	1	1	0	1	-3,453136	273,68658	314,671327	0
15.01.2021	23:20:38	0	0	3,728448	0,828	320,4936	-0,092	87,791	0	1017,54	6,5	8,6	8,3	1	1	1	1	1	1	1	1	1	0	1	-8,174771	273,711426	310,065232	0
15.01.2021	23:20:39	0	0	4,293365	0,83925	325,5912	-0,1	87,793	0	1017,6	6,5	8,5	8,3	1	1	1	1	1	1	1	1	1	0	1	-5,21494	273,696807	312,957076	0
15.01.2021	23:20:40	0	0	4,858281	0,84675	335,502	-0,093	87,78	0	1017,64	6,5	8,6	8,3	1	1	1	1	1	1	1	1	1	0	1	-9,020437	273,674898	309,049717	0
15.01.2021	23:20:41	0	0	3,615465	0,84	337,104	-0,092	87,791	0	1017,58	6,5	8,6	8,3	1	1	1	1	1	1	1	1	1	0	1	-8,104299	273,808195	310,58599	0
15.01.2021	23:20:42	0	0	3,841431	0,82725	333,54	-0,096	87,803	0	1017,62	6,5	8,6	8,3	1	1	1	1	1	1	1	1	1	0	1	-8,80902	273,698268	309,369792	0
15.01.2021	23:20:43	0	0	4,858281	0,79575	323,0316	-0,098	87,778	0	1017,66	6,5	8,6	8,3	1	1	1	1	1	1	1	1	1	0	1	-4,651163	273,814076	314,066505	0
15.01.2021	23:20:44	0	0	3,502482	0,8625	320,0364	-0,088	87,784	0	1017,7	6,5	8,6	8,3	1	1	1	1	1	1	1	1	1	0	1	-7,047216	273,846451	311,821214	0
15.01.2021	23:20:45	0	0	4,519331	0,86625	327,8952	-0,091	87,78	0	1017,7	6,4	8,6	8,3	1	1	1	1	1	1	1	1	1	0	1	-8,174771	273,771483	310,344632	0
15.01.2021	23:20:46	0	0	3,615465	0,912	330,1164	-0,09	87,773	0	1017,54	6,4	8,6	8,3	1	1	1	1	1	1	1	1	1	0	1	-4,016913	273,844978	314,844657	0
15.01.2021	23:20:47	0	0	3,163532	0,92025	331,4736	-0,089	87,787	0	1017,58	6,5	8,6	8,3	1	1	1	1	1	1	1	1	1	0	1	-10,570825	273,768549	307,934925	0
15.01.2021	23:20:48	0	0	3,050548	0,97575	333,1656	-0,093	87,795	0	1017,68	6,5	8,6	8,3	1	1	1	1	1	1	1	1	1	0	1	-7,610994	273,674898	310,45916	0
15.01.2021	23:20:49	0	0	5,423197	0,9405	329,8644	-0,099	87,781	0	1017,52	6,4	8,6	8,3	1	1	1	1	1	1	1	1	1	0	1	-8,738548	273,736305	309,617176	0
15.01.2021	23:20:50	0	0	3,728448	0,90675	330,0012	-0,092	87,781	0	1017,64	6,5	8,6	8,3	1	1	1	1	1	1	1	1	1	0	1	-4,862579	273,846451	314,005851	0
15.01.2021	23:20:51	0	0	3,389498	0,87675	327,7332	-0,091	87,786	0	1017,64	6,5	8,6	8,3	1	1	1	1	1	1	1	1	1	0	1	-1,832276	273,808195	316,858013	0
15.01.2021	23:20:52	0	0	3,050548	0,861	324,3636	-0,097	87,754	0	1017,58	6,5	8,6	8,3	1	1	1	1	1	1	1	1	1	0	1	-4,933051	273,708501	313,293349	0
15.01.2021	23:20:53	0	0	5,084247	0,798	324,4428	-0,094	87,772	0	1017,58	6,5	8,6	8,3	1	1	1	1	1	1	1	1	1	0	1	-1,550388	273,797909	317,092014	0
15.01.2021	23:20:54	0	0	4,293365	0,759	324,8208	-0,097	87,764	0	1017,7	6,5	8,6	8,3	1	1	1	1	1	1	1	1	1	0	1	-5,990134	273,847923	312,885156	0
15.01.2021	23:20:55	0	0	2,146682	0,738	324,1044	-0,102	87,777	0	1017,64	6,5	8,6	8,3	1	1	1	1	1	1	1	1	1	0	1	-3,664553	273,73777	314,697984	0
15.01.2021	23:20:56	0	0	2,598615	0,69525	318,114	-0,092	87,776	0	1017,66	6,5	8,6	8,3	1	1	1	1	1	1	1	1	1	0	1	-2,677942	273,704115	315,52806	0
15.01.2021	23:20:57	0	0	4,858281	0,696	313,3116	-0,092	87,77	0	1017,64	6,4	8,6	8,3	1	1	1	1	1	1	1	1	1	0	1	-4,369274	273,726057	313,938778	0
15.01.2021	23:20:58	0	0	3,389498	0,67725	314,496	-0,088	87,773	0	1017,5	6,4	8,6	8,3	1	1	1	1	1	1	1	1	1	0	1	-5,355884	273,864132	313,594909	0
15.01.2021	23:20:59	0	0	4,180381	0,6915	323,2944	-0,1	87,774	0	1017,66	6,4	8,6	8,3	1	1	1	1	1	1	1	1	1	0	1	-4,087385	273,68658	314,037078	0
15.01.2021	23:21:00	0	0	2,824582	0,7215	336,348	-0,09	87,779	0	1017,66	6,4	8,6	8,3	1	1	1	1	1	1	1	1	1	0	1	-3,805497	273,799378	314,843744	0
15.01.2021	23:21:01	0	0	2,824582	0,74625	329,706	-0,092	87,769	0	1017,52	6,5	8,6	8,3	1	1	1	1	1	1	1	1	1	0	1	-2,889359	273,676358	315,187582	0
15.01.2021	23:21:02	0	0	4,519331	0,71475	305,6976	-0,095	87,764	0	1017,58	6,4	8,6	8,3	1	1	1	1	1	1	1	1	1	0	1	-3,946441	273,799378	314,702799	0
15.01.2021	23:21:03	0	0	3,276515	0,756	298,9476	-0,086	87,753	0	1017,48	6,5	8,6	8,3	1	1	1	1	1	1	1	1	1	0	1	-5,637773	273,842033	313,21008	0
15.01.2021	23:21:04	0	0	3,050548	0,78525	298,3392	-0,092	87,771	0	1017,6	6,5	8,5	8,3	1	1	1	1	1	1	1	1	1	0	1	-5,144468	273,836144	313,675959	0
15.01.2021	23:21:05	0	0	3,276515	0,82125	300,4992	-0,091	87,773	0	1017,68	6,5	8,6	8,3	1	1	1	1	1	1	1	1	1	0	1	-3,664553	273,849396	315,217598	0
15.01.2021	23:21:06	0	0	2,824582	0,861	301,2624	-0,092	87,76	0	1017,62	6,5	8,6	8,3	1	1	1	1	1	1	1	1	1	0	1	-7,610994	273,792033	311,004057	0
15.01.2021	23:21:07	0	0	4,519331	0,91725	312,2064	-0,092	87,767	0	1017,58	6,5	8,6	8,3	1	1	1	1	1	1	1	1	1	0	1	-6,272023	273,673438	311,791346	0
15.01.2021	23:21:08	0	0	3,050548	0,933	324,2052	-0,091	87,769	0	1017,62	6,4	8,6	8,3	1	1	1	1	1	1	1	1	1	0	1	-3,030303	273,797909	315,612098	0
15.01.2021	23:21:09	0	0	3,276515	0,966	317,7684	-0,095	87,767	0	1017,66	6,5	8,6	8,3	1	1	1	1	1	1	1	1	1	0	1	-6,765328	273,689501	311,372719	0
15.01.2021	23:21:10	0	0	3,728448	0,99225	315,8856	-0,095	87,757	0	1017,32	6,5	8,6	8,3	1	1	1	1	1	1	1	1	1	0	1	-6,624383	273,683659	311,486499	0
15.01.2021	23:21:11	0	0	3,615465	1,0185	328,1904	-0,096	87,759	0	1017,52	6,5	8,6	8,3	1	1	1	1	1	1	1	1	1	0	1	-4,369274	273,726057	313,938778	0
15.01.2021	23:21:12	0	0	3,954415	0,97875	334,9008	-0,093	87,771	0	1017,62	6,5	8,6	8,3	1	1	1	1	1	1	1	1	1	0	1	-6,060606	273,674898	312,009548	0
15.01.2021	23:21:13	0	0	4,971264	0,9255	322,974	-0,092	87,77	0	1017,64	6,4	8,6	8,3	1	1	1	1	1	1	1	1	1	0	1	-5,144468	273,812606	313,566354	0
15.01.2021	23:21:14	0	0	4,519331	0,903	309,8376	-0,094	87,755	0	1017,62	6,5	8,6	8,3	1	1	1	1	1	1	1	1	1	0	1	-5,84919	273,855289	313,060411	0
15.01.2021	23:21:15	0	0	3,841431	0,9135	311,4144	-0,102	87,754	0	1017,6	6,4	8,6	8,3	1	1	1	1	1	1	1	1	1	0	1	-8,104299	273,731912	310,23099	0
15.01.2021	23:21:16	0	0	4,180381	0,891	315,972	-0,086	87,752	0	1017,62	6,5	8,6	8,3	1	1	1	1	1	1	1	1	1	0	1	-7,047216	273,84056	311,793779	0
15.01.2021	23:21:17	0	0	4,293365	0,86025	318,78	-0,095	87,749	0	1017,58	6,5	8,6	8,3	1	1	1	1	1	1	1	1	1	0	1	-7,399577	273,830256	311,393433	0
15.01.2021	23:21:18	0	0	3,502482	0,813	321,804	-0,093	87,764	0	1017,58	6,5	8,6	8,3	1	1	1	1	1	1	1	1	1	0	1	-4,016913	273,825842	314,755541	0
15.01.2021	23:21:19	0	0	3,163532	0,8265	319,9752	-0,096	87,742	0	1017,56	6,5	8,6	8,3	1	1	1	1	1	1	1	1	1	0	1	-6,342495	273,790565	312,26572	0
15.01.2021	23:21:20	0	0	4,971264	0,846	318,4272	-0,092	87,766	0	1017,58	6,4	8,6	8,3	1	1	1	1	1	1	1	1	1	0	1	-3,59408	273,846451	315,27435	0
15.01.2021	23:21:21	0	0	3,163532	0,82875	324,7596	-0,1	87,757	0	1017,46	6,5	8,6	8,3	1	1	1	1	1	1	1	1	1	0	1	-1,973221	273,77295	316,553011	0
15.01.2021	23:21:22	0	0	3,615465	0,7905	329,2884	-0,096	87,763	0	1017,68	6,4	8,6	8,3	1	1	1	1	1	1	1	1	1	0	1	-9,44327	273,856763	309,473194	0
15.01.2021	23:21:23	0	0	4,858281	0,74625	325,4832	-0,096	87,764	0	1017,58	6,5	8,6	8,3	1	1	1	1	1	1	1	1	1	0	1	-8,879493	273,73777	309,483044	0
15.01.2021	23:21:24	0	0	4,971264	0,7335	321,9192	-0,099	87,761	0	1017,52	6,4	8,6	8,3	1	1	1	1	1	1	1	1	1	0	1	-3,735025	273,671979	314,321558	0
15.01.2021	23:21:25	0	0	4,971264	0,72825	324,3816	-0,093	87,76	0	1017,62	6,5	8,6	8,3	1	1	1	1	1	1	1	1	1	0	1	-7,047216	273,720203	311,233609	0
15.01.2021	23:21:26	0	0	3,502482	0,729	322,2504	-0,094	87,746	0	1017,58	6,5	8,6	8,3	1	1	1	1	1	1	1	1	1	0	1	-3,100775	273,68804	315,030479	0
15.01.2021	23:21:27	0	0	3,841431	0,73875	315,5184	-0,093	87,754	0	1017,74	6,4	8,6	8,3	1	1	1	1	1	1	1	1	1	0	1	-5,919662	273,730448	312,408817	0
15.01.2021	23:21:28	0	0	3,615465	0,72825	306,0936	-0,096	87,764	0	1017,66	6,5	8,6	8,3	1	1	1	1	1	1	1	1	1	0	1	-8,104299	273,843505	310,750413	0
15.01.2021	23:21:29	0	0	4,406348	0,6765	293,7168	-0,095	87,755	0	1017,52	6,4	8,6	8,3	1	1	1	1	1	1	1	1	1	0	1	-7,610994	273,750955	310,812886	0
15.01.2021	23:21:30	0	0	5,536181	0,71025	295,1424	-0,097	87,76	0	1017,68	6,5	8,6	8,3	1	1	1	1	1	1	1	1	1	0	1	-3,24172	273,855289	315,667881	0
15.01.2021	23:21:31	0	0	2,711599	0,71025	304,5852	-0,092	87,751	0	1017,7	6,4	8,6	8,3	1	1	1	1	1	1	1	1	1	0	1	-5,990134	273,789096	312,611245	0
15.01.2021	23:21:32	0	0	5,084247	0,789	305,3772	-0,098	87,741	0	1017,66	6,5	8,6	8,3	1	1	1	1	1	1	1	1	1	0	1	-7,188161	273,843505	311,666551	0
15.01.2021	23:21:33	0	0	2,711599	0,7995	311,8212	-0,095	87,748	0	1017,6	6,5	8,6	8,3	1	1	1	1	1	1	1	1	1	0	1	-7,399577	273,728984	310,922092	0
15.01.2021	23:21:34	0	0	3,502482	0,8145	322,7148	-0,095	87,746	0	1017,64	6,5	8,6	8,3	1	1	1	1	1	1	1	1	1	0	1	-6,342495	273,66906	311,70052	0
15.01.2021	23:21:35	0	0	3,276515	0,8505	317,808	-0,097	87,756	0	1017,64	6,5	8,6	8,3	1	1	1	1	1	1	1	1	1	0	1	-2,184637	273,784691	316,39624	0
15.01.2021	23:21:36	0	0	4,180381	0,8685	314,1144	-0,093	87,748	0	1017,64	6,5	8,6	8,3	1	1	1	1	1	1	1	1	1	0	1	-7,82241	273,852343	311,073464	0
15.01.2021	23:21:37	0	0	4,406348	0,90975	320,3712	-0,104	87,752	0	1017,7	6,5	8,6	8,3	1	1	1	1	1	1	1	1	1	0	1	-3,312192	273,818487	315,426016	0
15.01.2021	23:21:38	0	0	2,259666	0,972	314,964	-0,095	87,748	0	1017,68	6,5	8,6	8,3	1	1	1	1	1	1	1	1	1	0	1	-6,412967	273,852343	312,482907	0
15.01.2021	23:21:39	0	0	4,632314	1,01775	318,1572	-0,097	87,765	0	1017,6	6,5	8,5	8,3	1	1	1	1	1	1	1	1	1	0	1	-5,567301	273,730448	312,761178	0
15.01.2021	23:21:40	0	0	4,519331	1,047	330,4188	-0,096	87,741	0	1017,66	6,5	8,6	8,3	1	1	1	1	1	1	1	1	1	0	1	-6,553911	273,676358	311,523029	0
15.01.2021	23:21:41	0	0	4,180381	1,05825	330,4548	-0,099	87,72	0	1017,58	6,5	8,6	8,3	1	1	1	1	1	1	1	1	1	0	1	-7,047216	273,75242	311,383482	0
15.01.2021	23:21:42	0	0	2,711599	1,08375	332,3988	-0,099	87,737	0	1017,56	6,4	8,6	8,3	1	1	1	1	1	1	1	1	1	0	1	-4,298802	273,683659	313,81208	0
15.01.2021	23:21:43	0	0	2,485632	1,0605	328,9536	-0,097	87,756	0	1017,74	6,5	8,6	8,3	1	1	1	1	1	1	1	1	1	0	1	-7,892882	273,825842	310,879572	0
15.01.2021	23:21:44	0	0	2,711599	1,0305	315,9072	-0,094	87,755	0	1017,6	6,5	8,6	8,3	1	1	1	1	1	1	1	1	1	0	1	-4,721635	273,755352	313,722704	0
15.01.2021	23:21:45	0	0	3,954415	1,04475	318,4992	-0,096	87,74	0	1017,56	6,4	8,6	8,3	1	1	1	1	1	1	1	1	1	0	1	-9,44327	273,655931	308,538717	0
15.01.2021	23:21:46	0	0	2,824582	1,0935	314,8056	-0,102	87,729	0	1017,66	6,5	8,6	8,3	1	1	1	1	1	1	1	1	1	0	1	-9,020437	273,789096	309,580942	0
15.01.2021	23:21:47	0	0	4,406348	1,16775	310,6584	-0,102	87,739	0	1017,62	6,4	8,6	8,3	1	1	1	1	1	1	1	1	1	0	1	-10,711769	273,842033	308,136085	0
15.01.2021	23:21:48	0	0	3,954415	1,188	316,296	-0,101	87,737	0	1017,5	6,5	8,6	8,3	1	1	1	1	1	1	1	1	1	0	1	-6,765328	273,742164	311,617651	0
15.01.2021	23:21:49	0	0	4,632314	1,18125	324,1224	-0,098	87,752	0	1017,74	6,4	8,6	8,3	1	1	1	1	1	1	1	1	1	0	1	-8,738548	273,842033	310,109305	0
15.01.2021	23:21:50	0	0	4,180381	1,197	319,0896	-0,102	87,722	0	1017,46	6,5	8,5	8,3	1	1	1	1	1	1	1	1	1	0	1	-7,258633	273,777352	311,288086	0
15.01.2021	23:21:51	0	0	2,937565	1,17075	314,8524	-0,097	87,733	0	1017,62	6,5	8,6	8,3	1	1	1	1	1	1	1	1	1	0	1	-9,936575	273,711426	308,303428	0
15.01.2021	23:21:52	0	0	3,050548	1,13175	317,7216	-0,102	87,737	0	1017,7	6,5	8,6	8,3	1	1	1	1	1	1	1	1	1	0	1	-6,8358	273,696807	311,336217	0
15.01.2021	23:21:53	0	0	3,841431	1,1175	318,4236	-0,102	87,733	0	1017,88	6,4	8,6	8,3	1	1	1	1	1	1	1	1	1	0	1	-3,664553	273,799378	314,984688	0
15.01.2021	23:21:54	0	0	3,954415	1,11675	318,816	-0,095	87,735	0	1017,72	6,4	8,6	8,3	1	1	1	1	1	1	1	1	1	0	1	-5,144468	273,839088	313,689671	0
15.01.2021	23:21:55	0	0	2,937565	1,11	322,2324	-0,097	87,745	0	1017,6	6,5	8,6	8,3	1	1	1	1	1	1	1	1	1	0	1	-6,8358	273,714352	311,417808	0
15.01.2021	23:21:56	0	0	3,954415	1,0605	324,4068	-0,104	87,724	0	1017,6	6,5	8,6	8,3	1	1	1	1	1	1	1	1	1	0	1	-3,030303	273,806726	315,653143	0
15.01.2021	23:21:57	0	0	4,406348	1,04775	322,9236	-0,1	87,714	0	1017,62	6,5	8,6	8,3	1	1	1	1	1	1	1	1	1	0	1	-11,768851	273,717277	306,498364	0
15.01.2021	23:21:58	0	0	3,728448	1,04325	321,0732	-0,093	87,742	0	1017,62	6,5	8,6	8,3	1	1	1	1	1	1	1	1	1	0	1	-8,315715	273,847923	310,559575	0
15.01.2021	23:21:59	0	0	5,197231	1,032	320,0292	-0,102	87,716	0	1017,62	6,5	8,5	8,3	1	1	1	1	1	1	1	1	1	0	1	-8,80902	273,792033	309,80603	0
15.01.2021	23:22:00	0	0	4,293365	0,98625	318,9168	-0,102	87,719	0	1017,54	6,5	8,6	8,3	1	1	1	1	1	1	1	1	1	0	1	-8,315715	273,789096	310,285664	0
15.01.2021	23:22:01	0	0	4,293365	0,99525	318,1896	-0,1	87,729	0	1017,78	6,5	8,6	8,3	1	1	1	1	1	1	1	1	1	0	1	-5,708245	273,846451	313,160185	0
15.01.2021	23:22:02	0	0	4,632314	1,0095	319,626	-0,102	87,715	0	1017,48	6,5	8,6	8,3	1	1	1	1	1	1	1	1	1	0	1	-8,597604	273,811135	310,106373	0
15.01.2021	23:22:03	0	0	4,519331	1,04775	315,9396	-0,094	87,74	0	1017,54	6,5	8,6	8,3	1	1	1	1	1	1	1	1	1	0	1	-7,117689	273,818487	311,620519	0
15.01.2021	23:22:04	0	0	3,389498	1,06875	306,8208	-0,099	87,721	0	1017,46	6,4	8,6	8,3	1	1	1	1	1	1	1	1	1	0	1	-8,245243	273,8332	310,561474	0
15.01.2021	23:22:05	0	0	3,728448	1,10475	311,4504	-0,093	87,718	0	1017,58	6,5	8,6	8,3	1	1	1	1	1	1	1	1	1	0	1	-4,580691	273,677818	313,503037	0
15.01.2021	23:22:06	0	0	2,824582	1,08225	314,046	-0,102	87,729	0	1017,68	6,5	8,6	8,3	1	1	1	1	1	1	1	1	1	0	1	-4,369274	273,696807	313,802742	0
15.01.2021	23:22:07	0	0	4,745298	1,10775	310,7268	-0,1	87,732	0	1017,66	6,5	8,6	8,3	1	1	1	1	1	1	1	1	1	0	1	-6,20155	273,670519	311,848248	0
15.01.2021	23:22:08	0	0	3,728448	1,07625	315,9144	-0,107	87,711	0	1017,48	6,5	8,6	8,3	1	1	1	1	1	1	1	1	1	0	1	-8,80902	273,709964	309,424181	0
15.01.2021	23:22:09	0	0	2,485632	1,08225	319,2444	-0,098	87,728	0	1017,56	6,5	8,6	8,3	1	1	1	1	1	1	1	1	1	0	1	-6,8358	273,8332	311,970917	0
15.01.2021	23:22:10	0	0	5,084247	1,062	316,0152	-0,102	87,733	0	1017,72	6,4	8,6	8,3	1	1	1	1	1	1	1	1	1	0	1	-4,510218	273,78616	314,077492	0
15.01.2021	23:22:11	0	0	4,745298	1,107	315,1872	-0,102	87,725	0	1017,5	6,4	8,6	8,3	1	1	1	1	1	1	1	1	1	0	1	-8,315715	273,836144	310,504712	0
15.01.2021	23:22:12	0	0	3,502482	1,161	318,1572	-0,101	87,717	0	1017,5	6,5	8,6	8,3	1	1	1	1	1	1	1	1	1	0	1	-9,302326	273,794971	309,326399	0
15.01.2021	23:22:13	0	0	4,858281	1,1775	322,218	-0,097	87,722	0	1017,68	6,5	8,6	8,3	1	1	1	1	1	1	1	1	1	0	1	-6,131078	273,8229	312,627676	0
15.01.2021	23:22:14	0	0	5,084247	1,19925	320,1984	-0,102	87,72	0	1017,56	6,5	8,6	8,3	1	1	1	1	1	1	1	1	1	0	1	-6,342495	273,717277	311,92472	0
15.01.2021	23:22:15	0	0	2,937565	1,16925	330,3684	-0,102	87,709	0	1017,68	6,5	8,6	8,3	1	1	1	1	1	1	1	1	1	0	1	-3,312192	273,811135	315,391785	0
15.01.2021	23:22:16	0	0	3,163532	1,185	325,5336	-0,088	87,726	0	1017,7	6,5	8,6	8,3	1	1	1	1	1	1	1	1	1	0	1	-5,990134	273,704115	312,215868	0
15.01.2021	23:22:17	0	0	4,971264	1,221	318,402	-0,097	87,716	0	1017,7	6,5	8,6	8,3	1	1	1	1	1	1	1	1	1	0	1	-13,178295	273,842033	305,669559	0
15.01.2021	23:22:18	0	0	4,067398	1,248	317,4336	-0,1	87,721	0	1017,64	6,5	8,6	8,3	1	1	1	1	1	1	1	1	1	0	1	-8,033827	273,750955	310,390053	0
15.01.2021	23:22:19	0	0	4,180381	1,31475	315,18	-0,104	87,72	0	1017,6	6,5	8,6	8,3	1	1	1	1	1	1	1	1	1	0	1	-8,879493	273,834672	309,934079	0
15.01.2021	23:22:20	0	0	3,389498	1,29825	314,4456	-0,102	87,716	0	1017,52	6,5	8,6	8,3	1	1	1	1	1	1	1	1	1	0	1	-2,889359	273,780288	315,671021	0
15.01.2021	23:22:21	0	0	2,937565	1,28475	313,2	-0,096	87,733	0	1017,76	6,5	8,6	8,3	1	1	1	1	1	1	1	1	1	0	1	-5,778717	273,667601	312,257514	0
15.01.2021	23:22:22	0	0	3,502482	1,29375	314,0208	-0,099	87,722	0	1017,64	6,5	8,6	8,3	1	1	1	1	1	1	1	1	1	0	1	-5,990134	273,749489	312,426927	0
15.01.2021	23:22:23	0	0	2,711599	1,25175	308,8296	-0,099	87,71	0	1017,76	6,5	8,6	8,3	1	1	1	1	1	1	1	1	1	0	1	-7,751938	273,698268	310,426874	0
15.01.2021	23:22:24	0	0	4,293365	1,2585	308,862	-0,097	87,732	0	1017,6	6,5	8,6	8,3	1	1	1	1	1	1	1	1	1	0	1	-9,231853	273,66906	308,811161	0
15.01.2021	23:22:25	0	0	3,276515	1,26	309,9528	-0,098	87,719	0	1017,7	6,5	8,6	8,3	1	1	1	1	1	1	1	1	1	0	1	-6,976744	273,842033	311,871109	0
15.01.2021	23:22:26	0	0	3,389498	1,25625	306,828	-0,094	87,725	0	1017,78	6,5	8,6	8,3	1	1	1	1	1	1	1	1	1	0	1	-7,047216	273,743629	311,342577	0
15.01.2021	23:22:27	0	0	3,050548	1,2555	309,5892	-0,097	87,728	0	1017,66	6,5	8,6	8,3	1	1	1	1	1	1	1	1	1	0	1	-5,637773	273,673438	312,425595	0
15.01.2021	23:22:28	0	0	4,858281	1,25775	309,3552	-0,096	87,724	0	1017,72	6,5	8,6	8,3	1	1	1	1	1	1	1	1	1	0	1	-7,540521	273,774418	310,992538	0
15.01.2021	23:22:29	0	0	3,728381	1,25175	302,0472	-0,102	87,723	0	1017,72	6,5	8,6	8,6	1	1	1	1	1	1	1	1	1	0	1	-2,959831	273,843505	315,894881	0
15.01.2021	23:22:30	0	0	2,937565	1,22625	310,2624	-0,096	87,727	0	1017,8	6,5	8,6	8,3	1	1	1	1	1	1	1	1	1	0	1	-5,144468	273,679278	312,946047	0
15.01.2021	23:22:31	0	0	4,293365	1,197	311,3568	-0,099	87,721	0	1017,64	6,5	8,6	8,3	1	1	1	1	1	1	1	1	1	0	1	-5,073996	273,794971	313,554729	0
15.01.2021	23:22:32	0	0	3,050548	1,21425	302,4828	-0,095	87,735	0	1017,74	6,4	8,6	8,3	1	1	1	1	1	1	1	1	1	0	1	-9,654686	273,698268	308,524126	0
15.01.2021	23:22:33	0	0	5,084247	1,28625	310,7664	-0,105	87,736	0	1017,64	6,5	8,6	8,3	1	1	1	1	1	1	1	1	1	0	1	-8,879493	273,817017	309,851868	0
15.01.2021	23:22:34	0	0	3,954415	1,3185	321,138	-0,099	87,723	0	1017,56	6,5	8,6	8,3	1	1	1	1	1	1	1	1	1	0	1	-4,298802	273,79644	314,336761	0
15.01.2021	23:22:35	0	0	2,824582	1,25625	327,1212	-0,102	87,726	0	1017,64	6,5	8,6	8,3	1	1	1	1	1	1	1	1	1	0	1	-7,117689	273,664683	310,904978	0
15.01.2021	23:22:36	0	0	3,163532	1,17075	315,8388	-0,101	87,709	0	1017,74	6,5	8,5	8,3	1	1	1	1	1	1	1	1	1	0	1	-0,352361	273,720203	317,928464	0
15.01.2021	23:22:37	0	0	2,598615	1,11375	308,0736	-0,103	87,719	0	1017,52	6,5	8,6	8,3	1	1	1	1	1	1	1	1	1	0	1	-4,087385	273,8332	314,719332	0
15.01.2021	23:22:38	0	0	3,841431	1,12125	318,1284	-0,099	87,73	0	1017,6	6,4	8,6	8,3	1	1	1	1	1	1	1	1	1	0	1	-4,016913	273,780288	314,543467	0
15.01.2021	23:22:39	0	0	4,406348	1,119	320,7888	-0,098	87,733	0	1017,82	6,5	8,6	8,3	1	1	1	1	1	1	1	1	1	0	1	-3,735025	273,839088	315,099114	0
15.01.2021	23:22:40	0	0	4,406348	1,0245	325,1844	-0,095	87,721	0	1017,64	6,5	8,6	8,3	1	1	1	1	1	1	1	1	1	0	1	-7,188161	273,812606	311,522661	0
15.01.2021	23:22:41	0	0	3,502482	0,96	319,1976	-0,101	87,725	0	1017,66	6,5	8,6	8,3	1	1	1	1	1	1	1	1	1	0	1	-2,396054	273,682198	315,708039	0
15.01.2021	23:22:42	0	0	2,485632	0,89025	307,5552	-0,095	87,717	0	1017,56	6,5	8,6	8,3	1	1	1	1	1	1	1	1	1	0	1	-8,949965	273,671979	309,106618	0
15.01.2021	23:22:43	0	0	4,745298	0,87675	308,484	-0,102	87,724	0	1017,66	6,5	8,6	8,3	1	1	1	1	1	1	1	1	1	0	1	-6,412967	273,667601	311,623264	0
15.01.2021	23:22:44	0	0	2,937565	0,9405	314,3844	-0,1	87,732	0	1017,66	6,5	8,6	8,3	1	1	1	1	1	1	1	1	1	0	1	-8,033827	273,809665	310,663306	0
15.01.2021	23:22:45	0	0	4,293365	0,98925	318,1572	-0,094	87,721	0	1017,62	6,5	8,6	8,3	1	1	1	1	1	1	1	1	1	0	1	-9,936575	273,8332	308,870142	0
15.01.2021	23:22:46	0	0	4,745298	1,04175	323,2872	-0,099	87,726	0	1017,76	6,5	8,6	8,3	1	1	1	1	1	1	1	1	1	0	1	-4,298802	273,690962	313,846037	0
15.01.2021	23:22:47	0	0	4,406348	1,07475	327,0528	-0,105	87,72	0	1017,64	6,5	8,6	8,3	1	1	1	1	1	1	1	1	1	0	1	-4,580691	273,830256	314,21232	0
15.01.2021	23:22:48	0	0	4,180381	1,014	318,7872	-0,094	87,72	0	1017,68	6,5	8,6	8,3	1	1	1	1	1	1	1	1	1	0	1	-8,80902	273,653014	309,159411	0
15.01.2021	23:22:49	0	0	2,598615	1,0215	319,1652	-0,094	87,741	0	1017,72	6,5	8,6	8,3	1	1	1	1	1	1	1	1	1	0	1	-4,369274	273,66906	313,67374	0
15.01.2021	23:22:50	0	0	3,502482	1,04175	332,4852	-0,094	87,724	0	1017,66	6,5	8,6	8,3	1	1	1	1	1	1	1	1	1	0	1	-3,24172	273,762683	315,23673	0
15.01.2021	23:22:51	0	0	2,824582	1,1265	328,5108	-0,1	87,724	0	1017,72	6,5	8,6	8,3	1	1	1	1	1	1	1	1	1	0	1	-5,355884	273,842033	313,491969	0
15.01.2021	23:22:52	0	0	2,485632	1,1355	313,2252	-0,099	87,725	0	1017,62	6,5	8,6	8,3	1	1	1	1	1	1	1	1	1	0	1	-9,020437	273,676358	309,056503	0
15.01.2021	23:22:53	0	0	4,971264	1,17075	318,4668	-0,103	87,721	0	1017,64	6,5	8,6	8,3	1	1	1	1	1	1	1	1	1	0	1	-5,919662	273,781755	312,64755	0
15.01.2021	23:22:54	0	0	4,180381	1,1475	319,5684	-0,1	87,716	0	1017,46	6,5	8,6	8,3	1	1	1	1	1	1	1	1	1	0	1	-6,272023	273,836144	312,548404	0
15.01.2021	23:22:55	0	0	4,406348	1,101	320,508	-0,097	87,709	0	1017,64	6,5	8,6	8,3	1	1	1	1	1	1	1	1	1	0	1	-9,372798	273,714352	308,88081	0
15.01.2021	23:22:56	0	0	2,598615	1,089	331,5096	-0,097	87,729	0	1017,62	6,5	8,6	8,3	1	1	1	1	1	1	1	1	1	0	1	-6,694856	273,666142	311,334593	0
15.01.2021	23:22:57	0	0	3,050548	1,09725	338,256	-0,096	87,722	0	1017,66	6,5	8,6	8,3	1	1	1	1	1	1	1	1	1	0	1	-9,725159	273,698268	308,453654	0
15.01.2021	23:22:58	0	0	4,971264	1,0215	337,4496	-0,101	87,719	0	1017,64	6,5	8,6	8,3	1	1	1	1	1	1	1	1	1	0	1	-2,184637	273,717277	316,082578	0
15.01.2021	23:22:59	0	0	4,632314	0,951	336,078	-0,096	87,72	0	1017,64	6,5	8,6	8,3	1	1	1	1	1	1	1	1	1	0	1	-7,681466	273,836144	311,138961	0
15.01.2021	23:23:00	0	0	4,293287	0,93075	339,4548	-0,098	87,704	0	1017,66	6,5	8,6	8,6	1	1	1	1	1	1	1	1	1	0	1	-7,610994	273,79644	311,024569	0
15.01.2021	23:23:01	0	0	2,824582	0,9495	339,9444	-0,098	87,727	0	1017,66	6,5	8,6	8,3	1	1	1	1	1	1	1	1	1	0	1	-5,003524	273,783223	313,57052	0
15.01.2021	23:23:02	0	0	2,598615	0,99975	336,7548	-0,095	87,706	0	1017,56	6,5	8,6	8,3	1	1	1	1	1	1	1	1	1	0	1	-4,933051	273,658848	313,062492	0
15.01.2021	23:23:03	0	0	3,841431	1,026	339,48	-0,098	87,715	0	1017,6	6,5	8,6	8,3	1	1	1	1	1	1	1	1	1	0	1	-9,725159	273,690962	308,419681	0
15.01.2021	23:23:04	0	0	4,632314	1,053	336,4092	-0,095	87,717	0	1017,7	6,5	8,6	8,3	1	1	1	1	1	1	1	1	1	0	1	-4,792107	273,664683	313,230559	0
15.01.2021	23:23:05	0	0	3,163532	1,06875	332,7516	-0,097	87,719	0	1017,72	6,5	8,6	8,3	1	1	1	1	1	1	1	1	1	0	1	-5,637773	273,714352	312,615835	0
15.01.2021	23:23:06	0	0	3,050548	1,08975	331,5348	-0,101	87,719	0	1017,44	6,5	8,6	8,3	1	1	1	1	1	1	1	1	1	0	1	-7,188161	273,843505	311,666551	0
15.01.2021	23:23:07	0	0	2,598615	1,143	326,016	-0,1	87,705	0	1017,66	6,5	8,6	8,3	1	1	1	1	1	1	1	1	1	0	1	-1,902748	273,787628	316,691796	0
15.01.2021	23:23:08	0	0	2,937565	1,17075	342,1044	-0,099	87,69	0	1017,7	6,5	8,6	8,3	1	1	1	1	1	1	1	1	1	0	1	-6,765328	273,658848	311,230216	0
15.01.2021	23:23:09	0	0	3,050548	1,1925	341,3232	-0,101	87,712	0	1017,6	6,5	8,6	8,3	1	1	1	1	1	1	1	1	1	0	1	-7,117689	273,792033	311,497362	0
15.01.2021	23:23:10	0	0	2,598615	1,22325	328,626	-0,097	87,712	0	1017,64	6,5	8,6	8,3	1	1	1	1	1	1	1	1	1	0	1	-4,933051	273,84056	313,907944	0
15.01.2021	23:23:11	0	0	3,050548	1,3455	332,0028	-0,101	87,71	0	1017,72	6,5	8,6	8,3	1	1	1	1	1	1	1	1	1	0	1	-4,016913	273,748024	314,39333	0
15.01.2021	23:23:12	0	0	4,632314	1,3845	327,1788	-0,099	87,712	0	1017,72	6,5	8,6	8,3	1	1	1	1	1	1	1	1	1	0	1	-5,355884	273,673438	312,707484	0
15.01.2021	23:23:13	0	0	4,406348	1,43925	324,3708	-0,096	87,707	0	1017,56	6,4	8,6	8,3	1	1	1	1	1	1	1	1	1	0	1	-9,795631	273,685119	308,322042	0
15.01.2021	23:23:14	0	0	2,711599	1,4685	326,3724	-0,099	87,697	0	1017,56	6,5	8,6	8,3	1	1	1	1	1	1	1	1	1	0	1	-4,721635	273,707039	313,497965	0
15.01.2021	23:23:15	0	0	3,954415	1,47375	324,1404	-0,091	87,7	0	1017,68	6,5	8,6	8,3	1	1	1	1	1	1	1	1	1	0	1	-2,325581	273,701191	315,866824	0
15.01.2021	23:23:16	0	0	4,745298	1,4235	331,5168	-0,096	87,709	0	1017,54	6,5	8,6	8,3	1	1	1	1	1	1	1	1	1	0	1	-0,140944	273,830256	318,652066	0
15.01.2021	23:23:17	0	0	3,276515	1,4115	327,0672	-0,098	87,69	0	1017,68	6,5	8,6	8,3	1	1	1	1	1	1	1	1	1	0	1	-9,654686	273,746559	308,74874	0
15.01.2021	23:23:18	0	0	4,632231	1,359	326,8008	-0,098	87,693	0	1017,7	6,5	8,6	8,6	1	1	1	1	1	1	1	1	1	0	1	-14,869626	273,667601	303,166604	0
15.01.2021	23:23:19	0	0	2,824582	1,3785	319,9932	-0,103	87,715	0	1017,8	6,5	8,6	8,3	1	1	1	1	1	1	1	1	1	0	1	-2,818887	273,677818	315,264841	0
15.01.2021	23:23:20	0	0	3,276515	1,4505	325,5264	-0,104	87,709	0	1017,66	6,5	8,6	8,3	1	1	1	1	1	1	1	1	1	0	1	-5,990134	273,805256	312,68647	0
15.01.2021	23:23:21	0	0	5,084247	1,5405	326,3868	-0,1	87,705	0	1017,64	6,5	8,6	8,3	1	1	1	1	1	1	1	1	1	0	1	-7,82241	273,777352	310,724308	0
15.01.2021	23:23:22	0	0	4,406348	1,62975	327,0636	-0,098	87,708	0	1017,68	6,5	8,6	8,3	1	1	1	1	1	1	1	1	1	0	1	-6,272023	273,839088	312,562116	0
15.01.2021	23:23:23	0	0	4,293365	1,6875	332,3808	-0,097	87,709	0	1017,72	6,5	8,6	8,3	1	1	1	1	1	1	1	1	1	0	1	-7,117689	273,818487	311,620519	0
15.01.2021	23:23:24	0	0	3,954415	1,62225	332,4168	-0,099	87,701	0	1017,64	6,5	8,6	8,3	1	1	1	1	1	1	1	1	1	0	1	-4,369274	273,799378	314,279966	0
15.01.2021	23:23:25	0	0	3,163532	1,5375	336,1212	-0,1	87,699	0	1017,72	6,5	8,6	8,3	1	1	1	1	1	1	1	1	1	0	1	-8,668076	273,671979	309,388507	0
15.01.2021	23:23:26	0	0	2,711599	1,4355	325,422	-0,105	87,689	0	1017,6	6,5	8,6	8,3	1	1	1	1	1	1	1	1	1	0	1	-6,412967	273,774418	312,120093	0
15.01.2021	23:23:27	0	0	4,858281	1,40475	331,056	-0,096	87,702	0	1017,7	6,4	8,6	8,3	1	1	1	1	1	1	1	1	1	0	1	-11,134602	273,69973	307,051007	0
15.01.2021	23:23:28	0	0	3,050548	1,36575	340,5276	-0,105	87,701	0	1017,54	6,5	8,6	8,3	1	1	1	1	1	1	1	1	1	0	1	-6,272023	273,843505	312,582689	0
15.01.2021	23:23:29	0	0	3,841431	1,41	327,8052	-0,103	87,703	0	1017,6	6,5	8,6	8,3	1	1	1	1	1	1	1	1	1	0	1	-1,198027	273,84056	317,642969	0
15.01.2021	23:23:30	0	0	2,711599	1,51125	335,9772	-0,103	87,683	0	1017,54	6,5	8,6	8,3	1	1	1	1	1	1	1	1	1	0	1	-2,677942	273,707039	315,541658	0
15.01.2021	23:23:31	0	0	2,372649	1,5285	336,4236	-0,1	87,691	0	1017,5	6,5	8,6	8,3	1	1	1	1	1	1	1	1	1	0	1	-4,439746	273,680738	313,657557	0
15.01.2021	23:23:32	0	0	4,632314	1,54575	336,8232	-0,107	87,692	0	1017,72	6,4	8,6	8,3	1	1	1	1	1	1	1	1	1	0	1	-9,44327	273,790565	309,164945	0
15.01.2021	23:23:33	0	0	3,389498	1,60875	324,4392	-0,101	87,711	0	1017,5	6,5	8,6	8,3	1	1	1	1	1	1	1	1	1	0	1	-7,329105	273,667601	310,707126	0
15.01.2021	23:23:34	0	0	4,858281	1,6245	335,3076	-0,1	87,703	0	1017,68	6,5	8,6	8,3	1	1	1	1	1	1	1	1	1	0	1	-4,862579	273,709964	313,370622	0
15.01.2021	23:23:35	0	0	2,598615	1,5735	328,6368	-0,1	87,704	0	1017,56	6,5	8,6	8,3	1	1	1	1	1	1	1	1	1	0	1	-3,59408	273,828785	315,192078	0
15.01.2021	23:23:36	0	0	2,711599	1,581	335,6748	-0,098	87,708	0	1017,82	6,5	8,6	8,3	1	1	1	1	1	1	1	1	1	0	1	-9,090909	273,720203	309,189916	0
15.01.2021	23:23:37	0	0	2,937565	1,53525	336,7368	-0,099	87,699	0	1017,7	6,5	8,6	8,3	1	1	1	1	1	1	1	1	1	0	1	-7,258633	273,831728	311,541231	0
15.01.2021	23:23:38	0	0	2,598615	1,4925	324,1332	-0,099	87,704	0	1017,52	6,5	8,6	8,3	1	1	1	1	1	1	1	1	1	0	1	-4,087385	273,84056	314,75361	0
15.01.2021	23:23:39	0	0	2,824582	1,4925	338,4	-0,094	87,694	0	1017,66	6,5	8,6	8,3	1	1	1	1	1	1	1	1	1	0	1	-5,990134	273,727521	312,324727	0
15.01.2021	23:23:40	0	0	2,598615	1,425	336,3192	-0,101	87,702	0	1017,7	6,5	8,6	8,3	1	1	1	1	1	1	1	1	1	0	1	-10,852713	273,674898	307,217441	0
15.01.2021	23:23:41	0	0	4,745298	1,3995	327,8052	-0,096	87,692	0	1017,66	6,5	8,6	8,3	1	1	1	1	1	1	1	1	1	0	1	-9,302326	273,690962	308,842514	0
15.01.2021	23:23:42	0	0	2,711599	1,365	331,452	-0,097	87,701	0	1017,68	6,5	8,6	8,3	1	1	1	1	1	1	1	1	1	0	1	-4,298802	273,715814	313,961609	0
15.01.2021	23:23:43	0	0	4,067398	1,3635	326,7576	-0,096	87,701	0	1017,48	6,5	8,6	8,3	1	1	1	1	1	1	1	1	1	0	1	-5,708245	273,698268	312,470567	0
15.01.2021	23:23:44	0	0	4,293365	1,4445	326,0016	-0,097	87,71	0	1017,68	6,5	8,6	8,3	1	1	1	1	1	1	1	1	1	0	1	-2,959831	273,831728	315,840033	0
15.01.2021	23:23:45	0	0	3,163532	1,5105	333,4716	-0,107	87,692	0	1017,54	6,5	8,6	8,3	1	1	1	1	1	1	1	1	1	0	1	-5,84919	273,727521	312,465671	0
15.01.2021	23:23:46	0	0	3,389498	1,56525	334,296	-0,097	87,699	0	1017,6	6,5	8,6	8,3	1	1	1	1	1	1	1	1	1	0	1	-7,047216	273,680738	311,050087	0
15.01.2021	23:23:47	0	0	3,050548	1,6665	336,1284	-0,093	87,698	0	1017,78	6,5	8,6	8,3	1	1	1	1	1	1	1	1	1	0	1	-9,795631	273,846451	309,072799	0
15.01.2021	23:23:48	0	0	4,858281	1,6785	329,5944	-0,103	87,689	0	1017,64	6,5	8,6	8,3	1	1	1	1	1	1	1	1	1	0	1	-9,231853	273,724593	309,069391	0
15.01.2021	23:23:49	0	0	2,711599	1,62675	329,9976	-0,102	87,687	0	1017,66	6,4	8,6	8,3	1	1	1	1	1	1	1	1	1	0	1	-9,513742	273,842033	309,334111	0
15.01.2021	23:23:50	0	0	4,858281	1,59	330,7788	-0,094	87,699	0	1017,5	6,5	8,6	8,3	1	1	1	1	1	1	1	1	1	0	1	-7,047216	273,730448	311,281263	0
15.01.2021	23:23:51	0	0	3,615465	1,55775	333,2088	-0,097	87,697	0	1017,6	6,5	8,6	8,3	1	1	1	1	1	1	1	1	1	0	1	-4,298802	273,654473	313,676407	0
15.01.2021	23:23:52	0	0	4,067398	1,56075	338,0004	-0,099	87,712	0	1017,66	6,5	8,6	8,3	1	1	1	1	1	1	1	1	1	0	1	-5,144468	273,847923	313,730822	0
15.01.2021	23:23:53	0	0	3,163532	1,57275	336,3984	-0,101	87,688	0	1017,62	6,5	8,6	8,3	1	1	1	1	1	1	1	1	1	0	1	-1,550388	273,698268	316,628425	0
15.01.2021	23:23:54	0	0	2,711599	1,55325	341,3232	-0,097	87,695	0	1017,6	6,5	8,5	8,3	1	1	1	1	1	1	1	1	1	0	1	-2,818887	273,818487	315,919321	0
15.01.2021	23:23:55	0	0	2,937565	1,54725	342,8712	-0,1	87,691	0	1017,44	6,5	8,6	8,3	1	1	1	1	1	1	1	1	1	0	1	-5,355884	273,696807	312,816132	0
15.01.2021	23:23:56	0	0	4,293365	1,5765	340,9488	-0,095	87,708	0	1017,66	6,4	8,6	8,3	1	1	1	1	1	1	1	1	1	0	1	-3,664553	273,839088	315,169586	0
15.01.2021	23:23:57	0	0	4,858281	1,61775	345,3228	-0,094	87,703	0	1017,62	6,5	8,6	8,3	1	1	1	1	1	1	1	1	1	0	1	-2,255109	273,783223	316,318935	0
15.01.2021	23:23:58	0	0	3,954415	1,6365	336,0132	-0,101	87,701	0	1017,78	6,5	8,6	8,3	1	1	1	1	1	1	1	1	1	0	1	-3,312192	273,836144	315,508235	0
15.01.2021	23:23:59	0	0	4,180381	1,61625	336,3552	-0,098	87,697	0	1017,52	6,5	8,6	8,3	1	1	1	1	1	1	1	1	1	0	1	-6,483439	273,753886	311,954079	0
15.01.2021	23:24:00	0	0	5,197231	1,60575	341,6364	-0,096	87,697	0	1017,64	6,5	8,6	8,3	1	1	1	1	1	1	1	1	1	0	1	-4,439746	273,666142	313,589702	0
15.01.2021	23:24:01	0	0	2,711599	1,6095	336,4236	-0,101	87,686	0	1017,5	6,5	8,6	8,3	1	1	1	1	1	1	1	1	1	0	1	-3,735025	273,707039	314,484576	0
15.01.2021	23:24:02	0	0	3,050548	1,6575	330,7896	-0,103	87,697	0	1017,42	6,5	8,6	8,3	1	1	1	1	1	1	1	1	1	0	1	-3,100775	273,834672	315,712797	0
15.01.2021	23:24:03	0	0	3,389498	1,67475	325,9188	-0,098	87,687	0	1017,54	6,5	8,6	8,3	1	1	1	1	1	1	1	1	1	0	1	-3,030303	273,696807	315,141713	0
15.01.2021	23:24:04	0	0	3,050548	1,704	334,6416	-0,098	87,7	0	1017,7	6,4	8,6	8,3	1	1	1	1	1	1	1	1	1	0	1	-8,668076	273,842033	310,179777	0
15.01.2021	23:24:05	0	0	3,276515	1,69275	335,7828	-0,091	87,723	0	1017,56	6,5	8,6	8,3	1	1	1	1	1	1	1	1	1	0	1	-5,355884	273,755352	313,088454	0
15.01.2021	23:24:06	0	0	2,485632	1,695	327,4632	-0,095	87,696	0	1017,66	6,5	8,6	8,3	1	1	1	1	1	1	1	1	1	0	1	-4,862579	273,843505	313,992132	0
15.01.2021	23:24:07	0	0	4,632314	1,72125	326,7036	-0,102	87,677	0	1017,54	6,5	8,6	8,3	1	1	1	1	1	1	1	1	1	0	1	-6,342495	273,730448	311,985984	0
15.01.2021	23:24:08	0	0	3,502482	1,66275	329,2632	-0,097	87,698	0	1017,62	6,5	8,6	8,3	1	1	1	1	1	1	1	1	1	0	1	-5,144468	273,655931	312,837519	0
15.01.2021	23:24:09	0	0	4,293365	1,63575	326,7108	-0,096	87,695	0	1017,56	6,5	8,6	8,3	1	1	1	1	1	1	1	1	1	0	1	-7,047216	273,745094	311,349393	0
15.01.2021	23:24:10	0	0	3,728448	1,581	329,0148	-0,098	87,675	0	1017,76	6,5	8,6	8,3	1	1	1	1	1	1	1	1	1	0	1	-2,114165	273,8332	316,692552	0
15.01.2021	23:24:11	0	0	4,067398	1,587	334,9944	-0,099	87,688	0	1017,52	6,5	8,6	8,3	1	1	1	1	1	1	1	1	1	0	1	-6,906272	273,712889	311,340533	0
15.01.2021	23:24:12	0	0	3,615465	1,59975	335,3976	-0,099	87,685	0	1017,6	6,5	8,6	8,3	1	1	1	1	1	1	1	1	1	0	1	-6,412967	273,674898	311,657187	0
15.01.2021	23:24:13	0	0	2,937565	1,57275	339,4116	-0,098	87,691	0	1017,8	6,5	8,6	8,3	1	1	1	1	1	1	1	1	1	0	1	-5,990134	273,789096	312,611245	0
15.01.2021	23:24:14	0	0	5,310214	1,515	344,3004	-0,092	87,702	0	1017,7	6,5	8,6	8,3	1	1	1	1	1	1	1	1	1	0	1	-3,453136	273,663224	314,562749	0
15.01.2021	23:24:15	0	0	4,406348	1,521	335,3688	-0,108	87,686	0	1017,64	6,5	8,6	8,3	1	1	1	1	1	1	1	1	1	0	1	-8,245243	273,79644	310,39032	0
15.01.2021	23:24:16	0	0	2,824582	1,49625	329,2992	-0,106	87,696	0	1017,68	6,5	8,6	8,3	1	1	1	1	1	1	1	1	1	0	1	-7,470049	273,702653	310,729154	0
15.01.2021	23:24:17	0	0	3,954415	1,533	340,8156	-0,098	87,7	0	1017,66	6,5	8,6	8,3	1	1	1	1	1	1	1	1	1	0	1	-4,016913	273,849396	314,865238	0
15.01.2021	23:24:18	0	0	3,502482	1,53225	328,86	-0,097	87,679	0	1017,62	6,5	8,6	8,3	1	1	1	1	1	1	1	1	1	0	1	-4,439746	273,758284	314,018235	0
15.01.2021	23:24:19	0	0	3,502482	1,4955	334,9764	-0,104	87,689	0	1017,64	6,5	8,6	8,3	1	1	1	1	1	1	1	1	1	0	1	-6,060606	273,852343	312,835268	0
15.01.2021	23:24:20	0	0	2,824582	1,49325	335,376	-0,099	87,671	0	1017,54	6,4	8,6	8,3	1	1	1	1	1	1	1	1	1	0	1	-6,342495	273,834672	312,471077	0
15.01.2021	23:24:21	0	0	4,632314	1,4715	335,574	-0,079	87,694	0	1017,9	6,5	8,6	8,3	1	1	1	1	1	1	1	1	1	0	1	-10,641297	273,797909	308,001105	0
15.01.2021	23:24:22	0	0	4,406348	1,39875	338,292	-0,1	87,679	0	1017,62	6,5	8,6	8,3	1	1	1	1	1	1	1	1	1	0	1	-2,748414	273,660306	315,253909	0
15.01.2021	23:24:23	0	0	3,050548	1,3965	339,426	-0,1	87,679	0	1017,68	6,5	8,6	8,3	1	1	1	1	1	1	1	1	1	0	1	-6,765328	273,831728	312,034536	0
15.01.2021	23:24:24	0	0	4,971264	1,416	339,2604	-0,094	87,687	0	1017,62	6,5	8,6	8,3	1	1	1	1	1	1	1	1	1	0	1	-4,862579	273,844978	313,998991	0
15.01.2021	23:24:25	0	0	3,502482	1,43625	337,968	-0,099	87,681	0	1017,7	6,5	8,6	8,3	1	1	1	1	1	1	1	1	1	0	1	-7,963354	273,783223	310,610689	0
15.01.2021	23:24:26	0	0	4,519331	1,40025	328,1616	-0,096	87,688	0	1017,54	6,5	8,6	8,3	1	1	1	1	1	1	1	1	1	0	1	-5,285412	273,827313	313,493894	0
15.01.2021	23:24:27	0	0	4,745298	1,416	327,1032	-0,097	87,666	0	1017,68	6,5	8,6	8,3	1	1	1	1	1	1	1	1	1	0	1	-5,919662	273,8229	312,839092	0
15.01.2021	23:24:28	0	0	3,841431	1,42575	326,4084	-0,098	87,694	0	1017,6	6,4	8,6	8,3	1	1	1	1	1	1	1	1	1	0	1	-3,735025	273,797909	314,907377	0
15.01.2021	23:24:29	0	0	4,293365	1,3845	325,5336	-0,094	87,693	0	1017,72	6,5	8,6	8,3	1	1	1	1	1	1	1	1	1	0	1	-5,708245	273,679278	312,38227	0
15.01.2021	23:24:30	0	0	3,728448	1,3785	327,8376	-0,103	87,684	0	1017,68	6,5	8,6	8,3	1	1	1	1	1	1	1	1	1	0	1	-6,060606	273,783223	312,513438	0
15.01.2021	23:24:31	0	0	3,276515	1,42125	326,3544	-0,1	87,671	0	1017,72	6,5	8,6	8,3	1	1	1	1	1	1	1	1	1	0	1	-2,818887	273,657389	315,169878	0
15.01.2021	23:24:32	0	0	3,050548	1,43775	330,5088	-0,098	87,693	0	1017,62	6,5	8,6	8,3	1	1	1	1	1	1	1	1	1	0	1	-2,396054	273,75975	316,06875	0
15.01.2021	23:24:33	0	0	3,389498	1,428	336,3804	-0,104	87,692	0	1017,56	6,4	8,6	8,3	1	1	1	1	1	1	1	1	1	0	1	-5,637773	273,696807	312,534243	0
15.01.2021	23:24:34	0	0	3,050548	1,431	330,0696	-0,099	87,673	0	1017,64	6,4	8,6	8,3	1	1	1	1	1	1	1	1	1	0	1	-4,439746	273,707039	313,779854	0
15.01.2021	23:24:35	0	0	4,745298	1,37025	332,7876	-0,095	87,698	0	1017,58	6,5	8,6	8,3	1	1	1	1	1	1	1	1	1	0	1	-4,298802	273,812606	314,41202	0
15.01.2021	23:24:36	0	0	2,711599	1,34925	339,8328	-0,095	87,684	0	1017,64	6,4	8,6	8,3	1	1	1	1	1	1	1	1	1	0	1	-3,523608	273,775885	315,016281	0
15.01.2021	23:24:37	0	0	2,937565	1,29375	333,4536	-0,094	87,67	0	1017,66	6,5	8,6	8,3	1	1	1	1	1	1	1	1	1	0	1	-4,792107	273,667601	313,244124	0
15.01.2021	23:24:38	0	0	3,841431	1,221	332,7696	-0,093	87,68	0	1017,64	6,5	8,6	8,3	1	1	1	1	1	1	1	1	1	0	1	-4,22833	273,756818	314,22283	0
15.01.2021	23:24:39	0	0	2,824582	1,17825	339,8184	-0,1	87,694	0	1017,62	6,5	8,6	8,3	1	1	1	1	1	1	1	1	1	0	1	-6,765328	273,830256	312,027683	0
15.01.2021	23:24:40	0	0	3,502482	1,12875	333,2088	-0,097	87,67	0	1017,5	6,4	8,6	8,3	1	1	1	1	1	1	1	1	1	0	1	-7,751938	273,731912	310,583351	0
15.01.2021	23:24:41	0	0	2,485632	1,16475	329,2812	-0,102	87,681	0	1017,44	6,5	8,6	8,3	1	1	1	1	1	1	1	1	1	0	1	-5,073996	273,692423	313,077637	0
15.01.2021	23:24:42	0	0	3,389498	1,1265	350,352	-0,093	87,677	0	1017,52	6,5	8,6	8,3	1	1	1	1	1	1	1	1	1	0	1	-7,751938	273,690962	310,392901	0
15.01.2021	23:24:43	0	0	3,615465	1,1595	337,518	-0,104	87,69	0	1017,64	6,5	8,6	8,3	1	1	1	1	1	1	1	1	1	0	1	-4,087385	273,689501	314,050661	0
15.01.2021	23:24:44	0	0	4,858281	1,1505	341,6796	-0,094	87,675	0	1017,7	6,5	8,6	8,3	1	1	1	1	1	1	1	1	1	0	1	-5,21494	273,666142	312,814508	0
15.01.2021	23:24:45	0	0	5,310214	1,1145	328,5936	-0,095	87,682	0	1017,62	6,5	8,6	8,3	1	1	1	1	1	1	1	1	1	0	1	-4,933051	273,808195	313,757238	0
15.01.2021	23:24:46	0	0	3,954415	1,1235	337,1256	-0,1	87,66	0	1017,66	6,5	8,6	8,3	1	1	1	1	1	1	1	1	1	0	1	-3,59408	273,852343	315,301794	0
15.01.2021	23:24:47	0	0	4,519331	1,17675	337,1508	-0,096	87,673	0	1017,58	6,5	8,6	8,3	1	1	1	1	1	1	1	1	1	0	1	-7,892882	273,728984	310,428787	0
15.01.2021	23:24:48	0	0	4,067398	1,20525	326,7612	-0,095	87,669	0	1017,62	6,5	8,6	8,3	1	1	1	1	1	1	1	1	1	0	1	-3,453136	273,852343	315,442738	0
15.01.2021	23:24:49	0	0	2,372649	1,26075	326,0052	-0,098	87,661	0	1017,46	6,5	8,6	8,3	1	1	1	1	1	1	1	1	1	0	1	-2,325581	273,721667	315,962049	0
15.01.2021	23:24:50	0	0	4,971264	1,26375	323,3196	-0,101	87,663	0	1017,68	6,5	8,6	8,3	1	1	1	1	1	1	1	1	1	0	1	-4,439746	273,72313	313,854691	0
15.01.2021	23:24:51	0	0	3,954415	1,20675	321,7392	-0,094	87,675	0	1017,6	6,5	8,6	8,3	1	1	1	1	1	1	1	1	1	0	1	-4,510218	273,842033	314,337635	0
15.01.2021	23:24:52	0	0	2,937565	1,13175	316,962	-0,097	87,667	0	1017,7	6,4	8,6	8,3	1	1	1	1	1	1	1	1	1	0	1	-4,369274	273,68658	313,755189	0
15.01.2021	23:24:53	0	0	4,406348	1,13625	333,8028	-0,098	87,66	0	1017,6	6,4	8,6	8,3	1	1	1	1	1	1	1	1	1	0	1	-6,906272	273,843505	311,94844	0
15.01.2021	23:24:54	0	0	3,502482	1,17225	328,5396	-0,091	87,678	0	1017,58	6,5	8,6	8,3	1	1	1	1	1	1	1	1	1	0	1	-3,100775	273,758284	315,357206	0
15.01.2021	23:24:55	0	0	5,197231	1,3005	310,2588	-0,099	87,669	0	1017,6	6,5	8,5	8,3	1	1	1	1	1	1	1	1	1	0	1	-4,792107	273,667601	313,244124	0
15.01.2021	23:24:56	0	0	3,728448	1,3665	309,8988	-0,095	87,676	0	1017,72	6,4	8,6	8,3	1	1	1	1	1	1	1	1	1	0	1	-4,016913	273,739234	314,352437	0
15.01.2021	23:24:57	0	0	4,519331	1,395	299,4156	-0,099	87,677	0	1017,58	6,5	8,6	8,3	1	1	1	1	1	1	1	1	1	0	1	-5,355884	273,846451	313,512546	0
15.01.2021	23:24:58	0	0	3,615465	1,395	305,3772	-0,1	87,669	0	1017,48	6,5	8,6	8,3	1	1	1	1	1	1	1	1	1	0	1	-4,298802	273,717277	313,968413	0
15.01.2021	23:24:59	0	0	5,084247	1,347	309,5424	-0,097	87,683	0	1017,6	6,5	8,6	8,3	1	1	1	1	1	1	1	1	1	0	1	-8,527132	273,834672	310,28644	0
15.01.2021	23:25:00	0	0	4,858281	1,42875	306,4212	-0,095	87,683	0	1017,54	6,4	8,6	8,3	1	1	1	1	1	1	1	1	1	0	1	-7,188161	273,821429	311,563744	0
15.01.2021	23:25:01	0	0	4,745298	1,41375	313,398	-0,097	87,671	0	1017,58	6,5	8,6	8,3	1	1	1	1	1	1	1	1	1	0	1	-6,131078	273,847923	312,744212	0
15.01.2021	23:25:02	0	0	3,050548	1,39725	326,7864	-0,095	87,684	0	1017,7	6,4	8,6	8,3	1	1	1	1	1	1	1	1	1	0	1	-8,315715	273,677818	309,768012	0
15.01.2021	23:25:03	0	0	4,971264	1,31025	314,4204	-0,093	87,678	0	1017,58	6,5	8,6	8,3	1	1	1	1	1	1	1	1	1	0	1	-8,245243	273,814076	310,472424	0
15.01.2021	23:25:04	0	0	3,050548	1,19175	309,9636	-0,102	87,685	0	1017,58	6,4	8,6	8,3	1	1	1	1	1	1	1	1	1	0	1	-5,496829	273,855289	313,412772	0
15.01.2021	23:25:05	0	0	3,276515	1,1355	315,9108	-0,095	87,666	0	1017,62	6,5	8,5	8,3	1	1	1	1	1	1	1	1	1	0	1	-4,369274	273,787628	314,22527	0
15.01.2021	23:25:06	0	0	5,084247	1,077	323,7372	-0,097	87,682	0	1017,6	6,5	8,6	8,3	1	1	1	1	1	1	1	1	1	0	1	-8,738548	273,836144	310,081879	0
15.01.2021	23:25:07	0	0	4,745298	1,02525	330,7968	-0,102	87,683	0	1017,54	6,5	8,6	8,3	1	1	1	1	1	1	1	1	1	0	1	-8,174771	273,68804	309,956484	0
15.01.2021	23:25:08	0	0	4,632314	1,017	330,876	-0,101	87,672	0	1017,5	6,5	8,6	8,3	1	1	1	1	1	1	1	1	1	0	1	-7,047216	273,733377	311,294884	0
15.01.2021	23:25:09	0	0	2,711599	0,99975	328,9284	-0,094	87,659	0	1017,7	6,5	8,6	8,3	1	1	1	1	1	1	1	1	1	0	1	-1,479915	273,666142	316,549533	0
15.01.2021	23:25:10	0	0	4,858281	0,96525	332,4816	-0,1	87,672	0	1017,66	6,5	8,6	8,3	1	1	1	1	1	1	1	1	1	0	1	-8,104299	273,803786	310,565463	0
15.01.2021	23:25:11	0	0	3,389498	0,98175	327,4452	-0,096	87,681	0	1017,58	6,5	8,6	8,3	1	1	1	1	1	1	1	1	1	0	1	-6,060606	273,865607	312,897055	0
15.01.2021	23:25:12	0	0	2,711599	1,00125	320,0184	-0,099	87,648	0	1017,36	6,5	8,6	8,3	1	1	1	1	1	1	1	1	1	0	1	-7,610994	273,734841	310,737918	0
15.01.2021	23:25:13	0	0	4,180381	1,002	324,1188	-0,095	87,675	0	1017,64	6,5	8,5	8,3	1	1	1	1	1	1	1	1	1	0	1	-6,765328	273,812606	311,945494	0
15.01.2021	23:25:14	0	0	2,485632	1,06125	330,0516	-0,097	87,669	0	1017,64	6,4	8,6	8,3	1	1	1	1	1	1	1	1	1	0	1	-3,312192	273,701191	314,880214	0
15.01.2021	23:25:15	0	0	4,745298	1,0725	328,9716	-0,101	87,674	0	1017,72	6,5	8,6	8,3	1	1	1	1	1	1	1	1	1	0	1	-4,22833	273,802317	314,434591	0
15.01.2021	23:25:16	0	0	2,598615	1,05675	326,3796	-0,103	87,669	0	1017,68	6,5	8,6	8,3	1	1	1	1	1	1	1	1	1	0	1	-3,312192	273,846451	315,556238	0
15.01.2021	23:25:17	0	0	2,937565	1,0365	327,096	-0,098	87,677	0	1017,6	6,4	8,6	8,3	1	1	1	1	1	1	1	1	1	0	1	-1,338971	273,755352	317,105367	0
15.01.2021	23:25:18	0	0	4,180381	1,0665	324,7488	-0,093	87,653	0	1017,64	6,4	8,6	8,3	1	1	1	1	1	1	1	1	1	0	1	-4,580691	273,846451	314,287739	0
15.01.2021	23:25:19	0	0	4,180381	1,083	324,4392	-0,094	87,659	0	1017,66	6,4	8,6	8,3	1	1	1	1	1	1	1	1	1	0	1	-6,8358	273,793502	311,786088	0
15.01.2021	23:25:20	0	0	2,824582	1,14825	323,3304	-0,095	87,661	0	1017,62	6,5	8,6	8,3	1	1	1	1	1	1	1	1	1	0	1	-4,016913	273,842033	314,83094	0
15.01.2021	23:25:21	0	0	2,598615	1,21125	327,0888	-0,097	87,66	0	1017,68	6,5	8,6	8,3	1	1	1	1	1	1	1	1	1	0	1	-4,016913	273,693884	314,141513	0
15.01.2021	23:25:22	0	0	4,406348	1,30125	328,2192	-0,095	87,639	0	1017,58	6,5	8,6	8,3	1	1	1	1	1	1	1	1	1	0	1	-3,875969	273,792033	314,739082	0
15.01.2021	23:25:23	0	0	4,858281	1,3455	317,7108	-0,099	87,662	0	1017,62	6,4	8,6	8,3	1	1	1	1	1	1	1	1	1	0	1	-4,298802	273,828785	314,487356	0
15.01.2021	23:25:24	0	0	3,615465	1,31625	320,3316	-0,103	87,663	0	1017,62	6,4	8,6	8,3	1	1	1	1	1	1	1	1	1	0	1	-4,933051	273,682198	313,171041	0
15.01.2021	23:25:25	0	0	4,519331	1,30425	327,1392	-0,101	87,661	0	1017,6	6,5	8,6	8,3	1	1	1	1	1	1	1	1	1	0	1	-7,329105	273,814076	311,388563	0
15.01.2021	23:25:26	0	0	3,163532	1,27725	323,7336	-0,096	87,662	0	1017,7	6,5	8,6	8,3	1	1	1	1	1	1	1	1	1	0	1	-8,668076	273,677818	309,415651	0
15.01.2021	23:25:27	0	0	2,598615	1,2855	316,1988	-0,097	87,652	0	1017,66	6,5	8,6	8,3	1	1	1	1	1	1	1	1	1	0	1	-5,708245	273,715814	312,552166	0
15.01.2021	23:25:28	0	0	5,197231	1,23825	326,772	-0,099	87,661	0	1017,64	6,4	8,6	8,3	1	1	1	1	1	1	1	1	1	0	1	-5,84919	273,850869	313,039823	0
15.01.2021	23:25:29	0	0	4,632314	1,28775	328,0932	-0,099	87,658	0	1017,7	6,5	8,6	8,3	1	1	1	1	1	1	1	1	1	0	1	-5,496829	273,726057	312,811223	0
15.01.2021	23:25:30	0	0	4,632314	1,257	321,2496	-0,1	87,669	0	1017,56	6,4	8,6	8,3	1	1	1	1	1	1	1	1	1	0	1	-5,84919	273,674898	312,220964	0
15.01.2021	23:25:31	0	0	4,519331	1,21425	337,9464	-0,096	87,669	0	1017,68	6,5	8,6	8,3	1	1	1	1	1	1	1	1	1	0	1	-7,681466	273,800847	310,974615	0
15.01.2021	23:25:32	0	0	2,71155	1,167	343,4832	-0,093	87,649	0	1017,38	6,5	8,6	8,6	1	1	1	1	1	1	1	1	1	0	1	-7,892882	273,66906	310,150132	0
15.01.2021	23:25:33	0	0	2,824582	1,134	332,748	-0,095	87,66	0	1017,62	6,5	8,6	8,3	1	1	1	1	1	1	1	1	1	0	1	-7,751938	273,748024	310,658305	0
15.01.2021	23:25:34	0	0	3,502482	1,1355	325,4364	-0,093	87,662	0	1017,62	6,5	8,5	8,3	1	1	1	1	1	1	1	1	1	0	1	-2,959831	273,664683	315,062835	0
15.01.2021	23:25:35	0	0	4,858281	1,19475	318,7692	-0,09	87,654	0	1017,64	6,5	8,6	8,3	1	1	1	1	1	1	1	1	1	0	1	-5,84919	273,740699	312,526974	0
15.01.2021	23:25:36	0	0	4,745298	1,2645	319,0896	-0,094	87,657	0	1017,4	6,5	8,6	8,3	1	1	1	1	1	1	1	1	1	0	1	-5,84919	273,858237	313,074139	0
15.01.2021	23:25:37	0	0	3,163532	1,31325	314,5248	-0,096	87,666	0	1017,64	6,5	8,6	8,3	1	1	1	1	1	1	1	1	1	0	1	-3,100775	273,777352	315,445943	0
15.01.2021	23:25:38	0	0	4,745298	1,356	300,474	-0,095	87,653	0	1017,46	6,5	8,6	8,3	1	1	1	1	1	1	1	1	1	0	1	-4,157858	273,828785	314,6283	0
15.01.2021	23:25:39	0	0	4,180381	1,3755	309,2076	-0,094	87,663	0	1017,78	6,4	8,6	8,3	1	1	1	1	1	1	1	1	1	0	1	-3,030303	273,825842	315,742152	0
15.01.2021	23:25:40	0	0	3,954415	1,36575	308,8224	-0,095	87,66	0	1017,72	6,5	8,6	8,3	1	1	1	1	1	1	1	1	1	0	1	-7,047216	273,781755	311,519995	0
15.01.2021	23:25:41	0	0	4,519331	1,37775	301,1688	-0,098	87,648	0	1017,7	6,5	8,6	8,3	1	1	1	1	1	1	1	1	1	0	1	-3,312192	273,666142	314,717257	0
15.01.2021	23:25:42	0	0	3,502482	1,3755	296,8452	-0,093	87,655	0	1017,78	6,5	8,6	8,3	1	1	1	1	1	1	1	1	1	0	1	-2,748414	273,806726	315,935032	0
15.01.2021	23:25:43	0	0	4,632314	1,413	303,8832	-0,102	87,654	0	1017,42	6,5	8,6	8,3	1	1	1	1	1	1	1	1	1	0	1	-4,862579	273,666142	313,166869	0
15.01.2021	23:25:44	0	0	3,954415	1,43475	301,5396	-0,096	87,666	0	1017,6	6,5	8,6	8,3	1	1	1	1	1	1	1	1	1	0	1	-4,369274	273,720203	313,911551	0
15.01.2021	23:25:45	0	0	2,711599	1,4145	301,194	-0,097	87,637	0	1017,74	6,5	8,6	8,3	1	1	1	1	1	1	1	1	1	0	1	-8,104299	273,849396	310,777852	0
15.01.2021	23:25:46	0	0	4,971264	1,42575	300,3948	-0,102	87,658	0	1017,62	6,5	8,6	8,3	1	1	1	1	1	1	1	1	1	0	1	-6,272023	273,780288	312,288357	0
15.01.2021	23:25:47	0	0	4,067398	1,4535	301,6584	-0,093	87,66	0	1017,54	6,5	8,6	8,3	1	1	1	1	1	1	1	1	1	0	1	-4,933051	273,698268	313,245761	0
15.01.2021	23:25:48	0	0	3,728448	1,49025	303,5196	-0,092	87,652	0	1017,88	6,5	8,6	8,3	1	1	1	1	1	1	1	1	1	0	1	-5,426357	273,69973	312,759252	0
15.01.2021	23:25:49	0	0	4,519331	1,494	306,144	-0,094	87,641	0	1017,58	6,5	8,6	8,3	1	1	1	1	1	1	1	1	1	0	1	-4,369274	273,671979	313,687309	0
15.01.2021	23:25:50	0	0	3,050548	1,5405	302,0976	-0,094	87,66	0	1017,48	6,5	8,5	8,3	1	1	1	1	1	1	1	1	1	0	1	-2,889359	273,77882	315,66419	0
15.01.2021	23:25:51	0	0	3,502482	1,54125	302,4792	-0,091	87,645	0	1017,76	6,4	8,6	8,3	1	1	1	1	1	1	1	1	1	0	1	-9,795631	273,846451	309,072799	0
15.01.2021	23:25:52	0	0	2,824582	1,5	305,3556	-0,093	87,65	0	1017,76	6,5	8,6	8,3	1	1	1	1	1	1	1	1	1	0	1	-5,144468	273,702653	313,054736	0
15.01.2021	23:25:53	0	0	4,858281	1,46475	305,3844	-0,097	87,65	0	1017,66	6,5	8,6	8,3	1	1	1	1	1	1	1	1	1	0	1	-8,45666	273,812606	310,254162	0
15.01.2021	23:25:54	0	0	4,858281	1,4805	299,4336	-0,093	87,657	0	1017,56	6,4	8,6	8,3	1	1	1	1	1	1	1	1	1	0	1	-5,21494	273,846451	313,65349	0
15.01.2021	23:25:55	0	0	4,971264	1,53075	296,4348	-0,1	87,645	0	1017,52	6,5	8,6	8,3	1	1	1	1	1	1	1	1	1	0	1	-4,369274	273,815546	314,35524	0
15.01.2021	23:25:56	0	0	4,745298	1,49175	298,3068	-0,096	87,638	0	1017,6	6,5	8,5	8,3	1	1	1	1	1	1	1	1	1	0	1	-6,976744	273,661765	311,03236	0
15.01.2021	23:25:57	0	0	4,858281	1,482	306,8244	-0,093	87,66	0	1017,5	6,5	8,6	8,3	1	1	1	1	1	1	1	1	1	0	1	-7,399577	273,781755	311,167634	0
15.01.2021	23:25:58	0	0	3,954415	1,52475	296,0136	-0,101	87,639	0	1017,6	6,5	8,6	8,3	1	1	1	1	1	1	1	1	1	0	1	-2,325581	273,855289	316,584019	0
15.01.2021	23:25:59	0	0	2,598615	1,56075	303,8868	-0,099	87,643	0	1017,64	6,5	8,6	8,3	1	1	1	1	1	1	1	1	1	0	1	-9,231853	273,740699	309,144311	0
15.01.2021	23:26:00	0	0	3,841431	1,5435	304,6716	-0,1	87,642	0	1017,48	6,4	8,6	8,3	1	1	1	1	1	1	1	1	1	0	1	-2,536998	273,667601	315,499233	0
15.01.2021	23:26:01	0	0	4,406348	1,51725	294,4584	-0,097	87,663	0	1017,66	6,5	8,6	8,3	1	1	1	1	1	1	1	1	1	0	1	-7,188161	273,679278	310,902355	0
15.01.2021	23:26:02	0	0	3,389498	1,51875	299,4552	-0,098	87,655	0	1017,58	6,5	8,6	8,3	1	1	1	1	1	1	1	1	1	0	1	-9,725159	273,674898	308,344995	0
15.01.2021	23:26:03	0	0	4,067398	1,4715	300,888	-0,103	87,64	0	1017,44	6,4	8,6	8,3	1	1	1	1	1	1	1	1	1	0	1	-7,188161	273,72313	311,106277	0
15.01.2021	23:26:04	0	0	4,180381	1,43475	300,8592	-0,092	87,645	0	1017,38	6,5	8,6	8,3	1	1	1	1	1	1	1	1	1	0	1	-6,272023	273,670519	311,777776	0
15.01.2021	23:26:05	0	0	2,711599	1,36875	303,4944	-0,096	87,636	0	1017,5	6,5	8,6	8,3	1	1	1	1	1	1	1	1	1	0	1	-9,161381	273,78616	309,426329	0
15.01.2021	23:26:06	0	0	4,519331	1,3305	312,4944	-0,094	87,657	0	1017,58	6,5	8,6	8,3	1	1	1	1	1	1	1	1	1	0	1	-4,792107	273,836144	314,02832	0
15.01.2021	23:26:07	0	0	4,519331	1,31925	308,0124	-0,093	87,639	0	1017,56	6,5	8,6	8,3	1	1	1	1	1	1	1	1	1	0	1	-4,016913	273,8229	314,741841	0
15.01.2021	23:26:08	0	0	4,632314	1,3365	304,65	-0,097	87,65	0	1017,5	6,5	8,6	8,3	1	1	1	1	1	1	1	1	1	0	1	-3,664553	273,756818	314,786607	0
15.01.2021	23:26:09	0	0	4,858281	1,31025	303,822	-0,092	87,655	0	1017,72	6,5	8,6	8,3	1	1	1	1	1	1	1	1	1	0	1	-5,496829	273,853816	313,405908	0
15.01.2021	23:26:10	0	0	4,406348	1,305	304,2252	-0,098	87,646	0	1017,72	6,4	8,6	8,3	1	1	1	1	1	1	1	1	1	0	1	-9,090909	273,809665	309,606224	0
15.01.2021	23:26:11	0	0	2,372649	1,23675	303,9012	-0,095	87,655	0	1017,44	6,5	8,6	8,3	1	1	1	1	1	1	1	1	1	0	1	-7,751938	273,831728	311,047926	0
15.01.2021	23:26:12	0	0	2,824582	1,209	303,9192	-0,094	87,626	0	1017,6	6,5	8,6	8,3	1	1	1	1	1	1	1	1	1	0	1	-7,399577	273,792033	311,215474	0
15.01.2021	23:26:13	0	0	4,745298	1,16925	299,0664	-0,099	87,626	0	1017,58	6,5	8,6	8,3	1	1	1	1	1	1	1	1	1	0	1	-5,355884	273,831728	313,443979	0
15.01.2021	23:26:14	0	0	4,406348	1,15725	308,4624	-0,094	87,646	0	1017,52	6,4	8,6	8,3	1	1	1	1	1	1	1	1	1	0	1	-7,540521	273,690962	310,604318	0
15.01.2021	23:26:15	0	0	2,372649	1,137	309,564	-0,094	87,645	0	1017,62	6,5	8,6	8,3	1	1	1	1	1	1	1	1	1	0	1	-2,536998	273,708501	315,689403	0
15.01.2021	23:26:16	0	0	2,485632	1,146	312,9156	-0,094	87,649	0	1017,66	6,5	8,6	8,3	1	1	1	1	1	1	1	1	1	0	1	-7,188161	273,814076	311,529507	0
15.01.2021	23:26:17	0	0	4,406348	1,12275	326,394	-0,096	87,636	0	1017,6	6,5	8,6	8,3	1	1	1	1	1	1	1	1	1	0	1	-7,047216	273,809665	311,649916	0
15.01.2021	23:26:18	0	0	4,519331	1,074	320,3964	-0,093	87,654	0	1017,66	6,5	8,6	8,3	1	1	1	1	1	1	1	1	1	0	1	-3,59408	273,818487	315,144128	0
15.01.2021	23:26:19	0	0	2,824582	0,98625	300,1248	-0,099	87,639	0	1017,64	6,5	8,6	8,3	1	1	1	1	1	1	1	1	1	0	1	-7,188161	273,682198	310,915932	0
15.01.2021	23:26:20	0	0	4,293365	0,9165	306,1008	-0,096	87,678	0	1017,64	6,5	8,6	8,3	1	1	1	1	1	1	1	1	1	0	1	-3,664553	273,674898	314,405601	0
15.01.2021	23:26:21	0	0	5,084247	0,909	320,0868	-0,097	87,658	0	1017,6	6,5	8,6	8,3	1	1	1	1	1	1	1	1	1	0	1	-4,510218	273,720203	313,770606	0
15.01.2021	23:26:22	0	0	3,389498	0,89775	325,1088	-0,096	87,654	0	1017,76	6,4	8,6	8,3	1	1	1	1	1	1	1	1	1	0	1	-9,161381	273,837616	309,665901	0
15.01.2021	23:26:23	0	0	3,615465	0,86925	319,3308	-0,096	87,65	0	1017,66	6,5	8,6	8,3	1	1	1	1	1	1	1	1	1	0	1	-4,298802	273,726057	314,00925	0
15.01.2021	23:26:24	0	0	3,728448	0,8595	321,156	-0,093	87,659	0	1017,66	6,5	8,6	8,3	1	1	1	1	1	1	1	1	1	0	1	-4,157858	273,827313	314,621448	0
15.01.2021	23:26:25	0	0	3,163532	0,8025	324,3708	-0,092	87,639	0	1017,52	6,5	8,6	8,3	1	1	1	1	1	1	1	1	1	0	1	-5,637773	273,69973	312,547836	0
15.01.2021	23:26:26	0	0	2,937565	0,80325	316,2708	-0,099	87,644	0	1017,58	6,5	8,6	8,3	1	1	1	1	1	1	1	1	1	0	1	-6,8358	273,664683	311,186866	0
15.01.2021	23:26:27	0	0	3,954415	0,77775	308,8476	-0,09	87,639	0	1017,64	6,5	8,6	8,3	1	1	1	1	1	1	1	1	1	0	1	-11,627907	273,743629	306,761887	0
15.01.2021	23:26:28	0	0	3,954415	0,783	309,222	-0,09	87,65	0	1017,6	6,5	8,6	8,3	1	1	1	1	1	1	1	1	1	0	1	-3,523608	273,671979	314,532975	0
15.01.2021	23:26:29	0	0	4,406348	0,762	310,6692	-0,091	87,635	0	1017,68	6,5	8,6	8,3	1	1	1	1	1	1	1	1	1	0	1	-7,540521	273,783223	311,033522	0
15.01.2021	23:26:30	0	0	3,615465	0,78	313,164	-0,088	87,645	0	1017,68	6,5	8,6	8,3	1	1	1	1	1	1	1	1	1	0	1	-9,302326	273,661765	308,706778	0
15.01.2021	23:26:31	0	0	4,971264	0,79575	315,936	-0,092	87,638	0	1017,58	6,4	8,6	8,3	1	1	1	1	1	1	1	1	1	0	1	-3,664553	273,8229	315,094202	0
15.01.2021	23:26:32	0	0	4,406348	0,77775	318,4884	-0,092	87,643	0	1017,62	6,5	8,6	8,3	1	1	1	1	1	1	1	1	1	0	1	-11,768851	273,676358	306,308089	0
15.01.2021	23:26:33	0	0	2,711599	0,7785	316,6236	-0,093	87,638	0	1017,62	6,4	8,6	8,3	1	1	1	1	1	1	1	1	1	0	1	-7,751938	273,762683	310,726512	0
15.01.2021	23:26:34	0	0	2,937565	0,76275	313,218	-0,098	87,621	0	1017,62	6,5	8,6	8,3	1	1	1	1	1	1	1	1	1	0	1	-4,721635	273,846451	314,146795	0
15.01.2021	23:26:35	0	0	3,615465	0,85575	314,3412	-0,093	87,639	0	1017,64	6,5	8,6	8,3	1	1	1	1	1	1	1	1	1	0	1	-4,580691	273,739234	313,788659	0
15.01.2021	23:26:36	0	0	3,389498	0,978	314,0928	-0,095	87,642	0	1017,64	6,4	8,6	8,3	1	1	1	1	1	1	1	1	1	0	1	-5,144468	273,844978	313,717103	0
15.01.2021	23:26:37	0	0	2,937565	1,065	328,554	-0,094	87,646	0	1017,62	6,4	8,6	8,3	1	1	1	1	1	1	1	1	1	0	1	-7,047216	273,670519	311,002582	0
15.01.2021	23:26:38	0	0	2,937565	1,11525	340,8948	-0,095	87,656	0	1017,6	6,5	8,6	8,3	1	1	1	1	1	1	1	1	1	0	1	-6,412967	273,704115	311,793035	0
15.01.2021	23:26:39	0	0	4,180381	1,185	321,84	-0,093	87,633	0	1017,56	6,5	8,6	8,3	1	1	1	1	1	1	1	1	1	0	1	-8,45666	273,827313	310,322646	0
15.01.2021	23:26:40	0	0	3,728448	1,23375	318,5064	-0,092	87,649	0	1017,7	6,4	8,6	8,3	1	1	1	1	1	1	1	1	1	0	1	-9,090909	273,797909	309,551492	0
15.01.2021	23:26:41	0	0	4,293365	1,21275	323,7084	-0,08	87,645	0	1017,7	6,4	8,6	8,3	1	1	1	1	1	1	1	1	1	0	1	-10,42988	273,847923	308,44541	0
15.01.2021	23:26:42	0	0	2,937565	1,19925	328,5936	-0,097	87,649	0	1017,58	6,5	8,6	8,3	1	1	1	1	1	1	1	1	1	0	1	-6,412967	273,770016	312,099609	0
15.01.2021	23:26:43	0	0	4,180381	1,173	331,1316	-0,098	87,64	0	1017,52	6,5	8,6	8,3	1	1	1	1	1	1	1	1	1	0	1	-7,892882	273,842033	310,954971	0
15.01.2021	23:26:44	0	0	4,745298	1,0875	320,6988	-0,094	87,653	0	1017,64	6,5	8,6	8,3	1	1	1	1	1	1	1	1	1	0	1	-6,906272	273,789096	311,695107	0
15.01.2021	23:26:45	0	0	2,937565	1,08675	321,2244	-0,092	87,639	0	1017,5	6,4	8,6	8,3	1	1	1	1	1	1	1	1	1	0	1	-3,735025	273,846451	315,133405	0
15.01.2021	23:26:46	0	0	3,163532	1,12575	322,956	-0,095	87,656	0	1017,6	6,5	8,6	8,3	1	1	1	1	1	1	1	1	1	0	1	-4,933051	273,68658	313,191412	0
15.01.2021	23:26:47	0	0	4,971264	1,1265	314,8596	-0,097	87,654	0	1017,58	6,5	8,6	8,3	1	1	1	1	1	1	1	1	1	0	1	-4,862579	273,765616	313,629519	0
15.01.2021	23:26:48	0	0	4,632314	1,08525	297,27	-0,092	87,653	0	1017,64	6,5	8,6	8,3	1	1	1	1	1	1	1	1	1	0	1	-4,580691	273,846451	314,287739	0
15.01.2021	23:26:49	0	0	2,485632	1,11525	296,7804	-0,096	87,64	0	1017,58	6,5	8,6	8,3	1	1	1	1	1	1	1	1	1	0	1	-3,171247	273,830256	315,621763	0
15.01.2021	23:26:50	0	0	4,971264	1,16025	300,8196	-0,1	87,642	0	1017,6	6,5	8,6	8,3	1	1	1	1	1	1	1	1	1	0	1	-8,45666	273,717277	309,810555	0
15.01.2021	23:26:51	0	0	4,858281	1,155	295,1316	-0,094	87,654	0	1017,68	6,5	8,6	8,3	1	1	1	1	1	1	1	1	1	0	1	-5,144468	273,828785	313,64169	0
15.01.2021	23:26:52	0	0	4,293365	1,14975	300,2004	-0,093	87,646	0	1017,6	6,5	8,6	8,3	1	1	1	1	1	1	1	1	1	0	1	-3,453136	273,797909	315,189265	0
15.01.2021	23:26:53	0	0	4,632314	1,12575	304,6896	-0,098	87,685	0	1017,96	6,5	8,6	8,3	1	1	1	1	1	1	1	1	1	0	1	-4,087385	273,676358	313,989555	0
15.01.2021	23:26:54	0	0	3,728448	1,09575	300,1032	-0,099	87,653	0	1017,56	6,5	8,6	8,3	1	1	1	1	1	1	1	1	1	0	1	-2,536998	273,730448	315,791481	0
15.01.2021	23:26:55	0	0	3,954415	1,11075	299,3796	-0,097	87,652	0	1017,56	6,4	8,6	8,3	1	1	1	1	1	1	1	1	1	0	1	-5,426357	273,670519	312,623442	0
15.01.2021	23:26:56	0	0	4,067398	1,1535	300,8808	-0,09	87,653	0	1017,7	6,5	8,6	8,3	1	1	1	1	1	1	1	1	1	0	1	-2,466526	273,799378	316,182715	0
15.01.2021	23:26:57	0	0	3,728448	1,164	308,1708	-0,101	87,651	0	1017,56	6,5	8,6	8,3	1	1	1	1	1	1	1	1	1	0	1	-6,906272	273,701191	311,286134	0
15.01.2021	23:26:58	0	0	3,841431	1,15125	309,9348	-0,093	87,65	0	1017,56	6,5	8,6	8,3	1	1	1	1	1	1	1	1	1	0	1	-6,060606	273,72313	312,233831	0
15.01.2021	23:26:59	0	0	4,406348	1,17525	302,8068	-0,09	87,641	0	1017,62	6,5	8,5	8,3	1	1	1	1	1	1	1	1	1	0	1	-5,567301	273,676358	312,509639	0
15.01.2021	23:27:00	0	0	4,293365	1,13775	307,2456	-0,098	87,642	0	1017,56	6,5	8,6	8,3	1	1	1	1	1	1	1	1	1	0	1	-7,963354	273,771483	310,556049	0
15.01.2021	23:27:01	0	0	3,050548	1,07925	310,9752	-0,094	87,648	0	1017,52	6,4	8,6	8,3	1	1	1	1	1	1	1	1	1	0	1	-4,862579	273,711426	313,377424	0
15.01.2021	23:27:02	0	0	2,937565	1,04175	309,9384	-0,098	87,653	0	1017,58	6,4	8,6	8,3	1	1	1	1	1	1	1	1	1	0	1	-4,651163	273,839088	314,182976	0
15.01.2021	23:27:03	0	0	4,519331	0,972	307,5372	-0,101	87,643	0	1017,48	6,5	8,6	8,3	1	1	1	1	1	1	1	1	1	0	1	-9,584214	273,815546	309,140299	0
15.01.2021	23:27:04	0	0	4,745298	0,94725	304,2864	-0,096	87,652	0	1017,66	6,4	8,6	8,3	1	1	1	1	1	1	1	1	1	0	1	-6,906272	273,8229	311,852482	0
15.01.2021	23:27:05	0	0	2,598615	0,91275	308,4948	-0,091	87,65	0	1017,6	6,5	8,6	8,3	1	1	1	1	1	1	1	1	1	0	1	-5,003524	273,671979	313,053059	0
15.01.2021	23:27:06	0	0	4,745298	0,864	321,426	-0,093	87,66	0	1017,62	6,5	8,6	8,3	1	1	1	1	1	1	1	1	1	0	1	-8,245243	273,787628	310,349301	0
15.01.2021	23:27:07	0	0	3,389498	0,80775	325,1196	-0,093	87,651	0	1017,6	6,4	8,6	8,3	1	1	1	1	1	1	1	1	1	0	1	-6,694856	273,69973	311,490753	0
15.01.2021	23:27:08	0	0	2,598615	0,7665	315,8532	-0,093	87,661	0	1017,52	6,5	8,6	8,3	1	1	1	1	1	1	1	1	1	0	1	-6,624383	273,685119	311,493289	0
15.01.2021	23:27:09	0	0	2,937565	0,74775	312,5052	-0,094	87,645	0	1017,66	6,5	8,6	8,3	1	1	1	1	1	1	1	1	1	0	1	-0,775194	273,68804	317,356061	0
15.01.2021	23:27:10	0	0	2,824582	0,6795	319,7016	-0,093	87,65	0	1017,5	6,4	8,6	8,3	1	1	1	1	1	1	1	1	1	0	1	-9,584214	273,683659	308,526668	0
15.01.2021	23:27:11	0	0	4,858281	0,67125	326,1708	-0,093	87,665	0	1017,6	6,5	8,6	8,3	1	1	1	1	1	1	1	1	1	0	1	-7,188161	273,803786	311,481601	0
15.01.2021	23:27:12	0	0	4,519331	0,61575	332,4672	-0,092	87,657	0	1017,52	6,4	8,6	8,3	1	1	1	1	1	1	1	1	1	0	1	-5,144468	273,664683	312,878198	0
15.01.2021	23:27:13	0	0	3,841362	0,58725	337,5648	-0,094	87,644	0	1017,58	6,4	8,6	8,6	1	1	1	1	1	1	1	1	1	0	1	-7,751938	273,734841	310,596974	0
15.01.2021	23:27:14	0	0	2,824582	0,59625	329,2596	-0,076	87,671	0	1017,86	6,5	8,6	8,3	1	1	1	1	1	1	1	1	1	0	1	-4,933051	273,849396	313,949099	0
15.01.2021	23:27:15	0	0	3,954415	0,63675	318,4632	-0,091	87,654	0	1017,64	6,5	8,6	8,3	1	1	1	1	1	1	1	1	1	0	1	-5,144468	273,808195	313,545821	0
15.01.2021	23:27:16	0	0	3,502482	0,75375	317,808	-0,088	87,662	0	1017,66	6,4	8,6	8,3	1	1	1	1	1	1	1	1	1	0	1	-6,131078	273,805256	312,545526	0
15.01.2021	23:27:17	0	0	4,745298	0,91575	325,5444	-0,092	87,666	0	1017,66	6,5	8,6	8,3	1	1	1	1	1	1	1	1	1	0	1	-7,470049	273,836144	311,350377	0
15.01.2021	23:27:18	0	0	3,954415	1,05975	322,632	-0,093	87,659	0	1017,56	6,5	8,6	8,3	1	1	1	1	1	1	1	1	1	0	1	-5,073996	273,837616	313,753287	0
15.01.2021	23:27:19	0	0	4,293365	1,101	337,2264	-0,092	87,65	0	1017,64	6,5	8,6	8,3	1	1	1	1	1	1	1	1	1	0	1	-3,946441	273,680738	314,150862	0
15.01.2021	23:27:20	0	0	3,050548	1,09725	352,8396	-0,093	87,646	0	1017,56	6,5	8,6	8,3	1	1	1	1	1	1	1	1	1	0	1	-2,959831	273,836144	315,860596	0
15.01.2021	23:27:21	0	0	3,502482	1,03725	343,53	-0,094	87,656	0	1017,64	6,4	8,6	8,3	1	1	1	1	1	1	1	1	1	0	1	-3,171247	273,695345	314,993974	0
15.01.2021	23:27:22	0	0	3,728448	1,02075	322,5924	-0,09	87,66	0	1017,62	6,5	8,6	8,3	1	1	1	1	1	1	1	1	1	0	1	-8,245243	273,818487	310,492965	0
15.01.2021	23:27:23	0	0	4,745298	0,9945	323,3916	-0,093	87,632	0	1017,54	6,5	8,6	8,3	1	1	1	1	1	1	1	1	1	0	1	-7,188161	273,707039	311,03144	0
15.01.2021	23:27:24	0	0	3,841431	0,97725	321,102	-0,097	87,657	0	1017,62	6,5	8,6	8,3	1	1	1	1	1	1	1	1	1	0	1	-5,21494	273,850869	313,674072	0
15.01.2021	23:27:25	0	0	5,197231	0,951	316,6056	-0,088	87,65	0	1017,54	6,5	8,6	8,3	1	1	1	1	1	1	1	1	1	0	1	-4,22833	273,712889	314,018475	0
15.01.2021	23:27:26	0	0	3,050548	0,93825	317,8656	-0,094	87,642	0	1017,64	6,5	8,6	8,3	1	1	1	1	1	1	1	1	1	0	1	-6,483439	273,837616	312,343843	0
15.01.2021	23:27:27	0	0	2,372649	0,88575	324,864	-0,097	87,658	0	1017,78	6,5	8,6	8,3	1	1	1	1	1	1	1	1	1	0	1	-6,131078	273,774418	312,401982	0
15.01.2021	23:27:28	0	0	3,728448	0,8685	319,1652	-0,092	87,665	0	1017,58	6,5	8,6	8,3	1	1	1	1	1	1	1	1	1	0	1	-4,439746	273,644268	313,488036	0
15.01.2021	23:27:29	0	0	4,406348	0,84375	311,0544	-0,094	87,651	0	1017,46	6,4	8,6	8,3	1	1	1	1	1	1	1	1	1	0	1	-4,510218	273,811135	314,193759	0
15.01.2021	23:27:30	0	0	3,954415	0,80475	307,206	-0,097	87,644	0	1017,64	6,5	8,6	8,3	1	1	1	1	1	1	1	1	1	0	1	-4,087385	273,676358	313,989555	0
15.01.2021	23:27:31	0	0	4,971264	0,78975	315,2088	-0,099	87,658	0	1017,62	6,5	8,6	8,3	1	1	1	1	1	1	1	1	1	0	1	-10,147992	273,868555	308,823407	0
15.01.2021	23:27:32	0	0	3,615465	0,79575	326,8656	-0,098	87,651	0	1017,78	6,5	8,6	8,3	1	1	1	1	1	1	1	1	1	0	1	-11,909796	273,748024	306,500448	0
15.01.2021	23:27:33	0	0	2,824582	0,77025	324,4104	-0,091	87,661	0	1017,54	6,5	8,6	8,3	1	1	1	1	1	1	1	1	1	0	1	-8,879493	273,666142	309,149956	0
15.01.2021	23:27:34	0	0	4,519331	0,735	312,5124	-0,085	87,651	0	1017,34	6,5	8,6	8,3	1	1	1	1	1	1	1	1	1	0	1	-6,131078	273,843505	312,723633	0
15.01.2021	23:27:35	0	0	3,276515	0,696	308,0844	-0,093	87,652	0	1017,6	6,5	8,6	8,3	1	1	1	1	1	1	1	1	1	0	1	-3,24172	273,724593	315,059525	0
15.01.2021	23:27:36	0	0	2,711599	0,669	312,8544	-0,094	87,655	0	1017,74	6,4	8,6	8,3	1	1	1	1	1	1	1	1	1	0	1	-12,262156	273,660306	305,740167	0
15.01.2021	23:27:37	0	0	2,937565	0,648	311,4	-0,09	87,654	0	1017,6	6,5	8,6	8,3	1	1	1	1	1	1	1	1	1	0	1	-4,298802	273,72313	313,995635	0
15.01.2021	23:27:38	0	0	4,971264	0,642	309,87	-0,096	87,661	0	1017,68	6,4	8,6	8,3	1	1	1	1	1	1	1	1	1	0	1	-2,748414	273,850869	316,140598	0
15.01.2021	23:27:39	0	0	3,389498	0,64275	315,4824	-0,095	87,647	0	1017,56	6,5	8,6	8,3	1	1	1	1	1	1	1	1	1	0	1	-5,355884	273,693884	312,802542	0
15.01.2021	23:27:40	0	0	3,050548	0,672	323,2764	-0,095	87,642	0	1017,5	6,5	8,6	8,3	1	1	1	1	1	1	1	1	1	0	1	-2,889359	273,705577	315,323442	0
15.01.2021	23:27:41	0	0	3,276515	0,6645	323,6328	-0,091	87,653	0	1017,68	6,5	8,6	8,3	1	1	1	1	1	1	1	1	1	0	1	-2,184637	273,670519	315,865161	0
15.01.2021	23:27:42	0	0	4,632314	0,63525	318,1068	-0,091	87,629	0	1017,46	6,5	8,6	8,3	1	1	1	1	1	1	1	1	1	0	1	-4,22833	273,805256	314,448274	0
15.01.2021	23:27:43	0	0	3,615465	0,67425	317,0412	-0,087	87,651	0	1017,6	6,5	8,6	8,3	1	1	1	1	1	1	1	1	1	0	1	-8,45666	273,667601	309,579571	0
15.01.2021	23:27:44	0	0	4,519331	0,68775	319,716	-0,088	87,657	0	1017,56	6,5	8,6	8,3	1	1	1	1	1	1	1	1	1	0	1	-9,513742	273,771483	309,005661	0
15.01.2021	23:27:45	0	0	4,519331	0,66375	321,2172	-0,091	87,65	0	1017,64	6,5	8,6	8,3	1	1	1	1	1	1	1	1	1	0	1	-9,302326	273,844978	309,559245	0
15.01.2021	23:27:46	0	0	4,858281	0,6705	317,7036	-0,091	87,648	0	1017,62	6,4	8,6	8,3	1	1	1	1	1	1	1	1	1	0	1	-5,21494	273,792033	313,400111	0
15.01.2021	23:27:47	0	0	4,406348	0,64875	315,2088	-0,089	87,656	0	1017,56	6,5	8,6	8,3	1	1	1	1	1	1	1	1	1	0	1	-7,258633	273,852343	311,637242	0
15.01.2021	23:27:48	0	0	4,406348	0,68625	306,7956	-0,095	87,697	0	1017,42	6,5	8,6	8,3	1	1	1	1	1	1	1	1	1	0	1	-7,82241	273,714352	310,431198	0
15.01.2021	23:27:49	0	0	3,728448	0,71625	302,112	-0,087	87,634	0	1017,56	6,5	8,6	8,3	1	1	1	1	1	1	1	1	1	0	1	-4,439746	273,827313	314,33956	0
15.01.2021	23:27:50	0	0	4,632314	0,7275	302,4756	-0,095	87,663	0	1017,5	6,5	8,6	8,3	1	1	1	1	1	1	1	1	1	0	1	-6,553911	273,839088	312,280228	0
15.01.2021	23:27:51	0	0	4,180381	0,74925	310,7088	-0,092	87,636	0	1017,52	6,5	8,6	8,3	1	1	1	1	1	1	1	1	1	0	1	-3,664553	273,68804	314,466702	0
15.01.2021	23:27:52	0	0	2,711599	0,68925	321,786	-0,088	87,661	0	1017,6	6,5	8,6	8,3	1	1	1	1	1	1	1	1	1	0	1	-2,396054	273,69973	315,789555	0
15.01.2021	23:27:53	0	0	3,728448	0,62775	325,4796	-0,092	87,656	0	1017,64	6,5	8,6	8,3	1	1	1	1	1	1	1	1	1	0	1	-10,570825	273,806726	308,112622	0
15.01.2021	23:27:54	0	0	3,163532	0,60225	322,6176	-0,093	87,656	0	1017,78	6,5	8,5	8,3	1	1	1	1	1	1	1	1	1	0	1	-6,624383	273,847923	312,250907	0
15.01.2021	23:27:55	0	0	3,163532	0,62175	322,5888	-0,095	87,653	0	1017,74	6,5	8,6	8,3	1	1	1	1	1	1	1	1	1	0	1	-7,681466	273,764149	310,803808	0
15.01.2021	23:27:56	0	0	2,598615	0,58275	319,2192	-0,088	87,651	0	1017,48	6,5	8,6	8,3	1	1	1	1	1	1	1	1	1	0	1	-3,100775	273,673438	314,962593	0
15.01.2021	23:27:57	0	0	4,067398	0,55725	322,9488	-0,087	87,648	0	1017,54	6,4	8,6	8,3	1	1	1	1	1	1	1	1	1	0	1	-3,805497	273,746559	314,597929	0
15.01.2021	23:27:58	0	0	4,858281	0,57525	328,5396	-0,091	87,655	0	1017,66	6,5	8,6	8,3	1	1	1	1	1	1	1	1	1	0	1	-10,641297	273,831728	308,158567	0
15.01.2021	23:27:59	0	0	2,598615	0,58725	319,1256	-0,087	87,664	0	1017,4	6,5	8,6	8,3	1	1	1	1	1	1	1	1	1	0	1	-1,198027	273,71874	317,075993	0
15.01.2021	23:28:00	0	0	3,954415	0,606	310,6692	-0,09	87,648	0	1017,54	6,5	8,6	8,3	1	1	1	1	1	1	1	1	1	0	1	-2,889359	273,730448	315,43912	0
15.01.2021	23:28:01	0	0	4,632314	0,6075	306,4608	-0,086	87,661	0	1017,64	6,5	8,6	8,3	1	1	1	1	1	1	1	1	1	0	1	-2,184637	273,802317	316,478284	0
15.01.2021	23:28:02	0	0	5,536181	0,60675	296,0604	-0,089	87,645	0	1017,56	6,5	8,6	8,3	1	1	1	1	1	1	1	1	1	0	1	-7,047216	273,8229	311,711538	0
15.01.2021	23:28:03	0	0	3,502482	0,56925	290,4588	-0,093	87,633	0	1017,64	6,5	8,6	8,3	1	1	1	1	1	1	1	1	1	0	1	-7,610994	273,818487	311,127214	0
15.01.2021	23:28:04	0	0	2,937565	0,6045	292,6692	-0,087	87,644	0	1017,5	6,5	8,6	8,3	1	1	1	1	1	1	1	1	1	0	1	-6,624383	273,843505	312,230328	0
15.01.2021	23:28:05	0	0	4,519331	0,591	298,3104	-0,095	87,653	0	1017,48	6,5	8,6	8,3	1	1	1	1	1	1	1	1	1	0	1	-8,104299	273,739234	310,265051	0
15.01.2021	23:28:06	0	0	2,372649	0,5835	304,6536	-0,088	87,656	0	1017,58	6,5	8,6	8,3	1	1	1	1	1	1	1	1	1	0	1	-4,087385	273,693884	314,071041	0
15.01.2021	23:28:07	0	0	2,485632	0,561	313,3116	-0,086	87,662	0	1017,62	6,5	8,6	8,3	1	1	1	1	1	1	1	1	1	0	1	-7,117689	273,850869	311,771324	0
15.01.2021	23:28:08	0	0	5,084247	0,5205	320,7564	-0,087	87,661	0	1017,6	6,5	8,6	8,3	1	1	1	1	1	1	1	1	1	0	1	-5,073996	273,77295	313,452235	0
15.01.2021	23:28:09	0	0	2,824582	0,4725	321,8184	-0,086	87,661	0	1017,74	6,5	8,6	8,3	1	1	1	1	1	1	1	1	1	0	1	-4,933051	273,66906	313,109963	0
15.01.2021	23:28:10	0	0	4,858281	0,50475	319,1544	-0,091	87,664	0	1017,74	6,5	8,6	8,3	1	1	1	1	1	1	1	1	1	0	1	-4,862579	273,69973	313,323029	0
15.01.2021	23:28:11	0	0	3,502482	0,47175	315,9324	-0,09	87,658	0	1017,5	6,5	8,6	8,3	1	1	1	1	1	1	1	1	1	0	1	-6,976744	273,66906	311,06627	0
15.01.2021	23:28:12	0	0	3,615465	0,474	316,2456	-0,086	87,637	0	1017,6	6,5	8,6	8,3	1	1	1	1	1	1	1	1	1	0	1	-8,245243	273,749489	310,171818	0
15.01.2021	23:28:13	0	0	3,502482	0,49275	318,888	-0,093	87,651	0	1017,5	6,5	8,6	8,3	1	1	1	1	1	1	1	1	1	0	1	-4,298802	273,664683	313,723864	0
15.01.2021	23:28:14	0	0	2,711599	0,48	324,8136	-0,088	87,658	0	1017,52	6,5	8,6	8,3	1	1	1	1	1	1	1	1	1	0	1	-3,171247	273,727521	315,143613	0
15.01.2021	23:28:15	0	0	2,598615	0,4815	330,03	-0,082	87,663	0	1017,72	6,5	8,6	8,3	1	1	1	1	1	1	1	1	1	0	1	-8,879493	273,844978	309,982078	0
15.01.2021	23:28:16	0	0	2,598615	0,5175	335,6604	-0,093	87,648	0	1017,46	6,5	8,6	8,3	1	1	1	1	1	1	1	1	1	0	1	-5,496829	273,715814	312,763582	0
15.01.2021	23:28:17	0	0	2,598615	0,50025	339,0732	-0,086	87,676	0	1017,6	6,5	8,6	8,3	1	1	1	1	1	1	1	1	1	0	1	-6,8358	273,855289	312,0738	0
15.01.2021	23:28:18	0	0	3,389498	0,48	339,084	-0,088	87,659	0	1017,64	6,5	8,6	8,3	1	1	1	1	1	1	1	1	1	0	1	-9,231853	273,799378	309,417387	0
15.01.2021	23:28:19	0	0	2,372649	0,4575	334,2168	-0,089	87,656	0	1017,5	6,5	8,6	8,3	1	1	1	1	1	1	1	1	1	0	1	-3,030303	273,682198	315,073789	0
15.01.2021	23:28:20	0	0	4,632314	0,4635	326,7324	-0,084	87,653	0	1017,62	6,5	8,6	8,3	1	1	1	1	1	1	1	1	1	0	1	-5,003524	273,814076	313,714144	0
15.01.2021	23:28:21	0	0	3,276515	0,45075	320,3892	-0,082	87,652	0	1017,54	6,5	8,6	8,3	1	1	1	1	1	1	1	1	1	0	1	-4,016913	273,690962	314,127926	0
15.01.2021	23:28:22	0	0	2,598615	0,49125	319,6224	-0,086	87,664	0	1017,5	6,5	8,6	8,3	1	1	1	1	1	1	1	1	1	0	1	-8,949965	273,855289	309,959636	0
15.01.2021	23:28:23	0	0	4,745298	0,49875	327,7908	-0,085	87,66	0	1017,6	6,5	8,6	8,3	1	1	1	1	1	1	1	1	1	0	1	-3,312192	273,714352	314,941416	0
15.01.2021	23:28:24	0	0	3,163532	0,47775	339,1416	-0,083	87,653	0	1017,78	6,5	8,6	8,3	1	1	1	1	1	1	1	1	1	0	1	-3,664553	273,8332	315,142165	0
15.01.2021	23:28:25	0	0	4,406348	0,4515	341,64	-0,086	87,637	0	1017,62	6,5	8,6	8,3	1	1	1	1	1	1	1	1	1	0	1	-6,8358	273,794971	311,792925	0
15.01.2021	23:28:26	0	0	3,163532	0,4455	328,9572	-0,085	87,652	0	1017,48	6,5	8,6	8,3	1	1	1	1	1	1	1	1	1	0	1	-4,439746	273,671979	313,616837	0
15.01.2021	23:28:27	0	0	5,084247	0,438	313,2828	-0,088	87,671	0	1017,68	6,4	8,6	8,3	1	1	1	1	1	1	1	1	1	0	1	-2,255109	273,730448	316,07337	0
15.01.2021	23:28:28	0	0	2,937565	0,42825	305,3556	-0,086	87,659	0	1017,68	6,5	8,6	8,3	1	1	1	1	1	1	1	1	1	0	1	-5,84919	273,658848	312,146354	0
15.01.2021	23:28:29	0	0	4,293365	0,37725	308,0988	-0,085	87,661	0	1017,66	6,4	8,6	8,3	1	1	1	1	1	1	1	1	1	0	1	-4,157858	273,790565	314,450357	0
15.01.2021	23:28:30	0	0	4,858281	0,37275	313,1964	-0,083	87,657	0	1017,54	6,5	8,6	8,3	1	1	1	1	1	1	1	1	1	0	1	-6,412967	273,683659	311,697915	0
15.01.2021	23:28:31	0	0	2,824582	0,41175	318,132	-0,086	87,655	0	1017,5	6,5	8,6	8,3	1	1	1	1	1	1	1	1	1	0	1	-7,610994	273,707039	310,608607	0
15.01.2021	23:28:32	0	0	2,937565	0,402	317,754	-0,086	87,655	0	1017,56	6,4	8,6	8,3	1	1	1	1	1	1	1	1	1	0	1	-6,765328	273,831728	312,034536	0
15.01.2021	23:28:33	0	0	3,841431	0,41625	316,1952	-0,089	87,653	0	1017,5	6,5	8,6	8,3	1	1	1	1	1	1	1	1	1	0	1	-6,906272	273,839088	311,927867	0
15.01.2021	23:28:34	0	0	2,937565	0,42	316,2312	-0,086	87,652	0	1017,54	6,4	8,6	8,3	1	1	1	1	1	1	1	1	1	0	1	-4,862579	273,68804	313,268675	0
15.01.2021	23:28:35	0	0	3,615465	0,4635	313,2612	-0,088	87,657	0	1017,66	6,5	8,6	8,3	1	1	1	1	1	1	1	1	1	0	1	-7,258633	273,674898	310,811521	0
15.01.2021	23:28:36	0	0	2,937565	0,54525	310,7484	-0,09	87,654	0	1017,52	6,5	8,6	8,3	1	1	1	1	1	1	1	1	1	0	1	-6,131078	273,806726	312,552368	0
15.01.2021	23:28:37	0	0	3,502482	0,576	323,3556	-0,085	87,641	0	1017,58	6,5	8,6	8,3	1	1	1	1	1	1	1	1	1	0	1	-7,188161	273,661765	310,820943	0
15.01.2021	23:28:38	0	0	3,841431	0,62625	335,7612	-0,083	87,647	0	1017,52	6,5	8,6	8,3	1	1	1	1	1	1	1	1	1	0	1	-3,312192	273,704115	314,89381	0
15.01.2021	23:28:39	0	0	2,485632	0,64725	329,6736	-0,084	87,663	0	1017,66	6,5	8,6	8,3	1	1	1	1	1	1	1	1	1	0	1	-6,412967	273,671979	311,643616	0
15.01.2021	23:28:40	0	0	3,389498	0,64275	321,1596	-0,079	87,654	0	1017,6	6,5	8,6	8,3	1	1	1	1	1	1	1	1	1	0	1	-10,42988	273,733377	307,91222	0
15.01.2021	23:28:41	0	0	5,310214	0,6435	316,2852	-0,088	87,648	0	1017,48	6,5	8,6	8,3	1	1	1	1	1	1	1	1	1	0	1	-6,8358	273,844978	312,025771	0
15.01.2021	23:28:42	0	0	2,937565	0,66	315,252	-0,081	87,655	0	1017,58	6,5	8,6	8,3	1	1	1	1	1	1	1	1	1	0	1	-6,765328	273,708501	311,461073	0
15.01.2021	23:28:43	0	0	2,824582	0,69375	315,1908	-0,088	87,65	0	1017,54	6,5	8,6	8,3	1	1	1	1	1	1	1	1	1	0	1	-0,845666	273,761216	317,62596	0
15.01.2021	23:28:44	0	0	4,180381	0,72375	313,1784	-0,083	87,654	0	1017,58	6,5	8,6	8,3	1	1	1	1	1	1	1	1	1	0	1	-5,84919	273,814076	312,868478	0
15.01.2021	23:28:45	0	0	3,163532	0,74325	307,6524	-0,086	87,654	0	1017,56	6,5	8,6	8,3	1	1	1	1	1	1	1	1	1	0	1	-7,751938	273,828785	311,03422	0
15.01.2021	23:28:46	0	0	2,711599	0,76575	309,5892	-0,082	87,655	0	1017,6	6,5	8,6	8,3	1	1	1	1	1	1	1	1	1	0	1	-3,382664	273,731912	314,952625	0
15.01.2021	23:28:47	0	0	4,519331	0,7815	312,4548	-0,094	87,646	0	1017,58	6,5	8,6	8,3	1	1	1	1	1	1	1	1	1	0	1	-8,80902	273,676358	309,26792	0
15.01.2021	23:28:48	0	0	2,824582	0,80175	313,5312	-0,087	87,638	0	1017,38	6,5	8,6	8,3	1	1	1	1	1	1	1	1	1	0	1	-4,721635	273,707039	313,497965	0
15.01.2021	23:28:49	0	0	2,711599	0,78375	314,082	-0,083	87,655	0	1017,64	6,4	8,5	8,3	1	1	1	1	1	1	1	1	1	0	1	-7,258633	273,792033	311,356418	0
15.01.2021	23:28:50	0	0	3,728448	0,75975	312,462	-0,084	87,634	0	1017,56	6,5	8,6	8,3	1	1	1	1	1	1	1	1	1	0	1	-10,42988	273,808195	308,260409	0
15.01.2021	23:28:51	0	0	2,824582	0,71775	311,814	-0,078	87,649	0	1017,6	6,5	8,6	8,3	1	1	1	1	1	1	1	1	1	0	1	-8,45666	273,685119	309,661013	0
15.01.2021	23:28:52	0	0	4,971264	0,69525	315,1836	-0,08	87,643	0	1017,62	6,5	8,6	8,3	1	1	1	1	1	1	1	1	1	0	1	-13,601128	273,806726	305,082319	0
15.01.2021	23:28:53	0	0	3,954415	0,63225	310,77	-0,082	87,644	0	1017,58	6,5	8,6	8,3	1	1	1	1	1	1	1	1	1	0	1	-8,45666	273,844978	310,404911	0
15.01.2021	23:28:54	0	0	3,728448	0,57225	289,1988	-0,09	87,64	0	1017,52	6,5	8,6	8,3	1	1	1	1	1	1	1	1	1	0	1	-3,171247	273,677818	314,91248	0
15.01.2021	23:28:55	0	0	3,728448	0,52125	283,5108	-0,08	87,647	0	1017,6	6,5	8,6	8,3	1	1	1	1	1	1	1	1	1	0	1	-3,523608	273,8332	315,283109	0
15.01.2021	23:28:56	0	0	3,276515	0,4725	283,1976	-0,084	87,647	0	1017,42	6,5	8,6	8,3	1	1	1	1	1	1	1	1	1	0	1	-5,285412	273,79644	313,35015	0
15.01.2021	23:28:57	0	0	3,502482	0,4335	286,3152	-0,087	87,65	0	1017,64	6,4	8,6	8,3	1	1	1	1	1	1	1	1	1	0	1	-6,976744	273,831728	311,823119	0
15.01.2021	23:28:58	0	0	3,841431	0,44025	295,2036	-0,086	87,611	0	1017,42	6,5	8,6	8,3	1	1	1	1	1	1	1	1	1	0	1	-5,003524	273,690962	313,141316	0
15.01.2021	23:28:59	0	0	2,711599	0,507	297,5328	-0,085	87,64	0	1017,54	6,5	8,6	8,3	1	1	1	1	1	1	1	1	1	0	1	-6,272023	273,8332	312,534695	0
15.01.2021	23:29:00	0	0	4,180381	0,6105	290,0052	-0,091	87,641	0	1017,54	6,5	8,6	8,3	1	1	1	1	1	1	1	1	1	0	1	-9,302326	273,787628	309,292219	0
15.01.2021	23:29:01	0	0	4,293365	0,672	289,2168	-0,087	87,627	0	1017,4	6,5	8,6	8,3	1	1	1	1	1	1	1	1	1	0	1	-3,735025	273,828785	315,051133	0
15.01.2021	23:29:02	0	0	4,406348	0,738	301,2876	-0,09	87,625	0	1017,5	6,5	8,6	8,3	1	1	1	1	1	1	1	1	1	0	1	-4,439746	273,792033	314,175304	0
15.01.2021	23:29:03	0	0	3,841431	0,768	314,4456	-0,091	87,631	0	1017,48	6,5	8,6	8,3	1	1	1	1	1	1	1	1	1	0	1	-9,513742	273,821429	309,238163	0
15.01.2021	23:29:04	0	0	3,276515	0,78825	317,8044	-0,084	87,638	0	1017,56	6,5	8,5	8,3	1	1	1	1	1	1	1	1	1	0	1	-5,144468	273,720203	313,136357	0
15.01.2021	23:29:05	0	0	3,728448	0,7845	317,7792	-0,08	87,648	0	1017,5	6,5	8,6	8,3	1	1	1	1	1	1	1	1	1	0	1	-10,359408	273,670519	307,69039	0
15.01.2021	23:29:06	0	0	4,180381	0,7365	316,98	-0,084	87,622	0	1017,7	6,5	8,6	8,3	1	1	1	1	1	1	1	1	1	0	1	-3,100775	273,780288	315,459605	0
15.01.2021	23:29:07	0	0	4,067398	0,6705	317,7756	-0,081	87,631	0	1017,5	6,5	8,6	8,3	1	1	1	1	1	1	1	1	1	0	1	-13,953488	273,685119	304,164184	0
15.01.2021	23:29:08	0	0	3,163475	0,61725	317,8152	-0,087	87,638	0	1017,52	6,5	8,6	8,6	1	1	1	1	1	1	1	1	1	0	1	-6,342495	273,71874	311,931525	0
15.01.2021	23:29:09	0	0	3,276515	0,603	309,9528	-0,089	87,62	0	1017,44	6,5	8,6	8,3	1	1	1	1	1	1	1	1	1	0	1	-7,681466	273,815546	311,043048	0
15.01.2021	23:29:10	0	0	4,858281	0,603	292,2588	-0,082	87,626	0	1017,6	6,5	8,6	8,3	1	1	1	1	1	1	1	1	1	0	1	-4,721635	273,671979	313,334948	0
15.01.2021	23:29:11	0	0	4,632314	0,62625	281,736	-0,083	87,639	0	1017,34	6,5	8,6	8,3	1	1	1	1	1	1	1	1	1	0	1	-6,976744	273,805256	311,69986	0
15.01.2021	23:29:12	0	0	2,598615	0,63	285,8904	-0,085	87,639	0	1017,44	6,5	8,6	8,3	1	1	1	1	1	1	1	1	1	0	1	-5,144468	273,683659	312,966414	0
15.01.2021	23:29:13	0	0	2,937565	0,6315	286,6176	-0,083	87,64	0	1017,58	6,5	8,6	8,3	1	1	1	1	1	1	1	1	1	0	1	-7,258633	273,708501	310,967768	0
15.01.2021	23:29:14	0	0	4,858281	0,62325	278,4312	-0,082	87,642	0	1017,58	6,5	8,6	8,3	1	1	1	1	1	1	1	1	1	0	1	-9,302326	273,836144	309,518101	0
15.01.2021	23:29:15	0	0	4,858281	0,6045	273,2796	-0,08	87,642	0	1017,62	6,4	8,6	8,3	1	1	1	1	1	1	1	1	1	0	1	-5,84919	273,830256	312,943821	0
15.01.2021	23:29:16	0	0	3,163532	0,57075	273,5316	-0,076	87,635	0	1017,44	6,5	8,5	8,3	1	1	1	1	1	1	1	1	1	0	1	-2,889359	273,809665	315,807774	0
15.01.2021	23:29:17	0	0	3,954415	0,51075	276,3864	-0,079	87,63	0	1017,56	6,5	8,6	8,3	1	1	1	1	1	1	1	1	1	0	1	-6,272023	273,695345	311,893199	0
15.01.2021	23:29:18	0	0	2,937565	0,49125	278,4636	-0,079	87,628	0	1017,52	6,5	8,6	8,3	1	1	1	1	1	1	1	1	1	0	1	-1,902748	273,790565	316,705466	0
15.01.2021	23:29:19	0	0	3,841431	0,47925	275,8068	-0,082	87,649	0	1017,54	6,5	8,6	8,3	1	1	1	1	1	1	1	1	1	0	1	-4,721635	273,806726	313,961811	0
15.01.2021	23:29:20	0	0	2,711599	0,46125	270,6552	-0,075	87,648	0	1017,64	6,5	8,6	8,3	1	1	1	1	1	1	1	1	1	0	1	-7,329105	273,667601	310,707126	0
15.01.2021	23:29:21	0	0	3,502482	0,441	268,3764	-0,076	87,648	0	1017,54	6,4	8,6	8,3	1	1	1	1	1	1	1	1	1	0	1	-4,087385	273,711426	314,152617	0
15.01.2021	23:29:22	0	0	3,502482	0,393	264,9348	-0,078	87,655	0	1017,6	6,5	8,6	8,3	1	1	1	1	1	1	1	1	1	0	1	-4,087385	273,674898	313,982768	0
15.01.2021	23:29:23	0	0	4,971264	0,36975	262,5048	-0,084	87,641	0	1017,58	6,5	8,6	8,3	1	1	1	1	1	1	1	1	1	0	1	-3,523608	273,71874	314,750412	0
15.01.2021	23:29:24	0	0	4,293365	0,36375	261,63	-0,082	87,638	0	1017,64	6,5	8,6	8,3	1	1	1	1	1	1	1	1	1	0	1	-4,721635	273,8332	314,085082	0
15.01.2021	23:29:25	0	0	4,632314	0,36075	263,5848	-0,078	87,622	0	1017,58	6,5	8,6	8,3	1	1	1	1	1	1	1	1	1	0	1	-8,879493	273,784691	309,701384	0
15.01.2021	23:29:26	0	0	2,711599	0,34725	266,2272	-0,079	87,652	0	1017,54	6,5	8,6	8,3	1	1	1	1	1	1	1	1	1	0	1	-3,523608	273,696807	314,648408	0
15.01.2021	23:29:27	0	0	4,632314	0,297	271,7964	-0,078	87,648	0	1017,54	6,5	8,6	8,3	1	1	1	1	1	1	1	1	1	0	1	-9,090909	273,800847	309,565171	0
15.01.2021	23:29:28	0	0	3,389498	0,26625	280,62	-0,08	87,643	0	1017,6	6,5	8,6	8,3	1	1	1	1	1	1	1	1	1	0	1	-6,412967	273,793502	312,208921	0
15.01.2021	23:29:29	0	0	4,971264	0,252	292,2876	-0,077	87,637	0	1017,54	6,5	8,6	8,3	1	1	1	1	1	1	1	1	1	0	1	-8,879493	273,693884	309,278934	0
15.01.2021	23:29:30	0	0	2,937565	0,2265	299,4408	-0,075	87,65	0	1017,58	6,5	8,6	8,3	1	1	1	1	1	1	1	1	1	0	1	-8,245243	273,644268	309,682539	0
15.01.2021	23:29:31	0	0	2,711599	0,2025	300,186	-0,076	87,639	0	1017,42	6,5	8,6	8,3	1	1	1	1	1	1	1	1	1	0	1	-4,016913	273,817017	314,714447	0
15.01.2021	23:29:32	0	0	3,163532	0,16725	295,1928	-0,088	87,632	0	1017,46	6,5	8,6	8,3	1	1	1	1	1	1	1	1	1	0	1	-3,875969	273,765616	314,616129	0
15.01.2021	23:29:33	0	0	3,389498	0,156	285,2064	-0,075	87,647	0	1017,84	6,4	8,5	8,3	1	1	1	1	1	1	1	1	1	0	1	-6,624383	273,8229	312,134371	0
15.01.2021	23:29:34	0	0	3,163532	0,12525	276,4404	-0,079	87,639	0	1017,6	6,4	8,6	8,3	1	1	1	1	1	1	1	1	1	0	1	-7,82241	273,762683	310,656039	0
15.01.2021	23:29:35	0	0	3,389498	0,07875	273,9528	-0,077	87,651	0	1017,46	6,5	8,6	8,3	1	1	1	1	1	1	1	1	1	0	1	-6,976744	273,842033	311,871109	0
15.01.2021	23:29:36	0	0	3,615465	0,09	275,7456	-0,072	87,641	0	1017,56	6,5	8,6	8,3	1	1	1	1	1	1	1	1	1	0	1	-3,735025	273,740699	314,641139	0
15.01.2021	23:29:37	0	0	2,937565	0,08475	278,7984	-0,074	87,64	0	1017,68	6,5	8,6	8,3	1	1	1	1	1	1	1	1	1	0	1	-8,386187	273,679278	309,704328	0
15.01.2021	23:29:38	0	0	4,293365	0,05325	280,9728	-0,078	87,626	0	1017,44	6,5	8,6	8,3	1	1	1	1	1	1	1	1	1	0	1	-7,117689	273,828785	311,668469	0
15.01.2021	23:29:39	0	0	4,858281	0,0765	284,4504	-0,081	87,622	0	1017,48	6,5	8,6	8,3	1	1	1	1	1	1	1	1	1	0	1	-11,06413	273,802317	307,598791	0
15.01.2021	23:29:40	0	0	4,180381	0,09675	288,432	-0,077	87,632	0	1017,24	6,5	8,6	8,3	1	1	1	1	1	1	1	1	1	0	1	-7,258633	273,817017	311,472728	0
15.01.2021	23:29:41	0	0	5,084247	0,10275	291,9348	-0,079	87,639	0	1017,5	6,5	8,6	8,3	1	1	1	1	1	1	1	1	1	0	1	-6,8358	273,817017	311,895561	0
15.01.2021	23:29:42	0	0	3,050548	0,132	292,9572	-0,077	87,639	0	1017,56	6,5	8,6	8,3	1	1	1	1	1	1	1	1	1	0	1	-7,610994	273,84056	311,230002	0
15.01.2021	23:29:43	0	0	2,937565	0,114	291,1212	-0,077	87,646	0	1017,6	6,5	8,6	8,3	1	1	1	1	1	1	1	1	1	0	1	-7,963354	273,707039	310,256246	0
15.01.2021	23:29:44	0	0	4,180381	0,12975	288,8352	-0,085	87,631	0	1017,58	6,5	8,6	8,3	1	1	1	1	1	1	1	1	1	0	1	-8,738548	273,642811	309,182461	0
15.01.2021	23:29:45	0	0	4,293365	0,132	286,6824	-0,077	87,636	0	1017,36	6,5	8,6	8,3	1	1	1	1	1	1	1	1	1	0	1	-9,725159	273,75242	308,70554	0
15.01.2021	23:29:46	0	0	3,954415	0,17025	285,1416	-0,075	87,644	0	1017,76	6,5	8,6	8,3	1	1	1	1	1	1	1	1	1	0	1	-5,073996	273,666142	312,955452	0
15.01.2021	23:29:47	0	0	3,841431	0,1935	285,9588	-0,08	87,64	0	1017,54	6,5	8,5	8,3	1	1	1	1	1	1	1	1	1	0	1	-5,073996	273,680738	313,023308	0
15.01.2021	23:29:48	0	0	2,259666	0,2235	285,588	-0,075	87,627	0	1017,36	6,5	8,6	8,3	1	1	1	1	1	1	1	1	1	0	1	-4,721635	273,650098	313,233244	0
15.01.2021	23:29:49	0	0	3,954415	0,23475	290,016	-0,078	87,632	0	1017,44	6,5	8,6	8,3	1	1	1	1	1	1	1	1	1	0	1	-6,272023	273,771483	312,247381	0
15.01.2021	23:29:50	0	0	4,858281	0,3015	294,7752	-0,079	87,624	0	1017,46	6,5	8,6	8,3	1	1	1	1	1	1	1	1	1	0	1	-5,285412	273,824371	313,480192	0
15.01.2021	23:29:51	0	0	2,485632	0,3465	295,164	-0,081	87,633	0	1017,42	6,5	8,6	8,3	1	1	1	1	1	1	1	1	1	0	1	-5,708245	273,702653	312,490958	0
15.01.2021	23:29:52	0	0	4,406348	0,4035	293,004	-0,08	87,624	0	1017,4	6,5	8,6	8,3	1	1	1	1	1	1	1	1	1	0	1	-4,369274	273,809665	314,327859	0
15.01.2021	23:29:53	0	0	4,971264	0,4335	292,6188	-0,073	87,643	0	1017,62	6,5	8,6	8,3	1	1	1	1	1	1	1	1	1	0	1	-4,721635	273,789096	313,879744	0
15.01.2021	23:29:54	0	0	3,389498	0,459	292,2804	-0,074	87,641	0	1017,5	6,5	8,6	8,3	1	1	1	1	1	1	1	1	1	0	1	-3,805497	273,736305	314,550227	0
15.01.2021	23:29:55	0	0	3,728448	0,47475	289,5876	-0,08	87,64	0	1017,62	6,5	8,6	8,3	1	1	1	1	1	1	1	1	1	0	1	-5,567301	273,8332	313,239416	0
15.01.2021	23:29:56	0	0	2,937565	0,51225	288,8496	-0,077	87,621	0	1017,42	6,5	8,6	8,3	1	1	1	1	1	1	1	1	1	0	1	-8,174771	273,731912	310,160518	0
15.01.2021	23:29:57	0	0	2,711599	0,474	283,2624	-0,076	87,638	0	1017,72	6,5	8,6	8,3	1	1	1	1	1	1	1	1	1	0	1	-7,399577	273,647183	310,541752	0
15.01.2021	23:29:58	0	0	3,954415	0,4755	279,5004	-0,079	87,628	0	1017,48	6,5	8,6	8,3	1	1	1	1	1	1	1	1	1	0	1	-8,879493	273,709964	309,353709	0
15.01.2021	23:29:59	0	0	2,598615	0,453	282,4884	-0,081	87,63	0	1017,62	6,4	8,6	8,3	1	1	1	1	1	1	1	1	1	0	1	-5,778717	273,827313	313,000589	0
15.01.2021	23:30:00	0	0	4,858281	0,41775	291,6	-0,069	87,643	0	1017,62	6,5	8,6	8,3	1	1	1	1	1	1	1	1	1	0	1	-6,8358	273,818487	311,902408	0
15.01.2021	23:30:01	0	0	4,745298	0,37275	300,924	-0,078	87,633	0	1017,58	6,5	8,6	8,3	1	1	1	1	1	1	1	1	1	0	1	-3,382664	273,647183	314,558666	0
15.01.2021	23:30:02	0	0	4,067398	0,35175	305,4096	-0,079	87,612	0	1017,52	6,5	8,6	8,3	1	1	1	1	1	1	1	1	1	0	1	-7,329105	273,731912	311,006184	0
15.01.2021	23:30:03	0	0	3,728448	0,3195	306,846	-0,077	87,62	0	1017,56	6,5	8,5	8,3	1	1	1	1	1	1	1	1	1	0	1	-1,057082	273,666142	316,972366	0
15.01.2021	23:30:04	0	0	4,632314	0,273	307,548	-0,079	87,619	0	1017,46	6,5	8,6	8,3	1	1	1	1	1	1	1	1	1	0	1	-17,688513	273,731912	300,646776	0
15.01.2021	23:30:05	0	0	4,067398	0,26475	303,5484	-0,077	87,613	0	1017,54	6,5	8,6	8,3	1	1	1	1	1	1	1	1	1	0	1	-3,664553	273,667601	314,371678	0
15.01.2021	23:30:06	0	0	4,519331	0,2535	296,1648	-0,077	87,607	0	1017,52	6,5	8,5	8,3	1	1	1	1	1	1	1	1	1	0	1	-8,315715	273,764149	310,169558	0
15.01.2021	23:30:07	0	0	3,615465	0,27825	287,748	-0,076	87,618	0	1017,56	6,5	8,6	8,3	1	1	1	1	1	1	1	1	1	0	1	-6,131078	273,670519	311,91872	0
15.01.2021	23:30:08	0	0	4,858281	0,2655	282,78	-0,072	87,621	0	1017,6	6,5	8,6	8,3	1	1	1	1	1	1	1	1	1	0	1	-5,84919	273,724593	312,452055	0
15.01.2021	23:30:09	0	0	3,954415	0,28875	280,2816	-0,077	87,62	0	1017,64	6,5	8,6	8,3	1	1	1	1	1	1	1	1	1	0	1	-2,255109	273,825842	316,517345	0
15.01.2021	23:30:10	0	0	4,971264	0,321	279,4968	-0,075	87,624	0	1017,6	6,5	8,5	8,3	1	1	1	1	1	1	1	1	1	0	1	-9,866103	273,750955	308,557777	0
15.01.2021	23:30:11	0	0	2,937565	0,28425	281,736	-0,074	87,621	0	1017,48	6,5	8,5	8,3	1	1	1	1	1	1	1	1	1	0	1	-4,580691	273,679278	313,509825	0
15.01.2021	23:30:12	0	0	4,180381	0,28575	288,1692	-0,074	87,626	0	1017,64	6,5	8,6	8,3	1	1	1	1	1	1	1	1	1	0	1	-5,84919	273,821429	312,902715	0
15.01.2021	23:30:13	0	0	5,084247	0,288	295,5564	-0,074	87,611	0	1017,5	6,5	8,6	8,3	1	1	1	1	1	1	1	1	1	0	1	-4,369274	273,767082	314,129649	0
15.01.2021	23:30:14	0	0	2,485632	0,285	302,0328	-0,072	87,601	0	1017,46	6,5	8,5	8,3	1	1	1	1	1	1	1	1	1	0	1	-11,275546	273,818487	307,462662	0
15.01.2021	23:30:15	0	0	4,745298	0,29175	304,3044	-0,077	87,624	0	1017,58	6,5	8,6	8,3	1	1	1	1	1	1	1	1	1	0	1	-5,637773	273,683659	312,473109	0
15.01.2021	23:30:16	0	0	3,954415	0,32775	301,3164	-0,071	87,61	0	1017,54	6,5	8,5	8,3	1	1	1	1	1	1	1	1	1	0	1	-5,496829	273,825842	313,275626	0
15.01.2021	23:30:17	0	0	4,632314	0,3405	295,1424	-0,071	87,621	0	1017,46	6,5	8,5	8,3	1	1	1	1	1	1	1	1	1	0	1	-9,936575	273,794971	308,69215	0
15.01.2021	23:30:18	0	0	3,389498	0,37125	292,6476	-0,078	87,612	0	1017,56	6,5	8,5	8,3	1	1	1	1	1	1	1	1	1	0	1	-4,157858	273,673438	313,90551	0
15.01.2021	23:30:19	0	0	4,632314	0,384	294,7824	-0,077	87,61	0	1017,62	6,5	8,5	8,3	1	1	1	1	1	1	1	1	1	0	1	-7,329105	273,781755	311,238107	0
15.01.2021	23:30:20	0	0	4,519331	0,384	300,204	-0,073	87,6	0	1017,6	6,5	8,6	8,3	1	1	1	1	1	1	1	1	1	0	1	-1,127555	273,680738	316,969749	0
15.01.2021	23:30:21	0	0	4,519331	0,381	301,5576	-0,077	87,624	0	1017,6	6,5	8,5	8,3	1	1	1	1	1	1	1	1	1	0	1	-6,060606	273,680738	312,036697	0
15.01.2021	23:30:22	0	0	2,824582	0,41175	291,4956	-0,075	87,603	0	1017,58	6,5	8,6	8,3	1	1	1	1	1	1	1	1	1	0	1	-9,725159	273,803786	308,944603	0
15.01.2021	23:30:23	0	0	4,971264	0,462	275,4252	-0,073	87,613	0	1017,44	6,5	8,6	8,3	1	1	1	1	1	1	1	1	1	0	1	-0,211416	273,670519	317,838382	0
15.01.2021	23:30:24	0	0	3,050548	0,45525	264,366	-0,075	87,599	0	1017,62	6,5	8,6	8,3	1	1	1	1	1	1	1	1	1	0	1	-7,963354	273,636982	309,93057	0
15.01.2021	23:30:25	0	0	3,841431	0,4695	269,244	-0,072	87,612	0	1017,58	6,5	8,6	8,3	1	1	1	1	1	1	1	1	1	0	1	-8,879493	273,674898	309,190661	0
15.01.2021	23:30:26	0	0	4,745298	0,43125	288,8568	-0,078	87,619	0	1017,7	6,5	8,6	8,3	1	1	1	1	1	1	1	1	1	0	1	-4,721635	273,647183	313,219694	0
15.01.2021	23:30:27	0	0	4,745298	0,40275	306,3528	-0,073	87,621	0	1017,38	6,5	8,6	8,3	1	1	1	1	1	1	1	1	1	0	1	-7,82241	273,733377	310,51969	0
15.01.2021	23:30:28	0	0	3,615465	0,381	314,01	-0,082	87,59	0	1017,46	6,5	8,6	8,3	1	1	1	1	1	1	1	1	1	0	1	-5,708245	273,666142	312,321203	0
15.01.2021	23:30:29	0	0	3,050548	0,3855	312,4512	-0,078	87,602	0	1017,56	6,5	8,6	8,3	1	1	1	1	1	1	1	1	1	0	1	-6,412967	273,708501	311,813434	0
15.01.2021	23:30:30	0	0	3,954415	0,36375	303,9228	-0,075	87,604	0	1017,72	6,5	8,6	8,3	1	1	1	1	1	1	1	1	1	0	1	-8,033827	273,673438	310,029541	0
15.01.2021	23:30:31	0	0	3,841431	0,36	295,6068	-0,076	87,599	0	1017,58	6,5	8,6	8,3	1	1	1	1	1	1	1	1	1	0	1	-3,171247	273,661765	314,837856	0
15.01.2021	23:30:32	0	0	3,728448	0,32025	291,888	-0,075	87,604	0	1017,6	6,5	8,5	8,3	1	1	1	1	1	1	1	1	1	0	1	-7,963354	273,789096	310,638025	0
15.01.2021	23:30:33	0	0	4,293365	0,33975	295,5132	-0,076	87,587	0	1017,5	6,5	8,6	8,3	1	1	1	1	1	1	1	1	1	0	1	-7,82241	273,821429	310,929495	0
15.01.2021	23:30:34	0	0	2,824582	0,318	301,5612	-0,072	87,603	0	1017,46	6,5	8,6	8,3	1	1	1	1	1	1	1	1	1	0	1	-3,664553	273,685119	314,45312	0
15.01.2021	23:30:35	0	0	4,971264	0,4335	308,9124	-0,07	87,607	0	1017,46	6,5	8,6	8,3	1	1	1	1	1	1	1	1	1	0	1	-4,298802	273,834672	314,51477	0
15.01.2021	23:30:36	0	0	4,971264	0,52575	315,522	-0,071	87,61	0	1017,62	6,5	8,6	8,3	1	1	1	1	1	1	1	1	1	0	1	-5,567301	273,683659	312,543581	0
15.01.2021	23:30:37	0	0	3,728448	0,603	310,3272	-0,076	87,595	0	1017,42	6,5	8,6	8,3	1	1	1	1	1	1	1	1	1	0	1	-5,285412	273,651556	312,676243	0
15.01.2021	23:30:38	0	0	2,259666	0,68625	301,644	-0,074	87,61	0	1017,54	6,5	8,6	8,3	1	1	1	1	1	1	1	1	1	0	1	-3,312192	273,667601	314,724039	0
15.01.2021	23:30:39	0	0	5,084247	0,741	309,5748	-0,077	87,602	0	1017,34	6,5	8,5	8,3	1	1	1	1	1	1	1	1	1	0	1	-8,386187	273,814076	310,33148	0
15.01.2021	23:30:40	0	0	4,067398	0,8085	308,0772	-0,071	87,617	0	1017,54	6,5	8,6	8,3	1	1	1	1	1	1	1	1	1	0	1	-4,439746	273,667601	313,596485	0
15.01.2021	23:30:41	0	0	3,502419	0,852	302,0904	-0,072	87,605	0	1017,6	6,5	8,6	8,6	1	1	1	1	1	1	1	1	1	0	1	-6,624383	273,812606	312,086439	0
15.01.2021	23:30:42	0	0	5,084247	0,939	301,6296	-0,075	87,605	0	1017,46	6,5	8,6	8,3	1	1	1	1	1	1	1	1	1	0	1	-5,21494	273,743629	313,174854	0
15.01.2021	23:30:43	0	0	4,971264	0,9825	291,4812	-0,072	87,597	0	1017,58	6,5	8,6	8,3	1	1	1	1	1	1	1	1	1	0	1	-8,80902	273,648641	309,139084	0
15.01.2021	23:30:44	0	0	4,971264	1,002	290,0412	-0,07	87,598	0	1017,5	6,5	8,6	8,3	1	1	1	1	1	1	1	1	1	0	1	-5,285412	273,770016	313,227164	0
15.01.2021	23:30:45	0	0	4,971264	1,0275	308,1348	-0,071	87,609	0	1017,46	6,5	8,5	8,3	1	1	1	1	1	1	1	1	1	0	1	-4,439746	273,819958	314,30531	0
15.01.2021	23:30:46	0	0	3,841431	1,02825	311,0292	-0,071	87,585	0	1017,48	6,5	8,6	8,3	1	1	1	1	1	1	1	1	1	0	1	-6,412967	273,740699	311,963197	0
15.01.2021	23:30:47	0	0	3,728448	1,03425	304,7184	-0,076	87,598	0	1017,5	6,5	8,6	8,3	1	1	1	1	1	1	1	1	1	0	1	-3,100775	273,818487	315,637433	0
15.01.2021	23:30:48	0	0	4,519331	1,0365	309,2328	-0,072	87,615	0	1017,7	6,5	8,6	8,3	1	1	1	1	1	1	1	1	1	0	1	-2,959831	273,682198	315,144262	0
15.01.2021	23:30:49	0	0	3,050548	1,09425	311,0148	-0,076	87,602	0	1017,58	6,4	8,5	8,3	1	1	1	1	1	1	1	1	1	0	1	-4,157858	273,8229	314,600896	0
15.01.2021	23:30:50	0	0	2,598615	1,1355	310,6872	-0,072	87,598	0	1017,56	6,5	8,6	8,3	1	1	1	1	1	1	1	1	1	0	1	-4,651163	273,674898	313,418991	0
15.01.2021	23:30:51	0	0	2,711599	1,17	309,564	-0,053	87,599	0	1017,8	6,5	8,6	8,3	1	1	1	1	1	1	1	1	1	0	1	-6,20155	273,819958	312,543506	0
15.01.2021	23:30:52	0	0	3,728448	1,15275	318,1356	-0,065	87,605	0	1017,54	6,5	8,5	8,3	1	1	1	1	1	1	1	1	1	0	1	-4,510218	273,746559	313,893208	0
15.01.2021	23:30:53	0	0	4,180381	1,101	318,528	-0,073	87,575	0	1017,58	6,5	8,5	8,3	1	1	1	1	1	1	1	1	1	0	1	-4,22833	273,819958	314,516726	0
15.01.2021	23:30:54	0	0	4,632314	1,09125	310,7592	-0,07	87,599	0	1017,54	6,5	8,6	8,3	1	1	1	1	1	1	1	1	1	0	1	-6,342495	273,8229	312,416259	0
15.01.2021	23:30:55	0	0	4,293365	1,12875	308,0664	-0,072	87,593	0	1017,44	6,5	8,6	8,3	1	1	1	1	1	1	1	1	1	0	1	-4,298802	273,68658	313,825661	0
15.01.2021	23:30:56	0	0	3,954415	1,1685	311,4504	-0,069	87,592	0	1017,5	6,5	8,5	8,3	1	1	1	1	1	1	1	1	1	0	1	-6,906272	273,811135	311,797705	0
15.01.2021	23:30:57	0	0	2,937565	1,19925	309,51	-0,07	87,581	0	1017,74	6,5	8,6	8,3	1	1	1	1	1	1	1	1	1	0	1	-5,567301	273,75242	312,863398	0
15.01.2021	23:30:58	0	0	3,502482	1,2255	306,2808	-0,07	87,587	0	1017,62	6,5	8,6	8,3	1	1	1	1	1	1	1	1	1	0	1	-5,21494	273,79644	313,420623	0
15.01.2021	23:30:59	0	0	3,728448	1,254	309,5244	-0,072	87,584	0	1017,64	6,5	8,5	8,3	1	1	1	1	1	1	1	1	1	0	1	-8,949965	273,682198	309,154128	0
15.01.2021	23:31:00	0	0	3,615465	1,2615	305,0496	-0,069	87,597	0	1017,58	6,5	8,6	8,3	1	1	1	1	1	1	1	1	1	0	1	-4,862579	273,806726	313,820867	0
15.01.2021	23:31:01	0	0	4,180381	1,25025	311,3964	-0,071	87,6	0	1017,66	6,5	8,5	8,3	1	1	1	1	1	1	1	1	1	0	1	-6,20155	273,695345	311,963671	0
15.01.2021	23:31:02	0	0	2,485632	1,24275	306,1728	-0,077	87,585	0	1017,52	6,5	8,6	8,3	1	1	1	1	1	1	1	1	1	0	1	-7,329105	273,819958	311,415951	0
15.01.2021	23:31:03	0	0	3,050548	1,20525	314,424	-0,071	87,589	0	1017,62	6,5	8,6	8,3	1	1	1	1	1	1	1	1	1	0	1	-4,016913	273,756818	314,434246	0
15.01.2021	23:31:04	0	0	3,389498	1,239	314,4348	-0,066	87,588	0	1017,54	6,4	8,5	8,3	1	1	1	1	1	1	1	1	1	0	1	-7,892882	273,814076	310,824785	0
15.01.2021	23:31:05	0	0	5,197231	1,27275	311,7276	-0,072	87,581	0	1017,56	6,5	8,5	8,3	1	1	1	1	1	1	1	1	1	0	1	-3,59408	273,764149	314,891193	0
15.01.2021	23:31:06	0	0	4,067398	1,27575	306,378	-0,071	87,581	0	1017,54	6,5	8,5	8,3	1	1	1	1	1	1	1	1	1	0	1	-2,536998	273,634069	315,343388	0
15.01.2021	23:31:07	0	0	3,163532	1,311	304,6608	-0,074	87,573	0	1017,48	6,5	8,6	8,3	1	1	1	1	1	1	1	1	1	0	1	-10,500352	273,685119	307,61732	0
15.01.2021	23:31:08	0	0	4,745298	1,27575	308,2608	-0,071	87,577	0	1017,46	6,5	8,6	8,3	1	1	1	1	1	1	1	1	1	0	1	-8,245243	273,780288	310,315137	0
15.01.2021	23:31:09	0	0	2,598615	1,215	291,8052	-0,067	87,571	0	1017,68	6,5	8,6	8,3	1	1	1	1	1	1	1	1	1	0	1	-4,651163	273,806726	314,032283	0
15.01.2021	23:31:10	0	0	3,389498	1,1955	299,0376	-0,077	87,57	0	1017,64	6,4	8,6	8,3	1	1	1	1	1	1	1	1	1	0	1	-3,382664	273,698268	314,796148	0
15.01.2021	23:31:11	0	0	4,406348	1,173	308,0952	-0,072	87,568	0	1017,46	6,5	8,6	8,3	1	1	1	1	1	1	1	1	1	0	1	-2,677942	273,639896	315,229523	0
15.01.2021	23:31:12	0	0	3,276515	1,14675	306,4212	-0,071	87,581	0	1017,54	6,4	8,6	8,3	1	1	1	1	1	1	1	1	1	0	1	-7,117689	273,742164	311,26529	0
15.01.2021	23:31:13	0	0	4,745298	1,104	307,1448	-0,071	87,553	0	1017,58	6,5	8,5	8,3	1	1	1	1	1	1	1	1	1	0	1	-7,470049	273,636982	310,423875	0
15.01.2021	23:31:14	0	0	4,180381	1,0875	306,522	-0,066	87,572	0	1017,66	6,5	8,5	8,3	1	1	1	1	1	1	1	1	1	0	1	-6,060606	273,762683	312,417843	0
15.01.2021	23:31:15	0	0	3,615465	1,07775	305,0028	-0,074	87,55	0	1017,54	6,5	8,6	8,3	1	1	1	1	1	1	1	1	1	0	1	-5,355884	273,809665	313,341248	0
15.01.2021	23:31:16	0	0	4,519331	1,05075	304,272	-0,068	87,557	0	1017,54	6,5	8,6	8,3	1	1	1	1	1	1	1	1	1	0	1	-10,218464	273,671979	307,838119	0
15.01.2021	23:31:17	0	0	2,711599	1,0395	302,8392	-0,066	87,566	0	1017,58	6,5	8,5	8,3	1	1	1	1	1	1	1	1	1	0	1	-4,580691	273,674898	313,489463	0
15.01.2021	23:31:18	0	0	3,615465	1,06725	297,522	-0,068	87,551	0	1017,62	6,5	8,5	8,3	1	1	1	1	1	1	1	1	1	0	1	-3,875969	273,655931	314,106018	0
15.01.2021	23:31:19	0	0	2,485632	1,0515	299,862	-0,069	87,568	0	1017,6	6,4	8,6	8,3	1	1	1	1	1	1	1	1	1	0	1	-10,077519	273,818487	308,660689	0
15.01.2021	23:31:20	0	0	3,728448	1,01775	304,308	-0,067	87,565	0	1017,6	6,5	8,5	8,3	1	1	1	1	1	1	1	1	1	0	1	-5,84919	273,762683	312,62926	0
15.01.2021	23:31:21	0	0	3,502482	1,03425	305,7084	-0,068	87,563	0	1017,48	6,4	8,5	8,3	1	1	1	1	1	1	1	1	1	0	1	-1,268499	273,638439	316,632196	0
15.01.2021	23:31:22	0	0	4,406348	1,03725	305,7012	-0,072	87,565	0	1017,56	6,5	8,6	8,3	1	1	1	1	1	1	1	1	1	0	1	-5,144468	273,746559	313,258958	0
15.01.2021	23:31:23	0	0	3,502482	1,0155	308,0952	-0,064	87,56	0	1017,62	6,5	8,5	8,3	1	1	1	1	1	1	1	1	1	0	1	-8,45666	273,638439	309,444035	0
15.01.2021	23:31:24	0	0	2,485632	1,026	303,5412	-0,07	87,547	0	1017,64	6,5	8,5	8,3	1	1	1	1	1	1	1	1	1	0	1	-3,875969	273,683659	314,234913	0
15.01.2021	23:31:25	0	0	2,485632	1,02675	297,9612	-0,075	87,557	0	1017,56	6,5	8,6	8,3	1	1	1	1	1	1	1	1	1	0	1	-4,933051	273,676358	313,143889	0
15.01.2021	23:31:26	0	0	2,937565	1,00275	300,4344	-0,07	87,574	0	1017,62	6,5	8,5	8,3	1	1	1	1	1	1	1	1	1	0	1	-10,218464	273,792033	308,396587	0
15.01.2021	23:31:27	0	0	3,389498	0,957	296,0928	-0,071	87,543	0	1017,54	6,4	8,6	8,3	1	1	1	1	1	1	1	1	1	0	1	-7,258633	273,674898	310,811521	0
15.01.2021	23:31:28	0	0	2,937565	0,94125	295,1352	-0,067	87,548	0	1017,52	6,5	8,6	8,3	1	1	1	1	1	1	1	1	1	0	1	-6,765328	273,797909	311,877074	0
15.01.2021	23:31:29	0	0	4,067398	0,9525	297,5148	-0,071	87,531	0	1017,28	6,5	8,6	8,3	1	1	1	1	1	1	1	1	1	0	1	-5,285412	273,655931	312,696574	0
15.01.2021	23:31:30	0	0	3,163532	0,9435	297,2484	-0,065	87,556	0	1017,74	6,5	8,6	8,3	1	1	1	1	1	1	1	1	1	0	1	-5,990134	273,77882	312,563415	0
15.01.2021	23:31:31	0	0	4,858281	0,95325	295,2144	-0,076	87,544	0	1017,5	6,5	8,5	8,3	1	1	1	1	1	1	1	1	1	0	1	-6,412967	273,799378	312,236274	0
15.01.2021	23:31:32	0	0	5,084247	0,95475	297,882	-0,072	87,55	0	1017,52	6,5	8,6	8,3	1	1	1	1	1	1	1	1	1	0	1	-6,765328	273,731912	311,569962	0
15.01.2021	23:31:33	0	0	4,519331	0,97575	303,516	-0,067	87,553	0	1017,62	6,5	8,6	8,3	1	1	1	1	1	1	1	1	1	0	1	-8,949965	273,811135	309,754012	0
15.01.2021	23:31:34	0	0	3,276515	0,98475	301,2444	-0,07	87,542	0	1017,54	6,5	8,6	8,3	1	1	1	1	1	1	1	1	1	0	1	-7,047216	273,78616	311,540494	0
15.01.2021	23:31:35	0	0	3,728448	0,975	296,46	-0,072	87,548	0	1017,5	6,5	8,5	8,3	1	1	1	1	1	1	1	1	1	0	1	-7,258633	273,818487	311,479575	0
15.01.2021	23:31:36	0	0	4,293365	0,984	306,1512	-0,07	87,547	0	1017,5	6,5	8,6	8,3	1	1	1	1	1	1	1	1	1	0	1	-6,412967	273,705577	311,799834	0
15.01.2021	23:31:37	0	0	3,615465	0,9645	306,4284	-0,069	87,537	0	1017,68	6,5	8,5	8,3	1	1	1	1	1	1	1	1	1	0	1	-3,24172	273,626787	314,60483	0
15.01.2021	23:31:38	0	0	2,824582	0,9075	311,5008	-0,073	87,534	0	1017,6	6,5	8,6	8,3	1	1	1	1	1	1	1	1	1	0	1	-7,82241	273,812606	310,888412	0
15.01.2021	23:31:39	0	0	3,841431	0,843	314,4528	-0,067	87,538	0	1017,48	6,5	8,6	8,3	1	1	1	1	1	1	1	1	1	0	1	-10,359408	273,78616	308,228302	0
15.01.2021	23:31:40	0	0	3,615465	0,87225	309,2328	-0,068	87,534	0	1017,48	6,5	8,5	8,3	1	1	1	1	1	1	1	1	1	0	1	-8,245243	273,812606	310,465579	0
15.01.2021	23:31:41	0	0	4,632314	0,927	300,9312	-0,068	87,538	0	1017,52	6,5	8,6	8,3	1	1	1	1	1	1	1	1	1	0	1	-8,315715	273,711426	309,924288	0
15.01.2021	23:31:42	0	0	4,745298	0,9675	299,754	-0,068	87,532	0	1017,3	6,5	8,6	8,3	1	1	1	1	1	1	1	1	1	0	1	-4,792107	273,634069	313,088279	0
15.01.2021	23:31:43	0	0	2,937565	0,98775	299,376	-0,071	87,521	0	1017,48	6,5	8,5	8,3	1	1	1	1	1	1	1	1	1	0	1	-6,624383	273,698268	311,554429	0
15.01.2021	23:31:44	0	0	2,937565	1,06275	307,17	-0,069	87,527	0	1017,48	6,5	8,6	8,3	1	1	1	1	1	1	1	1	1	0	1	-10,007047	273,815546	308,717467	0
15.01.2021	23:31:45	0	0	4,745298	1,07325	309,2832	-0,069	87,521	0	1017,44	6,5	8,6	8,3	1	1	1	1	1	1	1	1	1	0	1	-3,664553	273,733377	314,677548	0
15.01.2021	23:31:46	0	0	4,971264	1,07175	316,2636	-0,065	87,515	0	1017,66	6,5	8,5	8,3	1	1	1	1	1	1	1	1	1	0	1	-4,298802	273,651556	313,662853	0
15.01.2021	23:31:47	0	0	3,954415	1,06425	309,222	-0,063	87,515	0	1017,6	6,4	8,6	8,3	1	1	1	1	1	1	1	1	1	0	1	-2,677942	273,69973	315,507667	0
15.01.2021	23:31:48	0	0	3,389498	1,053	298,3104	-0,068	87,516	0	1017,4	6,5	8,6	8,3	1	1	1	1	1	1	1	1	1	0	1	-4,369274	273,638439	313,531421	0
15.01.2021	23:31:49	0	0	2,598615	1,01775	296,4384	-0,069	87,519	0	1017,76	6,5	8,5	8,3	1	1	1	1	1	1	1	1	1	0	1	-5,355884	273,750955	313,067995	0
15.01.2021	23:31:50	0	0	2,146682	0,987	294,0444	-0,076	87,523	0	1017,48	6,5	8,6	8,3	1	1	1	1	1	1	1	1	1	0	1	-8,315715	273,819958	310,429341	0
15.01.2021	23:31:51	0	0	3,615465	0,90975	290,4444	-0,074	87,508	0	1017,26	6,5	8,5	8,3	1	1	1	1	1	1	1	1	1	0	1	-5,708245	273,664683	312,314421	0
15.01.2021	23:31:52	0	0	4,293365	0,873	283,158	-0,075	87,517	0	1017,52	6,4	8,6	8,3	1	1	1	1	1	1	1	1	1	0	1	-4,580691	273,790565	314,027524	0
15.01.2021	23:31:53	0	0	3,954415	0,87525	288,0828	-0,074	87,495	0	1017,62	6,5	8,5	8,3	1	1	1	1	1	1	1	1	1	0	1	-6,765328	273,728984	311,556342	0
15.01.2021	23:31:54	0	0	4,519331	0,94125	296,1612	-0,069	87,506	0	1017,7	6,5	8,5	8,3	1	1	1	1	1	1	1	1	1	0	1	-7,188161	273,818487	311,550047	0
15.01.2021	23:31:55	0	0	4,858281	0,9885	290,8008	-0,074	87,495	0	1017,6	6,5	8,6	8,3	1	1	1	1	1	1	1	1	1	0	1	-6,765328	273,761216	311,706298	0
15.01.2021	23:31:56	0	0	2,598615	1,00425	292,6332	-0,073	87,501	0	1017,52	6,5	8,6	8,3	1	1	1	1	1	1	1	1	1	0	1	-3,664553	273,651556	314,297103	0
15.01.2021	23:31:57	0	0	3,728448	1,011	288,1368	-0,068	87,508	0	1017,48	6,5	8,6	8,3	1	1	1	1	1	1	1	1	1	0	1	-6,412967	273,762683	312,065483	0
15.01.2021	23:31:58	0	0	3,728448	1,0035	284,7924	-0,074	87,499	0	1017,48	6,5	8,5	8,3	1	1	1	1	1	1	1	1	1	0	1	-7,188161	273,819958	311,556895	0
15.01.2021	23:31:59	0	0	4,067398	0,95625	290,016	-0,069	87,502	0	1017,56	6,5	8,5	8,3	1	1	1	1	1	1	1	1	1	0	1	-5,073996	273,783223	313,500048	0
15.01.2021	23:32:00	0	0	5,197231	0,924	298,8072	-0,071	87,502	0	1017,54	6,5	8,6	8,3	1	1	1	1	1	1	1	1	1	0	1	-5,84919	273,814076	312,868478	0
15.01.2021	23:32:01	0	0	3,502482	0,9255	298,7172	-0,063	87,496	0	1017,66	6,5	8,6	8,3	1	1	1	1	1	1	1	1	1	0	1	-5,496829	273,696807	312,675188	0
15.01.2021	23:32:02	0	0	4,180381	0,86775	293,8068	-0,072	87,5	0	1017,72	6,5	8,5	8,3	1	1	1	1	1	1	1	1	1	0	1	-3,875969	273,803786	314,793793	0
15.01.2021	23:32:03	0	0	3,389498	0,85275	302,4936	-0,065	87,503	0	1017,52	6,5	8,5	8,3	1	1	1	1	1	1	1	1	1	0	1	-7,047216	273,707039	311,172384	0
15.01.2021	23:32:04	0	0	4,293365	0,846	314,4744	-0,072	87,488	0	1017,58	6,5	8,5	8,3	1	1	1	1	1	1	1	1	1	0	1	-4,510218	273,799378	314,139022	0
15.01.2021	23:32:05	0	0	3,728448	0,822	314,3448	-0,072	87,493	0	1017,54	6,5	8,5	8,3	1	1	1	1	1	1	1	1	1	0	1	-6,976744	273,764149	311,508529	0
15.01.2021	23:32:06	0	0	5,197137	0,80325	314,046	-0,069	87,485	0	1017,6	6,5	8,5	8,6	1	1	1	1	1	1	1	1	1	0	1	-5,84919	273,768549	312,65656	0
15.01.2021	23:32:07	0	0	2,711599	0,76275	314,5068	-0,076	87,483	0	1017,48	6,5	8,5	8,3	1	1	1	1	1	1	1	1	1	0	1	-7,892882	273,814076	310,824785	0
15.01.2021	23:32:08	0	0	3,615465	0,74325	315,8892	-0,075	87,483	0	1017,6	6,5	8,5	8,3	1	1	1	1	1	1	1	1	1	0	1	-7,963354	273,707039	310,256246	0
15.01.2021	23:32:09	0	0	4,180381	0,72525	316,2816	-0,072	87,473	0	1017,46	6,5	8,6	8,3	1	1	1	1	1	1	1	1	1	0	1	-8,245243	273,814076	310,472424	0
15.01.2021	23:32:10	0	0	4,858281	0,732	306,486	-0,067	87,483	0	1017,6	6,5	8,6	8,3	1	1	1	1	1	1	1	1	1	0	1	-5,637773	273,68804	312,493482	0
15.01.2021	23:32:11	0	0	3,728448	0,6975	301,5936	-0,073	87,479	0	1017,34	6,5	8,5	8,3	1	1	1	1	1	1	1	1	1	0	1	-2,889359	273,642811	315,031651	0
15.01.2021	23:32:12	0	0	2,711599	0,70275	311,0256	-0,07	87,484	0	1017,52	6,5	8,5	8,3	1	1	1	1	1	1	1	1	1	0	1	-4,651163	273,724593	313,650082	0
15.01.2021	23:32:13	0	0	4,067398	0,70575	309,9024	-0,072	87,486	0	1017,54	6,5	8,5	8,3	1	1	1	1	1	1	1	1	1	0	1	-8,033827	273,825842	310,738628	0
15.01.2021	23:32:14	0	0	3,389498	0,68625	299,0844	-0,068	87,48	0	1017,52	6,5	8,5	8,3	1	1	1	1	1	1	1	1	1	0	1	-3,946441	273,780288	314,613939	0
15.01.2021	23:32:15	0	0	4,180381	0,6855	296,46	-0,074	87,482	0	1017,52	6,5	8,5	8,3	1	1	1	1	1	1	1	1	1	0	1	-4,933051	273,645725	313,001504	0
15.01.2021	23:32:16	0	0	5,084247	0,73875	301,752	-0,076	87,474	0	1017,64	6,5	8,5	8,3	1	1	1	1	1	1	1	1	1	0	1	-7,117689	273,775885	311,4222	0
15.01.2021	23:32:17	0	0	4,858281	0,7185	304,236	-0,071	87,464	0	1017,54	6,5	8,6	8,3	1	1	1	1	1	1	1	1	1	0	1	-2,184637	273,641353	315,7296	0
15.01.2021	23:32:18	0	0	2,937565	0,7275	298,6164	-0,068	87,475	0	1017,46	6,4	8,6	8,3	1	1	1	1	1	1	1	1	1	0	1	-6,624383	273,742164	311,758595	0
15.01.2021	23:32:19	0	0	3,615465	0,7095	303,2244	-0,075	87,481	0	1017,62	6,5	8,6	8,3	1	1	1	1	1	1	1	1	1	0	1	-5,003524	273,815546	313,72099	0
15.01.2021	23:32:20	0	0	4,519331	0,7065	313,2576	-0,074	87,467	0	1017,56	6,4	8,5	8,3	1	1	1	1	1	1	1	1	1	0	1	-4,933051	273,709964	313,30015	0
15.01.2021	23:32:21	0	0	3,276515	0,69	317,7288	-0,073	87,477	0	1017,54	6,5	8,5	8,3	1	1	1	1	1	1	1	1	1	0	1	-5,285412	273,639896	312,622053	0
15.01.2021	23:32:22	0	0	3,502482	0,7485	311,022	-0,071	87,464	0	1017,6	6,5	8,5	8,3	1	1	1	1	1	1	1	1	1	0	1	-6,483439	273,71874	311,790581	0
15.01.2021	23:32:23	0	0	3,389498	0,786	307,6344	-0,071	87,455	0	1017,56	6,5	8,5	8,3	1	1	1	1	1	1	1	1	1	0	1	-1,832276	273,671979	316,224307	0
15.01.2021	23:32:24	0	0	3,276515	0,822	308,6424	-0,073	87,477	0	1017,58	6,5	8,5	8,3	1	1	1	1	1	1	1	1	1	0	1	-5,144468	273,787628	313,450077	0
15.01.2021	23:32:25	0	0	3,954415	0,888	310,6764	-0,071	87,471	0	1017,6	6,5	8,5	8,3	1	1	1	1	1	1	1	1	1	0	1	-7,82241	273,671979	310,234173	0
15.01.2021	23:32:26	0	0	4,745298	0,90975	310,2948	-0,075	87,477	0	1017,56	6,5	8,5	8,3	1	1	1	1	1	1	1	1	1	0	1	-7,188161	273,641353	310,726076	0
15.01.2021	23:32:27	0	0	5,197231	0,9345	310,446	-0,073	87,458	0	1017,6	6,5	8,5	8,3	1	1	1	1	1	1	1	1	1	0	1	-9,090909	273,756818	309,36025	0
15.01.2021	23:32:28	0	0	2,259666	0,945	313,218	-0,072	87,454	0	1017,62	6,4	8,5	8,3	1	1	1	1	1	1	1	1	1	0	1	-6,483439	273,639896	311,424027	0
15.01.2021	23:32:29	0	0	3,389498	0,95625	312,1524	-0,074	87,471	0	1017,46	6,5	8,5	8,3	1	1	1	1	1	1	1	1	1	0	1	-6,906272	273,746559	311,497154	0
15.01.2021	23:32:30	0	0	3,615465	0,9765	309,4488	-0,076	87,475	0	1017,58	6,5	8,5	8,3	1	1	1	1	1	1	1	1	1	0	1	-4,439746	273,622419	313,386509	0
15.01.2021	23:32:31	0	0	4,406348	0,9435	313,6464	-0,074	87,482	0	1017,58	6,5	8,5	8,3	1	1	1	1	1	1	1	1	1	0	1	-5,567301	273,765616	312,924797	0
15.01.2021	23:32:32	0	0	2,598615	0,96375	304,6428	-0,072	87,464	0	1017,7	6,5	8,5	8,3	1	1	1	1	1	1	1	1	1	0	1	-5,355884	273,634069	312,524501	0
15.01.2021	23:32:33	0	0	2,259666	0,94275	300,474	-0,066	87,467	0	1017,56	6,4	8,5	8,3	1	1	1	1	1	1	1	1	1	0	1	-3,735025	273,764149	314,750249	0
15.01.2021	23:32:34	0	0	2,711599	0,89625	303,2532	-0,075	87,47	0	1017,58	6,5	8,5	8,3	1	1	1	1	1	1	1	1	1	0	1	-7,963354	273,644268	309,964428	0
15.01.2021	23:32:35	0	0	3,615465	0,90525	307,2312	-0,074	87,458	0	1017,54	6,5	8,6	8,3	1	1	1	1	1	1	1	1	1	0	1	-7,329105	273,758284	311,128876	0
15.01.2021	23:32:36	0	0	2,485632	0,822	310,7916	-0,075	87,454	0	1017,62	6,5	8,5	8,3	1	1	1	1	1	1	1	1	1	0	1	-4,298802	273,674898	313,771352	0
15.01.2021	23:32:37	0	0	4,858281	0,8235	308,0916	-0,073	87,459	0	1017,68	6,5	8,5	8,3	1	1	1	1	1	1	1	1	1	0	1	-8,45666	273,642811	309,46435	0
15.01.2021	23:32:38	0	0	4,858281	0,831	300,4704	-0,073	87,457	0	1017,48	6,5	8,6	8,3	1	1	1	1	1	1	1	1	1	0	1	-8,315715	273,682198	309,788377	0
15.01.2021	23:32:39	0	0	2,485632	0,86025	298,2924	-0,076	87,447	0	1017,56	6,5	8,5	8,3	1	1	1	1	1	1	1	1	1	0	1	-6,412967	273,648641	311,535137	0
15.01.2021	23:32:40	0	0	4,858281	0,79725	304,9308	-0,075	87,509	0	1017,66	6,5	8,6	8,3	1	1	1	1	1	1	1	1	1	0	1	-6,060606	273,682198	312,043486	0
15.01.2021	23:32:41	0	0	2,824582	0,7575	318,456	-0,074	87,455	0	1017,6	6,5	8,6	8,3	1	1	1	1	1	1	1	1	1	0	1	-3,100775	273,655931	314,881211	0
15.01.2021	23:32:42	0	0	2,372649	0,74325	312,8184	-0,079	87,456	0	1017,44	6,5	8,5	8,3	1	1	1	1	1	1	1	1	1	0	1	-9,020437	273,690962	309,124402	0
15.01.2021	23:32:43	0	0	3,841431	0,78525	300,8304	-0,067	87,46	0	1017,6	6,5	8,5	8,3	1	1	1	1	1	1	1	1	1	0	1	-5,567301	273,8229	313,191453	0
15.01.2021	23:32:44	0	0	4,858281	0,81075	302,4864	-0,071	87,453	0	1017,52	6,5	8,6	8,3	1	1	1	1	1	1	1	1	1	0	1	-8,104299	273,698268	310,074513	0
15.01.2021	23:32:45	0	0	4,745298	0,8415	314,4492	-0,074	87,453	0	1017,52	6,5	8,5	8,3	1	1	1	1	1	1	1	1	1	0	1	-3,805497	273,831728	314,994367	0
15.01.2021	23:32:46	0	0	2,824582	0,885	322,596	-0,076	87,448	0	1017,44	6,5	8,5	8,3	1	1	1	1	1	1	1	1	1	0	1	-6,20155	273,748024	312,208693	0
15.01.2021	23:32:47	0	0	4,51925	0,861	319,1832	-0,074	87,458	0	1017,6	6,5	8,5	8,6	1	1	1	1	1	1	1	1	1	0	1	-6,060606	273,639896	311,84686	0
15.01.2021	23:32:48	0	0	2,711599	0,8205	318,5028	-0,071	87,449	0	1017,44	6,5	8,5	8,3	1	1	1	1	1	1	1	1	1	0	1	-1,691332	273,748024	316,718911	0
15.01.2021	23:32:49	0	0	3,050548	0,792	318,4344	-0,072	87,453	0	1017,68	6,5	8,6	8,3	1	1	1	1	1	1	1	1	1	0	1	-7,329105	273,642811	310,591904	0
15.01.2021	23:32:50	0	0	4,745298	0,738	317,7792	-0,079	87,439	0	1017,32	6,5	8,5	8,3	1	1	1	1	1	1	1	1	1	0	1	-3,664553	273,767082	314,834371	0
15.01.2021	23:32:51	0	0	4,406348	0,6705	316,368	-0,076	87,445	0	1017,5	6,5	8,6	8,3	1	1	1	1	1	1	1	1	1	0	1	-6,131078	273,792033	312,483973	0
15.01.2021	23:32:52	0	0	4,745298	0,64125	313,1964	-0,074	87,447	0	1017,62	6,5	8,5	8,3	1	1	1	1	1	1	1	1	1	0	1	-6,8358	273,647183	311,10553	0
15.01.2021	23:32:53	0	0	2,937565	0,61425	313,2432	-0,078	87,433	0	1017,58	6,5	8,5	8,3	1	1	1	1	1	1	1	1	1	0	1	-4,580691	273,673438	313,482677	0
15.01.2021	23:32:54	0	0	2,711566	0,61875	315,5112	-0,07	87,456	0	1017,4	6,5	8,5	8,5	1	1	1	1	1	1	1	1	1	0	1	-1,550388	273,765616	316,941711	0
15.01.2021	23:32:55	0	0	4,858281	0,64725	316,2456	-0,074	87,452	0	1017,62	6,5	8,5	8,3	1	1	1	1	1	1	1	1	1	0	1	-11,698379	273,824371	307,067225	0
15.01.2021	23:32:56	0	0	4,293365	0,63825	314,0064	-0,083	87,435	0	1017,34	6,5	8,5	8,3	1	1	1	1	1	1	1	1	1	0	1	-6,20155	273,634069	311,678835	0
15.01.2021	23:32:57	0	0	4,406348	0,6315	315,4968	-0,08	87,46	0	1017,56	6,5	8,5	8,3	1	1	1	1	1	1	1	1	1	0	1	-4,721635	273,783223	313,852409	0
15.01.2021	23:32:58	0	0	4,519331	0,60825	316,2996	-0,076	87,458	0	1017,58	6,5	8,5	8,3	1	1	1	1	1	1	1	1	1	0	1	-6,694856	273,679278	311,39566	0
15.01.2021	23:32:59	0	0	4,745298	0,63675	315,4932	-0,077	87,442	0	1017,62	6,5	8,5	8,3	1	1	1	1	1	1	1	1	1	0	1	-6,342495	273,828785	312,443663	0
15.01.2021	23:33:00	0	0	4,180381	0,62625	325,5552	-0,077	87,459	0	1017,7	6,5	8,6	8,3	1	1	1	1	1	1	1	1	1	0	1	-3,735025	273,671979	314,321558	0
15.01.2021	23:33:01	0	0	4,180381	0,62625	325,5552	-0,077	87,459	0	1017,7	6,5	8,6	8,3	1	1	1	1	1	1	1	1	1	0	1	-5,073996	273,71874	313,200024	0
15.01.2021	23:33:02	0	0	4,858281	0,64125	320,778	-0,076	87,451	0	1017,6	6,5	8,5	8,3	1	1	1	1	1	1	1	1	1	0	1	-4,510218	273,815546	314,214295	0
15.01.2021	23:33:03	0	0	3,050548	0,63675	315,1836	-0,081	87,433	0	1017,58	6,5	8,5	8,3	1	1	1	1	1	1	1	1	1	0	1	-2,959831	273,799378	315,68941	0
15.01.2021	23:33:04	0	0	4,858281	0,6405	315,5184	-0,081	87,428	0	1017,46	6,5	8,5	8,3	1	1	1	1	1	1	1	1	1	0	1	-10,007047	273,77882	308,546502	0
15.01.2021	23:33:05	0	0	3,163532	0,6285	324,396	-0,075	87,434	0	1017,52	6,5	8,5	8,3	1	1	1	1	1	1	1	1	1	0	1	-7,470049	273,761216	311,001577	0
15.01.2021	23:33:06	0	0	2,372649	0,6045	334,9764	-0,078	87,444	0	1017,58	6,5	8,6	8,3	1	1	1	1	1	1	1	1	1	0	1	-4,016913	273,674898	314,053241	0
15.01.2021	23:33:07	0	0	4,632314	0,6135	339,462	-0,079	87,447	0	1017,54	6,5	8,5	8,3	1	1	1	1	1	1	1	1	1	0	1	-5,426357	273,653014	312,542075	0
15.01.2021	23:33:08	0	0	3,728448	0,6255	336,0924	-0,085	87,44	0	1017,48	6,5	8,5	8,3	1	1	1	1	1	1	1	1	1	0	1	-6,553911	273,644268	311,373871	0
15.01.2021	23:33:09	0	0	2,824582	0,63	332,3592	-0,081	87,426	0	1017,72	6,5	8,5	8,3	1	1	1	1	1	1	1	1	1	0	1	-8,80902	273,761216	309,662606	0
15.01.2021	23:33:10	0	0	2,598615	0,69	333,0864	-0,082	87,435	0	1017,52	6,5	8,5	8,3	1	1	1	1	1	1	1	1	1	0	1	-4,298802	273,641353	313,615435	0
15.01.2021	23:33:11	0	0	2,598569	0,705	333,1044	-0,077	87,444	0	1017,46	6,5	8,5	8,6	1	1	1	1	1	1	1	1	1	0	1	-5,919662	273,689501	312,218385	0
15.01.2021	23:33:12	0	0	3,728448	0,67575	332,3628	-0,076	87,437	0	1017,54	6,5	8,6	8,3	1	1	1	1	1	1	1	1	1	0	1	-7,892882	273,78616	310,694828	0
15.01.2021	23:33:13	0	0	4,858281	0,70275	330,7608	-0,077	87,45	0	1017,54	6,5	8,5	8,3	1	1	1	1	1	1	1	1	1	0	1	-4,933051	273,8229	313,825703	0
15.01.2021	23:33:14	0	0	3,050548	0,72075	328,1976	-0,081	87,449	0	1017,44	6,5	8,6	8,3	1	1	1	1	1	1	1	1	1	0	1	-9,231853	273,71874	309,042166	0
15.01.2021	23:33:15	0	0	4,406348	0,75225	327,0528	-0,083	87,446	0	1017,54	6,5	8,6	8,3	1	1	1	1	1	1	1	1	1	0	1	-4,862579	273,818487	313,875629	0
15.01.2021	23:33:16	0	0	2,598615	0,7725	325,566	-0,076	87,442	0	1017,56	6,5	8,6	8,3	1	1	1	1	1	1	1	1	1	0	1	-9,936575	273,758284	308,521406	0
15.01.2021	23:33:17	0	0	3,728448	0,79725	324,162	-0,08	87,424	0	1017,52	6,5	8,6	8,3	1	1	1	1	1	1	1	1	1	0	1	-9,302326	273,642811	308,618684	0
15.01.2021	23:33:18	0	0	4,745212	0,8025	326,412	-0,083	87,435	0	1017,56	6,5	8,6	8,6	1	1	1	1	1	1	1	1	1	0	1	-7,188161	273,676358	310,88878	0
15.01.2021	23:33:19	0	0	4,293365	0,8895	315,2232	-0,078	87,426	0	1017,66	6,5	8,5	8,3	1	1	1	1	1	1	1	1	1	0	1	-7,892882	273,8332	310,913835	0
15.01.2021	23:33:20	0	0	5,084247	0,94725	315,4752	-0,077	87,44	0	1017,54	6,5	8,6	8,3	1	1	1	1	1	1	1	1	1	0	1	-6,131078	273,775885	312,408811	0
15.01.2021	23:33:21	0	0	3,728448	0,9885	318,1932	-0,08	87,438	0	1017,58	6,5	8,6	8,3	1	1	1	1	1	1	1	1	1	0	1	-3,875969	273,664683	314,146697	0
15.01.2021	23:33:22	0	0	4,293365	0,99	317,0088	-0,079	87,436	0	1017,62	6,5	8,6	8,3	1	1	1	1	1	1	1	1	1	0	1	-12,896406	273,794971	305,732319	0
15.01.2021	23:33:23	0	0	2,937565	1,0485	318,4812	-0,08	87,441	0	1017,64	6,5	8,6	8,3	1	1	1	1	1	1	1	1	1	0	1	-11,134602	273,636982	306,759323	0
15.01.2021	23:33:24	0	0	3,728448	1,098	321,8976	-0,081	87,435	0	1017,48	6,5	8,5	8,3	1	1	1	1	1	1	1	1	1	0	1	-7,188161	273,77295	311,338071	0
15.01.2021	23:33:25	0	0	4,632314	1,11825	324,36	-0,081	87,444	0	1017,64	6,5	8,6	8,3	1	1	1	1	1	1	1	1	1	0	1	-8,033827	273,817017	310,697534	0
15.01.2021	23:33:26	0	0	3,502482	1,09125	322,5204	-0,086	87,43	0	1017,52	6,5	8,5	8,3	1	1	1	1	1	1	1	1	1	0	1	-5,355884	273,78616	313,231826	0
15.01.2021	23:33:27	0	0	4,745298	1,0845	317,6712	-0,083	87,449	0	1017,56	6,5	8,5	8,3	1	1	1	1	1	1	1	1	1	0	1	-2,184637	273,815546	316,539877	0
15.01.2021	23:33:28	0	0	3,502482	1,0515	312,498	-0,077	87,445	0	1017,68	6,5	8,5	8,3	1	1	1	1	1	1	1	1	1	0	1	-6,906272	273,644268	311,02151	0
15.01.2021	23:33:29	0	0	2,711599	0,978	309,9096	-0,082	87,438	0	1017,5	6,5	8,5	8,3	1	1	1	1	1	1	1	1	1	0	1	-13,178295	273,674898	304,891859	0
15.01.2021	23:33:30	0	0	2,711599	0,915	309,9204	-0,081	87,431	0	1017,64	6,5	8,5	8,3	1	1	1	1	1	1	1	1	1	0	1	-5,637773	273,819958	313,107283	0
15.01.2021	23:33:31	0	0	4,180381	0,86625	311,7708	-0,082	87,439	0	1017,5	6,5	8,5	8,3	1	1	1	1	1	1	1	1	1	0	1	-5,84919	273,742164	312,533789	0
15.01.2021	23:33:32	0	0	2,711599	0,86775	317,7288	-0,083	87,442	0	1017,62	6,5	8,5	8,3	1	1	1	1	1	1	1	1	1	0	1	-9,302326	273,634069	308,57806	0
15.01.2021	23:33:33	0	0	4,519331	0,85575	322,6356	-0,084	87,433	0	1017,7	6,5	8,5	8,3	1	1	1	1	1	1	1	1	1	0	1	-5,21494	273,711426	313,025063	0
15.01.2021	23:33:34	0	0	3,276515	0,79275	322,2684	-0,082	87,433	0	1017,58	6,5	8,5	8,3	1	1	1	1	1	1	1	1	1	0	1	-9,020437	273,642811	308,900572	0
15.01.2021	23:33:35	0	0	3,954415	0,81525	319,2012	-0,083	87,435	0	1017,42	6,5	8,5	8,3	1	1	1	1	1	1	1	1	1	0	1	-4,651163	273,771483	313,868241	0
15.01.2021	23:33:36	0	0	3,502482	0,861	321,8724	-0,084	87,439	0	1017,46	6,5	8,5	8,3	1	1	1	1	1	1	1	1	1	0	1	-8,949965	273,749489	309,467096	0
15.01.2021	23:33:37	0	0	3,502482	0,8625	324,3276	-0,086	87,433	0	1017,42	6,5	8,6	8,3	1	1	1	1	1	1	1	1	1	0	1	-8,949965	273,809665	309,747168	0
15.01.2021	23:33:38	0	0	2,937565	0,84975	322,1496	-0,083	87,433	0	1017,54	6,5	8,6	8,3	1	1	1	1	1	1	1	1	1	0	1	-8,527132	273,775885	310,012757	0
15.01.2021	23:33:39	0	0	4,406348	0,8175	322,6356	-0,078	87,45	0	1017,58	6,5	8,6	8,3	1	1	1	1	1	1	1	1	1	0	1	-6,412967	273,812606	312,297855	0
15.01.2021	23:33:40	0	0	3,841431	0,8025	327,708	-0,082	87,452	0	1017,66	6,5	8,5	8,3	1	1	1	1	1	1	1	1	1	0	1	-8,45666	273,740699	309,919504	0
15.01.2021	23:33:41	0	0	4,858281	0,77775	325,53	-0,08	87,433	0	1017,54	6,5	8,6	8,3	1	1	1	1	1	1	1	1	1	0	1	-5,144468	273,622419	312,681788	0
15.01.2021	23:33:42	0	0	2,598615	0,7275	326,7432	-0,083	87,428	0	1017,48	6,5	8,5	8,3	1	1	1	1	1	1	1	1	1	0	1	-6,694856	273,809665	312,002277	0
15.01.2021	23:33:43	0	0	3,615465	0,7365	328,9176	-0,085	87,435	0	1017,54	6,4	8,6	8,3	1	1	1	1	1	1	1	1	1	0	1	-9,725159	273,739234	308,644191	0
15.01.2021	23:33:44	0	0	3,954415	0,75225	325,4652	-0,086	87,428	0	1017,48	6,5	8,6	8,3	1	1	1	1	1	1	1	1	1	0	1	-8,386187	273,8229	310,372567	0
15.01.2021	23:33:45	0	0	4,858281	0,738	323,73	-0,079	87,439	0	1017,52	6,5	8,6	8,3	1	1	1	1	1	1	1	1	1	0	1	-7,610994	273,734841	310,737918	0
15.01.2021	23:33:46	0	0	2,824582	0,74625	320,8032	-0,085	87,446	0	1017,6	6,5	8,6	8,3	1	1	1	1	1	1	1	1	1	0	1	-4,933051	273,818487	313,805157	0
15.01.2021	23:33:47	0	0	4,519331	0,786	316,2528	-0,083	87,445	0	1017,68	6,5	8,5	8,3	1	1	1	1	1	1	1	1	1	0	1	-7,892882	273,756818	310,558277	0
15.01.2021	23:33:48	0	0	2,824582	0,8265	314,496	-0,084	87,437	0	1017,42	6,5	8,5	8,3	1	1	1	1	1	1	1	1	1	0	1	-7,399577	273,635525	310,487578	0
15.01.2021	23:33:49	0	0	4,519331	0,83925	315,18	-0,083	87,425	0	1017,42	6,5	8,6	8,3	1	1	1	1	1	1	1	1	1	0	1	-6,624383	273,671979	311,432199	0
15.01.2021	23:33:50	0	0	3,954415	0,822	324,3636	-0,082	87,445	0	1017,48	6,5	8,6	8,3	1	1	1	1	1	1	1	1	1	0	1	-5,708245	273,799378	312,940995	0
15.01.2021	23:33:51	0	0	4,971264	0,81	330,1128	-0,085	87,439	0	1017,56	6,5	8,5	8,3	1	1	1	1	1	1	1	1	1	0	1	-5,84919	273,75975	312,615614	0
15.01.2021	23:33:52	0	0	3,389498	0,76575	323,694	-0,084	87,439	0	1017,48	6,5	8,5	8,3	1	1	1	1	1	1	1	1	1	0	1	-8,315715	273,650098	309,639164	0
15.01.2021	23:33:53	0	0	3,389498	0,76575	316,2816	-0,086	87,445	0	1017,54	6,5	8,6	8,3	1	1	1	1	1	1	1	1	1	0	1	-6,765328	273,77295	311,760904	0
15.01.2021	23:33:54	0	0	2,711599	0,72675	315,1908	-0,083	87,44	0	1017,44	6,5	8,5	8,3	1	1	1	1	1	1	1	1	1	0	1	-9,090909	273,635525	308,796246	0
15.01.2021	23:33:55	0	0	5,197231	0,64725	319,2552	-0,084	87,435	0	1017,7	6,5	8,6	8,3	1	1	1	1	1	1	1	1	1	0	1	-7,047216	273,768549	311,458533	0
15.01.2021	23:33:56	0	0	4,632314	0,59025	325,1268	-0,083	87,433	0	1017,4	6,5	8,5	8,3	1	1	1	1	1	1	1	1	1	0	1	-6,8358	273,683659	311,275082	0
15.01.2021	23:33:57	0	0	2,711599	0,53925	333,8604	-0,091	87,427	0	1017,44	6,5	8,6	8,3	1	1	1	1	1	1	1	1	1	0	1	-5,919662	273,657389	312,069103	0
15.01.2021	23:33:58	0	0	3,163532	0,5085	341,622	-0,083	87,439	0	1017,54	6,4	8,5	8,3	1	1	1	1	1	1	1	1	1	0	1	-10,500352	273,792033	308,114698	0
15.01.2021	23:33:59	0	0	2,485602	0,49275	343,1736	-0,085	87,442	0	1017,32	6,4	8,5	8,5	1	1	1	1	1	1	1	1	1	0	1	-7,188161	273,635525	310,698994	0
15.01.2021	23:34:00	0	0	3,615465	0,4605	336,33	-0,087	87,433	0	1017,48	6,5	8,5	8,3	1	1	1	1	1	1	1	1	1	0	1	-4,016913	273,664683	314,005753	0
15.01.2021	23:34:01	0	0	3,050548	0,48075	333,1728	-0,081	87,434	0	1017,42	6,5	8,6	8,3	1	1	1	1	1	1	1	1	1	0	1	-6,20155	273,764149	312,283723	0
15.01.2021	23:34:02	0	0	4,971264	0,4515	339,408	-0,081	87,438	0	1017,38	6,5	8,5	8,3	1	1	1	1	1	1	1	1	1	0	1	-4,862579	273,660306	313,139744	0
15.01.2021	23:34:03	0	0	4,406348	0,48	344,7468	-0,083	87,443	0	1017,62	6,5	8,5	8,3	1	1	1	1	1	1	1	1	1	0	1	-5,84919	273,803786	312,820572	0
15.01.2021	23:34:04	0	0	3,841431	0,48525	343,4472	-0,084	87,449	0	1017,44	6,5	8,6	8,3	1	1	1	1	1	1	1	1	1	0	1	-3,030303	273,702653	315,168901	0
15.01.2021	23:34:05	0	0	3,954415	0,49725	339,822	-0,079	87,433	0	1017,68	6,5	8,5	8,3	1	1	1	1	1	1	1	1	1	0	1	-6,694856	273,812606	312,015966	0
15.01.2021	23:34:06	0	0	3,954344	0,47475	326,0988	-0,085	87,414	0	1017,46	6,4	8,5	8,6	1	1	1	1	1	1	1	1	1	0	1	-6,20155	273,714352	312,052057	0
15.01.2021	23:34:07	0	0	4,519331	0,48975	311,7888	-0,09	87,444	0	1017,3	6,5	8,5	8,3	1	1	1	1	1	1	1	1	1	0	1	-4,651163	273,809665	314,04597	0
15.01.2021	23:34:08	0	0	2,937565	0,45525	314,8344	-0,086	87,425	0	1017,48	6,5	8,5	8,3	1	1	1	1	1	1	1	1	1	0	1	-7,751938	273,721667	310,535693	0
15.01.2021	23:34:09	0	0	2,598615	0,4845	324,4176	-0,084	87,447	0	1017,58	6,5	8,6	8,3	1	1	1	1	1	1	1	1	1	0	1	-7,329105	273,641353	310,585132	0
15.01.2021	23:34:10	0	0	4,745298	0,46575	327,3804	-0,084	87,437	0	1017,46	6,5	8,5	8,3	1	1	1	1	1	1	1	1	1	0	1	-4,580691	273,721667	313,70694	0
15.01.2021	23:34:11	0	0	3,728448	0,44925	325,152	-0,088	87,435	0	1017,4	6,5	8,5	8,3	1	1	1	1	1	1	1	1	1	0	1	-9,44327	273,794971	309,185455	0
15.01.2021	23:34:12	0	0	4,293365	0,48525	321,4836	-0,082	87,42	0	1017,48	6,5	8,6	8,3	1	1	1	1	1	1	1	1	1	0	1	-7,963354	273,664683	310,059312	0
15.01.2021	23:34:13	0	0	4,067398	0,4905	323,352	-0,081	87,439	0	1017,6	6,5	8,5	8,3	1	1	1	1	1	1	1	1	1	0	1	-11,275546	273,677818	306,808181	0
15.01.2021	23:34:14	0	0	2,824582	0,43125	330,1236	-0,088	87,424	0	1017,52	6,5	8,5	8,3	1	1	1	1	1	1	1	1	1	0	1	-5,21494	273,808195	313,475349	0
15.01.2021	23:34:15	0	0	3,728448	0,43725	335,0664	-0,084	87,415	0	1017,48	6,5	8,5	8,3	1	1	1	1	1	1	1	1	1	0	1	-8,668076	273,777352	309,878643	0
15.01.2021	23:34:16	0	0	3,163532	0,42525	337,5216	-0,091	87,435	0	1017,4	6,5	8,6	8,3	1	1	1	1	1	1	1	1	1	0	1	-3,664553	273,814076	315,053115	0
15.01.2021	23:34:17	0	0	4,745298	0,4155	342,0756	-0,084	87,426	0	1017,54	6,5	8,5	8,3	1	1	1	1	1	1	1	1	1	0	1	-2,889359	273,77295	315,636873	0
15.01.2021	23:34:18	0	0	3,728448	0,414	350,9964	-0,09	87,428	0	1017,3	6,5	8,5	8,3	1	1	1	1	1	1	1	1	1	0	1	-9,161381	273,818487	309,576827	0
15.01.2021	23:34:19	0	0	3,050548	0,372	359,9172	-0,088	87,428	0	1017,58	6,4	8,5	8,3	1	1	1	1	1	1	1	1	1	0	1	-9,584214	273,75242	308,846484	0
15.01.2021	23:34:20	0	0	2,598615	0,38475	0,1116	-0,083	87,427	0	1017,52	6,5	8,6	8,3	1	1	1	1	1	1	1	1	1	0	1	-4,22833	273,812606	314,482492	0
15.01.2021	23:34:21	0	0	3,728448	0,38325	355,41	-0,081	87,428	0	1017,46	6,5	8,6	8,3	1	1	1	1	1	1	1	1	1	0	1	-4,157858	273,774418	314,375202	0
15.01.2021	23:34:22	0	0	2,711599	0,369	348,7932	-0,085	87,433	0	1017,56	6,5	8,6	8,3	1	1	1	1	1	1	1	1	1	0	1	-7,540521	273,650098	310,414358	0
15.01.2021	23:34:23	0	0	2,372649	0,336	348,7248	-0,081	87,428	0	1017,4	6,5	8,5	8,3	1	1	1	1	1	1	1	1	1	0	1	-4,087385	273,629699	313,772697	0
15.01.2021	23:34:24	0	0	2,485632	0,366	349,5024	-0,082	87,422	0	1017,62	6,5	8,5	8,3	1	1	1	1	1	1	1	1	1	0	1	-3,735025	273,740699	314,641139	0
15.01.2021	23:34:25	0	0	3,954415	0,38925	346,8528	-0,085	87,426	0	1017,36	6,5	8,5	8,3	1	1	1	1	1	1	1	1	1	0	1	-2,396054	273,636982	315,497871	0
15.01.2021	23:34:26	0	0	4,745298	0,39	345,1356	-0,077	87,435	0	1017,58	6,5	8,6	8,3	1	1	1	1	1	1	1	1	1	0	1	-10,147992	273,711426	308,092011	0
15.01.2021	23:34:27	0	0	2,598615	0,3975	345,0744	-0,084	87,442	0	1017,54	6,5	8,6	8,3	1	1	1	1	1	1	1	1	1	0	1	-6,553911	273,636982	311,340013	0
15.01.2021	23:34:28	0	0	4,858281	0,38625	345,3876	-0,085	87,425	0	1017,54	6,5	8,5	8,3	1	1	1	1	1	1	1	1	1	0	1	-6,412967	273,715814	311,847444	0
15.01.2021	23:34:29	0	0	4,406348	0,3975	345,3552	-0,086	87,425	0	1017,54	6,5	8,6	8,3	1	1	1	1	1	1	1	1	1	0	1	-9,654686	273,808195	309,035603	0
15.01.2021	23:34:30	0	0	2,259666	0,4155	344,304	-0,083	87,444	0	1017,58	6,4	8,5	8,3	1	1	1	1	1	1	1	1	1	0	1	-8,104299	273,77295	310,421932	0
15.01.2021	23:34:31	0	0	4,519331	0,4125	341,3196	-0,082	87,435	0	1017,6	6,5	8,5	8,3	1	1	1	1	1	1	1	1	1	0	1	-4,580691	273,815546	314,143823	0
15.01.2021	23:34:32	0	0	2,259666	0,4095	339,174	-0,082	87,42	0	1017,5	6,5	8,6	8,3	1	1	1	1	1	1	1	1	1	0	1	-6,694856	273,758284	311,763126	0
15.01.2021	23:34:33	0	0	3,954415	0,36525	338,346	-0,082	87,43	0	1017,38	6,5	8,5	8,3	1	1	1	1	1	1	1	1	1	0	1	-7,470049	273,770016	311,042527	0
15.01.2021	23:34:34	0	0	4,971264	0,3435	339,4656	-0,08	87,435	0	1017,44	6,4	8,5	8,3	1	1	1	1	1	1	1	1	1	0	1	-8,245243	273,651556	309,716412	0
15.01.2021	23:34:35	0	0	3,841431	0,33	342,8244	-0,086	87,435	0	1017,5	6,5	8,5	8,3	1	1	1	1	1	1	1	1	1	0	1	-5,144468	273,653014	312,823964	0
15.01.2021	23:34:36	0	0	2,146682	0,336	345,0816	-0,078	87,442	0	1017,56	6,4	8,5	8,3	1	1	1	1	1	1	1	1	1	0	1	-10,570825	273,635525	307,31633	0
15.01.2021	23:34:37	0	0	4,745298	0,37125	344,3004	-0,081	87,433	0	1017,5	6,5	8,5	8,3	1	1	1	1	1	1	1	1	1	0	1	-6,553911	273,753886	311,883607	0
15.01.2021	23:34:38	0	0	4,293365	0,36	342,378	-0,081	87,428	0	1017,46	6,4	8,5	8,3	1	1	1	1	1	1	1	1	1	0	1	-5,21494	273,802317	313,447981	0
15.01.2021	23:34:39	0	0	2,598615	0,345	341,6904	-0,082	87,433	0	1017,82	6,5	8,5	8,3	1	1	1	1	1	1	1	1	1	0	1	-3,100775	273,749489	315,316286	0
15.01.2021	23:34:40	0	0	5,310214	0,37275	344,6928	-0,085	87,432	0	1017,38	6,5	8,6	8,3	1	1	1	1	1	1	1	1	1	0	1	-2,184637	273,811135	316,51934	0
15.01.2021	23:34:41	0	0	3,163532	0,36375	346,5	-0,083	87,432	0	1017,5	6,5	8,6	8,3	1	1	1	1	1	1	1	1	1	0	1	-2,255109	273,683659	315,855773	0
15.01.2021	23:34:42	0	0	2,824582	0,3465	341,676	-0,085	87,419	0	1017,58	6,5	8,5	8,3	1	1	1	1	1	1	1	1	1	0	1	-6,131078	273,800847	312,525002	0
15.01.2021	23:34:43	0	0	3,615465	0,348	332,4204	-0,088	87,413	0	1017,6	6,5	8,6	8,3	1	1	1	1	1	1	1	1	1	0	1	-6,553911	273,696807	311,618105	0
15.01.2021	23:34:44	0	0	4,180381	0,32325	325,1448	-0,083	87,412	0	1017,46	6,5	8,5	8,3	1	1	1	1	1	1	1	1	1	0	1	-6,272023	273,664683	311,750644	0
15.01.2021	23:34:45	0	0	4,293365	0,31125	326,052	-0,082	87,437	0	1017,4	6,4	8,5	8,3	1	1	1	1	1	1	1	1	1	0	1	-7,751938	273,635525	310,135217	0
15.01.2021	23:34:46	0	0	3,389498	0,30675	331,9848	-0,082	87,44	0	1017,56	6,5	8,6	8,3	1	1	1	1	1	1	1	1	1	0	1	-6,483439	273,671979	311,573144	0
15.01.2021	23:34:47	0	0	4,745298	0,3	332,8812	-0,084	87,434	0	1017,58	6,5	8,6	8,3	1	1	1	1	1	1	1	1	1	0	1	-7,610994	273,638439	310,289701	0
15.01.2021	23:34:48	0	0	3,163532	0,29775	328,608	-0,086	87,438	0	1017,38	6,5	8,6	8,3	1	1	1	1	1	1	1	1	1	0	1	-6,20155	273,677818	311,882177	0
15.01.2021	23:34:49	0	0	4,745298	0,27675	322,9236	-0,081	87,417	0	1017,5	6,4	8,6	8,3	1	1	1	1	1	1	1	1	1	0	1	-7,399577	273,781755	311,167634	0
15.01.2021	23:34:50	0	0	2,824548	0,2625	316,6056	-0,087	87,424	0	1017,48	6,4	8,5	8,5	1	1	1	1	1	1	1	1	1	0	1	-5,21494	273,771483	313,304463	0
15.01.2021	23:34:51	0	0	2,711599	0,25125	313,2504	-0,085	87,448	0	1017,52	6,4	8,5	8,3	1	1	1	1	1	1	1	1	1	0	1	-6,976744	273,814076	311,740923	0
15.01.2021	23:34:52	0	0	2,824531	0,2505	314,0352	-0,08	87,444	0	1017,58	6,4	8,5	8,6	1	1	1	1	1	1	1	1	1	0	1	-7,258633	273,745094	311,137977	0
15.01.2021	23:34:53	0	0	3,050548	0,222	317,7756	-0,083	87,437	0	1017,6	6,5	8,6	8,3	1	1	1	1	1	1	1	1	1	0	1	-8,174771	273,790565	310,433444	0
15.01.2021	23:34:54	0	0	4,293365	0,2115	324,0684	-0,091	87,437	0	1017,44	6,5	8,6	8,3	1	1	1	1	1	1	1	1	1	0	1	-4,510218	273,780288	314,050162	0
15.01.2021	23:34:55	0	0	4,519331	0,20475	332,784	-0,085	87,444	0	1017,48	6,4	8,5	8,3	1	1	1	1	1	1	1	1	1	0	1	-6,131078	273,639896	311,776387	0
15.01.2021	23:34:56	0	0	3,163532	0,189	341,334	-0,092	87,429	0	1017,64	6,5	8,5	8,3	1	1	1	1	1	1	1	1	1	0	1	-6,483439	273,790565	312,124776	0
15.01.2021	23:34:57	0	0	3,389498	0,18975	345,384	-0,092	87,436	0	1017,42	6,5	8,5	8,3	1	1	1	1	1	1	1	1	1	0	1	-5,003524	273,663224	313,012361	0
15.01.2021	23:34:58	0	0	3,728448	0,16725	346,4388	-0,086	87,446	0	1017,5	6,4	8,6	8,3	1	1	1	1	1	1	1	1	1	0	1	-7,117689	273,695345	311,047533	0
15.01.2021	23:34:59	0	0	3,389498	0,153	342,738	-0,086	87,439	0	1017,48	6,5	8,6	8,3	1	1	1	1	1	1	1	1	1	0	1	-8,174771	273,784691	310,406106	0
15.01.2021	23:35:00	0	0	3,502482	0,09225	337,9032	-0,086	87,431	0	1017,48	6,4	8,6	8,3	1	1	1	1	1	1	1	1	1	0	1	-7,188161	273,682198	310,915932	0
15.01.2021	23:35:01	0	0	3,502482	0,09225	337,9032	-0,086	87,431	0	1017,48	6,4	8,6	8,3	1	1	1	1	1	1	1	1	1	0	1	-6,412967	273,781755	312,154245	0
15.01.2021	23:35:02	0	0	5,084247	0,12975	334,2096	-0,085	87,422	0	1017,38	6,5	8,6	8,3	1	1	1	1	1	1	1	1	1	0	1	-8,104299	273,682198	309,999794	0
15.01.2021	23:35:03	0	0	4,180381	0,12	333,792	-0,079	87,431	0	1017,6	6,5	8,5	8,3	1	1	1	1	1	1	1	1	1	0	1	-2,536998	273,770016	315,975578	0
15.01.2021	23:35:04	0	0	4,632314	0,17475	338,094	-0,084	87,419	0	1017,44	6,4	8,5	8,3	1	1	1	1	1	1	1	1	1	0	1	-5,990134	273,815546	312,73438	0
15.01.2021	23:35:05	0	0	4,632314	0,162	344,0196	-0,084	87,437	0	1017,66	6,5	8,6	8,3	1	1	1	1	1	1	1	1	1	0	1	-6,8358	273,664683	311,186866	0
15.01.2021	23:35:06	0	0	3,276515	0,18075	350,334	-0,084	87,447	0	1017,48	6,5	8,6	8,3	1	1	1	1	1	1	1	1	1	0	1	-8,668076	273,615142	309,124369	0
15.01.2021	23:35:07	0	0	2,485632	0,192	352,1124	-0,085	87,44	0	1017,54	6,5	8,6	8,3	1	1	1	1	1	1	1	1	1	0	1	-3,523608	273,654473	314,451601	0
15.01.2021	23:35:08	0	0	4,406348	0,243	347,2056	-0,084	87,445	0	1017,52	6,5	8,5	8,3	1	1	1	1	1	1	1	1	1	0	1	-4,087385	273,764149	314,397888	0
15.01.2021	23:35:09	0	0	3,954415	0,2475	341,8596	-0,081	87,444	0	1017,56	6,4	8,5	8,3	1	1	1	1	1	1	1	1	1	0	1	-5,990134	273,765616	312,501964	0
15.01.2021	23:35:10	0	0	4,745298	0,276	339,8292	-0,085	87,418	0	1017,62	6,5	8,5	8,3	1	1	1	1	1	1	1	1	1	0	1	-5,637773	273,803786	313,031989	0
15.01.2021	23:35:11	0	0	2,485632	0,28575	342,0576	-0,082	87,445	0	1017,32	6,4	8,5	8,3	1	1	1	1	1	1	1	1	1	0	1	-9,090909	273,69973	309,0947	0
15.01.2021	23:35:12	0	0	2,824582	0,3165	345,726	-0,079	87,428	0	1017,38	6,5	8,6	8,3	1	1	1	1	1	1	1	1	1	0	1	-7,540521	273,626787	310,306028	0
15.01.2021	23:35:13	0	0	5,310214	0,33525	345,9276	-0,082	87,436	0	1017,5	6,5	8,5	8,3	1	1	1	1	1	1	1	1	1	0	1	-6,906272	273,677818	311,177455	0
15.01.2021	23:35:14	0	0	3,502482	0,3885	342,0828	-0,09	87,423	0	1017,42	6,5	8,5	8,3	1	1	1	1	1	1	1	1	1	0	1	-7,610994	273,638439	310,289701	0
15.01.2021	23:35:15	0	0	4,406348	0,372	340,9308	-0,08	87,436	0	1017,44	6,5	8,5	8,3	1	1	1	1	1	1	1	1	1	0	1	-6,060606	273,663224	311,955279	0
15.01.2021	23:35:16	0	0	2,711599	0,3705	342,6516	-0,081	87,431	0	1017,68	6,5	8,5	8,3	1	1	1	1	1	1	1	1	1	0	1	-8,879493	273,817017	309,851868	0
15.01.2021	23:35:17	0	0	5,084247	0,375	348,2568	-0,087	87,425	0	1017,48	6,4	8,5	8,3	1	1	1	1	1	1	1	1	1	0	1	-8,527132	273,748024	309,883112	0
15.01.2021	23:35:18	0	0	2,937565	0,3855	355,0536	-0,083	87,426	0	1017,5	6,4	8,6	8,3	1	1	1	1	1	1	1	1	1	0	1	-9,725159	273,789096	308,876221	0
15.01.2021	23:35:19	0	0	4,632314	0,38325	359,8668	-0,082	87,429	0	1017,52	6,5	8,6	8,3	1	1	1	1	1	1	1	1	1	0	1	-4,369274	273,775885	314,170615	0
15.01.2021	23:35:20	0	0	3,954415	0,39	1,188	-0,081	87,43	0	1017,62	6,5	8,6	8,3	1	1	1	1	1	1	1	1	1	0	1	-11,980268	273,753886	306,457251	0
15.01.2021	23:35:21	0	0	3,502482	0,3705	0,4932	-0,081	87,422	0	1017,52	6,5	8,5	8,3	1	1	1	1	1	1	1	1	1	0	1	-6,8358	273,622419	310,990456	0
15.01.2021	23:35:22	0	0	3,163532	0,38625	356,1768	-0,088	87,433	0	1017,48	6,5	8,5	8,3	1	1	1	1	1	1	1	1	1	0	1	-5,285412	273,726057	313,02264	0
15.01.2021	23:35:23	0	0	3,276515	0,36225	348,6636	-0,083	87,435	0	1017,52	6,4	8,5	8,3	1	1	1	1	1	1	1	1	1	0	1	-4,651163	273,638439	313,249532	0
15.01.2021	23:35:24	0	0	4,180381	0,34425	342,3852	-0,079	87,436	0	1017,7	6,5	8,6	8,3	1	1	1	1	1	1	1	1	1	0	1	-4,22833	273,739234	314,14102	0
15.01.2021	23:35:25	0	0	4,971264	0,342	342,0792	-0,083	87,429	0	1017,7	6,4	8,6	8,3	1	1	1	1	1	1	1	1	1	0	1	-6,694856	273,768549	311,810894	0
15.01.2021	23:35:26	0	0	2,937565	0,3075	348,6816	-0,081	87,435	0	1017,54	6,5	8,5	8,3	1	1	1	1	1	1	1	1	1	0	1	-5,003524	273,793502	313,618364	0
15.01.2021	23:35:27	0	0	4,858281	0,33525	354,7044	-0,085	87,424	0	1017,48	6,4	8,5	8,3	1	1	1	1	1	1	1	1	1	0	1	-2,466526	273,68658	315,657937	0
15.01.2021	23:35:28	0	0	2,937565	0,3225	358,4268	-0,085	87,411	0	1017,54	6,5	8,5	8,3	1	1	1	1	1	1	1	1	1	0	1	-6,694856	273,793502	311,927032	0
15.01.2021	23:35:29	0	0	3,389498	0,3015	357,6456	-0,083	87,423	0	1017,56	6,5	8,6	8,3	1	1	1	1	1	1	1	1	1	0	1	-3,24172	273,696807	314,930297	0
15.01.2021	23:35:30	0	0	2,937565	0,33675	354,6216	-0,08	87,413	0	1017,5	6,4	8,5	8,3	1	1	1	1	1	1	1	1	1	0	1	-5,496829	273,623875	312,336191	0
15.01.2021	23:35:31	0	0	3,276515	0,3195	354,6684	-0,087	87,412	0	1017,42	6,5	8,6	8,3	1	1	1	1	1	1	1	1	1	0	1	-0,775194	273,679278	317,315321	0
15.01.2021	23:35:32	0	0	4,406348	0,3435	356,1948	-0,084	87,419	0	1017,5	6,4	8,6	8,3	1	1	1	1	1	1	1	1	1	0	1	-2,466526	273,619508	315,346204	0
15.01.2021	23:35:33	0	0	4,180381	0,3285	356,598	-0,079	87,426	0	1017,42	6,5	8,6	8,3	1	1	1	1	1	1	1	1	1	0	1	-7,399577	273,749489	311,017484	0
15.01.2021	23:35:34	0	0	4,519331	0,3375	354,2868	-0,081	87,415	0	1017,36	6,5	8,6	8,3	1	1	1	1	1	1	1	1	1	0	1	-4,510218	273,792033	314,104832	0
15.01.2021	23:35:35	0	0	4,067398	0,31875	353,9232	-0,087	87,417	0	1017,54	6,5	8,5	8,3	1	1	1	1	1	1	1	1	1	0	1	-7,681466	273,733377	310,660634	0
15.01.2021	23:35:36	0	0	3,276515	0,327	355,8312	-0,082	87,416	0	1017,5	6,5	8,5	8,3	1	1	1	1	1	1	1	1	1	0	1	-2,325581	273,639896	315,581884	0
15.01.2021	23:35:37	0	0	3,615465	0,32325	358,0884	-0,088	87,436	0	1017,54	6,5	8,5	8,3	1	1	1	1	1	1	1	1	1	0	1	-7,681466	273,616597	310,11774	0
15.01.2021	23:35:38	0	0	4,632314	0,27675	354,726	-0,083	87,412	0	1017,68	6,4	8,6	8,3	1	1	1	1	1	1	1	1	1	0	1	-5,003524	273,692423	313,148109	0
15.01.2021	23:35:39	0	0	2,937565	0,291	350,712	-0,078	87,421	0	1017,4	6,4	8,6	8,3	1	1	1	1	1	1	1	1	1	0	1	-4,933051	273,631156	312,933798	0
15.01.2021	23:35:40	0	0	3,050548	0,291	351,0576	-0,088	87,42	0	1017,6	6,4	8,5	8,3	1	1	1	1	1	1	1	1	1	0	1	-4,22833	273,768549	314,27742	0
15.01.2021	23:35:41	0	0	3,163532	0,29175	353,2428	-0,083	87,423	0	1017,56	6,4	8,6	8,3	1	1	1	1	1	1	1	1	1	0	1	-9,090909	273,631156	308,77594	0
15.01.2021	23:35:42	0	0	4,180381	0,32625	355,1436	-0,076	87,429	0	1017,6	6,4	8,6	8,3	1	1	1	1	1	1	1	1	1	0	1	-4,298802	273,654473	313,676407	0
15.01.2021	23:35:43	0	0	4,519331	0,31425	352,566	-0,083	87,415	0	1017,52	6,5	8,5	8,3	1	1	1	1	1	1	1	1	1	0	1	-5,919662	273,609322	311,845745	0
15.01.2021	23:35:44	0	0	4,971264	0,33075	351,1116	-0,083	87,427	0	1017,5	6,5	8,5	8,3	1	1	1	1	1	1	1	1	1	0	1	-2,889359	273,771483	315,630045	0
15.01.2021	23:35:45	0	0	3,841431	0,3705	353,2788	-0,085	87,419	0	1017,36	6,4	8,6	8,3	1	1	1	1	1	1	1	1	1	0	1	-5,355884	273,618052	312,450083	0
15.01.2021	23:35:46	0	0	4,293365	0,36675	355,0572	-0,08	87,425	0	1017,52	6,4	8,6	8,3	1	1	1	1	1	1	1	1	1	0	1	-9,654686	273,771483	308,864717	0
15.01.2021	23:35:47	0	0	2,711599	0,3915	355,9104	-0,086	87,421	0	1017,46	6,4	8,6	8,3	1	1	1	1	1	1	1	1	1	0	1	-5,21494	273,758284	313,243041	0
15.01.2021	23:35:48	0	0	2,711599	0,36375	355,0356	-0,081	87,418	0	1017,54	6,4	8,5	8,3	1	1	1	1	1	1	1	1	1	0	1	-5,990134	273,749489	312,426927	0
15.01.2021	23:35:49	0	0	4,293365	0,372	354,6396	-0,082	87,403	0	1017,42	6,4	8,6	8,3	1	1	1	1	1	1	1	1	1	0	1	-3,523608	273,628243	314,329708	0
15.01.2021	23:35:50	0	0	2,824582	0,3915	353,9484	-0,085	87,402	0	1017,48	6,4	8,6	8,3	1	1	1	1	1	1	1	1	1	0	1	-4,157858	273,682198	313,946235	0
15.01.2021	23:35:51	0	0	2,598615	0,393	353,682	-0,082	87,413	0	1017,46	6,4	8,6	8,3	1	1	1	1	1	1	1	1	1	0	1	-4,087385	273,792033	314,527665	0
15.01.2021	23:35:52	0	0	4,180381	0,3705	352,9044	-0,078	87,41	0	1017,46	6,4	8,6	8,3	1	1	1	1	1	1	1	1	1	0	1	-5,21494	273,701191	312,977466	0
15.01.2021	23:35:53	0	0	2,485632	0,393	351,3528	-0,08	87,422	0	1017,52	6,4	8,5	8,3	1	1	1	1	1	1	1	1	1	0	1	-5,637773	273,78616	312,949937	0
15.01.2021	23:35:54	0	0	2,033699	0,372	349,4124	-0,078	87,403	0	1017,44	6,4	8,6	8,3	1	1	1	1	1	1	1	1	1	0	1	-4,298802	273,645725	313,635753	0
15.01.2021	23:35:55	0	0	2,711599	0,35775	348,8364	-0,082	87,421	0	1017,76	6,5	8,6	8,3	1	1	1	1	1	1	1	1	1	0	1	-3,523608	273,651556	314,438047	0
15.01.2021	23:35:56	0	0	2,598615	0,348	349,83	-0,084	87,413	0	1017,5	6,5	8,6	8,3	1	1	1	1	1	1	1	1	1	0	1	-5,426357	273,613686	312,359328	0
15.01.2021	23:35:57	0	0	4,858281	0,33975	352,1016	-0,082	87,415	0	1017,62	6,4	8,6	8,3	1	1	1	1	1	1	1	1	1	0	1	-6,20155	273,756818	312,249609	0
15.01.2021	23:35:58	0	0	4,632314	0,34425	352,3932	-0,082	87,408	0	1017,4	6,4	8,5	8,3	1	1	1	1	1	1	1	1	1	0	1	-5,778717	273,616597	312,020488	0
15.01.2021	23:35:59	0	0	3,163532	0,36675	352,7748	-0,085	87,399	0	1017,46	6,4	8,6	8,3	1	1	1	1	1	1	1	1	1	0	1	-4,651163	273,670519	313,398635	0
15.01.2021	23:36:00	0	0	3,728448	0,363	353,2572	-0,081	87,408	0	1017,5	6,5	8,6	8,3	1	1	1	1	1	1	1	1	1	0	1	-6,131078	273,636982	311,762846	0
15.01.2021	23:36:01	0	0	3,389498	0,363	354,0384	-0,079	87,421	0	1017,72	6,4	8,6	8,3	1	1	1	1	1	1	1	1	1	0	1	-5,84919	273,647183	312,09214	0
15.01.2021	23:36:02	0	0	3,954415	0,384	351,738	-0,087	87,415	0	1017,42	6,5	8,6	8,3	1	1	1	1	1	1	1	1	1	0	1	-7,470049	273,650098	310,48483	0
15.01.2021	23:36:03	0	0	4,180381	0,3675	348,336	-0,08	87,41	0	1017,44	6,4	8,6	8,3	1	1	1	1	1	1	1	1	1	0	1	-2,466526	273,783223	316,107518	0
15.01.2021	23:36:04	0	0	3,050548	0,40725	344,6532	-0,073	87,419	0	1017,42	6,4	8,6	8,3	1	1	1	1	1	1	1	1	1	0	1	-3,875969	273,758284	314,582012	0
15.01.2021	23:36:05	0	0	2,711599	0,42825	342,3528	-0,079	87,437	0	1017,64	6,4	8,6	8,3	1	1	1	1	1	1	1	1	1	0	1	-6,624383	273,784691	311,956493	0
15.01.2021	23:36:06	0	0	3,841431	0,46575	342,7956	-0,076	87,416	0	1017,56	6,5	8,6	8,3	1	1	1	1	1	1	1	1	1	0	1	-3,735025	273,756818	314,716135	0
15.01.2021	23:36:07	0	0	3,050548	0,48975	345,3804	-0,084	87,4	0	1017,4	6,4	8,6	8,3	1	1	1	1	1	1	1	1	1	0	1	-8,45666	273,789096	310,14472	0
15.01.2021	23:36:08	0	0	4,519331	0,4935	351,8496	-0,071	87,414	0	1017,42	6,5	8,5	8,3	1	1	1	1	1	1	1	1	1	0	1	-7,258633	273,623875	310,574387	0
15.01.2021	23:36:09	0	0	3,050548	0,468	359,1252	-0,073	87,422	0	1017,54	6,4	8,5	8,3	1	1	1	1	1	1	1	1	1	0	1	-2,889359	273,670519	315,16044	0
15.01.2021	23:36:10	0	0	4,745298	0,441	1,1952	-0,073	87,417	0	1017,64	6,4	8,6	8,3	1	1	1	1	1	1	1	1	1	0	1	-10,218464	273,75975	308,24634	0
15.01.2021	23:36:11	0	0	4,067398	0,43575	2,304	-0,076	87,416	0	1017,46	6,4	8,6	8,3	1	1	1	1	1	1	1	1	1	0	1	-5,426357	273,726057	312,881695	0
15.01.2021	23:36:12	0	0	3,163532	0,43875	1,9188	-0,083	87,416	0	1017,52	6,4	8,6	8,3	1	1	1	1	1	1	1	1	1	0	1	-7,329105	273,794971	311,29962	0
15.01.2021	23:36:13	0	0	4,180381	0,41925	1,5552	-0,072	87,425	0	1017,48	6,5	8,6	8,3	1	1	1	1	1	1	1	1	1	0	1	-6,976744	273,666142	311,052704	0
15.01.2021	23:36:14	0	0	3,615465	0,41025	1,6632	-0,076	87,419	0	1017,56	6,4	8,6	8,3	1	1	1	1	1	1	1	1	1	0	1	-3,24172	273,623875	314,5913	0
15.01.2021	23:36:15	0	0	3,615465	0,3645	3,0348	-0,08	87,408	0	1017,5	6,4	8,6	8,3	1	1	1	1	1	1	1	1	1	0	1	-7,892882	273,742164	310,490096	0
15.01.2021	23:36:16	0	0	2,711599	0,381	4,8564	-0,076	87,423	0	1017,46	6,5	8,6	8,3	1	1	1	1	1	1	1	1	1	0	1	-7,188161	273,77295	311,338071	0
15.01.2021	23:36:17	0	0	2,824582	0,36	5,2128	-0,079	87,412	0	1017,6	6,4	8,6	8,3	1	1	1	1	1	1	1	1	1	0	1	-4,510218	273,712889	313,736587	0
15.01.2021	23:36:18	0	0	3,050548	0,3525	5,2488	-0,077	87,414	0	1017,6	6,4	8,6	8,3	1	1	1	1	1	1	1	1	1	0	1	-7,751938	273,629699	310,108144	0
15.01.2021	23:36:19	0	0	4,971264	0,37575	4,4712	-0,072	87,407	0	1017,7	6,4	8,5	8,3	1	1	1	1	1	1	1	1	1	0	1	-5,496829	273,746559	312,906597	0
15.01.2021	23:36:20	0	0	3,050548	0,3975	3,7836	-0,07	87,414	0	1017,84	6,4	8,6	8,3	1	1	1	1	1	1	1	1	1	0	1	-6,131078	273,780288	312,429302	0
15.01.2021	23:36:21	0	0	4,858281	0,405	3,7836	-0,076	87,404	0	1017,42	6,4	8,6	8,3	1	1	1	1	1	1	1	1	1	0	1	-8,668076	273,756818	309,783083	0
15.01.2021	23:36:22	0	0	3,163532	0,37425	1,926	-0,074	87,409	0	1017,48	6,4	8,5	8,3	1	1	1	1	1	1	1	1	1	0	1	-6,624383	273,651556	311,337272	0
15.01.2021	23:36:23	0	0	3,050548	0,411	357,8328	-0,073	87,415	0	1017,56	6,5	8,6	8,3	1	1	1	1	1	1	1	1	1	0	1	-9,725159	273,742164	308,65782	0
15.01.2021	23:36:24	0	0	4,971264	0,40275	354,6828	-0,078	87,405	0	1017,44	6,4	8,6	8,3	1	1	1	1	1	1	1	1	1	0	1	-6,342495	273,731912	311,992795	0
15.01.2021	23:36:25	0	0	3,841431	0,4245	359,9712	-0,072	87,428	0	1017,6	6,4	8,6	8,3	1	1	1	1	1	1	1	1	1	0	1	-6,060606	273,784691	312,520271	0
15.01.2021	23:36:26	0	0	4,745298	0,4335	4,0788	-0,074	87,416	0	1017,46	6,4	8,6	8,3	1	1	1	1	1	1	1	1	1	0	1	-5,073996	273,674898	312,996158	0
15.01.2021	23:36:27	0	0	3,050548	0,4425	4,8384	-0,074	87,421	0	1017,64	6,4	8,6	8,3	1	1	1	1	1	1	1	1	1	0	1	-6,765328	273,590419	310,912275	0
15.01.2021	23:36:28	0	0	2,711599	0,47325	1,9116	-0,077	87,412	0	1017,46	6,4	8,6	8,3	1	1	1	1	1	1	1	1	1	0	1	-5,567301	273,664683	312,455365	0
15.01.2021	23:36:29	0	0	4,745298	0,459	359,9388	-0,081	87,425	0	1017,52	6,4	8,6	8,3	1	1	1	1	1	1	1	1	1	0	1	-6,765328	273,793502	311,85656	0
15.01.2021	23:36:30	0	0	4,858281	0,47925	359,1072	-0,077	87,42	0	1017,56	6,4	8,6	8,3	1	1	1	1	1	1	1	1	1	0	1	-4,298802	273,707039	313,920798	0
15.01.2021	23:36:31	0	0	5,310214	0,45375	358,4988	-0,08	87,412	0	1017,5	6,4	8,6	8,3	1	1	1	1	1	1	1	1	1	0	1	-8,45666	273,600595	309,268209	0
15.01.2021	23:36:32	0	0	4,858281	0,4725	358,0236	-0,083	87,398	0	1017,46	6,4	8,5	8,3	1	1	1	1	1	1	1	1	1	0	1	-8,597604	273,66906	309,44541	0
15.01.2021	23:36:33	0	0	2,259666	0,4605	356,5512	-0,072	87,416	0	1017,6	6,5	8,6	8,3	1	1	1	1	1	1	1	1	1	0	1	-7,82241	273,780288	310,73797	0
15.01.2021	23:36:34	0	0	4,971264	0,417	351,3996	-0,08	87,409	0	1017,54	6,5	8,6	8,3	1	1	1	1	1	1	1	1	1	0	1	-3,735025	273,71874	314,538995	0
15.01.2021	23:36:35	0	0	4,745298	0,4155	346,554	-0,074	87,398	0	1017,56	6,4	8,6	8,3	1	1	1	1	1	1	1	1	1	0	1	-6,342495	273,602049	311,389129	0
15.01.2021	23:36:36	0	0	3,728448	0,4245	339,5052	-0,076	87,408	0	1017,58	6,4	8,6	8,3	1	1	1	1	1	1	1	1	1	0	1	-5,708245	273,667601	312,327986	0
15.01.2021	23:36:37	0	0	2,711599	0,43575	332,9244	-0,075	87,424	0	1017,5	6,4	8,6	8,3	1	1	1	1	1	1	1	1	1	0	1	-7,188161	273,607867	310,570488	0
15.01.2021	23:36:38	0	0	4,745298	0,46725	333,4392	-0,074	87,397	0	1017,56	6,4	8,5	8,3	1	1	1	1	1	1	1	1	1	0	1	-4,510218	273,655931	313,471768	0
15.01.2021	23:36:39	0	0	3,841431	0,489	340,5996	-0,073	87,417	0	1017,58	6,4	8,5	8,3	1	1	1	1	1	1	1	1	1	0	1	-2,60747	273,635525	315,279685	0
15.01.2021	23:36:40	0	0	3,050548	0,49425	348,0192	-0,069	87,408	0	1017,56	6,4	8,6	8,3	1	1	1	1	1	1	1	1	1	0	1	-4,792107	273,740699	313,584057	0
15.01.2021	23:36:41	0	0	2,711599	0,50925	353,664	-0,074	87,421	0	1017,48	6,4	8,6	8,3	1	1	1	1	1	1	1	1	1	0	1	-7,681466	273,618052	310,124501	0
15.01.2021	23:36:42	0	0	3,728448	0,5145	345,7512	-0,076	87,42	0	1017,52	6,4	8,6	8,3	1	1	1	1	1	1	1	1	1	0	1	-6,20155	273,75242	312,229148	0
15.01.2021	23:36:43	0	0	4,971264	0,53775	333,2556	-0,075	87,414	0	1017,3	6,4	8,6	8,3	1	1	1	1	1	1	1	1	1	0	1	-5,637773	273,774418	312,895287	0
15.01.2021	23:36:44	0	0	4,293365	0,57075	333,864	-0,075	87,414	0	1017,54	6,4	8,6	8,3	1	1	1	1	1	1	1	1	1	0	1	-3,735025	273,709964	314,498177	0
15.01.2021	23:36:45	0	0	3,502482	0,5775	340,146	-0,08	87,417	0	1017,5	6,4	8,6	8,3	1	1	1	1	1	1	1	1	1	0	1	-3,171247	273,797909	315,471154	0
15.01.2021	23:36:46	0	0	4,406348	0,6045	340,9848	-0,077	87,42	0	1017,52	6,4	8,6	8,3	1	1	1	1	1	1	1	1	1	0	1	-5,21494	273,721667	313,072691	0
15.01.2021	23:36:47	0	0	2,824582	0,61425	339,138	-0,074	87,409	0	1017,46	6,4	8,6	8,3	1	1	1	1	1	1	1	1	1	0	1	-5,355884	273,631156	312,510965	0
15.01.2021	23:36:48	0	0	4,858281	0,6015	339,8184	-0,073	87,428	0	1017,46	6,5	8,5	8,3	1	1	1	1	1	1	1	1	1	0	1	-5,919662	273,770016	312,592914	0
15.01.2021	23:36:49	0	0	3,389498	0,624	339,8508	-0,072	87,418	0	1017,7	6,4	8,6	8,3	1	1	1	1	1	1	1	1	1	0	1	-5,778717	273,616597	312,020488	0
15.01.2021	23:36:50	0	0	4,406348	0,60525	342,3816	-0,072	87,396	0	1017,52	6,4	8,5	8,3	1	1	1	1	1	1	1	1	1	0	1	-6,412967	273,709964	311,820235	0
15.01.2021	23:36:51	0	0	2,824582	0,62925	350,766	-0,07	87,4	0	1017,48	6,4	8,5	8,3	1	1	1	1	1	1	1	1	1	0	1	-10,077519	273,599141	307,640595	0
15.01.2021	23:36:52	0	0	4,067398	0,62775	351,3096	-0,074	87,406	0	1017,46	6,4	8,6	8,3	1	1	1	1	1	1	1	1	1	0	1	-4,933051	273,71874	313,340968	0
15.01.2021	23:36:53	0	0	2,824582	0,66975	334,2276	-0,08	87,404	0	1017,42	6,4	8,6	8,3	1	1	1	1	1	1	1	1	1	0	1	-7,540521	273,594779	310,157335	0
15.01.2021	23:36:54	0	0	4,406348	0,7155	331,1712	-0,075	87,404	0	1017,5	6,4	8,6	8,3	1	1	1	1	1	1	1	1	1	0	1	-9,936575	273,693884	308,221852	0
15.01.2021	23:36:55	0	0	3,389498	0,7605	338,742	-0,071	87,415	0	1017,52	6,4	8,6	8,3	1	1	1	1	1	1	1	1	1	0	1	-6,131078	273,594779	311,566778	0
15.01.2021	23:36:56	0	0	2,824582	0,78075	345,0672	-0,077	87,4	0	1017,5	6,4	8,6	8,3	1	1	1	1	1	1	1	1	1	0	1	-8,245243	273,653014	309,723189	0
15.01.2021	23:36:57	0	0	3,163532	0,75525	341,2368	-0,075	87,417	0	1017,44	6,4	8,6	8,3	1	1	1	1	1	1	1	1	1	0	1	-6,765328	273,594779	310,932528	0
15.01.2021	23:36:58	0	0	3,954415	0,77475	330,0228	-0,076	87,421	0	1017,56	6,4	8,5	8,3	1	1	1	1	1	1	1	1	1	0	1	-5,990134	273,720203	312,290691	0
15.01.2021	23:36:59	0	0	4,632314	0,732	327,1644	-0,081	87,416	0	1017,5	6,4	8,6	8,3	1	1	1	1	1	1	1	1	1	0	1	-2,677942	273,771483	315,841461	0
15.01.2021	23:37:00	0	0	2,937565	0,756	329,3568	-0,073	87,419	0	1017,6	6,4	8,5	8,3	1	1	1	1	1	1	1	1	1	0	1	-8,45666	273,71874	309,81736	0
15.01.2021	23:37:01	0	0	3,615465	0,75	327,0672	-0,076	87,418	0	1017,6	6,4	8,6	8,3	1	1	1	1	1	1	1	1	1	0	1	-2,536998	273,780288	316,023382	0
15.01.2021	23:37:02	0	0	5,197231	0,74625	324,1224	-0,07	87,419	0	1017,64	6,4	8,6	8,3	1	1	1	1	1	1	1	1	1	0	1	-8,949965	273,708501	309,276436	0
15.01.2021	23:37:03	0	0	3,502482	0,74625	325,2168	-0,072	87,415	0	1017,4	6,4	8,6	8,3	1	1	1	1	1	1	1	1	1	0	1	-4,439746	273,764149	314,045527	0
15.01.2021	23:37:04	0	0	2,598615	0,744	328,2372	-0,07	87,419	0	1017,56	6,4	8,6	8,3	1	1	1	1	1	1	1	1	1	0	1	-5,073996	273,650098	312,880884	0
15.01.2021	23:37:05	0	0	3,389498	0,74325	328,5612	-0,075	87,404	0	1017,36	6,4	8,6	8,3	1	1	1	1	1	1	1	1	1	0	1	-6,976744	273,591872	310,707609	0
15.01.2021	23:37:06	0	0	5,310214	0,77325	333,828	-0,078	87,404	0	1017,54	6,4	8,6	8,3	1	1	1	1	1	1	1	1	1	0	1	-5,919662	273,674898	312,150492	0
15.01.2021	23:37:07	0	0	2,937565	0,7875	342,198	-0,074	87,407	0	1017,48	6,4	8,5	8,3	1	1	1	1	1	1	1	1	1	0	1	-8,80902	273,596233	308,895588	0
15.01.2021	23:37:08	0	0	4,858281	0,789	349,1352	-0,074	87,414	0	1017,54	6,4	8,6	8,3	1	1	1	1	1	1	1	1	1	0	1	-7,188161	273,645725	310,746395	0
15.01.2021	23:37:09	0	0	4,180381	0,75525	347,6232	-0,073	87,419	0	1017,5	6,4	8,6	8,3	1	1	1	1	1	1	1	1	1	0	1	-7,963354	273,761216	310,508272	0
15.01.2021	23:37:10	0	0	3,615465	0,7785	350,6796	-0,073	87,411	0	1017,44	6,4	8,6	8,3	1	1	1	1	1	1	1	1	1	0	1	-4,298802	273,693884	313,859625	0
15.01.2021	23:37:11	0	0	3,163532	0,79125	357,624	-0,072	87,425	0	1017,48	6,4	8,6	8,3	1	1	1	1	1	1	1	1	1	0	1	-6,483439	273,783223	312,090605	0
15.01.2021	23:37:12	0	0	2,598615	0,77625	357,2028	-0,076	87,416	0	1017,48	6,4	8,6	8,3	1	1	1	1	1	1	1	1	1	0	1	-3,735025	273,648641	314,213079	0
15.01.2021	23:37:13	0	0	2,598615	0,78825	349,1028	-0,074	87,407	0	1017,42	6,4	8,6	8,3	1	1	1	1	1	1	1	1	1	0	1	-7,117689	273,581701	310,519424	0
15.01.2021	23:37:14	0	0	3,728448	0,78675	346,1544	-0,075	87,424	0	1017,46	6,4	8,6	8,3	1	1	1	1	1	1	1	1	1	0	1	-2,466526	273,717277	315,800689	0
15.01.2021	23:37:15	0	0	4,406348	0,76875	345,0924	-0,078	87,418	0	1017,48	6,4	8,6	8,3	1	1	1	1	1	1	1	1	1	0	1	-1,268499	273,596233	316,436109	0
15.01.2021	23:37:16	0	0	3,841431	0,756	345,3732	-0,075	87,429	0	1017,52	6,4	8,6	8,3	1	1	1	1	1	1	1	1	1	0	1	-6,060606	273,705577	312,152195	0
15.01.2021	23:37:17	0	0	4,406348	0,73725	338,7996	-0,07	87,426	0	1017,6	6,4	8,6	8,3	1	1	1	1	1	1	1	1	1	0	1	-3,664553	273,780288	314,895828	0
15.01.2021	23:37:18	0	0	2,598615	0,726	337,2336	-0,074	87,416	0	1017,54	6,4	8,6	8,3	1	1	1	1	1	1	1	1	1	0	1	-4,016913	273,707039	314,202687	0
15.01.2021	23:37:19	0	0	3,841431	0,73575	343,5084	-0,066	87,43	0	1017,54	6,4	8,6	8,3	1	1	1	1	1	1	1	1	1	0	1	-5,990134	273,75975	312,474669	0
15.01.2021	23:37:20	0	0	2,824582	0,735	346,1184	-0,074	87,389	0	1017,52	6,4	8,5	8,3	1	1	1	1	1	1	1	1	1	0	1	-4,298802	273,702653	313,900402	0
15.01.2021	23:37:21	0	0	2,937565	0,6885	345,7656	-0,075	87,447	0	1017,82	6,4	8,6	8,3	1	1	1	1	1	1	1	1	1	0	1	-5,426357	273,619508	312,386373	0
15.01.2021	23:37:22	0	0	3,050548	0,669	345,4164	-0,073	87,418	0	1017,44	6,4	8,6	8,3	1	1	1	1	1	1	1	1	1	0	1	-7,399577	273,707039	310,820023	0
15.01.2021	23:37:23	0	0	3,728448	0,65025	343,8648	-0,071	87,427	0	1017,58	6,4	8,6	8,3	1	1	1	1	1	1	1	1	1	0	1	-3,735025	273,594779	313,962831	0
15.01.2021	23:37:24	0	0	4,293365	0,6555	340,9596	-0,078	87,405	0	1017,4	6,4	8,6	8,3	1	1	1	1	1	1	1	1	1	0	1	-6,131078	273,724593	312,170166	0
15.01.2021	23:37:25	0	0	4,406348	0,65175	337,1472	-0,071	87,414	0	1017,6	6,4	8,6	8,3	1	1	1	1	1	1	1	1	1	0	1	-5,778717	273,748024	312,631526	0
15.01.2021	23:37:26	0	0	4,406348	0,66675	331,9236	-0,073	87,4	0	1017,48	6,4	8,6	8,3	1	1	1	1	1	1	1	1	1	0	1	-5,778717	273,619508	312,034012	0
15.01.2021	23:37:27	0	0	2,711599	0,684	332,4276	-0,069	87,432	0	1017,78	6,4	8,6	8,3	1	1	1	1	1	1	1	1	1	0	1	-7,681466	273,604958	310,063669	0
15.01.2021	23:37:28	0	0	4,067398	0,67125	334,1592	-0,069	87,413	0	1017,52	6,4	8,5	8,3	1	1	1	1	1	1	1	1	1	0	1	-3,664553	273,647183	314,276777	0
15.01.2021	23:37:29	0	0	4,971264	0,68775	332,1072	-0,075	87,405	0	1017,44	6,4	8,6	8,3	1	1	1	1	1	1	1	1	1	0	1	-4,298802	273,714352	313,954806	0
15.01.2021	23:37:30	0	0	2,372649	0,7215	327,1536	-0,071	87,43	0	1017,56	6,4	8,5	8,3	1	1	1	1	1	1	1	1	1	0	1	-5,637773	273,739234	312,731577	0
15.01.2021	23:37:31	0	0	3,389498	0,73275	328,9068	-0,077	87,414	0	1017,58	6,4	8,6	8,3	1	1	1	1	1	1	1	1	1	0	1	-5,990134	273,593326	311,70097	0
15.01.2021	23:37:32	0	0	2,824582	0,723	333,8676	-0,071	87,409	0	1017,6	6,4	8,6	8,3	1	1	1	1	1	1	1	1	1	0	1	-9,795631	273,728984	308,526039	0
15.01.2021	23:37:33	0	0	2,598615	0,70725	336,8988	-0,071	87,415	0	1017,54	6,4	8,6	8,3	1	1	1	1	1	1	1	1	1	0	1	-8,104299	273,581701	309,532814	0
15.01.2021	23:37:34	0	0	3,954415	0,6915	333,8604	-0,075	87,42	0	1017,5	6,4	8,6	8,3	1	1	1	1	1	1	1	1	1	0	1	-4,087385	273,650098	313,867494	0
15.01.2021	23:37:35	0	0	3,163532	0,70125	327,8952	-0,071	87,413	0	1017,52	6,4	8,6	8,3	1	1	1	1	1	1	1	1	1	0	1	-3,59408	273,599141	314,124034	0
15.01.2021	23:37:36	0	0	4,745298	0,70425	323,6544	-0,073	87,398	0	1017,56	6,4	8,6	8,3	1	1	1	1	1	1	1	1	1	0	1	-7,540521	273,702653	310,658682	0
15.01.2021	23:37:37	0	0	2,937565	0,68925	333,5724	-0,072	87,409	0	1017,54	6,4	8,6	8,3	1	1	1	1	1	1	1	1	1	0	1	-6,483439	273,597687	311,227922	0
15.01.2021	23:37:38	0	0	4,632314	0,6705	346,7484	-0,068	87,411	0	1017,38	6,4	8,6	8,3	1	1	1	1	1	1	1	1	1	0	1	-9,302326	273,654473	308,672883	0
15.01.2021	23:37:39	0	0	2,824582	0,65175	344,3328	-0,079	87,391	0	1017,5	6,4	8,6	8,3	1	1	1	1	1	1	1	1	1	0	1	-3,100775	273,584606	314,549832	0
15.01.2021	23:37:40	0	0	4,406348	0,6615	339,4296	-0,074	87,386	0	1017,62	6,4	8,6	8,3	1	1	1	1	1	1	1	1	1	0	1	-5,003524	273,680738	313,09378	0
15.01.2021	23:37:41	0	0	2,146682	0,66225	337,4964	-0,074	87,383	0	1017,4	6,4	8,5	8,3	1	1	1	1	1	1	1	1	1	0	1	-4,580691	273,583154	313,063169	0
15.01.2021	23:37:42	0	0	2,711599	0,678	350,1648	-0,074	87,408	0	1017,64	6,4	8,6	8,3	1	1	1	1	1	1	1	1	1	0	1	-8,245243	273,715814	310,015168	0
15.01.2021	23:37:43	0	0	2,259666	0,72	0,4932	-0,068	87,422	0	1017,5	6,4	8,6	8,3	1	1	1	1	1	1	1	1	1	0	1	-5,073996	273,581701	312,563117	0
15.01.2021	23:37:44	0	0	2,824582	0,7515	2,6568	-0,074	87,393	0	1017,64	6,4	8,6	8,3	1	1	1	1	1	1	1	1	1	0	1	-5,426357	273,671979	312,630226	0
15.01.2021	23:37:45	0	0	3,615465	0,74625	0,1332	-0,066	87,404	0	1017,54	6,4	8,6	8,3	1	1	1	1	1	1	1	1	1	0	1	-3,59408	273,578796	314,029541	0
15.01.2021	23:37:46	0	0	4,971264	0,78375	357,0804	-0,07	87,387	0	1017,58	6,4	8,6	8,3	1	1	1	1	1	1	1	1	1	0	1	-9,302326	273,720203	308,978499	0
15.01.2021	23:37:47	0	0	4,971264	0,76425	356,2236	-0,066	87,417	0	1017,6	6,4	8,6	8,3	1	1	1	1	1	1	1	1	1	0	1	-8,174771	273,755352	310,269568	0
15.01.2021	23:37:48	0	0	2,937565	0,765	359,0964	-0,068	87,393	0	1017,5	6,4	8,5	8,3	1	1	1	1	1	1	1	1	1	0	1	-6,553911	273,618052	311,252056	0
15.01.2021	23:37:49	0	0	2,146682	0,7515	0,4968	-0,071	87,407	0	1017,54	6,4	8,5	8,3	1	1	1	1	1	1	1	1	1	0	1	-6,20155	273,634069	311,678835	0
15.01.2021	23:37:50	0	0	3,954415	0,738	3,0204	-0,069	87,383	0	1017,44	6,4	8,6	8,3	1	1	1	1	1	1	1	1	1	0	1	-8,104299	273,775885	310,43559	0
15.01.2021	23:37:51	0	0	3,841431	0,71025	4,0752	-0,073	87,408	0	1017,5	6,4	8,5	8,3	1	1	1	1	1	1	1	1	1	0	1	-1,761804	273,647183	316,179525	0
15.01.2021	23:37:52	0	0	4,519331	0,70725	3,402	-0,067	87,407	0	1017,66	6,4	8,5	8,3	1	1	1	1	1	1	1	1	1	0	1	-4,933051	273,761216	313,538575	0
15.01.2021	23:37:53	0	0	2,372649	0,68325	0	-0,064	87,406	0	1017,54	6,4	8,6	8,3	1	1	1	1	1	1	1	1	1	0	1	-8,245243	273,616597	309,553962	0
15.01.2021	23:37:54	0	0	2,711599	0,66225	352,8	-0,071	87,386	0	1017,54	6,4	8,6	8,3	1	1	1	1	1	1	1	1	1	0	1	-9,725159	273,606412	308,026733	0
15.01.2021	23:37:55	0	0	3,163532	0,7035	347,5908	-0,06	87,399	0	1017,54	6,4	8,5	8,3	1	1	1	1	1	1	1	1	1	0	1	-3,875969	273,623875	313,957051	0
15.01.2021	23:37:56	0	0	3,276515	0,726	350,3088	-0,073	87,396	0	1017,66	6,4	8,5	8,3	1	1	1	1	1	1	1	1	1	0	1	-5,21494	273,584606	312,435667	0
15.01.2021	23:37:57	0	0	4,971264	0,732	356,2632	-0,07	87,386	0	1017,5	6,4	8,5	8,3	1	1	1	1	1	1	1	1	1	0	1	-3,523608	273,689501	314,614438	0
15.01.2021	23:37:58	0	0	4,745298	0,705	357,2928	-0,07	87,406	0	1017,48	6,4	8,5	8,3	1	1	1	1	1	1	1	1	1	0	1	-4,298802	273,593326	313,392302	0
15.01.2021	23:37:59	0	0	2,372649	0,68625	355,446	-0,074	87,396	0	1017,46	6,4	8,6	8,3	1	1	1	1	1	1	1	1	1	0	1	-3,735025	273,717277	314,53219	0
15.01.2021	23:38:00	0	0	5,197231	0,67275	354,6396	-0,067	87,382	0	1017,48	6,4	8,5	8,3	1	1	1	1	1	1	1	1	1	0	1	-6,906272	273,597687	310,805089	0
15.01.2021	23:38:01	0	0	4,745298	0,68175	358,7868	-0,066	87,402	0	1017,68	6,4	8,6	8,3	1	1	1	1	1	1	1	1	1	0	1	-6,20155	273,609322	311,563857	0
15.01.2021	23:38:02	0	0	4,858281	0,672	0,8568	-0,07	87,396	0	1017,52	6,4	8,6	8,3	1	1	1	1	1	1	1	1	1	0	1	-1,198027	273,626787	316,648523	0
15.01.2021	23:38:03	0	0	3,841431	0,6645	357,678	-0,074	87,386	0	1017,58	6,4	8,5	8,3	1	1	1	1	1	1	1	1	1	0	1	-11,41649	273,587513	306,247613	0
15.01.2021	23:38:04	0	0	4,971264	0,67725	352,0908	-0,069	87,381	0	1017,4	6,4	8,6	8,3	1	1	1	1	1	1	1	1	1	0	1	-9,372798	273,743629	309,016996	0
15.01.2021	23:38:05	0	0	4,293365	0,66825	351,1368	-0,061	87,386	0	1017,6	6,4	8,5	8,3	1	1	1	1	1	1	1	1	1	0	1	-2,114165	273,749489	316,302896	0
15.01.2021	23:38:06	0	0	3,050548	0,66525	354,06	-0,073	87,385	0	1017,48	6,4	8,5	8,3	1	1	1	1	1	1	1	1	1	0	1	-5,496829	273,626787	312,349721	0
15.01.2021	23:38:07	0	0	3,954415	0,62625	357,9876	-0,069	87,403	0	1017,36	6,4	8,6	8,3	1	1	1	1	1	1	1	1	1	0	1	-8,527132	273,768549	309,978618	0
15.01.2021	23:38:08	0	0	4,180381	0,6225	356,5656	-0,063	87,376	0	1017,6	6,4	8,5	8,3	1	1	1	1	1	1	1	1	1	0	1	-5,990134	273,660306	312,01219	0
15.01.2021	23:38:09	0	0	4,745298	0,58875	355,7736	-0,067	87,395	0	1017,38	6,4	8,5	8,3	1	1	1	1	1	1	1	1	1	0	1	-5,144468	273,602049	312,587156	0
15.01.2021	23:38:10	0	0	2,711599	0,588	356,2164	-0,066	87,385	0	1017,68	6,4	8,5	8,3	1	1	1	1	1	1	1	1	1	0	1	-3,523608	273,695345	314,641613	0
15.01.2021	23:38:11	0	0	4,971264	0,59925	354,0168	-0,063	87,395	0	1017,56	6,4	8,6	8,3	1	1	1	1	1	1	1	1	1	0	1	-1,198027	273,753886	317,239492	0
15.01.2021	23:38:12	0	0	5,084247	0,56325	340,65	-0,066	87,381	0	1017,56	6,4	8,6	8,3	1	1	1	1	1	1	1	1	1	0	1	-6,8358	273,689501	311,302247	0
15.01.2021	23:38:13	0	0	2,711599	0,5475	324,7452	-0,065	87,384	0	1017,26	6,4	8,6	8,3	1	1	1	1	1	1	1	1	1	0	1	-6,553911	273,765616	311,938187	0
15.01.2021	23:38:14	0	0	2,937565	0,5925	325,5804	-0,06	87,385	0	1017,64	6,4	8,5	8,3	1	1	1	1	1	1	1	1	1	0	1	-6,412967	273,602049	311,318657	0
15.01.2021	23:38:15	0	0	2,937565	0,594	336,168	-0,068	87,386	0	1017,44	6,4	8,6	8,3	1	1	1	1	1	1	1	1	1	0	1	-2,818887	273,727521	315,495974	0
15.01.2021	23:38:16	0	0	4,632314	0,657	339,4152	-0,069	87,387	0	1017,5	6,4	8,6	8,3	1	1	1	1	1	1	1	1	1	0	1	-6,20155	273,720203	312,079275	0
15.01.2021	23:38:17	0	0	2,937565	0,687	340,956	-0,062	87,392	0	1017,54	6,4	8,6	8,3	1	1	1	1	1	1	1	1	1	0	1	-8,879493	273,574439	308,723896	0
15.01.2021	23:38:18	0	0	4,858281	0,68325	342,702	-0,074	87,371	0	1017,58	6,4	8,5	8,3	1	1	1	1	1	1	1	1	1	0	1	-6,8358	273,632612	311,037817	0
15.01.2021	23:38:19	0	0	4,858281	0,68325	345,3696	-0,071	87,385	0	1017,56	6,4	8,5	8,3	1	1	1	1	1	1	1	1	1	0	1	-12,614517	273,596233	305,090091	0
15.01.2021	23:38:20	0	0	3,163532	0,63825	345,7512	-0,069	87,374	0	1017,48	6,4	8,6	8,3	1	1	1	1	1	1	1	1	1	0	1	-5,285412	273,644268	312,64237	0
15.01.2021	23:38:21	0	0	2,937565	0,66525	346,8636	-0,07	87,367	0	1017,5	6,4	8,6	8,3	1	1	1	1	1	1	1	1	1	0	1	-5,778717	273,619508	312,034012	0
15.01.2021	23:38:22	0	0	4,180381	0,6195	346,7844	-0,072	87,36	0	1017,48	6,4	8,6	8,3	1	1	1	1	1	1	1	1	1	0	1	-2,748414	273,702653	315,450789	0
15.01.2021	23:38:23	0	0	3,502461	0,62025	342,3636	-0,066	87,391	0	1017,54	6,4	8,6	8,4	1	1	1	1	1	1	1	1	1	0	1	-7,047216	273,596233	310,657392	0
15.01.2021	23:38:24	0	0	2,259666	0,65925	333,468	-0,075	87,382	0	1017,52	6,4	8,6	8,3	1	1	1	1	1	1	1	1	1	0	1	-7,963354	273,690962	310,181485	0
15.01.2021	23:38:25	0	0	4,971264	0,66825	337,0752	-0,064	87,38	0	1017,52	6,4	8,6	8,3	1	1	1	1	1	1	1	1	1	0	1	-7,892882	273,581701	309,744231	0
15.01.2021	23:38:26	0	0	5,084247	0,69525	349,9488	-0,071	87,37	0	1017,52	6,4	8,5	8,3	1	1	1	1	1	1	1	1	1	0	1	-5,355884	273,693884	312,802542	0
15.01.2021	23:38:27	0	0	2,711599	0,6915	353,268	-0,068	87,39	0	1017,56	6,4	8,6	8,3	1	1	1	1	1	1	1	1	1	0	1	-3,382664	273,574439	314,220725	0
15.01.2021	23:38:28	0	0	5,197231	0,7245	349,4016	-0,067	87,387	0	1017,5	6,4	8,5	8,3	1	1	1	1	1	1	1	1	1	0	1	-7,047216	273,636982	310,846708	0
15.01.2021	23:38:29	0	0	5,084247	0,7245	344,3076	-0,067	87,392	0	1017,58	6,4	8,5	8,3	1	1	1	1	1	1	1	1	1	0	1	-7,82241	273,75242	310,608288	0
15.01.2021	23:38:30	0	0	4,067398	0,75525	340,2648	-0,069	87,387	0	1017,62	6,4	8,5	8,3	1	1	1	1	1	1	1	1	1	0	1	-5,21494	273,600595	312,509929	0
15.01.2021	23:38:31	0	0	3,728448	0,75375	341,7012	-0,067	87,378	0	1017,52	6,4	8,5	8,3	1	1	1	1	1	1	1	1	1	0	1	-5,84919	273,642811	312,07182	0
15.01.2021	23:38:32	0	0	3,728448	0,804	347,2344	-0,07	87,383	0	1017,64	6,4	8,5	8,3	1	1	1	1	1	1	1	1	1	0	1	-6,412967	273,596233	311,291641	0
15.01.2021	23:38:33	0	0	4,406348	0,798	354,6468	-0,06	87,447	0	1017,74	6,4	8,6	8,3	1	1	1	1	1	1	1	1	1	0	1	-4,439746	273,66906	313,603268	0
15.01.2021	23:38:34	0	0	4,745298	0,78225	353,2608	-0,067	87,375	0	1017,4	6,4	8,5	8,3	1	1	1	1	1	1	1	1	1	0	1	-4,862579	273,588966	312,808274	0
15.01.2021	23:38:35	0	0	4,858281	0,735	351,0216	-0,066	87,379	0	1017,62	6,4	8,5	8,3	1	1	1	1	1	1	1	1	1	0	1	-2,396054	273,717277	315,871162	0
15.01.2021	23:38:36	0	0	2,485632	0,7245	352,9224	-0,069	87,377	0	1017,66	6,4	8,6	8,3	1	1	1	1	1	1	1	1	1	0	1	-2,466526	273,597687	315,244836	0
15.01.2021	23:38:37	0	0	3,050548	0,714	356,4756	-0,063	87,396	0	1017,66	6,4	8,6	8,3	1	1	1	1	1	1	1	1	1	0	1	-3,735025	273,674898	314,335129	0
15.01.2021	23:38:38	0	0	4,067398	0,71025	358,4304	-0,064	87,379	0	1017,56	6,4	8,5	8,3	1	1	1	1	1	1	1	1	1	0	1	-9,372798	273,755352	309,071541	0
15.01.2021	23:38:39	0	0	4,632314	0,7035	1,17	-0,067	87,378	0	1017,5	6,4	8,5	8,3	1	1	1	1	1	1	1	1	1	0	1	-5,144468	273,758284	313,313513	0
15.01.2021	23:38:40	0	0	4,406348	0,73875	2,646	-0,064	87,385	0	1017,52	6,4	8,6	8,3	1	1	1	1	1	1	1	1	1	0	1	-2,818887	273,677818	315,264841	0
15.01.2021	23:38:41	0	0	3,502482	0,77025	4,086	-0,068	87,384	0	1017,22	6,4	8,5	8,3	1	1	1	1	1	1	1	1	1	0	1	-8,174771	273,602049	309,556853	0
15.01.2021	23:38:42	0	0	4,293365	0,768	359,9028	-0,069	87,374	0	1017,6	6,4	8,6	8,3	1	1	1	1	1	1	1	1	1	0	1	-5,496829	273,674898	312,573325	0
15.01.2021	23:38:43	0	0	3,389498	0,81225	360	-0,063	87,373	0	1017,34	6,4	8,5	8,3	1	1	1	1	1	1	1	1	1	0	1	-7,047216	273,761216	311,42441	0
15.01.2021	23:38:44	0	0	4,632314	0,7965	0,1404	-0,065	87,391	0	1017,54	6,4	8,6	8,3	1	1	1	1	1	1	1	1	1	0	1	-8,80902	273,714352	309,444587	0
15.01.2021	23:38:45	0	0	3,163532	0,82875	345,3804	-0,067	87,378	0	1017,56	6,4	8,5	8,3	1	1	1	1	1	1	1	1	1	0	1	-4,721635	273,698268	313,457177	0
15.01.2021	23:38:46	0	0	4,519331	0,8715	335,376	-0,07	87,378	0	1017,5	6,4	8,6	8,3	1	1	1	1	1	1	1	1	1	0	1	-6,483439	273,753886	311,954079	0
15.01.2021	23:38:47	0	0	4,519331	0,897	343,5588	-0,064	87,384	0	1017,6	6,4	8,5	8,3	1	1	1	1	1	1	1	1	1	0	1	-3,171247	273,600595	314,553622	0
15.01.2021	23:38:48	0	0	4,293365	0,9195	349,4448	-0,067	87,372	0	1017,6	6,4	8,6	8,3	1	1	1	1	1	1	1	1	1	0	1	-6,131078	273,641353	311,783159	0
15.01.2021	23:38:49	0	0	4,745298	0,936	340,9488	-0,06	87,38	0	1017,36	6,4	8,5	8,3	1	1	1	1	1	1	1	1	1	0	1	-5,496829	273,575891	312,113303	0
15.01.2021	23:38:50	0	0	3,841431	0,94275	339,1308	-0,065	87,39	0	1017,5	6,4	8,6	8,3	1	1	1	1	1	1	1	1	1	0	1	-4,016913	273,693884	314,141513	0
15.01.2021	23:38:51	0	0	3,728448	0,94725	342,8316	-0,065	87,382	0	1017,54	6,4	8,5	8,3	1	1	1	1	1	1	1	1	1	0	1	-4,369274	273,574439	313,234114	0
15.01.2021	23:38:52	0	0	4,406348	0,94275	336,1212	-0,064	87,386	0	1017,5	6,4	8,6	8,3	1	1	1	1	1	1	1	1	1	0	1	-7,963354	273,726057	310,344698	0
15.01.2021	23:38:53	0	0	3,163532	0,99675	332,4096	-0,065	87,389	0	1017,52	6,4	8,5	8,3	1	1	1	1	1	1	1	1	1	0	1	-1,761804	273,588966	315,909049	0
15.01.2021	23:38:54	0	0	4,858281	1,026	347,2884	-0,062	87,395	0	1017,48	6,4	8,6	8,3	1	1	1	1	1	1	1	1	1	0	1	-6,483439	273,72313	311,810998	0
15.01.2021	23:38:55	0	0	4,293365	1,059	351,5076	-0,06	87,39	0	1017,62	6,4	8,5	8,3	1	1	1	1	1	1	1	1	1	0	1	-5,84919	273,698268	312,329623	0
15.01.2021	23:38:56	0	0	4,745298	1,0605	346,5252	-0,063	87,386	0	1017,52	6,4	8,5	8,3	1	1	1	1	1	1	1	1	1	0	1	-7,329105	273,596233	310,375503	0
15.01.2021	23:38:57	0	0	4,293365	1,08	342,0432	-0,067	87,396	0	1017,6	6,4	8,6	8,3	1	1	1	1	1	1	1	1	1	0	1	-5,84919	273,634069	312,031196	0
15.01.2021	23:38:58	0	0	3,615465	1,05075	340,2072	-0,064	87,385	0	1017,5	6,4	8,5	8,3	1	1	1	1	1	1	1	1	1	0	1	-2,184637	273,578796	315,438984	0
15.01.2021	23:38:59	0	0	5,084247	1,05675	340,9596	-0,068	87,378	0	1017,58	6,4	8,6	8,3	1	1	1	1	1	1	1	1	1	0	1	-5,073996	273,657389	312,914769	0
15.01.2021	23:39:00	0	0	4,406348	1,05975	339,1272	-0,068	87,388	0	1017,52	6,4	8,5	8,3	1	1	1	1	1	1	1	1	1	0	1	-3,24172	273,572987	314,354926	0
15.01.2021	23:39:01	0	0	3,615465	1,03425	337,0968	-0,066	87,38	0	1017,54	6,4	8,5	8,3	1	1	1	1	1	1	1	1	1	0	1	-3,312192	273,604958	314,432943	0
15.01.2021	23:39:02	0	0	2,824582	1,0335	336,4128	-0,069	87,374	0	1017,54	6,4	8,5	8,3	1	1	1	1	1	1	1	1	1	0	1	-5,919662	273,619508	311,893068	0
15.01.2021	23:39:03	0	0	4,406348	1,0125	338,4324	-0,061	87,384	0	1017,56	6,4	8,5	8,3	1	1	1	1	1	1	1	1	1	0	1	-6,272023	273,705577	311,940778	0
15.01.2021	23:39:04	0	0	3,841431	1,02225	341,3196	-0,067	87,366	0	1017,34	6,4	8,5	8,3	1	1	1	1	1	1	1	1	1	0	1	-5,355884	273,571535	312,234019	0
15.01.2021	23:39:05	0	0	3,389498	1,02975	330,6888	-0,058	87,375	0	1017,7	6,4	8,5	8,3	1	1	1	1	1	1	1	1	1	0	1	-8,949965	273,71874	309,324055	0
15.01.2021	23:39:06	0	0	4,293365	1,09575	330,7716	-0,066	87,377	0	1017,6	6,4	8,5	8,3	1	1	1	1	1	1	1	1	1	0	1	-9,090909	273,761216	309,380717	0
15.01.2021	23:39:07	0	0	3,050567	1,12275	328,9032	-0,061	87,385	0	1017,7	6,4	8,5	8,2	1	1	1	1	1	1	1	1	1	0	1	-6,553911	273,619508	311,258818	0
15.01.2021	23:39:08	0	0	4,632314	1,11225	321,8472	-0,063	87,381	0	1017,52	6,4	8,5	8,3	1	1	1	1	1	1	1	1	1	0	1	-6,624383	273,623875	311,208636	0
15.01.2021	23:39:09	0	0	2,598631	1,0875	321,5988	-0,064	87,383	0	1017,44	6,4	8,6	8,2	1	1	1	1	1	1	1	1	1	0	1	-5,144468	273,75242	313,286231	0
15.01.2021	23:39:10	0	0	4,632314	1,026	321,9444	-0,064	87,382	0	1017,6	6,4	8,5	8,3	1	1	1	1	1	1	1	1	1	0	1	-2,889359	273,693884	315,269068	0
15.01.2021	23:39:11	0	0	4,858281	0,996	325,17	-0,064	87,371	0	1017,58	6,4	8,5	8,3	1	1	1	1	1	1	1	1	1	0	1	-7,399577	273,762683	311,078872	0
15.01.2021	23:39:12	0	0	4,293365	0,9285	326,7108	-0,063	87,388	0	1017,58	6,4	8,6	8,3	1	1	1	1	1	1	1	1	1	0	1	-4,862579	273,69973	313,323029	0
15.01.2021	23:39:13	0	0	4,406348	0,858	325,9548	-0,063	87,369	0	1017,56	6,4	8,5	8,3	1	1	1	1	1	1	1	1	1	0	1	-6,694856	273,75975	311,769948	0
15.01.2021	23:39:14	0	0	3,841431	0,831	324,3708	-0,067	87,368	0	1017,44	6,4	8,5	8,3	1	1	1	1	1	1	1	1	1	0	1	-1,550388	273,616597	316,248818	0
15.01.2021	23:39:15	0	0	3,389498	0,7605	336,0564	-0,064	87,388	0	1017,54	6,4	8,5	8,3	1	1	1	1	1	1	1	1	1	0	1	-4,439746	273,591872	313,244607	0
15.01.2021	23:39:16	0	0	2,598615	0,7695	352,5048	-0,066	87,382	0	1017,5	6,4	8,5	8,3	1	1	1	1	1	1	1	1	1	0	1	-3,312192	273,615142	314,480253	0
15.01.2021	23:39:17	0	0	4,519331	0,7095	355,0032	-0,06	87,388	0	1017,64	6,4	8,5	8,3	1	1	1	1	1	1	1	1	1	0	1	-9,44327	273,714352	308,810338	0
15.01.2021	23:39:18	0	0	3,276515	0,62625	347,2272	-0,064	87,375	0	1017,56	6,4	8,5	8,3	1	1	1	1	1	1	1	1	1	0	1	-2,60747	273,644268	315,320312	0
15.01.2021	23:39:19	0	0	3,050548	0,57975	343,4904	-0,068	87,372	0	1017,5	6,4	8,6	8,3	1	1	1	1	1	1	1	1	1	0	1	-5,285412	273,770016	313,227164	0
15.01.2021	23:39:20	0	0	3,502482	0,5175	334,2384	-0,063	87,387	0	1017,56	6,4	8,5	8,3	1	1	1	1	1	1	1	1	1	0	1	-4,933051	273,68804	313,198203	0
15.01.2021	23:39:21	0	0	4,180381	0,474	318,7944	-0,063	87,363	0	1017,54	6,4	8,5	8,3	1	1	1	1	1	1	1	1	1	0	1	-2,959831	273,761216	315,511795	0
15.01.2021	23:39:22	0	0	3,276515	0,4515	298,6812	-0,06	87,38	0	1017,62	6,4	8,5	8,3	1	1	1	1	1	1	1	1	1	0	1	-3,523608	273,692423	314,628025	0
15.01.2021	23:39:23	0	0	4,858281	0,471	288,0324	-0,061	87,381	0	1017,6	6,4	8,5	8,3	1	1	1	1	1	1	1	1	1	0	1	-6,20155	273,742164	312,181428	0
15.01.2021	23:39:24	0	0	2,937565	0,453	297,936	-0,061	87,375	0	1017,48	6,4	8,5	8,3	1	1	1	1	1	1	1	1	1	0	1	-4,721635	273,604958	313,0235	0
15.01.2021	23:39:25	0	0	4,745298	0,45075	315,8604	-0,059	87,384	0	1017,56	6,4	8,5	8,3	1	1	1	1	1	1	1	1	1	0	1	-5,84919	273,727521	312,465671	0
15.01.2021	23:39:26	0	0	4,745298	0,453	331,4304	-0,064	87,372	0	1017,66	6,4	8,6	8,3	1	1	1	1	1	1	1	1	1	0	1	-9,44327	273,650098	308,511609	0
15.01.2021	23:39:27	0	0	4,067398	0,45525	335,664	-0,063	87,368	0	1017,6	6,4	8,5	8,3	1	1	1	1	1	1	1	1	1	0	1	-7,047216	273,750955	311,376663	0
15.01.2021	23:39:28	0	0	2,937565	0,4545	329,7132	-0,059	87,385	0	1017,52	6,4	8,5	8,3	1	1	1	1	1	1	1	1	1	0	1	-6,553911	273,676358	311,523029	0
15.01.2021	23:39:29	0	0	4,858281	0,477	317,0052	-0,063	87,375	0	1017,52	6,4	8,5	8,3	1	1	1	1	1	1	1	1	1	0	1	-1,338971	273,739234	317,030379	0
15.01.2021	23:39:30	0	0	4,858281	0,5115	317,0016	-0,062	87,38	0	1017,52	6,4	8,5	8,3	1	1	1	1	1	1	1	1	1	0	1	-3,523608	273,635525	314,363547	0
15.01.2021	23:39:31	0	0	4,632314	0,534	324,3636	-0,066	87,385	0	1017,46	6,4	8,5	8,3	1	1	1	1	1	1	1	1	1	0	1	-2,889359	273,562825	314,660103	0
15.01.2021	23:39:32	0	0	4,293365	0,55275	335,3508	-0,061	87,386	0	1017,5	6,4	8,6	8,3	1	1	1	1	1	1	1	1	1	0	1	-5,285412	273,720203	312,995413	0
15.01.2021	23:39:33	0	0	2,937565	0,558	341,7228	-0,059	87,393	0	1017,58	6,4	8,5	8,3	1	1	1	1	1	1	1	1	1	0	1	-4,157858	273,734841	314,191054	0
15.01.2021	23:39:34	0	0	2,824582	0,63075	327,8448	-0,065	87,366	0	1017,54	6,4	8,6	8,3	1	1	1	1	1	1	1	1	1	0	1	-2,748414	273,623875	315,084605	0
15.01.2021	23:39:35	0	0	4,180381	0,65025	327,1392	-0,063	87,389	0	1017,72	6,4	8,6	8,3	1	1	1	1	1	1	1	1	1	0	1	-6,412967	273,73777	311,94957	0
15.01.2021	23:39:36	0	0	3,841431	0,74475	336,3444	-0,057	87,384	0	1017,6	6,4	8,5	8,3	1	1	1	1	1	1	1	1	1	0	1	-7,610994	273,604958	310,134141	0
15.01.2021	23:39:37	0	0	3,841431	0,75	347,5872	-0,064	87,381	0	1017,48	6,4	8,5	8,3	1	1	1	1	1	1	1	1	1	0	1	-0	273,587513	317,664104	0
15.01.2021	23:39:38	0	0	2,711615	0,7395	355,7736	-0,058	87,392	0	1017,6	6,4	8,5	8,2	1	1	1	1	1	1	1	1	1	0	1	-5,355884	273,56718	312,213795	0
15.01.2021	23:39:39	0	0	5,197231	0,73575	342,4932	-0,058	87,382	0	1017,62	6,4	8,5	8,3	1	1	1	1	1	1	1	1	1	0	1	-1,691332	273,714352	316,562276	0
15.01.2021	23:39:40	0	0	2,711599	0,7395	322,6248	-0,063	87,391	0	1017,58	6,4	8,5	8,3	1	1	1	1	1	1	1	1	1	0	1	-6,483439	273,574439	311,119949	0
15.01.2021	23:39:41	0	0	3,502482	0,7275	327,4128	-0,064	87,39	0	1017,5	6,4	8,5	8,3	1	1	1	1	1	1	1	1	1	0	1	-7,399577	273,692423	310,752056	0
15.01.2021	23:39:42	0	0	3,615465	0,70425	333,8676	-0,064	87,39	0	1017,6	6,4	8,6	8,3	1	1	1	1	1	1	1	1	1	0	1	-6,20155	273,753886	312,235968	0
15.01.2021	23:39:43	0	0	3,163532	0,66525	342,324	-0,067	87,377	0	1017,34	6,4	8,5	8,3	1	1	1	1	1	1	1	1	1	0	1	-4,721635	273,638439	313,17906	0
15.01.2021	23:39:44	0	0	2,598615	0,68775	342,3924	-0,066	87,384	0	1017,62	6,4	8,5	8,3	1	1	1	1	1	1	1	1	1	0	1	-5,355884	273,571535	312,234019	0
15.01.2021	23:39:45	0	0	3,954415	0,7035	340,1352	-0,064	87,396	0	1017,5	6,4	8,5	8,3	1	1	1	1	1	1	1	1	1	0	1	-5,003524	273,638439	312,897171	0
15.01.2021	23:39:46	0	0	4,858281	0,72825	345,006	-0,06	87,404	0	1017,74	6,4	8,5	8,3	1	1	1	1	1	1	1	1	1	0	1	-4,298802	273,575891	313,31133	0
15.01.2021	23:39:47	0	0	4,745298	0,735	342,3672	-0,068	87,39	0	1017,58	6,4	8,5	8,3	1	1	1	1	1	1	1	1	1	0	1	-3,171247	273,726057	315,136805	0
15.01.2021	23:39:48	0	0	4,858281	0,7035	340,1316	-0,062	87,365	0	1017,64	6,4	8,5	8,3	1	1	1	1	1	1	1	1	1	0	1	-3,523608	273,721667	314,764023	0
15.01.2021	23:39:49	0	0	3,615465	0,75525	345,3336	-0,064	87,402	0	1017,6	6,4	8,5	8,3	1	1	1	1	1	1	1	1	1	0	1	-6,906272	273,68658	311,218191	0
15.01.2021	23:39:50	0	0	4,745298	0,73725	353,538	-0,062	87,4	0	1017,44	6,4	8,6	8,3	1	1	1	1	1	1	1	1	1	0	1	-3,735025	273,740699	314,641139	0
15.01.2021	23:39:51	0	0	4,858281	0,7485	6,0552	-0,067	87,393	0	1017,58	6,4	8,5	8,3	1	1	1	1	1	1	1	1	1	0	1	-6,20155	273,692423	311,950082	0
15.01.2021	23:39:52	0	0	3,389519	0,75675	7,5024	-0,057	87,376	0	1017,54	6,4	8,5	8,2	1	1	1	1	1	1	1	1	1	0	1	-4,157858	273,56718	313,411822	0
15.01.2021	23:39:53	0	0	2,372649	0,73725	356,562	-0,061	87,403	0	1017,64	6,4	8,5	8,3	1	1	1	1	1	1	1	1	1	0	1	-4,157858	273,591872	313,526496	0
15.01.2021	23:39:54	0	0	3,728471	0,7365	352,4184	-0,061	87,371	0	1017,54	6,4	8,5	8,2	1	1	1	1	1	1	1	1	1	0	1	-1,761804	273,750955	316,662076	0
15.01.2021	23:39:55	0	0	4,632342	0,696	355,4928	-0,058	87,394	0	1017,68	6,4	8,6	8,2	1	1	1	1	1	1	1	1	1	0	1	-9,020437	273,670519	309,029361	0
15.01.2021	23:39:56	0	0	3,728471	0,65925	356,1516	-0,064	87,375	0	1017,54	6,4	8,5	8,2	1	1	1	1	1	1	1	1	1	0	1	-4,792107	273,742164	313,590871	0
15.01.2021	23:39:57	0	0	4,745298	0,62625	353,2572	-0,064	87,402	0	1017,54	6,4	8,5	8,3	1	1	1	1	1	1	1	1	1	0	1	-8,80902	273,702653	309,390183	0
15.01.2021	23:39:58	0	0	3,163551	0,60975	353,952	-0,062	87,378	0	1017,36	6,4	8,5	8,2	1	1	1	1	1	1	1	1	1	0	1	-3,59408	273,728984	314,727589	0
15.01.2021	23:39:59	0	0	4,067398	0,6045	356,3352	-0,063	87,392	0	1017,64	6,4	8,6	8,3	1	1	1	1	1	1	1	1	1	0	1	-2,818887	273,638439	315,081808	0
15.01.2021	23:40:00	0	0	3,389498	0,6045	353,9448	-0,057	87,39	0	1017,58	6,4	8,5	8,3	1	1	1	1	1	1	1	1	1	0	1	-5,567301	273,580248	312,063066	0
15.01.2021	23:40:01	0	0	4,745298	0,642	338,7348	-0,062	87,399	0	1017,68	6,4	8,5	8,3	1	1	1	1	1	1	1	1	1	0	1	-9,513742	273,629699	308,34634	0
15.01.2021	23:40:02	0	0	4,745326	0,657	336,3912	-0,063	87,401	0	1017,6	6,4	8,5	8,2	1	1	1	1	1	1	1	1	1	0	1	-1,902748	273,570083	315,680413	0
15.01.2021	23:40:03	0	0	4,745298	0,70575	346,6296	-0,064	87,378	0	1017,7	6,4	8,5	8,3	1	1	1	1	1	1	1	1	1	0	1	-9,936575	273,702653	308,262629	0
15.01.2021	23:40:04	0	0	3,276515	0,79275	350,2188	-0,057	87,391	0	1017,36	6,4	8,6	8,3	1	1	1	1	1	1	1	1	1	0	1	-2,325581	273,597687	315,38578	0
15.01.2021	23:40:05	0	0	4,632314	0,8415	345,7044	-0,062	87,402	0	1017,68	6,4	8,5	8,3	1	1	1	1	1	1	1	1	1	0	1	-4,580691	273,692423	313,570942	0
15.01.2021	23:40:06	0	0	4,745298	0,88575	350,2728	-0,064	87,398	0	1017,56	6,4	8,5	8,3	1	1	1	1	1	1	1	1	1	0	1	-4,580691	273,72313	313,713747	0
15.01.2021	23:40:07	0	0	4,745298	0,849	356,2272	-0,063	87,388	0	1017,46	6,4	8,5	8,3	1	1	1	1	1	1	1	1	1	0	1	-5,990134	273,742164	312,392845	0
15.01.2021	23:40:08	0	0	4,293365	0,86775	350,6544	-0,067	87,38	0	1017,42	6,4	8,5	8,3	1	1	1	1	1	1	1	1	1	0	1	-5,21494	273,696807	312,957076	0
15.01.2021	23:40:09	0	0	3,389498	0,82725	352,1268	-0,063	87,399	0	1017,68	6,4	8,5	8,3	1	1	1	1	1	1	1	1	1	0	1	-6,624383	273,66906	311,418631	0
15.01.2021	23:40:10	0	0	3,502482	0,8325	348,66	-0,063	87,392	0	1017,52	6,4	8,5	8,3	1	1	1	1	1	1	1	1	1	0	1	-3,523608	273,748024	314,886635	0
15.01.2021	23:40:11	0	0	4,632314	0,83325	345,1896	-0,064	87,374	0	1017,6	6,4	8,5	8,3	1	1	1	1	1	1	1	1	1	0	1	-6,412967	273,628243	311,440349	0
15.01.2021	23:40:12	0	0	4,85831	0,834	346,0896	-0,058	87,396	0	1017,64	6,4	8,6	8,2	1	1	1	1	1	1	1	1	1	0	1	-5,426357	273,726057	312,881695	0
15.01.2021	23:40:13	0	0	3,502482	0,81	349,1352	-0,064	87,389	0	1017,68	6,4	8,5	8,3	1	1	1	1	1	1	1	1	1	0	1	-4,933051	273,739234	313,436298	0
15.01.2021	23:40:14	0	0	4,745298	0,8115	346,5612	-0,062	87,373	0	1017,58	6,4	8,5	8,3	1	1	1	1	1	1	1	1	1	0	1	-6,765328	273,638439	311,135367	0
15.01.2021	23:40:15	0	0	2,485632	0,78225	341,3412	-0,066	87,398	0	1017,5	6,4	8,5	8,3	1	1	1	1	1	1	1	1	1	0	1	-5,990134	273,558472	311,539115	0
15.01.2021	23:40:16	0	0	3,954415	0,753	340,6104	-0,063	87,396	0	1017,54	6,4	8,5	8,3	1	1	1	1	1	1	1	1	1	0	1	-5,003524	273,709964	313,229678	0
15.01.2021	23:40:17	0	0	3,841454	0,74775	343,9944	-0,061	87,396	0	1017,42	6,4	8,5	8,2	1	1	1	1	1	1	1	1	1	0	1	-0,845666	273,707039	317,373934	0
15.01.2021	23:40:18	0	0	2,485632	0,723	341,7192	-0,059	87,39	0	1017,58	6,4	8,5	8,3	1	1	1	1	1	1	1	1	1	0	1	-6,272023	273,561374	311,270701	0
15.01.2021	23:40:19	0	0	2,598615	0,74775	340,2504	-0,058	87,401	0	1017,36	6,4	8,5	8,3	1	1	1	1	1	1	1	1	1	0	1	-4,580691	273,632612	313,292927	0
15.01.2021	23:40:20	0	0	4,519331	0,7125	340,2576	-0,061	87,392	0	1017,6	6,4	8,5	8,3	1	1	1	1	1	1	1	1	1	0	1	-8,949965	273,749489	309,467096	0
15.01.2021	23:40:21	0	0	4,180381	0,7275	344,6928	-0,063	87,387	0	1017,62	6,4	8,5	8,3	1	1	1	1	1	1	1	1	1	0	1	-0	273,615142	317,792445	0
15.01.2021	23:40:22	0	0	2,937565	0,6795	347,94	-0,065	87,398	0	1017,66	6,4	8,5	8,3	1	1	1	1	1	1	1	1	1	0	1	-5,426357	273,561374	312,116367	0
15.01.2021	23:40:23	0	0	2,5986	0,669	343,9296	-0,068	87,394	0	1017,52	6,4	8,5	8,4	1	1	1	1	1	1	1	1	1	0	1	-9,302326	273,603503	308,436054	0
15.01.2021	23:40:24	0	0	4,519331	0,67275	341,6112	-0,063	87,401	0	1017,48	6,4	8,5	8,3	1	1	1	1	1	1	1	1	1	0	1	-8,527132	273,748024	309,883112	0
15.01.2021	23:40:25	0	0	4,29339	0,678	344,7216	-0,059	87,402	0	1017,64	6,4	8,5	8,2	1	1	1	1	1	1	1	1	1	0	1	-5,285412	273,599141	312,432703	0
15.01.2021	23:40:26	0	0	2,711615	0,7005	346,1688	-0,064	87,399	0	1017,48	6,4	8,5	8,2	1	1	1	1	1	1	1	1	1	0	1	-2,043693	273,73777	316,318844	0
15.01.2021	23:40:27	0	0	4,406348	0,73425	347,1948	-0,064	87,386	0	1017,6	6,4	8,5	8,3	1	1	1	1	1	1	1	1	1	0	1	-5,708245	273,645725	312,22631	0
15.01.2021	23:40:28	0	0	3,389498	0,74175	344,7288	-0,06	87,392	0	1017,6	6,4	8,5	8,3	1	1	1	1	1	1	1	1	1	0	1	-4,439746	273,565728	313,123193	0
15.01.2021	23:40:29	0	0	2,259666	0,789	343,0368	-0,06	87,404	0	1017,56	6,4	8,5	8,3	1	1	1	1	1	1	1	1	1	0	1	-6,483439	273,667601	311,552792	0
15.01.2021	23:40:30	0	0	2,485647	0,78075	349,1028	-0,064	87,375	0	1017,46	6,4	8,5	8,2	1	1	1	1	1	1	1	1	1	0	1	-5,708245	273,55412	311,800797	0
15.01.2021	23:40:31	0	0	4,632314	0,807	352,7892	-0,057	87,394	0	1017,46	6,4	8,5	8,3	1	1	1	1	1	1	1	1	1	0	1	-4,298802	273,685119	313,81887	0
15.01.2021	23:40:32	0	0	5,197231	0,77925	345,6936	-0,065	87,386	0	1017,5	6,4	8,5	8,3	1	1	1	1	1	1	1	1	1	0	1	-2,396054	273,588966	315,274799	0
15.01.2021	23:40:33	0	0	4,632314	0,76425	344,8008	-0,057	87,405	0	1017,64	6,4	8,5	8,3	1	1	1	1	1	1	1	1	1	0	1	-6,483439	273,698268	311,695373	0
15.01.2021	23:40:34	0	0	4,85831	0,75825	348,084	-0,057	87,375	0	1017,5	6,4	8,5	8,2	1	1	1	1	1	1	1	1	1	0	1	-6,060606	273,565728	311,502333	0
15.01.2021	23:40:35	0	0	3,163551	0,7695	346,14	-0,063	87,377	0	1017,44	6,4	8,5	8,2	1	1	1	1	1	1	1	1	1	0	1	-0,352361	273,636982	317,541564	0
15.01.2021	23:40:36	0	0	3,163551	0,75675	350,298	-0,058	87,398	0	1017,54	6,4	8,5	8,2	1	1	1	1	1	1	1	1	1	0	1	-8,738548	273,56718	308,831131	0
15.01.2021	23:40:37	0	0	4,180381	0,786	352,8036	-0,054	87,389	0	1017,64	6,4	8,5	8,3	1	1	1	1	1	1	1	1	1	0	1	-2,255109	273,664683	315,767557	0
15.01.2021	23:40:38	0	0	4,632342	0,759	352,8792	-0,061	87,391	0	1017,6	6,4	8,5	8,2	1	1	1	1	1	1	1	1	1	0	1	-4,016913	273,73777	314,345623	0
15.01.2021	23:40:39	0	0	4,293339	0,77175	349,4736	-0,06	87,406	0	1017,62	6,4	8,5	8,4	1	1	1	1	1	1	1	1	1	0	1	-0,98661	273,670519	317,063188	0
15.01.2021	23:40:40	0	0	2,711599	0,7275	343,8756	-0,059	87,395	0	1017,56	6,4	8,5	8,3	1	1	1	1	1	1	1	1	1	0	1	-4,792107	273,731912	313,543182	0
15.01.2021	23:40:41	0	0	2,598631	0,7365	342,3852	-0,056	87,391	0	1017,52	6,4	8,5	8,2	1	1	1	1	1	1	1	1	1	0	1	-7,258633	273,69973	310,926976	0
15.01.2021	23:40:42	0	0	2,824582	0,756	337,5324	-0,061	87,4	0	1017,66	6,4	8,5	8,3	1	1	1	1	1	1	1	1	1	0	1	-4,721635	273,612231	313,05729	0
15.01.2021	23:40:43	0	0	4,293365	0,75075	335,4048	-0,058	87,403	0	1017,58	6,4	8,5	8,3	1	1	1	1	1	1	1	1	1	0	1	-3,805497	273,696807	314,36652	0
15.01.2021	23:40:44	0	0	4,632314	0,71925	339,7968	-0,066	87,391	0	1017,4	6,4	8,5	8,3	1	1	1	1	1	1	1	1	1	0	1	-4,510218	273,709964	313,722983	0
15.01.2021	23:40:45	0	0	3,728448	0,72675	344,3112	-0,057	87,403	0	1017,36	6,4	8,5	8,3	1	1	1	1	1	1	1	1	1	0	1	-4,792107	273,581701	312,845006	0
15.01.2021	23:40:46	0	0	4,745326	0,71775	344,0232	-0,059	87,396	0	1017,56	6,4	8,5	8,2	1	1	1	1	1	1	1	1	1	0	1	-3,030303	273,680738	315,067	0
15.01.2021	23:40:47	0	0	2,824582	0,70875	339,462	-0,065	87,391	0	1017,58	6,4	8,6	8,3	1	1	1	1	1	1	1	1	1	0	1	-7,047216	273,765616	311,444882	0
15.01.2021	23:40:48	0	0	2,598615	0,69225	340,5528	-0,065	87,4	0	1017,54	6,4	8,5	8,3	1	1	1	1	1	1	1	1	1	0	1	-5,073996	273,660306	312,928328	0
15.01.2021	23:40:49	0	0	3,502482	0,6765	345,0276	-0,06	87,399	0	1017,64	6,4	8,5	8,3	1	1	1	1	1	1	1	1	1	0	1	-5,144468	273,733377	313,197632	0
15.01.2021	23:40:50	0	0	4,519358	0,681	345,4272	-0,053	87,401	0	1017,5	6,4	8,5	8,2	1	1	1	1	1	1	1	1	1	0	1	-8,738548	273,639896	309,168917	0
15.01.2021	23:40:51	0	0	3,502482	0,69375	340,1784	-0,057	87,402	0	1017,4	6,4	8,5	8,3	1	1	1	1	1	1	1	1	1	0	1	-2,889359	273,734841	315,459553	0
15.01.2021	23:40:52	0	0	3,276535	0,663	337,5108	-0,058	87,4	0	1017,64	6,4	8,5	8,2	1	1	1	1	1	1	1	1	1	0	1	-7,258633	273,597687	310,452728	0
15.01.2021	23:40:53	0	0	3,954438	0,70875	339,8508	-0,06	87,392	0	1017,54	6,4	8,5	8,2	1	1	1	1	1	1	1	1	1	0	1	-2,677942	273,71874	315,596077	0
15.01.2021	23:40:54	0	0	3,389519	0,693	341,3304	-0,056	87,39	0	1017,58	6,4	8,5	8,2	1	1	1	1	1	1	1	1	1	0	1	-3,735025	273,711426	314,504978	0
15.01.2021	23:40:55	0	0	2,598631	0,672	339,1488	-0,059	87,403	0	1017,42	6,4	8,5	8,2	1	1	1	1	1	1	1	1	1	0	1	-1,550388	273,575891	316,059745	0
15.01.2021	23:40:56	0	0	2,824582	0,66	336,7836	-0,057	87,41	0	1017,56	6,4	8,5	8,3	1	1	1	1	1	1	1	1	1	0	1	-4,721635	273,597687	312,989726	0
15.01.2021	23:40:57	0	0	2,598615	0,61125	337,0968	-0,055	87,399	0	1017,52	6,4	8,5	8,3	1	1	1	1	1	1	1	1	1	0	1	-1,691332	273,591872	315,993021	0
15.01.2021	23:40:58	0	0	3,615487	0,59925	338,7348	-0,055	87,41	0	1017,64	6,4	8,5	8,2	1	1	1	1	1	1	1	1	1	0	1	-2,043693	273,702653	316,155511	0
15.01.2021	23:40:59	0	0	2,598631	0,56175	338,31	-0,058	87,407	0	1017,58	6,4	8,5	8,2	1	1	1	1	1	1	1	1	1	0	1	-7,258633	273,609322	310,506774	0
15.01.2021	23:41:00	0	0	5,310246	0,5745	336,0888	-0,062	87,402	0	1017,66	6,4	8,5	8,2	1	1	1	1	1	1	1	1	1	0	1	-2,748414	273,578796	314,875207	0
15.01.2021	23:41:01	0	0	2,824599	0,53475	336,114	-0,053	87,41	0	1017,64	6,4	8,5	8,2	1	1	1	1	1	1	1	1	1	0	1	-6,342495	273,702653	311,856709	0
15.01.2021	23:41:02	0	0	3,389519	0,525	334,692	-0,057	87,402	0	1017,74	6,4	8,5	8,2	1	1	1	1	1	1	1	1	1	0	1	-6,906272	273,71874	311,367748	0
15.01.2021	23:41:03	0	0	3,389519	0,531	334,224	-0,061	87,409	0	1017,46	6,4	8,5	8,2	1	1	1	1	1	1	1	1	1	0	1	-8,104299	273,564277	309,451901	0
15.01.2021	23:41:04	0	0	2,937565	0,51525	335,9124	-0,059	87,407	0	1017,52	6,4	8,5	8,3	1	1	1	1	1	1	1	1	1	0	1	-5,567301	273,597687	312,14406	0
15.01.2021	23:41:05	0	0	3,615465	0,51525	336,7332	-0,056	87,406	0	1017,62	6,4	8,5	8,3	1	1	1	1	1	1	1	1	1	0	1	-4,510218	273,619508	313,302511	0
15.01.2021	23:41:06	0	0	4,971264	0,546	338,688	-0,055	87,397	0	1017,6	6,4	8,5	8,3	1	1	1	1	1	1	1	1	1	0	1	-9,020437	273,726057	309,287615	0
15.01.2021	23:41:07	0	0	4,971294	0,5355	339,2388	-0,062	87,403	0	1017,66	6,4	8,5	8,2	1	1	1	1	1	1	1	1	1	0	1	-5,708245	273,591872	311,976108	0
15.01.2021	23:41:08	0	0	2,146695	0,5715	338,796	-0,053	87,403	0	1017,64	6,4	8,5	8,2	1	1	1	1	1	1	1	1	1	0	1	-1,973221	273,557021	315,549292	0
15.01.2021	23:41:09	0	0	4,180406	0,58275	340,2252	-0,062	87,398	0	1017,56	6,4	8,5	8,2	1	1	1	1	1	1	1	1	1	0	1	-6,20155	273,648641	311,746554	0
15.01.2021	23:41:10	0	0	2,711599	0,6195	343,6452	-0,061	87,398	0	1017,56	6,4	8,5	8,3	1	1	1	1	1	1	1	1	1	0	1	-5,003524	273,584606	312,647084	0
15.01.2021	23:41:11	0	0	4,745298	0,6525	346,9536	-0,06	87,385	0	1017,46	6,4	8,5	8,3	1	1	1	1	1	1	1	1	1	0	1	-5,144468	273,548318	312,33764	0
15.01.2021	23:41:12	0	0	4,406348	0,669	347,5656	-0,062	87,393	0	1017,54	6,4	8,5	8,3	1	1	1	1	1	1	1	1	1	0	1	-6,060606	273,658848	311,934938	0
15.01.2021	23:41:13	0	0	3,615443	0,717	345,0744	-0,06	87,396	0	1017,5	6,3	8,5	8,4	1	1	1	1	1	1	1	1	1	0	1	-6,342495	273,55557	311,173282	0
15.01.2021	23:41:14	0	0	2,824599	0,7515	338,3604	-0,053	87,401	0	1017,62	6,4	8,5	8,2	1	1	1	1	1	1	1	1	1	0	1	-0,281889	273,704115	317,924113	0
15.01.2021	23:41:15	0	0	4,180406	0,789	341,2836	-0,054	87,402	0	1017,66	6,4	8,5	8,2	1	1	1	1	1	1	1	1	1	0	1	-2,325581	273,702653	315,873622	0
15.01.2021	23:41:16	0	0	3,841454	0,804	342,72	-0,057	87,407	0	1017,54	6,4	8,5	8,2	1	1	1	1	1	1	1	1	1	0	1	-6,412967	273,590419	311,264636	0
15.01.2021	23:41:17	0	0	4,632342	0,86175	337,158	-0,056	87,398	0	1017,54	6,4	8,5	8,2	1	1	1	1	1	1	1	1	1	0	1	-6,272023	273,728984	312,049647	0
15.01.2021	23:41:18	0	0	3,841454	0,888	336,438	-0,059	87,379	0	1017,62	6,4	8,5	8,2	1	1	1	1	1	1	1	1	1	0	1	-4,439746	273,623875	313,393274	0
15.01.2021	23:41:19	0	0	3,728471	0,8955	340,6212	-0,057	87,371	0	1017,62	6,4	8,5	8,2	1	1	1	1	1	1	1	1	1	0	1	-4,862579	273,55412	312,646463	0
15.01.2021	23:41:20	0	0	3,728448	0,9105	342,7308	-0,061	87,376	0	1017,48	6,3	8,5	8,3	1	1	1	1	1	1	1	1	1	0	1	-3,735025	273,583154	313,908835	0
15.01.2021	23:41:21	0	0	3,615465	0,9135	334,2528	-0,057	87,375	0	1017,58	6,4	8,5	8,3	1	1	1	1	1	1	1	1	1	0	1	-1,550388	273,709964	316,682814	0
15.01.2021	23:41:22	0	0	4,745269	0,99525	327,2436	-0,051	87,388	0	1017,4	6,4	8,5	8,4	1	1	1	1	1	1	1	1	1	0	1	-8,879493	273,733377	309,462608	0
15.01.2021	23:41:23	0	0	4,180406	1,02	343,458	-0,053	87,391	0	1017,56	6,4	8,5	8,2	1	1	1	1	1	1	1	1	1	0	1	-6,483439	273,583154	311,160421	0
15.01.2021	23:41:24	0	0	3,502503	1,04325	350,334	-0,057	87,389	0	1017,54	6,4	8,5	8,2	1	1	1	1	1	1	1	1	1	0	1	-3,312192	273,548318	314,169916	0
15.01.2021	23:41:25	0	0	4,406374	1,10625	343,512	-0,053	87,39	0	1017,64	6,4	8,5	8,2	1	1	1	1	1	1	1	1	1	0	1	-0	273,623875	317,83302	0
15.01.2021	23:41:26	0	0	3,841431	1,062	343,5984	-0,056	87,388	0	1017,58	6,4	8,5	8,3	1	1	1	1	1	1	1	1	1	0	1	-7,892882	273,730448	310,435597	0
15.01.2021	23:41:27	0	0	4,293365	1,07475	345,0852	-0,055	87,377	0	1017,5	6,4	8,5	8,3	1	1	1	1	1	1	1	1	1	0	1	-5,778717	273,69973	312,406891	0
15.01.2021	23:41:28	0	0	2,711615	1,131	346,464	-0,06	87,39	0	1017,58	6,4	8,5	8,2	1	1	1	1	1	1	1	1	1	0	1	-3,171247	273,612231	314,607677	0
15.01.2021	23:41:29	0	0	2,824565	1,14075	337,6044	-0,055	87,391	0	1017,42	6,4	8,5	8,4	1	1	1	1	1	1	1	1	1	0	1	-7,329105	273,721667	310,958526	0
15.01.2021	23:41:30	0	0	4,85831	1,0965	332,0568	-0,053	87,393	0	1017,56	6,4	8,5	8,2	1	1	1	1	1	1	1	1	1	0	1	-5,990134	273,711426	312,249869	0
15.01.2021	23:41:31	0	0	4,971294	1,0755	345,7152	-0,059	87,381	0	1017,4	6,3	8,5	8,2	1	1	1	1	1	1	1	1	1	0	1	-9,725159	273,68804	308,406096	0
15.01.2021	23:41:32	0	0	4,180406	1,04475	343,0872	-0,056	87,379	0	1017,44	6,4	8,5	8,2	1	1	1	1	1	1	1	1	1	0	1	-6,624383	273,71874	311,649636	0
15.01.2021	23:41:33	0	0	2,824582	1,03275	332,424	-0,056	87,388	0	1017,5	6,4	8,5	8,3	1	1	1	1	1	1	1	1	1	0	1	-7,188161	273,590419	310,489442	0
15.01.2021	23:41:34	0	0	2,824582	1,01775	327,1176	-0,052	87,394	0	1017,56	6,4	8,5	8,3	1	1	1	1	1	1	1	1	1	0	1	-8,949965	273,673438	309,113403	0
15.01.2021	23:41:35	0	0	4,406374	1,0395	338,8212	-0,053	87,387	0	1017,48	6,4	8,5	8,2	1	1	1	1	1	1	1	1	1	0	1	-1,338971	273,53672	316,089298	0
15.01.2021	23:41:36	0	0	2,711615	1,068	338,0688	-0,06	87,385	0	1017,48	6,4	8,5	8,2	1	1	1	1	1	1	1	1	1	0	1	-6,694856	273,736305	311,660868	0
15.01.2021	23:41:37	0	0	3,728471	1,14225	327,7404	-0,053	87,385	0	1017,48	6,4	8,5	8,2	1	1	1	1	1	1	1	1	1	0	1	-6,272023	273,653014	311,696409	0
15.01.2021	23:41:38	0	0	4,180381	1,2195	334,1844	-0,054	87,397	0	1017,5	6,4	8,5	8,3	1	1	1	1	1	1	1	1	1	0	1	-2,818887	273,734841	315,530025	0
15.01.2021	23:41:39	0	0	2,485647	1,2525	333,5076	-0,056	87,379	0	1017,48	6,4	8,5	8,2	1	1	1	1	1	1	1	1	1	0	1	-5,637773	273,679278	312,452742	0
15.01.2021	23:41:40	0	0	2,598631	1,2615	333,1656	-0,057	87,38	0	1017,56	6,4	8,5	8,2	1	1	1	1	1	1	1	1	1	0	1	-6,976744	273,726057	311,331308	0
15.01.2021	23:41:41	0	0	3,954438	1,278	332,0424	-0,056	87,385	0	1017,6	6,4	8,5	8,2	1	1	1	1	1	1	1	1	1	0	1	-7,540521	273,641353	310,373716	0
15.01.2021	23:41:42	0	0	2,937565	1,3185	337,9572	-0,05	87,392	0	1017,54	6,4	8,5	8,3	1	1	1	1	1	1	1	1	1	0	1	-1,691332	273,571535	315,898571	0
15.01.2021	23:41:43	0	0	5,084278	1,335	337,572	-0,048	87,403	0	1017,74	6,4	8,5	8,2	1	1	1	1	1	1	1	1	1	0	1	-1,973221	273,705577	316,23958	0
15.01.2021	23:41:44	0	0	5,084247	1,2915	339,3936	-0,054	87,391	0	1017,54	6,4	8,5	8,3	1	1	1	1	1	1	1	1	1	0	1	-3,24172	273,698268	314,937093	0
15.01.2021	23:41:45	0	0	4,745298	1,27875	342,036	-0,053	87,383	0	1017,54	6,4	8,5	8,3	1	1	1	1	1	1	1	1	1	0	1	-1,479915	273,584606	316,170692	0
15.01.2021	23:41:46	0	0	2,598631	1,25775	337,086	-0,05	87,389	0	1017,54	6,4	8,5	8,2	1	1	1	1	1	1	1	1	1	0	1	-4,369274	273,559923	313,166712	0
15.01.2021	23:41:47	0	0	2,485632	1,2705	334,2348	-0,051	87,37	0	1017,32	6,4	8,5	8,3	1	1	1	1	1	1	1	1	1	0	1	-9,020437	273,71874	309,253583	0
15.01.2021	23:41:48	0	0	3,163551	1,233	333,4392	-0,058	87,386	0	1017,5	6,4	8,5	8,2	1	1	1	1	1	1	1	1	1	0	1	-9,372798	273,602049	308,358826	0
15.01.2021	23:41:49	0	0	4,745298	1,1865	328,1868	-0,056	87,379	0	1017,36	6,4	8,5	8,3	1	1	1	1	1	1	1	1	1	0	1	-9,513742	273,731912	308,821547	0
15.01.2021	23:41:50	0	0	5,084247	1,218	327,1104	-0,053	87,387	0	1017,62	6,4	8,5	8,3	1	1	1	1	1	1	1	1	1	0	1	-8,879493	273,677818	309,204235	0
15.01.2021	23:41:51	0	0	4,632342	1,2045	336,4056	-0,053	87,38	0	1017,6	6,4	8,5	8,2	1	1	1	1	1	1	1	1	1	0	1	-7,540521	273,72313	310,753916	0
15.01.2021	23:41:52	0	0	2,598615	1,19325	327,4488	-0,055	87,375	0	1017,3	6,4	8,5	8,3	1	1	1	1	1	1	1	1	1	0	1	-7,188161	273,645725	310,746395	0
15.01.2021	23:41:53	0	0	2,598631	1,17375	315,8568	-0,057	87,384	0	1017,46	6,4	8,5	8,2	1	1	1	1	1	1	1	1	1	0	1	-1,409443	273,541069	316,039011	0
15.01.2021	23:41:54	0	0	3,615465	1,15575	316,188	-0,053	87,38	0	1017,58	6,4	8,5	8,3	1	1	1	1	1	1	1	1	1	0	1	-5,285412	273,660306	312,716911	0
15.01.2021	23:41:55	0	0	3,841454	1,1355	315,2664	-0,05	87,387	0	1017,44	6,4	8,5	8,2	1	1	1	1	1	1	1	1	1	0	1	-6,765328	273,721667	311,522303	0
15.01.2021	23:41:56	0	0	3,163551	1,15725	318,4704	-0,057	87,383	0	1017,68	6,4	8,5	8,2	1	1	1	1	1	1	1	1	1	0	1	-7,540521	273,604958	310,204614	0
15.01.2021	23:41:57	0	0	2,824599	1,24725	319,6188	-0,057	87,379	0	1017,66	6,4	8,5	8,2	1	1	1	1	1	1	1	1	1	0	1	-2,325581	273,541069	315,122873	0
15.01.2021	23:41:58	0	0	2,937583	1,245	315,2628	-0,051	87,368	0	1017,54	6,4	8,5	8,2	1	1	1	1	1	1	1	1	1	0	1	-1,268499	273,619508	316,54423	0
15.01.2021	23:41:59	0	0	4,29339	1,2405	308,556	-0,06	87,363	0	1017,4	6,4	8,5	8,2	1	1	1	1	1	1	1	1	1	0	1	-5,708245	273,726057	312,599807	0
15.01.2021	23:42:00	0	0	4,180406	1,26075	305,1684	-0,052	87,362	0	1017,42	6,3	8,5	8,2	1	1	1	1	1	1	1	1	1	0	1	-8,033827	273,584606	309,61678	0
15.01.2021	23:42:01	0	0	3,050567	1,1895	325,548	-0,051	87,363	0	1017,62	6,4	8,5	8,2	1	1	1	1	1	1	1	1	1	0	1	-6,694856	273,71874	311,579164	0
15.01.2021	23:42:02	0	0	4,180406	1,182	314,424	-0,051	87,36	0	1017,4	6,4	8,5	8,2	1	1	1	1	1	1	1	1	1	0	1	-7,117689	273,702653	311,081515	0
15.01.2021	23:42:03	0	0	3,389519	1,11525	307,5984	-0,051	87,354	0	1017,48	6,3	8,5	8,2	1	1	1	1	1	1	1	1	1	0	1	-8,597604	273,557021	308,924909	0
15.01.2021	23:42:04	0	0	2,824599	1,065	321,0588	-0,057	87,349	0	1017,46	6,4	8,5	8,2	1	1	1	1	1	1	1	1	1	0	1	-7,610994	273,645725	310,323562	0
15.01.2021	23:42:05	0	0	3,163551	0,9915	325,5624	-0,049	87,361	0	1017,42	6,4	8,5	8,2	1	1	1	1	1	1	1	1	1	0	1	-7,399577	273,715814	310,860834	0
15.01.2021	23:42:06	0	0	3,389498	0,87675	327,8628	-0,058	87,357	0	1017,54	6,4	8,5	8,3	1	1	1	1	1	1	1	1	1	0	1	-4,369274	273,689501	313,768773	0
15.01.2021	23:42:07	0	0	2,711599	0,882	325,1664	-0,051	87,361	0	1017,46	6,4	8,5	8,3	1	1	1	1	1	1	1	1	1	0	1	-3,523608	273,584606	314,126999	0
15.01.2021	23:42:08	0	0	3,050567	0,8625	323,3664	-0,054	87,339	0	1017,48	6,4	8,5	8,2	1	1	1	1	1	1	1	1	1	0	1	-4,933051	273,558472	312,596197	0
15.01.2021	23:42:09	0	0	4,29339	0,846	324,162	-0,052	87,348	0	1017,66	6,4	8,5	8,2	1	1	1	1	1	1	1	1	1	0	1	-2,043693	273,642811	315,877317	0
15.01.2021	23:42:10	0	0	4,85831	0,774	328,2192	-0,051	87,347	0	1017,46	6,3	8,5	8,2	1	1	1	1	1	1	1	1	1	0	1	-8,668076	273,692423	309,483557	0
15.01.2021	23:42:11	0	0	4,632314	0,7605	324,0756	-0,055	87,338	0	1017,62	6,3	8,5	8,3	1	1	1	1	1	1	1	1	1	0	1	-3,875969	273,733377	314,466131	0
15.01.2021	23:42:12	0	0	2,937565	0,71475	314,5248	-0,057	87,335	0	1017,6	6,4	8,5	8,3	1	1	1	1	1	1	1	1	1	0	1	-5,426357	273,726057	312,881695	0
15.01.2021	23:42:13	0	0	3,163551	0,672	321,1776	-0,057	87,339	0	1017,56	6,3	8,5	8,2	1	1	1	1	1	1	1	1	1	0	1	-5,990134	273,644268	311,937648	0
15.01.2021	23:42:14	0	0	2,824565	0,65925	327,8088	-0,05	87,358	0	1017,46	6,4	8,5	8,4	1	1	1	1	1	1	1	1	1	0	1	-6,765328	273,548318	310,71678	0
15.01.2021	23:42:15	0	0	4,067398	0,69975	319,2012	-0,054	87,34	0	1017,5	6,3	8,5	8,3	1	1	1	1	1	1	1	1	1	0	1	-4,721635	273,674898	313,348519	0
15.01.2021	23:42:16	0	0	4,519358	0,7725	324,7524	-0,056	87,345	0	1017,46	6,4	8,5	8,2	1	1	1	1	1	1	1	1	1	0	1	-4,721635	273,549768	312,767206	0
15.01.2021	23:42:17	0	0	2,824599	0,8145	341,334	-0,055	87,333	0	1017,56	6,3	8,5	8,2	1	1	1	1	1	1	1	1	1	0	1	-4,298802	273,655931	313,683185	0
15.01.2021	23:42:18	0	0	3,841431	0,86325	329,2416	-0,059	87,345	0	1017,58	6,4	8,5	8,3	1	1	1	1	1	1	1	1	1	0	1	-10,852713	273,53672	306,575556	0
15.01.2021	23:42:19	0	0	2,598631	0,8505	333,2052	-0,056	87,339	0	1017,74	6,4	8,5	8,2	1	1	1	1	1	1	1	1	1	0	1	-5,708245	273,580248	311,922122	0
15.01.2021	23:42:20	0	0	2,598631	0,831	331,9488	-0,056	87,342	0	1017,58	6,4	8,5	8,2	1	1	1	1	1	1	1	1	1	0	1	-4,016913	273,690962	314,127926	0
15.01.2021	23:42:21	0	0	4,067422	0,9	324,108	-0,063	87,342	0	1017,6	6,4	8,5	8,2	1	1	1	1	1	1	1	1	1	0	1	-6,976744	273,549768	310,512096	0
15.01.2021	23:42:22	0	0	2,937565	0,91125	322,236	-0,053	87,357	0	1017,52	6,4	8,5	8,3	1	1	1	1	1	1	1	1	1	0	1	-4,510218	273,663224	313,505666	0
15.01.2021	23:42:23	0	0	2,711599	0,9315	319,1328	-0,054	87,352	0	1017,56	6,4	8,5	8,3	1	1	1	1	1	1	1	1	1	0	1	-5,003524	273,72313	313,290914	0
15.01.2021	23:42:24	0	0	2,146695	0,94725	332,7696	-0,054	87,35	0	1017,58	6,4	8,5	8,2	1	1	1	1	1	1	1	1	1	0	1	-3,030303	273,619508	314,782426	0
15.01.2021	23:42:25	0	0	2,937583	0,98325	344,628	-0,056	87,354	0	1017,46	6,4	8,5	8,2	1	1	1	1	1	1	1	1	1	0	1	-3,523608	273,55412	313,985434	0
15.01.2021	23:42:26	0	0	3,728471	0,984	344,3724	-0,062	87,345	0	1017,68	6,4	8,5	8,2	1	1	1	1	1	1	1	1	1	0	1	-3,875969	273,586059	313,781386	0
15.01.2021	23:42:27	0	0	4,745298	0,924	347,94	-0,056	87,348	0	1017,52	6,4	8,5	8,3	1	1	1	1	1	1	1	1	1	0	1	-5,637773	273,731912	312,697516	0
15.01.2021	23:42:28	0	0	2,146695	0,9045	345,7656	-0,055	87,342	0	1017,54	6,4	8,5	8,2	1	1	1	1	1	1	1	1	1	0	1	-7,681466	273,55412	309,827576	0
15.01.2021	23:42:29	0	0	2,711599	0,9405	333,5112	-0,055	87,333	0	1017,58	6,4	8,5	8,3	1	1	1	1	1	1	1	1	1	0	1	-6,412967	273,673438	311,650401	0
15.01.2021	23:42:30	0	0	3,163551	0,99225	333,8244	-0,052	87,337	0	1017,62	6,4	8,5	8,2	1	1	1	1	1	1	1	1	1	0	1	-6,412967	273,708501	311,813434	0
15.01.2021	23:42:31	0	0	4,067422	1,0335	333,4572	-0,055	87,332	0	1017,38	6,3	8,5	8,2	1	1	1	1	1	1	1	1	1	0	1	-6,131078	273,545418	311,337566	0
15.01.2021	23:42:32	0	0	4,519331	1,03275	321,1236	-0,058	87,341	0	1017,5	6,4	8,5	8,3	1	1	1	1	1	1	1	1	1	0	1	-2,466526	273,551219	315,029048	0
15.01.2021	23:42:33	0	0	4,519358	1,01475	317,8368	-0,062	87,338	0	1017,48	6,4	8,5	8,2	1	1	1	1	1	1	1	1	1	0	1	-6,694856	273,618052	311,111112	0
15.01.2021	23:42:34	0	0	3,615487	1,0365	332,7588	-0,054	87,327	0	1017,66	6,4	8,5	8,2	1	1	1	1	1	1	1	1	1	0	1	-3,875969	273,541069	313,572485	0
15.01.2021	23:42:35	0	0	4,745326	1,02825	343,152	-0,055	87,351	0	1017,46	6,4	8,5	8,2	1	1	1	1	1	1	1	1	1	0	1	-3,523608	273,670519	314,52619	0
15.01.2021	23:42:36	0	0	2,485647	1,01625	339,8724	-0,053	87,338	0	1017,54	6,4	8,5	8,2	1	1	1	1	1	1	1	1	1	0	1	-8,033827	273,72313	310,260611	0
15.01.2021	23:42:37	0	0	4,519358	0,95775	334,5588	-0,057	87,335	0	1017,48	6,3	8,5	8,2	1	1	1	1	1	1	1	1	1	0	1	-6,694856	273,705577	311,517945	0
15.01.2021	23:42:38	0	0	4,971294	0,94425	351,0756	-0,054	87,34	0	1017,46	6,3	8,5	8,2	1	1	1	1	1	1	1	1	1	0	1	-3,875969	273,642811	314,04504	0
15.01.2021	23:42:39	0	0	2,485647	0,89625	0	-0,053	87,341	0	1017,5	6,4	8,5	8,2	1	1	1	1	1	1	1	1	1	0	1	-7,399577	273,709964	310,833624	0
15.01.2021	23:42:40	0	0	2,937583	0,85575	354,2364	-0,054	87,341	0	1017,5	6,4	8,5	8,2	1	1	1	1	1	1	1	1	1	0	1	-5,990134	273,680738	312,10717	0
15.01.2021	23:42:41	0	0	4,180406	0,79875	347,6124	-0,055	87,344	0	1017,58	6,4	8,5	8,2	1	1	1	1	1	1	1	1	1	0	1	-5,990134	273,730448	312,338345	0
15.01.2021	23:42:42	0	0	4,632314	0,76425	343,9044	-0,056	87,34	0	1017,26	6,3	8,5	8,3	1	1	1	1	1	1	1	1	1	0	1	-6,272023	273,658848	311,723521	0
15.01.2021	23:42:43	0	0	4,406348	0,75075	345,438	-0,056	87,344	0	1017,52	6,3	8,5	8,3	1	1	1	1	1	1	1	1	1	0	1	-3,59408	273,535271	313,827462	0
15.01.2021	23:42:44	0	0	2,711615	0,76725	351,0144	-0,054	87,351	0	1017,54	6,4	8,5	8,2	1	1	1	1	1	1	1	1	1	0	1	-6,20155	273,623875	311,631469	0
15.01.2021	23:42:45	0	0	3,163551	0,74175	350,6544	-0,058	87,337	0	1017,46	6,4	8,5	8,2	1	1	1	1	1	1	1	1	1	0	1	-5,990134	273,696807	312,181883	0
15.01.2021	23:42:46	0	0	4,632314	0,74475	346,05	-0,064	87,334	0	1017,5	6,3	8,5	8,3	1	1	1	1	1	1	1	1	1	0	1	-6,342495	273,704115	311,863507	0
15.01.2021	23:42:47	0	0	3,841454	0,699	349,1136	-0,057	87,35	0	1017,48	6,3	8,5	8,2	1	1	1	1	1	1	1	1	1	0	1	-9,654686	273,593326	308,036418	0
15.01.2021	23:42:48	0	0	4,406374	0,73125	353,6424	-0,054	87,332	0	1017,52	6,4	8,5	8,2	1	1	1	1	1	1	1	1	1	0	1	-0,140944	273,546868	317,334432	0
15.01.2021	23:42:49	0	0	5,084278	0,74325	353,2572	-0,062	87,352	0	1017,4	6,4	8,5	8,2	1	1	1	1	1	1	1	1	1	0	1	-6,131078	273,642811	311,789931	0
15.01.2021	23:42:50	0	0	4,519331	0,78525	343,1124	-0,053	87,353	0	1017,58	6,4	8,5	8,3	1	1	1	1	1	1	1	1	1	0	1	-6,8358	273,726057	311,472252	0
15.01.2021	23:42:51	0	0	2,824582	0,81825	340,9992	-0,051	87,345	0	1017,62	6,3	8,5	8,3	1	1	1	1	1	1	1	1	1	0	1	-4,369274	273,618052	313,436693	0
15.01.2021	23:42:52	0	0	2,824599	0,8085	347,6808	-0,054	87,355	0	1017,42	6,4	8,5	8,2	1	1	1	1	1	1	1	1	1	0	1	-6,8358	273,548318	310,646308	0
15.01.2021	23:42:53	0	0	2,485647	0,77625	351,342	-0,054	87,343	0	1017,54	6,4	8,5	8,2	1	1	1	1	1	1	1	1	1	0	1	-3,24172	273,667601	314,794511	0
15.01.2021	23:42:54	0	0	4,406374	0,77325	354,0132	-0,054	87,354	0	1017,42	6,4	8,5	8,2	1	1	1	1	1	1	1	1	1	0	1	-5,355884	273,717277	312,911331	0
15.01.2021	23:42:55	0	0	2,146695	0,72075	2,286	-0,051	87,358	0	1017,42	6,4	8,5	8,2	1	1	1	1	1	1	1	1	1	0	1	-0,916138	273,680738	317,181165	0
15.01.2021	23:42:56	0	0	3,615487	0,64875	2,2932	-0,052	87,346	0	1017,56	6,3	8,5	8,2	1	1	1	1	1	1	1	1	1	0	1	-3,805497	273,541069	313,642957	0
15.01.2021	23:42:57	0	0	2,485632	0,6135	358,8048	-0,058	87,338	0	1017,48	6,3	8,5	8,3	1	1	1	1	1	1	1	1	1	0	1	-3,100775	273,634069	314,779611	0
15.01.2021	23:42:58	0	0	3,615465	0,5925	351,5472	-0,041	87,359	0	1017,56	6,3	8,5	8,3	1	1	1	1	1	1	1	1	1	0	1	-5,073996	273,541069	312,374459	0
15.01.2021	23:42:59	0	0	4,745269	0,60075	344,6388	-0,049	87,352	0	1017,56	6,4	8,5	8,4	1	1	1	1	1	1	1	1	1	0	1	-9,44327	273,68804	308,687985	0
15.01.2021	23:43:00	0	0	2,372663	0,62475	352,9728	-0,049	87,361	0	1017,58	6,3	8,5	8,2	1	1	1	1	1	1	1	1	1	0	1	-9,372798	273,69973	308,812811	0
15.01.2021	23:43:01	0	0	2,372663	0,62475	352,9728	-0,049	87,361	0	1017,58	6,3	8,5	8,2	1	1	1	1	1	1	1	1	1	0	1	-6,060606	273,702653	312,138597	0
15.01.2021	23:43:02	0	0	2,598615	0,5985	345,3516	-0,057	87,338	0	1017,4	6,3	8,5	8,3	1	1	1	1	1	1	1	1	1	0	1	-4,510218	273,548318	312,971889	0
15.01.2021	23:43:03	0	0	4,971264	0,60225	331,0884	-0,051	87,346	0	1017,54	6,3	8,5	8,3	1	1	1	1	1	1	1	1	1	0	1	-5,990134	273,577343	311,626743	0
15.01.2021	23:43:04	0	0	3,615487	0,61275	328,5936	-0,051	87,34	0	1017,56	6,4	8,5	8,2	1	1	1	1	1	1	1	1	1	0	1	-7,399577	273,705577	310,813224	0
15.01.2021	23:43:05	0	0	2,824582	0,6675	336,132	-0,055	87,318	0	1017,48	6,4	8,5	8,3	1	1	1	1	1	1	1	1	1	0	1	-4,439746	273,679278	313,650769	0
15.01.2021	23:43:06	0	0	4,406374	0,65625	352,0872	-0,051	87,326	0	1017,58	6,4	8,5	8,2	1	1	1	1	1	1	1	1	1	0	1	-5,919662	273,701191	312,272744	0
15.01.2021	23:43:07	0	0	3,276535	0,6435	357,3	-0,052	87,33	0	1017,52	6,4	8,5	8,2	1	1	1	1	1	1	1	1	1	0	1	-7,892882	273,670519	310,156916	0
15.01.2021	23:43:08	0	0	4,519358	0,606	349,0596	-0,054	87,34	0	1017,58	6,4	8,5	8,2	1	1	1	1	1	1	1	1	1	0	1	-3,664553	273,533822	313,750264	0
15.01.2021	23:43:09	0	0	5,084278	0,56775	341,3736	-0,053	87,336	0	1017,58	6,4	8,5	8,2	1	1	1	1	1	1	1	1	1	0	1	-6,131078	273,670519	311,91872	0
15.01.2021	23:43:10	0	0	2,824599	0,5355	338,7744	-0,056	87,341	0	1017,5	6,4	8,5	8,2	1	1	1	1	1	1	1	1	1	0	1	-7,047216	273,714352	311,206391	0
15.01.2021	23:43:11	0	0	4,29339	0,47625	340,9236	-0,05	87,329	0	1017,36	6,3	8,5	8,2	1	1	1	1	1	1	1	1	1	0	1	-1,409443	273,680738	316,68786	0
15.01.2021	23:43:12	0	0	3,502482	0,41775	336,4236	-0,052	87,33	0	1017,4	6,4	8,5	8,3	1	1	1	1	1	1	1	1	1	0	1	-6,553911	273,581701	311,083202	0
15.01.2021	23:43:13	0	0	4,745298	0,39975	328,122	-0,056	87,327	0	1017,54	6,4	8,5	8,3	1	1	1	1	1	1	1	1	1	0	1	-4,510218	273,533822	312,904598	0
15.01.2021	23:43:14	0	0	2,485632	0,38625	316,9836	-0,054	87,314	0	1017,66	6,3	8,5	8,3	1	1	1	1	1	1	1	1	1	0	1	-8,315715	273,549768	309,173125	0
15.01.2021	23:43:15	0	0	4,293365	0,3675	310,6836	-0,054	87,309	0	1017,5	6,4	8,5	8,3	1	1	1	1	1	1	1	1	1	0	1	-5,919662	273,680738	312,177642	0
15.01.2021	23:43:16	0	0	3,389498	0,33225	308,1132	-0,05	87,341	0	1017,58	6,3	8,5	8,3	1	1	1	1	1	1	1	1	1	0	1	-5,073996	273,53672	312,354274	0
15.01.2021	23:43:17	0	0	2,598631	0,3165	308,9736	-0,054	87,313	0	1017,54	6,4	8,5	8,2	1	1	1	1	1	1	1	1	1	0	1	-8,033827	273,682198	310,070266	0
15.01.2021	23:43:18	0	0	4,632314	0,2805	311,4864	-0,049	87,334	0	1017,5	6,4	8,5	8,3	1	1	1	1	1	1	1	1	1	0	1	-6,412967	273,663224	311,602918	0
15.01.2021	23:43:19	0	0	4,180356	0,24825	318,1644	-0,05	87,338	0	1017,58	6,3	8,5	8,4	1	1	1	1	1	1	1	1	1	0	1	-9,866103	273,698268	308,312709	0
15.01.2021	23:43:20	0	0	3,954415	0,24675	323,262	-0,048	87,329	0	1017,5	6,3	8,5	8,3	1	1	1	1	1	1	1	1	1	0	1	-4,157858	273,597687	313,553504	0
15.01.2021	23:43:21	0	0	3,276515	0,23025	330,7752	-0,055	87,33	0	1017,72	6,4	8,5	8,3	1	1	1	1	1	1	1	1	1	0	1	-4,933051	273,535271	312,488491	0
15.01.2021	23:43:22	0	0	3,163532	0,1785	336,4632	-0,048	87,32	0	1017,54	6,4	8,5	8,3	1	1	1	1	1	1	1	1	1	0	1	-5,778717	273,634069	312,101668	0
15.01.2021	23:43:23	0	0	2,824582	0,19125	338,7492	-0,049	87,327	0	1017,62	6,4	8,5	8,3	1	1	1	1	1	1	1	1	1	0	1	-5,990134	273,528027	311,397783	0
15.01.2021	23:43:24	0	0	4,85831	0,192	336,6648	-0,048	87,334	0	1017,44	6,3	8,5	8,2	1	1	1	1	1	1	1	1	1	0	1	-6,342495	273,628243	311,510821	0
15.01.2021	23:43:25	0	0	2,824582	0,21	337,914	-0,057	87,311	0	1017,5	6,3	8,5	8,3	1	1	1	1	1	1	1	1	1	0	1	-5,21494	273,707039	313,00466	0
15.01.2021	23:43:26	0	0	3,050567	0,2385	332,7912	-0,056	87,317	0	1017,54	6,4	8,5	8,2	1	1	1	1	1	1	1	1	1	0	1	-4,862579	273,661765	313,146524	0
15.01.2021	23:43:27	0	0	4,406348	0,231	323,6688	-0,053	87,31	0	1017,72	6,4	8,5	8,3	1	1	1	1	1	1	1	1	1	0	1	-4,298802	273,570083	313,284359	0
15.01.2021	23:43:28	0	0	3,728471	0,30075	321,1164	-0,051	87,327	0	1017,46	6,3	8,5	8,2	1	1	1	1	1	1	1	1	1	0	1	-5,496829	273,53672	311,931441	0
15.01.2021	23:43:29	0	0	2,824582	0,3315	323,6508	-0,051	87,333	0	1017,44	6,4	8,5	8,3	1	1	1	1	1	1	1	1	1	0	1	-2,114165	273,565728	315,448775	0
15.01.2021	23:43:30	0	0	3,389498	0,312	334,6092	-0,056	87,319	0	1017,52	6,4	8,5	8,3	1	1	1	1	1	1	1	1	1	0	1	-5,144468	273,591872	312,539885	0
15.01.2021	23:43:31	0	0	4,406348	0,32925	351,054	-0,049	87,31	0	1017,44	6,4	8,5	8,3	1	1	1	1	1	1	1	1	1	0	1	-4,087385	273,724593	314,213859	0
15.01.2021	23:43:32	0	0	4,519331	0,315	3,402	-0,054	87,32	0	1017,58	6,3	8,5	8,3	1	1	1	1	1	1	1	1	1	0	1	-11,346018	273,53817	306,088979	0
15.01.2021	23:43:33	0	0	4,745326	0,29175	4,0824	-0,056	87,301	0	1017,4	6,3	8,5	8,2	1	1	1	1	1	1	1	1	1	0	1	-6,694856	273,676358	311,382085	0
15.01.2021	23:43:34	0	0	4,293365	0,29025	356,202	-0,056	87,326	0	1017,54	6,3	8,5	8,3	1	1	1	1	1	1	1	1	1	0	1	-1,409443	273,68804	316,721811	0
15.01.2021	23:43:35	0	0	3,502482	0,28725	342,7956	-0,048	87,323	0	1017,66	6,4	8,5	8,3	1	1	1	1	1	1	1	1	1	0	1	-4,157858	273,523681	313,209891	0
15.01.2021	23:43:36	0	0	2,259666	0,27675	330,7176	-0,052	87,323	0	1017,54	6,3	8,5	8,3	1	1	1	1	1	1	1	1	1	0	1	-4,298802	273,674898	313,771352	0
15.01.2021	23:43:37	0	0	3,615465	0,264	323,2692	-0,054	87,309	0	1017,52	6,3	8,5	8,3	1	1	1	1	1	1	1	1	1	0	1	-2,818887	273,533822	314,595929	0
15.01.2021	23:43:38	0	0	3,954415	0,2655	325,1808	-0,053	87,315	0	1017,46	6,4	8,5	8,3	1	1	1	1	1	1	1	1	1	0	1	-5,708245	273,648641	312,239859	0
15.01.2021	23:43:39	0	0	3,050548	0,22875	328,6152	-0,054	87,305	0	1017,6	6,3	8,5	8,3	1	1	1	1	1	1	1	1	1	0	1	-3,946441	273,52513	313,428029	0
15.01.2021	23:43:40	0	0	2,598615	0,20175	330,2964	-0,053	87,317	0	1017,6	6,3	8,5	8,3	1	1	1	1	1	1	1	1	1	0	1	-8,879493	273,648641	309,068611	0
15.01.2021	23:43:41	0	0	3,502482	0,19425	328,2264	-0,055	87,324	0	1017,44	6,3	8,5	8,3	1	1	1	1	1	1	1	1	1	0	1	-4,298802	273,526578	313,082391	0
15.01.2021	23:43:42	0	0	2,485647	0,19275	322,5384	-0,05	87,306	0	1017,4	6,3	8,5	8,2	1	1	1	1	1	1	1	1	1	0	1	-4,016913	273,586059	313,640442	0
15.01.2021	23:43:43	0	0	2,937565	0,2265	315,8604	-0,049	87,305	0	1017,44	6,3	8,5	8,3	1	1	1	1	1	1	1	1	1	0	1	-1,409443	273,53672	316,018826	0
15.01.2021	23:43:44	0	0	4,858281	0,23925	315,1656	-0,054	87,306	0	1017,44	6,4	8,5	8,3	1	1	1	1	1	1	1	1	1	0	1	-5,073996	273,622419	312,75226	0
15.01.2021	23:43:45	0	0	4,180381	0,25725	324,3672	-0,059	87,311	0	1017,5	6,3	8,5	8,3	1	1	1	1	1	1	1	1	1	0	1	-4,298802	273,693884	313,859625	0
15.01.2021	23:43:46	0	0	2,146682	0,26025	342,6408	-0,06	87,307	0	1017,56	6,3	8,5	8,3	1	1	1	1	1	1	1	1	1	0	1	-2,466526	273,654473	315,508683	0
15.01.2021	23:43:47	0	0	3,276515	0,2565	1,1628	-0,058	87,305	0	1017,54	6,3	8,5	8,3	1	1	1	1	1	1	1	1	1	0	1	-6,624383	273,520785	310,729922	0
15.01.2021	23:43:48	0	0	4,745326	0,222	7,8768	-0,056	87,305	0	1017,44	6,3	8,5	8,2	1	1	1	1	1	1	1	1	1	0	1	-3,946441	273,602049	313,785183	0
15.01.2021	23:43:49	0	0	4,519358	0,21075	4,4784	-0,057	87,285	0	1017,6	6,3	8,5	8,2	1	1	1	1	1	1	1	1	1	0	1	-2,889359	273,704115	315,316643	0
15.01.2021	23:43:50	0	0	3,841431	0,198	353,8404	-0,049	87,277	0	1017,54	6,3	8,5	8,3	1	1	1	1	1	1	1	1	1	0	1	-5,144468	273,626787	312,702082	0
15.01.2021	23:43:51	0	0	2,937565	0,20925	339,4368	-0,047	87,303	0	1017,56	6,4	8,5	8,3	1	1	1	1	1	1	1	1	1	0	1	-6,272023	273,533822	311,142793	0
15.01.2021	23:43:52	0	0	2,711599	0,2025	334,9728	-0,051	87,289	0	1017,62	6,4	8,5	8,3	1	1	1	1	1	1	1	1	1	0	1	-4,651163	273,604958	313,093972	0
15.01.2021	23:43:53	0	0	2,598615	0,20775	338,724	-0,051	87,295	0	1017,46	6,3	8,5	8,3	1	1	1	1	1	1	1	1	1	0	1	-5,990134	273,701191	312,202272	0
15.01.2021	23:43:54	0	0	4,632314	0,204	347,1768	-0,053	87,283	0	1017,4	6,3	8,5	8,3	1	1	1	1	1	1	1	1	1	0	1	-4,933051	273,539619	312,508674	0
15.01.2021	23:43:55	0	0	2,598615	0,177	357,1488	-0,055	87,28	0	1017,6	6,4	8,5	8,3	1	1	1	1	1	1	1	1	1	0	1	-3,312192	273,654473	314,663017	0
15.01.2021	23:43:56	0	0	2,937565	0,19275	9,3636	-0,052	87,285	0	1017,54	6,3	8,5	8,3	1	1	1	1	1	1	1	1	1	0	1	-3,805497	273,55557	313,71028	0
15.01.2021	23:43:57	0	0	2,711615	0,16275	21,0096	-0,057	87,279	0	1017,56	6,3	8,5	8,2	1	1	1	1	1	1	1	1	1	0	1	-9,936575	273,653014	308,031857	0
15.01.2021	23:43:58	0	0	2,824582	0,21375	28,35	-0,048	87,269	0	1017,56	6,3	8,5	8,3	1	1	1	1	1	1	1	1	1	0	1	-5,285412	273,526578	312,095781	0
15.01.2021	23:43:59	0	0	3,841431	0,24375	28,3572	-0,052	87,247	0	1017,72	6,3	8,5	8,3	1	1	1	1	1	1	1	1	1	0	1	-3,24172	273,657389	314,747045	0
15.01.2021	23:44:00	0	0	4,180381	0,28725	21,3912	-0,053	87,256	0	1017,56	6,4	8,5	8,3	1	1	1	1	1	1	1	1	1	0	1	-5,285412	273,689501	312,852634	0
15.01.2021	23:44:01	0	0	4,406348	0,26775	10,0656	-0,051	87,255	0	1017,56	6,3	8,5	8,3	1	1	1	1	1	1	1	1	1	0	1	-3,875969	273,590419	313,801634	0
15.01.2021	23:44:02	0	0	4,293365	0,28125	2,6604	-0,049	87,248	0	1017,38	6,3	8,5	8,3	1	1	1	1	1	1	1	1	1	0	1	-7,470049	273,707039	310,749551	0
15.01.2021	23:44:03	0	0	3,050567	0,264	1,1916	-0,053	87,245	0	1017,54	6,3	8,5	8,2	1	1	1	1	1	1	1	1	1	0	1	-4,439746	273,641353	313,474491	0
15.01.2021	23:44:04	0	0	2,711599	0,2775	4,8492	-0,06	87,252	0	1017,6	6,3	8,5	8,3	1	1	1	1	1	1	1	1	1	0	1	-5,355884	273,677818	312,727843	0
15.01.2021	23:44:05	0	0	3,163532	0,2595	9,7596	-0,051	87,236	0	1017,56	6,4	8,5	8,3	1	1	1	1	1	1	1	1	1	0	1	-4,651163	273,685119	313,466509	0
15.01.2021	23:44:06	0	0	3,841431	0,2865	12,1104	-0,053	87,244	0	1017,54	6,3	8,5	8,3	1	1	1	1	1	1	1	1	1	0	1	-7,399577	273,711426	310,840426	0
15.01.2021	23:44:07	0	0	4,067398	0,24525	11,7252	-0,051	87,238	0	1017,64	6,3	8,5	8,3	1	1	1	1	1	1	1	1	1	0	1	-7,188161	273,571535	310,401742	0
15.01.2021	23:44:08	0	0	3,728448	0,24675	9,3744	-0,057	87,232	0	1017,4	6,4	8,5	8,3	1	1	1	1	1	1	1	1	1	0	1	-6,342495	273,728984	311,979175	0
15.01.2021	23:44:09	0	0	4,406348	0,252	6,9264	-0,051	87,253	0	1017,56	6,3	8,5	8,3	1	1	1	1	1	1	1	1	1	0	1	-5,637773	273,660306	312,36455	0
15.01.2021	23:44:10	0	0	3,389498	0,23475	4,4748	-0,051	87,233	0	1017,54	6,3	8,5	8,3	1	1	1	1	1	1	1	1	1	0	1	-6,906272	273,664683	311,116394	0
15.01.2021	23:44:11	0	0	5,310246	0,1785	4,4856	-0,056	87,231	0	1017,6	6,3	8,5	8,2	1	1	1	1	1	1	1	1	1	0	1	-4,510218	273,671979	313,546364	0
15.01.2021	23:44:12	0	0	4,29339	0,174	7,1244	-0,053	87,212	0	1017,56	6,3	8,5	8,2	1	1	1	1	1	1	1	1	1	0	1	-3,523608	273,693884	314,634818	0
15.01.2021	23:44:13	0	0	4,293365	0,15975	10,0656	-0,049	87,228	0	1017,5	6,3	8,5	8,3	1	1	1	1	1	1	1	1	1	0	1	-2,536998	273,607867	315,221651	0
15.01.2021	23:44:14	0	0	4,632314	0,117	13,9212	-0,054	87,235	0	1017,6	6,3	8,5	8,3	1	1	1	1	1	1	1	1	1	0	1	-7,188161	273,543968	310,273753	0
15.01.2021	23:44:15	0	0	5,084247	0,1335	18,8352	-0,056	87,21	0	1017,42	6,3	8,3	8,3	1	1	1	1	1	1	1	1	1	0	1	-11,134602	273,571535	306,455301	0
15.01.2021	23:44:16	0	0	4,180381	0,1245	23,598	-0,053	87,215	0	1017,28	6,3	8,5	8,3	1	1	1	1	1	1	1	1	1	0	1	-8,668076	273,570083	308,915085	0
15.01.2021	23:44:17	0	0	3,954415	0,08625	27,6624	-0,055	87,21	0	1017,68	6,4	8,5	8,3	1	1	1	1	1	1	1	1	1	0	1	-6,412967	273,715814	311,847444	0
15.01.2021	23:44:18	0	0	4,745298	0,081	32,1552	-0,051	87,219	0	1017,56	6,4	8,5	8,3	1	1	1	1	1	1	1	1	1	0	1	-8,104299	273,660306	309,898025	0
15.01.2021	23:44:19	0	0	2,598615	0,02475	35,856	-0,06	87,2	0	1017,48	6,3	8,5	8,3	1	1	1	1	1	1	1	1	1	0	1	-12,262156	273,671979	305,794426	0
15.01.2021	23:44:20	0	0	4,406374	0	38,4084	-0,055	87,197	0	1017,6	6,3	8,5	8,2	1	1	1	1	1	1	1	1	1	0	1	-6,060606	273,542518	311,394578	0
15.01.2021	23:44:21	0	0	4,745298	0	41,4684	-0,057	87,213	0	1017,56	6,4	8,5	8,3	1	1	1	1	1	1	1	1	1	0	1	-3,453136	273,530924	313,948229	0
15.01.2021	23:44:22	0	0	4,971264	0	43,668	-0,064	87,198	0	1017,54	6,3	8,5	8,3	1	1	1	1	1	1	1	1	1	0	1	-9,44327	273,606412	308,308622	0
15.01.2021	23:44:23	0	0	3,728471	0,04125	45,5364	-0,055	87,2	0	1017,56	6,3	8,5	8,2	1	1	1	1	1	1	1	1	1	0	1	-8,668076	273,526578	308,713117	0
15.01.2021	23:44:24	0	0	4,067398	0	47,3688	-0,054	87,2	0	1017,62	6,3	8,5	8,3	1	1	1	1	1	1	1	1	1	0	1	-5,496829	273,575891	312,113303	0
15.01.2021	23:44:25	0	0	3,276515	0	47,358	-0,056	87,201	0	1017,6	6,3	8,5	8,3	1	1	1	1	1	1	1	1	1	0	1	-6,976744	273,588966	310,694109	0
15.01.2021	23:44:26	0	0	2,937565	0	45,8532	-0,049	87,198	0	1017,58	6,3	8,5	8,3	1	1	1	1	1	1	1	1	1	0	1	-8,80902	273,541069	308,639434	0
15.01.2021	23:44:27	0	0	3,502482	0	46,5876	-0,055	87,19	0	1017,66	6,3	8,5	8,3	1	1	1	1	1	1	1	1	1	0	1	-5,144468	273,618052	312,661499	0
15.01.2021	23:44:28	0	0	3,841431	0	49,9464	-0,054	87,182	0	1017,66	6,4	8,5	8,3	1	1	1	1	1	1	1	1	1	0	1	-7,751938	273,695345	310,413283	0
15.01.2021	23:44:29	0	0	4,858281	0	55,9332	-0,056	87,185	0	1017,62	6,3	8,5	8,3	1	1	1	1	1	1	1	1	1	0	1	-8,315715	273,671979	309,740868	0
15.01.2021	23:44:30	0	0	4,406348	0	65,0736	-0,057	87,177	0	1017,58	6,3	8,5	8,3	1	1	1	1	1	1	1	1	1	0	1	-5,708245	273,661765	312,300859	0
15.01.2021	23:44:31	0	0	4,632314	0	72,2844	-0,059	87,164	0	1017,6	6,3	8,5	8,3	1	1	1	1	1	1	1	1	1	0	1	-10,007047	273,666142	308,022401	0
15.01.2021	23:44:32	0	0	2,824582	0	79,416	-0,052	87,166	0	1017,54	6,3	8,5	8,3	1	1	1	1	1	1	1	1	1	0	1	-10,500352	273,580248	307,130015	0
15.01.2021	23:44:33	0	0	4,519331	0	83,7252	-0,05	87,166	0	1017,5	6,3	8,5	8,3	1	1	1	1	1	1	1	1	1	0	1	-6,060606	273,69973	312,125003	0
15.01.2021	23:44:34	0	0	3,615465	0	83,3616	-0,054	87,169	0	1017,5	6,3	8,5	8,3	1	1	1	1	1	1	1	1	1	0	1	-5,003524	273,648641	312,94458	0
15.01.2021	23:44:35	0	0	4,632314	0	77,2344	-0,053	87,172	0	1017,66	6,3	8,5	8,3	1	1	1	1	1	1	1	1	1	0	1	-10,923185	273,689501	307,214861	0
15.01.2021	23:44:36	0	0	4,067398	0	67,2984	-0,055	87,147	0	1017,54	6,4	8,5	8,3	1	1	1	1	1	1	1	1	1	0	1	-6,553911	273,673438	311,509457	0
15.01.2021	23:44:37	0	0	4,406348	0	54,7884	-0,061	87,163	0	1017,52	6,3	8,5	8,3	1	1	1	1	1	1	1	1	1	0	1	-5,144468	273,568631	312,431952	0
15.01.2021	23:44:38	0	0	3,389498	0	42,912	-0,057	87,159	0	1017,4	6,3	8,5	8,3	1	1	1	1	1	1	1	1	1	0	1	-7,82241	273,704115	310,383592	0
15.01.2021	23:44:39	0	0	4,067422	0	34,7832	-0,062	87,149	0	1017,46	6,3	8,5	8,2	1	1	1	1	1	1	1	1	1	0	1	-8,033827	273,670519	310,015972	0
15.01.2021	23:44:40	0	0	4,519331	0	27,6624	-0,055	87,137	0	1017,46	6,3	8,5	8,3	1	1	1	1	1	1	1	1	1	0	1	-8,80902	273,528027	308,578896	0
15.01.2021	23:44:41	0	0	3,954415	0	21,7764	-0,055	87,151	0	1017,64	6,3	8,5	8,3	1	1	1	1	1	1	1	1	1	0	1	-8,386187	273,658848	309,609356	0
15.01.2021	23:44:42	0	0	4,971264	0	18,4536	-0,058	87,14	0	1017,5	6,3	8,5	8,3	1	1	1	1	1	1	1	1	1	0	1	-6,131078	273,639896	311,776387	0
15.01.2021	23:44:43	0	0	4,406348	0	15,786	-0,054	87,131	0	1017,44	6,3	8,5	8,3	1	1	1	1	1	1	1	1	1	0	1	-9,654686	273,69973	308,530922	0
15.01.2021	23:44:44	0	0	4,406348	0	14,6592	-0,054	87,157	0	1017,4	6,3	8,5	8,3	1	1	1	1	1	1	1	1	1	0	1	-6,342495	273,604958	311,40264	0
15.01.2021	23:44:45	0	0	2,937565	0	14,6628	-0,053	87,16	0	1017,64	6,4	8,5	8,3	1	1	1	1	1	1	1	1	1	0	1	-9,44327	273,523681	307,924478	0
15.01.2021	23:44:46	0	0	4,858281	0	14,3172	-0,055	87,153	0	1017,66	6,3	8,3	8,3	1	1	1	1	1	1	1	1	1	0	1	-8,45666	273,673438	309,606708	0
15.01.2021	23:44:47	0	0	3,615465	0	12,9564	-0,057	87,156	0	1017,46	6,3	8,5	8,3	1	1	1	1	1	1	1	1	1	0	1	-10,641297	273,664683	307,381369	0
15.01.2021	23:44:48	0	0	2,372649	0	9,7632	-0,056	87,154	0	1017,6	6,3	8,5	8,3	1	1	1	1	1	1	1	1	1	0	1	-3,805497	273,52513	313,568974	0
15.01.2021	23:44:49	0	0	3,728448	0	3,0348	-0,055	87,156	0	1017,7	6,3	8,5	8,3	1	1	1	1	1	1	1	1	1	0	1	-7,751938	273,587513	309,912166	0
15.01.2021	23:44:50	0	0	2,598615	0	357,7536	-0,055	87,143	0	1017,58	6,3	8,5	8,3	1	1	1	1	1	1	1	1	1	0	1	-10,007047	273,523681	307,360701	0
15.01.2021	23:44:51	0	0	3,389498	0	351,7344	-0,059	87,16	0	1017,52	6,3	8,5	8,3	1	1	1	1	1	1	1	1	1	0	1	-3,24172	273,629699	314,618363	0
15.01.2021	23:44:52	0	0	4,858281	0	348,6888	-0,061	87,15	0	1017,58	6,3	8,5	8,3	1	1	1	1	1	1	1	1	1	0	1	-5,637773	273,702653	312,56143	0
15.01.2021	23:44:53	0	0	3,389498	0	348,0984	-0,064	87,155	0	1017,52	6,3	8,5	8,3	1	1	1	1	1	1	1	1	1	0	1	-7,329105	273,583154	310,314755	0
15.01.2021	23:44:54	0	0	2,372663	0	349,4592	-0,057	87,145	0	1017,62	6,3	8,5	8,2	1	1	1	1	1	1	1	1	1	0	1	-2,677942	273,696807	315,494074	0
15.01.2021	23:44:55	0	0	2,824582	0	352,8324	-0,06	87,151	0	1017,52	6,3	8,5	8,3	1	1	1	1	1	1	1	1	1	0	1	-3,523608	273,571535	314,066295	0
15.01.2021	23:44:56	0	0	2,598615	0	357,6312	-0,059	87,153	0	1017,54	6,3	8,5	8,3	1	1	1	1	1	1	1	1	1	0	1	-4,862579	273,571535	312,727324	0
15.01.2021	23:44:57	0	0	2,598615	0,0615	4,842	-0,059	87,157	0	1017,6	6,3	8,5	8,3	1	1	1	1	1	1	1	1	1	0	1	-1,902748	273,535271	315,518794	0
15.01.2021	23:44:58	0	0	2,259666	0,10125	17,2296	-0,059	87,166	0	1017,48	6,3	8,5	8,3	1	1	1	1	1	1	1	1	1	0	1	-4,369274	273,635525	313,517881	0
15.01.2021	23:44:59	0	0	3,502482	0,12975	30,7008	-0,061	87,151	0	1017,44	6,3	8,5	8,3	1	1	1	1	1	1	1	1	1	0	1	-5,567301	273,52513	311,807169	0
15.01.2021	23:45:00	0	0	3,389498	0,11925	42,9156	-0,049	87,163	0	1017,32	6,3	8,5	8,3	1	1	1	1	1	1	1	1	1	0	1	-0	273,570083	317,583161	0
15.01.2021	23:45:01	0	0	4,519331	0,13575	51,7572	-0,056	87,155	0	1017,66	6,3	8,3	8,3	1	1	1	1	1	1	1	1	1	0	1	-6,060606	273,523681	311,307142	0
15.01.2021	23:45:02	0	0	2,259666	0,1305	55,9224	-0,064	87,161	0	1017,54	6,3	8,5	8,3	1	1	1	1	1	1	1	1	1	0	1	-5,073996	273,591872	312,610357	0
15.01.2021	23:45:03	0	0	3,389498	0,117	53,3592	-0,061	87,153	0	1017,5	6,3	8,4	8,3	1	1	1	1	1	1	1	1	1	0	1	-4,721635	273,704115	313,484367	0
15.01.2021	23:45:04	0	0	4,632314	0,11175	44,3772	-0,062	87,146	0	1017,52	6,3	8,5	8,3	1	1	1	1	1	1	1	1	1	0	1	-6,8358	273,667601	311,200431	0
15.01.2021	23:45:05	0	0	3,954438	0,10425	31,41	-0,056	87,147	0	1017,6	6,3	8,5	8,2	1	1	1	1	1	1	1	1	1	0	1	-5,778717	273,522233	311,582309	0
15.01.2021	23:45:06	0	0	2,711599	0,09375	16,8588	-0,056	87,16	0	1017,56	6,3	8,3	8,3	1	1	1	1	1	1	1	1	1	0	1	-6,8358	273,690962	311,30904	0
15.01.2021	23:45:07	0	0	2,711599	0,08625	4,0896	-0,058	87,167	0	1017,52	6,3	8,5	8,3	1	1	1	1	1	1	1	1	1	0	1	-3,523608	273,604958	314,221527	0
15.01.2021	23:45:08	0	0	2,598615	0,08925	359,856	-0,061	87,164	0	1017,5	6,3	8,5	8,3	1	1	1	1	1	1	1	1	1	0	1	-6,765328	273,526578	310,615865	0
15.01.2021	23:45:09	0	0	2,937565	0,099	4,464	-0,065	87,165	0	1017,54	6,4	8,5	8,3	1	1	1	1	1	1	1	1	1	0	1	-3,030303	273,542518	314,424881	0
15.01.2021	23:45:10	0	0	4,180381	0,0975	14,6628	-0,064	87,17	0	1017,62	6,3	8,5	8,3	1	1	1	1	1	1	1	1	1	0	1	-4,087385	273,645725	313,84717	0
15.01.2021	23:45:11	0	0	4,406348	0,0855	20,2788	-0,061	87,152	0	1017,6	6,3	8,5	8,3	1	1	1	1	1	1	1	1	1	0	1	-5,567301	273,712889	312,679504	0
15.01.2021	23:45:12	0	0	2,937565	0,147	12,4776	-0,056	87,17	0	1017,5	6,3	8,5	8,3	1	1	1	1	1	1	1	1	1	0	1	-6,272023	273,572987	311,324623	0
15.01.2021	23:45:13	0	0	4,406348	0,17775	0,8748	-0,065	87,169	0	1017,46	6,3	8,5	8,3	1	1	1	1	1	1	1	1	1	0	1	-1,409443	273,535271	316,012099	0
15.01.2021	23:45:14	0	0	3,163532	0,21675	352,4832	-0,063	87,169	0	1017,38	6,3	8,5	8,3	1	1	1	1	1	1	1	1	1	0	1	-4,510218	273,552669	312,992089	0
15.01.2021	23:45:15	0	0	4,180381	0,24525	350,2584	-0,063	87,181	0	1017,42	6,3	8,5	8,3	1	1	1	1	1	1	1	1	1	0	1	-3,664553	273,571535	313,925351	0
15.01.2021	23:45:16	0	0	2,598615	0,264	352,098	-0,062	87,18	0	1017,58	6,3	8,5	8,3	1	1	1	1	1	1	1	1	1	0	1	-2,60747	273,528027	314,780446	0
15.01.2021	23:45:17	0	0	3,954415	0,285	352,1016	-0,063	87,167	0	1017,5	6,3	8,5	8,3	1	1	1	1	1	1	1	1	1	0	1	-7,329105	273,651556	310,63255	0
15.01.2021	23:45:18	0	0	2,824582	0,267	354,7332	-0,065	87,182	0	1017,54	6,3	8,5	8,3	1	1	1	1	1	1	1	1	1	0	1	-4,439746	273,584606	313,210861	0
15.01.2021	23:45:19	0	0	2,485632	0,2475	360	-0,067	87,192	0	1017,54	6,3	8,5	8,3	1	1	1	1	1	1	1	1	1	0	1	-4,862579	273,514993	312,464849	0
15.01.2021	23:45:20	0	0	4,745298	0,246	1,9152	-0,066	87,183	0	1017,56	6,3	8,5	8,3	1	1	1	1	1	1	1	1	1	0	1	-4,651163	273,581701	312,98595	0
15.01.2021	23:45:21	0	0	4,519331	0,22425	1,548	-0,07	87,191	0	1017,52	6,3	8,5	8,3	1	1	1	1	1	1	1	1	1	0	1	-2,536998	273,707039	315,682603	0
15.01.2021	23:45:22	0	0	4,971264	0,23475	360	-0,067	87,179	0	1017,38	6,3	8,5	8,3	1	1	1	1	1	1	1	1	1	0	1	-4,721635	273,650098	313,233244	0
15.01.2021	23:45:23	0	0	3,841431	0,2625	0	-0,057	87,196	0	1017,54	6,3	8,5	8,3	1	1	1	1	1	1	1	1	1	0	1	-4,298802	273,373645	312,373176	0
15.01.2021	23:45:24	0	0	3,050548	0,24975	3,4056	-0,061	87,197	0	1017,56	6,3	8,5	8,3	1	1	1	1	1	1	1	1	1	0	1	-2,466526	273,625331	315,373259	0
15.01.2021	23:45:25	0	0	4,745298	0,27075	8,6112	-0,064	87,177	0	1017,54	6,3	8,5	8,3	1	1	1	1	1	1	1	1	1	0	1	-6,060606	273,708501	312,165795	0
15.01.2021	23:45:26	0	0	2,711599	0,258	10,836	-0,064	87,193	0	1017,46	6,3	8,4	8,3	1	1	1	1	1	1	1	1	1	0	1	-4,933051	273,613686	312,852633	0
15.01.2021	23:45:27	0	0	4,29339	0,25575	6,4404	-0,064	87,192	0	1017,54	6,3	8,5	8,2	1	1	1	1	1	1	1	1	1	0	1	-3,946441	273,693884	314,211986	0
15.01.2021	23:45:28	0	0	3,954415	0,2265	360	-0,065	87,195	0	1017,42	6,3	8,5	8,3	1	1	1	1	1	1	1	1	1	0	1	-4,22833	273,679278	313,862185	0
15.01.2021	23:45:29	0	0	3,276515	0,21975	349,4808	-0,065	87,202	0	1017,54	6,3	8,5	8,3	1	1	1	1	1	1	1	1	1	0	1	-0,070472	273,530924	317,330893	0
15.01.2021	23:45:30	0	0	2,711599	0,21525	339,7896	-0,063	87,19	0	1017,6	6,3	8,5	8,3	1	1	1	1	1	1	1	1	1	0	1	-4,298802	273,588966	313,372051	0
15.01.2021	23:45:31	0	0	4,858281	0,17775	331,5024	-0,062	87,205	0	1017,54	6,3	8,5	8,3	1	1	1	1	1	1	1	1	1	0	1	-4,016913	273,692423	314,134719	0
15.01.2021	23:45:32	0	0	3,728448	0,14625	324,7632	-0,063	87,202	0	1017,5	6,3	8,4	8,3	1	1	1	1	1	1	1	1	1	0	1	-9,090909	273,654473	308,8843	0
15.01.2021	23:45:33	0	0	3,954415	0,1755	319,9176	-0,064	87,203	0	1017,64	6,3	8,5	8,3	1	1	1	1	1	1	1	1	1	0	1	-4,651163	273,512098	312,66283	0
15.01.2021	23:45:34	0	0	3,841431	0,126	316,9188	-0,065	87,197	0	1017,56	6,3	8,5	8,3	1	1	1	1	1	1	1	1	1	0	1	-8,738548	273,650098	309,216331	0
15.01.2021	23:45:35	0	0	2,146682	0,1155	316,2528	-0,069	87,2	0	1017,48	6,3	8,4	8,3	1	1	1	1	1	1	1	1	1	0	1	-2,114165	273,519337	315,233421	0
15.01.2021	23:45:36	0	0	4,745298	0,093	316,6704	-0,071	87,199	0	1017,22	6,3	8,5	8,3	1	1	1	1	1	1	1	1	1	0	1	-3,523608	273,625331	314,316176	0
15.01.2021	23:45:37	0	0	2,372649	0,0885	317,772	-0,067	87,201	0	1017,52	6,3	8,5	8,3	1	1	1	1	1	1	1	1	1	0	1	-4,862579	273,68804	313,268675	0
15.01.2021	23:45:38	0	0	2,937565	0,09825	320,3892	-0,065	87,196	0	1017,42	6,3	8,5	8,3	1	1	1	1	1	1	1	1	1	0	1	-4,016913	273,671979	314,03967	0
15.01.2021	23:45:39	0	0	3,841431	0	323,694	-0,066	87,185	0	1017,52	6,3	8,5	8,3	1	1	1	1	1	1	1	1	1	0	1	-3,030303	273,636982	314,863621	0
15.01.2021	23:45:40	0	0	4,067398	0	327,8556	-0,067	87,188	0	1017,54	6,3	8,5	8,3	1	1	1	1	1	1	1	1	1	0	1	-7,963354	273,657389	310,02541	0
15.01.2021	23:45:41	0	0	4,745298	0	332,0604	-0,069	87,21	0	1017,56	6,3	8,5	8,3	1	1	1	1	1	1	1	1	1	0	1	-3,030303	273,680738	315,067	0
15.01.2021	23:45:42	0	0	3,050548	0	336,366	-0,066	87,185	0	1017,5	6,4	8,5	8,3	1	1	1	1	1	1	1	1	1	0	1	-4,651163	273,698268	313,52765	0
15.01.2021	23:45:43	0	0	4,519331	0	340,974	-0,067	87,197	0	1017,56	6,3	8,5	8,3	1	1	1	1	1	1	1	1	1	0	1	-6,131078	273,620963	311,688414	0
15.01.2021	23:45:44	0	0	2,824582	0	346,8492	-0,064	87,191	0	1017,6	6,3	8,5	8,3	1	1	1	1	1	1	1	1	1	0	1	-9,090909	273,510651	308,216368	0
15.01.2021	23:45:45	0	0	4,971264	0	352,8036	-0,07	87,188	0	1017,52	6,3	8,5	8,3	1	1	1	1	1	1	1	1	1	0	1	-2,396054	273,635525	315,491101	0
15.01.2021	23:45:46	0	0	4,971264	0	359,478	-0,059	87,194	0	1017,56	6,3	8,5	8,3	1	1	1	1	1	1	1	1	1	0	1	-7,892882	273,658848	310,102662	0
15.01.2021	23:45:47	0	0	4,406348	0	6,0588	-0,071	87,191	0	1017,44	6,3	8,5	8,3	1	1	1	1	1	1	1	1	1	0	1	-6,342495	273,66906	311,70052	0
15.01.2021	23:45:48	0	0	4,406348	0	14,6412	-0,067	87,194	0	1017,5	6,3	8,5	8,3	1	1	1	1	1	1	1	1	1	0	1	-6,20155	273,657389	311,787215	0
15.01.2021	23:45:49	0	0	4,406348	0	20,7324	-0,066	87,181	0	1017,7	6,3	8,4	8,3	1	1	1	1	1	1	1	1	1	0	1	-7,047216	273,53672	310,381053	0
15.01.2021	23:45:50	0	0	2,372649	0	25,1244	-0,064	87,183	0	1017,46	6,3	8,5	8,3	1	1	1	1	1	1	1	1	1	0	1	-1,902748	273,549768	315,586092	0
15.01.2021	23:45:51	0	0	3,728448	0	26,5212	-0,063	87,181	0	1017,48	6,3	8,5	8,3	1	1	1	1	1	1	1	1	1	0	1	-6,976744	273,545418	310,4919	0
15.01.2021	23:45:52	0	0	3,615465	0	24,3504	-0,066	87,19	0	1017,52	6,3	8,5	8,3	1	1	1	1	1	1	1	1	1	0	1	-3,312192	273,514993	314,015237	0
15.01.2021	23:45:53	0	0	2,711599	0	19,5408	-0,065	87,192	0	1017,5	6,3	8,5	8,3	1	1	1	1	1	1	1	1	1	0	1	-3,24172	273,641353	314,672518	0
15.01.2021	23:45:54	0	0	3,615465	0	13,9176	-0,066	87,172	0	1017,86	6,3	8,5	8,3	1	1	1	1	1	1	1	1	1	0	1	-4,721635	273,516441	312,612512	0
15.01.2021	23:45:55	0	0	2,824582	0	8,6256	-0,062	87,189	0	1017,46	6,3	8,5	8,3	1	1	1	1	1	1	1	1	1	0	1	-1,973221	273,626787	315,873329	0
15.01.2021	23:45:56	0	0	3,163532	0	4,842	-0,063	87,192	0	1017,64	6,3	8,5	8,3	1	1	1	1	1	1	1	1	1	0	1	-1,691332	273,685119	316,42634	0
15.01.2021	23:45:57	0	0	4,632314	0	2,3796	-0,063	87,177	0	1017,42	6,3	8,5	8,3	1	1	1	1	1	1	1	1	1	0	1	-8,033827	273,651556	309,927829	0
15.01.2021	23:45:58	0	0	3,841431	0	0	-0,064	87,192	0	1017,56	6,3	8,5	8,3	1	1	1	1	1	1	1	1	1	0	1	-4,862579	273,689501	313,275467	0
15.01.2021	23:45:59	0	0	2,485632	0	359,4852	-0,06	87,182	0	1017,54	6,3	8,5	8,3	1	1	1	1	1	1	1	1	1	0	1	-4,792107	273,626787	313,054443	0
15.01.2021	23:46:00	0	0	4,406348	0	359,6184	-0,059	87,164	0	1017,5	6,3	8,3	8,3	1	1	1	1	1	1	1	1	1	0	1	-3,735025	273,685119	314,382648	0
15.01.2021	23:46:01	0	0	3,615465	0	360	-0,064	87,171	0	1017,52	6,3	8,5	8,3	1	1	1	1	1	1	1	1	1	0	1	-4,22833	273,663224	313,787555	0
15.01.2021	23:46:02	0	0	4,519331	0	1,17	-0,064	87,168	0	1017,42	6,3	8,5	8,3	1	1	1	1	1	1	1	1	1	0	1	-2,184637	273,558472	315,344612	0
15.01.2021	23:46:03	0	0	4,293365	0	4,0752	-0,065	87,167	0	1017,28	6,3	8,5	8,3	1	1	1	1	1	1	1	1	1	0	1	-4,369274	273,690962	313,775565	0
15.01.2021	23:46:04	0	0	4,632314	0	8,262	-0,065	87,159	0	1017,5	6,3	8,5	8,3	1	1	1	1	1	1	1	1	1	0	1	-5,919662	273,644268	312,00812	0
15.01.2021	23:46:05	0	0	4,180381	0	12,0924	-0,062	87,173	0	1017,64	6,3	8,5	8,3	1	1	1	1	1	1	1	1	1	0	1	-4,298802	273,545418	313,169843	0
15.01.2021	23:46:06	0	0	2,824582	0	17,2404	-0,065	87,176	0	1017,6	6,3	8,5	8,3	1	1	1	1	1	1	1	1	1	0	1	-3,805497	273,591872	313,878856	0
15.01.2021	23:46:07	0	0	2,824582	0	22,4748	-0,063	87,178	0	1017,56	6,3	8,5	8,3	1	1	1	1	1	1	1	1	1	0	1	-3,100775	273,522233	314,260252	0
15.01.2021	23:46:08	0	0	3,615465	0	27,9792	-0,067	87,156	0	1017,64	6,3	8,5	8,3	1	1	1	1	1	1	1	1	1	0	1	-5,708245	273,514993	311,619183	0
15.01.2021	23:46:09	0	0	4,067398	0	33,6564	-0,067	87,166	0	1017,52	6,3	8,5	8,3	1	1	1	1	1	1	1	1	1	0	1	-7,751938	273,596233	309,95267	0
15.01.2021	23:46:10	0	0	2,598615	0	41,832	-0,07	87,166	0	1017,44	6,3	8,5	8,3	1	1	1	1	1	1	1	1	1	0	1	-6,8358	273,68658	311,288663	0
15.01.2021	23:46:11	0	0	3,728471	0	48,816	-0,044	87,151	0	1017,72	6,3	8,4	8,2	1	1	1	1	1	1	1	1	1	0	1	-8,315715	273,586059	309,34164	0
15.01.2021	23:46:12	0	0	4,632314	0	53,73	-0,06	87,158	0	1017,54	6,3	8,5	8,3	1	1	1	1	1	1	1	1	1	0	1	-7,540521	273,698268	310,638291	0
15.01.2021	23:46:13	0	0	4,293365	0	55,5588	-0,065	87,165	0	1017,52	6,3	8,5	8,3	1	1	1	1	1	1	1	1	1	0	1	-2,959831	273,581701	314,677282	0
15.01.2021	23:46:14	0	0	4,858281	0	54,7956	-0,069	87,163	0	1017,6	6,3	8,5	8,3	1	1	1	1	1	1	1	1	1	0	1	-7,82241	273,496183	309,417734	0
15.01.2021	23:46:15	0	0	4,745298	0	52,4988	-0,071	87,154	0	1017,42	6,3	8,5	8,3	1	1	1	1	1	1	1	1	1	0	1	-2,889359	273,658848	315,106185	0
15.01.2021	23:46:16	0	0	3,050548	0	49,5684	-0,065	87,151	0	1017,66	6,3	8,5	8,3	1	1	1	1	1	1	1	1	1	0	1	-6,060606	273,642811	311,860403	0
15.01.2021	23:46:17	0	0	3,615465	0	45,5292	-0,062	87,153	0	1017,34	6,3	8,5	8,3	1	1	1	1	1	1	1	1	1	0	1	-5,84919	273,670519	312,200609	0
15.01.2021	23:46:18	0	0	5,310214	0	39,5604	-0,063	87,159	0	1017,32	6,4	8,5	8,3	1	1	1	1	1	1	1	1	1	0	1	-4,016913	273,523681	313,350835	0
15.01.2021	23:46:19	0	0	3,841431	0	33,6492	-0,064	87,148	0	1017,48	6,4	8,5	8,3	1	1	1	1	1	1	1	1	1	0	1	-3,523608	273,671979	314,532975	0
15.01.2021	23:46:20	0	0	4,858281	0	29,9412	-0,063	87,15	0	1017,6	6,3	8,5	8,3	1	1	1	1	1	1	1	1	1	0	1	-7,399577	273,626787	310,446973	0
15.01.2021	23:46:21	0	0	3,163532	0	26,6256	-0,065	87,142	0	1017,66	6,3	8,5	8,3	1	1	1	1	1	1	1	1	1	0	1	-6,8358	273,507757	310,458045	0
15.01.2021	23:46:22	0	0	4,632314	0	22,8456	-0,067	87,141	0	1017,62	6,3	8,5	8,3	1	1	1	1	1	1	1	1	1	0	1	-5,567301	273,613686	312,218383	0
15.01.2021	23:46:23	0	0	4,519331	0	17,2404	-0,07	87,161	0	1017,68	6,3	8,5	8,3	1	1	1	1	1	1	1	1	1	0	1	-7,610994	273,667601	310,425237	0
15.01.2021	23:46:24	0	0	5,084247	0	9,378	-0,064	87,156	0	1017,66	6,3	8,5	8,3	1	1	1	1	1	1	1	1	1	0	1	-8,527132	273,635525	309,360023	0
15.01.2021	23:46:25	0	0	2,937565	0	3,0348	-0,068	87,14	0	1017,6	6,3	8,5	8,3	1	1	1	1	1	1	1	1	1	0	1	-3,59408	273,677818	314,489647	0
15.01.2021	23:46:26	0	0	4,745298	0	358,416	-0,067	87,143	0	1017,56	6,3	8,5	8,3	1	1	1	1	1	1	1	1	1	0	1	-5,567301	273,666142	312,462147	0
15.01.2021	23:46:27	0	0	4,406348	0	357,246	-0,067	87,134	0	1017,6	6,3	8,5	8,3	1	1	1	1	1	1	1	1	1	0	1	-2,60747	273,654473	315,367739	0
15.01.2021	23:46:28	0	0	2,711599	0	1,1916	-0,061	87,154	0	1017,32	6,3	8,5	8,3	1	1	1	1	1	1	1	1	1	0	1	-7,892882	273,628243	309,960433	0
15.01.2021	23:46:29	0	0	2,824582	0	7,8732	-0,067	87,138	0	1017,48	6,3	8,5	8,3	1	1	1	1	1	1	1	1	1	0	1	-4,721635	273,517889	312,619231	0
15.01.2021	23:46:30	0	0	2,937565	0	12,8556	-0,077	87,152	0	1017,32	6,3	8,4	8,3	1	1	1	1	1	1	1	1	1	0	1	-7,470049	273,607867	310,2886	0
15.01.2021	23:46:31	0	0	4,067398	0	12,1032	-0,071	87,138	0	1017,66	6,3	8,5	8,3	1	1	1	1	1	1	1	1	1	0	1	-5,496829	273,513546	311,823882	0
15.01.2021	23:46:32	0	0	3,276515	0	11,2104	-0,07	87,146	0	1017,32	6,3	8,3	8,3	1	1	1	1	1	1	1	1	1	0	1	-3,100775	273,581701	314,536338	0
15.01.2021	23:46:33	0	0	4,519331	0	11,7216	-0,063	87,16	0	1017,4	6,3	8,5	8,3	1	1	1	1	1	1	1	1	1	0	1	-3,453136	273,679278	314,637379	0
15.01.2021	23:46:34	0	0	2,824582	0	16,1136	-0,066	87,161	0	1017,42	6,3	8,5	8,3	1	1	1	1	1	1	1	1	1	0	1	-8,80902	273,532373	308,59907	0
15.01.2021	23:46:35	0	0	3,841431	0,0075	23,9868	-0,065	87,172	0	1017,62	6,3	8,5	8,3	1	1	1	1	1	1	1	1	1	0	1	-5,567301	273,661765	312,441803	0
15.01.2021	23:46:36	0	0	3,954415	0,09	30,3408	-0,065	87,162	0	1017,66	6,3	8,5	8,3	1	1	1	1	1	1	1	1	1	0	1	-8,668076	273,657389	309,320689	0
15.01.2021	23:46:37	0	0	2,824582	0,06375	34,344	-0,068	87,166	0	1017,58	6,3	8,4	8,3	1	1	1	1	1	1	1	1	1	0	1	-2,184637	273,516441	315,14951	0
15.01.2021	23:46:38	0	0	2,485632	0,078	35,0928	-0,064	87,152	0	1017,58	6,3	8,5	8,3	1	1	1	1	1	1	1	1	1	0	1	-10,923185	273,542518	306,531998	0
15.01.2021	23:46:39	0	0	4,858281	0,12225	34,3404	-0,072	87,172	0	1017,48	6,3	8,5	8,3	1	1	1	1	1	1	1	1	1	0	1	-4,369274	273,663224	313,64661	0
15.01.2021	23:46:40	0	0	3,841431	0,14175	32,8752	-0,068	87,157	0	1017,52	6,3	8,4	8,3	1	1	1	1	1	1	1	1	1	0	1	-7,681466	273,653014	310,286966	0
15.01.2021	23:46:41	0	0	4,745298	0,126	31,032	-0,066	87,177	0	1017,54	6,3	8,4	8,3	1	1	1	1	1	1	1	1	1	0	1	-4,792107	273,677818	313,29162	0
15.01.2021	23:46:42	0	0	4,519331	0,147	27,9756	-0,071	87,165	0	1017,38	6,3	8,5	8,3	1	1	1	1	1	1	1	1	1	0	1	-5,355884	273,653014	312,612547	0
15.01.2021	23:46:43	0	0	4,293365	0,117	22,8312	-0,071	87,167	0	1017,44	6,3	8,5	8,3	1	1	1	1	1	1	1	1	1	0	1	-9,795631	273,674898	308,274523	0
15.01.2021	23:46:44	0	0	4,745326	0,132	18,4464	-0,07	87,168	0	1017,52	6,3	8,4	8,2	1	1	1	1	1	1	1	1	1	0	1	-3,664553	273,631156	314,202297	0
15.01.2021	23:46:45	0	0	2,711599	0,1455	18,4716	-0,065	87,182	0	1017,72	6,3	8,5	8,3	1	1	1	1	1	1	1	1	1	0	1	-7,329105	273,683659	310,781777	0
15.01.2021	23:46:46	0	0	2,937565	0,1785	19,53	-0,068	87,162	0	1017,52	6,3	8,5	8,3	1	1	1	1	1	1	1	1	1	0	1	-3,875969	273,543968	313,585945	0
15.01.2021	23:46:47	0	0	3,389498	0,1815	19,9152	-0,076	87,168	0	1017,52	6,3	8,5	8,3	1	1	1	1	1	1	1	1	1	0	1	-4,369274	273,519337	312,978311	0
15.01.2021	23:46:48	0	0	2,485632	0,20175	19,8864	-0,074	87,155	0	1017,64	6,3	8,3	8,3	1	1	1	1	1	1	1	1	1	0	1	-4,22833	273,53672	313,19994	0
15.01.2021	23:46:49	0	0	2,824582	0,23175	19,5336	-0,074	87,17	0	1017,58	6,3	8,4	8,3	1	1	1	1	1	1	1	1	1	0	1	-7,399577	273,619508	310,413152	0
15.01.2021	23:46:50	0	0	4,745298	0,21075	18,0792	-0,071	87,16	0	1017,52	6,3	8,4	8,3	1	1	1	1	1	1	1	1	1	0	1	-2,60747	273,496183	314,632674	0
15.01.2021	23:46:51	0	0	5,197231	0,2235	15,4152	-0,075	87,174	0	1017,62	6,3	8,5	8,3	1	1	1	1	1	1	1	1	1	0	1	-12,614517	273,594779	305,083339	0
15.01.2021	23:46:52	0	0	2,711599	0,2205	12,492	-0,076	87,151	0	1017,56	6,3	8,4	8,3	1	1	1	1	1	1	1	1	1	0	1	-4,792107	273,673438	313,271261	0
15.01.2021	23:46:53	0	0	3,050548	0,237	10,4508	-0,07	87,167	0	1017,56	6,3	8,5	8,3	1	1	1	1	1	1	1	1	1	0	1	-6,8358	273,619508	310,97693	0
15.01.2021	23:46:54	0	0	3,615465	0,22575	10,0656	-0,071	87,172	0	1017,58	6,3	8,5	8,3	1	1	1	1	1	1	1	1	1	0	1	-9,795631	273,52513	307,57884	0
15.01.2021	23:46:55	0	0	2,711599	0,20775	10,44	-0,075	87,159	0	1017,48	6,3	8,5	8,3	1	1	1	1	1	1	1	1	1	0	1	-9,372798	273,626787	308,473752	0
15.01.2021	23:46:56	0	0	2,824582	0,231	10,062	-0,069	87,168	0	1017,44	6,3	8,4	8,3	1	1	1	1	1	1	1	1	1	0	1	-3,805497	273,682198	314,298596	0
15.01.2021	23:46:57	0	0	3,276515	0,24525	9,3816	-0,073	87,159	0	1017,52	6,3	8,5	8,3	1	1	1	1	1	1	1	1	1	0	1	-7,892882	273,607867	309,865767	0
15.01.2021	23:46:58	0	0	3,276515	0,2475	9,7596	-0,07	87,18	0	1017,68	6,3	8,5	8,3	1	1	1	1	1	1	1	1	1	0	1	-5,496829	273,679278	312,593686	0
15.01.2021	23:46:59	0	0	3,502482	0,25275	11,718	-0,063	87,177	0	1017,58	6,3	8,4	8,3	1	1	1	1	1	1	1	1	1	0	1	-6,483439	273,636982	311,410485	0
15.01.2021	23:47:00	0	0	2,824582	0,25125	13,5504	-0,07	87,175	0	1017,5	6,3	8,5	8,3	1	1	1	1	1	1	1	1	1	0	1	-6,765328	273,631156	311,101522	0
15.01.2021	23:47:01	0	0	4,971264	0,282	15,408	-0,077	87,176	0	1017,26	6,3	8,5	8,3	1	1	1	1	1	1	1	1	1	0	1	-11,980268	273,512098	305,333725	0
15.01.2021	23:47:02	0	0	4,745298	0,26625	16,1064	-0,078	87,178	0	1017,6	6,3	8,5	8,3	1	1	1	1	1	1	1	1	1	0	1	-10,570825	273,638439	307,32987	0
15.01.2021	23:47:03	0	0	2,485632	0,231	15,408	-0,078	87,18	0	1017,54	6,3	8,4	8,3	1	1	1	1	1	1	1	1	1	0	1	-8,949965	273,632612	308,923653	0
15.01.2021	23:47:04	0	0	2,485632	0,24	6,4512	-0,07	87,175	0	1017,58	6,3	8,4	8,3	1	1	1	1	1	1	1	1	1	0	1	-5,84919	273,676358	312,227751	0
15.01.2021	23:47:05	0	0	2,937565	0,19425	352,0404	-0,073	87,185	0	1017,42	6,3	8,5	8,3	1	1	1	1	1	1	1	1	1	0	1	-8,80902	273,559923	308,726965	0
15.01.2021	23:47:06	0	0	3,163532	0,225	339,8256	-0,079	87,174	0	1017,52	6,3	8,5	8,3	1	1	1	1	1	1	1	1	1	0	1	-8,033827	273,496183	309,206318	0
15.01.2021	23:47:07	0	0	3,615465	0,21	334,5804	-0,071	87,171	0	1017,52	6,3	8,5	8,3	1	1	1	1	1	1	1	1	1	0	1	-1,973221	273,635525	315,913934	0
15.01.2021	23:47:08	0	0	2,824582	0,1965	338,6772	-0,071	87,181	0	1017,54	6,3	8,4	8,3	1	1	1	1	1	1	1	1	1	0	1	-0	273,679278	318,090515	0
15.01.2021	23:47:09	0	0	3,615465	0,18075	347,6376	-0,076	87,182	0	1017,5	6,3	8,5	8,3	1	1	1	1	1	1	1	1	1	0	1	-5,144468	273,622419	312,681788	0
15.01.2021	23:47:10	0	0	3,050548	0,183	354,9996	-0,073	87,186	0	1017,5	6,3	8,4	8,3	1	1	1	1	1	1	1	1	1	0	1	-5,073996	273,507757	312,219849	0
15.01.2021	23:47:11	0	0	4,632314	0,19725	355,4892	-0,078	87,181	0	1017,58	6,3	8,5	8,3	1	1	1	1	1	1	1	1	1	0	1	-6,976744	273,610777	310,795421	0
15.01.2021	23:47:12	0	0	3,954415	0,23025	351,7884	-0,074	87,196	0	1017,5	6,3	8,5	8,3	1	1	1	1	1	1	1	1	1	0	1	-5,496829	273,55412	312,012213	0
15.01.2021	23:47:13	0	0	4,406348	0,21375	346,2012	-0,076	87,19	0	1017,54	6,3	8,5	8,3	1	1	1	1	1	1	1	1	1	0	1	-1,127555	273,689501	317,010492	0
15.01.2021	23:47:14	0	0	4,406348	0,228	339,1416	-0,08	87,177	0	1017,44	6,3	8,3	8,3	1	1	1	1	1	1	1	1	1	0	1	-3,875969	273,577343	313,740907	0
15.01.2021	23:47:15	0	0	3,050548	0,243	334,2168	-0,079	87,194	0	1017,46	6,3	8,5	8,3	1	1	1	1	1	1	1	1	1	0	1	-3,030303	273,500522	314,229974	0
15.01.2021	23:47:16	0	0	4,519331	0,22875	332,8056	-0,075	87,204	0	1017,48	6,3	8,5	8,3	1	1	1	1	1	1	1	1	1	0	1	-6,765328	273,543968	310,696586	0
15.01.2021	23:47:17	0	0	2,711599	0,27825	332,4168	-0,078	87,206	0	1017,52	6,3	8,5	8,3	1	1	1	1	1	1	1	1	1	0	1	-1,550388	273,692423	316,601245	0
15.01.2021	23:47:18	0	0	2,937583	0,264	331,5672	-0,075	87,206	0	1017,4	6,3	8,5	8,2	1	1	1	1	1	1	1	1	1	0	1	-4,510218	273,618052	313,295749	0
15.01.2021	23:47:19	0	0	2,598615	0,28575	329,3064	-0,075	87,202	0	1017,68	6,3	8,5	8,3	1	1	1	1	1	1	1	1	1	0	1	-2,536998	273,680738	315,560306	0
15.01.2021	23:47:20	0	0	4,971264	0,282	329,3532	-0,082	87,206	0	1017,46	6,3	8,5	8,3	1	1	1	1	1	1	1	1	1	0	1	-5,637773	273,55557	311,878004	0
15.01.2021	23:47:21	0	0	3,276515	0,318	331,1352	-0,071	87,195	0	1017,5	6,3	8,5	8,3	1	1	1	1	1	1	1	1	1	0	1	-4,580691	273,679278	313,509825	0
15.01.2021	23:47:22	0	0	2,259666	0,339	332,7516	-0,076	87,215	0	1017,64	6,3	8,5	8,3	1	1	1	1	1	1	1	1	1	0	1	-5,285412	273,543968	312,176502	0
15.01.2021	23:47:23	0	0	4,858281	0,309	333,1836	-0,074	87,221	0	1017,58	6,3	8,4	8,3	1	1	1	1	1	1	1	1	1	0	1	-8,174771	273,604958	309,570364	0
15.01.2021	23:47:24	0	0	3,954415	0,336	334,3068	-0,072	87,224	0	1017,54	6,3	8,5	8,3	1	1	1	1	1	1	1	1	1	0	1	-4,933051	273,529475	312,461589	0
15.01.2021	23:47:25	0	0	2,824582	0,28125	336,1068	-0,076	87,205	0	1017,5	6,3	8,5	8,3	1	1	1	1	1	1	1	1	1	0	1	-6,906272	273,620963	310,91322	0
15.01.2021	23:47:26	0	0	4,406374	0,27825	337,554	-0,07	87,202	0	1017,44	6,3	8,4	8,2	1	1	1	1	1	1	1	1	1	0	1	-5,496829	273,493291	311,729896	0
15.01.2021	23:47:27	0	0	4,293365	0,288	338,76	-0,069	87,214	0	1017,52	6,3	8,4	8,3	1	1	1	1	1	1	1	1	1	0	1	-2,959831	273,622419	314,866425	0
15.01.2021	23:47:28	0	0	2,033699	0,30375	338,724	-0,074	87,222	0	1017,54	6,3	8,5	8,3	1	1	1	1	1	1	1	1	1	0	1	-4,157858	273,66906	313,885157	0
15.01.2021	23:47:29	0	0	3,615465	0,28725	339,3108	-0,071	87,221	0	1017,52	6,3	8,5	8,3	1	1	1	1	1	1	1	1	1	0	1	-2,184637	273,591872	315,499716	0
15.01.2021	23:47:30	0	0	2,937565	0,294	339,8544	-0,07	87,222	0	1017,64	6,3	8,5	8,3	1	1	1	1	1	1	1	1	1	0	1	-0	273,677818	318,083727	0
15.01.2021	23:47:31	0	0	3,163532	0,26925	339,876	-0,074	87,232	0	1017,48	6,3	8,5	8,3	1	1	1	1	1	1	1	1	1	0	1	-4,721635	273,543968	312,740279	0
15.01.2021	23:47:32	0	0	2,485632	0,28125	334,9008	-0,074	87,227	0	1017,54	6,3	8,5	8,3	1	1	1	1	1	1	1	1	1	0	1	-6,8358	273,680738	311,261504	0
15.01.2021	23:47:33	0	0	4,406348	0,288	329,4216	-0,076	87,209	0	1017,42	6,3	8,4	8,3	1	1	1	1	1	1	1	1	1	0	1	-9,513742	273,55412	307,9953	0
15.01.2021	23:47:34	0	0	3,276515	0,303	323,6004	-0,072	87,235	0	1017,5	6,3	8,4	8,3	1	1	1	1	1	1	1	1	1	0	1	-7,892882	273,671979	310,163701	0
15.01.2021	23:47:35	0	0	2,824582	0,29925	320,4504	-0,073	87,206	0	1017,44	6,3	8,4	8,3	1	1	1	1	1	1	1	1	1	0	1	-2,466526	273,616597	315,33268	0
15.01.2021	23:47:36	0	0	2,372649	0,29025	322,6536	-0,07	87,225	0	1017,52	6,3	8,5	8,3	1	1	1	1	1	1	1	1	1	0	1	-5,355884	273,682198	312,748208	0
15.01.2021	23:47:37	0	0	4,632314	0,2925	329,3208	-0,075	87,227	0	1017,54	6,3	8,4	8,3	1	1	1	1	1	1	1	1	1	0	1	-7,610994	273,609322	310,154413	0
15.01.2021	23:47:38	0	0	5,084247	0,29325	340,5168	-0,065	87,233	0	1017,6	6,3	8,3	8,3	1	1	1	1	1	1	1	1	1	0	1	-4,439746	273,496183	312,800398	0
15.01.2021	23:47:39	0	0	3,502482	0,28125	347,3316	-0,077	87,219	0	1017,54	6,3	8,4	8,3	1	1	1	1	1	1	1	1	1	0	1	-2,536998	273,619508	315,275732	0
15.01.2021	23:47:40	0	0	2,485632	0,318	345,8736	-0,071	87,235	0	1017,62	6,3	8,4	8,3	1	1	1	1	1	1	1	1	1	0	1	-2,60747	273,487508	314,592424	0
15.01.2021	23:47:41	0	0	4,85831	0,31575	339,1524	-0,075	87,226	0	1017,52	6,3	8,5	8,2	1	1	1	1	1	1	1	1	1	0	1	-7,82241	273,55557	309,693367	0
15.01.2021	23:47:42	0	0	4,293365	0,36	334,26	-0,076	87,232	0	1017,54	6,3	8,4	8,3	1	1	1	1	1	1	1	1	1	0	1	-5,496829	273,493291	311,729896	0
15.01.2021	23:47:43	0	0	4,971264	0,34875	336,4092	-0,08	87,225	0	1017,56	6,3	8,4	8,3	1	1	1	1	1	1	1	1	1	0	1	-4,721635	273,584606	312,928972	0
15.01.2021	23:47:44	0	0	3,954415	0,35025	337,5036	-0,078	87,239	0	1017,4	6,3	8,5	8,3	1	1	1	1	1	1	1	1	1	0	1	-6,624383	273,674898	311,445771	0
15.01.2021	23:47:45	0	0	4,632314	0,33975	330,0552	-0,075	87,249	0	1017,56	6,3	8,4	8,3	1	1	1	1	1	1	1	1	1	0	1	-0,98661	273,561374	316,556113	0
15.01.2021	23:47:46	0	0	3,163551	0,34875	317,0016	-0,075	87,238	0	1017,42	6,3	8,5	8,2	1	1	1	1	1	1	1	1	1	0	1	-7,329105	273,661765	310,679999	0
15.01.2021	23:47:47	0	0	3,954415	0,32325	309,8844	-0,072	87,257	0	1017,56	6,3	8,4	8,3	1	1	1	1	1	1	1	1	1	0	1	-7,681466	273,626787	310,165084	0
15.01.2021	23:47:48	0	0	4,180381	0,318	309,9312	-0,079	87,226	0	1017,54	6,3	8,4	8,3	1	1	1	1	1	1	1	1	1	0	1	-0,916138	273,673438	317,14723	0
15.01.2021	23:47:49	0	0	2,937583	0,2775	312,8256	-0,073	87,255	0	1017,44	6,3	8,5	8,2	1	1	1	1	1	1	1	1	1	0	1	-1,691332	273,517889	315,649534	0
15.01.2021	23:47:50	0	0	2,937565	0,2625	312,1632	-0,074	87,238	0	1017,54	6,3	8,4	8,3	1	1	1	1	1	1	1	1	1	0	1	-0	273,55412	317,509042	0
15.01.2021	23:47:51	0	0	2,711599	0,2685	311,04	-0,075	87,279	0	1017,86	6,3	8,5	8,3	1	1	1	1	1	1	1	1	1	0	1	-6,131078	273,494737	311,102356	0
15.01.2021	23:47:52	0	0	5,084278	0,27	316,638	-0,074	87,25	0	1017,66	6,3	8,5	8,2	1	1	1	1	1	1	1	1	1	0	1	-2,536998	273,591872	315,147355	0
15.01.2021	23:47:53	0	0	3,615465	0,318	334,242	-0,076	87,241	0	1017,6	6,3	8,4	8,3	1	1	1	1	1	1	1	1	1	0	1	-3,453136	273,674898	314,617018	0
15.01.2021	23:47:54	0	0	4,519358	0,342	346,8564	-0,072	87,256	0	1017,6	6,3	8,4	8,2	1	1	1	1	1	1	1	1	1	0	1	-5,84919	273,545418	311,619455	0
15.01.2021	23:47:55	0	0	3,954438	0,3795	347,6556	-0,078	87,26	0	1017,44	6,3	8,5	8,2	1	1	1	1	1	1	1	1	1	0	1	-2,60747	273,685119	315,510202	0
15.01.2021	23:47:56	0	0	3,728448	0,3825	340,5492	-0,071	87,242	0	1017,6	6,3	8,5	8,3	1	1	1	1	1	1	1	1	1	0	1	-4,862579	273,628243	312,990736	0
15.01.2021	23:47:57	0	0	2,711599	0,39525	333,0864	-0,069	87,268	0	1017,6	6,3	8,5	8,3	1	1	1	1	1	1	1	1	1	0	1	-2,748414	273,499076	314,505151	0
15.01.2021	23:47:58	0	0	2,598615	0,38325	330,3504	-0,078	87,25	0	1017,46	6,4	8,3	8,3	1	1	1	1	1	1	1	1	1	0	1	-6,694856	273,673438	311,368513	0
15.01.2021	23:47:59	0	0	3,728448	0,39225	331,596	-0,074	87,259	0	1017,5	6,3	8,5	8,3	1	1	1	1	1	1	1	1	1	0	1	-2,677942	273,651556	315,283713	0
15.01.2021	23:48:00	0	0	4,632314	0,393	332,0964	-0,082	87,236	0	1017,64	6,3	8,4	8,3	1	1	1	1	1	1	1	1	1	0	1	-3,946441	273,661765	314,062663	0
15.01.2021	23:48:01	0	0	4,406348	0,4185	330,8652	-0,075	87,237	0	1017,44	6,3	8,5	8,3	1	1	1	1	1	1	1	1	1	0	1	-2,677942	273,644268	315,24984	0
15.01.2021	23:48:02	0	0	3,954415	0,46425	335,2392	-0,079	87,255	0	1017,5	6,3	8,5	8,3	1	1	1	1	1	1	1	1	1	0	1	-0,070472	273,593326	317,620632	0
15.01.2021	23:48:03	0	0	4,632314	0,459	339,48	-0,077	87,242	0	1017,52	6,3	8,4	8,3	1	1	1	1	1	1	1	1	1	0	1	-2,396054	273,683659	315,714829	0
15.01.2021	23:48:04	0	0	4,293365	0,50175	340,5672	-0,072	87,237	0	1017,56	6,3	8,4	8,3	1	1	1	1	1	1	1	1	1	0	1	-5,990134	273,53817	311,444863	0
15.01.2021	23:48:05	0	0	4,745298	0,486	338,382	-0,072	87,264	0	1017,66	6,3	8,4	8,3	1	1	1	1	1	1	1	1	1	0	1	-9,302326	273,66906	308,740689	0
15.01.2021	23:48:06	0	0	3,502482	0,483	334,9728	-0,074	87,27	0	1017,62	6,3	8,4	8,3	1	1	1	1	1	1	1	1	1	0	1	-3,523608	273,615142	314,268836	0
15.01.2021	23:48:07	0	0	3,502482	0,47175	336,1788	-0,069	87,266	0	1017,58	6,3	8,4	8,3	1	1	1	1	1	1	1	1	1	0	1	-4,087385	273,513546	313,233325	0
15.01.2021	23:48:08	0	0	2,598615	0,483	343,89	-0,076	87,25	0	1017,56	6,3	8,4	8,3	1	1	1	1	1	1	1	1	1	0	1	-6,342495	273,666142	311,686953	0
15.01.2021	23:48:09	0	0	2,598615	0,41925	351,3132	-0,079	87,266	0	1017,56	6,3	8,5	8,3	1	1	1	1	1	1	1	1	1	0	1	-7,751938	273,588966	309,918915	0
15.01.2021	23:48:10	0	0	4,745298	0,4095	350,2836	-0,075	87,255	0	1017,58	6,3	8,5	8,3	1	1	1	1	1	1	1	1	1	0	1	-4,298802	273,670519	313,750996	0
15.01.2021	23:48:11	0	0	4,745298	0,35325	342,7524	-0,074	87,273	0	1017,46	6,3	8,4	8,3	1	1	1	1	1	1	1	1	1	0	1	-5,355884	273,580248	312,274482	0
15.01.2021	23:48:12	0	0	2,598615	0,33975	334,9332	-0,072	87,277	0	1017,48	6,3	8,4	8,3	1	1	1	1	1	1	1	1	1	0	1	-5,637773	273,670519	312,412025	0
15.01.2021	23:48:13	0	0	2,259666	0,32925	328,5468	-0,074	87,271	0	1017,58	6,3	8,3	8,3	1	1	1	1	1	1	1	1	1	0	1	-1,973221	273,615142	315,819224	0
15.01.2021	23:48:14	0	0	4,745298	0,36675	324,0864	-0,076	87,272	0	1017,4	6,3	8,5	8,3	1	1	1	1	1	1	1	1	1	0	1	-3,453136	273,666142	314,576312	0
15.01.2021	23:48:15	0	0	4,745298	0,372	324,7344	-0,071	87,29	0	1017,68	6,3	8,4	8,3	1	1	1	1	1	1	1	1	1	0	1	-10,007047	273,638439	307,893647	0
15.01.2021	23:48:16	0	0	3,502482	0,42	321,1812	-0,072	87,267	0	1017,56	6,3	8,4	8,3	1	1	1	1	1	1	1	1	1	0	1	-2,748414	273,53672	314,679855	0
15.01.2021	23:48:17	0	0	4,858281	0,4725	317,0664	-0,073	87,277	0	1017,5	6,3	8,5	8,3	1	1	1	1	1	1	1	1	1	0	1	-4,862579	273,620963	312,956913	0
15.01.2021	23:48:18	0	0	3,389519	0,50775	321,8004	-0,075	87,277	0	1017,46	6,3	8,5	8,2	1	1	1	1	1	1	1	1	1	0	1	-3,100775	273,484617	314,085707	0
15.01.2021	23:48:19	0	0	3,163532	0,56325	333,8676	-0,077	87,263	0	1017,44	6,3	8,5	8,3	1	1	1	1	1	1	1	1	1	0	1	-2,959831	273,623875	314,873189	0
15.01.2021	23:48:20	0	0	3,502482	0,645	336,0852	-0,08	87,277	0	1017,44	6,3	8,4	8,3	1	1	1	1	1	1	1	1	1	0	1	-2,60747	273,496183	314,632674	0
15.01.2021	23:48:21	0	0	4,519358	0,68625	326,6028	-0,077	87,267	0	1017,56	6,3	8,4	8,2	1	1	1	1	1	1	1	1	1	0	1	-9,372798	273,552669	308,12951	0
15.01.2021	23:48:22	0	0	2,937565	0,68325	316,2132	-0,076	87,271	0	1017,54	6,3	8,5	8,3	1	1	1	1	1	1	1	1	1	0	1	-3,453136	273,66906	314,589878	0
15.01.2021	23:48:23	0	0	3,389498	0,663	312,84	-0,078	87,287	0	1017,5	6,3	8,4	8,3	1	1	1	1	1	1	1	1	1	0	1	-6,976744	273,606412	310,775148	0
15.01.2021	23:48:24	0	0	3,954415	0,62175	311,7132	-0,072	87,264	0	1017,42	6,3	8,4	8,3	1	1	1	1	1	1	1	1	1	0	1	-3,453136	273,677818	314,630591	0
15.01.2021	23:48:25	0	0	4,745298	0,59625	312,084	-0,081	87,274	0	1017,6	6,3	8,4	8,3	1	1	1	1	1	1	1	1	1	0	1	-4,016913	273,542518	313,43827	0
15.01.2021	23:48:26	0	0	4,858281	0,561	309,1752	-0,081	87,286	0	1017,46	6,3	8,4	8,3	1	1	1	1	1	1	1	1	1	0	1	-4,721635	273,642811	313,199374	0
15.01.2021	23:48:27	0	0	2,937583	0,5445	306,396	-0,073	87,285	0	1017,66	6,3	8,4	8,2	1	1	1	1	1	1	1	1	1	0	1	-5,073996	273,533822	312,34082	0
15.01.2021	23:48:28	0	0	4,29339	0,50925	306,0864	-0,076	87,297	0	1017,46	6,3	8,4	8,2	1	1	1	1	1	1	1	1	1	0	1	-5,637773	273,501969	311,629217	0
15.01.2021	23:48:29	0	0	3,615487	0,5235	307,9836	-0,075	87,288	0	1017,54	6,3	8,4	8,2	1	1	1	1	1	1	1	1	1	0	1	-6,060606	273,609322	311,704801	0
15.01.2021	23:48:30	0	0	3,050567	0,47925	308,7972	-0,079	87,282	0	1017,56	6,3	8,5	8,2	1	1	1	1	1	1	1	1	1	0	1	-3,523608	273,484617	313,662874	0
15.01.2021	23:48:31	0	0	4,745298	0,48075	306,4104	-0,076	87,272	0	1017,6	6,4	8,5	8,3	1	1	1	1	1	1	1	1	1	0	1	-6,342495	273,607867	311,416154	0
15.01.2021	23:48:32	0	0	4,406374	0,45675	300,4812	-0,075	87,288	0	1017,66	6,3	8,4	8,2	1	1	1	1	1	1	1	1	1	0	1	-3,523608	273,484617	313,662874	0
15.01.2021	23:48:33	0	0	4,406348	0,43275	291,7908	-0,077	87,277	0	1017,46	6,3	8,5	8,3	1	1	1	1	1	1	1	1	1	0	1	-5,144468	273,520785	312,209838	0
15.01.2021	23:48:34	0	0	4,519331	0,4425	286,7364	-0,074	87,288	0	1017,84	6,3	8,5	8,3	1	1	1	1	1	1	1	1	1	0	1	-4,157858	273,644268	313,769924	0
15.01.2021	23:48:35	0	0	4,971264	0,435	284,0472	-0,073	87,298	0	1017,6	6,3	8,5	8,3	1	1	1	1	1	1	1	1	1	0	1	-4,580691	273,602049	313,150933	0
15.01.2021	23:48:36	0	0	3,615465	0,441	286,974	-0,072	87,297	0	1017,62	6,3	8,4	8,3	1	1	1	1	1	1	1	1	1	0	1	-8,104299	273,501969	309,162691	0
15.01.2021	23:48:37	0	0	3,841431	0,41625	292,9536	-0,075	87,281	0	1017,3	6,3	8,4	8,3	1	1	1	1	1	1	1	1	1	0	1	-7,047216	273,619508	310,765513	0
15.01.2021	23:48:38	0	0	4,519358	0,4215	299,7612	-0,074	87,299	0	1017,6	6,3	8,4	8,2	1	1	1	1	1	1	1	1	1	0	1	-3,100775	273,484617	314,085707	0
15.01.2021	23:48:39	0	0	3,163532	0,4425	297,8892	-0,071	87,292	0	1017,52	6,3	8,5	8,3	1	1	1	1	1	1	1	1	1	0	1	-5,990134	273,571535	311,599769	0
15.01.2021	23:48:40	0	0	4,406348	0,429	286,9992	-0,077	87,303	0	1017,46	6,3	8,4	8,3	1	1	1	1	1	1	1	1	1	0	1	-3,100775	273,653014	314,867657	0
15.01.2021	23:48:41	0	0	3,163551	0,408	272,8476	-0,076	87,289	0	1017,4	6,3	8,5	8,2	1	1	1	1	1	1	1	1	1	0	1	-5,567301	273,590419	312,110302	0
15.01.2021	23:48:42	0	0	4,632314	0,38625	268,0524	-0,071	87,298	0	1017,52	6,3	8,5	8,3	1	1	1	1	1	1	1	1	1	0	1	-4,933051	273,623875	312,899968	0
15.01.2021	23:48:43	0	0	3,050548	0,369	273,9024	-0,079	87,292	0	1017,44	6,3	8,4	8,3	1	1	1	1	1	1	1	1	1	0	1	-3,100775	273,490399	314,112533	0
15.01.2021	23:48:44	0	0	4,406348	0,35625	288,8172	-0,077	87,3	0	1017,64	6,3	8,5	8,3	1	1	1	1	1	1	1	1	1	0	1	-4,439746	273,484617	312,746736	0
15.01.2021	23:48:45	0	0	2,372649	0,33975	306,3816	-0,076	87,285	0	1017,66	6,3	8,5	8,3	1	1	1	1	1	1	1	1	1	0	1	-1,691332	273,519337	315,656254	0
15.01.2021	23:48:46	0	0	4,067398	0,3705	321,39	-0,074	87,303	0	1017,52	6,3	8,4	8,3	1	1	1	1	1	1	1	1	1	0	1	-8,597604	273,667601	309,438627	0
15.01.2021	23:48:47	0	0	2,711599	0,35325	332,0496	-0,073	87,303	0	1017,48	6,3	8,4	8,3	1	1	1	1	1	1	1	1	1	0	1	-5,285412	273,574439	312,317976	0
15.01.2021	23:48:48	0	0	3,615465	0,4215	335,3328	-0,073	87,316	0	1017,64	6,3	8,4	8,3	1	1	1	1	1	1	1	1	1	0	1	-5,637773	273,657389	312,350992	0
15.01.2021	23:48:49	0	0	4,293365	0,46425	331,506	-0,075	87,293	0	1017,38	6,3	8,4	8,3	1	1	1	1	1	1	1	1	1	0	1	-5,355884	273,548318	312,126224	0
15.01.2021	23:48:50	0	0	3,841431	0,51525	331,38	-0,074	87,32	0	1017,52	6,3	8,4	8,3	1	1	1	1	1	1	1	1	1	0	1	-3,664553	273,673438	314,398816	0
15.01.2021	23:48:51	0	0	2,711599	0,51075	336,3336	-0,068	87,303	0	1017,52	6,3	8,5	8,3	1	1	1	1	1	1	1	1	1	0	1	-5,990134	273,584606	311,660473	0
15.01.2021	23:48:52	0	0	4,293365	0,4995	342,018	-0,075	87,31	0	1017,46	6,3	8,4	8,3	1	1	1	1	1	1	1	1	1	0	1	-2,396054	273,486062	314,797134	0
15.01.2021	23:48:53	0	0	5,084247	0,531	342,6552	-0,076	87,311	0	1017,44	6,3	8,4	8,3	1	1	1	1	1	1	1	1	1	0	1	-2,60747	273,551219	314,888104	0
15.01.2021	23:48:54	0	0	4,971264	0,51525	340,5492	-0,072	87,306	0	1017,48	6,3	8,5	8,3	1	1	1	1	1	1	1	1	1	0	1	-5,144468	273,481726	312,028605	0
15.01.2021	23:48:55	0	0	4,858281	0,48675	337,9644	-0,076	87,304	0	1017,6	6,3	8,4	8,3	1	1	1	1	1	1	1	1	1	0	1	-5,073996	273,612231	312,704929	0
15.01.2021	23:48:56	0	0	4,971264	0,48375	331,416	-0,073	87,294	0	1017,52	6,3	8,4	8,3	1	1	1	1	1	1	1	1	1	0	1	-2,325581	273,658848	315,669963	0
15.01.2021	23:48:57	0	0	4,067398	0,483	325,98	-0,07	87,315	0	1017,64	6,3	8,4	8,3	1	1	1	1	1	1	1	1	1	0	1	-7,329105	273,571535	310,260798	0
15.01.2021	23:48:58	0	0	4,519358	0,471	320,004	-0,067	87,322	0	1017,68	6,3	8,4	8,2	1	1	1	1	1	1	1	1	1	0	1	-5,355884	273,650098	312,598995	0
15.01.2021	23:48:59	0	0	5,084247	0,48375	315,6084	-0,078	87,304	0	1017,5	6,3	8,4	8,3	1	1	1	1	1	1	1	1	1	0	1	-6,553911	273,625331	311,285873	0
15.01.2021	23:49:00	0	0	4,632314	0,5025	314,856	-0,072	87,322	0	1017,54	6,3	8,3	8,3	1	1	1	1	1	1	1	1	1	0	1	-6,553911	273,474502	310,585649	0
15.01.2021	23:49:01	0	0	2,485647	0,51525	324,072	-0,073	87,329	0	1017,58	6,3	8,4	8,2	1	1	1	1	1	1	1	1	1	0	1	-4,580691	273,623875	313,252329	0
15.01.2021	23:49:02	0	0	3,502482	0,504	334,314	-0,072	87,318	0	1017,62	6,3	8,4	8,3	1	1	1	1	1	1	1	1	1	0	1	-9,795631	273,486062	307,397557	0
15.01.2021	23:49:03	0	0	4,745298	0,5025	335,772	-0,075	87,292	0	1017,5	6,3	8,4	8,3	1	1	1	1	1	1	1	1	1	0	1	-7,540521	273,551219	309,955052	0
15.01.2021	23:49:04	0	0	4,632342	0,48975	336,4344	-0,075	87,313	0	1017,52	6,3	8,4	8,2	1	1	1	1	1	1	1	1	1	0	1	-6,553911	273,480281	310,612458	0
15.01.2021	23:49:05	0	0	5,084278	0,44775	343,5264	-0,071	87,318	0	1017,64	6,3	8,5	8,2	1	1	1	1	1	1	1	1	1	0	1	-3,312192	273,609322	314,453215	0
15.01.2021	23:49:06	0	0	3,276535	0,468	345,0564	-0,077	87,318	0	1017,66	6,3	8,4	8,2	1	1	1	1	1	1	1	1	1	0	1	-7,047216	273,49763	310,199638	0
15.01.2021	23:49:07	0	0	2,485632	0,4755	339,4332	-0,075	87,301	0	1017,54	6,3	8,4	8,3	1	1	1	1	1	1	1	1	1	0	1	-2,959831	273,532373	314,448259	0
15.01.2021	23:49:08	0	0	3,050567	0,47175	335,2896	-0,073	87,324	0	1017,6	6,3	8,3	8,2	1	1	1	1	1	1	1	1	1	0	1	-7,258633	273,503416	310,01507	0
15.01.2021	23:49:09	0	0	4,745298	0,47775	336,006	-0,074	87,314	0	1017,58	6,3	8,5	8,3	1	1	1	1	1	1	1	1	1	0	1	-7,963354	273,520785	309,390951	0
15.01.2021	23:49:10	0	0	4,519331	0,47175	343,5372	-0,073	87,306	0	1017,56	6,3	8,4	8,3	1	1	1	1	1	1	1	1	1	0	1	-5,778717	273,657389	312,210048	0
15.01.2021	23:49:11	0	0	4,632314	0,45975	349,9236	-0,076	87,312	0	1017,54	6,3	8,5	8,3	1	1	1	1	1	1	1	1	1	0	1	-8,668076	273,616597	309,13113	0
15.01.2021	23:49:12	0	0	3,163532	0,46425	343,5372	-0,073	87,317	0	1017,52	6,3	8,4	8,3	1	1	1	1	1	1	1	1	1	0	1	-5,073996	273,478836	312,08567	0
15.01.2021	23:49:13	0	0	4,067422	0,45225	327,1716	-0,078	87,319	0	1017,68	6,3	8,5	8,2	1	1	1	1	1	1	1	1	1	0	1	-5,355884	273,552669	312,146423	0
15.01.2021	23:49:14	0	0	3,615465	0,47325	318,0924	-0,073	87,33	0	1017,42	6,3	8,5	8,3	1	1	1	1	1	1	1	1	1	0	1	-3,24172	273,49763	314,005135	0
15.01.2021	23:49:15	0	0	4,745326	0,48375	321,156	-0,073	87,314	0	1017,6	6,3	8,4	8,2	1	1	1	1	1	1	1	1	1	0	1	-0,422833	273,606412	317,329059	0
15.01.2021	23:49:16	0	0	4,406374	0,49125	325,5228	-0,071	87,318	0	1017,54	6,3	8,4	8,2	1	1	1	1	1	1	1	1	1	0	1	-4,721635	273,653014	313,246797	0
15.01.2021	23:49:17	0	0	2,598615	0,5175	327,4164	-0,076	87,312	0	1017,46	6,3	8,4	8,3	1	1	1	1	1	1	1	1	1	0	1	-2,043693	273,594779	315,654163	0
15.01.2021	23:49:18	0	0	3,389498	0,50625	325,9044	-0,072	87,307	0	1017,46	6,3	8,4	8,3	1	1	1	1	1	1	1	1	1	0	1	-5,426357	273,658848	312,569187	0
15.01.2021	23:49:19	0	0	4,519331	0,57075	330,0696	-0,069	87,323	0	1017,38	6,3	8,5	8,3	1	1	1	1	1	1	1	1	1	0	1	-2,466526	273,481726	314,706547	0
15.01.2021	23:49:20	0	0	2,824582	0,56775	338,2668	-0,073	87,325	0	1017,48	6,3	8,4	8,3	1	1	1	1	1	1	1	1	1	0	1	-7,329105	273,50631	309,958025	0
15.01.2021	23:49:21	0	0	2,824582	0,61725	342,3384	-0,067	87,326	0	1017,64	6,3	8,5	8,3	1	1	1	1	1	1	1	1	1	0	1	-5,778717	273,663224	312,237167	0
15.01.2021	23:49:22	0	0	2,937565	0,6435	339,7932	-0,069	87,33	0	1017,6	6,3	8,5	8,3	1	1	1	1	1	1	1	1	1	0	1	-2,818887	273,516441	314,51526	0
15.01.2021	23:49:23	0	0	2,485632	0,6855	340,542	-0,071	87,32	0	1017,56	6,3	8,4	8,3	1	1	1	1	1	1	1	1	1	0	1	-3,59408	273,644268	314,333702	0
15.01.2021	23:49:24	0	0	3,163532	0,729	332,0424	-0,072	87,32	0	1017,48	6,3	8,4	8,3	1	1	1	1	1	1	1	1	1	0	1	-0,634249	273,604958	317,110886	0
15.01.2021	23:49:25	0	0	3,502482	0,7455	328,1904	-0,077	87,319	0	1017,6	6,4	8,4	8,3	1	1	1	1	1	1	1	1	1	0	1	-5,637773	273,491845	311,582243	0
15.01.2021	23:49:26	0	0	4,519331	0,76575	339,4116	-0,075	87,328	0	1017,4	6,4	8,4	8,3	1	1	1	1	1	1	1	1	1	0	1	-8,738548	273,578796	308,885073	0
15.01.2021	23:49:27	0	0	4,858281	0,771	343,1412	-0,08	87,329	0	1017,46	6,3	8,4	8,3	1	1	1	1	1	1	1	1	1	0	1	-2,255109	273,66906	315,787905	0
15.01.2021	23:49:28	0	0	4,632314	0,75975	338,6664	-0,073	87,334	0	1017,56	6,3	8,4	8,3	1	1	1	1	1	1	1	1	1	0	1	-4,862579	273,568631	312,713841	0
15.01.2021	23:49:29	0	0	2,937583	0,74175	332,0568	-0,072	87,332	0	1017,54	6,3	8,4	8,2	1	1	1	1	1	1	1	1	1	0	1	-5,778717	273,487508	311,421177	0
15.01.2021	23:49:30	0	0	3,163551	0,75825	334,9224	-0,072	87,337	0	1017,6	6,3	8,4	8,2	1	1	1	1	1	1	1	1	1	0	1	-5,567301	273,648641	312,380803	0
15.01.2021	23:49:31	0	0	4,632314	0,78525	334,5768	-0,076	87,326	0	1017,54	6,3	8,5	8,3	1	1	1	1	1	1	1	1	1	0	1	-2,748414	273,670519	315,301384	0
15.01.2021	23:49:32	0	0	2,372649	0,7995	325,1448	-0,075	87,336	0	1017,62	6,3	8,5	8,3	1	1	1	1	1	1	1	1	1	0	1	-3,100775	273,620963	314,718717	0
15.01.2021	23:49:33	0	0	5,197231	0,8445	318,42	-0,072	87,328	0	1017,54	6,4	8,5	8,3	1	1	1	1	1	1	1	1	1	0	1	-6,20155	273,483172	310,978227	0
15.01.2021	23:49:34	0	0	3,276515	0,876	315,8028	-0,077	87,309	0	1017,6	6,3	8,4	8,3	1	1	1	1	1	1	1	1	1	0	1	-6,412967	273,597687	311,298394	0
15.01.2021	23:49:35	0	0	4,180381	0,8625	318,186	-0,079	87,327	0	1017,56	6,3	8,4	8,3	1	1	1	1	1	1	1	1	1	0	1	-5,355884	273,661765	312,653219	0
15.01.2021	23:49:36	0	0	3,389498	0,85575	320,346	-0,073	87,334	0	1017,6	6,3	8,5	8,3	1	1	1	1	1	1	1	1	1	0	1	-4,22833	273,653014	313,740102	0
15.01.2021	23:49:37	0	0	3,954415	0,84	316,8252	-0,074	87,313	0	1017,54	6,3	8,4	8,3	1	1	1	1	1	1	1	1	1	0	1	-6,765328	273,622419	311,060928	0
15.01.2021	23:49:38	0	0	4,858281	0,81	315,504	-0,075	87,334	0	1017,48	6,3	8,4	8,3	1	1	1	1	1	1	1	1	1	0	1	-5,144468	273,650098	312,810411	0
15.01.2021	23:49:39	0	0	2,711599	0,77775	316,638	-0,074	87,324	0	1017,52	6,3	8,4	8,3	1	1	1	1	1	1	1	1	1	0	1	-5,21494	273,670519	312,834858	0
15.01.2021	23:49:40	0	0	4,745326	0,74925	319,554	-0,075	87,326	0	1017,66	6,3	8,5	8,2	1	1	1	1	1	1	1	1	1	0	1	-6,412967	273,532373	310,995123	0
15.01.2021	23:49:41	0	0	3,050548	0,7155	321,4656	-0,075	87,331	0	1017,5	6,3	8,4	8,3	1	1	1	1	1	1	1	1	1	0	1	-4,157858	273,483172	313,02192	0
15.01.2021	23:49:42	0	0	4,632314	0,6975	322,7184	-0,078	87,31	0	1017,3	6,3	8,5	8,3	1	1	1	1	1	1	1	1	1	0	1	-6,906272	273,55412	310,60277	0
15.01.2021	23:49:43	0	0	3,389498	0,6735	322,938	-0,082	87,33	0	1017,56	6,3	8,5	8,3	1	1	1	1	1	1	1	1	1	0	1	-3,453136	273,49763	313,793719	0
15.01.2021	23:49:44	0	0	5,084278	0,657	324,3456	-0,074	87,326	0	1017,64	6,3	8,4	8,2	1	1	1	1	1	1	1	1	1	0	1	-2,466526	273,590419	315,211077	0
15.01.2021	23:49:45	0	0	3,276515	0,69825	322,1712	-0,076	87,331	0	1017,54	6,3	8,4	8,3	1	1	1	1	1	1	1	1	1	0	1	-8,315715	273,470169	308,803744	0
15.01.2021	23:49:46	0	0	4,406348	0,71475	321,4404	-0,073	87,333	0	1017,46	6,3	8,4	8,3	1	1	1	1	1	1	1	1	1	0	1	-1,550388	273,594779	316,147468	0
15.01.2021	23:49:47	0	0	2,598615	0,71175	324,1116	-0,074	87,33	0	1017,5	6,3	8,4	8,3	1	1	1	1	1	1	1	1	1	0	1	-10,147992	273,494737	307,085443	0
15.01.2021	23:49:48	0	0	2,937565	0,648	329,2164	-0,072	87,335	0	1017,52	6,3	8,4	8,3	1	1	1	1	1	1	1	1	1	0	1	-3,382664	273,661765	314,62644	0
15.01.2021	23:49:49	0	0	3,841431	0,6255	327,7656	-0,077	87,323	0	1017,48	6,3	8,4	8,3	1	1	1	1	1	1	1	1	1	0	1	-5,637773	273,570083	311,945388	0
15.01.2021	23:49:50	0	0	4,858281	0,6015	322,524	-0,073	87,338	0	1017,58	6,3	8,4	8,3	1	1	1	1	1	1	1	1	1	0	1	-2,677942	273,667601	315,358289	0
15.01.2021	23:49:51	0	0	3,389498	0,58725	317,9304	-0,076	87,338	0	1017,54	6,3	8,4	8,3	1	1	1	1	1	1	1	1	1	0	1	-2,255109	273,599141	315,463006	0
15.01.2021	23:49:52	0	0	4,745298	0,56925	316,5912	-0,074	87,341	0	1017,54	6,3	8,4	8,3	1	1	1	1	1	1	1	1	1	0	1	-4,721635	273,478836	312,438031	0
15.01.2021	23:49:53	0	0	4,85831	0,57525	317,3328	-0,071	87,329	0	1017,58	6,3	8,4	8,2	1	1	1	1	1	1	1	1	1	0	1	-2,677942	273,493291	314,548783	0
15.01.2021	23:49:54	0	0	4,406348	0,58125	324,7704	-0,077	87,333	0	1017,48	6,3	8,4	8,3	1	1	1	1	1	1	1	1	1	0	1	-1,409443	273,584606	316,241164	0
15.01.2021	23:49:55	0	0	2,598615	0,555	331,9812	-0,077	87,341	0	1017,56	6,3	8,4	8,3	1	1	1	1	1	1	1	1	1	0	1	-3,523608	273,457175	313,535584	0
15.01.2021	23:49:56	0	0	5,084247	0,552	337,14	-0,076	87,313	0	1017,52	6,3	8,4	8,3	1	1	1	1	1	1	1	1	1	0	1	-10,993658	273,602049	306,737966	0
15.01.2021	23:49:57	0	0	4,632314	0,53625	338,6988	-0,08	87,34	0	1017,48	6,3	8,4	8,3	1	1	1	1	1	1	1	1	1	0	1	-5,21494	273,481726	311,958133	0
15.01.2021	23:49:58	0	0	3,163532	0,513	339,1272	-0,076	87,325	0	1017,58	6,3	8,5	8,3	1	1	1	1	1	1	1	1	1	0	1	-5,073996	273,543968	312,387918	0
15.01.2021	23:49:59	0	0	2,711599	0,53025	337,5324	-0,074	87,338	0	1017,62	6,3	8,4	8,3	1	1	1	1	1	1	1	1	1	0	1	-5,144468	273,667601	312,891763	0
15.01.2021	23:50:00	0	0	4,632314	0,52875	328,1724	-0,079	87,32	0	1017,56	6,3	8,4	8,3	1	1	1	1	1	1	1	1	1	0	1	-5,637773	273,593326	312,053331	0
15.01.2021	23:50:01	0	0	4,632314	0,52875	328,1724	-0,079	87,32	0	1017,56	6,3	8,4	8,3	1	1	1	1	1	1	1	1	1	0	1	-2,043693	273,655931	315,938294	0
15.01.2021	23:50:02	0	0	2,485632	0,52275	331,4412	-0,076	87,347	0	1017,46	6,3	8,4	8,3	1	1	1	1	1	1	1	1	1	0	1	-4,22833	273,604958	313,516805	0
15.01.2021	23:50:03	0	0	4,519331	0,53475	333,1692	-0,078	87,333	0	1017,5	6,3	8,5	8,3	1	1	1	1	1	1	1	1	1	0	1	-6,624383	273,655931	311,357603	0
15.01.2021	23:50:04	0	0	5,197231	0,52575	330,6492	-0,076	87,354	0	1017,52	6,3	8,4	8,3	1	1	1	1	1	1	1	1	1	0	1	-7,82241	273,574439	309,780978	0
15.01.2021	23:50:05	0	0	2,937583	0,504	324,6732	-0,074	87,351	0	1017,88	6,3	8,4	8,2	1	1	1	1	1	1	1	1	1	0	1	-8,80902	273,486062	308,384167	0
15.01.2021	23:50:06	0	0	2,824582	0,5145	321,4044	-0,075	87,334	0	1017,64	6,3	8,3	8,3	1	1	1	1	1	1	1	1	1	0	1	-4,369274	273,513546	312,951436	0
15.01.2021	23:50:07	0	0	3,841431	0,5445	321,048	-0,08	87,333	0	1017,56	6,3	8,5	8,3	1	1	1	1	1	1	1	1	1	0	1	-3,875969	273,529475	313,518671	0
15.01.2021	23:50:08	0	0	3,389498	0,55125	322,7544	-0,074	87,35	0	1017,54	6,3	8,4	8,3	1	1	1	1	1	1	1	1	1	0	1	-4,087385	273,49763	313,159469	0
15.01.2021	23:50:09	0	0	4,180381	0,60375	327,1284	-0,077	87,336	0	1017,62	6,3	8,4	8,3	1	1	1	1	1	1	1	1	1	0	1	-4,580691	273,606412	313,171201	0
15.01.2021	23:50:10	0	0	4,858281	0,6015	329,2524	-0,074	87,347	0	1017,64	6,3	8,4	8,3	1	1	1	1	1	1	1	1	1	0	1	-4,510218	273,487508	312,689676	0
15.01.2021	23:50:11	0	0	2,711599	0,6375	327,4236	-0,072	87,338	0	1017,48	6,3	8,4	8,3	1	1	1	1	1	1	1	1	1	0	1	-4,933051	273,599141	312,785063	0
15.01.2021	23:50:12	0	0	3,615465	0,66825	325,5264	-0,073	87,345	0	1017,6	6,3	8,5	8,3	1	1	1	1	1	1	1	1	1	0	1	-7,540521	273,663224	310,475363	0
15.01.2021	23:50:13	0	0	4,85831	0,71175	322,6284	-0,079	87,348	0	1017,58	6,3	8,4	8,2	1	1	1	1	1	1	1	1	1	0	1	-3,875969	273,507757	313,417876	0
15.01.2021	23:50:14	0	0	4,858281	0,732	330,732	-0,071	87,353	0	1017,68	6,3	8,5	8,3	1	1	1	1	1	1	1	1	1	0	1	-2,396054	273,460061	314,676527	0
15.01.2021	23:50:15	0	0	4,406348	0,7605	334,8468	-0,071	87,343	0	1017,6	6,3	8,4	8,3	1	1	1	1	1	1	1	1	1	0	1	-7,117689	273,53817	310,317309	0
15.01.2021	23:50:16	0	0	3,050548	0,77925	327,8268	-0,077	87,327	0	1017,54	6,3	8,5	8,3	1	1	1	1	1	1	1	1	1	0	1	-6,131078	273,650098	311,823801	0
15.01.2021	23:50:17	0	0	4,632314	0,80625	325,9548	-0,07	87,348	0	1017,52	6,3	8,4	8,3	1	1	1	1	1	1	1	1	1	0	1	-3,312192	273,602049	314,419432	0
15.01.2021	23:50:18	0	0	4,858281	0,792	332,0136	-0,073	87,346	0	1017,58	6,3	8,5	8,3	1	1	1	1	1	1	1	1	1	0	1	-11,627907	273,628243	306,225409	0
15.01.2021	23:50:19	0	0	3,615465	0,7905	333,1224	-0,074	87,33	0	1017,46	6,3	8,5	8,3	1	1	1	1	1	1	1	1	1	0	1	-5,990134	273,488953	311,216467	0
15.01.2021	23:50:20	0	0	4,858281	0,80175	330,0696	-0,076	87,338	0	1017,62	6,3	8,4	8,3	1	1	1	1	1	1	1	1	1	0	1	-5,778717	273,602049	311,952906	0
15.01.2021	23:50:21	0	0	4,632342	0,80175	329,3028	-0,073	87,346	0	1017,5	6,3	8,4	8,2	1	1	1	1	1	1	1	1	1	0	1	-4,157858	273,651556	313,803798	0
15.01.2021	23:50:22	0	0	2,937565	0,8385	333,8676	-0,074	87,35	0	1017,46	6,3	8,4	8,3	1	1	1	1	1	1	1	1	1	0	1	-0,070472	273,499076	317,183094	0
15.01.2021	23:50:23	0	0	3,050548	0,87825	334,2312	-0,073	87,347	0	1017,52	6,3	8,4	8,3	1	1	1	1	1	1	1	1	1	0	1	-5,637773	273,493291	311,588952	0
15.01.2021	23:50:24	0	0	4,858281	0,92925	331,4016	-0,079	87,341	0	1017,72	6,3	8,4	8,3	1	1	1	1	1	1	1	1	1	0	1	-4,580691	273,586059	313,076664	0
15.01.2021	23:50:25	0	0	3,502482	0,9825	333,144	-0,07	87,356	0	1017,52	6,3	8,4	8,3	1	1	1	1	1	1	1	1	1	0	1	-6,694856	273,480281	310,471514	0
15.01.2021	23:50:26	0	0	3,163532	1,0005	334,5984	-0,071	87,333	0	1017,62	6,4	8,4	8,3	1	1	1	1	1	1	1	1	1	0	1	-3,875969	273,559923	313,660017	0
15.01.2021	23:50:27	0	0	2,711599	0,9615	333,8856	-0,076	87,336	0	1017,56	6,3	8,4	8,3	1	1	1	1	1	1	1	1	1	0	1	-9,231853	273,661765	308,77725	0
15.01.2021	23:50:28	0	0	2,598615	0,972	334,1844	-0,079	87,342	0	1017,38	6,3	8,4	8,3	1	1	1	1	1	1	1	1	1	0	1	-1,479915	273,586059	316,17744	0
15.01.2021	23:50:29	0	0	5,084247	0,9345	334,1196	-0,076	87,343	0	1017,48	6,3	8,4	8,3	1	1	1	1	1	1	1	1	1	0	1	-5,708245	273,623875	312,124775	0
15.01.2021	23:50:30	0	0	2,824599	0,894	333,3636	-0,071	87,348	0	1017,6	6,3	8,5	8,2	1	1	1	1	1	1	1	1	1	0	1	-4,651163	273,529475	312,743478	0
15.01.2021	23:50:31	0	0	2,711599	0,88275	332,6688	-0,074	87,352	0	1017,58	6,3	8,4	8,3	1	1	1	1	1	1	1	1	1	0	1	-4,087385	273,655931	313,894601	0
15.01.2021	23:50:32	0	0	4,632342	0,8235	331,47	-0,076	87,338	0	1017,5	6,3	8,4	8,2	1	1	1	1	1	1	1	1	1	0	1	-5,919662	273,584606	311,730945	0
15.01.2021	23:50:33	0	0	4,067398	0,81525	335,2896	-0,071	87,359	0	1017,6	6,4	8,5	8,3	1	1	1	1	1	1	1	1	1	0	1	-3,523608	273,644268	314,404174	0
15.01.2021	23:50:34	0	0	3,163532	0,8205	338,4108	-0,069	87,353	0	1017,44	6,3	8,4	8,3	1	1	1	1	1	1	1	1	1	0	1	-6,624383	273,650098	311,330496	0
15.01.2021	23:50:35	0	0	3,954415	0,82275	333,432	-0,081	87,325	0	1017,62	6,3	8,4	8,3	1	1	1	1	1	1	1	1	1	0	1	-2,396054	273,519337	314,951532	0
15.01.2021	23:50:36	0	0	2,598615	0,82575	331,4592	-0,073	87,344	0	1017,62	6,3	8,5	8,3	1	1	1	1	1	1	1	1	1	0	1	-3,664553	273,648641	314,283552	0
15.01.2021	23:50:37	0	0	4,293365	0,79875	334,584	-0,077	87,349	0	1017,52	6,3	8,5	8,3	1	1	1	1	1	1	1	1	1	0	1	-4,651163	273,623875	313,181857	0
15.01.2021	23:50:38	0	0	2,598615	0,79425	339,75	-0,074	87,343	0	1017,4	6,3	8,5	8,3	1	1	1	1	1	1	1	1	1	0	1	-5,496829	273,638439	312,403866	0
15.01.2021	23:50:39	0	0	2,485632	0,75675	345,348	-0,076	87,346	0	1017,48	6,3	8,4	8,3	1	1	1	1	1	1	1	1	1	0	1	-3,24172	273,496183	313,998425	0
15.01.2021	23:50:40	0	0	4,406348	0,7425	337,5648	-0,08	87,356	0	1017,44	6,3	8,4	8,3	1	1	1	1	1	1	1	1	1	0	1	-7,681466	273,632612	310,192151	0
15.01.2021	23:50:41	0	0	4,858281	0,711	330,048	-0,076	87,349	0	1017,52	6,3	8,4	8,3	1	1	1	1	1	1	1	1	1	0	1	-4,651163	273,610777	313,121003	0
15.01.2021	23:50:42	0	0	4,632314	0,72	336,3372	-0,078	87,357	0	1017,6	6,4	8,3	8,3	1	1	1	1	1	1	1	1	1	0	1	-10,500352	273,641353	307,413885	0
15.01.2021	23:50:43	0	0	2,259666	0,753	344,6352	-0,074	87,348	0	1017,66	6,3	8,4	8,3	1	1	1	1	1	1	1	1	1	0	1	-5,144468	273,52513	312,230002	0
15.01.2021	23:50:44	0	0	3,163532	0,77475	341,5824	-0,067	87,353	0	1017,5	6,3	8,4	8,3	1	1	1	1	1	1	1	1	1	0	1	-11,205074	273,486062	305,988114	0
15.01.2021	23:50:45	0	0	3,954415	0,78825	334,2096	-0,077	87,368	0	1017,5	6,3	8,4	8,3	1	1	1	1	1	1	1	1	1	0	1	-4,087385	273,510651	313,219891	0
15.01.2021	23:50:46	0	0	3,728448	0,82425	332,7192	-0,074	87,345	0	1017,52	6,3	8,4	8,3	1	1	1	1	1	1	1	1	1	0	1	-5,355884	273,462949	311,730087	0
15.01.2021	23:50:47	0	0	3,389498	0,8355	335,3148	-0,076	87,355	0	1017,78	6,3	8,5	8,3	1	1	1	1	1	1	1	1	1	0	1	-3,171247	273,571535	314,418656	0
15.01.2021	23:50:48	0	0	3,276515	0,89025	333,8424	-0,076	87,355	0	1017,58	6,3	8,4	8,3	1	1	1	1	1	1	1	1	1	0	1	-4,22833	273,657389	313,760435	0
15.01.2021	23:50:49	0	0	5,197231	0,861	334,6524	-0,072	87,356	0	1017,66	6,3	8,4	8,3	1	1	1	1	1	1	1	1	1	0	1	-3,453136	273,620963	314,366356	0
15.01.2021	23:50:50	0	0	3,954415	0,88275	332,6868	-0,079	87,341	0	1017,46	6,3	8,5	8,3	1	1	1	1	1	1	1	1	1	0	1	-2,466526	273,532373	314,941564	0
15.01.2021	23:50:51	0	0	5,084247	0,92175	324,7704	-0,073	87,353	0	1017,42	6,3	8,5	8,3	1	1	1	1	1	1	1	1	1	0	1	-2,677942	273,481726	314,495131	0
15.01.2021	23:50:52	0	0	2,711599	0,96075	326,4048	-0,081	87,362	0	1017,52	6,3	8,4	8,3	1	1	1	1	1	1	1	1	1	0	1	-4,792107	273,549768	312,696733	0
15.01.2021	23:50:53	0	0	5,084278	1,008	333,846	-0,068	87,355	0	1017,54	6,3	8,4	8,2	1	1	1	1	1	1	1	1	1	0	1	-5,990134	273,651556	311,971521	0
15.01.2021	23:50:54	0	0	3,954438	1,0365	332,028	-0,079	87,334	0	1017,44	6,3	8,4	8,2	1	1	1	1	1	1	1	1	1	0	1	-3,171247	273,549768	314,317593	0
15.01.2021	23:50:55	0	0	4,406348	1,059	329,706	-0,076	87,359	0	1017,54	6,3	8,4	8,3	1	1	1	1	1	1	1	1	1	0	1	-4,016913	273,477391	313,13605	0
15.01.2021	23:50:56	0	0	3,615465	1,07325	332,7012	-0,079	87,341	0	1017,56	6,4	8,4	8,3	1	1	1	1	1	1	1	1	1	0	1	-5,144468	273,577343	312,472409	0
15.01.2021	23:50:57	0	0	2,824582	1,06725	327,0708	-0,074	87,347	0	1017,52	6,3	8,4	8,3	1	1	1	1	1	1	1	1	1	0	1	-3,312192	273,480281	313,854177	0
15.01.2021	23:50:58	0	0	3,050548	1,05525	321,7644	-0,076	87,354	0	1017,56	6,3	8,5	8,3	1	1	1	1	1	1	1	1	1	0	1	-3,875969	273,507757	313,417876	0
15.01.2021	23:50:59	0	0	4,971264	1,044	330,3036	-0,075	87,348	0	1017,44	6,3	8,4	8,3	1	1	1	1	1	1	1	1	1	0	1	-3,735025	273,491845	313,484992	0
15.01.2021	23:51:00	0	0	4,406348	1,04625	327,5388	-0,081	87,333	0	1017,38	6,3	8,4	8,3	1	1	1	1	1	1	1	1	1	0	1	-5,21494	273,606412	312,536952	0
15.01.2021	23:51:01	0	0	4,406348	1,04625	327,5388	-0,081	87,333	0	1017,38	6,3	8,4	8,3	1	1	1	1	1	1	1	1	1	0	1	-4,439746	273,638439	313,460948	0
15.01.2021	23:51:02	0	0	3,615465	1,0185	328,5468	-0,077	87,35	0	1017,54	6,3	8,4	8,3	1	1	1	1	1	1	1	1	1	0	1	-6,8358	273,599141	310,882315	0
15.01.2021	23:51:03	0	0	2,711615	0,97875	329,3424	-0,075	87,359	0	1017,58	6,3	8,4	8,2	1	1	1	1	1	1	1	1	1	0	1	-5,84919	273,513546	311,471521	0
15.01.2021	23:51:04	0	0	2,711615	0,98925	331,1388	-0,074	87,364	0	1017,52	6,3	8,4	8,2	1	1	1	1	1	1	1	1	1	0	1	-4,933051	273,519337	312,414534	0
15.01.2021	23:51:05	0	0	4,067422	1,00425	330,3288	-0,075	87,354	0	1017,68	6,3	8,4	8,2	1	1	1	1	1	1	1	1	1	0	1	-6,412967	273,596233	311,291641	0
15.01.2021	23:51:06	0	0	4,519358	0,99825	335,3292	-0,07	87,36	0	1017,5	6,3	8,4	8,2	1	1	1	1	1	1	1	1	1	0	1	-4,933051	273,647183	313,008278	0
15.01.2021	23:51:07	0	0	3,954415	1,005	333,4104	-0,078	87,359	0	1017,48	6,3	8,5	8,3	1	1	1	1	1	1	1	1	1	0	1	-1,198027	273,529475	316,196614	0
15.01.2021	23:51:08	0	0	2,937565	0,9705	324,8172	-0,074	87,366	0	1017,58	6,3	8,4	8,3	1	1	1	1	1	1	1	1	1	0	1	-2,325581	273,642811	315,595428	0
15.01.2021	23:51:09	0	0	2,711599	0,9645	328,9644	-0,076	87,355	0	1017,58	6,3	8,4	8,3	1	1	1	1	1	1	1	1	1	0	1	-0,563777	273,604958	317,181358	0
15.01.2021	23:51:10	0	0	4,180381	0,96375	330,0912	-0,072	87,368	0	1017,38	6,4	8,5	8,3	1	1	1	1	1	1	1	1	1	0	1	-8,245243	273,660306	309,75708	0
15.01.2021	23:51:11	0	0	3,389498	0,9585	328,8996	-0,074	87,36	0	1017,6	6,3	8,4	8,3	1	1	1	1	1	1	1	1	1	0	1	-3,875969	273,517889	313,464897	0
15.01.2021	23:51:12	0	0	3,163551	0,97275	331,4808	-0,081	87,357	0	1017,62	6,3	8,5	8,2	1	1	1	1	1	1	1	1	1	0	1	-2,255109	273,513546	315,065601	0
15.01.2021	23:51:13	0	0	3,615487	0,99	327,4164	-0,077	87,346	0	1017,46	6,3	8,5	8,2	1	1	1	1	1	1	1	1	1	0	1	-2,325581	273,641353	315,588656	0
15.01.2021	23:51:14	0	0	3,276515	0,99225	325,9764	-0,075	87,369	0	1017,52	6,4	8,4	8,3	1	1	1	1	1	1	1	1	1	0	1	-3,946441	273,552669	313,555866	0
15.01.2021	23:51:15	0	0	4,858281	1,01475	332,7156	-0,077	87,344	0	1017,54	6,3	8,5	8,3	1	1	1	1	1	1	1	1	1	0	1	-6,20155	273,648641	311,746554	0
15.01.2021	23:51:16	0	0	4,406348	0,99225	333,144	-0,082	87,334	0	1017,54	6,3	8,5	8,3	1	1	1	1	1	1	1	1	1	0	1	-3,735025	273,626787	314,111525	0
15.01.2021	23:51:17	0	0	3,050548	0,96975	328,8456	-0,075	87,35	0	1017,58	6,3	8,4	8,3	1	1	1	1	1	1	1	1	1	0	1	-7,117689	273,509204	310,182872	0
15.01.2021	23:51:18	0	0	2,598615	0,9675	326,3544	-0,075	87,373	0	1017,52	6,3	8,4	8,3	1	1	1	1	1	1	1	1	1	0	1	-5,496829	273,473057	311,636031	0
15.01.2021	23:51:19	0	0	3,050567	0,954	329,3604	-0,075	87,342	0	1017,52	6,3	8,4	8,2	1	1	1	1	1	1	1	1	1	0	1	-4,862579	273,603503	312,8758	0
15.01.2021	23:51:20	0	0	2,146682	0,92925	327,0528	-0,072	87,359	0	1017,66	6,4	8,4	8,3	1	1	1	1	1	1	1	1	1	0	1	-6,906272	273,663224	311,109613	0
15.01.2021	23:51:21	0	0	2,485632	0,90675	320,796	-0,08	87,347	0	1017,46	6,3	8,4	8,3	1	1	1	1	1	1	1	1	1	0	1	-5,708245	273,516441	311,625902	0
15.01.2021	23:51:22	0	0	4,745326	0,912	326,6316	-0,083	87,358	0	1017,54	6,3	8,4	8,2	1	1	1	1	1	1	1	1	1	0	1	-4,087385	273,477391	313,065578	0
15.01.2021	23:51:23	0	0	4,632314	0,9315	330,7644	-0,079	87,365	0	1017,56	6,3	8,4	8,3	1	1	1	1	1	1	1	1	1	0	1	-4,792107	273,52513	312,582363	0
15.01.2021	23:51:24	0	0	5,423197	0,97125	328,8924	-0,079	87,362	0	1017,78	6,3	8,4	8,3	1	1	1	1	1	1	1	1	1	0	1	-3,24172	273,628243	314,611596	0
15.01.2021	23:51:25	0	0	4,632314	0,95775	330,3432	-0,072	87,361	0	1017,54	6,2	8,4	8,3	1	1	1	1	1	1	1	1	1	0	1	-4,439746	273,503416	312,833956	0
15.01.2021	23:51:26	0	0	2,824582	0,948	333,45	-0,077	87,365	0	1017,54	6,3	8,4	8,3	1	1	1	1	1	1	1	1	1	0	1	-2,255109	273,500522	315,005168	0
15.01.2021	23:51:27	0	0	3,728471	0,93	329,6592	-0,075	87,361	0	1017,54	6,3	8,4	8,2	1	1	1	1	1	1	1	1	1	0	1	-6,20155	273,648641	311,746554	0
15.01.2021	23:51:28	0	0	5,536214	0,927	334,998	-0,075	87,362	0	1017,66	6,3	8,4	8,2	1	1	1	1	1	1	1	1	1	0	1	-5,708245	273,552669	311,794062	0
15.01.2021	23:51:29	0	0	3,389498	0,903	339,12	-0,073	87,372	0	1017,64	6,3	8,4	8,3	1	1	1	1	1	1	1	1	1	0	1	-6,483439	273,650098	311,47144	0
15.01.2021	23:51:30	0	0	2,485632	0,92025	331,1712	-0,075	87,401	0	1017,88	6,2	8,5	8,3	1	1	1	1	1	1	1	1	1	0	1	-4,157858	273,571535	313,432045	0
15.01.2021	23:51:31	0	0	3,050548	0,96	327,816	-0,074	87,368	0	1017,56	6,3	8,5	8,3	1	1	1	1	1	1	1	1	1	0	1	-5,003524	273,464392	312,089144	0
15.01.2021	23:51:32	0	0	3,502482	0,98775	338,76	-0,079	87,366	0	1017,48	6,3	8,4	8,3	1	1	1	1	1	1	1	1	1	0	1	-4,298802	273,510651	313,008475	0
15.01.2021	23:51:33	0	0	4,406374	0,9855	339,8076	-0,076	87,365	0	1017,62	6,3	8,4	8,2	1	1	1	1	1	1	1	1	1	0	1	-2,396054	273,663224	315,619831	0
15.01.2021	23:51:34	0	0	2,711599	0,98325	328,1796	-0,078	87,367	0	1017,42	6,3	8,4	8,3	1	1	1	1	1	1	1	1	1	0	1	-5,990134	273,564277	311,566066	0
15.01.2021	23:51:35	0	0	4,519331	0,966	320,7492	-0,076	87,367	0	1017,6	6,3	8,5	8,3	1	1	1	1	1	1	1	1	1	0	1	-2,60747	273,465836	314,491895	0
15.01.2021	23:51:36	0	0	3,163532	0,97875	324,018	-0,079	87,349	0	1017,52	6,3	8,4	8,3	1	1	1	1	1	1	1	1	1	0	1	-7,329105	273,546868	310,146271	0
15.01.2021	23:51:37	0	0	2,598615	1,01325	330,2532	-0,079	87,358	0	1017,64	6,3	8,5	8,3	1	1	1	1	1	1	1	1	1	0	1	-9,654686	273,651556	308,306969	0
15.01.2021	23:51:38	0	0	3,276515	1,023	335,3076	-0,076	87,364	0	1017,66	6,3	8,4	8,3	1	1	1	1	1	1	1	1	1	0	1	-7,329105	273,571535	310,260798	0
15.01.2021	23:51:39	0	0	3,502503	0,98325	332,0388	-0,081	87,36	0	1017,52	6,3	8,4	8,2	1	1	1	1	1	1	1	1	1	0	1	-5,84919	273,636982	312,044735	0
15.01.2021	23:51:40	0	0	4,632314	0,897	329,6844	-0,078	87,363	0	1017,56	6,4	8,5	8,3	1	1	1	1	1	1	1	1	1	0	1	-5,990134	273,641353	311,924103	0
15.01.2021	23:51:41	0	0	4,519358	0,84375	328,1724	-0,077	87,366	0	1017,54	6,4	8,4	8,2	1	1	1	1	1	1	1	1	1	0	1	-2,255109	273,523681	315,112639	0
15.01.2021	23:51:42	0	0	3,163532	0,873	327,8196	-0,078	87,362	0	1017,58	6,3	8,4	8,3	1	1	1	1	1	1	1	1	1	0	1	-6,20155	273,632612	311,672067	0
15.01.2021	23:51:43	0	0	2,372649	0,8895	328,1868	-0,075	87,368	0	1017,78	6,3	8,4	8,3	1	1	1	1	1	1	1	1	1	0	1	-4,651163	273,465836	312,448202	0
15.01.2021	23:51:44	0	0	3,050567	0,90225	342,738	-0,083	87,358	0	1017,6	6,3	8,4	8,2	1	1	1	1	1	1	1	1	1	0	1	-2,536998	273,594779	315,160858	0
15.01.2021	23:51:45	0	0	4,632314	0,89175	354,7584	-0,082	87,348	0	1017,68	6,3	8,4	8,3	1	1	1	1	1	1	1	1	1	0	1	-3,382664	273,661765	314,62644	0
15.01.2021	23:51:46	0	0	2,485632	0,90975	348,7464	-0,074	87,366	0	1017,68	6,3	8,5	8,3	1	1	1	1	1	1	1	1	1	0	1	-1,973221	273,528027	315,414696	0
15.01.2021	23:51:47	0	0	4,406348	0,9465	340,2	-0,082	87,357	0	1017,42	6,3	8,4	8,3	1	1	1	1	1	1	1	1	1	0	1	-7,892882	273,631156	309,973967	0
15.01.2021	23:51:48	0	0	4,406348	0,98025	339,966	-0,082	87,342	0	1017,62	6,3	8,4	8,3	1	1	1	1	1	1	1	1	1	0	1	-4,016913	273,512098	313,29708	0
15.01.2021	23:51:49	0	0	3,276535	0,94875	343,008	-0,081	87,364	0	1017,54	6,3	8,4	8,2	1	1	1	1	1	1	1	1	1	0	1	-6,906272	273,639896	311,001194	0
15.01.2021	23:51:50	0	0	3,389519	0,9675	340,8552	-0,085	87,361	0	1017,44	6,3	8,4	8,2	1	1	1	1	1	1	1	1	1	0	1	-3,453136	273,603503	314,285243	0
15.01.2021	23:51:51	0	0	3,163532	0,96975	344,0088	-0,077	87,36	0	1017,58	6,2	8,4	8,3	1	1	1	1	1	1	1	1	1	0	1	-5,567301	273,53817	311,867696	0
15.01.2021	23:51:52	0	0	4,293365	0,96225	345,096	-0,084	87,358	0	1017,46	6,3	8,5	8,3	1	1	1	1	1	1	1	1	1	0	1	-6,131078	273,658848	311,864466	0
15.01.2021	23:51:53	0	0	2,937565	0,96	342,306	-0,077	87,374	0	1017,68	6,3	8,5	8,3	1	1	1	1	1	1	1	1	1	0	1	-5,355884	273,494737	311,87755	0
15.01.2021	23:51:54	0	0	3,615465	0,9465	335,3076	-0,078	87,366	0	1017,66	6,4	8,5	8,3	1	1	1	1	1	1	1	1	1	0	1	-6,976744	273,644268	310,951038	0
15.01.2021	23:51:55	0	0	4,180381	0,92025	330,0336	-0,086	87,359	0	1017,46	6,3	8,5	8,3	1	1	1	1	1	1	1	1	1	0	1	-2,536998	273,571535	315,052905	0
15.01.2021	23:51:56	0	0	2,711615	0,88725	327,4236	-0,075	87,369	0	1017,66	6,3	8,5	8,2	1	1	1	1	1	1	1	1	1	0	1	-5,426357	273,480281	311,740012	0
15.01.2021	23:51:57	0	0	3,050548	0,8565	326,016	-0,077	87,366	0	1017,62	6,3	8,5	8,3	1	1	1	1	1	1	1	1	1	0	1	-6,272023	273,52513	311,102448	0
15.01.2021	23:51:58	0	0	2,485632	0,8475	326,7396	-0,081	87,366	0	1017,64	6,3	8,5	8,3	1	1	1	1	1	1	1	1	1	0	1	-1,268499	273,477391	315,884464	0
15.01.2021	23:51:59	0	0	4,406348	0,86625	326,0196	-0,076	87,37	0	1017,6	6,3	8,4	8,3	1	1	1	1	1	1	1	1	1	0	1	-8,45666	273,490399	308,756649	0
15.01.2021	23:52:00	0	0	3,389519	0,86475	330,7428	-0,081	87,347	0	1017,6	6,3	8,4	8,2	1	1	1	1	1	1	1	1	1	0	1	-5,285412	273,590419	312,392191	0
15.01.2021	23:52:01	0	0	4,180381	0,9405	332,7048	-0,078	87,36	0	1017,48	6,3	8,4	8,3	1	1	1	1	1	1	1	1	1	0	1	-9,866103	273,667601	308,170128	0
15.01.2021	23:52:02	0	0	4,406348	0,969	329,328	-0,078	87,379	0	1017,52	6,3	8,4	8,3	1	1	1	1	1	1	1	1	1	0	1	-5,567301	273,600595	312,157568	0
15.01.2021	23:52:03	0	0	4,180381	1,0095	335,3076	-0,079	87,368	0	1017,66	6,3	8,5	8,3	1	1	1	1	1	1	1	1	1	0	1	-5,21494	273,654473	312,760269	0
15.01.2021	23:52:04	0	0	4,858281	1,00875	333,558	-0,077	87,345	0	1017,54	6,3	8,4	8,3	1	1	1	1	1	1	1	1	1	0	1	-8,668076	273,607867	309,090573	0
15.01.2021	23:52:05	0	0	4,29339	0,996	331,9596	-0,077	87,365	0	1017,78	6,3	8,4	8,2	1	1	1	1	1	1	1	1	1	0	1	-5,144468	273,645725	312,790087	0
15.01.2021	23:52:06	0	0	2,598615	0,92775	334,2564	-0,076	87,374	0	1017,58	6,3	8,4	8,3	1	1	1	1	1	1	1	1	1	0	1	-1,057082	273,520785	316,297223	0
15.01.2021	23:52:07	0	0	4,519358	0,86775	326,3688	-0,077	87,353	0	1017,64	6,3	8,5	8,2	1	1	1	1	1	1	1	1	1	0	1	-2,255109	273,654473	315,7201	0
15.01.2021	23:52:08	0	0	4,519331	0,87225	319,5864	-0,084	87,366	0	1017,56	6,3	8,4	8,3	1	1	1	1	1	1	1	1	1	0	1	-5,84919	273,580248	311,781177	0
15.01.2021	23:52:09	0	0	4,971264	0,8385	322,9668	-0,079	87,352	0	1017,54	6,3	8,5	8,3	1	1	1	1	1	1	1	1	1	0	1	-2,466526	273,657389	315,522239	0
15.01.2021	23:52:10	0	0	4,632314	0,87975	328,6188	-0,084	87,369	0	1017,48	6,3	8,4	8,3	1	1	1	1	1	1	1	1	1	0	1	-2,818887	273,549768	314,669954	0
15.01.2021	23:52:11	0	0	2,259666	0,89775	334,98	-0,075	87,376	0	1017,64	6,3	8,5	8,3	1	1	1	1	1	1	1	1	1	0	1	-3,664553	273,480281	313,501817	0
15.01.2021	23:52:12	0	0	3,728448	0,9195	332,7048	-0,078	87,373	0	1017,52	6,3	8,4	8,3	1	1	1	1	1	1	1	1	1	0	1	-0	273,56718	317,569679	0
15.01.2021	23:52:13	0	0	2,824599	0,94125	330,3468	-0,076	87,374	0	1017,78	6,3	8,5	8,2	1	1	1	1	1	1	1	1	1	0	1	-0,140944	273,477391	317,012019	0
15.01.2021	23:52:14	0	0	4,519331	0,9735	332,8524	-0,076	87,366	0	1017,62	6,3	8,4	8,3	1	1	1	1	1	1	1	1	1	0	1	-3,100775	273,599141	314,61734	0
15.01.2021	23:52:15	0	0	3,615465	0,94125	335,7324	-0,076	87,358	0	1017,58	6,3	8,4	8,3	1	1	1	1	1	1	1	1	1	0	1	-4,298802	273,487508	312,901092	0
15.01.2021	23:52:16	0	0	4,519358	0,93975	343,1484	-0,073	87,378	0	1017,46	6,3	8,4	8,2	1	1	1	1	1	1	1	1	1	0	1	-4,933051	273,654473	313,042157	0
15.01.2021	23:52:17	0	0	4,745298	0,93225	336,762	-0,081	87,363	0	1017,48	6,3	8,4	8,3	1	1	1	1	1	1	1	1	1	0	1	-9,090909	273,575891	308,519223	0
15.01.2021	23:52:18	0	0	4,180381	0,96525	336,0852	-0,079	87,37	0	1017,52	6,3	8,5	8,3	1	1	1	1	1	1	1	1	1	0	1	-6,060606	273,651556	311,901049	0
15.01.2021	23:52:19	0	0	4,067422	0,951	338,634	-0,081	87,366	0	1017,54	6,3	8,4	8,2	1	1	1	1	1	1	1	1	1	0	1	-6,060606	273,641353	311,853631	0
15.01.2021	23:52:20	0	0	2,711599	0,978	336,3156	-0,078	87,385	0	1017,54	6,4	8,4	8,3	1	1	1	1	1	1	1	1	1	0	1	-5,144468	273,615142	312,647977	0
15.01.2021	23:52:21	0	0	2,598615	0,9825	336,3804	-0,078	87,367	0	1017,46	6,4	8,4	8,3	1	1	1	1	1	1	1	1	1	0	1	-6,976744	273,647183	310,964585	0
15.01.2021	23:52:22	0	0	2,937583	0,99825	329,6088	-0,078	87,355	0	1017,52	6,3	8,4	8,2	1	1	1	1	1	1	1	1	1	0	1	-7,540521	273,477391	309,612442	0
15.01.2021	23:52:23	0	0	4,632314	0,9375	325,998	-0,08	87,373	0	1017,76	6,3	8,4	8,3	1	1	1	1	1	1	1	1	1	0	1	-4,510218	273,581701	313,126895	0
15.01.2021	23:52:24	0	0	3,163551	0,891	329,6088	-0,082	87,382	0	1017,56	6,3	8,4	8,2	1	1	1	1	1	1	1	1	1	0	1	-7,047216	273,674898	311,022938	0
15.01.2021	23:52:25	0	0	4,519331	0,87825	339,7788	-0,078	87,375	0	1017,76	6,3	8,4	8,3	1	1	1	1	1	1	1	1	1	0	1	-5,567301	273,628243	312,286015	0
15.01.2021	23:52:26	0	0	2,824582	0,85425	336,8124	-0,083	87,38	0	1017,58	6,3	8,5	8,3	1	1	1	1	1	1	1	1	1	0	1	-4,087385	273,574439	313,516003	0
15.01.2021	23:52:27	0	0	2,824582	0,82725	324,4824	-0,081	87,362	0	1017,44	6,3	8,3	8,3	1	1	1	1	1	1	1	1	1	0	1	-3,312192	273,484617	313,874291	0
15.01.2021	23:52:28	0	0	2,824599	0,80925	329,976	-0,077	87,371	0	1017,52	6,3	8,4	8,2	1	1	1	1	1	1	1	1	1	0	1	-5,708245	273,532373	311,699845	0
15.01.2021	23:52:29	0	0	4,293365	0,78075	336,33	-0,082	87,373	0	1017,56	6,3	8,4	8,3	1	1	1	1	1	1	1	1	1	0	1	-5,285412	273,655931	312,696574	0
15.01.2021	23:52:30	0	0	2,937565	0,80625	328,212	-0,076	87,388	0	1017,56	6,3	8,4	8,3	1	1	1	1	1	1	1	1	1	0	1	-0,281889	273,564277	317,274311	0
15.01.2021	23:52:31	0	0	3,050567	0,79725	327,3588	-0,078	87,374	0	1017,56	6,4	8,4	8,2	1	1	1	1	1	1	1	1	1	0	1	-2,325581	273,484617	314,860901	0
15.01.2021	23:52:32	0	0	4,858281	0,83175	336,1356	-0,082	87,36	0	1017,56	6,3	8,4	8,3	1	1	1	1	1	1	1	1	1	0	1	-8,80902	273,596233	308,895588	0
15.01.2021	23:52:33	0	0	4,632314	0,852	336,0744	-0,074	87,375	0	1017,5	6,3	8,4	8,3	1	1	1	1	1	1	1	1	1	0	1	-4,721635	273,645725	313,21292	0
15.01.2021	23:52:34	0	0	3,502482	0,87225	335,3076	-0,08	87,371	0	1017,52	6,3	8,4	8,3	1	1	1	1	1	1	1	1	1	0	1	-3,875969	273,603503	313,86241	0
15.01.2021	23:52:35	0	0	4,745298	0,8475	331,5312	-0,085	87,377	0	1017,52	6,3	8,4	8,3	1	1	1	1	1	1	1	1	1	0	1	-6,131078	273,653014	311,837353	0
15.01.2021	23:52:36	0	0	4,406348	0,83475	327,5064	-0,08	87,378	0	1017,62	6,2	8,5	8,3	1	1	1	1	1	1	1	1	1	0	1	-4,298802	273,575891	313,31133	0
15.01.2021	23:52:37	0	0	2,711615	0,834	321,8868	-0,079	87,39	0	1017,56	6,3	8,5	8,2	1	1	1	1	1	1	1	1	1	0	1	-7,399577	273,488953	309,807024	0
15.01.2021	23:52:38	0	0	3,389498	0,7935	325,0656	-0,078	87,36	0	1017,54	6,3	8,4	8,3	1	1	1	1	1	1	1	1	1	0	1	-3,946441	273,593326	313,744663	0
15.01.2021	23:52:39	0	0	3,841454	0,77475	327,7836	-0,08	87,375	0	1017,56	6,3	8,4	8,2	1	1	1	1	1	1	1	1	1	0	1	-3,382664	273,666142	314,646784	0
15.01.2021	23:52:40	0	0	2,711599	0,789	325,1052	-0,075	87,385	0	1017,66	6,3	8,4	8,3	1	1	1	1	1	1	1	1	1	0	1	-3,030303	273,590419	314,6473	0
15.01.2021	23:52:41	0	0	3,389498	0,80475	324,1224	-0,079	87,36	0	1017,44	6,3	8,5	8,3	1	1	1	1	1	1	1	1	1	0	1	-5,567301	273,663224	312,448584	0
15.01.2021	23:52:42	0	0	5,197231	0,81525	327,744	-0,087	87,372	0	1017,56	6,3	8,4	8,3	1	1	1	1	1	1	1	1	1	0	1	-2,396054	273,584606	315,254554	0
15.01.2021	23:52:43	0	0	2,711615	0,861	327,51	-0,084	87,375	0	1017,5	6,3	8,5	8,2	1	1	1	1	1	1	1	1	1	0	1	-4,087385	273,486062	313,105802	0
15.01.2021	23:52:44	0	0	3,050548	0,90225	326,2896	-0,075	87,373	0	1017,54	6,3	8,5	8,3	1	1	1	1	1	1	1	1	1	0	1	-10,359408	273,600595	307,365461	0
15.01.2021	23:52:45	0	0	4,632314	0,91275	328,122	-0,08	87,384	0	1017,7	6,3	8,5	8,3	1	1	1	1	1	1	1	1	1	0	1	-3,453136	273,657389	314,535629	0
15.01.2021	23:52:46	0	0	4,632314	0,909	331,4952	-0,084	87,368	0	1017,54	6,3	8,4	8,3	1	1	1	1	1	1	1	1	1	0	1	-2,466526	273,535271	314,955017	0
15.01.2021	23:52:47	0	0	4,632314	0,8865	327,8304	-0,088	87,368	0	1017,42	6,3	8,3	8,3	1	1	1	1	1	1	1	1	1	0	1	-5,496829	273,644268	312,430953	0
15.01.2021	23:52:48	0	0	5,197231	0,89325	326,1276	-0,077	87,383	0	1017,6	6,3	8,4	8,3	1	1	1	1	1	1	1	1	1	0	1	-3,171247	273,619508	314,641482	0
15.01.2021	23:52:49	0	0	4,293365	0,84675	328,6728	-0,084	87,383	0	1017,54	6,3	8,5	8,3	1	1	1	1	1	1	1	1	1	0	1	-3,382664	273,653014	314,585768	0
15.01.2021	23:52:50	0	0	3,050548	0,84	336,0636	-0,084	87,382	0	1017,48	6,3	8,4	8,3	1	1	1	1	1	1	1	1	1	0	1	-1,268499	273,503416	316,005204	0
15.01.2021	23:52:51	0	0	4,858281	0,83325	328,626	-0,079	87,364	0	1017,56	6,3	8,4	8,3	1	1	1	1	1	1	1	1	1	0	1	-6,8358	273,657389	311,152965	0
15.01.2021	23:52:52	0	0	2,146695	0,8355	320,8932	-0,087	87,361	0	1017,54	6,4	8,4	8,2	1	1	1	1	1	1	1	1	1	0	1	-5,496829	273,52513	311,877642	0
15.01.2021	23:52:53	0	0	2,824599	0,843	324,45	-0,075	87,377	0	1017,56	6,3	8,4	8,2	1	1	1	1	1	1	1	1	1	0	1	-3,59408	273,496183	313,646064	0
15.01.2021	23:52:54	0	0	4,745298	0,83775	330,0876	-0,081	87,377	0	1017,58	6,3	8,4	8,3	1	1	1	1	1	1	1	1	1	0	1	-4,580691	273,634069	313,299695	0
15.01.2021	23:52:55	0	0	3,276535	0,8775	324,036	-0,082	87,379	0	1017,44	6,3	8,4	8,2	1	1	1	1	1	1	1	1	1	0	1	-3,030303	273,496183	314,209841	0
15.01.2021	23:52:56	0	0	4,971264	0,8805	319,2228	-0,082	87,376	0	1017,54	6,3	8,5	8,3	1	1	1	1	1	1	1	1	1	0	1	-0,98661	273,616597	316,812595	0
15.01.2021	23:52:57	0	0	3,163532	0,897	320,7636	-0,089	87,371	0	1017,54	6,3	8,5	8,3	1	1	1	1	1	1	1	1	1	0	1	-3,664553	273,639896	314,242913	0
15.01.2021	23:52:58	0	0	3,841431	0,9375	326,6856	-0,087	87,368	0	1017,44	6,3	8,4	8,3	1	1	1	1	1	1	1	1	1	0	1	-6,20155	273,52513	311,17292	0
15.01.2021	23:52:59	0	0	4,632314	0,97425	329,7276	-0,085	87,354	0	1017,62	6,4	8,5	8,3	1	1	1	1	1	1	1	1	1	0	1	-7,329105	273,655931	310,652882	0
15.01.2021	23:53:00	0	0	3,954415	0,963	334,6452	-0,083	87,378	0	1017,54	6,3	8,4	8,3	1	1	1	1	1	1	1	1	1	0	1	-7,117689	273,53672	310,310581	0
15.01.2021	23:53:01	0	0	4,406348	0,993	334,1916	-0,083	87,376	0	1017,5	6,3	8,4	8,3	1	1	1	1	1	1	1	1	1	0	1	-3,946441	273,655931	314,035545	0
15.01.2021	23:53:02	0	0	4,406348	0,97575	327,4812	-0,085	87,36	0	1017,4	6,3	8,4	8,3	1	1	1	1	1	1	1	1	1	0	1	-0,070472	273,541069	317,377982	0
15.01.2021	23:53:03	0	0	4,406348	0,993	330,696	-0,079	87,368	0	1017,52	6,3	8,5	8,3	1	1	1	1	1	1	1	1	1	0	1	-4,016913	273,474502	313,122647	0
15.01.2021	23:53:04	0	0	2,937565	0,98325	337,5108	-0,085	87,363	0	1017,64	6,3	8,5	8,3	1	1	1	1	1	1	1	1	1	0	1	-4,792107	273,610777	312,980058	0
15.01.2021	23:53:05	0	0	2,711599	0,93675	339,8004	-0,087	87,373	0	1017,5	6,3	8,5	8,3	1	1	1	1	1	1	1	1	1	0	1	-2,889359	273,657389	315,099406	0
15.01.2021	23:53:06	0	0	5,084247	0,9225	337,5504	-0,085	87,367	0	1017,48	6,3	8,3	8,3	1	1	1	1	1	1	1	1	1	0	1	-5,144468	273,615142	312,647977	0
15.01.2021	23:53:07	0	0	4,858281	0,89925	332,82	-0,083	87,363	0	1017,52	6,3	8,5	8,3	1	1	1	1	1	1	1	1	1	0	1	-6,553911	273,663224	311,461973	0
15.01.2021	23:53:08	0	0	4,632314	0,88575	333,126	-0,085	87,361	0	1017,56	6,3	8,4	8,3	1	1	1	1	1	1	1	1	1	0	1	-3,382664	273,532373	314,025426	0
15.01.2021	23:53:09	0	0	4,519331	0,92925	340,902	-0,082	87,367	0	1017,54	6,3	8,3	8,3	1	1	1	1	1	1	1	1	1	0	1	-6,553911	273,660306	311,448412	0
15.01.2021	23:53:10	0	0	4,745298	0,918	338,4036	-0,083	87,364	0	1017,56	6,3	8,5	8,3	1	1	1	1	1	1	1	1	1	0	1	-6,342495	273,609322	311,422912	0
15.01.2021	23:53:11	0	0	3,954415	0,94125	331,0272	-0,081	87,366	0	1017,54	6,3	8,5	8,3	1	1	1	1	1	1	1	1	1	0	1	-7,117689	273,671979	310,938894	0
15.01.2021	23:53:12	0	0	2,937583	0,9495	324,7992	-0,087	87,357	0	1017,6	6,3	8,5	8,2	1	1	1	1	1	1	1	1	1	0	1	-7,751938	273,586059	309,905417	0
15.01.2021	23:53:13	0	0	2,937565	0,945	322,8876	-0,088	87,369	0	1017,5	6,3	8,5	8,3	1	1	1	1	1	1	1	1	1	0	1	-3,664553	273,660306	314,337771	0
15.01.2021	23:53:14	0	0	4,406348	0,903	326,7756	-0,085	87,362	0	1017,64	6,3	8,4	8,3	1	1	1	1	1	1	1	1	1	0	1	-2,114165	273,539619	315,327561	0
15.01.2021	23:53:15	0	0	2,485632	0,92625	331,0884	-0,085	87,355	0	1017,58	6,3	8,3	8,3	1	1	1	1	1	1	1	1	1	0	1	-4,439746	273,648641	313,508358	0
15.01.2021	23:53:16	0	0	2,824582	0,94575	325,0656	-0,091	87,353	0	1017,38	6,3	8,4	8,3	1	1	1	1	1	1	1	1	1	0	1	-3,946441	273,584606	313,704166	0
15.01.2021	23:53:17	0	0	4,745298	0,96975	321,9264	-0,088	87,357	0	1017,5	6,4	8,4	8,3	1	1	1	1	1	1	1	1	1	0	1	-5,426357	273,663224	312,589528	0
15.01.2021	23:53:18	0	0	2,711599	0,99525	325,9116	-0,084	87,359	0	1017,56	6,3	8,4	8,3	1	1	1	1	1	1	1	1	1	0	1	-3,523608	273,53817	313,911389	0
15.01.2021	23:53:19	0	0	3,954415	1,01475	323,316	-0,086	87,345	0	1017,54	6,4	8,5	8,3	1	1	1	1	1	1	1	1	1	0	1	-2,748414	273,481726	314,424658	0
15.01.2021	23:53:20	0	0	2,824582	1,02675	321,1164	-0,084	87,357	0	1017,62	6,3	8,5	8,3	1	1	1	1	1	1	1	1	1	0	1	-6,483439	273,56718	311,08624	0
15.01.2021	23:53:21	0	0	3,615465	1,03425	323,3592	-0,081	87,352	0	1017,8	6,3	8,3	8,3	1	1	1	1	1	1	1	1	1	0	1	-2,255109	273,480281	314,91126	0
15.01.2021	23:53:22	0	0	3,276515	1,053	323,6436	-0,084	87,332	0	1017,56	6,3	8,4	8,3	1	1	1	1	1	1	1	1	1	0	1	-2,677942	273,562825	314,871519	0
15.01.2021	23:53:23	0	0	3,615465	1,05075	321,5124	-0,091	87,353	0	1017,6	6,3	8,4	8,3	1	1	1	1	1	1	1	1	1	0	1	-3,735025	273,481726	313,438048	0
15.01.2021	23:53:24	0	0	4,067398	1,04625	320,7564	-0,083	87,362	0	1017,58	6,3	8,5	8,3	1	1	1	1	1	1	1	1	1	0	1	-10,993658	273,526578	306,387536	0
15.01.2021	23:53:25	0	0	4,858281	1,00725	320,418	-0,087	87,353	0	1017,58	6,3	8,4	8,3	1	1	1	1	1	1	1	1	1	0	1	-7,610994	273,644268	310,316788	0
15.01.2021	23:53:26	0	0	4,519331	1,011	321,9192	-0,085	87,363	0	1017,58	6,3	8,4	8,3	1	1	1	1	1	1	1	1	1	0	1	-2,396054	273,607867	315,362595	0
15.01.2021	23:53:27	0	0	3,841431	1,01925	324,4284	-0,086	87,353	0	1017,66	6,3	8,4	8,3	1	1	1	1	1	1	1	1	1	0	1	-2,889359	273,658848	315,106185	0
15.01.2021	23:53:28	0	0	4,519358	1,0245	323,694	-0,091	87,349	0	1017,58	6,3	8,5	8,2	1	1	1	1	1	1	1	1	1	0	1	-3,382664	273,528027	314,005253	0
15.01.2021	23:53:29	0	0	2,033699	1,02075	323,838	-0,088	87,357	0	1017,56	6,4	8,5	8,3	1	1	1	1	1	1	1	1	1	0	1	-9,231853	273,606412	308,520038	0
15.01.2021	23:53:30	0	0	2,485632	1,047	328,986	-0,089	87,35	0	1017,52	6,3	8,4	8,3	1	1	1	1	1	1	1	1	1	0	1	-4,862579	273,664683	313,160087	0
15.01.2021	23:53:31	0	0	4,293365	1,02675	328,5324	-0,09	87,348	0	1017,42	6,3	8,4	8,3	1	1	1	1	1	1	1	1	1	0	1	-4,510218	273,631156	313,356631	0
15.01.2021	23:53:32	0	0	2,711599	1,0575	322,146	-0,087	87,35	0	1017,62	6,3	8,4	8,3	1	1	1	1	1	1	1	1	1	0	1	-3,59408	273,528027	313,793836	0
15.01.2021	23:53:33	0	0	3,615465	1,01025	323,46	-0,094	87,349	0	1017,48	6,3	8,5	8,3	1	1	1	1	1	1	1	1	1	0	1	-3,875969	273,500522	313,384308	0
15.01.2021	23:53:34	0	0	3,841431	0,96075	325,0692	-0,093	87,352	0	1017,66	6,3	8,4	8,3	1	1	1	1	1	1	1	1	1	0	1	-4,157858	273,600595	313,567011	0
15.01.2021	23:53:35	0	0	4,632314	0,90675	321,4332	-0,084	87,355	0	1017,62	6,3	8,3	8,3	1	1	1	1	1	1	1	1	1	0	1	-7,470049	273,480281	309,69632	0
15.01.2021	23:53:36	0	0	2,824582	0,89325	317,358	-0,089	87,35	0	1017,46	6,3	8,4	8,3	1	1	1	1	1	1	1	1	1	0	1	-3,735025	273,549768	313,753816	0
15.01.2021	23:53:37	0	0	3,841431	0,85575	318,3408	-0,088	87,351	0	1017,46	6,3	8,5	8,3	1	1	1	1	1	1	1	1	1	0	1	-6,624383	273,654473	311,350825	0
15.01.2021	23:53:38	0	0	4,406348	0,867	324,8676	-0,087	87,36	0	1017,68	6,3	8,4	8,3	1	1	1	1	1	1	1	1	1	0	1	-8,668076	273,549768	308,820764	0
15.01.2021	23:53:39	0	0	3,728448	0,897	325,476	-0,094	87,351	0	1017,4	6,3	8,4	8,3	1	1	1	1	1	1	1	1	1	0	1	-6,8358	273,68658	311,288663	0
15.01.2021	23:53:40	0	0	2,824599	0,88725	320,796	-0,097	87,351	0	1017,52	6,3	8,3	8,2	1	1	1	1	1	1	1	1	1	0	1	-4,157858	273,609322	313,607549	0
15.01.2021	23:53:41	0	0	4,632342	0,89175	319,6152	-0,088	87,354	0	1017,62	6,3	8,4	8,2	1	1	1	1	1	1	1	1	1	0	1	-7,892882	273,639896	310,014583	0
15.01.2021	23:53:42	0	0	3,728448	0,924	322,9632	-0,089	87,361	0	1017,62	6,3	8,5	8,3	1	1	1	1	1	1	1	1	1	0	1	-5,637773	273,660306	312,36455	0
15.01.2021	23:53:43	0	0	4,632314	0,91575	321,7104	-0,087	87,345	0	1017,56	6,3	8,5	8,3	1	1	1	1	1	1	1	1	1	0	1	-2,114165	273,602049	315,617459	0
15.01.2021	23:53:44	0	0	4,406348	0,9	320,3352	-0,085	87,35	0	1017,6	6,3	8,4	8,3	1	1	1	1	1	1	1	1	1	0	1	-2,889359	273,645725	315,045197	0
15.01.2021	23:53:45	0	0	2,937583	0,924	323,6652	-0,09	87,333	0	1017,62	6,3	8,5	8,2	1	1	1	1	1	1	1	1	1	0	1	-3,523608	273,599141	314,194507	0
15.01.2021	23:53:46	0	0	3,502482	0,96075	325,9188	-0,089	87,346	0	1017,56	6,3	8,5	8,3	1	1	1	1	1	1	1	1	1	0	1	-6,412967	273,475947	310,733295	0
15.01.2021	23:53:47	0	0	3,389498	0,98025	331,1064	-0,082	87,357	0	1017,4	6,3	8,5	8,3	1	1	1	1	1	1	1	1	1	0	1	-0,563777	273,599141	317,154337	0
15.01.2021	23:53:48	0	0	2,711615	1,00725	329,2236	-0,095	87,352	0	1017,58	6,3	8,5	8,2	1	1	1	1	1	1	1	1	1	0	1	-6,060606	273,513546	311,260104	0
15.01.2021	23:53:49	0	0	4,632314	0,98325	325,9584	-0,093	87,349	0	1017,64	6,3	8,5	8,3	1	1	1	1	1	1	1	1	1	0	1	-4,087385	273,664683	313,935281	0
15.01.2021	23:53:50	0	0	3,050548	0,999	326,3724	-0,09	87,338	0	1017,46	6,3	8,4	8,3	1	1	1	1	1	1	1	1	1	0	1	-7,892882	273,596233	309,811726	0
15.01.2021	23:53:51	0	0	3,728448	1,03725	329,6952	-0,09	87,353	0	1017,56	6,4	8,5	8,3	1	1	1	1	1	1	1	1	1	0	1	-6,624383	273,654473	311,350825	0
15.01.2021	23:53:52	0	0	3,954415	1,0485	326,3004	-0,093	87,354	0	1017,5	6,3	8,5	8,3	1	1	1	1	1	1	1	1	1	0	1	-6,412967	273,629699	311,447115	0
15.01.2021	23:53:53	0	0	4,519331	1,0335	327,0888	-0,096	87,343	0	1017,68	6,3	8,5	8,3	1	1	1	1	1	1	1	1	1	0	1	-4,933051	273,486062	312,260136	0
15.01.2021	23:53:54	0	0	4,858281	1,03125	327,7944	-0,094	87,352	0	1017,7	6,3	8,5	8,3	1	1	1	1	1	1	1	1	1	0	1	-6,412967	273,55557	311,10281	0
15.01.2021	23:53:55	0	0	4,406348	1,0365	324,7092	-0,093	87,347	0	1017,72	6,3	8,4	8,3	1	1	1	1	1	1	1	1	1	0	1	-2,466526	273,481726	314,706547	0
15.01.2021	23:53:56	0	0	3,841431	1,06875	325,152	-0,091	87,342	0	1017,5	6,3	8,5	8,3	1	1	1	1	1	1	1	1	1	0	1	-5,073996	273,529475	312,320645	0
15.01.2021	23:53:57	0	0	2,485632	1,05225	325,9944	-0,089	87,351	0	1017,6	6,3	8,4	8,3	1	1	1	1	1	1	1	1	1	0	1	-0,281889	273,654473	317,69332	0
15.01.2021	23:53:58	0	0	2,824582	1,035	328,8168	-0,09	87,353	0	1017,64	6,3	8,5	8,3	1	1	1	1	1	1	1	1	1	0	1	-3,312192	273,55412	314,19685	0
15.01.2021	23:53:59	0	0	3,728448	1,01925	329,7132	-0,091	87,342	0	1017,68	6,4	8,5	8,3	1	1	1	1	1	1	1	1	1	0	1	-3,664553	273,477391	313,488411	0
15.01.2021	23:54:00	0	0	3,389498	1,026	324,3132	-0,091	87,342	0	1017,66	6,3	8,4	8,3	1	1	1	1	1	1	1	1	1	0	1	-6,412967	273,625331	311,426818	0
15.01.2021	23:54:01	0	0	2,824582	0,98625	322,884	-0,096	87,338	0	1017,46	6,3	8,4	8,3	1	1	1	1	1	1	1	1	1	0	1	-9,513742	273,663224	308,502143	0
15.01.2021	23:54:02	0	0	4,180381	0,9855	328,518	-0,098	87,347	0	1017,62	6,3	8,4	8,3	1	1	1	1	1	1	1	1	1	0	1	-1,550388	273,603503	316,187992	0
15.01.2021	23:54:03	0	0	4,858281	0,95775	332,3556	-0,099	87,331	0	1017,42	6,3	8,4	8,3	1	1	1	1	1	1	1	1	1	0	1	-8,315715	273,650098	309,639164	0
15.01.2021	23:54:04	0	0	3,163532	0,94725	328,9428	-0,092	87,356	0	1017,7	6,4	8,4	8,3	1	1	1	1	1	1	1	1	1	0	1	-4,580691	273,635525	313,306464	0
15.01.2021	23:54:05	0	0	4,745298	0,95025	331,4592	-0,092	87,349	0	1017,64	6,3	8,5	8,3	1	1	1	1	1	1	1	1	1	0	1	-2,889359	273,468724	314,223402	0
15.01.2021	23:54:06	0	0	4,067398	0,91725	342,6876	-0,099	87,343	0	1017,5	6,3	8,4	8,3	1	1	1	1	1	1	1	1	1	0	1	-3,805497	273,559923	313,730489	0
15.01.2021	23:54:07	0	0	2,711599	0,9015	342,3312	-0,093	87,354	0	1017,56	6,3	8,4	8,3	1	1	1	1	1	1	1	1	1	0	1	-0,211416	273,474502	316,928144	0
15.01.2021	23:54:08	0	0	5,084278	0,88425	334,2312	-0,096	87,342	0	1017,58	6,3	8,5	8,2	1	1	1	1	1	1	1	1	1	0	1	-2,60747	273,532373	314,80062	0
15.01.2021	23:54:09	0	0	4,971264	0,858	328,2588	-0,095	87,359	0	1017,62	6,4	8,4	8,3	1	1	1	1	1	1	1	1	1	0	1	-3,664553	273,651556	314,297103	0
15.01.2021	23:54:10	0	0	4,632314	0,86625	328,9824	-0,096	87,345	0	1017,68	6,4	8,4	8,3	1	1	1	1	1	1	1	1	1	0	1	-8,45666	273,596233	309,247949	0
15.01.2021	23:54:11	0	0	4,293365	0,88425	332,3628	-0,101	87,344	0	1017,54	6,3	8,4	8,3	1	1	1	1	1	1	1	1	1	0	1	-1,479915	273,483172	315,699862	0
15.01.2021	23:54:12	0	0	2,485632	0,906	332,388	-0,096	87,354	0	1017,6	6,3	8,4	8,3	1	1	1	1	1	1	1	1	1	0	1	-7,751938	273,519337	309,595648	0
15.01.2021	23:54:13	0	0	3,954415	0,89175	328,1724	-0,094	87,348	0	1017,32	6,3	8,3	8,3	1	1	1	1	1	1	1	1	1	0	1	-5,637773	273,52513	311,736697	0
15.01.2021	23:54:14	0	0	3,954415	0,89175	329,8068	-0,1	87,351	0	1017,54	6,3	8,4	8,3	1	1	1	1	1	1	1	1	1	0	1	-3,946441	273,488953	313,26016	0
15.01.2021	23:54:15	0	0	4,745298	0,87675	330,354	-0,098	87,353	0	1017,64	6,3	8,4	8,3	1	1	1	1	1	1	1	1	1	0	1	-7,047216	273,622419	310,779039	0
15.01.2021	23:54:16	0	0	4,519358	0,8775	327,0888	-0,095	87,352	0	1017,64	6,3	8,4	8,2	1	1	1	1	1	1	1	1	1	0	1	-9,936575	273,499076	307,316991	0
15.01.2021	23:54:17	0	0	3,163551	0,86775	327,4416	-0,098	87,345	0	1017,64	6,3	8,5	8,2	1	1	1	1	1	1	1	1	1	0	1	-4,651163	273,590419	313,02644	0
15.01.2021	23:54:18	0	0	3,841431	0,8685	332,7588	-0,094	87,362	0	1017,5	6,3	8,4	8,3	1	1	1	1	1	1	1	1	1	0	1	-2,466526	273,654473	315,508683	0
15.01.2021	23:54:19	0	0	3,615465	0,876	336,7188	-0,105	87,34	0	1017,4	6,3	8,4	8,3	1	1	1	1	1	1	1	1	1	0	1	-7,610994	273,516441	309,723153	0
15.01.2021	23:54:20	0	0	4,858281	0,86025	339,7716	-0,095	87,355	0	1017,48	6,4	8,4	8,3	1	1	1	1	1	1	1	1	1	0	1	-7,329105	273,650098	310,625774	0
15.01.2021	23:54:21	0	0	2,485632	0,86775	340,5528	-0,1	87,34	0	1017,5	6,3	8,3	8,3	1	1	1	1	1	1	1	1	1	0	1	-5,990134	273,561374	311,552589	0
15.01.2021	23:54:22	0	0	2,711599	0,86475	339,4152	-0,095	87,334	0	1017,68	6,4	8,5	8,3	1	1	1	1	1	1	1	1	1	0	1	-2,959831	273,658848	315,035713	0
15.01.2021	23:54:23	0	0	4,519331	0,882	340,182	-0,1	87,352	0	1017,6	6,4	8,4	8,3	1	1	1	1	1	1	1	1	1	0	1	-6,20155	273,632612	311,672067	0
15.01.2021	23:54:24	0	0	4,180381	0,8835	336,7908	-0,104	87,345	0	1017,5	6,3	8,4	8,3	1	1	1	1	1	1	1	1	1	0	1	-6,20155	273,650098	311,753329	0
15.01.2021	23:54:25	0	0	3,615465	0,8745	330,3288	-0,101	87,359	0	1017,58	6,3	8,4	8,3	1	1	1	1	1	1	1	1	1	0	1	-4,22833	273,523681	313,139418	0
15.01.2021	23:54:26	0	0	2,937583	0,84675	327,7512	-0,107	87,346	0	1017,5	6,3	8,4	8,2	1	1	1	1	1	1	1	1	1	0	1	-8,80902	273,663224	309,206864	0
15.01.2021	23:54:27	0	0	4,971264	0,83475	327,1284	-0,095	87,351	0	1017,6	6,3	8,4	8,3	1	1	1	1	1	1	1	1	1	0	1	-3,312192	273,651556	314,649464	0
15.01.2021	23:54:28	0	0	4,519331	0,816	330,3576	-0,097	87,349	0	1017,46	6,3	8,4	8,3	1	1	1	1	1	1	1	1	1	0	1	-2,536998	273,616597	315,262208	0
15.01.2021	23:54:29	0	0	2,711615	0,807	335,3688	-0,097	87,357	0	1017,58	6,3	8,5	8,2	1	1	1	1	1	1	1	1	1	0	1	-0	273,481726	317,173073	0
15.01.2021	23:54:30	0	0	4,406348	0,78975	332,7552	-0,103	87,341	0	1017,58	6,3	8,4	8,3	1	1	1	1	1	1	1	1	1	0	1	-5,990134	273,619508	311,822596	0
15.01.2021	23:54:31	0	0	3,502482	0,771	327,8268	-0,1	87,354	0	1017,66	6,3	8,4	8,3	1	1	1	1	1	1	1	1	1	0	1	-7,329105	273,639896	310,578361	0
15.01.2021	23:54:32	0	0	4,858281	0,777	327,8016	-0,097	87,354	0	1017,56	6,3	8,5	8,3	1	1	1	1	1	1	1	1	1	0	1	-6,694856	273,612231	311,084069	0
15.01.2021	23:54:33	0	0	3,954438	0,747	328,6368	-0,097	87,36	0	1017,42	6,4	8,4	8,2	1	1	1	1	1	1	1	1	1	0	1	-5,778717	273,477391	311,374246	0
15.01.2021	23:54:34	0	0	3,276515	0,7635	331,1856	-0,099	87,329	0	1017,54	6,3	8,4	8,3	1	1	1	1	1	1	1	1	1	0	1	-4,087385	273,577343	313,529491	0
15.01.2021	23:54:35	0	0	4,971294	0,7605	329,6196	-0,103	87,342	0	1017,5	6,3	8,4	8,2	1	1	1	1	1	1	1	1	1	0	1	-3,523608	273,655931	314,458378	0
15.01.2021	23:54:36	0	0	4,067398	0,7605	320,7924	-0,096	87,354	0	1017,64	6,3	8,4	8,3	1	1	1	1	1	1	1	1	1	0	1	-8,668076	273,509204	308,632485	0
15.01.2021	23:54:37	0	0	3,276515	0,74925	323,3016	-0,098	87,355	0	1017,68	6,3	8,5	8,3	1	1	1	1	1	1	1	1	1	0	1	-5,990134	273,622419	311,836122	0
15.01.2021	23:54:38	0	0	4,519331	0,7485	332,7552	-0,099	87,345	0	1017,58	6,3	8,4	8,3	1	1	1	1	1	1	1	1	1	0	1	-5,919662	273,655931	312,062325	0
15.01.2021	23:54:39	0	0	5,42323	0,74475	331,9776	-0,11	87,344	0	1017,5	6,3	8,4	8,2	1	1	1	1	1	1	1	1	1	0	1	-9,725159	273,55412	307,783883	0
15.01.2021	23:54:40	0	0	4,632314	0,7185	327,1176	-0,101	87,351	0	1017,4	6,3	8,4	8,3	1	1	1	1	1	1	1	1	1	0	1	-6,272023	273,655931	311,709964	0
15.01.2021	23:54:41	0	0	4,745298	0,75675	327,0852	-0,104	87,35	0	1017,66	6,3	8,4	8,3	1	1	1	1	1	1	1	1	1	0	1	-4,580691	273,523681	312,787058	0
15.01.2021	23:54:42	0	0	2,937583	0,7395	328,6224	-0,102	87,355	0	1017,56	6,3	8,4	8,2	1	1	1	1	1	1	1	1	1	0	1	-2,255109	273,657389	315,733656	0
15.01.2021	23:54:43	0	0	2,372663	0,76125	327,7296	-0,101	87,357	0	1017,6	6,3	8,4	8,2	1	1	1	1	1	1	1	1	1	0	1	-5,073996	273,549768	312,414845	0
15.01.2021	23:54:44	0	0	3,841431	0,78825	326,4552	-0,098	87,351	0	1017,48	6,3	8,4	8,3	1	1	1	1	1	1	1	1	1	0	1	-6,976744	273,620963	310,842748	0
15.01.2021	23:54:45	0	0	5,084278	0,7845	326,4156	-0,101	87,362	0	1017,6	6,3	8,5	8,2	1	1	1	1	1	1	1	1	1	0	1	-5,708245	273,639896	312,19922	0
15.01.2021	23:54:46	0	0	4,632342	0,789	326,7036	-0,106	87,35	0	1017,44	6,3	8,4	8,2	1	1	1	1	1	1	1	1	1	0	1	-2,748414	273,599141	314,9697	0
15.01.2021	23:54:47	0	0	3,050548	0,7755	325,4832	-0,102	87,358	0	1017,58	6,3	8,4	8,3	1	1	1	1	1	1	1	1	1	0	1	-6,20155	273,635525	311,685604	0
15.01.2021	23:54:48	0	0	3,728448	0,74325	323,316	-0,104	87,344	0	1017,6	6,3	8,4	8,3	1	1	1	1	1	1	1	1	1	0	1	-4,792107	273,654473	313,183102	0
15.01.2021	23:54:49	0	0	3,050548	0,7605	322,9344	-0,107	87,341	0	1017,54	6,4	8,4	8,3	1	1	1	1	1	1	1	1	1	0	1	-6,8358	273,557021	310,686713	0
15.01.2021	23:54:50	0	0	4,858281	0,78	325,4976	-0,112	87,355	0	1017,4	6,4	8,3	8,3	1	1	1	1	1	1	1	1	1	0	1	-6,694856	273,636982	311,199069	0
15.01.2021	23:54:51	0	0	4,971264	0,77625	328,5396	-0,109	87,354	0	1017,52	6,4	8,4	8,3	1	1	1	1	1	1	1	1	1	0	1	-3,030303	273,634069	314,850083	0
15.01.2021	23:54:52	0	0	4,406348	0,78825	327,438	-0,105	87,356	0	1017,64	6,3	8,4	8,3	1	1	1	1	1	1	1	1	1	0	1	-4,22833	273,541069	313,220125	0
15.01.2021	23:54:53	0	0	3,163532	0,79425	326,7468	-0,11	87,364	0	1017,5	6,3	8,4	8,3	1	1	1	1	1	1	1	1	1	0	1	-4,016913	273,473057	313,115946	0
15.01.2021	23:54:54	0	0	4,632314	0,84825	328,3092	-0,107	87,341	0	1017,54	6,3	8,4	8,3	1	1	1	1	1	1	1	1	1	0	1	-6,060606	273,542518	311,394578	0
15.01.2021	23:54:55	0	0	2,937565	0,85725	325,5552	-0,101	87,359	0	1017,7	6,3	8,4	8,3	1	1	1	1	1	1	1	1	1	0	1	-1,902748	273,526578	315,478445	0
15.01.2021	23:54:56	0	0	4,519331	0,90375	318,4776	-0,107	87,353	0	1017,56	6,3	8,4	8,3	1	1	1	1	1	1	1	1	1	0	1	-7,258633	273,661765	310,750471	0
15.01.2021	23:54:57	0	0	4,745298	0,9315	321,822	-0,105	87,349	0	1017,6	6,3	8,4	8,3	1	1	1	1	1	1	1	1	1	0	1	-6,272023	273,584606	311,378585	0
15.01.2021	23:54:58	0	0	3,728448	0,933	325,6056	-0,104	87,358	0	1017,5	6,3	8,4	8,3	1	1	1	1	1	1	1	1	1	0	1	-4,22833	273,658848	313,767214	0
15.01.2021	23:54:59	0	0	3,163532	0,897	322,5888	-0,103	87,361	0	1017,56	6,3	8,3	8,3	1	1	1	1	1	1	1	1	1	0	1	-9,020437	273,523681	308,347311	0
15.01.2021	23:55:00	0	0	4,632314	0,86325	325,5156	-0,108	87,362	0	1017,6	6,3	8,4	8,3	1	1	1	1	1	1	1	1	1	0	1	-8,104299	273,475947	309,041963	0
15.01.2021	23:55:01	0	0	4,632314	0,86325	325,5156	-0,108	87,362	0	1017,6	6,3	8,4	8,3	1	1	1	1	1	1	1	1	1	0	1	-6,342495	273,610777	311,429671	0
15.01.2021	23:55:02	0	0	3,728448	0,801	327,438	-0,099	87,365	0	1017,64	6,3	8,3	8,3	1	1	1	1	1	1	1	1	1	0	1	-8,80902	273,653014	309,159411	0
15.01.2021	23:55:03	0	0	2,824582	0,76725	325,134	-0,101	87,356	0	1017,66	6,4	8,4	8,3	1	1	1	1	1	1	1	1	1	0	1	-5,285412	273,539619	312,156313	0
15.01.2021	23:55:04	0	0	4,293365	0,77325	322,236	-0,104	87,348	0	1017,48	6,4	8,4	8,3	1	1	1	1	1	1	1	1	1	0	1	-3,312192	273,650098	314,642688	0
15.01.2021	23:55:05	0	0	2,937565	0,72375	322,1712	-0,102	87,353	0	1017,62	6,3	8,4	8,3	1	1	1	1	1	1	1	1	1	0	1	-7,82241	273,50631	309,46472	0
15.01.2021	23:55:06	0	0	4,858281	0,7545	323,712	-0,105	87,363	0	1017,66	6,2	8,4	8,3	1	1	1	1	1	1	1	1	1	0	1	-2,536998	273,626787	315,309552	0
15.01.2021	23:55:07	0	0	2,824582	0,753	320,8212	-0,106	87,353	0	1017,48	6,3	8,5	8,3	1	1	1	1	1	1	1	1	1	0	1	-8,245243	273,519337	309,102342	0
15.01.2021	23:55:08	0	0	3,615487	0,80025	315,8172	-0,106	87,362	0	1017,44	6,4	8,4	8,2	1	1	1	1	1	1	1	1	1	0	1	-7,258633	273,660306	310,743691	0
15.01.2021	23:55:09	0	0	4,519331	0,83325	318,132	-0,107	87,36	0	1017,64	6,4	8,4	8,3	1	1	1	1	1	1	1	1	1	0	1	-6,272023	273,564277	311,284178	0
15.01.2021	23:55:10	0	0	2,824582	0,846	325,1268	-0,11	87,362	0	1017,52	6,3	8,4	8,3	1	1	1	1	1	1	1	1	1	0	1	-5,073996	273,657389	312,914769	0
15.01.2021	23:55:11	0	0	4,406348	0,8685	325,9908	-0,105	87,363	0	1017,66	6,3	8,4	8,3	1	1	1	1	1	1	1	1	1	0	1	-2,184637	273,504863	315,095779	0
15.01.2021	23:55:12	0	0	2,259679	0,86775	315,5328	-0,104	87,355	0	1017,42	6,3	8,4	8,2	1	1	1	1	1	1	1	1	1	0	1	-7,610994	273,522233	309,750033	0
15.01.2021	23:55:13	0	0	3,615465	0,82725	310,9896	-0,101	87,356	0	1017,56	6,3	8,4	8,3	1	1	1	1	1	1	1	1	1	0	1	-3,523608	273,516441	313,810539	0
15.01.2021	23:55:14	0	0	4,293365	0,8445	312,7824	-0,108	87,368	0	1017,6	6,3	8,5	8,3	1	1	1	1	1	1	1	1	1	0	1	-5,285412	273,618052	312,520555	0
15.01.2021	23:55:15	0	0	2,824582	0,86775	313,1748	-0,105	87,362	0	1017,74	6,3	8,4	8,3	1	1	1	1	1	1	1	1	1	0	1	-7,258633	273,587513	310,405471	0
15.01.2021	23:55:16	0	0	3,389498	0,89475	323,2764	-0,104	87,357	0	1017,62	6,4	8,4	8,3	1	1	1	1	1	1	1	1	1	0	1	-6,976744	273,480281	310,189625	0
15.01.2021	23:55:17	0	0	4,745298	0,9345	340,5708	-0,107	87,363	0	1017,58	6,3	8,4	8,3	1	1	1	1	1	1	1	1	1	0	1	-9,372798	273,587513	308,291306	0
15.01.2021	23:55:18	0	0	4,971264	0,89925	336,0708	-0,104	87,358	0	1017,58	6,3	8,4	8,3	1	1	1	1	1	1	1	1	1	0	1	-0	273,496183	317,240144	0
15.01.2021	23:55:19	0	0	3,841431	0,8535	325,1628	-0,104	87,358	0	1017,52	6,3	8,4	8,3	1	1	1	1	1	1	1	1	1	0	1	-5,144468	273,539619	312,297257	0
15.01.2021	23:55:20	0	0	3,728448	0,83475	327,0312	-0,105	87,357	0	1017,6	6,3	8,4	8,3	1	1	1	1	1	1	1	1	1	0	1	-7,117689	273,481726	310,055384	0
15.01.2021	23:55:21	0	0	4,067398	0,81525	339,0876	-0,112	87,355	0	1017,56	6,3	8,4	8,3	1	1	1	1	1	1	1	1	1	0	1	-1,338971	273,575891	316,271161	0
15.01.2021	23:55:22	0	0	4,519331	0,807	343,5192	-0,109	87,353	0	1017,5	6,4	8,4	8,3	1	1	1	1	1	1	1	1	1	0	1	-2,043693	273,500522	315,216585	0
15.01.2021	23:55:23	0	0	4,745326	0,798	336,4668	-0,11	87,351	0	1017,64	6,4	8,4	8,2	1	1	1	1	1	1	1	1	1	0	1	-6,342495	273,471613	310,783665	0
15.01.2021	23:55:24	0	0	5,310214	0,75675	332,6688	-0,114	87,353	0	1017,68	6,3	8,4	8,3	1	1	1	1	1	1	1	1	1	0	1	-5,84919	273,55412	311,659852	0
15.01.2021	23:55:25	0	0	4,971264	0,77025	334,566	-0,105	87,374	0	1017,46	6,3	8,4	8,3	1	1	1	1	1	1	1	1	1	0	1	-4,22833	273,648641	313,719774	0
15.01.2021	23:55:26	0	0	3,163532	0,75525	333,6768	-0,111	87,359	0	1017,74	6,3	8,4	8,3	1	1	1	1	1	1	1	1	1	0	1	-4,439746	273,619508	313,372983	0
15.01.2021	23:55:27	0	0	4,745298	0,729	338,0256	-0,105	87,365	0	1017,6	6,3	8,4	8,3	1	1	1	1	1	1	1	1	1	0	1	-2,043693	273,615142	315,748752	0
15.01.2021	23:55:28	0	0	2,598615	0,73275	339,4008	-0,106	87,363	0	1017,48	6,4	8,4	8,3	1	1	1	1	1	1	1	1	1	0	1	-2,184637	273,647183	315,756692	0
15.01.2021	23:55:29	0	0	3,050548	0,717	339,0084	-0,115	87,359	0	1017,6	6,3	8,4	8,3	1	1	1	1	1	1	1	1	1	0	1	-5,637773	273,484617	311,548709	0
15.01.2021	23:55:30	0	0	3,954415	0,7005	338,7024	-0,108	87,366	0	1017,48	6,4	8,4	8,3	1	1	1	1	1	1	1	1	1	0	1	-1,973221	273,539619	315,468505	0
15.01.2021	23:55:31	0	0	4,632314	0,70725	339,372	-0,108	87,368	0	1017,62	6,3	8,4	8,3	1	1	1	1	1	1	1	1	1	0	1	-1,198027	273,634069	316,682359	0
15.01.2021	23:55:32	0	0	4,632314	0,72375	341,2368	-0,109	87,374	0	1017,5	6,4	8,5	8,3	1	1	1	1	1	1	1	1	1	0	1	-11,134602	273,535271	306,286941	0
15.01.2021	23:55:33	0	0	3,389519	0,71625	339,39	-0,114	87,351	0	1017,58	6,3	8,4	8,2	1	1	1	1	1	1	1	1	1	0	1	-4,087385	273,586059	313,56997	0
15.01.2021	23:55:34	0	0	3,615465	0,71175	338,3964	-0,113	87,357	0	1017,54	6,3	8,4	8,3	1	1	1	1	1	1	1	1	1	0	1	-1,761804	273,641353	316,152433	0
15.01.2021	23:55:35	0	0	4,632342	0,702	337,14	-0,106	87,381	0	1017,6	6,3	8,4	8,2	1	1	1	1	1	1	1	1	1	0	1	-2,677942	273,619508	315,134787	0
15.01.2021	23:55:36	0	0	4,519358	0,70575	333,45	-0,107	87,386	0	1017,56	6,4	8,4	8,2	1	1	1	1	1	1	1	1	1	0	1	-7,258633	273,638439	310,642062	0
15.01.2021	23:55:37	0	0	2,937565	0,687	334,4868	-0,109	87,375	0	1017,48	6,3	8,4	8,3	1	1	1	1	1	1	1	1	1	0	1	-8,245243	273,650098	309,709636	0
15.01.2021	23:55:38	0	0	3,502482	0,7065	343,8576	-0,108	87,37	0	1017,52	6,3	8,4	8,3	1	1	1	1	1	1	1	1	1	0	1	-4,651163	273,523681	312,716585	0
15.01.2021	23:55:39	0	0	3,841431	0,738	348,588	-0,107	87,368	0	1017,38	6,3	8,5	8,3	1	1	1	1	1	1	1	1	1	0	1	-4,439746	273,620963	313,379746	0
15.01.2021	23:55:40	0	0	3,615465	0,711	347,9544	-0,111	87,367	0	1017,52	6,3	8,4	8,3	1	1	1	1	1	1	1	1	1	0	1	-8,597604	273,625331	309,242181	0
15.01.2021	23:55:41	0	0	3,728471	0,75075	348,9588	-0,113	87,37	0	1017,5	6,4	8,4	8,2	1	1	1	1	1	1	1	1	1	0	1	-8,033827	273,604958	309,711309	0
15.01.2021	23:55:42	0	0	3,954415	0,753	348,6456	-0,112	87,357	0	1017,52	6,3	8,4	8,3	1	1	1	1	1	1	1	1	1	0	1	-4,933051	273,636982	312,960873	0
15.01.2021	23:55:43	0	0	3,389498	0,75075	346,9464	-0,114	87,367	0	1017,54	6,3	8,4	8,3	1	1	1	1	1	1	1	1	1	0	1	-5,84919	273,52513	311,525281	0
15.01.2021	23:55:44	0	0	4,971264	0,732	341,64	-0,112	87,388	0	1017,62	6,3	8,4	8,3	1	1	1	1	1	1	1	1	1	0	1	-3,59408	273,602049	314,137543	0
15.01.2021	23:55:45	0	0	3,615487	0,73125	338,2776	-0,107	87,386	0	1017,52	6,3	8,4	8,2	1	1	1	1	1	1	1	1	1	0	1	-7,399577	273,513546	309,921133	0
15.01.2021	23:55:46	0	0	2,937565	0,76875	341,6688	-0,111	87,373	0	1017,46	6,4	8,4	8,3	1	1	1	1	1	1	1	1	1	0	1	-5,708245	273,604958	312,03689	0
15.01.2021	23:55:47	0	0	4,632314	0,78225	340,2144	-0,107	87,394	0	1017,6	6,3	8,4	8,3	1	1	1	1	1	1	1	1	1	0	1	-2,396054	273,465836	314,703311	0
15.01.2021	23:55:48	0	0	3,163532	0,75075	335,736	-0,107	87,395	0	1017,56	6,4	8,4	8,3	1	1	1	1	1	1	1	1	1	0	1	-4,933051	273,520785	312,421254	0
15.01.2021	23:55:49	0	0	3,050548	0,75825	333,4068	-0,11	87,39	0	1017,68	6,4	8,4	8,3	1	1	1	1	1	1	1	1	1	0	1	-3,875969	273,645725	314,058586	0
15.01.2021	23:55:50	0	0	2,937565	0,753	336,3696	-0,113	87,383	0	1017,66	6,3	8,4	8,3	1	1	1	1	1	1	1	1	1	0	1	-7,117689	273,599141	310,600426	0
15.01.2021	23:55:51	0	0	2,372663	0,765	334,5552	-0,112	87,377	0	1017,64	6,3	8,4	8,2	1	1	1	1	1	1	1	1	1	0	1	-5,073996	273,648641	312,874108	0
15.01.2021	23:55:52	0	0	4,632314	0,7845	328,554	-0,11	87,391	0	1017,56	6,4	8,4	8,3	1	1	1	1	1	1	1	1	1	0	1	-7,751938	273,55412	309,757104	0
15.01.2021	23:55:53	0	0	5,084278	0,795	324,0288	-0,106	87,389	0	1017,62	6,3	8,4	8,2	1	1	1	1	1	1	1	1	1	0	1	-8,315715	273,478836	308,843951	0
15.01.2021	23:55:54	0	0	2,485647	0,86475	325,17	-0,111	87,383	0	1017,8	6,3	8,4	8,2	1	1	1	1	1	1	1	1	1	0	1	-5,990134	273,496183	311,25001	0
15.01.2021	23:55:55	0	0	2,259666	0,92775	342,7776	-0,108	87,405	0	1017,62	6,3	8,4	8,3	1	1	1	1	1	1	1	1	1	0	1	-3,382664	273,493291	313,844061	0
15.01.2021	23:55:56	0	0	4,406374	0,963	342,3456	-0,111	87,399	0	1017,44	6,4	8,4	8,2	1	1	1	1	1	1	1	1	1	0	1	-0,352361	273,559923	317,183625	0
15.01.2021	23:55:57	0	0	3,276535	0,94275	330,4404	-0,113	87,403	0	1017,62	6,3	8,4	8,2	1	1	1	1	1	1	1	1	1	0	1	-9,725159	273,471613	307,401001	0
15.01.2021	23:55:58	0	0	4,519331	0,9405	327,5604	-0,107	87,405	0	1017,58	6,4	8,4	8,3	1	1	1	1	1	1	1	1	1	0	1	-7,82241	273,539619	309,619315	0
15.01.2021	23:55:59	0	0	3,841431	0,88575	325,1268	-0,104	87,399	0	1017,56	6,3	8,4	8,3	1	1	1	1	1	1	1	1	1	0	1	-3,664553	273,468724	313,448208	0
15.01.2021	23:56:00	0	0	2,824599	0,8955	328,1292	-0,11	87,396	0	1017,66	6,3	8,5	8,2	1	1	1	1	1	1	1	1	1	0	1	-8,738548	273,574439	308,86484	0
15.01.2021	23:56:01	0	0	2,711615	0,8565	333,45	-0,112	87,399	0	1017,68	6,3	8,4	8,2	1	1	1	1	1	1	1	1	1	0	1	-1,409443	273,487508	315,790451	0
15.01.2021	23:56:02	0	0	2,598631	0,83325	332,7732	-0,107	87,409	0	1017,62	6,4	8,4	8,2	1	1	1	1	1	1	1	1	1	0	1	-5,496829	273,53672	311,931441	0
15.01.2021	23:56:03	0	0	4,406348	0,86325	333,864	-0,115	87,414	0	1017,54	6,4	8,4	8,3	1	1	1	1	1	1	1	1	1	0	1	-6,906272	273,648641	311,041832	0
15.01.2021	23:56:04	0	0	4,632314	0,85575	336,1536	-0,111	87,417	0	1017,66	6,3	8,4	8,3	1	1	1	1	1	1	1	1	1	0	1	-4,933051	273,603503	312,805328	0
15.01.2021	23:56:05	0	0	3,389519	0,816	337,5504	-0,112	87,417	0	1017,66	6,3	8,4	8,2	1	1	1	1	1	1	1	1	1	0	1	-4,22833	273,657389	313,760435	0
15.01.2021	23:56:06	0	0	3,502482	0,7575	333,4824	-0,113	87,411	0	1017,44	6,3	8,4	8,3	1	1	1	1	1	1	1	1	1	0	1	-5,003524	273,603503	312,734856	0
15.01.2021	23:56:07	0	0	3,276515	0,7575	324,7416	-0,111	87,416	0	1017,56	6,3	8,4	8,3	1	1	1	1	1	1	1	1	1	0	1	-4,369274	273,471613	312,756885	0
15.01.2021	23:56:08	0	0	4,067398	0,7575	320,8392	-0,109	87,413	0	1017,48	6,3	8,4	8,3	1	1	1	1	1	1	1	1	1	0	1	-6,272023	273,604958	311,473113	0
15.01.2021	23:56:09	0	0	4,971294	0,7605	324,4032	-0,118	87,407	0	1017,64	6,4	8,4	8,2	1	1	1	1	1	1	1	1	1	0	1	-3,875969	273,619508	313,93676	0
15.01.2021	23:56:10	0	0	4,971264	0,798	328,878	-0,113	87,413	0	1017,66	6,3	8,4	8,3	1	1	1	1	1	1	1	1	1	0	1	-3,59408	273,620963	314,225412	0
15.01.2021	23:56:11	0	0	2,824599	0,79875	329,6808	-0,112	87,4	0	1017,56	6,2	8,4	8,2	1	1	1	1	1	1	1	1	1	0	1	-4,933051	273,602049	312,798572	0
15.01.2021	23:56:12	0	0	4,406374	0,81	329,7564	-0,114	87,42	0	1017,58	6,3	8,4	8,2	1	1	1	1	1	1	1	1	1	0	1	-5,496829	273,612231	312,282096	0
15.01.2021	23:56:13	0	0	5,084247	0,81675	331,1964	-0,106	87,424	0	1017,58	6,3	8,4	8,3	1	1	1	1	1	1	1	1	1	0	1	-5,567301	273,642811	312,353708	0
15.01.2021	23:56:14	0	0	4,971294	0,828	329,7456	-0,114	87,409	0	1017,38	6,4	8,4	8,2	1	1	1	1	1	1	1	1	1	0	1	-5,990134	273,612231	311,788791	0
15.01.2021	23:56:15	0	0	2,711599	0,80325	331,1244	-0,111	87,421	0	1017,7	6,2	8,4	8,3	1	1	1	1	1	1	1	1	1	0	1	-3,875969	273,473057	313,25689	0
15.01.2021	23:56:16	0	0	3,276515	0,822	328,3416	-0,115	87,423	0	1017,46	6,3	8,4	8,3	1	1	1	1	1	1	1	1	1	0	1	-3,171247	273,548318	314,310861	0
15.01.2021	23:56:17	0	0	3,050548	0,81	325,9476	-0,112	87,416	0	1017,58	6,3	8,4	8,3	1	1	1	1	1	1	1	1	1	0	1	-4,721635	273,644268	313,206147	0
15.01.2021	23:56:18	0	0	4,85831	0,83625	328,9248	-0,114	87,413	0	1017,48	6,3	8,4	8,2	1	1	1	1	1	1	1	1	1	0	1	-2,959831	273,517889	314,381035	0
15.01.2021	23:56:19	0	0	3,615487	0,813	331,4952	-0,116	87,422	0	1017,64	6,3	8,4	8,2	1	1	1	1	1	1	1	1	1	0	1	-2,255109	273,471613	314,87105	0
15.01.2021	23:56:20	0	0	3,841431	0,825	332,4276	-0,108	87,417	0	1017,64	6,3	8,4	8,3	1	1	1	1	1	1	1	1	1	0	1	-3,59408	273,510651	313,713196	0
15.01.2021	23:56:21	0	0	2,598615	0,79875	332,2728	-0,111	87,421	0	1017,5	6,2	8,4	8,3	1	1	1	1	1	1	1	1	1	0	1	-4,22833	273,641353	313,685907	0
15.01.2021	23:56:22	0	0	3,050567	0,8265	330,804	-0,111	87,423	0	1017,52	6,2	8,4	8,2	1	1	1	1	1	1	1	1	1	0	1	-6,412967	273,642811	311,508042	0
15.01.2021	23:56:23	0	0	4,519358	0,83625	331,1316	-0,111	87,406	0	1017,64	6,3	8,4	8,2	1	1	1	1	1	1	1	1	1	0	1	-4,721635	273,612231	313,05729	0
15.01.2021	23:56:24	0	0	3,050567	0,87375	334,2276	-0,116	87,407	0	1017,68	6,3	8,4	8,2	1	1	1	1	1	1	1	1	1	0	1	-12,755462	273,462949	304,33051	0
15.01.2021	23:56:25	0	0	3,050567	0,9015	334,1628	-0,115	87,399	0	1017,6	6,4	8,4	8,2	1	1	1	1	1	1	1	1	1	0	1	-4,016913	273,549768	313,471927	0
15.01.2021	23:56:26	0	0	4,406348	0,87075	333,3528	-0,113	87,407	0	1017,42	6,4	8,4	8,3	1	1	1	1	1	1	1	1	1	0	1	-6,483439	273,490399	310,729869	0
15.01.2021	23:56:27	0	0	4,180381	0,89925	337,176	-0,114	87,42	0	1017,52	6,3	8,4	8,3	1	1	1	1	1	1	1	1	1	0	1	-7,610994	273,507757	309,682852	0
15.01.2021	23:56:28	0	0	3,728471	0,9	334,1664	-0,111	87,414	0	1017,7	6,4	8,4	8,2	1	1	1	1	1	1	1	1	1	0	1	-5,073996	273,465836	312,025369	0
15.01.2021	23:56:29	0	0	3,502482	0,90225	332,406	-0,111	87,427	0	1017,58	6,3	8,4	8,3	1	1	1	1	1	1	1	1	1	0	1	-3,805497	273,565728	313,757443	0
15.01.2021	23:56:30	0	0	2,937565	0,954	335,3472	-0,11	87,43	0	1017,58	6,3	8,4	8,3	1	1	1	1	1	1	1	1	1	0	1	-5,708245	273,653014	312,260186	0
15.01.2021	23:56:31	0	0	3,502482	0,975	338,0724	-0,114	87,424	0	1017,52	6,3	8,4	8,3	1	1	1	1	1	1	1	1	1	0	1	-1,62086	273,588966	316,049993	0
15.01.2021	23:56:32	0	0	2,711599	0,951	338,4324	-0,111	87,419	0	1017,72	6,2	8,4	8,3	1	1	1	1	1	1	1	1	1	0	1	-4,721635	273,647183	313,219694	0
15.01.2021	23:56:33	0	0	4,85831	0,93825	334,4724	-0,113	87,42	0	1017,58	6,4	8,4	8,2	1	1	1	1	1	1	1	1	1	0	1	-4,439746	273,542518	313,015438	0
15.01.2021	23:56:34	0	0	4,85831	0,88875	330,0768	-0,114	87,42	0	1017,58	6,3	8,4	8,2	1	1	1	1	1	1	1	1	1	0	1	-6,272023	273,470169	310,847437	0
15.01.2021	23:56:35	0	0	4,519358	0,9015	330,7572	-0,113	87,422	0	1017,64	6,4	8,4	8,2	1	1	1	1	1	1	1	1	1	0	1	-3,523608	273,594779	314,174248	0
15.01.2021	23:56:36	0	0	3,728471	0,9	337,4676	-0,116	87,417	0	1017,6	6,3	8,4	8,2	1	1	1	1	1	1	1	1	1	0	1	-8,527132	273,604958	309,218003	0
15.01.2021	23:56:37	0	0	4,632342	0,8985	335,7	-0,116	87,418	0	1017,46	6,4	8,4	8,2	1	1	1	1	1	1	1	1	1	0	1	-4,580691	273,609322	313,184716	0
15.01.2021	23:56:38	0	0	2,372663	0,91425	336,7944	-0,115	87,424	0	1017,56	6,4	8,4	8,2	1	1	1	1	1	1	1	1	1	0	1	-5,073996	273,634069	312,80639	0
15.01.2021	23:56:39	0	0	3,841431	0,90825	336,7296	-0,116	87,413	0	1017,44	6,4	8,4	8,3	1	1	1	1	1	1	1	1	1	0	1	-6,483439	273,55412	311,025603	0
15.01.2021	23:56:40	0	0	3,615487	0,86475	335,3328	-0,113	87,434	0	1017,72	6,4	8,4	8,2	1	1	1	1	1	1	1	1	1	0	1	-2,466526	273,651556	315,495129	0
15.01.2021	23:56:41	0	0	3,389519	0,87975	334,8792	-0,118	87,43	0	1017,58	6,4	8,4	8,2	1	1	1	1	1	1	1	1	1	0	1	-3,875969	273,606412	313,875923	0
15.01.2021	23:56:42	0	0	3,954415	0,86775	336,0492	-0,112	87,422	0	1017,62	6,4	8,5	8,3	1	1	1	1	1	1	1	1	1	0	1	-7,540521	273,658848	310,455022	0
15.01.2021	23:56:43	0	0	2,485647	0,90675	338,2776	-0,114	87,403	0	1017,6	6,4	8,4	8,2	1	1	1	1	1	1	1	1	1	0	1	-6,906272	273,549768	310,582569	0
15.01.2021	23:56:44	0	0	4,632314	0,96225	341,3196	-0,115	87,416	0	1017,64	6,2	8,4	8,3	1	1	1	1	1	1	1	1	1	0	1	-2,396054	273,477391	314,75691	0
15.01.2021	23:56:45	0	0	2,485632	1,01625	343,476	-0,116	87,428	0	1017,62	6,3	8,4	8,3	1	1	1	1	1	1	1	1	1	0	1	-4,933051	273,53817	312,501946	0
15.01.2021	23:56:46	0	0	3,050567	1,06875	343,1124	-0,113	87,433	0	1017,68	6,3	8,4	8,2	1	1	1	1	1	1	1	1	1	0	1	-5,778717	273,462949	311,307254	0
15.01.2021	23:56:47	0	0	2,937565	1,0635	336,7512	-0,12	87,402	0	1017,58	6,3	8,4	8,3	1	1	1	1	1	1	1	1	1	0	1	-1,902748	273,626787	315,943801	0
15.01.2021	23:56:48	0	0	4,632314	1,07775	346,8384	-0,114	87,406	0	1017,48	6,2	8,4	8,3	1	1	1	1	1	1	1	1	1	0	1	-8,668076	273,520785	308,68623	0
15.01.2021	23:56:49	0	0	3,276515	1,07175	346,9104	-0,112	87,415	0	1017,52	6,3	8,4	8,3	1	1	1	1	1	1	1	1	1	0	1	-7,610994	273,631156	310,255856	0
15.01.2021	23:56:50	0	0	3,615465	1,12725	338,004	-0,11	87,413	0	1017,78	6,2	8,4	8,3	1	1	1	1	1	1	1	1	1	0	1	-4,862579	273,648641	313,085525	0
15.01.2021	23:56:51	0	0	3,502482	1,125	337,5684	-0,12	87,42	0	1017,7	6,3	8,4	8,3	1	1	1	1	1	1	1	1	1	0	1	-6,20155	273,520785	311,152755	0
15.01.2021	23:56:52	0	0	4,85831	1,14075	341,3196	-0,113	87,428	0	1017,6	6,4	8,4	8,2	1	1	1	1	1	1	1	1	1	0	1	-9,161381	273,622419	308,664874	0
15.01.2021	23:56:53	0	0	4,745326	1,12875	348,102	-0,109	87,411	0	1017,38	6,3	8,4	8,2	1	1	1	1	1	1	1	1	1	0	1	-7,681466	273,642811	310,239543	0
15.01.2021	23:56:54	0	0	3,954438	1,11225	350,2656	-0,115	87,418	0	1017,66	6,2	8,3	8,2	1	1	1	1	1	1	1	1	1	0	1	-0,704722	273,56718	316,864958	0
15.01.2021	23:56:55	0	0	5,197262	1,08225	345,348	-0,113	87,423	0	1017,52	6,4	8,4	8,2	1	1	1	1	1	1	1	1	1	0	1	-5,567301	273,474502	311,572259	0
15.01.2021	23:56:56	0	0	4,745326	1,0995	347,5224	-0,114	87,421	0	1017,68	6,3	8,4	8,2	1	1	1	1	1	1	1	1	1	0	1	-6,342495	273,507757	310,951351	0
15.01.2021	23:56:57	0	0	4,180406	1,131	344,2932	-0,118	87,435	0	1017,62	6,3	8,4	8,2	1	1	1	1	1	1	1	1	1	0	1	-2,184637	273,653014	315,783795	0
15.01.2021	23:56:58	0	0	3,615487	1,14675	341,982	-0,121	87,418	0	1017,7	6,4	8,4	8,2	1	1	1	1	1	1	1	1	1	0	1	-3,382664	273,610777	314,389502	0
15.01.2021	23:56:59	0	0	4,406348	1,11375	344,2716	-0,115	87,422	0	1017,54	6,2	8,4	8,3	1	1	1	1	1	1	1	1	1	0	1	-5,567301	273,484617	311,619181	0
15.01.2021	23:57:00	0	0	2,711599	1,09875	342,3852	-0,12	87,425	0	1017,58	6,3	8,4	8,3	1	1	1	1	1	1	1	1	1	0	1	-3,59408	273,588966	314,076773	0
15.01.2021	23:57:01	0	0	4,067422	1,11225	337,446	-0,117	87,42	0	1017,62	6,3	8,4	8,2	1	1	1	1	1	1	1	1	1	0	1	-6,624383	273,628243	311,228932	0
15.01.2021	23:57:02	0	0	3,841431	1,0815	343,8612	-0,12	87,422	0	1017,62	6,4	8,4	8,3	1	1	1	1	1	1	1	1	1	0	1	-9,795631	273,591872	307,888723	0
15.01.2021	23:57:03	0	0	2,598631	1,07775	340,218	-0,117	87,408	0	1017,6	6,3	8,4	8,2	1	1	1	1	1	1	1	1	1	0	1	-4,087385	273,650098	313,867494	0
15.01.2021	23:57:04	0	0	2,937565	1,09275	330,3468	-0,115	87,418	0	1017,56	6,3	8,4	8,3	1	1	1	1	1	1	1	1	1	0	1	-6,131078	273,480281	311,035291	0
15.01.2021	23:57:05	0	0	4,745298	1,128	335,2572	-0,122	87,42	0	1017,58	6,2	8,4	8,3	1	1	1	1	1	1	1	1	1	0	1	-6,765328	273,599141	310,952787	0
15.01.2021	23:57:06	0	0	3,615487	1,14225	338,7204	-0,117	87,442	0	1017,5	6,4	8,4	8,2	1	1	1	1	1	1	1	1	1	0	1	-3,453136	273,496183	313,787008	0
15.01.2021	23:57:07	0	0	2,937565	1,18125	336,3372	-0,12	87,445	0	1017,7	6,4	8,4	8,3	1	1	1	1	1	1	1	1	1	0	1	-2,043693	273,512098	315,2703	0
15.01.2021	23:57:08	0	0	4,745326	1,188	337,9788	-0,118	87,443	0	1017,6	6,3	8,4	8,2	1	1	1	1	1	1	1	1	1	0	1	-7,470049	273,468724	309,642712	0
15.01.2021	23:57:09	0	0	2,824599	1,15275	338,778	-0,119	87,436	0	1017,64	6,3	8,4	8,2	1	1	1	1	1	1	1	1	1	0	1	-6,624383	273,622419	311,201872	0
15.01.2021	23:57:10	0	0	4,745326	1,12425	335,2536	-0,113	87,452	0	1017,68	6,3	8,4	8,2	1	1	1	1	1	1	1	1	1	0	1	-4,439746	273,615142	313,352698	0
15.01.2021	23:57:11	0	0	5,536214	1,11075	339,7608	-0,119	87,442	0	1017,66	6,4	8,4	8,2	1	1	1	1	1	1	1	1	1	0	1	-7,047216	273,647183	310,894113	0
15.01.2021	23:57:12	0	0	4,858281	1,0965	339,8364	-0,114	87,436	0	1017,58	6,2	8,4	8,3	1	1	1	1	1	1	1	1	1	0	1	-2,889359	273,514993	314,43807	0
15.01.2021	23:57:13	0	0	3,276515	1,0905	344,7036	-0,121	87,424	0	1017,66	6,3	8,4	8,3	1	1	1	1	1	1	1	1	1	0	1	-8,45666	273,503416	308,817043	0
15.01.2021	23:57:14	0	0	4,632342	1,059	347,2272	-0,117	87,434	0	1017,66	6,4	8,4	8,2	1	1	1	1	1	1	1	1	1	0	1	-4,933051	273,507757	312,360794	0
15.01.2021	23:57:15	0	0	3,050548	1,053	332,3844	-0,116	87,44	0	1017,6	6,3	8,4	8,3	1	1	1	1	1	1	1	1	1	0	1	-6,483439	273,491845	310,736577	0
15.01.2021	23:57:16	0	0	4,519331	1,01325	338,3856	-0,118	87,428	0	1017,56	6,2	8,4	8,3	1	1	1	1	1	1	1	1	1	0	1	-4,369274	273,532373	313,038816	0
15.01.2021	23:57:17	0	0	2,711599	1,05375	343,188	-0,117	87,434	0	1017,64	6,3	8,4	8,3	1	1	1	1	1	1	1	1	1	0	1	-7,892882	273,486062	309,300306	0
15.01.2021	23:57:18	0	0	3,050567	1,07475	335,286	-0,123	87,435	0	1017,66	6,3	8,4	8,2	1	1	1	1	1	1	1	1	1	0	1	-6,412967	273,581701	311,224146	0
15.01.2021	23:57:19	0	0	4,406348	1,0485	334,2096	-0,118	87,446	0	1017,64	6,2	8,4	8,3	1	1	1	1	1	1	1	1	1	0	1	-8,104299	273,636982	309,789626	0
15.01.2021	23:57:20	0	0	4,29339	1,01175	334,2096	-0,126	87,441	0	1017,44	6,3	8,4	8,2	1	1	1	1	1	1	1	1	1	0	1	-7,610994	273,602049	310,12063	0
15.01.2021	23:57:21	0	0	3,276535	1,02	332,4024	-0,121	87,444	0	1017,54	6,3	8,4	8,2	1	1	1	1	1	1	1	1	1	0	1	-5,567301	273,629699	312,292781	0
15.01.2021	23:57:22	0	0	3,841454	1,035	335,9448	-0,121	87,454	0	1017,52	6,2	8,4	8,2	1	1	1	1	1	1	1	1	1	0	1	-5,355884	273,628243	312,497431	0
15.01.2021	23:57:23	0	0	2,259679	1,02375	330,2856	-0,118	87,445	0	1017,66	6,4	8,4	8,2	1	1	1	1	1	1	1	1	1	0	1	-3,24172	273,509204	314,058841	0
15.01.2021	23:57:24	0	0	3,502482	1,04175	335,07	-0,116	87,456	0	1017,46	6,4	8,4	8,3	1	1	1	1	1	1	1	1	1	0	1	-1,057082	273,648641	316,891022	0
15.01.2021	23:57:25	0	0	3,276535	1,0545	334,4976	-0,124	87,44	0	1017,66	6,4	8,4	8,2	1	1	1	1	1	1	1	1	1	0	1	-7,399577	273,594779	310,298279	0
15.01.2021	23:57:26	0	0	4,632342	1,08675	332,0568	-0,125	87,457	0	1017,58	6,4	8,4	8,2	1	1	1	1	1	1	1	1	1	0	1	-7,610994	273,496183	309,62915	0
15.01.2021	23:57:27	0	0	3,841454	1,13775	335,7072	-0,123	87,444	0	1017,6	6,3	8,4	8,2	1	1	1	1	1	1	1	1	1	0	1	-5,426357	273,516441	311,90779	0
15.01.2021	23:57:28	0	0	3,502503	1,14075	333,5652	-0,122	87,445	0	1017,66	6,3	8,4	8,2	1	1	1	1	1	1	1	1	1	0	1	-9,725159	273,625331	308,114626	0
15.01.2021	23:57:29	0	0	4,971294	1,1895	334,6308	-0,12	87,447	0	1017,62	6,4	8,4	8,2	1	1	1	1	1	1	1	1	1	0	1	-6,694856	273,623875	311,138164	0
15.01.2021	23:57:30	0	0	3,615487	1,1955	336,0492	-0,117	87,447	0	1017,5	6,3	8,4	8,2	1	1	1	1	1	1	1	1	1	0	1	-5,285412	273,628243	312,567903	0
15.01.2021	23:57:31	0	0	2,824599	1,179	340,9236	-0,121	87,454	0	1017,58	6,3	8,4	8,2	1	1	1	1	1	1	1	1	1	0	1	-5,990134	273,645725	311,944422	0
15.01.2021	23:57:32	0	0	4,632342	1,12725	334,1844	-0,123	87,448	0	1017,58	6,4	8,4	8,2	1	1	1	1	1	1	1	1	1	0	1	-5,84919	273,551219	311,646384	0
15.01.2021	23:57:33	0	0	2,824582	1,0815	333,5364	-0,119	87,461	0	1017,38	6,3	8,4	8,3	1	1	1	1	1	1	1	1	1	0	1	-4,933051	273,645725	313,001504	0
15.01.2021	23:57:34	0	0	2,824582	1,08825	338,796	-0,128	87,463	0	1017,68	6,4	8,4	8,3	1	1	1	1	1	1	1	1	1	0	1	-7,329105	273,613686	310,456579	0
15.01.2021	23:57:35	0	0	3,163532	1,1145	335,3472	-0,123	87,46	0	1017,64	6,3	8,4	8,3	1	1	1	1	1	1	1	1	1	0	1	-3,030303	273,468724	314,082458	0
15.01.2021	23:57:36	0	0	4,971264	1,158	333,8208	-0,121	87,45	0	1017,7	6,3	8,4	8,3	1	1	1	1	1	1	1	1	1	0	1	-4,439746	273,545418	313,028898	0
15.01.2021	23:57:37	0	0	2,824599	1,13475	338,274	-0,125	87,455	0	1017,58	6,3	8,4	8,2	1	1	1	1	1	1	1	1	1	0	1	-2,396054	273,480281	314,770316	0
15.01.2021	23:57:38	0	0	4,971294	1,11675	337,878	-0,122	87,462	0	1017,62	6,3	8,4	8,2	1	1	1	1	1	1	1	1	1	0	1	-3,946441	273,548318	313,535667	0
15.01.2021	23:57:39	0	0	4,519358	1,083	335,7324	-0,122	87,467	0	1017,54	6,2	8,4	8,2	1	1	1	1	1	1	1	1	1	0	1	-9,090909	273,651556	308,870746	0
15.01.2021	23:57:40	0	0	2,937583	1,09575	334,2204	-0,121	87,466	0	1017,42	6,4	8,4	8,2	1	1	1	1	1	1	1	1	1	0	1	-8,597604	273,523681	308,770144	0
15.01.2021	23:57:41	0	0	4,745326	1,12125	339,84	-0,124	87,451	0	1017,58	6,3	8,5	8,2	1	1	1	1	1	1	1	1	1	0	1	-2,114165	273,481726	315,058908	0
15.01.2021	23:57:42	0	0	4,745298	1,0995	334,5012	-0,127	87,462	0	1017,44	6,3	8,4	8,3	1	1	1	1	1	1	1	1	1	0	1	-5,426357	273,539619	312,015369	0
15.01.2021	23:57:43	0	0	4,632342	1,11825	332,028	-0,126	87,447	0	1017,52	6,3	8,4	8,2	1	1	1	1	1	1	1	1	1	0	1	-3,030303	273,641353	314,883934	0
15.01.2021	23:57:44	0	0	4,519358	1,0755	336,0492	-0,126	87,454	0	1017,58	6,4	8,4	8,2	1	1	1	1	1	1	1	1	1	0	1	-7,610994	273,591872	310,07336	0
15.01.2021	23:57:45	0	0	4,745326	1,059	330,0732	-0,126	87,464	0	1017,72	6,3	8,4	8,2	1	1	1	1	1	1	1	1	1	0	1	-1,198027	273,654473	316,777182	0
15.01.2021	23:57:46	0	0	4,180406	1,07175	333,072	-0,127	87,472	0	1017,56	6,4	8,4	8,2	1	1	1	1	1	1	1	1	1	0	1	-9,020437	273,526578	308,360756	0
15.01.2021	23:57:47	0	0	3,502503	1,083	335,7072	-0,126	87,468	0	1017,6	6,3	8,4	8,2	1	1	1	1	1	1	1	1	1	0	1	-6,553911	273,604958	311,191224	0
15.01.2021	23:57:48	0	0	4,519358	1,0365	334,5624	-0,123	87,457	0	1017,6	6,3	8,4	8,2	1	1	1	1	1	1	1	1	1	0	1	-4,439746	273,642811	313,481263	0
15.01.2021	23:57:49	0	0	2,824582	1,0095	335,3364	-0,125	87,448	0	1017,6	6,4	8,4	8,3	1	1	1	1	1	1	1	1	1	0	1	-4,087385	273,53817	313,347612	0
15.01.2021	23:57:50	0	0	4,745326	0,9975	336,7908	-0,127	87,46	0	1017,72	6,3	8,4	8,2	1	1	1	1	1	1	1	1	1	0	1	-5,84919	273,658848	312,146354	0
15.01.2021	23:57:51	0	0	3,728471	1,002	337,0716	-0,124	87,453	0	1017,64	6,4	8,4	8,2	1	1	1	1	1	1	1	1	1	0	1	-5,990134	273,514993	311,337294	0
15.01.2021	23:57:52	0	0	3,502503	1,02825	334,1988	-0,122	87,469	0	1017,6	6,3	8,4	8,2	1	1	1	1	1	1	1	1	1	0	1	-7,047216	273,625331	310,792568	0
15.01.2021	23:57:53	0	0	3,276535	1,04025	339,1092	-0,125	87,464	0	1017,7	6,3	8,4	8,2	1	1	1	1	1	1	1	1	1	0	1	-5,073996	273,552669	312,428312	0
15.01.2021	23:57:54	0	0	3,954415	1,092	341,28	-0,126	87,454	0	1017,64	6,3	8,4	8,3	1	1	1	1	1	1	1	1	1	0	1	-6,20155	273,653014	311,766881	0
15.01.2021	23:57:55	0	0	4,745326	1,1445	340,902	-0,125	87,466	0	1017,7	6,2	8,4	8,2	1	1	1	1	1	1	1	1	1	0	1	-8,738548	273,591872	308,945805	0
15.01.2021	23:57:56	0	0	5,084278	1,122	345,8484	-0,126	87,467	0	1017,64	6,3	8,4	8,2	1	1	1	1	1	1	1	1	1	0	1	-7,963354	273,655931	310,018632	0
15.01.2021	23:57:57	0	0	3,502503	1,0725	343,1304	-0,127	87,466	0	1017,4	6,3	8,4	8,2	1	1	1	1	1	1	1	1	1	0	1	-1,409443	273,591872	316,27491	0
15.01.2021	23:57:58	0	0	5,536181	1,10925	332,802	-0,125	87,469	0	1017,58	6,3	8,4	8,3	1	1	1	1	1	1	1	1	1	0	1	-3,171247	273,641353	314,74299	0
15.01.2021	23:57:59	0	0	4,745326	1,12875	333,4572	-0,125	87,452	0	1017,64	6,3	8,4	8,2	1	1	1	1	1	1	1	1	1	0	1	-4,580691	273,514993	312,746738	0
15.01.2021	23:58:00	0	0	5,084247	1,17075	340,1928	-0,123	87,465	0	1017,44	6,3	8,4	8,3	1	1	1	1	1	1	1	1	1	0	1	-4,721635	273,666142	313,307813	0
15.01.2021	23:58:01	0	0	2,937583	1,221	340,9056	-0,121	87,474	0	1017,46	6,3	8,4	8,2	1	1	1	1	1	1	1	1	1	0	1	-6,765328	273,500522	310,49495	0
15.01.2021	23:58:02	0	0	3,050567	1,17675	338,4396	-0,118	87,471	0	1017,78	6,3	8,4	8,2	1	1	1	1	1	1	1	1	1	0	1	-4,016913	273,503416	313,256789	0
15.01.2021	23:58:03	0	0	2,824599	1,1565	341,6076	-0,122	87,478	0	1017,5	6,4	8,4	8,2	1	1	1	1	1	1	1	1	1	0	1	-3,875969	273,648641	314,072135	0
15.01.2021	23:58:04	0	0	2,259679	1,16175	345,6972	-0,127	87,458	0	1017,52	6,4	8,4	8,2	1	1	1	1	1	1	1	1	1	0	1	-1,057082	273,520785	316,297223	0
15.01.2021	23:58:05	0	0	4,293365	1,15425	340,0812	-0,126	87,469	0	1017,5	6,4	8,4	8,3	1	1	1	1	1	1	1	1	1	0	1	-3,664553	273,604958	314,080583	0
15.01.2021	23:58:06	0	0	4,406374	1,15125	332,8236	-0,129	87,471	0	1017,56	6,4	8,4	8,2	1	1	1	1	1	1	1	1	1	0	1	-3,171247	273,628243	314,682068	0
15.01.2021	23:58:07	0	0	2,824599	1,20975	328,8924	-0,123	87,459	0	1017,74	6,2	8,4	8,2	1	1	1	1	1	1	1	1	1	0	1	-2,818887	273,478836	314,340779	0
15.01.2021	23:58:08	0	0	4,519358	1,224	327,15	-0,126	87,473	0	1017,62	6,3	8,4	8,2	1	1	1	1	1	1	1	1	1	0	1	-3,030303	273,631156	314,836546	0
15.01.2021	23:58:09	0	0	2,937583	1,2375	326,6892	-0,129	87,458	0	1017,44	6,3	8,4	8,2	1	1	1	1	1	1	1	1	1	0	1	-2,818887	273,584606	314,831721	0
15.01.2021	23:58:10	0	0	2,598631	1,278	323,6544	-0,126	87,473	0	1017,68	6,2	8,4	8,2	1	1	1	1	1	1	1	1	1	0	1	-8,597604	273,653014	309,370828	0
15.01.2021	23:58:11	0	0	2,711615	1,30875	321,1704	-0,132	87,475	0	1017,64	6,3	8,4	8,2	1	1	1	1	1	1	1	1	1	0	1	-5,778717	273,53672	311,649552	0
15.01.2021	23:58:12	0	0	4,632342	1,3485	323,7696	-0,122	87,478	0	1017,58	6,4	8,4	8,2	1	1	1	1	1	1	1	1	1	0	1	-1,691332	273,471613	315,434827	0
15.01.2021	23:58:13	0	0	3,163551	1,35375	324,6696	-0,127	87,47	0	1017,6	6,3	8,4	8,2	1	1	1	1	1	1	1	1	1	0	1	-7,540521	273,618052	310,265446	0
15.01.2021	23:58:14	0	0	3,050567	1,31025	324,0324	-0,13	87,48	0	1017,52	6,4	8,5	8,2	1	1	1	1	1	1	1	1	1	0	1	-3,100775	273,474502	314,038785	0
15.01.2021	23:58:15	0	0	2,937583	1,28175	324,3564	-0,117	87,532	0	1017,7	6,2	8,4	8,2	1	1	1	1	1	1	1	1	1	0	1	-8,879493	273,507757	308,414353	0
15.01.2021	23:58:16	0	0	3,163551	1,3005	324,0972	-0,122	87,476	0	1017,62	6,4	8,4	8,2	1	1	1	1	1	1	1	1	1	0	1	-6,131078	273,616597	311,668127	0
15.01.2021	23:58:17	0	0	2,937583	1,2765	335,2896	-0,127	87,473	0	1017,72	6,4	8,4	8,2	1	1	1	1	1	1	1	1	1	0	1	-5,637773	273,483172	311,542004	0
15.01.2021	23:58:18	0	0	3,502503	1,224	341,298	-0,126	87,48	0	1017,66	6,3	8,4	8,2	1	1	1	1	1	1	1	1	1	0	1	-6,060606	273,594779	311,63725	0
15.01.2021	23:58:19	0	0	3,728448	1,2495	340,1712	-0,122	87,485	0	1017,62	6,3	8,4	8,3	1	1	1	1	1	1	1	1	1	0	1	-5,84919	273,480281	311,317179	0
15.01.2021	23:58:20	0	0	3,389519	1,227	340,8444	-0,121	87,477	0	1017,58	6,3	8,4	8,2	1	1	1	1	1	1	1	1	1	0	1	-0,563777	273,541069	316,884677	0
15.01.2021	23:58:21	0	0	4,632342	1,209	338,6592	-0,121	87,466	0	1017,42	6,3	8,4	8,2	1	1	1	1	1	1	1	1	1	0	1	-7,047216	273,658848	310,948328	0
15.01.2021	23:58:22	0	0	4,293365	1,16325	336,8376	-0,125	87,471	0	1017,6	6,3	8,4	8,3	1	1	1	1	1	1	1	1	1	0	1	-5,426357	273,588966	312,244496	0
15.01.2021	23:58:23	0	0	4,519358	1,16475	334,5336	-0,129	87,484	0	1017,54	6,3	8,4	8,2	1	1	1	1	1	1	1	1	1	0	1	-1,973221	273,655931	316,008766	0
15.01.2021	23:58:24	0	0	3,615465	1,13175	337,0932	-0,123	87,482	0	1017,62	6,3	8,4	8,3	1	1	1	1	1	1	1	1	1	0	1	-5,144468	273,588966	312,526385	0
15.01.2021	23:58:25	0	0	4,406374	1,1415	336,0852	-0,127	87,466	0	1017,78	6,3	8,4	8,2	1	1	1	1	1	1	1	1	1	0	1	-3,171247	273,647183	314,770082	0
15.01.2021	23:58:26	0	0	2,937583	1,18725	340,8912	-0,124	87,471	0	1017,62	6,4	8,4	8,2	1	1	1	1	1	1	1	1	1	0	1	-7,047216	273,487508	310,152678	0
15.01.2021	23:58:27	0	0	3,841454	1,21125	334,6236	-0,13	87,485	0	1017,66	6,3	8,4	8,2	1	1	1	1	1	1	1	1	1	0	1	-6,342495	273,501969	310,924495	0
15.01.2021	23:58:28	0	0	2,372649	1,20975	323,6652	-0,127	87,472	0	1017,56	6,3	8,4	8,3	1	1	1	1	1	1	1	1	1	0	1	-7,681466	273,483172	309,498311	0
15.01.2021	23:58:29	0	0	4,519358	1,2585	329,6988	-0,124	87,479	0	1017,74	6,3	8,4	8,2	1	1	1	1	1	1	1	1	1	0	1	-6,624383	273,591872	311,05997	0
15.01.2021	23:58:30	0	0	3,163551	1,28475	335,7036	-0,128	87,475	0	1017,6	6,4	8,4	8,2	1	1	1	1	1	1	1	1	1	0	1	-3,946441	273,55557	313,569336	0
15.01.2021	23:58:31	0	0	5,084278	1,31925	338,6592	-0,127	87,493	0	1017,7	6,3	8,4	8,2	1	1	1	1	1	1	1	1	1	0	1	-4,651163	273,575891	312,958969	0
15.01.2021	23:58:32	0	0	3,728471	1,317	335,6748	-0,13	87,475	0	1017,72	6,4	8,4	8,2	1	1	1	1	1	1	1	1	1	0	1	-7,047216	273,645725	310,887339	0
15.01.2021	23:58:33	0	0	2,824599	1,293	336,3876	-0,131	87,48	0	1017,48	6,4	8,4	8,2	1	1	1	1	1	1	1	1	1	0	1	-4,933051	273,574439	312,670337	0
15.01.2021	23:58:34	0	0	4,85831	1,278	336,7692	-0,127	87,491	0	1017,56	6,3	8,4	8,2	1	1	1	1	1	1	1	1	1	0	1	-8,80902	273,468724	308,30374	0
15.01.2021	23:58:35	0	0	3,050567	1,239	332,4168	-0,126	87,47	0	1017,68	6,3	8,4	8,2	1	1	1	1	1	1	1	1	1	0	1	-3,523608	273,530924	313,877757	0
15.01.2021	23:58:36	0	0	2,937583	1,22925	333,4392	-0,135	87,479	0	1017,54	6,3	8,4	8,2	1	1	1	1	1	1	1	1	1	0	1	-0,070472	273,470169	317,048988	0
15.01.2021	23:58:37	0	0	2,146695	1,2075	324,0612	-0,125	87,482	0	1017,7	6,4	8,4	8,2	1	1	1	1	1	1	1	1	1	0	1	-5,778717	273,557021	311,743795	0
15.01.2021	23:58:38	0	0	4,406348	1,19625	323,316	-0,124	87,484	0	1017,68	6,4	8,4	8,3	1	1	1	1	1	1	1	1	1	0	1	-5,496829	273,651556	312,464826	0
15.01.2021	23:58:39	0	0	4,85831	1,19175	334,2348	-0,131	87,49	0	1017,62	6,2	8,4	8,2	1	1	1	1	1	1	1	1	1	0	1	-6,483439	273,594779	311,214417	0
15.01.2021	23:58:40	0	0	4,067422	1,17975	333,8496	-0,129	87,486	0	1017,56	6,3	8,4	8,2	1	1	1	1	1	1	1	1	1	0	1	-6,906272	273,657389	311,082493	0
15.01.2021	23:58:41	0	0	3,050567	1,1655	332,4528	-0,13	87,479	0	1017,62	6,3	8,4	8,2	1	1	1	1	1	1	1	1	1	0	1	-4,369274	273,473057	312,763585	0
15.01.2021	23:58:42	0	0	4,85831	1,19925	333,4644	-0,126	87,488	0	1017,6	6,2	8,4	8,2	1	1	1	1	1	1	1	1	1	0	1	-4,087385	273,530924	313,31398	0
15.01.2021	23:58:43	0	0	3,841454	1,17675	332,3736	-0,13	87,469	0	1017,66	6,4	8,4	8,2	1	1	1	1	1	1	1	1	1	0	1	-3,875969	273,616597	313,923237	0
15.01.2021	23:58:44	0	0	3,276535	1,1775	330,03	-0,129	87,486	0	1017,6	6,4	8,4	8,2	1	1	1	1	1	1	1	1	1	0	1	-5,355884	273,500522	311,904393	0
15.01.2021	23:58:45	0	0	2,598631	1,1565	335,6568	-0,13	87,471	0	1017,52	6,2	8,4	8,2	1	1	1	1	1	1	1	1	1	0	1	-2,466526	273,541069	314,981929	0
15.01.2021	23:58:46	0	0	2,598615	1,143	349,3692	-0,129	87,494	0	1017,62	6,4	8,4	8,3	1	1	1	1	1	1	1	1	1	0	1	-3,59408	273,46728	313,511982	0
15.01.2021	23:58:47	0	0	4,632342	1,113	344,61	-0,13	87,468	0	1017,52	6,4	8,4	8,2	1	1	1	1	1	1	1	1	1	0	1	-9,161381	273,548318	308,320727	0
15.01.2021	23:58:48	0	0	4,971294	1,107	342,0576	-0,13	87,493	0	1017,64	6,4	8,4	8,2	1	1	1	1	1	1	1	1	1	0	1	-5,778717	273,653014	312,189714	0
15.01.2021	23:58:49	0	0	3,163551	1,0725	343,4112	-0,134	87,466	0	1017,66	6,2	8,4	8,2	1	1	1	1	1	1	1	1	1	0	1	-2,325581	273,487508	314,874313	0
15.01.2021	23:58:50	0	0	2,485632	1,077	341,262	-0,13	87,54	0	1017,54	6,2	8,4	8,3	1	1	1	1	1	1	1	1	1	0	1	-9,866103	273,507757	307,427742	0
15.01.2021	23:58:51	0	0	4,29339	1,116	346,86	-0,125	87,486	0	1017,46	6,4	8,4	8,2	1	1	1	1	1	1	1	1	1	0	1	-8,174771	273,653014	309,793661	0
15.01.2021	23:58:52	0	0	2,485647	1,1295	345,4344	-0,131	87,484	0	1017,56	6,4	8,4	8,2	1	1	1	1	1	1	1	1	1	0	1	-4,298802	273,615142	313,493643	0
15.01.2021	23:58:53	0	0	4,067422	1,13025	341,298	-0,139	87,485	0	1017,56	6,3	8,4	8,2	1	1	1	1	1	1	1	1	1	0	1	-8,174771	273,660306	309,827553	0
15.01.2021	23:58:54	0	0	4,067422	1,11975	341,6364	-0,132	87,488	0	1017,54	6,3	8,4	8,2	1	1	1	1	1	1	1	1	1	0	1	-8,245243	273,514993	309,082185	0
15.01.2021	23:58:55	0	0	3,389519	1,15725	342,0684	-0,13	87,486	0	1017,6	6,4	8,4	8,2	1	1	1	1	1	1	1	1	1	0	1	-6,694856	273,478836	310,46481	0
15.01.2021	23:58:56	0	0	2,824599	1,1805	342,324	-0,139	87,484	0	1017,48	6,3	8,4	8,2	1	1	1	1	1	1	1	1	1	0	1	-5,285412	273,487508	311,914482	0
15.01.2021	23:58:57	0	0	3,050567	1,1925	345,3012	-0,132	87,496	0	1017,62	6,3	8,4	8,2	1	1	1	1	1	1	1	1	1	0	1	-3,59408	273,501969	313,672909	0
15.01.2021	23:58:58	0	0	3,276535	1,22025	343,0908	-0,13	87,503	0	1017,64	6,3	8,4	8,2	1	1	1	1	1	1	1	1	1	0	1	-2,466526	273,653014	315,501906	0
15.01.2021	23:58:59	0	0	2,937583	1,23225	338,3856	-0,131	87,492	0	1017,54	6,3	8,4	8,2	1	1	1	1	1	1	1	1	1	0	1	-6,976744	273,561374	310,565979	0
15.01.2021	23:59:00	0	0	4,406374	1,2315	336,2904	-0,131	87,492	0	1017,58	6,3	8,4	8,2	1	1	1	1	1	1	1	1	1	0	1	-7,188161	273,484617	309,998322	0
15.01.2021	23:59:01	0	0	3,163551	1,215	336,8232	-0,13	87,49	0	1017,58	6,3	8,4	8,2	1	1	1	1	1	1	1	1	1	0	1	-3,171247	273,552669	314,33106	0
15.01.2021	23:59:02	0	0	2,824599	1,1655	338,7168	-0,133	87,482	0	1017,5	6,4	8,4	8,2	1	1	1	1	1	1	1	1	1	0	1	-6,765328	273,464392	310,32734	0
15.01.2021	23:59:03	0	0	3,389519	1,1385	339,5772	-0,143	87,482	0	1017,62	6,3	8,4	8,2	1	1	1	1	1	1	1	1	1	0	1	-5,990134	273,577343	311,626743	0
15.01.2021	23:59:04	0	0	2,259679	1,113	335,2716	-0,13	87,494	0	1017,58	6,3	8,4	8,2	1	1	1	1	1	1	1	1	1	0	1	-4,651163	273,462949	312,434809	0
15.01.2021	23:59:05	0	0	4,067422	1,1115	335,592	-0,138	87,49	0	1017,62	6,2	8,4	8,2	1	1	1	1	1	1	1	1	1	0	1	-6,765328	273,620963	311,054165	0
15.01.2021	23:59:06	0	0	2,259679	1,116	340,0128	-0,132	87,481	0	1017,54	6,2	8,4	8,2	1	1	1	1	1	1	1	1	1	0	1	-4,510218	273,470169	312,609241	0
15.01.2021	23:59:07	0	0	3,954438	1,119	340,5528	-0,133	87,488	0	1017,54	6,2	8,4	8,2	1	1	1	1	1	1	1	1	1	0	1	-3,735025	273,599141	313,98309	0
15.01.2021	23:59:08	0	0	3,050567	1,09425	336,7332	-0,128	87,502	0	1017,54	6,3	8,4	8,2	1	1	1	1	1	1	1	1	1	0	1	-5,003524	273,480281	312,162845	0
15.01.2021	23:59:09	0	0	3,615487	1,10025	342,1008	-0,128	87,491	0	1017,76	6,4	8,4	8,2	1	1	1	1	1	1	1	1	1	0	1	-1,902748	273,590419	315,774854	0
15.01.2021	23:59:10	0	0	3,276535	1,113	342,702	-0,128	87,511	0	1017,6	6,4	8,4	8,2	1	1	1	1	1	1	1	1	1	0	1	-3,453136	273,471613	313,673023	0
15.01.2021	23:59:11	0	0	3,615487	1,12575	335,304	-0,136	87,497	0	1017,64	6,3	8,4	8,2	1	1	1	1	1	1	1	1	1	0	1	-4,510218	273,629699	313,349864	0
15.01.2021	23:59:12	0	0	2,937583	1,134	336,2976	-0,131	87,479	0	1017,56	6,3	8,4	8,2	1	1	1	1	1	1	1	1	1	0	1	-2,889359	273,523681	314,47839	0
15.01.2021	23:59:13	0	0	2,711615	1,14375	336,3372	-0,138	87,509	0	1017,72	6,3	8,4	8,2	1	1	1	1	1	1	1	1	1	0	1	-7,329105	273,468724	309,783656	0
15.01.2021	23:59:14	0	0	3,615487	1,134	342,1116	-0,129	87,488	0	1017,52	6,4	8,4	8,2	1	1	1	1	1	1	1	1	1	0	1	-8,386187	273,533822	309,028629	0
15.01.2021	23:59:15	0	0	3,276535	1,14075	343,098	-0,138	87,497	0	1017,58	6,3	8,4	8,2	1	1	1	1	1	1	1	1	1	0	1	-7,470049	273,635525	310,417105	0
15.01.2021	23:59:16	0	0	2,485647	1,12125	336,8484	-0,131	87,508	0	1017,48	6,3	8,4	8,2	1	1	1	1	1	1	1	1	1	0	1	-6,20155	273,655931	311,780436	0
15.01.2021	23:59:17	0	0	4,293365	1,1235	342,774	-0,134	87,5	0	1017,58	6,3	8,4	8,3	1	1	1	1	1	1	1	1	1	0	1	-5,919662	273,578796	311,70396	0
15.01.2021	23:59:18	0	0	3,276535	1,095	343,8684	-0,142	87,498	0	1017,74	6,3	8,4	8,2	1	1	1	1	1	1	1	1	1	0	1	-5,496829	273,452845	311,542285	0
15.01.2021	23:59:19	0	0	4,85831	1,116	338,3064	-0,133	87,487	0	1017,6	6,4	8,4	8,2	1	1	1	1	1	1	1	1	1	0	1	-7,399577	273,575891	310,210555	0
15.01.2021	23:59:20	0	0	3,728471	1,0935	342,3348	-0,134	87,499	0	1017,66	6,3	8,4	8,2	1	1	1	1	1	1	1	1	1	0	1	-2,184637	273,487508	315,015257	0
15.01.2021	23:59:21	0	0	4,632342	1,095	342,0108	-0,137	87,506	0	1017,6	6,3	8,4	8,2	1	1	1	1	1	1	1	1	1	0	1	-6,553911	273,639896	311,353554	0
15.01.2021	23:59:22	0	0	4,067422	1,107	343,0656	-0,139	87,5	0	1017,58	6,3	8,4	8,2	1	1	1	1	1	1	1	1	1	0	1	-3,664553	273,53672	313,763717	0
15.01.2021	23:59:23	0	0	3,954438	1,086	339,7104	-0,132	87,489	0	1017,54	6,4	8,4	8,2	1	1	1	1	1	1	1	1	1	0	1	-8,738548	273,481726	308,434525	0
15.01.2021	23:59:24	0	0	2,824599	1,07475	345,3732	-0,129	87,509	0	1017,54	6,3	8,4	8,2	1	1	1	1	1	1	1	1	1	0	1	-5,919662	273,591872	311,764691	0
15.01.2021	23:59:25	0	0	3,276535	1,0695	346,1616	-0,137	87,502	0	1017,48	6,4	8,4	8,2	1	1	1	1	1	1	1	1	1	0	1	-5,285412	273,509204	312,015148	0
15.01.2021	23:59:26	0	0	3,050567	1,0755	342,7488	-0,131	87,51	0	1017,5	6,3	8,4	8,2	1	1	1	1	1	1	1	1	1	0	1	-4,933051	273,641353	312,981186	0
15.01.2021	23:59:27	0	0	4,067422	1,08825	339,4044	-0,135	87,505	0	1017,58	6,3	8,4	8,2	1	1	1	1	1	1	1	1	1	0	1	-4,651163	273,509204	312,649398	0
15.01.2021	23:59:28	0	0	4,519358	1,12875	341,3412	-0,134	87,52	0	1017,64	6,3	8,4	8,2	1	1	1	1	1	1	1	1	1	0	1	-7,681466	273,514993	309,645962	0
15.01.2021	23:59:29	0	0	3,615487	1,18275	345,132	-0,144	87,505	0	1017,54	6,3	8,4	8,2	1	1	1	1	1	1	1	1	1	0	1	-3,946441	273,653014	314,021991	0
15.01.2021	23:59:30	0	0	4,85831	1,2435	351,6372	-0,132	87,518	0	1017,6	6,3	8,4	8,2	1	1	1	1	1	1	1	1	1	0	1	-6,624383	273,596233	311,080225	0
15.01.2021	23:59:31	0	0	2,937583	1,29	353,592	-0,134	87,515	0	1017,42	6,3	8,4	8,2	1	1	1	1	1	1	1	1	1	0	1	-6,131078	273,46728	310,974984	0
15.01.2021	23:59:32	0	0	5,084278	1,22025	353,2104	-0,131	87,5	0	1017,54	6,2	8,4	8,2	1	1	1	1	1	1	1	1	1	0	1	-11,205074	273,588966	306,465779	0
15.01.2021	23:59:33	0	0	4,180406	1,1565	343,4184	-0,134	87,501	0	1017,56	6,2	8,4	8,2	1	1	1	1	1	1	1	1	1	0	1	-4,580691	273,650098	313,374189	0
15.01.2021	23:59:34	0	0	5,197262	1,1715	335,6532	-0,134	87,505	0	1017,64	6,4	8,4	8,2	1	1	1	1	1	1	1	1	1	0	1	-5,919662	273,588966	311,751191	0
15.01.2021	23:59:35	0	0	4,406374	1,17825	336,006	-0,133	87,53	0	1017,6	6,2	8,4	8,2	1	1	1	1	1	1	1	1	1	0	1	-4,510218	273,653014	313,458213	0
15.01.2021	23:59:36	0	0	4,632314	1,21425	339,4728	-0,137	87,507	0	1017,46	6,3	8,4	8,3	1	1	1	1	1	1	1	1	1	0	1	-5,567301	273,475947	311,57896	0
15.01.2021	23:59:37	0	0	4,971294	1,224	337,0896	-0,137	87,523	0	1017,56	6,4	8,4	8,2	1	1	1	1	1	1	1	1	1	0	1	-5,426357	273,551219	312,069217	0
15.01.2021	23:59:38	0	0	4,745326	1,2405	337,0464	-0,14	87,522	0	1017,54	6,3	8,4	8,2	1	1	1	1	1	1	1	1	1	0	1	-4,087385	273,636982	313,806539	0
15.01.2021	23:59:39	0	0	2,485647	1,2615	340,128	-0,133	87,517	0	1017,5	6,2	8,4	8,2	1	1	1	1	1	1	1	1	1	0	1	-5,919662	273,496183	311,320482	0
15.01.2021	23:59:40	0	0	2,937583	1,21125	336,8052	-0,136	87,511	0	1017,62	6,4	8,4	8,2	1	1	1	1	1	1	1	1	1	0	1	-7,681466	273,645725	310,25309	0
15.01.2021	23:59:41	0	0	3,954438	1,2195	340,1712	-0,14	87,509	0	1017,54	6,3	8,4	8,2	1	1	1	1	1	1	1	1	1	0	1	-8,80902	273,501969	308,457969	0
15.01.2021	23:59:42	0	0	4,85831	1,17225	338,7276	-0,134	87,505	0	1017,52	6,2	8,4	8,2	1	1	1	1	1	1	1	1	1	0	1	-7,258633	273,635525	310,628522	0
15.01.2021	23:59:43	0	0	3,276535	1,16325	342,6912	-0,135	87,524	0	1017,54	6,4	8,4	8,2	1	1	1	1	1	1	1	1	1	0	1	-4,298802	273,500522	312,961475	0
15.01.2021	23:59:44	0	0	3,502503	1,14825	349,3368	-0,133	87,524	0	1017,66	6,4	8,4	8,2	1	1	1	1	1	1	1	1	1	0	1	-7,117689	273,590419	310,559914	0
15.01.2021	23:59:45	0	0	3,954438	1,1085	340,2108	-0,14	87,513	0	1017,42	6,3	8,4	8,2	1	1	1	1	1	1	1	1	1	0	1	-5,003524	273,650098	312,951356	0
15.01.2021	23:59:46	0	0	4,971294	1,04175	337,4604	-0,134	87,522	0	1017,48	6,2	8,4	8,2	1	1	1	1	1	1	1	1	1	0	1	-8,104299	273,53817	309,330698	0
15.01.2021	23:59:47	0	0	2,711615	0,98025	340,8732	-0,138	87,507	0	1017,6	6,4	8,4	8,2	1	1	1	1	1	1	1	1	1	0	1	-8,104299	273,636982	309,789626	0
15.01.2021	23:59:48	0	0	4,632342	0,921	344,9412	-0,136	87,526	0	1017,54	6,3	8,4	8,2	1	1	1	1	1	1	1	1	1	0	1	-4,439746	273,616597	313,359459	0
15.01.2021	23:59:49	0	0	2,937583	0,9075	344,3364	-0,139	87,517	0	1017,62	6,3	8,4	8,2	1	1	1	1	1	1	1	1	1	0	1	-7,82241	273,481726	309,350663	0
15.01.2021	23:59:50	0	0	3,615487	0,873	340,8516	-0,137	87,534	0	1017,64	6,4	8,4	8,2	1	1	1	1	1	1	1	1	1	0	1	-3,312192	273,591872	314,372162	0
15.01.2021	23:59:51	0	0	2,711615	0,85425	338,7312	-0,139	87,524	0	1017,56	6,3	8,4	8,2	1	1	1	1	1	1	1	1	1	0	1	-9,795631	273,473057	307,337229	0
15.01.2021	23:59:52	0	0	3,050567	0,846	330,0696	-0,138	87,52	0	1017,58	6,3	8,4	8,2	1	1	1	1	1	1	1	1	1	0	1	-8,597604	273,522233	308,763423	0
15.01.2021	23:59:53	0	0	2,598631	0,89325	332,2584	-0,134	87,538	0	1017,5	6,4	8,4	8,2	1	1	1	1	1	1	1	1	1	0	1	-4,369274	273,517889	312,971592	0
15.01.2021	23:59:54	0	0	3,276535	0,91125	341,262	-0,133	87,539	0	1017,62	6,4	8,4	8,2	1	1	1	1	1	1	1	1	1	0	1	-4,721635	273,644268	313,206147	0
15.01.2021	23:59:55	0	0	3,841454	0,9075	344,2932	-0,131	87,532	0	1017,48	6,3	8,4	8,2	1	1	1	1	1	1	1	1	1	0	1	-7,117689	273,632612	310,755929	0
15.01.2021	23:59:56	0	0	5,084278	0,9045	338,364	-0,134	87,529	0	1017,54	6,4	8,4	8,2	1	1	1	1	1	1	1	1	1	0	1	-7,258633	273,584606	310,391974	0
15.01.2021	23:59:57	0	0	4,632342	0,8805	334,6092	-0,129	87,531	0	1017,48	6,3	8,4	8,2	1	1	1	1	1	1	1	1	1	0	1	-7,610994	273,653014	310,357438	0
15.01.2021	23:59:58	0	0	4,85831	0,8955	342,0432	-0,135	87,528	0	1017,58	6,3	8,4	8,2	1	1	1	1	1	1	1	1	1	0	1	-6,8358	273,549768	310,653041	0
15.01.2021	23:59:59	0	0	3,841454	0,8775	350,19	-0,138	87,533	0	1017,54	6,4	8,4	8,2	1	1	1	1	1	1	1	1	1	0	1	-3,946441	273,470169	313,173019	0
